<?xml version='1.0' encoding='UTF-8'?><gpx version="1.1" creator="JPX - https://github.com/jenetics/jpx" xmlns="http://www.topografix.com/GPX/1/1"><trk><trkseg><trkpt lat="41.3160042" lon="19.4540982"><ele>-0.9999999999999999</ele><time>2026-04-26T09:39:31.279Z</time></trkpt><trkpt lat="41.3160687" lon="19.4541122"><ele>-1.0</ele><time>2026-04-26T09:40:31.28Z</time></trkpt><trkpt lat="41.3161239" lon="19.4541611"><ele>-1.0</ele><time>2026-04-26T09:41:50.28Z</time></trkpt><trkpt lat="41.3161921" lon="19.4542253"><ele>-1.0</ele><time>2026-04-26T09:41:52.279Z</time></trkpt><trkpt lat="41.316284" lon="19.4542918"><ele>-0.9999999999999999</ele><time>2026-04-26T09:41:53.28Z</time></trkpt><trkpt lat="41.3163529" lon="19.4543371"><ele>-1.0</ele><time>2026-04-26T09:41:55.28Z</time></trkpt><trkpt lat="41.3164222" lon="19.4543956"><ele>-0.8333333333333333</ele><time>2026-04-26T09:41:58.28Z</time></trkpt><trkpt lat="41.3164758" lon="19.4544471"><ele>-0.6666666666666666</ele><time>2026-04-26T09:42:00.279Z</time></trkpt><trkpt lat="41.3165748" lon="19.4544717"><ele>-0.5</ele><time>2026-04-26T09:42:02.279Z</time></trkpt><trkpt lat="41.3166211" lon="19.4545348"><ele>-0.3333333333333333</ele><time>2026-04-26T09:42:05.28Z</time></trkpt><trkpt lat="41.316659" lon="19.4546086"><ele>-0.16666666666666666</ele><time>2026-04-26T09:42:14.279Z</time></trkpt><trkpt lat="41.3167081" lon="19.4547098"><ele>0.0</ele><time>2026-04-26T09:42:16.28Z</time></trkpt><trkpt lat="41.3167409" lon="19.4548412"><ele>0.0</ele><time>2026-04-26T09:42:18.28Z</time></trkpt><trkpt lat="41.3167768" lon="19.4549785"><ele>0.0</ele><time>2026-04-26T09:42:20.279Z</time></trkpt><trkpt lat="41.316798" lon="19.455111"><ele>0.0</ele><time>2026-04-26T09:42:22.28Z</time></trkpt><trkpt lat="41.3168118" lon="19.4552365"><ele>0.0</ele><time>2026-04-26T09:42:24.279Z</time></trkpt><trkpt lat="41.3168378" lon="19.455389"><ele>0.0</ele><time>2026-04-26T09:42:26.279Z</time></trkpt><trkpt lat="41.3168509" lon="19.4554746"><ele>0.3333333333333333</ele><time>2026-04-26T09:42:27.28Z</time></trkpt><trkpt lat="41.3168566" lon="19.4555647"><ele>0.6666666666666666</ele><time>2026-04-26T09:42:28.28Z</time></trkpt><trkpt lat="41.3168686" lon="19.4556545"><ele>1.0</ele><time>2026-04-26T09:42:29.28Z</time></trkpt><trkpt lat="41.3168859" lon="19.4558388"><ele>1.3333333333333333</ele><time>2026-04-26T09:42:31.279Z</time></trkpt><trkpt lat="41.3168967" lon="19.4559386"><ele>1.6666666666666665</ele><time>2026-04-26T09:42:32.279Z</time></trkpt><trkpt lat="41.3169087" lon="19.4560472"><ele>2.0</ele><time>2026-04-26T09:42:33.28Z</time></trkpt><trkpt lat="41.3169183" lon="19.4561575"><ele>1.9999999999999998</ele><time>2026-04-26T09:42:34.28Z</time></trkpt><trkpt lat="41.3169218" lon="19.4562587"><ele>2.0</ele><time>2026-04-26T09:42:35.28Z</time></trkpt><trkpt lat="41.3169193" lon="19.4563568"><ele>2.0</ele><time>2026-04-26T09:42:36.28Z</time></trkpt><trkpt lat="41.3169178" lon="19.4564439"><ele>2.0</ele><time>2026-04-26T09:42:37.28Z</time></trkpt><trkpt lat="41.3169277" lon="19.4565824"><ele>1.9999999999999998</ele><time>2026-04-26T09:42:39.28Z</time></trkpt><trkpt lat="41.3169461" lon="19.4566807"><ele>2.0</ele><time>2026-04-26T09:42:42.279Z</time></trkpt><trkpt lat="41.317001" lon="19.4568082"><ele>2.0</ele><time>2026-04-26T09:43:09.279Z</time></trkpt><trkpt lat="41.3170371" lon="19.4568769"><ele>1.9999999999999998</ele><time>2026-04-26T09:43:10.28Z</time></trkpt><trkpt lat="41.3170748" lon="19.4569495"><ele>2.0</ele><time>2026-04-26T09:43:11.279Z</time></trkpt><trkpt lat="41.3171073" lon="19.457035"><ele>2.0</ele><time>2026-04-26T09:43:12.279Z</time></trkpt><trkpt lat="41.3171311" lon="19.4571229"><ele>1.9999999999999998</ele><time>2026-04-26T09:43:13.28Z</time></trkpt><trkpt lat="41.3171507" lon="19.4572286"><ele>2.0</ele><time>2026-04-26T09:43:14.279Z</time></trkpt><trkpt lat="41.3171649" lon="19.4573366"><ele>2.0</ele><time>2026-04-26T09:43:15.279Z</time></trkpt><trkpt lat="41.3171696" lon="19.4574495"><ele>1.9999999999999998</ele><time>2026-04-26T09:43:16.28Z</time></trkpt><trkpt lat="41.317166" lon="19.4575638"><ele>2.0</ele><time>2026-04-26T09:43:17.279Z</time></trkpt><trkpt lat="41.317162" lon="19.4576717"><ele>2.0</ele><time>2026-04-26T09:43:18.28Z</time></trkpt><trkpt lat="41.3171499" lon="19.4577778"><ele>2.0</ele><time>2026-04-26T09:43:19.279Z</time></trkpt><trkpt lat="41.3171259" lon="19.4578705"><ele>1.9999999999999998</ele><time>2026-04-26T09:43:20.28Z</time></trkpt><trkpt lat="41.3170846" lon="19.4579497"><ele>2.0</ele><time>2026-04-26T09:43:21.28Z</time></trkpt><trkpt lat="41.3170408" lon="19.4580284"><ele>1.9999999999999998</ele><time>2026-04-26T09:43:22.28Z</time></trkpt><trkpt lat="41.3170067" lon="19.4581156"><ele>2.0</ele><time>2026-04-26T09:43:23.28Z</time></trkpt><trkpt lat="41.3169878" lon="19.4582151"><ele>2.0</ele><time>2026-04-26T09:43:24.279Z</time></trkpt><trkpt lat="41.3169924" lon="19.4583188"><ele>2.0</ele><time>2026-04-26T09:43:25.28Z</time></trkpt><trkpt lat="41.3170037" lon="19.4584289"><ele>1.9999999999999998</ele><time>2026-04-26T09:43:26.28Z</time></trkpt><trkpt lat="41.3170167" lon="19.4585378"><ele>2.0</ele><time>2026-04-26T09:43:27.279Z</time></trkpt><trkpt lat="41.317032" lon="19.4586513"><ele>2.0</ele><time>2026-04-26T09:43:28.279Z</time></trkpt><trkpt lat="41.3170501" lon="19.4587672"><ele>2.0</ele><time>2026-04-26T09:43:29.279Z</time></trkpt><trkpt lat="41.31707" lon="19.4588859"><ele>2.0</ele><time>2026-04-26T09:43:30.279Z</time></trkpt><trkpt lat="41.3170904" lon="19.4590042"><ele>2.0</ele><time>2026-04-26T09:43:31.28Z</time></trkpt><trkpt lat="41.3171083" lon="19.4591219"><ele>2.0</ele><time>2026-04-26T09:43:32.279Z</time></trkpt><trkpt lat="41.3171249" lon="19.4592409"><ele>2.0</ele><time>2026-04-26T09:43:33.28Z</time></trkpt><trkpt lat="41.3171435" lon="19.4593508"><ele>2.0</ele><time>2026-04-26T09:43:34.28Z</time></trkpt><trkpt lat="41.3171647" lon="19.4594616"><ele>2.0</ele><time>2026-04-26T09:43:35.28Z</time></trkpt><trkpt lat="41.3171748" lon="19.4595793"><ele>2.0</ele><time>2026-04-26T09:43:36.279Z</time></trkpt><trkpt lat="41.3171784" lon="19.459703"><ele>2.0</ele><time>2026-04-26T09:43:37.28Z</time></trkpt><trkpt lat="41.3171783" lon="19.4598396"><ele>1.8</ele><time>2026-04-26T09:43:38.28Z</time></trkpt><trkpt lat="41.3171876" lon="19.4599653"><ele>1.6</ele><time>2026-04-26T09:43:39.28Z</time></trkpt><trkpt lat="41.3171948" lon="19.460089"><ele>1.4000000000000001</ele><time>2026-04-26T09:43:40.28Z</time></trkpt><trkpt lat="41.3171975" lon="19.4602134"><ele>1.2000000000000002</ele><time>2026-04-26T09:43:41.28Z</time></trkpt><trkpt lat="41.3171965" lon="19.4603367"><ele>1.0</ele><time>2026-04-26T09:43:42.279Z</time></trkpt><trkpt lat="41.3171953" lon="19.4604657"><ele>0.8</ele><time>2026-04-26T09:43:43.28Z</time></trkpt><trkpt lat="41.3171927" lon="19.4605918"><ele>0.6000000000000001</ele><time>2026-04-26T09:43:44.279Z</time></trkpt><trkpt lat="41.3171883" lon="19.4607205"><ele>0.4</ele><time>2026-04-26T09:43:45.28Z</time></trkpt><trkpt lat="41.3171859" lon="19.4608456"><ele>0.2</ele><time>2026-04-26T09:43:46.28Z</time></trkpt><trkpt lat="41.3171821" lon="19.4609774"><ele>0.0</ele><time>2026-04-26T09:43:47.28Z</time></trkpt><trkpt lat="41.3171793" lon="19.4611102"><ele>0.0</ele><time>2026-04-26T09:43:48.279Z</time></trkpt><trkpt lat="41.3171763" lon="19.4612478"><ele>0.0</ele><time>2026-04-26T09:43:49.28Z</time></trkpt><trkpt lat="41.3171687" lon="19.4613872"><ele>0.0</ele><time>2026-04-26T09:43:50.28Z</time></trkpt><trkpt lat="41.3171613" lon="19.4615271"><ele>0.0</ele><time>2026-04-26T09:43:51.279Z</time></trkpt><trkpt lat="41.3171494" lon="19.4616678"><ele>0.0</ele><time>2026-04-26T09:43:52.28Z</time></trkpt><trkpt lat="41.317136" lon="19.4618124"><ele>-0.25</ele><time>2026-04-26T09:43:53.279Z</time></trkpt><trkpt lat="41.3171251" lon="19.4619622"><ele>-0.5</ele><time>2026-04-26T09:43:54.279Z</time></trkpt><trkpt lat="41.3171129" lon="19.4621199"><ele>-0.75</ele><time>2026-04-26T09:43:55.28Z</time></trkpt><trkpt lat="41.3170988" lon="19.462271"><ele>-1.0</ele><time>2026-04-26T09:43:56.279Z</time></trkpt><trkpt lat="41.3170854" lon="19.4624296"><ele>-1.0</ele><time>2026-04-26T09:43:57.28Z</time></trkpt><trkpt lat="41.3170696" lon="19.4625834"><ele>-1.0</ele><time>2026-04-26T09:43:58.28Z</time></trkpt><trkpt lat="41.3170501" lon="19.4627361"><ele>-1.0</ele><time>2026-04-26T09:43:59.279Z</time></trkpt><trkpt lat="41.3170273" lon="19.4628857"><ele>-1.0</ele><time>2026-04-26T09:44:00.279Z</time></trkpt><trkpt lat="41.3170127" lon="19.4630349"><ele>-1.0</ele><time>2026-04-26T09:44:01.279Z</time></trkpt><trkpt lat="41.316996" lon="19.4631904"><ele>-1.0</ele><time>2026-04-26T09:44:02.279Z</time></trkpt><trkpt lat="41.3169763" lon="19.463337"><ele>-1.0</ele><time>2026-04-26T09:44:03.28Z</time></trkpt><trkpt lat="41.3169596" lon="19.4634869"><ele>-1.0</ele><time>2026-04-26T09:44:04.279Z</time></trkpt><trkpt lat="41.3169408" lon="19.4636303"><ele>-1.0</ele><time>2026-04-26T09:44:05.279Z</time></trkpt><trkpt lat="41.3169184" lon="19.4637724"><ele>-1.0</ele><time>2026-04-26T09:44:06.279Z</time></trkpt><trkpt lat="41.3168975" lon="19.4639044"><ele>-1.0</ele><time>2026-04-26T09:44:07.279Z</time></trkpt><trkpt lat="41.3168799" lon="19.4640191"><ele>-1.0</ele><time>2026-04-26T09:44:08.279Z</time></trkpt><trkpt lat="41.3168617" lon="19.4641254"><ele>-1.0</ele><time>2026-04-26T09:44:09.279Z</time></trkpt><trkpt lat="41.3168427" lon="19.4642206"><ele>-0.8</ele><time>2026-04-26T09:44:10.279Z</time></trkpt><trkpt lat="41.3168161" lon="19.4643597"><ele>-0.6000000000000001</ele><time>2026-04-26T09:44:12.28Z</time></trkpt><trkpt lat="41.3167971" lon="19.4644555"><ele>-0.4</ele><time>2026-04-26T09:44:16.28Z</time></trkpt><trkpt lat="41.316771" lon="19.4645527"><ele>-0.2</ele><time>2026-04-26T09:44:19.279Z</time></trkpt><trkpt lat="41.3167436" lon="19.4647315"><ele>0.0</ele><time>2026-04-26T09:44:21.279Z</time></trkpt><trkpt lat="41.3167244" lon="19.4648225"><ele>0.0</ele><time>2026-04-26T09:44:22.28Z</time></trkpt><trkpt lat="41.3167022" lon="19.4649105"><ele>0.0</ele><time>2026-04-26T09:44:23.28Z</time></trkpt><trkpt lat="41.3166838" lon="19.464991"><ele>0.0</ele><time>2026-04-26T09:44:24.28Z</time></trkpt><trkpt lat="41.3166539" lon="19.4651305"><ele>0.0</ele><time>2026-04-26T09:44:26.279Z</time></trkpt><trkpt lat="41.3166332" lon="19.4652486"><ele>0.0</ele><time>2026-04-26T09:44:28.28Z</time></trkpt><trkpt lat="41.3166098" lon="19.4653861"><ele>0.0</ele><time>2026-04-26T09:44:30.279Z</time></trkpt><trkpt lat="41.3165794" lon="19.4655561"><ele>0.2</ele><time>2026-04-26T09:44:32.279Z</time></trkpt><trkpt lat="41.3165698" lon="19.4656603"><ele>0.4</ele><time>2026-04-26T09:44:33.28Z</time></trkpt><trkpt lat="41.3165516" lon="19.4657847"><ele>0.6000000000000001</ele><time>2026-04-26T09:44:34.279Z</time></trkpt><trkpt lat="41.3165359" lon="19.4659225"><ele>0.8</ele><time>2026-04-26T09:44:35.279Z</time></trkpt><trkpt lat="41.3165186" lon="19.4660521"><ele>1.0</ele><time>2026-04-26T09:44:36.28Z</time></trkpt><trkpt lat="41.3164974" lon="19.4661763"><ele>0.8333333333333333</ele><time>2026-04-26T09:44:37.279Z</time></trkpt><trkpt lat="41.3164824" lon="19.4662973"><ele>0.6666666666666666</ele><time>2026-04-26T09:44:38.28Z</time></trkpt><trkpt lat="41.3164705" lon="19.4663974"><ele>0.5</ele><time>2026-04-26T09:44:39.28Z</time></trkpt><trkpt lat="41.3164579" lon="19.4664881"><ele>0.3333333333333333</ele><time>2026-04-26T09:44:40.28Z</time></trkpt><trkpt lat="41.3164266" lon="19.466627"><ele>0.16666666666666666</ele><time>2026-04-26T09:44:42.279Z</time></trkpt><trkpt lat="41.3163922" lon="19.4667223"><ele>0.0</ele><time>2026-04-26T09:44:44.279Z</time></trkpt><trkpt lat="41.3163525" lon="19.4668174"><ele>0.0</ele><time>2026-04-26T09:44:47.279Z</time></trkpt><trkpt lat="41.3163093" lon="19.4668844"><ele>0.0</ele><time>2026-04-26T09:44:50.279Z</time></trkpt><trkpt lat="41.3162614" lon="19.466956"><ele>0.0</ele><time>2026-04-26T09:44:53.279Z</time></trkpt><trkpt lat="41.3162393" lon="19.4670441"><ele>0.0</ele><time>2026-04-26T09:44:56.279Z</time></trkpt><trkpt lat="41.3162464" lon="19.4671679"><ele>0.0</ele><time>2026-04-26T09:44:59.28Z</time></trkpt><trkpt lat="41.3162599" lon="19.4672593"><ele>0.0</ele><time>2026-04-26T09:45:02.279Z</time></trkpt><trkpt lat="41.3162684" lon="19.4673702"><ele>0.16666666666666666</ele><time>2026-04-26T09:45:05.279Z</time></trkpt><trkpt lat="41.3162663" lon="19.4674586"><ele>0.3333333333333333</ele><time>2026-04-26T09:45:07.279Z</time></trkpt><trkpt lat="41.3162583" lon="19.4675757"><ele>0.5</ele><time>2026-04-26T09:45:09.28Z</time></trkpt><trkpt lat="41.3162493" lon="19.4677423"><ele>0.6666666666666666</ele><time>2026-04-26T09:45:11.28Z</time></trkpt><trkpt lat="41.3162379" lon="19.4678343"><ele>0.8333333333333333</ele><time>2026-04-26T09:45:12.279Z</time></trkpt><trkpt lat="41.3162246" lon="19.4679308"><ele>1.0</ele><time>2026-04-26T09:45:13.28Z</time></trkpt><trkpt lat="41.3162064" lon="19.4680276"><ele>0.9999999999999999</ele><time>2026-04-26T09:45:14.279Z</time></trkpt><trkpt lat="41.3161949" lon="19.4681313"><ele>1.0</ele><time>2026-04-26T09:45:15.28Z</time></trkpt><trkpt lat="41.3161869" lon="19.4682355"><ele>1.0</ele><time>2026-04-26T09:45:16.279Z</time></trkpt><trkpt lat="41.3161803" lon="19.4683229"><ele>1.0</ele><time>2026-04-26T09:45:17.28Z</time></trkpt><trkpt lat="41.316173" lon="19.4684501"><ele>0.9999999999999999</ele><time>2026-04-26T09:45:19.28Z</time></trkpt><trkpt lat="41.3161725" lon="19.4685362"><ele>1.0</ele><time>2026-04-26T09:45:22.28Z</time></trkpt><trkpt lat="41.3161701" lon="19.4686785"><ele>0.8571428571428571</ele><time>2026-04-26T09:45:28.28Z</time></trkpt><trkpt lat="41.3161782" lon="19.4687784"><ele>0.7142857142857142</ele><time>2026-04-26T09:45:32.279Z</time></trkpt><trkpt lat="41.3161761" lon="19.4688644"><ele>0.5714285714285714</ele><time>2026-04-26T09:45:42.279Z</time></trkpt><trkpt lat="41.3161842" lon="19.4689775"><ele>0.42857142857142855</ele><time>2026-04-26T09:46:02.28Z</time></trkpt><trkpt lat="41.3161912" lon="19.4690715"><ele>0.2857142857142857</ele><time>2026-04-26T09:46:04.279Z</time></trkpt><trkpt lat="41.3162037" lon="19.4691632"><ele>0.14285714285714285</ele><time>2026-04-26T09:46:08.279Z</time></trkpt><trkpt lat="41.3162108" lon="19.4692673"><ele>0.0</ele><time>2026-04-26T09:46:11.279Z</time></trkpt><trkpt lat="41.3162139" lon="19.4693573"><ele>0.0</ele><time>2026-04-26T09:46:15.28Z</time></trkpt><trkpt lat="41.3162459" lon="19.4694388"><ele>0.0</ele><time>2026-04-26T09:46:46.28Z</time></trkpt><trkpt lat="41.3162444" lon="19.4695257"><ele>0.0</ele><time>2026-04-26T09:46:47.28Z</time></trkpt><trkpt lat="41.3162479" lon="19.4696362"><ele>0.0</ele><time>2026-04-26T09:46:49.279Z</time></trkpt><trkpt lat="41.3162554" lon="19.4697445"><ele>0.0</ele><time>2026-04-26T09:46:52.28Z</time></trkpt><trkpt lat="41.3162574" lon="19.4698385"><ele>0.0</ele><time>2026-04-26T09:47:00.28Z</time></trkpt><trkpt lat="41.3162386" lon="19.4699309"><ele>0.0</ele><time>2026-04-26T09:47:16.28Z</time></trkpt><trkpt lat="41.3162176" lon="19.4700545"><ele>0.0</ele><time>2026-04-26T09:47:19.28Z</time></trkpt><trkpt lat="41.3162162" lon="19.4701591"><ele>0.0</ele><time>2026-04-26T09:47:22.279Z</time></trkpt><trkpt lat="41.3162193" lon="19.4702675"><ele>0.0</ele><time>2026-04-26T09:47:27.279Z</time></trkpt><trkpt lat="41.3162082" lon="19.4703559"><ele>0.0</ele><time>2026-04-26T09:47:31.279Z</time></trkpt><trkpt lat="41.3161776" lon="19.4704641"><ele>0.0</ele><time>2026-04-26T09:47:40.28Z</time></trkpt><trkpt lat="41.3161492" lon="19.4705718"><ele>0.0</ele><time>2026-04-26T09:47:42.28Z</time></trkpt><trkpt lat="41.3161229" lon="19.4706572"><ele>-0.16666666666666666</ele><time>2026-04-26T09:47:44.279Z</time></trkpt><trkpt lat="41.316092" lon="19.4707613"><ele>-0.3333333333333333</ele><time>2026-04-26T09:47:48.28Z</time></trkpt><trkpt lat="41.3160408" lon="19.4708499"><ele>-0.5</ele><time>2026-04-26T09:47:52.28Z</time></trkpt><trkpt lat="41.316005" lon="19.4709478"><ele>-0.6666666666666666</ele><time>2026-04-26T09:47:54.279Z</time></trkpt><trkpt lat="41.3159708" lon="19.4710836"><ele>-0.8333333333333333</ele><time>2026-04-26T09:47:56.28Z</time></trkpt><trkpt lat="41.3159486" lon="19.4711646"><ele>-1.0</ele><time>2026-04-26T09:47:58.28Z</time></trkpt><trkpt lat="41.315917" lon="19.4712571"><ele>-1.0</ele><time>2026-04-26T09:48:03.279Z</time></trkpt><trkpt lat="41.315889" lon="19.4713449"><ele>-0.9999999999999999</ele><time>2026-04-26T09:48:06.28Z</time></trkpt><trkpt lat="41.3158618" lon="19.4714309"><ele>-1.0</ele><time>2026-04-26T09:48:08.279Z</time></trkpt><trkpt lat="41.3158503" lon="19.4715192"><ele>-1.0</ele><time>2026-04-26T09:48:11.28Z</time></trkpt><trkpt lat="41.3158158" lon="19.4716122"><ele>-0.9999999999999999</ele><time>2026-04-26T09:48:15.28Z</time></trkpt><trkpt lat="41.3157756" lon="19.4717023"><ele>-1.0</ele><time>2026-04-26T09:48:19.28Z</time></trkpt><trkpt lat="41.3157351" lon="19.4717728"><ele>-1.0</ele><time>2026-04-26T09:48:22.279Z</time></trkpt><trkpt lat="41.3156928" lon="19.4718752"><ele>-0.9999999999999999</ele><time>2026-04-26T09:48:25.28Z</time></trkpt><trkpt lat="41.3156626" lon="19.4719712"><ele>-1.0</ele><time>2026-04-26T09:48:28.28Z</time></trkpt><trkpt lat="41.3156289" lon="19.4720701"><ele>-1.0</ele><time>2026-04-26T09:48:37.28Z</time></trkpt><trkpt lat="41.3156033" lon="19.4721703"><ele>-1.0</ele><time>2026-04-26T09:48:39.279Z</time></trkpt><trkpt lat="41.3155631" lon="19.4722624"><ele>-0.9999999999999999</ele><time>2026-04-26T09:48:41.279Z</time></trkpt><trkpt lat="41.3155307" lon="19.4723492"><ele>-1.0</ele><time>2026-04-26T09:48:43.279Z</time></trkpt><trkpt lat="41.3155035" lon="19.4724283"><ele>-0.8333333333333333</ele><time>2026-04-26T09:48:45.28Z</time></trkpt><trkpt lat="41.3154624" lon="19.4725398"><ele>-0.6666666666666666</ele><time>2026-04-26T09:48:48.28Z</time></trkpt><trkpt lat="41.315428" lon="19.4726356"><ele>-0.5</ele><time>2026-04-26T09:48:50.279Z</time></trkpt><trkpt lat="41.3153968" lon="19.4727267"><ele>-0.3333333333333333</ele><time>2026-04-26T09:48:52.28Z</time></trkpt><trkpt lat="41.3153646" lon="19.4728419"><ele>-0.16666666666666666</ele><time>2026-04-26T09:48:54.28Z</time></trkpt><trkpt lat="41.3153272" lon="19.4729265"><ele>0.0</ele><time>2026-04-26T09:48:56.28Z</time></trkpt><trkpt lat="41.3152826" lon="19.4730308"><ele>0.0</ele><time>2026-04-26T09:48:59.279Z</time></trkpt><trkpt lat="41.3152466" lon="19.47313"><ele>0.0</ele><time>2026-04-26T09:49:02.28Z</time></trkpt><trkpt lat="41.3152149" lon="19.4732164"><ele>0.0</ele><time>2026-04-26T09:49:05.279Z</time></trkpt><trkpt lat="41.3151805" lon="19.4733335"><ele>0.0</ele><time>2026-04-26T09:49:08.28Z</time></trkpt><trkpt lat="41.3151564" lon="19.4734133"><ele>0.0</ele><time>2026-04-26T09:49:10.28Z</time></trkpt><trkpt lat="41.3151196" lon="19.4735049"><ele>0.0</ele><time>2026-04-26T09:49:13.279Z</time></trkpt><trkpt lat="41.3150878" lon="19.4736021"><ele>0.0</ele><time>2026-04-26T09:49:16.28Z</time></trkpt><trkpt lat="41.3150484" lon="19.4736941"><ele>0.0</ele><time>2026-04-26T09:49:19.279Z</time></trkpt><trkpt lat="41.3150119" lon="19.4737894"><ele>0.0</ele><time>2026-04-26T09:49:23.28Z</time></trkpt><trkpt lat="41.3149781" lon="19.4739011"><ele>0.0</ele><time>2026-04-26T09:49:26.279Z</time></trkpt><trkpt lat="41.3149563" lon="19.4739815"><ele>0.0</ele><time>2026-04-26T09:49:28.28Z</time></trkpt><trkpt lat="41.3149295" lon="19.4740578"><ele>0.0</ele><time>2026-04-26T09:49:30.279Z</time></trkpt><trkpt lat="41.3148898" lon="19.4741659"><ele>0.0</ele><time>2026-04-26T09:49:33.28Z</time></trkpt><trkpt lat="41.3148523" lon="19.4742808"><ele>0.0</ele><time>2026-04-26T09:49:36.28Z</time></trkpt><trkpt lat="41.3148179" lon="19.4743705"><ele>0.0</ele><time>2026-04-26T09:49:38.279Z</time></trkpt><trkpt lat="41.3147789" lon="19.4744735"><ele>0.0</ele><time>2026-04-26T09:49:40.28Z</time></trkpt><trkpt lat="41.3147412" lon="19.4745786"><ele>0.0</ele><time>2026-04-26T09:49:42.279Z</time></trkpt><trkpt lat="41.3146999" lon="19.4746816"><ele>0.0</ele><time>2026-04-26T09:49:44.28Z</time></trkpt><trkpt lat="41.3146649" lon="19.4747707"><ele>0.0</ele><time>2026-04-26T09:49:46.279Z</time></trkpt><trkpt lat="41.314632" lon="19.4748744"><ele>0.0</ele><time>2026-04-26T09:49:48.279Z</time></trkpt><trkpt lat="41.3145959" lon="19.4749735"><ele>0.0</ele><time>2026-04-26T09:49:50.28Z</time></trkpt><trkpt lat="41.3145409" lon="19.4751195"><ele>0.0</ele><time>2026-04-26T09:49:52.28Z</time></trkpt><trkpt lat="41.314502" lon="19.475221"><ele>0.0</ele><time>2026-04-26T09:49:54.279Z</time></trkpt><trkpt lat="41.3144716" lon="19.4752972"><ele>0.0</ele><time>2026-04-26T09:49:58.28Z</time></trkpt><trkpt lat="41.3144439" lon="19.4753731"><ele>0.3333333333333333</ele><time>2026-04-26T09:50:01.279Z</time></trkpt><trkpt lat="41.3143954" lon="19.4754867"><ele>0.6666666666666666</ele><time>2026-04-26T09:50:04.28Z</time></trkpt><trkpt lat="41.3143487" lon="19.4755944"><ele>1.0</ele><time>2026-04-26T09:50:06.28Z</time></trkpt><trkpt lat="41.3143017" lon="19.4757111"><ele>1.3333333333333333</ele><time>2026-04-26T09:50:08.279Z</time></trkpt><trkpt lat="41.3142601" lon="19.4758136"><ele>1.6666666666666665</ele><time>2026-04-26T09:50:10.28Z</time></trkpt><trkpt lat="41.3142251" lon="19.4758904"><ele>2.0</ele><time>2026-04-26T09:50:12.279Z</time></trkpt><trkpt lat="41.3141902" lon="19.475969"><ele>1.9999999999999998</ele><time>2026-04-26T09:50:15.28Z</time></trkpt><trkpt lat="41.3141543" lon="19.4760382"><ele>2.0</ele><time>2026-04-26T09:50:18.279Z</time></trkpt><trkpt lat="41.3141205" lon="19.4761133"><ele>2.0</ele><time>2026-04-26T09:50:20.279Z</time></trkpt><trkpt lat="41.3140763" lon="19.4762006"><ele>2.0</ele><time>2026-04-26T09:50:23.28Z</time></trkpt><trkpt lat="41.3140358" lon="19.4762782"><ele>1.9999999999999998</ele><time>2026-04-26T09:50:36.28Z</time></trkpt><trkpt lat="41.3139864" lon="19.4764061"><ele>2.0</ele><time>2026-04-26T09:50:39.28Z</time></trkpt><trkpt lat="41.3139347" lon="19.4765122"><ele>1.8</ele><time>2026-04-26T09:50:41.279Z</time></trkpt><trkpt lat="41.3138819" lon="19.476613"><ele>1.6</ele><time>2026-04-26T09:50:43.279Z</time></trkpt><trkpt lat="41.3138347" lon="19.4767139"><ele>1.4000000000000001</ele><time>2026-04-26T09:50:45.28Z</time></trkpt><trkpt lat="41.3137902" lon="19.476814"><ele>1.2000000000000002</ele><time>2026-04-26T09:50:47.28Z</time></trkpt><trkpt lat="41.3137378" lon="19.4769255"><ele>1.0</ele><time>2026-04-26T09:50:49.279Z</time></trkpt><trkpt lat="41.3136824" lon="19.4770352"><ele>0.8333333333333333</ele><time>2026-04-26T09:50:51.28Z</time></trkpt><trkpt lat="41.3136354" lon="19.4771442"><ele>0.6666666666666666</ele><time>2026-04-26T09:50:53.28Z</time></trkpt><trkpt lat="41.3135912" lon="19.4772404"><ele>0.5</ele><time>2026-04-26T09:50:55.28Z</time></trkpt><trkpt lat="41.3135532" lon="19.4773277"><ele>0.3333333333333333</ele><time>2026-04-26T09:50:57.279Z</time></trkpt><trkpt lat="41.3135099" lon="19.4774159"><ele>0.16666666666666666</ele><time>2026-04-26T09:50:59.28Z</time></trkpt><trkpt lat="41.3134719" lon="19.4774953"><ele>0.0</ele><time>2026-04-26T09:51:01.28Z</time></trkpt><trkpt lat="41.3134337" lon="19.4775714"><ele>0.0</ele><time>2026-04-26T09:51:04.279Z</time></trkpt><trkpt lat="41.3133892" lon="19.4776616"><ele>0.0</ele><time>2026-04-26T09:51:09.28Z</time></trkpt><trkpt lat="41.3133446" lon="19.4777627"><ele>0.0</ele><time>2026-04-26T09:51:13.279Z</time></trkpt><trkpt lat="41.3133044" lon="19.4778444"><ele>0.0</ele><time>2026-04-26T09:51:15.279Z</time></trkpt><trkpt lat="41.313255" lon="19.4779373"><ele>0.0</ele><time>2026-04-26T09:51:17.279Z</time></trkpt><trkpt lat="41.3132155" lon="19.4780227"><ele>0.0</ele><time>2026-04-26T09:51:19.279Z</time></trkpt><trkpt lat="41.3131814" lon="19.4781045"><ele>0.0</ele><time>2026-04-26T09:51:21.28Z</time></trkpt><trkpt lat="41.313145" lon="19.4781821"><ele>0.0</ele><time>2026-04-26T09:51:23.28Z</time></trkpt><trkpt lat="41.3131088" lon="19.478278"><ele>0.0</ele><time>2026-04-26T09:51:27.279Z</time></trkpt><trkpt lat="41.3130765" lon="19.4783605"><ele>0.0</ele><time>2026-04-26T09:51:29.279Z</time></trkpt><trkpt lat="41.3130408" lon="19.478449"><ele>0.0</ele><time>2026-04-26T09:51:31.28Z</time></trkpt><trkpt lat="41.3129932" lon="19.4785506"><ele>0.0</ele><time>2026-04-26T09:51:33.28Z</time></trkpt><trkpt lat="41.3129363" lon="19.4786658"><ele>0.2</ele><time>2026-04-26T09:51:35.279Z</time></trkpt><trkpt lat="41.3128836" lon="19.4787739"><ele>0.4</ele><time>2026-04-26T09:51:37.28Z</time></trkpt><trkpt lat="41.3128388" lon="19.4788798"><ele>0.6000000000000001</ele><time>2026-04-26T09:51:39.28Z</time></trkpt><trkpt lat="41.3127887" lon="19.4789961"><ele>0.8</ele><time>2026-04-26T09:51:41.28Z</time></trkpt><trkpt lat="41.3127305" lon="19.4791207"><ele>1.0</ele><time>2026-04-26T09:51:43.279Z</time></trkpt><trkpt lat="41.3126707" lon="19.4792565"><ele>1.0</ele><time>2026-04-26T09:51:45.279Z</time></trkpt><trkpt lat="41.3126039" lon="19.4793882"><ele>1.0</ele><time>2026-04-26T09:51:47.28Z</time></trkpt><trkpt lat="41.312538" lon="19.479515"><ele>1.0</ele><time>2026-04-26T09:51:49.279Z</time></trkpt><trkpt lat="41.3124989" lon="19.4795915"><ele>1.0</ele><time>2026-04-26T09:51:50.279Z</time></trkpt><trkpt lat="41.3124608" lon="19.4796905"><ele>1.0</ele><time>2026-04-26T09:51:51.279Z</time></trkpt><trkpt lat="41.3124096" lon="19.4797923"><ele>1.0</ele><time>2026-04-26T09:51:52.279Z</time></trkpt><trkpt lat="41.3123628" lon="19.4798891"><ele>1.0</ele><time>2026-04-26T09:51:53.279Z</time></trkpt><trkpt lat="41.312323" lon="19.4799835"><ele>1.0</ele><time>2026-04-26T09:51:54.279Z</time></trkpt><trkpt lat="41.312286" lon="19.4800713"><ele>1.0</ele><time>2026-04-26T09:51:55.28Z</time></trkpt><trkpt lat="41.3122169" lon="19.4802057"><ele>1.0</ele><time>2026-04-26T09:51:57.279Z</time></trkpt><trkpt lat="41.3121607" lon="19.4803108"><ele>1.0</ele><time>2026-04-26T09:51:59.28Z</time></trkpt><trkpt lat="41.312128" lon="19.4804023"><ele>1.0</ele><time>2026-04-26T09:52:04.28Z</time></trkpt><trkpt lat="41.3120815" lon="19.4805117"><ele>1.0</ele><time>2026-04-26T09:52:06.28Z</time></trkpt><trkpt lat="41.3120249" lon="19.4806483"><ele>1.0</ele><time>2026-04-26T09:52:08.28Z</time></trkpt><trkpt lat="41.3119625" lon="19.4807852"><ele>1.0</ele><time>2026-04-26T09:52:10.28Z</time></trkpt><trkpt lat="41.3119235" lon="19.4808574"><ele>1.1428571428571428</ele><time>2026-04-26T09:52:11.28Z</time></trkpt><trkpt lat="41.3118868" lon="19.4809333"><ele>1.2857142857142856</ele><time>2026-04-26T09:52:12.279Z</time></trkpt><trkpt lat="41.31185" lon="19.48101"><ele>1.4285714285714284</ele><time>2026-04-26T09:52:13.28Z</time></trkpt><trkpt lat="41.3118131" lon="19.4810863"><ele>1.5714285714285714</ele><time>2026-04-26T09:52:14.28Z</time></trkpt><trkpt lat="41.3117745" lon="19.4811682"><ele>1.714285714285714</ele><time>2026-04-26T09:52:15.28Z</time></trkpt><trkpt lat="41.3117384" lon="19.4812522"><ele>1.857142857142857</ele><time>2026-04-26T09:52:16.279Z</time></trkpt><trkpt lat="41.3116985" lon="19.4813333"><ele>2.0</ele><time>2026-04-26T09:52:17.279Z</time></trkpt><trkpt lat="41.3116621" lon="19.4814124"><ele>1.7142857142857142</ele><time>2026-04-26T09:52:18.28Z</time></trkpt><trkpt lat="41.3116257" lon="19.4814891"><ele>1.4285714285714284</ele><time>2026-04-26T09:52:19.279Z</time></trkpt><trkpt lat="41.3115919" lon="19.4815658"><ele>1.1428571428571428</ele><time>2026-04-26T09:52:20.28Z</time></trkpt><trkpt lat="41.3115572" lon="19.4816484"><ele>0.8571428571428571</ele><time>2026-04-26T09:52:21.279Z</time></trkpt><trkpt lat="41.3115189" lon="19.481728"><ele>0.5714285714285714</ele><time>2026-04-26T09:52:22.279Z</time></trkpt><trkpt lat="41.3114791" lon="19.4818068"><ele>0.2857142857142857</ele><time>2026-04-26T09:52:23.279Z</time></trkpt><trkpt lat="41.3114377" lon="19.4818896"><ele>0.0</ele><time>2026-04-26T09:52:24.28Z</time></trkpt><trkpt lat="41.3113986" lon="19.4819756"><ele>0.0</ele><time>2026-04-26T09:52:25.28Z</time></trkpt><trkpt lat="41.3113572" lon="19.4820592"><ele>0.0</ele><time>2026-04-26T09:52:26.28Z</time></trkpt><trkpt lat="41.3113132" lon="19.4821412"><ele>0.0</ele><time>2026-04-26T09:52:27.279Z</time></trkpt><trkpt lat="41.311269" lon="19.4822299"><ele>0.0</ele><time>2026-04-26T09:52:28.28Z</time></trkpt><trkpt lat="41.3112296" lon="19.4823206"><ele>0.0</ele><time>2026-04-26T09:52:29.28Z</time></trkpt><trkpt lat="41.3111867" lon="19.4824075"><ele>0.0</ele><time>2026-04-26T09:52:30.28Z</time></trkpt><trkpt lat="41.311142" lon="19.4825027"><ele>0.16666666666666666</ele><time>2026-04-26T09:52:31.28Z</time></trkpt><trkpt lat="41.3110966" lon="19.4825971"><ele>0.3333333333333333</ele><time>2026-04-26T09:52:32.28Z</time></trkpt><trkpt lat="41.311053" lon="19.4826904"><ele>0.5</ele><time>2026-04-26T09:52:33.279Z</time></trkpt><trkpt lat="41.3110083" lon="19.4827822"><ele>0.6666666666666666</ele><time>2026-04-26T09:52:34.279Z</time></trkpt><trkpt lat="41.3109674" lon="19.4828709"><ele>0.8333333333333333</ele><time>2026-04-26T09:52:35.28Z</time></trkpt><trkpt lat="41.3109229" lon="19.4829569"><ele>1.0</ele><time>2026-04-26T09:52:36.28Z</time></trkpt><trkpt lat="41.3108815" lon="19.4830432"><ele>0.9999999999999999</ele><time>2026-04-26T09:52:37.279Z</time></trkpt><trkpt lat="41.3108415" lon="19.4831305"><ele>1.0</ele><time>2026-04-26T09:52:38.279Z</time></trkpt><trkpt lat="41.3107997" lon="19.483214"><ele>1.0</ele><time>2026-04-26T09:52:39.279Z</time></trkpt><trkpt lat="41.3107602" lon="19.4832968"><ele>1.0</ele><time>2026-04-26T09:52:40.28Z</time></trkpt><trkpt lat="41.3107224" lon="19.4833776"><ele>0.9999999999999999</ele><time>2026-04-26T09:52:41.28Z</time></trkpt><trkpt lat="41.3106722" lon="19.4834965"><ele>1.0</ele><time>2026-04-26T09:52:43.28Z</time></trkpt><trkpt lat="41.3106308" lon="19.4835749"><ele>1.0</ele><time>2026-04-26T09:52:45.279Z</time></trkpt><trkpt lat="41.3105956" lon="19.4836677"><ele>1.0</ele><time>2026-04-26T09:52:48.28Z</time></trkpt><trkpt lat="41.3105605" lon="19.4837413"><ele>1.0</ele><time>2026-04-26T09:52:50.28Z</time></trkpt><trkpt lat="41.3104932" lon="19.4838751"><ele>1.0</ele><time>2026-04-26T09:52:52.28Z</time></trkpt><trkpt lat="41.3104331" lon="19.4840115"><ele>1.0</ele><time>2026-04-26T09:52:54.28Z</time></trkpt><trkpt lat="41.3103759" lon="19.4841299"><ele>1.3333333333333333</ele><time>2026-04-26T09:52:56.279Z</time></trkpt><trkpt lat="41.3103289" lon="19.4842364"><ele>1.6666666666666665</ele><time>2026-04-26T09:52:58.279Z</time></trkpt><trkpt lat="41.3102668" lon="19.484334"><ele>2.0</ele><time>2026-04-26T09:53:00.28Z</time></trkpt><trkpt lat="41.3102118" lon="19.4844333"><ele>2.3333333333333335</ele><time>2026-04-26T09:53:02.279Z</time></trkpt><trkpt lat="41.3101874" lon="19.4845379"><ele>2.6666666666666665</ele><time>2026-04-26T09:53:04.28Z</time></trkpt><trkpt lat="41.3101772" lon="19.4846504"><ele>3.0</ele><time>2026-04-26T09:53:06.28Z</time></trkpt><trkpt lat="41.3101189" lon="19.4848227"><ele>3.0</ele><time>2026-04-26T09:53:08.279Z</time></trkpt><trkpt lat="41.3100542" lon="19.4849512"><ele>3.0</ele><time>2026-04-26T09:53:09.28Z</time></trkpt><trkpt lat="41.3099903" lon="19.4850679"><ele>3.0</ele><time>2026-04-26T09:53:10.28Z</time></trkpt><trkpt lat="41.3099376" lon="19.4851659"><ele>3.0</ele><time>2026-04-26T09:53:11.28Z</time></trkpt><trkpt lat="41.3098959" lon="19.4852452"><ele>3.0</ele><time>2026-04-26T09:53:12.28Z</time></trkpt><trkpt lat="41.3098498" lon="19.4853353"><ele>3.0</ele><time>2026-04-26T09:53:13.279Z</time></trkpt><trkpt lat="41.3098059" lon="19.4854189"><ele>3.0</ele><time>2026-04-26T09:53:14.279Z</time></trkpt><trkpt lat="41.3097659" lon="19.4855026"><ele>3.0</ele><time>2026-04-26T09:53:15.279Z</time></trkpt><trkpt lat="41.3097271" lon="19.4855819"><ele>3.0</ele><time>2026-04-26T09:53:16.279Z</time></trkpt><trkpt lat="41.3096915" lon="19.4856657"><ele>3.0</ele><time>2026-04-26T09:53:17.28Z</time></trkpt><trkpt lat="41.3096552" lon="19.4857417"><ele>3.0</ele><time>2026-04-26T09:53:18.279Z</time></trkpt><trkpt lat="41.309584" lon="19.4858849"><ele>3.0</ele><time>2026-04-26T09:53:20.28Z</time></trkpt><trkpt lat="41.309552" lon="19.4859593"><ele>3.0</ele><time>2026-04-26T09:53:21.28Z</time></trkpt><trkpt lat="41.3094796" lon="19.4861057"><ele>3.0</ele><time>2026-04-26T09:53:23.279Z</time></trkpt><trkpt lat="41.3094411" lon="19.486188"><ele>3.0</ele><time>2026-04-26T09:53:24.28Z</time></trkpt><trkpt lat="41.309405" lon="19.4862603"><ele>3.0</ele><time>2026-04-26T09:53:25.28Z</time></trkpt><trkpt lat="41.309341" lon="19.4863817"><ele>3.0</ele><time>2026-04-26T09:53:27.28Z</time></trkpt><trkpt lat="41.3092865" lon="19.4865008"><ele>3.2</ele><time>2026-04-26T09:53:29.28Z</time></trkpt><trkpt lat="41.3092294" lon="19.4866168"><ele>3.4</ele><time>2026-04-26T09:53:31.28Z</time></trkpt><trkpt lat="41.3091717" lon="19.4867311"><ele>3.6000000000000005</ele><time>2026-04-26T09:53:33.279Z</time></trkpt><trkpt lat="41.3091262" lon="19.4868203"><ele>3.8000000000000003</ele><time>2026-04-26T09:53:35.28Z</time></trkpt><trkpt lat="41.3090768" lon="19.4869095"><ele>4.0</ele><time>2026-04-26T09:53:37.28Z</time></trkpt><trkpt lat="41.3090211" lon="19.4870187"><ele>4.0</ele><time>2026-04-26T09:53:39.279Z</time></trkpt><trkpt lat="41.3089555" lon="19.4871532"><ele>4.0</ele><time>2026-04-26T09:53:41.279Z</time></trkpt><trkpt lat="41.3088953" lon="19.4872725"><ele>4.0</ele><time>2026-04-26T09:53:43.279Z</time></trkpt><trkpt lat="41.3088381" lon="19.487393"><ele>4.0</ele><time>2026-04-26T09:53:45.279Z</time></trkpt><trkpt lat="41.3087803" lon="19.4875015"><ele>4.0</ele><time>2026-04-26T09:53:47.279Z</time></trkpt><trkpt lat="41.3087277" lon="19.4876168"><ele>3.6</ele><time>2026-04-26T09:53:49.279Z</time></trkpt><trkpt lat="41.3086736" lon="19.4877346"><ele>3.2</ele><time>2026-04-26T09:53:51.28Z</time></trkpt><trkpt lat="41.3086142" lon="19.4878549"><ele>2.8000000000000003</ele><time>2026-04-26T09:53:53.28Z</time></trkpt><trkpt lat="41.3085567" lon="19.4879832"><ele>2.4000000000000004</ele><time>2026-04-26T09:53:55.279Z</time></trkpt><trkpt lat="41.3084972" lon="19.4881043"><ele>2.0</ele><time>2026-04-26T09:53:57.28Z</time></trkpt><trkpt lat="41.3084378" lon="19.488226"><ele>2.0</ele><time>2026-04-26T09:53:59.28Z</time></trkpt><trkpt lat="41.3083795" lon="19.4883411"><ele>2.0</ele><time>2026-04-26T09:54:01.279Z</time></trkpt><trkpt lat="41.3083243" lon="19.4884542"><ele>2.0</ele><time>2026-04-26T09:54:03.279Z</time></trkpt><trkpt lat="41.3082689" lon="19.4885693"><ele>2.0</ele><time>2026-04-26T09:54:05.279Z</time></trkpt><trkpt lat="41.3082134" lon="19.4886927"><ele>2.0</ele><time>2026-04-26T09:54:07.279Z</time></trkpt><trkpt lat="41.308152" lon="19.4888123"><ele>1.9999999999999998</ele><time>2026-04-26T09:54:09.28Z</time></trkpt><trkpt lat="41.3081008" lon="19.4889116"><ele>2.0</ele><time>2026-04-26T09:54:11.279Z</time></trkpt><trkpt lat="41.3080658" lon="19.4889826"><ele>2.0</ele><time>2026-04-26T09:54:13.28Z</time></trkpt><trkpt lat="41.3080114" lon="19.4890835"><ele>2.0</ele><time>2026-04-26T09:54:16.279Z</time></trkpt><trkpt lat="41.3079619" lon="19.4891901"><ele>1.9999999999999998</ele><time>2026-04-26T09:54:18.28Z</time></trkpt><trkpt lat="41.3079075" lon="19.4893115"><ele>2.0</ele><time>2026-04-26T09:54:20.28Z</time></trkpt><trkpt lat="41.3078498" lon="19.489434"><ele>1.6</ele><time>2026-04-26T09:54:22.28Z</time></trkpt><trkpt lat="41.3077902" lon="19.48956"><ele>1.2000000000000002</ele><time>2026-04-26T09:54:24.28Z</time></trkpt><trkpt lat="41.307736" lon="19.4896718"><ele>0.8</ele><time>2026-04-26T09:54:26.28Z</time></trkpt><trkpt lat="41.3076897" lon="19.4897804"><ele>0.4</ele><time>2026-04-26T09:54:28.279Z</time></trkpt><trkpt lat="41.3076444" lon="19.4898612"><ele>0.0</ele><time>2026-04-26T09:54:30.28Z</time></trkpt><trkpt lat="41.3076009" lon="19.4899474"><ele>-0.16666666666666666</ele><time>2026-04-26T09:54:32.28Z</time></trkpt><trkpt lat="41.3075544" lon="19.4900343"><ele>-0.3333333333333333</ele><time>2026-04-26T09:54:34.28Z</time></trkpt><trkpt lat="41.3075109" lon="19.490136"><ele>-0.5</ele><time>2026-04-26T09:54:36.28Z</time></trkpt><trkpt lat="41.3074647" lon="19.4902348"><ele>-0.6666666666666666</ele><time>2026-04-26T09:54:38.28Z</time></trkpt><trkpt lat="41.3074183" lon="19.4903287"><ele>-0.8333333333333333</ele><time>2026-04-26T09:54:40.279Z</time></trkpt><trkpt lat="41.3073681" lon="19.4904372"><ele>-1.0</ele><time>2026-04-26T09:54:42.28Z</time></trkpt><trkpt lat="41.3073101" lon="19.4905543"><ele>-0.6666666666666666</ele><time>2026-04-26T09:54:44.28Z</time></trkpt><trkpt lat="41.3072511" lon="19.4906748"><ele>-0.3333333333333333</ele><time>2026-04-26T09:54:46.28Z</time></trkpt><trkpt lat="41.3072051" lon="19.4907645"><ele>0.0</ele><time>2026-04-26T09:54:48.28Z</time></trkpt><trkpt lat="41.3071688" lon="19.4908384"><ele>0.3333333333333333</ele><time>2026-04-26T09:54:51.28Z</time></trkpt><trkpt lat="41.3071298" lon="19.4909224"><ele>0.6666666666666666</ele><time>2026-04-26T09:54:54.28Z</time></trkpt><trkpt lat="41.3070838" lon="19.4910051"><ele>1.0</ele><time>2026-04-26T09:55:03.279Z</time></trkpt><trkpt lat="41.3070458" lon="19.4910851"><ele>0.9999999999999999</ele><time>2026-04-26T09:55:05.28Z</time></trkpt><trkpt lat="41.3070054" lon="19.4911701"><ele>1.0</ele><time>2026-04-26T09:55:07.28Z</time></trkpt><trkpt lat="41.3069548" lon="19.4912672"><ele>1.0</ele><time>2026-04-26T09:55:10.279Z</time></trkpt><trkpt lat="41.3069124" lon="19.4913414"><ele>1.0</ele><time>2026-04-26T09:55:20.279Z</time></trkpt><trkpt lat="41.3068637" lon="19.4914396"><ele>0.9999999999999999</ele><time>2026-04-26T09:55:23.28Z</time></trkpt><trkpt lat="41.3068133" lon="19.4915062"><ele>1.0</ele><time>2026-04-26T09:55:32.28Z</time></trkpt><trkpt lat="41.30675" lon="19.4915456"><ele>0.9999999999999999</ele><time>2026-04-26T09:55:35.28Z</time></trkpt><trkpt lat="41.3066963" lon="19.4916134"><ele>1.0</ele><time>2026-04-26T09:55:38.28Z</time></trkpt><trkpt lat="41.3066645" lon="19.4916908"><ele>1.0</ele><time>2026-04-26T09:55:41.28Z</time></trkpt><trkpt lat="41.3066234" lon="19.4917601"><ele>1.0</ele><time>2026-04-26T09:55:45.28Z</time></trkpt><trkpt lat="41.3065764" lon="19.4918411"><ele>0.9999999999999999</ele><time>2026-04-26T09:55:48.28Z</time></trkpt><trkpt lat="41.3065424" lon="19.4919125"><ele>1.0</ele><time>2026-04-26T09:56:05.28Z</time></trkpt><trkpt lat="41.3064806" lon="19.4920474"><ele>0.9999999999999999</ele><time>2026-04-26T09:56:08.279Z</time></trkpt><trkpt lat="41.3064427" lon="19.4921276"><ele>1.0</ele><time>2026-04-26T09:56:09.279Z</time></trkpt><trkpt lat="41.3064017" lon="19.4922098"><ele>1.0</ele><time>2026-04-26T09:56:10.279Z</time></trkpt><trkpt lat="41.3063586" lon="19.4922987"><ele>1.0</ele><time>2026-04-26T09:56:11.28Z</time></trkpt><trkpt lat="41.306315" lon="19.4923839"><ele>0.9999999999999999</ele><time>2026-04-26T09:56:12.279Z</time></trkpt><trkpt lat="41.3062682" lon="19.4924676"><ele>1.0</ele><time>2026-04-26T09:56:13.279Z</time></trkpt><trkpt lat="41.3062248" lon="19.4925539"><ele>0.8571428571428571</ele><time>2026-04-26T09:56:14.279Z</time></trkpt><trkpt lat="41.3061841" lon="19.4926396"><ele>0.7142857142857142</ele><time>2026-04-26T09:56:15.28Z</time></trkpt><trkpt lat="41.3061325" lon="19.4927147"><ele>0.5714285714285714</ele><time>2026-04-26T09:56:16.262Z</time></trkpt><trkpt lat="41.3060881" lon="19.4927871"><ele>0.42857142857142855</ele><time>2026-04-26T09:56:17.257Z</time></trkpt><trkpt lat="41.3060401" lon="19.4928561"><ele>0.2857142857142857</ele><time>2026-04-26T09:56:18.257Z</time></trkpt><trkpt lat="41.3059918" lon="19.4929197"><ele>0.14285714285714285</ele><time>2026-04-26T09:56:19.257Z</time></trkpt><trkpt lat="41.3059429" lon="19.4929891"><ele>0.0</ele><time>2026-04-26T09:56:20.259Z</time></trkpt><trkpt lat="41.3058921" lon="19.4930567"><ele>0.0</ele><time>2026-04-26T09:56:21.256Z</time></trkpt><trkpt lat="41.3058384" lon="19.4931215"><ele>0.0</ele><time>2026-04-26T09:56:22.255Z</time></trkpt><trkpt lat="41.3057813" lon="19.493193"><ele>0.0</ele><time>2026-04-26T09:56:23.255Z</time></trkpt><trkpt lat="41.305721" lon="19.4932588"><ele>0.0</ele><time>2026-04-26T09:56:24.255Z</time></trkpt><trkpt lat="41.305662" lon="19.4933228"><ele>0.0</ele><time>2026-04-26T09:56:25.255Z</time></trkpt><trkpt lat="41.3056041" lon="19.493383"><ele>0.0</ele><time>2026-04-26T09:56:26.255Z</time></trkpt><trkpt lat="41.305547" lon="19.4934403"><ele>0.16666666666666666</ele><time>2026-04-26T09:56:27.256Z</time></trkpt><trkpt lat="41.3054963" lon="19.4934954"><ele>0.3333333333333333</ele><time>2026-04-26T09:56:28.255Z</time></trkpt><trkpt lat="41.305413" lon="19.493587"><ele>0.5</ele><time>2026-04-26T09:56:30.256Z</time></trkpt><trkpt lat="41.3053582" lon="19.493646"><ele>0.6666666666666666</ele><time>2026-04-26T09:56:33.255Z</time></trkpt><trkpt lat="41.305301" lon="19.4937165"><ele>0.8333333333333333</ele><time>2026-04-26T09:56:44.256Z</time></trkpt><trkpt lat="41.3052455" lon="19.4937761"><ele>1.0</ele><time>2026-04-26T09:56:48.256Z</time></trkpt><trkpt lat="41.3051905" lon="19.493842"><ele>1.0</ele><time>2026-04-26T09:56:54.255Z</time></trkpt><trkpt lat="41.305141" lon="19.4938943"><ele>0.9999999999999999</ele><time>2026-04-26T09:56:57.255Z</time></trkpt><trkpt lat="41.3050733" lon="19.493966"><ele>1.0</ele><time>2026-04-26T09:57:01.255Z</time></trkpt><trkpt lat="41.3050215" lon="19.4940251"><ele>1.0</ele><time>2026-04-26T09:57:04.256Z</time></trkpt><trkpt lat="41.3049538" lon="19.494086"><ele>0.9999999999999999</ele><time>2026-04-26T09:57:11.256Z</time></trkpt><trkpt lat="41.3048985" lon="19.4941457"><ele>1.0</ele><time>2026-04-26T09:57:14.255Z</time></trkpt><trkpt lat="41.3048395" lon="19.4941967"><ele>1.0</ele><time>2026-04-26T09:57:17.255Z</time></trkpt><trkpt lat="41.3047826" lon="19.4942595"><ele>1.1666666666666665</ele><time>2026-04-26T09:57:22.256Z</time></trkpt><trkpt lat="41.3047299" lon="19.4943251"><ele>1.3333333333333333</ele><time>2026-04-26T09:57:25.255Z</time></trkpt><trkpt lat="41.3046689" lon="19.4944222"><ele>1.5</ele><time>2026-04-26T09:57:28.255Z</time></trkpt><trkpt lat="41.3045963" lon="19.4945421"><ele>1.6666666666666665</ele><time>2026-04-26T09:57:30.256Z</time></trkpt><trkpt lat="41.3045446" lon="19.4946108"><ele>1.8333333333333333</ele><time>2026-04-26T09:57:31.256Z</time></trkpt><trkpt lat="41.3044836" lon="19.4946901"><ele>2.0</ele><time>2026-04-26T09:57:32.256Z</time></trkpt><trkpt lat="41.3044135" lon="19.4947812"><ele>1.6</ele><time>2026-04-26T09:57:33.255Z</time></trkpt><trkpt lat="41.3043415" lon="19.4948828"><ele>1.2000000000000002</ele><time>2026-04-26T09:57:34.256Z</time></trkpt><trkpt lat="41.3042742" lon="19.4949769"><ele>0.8</ele><time>2026-04-26T09:57:35.255Z</time></trkpt><trkpt lat="41.3042114" lon="19.4950655"><ele>0.4</ele><time>2026-04-26T09:57:36.255Z</time></trkpt><trkpt lat="41.3041617" lon="19.4951333"><ele>0.0</ele><time>2026-04-26T09:57:37.255Z</time></trkpt><trkpt lat="41.3040963" lon="19.4952263"><ele>0.0</ele><time>2026-04-26T09:57:39.256Z</time></trkpt><trkpt lat="41.3040469" lon="19.4953153"><ele>0.0</ele><time>2026-04-26T09:57:59.256Z</time></trkpt><trkpt lat="41.3039947" lon="19.4953902"><ele>0.0</ele><time>2026-04-26T09:58:02.255Z</time></trkpt><trkpt lat="41.3039493" lon="19.4954605"><ele>0.0</ele><time>2026-04-26T09:58:06.255Z</time></trkpt><trkpt lat="41.303889" lon="19.4955425"><ele>0.0</ele><time>2026-04-26T09:58:15.256Z</time></trkpt><trkpt lat="41.3038432" lon="19.4956112"><ele>0.0</ele><time>2026-04-26T09:58:18.255Z</time></trkpt><trkpt lat="41.3037901" lon="19.4956854"><ele>0.3333333333333333</ele><time>2026-04-26T09:58:22.256Z</time></trkpt><trkpt lat="41.3037459" lon="19.4957473"><ele>0.6666666666666666</ele><time>2026-04-26T09:58:25.255Z</time></trkpt><trkpt lat="41.3036991" lon="19.4958388"><ele>1.0</ele><time>2026-04-26T09:58:27.256Z</time></trkpt><trkpt lat="41.3036493" lon="19.4959247"><ele>1.3333333333333333</ele><time>2026-04-26T09:58:28.256Z</time></trkpt><trkpt lat="41.303591" lon="19.4960115"><ele>1.6666666666666665</ele><time>2026-04-26T09:58:29.255Z</time></trkpt><trkpt lat="41.3035283" lon="19.496102"><ele>2.0</ele><time>2026-04-26T09:58:30.256Z</time></trkpt><trkpt lat="41.3034647" lon="19.4961905"><ele>1.8333333333333333</ele><time>2026-04-26T09:58:31.255Z</time></trkpt><trkpt lat="41.3034018" lon="19.4962807"><ele>1.6666666666666665</ele><time>2026-04-26T09:58:32.256Z</time></trkpt><trkpt lat="41.3033393" lon="19.4963685"><ele>1.5</ele><time>2026-04-26T09:58:33.256Z</time></trkpt><trkpt lat="41.3032809" lon="19.4964531"><ele>1.3333333333333333</ele><time>2026-04-26T09:58:34.256Z</time></trkpt><trkpt lat="41.3032237" lon="19.4965351"><ele>1.1666666666666665</ele><time>2026-04-26T09:58:35.256Z</time></trkpt><trkpt lat="41.3031679" lon="19.4966163"><ele>1.0</ele><time>2026-04-26T09:58:36.256Z</time></trkpt><trkpt lat="41.3031125" lon="19.4966984"><ele>0.9999999999999999</ele><time>2026-04-26T09:58:37.256Z</time></trkpt><trkpt lat="41.3030613" lon="19.496771"><ele>1.0</ele><time>2026-04-26T09:58:38.256Z</time></trkpt><trkpt lat="41.3030144" lon="19.4968326"><ele>1.0</ele><time>2026-04-26T09:58:39.255Z</time></trkpt><trkpt lat="41.3029511" lon="19.4969153"><ele>1.0</ele><time>2026-04-26T09:58:41.256Z</time></trkpt><trkpt lat="41.3028947" lon="19.4969855"><ele>0.9999999999999999</ele><time>2026-04-26T09:58:45.255Z</time></trkpt><trkpt lat="41.3028478" lon="19.4970445"><ele>1.0</ele><time>2026-04-26T09:58:52.255Z</time></trkpt><trkpt lat="41.3027908" lon="19.4971255"><ele>0.8571428571428571</ele><time>2026-04-26T09:59:01.256Z</time></trkpt><trkpt lat="41.3027471" lon="19.4971865"><ele>0.7142857142857142</ele><time>2026-04-26T09:59:25.256Z</time></trkpt><trkpt lat="41.3027033" lon="19.4972476"><ele>0.5714285714285714</ele><time>2026-04-26T09:59:28.256Z</time></trkpt><trkpt lat="41.302658" lon="19.4973132"><ele>0.42857142857142855</ele><time>2026-04-26T09:59:32.255Z</time></trkpt><trkpt lat="41.3026101" lon="19.4973837"><ele>0.2857142857142857</ele><time>2026-04-26T09:59:37.256Z</time></trkpt><trkpt lat="41.3025653" lon="19.4974445"><ele>0.14285714285714285</ele><time>2026-04-26T09:59:44.256Z</time></trkpt><trkpt lat="41.3025184" lon="19.4975076"><ele>0.0</ele><time>2026-04-26T09:59:48.256Z</time></trkpt><trkpt lat="41.3024723" lon="19.4975704"><ele>0.0</ele><time>2026-04-26T09:59:54.256Z</time></trkpt><trkpt lat="41.3024196" lon="19.4976327"><ele>0.0</ele><time>2026-04-26T09:59:57.255Z</time></trkpt><trkpt lat="41.3023626" lon="19.4977125"><ele>0.0</ele><time>2026-04-26T10:00:01.256Z</time></trkpt><trkpt lat="41.3023191" lon="19.4977777"><ele>0.0</ele><time>2026-04-26T10:00:03.256Z</time></trkpt><trkpt lat="41.3022728" lon="19.4978615"><ele>0.0</ele><time>2026-04-26T10:00:07.255Z</time></trkpt><trkpt lat="41.3022178" lon="19.4979307"><ele>0.0</ele><time>2026-04-26T10:00:11.255Z</time></trkpt><trkpt lat="41.3021613" lon="19.4980121"><ele>0.0</ele><time>2026-04-26T10:00:14.256Z</time></trkpt><trkpt lat="41.3021073" lon="19.498092"><ele>0.0</ele><time>2026-04-26T10:00:16.256Z</time></trkpt><trkpt lat="41.3020379" lon="19.4981886"><ele>0.0</ele><time>2026-04-26T10:00:18.256Z</time></trkpt><trkpt lat="41.3019662" lon="19.4982808"><ele>0.0</ele><time>2026-04-26T10:00:20.255Z</time></trkpt><trkpt lat="41.3018855" lon="19.4983979"><ele>0.0</ele><time>2026-04-26T10:00:22.255Z</time></trkpt><trkpt lat="41.301813" lon="19.4985086"><ele>0.0</ele><time>2026-04-26T10:00:24.256Z</time></trkpt><trkpt lat="41.3017371" lon="19.498615"><ele>0.0</ele><time>2026-04-26T10:00:26.255Z</time></trkpt><trkpt lat="41.3016613" lon="19.4987252"><ele>0.0</ele><time>2026-04-26T10:00:28.255Z</time></trkpt><trkpt lat="41.3015851" lon="19.4988399"><ele>0.0</ele><time>2026-04-26T10:00:30.256Z</time></trkpt><trkpt lat="41.3015058" lon="19.4989546"><ele>0.6</ele><time>2026-04-26T10:00:32.256Z</time></trkpt><trkpt lat="41.3014278" lon="19.4990625"><ele>1.2</ele><time>2026-04-26T10:00:34.255Z</time></trkpt><trkpt lat="41.3013513" lon="19.4991812"><ele>1.7999999999999998</ele><time>2026-04-26T10:00:36.255Z</time></trkpt><trkpt lat="41.3013065" lon="19.4992559"><ele>2.4</ele><time>2026-04-26T10:00:37.255Z</time></trkpt><trkpt lat="41.3012562" lon="19.4993446"><ele>3.0</ele><time>2026-04-26T10:00:38.255Z</time></trkpt><trkpt lat="41.301197" lon="19.4994371"><ele>3.0</ele><time>2026-04-26T10:00:39.255Z</time></trkpt><trkpt lat="41.3011337" lon="19.4995308"><ele>3.0</ele><time>2026-04-26T10:00:40.255Z</time></trkpt><trkpt lat="41.3010665" lon="19.4996286"><ele>3.0</ele><time>2026-04-26T10:00:41.255Z</time></trkpt><trkpt lat="41.3009921" lon="19.4997246"><ele>3.0</ele><time>2026-04-26T10:00:42.256Z</time></trkpt><trkpt lat="41.300917" lon="19.4998225"><ele>3.0</ele><time>2026-04-26T10:00:43.256Z</time></trkpt><trkpt lat="41.3008463" lon="19.4999311"><ele>3.25</ele><time>2026-04-26T10:00:44.255Z</time></trkpt><trkpt lat="41.3007711" lon="19.5000474"><ele>3.5</ele><time>2026-04-26T10:00:45.256Z</time></trkpt><trkpt lat="41.3006897" lon="19.5001679"><ele>3.75</ele><time>2026-04-26T10:00:46.256Z</time></trkpt><trkpt lat="41.3006079" lon="19.500278"><ele>4.0</ele><time>2026-04-26T10:00:47.256Z</time></trkpt><trkpt lat="41.3005206" lon="19.500397"><ele>4.5</ele><time>2026-04-26T10:00:48.256Z</time></trkpt><trkpt lat="41.300434" lon="19.5005199"><ele>5.0</ele><time>2026-04-26T10:00:49.255Z</time></trkpt><trkpt lat="41.3003464" lon="19.5006464"><ele>5.5</ele><time>2026-04-26T10:00:50.255Z</time></trkpt><trkpt lat="41.3002581" lon="19.5007728"><ele>6.0</ele><time>2026-04-26T10:00:51.256Z</time></trkpt><trkpt lat="41.3001706" lon="19.5008961"><ele>6.0</ele><time>2026-04-26T10:00:52.256Z</time></trkpt><trkpt lat="41.3000845" lon="19.5010168"><ele>6.0</ele><time>2026-04-26T10:00:53.256Z</time></trkpt><trkpt lat="41.3000009" lon="19.5011374"><ele>6.0</ele><time>2026-04-26T10:00:54.256Z</time></trkpt><trkpt lat="41.2999191" lon="19.5012586"><ele>6.0</ele><time>2026-04-26T10:00:55.255Z</time></trkpt><trkpt lat="41.2998383" lon="19.5013792"><ele>6.0</ele><time>2026-04-26T10:00:56.256Z</time></trkpt><trkpt lat="41.2997543" lon="19.5015005"><ele>6.0</ele><time>2026-04-26T10:00:57.256Z</time></trkpt><trkpt lat="41.2996704" lon="19.5016218"><ele>6.0</ele><time>2026-04-26T10:00:58.256Z</time></trkpt><trkpt lat="41.2995831" lon="19.5017456"><ele>6.0</ele><time>2026-04-26T10:00:59.256Z</time></trkpt><trkpt lat="41.2994971" lon="19.5018687"><ele>6.0</ele><time>2026-04-26T10:01:00.256Z</time></trkpt><trkpt lat="41.2994112" lon="19.5019898"><ele>6.0</ele><time>2026-04-26T10:01:01.256Z</time></trkpt><trkpt lat="41.2993252" lon="19.5021078"><ele>6.0</ele><time>2026-04-26T10:01:02.256Z</time></trkpt><trkpt lat="41.299239" lon="19.5022215"><ele>6.0</ele><time>2026-04-26T10:01:03.256Z</time></trkpt><trkpt lat="41.299155" lon="19.5023314"><ele>5.25</ele><time>2026-04-26T10:01:04.255Z</time></trkpt><trkpt lat="41.2990737" lon="19.5024396"><ele>4.5</ele><time>2026-04-26T10:01:05.255Z</time></trkpt><trkpt lat="41.2989947" lon="19.5025486"><ele>3.75</ele><time>2026-04-26T10:01:06.256Z</time></trkpt><trkpt lat="41.2989182" lon="19.5026587"><ele>3.0</ele><time>2026-04-26T10:01:07.256Z</time></trkpt><trkpt lat="41.2988414" lon="19.5027683"><ele>3.0</ele><time>2026-04-26T10:01:08.255Z</time></trkpt><trkpt lat="41.298768" lon="19.5028738"><ele>3.0</ele><time>2026-04-26T10:01:09.255Z</time></trkpt><trkpt lat="41.2986928" lon="19.502979"><ele>3.0</ele><time>2026-04-26T10:01:10.255Z</time></trkpt><trkpt lat="41.2986189" lon="19.5030805"><ele>3.0</ele><time>2026-04-26T10:01:11.255Z</time></trkpt><trkpt lat="41.2985468" lon="19.5031804"><ele>3.0</ele><time>2026-04-26T10:01:12.256Z</time></trkpt><trkpt lat="41.2984745" lon="19.5032773"><ele>3.4</ele><time>2026-04-26T10:01:13.256Z</time></trkpt><trkpt lat="41.2983974" lon="19.5033749"><ele>3.8</ele><time>2026-04-26T10:01:14.255Z</time></trkpt><trkpt lat="41.2983255" lon="19.5034645"><ele>4.2</ele><time>2026-04-26T10:01:15.256Z</time></trkpt><trkpt lat="41.298252" lon="19.5035565"><ele>4.6</ele><time>2026-04-26T10:01:16.255Z</time></trkpt><trkpt lat="41.2981786" lon="19.5036497"><ele>5.0</ele><time>2026-04-26T10:01:17.256Z</time></trkpt><trkpt lat="41.2981004" lon="19.503749"><ele>4.8</ele><time>2026-04-26T10:01:18.256Z</time></trkpt><trkpt lat="41.298018" lon="19.5038515"><ele>4.6</ele><time>2026-04-26T10:01:19.255Z</time></trkpt><trkpt lat="41.2979371" lon="19.5039487"><ele>4.4</ele><time>2026-04-26T10:01:20.255Z</time></trkpt><trkpt lat="41.2978582" lon="19.5040383"><ele>4.2</ele><time>2026-04-26T10:01:21.255Z</time></trkpt><trkpt lat="41.2977838" lon="19.5041232"><ele>4.0</ele><time>2026-04-26T10:01:22.256Z</time></trkpt><trkpt lat="41.2977099" lon="19.5042045"><ele>4.0</ele><time>2026-04-26T10:01:23.256Z</time></trkpt><trkpt lat="41.2976356" lon="19.5042858"><ele>4.0</ele><time>2026-04-26T10:01:24.256Z</time></trkpt><trkpt lat="41.2975603" lon="19.5043645"><ele>4.0</ele><time>2026-04-26T10:01:25.256Z</time></trkpt><trkpt lat="41.2974839" lon="19.5044399"><ele>4.0</ele><time>2026-04-26T10:01:26.255Z</time></trkpt><trkpt lat="41.2974063" lon="19.5045154"><ele>4.0</ele><time>2026-04-26T10:01:27.256Z</time></trkpt><trkpt lat="41.297327" lon="19.5045907"><ele>4.6</ele><time>2026-04-26T10:01:28.255Z</time></trkpt><trkpt lat="41.2972446" lon="19.5046667"><ele>5.2</ele><time>2026-04-26T10:01:29.256Z</time></trkpt><trkpt lat="41.2971539" lon="19.5047417"><ele>5.799999999999999</ele><time>2026-04-26T10:01:30.255Z</time></trkpt><trkpt lat="41.2970612" lon="19.5048172"><ele>6.3999999999999995</ele><time>2026-04-26T10:01:31.255Z</time></trkpt><trkpt lat="41.2969667" lon="19.5048897"><ele>7.0</ele><time>2026-04-26T10:01:32.256Z</time></trkpt><trkpt lat="41.2968739" lon="19.5049653"><ele>7.0</ele><time>2026-04-26T10:01:33.255Z</time></trkpt><trkpt lat="41.2967827" lon="19.5050359"><ele>6.999999999999999</ele><time>2026-04-26T10:01:34.256Z</time></trkpt><trkpt lat="41.2966944" lon="19.5051075"><ele>6.999999999999999</ele><time>2026-04-26T10:01:35.255Z</time></trkpt><trkpt lat="41.2966094" lon="19.505177"><ele>7.0</ele><time>2026-04-26T10:01:36.255Z</time></trkpt><trkpt lat="41.2965226" lon="19.5052436"><ele>7.0</ele><time>2026-04-26T10:01:37.255Z</time></trkpt><trkpt lat="41.2964325" lon="19.5053084"><ele>6.6</ele><time>2026-04-26T10:01:38.255Z</time></trkpt><trkpt lat="41.2963384" lon="19.5053719"><ele>6.199999999999999</ele><time>2026-04-26T10:01:39.256Z</time></trkpt><trkpt lat="41.2962411" lon="19.505435"><ele>5.8</ele><time>2026-04-26T10:01:40.255Z</time></trkpt><trkpt lat="41.2961437" lon="19.5054993"><ele>5.4</ele><time>2026-04-26T10:01:41.255Z</time></trkpt><trkpt lat="41.2960446" lon="19.5055637"><ele>5.0</ele><time>2026-04-26T10:01:42.255Z</time></trkpt><trkpt lat="41.2959439" lon="19.5056291"><ele>5.0</ele><time>2026-04-26T10:01:43.256Z</time></trkpt><trkpt lat="41.2958411" lon="19.505688"><ele>5.0</ele><time>2026-04-26T10:01:44.256Z</time></trkpt><trkpt lat="41.2957376" lon="19.5057472"><ele>5.0</ele><time>2026-04-26T10:01:45.255Z</time></trkpt><trkpt lat="41.2956357" lon="19.5058074"><ele>5.0</ele><time>2026-04-26T10:01:46.255Z</time></trkpt><trkpt lat="41.2955332" lon="19.5058641"><ele>5.0</ele><time>2026-04-26T10:01:47.255Z</time></trkpt><trkpt lat="41.2954302" lon="19.5059231"><ele>5.2</ele><time>2026-04-26T10:01:48.256Z</time></trkpt><trkpt lat="41.2953267" lon="19.5059801"><ele>5.4</ele><time>2026-04-26T10:01:49.255Z</time></trkpt><trkpt lat="41.2952227" lon="19.5060348"><ele>5.6</ele><time>2026-04-26T10:01:50.255Z</time></trkpt><trkpt lat="41.2951183" lon="19.5060867"><ele>5.8</ele><time>2026-04-26T10:01:51.256Z</time></trkpt><trkpt lat="41.2950164" lon="19.5061403"><ele>6.0</ele><time>2026-04-26T10:01:52.255Z</time></trkpt><trkpt lat="41.2949125" lon="19.506195"><ele>5.8</ele><time>2026-04-26T10:01:53.256Z</time></trkpt><trkpt lat="41.2948097" lon="19.5062492"><ele>5.6</ele><time>2026-04-26T10:01:54.255Z</time></trkpt><trkpt lat="41.294708" lon="19.506304"><ele>5.4</ele><time>2026-04-26T10:01:55.255Z</time></trkpt><trkpt lat="41.2946075" lon="19.5063599"><ele>5.2</ele><time>2026-04-26T10:01:56.255Z</time></trkpt><trkpt lat="41.2945071" lon="19.506415"><ele>5.0</ele><time>2026-04-26T10:01:57.255Z</time></trkpt><trkpt lat="41.2944071" lon="19.5064701"><ele>5.0</ele><time>2026-04-26T10:01:58.256Z</time></trkpt><trkpt lat="41.2943048" lon="19.506522"><ele>5.0</ele><time>2026-04-26T10:01:59.255Z</time></trkpt><trkpt lat="41.2942034" lon="19.5065772"><ele>5.0</ele><time>2026-04-26T10:02:00.256Z</time></trkpt><trkpt lat="41.2941013" lon="19.5066288"><ele>5.0</ele><time>2026-04-26T10:02:01.255Z</time></trkpt><trkpt lat="41.2940014" lon="19.5066847"><ele>5.0</ele><time>2026-04-26T10:02:02.255Z</time></trkpt><trkpt lat="41.2939017" lon="19.5067374"><ele>4.4</ele><time>2026-04-26T10:02:03.256Z</time></trkpt><trkpt lat="41.293804" lon="19.5067879"><ele>3.8</ele><time>2026-04-26T10:02:04.256Z</time></trkpt><trkpt lat="41.2937091" lon="19.5068377"><ele>3.2</ele><time>2026-04-26T10:02:05.255Z</time></trkpt><trkpt lat="41.2936152" lon="19.506887"><ele>2.6</ele><time>2026-04-26T10:02:06.255Z</time></trkpt><trkpt lat="41.2935248" lon="19.50694"><ele>2.0</ele><time>2026-04-26T10:02:07.255Z</time></trkpt><trkpt lat="41.2934347" lon="19.5069899"><ele>2.0</ele><time>2026-04-26T10:02:08.256Z</time></trkpt><trkpt lat="41.2933457" lon="19.5070383"><ele>2.0</ele><time>2026-04-26T10:02:09.255Z</time></trkpt><trkpt lat="41.2932572" lon="19.5070851"><ele>2.0</ele><time>2026-04-26T10:02:10.255Z</time></trkpt><trkpt lat="41.2931687" lon="19.5071276"><ele>2.0</ele><time>2026-04-26T10:02:11.255Z</time></trkpt><trkpt lat="41.2930813" lon="19.5071714"><ele>2.0</ele><time>2026-04-26T10:02:12.256Z</time></trkpt><trkpt lat="41.2929973" lon="19.5072129"><ele>1.6666666666666665</ele><time>2026-04-26T10:02:13.256Z</time></trkpt><trkpt lat="41.2929201" lon="19.5072507"><ele>1.3333333333333333</ele><time>2026-04-26T10:02:14.255Z</time></trkpt><trkpt lat="41.2928475" lon="19.5072872"><ele>1.0</ele><time>2026-04-26T10:02:15.255Z</time></trkpt><trkpt lat="41.2927728" lon="19.5073248"><ele>0.6666666666666666</ele><time>2026-04-26T10:02:16.255Z</time></trkpt><trkpt lat="41.2926986" lon="19.5073649"><ele>0.3333333333333333</ele><time>2026-04-26T10:02:17.256Z</time></trkpt><trkpt lat="41.292628" lon="19.5074077"><ele>0.0</ele><time>2026-04-26T10:02:18.256Z</time></trkpt><trkpt lat="41.2925616" lon="19.5074537"><ele>0.0</ele><time>2026-04-26T10:02:19.256Z</time></trkpt><trkpt lat="41.2925026" lon="19.5075022"><ele>0.0</ele><time>2026-04-26T10:02:20.256Z</time></trkpt><trkpt lat="41.2924149" lon="19.5075969"><ele>0.0</ele><time>2026-04-26T10:02:22.255Z</time></trkpt><trkpt lat="41.2923688" lon="19.5076574"><ele>0.0</ele><time>2026-04-26T10:02:24.255Z</time></trkpt><trkpt lat="41.2923235" lon="19.5077339"><ele>0.0</ele><time>2026-04-26T10:02:35.255Z</time></trkpt><trkpt lat="41.2922789" lon="19.5078089"><ele>0.0</ele><time>2026-04-26T10:02:39.256Z</time></trkpt><trkpt lat="41.2922274" lon="19.5079025"><ele>0.0</ele><time>2026-04-26T10:02:42.255Z</time></trkpt><trkpt lat="41.2921774" lon="19.507986"><ele>0.0</ele><time>2026-04-26T10:02:45.255Z</time></trkpt><trkpt lat="41.2921351" lon="19.5080521"><ele>0.0</ele><time>2026-04-26T10:02:48.255Z</time></trkpt><trkpt lat="41.2920752" lon="19.5081163"><ele>0.0</ele><time>2026-04-26T10:02:53.255Z</time></trkpt><trkpt lat="41.2920176" lon="19.5081815"><ele>0.0</ele><time>2026-04-26T10:02:55.256Z</time></trkpt><trkpt lat="41.2919749" lon="19.5082639"><ele>0.0</ele><time>2026-04-26T10:02:57.255Z</time></trkpt><trkpt lat="41.291966" lon="19.5083662"><ele>0.0</ele><time>2026-04-26T10:02:59.255Z</time></trkpt><trkpt lat="41.2919892" lon="19.5084482"><ele>0.0</ele><time>2026-04-26T10:03:01.256Z</time></trkpt><trkpt lat="41.2920521" lon="19.5085253"><ele>0.0</ele><time>2026-04-26T10:03:03.255Z</time></trkpt><trkpt lat="41.2921255" lon="19.5085911"><ele>0.0</ele><time>2026-04-26T10:03:05.255Z</time></trkpt><trkpt lat="41.2921859" lon="19.5086864"><ele>0.0</ele><time>2026-04-26T10:03:07.256Z</time></trkpt><trkpt lat="41.2922382" lon="19.5088116"><ele>0.0</ele><time>2026-04-26T10:03:09.256Z</time></trkpt><trkpt lat="41.2923025" lon="19.5089576"><ele>0.2</ele><time>2026-04-26T10:03:11.256Z</time></trkpt><trkpt lat="41.2923598" lon="19.5090877"><ele>0.4</ele><time>2026-04-26T10:03:13.255Z</time></trkpt><trkpt lat="41.2924035" lon="19.509183"><ele>0.6000000000000001</ele><time>2026-04-26T10:03:15.256Z</time></trkpt><trkpt lat="41.2924499" lon="19.5092813"><ele>0.8</ele><time>2026-04-26T10:03:17.255Z</time></trkpt><trkpt lat="41.292502" lon="19.5094025"><ele>1.0</ele><time>2026-04-26T10:03:19.255Z</time></trkpt><trkpt lat="41.2925578" lon="19.5095319"><ele>1.0</ele><time>2026-04-26T10:03:21.256Z</time></trkpt><trkpt lat="41.2926129" lon="19.5096629"><ele>1.0</ele><time>2026-04-26T10:03:23.255Z</time></trkpt><trkpt lat="41.2926717" lon="19.5098011"><ele>1.0</ele><time>2026-04-26T10:03:25.255Z</time></trkpt><trkpt lat="41.2927049" lon="19.5098782"><ele>1.0</ele><time>2026-04-26T10:03:26.256Z</time></trkpt><trkpt lat="41.2927403" lon="19.5099677"><ele>1.0</ele><time>2026-04-26T10:03:27.256Z</time></trkpt><trkpt lat="41.2927786" lon="19.5100765"><ele>1.0</ele><time>2026-04-26T10:03:28.256Z</time></trkpt><trkpt lat="41.2928234" lon="19.5101926"><ele>1.0</ele><time>2026-04-26T10:03:29.255Z</time></trkpt><trkpt lat="41.2928741" lon="19.5103223"><ele>1.0</ele><time>2026-04-26T10:03:30.255Z</time></trkpt><trkpt lat="41.2929309" lon="19.5104624"><ele>1.0</ele><time>2026-04-26T10:03:31.255Z</time></trkpt><trkpt lat="41.2929879" lon="19.5106013"><ele>1.0</ele><time>2026-04-26T10:03:32.255Z</time></trkpt><trkpt lat="41.2930411" lon="19.5107294"><ele>1.3333333333333333</ele><time>2026-04-26T10:03:33.256Z</time></trkpt><trkpt lat="41.2930895" lon="19.5108475"><ele>1.6666666666666665</ele><time>2026-04-26T10:03:34.255Z</time></trkpt><trkpt lat="41.2931326" lon="19.5109524"><ele>2.0</ele><time>2026-04-26T10:03:35.256Z</time></trkpt><trkpt lat="41.2931713" lon="19.5110464"><ele>2.3333333333333335</ele><time>2026-04-26T10:03:36.255Z</time></trkpt><trkpt lat="41.2932042" lon="19.5111318"><ele>2.6666666666666665</ele><time>2026-04-26T10:03:37.255Z</time></trkpt><trkpt lat="41.2932359" lon="19.5112134"><ele>3.0</ele><time>2026-04-26T10:03:38.256Z</time></trkpt><trkpt lat="41.2932676" lon="19.5112933"><ele>3.0</ele><time>2026-04-26T10:03:39.256Z</time></trkpt><trkpt lat="41.2932957" lon="19.5113699"><ele>3.0</ele><time>2026-04-26T10:03:40.255Z</time></trkpt><trkpt lat="41.2933325" lon="19.5115205"><ele>3.0</ele><time>2026-04-26T10:03:42.255Z</time></trkpt><trkpt lat="41.2933591" lon="19.5116413"><ele>3.0</ele><time>2026-04-26T10:03:44.256Z</time></trkpt><trkpt lat="41.2934216" lon="19.511698"><ele>3.0</ele><time>2026-04-26T10:03:46.256Z</time></trkpt><trkpt lat="41.2934947" lon="19.5115495"><ele>3.0</ele><time>2026-04-26T10:03:50.256Z</time></trkpt><trkpt lat="41.2934627" lon="19.511467"><ele>3.0</ele><time>2026-04-26T10:03:51.256Z</time></trkpt><trkpt lat="41.2934104" lon="19.5113907"><ele>3.0</ele><time>2026-04-26T10:03:52.256Z</time></trkpt><trkpt lat="41.2933569" lon="19.5113103"><ele>3.0</ele><time>2026-04-26T10:03:53.256Z</time></trkpt><trkpt lat="41.2933087" lon="19.5112206"><ele>3.0</ele><time>2026-04-26T10:03:54.256Z</time></trkpt><trkpt lat="41.293264" lon="19.5111308"><ele>3.0</ele><time>2026-04-26T10:03:55.255Z</time></trkpt><trkpt lat="41.2932244" lon="19.5110439"><ele>3.0</ele><time>2026-04-26T10:03:56.256Z</time></trkpt><trkpt lat="41.2931878" lon="19.5109647"><ele>3.0</ele><time>2026-04-26T10:03:57.256Z</time></trkpt><trkpt lat="41.2931543" lon="19.5108915"><ele>3.0</ele><time>2026-04-26T10:03:58.256Z</time></trkpt><trkpt lat="41.2930978" lon="19.5107599"><ele>3.0</ele><time>2026-04-26T10:04:00.255Z</time></trkpt><trkpt lat="41.2930558" lon="19.5106612"><ele>3.0</ele><time>2026-04-26T10:04:02.255Z</time></trkpt><trkpt lat="41.2930238" lon="19.5105826"><ele>3.0</ele><time>2026-04-26T10:04:04.255Z</time></trkpt><trkpt lat="41.2929941" lon="19.5104938"><ele>2.6666666666666665</ele><time>2026-04-26T10:04:23.256Z</time></trkpt><trkpt lat="41.2929531" lon="19.5104011"><ele>2.3333333333333335</ele><time>2026-04-26T10:04:28.256Z</time></trkpt><trkpt lat="41.2929108" lon="19.510297"><ele>2.0</ele><time>2026-04-26T10:04:31.255Z</time></trkpt><trkpt lat="41.2928785" lon="19.5101998"><ele>1.6666666666666665</ele><time>2026-04-26T10:04:34.255Z</time></trkpt><trkpt lat="41.2928415" lon="19.5101043"><ele>1.3333333333333333</ele><time>2026-04-26T10:04:46.256Z</time></trkpt><trkpt lat="41.2928225" lon="19.5100051"><ele>1.0</ele><time>2026-04-26T10:04:58.256Z</time></trkpt><trkpt lat="41.2927831" lon="19.5099038"><ele>1.0</ele><time>2026-04-26T10:05:00.256Z</time></trkpt><trkpt lat="41.2927505" lon="19.5098186"><ele>0.9999999999999999</ele><time>2026-04-26T10:05:03.255Z</time></trkpt><trkpt lat="41.2927171" lon="19.5097279"><ele>1.0</ele><time>2026-04-26T10:05:08.255Z</time></trkpt><trkpt lat="41.2926869" lon="19.5096515"><ele>1.0</ele><time>2026-04-26T10:05:13.255Z</time></trkpt><trkpt lat="41.2926443" lon="19.5095697"><ele>0.9999999999999999</ele><time>2026-04-26T10:05:22.256Z</time></trkpt><trkpt lat="41.2926032" lon="19.5094871"><ele>1.0</ele><time>2026-04-26T10:05:30.255Z</time></trkpt><trkpt lat="41.2925603" lon="19.5093939"><ele>1.0</ele><time>2026-04-26T10:05:33.255Z</time></trkpt><trkpt lat="41.2925298" lon="19.5093183"><ele>1.0</ele><time>2026-04-26T10:05:35.256Z</time></trkpt><trkpt lat="41.2924996" lon="19.5092373"><ele>0.9999999999999999</ele><time>2026-04-26T10:05:38.256Z</time></trkpt><trkpt lat="41.2924621" lon="19.5091463"><ele>1.0</ele><time>2026-04-26T10:05:43.256Z</time></trkpt><trkpt lat="41.2924233" lon="19.5090548"><ele>1.0</ele><time>2026-04-26T10:05:47.255Z</time></trkpt><trkpt lat="41.2923914" lon="19.5089784"><ele>0.9999999999999999</ele><time>2026-04-26T10:05:50.255Z</time></trkpt><trkpt lat="41.2923556" lon="19.5088974"><ele>1.0</ele><time>2026-04-26T10:06:05.256Z</time></trkpt><trkpt lat="41.2923324" lon="19.5088154"><ele>1.0</ele><time>2026-04-26T10:06:10.256Z</time></trkpt><trkpt lat="41.2923163" lon="19.5087325"><ele>0.9999999999999999</ele><time>2026-04-26T10:06:13.256Z</time></trkpt><trkpt lat="41.2922982" lon="19.5085985"><ele>1.0</ele><time>2026-04-26T10:06:16.255Z</time></trkpt><trkpt lat="41.2922826" lon="19.5085013"><ele>1.0</ele><time>2026-04-26T10:06:18.255Z</time></trkpt><trkpt lat="41.2922663" lon="19.5083907"><ele>1.0</ele><time>2026-04-26T10:06:20.256Z</time></trkpt><trkpt lat="41.2922553" lon="19.5083055"><ele>0.9999999999999999</ele><time>2026-04-26T10:06:22.255Z</time></trkpt><trkpt lat="41.2922189" lon="19.5082319"><ele>1.0</ele><time>2026-04-26T10:06:28.256Z</time></trkpt><trkpt lat="41.2921601" lon="19.5081873"><ele>0.8333333333333333</ele><time>2026-04-26T10:06:32.255Z</time></trkpt><trkpt lat="41.2920944" lon="19.5081857"><ele>0.6666666666666666</ele><time>2026-04-26T10:06:36.256Z</time></trkpt><trkpt lat="41.2920245" lon="19.5082423"><ele>0.5</ele><time>2026-04-26T10:06:39.256Z</time></trkpt><trkpt lat="41.291982" lon="19.5083133"><ele>0.3333333333333333</ele><time>2026-04-26T10:06:41.255Z</time></trkpt><trkpt lat="41.2919691" lon="19.5084282"><ele>0.16666666666666666</ele><time>2026-04-26T10:06:43.256Z</time></trkpt><trkpt lat="41.2919738" lon="19.5085949"><ele>0.0</ele><time>2026-04-26T10:06:45.256Z</time></trkpt><trkpt lat="41.2919482" lon="19.5086871"><ele>0.0</ele><time>2026-04-26T10:06:46.256Z</time></trkpt><trkpt lat="41.2919074" lon="19.5087925"><ele>0.0</ele><time>2026-04-26T10:06:47.256Z</time></trkpt><trkpt lat="41.2918591" lon="19.5089178"><ele>0.0</ele><time>2026-04-26T10:06:48.255Z</time></trkpt><trkpt lat="41.2918074" lon="19.5090539"><ele>0.0</ele><time>2026-04-26T10:06:49.255Z</time></trkpt><trkpt lat="41.2917518" lon="19.5091955"><ele>0.0</ele><time>2026-04-26T10:06:50.256Z</time></trkpt><trkpt lat="41.2916933" lon="19.5093422"><ele>0.0</ele><time>2026-04-26T10:06:51.255Z</time></trkpt><trkpt lat="41.2916339" lon="19.5094967"><ele>0.0</ele><time>2026-04-26T10:06:52.256Z</time></trkpt><trkpt lat="41.2915741" lon="19.5096553"><ele>0.0</ele><time>2026-04-26T10:06:53.255Z</time></trkpt><trkpt lat="41.2915171" lon="19.5098064"><ele>0.0</ele><time>2026-04-26T10:06:54.256Z</time></trkpt><trkpt lat="41.2914556" lon="19.5099464"><ele>0.25</ele><time>2026-04-26T10:06:55.255Z</time></trkpt><trkpt lat="41.2913855" lon="19.5100675"><ele>0.5</ele><time>2026-04-26T10:06:56.256Z</time></trkpt><trkpt lat="41.2912986" lon="19.510166"><ele>0.75</ele><time>2026-04-26T10:06:57.256Z</time></trkpt><trkpt lat="41.2911975" lon="19.5102432"><ele>1.0</ele><time>2026-04-26T10:06:58.255Z</time></trkpt><trkpt lat="41.2910885" lon="19.5103143"><ele>1.0</ele><time>2026-04-26T10:06:59.255Z</time></trkpt><trkpt lat="41.2909699" lon="19.5104037"><ele>1.0</ele><time>2026-04-26T10:07:00.255Z</time></trkpt><trkpt lat="41.2908531" lon="19.5105184"><ele>1.0</ele><time>2026-04-26T10:07:01.255Z</time></trkpt><trkpt lat="41.2907456" lon="19.5106492"><ele>1.0</ele><time>2026-04-26T10:07:02.256Z</time></trkpt><trkpt lat="41.2906536" lon="19.5107863"><ele>1.0</ele><time>2026-04-26T10:07:03.256Z</time></trkpt><trkpt lat="41.2905752" lon="19.5109227"><ele>1.0</ele><time>2026-04-26T10:07:04.255Z</time></trkpt><trkpt lat="41.2905015" lon="19.5110587"><ele>1.0</ele><time>2026-04-26T10:07:05.255Z</time></trkpt><trkpt lat="41.290426" lon="19.5111948"><ele>1.0</ele><time>2026-04-26T10:07:06.256Z</time></trkpt><trkpt lat="41.2903432" lon="19.5113268"><ele>1.0</ele><time>2026-04-26T10:07:07.256Z</time></trkpt><trkpt lat="41.2902521" lon="19.5114582"><ele>1.0</ele><time>2026-04-26T10:07:08.255Z</time></trkpt><trkpt lat="41.2901557" lon="19.5115927"><ele>1.0</ele><time>2026-04-26T10:07:09.255Z</time></trkpt><trkpt lat="41.2900551" lon="19.5117309"><ele>1.0</ele><time>2026-04-26T10:07:10.256Z</time></trkpt><trkpt lat="41.2899524" lon="19.5118723"><ele>1.0</ele><time>2026-04-26T10:07:11.255Z</time></trkpt><trkpt lat="41.2898498" lon="19.5120117"><ele>1.0</ele><time>2026-04-26T10:07:12.256Z</time></trkpt><trkpt lat="41.2897462" lon="19.5121468"><ele>1.0</ele><time>2026-04-26T10:07:13.256Z</time></trkpt><trkpt lat="41.2896374" lon="19.5122832"><ele>1.0</ele><time>2026-04-26T10:07:14.255Z</time></trkpt><trkpt lat="41.2895219" lon="19.5124168"><ele>1.6666666666666665</ele><time>2026-04-26T10:07:15.256Z</time></trkpt><trkpt lat="41.2893967" lon="19.5125439"><ele>2.3333333333333335</ele><time>2026-04-26T10:07:16.255Z</time></trkpt><trkpt lat="41.2892624" lon="19.5126656"><ele>3.0</ele><time>2026-04-26T10:07:17.256Z</time></trkpt><trkpt lat="41.2891215" lon="19.5127733"><ele>3.0</ele><time>2026-04-26T10:07:18.255Z</time></trkpt><trkpt lat="41.2889785" lon="19.5128693"><ele>3.0</ele><time>2026-04-26T10:07:19.256Z</time></trkpt><trkpt lat="41.2888323" lon="19.512953"><ele>3.0</ele><time>2026-04-26T10:07:20.255Z</time></trkpt><trkpt lat="41.2886824" lon="19.5130263"><ele>3.0</ele><time>2026-04-26T10:07:21.255Z</time></trkpt><trkpt lat="41.2885274" lon="19.5130897"><ele>3.0</ele><time>2026-04-26T10:07:22.256Z</time></trkpt><trkpt lat="41.2883689" lon="19.5131462"><ele>3.0</ele><time>2026-04-26T10:07:23.255Z</time></trkpt><trkpt lat="41.2882073" lon="19.5131982"><ele>2.6666666666666665</ele><time>2026-04-26T10:07:24.255Z</time></trkpt><trkpt lat="41.2880447" lon="19.5132463"><ele>2.333333333333333</ele><time>2026-04-26T10:07:25.256Z</time></trkpt><trkpt lat="41.2878808" lon="19.5132941"><ele>2.0</ele><time>2026-04-26T10:07:26.255Z</time></trkpt><trkpt lat="41.2877152" lon="19.5133398"><ele>2.0</ele><time>2026-04-26T10:07:27.255Z</time></trkpt><trkpt lat="41.2875461" lon="19.5133812"><ele>2.0</ele><time>2026-04-26T10:07:28.255Z</time></trkpt><trkpt lat="41.2873738" lon="19.5134213"><ele>2.0</ele><time>2026-04-26T10:07:29.255Z</time></trkpt><trkpt lat="41.2871954" lon="19.5134603"><ele>1.3333333333333333</ele><time>2026-04-26T10:07:30.256Z</time></trkpt><trkpt lat="41.2870163" lon="19.5134987"><ele>0.6666666666666666</ele><time>2026-04-26T10:07:31.256Z</time></trkpt><trkpt lat="41.2868374" lon="19.5135366"><ele>0.0</ele><time>2026-04-26T10:07:32.256Z</time></trkpt><trkpt lat="41.2866604" lon="19.5135771"><ele>0.0</ele><time>2026-04-26T10:07:33.256Z</time></trkpt><trkpt lat="41.2864827" lon="19.5136173"><ele>0.0</ele><time>2026-04-26T10:07:34.256Z</time></trkpt><trkpt lat="41.2863026" lon="19.5136588"><ele>0.0</ele><time>2026-04-26T10:07:35.256Z</time></trkpt><trkpt lat="41.2861239" lon="19.5137022"><ele>0.3333333333333333</ele><time>2026-04-26T10:07:36.256Z</time></trkpt><trkpt lat="41.2859433" lon="19.5137513"><ele>0.6666666666666666</ele><time>2026-04-26T10:07:37.255Z</time></trkpt><trkpt lat="41.2857615" lon="19.5138016"><ele>1.0</ele><time>2026-04-26T10:07:38.256Z</time></trkpt><trkpt lat="41.2855793" lon="19.5138534"><ele>1.0</ele><time>2026-04-26T10:07:39.255Z</time></trkpt><trkpt lat="41.2853966" lon="19.513907"><ele>1.0</ele><time>2026-04-26T10:07:40.256Z</time></trkpt><trkpt lat="41.2852135" lon="19.5139603"><ele>1.0</ele><time>2026-04-26T10:07:41.256Z</time></trkpt><trkpt lat="41.2850307" lon="19.5140098"><ele>1.0</ele><time>2026-04-26T10:07:42.256Z</time></trkpt><trkpt lat="41.2848488" lon="19.5140576"><ele>1.0</ele><time>2026-04-26T10:07:43.255Z</time></trkpt><trkpt lat="41.2846676" lon="19.5141025"><ele>1.0</ele><time>2026-04-26T10:07:44.256Z</time></trkpt><trkpt lat="41.2844883" lon="19.5141447"><ele>1.3333333333333333</ele><time>2026-04-26T10:07:45.256Z</time></trkpt><trkpt lat="41.2843093" lon="19.5141852"><ele>1.6666666666666665</ele><time>2026-04-26T10:07:46.256Z</time></trkpt><trkpt lat="41.2841291" lon="19.5142192"><ele>2.0</ele><time>2026-04-26T10:07:47.256Z</time></trkpt><trkpt lat="41.2839497" lon="19.5142484"><ele>2.0</ele><time>2026-04-26T10:07:48.255Z</time></trkpt><trkpt lat="41.2837701" lon="19.514276"><ele>2.0</ele><time>2026-04-26T10:07:49.256Z</time></trkpt><trkpt lat="41.283591" lon="19.5143015"><ele>2.0</ele><time>2026-04-26T10:07:50.255Z</time></trkpt><trkpt lat="41.2834102" lon="19.514323"><ele>2.0</ele><time>2026-04-26T10:07:51.256Z</time></trkpt><trkpt lat="41.2832277" lon="19.5143421"><ele>2.0</ele><time>2026-04-26T10:07:52.256Z</time></trkpt><trkpt lat="41.2830451" lon="19.5143554"><ele>2.0</ele><time>2026-04-26T10:07:53.256Z</time></trkpt><trkpt lat="41.2828629" lon="19.5143628"><ele>2.0</ele><time>2026-04-26T10:07:54.255Z</time></trkpt><trkpt lat="41.2826798" lon="19.5143684"><ele>2.0</ele><time>2026-04-26T10:07:55.255Z</time></trkpt><trkpt lat="41.2824953" lon="19.5143713"><ele>2.0</ele><time>2026-04-26T10:07:56.256Z</time></trkpt><trkpt lat="41.2823098" lon="19.514369"><ele>3.0</ele><time>2026-04-26T10:07:57.256Z</time></trkpt><trkpt lat="41.2821222" lon="19.5143638"><ele>4.0</ele><time>2026-04-26T10:07:58.256Z</time></trkpt><trkpt lat="41.2819338" lon="19.5143571"><ele>5.0</ele><time>2026-04-26T10:07:59.256Z</time></trkpt><trkpt lat="41.2817447" lon="19.5143508"><ele>5.0</ele><time>2026-04-26T10:08:00.256Z</time></trkpt><trkpt lat="41.2815565" lon="19.5143432"><ele>5.0</ele><time>2026-04-26T10:08:01.256Z</time></trkpt><trkpt lat="41.2813667" lon="19.5143335"><ele>5.0</ele><time>2026-04-26T10:08:02.256Z</time></trkpt><trkpt lat="41.2811752" lon="19.5143246"><ele>5.0</ele><time>2026-04-26T10:08:03.256Z</time></trkpt><trkpt lat="41.2809822" lon="19.5143157"><ele>5.0</ele><time>2026-04-26T10:08:04.255Z</time></trkpt><trkpt lat="41.2807889" lon="19.5143087"><ele>5.0</ele><time>2026-04-26T10:08:05.256Z</time></trkpt><trkpt lat="41.2805958" lon="19.5143046"><ele>3.666666666666667</ele><time>2026-04-26T10:08:06.256Z</time></trkpt><trkpt lat="41.2804032" lon="19.5143014"><ele>2.3333333333333335</ele><time>2026-04-26T10:08:07.256Z</time></trkpt><trkpt lat="41.2802107" lon="19.5143023"><ele>1.0</ele><time>2026-04-26T10:08:08.255Z</time></trkpt><trkpt lat="41.2800193" lon="19.5143112"><ele>1.0</ele><time>2026-04-26T10:08:09.256Z</time></trkpt><trkpt lat="41.2798276" lon="19.5143289"><ele>1.0</ele><time>2026-04-26T10:08:10.255Z</time></trkpt><trkpt lat="41.279638" lon="19.5143582"><ele>1.0</ele><time>2026-04-26T10:08:11.256Z</time></trkpt><trkpt lat="41.2794492" lon="19.514395"><ele>1.0</ele><time>2026-04-26T10:08:12.255Z</time></trkpt><trkpt lat="41.2792605" lon="19.5144404"><ele>1.0</ele><time>2026-04-26T10:08:13.256Z</time></trkpt><trkpt lat="41.279074" lon="19.5144926"><ele>1.0</ele><time>2026-04-26T10:08:14.256Z</time></trkpt><trkpt lat="41.2788889" lon="19.5145518"><ele>2.0</ele><time>2026-04-26T10:08:15.256Z</time></trkpt><trkpt lat="41.2787065" lon="19.5146224"><ele>3.0</ele><time>2026-04-26T10:08:16.256Z</time></trkpt><trkpt lat="41.2785254" lon="19.5147034"><ele>4.0</ele><time>2026-04-26T10:08:17.255Z</time></trkpt><trkpt lat="41.2783459" lon="19.5147917"><ele>4.0</ele><time>2026-04-26T10:08:18.255Z</time></trkpt><trkpt lat="41.2781685" lon="19.5148889"><ele>4.0</ele><time>2026-04-26T10:08:19.256Z</time></trkpt><trkpt lat="41.2779924" lon="19.5149909"><ele>4.0</ele><time>2026-04-26T10:08:20.255Z</time></trkpt><trkpt lat="41.2778166" lon="19.5150942"><ele>3.333333333333333</ele><time>2026-04-26T10:08:21.255Z</time></trkpt><trkpt lat="41.2776411" lon="19.5151969"><ele>2.6666666666666665</ele><time>2026-04-26T10:08:22.255Z</time></trkpt><trkpt lat="41.2774658" lon="19.5152994"><ele>2.0</ele><time>2026-04-26T10:08:23.256Z</time></trkpt><trkpt lat="41.2772923" lon="19.5154035"><ele>2.0</ele><time>2026-04-26T10:08:24.256Z</time></trkpt><trkpt lat="41.2771195" lon="19.5155072"><ele>2.0</ele><time>2026-04-26T10:08:25.255Z</time></trkpt><trkpt lat="41.2769482" lon="19.5156126"><ele>2.0</ele><time>2026-04-26T10:08:26.256Z</time></trkpt><trkpt lat="41.2767788" lon="19.5157198"><ele>2.0</ele><time>2026-04-26T10:08:27.256Z</time></trkpt><trkpt lat="41.2766091" lon="19.5158266"><ele>2.0</ele><time>2026-04-26T10:08:28.256Z</time></trkpt><trkpt lat="41.2764393" lon="19.5159359"><ele>2.0</ele><time>2026-04-26T10:08:29.255Z</time></trkpt><trkpt lat="41.2762676" lon="19.5160384"><ele>1.6666666666666665</ele><time>2026-04-26T10:08:30.255Z</time></trkpt><trkpt lat="41.2760933" lon="19.5161391"><ele>1.3333333333333333</ele><time>2026-04-26T10:08:31.256Z</time></trkpt><trkpt lat="41.2759165" lon="19.5162378"><ele>1.0</ele><time>2026-04-26T10:08:32.256Z</time></trkpt><trkpt lat="41.2757382" lon="19.5163321"><ele>2.0</ele><time>2026-04-26T10:08:33.256Z</time></trkpt><trkpt lat="41.2755562" lon="19.5164183"><ele>3.0</ele><time>2026-04-26T10:08:34.255Z</time></trkpt><trkpt lat="41.2753735" lon="19.5164981"><ele>4.0</ele><time>2026-04-26T10:08:35.256Z</time></trkpt><trkpt lat="41.2751888" lon="19.51657"><ele>4.0</ele><time>2026-04-26T10:08:36.256Z</time></trkpt><trkpt lat="41.2750032" lon="19.5166337"><ele>4.0</ele><time>2026-04-26T10:08:37.256Z</time></trkpt><trkpt lat="41.2748151" lon="19.5166912"><ele>4.0</ele><time>2026-04-26T10:08:38.256Z</time></trkpt><trkpt lat="41.2746286" lon="19.5167452"><ele>3.333333333333333</ele><time>2026-04-26T10:08:39.255Z</time></trkpt><trkpt lat="41.274442" lon="19.5167986"><ele>2.6666666666666665</ele><time>2026-04-26T10:08:40.255Z</time></trkpt><trkpt lat="41.2742565" lon="19.5168511"><ele>2.0</ele><time>2026-04-26T10:08:41.255Z</time></trkpt><trkpt lat="41.2740728" lon="19.5169027"><ele>1.6666666666666665</ele><time>2026-04-26T10:08:42.255Z</time></trkpt><trkpt lat="41.2738881" lon="19.5169527"><ele>1.3333333333333333</ele><time>2026-04-26T10:08:43.256Z</time></trkpt><trkpt lat="41.2737038" lon="19.5170044"><ele>1.0</ele><time>2026-04-26T10:08:44.255Z</time></trkpt><trkpt lat="41.2735226" lon="19.5170531"><ele>1.3333333333333333</ele><time>2026-04-26T10:08:45.255Z</time></trkpt><trkpt lat="41.2733437" lon="19.5171088"><ele>1.6666666666666665</ele><time>2026-04-26T10:08:46.255Z</time></trkpt><trkpt lat="41.2731648" lon="19.5171648"><ele>2.0</ele><time>2026-04-26T10:08:47.256Z</time></trkpt><trkpt lat="41.2729889" lon="19.5172304"><ele>2.0</ele><time>2026-04-26T10:08:48.255Z</time></trkpt><trkpt lat="41.272811" lon="19.5173028"><ele>2.0</ele><time>2026-04-26T10:08:49.256Z</time></trkpt><trkpt lat="41.2726355" lon="19.5173874"><ele>2.0</ele><time>2026-04-26T10:08:50.255Z</time></trkpt><trkpt lat="41.2724609" lon="19.5174783"><ele>2.0</ele><time>2026-04-26T10:08:51.255Z</time></trkpt><trkpt lat="41.2722869" lon="19.5175739"><ele>2.0</ele><time>2026-04-26T10:08:52.255Z</time></trkpt><trkpt lat="41.2721163" lon="19.517679"><ele>2.0</ele><time>2026-04-26T10:08:53.256Z</time></trkpt><trkpt lat="41.2719486" lon="19.5177918"><ele>2.333333333333333</ele><time>2026-04-26T10:08:54.255Z</time></trkpt><trkpt lat="41.2717842" lon="19.517911"><ele>2.6666666666666665</ele><time>2026-04-26T10:08:55.255Z</time></trkpt><trkpt lat="41.2716231" lon="19.5180366"><ele>3.0</ele><time>2026-04-26T10:08:56.255Z</time></trkpt><trkpt lat="41.2714701" lon="19.5181628"><ele>3.333333333333333</ele><time>2026-04-26T10:08:57.255Z</time></trkpt><trkpt lat="41.2713263" lon="19.518286"><ele>3.6666666666666665</ele><time>2026-04-26T10:08:58.255Z</time></trkpt><trkpt lat="41.27119" lon="19.5184068"><ele>4.0</ele><time>2026-04-26T10:08:59.256Z</time></trkpt><trkpt lat="41.2710605" lon="19.5185234"><ele>4.0</ele><time>2026-04-26T10:09:00.256Z</time></trkpt><trkpt lat="41.2709368" lon="19.5186364"><ele>4.0</ele><time>2026-04-26T10:09:01.255Z</time></trkpt><trkpt lat="41.2708165" lon="19.5187474"><ele>4.0</ele><time>2026-04-26T10:09:02.255Z</time></trkpt><trkpt lat="41.2706965" lon="19.5188544"><ele>4.0</ele><time>2026-04-26T10:09:03.256Z</time></trkpt><trkpt lat="41.2705776" lon="19.5189614"><ele>4.25</ele><time>2026-04-26T10:09:04.256Z</time></trkpt><trkpt lat="41.2704579" lon="19.5190674"><ele>4.5</ele><time>2026-04-26T10:09:05.255Z</time></trkpt><trkpt lat="41.2703392" lon="19.5191754"><ele>4.75</ele><time>2026-04-26T10:09:06.256Z</time></trkpt><trkpt lat="41.2702187" lon="19.5192832"><ele>5.0</ele><time>2026-04-26T10:09:07.255Z</time></trkpt><trkpt lat="41.2700982" lon="19.5193925"><ele>5.0</ele><time>2026-04-26T10:09:08.255Z</time></trkpt><trkpt lat="41.2699751" lon="19.5194987"><ele>5.0</ele><time>2026-04-26T10:09:09.256Z</time></trkpt><trkpt lat="41.2698509" lon="19.5196078"><ele>5.0</ele><time>2026-04-26T10:09:10.255Z</time></trkpt><trkpt lat="41.2697231" lon="19.5197175"><ele>5.0</ele><time>2026-04-26T10:09:11.255Z</time></trkpt><trkpt lat="41.2695926" lon="19.5198289"><ele>4.333333333333334</ele><time>2026-04-26T10:09:12.256Z</time></trkpt><trkpt lat="41.26946" lon="19.5199417"><ele>3.666666666666667</ele><time>2026-04-26T10:09:13.256Z</time></trkpt><trkpt lat="41.2693251" lon="19.5200567"><ele>3.0</ele><time>2026-04-26T10:09:14.256Z</time></trkpt><trkpt lat="41.2691878" lon="19.5201721"><ele>3.0</ele><time>2026-04-26T10:09:15.256Z</time></trkpt><trkpt lat="41.2690466" lon="19.5202876"><ele>3.0</ele><time>2026-04-26T10:09:16.256Z</time></trkpt><trkpt lat="41.2689014" lon="19.5204035"><ele>3.0</ele><time>2026-04-26T10:09:17.256Z</time></trkpt><trkpt lat="41.2687528" lon="19.5205217"><ele>3.0</ele><time>2026-04-26T10:09:18.255Z</time></trkpt><trkpt lat="41.2685995" lon="19.5206452"><ele>3.0</ele><time>2026-04-26T10:09:19.255Z</time></trkpt><trkpt lat="41.2684433" lon="19.5207712"><ele>3.0</ele><time>2026-04-26T10:09:20.255Z</time></trkpt><trkpt lat="41.268285" lon="19.5209003"><ele>3.0</ele><time>2026-04-26T10:09:21.255Z</time></trkpt><trkpt lat="41.2681257" lon="19.5210305"><ele>3.0</ele><time>2026-04-26T10:09:22.256Z</time></trkpt><trkpt lat="41.2679645" lon="19.521159"><ele>3.0</ele><time>2026-04-26T10:09:23.256Z</time></trkpt><trkpt lat="41.2678014" lon="19.5212882"><ele>2.6666666666666665</ele><time>2026-04-26T10:09:24.255Z</time></trkpt><trkpt lat="41.2676368" lon="19.5214204"><ele>2.333333333333333</ele><time>2026-04-26T10:09:25.256Z</time></trkpt><trkpt lat="41.2674711" lon="19.5215535"><ele>2.0</ele><time>2026-04-26T10:09:26.256Z</time></trkpt><trkpt lat="41.2673058" lon="19.5216868"><ele>2.0</ele><time>2026-04-26T10:09:27.255Z</time></trkpt><trkpt lat="41.267142" lon="19.5218164"><ele>2.0</ele><time>2026-04-26T10:09:28.256Z</time></trkpt><trkpt lat="41.2669784" lon="19.5219485"><ele>2.0</ele><time>2026-04-26T10:09:29.256Z</time></trkpt><trkpt lat="41.2668128" lon="19.5220771"><ele>2.0</ele><time>2026-04-26T10:09:30.256Z</time></trkpt><trkpt lat="41.2666479" lon="19.5222104"><ele>2.0</ele><time>2026-04-26T10:09:31.255Z</time></trkpt><trkpt lat="41.2664838" lon="19.5223455"><ele>2.0</ele><time>2026-04-26T10:09:32.255Z</time></trkpt><trkpt lat="41.2663199" lon="19.522481"><ele>1.3333333333333333</ele><time>2026-04-26T10:09:33.255Z</time></trkpt><trkpt lat="41.2661558" lon="19.5226177"><ele>0.6666666666666666</ele><time>2026-04-26T10:09:34.256Z</time></trkpt><trkpt lat="41.2659899" lon="19.5227538"><ele>0.0</ele><time>2026-04-26T10:09:35.256Z</time></trkpt><trkpt lat="41.2658237" lon="19.5228894"><ele>0.6666666666666666</ele><time>2026-04-26T10:09:36.256Z</time></trkpt><trkpt lat="41.265659" lon="19.5230248"><ele>1.3333333333333333</ele><time>2026-04-26T10:09:37.255Z</time></trkpt><trkpt lat="41.2654947" lon="19.5231557"><ele>2.0</ele><time>2026-04-26T10:09:38.256Z</time></trkpt><trkpt lat="41.2653287" lon="19.5232821"><ele>2.0</ele><time>2026-04-26T10:09:39.255Z</time></trkpt><trkpt lat="41.2651599" lon="19.5234041"><ele>2.0</ele><time>2026-04-26T10:09:40.256Z</time></trkpt><trkpt lat="41.2649902" lon="19.5235313"><ele>2.0</ele><time>2026-04-26T10:09:41.256Z</time></trkpt><trkpt lat="41.2648163" lon="19.5236505"><ele>3.0</ele><time>2026-04-26T10:09:42.255Z</time></trkpt><trkpt lat="41.2646411" lon="19.5237679"><ele>4.0</ele><time>2026-04-26T10:09:43.255Z</time></trkpt><trkpt lat="41.2644641" lon="19.5238804"><ele>5.0</ele><time>2026-04-26T10:09:44.255Z</time></trkpt><trkpt lat="41.2642839" lon="19.5239846"><ele>5.0</ele><time>2026-04-26T10:09:45.256Z</time></trkpt><trkpt lat="41.264102" lon="19.5240761"><ele>5.0</ele><time>2026-04-26T10:09:46.256Z</time></trkpt><trkpt lat="41.2639178" lon="19.5241571"><ele>5.0</ele><time>2026-04-26T10:09:47.255Z</time></trkpt><trkpt lat="41.2637339" lon="19.5242333"><ele>4.333333333333334</ele><time>2026-04-26T10:09:48.255Z</time></trkpt><trkpt lat="41.2635489" lon="19.5243001"><ele>3.666666666666667</ele><time>2026-04-26T10:09:49.256Z</time></trkpt><trkpt lat="41.2633659" lon="19.5243659"><ele>3.0</ele><time>2026-04-26T10:09:50.255Z</time></trkpt><trkpt lat="41.2631817" lon="19.5244318"><ele>3.666666666666667</ele><time>2026-04-26T10:09:51.256Z</time></trkpt><trkpt lat="41.2629952" lon="19.5244987"><ele>4.333333333333334</ele><time>2026-04-26T10:09:52.256Z</time></trkpt><trkpt lat="41.2628068" lon="19.524562"><ele>5.0</ele><time>2026-04-26T10:09:53.255Z</time></trkpt><trkpt lat="41.2626178" lon="19.5246209"><ele>5.0</ele><time>2026-04-26T10:09:54.256Z</time></trkpt><trkpt lat="41.2624305" lon="19.5246771"><ele>5.0</ele><time>2026-04-26T10:09:55.256Z</time></trkpt><trkpt lat="41.2622434" lon="19.5247338"><ele>5.0</ele><time>2026-04-26T10:09:56.255Z</time></trkpt><trkpt lat="41.2620557" lon="19.5247962"><ele>3.666666666666667</ele><time>2026-04-26T10:09:57.255Z</time></trkpt><trkpt lat="41.2618639" lon="19.5248568"><ele>2.3333333333333335</ele><time>2026-04-26T10:09:58.255Z</time></trkpt><trkpt lat="41.261667" lon="19.5249204"><ele>1.0</ele><time>2026-04-26T10:09:59.256Z</time></trkpt><trkpt lat="41.2614643" lon="19.5249869"><ele>1.0</ele><time>2026-04-26T10:10:00.255Z</time></trkpt><trkpt lat="41.2612594" lon="19.5250524"><ele>1.0</ele><time>2026-04-26T10:10:01.256Z</time></trkpt><trkpt lat="41.2610513" lon="19.5251189"><ele>1.0</ele><time>2026-04-26T10:10:02.256Z</time></trkpt><trkpt lat="41.2608397" lon="19.5251899"><ele>1.0</ele><time>2026-04-26T10:10:03.256Z</time></trkpt><trkpt lat="41.260627" lon="19.5252644"><ele>1.0</ele><time>2026-04-26T10:10:04.255Z</time></trkpt><trkpt lat="41.2604154" lon="19.5253376"><ele>1.0</ele><time>2026-04-26T10:10:05.255Z</time></trkpt><trkpt lat="41.260205" lon="19.5254064"><ele>1.3333333333333333</ele><time>2026-04-26T10:10:06.256Z</time></trkpt><trkpt lat="41.2599967" lon="19.5254758"><ele>1.6666666666666665</ele><time>2026-04-26T10:10:07.256Z</time></trkpt><trkpt lat="41.2597866" lon="19.5255387"><ele>2.0</ele><time>2026-04-26T10:10:08.256Z</time></trkpt><trkpt lat="41.2595748" lon="19.5255988"><ele>2.0</ele><time>2026-04-26T10:10:09.256Z</time></trkpt><trkpt lat="41.2593626" lon="19.5256592"><ele>2.0</ele><time>2026-04-26T10:10:10.255Z</time></trkpt><trkpt lat="41.2591506" lon="19.5257199"><ele>2.0</ele><time>2026-04-26T10:10:11.255Z</time></trkpt><trkpt lat="41.2589423" lon="19.5257837"><ele>2.0</ele><time>2026-04-26T10:10:12.255Z</time></trkpt><trkpt lat="41.2587369" lon="19.5258478"><ele>2.0</ele><time>2026-04-26T10:10:13.256Z</time></trkpt><trkpt lat="41.2585349" lon="19.5259123"><ele>2.0</ele><time>2026-04-26T10:10:14.255Z</time></trkpt><trkpt lat="41.2583367" lon="19.5259768"><ele>2.0</ele><time>2026-04-26T10:10:15.256Z</time></trkpt><trkpt lat="41.2581409" lon="19.5260396"><ele>2.0</ele><time>2026-04-26T10:10:16.256Z</time></trkpt><trkpt lat="41.2579472" lon="19.5260988"><ele>2.0</ele><time>2026-04-26T10:10:17.255Z</time></trkpt><trkpt lat="41.2577551" lon="19.5261522"><ele>1.6666666666666665</ele><time>2026-04-26T10:10:18.256Z</time></trkpt><trkpt lat="41.2575655" lon="19.5262019"><ele>1.3333333333333333</ele><time>2026-04-26T10:10:19.256Z</time></trkpt><trkpt lat="41.2573773" lon="19.5262477"><ele>1.0</ele><time>2026-04-26T10:10:20.256Z</time></trkpt><trkpt lat="41.2571909" lon="19.5262916"><ele>2.6666666666666665</ele><time>2026-04-26T10:10:21.256Z</time></trkpt><trkpt lat="41.2570028" lon="19.5263289"><ele>4.333333333333333</ele><time>2026-04-26T10:10:22.256Z</time></trkpt><trkpt lat="41.256814" lon="19.5263626"><ele>6.0</ele><time>2026-04-26T10:10:23.256Z</time></trkpt><trkpt lat="41.2566242" lon="19.5263875"><ele>5.0</ele><time>2026-04-26T10:10:24.256Z</time></trkpt><trkpt lat="41.2564335" lon="19.5264057"><ele>4.0</ele><time>2026-04-26T10:10:25.256Z</time></trkpt><trkpt lat="41.2562412" lon="19.5264215"><ele>3.0</ele><time>2026-04-26T10:10:26.256Z</time></trkpt><trkpt lat="41.2560471" lon="19.5264344"><ele>3.0</ele><time>2026-04-26T10:10:27.256Z</time></trkpt><trkpt lat="41.2558516" lon="19.5264403"><ele>3.0</ele><time>2026-04-26T10:10:28.256Z</time></trkpt><trkpt lat="41.2556545" lon="19.5264387"><ele>3.0</ele><time>2026-04-26T10:10:29.256Z</time></trkpt><trkpt lat="41.2554544" lon="19.5264306"><ele>2.6666666666666665</ele><time>2026-04-26T10:10:30.255Z</time></trkpt><trkpt lat="41.2552493" lon="19.5264187"><ele>2.333333333333333</ele><time>2026-04-26T10:10:31.255Z</time></trkpt><trkpt lat="41.255039" lon="19.5264017"><ele>2.0</ele><time>2026-04-26T10:10:32.256Z</time></trkpt><trkpt lat="41.2548245" lon="19.5263808"><ele>2.333333333333333</ele><time>2026-04-26T10:10:33.256Z</time></trkpt><trkpt lat="41.2546042" lon="19.5263538"><ele>2.6666666666666665</ele><time>2026-04-26T10:10:34.256Z</time></trkpt><trkpt lat="41.2543801" lon="19.5263195"><ele>3.0</ele><time>2026-04-26T10:10:35.256Z</time></trkpt><trkpt lat="41.2541585" lon="19.5262852"><ele>3.0</ele><time>2026-04-26T10:10:36.256Z</time></trkpt><trkpt lat="41.2539373" lon="19.5262532"><ele>3.0</ele><time>2026-04-26T10:10:37.255Z</time></trkpt><trkpt lat="41.2537176" lon="19.5262242"><ele>3.0</ele><time>2026-04-26T10:10:38.256Z</time></trkpt><trkpt lat="41.2535007" lon="19.5261971"><ele>3.0</ele><time>2026-04-26T10:10:39.256Z</time></trkpt><trkpt lat="41.253286" lon="19.5261726"><ele>3.0</ele><time>2026-04-26T10:10:40.256Z</time></trkpt><trkpt lat="41.2530723" lon="19.526149"><ele>3.0</ele><time>2026-04-26T10:10:41.255Z</time></trkpt><trkpt lat="41.2528601" lon="19.5261228"><ele>3.0</ele><time>2026-04-26T10:10:42.255Z</time></trkpt><trkpt lat="41.2526491" lon="19.5260992"><ele>3.0</ele><time>2026-04-26T10:10:43.256Z</time></trkpt><trkpt lat="41.2524376" lon="19.5260751"><ele>3.0</ele><time>2026-04-26T10:10:44.256Z</time></trkpt><trkpt lat="41.2522269" lon="19.5260518"><ele>2.3333333333333335</ele><time>2026-04-26T10:10:45.256Z</time></trkpt><trkpt lat="41.2520188" lon="19.5260277"><ele>1.6666666666666665</ele><time>2026-04-26T10:10:46.256Z</time></trkpt><trkpt lat="41.2518112" lon="19.5260027"><ele>1.0</ele><time>2026-04-26T10:10:47.256Z</time></trkpt><trkpt lat="41.2516048" lon="19.5259793"><ele>1.0</ele><time>2026-04-26T10:10:48.255Z</time></trkpt><trkpt lat="41.2513986" lon="19.5259574"><ele>1.0</ele><time>2026-04-26T10:10:49.255Z</time></trkpt><trkpt lat="41.251193" lon="19.5259344"><ele>1.0</ele><time>2026-04-26T10:10:50.256Z</time></trkpt><trkpt lat="41.2509874" lon="19.5259093"><ele>1.0</ele><time>2026-04-26T10:10:51.256Z</time></trkpt><trkpt lat="41.2507807" lon="19.525884"><ele>1.0</ele><time>2026-04-26T10:10:52.255Z</time></trkpt><trkpt lat="41.2505708" lon="19.5258586"><ele>1.0</ele><time>2026-04-26T10:10:53.255Z</time></trkpt><trkpt lat="41.2503606" lon="19.5258342"><ele>1.3333333333333333</ele><time>2026-04-26T10:10:54.255Z</time></trkpt><trkpt lat="41.2501498" lon="19.5258116"><ele>1.6666666666666665</ele><time>2026-04-26T10:10:55.256Z</time></trkpt><trkpt lat="41.2499391" lon="19.5257892"><ele>2.0</ele><time>2026-04-26T10:10:56.255Z</time></trkpt><trkpt lat="41.2497289" lon="19.5257662"><ele>2.0</ele><time>2026-04-26T10:10:57.256Z</time></trkpt><trkpt lat="41.2495206" lon="19.5257423"><ele>2.0</ele><time>2026-04-26T10:10:58.255Z</time></trkpt><trkpt lat="41.2493094" lon="19.5257166"><ele>2.0</ele><time>2026-04-26T10:10:59.256Z</time></trkpt><trkpt lat="41.2490969" lon="19.5256925"><ele>1.3333333333333333</ele><time>2026-04-26T10:11:00.255Z</time></trkpt><trkpt lat="41.2488866" lon="19.5256706"><ele>0.6666666666666666</ele><time>2026-04-26T10:11:01.256Z</time></trkpt><trkpt lat="41.2486728" lon="19.5256465"><ele>0.0</ele><time>2026-04-26T10:11:02.256Z</time></trkpt><trkpt lat="41.2484599" lon="19.525622"><ele>0.0</ele><time>2026-04-26T10:11:03.256Z</time></trkpt><trkpt lat="41.2482477" lon="19.5255987"><ele>0.0</ele><time>2026-04-26T10:11:04.256Z</time></trkpt><trkpt lat="41.2480373" lon="19.5255728"><ele>0.0</ele><time>2026-04-26T10:11:05.256Z</time></trkpt><trkpt lat="41.2478276" lon="19.5255482"><ele>0.3333333333333333</ele><time>2026-04-26T10:11:06.256Z</time></trkpt><trkpt lat="41.2476178" lon="19.5255215"><ele>0.6666666666666666</ele><time>2026-04-26T10:11:07.256Z</time></trkpt><trkpt lat="41.2474089" lon="19.525494"><ele>1.0</ele><time>2026-04-26T10:11:08.256Z</time></trkpt><trkpt lat="41.2471969" lon="19.5254636"><ele>1.0</ele><time>2026-04-26T10:11:09.256Z</time></trkpt><trkpt lat="41.2469819" lon="19.5254363"><ele>1.0</ele><time>2026-04-26T10:11:10.255Z</time></trkpt><trkpt lat="41.2467626" lon="19.5254084"><ele>1.0</ele><time>2026-04-26T10:11:11.256Z</time></trkpt><trkpt lat="41.2465419" lon="19.5253809"><ele>0.6666666666666666</ele><time>2026-04-26T10:11:12.255Z</time></trkpt><trkpt lat="41.2463194" lon="19.5253523"><ele>0.3333333333333333</ele><time>2026-04-26T10:11:13.256Z</time></trkpt><trkpt lat="41.2460963" lon="19.5253246"><ele>0.0</ele><time>2026-04-26T10:11:14.256Z</time></trkpt><trkpt lat="41.2458738" lon="19.5252962"><ele>0.0</ele><time>2026-04-26T10:11:15.256Z</time></trkpt><trkpt lat="41.2456516" lon="19.5252678"><ele>0.0</ele><time>2026-04-26T10:11:16.255Z</time></trkpt><trkpt lat="41.2454302" lon="19.5252401"><ele>0.0</ele><time>2026-04-26T10:11:17.255Z</time></trkpt><trkpt lat="41.2452071" lon="19.5252112"><ele>-0.5</ele><time>2026-04-26T10:11:18.256Z</time></trkpt><trkpt lat="41.2449808" lon="19.5251819"><ele>-1.0</ele><time>2026-04-26T10:11:19.256Z</time></trkpt><trkpt lat="41.2447535" lon="19.5251525"><ele>-1.0</ele><time>2026-04-26T10:11:20.255Z</time></trkpt><trkpt lat="41.2445263" lon="19.5251236"><ele>-1.0</ele><time>2026-04-26T10:11:21.256Z</time></trkpt><trkpt lat="41.2442989" lon="19.5250946"><ele>-1.0</ele><time>2026-04-26T10:11:22.255Z</time></trkpt><trkpt lat="41.2440716" lon="19.5250654"><ele>-1.0</ele><time>2026-04-26T10:11:23.255Z</time></trkpt><trkpt lat="41.2438443" lon="19.5250366"><ele>-0.5</ele><time>2026-04-26T10:11:24.255Z</time></trkpt><trkpt lat="41.2436182" lon="19.5250079"><ele>0.0</ele><time>2026-04-26T10:11:25.255Z</time></trkpt><trkpt lat="41.2433935" lon="19.5249821"><ele>0.0</ele><time>2026-04-26T10:11:26.256Z</time></trkpt><trkpt lat="41.2431684" lon="19.5249547"><ele>0.0</ele><time>2026-04-26T10:11:27.255Z</time></trkpt><trkpt lat="41.2429439" lon="19.5249292"><ele>0.0</ele><time>2026-04-26T10:11:28.255Z</time></trkpt><trkpt lat="41.2427204" lon="19.5249033"><ele>0.0</ele><time>2026-04-26T10:11:29.255Z</time></trkpt><trkpt lat="41.2425003" lon="19.5248773"><ele>0.0</ele><time>2026-04-26T10:11:30.256Z</time></trkpt><trkpt lat="41.2422796" lon="19.5248499"><ele>0.0</ele><time>2026-04-26T10:11:31.256Z</time></trkpt><trkpt lat="41.2420611" lon="19.5248215"><ele>0.0</ele><time>2026-04-26T10:11:32.256Z</time></trkpt><trkpt lat="41.2418419" lon="19.5247916"><ele>0.0</ele><time>2026-04-26T10:11:33.256Z</time></trkpt><trkpt lat="41.241623" lon="19.5247627"><ele>-0.3333333333333333</ele><time>2026-04-26T10:11:34.256Z</time></trkpt><trkpt lat="41.2414057" lon="19.5247348"><ele>-0.6666666666666666</ele><time>2026-04-26T10:11:35.256Z</time></trkpt><trkpt lat="41.2411895" lon="19.5247073"><ele>-1.0</ele><time>2026-04-26T10:11:36.255Z</time></trkpt><trkpt lat="41.2409727" lon="19.52468"><ele>-1.0</ele><time>2026-04-26T10:11:37.256Z</time></trkpt><trkpt lat="41.2407561" lon="19.5246522"><ele>-1.0</ele><time>2026-04-26T10:11:38.256Z</time></trkpt><trkpt lat="41.2405364" lon="19.5246244"><ele>-1.0</ele><time>2026-04-26T10:11:39.255Z</time></trkpt><trkpt lat="41.2403178" lon="19.524598"><ele>-1.0</ele><time>2026-04-26T10:11:40.256Z</time></trkpt><trkpt lat="41.2400984" lon="19.5245703"><ele>-1.0</ele><time>2026-04-26T10:11:41.255Z</time></trkpt><trkpt lat="41.2398776" lon="19.5245411"><ele>-1.0</ele><time>2026-04-26T10:11:42.255Z</time></trkpt><trkpt lat="41.2396579" lon="19.5245132"><ele>-1.0</ele><time>2026-04-26T10:11:43.256Z</time></trkpt><trkpt lat="41.2394358" lon="19.5244848"><ele>-1.0</ele><time>2026-04-26T10:11:44.256Z</time></trkpt><trkpt lat="41.2392132" lon="19.5244566"><ele>-1.0</ele><time>2026-04-26T10:11:45.255Z</time></trkpt><trkpt lat="41.2389907" lon="19.5244275"><ele>-0.3333333333333333</ele><time>2026-04-26T10:11:46.255Z</time></trkpt><trkpt lat="41.2387674" lon="19.5243991"><ele>0.3333333333333333</ele><time>2026-04-26T10:11:47.256Z</time></trkpt><trkpt lat="41.2385456" lon="19.524371"><ele>1.0</ele><time>2026-04-26T10:11:48.256Z</time></trkpt><trkpt lat="41.2383241" lon="19.5243432"><ele>1.0</ele><time>2026-04-26T10:11:49.256Z</time></trkpt><trkpt lat="41.2381026" lon="19.5243159"><ele>1.0</ele><time>2026-04-26T10:11:50.256Z</time></trkpt><trkpt lat="41.237884" lon="19.5242876"><ele>1.0</ele><time>2026-04-26T10:11:51.255Z</time></trkpt><trkpt lat="41.2376664" lon="19.5242583"><ele>1.0</ele><time>2026-04-26T10:11:52.255Z</time></trkpt><trkpt lat="41.2374482" lon="19.5242301"><ele>1.0</ele><time>2026-04-26T10:11:53.255Z</time></trkpt><trkpt lat="41.237232" lon="19.5242034"><ele>1.0</ele><time>2026-04-26T10:11:54.256Z</time></trkpt><trkpt lat="41.2370167" lon="19.5241761"><ele>1.3333333333333333</ele><time>2026-04-26T10:11:55.255Z</time></trkpt><trkpt lat="41.2368027" lon="19.5241484"><ele>1.6666666666666665</ele><time>2026-04-26T10:11:56.256Z</time></trkpt><trkpt lat="41.2365908" lon="19.5241198"><ele>2.0</ele><time>2026-04-26T10:11:57.255Z</time></trkpt><trkpt lat="41.2363809" lon="19.5240916"><ele>2.0</ele><time>2026-04-26T10:11:58.256Z</time></trkpt><trkpt lat="41.2361747" lon="19.5240652"><ele>2.0</ele><time>2026-04-26T10:11:59.256Z</time></trkpt><trkpt lat="41.2359742" lon="19.5240424"><ele>2.0</ele><time>2026-04-26T10:12:00.255Z</time></trkpt><trkpt lat="41.2357733" lon="19.5240199"><ele>3.0</ele><time>2026-04-26T10:12:01.256Z</time></trkpt><trkpt lat="41.2355745" lon="19.5239961"><ele>4.0</ele><time>2026-04-26T10:12:02.255Z</time></trkpt><trkpt lat="41.2353771" lon="19.523971"><ele>5.0</ele><time>2026-04-26T10:12:03.255Z</time></trkpt><trkpt lat="41.2351823" lon="19.5239453"><ele>5.0</ele><time>2026-04-26T10:12:04.255Z</time></trkpt><trkpt lat="41.2349885" lon="19.5239209"><ele>5.0</ele><time>2026-04-26T10:12:05.255Z</time></trkpt><trkpt lat="41.2347953" lon="19.5238991"><ele>5.0</ele><time>2026-04-26T10:12:06.256Z</time></trkpt><trkpt lat="41.2346009" lon="19.5238803"><ele>6.0</ele><time>2026-04-26T10:12:07.255Z</time></trkpt><trkpt lat="41.2344063" lon="19.5238688"><ele>7.0</ele><time>2026-04-26T10:12:08.256Z</time></trkpt><trkpt lat="41.2342084" lon="19.5238623"><ele>8.0</ele><time>2026-04-26T10:12:09.255Z</time></trkpt><trkpt lat="41.2340099" lon="19.5238601"><ele>6.666666666666666</ele><time>2026-04-26T10:12:10.256Z</time></trkpt><trkpt lat="41.2338115" lon="19.5238608"><ele>5.333333333333333</ele><time>2026-04-26T10:12:11.255Z</time></trkpt><trkpt lat="41.2336134" lon="19.5238651"><ele>4.0</ele><time>2026-04-26T10:12:12.256Z</time></trkpt><trkpt lat="41.2334187" lon="19.5238751"><ele>4.0</ele><time>2026-04-26T10:12:13.256Z</time></trkpt><trkpt lat="41.2332268" lon="19.5238944"><ele>4.0</ele><time>2026-04-26T10:12:14.256Z</time></trkpt><trkpt lat="41.2330365" lon="19.5239216"><ele>4.0</ele><time>2026-04-26T10:12:15.255Z</time></trkpt><trkpt lat="41.232847" lon="19.5239516"><ele>3.6666666666666665</ele><time>2026-04-26T10:12:16.255Z</time></trkpt><trkpt lat="41.2326596" lon="19.5239826"><ele>3.333333333333333</ele><time>2026-04-26T10:12:17.255Z</time></trkpt><trkpt lat="41.2324725" lon="19.5240186"><ele>3.0</ele><time>2026-04-26T10:12:18.255Z</time></trkpt><trkpt lat="41.232279" lon="19.5240633"><ele>3.0</ele><time>2026-04-26T10:12:19.255Z</time></trkpt><trkpt lat="41.2320762" lon="19.5241151"><ele>3.0</ele><time>2026-04-26T10:12:20.255Z</time></trkpt><trkpt lat="41.231864" lon="19.5241723"><ele>3.0</ele><time>2026-04-26T10:12:21.255Z</time></trkpt><trkpt lat="41.2316503" lon="19.5242331"><ele>2.5</ele><time>2026-04-26T10:12:22.255Z</time></trkpt><trkpt lat="41.2314316" lon="19.5242983"><ele>2.0</ele><time>2026-04-26T10:12:23.256Z</time></trkpt><trkpt lat="41.2312067" lon="19.5243703"><ele>2.0</ele><time>2026-04-26T10:12:24.255Z</time></trkpt><trkpt lat="41.2309773" lon="19.5244515"><ele>2.0</ele><time>2026-04-26T10:12:25.256Z</time></trkpt><trkpt lat="41.2307458" lon="19.5245406"><ele>4.0</ele><time>2026-04-26T10:12:26.255Z</time></trkpt><trkpt lat="41.2305117" lon="19.5246341"><ele>6.0</ele><time>2026-04-26T10:12:27.255Z</time></trkpt><trkpt lat="41.2302756" lon="19.5247321"><ele>6.0</ele><time>2026-04-26T10:12:28.256Z</time></trkpt><trkpt lat="41.2300382" lon="19.5248318"><ele>6.0</ele><time>2026-04-26T10:12:29.255Z</time></trkpt><trkpt lat="41.2297976" lon="19.5249288"><ele>2.5</ele><time>2026-04-26T10:12:30.256Z</time></trkpt><trkpt lat="41.2295563" lon="19.5250242"><ele>-1.0</ele><time>2026-04-26T10:12:31.255Z</time></trkpt><trkpt lat="41.2293174" lon="19.5251217"><ele>-1.0</ele><time>2026-04-26T10:12:32.256Z</time></trkpt><trkpt lat="41.2290822" lon="19.5252187"><ele>-1.0</ele><time>2026-04-26T10:12:33.256Z</time></trkpt><trkpt lat="41.2288517" lon="19.525315"><ele>0.0</ele><time>2026-04-26T10:12:34.255Z</time></trkpt><trkpt lat="41.2286248" lon="19.52541"><ele>1.0</ele><time>2026-04-26T10:12:35.256Z</time></trkpt><trkpt lat="41.2284019" lon="19.5255042"><ele>1.0</ele><time>2026-04-26T10:12:36.255Z</time></trkpt><trkpt lat="41.2281813" lon="19.525597"><ele>1.0</ele><time>2026-04-26T10:12:37.256Z</time></trkpt><trkpt lat="41.2279637" lon="19.5256878"><ele>1.0</ele><time>2026-04-26T10:12:38.256Z</time></trkpt><trkpt lat="41.2277478" lon="19.5257769"><ele>1.0</ele><time>2026-04-26T10:12:39.256Z</time></trkpt><trkpt lat="41.2275332" lon="19.5258656"><ele>1.0</ele><time>2026-04-26T10:12:40.256Z</time></trkpt><trkpt lat="41.2273199" lon="19.525953"><ele>1.0</ele><time>2026-04-26T10:12:41.255Z</time></trkpt><trkpt lat="41.2271068" lon="19.5260407"><ele>1.0</ele><time>2026-04-26T10:12:42.256Z</time></trkpt><trkpt lat="41.2268939" lon="19.5261289"><ele>1.3333333333333333</ele><time>2026-04-26T10:12:43.255Z</time></trkpt><trkpt lat="41.2266808" lon="19.526217"><ele>1.6666666666666665</ele><time>2026-04-26T10:12:44.255Z</time></trkpt><trkpt lat="41.2264671" lon="19.5263068"><ele>2.0</ele><time>2026-04-26T10:12:45.255Z</time></trkpt><trkpt lat="41.2262477" lon="19.5263999"><ele>2.0</ele><time>2026-04-26T10:12:46.255Z</time></trkpt><trkpt lat="41.2260252" lon="19.5264938"><ele>2.0</ele><time>2026-04-26T10:12:47.256Z</time></trkpt><trkpt lat="41.2257992" lon="19.5265871"><ele>1.5</ele><time>2026-04-26T10:12:48.255Z</time></trkpt><trkpt lat="41.2255702" lon="19.5266822"><ele>1.0</ele><time>2026-04-26T10:12:49.255Z</time></trkpt><trkpt lat="41.2253401" lon="19.5267787"><ele>1.0</ele><time>2026-04-26T10:12:50.256Z</time></trkpt><trkpt lat="41.2251071" lon="19.5268763"><ele>1.0</ele><time>2026-04-26T10:12:51.256Z</time></trkpt><trkpt lat="41.224874" lon="19.5269746"><ele>1.0</ele><time>2026-04-26T10:12:52.256Z</time></trkpt><trkpt lat="41.2246406" lon="19.5270727"><ele>1.0</ele><time>2026-04-26T10:12:53.255Z</time></trkpt><trkpt lat="41.2244064" lon="19.5271701"><ele>1.0</ele><time>2026-04-26T10:12:54.256Z</time></trkpt><trkpt lat="41.2241718" lon="19.5272659"><ele>1.0</ele><time>2026-04-26T10:12:55.256Z</time></trkpt><trkpt lat="41.2239386" lon="19.5273615"><ele>1.5</ele><time>2026-04-26T10:12:56.256Z</time></trkpt><trkpt lat="41.2237069" lon="19.5274579"><ele>2.0</ele><time>2026-04-26T10:12:57.255Z</time></trkpt><trkpt lat="41.2234754" lon="19.5275532"><ele>2.0</ele><time>2026-04-26T10:12:58.256Z</time></trkpt><trkpt lat="41.2232453" lon="19.5276485"><ele>2.0</ele><time>2026-04-26T10:12:59.255Z</time></trkpt><trkpt lat="41.2230164" lon="19.5277433"><ele>2.5</ele><time>2026-04-26T10:13:00.256Z</time></trkpt><trkpt lat="41.2227881" lon="19.5278365"><ele>3.0</ele><time>2026-04-26T10:13:01.256Z</time></trkpt><trkpt lat="41.2225619" lon="19.5279303"><ele>3.0</ele><time>2026-04-26T10:13:02.256Z</time></trkpt><trkpt lat="41.2223352" lon="19.5280239"><ele>3.0</ele><time>2026-04-26T10:13:03.255Z</time></trkpt><trkpt lat="41.22211" lon="19.5281177"><ele>3.0</ele><time>2026-04-26T10:13:04.255Z</time></trkpt><trkpt lat="41.2218857" lon="19.5282123"><ele>3.0</ele><time>2026-04-26T10:13:05.256Z</time></trkpt><trkpt lat="41.2216618" lon="19.5283067"><ele>3.0</ele><time>2026-04-26T10:13:06.255Z</time></trkpt><trkpt lat="41.22144" lon="19.5283993"><ele>3.0</ele><time>2026-04-26T10:13:07.256Z</time></trkpt><trkpt lat="41.2212187" lon="19.528492"><ele>3.0</ele><time>2026-04-26T10:13:08.255Z</time></trkpt><trkpt lat="41.2209968" lon="19.5285845"><ele>3.0</ele><time>2026-04-26T10:13:09.256Z</time></trkpt><trkpt lat="41.2207763" lon="19.5286761"><ele>3.0</ele><time>2026-04-26T10:13:10.255Z</time></trkpt><trkpt lat="41.2205562" lon="19.5287665"><ele>3.0</ele><time>2026-04-26T10:13:11.256Z</time></trkpt><trkpt lat="41.2203367" lon="19.5288565"><ele>3.0</ele><time>2026-04-26T10:13:12.255Z</time></trkpt><trkpt lat="41.2201175" lon="19.5289464"><ele>3.0</ele><time>2026-04-26T10:13:13.256Z</time></trkpt><trkpt lat="41.2198993" lon="19.5290374"><ele>3.5</ele><time>2026-04-26T10:13:14.256Z</time></trkpt><trkpt lat="41.2196838" lon="19.5291297"><ele>4.0</ele><time>2026-04-26T10:13:15.255Z</time></trkpt><trkpt lat="41.2194661" lon="19.5292202"><ele>4.0</ele><time>2026-04-26T10:13:16.256Z</time></trkpt><trkpt lat="41.2192483" lon="19.5293104"><ele>4.0</ele><time>2026-04-26T10:13:17.256Z</time></trkpt><trkpt lat="41.2190298" lon="19.5294021"><ele>4.0</ele><time>2026-04-26T10:13:18.255Z</time></trkpt><trkpt lat="41.218812" lon="19.5294925"><ele>4.0</ele><time>2026-04-26T10:13:19.255Z</time></trkpt><trkpt lat="41.2185943" lon="19.5295824"><ele>4.0</ele><time>2026-04-26T10:13:20.255Z</time></trkpt><trkpt lat="41.2183771" lon="19.5296726"><ele>4.0</ele><time>2026-04-26T10:13:21.256Z</time></trkpt><trkpt lat="41.2181605" lon="19.5297637"><ele>4.0</ele><time>2026-04-26T10:13:22.256Z</time></trkpt><trkpt lat="41.2179454" lon="19.5298544"><ele>4.0</ele><time>2026-04-26T10:13:23.256Z</time></trkpt><trkpt lat="41.2177303" lon="19.5299447"><ele>4.0</ele><time>2026-04-26T10:13:24.255Z</time></trkpt><trkpt lat="41.2175155" lon="19.5300348"><ele>4.0</ele><time>2026-04-26T10:13:25.256Z</time></trkpt><trkpt lat="41.2172996" lon="19.5301255"><ele>3.0</ele><time>2026-04-26T10:13:26.256Z</time></trkpt><trkpt lat="41.2170824" lon="19.5302166"><ele>2.0</ele><time>2026-04-26T10:13:27.255Z</time></trkpt><trkpt lat="41.2168664" lon="19.5303068"><ele>2.5</ele><time>2026-04-26T10:13:28.255Z</time></trkpt><trkpt lat="41.2166496" lon="19.5303972"><ele>3.0</ele><time>2026-04-26T10:13:29.256Z</time></trkpt><trkpt lat="41.2164321" lon="19.5304876"><ele>3.0</ele><time>2026-04-26T10:13:30.255Z</time></trkpt><trkpt lat="41.2162134" lon="19.5305786"><ele>3.0</ele><time>2026-04-26T10:13:31.255Z</time></trkpt><trkpt lat="41.215994" lon="19.5306703"><ele>3.0</ele><time>2026-04-26T10:13:32.256Z</time></trkpt><trkpt lat="41.2157741" lon="19.5307614"><ele>3.0</ele><time>2026-04-26T10:13:33.255Z</time></trkpt><trkpt lat="41.2155535" lon="19.5308518"><ele>3.5</ele><time>2026-04-26T10:13:34.255Z</time></trkpt><trkpt lat="41.2153327" lon="19.5309428"><ele>4.0</ele><time>2026-04-26T10:13:35.255Z</time></trkpt><trkpt lat="41.2151115" lon="19.5310338"><ele>4.0</ele><time>2026-04-26T10:13:36.256Z</time></trkpt><trkpt lat="41.21489" lon="19.5311252"><ele>4.0</ele><time>2026-04-26T10:13:37.256Z</time></trkpt><trkpt lat="41.2146695" lon="19.5312159"><ele>5.0</ele><time>2026-04-26T10:13:38.256Z</time></trkpt><trkpt lat="41.2144474" lon="19.5313049"><ele>6.0</ele><time>2026-04-26T10:13:39.256Z</time></trkpt><trkpt lat="41.2142264" lon="19.5313962"><ele>6.0</ele><time>2026-04-26T10:13:40.255Z</time></trkpt><trkpt lat="41.2140058" lon="19.5314879"><ele>6.0</ele><time>2026-04-26T10:13:41.256Z</time></trkpt><trkpt lat="41.2137854" lon="19.5315799"><ele>7.0</ele><time>2026-04-26T10:13:42.255Z</time></trkpt><trkpt lat="41.2135656" lon="19.5316713"><ele>8.0</ele><time>2026-04-26T10:13:43.256Z</time></trkpt><trkpt lat="41.2133448" lon="19.5317628"><ele>7.5</ele><time>2026-04-26T10:13:44.256Z</time></trkpt><trkpt lat="41.2131242" lon="19.5318542"><ele>7.0</ele><time>2026-04-26T10:13:45.255Z</time></trkpt><trkpt lat="41.212903" lon="19.5319464"><ele>7.0</ele><time>2026-04-26T10:13:46.255Z</time></trkpt><trkpt lat="41.2126823" lon="19.5320387"><ele>7.0</ele><time>2026-04-26T10:13:47.256Z</time></trkpt><trkpt lat="41.2124623" lon="19.5321312"><ele>7.5</ele><time>2026-04-26T10:13:48.255Z</time></trkpt><trkpt lat="41.2122431" lon="19.5322237"><ele>8.0</ele><time>2026-04-26T10:13:49.256Z</time></trkpt><trkpt lat="41.212022" lon="19.532316"><ele>8.0</ele><time>2026-04-26T10:13:50.256Z</time></trkpt><trkpt lat="41.2118025" lon="19.5324074"><ele>8.0</ele><time>2026-04-26T10:13:51.256Z</time></trkpt><trkpt lat="41.2115819" lon="19.5324972"><ele>6.0</ele><time>2026-04-26T10:13:52.256Z</time></trkpt><trkpt lat="41.2113617" lon="19.5325863"><ele>4.0</ele><time>2026-04-26T10:13:53.256Z</time></trkpt><trkpt lat="41.2111419" lon="19.5326767"><ele>4.0</ele><time>2026-04-26T10:13:54.255Z</time></trkpt><trkpt lat="41.2109217" lon="19.5327677"><ele>4.0</ele><time>2026-04-26T10:13:55.256Z</time></trkpt><trkpt lat="41.2107009" lon="19.5328591"><ele>5.5</ele><time>2026-04-26T10:13:56.256Z</time></trkpt><trkpt lat="41.2104802" lon="19.5329511"><ele>7.0</ele><time>2026-04-26T10:13:57.255Z</time></trkpt><trkpt lat="41.2102594" lon="19.5330428"><ele>7.0</ele><time>2026-04-26T10:13:58.256Z</time></trkpt><trkpt lat="41.210039" lon="19.5331347"><ele>7.0</ele><time>2026-04-26T10:13:59.255Z</time></trkpt><trkpt lat="41.2098186" lon="19.5332268"><ele>7.5</ele><time>2026-04-26T10:14:00.256Z</time></trkpt><trkpt lat="41.2095974" lon="19.5333172"><ele>8.0</ele><time>2026-04-26T10:14:01.256Z</time></trkpt><trkpt lat="41.2093768" lon="19.5334072"><ele>8.0</ele><time>2026-04-26T10:14:02.256Z</time></trkpt><trkpt lat="41.2091562" lon="19.5334973"><ele>8.0</ele><time>2026-04-26T10:14:03.255Z</time></trkpt><trkpt lat="41.2089372" lon="19.5335857"><ele>7.5</ele><time>2026-04-26T10:14:04.256Z</time></trkpt><trkpt lat="41.2087182" lon="19.533671"><ele>7.0</ele><time>2026-04-26T10:14:05.256Z</time></trkpt><trkpt lat="41.2084989" lon="19.5337506"><ele>7.0</ele><time>2026-04-26T10:14:06.255Z</time></trkpt><trkpt lat="41.2082792" lon="19.5338221"><ele>7.0</ele><time>2026-04-26T10:14:07.256Z</time></trkpt><trkpt lat="41.2080607" lon="19.5338882"><ele>7.333333333333334</ele><time>2026-04-26T10:14:08.256Z</time></trkpt><trkpt lat="41.2078408" lon="19.5339465"><ele>7.666666666666666</ele><time>2026-04-26T10:14:09.255Z</time></trkpt><trkpt lat="41.20762" lon="19.5340012"><ele>8.0</ele><time>2026-04-26T10:14:10.256Z</time></trkpt><trkpt lat="41.2074002" lon="19.5340517"><ele>7.666666666666666</ele><time>2026-04-26T10:14:11.255Z</time></trkpt><trkpt lat="41.2071823" lon="19.5340998"><ele>7.333333333333334</ele><time>2026-04-26T10:14:12.255Z</time></trkpt><trkpt lat="41.2069655" lon="19.5341494"><ele>7.0</ele><time>2026-04-26T10:14:13.255Z</time></trkpt><trkpt lat="41.2067493" lon="19.534202"><ele>7.0</ele><time>2026-04-26T10:14:14.256Z</time></trkpt><trkpt lat="41.2065307" lon="19.5342553"><ele>7.0</ele><time>2026-04-26T10:14:15.256Z</time></trkpt><trkpt lat="41.2063108" lon="19.5343114"><ele>7.0</ele><time>2026-04-26T10:14:16.255Z</time></trkpt><trkpt lat="41.2060907" lon="19.5343721"><ele>6.5</ele><time>2026-04-26T10:14:17.256Z</time></trkpt><trkpt lat="41.2058723" lon="19.5344434"><ele>6.0</ele><time>2026-04-26T10:14:18.255Z</time></trkpt><trkpt lat="41.2056528" lon="19.5345271"><ele>6.0</ele><time>2026-04-26T10:14:19.255Z</time></trkpt><trkpt lat="41.2054314" lon="19.5346253"><ele>6.0</ele><time>2026-04-26T10:14:20.255Z</time></trkpt><trkpt lat="41.2052039" lon="19.5347311"><ele>6.0</ele><time>2026-04-26T10:14:21.256Z</time></trkpt><trkpt lat="41.2049656" lon="19.5348372"><ele>6.0</ele><time>2026-04-26T10:14:22.255Z</time></trkpt><trkpt lat="41.2047186" lon="19.5349437"><ele>6.0</ele><time>2026-04-26T10:14:23.255Z</time></trkpt><trkpt lat="41.2044654" lon="19.5350477"><ele>6.0</ele><time>2026-04-26T10:14:24.256Z</time></trkpt><trkpt lat="41.2042091" lon="19.5351493"><ele>6.5</ele><time>2026-04-26T10:14:25.255Z</time></trkpt><trkpt lat="41.2039525" lon="19.535251"><ele>7.0</ele><time>2026-04-26T10:14:26.255Z</time></trkpt><trkpt lat="41.2036966" lon="19.5353539"><ele>7.0</ele><time>2026-04-26T10:14:27.255Z</time></trkpt><trkpt lat="41.2034426" lon="19.5354574"><ele>7.0</ele><time>2026-04-26T10:14:28.256Z</time></trkpt><trkpt lat="41.2031884" lon="19.535561"><ele>8.0</ele><time>2026-04-26T10:14:29.255Z</time></trkpt><trkpt lat="41.2029349" lon="19.5356644"><ele>9.0</ele><time>2026-04-26T10:14:30.255Z</time></trkpt><trkpt lat="41.2026799" lon="19.5357693"><ele>9.0</ele><time>2026-04-26T10:14:31.255Z</time></trkpt><trkpt lat="41.2024241" lon="19.5358755"><ele>9.0</ele><time>2026-04-26T10:14:32.255Z</time></trkpt><trkpt lat="41.2021675" lon="19.5359782"><ele>7.5</ele><time>2026-04-26T10:14:33.255Z</time></trkpt><trkpt lat="41.2019111" lon="19.5360773"><ele>6.0</ele><time>2026-04-26T10:14:34.256Z</time></trkpt><trkpt lat="41.2016563" lon="19.536176"><ele>5.5</ele><time>2026-04-26T10:14:35.255Z</time></trkpt><trkpt lat="41.2014048" lon="19.5362761"><ele>5.0</ele><time>2026-04-26T10:14:36.255Z</time></trkpt><trkpt lat="41.2011569" lon="19.5363775"><ele>5.0</ele><time>2026-04-26T10:14:37.255Z</time></trkpt><trkpt lat="41.2009133" lon="19.5364806"><ele>5.0</ele><time>2026-04-26T10:14:38.256Z</time></trkpt><trkpt lat="41.2006731" lon="19.5365836"><ele>5.5</ele><time>2026-04-26T10:14:39.255Z</time></trkpt><trkpt lat="41.2004355" lon="19.536686"><ele>6.0</ele><time>2026-04-26T10:14:40.256Z</time></trkpt><trkpt lat="41.200199" lon="19.5367887"><ele>6.0</ele><time>2026-04-26T10:14:41.255Z</time></trkpt><trkpt lat="41.1999641" lon="19.5368917"><ele>6.0</ele><time>2026-04-26T10:14:42.255Z</time></trkpt><trkpt lat="41.1997301" lon="19.5369933"><ele>6.0</ele><time>2026-04-26T10:14:43.256Z</time></trkpt><trkpt lat="41.1994961" lon="19.537095"><ele>6.0</ele><time>2026-04-26T10:14:44.256Z</time></trkpt><trkpt lat="41.1992657" lon="19.5371921"><ele>6.0</ele><time>2026-04-26T10:14:45.255Z</time></trkpt><trkpt lat="41.1990351" lon="19.537289"><ele>6.0</ele><time>2026-04-26T10:14:46.255Z</time></trkpt><trkpt lat="41.1988043" lon="19.5373855"><ele>6.0</ele><time>2026-04-26T10:14:47.255Z</time></trkpt><trkpt lat="41.1985736" lon="19.5374817"><ele>6.0</ele><time>2026-04-26T10:14:48.256Z</time></trkpt><trkpt lat="41.198343" lon="19.5375765"><ele>6.0</ele><time>2026-04-26T10:14:49.255Z</time></trkpt><trkpt lat="41.1981122" lon="19.5376705"><ele>6.0</ele><time>2026-04-26T10:14:50.255Z</time></trkpt><trkpt lat="41.1978812" lon="19.5377643"><ele>6.0</ele><time>2026-04-26T10:14:51.256Z</time></trkpt><trkpt lat="41.1976508" lon="19.5378571"><ele>6.0</ele><time>2026-04-26T10:14:52.256Z</time></trkpt><trkpt lat="41.1974227" lon="19.5379503"><ele>5.5</ele><time>2026-04-26T10:14:53.256Z</time></trkpt><trkpt lat="41.1971965" lon="19.5380427"><ele>5.0</ele><time>2026-04-26T10:14:54.255Z</time></trkpt><trkpt lat="41.1969715" lon="19.5381343"><ele>5.0</ele><time>2026-04-26T10:14:55.255Z</time></trkpt><trkpt lat="41.1967482" lon="19.5382254"><ele>5.0</ele><time>2026-04-26T10:14:56.256Z</time></trkpt><trkpt lat="41.1965255" lon="19.5383148"><ele>5.5</ele><time>2026-04-26T10:14:57.256Z</time></trkpt><trkpt lat="41.1963041" lon="19.5384025"><ele>6.0</ele><time>2026-04-26T10:14:58.255Z</time></trkpt><trkpt lat="41.1960828" lon="19.538492"><ele>6.0</ele><time>2026-04-26T10:14:59.256Z</time></trkpt><trkpt lat="41.1958609" lon="19.5385811"><ele>6.0</ele><time>2026-04-26T10:15:00.256Z</time></trkpt><trkpt lat="41.19564" lon="19.5386712"><ele>6.5</ele><time>2026-04-26T10:15:01.256Z</time></trkpt><trkpt lat="41.1954193" lon="19.5387628"><ele>7.0</ele><time>2026-04-26T10:15:02.255Z</time></trkpt><trkpt lat="41.1951996" lon="19.5388544"><ele>7.0</ele><time>2026-04-26T10:15:03.255Z</time></trkpt><trkpt lat="41.1949805" lon="19.5389462"><ele>7.0</ele><time>2026-04-26T10:15:04.255Z</time></trkpt><trkpt lat="41.1947624" lon="19.5390373"><ele>7.5</ele><time>2026-04-26T10:15:05.256Z</time></trkpt><trkpt lat="41.1945451" lon="19.5391263"><ele>8.0</ele><time>2026-04-26T10:15:06.256Z</time></trkpt><trkpt lat="41.1943284" lon="19.5392133"><ele>8.0</ele><time>2026-04-26T10:15:07.256Z</time></trkpt><trkpt lat="41.194113" lon="19.5392999"><ele>8.0</ele><time>2026-04-26T10:15:08.255Z</time></trkpt><trkpt lat="41.1938984" lon="19.5393861"><ele>8.0</ele><time>2026-04-26T10:15:09.256Z</time></trkpt><trkpt lat="41.1936834" lon="19.5394725"><ele>7.5</ele><time>2026-04-26T10:15:10.255Z</time></trkpt><trkpt lat="41.1934688" lon="19.5395612"><ele>7.0</ele><time>2026-04-26T10:15:11.255Z</time></trkpt><trkpt lat="41.1932532" lon="19.5396474"><ele>6.5</ele><time>2026-04-26T10:15:12.255Z</time></trkpt><trkpt lat="41.1930377" lon="19.5397349"><ele>6.0</ele><time>2026-04-26T10:15:13.256Z</time></trkpt><trkpt lat="41.1928207" lon="19.5398232"><ele>6.0</ele><time>2026-04-26T10:15:14.255Z</time></trkpt><trkpt lat="41.1926028" lon="19.5399125"><ele>6.0</ele><time>2026-04-26T10:15:15.256Z</time></trkpt><trkpt lat="41.1923841" lon="19.5400019"><ele>6.0</ele><time>2026-04-26T10:15:16.255Z</time></trkpt><trkpt lat="41.1921651" lon="19.5400909"><ele>6.0</ele><time>2026-04-26T10:15:17.256Z</time></trkpt><trkpt lat="41.1919437" lon="19.5401796"><ele>6.0</ele><time>2026-04-26T10:15:18.256Z</time></trkpt><trkpt lat="41.1917215" lon="19.5402705"><ele>6.0</ele><time>2026-04-26T10:15:19.256Z</time></trkpt><trkpt lat="41.1914993" lon="19.5403625"><ele>6.5</ele><time>2026-04-26T10:15:20.255Z</time></trkpt><trkpt lat="41.1912755" lon="19.5404549"><ele>7.0</ele><time>2026-04-26T10:15:21.256Z</time></trkpt><trkpt lat="41.1910502" lon="19.5405468"><ele>7.0</ele><time>2026-04-26T10:15:22.256Z</time></trkpt><trkpt lat="41.1908244" lon="19.5406378"><ele>7.0</ele><time>2026-04-26T10:15:23.255Z</time></trkpt><trkpt lat="41.1905992" lon="19.5407295"><ele>7.5</ele><time>2026-04-26T10:15:24.255Z</time></trkpt><trkpt lat="41.190375" lon="19.5408198"><ele>8.0</ele><time>2026-04-26T10:15:25.256Z</time></trkpt><trkpt lat="41.1901516" lon="19.540909"><ele>8.0</ele><time>2026-04-26T10:15:26.255Z</time></trkpt><trkpt lat="41.1899292" lon="19.5409987"><ele>8.0</ele><time>2026-04-26T10:15:27.256Z</time></trkpt><trkpt lat="41.189709" lon="19.541088"><ele>8.0</ele><time>2026-04-26T10:15:28.255Z</time></trkpt><trkpt lat="41.1894895" lon="19.5411779"><ele>8.0</ele><time>2026-04-26T10:15:29.255Z</time></trkpt><trkpt lat="41.1892705" lon="19.5412678"><ele>8.5</ele><time>2026-04-26T10:15:30.255Z</time></trkpt><trkpt lat="41.1890532" lon="19.5413582"><ele>9.0</ele><time>2026-04-26T10:15:31.255Z</time></trkpt><trkpt lat="41.1888364" lon="19.5414461"><ele>9.0</ele><time>2026-04-26T10:15:32.256Z</time></trkpt><trkpt lat="41.1886207" lon="19.5415335"><ele>9.0</ele><time>2026-04-26T10:15:33.255Z</time></trkpt><trkpt lat="41.1884062" lon="19.5416221"><ele>9.0</ele><time>2026-04-26T10:15:34.256Z</time></trkpt><trkpt lat="41.1881918" lon="19.54171"><ele>9.0</ele><time>2026-04-26T10:15:35.255Z</time></trkpt><trkpt lat="41.1879778" lon="19.5417955"><ele>9.0</ele><time>2026-04-26T10:15:36.256Z</time></trkpt><trkpt lat="41.1877616" lon="19.541878"><ele>8.0</ele><time>2026-04-26T10:15:37.256Z</time></trkpt><trkpt lat="41.1875459" lon="19.5419627"><ele>7.0</ele><time>2026-04-26T10:15:38.256Z</time></trkpt><trkpt lat="41.1873292" lon="19.5420486"><ele>10.0</ele><time>2026-04-26T10:15:39.255Z</time></trkpt><trkpt lat="41.1871118" lon="19.5421357"><ele>13.0</ele><time>2026-04-26T10:15:40.255Z</time></trkpt><trkpt lat="41.1868952" lon="19.5422251"><ele>13.0</ele><time>2026-04-26T10:15:41.256Z</time></trkpt><trkpt lat="41.1866783" lon="19.5423158"><ele>13.0</ele><time>2026-04-26T10:15:42.255Z</time></trkpt><trkpt lat="41.186462" lon="19.5424073"><ele>11.0</ele><time>2026-04-26T10:15:43.256Z</time></trkpt><trkpt lat="41.1862447" lon="19.542497"><ele>9.0</ele><time>2026-04-26T10:15:44.256Z</time></trkpt><trkpt lat="41.1860279" lon="19.5425851"><ele>9.0</ele><time>2026-04-26T10:15:45.256Z</time></trkpt><trkpt lat="41.1858098" lon="19.5426711"><ele>9.0</ele><time>2026-04-26T10:15:46.255Z</time></trkpt><trkpt lat="41.1855937" lon="19.5427576"><ele>9.0</ele><time>2026-04-26T10:15:47.255Z</time></trkpt><trkpt lat="41.1853799" lon="19.5428466"><ele>9.0</ele><time>2026-04-26T10:15:48.255Z</time></trkpt><trkpt lat="41.1851656" lon="19.5429345"><ele>9.0</ele><time>2026-04-26T10:15:49.256Z</time></trkpt><trkpt lat="41.1849526" lon="19.543023"><ele>10.0</ele><time>2026-04-26T10:15:50.256Z</time></trkpt><trkpt lat="41.1847412" lon="19.5431158"><ele>11.0</ele><time>2026-04-26T10:15:51.256Z</time></trkpt><trkpt lat="41.1845307" lon="19.5432149"><ele>12.0</ele><time>2026-04-26T10:15:52.255Z</time></trkpt><trkpt lat="41.1843215" lon="19.5433236"><ele>12.0</ele><time>2026-04-26T10:15:53.255Z</time></trkpt><trkpt lat="41.1841134" lon="19.5434382"><ele>12.0</ele><time>2026-04-26T10:15:54.255Z</time></trkpt><trkpt lat="41.1839063" lon="19.5435589"><ele>12.0</ele><time>2026-04-26T10:15:55.256Z</time></trkpt><trkpt lat="41.1836992" lon="19.5436857"><ele>12.0</ele><time>2026-04-26T10:15:56.256Z</time></trkpt><trkpt lat="41.1834938" lon="19.5438192"><ele>12.0</ele><time>2026-04-26T10:15:57.256Z</time></trkpt><trkpt lat="41.1832904" lon="19.5439614"><ele>12.0</ele><time>2026-04-26T10:15:58.255Z</time></trkpt><trkpt lat="41.1830913" lon="19.5441121"><ele>12.0</ele><time>2026-04-26T10:15:59.256Z</time></trkpt><trkpt lat="41.1828946" lon="19.5442692"><ele>12.0</ele><time>2026-04-26T10:16:00.255Z</time></trkpt><trkpt lat="41.1826995" lon="19.5444325"><ele>12.0</ele><time>2026-04-26T10:16:01.256Z</time></trkpt><trkpt lat="41.1825047" lon="19.5446014"><ele>12.0</ele><time>2026-04-26T10:16:02.255Z</time></trkpt><trkpt lat="41.1823088" lon="19.5447732"><ele>12.0</ele><time>2026-04-26T10:16:03.256Z</time></trkpt><trkpt lat="41.1821122" lon="19.5449426"><ele>12.0</ele><time>2026-04-26T10:16:04.255Z</time></trkpt><trkpt lat="41.1819158" lon="19.5451127"><ele>12.0</ele><time>2026-04-26T10:16:05.256Z</time></trkpt><trkpt lat="41.1817208" lon="19.5452803"><ele>12.0</ele><time>2026-04-26T10:16:06.255Z</time></trkpt><trkpt lat="41.181527" lon="19.5454468"><ele>12.0</ele><time>2026-04-26T10:16:07.255Z</time></trkpt><trkpt lat="41.1813343" lon="19.5456125"><ele>12.0</ele><time>2026-04-26T10:16:08.256Z</time></trkpt><trkpt lat="41.1811437" lon="19.5457794"><ele>12.0</ele><time>2026-04-26T10:16:09.256Z</time></trkpt><trkpt lat="41.1809531" lon="19.5459439"><ele>12.0</ele><time>2026-04-26T10:16:10.255Z</time></trkpt><trkpt lat="41.1807639" lon="19.546107"><ele>13.0</ele><time>2026-04-26T10:16:11.255Z</time></trkpt><trkpt lat="41.1805739" lon="19.5462707"><ele>14.0</ele><time>2026-04-26T10:16:12.256Z</time></trkpt><trkpt lat="41.1803834" lon="19.5464351"><ele>14.0</ele><time>2026-04-26T10:16:13.256Z</time></trkpt><trkpt lat="41.1801923" lon="19.5466002"><ele>14.0</ele><time>2026-04-26T10:16:14.256Z</time></trkpt><trkpt lat="41.1800017" lon="19.546766"><ele>14.0</ele><time>2026-04-26T10:16:15.256Z</time></trkpt><trkpt lat="41.1798111" lon="19.5469308"><ele>14.0</ele><time>2026-04-26T10:16:16.256Z</time></trkpt><trkpt lat="41.1796194" lon="19.5470936"><ele>13.666666666666668</ele><time>2026-04-26T10:16:17.256Z</time></trkpt><trkpt lat="41.1794309" lon="19.5472563"><ele>13.333333333333332</ele><time>2026-04-26T10:16:18.255Z</time></trkpt><trkpt lat="41.1792452" lon="19.5474184"><ele>13.0</ele><time>2026-04-26T10:16:19.255Z</time></trkpt><trkpt lat="41.1790607" lon="19.5475788"><ele>13.0</ele><time>2026-04-26T10:16:20.255Z</time></trkpt><trkpt lat="41.178878" lon="19.5477388"><ele>13.0</ele><time>2026-04-26T10:16:21.256Z</time></trkpt><trkpt lat="41.178694" lon="19.5478966"><ele>13.0</ele><time>2026-04-26T10:16:22.256Z</time></trkpt><trkpt lat="41.1785094" lon="19.5480553"><ele>13.0</ele><time>2026-04-26T10:16:23.256Z</time></trkpt><trkpt lat="41.1783234" lon="19.5482145"><ele>13.0</ele><time>2026-04-26T10:16:24.255Z</time></trkpt><trkpt lat="41.1781389" lon="19.5483731"><ele>13.0</ele><time>2026-04-26T10:16:25.255Z</time></trkpt><trkpt lat="41.1779554" lon="19.5485325"><ele>13.333333333333332</ele><time>2026-04-26T10:16:26.255Z</time></trkpt><trkpt lat="41.177773" lon="19.5486913"><ele>13.666666666666668</ele><time>2026-04-26T10:16:27.256Z</time></trkpt><trkpt lat="41.1775904" lon="19.5488497"><ele>14.0</ele><time>2026-04-26T10:16:28.256Z</time></trkpt><trkpt lat="41.1774077" lon="19.5490089"><ele>14.0</ele><time>2026-04-26T10:16:29.256Z</time></trkpt><trkpt lat="41.1772245" lon="19.5491684"><ele>14.0</ele><time>2026-04-26T10:16:30.256Z</time></trkpt><trkpt lat="41.17704" lon="19.549328"><ele>14.0</ele><time>2026-04-26T10:16:31.256Z</time></trkpt><trkpt lat="41.1768538" lon="19.5494878"><ele>14.0</ele><time>2026-04-26T10:16:32.255Z</time></trkpt><trkpt lat="41.1766679" lon="19.5496492"><ele>14.0</ele><time>2026-04-26T10:16:33.255Z</time></trkpt><trkpt lat="41.176485" lon="19.5498117"><ele>14.0</ele><time>2026-04-26T10:16:34.256Z</time></trkpt><trkpt lat="41.1763006" lon="19.5499786"><ele>14.0</ele><time>2026-04-26T10:16:35.255Z</time></trkpt><trkpt lat="41.1761182" lon="19.5501466"><ele>14.0</ele><time>2026-04-26T10:16:36.255Z</time></trkpt><trkpt lat="41.1759376" lon="19.5503204"><ele>14.0</ele><time>2026-04-26T10:16:37.255Z</time></trkpt><trkpt lat="41.1757575" lon="19.5504988"><ele>13.0</ele><time>2026-04-26T10:16:38.255Z</time></trkpt><trkpt lat="41.1755811" lon="19.5506834"><ele>12.0</ele><time>2026-04-26T10:16:39.255Z</time></trkpt><trkpt lat="41.1754057" lon="19.5508728"><ele>12.0</ele><time>2026-04-26T10:16:40.255Z</time></trkpt><trkpt lat="41.1752315" lon="19.5510667"><ele>12.0</ele><time>2026-04-26T10:16:41.256Z</time></trkpt><trkpt lat="41.1750593" lon="19.5512653"><ele>12.0</ele><time>2026-04-26T10:16:42.255Z</time></trkpt><trkpt lat="41.1748894" lon="19.551468"><ele>12.0</ele><time>2026-04-26T10:16:43.255Z</time></trkpt><trkpt lat="41.1747218" lon="19.5516773"><ele>13.5</ele><time>2026-04-26T10:16:44.255Z</time></trkpt><trkpt lat="41.1745575" lon="19.5518889"><ele>15.0</ele><time>2026-04-26T10:16:45.255Z</time></trkpt><trkpt lat="41.1743987" lon="19.5521024"><ele>15.0</ele><time>2026-04-26T10:16:46.255Z</time></trkpt><trkpt lat="41.1742462" lon="19.552316"><ele>15.0</ele><time>2026-04-26T10:16:47.256Z</time></trkpt><trkpt lat="41.1740978" lon="19.5525296"><ele>15.0</ele><time>2026-04-26T10:16:48.256Z</time></trkpt><trkpt lat="41.1739522" lon="19.5527446"><ele>14.666666666666668</ele><time>2026-04-26T10:16:49.256Z</time></trkpt><trkpt lat="41.1738085" lon="19.5529629"><ele>14.333333333333334</ele><time>2026-04-26T10:16:50.255Z</time></trkpt><trkpt lat="41.1736664" lon="19.5531841"><ele>14.0</ele><time>2026-04-26T10:16:51.255Z</time></trkpt><trkpt lat="41.1735242" lon="19.5534074"><ele>14.0</ele><time>2026-04-26T10:16:52.256Z</time></trkpt><trkpt lat="41.1733818" lon="19.5536312"><ele>14.0</ele><time>2026-04-26T10:16:53.256Z</time></trkpt><trkpt lat="41.1732389" lon="19.553857"><ele>14.0</ele><time>2026-04-26T10:16:54.255Z</time></trkpt><trkpt lat="41.1730955" lon="19.5540819"><ele>14.0</ele><time>2026-04-26T10:16:55.256Z</time></trkpt><trkpt lat="41.1729516" lon="19.5543073"><ele>14.0</ele><time>2026-04-26T10:16:56.256Z</time></trkpt><trkpt lat="41.1728077" lon="19.554532"><ele>14.0</ele><time>2026-04-26T10:16:57.255Z</time></trkpt><trkpt lat="41.1726632" lon="19.5547567"><ele>14.0</ele><time>2026-04-26T10:16:58.255Z</time></trkpt><trkpt lat="41.1725182" lon="19.5549829"><ele>14.0</ele><time>2026-04-26T10:16:59.256Z</time></trkpt><trkpt lat="41.1723724" lon="19.5552112"><ele>14.0</ele><time>2026-04-26T10:17:00.255Z</time></trkpt><trkpt lat="41.1722274" lon="19.5554412"><ele>14.5</ele><time>2026-04-26T10:17:01.256Z</time></trkpt><trkpt lat="41.1720815" lon="19.5556708"><ele>15.0</ele><time>2026-04-26T10:17:02.256Z</time></trkpt><trkpt lat="41.1719352" lon="19.5559001"><ele>15.0</ele><time>2026-04-26T10:17:03.255Z</time></trkpt><trkpt lat="41.1717889" lon="19.5561292"><ele>15.0</ele><time>2026-04-26T10:17:04.256Z</time></trkpt><trkpt lat="41.1716423" lon="19.5563578"><ele>14.0</ele><time>2026-04-26T10:17:05.255Z</time></trkpt><trkpt lat="41.1714949" lon="19.5565864"><ele>13.0</ele><time>2026-04-26T10:17:06.255Z</time></trkpt><trkpt lat="41.1713432" lon="19.5568228"><ele>12.5</ele><time>2026-04-26T10:17:07.256Z</time></trkpt><trkpt lat="41.1711887" lon="19.5570722"><ele>12.0</ele><time>2026-04-26T10:17:08.255Z</time></trkpt><trkpt lat="41.17103" lon="19.5573313"><ele>12.0</ele><time>2026-04-26T10:17:09.255Z</time></trkpt><trkpt lat="41.1708686" lon="19.5575952"><ele>12.0</ele><time>2026-04-26T10:17:10.255Z</time></trkpt><trkpt lat="41.1707049" lon="19.5578607"><ele>14.0</ele><time>2026-04-26T10:17:11.256Z</time></trkpt><trkpt lat="41.1705385" lon="19.5581253"><ele>16.0</ele><time>2026-04-26T10:17:12.256Z</time></trkpt><trkpt lat="41.1703705" lon="19.5583902"><ele>16.0</ele><time>2026-04-26T10:17:13.255Z</time></trkpt><trkpt lat="41.1702019" lon="19.5586553"><ele>16.0</ele><time>2026-04-26T10:17:14.255Z</time></trkpt><trkpt lat="41.1700333" lon="19.5589206"><ele>16.0</ele><time>2026-04-26T10:17:15.255Z</time></trkpt><trkpt lat="41.1698644" lon="19.5591847"><ele>16.0</ele><time>2026-04-26T10:17:16.256Z</time></trkpt><trkpt lat="41.1696954" lon="19.5594481"><ele>16.5</ele><time>2026-04-26T10:17:17.255Z</time></trkpt><trkpt lat="41.1695268" lon="19.5597118"><ele>17.0</ele><time>2026-04-26T10:17:18.256Z</time></trkpt><trkpt lat="41.1693596" lon="19.5599742"><ele>17.0</ele><time>2026-04-26T10:17:19.256Z</time></trkpt><trkpt lat="41.1691936" lon="19.5602337"><ele>17.0</ele><time>2026-04-26T10:17:20.255Z</time></trkpt><trkpt lat="41.1690287" lon="19.5604895"><ele>18.0</ele><time>2026-04-26T10:17:21.256Z</time></trkpt><trkpt lat="41.1688652" lon="19.560743"><ele>19.0</ele><time>2026-04-26T10:17:22.256Z</time></trkpt><trkpt lat="41.168703" lon="19.5609956"><ele>19.0</ele><time>2026-04-26T10:17:23.255Z</time></trkpt><trkpt lat="41.1685407" lon="19.5612468"><ele>19.0</ele><time>2026-04-26T10:17:24.255Z</time></trkpt><trkpt lat="41.1683791" lon="19.561498"><ele>19.0</ele><time>2026-04-26T10:17:25.256Z</time></trkpt><trkpt lat="41.1682182" lon="19.56175"><ele>19.0</ele><time>2026-04-26T10:17:26.255Z</time></trkpt><trkpt lat="41.1680577" lon="19.5620012"><ele>19.5</ele><time>2026-04-26T10:17:27.256Z</time></trkpt><trkpt lat="41.1678978" lon="19.5622531"><ele>20.0</ele><time>2026-04-26T10:17:28.256Z</time></trkpt><trkpt lat="41.1677388" lon="19.5625036"><ele>20.0</ele><time>2026-04-26T10:17:29.255Z</time></trkpt><trkpt lat="41.167579" lon="19.562753"><ele>20.0</ele><time>2026-04-26T10:17:30.255Z</time></trkpt><trkpt lat="41.1674189" lon="19.5630012"><ele>19.0</ele><time>2026-04-26T10:17:31.255Z</time></trkpt><trkpt lat="41.1672587" lon="19.5632485"><ele>18.0</ele><time>2026-04-26T10:17:32.255Z</time></trkpt><trkpt lat="41.1670983" lon="19.5634947"><ele>19.0</ele><time>2026-04-26T10:17:33.255Z</time></trkpt><trkpt lat="41.1669392" lon="19.5637398"><ele>20.0</ele><time>2026-04-26T10:17:34.255Z</time></trkpt><trkpt lat="41.1667814" lon="19.5639839"><ele>20.0</ele><time>2026-04-26T10:17:35.255Z</time></trkpt><trkpt lat="41.1666245" lon="19.5642294"><ele>20.0</ele><time>2026-04-26T10:17:36.256Z</time></trkpt><trkpt lat="41.1664673" lon="19.5644763"><ele>21.0</ele><time>2026-04-26T10:17:37.256Z</time></trkpt><trkpt lat="41.1663085" lon="19.564724"><ele>22.0</ele><time>2026-04-26T10:17:38.256Z</time></trkpt><trkpt lat="41.1661487" lon="19.5649727"><ele>22.0</ele><time>2026-04-26T10:17:39.256Z</time></trkpt><trkpt lat="41.1659884" lon="19.5652213"><ele>22.0</ele><time>2026-04-26T10:17:40.255Z</time></trkpt><trkpt lat="41.1658297" lon="19.5654705"><ele>21.5</ele><time>2026-04-26T10:17:41.256Z</time></trkpt><trkpt lat="41.1656705" lon="19.5657184"><ele>21.0</ele><time>2026-04-26T10:17:42.256Z</time></trkpt><trkpt lat="41.1655108" lon="19.5659643"><ele>21.0</ele><time>2026-04-26T10:17:43.255Z</time></trkpt><trkpt lat="41.165349" lon="19.5662121"><ele>21.0</ele><time>2026-04-26T10:17:44.255Z</time></trkpt><trkpt lat="41.1651867" lon="19.5664624"><ele>21.0</ele><time>2026-04-26T10:17:45.256Z</time></trkpt><trkpt lat="41.1650231" lon="19.5667169"><ele>21.0</ele><time>2026-04-26T10:17:46.255Z</time></trkpt><trkpt lat="41.1648561" lon="19.5669711"><ele>21.5</ele><time>2026-04-26T10:17:47.255Z</time></trkpt><trkpt lat="41.1646865" lon="19.5672288"><ele>22.0</ele><time>2026-04-26T10:17:48.256Z</time></trkpt><trkpt lat="41.1645147" lon="19.5674881"><ele>22.0</ele><time>2026-04-26T10:17:49.255Z</time></trkpt><trkpt lat="41.1643412" lon="19.5677448"><ele>22.0</ele><time>2026-04-26T10:17:50.256Z</time></trkpt><trkpt lat="41.1641707" lon="19.5680007"><ele>22.5</ele><time>2026-04-26T10:17:51.255Z</time></trkpt><trkpt lat="41.1640036" lon="19.5682554"><ele>23.0</ele><time>2026-04-26T10:17:52.256Z</time></trkpt><trkpt lat="41.1638392" lon="19.5685077"><ele>22.0</ele><time>2026-04-26T10:17:53.256Z</time></trkpt><trkpt lat="41.1636755" lon="19.5687572"><ele>21.0</ele><time>2026-04-26T10:17:54.255Z</time></trkpt><trkpt lat="41.1635131" lon="19.5690062"><ele>21.0</ele><time>2026-04-26T10:17:55.255Z</time></trkpt><trkpt lat="41.1633514" lon="19.5692543"><ele>21.0</ele><time>2026-04-26T10:17:56.255Z</time></trkpt><trkpt lat="41.1631912" lon="19.5695009"><ele>22.5</ele><time>2026-04-26T10:17:57.255Z</time></trkpt><trkpt lat="41.1630315" lon="19.5697444"><ele>24.0</ele><time>2026-04-26T10:17:58.256Z</time></trkpt><trkpt lat="41.1628723" lon="19.5699868"><ele>24.0</ele><time>2026-04-26T10:17:59.255Z</time></trkpt><trkpt lat="41.1627156" lon="19.5702282"><ele>24.0</ele><time>2026-04-26T10:18:00.255Z</time></trkpt><trkpt lat="41.1625595" lon="19.5704724"><ele>24.5</ele><time>2026-04-26T10:18:01.255Z</time></trkpt><trkpt lat="41.1624031" lon="19.5707174"><ele>25.0</ele><time>2026-04-26T10:18:02.256Z</time></trkpt><trkpt lat="41.1622466" lon="19.5709646"><ele>24.5</ele><time>2026-04-26T10:18:03.255Z</time></trkpt><trkpt lat="41.1620901" lon="19.5712088"><ele>24.0</ele><time>2026-04-26T10:18:04.256Z</time></trkpt><trkpt lat="41.1619329" lon="19.5714523"><ele>24.0</ele><time>2026-04-26T10:18:05.255Z</time></trkpt><trkpt lat="41.1617772" lon="19.5716959"><ele>24.0</ele><time>2026-04-26T10:18:06.255Z</time></trkpt><trkpt lat="41.1616222" lon="19.5719374"><ele>25.0</ele><time>2026-04-26T10:18:07.255Z</time></trkpt><trkpt lat="41.1614674" lon="19.5721785"><ele>26.0</ele><time>2026-04-26T10:18:08.256Z</time></trkpt><trkpt lat="41.1613126" lon="19.5724173"><ele>26.0</ele><time>2026-04-26T10:18:09.256Z</time></trkpt><trkpt lat="41.1611595" lon="19.572656"><ele>26.0</ele><time>2026-04-26T10:18:10.256Z</time></trkpt><trkpt lat="41.1610075" lon="19.572895"><ele>26.5</ele><time>2026-04-26T10:18:11.255Z</time></trkpt><trkpt lat="41.1608555" lon="19.5731322"><ele>27.0</ele><time>2026-04-26T10:18:12.255Z</time></trkpt><trkpt lat="41.1607039" lon="19.5733692"><ele>27.0</ele><time>2026-04-26T10:18:13.255Z</time></trkpt><trkpt lat="41.1605515" lon="19.573607"><ele>27.0</ele><time>2026-04-26T10:18:14.255Z</time></trkpt><trkpt lat="41.1603977" lon="19.5738445"><ele>27.0</ele><time>2026-04-26T10:18:15.256Z</time></trkpt><trkpt lat="41.1602431" lon="19.5740832"><ele>27.0</ele><time>2026-04-26T10:18:16.256Z</time></trkpt><trkpt lat="41.1600882" lon="19.5743226"><ele>27.0</ele><time>2026-04-26T10:18:17.255Z</time></trkpt><trkpt lat="41.1599336" lon="19.5745622"><ele>27.0</ele><time>2026-04-26T10:18:18.255Z</time></trkpt><trkpt lat="41.15978" lon="19.5748028"><ele>26.0</ele><time>2026-04-26T10:18:19.256Z</time></trkpt><trkpt lat="41.1596269" lon="19.5750439"><ele>25.0</ele><time>2026-04-26T10:18:20.256Z</time></trkpt><trkpt lat="41.1594743" lon="19.5752854"><ele>25.5</ele><time>2026-04-26T10:18:21.255Z</time></trkpt><trkpt lat="41.1593196" lon="19.5755257"><ele>26.0</ele><time>2026-04-26T10:18:22.255Z</time></trkpt><trkpt lat="41.1591637" lon="19.5757677"><ele>26.0</ele><time>2026-04-26T10:18:23.256Z</time></trkpt><trkpt lat="41.159007" lon="19.5760119"><ele>26.0</ele><time>2026-04-26T10:18:24.256Z</time></trkpt><trkpt lat="41.1588498" lon="19.5762561"><ele>26.5</ele><time>2026-04-26T10:18:25.255Z</time></trkpt><trkpt lat="41.1586928" lon="19.5765003"><ele>27.0</ele><time>2026-04-26T10:18:26.255Z</time></trkpt><trkpt lat="41.1585372" lon="19.5767436"><ele>27.0</ele><time>2026-04-26T10:18:27.256Z</time></trkpt><trkpt lat="41.1583832" lon="19.576982"><ele>27.0</ele><time>2026-04-26T10:18:28.255Z</time></trkpt><trkpt lat="41.1582324" lon="19.5772171"><ele>27.0</ele><time>2026-04-26T10:18:29.255Z</time></trkpt><trkpt lat="41.158082" lon="19.5774507"><ele>27.0</ele><time>2026-04-26T10:18:30.256Z</time></trkpt><trkpt lat="41.1579328" lon="19.5776852"><ele>27.5</ele><time>2026-04-26T10:18:31.256Z</time></trkpt><trkpt lat="41.1577825" lon="19.5779196"><ele>28.0</ele><time>2026-04-26T10:18:32.255Z</time></trkpt><trkpt lat="41.1576329" lon="19.578153"><ele>28.0</ele><time>2026-04-26T10:18:33.256Z</time></trkpt><trkpt lat="41.1574851" lon="19.5783832"><ele>28.0</ele><time>2026-04-26T10:18:34.256Z</time></trkpt><trkpt lat="41.1573413" lon="19.578609"><ele>28.0</ele><time>2026-04-26T10:18:35.255Z</time></trkpt><trkpt lat="41.1572012" lon="19.5788285"><ele>28.0</ele><time>2026-04-26T10:18:36.255Z</time></trkpt><trkpt lat="41.1570623" lon="19.5790449"><ele>28.0</ele><time>2026-04-26T10:18:37.256Z</time></trkpt><trkpt lat="41.1569225" lon="19.5792612"><ele>28.0</ele><time>2026-04-26T10:18:38.256Z</time></trkpt><trkpt lat="41.1567826" lon="19.5794777"><ele>28.0</ele><time>2026-04-26T10:18:39.256Z</time></trkpt><trkpt lat="41.156643" lon="19.5796943"><ele>28.0</ele><time>2026-04-26T10:18:40.255Z</time></trkpt><trkpt lat="41.1565024" lon="19.5799121"><ele>27.666666666666668</ele><time>2026-04-26T10:18:41.256Z</time></trkpt><trkpt lat="41.1563641" lon="19.5801292"><ele>27.333333333333336</ele><time>2026-04-26T10:18:42.256Z</time></trkpt><trkpt lat="41.1562255" lon="19.5803494"><ele>27.0</ele><time>2026-04-26T10:18:43.256Z</time></trkpt><trkpt lat="41.1560856" lon="19.5805757"><ele>28.5</ele><time>2026-04-26T10:18:44.255Z</time></trkpt><trkpt lat="41.155944" lon="19.580811"><ele>30.0</ele><time>2026-04-26T10:18:45.256Z</time></trkpt><trkpt lat="41.1557961" lon="19.5810496"><ele>29.0</ele><time>2026-04-26T10:18:46.256Z</time></trkpt><trkpt lat="41.1556426" lon="19.5812837"><ele>28.0</ele><time>2026-04-26T10:18:47.256Z</time></trkpt><trkpt lat="41.1554801" lon="19.5815175"><ele>28.0</ele><time>2026-04-26T10:18:48.256Z</time></trkpt><trkpt lat="41.1553062" lon="19.5817477"><ele>28.0</ele><time>2026-04-26T10:18:49.256Z</time></trkpt><trkpt lat="41.1551231" lon="19.5819717"><ele>28.0</ele><time>2026-04-26T10:18:50.255Z</time></trkpt><trkpt lat="41.1549321" lon="19.5821916"><ele>28.0</ele><time>2026-04-26T10:18:51.255Z</time></trkpt><trkpt lat="41.1547326" lon="19.5824077"><ele>28.0</ele><time>2026-04-26T10:18:52.256Z</time></trkpt><trkpt lat="41.1545243" lon="19.5826199"><ele>28.0</ele><time>2026-04-26T10:18:53.256Z</time></trkpt><trkpt lat="41.1543093" lon="19.5828261"><ele>28.0</ele><time>2026-04-26T10:18:54.256Z</time></trkpt><trkpt lat="41.1540883" lon="19.5830183"><ele>28.0</ele><time>2026-04-26T10:18:55.255Z</time></trkpt><trkpt lat="41.1538705" lon="19.5832132"><ele>27.5</ele><time>2026-04-26T10:18:56.256Z</time></trkpt><trkpt lat="41.1536524" lon="19.5833935"><ele>27.0</ele><time>2026-04-26T10:18:57.255Z</time></trkpt><trkpt lat="41.1534334" lon="19.5835565"><ele>27.0</ele><time>2026-04-26T10:18:58.256Z</time></trkpt><trkpt lat="41.1532168" lon="19.5837111"><ele>27.0</ele><time>2026-04-26T10:18:59.256Z</time></trkpt><trkpt lat="41.1530048" lon="19.5838613"><ele>27.0</ele><time>2026-04-26T10:19:00.256Z</time></trkpt><trkpt lat="41.1527983" lon="19.5840115"><ele>27.0</ele><time>2026-04-26T10:19:01.255Z</time></trkpt><trkpt lat="41.1525923" lon="19.5841619"><ele>27.0</ele><time>2026-04-26T10:19:02.256Z</time></trkpt><trkpt lat="41.1523865" lon="19.5843148"><ele>27.0</ele><time>2026-04-26T10:19:03.256Z</time></trkpt><trkpt lat="41.152181" lon="19.5844713"><ele>27.5</ele><time>2026-04-26T10:19:04.256Z</time></trkpt><trkpt lat="41.1519741" lon="19.5846312"><ele>28.0</ele><time>2026-04-26T10:19:05.255Z</time></trkpt><trkpt lat="41.1517657" lon="19.5847911"><ele>28.0</ele><time>2026-04-26T10:19:06.256Z</time></trkpt><trkpt lat="41.1515519" lon="19.5849485"><ele>28.0</ele><time>2026-04-26T10:19:07.255Z</time></trkpt><trkpt lat="41.1513369" lon="19.5851098"><ele>28.0</ele><time>2026-04-26T10:19:08.255Z</time></trkpt><trkpt lat="41.1511169" lon="19.5852699"><ele>28.0</ele><time>2026-04-26T10:19:09.256Z</time></trkpt><trkpt lat="41.1508983" lon="19.5854284"><ele>27.5</ele><time>2026-04-26T10:19:10.256Z</time></trkpt><trkpt lat="41.1506816" lon="19.5855868"><ele>27.0</ele><time>2026-04-26T10:19:11.256Z</time></trkpt><trkpt lat="41.1504683" lon="19.5857425"><ele>27.0</ele><time>2026-04-26T10:19:12.255Z</time></trkpt><trkpt lat="41.1502551" lon="19.5858975"><ele>27.0</ele><time>2026-04-26T10:19:13.255Z</time></trkpt><trkpt lat="41.1500412" lon="19.5860571"><ele>25.5</ele><time>2026-04-26T10:19:14.256Z</time></trkpt><trkpt lat="41.1498255" lon="19.5862318"><ele>24.0</ele><time>2026-04-26T10:19:15.255Z</time></trkpt><trkpt lat="41.1496113" lon="19.5864234"><ele>24.0</ele><time>2026-04-26T10:19:16.255Z</time></trkpt><trkpt lat="41.1494014" lon="19.5866263"><ele>24.0</ele><time>2026-04-26T10:19:17.256Z</time></trkpt><trkpt lat="41.1491975" lon="19.5868388"><ele>23.0</ele><time>2026-04-26T10:19:18.255Z</time></trkpt><trkpt lat="41.148998" lon="19.5870519"><ele>22.0</ele><time>2026-04-26T10:19:19.255Z</time></trkpt><trkpt lat="41.1488018" lon="19.5872648"><ele>22.0</ele><time>2026-04-26T10:19:20.255Z</time></trkpt><trkpt lat="41.1486074" lon="19.5874764"><ele>22.0</ele><time>2026-04-26T10:19:21.255Z</time></trkpt><trkpt lat="41.1484188" lon="19.5876825"><ele>23.0</ele><time>2026-04-26T10:19:22.255Z</time></trkpt><trkpt lat="41.1482273" lon="19.5878891"><ele>24.0</ele><time>2026-04-26T10:19:23.255Z</time></trkpt><trkpt lat="41.1480379" lon="19.5880956"><ele>26.0</ele><time>2026-04-26T10:19:24.256Z</time></trkpt><trkpt lat="41.1478458" lon="19.5882994"><ele>28.0</ele><time>2026-04-26T10:19:25.256Z</time></trkpt><trkpt lat="41.1476512" lon="19.5884959"><ele>28.5</ele><time>2026-04-26T10:19:26.255Z</time></trkpt><trkpt lat="41.1474562" lon="19.588682"><ele>29.0</ele><time>2026-04-26T10:19:27.255Z</time></trkpt><trkpt lat="41.1472615" lon="19.5888525"><ele>29.0</ele><time>2026-04-26T10:19:28.255Z</time></trkpt><trkpt lat="41.147065" lon="19.5890097"><ele>29.0</ele><time>2026-04-26T10:19:29.256Z</time></trkpt><trkpt lat="41.1468671" lon="19.5891505"><ele>29.0</ele><time>2026-04-26T10:19:30.255Z</time></trkpt><trkpt lat="41.146667" lon="19.589277"><ele>29.0</ele><time>2026-04-26T10:19:31.255Z</time></trkpt><trkpt lat="41.1464643" lon="19.5893908"><ele>29.0</ele><time>2026-04-26T10:19:32.256Z</time></trkpt><trkpt lat="41.1462664" lon="19.5894899"><ele>29.333333333333332</ele><time>2026-04-26T10:19:33.255Z</time></trkpt><trkpt lat="41.1460789" lon="19.589575"><ele>29.666666666666664</ele><time>2026-04-26T10:19:34.255Z</time></trkpt><trkpt lat="41.1459002" lon="19.5896497"><ele>30.0</ele><time>2026-04-26T10:19:35.255Z</time></trkpt><trkpt lat="41.1457409" lon="19.58971"><ele>30.5</ele><time>2026-04-26T10:19:36.255Z</time></trkpt><trkpt lat="41.1456024" lon="19.589762"><ele>31.0</ele><time>2026-04-26T10:19:37.256Z</time></trkpt><trkpt lat="41.1454828" lon="19.589804"><ele>31.5</ele><time>2026-04-26T10:19:38.255Z</time></trkpt><trkpt lat="41.145382" lon="19.5898342"><ele>32.0</ele><time>2026-04-26T10:19:39.255Z</time></trkpt><trkpt lat="41.1452983" lon="19.5898472"><ele>31.999999999999996</ele><time>2026-04-26T10:19:40.256Z</time></trkpt><trkpt lat="41.1452298" lon="19.5898413"><ele>32.0</ele><time>2026-04-26T10:19:41.255Z</time></trkpt><trkpt lat="41.1451265" lon="19.5897923"><ele>32.0</ele><time>2026-04-26T10:19:43.256Z</time></trkpt><trkpt lat="41.1450506" lon="19.5897158"><ele>32.0</ele><time>2026-04-26T10:19:45.256Z</time></trkpt><trkpt lat="41.1450015" lon="19.589652"><ele>31.999999999999996</ele><time>2026-04-26T10:19:47.256Z</time></trkpt><trkpt lat="41.1449796" lon="19.5895645"><ele>32.0</ele><time>2026-04-26T10:19:50.255Z</time></trkpt><trkpt lat="41.1450248" lon="19.5894613"><ele>31.57142857142857</ele><time>2026-04-26T10:19:53.256Z</time></trkpt><trkpt lat="41.1450369" lon="19.5893703"><ele>31.14285714285714</ele><time>2026-04-26T10:19:57.255Z</time></trkpt><trkpt lat="41.1449836" lon="19.5894235"><ele>30.714285714285715</ele><time>2026-04-26T10:21:34.28Z</time></trkpt><trkpt lat="41.1449302" lon="19.5894706"><ele>30.285714285714285</ele><time>2026-04-26T10:21:43.28Z</time></trkpt><trkpt lat="41.1448656" lon="19.5894536"><ele>29.857142857142858</ele><time>2026-04-26T10:21:54.276Z</time></trkpt><trkpt lat="41.1448656" lon="19.5893684"><ele>29.42857142857143</ele><time>2026-04-26T10:22:16.279Z</time></trkpt><trkpt lat="41.1448588" lon="19.5892801"><ele>29.000000000000004</ele><time>2026-04-26T10:22:27.28Z</time></trkpt><trkpt lat="41.1448286" lon="19.5892033"><ele>28.999999999999996</ele><time>2026-04-26T10:22:36.279Z</time></trkpt><trkpt lat="41.1448893" lon="19.58932"><ele>29.0</ele><time>2026-04-26T10:26:13.279Z</time></trkpt><trkpt lat="41.1449027" lon="19.5892208"><ele>29.0</ele><time>2026-04-26T10:26:19.28Z</time></trkpt><trkpt lat="41.1448282" lon="19.5892164"><ele>29.0</ele><time>2026-04-26T10:35:30.28Z</time></trkpt><trkpt lat="41.1447969" lon="19.5891301"><ele>28.999999999999996</ele><time>2026-04-26T10:35:36.279Z</time></trkpt><trkpt lat="41.1448179" lon="19.5892502"><ele>29.0</ele><time>2026-04-26T10:36:28.279Z</time></trkpt><trkpt lat="41.1447945" lon="19.5893299"><ele>28.999999999999996</ele><time>2026-04-26T10:37:27.278Z</time></trkpt><trkpt lat="41.1447358" lon="19.5893903"><ele>29.0</ele><time>2026-04-26T10:37:48.279Z</time></trkpt><trkpt lat="41.1448241" lon="19.5894988"><ele>29.0</ele><time>2026-04-26T10:37:53.279Z</time></trkpt><trkpt lat="41.1449142" lon="19.5895613"><ele>29.0</ele><time>2026-04-26T10:37:55.279Z</time></trkpt><trkpt lat="41.144887" lon="19.5894765"><ele>28.999999999999996</ele><time>2026-04-26T10:37:57.28Z</time></trkpt><trkpt lat="41.1448501" lon="19.5894035"><ele>29.0</ele><time>2026-04-26T10:37:59.279Z</time></trkpt><trkpt lat="41.1448037" lon="19.5893453"><ele>28.999999999999996</ele><time>2026-04-26T10:38:08.279Z</time></trkpt><trkpt lat="41.1447354" lon="19.5892865"><ele>29.0</ele><time>2026-04-26T10:38:49.277Z</time></trkpt><trkpt lat="41.144823" lon="19.589267"><ele>29.0</ele><time>2026-04-26T10:38:53.277Z</time></trkpt><trkpt lat="41.1449069" lon="19.5892774"><ele>29.0</ele><time>2026-04-26T10:39:45.182Z</time></trkpt><trkpt lat="41.1449412" lon="19.5891923"><ele>28.999999999999996</ele><time>2026-04-26T10:39:54.279Z</time></trkpt><trkpt lat="41.1448727" lon="19.5892207"><ele>29.0</ele><time>2026-04-26T10:43:42.28Z</time></trkpt><trkpt lat="41.1448105" lon="19.5892069"><ele>28.833333333333332</ele><time>2026-04-26T10:43:50.276Z</time></trkpt><trkpt lat="41.1447404" lon="19.5891914"><ele>28.666666666666664</ele><time>2026-04-26T10:43:56.276Z</time></trkpt><trkpt lat="41.1447344" lon="19.5891013"><ele>28.5</ele><time>2026-04-26T10:44:02.278Z</time></trkpt><trkpt lat="41.1446908" lon="19.5890207"><ele>28.333333333333336</ele><time>2026-04-26T10:44:08.277Z</time></trkpt><trkpt lat="41.1447511" lon="19.5889964"><ele>28.166666666666668</ele><time>2026-04-26T10:44:15.684Z</time></trkpt><trkpt lat="41.1448198" lon="19.5890009"><ele>28.0</ele><time>2026-04-26T10:44:23.966Z</time></trkpt><trkpt lat="41.1448275" lon="19.5892253"><ele>28.0</ele><time>2026-04-26T10:46:02.62Z</time></trkpt><trkpt lat="41.1448458" lon="19.5893075"><ele>28.0</ele><time>2026-04-26T10:46:17.284Z</time></trkpt><trkpt lat="41.144884" lon="19.5892361"><ele>28.0</ele><time>2026-04-26T10:46:28.279Z</time></trkpt><trkpt lat="41.1448976" lon="19.5891085"><ele>28.0</ele><time>2026-04-26T10:47:18.28Z</time></trkpt><trkpt lat="41.1449261" lon="19.5891857"><ele>28.0</ele><time>2026-04-26T10:48:50.279Z</time></trkpt><trkpt lat="41.1448845" lon="19.5892498"><ele>28.0</ele><time>2026-04-26T10:48:57.279Z</time></trkpt><trkpt lat="41.1448369" lon="19.5893182"><ele>28.0</ele><time>2026-04-26T10:53:56.278Z</time></trkpt><trkpt lat="41.1448463" lon="19.5894088"><ele>28.0</ele><time>2026-04-26T10:54:02.277Z</time></trkpt><trkpt lat="41.1448469" lon="19.589497"><ele>28.0</ele><time>2026-04-26T10:54:08.276Z</time></trkpt><trkpt lat="41.1449093" lon="19.5895169"><ele>28.0</ele><time>2026-04-26T10:54:12.276Z</time></trkpt><trkpt lat="41.1449711" lon="19.5895001"><ele>28.0</ele><time>2026-04-26T10:54:15.279Z</time></trkpt><trkpt lat="41.1450233" lon="19.5894307"><ele>28.0</ele><time>2026-04-26T10:54:21.196Z</time></trkpt><trkpt lat="41.1450476" lon="19.5893409"><ele>28.0</ele><time>2026-04-26T10:54:26.278Z</time></trkpt><trkpt lat="41.1450346" lon="19.5894412"><ele>28.0</ele><time>2026-04-26T10:58:44.277Z</time></trkpt><trkpt lat="41.1450244" lon="19.5895546"><ele>28.333333333333336</ele><time>2026-04-26T10:58:48.279Z</time></trkpt><trkpt lat="41.1449668" lon="19.5895976"><ele>28.666666666666668</ele><time>2026-04-26T10:59:27.28Z</time></trkpt><trkpt lat="41.1449322" lon="19.5896793"><ele>29.0</ele><time>2026-04-26T10:59:31.275Z</time></trkpt><trkpt lat="41.1448857" lon="19.5897534"><ele>29.333333333333336</ele><time>2026-04-26T10:59:33.277Z</time></trkpt><trkpt lat="41.1448219" lon="19.5898541"><ele>29.666666666666668</ele><time>2026-04-26T10:59:35.279Z</time></trkpt><trkpt lat="41.144805" lon="19.5899608"><ele>30.0</ele><time>2026-04-26T10:59:56.276Z</time></trkpt><trkpt lat="41.1447375" lon="19.5900538"><ele>30.0</ele><time>2026-04-26T10:59:58.28Z</time></trkpt><trkpt lat="41.1446459" lon="19.5901628"><ele>30.0</ele><time>2026-04-26T11:00:00.277Z</time></trkpt><trkpt lat="41.1445915" lon="19.5902142"><ele>30.0</ele><time>2026-04-26T11:00:01.276Z</time></trkpt><trkpt lat="41.1445264" lon="19.590248"><ele>30.0</ele><time>2026-04-26T11:00:02.279Z</time></trkpt><trkpt lat="41.1444443" lon="19.5903109"><ele>30.0</ele><time>2026-04-26T11:00:03.279Z</time></trkpt><trkpt lat="41.1443535" lon="19.5903631"><ele>30.0</ele><time>2026-04-26T11:00:04.279Z</time></trkpt><trkpt lat="41.144258" lon="19.5904166"><ele>30.0</ele><time>2026-04-26T11:00:05.276Z</time></trkpt><trkpt lat="41.1441648" lon="19.5904651"><ele>30.0</ele><time>2026-04-26T11:00:06.277Z</time></trkpt><trkpt lat="41.1440685" lon="19.5905144"><ele>30.0</ele><time>2026-04-26T11:00:07.278Z</time></trkpt><trkpt lat="41.1439688" lon="19.5905631"><ele>30.0</ele><time>2026-04-26T11:00:08.276Z</time></trkpt><trkpt lat="41.1438647" lon="19.5906122"><ele>30.0</ele><time>2026-04-26T11:00:09.277Z</time></trkpt><trkpt lat="41.1437533" lon="19.5906687"><ele>30.0</ele><time>2026-04-26T11:00:10.277Z</time></trkpt><trkpt lat="41.1436388" lon="19.5907224"><ele>30.0</ele><time>2026-04-26T11:00:11.277Z</time></trkpt><trkpt lat="41.1435171" lon="19.5907798"><ele>30.0</ele><time>2026-04-26T11:00:12.278Z</time></trkpt><trkpt lat="41.1433926" lon="19.590842"><ele>30.0</ele><time>2026-04-26T11:00:13.277Z</time></trkpt><trkpt lat="41.1432561" lon="19.5909019"><ele>30.0</ele><time>2026-04-26T11:00:14.276Z</time></trkpt><trkpt lat="41.1431149" lon="19.5909691"><ele>30.0</ele><time>2026-04-26T11:00:15.278Z</time></trkpt><trkpt lat="41.1429651" lon="19.591045"><ele>30.0</ele><time>2026-04-26T11:00:16.275Z</time></trkpt><trkpt lat="41.1427969" lon="19.5911322"><ele>30.0</ele><time>2026-04-26T11:00:17.276Z</time></trkpt><trkpt lat="41.1426166" lon="19.5912265"><ele>30.0</ele><time>2026-04-26T11:00:18.278Z</time></trkpt><trkpt lat="41.1424325" lon="19.5913199"><ele>29.0</ele><time>2026-04-26T11:00:19.276Z</time></trkpt><trkpt lat="41.142237" lon="19.5914134"><ele>28.0</ele><time>2026-04-26T11:00:20.276Z</time></trkpt><trkpt lat="41.1420306" lon="19.5915096"><ele>27.0</ele><time>2026-04-26T11:00:21.277Z</time></trkpt><trkpt lat="41.1418164" lon="19.5916095"><ele>27.0</ele><time>2026-04-26T11:00:22.277Z</time></trkpt><trkpt lat="41.1415949" lon="19.5917138"><ele>27.0</ele><time>2026-04-26T11:00:23.279Z</time></trkpt><trkpt lat="41.141369" lon="19.5918211"><ele>26.5</ele><time>2026-04-26T11:00:24.277Z</time></trkpt><trkpt lat="41.1411381" lon="19.5919329"><ele>26.0</ele><time>2026-04-26T11:00:25.278Z</time></trkpt><trkpt lat="41.1409073" lon="19.59205"><ele>26.0</ele><time>2026-04-26T11:00:26.274Z</time></trkpt><trkpt lat="41.1406709" lon="19.592162"><ele>26.0</ele><time>2026-04-26T11:00:27.277Z</time></trkpt><trkpt lat="41.1404368" lon="19.5922676"><ele>26.0</ele><time>2026-04-26T11:00:28.277Z</time></trkpt><trkpt lat="41.1402079" lon="19.5923776"><ele>26.0</ele><time>2026-04-26T11:00:29.278Z</time></trkpt><trkpt lat="41.139981" lon="19.5924821"><ele>26.5</ele><time>2026-04-26T11:00:30.278Z</time></trkpt><trkpt lat="41.1397541" lon="19.592592"><ele>27.0</ele><time>2026-04-26T11:00:31.275Z</time></trkpt><trkpt lat="41.1395238" lon="19.5927008"><ele>27.0</ele><time>2026-04-26T11:00:32.277Z</time></trkpt><trkpt lat="41.139294" lon="19.5928073"><ele>27.0</ele><time>2026-04-26T11:00:33.278Z</time></trkpt><trkpt lat="41.1390629" lon="19.5929153"><ele>26.0</ele><time>2026-04-26T11:00:34.276Z</time></trkpt><trkpt lat="41.1388298" lon="19.5930247"><ele>25.0</ele><time>2026-04-26T11:00:35.276Z</time></trkpt><trkpt lat="41.1385936" lon="19.5931324"><ele>25.0</ele><time>2026-04-26T11:00:36.276Z</time></trkpt><trkpt lat="41.1383561" lon="19.5932411"><ele>25.0</ele><time>2026-04-26T11:00:37.277Z</time></trkpt><trkpt lat="41.1381193" lon="19.5933513"><ele>26.5</ele><time>2026-04-26T11:00:38.274Z</time></trkpt><trkpt lat="41.1378842" lon="19.5934649"><ele>28.0</ele><time>2026-04-26T11:00:39.279Z</time></trkpt><trkpt lat="41.1376499" lon="19.5935763"><ele>27.5</ele><time>2026-04-26T11:00:40.275Z</time></trkpt><trkpt lat="41.1374124" lon="19.5936912"><ele>27.0</ele><time>2026-04-26T11:00:41.278Z</time></trkpt><trkpt lat="41.137172" lon="19.5938016"><ele>27.0</ele><time>2026-04-26T11:00:42.276Z</time></trkpt><trkpt lat="41.1369285" lon="19.5939076"><ele>27.0</ele><time>2026-04-26T11:00:43.278Z</time></trkpt><trkpt lat="41.1366847" lon="19.5940112"><ele>27.0</ele><time>2026-04-26T11:00:44.276Z</time></trkpt><trkpt lat="41.1364382" lon="19.5941198"><ele>27.0</ele><time>2026-04-26T11:00:45.279Z</time></trkpt><trkpt lat="41.1361907" lon="19.5942316"><ele>27.0</ele><time>2026-04-26T11:00:46.278Z</time></trkpt><trkpt lat="41.1359492" lon="19.5943587"><ele>27.0</ele><time>2026-04-26T11:00:47.277Z</time></trkpt><trkpt lat="41.1357044" lon="19.5944752"><ele>26.0</ele><time>2026-04-26T11:00:48.277Z</time></trkpt><trkpt lat="41.1354635" lon="19.5945926"><ele>25.0</ele><time>2026-04-26T11:00:49.277Z</time></trkpt><trkpt lat="41.1352216" lon="19.594708"><ele>25.0</ele><time>2026-04-26T11:00:50.277Z</time></trkpt><trkpt lat="41.1349795" lon="19.5948221"><ele>25.0</ele><time>2026-04-26T11:00:51.278Z</time></trkpt><trkpt lat="41.1347362" lon="19.5949381"><ele>24.5</ele><time>2026-04-26T11:00:52.277Z</time></trkpt><trkpt lat="41.1344965" lon="19.5950518"><ele>24.0</ele><time>2026-04-26T11:00:53.276Z</time></trkpt><trkpt lat="41.1342571" lon="19.595165"><ele>24.0</ele><time>2026-04-26T11:00:54.277Z</time></trkpt><trkpt lat="41.1340196" lon="19.5952769"><ele>24.0</ele><time>2026-04-26T11:00:55.279Z</time></trkpt><trkpt lat="41.1337825" lon="19.5953893"><ele>26.0</ele><time>2026-04-26T11:00:56.276Z</time></trkpt><trkpt lat="41.1335502" lon="19.595497"><ele>28.0</ele><time>2026-04-26T11:00:57.276Z</time></trkpt><trkpt lat="41.1333196" lon="19.595606"><ele>26.5</ele><time>2026-04-26T11:00:58.277Z</time></trkpt><trkpt lat="41.1330911" lon="19.5957177"><ele>25.0</ele><time>2026-04-26T11:00:59.277Z</time></trkpt><trkpt lat="41.1328624" lon="19.5958303"><ele>25.0</ele><time>2026-04-26T11:01:00.276Z</time></trkpt><trkpt lat="41.132636" lon="19.5959417"><ele>25.0</ele><time>2026-04-26T11:01:01.276Z</time></trkpt><trkpt lat="41.1324047" lon="19.5960466"><ele>24.5</ele><time>2026-04-26T11:01:02.276Z</time></trkpt><trkpt lat="41.1321722" lon="19.5961571"><ele>24.0</ele><time>2026-04-26T11:01:03.278Z</time></trkpt><trkpt lat="41.1319378" lon="19.5962678"><ele>24.0</ele><time>2026-04-26T11:01:04.277Z</time></trkpt><trkpt lat="41.1317037" lon="19.5963791"><ele>24.0</ele><time>2026-04-26T11:01:05.278Z</time></trkpt><trkpt lat="41.1314692" lon="19.5964897"><ele>23.5</ele><time>2026-04-26T11:01:06.276Z</time></trkpt><trkpt lat="41.131236" lon="19.5966001"><ele>23.0</ele><time>2026-04-26T11:01:07.277Z</time></trkpt><trkpt lat="41.1310048" lon="19.5967098"><ele>23.0</ele><time>2026-04-26T11:01:08.275Z</time></trkpt><trkpt lat="41.1307744" lon="19.5968191"><ele>23.0</ele><time>2026-04-26T11:01:09.277Z</time></trkpt><trkpt lat="41.1305483" lon="19.5969264"><ele>23.5</ele><time>2026-04-26T11:01:10.277Z</time></trkpt><trkpt lat="41.1303192" lon="19.5970342"><ele>24.0</ele><time>2026-04-26T11:01:11.279Z</time></trkpt><trkpt lat="41.1300907" lon="19.5971421"><ele>24.0</ele><time>2026-04-26T11:01:12.277Z</time></trkpt><trkpt lat="41.1298646" lon="19.5972503"><ele>24.0</ele><time>2026-04-26T11:01:13.278Z</time></trkpt><trkpt lat="41.1296381" lon="19.5973593"><ele>24.0</ele><time>2026-04-26T11:01:14.275Z</time></trkpt><trkpt lat="41.1294127" lon="19.5974658"><ele>24.0</ele><time>2026-04-26T11:01:15.275Z</time></trkpt><trkpt lat="41.129185" lon="19.5975739"><ele>23.0</ele><time>2026-04-26T11:01:16.277Z</time></trkpt><trkpt lat="41.1289586" lon="19.5976818"><ele>22.0</ele><time>2026-04-26T11:01:17.275Z</time></trkpt><trkpt lat="41.1287328" lon="19.5977898"><ele>22.0</ele><time>2026-04-26T11:01:18.277Z</time></trkpt><trkpt lat="41.1285014" lon="19.5978984"><ele>22.0</ele><time>2026-04-26T11:01:19.276Z</time></trkpt><trkpt lat="41.1282734" lon="19.5980074"><ele>21.5</ele><time>2026-04-26T11:01:20.277Z</time></trkpt><trkpt lat="41.1280475" lon="19.5981145"><ele>21.0</ele><time>2026-04-26T11:01:21.277Z</time></trkpt><trkpt lat="41.1278212" lon="19.5982196"><ele>21.0</ele><time>2026-04-26T11:01:22.277Z</time></trkpt><trkpt lat="41.1275949" lon="19.5983255"><ele>21.0</ele><time>2026-04-26T11:01:23.28Z</time></trkpt><trkpt lat="41.1273693" lon="19.5984321"><ele>21.0</ele><time>2026-04-26T11:01:24.278Z</time></trkpt><trkpt lat="41.1271458" lon="19.5985416"><ele>21.0</ele><time>2026-04-26T11:01:25.276Z</time></trkpt><trkpt lat="41.1269221" lon="19.5986493"><ele>21.5</ele><time>2026-04-26T11:01:26.279Z</time></trkpt><trkpt lat="41.1266973" lon="19.5987548"><ele>22.0</ele><time>2026-04-26T11:01:27.278Z</time></trkpt><trkpt lat="41.1264718" lon="19.5988613"><ele>22.0</ele><time>2026-04-26T11:01:28.277Z</time></trkpt><trkpt lat="41.126247" lon="19.598969"><ele>22.0</ele><time>2026-04-26T11:01:29.275Z</time></trkpt><trkpt lat="41.1260223" lon="19.59908"><ele>22.0</ele><time>2026-04-26T11:01:30.278Z</time></trkpt><trkpt lat="41.1257968" lon="19.5991901"><ele>22.0</ele><time>2026-04-26T11:01:31.276Z</time></trkpt><trkpt lat="41.1255713" lon="19.5993021"><ele>21.5</ele><time>2026-04-26T11:01:32.278Z</time></trkpt><trkpt lat="41.1253438" lon="19.599413"><ele>21.0</ele><time>2026-04-26T11:01:33.275Z</time></trkpt><trkpt lat="41.125118" lon="19.5995259"><ele>21.0</ele><time>2026-04-26T11:01:34.274Z</time></trkpt><trkpt lat="41.1248911" lon="19.5996399"><ele>21.0</ele><time>2026-04-26T11:01:35.276Z</time></trkpt><trkpt lat="41.1246647" lon="19.5997518"><ele>21.0</ele><time>2026-04-26T11:01:36.276Z</time></trkpt><trkpt lat="41.124438" lon="19.5998643"><ele>21.0</ele><time>2026-04-26T11:01:37.274Z</time></trkpt><trkpt lat="41.1242126" lon="19.5999773"><ele>20.5</ele><time>2026-04-26T11:01:38.276Z</time></trkpt><trkpt lat="41.1239875" lon="19.600096"><ele>20.0</ele><time>2026-04-26T11:01:39.277Z</time></trkpt><trkpt lat="41.1237649" lon="19.6002108"><ele>20.0</ele><time>2026-04-26T11:01:40.276Z</time></trkpt><trkpt lat="41.1235401" lon="19.6003215"><ele>20.0</ele><time>2026-04-26T11:01:41.275Z</time></trkpt><trkpt lat="41.1233123" lon="19.6004333"><ele>20.5</ele><time>2026-04-26T11:01:42.278Z</time></trkpt><trkpt lat="41.1230848" lon="19.6005461"><ele>21.0</ele><time>2026-04-26T11:01:43.274Z</time></trkpt><trkpt lat="41.1228577" lon="19.6006603"><ele>21.0</ele><time>2026-04-26T11:01:44.276Z</time></trkpt><trkpt lat="41.1226301" lon="19.6007743"><ele>21.0</ele><time>2026-04-26T11:01:45.276Z</time></trkpt><trkpt lat="41.1224042" lon="19.600885"><ele>20.5</ele><time>2026-04-26T11:01:46.277Z</time></trkpt><trkpt lat="41.1221783" lon="19.6009997"><ele>20.0</ele><time>2026-04-26T11:01:47.276Z</time></trkpt><trkpt lat="41.1219515" lon="19.6011128"><ele>21.0</ele><time>2026-04-26T11:01:48.274Z</time></trkpt><trkpt lat="41.1217248" lon="19.6012252"><ele>22.0</ele><time>2026-04-26T11:01:49.275Z</time></trkpt><trkpt lat="41.1214984" lon="19.6013387"><ele>23.0</ele><time>2026-04-26T11:01:50.279Z</time></trkpt><trkpt lat="41.1212713" lon="19.6014542"><ele>24.0</ele><time>2026-04-26T11:01:51.275Z</time></trkpt><trkpt lat="41.1210442" lon="19.6015755"><ele>24.0</ele><time>2026-04-26T11:01:52.275Z</time></trkpt><trkpt lat="41.1208198" lon="19.6016961"><ele>24.0</ele><time>2026-04-26T11:01:53.276Z</time></trkpt><trkpt lat="41.1205963" lon="19.6018218"><ele>23.5</ele><time>2026-04-26T11:01:54.277Z</time></trkpt><trkpt lat="41.1203725" lon="19.6019483"><ele>23.0</ele><time>2026-04-26T11:01:55.274Z</time></trkpt><trkpt lat="41.1201518" lon="19.6020785"><ele>23.0</ele><time>2026-04-26T11:01:56.276Z</time></trkpt><trkpt lat="41.1199321" lon="19.6022082"><ele>23.0</ele><time>2026-04-26T11:01:57.277Z</time></trkpt><trkpt lat="41.1197121" lon="19.6023404"><ele>23.0</ele><time>2026-04-26T11:01:58.277Z</time></trkpt><trkpt lat="41.1194976" lon="19.6024696"><ele>23.0</ele><time>2026-04-26T11:01:59.274Z</time></trkpt><trkpt lat="41.1192796" lon="19.6025999"><ele>23.0</ele><time>2026-04-26T11:02:00.276Z</time></trkpt><trkpt lat="41.119063" lon="19.6027297"><ele>23.0</ele><time>2026-04-26T11:02:01.276Z</time></trkpt><trkpt lat="41.1188514" lon="19.602856"><ele>23.0</ele><time>2026-04-26T11:02:02.277Z</time></trkpt><trkpt lat="41.1186349" lon="19.6029856"><ele>23.0</ele><time>2026-04-26T11:02:03.276Z</time></trkpt><trkpt lat="41.1184209" lon="19.6031114"><ele>22.0</ele><time>2026-04-26T11:02:04.275Z</time></trkpt><trkpt lat="41.1182029" lon="19.6032328"><ele>21.0</ele><time>2026-04-26T11:02:05.274Z</time></trkpt><trkpt lat="41.1179778" lon="19.6033381"><ele>21.0</ele><time>2026-04-26T11:02:06.277Z</time></trkpt><trkpt lat="41.1177518" lon="19.6034357"><ele>21.0</ele><time>2026-04-26T11:02:07.275Z</time></trkpt><trkpt lat="41.1175208" lon="19.6035235"><ele>21.5</ele><time>2026-04-26T11:02:08.276Z</time></trkpt><trkpt lat="41.117293" lon="19.6036041"><ele>22.0</ele><time>2026-04-26T11:02:09.275Z</time></trkpt><trkpt lat="41.1170634" lon="19.6036822"><ele>22.0</ele><time>2026-04-26T11:02:10.277Z</time></trkpt><trkpt lat="41.1168344" lon="19.6037654"><ele>22.0</ele><time>2026-04-26T11:02:11.274Z</time></trkpt><trkpt lat="41.1166058" lon="19.6038528"><ele>22.5</ele><time>2026-04-26T11:02:12.276Z</time></trkpt><trkpt lat="41.1163782" lon="19.6039509"><ele>23.0</ele><time>2026-04-26T11:02:13.275Z</time></trkpt><trkpt lat="41.1161514" lon="19.6040556"><ele>23.0</ele><time>2026-04-26T11:02:14.276Z</time></trkpt><trkpt lat="41.1159262" lon="19.6041485"><ele>23.0</ele><time>2026-04-26T11:02:15.275Z</time></trkpt><trkpt lat="41.1156979" lon="19.6042571"><ele>22.5</ele><time>2026-04-26T11:02:16.276Z</time></trkpt><trkpt lat="41.1154692" lon="19.6043602"><ele>22.0</ele><time>2026-04-26T11:02:17.274Z</time></trkpt><trkpt lat="41.1152416" lon="19.6044628"><ele>22.0</ele><time>2026-04-26T11:02:18.275Z</time></trkpt><trkpt lat="41.1150145" lon="19.6045655"><ele>22.0</ele><time>2026-04-26T11:02:19.275Z</time></trkpt><trkpt lat="41.1147847" lon="19.6046692"><ele>22.0</ele><time>2026-04-26T11:02:20.276Z</time></trkpt><trkpt lat="41.1145552" lon="19.6047705"><ele>22.0</ele><time>2026-04-26T11:02:21.275Z</time></trkpt><trkpt lat="41.1143287" lon="19.6048726"><ele>22.0</ele><time>2026-04-26T11:02:22.276Z</time></trkpt><trkpt lat="41.1140946" lon="19.6049577"><ele>22.0</ele><time>2026-04-26T11:02:23.276Z</time></trkpt><trkpt lat="41.1138698" lon="19.6050537"><ele>22.5</ele><time>2026-04-26T11:02:24.274Z</time></trkpt><trkpt lat="41.1136468" lon="19.605151"><ele>23.0</ele><time>2026-04-26T11:02:25.277Z</time></trkpt><trkpt lat="41.1134243" lon="19.6052372"><ele>23.5</ele><time>2026-04-26T11:02:26.278Z</time></trkpt><trkpt lat="41.1132015" lon="19.605333"><ele>24.0</ele><time>2026-04-26T11:02:27.275Z</time></trkpt><trkpt lat="41.1129779" lon="19.6054308"><ele>24.0</ele><time>2026-04-26T11:02:28.277Z</time></trkpt><trkpt lat="41.112754" lon="19.6055275"><ele>24.0</ele><time>2026-04-26T11:02:29.275Z</time></trkpt><trkpt lat="41.1125302" lon="19.6056241"><ele>23.5</ele><time>2026-04-26T11:02:30.279Z</time></trkpt><trkpt lat="41.112309" lon="19.6057257"><ele>23.0</ele><time>2026-04-26T11:02:31.275Z</time></trkpt><trkpt lat="41.1120831" lon="19.6058228"><ele>23.0</ele><time>2026-04-26T11:02:32.276Z</time></trkpt><trkpt lat="41.1118613" lon="19.6059164"><ele>23.0</ele><time>2026-04-26T11:02:33.276Z</time></trkpt><trkpt lat="41.1116387" lon="19.6060121"><ele>23.0</ele><time>2026-04-26T11:02:34.275Z</time></trkpt><trkpt lat="41.1114154" lon="19.6061095"><ele>23.0</ele><time>2026-04-26T11:02:35.277Z</time></trkpt><trkpt lat="41.1111938" lon="19.6062079"><ele>23.0</ele><time>2026-04-26T11:02:36.277Z</time></trkpt><trkpt lat="41.110971" lon="19.6063075"><ele>23.0</ele><time>2026-04-26T11:02:37.276Z</time></trkpt><trkpt lat="41.1107452" lon="19.6064101"><ele>22.5</ele><time>2026-04-26T11:02:38.277Z</time></trkpt><trkpt lat="41.1105186" lon="19.606511"><ele>22.0</ele><time>2026-04-26T11:02:39.278Z</time></trkpt><trkpt lat="41.1102894" lon="19.6066097"><ele>22.0</ele><time>2026-04-26T11:02:40.275Z</time></trkpt><trkpt lat="41.1100578" lon="19.6067082"><ele>22.0</ele><time>2026-04-26T11:02:41.275Z</time></trkpt><trkpt lat="41.109824" lon="19.6068101"><ele>22.0</ele><time>2026-04-26T11:02:42.274Z</time></trkpt><trkpt lat="41.1095894" lon="19.6069134"><ele>22.0</ele><time>2026-04-26T11:02:43.276Z</time></trkpt><trkpt lat="41.109356" lon="19.6070273"><ele>23.0</ele><time>2026-04-26T11:02:44.276Z</time></trkpt><trkpt lat="41.1091139" lon="19.6071265"><ele>24.0</ele><time>2026-04-26T11:02:45.278Z</time></trkpt><trkpt lat="41.1088712" lon="19.6072263"><ele>22.0</ele><time>2026-04-26T11:02:46.277Z</time></trkpt><trkpt lat="41.1086266" lon="19.6073306"><ele>20.0</ele><time>2026-04-26T11:02:47.274Z</time></trkpt><trkpt lat="41.1083861" lon="19.6074346"><ele>19.0</ele><time>2026-04-26T11:02:48.278Z</time></trkpt><trkpt lat="41.1081394" lon="19.6075448"><ele>18.0</ele><time>2026-04-26T11:02:49.276Z</time></trkpt><trkpt lat="41.1078963" lon="19.6076473"><ele>18.0</ele><time>2026-04-26T11:02:50.277Z</time></trkpt><trkpt lat="41.1076552" lon="19.6077511"><ele>18.0</ele><time>2026-04-26T11:02:51.278Z</time></trkpt><trkpt lat="41.1074127" lon="19.6078583"><ele>18.0</ele><time>2026-04-26T11:02:52.275Z</time></trkpt><trkpt lat="41.1071699" lon="19.6079644"><ele>18.0</ele><time>2026-04-26T11:02:53.276Z</time></trkpt><trkpt lat="41.1069291" lon="19.6080717"><ele>18.0</ele><time>2026-04-26T11:02:54.277Z</time></trkpt><trkpt lat="41.1066905" lon="19.6081752"><ele>18.0</ele><time>2026-04-26T11:02:55.277Z</time></trkpt><trkpt lat="41.1064538" lon="19.6082735"><ele>17.0</ele><time>2026-04-26T11:02:56.275Z</time></trkpt><trkpt lat="41.1062194" lon="19.6083637"><ele>16.0</ele><time>2026-04-26T11:02:57.276Z</time></trkpt><trkpt lat="41.1059835" lon="19.6084441"><ele>16.0</ele><time>2026-04-26T11:02:58.277Z</time></trkpt><trkpt lat="41.105747" lon="19.6085163"><ele>16.0</ele><time>2026-04-26T11:02:59.275Z</time></trkpt><trkpt lat="41.1055052" lon="19.608576"><ele>15.5</ele><time>2026-04-26T11:03:00.275Z</time></trkpt><trkpt lat="41.1052639" lon="19.6086333"><ele>15.0</ele><time>2026-04-26T11:03:01.273Z</time></trkpt><trkpt lat="41.1050185" lon="19.6086764"><ele>15.0</ele><time>2026-04-26T11:03:02.277Z</time></trkpt><trkpt lat="41.1047747" lon="19.6087115"><ele>15.0</ele><time>2026-04-26T11:03:03.276Z</time></trkpt><trkpt lat="41.1045289" lon="19.6087419"><ele>15.0</ele><time>2026-04-26T11:03:04.276Z</time></trkpt><trkpt lat="41.1042837" lon="19.6087696"><ele>15.0</ele><time>2026-04-26T11:03:05.276Z</time></trkpt><trkpt lat="41.1040382" lon="19.6087963"><ele>14.5</ele><time>2026-04-26T11:03:06.276Z</time></trkpt><trkpt lat="41.1037936" lon="19.6088218"><ele>14.0</ele><time>2026-04-26T11:03:07.277Z</time></trkpt><trkpt lat="41.1035504" lon="19.6088497"><ele>14.0</ele><time>2026-04-26T11:03:08.277Z</time></trkpt><trkpt lat="41.1033093" lon="19.6088737"><ele>14.0</ele><time>2026-04-26T11:03:09.276Z</time></trkpt><trkpt lat="41.1030702" lon="19.6088989"><ele>16.0</ele><time>2026-04-26T11:03:10.275Z</time></trkpt><trkpt lat="41.1028338" lon="19.6089297"><ele>18.0</ele><time>2026-04-26T11:03:11.274Z</time></trkpt><trkpt lat="41.1025982" lon="19.6089554"><ele>18.0</ele><time>2026-04-26T11:03:12.278Z</time></trkpt><trkpt lat="41.1023657" lon="19.6089809"><ele>18.0</ele><time>2026-04-26T11:03:13.277Z</time></trkpt><trkpt lat="41.1021347" lon="19.6089963"><ele>18.0</ele><time>2026-04-26T11:03:14.275Z</time></trkpt><trkpt lat="41.1019033" lon="19.6090209"><ele>18.0</ele><time>2026-04-26T11:03:15.277Z</time></trkpt><trkpt lat="41.1016706" lon="19.6090463"><ele>18.5</ele><time>2026-04-26T11:03:16.275Z</time></trkpt><trkpt lat="41.1014376" lon="19.6090705"><ele>19.0</ele><time>2026-04-26T11:03:17.275Z</time></trkpt><trkpt lat="41.101205" lon="19.6090948"><ele>19.0</ele><time>2026-04-26T11:03:18.276Z</time></trkpt><trkpt lat="41.1009732" lon="19.6091149"><ele>19.0</ele><time>2026-04-26T11:03:19.276Z</time></trkpt><trkpt lat="41.1007435" lon="19.6091328"><ele>18.5</ele><time>2026-04-26T11:03:20.273Z</time></trkpt><trkpt lat="41.1005153" lon="19.6091464"><ele>18.0</ele><time>2026-04-26T11:03:21.275Z</time></trkpt><trkpt lat="41.1002868" lon="19.6091554"><ele>18.0</ele><time>2026-04-26T11:03:22.276Z</time></trkpt><trkpt lat="41.1000578" lon="19.6091601"><ele>18.0</ele><time>2026-04-26T11:03:23.279Z</time></trkpt><trkpt lat="41.0998284" lon="19.6091609"><ele>17.5</ele><time>2026-04-26T11:03:24.276Z</time></trkpt><trkpt lat="41.0995984" lon="19.6091601"><ele>17.0</ele><time>2026-04-26T11:03:25.277Z</time></trkpt><trkpt lat="41.0993684" lon="19.6091525"><ele>17.0</ele><time>2026-04-26T11:03:26.276Z</time></trkpt><trkpt lat="41.0991503" lon="19.6091275"><ele>17.0</ele><time>2026-04-26T11:03:27.276Z</time></trkpt><trkpt lat="41.0989196" lon="19.6091124"><ele>16.0</ele><time>2026-04-26T11:03:28.275Z</time></trkpt><trkpt lat="41.0986883" lon="19.609096"><ele>15.0</ele><time>2026-04-26T11:03:29.274Z</time></trkpt><trkpt lat="41.0984573" lon="19.6090736"><ele>14.5</ele><time>2026-04-26T11:03:30.273Z</time></trkpt><trkpt lat="41.0982272" lon="19.6090472"><ele>14.0</ele><time>2026-04-26T11:03:31.277Z</time></trkpt><trkpt lat="41.0979987" lon="19.6090192"><ele>14.0</ele><time>2026-04-26T11:03:32.276Z</time></trkpt><trkpt lat="41.0977655" lon="19.608984"><ele>14.0</ele><time>2026-04-26T11:03:33.275Z</time></trkpt><trkpt lat="41.0975391" lon="19.6089562"><ele>13.5</ele><time>2026-04-26T11:03:34.276Z</time></trkpt><trkpt lat="41.0973139" lon="19.6089268"><ele>13.0</ele><time>2026-04-26T11:03:35.276Z</time></trkpt><trkpt lat="41.0970862" lon="19.6088965"><ele>13.0</ele><time>2026-04-26T11:03:36.277Z</time></trkpt><trkpt lat="41.0968562" lon="19.6088675"><ele>13.0</ele><time>2026-04-26T11:03:37.277Z</time></trkpt><trkpt lat="41.0966244" lon="19.6088378"><ele>11.5</ele><time>2026-04-26T11:03:38.277Z</time></trkpt><trkpt lat="41.0963912" lon="19.6088067"><ele>10.0</ele><time>2026-04-26T11:03:39.274Z</time></trkpt><trkpt lat="41.0961534" lon="19.6087753"><ele>10.0</ele><time>2026-04-26T11:03:40.276Z</time></trkpt><trkpt lat="41.0959099" lon="19.6087472"><ele>10.0</ele><time>2026-04-26T11:03:41.274Z</time></trkpt><trkpt lat="41.0956633" lon="19.60872"><ele>9.5</ele><time>2026-04-26T11:03:42.275Z</time></trkpt><trkpt lat="41.0954109" lon="19.6086908"><ele>9.0</ele><time>2026-04-26T11:03:43.274Z</time></trkpt><trkpt lat="41.0951582" lon="19.6086649"><ele>10.0</ele><time>2026-04-26T11:03:44.277Z</time></trkpt><trkpt lat="41.094909" lon="19.6086497"><ele>11.0</ele><time>2026-04-26T11:03:45.276Z</time></trkpt><trkpt lat="41.0946656" lon="19.6086414"><ele>11.0</ele><time>2026-04-26T11:03:46.276Z</time></trkpt><trkpt lat="41.0944192" lon="19.6086426"><ele>11.0</ele><time>2026-04-26T11:03:47.273Z</time></trkpt><trkpt lat="41.0941707" lon="19.6086548"><ele>10.0</ele><time>2026-04-26T11:03:48.276Z</time></trkpt><trkpt lat="41.0939227" lon="19.6086771"><ele>9.0</ele><time>2026-04-26T11:03:49.277Z</time></trkpt><trkpt lat="41.0936738" lon="19.608705"><ele>9.0</ele><time>2026-04-26T11:03:50.275Z</time></trkpt><trkpt lat="41.0934252" lon="19.6087422"><ele>9.0</ele><time>2026-04-26T11:03:51.277Z</time></trkpt><trkpt lat="41.0931647" lon="19.6087895"><ele>8.5</ele><time>2026-04-26T11:03:52.276Z</time></trkpt><trkpt lat="41.0929208" lon="19.6088464"><ele>8.0</ele><time>2026-04-26T11:03:53.275Z</time></trkpt><trkpt lat="41.0926767" lon="19.6089104"><ele>8.0</ele><time>2026-04-26T11:03:54.275Z</time></trkpt><trkpt lat="41.092436" lon="19.6089837"><ele>8.0</ele><time>2026-04-26T11:03:55.277Z</time></trkpt><trkpt lat="41.0921941" lon="19.6090643"><ele>7.0</ele><time>2026-04-26T11:03:56.276Z</time></trkpt><trkpt lat="41.0919475" lon="19.6091573"><ele>6.0</ele><time>2026-04-26T11:03:57.276Z</time></trkpt><trkpt lat="41.0917027" lon="19.6092593"><ele>6.0</ele><time>2026-04-26T11:03:58.275Z</time></trkpt><trkpt lat="41.0914569" lon="19.6093736"><ele>6.0</ele><time>2026-04-26T11:03:59.276Z</time></trkpt><trkpt lat="41.0912056" lon="19.6095042"><ele>6.5</ele><time>2026-04-26T11:04:00.278Z</time></trkpt><trkpt lat="41.090964" lon="19.6096411"><ele>7.0</ele><time>2026-04-26T11:04:01.276Z</time></trkpt><trkpt lat="41.0907252" lon="19.6097866"><ele>7.5</ele><time>2026-04-26T11:04:02.275Z</time></trkpt><trkpt lat="41.0904914" lon="19.6099316"><ele>8.0</ele><time>2026-04-26T11:04:03.277Z</time></trkpt><trkpt lat="41.090265" lon="19.6100918"><ele>8.0</ele><time>2026-04-26T11:04:04.276Z</time></trkpt><trkpt lat="41.0900445" lon="19.6102569"><ele>8.0</ele><time>2026-04-26T11:04:05.276Z</time></trkpt><trkpt lat="41.0898269" lon="19.6104259"><ele>8.5</ele><time>2026-04-26T11:04:06.276Z</time></trkpt><trkpt lat="41.0896133" lon="19.6106021"><ele>9.0</ele><time>2026-04-26T11:04:07.277Z</time></trkpt><trkpt lat="41.0894064" lon="19.610783"><ele>9.0</ele><time>2026-04-26T11:04:08.279Z</time></trkpt><trkpt lat="41.0892048" lon="19.6109722"><ele>9.0</ele><time>2026-04-26T11:04:09.273Z</time></trkpt><trkpt lat="41.0890113" lon="19.6111686"><ele>9.0</ele><time>2026-04-26T11:04:10.274Z</time></trkpt><trkpt lat="41.0888214" lon="19.61137"><ele>9.0</ele><time>2026-04-26T11:04:11.276Z</time></trkpt><trkpt lat="41.0886351" lon="19.611579"><ele>9.0</ele><time>2026-04-26T11:04:12.277Z</time></trkpt><trkpt lat="41.0884541" lon="19.6117946"><ele>9.0</ele><time>2026-04-26T11:04:13.275Z</time></trkpt><trkpt lat="41.0882784" lon="19.6120143"><ele>7.5</ele><time>2026-04-26T11:04:14.275Z</time></trkpt><trkpt lat="41.0881077" lon="19.6122409"><ele>6.0</ele><time>2026-04-26T11:04:15.276Z</time></trkpt><trkpt lat="41.0879451" lon="19.6124739"><ele>6.0</ele><time>2026-04-26T11:04:16.276Z</time></trkpt><trkpt lat="41.0877835" lon="19.6127187"><ele>6.0</ele><time>2026-04-26T11:04:17.275Z</time></trkpt><trkpt lat="41.0876245" lon="19.612958"><ele>7.0</ele><time>2026-04-26T11:04:18.275Z</time></trkpt><trkpt lat="41.0874668" lon="19.6131983"><ele>8.0</ele><time>2026-04-26T11:04:19.274Z</time></trkpt><trkpt lat="41.0873101" lon="19.6134399"><ele>8.0</ele><time>2026-04-26T11:04:20.273Z</time></trkpt><trkpt lat="41.0871533" lon="19.6136813"><ele>8.0</ele><time>2026-04-26T11:04:21.277Z</time></trkpt><trkpt lat="41.0869952" lon="19.6139229"><ele>8.0</ele><time>2026-04-26T11:04:22.275Z</time></trkpt><trkpt lat="41.0868344" lon="19.6141665"><ele>8.0</ele><time>2026-04-26T11:04:23.276Z</time></trkpt><trkpt lat="41.086672" lon="19.6144138"><ele>8.5</ele><time>2026-04-26T11:04:24.279Z</time></trkpt><trkpt lat="41.0865084" lon="19.6146607"><ele>9.0</ele><time>2026-04-26T11:04:25.276Z</time></trkpt><trkpt lat="41.0863424" lon="19.6149131"><ele>9.0</ele><time>2026-04-26T11:04:26.275Z</time></trkpt><trkpt lat="41.0861736" lon="19.6151723"><ele>9.0</ele><time>2026-04-26T11:04:27.279Z</time></trkpt><trkpt lat="41.0860043" lon="19.6154299"><ele>8.5</ele><time>2026-04-26T11:04:28.277Z</time></trkpt><trkpt lat="41.0858347" lon="19.6156885"><ele>8.0</ele><time>2026-04-26T11:04:29.278Z</time></trkpt><trkpt lat="41.0856688" lon="19.615952"><ele>7.5</ele><time>2026-04-26T11:04:30.274Z</time></trkpt><trkpt lat="41.0855043" lon="19.6162138"><ele>7.0</ele><time>2026-04-26T11:04:31.276Z</time></trkpt><trkpt lat="41.085337" lon="19.6164745"><ele>7.0</ele><time>2026-04-26T11:04:32.276Z</time></trkpt><trkpt lat="41.085171" lon="19.6167327"><ele>7.0</ele><time>2026-04-26T11:04:33.274Z</time></trkpt><trkpt lat="41.085004" lon="19.6169874"><ele>7.5</ele><time>2026-04-26T11:04:34.274Z</time></trkpt><trkpt lat="41.0848363" lon="19.6172422"><ele>8.0</ele><time>2026-04-26T11:04:35.277Z</time></trkpt><trkpt lat="41.0846683" lon="19.6174936"><ele>8.0</ele><time>2026-04-26T11:04:36.278Z</time></trkpt><trkpt lat="41.0844985" lon="19.6177456"><ele>8.0</ele><time>2026-04-26T11:04:37.276Z</time></trkpt><trkpt lat="41.0843267" lon="19.6179948"><ele>9.0</ele><time>2026-04-26T11:04:38.275Z</time></trkpt><trkpt lat="41.0841524" lon="19.6182473"><ele>10.0</ele><time>2026-04-26T11:04:39.274Z</time></trkpt><trkpt lat="41.0839708" lon="19.6184902"><ele>10.0</ele><time>2026-04-26T11:04:40.275Z</time></trkpt><trkpt lat="41.0837851" lon="19.6187322"><ele>10.0</ele><time>2026-04-26T11:04:41.275Z</time></trkpt><trkpt lat="41.0835989" lon="19.618971"><ele>10.0</ele><time>2026-04-26T11:04:42.275Z</time></trkpt><trkpt lat="41.0834142" lon="19.6192129"><ele>10.0</ele><time>2026-04-26T11:04:43.276Z</time></trkpt><trkpt lat="41.0832297" lon="19.61945"><ele>10.0</ele><time>2026-04-26T11:04:44.276Z</time></trkpt><trkpt lat="41.083046" lon="19.6196878"><ele>10.0</ele><time>2026-04-26T11:04:45.275Z</time></trkpt><trkpt lat="41.082859" lon="19.6199191"><ele>10.0</ele><time>2026-04-26T11:04:46.275Z</time></trkpt><trkpt lat="41.082673" lon="19.6201479"><ele>10.0</ele><time>2026-04-26T11:04:47.276Z</time></trkpt><trkpt lat="41.0824914" lon="19.620377"><ele>10.0</ele><time>2026-04-26T11:04:48.279Z</time></trkpt><trkpt lat="41.0823093" lon="19.6206104"><ele>10.0</ele><time>2026-04-26T11:04:49.275Z</time></trkpt><trkpt lat="41.0821296" lon="19.620839"><ele>10.0</ele><time>2026-04-26T11:04:50.276Z</time></trkpt><trkpt lat="41.0819515" lon="19.6210617"><ele>10.0</ele><time>2026-04-26T11:04:51.278Z</time></trkpt><trkpt lat="41.0817725" lon="19.621286"><ele>10.5</ele><time>2026-04-26T11:04:52.276Z</time></trkpt><trkpt lat="41.0815911" lon="19.6215107"><ele>11.0</ele><time>2026-04-26T11:04:53.277Z</time></trkpt><trkpt lat="41.0814131" lon="19.6217371"><ele>11.0</ele><time>2026-04-26T11:04:54.279Z</time></trkpt><trkpt lat="41.0812338" lon="19.6219669"><ele>11.0</ele><time>2026-04-26T11:04:55.276Z</time></trkpt><trkpt lat="41.0810549" lon="19.6222005"><ele>11.5</ele><time>2026-04-26T11:04:56.277Z</time></trkpt><trkpt lat="41.0808769" lon="19.6224321"><ele>12.0</ele><time>2026-04-26T11:04:57.278Z</time></trkpt><trkpt lat="41.0806983" lon="19.6226631"><ele>12.5</ele><time>2026-04-26T11:04:58.276Z</time></trkpt><trkpt lat="41.0805204" lon="19.6228961"><ele>13.0</ele><time>2026-04-26T11:04:59.278Z</time></trkpt><trkpt lat="41.0803428" lon="19.6231303"><ele>13.0</ele><time>2026-04-26T11:05:00.275Z</time></trkpt><trkpt lat="41.0801689" lon="19.6233592"><ele>13.0</ele><time>2026-04-26T11:05:01.277Z</time></trkpt><trkpt lat="41.0799909" lon="19.6235904"><ele>12.5</ele><time>2026-04-26T11:05:02.278Z</time></trkpt><trkpt lat="41.0798128" lon="19.6238198"><ele>12.0</ele><time>2026-04-26T11:05:03.276Z</time></trkpt><trkpt lat="41.0796337" lon="19.6240474"><ele>12.0</ele><time>2026-04-26T11:05:04.276Z</time></trkpt><trkpt lat="41.0794552" lon="19.624271"><ele>12.0</ele><time>2026-04-26T11:05:05.274Z</time></trkpt><trkpt lat="41.0792724" lon="19.6244934"><ele>13.0</ele><time>2026-04-26T11:05:06.276Z</time></trkpt><trkpt lat="41.0790846" lon="19.6247103"><ele>14.0</ele><time>2026-04-26T11:05:07.279Z</time></trkpt><trkpt lat="41.0788935" lon="19.6249234"><ele>14.0</ele><time>2026-04-26T11:05:08.277Z</time></trkpt><trkpt lat="41.0786999" lon="19.6251286"><ele>14.0</ele><time>2026-04-26T11:05:09.276Z</time></trkpt><trkpt lat="41.0784994" lon="19.6253324"><ele>14.5</ele><time>2026-04-26T11:05:10.277Z</time></trkpt><trkpt lat="41.0782954" lon="19.625532"><ele>15.0</ele><time>2026-04-26T11:05:11.276Z</time></trkpt><trkpt lat="41.0780893" lon="19.6257284"><ele>13.5</ele><time>2026-04-26T11:05:12.276Z</time></trkpt><trkpt lat="41.0778816" lon="19.625923"><ele>12.0</ele><time>2026-04-26T11:05:13.275Z</time></trkpt><trkpt lat="41.0776725" lon="19.6261184"><ele>12.0</ele><time>2026-04-26T11:05:14.274Z</time></trkpt><trkpt lat="41.0774655" lon="19.6263193"><ele>12.0</ele><time>2026-04-26T11:05:15.276Z</time></trkpt><trkpt lat="41.0772626" lon="19.6265299"><ele>12.0</ele><time>2026-04-26T11:05:16.276Z</time></trkpt><trkpt lat="41.0770662" lon="19.6267503"><ele>12.0</ele><time>2026-04-26T11:05:17.277Z</time></trkpt><trkpt lat="41.0768737" lon="19.6269829"><ele>12.0</ele><time>2026-04-26T11:05:18.278Z</time></trkpt><trkpt lat="41.0766824" lon="19.6272252"><ele>12.0</ele><time>2026-04-26T11:05:19.278Z</time></trkpt><trkpt lat="41.0764927" lon="19.6274778"><ele>12.0</ele><time>2026-04-26T11:05:20.277Z</time></trkpt><trkpt lat="41.0763079" lon="19.6277501"><ele>12.0</ele><time>2026-04-26T11:05:21.276Z</time></trkpt><trkpt lat="41.0761273" lon="19.628039"><ele>13.0</ele><time>2026-04-26T11:05:22.275Z</time></trkpt><trkpt lat="41.0759523" lon="19.6283432"><ele>14.0</ele><time>2026-04-26T11:05:23.275Z</time></trkpt><trkpt lat="41.0757844" lon="19.6286535"><ele>13.5</ele><time>2026-04-26T11:05:24.275Z</time></trkpt><trkpt lat="41.075616" lon="19.6289671"><ele>13.0</ele><time>2026-04-26T11:05:25.276Z</time></trkpt><trkpt lat="41.0754508" lon="19.6292791"><ele>12.5</ele><time>2026-04-26T11:05:26.276Z</time></trkpt><trkpt lat="41.0752863" lon="19.6295906"><ele>12.0</ele><time>2026-04-26T11:05:27.275Z</time></trkpt><trkpt lat="41.0751182" lon="19.6298937"><ele>12.0</ele><time>2026-04-26T11:05:28.274Z</time></trkpt><trkpt lat="41.0749507" lon="19.6302002"><ele>12.0</ele><time>2026-04-26T11:05:29.274Z</time></trkpt><trkpt lat="41.0747856" lon="19.6305023"><ele>11.5</ele><time>2026-04-26T11:05:30.275Z</time></trkpt><trkpt lat="41.0746198" lon="19.6308034"><ele>11.0</ele><time>2026-04-26T11:05:31.276Z</time></trkpt><trkpt lat="41.0744575" lon="19.6311031"><ele>10.5</ele><time>2026-04-26T11:05:32.275Z</time></trkpt><trkpt lat="41.0742947" lon="19.6314018"><ele>10.0</ele><time>2026-04-26T11:05:33.278Z</time></trkpt><trkpt lat="41.0741316" lon="19.6317045"><ele>9.0</ele><time>2026-04-26T11:05:34.277Z</time></trkpt><trkpt lat="41.0739701" lon="19.6320085"><ele>8.0</ele><time>2026-04-26T11:05:35.277Z</time></trkpt><trkpt lat="41.0738115" lon="19.6323067"><ele>8.0</ele><time>2026-04-26T11:05:36.278Z</time></trkpt><trkpt lat="41.0736614" lon="19.6325984"><ele>8.0</ele><time>2026-04-26T11:05:37.276Z</time></trkpt><trkpt lat="41.0735176" lon="19.6328868"><ele>8.5</ele><time>2026-04-26T11:05:38.274Z</time></trkpt><trkpt lat="41.0733841" lon="19.6331719"><ele>9.0</ele><time>2026-04-26T11:05:39.276Z</time></trkpt><trkpt lat="41.0732635" lon="19.6334623"><ele>8.5</ele><time>2026-04-26T11:05:40.276Z</time></trkpt><trkpt lat="41.0731511" lon="19.6337532"><ele>8.0</ele><time>2026-04-26T11:05:41.275Z</time></trkpt><trkpt lat="41.0730473" lon="19.6340462"><ele>8.0</ele><time>2026-04-26T11:05:42.278Z</time></trkpt><trkpt lat="41.0729517" lon="19.6343384"><ele>8.0</ele><time>2026-04-26T11:05:43.277Z</time></trkpt><trkpt lat="41.0728687" lon="19.6346218"><ele>8.333333333333332</ele><time>2026-04-26T11:05:44.277Z</time></trkpt><trkpt lat="41.0727917" lon="19.6348965"><ele>8.666666666666666</ele><time>2026-04-26T11:05:45.275Z</time></trkpt><trkpt lat="41.0727213" lon="19.6351552"><ele>9.0</ele><time>2026-04-26T11:05:46.277Z</time></trkpt><trkpt lat="41.0726536" lon="19.6354048"><ele>9.333333333333334</ele><time>2026-04-26T11:05:47.278Z</time></trkpt><trkpt lat="41.0725924" lon="19.6356401"><ele>9.666666666666668</ele><time>2026-04-26T11:05:48.277Z</time></trkpt><trkpt lat="41.0725442" lon="19.6358547"><ele>10.0</ele><time>2026-04-26T11:05:49.276Z</time></trkpt><trkpt lat="41.0725048" lon="19.6360482"><ele>10.0</ele><time>2026-04-26T11:05:50.276Z</time></trkpt><trkpt lat="41.0724743" lon="19.6362099"><ele>10.0</ele><time>2026-04-26T11:05:51.277Z</time></trkpt><trkpt lat="41.0724518" lon="19.6363359"><ele>10.0</ele><time>2026-04-26T11:05:52.275Z</time></trkpt><trkpt lat="41.0724357" lon="19.6364423"><ele>10.0</ele><time>2026-04-26T11:05:53.276Z</time></trkpt><trkpt lat="41.0724211" lon="19.6365301"><ele>10.0</ele><time>2026-04-26T11:05:54.273Z</time></trkpt><trkpt lat="41.072398" lon="19.6366849"><ele>10.0</ele><time>2026-04-26T11:05:56.274Z</time></trkpt><trkpt lat="41.0723785" lon="19.6368053"><ele>10.0</ele><time>2026-04-26T11:05:58.275Z</time></trkpt><trkpt lat="41.0723491" lon="19.6369043"><ele>10.0</ele><time>2026-04-26T11:06:00.277Z</time></trkpt><trkpt lat="41.0722818" lon="19.6369984"><ele>10.0</ele><time>2026-04-26T11:06:02.28Z</time></trkpt><trkpt lat="41.0722321" lon="19.6370526"><ele>10.0</ele><time>2026-04-26T11:06:03.277Z</time></trkpt><trkpt lat="41.0721837" lon="19.637111"><ele>10.0</ele><time>2026-04-26T11:06:04.278Z</time></trkpt><trkpt lat="41.0721382" lon="19.6371759"><ele>10.0</ele><time>2026-04-26T11:06:05.274Z</time></trkpt><trkpt lat="41.0720923" lon="19.6372426"><ele>10.0</ele><time>2026-04-26T11:06:06.274Z</time></trkpt><trkpt lat="41.0720356" lon="19.6373152"><ele>10.0</ele><time>2026-04-26T11:06:07.274Z</time></trkpt><trkpt lat="41.0719466" lon="19.6373811"><ele>10.0</ele><time>2026-04-26T11:06:08.275Z</time></trkpt><trkpt lat="41.0718308" lon="19.6374444"><ele>10.0</ele><time>2026-04-26T11:06:09.276Z</time></trkpt><trkpt lat="41.0716928" lon="19.6374917"><ele>9.666666666666668</ele><time>2026-04-26T11:06:10.275Z</time></trkpt><trkpt lat="41.0715275" lon="19.6375344"><ele>9.333333333333334</ele><time>2026-04-26T11:06:11.275Z</time></trkpt><trkpt lat="41.0713746" lon="19.6376045"><ele>9.0</ele><time>2026-04-26T11:06:12.276Z</time></trkpt><trkpt lat="41.0712176" lon="19.6377081"><ele>8.666666666666666</ele><time>2026-04-26T11:06:13.278Z</time></trkpt><trkpt lat="41.0710584" lon="19.6378389"><ele>8.333333333333332</ele><time>2026-04-26T11:06:14.275Z</time></trkpt><trkpt lat="41.0708975" lon="19.6379893"><ele>8.0</ele><time>2026-04-26T11:06:15.278Z</time></trkpt><trkpt lat="41.0707459" lon="19.6381485"><ele>8.0</ele><time>2026-04-26T11:06:16.276Z</time></trkpt><trkpt lat="41.0705943" lon="19.6383208"><ele>8.0</ele><time>2026-04-26T11:06:17.275Z</time></trkpt><trkpt lat="41.0704451" lon="19.6385025"><ele>8.0</ele><time>2026-04-26T11:06:18.275Z</time></trkpt><trkpt lat="41.070301" lon="19.6386926"><ele>8.666666666666666</ele><time>2026-04-26T11:06:19.274Z</time></trkpt><trkpt lat="41.0701544" lon="19.6388791"><ele>9.333333333333334</ele><time>2026-04-26T11:06:20.279Z</time></trkpt><trkpt lat="41.0700087" lon="19.6390682"><ele>10.0</ele><time>2026-04-26T11:06:21.277Z</time></trkpt><trkpt lat="41.0698641" lon="19.6392587"><ele>10.333333333333334</ele><time>2026-04-26T11:06:22.277Z</time></trkpt><trkpt lat="41.0697195" lon="19.6394499"><ele>10.666666666666666</ele><time>2026-04-26T11:06:23.276Z</time></trkpt><trkpt lat="41.0695761" lon="19.6396423"><ele>11.0</ele><time>2026-04-26T11:06:24.276Z</time></trkpt><trkpt lat="41.0694291" lon="19.6398353"><ele>11.0</ele><time>2026-04-26T11:06:25.275Z</time></trkpt><trkpt lat="41.0692832" lon="19.6400308"><ele>11.0</ele><time>2026-04-26T11:06:26.275Z</time></trkpt><trkpt lat="41.0691371" lon="19.6402207"><ele>11.0</ele><time>2026-04-26T11:06:27.277Z</time></trkpt><trkpt lat="41.0689911" lon="19.6404118"><ele>11.0</ele><time>2026-04-26T11:06:28.274Z</time></trkpt><trkpt lat="41.0688441" lon="19.6406024"><ele>11.0</ele><time>2026-04-26T11:06:29.275Z</time></trkpt><trkpt lat="41.0686961" lon="19.6407969"><ele>11.0</ele><time>2026-04-26T11:06:30.276Z</time></trkpt><trkpt lat="41.0685464" lon="19.6409921"><ele>11.0</ele><time>2026-04-26T11:06:31.277Z</time></trkpt><trkpt lat="41.0683954" lon="19.6411868"><ele>11.0</ele><time>2026-04-26T11:06:32.277Z</time></trkpt><trkpt lat="41.0682442" lon="19.6413838"><ele>11.0</ele><time>2026-04-26T11:06:33.274Z</time></trkpt><trkpt lat="41.0680934" lon="19.6415816"><ele>11.0</ele><time>2026-04-26T11:06:34.275Z</time></trkpt><trkpt lat="41.0679417" lon="19.6417771"><ele>11.0</ele><time>2026-04-26T11:06:35.278Z</time></trkpt><trkpt lat="41.0677901" lon="19.6419741"><ele>11.0</ele><time>2026-04-26T11:06:36.277Z</time></trkpt><trkpt lat="41.0676386" lon="19.6421714"><ele>11.0</ele><time>2026-04-26T11:06:37.275Z</time></trkpt><trkpt lat="41.0674857" lon="19.6423717"><ele>11.0</ele><time>2026-04-26T11:06:38.276Z</time></trkpt><trkpt lat="41.0673298" lon="19.6425753"><ele>11.0</ele><time>2026-04-26T11:06:39.275Z</time></trkpt><trkpt lat="41.0671748" lon="19.6427794"><ele>11.0</ele><time>2026-04-26T11:06:40.275Z</time></trkpt><trkpt lat="41.0670167" lon="19.642981"><ele>11.0</ele><time>2026-04-26T11:06:41.274Z</time></trkpt><trkpt lat="41.066857" lon="19.6431809"><ele>11.0</ele><time>2026-04-26T11:06:42.275Z</time></trkpt><trkpt lat="41.0666932" lon="19.6433777"><ele>10.666666666666666</ele><time>2026-04-26T11:06:43.276Z</time></trkpt><trkpt lat="41.066523" lon="19.6435673"><ele>10.333333333333334</ele><time>2026-04-26T11:06:44.275Z</time></trkpt><trkpt lat="41.0663459" lon="19.6437512"><ele>10.0</ele><time>2026-04-26T11:06:45.277Z</time></trkpt><trkpt lat="41.0661625" lon="19.6439285"><ele>10.5</ele><time>2026-04-26T11:06:46.275Z</time></trkpt><trkpt lat="41.0659717" lon="19.6440965"><ele>11.0</ele><time>2026-04-26T11:06:47.276Z</time></trkpt><trkpt lat="41.0657754" lon="19.6442535"><ele>11.0</ele><time>2026-04-26T11:06:48.275Z</time></trkpt><trkpt lat="41.0655764" lon="19.6443953"><ele>11.0</ele><time>2026-04-26T11:06:49.276Z</time></trkpt><trkpt lat="41.0653683" lon="19.6445356"><ele>11.0</ele><time>2026-04-26T11:06:50.275Z</time></trkpt><trkpt lat="41.0651552" lon="19.6446629"><ele>11.0</ele><time>2026-04-26T11:06:51.276Z</time></trkpt><trkpt lat="41.0649379" lon="19.6447772"><ele>11.5</ele><time>2026-04-26T11:06:52.28Z</time></trkpt><trkpt lat="41.0647185" lon="19.644886"><ele>12.0</ele><time>2026-04-26T11:06:53.275Z</time></trkpt><trkpt lat="41.0644978" lon="19.6449809"><ele>12.0</ele><time>2026-04-26T11:06:54.276Z</time></trkpt><trkpt lat="41.0642758" lon="19.6450638"><ele>12.0</ele><time>2026-04-26T11:06:55.274Z</time></trkpt><trkpt lat="41.0640521" lon="19.6451373"><ele>12.0</ele><time>2026-04-26T11:06:56.276Z</time></trkpt><trkpt lat="41.0638336" lon="19.6452032"><ele>12.0</ele><time>2026-04-26T11:06:57.275Z</time></trkpt><trkpt lat="41.0636138" lon="19.6452676"><ele>12.0</ele><time>2026-04-26T11:06:58.275Z</time></trkpt><trkpt lat="41.0633953" lon="19.6453317"><ele>11.5</ele><time>2026-04-26T11:06:59.278Z</time></trkpt><trkpt lat="41.0631743" lon="19.6453886"><ele>11.0</ele><time>2026-04-26T11:07:00.275Z</time></trkpt><trkpt lat="41.0629535" lon="19.6454452"><ele>11.0</ele><time>2026-04-26T11:07:01.278Z</time></trkpt><trkpt lat="41.0627346" lon="19.6455074"><ele>11.0</ele><time>2026-04-26T11:07:02.274Z</time></trkpt><trkpt lat="41.0625155" lon="19.6455696"><ele>11.0</ele><time>2026-04-26T11:07:03.277Z</time></trkpt><trkpt lat="41.0622958" lon="19.6456307"><ele>10.5</ele><time>2026-04-26T11:07:04.276Z</time></trkpt><trkpt lat="41.0620751" lon="19.6456937"><ele>10.0</ele><time>2026-04-26T11:07:05.278Z</time></trkpt><trkpt lat="41.0618529" lon="19.6457571"><ele>10.0</ele><time>2026-04-26T11:07:06.274Z</time></trkpt><trkpt lat="41.0616288" lon="19.6458187"><ele>10.0</ele><time>2026-04-26T11:07:07.274Z</time></trkpt><trkpt lat="41.0613986" lon="19.6458772"><ele>10.5</ele><time>2026-04-26T11:07:08.275Z</time></trkpt><trkpt lat="41.0611671" lon="19.6459392"><ele>11.0</ele><time>2026-04-26T11:07:09.274Z</time></trkpt><trkpt lat="41.0609357" lon="19.6460048"><ele>10.5</ele><time>2026-04-26T11:07:10.276Z</time></trkpt><trkpt lat="41.0607046" lon="19.6460714"><ele>10.0</ele><time>2026-04-26T11:07:11.274Z</time></trkpt><trkpt lat="41.060476" lon="19.6461378"><ele>11.0</ele><time>2026-04-26T11:07:12.275Z</time></trkpt><trkpt lat="41.0602459" lon="19.6462091"><ele>12.0</ele><time>2026-04-26T11:07:13.276Z</time></trkpt><trkpt lat="41.0600184" lon="19.6462742"><ele>11.0</ele><time>2026-04-26T11:07:14.275Z</time></trkpt><trkpt lat="41.0597901" lon="19.6463432"><ele>10.0</ele><time>2026-04-26T11:07:15.275Z</time></trkpt><trkpt lat="41.0595672" lon="19.6464119"><ele>10.0</ele><time>2026-04-26T11:07:16.277Z</time></trkpt><trkpt lat="41.0593472" lon="19.6464782"><ele>10.0</ele><time>2026-04-26T11:07:17.276Z</time></trkpt><trkpt lat="41.0591269" lon="19.6465528"><ele>10.5</ele><time>2026-04-26T11:07:18.276Z</time></trkpt><trkpt lat="41.0589013" lon="19.646633"><ele>11.0</ele><time>2026-04-26T11:07:19.275Z</time></trkpt><trkpt lat="41.0586723" lon="19.646726"><ele>11.0</ele><time>2026-04-26T11:07:20.279Z</time></trkpt><trkpt lat="41.0584394" lon="19.6468185"><ele>11.0</ele><time>2026-04-26T11:07:21.276Z</time></trkpt><trkpt lat="41.0582083" lon="19.6469194"><ele>10.5</ele><time>2026-04-26T11:07:22.275Z</time></trkpt><trkpt lat="41.0579772" lon="19.6470274"><ele>10.0</ele><time>2026-04-26T11:07:23.275Z</time></trkpt><trkpt lat="41.0577468" lon="19.6471429"><ele>10.0</ele><time>2026-04-26T11:07:24.276Z</time></trkpt><trkpt lat="41.0575156" lon="19.6472606"><ele>10.0</ele><time>2026-04-26T11:07:25.275Z</time></trkpt><trkpt lat="41.0572858" lon="19.6473813"><ele>9.5</ele><time>2026-04-26T11:07:26.275Z</time></trkpt><trkpt lat="41.0570582" lon="19.6475063"><ele>9.0</ele><time>2026-04-26T11:07:27.276Z</time></trkpt><trkpt lat="41.0568324" lon="19.6476329"><ele>8.5</ele><time>2026-04-26T11:07:28.278Z</time></trkpt><trkpt lat="41.0566097" lon="19.6477605"><ele>8.0</ele><time>2026-04-26T11:07:29.274Z</time></trkpt><trkpt lat="41.0563935" lon="19.647894"><ele>8.0</ele><time>2026-04-26T11:07:30.278Z</time></trkpt><trkpt lat="41.0561774" lon="19.6480182"><ele>8.0</ele><time>2026-04-26T11:07:31.276Z</time></trkpt><trkpt lat="41.0559658" lon="19.6481403"><ele>9.0</ele><time>2026-04-26T11:07:32.277Z</time></trkpt><trkpt lat="41.0557583" lon="19.6482611"><ele>10.0</ele><time>2026-04-26T11:07:33.28Z</time></trkpt><trkpt lat="41.0555536" lon="19.6483807"><ele>10.0</ele><time>2026-04-26T11:07:34.274Z</time></trkpt><trkpt lat="41.0553502" lon="19.648498"><ele>10.0</ele><time>2026-04-26T11:07:35.274Z</time></trkpt><trkpt lat="41.0551503" lon="19.6486135"><ele>10.0</ele><time>2026-04-26T11:07:36.276Z</time></trkpt><trkpt lat="41.0549614" lon="19.6487267"><ele>9.666666666666668</ele><time>2026-04-26T11:07:37.276Z</time></trkpt><trkpt lat="41.0547798" lon="19.6488331"><ele>9.333333333333334</ele><time>2026-04-26T11:07:38.276Z</time></trkpt><trkpt lat="41.0545989" lon="19.6489376"><ele>9.0</ele><time>2026-04-26T11:07:39.276Z</time></trkpt><trkpt lat="41.0544194" lon="19.6490445"><ele>9.0</ele><time>2026-04-26T11:07:40.278Z</time></trkpt><trkpt lat="41.0542427" lon="19.6491491"><ele>9.0</ele><time>2026-04-26T11:07:41.277Z</time></trkpt><trkpt lat="41.0540644" lon="19.6492545"><ele>9.0</ele><time>2026-04-26T11:07:42.276Z</time></trkpt><trkpt lat="41.0538924" lon="19.6493533"><ele>9.0</ele><time>2026-04-26T11:07:43.273Z</time></trkpt><trkpt lat="41.0537252" lon="19.6494542"><ele>9.0</ele><time>2026-04-26T11:07:44.275Z</time></trkpt><trkpt lat="41.0535676" lon="19.6495489"><ele>9.0</ele><time>2026-04-26T11:07:45.278Z</time></trkpt><trkpt lat="41.0534162" lon="19.6496408"><ele>8.75</ele><time>2026-04-26T11:07:46.276Z</time></trkpt><trkpt lat="41.0532742" lon="19.6497291"><ele>8.5</ele><time>2026-04-26T11:07:47.279Z</time></trkpt><trkpt lat="41.0531408" lon="19.6498141"><ele>8.25</ele><time>2026-04-26T11:07:48.272Z</time></trkpt><trkpt lat="41.0530098" lon="19.6498934"><ele>8.0</ele><time>2026-04-26T11:07:49.278Z</time></trkpt><trkpt lat="41.0528835" lon="19.6499743"><ele>8.0</ele><time>2026-04-26T11:07:50.277Z</time></trkpt><trkpt lat="41.0527691" lon="19.6500466"><ele>8.0</ele><time>2026-04-26T11:07:51.277Z</time></trkpt><trkpt lat="41.0526658" lon="19.6501069"><ele>8.0</ele><time>2026-04-26T11:07:52.275Z</time></trkpt><trkpt lat="41.0525725" lon="19.6501568"><ele>8.0</ele><time>2026-04-26T11:07:53.277Z</time></trkpt><trkpt lat="41.0524899" lon="19.650196"><ele>8.0</ele><time>2026-04-26T11:07:54.275Z</time></trkpt><trkpt lat="41.0524234" lon="19.6502129"><ele>8.0</ele><time>2026-04-26T11:07:55.274Z</time></trkpt><trkpt lat="41.0523528" lon="19.6502228"><ele>7.999999999999999</ele><time>2026-04-26T11:07:56.275Z</time></trkpt><trkpt lat="41.0522837" lon="19.6502264"><ele>8.0</ele><time>2026-04-26T11:07:57.277Z</time></trkpt><trkpt lat="41.0522129" lon="19.6502398"><ele>8.0</ele><time>2026-04-26T11:07:58.275Z</time></trkpt><trkpt lat="41.0521436" lon="19.6502695"><ele>7.999999999999999</ele><time>2026-04-26T11:07:59.277Z</time></trkpt><trkpt lat="41.0520814" lon="19.6503275"><ele>8.0</ele><time>2026-04-26T11:08:00.276Z</time></trkpt><trkpt lat="41.0520311" lon="19.6504159"><ele>8.0</ele><time>2026-04-26T11:08:01.275Z</time></trkpt><trkpt lat="41.0519692" lon="19.6504994"><ele>8.0</ele><time>2026-04-26T11:08:02.274Z</time></trkpt><trkpt lat="41.0518938" lon="19.6505803"><ele>8.0</ele><time>2026-04-26T11:08:03.275Z</time></trkpt><trkpt lat="41.0518077" lon="19.6506583"><ele>8.0</ele><time>2026-04-26T11:08:04.275Z</time></trkpt><trkpt lat="41.0517033" lon="19.6507316"><ele>8.0</ele><time>2026-04-26T11:08:05.277Z</time></trkpt><trkpt lat="41.0515909" lon="19.65081"><ele>8.0</ele><time>2026-04-26T11:08:06.274Z</time></trkpt><trkpt lat="41.0514591" lon="19.6509015"><ele>8.0</ele><time>2026-04-26T11:08:07.275Z</time></trkpt><trkpt lat="41.0513092" lon="19.6510088"><ele>8.0</ele><time>2026-04-26T11:08:08.274Z</time></trkpt><trkpt lat="41.0511621" lon="19.6511111"><ele>8.0</ele><time>2026-04-26T11:08:09.276Z</time></trkpt><trkpt lat="41.0510157" lon="19.6512071"><ele>8.0</ele><time>2026-04-26T11:08:10.275Z</time></trkpt><trkpt lat="41.0508571" lon="19.6512788"><ele>8.0</ele><time>2026-04-26T11:08:11.276Z</time></trkpt><trkpt lat="41.0506842" lon="19.6513923"><ele>8.0</ele><time>2026-04-26T11:08:12.279Z</time></trkpt><trkpt lat="41.0504899" lon="19.6515236"><ele>8.0</ele><time>2026-04-26T11:08:13.277Z</time></trkpt><trkpt lat="41.0502856" lon="19.6516586"><ele>8.0</ele><time>2026-04-26T11:08:14.278Z</time></trkpt><trkpt lat="41.0500639" lon="19.6517979"><ele>7.5</ele><time>2026-04-26T11:08:15.274Z</time></trkpt><trkpt lat="41.0498255" lon="19.6519441"><ele>7.0</ele><time>2026-04-26T11:08:16.276Z</time></trkpt><trkpt lat="41.0495936" lon="19.652087"><ele>8.0</ele><time>2026-04-26T11:08:17.28Z</time></trkpt><trkpt lat="41.0493602" lon="19.6522316"><ele>9.0</ele><time>2026-04-26T11:08:18.275Z</time></trkpt><trkpt lat="41.0491285" lon="19.6523758"><ele>8.5</ele><time>2026-04-26T11:08:19.28Z</time></trkpt><trkpt lat="41.0488995" lon="19.6525237"><ele>8.0</ele><time>2026-04-26T11:08:20.277Z</time></trkpt><trkpt lat="41.0486707" lon="19.6526723"><ele>8.5</ele><time>2026-04-26T11:08:21.275Z</time></trkpt><trkpt lat="41.0484435" lon="19.6528162"><ele>9.0</ele><time>2026-04-26T11:08:22.275Z</time></trkpt><trkpt lat="41.0482151" lon="19.6529598"><ele>7.5</ele><time>2026-04-26T11:08:23.275Z</time></trkpt><trkpt lat="41.0479864" lon="19.6531018"><ele>6.0</ele><time>2026-04-26T11:08:24.275Z</time></trkpt><trkpt lat="41.0477565" lon="19.6532491"><ele>6.0</ele><time>2026-04-26T11:08:25.275Z</time></trkpt><trkpt lat="41.0475258" lon="19.6533899"><ele>6.0</ele><time>2026-04-26T11:08:26.277Z</time></trkpt><trkpt lat="41.0472949" lon="19.6535299"><ele>7.5</ele><time>2026-04-26T11:08:27.276Z</time></trkpt><trkpt lat="41.0470639" lon="19.6536646"><ele>9.0</ele><time>2026-04-26T11:08:28.275Z</time></trkpt><trkpt lat="41.0468351" lon="19.6538005"><ele>8.5</ele><time>2026-04-26T11:08:29.274Z</time></trkpt><trkpt lat="41.0466087" lon="19.6539389"><ele>8.0</ele><time>2026-04-26T11:08:30.276Z</time></trkpt><trkpt lat="41.0463841" lon="19.6540774"><ele>8.0</ele><time>2026-04-26T11:08:31.276Z</time></trkpt><trkpt lat="41.0461622" lon="19.6542181"><ele>8.0</ele><time>2026-04-26T11:08:32.276Z</time></trkpt><trkpt lat="41.045941" lon="19.6543579"><ele>9.0</ele><time>2026-04-26T11:08:33.277Z</time></trkpt><trkpt lat="41.0457224" lon="19.6544981"><ele>10.0</ele><time>2026-04-26T11:08:34.275Z</time></trkpt><trkpt lat="41.0455042" lon="19.6546378"><ele>10.0</ele><time>2026-04-26T11:08:35.275Z</time></trkpt><trkpt lat="41.0452868" lon="19.6547785"><ele>10.0</ele><time>2026-04-26T11:08:36.275Z</time></trkpt><trkpt lat="41.0450708" lon="19.6549131"><ele>9.0</ele><time>2026-04-26T11:08:37.277Z</time></trkpt><trkpt lat="41.0448551" lon="19.6550494"><ele>8.0</ele><time>2026-04-26T11:08:38.274Z</time></trkpt><trkpt lat="41.0446401" lon="19.6551832"><ele>8.5</ele><time>2026-04-26T11:08:39.275Z</time></trkpt><trkpt lat="41.044428" lon="19.6553189"><ele>9.0</ele><time>2026-04-26T11:08:40.277Z</time></trkpt><trkpt lat="41.0442178" lon="19.655455"><ele>9.5</ele><time>2026-04-26T11:08:41.277Z</time></trkpt><trkpt lat="41.0440079" lon="19.6555881"><ele>10.0</ele><time>2026-04-26T11:08:42.277Z</time></trkpt><trkpt lat="41.0437991" lon="19.6557163"><ele>10.0</ele><time>2026-04-26T11:08:43.275Z</time></trkpt><trkpt lat="41.0435901" lon="19.6558368"><ele>10.0</ele><time>2026-04-26T11:08:44.277Z</time></trkpt><trkpt lat="41.0433827" lon="19.6559629"><ele>10.5</ele><time>2026-04-26T11:08:45.274Z</time></trkpt><trkpt lat="41.0431765" lon="19.6560849"><ele>11.0</ele><time>2026-04-26T11:08:46.275Z</time></trkpt><trkpt lat="41.0429684" lon="19.6561993"><ele>11.5</ele><time>2026-04-26T11:08:47.276Z</time></trkpt><trkpt lat="41.0427568" lon="19.6563108"><ele>12.0</ele><time>2026-04-26T11:08:48.275Z</time></trkpt><trkpt lat="41.0425448" lon="19.6564195"><ele>11.0</ele><time>2026-04-26T11:08:49.275Z</time></trkpt><trkpt lat="41.0423307" lon="19.6565231"><ele>10.0</ele><time>2026-04-26T11:08:50.276Z</time></trkpt><trkpt lat="41.0421141" lon="19.6566209"><ele>10.0</ele><time>2026-04-26T11:08:51.277Z</time></trkpt><trkpt lat="41.0418951" lon="19.6567133"><ele>10.0</ele><time>2026-04-26T11:08:52.276Z</time></trkpt><trkpt lat="41.0416733" lon="19.6567992"><ele>9.5</ele><time>2026-04-26T11:08:53.277Z</time></trkpt><trkpt lat="41.0414522" lon="19.6568843"><ele>9.0</ele><time>2026-04-26T11:08:54.277Z</time></trkpt><trkpt lat="41.0412251" lon="19.6569571"><ele>10.5</ele><time>2026-04-26T11:08:55.279Z</time></trkpt><trkpt lat="41.0409986" lon="19.6570311"><ele>12.0</ele><time>2026-04-26T11:08:56.275Z</time></trkpt><trkpt lat="41.0407703" lon="19.6570999"><ele>12.0</ele><time>2026-04-26T11:08:57.275Z</time></trkpt><trkpt lat="41.0405409" lon="19.6571627"><ele>12.0</ele><time>2026-04-26T11:08:58.277Z</time></trkpt><trkpt lat="41.0403117" lon="19.6572201"><ele>12.0</ele><time>2026-04-26T11:08:59.277Z</time></trkpt><trkpt lat="41.0400816" lon="19.6572716"><ele>12.0</ele><time>2026-04-26T11:09:00.276Z</time></trkpt><trkpt lat="41.0398466" lon="19.6573138"><ele>11.0</ele><time>2026-04-26T11:09:01.276Z</time></trkpt><trkpt lat="41.0396153" lon="19.6573552"><ele>10.0</ele><time>2026-04-26T11:09:02.277Z</time></trkpt><trkpt lat="41.0393836" lon="19.6573906"><ele>10.0</ele><time>2026-04-26T11:09:03.274Z</time></trkpt><trkpt lat="41.0391508" lon="19.6574231"><ele>10.0</ele><time>2026-04-26T11:09:04.276Z</time></trkpt><trkpt lat="41.0389211" lon="19.6574519"><ele>10.5</ele><time>2026-04-26T11:09:05.276Z</time></trkpt><trkpt lat="41.0386935" lon="19.6574791"><ele>11.0</ele><time>2026-04-26T11:09:06.274Z</time></trkpt><trkpt lat="41.0384636" lon="19.6575075"><ele>11.0</ele><time>2026-04-26T11:09:07.276Z</time></trkpt><trkpt lat="41.0382325" lon="19.6575281"><ele>11.0</ele><time>2026-04-26T11:09:08.275Z</time></trkpt><trkpt lat="41.0380001" lon="19.6575522"><ele>11.0</ele><time>2026-04-26T11:09:09.277Z</time></trkpt><trkpt lat="41.0377639" lon="19.6575719"><ele>11.0</ele><time>2026-04-26T11:09:10.275Z</time></trkpt><trkpt lat="41.0375288" lon="19.6575961"><ele>12.0</ele><time>2026-04-26T11:09:11.277Z</time></trkpt><trkpt lat="41.0372924" lon="19.6576218"><ele>13.0</ele><time>2026-04-26T11:09:12.276Z</time></trkpt><trkpt lat="41.0370547" lon="19.6576422"><ele>13.0</ele><time>2026-04-26T11:09:13.276Z</time></trkpt><trkpt lat="41.0368186" lon="19.6576647"><ele>13.0</ele><time>2026-04-26T11:09:14.275Z</time></trkpt><trkpt lat="41.0365821" lon="19.6576942"><ele>13.0</ele><time>2026-04-26T11:09:15.275Z</time></trkpt><trkpt lat="41.0363452" lon="19.6577245"><ele>13.0</ele><time>2026-04-26T11:09:16.274Z</time></trkpt><trkpt lat="41.0361072" lon="19.6577478"><ele>13.0</ele><time>2026-04-26T11:09:17.276Z</time></trkpt><trkpt lat="41.035866" lon="19.6577688"><ele>13.0</ele><time>2026-04-26T11:09:18.277Z</time></trkpt><trkpt lat="41.0356269" lon="19.6577927"><ele>14.0</ele><time>2026-04-26T11:09:19.276Z</time></trkpt><trkpt lat="41.0353876" lon="19.6578218"><ele>15.0</ele><time>2026-04-26T11:09:20.277Z</time></trkpt><trkpt lat="41.0351482" lon="19.6578488"><ele>14.0</ele><time>2026-04-26T11:09:21.278Z</time></trkpt><trkpt lat="41.0349094" lon="19.657875"><ele>13.0</ele><time>2026-04-26T11:09:22.275Z</time></trkpt><trkpt lat="41.0346692" lon="19.657901"><ele>13.0</ele><time>2026-04-26T11:09:23.276Z</time></trkpt><trkpt lat="41.034428" lon="19.6579286"><ele>13.0</ele><time>2026-04-26T11:09:24.275Z</time></trkpt><trkpt lat="41.0341895" lon="19.6579535"><ele>13.0</ele><time>2026-04-26T11:09:25.275Z</time></trkpt><trkpt lat="41.0339497" lon="19.6579752"><ele>13.0</ele><time>2026-04-26T11:09:26.273Z</time></trkpt><trkpt lat="41.0337106" lon="19.6580003"><ele>13.0</ele><time>2026-04-26T11:09:27.276Z</time></trkpt><trkpt lat="41.03347" lon="19.6580251"><ele>13.0</ele><time>2026-04-26T11:09:28.275Z</time></trkpt><trkpt lat="41.0332281" lon="19.6580481"><ele>13.0</ele><time>2026-04-26T11:09:29.275Z</time></trkpt><trkpt lat="41.0329855" lon="19.6580704"><ele>13.0</ele><time>2026-04-26T11:09:30.276Z</time></trkpt><trkpt lat="41.0327428" lon="19.6580917"><ele>13.0</ele><time>2026-04-26T11:09:31.274Z</time></trkpt><trkpt lat="41.0325004" lon="19.6581127"><ele>13.0</ele><time>2026-04-26T11:09:32.275Z</time></trkpt><trkpt lat="41.032258" lon="19.658134"><ele>12.5</ele><time>2026-04-26T11:09:33.276Z</time></trkpt><trkpt lat="41.032012" lon="19.6581541"><ele>12.0</ele><time>2026-04-26T11:09:34.275Z</time></trkpt><trkpt lat="41.0317676" lon="19.6581728"><ele>10.5</ele><time>2026-04-26T11:09:35.273Z</time></trkpt><trkpt lat="41.0315221" lon="19.6581905"><ele>9.0</ele><time>2026-04-26T11:09:36.276Z</time></trkpt><trkpt lat="41.0312743" lon="19.6582075"><ele>9.0</ele><time>2026-04-26T11:09:37.274Z</time></trkpt><trkpt lat="41.0310268" lon="19.6582239"><ele>9.0</ele><time>2026-04-26T11:09:38.275Z</time></trkpt><trkpt lat="41.0307772" lon="19.6582424"><ele>10.5</ele><time>2026-04-26T11:09:39.275Z</time></trkpt><trkpt lat="41.0305262" lon="19.658262"><ele>12.0</ele><time>2026-04-26T11:09:40.274Z</time></trkpt><trkpt lat="41.0302747" lon="19.6582814"><ele>12.0</ele><time>2026-04-26T11:09:41.275Z</time></trkpt><trkpt lat="41.0300226" lon="19.6583008"><ele>12.0</ele><time>2026-04-26T11:09:42.274Z</time></trkpt><trkpt lat="41.0297679" lon="19.6583192"><ele>11.0</ele><time>2026-04-26T11:09:43.276Z</time></trkpt><trkpt lat="41.0295148" lon="19.6583394"><ele>10.0</ele><time>2026-04-26T11:09:44.275Z</time></trkpt><trkpt lat="41.0292629" lon="19.6583592"><ele>9.0</ele><time>2026-04-26T11:09:45.274Z</time></trkpt><trkpt lat="41.0290114" lon="19.6583786"><ele>8.0</ele><time>2026-04-26T11:09:46.274Z</time></trkpt><trkpt lat="41.0287628" lon="19.6583985"><ele>8.0</ele><time>2026-04-26T11:09:47.274Z</time></trkpt><trkpt lat="41.0285186" lon="19.6584219"><ele>8.0</ele><time>2026-04-26T11:09:48.274Z</time></trkpt><trkpt lat="41.0282746" lon="19.6584387"><ele>7.5</ele><time>2026-04-26T11:09:49.276Z</time></trkpt><trkpt lat="41.0280296" lon="19.6584545"><ele>7.0</ele><time>2026-04-26T11:09:50.276Z</time></trkpt><trkpt lat="41.0277859" lon="19.65847"><ele>7.0</ele><time>2026-04-26T11:09:51.275Z</time></trkpt><trkpt lat="41.0275444" lon="19.6584899"><ele>7.0</ele><time>2026-04-26T11:09:52.275Z</time></trkpt><trkpt lat="41.0273016" lon="19.6585093"><ele>6.5</ele><time>2026-04-26T11:09:53.28Z</time></trkpt><trkpt lat="41.0270583" lon="19.6585277"><ele>6.0</ele><time>2026-04-26T11:09:54.276Z</time></trkpt><trkpt lat="41.026815" lon="19.6585477"><ele>5.5</ele><time>2026-04-26T11:09:55.277Z</time></trkpt><trkpt lat="41.026571" lon="19.6585695"><ele>5.0</ele><time>2026-04-26T11:09:56.272Z</time></trkpt><trkpt lat="41.0263282" lon="19.6585944"><ele>6.5</ele><time>2026-04-26T11:09:57.275Z</time></trkpt><trkpt lat="41.0260853" lon="19.658623"><ele>8.0</ele><time>2026-04-26T11:09:58.274Z</time></trkpt><trkpt lat="41.0258441" lon="19.6586569"><ele>7.0</ele><time>2026-04-26T11:09:59.275Z</time></trkpt><trkpt lat="41.025605" lon="19.6586952"><ele>6.0</ele><time>2026-04-26T11:10:00.274Z</time></trkpt><trkpt lat="41.0253676" lon="19.6587333"><ele>6.0</ele><time>2026-04-26T11:10:01.275Z</time></trkpt><trkpt lat="41.0251332" lon="19.6587826"><ele>6.0</ele><time>2026-04-26T11:10:02.274Z</time></trkpt><trkpt lat="41.024899" lon="19.6588371"><ele>7.0</ele><time>2026-04-26T11:10:03.275Z</time></trkpt><trkpt lat="41.0246648" lon="19.658895"><ele>8.0</ele><time>2026-04-26T11:10:04.274Z</time></trkpt><trkpt lat="41.0244312" lon="19.6589565"><ele>8.0</ele><time>2026-04-26T11:10:05.275Z</time></trkpt><trkpt lat="41.0241971" lon="19.6590355"><ele>8.0</ele><time>2026-04-26T11:10:06.274Z</time></trkpt><trkpt lat="41.0239662" lon="19.6591106"><ele>7.0</ele><time>2026-04-26T11:10:07.277Z</time></trkpt><trkpt lat="41.0237372" lon="19.6591898"><ele>6.0</ele><time>2026-04-26T11:10:08.274Z</time></trkpt><trkpt lat="41.0235074" lon="19.6592705"><ele>6.0</ele><time>2026-04-26T11:10:09.273Z</time></trkpt><trkpt lat="41.0232822" lon="19.6593679"><ele>6.0</ele><time>2026-04-26T11:10:10.275Z</time></trkpt><trkpt lat="41.0230558" lon="19.6594611"><ele>8.0</ele><time>2026-04-26T11:10:11.275Z</time></trkpt><trkpt lat="41.0228287" lon="19.6595596"><ele>10.0</ele><time>2026-04-26T11:10:12.274Z</time></trkpt><trkpt lat="41.0226028" lon="19.659663"><ele>9.5</ele><time>2026-04-26T11:10:13.276Z</time></trkpt><trkpt lat="41.0223787" lon="19.6597697"><ele>9.0</ele><time>2026-04-26T11:10:14.274Z</time></trkpt><trkpt lat="41.0221552" lon="19.6598783"><ele>9.0</ele><time>2026-04-26T11:10:15.274Z</time></trkpt><trkpt lat="41.0219324" lon="19.6599952"><ele>9.0</ele><time>2026-04-26T11:10:16.274Z</time></trkpt><trkpt lat="41.0217121" lon="19.6601131"><ele>8.5</ele><time>2026-04-26T11:10:17.274Z</time></trkpt><trkpt lat="41.0214931" lon="19.6602359"><ele>8.0</ele><time>2026-04-26T11:10:18.273Z</time></trkpt><trkpt lat="41.0212769" lon="19.6603621"><ele>10.5</ele><time>2026-04-26T11:10:19.274Z</time></trkpt><trkpt lat="41.0210616" lon="19.6604856"><ele>13.0</ele><time>2026-04-26T11:10:20.274Z</time></trkpt><trkpt lat="41.0208496" lon="19.6606136"><ele>11.5</ele><time>2026-04-26T11:10:21.273Z</time></trkpt><trkpt lat="41.0206339" lon="19.6607366"><ele>10.0</ele><time>2026-04-26T11:10:22.276Z</time></trkpt><trkpt lat="41.020417" lon="19.6608558"><ele>10.0</ele><time>2026-04-26T11:10:23.274Z</time></trkpt><trkpt lat="41.0202028" lon="19.6609809"><ele>10.0</ele><time>2026-04-26T11:10:24.273Z</time></trkpt><trkpt lat="41.0199897" lon="19.6611072"><ele>11.5</ele><time>2026-04-26T11:10:25.274Z</time></trkpt><trkpt lat="41.0197755" lon="19.661233"><ele>13.0</ele><time>2026-04-26T11:10:26.275Z</time></trkpt><trkpt lat="41.0195611" lon="19.6613491"><ele>13.0</ele><time>2026-04-26T11:10:27.275Z</time></trkpt><trkpt lat="41.0193461" lon="19.6614588"><ele>13.0</ele><time>2026-04-26T11:10:28.275Z</time></trkpt><trkpt lat="41.0191321" lon="19.6615728"><ele>12.0</ele><time>2026-04-26T11:10:29.275Z</time></trkpt><trkpt lat="41.0189128" lon="19.6616821"><ele>11.0</ele><time>2026-04-26T11:10:30.273Z</time></trkpt><trkpt lat="41.0186928" lon="19.6617887"><ele>11.0</ele><time>2026-04-26T11:10:31.275Z</time></trkpt><trkpt lat="41.0184711" lon="19.6618923"><ele>11.0</ele><time>2026-04-26T11:10:32.275Z</time></trkpt><trkpt lat="41.0182456" lon="19.6619887"><ele>11.0</ele><time>2026-04-26T11:10:33.275Z</time></trkpt><trkpt lat="41.018022" lon="19.6620797"><ele>11.0</ele><time>2026-04-26T11:10:34.276Z</time></trkpt><trkpt lat="41.0177993" lon="19.6621708"><ele>11.0</ele><time>2026-04-26T11:10:35.276Z</time></trkpt><trkpt lat="41.0175759" lon="19.6622561"><ele>11.0</ele><time>2026-04-26T11:10:36.272Z</time></trkpt><trkpt lat="41.0173526" lon="19.6623413"><ele>10.5</ele><time>2026-04-26T11:10:37.276Z</time></trkpt><trkpt lat="41.0171288" lon="19.6624218"><ele>10.0</ele><time>2026-04-26T11:10:38.275Z</time></trkpt><trkpt lat="41.0169055" lon="19.6624943"><ele>10.0</ele><time>2026-04-26T11:10:39.275Z</time></trkpt><trkpt lat="41.016682" lon="19.6625633"><ele>10.0</ele><time>2026-04-26T11:10:40.273Z</time></trkpt><trkpt lat="41.0164601" lon="19.6626328"><ele>10.0</ele><time>2026-04-26T11:10:41.276Z</time></trkpt><trkpt lat="41.0162362" lon="19.6626967"><ele>10.0</ele><time>2026-04-26T11:10:42.277Z</time></trkpt><trkpt lat="41.0160111" lon="19.6627594"><ele>10.0</ele><time>2026-04-26T11:10:43.275Z</time></trkpt><trkpt lat="41.0157866" lon="19.6628157"><ele>10.0</ele><time>2026-04-26T11:10:44.273Z</time></trkpt><trkpt lat="41.0155616" lon="19.6628659"><ele>10.0</ele><time>2026-04-26T11:10:45.275Z</time></trkpt><trkpt lat="41.0153371" lon="19.6629118"><ele>10.0</ele><time>2026-04-26T11:10:46.276Z</time></trkpt><trkpt lat="41.0151125" lon="19.6629548"><ele>10.5</ele><time>2026-04-26T11:10:47.276Z</time></trkpt><trkpt lat="41.0148855" lon="19.6629923"><ele>11.0</ele><time>2026-04-26T11:10:48.274Z</time></trkpt><trkpt lat="41.0146566" lon="19.6630273"><ele>11.0</ele><time>2026-04-26T11:10:49.277Z</time></trkpt><trkpt lat="41.0144289" lon="19.66306"><ele>11.0</ele><time>2026-04-26T11:10:50.278Z</time></trkpt><trkpt lat="41.0142021" lon="19.6630925"><ele>10.0</ele><time>2026-04-26T11:10:51.274Z</time></trkpt><trkpt lat="41.0139757" lon="19.6631206"><ele>9.0</ele><time>2026-04-26T11:10:52.274Z</time></trkpt><trkpt lat="41.0137469" lon="19.6631497"><ele>9.0</ele><time>2026-04-26T11:10:53.276Z</time></trkpt><trkpt lat="41.0135218" lon="19.6631673"><ele>9.0</ele><time>2026-04-26T11:10:54.275Z</time></trkpt><trkpt lat="41.0132967" lon="19.663179"><ele>9.0</ele><time>2026-04-26T11:10:55.276Z</time></trkpt><trkpt lat="41.0130714" lon="19.6631876"><ele>9.0</ele><time>2026-04-26T11:10:56.277Z</time></trkpt><trkpt lat="41.0128458" lon="19.6631954"><ele>9.0</ele><time>2026-04-26T11:10:57.277Z</time></trkpt><trkpt lat="41.0126202" lon="19.6632007"><ele>9.0</ele><time>2026-04-26T11:10:58.275Z</time></trkpt><trkpt lat="41.0123955" lon="19.6631993"><ele>9.333333333333334</ele><time>2026-04-26T11:10:59.276Z</time></trkpt><trkpt lat="41.0121708" lon="19.663194"><ele>9.666666666666668</ele><time>2026-04-26T11:11:00.275Z</time></trkpt><trkpt lat="41.0119487" lon="19.663192"><ele>10.0</ele><time>2026-04-26T11:11:01.276Z</time></trkpt><trkpt lat="41.0117265" lon="19.663186"><ele>10.333333333333334</ele><time>2026-04-26T11:11:02.276Z</time></trkpt><trkpt lat="41.0115059" lon="19.6631794"><ele>10.666666666666666</ele><time>2026-04-26T11:11:03.273Z</time></trkpt><trkpt lat="41.0112847" lon="19.663172"><ele>11.0</ele><time>2026-04-26T11:11:04.271Z</time></trkpt><trkpt lat="41.0110622" lon="19.6631625"><ele>11.0</ele><time>2026-04-26T11:11:05.278Z</time></trkpt><trkpt lat="41.0108393" lon="19.6631521"><ele>11.0</ele><time>2026-04-26T11:11:06.278Z</time></trkpt><trkpt lat="41.0106158" lon="19.6631414"><ele>11.0</ele><time>2026-04-26T11:11:07.275Z</time></trkpt><trkpt lat="41.0103917" lon="19.6631329"><ele>10.0</ele><time>2026-04-26T11:11:08.274Z</time></trkpt><trkpt lat="41.0101668" lon="19.663126"><ele>9.0</ele><time>2026-04-26T11:11:09.276Z</time></trkpt><trkpt lat="41.0099417" lon="19.6631208"><ele>7.5</ele><time>2026-04-26T11:11:10.274Z</time></trkpt><trkpt lat="41.0097171" lon="19.6631153"><ele>6.0</ele><time>2026-04-26T11:11:11.273Z</time></trkpt><trkpt lat="41.0094921" lon="19.6631108"><ele>6.0</ele><time>2026-04-26T11:11:12.278Z</time></trkpt><trkpt lat="41.0092665" lon="19.6631083"><ele>6.0</ele><time>2026-04-26T11:11:13.275Z</time></trkpt><trkpt lat="41.0090414" lon="19.6631122"><ele>7.5</ele><time>2026-04-26T11:11:14.272Z</time></trkpt><trkpt lat="41.0088155" lon="19.6631197"><ele>9.0</ele><time>2026-04-26T11:11:15.275Z</time></trkpt><trkpt lat="41.0085905" lon="19.6631336"><ele>9.0</ele><time>2026-04-26T11:11:16.273Z</time></trkpt><trkpt lat="41.0083669" lon="19.6631532"><ele>9.0</ele><time>2026-04-26T11:11:17.274Z</time></trkpt><trkpt lat="41.0081404" lon="19.6631788"><ele>8.666666666666666</ele><time>2026-04-26T11:11:18.273Z</time></trkpt><trkpt lat="41.0079222" lon="19.663213"><ele>8.333333333333332</ele><time>2026-04-26T11:11:19.279Z</time></trkpt><trkpt lat="41.0077041" lon="19.6632494"><ele>8.0</ele><time>2026-04-26T11:11:20.276Z</time></trkpt><trkpt lat="41.0074875" lon="19.663294"><ele>7.0</ele><time>2026-04-26T11:11:21.274Z</time></trkpt><trkpt lat="41.0072714" lon="19.6633468"><ele>6.0</ele><time>2026-04-26T11:11:22.276Z</time></trkpt><trkpt lat="41.0070565" lon="19.663409"><ele>5.0</ele><time>2026-04-26T11:11:23.276Z</time></trkpt><trkpt lat="41.0068426" lon="19.6634706"><ele>5.666666666666667</ele><time>2026-04-26T11:11:24.277Z</time></trkpt><trkpt lat="41.0066289" lon="19.6635342"><ele>6.333333333333334</ele><time>2026-04-26T11:11:25.274Z</time></trkpt><trkpt lat="41.006415" lon="19.6635988"><ele>7.0</ele><time>2026-04-26T11:11:26.274Z</time></trkpt><trkpt lat="41.0062027" lon="19.6636651"><ele>7.333333333333334</ele><time>2026-04-26T11:11:27.275Z</time></trkpt><trkpt lat="41.0059897" lon="19.6637289"><ele>7.666666666666666</ele><time>2026-04-26T11:11:28.275Z</time></trkpt><trkpt lat="41.0057754" lon="19.6637896"><ele>8.0</ele><time>2026-04-26T11:11:29.273Z</time></trkpt><trkpt lat="41.0055591" lon="19.6638495"><ele>8.0</ele><time>2026-04-26T11:11:30.275Z</time></trkpt><trkpt lat="41.0053426" lon="19.663902"><ele>8.0</ele><time>2026-04-26T11:11:31.277Z</time></trkpt><trkpt lat="41.005125" lon="19.6639545"><ele>8.0</ele><time>2026-04-26T11:11:32.274Z</time></trkpt><trkpt lat="41.004906" lon="19.6640066"><ele>8.333333333333332</ele><time>2026-04-26T11:11:33.275Z</time></trkpt><trkpt lat="41.0046852" lon="19.6640567"><ele>8.666666666666666</ele><time>2026-04-26T11:11:34.276Z</time></trkpt><trkpt lat="41.0044644" lon="19.6641044"><ele>9.0</ele><time>2026-04-26T11:11:35.275Z</time></trkpt><trkpt lat="41.0042429" lon="19.6641509"><ele>8.666666666666666</ele><time>2026-04-26T11:11:36.277Z</time></trkpt><trkpt lat="41.0040216" lon="19.6641992"><ele>8.333333333333332</ele><time>2026-04-26T11:11:37.273Z</time></trkpt><trkpt lat="41.0038011" lon="19.6642498"><ele>8.0</ele><time>2026-04-26T11:11:38.274Z</time></trkpt><trkpt lat="41.003583" lon="19.6643041"><ele>8.0</ele><time>2026-04-26T11:11:39.272Z</time></trkpt><trkpt lat="41.0033653" lon="19.6643584"><ele>8.0</ele><time>2026-04-26T11:11:40.274Z</time></trkpt><trkpt lat="41.0031485" lon="19.6644146"><ele>8.0</ele><time>2026-04-26T11:11:41.275Z</time></trkpt><trkpt lat="41.002933" lon="19.6644733"><ele>8.0</ele><time>2026-04-26T11:11:42.274Z</time></trkpt><trkpt lat="41.0027203" lon="19.6645418"><ele>8.0</ele><time>2026-04-26T11:11:43.275Z</time></trkpt><trkpt lat="41.0025072" lon="19.6646155"><ele>8.0</ele><time>2026-04-26T11:11:44.274Z</time></trkpt><trkpt lat="41.0022983" lon="19.6646979"><ele>8.0</ele><time>2026-04-26T11:11:45.276Z</time></trkpt><trkpt lat="41.0020879" lon="19.6647841"><ele>8.0</ele><time>2026-04-26T11:11:46.274Z</time></trkpt><trkpt lat="41.0018788" lon="19.6648731"><ele>8.0</ele><time>2026-04-26T11:11:47.276Z</time></trkpt><trkpt lat="41.0016705" lon="19.6649628"><ele>8.333333333333332</ele><time>2026-04-26T11:11:48.276Z</time></trkpt><trkpt lat="41.0014633" lon="19.665051"><ele>8.666666666666666</ele><time>2026-04-26T11:11:49.275Z</time></trkpt><trkpt lat="41.0012553" lon="19.6651392"><ele>9.0</ele><time>2026-04-26T11:11:50.272Z</time></trkpt><trkpt lat="41.0010486" lon="19.6652391"><ele>9.333333333333334</ele><time>2026-04-26T11:11:51.273Z</time></trkpt><trkpt lat="41.0008471" lon="19.6653333"><ele>9.666666666666668</ele><time>2026-04-26T11:11:52.273Z</time></trkpt><trkpt lat="41.0006436" lon="19.6654232"><ele>10.0</ele><time>2026-04-26T11:11:53.275Z</time></trkpt><trkpt lat="41.000441" lon="19.665512"><ele>10.0</ele><time>2026-04-26T11:11:54.275Z</time></trkpt><trkpt lat="41.0002359" lon="19.6655967"><ele>10.0</ele><time>2026-04-26T11:11:55.274Z</time></trkpt><trkpt lat="41.0000292" lon="19.6656783"><ele>10.0</ele><time>2026-04-26T11:11:56.274Z</time></trkpt><trkpt lat="40.9998229" lon="19.6657605"><ele>10.0</ele><time>2026-04-26T11:11:57.275Z</time></trkpt><trkpt lat="40.9996181" lon="19.665841"><ele>10.0</ele><time>2026-04-26T11:11:58.274Z</time></trkpt><trkpt lat="40.9994112" lon="19.6659208"><ele>10.0</ele><time>2026-04-26T11:11:59.274Z</time></trkpt><trkpt lat="40.9992025" lon="19.6659919"><ele>9.666666666666668</ele><time>2026-04-26T11:12:00.275Z</time></trkpt><trkpt lat="40.9989909" lon="19.6660533"><ele>9.333333333333334</ele><time>2026-04-26T11:12:01.276Z</time></trkpt><trkpt lat="40.9987776" lon="19.6661147"><ele>9.0</ele><time>2026-04-26T11:12:02.274Z</time></trkpt><trkpt lat="40.9985612" lon="19.6661793"><ele>10.333333333333332</ele><time>2026-04-26T11:12:03.275Z</time></trkpt><trkpt lat="40.998347" lon="19.6662419"><ele>11.666666666666666</ele><time>2026-04-26T11:12:04.275Z</time></trkpt><trkpt lat="40.9981339" lon="19.666309"><ele>13.0</ele><time>2026-04-26T11:12:05.275Z</time></trkpt><trkpt lat="40.9979205" lon="19.6663799"><ele>13.0</ele><time>2026-04-26T11:12:06.275Z</time></trkpt><trkpt lat="40.9977078" lon="19.6664539"><ele>13.0</ele><time>2026-04-26T11:12:07.276Z</time></trkpt><trkpt lat="40.9974958" lon="19.6665321"><ele>13.0</ele><time>2026-04-26T11:12:08.276Z</time></trkpt><trkpt lat="40.9972862" lon="19.6666175"><ele>12.666666666666666</ele><time>2026-04-26T11:12:09.274Z</time></trkpt><trkpt lat="40.9970739" lon="19.6666971"><ele>12.333333333333332</ele><time>2026-04-26T11:12:10.273Z</time></trkpt><trkpt lat="40.9968635" lon="19.6667836"><ele>12.0</ele><time>2026-04-26T11:12:11.274Z</time></trkpt><trkpt lat="40.9966571" lon="19.6668822"><ele>12.333333333333332</ele><time>2026-04-26T11:12:12.273Z</time></trkpt><trkpt lat="40.9964533" lon="19.6669869"><ele>12.666666666666666</ele><time>2026-04-26T11:12:13.275Z</time></trkpt><trkpt lat="40.996251" lon="19.6670915"><ele>13.0</ele><time>2026-04-26T11:12:14.275Z</time></trkpt><trkpt lat="40.9960465" lon="19.6671949"><ele>13.0</ele><time>2026-04-26T11:12:15.274Z</time></trkpt><trkpt lat="40.9958411" lon="19.6672986"><ele>13.0</ele><time>2026-04-26T11:12:16.272Z</time></trkpt><trkpt lat="40.9956351" lon="19.6674022"><ele>13.0</ele><time>2026-04-26T11:12:17.275Z</time></trkpt><trkpt lat="40.9954244" lon="19.6675051"><ele>12.5</ele><time>2026-04-26T11:12:18.276Z</time></trkpt><trkpt lat="40.9952075" lon="19.667601"><ele>12.0</ele><time>2026-04-26T11:12:19.274Z</time></trkpt><trkpt lat="40.9949873" lon="19.6676972"><ele>12.5</ele><time>2026-04-26T11:12:20.274Z</time></trkpt><trkpt lat="40.9947658" lon="19.6677915"><ele>13.0</ele><time>2026-04-26T11:12:21.274Z</time></trkpt><trkpt lat="40.9945424" lon="19.6678818"><ele>13.0</ele><time>2026-04-26T11:12:22.273Z</time></trkpt><trkpt lat="40.9943149" lon="19.6679696"><ele>13.0</ele><time>2026-04-26T11:12:23.275Z</time></trkpt><trkpt lat="40.994086" lon="19.6680578"><ele>12.0</ele><time>2026-04-26T11:12:24.274Z</time></trkpt><trkpt lat="40.9938521" lon="19.6681429"><ele>11.0</ele><time>2026-04-26T11:12:25.273Z</time></trkpt><trkpt lat="40.9936168" lon="19.6682149"><ele>11.0</ele><time>2026-04-26T11:12:26.277Z</time></trkpt><trkpt lat="40.9933821" lon="19.6682908"><ele>11.0</ele><time>2026-04-26T11:12:27.273Z</time></trkpt><trkpt lat="40.9931482" lon="19.6683621"><ele>10.0</ele><time>2026-04-26T11:12:28.275Z</time></trkpt><trkpt lat="40.9929127" lon="19.6684319"><ele>9.0</ele><time>2026-04-26T11:12:29.274Z</time></trkpt><trkpt lat="40.992671" lon="19.6684982"><ele>9.0</ele><time>2026-04-26T11:12:30.274Z</time></trkpt><trkpt lat="40.9924241" lon="19.668556"><ele>9.0</ele><time>2026-04-26T11:12:31.275Z</time></trkpt><trkpt lat="40.9921743" lon="19.6686051"><ele>11.0</ele><time>2026-04-26T11:12:32.274Z</time></trkpt><trkpt lat="40.9919222" lon="19.6686446"><ele>13.0</ele><time>2026-04-26T11:12:33.275Z</time></trkpt><trkpt lat="40.9916705" lon="19.6686752"><ele>13.0</ele><time>2026-04-26T11:12:34.274Z</time></trkpt><trkpt lat="40.9914208" lon="19.668699"><ele>13.0</ele><time>2026-04-26T11:12:35.277Z</time></trkpt><trkpt lat="40.9911736" lon="19.6687207"><ele>13.0</ele><time>2026-04-26T11:12:36.275Z</time></trkpt><trkpt lat="40.9909293" lon="19.6687392"><ele>13.0</ele><time>2026-04-26T11:12:37.276Z</time></trkpt><trkpt lat="40.9906868" lon="19.6687565"><ele>11.5</ele><time>2026-04-26T11:12:38.275Z</time></trkpt><trkpt lat="40.9904475" lon="19.6687657"><ele>10.0</ele><time>2026-04-26T11:12:39.273Z</time></trkpt><trkpt lat="40.990211" lon="19.6687707"><ele>9.0</ele><time>2026-04-26T11:12:40.274Z</time></trkpt><trkpt lat="40.9899775" lon="19.668773"><ele>8.0</ele><time>2026-04-26T11:12:41.275Z</time></trkpt><trkpt lat="40.989747" lon="19.6687735"><ele>8.0</ele><time>2026-04-26T11:12:42.273Z</time></trkpt><trkpt lat="40.9895181" lon="19.6687731"><ele>8.0</ele><time>2026-04-26T11:12:43.274Z</time></trkpt><trkpt lat="40.9892892" lon="19.6687731"><ele>8.0</ele><time>2026-04-26T11:12:44.275Z</time></trkpt><trkpt lat="40.9890601" lon="19.6687708"><ele>8.0</ele><time>2026-04-26T11:12:45.274Z</time></trkpt><trkpt lat="40.9888314" lon="19.6687694"><ele>8.0</ele><time>2026-04-26T11:12:46.275Z</time></trkpt><trkpt lat="40.9886057" lon="19.6687682"><ele>8.0</ele><time>2026-04-26T11:12:47.274Z</time></trkpt><trkpt lat="40.9883819" lon="19.668771"><ele>8.0</ele><time>2026-04-26T11:12:48.275Z</time></trkpt><trkpt lat="40.9881607" lon="19.6687811"><ele>8.0</ele><time>2026-04-26T11:12:49.277Z</time></trkpt><trkpt lat="40.9879473" lon="19.6687898"><ele>8.0</ele><time>2026-04-26T11:12:50.274Z</time></trkpt><trkpt lat="40.9877397" lon="19.6687992"><ele>8.0</ele><time>2026-04-26T11:12:51.274Z</time></trkpt><trkpt lat="40.9875384" lon="19.6688092"><ele>7.666666666666666</ele><time>2026-04-26T11:12:52.275Z</time></trkpt><trkpt lat="40.9873412" lon="19.6688191"><ele>7.333333333333334</ele><time>2026-04-26T11:12:53.275Z</time></trkpt><trkpt lat="40.987149" lon="19.6688279"><ele>7.0</ele><time>2026-04-26T11:12:54.274Z</time></trkpt><trkpt lat="40.9869591" lon="19.6688362"><ele>7.0</ele><time>2026-04-26T11:12:55.275Z</time></trkpt><trkpt lat="40.9867656" lon="19.6688384"><ele>7.0</ele><time>2026-04-26T11:12:56.276Z</time></trkpt><trkpt lat="40.9865737" lon="19.6688274"><ele>7.0</ele><time>2026-04-26T11:12:57.276Z</time></trkpt><trkpt lat="40.9863839" lon="19.6688006"><ele>7.333333333333334</ele><time>2026-04-26T11:12:58.276Z</time></trkpt><trkpt lat="40.9861956" lon="19.6687614"><ele>7.666666666666666</ele><time>2026-04-26T11:12:59.274Z</time></trkpt><trkpt lat="40.9860124" lon="19.6687138"><ele>8.0</ele><time>2026-04-26T11:13:00.276Z</time></trkpt><trkpt lat="40.9858337" lon="19.6686535"><ele>6.666666666666666</ele><time>2026-04-26T11:13:01.275Z</time></trkpt><trkpt lat="40.985652" lon="19.6685929"><ele>5.333333333333333</ele><time>2026-04-26T11:13:02.275Z</time></trkpt><trkpt lat="40.9854741" lon="19.6685189"><ele>4.0</ele><time>2026-04-26T11:13:03.276Z</time></trkpt><trkpt lat="40.9852991" lon="19.6684477"><ele>4.0</ele><time>2026-04-26T11:13:04.275Z</time></trkpt><trkpt lat="40.9851281" lon="19.6683657"><ele>4.0</ele><time>2026-04-26T11:13:05.275Z</time></trkpt><trkpt lat="40.9849711" lon="19.6682895"><ele>4.0</ele><time>2026-04-26T11:13:06.274Z</time></trkpt><trkpt lat="40.984822" lon="19.6682163"><ele>4.0</ele><time>2026-04-26T11:13:07.275Z</time></trkpt><trkpt lat="40.9846833" lon="19.6681443"><ele>4.0</ele><time>2026-04-26T11:13:08.273Z</time></trkpt><trkpt lat="40.9845582" lon="19.6680703"><ele>4.0</ele><time>2026-04-26T11:13:09.272Z</time></trkpt><trkpt lat="40.9844461" lon="19.6679908"><ele>4.0</ele><time>2026-04-26T11:13:10.275Z</time></trkpt><trkpt lat="40.9843449" lon="19.6679078"><ele>4.0</ele><time>2026-04-26T11:13:11.275Z</time></trkpt><trkpt lat="40.9842567" lon="19.66783"><ele>4.0</ele><time>2026-04-26T11:13:12.275Z</time></trkpt><trkpt lat="40.9841707" lon="19.667776"><ele>4.0</ele><time>2026-04-26T11:13:13.272Z</time></trkpt><trkpt lat="40.9840807" lon="19.6677554"><ele>4.0</ele><time>2026-04-26T11:13:14.273Z</time></trkpt><trkpt lat="40.9839901" lon="19.6677753"><ele>4.0</ele><time>2026-04-26T11:13:15.277Z</time></trkpt><trkpt lat="40.9839071" lon="19.6678332"><ele>3.25</ele><time>2026-04-26T11:13:16.277Z</time></trkpt><trkpt lat="40.9838391" lon="19.6679148"><ele>2.5</ele><time>2026-04-26T11:13:17.275Z</time></trkpt><trkpt lat="40.9837602" lon="19.6680125"><ele>1.75</ele><time>2026-04-26T11:13:18.274Z</time></trkpt><trkpt lat="40.9836644" lon="19.6681187"><ele>1.0</ele><time>2026-04-26T11:13:19.276Z</time></trkpt><trkpt lat="40.9835543" lon="19.6682054"><ele>1.0</ele><time>2026-04-26T11:13:20.274Z</time></trkpt><trkpt lat="40.9834361" lon="19.6682905"><ele>1.0</ele><time>2026-04-26T11:13:21.274Z</time></trkpt><trkpt lat="40.983307" lon="19.6683791"><ele>1.0</ele><time>2026-04-26T11:13:22.276Z</time></trkpt><trkpt lat="40.9831691" lon="19.6684669"><ele>1.0</ele><time>2026-04-26T11:13:23.273Z</time></trkpt><trkpt lat="40.9830215" lon="19.6685625"><ele>2.0</ele><time>2026-04-26T11:13:24.274Z</time></trkpt><trkpt lat="40.9828569" lon="19.668666"><ele>3.0</ele><time>2026-04-26T11:13:25.275Z</time></trkpt><trkpt lat="40.9826859" lon="19.6687672"><ele>4.0</ele><time>2026-04-26T11:13:26.273Z</time></trkpt><trkpt lat="40.9824991" lon="19.6688589"><ele>4.0</ele><time>2026-04-26T11:13:27.277Z</time></trkpt><trkpt lat="40.9822961" lon="19.668922"><ele>4.0</ele><time>2026-04-26T11:13:28.275Z</time></trkpt><trkpt lat="40.9820858" lon="19.6689685"><ele>4.0</ele><time>2026-04-26T11:13:29.276Z</time></trkpt><trkpt lat="40.9818623" lon="19.6689953"><ele>3.5</ele><time>2026-04-26T11:13:30.275Z</time></trkpt><trkpt lat="40.981636" lon="19.669021"><ele>3.0</ele><time>2026-04-26T11:13:31.278Z</time></trkpt><trkpt lat="40.9814125" lon="19.6690564"><ele>3.0</ele><time>2026-04-26T11:13:32.275Z</time></trkpt><trkpt lat="40.9811896" lon="19.6690986"><ele>3.0</ele><time>2026-04-26T11:13:33.275Z</time></trkpt><trkpt lat="40.9809668" lon="19.6691496"><ele>2.6666666666666665</ele><time>2026-04-26T11:13:34.275Z</time></trkpt><trkpt lat="40.9807468" lon="19.6692068"><ele>2.333333333333333</ele><time>2026-04-26T11:13:35.274Z</time></trkpt><trkpt lat="40.9805292" lon="19.6692562"><ele>2.0</ele><time>2026-04-26T11:13:36.274Z</time></trkpt><trkpt lat="40.9803161" lon="19.6693149"><ele>2.0</ele><time>2026-04-26T11:13:37.275Z</time></trkpt><trkpt lat="40.980106" lon="19.6693801"><ele>2.0</ele><time>2026-04-26T11:13:38.277Z</time></trkpt><trkpt lat="40.9798953" lon="19.6694388"><ele>2.0</ele><time>2026-04-26T11:13:39.275Z</time></trkpt><trkpt lat="40.9796874" lon="19.6695042"><ele>2.333333333333333</ele><time>2026-04-26T11:13:40.275Z</time></trkpt><trkpt lat="40.9794772" lon="19.6695743"><ele>2.6666666666666665</ele><time>2026-04-26T11:13:41.275Z</time></trkpt><trkpt lat="40.9792688" lon="19.6696505"><ele>3.0</ele><time>2026-04-26T11:13:42.275Z</time></trkpt><trkpt lat="40.9790603" lon="19.6697289"><ele>3.0</ele><time>2026-04-26T11:13:43.278Z</time></trkpt><trkpt lat="40.9788508" lon="19.6698093"><ele>3.0</ele><time>2026-04-26T11:13:44.275Z</time></trkpt><trkpt lat="40.9786405" lon="19.6698852"><ele>3.0</ele><time>2026-04-26T11:13:45.276Z</time></trkpt><trkpt lat="40.9784291" lon="19.6699761"><ele>3.0</ele><time>2026-04-26T11:13:46.275Z</time></trkpt><trkpt lat="40.9782207" lon="19.6700692"><ele>3.0</ele><time>2026-04-26T11:13:47.276Z</time></trkpt><trkpt lat="40.9780084" lon="19.6701583"><ele>3.0</ele><time>2026-04-26T11:13:48.278Z</time></trkpt><trkpt lat="40.9777975" lon="19.6702569"><ele>5.0</ele><time>2026-04-26T11:13:49.274Z</time></trkpt><trkpt lat="40.9775871" lon="19.6703611"><ele>7.0</ele><time>2026-04-26T11:13:50.276Z</time></trkpt><trkpt lat="40.977378" lon="19.6704697"><ele>9.0</ele><time>2026-04-26T11:13:51.274Z</time></trkpt><trkpt lat="40.9771698" lon="19.6705802"><ele>9.0</ele><time>2026-04-26T11:13:52.275Z</time></trkpt><trkpt lat="40.9769616" lon="19.6706932"><ele>9.0</ele><time>2026-04-26T11:13:53.277Z</time></trkpt><trkpt lat="40.9767539" lon="19.6708119"><ele>6.5</ele><time>2026-04-26T11:13:54.273Z</time></trkpt><trkpt lat="40.9765467" lon="19.6709347"><ele>4.0</ele><time>2026-04-26T11:13:55.275Z</time></trkpt><trkpt lat="40.9763397" lon="19.6710622"><ele>6.0</ele><time>2026-04-26T11:13:56.271Z</time></trkpt><trkpt lat="40.9761323" lon="19.6711946"><ele>8.0</ele><time>2026-04-26T11:13:57.276Z</time></trkpt><trkpt lat="40.9759253" lon="19.6713291"><ele>7.0</ele><time>2026-04-26T11:13:58.276Z</time></trkpt><trkpt lat="40.9757191" lon="19.6714664"><ele>6.0</ele><time>2026-04-26T11:13:59.276Z</time></trkpt><trkpt lat="40.9755134" lon="19.6716073"><ele>6.0</ele><time>2026-04-26T11:14:00.273Z</time></trkpt><trkpt lat="40.9753087" lon="19.6717497"><ele>6.0</ele><time>2026-04-26T11:14:01.275Z</time></trkpt><trkpt lat="40.9751047" lon="19.671894"><ele>5.0</ele><time>2026-04-26T11:14:02.275Z</time></trkpt><trkpt lat="40.9749011" lon="19.6720398"><ele>4.0</ele><time>2026-04-26T11:14:03.275Z</time></trkpt><trkpt lat="40.9746974" lon="19.6721861"><ele>4.0</ele><time>2026-04-26T11:14:04.275Z</time></trkpt><trkpt lat="40.9744946" lon="19.6723361"><ele>4.0</ele><time>2026-04-26T11:14:05.273Z</time></trkpt><trkpt lat="40.9742895" lon="19.672482"><ele>4.5</ele><time>2026-04-26T11:14:06.275Z</time></trkpt><trkpt lat="40.9740843" lon="19.6726266"><ele>5.0</ele><time>2026-04-26T11:14:07.275Z</time></trkpt><trkpt lat="40.973879" lon="19.6727712"><ele>5.0</ele><time>2026-04-26T11:14:08.274Z</time></trkpt><trkpt lat="40.9736738" lon="19.6729163"><ele>5.0</ele><time>2026-04-26T11:14:09.275Z</time></trkpt><trkpt lat="40.9734682" lon="19.673061"><ele>5.0</ele><time>2026-04-26T11:14:10.275Z</time></trkpt><trkpt lat="40.9732637" lon="19.6732041"><ele>5.0</ele><time>2026-04-26T11:14:11.277Z</time></trkpt><trkpt lat="40.9730597" lon="19.6733447"><ele>5.0</ele><time>2026-04-26T11:14:12.275Z</time></trkpt><trkpt lat="40.9728552" lon="19.6734832"><ele>5.0</ele><time>2026-04-26T11:14:13.275Z</time></trkpt><trkpt lat="40.972651" lon="19.673622"><ele>5.5</ele><time>2026-04-26T11:14:14.28Z</time></trkpt><trkpt lat="40.9724464" lon="19.6737581"><ele>6.0</ele><time>2026-04-26T11:14:15.276Z</time></trkpt><trkpt lat="40.972242" lon="19.6738931"><ele>6.0</ele><time>2026-04-26T11:14:16.276Z</time></trkpt><trkpt lat="40.9720378" lon="19.6740272"><ele>6.0</ele><time>2026-04-26T11:14:17.276Z</time></trkpt><trkpt lat="40.9718344" lon="19.6741621"><ele>6.0</ele><time>2026-04-26T11:14:18.274Z</time></trkpt><trkpt lat="40.9716311" lon="19.6742958"><ele>6.0</ele><time>2026-04-26T11:14:19.273Z</time></trkpt><trkpt lat="40.9714304" lon="19.6744338"><ele>7.0</ele><time>2026-04-26T11:14:20.275Z</time></trkpt><trkpt lat="40.9712303" lon="19.674566"><ele>8.0</ele><time>2026-04-26T11:14:21.275Z</time></trkpt><trkpt lat="40.9710262" lon="19.6747025"><ele>6.5</ele><time>2026-04-26T11:14:22.276Z</time></trkpt><trkpt lat="40.9708233" lon="19.6748341"><ele>5.0</ele><time>2026-04-26T11:14:23.276Z</time></trkpt><trkpt lat="40.9706205" lon="19.6749687"><ele>5.0</ele><time>2026-04-26T11:14:24.275Z</time></trkpt><trkpt lat="40.9704183" lon="19.6751041"><ele>5.0</ele><time>2026-04-26T11:14:25.279Z</time></trkpt><trkpt lat="40.970215" lon="19.67524"><ele>5.5</ele><time>2026-04-26T11:14:26.276Z</time></trkpt><trkpt lat="40.9700101" lon="19.6753754"><ele>6.0</ele><time>2026-04-26T11:14:27.274Z</time></trkpt><trkpt lat="40.9698042" lon="19.6755105"><ele>6.0</ele><time>2026-04-26T11:14:28.275Z</time></trkpt><trkpt lat="40.9695983" lon="19.6756471"><ele>6.0</ele><time>2026-04-26T11:14:29.276Z</time></trkpt><trkpt lat="40.9693927" lon="19.6757873"><ele>5.5</ele><time>2026-04-26T11:14:30.275Z</time></trkpt><trkpt lat="40.969185" lon="19.6759208"><ele>5.0</ele><time>2026-04-26T11:14:31.274Z</time></trkpt><trkpt lat="40.9689805" lon="19.6760666"><ele>7.5</ele><time>2026-04-26T11:14:32.275Z</time></trkpt><trkpt lat="40.968776" lon="19.6762154"><ele>10.0</ele><time>2026-04-26T11:14:33.274Z</time></trkpt><trkpt lat="40.9685721" lon="19.676366"><ele>10.0</ele><time>2026-04-26T11:14:34.274Z</time></trkpt><trkpt lat="40.968369" lon="19.6765152"><ele>10.0</ele><time>2026-04-26T11:14:35.277Z</time></trkpt><trkpt lat="40.9681646" lon="19.6766698"><ele>9.0</ele><time>2026-04-26T11:14:36.273Z</time></trkpt><trkpt lat="40.9679656" lon="19.6768211"><ele>8.0</ele><time>2026-04-26T11:14:37.275Z</time></trkpt><trkpt lat="40.9677676" lon="19.6769729"><ele>7.0</ele><time>2026-04-26T11:14:38.272Z</time></trkpt><trkpt lat="40.9675713" lon="19.6771259"><ele>6.0</ele><time>2026-04-26T11:14:39.274Z</time></trkpt><trkpt lat="40.9673767" lon="19.6772806"><ele>6.0</ele><time>2026-04-26T11:14:40.279Z</time></trkpt><trkpt lat="40.9671824" lon="19.6774353"><ele>6.0</ele><time>2026-04-26T11:14:41.275Z</time></trkpt><trkpt lat="40.9669918" lon="19.6775958"><ele>6.0</ele><time>2026-04-26T11:14:42.275Z</time></trkpt><trkpt lat="40.9668004" lon="19.677754"><ele>6.0</ele><time>2026-04-26T11:14:43.274Z</time></trkpt><trkpt lat="40.9666099" lon="19.6779195"><ele>5.5</ele><time>2026-04-26T11:14:44.275Z</time></trkpt><trkpt lat="40.9664165" lon="19.6780829"><ele>5.0</ele><time>2026-04-26T11:14:45.274Z</time></trkpt><trkpt lat="40.9662288" lon="19.6782385"><ele>5.0</ele><time>2026-04-26T11:14:46.279Z</time></trkpt><trkpt lat="40.9660363" lon="19.6783942"><ele>5.0</ele><time>2026-04-26T11:14:47.275Z</time></trkpt><trkpt lat="40.9658429" lon="19.6785471"><ele>6.0</ele><time>2026-04-26T11:14:48.275Z</time></trkpt><trkpt lat="40.9656492" lon="19.6787004"><ele>7.0</ele><time>2026-04-26T11:14:49.276Z</time></trkpt><trkpt lat="40.9654552" lon="19.678856"><ele>7.0</ele><time>2026-04-26T11:14:50.274Z</time></trkpt><trkpt lat="40.9652622" lon="19.6790102"><ele>7.0</ele><time>2026-04-26T11:14:51.273Z</time></trkpt><trkpt lat="40.965071" lon="19.6791664"><ele>7.0</ele><time>2026-04-26T11:14:52.275Z</time></trkpt><trkpt lat="40.9648811" lon="19.6793232"><ele>7.0</ele><time>2026-04-26T11:14:53.273Z</time></trkpt><trkpt lat="40.964695" lon="19.6794791"><ele>7.0</ele><time>2026-04-26T11:14:54.275Z</time></trkpt><trkpt lat="40.9645035" lon="19.6796373"><ele>7.0</ele><time>2026-04-26T11:14:55.273Z</time></trkpt><trkpt lat="40.9643127" lon="19.6797962"><ele>7.0</ele><time>2026-04-26T11:14:56.274Z</time></trkpt><trkpt lat="40.9641221" lon="19.6799508"><ele>7.0</ele><time>2026-04-26T11:14:57.275Z</time></trkpt><trkpt lat="40.963931" lon="19.6801063"><ele>7.0</ele><time>2026-04-26T11:14:58.275Z</time></trkpt><trkpt lat="40.963741" lon="19.6802618"><ele>7.0</ele><time>2026-04-26T11:14:59.274Z</time></trkpt><trkpt lat="40.963551" lon="19.6804216"><ele>7.0</ele><time>2026-04-26T11:15:00.275Z</time></trkpt><trkpt lat="40.963358" lon="19.6805781"><ele>7.5</ele><time>2026-04-26T11:15:01.273Z</time></trkpt><trkpt lat="40.9631656" lon="19.6807374"><ele>8.0</ele><time>2026-04-26T11:15:02.276Z</time></trkpt><trkpt lat="40.9629734" lon="19.6808981"><ele>8.0</ele><time>2026-04-26T11:15:03.274Z</time></trkpt><trkpt lat="40.9627804" lon="19.6810578"><ele>8.0</ele><time>2026-04-26T11:15:04.277Z</time></trkpt><trkpt lat="40.9625868" lon="19.6812172"><ele>8.5</ele><time>2026-04-26T11:15:05.275Z</time></trkpt><trkpt lat="40.962393" lon="19.681376"><ele>9.0</ele><time>2026-04-26T11:15:06.274Z</time></trkpt><trkpt lat="40.9621991" lon="19.6815335"><ele>9.0</ele><time>2026-04-26T11:15:07.275Z</time></trkpt><trkpt lat="40.9620057" lon="19.6816921"><ele>9.0</ele><time>2026-04-26T11:15:08.272Z</time></trkpt><trkpt lat="40.96181" lon="19.6818493"><ele>11.5</ele><time>2026-04-26T11:15:09.277Z</time></trkpt><trkpt lat="40.9616165" lon="19.6820074"><ele>14.0</ele><time>2026-04-26T11:15:10.275Z</time></trkpt><trkpt lat="40.9614246" lon="19.6821684"><ele>14.0</ele><time>2026-04-26T11:15:11.274Z</time></trkpt><trkpt lat="40.9612318" lon="19.682325"><ele>14.0</ele><time>2026-04-26T11:15:12.273Z</time></trkpt><trkpt lat="40.9610425" lon="19.6824878"><ele>14.0</ele><time>2026-04-26T11:15:13.275Z</time></trkpt><trkpt lat="40.9608562" lon="19.6826351"><ele>14.0</ele><time>2026-04-26T11:15:14.273Z</time></trkpt><trkpt lat="40.9606679" lon="19.682792"><ele>14.0</ele><time>2026-04-26T11:15:15.277Z</time></trkpt><trkpt lat="40.9604825" lon="19.6829467"><ele>14.0</ele><time>2026-04-26T11:15:16.277Z</time></trkpt><trkpt lat="40.9603003" lon="19.6830981"><ele>14.0</ele><time>2026-04-26T11:15:17.274Z</time></trkpt><trkpt lat="40.960124" lon="19.6832485"><ele>14.0</ele><time>2026-04-26T11:15:18.275Z</time></trkpt><trkpt lat="40.9599476" lon="19.6833929"><ele>13.333333333333334</ele><time>2026-04-26T11:15:19.274Z</time></trkpt><trkpt lat="40.9597738" lon="19.683544"><ele>12.666666666666668</ele><time>2026-04-26T11:15:20.278Z</time></trkpt><trkpt lat="40.9596036" lon="19.6836852"><ele>12.0</ele><time>2026-04-26T11:15:21.274Z</time></trkpt><trkpt lat="40.9594348" lon="19.6838266"><ele>12.0</ele><time>2026-04-26T11:15:22.273Z</time></trkpt><trkpt lat="40.9592731" lon="19.6839596"><ele>12.0</ele><time>2026-04-26T11:15:23.275Z</time></trkpt><trkpt lat="40.9591151" lon="19.6840872"><ele>12.0</ele><time>2026-04-26T11:15:24.275Z</time></trkpt><trkpt lat="40.9589599" lon="19.6842144"><ele>12.0</ele><time>2026-04-26T11:15:25.275Z</time></trkpt><trkpt lat="40.958802" lon="19.6843348"><ele>12.0</ele><time>2026-04-26T11:15:26.274Z</time></trkpt><trkpt lat="40.9586481" lon="19.684464"><ele>12.0</ele><time>2026-04-26T11:15:27.274Z</time></trkpt><trkpt lat="40.9584956" lon="19.6845939"><ele>11.666666666666666</ele><time>2026-04-26T11:15:28.273Z</time></trkpt><trkpt lat="40.9583436" lon="19.6847195"><ele>11.333333333333332</ele><time>2026-04-26T11:15:29.273Z</time></trkpt><trkpt lat="40.9581946" lon="19.6848419"><ele>11.0</ele><time>2026-04-26T11:15:30.274Z</time></trkpt><trkpt lat="40.9580442" lon="19.6849648"><ele>11.0</ele><time>2026-04-26T11:15:31.273Z</time></trkpt><trkpt lat="40.9578949" lon="19.6850866"><ele>11.0</ele><time>2026-04-26T11:15:32.272Z</time></trkpt><trkpt lat="40.9577484" lon="19.6852065"><ele>11.0</ele><time>2026-04-26T11:15:33.275Z</time></trkpt><trkpt lat="40.9576087" lon="19.6853244"><ele>11.75</ele><time>2026-04-26T11:15:34.276Z</time></trkpt><trkpt lat="40.9574763" lon="19.685434"><ele>12.5</ele><time>2026-04-26T11:15:35.274Z</time></trkpt><trkpt lat="40.9573482" lon="19.6855293"><ele>13.25</ele><time>2026-04-26T11:15:36.275Z</time></trkpt><trkpt lat="40.9572216" lon="19.6856257"><ele>14.0</ele><time>2026-04-26T11:15:37.275Z</time></trkpt><trkpt lat="40.9570997" lon="19.6857166"><ele>14.0</ele><time>2026-04-26T11:15:38.272Z</time></trkpt><trkpt lat="40.9569809" lon="19.6857977"><ele>14.0</ele><time>2026-04-26T11:15:39.276Z</time></trkpt><trkpt lat="40.9568662" lon="19.6858709"><ele>14.0</ele><time>2026-04-26T11:15:40.273Z</time></trkpt><trkpt lat="40.9567568" lon="19.6859302"><ele>14.0</ele><time>2026-04-26T11:15:41.276Z</time></trkpt><trkpt lat="40.9566546" lon="19.6859893"><ele>13.6</ele><time>2026-04-26T11:15:42.276Z</time></trkpt><trkpt lat="40.9565566" lon="19.6860347"><ele>13.2</ele><time>2026-04-26T11:15:43.276Z</time></trkpt><trkpt lat="40.9564603" lon="19.686071"><ele>12.799999999999999</ele><time>2026-04-26T11:15:44.275Z</time></trkpt><trkpt lat="40.9563685" lon="19.6860989"><ele>12.399999999999999</ele><time>2026-04-26T11:15:45.274Z</time></trkpt><trkpt lat="40.9562791" lon="19.6861182"><ele>12.0</ele><time>2026-04-26T11:15:46.276Z</time></trkpt><trkpt lat="40.9561944" lon="19.6861262"><ele>12.0</ele><time>2026-04-26T11:15:47.275Z</time></trkpt><trkpt lat="40.9561198" lon="19.6861338"><ele>12.0</ele><time>2026-04-26T11:15:48.276Z</time></trkpt><trkpt lat="40.9560539" lon="19.6861376"><ele>12.0</ele><time>2026-04-26T11:15:49.274Z</time></trkpt><trkpt lat="40.9559371" lon="19.6861146"><ele>12.0</ele><time>2026-04-26T11:15:51.274Z</time></trkpt><trkpt lat="40.9558266" lon="19.6860349"><ele>12.0</ele><time>2026-04-26T11:15:53.275Z</time></trkpt><trkpt lat="40.9557084" lon="19.6859854"><ele>12.0</ele><time>2026-04-26T11:15:55.275Z</time></trkpt><trkpt lat="40.9555846" lon="19.6860115"><ele>12.0</ele><time>2026-04-26T11:15:57.275Z</time></trkpt><trkpt lat="40.9555224" lon="19.6860573"><ele>12.0</ele><time>2026-04-26T11:15:58.274Z</time></trkpt><trkpt lat="40.9554518" lon="19.6861071"><ele>12.0</ele><time>2026-04-26T11:15:59.274Z</time></trkpt><trkpt lat="40.9553789" lon="19.6861387"><ele>12.0</ele><time>2026-04-26T11:16:00.272Z</time></trkpt><trkpt lat="40.9552811" lon="19.6861642"><ele>12.0</ele><time>2026-04-26T11:16:01.274Z</time></trkpt><trkpt lat="40.9551496" lon="19.6861788"><ele>12.0</ele><time>2026-04-26T11:16:02.273Z</time></trkpt><trkpt lat="40.9550051" lon="19.6861846"><ele>12.0</ele><time>2026-04-26T11:16:03.276Z</time></trkpt><trkpt lat="40.9548128" lon="19.6861811"><ele>11.666666666666666</ele><time>2026-04-26T11:16:04.275Z</time></trkpt><trkpt lat="40.9546279" lon="19.6861648"><ele>11.333333333333332</ele><time>2026-04-26T11:16:05.275Z</time></trkpt><trkpt lat="40.9544407" lon="19.6861409"><ele>11.0</ele><time>2026-04-26T11:16:06.275Z</time></trkpt><trkpt lat="40.9542553" lon="19.6861081"><ele>11.333333333333332</ele><time>2026-04-26T11:16:07.276Z</time></trkpt><trkpt lat="40.9540739" lon="19.6860627"><ele>11.666666666666666</ele><time>2026-04-26T11:16:08.275Z</time></trkpt><trkpt lat="40.9538967" lon="19.6860074"><ele>12.0</ele><time>2026-04-26T11:16:09.271Z</time></trkpt><trkpt lat="40.953717" lon="19.6859438"><ele>12.0</ele><time>2026-04-26T11:16:10.275Z</time></trkpt><trkpt lat="40.9535407" lon="19.6858628"><ele>12.0</ele><time>2026-04-26T11:16:11.275Z</time></trkpt><trkpt lat="40.9533667" lon="19.6857705"><ele>12.0</ele><time>2026-04-26T11:16:12.275Z</time></trkpt><trkpt lat="40.9531951" lon="19.6856642"><ele>12.0</ele><time>2026-04-26T11:16:13.275Z</time></trkpt><trkpt lat="40.953026" lon="19.6855436"><ele>12.0</ele><time>2026-04-26T11:16:14.274Z</time></trkpt><trkpt lat="40.9528609" lon="19.6854123"><ele>12.0</ele><time>2026-04-26T11:16:15.276Z</time></trkpt><trkpt lat="40.9527014" lon="19.6852715"><ele>11.333333333333334</ele><time>2026-04-26T11:16:16.274Z</time></trkpt><trkpt lat="40.9525488" lon="19.6851217"><ele>10.666666666666668</ele><time>2026-04-26T11:16:17.275Z</time></trkpt><trkpt lat="40.9523958" lon="19.684971"><ele>10.0</ele><time>2026-04-26T11:16:18.276Z</time></trkpt><trkpt lat="40.9522462" lon="19.6848163"><ele>10.0</ele><time>2026-04-26T11:16:19.275Z</time></trkpt><trkpt lat="40.9520939" lon="19.6846569"><ele>10.0</ele><time>2026-04-26T11:16:20.274Z</time></trkpt><trkpt lat="40.9519403" lon="19.6844942"><ele>10.0</ele><time>2026-04-26T11:16:21.274Z</time></trkpt><trkpt lat="40.9517838" lon="19.6843256"><ele>10.333333333333334</ele><time>2026-04-26T11:16:22.276Z</time></trkpt><trkpt lat="40.9516239" lon="19.6841529"><ele>10.666666666666666</ele><time>2026-04-26T11:16:23.273Z</time></trkpt><trkpt lat="40.9514602" lon="19.6839821"><ele>11.0</ele><time>2026-04-26T11:16:24.275Z</time></trkpt><trkpt lat="40.951289" lon="19.6838052"><ele>11.0</ele><time>2026-04-26T11:16:25.275Z</time></trkpt><trkpt lat="40.9511142" lon="19.683625"><ele>11.0</ele><time>2026-04-26T11:16:26.273Z</time></trkpt><trkpt lat="40.9509282" lon="19.6834458"><ele>10.0</ele><time>2026-04-26T11:16:27.276Z</time></trkpt><trkpt lat="40.9507378" lon="19.6832686"><ele>9.0</ele><time>2026-04-26T11:16:28.274Z</time></trkpt><trkpt lat="40.9505433" lon="19.6830998"><ele>9.0</ele><time>2026-04-26T11:16:29.274Z</time></trkpt><trkpt lat="40.9503497" lon="19.6829341"><ele>9.0</ele><time>2026-04-26T11:16:30.274Z</time></trkpt><trkpt lat="40.950158" lon="19.6827758"><ele>9.0</ele><time>2026-04-26T11:16:31.274Z</time></trkpt><trkpt lat="40.9499611" lon="19.6826269"><ele>9.0</ele><time>2026-04-26T11:16:32.275Z</time></trkpt><trkpt lat="40.9497643" lon="19.6824811"><ele>9.0</ele><time>2026-04-26T11:16:33.274Z</time></trkpt><trkpt lat="40.9495536" lon="19.6823427"><ele>9.0</ele><time>2026-04-26T11:16:34.276Z</time></trkpt><trkpt lat="40.949339" lon="19.6822105"><ele>9.5</ele><time>2026-04-26T11:16:35.272Z</time></trkpt><trkpt lat="40.9491179" lon="19.6820819"><ele>10.0</ele><time>2026-04-26T11:16:36.274Z</time></trkpt><trkpt lat="40.9488913" lon="19.6819583"><ele>9.0</ele><time>2026-04-26T11:16:37.275Z</time></trkpt><trkpt lat="40.9486594" lon="19.6818438"><ele>8.0</ele><time>2026-04-26T11:16:38.276Z</time></trkpt><trkpt lat="40.9484225" lon="19.6817357"><ele>9.0</ele><time>2026-04-26T11:16:39.278Z</time></trkpt><trkpt lat="40.9481792" lon="19.6816356"><ele>10.0</ele><time>2026-04-26T11:16:40.278Z</time></trkpt><trkpt lat="40.9479325" lon="19.6815513"><ele>10.0</ele><time>2026-04-26T11:16:41.276Z</time></trkpt><trkpt lat="40.9476872" lon="19.6814635"><ele>10.0</ele><time>2026-04-26T11:16:42.274Z</time></trkpt><trkpt lat="40.947443" lon="19.6813868"><ele>11.0</ele><time>2026-04-26T11:16:43.276Z</time></trkpt><trkpt lat="40.947198" lon="19.6813189"><ele>12.0</ele><time>2026-04-26T11:16:44.275Z</time></trkpt><trkpt lat="40.9469532" lon="19.6812584"><ele>11.5</ele><time>2026-04-26T11:16:45.276Z</time></trkpt><trkpt lat="40.946708" lon="19.6812084"><ele>11.0</ele><time>2026-04-26T11:16:46.274Z</time></trkpt><trkpt lat="40.946461" lon="19.681169"><ele>11.0</ele><time>2026-04-26T11:16:47.274Z</time></trkpt><trkpt lat="40.9462054" lon="19.681139"><ele>11.0</ele><time>2026-04-26T11:16:48.278Z</time></trkpt><trkpt lat="40.945954" lon="19.6811133"><ele>10.5</ele><time>2026-04-26T11:16:49.274Z</time></trkpt><trkpt lat="40.9457022" lon="19.6810983"><ele>10.0</ele><time>2026-04-26T11:16:50.272Z</time></trkpt><trkpt lat="40.9454498" lon="19.6810923"><ele>10.0</ele><time>2026-04-26T11:16:51.274Z</time></trkpt><trkpt lat="40.9451966" lon="19.6810904"><ele>10.0</ele><time>2026-04-26T11:16:52.273Z</time></trkpt><trkpt lat="40.9449427" lon="19.6810908"><ele>10.0</ele><time>2026-04-26T11:16:53.275Z</time></trkpt><trkpt lat="40.9446891" lon="19.6810948"><ele>10.0</ele><time>2026-04-26T11:16:54.275Z</time></trkpt><trkpt lat="40.9444366" lon="19.6810992"><ele>11.0</ele><time>2026-04-26T11:16:55.276Z</time></trkpt><trkpt lat="40.9441855" lon="19.681099"><ele>12.0</ele><time>2026-04-26T11:16:56.273Z</time></trkpt><trkpt lat="40.9439368" lon="19.681095"><ele>11.5</ele><time>2026-04-26T11:16:57.273Z</time></trkpt><trkpt lat="40.9436857" lon="19.6810994"><ele>11.0</ele><time>2026-04-26T11:16:58.274Z</time></trkpt><trkpt lat="40.9434447" lon="19.6810996"><ele>11.5</ele><time>2026-04-26T11:16:59.273Z</time></trkpt><trkpt lat="40.9432055" lon="19.681109"><ele>12.0</ele><time>2026-04-26T11:17:00.272Z</time></trkpt><trkpt lat="40.9429695" lon="19.6811227"><ele>12.0</ele><time>2026-04-26T11:17:01.271Z</time></trkpt><trkpt lat="40.9427345" lon="19.681137"><ele>12.0</ele><time>2026-04-26T11:17:02.275Z</time></trkpt><trkpt lat="40.9425021" lon="19.6811588"><ele>12.5</ele><time>2026-04-26T11:17:03.274Z</time></trkpt><trkpt lat="40.9422722" lon="19.6811849"><ele>13.0</ele><time>2026-04-26T11:17:04.274Z</time></trkpt><trkpt lat="40.9420444" lon="19.6812156"><ele>13.0</ele><time>2026-04-26T11:17:05.274Z</time></trkpt><trkpt lat="40.9418182" lon="19.6812519"><ele>13.0</ele><time>2026-04-26T11:17:06.275Z</time></trkpt><trkpt lat="40.9415908" lon="19.6812924"><ele>12.333333333333332</ele><time>2026-04-26T11:17:07.276Z</time></trkpt><trkpt lat="40.9413688" lon="19.6813343"><ele>11.666666666666666</ele><time>2026-04-26T11:17:08.275Z</time></trkpt><trkpt lat="40.9411491" lon="19.6813792"><ele>11.0</ele><time>2026-04-26T11:17:09.273Z</time></trkpt><trkpt lat="40.9409309" lon="19.6814274"><ele>13.5</ele><time>2026-04-26T11:17:10.275Z</time></trkpt><trkpt lat="40.9407103" lon="19.6814835"><ele>16.0</ele><time>2026-04-26T11:17:11.272Z</time></trkpt><trkpt lat="40.9404887" lon="19.681546"><ele>16.0</ele><time>2026-04-26T11:17:12.276Z</time></trkpt><trkpt lat="40.9402621" lon="19.6816163"><ele>16.0</ele><time>2026-04-26T11:17:13.277Z</time></trkpt><trkpt lat="40.9400305" lon="19.681688"><ele>14.5</ele><time>2026-04-26T11:17:14.275Z</time></trkpt><trkpt lat="40.939797" lon="19.6817631"><ele>13.0</ele><time>2026-04-26T11:17:15.274Z</time></trkpt><trkpt lat="40.9395642" lon="19.6818432"><ele>13.0</ele><time>2026-04-26T11:17:16.273Z</time></trkpt><trkpt lat="40.9393292" lon="19.6819264"><ele>13.0</ele><time>2026-04-26T11:17:17.275Z</time></trkpt><trkpt lat="40.9390926" lon="19.6820148"><ele>12.5</ele><time>2026-04-26T11:17:18.272Z</time></trkpt><trkpt lat="40.9388549" lon="19.6821046"><ele>12.0</ele><time>2026-04-26T11:17:19.274Z</time></trkpt><trkpt lat="40.9386171" lon="19.6822017"><ele>12.0</ele><time>2026-04-26T11:17:20.275Z</time></trkpt><trkpt lat="40.9383797" lon="19.6823007"><ele>12.0</ele><time>2026-04-26T11:17:21.273Z</time></trkpt><trkpt lat="40.938143" lon="19.6824045"><ele>12.0</ele><time>2026-04-26T11:17:22.274Z</time></trkpt><trkpt lat="40.9379088" lon="19.6824993"><ele>12.0</ele><time>2026-04-26T11:17:23.275Z</time></trkpt><trkpt lat="40.9376789" lon="19.6826079"><ele>11.5</ele><time>2026-04-26T11:17:24.274Z</time></trkpt><trkpt lat="40.9374515" lon="19.6827192"><ele>11.0</ele><time>2026-04-26T11:17:25.274Z</time></trkpt><trkpt lat="40.9372246" lon="19.6828331"><ele>11.0</ele><time>2026-04-26T11:17:26.272Z</time></trkpt><trkpt lat="40.9370016" lon="19.6829507"><ele>11.0</ele><time>2026-04-26T11:17:27.274Z</time></trkpt><trkpt lat="40.9367789" lon="19.6830714"><ele>10.0</ele><time>2026-04-26T11:17:28.274Z</time></trkpt><trkpt lat="40.9365584" lon="19.6831955"><ele>9.0</ele><time>2026-04-26T11:17:29.274Z</time></trkpt><trkpt lat="40.936337" lon="19.6833277"><ele>9.0</ele><time>2026-04-26T11:17:30.274Z</time></trkpt><trkpt lat="40.9361164" lon="19.6834623"><ele>9.0</ele><time>2026-04-26T11:17:31.279Z</time></trkpt><trkpt lat="40.9358958" lon="19.6836047"><ele>10.5</ele><time>2026-04-26T11:17:32.274Z</time></trkpt><trkpt lat="40.9356743" lon="19.6837507"><ele>12.0</ele><time>2026-04-26T11:17:33.274Z</time></trkpt><trkpt lat="40.9354532" lon="19.6839003"><ele>12.0</ele><time>2026-04-26T11:17:34.273Z</time></trkpt><trkpt lat="40.9352331" lon="19.6840564"><ele>12.0</ele><time>2026-04-26T11:17:35.275Z</time></trkpt><trkpt lat="40.9350142" lon="19.6842185"><ele>11.5</ele><time>2026-04-26T11:17:36.273Z</time></trkpt><trkpt lat="40.9347964" lon="19.6843844"><ele>11.0</ele><time>2026-04-26T11:17:37.273Z</time></trkpt><trkpt lat="40.934579" lon="19.6845544"><ele>11.0</ele><time>2026-04-26T11:17:38.272Z</time></trkpt><trkpt lat="40.9343655" lon="19.6847306"><ele>11.0</ele><time>2026-04-26T11:17:39.271Z</time></trkpt><trkpt lat="40.9341509" lon="19.6849081"><ele>11.0</ele><time>2026-04-26T11:17:40.274Z</time></trkpt><trkpt lat="40.9339369" lon="19.6850891"><ele>11.0</ele><time>2026-04-26T11:17:41.273Z</time></trkpt><trkpt lat="40.9337245" lon="19.6852739"><ele>11.0</ele><time>2026-04-26T11:17:42.273Z</time></trkpt><trkpt lat="40.9335141" lon="19.6854619"><ele>11.0</ele><time>2026-04-26T11:17:43.275Z</time></trkpt><trkpt lat="40.9333048" lon="19.6856493"><ele>11.5</ele><time>2026-04-26T11:17:44.273Z</time></trkpt><trkpt lat="40.9330968" lon="19.6858356"><ele>12.0</ele><time>2026-04-26T11:17:45.272Z</time></trkpt><trkpt lat="40.9328963" lon="19.6860252"><ele>10.5</ele><time>2026-04-26T11:17:46.272Z</time></trkpt><trkpt lat="40.9327002" lon="19.6862173"><ele>9.0</ele><time>2026-04-26T11:17:47.275Z</time></trkpt><trkpt lat="40.9325094" lon="19.6864129"><ele>8.5</ele><time>2026-04-26T11:17:48.274Z</time></trkpt><trkpt lat="40.9323213" lon="19.6866109"><ele>8.0</ele><time>2026-04-26T11:17:49.275Z</time></trkpt><trkpt lat="40.9321343" lon="19.6868133"><ele>9.5</ele><time>2026-04-26T11:17:50.273Z</time></trkpt><trkpt lat="40.9319503" lon="19.6870245"><ele>11.0</ele><time>2026-04-26T11:17:51.273Z</time></trkpt><trkpt lat="40.9317639" lon="19.6872298"><ele>11.0</ele><time>2026-04-26T11:17:52.275Z</time></trkpt><trkpt lat="40.931577" lon="19.6874359"><ele>11.0</ele><time>2026-04-26T11:17:53.274Z</time></trkpt><trkpt lat="40.9313909" lon="19.6876384"><ele>10.5</ele><time>2026-04-26T11:17:54.274Z</time></trkpt><trkpt lat="40.9311997" lon="19.6878531"><ele>10.0</ele><time>2026-04-26T11:17:55.274Z</time></trkpt><trkpt lat="40.9310146" lon="19.6880642"><ele>10.0</ele><time>2026-04-26T11:17:56.274Z</time></trkpt><trkpt lat="40.9308311" lon="19.6882785"><ele>10.0</ele><time>2026-04-26T11:17:57.272Z</time></trkpt><trkpt lat="40.9306421" lon="19.6884892"><ele>9.0</ele><time>2026-04-26T11:17:58.273Z</time></trkpt><trkpt lat="40.9304563" lon="19.6886994"><ele>8.0</ele><time>2026-04-26T11:17:59.273Z</time></trkpt><trkpt lat="40.9302699" lon="19.6889085"><ele>8.0</ele><time>2026-04-26T11:18:00.274Z</time></trkpt><trkpt lat="40.9300856" lon="19.6891229"><ele>8.0</ele><time>2026-04-26T11:18:01.275Z</time></trkpt><trkpt lat="40.9298964" lon="19.689332"><ele>9.0</ele><time>2026-04-26T11:18:02.273Z</time></trkpt><trkpt lat="40.9297114" lon="19.6895419"><ele>10.0</ele><time>2026-04-26T11:18:03.274Z</time></trkpt><trkpt lat="40.9295286" lon="19.6897537"><ele>10.0</ele><time>2026-04-26T11:18:04.276Z</time></trkpt><trkpt lat="40.9293478" lon="19.6899683"><ele>10.0</ele><time>2026-04-26T11:18:05.272Z</time></trkpt><trkpt lat="40.9291667" lon="19.6901847"><ele>10.5</ele><time>2026-04-26T11:18:06.274Z</time></trkpt><trkpt lat="40.9289825" lon="19.690397"><ele>11.0</ele><time>2026-04-26T11:18:07.275Z</time></trkpt><trkpt lat="40.9287995" lon="19.6906086"><ele>11.0</ele><time>2026-04-26T11:18:08.272Z</time></trkpt><trkpt lat="40.9286173" lon="19.6908192"><ele>11.0</ele><time>2026-04-26T11:18:09.273Z</time></trkpt><trkpt lat="40.9284333" lon="19.6910296"><ele>10.5</ele><time>2026-04-26T11:18:10.274Z</time></trkpt><trkpt lat="40.928248" lon="19.6912381"><ele>10.0</ele><time>2026-04-26T11:18:11.274Z</time></trkpt><trkpt lat="40.9280651" lon="19.6914422"><ele>10.0</ele><time>2026-04-26T11:18:12.276Z</time></trkpt><trkpt lat="40.9278793" lon="19.6916531"><ele>10.0</ele><time>2026-04-26T11:18:13.275Z</time></trkpt><trkpt lat="40.9276931" lon="19.6918685"><ele>9.0</ele><time>2026-04-26T11:18:14.273Z</time></trkpt><trkpt lat="40.9275046" lon="19.6920897"><ele>8.0</ele><time>2026-04-26T11:18:15.271Z</time></trkpt><trkpt lat="40.9273063" lon="19.692325"><ele>8.0</ele><time>2026-04-26T11:18:16.273Z</time></trkpt><trkpt lat="40.9271194" lon="19.692559"><ele>8.0</ele><time>2026-04-26T11:18:17.275Z</time></trkpt><trkpt lat="40.9269407" lon="19.6927876"><ele>7.5</ele><time>2026-04-26T11:18:18.274Z</time></trkpt><trkpt lat="40.9267707" lon="19.6930097"><ele>7.0</ele><time>2026-04-26T11:18:19.272Z</time></trkpt><trkpt lat="40.9266096" lon="19.6932265"><ele>6.5</ele><time>2026-04-26T11:18:20.274Z</time></trkpt><trkpt lat="40.9264523" lon="19.6934436"><ele>6.0</ele><time>2026-04-26T11:18:21.275Z</time></trkpt><trkpt lat="40.926298" lon="19.6936622"><ele>6.666666666666666</ele><time>2026-04-26T11:18:22.276Z</time></trkpt><trkpt lat="40.9261463" lon="19.6938803"><ele>7.333333333333333</ele><time>2026-04-26T11:18:23.272Z</time></trkpt><trkpt lat="40.9259926" lon="19.6940932"><ele>8.0</ele><time>2026-04-26T11:18:24.274Z</time></trkpt><trkpt lat="40.9258452" lon="19.6943087"><ele>8.333333333333332</ele><time>2026-04-26T11:18:25.273Z</time></trkpt><trkpt lat="40.9256988" lon="19.6945241"><ele>8.666666666666666</ele><time>2026-04-26T11:18:26.274Z</time></trkpt><trkpt lat="40.9255548" lon="19.6947351"><ele>9.0</ele><time>2026-04-26T11:18:27.276Z</time></trkpt><trkpt lat="40.9254119" lon="19.6949491"><ele>9.0</ele><time>2026-04-26T11:18:28.274Z</time></trkpt><trkpt lat="40.9252682" lon="19.6951578"><ele>9.0</ele><time>2026-04-26T11:18:29.275Z</time></trkpt><trkpt lat="40.9251279" lon="19.6953675"><ele>9.0</ele><time>2026-04-26T11:18:30.275Z</time></trkpt><trkpt lat="40.9249837" lon="19.6955779"><ele>8.666666666666666</ele><time>2026-04-26T11:18:31.274Z</time></trkpt><trkpt lat="40.9248366" lon="19.6957867"><ele>8.333333333333332</ele><time>2026-04-26T11:18:32.272Z</time></trkpt><trkpt lat="40.9246883" lon="19.6959922"><ele>8.0</ele><time>2026-04-26T11:18:33.272Z</time></trkpt><trkpt lat="40.9245389" lon="19.6961975"><ele>8.0</ele><time>2026-04-26T11:18:34.274Z</time></trkpt><trkpt lat="40.9243918" lon="19.6964047"><ele>8.0</ele><time>2026-04-26T11:18:35.273Z</time></trkpt><trkpt lat="40.924248" lon="19.6966164"><ele>8.0</ele><time>2026-04-26T11:18:36.273Z</time></trkpt><trkpt lat="40.9241043" lon="19.6968278"><ele>8.333333333333332</ele><time>2026-04-26T11:18:37.272Z</time></trkpt><trkpt lat="40.9239614" lon="19.697041"><ele>8.666666666666666</ele><time>2026-04-26T11:18:38.273Z</time></trkpt><trkpt lat="40.9238192" lon="19.6972553"><ele>9.0</ele><time>2026-04-26T11:18:39.273Z</time></trkpt><trkpt lat="40.9236752" lon="19.6974663"><ele>9.0</ele><time>2026-04-26T11:18:40.274Z</time></trkpt><trkpt lat="40.9235366" lon="19.6976765"><ele>9.0</ele><time>2026-04-26T11:18:41.274Z</time></trkpt><trkpt lat="40.9233966" lon="19.697883"><ele>9.0</ele><time>2026-04-26T11:18:42.275Z</time></trkpt><trkpt lat="40.9232616" lon="19.6980886"><ele>9.0</ele><time>2026-04-26T11:18:43.276Z</time></trkpt><trkpt lat="40.9231255" lon="19.6982951"><ele>9.0</ele><time>2026-04-26T11:18:44.274Z</time></trkpt><trkpt lat="40.9229861" lon="19.6985006"><ele>9.0</ele><time>2026-04-26T11:18:45.274Z</time></trkpt><trkpt lat="40.9228477" lon="19.6987052"><ele>9.0</ele><time>2026-04-26T11:18:46.273Z</time></trkpt><trkpt lat="40.9227123" lon="19.6989115"><ele>9.0</ele><time>2026-04-26T11:18:47.275Z</time></trkpt><trkpt lat="40.9225776" lon="19.6991179"><ele>9.0</ele><time>2026-04-26T11:18:48.274Z</time></trkpt><trkpt lat="40.922443" lon="19.6993218"><ele>9.666666666666666</ele><time>2026-04-26T11:18:49.274Z</time></trkpt><trkpt lat="40.9223106" lon="19.6995133"><ele>10.333333333333332</ele><time>2026-04-26T11:18:50.273Z</time></trkpt><trkpt lat="40.922181" lon="19.6997061"><ele>11.0</ele><time>2026-04-26T11:18:51.276Z</time></trkpt><trkpt lat="40.9220527" lon="19.6999002"><ele>11.0</ele><time>2026-04-26T11:18:52.274Z</time></trkpt><trkpt lat="40.921925" lon="19.7000911"><ele>11.0</ele><time>2026-04-26T11:18:53.28Z</time></trkpt><trkpt lat="40.9218019" lon="19.7002772"><ele>11.0</ele><time>2026-04-26T11:18:54.276Z</time></trkpt><trkpt lat="40.9216828" lon="19.7004497"><ele>11.0</ele><time>2026-04-26T11:18:55.276Z</time></trkpt><trkpt lat="40.9215726" lon="19.7006185"><ele>11.0</ele><time>2026-04-26T11:18:56.274Z</time></trkpt><trkpt lat="40.921462" lon="19.7007777"><ele>11.0</ele><time>2026-04-26T11:18:57.277Z</time></trkpt><trkpt lat="40.9213619" lon="19.7009278"><ele>11.0</ele><time>2026-04-26T11:18:58.275Z</time></trkpt><trkpt lat="40.9212693" lon="19.7010699"><ele>11.0</ele><time>2026-04-26T11:18:59.273Z</time></trkpt><trkpt lat="40.9211818" lon="19.7012"><ele>11.0</ele><time>2026-04-26T11:19:00.275Z</time></trkpt><trkpt lat="40.9211002" lon="19.7013187"><ele>11.0</ele><time>2026-04-26T11:19:01.274Z</time></trkpt><trkpt lat="40.9210294" lon="19.7014131"><ele>11.0</ele><time>2026-04-26T11:19:02.274Z</time></trkpt><trkpt lat="40.9209643" lon="19.7014914"><ele>11.0</ele><time>2026-04-26T11:19:03.271Z</time></trkpt><trkpt lat="40.9209014" lon="19.7015465"><ele>11.0</ele><time>2026-04-26T11:19:04.273Z</time></trkpt><trkpt lat="40.9208376" lon="19.7015873"><ele>11.0</ele><time>2026-04-26T11:19:05.275Z</time></trkpt><trkpt lat="40.9207685" lon="19.7016239"><ele>11.0</ele><time>2026-04-26T11:19:06.275Z</time></trkpt><trkpt lat="40.9206895" lon="19.7016579"><ele>11.0</ele><time>2026-04-26T11:19:07.277Z</time></trkpt><trkpt lat="40.9205973" lon="19.7016776"><ele>10.5</ele><time>2026-04-26T11:19:08.274Z</time></trkpt><trkpt lat="40.9204909" lon="19.7016911"><ele>10.0</ele><time>2026-04-26T11:19:09.274Z</time></trkpt><trkpt lat="40.9203729" lon="19.7016995"><ele>9.5</ele><time>2026-04-26T11:19:10.277Z</time></trkpt><trkpt lat="40.9202541" lon="19.701704"><ele>9.0</ele><time>2026-04-26T11:19:11.273Z</time></trkpt><trkpt lat="40.9201293" lon="19.7017089"><ele>9.0</ele><time>2026-04-26T11:19:12.272Z</time></trkpt><trkpt lat="40.9199995" lon="19.7017142"><ele>9.0</ele><time>2026-04-26T11:19:13.274Z</time></trkpt><trkpt lat="40.919867" lon="19.7017087"><ele>9.0</ele><time>2026-04-26T11:19:14.273Z</time></trkpt><trkpt lat="40.9197349" lon="19.7016898"><ele>9.0</ele><time>2026-04-26T11:19:15.273Z</time></trkpt><trkpt lat="40.9196047" lon="19.7016413"><ele>9.0</ele><time>2026-04-26T11:19:16.272Z</time></trkpt><trkpt lat="40.9194759" lon="19.7015663"><ele>9.0</ele><time>2026-04-26T11:19:17.274Z</time></trkpt><trkpt lat="40.9193473" lon="19.7014728"><ele>9.0</ele><time>2026-04-26T11:19:18.275Z</time></trkpt><trkpt lat="40.9192085" lon="19.7013612"><ele>9.0</ele><time>2026-04-26T11:19:19.275Z</time></trkpt><trkpt lat="40.9190608" lon="19.7012446"><ele>9.0</ele><time>2026-04-26T11:19:20.274Z</time></trkpt><trkpt lat="40.918912" lon="19.7011305"><ele>9.0</ele><time>2026-04-26T11:19:21.273Z</time></trkpt><trkpt lat="40.9187502" lon="19.7010027"><ele>9.0</ele><time>2026-04-26T11:19:22.276Z</time></trkpt><trkpt lat="40.9185722" lon="19.700869"><ele>9.0</ele><time>2026-04-26T11:19:23.275Z</time></trkpt><trkpt lat="40.9183895" lon="19.7007291"><ele>9.0</ele><time>2026-04-26T11:19:24.275Z</time></trkpt><trkpt lat="40.9182011" lon="19.7005799"><ele>8.5</ele><time>2026-04-26T11:19:25.276Z</time></trkpt><trkpt lat="40.9179947" lon="19.7004238"><ele>8.0</ele><time>2026-04-26T11:19:26.275Z</time></trkpt><trkpt lat="40.917774" lon="19.7002625"><ele>8.0</ele><time>2026-04-26T11:19:27.275Z</time></trkpt><trkpt lat="40.9175533" lon="19.7001032"><ele>8.0</ele><time>2026-04-26T11:19:28.274Z</time></trkpt><trkpt lat="40.9173267" lon="19.6999319"><ele>8.0</ele><time>2026-04-26T11:19:29.275Z</time></trkpt><trkpt lat="40.9170991" lon="19.6997567"><ele>8.0</ele><time>2026-04-26T11:19:30.272Z</time></trkpt><trkpt lat="40.9168731" lon="19.699578"><ele>8.0</ele><time>2026-04-26T11:19:31.274Z</time></trkpt><trkpt lat="40.9166454" lon="19.699403"><ele>8.0</ele><time>2026-04-26T11:19:32.275Z</time></trkpt><trkpt lat="40.9164222" lon="19.6992311"><ele>8.0</ele><time>2026-04-26T11:19:33.277Z</time></trkpt><trkpt lat="40.9162066" lon="19.6990588"><ele>8.0</ele><time>2026-04-26T11:19:34.277Z</time></trkpt><trkpt lat="40.9159964" lon="19.6988911"><ele>9.0</ele><time>2026-04-26T11:19:35.275Z</time></trkpt><trkpt lat="40.915787" lon="19.6987294"><ele>10.0</ele><time>2026-04-26T11:19:36.273Z</time></trkpt><trkpt lat="40.9155807" lon="19.6985685"><ele>10.0</ele><time>2026-04-26T11:19:37.274Z</time></trkpt><trkpt lat="40.9153765" lon="19.6984093"><ele>10.0</ele><time>2026-04-26T11:19:38.275Z</time></trkpt><trkpt lat="40.9151721" lon="19.6982478"><ele>9.0</ele><time>2026-04-26T11:19:39.276Z</time></trkpt><trkpt lat="40.9149702" lon="19.6980922"><ele>8.0</ele><time>2026-04-26T11:19:40.275Z</time></trkpt><trkpt lat="40.9147673" lon="19.6979335"><ele>8.0</ele><time>2026-04-26T11:19:41.275Z</time></trkpt><trkpt lat="40.9145655" lon="19.697776"><ele>8.0</ele><time>2026-04-26T11:19:42.274Z</time></trkpt><trkpt lat="40.9143665" lon="19.6976261"><ele>8.5</ele><time>2026-04-26T11:19:43.272Z</time></trkpt><trkpt lat="40.9141683" lon="19.6974729"><ele>9.0</ele><time>2026-04-26T11:19:44.273Z</time></trkpt><trkpt lat="40.9139716" lon="19.6973195"><ele>9.0</ele><time>2026-04-26T11:19:45.274Z</time></trkpt><trkpt lat="40.9137845" lon="19.6971724"><ele>9.0</ele><time>2026-04-26T11:19:46.275Z</time></trkpt><trkpt lat="40.913602" lon="19.6970319"><ele>9.0</ele><time>2026-04-26T11:19:47.274Z</time></trkpt><trkpt lat="40.9134208" lon="19.6968995"><ele>9.0</ele><time>2026-04-26T11:19:48.274Z</time></trkpt><trkpt lat="40.9132435" lon="19.6967638"><ele>9.0</ele><time>2026-04-26T11:19:49.275Z</time></trkpt><trkpt lat="40.9130673" lon="19.6966227"><ele>9.0</ele><time>2026-04-26T11:19:50.276Z</time></trkpt><trkpt lat="40.9128889" lon="19.6964862"><ele>9.0</ele><time>2026-04-26T11:19:51.275Z</time></trkpt><trkpt lat="40.9127116" lon="19.6963486"><ele>9.0</ele><time>2026-04-26T11:19:52.275Z</time></trkpt><trkpt lat="40.9125302" lon="19.6962058"><ele>9.0</ele><time>2026-04-26T11:19:53.274Z</time></trkpt><trkpt lat="40.9123425" lon="19.6960627"><ele>8.5</ele><time>2026-04-26T11:19:54.274Z</time></trkpt><trkpt lat="40.9121482" lon="19.6959139"><ele>8.0</ele><time>2026-04-26T11:19:55.275Z</time></trkpt><trkpt lat="40.9119466" lon="19.6957588"><ele>8.0</ele><time>2026-04-26T11:19:56.274Z</time></trkpt><trkpt lat="40.9117405" lon="19.6956029"><ele>8.0</ele><time>2026-04-26T11:19:57.274Z</time></trkpt><trkpt lat="40.9115365" lon="19.6954401"><ele>8.0</ele><time>2026-04-26T11:19:58.275Z</time></trkpt><trkpt lat="40.9113348" lon="19.695281"><ele>8.0</ele><time>2026-04-26T11:19:59.273Z</time></trkpt><trkpt lat="40.9111348" lon="19.6951214"><ele>8.0</ele><time>2026-04-26T11:20:00.273Z</time></trkpt><trkpt lat="40.9109393" lon="19.6949659"><ele>8.0</ele><time>2026-04-26T11:20:01.274Z</time></trkpt><trkpt lat="40.9107452" lon="19.6948126"><ele>8.5</ele><time>2026-04-26T11:20:02.273Z</time></trkpt><trkpt lat="40.9105499" lon="19.6946573"><ele>9.0</ele><time>2026-04-26T11:20:03.274Z</time></trkpt><trkpt lat="40.9103459" lon="19.6945007"><ele>8.5</ele><time>2026-04-26T11:20:04.273Z</time></trkpt><trkpt lat="40.9101351" lon="19.69434"><ele>8.0</ele><time>2026-04-26T11:20:05.275Z</time></trkpt><trkpt lat="40.9099214" lon="19.6941781"><ele>8.0</ele><time>2026-04-26T11:20:06.274Z</time></trkpt><trkpt lat="40.9097049" lon="19.694017"><ele>8.0</ele><time>2026-04-26T11:20:07.273Z</time></trkpt><trkpt lat="40.9095004" lon="19.6938532"><ele>8.0</ele><time>2026-04-26T11:20:08.275Z</time></trkpt><trkpt lat="40.9093066" lon="19.6936927"><ele>8.0</ele><time>2026-04-26T11:20:09.273Z</time></trkpt><trkpt lat="40.9091236" lon="19.6935428"><ele>8.0</ele><time>2026-04-26T11:20:10.275Z</time></trkpt><trkpt lat="40.9089481" lon="19.693395"><ele>7.666666666666666</ele><time>2026-04-26T11:20:11.272Z</time></trkpt><trkpt lat="40.9087772" lon="19.6932614"><ele>7.333333333333334</ele><time>2026-04-26T11:20:12.275Z</time></trkpt><trkpt lat="40.9086082" lon="19.6931287"><ele>7.0</ele><time>2026-04-26T11:20:13.272Z</time></trkpt><trkpt lat="40.9084426" lon="19.6929944"><ele>7.0</ele><time>2026-04-26T11:20:14.274Z</time></trkpt><trkpt lat="40.9082776" lon="19.6928554"><ele>7.0</ele><time>2026-04-26T11:20:15.276Z</time></trkpt><trkpt lat="40.9081116" lon="19.6927262"><ele>7.0</ele><time>2026-04-26T11:20:16.273Z</time></trkpt><trkpt lat="40.9079412" lon="19.6926021"><ele>6.666666666666667</ele><time>2026-04-26T11:20:17.274Z</time></trkpt><trkpt lat="40.9077705" lon="19.6924632"><ele>6.333333333333334</ele><time>2026-04-26T11:20:18.275Z</time></trkpt><trkpt lat="40.9075969" lon="19.6923346"><ele>6.0</ele><time>2026-04-26T11:20:19.275Z</time></trkpt><trkpt lat="40.9074271" lon="19.692203"><ele>6.333333333333334</ele><time>2026-04-26T11:20:20.274Z</time></trkpt><trkpt lat="40.9072557" lon="19.6920695"><ele>6.666666666666667</ele><time>2026-04-26T11:20:21.275Z</time></trkpt><trkpt lat="40.9070808" lon="19.6919352"><ele>7.0</ele><time>2026-04-26T11:20:22.275Z</time></trkpt><trkpt lat="40.9069051" lon="19.6917971"><ele>7.333333333333334</ele><time>2026-04-26T11:20:23.274Z</time></trkpt><trkpt lat="40.90673" lon="19.691656"><ele>7.666666666666666</ele><time>2026-04-26T11:20:24.274Z</time></trkpt><trkpt lat="40.9065506" lon="19.6915135"><ele>8.0</ele><time>2026-04-26T11:20:25.274Z</time></trkpt><trkpt lat="40.9063709" lon="19.6913758"><ele>8.0</ele><time>2026-04-26T11:20:26.274Z</time></trkpt><trkpt lat="40.9061901" lon="19.6912365"><ele>8.0</ele><time>2026-04-26T11:20:27.277Z</time></trkpt><trkpt lat="40.9060101" lon="19.6910994"><ele>8.0</ele><time>2026-04-26T11:20:28.273Z</time></trkpt><trkpt lat="40.9058281" lon="19.6909634"><ele>7.333333333333333</ele><time>2026-04-26T11:20:29.274Z</time></trkpt><trkpt lat="40.9056465" lon="19.6908272"><ele>6.666666666666666</ele><time>2026-04-26T11:20:30.273Z</time></trkpt><trkpt lat="40.9054665" lon="19.6906886"><ele>6.0</ele><time>2026-04-26T11:20:31.275Z</time></trkpt><trkpt lat="40.9052898" lon="19.6905497"><ele>6.0</ele><time>2026-04-26T11:20:32.274Z</time></trkpt><trkpt lat="40.9051139" lon="19.6904071"><ele>6.0</ele><time>2026-04-26T11:20:33.278Z</time></trkpt><trkpt lat="40.9049379" lon="19.6902666"><ele>6.0</ele><time>2026-04-26T11:20:34.274Z</time></trkpt><trkpt lat="40.9047614" lon="19.6901277"><ele>6.333333333333334</ele><time>2026-04-26T11:20:35.273Z</time></trkpt><trkpt lat="40.9045834" lon="19.6899868"><ele>6.666666666666667</ele><time>2026-04-26T11:20:36.273Z</time></trkpt><trkpt lat="40.9044046" lon="19.6898509"><ele>7.0</ele><time>2026-04-26T11:20:37.274Z</time></trkpt><trkpt lat="40.9042233" lon="19.6897129"><ele>6.333333333333334</ele><time>2026-04-26T11:20:38.274Z</time></trkpt><trkpt lat="40.9040478" lon="19.689577"><ele>5.666666666666667</ele><time>2026-04-26T11:20:39.274Z</time></trkpt><trkpt lat="40.9038695" lon="19.6894391"><ele>5.0</ele><time>2026-04-26T11:20:40.274Z</time></trkpt><trkpt lat="40.9036909" lon="19.6893013"><ele>5.0</ele><time>2026-04-26T11:20:41.275Z</time></trkpt><trkpt lat="40.9035139" lon="19.6891688"><ele>5.0</ele><time>2026-04-26T11:20:42.276Z</time></trkpt><trkpt lat="40.9033347" lon="19.6890281"><ele>5.0</ele><time>2026-04-26T11:20:43.275Z</time></trkpt><trkpt lat="40.9031534" lon="19.6888821"><ele>5.333333333333334</ele><time>2026-04-26T11:20:44.273Z</time></trkpt><trkpt lat="40.9029765" lon="19.6887411"><ele>5.666666666666667</ele><time>2026-04-26T11:20:45.273Z</time></trkpt><trkpt lat="40.902795" lon="19.6885956"><ele>6.0</ele><time>2026-04-26T11:20:46.274Z</time></trkpt><trkpt lat="40.9026139" lon="19.6884525"><ele>6.333333333333334</ele><time>2026-04-26T11:20:47.275Z</time></trkpt><trkpt lat="40.9024337" lon="19.6883109"><ele>6.666666666666667</ele><time>2026-04-26T11:20:48.274Z</time></trkpt><trkpt lat="40.9022529" lon="19.6881695"><ele>7.0</ele><time>2026-04-26T11:20:49.273Z</time></trkpt><trkpt lat="40.9020706" lon="19.6880308"><ele>7.0</ele><time>2026-04-26T11:20:50.273Z</time></trkpt><trkpt lat="40.9018904" lon="19.6878984"><ele>7.0</ele><time>2026-04-26T11:20:51.274Z</time></trkpt><trkpt lat="40.9017115" lon="19.687761"><ele>7.0</ele><time>2026-04-26T11:20:52.274Z</time></trkpt><trkpt lat="40.9015314" lon="19.6876226"><ele>6.666666666666667</ele><time>2026-04-26T11:20:53.274Z</time></trkpt><trkpt lat="40.9013496" lon="19.6874796"><ele>6.333333333333334</ele><time>2026-04-26T11:20:54.275Z</time></trkpt><trkpt lat="40.9011649" lon="19.6873327"><ele>6.0</ele><time>2026-04-26T11:20:55.273Z</time></trkpt><trkpt lat="40.9009779" lon="19.6871892"><ele>6.0</ele><time>2026-04-26T11:20:56.274Z</time></trkpt><trkpt lat="40.9007929" lon="19.6870448"><ele>6.0</ele><time>2026-04-26T11:20:57.275Z</time></trkpt><trkpt lat="40.9006076" lon="19.6869008"><ele>6.0</ele><time>2026-04-26T11:20:58.274Z</time></trkpt><trkpt lat="40.9004243" lon="19.686757"><ele>6.0</ele><time>2026-04-26T11:20:59.275Z</time></trkpt><trkpt lat="40.9002412" lon="19.6866144"><ele>6.0</ele><time>2026-04-26T11:21:00.274Z</time></trkpt><trkpt lat="40.900059" lon="19.6864681"><ele>6.0</ele><time>2026-04-26T11:21:01.275Z</time></trkpt><trkpt lat="40.8998785" lon="19.6863258"><ele>6.333333333333334</ele><time>2026-04-26T11:21:02.275Z</time></trkpt><trkpt lat="40.8996976" lon="19.6861861"><ele>6.666666666666667</ele><time>2026-04-26T11:21:03.276Z</time></trkpt><trkpt lat="40.899516" lon="19.6860363"><ele>7.0</ele><time>2026-04-26T11:21:04.272Z</time></trkpt><trkpt lat="40.8993352" lon="19.6858961"><ele>7.0</ele><time>2026-04-26T11:21:05.274Z</time></trkpt><trkpt lat="40.8991556" lon="19.6857583"><ele>7.0</ele><time>2026-04-26T11:21:06.274Z</time></trkpt><trkpt lat="40.8989762" lon="19.6856242"><ele>7.0</ele><time>2026-04-26T11:21:07.274Z</time></trkpt><trkpt lat="40.8987991" lon="19.6854889"><ele>7.0</ele><time>2026-04-26T11:21:08.277Z</time></trkpt><trkpt lat="40.89862" lon="19.6853533"><ele>7.0</ele><time>2026-04-26T11:21:09.273Z</time></trkpt><trkpt lat="40.8984438" lon="19.685221"><ele>7.0</ele><time>2026-04-26T11:21:10.274Z</time></trkpt><trkpt lat="40.8982656" lon="19.6850807"><ele>7.0</ele><time>2026-04-26T11:21:11.274Z</time></trkpt><trkpt lat="40.8980895" lon="19.684944"><ele>7.0</ele><time>2026-04-26T11:21:12.274Z</time></trkpt><trkpt lat="40.897909" lon="19.6848089"><ele>7.0</ele><time>2026-04-26T11:21:13.275Z</time></trkpt><trkpt lat="40.8977308" lon="19.684672"><ele>7.0</ele><time>2026-04-26T11:21:14.274Z</time></trkpt><trkpt lat="40.8975497" lon="19.6845425"><ele>7.0</ele><time>2026-04-26T11:21:15.271Z</time></trkpt><trkpt lat="40.8973691" lon="19.6844007"><ele>7.0</ele><time>2026-04-26T11:21:16.275Z</time></trkpt><trkpt lat="40.8971915" lon="19.6842625"><ele>6.666666666666667</ele><time>2026-04-26T11:21:17.273Z</time></trkpt><trkpt lat="40.8970146" lon="19.6841241"><ele>6.333333333333334</ele><time>2026-04-26T11:21:18.274Z</time></trkpt><trkpt lat="40.8968356" lon="19.6839834"><ele>6.0</ele><time>2026-04-26T11:21:19.273Z</time></trkpt><trkpt lat="40.8966549" lon="19.6838423"><ele>6.0</ele><time>2026-04-26T11:21:20.273Z</time></trkpt><trkpt lat="40.8964743" lon="19.6836999"><ele>6.0</ele><time>2026-04-26T11:21:21.275Z</time></trkpt><trkpt lat="40.8962932" lon="19.6835578"><ele>6.0</ele><time>2026-04-26T11:21:22.274Z</time></trkpt><trkpt lat="40.8961109" lon="19.6834158"><ele>6.0</ele><time>2026-04-26T11:21:23.275Z</time></trkpt><trkpt lat="40.895928" lon="19.6832744"><ele>6.0</ele><time>2026-04-26T11:21:24.274Z</time></trkpt><trkpt lat="40.8957463" lon="19.683132"><ele>6.0</ele><time>2026-04-26T11:21:25.274Z</time></trkpt><trkpt lat="40.8955634" lon="19.6829912"><ele>6.0</ele><time>2026-04-26T11:21:26.275Z</time></trkpt><trkpt lat="40.8953828" lon="19.6828488"><ele>6.0</ele><time>2026-04-26T11:21:27.275Z</time></trkpt><trkpt lat="40.8952007" lon="19.6827058"><ele>6.0</ele><time>2026-04-26T11:21:28.275Z</time></trkpt><trkpt lat="40.8950194" lon="19.6825655"><ele>6.333333333333334</ele><time>2026-04-26T11:21:29.275Z</time></trkpt><trkpt lat="40.8948385" lon="19.6824234"><ele>6.666666666666667</ele><time>2026-04-26T11:21:30.273Z</time></trkpt><trkpt lat="40.8946564" lon="19.6822838"><ele>7.0</ele><time>2026-04-26T11:21:31.276Z</time></trkpt><trkpt lat="40.8944758" lon="19.682144"><ele>7.0</ele><time>2026-04-26T11:21:32.273Z</time></trkpt><trkpt lat="40.8942914" lon="19.6820036"><ele>7.0</ele><time>2026-04-26T11:21:33.274Z</time></trkpt><trkpt lat="40.8941064" lon="19.6818621"><ele>7.0</ele><time>2026-04-26T11:21:34.275Z</time></trkpt><trkpt lat="40.893922" lon="19.6817165"><ele>6.666666666666667</ele><time>2026-04-26T11:21:35.275Z</time></trkpt><trkpt lat="40.8937349" lon="19.6815697"><ele>6.333333333333334</ele><time>2026-04-26T11:21:36.273Z</time></trkpt><trkpt lat="40.8935454" lon="19.6814207"><ele>6.0</ele><time>2026-04-26T11:21:37.274Z</time></trkpt><trkpt lat="40.8933556" lon="19.6812727"><ele>6.0</ele><time>2026-04-26T11:21:38.273Z</time></trkpt><trkpt lat="40.8931646" lon="19.6811216"><ele>6.0</ele><time>2026-04-26T11:21:39.273Z</time></trkpt><trkpt lat="40.8929727" lon="19.6809734"><ele>6.0</ele><time>2026-04-26T11:21:40.272Z</time></trkpt><trkpt lat="40.8927811" lon="19.6808262"><ele>5.5</ele><time>2026-04-26T11:21:41.275Z</time></trkpt><trkpt lat="40.8925858" lon="19.6806751"><ele>5.0</ele><time>2026-04-26T11:21:42.274Z</time></trkpt><trkpt lat="40.892393" lon="19.6805224"><ele>5.0</ele><time>2026-04-26T11:21:43.273Z</time></trkpt><trkpt lat="40.8922002" lon="19.6803687"><ele>5.0</ele><time>2026-04-26T11:21:44.274Z</time></trkpt><trkpt lat="40.8920063" lon="19.6802193"><ele>5.0</ele><time>2026-04-26T11:21:45.273Z</time></trkpt><trkpt lat="40.8918139" lon="19.6800641"><ele>5.333333333333334</ele><time>2026-04-26T11:21:46.274Z</time></trkpt><trkpt lat="40.8916289" lon="19.6799211"><ele>5.666666666666667</ele><time>2026-04-26T11:21:47.273Z</time></trkpt><trkpt lat="40.8914407" lon="19.679777"><ele>6.0</ele><time>2026-04-26T11:21:48.274Z</time></trkpt><trkpt lat="40.8912534" lon="19.6796349"><ele>6.0</ele><time>2026-04-26T11:21:49.273Z</time></trkpt><trkpt lat="40.8910691" lon="19.6794931"><ele>6.0</ele><time>2026-04-26T11:21:50.276Z</time></trkpt><trkpt lat="40.8908825" lon="19.6793483"><ele>6.0</ele><time>2026-04-26T11:21:51.273Z</time></trkpt><trkpt lat="40.8907006" lon="19.6792086"><ele>6.0</ele><time>2026-04-26T11:21:52.274Z</time></trkpt><trkpt lat="40.8905176" lon="19.6790685"><ele>6.0</ele><time>2026-04-26T11:21:53.273Z</time></trkpt><trkpt lat="40.8903363" lon="19.67893"><ele>6.0</ele><time>2026-04-26T11:21:54.274Z</time></trkpt><trkpt lat="40.8901461" lon="19.6787936"><ele>6.0</ele><time>2026-04-26T11:21:55.274Z</time></trkpt><trkpt lat="40.8899644" lon="19.6786507"><ele>6.0</ele><time>2026-04-26T11:21:56.273Z</time></trkpt><trkpt lat="40.8897828" lon="19.6785078"><ele>6.0</ele><time>2026-04-26T11:21:57.273Z</time></trkpt><trkpt lat="40.8895964" lon="19.6783633"><ele>6.0</ele><time>2026-04-26T11:21:58.273Z</time></trkpt><trkpt lat="40.8894126" lon="19.6782203"><ele>6.0</ele><time>2026-04-26T11:21:59.274Z</time></trkpt><trkpt lat="40.8892327" lon="19.6780768"><ele>6.0</ele><time>2026-04-26T11:22:00.275Z</time></trkpt><trkpt lat="40.8890488" lon="19.6779312"><ele>6.0</ele><time>2026-04-26T11:22:01.274Z</time></trkpt><trkpt lat="40.8888566" lon="19.677777"><ele>6.0</ele><time>2026-04-26T11:22:02.275Z</time></trkpt><trkpt lat="40.8886624" lon="19.6776272"><ele>6.0</ele><time>2026-04-26T11:22:03.274Z</time></trkpt><trkpt lat="40.8884654" lon="19.677472"><ele>6.0</ele><time>2026-04-26T11:22:04.273Z</time></trkpt><trkpt lat="40.8882696" lon="19.6773136"><ele>7.0</ele><time>2026-04-26T11:22:05.275Z</time></trkpt><trkpt lat="40.8880728" lon="19.6771571"><ele>8.0</ele><time>2026-04-26T11:22:06.275Z</time></trkpt><trkpt lat="40.8878784" lon="19.6770025"><ele>7.0</ele><time>2026-04-26T11:22:07.276Z</time></trkpt><trkpt lat="40.8876798" lon="19.6768456"><ele>6.0</ele><time>2026-04-26T11:22:08.273Z</time></trkpt><trkpt lat="40.887473" lon="19.6767083"><ele>6.0</ele><time>2026-04-26T11:22:09.276Z</time></trkpt><trkpt lat="40.8872597" lon="19.6765566"><ele>6.0</ele><time>2026-04-26T11:22:10.275Z</time></trkpt><trkpt lat="40.8870403" lon="19.6763995"><ele>6.0</ele><time>2026-04-26T11:22:11.274Z</time></trkpt><trkpt lat="40.8868345" lon="19.6762438"><ele>6.0</ele><time>2026-04-26T11:22:12.273Z</time></trkpt><trkpt lat="40.8866308" lon="19.6760889"><ele>6.5</ele><time>2026-04-26T11:22:13.275Z</time></trkpt><trkpt lat="40.8864299" lon="19.6759328"><ele>7.0</ele><time>2026-04-26T11:22:14.273Z</time></trkpt><trkpt lat="40.8862239" lon="19.6757753"><ele>7.0</ele><time>2026-04-26T11:22:15.274Z</time></trkpt><trkpt lat="40.8860115" lon="19.6756073"><ele>7.0</ele><time>2026-04-26T11:22:16.274Z</time></trkpt><trkpt lat="40.8857992" lon="19.6754401"><ele>7.0</ele><time>2026-04-26T11:22:17.276Z</time></trkpt><trkpt lat="40.8855888" lon="19.6752737"><ele>7.0</ele><time>2026-04-26T11:22:18.275Z</time></trkpt><trkpt lat="40.8853804" lon="19.6751104"><ele>7.0</ele><time>2026-04-26T11:22:19.272Z</time></trkpt><trkpt lat="40.8851721" lon="19.6749457"><ele>7.0</ele><time>2026-04-26T11:22:20.274Z</time></trkpt><trkpt lat="40.8849621" lon="19.674783"><ele>7.0</ele><time>2026-04-26T11:22:21.273Z</time></trkpt><trkpt lat="40.8847546" lon="19.6746215"><ele>7.0</ele><time>2026-04-26T11:22:22.274Z</time></trkpt><trkpt lat="40.8845465" lon="19.67446"><ele>7.0</ele><time>2026-04-26T11:22:23.273Z</time></trkpt><trkpt lat="40.8843388" lon="19.6742966"><ele>7.0</ele><time>2026-04-26T11:22:24.274Z</time></trkpt><trkpt lat="40.8841318" lon="19.6741352"><ele>7.5</ele><time>2026-04-26T11:22:25.273Z</time></trkpt><trkpt lat="40.8839268" lon="19.673977"><ele>8.0</ele><time>2026-04-26T11:22:26.274Z</time></trkpt><trkpt lat="40.8837195" lon="19.67382"><ele>8.0</ele><time>2026-04-26T11:22:27.275Z</time></trkpt><trkpt lat="40.8835133" lon="19.6736686"><ele>8.0</ele><time>2026-04-26T11:22:28.273Z</time></trkpt><trkpt lat="40.8833099" lon="19.6735145"><ele>7.5</ele><time>2026-04-26T11:22:29.274Z</time></trkpt><trkpt lat="40.8831054" lon="19.6733577"><ele>7.0</ele><time>2026-04-26T11:22:30.273Z</time></trkpt><trkpt lat="40.8829034" lon="19.6732019"><ele>7.0</ele><time>2026-04-26T11:22:31.274Z</time></trkpt><trkpt lat="40.8826997" lon="19.6730464"><ele>7.0</ele><time>2026-04-26T11:22:32.274Z</time></trkpt><trkpt lat="40.8824982" lon="19.6728905"><ele>6.5</ele><time>2026-04-26T11:22:33.273Z</time></trkpt><trkpt lat="40.8822952" lon="19.6727323"><ele>6.0</ele><time>2026-04-26T11:22:34.273Z</time></trkpt><trkpt lat="40.8820902" lon="19.6725732"><ele>6.0</ele><time>2026-04-26T11:22:35.272Z</time></trkpt><trkpt lat="40.8818856" lon="19.6724128"><ele>6.0</ele><time>2026-04-26T11:22:36.272Z</time></trkpt><trkpt lat="40.8816806" lon="19.6722532"><ele>6.5</ele><time>2026-04-26T11:22:37.273Z</time></trkpt><trkpt lat="40.8814754" lon="19.6720961"><ele>7.0</ele><time>2026-04-26T11:22:38.274Z</time></trkpt><trkpt lat="40.8812716" lon="19.6719371"><ele>7.0</ele><time>2026-04-26T11:22:39.275Z</time></trkpt><trkpt lat="40.8810705" lon="19.6717759"><ele>7.0</ele><time>2026-04-26T11:22:40.274Z</time></trkpt><trkpt lat="40.8808711" lon="19.6716172"><ele>8.0</ele><time>2026-04-26T11:22:41.273Z</time></trkpt><trkpt lat="40.8806757" lon="19.6714568"><ele>9.0</ele><time>2026-04-26T11:22:42.273Z</time></trkpt><trkpt lat="40.8804874" lon="19.671304"><ele>9.0</ele><time>2026-04-26T11:22:43.275Z</time></trkpt><trkpt lat="40.8803095" lon="19.6711569"><ele>9.0</ele><time>2026-04-26T11:22:44.272Z</time></trkpt><trkpt lat="40.8801377" lon="19.6710165"><ele>9.0</ele><time>2026-04-26T11:22:45.274Z</time></trkpt><trkpt lat="40.8799746" lon="19.6708815"><ele>8.333333333333334</ele><time>2026-04-26T11:22:46.273Z</time></trkpt><trkpt lat="40.8798119" lon="19.670748"><ele>7.666666666666667</ele><time>2026-04-26T11:22:47.275Z</time></trkpt><trkpt lat="40.879655" lon="19.6706145"><ele>7.0</ele><time>2026-04-26T11:22:48.274Z</time></trkpt><trkpt lat="40.8795024" lon="19.6704823"><ele>7.0</ele><time>2026-04-26T11:22:49.274Z</time></trkpt><trkpt lat="40.8793561" lon="19.6703545"><ele>7.0</ele><time>2026-04-26T11:22:50.274Z</time></trkpt><trkpt lat="40.879219" lon="19.6702305"><ele>7.0</ele><time>2026-04-26T11:22:51.275Z</time></trkpt><trkpt lat="40.8790864" lon="19.6701119"><ele>6.666666666666667</ele><time>2026-04-26T11:22:52.273Z</time></trkpt><trkpt lat="40.8789573" lon="19.669998"><ele>6.333333333333334</ele><time>2026-04-26T11:22:53.274Z</time></trkpt><trkpt lat="40.8788364" lon="19.6698738"><ele>6.0</ele><time>2026-04-26T11:22:54.275Z</time></trkpt><trkpt lat="40.8787199" lon="19.6697624"><ele>6.0</ele><time>2026-04-26T11:22:55.274Z</time></trkpt><trkpt lat="40.8786042" lon="19.669649"><ele>6.0</ele><time>2026-04-26T11:22:56.275Z</time></trkpt><trkpt lat="40.8784827" lon="19.6695366"><ele>6.0</ele><time>2026-04-26T11:22:57.272Z</time></trkpt><trkpt lat="40.8783509" lon="19.6694142"><ele>6.666666666666666</ele><time>2026-04-26T11:22:58.274Z</time></trkpt><trkpt lat="40.8782134" lon="19.6692813"><ele>7.333333333333333</ele><time>2026-04-26T11:22:59.274Z</time></trkpt><trkpt lat="40.8780696" lon="19.6691395"><ele>8.0</ele><time>2026-04-26T11:23:00.273Z</time></trkpt><trkpt lat="40.8779172" lon="19.6689796"><ele>8.0</ele><time>2026-04-26T11:23:01.274Z</time></trkpt><trkpt lat="40.8777565" lon="19.6688105"><ele>8.0</ele><time>2026-04-26T11:23:02.273Z</time></trkpt><trkpt lat="40.8775931" lon="19.6686354"><ele>8.0</ele><time>2026-04-26T11:23:03.271Z</time></trkpt><trkpt lat="40.8774145" lon="19.6684531"><ele>7.5</ele><time>2026-04-26T11:23:04.275Z</time></trkpt><trkpt lat="40.8772298" lon="19.6682606"><ele>7.0</ele><time>2026-04-26T11:23:05.274Z</time></trkpt><trkpt lat="40.877038" lon="19.6680581"><ele>7.0</ele><time>2026-04-26T11:23:06.273Z</time></trkpt><trkpt lat="40.8768483" lon="19.6678495"><ele>7.0</ele><time>2026-04-26T11:23:07.275Z</time></trkpt><trkpt lat="40.8766634" lon="19.6676482"><ele>6.5</ele><time>2026-04-26T11:23:08.276Z</time></trkpt><trkpt lat="40.8764717" lon="19.66744"><ele>6.0</ele><time>2026-04-26T11:23:09.273Z</time></trkpt><trkpt lat="40.8762911" lon="19.66723"><ele>6.0</ele><time>2026-04-26T11:23:10.272Z</time></trkpt><trkpt lat="40.8761042" lon="19.6670177"><ele>6.0</ele><time>2026-04-26T11:23:11.276Z</time></trkpt><trkpt lat="40.8759214" lon="19.6668037"><ele>7.5</ele><time>2026-04-26T11:23:12.271Z</time></trkpt><trkpt lat="40.8757403" lon="19.666582"><ele>9.0</ele><time>2026-04-26T11:23:13.276Z</time></trkpt><trkpt lat="40.8755639" lon="19.6663641"><ele>9.0</ele><time>2026-04-26T11:23:14.273Z</time></trkpt><trkpt lat="40.8753921" lon="19.6661475"><ele>9.0</ele><time>2026-04-26T11:23:15.274Z</time></trkpt><trkpt lat="40.875222" lon="19.6659227"><ele>8.0</ele><time>2026-04-26T11:23:16.273Z</time></trkpt><trkpt lat="40.875058" lon="19.6656981"><ele>7.0</ele><time>2026-04-26T11:23:17.275Z</time></trkpt><trkpt lat="40.8748941" lon="19.6654748"><ele>7.0</ele><time>2026-04-26T11:23:18.274Z</time></trkpt><trkpt lat="40.8747344" lon="19.6652472"><ele>7.0</ele><time>2026-04-26T11:23:19.273Z</time></trkpt><trkpt lat="40.8745793" lon="19.6650175"><ele>7.0</ele><time>2026-04-26T11:23:20.272Z</time></trkpt><trkpt lat="40.8744305" lon="19.6647851"><ele>7.0</ele><time>2026-04-26T11:23:21.275Z</time></trkpt><trkpt lat="40.8742848" lon="19.664551"><ele>7.0</ele><time>2026-04-26T11:23:22.272Z</time></trkpt><trkpt lat="40.8741441" lon="19.6643133"><ele>7.0</ele><time>2026-04-26T11:23:23.274Z</time></trkpt><trkpt lat="40.8740064" lon="19.6640717"><ele>7.0</ele><time>2026-04-26T11:23:24.274Z</time></trkpt><trkpt lat="40.8738729" lon="19.6638319"><ele>7.0</ele><time>2026-04-26T11:23:25.272Z</time></trkpt><trkpt lat="40.8737359" lon="19.663593"><ele>7.0</ele><time>2026-04-26T11:23:26.274Z</time></trkpt><trkpt lat="40.8735984" lon="19.6633522"><ele>7.0</ele><time>2026-04-26T11:23:27.271Z</time></trkpt><trkpt lat="40.8734639" lon="19.6631108"><ele>8.0</ele><time>2026-04-26T11:23:28.274Z</time></trkpt><trkpt lat="40.8733263" lon="19.6628682"><ele>9.0</ele><time>2026-04-26T11:23:29.274Z</time></trkpt><trkpt lat="40.8731884" lon="19.6626235"><ele>9.5</ele><time>2026-04-26T11:23:30.272Z</time></trkpt><trkpt lat="40.8730513" lon="19.6623768"><ele>10.0</ele><time>2026-04-26T11:23:31.273Z</time></trkpt><trkpt lat="40.8729131" lon="19.6621348"><ele>9.0</ele><time>2026-04-26T11:23:32.275Z</time></trkpt><trkpt lat="40.8727748" lon="19.6618898"><ele>8.0</ele><time>2026-04-26T11:23:33.274Z</time></trkpt><trkpt lat="40.8726371" lon="19.661643"><ele>8.0</ele><time>2026-04-26T11:23:34.274Z</time></trkpt><trkpt lat="40.8724994" lon="19.6613942"><ele>8.0</ele><time>2026-04-26T11:23:35.274Z</time></trkpt><trkpt lat="40.8723617" lon="19.6611464"><ele>8.0</ele><time>2026-04-26T11:23:36.272Z</time></trkpt><trkpt lat="40.8722236" lon="19.6608958"><ele>8.0</ele><time>2026-04-26T11:23:37.274Z</time></trkpt><trkpt lat="40.872083" lon="19.6606483"><ele>8.0</ele><time>2026-04-26T11:23:38.272Z</time></trkpt><trkpt lat="40.8719433" lon="19.6604024"><ele>8.0</ele><time>2026-04-26T11:23:39.271Z</time></trkpt><trkpt lat="40.871804" lon="19.6601581"><ele>8.5</ele><time>2026-04-26T11:23:40.275Z</time></trkpt><trkpt lat="40.8716648" lon="19.6599123"><ele>9.0</ele><time>2026-04-26T11:23:41.274Z</time></trkpt><trkpt lat="40.8715271" lon="19.659665"><ele>9.0</ele><time>2026-04-26T11:23:42.275Z</time></trkpt><trkpt lat="40.8713862" lon="19.6594194"><ele>9.0</ele><time>2026-04-26T11:23:43.274Z</time></trkpt><trkpt lat="40.8712417" lon="19.6591806"><ele>9.0</ele><time>2026-04-26T11:23:44.273Z</time></trkpt><trkpt lat="40.8710892" lon="19.6589447"><ele>9.0</ele><time>2026-04-26T11:23:45.275Z</time></trkpt><trkpt lat="40.8709379" lon="19.6587113"><ele>9.0</ele><time>2026-04-26T11:23:46.275Z</time></trkpt><trkpt lat="40.8707798" lon="19.6584788"><ele>9.0</ele><time>2026-04-26T11:23:47.275Z</time></trkpt><trkpt lat="40.8706209" lon="19.6582488"><ele>9.0</ele><time>2026-04-26T11:23:48.272Z</time></trkpt><trkpt lat="40.87046" lon="19.6580225"><ele>9.0</ele><time>2026-04-26T11:23:49.273Z</time></trkpt><trkpt lat="40.8702977" lon="19.657798"><ele>9.0</ele><time>2026-04-26T11:23:50.273Z</time></trkpt><trkpt lat="40.870132" lon="19.6575771"><ele>9.0</ele><time>2026-04-26T11:23:51.274Z</time></trkpt><trkpt lat="40.8699636" lon="19.6573599"><ele>9.5</ele><time>2026-04-26T11:23:52.273Z</time></trkpt><trkpt lat="40.86979" lon="19.6571467"><ele>10.0</ele><time>2026-04-26T11:23:53.273Z</time></trkpt><trkpt lat="40.8696127" lon="19.6569393"><ele>10.0</ele><time>2026-04-26T11:23:54.275Z</time></trkpt><trkpt lat="40.8694341" lon="19.6567337"><ele>10.0</ele><time>2026-04-26T11:23:55.275Z</time></trkpt><trkpt lat="40.8692535" lon="19.6565332"><ele>9.5</ele><time>2026-04-26T11:23:56.272Z</time></trkpt><trkpt lat="40.8690706" lon="19.6563327"><ele>9.0</ele><time>2026-04-26T11:23:57.275Z</time></trkpt><trkpt lat="40.8688874" lon="19.6561365"><ele>8.5</ele><time>2026-04-26T11:23:58.274Z</time></trkpt><trkpt lat="40.8687" lon="19.6559396"><ele>8.0</ele><time>2026-04-26T11:23:59.273Z</time></trkpt><trkpt lat="40.86851" lon="19.6557532"><ele>8.0</ele><time>2026-04-26T11:24:00.273Z</time></trkpt><trkpt lat="40.8683142" lon="19.6555693"><ele>8.0</ele><time>2026-04-26T11:24:01.274Z</time></trkpt><trkpt lat="40.8681162" lon="19.6553936"><ele>7.5</ele><time>2026-04-26T11:24:02.274Z</time></trkpt><trkpt lat="40.8679152" lon="19.6552231"><ele>7.0</ele><time>2026-04-26T11:24:03.275Z</time></trkpt><trkpt lat="40.867715" lon="19.6550554"><ele>8.0</ele><time>2026-04-26T11:24:04.272Z</time></trkpt><trkpt lat="40.8675131" lon="19.654888"><ele>9.0</ele><time>2026-04-26T11:24:05.272Z</time></trkpt><trkpt lat="40.8673111" lon="19.6547201"><ele>9.0</ele><time>2026-04-26T11:24:06.271Z</time></trkpt><trkpt lat="40.8671089" lon="19.6545549"><ele>9.0</ele><time>2026-04-26T11:24:07.273Z</time></trkpt><trkpt lat="40.8668956" lon="19.6543934"><ele>9.0</ele><time>2026-04-26T11:24:08.272Z</time></trkpt><trkpt lat="40.8666868" lon="19.654227"><ele>9.0</ele><time>2026-04-26T11:24:09.274Z</time></trkpt><trkpt lat="40.8664817" lon="19.6540606"><ele>9.0</ele><time>2026-04-26T11:24:10.271Z</time></trkpt><trkpt lat="40.866273" lon="19.6538923"><ele>9.0</ele><time>2026-04-26T11:24:11.273Z</time></trkpt><trkpt lat="40.8660652" lon="19.6537172"><ele>8.5</ele><time>2026-04-26T11:24:12.272Z</time></trkpt><trkpt lat="40.8658542" lon="19.6535532"><ele>8.0</ele><time>2026-04-26T11:24:13.273Z</time></trkpt><trkpt lat="40.8656442" lon="19.6533852"><ele>8.0</ele><time>2026-04-26T11:24:14.273Z</time></trkpt><trkpt lat="40.8654327" lon="19.6532166"><ele>8.0</ele><time>2026-04-26T11:24:15.27Z</time></trkpt><trkpt lat="40.8652231" lon="19.6530494"><ele>8.5</ele><time>2026-04-26T11:24:16.274Z</time></trkpt><trkpt lat="40.8650135" lon="19.6528819"><ele>9.0</ele><time>2026-04-26T11:24:17.272Z</time></trkpt><trkpt lat="40.8648036" lon="19.6527146"><ele>9.5</ele><time>2026-04-26T11:24:18.272Z</time></trkpt><trkpt lat="40.8645931" lon="19.6525451"><ele>10.0</ele><time>2026-04-26T11:24:19.275Z</time></trkpt><trkpt lat="40.864382" lon="19.6523752"><ele>9.0</ele><time>2026-04-26T11:24:20.273Z</time></trkpt><trkpt lat="40.8641673" lon="19.6522128"><ele>8.0</ele><time>2026-04-26T11:24:21.273Z</time></trkpt><trkpt lat="40.8639562" lon="19.6520507"><ele>8.0</ele><time>2026-04-26T11:24:22.273Z</time></trkpt><trkpt lat="40.8637425" lon="19.6518849"><ele>8.0</ele><time>2026-04-26T11:24:23.276Z</time></trkpt><trkpt lat="40.863528" lon="19.651722"><ele>8.5</ele><time>2026-04-26T11:24:24.273Z</time></trkpt><trkpt lat="40.8633105" lon="19.6515584"><ele>9.0</ele><time>2026-04-26T11:24:25.275Z</time></trkpt><trkpt lat="40.8630931" lon="19.6513917"><ele>9.0</ele><time>2026-04-26T11:24:26.273Z</time></trkpt><trkpt lat="40.8628738" lon="19.6512159"><ele>9.0</ele><time>2026-04-26T11:24:27.273Z</time></trkpt><trkpt lat="40.8626571" lon="19.6510406"><ele>9.0</ele><time>2026-04-26T11:24:28.272Z</time></trkpt><trkpt lat="40.8624408" lon="19.6508633"><ele>9.0</ele><time>2026-04-26T11:24:29.274Z</time></trkpt><trkpt lat="40.8622273" lon="19.6506835"><ele>9.0</ele><time>2026-04-26T11:24:30.272Z</time></trkpt><trkpt lat="40.8620125" lon="19.6504976"><ele>9.0</ele><time>2026-04-26T11:24:31.274Z</time></trkpt><trkpt lat="40.8617996" lon="19.65031"><ele>9.0</ele><time>2026-04-26T11:24:32.274Z</time></trkpt><trkpt lat="40.8615866" lon="19.6501151"><ele>9.0</ele><time>2026-04-26T11:24:33.271Z</time></trkpt><trkpt lat="40.8613737" lon="19.6499149"><ele>9.0</ele><time>2026-04-26T11:24:34.271Z</time></trkpt><trkpt lat="40.8611631" lon="19.6497111"><ele>9.0</ele><time>2026-04-26T11:24:35.273Z</time></trkpt><trkpt lat="40.8609552" lon="19.6494995"><ele>8.0</ele><time>2026-04-26T11:24:36.272Z</time></trkpt><trkpt lat="40.8607524" lon="19.6492881"><ele>7.0</ele><time>2026-04-26T11:24:37.273Z</time></trkpt><trkpt lat="40.860548" lon="19.6490743"><ele>7.0</ele><time>2026-04-26T11:24:38.273Z</time></trkpt><trkpt lat="40.8603441" lon="19.6488604"><ele>7.0</ele><time>2026-04-26T11:24:39.275Z</time></trkpt><trkpt lat="40.860141" lon="19.6486488"><ele>8.0</ele><time>2026-04-26T11:24:40.274Z</time></trkpt><trkpt lat="40.8599374" lon="19.6484404"><ele>9.0</ele><time>2026-04-26T11:24:41.272Z</time></trkpt><trkpt lat="40.859737" lon="19.6482347"><ele>9.0</ele><time>2026-04-26T11:24:42.272Z</time></trkpt><trkpt lat="40.8595326" lon="19.6480319"><ele>9.0</ele><time>2026-04-26T11:24:43.273Z</time></trkpt><trkpt lat="40.8593313" lon="19.6478306"><ele>9.5</ele><time>2026-04-26T11:24:44.272Z</time></trkpt><trkpt lat="40.8591286" lon="19.647623"><ele>10.0</ele><time>2026-04-26T11:24:45.274Z</time></trkpt><trkpt lat="40.8589315" lon="19.6474239"><ele>10.0</ele><time>2026-04-26T11:24:46.273Z</time></trkpt><trkpt lat="40.8587364" lon="19.6472281"><ele>10.0</ele><time>2026-04-26T11:24:47.272Z</time></trkpt><trkpt lat="40.8585431" lon="19.6470307"><ele>10.0</ele><time>2026-04-26T11:24:48.274Z</time></trkpt><trkpt lat="40.8583521" lon="19.6468299"><ele>10.0</ele><time>2026-04-26T11:24:49.275Z</time></trkpt><trkpt lat="40.8581583" lon="19.6466374"><ele>10.0</ele><time>2026-04-26T11:24:50.275Z</time></trkpt><trkpt lat="40.8579611" lon="19.6464401"><ele>10.0</ele><time>2026-04-26T11:24:51.272Z</time></trkpt><trkpt lat="40.857769" lon="19.6462496"><ele>8.5</ele><time>2026-04-26T11:24:52.273Z</time></trkpt><trkpt lat="40.8575729" lon="19.6460558"><ele>7.0</ele><time>2026-04-26T11:24:53.271Z</time></trkpt><trkpt lat="40.8573779" lon="19.645861"><ele>7.0</ele><time>2026-04-26T11:24:54.273Z</time></trkpt><trkpt lat="40.8571793" lon="19.6456668"><ele>7.0</ele><time>2026-04-26T11:24:55.273Z</time></trkpt><trkpt lat="40.8569816" lon="19.6454848"><ele>8.0</ele><time>2026-04-26T11:24:56.272Z</time></trkpt><trkpt lat="40.8567836" lon="19.6453058"><ele>9.0</ele><time>2026-04-26T11:24:57.276Z</time></trkpt><trkpt lat="40.8565856" lon="19.6451302"><ele>9.0</ele><time>2026-04-26T11:24:58.275Z</time></trkpt><trkpt lat="40.8563902" lon="19.6449539"><ele>9.0</ele><time>2026-04-26T11:24:59.272Z</time></trkpt><trkpt lat="40.8561907" lon="19.6447771"><ele>9.0</ele><time>2026-04-26T11:25:00.271Z</time></trkpt><trkpt lat="40.855991" lon="19.6446039"><ele>9.0</ele><time>2026-04-26T11:25:01.274Z</time></trkpt><trkpt lat="40.855787" lon="19.6444336"><ele>9.0</ele><time>2026-04-26T11:25:02.272Z</time></trkpt><trkpt lat="40.8555839" lon="19.6442653"><ele>9.0</ele><time>2026-04-26T11:25:03.272Z</time></trkpt><trkpt lat="40.8553815" lon="19.6440971"><ele>9.0</ele><time>2026-04-26T11:25:04.273Z</time></trkpt><trkpt lat="40.8551803" lon="19.6439298"><ele>9.0</ele><time>2026-04-26T11:25:05.273Z</time></trkpt><trkpt lat="40.8549761" lon="19.6437619"><ele>9.5</ele><time>2026-04-26T11:25:06.272Z</time></trkpt><trkpt lat="40.8547777" lon="19.6436003"><ele>10.0</ele><time>2026-04-26T11:25:07.272Z</time></trkpt><trkpt lat="40.8545774" lon="19.6434401"><ele>10.0</ele><time>2026-04-26T11:25:08.272Z</time></trkpt><trkpt lat="40.8543697" lon="19.6432837"><ele>10.0</ele><time>2026-04-26T11:25:09.271Z</time></trkpt><trkpt lat="40.8541676" lon="19.6431228"><ele>9.0</ele><time>2026-04-26T11:25:10.27Z</time></trkpt><trkpt lat="40.8539663" lon="19.6429618"><ele>8.0</ele><time>2026-04-26T11:25:11.271Z</time></trkpt><trkpt lat="40.8537684" lon="19.6427984"><ele>8.0</ele><time>2026-04-26T11:25:12.27Z</time></trkpt><trkpt lat="40.8535667" lon="19.6426344"><ele>8.0</ele><time>2026-04-26T11:25:13.271Z</time></trkpt><trkpt lat="40.8533678" lon="19.6424728"><ele>8.0</ele><time>2026-04-26T11:25:14.272Z</time></trkpt><trkpt lat="40.8531681" lon="19.642313"><ele>8.0</ele><time>2026-04-26T11:25:15.271Z</time></trkpt><trkpt lat="40.852968" lon="19.6421514"><ele>8.0</ele><time>2026-04-26T11:25:16.272Z</time></trkpt><trkpt lat="40.852769" lon="19.6419928"><ele>8.0</ele><time>2026-04-26T11:25:17.272Z</time></trkpt><trkpt lat="40.8525679" lon="19.6418333"><ele>8.0</ele><time>2026-04-26T11:25:18.272Z</time></trkpt><trkpt lat="40.8523694" lon="19.6416712"><ele>8.0</ele><time>2026-04-26T11:25:19.269Z</time></trkpt><trkpt lat="40.8521681" lon="19.6415103"><ele>8.0</ele><time>2026-04-26T11:25:20.274Z</time></trkpt><trkpt lat="40.8519696" lon="19.6413508"><ele>8.0</ele><time>2026-04-26T11:25:21.273Z</time></trkpt><trkpt lat="40.8517659" lon="19.6411921"><ele>7.5</ele><time>2026-04-26T11:25:22.274Z</time></trkpt><trkpt lat="40.8515649" lon="19.641028"><ele>7.0</ele><time>2026-04-26T11:25:23.273Z</time></trkpt><trkpt lat="40.8513615" lon="19.6408611"><ele>7.0</ele><time>2026-04-26T11:25:24.273Z</time></trkpt><trkpt lat="40.8511566" lon="19.640696"><ele>7.0</ele><time>2026-04-26T11:25:25.273Z</time></trkpt><trkpt lat="40.8509523" lon="19.6405302"><ele>7.0</ele><time>2026-04-26T11:25:26.271Z</time></trkpt><trkpt lat="40.8507474" lon="19.6403639"><ele>7.0</ele><time>2026-04-26T11:25:27.272Z</time></trkpt><trkpt lat="40.8505415" lon="19.6402008"><ele>7.0</ele><time>2026-04-26T11:25:28.272Z</time></trkpt><trkpt lat="40.8503378" lon="19.6400366"><ele>7.0</ele><time>2026-04-26T11:25:29.271Z</time></trkpt><trkpt lat="40.8501341" lon="19.639875"><ele>7.5</ele><time>2026-04-26T11:25:30.272Z</time></trkpt><trkpt lat="40.8499346" lon="19.6397113"><ele>8.0</ele><time>2026-04-26T11:25:31.272Z</time></trkpt><trkpt lat="40.8497362" lon="19.6395483"><ele>7.5</ele><time>2026-04-26T11:25:32.273Z</time></trkpt><trkpt lat="40.8495372" lon="19.6393845"><ele>7.0</ele><time>2026-04-26T11:25:33.27Z</time></trkpt><trkpt lat="40.8493397" lon="19.639222"><ele>7.5</ele><time>2026-04-26T11:25:34.272Z</time></trkpt><trkpt lat="40.8491389" lon="19.6390602"><ele>8.0</ele><time>2026-04-26T11:25:35.272Z</time></trkpt><trkpt lat="40.8489403" lon="19.6388967"><ele>8.0</ele><time>2026-04-26T11:25:36.275Z</time></trkpt><trkpt lat="40.8487402" lon="19.6387352"><ele>8.0</ele><time>2026-04-26T11:25:37.274Z</time></trkpt><trkpt lat="40.8485385" lon="19.6385788"><ele>8.0</ele><time>2026-04-26T11:25:38.273Z</time></trkpt><trkpt lat="40.8483344" lon="19.6384202"><ele>8.0</ele><time>2026-04-26T11:25:39.274Z</time></trkpt><trkpt lat="40.8481362" lon="19.638252"><ele>8.0</ele><time>2026-04-26T11:25:40.272Z</time></trkpt><trkpt lat="40.8479345" lon="19.6380884"><ele>8.0</ele><time>2026-04-26T11:25:41.272Z</time></trkpt><trkpt lat="40.8477353" lon="19.6379318"><ele>8.0</ele><time>2026-04-26T11:25:42.274Z</time></trkpt><trkpt lat="40.8475325" lon="19.6377679"><ele>8.0</ele><time>2026-04-26T11:25:43.273Z</time></trkpt><trkpt lat="40.8473331" lon="19.6376077"><ele>8.0</ele><time>2026-04-26T11:25:44.276Z</time></trkpt><trkpt lat="40.8471363" lon="19.6374484"><ele>8.0</ele><time>2026-04-26T11:25:45.273Z</time></trkpt><trkpt lat="40.8469394" lon="19.6372876"><ele>7.5</ele><time>2026-04-26T11:25:46.272Z</time></trkpt><trkpt lat="40.8467448" lon="19.6371315"><ele>7.0</ele><time>2026-04-26T11:25:47.273Z</time></trkpt><trkpt lat="40.8465527" lon="19.6369788"><ele>7.0</ele><time>2026-04-26T11:25:48.272Z</time></trkpt><trkpt lat="40.8463612" lon="19.636831"><ele>7.0</ele><time>2026-04-26T11:25:49.272Z</time></trkpt><trkpt lat="40.8461724" lon="19.6366789"><ele>7.0</ele><time>2026-04-26T11:25:50.272Z</time></trkpt><trkpt lat="40.8459834" lon="19.6365231"><ele>7.333333333333334</ele><time>2026-04-26T11:25:51.28Z</time></trkpt><trkpt lat="40.8457931" lon="19.6363725"><ele>7.666666666666666</ele><time>2026-04-26T11:25:52.27Z</time></trkpt><trkpt lat="40.8456047" lon="19.6362161"><ele>8.0</ele><time>2026-04-26T11:25:53.272Z</time></trkpt><trkpt lat="40.845416" lon="19.6360684"><ele>8.0</ele><time>2026-04-26T11:25:54.272Z</time></trkpt><trkpt lat="40.8452257" lon="19.6359189"><ele>8.0</ele><time>2026-04-26T11:25:55.274Z</time></trkpt><trkpt lat="40.8450355" lon="19.6357663"><ele>8.0</ele><time>2026-04-26T11:25:56.272Z</time></trkpt><trkpt lat="40.8448476" lon="19.6356123"><ele>8.0</ele><time>2026-04-26T11:25:57.273Z</time></trkpt><trkpt lat="40.8446593" lon="19.6354563"><ele>8.0</ele><time>2026-04-26T11:25:58.273Z</time></trkpt><trkpt lat="40.8444693" lon="19.635304"><ele>8.0</ele><time>2026-04-26T11:25:59.274Z</time></trkpt><trkpt lat="40.8442845" lon="19.6351527"><ele>8.333333333333332</ele><time>2026-04-26T11:26:00.27Z</time></trkpt><trkpt lat="40.8440938" lon="19.6350023"><ele>8.666666666666666</ele><time>2026-04-26T11:26:01.271Z</time></trkpt><trkpt lat="40.8439041" lon="19.6348517"><ele>9.0</ele><time>2026-04-26T11:26:02.274Z</time></trkpt><trkpt lat="40.843717" lon="19.634696"><ele>9.0</ele><time>2026-04-26T11:26:03.273Z</time></trkpt><trkpt lat="40.843524" lon="19.6345363"><ele>9.0</ele><time>2026-04-26T11:26:04.272Z</time></trkpt><trkpt lat="40.8433297" lon="19.6343842"><ele>8.5</ele><time>2026-04-26T11:26:05.273Z</time></trkpt><trkpt lat="40.8431309" lon="19.6342201"><ele>8.0</ele><time>2026-04-26T11:26:06.271Z</time></trkpt><trkpt lat="40.8429285" lon="19.6340571"><ele>8.0</ele><time>2026-04-26T11:26:07.271Z</time></trkpt><trkpt lat="40.8427302" lon="19.6338932"><ele>8.0</ele><time>2026-04-26T11:26:08.273Z</time></trkpt><trkpt lat="40.8425296" lon="19.6337283"><ele>8.5</ele><time>2026-04-26T11:26:09.273Z</time></trkpt><trkpt lat="40.8423289" lon="19.6335602"><ele>9.0</ele><time>2026-04-26T11:26:10.272Z</time></trkpt><trkpt lat="40.8421281" lon="19.633397"><ele>9.0</ele><time>2026-04-26T11:26:11.274Z</time></trkpt><trkpt lat="40.8419271" lon="19.6332353"><ele>9.0</ele><time>2026-04-26T11:26:12.274Z</time></trkpt><trkpt lat="40.8417287" lon="19.6330696"><ele>8.5</ele><time>2026-04-26T11:26:13.273Z</time></trkpt><trkpt lat="40.8415274" lon="19.6329018"><ele>8.0</ele><time>2026-04-26T11:26:14.273Z</time></trkpt><trkpt lat="40.8413287" lon="19.6327379"><ele>8.0</ele><time>2026-04-26T11:26:15.272Z</time></trkpt><trkpt lat="40.841129" lon="19.6325737"><ele>8.0</ele><time>2026-04-26T11:26:16.272Z</time></trkpt><trkpt lat="40.8409324" lon="19.6324115"><ele>7.5</ele><time>2026-04-26T11:26:17.271Z</time></trkpt><trkpt lat="40.8407388" lon="19.6322453"><ele>7.0</ele><time>2026-04-26T11:26:18.275Z</time></trkpt><trkpt lat="40.8405442" lon="19.6320792"><ele>6.0</ele><time>2026-04-26T11:26:19.272Z</time></trkpt><trkpt lat="40.8403393" lon="19.6319187"><ele>5.0</ele><time>2026-04-26T11:26:20.273Z</time></trkpt><trkpt lat="40.8401414" lon="19.6317549"><ele>5.5</ele><time>2026-04-26T11:26:21.273Z</time></trkpt><trkpt lat="40.8399413" lon="19.6315892"><ele>6.0</ele><time>2026-04-26T11:26:22.273Z</time></trkpt><trkpt lat="40.8397408" lon="19.6314179"><ele>6.0</ele><time>2026-04-26T11:26:23.274Z</time></trkpt><trkpt lat="40.8395373" lon="19.6312526"><ele>6.0</ele><time>2026-04-26T11:26:24.273Z</time></trkpt><trkpt lat="40.8393325" lon="19.6310844"><ele>6.5</ele><time>2026-04-26T11:26:25.273Z</time></trkpt><trkpt lat="40.8391333" lon="19.630918"><ele>7.0</ele><time>2026-04-26T11:26:26.273Z</time></trkpt><trkpt lat="40.8389352" lon="19.6307508"><ele>7.0</ele><time>2026-04-26T11:26:27.273Z</time></trkpt><trkpt lat="40.8387381" lon="19.6305867"><ele>7.0</ele><time>2026-04-26T11:26:28.273Z</time></trkpt><trkpt lat="40.8385443" lon="19.6304239"><ele>7.0</ele><time>2026-04-26T11:26:29.272Z</time></trkpt><trkpt lat="40.8383492" lon="19.6302616"><ele>7.0</ele><time>2026-04-26T11:26:30.273Z</time></trkpt><trkpt lat="40.8381536" lon="19.6300976"><ele>7.0</ele><time>2026-04-26T11:26:31.274Z</time></trkpt><trkpt lat="40.8379577" lon="19.6299291"><ele>7.0</ele><time>2026-04-26T11:26:32.273Z</time></trkpt><trkpt lat="40.8377592" lon="19.6297602"><ele>7.0</ele><time>2026-04-26T11:26:33.274Z</time></trkpt><trkpt lat="40.8375571" lon="19.6295906"><ele>7.0</ele><time>2026-04-26T11:26:34.271Z</time></trkpt><trkpt lat="40.8373543" lon="19.6294199"><ele>7.0</ele><time>2026-04-26T11:26:35.273Z</time></trkpt><trkpt lat="40.8371533" lon="19.6292477"><ele>7.0</ele><time>2026-04-26T11:26:36.274Z</time></trkpt><trkpt lat="40.8369449" lon="19.6290793"><ele>7.5</ele><time>2026-04-26T11:26:37.273Z</time></trkpt><trkpt lat="40.8367417" lon="19.6289096"><ele>8.0</ele><time>2026-04-26T11:26:38.275Z</time></trkpt><trkpt lat="40.8365393" lon="19.6287382"><ele>8.5</ele><time>2026-04-26T11:26:39.272Z</time></trkpt><trkpt lat="40.836336" lon="19.6285684"><ele>9.0</ele><time>2026-04-26T11:26:40.275Z</time></trkpt><trkpt lat="40.8361379" lon="19.6283986"><ele>7.5</ele><time>2026-04-26T11:26:41.272Z</time></trkpt><trkpt lat="40.8359375" lon="19.6282318"><ele>6.0</ele><time>2026-04-26T11:26:42.272Z</time></trkpt><trkpt lat="40.8357394" lon="19.6280672"><ele>6.0</ele><time>2026-04-26T11:26:43.272Z</time></trkpt><trkpt lat="40.8355424" lon="19.6279062"><ele>6.0</ele><time>2026-04-26T11:26:44.272Z</time></trkpt><trkpt lat="40.8353456" lon="19.6277385"><ele>6.0</ele><time>2026-04-26T11:26:45.272Z</time></trkpt><trkpt lat="40.8351455" lon="19.6275724"><ele>6.0</ele><time>2026-04-26T11:26:46.272Z</time></trkpt><trkpt lat="40.8349474" lon="19.6274026"><ele>6.0</ele><time>2026-04-26T11:26:47.271Z</time></trkpt><trkpt lat="40.8347468" lon="19.6272319"><ele>6.0</ele><time>2026-04-26T11:26:48.275Z</time></trkpt><trkpt lat="40.8345496" lon="19.6270635"><ele>6.5</ele><time>2026-04-26T11:26:49.271Z</time></trkpt><trkpt lat="40.834355" lon="19.6268971"><ele>7.0</ele><time>2026-04-26T11:26:50.272Z</time></trkpt><trkpt lat="40.83416" lon="19.6267309"><ele>7.0</ele><time>2026-04-26T11:26:51.273Z</time></trkpt><trkpt lat="40.8339664" lon="19.6265674"><ele>7.0</ele><time>2026-04-26T11:26:52.272Z</time></trkpt><trkpt lat="40.8337729" lon="19.6264039"><ele>7.0</ele><time>2026-04-26T11:26:53.274Z</time></trkpt><trkpt lat="40.8335797" lon="19.6262442"><ele>7.0</ele><time>2026-04-26T11:26:54.276Z</time></trkpt><trkpt lat="40.8333855" lon="19.626082"><ele>6.333333333333334</ele><time>2026-04-26T11:26:55.27Z</time></trkpt><trkpt lat="40.8331953" lon="19.6259226"><ele>5.666666666666667</ele><time>2026-04-26T11:26:56.273Z</time></trkpt><trkpt lat="40.8330097" lon="19.6257635"><ele>5.0</ele><time>2026-04-26T11:26:57.272Z</time></trkpt><trkpt lat="40.8328254" lon="19.6256083"><ele>5.0</ele><time>2026-04-26T11:26:58.274Z</time></trkpt><trkpt lat="40.83264" lon="19.6254532"><ele>5.0</ele><time>2026-04-26T11:26:59.274Z</time></trkpt><trkpt lat="40.8324539" lon="19.6253004"><ele>5.0</ele><time>2026-04-26T11:27:00.272Z</time></trkpt><trkpt lat="40.8322676" lon="19.6251506"><ele>5.0</ele><time>2026-04-26T11:27:01.274Z</time></trkpt><trkpt lat="40.8320896" lon="19.6250057"><ele>5.0</ele><time>2026-04-26T11:27:02.273Z</time></trkpt><trkpt lat="40.8319208" lon="19.6248679"><ele>5.0</ele><time>2026-04-26T11:27:03.277Z</time></trkpt><trkpt lat="40.8317547" lon="19.6247328"><ele>5.0</ele><time>2026-04-26T11:27:04.272Z</time></trkpt><trkpt lat="40.8315944" lon="19.6245981"><ele>5.0</ele><time>2026-04-26T11:27:05.275Z</time></trkpt><trkpt lat="40.8314497" lon="19.6244695"><ele>5.0</ele><time>2026-04-26T11:27:06.274Z</time></trkpt><trkpt lat="40.8313155" lon="19.624346"><ele>5.0</ele><time>2026-04-26T11:27:07.276Z</time></trkpt><trkpt lat="40.8311947" lon="19.6242141"><ele>5.0</ele><time>2026-04-26T11:27:08.271Z</time></trkpt><trkpt lat="40.8310948" lon="19.6240796"><ele>5.0</ele><time>2026-04-26T11:27:09.272Z</time></trkpt><trkpt lat="40.8310221" lon="19.623948"><ele>5.0</ele><time>2026-04-26T11:27:10.275Z</time></trkpt><trkpt lat="40.8309575" lon="19.6238165"><ele>4.8</ele><time>2026-04-26T11:27:11.274Z</time></trkpt><trkpt lat="40.8309055" lon="19.6236745"><ele>4.6</ele><time>2026-04-26T11:27:12.275Z</time></trkpt><trkpt lat="40.8308648" lon="19.6235413"><ele>4.4</ele><time>2026-04-26T11:27:13.273Z</time></trkpt><trkpt lat="40.8308278" lon="19.623421"><ele>4.2</ele><time>2026-04-26T11:27:14.27Z</time></trkpt><trkpt lat="40.8307997" lon="19.6233082"><ele>4.0</ele><time>2026-04-26T11:27:15.272Z</time></trkpt><trkpt lat="40.8307858" lon="19.6231903"><ele>4.285714285714286</ele><time>2026-04-26T11:27:16.273Z</time></trkpt><trkpt lat="40.8307835" lon="19.6230757"><ele>4.571428571428571</ele><time>2026-04-26T11:27:17.273Z</time></trkpt><trkpt lat="40.8307933" lon="19.6229728"><ele>4.857142857142857</ele><time>2026-04-26T11:27:18.278Z</time></trkpt><trkpt lat="40.8307968" lon="19.6228781"><ele>5.142857142857142</ele><time>2026-04-26T11:27:19.275Z</time></trkpt><trkpt lat="40.8307774" lon="19.6227896"><ele>5.428571428571429</ele><time>2026-04-26T11:27:20.274Z</time></trkpt><trkpt lat="40.8307361" lon="19.6227212"><ele>5.7142857142857135</ele><time>2026-04-26T11:27:21.274Z</time></trkpt><trkpt lat="40.8306798" lon="19.6226823"><ele>6.0</ele><time>2026-04-26T11:27:22.273Z</time></trkpt><trkpt lat="40.8306148" lon="19.6226748"><ele>6.0</ele><time>2026-04-26T11:27:23.272Z</time></trkpt><trkpt lat="40.8305492" lon="19.6226976"><ele>6.0</ele><time>2026-04-26T11:27:24.276Z</time></trkpt><trkpt lat="40.8304812" lon="19.6227507"><ele>6.0</ele><time>2026-04-26T11:27:25.272Z</time></trkpt><trkpt lat="40.8304134" lon="19.6228218"><ele>6.0</ele><time>2026-04-26T11:27:26.271Z</time></trkpt><trkpt lat="40.8303464" lon="19.6228842"><ele>6.0</ele><time>2026-04-26T11:27:27.274Z</time></trkpt><trkpt lat="40.8302807" lon="19.6229377"><ele>6.0</ele><time>2026-04-26T11:27:28.277Z</time></trkpt><trkpt lat="40.8302082" lon="19.6229744"><ele>6.0</ele><time>2026-04-26T11:27:29.273Z</time></trkpt><trkpt lat="40.8301204" lon="19.6230115"><ele>6.0</ele><time>2026-04-26T11:27:30.272Z</time></trkpt><trkpt lat="40.8300284" lon="19.6230542"><ele>6.0</ele><time>2026-04-26T11:27:31.273Z</time></trkpt><trkpt lat="40.8299312" lon="19.6230868"><ele>6.0</ele><time>2026-04-26T11:27:32.271Z</time></trkpt><trkpt lat="40.8298225" lon="19.6230913"><ele>6.0</ele><time>2026-04-26T11:27:33.274Z</time></trkpt><trkpt lat="40.8297154" lon="19.6230612"><ele>6.0</ele><time>2026-04-26T11:27:34.273Z</time></trkpt><trkpt lat="40.8296089" lon="19.6229994"><ele>6.0</ele><time>2026-04-26T11:27:35.273Z</time></trkpt><trkpt lat="40.8295" lon="19.6229222"><ele>6.0</ele><time>2026-04-26T11:27:36.273Z</time></trkpt><trkpt lat="40.8293744" lon="19.6228307"><ele>6.0</ele><time>2026-04-26T11:27:37.273Z</time></trkpt><trkpt lat="40.8292546" lon="19.6227328"><ele>6.25</ele><time>2026-04-26T11:27:38.271Z</time></trkpt><trkpt lat="40.8291403" lon="19.6226428"><ele>6.5</ele><time>2026-04-26T11:27:39.273Z</time></trkpt><trkpt lat="40.829037" lon="19.622559"><ele>6.75</ele><time>2026-04-26T11:27:40.273Z</time></trkpt><trkpt lat="40.8289346" lon="19.6224751"><ele>7.0</ele><time>2026-04-26T11:27:41.276Z</time></trkpt><trkpt lat="40.8288257" lon="19.6223835"><ele>7.0</ele><time>2026-04-26T11:27:42.272Z</time></trkpt><trkpt lat="40.8287125" lon="19.6222914"><ele>7.0</ele><time>2026-04-26T11:27:43.273Z</time></trkpt><trkpt lat="40.8285946" lon="19.6221972"><ele>7.0</ele><time>2026-04-26T11:27:44.274Z</time></trkpt><trkpt lat="40.8284772" lon="19.622105"><ele>7.0</ele><time>2026-04-26T11:27:45.272Z</time></trkpt><trkpt lat="40.8283601" lon="19.6220104"><ele>6.75</ele><time>2026-04-26T11:27:46.272Z</time></trkpt><trkpt lat="40.8282359" lon="19.6219121"><ele>6.5</ele><time>2026-04-26T11:27:47.272Z</time></trkpt><trkpt lat="40.8281111" lon="19.6218138"><ele>6.25</ele><time>2026-04-26T11:27:48.277Z</time></trkpt><trkpt lat="40.8279823" lon="19.6217092"><ele>6.0</ele><time>2026-04-26T11:27:49.272Z</time></trkpt><trkpt lat="40.827848" lon="19.621606"><ele>6.0</ele><time>2026-04-26T11:27:50.272Z</time></trkpt><trkpt lat="40.8277118" lon="19.621498"><ele>6.0</ele><time>2026-04-26T11:27:51.272Z</time></trkpt><trkpt lat="40.8275754" lon="19.6213858"><ele>6.0</ele><time>2026-04-26T11:27:52.276Z</time></trkpt><trkpt lat="40.827433" lon="19.62127"><ele>6.333333333333334</ele><time>2026-04-26T11:27:53.274Z</time></trkpt><trkpt lat="40.8272895" lon="19.6211543"><ele>6.666666666666667</ele><time>2026-04-26T11:27:54.272Z</time></trkpt><trkpt lat="40.8271474" lon="19.621041"><ele>7.0</ele><time>2026-04-26T11:27:55.273Z</time></trkpt><trkpt lat="40.8270069" lon="19.6209249"><ele>6.666666666666667</ele><time>2026-04-26T11:27:56.273Z</time></trkpt><trkpt lat="40.826866" lon="19.620809"><ele>6.333333333333334</ele><time>2026-04-26T11:27:57.272Z</time></trkpt><trkpt lat="40.8267211" lon="19.6206914"><ele>6.0</ele><time>2026-04-26T11:27:58.273Z</time></trkpt><trkpt lat="40.8265737" lon="19.6205751"><ele>6.0</ele><time>2026-04-26T11:27:59.272Z</time></trkpt><trkpt lat="40.8264206" lon="19.6204511"><ele>6.0</ele><time>2026-04-26T11:28:00.273Z</time></trkpt><trkpt lat="40.8262672" lon="19.6203216"><ele>6.0</ele><time>2026-04-26T11:28:01.272Z</time></trkpt><trkpt lat="40.8260992" lon="19.6201814"><ele>6.333333333333334</ele><time>2026-04-26T11:28:02.272Z</time></trkpt><trkpt lat="40.8259152" lon="19.6200338"><ele>6.666666666666667</ele><time>2026-04-26T11:28:03.272Z</time></trkpt><trkpt lat="40.825727" lon="19.6198808"><ele>7.0</ele><time>2026-04-26T11:28:04.275Z</time></trkpt><trkpt lat="40.8255325" lon="19.6197265"><ele>7.0</ele><time>2026-04-26T11:28:05.272Z</time></trkpt><trkpt lat="40.8253353" lon="19.6195688"><ele>7.0</ele><time>2026-04-26T11:28:06.274Z</time></trkpt><trkpt lat="40.8251389" lon="19.6194083"><ele>6.5</ele><time>2026-04-26T11:28:07.276Z</time></trkpt><trkpt lat="40.8249429" lon="19.6192516"><ele>6.0</ele><time>2026-04-26T11:28:08.278Z</time></trkpt><trkpt lat="40.8247404" lon="19.6190854"><ele>6.0</ele><time>2026-04-26T11:28:09.273Z</time></trkpt><trkpt lat="40.8245327" lon="19.6189188"><ele>6.0</ele><time>2026-04-26T11:28:10.273Z</time></trkpt><trkpt lat="40.8243299" lon="19.61875"><ele>6.5</ele><time>2026-04-26T11:28:11.275Z</time></trkpt><trkpt lat="40.824127" lon="19.6185788"><ele>7.0</ele><time>2026-04-26T11:28:12.273Z</time></trkpt><trkpt lat="40.8239256" lon="19.618401"><ele>7.0</ele><time>2026-04-26T11:28:13.276Z</time></trkpt><trkpt lat="40.8237213" lon="19.6182287"><ele>7.0</ele><time>2026-04-26T11:28:14.274Z</time></trkpt><trkpt lat="40.8235193" lon="19.6180582"><ele>7.0</ele><time>2026-04-26T11:28:15.274Z</time></trkpt><trkpt lat="40.8233141" lon="19.6178912"><ele>7.0</ele><time>2026-04-26T11:28:16.272Z</time></trkpt><trkpt lat="40.8231119" lon="19.6177244"><ele>7.0</ele><time>2026-04-26T11:28:17.274Z</time></trkpt><trkpt lat="40.8229075" lon="19.6175585"><ele>7.0</ele><time>2026-04-26T11:28:18.274Z</time></trkpt><trkpt lat="40.8227001" lon="19.6173929"><ele>6.0</ele><time>2026-04-26T11:28:19.273Z</time></trkpt><trkpt lat="40.8224969" lon="19.6172286"><ele>5.0</ele><time>2026-04-26T11:28:20.275Z</time></trkpt><trkpt lat="40.8222998" lon="19.6170629"><ele>6.0</ele><time>2026-04-26T11:28:21.276Z</time></trkpt><trkpt lat="40.8221007" lon="19.6169028"><ele>7.0</ele><time>2026-04-26T11:28:22.273Z</time></trkpt><trkpt lat="40.8219042" lon="19.6167364"><ele>7.0</ele><time>2026-04-26T11:28:23.271Z</time></trkpt><trkpt lat="40.8217055" lon="19.6165752"><ele>7.0</ele><time>2026-04-26T11:28:24.273Z</time></trkpt><trkpt lat="40.8215056" lon="19.6164123"><ele>7.0</ele><time>2026-04-26T11:28:25.274Z</time></trkpt><trkpt lat="40.8213046" lon="19.6162498"><ele>7.0</ele><time>2026-04-26T11:28:26.271Z</time></trkpt><trkpt lat="40.8211049" lon="19.6160905"><ele>7.0</ele><time>2026-04-26T11:28:27.274Z</time></trkpt><trkpt lat="40.8209041" lon="19.6159298"><ele>7.0</ele><time>2026-04-26T11:28:28.273Z</time></trkpt><trkpt lat="40.8207013" lon="19.6157694"><ele>7.0</ele><time>2026-04-26T11:28:29.273Z</time></trkpt><trkpt lat="40.820493" lon="19.6156128"><ele>7.0</ele><time>2026-04-26T11:28:30.274Z</time></trkpt><trkpt lat="40.8202768" lon="19.6154636"><ele>7.0</ele><time>2026-04-26T11:28:31.272Z</time></trkpt><trkpt lat="40.8200595" lon="19.6153188"><ele>7.0</ele><time>2026-04-26T11:28:32.272Z</time></trkpt><trkpt lat="40.8198416" lon="19.6151671"><ele>7.0</ele><time>2026-04-26T11:28:33.273Z</time></trkpt><trkpt lat="40.819624" lon="19.6150282"><ele>7.0</ele><time>2026-04-26T11:28:34.273Z</time></trkpt><trkpt lat="40.8194068" lon="19.6149007"><ele>6.0</ele><time>2026-04-26T11:28:35.271Z</time></trkpt><trkpt lat="40.8191875" lon="19.6147777"><ele>5.0</ele><time>2026-04-26T11:28:36.272Z</time></trkpt><trkpt lat="40.8189694" lon="19.6146576"><ele>5.0</ele><time>2026-04-26T11:28:37.273Z</time></trkpt><trkpt lat="40.8187502" lon="19.6145353"><ele>5.0</ele><time>2026-04-26T11:28:38.272Z</time></trkpt><trkpt lat="40.8185284" lon="19.6144211"><ele>5.5</ele><time>2026-04-26T11:28:39.271Z</time></trkpt><trkpt lat="40.8183057" lon="19.6143104"><ele>6.0</ele><time>2026-04-26T11:28:40.276Z</time></trkpt><trkpt lat="40.818082" lon="19.6142117"><ele>6.0</ele><time>2026-04-26T11:28:41.275Z</time></trkpt><trkpt lat="40.8178585" lon="19.6141148"><ele>6.0</ele><time>2026-04-26T11:28:42.275Z</time></trkpt><trkpt lat="40.8176316" lon="19.614027"><ele>6.5</ele><time>2026-04-26T11:28:43.275Z</time></trkpt><trkpt lat="40.8173937" lon="19.6139503"><ele>7.0</ele><time>2026-04-26T11:28:44.273Z</time></trkpt><trkpt lat="40.8171473" lon="19.6138708"><ele>7.0</ele><time>2026-04-26T11:28:45.276Z</time></trkpt><trkpt lat="40.8168926" lon="19.6137923"><ele>7.0</ele><time>2026-04-26T11:28:46.273Z</time></trkpt><trkpt lat="40.8166291" lon="19.6137164"><ele>7.0</ele><time>2026-04-26T11:28:47.273Z</time></trkpt><trkpt lat="40.8163619" lon="19.6136267"><ele>7.0</ele><time>2026-04-26T11:28:48.276Z</time></trkpt><trkpt lat="40.8160916" lon="19.6135525"><ele>7.0</ele><time>2026-04-26T11:28:49.274Z</time></trkpt><trkpt lat="40.8158294" lon="19.6134805"><ele>7.0</ele><time>2026-04-26T11:28:50.271Z</time></trkpt><trkpt lat="40.8155565" lon="19.6134182"><ele>7.0</ele><time>2026-04-26T11:28:51.274Z</time></trkpt><trkpt lat="40.8152898" lon="19.6133503"><ele>7.0</ele><time>2026-04-26T11:28:52.275Z</time></trkpt><trkpt lat="40.8150246" lon="19.6132802"><ele>7.0</ele><time>2026-04-26T11:28:53.273Z</time></trkpt><trkpt lat="40.8147601" lon="19.6132137"><ele>7.0</ele><time>2026-04-26T11:28:54.275Z</time></trkpt><trkpt lat="40.8144985" lon="19.6131485"><ele>6.5</ele><time>2026-04-26T11:28:55.274Z</time></trkpt><trkpt lat="40.8142448" lon="19.6130803"><ele>6.0</ele><time>2026-04-26T11:28:56.273Z</time></trkpt><trkpt lat="40.813986" lon="19.6130236"><ele>6.0</ele><time>2026-04-26T11:28:57.272Z</time></trkpt><trkpt lat="40.8137334" lon="19.6129605"><ele>6.0</ele><time>2026-04-26T11:28:58.273Z</time></trkpt><trkpt lat="40.8134875" lon="19.6128939"><ele>6.5</ele><time>2026-04-26T11:28:59.272Z</time></trkpt><trkpt lat="40.8132337" lon="19.6128291"><ele>7.0</ele><time>2026-04-26T11:29:00.275Z</time></trkpt><trkpt lat="40.8129824" lon="19.6127632"><ele>7.5</ele><time>2026-04-26T11:29:01.272Z</time></trkpt><trkpt lat="40.8127315" lon="19.6126934"><ele>8.0</ele><time>2026-04-26T11:29:02.271Z</time></trkpt><trkpt lat="40.8124817" lon="19.6126298"><ele>8.0</ele><time>2026-04-26T11:29:03.272Z</time></trkpt><trkpt lat="40.8122316" lon="19.612567"><ele>8.0</ele><time>2026-04-26T11:29:04.274Z</time></trkpt><trkpt lat="40.8119827" lon="19.6125054"><ele>8.5</ele><time>2026-04-26T11:29:05.272Z</time></trkpt><trkpt lat="40.8117343" lon="19.6124438"><ele>9.0</ele><time>2026-04-26T11:29:06.271Z</time></trkpt><trkpt lat="40.8114856" lon="19.6123842"><ele>9.0</ele><time>2026-04-26T11:29:07.274Z</time></trkpt><trkpt lat="40.8112373" lon="19.6123207"><ele>9.0</ele><time>2026-04-26T11:29:08.274Z</time></trkpt><trkpt lat="40.8109897" lon="19.6122554"><ele>8.0</ele><time>2026-04-26T11:29:09.274Z</time></trkpt><trkpt lat="40.8107396" lon="19.6121994"><ele>7.0</ele><time>2026-04-26T11:29:10.273Z</time></trkpt><trkpt lat="40.8104911" lon="19.612134"><ele>7.0</ele><time>2026-04-26T11:29:11.273Z</time></trkpt><trkpt lat="40.8102408" lon="19.6120716"><ele>7.0</ele><time>2026-04-26T11:29:12.273Z</time></trkpt><trkpt lat="40.8099894" lon="19.6120138"><ele>7.5</ele><time>2026-04-26T11:29:13.272Z</time></trkpt><trkpt lat="40.8097414" lon="19.6119498"><ele>8.0</ele><time>2026-04-26T11:29:14.273Z</time></trkpt><trkpt lat="40.8094913" lon="19.6118836"><ele>8.0</ele><time>2026-04-26T11:29:15.273Z</time></trkpt><trkpt lat="40.8092402" lon="19.6118199"><ele>8.0</ele><time>2026-04-26T11:29:16.273Z</time></trkpt><trkpt lat="40.8089884" lon="19.6117536"><ele>8.0</ele><time>2026-04-26T11:29:17.273Z</time></trkpt><trkpt lat="40.8087365" lon="19.6116849"><ele>8.0</ele><time>2026-04-26T11:29:18.273Z</time></trkpt><trkpt lat="40.8084834" lon="19.6116202"><ele>7.5</ele><time>2026-04-26T11:29:19.273Z</time></trkpt><trkpt lat="40.8082294" lon="19.6115557"><ele>7.0</ele><time>2026-04-26T11:29:20.277Z</time></trkpt><trkpt lat="40.8079731" lon="19.6114912"><ele>7.0</ele><time>2026-04-26T11:29:21.274Z</time></trkpt><trkpt lat="40.8077197" lon="19.6114237"><ele>7.0</ele><time>2026-04-26T11:29:22.271Z</time></trkpt><trkpt lat="40.807465" lon="19.6113566"><ele>7.5</ele><time>2026-04-26T11:29:23.274Z</time></trkpt><trkpt lat="40.8072111" lon="19.6112929"><ele>8.0</ele><time>2026-04-26T11:29:24.274Z</time></trkpt><trkpt lat="40.8069556" lon="19.6112297"><ele>8.0</ele><time>2026-04-26T11:29:25.272Z</time></trkpt><trkpt lat="40.8067042" lon="19.6111635"><ele>8.0</ele><time>2026-04-26T11:29:26.272Z</time></trkpt><trkpt lat="40.8064535" lon="19.6110991"><ele>7.5</ele><time>2026-04-26T11:29:27.272Z</time></trkpt><trkpt lat="40.8062036" lon="19.6110388"><ele>7.0</ele><time>2026-04-26T11:29:28.272Z</time></trkpt><trkpt lat="40.8059557" lon="19.610976"><ele>7.0</ele><time>2026-04-26T11:29:29.275Z</time></trkpt><trkpt lat="40.8057052" lon="19.6109093"><ele>7.0</ele><time>2026-04-26T11:29:30.272Z</time></trkpt><trkpt lat="40.805457" lon="19.6108437"><ele>7.0</ele><time>2026-04-26T11:29:31.274Z</time></trkpt><trkpt lat="40.8052125" lon="19.6107807"><ele>7.0</ele><time>2026-04-26T11:29:32.274Z</time></trkpt><trkpt lat="40.804969" lon="19.61072"><ele>6.5</ele><time>2026-04-26T11:29:33.271Z</time></trkpt><trkpt lat="40.8047267" lon="19.6106516"><ele>6.0</ele><time>2026-04-26T11:29:34.274Z</time></trkpt><trkpt lat="40.8044889" lon="19.6105767"><ele>7.5</ele><time>2026-04-26T11:29:35.272Z</time></trkpt><trkpt lat="40.8042479" lon="19.610492"><ele>9.0</ele><time>2026-04-26T11:29:36.274Z</time></trkpt><trkpt lat="40.804008" lon="19.6104034"><ele>9.5</ele><time>2026-04-26T11:29:37.274Z</time></trkpt><trkpt lat="40.8037724" lon="19.6103158"><ele>10.0</ele><time>2026-04-26T11:29:38.273Z</time></trkpt><trkpt lat="40.8035375" lon="19.610231"><ele>8.5</ele><time>2026-04-26T11:29:39.273Z</time></trkpt><trkpt lat="40.8033078" lon="19.6101398"><ele>7.0</ele><time>2026-04-26T11:29:40.272Z</time></trkpt><trkpt lat="40.8030786" lon="19.610045"><ele>7.0</ele><time>2026-04-26T11:29:41.275Z</time></trkpt><trkpt lat="40.8028513" lon="19.60994"><ele>7.0</ele><time>2026-04-26T11:29:42.27Z</time></trkpt><trkpt lat="40.8026271" lon="19.6098365"><ele>6.5</ele><time>2026-04-26T11:29:43.273Z</time></trkpt><trkpt lat="40.8024054" lon="19.609731"><ele>6.0</ele><time>2026-04-26T11:29:44.273Z</time></trkpt><trkpt lat="40.8021811" lon="19.6096196"><ele>6.0</ele><time>2026-04-26T11:29:45.271Z</time></trkpt><trkpt lat="40.8019617" lon="19.6095031"><ele>6.0</ele><time>2026-04-26T11:29:46.272Z</time></trkpt><trkpt lat="40.8017477" lon="19.6093867"><ele>7.0</ele><time>2026-04-26T11:29:47.274Z</time></trkpt><trkpt lat="40.8015297" lon="19.6092678"><ele>8.0</ele><time>2026-04-26T11:29:48.272Z</time></trkpt><trkpt lat="40.8013139" lon="19.6091425"><ele>8.0</ele><time>2026-04-26T11:29:49.272Z</time></trkpt><trkpt lat="40.8011091" lon="19.6090198"><ele>8.0</ele><time>2026-04-26T11:29:50.274Z</time></trkpt><trkpt lat="40.8009126" lon="19.6088992"><ele>8.0</ele><time>2026-04-26T11:29:51.273Z</time></trkpt><trkpt lat="40.800718" lon="19.608777"><ele>7.666666666666666</ele><time>2026-04-26T11:29:52.271Z</time></trkpt><trkpt lat="40.8005306" lon="19.6086499"><ele>7.333333333333334</ele><time>2026-04-26T11:29:53.272Z</time></trkpt><trkpt lat="40.8003453" lon="19.6085243"><ele>7.0</ele><time>2026-04-26T11:29:54.271Z</time></trkpt><trkpt lat="40.8001644" lon="19.6083926"><ele>7.0</ele><time>2026-04-26T11:29:55.272Z</time></trkpt><trkpt lat="40.7999869" lon="19.6082607"><ele>7.0</ele><time>2026-04-26T11:29:56.272Z</time></trkpt><trkpt lat="40.7998098" lon="19.6081298"><ele>7.0</ele><time>2026-04-26T11:29:57.272Z</time></trkpt><trkpt lat="40.7996428" lon="19.6079955"><ele>7.0</ele><time>2026-04-26T11:29:58.273Z</time></trkpt><trkpt lat="40.799481" lon="19.6078629"><ele>7.0</ele><time>2026-04-26T11:29:59.273Z</time></trkpt><trkpt lat="40.7993197" lon="19.6077302"><ele>7.0</ele><time>2026-04-26T11:30:00.273Z</time></trkpt><trkpt lat="40.7991584" lon="19.6076007"><ele>7.666666666666667</ele><time>2026-04-26T11:30:01.275Z</time></trkpt><trkpt lat="40.7989998" lon="19.607455"><ele>8.333333333333334</ele><time>2026-04-26T11:30:02.272Z</time></trkpt><trkpt lat="40.7988317" lon="19.607306"><ele>9.0</ele><time>2026-04-26T11:30:03.273Z</time></trkpt><trkpt lat="40.7986543" lon="19.6071528"><ele>9.0</ele><time>2026-04-26T11:30:04.271Z</time></trkpt><trkpt lat="40.7984791" lon="19.6069878"><ele>9.0</ele><time>2026-04-26T11:30:05.271Z</time></trkpt><trkpt lat="40.7983061" lon="19.60682"><ele>9.0</ele><time>2026-04-26T11:30:06.272Z</time></trkpt><trkpt lat="40.7981295" lon="19.6066546"><ele>9.0</ele><time>2026-04-26T11:30:07.272Z</time></trkpt><trkpt lat="40.7979517" lon="19.6064849"><ele>9.0</ele><time>2026-04-26T11:30:08.27Z</time></trkpt><trkpt lat="40.7977741" lon="19.6063081"><ele>9.0</ele><time>2026-04-26T11:30:09.271Z</time></trkpt><trkpt lat="40.7975892" lon="19.6061219"><ele>9.0</ele><time>2026-04-26T11:30:10.271Z</time></trkpt><trkpt lat="40.797413" lon="19.6059423"><ele>9.0</ele><time>2026-04-26T11:30:11.272Z</time></trkpt><trkpt lat="40.7972254" lon="19.6057671"><ele>9.0</ele><time>2026-04-26T11:30:12.271Z</time></trkpt><trkpt lat="40.797033" lon="19.6055936"><ele>9.0</ele><time>2026-04-26T11:30:13.274Z</time></trkpt><trkpt lat="40.7968341" lon="19.605416"><ele>9.5</ele><time>2026-04-26T11:30:14.273Z</time></trkpt><trkpt lat="40.7966361" lon="19.6052388"><ele>10.0</ele><time>2026-04-26T11:30:15.273Z</time></trkpt><trkpt lat="40.7964357" lon="19.6050569"><ele>10.0</ele><time>2026-04-26T11:30:16.274Z</time></trkpt><trkpt lat="40.7962408" lon="19.6048673"><ele>10.0</ele><time>2026-04-26T11:30:17.272Z</time></trkpt><trkpt lat="40.7960406" lon="19.6046757"><ele>10.0</ele><time>2026-04-26T11:30:18.271Z</time></trkpt><trkpt lat="40.7958439" lon="19.6044828"><ele>10.0</ele><time>2026-04-26T11:30:19.271Z</time></trkpt><trkpt lat="40.795645" lon="19.6042884"><ele>10.0</ele><time>2026-04-26T11:30:20.274Z</time></trkpt><trkpt lat="40.7954489" lon="19.6040913"><ele>10.0</ele><time>2026-04-26T11:30:21.274Z</time></trkpt><trkpt lat="40.7952485" lon="19.6038978"><ele>10.0</ele><time>2026-04-26T11:30:22.273Z</time></trkpt><trkpt lat="40.7950506" lon="19.6037042"><ele>10.0</ele><time>2026-04-26T11:30:23.273Z</time></trkpt><trkpt lat="40.7948536" lon="19.6035111"><ele>10.0</ele><time>2026-04-26T11:30:24.272Z</time></trkpt><trkpt lat="40.7946568" lon="19.6033204"><ele>10.0</ele><time>2026-04-26T11:30:25.272Z</time></trkpt><trkpt lat="40.7944589" lon="19.6031366"><ele>9.5</ele><time>2026-04-26T11:30:26.273Z</time></trkpt><trkpt lat="40.7942612" lon="19.6029587"><ele>9.0</ele><time>2026-04-26T11:30:27.271Z</time></trkpt><trkpt lat="40.7940625" lon="19.602784"><ele>10.5</ele><time>2026-04-26T11:30:28.272Z</time></trkpt><trkpt lat="40.7938629" lon="19.6026149"><ele>12.0</ele><time>2026-04-26T11:30:29.272Z</time></trkpt><trkpt lat="40.7936649" lon="19.6024505"><ele>11.0</ele><time>2026-04-26T11:30:30.271Z</time></trkpt><trkpt lat="40.7934647" lon="19.6022878"><ele>10.0</ele><time>2026-04-26T11:30:31.273Z</time></trkpt><trkpt lat="40.7932634" lon="19.6021227"><ele>12.0</ele><time>2026-04-26T11:30:32.272Z</time></trkpt><trkpt lat="40.7930637" lon="19.6019627"><ele>14.0</ele><time>2026-04-26T11:30:33.273Z</time></trkpt><trkpt lat="40.7928594" lon="19.6018078"><ele>14.0</ele><time>2026-04-26T11:30:34.273Z</time></trkpt><trkpt lat="40.7926548" lon="19.6016521"><ele>14.0</ele><time>2026-04-26T11:30:35.275Z</time></trkpt><trkpt lat="40.7924456" lon="19.6014997"><ele>14.0</ele><time>2026-04-26T11:30:36.273Z</time></trkpt><trkpt lat="40.7922282" lon="19.6013542"><ele>14.0</ele><time>2026-04-26T11:30:37.271Z</time></trkpt><trkpt lat="40.7920212" lon="19.6011988"><ele>13.0</ele><time>2026-04-26T11:30:38.273Z</time></trkpt><trkpt lat="40.7918093" lon="19.6010433"><ele>12.0</ele><time>2026-04-26T11:30:39.274Z</time></trkpt><trkpt lat="40.7915939" lon="19.6009011"><ele>12.0</ele><time>2026-04-26T11:30:40.272Z</time></trkpt><trkpt lat="40.791376" lon="19.6007614"><ele>12.0</ele><time>2026-04-26T11:30:41.273Z</time></trkpt><trkpt lat="40.7911568" lon="19.6006225"><ele>11.0</ele><time>2026-04-26T11:30:42.274Z</time></trkpt><trkpt lat="40.7909374" lon="19.6004845"><ele>10.0</ele><time>2026-04-26T11:30:43.273Z</time></trkpt><trkpt lat="40.7907186" lon="19.6003459"><ele>12.0</ele><time>2026-04-26T11:30:44.273Z</time></trkpt><trkpt lat="40.7904979" lon="19.6002063"><ele>14.0</ele><time>2026-04-26T11:30:45.277Z</time></trkpt><trkpt lat="40.7902723" lon="19.6000724"><ele>12.0</ele><time>2026-04-26T11:30:46.272Z</time></trkpt><trkpt lat="40.7900448" lon="19.5999414"><ele>10.0</ele><time>2026-04-26T11:30:47.273Z</time></trkpt><trkpt lat="40.7898159" lon="19.5998128"><ele>10.0</ele><time>2026-04-26T11:30:48.273Z</time></trkpt><trkpt lat="40.7895848" lon="19.599692"><ele>10.0</ele><time>2026-04-26T11:30:49.274Z</time></trkpt><trkpt lat="40.7893501" lon="19.5995689"><ele>11.0</ele><time>2026-04-26T11:30:50.274Z</time></trkpt><trkpt lat="40.7891152" lon="19.5994469"><ele>12.0</ele><time>2026-04-26T11:30:51.274Z</time></trkpt><trkpt lat="40.7888761" lon="19.5993289"><ele>12.0</ele><time>2026-04-26T11:30:52.273Z</time></trkpt><trkpt lat="40.7886391" lon="19.599219"><ele>12.0</ele><time>2026-04-26T11:30:53.272Z</time></trkpt><trkpt lat="40.7884031" lon="19.5990997"><ele>11.0</ele><time>2026-04-26T11:30:54.273Z</time></trkpt><trkpt lat="40.7881697" lon="19.5989806"><ele>10.0</ele><time>2026-04-26T11:30:55.274Z</time></trkpt><trkpt lat="40.7879355" lon="19.5988595"><ele>10.0</ele><time>2026-04-26T11:30:56.274Z</time></trkpt><trkpt lat="40.7877018" lon="19.5987477"><ele>10.0</ele><time>2026-04-26T11:30:57.273Z</time></trkpt><trkpt lat="40.7874678" lon="19.598627"><ele>11.0</ele><time>2026-04-26T11:30:58.272Z</time></trkpt><trkpt lat="40.787234" lon="19.5985079"><ele>12.0</ele><time>2026-04-26T11:30:59.274Z</time></trkpt><trkpt lat="40.7869973" lon="19.5983887"><ele>10.5</ele><time>2026-04-26T11:31:00.271Z</time></trkpt><trkpt lat="40.7867571" lon="19.5982681"><ele>9.0</ele><time>2026-04-26T11:31:01.271Z</time></trkpt><trkpt lat="40.7865164" lon="19.5981396"><ele>9.0</ele><time>2026-04-26T11:31:02.272Z</time></trkpt><trkpt lat="40.7862751" lon="19.5980191"><ele>9.0</ele><time>2026-04-26T11:31:03.274Z</time></trkpt><trkpt lat="40.7860333" lon="19.5978974"><ele>9.5</ele><time>2026-04-26T11:31:04.274Z</time></trkpt><trkpt lat="40.7857934" lon="19.59778"><ele>10.0</ele><time>2026-04-26T11:31:05.273Z</time></trkpt><trkpt lat="40.785558" lon="19.5976614"><ele>10.0</ele><time>2026-04-26T11:31:06.272Z</time></trkpt><trkpt lat="40.7853215" lon="19.5975392"><ele>10.0</ele><time>2026-04-26T11:31:07.272Z</time></trkpt><trkpt lat="40.7850807" lon="19.5974217"><ele>9.0</ele><time>2026-04-26T11:31:08.275Z</time></trkpt><trkpt lat="40.7848397" lon="19.5973084"><ele>8.0</ele><time>2026-04-26T11:31:09.275Z</time></trkpt><trkpt lat="40.7846008" lon="19.5971988"><ele>8.0</ele><time>2026-04-26T11:31:10.272Z</time></trkpt><trkpt lat="40.7843626" lon="19.5970856"><ele>8.0</ele><time>2026-04-26T11:31:11.273Z</time></trkpt><trkpt lat="40.7841257" lon="19.5969682"><ele>8.0</ele><time>2026-04-26T11:31:12.274Z</time></trkpt><trkpt lat="40.7838916" lon="19.596846"><ele>8.0</ele><time>2026-04-26T11:31:13.274Z</time></trkpt><trkpt lat="40.7836561" lon="19.5967305"><ele>8.0</ele><time>2026-04-26T11:31:14.275Z</time></trkpt><trkpt lat="40.783421" lon="19.5966138"><ele>8.0</ele><time>2026-04-26T11:31:15.272Z</time></trkpt><trkpt lat="40.783187" lon="19.5964949"><ele>8.0</ele><time>2026-04-26T11:31:16.272Z</time></trkpt><trkpt lat="40.7829521" lon="19.5963773"><ele>8.0</ele><time>2026-04-26T11:31:17.274Z</time></trkpt><trkpt lat="40.7827162" lon="19.5962602"><ele>8.0</ele><time>2026-04-26T11:31:18.272Z</time></trkpt><trkpt lat="40.7824793" lon="19.5961424"><ele>8.0</ele><time>2026-04-26T11:31:19.273Z</time></trkpt><trkpt lat="40.7822415" lon="19.596023"><ele>8.0</ele><time>2026-04-26T11:31:20.271Z</time></trkpt><trkpt lat="40.7820063" lon="19.5959033"><ele>8.0</ele><time>2026-04-26T11:31:21.273Z</time></trkpt><trkpt lat="40.7817702" lon="19.5957808"><ele>8.0</ele><time>2026-04-26T11:31:22.272Z</time></trkpt><trkpt lat="40.7815338" lon="19.5956562"><ele>8.0</ele><time>2026-04-26T11:31:23.272Z</time></trkpt><trkpt lat="40.7812963" lon="19.5955355"><ele>8.0</ele><time>2026-04-26T11:31:24.274Z</time></trkpt><trkpt lat="40.7810587" lon="19.5954191"><ele>8.0</ele><time>2026-04-26T11:31:25.273Z</time></trkpt><trkpt lat="40.78082" lon="19.5953037"><ele>8.5</ele><time>2026-04-26T11:31:26.274Z</time></trkpt><trkpt lat="40.7805798" lon="19.5951832"><ele>9.0</ele><time>2026-04-26T11:31:27.275Z</time></trkpt><trkpt lat="40.7803401" lon="19.5950601"><ele>8.5</ele><time>2026-04-26T11:31:28.272Z</time></trkpt><trkpt lat="40.7801003" lon="19.5949241"><ele>8.0</ele><time>2026-04-26T11:31:29.274Z</time></trkpt><trkpt lat="40.7798569" lon="19.5947945"><ele>8.0</ele><time>2026-04-26T11:31:30.272Z</time></trkpt><trkpt lat="40.7796155" lon="19.5946735"><ele>8.0</ele><time>2026-04-26T11:31:31.272Z</time></trkpt><trkpt lat="40.7793763" lon="19.5945441"><ele>8.5</ele><time>2026-04-26T11:31:32.272Z</time></trkpt><trkpt lat="40.7791415" lon="19.5944194"><ele>9.0</ele><time>2026-04-26T11:31:33.272Z</time></trkpt><trkpt lat="40.7789073" lon="19.5943004"><ele>9.0</ele><time>2026-04-26T11:31:34.271Z</time></trkpt><trkpt lat="40.7786789" lon="19.5941894"><ele>9.0</ele><time>2026-04-26T11:31:35.271Z</time></trkpt><trkpt lat="40.778451" lon="19.5940738"><ele>9.0</ele><time>2026-04-26T11:31:36.271Z</time></trkpt><trkpt lat="40.7782233" lon="19.5939526"><ele>9.0</ele><time>2026-04-26T11:31:37.273Z</time></trkpt><trkpt lat="40.7779993" lon="19.5938388"><ele>9.0</ele><time>2026-04-26T11:31:38.27Z</time></trkpt><trkpt lat="40.7777739" lon="19.5937246"><ele>9.0</ele><time>2026-04-26T11:31:39.271Z</time></trkpt><trkpt lat="40.7775563" lon="19.5936107"><ele>9.0</ele><time>2026-04-26T11:31:40.272Z</time></trkpt><trkpt lat="40.7773423" lon="19.5934983"><ele>9.0</ele><time>2026-04-26T11:31:41.273Z</time></trkpt><trkpt lat="40.7771263" lon="19.5933856"><ele>9.0</ele><time>2026-04-26T11:31:42.272Z</time></trkpt><trkpt lat="40.7769128" lon="19.5932735"><ele>9.0</ele><time>2026-04-26T11:31:43.272Z</time></trkpt><trkpt lat="40.7766989" lon="19.5931654"><ele>9.0</ele><time>2026-04-26T11:31:44.271Z</time></trkpt><trkpt lat="40.7764854" lon="19.593057"><ele>9.0</ele><time>2026-04-26T11:31:45.271Z</time></trkpt><trkpt lat="40.7762718" lon="19.592949"><ele>9.0</ele><time>2026-04-26T11:31:46.272Z</time></trkpt><trkpt lat="40.7760593" lon="19.5928401"><ele>9.0</ele><time>2026-04-26T11:31:47.27Z</time></trkpt><trkpt lat="40.7758486" lon="19.5927278"><ele>8.0</ele><time>2026-04-26T11:31:48.271Z</time></trkpt><trkpt lat="40.7756372" lon="19.5926225"><ele>7.0</ele><time>2026-04-26T11:31:49.271Z</time></trkpt><trkpt lat="40.7754245" lon="19.5925093"><ele>7.0</ele><time>2026-04-26T11:31:50.272Z</time></trkpt><trkpt lat="40.7752142" lon="19.5923951"><ele>7.0</ele><time>2026-04-26T11:31:51.272Z</time></trkpt><trkpt lat="40.7750028" lon="19.5922798"><ele>6.5</ele><time>2026-04-26T11:31:52.27Z</time></trkpt><trkpt lat="40.7747945" lon="19.5921594"><ele>6.0</ele><time>2026-04-26T11:31:53.271Z</time></trkpt><trkpt lat="40.7745888" lon="19.5920299"><ele>6.5</ele><time>2026-04-26T11:31:54.273Z</time></trkpt><trkpt lat="40.7743793" lon="19.5919055"><ele>7.0</ele><time>2026-04-26T11:31:55.272Z</time></trkpt><trkpt lat="40.7741699" lon="19.591782"><ele>7.0</ele><time>2026-04-26T11:31:56.272Z</time></trkpt><trkpt lat="40.7739618" lon="19.5916576"><ele>7.0</ele><time>2026-04-26T11:31:57.272Z</time></trkpt><trkpt lat="40.7737473" lon="19.5915278"><ele>7.0</ele><time>2026-04-26T11:31:58.271Z</time></trkpt><trkpt lat="40.773538" lon="19.591394"><ele>7.0</ele><time>2026-04-26T11:31:59.273Z</time></trkpt><trkpt lat="40.773326" lon="19.591267"><ele>7.0</ele><time>2026-04-26T11:32:00.271Z</time></trkpt><trkpt lat="40.7731141" lon="19.5911481"><ele>7.0</ele><time>2026-04-26T11:32:01.271Z</time></trkpt><trkpt lat="40.772897" lon="19.5910321"><ele>7.5</ele><time>2026-04-26T11:32:02.271Z</time></trkpt><trkpt lat="40.7726793" lon="19.5909172"><ele>8.0</ele><time>2026-04-26T11:32:03.271Z</time></trkpt><trkpt lat="40.7724591" lon="19.5908044"><ele>8.0</ele><time>2026-04-26T11:32:04.273Z</time></trkpt><trkpt lat="40.7722362" lon="19.5906934"><ele>8.0</ele><time>2026-04-26T11:32:05.272Z</time></trkpt><trkpt lat="40.7720105" lon="19.5905835"><ele>7.0</ele><time>2026-04-26T11:32:06.272Z</time></trkpt><trkpt lat="40.7717819" lon="19.5904774"><ele>6.0</ele><time>2026-04-26T11:32:07.272Z</time></trkpt><trkpt lat="40.7715501" lon="19.5903739"><ele>6.5</ele><time>2026-04-26T11:32:08.27Z</time></trkpt><trkpt lat="40.7713175" lon="19.5902751"><ele>7.0</ele><time>2026-04-26T11:32:09.272Z</time></trkpt><trkpt lat="40.7710874" lon="19.5901811"><ele>7.0</ele><time>2026-04-26T11:32:10.273Z</time></trkpt><trkpt lat="40.770858" lon="19.5900875"><ele>7.0</ele><time>2026-04-26T11:32:11.272Z</time></trkpt><trkpt lat="40.7706277" lon="19.5899947"><ele>7.0</ele><time>2026-04-26T11:32:12.272Z</time></trkpt><trkpt lat="40.7704002" lon="19.5899019"><ele>7.0</ele><time>2026-04-26T11:32:13.271Z</time></trkpt><trkpt lat="40.7701708" lon="19.5898103"><ele>7.0</ele><time>2026-04-26T11:32:14.271Z</time></trkpt><trkpt lat="40.7699419" lon="19.5897166"><ele>7.0</ele><time>2026-04-26T11:32:15.272Z</time></trkpt><trkpt lat="40.7697156" lon="19.5896195"><ele>7.0</ele><time>2026-04-26T11:32:16.27Z</time></trkpt><trkpt lat="40.7694836" lon="19.589507"><ele>7.0</ele><time>2026-04-26T11:32:17.271Z</time></trkpt><trkpt lat="40.7692498" lon="19.589392"><ele>6.5</ele><time>2026-04-26T11:32:18.272Z</time></trkpt><trkpt lat="40.7690244" lon="19.5892857"><ele>6.0</ele><time>2026-04-26T11:32:19.271Z</time></trkpt><trkpt lat="40.7687975" lon="19.5891766"><ele>6.0</ele><time>2026-04-26T11:32:20.273Z</time></trkpt><trkpt lat="40.7685735" lon="19.5890613"><ele>6.0</ele><time>2026-04-26T11:32:21.275Z</time></trkpt><trkpt lat="40.7683491" lon="19.5889469"><ele>7.0</ele><time>2026-04-26T11:32:22.271Z</time></trkpt><trkpt lat="40.7681242" lon="19.5888295"><ele>8.0</ele><time>2026-04-26T11:32:23.274Z</time></trkpt><trkpt lat="40.7678994" lon="19.5887143"><ele>7.5</ele><time>2026-04-26T11:32:24.272Z</time></trkpt><trkpt lat="40.7676751" lon="19.5886008"><ele>7.0</ele><time>2026-04-26T11:32:25.273Z</time></trkpt><trkpt lat="40.7674472" lon="19.588491"><ele>7.0</ele><time>2026-04-26T11:32:26.271Z</time></trkpt><trkpt lat="40.7672262" lon="19.5883806"><ele>7.0</ele><time>2026-04-26T11:32:27.272Z</time></trkpt><trkpt lat="40.7670025" lon="19.5882693"><ele>7.0</ele><time>2026-04-26T11:32:28.274Z</time></trkpt><trkpt lat="40.7667865" lon="19.5881565"><ele>7.0</ele><time>2026-04-26T11:32:29.272Z</time></trkpt><trkpt lat="40.7665748" lon="19.58805"><ele>7.0</ele><time>2026-04-26T11:32:30.274Z</time></trkpt><trkpt lat="40.7663532" lon="19.5879393"><ele>7.0</ele><time>2026-04-26T11:32:31.271Z</time></trkpt><trkpt lat="40.766139" lon="19.5878257"><ele>7.5</ele><time>2026-04-26T11:32:32.272Z</time></trkpt><trkpt lat="40.7659204" lon="19.587716"><ele>8.0</ele><time>2026-04-26T11:32:33.274Z</time></trkpt><trkpt lat="40.7657003" lon="19.5876074"><ele>8.0</ele><time>2026-04-26T11:32:34.272Z</time></trkpt><trkpt lat="40.7654799" lon="19.5875005"><ele>8.0</ele><time>2026-04-26T11:32:35.273Z</time></trkpt><trkpt lat="40.7652626" lon="19.5873888"><ele>8.0</ele><time>2026-04-26T11:32:36.274Z</time></trkpt><trkpt lat="40.7650412" lon="19.5872773"><ele>8.0</ele><time>2026-04-26T11:32:37.275Z</time></trkpt><trkpt lat="40.7648205" lon="19.5871653"><ele>8.0</ele><time>2026-04-26T11:32:38.274Z</time></trkpt><trkpt lat="40.7645986" lon="19.5870528"><ele>8.0</ele><time>2026-04-26T11:32:39.271Z</time></trkpt><trkpt lat="40.7643734" lon="19.5869388"><ele>8.5</ele><time>2026-04-26T11:32:40.27Z</time></trkpt><trkpt lat="40.7641463" lon="19.586825"><ele>9.0</ele><time>2026-04-26T11:32:41.275Z</time></trkpt><trkpt lat="40.7639202" lon="19.586709"><ele>9.0</ele><time>2026-04-26T11:32:42.274Z</time></trkpt><trkpt lat="40.7636931" lon="19.5865957"><ele>9.0</ele><time>2026-04-26T11:32:43.276Z</time></trkpt><trkpt lat="40.7634706" lon="19.586478"><ele>8.0</ele><time>2026-04-26T11:32:44.274Z</time></trkpt><trkpt lat="40.7632407" lon="19.5863463"><ele>7.0</ele><time>2026-04-26T11:32:45.274Z</time></trkpt><trkpt lat="40.7630172" lon="19.5862006"><ele>7.0</ele><time>2026-04-26T11:32:46.273Z</time></trkpt><trkpt lat="40.7628026" lon="19.586042"><ele>7.0</ele><time>2026-04-26T11:32:47.272Z</time></trkpt><trkpt lat="40.7625945" lon="19.5858744"><ele>7.0</ele><time>2026-04-26T11:32:48.271Z</time></trkpt><trkpt lat="40.7623917" lon="19.585698"><ele>7.0</ele><time>2026-04-26T11:32:49.274Z</time></trkpt><trkpt lat="40.7621918" lon="19.5855141"><ele>7.0</ele><time>2026-04-26T11:32:50.273Z</time></trkpt><trkpt lat="40.7620019" lon="19.5853341"><ele>7.0</ele><time>2026-04-26T11:32:51.274Z</time></trkpt><trkpt lat="40.7618238" lon="19.5851292"><ele>7.0</ele><time>2026-04-26T11:32:52.272Z</time></trkpt><trkpt lat="40.7616457" lon="19.5849116"><ele>7.0</ele><time>2026-04-26T11:32:53.272Z</time></trkpt><trkpt lat="40.7614774" lon="19.5846864"><ele>8.0</ele><time>2026-04-26T11:32:54.272Z</time></trkpt><trkpt lat="40.7613172" lon="19.5844523"><ele>9.0</ele><time>2026-04-26T11:32:55.274Z</time></trkpt><trkpt lat="40.7611603" lon="19.5842099"><ele>8.5</ele><time>2026-04-26T11:32:56.273Z</time></trkpt><trkpt lat="40.7610127" lon="19.5839603"><ele>8.0</ele><time>2026-04-26T11:32:57.272Z</time></trkpt><trkpt lat="40.7608722" lon="19.5837045"><ele>8.5</ele><time>2026-04-26T11:32:58.272Z</time></trkpt><trkpt lat="40.7607409" lon="19.5834452"><ele>9.0</ele><time>2026-04-26T11:32:59.274Z</time></trkpt><trkpt lat="40.7606125" lon="19.5831807"><ele>9.0</ele><time>2026-04-26T11:33:00.272Z</time></trkpt><trkpt lat="40.7604836" lon="19.5829141"><ele>9.0</ele><time>2026-04-26T11:33:01.272Z</time></trkpt><trkpt lat="40.7603575" lon="19.5826455"><ele>10.0</ele><time>2026-04-26T11:33:02.273Z</time></trkpt><trkpt lat="40.7602231" lon="19.5823802"><ele>11.0</ele><time>2026-04-26T11:33:03.274Z</time></trkpt><trkpt lat="40.7600755" lon="19.5821246"><ele>12.5</ele><time>2026-04-26T11:33:04.272Z</time></trkpt><trkpt lat="40.7599197" lon="19.5818698"><ele>14.0</ele><time>2026-04-26T11:33:05.27Z</time></trkpt><trkpt lat="40.7597567" lon="19.5816276"><ele>14.0</ele><time>2026-04-26T11:33:06.271Z</time></trkpt><trkpt lat="40.7595877" lon="19.5813867"><ele>14.0</ele><time>2026-04-26T11:33:07.272Z</time></trkpt><trkpt lat="40.759413" lon="19.5811451"><ele>17.0</ele><time>2026-04-26T11:33:08.273Z</time></trkpt><trkpt lat="40.7592379" lon="19.5809048"><ele>20.0</ele><time>2026-04-26T11:33:09.272Z</time></trkpt><trkpt lat="40.7590672" lon="19.5806619"><ele>20.0</ele><time>2026-04-26T11:33:10.269Z</time></trkpt><trkpt lat="40.7589128" lon="19.58041"><ele>20.0</ele><time>2026-04-26T11:33:11.273Z</time></trkpt><trkpt lat="40.7587639" lon="19.580149"><ele>23.5</ele><time>2026-04-26T11:33:12.274Z</time></trkpt><trkpt lat="40.758621" lon="19.5798807"><ele>27.0</ele><time>2026-04-26T11:33:13.272Z</time></trkpt><trkpt lat="40.7584833" lon="19.579609"><ele>30.5</ele><time>2026-04-26T11:33:14.27Z</time></trkpt><trkpt lat="40.7583527" lon="19.5793498"><ele>34.0</ele><time>2026-04-26T11:33:15.273Z</time></trkpt><trkpt lat="40.7582176" lon="19.5791047"><ele>34.0</ele><time>2026-04-26T11:33:16.27Z</time></trkpt><trkpt lat="40.7580719" lon="19.5788613"><ele>34.0</ele><time>2026-04-26T11:33:17.272Z</time></trkpt><trkpt lat="40.7579143" lon="19.5786196"><ele>34.0</ele><time>2026-04-26T11:33:18.27Z</time></trkpt><trkpt lat="40.7577464" lon="19.578381"><ele>34.0</ele><time>2026-04-26T11:33:19.273Z</time></trkpt><trkpt lat="40.7575667" lon="19.5781515"><ele>34.5</ele><time>2026-04-26T11:33:20.272Z</time></trkpt><trkpt lat="40.7573748" lon="19.5779237"><ele>35.0</ele><time>2026-04-26T11:33:21.27Z</time></trkpt><trkpt lat="40.7571809" lon="19.5776948"><ele>35.0</ele><time>2026-04-26T11:33:22.272Z</time></trkpt><trkpt lat="40.756982" lon="19.5774644"><ele>35.0</ele><time>2026-04-26T11:33:23.271Z</time></trkpt><trkpt lat="40.7567912" lon="19.577236"><ele>30.5</ele><time>2026-04-26T11:33:24.271Z</time></trkpt><trkpt lat="40.7565989" lon="19.5770034"><ele>26.0</ele><time>2026-04-26T11:33:25.271Z</time></trkpt><trkpt lat="40.7564052" lon="19.5767757"><ele>26.0</ele><time>2026-04-26T11:33:26.273Z</time></trkpt><trkpt lat="40.7562092" lon="19.5765473"><ele>26.0</ele><time>2026-04-26T11:33:27.272Z</time></trkpt><trkpt lat="40.7560114" lon="19.5763181"><ele>22.5</ele><time>2026-04-26T11:33:28.271Z</time></trkpt><trkpt lat="40.7558104" lon="19.5760902"><ele>19.0</ele><time>2026-04-26T11:33:29.272Z</time></trkpt><trkpt lat="40.7556084" lon="19.5758627"><ele>19.0</ele><time>2026-04-26T11:33:30.27Z</time></trkpt><trkpt lat="40.755411" lon="19.5756284"><ele>19.0</ele><time>2026-04-26T11:33:31.273Z</time></trkpt><trkpt lat="40.7552065" lon="19.5753953"><ele>15.5</ele><time>2026-04-26T11:33:32.273Z</time></trkpt><trkpt lat="40.7550005" lon="19.5751594"><ele>12.0</ele><time>2026-04-26T11:33:33.271Z</time></trkpt><trkpt lat="40.754788" lon="19.5749198"><ele>12.0</ele><time>2026-04-26T11:33:34.273Z</time></trkpt><trkpt lat="40.7545776" lon="19.5746805"><ele>12.0</ele><time>2026-04-26T11:33:35.272Z</time></trkpt><trkpt lat="40.7543655" lon="19.5744399"><ele>11.0</ele><time>2026-04-26T11:33:36.272Z</time></trkpt><trkpt lat="40.7541548" lon="19.5741967"><ele>10.0</ele><time>2026-04-26T11:33:37.272Z</time></trkpt><trkpt lat="40.7539438" lon="19.5739595"><ele>10.0</ele><time>2026-04-26T11:33:38.272Z</time></trkpt><trkpt lat="40.7537329" lon="19.5737187"><ele>10.0</ele><time>2026-04-26T11:33:39.271Z</time></trkpt><trkpt lat="40.7535233" lon="19.5734782"><ele>9.5</ele><time>2026-04-26T11:33:40.271Z</time></trkpt><trkpt lat="40.753318" lon="19.573247"><ele>9.0</ele><time>2026-04-26T11:33:41.273Z</time></trkpt><trkpt lat="40.7531136" lon="19.5730098"><ele>8.5</ele><time>2026-04-26T11:33:42.273Z</time></trkpt><trkpt lat="40.7529088" lon="19.5727769"><ele>8.0</ele><time>2026-04-26T11:33:43.272Z</time></trkpt><trkpt lat="40.7527072" lon="19.57254"><ele>9.0</ele><time>2026-04-26T11:33:44.273Z</time></trkpt><trkpt lat="40.7525075" lon="19.5723021"><ele>10.0</ele><time>2026-04-26T11:33:45.273Z</time></trkpt><trkpt lat="40.7523065" lon="19.5720552"><ele>9.0</ele><time>2026-04-26T11:33:46.271Z</time></trkpt><trkpt lat="40.7521124" lon="19.5718085"><ele>8.0</ele><time>2026-04-26T11:33:47.272Z</time></trkpt><trkpt lat="40.7519152" lon="19.5715588"><ele>8.0</ele><time>2026-04-26T11:33:48.272Z</time></trkpt><trkpt lat="40.751725" lon="19.5713005"><ele>8.0</ele><time>2026-04-26T11:33:49.271Z</time></trkpt><trkpt lat="40.7515387" lon="19.5710362"><ele>8.5</ele><time>2026-04-26T11:33:50.272Z</time></trkpt><trkpt lat="40.7513573" lon="19.5707602"><ele>9.0</ele><time>2026-04-26T11:33:51.272Z</time></trkpt><trkpt lat="40.751179" lon="19.5704833"><ele>9.0</ele><time>2026-04-26T11:33:52.273Z</time></trkpt><trkpt lat="40.7510008" lon="19.5702036"><ele>9.0</ele><time>2026-04-26T11:33:53.273Z</time></trkpt><trkpt lat="40.7508275" lon="19.5699185"><ele>9.0</ele><time>2026-04-26T11:33:54.273Z</time></trkpt><trkpt lat="40.7506638" lon="19.5696316"><ele>9.0</ele><time>2026-04-26T11:33:55.273Z</time></trkpt><trkpt lat="40.7505018" lon="19.5693402"><ele>9.0</ele><time>2026-04-26T11:33:56.273Z</time></trkpt><trkpt lat="40.7503461" lon="19.5690476"><ele>9.0</ele><time>2026-04-26T11:33:57.271Z</time></trkpt><trkpt lat="40.7501921" lon="19.568753"><ele>9.0</ele><time>2026-04-26T11:33:58.271Z</time></trkpt><trkpt lat="40.7500547" lon="19.5684573"><ele>9.0</ele><time>2026-04-26T11:33:59.278Z</time></trkpt><trkpt lat="40.7499191" lon="19.568158"><ele>8.5</ele><time>2026-04-26T11:34:00.272Z</time></trkpt><trkpt lat="40.7497888" lon="19.567853"><ele>8.0</ele><time>2026-04-26T11:34:01.272Z</time></trkpt><trkpt lat="40.749663" lon="19.5675461"><ele>8.0</ele><time>2026-04-26T11:34:02.273Z</time></trkpt><trkpt lat="40.749541" lon="19.5672375"><ele>8.0</ele><time>2026-04-26T11:34:03.273Z</time></trkpt><trkpt lat="40.749419" lon="19.5669253"><ele>8.0</ele><time>2026-04-26T11:34:04.271Z</time></trkpt><trkpt lat="40.7493047" lon="19.5666074"><ele>8.0</ele><time>2026-04-26T11:34:05.272Z</time></trkpt><trkpt lat="40.7491965" lon="19.5662861"><ele>8.0</ele><time>2026-04-26T11:34:06.272Z</time></trkpt><trkpt lat="40.7490914" lon="19.5659673"><ele>8.0</ele><time>2026-04-26T11:34:07.273Z</time></trkpt><trkpt lat="40.7489899" lon="19.5656406"><ele>8.5</ele><time>2026-04-26T11:34:08.273Z</time></trkpt><trkpt lat="40.7488951" lon="19.5653093"><ele>9.0</ele><time>2026-04-26T11:34:09.272Z</time></trkpt><trkpt lat="40.7488027" lon="19.5649749"><ele>9.0</ele><time>2026-04-26T11:34:10.272Z</time></trkpt><trkpt lat="40.7487171" lon="19.5646386"><ele>9.0</ele><time>2026-04-26T11:34:11.271Z</time></trkpt><trkpt lat="40.7486368" lon="19.5643011"><ele>9.0</ele><time>2026-04-26T11:34:12.272Z</time></trkpt><trkpt lat="40.7485581" lon="19.563962"><ele>9.0</ele><time>2026-04-26T11:34:13.272Z</time></trkpt><trkpt lat="40.7484922" lon="19.5636115"><ele>8.5</ele><time>2026-04-26T11:34:14.271Z</time></trkpt><trkpt lat="40.7484268" lon="19.5632596"><ele>8.0</ele><time>2026-04-26T11:34:15.272Z</time></trkpt><trkpt lat="40.7483619" lon="19.5629121"><ele>8.5</ele><time>2026-04-26T11:34:16.272Z</time></trkpt><trkpt lat="40.748306" lon="19.5625576"><ele>9.0</ele><time>2026-04-26T11:34:17.274Z</time></trkpt><trkpt lat="40.7482606" lon="19.5622052"><ele>8.5</ele><time>2026-04-26T11:34:18.272Z</time></trkpt><trkpt lat="40.7482168" lon="19.5618535"><ele>8.0</ele><time>2026-04-26T11:34:19.274Z</time></trkpt><trkpt lat="40.7481802" lon="19.561499"><ele>8.0</ele><time>2026-04-26T11:34:20.273Z</time></trkpt><trkpt lat="40.7481496" lon="19.5611453"><ele>8.0</ele><time>2026-04-26T11:34:21.273Z</time></trkpt><trkpt lat="40.748123" lon="19.5607892"><ele>8.0</ele><time>2026-04-26T11:34:22.271Z</time></trkpt><trkpt lat="40.748097" lon="19.5604277"><ele>8.0</ele><time>2026-04-26T11:34:23.271Z</time></trkpt><trkpt lat="40.7480809" lon="19.560072"><ele>8.0</ele><time>2026-04-26T11:34:24.271Z</time></trkpt><trkpt lat="40.74807" lon="19.5597179"><ele>8.0</ele><time>2026-04-26T11:34:25.271Z</time></trkpt><trkpt lat="40.7480638" lon="19.5593623"><ele>8.0</ele><time>2026-04-26T11:34:26.271Z</time></trkpt><trkpt lat="40.7480628" lon="19.5590127"><ele>8.0</ele><time>2026-04-26T11:34:27.275Z</time></trkpt><trkpt lat="40.7480671" lon="19.5586594"><ele>8.0</ele><time>2026-04-26T11:34:28.271Z</time></trkpt><trkpt lat="40.7480727" lon="19.5583077"><ele>8.0</ele><time>2026-04-26T11:34:29.271Z</time></trkpt><trkpt lat="40.7480785" lon="19.5579574"><ele>7.5</ele><time>2026-04-26T11:34:30.272Z</time></trkpt><trkpt lat="40.7480821" lon="19.5576073"><ele>7.0</ele><time>2026-04-26T11:34:31.271Z</time></trkpt><trkpt lat="40.7480954" lon="19.5572622"><ele>7.0</ele><time>2026-04-26T11:34:32.272Z</time></trkpt><trkpt lat="40.7481074" lon="19.5569085"><ele>7.0</ele><time>2026-04-26T11:34:33.271Z</time></trkpt><trkpt lat="40.7481104" lon="19.5565562"><ele>7.0</ele><time>2026-04-26T11:34:34.27Z</time></trkpt><trkpt lat="40.7481171" lon="19.5562092"><ele>7.0</ele><time>2026-04-26T11:34:35.272Z</time></trkpt><trkpt lat="40.7481211" lon="19.5558598"><ele>7.5</ele><time>2026-04-26T11:34:36.271Z</time></trkpt><trkpt lat="40.7481251" lon="19.5555107"><ele>8.0</ele><time>2026-04-26T11:34:37.274Z</time></trkpt><trkpt lat="40.7481333" lon="19.5551584"><ele>8.0</ele><time>2026-04-26T11:34:38.273Z</time></trkpt><trkpt lat="40.7481406" lon="19.5548033"><ele>8.0</ele><time>2026-04-26T11:34:39.273Z</time></trkpt><trkpt lat="40.7481494" lon="19.5544492"><ele>8.0</ele><time>2026-04-26T11:34:40.271Z</time></trkpt><trkpt lat="40.7481571" lon="19.5540896"><ele>8.0</ele><time>2026-04-26T11:34:41.271Z</time></trkpt><trkpt lat="40.7481586" lon="19.553728"><ele>7.5</ele><time>2026-04-26T11:34:42.272Z</time></trkpt><trkpt lat="40.7481598" lon="19.5533688"><ele>7.0</ele><time>2026-04-26T11:34:43.272Z</time></trkpt><trkpt lat="40.7481797" lon="19.5530154"><ele>8.0</ele><time>2026-04-26T11:34:44.272Z</time></trkpt><trkpt lat="40.748187" lon="19.5526477"><ele>9.0</ele><time>2026-04-26T11:34:45.272Z</time></trkpt><trkpt lat="40.7481945" lon="19.5522778"><ele>8.0</ele><time>2026-04-26T11:34:46.271Z</time></trkpt><trkpt lat="40.748203" lon="19.5519058"><ele>7.0</ele><time>2026-04-26T11:34:47.271Z</time></trkpt><trkpt lat="40.7482117" lon="19.5515302"><ele>7.5</ele><time>2026-04-26T11:34:48.271Z</time></trkpt><trkpt lat="40.7482185" lon="19.5511511"><ele>8.0</ele><time>2026-04-26T11:34:49.273Z</time></trkpt><trkpt lat="40.7482238" lon="19.5507666"><ele>8.0</ele><time>2026-04-26T11:34:50.271Z</time></trkpt><trkpt lat="40.7482313" lon="19.5503822"><ele>8.0</ele><time>2026-04-26T11:34:51.273Z</time></trkpt><trkpt lat="40.7482396" lon="19.5499948"><ele>8.0</ele><time>2026-04-26T11:34:52.27Z</time></trkpt><trkpt lat="40.7482467" lon="19.5496024"><ele>8.0</ele><time>2026-04-26T11:34:53.272Z</time></trkpt><trkpt lat="40.7482554" lon="19.5492112"><ele>8.0</ele><time>2026-04-26T11:34:54.274Z</time></trkpt><trkpt lat="40.7482621" lon="19.5488157"><ele>8.0</ele><time>2026-04-26T11:34:55.268Z</time></trkpt><trkpt lat="40.748271" lon="19.5484214"><ele>8.0</ele><time>2026-04-26T11:34:56.272Z</time></trkpt><trkpt lat="40.7482793" lon="19.548024"><ele>8.0</ele><time>2026-04-26T11:34:57.272Z</time></trkpt><trkpt lat="40.7482986" lon="19.5476158"><ele>8.5</ele><time>2026-04-26T11:34:58.272Z</time></trkpt><trkpt lat="40.7483078" lon="19.5472174"><ele>9.0</ele><time>2026-04-26T11:34:59.273Z</time></trkpt><trkpt lat="40.7483168" lon="19.5468186"><ele>9.0</ele><time>2026-04-26T11:35:00.272Z</time></trkpt><trkpt lat="40.7483211" lon="19.5464189"><ele>9.0</ele><time>2026-04-26T11:35:01.272Z</time></trkpt><trkpt lat="40.7483304" lon="19.546019"><ele>8.5</ele><time>2026-04-26T11:35:02.273Z</time></trkpt><trkpt lat="40.7483398" lon="19.5456203"><ele>8.0</ele><time>2026-04-26T11:35:03.272Z</time></trkpt><trkpt lat="40.7483506" lon="19.5452223"><ele>8.0</ele><time>2026-04-26T11:35:04.273Z</time></trkpt><trkpt lat="40.7483596" lon="19.5448247"><ele>8.0</ele><time>2026-04-26T11:35:05.273Z</time></trkpt><trkpt lat="40.7483669" lon="19.5444272"><ele>8.0</ele><time>2026-04-26T11:35:06.271Z</time></trkpt><trkpt lat="40.7483765" lon="19.5440411"><ele>8.0</ele><time>2026-04-26T11:35:07.274Z</time></trkpt><trkpt lat="40.7483848" lon="19.543655"><ele>8.0</ele><time>2026-04-26T11:35:08.271Z</time></trkpt><trkpt lat="40.7483924" lon="19.5432668"><ele>8.0</ele><time>2026-04-26T11:35:09.271Z</time></trkpt><trkpt lat="40.7484028" lon="19.5428765"><ele>8.0</ele><time>2026-04-26T11:35:10.272Z</time></trkpt><trkpt lat="40.7484209" lon="19.5424939"><ele>8.0</ele><time>2026-04-26T11:35:11.27Z</time></trkpt><trkpt lat="40.7484296" lon="19.5421023"><ele>8.5</ele><time>2026-04-26T11:35:12.272Z</time></trkpt><trkpt lat="40.7484405" lon="19.5417154"><ele>9.0</ele><time>2026-04-26T11:35:13.269Z</time></trkpt><trkpt lat="40.7484535" lon="19.5413284"><ele>9.0</ele><time>2026-04-26T11:35:14.273Z</time></trkpt><trkpt lat="40.7484687" lon="19.5409403"><ele>9.0</ele><time>2026-04-26T11:35:15.272Z</time></trkpt><trkpt lat="40.7484833" lon="19.5405522"><ele>8.5</ele><time>2026-04-26T11:35:16.273Z</time></trkpt><trkpt lat="40.7485037" lon="19.5401689"><ele>8.0</ele><time>2026-04-26T11:35:17.272Z</time></trkpt><trkpt lat="40.7485214" lon="19.539785"><ele>7.5</ele><time>2026-04-26T11:35:18.275Z</time></trkpt><trkpt lat="40.7485385" lon="19.5394017"><ele>7.0</ele><time>2026-04-26T11:35:19.275Z</time></trkpt><trkpt lat="40.7485626" lon="19.5390217"><ele>8.5</ele><time>2026-04-26T11:35:20.271Z</time></trkpt><trkpt lat="40.7485844" lon="19.5386431"><ele>10.0</ele><time>2026-04-26T11:35:21.271Z</time></trkpt><trkpt lat="40.7486099" lon="19.5382672"><ele>10.0</ele><time>2026-04-26T11:35:22.272Z</time></trkpt><trkpt lat="40.7486335" lon="19.5378926"><ele>10.0</ele><time>2026-04-26T11:35:23.271Z</time></trkpt><trkpt lat="40.7486552" lon="19.5375154"><ele>9.5</ele><time>2026-04-26T11:35:24.272Z</time></trkpt><trkpt lat="40.7486803" lon="19.5371442"><ele>9.0</ele><time>2026-04-26T11:35:25.27Z</time></trkpt><trkpt lat="40.7487065" lon="19.5367747"><ele>9.0</ele><time>2026-04-26T11:35:26.272Z</time></trkpt><trkpt lat="40.7487338" lon="19.536408"><ele>9.0</ele><time>2026-04-26T11:35:27.273Z</time></trkpt><trkpt lat="40.7487627" lon="19.5360433"><ele>8.5</ele><time>2026-04-26T11:35:28.272Z</time></trkpt><trkpt lat="40.7487897" lon="19.5356789"><ele>8.0</ele><time>2026-04-26T11:35:29.274Z</time></trkpt><trkpt lat="40.7488198" lon="19.5353159"><ele>8.0</ele><time>2026-04-26T11:35:30.271Z</time></trkpt><trkpt lat="40.748851" lon="19.5349519"><ele>8.0</ele><time>2026-04-26T11:35:31.271Z</time></trkpt><trkpt lat="40.7488848" lon="19.5345863"><ele>7.0</ele><time>2026-04-26T11:35:32.273Z</time></trkpt><trkpt lat="40.7489182" lon="19.534222"><ele>6.0</ele><time>2026-04-26T11:35:33.273Z</time></trkpt><trkpt lat="40.7489524" lon="19.5338523"><ele>5.5</ele><time>2026-04-26T11:35:34.27Z</time></trkpt><trkpt lat="40.7489863" lon="19.5334803"><ele>5.0</ele><time>2026-04-26T11:35:35.273Z</time></trkpt><trkpt lat="40.7490205" lon="19.5331079"><ele>5.0</ele><time>2026-04-26T11:35:36.27Z</time></trkpt><trkpt lat="40.7490555" lon="19.5327359"><ele>5.0</ele><time>2026-04-26T11:35:37.273Z</time></trkpt><trkpt lat="40.7490936" lon="19.5323649"><ele>5.5</ele><time>2026-04-26T11:35:38.272Z</time></trkpt><trkpt lat="40.7491256" lon="19.5319906"><ele>6.0</ele><time>2026-04-26T11:35:39.272Z</time></trkpt><trkpt lat="40.7491605" lon="19.5316149"><ele>6.0</ele><time>2026-04-26T11:35:40.27Z</time></trkpt><trkpt lat="40.7491942" lon="19.5312372"><ele>6.0</ele><time>2026-04-26T11:35:41.271Z</time></trkpt><trkpt lat="40.7492274" lon="19.530856"><ele>6.5</ele><time>2026-04-26T11:35:42.274Z</time></trkpt><trkpt lat="40.7492607" lon="19.5304677"><ele>7.0</ele><time>2026-04-26T11:35:43.272Z</time></trkpt><trkpt lat="40.7492942" lon="19.5300748"><ele>7.0</ele><time>2026-04-26T11:35:44.275Z</time></trkpt><trkpt lat="40.7493329" lon="19.5296812"><ele>7.0</ele><time>2026-04-26T11:35:45.271Z</time></trkpt><trkpt lat="40.7493685" lon="19.5292869"><ele>5.5</ele><time>2026-04-26T11:35:46.273Z</time></trkpt><trkpt lat="40.7494054" lon="19.5288887"><ele>4.0</ele><time>2026-04-26T11:35:47.272Z</time></trkpt><trkpt lat="40.7494428" lon="19.5284854"><ele>4.0</ele><time>2026-04-26T11:35:48.271Z</time></trkpt><trkpt lat="40.7494808" lon="19.5280769"><ele>4.0</ele><time>2026-04-26T11:35:49.275Z</time></trkpt><trkpt lat="40.749525" lon="19.5276734"><ele>4.0</ele><time>2026-04-26T11:35:50.27Z</time></trkpt><trkpt lat="40.7495678" lon="19.5272729"><ele>4.0</ele><time>2026-04-26T11:35:51.273Z</time></trkpt><trkpt lat="40.7496056" lon="19.5268733"><ele>4.0</ele><time>2026-04-26T11:35:52.271Z</time></trkpt><trkpt lat="40.7496401" lon="19.5264645"><ele>4.0</ele><time>2026-04-26T11:35:53.272Z</time></trkpt><trkpt lat="40.7496769" lon="19.5260621"><ele>4.0</ele><time>2026-04-26T11:35:54.27Z</time></trkpt><trkpt lat="40.7497148" lon="19.5256573"><ele>4.0</ele><time>2026-04-26T11:35:55.272Z</time></trkpt><trkpt lat="40.7497524" lon="19.525255"><ele>4.0</ele><time>2026-04-26T11:35:56.272Z</time></trkpt><trkpt lat="40.74979" lon="19.5248537"><ele>4.0</ele><time>2026-04-26T11:35:57.273Z</time></trkpt><trkpt lat="40.749826" lon="19.5244578"><ele>4.0</ele><time>2026-04-26T11:35:58.271Z</time></trkpt><trkpt lat="40.7498631" lon="19.5240573"><ele>4.0</ele><time>2026-04-26T11:35:59.276Z</time></trkpt><trkpt lat="40.7498972" lon="19.5236681"><ele>4.0</ele><time>2026-04-26T11:36:00.272Z</time></trkpt><trkpt lat="40.7499329" lon="19.5232779"><ele>4.0</ele><time>2026-04-26T11:36:01.275Z</time></trkpt><trkpt lat="40.7499671" lon="19.5228837"><ele>4.0</ele><time>2026-04-26T11:36:02.273Z</time></trkpt><trkpt lat="40.7500015" lon="19.5225003"><ele>4.0</ele><time>2026-04-26T11:36:03.272Z</time></trkpt><trkpt lat="40.75004" lon="19.5221291"><ele>4.0</ele><time>2026-04-26T11:36:04.27Z</time></trkpt><trkpt lat="40.7500787" lon="19.5217659"><ele>4.0</ele><time>2026-04-26T11:36:05.27Z</time></trkpt><trkpt lat="40.7501164" lon="19.5214077"><ele>3.5</ele><time>2026-04-26T11:36:06.274Z</time></trkpt><trkpt lat="40.7501521" lon="19.5210502"><ele>3.0</ele><time>2026-04-26T11:36:07.271Z</time></trkpt><trkpt lat="40.7501874" lon="19.5206927"><ele>3.0</ele><time>2026-04-26T11:36:08.273Z</time></trkpt><trkpt lat="40.7502228" lon="19.5203352"><ele>3.0</ele><time>2026-04-26T11:36:09.27Z</time></trkpt><trkpt lat="40.7502591" lon="19.5199786"><ele>3.0</ele><time>2026-04-26T11:36:10.271Z</time></trkpt><trkpt lat="40.7502944" lon="19.5196224"><ele>3.0</ele><time>2026-04-26T11:36:11.274Z</time></trkpt><trkpt lat="40.7503282" lon="19.5192642"><ele>3.0</ele><time>2026-04-26T11:36:12.273Z</time></trkpt><trkpt lat="40.750363" lon="19.5188995"><ele>3.0</ele><time>2026-04-26T11:36:13.271Z</time></trkpt><trkpt lat="40.7503906" lon="19.5185403"><ele>3.5</ele><time>2026-04-26T11:36:14.271Z</time></trkpt><trkpt lat="40.7504111" lon="19.5181787"><ele>4.0</ele><time>2026-04-26T11:36:15.275Z</time></trkpt><trkpt lat="40.7504221" lon="19.5178118"><ele>4.0</ele><time>2026-04-26T11:36:16.272Z</time></trkpt><trkpt lat="40.7504258" lon="19.5174454"><ele>4.0</ele><time>2026-04-26T11:36:17.272Z</time></trkpt><trkpt lat="40.7504186" lon="19.5170747"><ele>4.0</ele><time>2026-04-26T11:36:18.273Z</time></trkpt><trkpt lat="40.7504055" lon="19.5167078"><ele>4.0</ele><time>2026-04-26T11:36:19.273Z</time></trkpt><trkpt lat="40.7503838" lon="19.5163362"><ele>4.0</ele><time>2026-04-26T11:36:20.272Z</time></trkpt><trkpt lat="40.750354" lon="19.5159686"><ele>4.0</ele><time>2026-04-26T11:36:21.272Z</time></trkpt><trkpt lat="40.7503149" lon="19.5155998"><ele>4.0</ele><time>2026-04-26T11:36:22.272Z</time></trkpt><trkpt lat="40.7502683" lon="19.5152279"><ele>4.0</ele><time>2026-04-26T11:36:23.268Z</time></trkpt><trkpt lat="40.7502128" lon="19.5148654"><ele>4.0</ele><time>2026-04-26T11:36:24.272Z</time></trkpt><trkpt lat="40.7501533" lon="19.5145016"><ele>4.0</ele><time>2026-04-26T11:36:25.273Z</time></trkpt><trkpt lat="40.7500801" lon="19.5141481"><ele>4.0</ele><time>2026-04-26T11:36:26.272Z</time></trkpt><trkpt lat="40.7500012" lon="19.5137955"><ele>4.0</ele><time>2026-04-26T11:36:27.272Z</time></trkpt><trkpt lat="40.7499151" lon="19.5134467"><ele>4.0</ele><time>2026-04-26T11:36:28.271Z</time></trkpt><trkpt lat="40.74982" lon="19.5131001"><ele>4.0</ele><time>2026-04-26T11:36:29.273Z</time></trkpt><trkpt lat="40.7497146" lon="19.5127635"><ele>4.5</ele><time>2026-04-26T11:36:30.272Z</time></trkpt><trkpt lat="40.7496038" lon="19.5124318"><ele>5.0</ele><time>2026-04-26T11:36:31.273Z</time></trkpt><trkpt lat="40.7494846" lon="19.5121073"><ele>4.5</ele><time>2026-04-26T11:36:32.272Z</time></trkpt><trkpt lat="40.7493576" lon="19.5117878"><ele>4.0</ele><time>2026-04-26T11:36:33.271Z</time></trkpt><trkpt lat="40.7492264" lon="19.5114728"><ele>4.0</ele><time>2026-04-26T11:36:34.277Z</time></trkpt><trkpt lat="40.7490866" lon="19.5111605"><ele>4.0</ele><time>2026-04-26T11:36:35.272Z</time></trkpt><trkpt lat="40.7489428" lon="19.5108596"><ele>4.0</ele><time>2026-04-26T11:36:36.272Z</time></trkpt><trkpt lat="40.7487929" lon="19.510566"><ele>4.0</ele><time>2026-04-26T11:36:37.273Z</time></trkpt><trkpt lat="40.7486357" lon="19.5102786"><ele>3.0</ele><time>2026-04-26T11:36:38.272Z</time></trkpt><trkpt lat="40.7484728" lon="19.5099955"><ele>2.0</ele><time>2026-04-26T11:36:39.27Z</time></trkpt><trkpt lat="40.7483018" lon="19.5097175"><ele>2.0</ele><time>2026-04-26T11:36:40.274Z</time></trkpt><trkpt lat="40.7481288" lon="19.5094421"><ele>2.0</ele><time>2026-04-26T11:36:41.272Z</time></trkpt><trkpt lat="40.7479523" lon="19.5091659"><ele>2.0</ele><time>2026-04-26T11:36:42.273Z</time></trkpt><trkpt lat="40.7477784" lon="19.5088904"><ele>2.0</ele><time>2026-04-26T11:36:43.272Z</time></trkpt><trkpt lat="40.7476049" lon="19.5086142"><ele>2.0</ele><time>2026-04-26T11:36:44.272Z</time></trkpt><trkpt lat="40.7474244" lon="19.5083508"><ele>2.0</ele><time>2026-04-26T11:36:45.271Z</time></trkpt><trkpt lat="40.7472483" lon="19.5080758"><ele>3.0</ele><time>2026-04-26T11:36:46.272Z</time></trkpt><trkpt lat="40.7470735" lon="19.5077963"><ele>4.0</ele><time>2026-04-26T11:36:47.27Z</time></trkpt><trkpt lat="40.7469006" lon="19.5075228"><ele>3.5</ele><time>2026-04-26T11:36:48.272Z</time></trkpt><trkpt lat="40.7467276" lon="19.5072484"><ele>3.0</ele><time>2026-04-26T11:36:49.274Z</time></trkpt><trkpt lat="40.7465555" lon="19.506976"><ele>4.0</ele><time>2026-04-26T11:36:50.273Z</time></trkpt><trkpt lat="40.7463851" lon="19.5067046"><ele>5.0</ele><time>2026-04-26T11:36:51.273Z</time></trkpt><trkpt lat="40.7462121" lon="19.5064317"><ele>4.5</ele><time>2026-04-26T11:36:52.271Z</time></trkpt><trkpt lat="40.7460417" lon="19.5061624"><ele>4.0</ele><time>2026-04-26T11:36:53.272Z</time></trkpt><trkpt lat="40.7458709" lon="19.5058918"><ele>4.0</ele><time>2026-04-26T11:36:54.273Z</time></trkpt><trkpt lat="40.7457002" lon="19.5056222"><ele>4.0</ele><time>2026-04-26T11:36:55.274Z</time></trkpt><trkpt lat="40.74553" lon="19.5053547"><ele>4.0</ele><time>2026-04-26T11:36:56.271Z</time></trkpt><trkpt lat="40.7453615" lon="19.5050868"><ele>4.0</ele><time>2026-04-26T11:36:57.271Z</time></trkpt><trkpt lat="40.7451936" lon="19.5048159"><ele>4.0</ele><time>2026-04-26T11:36:58.272Z</time></trkpt><trkpt lat="40.7450262" lon="19.5045432"><ele>4.0</ele><time>2026-04-26T11:36:59.271Z</time></trkpt><trkpt lat="40.7448587" lon="19.5042771"><ele>4.0</ele><time>2026-04-26T11:37:00.273Z</time></trkpt><trkpt lat="40.7446872" lon="19.5040081"><ele>4.0</ele><time>2026-04-26T11:37:01.272Z</time></trkpt><trkpt lat="40.7445183" lon="19.5037424"><ele>4.5</ele><time>2026-04-26T11:37:02.27Z</time></trkpt><trkpt lat="40.7443539" lon="19.5034777"><ele>5.0</ele><time>2026-04-26T11:37:03.273Z</time></trkpt><trkpt lat="40.744185" lon="19.503208"><ele>5.0</ele><time>2026-04-26T11:37:04.272Z</time></trkpt><trkpt lat="40.7440161" lon="19.502941"><ele>5.0</ele><time>2026-04-26T11:37:05.271Z</time></trkpt><trkpt lat="40.7438496" lon="19.5026737"><ele>4.5</ele><time>2026-04-26T11:37:06.272Z</time></trkpt><trkpt lat="40.7436807" lon="19.5024049"><ele>4.0</ele><time>2026-04-26T11:37:07.274Z</time></trkpt><trkpt lat="40.7435103" lon="19.502137"><ele>5.0</ele><time>2026-04-26T11:37:08.27Z</time></trkpt><trkpt lat="40.7433375" lon="19.5018719"><ele>6.0</ele><time>2026-04-26T11:37:09.271Z</time></trkpt><trkpt lat="40.7431717" lon="19.5016054"><ele>6.0</ele><time>2026-04-26T11:37:10.272Z</time></trkpt><trkpt lat="40.743006" lon="19.5013426"><ele>6.0</ele><time>2026-04-26T11:37:11.273Z</time></trkpt><trkpt lat="40.7428424" lon="19.5010727"><ele>5.5</ele><time>2026-04-26T11:37:12.27Z</time></trkpt><trkpt lat="40.7426758" lon="19.5008059"><ele>5.0</ele><time>2026-04-26T11:37:13.272Z</time></trkpt><trkpt lat="40.7425095" lon="19.5005378"><ele>5.5</ele><time>2026-04-26T11:37:14.272Z</time></trkpt><trkpt lat="40.7423462" lon="19.500267"><ele>6.0</ele><time>2026-04-26T11:37:15.271Z</time></trkpt><trkpt lat="40.7421866" lon="19.4999932"><ele>6.0</ele><time>2026-04-26T11:37:16.271Z</time></trkpt><trkpt lat="40.7420353" lon="19.499719"><ele>6.0</ele><time>2026-04-26T11:37:17.273Z</time></trkpt><trkpt lat="40.7418834" lon="19.4994399"><ele>6.0</ele><time>2026-04-26T11:37:18.271Z</time></trkpt><trkpt lat="40.7417383" lon="19.4991522"><ele>6.0</ele><time>2026-04-26T11:37:19.273Z</time></trkpt><trkpt lat="40.7415974" lon="19.498858"><ele>5.5</ele><time>2026-04-26T11:37:20.273Z</time></trkpt><trkpt lat="40.7414602" lon="19.4985612"><ele>5.0</ele><time>2026-04-26T11:37:21.272Z</time></trkpt><trkpt lat="40.7413249" lon="19.4982567"><ele>5.0</ele><time>2026-04-26T11:37:22.27Z</time></trkpt><trkpt lat="40.7411968" lon="19.4979567"><ele>5.0</ele><time>2026-04-26T11:37:23.272Z</time></trkpt><trkpt lat="40.7410765" lon="19.4976547"><ele>5.0</ele><time>2026-04-26T11:37:24.274Z</time></trkpt><trkpt lat="40.7409629" lon="19.4973511"><ele>5.0</ele><time>2026-04-26T11:37:25.271Z</time></trkpt><trkpt lat="40.740857" lon="19.4970498"><ele>5.0</ele><time>2026-04-26T11:37:26.271Z</time></trkpt><trkpt lat="40.740757" lon="19.4967471"><ele>5.0</ele><time>2026-04-26T11:37:27.271Z</time></trkpt><trkpt lat="40.7406605" lon="19.4964444"><ele>4.5</ele><time>2026-04-26T11:37:28.273Z</time></trkpt><trkpt lat="40.7405695" lon="19.4961397"><ele>4.0</ele><time>2026-04-26T11:37:29.272Z</time></trkpt><trkpt lat="40.7404864" lon="19.495832"><ele>4.0</ele><time>2026-04-26T11:37:30.271Z</time></trkpt><trkpt lat="40.7404095" lon="19.495525"><ele>4.0</ele><time>2026-04-26T11:37:31.271Z</time></trkpt><trkpt lat="40.7403363" lon="19.4952104"><ele>4.0</ele><time>2026-04-26T11:37:32.272Z</time></trkpt><trkpt lat="40.7402644" lon="19.4948901"><ele>4.0</ele><time>2026-04-26T11:37:33.273Z</time></trkpt><trkpt lat="40.7401989" lon="19.4945746"><ele>4.0</ele><time>2026-04-26T11:37:34.273Z</time></trkpt><trkpt lat="40.7401414" lon="19.4942585"><ele>4.0</ele><time>2026-04-26T11:37:35.271Z</time></trkpt><trkpt lat="40.7400919" lon="19.493945"><ele>4.5</ele><time>2026-04-26T11:37:36.271Z</time></trkpt><trkpt lat="40.7400434" lon="19.4936327"><ele>5.0</ele><time>2026-04-26T11:37:37.272Z</time></trkpt><trkpt lat="40.7400031" lon="19.4933222"><ele>5.0</ele><time>2026-04-26T11:37:38.274Z</time></trkpt><trkpt lat="40.7399664" lon="19.4930147"><ele>5.0</ele><time>2026-04-26T11:37:39.271Z</time></trkpt><trkpt lat="40.7399325" lon="19.4927043"><ele>5.0</ele><time>2026-04-26T11:37:40.271Z</time></trkpt><trkpt lat="40.7399057" lon="19.4923918"><ele>5.0</ele><time>2026-04-26T11:37:41.271Z</time></trkpt><trkpt lat="40.7398774" lon="19.4920742"><ele>5.0</ele><time>2026-04-26T11:37:42.271Z</time></trkpt><trkpt lat="40.739862" lon="19.4917621"><ele>5.0</ele><time>2026-04-26T11:37:43.271Z</time></trkpt><trkpt lat="40.7398482" lon="19.4914609"><ele>5.0</ele><time>2026-04-26T11:37:44.273Z</time></trkpt><trkpt lat="40.7398422" lon="19.4911662"><ele>5.0</ele><time>2026-04-26T11:37:45.273Z</time></trkpt><trkpt lat="40.7398382" lon="19.4908737"><ele>5.0</ele><time>2026-04-26T11:37:46.271Z</time></trkpt><trkpt lat="40.7398403" lon="19.4905856"><ele>5.0</ele><time>2026-04-26T11:37:47.272Z</time></trkpt><trkpt lat="40.7398465" lon="19.4903022"><ele>5.0</ele><time>2026-04-26T11:37:48.271Z</time></trkpt><trkpt lat="40.7398596" lon="19.4900256"><ele>5.0</ele><time>2026-04-26T11:37:49.269Z</time></trkpt><trkpt lat="40.7398714" lon="19.4897482"><ele>5.666666666666667</ele><time>2026-04-26T11:37:50.271Z</time></trkpt><trkpt lat="40.7398847" lon="19.4894679"><ele>6.333333333333334</ele><time>2026-04-26T11:37:51.273Z</time></trkpt><trkpt lat="40.7399046" lon="19.4891861"><ele>7.0</ele><time>2026-04-26T11:37:52.271Z</time></trkpt><trkpt lat="40.7399294" lon="19.4889049"><ele>7.0</ele><time>2026-04-26T11:37:53.273Z</time></trkpt><trkpt lat="40.7399609" lon="19.4886206"><ele>7.0</ele><time>2026-04-26T11:37:54.271Z</time></trkpt><trkpt lat="40.739995" lon="19.4883315"><ele>7.0</ele><time>2026-04-26T11:37:55.272Z</time></trkpt><trkpt lat="40.7400308" lon="19.4880273"><ele>6.0</ele><time>2026-04-26T11:37:56.271Z</time></trkpt><trkpt lat="40.7400639" lon="19.4877304"><ele>5.0</ele><time>2026-04-26T11:37:57.27Z</time></trkpt><trkpt lat="40.7400971" lon="19.4874351"><ele>5.0</ele><time>2026-04-26T11:37:58.271Z</time></trkpt><trkpt lat="40.7401406" lon="19.4870814"><ele>5.0</ele><time>2026-04-26T11:37:59.272Z</time></trkpt><trkpt lat="40.7401834" lon="19.4867473"><ele>4.5</ele><time>2026-04-26T11:38:00.272Z</time></trkpt><trkpt lat="40.740228" lon="19.4863994"><ele>4.0</ele><time>2026-04-26T11:38:01.273Z</time></trkpt><trkpt lat="40.7402742" lon="19.48606"><ele>4.0</ele><time>2026-04-26T11:38:02.274Z</time></trkpt><trkpt lat="40.740323" lon="19.4857162"><ele>4.0</ele><time>2026-04-26T11:38:03.271Z</time></trkpt><trkpt lat="40.7403743" lon="19.4853756"><ele>3.5</ele><time>2026-04-26T11:38:04.271Z</time></trkpt><trkpt lat="40.7404261" lon="19.4850306"><ele>3.0</ele><time>2026-04-26T11:38:05.27Z</time></trkpt><trkpt lat="40.7404749" lon="19.4846842"><ele>3.0</ele><time>2026-04-26T11:38:06.271Z</time></trkpt><trkpt lat="40.7405275" lon="19.4843302"><ele>3.0</ele><time>2026-04-26T11:38:07.271Z</time></trkpt><trkpt lat="40.7405806" lon="19.4839738"><ele>3.5</ele><time>2026-04-26T11:38:08.271Z</time></trkpt><trkpt lat="40.7406313" lon="19.4836204"><ele>4.0</ele><time>2026-04-26T11:38:09.273Z</time></trkpt><trkpt lat="40.7406829" lon="19.4832596"><ele>3.5</ele><time>2026-04-26T11:38:10.272Z</time></trkpt><trkpt lat="40.7407316" lon="19.4829128"><ele>3.0</ele><time>2026-04-26T11:38:11.274Z</time></trkpt><trkpt lat="40.7407818" lon="19.4825478"><ele>3.0</ele><time>2026-04-26T11:38:12.27Z</time></trkpt><trkpt lat="40.7408329" lon="19.4822031"><ele>3.0</ele><time>2026-04-26T11:38:13.273Z</time></trkpt><trkpt lat="40.7408773" lon="19.4818657"><ele>3.0</ele><time>2026-04-26T11:38:14.271Z</time></trkpt><trkpt lat="40.7409203" lon="19.481527"><ele>3.0</ele><time>2026-04-26T11:38:15.271Z</time></trkpt><trkpt lat="40.7409668" lon="19.4811859"><ele>4.0</ele><time>2026-04-26T11:38:16.271Z</time></trkpt><trkpt lat="40.7410131" lon="19.4808451"><ele>5.0</ele><time>2026-04-26T11:38:17.273Z</time></trkpt><trkpt lat="40.7410629" lon="19.4805065"><ele>5.0</ele><time>2026-04-26T11:38:18.272Z</time></trkpt><trkpt lat="40.741112" lon="19.4801667"><ele>5.0</ele><time>2026-04-26T11:38:19.27Z</time></trkpt><trkpt lat="40.7411604" lon="19.4798277"><ele>5.0</ele><time>2026-04-26T11:38:20.271Z</time></trkpt><trkpt lat="40.7412115" lon="19.4794873"><ele>5.0</ele><time>2026-04-26T11:38:21.273Z</time></trkpt><trkpt lat="40.7412567" lon="19.4791498"><ele>5.0</ele><time>2026-04-26T11:38:22.272Z</time></trkpt><trkpt lat="40.7413029" lon="19.4788116"><ele>5.0</ele><time>2026-04-26T11:38:23.273Z</time></trkpt><trkpt lat="40.741345" lon="19.4784668"><ele>5.0</ele><time>2026-04-26T11:38:24.271Z</time></trkpt><trkpt lat="40.7413773" lon="19.4781182"><ele>5.0</ele><time>2026-04-26T11:38:25.273Z</time></trkpt><trkpt lat="40.7413987" lon="19.4777682"><ele>4.0</ele><time>2026-04-26T11:38:26.272Z</time></trkpt><trkpt lat="40.7414093" lon="19.4774071"><ele>3.0</ele><time>2026-04-26T11:38:27.271Z</time></trkpt><trkpt lat="40.7414133" lon="19.4770512"><ele>2.5</ele><time>2026-04-26T11:38:28.272Z</time></trkpt><trkpt lat="40.7414123" lon="19.4766977"><ele>2.0</ele><time>2026-04-26T11:38:29.272Z</time></trkpt><trkpt lat="40.7414065" lon="19.4763468"><ele>3.0</ele><time>2026-04-26T11:38:30.272Z</time></trkpt><trkpt lat="40.7413988" lon="19.4759979"><ele>4.0</ele><time>2026-04-26T11:38:31.272Z</time></trkpt><trkpt lat="40.7413811" lon="19.475655"><ele>4.0</ele><time>2026-04-26T11:38:32.27Z</time></trkpt><trkpt lat="40.7413626" lon="19.4753104"><ele>4.0</ele><time>2026-04-26T11:38:33.271Z</time></trkpt><trkpt lat="40.7413363" lon="19.4749674"><ele>4.0</ele><time>2026-04-26T11:38:34.272Z</time></trkpt><trkpt lat="40.7413033" lon="19.4746237"><ele>4.0</ele><time>2026-04-26T11:38:35.272Z</time></trkpt><trkpt lat="40.7412642" lon="19.4742759"><ele>4.0</ele><time>2026-04-26T11:38:36.273Z</time></trkpt><trkpt lat="40.7412197" lon="19.4739379"><ele>4.0</ele><time>2026-04-26T11:38:37.27Z</time></trkpt><trkpt lat="40.7411691" lon="19.4735935"><ele>3.5</ele><time>2026-04-26T11:38:38.271Z</time></trkpt><trkpt lat="40.7411138" lon="19.4732546"><ele>3.0</ele><time>2026-04-26T11:38:39.272Z</time></trkpt><trkpt lat="40.7410553" lon="19.472914"><ele>3.0</ele><time>2026-04-26T11:38:40.27Z</time></trkpt><trkpt lat="40.7409964" lon="19.4725783"><ele>3.0</ele><time>2026-04-26T11:38:41.271Z</time></trkpt><trkpt lat="40.740935" lon="19.4722449"><ele>3.5</ele><time>2026-04-26T11:38:42.271Z</time></trkpt><trkpt lat="40.7408754" lon="19.4719143"><ele>4.0</ele><time>2026-04-26T11:38:43.271Z</time></trkpt><trkpt lat="40.7408165" lon="19.4715813"><ele>4.0</ele><time>2026-04-26T11:38:44.272Z</time></trkpt><trkpt lat="40.7407574" lon="19.4712497"><ele>4.0</ele><time>2026-04-26T11:38:45.271Z</time></trkpt><trkpt lat="40.7406998" lon="19.4709208"><ele>4.0</ele><time>2026-04-26T11:38:46.271Z</time></trkpt><trkpt lat="40.740642" lon="19.4705889"><ele>4.0</ele><time>2026-04-26T11:38:47.273Z</time></trkpt><trkpt lat="40.7405838" lon="19.4702584"><ele>4.0</ele><time>2026-04-26T11:38:48.273Z</time></trkpt><trkpt lat="40.7405263" lon="19.4699213"><ele>4.0</ele><time>2026-04-26T11:38:49.27Z</time></trkpt><trkpt lat="40.7404663" lon="19.469588"><ele>4.0</ele><time>2026-04-26T11:38:50.271Z</time></trkpt><trkpt lat="40.7404054" lon="19.4692537"><ele>4.0</ele><time>2026-04-26T11:38:51.27Z</time></trkpt><trkpt lat="40.7403461" lon="19.468917"><ele>3.5</ele><time>2026-04-26T11:38:52.272Z</time></trkpt><trkpt lat="40.7402875" lon="19.4685792"><ele>3.0</ele><time>2026-04-26T11:38:53.272Z</time></trkpt><trkpt lat="40.7402293" lon="19.4682452"><ele>2.0</ele><time>2026-04-26T11:38:54.273Z</time></trkpt><trkpt lat="40.7401704" lon="19.4679145"><ele>1.0</ele><time>2026-04-26T11:38:55.272Z</time></trkpt><trkpt lat="40.7401105" lon="19.4675852"><ele>1.0</ele><time>2026-04-26T11:38:56.269Z</time></trkpt><trkpt lat="40.7400508" lon="19.4672558"><ele>1.0</ele><time>2026-04-26T11:38:57.271Z</time></trkpt><trkpt lat="40.7399933" lon="19.4669257"><ele>1.0</ele><time>2026-04-26T11:38:58.271Z</time></trkpt><trkpt lat="40.7399346" lon="19.466596"><ele>1.0</ele><time>2026-04-26T11:38:59.271Z</time></trkpt><trkpt lat="40.7398743" lon="19.4662633"><ele>1.0</ele><time>2026-04-26T11:39:00.27Z</time></trkpt><trkpt lat="40.7398183" lon="19.4659367"><ele>1.0</ele><time>2026-04-26T11:39:01.271Z</time></trkpt><trkpt lat="40.7397608" lon="19.4656084"><ele>1.0</ele><time>2026-04-26T11:39:02.271Z</time></trkpt><trkpt lat="40.7397067" lon="19.465281"><ele>1.0</ele><time>2026-04-26T11:39:03.271Z</time></trkpt><trkpt lat="40.7396509" lon="19.4649582"><ele>1.0</ele><time>2026-04-26T11:39:04.27Z</time></trkpt><trkpt lat="40.7395939" lon="19.4646354"><ele>1.0</ele><time>2026-04-26T11:39:05.271Z</time></trkpt><trkpt lat="40.7395343" lon="19.4643128"><ele>1.5</ele><time>2026-04-26T11:39:06.27Z</time></trkpt><trkpt lat="40.7394784" lon="19.4639892"><ele>2.0</ele><time>2026-04-26T11:39:07.27Z</time></trkpt><trkpt lat="40.7394225" lon="19.4636673"><ele>2.0</ele><time>2026-04-26T11:39:08.272Z</time></trkpt><trkpt lat="40.7393644" lon="19.4633503"><ele>2.0</ele><time>2026-04-26T11:39:09.271Z</time></trkpt><trkpt lat="40.739308" lon="19.4630293"><ele>2.0</ele><time>2026-04-26T11:39:10.27Z</time></trkpt><trkpt lat="40.739252" lon="19.4627148"><ele>2.0</ele><time>2026-04-26T11:39:11.271Z</time></trkpt><trkpt lat="40.7391959" lon="19.4624009"><ele>1.0</ele><time>2026-04-26T11:39:12.271Z</time></trkpt><trkpt lat="40.7391382" lon="19.4620859"><ele>0.0</ele><time>2026-04-26T11:39:13.27Z</time></trkpt><trkpt lat="40.7390808" lon="19.4617699"><ele>0.0</ele><time>2026-04-26T11:39:14.269Z</time></trkpt><trkpt lat="40.7390249" lon="19.4614555"><ele>0.0</ele><time>2026-04-26T11:39:15.272Z</time></trkpt><trkpt lat="40.7389683" lon="19.4611409"><ele>0.5</ele><time>2026-04-26T11:39:16.27Z</time></trkpt><trkpt lat="40.7389124" lon="19.4608277"><ele>1.0</ele><time>2026-04-26T11:39:17.271Z</time></trkpt><trkpt lat="40.7388566" lon="19.4605156"><ele>1.5</ele><time>2026-04-26T11:39:18.27Z</time></trkpt><trkpt lat="40.7388008" lon="19.4602049"><ele>2.0</ele><time>2026-04-26T11:39:19.271Z</time></trkpt><trkpt lat="40.7387473" lon="19.4598923"><ele>2.0</ele><time>2026-04-26T11:39:20.27Z</time></trkpt><trkpt lat="40.7386918" lon="19.4595755"><ele>2.0</ele><time>2026-04-26T11:39:21.271Z</time></trkpt><trkpt lat="40.7386381" lon="19.459265"><ele>2.0</ele><time>2026-04-26T11:39:22.272Z</time></trkpt><trkpt lat="40.7385823" lon="19.4589514"><ele>2.0</ele><time>2026-04-26T11:39:23.272Z</time></trkpt><trkpt lat="40.7385275" lon="19.4586356"><ele>0.0</ele><time>2026-04-26T11:39:24.27Z</time></trkpt><trkpt lat="40.7384706" lon="19.4583199"><ele>-2.0</ele><time>2026-04-26T11:39:25.271Z</time></trkpt><trkpt lat="40.7384119" lon="19.4580023"><ele>-1.5</ele><time>2026-04-26T11:39:26.271Z</time></trkpt><trkpt lat="40.7383523" lon="19.4576796"><ele>-1.0</ele><time>2026-04-26T11:39:27.271Z</time></trkpt><trkpt lat="40.738292" lon="19.4573504"><ele>-0.5</ele><time>2026-04-26T11:39:28.271Z</time></trkpt><trkpt lat="40.738228" lon="19.4570279"><ele>0.0</ele><time>2026-04-26T11:39:29.271Z</time></trkpt><trkpt lat="40.7381586" lon="19.4567066"><ele>0.0</ele><time>2026-04-26T11:39:30.272Z</time></trkpt><trkpt lat="40.7380871" lon="19.4563853"><ele>0.0</ele><time>2026-04-26T11:39:31.27Z</time></trkpt><trkpt lat="40.7380037" lon="19.4560665"><ele>0.5</ele><time>2026-04-26T11:39:32.269Z</time></trkpt><trkpt lat="40.737918" lon="19.4557504"><ele>1.0</ele><time>2026-04-26T11:39:33.27Z</time></trkpt><trkpt lat="40.7378266" lon="19.4554427"><ele>1.0</ele><time>2026-04-26T11:39:34.269Z</time></trkpt><trkpt lat="40.7377267" lon="19.4551349"><ele>1.0</ele><time>2026-04-26T11:39:35.271Z</time></trkpt><trkpt lat="40.7376247" lon="19.4548277"><ele>1.0</ele><time>2026-04-26T11:39:36.27Z</time></trkpt><trkpt lat="40.737515" lon="19.454524"><ele>1.0</ele><time>2026-04-26T11:39:37.271Z</time></trkpt><trkpt lat="40.7374028" lon="19.454224"><ele>1.0</ele><time>2026-04-26T11:39:38.271Z</time></trkpt><trkpt lat="40.7372818" lon="19.4539253"><ele>1.0</ele><time>2026-04-26T11:39:39.272Z</time></trkpt><trkpt lat="40.7371545" lon="19.4536275"><ele>0.5</ele><time>2026-04-26T11:39:40.271Z</time></trkpt><trkpt lat="40.7370242" lon="19.4533353"><ele>0.0</ele><time>2026-04-26T11:39:41.271Z</time></trkpt><trkpt lat="40.7368881" lon="19.4530454"><ele>-0.5</ele><time>2026-04-26T11:39:42.269Z</time></trkpt><trkpt lat="40.7367479" lon="19.4527589"><ele>-1.0</ele><time>2026-04-26T11:39:43.273Z</time></trkpt><trkpt lat="40.7366005" lon="19.4524752"><ele>-1.0</ele><time>2026-04-26T11:39:44.272Z</time></trkpt><trkpt lat="40.7364448" lon="19.4521939"><ele>-1.0</ele><time>2026-04-26T11:39:45.272Z</time></trkpt><trkpt lat="40.7362829" lon="19.4519139"><ele>-1.0</ele><time>2026-04-26T11:39:46.27Z</time></trkpt><trkpt lat="40.7361162" lon="19.4516368"><ele>-1.0</ele><time>2026-04-26T11:39:47.272Z</time></trkpt><trkpt lat="40.7359418" lon="19.4513589"><ele>0.0</ele><time>2026-04-26T11:39:48.269Z</time></trkpt><trkpt lat="40.7357683" lon="19.4510842"><ele>1.0</ele><time>2026-04-26T11:39:49.27Z</time></trkpt><trkpt lat="40.7355923" lon="19.4508103"><ele>1.0</ele><time>2026-04-26T11:39:50.271Z</time></trkpt><trkpt lat="40.7354137" lon="19.4505391"><ele>1.0</ele><time>2026-04-26T11:39:51.27Z</time></trkpt><trkpt lat="40.7352357" lon="19.4502716"><ele>0.0</ele><time>2026-04-26T11:39:52.269Z</time></trkpt><trkpt lat="40.735063" lon="19.4499978"><ele>-1.0</ele><time>2026-04-26T11:39:53.273Z</time></trkpt><trkpt lat="40.7348911" lon="19.4497271"><ele>-1.0</ele><time>2026-04-26T11:39:54.27Z</time></trkpt><trkpt lat="40.734719" lon="19.4494555"><ele>-1.0</ele><time>2026-04-26T11:39:55.271Z</time></trkpt><trkpt lat="40.7345481" lon="19.4491883"><ele>-1.0</ele><time>2026-04-26T11:39:56.269Z</time></trkpt><trkpt lat="40.734378" lon="19.4489271"><ele>-1.0</ele><time>2026-04-26T11:39:57.27Z</time></trkpt><trkpt lat="40.734208" lon="19.4486667"><ele>-1.0</ele><time>2026-04-26T11:39:58.271Z</time></trkpt><trkpt lat="40.7340417" lon="19.4484041"><ele>-1.0</ele><time>2026-04-26T11:39:59.27Z</time></trkpt><trkpt lat="40.7338768" lon="19.4481457"><ele>-1.0</ele><time>2026-04-26T11:40:00.272Z</time></trkpt><trkpt lat="40.7337143" lon="19.4478905"><ele>-1.0</ele><time>2026-04-26T11:40:01.271Z</time></trkpt><trkpt lat="40.733552" lon="19.4476335"><ele>-0.5</ele><time>2026-04-26T11:40:02.272Z</time></trkpt><trkpt lat="40.7333927" lon="19.447379"><ele>0.0</ele><time>2026-04-26T11:40:03.269Z</time></trkpt><trkpt lat="40.7332311" lon="19.4471252"><ele>0.0</ele><time>2026-04-26T11:40:04.269Z</time></trkpt><trkpt lat="40.7330688" lon="19.4468723"><ele>0.0</ele><time>2026-04-26T11:40:05.27Z</time></trkpt><trkpt lat="40.7329069" lon="19.446622"><ele>0.0</ele><time>2026-04-26T11:40:06.271Z</time></trkpt><trkpt lat="40.7327466" lon="19.4463701"><ele>0.0</ele><time>2026-04-26T11:40:07.268Z</time></trkpt><trkpt lat="40.7325859" lon="19.4461189"><ele>-1.5</ele><time>2026-04-26T11:40:08.27Z</time></trkpt><trkpt lat="40.7324249" lon="19.4458685"><ele>-3.0</ele><time>2026-04-26T11:40:09.271Z</time></trkpt><trkpt lat="40.7322619" lon="19.4456161"><ele>-2.5</ele><time>2026-04-26T11:40:10.271Z</time></trkpt><trkpt lat="40.7320976" lon="19.4453598"><ele>-2.0</ele><time>2026-04-26T11:40:11.269Z</time></trkpt><trkpt lat="40.7319329" lon="19.4450998"><ele>-2.0</ele><time>2026-04-26T11:40:12.27Z</time></trkpt><trkpt lat="40.731767" lon="19.444842"><ele>-2.0</ele><time>2026-04-26T11:40:13.268Z</time></trkpt><trkpt lat="40.7316044" lon="19.4445854"><ele>-2.0</ele><time>2026-04-26T11:40:14.27Z</time></trkpt><trkpt lat="40.7314377" lon="19.444324"><ele>-2.0</ele><time>2026-04-26T11:40:15.271Z</time></trkpt><trkpt lat="40.7312719" lon="19.4440603"><ele>-2.0</ele><time>2026-04-26T11:40:16.27Z</time></trkpt><trkpt lat="40.7311055" lon="19.4437985"><ele>-2.0</ele><time>2026-04-26T11:40:17.269Z</time></trkpt><trkpt lat="40.7309388" lon="19.4435377"><ele>-1.5</ele><time>2026-04-26T11:40:18.269Z</time></trkpt><trkpt lat="40.7307717" lon="19.4432756"><ele>-1.0</ele><time>2026-04-26T11:40:19.271Z</time></trkpt><trkpt lat="40.7306029" lon="19.4430163"><ele>-1.0</ele><time>2026-04-26T11:40:20.269Z</time></trkpt><trkpt lat="40.7304295" lon="19.4427568"><ele>-1.0</ele><time>2026-04-26T11:40:21.27Z</time></trkpt><trkpt lat="40.7302609" lon="19.4424859"><ele>-1.5</ele><time>2026-04-26T11:40:22.27Z</time></trkpt><trkpt lat="40.7300926" lon="19.4422125"><ele>-2.0</ele><time>2026-04-26T11:40:23.27Z</time></trkpt><trkpt lat="40.7299212" lon="19.4419381"><ele>-2.0</ele><time>2026-04-26T11:40:24.269Z</time></trkpt><trkpt lat="40.7297492" lon="19.4416649"><ele>-2.0</ele><time>2026-04-26T11:40:25.269Z</time></trkpt><trkpt lat="40.7295779" lon="19.4413957"><ele>-2.0</ele><time>2026-04-26T11:40:26.269Z</time></trkpt><trkpt lat="40.7293997" lon="19.4411278"><ele>-2.0</ele><time>2026-04-26T11:40:27.271Z</time></trkpt><trkpt lat="40.7292164" lon="19.4408676"><ele>-2.0</ele><time>2026-04-26T11:40:28.269Z</time></trkpt><trkpt lat="40.7290274" lon="19.440612"><ele>-2.0</ele><time>2026-04-26T11:40:29.271Z</time></trkpt><trkpt lat="40.7288297" lon="19.4403644"><ele>-1.5</ele><time>2026-04-26T11:40:30.269Z</time></trkpt><trkpt lat="40.7286221" lon="19.4401301"><ele>-1.0</ele><time>2026-04-26T11:40:31.271Z</time></trkpt><trkpt lat="40.728408" lon="19.4399021"><ele>-1.0</ele><time>2026-04-26T11:40:32.271Z</time></trkpt><trkpt lat="40.7281865" lon="19.4396846"><ele>-1.0</ele><time>2026-04-26T11:40:33.271Z</time></trkpt><trkpt lat="40.7279616" lon="19.4394743"><ele>-1.0</ele><time>2026-04-26T11:40:34.271Z</time></trkpt><trkpt lat="40.7277308" lon="19.4392794"><ele>-1.0</ele><time>2026-04-26T11:40:35.27Z</time></trkpt><trkpt lat="40.7274971" lon="19.4390942"><ele>-1.0</ele><time>2026-04-26T11:40:36.27Z</time></trkpt><trkpt lat="40.7272599" lon="19.4389215"><ele>-1.0</ele><time>2026-04-26T11:40:37.271Z</time></trkpt><trkpt lat="40.7270195" lon="19.4387633"><ele>-1.0</ele><time>2026-04-26T11:40:38.269Z</time></trkpt><trkpt lat="40.7267716" lon="19.4386182"><ele>-1.0</ele><time>2026-04-26T11:40:39.271Z</time></trkpt><trkpt lat="40.7265206" lon="19.4384845"><ele>-1.0</ele><time>2026-04-26T11:40:40.272Z</time></trkpt><trkpt lat="40.7262654" lon="19.4383625"><ele>-1.0</ele><time>2026-04-26T11:40:41.27Z</time></trkpt><trkpt lat="40.7260009" lon="19.4382397"><ele>-1.0</ele><time>2026-04-26T11:40:42.271Z</time></trkpt><trkpt lat="40.7257313" lon="19.4381428"><ele>-1.0</ele><time>2026-04-26T11:40:43.27Z</time></trkpt><trkpt lat="40.7254623" lon="19.438058"><ele>-1.0</ele><time>2026-04-26T11:40:44.271Z</time></trkpt><trkpt lat="40.7251906" lon="19.4379902"><ele>-1.0</ele><time>2026-04-26T11:40:45.272Z</time></trkpt><trkpt lat="40.7249166" lon="19.4379328"><ele>-1.0</ele><time>2026-04-26T11:40:46.271Z</time></trkpt><trkpt lat="40.7246393" lon="19.4378891"><ele>-1.0</ele><time>2026-04-26T11:40:47.271Z</time></trkpt><trkpt lat="40.7243622" lon="19.437859"><ele>-1.0</ele><time>2026-04-26T11:40:48.27Z</time></trkpt><trkpt lat="40.7240828" lon="19.4378429"><ele>-1.0</ele><time>2026-04-26T11:40:49.271Z</time></trkpt><trkpt lat="40.7238027" lon="19.4378418"><ele>-1.5</ele><time>2026-04-26T11:40:50.272Z</time></trkpt><trkpt lat="40.723523" lon="19.4378565"><ele>-2.0</ele><time>2026-04-26T11:40:51.272Z</time></trkpt><trkpt lat="40.7232448" lon="19.4378834"><ele>-2.0</ele><time>2026-04-26T11:40:52.271Z</time></trkpt><trkpt lat="40.7229682" lon="19.4379251"><ele>-2.0</ele><time>2026-04-26T11:40:53.27Z</time></trkpt><trkpt lat="40.7226923" lon="19.43798"><ele>-0.5</ele><time>2026-04-26T11:40:54.27Z</time></trkpt><trkpt lat="40.7224198" lon="19.4380462"><ele>1.0</ele><time>2026-04-26T11:40:55.271Z</time></trkpt><trkpt lat="40.7221477" lon="19.4381292"><ele>-0.5</ele><time>2026-04-26T11:40:56.272Z</time></trkpt><trkpt lat="40.7218819" lon="19.4382278"><ele>-2.0</ele><time>2026-04-26T11:40:57.27Z</time></trkpt><trkpt lat="40.7216185" lon="19.438338"><ele>-2.0</ele><time>2026-04-26T11:40:58.271Z</time></trkpt><trkpt lat="40.7213562" lon="19.438454"><ele>-2.0</ele><time>2026-04-26T11:40:59.271Z</time></trkpt><trkpt lat="40.7210951" lon="19.4385757"><ele>-1.5</ele><time>2026-04-26T11:41:00.269Z</time></trkpt><trkpt lat="40.7208377" lon="19.4387001"><ele>-1.0</ele><time>2026-04-26T11:41:01.273Z</time></trkpt><trkpt lat="40.7205786" lon="19.4388223"><ele>-0.5</ele><time>2026-04-26T11:41:02.269Z</time></trkpt><trkpt lat="40.7203205" lon="19.4389451"><ele>0.0</ele><time>2026-04-26T11:41:03.27Z</time></trkpt><trkpt lat="40.7200617" lon="19.4390673"><ele>-1.0</ele><time>2026-04-26T11:41:04.27Z</time></trkpt><trkpt lat="40.7198026" lon="19.4391863"><ele>-2.0</ele><time>2026-04-26T11:41:05.273Z</time></trkpt><trkpt lat="40.7195421" lon="19.4393099"><ele>-2.5</ele><time>2026-04-26T11:41:06.271Z</time></trkpt><trkpt lat="40.7192816" lon="19.4394343"><ele>-3.0</ele><time>2026-04-26T11:41:07.272Z</time></trkpt><trkpt lat="40.7190217" lon="19.4395589"><ele>-2.5</ele><time>2026-04-26T11:41:08.271Z</time></trkpt><trkpt lat="40.7187626" lon="19.4396828"><ele>-2.0</ele><time>2026-04-26T11:41:09.27Z</time></trkpt><trkpt lat="40.7185037" lon="19.4398051"><ele>-2.0</ele><time>2026-04-26T11:41:10.271Z</time></trkpt><trkpt lat="40.7182456" lon="19.439925"><ele>-2.0</ele><time>2026-04-26T11:41:11.273Z</time></trkpt><trkpt lat="40.7179889" lon="19.4400465"><ele>-2.5</ele><time>2026-04-26T11:41:12.271Z</time></trkpt><trkpt lat="40.7177313" lon="19.4401694"><ele>-3.0</ele><time>2026-04-26T11:41:13.269Z</time></trkpt><trkpt lat="40.7174738" lon="19.4402939"><ele>-3.0</ele><time>2026-04-26T11:41:14.271Z</time></trkpt><trkpt lat="40.7172165" lon="19.4404227"><ele>-3.0</ele><time>2026-04-26T11:41:15.27Z</time></trkpt><trkpt lat="40.7169598" lon="19.440551"><ele>-2.0</ele><time>2026-04-26T11:41:16.271Z</time></trkpt><trkpt lat="40.7167039" lon="19.4406817"><ele>-1.0</ele><time>2026-04-26T11:41:17.272Z</time></trkpt><trkpt lat="40.7164499" lon="19.4408144"><ele>-1.0</ele><time>2026-04-26T11:41:18.27Z</time></trkpt><trkpt lat="40.7161982" lon="19.4409507"><ele>-1.0</ele><time>2026-04-26T11:41:19.271Z</time></trkpt><trkpt lat="40.7159466" lon="19.4410902"><ele>-0.5</ele><time>2026-04-26T11:41:20.272Z</time></trkpt><trkpt lat="40.715698" lon="19.4412347"><ele>0.0</ele><time>2026-04-26T11:41:21.271Z</time></trkpt><trkpt lat="40.7154508" lon="19.4413851"><ele>0.0</ele><time>2026-04-26T11:41:22.271Z</time></trkpt><trkpt lat="40.7152051" lon="19.4415394"><ele>0.0</ele><time>2026-04-26T11:41:23.269Z</time></trkpt><trkpt lat="40.7149615" lon="19.4416973"><ele>0.0</ele><time>2026-04-26T11:41:24.27Z</time></trkpt><trkpt lat="40.7147177" lon="19.4418613"><ele>0.0</ele><time>2026-04-26T11:41:25.27Z</time></trkpt><trkpt lat="40.7144749" lon="19.4420295"><ele>0.0</ele><time>2026-04-26T11:41:26.27Z</time></trkpt><trkpt lat="40.7142354" lon="19.4422011"><ele>0.0</ele><time>2026-04-26T11:41:27.27Z</time></trkpt><trkpt lat="40.7139982" lon="19.442377"><ele>0.0</ele><time>2026-04-26T11:41:28.269Z</time></trkpt><trkpt lat="40.7137632" lon="19.4425573"><ele>0.0</ele><time>2026-04-26T11:41:29.272Z</time></trkpt><trkpt lat="40.7135305" lon="19.4427408"><ele>0.0</ele><time>2026-04-26T11:41:30.273Z</time></trkpt><trkpt lat="40.7133004" lon="19.4429284"><ele>0.0</ele><time>2026-04-26T11:41:31.272Z</time></trkpt><trkpt lat="40.7130741" lon="19.4431229"><ele>0.0</ele><time>2026-04-26T11:41:32.271Z</time></trkpt><trkpt lat="40.712849" lon="19.4433181"><ele>0.0</ele><time>2026-04-26T11:41:33.27Z</time></trkpt><trkpt lat="40.7126258" lon="19.4435163"><ele>0.0</ele><time>2026-04-26T11:41:34.271Z</time></trkpt><trkpt lat="40.7124046" lon="19.4437185"><ele>0.0</ele><time>2026-04-26T11:41:35.272Z</time></trkpt><trkpt lat="40.712183" lon="19.443924"><ele>0.0</ele><time>2026-04-26T11:41:36.271Z</time></trkpt><trkpt lat="40.7119616" lon="19.4441374"><ele>0.0</ele><time>2026-04-26T11:41:37.272Z</time></trkpt><trkpt lat="40.7117421" lon="19.4443584"><ele>0.0</ele><time>2026-04-26T11:41:38.271Z</time></trkpt><trkpt lat="40.7115249" lon="19.444599"><ele>0.0</ele><time>2026-04-26T11:41:39.27Z</time></trkpt><trkpt lat="40.7113104" lon="19.4448234"><ele>0.0</ele><time>2026-04-26T11:41:40.271Z</time></trkpt><trkpt lat="40.711093" lon="19.4450528"><ele>0.0</ele><time>2026-04-26T11:41:41.271Z</time></trkpt><trkpt lat="40.7108773" lon="19.4452928"><ele>0.0</ele><time>2026-04-26T11:41:42.271Z</time></trkpt><trkpt lat="40.7106648" lon="19.4455402"><ele>0.0</ele><time>2026-04-26T11:41:43.268Z</time></trkpt><trkpt lat="40.7104525" lon="19.4458104"><ele>0.0</ele><time>2026-04-26T11:41:44.27Z</time></trkpt><trkpt lat="40.7102483" lon="19.4460613"><ele>0.0</ele><time>2026-04-26T11:41:45.273Z</time></trkpt><trkpt lat="40.7100456" lon="19.4463126"><ele>1.0</ele><time>2026-04-26T11:41:46.271Z</time></trkpt><trkpt lat="40.7098453" lon="19.4465716"><ele>2.0</ele><time>2026-04-26T11:41:47.271Z</time></trkpt><trkpt lat="40.7096451" lon="19.4468336"><ele>2.0</ele><time>2026-04-26T11:41:48.272Z</time></trkpt><trkpt lat="40.7094453" lon="19.4470945"><ele>2.0</ele><time>2026-04-26T11:41:49.271Z</time></trkpt><trkpt lat="40.709254" lon="19.447367"><ele>0.5</ele><time>2026-04-26T11:41:50.272Z</time></trkpt><trkpt lat="40.7090642" lon="19.4476434"><ele>-1.0</ele><time>2026-04-26T11:41:51.27Z</time></trkpt><trkpt lat="40.7088757" lon="19.4479222"><ele>-1.0</ele><time>2026-04-26T11:41:52.27Z</time></trkpt><trkpt lat="40.7086928" lon="19.4482034"><ele>-1.0</ele><time>2026-04-26T11:41:53.277Z</time></trkpt><trkpt lat="40.7085128" lon="19.4484947"><ele>-0.5</ele><time>2026-04-26T11:41:54.27Z</time></trkpt><trkpt lat="40.7083366" lon="19.448788"><ele>0.0</ele><time>2026-04-26T11:41:55.28Z</time></trkpt><trkpt lat="40.7081603" lon="19.4490807"><ele>0.0</ele><time>2026-04-26T11:41:56.273Z</time></trkpt><trkpt lat="40.7079864" lon="19.4493761"><ele>0.0</ele><time>2026-04-26T11:41:57.272Z</time></trkpt><trkpt lat="40.7078161" lon="19.4496732"><ele>0.0</ele><time>2026-04-26T11:41:58.272Z</time></trkpt><trkpt lat="40.7076503" lon="19.4499742"><ele>0.0</ele><time>2026-04-26T11:41:59.271Z</time></trkpt><trkpt lat="40.7074879" lon="19.4502786"><ele>-1.0</ele><time>2026-04-26T11:42:00.271Z</time></trkpt><trkpt lat="40.7073297" lon="19.4505841"><ele>-2.0</ele><time>2026-04-26T11:42:01.269Z</time></trkpt><trkpt lat="40.7071732" lon="19.4508937"><ele>-2.0</ele><time>2026-04-26T11:42:02.269Z</time></trkpt><trkpt lat="40.7070243" lon="19.4512042"><ele>-2.0</ele><time>2026-04-26T11:42:03.269Z</time></trkpt><trkpt lat="40.7068769" lon="19.4515161"><ele>-1.0</ele><time>2026-04-26T11:42:04.269Z</time></trkpt><trkpt lat="40.7067332" lon="19.4518301"><ele>0.0</ele><time>2026-04-26T11:42:05.268Z</time></trkpt><trkpt lat="40.7065905" lon="19.4521437"><ele>0.0</ele><time>2026-04-26T11:42:06.27Z</time></trkpt><trkpt lat="40.7064538" lon="19.4524607"><ele>0.0</ele><time>2026-04-26T11:42:07.271Z</time></trkpt><trkpt lat="40.7063203" lon="19.4527775"><ele>0.0</ele><time>2026-04-26T11:42:08.271Z</time></trkpt><trkpt lat="40.7061896" lon="19.4530999"><ele>0.0</ele><time>2026-04-26T11:42:09.273Z</time></trkpt><trkpt lat="40.7060618" lon="19.4534238"><ele>0.0</ele><time>2026-04-26T11:42:10.271Z</time></trkpt><trkpt lat="40.7059361" lon="19.453749"><ele>0.0</ele><time>2026-04-26T11:42:11.269Z</time></trkpt><trkpt lat="40.7058125" lon="19.4540743"><ele>0.0</ele><time>2026-04-26T11:42:12.271Z</time></trkpt><trkpt lat="40.7056899" lon="19.4543992"><ele>0.0</ele><time>2026-04-26T11:42:13.271Z</time></trkpt><trkpt lat="40.7055686" lon="19.45472"><ele>0.0</ele><time>2026-04-26T11:42:14.271Z</time></trkpt><trkpt lat="40.7054477" lon="19.4550398"><ele>0.0</ele><time>2026-04-26T11:42:15.27Z</time></trkpt><trkpt lat="40.7053258" lon="19.4553617"><ele>-0.5</ele><time>2026-04-26T11:42:16.271Z</time></trkpt><trkpt lat="40.7052007" lon="19.4556822"><ele>-1.0</ele><time>2026-04-26T11:42:17.271Z</time></trkpt><trkpt lat="40.7050735" lon="19.4560028"><ele>-1.5</ele><time>2026-04-26T11:42:18.269Z</time></trkpt><trkpt lat="40.7049418" lon="19.4563213"><ele>-2.0</ele><time>2026-04-26T11:42:19.271Z</time></trkpt><trkpt lat="40.7048007" lon="19.4566328"><ele>-2.0</ele><time>2026-04-26T11:42:20.271Z</time></trkpt><trkpt lat="40.7046504" lon="19.45694"><ele>-2.0</ele><time>2026-04-26T11:42:21.272Z</time></trkpt><trkpt lat="40.7044997" lon="19.4572424"><ele>-2.0</ele><time>2026-04-26T11:42:22.269Z</time></trkpt><trkpt lat="40.7043404" lon="19.4575413"><ele>-2.0</ele><time>2026-04-26T11:42:23.27Z</time></trkpt><trkpt lat="40.7041751" lon="19.4578329"><ele>-0.5</ele><time>2026-04-26T11:42:24.273Z</time></trkpt><trkpt lat="40.7040079" lon="19.4581199"><ele>1.0</ele><time>2026-04-26T11:42:25.271Z</time></trkpt><trkpt lat="40.7038304" lon="19.4584007"><ele>1.0</ele><time>2026-04-26T11:42:26.271Z</time></trkpt><trkpt lat="40.7036484" lon="19.4586768"><ele>1.0</ele><time>2026-04-26T11:42:27.27Z</time></trkpt><trkpt lat="40.7034603" lon="19.4589463"><ele>0.0</ele><time>2026-04-26T11:42:28.271Z</time></trkpt><trkpt lat="40.7032674" lon="19.45921"><ele>-1.0</ele><time>2026-04-26T11:42:29.271Z</time></trkpt><trkpt lat="40.7030693" lon="19.4594675"><ele>-1.0</ele><time>2026-04-26T11:42:30.27Z</time></trkpt><trkpt lat="40.7028652" lon="19.4597182"><ele>-1.0</ele><time>2026-04-26T11:42:31.272Z</time></trkpt><trkpt lat="40.7026573" lon="19.4599614"><ele>-1.0</ele><time>2026-04-26T11:42:32.273Z</time></trkpt><trkpt lat="40.7024446" lon="19.4601973"><ele>-1.0</ele><time>2026-04-26T11:42:33.271Z</time></trkpt><trkpt lat="40.7022276" lon="19.4604253"><ele>-0.5</ele><time>2026-04-26T11:42:34.27Z</time></trkpt><trkpt lat="40.7020061" lon="19.4606438"><ele>0.0</ele><time>2026-04-26T11:42:35.27Z</time></trkpt><trkpt lat="40.7017816" lon="19.4608546"><ele>0.5</ele><time>2026-04-26T11:42:36.269Z</time></trkpt><trkpt lat="40.7015534" lon="19.4610578"><ele>1.0</ele><time>2026-04-26T11:42:37.273Z</time></trkpt><trkpt lat="40.7013239" lon="19.4612543"><ele>1.0</ele><time>2026-04-26T11:42:38.271Z</time></trkpt><trkpt lat="40.7010919" lon="19.4614421"><ele>1.0</ele><time>2026-04-26T11:42:39.271Z</time></trkpt><trkpt lat="40.7008587" lon="19.4616236"><ele>1.0</ele><time>2026-04-26T11:42:40.268Z</time></trkpt><trkpt lat="40.7006249" lon="19.4618031"><ele>1.0</ele><time>2026-04-26T11:42:41.269Z</time></trkpt><trkpt lat="40.7003908" lon="19.4619804"><ele>1.0</ele><time>2026-04-26T11:42:42.271Z</time></trkpt><trkpt lat="40.700159" lon="19.4621588"><ele>1.0</ele><time>2026-04-26T11:42:43.27Z</time></trkpt><trkpt lat="40.699927" lon="19.4623368"><ele>1.0</ele><time>2026-04-26T11:42:44.271Z</time></trkpt><trkpt lat="40.6996939" lon="19.462514"><ele>1.0</ele><time>2026-04-26T11:42:45.269Z</time></trkpt><trkpt lat="40.6994615" lon="19.4626921"><ele>1.0</ele><time>2026-04-26T11:42:46.272Z</time></trkpt><trkpt lat="40.6992278" lon="19.4628704"><ele>1.0</ele><time>2026-04-26T11:42:47.272Z</time></trkpt><trkpt lat="40.6989923" lon="19.4630505"><ele>1.0</ele><time>2026-04-26T11:42:48.271Z</time></trkpt><trkpt lat="40.6987565" lon="19.4632305"><ele>1.0</ele><time>2026-04-26T11:42:49.27Z</time></trkpt><trkpt lat="40.6985189" lon="19.4634118"><ele>1.5</ele><time>2026-04-26T11:42:50.27Z</time></trkpt><trkpt lat="40.6982809" lon="19.4635936"><ele>2.0</ele><time>2026-04-26T11:42:51.27Z</time></trkpt><trkpt lat="40.6980425" lon="19.463776"><ele>1.5</ele><time>2026-04-26T11:42:52.27Z</time></trkpt><trkpt lat="40.6978032" lon="19.4639589"><ele>1.0</ele><time>2026-04-26T11:42:53.271Z</time></trkpt><trkpt lat="40.6975641" lon="19.4641423"><ele>1.0</ele><time>2026-04-26T11:42:54.272Z</time></trkpt><trkpt lat="40.6973256" lon="19.4643241"><ele>1.0</ele><time>2026-04-26T11:42:55.272Z</time></trkpt><trkpt lat="40.6970859" lon="19.4645066"><ele>0.5</ele><time>2026-04-26T11:42:56.272Z</time></trkpt><trkpt lat="40.6968461" lon="19.464688"><ele>0.0</ele><time>2026-04-26T11:42:57.269Z</time></trkpt><trkpt lat="40.6966047" lon="19.4648708"><ele>0.0</ele><time>2026-04-26T11:42:58.271Z</time></trkpt><trkpt lat="40.6963637" lon="19.4650549"><ele>0.0</ele><time>2026-04-26T11:42:59.273Z</time></trkpt><trkpt lat="40.6961226" lon="19.4652398"><ele>0.0</ele><time>2026-04-26T11:43:00.273Z</time></trkpt><trkpt lat="40.6958824" lon="19.4654237"><ele>0.0</ele><time>2026-04-26T11:43:01.274Z</time></trkpt><trkpt lat="40.6956428" lon="19.4656061"><ele>0.5</ele><time>2026-04-26T11:43:02.27Z</time></trkpt><trkpt lat="40.6954049" lon="19.4657884"><ele>1.0</ele><time>2026-04-26T11:43:03.272Z</time></trkpt><trkpt lat="40.6951665" lon="19.4659702"><ele>1.0</ele><time>2026-04-26T11:43:04.271Z</time></trkpt><trkpt lat="40.6949297" lon="19.4661523"><ele>1.0</ele><time>2026-04-26T11:43:05.271Z</time></trkpt><trkpt lat="40.6946907" lon="19.4663334"><ele>1.5</ele><time>2026-04-26T11:43:06.269Z</time></trkpt><trkpt lat="40.6944509" lon="19.4665135"><ele>2.0</ele><time>2026-04-26T11:43:07.271Z</time></trkpt><trkpt lat="40.6942113" lon="19.4666934"><ele>1.0</ele><time>2026-04-26T11:43:08.279Z</time></trkpt><trkpt lat="40.6939683" lon="19.4668827"><ele>0.0</ele><time>2026-04-26T11:43:09.272Z</time></trkpt><trkpt lat="40.6937285" lon="19.4670665"><ele>-0.5</ele><time>2026-04-26T11:43:10.27Z</time></trkpt><trkpt lat="40.6934888" lon="19.4672501"><ele>-1.0</ele><time>2026-04-26T11:43:11.269Z</time></trkpt><trkpt lat="40.6932499" lon="19.4674386"><ele>-1.0</ele><time>2026-04-26T11:43:12.277Z</time></trkpt><trkpt lat="40.6930094" lon="19.4676237"><ele>-1.0</ele><time>2026-04-26T11:43:13.27Z</time></trkpt><trkpt lat="40.6927748" lon="19.4678075"><ele>-0.5</ele><time>2026-04-26T11:43:14.28Z</time></trkpt><trkpt lat="40.6925368" lon="19.467995"><ele>0.0</ele><time>2026-04-26T11:43:15.271Z</time></trkpt><trkpt lat="40.6923027" lon="19.4681799"><ele>0.0</ele><time>2026-04-26T11:43:16.27Z</time></trkpt><trkpt lat="40.6920665" lon="19.4683653"><ele>0.0</ele><time>2026-04-26T11:43:17.27Z</time></trkpt><trkpt lat="40.6918323" lon="19.4685501"><ele>-0.5</ele><time>2026-04-26T11:43:18.271Z</time></trkpt><trkpt lat="40.6915973" lon="19.4687365"><ele>-1.0</ele><time>2026-04-26T11:43:19.27Z</time></trkpt><trkpt lat="40.6913641" lon="19.4689244"><ele>-1.0</ele><time>2026-04-26T11:43:20.271Z</time></trkpt><trkpt lat="40.6911318" lon="19.469117"><ele>-1.0</ele><time>2026-04-26T11:43:21.27Z</time></trkpt><trkpt lat="40.6908973" lon="19.4693097"><ele>-0.5</ele><time>2026-04-26T11:43:22.27Z</time></trkpt><trkpt lat="40.6906669" lon="19.4694971"><ele>0.0</ele><time>2026-04-26T11:43:23.27Z</time></trkpt><trkpt lat="40.6904362" lon="19.4696866"><ele>0.5</ele><time>2026-04-26T11:43:24.269Z</time></trkpt><trkpt lat="40.6902035" lon="19.4698707"><ele>1.0</ele><time>2026-04-26T11:43:25.272Z</time></trkpt><trkpt lat="40.6899731" lon="19.4700601"><ele>1.0</ele><time>2026-04-26T11:43:26.271Z</time></trkpt><trkpt lat="40.6897425" lon="19.4702492"><ele>1.0</ele><time>2026-04-26T11:43:27.27Z</time></trkpt><trkpt lat="40.6895122" lon="19.4704393"><ele>1.0</ele><time>2026-04-26T11:43:28.271Z</time></trkpt><trkpt lat="40.6892806" lon="19.4706302"><ele>1.0</ele><time>2026-04-26T11:43:29.271Z</time></trkpt><trkpt lat="40.6890537" lon="19.4708215"><ele>1.0</ele><time>2026-04-26T11:43:30.272Z</time></trkpt><trkpt lat="40.6888241" lon="19.4710095"><ele>1.0</ele><time>2026-04-26T11:43:31.271Z</time></trkpt><trkpt lat="40.6885921" lon="19.4712005"><ele>1.0</ele><time>2026-04-26T11:43:32.271Z</time></trkpt><trkpt lat="40.6883596" lon="19.4713914"><ele>1.0</ele><time>2026-04-26T11:43:33.272Z</time></trkpt><trkpt lat="40.688127" lon="19.4715826"><ele>1.0</ele><time>2026-04-26T11:43:34.272Z</time></trkpt><trkpt lat="40.6878942" lon="19.4717745"><ele>1.0</ele><time>2026-04-26T11:43:35.272Z</time></trkpt><trkpt lat="40.6876617" lon="19.4719655"><ele>1.0</ele><time>2026-04-26T11:43:36.271Z</time></trkpt><trkpt lat="40.6874287" lon="19.4721576"><ele>1.0</ele><time>2026-04-26T11:43:37.271Z</time></trkpt><trkpt lat="40.6871945" lon="19.4723472"><ele>1.0</ele><time>2026-04-26T11:43:38.273Z</time></trkpt><trkpt lat="40.6869622" lon="19.4725417"><ele>1.0</ele><time>2026-04-26T11:43:39.272Z</time></trkpt><trkpt lat="40.6867269" lon="19.4727321"><ele>0.0</ele><time>2026-04-26T11:43:40.271Z</time></trkpt><trkpt lat="40.686495" lon="19.4729278"><ele>-1.0</ele><time>2026-04-26T11:43:41.271Z</time></trkpt><trkpt lat="40.6862607" lon="19.4731209"><ele>-0.5</ele><time>2026-04-26T11:43:42.272Z</time></trkpt><trkpt lat="40.6860276" lon="19.4733141"><ele>0.0</ele><time>2026-04-26T11:43:43.269Z</time></trkpt><trkpt lat="40.6857945" lon="19.4735081"><ele>0.0</ele><time>2026-04-26T11:43:44.27Z</time></trkpt><trkpt lat="40.6855613" lon="19.4737007"><ele>0.0</ele><time>2026-04-26T11:43:45.27Z</time></trkpt><trkpt lat="40.6853265" lon="19.4738918"><ele>0.0</ele><time>2026-04-26T11:43:46.272Z</time></trkpt><trkpt lat="40.6850931" lon="19.4740837"><ele>0.0</ele><time>2026-04-26T11:43:47.27Z</time></trkpt><trkpt lat="40.6848605" lon="19.4742755"><ele>0.0</ele><time>2026-04-26T11:43:48.27Z</time></trkpt><trkpt lat="40.6846279" lon="19.4744667"><ele>0.0</ele><time>2026-04-26T11:43:49.272Z</time></trkpt><trkpt lat="40.6843949" lon="19.4746582"><ele>0.5</ele><time>2026-04-26T11:43:50.27Z</time></trkpt><trkpt lat="40.6841645" lon="19.4748451"><ele>1.0</ele><time>2026-04-26T11:43:51.27Z</time></trkpt><trkpt lat="40.6839276" lon="19.4750329"><ele>1.0</ele><time>2026-04-26T11:43:52.273Z</time></trkpt><trkpt lat="40.683696" lon="19.4752228"><ele>1.0</ele><time>2026-04-26T11:43:53.27Z</time></trkpt><trkpt lat="40.6834648" lon="19.4754193"><ele>1.0</ele><time>2026-04-26T11:43:54.27Z</time></trkpt><trkpt lat="40.6832342" lon="19.4756032"><ele>1.0</ele><time>2026-04-26T11:43:55.27Z</time></trkpt><trkpt lat="40.6829989" lon="19.4757867"><ele>1.0</ele><time>2026-04-26T11:43:56.271Z</time></trkpt><trkpt lat="40.6827639" lon="19.4759737"><ele>1.0</ele><time>2026-04-26T11:43:57.27Z</time></trkpt><trkpt lat="40.6825269" lon="19.4761504"><ele>1.5</ele><time>2026-04-26T11:43:58.271Z</time></trkpt><trkpt lat="40.6822916" lon="19.4763203"><ele>2.0</ele><time>2026-04-26T11:43:59.269Z</time></trkpt><trkpt lat="40.682055" lon="19.4764778"><ele>2.0</ele><time>2026-04-26T11:44:00.271Z</time></trkpt><trkpt lat="40.6818174" lon="19.4766381"><ele>2.0</ele><time>2026-04-26T11:44:01.27Z</time></trkpt><trkpt lat="40.6815787" lon="19.4767926"><ele>2.0</ele><time>2026-04-26T11:44:02.272Z</time></trkpt><trkpt lat="40.6813372" lon="19.4769324"><ele>2.0</ele><time>2026-04-26T11:44:03.271Z</time></trkpt><trkpt lat="40.6810971" lon="19.477073"><ele>2.0</ele><time>2026-04-26T11:44:04.271Z</time></trkpt><trkpt lat="40.6808588" lon="19.4772086"><ele>2.0</ele><time>2026-04-26T11:44:05.273Z</time></trkpt><trkpt lat="40.6806212" lon="19.4773415"><ele>2.0</ele><time>2026-04-26T11:44:06.269Z</time></trkpt><trkpt lat="40.6803811" lon="19.4774677"><ele>2.0</ele><time>2026-04-26T11:44:07.271Z</time></trkpt><trkpt lat="40.6801405" lon="19.4775943"><ele>2.5</ele><time>2026-04-26T11:44:08.272Z</time></trkpt><trkpt lat="40.6798979" lon="19.477711"><ele>3.0</ele><time>2026-04-26T11:44:09.272Z</time></trkpt><trkpt lat="40.6796534" lon="19.4778226"><ele>2.5</ele><time>2026-04-26T11:44:10.272Z</time></trkpt><trkpt lat="40.6794079" lon="19.4779323"><ele>2.0</ele><time>2026-04-26T11:44:11.268Z</time></trkpt><trkpt lat="40.6791611" lon="19.4780375"><ele>3.0</ele><time>2026-04-26T11:44:12.271Z</time></trkpt><trkpt lat="40.6789131" lon="19.4781385"><ele>4.0</ele><time>2026-04-26T11:44:13.27Z</time></trkpt><trkpt lat="40.6786587" lon="19.4782261"><ele>4.0</ele><time>2026-04-26T11:44:14.27Z</time></trkpt><trkpt lat="40.67841" lon="19.4783171"><ele>4.0</ele><time>2026-04-26T11:44:15.272Z</time></trkpt><trkpt lat="40.6781618" lon="19.4784028"><ele>4.0</ele><time>2026-04-26T11:44:16.271Z</time></trkpt><trkpt lat="40.6779169" lon="19.4784807"><ele>4.0</ele><time>2026-04-26T11:44:17.27Z</time></trkpt><trkpt lat="40.6776824" lon="19.478552"><ele>3.5</ele><time>2026-04-26T11:44:18.269Z</time></trkpt><trkpt lat="40.6774477" lon="19.47862"><ele>3.0</ele><time>2026-04-26T11:44:19.27Z</time></trkpt><trkpt lat="40.6772171" lon="19.4786696"><ele>3.0</ele><time>2026-04-26T11:44:20.269Z</time></trkpt><trkpt lat="40.677001" lon="19.4787081"><ele>3.0</ele><time>2026-04-26T11:44:21.27Z</time></trkpt><trkpt lat="40.6767938" lon="19.4787557"><ele>3.0</ele><time>2026-04-26T11:44:22.27Z</time></trkpt><trkpt lat="40.676589" lon="19.4788027"><ele>3.0</ele><time>2026-04-26T11:44:23.275Z</time></trkpt><trkpt lat="40.6763851" lon="19.4788437"><ele>3.0</ele><time>2026-04-26T11:44:24.272Z</time></trkpt><trkpt lat="40.6761821" lon="19.4788806"><ele>3.0</ele><time>2026-04-26T11:44:25.273Z</time></trkpt><trkpt lat="40.6759799" lon="19.4789088"><ele>3.0</ele><time>2026-04-26T11:44:26.269Z</time></trkpt><trkpt lat="40.6757782" lon="19.4789266"><ele>3.0</ele><time>2026-04-26T11:44:27.269Z</time></trkpt><trkpt lat="40.6755806" lon="19.4789325"><ele>3.0</ele><time>2026-04-26T11:44:28.271Z</time></trkpt><trkpt lat="40.6753912" lon="19.47893"><ele>3.333333333333333</ele><time>2026-04-26T11:44:29.27Z</time></trkpt><trkpt lat="40.6752045" lon="19.4789205"><ele>3.6666666666666665</ele><time>2026-04-26T11:44:30.268Z</time></trkpt><trkpt lat="40.6750169" lon="19.4789042"><ele>4.0</ele><time>2026-04-26T11:44:31.272Z</time></trkpt><trkpt lat="40.674828" lon="19.4788842"><ele>4.0</ele><time>2026-04-26T11:44:32.27Z</time></trkpt><trkpt lat="40.6746394" lon="19.47887"><ele>4.0</ele><time>2026-04-26T11:44:33.27Z</time></trkpt><trkpt lat="40.6744588" lon="19.478864"><ele>4.0</ele><time>2026-04-26T11:44:34.271Z</time></trkpt><trkpt lat="40.6742852" lon="19.4788567"><ele>3.75</ele><time>2026-04-26T11:44:35.269Z</time></trkpt><trkpt lat="40.674132" lon="19.4788575"><ele>3.5</ele><time>2026-04-26T11:44:36.272Z</time></trkpt><trkpt lat="40.6740046" lon="19.4788529"><ele>3.25</ele><time>2026-04-26T11:44:37.275Z</time></trkpt><trkpt lat="40.6739041" lon="19.4788443"><ele>3.0</ele><time>2026-04-26T11:44:38.271Z</time></trkpt><trkpt lat="40.6738294" lon="19.4788343"><ele>3.0</ele><time>2026-04-26T11:44:39.272Z</time></trkpt><trkpt lat="40.6737498" lon="19.4788052"><ele>3.0</ele><time>2026-04-26T11:44:41.269Z</time></trkpt><trkpt lat="40.6736524" lon="19.478716"><ele>3.0</ele><time>2026-04-26T11:44:43.268Z</time></trkpt><trkpt lat="40.6735993" lon="19.4786551"><ele>3.0</ele><time>2026-04-26T11:44:44.27Z</time></trkpt><trkpt lat="40.6735388" lon="19.4785833"><ele>3.0</ele><time>2026-04-26T11:44:45.274Z</time></trkpt><trkpt lat="40.6734623" lon="19.4785053"><ele>2.8</ele><time>2026-04-26T11:44:46.271Z</time></trkpt><trkpt lat="40.6733716" lon="19.4784347"><ele>2.5999999999999996</ele><time>2026-04-26T11:44:47.269Z</time></trkpt><trkpt lat="40.6732778" lon="19.4783803"><ele>2.4000000000000004</ele><time>2026-04-26T11:44:48.271Z</time></trkpt><trkpt lat="40.6731735" lon="19.4783584"><ele>2.2</ele><time>2026-04-26T11:44:49.274Z</time></trkpt><trkpt lat="40.6730664" lon="19.4783659"><ele>2.0</ele><time>2026-04-26T11:44:50.273Z</time></trkpt><trkpt lat="40.6729641" lon="19.4783835"><ele>2.0</ele><time>2026-04-26T11:44:51.274Z</time></trkpt><trkpt lat="40.6728649" lon="19.4784182"><ele>2.0</ele><time>2026-04-26T11:44:52.273Z</time></trkpt><trkpt lat="40.6727717" lon="19.4784725"><ele>2.0</ele><time>2026-04-26T11:44:53.27Z</time></trkpt><trkpt lat="40.6726872" lon="19.4785442"><ele>2.0</ele><time>2026-04-26T11:44:54.271Z</time></trkpt><trkpt lat="40.6726098" lon="19.478626"><ele>2.0</ele><time>2026-04-26T11:44:55.271Z</time></trkpt><trkpt lat="40.6725435" lon="19.4787278"><ele>2.4000000000000004</ele><time>2026-04-26T11:44:56.272Z</time></trkpt><trkpt lat="40.6724859" lon="19.4788498"><ele>2.8000000000000003</ele><time>2026-04-26T11:44:57.274Z</time></trkpt><trkpt lat="40.6724432" lon="19.4789884"><ele>3.2</ele><time>2026-04-26T11:44:58.271Z</time></trkpt><trkpt lat="40.6724162" lon="19.4791323"><ele>3.6</ele><time>2026-04-26T11:44:59.269Z</time></trkpt><trkpt lat="40.6724097" lon="19.4792714"><ele>4.0</ele><time>2026-04-26T11:45:00.272Z</time></trkpt><trkpt lat="40.6724341" lon="19.4794184"><ele>4.0</ele><time>2026-04-26T11:45:01.271Z</time></trkpt><trkpt lat="40.6724769" lon="19.4795657"><ele>4.0</ele><time>2026-04-26T11:45:02.272Z</time></trkpt><trkpt lat="40.6725313" lon="19.4796991"><ele>4.0</ele><time>2026-04-26T11:45:03.269Z</time></trkpt><trkpt lat="40.6725842" lon="19.4798226"><ele>4.0</ele><time>2026-04-26T11:45:04.27Z</time></trkpt><trkpt lat="40.6726353" lon="19.4799446"><ele>4.0</ele><time>2026-04-26T11:45:05.272Z</time></trkpt><trkpt lat="40.6726623" lon="19.4800691"><ele>3.75</ele><time>2026-04-26T11:45:06.27Z</time></trkpt><trkpt lat="40.6726612" lon="19.480201"><ele>3.5</ele><time>2026-04-26T11:45:07.269Z</time></trkpt><trkpt lat="40.6726354" lon="19.4803382"><ele>3.25</ele><time>2026-04-26T11:45:08.269Z</time></trkpt><trkpt lat="40.672589" lon="19.4804849"><ele>3.0</ele><time>2026-04-26T11:45:09.269Z</time></trkpt><trkpt lat="40.6725296" lon="19.4806486"><ele>3.666666666666667</ele><time>2026-04-26T11:45:10.27Z</time></trkpt><trkpt lat="40.6724615" lon="19.4808291"><ele>4.333333333333334</ele><time>2026-04-26T11:45:11.268Z</time></trkpt><trkpt lat="40.6723818" lon="19.4810196"><ele>5.0</ele><time>2026-04-26T11:45:12.271Z</time></trkpt><trkpt lat="40.6722966" lon="19.4812043"><ele>5.666666666666667</ele><time>2026-04-26T11:45:13.268Z</time></trkpt><trkpt lat="40.6722006" lon="19.4813866"><ele>6.333333333333334</ele><time>2026-04-26T11:45:14.27Z</time></trkpt><trkpt lat="40.672088" lon="19.48157"><ele>7.0</ele><time>2026-04-26T11:45:15.272Z</time></trkpt><trkpt lat="40.6719613" lon="19.4817464"><ele>6.333333333333334</ele><time>2026-04-26T11:45:16.271Z</time></trkpt><trkpt lat="40.671821" lon="19.4819131"><ele>5.666666666666667</ele><time>2026-04-26T11:45:17.27Z</time></trkpt><trkpt lat="40.6716674" lon="19.4820639"><ele>5.0</ele><time>2026-04-26T11:45:18.277Z</time></trkpt><trkpt lat="40.6714998" lon="19.4821948"><ele>5.0</ele><time>2026-04-26T11:45:19.272Z</time></trkpt><trkpt lat="40.6713256" lon="19.4823369"><ele>5.0</ele><time>2026-04-26T11:45:20.27Z</time></trkpt><trkpt lat="40.6711483" lon="19.4824944"><ele>5.0</ele><time>2026-04-26T11:45:21.277Z</time></trkpt><trkpt lat="40.6709728" lon="19.4826693"><ele>4.666666666666667</ele><time>2026-04-26T11:45:22.273Z</time></trkpt><trkpt lat="40.6708129" lon="19.4828516"><ele>4.333333333333333</ele><time>2026-04-26T11:45:23.27Z</time></trkpt><trkpt lat="40.6706633" lon="19.4830538"><ele>4.0</ele><time>2026-04-26T11:45:24.272Z</time></trkpt><trkpt lat="40.670514" lon="19.4832653"><ele>4.0</ele><time>2026-04-26T11:45:25.272Z</time></trkpt><trkpt lat="40.6703652" lon="19.4834807"><ele>4.0</ele><time>2026-04-26T11:45:26.271Z</time></trkpt><trkpt lat="40.6702159" lon="19.4837019"><ele>4.0</ele><time>2026-04-26T11:45:27.271Z</time></trkpt><trkpt lat="40.6700693" lon="19.4839273"><ele>4.5</ele><time>2026-04-26T11:45:28.271Z</time></trkpt><trkpt lat="40.6699182" lon="19.4841558"><ele>5.0</ele><time>2026-04-26T11:45:29.273Z</time></trkpt><trkpt lat="40.669762" lon="19.4843813"><ele>5.0</ele><time>2026-04-26T11:45:30.27Z</time></trkpt><trkpt lat="40.6696014" lon="19.4846034"><ele>5.0</ele><time>2026-04-26T11:45:31.271Z</time></trkpt><trkpt lat="40.6694358" lon="19.4848222"><ele>6.0</ele><time>2026-04-26T11:45:32.273Z</time></trkpt><trkpt lat="40.6692568" lon="19.4850238"><ele>7.0</ele><time>2026-04-26T11:45:33.271Z</time></trkpt><trkpt lat="40.6690833" lon="19.4852328"><ele>6.5</ele><time>2026-04-26T11:45:34.27Z</time></trkpt><trkpt lat="40.6689055" lon="19.4854343"><ele>6.0</ele><time>2026-04-26T11:45:35.27Z</time></trkpt><trkpt lat="40.668722" lon="19.4856296"><ele>6.0</ele><time>2026-04-26T11:45:36.271Z</time></trkpt><trkpt lat="40.6685339" lon="19.4858162"><ele>6.0</ele><time>2026-04-26T11:45:37.271Z</time></trkpt><trkpt lat="40.6683425" lon="19.4859943"><ele>6.0</ele><time>2026-04-26T11:45:38.272Z</time></trkpt><trkpt lat="40.6681475" lon="19.4861639"><ele>6.0</ele><time>2026-04-26T11:45:39.271Z</time></trkpt><trkpt lat="40.6679482" lon="19.4863272"><ele>6.0</ele><time>2026-04-26T11:45:40.27Z</time></trkpt><trkpt lat="40.6677451" lon="19.486485"><ele>6.0</ele><time>2026-04-26T11:45:41.269Z</time></trkpt><trkpt lat="40.6675352" lon="19.4866251"><ele>6.0</ele><time>2026-04-26T11:45:42.271Z</time></trkpt><trkpt lat="40.6673238" lon="19.4867644"><ele>6.0</ele><time>2026-04-26T11:45:43.27Z</time></trkpt><trkpt lat="40.6671105" lon="19.4868953"><ele>6.5</ele><time>2026-04-26T11:45:44.271Z</time></trkpt><trkpt lat="40.6668948" lon="19.4870189"><ele>7.0</ele><time>2026-04-26T11:45:45.271Z</time></trkpt><trkpt lat="40.6666765" lon="19.4871334"><ele>7.5</ele><time>2026-04-26T11:45:46.269Z</time></trkpt><trkpt lat="40.6664524" lon="19.4872436"><ele>8.0</ele><time>2026-04-26T11:45:47.271Z</time></trkpt><trkpt lat="40.6662255" lon="19.4873443"><ele>7.0</ele><time>2026-04-26T11:45:48.272Z</time></trkpt><trkpt lat="40.665995" lon="19.4874375"><ele>6.0</ele><time>2026-04-26T11:45:49.27Z</time></trkpt><trkpt lat="40.6657638" lon="19.4875259"><ele>6.0</ele><time>2026-04-26T11:45:50.271Z</time></trkpt><trkpt lat="40.665535" lon="19.4876106"><ele>6.0</ele><time>2026-04-26T11:45:51.271Z</time></trkpt><trkpt lat="40.6653053" lon="19.4876914"><ele>7.0</ele><time>2026-04-26T11:45:52.272Z</time></trkpt><trkpt lat="40.6650756" lon="19.4877717"><ele>8.0</ele><time>2026-04-26T11:45:53.275Z</time></trkpt><trkpt lat="40.6648454" lon="19.4878528"><ele>8.0</ele><time>2026-04-26T11:45:54.269Z</time></trkpt><trkpt lat="40.6646132" lon="19.4879371"><ele>8.0</ele><time>2026-04-26T11:45:55.272Z</time></trkpt><trkpt lat="40.6643783" lon="19.4880208"><ele>9.0</ele><time>2026-04-26T11:45:56.271Z</time></trkpt><trkpt lat="40.6641424" lon="19.4881051"><ele>10.0</ele><time>2026-04-26T11:45:57.271Z</time></trkpt><trkpt lat="40.6639059" lon="19.48819"><ele>10.0</ele><time>2026-04-26T11:45:58.269Z</time></trkpt><trkpt lat="40.6636699" lon="19.4882775"><ele>10.0</ele><time>2026-04-26T11:45:59.269Z</time></trkpt><trkpt lat="40.6634346" lon="19.4883678"><ele>9.5</ele><time>2026-04-26T11:46:00.271Z</time></trkpt><trkpt lat="40.6632045" lon="19.4884552"><ele>9.0</ele><time>2026-04-26T11:46:01.271Z</time></trkpt><trkpt lat="40.6629712" lon="19.4885393"><ele>9.0</ele><time>2026-04-26T11:46:02.271Z</time></trkpt><trkpt lat="40.6627369" lon="19.4886223"><ele>9.0</ele><time>2026-04-26T11:46:03.27Z</time></trkpt><trkpt lat="40.6625019" lon="19.4887045"><ele>9.0</ele><time>2026-04-26T11:46:04.269Z</time></trkpt><trkpt lat="40.6622642" lon="19.488783"><ele>9.0</ele><time>2026-04-26T11:46:05.27Z</time></trkpt><trkpt lat="40.6620284" lon="19.4888649"><ele>9.0</ele><time>2026-04-26T11:46:06.272Z</time></trkpt><trkpt lat="40.6617907" lon="19.4889465"><ele>9.0</ele><time>2026-04-26T11:46:07.272Z</time></trkpt><trkpt lat="40.6615535" lon="19.4890314"><ele>9.0</ele><time>2026-04-26T11:46:08.272Z</time></trkpt><trkpt lat="40.661317" lon="19.489119"><ele>9.0</ele><time>2026-04-26T11:46:09.269Z</time></trkpt><trkpt lat="40.66108" lon="19.4892059"><ele>8.5</ele><time>2026-04-26T11:46:10.272Z</time></trkpt><trkpt lat="40.6608433" lon="19.4892931"><ele>8.0</ele><time>2026-04-26T11:46:11.269Z</time></trkpt><trkpt lat="40.6606078" lon="19.4893792"><ele>8.0</ele><time>2026-04-26T11:46:12.27Z</time></trkpt><trkpt lat="40.6603697" lon="19.4894643"><ele>8.0</ele><time>2026-04-26T11:46:13.27Z</time></trkpt><trkpt lat="40.660131" lon="19.4895482"><ele>8.0</ele><time>2026-04-26T11:46:14.271Z</time></trkpt><trkpt lat="40.6598919" lon="19.4896315"><ele>8.0</ele><time>2026-04-26T11:46:15.27Z</time></trkpt><trkpt lat="40.6596535" lon="19.4897139"><ele>7.5</ele><time>2026-04-26T11:46:16.272Z</time></trkpt><trkpt lat="40.6594151" lon="19.4898001"><ele>7.0</ele><time>2026-04-26T11:46:17.27Z</time></trkpt><trkpt lat="40.6591775" lon="19.4898875"><ele>7.0</ele><time>2026-04-26T11:46:18.27Z</time></trkpt><trkpt lat="40.6589412" lon="19.4899745"><ele>7.0</ele><time>2026-04-26T11:46:19.269Z</time></trkpt><trkpt lat="40.6587043" lon="19.4900592"><ele>6.5</ele><time>2026-04-26T11:46:20.269Z</time></trkpt><trkpt lat="40.658468" lon="19.4901425"><ele>6.0</ele><time>2026-04-26T11:46:21.271Z</time></trkpt><trkpt lat="40.6582302" lon="19.4902302"><ele>6.0</ele><time>2026-04-26T11:46:22.271Z</time></trkpt><trkpt lat="40.6579897" lon="19.4903172"><ele>6.0</ele><time>2026-04-26T11:46:23.272Z</time></trkpt><trkpt lat="40.6577503" lon="19.4904073"><ele>6.0</ele><time>2026-04-26T11:46:24.269Z</time></trkpt><trkpt lat="40.6575097" lon="19.4904996"><ele>6.0</ele><time>2026-04-26T11:46:25.271Z</time></trkpt><trkpt lat="40.6572674" lon="19.4905985"><ele>6.0</ele><time>2026-04-26T11:46:26.271Z</time></trkpt><trkpt lat="40.6570227" lon="19.4907093"><ele>6.0</ele><time>2026-04-26T11:46:27.271Z</time></trkpt><trkpt lat="40.6567786" lon="19.490829"><ele>5.5</ele><time>2026-04-26T11:46:28.271Z</time></trkpt><trkpt lat="40.6565319" lon="19.4909545"><ele>5.0</ele><time>2026-04-26T11:46:29.27Z</time></trkpt><trkpt lat="40.6562855" lon="19.4910896"><ele>4.5</ele><time>2026-04-26T11:46:30.271Z</time></trkpt><trkpt lat="40.6560474" lon="19.4912288"><ele>4.0</ele><time>2026-04-26T11:46:31.275Z</time></trkpt><trkpt lat="40.6558101" lon="19.491376"><ele>5.0</ele><time>2026-04-26T11:46:32.272Z</time></trkpt><trkpt lat="40.6555731" lon="19.4915279"><ele>6.0</ele><time>2026-04-26T11:46:33.272Z</time></trkpt><trkpt lat="40.6553387" lon="19.4916812"><ele>5.5</ele><time>2026-04-26T11:46:34.27Z</time></trkpt><trkpt lat="40.6551111" lon="19.4918349"><ele>5.0</ele><time>2026-04-26T11:46:35.269Z</time></trkpt><trkpt lat="40.6548843" lon="19.4919812"><ele>5.5</ele><time>2026-04-26T11:46:36.271Z</time></trkpt><trkpt lat="40.6546584" lon="19.4921327"><ele>6.0</ele><time>2026-04-26T11:46:37.274Z</time></trkpt><trkpt lat="40.6544305" lon="19.4922861"><ele>6.0</ele><time>2026-04-26T11:46:38.27Z</time></trkpt><trkpt lat="40.6541999" lon="19.4924413"><ele>6.0</ele><time>2026-04-26T11:46:39.27Z</time></trkpt><trkpt lat="40.6539667" lon="19.492598"><ele>6.0</ele><time>2026-04-26T11:46:40.27Z</time></trkpt><trkpt lat="40.6537317" lon="19.4927572"><ele>6.0</ele><time>2026-04-26T11:46:41.269Z</time></trkpt><trkpt lat="40.6534956" lon="19.4929187"><ele>6.5</ele><time>2026-04-26T11:46:42.272Z</time></trkpt><trkpt lat="40.6532586" lon="19.4930793"><ele>7.0</ele><time>2026-04-26T11:46:43.268Z</time></trkpt><trkpt lat="40.6530205" lon="19.4932395"><ele>7.0</ele><time>2026-04-26T11:46:44.27Z</time></trkpt><trkpt lat="40.6527814" lon="19.4934"><ele>7.0</ele><time>2026-04-26T11:46:45.27Z</time></trkpt><trkpt lat="40.6525421" lon="19.4935614"><ele>7.0</ele><time>2026-04-26T11:46:46.27Z</time></trkpt><trkpt lat="40.6523018" lon="19.4937229"><ele>7.0</ele><time>2026-04-26T11:46:47.271Z</time></trkpt><trkpt lat="40.6520596" lon="19.4938836"><ele>6.5</ele><time>2026-04-26T11:46:48.27Z</time></trkpt><trkpt lat="40.6518177" lon="19.4940447"><ele>6.0</ele><time>2026-04-26T11:46:49.269Z</time></trkpt><trkpt lat="40.6515767" lon="19.4942039"><ele>6.0</ele><time>2026-04-26T11:46:50.269Z</time></trkpt><trkpt lat="40.6513381" lon="19.4943625"><ele>6.0</ele><time>2026-04-26T11:46:51.268Z</time></trkpt><trkpt lat="40.651103" lon="19.4945192"><ele>5.5</ele><time>2026-04-26T11:46:52.27Z</time></trkpt><trkpt lat="40.6508713" lon="19.4946756"><ele>5.0</ele><time>2026-04-26T11:46:53.269Z</time></trkpt><trkpt lat="40.6506426" lon="19.4948304"><ele>5.0</ele><time>2026-04-26T11:46:54.269Z</time></trkpt><trkpt lat="40.6504155" lon="19.4949791"><ele>5.0</ele><time>2026-04-26T11:46:55.27Z</time></trkpt><trkpt lat="40.6501906" lon="19.4951262"><ele>5.0</ele><time>2026-04-26T11:46:56.27Z</time></trkpt><trkpt lat="40.6499665" lon="19.495274"><ele>5.0</ele><time>2026-04-26T11:46:57.272Z</time></trkpt><trkpt lat="40.649744" lon="19.4954225"><ele>5.0</ele><time>2026-04-26T11:46:58.268Z</time></trkpt><trkpt lat="40.6495231" lon="19.4955716"><ele>5.0</ele><time>2026-04-26T11:46:59.272Z</time></trkpt><trkpt lat="40.6493044" lon="19.49572"><ele>5.0</ele><time>2026-04-26T11:47:00.268Z</time></trkpt><trkpt lat="40.6490872" lon="19.4958655"><ele>5.0</ele><time>2026-04-26T11:47:01.27Z</time></trkpt><trkpt lat="40.6488704" lon="19.4960082"><ele>5.0</ele><time>2026-04-26T11:47:02.27Z</time></trkpt><trkpt lat="40.6486553" lon="19.4961516"><ele>5.0</ele><time>2026-04-26T11:47:03.271Z</time></trkpt><trkpt lat="40.648446" lon="19.4963038"><ele>5.0</ele><time>2026-04-26T11:47:04.268Z</time></trkpt><trkpt lat="40.6482394" lon="19.4964415"><ele>5.0</ele><time>2026-04-26T11:47:05.27Z</time></trkpt><trkpt lat="40.6480331" lon="19.4965757"><ele>5.0</ele><time>2026-04-26T11:47:06.274Z</time></trkpt><trkpt lat="40.6478262" lon="19.4967123"><ele>5.0</ele><time>2026-04-26T11:47:07.268Z</time></trkpt><trkpt lat="40.6476193" lon="19.4968513"><ele>5.5</ele><time>2026-04-26T11:47:08.269Z</time></trkpt><trkpt lat="40.6474136" lon="19.4969924"><ele>6.0</ele><time>2026-04-26T11:47:09.269Z</time></trkpt><trkpt lat="40.6472082" lon="19.4971321"><ele>6.5</ele><time>2026-04-26T11:47:10.27Z</time></trkpt><trkpt lat="40.6470045" lon="19.4972711"><ele>7.0</ele><time>2026-04-26T11:47:11.268Z</time></trkpt><trkpt lat="40.6468021" lon="19.4974079"><ele>7.0</ele><time>2026-04-26T11:47:12.267Z</time></trkpt><trkpt lat="40.6465996" lon="19.4975434"><ele>7.0</ele><time>2026-04-26T11:47:13.268Z</time></trkpt><trkpt lat="40.6463947" lon="19.4976786"><ele>7.0</ele><time>2026-04-26T11:47:14.269Z</time></trkpt><trkpt lat="40.6461866" lon="19.4978153"><ele>7.0</ele><time>2026-04-26T11:47:15.269Z</time></trkpt><trkpt lat="40.645976" lon="19.497955"><ele>6.5</ele><time>2026-04-26T11:47:16.269Z</time></trkpt><trkpt lat="40.6457656" lon="19.4980978"><ele>6.0</ele><time>2026-04-26T11:47:17.27Z</time></trkpt><trkpt lat="40.6455564" lon="19.4982418"><ele>6.0</ele><time>2026-04-26T11:47:18.273Z</time></trkpt><trkpt lat="40.6453438" lon="19.4983876"><ele>6.0</ele><time>2026-04-26T11:47:19.269Z</time></trkpt><trkpt lat="40.6451289" lon="19.4985298"><ele>6.0</ele><time>2026-04-26T11:47:20.271Z</time></trkpt><trkpt lat="40.6449126" lon="19.4986719"><ele>6.0</ele><time>2026-04-26T11:47:21.269Z</time></trkpt><trkpt lat="40.6446969" lon="19.4988146"><ele>6.0</ele><time>2026-04-26T11:47:22.271Z</time></trkpt><trkpt lat="40.6444821" lon="19.4989585"><ele>6.0</ele><time>2026-04-26T11:47:23.27Z</time></trkpt><trkpt lat="40.644267" lon="19.4991009"><ele>6.0</ele><time>2026-04-26T11:47:24.272Z</time></trkpt><trkpt lat="40.6440505" lon="19.4992435"><ele>6.0</ele><time>2026-04-26T11:47:25.271Z</time></trkpt><trkpt lat="40.6438341" lon="19.499389"><ele>6.0</ele><time>2026-04-26T11:47:26.271Z</time></trkpt><trkpt lat="40.6436175" lon="19.499527"><ele>6.0</ele><time>2026-04-26T11:47:27.272Z</time></trkpt><trkpt lat="40.6434024" lon="19.4996678"><ele>6.5</ele><time>2026-04-26T11:47:28.27Z</time></trkpt><trkpt lat="40.6431872" lon="19.4998154"><ele>7.0</ele><time>2026-04-26T11:47:29.271Z</time></trkpt><trkpt lat="40.6429729" lon="19.4999581"><ele>6.5</ele><time>2026-04-26T11:47:30.267Z</time></trkpt><trkpt lat="40.6427605" lon="19.5000993"><ele>6.0</ele><time>2026-04-26T11:47:31.269Z</time></trkpt><trkpt lat="40.6425508" lon="19.5002393"><ele>6.0</ele><time>2026-04-26T11:47:32.268Z</time></trkpt><trkpt lat="40.6423424" lon="19.5003776"><ele>6.0</ele><time>2026-04-26T11:47:33.269Z</time></trkpt><trkpt lat="40.6421334" lon="19.5005171"><ele>6.5</ele><time>2026-04-26T11:47:34.27Z</time></trkpt><trkpt lat="40.6419238" lon="19.5006562"><ele>7.0</ele><time>2026-04-26T11:47:35.269Z</time></trkpt><trkpt lat="40.6417159" lon="19.500796"><ele>7.0</ele><time>2026-04-26T11:47:36.271Z</time></trkpt><trkpt lat="40.6415094" lon="19.5009334"><ele>7.0</ele><time>2026-04-26T11:47:37.271Z</time></trkpt><trkpt lat="40.6413051" lon="19.5010705"><ele>7.333333333333334</ele><time>2026-04-26T11:47:38.271Z</time></trkpt><trkpt lat="40.641104" lon="19.5012037"><ele>7.666666666666666</ele><time>2026-04-26T11:47:39.271Z</time></trkpt><trkpt lat="40.6409054" lon="19.501336"><ele>8.0</ele><time>2026-04-26T11:47:40.271Z</time></trkpt><trkpt lat="40.6407072" lon="19.5014689"><ele>8.0</ele><time>2026-04-26T11:47:41.269Z</time></trkpt><trkpt lat="40.6405092" lon="19.501599"><ele>8.0</ele><time>2026-04-26T11:47:42.268Z</time></trkpt><trkpt lat="40.6403117" lon="19.501729"><ele>8.0</ele><time>2026-04-26T11:47:43.269Z</time></trkpt><trkpt lat="40.6401154" lon="19.5018602"><ele>8.333333333333332</ele><time>2026-04-26T11:47:44.268Z</time></trkpt><trkpt lat="40.6399173" lon="19.5019917"><ele>8.666666666666666</ele><time>2026-04-26T11:47:45.27Z</time></trkpt><trkpt lat="40.6397219" lon="19.5021184"><ele>9.0</ele><time>2026-04-26T11:47:46.268Z</time></trkpt><trkpt lat="40.6395172" lon="19.5022535"><ele>8.5</ele><time>2026-04-26T11:47:47.27Z</time></trkpt><trkpt lat="40.6393114" lon="19.50239"><ele>8.0</ele><time>2026-04-26T11:47:48.269Z</time></trkpt><trkpt lat="40.6391048" lon="19.5025291"><ele>8.0</ele><time>2026-04-26T11:47:49.269Z</time></trkpt><trkpt lat="40.6388995" lon="19.5026702"><ele>8.0</ele><time>2026-04-26T11:47:50.27Z</time></trkpt><trkpt lat="40.6386906" lon="19.5028108"><ele>8.0</ele><time>2026-04-26T11:47:51.27Z</time></trkpt><trkpt lat="40.6384806" lon="19.5029509"><ele>8.0</ele><time>2026-04-26T11:47:52.27Z</time></trkpt><trkpt lat="40.6382697" lon="19.5030914"><ele>8.0</ele><time>2026-04-26T11:47:53.269Z</time></trkpt><trkpt lat="40.6380591" lon="19.5032326"><ele>8.0</ele><time>2026-04-26T11:47:54.269Z</time></trkpt><trkpt lat="40.6378447" lon="19.5033738"><ele>8.5</ele><time>2026-04-26T11:47:55.268Z</time></trkpt><trkpt lat="40.637629" lon="19.5035174"><ele>9.0</ele><time>2026-04-26T11:47:56.271Z</time></trkpt><trkpt lat="40.6374141" lon="19.5036666"><ele>9.0</ele><time>2026-04-26T11:47:57.269Z</time></trkpt><trkpt lat="40.6371993" lon="19.5038212"><ele>9.0</ele><time>2026-04-26T11:47:58.269Z</time></trkpt><trkpt lat="40.6369839" lon="19.5039734"><ele>8.5</ele><time>2026-04-26T11:47:59.271Z</time></trkpt><trkpt lat="40.6367674" lon="19.5041269"><ele>8.0</ele><time>2026-04-26T11:48:00.268Z</time></trkpt><trkpt lat="40.6365516" lon="19.5042798"><ele>8.0</ele><time>2026-04-26T11:48:01.271Z</time></trkpt><trkpt lat="40.6363385" lon="19.5044337"><ele>8.0</ele><time>2026-04-26T11:48:02.271Z</time></trkpt><trkpt lat="40.6361271" lon="19.5045868"><ele>8.0</ele><time>2026-04-26T11:48:03.27Z</time></trkpt><trkpt lat="40.635915" lon="19.5047396"><ele>8.0</ele><time>2026-04-26T11:48:04.27Z</time></trkpt><trkpt lat="40.6357054" lon="19.50489"><ele>8.0</ele><time>2026-04-26T11:48:05.272Z</time></trkpt><trkpt lat="40.635499" lon="19.5050403"><ele>8.0</ele><time>2026-04-26T11:48:06.271Z</time></trkpt><trkpt lat="40.635295" lon="19.5051917"><ele>7.5</ele><time>2026-04-26T11:48:07.27Z</time></trkpt><trkpt lat="40.6350971" lon="19.5053444"><ele>7.0</ele><time>2026-04-26T11:48:08.271Z</time></trkpt><trkpt lat="40.6349015" lon="19.5055018"><ele>6.5</ele><time>2026-04-26T11:48:09.27Z</time></trkpt><trkpt lat="40.6347043" lon="19.5056622"><ele>6.0</ele><time>2026-04-26T11:48:10.269Z</time></trkpt><trkpt lat="40.6345046" lon="19.5058208"><ele>7.0</ele><time>2026-04-26T11:48:11.269Z</time></trkpt><trkpt lat="40.634297" lon="19.5059624"><ele>8.0</ele><time>2026-04-26T11:48:12.27Z</time></trkpt><trkpt lat="40.6340918" lon="19.5061113"><ele>7.0</ele><time>2026-04-26T11:48:13.27Z</time></trkpt><trkpt lat="40.6338887" lon="19.5062651"><ele>6.0</ele><time>2026-04-26T11:48:14.272Z</time></trkpt><trkpt lat="40.6336868" lon="19.5064238"><ele>6.5</ele><time>2026-04-26T11:48:15.269Z</time></trkpt><trkpt lat="40.6334846" lon="19.5065848"><ele>7.0</ele><time>2026-04-26T11:48:16.269Z</time></trkpt><trkpt lat="40.6332841" lon="19.5067542"><ele>7.0</ele><time>2026-04-26T11:48:17.27Z</time></trkpt><trkpt lat="40.633083" lon="19.5069201"><ele>7.0</ele><time>2026-04-26T11:48:18.269Z</time></trkpt><trkpt lat="40.6328829" lon="19.5070855"><ele>6.5</ele><time>2026-04-26T11:48:19.269Z</time></trkpt><trkpt lat="40.632685" lon="19.507244"><ele>6.0</ele><time>2026-04-26T11:48:20.271Z</time></trkpt><trkpt lat="40.6324889" lon="19.5074005"><ele>6.0</ele><time>2026-04-26T11:48:21.268Z</time></trkpt><trkpt lat="40.6322948" lon="19.5075585"><ele>6.0</ele><time>2026-04-26T11:48:22.268Z</time></trkpt><trkpt lat="40.6321003" lon="19.5077153"><ele>6.0</ele><time>2026-04-26T11:48:23.271Z</time></trkpt><trkpt lat="40.6319085" lon="19.5078668"><ele>6.0</ele><time>2026-04-26T11:48:24.272Z</time></trkpt><trkpt lat="40.6317171" lon="19.5080203"><ele>6.0</ele><time>2026-04-26T11:48:25.27Z</time></trkpt><trkpt lat="40.6315239" lon="19.5081702"><ele>6.0</ele><time>2026-04-26T11:48:26.27Z</time></trkpt><trkpt lat="40.6313316" lon="19.5083152"><ele>6.0</ele><time>2026-04-26T11:48:27.269Z</time></trkpt><trkpt lat="40.6311408" lon="19.5084633"><ele>6.0</ele><time>2026-04-26T11:48:28.269Z</time></trkpt><trkpt lat="40.6309509" lon="19.5086173"><ele>6.333333333333334</ele><time>2026-04-26T11:48:29.272Z</time></trkpt><trkpt lat="40.6307598" lon="19.5087718"><ele>6.666666666666667</ele><time>2026-04-26T11:48:30.271Z</time></trkpt><trkpt lat="40.6305686" lon="19.5089288"><ele>7.0</ele><time>2026-04-26T11:48:31.272Z</time></trkpt><trkpt lat="40.630377" lon="19.5090885"><ele>6.5</ele><time>2026-04-26T11:48:32.27Z</time></trkpt><trkpt lat="40.6301852" lon="19.5092478"><ele>6.0</ele><time>2026-04-26T11:48:33.27Z</time></trkpt><trkpt lat="40.6299927" lon="19.5094054"><ele>6.0</ele><time>2026-04-26T11:48:34.269Z</time></trkpt><trkpt lat="40.6297986" lon="19.5095636"><ele>6.0</ele><time>2026-04-26T11:48:35.269Z</time></trkpt><trkpt lat="40.6296047" lon="19.5097226"><ele>7.0</ele><time>2026-04-26T11:48:36.271Z</time></trkpt><trkpt lat="40.6294099" lon="19.5098819"><ele>8.0</ele><time>2026-04-26T11:48:37.268Z</time></trkpt><trkpt lat="40.6292143" lon="19.5100381"><ele>8.0</ele><time>2026-04-26T11:48:38.27Z</time></trkpt><trkpt lat="40.6290193" lon="19.5101945"><ele>8.0</ele><time>2026-04-26T11:48:39.27Z</time></trkpt><trkpt lat="40.6288283" lon="19.510355"><ele>7.666666666666666</ele><time>2026-04-26T11:48:40.269Z</time></trkpt><trkpt lat="40.6286381" lon="19.5105092"><ele>7.333333333333334</ele><time>2026-04-26T11:48:41.268Z</time></trkpt><trkpt lat="40.6284509" lon="19.5106643"><ele>7.0</ele><time>2026-04-26T11:48:42.271Z</time></trkpt><trkpt lat="40.6282649" lon="19.5108169"><ele>7.0</ele><time>2026-04-26T11:48:43.27Z</time></trkpt><trkpt lat="40.6280843" lon="19.5109691"><ele>7.0</ele><time>2026-04-26T11:48:44.27Z</time></trkpt><trkpt lat="40.6279036" lon="19.5111202"><ele>7.0</ele><time>2026-04-26T11:48:45.27Z</time></trkpt><trkpt lat="40.6277253" lon="19.5112705"><ele>7.333333333333334</ele><time>2026-04-26T11:48:46.27Z</time></trkpt><trkpt lat="40.6275469" lon="19.5114075"><ele>7.666666666666666</ele><time>2026-04-26T11:48:47.271Z</time></trkpt><trkpt lat="40.6273637" lon="19.5115429"><ele>8.0</ele><time>2026-04-26T11:48:48.27Z</time></trkpt><trkpt lat="40.6271803" lon="19.5116819"><ele>8.0</ele><time>2026-04-26T11:48:49.269Z</time></trkpt><trkpt lat="40.6269991" lon="19.5118255"><ele>8.0</ele><time>2026-04-26T11:48:50.269Z</time></trkpt><trkpt lat="40.6268194" lon="19.5119711"><ele>8.0</ele><time>2026-04-26T11:48:51.272Z</time></trkpt><trkpt lat="40.6266416" lon="19.5121166"><ele>8.0</ele><time>2026-04-26T11:48:52.271Z</time></trkpt><trkpt lat="40.6264657" lon="19.5122613"><ele>8.0</ele><time>2026-04-26T11:48:53.269Z</time></trkpt><trkpt lat="40.6262883" lon="19.5124026"><ele>8.0</ele><time>2026-04-26T11:48:54.27Z</time></trkpt><trkpt lat="40.6261141" lon="19.5125371"><ele>8.0</ele><time>2026-04-26T11:48:55.269Z</time></trkpt><trkpt lat="40.6259428" lon="19.5126715"><ele>8.0</ele><time>2026-04-26T11:48:56.269Z</time></trkpt><trkpt lat="40.6257711" lon="19.51281"><ele>8.0</ele><time>2026-04-26T11:48:57.269Z</time></trkpt><trkpt lat="40.6256018" lon="19.5129468"><ele>8.333333333333332</ele><time>2026-04-26T11:48:58.268Z</time></trkpt><trkpt lat="40.6254358" lon="19.5130848"><ele>8.666666666666666</ele><time>2026-04-26T11:48:59.269Z</time></trkpt><trkpt lat="40.6252706" lon="19.5132196"><ele>9.0</ele><time>2026-04-26T11:49:00.272Z</time></trkpt><trkpt lat="40.625106" lon="19.5133539"><ele>9.0</ele><time>2026-04-26T11:49:01.272Z</time></trkpt><trkpt lat="40.6249439" lon="19.5134853"><ele>9.0</ele><time>2026-04-26T11:49:02.268Z</time></trkpt><trkpt lat="40.6247872" lon="19.5136107"><ele>9.0</ele><time>2026-04-26T11:49:03.271Z</time></trkpt><trkpt lat="40.6246279" lon="19.5137395"><ele>8.333333333333334</ele><time>2026-04-26T11:49:04.273Z</time></trkpt><trkpt lat="40.6244656" lon="19.5138683"><ele>7.666666666666667</ele><time>2026-04-26T11:49:05.27Z</time></trkpt><trkpt lat="40.6243012" lon="19.5140005"><ele>7.0</ele><time>2026-04-26T11:49:06.27Z</time></trkpt><trkpt lat="40.6241368" lon="19.5141363"><ele>7.0</ele><time>2026-04-26T11:49:07.271Z</time></trkpt><trkpt lat="40.6239735" lon="19.5142803"><ele>7.0</ele><time>2026-04-26T11:49:08.27Z</time></trkpt><trkpt lat="40.6238077" lon="19.5144119"><ele>7.0</ele><time>2026-04-26T11:49:09.271Z</time></trkpt><trkpt lat="40.6236449" lon="19.5145413"><ele>7.0</ele><time>2026-04-26T11:49:10.268Z</time></trkpt><trkpt lat="40.6234838" lon="19.5146689"><ele>7.0</ele><time>2026-04-26T11:49:11.268Z</time></trkpt><trkpt lat="40.6233255" lon="19.5147963"><ele>7.0</ele><time>2026-04-26T11:49:12.27Z</time></trkpt><trkpt lat="40.623169" lon="19.5149219"><ele>7.0</ele><time>2026-04-26T11:49:13.269Z</time></trkpt><trkpt lat="40.6230137" lon="19.5150424"><ele>7.0</ele><time>2026-04-26T11:49:14.268Z</time></trkpt><trkpt lat="40.6228599" lon="19.5151676"><ele>7.0</ele><time>2026-04-26T11:49:15.269Z</time></trkpt><trkpt lat="40.6227029" lon="19.5152885"><ele>7.333333333333334</ele><time>2026-04-26T11:49:16.269Z</time></trkpt><trkpt lat="40.6225487" lon="19.5154166"><ele>7.666666666666666</ele><time>2026-04-26T11:49:17.268Z</time></trkpt><trkpt lat="40.622396" lon="19.5155423"><ele>8.0</ele><time>2026-04-26T11:49:18.269Z</time></trkpt><trkpt lat="40.6222439" lon="19.5156674"><ele>8.0</ele><time>2026-04-26T11:49:19.269Z</time></trkpt><trkpt lat="40.6220924" lon="19.5157901"><ele>8.0</ele><time>2026-04-26T11:49:20.27Z</time></trkpt><trkpt lat="40.6219411" lon="19.5159134"><ele>8.0</ele><time>2026-04-26T11:49:21.269Z</time></trkpt><trkpt lat="40.6217872" lon="19.5160369"><ele>7.666666666666666</ele><time>2026-04-26T11:49:22.268Z</time></trkpt><trkpt lat="40.621631" lon="19.516161"><ele>7.333333333333334</ele><time>2026-04-26T11:49:23.269Z</time></trkpt><trkpt lat="40.6214736" lon="19.5162855"><ele>7.0</ele><time>2026-04-26T11:49:24.269Z</time></trkpt><trkpt lat="40.6213201" lon="19.516411"><ele>7.0</ele><time>2026-04-26T11:49:25.268Z</time></trkpt><trkpt lat="40.6211641" lon="19.5165217"><ele>7.0</ele><time>2026-04-26T11:49:26.269Z</time></trkpt><trkpt lat="40.6210117" lon="19.5166433"><ele>7.0</ele><time>2026-04-26T11:49:27.27Z</time></trkpt><trkpt lat="40.6208609" lon="19.5167623"><ele>7.333333333333334</ele><time>2026-04-26T11:49:28.27Z</time></trkpt><trkpt lat="40.6207119" lon="19.5168814"><ele>7.666666666666666</ele><time>2026-04-26T11:49:29.271Z</time></trkpt><trkpt lat="40.6205664" lon="19.5170019"><ele>8.0</ele><time>2026-04-26T11:49:30.27Z</time></trkpt><trkpt lat="40.6204164" lon="19.51712"><ele>8.0</ele><time>2026-04-26T11:49:31.269Z</time></trkpt><trkpt lat="40.6202645" lon="19.5172427"><ele>8.0</ele><time>2026-04-26T11:49:32.27Z</time></trkpt><trkpt lat="40.6201107" lon="19.5173676"><ele>8.0</ele><time>2026-04-26T11:49:33.268Z</time></trkpt><trkpt lat="40.6199544" lon="19.5174999"><ele>8.0</ele><time>2026-04-26T11:49:34.269Z</time></trkpt><trkpt lat="40.6198016" lon="19.5176344"><ele>8.0</ele><time>2026-04-26T11:49:35.271Z</time></trkpt><trkpt lat="40.619653" lon="19.5177594"><ele>8.0</ele><time>2026-04-26T11:49:36.27Z</time></trkpt><trkpt lat="40.6194931" lon="19.5178879"><ele>8.333333333333332</ele><time>2026-04-26T11:49:37.268Z</time></trkpt><trkpt lat="40.6193317" lon="19.5180137"><ele>8.666666666666666</ele><time>2026-04-26T11:49:38.27Z</time></trkpt><trkpt lat="40.6191699" lon="19.5181434"><ele>9.0</ele><time>2026-04-26T11:49:39.269Z</time></trkpt><trkpt lat="40.6190072" lon="19.5182741"><ele>9.0</ele><time>2026-04-26T11:49:40.269Z</time></trkpt><trkpt lat="40.6188456" lon="19.5184071"><ele>9.0</ele><time>2026-04-26T11:49:41.269Z</time></trkpt><trkpt lat="40.6186819" lon="19.5185406"><ele>9.0</ele><time>2026-04-26T11:49:42.27Z</time></trkpt><trkpt lat="40.6185219" lon="19.518676"><ele>9.0</ele><time>2026-04-26T11:49:43.271Z</time></trkpt><trkpt lat="40.6183562" lon="19.5188079"><ele>9.0</ele><time>2026-04-26T11:49:44.271Z</time></trkpt><trkpt lat="40.6181944" lon="19.5189395"><ele>9.0</ele><time>2026-04-26T11:49:45.269Z</time></trkpt><trkpt lat="40.6180345" lon="19.5190653"><ele>9.0</ele><time>2026-04-26T11:49:46.27Z</time></trkpt><trkpt lat="40.6178757" lon="19.5191955"><ele>9.0</ele><time>2026-04-26T11:49:47.271Z</time></trkpt><trkpt lat="40.6177166" lon="19.5193298"><ele>9.0</ele><time>2026-04-26T11:49:48.271Z</time></trkpt><trkpt lat="40.6175544" lon="19.5194643"><ele>8.666666666666666</ele><time>2026-04-26T11:49:49.269Z</time></trkpt><trkpt lat="40.6173959" lon="19.5195972"><ele>8.333333333333332</ele><time>2026-04-26T11:49:50.269Z</time></trkpt><trkpt lat="40.6172343" lon="19.5197273"><ele>8.0</ele><time>2026-04-26T11:49:51.27Z</time></trkpt><trkpt lat="40.6170693" lon="19.5198576"><ele>8.333333333333332</ele><time>2026-04-26T11:49:52.272Z</time></trkpt><trkpt lat="40.6168993" lon="19.5199831"><ele>8.666666666666666</ele><time>2026-04-26T11:49:53.271Z</time></trkpt><trkpt lat="40.6167319" lon="19.5201086"><ele>9.0</ele><time>2026-04-26T11:49:54.269Z</time></trkpt><trkpt lat="40.6165647" lon="19.5202436"><ele>9.0</ele><time>2026-04-26T11:49:55.269Z</time></trkpt><trkpt lat="40.6163921" lon="19.5203806"><ele>9.0</ele><time>2026-04-26T11:49:56.269Z</time></trkpt><trkpt lat="40.6162156" lon="19.5205229"><ele>9.0</ele><time>2026-04-26T11:49:57.27Z</time></trkpt><trkpt lat="40.6160352" lon="19.5206705"><ele>8.666666666666666</ele><time>2026-04-26T11:49:58.271Z</time></trkpt><trkpt lat="40.6158536" lon="19.5208182"><ele>8.333333333333332</ele><time>2026-04-26T11:49:59.273Z</time></trkpt><trkpt lat="40.6156697" lon="19.5209672"><ele>8.0</ele><time>2026-04-26T11:50:00.271Z</time></trkpt><trkpt lat="40.6154821" lon="19.5211147"><ele>8.0</ele><time>2026-04-26T11:50:01.268Z</time></trkpt><trkpt lat="40.615294" lon="19.5212672"><ele>8.0</ele><time>2026-04-26T11:50:02.27Z</time></trkpt><trkpt lat="40.6150998" lon="19.5214159"><ele>8.0</ele><time>2026-04-26T11:50:03.268Z</time></trkpt><trkpt lat="40.614909" lon="19.5215708"><ele>8.0</ele><time>2026-04-26T11:50:04.268Z</time></trkpt><trkpt lat="40.6147194" lon="19.5217271"><ele>8.0</ele><time>2026-04-26T11:50:05.271Z</time></trkpt><trkpt lat="40.6145309" lon="19.521893"><ele>8.0</ele><time>2026-04-26T11:50:06.269Z</time></trkpt><trkpt lat="40.6143398" lon="19.5220537"><ele>8.0</ele><time>2026-04-26T11:50:07.27Z</time></trkpt><trkpt lat="40.6141503" lon="19.522213"><ele>8.0</ele><time>2026-04-26T11:50:08.271Z</time></trkpt><trkpt lat="40.6139656" lon="19.5223807"><ele>8.0</ele><time>2026-04-26T11:50:09.27Z</time></trkpt><trkpt lat="40.6137811" lon="19.5225523"><ele>8.0</ele><time>2026-04-26T11:50:10.27Z</time></trkpt><trkpt lat="40.6136015" lon="19.5227242"><ele>8.0</ele><time>2026-04-26T11:50:11.269Z</time></trkpt><trkpt lat="40.6134256" lon="19.5229025"><ele>8.0</ele><time>2026-04-26T11:50:12.268Z</time></trkpt><trkpt lat="40.6132533" lon="19.5230856"><ele>8.0</ele><time>2026-04-26T11:50:13.269Z</time></trkpt><trkpt lat="40.613088" lon="19.5232746"><ele>8.0</ele><time>2026-04-26T11:50:14.27Z</time></trkpt><trkpt lat="40.6129257" lon="19.523466"><ele>8.0</ele><time>2026-04-26T11:50:15.271Z</time></trkpt><trkpt lat="40.612764" lon="19.5236561"><ele>8.0</ele><time>2026-04-26T11:50:16.269Z</time></trkpt><trkpt lat="40.6126018" lon="19.5238514"><ele>8.0</ele><time>2026-04-26T11:50:17.271Z</time></trkpt><trkpt lat="40.6124414" lon="19.5240518"><ele>8.0</ele><time>2026-04-26T11:50:18.268Z</time></trkpt><trkpt lat="40.6122868" lon="19.5242525"><ele>8.0</ele><time>2026-04-26T11:50:19.269Z</time></trkpt><trkpt lat="40.6121352" lon="19.5244588"><ele>8.0</ele><time>2026-04-26T11:50:20.269Z</time></trkpt><trkpt lat="40.6119903" lon="19.5246723"><ele>8.0</ele><time>2026-04-26T11:50:21.272Z</time></trkpt><trkpt lat="40.6118481" lon="19.5248866"><ele>8.0</ele><time>2026-04-26T11:50:22.269Z</time></trkpt><trkpt lat="40.6117091" lon="19.5251022"><ele>8.0</ele><time>2026-04-26T11:50:23.27Z</time></trkpt><trkpt lat="40.6115713" lon="19.5253244"><ele>8.0</ele><time>2026-04-26T11:50:24.269Z</time></trkpt><trkpt lat="40.611438" lon="19.5255384"><ele>8.0</ele><time>2026-04-26T11:50:25.27Z</time></trkpt><trkpt lat="40.6113052" lon="19.5257615"><ele>8.0</ele><time>2026-04-26T11:50:26.269Z</time></trkpt><trkpt lat="40.6111805" lon="19.5259858"><ele>8.0</ele><time>2026-04-26T11:50:27.269Z</time></trkpt><trkpt lat="40.6110596" lon="19.5262131"><ele>7.666666666666666</ele><time>2026-04-26T11:50:28.269Z</time></trkpt><trkpt lat="40.6109418" lon="19.5264463"><ele>7.333333333333334</ele><time>2026-04-26T11:50:29.271Z</time></trkpt><trkpt lat="40.6108245" lon="19.5266911"><ele>7.0</ele><time>2026-04-26T11:50:30.269Z</time></trkpt><trkpt lat="40.610707" lon="19.5269359"><ele>6.666666666666667</ele><time>2026-04-26T11:50:31.271Z</time></trkpt><trkpt lat="40.6105887" lon="19.5271795"><ele>6.333333333333334</ele><time>2026-04-26T11:50:32.271Z</time></trkpt><trkpt lat="40.6104789" lon="19.5274189"><ele>6.0</ele><time>2026-04-26T11:50:33.271Z</time></trkpt><trkpt lat="40.6103796" lon="19.5276413"><ele>6.333333333333334</ele><time>2026-04-26T11:50:34.269Z</time></trkpt><trkpt lat="40.6102909" lon="19.5278463"><ele>6.666666666666667</ele><time>2026-04-26T11:50:35.271Z</time></trkpt><trkpt lat="40.6102088" lon="19.5280415"><ele>7.0</ele><time>2026-04-26T11:50:36.273Z</time></trkpt><trkpt lat="40.6101341" lon="19.5282329"><ele>7.333333333333334</ele><time>2026-04-26T11:50:37.269Z</time></trkpt><trkpt lat="40.6100642" lon="19.5284293"><ele>7.666666666666666</ele><time>2026-04-26T11:50:38.27Z</time></trkpt><trkpt lat="40.6099924" lon="19.5286375"><ele>8.0</ele><time>2026-04-26T11:50:39.27Z</time></trkpt><trkpt lat="40.6099231" lon="19.5288651"><ele>8.0</ele><time>2026-04-26T11:50:40.27Z</time></trkpt><trkpt lat="40.6098501" lon="19.52911"><ele>8.0</ele><time>2026-04-26T11:50:41.269Z</time></trkpt><trkpt lat="40.6097779" lon="19.5293748"><ele>8.0</ele><time>2026-04-26T11:50:42.27Z</time></trkpt><trkpt lat="40.6097068" lon="19.529652"><ele>8.0</ele><time>2026-04-26T11:50:43.27Z</time></trkpt><trkpt lat="40.6096267" lon="19.5299338"><ele>8.0</ele><time>2026-04-26T11:50:44.27Z</time></trkpt><trkpt lat="40.609546" lon="19.5302095"><ele>8.0</ele><time>2026-04-26T11:50:45.272Z</time></trkpt><trkpt lat="40.60947" lon="19.5304837"><ele>8.0</ele><time>2026-04-26T11:50:46.269Z</time></trkpt><trkpt lat="40.6093958" lon="19.5307573"><ele>8.0</ele><time>2026-04-26T11:50:47.27Z</time></trkpt><trkpt lat="40.6093234" lon="19.5310318"><ele>8.333333333333332</ele><time>2026-04-26T11:50:48.271Z</time></trkpt><trkpt lat="40.6092562" lon="19.5313079"><ele>8.666666666666666</ele><time>2026-04-26T11:50:49.272Z</time></trkpt><trkpt lat="40.6091877" lon="19.5315753"><ele>9.0</ele><time>2026-04-26T11:50:50.27Z</time></trkpt><trkpt lat="40.6091191" lon="19.5318445"><ele>8.666666666666666</ele><time>2026-04-26T11:50:51.27Z</time></trkpt><trkpt lat="40.6090507" lon="19.5321118"><ele>8.333333333333332</ele><time>2026-04-26T11:50:52.271Z</time></trkpt><trkpt lat="40.6089816" lon="19.5323805"><ele>8.0</ele><time>2026-04-26T11:50:53.27Z</time></trkpt><trkpt lat="40.6089108" lon="19.5326515"><ele>8.0</ele><time>2026-04-26T11:50:54.27Z</time></trkpt><trkpt lat="40.6088383" lon="19.5329247"><ele>8.0</ele><time>2026-04-26T11:50:55.27Z</time></trkpt><trkpt lat="40.6087694" lon="19.5332045"><ele>8.0</ele><time>2026-04-26T11:50:56.271Z</time></trkpt><trkpt lat="40.6086997" lon="19.5334992"><ele>8.5</ele><time>2026-04-26T11:50:57.27Z</time></trkpt><trkpt lat="40.6086287" lon="19.5338052"><ele>9.0</ele><time>2026-04-26T11:50:58.27Z</time></trkpt><trkpt lat="40.6085529" lon="19.534123"><ele>9.0</ele><time>2026-04-26T11:50:59.268Z</time></trkpt><trkpt lat="40.6084717" lon="19.5344519"><ele>9.0</ele><time>2026-04-26T11:51:00.269Z</time></trkpt><trkpt lat="40.6083859" lon="19.5347892"><ele>9.5</ele><time>2026-04-26T11:51:01.271Z</time></trkpt><trkpt lat="40.6082973" lon="19.5351251"><ele>10.0</ele><time>2026-04-26T11:51:02.268Z</time></trkpt><trkpt lat="40.6082074" lon="19.5354518"><ele>10.5</ele><time>2026-04-26T11:51:03.27Z</time></trkpt><trkpt lat="40.608119" lon="19.5357666"><ele>11.0</ele><time>2026-04-26T11:51:04.268Z</time></trkpt><trkpt lat="40.6080321" lon="19.5360755"><ele>10.0</ele><time>2026-04-26T11:51:05.269Z</time></trkpt><trkpt lat="40.6079505" lon="19.5363796"><ele>9.0</ele><time>2026-04-26T11:51:06.269Z</time></trkpt><trkpt lat="40.6078716" lon="19.5366786"><ele>8.5</ele><time>2026-04-26T11:51:07.269Z</time></trkpt><trkpt lat="40.6077964" lon="19.5369732"><ele>8.0</ele><time>2026-04-26T11:51:08.269Z</time></trkpt><trkpt lat="40.6077256" lon="19.5372673"><ele>9.0</ele><time>2026-04-26T11:51:09.27Z</time></trkpt><trkpt lat="40.6076537" lon="19.5375533"><ele>10.0</ele><time>2026-04-26T11:51:10.268Z</time></trkpt><trkpt lat="40.6075795" lon="19.5378446"><ele>11.0</ele><time>2026-04-26T11:51:11.269Z</time></trkpt><trkpt lat="40.6075041" lon="19.5381294"><ele>12.0</ele><time>2026-04-26T11:51:12.268Z</time></trkpt><trkpt lat="40.6074261" lon="19.5384123"><ele>12.0</ele><time>2026-04-26T11:51:13.269Z</time></trkpt><trkpt lat="40.6073516" lon="19.5386957"><ele>12.0</ele><time>2026-04-26T11:51:14.271Z</time></trkpt><trkpt lat="40.6072776" lon="19.538982"><ele>11.0</ele><time>2026-04-26T11:51:15.27Z</time></trkpt><trkpt lat="40.6072041" lon="19.5392661"><ele>10.0</ele><time>2026-04-26T11:51:16.271Z</time></trkpt><trkpt lat="40.6071297" lon="19.5395532"><ele>9.5</ele><time>2026-04-26T11:51:17.27Z</time></trkpt><trkpt lat="40.6070551" lon="19.5398428"><ele>9.0</ele><time>2026-04-26T11:51:18.268Z</time></trkpt><trkpt lat="40.6069798" lon="19.5401334"><ele>9.0</ele><time>2026-04-26T11:51:19.27Z</time></trkpt><trkpt lat="40.6069059" lon="19.5404277"><ele>9.0</ele><time>2026-04-26T11:51:20.27Z</time></trkpt><trkpt lat="40.6068303" lon="19.5407204"><ele>9.0</ele><time>2026-04-26T11:51:21.27Z</time></trkpt><trkpt lat="40.6067545" lon="19.5410129"><ele>9.0</ele><time>2026-04-26T11:51:22.268Z</time></trkpt><trkpt lat="40.606678" lon="19.5413057"><ele>9.0</ele><time>2026-04-26T11:51:23.269Z</time></trkpt><trkpt lat="40.6066002" lon="19.5415956"><ele>9.0</ele><time>2026-04-26T11:51:24.27Z</time></trkpt><trkpt lat="40.6065263" lon="19.5418884"><ele>9.0</ele><time>2026-04-26T11:51:25.269Z</time></trkpt><trkpt lat="40.6064543" lon="19.542184"><ele>9.0</ele><time>2026-04-26T11:51:26.269Z</time></trkpt><trkpt lat="40.6063791" lon="19.5424784"><ele>9.0</ele><time>2026-04-26T11:51:27.27Z</time></trkpt><trkpt lat="40.6063049" lon="19.5427734"><ele>9.0</ele><time>2026-04-26T11:51:28.27Z</time></trkpt><trkpt lat="40.6062301" lon="19.5430691"><ele>9.5</ele><time>2026-04-26T11:51:29.272Z</time></trkpt><trkpt lat="40.6061544" lon="19.5433663"><ele>10.0</ele><time>2026-04-26T11:51:30.27Z</time></trkpt><trkpt lat="40.6060782" lon="19.5436611"><ele>10.0</ele><time>2026-04-26T11:51:31.27Z</time></trkpt><trkpt lat="40.6060015" lon="19.5439553"><ele>10.0</ele><time>2026-04-26T11:51:32.272Z</time></trkpt><trkpt lat="40.6059262" lon="19.5442473"><ele>10.0</ele><time>2026-04-26T11:51:33.271Z</time></trkpt><trkpt lat="40.6058505" lon="19.5445343"><ele>10.0</ele><time>2026-04-26T11:51:34.271Z</time></trkpt><trkpt lat="40.605776" lon="19.5448196"><ele>9.5</ele><time>2026-04-26T11:51:35.27Z</time></trkpt><trkpt lat="40.6057038" lon="19.5451047"><ele>9.0</ele><time>2026-04-26T11:51:36.271Z</time></trkpt><trkpt lat="40.6056304" lon="19.545392"><ele>10.0</ele><time>2026-04-26T11:51:37.269Z</time></trkpt><trkpt lat="40.6055581" lon="19.5456826"><ele>11.0</ele><time>2026-04-26T11:51:38.27Z</time></trkpt><trkpt lat="40.605484" lon="19.5459728"><ele>11.0</ele><time>2026-04-26T11:51:39.269Z</time></trkpt><trkpt lat="40.6054084" lon="19.5462646"><ele>11.0</ele><time>2026-04-26T11:51:40.271Z</time></trkpt><trkpt lat="40.6053324" lon="19.5465552"><ele>10.5</ele><time>2026-04-26T11:51:41.269Z</time></trkpt><trkpt lat="40.6052559" lon="19.5468498"><ele>10.0</ele><time>2026-04-26T11:51:42.27Z</time></trkpt><trkpt lat="40.6051798" lon="19.5471467"><ele>9.5</ele><time>2026-04-26T11:51:43.27Z</time></trkpt><trkpt lat="40.605103" lon="19.5474424"><ele>9.0</ele><time>2026-04-26T11:51:44.271Z</time></trkpt><trkpt lat="40.6050291" lon="19.5477412"><ele>9.0</ele><time>2026-04-26T11:51:45.269Z</time></trkpt><trkpt lat="40.6049526" lon="19.5480379"><ele>9.0</ele><time>2026-04-26T11:51:46.271Z</time></trkpt><trkpt lat="40.6048752" lon="19.548334"><ele>9.0</ele><time>2026-04-26T11:51:47.268Z</time></trkpt><trkpt lat="40.6047992" lon="19.5486296"><ele>9.0</ele><time>2026-04-26T11:51:48.271Z</time></trkpt><trkpt lat="40.6047238" lon="19.5489253"><ele>9.5</ele><time>2026-04-26T11:51:49.27Z</time></trkpt><trkpt lat="40.6046468" lon="19.5492212"><ele>10.0</ele><time>2026-04-26T11:51:50.271Z</time></trkpt><trkpt lat="40.6045691" lon="19.549518"><ele>10.0</ele><time>2026-04-26T11:51:51.269Z</time></trkpt><trkpt lat="40.6044936" lon="19.5498129"><ele>10.0</ele><time>2026-04-26T11:51:52.271Z</time></trkpt><trkpt lat="40.6044191" lon="19.5501094"><ele>10.0</ele><time>2026-04-26T11:51:53.27Z</time></trkpt><trkpt lat="40.6043456" lon="19.5504066"><ele>10.0</ele><time>2026-04-26T11:51:54.269Z</time></trkpt><trkpt lat="40.6042716" lon="19.5507035"><ele>10.0</ele><time>2026-04-26T11:51:55.268Z</time></trkpt><trkpt lat="40.6041941" lon="19.5510019"><ele>10.0</ele><time>2026-04-26T11:51:56.268Z</time></trkpt><trkpt lat="40.6041185" lon="19.551298"><ele>10.5</ele><time>2026-04-26T11:51:57.269Z</time></trkpt><trkpt lat="40.6040416" lon="19.5515948"><ele>11.0</ele><time>2026-04-26T11:51:58.268Z</time></trkpt><trkpt lat="40.6039658" lon="19.5518903"><ele>10.5</ele><time>2026-04-26T11:51:59.273Z</time></trkpt><trkpt lat="40.6038888" lon="19.5521843"><ele>10.0</ele><time>2026-04-26T11:52:00.269Z</time></trkpt><trkpt lat="40.6038142" lon="19.5524789"><ele>10.0</ele><time>2026-04-26T11:52:01.271Z</time></trkpt><trkpt lat="40.6037387" lon="19.552774"><ele>10.0</ele><time>2026-04-26T11:52:02.269Z</time></trkpt><trkpt lat="40.603662" lon="19.55307"><ele>10.0</ele><time>2026-04-26T11:52:03.271Z</time></trkpt><trkpt lat="40.6035845" lon="19.5533664"><ele>10.0</ele><time>2026-04-26T11:52:04.269Z</time></trkpt><trkpt lat="40.6035067" lon="19.5536636"><ele>9.5</ele><time>2026-04-26T11:52:05.271Z</time></trkpt><trkpt lat="40.6034294" lon="19.5539628"><ele>9.0</ele><time>2026-04-26T11:52:06.269Z</time></trkpt><trkpt lat="40.6033518" lon="19.5542617"><ele>9.5</ele><time>2026-04-26T11:52:07.267Z</time></trkpt><trkpt lat="40.6032742" lon="19.5545616"><ele>10.0</ele><time>2026-04-26T11:52:08.268Z</time></trkpt><trkpt lat="40.6031928" lon="19.5548584"><ele>10.0</ele><time>2026-04-26T11:52:09.27Z</time></trkpt><trkpt lat="40.6031053" lon="19.5551512"><ele>10.0</ele><time>2026-04-26T11:52:10.269Z</time></trkpt><trkpt lat="40.6030177" lon="19.5554428"><ele>9.5</ele><time>2026-04-26T11:52:11.271Z</time></trkpt><trkpt lat="40.6029281" lon="19.5557333"><ele>9.0</ele><time>2026-04-26T11:52:12.272Z</time></trkpt><trkpt lat="40.6028355" lon="19.5560224"><ele>9.5</ele><time>2026-04-26T11:52:13.267Z</time></trkpt><trkpt lat="40.6027422" lon="19.5563125"><ele>10.0</ele><time>2026-04-26T11:52:14.269Z</time></trkpt><trkpt lat="40.6026459" lon="19.5566006"><ele>10.0</ele><time>2026-04-26T11:52:15.271Z</time></trkpt><trkpt lat="40.6025464" lon="19.5568895"><ele>10.0</ele><time>2026-04-26T11:52:16.27Z</time></trkpt><trkpt lat="40.6024453" lon="19.5571775"><ele>10.5</ele><time>2026-04-26T11:52:17.27Z</time></trkpt><trkpt lat="40.6023418" lon="19.5574649"><ele>11.0</ele><time>2026-04-26T11:52:18.27Z</time></trkpt><trkpt lat="40.6022348" lon="19.5577521"><ele>11.0</ele><time>2026-04-26T11:52:19.271Z</time></trkpt><trkpt lat="40.6021259" lon="19.5580345"><ele>11.0</ele><time>2026-04-26T11:52:20.272Z</time></trkpt><trkpt lat="40.6020139" lon="19.5583144"><ele>10.5</ele><time>2026-04-26T11:52:21.268Z</time></trkpt><trkpt lat="40.6018989" lon="19.5585929"><ele>10.0</ele><time>2026-04-26T11:52:22.275Z</time></trkpt><trkpt lat="40.6017828" lon="19.5588684"><ele>10.0</ele><time>2026-04-26T11:52:23.269Z</time></trkpt><trkpt lat="40.6016659" lon="19.5591425"><ele>10.0</ele><time>2026-04-26T11:52:24.267Z</time></trkpt><trkpt lat="40.6015495" lon="19.5594147"><ele>9.5</ele><time>2026-04-26T11:52:25.267Z</time></trkpt><trkpt lat="40.6014302" lon="19.5596823"><ele>9.0</ele><time>2026-04-26T11:52:26.269Z</time></trkpt><trkpt lat="40.6013046" lon="19.559947"><ele>9.0</ele><time>2026-04-26T11:52:27.27Z</time></trkpt><trkpt lat="40.6011782" lon="19.5602121"><ele>9.0</ele><time>2026-04-26T11:52:28.27Z</time></trkpt><trkpt lat="40.6010528" lon="19.5604725"><ele>9.0</ele><time>2026-04-26T11:52:29.271Z</time></trkpt><trkpt lat="40.6009233" lon="19.5607328"><ele>9.0</ele><time>2026-04-26T11:52:30.272Z</time></trkpt><trkpt lat="40.6007934" lon="19.5609897"><ele>9.5</ele><time>2026-04-26T11:52:31.274Z</time></trkpt><trkpt lat="40.6006643" lon="19.5612509"><ele>10.0</ele><time>2026-04-26T11:52:32.271Z</time></trkpt><trkpt lat="40.6005314" lon="19.5615035"><ele>10.0</ele><time>2026-04-26T11:52:33.27Z</time></trkpt><trkpt lat="40.6003994" lon="19.5617567"><ele>10.0</ele><time>2026-04-26T11:52:34.273Z</time></trkpt><trkpt lat="40.6002687" lon="19.5620105"><ele>10.0</ele><time>2026-04-26T11:52:35.272Z</time></trkpt><trkpt lat="40.6001399" lon="19.5622704"><ele>10.0</ele><time>2026-04-26T11:52:36.27Z</time></trkpt><trkpt lat="40.6000061" lon="19.5625263"><ele>10.0</ele><time>2026-04-26T11:52:37.268Z</time></trkpt><trkpt lat="40.5998741" lon="19.5627861"><ele>10.0</ele><time>2026-04-26T11:52:38.27Z</time></trkpt><trkpt lat="40.599741" lon="19.5630417"><ele>10.0</ele><time>2026-04-26T11:52:39.271Z</time></trkpt><trkpt lat="40.5996092" lon="19.5632995"><ele>10.0</ele><time>2026-04-26T11:52:40.269Z</time></trkpt><trkpt lat="40.599478" lon="19.5635547"><ele>10.0</ele><time>2026-04-26T11:52:41.268Z</time></trkpt><trkpt lat="40.5993454" lon="19.563811"><ele>10.0</ele><time>2026-04-26T11:52:42.27Z</time></trkpt><trkpt lat="40.5992112" lon="19.5640678"><ele>10.0</ele><time>2026-04-26T11:52:43.27Z</time></trkpt><trkpt lat="40.5990779" lon="19.5643242"><ele>10.0</ele><time>2026-04-26T11:52:44.27Z</time></trkpt><trkpt lat="40.5989421" lon="19.5645862"><ele>10.0</ele><time>2026-04-26T11:52:45.27Z</time></trkpt><trkpt lat="40.5988071" lon="19.5648493"><ele>10.0</ele><time>2026-04-26T11:52:46.271Z</time></trkpt><trkpt lat="40.5986676" lon="19.5651113"><ele>10.0</ele><time>2026-04-26T11:52:47.269Z</time></trkpt><trkpt lat="40.5985297" lon="19.5653776"><ele>10.0</ele><time>2026-04-26T11:52:48.268Z</time></trkpt><trkpt lat="40.5983916" lon="19.5656483"><ele>10.0</ele><time>2026-04-26T11:52:49.272Z</time></trkpt><trkpt lat="40.5982547" lon="19.5659135"><ele>10.0</ele><time>2026-04-26T11:52:50.269Z</time></trkpt><trkpt lat="40.598106" lon="19.5661811"><ele>10.0</ele><time>2026-04-26T11:52:51.269Z</time></trkpt><trkpt lat="40.5979651" lon="19.5664523"><ele>10.0</ele><time>2026-04-26T11:52:52.269Z</time></trkpt><trkpt lat="40.5978242" lon="19.5667261"><ele>10.0</ele><time>2026-04-26T11:52:53.27Z</time></trkpt><trkpt lat="40.5976827" lon="19.567004"><ele>10.0</ele><time>2026-04-26T11:52:54.27Z</time></trkpt><trkpt lat="40.5975439" lon="19.5672791"><ele>10.0</ele><time>2026-04-26T11:52:55.27Z</time></trkpt><trkpt lat="40.5974022" lon="19.5675617"><ele>10.0</ele><time>2026-04-26T11:52:56.27Z</time></trkpt><trkpt lat="40.5972604" lon="19.567843"><ele>10.5</ele><time>2026-04-26T11:52:57.268Z</time></trkpt><trkpt lat="40.5971182" lon="19.5681213"><ele>11.0</ele><time>2026-04-26T11:52:58.269Z</time></trkpt><trkpt lat="40.5969786" lon="19.5683976"><ele>11.0</ele><time>2026-04-26T11:52:59.267Z</time></trkpt><trkpt lat="40.5968374" lon="19.5686771"><ele>11.0</ele><time>2026-04-26T11:53:00.271Z</time></trkpt><trkpt lat="40.5966978" lon="19.5689513"><ele>11.5</ele><time>2026-04-26T11:53:01.269Z</time></trkpt><trkpt lat="40.5965584" lon="19.5692308"><ele>12.0</ele><time>2026-04-26T11:53:02.269Z</time></trkpt><trkpt lat="40.596419" lon="19.569507"><ele>11.5</ele><time>2026-04-26T11:53:03.268Z</time></trkpt><trkpt lat="40.5962801" lon="19.569786"><ele>11.0</ele><time>2026-04-26T11:53:04.27Z</time></trkpt><trkpt lat="40.5961421" lon="19.5700582"><ele>11.0</ele><time>2026-04-26T11:53:05.27Z</time></trkpt><trkpt lat="40.5960043" lon="19.5703302"><ele>11.0</ele><time>2026-04-26T11:53:06.27Z</time></trkpt><trkpt lat="40.5958705" lon="19.5706052"><ele>11.5</ele><time>2026-04-26T11:53:07.27Z</time></trkpt><trkpt lat="40.5957382" lon="19.5708759"><ele>12.0</ele><time>2026-04-26T11:53:08.269Z</time></trkpt><trkpt lat="40.5956097" lon="19.5711495"><ele>12.0</ele><time>2026-04-26T11:53:09.271Z</time></trkpt><trkpt lat="40.5954872" lon="19.5714256"><ele>12.0</ele><time>2026-04-26T11:53:10.269Z</time></trkpt><trkpt lat="40.5953705" lon="19.571705"><ele>12.0</ele><time>2026-04-26T11:53:11.27Z</time></trkpt><trkpt lat="40.5952608" lon="19.5719845"><ele>12.0</ele><time>2026-04-26T11:53:12.27Z</time></trkpt><trkpt lat="40.5951577" lon="19.5722671"><ele>10.5</ele><time>2026-04-26T11:53:13.269Z</time></trkpt><trkpt lat="40.5950608" lon="19.5725556"><ele>9.0</ele><time>2026-04-26T11:53:14.269Z</time></trkpt><trkpt lat="40.5949698" lon="19.5728499"><ele>10.0</ele><time>2026-04-26T11:53:15.268Z</time></trkpt><trkpt lat="40.5948849" lon="19.5731463"><ele>11.0</ele><time>2026-04-26T11:53:16.27Z</time></trkpt><trkpt lat="40.5948013" lon="19.573447"><ele>11.5</ele><time>2026-04-26T11:53:17.267Z</time></trkpt><trkpt lat="40.5947201" lon="19.5737473"><ele>12.0</ele><time>2026-04-26T11:53:18.27Z</time></trkpt><trkpt lat="40.5946414" lon="19.5740474"><ele>12.0</ele><time>2026-04-26T11:53:19.27Z</time></trkpt><trkpt lat="40.5945678" lon="19.5743482"><ele>12.0</ele><time>2026-04-26T11:53:20.269Z</time></trkpt><trkpt lat="40.5944995" lon="19.5746497"><ele>12.5</ele><time>2026-04-26T11:53:21.269Z</time></trkpt><trkpt lat="40.5944389" lon="19.5749522"><ele>13.0</ele><time>2026-04-26T11:53:22.271Z</time></trkpt><trkpt lat="40.5943814" lon="19.5752529"><ele>13.0</ele><time>2026-04-26T11:53:23.27Z</time></trkpt><trkpt lat="40.5943307" lon="19.5755541"><ele>13.0</ele><time>2026-04-26T11:53:24.268Z</time></trkpt><trkpt lat="40.594285" lon="19.5758535"><ele>13.0</ele><time>2026-04-26T11:53:25.27Z</time></trkpt><trkpt lat="40.5942424" lon="19.5761522"><ele>13.0</ele><time>2026-04-26T11:53:26.269Z</time></trkpt><trkpt lat="40.5942035" lon="19.5764494"><ele>13.0</ele><time>2026-04-26T11:53:27.271Z</time></trkpt><trkpt lat="40.5941701" lon="19.5767454"><ele>13.0</ele><time>2026-04-26T11:53:28.269Z</time></trkpt><trkpt lat="40.5941406" lon="19.5770412"><ele>14.0</ele><time>2026-04-26T11:53:29.269Z</time></trkpt><trkpt lat="40.5941148" lon="19.5773363"><ele>15.0</ele><time>2026-04-26T11:53:30.269Z</time></trkpt><trkpt lat="40.5940922" lon="19.5776305"><ele>15.0</ele><time>2026-04-26T11:53:31.27Z</time></trkpt><trkpt lat="40.5940765" lon="19.5779243"><ele>15.0</ele><time>2026-04-26T11:53:32.269Z</time></trkpt><trkpt lat="40.5940653" lon="19.5782162"><ele>15.0</ele><time>2026-04-26T11:53:33.269Z</time></trkpt><trkpt lat="40.5940583" lon="19.5785082"><ele>15.333333333333332</ele><time>2026-04-26T11:53:34.268Z</time></trkpt><trkpt lat="40.5940576" lon="19.5787972"><ele>15.666666666666666</ele><time>2026-04-26T11:53:35.268Z</time></trkpt><trkpt lat="40.5940604" lon="19.5790836"><ele>16.0</ele><time>2026-04-26T11:53:36.268Z</time></trkpt><trkpt lat="40.5940637" lon="19.5793688"><ele>16.333333333333332</ele><time>2026-04-26T11:53:37.268Z</time></trkpt><trkpt lat="40.5940727" lon="19.5796536"><ele>16.666666666666668</ele><time>2026-04-26T11:53:38.269Z</time></trkpt><trkpt lat="40.5940861" lon="19.5799365"><ele>17.0</ele><time>2026-04-26T11:53:39.27Z</time></trkpt><trkpt lat="40.5941034" lon="19.5802175"><ele>16.666666666666668</ele><time>2026-04-26T11:53:40.269Z</time></trkpt><trkpt lat="40.5941256" lon="19.5804985"><ele>16.333333333333332</ele><time>2026-04-26T11:53:41.269Z</time></trkpt><trkpt lat="40.594149" lon="19.580779"><ele>16.0</ele><time>2026-04-26T11:53:42.269Z</time></trkpt><trkpt lat="40.5941737" lon="19.5810597"><ele>16.0</ele><time>2026-04-26T11:53:43.27Z</time></trkpt><trkpt lat="40.5942028" lon="19.5813401"><ele>16.0</ele><time>2026-04-26T11:53:44.269Z</time></trkpt><trkpt lat="40.594232" lon="19.5816222"><ele>16.0</ele><time>2026-04-26T11:53:45.27Z</time></trkpt><trkpt lat="40.5942606" lon="19.5819064"><ele>16.0</ele><time>2026-04-26T11:53:46.268Z</time></trkpt><trkpt lat="40.5942897" lon="19.5821902"><ele>16.0</ele><time>2026-04-26T11:53:47.27Z</time></trkpt><trkpt lat="40.5943189" lon="19.5824752"><ele>16.0</ele><time>2026-04-26T11:53:48.268Z</time></trkpt><trkpt lat="40.5943486" lon="19.5827602"><ele>16.666666666666664</ele><time>2026-04-26T11:53:49.269Z</time></trkpt><trkpt lat="40.594377" lon="19.5830449"><ele>17.333333333333332</ele><time>2026-04-26T11:53:50.268Z</time></trkpt><trkpt lat="40.5944053" lon="19.5833281"><ele>18.0</ele><time>2026-04-26T11:53:51.271Z</time></trkpt><trkpt lat="40.5944345" lon="19.5836109"><ele>17.666666666666668</ele><time>2026-04-26T11:53:52.27Z</time></trkpt><trkpt lat="40.594464" lon="19.5838931"><ele>17.333333333333336</ele><time>2026-04-26T11:53:53.269Z</time></trkpt><trkpt lat="40.5944924" lon="19.5841753"><ele>17.0</ele><time>2026-04-26T11:53:54.269Z</time></trkpt><trkpt lat="40.5945199" lon="19.5844581"><ele>17.666666666666668</ele><time>2026-04-26T11:53:55.27Z</time></trkpt><trkpt lat="40.5945472" lon="19.5847407"><ele>18.333333333333332</ele><time>2026-04-26T11:53:56.269Z</time></trkpt><trkpt lat="40.5945755" lon="19.5850233"><ele>19.0</ele><time>2026-04-26T11:53:57.27Z</time></trkpt><trkpt lat="40.5946048" lon="19.5853052"><ele>19.0</ele><time>2026-04-26T11:53:58.267Z</time></trkpt><trkpt lat="40.5946335" lon="19.5855871"><ele>19.0</ele><time>2026-04-26T11:53:59.269Z</time></trkpt><trkpt lat="40.5946623" lon="19.5858688"><ele>19.0</ele><time>2026-04-26T11:54:00.271Z</time></trkpt><trkpt lat="40.5946912" lon="19.5861508"><ele>18.666666666666664</ele><time>2026-04-26T11:54:01.271Z</time></trkpt><trkpt lat="40.5947198" lon="19.5864326"><ele>18.333333333333332</ele><time>2026-04-26T11:54:02.27Z</time></trkpt><trkpt lat="40.5947476" lon="19.5867146"><ele>18.0</ele><time>2026-04-26T11:54:03.269Z</time></trkpt><trkpt lat="40.5947738" lon="19.586996"><ele>18.666666666666668</ele><time>2026-04-26T11:54:04.268Z</time></trkpt><trkpt lat="40.594801" lon="19.5872767"><ele>19.333333333333336</ele><time>2026-04-26T11:54:05.269Z</time></trkpt><trkpt lat="40.5948304" lon="19.5875579"><ele>20.0</ele><time>2026-04-26T11:54:06.27Z</time></trkpt><trkpt lat="40.5948614" lon="19.5878395"><ele>20.0</ele><time>2026-04-26T11:54:07.269Z</time></trkpt><trkpt lat="40.5948919" lon="19.5881213"><ele>20.0</ele><time>2026-04-26T11:54:08.27Z</time></trkpt><trkpt lat="40.594921" lon="19.5884021"><ele>20.0</ele><time>2026-04-26T11:54:09.27Z</time></trkpt><trkpt lat="40.5949487" lon="19.5886849"><ele>20.0</ele><time>2026-04-26T11:54:10.268Z</time></trkpt><trkpt lat="40.5949776" lon="19.5889679"><ele>20.0</ele><time>2026-04-26T11:54:11.269Z</time></trkpt><trkpt lat="40.5950069" lon="19.5892519"><ele>20.0</ele><time>2026-04-26T11:54:12.268Z</time></trkpt><trkpt lat="40.5950362" lon="19.5895368"><ele>19.666666666666668</ele><time>2026-04-26T11:54:13.268Z</time></trkpt><trkpt lat="40.595066" lon="19.589824"><ele>19.333333333333332</ele><time>2026-04-26T11:54:14.27Z</time></trkpt><trkpt lat="40.5950952" lon="19.5901143"><ele>19.0</ele><time>2026-04-26T11:54:15.27Z</time></trkpt><trkpt lat="40.5951255" lon="19.5904076"><ele>20.0</ele><time>2026-04-26T11:54:16.27Z</time></trkpt><trkpt lat="40.5951558" lon="19.5907028"><ele>21.0</ele><time>2026-04-26T11:54:17.271Z</time></trkpt><trkpt lat="40.5951872" lon="19.591"><ele>22.0</ele><time>2026-04-26T11:54:18.271Z</time></trkpt><trkpt lat="40.5952167" lon="19.591297"><ele>23.0</ele><time>2026-04-26T11:54:19.269Z</time></trkpt><trkpt lat="40.5952453" lon="19.5915955"><ele>23.0</ele><time>2026-04-26T11:54:20.27Z</time></trkpt><trkpt lat="40.5952736" lon="19.5918954"><ele>23.0</ele><time>2026-04-26T11:54:21.269Z</time></trkpt><trkpt lat="40.595302" lon="19.5921974"><ele>24.0</ele><time>2026-04-26T11:54:22.27Z</time></trkpt><trkpt lat="40.5953321" lon="19.5925005"><ele>25.0</ele><time>2026-04-26T11:54:23.269Z</time></trkpt><trkpt lat="40.5953618" lon="19.5928073"><ele>26.5</ele><time>2026-04-26T11:54:24.267Z</time></trkpt><trkpt lat="40.5953933" lon="19.5931165"><ele>28.0</ele><time>2026-04-26T11:54:25.268Z</time></trkpt><trkpt lat="40.5954265" lon="19.5934288"><ele>27.5</ele><time>2026-04-26T11:54:26.268Z</time></trkpt><trkpt lat="40.5954585" lon="19.5937441"><ele>27.0</ele><time>2026-04-26T11:54:27.267Z</time></trkpt><trkpt lat="40.5954905" lon="19.5940598"><ele>27.0</ele><time>2026-04-26T11:54:28.269Z</time></trkpt><trkpt lat="40.5955272" lon="19.5943791"><ele>27.0</ele><time>2026-04-26T11:54:29.268Z</time></trkpt><trkpt lat="40.5955607" lon="19.594695"><ele>27.0</ele><time>2026-04-26T11:54:30.268Z</time></trkpt><trkpt lat="40.5955925" lon="19.5950092"><ele>27.0</ele><time>2026-04-26T11:54:31.269Z</time></trkpt><trkpt lat="40.5956241" lon="19.5953218"><ele>28.0</ele><time>2026-04-26T11:54:32.269Z</time></trkpt><trkpt lat="40.5956525" lon="19.5956337"><ele>29.0</ele><time>2026-04-26T11:54:33.269Z</time></trkpt><trkpt lat="40.5956845" lon="19.5959444"><ele>29.0</ele><time>2026-04-26T11:54:34.27Z</time></trkpt><trkpt lat="40.5957168" lon="19.5962548"><ele>29.0</ele><time>2026-04-26T11:54:35.27Z</time></trkpt><trkpt lat="40.5957486" lon="19.596566"><ele>29.0</ele><time>2026-04-26T11:54:36.269Z</time></trkpt><trkpt lat="40.5957818" lon="19.596876"><ele>29.0</ele><time>2026-04-26T11:54:37.269Z</time></trkpt><trkpt lat="40.5958125" lon="19.5971894"><ele>28.5</ele><time>2026-04-26T11:54:38.268Z</time></trkpt><trkpt lat="40.5958431" lon="19.5975028"><ele>28.0</ele><time>2026-04-26T11:54:39.269Z</time></trkpt><trkpt lat="40.595875" lon="19.5978175"><ele>28.0</ele><time>2026-04-26T11:54:40.267Z</time></trkpt><trkpt lat="40.5959066" lon="19.5981335"><ele>28.0</ele><time>2026-04-26T11:54:41.268Z</time></trkpt><trkpt lat="40.5959363" lon="19.5984507"><ele>29.5</ele><time>2026-04-26T11:54:42.268Z</time></trkpt><trkpt lat="40.5959616" lon="19.5987703"><ele>31.0</ele><time>2026-04-26T11:54:43.268Z</time></trkpt><trkpt lat="40.5959815" lon="19.5990918"><ele>31.0</ele><time>2026-04-26T11:54:44.27Z</time></trkpt><trkpt lat="40.5960071" lon="19.5994171"><ele>31.0</ele><time>2026-04-26T11:54:45.268Z</time></trkpt><trkpt lat="40.5960123" lon="19.5997364"><ele>30.5</ele><time>2026-04-26T11:54:46.267Z</time></trkpt><trkpt lat="40.5960109" lon="19.600053"><ele>30.0</ele><time>2026-04-26T11:54:47.267Z</time></trkpt><trkpt lat="40.5960026" lon="19.6003676"><ele>30.0</ele><time>2026-04-26T11:54:48.27Z</time></trkpt><trkpt lat="40.5959859" lon="19.6006811"><ele>30.0</ele><time>2026-04-26T11:54:49.269Z</time></trkpt><trkpt lat="40.5959632" lon="19.6009915"><ele>30.0</ele><time>2026-04-26T11:54:50.27Z</time></trkpt><trkpt lat="40.5959327" lon="19.6012995"><ele>30.0</ele><time>2026-04-26T11:54:51.269Z</time></trkpt><trkpt lat="40.5958937" lon="19.6016045"><ele>30.0</ele><time>2026-04-26T11:54:52.27Z</time></trkpt><trkpt lat="40.5958484" lon="19.6019093"><ele>30.0</ele><time>2026-04-26T11:54:53.267Z</time></trkpt><trkpt lat="40.5957967" lon="19.6022122"><ele>31.0</ele><time>2026-04-26T11:54:54.27Z</time></trkpt><trkpt lat="40.5957429" lon="19.6025116"><ele>32.0</ele><time>2026-04-26T11:54:55.271Z</time></trkpt><trkpt lat="40.5956807" lon="19.6028167"><ele>31.5</ele><time>2026-04-26T11:54:56.268Z</time></trkpt><trkpt lat="40.5956149" lon="19.6031162"><ele>31.0</ele><time>2026-04-26T11:54:57.271Z</time></trkpt><trkpt lat="40.5955317" lon="19.6034065"><ele>31.0</ele><time>2026-04-26T11:54:58.268Z</time></trkpt><trkpt lat="40.5954481" lon="19.6037034"><ele>31.0</ele><time>2026-04-26T11:54:59.267Z</time></trkpt><trkpt lat="40.5953565" lon="19.6039938"><ele>31.0</ele><time>2026-04-26T11:55:00.268Z</time></trkpt><trkpt lat="40.5952589" lon="19.6042785"><ele>31.0</ele><time>2026-04-26T11:55:01.274Z</time></trkpt><trkpt lat="40.5951547" lon="19.6045592"><ele>31.5</ele><time>2026-04-26T11:55:02.269Z</time></trkpt><trkpt lat="40.5950467" lon="19.6048366"><ele>32.0</ele><time>2026-04-26T11:55:03.27Z</time></trkpt><trkpt lat="40.5949318" lon="19.6051038"><ele>32.5</ele><time>2026-04-26T11:55:04.268Z</time></trkpt><trkpt lat="40.5948099" lon="19.6053624"><ele>33.0</ele><time>2026-04-26T11:55:05.268Z</time></trkpt><trkpt lat="40.5946797" lon="19.605618"><ele>33.0</ele><time>2026-04-26T11:55:06.268Z</time></trkpt><trkpt lat="40.5945422" lon="19.605869"><ele>33.0</ele><time>2026-04-26T11:55:07.268Z</time></trkpt><trkpt lat="40.5943957" lon="19.6061233"><ele>33.0</ele><time>2026-04-26T11:55:08.268Z</time></trkpt><trkpt lat="40.5942441" lon="19.6063717"><ele>33.0</ele><time>2026-04-26T11:55:09.27Z</time></trkpt><trkpt lat="40.5940877" lon="19.6066156"><ele>33.0</ele><time>2026-04-26T11:55:10.269Z</time></trkpt><trkpt lat="40.5939266" lon="19.606861"><ele>33.0</ele><time>2026-04-26T11:55:11.27Z</time></trkpt><trkpt lat="40.5937604" lon="19.6071174"><ele>33.5</ele><time>2026-04-26T11:55:12.269Z</time></trkpt><trkpt lat="40.5935898" lon="19.6073593"><ele>34.0</ele><time>2026-04-26T11:55:13.267Z</time></trkpt><trkpt lat="40.5934084" lon="19.6075963"><ele>34.5</ele><time>2026-04-26T11:55:14.269Z</time></trkpt><trkpt lat="40.5932195" lon="19.6078288"><ele>35.0</ele><time>2026-04-26T11:55:15.27Z</time></trkpt><trkpt lat="40.5930146" lon="19.608061"><ele>35.5</ele><time>2026-04-26T11:55:16.267Z</time></trkpt><trkpt lat="40.5927952" lon="19.6082947"><ele>36.0</ele><time>2026-04-26T11:55:17.272Z</time></trkpt><trkpt lat="40.5925661" lon="19.6085293"><ele>37.0</ele><time>2026-04-26T11:55:18.268Z</time></trkpt><trkpt lat="40.5923312" lon="19.6087676"><ele>38.0</ele><time>2026-04-26T11:55:19.269Z</time></trkpt><trkpt lat="40.5920881" lon="19.6090091"><ele>38.0</ele><time>2026-04-26T11:55:20.27Z</time></trkpt><trkpt lat="40.591842" lon="19.6092498"><ele>38.0</ele><time>2026-04-26T11:55:21.269Z</time></trkpt><trkpt lat="40.5915938" lon="19.6094928"><ele>38.0</ele><time>2026-04-26T11:55:22.27Z</time></trkpt><trkpt lat="40.5913436" lon="19.6097503"><ele>38.0</ele><time>2026-04-26T11:55:23.271Z</time></trkpt><trkpt lat="40.5910876" lon="19.6100096"><ele>38.0</ele><time>2026-04-26T11:55:24.27Z</time></trkpt><trkpt lat="40.5908261" lon="19.6102699"><ele>38.0</ele><time>2026-04-26T11:55:25.272Z</time></trkpt><trkpt lat="40.5905626" lon="19.6105374"><ele>38.5</ele><time>2026-04-26T11:55:26.27Z</time></trkpt><trkpt lat="40.5902978" lon="19.6108027"><ele>39.0</ele><time>2026-04-26T11:55:27.27Z</time></trkpt><trkpt lat="40.590035" lon="19.6110681"><ele>38.5</ele><time>2026-04-26T11:55:28.27Z</time></trkpt><trkpt lat="40.5897745" lon="19.6113364"><ele>38.0</ele><time>2026-04-26T11:55:29.27Z</time></trkpt><trkpt lat="40.5895143" lon="19.6116052"><ele>38.0</ele><time>2026-04-26T11:55:30.27Z</time></trkpt><trkpt lat="40.5892538" lon="19.6118818"><ele>38.0</ele><time>2026-04-26T11:55:31.27Z</time></trkpt><trkpt lat="40.5889963" lon="19.6121482"><ele>37.5</ele><time>2026-04-26T11:55:32.268Z</time></trkpt><trkpt lat="40.5887422" lon="19.6124251"><ele>37.0</ele><time>2026-04-26T11:55:33.266Z</time></trkpt><trkpt lat="40.5884885" lon="19.6126988"><ele>37.5</ele><time>2026-04-26T11:55:34.267Z</time></trkpt><trkpt lat="40.5882361" lon="19.6129726"><ele>38.0</ele><time>2026-04-26T11:55:35.27Z</time></trkpt><trkpt lat="40.5879883" lon="19.6132523"><ele>37.5</ele><time>2026-04-26T11:55:36.27Z</time></trkpt><trkpt lat="40.5877397" lon="19.6135356"><ele>37.0</ele><time>2026-04-26T11:55:37.266Z</time></trkpt><trkpt lat="40.5874853" lon="19.613819"><ele>37.0</ele><time>2026-04-26T11:55:38.267Z</time></trkpt><trkpt lat="40.5872341" lon="19.6141034"><ele>37.0</ele><time>2026-04-26T11:55:39.268Z</time></trkpt><trkpt lat="40.5869801" lon="19.614385"><ele>37.0</ele><time>2026-04-26T11:55:40.271Z</time></trkpt><trkpt lat="40.5867398" lon="19.6146537"><ele>37.0</ele><time>2026-04-26T11:55:41.269Z</time></trkpt><trkpt lat="40.5865056" lon="19.6149087"><ele>37.0</ele><time>2026-04-26T11:55:42.269Z</time></trkpt><trkpt lat="40.5862723" lon="19.615163"><ele>37.0</ele><time>2026-04-26T11:55:43.272Z</time></trkpt><trkpt lat="40.5860459" lon="19.6154053"><ele>36.5</ele><time>2026-04-26T11:55:44.267Z</time></trkpt><trkpt lat="40.5858283" lon="19.6156422"><ele>36.0</ele><time>2026-04-26T11:55:45.268Z</time></trkpt><trkpt lat="40.5856151" lon="19.6158784"><ele>36.0</ele><time>2026-04-26T11:55:46.268Z</time></trkpt><trkpt lat="40.5854098" lon="19.6161161"><ele>36.0</ele><time>2026-04-26T11:55:47.267Z</time></trkpt><trkpt lat="40.585208" lon="19.6163467"><ele>35.5</ele><time>2026-04-26T11:55:48.269Z</time></trkpt><trkpt lat="40.5850085" lon="19.6165729"><ele>35.0</ele><time>2026-04-26T11:55:49.271Z</time></trkpt><trkpt lat="40.5848091" lon="19.6167873"><ele>35.5</ele><time>2026-04-26T11:55:50.269Z</time></trkpt><trkpt lat="40.5846108" lon="19.6169957"><ele>36.0</ele><time>2026-04-26T11:55:51.273Z</time></trkpt><trkpt lat="40.5844114" lon="19.6171925"><ele>36.0</ele><time>2026-04-26T11:55:52.27Z</time></trkpt><trkpt lat="40.5842149" lon="19.6173842"><ele>36.0</ele><time>2026-04-26T11:55:53.269Z</time></trkpt><trkpt lat="40.5840187" lon="19.6175688"><ele>36.0</ele><time>2026-04-26T11:55:54.268Z</time></trkpt><trkpt lat="40.5838244" lon="19.6177497"><ele>36.0</ele><time>2026-04-26T11:55:55.268Z</time></trkpt><trkpt lat="40.5836291" lon="19.6179165"><ele>35.5</ele><time>2026-04-26T11:55:56.267Z</time></trkpt><trkpt lat="40.5834404" lon="19.6180802"><ele>35.0</ele><time>2026-04-26T11:55:57.268Z</time></trkpt><trkpt lat="40.5832451" lon="19.618245"><ele>35.0</ele><time>2026-04-26T11:55:58.268Z</time></trkpt><trkpt lat="40.5830465" lon="19.618403"><ele>35.0</ele><time>2026-04-26T11:55:59.269Z</time></trkpt><trkpt lat="40.582846" lon="19.6185639"><ele>33.5</ele><time>2026-04-26T11:56:00.271Z</time></trkpt><trkpt lat="40.5826447" lon="19.618715"><ele>32.0</ele><time>2026-04-26T11:56:01.271Z</time></trkpt><trkpt lat="40.5824415" lon="19.6188612"><ele>32.0</ele><time>2026-04-26T11:56:02.269Z</time></trkpt><trkpt lat="40.582233" lon="19.6190042"><ele>32.0</ele><time>2026-04-26T11:56:03.269Z</time></trkpt><trkpt lat="40.5820271" lon="19.619143"><ele>32.5</ele><time>2026-04-26T11:56:04.269Z</time></trkpt><trkpt lat="40.581826" lon="19.6192755"><ele>33.0</ele><time>2026-04-26T11:56:05.268Z</time></trkpt><trkpt lat="40.5816217" lon="19.6194028"><ele>32.5</ele><time>2026-04-26T11:56:06.268Z</time></trkpt><trkpt lat="40.5814148" lon="19.6195287"><ele>32.0</ele><time>2026-04-26T11:56:07.268Z</time></trkpt><trkpt lat="40.5812065" lon="19.6196548"><ele>31.5</ele><time>2026-04-26T11:56:08.269Z</time></trkpt><trkpt lat="40.5809954" lon="19.6197728"><ele>31.0</ele><time>2026-04-26T11:56:09.269Z</time></trkpt><trkpt lat="40.5807795" lon="19.6198887"><ele>31.0</ele><time>2026-04-26T11:56:10.27Z</time></trkpt><trkpt lat="40.5805606" lon="19.620004"><ele>31.0</ele><time>2026-04-26T11:56:11.27Z</time></trkpt><trkpt lat="40.580341" lon="19.6201157"><ele>30.5</ele><time>2026-04-26T11:56:12.269Z</time></trkpt><trkpt lat="40.5801195" lon="19.6202197"><ele>30.0</ele><time>2026-04-26T11:56:13.267Z</time></trkpt><trkpt lat="40.5798954" lon="19.6203214"><ele>30.0</ele><time>2026-04-26T11:56:14.271Z</time></trkpt><trkpt lat="40.5796715" lon="19.6204146"><ele>30.0</ele><time>2026-04-26T11:56:15.27Z</time></trkpt><trkpt lat="40.5794473" lon="19.6205095"><ele>30.0</ele><time>2026-04-26T11:56:16.269Z</time></trkpt><trkpt lat="40.5792219" lon="19.6206096"><ele>30.0</ele><time>2026-04-26T11:56:17.269Z</time></trkpt><trkpt lat="40.5789964" lon="19.6207069"><ele>30.0</ele><time>2026-04-26T11:56:18.268Z</time></trkpt><trkpt lat="40.5787781" lon="19.6208136"><ele>30.0</ele><time>2026-04-26T11:56:19.269Z</time></trkpt><trkpt lat="40.5785617" lon="19.6209196"><ele>29.333333333333336</ele><time>2026-04-26T11:56:20.269Z</time></trkpt><trkpt lat="40.5783538" lon="19.621023"><ele>28.666666666666668</ele><time>2026-04-26T11:56:21.268Z</time></trkpt><trkpt lat="40.5781483" lon="19.6211194"><ele>28.0</ele><time>2026-04-26T11:56:22.269Z</time></trkpt><trkpt lat="40.5779438" lon="19.6212105"><ele>27.666666666666668</ele><time>2026-04-26T11:56:23.272Z</time></trkpt><trkpt lat="40.5777393" lon="19.6212971"><ele>27.333333333333336</ele><time>2026-04-26T11:56:24.267Z</time></trkpt><trkpt lat="40.5775311" lon="19.6213842"><ele>27.0</ele><time>2026-04-26T11:56:25.27Z</time></trkpt><trkpt lat="40.5773243" lon="19.6214788"><ele>27.0</ele><time>2026-04-26T11:56:26.27Z</time></trkpt><trkpt lat="40.5771156" lon="19.6215735"><ele>27.0</ele><time>2026-04-26T11:56:27.269Z</time></trkpt><trkpt lat="40.5769043" lon="19.6216721"><ele>27.0</ele><time>2026-04-26T11:56:28.271Z</time></trkpt><trkpt lat="40.576692" lon="19.6217735"><ele>27.0</ele><time>2026-04-26T11:56:29.27Z</time></trkpt><trkpt lat="40.5764774" lon="19.6218707"><ele>27.0</ele><time>2026-04-26T11:56:30.268Z</time></trkpt><trkpt lat="40.5762612" lon="19.6219703"><ele>27.0</ele><time>2026-04-26T11:56:31.269Z</time></trkpt><trkpt lat="40.5760429" lon="19.6220708"><ele>27.0</ele><time>2026-04-26T11:56:32.27Z</time></trkpt><trkpt lat="40.5758223" lon="19.6221711"><ele>27.0</ele><time>2026-04-26T11:56:33.27Z</time></trkpt><trkpt lat="40.5756027" lon="19.6222724"><ele>27.0</ele><time>2026-04-26T11:56:34.268Z</time></trkpt><trkpt lat="40.5753826" lon="19.6223736"><ele>27.0</ele><time>2026-04-26T11:56:35.269Z</time></trkpt><trkpt lat="40.5751637" lon="19.6224768"><ele>27.0</ele><time>2026-04-26T11:56:36.269Z</time></trkpt><trkpt lat="40.5749449" lon="19.6225888"><ele>27.0</ele><time>2026-04-26T11:56:37.27Z</time></trkpt><trkpt lat="40.5747323" lon="19.6227046"><ele>27.0</ele><time>2026-04-26T11:56:38.269Z</time></trkpt><trkpt lat="40.5745205" lon="19.6228363"><ele>26.5</ele><time>2026-04-26T11:56:39.268Z</time></trkpt><trkpt lat="40.5743102" lon="19.6229718"><ele>26.0</ele><time>2026-04-26T11:56:40.269Z</time></trkpt><trkpt lat="40.5741" lon="19.6231133"><ele>26.0</ele><time>2026-04-26T11:56:41.27Z</time></trkpt><trkpt lat="40.5738905" lon="19.6232665"><ele>26.0</ele><time>2026-04-26T11:56:42.269Z</time></trkpt><trkpt lat="40.573687" lon="19.6234228"><ele>25.5</ele><time>2026-04-26T11:56:43.269Z</time></trkpt><trkpt lat="40.5734874" lon="19.6235873"><ele>25.0</ele><time>2026-04-26T11:56:44.269Z</time></trkpt><trkpt lat="40.5732976" lon="19.6237657"><ele>25.0</ele><time>2026-04-26T11:56:45.27Z</time></trkpt><trkpt lat="40.5731078" lon="19.6239469"><ele>25.0</ele><time>2026-04-26T11:56:46.269Z</time></trkpt><trkpt lat="40.5729245" lon="19.6241354"><ele>25.0</ele><time>2026-04-26T11:56:47.269Z</time></trkpt><trkpt lat="40.5727426" lon="19.6243331"><ele>25.0</ele><time>2026-04-26T11:56:48.269Z</time></trkpt><trkpt lat="40.5725638" lon="19.6245343"><ele>25.0</ele><time>2026-04-26T11:56:49.27Z</time></trkpt><trkpt lat="40.572388" lon="19.6247448"><ele>25.0</ele><time>2026-04-26T11:56:50.272Z</time></trkpt><trkpt lat="40.5722167" lon="19.6249627"><ele>25.0</ele><time>2026-04-26T11:56:51.271Z</time></trkpt><trkpt lat="40.5720496" lon="19.6251869"><ele>25.0</ele><time>2026-04-26T11:56:52.271Z</time></trkpt><trkpt lat="40.5718877" lon="19.6254159"><ele>24.5</ele><time>2026-04-26T11:56:53.269Z</time></trkpt><trkpt lat="40.5717303" lon="19.6256517"><ele>24.0</ele><time>2026-04-26T11:56:54.269Z</time></trkpt><trkpt lat="40.5715803" lon="19.6258921"><ele>24.0</ele><time>2026-04-26T11:56:55.27Z</time></trkpt><trkpt lat="40.5714348" lon="19.6261414"><ele>24.0</ele><time>2026-04-26T11:56:56.267Z</time></trkpt><trkpt lat="40.5712949" lon="19.6263956"><ele>24.5</ele><time>2026-04-26T11:56:57.268Z</time></trkpt><trkpt lat="40.57116" lon="19.626657"><ele>25.0</ele><time>2026-04-26T11:56:58.268Z</time></trkpt><trkpt lat="40.5710296" lon="19.6269238"><ele>25.0</ele><time>2026-04-26T11:56:59.271Z</time></trkpt><trkpt lat="40.5709054" lon="19.6271974"><ele>25.0</ele><time>2026-04-26T11:57:00.268Z</time></trkpt><trkpt lat="40.5707882" lon="19.6274769"><ele>25.0</ele><time>2026-04-26T11:57:01.27Z</time></trkpt><trkpt lat="40.5706762" lon="19.627764"><ele>25.0</ele><time>2026-04-26T11:57:02.27Z</time></trkpt><trkpt lat="40.5705708" lon="19.6280571"><ele>25.5</ele><time>2026-04-26T11:57:03.271Z</time></trkpt><trkpt lat="40.5704716" lon="19.6283552"><ele>26.0</ele><time>2026-04-26T11:57:04.27Z</time></trkpt><trkpt lat="40.5703793" lon="19.6286586"><ele>26.0</ele><time>2026-04-26T11:57:05.27Z</time></trkpt><trkpt lat="40.5702928" lon="19.6289663"><ele>26.0</ele><time>2026-04-26T11:57:06.27Z</time></trkpt><trkpt lat="40.5702125" lon="19.6292781"><ele>26.5</ele><time>2026-04-26T11:57:07.27Z</time></trkpt><trkpt lat="40.5701385" lon="19.6295938"><ele>27.0</ele><time>2026-04-26T11:57:08.268Z</time></trkpt><trkpt lat="40.5700679" lon="19.6299124"><ele>27.0</ele><time>2026-04-26T11:57:09.271Z</time></trkpt><trkpt lat="40.5699992" lon="19.6302295"><ele>27.0</ele><time>2026-04-26T11:57:10.269Z</time></trkpt><trkpt lat="40.5699296" lon="19.6305491"><ele>27.5</ele><time>2026-04-26T11:57:11.27Z</time></trkpt><trkpt lat="40.5698593" lon="19.6308666"><ele>28.0</ele><time>2026-04-26T11:57:12.27Z</time></trkpt><trkpt lat="40.5697869" lon="19.6311828"><ele>28.0</ele><time>2026-04-26T11:57:13.274Z</time></trkpt><trkpt lat="40.5697185" lon="19.6314988"><ele>28.0</ele><time>2026-04-26T11:57:14.272Z</time></trkpt><trkpt lat="40.5696501" lon="19.6318136"><ele>28.5</ele><time>2026-04-26T11:57:15.27Z</time></trkpt><trkpt lat="40.5695819" lon="19.6321273"><ele>29.0</ele><time>2026-04-26T11:57:16.274Z</time></trkpt><trkpt lat="40.5695134" lon="19.6324406"><ele>28.0</ele><time>2026-04-26T11:57:17.269Z</time></trkpt><trkpt lat="40.5694451" lon="19.6327554"><ele>27.0</ele><time>2026-04-26T11:57:18.269Z</time></trkpt><trkpt lat="40.5693761" lon="19.63307"><ele>27.0</ele><time>2026-04-26T11:57:19.268Z</time></trkpt><trkpt lat="40.5693061" lon="19.6333877"><ele>27.0</ele><time>2026-04-26T11:57:20.272Z</time></trkpt><trkpt lat="40.5692384" lon="19.6337048"><ele>27.5</ele><time>2026-04-26T11:57:21.268Z</time></trkpt><trkpt lat="40.5691713" lon="19.6340233"><ele>28.0</ele><time>2026-04-26T11:57:22.269Z</time></trkpt><trkpt lat="40.5691003" lon="19.634341"><ele>29.0</ele><time>2026-04-26T11:57:23.268Z</time></trkpt><trkpt lat="40.5690327" lon="19.6346579"><ele>30.0</ele><time>2026-04-26T11:57:24.269Z</time></trkpt><trkpt lat="40.5689627" lon="19.6349731"><ele>30.0</ele><time>2026-04-26T11:57:25.269Z</time></trkpt><trkpt lat="40.5688942" lon="19.6352863"><ele>30.0</ele><time>2026-04-26T11:57:26.268Z</time></trkpt><trkpt lat="40.568828" lon="19.6355997"><ele>29.5</ele><time>2026-04-26T11:57:27.268Z</time></trkpt><trkpt lat="40.5687592" lon="19.635911"><ele>29.0</ele><time>2026-04-26T11:57:28.268Z</time></trkpt><trkpt lat="40.5686914" lon="19.6362195"><ele>28.5</ele><time>2026-04-26T11:57:29.269Z</time></trkpt><trkpt lat="40.5686241" lon="19.6365289"><ele>28.0</ele><time>2026-04-26T11:57:30.27Z</time></trkpt><trkpt lat="40.5685566" lon="19.6368348"><ele>28.0</ele><time>2026-04-26T11:57:31.271Z</time></trkpt><trkpt lat="40.5684913" lon="19.6371398"><ele>28.0</ele><time>2026-04-26T11:57:32.27Z</time></trkpt><trkpt lat="40.568424" lon="19.6374449"><ele>28.0</ele><time>2026-04-26T11:57:33.267Z</time></trkpt><trkpt lat="40.5683574" lon="19.6377506"><ele>28.0</ele><time>2026-04-26T11:57:34.269Z</time></trkpt><trkpt lat="40.5682903" lon="19.6380562"><ele>29.0</ele><time>2026-04-26T11:57:35.267Z</time></trkpt><trkpt lat="40.5682235" lon="19.6383654"><ele>30.0</ele><time>2026-04-26T11:57:36.269Z</time></trkpt><trkpt lat="40.568157" lon="19.6386744"><ele>30.5</ele><time>2026-04-26T11:57:37.271Z</time></trkpt><trkpt lat="40.5680889" lon="19.6389833"><ele>31.0</ele><time>2026-04-26T11:57:38.268Z</time></trkpt><trkpt lat="40.568023" lon="19.6392905"><ele>31.0</ele><time>2026-04-26T11:57:39.268Z</time></trkpt><trkpt lat="40.5679597" lon="19.6396001"><ele>31.0</ele><time>2026-04-26T11:57:40.267Z</time></trkpt><trkpt lat="40.5678919" lon="19.6399088"><ele>31.0</ele><time>2026-04-26T11:57:41.272Z</time></trkpt><trkpt lat="40.5678242" lon="19.6402173"><ele>31.0</ele><time>2026-04-26T11:57:42.269Z</time></trkpt><trkpt lat="40.5677564" lon="19.6405257"><ele>30.5</ele><time>2026-04-26T11:57:43.268Z</time></trkpt><trkpt lat="40.5676895" lon="19.6408342"><ele>30.0</ele><time>2026-04-26T11:57:44.27Z</time></trkpt><trkpt lat="40.5676258" lon="19.641144"><ele>30.0</ele><time>2026-04-26T11:57:45.269Z</time></trkpt><trkpt lat="40.5675625" lon="19.6414571"><ele>30.0</ele><time>2026-04-26T11:57:46.27Z</time></trkpt><trkpt lat="40.5674942" lon="19.6417717"><ele>30.5</ele><time>2026-04-26T11:57:47.268Z</time></trkpt><trkpt lat="40.5674208" lon="19.6420907"><ele>31.0</ele><time>2026-04-26T11:57:48.268Z</time></trkpt><trkpt lat="40.567349" lon="19.6424099"><ele>31.0</ele><time>2026-04-26T11:57:49.268Z</time></trkpt><trkpt lat="40.5672835" lon="19.642731"><ele>31.0</ele><time>2026-04-26T11:57:50.271Z</time></trkpt><trkpt lat="40.5672155" lon="19.6430483"><ele>31.0</ele><time>2026-04-26T11:57:51.268Z</time></trkpt><trkpt lat="40.5671471" lon="19.6433631"><ele>31.0</ele><time>2026-04-26T11:57:52.268Z</time></trkpt><trkpt lat="40.56708" lon="19.6436769"><ele>32.0</ele><time>2026-04-26T11:57:53.269Z</time></trkpt><trkpt lat="40.5670109" lon="19.6439903"><ele>33.0</ele><time>2026-04-26T11:57:54.269Z</time></trkpt><trkpt lat="40.5669418" lon="19.6442996"><ele>33.5</ele><time>2026-04-26T11:57:55.27Z</time></trkpt><trkpt lat="40.5668734" lon="19.6446082"><ele>34.0</ele><time>2026-04-26T11:57:56.268Z</time></trkpt><trkpt lat="40.5668006" lon="19.644911"><ele>34.0</ele><time>2026-04-26T11:57:57.268Z</time></trkpt><trkpt lat="40.5667166" lon="19.6452113"><ele>34.0</ele><time>2026-04-26T11:57:58.268Z</time></trkpt><trkpt lat="40.5666219" lon="19.6455082"><ele>34.0</ele><time>2026-04-26T11:57:59.272Z</time></trkpt><trkpt lat="40.5665119" lon="19.6457963"><ele>34.0</ele><time>2026-04-26T11:58:00.269Z</time></trkpt><trkpt lat="40.5663829" lon="19.646074"><ele>34.0</ele><time>2026-04-26T11:58:01.268Z</time></trkpt><trkpt lat="40.5662426" lon="19.6463423"><ele>34.0</ele><time>2026-04-26T11:58:02.27Z</time></trkpt><trkpt lat="40.5660902" lon="19.6465961"><ele>34.0</ele><time>2026-04-26T11:58:03.269Z</time></trkpt><trkpt lat="40.5659221" lon="19.6468306"><ele>34.0</ele><time>2026-04-26T11:58:04.272Z</time></trkpt><trkpt lat="40.565744" lon="19.6470475"><ele>35.0</ele><time>2026-04-26T11:58:05.269Z</time></trkpt><trkpt lat="40.5655603" lon="19.6472479"><ele>36.0</ele><time>2026-04-26T11:58:06.269Z</time></trkpt><trkpt lat="40.5653703" lon="19.6474299"><ele>36.0</ele><time>2026-04-26T11:58:07.268Z</time></trkpt><trkpt lat="40.5651727" lon="19.64759"><ele>36.0</ele><time>2026-04-26T11:58:08.267Z</time></trkpt><trkpt lat="40.56497" lon="19.6477376"><ele>38.5</ele><time>2026-04-26T11:58:09.269Z</time></trkpt><trkpt lat="40.5647585" lon="19.647859"><ele>41.0</ele><time>2026-04-26T11:58:10.269Z</time></trkpt><trkpt lat="40.5645465" lon="19.6479737"><ele>48.0</ele><time>2026-04-26T11:58:11.27Z</time></trkpt><trkpt lat="40.5643284" lon="19.648076"><ele>55.0</ele><time>2026-04-26T11:58:12.271Z</time></trkpt><trkpt lat="40.5641029" lon="19.6481676"><ele>55.0</ele><time>2026-04-26T11:58:13.267Z</time></trkpt><trkpt lat="40.5638737" lon="19.6482443"><ele>55.0</ele><time>2026-04-26T11:58:14.272Z</time></trkpt><trkpt lat="40.5636375" lon="19.648301"><ele>58.5</ele><time>2026-04-26T11:58:15.268Z</time></trkpt><trkpt lat="40.5633967" lon="19.6483365"><ele>62.0</ele><time>2026-04-26T11:58:16.267Z</time></trkpt><trkpt lat="40.5631495" lon="19.6483483"><ele>62.0</ele><time>2026-04-26T11:58:17.271Z</time></trkpt><trkpt lat="40.5629142" lon="19.6483403"><ele>62.0</ele><time>2026-04-26T11:58:18.269Z</time></trkpt><trkpt lat="40.5626767" lon="19.6483196"><ele>57.0</ele><time>2026-04-26T11:58:19.269Z</time></trkpt><trkpt lat="40.5624364" lon="19.6482947"><ele>52.0</ele><time>2026-04-26T11:58:20.273Z</time></trkpt><trkpt lat="40.5621982" lon="19.6482698"><ele>47.5</ele><time>2026-04-26T11:58:21.268Z</time></trkpt><trkpt lat="40.561958" lon="19.6482558"><ele>43.0</ele><time>2026-04-26T11:58:22.267Z</time></trkpt><trkpt lat="40.5617153" lon="19.6482548"><ele>43.0</ele><time>2026-04-26T11:58:23.271Z</time></trkpt><trkpt lat="40.5614723" lon="19.6482738"><ele>43.0</ele><time>2026-04-26T11:58:24.272Z</time></trkpt><trkpt lat="40.5612293" lon="19.648314"><ele>38.5</ele><time>2026-04-26T11:58:25.27Z</time></trkpt><trkpt lat="40.5609868" lon="19.6483747"><ele>34.0</ele><time>2026-04-26T11:58:26.268Z</time></trkpt><trkpt lat="40.5607455" lon="19.6484544"><ele>34.0</ele><time>2026-04-26T11:58:27.27Z</time></trkpt><trkpt lat="40.5605087" lon="19.6485535"><ele>34.0</ele><time>2026-04-26T11:58:28.275Z</time></trkpt><trkpt lat="40.5602747" lon="19.648677"><ele>37.0</ele><time>2026-04-26T11:58:29.27Z</time></trkpt><trkpt lat="40.5600448" lon="19.6488227"><ele>40.0</ele><time>2026-04-26T11:58:30.267Z</time></trkpt><trkpt lat="40.5598211" lon="19.6489884"><ele>40.0</ele><time>2026-04-26T11:58:31.269Z</time></trkpt><trkpt lat="40.5596075" lon="19.6491747"><ele>40.0</ele><time>2026-04-26T11:58:32.271Z</time></trkpt><trkpt lat="40.5594064" lon="19.6493792"><ele>34.0</ele><time>2026-04-26T11:58:33.269Z</time></trkpt><trkpt lat="40.5592143" lon="19.6496065"><ele>28.0</ele><time>2026-04-26T11:58:34.269Z</time></trkpt><trkpt lat="40.5590376" lon="19.649841"><ele>28.0</ele><time>2026-04-26T11:58:35.268Z</time></trkpt><trkpt lat="40.5588754" lon="19.6500841"><ele>28.0</ele><time>2026-04-26T11:58:36.273Z</time></trkpt><trkpt lat="40.5587254" lon="19.6503308"><ele>27.5</ele><time>2026-04-26T11:58:37.269Z</time></trkpt><trkpt lat="40.5585862" lon="19.6505836"><ele>27.0</ele><time>2026-04-26T11:58:38.27Z</time></trkpt><trkpt lat="40.5584506" lon="19.6508314"><ele>27.0</ele><time>2026-04-26T11:58:39.27Z</time></trkpt><trkpt lat="40.558314" lon="19.6510763"><ele>27.0</ele><time>2026-04-26T11:58:40.267Z</time></trkpt><trkpt lat="40.5581762" lon="19.6513122"><ele>27.333333333333336</ele><time>2026-04-26T11:58:41.269Z</time></trkpt><trkpt lat="40.5580268" lon="19.6515342"><ele>27.666666666666668</ele><time>2026-04-26T11:58:42.267Z</time></trkpt><trkpt lat="40.5578758" lon="19.6517486"><ele>28.0</ele><time>2026-04-26T11:58:43.267Z</time></trkpt><trkpt lat="40.5577152" lon="19.6519407"><ele>31.666666666666668</ele><time>2026-04-26T11:58:44.271Z</time></trkpt><trkpt lat="40.5575473" lon="19.6521223"><ele>35.333333333333336</ele><time>2026-04-26T11:58:45.267Z</time></trkpt><trkpt lat="40.5573692" lon="19.6522857"><ele>39.0</ele><time>2026-04-26T11:58:46.27Z</time></trkpt><trkpt lat="40.5571875" lon="19.6524423"><ele>36.333333333333336</ele><time>2026-04-26T11:58:47.268Z</time></trkpt><trkpt lat="40.5569985" lon="19.6525958"><ele>33.66666666666667</ele><time>2026-04-26T11:58:48.27Z</time></trkpt><trkpt lat="40.5568072" lon="19.6527376"><ele>31.0</ele><time>2026-04-26T11:58:49.271Z</time></trkpt><trkpt lat="40.5566143" lon="19.6528885"><ele>31.0</ele><time>2026-04-26T11:58:50.27Z</time></trkpt><trkpt lat="40.5564243" lon="19.653037"><ele>31.0</ele><time>2026-04-26T11:58:51.272Z</time></trkpt><trkpt lat="40.5562353" lon="19.6531882"><ele>31.0</ele><time>2026-04-26T11:58:52.269Z</time></trkpt><trkpt lat="40.5560507" lon="19.6533507"><ele>28.333333333333336</ele><time>2026-04-26T11:58:53.273Z</time></trkpt><trkpt lat="40.555869" lon="19.6535229"><ele>25.666666666666668</ele><time>2026-04-26T11:58:54.269Z</time></trkpt><trkpt lat="40.5556917" lon="19.6537041"><ele>23.0</ele><time>2026-04-26T11:58:55.267Z</time></trkpt><trkpt lat="40.5555187" lon="19.6538932"><ele>23.5</ele><time>2026-04-26T11:58:56.269Z</time></trkpt><trkpt lat="40.55535" lon="19.6540939"><ele>24.0</ele><time>2026-04-26T11:58:57.27Z</time></trkpt><trkpt lat="40.5551847" lon="19.6543058"><ele>23.0</ele><time>2026-04-26T11:58:58.27Z</time></trkpt><trkpt lat="40.5550231" lon="19.6545294"><ele>22.0</ele><time>2026-04-26T11:58:59.271Z</time></trkpt><trkpt lat="40.5548689" lon="19.6547649"><ele>22.0</ele><time>2026-04-26T11:59:00.268Z</time></trkpt><trkpt lat="40.5547173" lon="19.6550095"><ele>22.0</ele><time>2026-04-26T11:59:01.27Z</time></trkpt><trkpt lat="40.554574" lon="19.6552626"><ele>22.0</ele><time>2026-04-26T11:59:02.268Z</time></trkpt><trkpt lat="40.554432" lon="19.6555235"><ele>22.0</ele><time>2026-04-26T11:59:03.27Z</time></trkpt><trkpt lat="40.5542917" lon="19.6557877"><ele>22.0</ele><time>2026-04-26T11:59:04.269Z</time></trkpt><trkpt lat="40.5541563" lon="19.6560514"><ele>22.0</ele><time>2026-04-26T11:59:05.268Z</time></trkpt><trkpt lat="40.554019" lon="19.6563114"><ele>22.0</ele><time>2026-04-26T11:59:06.269Z</time></trkpt><trkpt lat="40.5538825" lon="19.6565728"><ele>22.0</ele><time>2026-04-26T11:59:07.269Z</time></trkpt><trkpt lat="40.5537459" lon="19.6568306"><ele>23.0</ele><time>2026-04-26T11:59:08.269Z</time></trkpt><trkpt lat="40.5536113" lon="19.6570871"><ele>24.0</ele><time>2026-04-26T11:59:09.27Z</time></trkpt><trkpt lat="40.5534765" lon="19.6573436"><ele>24.0</ele><time>2026-04-26T11:59:10.271Z</time></trkpt><trkpt lat="40.5533445" lon="19.6576009"><ele>24.0</ele><time>2026-04-26T11:59:11.269Z</time></trkpt><trkpt lat="40.5532142" lon="19.6578523"><ele>23.666666666666668</ele><time>2026-04-26T11:59:12.266Z</time></trkpt><trkpt lat="40.5530852" lon="19.6580994"><ele>23.333333333333336</ele><time>2026-04-26T11:59:13.266Z</time></trkpt><trkpt lat="40.5529574" lon="19.6583371"><ele>23.0</ele><time>2026-04-26T11:59:14.268Z</time></trkpt><trkpt lat="40.5528333" lon="19.6585772"><ele>23.333333333333336</ele><time>2026-04-26T11:59:15.27Z</time></trkpt><trkpt lat="40.5527056" lon="19.6588124"><ele>23.666666666666668</ele><time>2026-04-26T11:59:16.27Z</time></trkpt><trkpt lat="40.5525776" lon="19.6590539"><ele>24.0</ele><time>2026-04-26T11:59:17.27Z</time></trkpt><trkpt lat="40.5524495" lon="19.6593015"><ele>23.5</ele><time>2026-04-26T11:59:18.27Z</time></trkpt><trkpt lat="40.5523183" lon="19.6595514"><ele>23.0</ele><time>2026-04-26T11:59:19.27Z</time></trkpt><trkpt lat="40.5521873" lon="19.6598019"><ele>23.0</ele><time>2026-04-26T11:59:20.266Z</time></trkpt><trkpt lat="40.5520548" lon="19.6600599"><ele>23.0</ele><time>2026-04-26T11:59:21.268Z</time></trkpt><trkpt lat="40.5519203" lon="19.6603171"><ele>22.5</ele><time>2026-04-26T11:59:22.269Z</time></trkpt><trkpt lat="40.5517829" lon="19.6605775"><ele>22.0</ele><time>2026-04-26T11:59:23.269Z</time></trkpt><trkpt lat="40.5516417" lon="19.6608382"><ele>22.0</ele><time>2026-04-26T11:59:24.268Z</time></trkpt><trkpt lat="40.5515013" lon="19.661099"><ele>22.0</ele><time>2026-04-26T11:59:25.268Z</time></trkpt><trkpt lat="40.5513622" lon="19.6613648"><ele>22.5</ele><time>2026-04-26T11:59:26.27Z</time></trkpt><trkpt lat="40.5512259" lon="19.6616365"><ele>23.0</ele><time>2026-04-26T11:59:27.269Z</time></trkpt><trkpt lat="40.5510888" lon="19.6619009"><ele>23.0</ele><time>2026-04-26T11:59:28.268Z</time></trkpt><trkpt lat="40.5509479" lon="19.662166"><ele>23.0</ele><time>2026-04-26T11:59:29.27Z</time></trkpt><trkpt lat="40.550807" lon="19.6624322"><ele>23.0</ele><time>2026-04-26T11:59:30.268Z</time></trkpt><trkpt lat="40.5506657" lon="19.6627034"><ele>23.0</ele><time>2026-04-26T11:59:31.27Z</time></trkpt><trkpt lat="40.5505237" lon="19.6629711"><ele>23.0</ele><time>2026-04-26T11:59:32.271Z</time></trkpt><trkpt lat="40.5503788" lon="19.6632403"><ele>23.0</ele><time>2026-04-26T11:59:33.267Z</time></trkpt><trkpt lat="40.5502378" lon="19.6635144"><ele>23.5</ele><time>2026-04-26T11:59:34.275Z</time></trkpt><trkpt lat="40.5500979" lon="19.6637907"><ele>24.0</ele><time>2026-04-26T11:59:35.27Z</time></trkpt><trkpt lat="40.549959" lon="19.6640652"><ele>24.0</ele><time>2026-04-26T11:59:36.269Z</time></trkpt><trkpt lat="40.5498216" lon="19.6643423"><ele>24.0</ele><time>2026-04-26T11:59:37.268Z</time></trkpt><trkpt lat="40.5496837" lon="19.6646214"><ele>24.0</ele><time>2026-04-26T11:59:38.269Z</time></trkpt><trkpt lat="40.5495444" lon="19.6648953"><ele>24.0</ele><time>2026-04-26T11:59:39.267Z</time></trkpt><trkpt lat="40.549409" lon="19.665173"><ele>24.0</ele><time>2026-04-26T11:59:40.268Z</time></trkpt><trkpt lat="40.5492754" lon="19.6654506"><ele>24.0</ele><time>2026-04-26T11:59:41.268Z</time></trkpt><trkpt lat="40.549141" lon="19.6657293"><ele>24.0</ele><time>2026-04-26T11:59:42.27Z</time></trkpt><trkpt lat="40.5490073" lon="19.6660122"><ele>24.0</ele><time>2026-04-26T11:59:43.27Z</time></trkpt><trkpt lat="40.5488743" lon="19.6662989"><ele>24.0</ele><time>2026-04-26T11:59:44.27Z</time></trkpt><trkpt lat="40.5487381" lon="19.6665815"><ele>24.0</ele><time>2026-04-26T11:59:45.269Z</time></trkpt><trkpt lat="40.548606" lon="19.666867"><ele>24.0</ele><time>2026-04-26T11:59:46.268Z</time></trkpt><trkpt lat="40.5484744" lon="19.6671581"><ele>24.0</ele><time>2026-04-26T11:59:47.267Z</time></trkpt><trkpt lat="40.5483417" lon="19.6674549"><ele>24.0</ele><time>2026-04-26T11:59:48.269Z</time></trkpt><trkpt lat="40.5482058" lon="19.6677553"><ele>24.0</ele><time>2026-04-26T11:59:49.272Z</time></trkpt><trkpt lat="40.5480658" lon="19.6680522"><ele>23.5</ele><time>2026-04-26T11:59:50.27Z</time></trkpt><trkpt lat="40.5479328" lon="19.6683581"><ele>23.0</ele><time>2026-04-26T11:59:51.27Z</time></trkpt><trkpt lat="40.5478002" lon="19.6686645"><ele>23.0</ele><time>2026-04-26T11:59:52.271Z</time></trkpt><trkpt lat="40.5476708" lon="19.6689738"><ele>23.0</ele><time>2026-04-26T11:59:53.269Z</time></trkpt><trkpt lat="40.5475428" lon="19.6692808"><ele>23.5</ele><time>2026-04-26T11:59:54.269Z</time></trkpt><trkpt lat="40.5474204" lon="19.6695867"><ele>24.0</ele><time>2026-04-26T11:59:55.269Z</time></trkpt><trkpt lat="40.5472975" lon="19.6698919"><ele>24.0</ele><time>2026-04-26T11:59:56.27Z</time></trkpt><trkpt lat="40.5471763" lon="19.6701981"><ele>24.0</ele><time>2026-04-26T11:59:57.271Z</time></trkpt><trkpt lat="40.5470554" lon="19.6704997"><ele>24.5</ele><time>2026-04-26T11:59:58.269Z</time></trkpt><trkpt lat="40.5469368" lon="19.670799"><ele>25.0</ele><time>2026-04-26T11:59:59.27Z</time></trkpt><trkpt lat="40.5468208" lon="19.6711001"><ele>24.5</ele><time>2026-04-26T12:00:00.267Z</time></trkpt><trkpt lat="40.5467061" lon="19.6714016"><ele>24.0</ele><time>2026-04-26T12:00:01.266Z</time></trkpt><trkpt lat="40.5465945" lon="19.6716992"><ele>24.5</ele><time>2026-04-26T12:00:02.267Z</time></trkpt><trkpt lat="40.5464822" lon="19.6719968"><ele>25.0</ele><time>2026-04-26T12:00:03.268Z</time></trkpt><trkpt lat="40.5463647" lon="19.6722964"><ele>25.0</ele><time>2026-04-26T12:00:04.269Z</time></trkpt><trkpt lat="40.5462468" lon="19.6725949"><ele>25.0</ele><time>2026-04-26T12:00:05.269Z</time></trkpt><trkpt lat="40.5461272" lon="19.6729001"><ele>25.0</ele><time>2026-04-26T12:00:06.268Z</time></trkpt><trkpt lat="40.5460128" lon="19.6732086"><ele>25.0</ele><time>2026-04-26T12:00:07.268Z</time></trkpt><trkpt lat="40.5458977" lon="19.6735193"><ele>25.0</ele><time>2026-04-26T12:00:08.268Z</time></trkpt><trkpt lat="40.5457869" lon="19.6738312"><ele>25.0</ele><time>2026-04-26T12:00:09.268Z</time></trkpt><trkpt lat="40.5456747" lon="19.6741461"><ele>24.5</ele><time>2026-04-26T12:00:10.268Z</time></trkpt><trkpt lat="40.5455622" lon="19.6744594"><ele>24.0</ele><time>2026-04-26T12:00:11.272Z</time></trkpt><trkpt lat="40.5454441" lon="19.6747812"><ele>25.0</ele><time>2026-04-26T12:00:12.268Z</time></trkpt><trkpt lat="40.5453246" lon="19.6751055"><ele>26.0</ele><time>2026-04-26T12:00:13.267Z</time></trkpt><trkpt lat="40.5452034" lon="19.6754293"><ele>26.0</ele><time>2026-04-26T12:00:14.27Z</time></trkpt><trkpt lat="40.5450807" lon="19.6757499"><ele>26.0</ele><time>2026-04-26T12:00:15.27Z</time></trkpt><trkpt lat="40.544961" lon="19.6760763"><ele>25.0</ele><time>2026-04-26T12:00:16.27Z</time></trkpt><trkpt lat="40.5448421" lon="19.6763972"><ele>24.0</ele><time>2026-04-26T12:00:17.268Z</time></trkpt><trkpt lat="40.5447238" lon="19.6767171"><ele>24.0</ele><time>2026-04-26T12:00:18.269Z</time></trkpt><trkpt lat="40.5446067" lon="19.6770335"><ele>24.0</ele><time>2026-04-26T12:00:19.268Z</time></trkpt><trkpt lat="40.5444868" lon="19.67735"><ele>25.0</ele><time>2026-04-26T12:00:20.269Z</time></trkpt><trkpt lat="40.5443657" lon="19.6776609"><ele>26.0</ele><time>2026-04-26T12:00:21.269Z</time></trkpt><trkpt lat="40.5442466" lon="19.677974"><ele>26.0</ele><time>2026-04-26T12:00:22.269Z</time></trkpt><trkpt lat="40.544128" lon="19.6782868"><ele>26.0</ele><time>2026-04-26T12:00:23.27Z</time></trkpt><trkpt lat="40.5440098" lon="19.6785984"><ele>25.5</ele><time>2026-04-26T12:00:24.27Z</time></trkpt><trkpt lat="40.5438935" lon="19.6789113"><ele>25.0</ele><time>2026-04-26T12:00:25.27Z</time></trkpt><trkpt lat="40.5437777" lon="19.6792237"><ele>26.0</ele><time>2026-04-26T12:00:26.269Z</time></trkpt><trkpt lat="40.543661" lon="19.679535"><ele>27.0</ele><time>2026-04-26T12:00:27.271Z</time></trkpt><trkpt lat="40.5435444" lon="19.6798452"><ele>27.0</ele><time>2026-04-26T12:00:28.269Z</time></trkpt><trkpt lat="40.5434264" lon="19.6801567"><ele>27.0</ele><time>2026-04-26T12:00:29.268Z</time></trkpt><trkpt lat="40.5433072" lon="19.6804687"><ele>26.5</ele><time>2026-04-26T12:00:30.269Z</time></trkpt><trkpt lat="40.5431871" lon="19.6807824"><ele>26.0</ele><time>2026-04-26T12:00:31.268Z</time></trkpt><trkpt lat="40.5430682" lon="19.6810937"><ele>25.5</ele><time>2026-04-26T12:00:32.269Z</time></trkpt><trkpt lat="40.5429506" lon="19.6814094"><ele>25.0</ele><time>2026-04-26T12:00:33.271Z</time></trkpt><trkpt lat="40.542831" lon="19.6817293"><ele>25.5</ele><time>2026-04-26T12:00:34.27Z</time></trkpt><trkpt lat="40.5427102" lon="19.6820498"><ele>26.0</ele><time>2026-04-26T12:00:35.269Z</time></trkpt><trkpt lat="40.5425946" lon="19.6823717"><ele>26.0</ele><time>2026-04-26T12:00:36.269Z</time></trkpt><trkpt lat="40.5424729" lon="19.6826955"><ele>26.0</ele><time>2026-04-26T12:00:37.269Z</time></trkpt><trkpt lat="40.5423523" lon="19.6830193"><ele>26.0</ele><time>2026-04-26T12:00:38.27Z</time></trkpt><trkpt lat="40.5422327" lon="19.6833417"><ele>26.0</ele><time>2026-04-26T12:00:39.268Z</time></trkpt><trkpt lat="40.5421099" lon="19.6836609"><ele>25.5</ele><time>2026-04-26T12:00:40.268Z</time></trkpt><trkpt lat="40.5419876" lon="19.6839845"><ele>25.0</ele><time>2026-04-26T12:00:41.269Z</time></trkpt><trkpt lat="40.5418673" lon="19.6843064"><ele>25.5</ele><time>2026-04-26T12:00:42.268Z</time></trkpt><trkpt lat="40.5417484" lon="19.684632"><ele>26.0</ele><time>2026-04-26T12:00:43.27Z</time></trkpt><trkpt lat="40.5416307" lon="19.6849527"><ele>26.5</ele><time>2026-04-26T12:00:44.27Z</time></trkpt><trkpt lat="40.5415132" lon="19.6852722"><ele>27.0</ele><time>2026-04-26T12:00:45.268Z</time></trkpt><trkpt lat="40.541394" lon="19.6855873"><ele>27.0</ele><time>2026-04-26T12:00:46.268Z</time></trkpt><trkpt lat="40.5412744" lon="19.6858997"><ele>27.0</ele><time>2026-04-26T12:00:47.27Z</time></trkpt><trkpt lat="40.5411564" lon="19.6862106"><ele>28.5</ele><time>2026-04-26T12:00:48.27Z</time></trkpt><trkpt lat="40.5410402" lon="19.6865223"><ele>30.0</ele><time>2026-04-26T12:00:49.27Z</time></trkpt><trkpt lat="40.5409212" lon="19.6868327"><ele>29.0</ele><time>2026-04-26T12:00:50.269Z</time></trkpt><trkpt lat="40.5408044" lon="19.6871432"><ele>28.0</ele><time>2026-04-26T12:00:51.271Z</time></trkpt><trkpt lat="40.5406885" lon="19.6874537"><ele>27.5</ele><time>2026-04-26T12:00:52.27Z</time></trkpt><trkpt lat="40.5405724" lon="19.6877683"><ele>27.0</ele><time>2026-04-26T12:00:53.269Z</time></trkpt><trkpt lat="40.540458" lon="19.6880748"><ele>27.0</ele><time>2026-04-26T12:00:54.27Z</time></trkpt><trkpt lat="40.5403452" lon="19.6883801"><ele>27.0</ele><time>2026-04-26T12:00:55.27Z</time></trkpt><trkpt lat="40.5402317" lon="19.6886839"><ele>27.5</ele><time>2026-04-26T12:00:56.271Z</time></trkpt><trkpt lat="40.5401199" lon="19.6889878"><ele>28.0</ele><time>2026-04-26T12:00:57.268Z</time></trkpt><trkpt lat="40.5400072" lon="19.6892876"><ele>28.0</ele><time>2026-04-26T12:00:58.269Z</time></trkpt><trkpt lat="40.5398964" lon="19.6895896"><ele>28.0</ele><time>2026-04-26T12:00:59.271Z</time></trkpt><trkpt lat="40.539788" lon="19.6898926"><ele>28.0</ele><time>2026-04-26T12:01:00.269Z</time></trkpt><trkpt lat="40.5396816" lon="19.6901965"><ele>28.0</ele><time>2026-04-26T12:01:01.269Z</time></trkpt><trkpt lat="40.5395763" lon="19.6905017"><ele>28.5</ele><time>2026-04-26T12:01:02.269Z</time></trkpt><trkpt lat="40.5394732" lon="19.6908078"><ele>29.0</ele><time>2026-04-26T12:01:03.269Z</time></trkpt><trkpt lat="40.5393709" lon="19.6911133"><ele>29.0</ele><time>2026-04-26T12:01:04.268Z</time></trkpt><trkpt lat="40.539268" lon="19.6914197"><ele>29.0</ele><time>2026-04-26T12:01:05.266Z</time></trkpt><trkpt lat="40.5391649" lon="19.6917268"><ele>28.5</ele><time>2026-04-26T12:01:06.27Z</time></trkpt><trkpt lat="40.5390651" lon="19.6920358"><ele>28.0</ele><time>2026-04-26T12:01:07.27Z</time></trkpt><trkpt lat="40.5389682" lon="19.6923457"><ele>28.0</ele><time>2026-04-26T12:01:08.27Z</time></trkpt><trkpt lat="40.5388724" lon="19.6926579"><ele>28.0</ele><time>2026-04-26T12:01:09.269Z</time></trkpt><trkpt lat="40.5387761" lon="19.692972"><ele>28.0</ele><time>2026-04-26T12:01:10.266Z</time></trkpt><trkpt lat="40.5386812" lon="19.6932876"><ele>28.0</ele><time>2026-04-26T12:01:11.268Z</time></trkpt><trkpt lat="40.5385879" lon="19.6936032"><ele>28.0</ele><time>2026-04-26T12:01:12.268Z</time></trkpt><trkpt lat="40.5384965" lon="19.6939124"><ele>28.0</ele><time>2026-04-26T12:01:13.268Z</time></trkpt><trkpt lat="40.5384099" lon="19.6942286"><ele>28.5</ele><time>2026-04-26T12:01:14.268Z</time></trkpt><trkpt lat="40.5383242" lon="19.6945417"><ele>29.0</ele><time>2026-04-26T12:01:15.267Z</time></trkpt><trkpt lat="40.5382401" lon="19.6948507"><ele>29.0</ele><time>2026-04-26T12:01:16.27Z</time></trkpt><trkpt lat="40.5381581" lon="19.6951584"><ele>29.0</ele><time>2026-04-26T12:01:17.269Z</time></trkpt><trkpt lat="40.5380771" lon="19.6954634"><ele>29.0</ele><time>2026-04-26T12:01:18.269Z</time></trkpt><trkpt lat="40.5379966" lon="19.6957657"><ele>29.0</ele><time>2026-04-26T12:01:19.269Z</time></trkpt><trkpt lat="40.5379178" lon="19.6960637"><ele>29.5</ele><time>2026-04-26T12:01:20.269Z</time></trkpt><trkpt lat="40.5378406" lon="19.6963616"><ele>30.0</ele><time>2026-04-26T12:01:21.27Z</time></trkpt><trkpt lat="40.537762" lon="19.696658"><ele>29.5</ele><time>2026-04-26T12:01:22.267Z</time></trkpt><trkpt lat="40.5376868" lon="19.6969595"><ele>29.0</ele><time>2026-04-26T12:01:23.269Z</time></trkpt><trkpt lat="40.5376132" lon="19.6972646"><ele>29.0</ele><time>2026-04-26T12:01:24.271Z</time></trkpt><trkpt lat="40.5375423" lon="19.6975688"><ele>29.0</ele><time>2026-04-26T12:01:25.269Z</time></trkpt><trkpt lat="40.537472" lon="19.6978757"><ele>29.5</ele><time>2026-04-26T12:01:26.268Z</time></trkpt><trkpt lat="40.5374036" lon="19.6981859"><ele>30.0</ele><time>2026-04-26T12:01:27.269Z</time></trkpt><trkpt lat="40.5373353" lon="19.6984932"><ele>30.0</ele><time>2026-04-26T12:01:28.268Z</time></trkpt><trkpt lat="40.5372658" lon="19.6988006"><ele>30.0</ele><time>2026-04-26T12:01:29.27Z</time></trkpt><trkpt lat="40.5371967" lon="19.6991108"><ele>30.0</ele><time>2026-04-26T12:01:30.27Z</time></trkpt><trkpt lat="40.5371264" lon="19.6994213"><ele>30.0</ele><time>2026-04-26T12:01:31.269Z</time></trkpt><trkpt lat="40.537057" lon="19.6997335"><ele>30.0</ele><time>2026-04-26T12:01:32.268Z</time></trkpt><trkpt lat="40.5369837" lon="19.7000478"><ele>30.0</ele><time>2026-04-26T12:01:33.27Z</time></trkpt><trkpt lat="40.5369144" lon="19.7003637"><ele>30.0</ele><time>2026-04-26T12:01:34.267Z</time></trkpt><trkpt lat="40.5368453" lon="19.7006785"><ele>30.0</ele><time>2026-04-26T12:01:35.27Z</time></trkpt><trkpt lat="40.5367757" lon="19.7009929"><ele>30.0</ele><time>2026-04-26T12:01:36.268Z</time></trkpt><trkpt lat="40.5367051" lon="19.7013068"><ele>30.0</ele><time>2026-04-26T12:01:37.27Z</time></trkpt><trkpt lat="40.5366343" lon="19.701623"><ele>30.5</ele><time>2026-04-26T12:01:38.268Z</time></trkpt><trkpt lat="40.5365626" lon="19.7019382"><ele>31.0</ele><time>2026-04-26T12:01:39.268Z</time></trkpt><trkpt lat="40.5364918" lon="19.7022532"><ele>31.0</ele><time>2026-04-26T12:01:40.268Z</time></trkpt><trkpt lat="40.5364276" lon="19.7025778"><ele>31.0</ele><time>2026-04-26T12:01:41.274Z</time></trkpt><trkpt lat="40.5363579" lon="19.7028951"><ele>31.5</ele><time>2026-04-26T12:01:42.269Z</time></trkpt><trkpt lat="40.5362885" lon="19.7032108"><ele>32.0</ele><time>2026-04-26T12:01:43.273Z</time></trkpt><trkpt lat="40.5362192" lon="19.7035245"><ele>32.0</ele><time>2026-04-26T12:01:44.267Z</time></trkpt><trkpt lat="40.5361499" lon="19.7038364"><ele>32.0</ele><time>2026-04-26T12:01:45.268Z</time></trkpt><trkpt lat="40.5360793" lon="19.7041481"><ele>31.5</ele><time>2026-04-26T12:01:46.274Z</time></trkpt><trkpt lat="40.5360092" lon="19.7044641"><ele>31.0</ele><time>2026-04-26T12:01:47.27Z</time></trkpt><trkpt lat="40.5359352" lon="19.70478"><ele>31.0</ele><time>2026-04-26T12:01:48.271Z</time></trkpt><trkpt lat="40.5358603" lon="19.7050939"><ele>31.0</ele><time>2026-04-26T12:01:49.268Z</time></trkpt><trkpt lat="40.5357854" lon="19.7054099"><ele>31.0</ele><time>2026-04-26T12:01:50.269Z</time></trkpt><trkpt lat="40.5357135" lon="19.7057286"><ele>31.0</ele><time>2026-04-26T12:01:51.269Z</time></trkpt><trkpt lat="40.5356419" lon="19.7060518"><ele>32.0</ele><time>2026-04-26T12:01:52.272Z</time></trkpt><trkpt lat="40.5355705" lon="19.7063795"><ele>33.0</ele><time>2026-04-26T12:01:53.268Z</time></trkpt><trkpt lat="40.5355006" lon="19.7067087"><ele>33.5</ele><time>2026-04-26T12:01:54.268Z</time></trkpt><trkpt lat="40.5354306" lon="19.7070398"><ele>34.0</ele><time>2026-04-26T12:01:55.268Z</time></trkpt><trkpt lat="40.5353596" lon="19.7073758"><ele>34.0</ele><time>2026-04-26T12:01:56.267Z</time></trkpt><trkpt lat="40.5352914" lon="19.7077122"><ele>34.0</ele><time>2026-04-26T12:01:57.27Z</time></trkpt><trkpt lat="40.5352214" lon="19.708057"><ele>33.5</ele><time>2026-04-26T12:01:58.269Z</time></trkpt><trkpt lat="40.5351487" lon="19.7084125"><ele>33.0</ele><time>2026-04-26T12:01:59.269Z</time></trkpt><trkpt lat="40.5350737" lon="19.7087701"><ele>33.0</ele><time>2026-04-26T12:02:00.271Z</time></trkpt><trkpt lat="40.534996" lon="19.7091238"><ele>33.0</ele><time>2026-04-26T12:02:01.27Z</time></trkpt><trkpt lat="40.5349167" lon="19.7094737"><ele>33.5</ele><time>2026-04-26T12:02:02.268Z</time></trkpt><trkpt lat="40.5348384" lon="19.7098138"><ele>34.0</ele><time>2026-04-26T12:02:03.268Z</time></trkpt><trkpt lat="40.5347579" lon="19.7101446"><ele>34.0</ele><time>2026-04-26T12:02:04.269Z</time></trkpt><trkpt lat="40.5346808" lon="19.7104606"><ele>34.0</ele><time>2026-04-26T12:02:05.267Z</time></trkpt><trkpt lat="40.5346062" lon="19.7107716"><ele>32.5</ele><time>2026-04-26T12:02:06.268Z</time></trkpt><trkpt lat="40.5345342" lon="19.7110762"><ele>31.0</ele><time>2026-04-26T12:02:07.267Z</time></trkpt><trkpt lat="40.5344661" lon="19.7113754"><ele>31.0</ele><time>2026-04-26T12:02:08.267Z</time></trkpt><trkpt lat="40.5344008" lon="19.711669"><ele>31.0</ele><time>2026-04-26T12:02:09.266Z</time></trkpt><trkpt lat="40.534337" lon="19.7119667"><ele>31.0</ele><time>2026-04-26T12:02:10.266Z</time></trkpt><trkpt lat="40.5342722" lon="19.712266"><ele>31.0</ele><time>2026-04-26T12:02:11.267Z</time></trkpt><trkpt lat="40.5342055" lon="19.7125659"><ele>31.5</ele><time>2026-04-26T12:02:12.267Z</time></trkpt><trkpt lat="40.534138" lon="19.712866"><ele>32.0</ele><time>2026-04-26T12:02:13.268Z</time></trkpt><trkpt lat="40.5340708" lon="19.7131631"><ele>32.0</ele><time>2026-04-26T12:02:14.268Z</time></trkpt><trkpt lat="40.5340048" lon="19.7134556"><ele>32.0</ele><time>2026-04-26T12:02:15.268Z</time></trkpt><trkpt lat="40.5339396" lon="19.7137515"><ele>32.5</ele><time>2026-04-26T12:02:16.267Z</time></trkpt><trkpt lat="40.5338743" lon="19.7140461"><ele>33.0</ele><time>2026-04-26T12:02:17.267Z</time></trkpt><trkpt lat="40.5338094" lon="19.7143406"><ele>33.5</ele><time>2026-04-26T12:02:18.266Z</time></trkpt><trkpt lat="40.5337441" lon="19.7146346"><ele>34.0</ele><time>2026-04-26T12:02:19.267Z</time></trkpt><trkpt lat="40.5336791" lon="19.714929"><ele>34.0</ele><time>2026-04-26T12:02:20.266Z</time></trkpt><trkpt lat="40.5336146" lon="19.7152233"><ele>34.0</ele><time>2026-04-26T12:02:21.268Z</time></trkpt><trkpt lat="40.5335508" lon="19.7155184"><ele>34.0</ele><time>2026-04-26T12:02:22.268Z</time></trkpt><trkpt lat="40.533494" lon="19.7158199"><ele>34.0</ele><time>2026-04-26T12:02:23.269Z</time></trkpt><trkpt lat="40.5334266" lon="19.7161174"><ele>34.5</ele><time>2026-04-26T12:02:24.269Z</time></trkpt><trkpt lat="40.5333553" lon="19.716414"><ele>35.0</ele><time>2026-04-26T12:02:25.269Z</time></trkpt><trkpt lat="40.5332851" lon="19.716711"><ele>37.0</ele><time>2026-04-26T12:02:26.27Z</time></trkpt><trkpt lat="40.5332154" lon="19.717009"><ele>39.0</ele><time>2026-04-26T12:02:27.268Z</time></trkpt><trkpt lat="40.5331431" lon="19.7173061"><ele>39.0</ele><time>2026-04-26T12:02:28.268Z</time></trkpt><trkpt lat="40.5330644" lon="19.7176011"><ele>39.0</ele><time>2026-04-26T12:02:29.269Z</time></trkpt><trkpt lat="40.5329796" lon="19.7178935"><ele>37.0</ele><time>2026-04-26T12:02:30.266Z</time></trkpt><trkpt lat="40.5328904" lon="19.7181879"><ele>35.0</ele><time>2026-04-26T12:02:31.268Z</time></trkpt><trkpt lat="40.5327905" lon="19.7184775"><ele>39.0</ele><time>2026-04-26T12:02:32.267Z</time></trkpt><trkpt lat="40.5326811" lon="19.7187697"><ele>43.0</ele><time>2026-04-26T12:02:33.269Z</time></trkpt><trkpt lat="40.5325662" lon="19.7190533"><ele>43.0</ele><time>2026-04-26T12:02:34.267Z</time></trkpt><trkpt lat="40.5324421" lon="19.7193402"><ele>43.0</ele><time>2026-04-26T12:02:35.268Z</time></trkpt><trkpt lat="40.5323185" lon="19.7196225"><ele>49.0</ele><time>2026-04-26T12:02:36.267Z</time></trkpt><trkpt lat="40.5321902" lon="19.7199006"><ele>55.0</ele><time>2026-04-26T12:02:37.267Z</time></trkpt><trkpt lat="40.5320581" lon="19.7201742"><ele>46.0</ele><time>2026-04-26T12:02:38.267Z</time></trkpt><trkpt lat="40.5319225" lon="19.7204443"><ele>37.0</ele><time>2026-04-26T12:02:39.266Z</time></trkpt><trkpt lat="40.5317882" lon="19.7207161"><ele>37.0</ele><time>2026-04-26T12:02:40.268Z</time></trkpt><trkpt lat="40.5316545" lon="19.7209904"><ele>37.0</ele><time>2026-04-26T12:02:41.266Z</time></trkpt><trkpt lat="40.5315201" lon="19.7212598"><ele>41.5</ele><time>2026-04-26T12:02:42.267Z</time></trkpt><trkpt lat="40.5313858" lon="19.7215306"><ele>46.0</ele><time>2026-04-26T12:02:43.268Z</time></trkpt><trkpt lat="40.5312509" lon="19.7218047"><ele>43.0</ele><time>2026-04-26T12:02:44.266Z</time></trkpt><trkpt lat="40.5311226" lon="19.7220803"><ele>40.0</ele><time>2026-04-26T12:02:45.268Z</time></trkpt><trkpt lat="40.5309966" lon="19.7223555"><ele>40.0</ele><time>2026-04-26T12:02:46.267Z</time></trkpt><trkpt lat="40.5308704" lon="19.7226271"><ele>40.0</ele><time>2026-04-26T12:02:47.268Z</time></trkpt><trkpt lat="40.5307452" lon="19.7228966"><ele>47.5</ele><time>2026-04-26T12:02:48.269Z</time></trkpt><trkpt lat="40.5306211" lon="19.7231657"><ele>55.0</ele><time>2026-04-26T12:02:49.268Z</time></trkpt><trkpt lat="40.5304972" lon="19.7234362"><ele>48.5</ele><time>2026-04-26T12:02:50.269Z</time></trkpt><trkpt lat="40.5303771" lon="19.7237087"><ele>42.0</ele><time>2026-04-26T12:02:51.266Z</time></trkpt><trkpt lat="40.5302693" lon="19.7239871"><ele>42.0</ele><time>2026-04-26T12:02:52.27Z</time></trkpt><trkpt lat="40.5301786" lon="19.7242739"><ele>42.0</ele><time>2026-04-26T12:02:53.268Z</time></trkpt><trkpt lat="40.5301073" lon="19.724564"><ele>45.0</ele><time>2026-04-26T12:02:54.268Z</time></trkpt><trkpt lat="40.5300605" lon="19.7248637"><ele>48.0</ele><time>2026-04-26T12:02:55.267Z</time></trkpt><trkpt lat="40.5300238" lon="19.725169"><ele>49.5</ele><time>2026-04-26T12:02:56.269Z</time></trkpt><trkpt lat="40.5299891" lon="19.7254785"><ele>51.0</ele><time>2026-04-26T12:02:57.268Z</time></trkpt><trkpt lat="40.5299494" lon="19.7257881"><ele>54.0</ele><time>2026-04-26T12:02:58.265Z</time></trkpt><trkpt lat="40.5299014" lon="19.7260944"><ele>57.0</ele><time>2026-04-26T12:02:59.268Z</time></trkpt><trkpt lat="40.5298436" lon="19.7263762"><ele>57.0</ele><time>2026-04-26T12:03:00.266Z</time></trkpt><trkpt lat="40.529769" lon="19.7266356"><ele>57.0</ele><time>2026-04-26T12:03:01.265Z</time></trkpt><trkpt lat="40.5296789" lon="19.7268786"><ele>57.0</ele><time>2026-04-26T12:03:02.266Z</time></trkpt><trkpt lat="40.5295679" lon="19.7270958"><ele>54.0</ele><time>2026-04-26T12:03:03.268Z</time></trkpt><trkpt lat="40.5294462" lon="19.7273046"><ele>51.0</ele><time>2026-04-26T12:03:04.268Z</time></trkpt><trkpt lat="40.5293163" lon="19.7274932"><ele>48.0</ele><time>2026-04-26T12:03:05.268Z</time></trkpt><trkpt lat="40.529185" lon="19.7276712"><ele>51.33333333333333</ele><time>2026-04-26T12:03:06.268Z</time></trkpt><trkpt lat="40.5290526" lon="19.7278448"><ele>54.666666666666664</ele><time>2026-04-26T12:03:07.27Z</time></trkpt><trkpt lat="40.5289199" lon="19.7280188"><ele>58.0</ele><time>2026-04-26T12:03:08.268Z</time></trkpt><trkpt lat="40.5287935" lon="19.7281985"><ele>53.33333333333333</ele><time>2026-04-26T12:03:09.269Z</time></trkpt><trkpt lat="40.5286784" lon="19.7283907"><ele>48.666666666666664</ele><time>2026-04-26T12:03:10.269Z</time></trkpt><trkpt lat="40.5285741" lon="19.7285922"><ele>44.0</ele><time>2026-04-26T12:03:11.268Z</time></trkpt><trkpt lat="40.5284789" lon="19.7288024"><ele>44.0</ele><time>2026-04-26T12:03:12.266Z</time></trkpt><trkpt lat="40.5283966" lon="19.7290153"><ele>44.0</ele><time>2026-04-26T12:03:13.266Z</time></trkpt><trkpt lat="40.528328" lon="19.7292237"><ele>44.0</ele><time>2026-04-26T12:03:14.267Z</time></trkpt><trkpt lat="40.528268" lon="19.7294339"><ele>46.666666666666664</ele><time>2026-04-26T12:03:15.267Z</time></trkpt><trkpt lat="40.5282162" lon="19.7296479"><ele>49.33333333333333</ele><time>2026-04-26T12:03:16.27Z</time></trkpt><trkpt lat="40.5281758" lon="19.7298664"><ele>52.0</ele><time>2026-04-26T12:03:17.267Z</time></trkpt><trkpt lat="40.5281442" lon="19.7300907"><ele>55.33333333333333</ele><time>2026-04-26T12:03:18.266Z</time></trkpt><trkpt lat="40.5281137" lon="19.7303208"><ele>58.66666666666667</ele><time>2026-04-26T12:03:19.268Z</time></trkpt><trkpt lat="40.5280812" lon="19.7305581"><ele>62.0</ele><time>2026-04-26T12:03:20.269Z</time></trkpt><trkpt lat="40.5280446" lon="19.7308"><ele>62.0</ele><time>2026-04-26T12:03:21.268Z</time></trkpt><trkpt lat="40.5280001" lon="19.7310469"><ele>62.0</ele><time>2026-04-26T12:03:22.268Z</time></trkpt><trkpt lat="40.5279452" lon="19.7312866"><ele>62.0</ele><time>2026-04-26T12:03:23.267Z</time></trkpt><trkpt lat="40.5278745" lon="19.7315209"><ele>59.0</ele><time>2026-04-26T12:03:24.267Z</time></trkpt><trkpt lat="40.5277943" lon="19.7317481"><ele>56.0</ele><time>2026-04-26T12:03:25.268Z</time></trkpt><trkpt lat="40.5276947" lon="19.7319575"><ele>53.0</ele><time>2026-04-26T12:03:26.268Z</time></trkpt><trkpt lat="40.527584" lon="19.732164"><ele>53.0</ele><time>2026-04-26T12:03:27.268Z</time></trkpt><trkpt lat="40.5274643" lon="19.7323696"><ele>53.0</ele><time>2026-04-26T12:03:28.268Z</time></trkpt><trkpt lat="40.5273282" lon="19.7325676"><ele>53.0</ele><time>2026-04-26T12:03:29.266Z</time></trkpt><trkpt lat="40.5271777" lon="19.7327526"><ele>51.333333333333336</ele><time>2026-04-26T12:03:30.269Z</time></trkpt><trkpt lat="40.5270168" lon="19.7329298"><ele>49.66666666666667</ele><time>2026-04-26T12:03:31.268Z</time></trkpt><trkpt lat="40.5268452" lon="19.7330966"><ele>48.0</ele><time>2026-04-26T12:03:32.267Z</time></trkpt><trkpt lat="40.5266737" lon="19.7332597"><ele>48.0</ele><time>2026-04-26T12:03:33.268Z</time></trkpt><trkpt lat="40.526504" lon="19.733432"><ele>48.0</ele><time>2026-04-26T12:03:34.269Z</time></trkpt><trkpt lat="40.5263459" lon="19.7336192"><ele>48.0</ele><time>2026-04-26T12:03:35.268Z</time></trkpt><trkpt lat="40.5261957" lon="19.7338347"><ele>44.5</ele><time>2026-04-26T12:03:36.269Z</time></trkpt><trkpt lat="40.5260517" lon="19.7340879"><ele>41.0</ele><time>2026-04-26T12:03:37.267Z</time></trkpt><trkpt lat="40.5259099" lon="19.7343698"><ele>42.5</ele><time>2026-04-26T12:03:38.271Z</time></trkpt><trkpt lat="40.5257807" lon="19.7346625"><ele>44.0</ele><time>2026-04-26T12:03:39.267Z</time></trkpt><trkpt lat="40.5256587" lon="19.7349718"><ele>49.5</ele><time>2026-04-26T12:03:40.267Z</time></trkpt><trkpt lat="40.5255302" lon="19.7352843"><ele>55.0</ele><time>2026-04-26T12:03:41.268Z</time></trkpt><trkpt lat="40.5253981" lon="19.7355891"><ele>51.0</ele><time>2026-04-26T12:03:42.267Z</time></trkpt><trkpt lat="40.5252684" lon="19.7359018"><ele>47.0</ele><time>2026-04-26T12:03:43.267Z</time></trkpt><trkpt lat="40.525138" lon="19.736211"><ele>47.0</ele><time>2026-04-26T12:03:44.27Z</time></trkpt><trkpt lat="40.5250092" lon="19.7365209"><ele>47.0</ele><time>2026-04-26T12:03:45.269Z</time></trkpt><trkpt lat="40.524871" lon="19.7368217"><ele>44.5</ele><time>2026-04-26T12:03:46.269Z</time></trkpt><trkpt lat="40.5247173" lon="19.7371095"><ele>42.0</ele><time>2026-04-26T12:03:47.27Z</time></trkpt><trkpt lat="40.5245382" lon="19.7373717"><ele>42.0</ele><time>2026-04-26T12:03:48.267Z</time></trkpt><trkpt lat="40.5243334" lon="19.7376114"><ele>42.0</ele><time>2026-04-26T12:03:49.269Z</time></trkpt><trkpt lat="40.5241098" lon="19.7378417"><ele>41.5</ele><time>2026-04-26T12:03:50.269Z</time></trkpt><trkpt lat="40.5238687" lon="19.7380673"><ele>41.0</ele><time>2026-04-26T12:03:51.266Z</time></trkpt><trkpt lat="40.5236231" lon="19.7382971"><ele>41.0</ele><time>2026-04-26T12:03:52.27Z</time></trkpt><trkpt lat="40.5233829" lon="19.7385303"><ele>41.0</ele><time>2026-04-26T12:03:53.266Z</time></trkpt><trkpt lat="40.5231407" lon="19.7387674"><ele>39.5</ele><time>2026-04-26T12:03:54.268Z</time></trkpt><trkpt lat="40.5228949" lon="19.7390063"><ele>38.0</ele><time>2026-04-26T12:03:55.269Z</time></trkpt><trkpt lat="40.5226443" lon="19.7392393"><ele>40.5</ele><time>2026-04-26T12:03:56.267Z</time></trkpt><trkpt lat="40.5223922" lon="19.7394642"><ele>43.0</ele><time>2026-04-26T12:03:57.267Z</time></trkpt><trkpt lat="40.5221446" lon="19.7396934"><ele>41.5</ele><time>2026-04-26T12:03:58.268Z</time></trkpt><trkpt lat="40.5219001" lon="19.7399187"><ele>40.0</ele><time>2026-04-26T12:03:59.265Z</time></trkpt><trkpt lat="40.5216568" lon="19.7401451"><ele>41.0</ele><time>2026-04-26T12:04:00.267Z</time></trkpt><trkpt lat="40.5214166" lon="19.7403666"><ele>42.0</ele><time>2026-04-26T12:04:01.269Z</time></trkpt><trkpt lat="40.5211789" lon="19.7405849"><ele>42.0</ele><time>2026-04-26T12:04:02.269Z</time></trkpt><trkpt lat="40.5209428" lon="19.7408034"><ele>42.0</ele><time>2026-04-26T12:04:03.267Z</time></trkpt><trkpt lat="40.5207096" lon="19.7410247"><ele>43.5</ele><time>2026-04-26T12:04:04.268Z</time></trkpt><trkpt lat="40.5204829" lon="19.7412262"><ele>45.0</ele><time>2026-04-26T12:04:05.27Z</time></trkpt><trkpt lat="40.5202554" lon="19.7413989"><ele>45.0</ele><time>2026-04-26T12:04:06.27Z</time></trkpt><trkpt lat="40.5200325" lon="19.7415434"><ele>45.0</ele><time>2026-04-26T12:04:07.267Z</time></trkpt><trkpt lat="40.5198084" lon="19.7416619"><ele>45.0</ele><time>2026-04-26T12:04:08.268Z</time></trkpt><trkpt lat="40.5196018" lon="19.7417521"><ele>45.0</ele><time>2026-04-26T12:04:09.269Z</time></trkpt><trkpt lat="40.5193974" lon="19.7418222"><ele>45.0</ele><time>2026-04-26T12:04:10.269Z</time></trkpt><trkpt lat="40.5191926" lon="19.7418741"><ele>46.66666666666667</ele><time>2026-04-26T12:04:11.27Z</time></trkpt><trkpt lat="40.5189945" lon="19.7419007"><ele>48.333333333333336</ele><time>2026-04-26T12:04:12.267Z</time></trkpt><trkpt lat="40.518801" lon="19.7419069"><ele>50.0</ele><time>2026-04-26T12:04:13.266Z</time></trkpt><trkpt lat="40.5186149" lon="19.7419042"><ele>50.0</ele><time>2026-04-26T12:04:14.267Z</time></trkpt><trkpt lat="40.518432" lon="19.7418919"><ele>50.0</ele><time>2026-04-26T12:04:15.267Z</time></trkpt><trkpt lat="40.5182543" lon="19.7418758"><ele>50.0</ele><time>2026-04-26T12:04:16.269Z</time></trkpt><trkpt lat="40.5180821" lon="19.7418523"><ele>47.66666666666667</ele><time>2026-04-26T12:04:17.27Z</time></trkpt><trkpt lat="40.5179207" lon="19.7418364"><ele>45.333333333333336</ele><time>2026-04-26T12:04:18.269Z</time></trkpt><trkpt lat="40.5177674" lon="19.7418276"><ele>43.0</ele><time>2026-04-26T12:04:19.268Z</time></trkpt><trkpt lat="40.5176194" lon="19.7418264"><ele>42.333333333333336</ele><time>2026-04-26T12:04:20.267Z</time></trkpt><trkpt lat="40.5174741" lon="19.7418371"><ele>41.666666666666664</ele><time>2026-04-26T12:04:21.269Z</time></trkpt><trkpt lat="40.5173244" lon="19.7418481"><ele>41.0</ele><time>2026-04-26T12:04:22.267Z</time></trkpt><trkpt lat="40.5171699" lon="19.7418694"><ele>44.666666666666664</ele><time>2026-04-26T12:04:23.267Z</time></trkpt><trkpt lat="40.5170076" lon="19.7419006"><ele>48.33333333333333</ele><time>2026-04-26T12:04:24.268Z</time></trkpt><trkpt lat="40.5168429" lon="19.7419422"><ele>52.0</ele><time>2026-04-26T12:04:25.268Z</time></trkpt><trkpt lat="40.5166817" lon="19.7419969"><ele>52.0</ele><time>2026-04-26T12:04:26.267Z</time></trkpt><trkpt lat="40.516516" lon="19.7420669"><ele>52.0</ele><time>2026-04-26T12:04:27.266Z</time></trkpt><trkpt lat="40.5163499" lon="19.7421551"><ele>52.0</ele><time>2026-04-26T12:04:28.267Z</time></trkpt><trkpt lat="40.5161871" lon="19.7422566"><ele>49.33333333333333</ele><time>2026-04-26T12:04:29.266Z</time></trkpt><trkpt lat="40.5160248" lon="19.742367"><ele>46.666666666666664</ele><time>2026-04-26T12:04:30.268Z</time></trkpt><trkpt lat="40.5158667" lon="19.7425042"><ele>44.0</ele><time>2026-04-26T12:04:31.269Z</time></trkpt><trkpt lat="40.5157131" lon="19.742652"><ele>44.33333333333333</ele><time>2026-04-26T12:04:32.267Z</time></trkpt><trkpt lat="40.5155673" lon="19.7428079"><ele>44.666666666666664</ele><time>2026-04-26T12:04:33.271Z</time></trkpt><trkpt lat="40.5154293" lon="19.7429807"><ele>45.0</ele><time>2026-04-26T12:04:34.267Z</time></trkpt><trkpt lat="40.5153002" lon="19.7431571"><ele>45.0</ele><time>2026-04-26T12:04:35.27Z</time></trkpt><trkpt lat="40.5151805" lon="19.7433433"><ele>45.0</ele><time>2026-04-26T12:04:36.267Z</time></trkpt><trkpt lat="40.5150664" lon="19.7435537"><ele>45.0</ele><time>2026-04-26T12:04:37.267Z</time></trkpt><trkpt lat="40.5149533" lon="19.74379"><ele>48.0</ele><time>2026-04-26T12:04:38.268Z</time></trkpt><trkpt lat="40.5148411" lon="19.7440672"><ele>51.0</ele><time>2026-04-26T12:04:39.266Z</time></trkpt><trkpt lat="40.5147319" lon="19.7443601"><ele>48.5</ele><time>2026-04-26T12:04:40.267Z</time></trkpt><trkpt lat="40.5146091" lon="19.7446728"><ele>46.0</ele><time>2026-04-26T12:04:41.27Z</time></trkpt><trkpt lat="40.5144823" lon="19.7450028"><ele>46.5</ele><time>2026-04-26T12:04:42.267Z</time></trkpt><trkpt lat="40.5143606" lon="19.7453388"><ele>47.0</ele><time>2026-04-26T12:04:43.266Z</time></trkpt><trkpt lat="40.5142399" lon="19.7456807"><ele>47.0</ele><time>2026-04-26T12:04:44.268Z</time></trkpt><trkpt lat="40.5141188" lon="19.7460301"><ele>47.0</ele><time>2026-04-26T12:04:45.266Z</time></trkpt><trkpt lat="40.5140012" lon="19.7463815"><ele>47.0</ele><time>2026-04-26T12:04:46.268Z</time></trkpt><trkpt lat="40.5138857" lon="19.7467336"><ele>47.0</ele><time>2026-04-26T12:04:47.267Z</time></trkpt><trkpt lat="40.5137686" lon="19.7470803"><ele>49.5</ele><time>2026-04-26T12:04:48.268Z</time></trkpt><trkpt lat="40.5136504" lon="19.7474201"><ele>52.0</ele><time>2026-04-26T12:04:49.267Z</time></trkpt><trkpt lat="40.5135364" lon="19.7477592"><ele>52.0</ele><time>2026-04-26T12:04:50.267Z</time></trkpt><trkpt lat="40.5134237" lon="19.748094"><ele>52.0</ele><time>2026-04-26T12:04:51.267Z</time></trkpt><trkpt lat="40.5133085" lon="19.7484238"><ele>51.0</ele><time>2026-04-26T12:04:52.269Z</time></trkpt><trkpt lat="40.5131887" lon="19.7487586"><ele>50.0</ele><time>2026-04-26T12:04:53.267Z</time></trkpt><trkpt lat="40.513074" lon="19.7490955"><ele>53.5</ele><time>2026-04-26T12:04:54.267Z</time></trkpt><trkpt lat="40.5129604" lon="19.7494223"><ele>57.0</ele><time>2026-04-26T12:04:55.267Z</time></trkpt><trkpt lat="40.5128514" lon="19.7497378"><ele>56.5</ele><time>2026-04-26T12:04:56.267Z</time></trkpt><trkpt lat="40.5127415" lon="19.7500341"><ele>56.0</ele><time>2026-04-26T12:04:57.268Z</time></trkpt><trkpt lat="40.5126263" lon="19.7503159"><ele>56.0</ele><time>2026-04-26T12:04:58.269Z</time></trkpt><trkpt lat="40.5124943" lon="19.7505881"><ele>56.0</ele><time>2026-04-26T12:04:59.268Z</time></trkpt><trkpt lat="40.5123416" lon="19.7508455"><ele>57.5</ele><time>2026-04-26T12:05:00.265Z</time></trkpt><trkpt lat="40.5121748" lon="19.7510813"><ele>59.0</ele><time>2026-04-26T12:05:01.267Z</time></trkpt><trkpt lat="40.5119858" lon="19.751294"><ele>62.0</ele><time>2026-04-26T12:05:02.27Z</time></trkpt><trkpt lat="40.5117825" lon="19.7514844"><ele>65.0</ele><time>2026-04-26T12:05:03.267Z</time></trkpt><trkpt lat="40.5115714" lon="19.7516559"><ele>65.0</ele><time>2026-04-26T12:05:04.267Z</time></trkpt><trkpt lat="40.5113549" lon="19.7518138"><ele>65.0</ele><time>2026-04-26T12:05:05.268Z</time></trkpt><trkpt lat="40.5111337" lon="19.7519676"><ele>63.0</ele><time>2026-04-26T12:05:06.267Z</time></trkpt><trkpt lat="40.5109155" lon="19.7521243"><ele>61.0</ele><time>2026-04-26T12:05:07.268Z</time></trkpt><trkpt lat="40.5107041" lon="19.752271"><ele>61.0</ele><time>2026-04-26T12:05:08.268Z</time></trkpt><trkpt lat="40.5104967" lon="19.7524104"><ele>61.0</ele><time>2026-04-26T12:05:09.267Z</time></trkpt><trkpt lat="40.5102986" lon="19.7525551"><ele>76.5</ele><time>2026-04-26T12:05:10.267Z</time></trkpt><trkpt lat="40.5101105" lon="19.7527194"><ele>92.0</ele><time>2026-04-26T12:05:11.268Z</time></trkpt><trkpt lat="40.5099357" lon="19.7529048"><ele>92.0</ele><time>2026-04-26T12:05:12.268Z</time></trkpt><trkpt lat="40.5097778" lon="19.7531211"><ele>92.0</ele><time>2026-04-26T12:05:13.268Z</time></trkpt><trkpt lat="40.5096288" lon="19.753356"><ele>82.5</ele><time>2026-04-26T12:05:14.266Z</time></trkpt><trkpt lat="40.5094943" lon="19.7536254"><ele>73.0</ele><time>2026-04-26T12:05:15.267Z</time></trkpt><trkpt lat="40.5093874" lon="19.7539315"><ele>73.0</ele><time>2026-04-26T12:05:16.271Z</time></trkpt><trkpt lat="40.5092922" lon="19.7542568"><ele>73.0</ele><time>2026-04-26T12:05:17.266Z</time></trkpt><trkpt lat="40.5092006" lon="19.7545961"><ele>81.0</ele><time>2026-04-26T12:05:18.272Z</time></trkpt><trkpt lat="40.5090991" lon="19.7549451"><ele>89.0</ele><time>2026-04-26T12:05:19.266Z</time></trkpt><trkpt lat="40.5089876" lon="19.7552929"><ele>83.5</ele><time>2026-04-26T12:05:20.273Z</time></trkpt><trkpt lat="40.5088459" lon="19.7556414"><ele>78.0</ele><time>2026-04-26T12:05:21.269Z</time></trkpt><trkpt lat="40.5086835" lon="19.7559826"><ele>87.0</ele><time>2026-04-26T12:05:22.268Z</time></trkpt><trkpt lat="40.5085047" lon="19.7563171"><ele>96.0</ele><time>2026-04-26T12:05:23.27Z</time></trkpt><trkpt lat="40.5083204" lon="19.7566381"><ele>108.5</ele><time>2026-04-26T12:05:24.268Z</time></trkpt><trkpt lat="40.5081421" lon="19.7569567"><ele>121.0</ele><time>2026-04-26T12:05:25.268Z</time></trkpt><trkpt lat="40.5079662" lon="19.7572691"><ele>113.5</ele><time>2026-04-26T12:05:26.267Z</time></trkpt><trkpt lat="40.5077895" lon="19.7575765"><ele>106.0</ele><time>2026-04-26T12:05:27.268Z</time></trkpt><trkpt lat="40.5076208" lon="19.7578662"><ele>106.0</ele><time>2026-04-26T12:05:28.273Z</time></trkpt><trkpt lat="40.5074532" lon="19.758143"><ele>106.0</ele><time>2026-04-26T12:05:29.269Z</time></trkpt><trkpt lat="40.5072967" lon="19.7584262"><ele>97.0</ele><time>2026-04-26T12:05:30.268Z</time></trkpt><trkpt lat="40.5071615" lon="19.7587107"><ele>88.0</ele><time>2026-04-26T12:05:31.271Z</time></trkpt><trkpt lat="40.5070524" lon="19.7590019"><ele>88.0</ele><time>2026-04-26T12:05:32.265Z</time></trkpt><trkpt lat="40.5069681" lon="19.75931"><ele>88.0</ele><time>2026-04-26T12:05:33.268Z</time></trkpt><trkpt lat="40.5069063" lon="19.7596308"><ele>91.5</ele><time>2026-04-26T12:05:34.271Z</time></trkpt><trkpt lat="40.5068651" lon="19.7599629"><ele>95.0</ele><time>2026-04-26T12:05:35.267Z</time></trkpt><trkpt lat="40.5068438" lon="19.7603078"><ele>99.0</ele><time>2026-04-26T12:05:36.269Z</time></trkpt><trkpt lat="40.5068317" lon="19.7606624"><ele>103.0</ele><time>2026-04-26T12:05:37.269Z</time></trkpt><trkpt lat="40.5068208" lon="19.7610224"><ele>104.0</ele><time>2026-04-26T12:05:38.27Z</time></trkpt><trkpt lat="40.5068112" lon="19.7613797"><ele>105.0</ele><time>2026-04-26T12:05:39.267Z</time></trkpt><trkpt lat="40.5068077" lon="19.7617332"><ele>109.5</ele><time>2026-04-26T12:05:40.267Z</time></trkpt><trkpt lat="40.5067992" lon="19.7620838"><ele>114.0</ele><time>2026-04-26T12:05:41.27Z</time></trkpt><trkpt lat="40.5067932" lon="19.7624258"><ele>113.5</ele><time>2026-04-26T12:05:42.272Z</time></trkpt><trkpt lat="40.5067872" lon="19.7627564"><ele>113.0</ele><time>2026-04-26T12:05:43.271Z</time></trkpt><trkpt lat="40.5067966" lon="19.7630799"><ele>113.0</ele><time>2026-04-26T12:05:44.269Z</time></trkpt><trkpt lat="40.5068291" lon="19.7633954"><ele>113.0</ele><time>2026-04-26T12:05:45.269Z</time></trkpt><trkpt lat="40.506886" lon="19.7637067"><ele>112.5</ele><time>2026-04-26T12:05:46.269Z</time></trkpt><trkpt lat="40.5069695" lon="19.7640148"><ele>112.0</ele><time>2026-04-26T12:05:47.267Z</time></trkpt><trkpt lat="40.5070811" lon="19.7643067"><ele>124.5</ele><time>2026-04-26T12:05:48.271Z</time></trkpt><trkpt lat="40.5072083" lon="19.7645808"><ele>137.0</ele><time>2026-04-26T12:05:49.273Z</time></trkpt><trkpt lat="40.5073722" lon="19.7648372"><ele>137.0</ele><time>2026-04-26T12:05:50.27Z</time></trkpt><trkpt lat="40.5075566" lon="19.7650765"><ele>137.0</ele><time>2026-04-26T12:05:51.267Z</time></trkpt><trkpt lat="40.5077622" lon="19.7652892"><ele>143.0</ele><time>2026-04-26T12:05:52.268Z</time></trkpt><trkpt lat="40.507971" lon="19.7654909"><ele>149.0</ele><time>2026-04-26T12:05:53.267Z</time></trkpt><trkpt lat="40.5081805" lon="19.7656981"><ele>149.0</ele><time>2026-04-26T12:05:54.267Z</time></trkpt><trkpt lat="40.5083878" lon="19.7659128"><ele>149.0</ele><time>2026-04-26T12:05:55.272Z</time></trkpt><trkpt lat="40.5085785" lon="19.7661457"><ele>156.0</ele><time>2026-04-26T12:05:56.268Z</time></trkpt><trkpt lat="40.5087521" lon="19.7663949"><ele>163.0</ele><time>2026-04-26T12:05:57.269Z</time></trkpt><trkpt lat="40.5088993" lon="19.7666764"><ele>154.5</ele><time>2026-04-26T12:05:58.269Z</time></trkpt><trkpt lat="40.509021" lon="19.7669679"><ele>146.0</ele><time>2026-04-26T12:05:59.268Z</time></trkpt><trkpt lat="40.5091124" lon="19.7672708"><ele>146.0</ele><time>2026-04-26T12:06:00.268Z</time></trkpt><trkpt lat="40.509174" lon="19.7675896"><ele>146.0</ele><time>2026-04-26T12:06:01.267Z</time></trkpt><trkpt lat="40.5092118" lon="19.7679241"><ele>150.0</ele><time>2026-04-26T12:06:02.267Z</time></trkpt><trkpt lat="40.5092276" lon="19.7682599"><ele>154.0</ele><time>2026-04-26T12:06:03.267Z</time></trkpt><trkpt lat="40.5092197" lon="19.7685868"><ele>158.5</ele><time>2026-04-26T12:06:04.271Z</time></trkpt><trkpt lat="40.5092047" lon="19.7688912"><ele>163.0</ele><time>2026-04-26T12:06:05.266Z</time></trkpt><trkpt lat="40.509194" lon="19.7691884"><ele>157.5</ele><time>2026-04-26T12:06:06.268Z</time></trkpt><trkpt lat="40.5091934" lon="19.7694845"><ele>152.0</ele><time>2026-04-26T12:06:07.27Z</time></trkpt><trkpt lat="40.5092214" lon="19.7697827"><ele>152.0</ele><time>2026-04-26T12:06:08.271Z</time></trkpt><trkpt lat="40.5092727" lon="19.7700779"><ele>152.0</ele><time>2026-04-26T12:06:09.272Z</time></trkpt><trkpt lat="40.5093507" lon="19.7703691"><ele>143.5</ele><time>2026-04-26T12:06:10.267Z</time></trkpt><trkpt lat="40.5094495" lon="19.7706636"><ele>135.0</ele><time>2026-04-26T12:06:11.267Z</time></trkpt><trkpt lat="40.5095615" lon="19.7709606"><ele>151.0</ele><time>2026-04-26T12:06:12.269Z</time></trkpt><trkpt lat="40.5096889" lon="19.7712599"><ele>167.0</ele><time>2026-04-26T12:06:13.272Z</time></trkpt><trkpt lat="40.509811" lon="19.7715751"><ele>159.5</ele><time>2026-04-26T12:06:14.267Z</time></trkpt><trkpt lat="40.5099378" lon="19.7718664"><ele>152.0</ele><time>2026-04-26T12:06:15.27Z</time></trkpt><trkpt lat="40.5100647" lon="19.7721593"><ele>152.0</ele><time>2026-04-26T12:06:16.268Z</time></trkpt><trkpt lat="40.5101894" lon="19.7724563"><ele>152.0</ele><time>2026-04-26T12:06:17.266Z</time></trkpt><trkpt lat="40.5103127" lon="19.7727561"><ele>164.5</ele><time>2026-04-26T12:06:18.267Z</time></trkpt><trkpt lat="40.5104364" lon="19.7730628"><ele>177.0</ele><time>2026-04-26T12:06:19.269Z</time></trkpt><trkpt lat="40.5105567" lon="19.7733728"><ele>164.5</ele><time>2026-04-26T12:06:20.267Z</time></trkpt><trkpt lat="40.5106735" lon="19.773682"><ele>152.0</ele><time>2026-04-26T12:06:21.272Z</time></trkpt><trkpt lat="40.5107895" lon="19.7739946"><ele>152.0</ele><time>2026-04-26T12:06:22.269Z</time></trkpt><trkpt lat="40.5109083" lon="19.7743048"><ele>152.0</ele><time>2026-04-26T12:06:23.269Z</time></trkpt><trkpt lat="40.5110247" lon="19.774613"><ele>149.0</ele><time>2026-04-26T12:06:24.267Z</time></trkpt><trkpt lat="40.5111375" lon="19.7749206"><ele>146.0</ele><time>2026-04-26T12:06:25.269Z</time></trkpt><trkpt lat="40.5112474" lon="19.7752358"><ele>168.0</ele><time>2026-04-26T12:06:26.269Z</time></trkpt><trkpt lat="40.5113511" lon="19.7755548"><ele>190.0</ele><time>2026-04-26T12:06:27.267Z</time></trkpt><trkpt lat="40.5114476" lon="19.775879"><ele>182.0</ele><time>2026-04-26T12:06:28.267Z</time></trkpt><trkpt lat="40.511537" lon="19.7762018"><ele>174.0</ele><time>2026-04-26T12:06:29.266Z</time></trkpt><trkpt lat="40.5116234" lon="19.7765218"><ele>174.0</ele><time>2026-04-26T12:06:30.268Z</time></trkpt><trkpt lat="40.5117119" lon="19.7768375"><ele>174.0</ele><time>2026-04-26T12:06:31.267Z</time></trkpt><trkpt lat="40.511801" lon="19.7771503"><ele>165.0</ele><time>2026-04-26T12:06:32.268Z</time></trkpt><trkpt lat="40.5118903" lon="19.7774596"><ele>156.0</ele><time>2026-04-26T12:06:33.267Z</time></trkpt><trkpt lat="40.5119769" lon="19.7777633"><ele>153.0</ele><time>2026-04-26T12:06:34.268Z</time></trkpt><trkpt lat="40.5120618" lon="19.7780672"><ele>150.0</ele><time>2026-04-26T12:06:35.269Z</time></trkpt><trkpt lat="40.5121466" lon="19.778371"><ele>169.0</ele><time>2026-04-26T12:06:36.268Z</time></trkpt><trkpt lat="40.5122237" lon="19.7786785"><ele>188.0</ele><time>2026-04-26T12:06:37.269Z</time></trkpt><trkpt lat="40.5123005" lon="19.7789953"><ele>188.0</ele><time>2026-04-26T12:06:38.268Z</time></trkpt><trkpt lat="40.5123732" lon="19.7793166"><ele>188.0</ele><time>2026-04-26T12:06:39.268Z</time></trkpt><trkpt lat="40.5124315" lon="19.7796543"><ele>186.5</ele><time>2026-04-26T12:06:40.269Z</time></trkpt><trkpt lat="40.5124601" lon="19.780008"><ele>185.0</ele><time>2026-04-26T12:06:41.266Z</time></trkpt><trkpt lat="40.5124785" lon="19.7803547"><ele>185.0</ele><time>2026-04-26T12:06:42.269Z</time></trkpt><trkpt lat="40.5124812" lon="19.7807028"><ele>185.0</ele><time>2026-04-26T12:06:43.271Z</time></trkpt><trkpt lat="40.5124725" lon="19.7810419"><ele>185.0</ele><time>2026-04-26T12:06:44.27Z</time></trkpt><trkpt lat="40.5124593" lon="19.7813691"><ele>185.0</ele><time>2026-04-26T12:06:45.266Z</time></trkpt><trkpt lat="40.5124472" lon="19.7816825"><ele>185.0</ele><time>2026-04-26T12:06:46.269Z</time></trkpt><trkpt lat="40.5124496" lon="19.7819922"><ele>185.0</ele><time>2026-04-26T12:06:47.267Z</time></trkpt><trkpt lat="40.5124816" lon="19.7823023"><ele>185.0</ele><time>2026-04-26T12:06:48.268Z</time></trkpt><trkpt lat="40.5125424" lon="19.7826121"><ele>185.0</ele><time>2026-04-26T12:06:49.268Z</time></trkpt><trkpt lat="40.5126262" lon="19.7829143"><ele>178.5</ele><time>2026-04-26T12:06:50.268Z</time></trkpt><trkpt lat="40.5127287" lon="19.7832175"><ele>172.0</ele><time>2026-04-26T12:06:51.27Z</time></trkpt><trkpt lat="40.5128288" lon="19.7835142"><ele>174.0</ele><time>2026-04-26T12:06:52.271Z</time></trkpt><trkpt lat="40.5129122" lon="19.7838098"><ele>176.0</ele><time>2026-04-26T12:06:53.273Z</time></trkpt><trkpt lat="40.5129587" lon="19.7841189"><ele>178.5</ele><time>2026-04-26T12:06:54.267Z</time></trkpt><trkpt lat="40.5129743" lon="19.7844491"><ele>181.0</ele><time>2026-04-26T12:06:55.269Z</time></trkpt><trkpt lat="40.5129634" lon="19.7847946"><ele>181.0</ele><time>2026-04-26T12:06:56.269Z</time></trkpt><trkpt lat="40.5129393" lon="19.7851376"><ele>181.0</ele><time>2026-04-26T12:06:57.269Z</time></trkpt><trkpt lat="40.5129118" lon="19.7854733"><ele>172.5</ele><time>2026-04-26T12:06:58.269Z</time></trkpt><trkpt lat="40.5128979" lon="19.7858021"><ele>164.0</ele><time>2026-04-26T12:06:59.269Z</time></trkpt><trkpt lat="40.5129077" lon="19.7861272"><ele>184.0</ele><time>2026-04-26T12:07:00.268Z</time></trkpt><trkpt lat="40.5129428" lon="19.78645"><ele>204.0</ele><time>2026-04-26T12:07:01.27Z</time></trkpt><trkpt lat="40.5130033" lon="19.786767"><ele>198.5</ele><time>2026-04-26T12:07:02.267Z</time></trkpt><trkpt lat="40.5130903" lon="19.7870709"><ele>193.0</ele><time>2026-04-26T12:07:03.267Z</time></trkpt><trkpt lat="40.513196" lon="19.7873601"><ele>193.0</ele><time>2026-04-26T12:07:04.268Z</time></trkpt><trkpt lat="40.5133197" lon="19.7876329"><ele>193.0</ele><time>2026-04-26T12:07:05.269Z</time></trkpt><trkpt lat="40.5134464" lon="19.7879065"><ele>186.5</ele><time>2026-04-26T12:07:06.268Z</time></trkpt><trkpt lat="40.5135715" lon="19.7881862"><ele>180.0</ele><time>2026-04-26T12:07:07.265Z</time></trkpt><trkpt lat="40.5136881" lon="19.7884804"><ele>195.5</ele><time>2026-04-26T12:07:08.265Z</time></trkpt><trkpt lat="40.5137796" lon="19.788792"><ele>211.0</ele><time>2026-04-26T12:07:09.267Z</time></trkpt><trkpt lat="40.5138444" lon="19.7891098"><ele>214.0</ele><time>2026-04-26T12:07:10.269Z</time></trkpt><trkpt lat="40.5138825" lon="19.7894553"><ele>217.0</ele><time>2026-04-26T12:07:11.268Z</time></trkpt><trkpt lat="40.5139113" lon="19.7898077"><ele>222.5</ele><time>2026-04-26T12:07:12.269Z</time></trkpt><trkpt lat="40.5139267" lon="19.7901917"><ele>228.0</ele><time>2026-04-26T12:07:13.266Z</time></trkpt><trkpt lat="40.5139298" lon="19.7905873"><ele>228.0</ele><time>2026-04-26T12:07:14.27Z</time></trkpt><trkpt lat="40.5139358" lon="19.7909921"><ele>228.0</ele><time>2026-04-26T12:07:15.275Z</time></trkpt><trkpt lat="40.513942" lon="19.7913899"><ele>228.5</ele><time>2026-04-26T12:07:16.273Z</time></trkpt><trkpt lat="40.5139464" lon="19.7918115"><ele>229.0</ele><time>2026-04-26T12:07:17.278Z</time></trkpt><trkpt lat="40.5139519" lon="19.7922403"><ele>229.0</ele><time>2026-04-26T12:07:18.268Z</time></trkpt><trkpt lat="40.5139558" lon="19.7926723"><ele>229.0</ele><time>2026-04-26T12:07:19.267Z</time></trkpt><trkpt lat="40.5139592" lon="19.7931009"><ele>233.5</ele><time>2026-04-26T12:07:20.269Z</time></trkpt><trkpt lat="40.513968" lon="19.793524"><ele>238.0</ele><time>2026-04-26T12:07:21.268Z</time></trkpt><trkpt lat="40.5139739" lon="19.7939334"><ele>238.0</ele><time>2026-04-26T12:07:22.268Z</time></trkpt><trkpt lat="40.5139833" lon="19.7943308"><ele>238.0</ele><time>2026-04-26T12:07:23.269Z</time></trkpt><trkpt lat="40.5139916" lon="19.7947235"><ele>244.0</ele><time>2026-04-26T12:07:24.267Z</time></trkpt><trkpt lat="40.5139907" lon="19.795109"><ele>250.0</ele><time>2026-04-26T12:07:25.269Z</time></trkpt><trkpt lat="40.5139784" lon="19.795485"><ele>251.0</ele><time>2026-04-26T12:07:26.268Z</time></trkpt><trkpt lat="40.5139589" lon="19.7958513"><ele>252.0</ele><time>2026-04-26T12:07:27.27Z</time></trkpt><trkpt lat="40.5139208" lon="19.7962143"><ele>255.0</ele><time>2026-04-26T12:07:28.269Z</time></trkpt><trkpt lat="40.5138633" lon="19.7965699"><ele>258.0</ele><time>2026-04-26T12:07:29.267Z</time></trkpt><trkpt lat="40.5138" lon="19.7968938"><ele>264.0</ele><time>2026-04-26T12:07:30.269Z</time></trkpt><trkpt lat="40.5137426" lon="19.7972157"><ele>270.0</ele><time>2026-04-26T12:07:31.269Z</time></trkpt><trkpt lat="40.5137006" lon="19.7975425"><ele>247.0</ele><time>2026-04-26T12:07:32.269Z</time></trkpt><trkpt lat="40.513685" lon="19.7978832"><ele>224.0</ele><time>2026-04-26T12:07:33.268Z</time></trkpt><trkpt lat="40.5136992" lon="19.7982218"><ele>223.5</ele><time>2026-04-26T12:07:34.268Z</time></trkpt><trkpt lat="40.5137364" lon="19.7985617"><ele>223.0</ele><time>2026-04-26T12:07:35.268Z</time></trkpt><trkpt lat="40.5137968" lon="19.7989003"><ele>244.5</ele><time>2026-04-26T12:07:36.269Z</time></trkpt><trkpt lat="40.5138816" lon="19.7992393"><ele>266.0</ele><time>2026-04-26T12:07:37.27Z</time></trkpt><trkpt lat="40.5139464" lon="19.7995792"><ele>266.0</ele><time>2026-04-26T12:07:38.27Z</time></trkpt><trkpt lat="40.5139938" lon="19.7999187"><ele>266.0</ele><time>2026-04-26T12:07:39.267Z</time></trkpt><trkpt lat="40.51402" lon="19.8002632"><ele>268.5</ele><time>2026-04-26T12:07:40.267Z</time></trkpt><trkpt lat="40.5140166" lon="19.8006176"><ele>271.0</ele><time>2026-04-26T12:07:41.269Z</time></trkpt><trkpt lat="40.5139857" lon="19.8009849"><ele>275.5</ele><time>2026-04-26T12:07:42.269Z</time></trkpt><trkpt lat="40.5139357" lon="19.8013668"><ele>280.0</ele><time>2026-04-26T12:07:43.268Z</time></trkpt><trkpt lat="40.5138872" lon="19.8017411"><ele>283.5</ele><time>2026-04-26T12:07:44.272Z</time></trkpt><trkpt lat="40.5138361" lon="19.8021055"><ele>287.0</ele><time>2026-04-26T12:07:45.269Z</time></trkpt><trkpt lat="40.5137802" lon="19.8024581"><ele>271.5</ele><time>2026-04-26T12:07:46.266Z</time></trkpt><trkpt lat="40.5137127" lon="19.802802"><ele>256.0</ele><time>2026-04-26T12:07:47.27Z</time></trkpt><trkpt lat="40.5136269" lon="19.8031335"><ele>256.0</ele><time>2026-04-26T12:07:48.27Z</time></trkpt><trkpt lat="40.5135094" lon="19.8034397"><ele>256.0</ele><time>2026-04-26T12:07:49.267Z</time></trkpt><trkpt lat="40.5133688" lon="19.8037383"><ele>266.0</ele><time>2026-04-26T12:07:50.268Z</time></trkpt><trkpt lat="40.5132023" lon="19.8040051"><ele>276.0</ele><time>2026-04-26T12:07:51.268Z</time></trkpt><trkpt lat="40.5130128" lon="19.8042522"><ele>279.5</ele><time>2026-04-26T12:07:52.267Z</time></trkpt><trkpt lat="40.5128009" lon="19.8044666"><ele>283.0</ele><time>2026-04-26T12:07:53.266Z</time></trkpt><trkpt lat="40.5125622" lon="19.8046475"><ele>283.0</ele><time>2026-04-26T12:07:54.268Z</time></trkpt><trkpt lat="40.512311" lon="19.8047988"><ele>283.0</ele><time>2026-04-26T12:07:55.265Z</time></trkpt><trkpt lat="40.5120604" lon="19.8049189"><ele>285.5</ele><time>2026-04-26T12:07:56.269Z</time></trkpt><trkpt lat="40.5118174" lon="19.8050415"><ele>288.0</ele><time>2026-04-26T12:07:57.27Z</time></trkpt><trkpt lat="40.511581" lon="19.8051743"><ele>288.0</ele><time>2026-04-26T12:07:58.269Z</time></trkpt><trkpt lat="40.511352" lon="19.8053452"><ele>288.0</ele><time>2026-04-26T12:07:59.269Z</time></trkpt><trkpt lat="40.51114" lon="19.8055472"><ele>280.5</ele><time>2026-04-26T12:08:00.27Z</time></trkpt><trkpt lat="40.5109413" lon="19.8057947"><ele>273.0</ele><time>2026-04-26T12:08:01.267Z</time></trkpt><trkpt lat="40.5107633" lon="19.806078"><ele>273.0</ele><time>2026-04-26T12:08:02.266Z</time></trkpt><trkpt lat="40.5105991" lon="19.8063752"><ele>273.0</ele><time>2026-04-26T12:08:03.266Z</time></trkpt><trkpt lat="40.5104442" lon="19.8066739"><ele>264.5</ele><time>2026-04-26T12:08:04.268Z</time></trkpt><trkpt lat="40.5102833" lon="19.8069509"><ele>256.0</ele><time>2026-04-26T12:08:05.267Z</time></trkpt><trkpt lat="40.510116" lon="19.8071935"><ele>256.0</ele><time>2026-04-26T12:08:06.267Z</time></trkpt><trkpt lat="40.5099375" lon="19.8074136"><ele>256.0</ele><time>2026-04-26T12:08:07.267Z</time></trkpt><trkpt lat="40.5097407" lon="19.8075928"><ele>258.0</ele><time>2026-04-26T12:08:08.269Z</time></trkpt><trkpt lat="40.5095319" lon="19.8077526"><ele>260.0</ele><time>2026-04-26T12:08:09.268Z</time></trkpt><trkpt lat="40.5093126" lon="19.8079009"><ele>260.0</ele><time>2026-04-26T12:08:10.267Z</time></trkpt><trkpt lat="40.5090789" lon="19.808037"><ele>260.0</ele><time>2026-04-26T12:08:11.269Z</time></trkpt><trkpt lat="40.5088404" lon="19.8081761"><ele>260.0</ele><time>2026-04-26T12:08:12.267Z</time></trkpt><trkpt lat="40.5085749" lon="19.8083215"><ele>260.0</ele><time>2026-04-26T12:08:13.269Z</time></trkpt><trkpt lat="40.5083234" lon="19.8084617"><ele>263.5</ele><time>2026-04-26T12:08:14.267Z</time></trkpt><trkpt lat="40.5080658" lon="19.8086054"><ele>267.0</ele><time>2026-04-26T12:08:15.267Z</time></trkpt><trkpt lat="40.5078063" lon="19.8087566"><ele>267.0</ele><time>2026-04-26T12:08:16.269Z</time></trkpt><trkpt lat="40.5075501" lon="19.8089067"><ele>267.0</ele><time>2026-04-26T12:08:17.266Z</time></trkpt><trkpt lat="40.5073002" lon="19.8090569"><ele>265.5</ele><time>2026-04-26T12:08:18.267Z</time></trkpt><trkpt lat="40.5070555" lon="19.8092078"><ele>264.0</ele><time>2026-04-26T12:08:19.267Z</time></trkpt><trkpt lat="40.5068234" lon="19.8093707"><ele>272.0</ele><time>2026-04-26T12:08:20.266Z</time></trkpt><trkpt lat="40.506601" lon="19.8095382"><ele>280.0</ele><time>2026-04-26T12:08:21.266Z</time></trkpt><trkpt lat="40.5063888" lon="19.8097148"><ele>274.0</ele><time>2026-04-26T12:08:22.267Z</time></trkpt><trkpt lat="40.5061869" lon="19.8098955"><ele>268.0</ele><time>2026-04-26T12:08:23.267Z</time></trkpt><trkpt lat="40.5059919" lon="19.8100811"><ele>276.5</ele><time>2026-04-26T12:08:24.267Z</time></trkpt><trkpt lat="40.5057993" lon="19.8102733"><ele>285.0</ele><time>2026-04-26T12:08:25.269Z</time></trkpt><trkpt lat="40.5056137" lon="19.8104702"><ele>285.0</ele><time>2026-04-26T12:08:26.269Z</time></trkpt><trkpt lat="40.5054315" lon="19.8106769"><ele>285.0</ele><time>2026-04-26T12:08:27.267Z</time></trkpt><trkpt lat="40.5052493" lon="19.8108995"><ele>284.0</ele><time>2026-04-26T12:08:28.268Z</time></trkpt><trkpt lat="40.5050694" lon="19.8111243"><ele>283.0</ele><time>2026-04-26T12:08:29.267Z</time></trkpt><trkpt lat="40.5048918" lon="19.8113651"><ele>283.0</ele><time>2026-04-26T12:08:30.268Z</time></trkpt><trkpt lat="40.5047138" lon="19.8116247"><ele>283.0</ele><time>2026-04-26T12:08:31.267Z</time></trkpt><trkpt lat="40.5045346" lon="19.811899"><ele>280.5</ele><time>2026-04-26T12:08:32.268Z</time></trkpt><trkpt lat="40.5043576" lon="19.8121839"><ele>278.0</ele><time>2026-04-26T12:08:33.267Z</time></trkpt><trkpt lat="40.5041825" lon="19.8124783"><ele>280.0</ele><time>2026-04-26T12:08:34.268Z</time></trkpt><trkpt lat="40.5040098" lon="19.8127719"><ele>282.0</ele><time>2026-04-26T12:08:35.267Z</time></trkpt><trkpt lat="40.5038354" lon="19.813064"><ele>279.0</ele><time>2026-04-26T12:08:36.266Z</time></trkpt><trkpt lat="40.5036617" lon="19.8133532"><ele>276.0</ele><time>2026-04-26T12:08:37.267Z</time></trkpt><trkpt lat="40.503491" lon="19.8136385"><ele>276.0</ele><time>2026-04-26T12:08:38.268Z</time></trkpt><trkpt lat="40.5033214" lon="19.8139215"><ele>276.0</ele><time>2026-04-26T12:08:39.265Z</time></trkpt><trkpt lat="40.5031567" lon="19.814203"><ele>274.5</ele><time>2026-04-26T12:08:40.267Z</time></trkpt><trkpt lat="40.5029935" lon="19.8144752"><ele>273.0</ele><time>2026-04-26T12:08:41.268Z</time></trkpt><trkpt lat="40.5028295" lon="19.8147415"><ele>273.0</ele><time>2026-04-26T12:08:42.267Z</time></trkpt><trkpt lat="40.5026698" lon="19.8150066"><ele>273.0</ele><time>2026-04-26T12:08:43.267Z</time></trkpt><trkpt lat="40.5025076" lon="19.8152735"><ele>276.0</ele><time>2026-04-26T12:08:44.269Z</time></trkpt><trkpt lat="40.5023466" lon="19.8155292"><ele>279.0</ele><time>2026-04-26T12:08:45.269Z</time></trkpt><trkpt lat="40.5021849" lon="19.8157903"><ele>279.0</ele><time>2026-04-26T12:08:46.268Z</time></trkpt><trkpt lat="40.502019" lon="19.8160545"><ele>279.0</ele><time>2026-04-26T12:08:47.269Z</time></trkpt><trkpt lat="40.5018587" lon="19.8163297"><ele>279.0</ele><time>2026-04-26T12:08:48.268Z</time></trkpt><trkpt lat="40.5016967" lon="19.8166099"><ele>279.0</ele><time>2026-04-26T12:08:49.267Z</time></trkpt><trkpt lat="40.501534" lon="19.8168906"><ele>279.0</ele><time>2026-04-26T12:08:50.269Z</time></trkpt><trkpt lat="40.5013675" lon="19.8171747"><ele>279.0</ele><time>2026-04-26T12:08:51.267Z</time></trkpt><trkpt lat="40.5011987" lon="19.8174586"><ele>282.0</ele><time>2026-04-26T12:08:52.266Z</time></trkpt><trkpt lat="40.5010315" lon="19.8177405"><ele>285.0</ele><time>2026-04-26T12:08:53.266Z</time></trkpt><trkpt lat="40.5008574" lon="19.8180204"><ele>285.0</ele><time>2026-04-26T12:08:54.27Z</time></trkpt><trkpt lat="40.5006849" lon="19.8182996"><ele>285.0</ele><time>2026-04-26T12:08:55.267Z</time></trkpt><trkpt lat="40.5005146" lon="19.81858"><ele>285.5</ele><time>2026-04-26T12:08:56.268Z</time></trkpt><trkpt lat="40.500342" lon="19.8188547"><ele>286.0</ele><time>2026-04-26T12:08:57.268Z</time></trkpt><trkpt lat="40.5001667" lon="19.8191267"><ele>290.0</ele><time>2026-04-26T12:08:58.268Z</time></trkpt><trkpt lat="40.499989" lon="19.8194022"><ele>294.0</ele><time>2026-04-26T12:08:59.267Z</time></trkpt><trkpt lat="40.4998069" lon="19.8196804"><ele>294.0</ele><time>2026-04-26T12:09:00.268Z</time></trkpt><trkpt lat="40.4996201" lon="19.8199647"><ele>294.0</ele><time>2026-04-26T12:09:01.269Z</time></trkpt><trkpt lat="40.4994318" lon="19.8202521"><ele>291.5</ele><time>2026-04-26T12:09:02.267Z</time></trkpt><trkpt lat="40.4992496" lon="19.8205351"><ele>289.0</ele><time>2026-04-26T12:09:03.268Z</time></trkpt><trkpt lat="40.4990668" lon="19.8208165"><ele>290.0</ele><time>2026-04-26T12:09:04.266Z</time></trkpt><trkpt lat="40.4988838" lon="19.8210953"><ele>291.0</ele><time>2026-04-26T12:09:05.268Z</time></trkpt><trkpt lat="40.4986972" lon="19.8213709"><ele>290.0</ele><time>2026-04-26T12:09:06.267Z</time></trkpt><trkpt lat="40.4985096" lon="19.8216464"><ele>289.0</ele><time>2026-04-26T12:09:07.268Z</time></trkpt><trkpt lat="40.4983226" lon="19.8219208"><ele>289.0</ele><time>2026-04-26T12:09:08.267Z</time></trkpt><trkpt lat="40.4981364" lon="19.8221961"><ele>289.0</ele><time>2026-04-26T12:09:09.269Z</time></trkpt><trkpt lat="40.4979518" lon="19.8224708"><ele>289.0</ele><time>2026-04-26T12:09:10.267Z</time></trkpt><trkpt lat="40.4977725" lon="19.8227477"><ele>289.0</ele><time>2026-04-26T12:09:11.267Z</time></trkpt><trkpt lat="40.4975926" lon="19.8230266"><ele>289.0</ele><time>2026-04-26T12:09:12.266Z</time></trkpt><trkpt lat="40.4974182" lon="19.8233019"><ele>289.0</ele><time>2026-04-26T12:09:13.268Z</time></trkpt><trkpt lat="40.4972392" lon="19.8235755"><ele>290.0</ele><time>2026-04-26T12:09:14.269Z</time></trkpt><trkpt lat="40.4970547" lon="19.8238622"><ele>291.0</ele><time>2026-04-26T12:09:15.267Z</time></trkpt><trkpt lat="40.496872" lon="19.8241613"><ele>293.0</ele><time>2026-04-26T12:09:16.267Z</time></trkpt><trkpt lat="40.4966961" lon="19.8244796"><ele>295.0</ele><time>2026-04-26T12:09:17.268Z</time></trkpt><trkpt lat="40.4965301" lon="19.8248186"><ele>296.0</ele><time>2026-04-26T12:09:18.269Z</time></trkpt><trkpt lat="40.4963781" lon="19.8251703"><ele>297.0</ele><time>2026-04-26T12:09:19.265Z</time></trkpt><trkpt lat="40.4962342" lon="19.8255379"><ele>303.0</ele><time>2026-04-26T12:09:20.268Z</time></trkpt><trkpt lat="40.4960934" lon="19.8259227"><ele>309.0</ele><time>2026-04-26T12:09:21.267Z</time></trkpt><trkpt lat="40.4959559" lon="19.8263"><ele>309.0</ele><time>2026-04-26T12:09:22.268Z</time></trkpt><trkpt lat="40.4958285" lon="19.8266789"><ele>309.0</ele><time>2026-04-26T12:09:23.268Z</time></trkpt><trkpt lat="40.4956963" lon="19.8270424"><ele>309.0</ele><time>2026-04-26T12:09:24.266Z</time></trkpt><trkpt lat="40.4955658" lon="19.8273941"><ele>309.0</ele><time>2026-04-26T12:09:25.272Z</time></trkpt><trkpt lat="40.495431" lon="19.8277346"><ele>314.0</ele><time>2026-04-26T12:09:26.269Z</time></trkpt><trkpt lat="40.4952799" lon="19.8280576"><ele>319.0</ele><time>2026-04-26T12:09:27.266Z</time></trkpt><trkpt lat="40.4951186" lon="19.8283541"><ele>314.0</ele><time>2026-04-26T12:09:28.267Z</time></trkpt><trkpt lat="40.4949371" lon="19.8286309"><ele>309.0</ele><time>2026-04-26T12:09:29.268Z</time></trkpt><trkpt lat="40.4947442" lon="19.8288781"><ele>318.5</ele><time>2026-04-26T12:09:30.268Z</time></trkpt><trkpt lat="40.4945397" lon="19.829105"><ele>328.0</ele><time>2026-04-26T12:09:31.267Z</time></trkpt><trkpt lat="40.494324" lon="19.8293077"><ele>323.5</ele><time>2026-04-26T12:09:32.267Z</time></trkpt><trkpt lat="40.4940992" lon="19.8295067"><ele>319.0</ele><time>2026-04-26T12:09:33.266Z</time></trkpt><trkpt lat="40.493875" lon="19.8297088"><ele>328.5</ele><time>2026-04-26T12:09:34.268Z</time></trkpt><trkpt lat="40.4936464" lon="19.8299101"><ele>338.0</ele><time>2026-04-26T12:09:35.268Z</time></trkpt><trkpt lat="40.4934263" lon="19.8301139"><ele>332.0</ele><time>2026-04-26T12:09:36.264Z</time></trkpt><trkpt lat="40.4932196" lon="19.8303273"><ele>326.0</ele><time>2026-04-26T12:09:37.266Z</time></trkpt><trkpt lat="40.49303" lon="19.8305574"><ele>333.5</ele><time>2026-04-26T12:09:38.267Z</time></trkpt><trkpt lat="40.4928586" lon="19.8308056"><ele>341.0</ele><time>2026-04-26T12:09:39.267Z</time></trkpt><trkpt lat="40.4927115" lon="19.8310682"><ele>341.0</ele><time>2026-04-26T12:09:40.266Z</time></trkpt><trkpt lat="40.4925904" lon="19.8313393"><ele>341.0</ele><time>2026-04-26T12:09:41.268Z</time></trkpt><trkpt lat="40.492492" lon="19.8316167"><ele>345.5</ele><time>2026-04-26T12:09:42.267Z</time></trkpt><trkpt lat="40.4924119" lon="19.8319"><ele>350.0</ele><time>2026-04-26T12:09:43.267Z</time></trkpt><trkpt lat="40.4923502" lon="19.8321946"><ele>350.0</ele><time>2026-04-26T12:09:44.268Z</time></trkpt><trkpt lat="40.4923079" lon="19.8325058"><ele>350.0</ele><time>2026-04-26T12:09:45.266Z</time></trkpt><trkpt lat="40.492284" lon="19.8328266"><ele>349.5</ele><time>2026-04-26T12:09:46.266Z</time></trkpt><trkpt lat="40.4922825" lon="19.8331511"><ele>349.0</ele><time>2026-04-26T12:09:47.267Z</time></trkpt><trkpt lat="40.4923044" lon="19.833484"><ele>351.0</ele><time>2026-04-26T12:09:48.267Z</time></trkpt><trkpt lat="40.4923486" lon="19.83381"><ele>353.0</ele><time>2026-04-26T12:09:49.267Z</time></trkpt><trkpt lat="40.492411" lon="19.8341306"><ele>359.0</ele><time>2026-04-26T12:09:50.269Z</time></trkpt><trkpt lat="40.4924986" lon="19.8344431"><ele>365.0</ele><time>2026-04-26T12:09:51.268Z</time></trkpt><trkpt lat="40.4926042" lon="19.8347462"><ele>365.0</ele><time>2026-04-26T12:09:52.267Z</time></trkpt><trkpt lat="40.4927311" lon="19.8350386"><ele>365.0</ele><time>2026-04-26T12:09:53.267Z</time></trkpt><trkpt lat="40.4928844" lon="19.8353175"><ele>371.0</ele><time>2026-04-26T12:09:54.266Z</time></trkpt><trkpt lat="40.4930547" lon="19.8355911"><ele>377.0</ele><time>2026-04-26T12:09:55.268Z</time></trkpt><trkpt lat="40.4932361" lon="19.835867"><ele>382.5</ele><time>2026-04-26T12:09:56.268Z</time></trkpt><trkpt lat="40.4934162" lon="19.8361431"><ele>388.0</ele><time>2026-04-26T12:09:57.264Z</time></trkpt><trkpt lat="40.493594" lon="19.8364099"><ele>388.0</ele><time>2026-04-26T12:09:58.267Z</time></trkpt><trkpt lat="40.4937477" lon="19.8366858"><ele>388.0</ele><time>2026-04-26T12:09:59.268Z</time></trkpt><trkpt lat="40.4938669" lon="19.8369567"><ele>388.0</ele><time>2026-04-26T12:10:00.266Z</time></trkpt><trkpt lat="40.4939301" lon="19.8372386"><ele>388.0</ele><time>2026-04-26T12:10:01.267Z</time></trkpt><trkpt lat="40.4939688" lon="19.8375199"><ele>388.0</ele><time>2026-04-26T12:10:02.268Z</time></trkpt><trkpt lat="40.4939783" lon="19.8378033"><ele>388.0</ele><time>2026-04-26T12:10:03.268Z</time></trkpt><trkpt lat="40.4939654" lon="19.8380901"><ele>388.0</ele><time>2026-04-26T12:10:04.266Z</time></trkpt><trkpt lat="40.4939371" lon="19.838368"><ele>388.0</ele><time>2026-04-26T12:10:05.267Z</time></trkpt><trkpt lat="40.4938813" lon="19.8386386"><ele>385.0</ele><time>2026-04-26T12:10:06.268Z</time></trkpt><trkpt lat="40.4937886" lon="19.8389072"><ele>382.0</ele><time>2026-04-26T12:10:07.268Z</time></trkpt><trkpt lat="40.4936333" lon="19.8391296"><ele>384.0</ele><time>2026-04-26T12:10:08.268Z</time></trkpt><trkpt lat="40.493468" lon="19.8393329"><ele>386.0</ele><time>2026-04-26T12:10:09.267Z</time></trkpt><trkpt lat="40.4932912" lon="19.8394968"><ele>388.0</ele><time>2026-04-26T12:10:10.268Z</time></trkpt><trkpt lat="40.4931079" lon="19.8396338"><ele>394.6666666666667</ele><time>2026-04-26T12:10:11.266Z</time></trkpt><trkpt lat="40.4928982" lon="19.8397197"><ele>401.33333333333337</ele><time>2026-04-26T12:10:12.268Z</time></trkpt><trkpt lat="40.4926853" lon="19.8397845"><ele>408.0</ele><time>2026-04-26T12:10:13.269Z</time></trkpt><trkpt lat="40.4924416" lon="19.8398073"><ele>408.0</ele><time>2026-04-26T12:10:14.267Z</time></trkpt><trkpt lat="40.4921941" lon="19.8398341"><ele>408.0</ele><time>2026-04-26T12:10:15.266Z</time></trkpt><trkpt lat="40.4919636" lon="19.8398783"><ele>414.0</ele><time>2026-04-26T12:10:16.266Z</time></trkpt><trkpt lat="40.491743" lon="19.8399253"><ele>420.0</ele><time>2026-04-26T12:10:17.267Z</time></trkpt><trkpt lat="40.4915231" lon="19.8399704"><ele>426.0</ele><time>2026-04-26T12:10:18.266Z</time></trkpt><trkpt lat="40.4912996" lon="19.8400052"><ele>424.0</ele><time>2026-04-26T12:10:19.268Z</time></trkpt><trkpt lat="40.4910795" lon="19.8400291"><ele>422.0</ele><time>2026-04-26T12:10:20.27Z</time></trkpt><trkpt lat="40.4908527" lon="19.8400435"><ele>420.0</ele><time>2026-04-26T12:10:21.268Z</time></trkpt><trkpt lat="40.4906186" lon="19.840061"><ele>417.5</ele><time>2026-04-26T12:10:22.266Z</time></trkpt><trkpt lat="40.490376" lon="19.8400948"><ele>415.0</ele><time>2026-04-26T12:10:23.267Z</time></trkpt><trkpt lat="40.4901294" lon="19.8401304"><ele>407.0</ele><time>2026-04-26T12:10:24.267Z</time></trkpt><trkpt lat="40.4898925" lon="19.8401811"><ele>399.0</ele><time>2026-04-26T12:10:25.267Z</time></trkpt><trkpt lat="40.4896664" lon="19.8402377"><ele>399.0</ele><time>2026-04-26T12:10:26.267Z</time></trkpt><trkpt lat="40.4894538" lon="19.8402936"><ele>399.0</ele><time>2026-04-26T12:10:27.266Z</time></trkpt><trkpt lat="40.4892528" lon="19.8403496"><ele>399.0</ele><time>2026-04-26T12:10:28.267Z</time></trkpt><trkpt lat="40.489062" lon="19.8403949"><ele>399.0</ele><time>2026-04-26T12:10:29.266Z</time></trkpt><trkpt lat="40.4888641" lon="19.8404213"><ele>399.0</ele><time>2026-04-26T12:10:30.267Z</time></trkpt><trkpt lat="40.4886725" lon="19.8404368"><ele>399.0</ele><time>2026-04-26T12:10:31.267Z</time></trkpt><trkpt lat="40.4884743" lon="19.8404324"><ele>403.0</ele><time>2026-04-26T12:10:32.265Z</time></trkpt><trkpt lat="40.4882764" lon="19.8404126"><ele>407.0</ele><time>2026-04-26T12:10:33.267Z</time></trkpt><trkpt lat="40.4880847" lon="19.8403847"><ele>411.0</ele><time>2026-04-26T12:10:34.266Z</time></trkpt><trkpt lat="40.4878992" lon="19.8403405"><ele>411.0</ele><time>2026-04-26T12:10:35.266Z</time></trkpt><trkpt lat="40.4877155" lon="19.8402949"><ele>411.0</ele><time>2026-04-26T12:10:36.266Z</time></trkpt><trkpt lat="40.4875384" lon="19.8402487"><ele>411.0</ele><time>2026-04-26T12:10:37.268Z</time></trkpt><trkpt lat="40.4873648" lon="19.840198"><ele>411.0</ele><time>2026-04-26T12:10:38.267Z</time></trkpt><trkpt lat="40.4871879" lon="19.8401543"><ele>411.0</ele><time>2026-04-26T12:10:39.268Z</time></trkpt><trkpt lat="40.4870085" lon="19.8401062"><ele>411.0</ele><time>2026-04-26T12:10:40.266Z</time></trkpt><trkpt lat="40.486833" lon="19.8400684"><ele>406.0</ele><time>2026-04-26T12:10:41.267Z</time></trkpt><trkpt lat="40.48666" lon="19.8400348"><ele>401.0</ele><time>2026-04-26T12:10:42.267Z</time></trkpt><trkpt lat="40.486484" lon="19.8400094"><ele>396.0</ele><time>2026-04-26T12:10:43.268Z</time></trkpt><trkpt lat="40.4863029" lon="19.8399864"><ele>397.33333333333337</ele><time>2026-04-26T12:10:44.263Z</time></trkpt><trkpt lat="40.486115" lon="19.8399784"><ele>398.6666666666667</ele><time>2026-04-26T12:10:45.264Z</time></trkpt><trkpt lat="40.4859166" lon="19.8399768"><ele>400.0</ele><time>2026-04-26T12:10:46.266Z</time></trkpt><trkpt lat="40.485706" lon="19.8399862"><ele>400.0</ele><time>2026-04-26T12:10:47.265Z</time></trkpt><trkpt lat="40.4854867" lon="19.8400095"><ele>400.0</ele><time>2026-04-26T12:10:48.265Z</time></trkpt><trkpt lat="40.485262" lon="19.8400452"><ele>400.0</ele><time>2026-04-26T12:10:49.263Z</time></trkpt><trkpt lat="40.4850345" lon="19.8400982"><ele>401.0</ele><time>2026-04-26T12:10:50.265Z</time></trkpt><trkpt lat="40.484812" lon="19.8401565"><ele>402.0</ele><time>2026-04-26T12:10:51.266Z</time></trkpt><trkpt lat="40.4845934" lon="19.8402191"><ele>398.0</ele><time>2026-04-26T12:10:52.268Z</time></trkpt><trkpt lat="40.4843647" lon="19.8402797"><ele>394.0</ele><time>2026-04-26T12:10:53.267Z</time></trkpt><trkpt lat="40.4841278" lon="19.8403391"><ele>394.0</ele><time>2026-04-26T12:10:54.264Z</time></trkpt><trkpt lat="40.483876" lon="19.840387"><ele>394.0</ele><time>2026-04-26T12:10:55.265Z</time></trkpt><trkpt lat="40.4836185" lon="19.8404284"><ele>390.5</ele><time>2026-04-26T12:10:56.267Z</time></trkpt><trkpt lat="40.4833621" lon="19.8404695"><ele>387.0</ele><time>2026-04-26T12:10:57.266Z</time></trkpt><trkpt lat="40.4831132" lon="19.8405133"><ele>381.5</ele><time>2026-04-26T12:10:58.265Z</time></trkpt><trkpt lat="40.482872" lon="19.8405693"><ele>376.0</ele><time>2026-04-26T12:10:59.269Z</time></trkpt><trkpt lat="40.4826389" lon="19.8406358"><ele>376.0</ele><time>2026-04-26T12:11:00.266Z</time></trkpt><trkpt lat="40.4824173" lon="19.8407286"><ele>376.0</ele><time>2026-04-26T12:11:01.266Z</time></trkpt><trkpt lat="40.4822034" lon="19.8408403"><ele>370.0</ele><time>2026-04-26T12:11:02.266Z</time></trkpt><trkpt lat="40.4819985" lon="19.8409713"><ele>364.0</ele><time>2026-04-26T12:11:03.267Z</time></trkpt><trkpt lat="40.4817983" lon="19.8411132"><ele>364.0</ele><time>2026-04-26T12:11:04.268Z</time></trkpt><trkpt lat="40.4816048" lon="19.8412753"><ele>364.0</ele><time>2026-04-26T12:11:05.265Z</time></trkpt><trkpt lat="40.4814143" lon="19.8414555"><ele>358.0</ele><time>2026-04-26T12:11:06.267Z</time></trkpt><trkpt lat="40.4812358" lon="19.8416568"><ele>352.0</ele><time>2026-04-26T12:11:07.266Z</time></trkpt><trkpt lat="40.4810646" lon="19.8418741"><ele>352.0</ele><time>2026-04-26T12:11:08.267Z</time></trkpt><trkpt lat="40.4809065" lon="19.8421062"><ele>352.0</ele><time>2026-04-26T12:11:09.266Z</time></trkpt><trkpt lat="40.4807586" lon="19.8423534"><ele>352.0</ele><time>2026-04-26T12:11:10.267Z</time></trkpt><trkpt lat="40.4806227" lon="19.8426138"><ele>352.0</ele><time>2026-04-26T12:11:11.266Z</time></trkpt><trkpt lat="40.4805002" lon="19.8428795"><ele>347.5</ele><time>2026-04-26T12:11:12.264Z</time></trkpt><trkpt lat="40.4803938" lon="19.8431466"><ele>343.0</ele><time>2026-04-26T12:11:13.27Z</time></trkpt><trkpt lat="40.4803018" lon="19.8434171"><ele>343.0</ele><time>2026-04-26T12:11:14.266Z</time></trkpt><trkpt lat="40.4802264" lon="19.8436975"><ele>343.0</ele><time>2026-04-26T12:11:15.268Z</time></trkpt><trkpt lat="40.4801596" lon="19.8439835"><ele>343.0</ele><time>2026-04-26T12:11:16.269Z</time></trkpt><trkpt lat="40.4801087" lon="19.8442787"><ele>343.0</ele><time>2026-04-26T12:11:17.267Z</time></trkpt><trkpt lat="40.4800689" lon="19.8445824"><ele>341.5</ele><time>2026-04-26T12:11:18.268Z</time></trkpt><trkpt lat="40.4800419" lon="19.8448879"><ele>340.0</ele><time>2026-04-26T12:11:19.266Z</time></trkpt><trkpt lat="40.4800223" lon="19.8452008"><ele>337.0</ele><time>2026-04-26T12:11:20.267Z</time></trkpt><trkpt lat="40.4800092" lon="19.8455033"><ele>334.0</ele><time>2026-04-26T12:11:21.267Z</time></trkpt><trkpt lat="40.4800008" lon="19.8458039"><ele>331.0</ele><time>2026-04-26T12:11:22.267Z</time></trkpt><trkpt lat="40.4799857" lon="19.8460996"><ele>328.0</ele><time>2026-04-26T12:11:23.268Z</time></trkpt><trkpt lat="40.4799676" lon="19.8463975"><ele>328.0</ele><time>2026-04-26T12:11:24.267Z</time></trkpt><trkpt lat="40.4799506" lon="19.8466956"><ele>328.0</ele><time>2026-04-26T12:11:25.266Z</time></trkpt><trkpt lat="40.4799352" lon="19.8469869"><ele>328.0</ele><time>2026-04-26T12:11:26.266Z</time></trkpt><trkpt lat="40.4799147" lon="19.8472714"><ele>327.66666666666663</ele><time>2026-04-26T12:11:27.267Z</time></trkpt><trkpt lat="40.4798863" lon="19.8475574"><ele>327.3333333333333</ele><time>2026-04-26T12:11:28.266Z</time></trkpt><trkpt lat="40.4798447" lon="19.8478341"><ele>327.0</ele><time>2026-04-26T12:11:29.269Z</time></trkpt><trkpt lat="40.4797836" lon="19.8481012"><ele>326.0</ele><time>2026-04-26T12:11:30.268Z</time></trkpt><trkpt lat="40.4797074" lon="19.8483559"><ele>325.0</ele><time>2026-04-26T12:11:31.268Z</time></trkpt><trkpt lat="40.479611" lon="19.8486046"><ele>324.0</ele><time>2026-04-26T12:11:32.266Z</time></trkpt><trkpt lat="40.479503" lon="19.848835"><ele>319.3333333333333</ele><time>2026-04-26T12:11:33.266Z</time></trkpt><trkpt lat="40.4793824" lon="19.8490569"><ele>314.66666666666663</ele><time>2026-04-26T12:11:34.268Z</time></trkpt><trkpt lat="40.4792474" lon="19.8492694"><ele>310.0</ele><time>2026-04-26T12:11:35.268Z</time></trkpt><trkpt lat="40.4790981" lon="19.8494674"><ele>310.0</ele><time>2026-04-26T12:11:36.268Z</time></trkpt><trkpt lat="40.4789348" lon="19.8496516"><ele>310.0</ele><time>2026-04-26T12:11:37.266Z</time></trkpt><trkpt lat="40.4787553" lon="19.849817"><ele>310.0</ele><time>2026-04-26T12:11:38.267Z</time></trkpt><trkpt lat="40.4785667" lon="19.8499697"><ele>303.5</ele><time>2026-04-26T12:11:39.267Z</time></trkpt><trkpt lat="40.4783634" lon="19.8501009"><ele>297.0</ele><time>2026-04-26T12:11:40.267Z</time></trkpt><trkpt lat="40.4781406" lon="19.8502293"><ele>295.5</ele><time>2026-04-26T12:11:41.266Z</time></trkpt><trkpt lat="40.4779081" lon="19.8503493"><ele>294.0</ele><time>2026-04-26T12:11:42.269Z</time></trkpt><trkpt lat="40.4776732" lon="19.8504652"><ele>294.0</ele><time>2026-04-26T12:11:43.269Z</time></trkpt><trkpt lat="40.4774457" lon="19.8505874"><ele>294.0</ele><time>2026-04-26T12:11:44.267Z</time></trkpt><trkpt lat="40.4772256" lon="19.8507045"><ele>294.5</ele><time>2026-04-26T12:11:45.268Z</time></trkpt><trkpt lat="40.4770059" lon="19.8508109"><ele>295.0</ele><time>2026-04-26T12:11:46.265Z</time></trkpt><trkpt lat="40.4767884" lon="19.8509181"><ele>289.0</ele><time>2026-04-26T12:11:47.267Z</time></trkpt><trkpt lat="40.4765734" lon="19.8510177"><ele>283.0</ele><time>2026-04-26T12:11:48.268Z</time></trkpt><trkpt lat="40.4763609" lon="19.8511003"><ele>281.0</ele><time>2026-04-26T12:11:49.267Z</time></trkpt><trkpt lat="40.4761508" lon="19.8511665"><ele>279.0</ele><time>2026-04-26T12:11:50.268Z</time></trkpt><trkpt lat="40.4759414" lon="19.8512217"><ele>277.0</ele><time>2026-04-26T12:11:51.266Z</time></trkpt><trkpt lat="40.4757279" lon="19.8512597"><ele>277.0</ele><time>2026-04-26T12:11:52.267Z</time></trkpt><trkpt lat="40.4754994" lon="19.8512865"><ele>277.0</ele><time>2026-04-26T12:11:53.268Z</time></trkpt><trkpt lat="40.4752482" lon="19.8512892"><ele>274.0</ele><time>2026-04-26T12:11:54.268Z</time></trkpt><trkpt lat="40.4749883" lon="19.8512611"><ele>271.0</ele><time>2026-04-26T12:11:55.266Z</time></trkpt><trkpt lat="40.4747387" lon="19.8512151"><ele>267.5</ele><time>2026-04-26T12:11:56.265Z</time></trkpt><trkpt lat="40.4745036" lon="19.8511521"><ele>264.0</ele><time>2026-04-26T12:11:57.27Z</time></trkpt><trkpt lat="40.4742729" lon="19.851088"><ele>264.0</ele><time>2026-04-26T12:11:58.268Z</time></trkpt><trkpt lat="40.4740482" lon="19.8510366"><ele>264.0</ele><time>2026-04-26T12:11:59.268Z</time></trkpt><trkpt lat="40.4738267" lon="19.8510068"><ele>262.3333333333333</ele><time>2026-04-26T12:12:00.265Z</time></trkpt><trkpt lat="40.4736023" lon="19.851003"><ele>260.66666666666663</ele><time>2026-04-26T12:12:01.269Z</time></trkpt><trkpt lat="40.4733802" lon="19.8510271"><ele>259.0</ele><time>2026-04-26T12:12:02.267Z</time></trkpt><trkpt lat="40.473166" lon="19.8510813"><ele>259.0</ele><time>2026-04-26T12:12:03.266Z</time></trkpt><trkpt lat="40.4729602" lon="19.8511655"><ele>259.0</ele><time>2026-04-26T12:12:04.267Z</time></trkpt><trkpt lat="40.4727634" lon="19.8512731"><ele>259.0</ele><time>2026-04-26T12:12:05.267Z</time></trkpt><trkpt lat="40.4725776" lon="19.8514106"><ele>259.66666666666663</ele><time>2026-04-26T12:12:06.265Z</time></trkpt><trkpt lat="40.472408" lon="19.8515677"><ele>260.3333333333333</ele><time>2026-04-26T12:12:07.269Z</time></trkpt><trkpt lat="40.4722434" lon="19.8517504"><ele>261.0</ele><time>2026-04-26T12:12:08.268Z</time></trkpt><trkpt lat="40.4720806" lon="19.8519512"><ele>261.0</ele><time>2026-04-26T12:12:09.268Z</time></trkpt><trkpt lat="40.4719256" lon="19.8521407"><ele>261.0</ele><time>2026-04-26T12:12:10.267Z</time></trkpt><trkpt lat="40.4717657" lon="19.8523186"><ele>261.0</ele><time>2026-04-26T12:12:11.266Z</time></trkpt><trkpt lat="40.4715944" lon="19.8524627"><ele>261.0</ele><time>2026-04-26T12:12:12.268Z</time></trkpt><trkpt lat="40.4714117" lon="19.8525819"><ele>261.0</ele><time>2026-04-26T12:12:13.267Z</time></trkpt><trkpt lat="40.4712249" lon="19.8526574"><ele>261.0</ele><time>2026-04-26T12:12:14.267Z</time></trkpt><trkpt lat="40.4710307" lon="19.8527001"><ele>253.66666666666669</ele><time>2026-04-26T12:12:15.263Z</time></trkpt><trkpt lat="40.4708296" lon="19.8527048"><ele>246.33333333333334</ele><time>2026-04-26T12:12:16.267Z</time></trkpt><trkpt lat="40.4706317" lon="19.8526605"><ele>239.0</ele><time>2026-04-26T12:12:17.266Z</time></trkpt><trkpt lat="40.4704322" lon="19.8526395"><ele>239.0</ele><time>2026-04-26T12:12:18.268Z</time></trkpt><trkpt lat="40.4702319" lon="19.852627"><ele>239.0</ele><time>2026-04-26T12:12:19.267Z</time></trkpt><trkpt lat="40.4700414" lon="19.852655"><ele>239.0</ele><time>2026-04-26T12:12:20.271Z</time></trkpt><trkpt lat="40.4698247" lon="19.8526926"><ele>239.0</ele><time>2026-04-26T12:12:21.273Z</time></trkpt><trkpt lat="40.4696338" lon="19.8528364"><ele>239.0</ele><time>2026-04-26T12:12:22.275Z</time></trkpt><trkpt lat="40.469441" lon="19.8529511"><ele>239.0</ele><time>2026-04-26T12:12:23.276Z</time></trkpt><trkpt lat="40.46925" lon="19.8530546"><ele>238.66666666666669</ele><time>2026-04-26T12:12:24.267Z</time></trkpt><trkpt lat="40.4690632" lon="19.8531515"><ele>238.33333333333331</ele><time>2026-04-26T12:12:25.267Z</time></trkpt><trkpt lat="40.4688678" lon="19.8532057"><ele>238.0</ele><time>2026-04-26T12:12:26.266Z</time></trkpt><trkpt lat="40.4686618" lon="19.8532136"><ele>238.0</ele><time>2026-04-26T12:12:27.265Z</time></trkpt><trkpt lat="40.4684569" lon="19.8532006"><ele>238.0</ele><time>2026-04-26T12:12:28.266Z</time></trkpt><trkpt lat="40.4682473" lon="19.8531719"><ele>238.0</ele><time>2026-04-26T12:12:29.266Z</time></trkpt><trkpt lat="40.4680335" lon="19.8531667"><ele>236.66666666666666</ele><time>2026-04-26T12:12:30.268Z</time></trkpt><trkpt lat="40.46782" lon="19.8531896"><ele>235.33333333333331</ele><time>2026-04-26T12:12:31.267Z</time></trkpt><trkpt lat="40.4676007" lon="19.8532211"><ele>234.0</ele><time>2026-04-26T12:12:32.266Z</time></trkpt><trkpt lat="40.4673906" lon="19.8532815"><ele>234.0</ele><time>2026-04-26T12:12:33.269Z</time></trkpt><trkpt lat="40.4671774" lon="19.8533261"><ele>234.0</ele><time>2026-04-26T12:12:34.273Z</time></trkpt><trkpt lat="40.4669618" lon="19.8533693"><ele>234.0</ele><time>2026-04-26T12:12:35.268Z</time></trkpt><trkpt lat="40.4667419" lon="19.8533771"><ele>234.0</ele><time>2026-04-26T12:12:36.266Z</time></trkpt><trkpt lat="40.4665175" lon="19.8533546"><ele>234.0</ele><time>2026-04-26T12:12:37.266Z</time></trkpt><trkpt lat="40.4662867" lon="19.8533141"><ele>230.0</ele><time>2026-04-26T12:12:38.267Z</time></trkpt><trkpt lat="40.4660578" lon="19.8532693"><ele>226.0</ele><time>2026-04-26T12:12:39.269Z</time></trkpt><trkpt lat="40.4658317" lon="19.8532215"><ele>226.0</ele><time>2026-04-26T12:12:40.266Z</time></trkpt><trkpt lat="40.465608" lon="19.853174"><ele>226.0</ele><time>2026-04-26T12:12:41.268Z</time></trkpt><trkpt lat="40.4653858" lon="19.8531293"><ele>224.66666666666666</ele><time>2026-04-26T12:12:42.269Z</time></trkpt><trkpt lat="40.4651734" lon="19.8530787"><ele>223.33333333333331</ele><time>2026-04-26T12:12:43.266Z</time></trkpt><trkpt lat="40.4649625" lon="19.8530241"><ele>222.0</ele><time>2026-04-26T12:12:44.266Z</time></trkpt><trkpt lat="40.4647467" lon="19.8529509"><ele>220.0</ele><time>2026-04-26T12:12:45.269Z</time></trkpt><trkpt lat="40.4645284" lon="19.8528607"><ele>218.0</ele><time>2026-04-26T12:12:46.269Z</time></trkpt><trkpt lat="40.4643183" lon="19.8527644"><ele>218.0</ele><time>2026-04-26T12:12:47.265Z</time></trkpt><trkpt lat="40.4640968" lon="19.8526608"><ele>218.0</ele><time>2026-04-26T12:12:48.268Z</time></trkpt><trkpt lat="40.4638827" lon="19.8525585"><ele>220.0</ele><time>2026-04-26T12:12:49.268Z</time></trkpt><trkpt lat="40.4636622" lon="19.8524544"><ele>222.0</ele><time>2026-04-26T12:12:50.266Z</time></trkpt><trkpt lat="40.4634416" lon="19.8523493"><ele>222.0</ele><time>2026-04-26T12:12:51.27Z</time></trkpt><trkpt lat="40.4632267" lon="19.8522394"><ele>222.0</ele><time>2026-04-26T12:12:52.267Z</time></trkpt><trkpt lat="40.4630058" lon="19.8521303"><ele>219.0</ele><time>2026-04-26T12:12:53.267Z</time></trkpt><trkpt lat="40.4627796" lon="19.8520133"><ele>216.0</ele><time>2026-04-26T12:12:54.267Z</time></trkpt><trkpt lat="40.4625579" lon="19.8518908"><ele>221.0</ele><time>2026-04-26T12:12:55.267Z</time></trkpt><trkpt lat="40.462337" lon="19.8517594"><ele>226.0</ele><time>2026-04-26T12:12:56.267Z</time></trkpt><trkpt lat="40.4621165" lon="19.8516208"><ele>220.5</ele><time>2026-04-26T12:12:57.269Z</time></trkpt><trkpt lat="40.4618922" lon="19.8514787"><ele>215.0</ele><time>2026-04-26T12:12:58.266Z</time></trkpt><trkpt lat="40.4616683" lon="19.8513339"><ele>215.0</ele><time>2026-04-26T12:12:59.268Z</time></trkpt><trkpt lat="40.4614442" lon="19.8511908"><ele>215.0</ele><time>2026-04-26T12:13:00.267Z</time></trkpt><trkpt lat="40.4612183" lon="19.8510485"><ele>217.0</ele><time>2026-04-26T12:13:01.265Z</time></trkpt><trkpt lat="40.4609957" lon="19.8509116"><ele>219.0</ele><time>2026-04-26T12:13:02.267Z</time></trkpt><trkpt lat="40.4607756" lon="19.8507755"><ele>219.0</ele><time>2026-04-26T12:13:03.267Z</time></trkpt><trkpt lat="40.4605604" lon="19.8506429"><ele>219.0</ele><time>2026-04-26T12:13:04.267Z</time></trkpt><trkpt lat="40.4603398" lon="19.8505065"><ele>214.0</ele><time>2026-04-26T12:13:05.268Z</time></trkpt><trkpt lat="40.4601164" lon="19.8503752"><ele>209.0</ele><time>2026-04-26T12:13:06.267Z</time></trkpt><trkpt lat="40.4598919" lon="19.8502404"><ele>211.5</ele><time>2026-04-26T12:13:07.267Z</time></trkpt><trkpt lat="40.4596622" lon="19.8501165"><ele>214.0</ele><time>2026-04-26T12:13:08.265Z</time></trkpt><trkpt lat="40.4594311" lon="19.8500055"><ele>214.0</ele><time>2026-04-26T12:13:09.267Z</time></trkpt><trkpt lat="40.4592019" lon="19.849912"><ele>214.0</ele><time>2026-04-26T12:13:10.264Z</time></trkpt><trkpt lat="40.4589757" lon="19.8498361"><ele>211.0</ele><time>2026-04-26T12:13:11.267Z</time></trkpt><trkpt lat="40.4587502" lon="19.8497752"><ele>208.0</ele><time>2026-04-26T12:13:12.269Z</time></trkpt><trkpt lat="40.458531" lon="19.8497212"><ele>208.0</ele><time>2026-04-26T12:13:13.271Z</time></trkpt><trkpt lat="40.4583216" lon="19.8496832"><ele>208.0</ele><time>2026-04-26T12:13:14.267Z</time></trkpt><trkpt lat="40.4581195" lon="19.8496403"><ele>208.0</ele><time>2026-04-26T12:13:15.268Z</time></trkpt><trkpt lat="40.4579241" lon="19.8495875"><ele>205.66666666666666</ele><time>2026-04-26T12:13:16.27Z</time></trkpt><trkpt lat="40.4577277" lon="19.8495279"><ele>203.33333333333331</ele><time>2026-04-26T12:13:17.266Z</time></trkpt><trkpt lat="40.4575434" lon="19.8494643"><ele>201.0</ele><time>2026-04-26T12:13:18.267Z</time></trkpt><trkpt lat="40.4573598" lon="19.8493927"><ele>201.0</ele><time>2026-04-26T12:13:19.267Z</time></trkpt><trkpt lat="40.4571715" lon="19.8493158"><ele>201.0</ele><time>2026-04-26T12:13:20.266Z</time></trkpt><trkpt lat="40.4569774" lon="19.8492333"><ele>201.0</ele><time>2026-04-26T12:13:21.264Z</time></trkpt><trkpt lat="40.456775" lon="19.8491497"><ele>200.66666666666669</ele><time>2026-04-26T12:13:22.267Z</time></trkpt><trkpt lat="40.4565729" lon="19.8490622"><ele>200.33333333333334</ele><time>2026-04-26T12:13:23.265Z</time></trkpt><trkpt lat="40.4563657" lon="19.8489738"><ele>200.0</ele><time>2026-04-26T12:13:24.267Z</time></trkpt><trkpt lat="40.4561645" lon="19.8488865"><ele>200.0</ele><time>2026-04-26T12:13:25.266Z</time></trkpt><trkpt lat="40.4559571" lon="19.8487971"><ele>200.0</ele><time>2026-04-26T12:13:26.266Z</time></trkpt><trkpt lat="40.4557498" lon="19.8487075"><ele>200.0</ele><time>2026-04-26T12:13:27.269Z</time></trkpt><trkpt lat="40.4555395" lon="19.8486301"><ele>199.66666666666669</ele><time>2026-04-26T12:13:28.269Z</time></trkpt><trkpt lat="40.4553286" lon="19.8485762"><ele>199.33333333333331</ele><time>2026-04-26T12:13:29.268Z</time></trkpt><trkpt lat="40.4551133" lon="19.8485505"><ele>199.0</ele><time>2026-04-26T12:13:30.266Z</time></trkpt><trkpt lat="40.4548874" lon="19.8485501"><ele>199.0</ele><time>2026-04-26T12:13:31.268Z</time></trkpt><trkpt lat="40.454668" lon="19.8485718"><ele>199.0</ele><time>2026-04-26T12:13:32.267Z</time></trkpt><trkpt lat="40.4544441" lon="19.8486065"><ele>199.0</ele><time>2026-04-26T12:13:33.266Z</time></trkpt><trkpt lat="40.454239" lon="19.8486575"><ele>198.33333333333331</ele><time>2026-04-26T12:13:34.268Z</time></trkpt><trkpt lat="40.4540411" lon="19.8487154"><ele>197.66666666666669</ele><time>2026-04-26T12:13:35.268Z</time></trkpt><trkpt lat="40.4538451" lon="19.8487761"><ele>197.0</ele><time>2026-04-26T12:13:36.267Z</time></trkpt><trkpt lat="40.45365" lon="19.8488136"><ele>196.66666666666669</ele><time>2026-04-26T12:13:37.267Z</time></trkpt><trkpt lat="40.4534459" lon="19.8488309"><ele>196.33333333333331</ele><time>2026-04-26T12:13:38.267Z</time></trkpt><trkpt lat="40.4532372" lon="19.8488173"><ele>196.0</ele><time>2026-04-26T12:13:39.271Z</time></trkpt><trkpt lat="40.4530253" lon="19.8487995"><ele>194.0</ele><time>2026-04-26T12:13:40.264Z</time></trkpt><trkpt lat="40.4527982" lon="19.8487707"><ele>192.0</ele><time>2026-04-26T12:13:41.266Z</time></trkpt><trkpt lat="40.4525689" lon="19.8487452"><ele>192.0</ele><time>2026-04-26T12:13:42.266Z</time></trkpt><trkpt lat="40.4523397" lon="19.8487168"><ele>192.0</ele><time>2026-04-26T12:13:43.268Z</time></trkpt><trkpt lat="40.4521155" lon="19.8486888"><ele>190.0</ele><time>2026-04-26T12:13:44.266Z</time></trkpt><trkpt lat="40.4518938" lon="19.8486636"><ele>188.0</ele><time>2026-04-26T12:13:45.267Z</time></trkpt><trkpt lat="40.4516643" lon="19.8486358"><ele>188.0</ele><time>2026-04-26T12:13:46.268Z</time></trkpt><trkpt lat="40.4514322" lon="19.8486005"><ele>188.0</ele><time>2026-04-26T12:13:47.266Z</time></trkpt><trkpt lat="40.4511984" lon="19.8485609"><ele>189.5</ele><time>2026-04-26T12:13:48.266Z</time></trkpt><trkpt lat="40.4509653" lon="19.8485277"><ele>191.0</ele><time>2026-04-26T12:13:49.267Z</time></trkpt><trkpt lat="40.4507388" lon="19.8485043"><ele>191.0</ele><time>2026-04-26T12:13:50.269Z</time></trkpt><trkpt lat="40.4505101" lon="19.8484869"><ele>191.0</ele><time>2026-04-26T12:13:51.267Z</time></trkpt><trkpt lat="40.450284" lon="19.8484818"><ele>190.5</ele><time>2026-04-26T12:13:52.268Z</time></trkpt><trkpt lat="40.4500596" lon="19.8484938"><ele>190.0</ele><time>2026-04-26T12:13:53.267Z</time></trkpt><trkpt lat="40.4498277" lon="19.8485233"><ele>188.5</ele><time>2026-04-26T12:13:54.266Z</time></trkpt><trkpt lat="40.4495904" lon="19.8485591"><ele>187.0</ele><time>2026-04-26T12:13:55.267Z</time></trkpt><trkpt lat="40.449348" lon="19.8485957"><ele>187.0</ele><time>2026-04-26T12:13:56.267Z</time></trkpt><trkpt lat="40.4490977" lon="19.8486348"><ele>187.0</ele><time>2026-04-26T12:13:57.268Z</time></trkpt><trkpt lat="40.4488429" lon="19.8486723"><ele>186.5</ele><time>2026-04-26T12:13:58.271Z</time></trkpt><trkpt lat="40.4485825" lon="19.8486995"><ele>186.0</ele><time>2026-04-26T12:13:59.267Z</time></trkpt><trkpt lat="40.4483234" lon="19.8487279"><ele>186.0</ele><time>2026-04-26T12:14:00.267Z</time></trkpt><trkpt lat="40.4480685" lon="19.8487417"><ele>186.0</ele><time>2026-04-26T12:14:01.265Z</time></trkpt><trkpt lat="40.4478173" lon="19.8487365"><ele>184.5</ele><time>2026-04-26T12:14:02.266Z</time></trkpt><trkpt lat="40.4475723" lon="19.8487186"><ele>183.0</ele><time>2026-04-26T12:14:03.267Z</time></trkpt><trkpt lat="40.4473272" lon="19.8486932"><ele>182.0</ele><time>2026-04-26T12:14:04.269Z</time></trkpt><trkpt lat="40.4470913" lon="19.8486593"><ele>181.0</ele><time>2026-04-26T12:14:05.265Z</time></trkpt><trkpt lat="40.4468496" lon="19.8486225"><ele>181.0</ele><time>2026-04-26T12:14:06.267Z</time></trkpt><trkpt lat="40.4466142" lon="19.8485961"><ele>181.0</ele><time>2026-04-26T12:14:07.268Z</time></trkpt><trkpt lat="40.4463723" lon="19.8485707"><ele>179.5</ele><time>2026-04-26T12:14:08.267Z</time></trkpt><trkpt lat="40.4461289" lon="19.8485486"><ele>178.0</ele><time>2026-04-26T12:14:09.266Z</time></trkpt><trkpt lat="40.4458807" lon="19.8485379"><ele>178.0</ele><time>2026-04-26T12:14:10.268Z</time></trkpt><trkpt lat="40.4456244" lon="19.8485388"><ele>178.0</ele><time>2026-04-26T12:14:11.267Z</time></trkpt><trkpt lat="40.4453685" lon="19.8485451"><ele>178.0</ele><time>2026-04-26T12:14:12.268Z</time></trkpt><trkpt lat="40.4451126" lon="19.8485582"><ele>178.0</ele><time>2026-04-26T12:14:13.268Z</time></trkpt><trkpt lat="40.4448623" lon="19.8485719"><ele>177.5</ele><time>2026-04-26T12:14:14.266Z</time></trkpt><trkpt lat="40.4446134" lon="19.8485748"><ele>177.0</ele><time>2026-04-26T12:14:15.266Z</time></trkpt><trkpt lat="40.4443737" lon="19.8485782"><ele>177.0</ele><time>2026-04-26T12:14:16.268Z</time></trkpt><trkpt lat="40.4441358" lon="19.8485782"><ele>177.0</ele><time>2026-04-26T12:14:17.267Z</time></trkpt><trkpt lat="40.4439004" lon="19.8485728"><ele>175.5</ele><time>2026-04-26T12:14:18.267Z</time></trkpt><trkpt lat="40.4436656" lon="19.848553"><ele>174.0</ele><time>2026-04-26T12:14:19.267Z</time></trkpt><trkpt lat="40.4434283" lon="19.8485304"><ele>174.0</ele><time>2026-04-26T12:14:20.265Z</time></trkpt><trkpt lat="40.4431905" lon="19.8484991"><ele>174.0</ele><time>2026-04-26T12:14:21.263Z</time></trkpt><trkpt lat="40.4429503" lon="19.8484673"><ele>177.0</ele><time>2026-04-26T12:14:22.265Z</time></trkpt><trkpt lat="40.4427124" lon="19.8484387"><ele>180.0</ele><time>2026-04-26T12:14:23.268Z</time></trkpt><trkpt lat="40.4424694" lon="19.8484169"><ele>180.0</ele><time>2026-04-26T12:14:24.266Z</time></trkpt><trkpt lat="40.4422278" lon="19.848415"><ele>180.0</ele><time>2026-04-26T12:14:25.265Z</time></trkpt><trkpt lat="40.4419894" lon="19.8484227"><ele>179.66666666666666</ele><time>2026-04-26T12:14:26.264Z</time></trkpt><trkpt lat="40.4417616" lon="19.8484436"><ele>179.33333333333331</ele><time>2026-04-26T12:14:27.265Z</time></trkpt><trkpt lat="40.4415449" lon="19.8484724"><ele>179.0</ele><time>2026-04-26T12:14:28.265Z</time></trkpt><trkpt lat="40.4413401" lon="19.8485122"><ele>177.33333333333331</ele><time>2026-04-26T12:14:29.267Z</time></trkpt><trkpt lat="40.4411377" lon="19.8485512"><ele>175.66666666666666</ele><time>2026-04-26T12:14:30.269Z</time></trkpt><trkpt lat="40.4409378" lon="19.8486036"><ele>174.0</ele><time>2026-04-26T12:14:31.266Z</time></trkpt><trkpt lat="40.4407319" lon="19.8486541"><ele>174.0</ele><time>2026-04-26T12:14:32.267Z</time></trkpt><trkpt lat="40.4405293" lon="19.8487183"><ele>174.0</ele><time>2026-04-26T12:14:33.265Z</time></trkpt><trkpt lat="40.4403277" lon="19.8487923"><ele>174.0</ele><time>2026-04-26T12:14:34.269Z</time></trkpt><trkpt lat="40.4401268" lon="19.8488741"><ele>174.0</ele><time>2026-04-26T12:14:35.265Z</time></trkpt><trkpt lat="40.4399285" lon="19.8489644"><ele>174.0</ele><time>2026-04-26T12:14:36.266Z</time></trkpt><trkpt lat="40.4397324" lon="19.8490509"><ele>174.0</ele><time>2026-04-26T12:14:37.268Z</time></trkpt><trkpt lat="40.4395446" lon="19.8491419"><ele>174.0</ele><time>2026-04-26T12:14:38.267Z</time></trkpt><trkpt lat="40.439363" lon="19.8492492"><ele>174.0</ele><time>2026-04-26T12:14:39.27Z</time></trkpt><trkpt lat="40.4391922" lon="19.849374"><ele>174.0</ele><time>2026-04-26T12:14:40.268Z</time></trkpt><trkpt lat="40.4390254" lon="19.8495139"><ele>173.0</ele><time>2026-04-26T12:14:41.268Z</time></trkpt><trkpt lat="40.4388612" lon="19.8496591"><ele>172.0</ele><time>2026-04-26T12:14:42.268Z</time></trkpt><trkpt lat="40.4386936" lon="19.849806"><ele>171.0</ele><time>2026-04-26T12:14:43.264Z</time></trkpt><trkpt lat="40.4385199" lon="19.8499395"><ele>171.0</ele><time>2026-04-26T12:14:44.269Z</time></trkpt><trkpt lat="40.4383345" lon="19.8500629"><ele>171.0</ele><time>2026-04-26T12:14:45.268Z</time></trkpt><trkpt lat="40.4381403" lon="19.8501641"><ele>171.0</ele><time>2026-04-26T12:14:46.268Z</time></trkpt><trkpt lat="40.4379442" lon="19.8502517"><ele>169.33333333333334</ele><time>2026-04-26T12:14:47.267Z</time></trkpt><trkpt lat="40.4377394" lon="19.8503301"><ele>167.66666666666669</ele><time>2026-04-26T12:14:48.268Z</time></trkpt><trkpt lat="40.4375386" lon="19.8504045"><ele>166.0</ele><time>2026-04-26T12:14:49.268Z</time></trkpt><trkpt lat="40.4373383" lon="19.8504761"><ele>166.0</ele><time>2026-04-26T12:14:50.268Z</time></trkpt><trkpt lat="40.4371389" lon="19.8505497"><ele>166.0</ele><time>2026-04-26T12:14:51.268Z</time></trkpt><trkpt lat="40.4369399" lon="19.8506252"><ele>166.0</ele><time>2026-04-26T12:14:52.265Z</time></trkpt><trkpt lat="40.4367425" lon="19.8507012"><ele>166.33333333333334</ele><time>2026-04-26T12:14:53.268Z</time></trkpt><trkpt lat="40.436548" lon="19.8507784"><ele>166.66666666666666</ele><time>2026-04-26T12:14:54.268Z</time></trkpt><trkpt lat="40.4363538" lon="19.850855"><ele>167.0</ele><time>2026-04-26T12:14:55.268Z</time></trkpt><trkpt lat="40.4361615" lon="19.8509289"><ele>166.33333333333331</ele><time>2026-04-26T12:14:56.268Z</time></trkpt><trkpt lat="40.4359713" lon="19.8509999"><ele>165.66666666666666</ele><time>2026-04-26T12:14:57.268Z</time></trkpt><trkpt lat="40.435782" lon="19.8510678"><ele>165.0</ele><time>2026-04-26T12:14:58.266Z</time></trkpt><trkpt lat="40.4356002" lon="19.8511416"><ele>165.0</ele><time>2026-04-26T12:14:59.266Z</time></trkpt><trkpt lat="40.4354191" lon="19.8512046"><ele>165.0</ele><time>2026-04-26T12:15:00.269Z</time></trkpt><trkpt lat="40.4352425" lon="19.8512628"><ele>165.0</ele><time>2026-04-26T12:15:01.267Z</time></trkpt><trkpt lat="40.4350659" lon="19.8513211"><ele>165.0</ele><time>2026-04-26T12:15:02.269Z</time></trkpt><trkpt lat="40.4348915" lon="19.8513775"><ele>165.0</ele><time>2026-04-26T12:15:03.268Z</time></trkpt><trkpt lat="40.4347138" lon="19.8514342"><ele>165.0</ele><time>2026-04-26T12:15:04.269Z</time></trkpt><trkpt lat="40.4345379" lon="19.8514871"><ele>166.66666666666666</ele><time>2026-04-26T12:15:05.268Z</time></trkpt><trkpt lat="40.4343614" lon="19.8515423"><ele>168.33333333333331</ele><time>2026-04-26T12:15:06.266Z</time></trkpt><trkpt lat="40.4341822" lon="19.8515902"><ele>170.0</ele><time>2026-04-26T12:15:07.265Z</time></trkpt><trkpt lat="40.4340035" lon="19.8516326"><ele>170.0</ele><time>2026-04-26T12:15:08.267Z</time></trkpt><trkpt lat="40.433827" lon="19.8516709"><ele>170.0</ele><time>2026-04-26T12:15:09.267Z</time></trkpt><trkpt lat="40.4336512" lon="19.8517103"><ele>170.0</ele><time>2026-04-26T12:15:10.267Z</time></trkpt><trkpt lat="40.4334684" lon="19.8517461"><ele>170.0</ele><time>2026-04-26T12:15:11.267Z</time></trkpt><trkpt lat="40.4332834" lon="19.8517816"><ele>170.0</ele><time>2026-04-26T12:15:12.267Z</time></trkpt><trkpt lat="40.4331038" lon="19.8518196"><ele>170.0</ele><time>2026-04-26T12:15:13.266Z</time></trkpt><trkpt lat="40.4329319" lon="19.8518697"><ele>167.33333333333331</ele><time>2026-04-26T12:15:14.267Z</time></trkpt><trkpt lat="40.4327603" lon="19.8519152"><ele>164.66666666666666</ele><time>2026-04-26T12:15:15.269Z</time></trkpt><trkpt lat="40.4325875" lon="19.8519691"><ele>162.0</ele><time>2026-04-26T12:15:16.269Z</time></trkpt><trkpt lat="40.4324188" lon="19.8520309"><ele>162.0</ele><time>2026-04-26T12:15:17.268Z</time></trkpt><trkpt lat="40.4322537" lon="19.8521008"><ele>162.0</ele><time>2026-04-26T12:15:18.267Z</time></trkpt><trkpt lat="40.4320922" lon="19.8521824"><ele>162.0</ele><time>2026-04-26T12:15:19.267Z</time></trkpt><trkpt lat="40.4319249" lon="19.8522623"><ele>164.0</ele><time>2026-04-26T12:15:20.269Z</time></trkpt><trkpt lat="40.4317699" lon="19.8523445"><ele>166.0</ele><time>2026-04-26T12:15:21.266Z</time></trkpt><trkpt lat="40.4316182" lon="19.8524358"><ele>168.0</ele><time>2026-04-26T12:15:22.269Z</time></trkpt><trkpt lat="40.4314696" lon="19.8525302"><ele>165.0</ele><time>2026-04-26T12:15:23.266Z</time></trkpt><trkpt lat="40.4313282" lon="19.8526262"><ele>162.0</ele><time>2026-04-26T12:15:24.269Z</time></trkpt><trkpt lat="40.4311886" lon="19.8527171"><ele>159.0</ele><time>2026-04-26T12:15:25.263Z</time></trkpt><trkpt lat="40.4310579" lon="19.8527994"><ele>159.0</ele><time>2026-04-26T12:15:26.269Z</time></trkpt><trkpt lat="40.4309222" lon="19.8528865"><ele>159.0</ele><time>2026-04-26T12:15:27.268Z</time></trkpt><trkpt lat="40.4307779" lon="19.8529601"><ele>159.0</ele><time>2026-04-26T12:15:28.267Z</time></trkpt><trkpt lat="40.4306284" lon="19.8530209"><ele>159.0</ele><time>2026-04-26T12:15:29.267Z</time></trkpt><trkpt lat="40.4304619" lon="19.8530549"><ele>159.0</ele><time>2026-04-26T12:15:30.267Z</time></trkpt><trkpt lat="40.4302946" lon="19.8530835"><ele>159.0</ele><time>2026-04-26T12:15:31.267Z</time></trkpt><trkpt lat="40.4301199" lon="19.8531136"><ele>159.0</ele><time>2026-04-26T12:15:32.268Z</time></trkpt><trkpt lat="40.4299449" lon="19.8531408"><ele>159.0</ele><time>2026-04-26T12:15:33.267Z</time></trkpt><trkpt lat="40.4297688" lon="19.8531693"><ele>159.0</ele><time>2026-04-26T12:15:34.265Z</time></trkpt><trkpt lat="40.4295995" lon="19.8531982"><ele>159.0</ele><time>2026-04-26T12:15:35.267Z</time></trkpt><trkpt lat="40.4294384" lon="19.8532156"><ele>159.0</ele><time>2026-04-26T12:15:36.265Z</time></trkpt><trkpt lat="40.4292867" lon="19.8532208"><ele>159.0</ele><time>2026-04-26T12:15:37.269Z</time></trkpt><trkpt lat="40.4291335" lon="19.8531895"><ele>159.0</ele><time>2026-04-26T12:15:38.268Z</time></trkpt><trkpt lat="40.4289832" lon="19.8531344"><ele>159.0</ele><time>2026-04-26T12:15:39.267Z</time></trkpt><trkpt lat="40.4288324" lon="19.8530831"><ele>159.0</ele><time>2026-04-26T12:15:40.266Z</time></trkpt><trkpt lat="40.4286753" lon="19.8530442"><ele>158.33333333333334</ele><time>2026-04-26T12:15:41.268Z</time></trkpt><trkpt lat="40.4285152" lon="19.8530339"><ele>157.66666666666669</ele><time>2026-04-26T12:15:42.267Z</time></trkpt><trkpt lat="40.4283549" lon="19.8530757"><ele>157.0</ele><time>2026-04-26T12:15:43.266Z</time></trkpt><trkpt lat="40.4281951" lon="19.8531444"><ele>157.0</ele><time>2026-04-26T12:15:44.269Z</time></trkpt><trkpt lat="40.4280433" lon="19.8532173"><ele>157.0</ele><time>2026-04-26T12:15:45.267Z</time></trkpt><trkpt lat="40.4278927" lon="19.8532902"><ele>157.0</ele><time>2026-04-26T12:15:46.268Z</time></trkpt><trkpt lat="40.4277447" lon="19.8533634"><ele>156.66666666666669</ele><time>2026-04-26T12:15:47.269Z</time></trkpt><trkpt lat="40.4275954" lon="19.853435"><ele>156.33333333333334</ele><time>2026-04-26T12:15:48.265Z</time></trkpt><trkpt lat="40.4274376" lon="19.8534911"><ele>156.0</ele><time>2026-04-26T12:15:49.266Z</time></trkpt><trkpt lat="40.4272839" lon="19.8535586"><ele>156.33333333333334</ele><time>2026-04-26T12:15:50.265Z</time></trkpt><trkpt lat="40.427126" lon="19.8536289"><ele>156.66666666666669</ele><time>2026-04-26T12:15:51.266Z</time></trkpt><trkpt lat="40.4269607" lon="19.8537058"><ele>157.0</ele><time>2026-04-26T12:15:52.266Z</time></trkpt><trkpt lat="40.426797" lon="19.8537884"><ele>157.0</ele><time>2026-04-26T12:15:53.267Z</time></trkpt><trkpt lat="40.4266282" lon="19.853876"><ele>157.0</ele><time>2026-04-26T12:15:54.266Z</time></trkpt><trkpt lat="40.4264594" lon="19.8539626"><ele>157.0</ele><time>2026-04-26T12:15:55.266Z</time></trkpt><trkpt lat="40.4262873" lon="19.854047"><ele>158.33333333333334</ele><time>2026-04-26T12:15:56.267Z</time></trkpt><trkpt lat="40.4261117" lon="19.8541303"><ele>159.66666666666666</ele><time>2026-04-26T12:15:57.266Z</time></trkpt><trkpt lat="40.425937" lon="19.8542149"><ele>161.0</ele><time>2026-04-26T12:15:58.268Z</time></trkpt><trkpt lat="40.4257606" lon="19.8543002"><ele>161.0</ele><time>2026-04-26T12:15:59.268Z</time></trkpt><trkpt lat="40.4255824" lon="19.8543893"><ele>161.0</ele><time>2026-04-26T12:16:00.269Z</time></trkpt><trkpt lat="40.4254056" lon="19.854475"><ele>161.0</ele><time>2026-04-26T12:16:01.267Z</time></trkpt><trkpt lat="40.4252343" lon="19.8545587"><ele>157.33333333333331</ele><time>2026-04-26T12:16:02.265Z</time></trkpt><trkpt lat="40.425068" lon="19.8546462"><ele>153.66666666666666</ele><time>2026-04-26T12:16:03.268Z</time></trkpt><trkpt lat="40.4249013" lon="19.8547333"><ele>150.0</ele><time>2026-04-26T12:16:04.267Z</time></trkpt><trkpt lat="40.4247401" lon="19.8548315"><ele>148.66666666666666</ele><time>2026-04-26T12:16:05.264Z</time></trkpt><trkpt lat="40.4245852" lon="19.854942"><ele>147.33333333333331</ele><time>2026-04-26T12:16:06.266Z</time></trkpt><trkpt lat="40.4244338" lon="19.8550714"><ele>146.0</ele><time>2026-04-26T12:16:07.269Z</time></trkpt><trkpt lat="40.4242876" lon="19.8552166"><ele>146.0</ele><time>2026-04-26T12:16:08.267Z</time></trkpt><trkpt lat="40.4241453" lon="19.855383"><ele>146.0</ele><time>2026-04-26T12:16:09.267Z</time></trkpt><trkpt lat="40.4240092" lon="19.855568"><ele>146.0</ele><time>2026-04-26T12:16:10.267Z</time></trkpt><trkpt lat="40.4238803" lon="19.8557699"><ele>144.0</ele><time>2026-04-26T12:16:11.267Z</time></trkpt><trkpt lat="40.4237588" lon="19.8559819"><ele>142.0</ele><time>2026-04-26T12:16:12.267Z</time></trkpt><trkpt lat="40.423636" lon="19.8561905"><ele>140.0</ele><time>2026-04-26T12:16:13.266Z</time></trkpt><trkpt lat="40.4235099" lon="19.8563941"><ele>140.0</ele><time>2026-04-26T12:16:14.27Z</time></trkpt><trkpt lat="40.4233757" lon="19.8565829"><ele>140.0</ele><time>2026-04-26T12:16:15.267Z</time></trkpt><trkpt lat="40.4232296" lon="19.8567558"><ele>140.0</ele><time>2026-04-26T12:16:16.266Z</time></trkpt><trkpt lat="40.4230685" lon="19.8569169"><ele>139.33333333333331</ele><time>2026-04-26T12:16:17.267Z</time></trkpt><trkpt lat="40.4228964" lon="19.8570629"><ele>138.66666666666666</ele><time>2026-04-26T12:16:18.268Z</time></trkpt><trkpt lat="40.4227126" lon="19.8571875"><ele>138.0</ele><time>2026-04-26T12:16:19.267Z</time></trkpt><trkpt lat="40.4225124" lon="19.8572954"><ele>138.0</ele><time>2026-04-26T12:16:20.265Z</time></trkpt><trkpt lat="40.4223036" lon="19.8573829"><ele>138.0</ele><time>2026-04-26T12:16:21.268Z</time></trkpt><trkpt lat="40.4220941" lon="19.857448"><ele>138.0</ele><time>2026-04-26T12:16:22.265Z</time></trkpt><trkpt lat="40.4218855" lon="19.8575097"><ele>137.66666666666666</ele><time>2026-04-26T12:16:23.266Z</time></trkpt><trkpt lat="40.4216688" lon="19.8575669"><ele>137.33333333333331</ele><time>2026-04-26T12:16:24.266Z</time></trkpt><trkpt lat="40.421453" lon="19.8576244"><ele>137.0</ele><time>2026-04-26T12:16:25.265Z</time></trkpt><trkpt lat="40.4212421" lon="19.857685"><ele>137.0</ele><time>2026-04-26T12:16:26.267Z</time></trkpt><trkpt lat="40.4210401" lon="19.8577395"><ele>137.0</ele><time>2026-04-26T12:16:27.267Z</time></trkpt><trkpt lat="40.420842" lon="19.8577754"><ele>137.0</ele><time>2026-04-26T12:16:28.268Z</time></trkpt><trkpt lat="40.420648" lon="19.8577879"><ele>137.33333333333331</ele><time>2026-04-26T12:16:29.266Z</time></trkpt><trkpt lat="40.420465" lon="19.8577976"><ele>137.66666666666666</ele><time>2026-04-26T12:16:30.267Z</time></trkpt><trkpt lat="40.4202901" lon="19.8577852"><ele>138.0</ele><time>2026-04-26T12:16:31.267Z</time></trkpt><trkpt lat="40.4201232" lon="19.8577595"><ele>138.0</ele><time>2026-04-26T12:16:32.264Z</time></trkpt><trkpt lat="40.4199452" lon="19.8577264"><ele>138.0</ele><time>2026-04-26T12:16:33.265Z</time></trkpt><trkpt lat="40.4197482" lon="19.8576781"><ele>138.0</ele><time>2026-04-26T12:16:34.267Z</time></trkpt><trkpt lat="40.4195256" lon="19.8576235"><ele>137.0</ele><time>2026-04-26T12:16:35.267Z</time></trkpt><trkpt lat="40.4192884" lon="19.8575656"><ele>136.0</ele><time>2026-04-26T12:16:36.27Z</time></trkpt><trkpt lat="40.4190076" lon="19.8575113"><ele>137.0</ele><time>2026-04-26T12:16:37.27Z</time></trkpt><trkpt lat="40.4187216" lon="19.8574417"><ele>138.0</ele><time>2026-04-26T12:16:38.266Z</time></trkpt><trkpt lat="40.4184617" lon="19.8573724"><ele>138.0</ele><time>2026-04-26T12:16:39.268Z</time></trkpt><trkpt lat="40.4182153" lon="19.8573266"><ele>138.0</ele><time>2026-04-26T12:16:40.269Z</time></trkpt><trkpt lat="40.4179745" lon="19.857295"><ele>136.0</ele><time>2026-04-26T12:16:41.266Z</time></trkpt><trkpt lat="40.4177451" lon="19.8572933"><ele>134.0</ele><time>2026-04-26T12:16:42.267Z</time></trkpt><trkpt lat="40.4175189" lon="19.8573093"><ele>134.0</ele><time>2026-04-26T12:16:43.264Z</time></trkpt><trkpt lat="40.4172914" lon="19.8573329"><ele>134.0</ele><time>2026-04-26T12:16:44.265Z</time></trkpt><trkpt lat="40.4170633" lon="19.8573755"><ele>131.0</ele><time>2026-04-26T12:16:45.265Z</time></trkpt><trkpt lat="40.4168386" lon="19.8574381"><ele>128.0</ele><time>2026-04-26T12:16:46.267Z</time></trkpt><trkpt lat="40.4166095" lon="19.8575083"><ele>128.0</ele><time>2026-04-26T12:16:47.267Z</time></trkpt><trkpt lat="40.4163803" lon="19.8576113"><ele>128.0</ele><time>2026-04-26T12:16:48.267Z</time></trkpt><trkpt lat="40.4161503" lon="19.8577374"><ele>128.5</ele><time>2026-04-26T12:16:49.264Z</time></trkpt><trkpt lat="40.4159228" lon="19.8578842"><ele>129.0</ele><time>2026-04-26T12:16:50.265Z</time></trkpt><trkpt lat="40.4157006" lon="19.8580478"><ele>129.0</ele><time>2026-04-26T12:16:51.265Z</time></trkpt><trkpt lat="40.4154881" lon="19.8582201"><ele>129.0</ele><time>2026-04-26T12:16:52.266Z</time></trkpt><trkpt lat="40.4152844" lon="19.8583887"><ele>128.0</ele><time>2026-04-26T12:16:53.264Z</time></trkpt><trkpt lat="40.4150861" lon="19.8585556"><ele>127.0</ele><time>2026-04-26T12:16:54.267Z</time></trkpt><trkpt lat="40.4148937" lon="19.8587217"><ele>127.0</ele><time>2026-04-26T12:16:55.266Z</time></trkpt><trkpt lat="40.4147037" lon="19.858885"><ele>127.0</ele><time>2026-04-26T12:16:56.266Z</time></trkpt><trkpt lat="40.4145118" lon="19.8590364"><ele>126.66666666666667</ele><time>2026-04-26T12:16:57.268Z</time></trkpt><trkpt lat="40.4143224" lon="19.8591816"><ele>126.33333333333334</ele><time>2026-04-26T12:16:58.265Z</time></trkpt><trkpt lat="40.4141398" lon="19.8593353"><ele>126.0</ele><time>2026-04-26T12:16:59.266Z</time></trkpt><trkpt lat="40.4139552" lon="19.8594852"><ele>126.66666666666666</ele><time>2026-04-26T12:17:00.265Z</time></trkpt><trkpt lat="40.4137645" lon="19.8596152"><ele>127.33333333333333</ele><time>2026-04-26T12:17:01.265Z</time></trkpt><trkpt lat="40.413567" lon="19.8597262"><ele>128.0</ele><time>2026-04-26T12:17:02.268Z</time></trkpt><trkpt lat="40.4133633" lon="19.8598176"><ele>128.0</ele><time>2026-04-26T12:17:03.266Z</time></trkpt><trkpt lat="40.4131546" lon="19.8598892"><ele>128.0</ele><time>2026-04-26T12:17:04.265Z</time></trkpt><trkpt lat="40.4129384" lon="19.8599387"><ele>128.0</ele><time>2026-04-26T12:17:05.267Z</time></trkpt><trkpt lat="40.4127232" lon="19.8599692"><ele>127.66666666666666</ele><time>2026-04-26T12:17:06.263Z</time></trkpt><trkpt lat="40.4125071" lon="19.859976"><ele>127.33333333333334</ele><time>2026-04-26T12:17:07.266Z</time></trkpt><trkpt lat="40.4122971" lon="19.8599648"><ele>127.0</ele><time>2026-04-26T12:17:08.267Z</time></trkpt><trkpt lat="40.4120923" lon="19.8599283"><ele>126.66666666666667</ele><time>2026-04-26T12:17:09.265Z</time></trkpt><trkpt lat="40.411899" lon="19.8598718"><ele>126.33333333333334</ele><time>2026-04-26T12:17:10.267Z</time></trkpt><trkpt lat="40.4117044" lon="19.8598011"><ele>126.0</ele><time>2026-04-26T12:17:11.265Z</time></trkpt><trkpt lat="40.4115098" lon="19.8597312"><ele>125.66666666666666</ele><time>2026-04-26T12:17:12.266Z</time></trkpt><trkpt lat="40.4113101" lon="19.8596648"><ele>125.33333333333333</ele><time>2026-04-26T12:17:13.264Z</time></trkpt><trkpt lat="40.4111051" lon="19.8596007"><ele>125.0</ele><time>2026-04-26T12:17:14.268Z</time></trkpt><trkpt lat="40.4108986" lon="19.8595516"><ele>125.0</ele><time>2026-04-26T12:17:15.266Z</time></trkpt><trkpt lat="40.4106907" lon="19.859523"><ele>125.0</ele><time>2026-04-26T12:17:16.263Z</time></trkpt><trkpt lat="40.4104889" lon="19.8595176"><ele>125.0</ele><time>2026-04-26T12:17:17.266Z</time></trkpt><trkpt lat="40.4102891" lon="19.8595299"><ele>124.0</ele><time>2026-04-26T12:17:18.267Z</time></trkpt><trkpt lat="40.4100911" lon="19.8595569"><ele>123.0</ele><time>2026-04-26T12:17:19.267Z</time></trkpt><trkpt lat="40.4098872" lon="19.8595894"><ele>122.0</ele><time>2026-04-26T12:17:20.266Z</time></trkpt><trkpt lat="40.4096822" lon="19.8596526"><ele>121.33333333333333</ele><time>2026-04-26T12:17:21.267Z</time></trkpt><trkpt lat="40.4094737" lon="19.8597234"><ele>120.66666666666666</ele><time>2026-04-26T12:17:22.264Z</time></trkpt><trkpt lat="40.4092639" lon="19.8598011"><ele>120.0</ele><time>2026-04-26T12:17:23.267Z</time></trkpt><trkpt lat="40.4090619" lon="19.8598759"><ele>120.0</ele><time>2026-04-26T12:17:24.267Z</time></trkpt><trkpt lat="40.4088659" lon="19.8599467"><ele>120.0</ele><time>2026-04-26T12:17:25.267Z</time></trkpt><trkpt lat="40.4086765" lon="19.8600148"><ele>120.0</ele><time>2026-04-26T12:17:26.266Z</time></trkpt><trkpt lat="40.4084893" lon="19.8600844"><ele>120.33333333333334</ele><time>2026-04-26T12:17:27.262Z</time></trkpt><trkpt lat="40.4083038" lon="19.860147"><ele>120.66666666666667</ele><time>2026-04-26T12:17:28.269Z</time></trkpt><trkpt lat="40.4081248" lon="19.8602052"><ele>121.0</ele><time>2026-04-26T12:17:29.264Z</time></trkpt><trkpt lat="40.4079359" lon="19.8602496"><ele>121.0</ele><time>2026-04-26T12:17:30.264Z</time></trkpt><trkpt lat="40.4077542" lon="19.8603005"><ele>121.0</ele><time>2026-04-26T12:17:31.264Z</time></trkpt><trkpt lat="40.4075729" lon="19.8603414"><ele>121.0</ele><time>2026-04-26T12:17:32.266Z</time></trkpt><trkpt lat="40.407401" lon="19.8603766"><ele>121.0</ele><time>2026-04-26T12:17:33.265Z</time></trkpt><trkpt lat="40.4072241" lon="19.8604078"><ele>121.0</ele><time>2026-04-26T12:17:34.264Z</time></trkpt><trkpt lat="40.4070413" lon="19.8604411"><ele>121.0</ele><time>2026-04-26T12:17:35.267Z</time></trkpt><trkpt lat="40.406857" lon="19.8604761"><ele>121.0</ele><time>2026-04-26T12:17:36.264Z</time></trkpt><trkpt lat="40.4066734" lon="19.8605109"><ele>121.0</ele><time>2026-04-26T12:17:37.267Z</time></trkpt><trkpt lat="40.4064955" lon="19.8605416"><ele>121.0</ele><time>2026-04-26T12:17:38.267Z</time></trkpt><trkpt lat="40.4063177" lon="19.8605756"><ele>120.0</ele><time>2026-04-26T12:17:39.266Z</time></trkpt><trkpt lat="40.4061458" lon="19.8606117"><ele>119.0</ele><time>2026-04-26T12:17:40.265Z</time></trkpt><trkpt lat="40.4059796" lon="19.860655"><ele>118.0</ele><time>2026-04-26T12:17:41.267Z</time></trkpt><trkpt lat="40.4058112" lon="19.8607027"><ele>118.0</ele><time>2026-04-26T12:17:42.268Z</time></trkpt><trkpt lat="40.4056406" lon="19.8607664"><ele>118.0</ele><time>2026-04-26T12:17:43.264Z</time></trkpt><trkpt lat="40.4054693" lon="19.8608658"><ele>118.0</ele><time>2026-04-26T12:17:44.266Z</time></trkpt><trkpt lat="40.4052963" lon="19.8609878"><ele>119.66666666666667</ele><time>2026-04-26T12:17:45.266Z</time></trkpt><trkpt lat="40.4051224" lon="19.8611339"><ele>121.33333333333334</ele><time>2026-04-26T12:17:46.266Z</time></trkpt><trkpt lat="40.4049501" lon="19.8612964"><ele>123.0</ele><time>2026-04-26T12:17:47.266Z</time></trkpt><trkpt lat="40.4047828" lon="19.8614601"><ele>125.0</ele><time>2026-04-26T12:17:48.268Z</time></trkpt><trkpt lat="40.4046216" lon="19.8616331"><ele>127.0</ele><time>2026-04-26T12:17:49.267Z</time></trkpt><trkpt lat="40.4044592" lon="19.8617928"><ele>129.0</ele><time>2026-04-26T12:17:50.267Z</time></trkpt><trkpt lat="40.404294" lon="19.86196"><ele>129.0</ele><time>2026-04-26T12:17:51.267Z</time></trkpt><trkpt lat="40.4041085" lon="19.8621473"><ele>129.0</ele><time>2026-04-26T12:17:52.263Z</time></trkpt><trkpt lat="40.4039107" lon="19.8623487"><ele>125.5</ele><time>2026-04-26T12:17:53.266Z</time></trkpt><trkpt lat="40.4037019" lon="19.8625563"><ele>122.0</ele><time>2026-04-26T12:17:54.267Z</time></trkpt><trkpt lat="40.403497" lon="19.8627535"><ele>129.5</ele><time>2026-04-26T12:17:55.266Z</time></trkpt><trkpt lat="40.4032896" lon="19.8629327"><ele>137.0</ele><time>2026-04-26T12:17:56.267Z</time></trkpt><trkpt lat="40.4030715" lon="19.8630841"><ele>139.0</ele><time>2026-04-26T12:17:57.266Z</time></trkpt><trkpt lat="40.4028246" lon="19.863224"><ele>141.0</ele><time>2026-04-26T12:17:58.266Z</time></trkpt><trkpt lat="40.4025528" lon="19.8633358"><ele>141.0</ele><time>2026-04-26T12:17:59.267Z</time></trkpt><trkpt lat="40.4022749" lon="19.8634314"><ele>141.0</ele><time>2026-04-26T12:18:00.268Z</time></trkpt><trkpt lat="40.4019687" lon="19.8634946"><ele>142.0</ele><time>2026-04-26T12:18:01.267Z</time></trkpt><trkpt lat="40.4016547" lon="19.8635556"><ele>143.0</ele><time>2026-04-26T12:18:02.265Z</time></trkpt><trkpt lat="40.4013144" lon="19.8636172"><ele>148.0</ele><time>2026-04-26T12:18:03.265Z</time></trkpt><trkpt lat="40.4009813" lon="19.8636616"><ele>153.0</ele><time>2026-04-26T12:18:04.267Z</time></trkpt><trkpt lat="40.4006693" lon="19.8636947"><ele>154.5</ele><time>2026-04-26T12:18:05.266Z</time></trkpt><trkpt lat="40.4003816" lon="19.8637357"><ele>156.0</ele><time>2026-04-26T12:18:06.268Z</time></trkpt><trkpt lat="40.4001217" lon="19.8637886"><ele>156.0</ele><time>2026-04-26T12:18:07.267Z</time></trkpt><trkpt lat="40.3998726" lon="19.8638747"><ele>156.0</ele><time>2026-04-26T12:18:08.268Z</time></trkpt><trkpt lat="40.3996355" lon="19.8639975"><ele>151.5</ele><time>2026-04-26T12:18:09.266Z</time></trkpt><trkpt lat="40.3994111" lon="19.8641595"><ele>147.0</ele><time>2026-04-26T12:18:10.267Z</time></trkpt><trkpt lat="40.3992028" lon="19.8643493"><ele>157.0</ele><time>2026-04-26T12:18:11.263Z</time></trkpt><trkpt lat="40.3990115" lon="19.8645724"><ele>167.0</ele><time>2026-04-26T12:18:12.266Z</time></trkpt><trkpt lat="40.3988427" lon="19.8648206"><ele>162.5</ele><time>2026-04-26T12:18:13.265Z</time></trkpt><trkpt lat="40.3987029" lon="19.8650845"><ele>158.0</ele><time>2026-04-26T12:18:14.265Z</time></trkpt><trkpt lat="40.3985874" lon="19.8653603"><ele>158.0</ele><time>2026-04-26T12:18:15.263Z</time></trkpt><trkpt lat="40.3984884" lon="19.8656595"><ele>158.0</ele><time>2026-04-26T12:18:16.266Z</time></trkpt><trkpt lat="40.398411" lon="19.8659723"><ele>163.0</ele><time>2026-04-26T12:18:17.267Z</time></trkpt><trkpt lat="40.3983549" lon="19.8662818"><ele>168.0</ele><time>2026-04-26T12:18:18.264Z</time></trkpt><trkpt lat="40.3983156" lon="19.8665872"><ele>172.5</ele><time>2026-04-26T12:18:19.266Z</time></trkpt><trkpt lat="40.3982794" lon="19.8668918"><ele>177.0</ele><time>2026-04-26T12:18:20.265Z</time></trkpt><trkpt lat="40.3982368" lon="19.8671881"><ele>177.0</ele><time>2026-04-26T12:18:21.268Z</time></trkpt><trkpt lat="40.398174" lon="19.8674741"><ele>177.0</ele><time>2026-04-26T12:18:22.266Z</time></trkpt><trkpt lat="40.3980872" lon="19.8677598"><ele>170.5</ele><time>2026-04-26T12:18:23.267Z</time></trkpt><trkpt lat="40.3979755" lon="19.8680352"><ele>164.0</ele><time>2026-04-26T12:18:24.263Z</time></trkpt><trkpt lat="40.3978389" lon="19.8683017"><ele>157.5</ele><time>2026-04-26T12:18:25.268Z</time></trkpt><trkpt lat="40.3976902" lon="19.8685637"><ele>151.0</ele><time>2026-04-26T12:18:26.263Z</time></trkpt><trkpt lat="40.3975294" lon="19.8688234"><ele>151.0</ele><time>2026-04-26T12:18:27.266Z</time></trkpt><trkpt lat="40.3973662" lon="19.8690837"><ele>151.0</ele><time>2026-04-26T12:18:28.266Z</time></trkpt><trkpt lat="40.3972087" lon="19.8693373"><ele>145.5</ele><time>2026-04-26T12:18:29.265Z</time></trkpt><trkpt lat="40.3970592" lon="19.8695858"><ele>140.0</ele><time>2026-04-26T12:18:30.267Z</time></trkpt><trkpt lat="40.396908" lon="19.869834"><ele>140.0</ele><time>2026-04-26T12:18:31.268Z</time></trkpt><trkpt lat="40.3967633" lon="19.8700856"><ele>140.0</ele><time>2026-04-26T12:18:32.265Z</time></trkpt><trkpt lat="40.3966166" lon="19.870326"><ele>139.66666666666666</ele><time>2026-04-26T12:18:33.265Z</time></trkpt><trkpt lat="40.39647" lon="19.8705447"><ele>139.33333333333334</ele><time>2026-04-26T12:18:34.266Z</time></trkpt><trkpt lat="40.3963292" lon="19.8707583"><ele>139.0</ele><time>2026-04-26T12:18:35.264Z</time></trkpt><trkpt lat="40.3961818" lon="19.8709409"><ele>139.0</ele><time>2026-04-26T12:18:36.263Z</time></trkpt><trkpt lat="40.3960334" lon="19.8710977"><ele>139.0</ele><time>2026-04-26T12:18:37.267Z</time></trkpt><trkpt lat="40.3958786" lon="19.8712296"><ele>139.0</ele><time>2026-04-26T12:18:38.266Z</time></trkpt><trkpt lat="40.3957192" lon="19.8713475"><ele>139.0</ele><time>2026-04-26T12:18:39.266Z</time></trkpt><trkpt lat="40.3955552" lon="19.8714487"><ele>139.0</ele><time>2026-04-26T12:18:40.266Z</time></trkpt><trkpt lat="40.3953883" lon="19.8715384"><ele>139.0</ele><time>2026-04-26T12:18:41.264Z</time></trkpt><trkpt lat="40.3952265" lon="19.8716106"><ele>136.0</ele><time>2026-04-26T12:18:42.267Z</time></trkpt><trkpt lat="40.3950623" lon="19.8716747"><ele>133.0</ele><time>2026-04-26T12:18:43.265Z</time></trkpt><trkpt lat="40.3949017" lon="19.871745"><ele>130.0</ele><time>2026-04-26T12:18:44.267Z</time></trkpt><trkpt lat="40.3947493" lon="19.8718227"><ele>130.5</ele><time>2026-04-26T12:18:45.264Z</time></trkpt><trkpt lat="40.3946131" lon="19.8719"><ele>131.0</ele><time>2026-04-26T12:18:46.266Z</time></trkpt><trkpt lat="40.3944966" lon="19.8719751"><ele>131.5</ele><time>2026-04-26T12:18:47.267Z</time></trkpt><trkpt lat="40.394403" lon="19.8720381"><ele>132.0</ele><time>2026-04-26T12:18:48.266Z</time></trkpt><trkpt lat="40.3943206" lon="19.8721029"><ele>132.0</ele><time>2026-04-26T12:18:49.265Z</time></trkpt><trkpt lat="40.3942349" lon="19.8721789"><ele>132.0</ele><time>2026-04-26T12:18:50.264Z</time></trkpt><trkpt lat="40.3941442" lon="19.8722764"><ele>132.0</ele><time>2026-04-26T12:18:51.267Z</time></trkpt><trkpt lat="40.3940469" lon="19.8723971"><ele>132.0</ele><time>2026-04-26T12:18:52.267Z</time></trkpt><trkpt lat="40.3939445" lon="19.872532"><ele>126.66666666666666</ele><time>2026-04-26T12:18:53.265Z</time></trkpt><trkpt lat="40.3938376" lon="19.8726756"><ele>121.33333333333333</ele><time>2026-04-26T12:18:54.266Z</time></trkpt><trkpt lat="40.3937364" lon="19.8728265"><ele>116.0</ele><time>2026-04-26T12:18:55.267Z</time></trkpt><trkpt lat="40.3936381" lon="19.8729858"><ele>116.0</ele><time>2026-04-26T12:18:56.268Z</time></trkpt><trkpt lat="40.3935405" lon="19.8731561"><ele>116.0</ele><time>2026-04-26T12:18:57.266Z</time></trkpt><trkpt lat="40.3934436" lon="19.873325"><ele>116.0</ele><time>2026-04-26T12:18:58.266Z</time></trkpt><trkpt lat="40.3933514" lon="19.873482"><ele>115.8</ele><time>2026-04-26T12:18:59.266Z</time></trkpt><trkpt lat="40.3932708" lon="19.8736175"><ele>115.6</ele><time>2026-04-26T12:19:00.264Z</time></trkpt><trkpt lat="40.3932088" lon="19.8737173"><ele>115.4</ele><time>2026-04-26T12:19:01.265Z</time></trkpt><trkpt lat="40.3931605" lon="19.8737897"><ele>115.2</ele><time>2026-04-26T12:19:02.267Z</time></trkpt><trkpt lat="40.3930511" lon="19.8738768"><ele>115.0</ele><time>2026-04-26T12:19:04.268Z</time></trkpt><trkpt lat="40.3929461" lon="19.8739425"><ele>115.0</ele><time>2026-04-26T12:19:06.267Z</time></trkpt><trkpt lat="40.3928893" lon="19.8739892"><ele>115.0</ele><time>2026-04-26T12:19:24.267Z</time></trkpt><trkpt lat="40.3928239" lon="19.8740577"><ele>115.0</ele><time>2026-04-26T12:30:56.262Z</time></trkpt><trkpt lat="40.3927734" lon="19.8741545"><ele>115.0</ele><time>2026-04-26T12:30:58.263Z</time></trkpt><trkpt lat="40.3926921" lon="19.8742934"><ele>115.0</ele><time>2026-04-26T12:31:00.263Z</time></trkpt><trkpt lat="40.3926388" lon="19.87438"><ele>115.00000000000001</ele><time>2026-04-26T12:31:01.263Z</time></trkpt><trkpt lat="40.3925909" lon="19.8744558"><ele>115.0</ele><time>2026-04-26T12:31:02.263Z</time></trkpt><trkpt lat="40.3925396" lon="19.8745366"><ele>115.0</ele><time>2026-04-26T12:31:03.263Z</time></trkpt><trkpt lat="40.3924843" lon="19.8746208"><ele>115.0</ele><time>2026-04-26T12:31:04.263Z</time></trkpt><trkpt lat="40.3924279" lon="19.8747104"><ele>115.00000000000001</ele><time>2026-04-26T12:31:05.262Z</time></trkpt><trkpt lat="40.3923701" lon="19.874799"><ele>115.0</ele><time>2026-04-26T12:31:06.263Z</time></trkpt><trkpt lat="40.392312" lon="19.8748865"><ele>115.00000000000001</ele><time>2026-04-26T12:31:07.263Z</time></trkpt><trkpt lat="40.3922574" lon="19.8749791"><ele>115.0</ele><time>2026-04-26T12:31:08.263Z</time></trkpt><trkpt lat="40.392209" lon="19.8750621"><ele>115.0</ele><time>2026-04-26T12:31:09.262Z</time></trkpt><trkpt lat="40.3921453" lon="19.8751736"><ele>115.0</ele><time>2026-04-26T12:31:11.262Z</time></trkpt><trkpt lat="40.392103" lon="19.8752495"><ele>115.00000000000001</ele><time>2026-04-26T12:31:14.262Z</time></trkpt><trkpt lat="40.3920782" lon="19.8753335"><ele>115.0</ele><time>2026-04-26T12:31:16.262Z</time></trkpt><trkpt lat="40.3920099" lon="19.8754595"><ele>114.16666666666667</ele><time>2026-04-26T12:31:18.262Z</time></trkpt><trkpt lat="40.3919576" lon="19.8755307"><ele>113.33333333333334</ele><time>2026-04-26T12:31:19.263Z</time></trkpt><trkpt lat="40.391901" lon="19.8756009"><ele>112.5</ele><time>2026-04-26T12:31:20.262Z</time></trkpt><trkpt lat="40.3918509" lon="19.8756638"><ele>111.66666666666666</ele><time>2026-04-26T12:31:21.263Z</time></trkpt><trkpt lat="40.3918053" lon="19.8757243"><ele>110.83333333333333</ele><time>2026-04-26T12:31:22.262Z</time></trkpt><trkpt lat="40.3917159" lon="19.8758375"><ele>110.0</ele><time>2026-04-26T12:31:24.262Z</time></trkpt><trkpt lat="40.3916467" lon="19.8759258"><ele>108.4</ele><time>2026-04-26T12:31:26.263Z</time></trkpt><trkpt lat="40.3915655" lon="19.8760368"><ele>106.8</ele><time>2026-04-26T12:31:35.263Z</time></trkpt><trkpt lat="40.3915081" lon="19.8761244"><ele>105.19999999999999</ele><time>2026-04-26T12:31:36.262Z</time></trkpt><trkpt lat="40.3914389" lon="19.8762313"><ele>103.6</ele><time>2026-04-26T12:31:37.263Z</time></trkpt><trkpt lat="40.3913564" lon="19.8763595"><ele>102.0</ele><time>2026-04-26T12:31:38.263Z</time></trkpt><trkpt lat="40.3912701" lon="19.8765028"><ele>102.0</ele><time>2026-04-26T12:31:39.263Z</time></trkpt><trkpt lat="40.3911673" lon="19.876659"><ele>102.0</ele><time>2026-04-26T12:31:40.262Z</time></trkpt><trkpt lat="40.391063" lon="19.8768216"><ele>102.0</ele><time>2026-04-26T12:31:41.263Z</time></trkpt><trkpt lat="40.3909527" lon="19.8769931"><ele>105.0</ele><time>2026-04-26T12:31:42.262Z</time></trkpt><trkpt lat="40.3908378" lon="19.8771795"><ele>108.0</ele><time>2026-04-26T12:31:43.262Z</time></trkpt><trkpt lat="40.3907224" lon="19.8773702"><ele>111.0</ele><time>2026-04-26T12:31:44.263Z</time></trkpt><trkpt lat="40.3906065" lon="19.8775576"><ele>109.33333333333334</ele><time>2026-04-26T12:31:45.263Z</time></trkpt><trkpt lat="40.3904924" lon="19.8777384"><ele>107.66666666666667</ele><time>2026-04-26T12:31:46.262Z</time></trkpt><trkpt lat="40.3903788" lon="19.8779175"><ele>106.0</ele><time>2026-04-26T12:31:47.263Z</time></trkpt><trkpt lat="40.3902622" lon="19.8780977"><ele>106.0</ele><time>2026-04-26T12:31:48.263Z</time></trkpt><trkpt lat="40.3901467" lon="19.8782815"><ele>106.0</ele><time>2026-04-26T12:31:49.262Z</time></trkpt><trkpt lat="40.390034" lon="19.8784636"><ele>106.0</ele><time>2026-04-26T12:31:50.262Z</time></trkpt><trkpt lat="40.3899211" lon="19.8786443"><ele>105.33333333333334</ele><time>2026-04-26T12:31:51.263Z</time></trkpt><trkpt lat="40.3898084" lon="19.8788238"><ele>104.66666666666666</ele><time>2026-04-26T12:31:52.262Z</time></trkpt><trkpt lat="40.389698" lon="19.8790033"><ele>104.0</ele><time>2026-04-26T12:31:53.262Z</time></trkpt><trkpt lat="40.389588" lon="19.8791834"><ele>104.66666666666666</ele><time>2026-04-26T12:31:54.262Z</time></trkpt><trkpt lat="40.3894764" lon="19.8793617"><ele>105.33333333333334</ele><time>2026-04-26T12:31:55.263Z</time></trkpt><trkpt lat="40.389364" lon="19.8795443"><ele>106.0</ele><time>2026-04-26T12:31:56.263Z</time></trkpt><trkpt lat="40.3892502" lon="19.8797174"><ele>106.0</ele><time>2026-04-26T12:31:57.262Z</time></trkpt><trkpt lat="40.389134" lon="19.8798892"><ele>106.0</ele><time>2026-04-26T12:31:58.263Z</time></trkpt><trkpt lat="40.3890177" lon="19.8800592"><ele>106.0</ele><time>2026-04-26T12:31:59.263Z</time></trkpt><trkpt lat="40.3888967" lon="19.8802228"><ele>105.66666666666667</ele><time>2026-04-26T12:32:00.263Z</time></trkpt><trkpt lat="40.3887774" lon="19.8803872"><ele>105.33333333333334</ele><time>2026-04-26T12:32:01.262Z</time></trkpt><trkpt lat="40.3886617" lon="19.8805465"><ele>105.0</ele><time>2026-04-26T12:32:02.263Z</time></trkpt><trkpt lat="40.3885543" lon="19.8807004"><ele>105.0</ele><time>2026-04-26T12:32:03.263Z</time></trkpt><trkpt lat="40.3884555" lon="19.8808515"><ele>105.0</ele><time>2026-04-26T12:32:04.263Z</time></trkpt><trkpt lat="40.3883602" lon="19.8809917"><ele>105.0</ele><time>2026-04-26T12:32:05.263Z</time></trkpt><trkpt lat="40.3882636" lon="19.8811359"><ele>105.0</ele><time>2026-04-26T12:32:06.263Z</time></trkpt><trkpt lat="40.3881652" lon="19.8812929"><ele>106.0</ele><time>2026-04-26T12:32:07.263Z</time></trkpt><trkpt lat="40.388072" lon="19.8814562"><ele>107.0</ele><time>2026-04-26T12:32:08.262Z</time></trkpt><trkpt lat="40.3879804" lon="19.8816161"><ele>108.0</ele><time>2026-04-26T12:32:09.262Z</time></trkpt><trkpt lat="40.3878902" lon="19.8817842"><ele>108.0</ele><time>2026-04-26T12:32:10.262Z</time></trkpt><trkpt lat="40.3878016" lon="19.8819535"><ele>108.0</ele><time>2026-04-26T12:32:11.263Z</time></trkpt><trkpt lat="40.3877111" lon="19.8821336"><ele>108.0</ele><time>2026-04-26T12:32:12.262Z</time></trkpt><trkpt lat="40.3876162" lon="19.8823189"><ele>108.0</ele><time>2026-04-26T12:32:13.263Z</time></trkpt><trkpt lat="40.387521" lon="19.8825105"><ele>108.0</ele><time>2026-04-26T12:32:14.262Z</time></trkpt><trkpt lat="40.387426" lon="19.8827061"><ele>108.0</ele><time>2026-04-26T12:32:15.262Z</time></trkpt><trkpt lat="40.3873318" lon="19.8829035"><ele>108.66666666666666</ele><time>2026-04-26T12:32:16.262Z</time></trkpt><trkpt lat="40.3872323" lon="19.8831037"><ele>109.33333333333333</ele><time>2026-04-26T12:32:17.262Z</time></trkpt><trkpt lat="40.3871242" lon="19.8833007"><ele>110.0</ele><time>2026-04-26T12:32:18.262Z</time></trkpt><trkpt lat="40.3870136" lon="19.8835013"><ele>110.0</ele><time>2026-04-26T12:32:19.262Z</time></trkpt><trkpt lat="40.3868975" lon="19.8836961"><ele>110.0</ele><time>2026-04-26T12:32:20.263Z</time></trkpt><trkpt lat="40.3867782" lon="19.8838914"><ele>110.0</ele><time>2026-04-26T12:32:21.263Z</time></trkpt><trkpt lat="40.3866577" lon="19.8840817"><ele>109.66666666666666</ele><time>2026-04-26T12:32:22.262Z</time></trkpt><trkpt lat="40.3865367" lon="19.8842752"><ele>109.33333333333334</ele><time>2026-04-26T12:32:23.263Z</time></trkpt><trkpt lat="40.3864147" lon="19.8844667"><ele>109.0</ele><time>2026-04-26T12:32:24.263Z</time></trkpt><trkpt lat="40.386294" lon="19.884659"><ele>109.0</ele><time>2026-04-26T12:32:25.262Z</time></trkpt><trkpt lat="40.3861741" lon="19.8848496"><ele>109.0</ele><time>2026-04-26T12:32:26.262Z</time></trkpt><trkpt lat="40.3860531" lon="19.8850435"><ele>109.0</ele><time>2026-04-26T12:32:27.263Z</time></trkpt><trkpt lat="40.3859319" lon="19.885236"><ele>114.33333333333334</ele><time>2026-04-26T12:32:28.263Z</time></trkpt><trkpt lat="40.385808" lon="19.8854296"><ele>119.66666666666666</ele><time>2026-04-26T12:32:29.263Z</time></trkpt><trkpt lat="40.3856849" lon="19.8856218"><ele>125.0</ele><time>2026-04-26T12:32:30.263Z</time></trkpt><trkpt lat="40.3855614" lon="19.885814"><ele>122.66666666666666</ele><time>2026-04-26T12:32:31.262Z</time></trkpt><trkpt lat="40.3854359" lon="19.8860028"><ele>120.33333333333334</ele><time>2026-04-26T12:32:32.263Z</time></trkpt><trkpt lat="40.3853064" lon="19.8861834"><ele>118.0</ele><time>2026-04-26T12:32:33.262Z</time></trkpt><trkpt lat="40.3851687" lon="19.8863552"><ele>118.0</ele><time>2026-04-26T12:32:34.263Z</time></trkpt><trkpt lat="40.3850214" lon="19.8865139"><ele>118.0</ele><time>2026-04-26T12:32:35.262Z</time></trkpt><trkpt lat="40.3848625" lon="19.8866584"><ele>118.0</ele><time>2026-04-26T12:32:36.262Z</time></trkpt><trkpt lat="40.3846955" lon="19.886788"><ele>120.66666666666667</ele><time>2026-04-26T12:32:37.262Z</time></trkpt><trkpt lat="40.3845236" lon="19.8868958"><ele>123.33333333333334</ele><time>2026-04-26T12:32:38.262Z</time></trkpt><trkpt lat="40.3843485" lon="19.8869947"><ele>126.0</ele><time>2026-04-26T12:32:39.263Z</time></trkpt><trkpt lat="40.3841748" lon="19.8870988"><ele>126.0</ele><time>2026-04-26T12:32:40.262Z</time></trkpt><trkpt lat="40.3840082" lon="19.8872179"><ele>126.0</ele><time>2026-04-26T12:32:41.262Z</time></trkpt><trkpt lat="40.3838573" lon="19.8873596"><ele>126.0</ele><time>2026-04-26T12:32:42.263Z</time></trkpt><trkpt lat="40.3837241" lon="19.8875341"><ele>120.66666666666666</ele><time>2026-04-26T12:32:43.262Z</time></trkpt><trkpt lat="40.3836157" lon="19.8877303"><ele>115.33333333333333</ele><time>2026-04-26T12:32:44.263Z</time></trkpt><trkpt lat="40.3835325" lon="19.8879546"><ele>110.0</ele><time>2026-04-26T12:32:45.262Z</time></trkpt><trkpt lat="40.383482" lon="19.8882023"><ele>109.33333333333333</ele><time>2026-04-26T12:32:46.262Z</time></trkpt><trkpt lat="40.3834635" lon="19.8884613"><ele>108.66666666666666</ele><time>2026-04-26T12:32:47.262Z</time></trkpt><trkpt lat="40.3834789" lon="19.8887322"><ele>108.0</ele><time>2026-04-26T12:32:48.262Z</time></trkpt><trkpt lat="40.3835277" lon="19.8890132"><ele>104.5</ele><time>2026-04-26T12:32:49.263Z</time></trkpt><trkpt lat="40.3835951" lon="19.8892973"><ele>101.0</ele><time>2026-04-26T12:32:50.262Z</time></trkpt><trkpt lat="40.383666" lon="19.8895874"><ele>101.0</ele><time>2026-04-26T12:32:51.263Z</time></trkpt><trkpt lat="40.3837361" lon="19.8898712"><ele>101.0</ele><time>2026-04-26T12:32:52.262Z</time></trkpt><trkpt lat="40.3838019" lon="19.8901551"><ele>108.0</ele><time>2026-04-26T12:32:53.263Z</time></trkpt><trkpt lat="40.3838636" lon="19.8904319"><ele>115.0</ele><time>2026-04-26T12:32:54.263Z</time></trkpt><trkpt lat="40.3839234" lon="19.8907016"><ele>122.0</ele><time>2026-04-26T12:32:55.263Z</time></trkpt><trkpt lat="40.3839851" lon="19.8909621"><ele>122.66666666666666</ele><time>2026-04-26T12:32:56.263Z</time></trkpt><trkpt lat="40.3840293" lon="19.8912123"><ele>123.33333333333334</ele><time>2026-04-26T12:32:57.262Z</time></trkpt><trkpt lat="40.3840493" lon="19.8914601"><ele>124.0</ele><time>2026-04-26T12:32:58.263Z</time></trkpt><trkpt lat="40.3840269" lon="19.8917148"><ele>128.33333333333334</ele><time>2026-04-26T12:32:59.263Z</time></trkpt><trkpt lat="40.3839707" lon="19.8919593"><ele>132.66666666666666</ele><time>2026-04-26T12:33:00.262Z</time></trkpt><trkpt lat="40.3838906" lon="19.8921882"><ele>137.0</ele><time>2026-04-26T12:33:01.263Z</time></trkpt><trkpt lat="40.3837925" lon="19.8924136"><ele>129.33333333333331</ele><time>2026-04-26T12:33:02.262Z</time></trkpt><trkpt lat="40.3836842" lon="19.8926385"><ele>121.66666666666666</ele><time>2026-04-26T12:33:03.262Z</time></trkpt><trkpt lat="40.3835811" lon="19.8928726"><ele>114.0</ele><time>2026-04-26T12:33:04.263Z</time></trkpt><trkpt lat="40.3834872" lon="19.8931215"><ele>114.0</ele><time>2026-04-26T12:33:05.262Z</time></trkpt><trkpt lat="40.3834067" lon="19.8933794"><ele>114.0</ele><time>2026-04-26T12:33:06.263Z</time></trkpt><trkpt lat="40.3833401" lon="19.8936521"><ele>114.0</ele><time>2026-04-26T12:33:07.263Z</time></trkpt><trkpt lat="40.3832848" lon="19.8939418"><ele>117.0</ele><time>2026-04-26T12:33:08.263Z</time></trkpt><trkpt lat="40.3832385" lon="19.8942304"><ele>120.0</ele><time>2026-04-26T12:33:09.262Z</time></trkpt><trkpt lat="40.3831926" lon="19.8945165"><ele>123.0</ele><time>2026-04-26T12:33:10.263Z</time></trkpt><trkpt lat="40.3831372" lon="19.8948051"><ele>130.5</ele><time>2026-04-26T12:33:11.263Z</time></trkpt><trkpt lat="40.3830734" lon="19.8950922"><ele>138.0</ele><time>2026-04-26T12:33:12.262Z</time></trkpt><trkpt lat="40.382999" lon="19.8953769"><ele>119.5</ele><time>2026-04-26T12:33:13.262Z</time></trkpt><trkpt lat="40.3829207" lon="19.8956619"><ele>101.0</ele><time>2026-04-26T12:33:14.262Z</time></trkpt><trkpt lat="40.3828356" lon="19.8959446"><ele>101.0</ele><time>2026-04-26T12:33:15.262Z</time></trkpt><trkpt lat="40.3827495" lon="19.8962285"><ele>101.0</ele><time>2026-04-26T12:33:16.262Z</time></trkpt><trkpt lat="40.3826651" lon="19.8965161"><ele>102.5</ele><time>2026-04-26T12:33:17.262Z</time></trkpt><trkpt lat="40.3825821" lon="19.8967956"><ele>104.0</ele><time>2026-04-26T12:33:18.263Z</time></trkpt><trkpt lat="40.3824995" lon="19.8970737"><ele>104.0</ele><time>2026-04-26T12:33:19.263Z</time></trkpt><trkpt lat="40.3824175" lon="19.8973486"><ele>104.0</ele><time>2026-04-26T12:33:20.263Z</time></trkpt><trkpt lat="40.3823339" lon="19.8976169"><ele>104.0</ele><time>2026-04-26T12:33:21.261Z</time></trkpt><trkpt lat="40.3822491" lon="19.8978849"><ele>101.66666666666666</ele><time>2026-04-26T12:33:22.262Z</time></trkpt><trkpt lat="40.3821573" lon="19.8981464"><ele>99.33333333333334</ele><time>2026-04-26T12:33:23.263Z</time></trkpt><trkpt lat="40.382061" lon="19.8984038"><ele>97.0</ele><time>2026-04-26T12:33:24.262Z</time></trkpt><trkpt lat="40.3819536" lon="19.8986523"><ele>97.0</ele><time>2026-04-26T12:33:25.261Z</time></trkpt><trkpt lat="40.3818431" lon="19.8988949"><ele>97.0</ele><time>2026-04-26T12:33:26.262Z</time></trkpt><trkpt lat="40.3817263" lon="19.8991329"><ele>97.0</ele><time>2026-04-26T12:33:27.263Z</time></trkpt><trkpt lat="40.3816095" lon="19.8993679"><ele>97.66666666666667</ele><time>2026-04-26T12:33:28.263Z</time></trkpt><trkpt lat="40.3814906" lon="19.8996038"><ele>98.33333333333334</ele><time>2026-04-26T12:33:29.263Z</time></trkpt><trkpt lat="40.3813751" lon="19.8998398"><ele>99.0</ele><time>2026-04-26T12:33:30.263Z</time></trkpt><trkpt lat="40.3812635" lon="19.9000817"><ele>100.66666666666666</ele><time>2026-04-26T12:33:31.262Z</time></trkpt><trkpt lat="40.3811627" lon="19.9003309"><ele>102.33333333333333</ele><time>2026-04-26T12:33:32.262Z</time></trkpt><trkpt lat="40.3810735" lon="19.9005902"><ele>104.0</ele><time>2026-04-26T12:33:33.262Z</time></trkpt><trkpt lat="40.3810023" lon="19.9008529"><ele>108.33333333333333</ele><time>2026-04-26T12:33:34.262Z</time></trkpt><trkpt lat="40.3809286" lon="19.9011135"><ele>112.66666666666666</ele><time>2026-04-26T12:33:35.263Z</time></trkpt><trkpt lat="40.3808507" lon="19.9013681"><ele>117.0</ele><time>2026-04-26T12:33:36.263Z</time></trkpt><trkpt lat="40.3807613" lon="19.9016157"><ele>112.66666666666666</ele><time>2026-04-26T12:33:37.263Z</time></trkpt><trkpt lat="40.3806638" lon="19.9018532"><ele>108.33333333333333</ele><time>2026-04-26T12:33:38.262Z</time></trkpt><trkpt lat="40.3805516" lon="19.9020756"><ele>104.0</ele><time>2026-04-26T12:33:39.263Z</time></trkpt><trkpt lat="40.3804267" lon="19.9022928"><ele>104.0</ele><time>2026-04-26T12:33:40.262Z</time></trkpt><trkpt lat="40.3802917" lon="19.9025152"><ele>104.0</ele><time>2026-04-26T12:33:41.263Z</time></trkpt><trkpt lat="40.3801518" lon="19.902739"><ele>104.0</ele><time>2026-04-26T12:33:42.263Z</time></trkpt><trkpt lat="40.3800123" lon="19.9029602"><ele>104.5</ele><time>2026-04-26T12:33:43.263Z</time></trkpt><trkpt lat="40.3798721" lon="19.9031911"><ele>105.0</ele><time>2026-04-26T12:33:44.263Z</time></trkpt><trkpt lat="40.3797241" lon="19.9034208"><ele>105.0</ele><time>2026-04-26T12:33:45.263Z</time></trkpt><trkpt lat="40.3795743" lon="19.903654"><ele>105.0</ele><time>2026-04-26T12:33:46.262Z</time></trkpt><trkpt lat="40.3794256" lon="19.9038894"><ele>105.0</ele><time>2026-04-26T12:33:47.263Z</time></trkpt><trkpt lat="40.3792771" lon="19.9041175"><ele>105.0</ele><time>2026-04-26T12:33:48.263Z</time></trkpt><trkpt lat="40.3791272" lon="19.9043471"><ele>107.5</ele><time>2026-04-26T12:33:49.263Z</time></trkpt><trkpt lat="40.3789782" lon="19.9045688"><ele>110.0</ele><time>2026-04-26T12:33:50.262Z</time></trkpt><trkpt lat="40.3788266" lon="19.9047859"><ele>110.0</ele><time>2026-04-26T12:33:51.262Z</time></trkpt><trkpt lat="40.3786657" lon="19.9049836"><ele>110.0</ele><time>2026-04-26T12:33:52.262Z</time></trkpt><trkpt lat="40.3784905" lon="19.9051602"><ele>110.0</ele><time>2026-04-26T12:33:53.262Z</time></trkpt><trkpt lat="40.3783011" lon="19.9053174"><ele>113.5</ele><time>2026-04-26T12:33:54.263Z</time></trkpt><trkpt lat="40.3780983" lon="19.9054532"><ele>117.0</ele><time>2026-04-26T12:33:55.263Z</time></trkpt><trkpt lat="40.3778902" lon="19.905561"><ele>117.0</ele><time>2026-04-26T12:33:56.263Z</time></trkpt><trkpt lat="40.3776803" lon="19.9056505"><ele>117.0</ele><time>2026-04-26T12:33:57.262Z</time></trkpt><trkpt lat="40.3774691" lon="19.9057201"><ele>117.0</ele><time>2026-04-26T12:33:58.262Z</time></trkpt><trkpt lat="40.3772548" lon="19.9057787"><ele>118.33333333333334</ele><time>2026-04-26T12:33:59.262Z</time></trkpt><trkpt lat="40.3770399" lon="19.9058313"><ele>119.66666666666667</ele><time>2026-04-26T12:34:00.263Z</time></trkpt><trkpt lat="40.3768302" lon="19.9058869"><ele>121.0</ele><time>2026-04-26T12:34:01.263Z</time></trkpt><trkpt lat="40.3766291" lon="19.9059412"><ele>123.66666666666667</ele><time>2026-04-26T12:34:02.263Z</time></trkpt><trkpt lat="40.3764378" lon="19.9059928"><ele>126.33333333333334</ele><time>2026-04-26T12:34:03.263Z</time></trkpt><trkpt lat="40.3762472" lon="19.9060442"><ele>129.0</ele><time>2026-04-26T12:34:04.262Z</time></trkpt><trkpt lat="40.3760506" lon="19.9060993"><ele>129.0</ele><time>2026-04-26T12:34:05.262Z</time></trkpt><trkpt lat="40.3758479" lon="19.9061582"><ele>129.0</ele><time>2026-04-26T12:34:06.263Z</time></trkpt><trkpt lat="40.3756444" lon="19.9062236"><ele>129.0</ele><time>2026-04-26T12:34:07.262Z</time></trkpt><trkpt lat="40.3754421" lon="19.9062944"><ele>128.0</ele><time>2026-04-26T12:34:08.263Z</time></trkpt><trkpt lat="40.3752343" lon="19.9063808"><ele>127.0</ele><time>2026-04-26T12:34:09.263Z</time></trkpt><trkpt lat="40.3750202" lon="19.9064683"><ele>126.0</ele><time>2026-04-26T12:34:10.263Z</time></trkpt><trkpt lat="40.3748019" lon="19.9065606"><ele>125.5</ele><time>2026-04-26T12:34:11.263Z</time></trkpt><trkpt lat="40.3745842" lon="19.9066613"><ele>125.0</ele><time>2026-04-26T12:34:12.262Z</time></trkpt><trkpt lat="40.3743654" lon="19.9067547"><ele>127.0</ele><time>2026-04-26T12:34:13.263Z</time></trkpt><trkpt lat="40.3741485" lon="19.9068443"><ele>129.0</ele><time>2026-04-26T12:34:14.263Z</time></trkpt><trkpt lat="40.3739409" lon="19.9069323"><ele>131.0</ele><time>2026-04-26T12:34:15.262Z</time></trkpt><trkpt lat="40.3737332" lon="19.9070223"><ele>131.0</ele><time>2026-04-26T12:34:16.263Z</time></trkpt><trkpt lat="40.3735259" lon="19.9071032"><ele>131.0</ele><time>2026-04-26T12:34:17.262Z</time></trkpt><trkpt lat="40.3733165" lon="19.9071724"><ele>131.0</ele><time>2026-04-26T12:34:18.263Z</time></trkpt><trkpt lat="40.3731018" lon="19.9072272"><ele>131.66666666666666</ele><time>2026-04-26T12:34:19.263Z</time></trkpt><trkpt lat="40.3728852" lon="19.9072715"><ele>132.33333333333334</ele><time>2026-04-26T12:34:20.262Z</time></trkpt><trkpt lat="40.3726677" lon="19.90731"><ele>133.0</ele><time>2026-04-26T12:34:21.263Z</time></trkpt><trkpt lat="40.3724488" lon="19.9073448"><ele>133.0</ele><time>2026-04-26T12:34:22.262Z</time></trkpt><trkpt lat="40.372229" lon="19.9073772"><ele>133.0</ele><time>2026-04-26T12:34:23.263Z</time></trkpt><trkpt lat="40.3720098" lon="19.9074097"><ele>133.0</ele><time>2026-04-26T12:34:24.262Z</time></trkpt><trkpt lat="40.3717929" lon="19.907442"><ele>133.0</ele><time>2026-04-26T12:34:25.263Z</time></trkpt><trkpt lat="40.371573" lon="19.9074755"><ele>133.0</ele><time>2026-04-26T12:34:26.263Z</time></trkpt><trkpt lat="40.3713517" lon="19.9075108"><ele>133.0</ele><time>2026-04-26T12:34:27.262Z</time></trkpt><trkpt lat="40.3711289" lon="19.9075452"><ele>135.0</ele><time>2026-04-26T12:34:28.262Z</time></trkpt><trkpt lat="40.3709026" lon="19.9075793"><ele>137.0</ele><time>2026-04-26T12:34:29.263Z</time></trkpt><trkpt lat="40.3706803" lon="19.9076174"><ele>137.0</ele><time>2026-04-26T12:34:30.263Z</time></trkpt><trkpt lat="40.3704596" lon="19.9076547"><ele>137.0</ele><time>2026-04-26T12:34:31.262Z</time></trkpt><trkpt lat="40.3702369" lon="19.9076997"><ele>137.0</ele><time>2026-04-26T12:34:32.262Z</time></trkpt><trkpt lat="40.3700118" lon="19.907751"><ele>137.0</ele><time>2026-04-26T12:34:33.263Z</time></trkpt><trkpt lat="40.3697848" lon="19.9078156"><ele>137.0</ele><time>2026-04-26T12:34:34.263Z</time></trkpt><trkpt lat="40.3695576" lon="19.9078854"><ele>135.5</ele><time>2026-04-26T12:34:35.263Z</time></trkpt><trkpt lat="40.3693321" lon="19.9079528"><ele>134.0</ele><time>2026-04-26T12:34:36.262Z</time></trkpt><trkpt lat="40.369109" lon="19.9080189"><ele>134.0</ele><time>2026-04-26T12:34:37.262Z</time></trkpt><trkpt lat="40.3688922" lon="19.9080845"><ele>134.0</ele><time>2026-04-26T12:34:38.262Z</time></trkpt><trkpt lat="40.3686767" lon="19.9081499"><ele>134.0</ele><time>2026-04-26T12:34:39.263Z</time></trkpt><trkpt lat="40.3684636" lon="19.9082116"><ele>133.66666666666666</ele><time>2026-04-26T12:34:40.263Z</time></trkpt><trkpt lat="40.3682507" lon="19.908274"><ele>133.33333333333334</ele><time>2026-04-26T12:34:41.263Z</time></trkpt><trkpt lat="40.3680354" lon="19.908335"><ele>133.0</ele><time>2026-04-26T12:34:42.262Z</time></trkpt><trkpt lat="40.3678212" lon="19.9083959"><ele>132.0</ele><time>2026-04-26T12:34:43.263Z</time></trkpt><trkpt lat="40.3676061" lon="19.9084459"><ele>131.0</ele><time>2026-04-26T12:34:44.263Z</time></trkpt><trkpt lat="40.3673881" lon="19.9084844"><ele>130.0</ele><time>2026-04-26T12:34:45.263Z</time></trkpt><trkpt lat="40.3671697" lon="19.9085045"><ele>130.0</ele><time>2026-04-26T12:34:46.263Z</time></trkpt><trkpt lat="40.3669544" lon="19.9085079"><ele>130.0</ele><time>2026-04-26T12:34:47.262Z</time></trkpt><trkpt lat="40.3667424" lon="19.9084983"><ele>130.0</ele><time>2026-04-26T12:34:48.263Z</time></trkpt><trkpt lat="40.366531" lon="19.9084795"><ele>127.33333333333334</ele><time>2026-04-26T12:34:49.263Z</time></trkpt><trkpt lat="40.366318" lon="19.9084663"><ele>124.66666666666666</ele><time>2026-04-26T12:34:50.263Z</time></trkpt><trkpt lat="40.3661057" lon="19.9084667"><ele>122.0</ele><time>2026-04-26T12:34:51.263Z</time></trkpt><trkpt lat="40.3658962" lon="19.9084978"><ele>122.0</ele><time>2026-04-26T12:34:52.262Z</time></trkpt><trkpt lat="40.3656898" lon="19.908562"><ele>122.0</ele><time>2026-04-26T12:34:53.262Z</time></trkpt><trkpt lat="40.365495" lon="19.9086587"><ele>122.0</ele><time>2026-04-26T12:34:54.263Z</time></trkpt><trkpt lat="40.3653047" lon="19.9087951"><ele>121.0</ele><time>2026-04-26T12:34:55.262Z</time></trkpt><trkpt lat="40.365132" lon="19.9089597"><ele>120.0</ele><time>2026-04-26T12:34:56.263Z</time></trkpt><trkpt lat="40.3649823" lon="19.909156"><ele>119.0</ele><time>2026-04-26T12:34:57.263Z</time></trkpt><trkpt lat="40.364852" lon="19.9093736"><ele>116.33333333333333</ele><time>2026-04-26T12:34:58.262Z</time></trkpt><trkpt lat="40.364745" lon="19.90961"><ele>113.66666666666666</ele><time>2026-04-26T12:34:59.263Z</time></trkpt><trkpt lat="40.3646617" lon="19.9098608"><ele>111.0</ele><time>2026-04-26T12:35:00.263Z</time></trkpt><trkpt lat="40.3646064" lon="19.9101226"><ele>110.66666666666666</ele><time>2026-04-26T12:35:01.262Z</time></trkpt><trkpt lat="40.3645766" lon="19.910393"><ele>110.33333333333333</ele><time>2026-04-26T12:35:02.263Z</time></trkpt><trkpt lat="40.3645735" lon="19.9106644"><ele>110.0</ele><time>2026-04-26T12:35:03.262Z</time></trkpt><trkpt lat="40.3645978" lon="19.9109335"><ele>108.33333333333333</ele><time>2026-04-26T12:35:04.262Z</time></trkpt><trkpt lat="40.3646495" lon="19.9112068"><ele>106.66666666666666</ele><time>2026-04-26T12:35:05.263Z</time></trkpt><trkpt lat="40.3647212" lon="19.9114789"><ele>105.0</ele><time>2026-04-26T12:35:06.263Z</time></trkpt><trkpt lat="40.3648073" lon="19.9117537"><ele>117.0</ele><time>2026-04-26T12:35:07.263Z</time></trkpt><trkpt lat="40.3648971" lon="19.9120302"><ele>129.0</ele><time>2026-04-26T12:35:08.263Z</time></trkpt><trkpt lat="40.3649883" lon="19.9123165"><ele>127.5</ele><time>2026-04-26T12:35:09.263Z</time></trkpt><trkpt lat="40.3650787" lon="19.9126134"><ele>126.0</ele><time>2026-04-26T12:35:10.263Z</time></trkpt><trkpt lat="40.3651624" lon="19.9129128"><ele>126.0</ele><time>2026-04-26T12:35:11.263Z</time></trkpt><trkpt lat="40.3652364" lon="19.9132154"><ele>126.0</ele><time>2026-04-26T12:35:12.263Z</time></trkpt><trkpt lat="40.3652949" lon="19.913518"><ele>126.5</ele><time>2026-04-26T12:35:13.262Z</time></trkpt><trkpt lat="40.3653387" lon="19.9138193"><ele>127.0</ele><time>2026-04-26T12:35:14.262Z</time></trkpt><trkpt lat="40.365369" lon="19.9141162"><ele>125.0</ele><time>2026-04-26T12:35:15.263Z</time></trkpt><trkpt lat="40.3653816" lon="19.914411"><ele>123.0</ele><time>2026-04-26T12:35:16.263Z</time></trkpt><trkpt lat="40.3653806" lon="19.9147061"><ele>123.0</ele><time>2026-04-26T12:35:17.263Z</time></trkpt><trkpt lat="40.3653692" lon="19.9149998"><ele>123.0</ele><time>2026-04-26T12:35:18.262Z</time></trkpt><trkpt lat="40.3653474" lon="19.9152956"><ele>123.5</ele><time>2026-04-26T12:35:19.263Z</time></trkpt><trkpt lat="40.3653186" lon="19.9155922"><ele>124.0</ele><time>2026-04-26T12:35:20.262Z</time></trkpt><trkpt lat="40.3652866" lon="19.9158883"><ele>128.0</ele><time>2026-04-26T12:35:21.263Z</time></trkpt><trkpt lat="40.365256" lon="19.9161856"><ele>132.0</ele><time>2026-04-26T12:35:22.262Z</time></trkpt><trkpt lat="40.3652259" lon="19.9164836"><ele>136.5</ele><time>2026-04-26T12:35:23.263Z</time></trkpt><trkpt lat="40.3651929" lon="19.9167805"><ele>141.0</ele><time>2026-04-26T12:35:24.262Z</time></trkpt><trkpt lat="40.3651529" lon="19.9170775"><ele>141.0</ele><time>2026-04-26T12:35:25.262Z</time></trkpt><trkpt lat="40.3651055" lon="19.9173774"><ele>141.0</ele><time>2026-04-26T12:35:26.263Z</time></trkpt><trkpt lat="40.3650526" lon="19.9176771"><ele>143.5</ele><time>2026-04-26T12:35:27.262Z</time></trkpt><trkpt lat="40.3649988" lon="19.9179768"><ele>146.0</ele><time>2026-04-26T12:35:28.263Z</time></trkpt><trkpt lat="40.3649441" lon="19.9182744"><ele>149.0</ele><time>2026-04-26T12:35:29.262Z</time></trkpt><trkpt lat="40.3648874" lon="19.9185678"><ele>152.0</ele><time>2026-04-26T12:35:30.263Z</time></trkpt><trkpt lat="40.3648342" lon="19.9188623"><ele>152.0</ele><time>2026-04-26T12:35:31.262Z</time></trkpt><trkpt lat="40.3647813" lon="19.9191632"><ele>152.0</ele><time>2026-04-26T12:35:32.262Z</time></trkpt><trkpt lat="40.3647287" lon="19.9194693"><ele>151.5</ele><time>2026-04-26T12:35:33.263Z</time></trkpt><trkpt lat="40.3646777" lon="19.919777"><ele>151.0</ele><time>2026-04-26T12:35:34.261Z</time></trkpt><trkpt lat="40.3646257" lon="19.9200836"><ele>151.0</ele><time>2026-04-26T12:35:35.262Z</time></trkpt><trkpt lat="40.3645706" lon="19.9203895"><ele>151.0</ele><time>2026-04-26T12:35:36.262Z</time></trkpt><trkpt lat="40.3645147" lon="19.9206966"><ele>156.5</ele><time>2026-04-26T12:35:37.261Z</time></trkpt><trkpt lat="40.3644591" lon="19.9210027"><ele>162.0</ele><time>2026-04-26T12:35:38.263Z</time></trkpt><trkpt lat="40.3644041" lon="19.9213092"><ele>162.0</ele><time>2026-04-26T12:35:39.263Z</time></trkpt><trkpt lat="40.3643493" lon="19.9216203"><ele>162.0</ele><time>2026-04-26T12:35:40.262Z</time></trkpt><trkpt lat="40.3642944" lon="19.9219281"><ele>162.5</ele><time>2026-04-26T12:35:41.262Z</time></trkpt><trkpt lat="40.3642358" lon="19.9222335"><ele>163.0</ele><time>2026-04-26T12:35:42.263Z</time></trkpt><trkpt lat="40.3641708" lon="19.9225409"><ele>160.5</ele><time>2026-04-26T12:35:43.263Z</time></trkpt><trkpt lat="40.3640978" lon="19.9228473"><ele>158.0</ele><time>2026-04-26T12:35:44.263Z</time></trkpt><trkpt lat="40.3640173" lon="19.9231509"><ele>154.5</ele><time>2026-04-26T12:35:45.263Z</time></trkpt><trkpt lat="40.3639323" lon="19.9234533"><ele>151.0</ele><time>2026-04-26T12:35:46.262Z</time></trkpt><trkpt lat="40.3638384" lon="19.9237513"><ele>150.5</ele><time>2026-04-26T12:35:47.263Z</time></trkpt><trkpt lat="40.3637377" lon="19.9240453"><ele>150.0</ele><time>2026-04-26T12:35:48.262Z</time></trkpt><trkpt lat="40.3636287" lon="19.924338"><ele>150.0</ele><time>2026-04-26T12:35:49.262Z</time></trkpt><trkpt lat="40.3635143" lon="19.9246227"><ele>150.0</ele><time>2026-04-26T12:35:50.262Z</time></trkpt><trkpt lat="40.3633917" lon="19.9249024"><ele>152.5</ele><time>2026-04-26T12:35:51.263Z</time></trkpt><trkpt lat="40.3632603" lon="19.9251768"><ele>155.0</ele><time>2026-04-26T12:35:52.263Z</time></trkpt><trkpt lat="40.3631207" lon="19.925449"><ele>154.5</ele><time>2026-04-26T12:35:53.263Z</time></trkpt><trkpt lat="40.3629728" lon="19.9257218"><ele>154.0</ele><time>2026-04-26T12:35:54.262Z</time></trkpt><trkpt lat="40.3628174" lon="19.925992"><ele>153.5</ele><time>2026-04-26T12:35:55.262Z</time></trkpt><trkpt lat="40.3626629" lon="19.9262526"><ele>153.0</ele><time>2026-04-26T12:35:56.263Z</time></trkpt><trkpt lat="40.3625051" lon="19.9264998"><ele>152.5</ele><time>2026-04-26T12:35:57.263Z</time></trkpt><trkpt lat="40.362347" lon="19.9267377"><ele>152.0</ele><time>2026-04-26T12:35:58.262Z</time></trkpt><trkpt lat="40.3621847" lon="19.9269675"><ele>152.0</ele><time>2026-04-26T12:35:59.263Z</time></trkpt><trkpt lat="40.3620219" lon="19.9271925"><ele>152.0</ele><time>2026-04-26T12:36:00.263Z</time></trkpt><trkpt lat="40.361859" lon="19.9274151"><ele>152.0</ele><time>2026-04-26T12:36:01.263Z</time></trkpt><trkpt lat="40.3616967" lon="19.9276402"><ele>152.0</ele><time>2026-04-26T12:36:02.261Z</time></trkpt><trkpt lat="40.3615352" lon="19.9278667"><ele>152.0</ele><time>2026-04-26T12:36:03.263Z</time></trkpt><trkpt lat="40.3613727" lon="19.9280948"><ele>152.0</ele><time>2026-04-26T12:36:04.262Z</time></trkpt><trkpt lat="40.3612089" lon="19.9283242"><ele>151.5</ele><time>2026-04-26T12:36:05.262Z</time></trkpt><trkpt lat="40.361043" lon="19.9285518"><ele>151.0</ele><time>2026-04-26T12:36:06.262Z</time></trkpt><trkpt lat="40.3608772" lon="19.9287781"><ele>151.0</ele><time>2026-04-26T12:36:07.263Z</time></trkpt><trkpt lat="40.3607136" lon="19.9290048"><ele>151.0</ele><time>2026-04-26T12:36:08.262Z</time></trkpt><trkpt lat="40.3605467" lon="19.9292274"><ele>150.5</ele><time>2026-04-26T12:36:09.262Z</time></trkpt><trkpt lat="40.3603839" lon="19.9294561"><ele>150.0</ele><time>2026-04-26T12:36:10.263Z</time></trkpt><trkpt lat="40.3602214" lon="19.9296815"><ele>150.0</ele><time>2026-04-26T12:36:11.262Z</time></trkpt><trkpt lat="40.3600604" lon="19.9299068"><ele>150.0</ele><time>2026-04-26T12:36:12.261Z</time></trkpt><trkpt lat="40.3598971" lon="19.9301282"><ele>151.0</ele><time>2026-04-26T12:36:13.263Z</time></trkpt><trkpt lat="40.3597359" lon="19.9303558"><ele>152.0</ele><time>2026-04-26T12:36:14.263Z</time></trkpt><trkpt lat="40.3595734" lon="19.9305809"><ele>152.0</ele><time>2026-04-26T12:36:15.262Z</time></trkpt><trkpt lat="40.3594126" lon="19.9308059"><ele>152.0</ele><time>2026-04-26T12:36:16.262Z</time></trkpt><trkpt lat="40.3592489" lon="19.9310315"><ele>152.0</ele><time>2026-04-26T12:36:17.263Z</time></trkpt><trkpt lat="40.359087" lon="19.9312565"><ele>152.0</ele><time>2026-04-26T12:36:18.263Z</time></trkpt><trkpt lat="40.3589251" lon="19.9314795"><ele>152.0</ele><time>2026-04-26T12:36:19.263Z</time></trkpt><trkpt lat="40.3587616" lon="19.9317043"><ele>152.0</ele><time>2026-04-26T12:36:20.262Z</time></trkpt><trkpt lat="40.3585975" lon="19.9319273"><ele>152.0</ele><time>2026-04-26T12:36:21.262Z</time></trkpt><trkpt lat="40.3584324" lon="19.9321518"><ele>152.0</ele><time>2026-04-26T12:36:22.262Z</time></trkpt><trkpt lat="40.3582683" lon="19.9323783"><ele>153.5</ele><time>2026-04-26T12:36:23.263Z</time></trkpt><trkpt lat="40.3581066" lon="19.9326063"><ele>155.0</ele><time>2026-04-26T12:36:24.263Z</time></trkpt><trkpt lat="40.357943" lon="19.9328296"><ele>155.0</ele><time>2026-04-26T12:36:25.263Z</time></trkpt><trkpt lat="40.3577739" lon="19.933054"><ele>155.0</ele><time>2026-04-26T12:36:26.263Z</time></trkpt><trkpt lat="40.3576055" lon="19.9332858"><ele>155.0</ele><time>2026-04-26T12:36:27.262Z</time></trkpt><trkpt lat="40.3574369" lon="19.9335187"><ele>155.0</ele><time>2026-04-26T12:36:28.262Z</time></trkpt><trkpt lat="40.3572728" lon="19.9337537"><ele>152.5</ele><time>2026-04-26T12:36:29.262Z</time></trkpt><trkpt lat="40.3571123" lon="19.9339935"><ele>150.0</ele><time>2026-04-26T12:36:30.263Z</time></trkpt><trkpt lat="40.3569592" lon="19.934239"><ele>149.0</ele><time>2026-04-26T12:36:31.263Z</time></trkpt><trkpt lat="40.3568111" lon="19.934493"><ele>148.0</ele><time>2026-04-26T12:36:32.263Z</time></trkpt><trkpt lat="40.3566701" lon="19.9347536"><ele>148.0</ele><time>2026-04-26T12:36:33.263Z</time></trkpt><trkpt lat="40.3565391" lon="19.9350191"><ele>148.0</ele><time>2026-04-26T12:36:34.263Z</time></trkpt><trkpt lat="40.3564174" lon="19.9352908"><ele>149.0</ele><time>2026-04-26T12:36:35.263Z</time></trkpt><trkpt lat="40.3563016" lon="19.9355633"><ele>150.0</ele><time>2026-04-26T12:36:36.263Z</time></trkpt><trkpt lat="40.356193" lon="19.9358365"><ele>152.5</ele><time>2026-04-26T12:36:37.263Z</time></trkpt><trkpt lat="40.3560921" lon="19.9361128"><ele>155.0</ele><time>2026-04-26T12:36:38.262Z</time></trkpt><trkpt lat="40.3560013" lon="19.9363892"><ele>155.0</ele><time>2026-04-26T12:36:39.262Z</time></trkpt><trkpt lat="40.3559229" lon="19.9366652"><ele>155.0</ele><time>2026-04-26T12:36:40.263Z</time></trkpt><trkpt lat="40.3558539" lon="19.9369423"><ele>155.0</ele><time>2026-04-26T12:36:41.263Z</time></trkpt><trkpt lat="40.3557936" lon="19.937219"><ele>155.0</ele><time>2026-04-26T12:36:42.263Z</time></trkpt><trkpt lat="40.3557406" lon="19.9374927"><ele>155.0</ele><time>2026-04-26T12:36:43.263Z</time></trkpt><trkpt lat="40.3556958" lon="19.9377661"><ele>155.0</ele><time>2026-04-26T12:36:44.262Z</time></trkpt><trkpt lat="40.355661" lon="19.9380409"><ele>155.0</ele><time>2026-04-26T12:36:45.262Z</time></trkpt><trkpt lat="40.3556292" lon="19.9383155"><ele>155.0</ele><time>2026-04-26T12:36:46.263Z</time></trkpt><trkpt lat="40.3556063" lon="19.9385898"><ele>155.0</ele><time>2026-04-26T12:36:47.263Z</time></trkpt><trkpt lat="40.3555915" lon="19.9388649"><ele>154.0</ele><time>2026-04-26T12:36:48.263Z</time></trkpt><trkpt lat="40.3555804" lon="19.9391435"><ele>153.0</ele><time>2026-04-26T12:36:49.263Z</time></trkpt><trkpt lat="40.355577" lon="19.9394278"><ele>152.0</ele><time>2026-04-26T12:36:50.263Z</time></trkpt><trkpt lat="40.3555785" lon="19.9397139"><ele>150.0</ele><time>2026-04-26T12:36:51.262Z</time></trkpt><trkpt lat="40.3555895" lon="19.9400031"><ele>148.0</ele><time>2026-04-26T12:36:52.262Z</time></trkpt><trkpt lat="40.355608" lon="19.9402942"><ele>146.0</ele><time>2026-04-26T12:36:53.262Z</time></trkpt><trkpt lat="40.3556352" lon="19.9405865"><ele>140.5</ele><time>2026-04-26T12:36:54.263Z</time></trkpt><trkpt lat="40.3556642" lon="19.9408792"><ele>135.0</ele><time>2026-04-26T12:36:55.262Z</time></trkpt><trkpt lat="40.3556938" lon="19.9411715"><ele>133.0</ele><time>2026-04-26T12:36:56.262Z</time></trkpt><trkpt lat="40.3557218" lon="19.9414625"><ele>131.0</ele><time>2026-04-26T12:36:57.263Z</time></trkpt><trkpt lat="40.3557482" lon="19.9417548"><ele>129.0</ele><time>2026-04-26T12:36:58.262Z</time></trkpt><trkpt lat="40.3557712" lon="19.9420455"><ele>129.0</ele><time>2026-04-26T12:36:59.263Z</time></trkpt><trkpt lat="40.3557988" lon="19.9423308"><ele>129.0</ele><time>2026-04-26T12:37:00.262Z</time></trkpt><trkpt lat="40.3558252" lon="19.9426127"><ele>129.0</ele><time>2026-04-26T12:37:01.263Z</time></trkpt><trkpt lat="40.3558541" lon="19.9428928"><ele>128.33333333333334</ele><time>2026-04-26T12:37:02.261Z</time></trkpt><trkpt lat="40.355882" lon="19.9431745"><ele>127.66666666666667</ele><time>2026-04-26T12:37:03.263Z</time></trkpt><trkpt lat="40.3559063" lon="19.9434606"><ele>127.0</ele><time>2026-04-26T12:37:04.262Z</time></trkpt><trkpt lat="40.3559241" lon="19.9437471"><ele>125.66666666666667</ele><time>2026-04-26T12:37:05.263Z</time></trkpt><trkpt lat="40.3559301" lon="19.9440339"><ele>124.33333333333334</ele><time>2026-04-26T12:37:06.263Z</time></trkpt><trkpt lat="40.3559246" lon="19.9443239"><ele>123.0</ele><time>2026-04-26T12:37:07.262Z</time></trkpt><trkpt lat="40.3559071" lon="19.9446103"><ele>122.33333333333334</ele><time>2026-04-26T12:37:08.263Z</time></trkpt><trkpt lat="40.3558801" lon="19.9448937"><ele>121.66666666666667</ele><time>2026-04-26T12:37:09.263Z</time></trkpt><trkpt lat="40.3558441" lon="19.9451748"><ele>121.0</ele><time>2026-04-26T12:37:10.263Z</time></trkpt><trkpt lat="40.3557975" lon="19.9454565"><ele>122.33333333333334</ele><time>2026-04-26T12:37:11.262Z</time></trkpt><trkpt lat="40.3557395" lon="19.9457382"><ele>123.66666666666666</ele><time>2026-04-26T12:37:12.262Z</time></trkpt><trkpt lat="40.3556706" lon="19.9460156"><ele>125.0</ele><time>2026-04-26T12:37:13.263Z</time></trkpt><trkpt lat="40.3555928" lon="19.9462887"><ele>122.33333333333333</ele><time>2026-04-26T12:37:14.263Z</time></trkpt><trkpt lat="40.3555059" lon="19.9465561"><ele>119.66666666666666</ele><time>2026-04-26T12:37:15.263Z</time></trkpt><trkpt lat="40.3554128" lon="19.9468253"><ele>117.0</ele><time>2026-04-26T12:37:16.262Z</time></trkpt><trkpt lat="40.3553164" lon="19.9470893"><ele>117.0</ele><time>2026-04-26T12:37:17.263Z</time></trkpt><trkpt lat="40.3552175" lon="19.9473521"><ele>117.0</ele><time>2026-04-26T12:37:18.263Z</time></trkpt><trkpt lat="40.3551199" lon="19.9476117"><ele>117.0</ele><time>2026-04-26T12:37:19.262Z</time></trkpt><trkpt lat="40.3550248" lon="19.9478703"><ele>117.66666666666666</ele><time>2026-04-26T12:37:20.263Z</time></trkpt><trkpt lat="40.3549279" lon="19.94813"><ele>118.33333333333333</ele><time>2026-04-26T12:37:21.263Z</time></trkpt><trkpt lat="40.3548293" lon="19.9483856"><ele>119.0</ele><time>2026-04-26T12:37:22.263Z</time></trkpt><trkpt lat="40.3547239" lon="19.9486364"><ele>117.66666666666666</ele><time>2026-04-26T12:37:23.262Z</time></trkpt><trkpt lat="40.3546137" lon="19.9488817"><ele>116.33333333333334</ele><time>2026-04-26T12:37:24.263Z</time></trkpt><trkpt lat="40.354498" lon="19.9491247"><ele>115.0</ele><time>2026-04-26T12:37:25.263Z</time></trkpt><trkpt lat="40.3543758" lon="19.9493602"><ele>115.0</ele><time>2026-04-26T12:37:26.263Z</time></trkpt><trkpt lat="40.3542548" lon="19.9495894"><ele>115.0</ele><time>2026-04-26T12:37:27.263Z</time></trkpt><trkpt lat="40.3541312" lon="19.9498125"><ele>115.0</ele><time>2026-04-26T12:37:28.262Z</time></trkpt><trkpt lat="40.354007" lon="19.9500297"><ele>113.33333333333334</ele><time>2026-04-26T12:37:29.263Z</time></trkpt><trkpt lat="40.3538829" lon="19.9502515"><ele>111.66666666666666</ele><time>2026-04-26T12:37:30.262Z</time></trkpt><trkpt lat="40.3537589" lon="19.9504663"><ele>110.0</ele><time>2026-04-26T12:37:31.263Z</time></trkpt><trkpt lat="40.3536403" lon="19.9506763"><ele>111.66666666666666</ele><time>2026-04-26T12:37:32.263Z</time></trkpt><trkpt lat="40.3535272" lon="19.9508913"><ele>113.33333333333334</ele><time>2026-04-26T12:37:33.263Z</time></trkpt><trkpt lat="40.3534306" lon="19.9511135"><ele>115.0</ele><time>2026-04-26T12:37:34.263Z</time></trkpt><trkpt lat="40.3533522" lon="19.9513437"><ele>115.0</ele><time>2026-04-26T12:37:35.263Z</time></trkpt><trkpt lat="40.3532981" lon="19.951583"><ele>115.0</ele><time>2026-04-26T12:37:36.263Z</time></trkpt><trkpt lat="40.3532676" lon="19.9518288"><ele>115.0</ele><time>2026-04-26T12:37:37.262Z</time></trkpt><trkpt lat="40.3532514" lon="19.9520755"><ele>115.33333333333334</ele><time>2026-04-26T12:37:38.262Z</time></trkpt><trkpt lat="40.3532404" lon="19.9523171"><ele>115.66666666666666</ele><time>2026-04-26T12:37:39.263Z</time></trkpt><trkpt lat="40.3532312" lon="19.9525535"><ele>116.0</ele><time>2026-04-26T12:37:40.262Z</time></trkpt><trkpt lat="40.3532133" lon="19.9527929"><ele>114.33333333333333</ele><time>2026-04-26T12:37:41.261Z</time></trkpt><trkpt lat="40.3531774" lon="19.953035"><ele>112.66666666666666</ele><time>2026-04-26T12:37:42.262Z</time></trkpt><trkpt lat="40.3531229" lon="19.9532816"><ele>111.0</ele><time>2026-04-26T12:37:43.263Z</time></trkpt><trkpt lat="40.3530511" lon="19.9535285"><ele>109.0</ele><time>2026-04-26T12:37:44.263Z</time></trkpt><trkpt lat="40.3529714" lon="19.9537735"><ele>107.0</ele><time>2026-04-26T12:37:45.263Z</time></trkpt><trkpt lat="40.3528877" lon="19.9540233"><ele>105.0</ele><time>2026-04-26T12:37:46.263Z</time></trkpt><trkpt lat="40.3528028" lon="19.9542713"><ele>104.66666666666666</ele><time>2026-04-26T12:37:47.262Z</time></trkpt><trkpt lat="40.3527176" lon="19.9545181"><ele>104.33333333333333</ele><time>2026-04-26T12:37:48.262Z</time></trkpt><trkpt lat="40.3526316" lon="19.9547636"><ele>104.0</ele><time>2026-04-26T12:37:49.262Z</time></trkpt><trkpt lat="40.3525449" lon="19.9550053"><ele>104.66666666666666</ele><time>2026-04-26T12:37:50.262Z</time></trkpt><trkpt lat="40.3524579" lon="19.9552479"><ele>105.33333333333334</ele><time>2026-04-26T12:37:51.262Z</time></trkpt><trkpt lat="40.3523731" lon="19.95549"><ele>106.0</ele><time>2026-04-26T12:37:52.262Z</time></trkpt><trkpt lat="40.352288" lon="19.9557327"><ele>105.66666666666667</ele><time>2026-04-26T12:37:53.263Z</time></trkpt><trkpt lat="40.3522081" lon="19.9559752"><ele>105.33333333333334</ele><time>2026-04-26T12:37:54.263Z</time></trkpt><trkpt lat="40.3521369" lon="19.9562171"><ele>105.0</ele><time>2026-04-26T12:37:55.262Z</time></trkpt><trkpt lat="40.3520823" lon="19.9564688"><ele>105.0</ele><time>2026-04-26T12:37:56.262Z</time></trkpt><trkpt lat="40.3520458" lon="19.9567279"><ele>105.0</ele><time>2026-04-26T12:37:57.262Z</time></trkpt><trkpt lat="40.3520303" lon="19.9569958"><ele>105.0</ele><time>2026-04-26T12:37:58.262Z</time></trkpt><trkpt lat="40.3520286" lon="19.9572757"><ele>104.66666666666666</ele><time>2026-04-26T12:37:59.263Z</time></trkpt><trkpt lat="40.3520334" lon="19.9575615"><ele>104.33333333333333</ele><time>2026-04-26T12:38:00.263Z</time></trkpt><trkpt lat="40.3520411" lon="19.9578442"><ele>104.0</ele><time>2026-04-26T12:38:01.263Z</time></trkpt><trkpt lat="40.3520534" lon="19.958133"><ele>104.0</ele><time>2026-04-26T12:38:02.262Z</time></trkpt><trkpt lat="40.3520645" lon="19.9584249"><ele>104.0</ele><time>2026-04-26T12:38:03.263Z</time></trkpt><trkpt lat="40.3520763" lon="19.9587179"><ele>104.0</ele><time>2026-04-26T12:38:04.262Z</time></trkpt><trkpt lat="40.3520852" lon="19.9590104"><ele>103.66666666666666</ele><time>2026-04-26T12:38:05.263Z</time></trkpt><trkpt lat="40.3520974" lon="19.9593037"><ele>103.33333333333334</ele><time>2026-04-26T12:38:06.263Z</time></trkpt><trkpt lat="40.3521141" lon="19.9595963"><ele>103.0</ele><time>2026-04-26T12:38:07.262Z</time></trkpt><trkpt lat="40.3521323" lon="19.9598866"><ele>103.66666666666667</ele><time>2026-04-26T12:38:08.263Z</time></trkpt><trkpt lat="40.3521652" lon="19.9601713"><ele>104.33333333333334</ele><time>2026-04-26T12:38:09.263Z</time></trkpt><trkpt lat="40.3522138" lon="19.9604403"><ele>105.0</ele><time>2026-04-26T12:38:10.263Z</time></trkpt><trkpt lat="40.3522855" lon="19.9606931"><ele>107.66666666666666</ele><time>2026-04-26T12:38:11.261Z</time></trkpt><trkpt lat="40.3523773" lon="19.960939"><ele>110.33333333333333</ele><time>2026-04-26T12:38:12.263Z</time></trkpt><trkpt lat="40.3524789" lon="19.9611796"><ele>113.0</ele><time>2026-04-26T12:38:13.262Z</time></trkpt><trkpt lat="40.352575" lon="19.961409"><ele>113.0</ele><time>2026-04-26T12:38:14.262Z</time></trkpt><trkpt lat="40.3526516" lon="19.9616404"><ele>113.0</ele><time>2026-04-26T12:38:15.263Z</time></trkpt><trkpt lat="40.3527009" lon="19.9618847"><ele>113.0</ele><time>2026-04-26T12:38:16.262Z</time></trkpt><trkpt lat="40.3527245" lon="19.9621439"><ele>115.0</ele><time>2026-04-26T12:38:17.262Z</time></trkpt><trkpt lat="40.3527208" lon="19.962404"><ele>117.0</ele><time>2026-04-26T12:38:18.263Z</time></trkpt><trkpt lat="40.3527017" lon="19.9626594"><ele>119.0</ele><time>2026-04-26T12:38:19.263Z</time></trkpt><trkpt lat="40.3526784" lon="19.9629177"><ele>119.33333333333333</ele><time>2026-04-26T12:38:20.263Z</time></trkpt><trkpt lat="40.3526853" lon="19.9631863"><ele>119.66666666666666</ele><time>2026-04-26T12:38:21.263Z</time></trkpt><trkpt lat="40.3527122" lon="19.9634646"><ele>120.0</ele><time>2026-04-26T12:38:22.262Z</time></trkpt><trkpt lat="40.3527577" lon="19.9637551"><ele>120.0</ele><time>2026-04-26T12:38:23.262Z</time></trkpt><trkpt lat="40.3528131" lon="19.9640425"><ele>120.0</ele><time>2026-04-26T12:38:24.262Z</time></trkpt><trkpt lat="40.3528709" lon="19.9643324"><ele>116.5</ele><time>2026-04-26T12:38:25.263Z</time></trkpt><trkpt lat="40.3529223" lon="19.9646233"><ele>113.0</ele><time>2026-04-26T12:38:26.262Z</time></trkpt><trkpt lat="40.352965" lon="19.9649176"><ele>111.0</ele><time>2026-04-26T12:38:27.262Z</time></trkpt><trkpt lat="40.353003" lon="19.9652187"><ele>109.0</ele><time>2026-04-26T12:38:28.262Z</time></trkpt><trkpt lat="40.3530377" lon="19.9655201"><ele>124.5</ele><time>2026-04-26T12:38:29.263Z</time></trkpt><trkpt lat="40.3530726" lon="19.9658173"><ele>140.0</ele><time>2026-04-26T12:38:30.262Z</time></trkpt><trkpt lat="40.3531036" lon="19.9661085"><ele>140.0</ele><time>2026-04-26T12:38:31.263Z</time></trkpt><trkpt lat="40.3531248" lon="19.9663947"><ele>140.0</ele><time>2026-04-26T12:38:32.262Z</time></trkpt><trkpt lat="40.3531276" lon="19.9666774"><ele>140.0</ele><time>2026-04-26T12:38:33.262Z</time></trkpt><trkpt lat="40.3531098" lon="19.9669532"><ele>138.66666666666666</ele><time>2026-04-26T12:38:34.262Z</time></trkpt><trkpt lat="40.3530743" lon="19.9672247"><ele>137.33333333333334</ele><time>2026-04-26T12:38:35.262Z</time></trkpt><trkpt lat="40.3530274" lon="19.9674842"><ele>136.0</ele><time>2026-04-26T12:38:36.263Z</time></trkpt><trkpt lat="40.3529799" lon="19.9677328"><ele>127.66666666666667</ele><time>2026-04-26T12:38:37.262Z</time></trkpt><trkpt lat="40.352952" lon="19.9679844"><ele>119.33333333333334</ele><time>2026-04-26T12:38:38.262Z</time></trkpt><trkpt lat="40.3529457" lon="19.9682443"><ele>111.0</ele><time>2026-04-26T12:38:39.263Z</time></trkpt><trkpt lat="40.3529605" lon="19.9685088"><ele>111.0</ele><time>2026-04-26T12:38:40.262Z</time></trkpt><trkpt lat="40.3529922" lon="19.9687732"><ele>111.0</ele><time>2026-04-26T12:38:41.26Z</time></trkpt><trkpt lat="40.353033" lon="19.9690357"><ele>111.0</ele><time>2026-04-26T12:38:42.262Z</time></trkpt><trkpt lat="40.3530766" lon="19.9692907"><ele>114.66666666666666</ele><time>2026-04-26T12:38:43.263Z</time></trkpt><trkpt lat="40.3531189" lon="19.969539"><ele>118.33333333333333</ele><time>2026-04-26T12:38:44.262Z</time></trkpt><trkpt lat="40.3531539" lon="19.9697794"><ele>122.0</ele><time>2026-04-26T12:38:45.263Z</time></trkpt><trkpt lat="40.3531881" lon="19.9700105"><ele>122.33333333333333</ele><time>2026-04-26T12:38:46.263Z</time></trkpt><trkpt lat="40.3532187" lon="19.9702387"><ele>122.66666666666666</ele><time>2026-04-26T12:38:47.263Z</time></trkpt><trkpt lat="40.3532453" lon="19.9704627"><ele>123.0</ele><time>2026-04-26T12:38:48.262Z</time></trkpt><trkpt lat="40.3532684" lon="19.970688"><ele>122.5</ele><time>2026-04-26T12:38:49.262Z</time></trkpt><trkpt lat="40.3532738" lon="19.9708965"><ele>122.0</ele><time>2026-04-26T12:38:50.263Z</time></trkpt><trkpt lat="40.3532556" lon="19.9710864"><ele>121.5</ele><time>2026-04-26T12:38:51.263Z</time></trkpt><trkpt lat="40.3532105" lon="19.9712615"><ele>121.0</ele><time>2026-04-26T12:38:52.263Z</time></trkpt><trkpt lat="40.353145" lon="19.9714162"><ele>121.0</ele><time>2026-04-26T12:38:53.262Z</time></trkpt><trkpt lat="40.3530585" lon="19.9715494"><ele>121.0</ele><time>2026-04-26T12:38:54.261Z</time></trkpt><trkpt lat="40.3529474" lon="19.9716646"><ele>121.0</ele><time>2026-04-26T12:38:55.261Z</time></trkpt><trkpt lat="40.3528137" lon="19.9717673"><ele>121.0</ele><time>2026-04-26T12:38:56.262Z</time></trkpt><trkpt lat="40.3526635" lon="19.971878"><ele>119.66666666666667</ele><time>2026-04-26T12:38:57.263Z</time></trkpt><trkpt lat="40.3525157" lon="19.9719934"><ele>118.33333333333334</ele><time>2026-04-26T12:38:58.263Z</time></trkpt><trkpt lat="40.3523681" lon="19.9721112"><ele>117.0</ele><time>2026-04-26T12:38:59.262Z</time></trkpt><trkpt lat="40.352209" lon="19.9722386"><ele>115.33333333333334</ele><time>2026-04-26T12:39:00.263Z</time></trkpt><trkpt lat="40.3520475" lon="19.972371"><ele>113.66666666666667</ele><time>2026-04-26T12:39:01.263Z</time></trkpt><trkpt lat="40.3518822" lon="19.9725022"><ele>112.0</ele><time>2026-04-26T12:39:02.262Z</time></trkpt><trkpt lat="40.3517152" lon="19.9726345"><ele>112.0</ele><time>2026-04-26T12:39:03.263Z</time></trkpt><trkpt lat="40.3515442" lon="19.9727667"><ele>112.0</ele><time>2026-04-26T12:39:04.26Z</time></trkpt><trkpt lat="40.3513723" lon="19.9728995"><ele>112.0</ele><time>2026-04-26T12:39:05.262Z</time></trkpt><trkpt lat="40.3512039" lon="19.9730319"><ele>112.0</ele><time>2026-04-26T12:39:06.263Z</time></trkpt><trkpt lat="40.3510371" lon="19.9731627"><ele>112.0</ele><time>2026-04-26T12:39:07.262Z</time></trkpt><trkpt lat="40.3508718" lon="19.9732946"><ele>112.0</ele><time>2026-04-26T12:39:08.262Z</time></trkpt><trkpt lat="40.3507088" lon="19.9734224"><ele>111.33333333333334</ele><time>2026-04-26T12:39:09.262Z</time></trkpt><trkpt lat="40.3505511" lon="19.9735557"><ele>110.66666666666666</ele><time>2026-04-26T12:39:10.263Z</time></trkpt><trkpt lat="40.3503987" lon="19.9736941"><ele>110.0</ele><time>2026-04-26T12:39:11.262Z</time></trkpt><trkpt lat="40.3502477" lon="19.9738315"><ele>112.33333333333333</ele><time>2026-04-26T12:39:12.262Z</time></trkpt><trkpt lat="40.350105" lon="19.973964"><ele>114.66666666666666</ele><time>2026-04-26T12:39:13.263Z</time></trkpt><trkpt lat="40.3499712" lon="19.9740911"><ele>117.0</ele><time>2026-04-26T12:39:14.261Z</time></trkpt><trkpt lat="40.3498451" lon="19.9742263"><ele>117.33333333333334</ele><time>2026-04-26T12:39:15.262Z</time></trkpt><trkpt lat="40.3497336" lon="19.9743764"><ele>117.66666666666667</ele><time>2026-04-26T12:39:16.26Z</time></trkpt><trkpt lat="40.3496404" lon="19.9745393"><ele>118.0</ele><time>2026-04-26T12:39:17.263Z</time></trkpt><trkpt lat="40.3495685" lon="19.9747162"><ele>120.5</ele><time>2026-04-26T12:39:18.262Z</time></trkpt><trkpt lat="40.3495142" lon="19.9748906"><ele>123.0</ele><time>2026-04-26T12:39:19.263Z</time></trkpt><trkpt lat="40.349475" lon="19.9750627"><ele>125.5</ele><time>2026-04-26T12:39:20.263Z</time></trkpt><trkpt lat="40.3494482" lon="19.9752299"><ele>128.0</ele><time>2026-04-26T12:39:21.263Z</time></trkpt><trkpt lat="40.3494291" lon="19.975391"><ele>128.0</ele><time>2026-04-26T12:39:22.261Z</time></trkpt><trkpt lat="40.3494157" lon="19.9755576"><ele>128.0</ele><time>2026-04-26T12:39:23.262Z</time></trkpt><trkpt lat="40.3494038" lon="19.9757332"><ele>128.0</ele><time>2026-04-26T12:39:24.262Z</time></trkpt><trkpt lat="40.3493785" lon="19.9759101"><ele>128.0</ele><time>2026-04-26T12:39:25.262Z</time></trkpt><trkpt lat="40.3493378" lon="19.9760818"><ele>126.75</ele><time>2026-04-26T12:39:26.261Z</time></trkpt><trkpt lat="40.3492779" lon="19.9762379"><ele>125.5</ele><time>2026-04-26T12:39:27.263Z</time></trkpt><trkpt lat="40.3491958" lon="19.9763904"><ele>124.25</ele><time>2026-04-26T12:39:28.262Z</time></trkpt><trkpt lat="40.3490842" lon="19.9765226"><ele>123.0</ele><time>2026-04-26T12:39:29.262Z</time></trkpt><trkpt lat="40.3489609" lon="19.9766358"><ele>123.33333333333334</ele><time>2026-04-26T12:39:30.263Z</time></trkpt><trkpt lat="40.3488239" lon="19.9767456"><ele>123.66666666666667</ele><time>2026-04-26T12:39:31.26Z</time></trkpt><trkpt lat="40.3486816" lon="19.9768653"><ele>124.0</ele><time>2026-04-26T12:39:32.262Z</time></trkpt><trkpt lat="40.3485406" lon="19.9769831"><ele>124.0</ele><time>2026-04-26T12:39:33.261Z</time></trkpt><trkpt lat="40.3483965" lon="19.9771032"><ele>124.0</ele><time>2026-04-26T12:39:34.263Z</time></trkpt><trkpt lat="40.3482497" lon="19.9772207"><ele>124.0</ele><time>2026-04-26T12:39:35.261Z</time></trkpt><trkpt lat="40.3480918" lon="19.9773353"><ele>125.0</ele><time>2026-04-26T12:39:36.262Z</time></trkpt><trkpt lat="40.3479259" lon="19.9774494"><ele>126.0</ele><time>2026-04-26T12:39:37.262Z</time></trkpt><trkpt lat="40.3477645" lon="19.9775557"><ele>127.0</ele><time>2026-04-26T12:39:38.263Z</time></trkpt><trkpt lat="40.3475915" lon="19.9776774"><ele>127.0</ele><time>2026-04-26T12:39:39.262Z</time></trkpt><trkpt lat="40.3474226" lon="19.9778181"><ele>127.0</ele><time>2026-04-26T12:39:40.262Z</time></trkpt><trkpt lat="40.3472531" lon="19.9779601"><ele>127.0</ele><time>2026-04-26T12:39:41.263Z</time></trkpt><trkpt lat="40.3470774" lon="19.9780954"><ele>127.66666666666667</ele><time>2026-04-26T12:39:42.26Z</time></trkpt><trkpt lat="40.3468937" lon="19.9782219"><ele>128.33333333333334</ele><time>2026-04-26T12:39:43.262Z</time></trkpt><trkpt lat="40.346704" lon="19.9783457"><ele>129.0</ele><time>2026-04-26T12:39:44.263Z</time></trkpt><trkpt lat="40.3465099" lon="19.9784697"><ele>130.33333333333334</ele><time>2026-04-26T12:39:45.263Z</time></trkpt><trkpt lat="40.3463151" lon="19.9785928"><ele>131.66666666666669</ele><time>2026-04-26T12:39:46.262Z</time></trkpt><trkpt lat="40.3461201" lon="19.9787128"><ele>133.0</ele><time>2026-04-26T12:39:47.262Z</time></trkpt><trkpt lat="40.345926" lon="19.9788327"><ele>133.0</ele><time>2026-04-26T12:39:48.262Z</time></trkpt><trkpt lat="40.3457267" lon="19.978949"><ele>133.0</ele><time>2026-04-26T12:39:49.263Z</time></trkpt><trkpt lat="40.3455259" lon="19.9790711"><ele>133.0</ele><time>2026-04-26T12:39:50.263Z</time></trkpt><trkpt lat="40.3453252" lon="19.9791905"><ele>133.0</ele><time>2026-04-26T12:39:51.262Z</time></trkpt><trkpt lat="40.3451295" lon="19.9793191"><ele>133.0</ele><time>2026-04-26T12:39:52.26Z</time></trkpt><trkpt lat="40.3449353" lon="19.9794563"><ele>133.0</ele><time>2026-04-26T12:39:53.263Z</time></trkpt><trkpt lat="40.3447446" lon="19.9796062"><ele>133.66666666666669</ele><time>2026-04-26T12:39:54.263Z</time></trkpt><trkpt lat="40.3445585" lon="19.9797615"><ele>134.33333333333334</ele><time>2026-04-26T12:39:55.263Z</time></trkpt><trkpt lat="40.3443726" lon="19.9799188"><ele>135.0</ele><time>2026-04-26T12:39:56.263Z</time></trkpt><trkpt lat="40.344193" lon="19.9800828"><ele>135.0</ele><time>2026-04-26T12:39:57.263Z</time></trkpt><trkpt lat="40.3440215" lon="19.980247"><ele>135.0</ele><time>2026-04-26T12:39:58.262Z</time></trkpt><trkpt lat="40.3438664" lon="19.9804117"><ele>135.0</ele><time>2026-04-26T12:39:59.263Z</time></trkpt><trkpt lat="40.3437264" lon="19.9805919"><ele>138.66666666666666</ele><time>2026-04-26T12:40:00.263Z</time></trkpt><trkpt lat="40.3436165" lon="19.9807986"><ele>142.33333333333331</ele><time>2026-04-26T12:40:01.263Z</time></trkpt><trkpt lat="40.3435257" lon="19.9810292"><ele>146.0</ele><time>2026-04-26T12:40:02.262Z</time></trkpt><trkpt lat="40.3434473" lon="19.9812681"><ele>146.0</ele><time>2026-04-26T12:40:03.263Z</time></trkpt><trkpt lat="40.3433662" lon="19.9814967"><ele>146.0</ele><time>2026-04-26T12:40:04.262Z</time></trkpt><trkpt lat="40.343277" lon="19.9817026"><ele>146.0</ele><time>2026-04-26T12:40:05.263Z</time></trkpt><trkpt lat="40.3431636" lon="19.9818842"><ele>146.0</ele><time>2026-04-26T12:40:06.259Z</time></trkpt><trkpt lat="40.3430215" lon="19.9820411"><ele>146.0</ele><time>2026-04-26T12:40:07.262Z</time></trkpt><trkpt lat="40.3428631" lon="19.9821652"><ele>146.0</ele><time>2026-04-26T12:40:08.263Z</time></trkpt><trkpt lat="40.3426854" lon="19.9822588"><ele>146.0</ele><time>2026-04-26T12:40:09.263Z</time></trkpt><trkpt lat="40.342491" lon="19.9823118"><ele>146.0</ele><time>2026-04-26T12:40:10.262Z</time></trkpt><trkpt lat="40.3422844" lon="19.9823196"><ele>146.0</ele><time>2026-04-26T12:40:11.262Z</time></trkpt><trkpt lat="40.3420802" lon="19.9823137"><ele>146.33333333333331</ele><time>2026-04-26T12:40:12.263Z</time></trkpt><trkpt lat="40.3418766" lon="19.9822996"><ele>146.66666666666666</ele><time>2026-04-26T12:40:13.262Z</time></trkpt><trkpt lat="40.3416759" lon="19.9823313"><ele>147.0</ele><time>2026-04-26T12:40:14.263Z</time></trkpt><trkpt lat="40.341481" lon="19.9823991"><ele>145.0</ele><time>2026-04-26T12:40:15.263Z</time></trkpt><trkpt lat="40.3412994" lon="19.9825137"><ele>143.0</ele><time>2026-04-26T12:40:16.262Z</time></trkpt><trkpt lat="40.3411361" lon="19.9826738"><ele>141.0</ele><time>2026-04-26T12:40:17.263Z</time></trkpt><trkpt lat="40.3409916" lon="19.9828707"><ele>141.0</ele><time>2026-04-26T12:40:18.26Z</time></trkpt><trkpt lat="40.3408552" lon="19.9830832"><ele>141.0</ele><time>2026-04-26T12:40:19.261Z</time></trkpt><trkpt lat="40.3407204" lon="19.9832963"><ele>141.0</ele><time>2026-04-26T12:40:20.262Z</time></trkpt><trkpt lat="40.3405816" lon="19.9834993"><ele>142.66666666666666</ele><time>2026-04-26T12:40:21.262Z</time></trkpt><trkpt lat="40.340432" lon="19.9836857"><ele>144.33333333333331</ele><time>2026-04-26T12:40:22.262Z</time></trkpt><trkpt lat="40.3402674" lon="19.9838516"><ele>146.0</ele><time>2026-04-26T12:40:23.263Z</time></trkpt><trkpt lat="40.3400906" lon="19.9839965"><ele>146.0</ele><time>2026-04-26T12:40:24.262Z</time></trkpt><trkpt lat="40.3399023" lon="19.9841232"><ele>146.0</ele><time>2026-04-26T12:40:25.263Z</time></trkpt><trkpt lat="40.3397053" lon="19.9842294"><ele>146.0</ele><time>2026-04-26T12:40:26.262Z</time></trkpt><trkpt lat="40.3395049" lon="19.9843145"><ele>140.0</ele><time>2026-04-26T12:40:27.263Z</time></trkpt><trkpt lat="40.3393045" lon="19.9843837"><ele>134.0</ele><time>2026-04-26T12:40:28.262Z</time></trkpt><trkpt lat="40.3391088" lon="19.9844526"><ele>128.0</ele><time>2026-04-26T12:40:29.262Z</time></trkpt><trkpt lat="40.3389189" lon="19.9845379"><ele>127.66666666666666</ele><time>2026-04-26T12:40:30.263Z</time></trkpt><trkpt lat="40.3387365" lon="19.9846581"><ele>127.33333333333334</ele><time>2026-04-26T12:40:31.263Z</time></trkpt><trkpt lat="40.3385684" lon="19.984812"><ele>127.0</ele><time>2026-04-26T12:40:32.262Z</time></trkpt><trkpt lat="40.3384202" lon="19.9850156"><ele>127.0</ele><time>2026-04-26T12:40:33.262Z</time></trkpt><trkpt lat="40.3382675" lon="19.9852235"><ele>127.0</ele><time>2026-04-26T12:40:34.262Z</time></trkpt><trkpt lat="40.3381055" lon="19.985423"><ele>127.0</ele><time>2026-04-26T12:40:35.262Z</time></trkpt><trkpt lat="40.3379305" lon="19.9855962"><ele>128.66666666666669</ele><time>2026-04-26T12:40:36.263Z</time></trkpt><trkpt lat="40.3377437" lon="19.9857381"><ele>130.33333333333334</ele><time>2026-04-26T12:40:37.263Z</time></trkpt><trkpt lat="40.3375607" lon="19.9858705"><ele>132.0</ele><time>2026-04-26T12:40:38.262Z</time></trkpt><trkpt lat="40.3373914" lon="19.9860122"><ele>132.0</ele><time>2026-04-26T12:40:39.262Z</time></trkpt><trkpt lat="40.3372419" lon="19.986178"><ele>132.0</ele><time>2026-04-26T12:40:40.262Z</time></trkpt><trkpt lat="40.3371151" lon="19.9863809"><ele>132.0</ele><time>2026-04-26T12:40:41.263Z</time></trkpt><trkpt lat="40.3369983" lon="19.9866119"><ele>138.0</ele><time>2026-04-26T12:40:42.263Z</time></trkpt><trkpt lat="40.3368769" lon="19.9868769"><ele>144.0</ele><time>2026-04-26T12:40:43.262Z</time></trkpt><trkpt lat="40.3367577" lon="19.9871498"><ele>144.0</ele><time>2026-04-26T12:40:44.263Z</time></trkpt><trkpt lat="40.3366349" lon="19.9874469"><ele>144.0</ele><time>2026-04-26T12:40:45.262Z</time></trkpt><trkpt lat="40.3365024" lon="19.9877454"><ele>139.0</ele><time>2026-04-26T12:40:46.262Z</time></trkpt><trkpt lat="40.3363708" lon="19.9880454"><ele>134.0</ele><time>2026-04-26T12:40:47.262Z</time></trkpt><trkpt lat="40.3362368" lon="19.9883522"><ele>134.0</ele><time>2026-04-26T12:40:48.263Z</time></trkpt><trkpt lat="40.3361051" lon="19.9886549"><ele>134.0</ele><time>2026-04-26T12:40:49.262Z</time></trkpt><trkpt lat="40.3359739" lon="19.9889594"><ele>127.0</ele><time>2026-04-26T12:40:50.262Z</time></trkpt><trkpt lat="40.3358427" lon="19.9892574"><ele>120.0</ele><time>2026-04-26T12:40:51.262Z</time></trkpt><trkpt lat="40.3357101" lon="19.9895529"><ele>120.0</ele><time>2026-04-26T12:40:52.263Z</time></trkpt><trkpt lat="40.3355821" lon="19.9898469"><ele>120.0</ele><time>2026-04-26T12:40:53.263Z</time></trkpt><trkpt lat="40.3354521" lon="19.990137"><ele>131.5</ele><time>2026-04-26T12:40:54.263Z</time></trkpt><trkpt lat="40.3353189" lon="19.990426"><ele>143.0</ele><time>2026-04-26T12:40:55.263Z</time></trkpt><trkpt lat="40.3351845" lon="19.9907159"><ele>136.0</ele><time>2026-04-26T12:40:56.263Z</time></trkpt><trkpt lat="40.3350512" lon="19.9910064"><ele>129.0</ele><time>2026-04-26T12:40:57.263Z</time></trkpt><trkpt lat="40.3349163" lon="19.991298"><ele>129.0</ele><time>2026-04-26T12:40:58.262Z</time></trkpt><trkpt lat="40.3347789" lon="19.9915873"><ele>129.0</ele><time>2026-04-26T12:40:59.263Z</time></trkpt><trkpt lat="40.3346407" lon="19.9918732"><ele>133.0</ele><time>2026-04-26T12:41:00.263Z</time></trkpt><trkpt lat="40.3345052" lon="19.9921534"><ele>137.0</ele><time>2026-04-26T12:41:01.262Z</time></trkpt><trkpt lat="40.3343685" lon="19.9924232"><ele>133.5</ele><time>2026-04-26T12:41:02.263Z</time></trkpt><trkpt lat="40.3342343" lon="19.9926831"><ele>130.0</ele><time>2026-04-26T12:41:03.263Z</time></trkpt><trkpt lat="40.3340914" lon="19.9929133"><ele>130.0</ele><time>2026-04-26T12:41:04.262Z</time></trkpt><trkpt lat="40.3339342" lon="19.9931299"><ele>130.0</ele><time>2026-04-26T12:41:05.262Z</time></trkpt><trkpt lat="40.3337627" lon="19.9933217"><ele>131.0</ele><time>2026-04-26T12:41:06.263Z</time></trkpt><trkpt lat="40.3335724" lon="19.993491"><ele>132.0</ele><time>2026-04-26T12:41:07.263Z</time></trkpt><trkpt lat="40.3333724" lon="19.9936299"><ele>132.0</ele><time>2026-04-26T12:41:08.263Z</time></trkpt><trkpt lat="40.3331597" lon="19.9937443"><ele>132.0</ele><time>2026-04-26T12:41:09.262Z</time></trkpt><trkpt lat="40.332936" lon="19.9938389"><ele>137.5</ele><time>2026-04-26T12:41:10.262Z</time></trkpt><trkpt lat="40.3327074" lon="19.9939216"><ele>143.0</ele><time>2026-04-26T12:41:11.262Z</time></trkpt><trkpt lat="40.3324788" lon="19.9940007"><ele>143.0</ele><time>2026-04-26T12:41:12.262Z</time></trkpt><trkpt lat="40.332254" lon="19.994096"><ele>143.0</ele><time>2026-04-26T12:41:13.263Z</time></trkpt><trkpt lat="40.3320358" lon="19.9942219"><ele>140.5</ele><time>2026-04-26T12:41:14.262Z</time></trkpt><trkpt lat="40.3318239" lon="19.9943683"><ele>138.0</ele><time>2026-04-26T12:41:15.263Z</time></trkpt><trkpt lat="40.331622" lon="19.9945332"><ele>138.0</ele><time>2026-04-26T12:41:16.262Z</time></trkpt><trkpt lat="40.3314311" lon="19.9947225"><ele>138.0</ele><time>2026-04-26T12:41:17.262Z</time></trkpt><trkpt lat="40.3312523" lon="19.9949342"><ele>140.0</ele><time>2026-04-26T12:41:18.263Z</time></trkpt><trkpt lat="40.3310807" lon="19.9951614"><ele>142.0</ele><time>2026-04-26T12:41:19.263Z</time></trkpt><trkpt lat="40.3309129" lon="19.9953945"><ele>142.0</ele><time>2026-04-26T12:41:20.262Z</time></trkpt><trkpt lat="40.3307475" lon="19.9956338"><ele>142.0</ele><time>2026-04-26T12:41:21.262Z</time></trkpt><trkpt lat="40.3305814" lon="19.9958751"><ele>141.5</ele><time>2026-04-26T12:41:22.263Z</time></trkpt><trkpt lat="40.3304179" lon="19.9961127"><ele>141.0</ele><time>2026-04-26T12:41:23.263Z</time></trkpt><trkpt lat="40.3302601" lon="19.9963528"><ele>141.0</ele><time>2026-04-26T12:41:24.263Z</time></trkpt><trkpt lat="40.3301164" lon="19.9965991"><ele>141.0</ele><time>2026-04-26T12:41:25.262Z</time></trkpt><trkpt lat="40.3299786" lon="19.9968449"><ele>137.0</ele><time>2026-04-26T12:41:26.262Z</time></trkpt><trkpt lat="40.3298473" lon="19.997093"><ele>133.0</ele><time>2026-04-26T12:41:27.262Z</time></trkpt><trkpt lat="40.3297171" lon="19.9973356"><ele>139.0</ele><time>2026-04-26T12:41:28.262Z</time></trkpt><trkpt lat="40.3295906" lon="19.9975776"><ele>145.0</ele><time>2026-04-26T12:41:29.262Z</time></trkpt><trkpt lat="40.3294646" lon="19.9978193"><ele>151.0</ele><time>2026-04-26T12:41:30.263Z</time></trkpt><trkpt lat="40.3293398" lon="19.9980612"><ele>151.0</ele><time>2026-04-26T12:41:31.262Z</time></trkpt><trkpt lat="40.3292102" lon="19.998299"><ele>151.0</ele><time>2026-04-26T12:41:32.262Z</time></trkpt><trkpt lat="40.3290743" lon="19.9985284"><ele>151.0</ele><time>2026-04-26T12:41:33.263Z</time></trkpt><trkpt lat="40.3289237" lon="19.9987404"><ele>152.0</ele><time>2026-04-26T12:41:34.262Z</time></trkpt><trkpt lat="40.3287572" lon="19.9989292"><ele>153.0</ele><time>2026-04-26T12:41:35.262Z</time></trkpt><trkpt lat="40.3285754" lon="19.9991022"><ele>154.0</ele><time>2026-04-26T12:41:36.263Z</time></trkpt><trkpt lat="40.3283844" lon="19.9992461"><ele>155.0</ele><time>2026-04-26T12:41:37.263Z</time></trkpt><trkpt lat="40.328191" lon="19.9993814"><ele>156.0</ele><time>2026-04-26T12:41:38.263Z</time></trkpt><trkpt lat="40.327998" lon="19.9995167"><ele>157.0</ele><time>2026-04-26T12:41:39.263Z</time></trkpt><trkpt lat="40.3278131" lon="19.9996576"><ele>157.0</ele><time>2026-04-26T12:41:40.261Z</time></trkpt><trkpt lat="40.3276345" lon="19.9998122"><ele>157.0</ele><time>2026-04-26T12:41:41.262Z</time></trkpt><trkpt lat="40.3274663" lon="19.9999805"><ele>157.0</ele><time>2026-04-26T12:41:42.263Z</time></trkpt><trkpt lat="40.3273083" lon="20.0001643"><ele>163.0</ele><time>2026-04-26T12:41:43.263Z</time></trkpt><trkpt lat="40.3271539" lon="20.0003556"><ele>169.0</ele><time>2026-04-26T12:41:44.262Z</time></trkpt><trkpt lat="40.3269998" lon="20.0005531"><ele>175.0</ele><time>2026-04-26T12:41:45.262Z</time></trkpt><trkpt lat="40.3268436" lon="20.0007529"><ele>176.66666666666669</ele><time>2026-04-26T12:41:46.262Z</time></trkpt><trkpt lat="40.3266887" lon="20.0009559"><ele>178.33333333333334</ele><time>2026-04-26T12:41:47.263Z</time></trkpt><trkpt lat="40.3265349" lon="20.0011627"><ele>180.0</ele><time>2026-04-26T12:41:48.263Z</time></trkpt><trkpt lat="40.3263819" lon="20.0013699"><ele>180.0</ele><time>2026-04-26T12:41:49.263Z</time></trkpt><trkpt lat="40.3262319" lon="20.0015806"><ele>180.0</ele><time>2026-04-26T12:41:50.262Z</time></trkpt><trkpt lat="40.3260886" lon="20.0017933"><ele>180.0</ele><time>2026-04-26T12:41:51.263Z</time></trkpt><trkpt lat="40.3259434" lon="20.0020099"><ele>178.33333333333334</ele><time>2026-04-26T12:41:52.262Z</time></trkpt><trkpt lat="40.3257979" lon="20.0022267"><ele>176.66666666666669</ele><time>2026-04-26T12:41:53.263Z</time></trkpt><trkpt lat="40.3256498" lon="20.0024398"><ele>175.0</ele><time>2026-04-26T12:41:54.263Z</time></trkpt><trkpt lat="40.3255056" lon="20.0026398"><ele>175.0</ele><time>2026-04-26T12:41:55.263Z</time></trkpt><trkpt lat="40.3253673" lon="20.0028279"><ele>175.0</ele><time>2026-04-26T12:41:56.263Z</time></trkpt><trkpt lat="40.3252248" lon="20.0029962"><ele>175.0</ele><time>2026-04-26T12:41:57.262Z</time></trkpt><trkpt lat="40.3250783" lon="20.0031483"><ele>175.0</ele><time>2026-04-26T12:41:58.263Z</time></trkpt><trkpt lat="40.3249261" lon="20.0032868"><ele>175.0</ele><time>2026-04-26T12:41:59.262Z</time></trkpt><trkpt lat="40.3247647" lon="20.0034119"><ele>175.0</ele><time>2026-04-26T12:42:00.263Z</time></trkpt><trkpt lat="40.3245916" lon="20.0035214"><ele>177.0</ele><time>2026-04-26T12:42:01.262Z</time></trkpt><trkpt lat="40.3244169" lon="20.0036173"><ele>179.0</ele><time>2026-04-26T12:42:02.262Z</time></trkpt><trkpt lat="40.3242403" lon="20.0037149"><ele>181.0</ele><time>2026-04-26T12:42:03.263Z</time></trkpt><trkpt lat="40.3240651" lon="20.0038288"><ele>184.0</ele><time>2026-04-26T12:42:04.263Z</time></trkpt><trkpt lat="40.3238936" lon="20.0039667"><ele>187.0</ele><time>2026-04-26T12:42:05.262Z</time></trkpt><trkpt lat="40.3237194" lon="20.0041245"><ele>190.0</ele><time>2026-04-26T12:42:06.263Z</time></trkpt><trkpt lat="40.3235332" lon="20.0043127"><ele>179.0</ele><time>2026-04-26T12:42:07.262Z</time></trkpt><trkpt lat="40.3233438" lon="20.0045193"><ele>168.0</ele><time>2026-04-26T12:42:08.262Z</time></trkpt><trkpt lat="40.3231635" lon="20.0047394"><ele>170.66666666666666</ele><time>2026-04-26T12:42:09.261Z</time></trkpt><trkpt lat="40.3230033" lon="20.0049542"><ele>173.33333333333331</ele><time>2026-04-26T12:42:10.263Z</time></trkpt><trkpt lat="40.3228565" lon="20.0051653"><ele>176.0</ele><time>2026-04-26T12:42:11.262Z</time></trkpt><trkpt lat="40.3227104" lon="20.0053767"><ele>176.0</ele><time>2026-04-26T12:42:12.263Z</time></trkpt><trkpt lat="40.3225573" lon="20.0055765"><ele>176.0</ele><time>2026-04-26T12:42:13.262Z</time></trkpt><trkpt lat="40.3223945" lon="20.0057637"><ele>176.0</ele><time>2026-04-26T12:42:14.263Z</time></trkpt><trkpt lat="40.3222136" lon="20.0059415"><ele>178.0</ele><time>2026-04-26T12:42:15.263Z</time></trkpt><trkpt lat="40.3220187" lon="20.0061243"><ele>180.0</ele><time>2026-04-26T12:42:16.262Z</time></trkpt><trkpt lat="40.3218152" lon="20.0063077"><ele>180.0</ele><time>2026-04-26T12:42:17.262Z</time></trkpt><trkpt lat="40.3215991" lon="20.006501"><ele>180.0</ele><time>2026-04-26T12:42:18.262Z</time></trkpt><trkpt lat="40.3213695" lon="20.0067023"><ele>177.0</ele><time>2026-04-26T12:42:19.262Z</time></trkpt><trkpt lat="40.3211357" lon="20.0068982"><ele>174.0</ele><time>2026-04-26T12:42:20.263Z</time></trkpt><trkpt lat="40.3209032" lon="20.0070861"><ele>174.0</ele><time>2026-04-26T12:42:21.263Z</time></trkpt><trkpt lat="40.3206799" lon="20.007262"><ele>174.0</ele><time>2026-04-26T12:42:22.262Z</time></trkpt><trkpt lat="40.3204687" lon="20.0074246"><ele>172.0</ele><time>2026-04-26T12:42:23.262Z</time></trkpt><trkpt lat="40.320265" lon="20.007584"><ele>170.0</ele><time>2026-04-26T12:42:24.263Z</time></trkpt><trkpt lat="40.3200707" lon="20.0077456"><ele>170.0</ele><time>2026-04-26T12:42:25.262Z</time></trkpt><trkpt lat="40.3198802" lon="20.0079124"><ele>170.0</ele><time>2026-04-26T12:42:26.263Z</time></trkpt><trkpt lat="40.3196888" lon="20.0080861"><ele>170.0</ele><time>2026-04-26T12:42:27.262Z</time></trkpt><trkpt lat="40.3194988" lon="20.0082743"><ele>170.0</ele><time>2026-04-26T12:42:28.263Z</time></trkpt><trkpt lat="40.3192963" lon="20.0084795"><ele>170.0</ele><time>2026-04-26T12:42:29.261Z</time></trkpt><trkpt lat="40.3190771" lon="20.0087039"><ele>170.0</ele><time>2026-04-26T12:42:30.262Z</time></trkpt><trkpt lat="40.3188358" lon="20.0089401"><ele>167.0</ele><time>2026-04-26T12:42:31.262Z</time></trkpt><trkpt lat="40.3185883" lon="20.0091768"><ele>164.0</ele><time>2026-04-26T12:42:32.261Z</time></trkpt><trkpt lat="40.3183579" lon="20.0093935"><ele>164.0</ele><time>2026-04-26T12:42:33.262Z</time></trkpt><trkpt lat="40.318137" lon="20.0095972"><ele>164.0</ele><time>2026-04-26T12:42:34.263Z</time></trkpt><trkpt lat="40.317929" lon="20.0097833"><ele>163.33333333333331</ele><time>2026-04-26T12:42:35.262Z</time></trkpt><trkpt lat="40.3177355" lon="20.0099433"><ele>162.66666666666666</ele><time>2026-04-26T12:42:36.262Z</time></trkpt><trkpt lat="40.3175486" lon="20.0100814"><ele>162.0</ele><time>2026-04-26T12:42:37.263Z</time></trkpt><trkpt lat="40.3173578" lon="20.0102016"><ele>164.0</ele><time>2026-04-26T12:42:38.262Z</time></trkpt><trkpt lat="40.3171659" lon="20.0103027"><ele>166.0</ele><time>2026-04-26T12:42:39.262Z</time></trkpt><trkpt lat="40.3169743" lon="20.0103889"><ele>168.0</ele><time>2026-04-26T12:42:40.262Z</time></trkpt><trkpt lat="40.3167862" lon="20.0104651"><ele>168.0</ele><time>2026-04-26T12:42:41.263Z</time></trkpt><trkpt lat="40.3165954" lon="20.0105357"><ele>168.0</ele><time>2026-04-26T12:42:42.262Z</time></trkpt><trkpt lat="40.3164055" lon="20.0106086"><ele>168.0</ele><time>2026-04-26T12:42:43.263Z</time></trkpt><trkpt lat="40.3162217" lon="20.0106921"><ele>169.33333333333334</ele><time>2026-04-26T12:42:44.263Z</time></trkpt><trkpt lat="40.3160424" lon="20.0107923"><ele>170.66666666666669</ele><time>2026-04-26T12:42:45.263Z</time></trkpt><trkpt lat="40.3158656" lon="20.0109145"><ele>172.0</ele><time>2026-04-26T12:42:46.261Z</time></trkpt><trkpt lat="40.3156967" lon="20.0110546"><ele>166.66666666666669</ele><time>2026-04-26T12:42:47.262Z</time></trkpt><trkpt lat="40.3155407" lon="20.0112158"><ele>161.33333333333334</ele><time>2026-04-26T12:42:48.26Z</time></trkpt><trkpt lat="40.3153979" lon="20.011383"><ele>156.0</ele><time>2026-04-26T12:42:49.263Z</time></trkpt><trkpt lat="40.3152684" lon="20.0115622"><ele>155.66666666666666</ele><time>2026-04-26T12:42:50.262Z</time></trkpt><trkpt lat="40.3151485" lon="20.0117567"><ele>155.33333333333331</ele><time>2026-04-26T12:42:51.263Z</time></trkpt><trkpt lat="40.3150363" lon="20.0119667"><ele>155.0</ele><time>2026-04-26T12:42:52.262Z</time></trkpt><trkpt lat="40.3149322" lon="20.0121923"><ele>155.0</ele><time>2026-04-26T12:42:53.263Z</time></trkpt><trkpt lat="40.3148324" lon="20.0124107"><ele>155.0</ele><time>2026-04-26T12:42:54.263Z</time></trkpt><trkpt lat="40.3147332" lon="20.0126247"><ele>155.0</ele><time>2026-04-26T12:42:55.262Z</time></trkpt><trkpt lat="40.3146278" lon="20.0128355"><ele>156.66666666666666</ele><time>2026-04-26T12:42:56.262Z</time></trkpt><trkpt lat="40.3145095" lon="20.0130405"><ele>158.33333333333334</ele><time>2026-04-26T12:42:57.261Z</time></trkpt><trkpt lat="40.3143816" lon="20.0132315"><ele>160.0</ele><time>2026-04-26T12:42:58.262Z</time></trkpt><trkpt lat="40.3142396" lon="20.0134065"><ele>160.0</ele><time>2026-04-26T12:42:59.262Z</time></trkpt><trkpt lat="40.314083" lon="20.0135607"><ele>160.0</ele><time>2026-04-26T12:43:00.262Z</time></trkpt><trkpt lat="40.313906" lon="20.0137034"><ele>160.0</ele><time>2026-04-26T12:43:01.262Z</time></trkpt><trkpt lat="40.3137035" lon="20.0138397"><ele>162.5</ele><time>2026-04-26T12:43:02.262Z</time></trkpt><trkpt lat="40.3134692" lon="20.0139803"><ele>165.0</ele><time>2026-04-26T12:43:03.263Z</time></trkpt><trkpt lat="40.3132049" lon="20.0141119"><ele>162.5</ele><time>2026-04-26T12:43:04.263Z</time></trkpt><trkpt lat="40.3129285" lon="20.0142294"><ele>160.0</ele><time>2026-04-26T12:43:05.263Z</time></trkpt><trkpt lat="40.3126602" lon="20.0143315"><ele>160.0</ele><time>2026-04-26T12:43:06.262Z</time></trkpt><trkpt lat="40.3124039" lon="20.0144276"><ele>160.0</ele><time>2026-04-26T12:43:07.262Z</time></trkpt><trkpt lat="40.3121648" lon="20.014526"><ele>162.0</ele><time>2026-04-26T12:43:08.262Z</time></trkpt><trkpt lat="40.3119422" lon="20.0146258"><ele>164.0</ele><time>2026-04-26T12:43:09.263Z</time></trkpt><trkpt lat="40.3117267" lon="20.0147381"><ele>164.0</ele><time>2026-04-26T12:43:10.263Z</time></trkpt><trkpt lat="40.3115169" lon="20.0148695"><ele>164.0</ele><time>2026-04-26T12:43:11.263Z</time></trkpt><trkpt lat="40.3113195" lon="20.0150208"><ele>164.66666666666666</ele><time>2026-04-26T12:43:12.262Z</time></trkpt><trkpt lat="40.311142" lon="20.0151863"><ele>165.33333333333334</ele><time>2026-04-26T12:43:13.262Z</time></trkpt><trkpt lat="40.3109751" lon="20.0153655"><ele>166.0</ele><time>2026-04-26T12:43:14.261Z</time></trkpt><trkpt lat="40.3108187" lon="20.0155451"><ele>166.0</ele><time>2026-04-26T12:43:15.261Z</time></trkpt><trkpt lat="40.3106697" lon="20.015724"><ele>166.0</ele><time>2026-04-26T12:43:16.262Z</time></trkpt><trkpt lat="40.3105227" lon="20.0158909"><ele>166.0</ele><time>2026-04-26T12:43:17.262Z</time></trkpt><trkpt lat="40.3103747" lon="20.0160352"><ele>166.0</ele><time>2026-04-26T12:43:18.262Z</time></trkpt><trkpt lat="40.3102183" lon="20.0161509"><ele>166.0</ele><time>2026-04-26T12:43:19.263Z</time></trkpt><trkpt lat="40.3100526" lon="20.0162379"><ele>166.0</ele><time>2026-04-26T12:43:20.263Z</time></trkpt><trkpt lat="40.3098811" lon="20.0162991"><ele>163.66666666666669</ele><time>2026-04-26T12:43:21.262Z</time></trkpt><trkpt lat="40.3097051" lon="20.0163364"><ele>161.33333333333334</ele><time>2026-04-26T12:43:22.262Z</time></trkpt><trkpt lat="40.3095225" lon="20.0163496"><ele>159.0</ele><time>2026-04-26T12:43:23.263Z</time></trkpt><trkpt lat="40.309335" lon="20.0163463"><ele>159.0</ele><time>2026-04-26T12:43:24.262Z</time></trkpt><trkpt lat="40.3091447" lon="20.0163309"><ele>159.0</ele><time>2026-04-26T12:43:25.263Z</time></trkpt><trkpt lat="40.3089514" lon="20.0163097"><ele>159.0</ele><time>2026-04-26T12:43:26.263Z</time></trkpt><trkpt lat="40.3087599" lon="20.0162888"><ele>158.33333333333334</ele><time>2026-04-26T12:43:27.261Z</time></trkpt><trkpt lat="40.3085724" lon="20.0162687"><ele>157.66666666666669</ele><time>2026-04-26T12:43:28.262Z</time></trkpt><trkpt lat="40.3083913" lon="20.01625"><ele>157.0</ele><time>2026-04-26T12:43:29.262Z</time></trkpt><trkpt lat="40.3082092" lon="20.0162359"><ele>154.0</ele><time>2026-04-26T12:43:30.262Z</time></trkpt><trkpt lat="40.3080202" lon="20.0162347"><ele>151.0</ele><time>2026-04-26T12:43:31.263Z</time></trkpt><trkpt lat="40.3078278" lon="20.0162525"><ele>148.0</ele><time>2026-04-26T12:43:32.262Z</time></trkpt><trkpt lat="40.3076376" lon="20.0162938"><ele>148.0</ele><time>2026-04-26T12:43:33.262Z</time></trkpt><trkpt lat="40.3074497" lon="20.0163546"><ele>148.0</ele><time>2026-04-26T12:43:34.263Z</time></trkpt><trkpt lat="40.3072625" lon="20.0164376"><ele>148.0</ele><time>2026-04-26T12:43:35.262Z</time></trkpt><trkpt lat="40.3070603" lon="20.0165496"><ele>142.0</ele><time>2026-04-26T12:43:36.262Z</time></trkpt><trkpt lat="40.3068375" lon="20.0166924"><ele>136.0</ele><time>2026-04-26T12:43:37.262Z</time></trkpt><trkpt lat="40.306589" lon="20.0168575"><ele>134.0</ele><time>2026-04-26T12:43:38.262Z</time></trkpt><trkpt lat="40.3063212" lon="20.0170155"><ele>132.0</ele><time>2026-04-26T12:43:39.261Z</time></trkpt><trkpt lat="40.3060487" lon="20.0171623"><ele>132.0</ele><time>2026-04-26T12:43:40.263Z</time></trkpt><trkpt lat="40.3057938" lon="20.0173017"><ele>132.0</ele><time>2026-04-26T12:43:41.263Z</time></trkpt><trkpt lat="40.3055508" lon="20.0174438"><ele>136.0</ele><time>2026-04-26T12:43:42.262Z</time></trkpt><trkpt lat="40.3053173" lon="20.0175853"><ele>140.0</ele><time>2026-04-26T12:43:43.26Z</time></trkpt><trkpt lat="40.3050982" lon="20.0177195"><ele>140.0</ele><time>2026-04-26T12:43:44.263Z</time></trkpt><trkpt lat="40.3048989" lon="20.0178582"><ele>140.0</ele><time>2026-04-26T12:43:45.262Z</time></trkpt><trkpt lat="40.304709" lon="20.0180085"><ele>140.0</ele><time>2026-04-26T12:43:46.262Z</time></trkpt><trkpt lat="40.3045321" lon="20.0181729"><ele>142.0</ele><time>2026-04-26T12:43:47.262Z</time></trkpt><trkpt lat="40.3043624" lon="20.0183462"><ele>144.0</ele><time>2026-04-26T12:43:48.262Z</time></trkpt><trkpt lat="40.3042041" lon="20.0185251"><ele>146.0</ele><time>2026-04-26T12:43:49.262Z</time></trkpt><trkpt lat="40.3040539" lon="20.0187001"><ele>147.0</ele><time>2026-04-26T12:43:50.262Z</time></trkpt><trkpt lat="40.3039097" lon="20.0188716"><ele>148.0</ele><time>2026-04-26T12:43:51.262Z</time></trkpt><trkpt lat="40.3037664" lon="20.0190406"><ele>149.0</ele><time>2026-04-26T12:43:52.263Z</time></trkpt><trkpt lat="40.3036249" lon="20.0192139"><ele>149.0</ele><time>2026-04-26T12:43:53.262Z</time></trkpt><trkpt lat="40.3034767" lon="20.0193817"><ele>149.0</ele><time>2026-04-26T12:43:54.262Z</time></trkpt><trkpt lat="40.3033298" lon="20.0195481"><ele>149.0</ele><time>2026-04-26T12:43:55.263Z</time></trkpt><trkpt lat="40.3031799" lon="20.0197202"><ele>149.0</ele><time>2026-04-26T12:43:56.262Z</time></trkpt><trkpt lat="40.3030287" lon="20.0198942"><ele>149.0</ele><time>2026-04-26T12:43:57.262Z</time></trkpt><trkpt lat="40.3028802" lon="20.0200718"><ele>149.0</ele><time>2026-04-26T12:43:58.262Z</time></trkpt><trkpt lat="40.3027336" lon="20.0202454"><ele>149.0</ele><time>2026-04-26T12:43:59.262Z</time></trkpt><trkpt lat="40.3025865" lon="20.020417"><ele>149.0</ele><time>2026-04-26T12:44:00.262Z</time></trkpt><trkpt lat="40.3024442" lon="20.0205798"><ele>149.0</ele><time>2026-04-26T12:44:01.261Z</time></trkpt><trkpt lat="40.3023103" lon="20.0207367"><ele>149.66666666666666</ele><time>2026-04-26T12:44:02.262Z</time></trkpt><trkpt lat="40.3021816" lon="20.0208824"><ele>150.33333333333334</ele><time>2026-04-26T12:44:03.262Z</time></trkpt><trkpt lat="40.3020572" lon="20.0210267"><ele>151.0</ele><time>2026-04-26T12:44:04.263Z</time></trkpt><trkpt lat="40.3019356" lon="20.0211678"><ele>151.0</ele><time>2026-04-26T12:44:05.262Z</time></trkpt><trkpt lat="40.3018187" lon="20.0213118"><ele>151.0</ele><time>2026-04-26T12:44:06.262Z</time></trkpt><trkpt lat="40.3017206" lon="20.0214739"><ele>151.0</ele><time>2026-04-26T12:44:07.262Z</time></trkpt><trkpt lat="40.301643" lon="20.0216511"><ele>150.33333333333334</ele><time>2026-04-26T12:44:08.263Z</time></trkpt><trkpt lat="40.3015808" lon="20.0218353"><ele>149.66666666666666</ele><time>2026-04-26T12:44:09.262Z</time></trkpt><trkpt lat="40.3015197" lon="20.0220177"><ele>149.0</ele><time>2026-04-26T12:44:10.263Z</time></trkpt><trkpt lat="40.3014537" lon="20.0221927"><ele>151.75</ele><time>2026-04-26T12:44:11.263Z</time></trkpt><trkpt lat="40.3013785" lon="20.0223613"><ele>154.5</ele><time>2026-04-26T12:44:12.263Z</time></trkpt><trkpt lat="40.3012906" lon="20.0225113"><ele>157.25</ele><time>2026-04-26T12:44:13.263Z</time></trkpt><trkpt lat="40.3011836" lon="20.0226289"><ele>160.0</ele><time>2026-04-26T12:44:14.263Z</time></trkpt><trkpt lat="40.3010685" lon="20.0227113"><ele>160.0</ele><time>2026-04-26T12:44:15.262Z</time></trkpt><trkpt lat="40.3009434" lon="20.0227666"><ele>160.0</ele><time>2026-04-26T12:44:16.263Z</time></trkpt><trkpt lat="40.3008034" lon="20.0227914"><ele>160.0</ele><time>2026-04-26T12:44:17.26Z</time></trkpt><trkpt lat="40.300652" lon="20.0227855"><ele>160.0</ele><time>2026-04-26T12:44:18.262Z</time></trkpt><trkpt lat="40.3004779" lon="20.0227514"><ele>164.66666666666669</ele><time>2026-04-26T12:44:19.262Z</time></trkpt><trkpt lat="40.3003177" lon="20.0227134"><ele>169.33333333333334</ele><time>2026-04-26T12:44:20.263Z</time></trkpt><trkpt lat="40.3001561" lon="20.0226798"><ele>174.0</ele><time>2026-04-26T12:44:21.263Z</time></trkpt><trkpt lat="40.2999942" lon="20.022647"><ele>174.0</ele><time>2026-04-26T12:44:22.261Z</time></trkpt><trkpt lat="40.2998304" lon="20.022612"><ele>174.0</ele><time>2026-04-26T12:44:23.262Z</time></trkpt><trkpt lat="40.2996685" lon="20.0225817"><ele>174.0</ele><time>2026-04-26T12:44:24.263Z</time></trkpt><trkpt lat="40.2995044" lon="20.0225605"><ele>174.0</ele><time>2026-04-26T12:44:25.263Z</time></trkpt><trkpt lat="40.2993369" lon="20.0225533"><ele>174.0</ele><time>2026-04-26T12:44:26.262Z</time></trkpt><trkpt lat="40.2991631" lon="20.0225508"><ele>174.0</ele><time>2026-04-26T12:44:27.262Z</time></trkpt><trkpt lat="40.2989886" lon="20.0225456"><ele>175.0</ele><time>2026-04-26T12:44:28.263Z</time></trkpt><trkpt lat="40.2988127" lon="20.0225452"><ele>176.0</ele><time>2026-04-26T12:44:29.262Z</time></trkpt><trkpt lat="40.2986335" lon="20.0225385"><ele>177.0</ele><time>2026-04-26T12:44:30.262Z</time></trkpt><trkpt lat="40.2984589" lon="20.022534"><ele>177.0</ele><time>2026-04-26T12:44:31.262Z</time></trkpt><trkpt lat="40.2982836" lon="20.022528"><ele>177.0</ele><time>2026-04-26T12:44:32.263Z</time></trkpt><trkpt lat="40.2981114" lon="20.0225112"><ele>177.0</ele><time>2026-04-26T12:44:33.263Z</time></trkpt><trkpt lat="40.2979367" lon="20.0224838"><ele>182.33333333333331</ele><time>2026-04-26T12:44:34.261Z</time></trkpt><trkpt lat="40.2977608" lon="20.022442"><ele>187.66666666666666</ele><time>2026-04-26T12:44:35.262Z</time></trkpt><trkpt lat="40.2975904" lon="20.0223999"><ele>193.0</ele><time>2026-04-26T12:44:36.262Z</time></trkpt><trkpt lat="40.2974184" lon="20.0223566"><ele>193.33333333333331</ele><time>2026-04-26T12:44:37.261Z</time></trkpt><trkpt lat="40.2972465" lon="20.0223116"><ele>193.66666666666669</ele><time>2026-04-26T12:44:38.262Z</time></trkpt><trkpt lat="40.2970797" lon="20.0222671"><ele>194.0</ele><time>2026-04-26T12:44:39.261Z</time></trkpt><trkpt lat="40.2969023" lon="20.0222115"><ele>194.0</ele><time>2026-04-26T12:44:40.263Z</time></trkpt><trkpt lat="40.2967257" lon="20.022149"><ele>194.0</ele><time>2026-04-26T12:44:41.262Z</time></trkpt><trkpt lat="40.2965457" lon="20.0220837"><ele>194.0</ele><time>2026-04-26T12:44:42.263Z</time></trkpt><trkpt lat="40.2963646" lon="20.022017"><ele>193.66666666666669</ele><time>2026-04-26T12:44:43.262Z</time></trkpt><trkpt lat="40.2961753" lon="20.0219488"><ele>193.33333333333331</ele><time>2026-04-26T12:44:44.262Z</time></trkpt><trkpt lat="40.2959829" lon="20.0218844"><ele>193.0</ele><time>2026-04-26T12:44:45.262Z</time></trkpt><trkpt lat="40.2957888" lon="20.0218331"><ele>193.0</ele><time>2026-04-26T12:44:46.262Z</time></trkpt><trkpt lat="40.2955896" lon="20.0217916"><ele>193.0</ele><time>2026-04-26T12:44:47.263Z</time></trkpt><trkpt lat="40.2953874" lon="20.0217517"><ele>193.0</ele><time>2026-04-26T12:44:48.262Z</time></trkpt><trkpt lat="40.2951892" lon="20.0217167"><ele>192.33333333333331</ele><time>2026-04-26T12:44:49.263Z</time></trkpt><trkpt lat="40.2949925" lon="20.0216744"><ele>191.66666666666666</ele><time>2026-04-26T12:44:50.263Z</time></trkpt><trkpt lat="40.2948035" lon="20.0216299"><ele>191.0</ele><time>2026-04-26T12:44:51.262Z</time></trkpt><trkpt lat="40.2946157" lon="20.0215905"><ele>193.66666666666666</ele><time>2026-04-26T12:44:52.261Z</time></trkpt><trkpt lat="40.2944452" lon="20.0215532"><ele>196.33333333333331</ele><time>2026-04-26T12:44:53.263Z</time></trkpt><trkpt lat="40.2942851" lon="20.0215204"><ele>199.0</ele><time>2026-04-26T12:44:54.263Z</time></trkpt><trkpt lat="40.2941403" lon="20.0214932"><ele>199.0</ele><time>2026-04-26T12:44:55.263Z</time></trkpt><trkpt lat="40.2940014" lon="20.0214593"><ele>199.0</ele><time>2026-04-26T12:44:56.263Z</time></trkpt><trkpt lat="40.2938772" lon="20.0214227"><ele>199.0</ele><time>2026-04-26T12:44:57.262Z</time></trkpt><trkpt lat="40.2937662" lon="20.0213736"><ele>199.0</ele><time>2026-04-26T12:44:58.263Z</time></trkpt><trkpt lat="40.2936601" lon="20.0213156"><ele>199.83333333333331</ele><time>2026-04-26T12:44:59.263Z</time></trkpt><trkpt lat="40.2935739" lon="20.0212555"><ele>200.66666666666666</ele><time>2026-04-26T12:45:00.263Z</time></trkpt><trkpt lat="40.2935054" lon="20.0211963"><ele>201.5</ele><time>2026-04-26T12:45:01.262Z</time></trkpt><trkpt lat="40.2934391" lon="20.0211538"><ele>202.33333333333331</ele><time>2026-04-26T12:45:02.262Z</time></trkpt><trkpt lat="40.2933608" lon="20.0211371"><ele>203.16666666666666</ele><time>2026-04-26T12:45:03.263Z</time></trkpt><trkpt lat="40.2932756" lon="20.0211327"><ele>204.0</ele><time>2026-04-26T12:45:04.262Z</time></trkpt><trkpt lat="40.2931762" lon="20.0211349"><ele>209.0</ele><time>2026-04-26T12:45:05.262Z</time></trkpt><trkpt lat="40.2930627" lon="20.0211475"><ele>214.0</ele><time>2026-04-26T12:45:06.262Z</time></trkpt><trkpt lat="40.2929404" lon="20.0211827"><ele>219.0</ele><time>2026-04-26T12:45:07.262Z</time></trkpt><trkpt lat="40.2928211" lon="20.0212371"><ele>224.0</ele><time>2026-04-26T12:45:08.262Z</time></trkpt><trkpt lat="40.2927003" lon="20.0213087"><ele>224.0</ele><time>2026-04-26T12:45:09.262Z</time></trkpt><trkpt lat="40.2925801" lon="20.021388"><ele>224.0</ele><time>2026-04-26T12:45:10.262Z</time></trkpt><trkpt lat="40.2924561" lon="20.0214753"><ele>224.0</ele><time>2026-04-26T12:45:11.263Z</time></trkpt><trkpt lat="40.292327" lon="20.0215714"><ele>224.0</ele><time>2026-04-26T12:45:12.262Z</time></trkpt><trkpt lat="40.2921966" lon="20.0216742"><ele>219.33333333333334</ele><time>2026-04-26T12:45:13.262Z</time></trkpt><trkpt lat="40.2920652" lon="20.0217726"><ele>214.66666666666669</ele><time>2026-04-26T12:45:14.262Z</time></trkpt><trkpt lat="40.2919323" lon="20.0218753"><ele>210.0</ele><time>2026-04-26T12:45:15.263Z</time></trkpt><trkpt lat="40.2918071" lon="20.0219926"><ele>210.0</ele><time>2026-04-26T12:45:16.263Z</time></trkpt><trkpt lat="40.2916787" lon="20.0221249"><ele>210.0</ele><time>2026-04-26T12:45:17.262Z</time></trkpt><trkpt lat="40.2915536" lon="20.0222678"><ele>210.0</ele><time>2026-04-26T12:45:18.262Z</time></trkpt><trkpt lat="40.2914269" lon="20.0224079"><ele>210.66666666666669</ele><time>2026-04-26T12:45:19.261Z</time></trkpt><trkpt lat="40.2913005" lon="20.0225504"><ele>211.33333333333334</ele><time>2026-04-26T12:45:20.262Z</time></trkpt><trkpt lat="40.2911708" lon="20.0226936"><ele>212.0</ele><time>2026-04-26T12:45:21.263Z</time></trkpt><trkpt lat="40.2910451" lon="20.0228396"><ele>212.0</ele><time>2026-04-26T12:45:22.262Z</time></trkpt><trkpt lat="40.2909191" lon="20.0229827"><ele>212.0</ele><time>2026-04-26T12:45:23.262Z</time></trkpt><trkpt lat="40.2907779" lon="20.0231234"><ele>212.0</ele><time>2026-04-26T12:45:24.263Z</time></trkpt><trkpt lat="40.2906259" lon="20.0232423"><ele>210.33333333333334</ele><time>2026-04-26T12:45:25.261Z</time></trkpt><trkpt lat="40.2904692" lon="20.0233672"><ele>208.66666666666669</ele><time>2026-04-26T12:45:26.263Z</time></trkpt><trkpt lat="40.2903185" lon="20.0235084"><ele>207.0</ele><time>2026-04-26T12:45:27.262Z</time></trkpt><trkpt lat="40.2901659" lon="20.0236559"><ele>207.0</ele><time>2026-04-26T12:45:28.262Z</time></trkpt><trkpt lat="40.290023" lon="20.0237985"><ele>207.0</ele><time>2026-04-26T12:45:29.262Z</time></trkpt><trkpt lat="40.2898725" lon="20.0239272"><ele>207.0</ele><time>2026-04-26T12:45:30.263Z</time></trkpt><trkpt lat="40.2897164" lon="20.0240485"><ele>202.33333333333331</ele><time>2026-04-26T12:45:31.262Z</time></trkpt><trkpt lat="40.2895505" lon="20.0241584"><ele>197.66666666666666</ele><time>2026-04-26T12:45:32.26Z</time></trkpt><trkpt lat="40.2893807" lon="20.0242719"><ele>193.0</ele><time>2026-04-26T12:45:33.263Z</time></trkpt><trkpt lat="40.2892133" lon="20.0243905"><ele>193.0</ele><time>2026-04-26T12:45:34.262Z</time></trkpt><trkpt lat="40.2890482" lon="20.0245262"><ele>193.0</ele><time>2026-04-26T12:45:35.261Z</time></trkpt><trkpt lat="40.2888962" lon="20.0246902"><ele>193.0</ele><time>2026-04-26T12:45:36.262Z</time></trkpt><trkpt lat="40.2887489" lon="20.0248704"><ele>193.33333333333331</ele><time>2026-04-26T12:45:37.26Z</time></trkpt><trkpt lat="40.2886069" lon="20.0250594"><ele>193.66666666666669</ele><time>2026-04-26T12:45:38.263Z</time></trkpt><trkpt lat="40.2884683" lon="20.0252499"><ele>194.0</ele><time>2026-04-26T12:45:39.262Z</time></trkpt><trkpt lat="40.2883365" lon="20.0254459"><ele>194.0</ele><time>2026-04-26T12:45:40.262Z</time></trkpt><trkpt lat="40.2882133" lon="20.0256444"><ele>194.0</ele><time>2026-04-26T12:45:41.263Z</time></trkpt><trkpt lat="40.2880902" lon="20.0258456"><ele>194.0</ele><time>2026-04-26T12:45:42.262Z</time></trkpt><trkpt lat="40.2879776" lon="20.0260371"><ele>200.0</ele><time>2026-04-26T12:45:43.261Z</time></trkpt><trkpt lat="40.2878573" lon="20.026216"><ele>206.0</ele><time>2026-04-26T12:45:44.263Z</time></trkpt><trkpt lat="40.2877277" lon="20.0263852"><ele>212.0</ele><time>2026-04-26T12:45:45.262Z</time></trkpt><trkpt lat="40.2875898" lon="20.0265387"><ele>213.66666666666669</ele><time>2026-04-26T12:45:46.262Z</time></trkpt><trkpt lat="40.2874473" lon="20.026694"><ele>215.33333333333331</ele><time>2026-04-26T12:45:47.261Z</time></trkpt><trkpt lat="40.2872979" lon="20.0268469"><ele>217.0</ele><time>2026-04-26T12:45:48.261Z</time></trkpt><trkpt lat="40.2871381" lon="20.0270004"><ele>217.0</ele><time>2026-04-26T12:45:49.261Z</time></trkpt><trkpt lat="40.2869761" lon="20.0271527"><ele>217.0</ele><time>2026-04-26T12:45:50.262Z</time></trkpt><trkpt lat="40.2868119" lon="20.0273083"><ele>217.0</ele><time>2026-04-26T12:45:51.262Z</time></trkpt><trkpt lat="40.2866509" lon="20.0274626"><ele>210.66666666666666</ele><time>2026-04-26T12:45:52.261Z</time></trkpt><trkpt lat="40.2864885" lon="20.027618"><ele>204.33333333333331</ele><time>2026-04-26T12:45:53.262Z</time></trkpt><trkpt lat="40.286325" lon="20.0277683"><ele>198.0</ele><time>2026-04-26T12:45:54.262Z</time></trkpt><trkpt lat="40.2861588" lon="20.027902"><ele>198.0</ele><time>2026-04-26T12:45:55.262Z</time></trkpt><trkpt lat="40.2859894" lon="20.0280188"><ele>198.0</ele><time>2026-04-26T12:45:56.263Z</time></trkpt><trkpt lat="40.2858128" lon="20.0281153"><ele>198.0</ele><time>2026-04-26T12:45:57.261Z</time></trkpt><trkpt lat="40.285628" lon="20.0281936"><ele>202.0</ele><time>2026-04-26T12:45:58.262Z</time></trkpt><trkpt lat="40.2854387" lon="20.0282695"><ele>206.0</ele><time>2026-04-26T12:45:59.263Z</time></trkpt><trkpt lat="40.285243" lon="20.0283552"><ele>210.0</ele><time>2026-04-26T12:46:00.263Z</time></trkpt><trkpt lat="40.2850468" lon="20.0284482"><ele>205.33333333333331</ele><time>2026-04-26T12:46:01.262Z</time></trkpt><trkpt lat="40.284857" lon="20.0285568"><ele>200.66666666666666</ele><time>2026-04-26T12:46:02.262Z</time></trkpt><trkpt lat="40.2846736" lon="20.0286687"><ele>196.0</ele><time>2026-04-26T12:46:03.261Z</time></trkpt><trkpt lat="40.2844947" lon="20.0287957"><ele>196.0</ele><time>2026-04-26T12:46:04.263Z</time></trkpt><trkpt lat="40.28432" lon="20.0289489"><ele>196.0</ele><time>2026-04-26T12:46:05.262Z</time></trkpt><trkpt lat="40.2841518" lon="20.0291288"><ele>196.0</ele><time>2026-04-26T12:46:06.262Z</time></trkpt><trkpt lat="40.2839879" lon="20.0293219"><ele>200.0</ele><time>2026-04-26T12:46:07.262Z</time></trkpt><trkpt lat="40.2838248" lon="20.0295121"><ele>204.0</ele><time>2026-04-26T12:46:08.263Z</time></trkpt><trkpt lat="40.2836596" lon="20.0296978"><ele>208.0</ele><time>2026-04-26T12:46:09.262Z</time></trkpt><trkpt lat="40.2834904" lon="20.0298772"><ele>204.33333333333331</ele><time>2026-04-26T12:46:10.263Z</time></trkpt><trkpt lat="40.2833178" lon="20.0300469"><ele>200.66666666666669</ele><time>2026-04-26T12:46:11.263Z</time></trkpt><trkpt lat="40.2831401" lon="20.0302083"><ele>197.0</ele><time>2026-04-26T12:46:12.262Z</time></trkpt><trkpt lat="40.2829604" lon="20.030362"><ele>197.0</ele><time>2026-04-26T12:46:13.263Z</time></trkpt><trkpt lat="40.2827724" lon="20.0305054"><ele>197.0</ele><time>2026-04-26T12:46:14.262Z</time></trkpt><trkpt lat="40.2825812" lon="20.0306403"><ele>197.0</ele><time>2026-04-26T12:46:15.261Z</time></trkpt><trkpt lat="40.2823922" lon="20.0307688"><ele>195.33333333333334</ele><time>2026-04-26T12:46:16.263Z</time></trkpt><trkpt lat="40.282208" lon="20.0308867"><ele>193.66666666666669</ele><time>2026-04-26T12:46:17.262Z</time></trkpt><trkpt lat="40.2820299" lon="20.031004"><ele>192.0</ele><time>2026-04-26T12:46:18.263Z</time></trkpt><trkpt lat="40.2818563" lon="20.0311161"><ele>192.0</ele><time>2026-04-26T12:46:19.261Z</time></trkpt><trkpt lat="40.281688" lon="20.0312281"><ele>192.0</ele><time>2026-04-26T12:46:20.262Z</time></trkpt><trkpt lat="40.281521" lon="20.0313418"><ele>192.0</ele><time>2026-04-26T12:46:21.263Z</time></trkpt><trkpt lat="40.2813546" lon="20.0314548"><ele>190.66666666666666</ele><time>2026-04-26T12:46:22.26Z</time></trkpt><trkpt lat="40.2811951" lon="20.0315824"><ele>189.33333333333331</ele><time>2026-04-26T12:46:23.262Z</time></trkpt><trkpt lat="40.2810377" lon="20.0317206"><ele>188.0</ele><time>2026-04-26T12:46:24.263Z</time></trkpt><trkpt lat="40.2808834" lon="20.0318703"><ele>188.0</ele><time>2026-04-26T12:46:25.263Z</time></trkpt><trkpt lat="40.2807309" lon="20.0320246"><ele>188.0</ele><time>2026-04-26T12:46:26.262Z</time></trkpt><trkpt lat="40.2805793" lon="20.0321778"><ele>188.0</ele><time>2026-04-26T12:46:27.261Z</time></trkpt><trkpt lat="40.2804288" lon="20.0323309"><ele>187.33333333333331</ele><time>2026-04-26T12:46:28.263Z</time></trkpt><trkpt lat="40.280272" lon="20.0324741"><ele>186.66666666666666</ele><time>2026-04-26T12:46:29.26Z</time></trkpt><trkpt lat="40.2801114" lon="20.0326114"><ele>186.0</ele><time>2026-04-26T12:46:30.262Z</time></trkpt><trkpt lat="40.2799441" lon="20.0327395"><ele>186.0</ele><time>2026-04-26T12:46:31.263Z</time></trkpt><trkpt lat="40.2797702" lon="20.0328605"><ele>186.0</ele><time>2026-04-26T12:46:32.263Z</time></trkpt><trkpt lat="40.2795941" lon="20.0329809"><ele>186.0</ele><time>2026-04-26T12:46:33.263Z</time></trkpt><trkpt lat="40.2794203" lon="20.033099"><ele>184.33333333333334</ele><time>2026-04-26T12:46:34.262Z</time></trkpt><trkpt lat="40.2792503" lon="20.0332343"><ele>182.66666666666669</ele><time>2026-04-26T12:46:35.262Z</time></trkpt><trkpt lat="40.2790923" lon="20.0333825"><ele>181.0</ele><time>2026-04-26T12:46:36.262Z</time></trkpt><trkpt lat="40.2789448" lon="20.0335484"><ele>186.0</ele><time>2026-04-26T12:46:37.261Z</time></trkpt><trkpt lat="40.2787993" lon="20.0337351"><ele>191.0</ele><time>2026-04-26T12:46:38.263Z</time></trkpt><trkpt lat="40.2786615" lon="20.0339366"><ele>196.0</ele><time>2026-04-26T12:46:39.262Z</time></trkpt><trkpt lat="40.2785304" lon="20.0341412"><ele>196.0</ele><time>2026-04-26T12:46:40.262Z</time></trkpt><trkpt lat="40.2784014" lon="20.0343488"><ele>196.0</ele><time>2026-04-26T12:46:41.262Z</time></trkpt><trkpt lat="40.2782736" lon="20.0345453"><ele>196.0</ele><time>2026-04-26T12:46:42.262Z</time></trkpt><trkpt lat="40.2781441" lon="20.0347337"><ele>197.66666666666666</ele><time>2026-04-26T12:46:43.262Z</time></trkpt><trkpt lat="40.2780173" lon="20.034901"><ele>199.33333333333331</ele><time>2026-04-26T12:46:44.261Z</time></trkpt><trkpt lat="40.2778849" lon="20.0350638"><ele>201.0</ele><time>2026-04-26T12:46:45.263Z</time></trkpt><trkpt lat="40.2777453" lon="20.035215"><ele>201.0</ele><time>2026-04-26T12:46:46.263Z</time></trkpt><trkpt lat="40.2775917" lon="20.035358"><ele>201.0</ele><time>2026-04-26T12:46:47.263Z</time></trkpt><trkpt lat="40.2774285" lon="20.0354961"><ele>201.0</ele><time>2026-04-26T12:46:48.263Z</time></trkpt><trkpt lat="40.2772577" lon="20.0356328"><ele>198.0</ele><time>2026-04-26T12:46:49.263Z</time></trkpt><trkpt lat="40.2770861" lon="20.0357745"><ele>195.0</ele><time>2026-04-26T12:46:50.259Z</time></trkpt><trkpt lat="40.2769131" lon="20.0359196"><ele>192.0</ele><time>2026-04-26T12:46:51.262Z</time></trkpt><trkpt lat="40.2767298" lon="20.0360669"><ele>192.0</ele><time>2026-04-26T12:46:52.263Z</time></trkpt><trkpt lat="40.276551" lon="20.0362133"><ele>192.0</ele><time>2026-04-26T12:46:53.261Z</time></trkpt><trkpt lat="40.2763706" lon="20.0363558"><ele>192.0</ele><time>2026-04-26T12:46:54.263Z</time></trkpt><trkpt lat="40.2761874" lon="20.036498"><ele>190.33333333333334</ele><time>2026-04-26T12:46:55.262Z</time></trkpt><trkpt lat="40.276" lon="20.0366331"><ele>188.66666666666669</ele><time>2026-04-26T12:46:56.263Z</time></trkpt><trkpt lat="40.2758111" lon="20.0367629"><ele>187.0</ele><time>2026-04-26T12:46:57.261Z</time></trkpt><trkpt lat="40.2756179" lon="20.0368842"><ele>190.66666666666669</ele><time>2026-04-26T12:46:58.263Z</time></trkpt><trkpt lat="40.2754189" lon="20.0369856"><ele>194.33333333333334</ele><time>2026-04-26T12:46:59.261Z</time></trkpt><trkpt lat="40.2752163" lon="20.0370709"><ele>198.0</ele><time>2026-04-26T12:47:00.262Z</time></trkpt><trkpt lat="40.2750153" lon="20.0371471"><ele>198.0</ele><time>2026-04-26T12:47:01.261Z</time></trkpt><trkpt lat="40.2748158" lon="20.0372171"><ele>198.0</ele><time>2026-04-26T12:47:02.262Z</time></trkpt><trkpt lat="40.2746165" lon="20.037287"><ele>198.0</ele><time>2026-04-26T12:47:03.263Z</time></trkpt><trkpt lat="40.2744153" lon="20.037352"><ele>197.33333333333331</ele><time>2026-04-26T12:47:04.262Z</time></trkpt><trkpt lat="40.2742098" lon="20.037417"><ele>196.66666666666666</ele><time>2026-04-26T12:47:05.261Z</time></trkpt><trkpt lat="40.2740036" lon="20.0374781"><ele>196.0</ele><time>2026-04-26T12:47:06.26Z</time></trkpt><trkpt lat="40.2737998" lon="20.0375425"><ele>198.0</ele><time>2026-04-26T12:47:07.262Z</time></trkpt><trkpt lat="40.2735967" lon="20.0376122"><ele>200.0</ele><time>2026-04-26T12:47:08.262Z</time></trkpt><trkpt lat="40.2733982" lon="20.0376968"><ele>202.0</ele><time>2026-04-26T12:47:09.263Z</time></trkpt><trkpt lat="40.2732077" lon="20.0378049"><ele>202.33333333333331</ele><time>2026-04-26T12:47:10.261Z</time></trkpt><trkpt lat="40.2730237" lon="20.0379294"><ele>202.66666666666669</ele><time>2026-04-26T12:47:11.262Z</time></trkpt><trkpt lat="40.2728482" lon="20.0380717"><ele>203.0</ele><time>2026-04-26T12:47:12.263Z</time></trkpt><trkpt lat="40.2726764" lon="20.0382259"><ele>200.66666666666669</ele><time>2026-04-26T12:47:13.262Z</time></trkpt><trkpt lat="40.272511" lon="20.0384001"><ele>198.33333333333331</ele><time>2026-04-26T12:47:14.261Z</time></trkpt><trkpt lat="40.2723549" lon="20.0386001"><ele>196.0</ele><time>2026-04-26T12:47:15.262Z</time></trkpt><trkpt lat="40.272209" lon="20.0388145"><ele>196.0</ele><time>2026-04-26T12:47:16.263Z</time></trkpt><trkpt lat="40.2720724" lon="20.0390488"><ele>196.0</ele><time>2026-04-26T12:47:17.263Z</time></trkpt><trkpt lat="40.2719472" lon="20.039297"><ele>196.0</ele><time>2026-04-26T12:47:18.261Z</time></trkpt><trkpt lat="40.2718229" lon="20.039555"><ele>196.0</ele><time>2026-04-26T12:47:19.263Z</time></trkpt><trkpt lat="40.2717022" lon="20.0398184"><ele>192.5</ele><time>2026-04-26T12:47:20.263Z</time></trkpt><trkpt lat="40.2715839" lon="20.0400871"><ele>189.0</ele><time>2026-04-26T12:47:21.262Z</time></trkpt><trkpt lat="40.2714623" lon="20.0403563"><ele>192.5</ele><time>2026-04-26T12:47:22.262Z</time></trkpt><trkpt lat="40.2713388" lon="20.0406256"><ele>196.0</ele><time>2026-04-26T12:47:23.263Z</time></trkpt><trkpt lat="40.2712144" lon="20.0408949"><ele>196.0</ele><time>2026-04-26T12:47:24.261Z</time></trkpt><trkpt lat="40.2710906" lon="20.0411616"><ele>196.0</ele><time>2026-04-26T12:47:25.263Z</time></trkpt><trkpt lat="40.2709746" lon="20.0414245"><ele>193.5</ele><time>2026-04-26T12:47:26.262Z</time></trkpt><trkpt lat="40.2708542" lon="20.0416846"><ele>191.0</ele><time>2026-04-26T12:47:27.263Z</time></trkpt><trkpt lat="40.2707354" lon="20.041942"><ele>191.0</ele><time>2026-04-26T12:47:28.262Z</time></trkpt><trkpt lat="40.2706148" lon="20.0421996"><ele>191.0</ele><time>2026-04-26T12:47:29.263Z</time></trkpt><trkpt lat="40.270498" lon="20.042455"><ele>192.5</ele><time>2026-04-26T12:47:30.261Z</time></trkpt><trkpt lat="40.270381" lon="20.0427123"><ele>194.0</ele><time>2026-04-26T12:47:31.262Z</time></trkpt><trkpt lat="40.2702674" lon="20.0429748"><ele>194.0</ele><time>2026-04-26T12:47:32.263Z</time></trkpt><trkpt lat="40.2701499" lon="20.0432359"><ele>194.0</ele><time>2026-04-26T12:47:33.262Z</time></trkpt><trkpt lat="40.2700359" lon="20.0434912"><ele>191.5</ele><time>2026-04-26T12:47:34.262Z</time></trkpt><trkpt lat="40.2699179" lon="20.043744"><ele>189.0</ele><time>2026-04-26T12:47:35.26Z</time></trkpt><trkpt lat="40.2698019" lon="20.0439944"><ele>189.66666666666666</ele><time>2026-04-26T12:47:36.263Z</time></trkpt><trkpt lat="40.2696895" lon="20.0442422"><ele>190.33333333333331</ele><time>2026-04-26T12:47:37.262Z</time></trkpt><trkpt lat="40.2695796" lon="20.0444916"><ele>191.0</ele><time>2026-04-26T12:47:38.26Z</time></trkpt><trkpt lat="40.2694671" lon="20.044738"><ele>188.0</ele><time>2026-04-26T12:47:39.261Z</time></trkpt><trkpt lat="40.2693525" lon="20.0449914"><ele>185.0</ele><time>2026-04-26T12:47:40.262Z</time></trkpt><trkpt lat="40.269232" lon="20.0452515"><ele>185.0</ele><time>2026-04-26T12:47:41.263Z</time></trkpt><trkpt lat="40.2691106" lon="20.0455176"><ele>185.0</ele><time>2026-04-26T12:47:42.262Z</time></trkpt><trkpt lat="40.2689895" lon="20.0457899"><ele>184.5</ele><time>2026-04-26T12:47:43.263Z</time></trkpt><trkpt lat="40.268867" lon="20.0460641"><ele>184.0</ele><time>2026-04-26T12:47:44.263Z</time></trkpt><trkpt lat="40.2687431" lon="20.0463336"><ele>184.0</ele><time>2026-04-26T12:47:45.261Z</time></trkpt><trkpt lat="40.2686175" lon="20.0466039"><ele>184.0</ele><time>2026-04-26T12:47:46.263Z</time></trkpt><trkpt lat="40.2684927" lon="20.0468731"><ele>182.5</ele><time>2026-04-26T12:47:47.262Z</time></trkpt><trkpt lat="40.2683608" lon="20.0471422"><ele>181.0</ele><time>2026-04-26T12:47:48.262Z</time></trkpt><trkpt lat="40.2682243" lon="20.0474067"><ele>173.5</ele><time>2026-04-26T12:47:49.261Z</time></trkpt><trkpt lat="40.2680852" lon="20.0476643"><ele>166.0</ele><time>2026-04-26T12:47:50.262Z</time></trkpt><trkpt lat="40.2679367" lon="20.0479182"><ele>166.0</ele><time>2026-04-26T12:47:51.263Z</time></trkpt><trkpt lat="40.2677813" lon="20.0481691"><ele>166.0</ele><time>2026-04-26T12:47:52.262Z</time></trkpt><trkpt lat="40.2676206" lon="20.0484153"><ele>165.5</ele><time>2026-04-26T12:47:53.263Z</time></trkpt><trkpt lat="40.2674568" lon="20.0486492"><ele>165.0</ele><time>2026-04-26T12:47:54.262Z</time></trkpt><trkpt lat="40.2672856" lon="20.0488802"><ele>162.5</ele><time>2026-04-26T12:47:55.263Z</time></trkpt><trkpt lat="40.2671115" lon="20.0491043"><ele>160.0</ele><time>2026-04-26T12:47:56.262Z</time></trkpt><trkpt lat="40.266934" lon="20.0493196"><ele>159.0</ele><time>2026-04-26T12:47:57.262Z</time></trkpt><trkpt lat="40.2667525" lon="20.049526"><ele>158.0</ele><time>2026-04-26T12:47:58.263Z</time></trkpt><trkpt lat="40.2665666" lon="20.0497216"><ele>164.5</ele><time>2026-04-26T12:47:59.261Z</time></trkpt><trkpt lat="40.2663754" lon="20.0499108"><ele>171.0</ele><time>2026-04-26T12:48:00.262Z</time></trkpt><trkpt lat="40.2661809" lon="20.0500888"><ele>171.0</ele><time>2026-04-26T12:48:01.263Z</time></trkpt><trkpt lat="40.2659872" lon="20.0502572"><ele>171.0</ele><time>2026-04-26T12:48:02.262Z</time></trkpt><trkpt lat="40.2657907" lon="20.0504219"><ele>175.0</ele><time>2026-04-26T12:48:03.261Z</time></trkpt><trkpt lat="40.2655944" lon="20.050576"><ele>179.0</ele><time>2026-04-26T12:48:04.261Z</time></trkpt><trkpt lat="40.2653963" lon="20.0507236"><ele>172.33333333333331</ele><time>2026-04-26T12:48:05.263Z</time></trkpt><trkpt lat="40.265197" lon="20.0508585"><ele>165.66666666666666</ele><time>2026-04-26T12:48:06.263Z</time></trkpt><trkpt lat="40.2649969" lon="20.0509847"><ele>159.0</ele><time>2026-04-26T12:48:07.263Z</time></trkpt><trkpt lat="40.2647931" lon="20.0511075"><ele>161.66666666666666</ele><time>2026-04-26T12:48:08.262Z</time></trkpt><trkpt lat="40.2645849" lon="20.0512216"><ele>164.33333333333331</ele><time>2026-04-26T12:48:09.262Z</time></trkpt><trkpt lat="40.2643764" lon="20.0513261"><ele>167.0</ele><time>2026-04-26T12:48:10.263Z</time></trkpt><trkpt lat="40.2641663" lon="20.0514248"><ele>167.0</ele><time>2026-04-26T12:48:11.262Z</time></trkpt><trkpt lat="40.2639529" lon="20.0515124"><ele>167.0</ele><time>2026-04-26T12:48:12.263Z</time></trkpt><trkpt lat="40.2637404" lon="20.0515985"><ele>167.0</ele><time>2026-04-26T12:48:13.26Z</time></trkpt><trkpt lat="40.2635284" lon="20.0516818"><ele>165.66666666666666</ele><time>2026-04-26T12:48:14.261Z</time></trkpt><trkpt lat="40.2633187" lon="20.0517612"><ele>164.33333333333334</ele><time>2026-04-26T12:48:15.26Z</time></trkpt><trkpt lat="40.2631085" lon="20.051837"><ele>163.0</ele><time>2026-04-26T12:48:16.263Z</time></trkpt><trkpt lat="40.2629004" lon="20.0519115"><ele>163.0</ele><time>2026-04-26T12:48:17.261Z</time></trkpt><trkpt lat="40.2626945" lon="20.0519851"><ele>163.0</ele><time>2026-04-26T12:48:18.262Z</time></trkpt><trkpt lat="40.2624879" lon="20.0520549"><ele>163.0</ele><time>2026-04-26T12:48:19.262Z</time></trkpt><trkpt lat="40.2622811" lon="20.052113"><ele>168.33333333333334</ele><time>2026-04-26T12:48:20.261Z</time></trkpt><trkpt lat="40.2620739" lon="20.0521572"><ele>173.66666666666666</ele><time>2026-04-26T12:48:21.261Z</time></trkpt><trkpt lat="40.2618643" lon="20.0521924"><ele>179.0</ele><time>2026-04-26T12:48:22.262Z</time></trkpt><trkpt lat="40.2616517" lon="20.0522251"><ele>176.0</ele><time>2026-04-26T12:48:23.263Z</time></trkpt><trkpt lat="40.2614397" lon="20.0522592"><ele>173.0</ele><time>2026-04-26T12:48:24.261Z</time></trkpt><trkpt lat="40.2612295" lon="20.0522995"><ele>170.0</ele><time>2026-04-26T12:48:25.262Z</time></trkpt><trkpt lat="40.2610197" lon="20.0523502"><ele>170.0</ele><time>2026-04-26T12:48:26.262Z</time></trkpt><trkpt lat="40.2608126" lon="20.0524209"><ele>170.0</ele><time>2026-04-26T12:48:27.263Z</time></trkpt><trkpt lat="40.2606081" lon="20.0525126"><ele>170.0</ele><time>2026-04-26T12:48:28.262Z</time></trkpt><trkpt lat="40.2604049" lon="20.0526315"><ele>166.0</ele><time>2026-04-26T12:48:29.263Z</time></trkpt><trkpt lat="40.2602083" lon="20.0527689"><ele>162.0</ele><time>2026-04-26T12:48:30.259Z</time></trkpt><trkpt lat="40.2600186" lon="20.0529296"><ele>158.0</ele><time>2026-04-26T12:48:31.263Z</time></trkpt><trkpt lat="40.2598305" lon="20.0530954"><ele>162.0</ele><time>2026-04-26T12:48:32.263Z</time></trkpt><trkpt lat="40.2596476" lon="20.0532719"><ele>166.0</ele><time>2026-04-26T12:48:33.263Z</time></trkpt><trkpt lat="40.2594662" lon="20.0534562"><ele>166.0</ele><time>2026-04-26T12:48:34.263Z</time></trkpt><trkpt lat="40.2592831" lon="20.0536377"><ele>166.0</ele><time>2026-04-26T12:48:35.263Z</time></trkpt><trkpt lat="40.2591023" lon="20.0538154"><ele>165.5</ele><time>2026-04-26T12:48:36.262Z</time></trkpt><trkpt lat="40.2589208" lon="20.0539946"><ele>165.0</ele><time>2026-04-26T12:48:37.262Z</time></trkpt><trkpt lat="40.2587424" lon="20.0541756"><ele>165.0</ele><time>2026-04-26T12:48:38.262Z</time></trkpt><trkpt lat="40.2585674" lon="20.0543589"><ele>165.0</ele><time>2026-04-26T12:48:39.261Z</time></trkpt><trkpt lat="40.2583962" lon="20.0545448"><ele>165.0</ele><time>2026-04-26T12:48:40.262Z</time></trkpt><trkpt lat="40.2582286" lon="20.0547314"><ele>168.66666666666666</ele><time>2026-04-26T12:48:41.262Z</time></trkpt><trkpt lat="40.2580642" lon="20.0549187"><ele>172.33333333333331</ele><time>2026-04-26T12:48:42.262Z</time></trkpt><trkpt lat="40.2579055" lon="20.0551191"><ele>176.0</ele><time>2026-04-26T12:48:43.261Z</time></trkpt><trkpt lat="40.2577492" lon="20.0553197"><ele>176.0</ele><time>2026-04-26T12:48:44.262Z</time></trkpt><trkpt lat="40.2575944" lon="20.0555239"><ele>176.0</ele><time>2026-04-26T12:48:45.261Z</time></trkpt><trkpt lat="40.2574414" lon="20.0557297"><ele>176.0</ele><time>2026-04-26T12:48:46.261Z</time></trkpt><trkpt lat="40.2572935" lon="20.0559371"><ele>176.33333333333331</ele><time>2026-04-26T12:48:47.262Z</time></trkpt><trkpt lat="40.2571513" lon="20.0561439"><ele>176.66666666666666</ele><time>2026-04-26T12:48:48.262Z</time></trkpt><trkpt lat="40.2570154" lon="20.0563563"><ele>177.0</ele><time>2026-04-26T12:48:49.26Z</time></trkpt><trkpt lat="40.2568838" lon="20.0565662"><ele>174.0</ele><time>2026-04-26T12:48:50.262Z</time></trkpt><trkpt lat="40.2567555" lon="20.0567778"><ele>171.0</ele><time>2026-04-26T12:48:51.262Z</time></trkpt><trkpt lat="40.2566311" lon="20.056988"><ele>168.0</ele><time>2026-04-26T12:48:52.263Z</time></trkpt><trkpt lat="40.256507" lon="20.0571981"><ele>172.66666666666666</ele><time>2026-04-26T12:48:53.263Z</time></trkpt><trkpt lat="40.2563828" lon="20.0574082"><ele>177.33333333333331</ele><time>2026-04-26T12:48:54.262Z</time></trkpt><trkpt lat="40.2562603" lon="20.0576168"><ele>182.0</ele><time>2026-04-26T12:48:55.263Z</time></trkpt><trkpt lat="40.2561362" lon="20.0578243"><ele>182.0</ele><time>2026-04-26T12:48:56.261Z</time></trkpt><trkpt lat="40.2560101" lon="20.0580396"><ele>182.0</ele><time>2026-04-26T12:48:57.263Z</time></trkpt><trkpt lat="40.2558859" lon="20.0582519"><ele>182.0</ele><time>2026-04-26T12:48:58.261Z</time></trkpt><trkpt lat="40.2557598" lon="20.0584662"><ele>183.66666666666666</ele><time>2026-04-26T12:48:59.263Z</time></trkpt><trkpt lat="40.2556365" lon="20.0586709"><ele>185.33333333333334</ele><time>2026-04-26T12:49:00.261Z</time></trkpt><trkpt lat="40.2555156" lon="20.0588709"><ele>187.0</ele><time>2026-04-26T12:49:01.261Z</time></trkpt><trkpt lat="40.2553936" lon="20.0590729"><ele>183.0</ele><time>2026-04-26T12:49:02.263Z</time></trkpt><trkpt lat="40.2552695" lon="20.0592756"><ele>179.0</ele><time>2026-04-26T12:49:03.262Z</time></trkpt><trkpt lat="40.2551472" lon="20.0594757"><ele>175.0</ele><time>2026-04-26T12:49:04.262Z</time></trkpt><trkpt lat="40.2550252" lon="20.0596747"><ele>175.0</ele><time>2026-04-26T12:49:05.262Z</time></trkpt><trkpt lat="40.254903" lon="20.0598672"><ele>175.0</ele><time>2026-04-26T12:49:06.262Z</time></trkpt><trkpt lat="40.2547855" lon="20.0600558"><ele>175.0</ele><time>2026-04-26T12:49:07.262Z</time></trkpt><trkpt lat="40.2546678" lon="20.0602407"><ele>179.0</ele><time>2026-04-26T12:49:08.26Z</time></trkpt><trkpt lat="40.2545587" lon="20.0604109"><ele>183.0</ele><time>2026-04-26T12:49:09.262Z</time></trkpt><trkpt lat="40.2544538" lon="20.0605781"><ele>187.0</ele><time>2026-04-26T12:49:10.262Z</time></trkpt><trkpt lat="40.2543496" lon="20.060738"><ele>184.25</ele><time>2026-04-26T12:49:11.263Z</time></trkpt><trkpt lat="40.254244" lon="20.0608848"><ele>181.5</ele><time>2026-04-26T12:49:12.261Z</time></trkpt><trkpt lat="40.2541367" lon="20.0610039"><ele>178.75</ele><time>2026-04-26T12:49:13.262Z</time></trkpt><trkpt lat="40.2540177" lon="20.0610931"><ele>176.0</ele><time>2026-04-26T12:49:14.262Z</time></trkpt><trkpt lat="40.2538804" lon="20.0611398"><ele>176.0</ele><time>2026-04-26T12:49:15.262Z</time></trkpt><trkpt lat="40.2537459" lon="20.0611534"><ele>176.0</ele><time>2026-04-26T12:49:16.261Z</time></trkpt><trkpt lat="40.2536101" lon="20.0610988"><ele>176.0</ele><time>2026-04-26T12:49:17.262Z</time></trkpt><trkpt lat="40.25346" lon="20.0610172"><ele>176.0</ele><time>2026-04-26T12:49:18.262Z</time></trkpt><trkpt lat="40.2533006" lon="20.0609847"><ele>176.0</ele><time>2026-04-26T12:49:19.262Z</time></trkpt><trkpt lat="40.2531275" lon="20.06098"><ele>176.0</ele><time>2026-04-26T12:49:20.261Z</time></trkpt><trkpt lat="40.2529568" lon="20.0609962"><ele>176.0</ele><time>2026-04-26T12:49:21.263Z</time></trkpt><trkpt lat="40.2527959" lon="20.0610168"><ele>179.0</ele><time>2026-04-26T12:49:22.261Z</time></trkpt><trkpt lat="40.2526423" lon="20.0610408"><ele>182.0</ele><time>2026-04-26T12:49:23.263Z</time></trkpt><trkpt lat="40.2524983" lon="20.0610717"><ele>185.0</ele><time>2026-04-26T12:49:24.263Z</time></trkpt><trkpt lat="40.2523582" lon="20.0611319"><ele>188.0</ele><time>2026-04-26T12:49:25.262Z</time></trkpt><trkpt lat="40.2522388" lon="20.0612353"><ele>188.0</ele><time>2026-04-26T12:49:26.263Z</time></trkpt><trkpt lat="40.2521471" lon="20.0613584"><ele>188.0</ele><time>2026-04-26T12:49:27.261Z</time></trkpt><trkpt lat="40.2520686" lon="20.0614873"><ele>188.0</ele><time>2026-04-26T12:49:28.262Z</time></trkpt><trkpt lat="40.2519963" lon="20.0616277"><ele>188.0</ele><time>2026-04-26T12:49:29.263Z</time></trkpt><trkpt lat="40.2519267" lon="20.0617639"><ele>188.0</ele><time>2026-04-26T12:49:30.262Z</time></trkpt><trkpt lat="40.2518601" lon="20.0618893"><ele>188.0</ele><time>2026-04-26T12:49:31.261Z</time></trkpt><trkpt lat="40.2517903" lon="20.0620124"><ele>188.0</ele><time>2026-04-26T12:49:32.263Z</time></trkpt><trkpt lat="40.2517246" lon="20.062137"><ele>188.0</ele><time>2026-04-26T12:49:33.262Z</time></trkpt><trkpt lat="40.2516488" lon="20.0622571"><ele>188.0</ele><time>2026-04-26T12:49:34.262Z</time></trkpt><trkpt lat="40.2515651" lon="20.0623762"><ele>188.0</ele><time>2026-04-26T12:49:35.26Z</time></trkpt><trkpt lat="40.2514802" lon="20.0624983"><ele>188.0</ele><time>2026-04-26T12:49:36.261Z</time></trkpt><trkpt lat="40.2513975" lon="20.0626221"><ele>188.0</ele><time>2026-04-26T12:49:37.262Z</time></trkpt><trkpt lat="40.2513193" lon="20.0627488"><ele>190.5</ele><time>2026-04-26T12:49:38.261Z</time></trkpt><trkpt lat="40.2512465" lon="20.0628792"><ele>193.0</ele><time>2026-04-26T12:49:39.263Z</time></trkpt><trkpt lat="40.2511837" lon="20.0630082"><ele>195.5</ele><time>2026-04-26T12:49:40.261Z</time></trkpt><trkpt lat="40.2511357" lon="20.0631361"><ele>198.0</ele><time>2026-04-26T12:49:41.262Z</time></trkpt><trkpt lat="40.2511017" lon="20.0632606"><ele>196.0</ele><time>2026-04-26T12:49:42.262Z</time></trkpt><trkpt lat="40.251079" lon="20.0633878"><ele>194.0</ele><time>2026-04-26T12:49:43.262Z</time></trkpt><trkpt lat="40.251061" lon="20.0635147"><ele>192.0</ele><time>2026-04-26T12:49:44.262Z</time></trkpt><trkpt lat="40.2510449" lon="20.0636347"><ele>190.0</ele><time>2026-04-26T12:49:45.262Z</time></trkpt><trkpt lat="40.2510268" lon="20.0637458"><ele>188.0</ele><time>2026-04-26T12:49:46.262Z</time></trkpt><trkpt lat="40.2510017" lon="20.0638465"><ele>188.0</ele><time>2026-04-26T12:49:47.263Z</time></trkpt><trkpt lat="40.2509593" lon="20.0639333"><ele>188.0</ele><time>2026-04-26T12:49:48.262Z</time></trkpt><trkpt lat="40.2509127" lon="20.0640203"><ele>188.0</ele><time>2026-04-26T12:49:49.262Z</time></trkpt><trkpt lat="40.2508603" lon="20.0641017"><ele>188.0</ele><time>2026-04-26T12:49:50.261Z</time></trkpt><trkpt lat="40.2508074" lon="20.064182"><ele>188.0</ele><time>2026-04-26T12:49:51.262Z</time></trkpt><trkpt lat="40.2507589" lon="20.064273"><ele>188.0</ele><time>2026-04-26T12:49:52.262Z</time></trkpt><trkpt lat="40.2507013" lon="20.0643655"><ele>190.4</ele><time>2026-04-26T12:49:53.262Z</time></trkpt><trkpt lat="40.2506387" lon="20.0644634"><ele>192.8</ele><time>2026-04-26T12:49:54.262Z</time></trkpt><trkpt lat="40.250585" lon="20.0645671"><ele>195.2</ele><time>2026-04-26T12:49:55.262Z</time></trkpt><trkpt lat="40.2505429" lon="20.0646778"><ele>197.6</ele><time>2026-04-26T12:49:56.262Z</time></trkpt><trkpt lat="40.2505099" lon="20.064784"><ele>200.0</ele><time>2026-04-26T12:49:57.262Z</time></trkpt><trkpt lat="40.2504901" lon="20.0648862"><ele>197.16666666666669</ele><time>2026-04-26T12:49:58.262Z</time></trkpt><trkpt lat="40.2504767" lon="20.0649741"><ele>194.33333333333334</ele><time>2026-04-26T12:49:59.26Z</time></trkpt><trkpt lat="40.2504461" lon="20.0650755"><ele>191.5</ele><time>2026-04-26T12:50:00.261Z</time></trkpt><trkpt lat="40.2504082" lon="20.0651729"><ele>188.66666666666669</ele><time>2026-04-26T12:50:01.261Z</time></trkpt><trkpt lat="40.2503654" lon="20.0652646"><ele>185.83333333333334</ele><time>2026-04-26T12:50:02.263Z</time></trkpt><trkpt lat="40.2503081" lon="20.0653541"><ele>183.0</ele><time>2026-04-26T12:50:03.261Z</time></trkpt><trkpt lat="40.2502453" lon="20.0654373"><ele>183.0</ele><time>2026-04-26T12:50:04.262Z</time></trkpt><trkpt lat="40.2501796" lon="20.0655185"><ele>183.0</ele><time>2026-04-26T12:50:05.262Z</time></trkpt><trkpt lat="40.2501173" lon="20.0655996"><ele>183.0</ele><time>2026-04-26T12:50:06.263Z</time></trkpt><trkpt lat="40.2500526" lon="20.0656765"><ele>183.0</ele><time>2026-04-26T12:50:07.263Z</time></trkpt><trkpt lat="40.2499939" lon="20.0657556"><ele>183.0</ele><time>2026-04-26T12:50:08.263Z</time></trkpt><trkpt lat="40.2499369" lon="20.0658395"><ele>183.0</ele><time>2026-04-26T12:50:09.26Z</time></trkpt><trkpt lat="40.2498827" lon="20.0659317"><ele>184.60000000000002</ele><time>2026-04-26T12:50:10.26Z</time></trkpt><trkpt lat="40.2498336" lon="20.0660252"><ele>186.20000000000002</ele><time>2026-04-26T12:50:11.263Z</time></trkpt><trkpt lat="40.2497885" lon="20.0661224"><ele>187.8</ele><time>2026-04-26T12:50:12.26Z</time></trkpt><trkpt lat="40.2497486" lon="20.0662267"><ele>189.4</ele><time>2026-04-26T12:50:13.26Z</time></trkpt><trkpt lat="40.2497182" lon="20.066342"><ele>191.0</ele><time>2026-04-26T12:50:14.262Z</time></trkpt><trkpt lat="40.2496906" lon="20.0664669"><ele>191.0</ele><time>2026-04-26T12:50:15.261Z</time></trkpt><trkpt lat="40.249665" lon="20.0665909"><ele>191.0</ele><time>2026-04-26T12:50:16.261Z</time></trkpt><trkpt lat="40.2496388" lon="20.0667173"><ele>191.0</ele><time>2026-04-26T12:50:17.263Z</time></trkpt><trkpt lat="40.2496197" lon="20.0668515"><ele>191.0</ele><time>2026-04-26T12:50:18.262Z</time></trkpt><trkpt lat="40.2495994" lon="20.0669877"><ele>191.0</ele><time>2026-04-26T12:50:19.262Z</time></trkpt><trkpt lat="40.2495752" lon="20.0671275"><ele>190.75</ele><time>2026-04-26T12:50:20.262Z</time></trkpt><trkpt lat="40.2495428" lon="20.0672712"><ele>190.5</ele><time>2026-04-26T12:50:21.262Z</time></trkpt><trkpt lat="40.2494947" lon="20.0674096"><ele>190.25</ele><time>2026-04-26T12:50:22.262Z</time></trkpt><trkpt lat="40.2494312" lon="20.0675463"><ele>190.0</ele><time>2026-04-26T12:50:23.262Z</time></trkpt><trkpt lat="40.249351" lon="20.0676907"><ele>186.75</ele><time>2026-04-26T12:50:24.261Z</time></trkpt><trkpt lat="40.2492601" lon="20.0678314"><ele>183.5</ele><time>2026-04-26T12:50:25.262Z</time></trkpt><trkpt lat="40.2491624" lon="20.0679723"><ele>180.25</ele><time>2026-04-26T12:50:26.263Z</time></trkpt><trkpt lat="40.2490696" lon="20.0681249"><ele>177.0</ele><time>2026-04-26T12:50:27.261Z</time></trkpt><trkpt lat="40.248987" lon="20.0682888"><ele>179.5</ele><time>2026-04-26T12:50:28.262Z</time></trkpt><trkpt lat="40.2489182" lon="20.0684632"><ele>182.0</ele><time>2026-04-26T12:50:29.263Z</time></trkpt><trkpt lat="40.2488623" lon="20.0686427"><ele>184.5</ele><time>2026-04-26T12:50:30.262Z</time></trkpt><trkpt lat="40.2488245" lon="20.0688316"><ele>187.0</ele><time>2026-04-26T12:50:31.261Z</time></trkpt><trkpt lat="40.2487983" lon="20.0690239"><ele>184.25</ele><time>2026-04-26T12:50:32.263Z</time></trkpt><trkpt lat="40.2487766" lon="20.0692186"><ele>181.5</ele><time>2026-04-26T12:50:33.262Z</time></trkpt><trkpt lat="40.2487563" lon="20.069411"><ele>178.75</ele><time>2026-04-26T12:50:34.263Z</time></trkpt><trkpt lat="40.2487298" lon="20.0695974"><ele>176.0</ele><time>2026-04-26T12:50:35.262Z</time></trkpt><trkpt lat="40.248694" lon="20.0697786"><ele>173.0</ele><time>2026-04-26T12:50:36.261Z</time></trkpt><trkpt lat="40.2486414" lon="20.0699493"><ele>170.0</ele><time>2026-04-26T12:50:37.262Z</time></trkpt><trkpt lat="40.2485769" lon="20.0701104"><ele>167.0</ele><time>2026-04-26T12:50:38.263Z</time></trkpt><trkpt lat="40.2484953" lon="20.0702548"><ele>164.0</ele><time>2026-04-26T12:50:39.262Z</time></trkpt><trkpt lat="40.2483966" lon="20.0703901"><ele>164.0</ele><time>2026-04-26T12:50:40.26Z</time></trkpt><trkpt lat="40.2482852" lon="20.0705214"><ele>164.0</ele><time>2026-04-26T12:50:41.262Z</time></trkpt><trkpt lat="40.2481625" lon="20.0706537"><ele>164.0</ele><time>2026-04-26T12:50:42.259Z</time></trkpt><trkpt lat="40.248036" lon="20.0707874"><ele>165.0</ele><time>2026-04-26T12:50:43.262Z</time></trkpt><trkpt lat="40.2479095" lon="20.0709295"><ele>166.0</ele><time>2026-04-26T12:50:44.261Z</time></trkpt><trkpt lat="40.2477853" lon="20.0710686"><ele>167.0</ele><time>2026-04-26T12:50:45.263Z</time></trkpt><trkpt lat="40.2476629" lon="20.0712"><ele>167.0</ele><time>2026-04-26T12:50:46.263Z</time></trkpt><trkpt lat="40.2475477" lon="20.0713184"><ele>167.0</ele><time>2026-04-26T12:50:47.262Z</time></trkpt><trkpt lat="40.2474386" lon="20.0714304"><ele>167.0</ele><time>2026-04-26T12:50:48.262Z</time></trkpt><trkpt lat="40.247336" lon="20.0715442"><ele>167.0</ele><time>2026-04-26T12:50:49.262Z</time></trkpt><trkpt lat="40.247233" lon="20.0716568"><ele>169.0</ele><time>2026-04-26T12:50:50.263Z</time></trkpt><trkpt lat="40.2471274" lon="20.0717746"><ele>171.0</ele><time>2026-04-26T12:50:51.262Z</time></trkpt><trkpt lat="40.2470157" lon="20.0718975"><ele>173.0</ele><time>2026-04-26T12:50:52.261Z</time></trkpt><trkpt lat="40.2469003" lon="20.0720269"><ele>175.0</ele><time>2026-04-26T12:50:53.26Z</time></trkpt><trkpt lat="40.2467816" lon="20.0721558"><ele>175.0</ele><time>2026-04-26T12:50:54.261Z</time></trkpt><trkpt lat="40.2466659" lon="20.0722742"><ele>175.0</ele><time>2026-04-26T12:50:55.262Z</time></trkpt><trkpt lat="40.2465528" lon="20.072384"><ele>175.0</ele><time>2026-04-26T12:50:56.263Z</time></trkpt><trkpt lat="40.2464355" lon="20.07248"><ele>175.0</ele><time>2026-04-26T12:50:57.261Z</time></trkpt><trkpt lat="40.2463204" lon="20.0725595"><ele>175.75</ele><time>2026-04-26T12:50:58.262Z</time></trkpt><trkpt lat="40.2461974" lon="20.0726202"><ele>176.5</ele><time>2026-04-26T12:50:59.262Z</time></trkpt><trkpt lat="40.2460712" lon="20.0726612"><ele>177.25</ele><time>2026-04-26T12:51:00.262Z</time></trkpt><trkpt lat="40.2459455" lon="20.0726908"><ele>178.0</ele><time>2026-04-26T12:51:01.262Z</time></trkpt><trkpt lat="40.2458158" lon="20.0727108"><ele>178.0</ele><time>2026-04-26T12:51:02.263Z</time></trkpt><trkpt lat="40.2456842" lon="20.07271"><ele>178.0</ele><time>2026-04-26T12:51:03.26Z</time></trkpt><trkpt lat="40.2455514" lon="20.072703"><ele>178.0</ele><time>2026-04-26T12:51:04.262Z</time></trkpt><trkpt lat="40.245416" lon="20.0726954"><ele>178.0</ele><time>2026-04-26T12:51:05.262Z</time></trkpt><trkpt lat="40.2452778" lon="20.072689"><ele>182.0</ele><time>2026-04-26T12:51:06.262Z</time></trkpt><trkpt lat="40.2451326" lon="20.072686"><ele>186.0</ele><time>2026-04-26T12:51:07.261Z</time></trkpt><trkpt lat="40.2449864" lon="20.0726882"><ele>190.0</ele><time>2026-04-26T12:51:08.262Z</time></trkpt><trkpt lat="40.2448425" lon="20.0727032"><ele>194.0</ele><time>2026-04-26T12:51:09.26Z</time></trkpt><trkpt lat="40.2446985" lon="20.0727377"><ele>198.0</ele><time>2026-04-26T12:51:10.262Z</time></trkpt><trkpt lat="40.2445584" lon="20.0727922"><ele>202.0</ele><time>2026-04-26T12:51:11.261Z</time></trkpt><trkpt lat="40.2444214" lon="20.0728641"><ele>206.0</ele><time>2026-04-26T12:51:12.26Z</time></trkpt><trkpt lat="40.2442855" lon="20.0729504"><ele>210.0</ele><time>2026-04-26T12:51:13.262Z</time></trkpt><trkpt lat="40.2441541" lon="20.0730549"><ele>210.0</ele><time>2026-04-26T12:51:14.262Z</time></trkpt><trkpt lat="40.2440244" lon="20.0731817"><ele>210.0</ele><time>2026-04-26T12:51:15.262Z</time></trkpt><trkpt lat="40.2438931" lon="20.0733505"><ele>210.0</ele><time>2026-04-26T12:51:16.263Z</time></trkpt><trkpt lat="40.2437605" lon="20.0735676"><ele>211.0</ele><time>2026-04-26T12:51:17.262Z</time></trkpt><trkpt lat="40.243613" lon="20.0738014"><ele>212.0</ele><time>2026-04-26T12:51:18.263Z</time></trkpt><trkpt lat="40.2434426" lon="20.0740347"><ele>212.66666666666669</ele><time>2026-04-26T12:51:19.26Z</time></trkpt><trkpt lat="40.243302" lon="20.0742568"><ele>213.33333333333331</ele><time>2026-04-26T12:51:20.262Z</time></trkpt><trkpt lat="40.2431577" lon="20.0744808"><ele>214.0</ele><time>2026-04-26T12:51:21.262Z</time></trkpt><trkpt lat="40.2430177" lon="20.0746995"><ele>214.0</ele><time>2026-04-26T12:51:22.263Z</time></trkpt><trkpt lat="40.2428825" lon="20.0749118"><ele>214.0</ele><time>2026-04-26T12:51:23.262Z</time></trkpt><trkpt lat="40.2427477" lon="20.0751084"><ele>214.0</ele><time>2026-04-26T12:51:24.263Z</time></trkpt><trkpt lat="40.2426149" lon="20.0752954"><ele>209.0</ele><time>2026-04-26T12:51:25.263Z</time></trkpt><trkpt lat="40.2424885" lon="20.0754616"><ele>204.0</ele><time>2026-04-26T12:51:26.263Z</time></trkpt><trkpt lat="40.2423137" lon="20.0755619"><ele>199.0</ele><time>2026-04-26T12:51:27.262Z</time></trkpt><trkpt lat="40.2421364" lon="20.0756541"><ele>199.0</ele><time>2026-04-26T12:51:28.262Z</time></trkpt><trkpt lat="40.2419487" lon="20.0757161"><ele>199.0</ele><time>2026-04-26T12:51:29.262Z</time></trkpt><trkpt lat="40.2417491" lon="20.0757542"><ele>199.0</ele><time>2026-04-26T12:51:30.26Z</time></trkpt><trkpt lat="40.2415464" lon="20.0757831"><ele>196.0</ele><time>2026-04-26T12:51:31.262Z</time></trkpt><trkpt lat="40.241343" lon="20.0758091"><ele>193.0</ele><time>2026-04-26T12:51:32.261Z</time></trkpt><trkpt lat="40.2411381" lon="20.075832"><ele>190.0</ele><time>2026-04-26T12:51:33.261Z</time></trkpt><trkpt lat="40.2409322" lon="20.0758585"><ele>190.0</ele><time>2026-04-26T12:51:34.258Z</time></trkpt><trkpt lat="40.2407266" lon="20.0758849"><ele>190.0</ele><time>2026-04-26T12:51:35.261Z</time></trkpt><trkpt lat="40.240519" lon="20.0759076"><ele>190.0</ele><time>2026-04-26T12:51:36.262Z</time></trkpt><trkpt lat="40.2403088" lon="20.0759283"><ele>188.66666666666669</ele><time>2026-04-26T12:51:37.262Z</time></trkpt><trkpt lat="40.2401008" lon="20.0759489"><ele>187.33333333333334</ele><time>2026-04-26T12:51:38.263Z</time></trkpt><trkpt lat="40.239893" lon="20.0759708"><ele>186.0</ele><time>2026-04-26T12:51:39.262Z</time></trkpt><trkpt lat="40.2396873" lon="20.0759955"><ele>185.33333333333334</ele><time>2026-04-26T12:51:40.263Z</time></trkpt><trkpt lat="40.2394834" lon="20.0760187"><ele>184.66666666666669</ele><time>2026-04-26T12:51:41.263Z</time></trkpt><trkpt lat="40.2392768" lon="20.0760475"><ele>184.0</ele><time>2026-04-26T12:51:42.26Z</time></trkpt><trkpt lat="40.2390715" lon="20.0760863"><ele>187.0</ele><time>2026-04-26T12:51:43.261Z</time></trkpt><trkpt lat="40.2388716" lon="20.0761474"><ele>190.0</ele><time>2026-04-26T12:51:44.263Z</time></trkpt><trkpt lat="40.2386776" lon="20.0762342"><ele>193.0</ele><time>2026-04-26T12:51:45.261Z</time></trkpt><trkpt lat="40.2384904" lon="20.0763484"><ele>193.0</ele><time>2026-04-26T12:51:46.262Z</time></trkpt><trkpt lat="40.2383125" lon="20.0764957"><ele>193.0</ele><time>2026-04-26T12:51:47.261Z</time></trkpt><trkpt lat="40.2381392" lon="20.0766647"><ele>193.0</ele><time>2026-04-26T12:51:48.261Z</time></trkpt><trkpt lat="40.2379765" lon="20.0768546"><ele>189.33333333333331</ele><time>2026-04-26T12:51:49.262Z</time></trkpt><trkpt lat="40.2378299" lon="20.0770632"><ele>185.66666666666666</ele><time>2026-04-26T12:51:50.262Z</time></trkpt><trkpt lat="40.2376966" lon="20.0772725"><ele>182.0</ele><time>2026-04-26T12:51:51.263Z</time></trkpt><trkpt lat="40.237575" lon="20.0774867"><ele>178.0</ele><time>2026-04-26T12:51:52.262Z</time></trkpt><trkpt lat="40.2374543" lon="20.0776884"><ele>174.0</ele><time>2026-04-26T12:51:53.262Z</time></trkpt><trkpt lat="40.2373391" lon="20.0778852"><ele>170.0</ele><time>2026-04-26T12:51:54.261Z</time></trkpt><trkpt lat="40.2372264" lon="20.0780716"><ele>173.33333333333331</ele><time>2026-04-26T12:51:55.262Z</time></trkpt><trkpt lat="40.2371117" lon="20.0782489"><ele>176.66666666666666</ele><time>2026-04-26T12:51:56.262Z</time></trkpt><trkpt lat="40.2369983" lon="20.0784216"><ele>180.0</ele><time>2026-04-26T12:51:57.262Z</time></trkpt><trkpt lat="40.2368753" lon="20.0785778"><ele>180.0</ele><time>2026-04-26T12:51:58.262Z</time></trkpt><trkpt lat="40.23674" lon="20.0787225"><ele>180.0</ele><time>2026-04-26T12:51:59.262Z</time></trkpt><trkpt lat="40.2365973" lon="20.0788504"><ele>180.0</ele><time>2026-04-26T12:52:00.262Z</time></trkpt><trkpt lat="40.2364369" lon="20.078961"><ele>180.33333333333334</ele><time>2026-04-26T12:52:01.263Z</time></trkpt><trkpt lat="40.2362637" lon="20.0790525"><ele>180.66666666666669</ele><time>2026-04-26T12:52:02.262Z</time></trkpt><trkpt lat="40.2360843" lon="20.0791316"><ele>181.0</ele><time>2026-04-26T12:52:03.263Z</time></trkpt><trkpt lat="40.2359059" lon="20.079211"><ele>184.66666666666669</ele><time>2026-04-26T12:52:04.263Z</time></trkpt><trkpt lat="40.2357259" lon="20.079288"><ele>188.33333333333334</ele><time>2026-04-26T12:52:05.26Z</time></trkpt><trkpt lat="40.2355472" lon="20.0793641"><ele>192.0</ele><time>2026-04-26T12:52:06.262Z</time></trkpt><trkpt lat="40.2353653" lon="20.0794399"><ele>192.0</ele><time>2026-04-26T12:52:07.263Z</time></trkpt><trkpt lat="40.2351852" lon="20.0795197"><ele>192.0</ele><time>2026-04-26T12:52:08.261Z</time></trkpt><trkpt lat="40.2350064" lon="20.0796072"><ele>192.0</ele><time>2026-04-26T12:52:09.262Z</time></trkpt><trkpt lat="40.2348262" lon="20.0797011"><ele>189.33333333333334</ele><time>2026-04-26T12:52:10.262Z</time></trkpt><trkpt lat="40.2346425" lon="20.0797969"><ele>186.66666666666669</ele><time>2026-04-26T12:52:11.262Z</time></trkpt><trkpt lat="40.2344614" lon="20.0798906"><ele>184.0</ele><time>2026-04-26T12:52:12.261Z</time></trkpt><trkpt lat="40.2342834" lon="20.0799855"><ele>184.0</ele><time>2026-04-26T12:52:13.261Z</time></trkpt><trkpt lat="40.2341172" lon="20.0800818"><ele>184.0</ele><time>2026-04-26T12:52:14.261Z</time></trkpt><trkpt lat="40.2339611" lon="20.0801914"><ele>184.0</ele><time>2026-04-26T12:52:15.259Z</time></trkpt><trkpt lat="40.2338083" lon="20.0803032"><ele>194.33333333333334</ele><time>2026-04-26T12:52:16.263Z</time></trkpt><trkpt lat="40.2336579" lon="20.0804175"><ele>204.66666666666669</ele><time>2026-04-26T12:52:17.262Z</time></trkpt><trkpt lat="40.2335201" lon="20.0805461"><ele>215.0</ele><time>2026-04-26T12:52:18.262Z</time></trkpt><trkpt lat="40.2333969" lon="20.0806902"><ele>213.66666666666669</ele><time>2026-04-26T12:52:19.261Z</time></trkpt><trkpt lat="40.233286" lon="20.080846"><ele>212.33333333333331</ele><time>2026-04-26T12:52:20.26Z</time></trkpt><trkpt lat="40.2331717" lon="20.0810079"><ele>211.0</ele><time>2026-04-26T12:52:21.26Z</time></trkpt><trkpt lat="40.2330468" lon="20.081161"><ele>211.0</ele><time>2026-04-26T12:52:22.261Z</time></trkpt><trkpt lat="40.2329116" lon="20.081306"><ele>211.0</ele><time>2026-04-26T12:52:23.263Z</time></trkpt><trkpt lat="40.2327691" lon="20.0814422"><ele>211.0</ele><time>2026-04-26T12:52:24.263Z</time></trkpt><trkpt lat="40.2326237" lon="20.0815779"><ele>209.0</ele><time>2026-04-26T12:52:25.262Z</time></trkpt><trkpt lat="40.232479" lon="20.0817149"><ele>207.0</ele><time>2026-04-26T12:52:26.261Z</time></trkpt><trkpt lat="40.2323334" lon="20.0818483"><ele>205.0</ele><time>2026-04-26T12:52:27.262Z</time></trkpt><trkpt lat="40.2321836" lon="20.0819787"><ele>205.0</ele><time>2026-04-26T12:52:28.261Z</time></trkpt><trkpt lat="40.2320317" lon="20.0821069"><ele>205.0</ele><time>2026-04-26T12:52:29.263Z</time></trkpt><trkpt lat="40.2318745" lon="20.0822289"><ele>205.0</ele><time>2026-04-26T12:52:30.26Z</time></trkpt><trkpt lat="40.2317146" lon="20.0823425"><ele>199.0</ele><time>2026-04-26T12:52:31.263Z</time></trkpt><trkpt lat="40.2315514" lon="20.0824513"><ele>193.0</ele><time>2026-04-26T12:52:32.26Z</time></trkpt><trkpt lat="40.2313819" lon="20.0825587"><ele>187.0</ele><time>2026-04-26T12:52:33.261Z</time></trkpt><trkpt lat="40.2312077" lon="20.0826641"><ele>187.0</ele><time>2026-04-26T12:52:34.261Z</time></trkpt><trkpt lat="40.2310331" lon="20.0827751"><ele>187.0</ele><time>2026-04-26T12:52:35.26Z</time></trkpt><trkpt lat="40.2308627" lon="20.0829059"><ele>187.0</ele><time>2026-04-26T12:52:36.261Z</time></trkpt><trkpt lat="40.2306974" lon="20.0830519"><ele>186.0</ele><time>2026-04-26T12:52:37.261Z</time></trkpt><trkpt lat="40.2305357" lon="20.0832035"><ele>185.0</ele><time>2026-04-26T12:52:38.263Z</time></trkpt><trkpt lat="40.2303748" lon="20.0833631"><ele>184.0</ele><time>2026-04-26T12:52:39.262Z</time></trkpt><trkpt lat="40.2302195" lon="20.0835353"><ele>182.0</ele><time>2026-04-26T12:52:40.26Z</time></trkpt><trkpt lat="40.2300693" lon="20.0837132"><ele>180.0</ele><time>2026-04-26T12:52:41.262Z</time></trkpt><trkpt lat="40.2299225" lon="20.0838893"><ele>178.0</ele><time>2026-04-26T12:52:42.258Z</time></trkpt><trkpt lat="40.2297853" lon="20.0840575"><ele>186.0</ele><time>2026-04-26T12:52:43.261Z</time></trkpt><trkpt lat="40.2296566" lon="20.0842153"><ele>194.0</ele><time>2026-04-26T12:52:44.262Z</time></trkpt><trkpt lat="40.2295373" lon="20.0843699"><ele>202.0</ele><time>2026-04-26T12:52:45.259Z</time></trkpt><trkpt lat="40.2294231" lon="20.0845116"><ele>202.0</ele><time>2026-04-26T12:52:46.26Z</time></trkpt><trkpt lat="40.2293076" lon="20.0846431"><ele>202.0</ele><time>2026-04-26T12:52:47.262Z</time></trkpt><trkpt lat="40.2291798" lon="20.0847601"><ele>202.0</ele><time>2026-04-26T12:52:48.261Z</time></trkpt><trkpt lat="40.2290331" lon="20.0848571"><ele>194.66666666666666</ele><time>2026-04-26T12:52:49.263Z</time></trkpt><trkpt lat="40.2288707" lon="20.084936"><ele>187.33333333333331</ele><time>2026-04-26T12:52:50.262Z</time></trkpt><trkpt lat="40.2286973" lon="20.0849976"><ele>180.0</ele><time>2026-04-26T12:52:51.262Z</time></trkpt><trkpt lat="40.2285152" lon="20.0850432"><ele>180.0</ele><time>2026-04-26T12:52:52.261Z</time></trkpt><trkpt lat="40.2283287" lon="20.0850701"><ele>180.0</ele><time>2026-04-26T12:52:53.262Z</time></trkpt><trkpt lat="40.2281386" lon="20.0850838"><ele>180.0</ele><time>2026-04-26T12:52:54.261Z</time></trkpt><trkpt lat="40.2279421" lon="20.0851043"><ele>180.66666666666666</ele><time>2026-04-26T12:52:55.263Z</time></trkpt><trkpt lat="40.2277366" lon="20.0851395"><ele>181.33333333333331</ele><time>2026-04-26T12:52:56.26Z</time></trkpt><trkpt lat="40.2275277" lon="20.0851866"><ele>182.0</ele><time>2026-04-26T12:52:57.262Z</time></trkpt><trkpt lat="40.2273185" lon="20.0852422"><ele>184.66666666666666</ele><time>2026-04-26T12:52:58.262Z</time></trkpt><trkpt lat="40.2271098" lon="20.0852987"><ele>187.33333333333334</ele><time>2026-04-26T12:52:59.262Z</time></trkpt><trkpt lat="40.2269026" lon="20.0853584"><ele>190.0</ele><time>2026-04-26T12:53:00.26Z</time></trkpt><trkpt lat="40.2267019" lon="20.085419"><ele>190.0</ele><time>2026-04-26T12:53:01.261Z</time></trkpt><trkpt lat="40.2265049" lon="20.0854761"><ele>190.0</ele><time>2026-04-26T12:53:02.262Z</time></trkpt><trkpt lat="40.2263152" lon="20.0855284"><ele>190.0</ele><time>2026-04-26T12:53:03.26Z</time></trkpt><trkpt lat="40.2261277" lon="20.0855708"><ele>192.66666666666669</ele><time>2026-04-26T12:53:04.259Z</time></trkpt><trkpt lat="40.225943" lon="20.0856094"><ele>195.33333333333334</ele><time>2026-04-26T12:53:05.262Z</time></trkpt><trkpt lat="40.2257622" lon="20.0856459"><ele>198.0</ele><time>2026-04-26T12:53:06.261Z</time></trkpt><trkpt lat="40.2255836" lon="20.0856808"><ele>193.0</ele><time>2026-04-26T12:53:07.262Z</time></trkpt><trkpt lat="40.2254135" lon="20.0857229"><ele>188.0</ele><time>2026-04-26T12:53:08.262Z</time></trkpt><trkpt lat="40.2252478" lon="20.0857771"><ele>183.0</ele><time>2026-04-26T12:53:09.261Z</time></trkpt><trkpt lat="40.2250876" lon="20.0858454"><ele>183.0</ele><time>2026-04-26T12:53:10.261Z</time></trkpt><trkpt lat="40.2249295" lon="20.0859246"><ele>183.0</ele><time>2026-04-26T12:53:11.262Z</time></trkpt><trkpt lat="40.2247743" lon="20.0860141"><ele>183.0</ele><time>2026-04-26T12:53:12.258Z</time></trkpt><trkpt lat="40.2246162" lon="20.0861016"><ele>188.33333333333331</ele><time>2026-04-26T12:53:13.262Z</time></trkpt><trkpt lat="40.224461" lon="20.0861902"><ele>193.66666666666666</ele><time>2026-04-26T12:53:14.261Z</time></trkpt><trkpt lat="40.2243072" lon="20.0862814"><ele>199.0</ele><time>2026-04-26T12:53:15.263Z</time></trkpt><trkpt lat="40.2241495" lon="20.086374"><ele>199.0</ele><time>2026-04-26T12:53:16.261Z</time></trkpt><trkpt lat="40.2239909" lon="20.0864712"><ele>199.0</ele><time>2026-04-26T12:53:17.26Z</time></trkpt><trkpt lat="40.2238393" lon="20.0865599"><ele>199.0</ele><time>2026-04-26T12:53:18.261Z</time></trkpt><trkpt lat="40.2236894" lon="20.086642"><ele>193.66666666666666</ele><time>2026-04-26T12:53:19.262Z</time></trkpt><trkpt lat="40.2235373" lon="20.0867193"><ele>188.33333333333331</ele><time>2026-04-26T12:53:20.26Z</time></trkpt><trkpt lat="40.223379" lon="20.0867941"><ele>183.0</ele><time>2026-04-26T12:53:21.261Z</time></trkpt><trkpt lat="40.2232196" lon="20.0868655"><ele>185.0</ele><time>2026-04-26T12:53:22.261Z</time></trkpt><trkpt lat="40.2230606" lon="20.0869351"><ele>187.0</ele><time>2026-04-26T12:53:23.262Z</time></trkpt><trkpt lat="40.2228985" lon="20.087005"><ele>189.0</ele><time>2026-04-26T12:53:24.261Z</time></trkpt><trkpt lat="40.2227361" lon="20.0870746"><ele>189.0</ele><time>2026-04-26T12:53:25.261Z</time></trkpt><trkpt lat="40.2225742" lon="20.0871412"><ele>189.0</ele><time>2026-04-26T12:53:26.263Z</time></trkpt><trkpt lat="40.222419" lon="20.0872077"><ele>189.0</ele><time>2026-04-26T12:53:27.26Z</time></trkpt><trkpt lat="40.2222699" lon="20.0872704"><ele>193.33333333333331</ele><time>2026-04-26T12:53:28.261Z</time></trkpt><trkpt lat="40.2221208" lon="20.0873222"><ele>197.66666666666666</ele><time>2026-04-26T12:53:29.262Z</time></trkpt><trkpt lat="40.2219674" lon="20.0873616"><ele>202.0</ele><time>2026-04-26T12:53:30.261Z</time></trkpt><trkpt lat="40.2218167" lon="20.0873746"><ele>202.0</ele><time>2026-04-26T12:53:31.262Z</time></trkpt><trkpt lat="40.2216673" lon="20.0873634"><ele>202.0</ele><time>2026-04-26T12:53:32.262Z</time></trkpt><trkpt lat="40.2215187" lon="20.0873242"><ele>202.0</ele><time>2026-04-26T12:53:33.26Z</time></trkpt><trkpt lat="40.2213618" lon="20.0872507"><ele>196.66666666666666</ele><time>2026-04-26T12:53:34.262Z</time></trkpt><trkpt lat="40.221212" lon="20.087161"><ele>191.33333333333331</ele><time>2026-04-26T12:53:35.26Z</time></trkpt><trkpt lat="40.2210675" lon="20.0870597"><ele>186.0</ele><time>2026-04-26T12:53:36.261Z</time></trkpt><trkpt lat="40.2209077" lon="20.0869333"><ele>186.0</ele><time>2026-04-26T12:53:37.26Z</time></trkpt><trkpt lat="40.2207556" lon="20.0867951"><ele>186.0</ele><time>2026-04-26T12:53:38.26Z</time></trkpt><trkpt lat="40.2206068" lon="20.0866623"><ele>186.0</ele><time>2026-04-26T12:53:39.259Z</time></trkpt><trkpt lat="40.2204591" lon="20.0865302"><ele>183.33333333333334</ele><time>2026-04-26T12:53:40.26Z</time></trkpt><trkpt lat="40.2203118" lon="20.0863997"><ele>180.66666666666669</ele><time>2026-04-26T12:53:41.262Z</time></trkpt><trkpt lat="40.2201612" lon="20.0862815"><ele>178.0</ele><time>2026-04-26T12:53:42.259Z</time></trkpt><trkpt lat="40.2199978" lon="20.0861879"><ele>178.0</ele><time>2026-04-26T12:53:43.259Z</time></trkpt><trkpt lat="40.2198383" lon="20.0861096"><ele>178.0</ele><time>2026-04-26T12:53:44.26Z</time></trkpt><trkpt lat="40.2196774" lon="20.0860539"><ele>178.0</ele><time>2026-04-26T12:53:45.261Z</time></trkpt><trkpt lat="40.219519" lon="20.0860139"><ele>177.66666666666669</ele><time>2026-04-26T12:53:46.263Z</time></trkpt><trkpt lat="40.219359" lon="20.08598"><ele>177.33333333333334</ele><time>2026-04-26T12:53:47.26Z</time></trkpt><trkpt lat="40.2192031" lon="20.0859503"><ele>177.0</ele><time>2026-04-26T12:53:48.261Z</time></trkpt><trkpt lat="40.2190496" lon="20.0859274"><ele>175.66666666666666</ele><time>2026-04-26T12:53:49.26Z</time></trkpt><trkpt lat="40.2188962" lon="20.0859033"><ele>174.33333333333331</ele><time>2026-04-26T12:53:50.262Z</time></trkpt><trkpt lat="40.2187351" lon="20.0858837"><ele>173.0</ele><time>2026-04-26T12:53:51.26Z</time></trkpt><trkpt lat="40.2185753" lon="20.0858656"><ele>173.0</ele><time>2026-04-26T12:53:52.26Z</time></trkpt><trkpt lat="40.2184111" lon="20.0858554"><ele>173.0</ele><time>2026-04-26T12:53:53.259Z</time></trkpt><trkpt lat="40.2182468" lon="20.0858461"><ele>173.0</ele><time>2026-04-26T12:53:54.262Z</time></trkpt><trkpt lat="40.2180741" lon="20.0858498"><ele>172.66666666666666</ele><time>2026-04-26T12:53:55.262Z</time></trkpt><trkpt lat="40.217899" lon="20.0858583"><ele>172.33333333333334</ele><time>2026-04-26T12:53:56.262Z</time></trkpt><trkpt lat="40.2177276" lon="20.0858713"><ele>172.0</ele><time>2026-04-26T12:53:57.261Z</time></trkpt><trkpt lat="40.2175561" lon="20.0858931"><ele>172.0</ele><time>2026-04-26T12:53:58.261Z</time></trkpt><trkpt lat="40.2173862" lon="20.0859198"><ele>172.0</ele><time>2026-04-26T12:53:59.262Z</time></trkpt><trkpt lat="40.2172167" lon="20.0859534"><ele>172.0</ele><time>2026-04-26T12:54:00.26Z</time></trkpt><trkpt lat="40.2170458" lon="20.0859854"><ele>175.66666666666669</ele><time>2026-04-26T12:54:01.261Z</time></trkpt><trkpt lat="40.2168785" lon="20.0860206"><ele>179.33333333333334</ele><time>2026-04-26T12:54:02.261Z</time></trkpt><trkpt lat="40.2167148" lon="20.0860605"><ele>183.0</ele><time>2026-04-26T12:54:03.26Z</time></trkpt><trkpt lat="40.2165525" lon="20.0861107"><ele>187.33333333333331</ele><time>2026-04-26T12:54:04.259Z</time></trkpt><trkpt lat="40.2163944" lon="20.0861713"><ele>191.66666666666666</ele><time>2026-04-26T12:54:05.26Z</time></trkpt><trkpt lat="40.2162426" lon="20.0862522"><ele>196.0</ele><time>2026-04-26T12:54:06.261Z</time></trkpt><trkpt lat="40.2160922" lon="20.086345"><ele>196.0</ele><time>2026-04-26T12:54:07.262Z</time></trkpt><trkpt lat="40.2159427" lon="20.0864343"><ele>196.0</ele><time>2026-04-26T12:54:08.262Z</time></trkpt><trkpt lat="40.2157968" lon="20.0865295"><ele>196.0</ele><time>2026-04-26T12:54:09.262Z</time></trkpt><trkpt lat="40.21565" lon="20.0866236"><ele>189.33333333333331</ele><time>2026-04-26T12:54:10.262Z</time></trkpt><trkpt lat="40.2155001" lon="20.0867095"><ele>182.66666666666666</ele><time>2026-04-26T12:54:11.26Z</time></trkpt><trkpt lat="40.2153437" lon="20.0867869"><ele>176.0</ele><time>2026-04-26T12:54:12.26Z</time></trkpt><trkpt lat="40.2151826" lon="20.0868474"><ele>176.0</ele><time>2026-04-26T12:54:13.26Z</time></trkpt><trkpt lat="40.2150195" lon="20.0868965"><ele>176.0</ele><time>2026-04-26T12:54:14.261Z</time></trkpt><trkpt lat="40.2148545" lon="20.0869347"><ele>176.0</ele><time>2026-04-26T12:54:15.26Z</time></trkpt><trkpt lat="40.2146909" lon="20.0869657"><ele>178.33333333333331</ele><time>2026-04-26T12:54:16.262Z</time></trkpt><trkpt lat="40.2145219" lon="20.086996"><ele>180.66666666666666</ele><time>2026-04-26T12:54:17.261Z</time></trkpt><trkpt lat="40.2143398" lon="20.0870397"><ele>183.0</ele><time>2026-04-26T12:54:18.261Z</time></trkpt><trkpt lat="40.2141313" lon="20.0871129"><ele>191.5</ele><time>2026-04-26T12:54:19.261Z</time></trkpt><trkpt lat="40.213893" lon="20.0872135"><ele>200.0</ele><time>2026-04-26T12:54:20.262Z</time></trkpt><trkpt lat="40.2136273" lon="20.0873316"><ele>192.0</ele><time>2026-04-26T12:54:21.263Z</time></trkpt><trkpt lat="40.2133652" lon="20.0874657"><ele>184.0</ele><time>2026-04-26T12:54:22.26Z</time></trkpt><trkpt lat="40.2130927" lon="20.0875949"><ele>184.0</ele><time>2026-04-26T12:54:23.261Z</time></trkpt><trkpt lat="40.2128147" lon="20.0877096"><ele>184.0</ele><time>2026-04-26T12:54:24.262Z</time></trkpt><trkpt lat="40.2125447" lon="20.0878047"><ele>182.5</ele><time>2026-04-26T12:54:25.262Z</time></trkpt><trkpt lat="40.2122815" lon="20.0878893"><ele>181.0</ele><time>2026-04-26T12:54:26.26Z</time></trkpt><trkpt lat="40.2120196" lon="20.0879707"><ele>181.0</ele><time>2026-04-26T12:54:27.262Z</time></trkpt><trkpt lat="40.2117601" lon="20.0880493"><ele>181.0</ele><time>2026-04-26T12:54:28.261Z</time></trkpt><trkpt lat="40.2115127" lon="20.0881302"><ele>179.5</ele><time>2026-04-26T12:54:29.261Z</time></trkpt><trkpt lat="40.2112705" lon="20.088213"><ele>178.0</ele><time>2026-04-26T12:54:30.262Z</time></trkpt><trkpt lat="40.2110335" lon="20.0882923"><ele>174.0</ele><time>2026-04-26T12:54:31.261Z</time></trkpt><trkpt lat="40.2108013" lon="20.0883679"><ele>170.0</ele><time>2026-04-26T12:54:32.262Z</time></trkpt><trkpt lat="40.2105776" lon="20.0884384"><ele>170.0</ele><time>2026-04-26T12:54:33.261Z</time></trkpt><trkpt lat="40.2103654" lon="20.088505"><ele>170.0</ele><time>2026-04-26T12:54:34.262Z</time></trkpt><trkpt lat="40.2101548" lon="20.0885676"><ele>170.0</ele><time>2026-04-26T12:54:35.261Z</time></trkpt><trkpt lat="40.2099509" lon="20.0886366"><ele>169.33333333333331</ele><time>2026-04-26T12:54:36.263Z</time></trkpt><trkpt lat="40.2097511" lon="20.0887092"><ele>168.66666666666666</ele><time>2026-04-26T12:54:37.262Z</time></trkpt><trkpt lat="40.2095624" lon="20.0887792"><ele>168.0</ele><time>2026-04-26T12:54:38.262Z</time></trkpt><trkpt lat="40.2093752" lon="20.0888464"><ele>168.0</ele><time>2026-04-26T12:54:39.26Z</time></trkpt><trkpt lat="40.209188" lon="20.0889015"><ele>168.0</ele><time>2026-04-26T12:54:40.261Z</time></trkpt><trkpt lat="40.2089985" lon="20.0889422"><ele>168.0</ele><time>2026-04-26T12:54:41.26Z</time></trkpt><trkpt lat="40.2088095" lon="20.0889655"><ele>167.33333333333334</ele><time>2026-04-26T12:54:42.26Z</time></trkpt><trkpt lat="40.2086168" lon="20.0889748"><ele>166.66666666666669</ele><time>2026-04-26T12:54:43.262Z</time></trkpt><trkpt lat="40.2084232" lon="20.0889692"><ele>166.0</ele><time>2026-04-26T12:54:44.262Z</time></trkpt><trkpt lat="40.2082284" lon="20.0889553"><ele>164.0</ele><time>2026-04-26T12:54:45.261Z</time></trkpt><trkpt lat="40.2080335" lon="20.088934"><ele>162.0</ele><time>2026-04-26T12:54:46.263Z</time></trkpt><trkpt lat="40.2078367" lon="20.0889133"><ele>160.0</ele><time>2026-04-26T12:54:47.26Z</time></trkpt><trkpt lat="40.2076407" lon="20.0888965"><ele>160.0</ele><time>2026-04-26T12:54:48.26Z</time></trkpt><trkpt lat="40.2074449" lon="20.0888794"><ele>160.0</ele><time>2026-04-26T12:54:49.261Z</time></trkpt><trkpt lat="40.2072482" lon="20.0888675"><ele>160.0</ele><time>2026-04-26T12:54:50.259Z</time></trkpt><trkpt lat="40.2070498" lon="20.0888693"><ele>160.33333333333334</ele><time>2026-04-26T12:54:51.261Z</time></trkpt><trkpt lat="40.2068498" lon="20.0888881"><ele>160.66666666666666</ele><time>2026-04-26T12:54:52.262Z</time></trkpt><trkpt lat="40.2066477" lon="20.0889235"><ele>161.0</ele><time>2026-04-26T12:54:53.261Z</time></trkpt><trkpt lat="40.2064436" lon="20.0889777"><ele>161.0</ele><time>2026-04-26T12:54:54.261Z</time></trkpt><trkpt lat="40.206239" lon="20.0890443"><ele>161.0</ele><time>2026-04-26T12:54:55.261Z</time></trkpt><trkpt lat="40.2060394" lon="20.0891288"><ele>161.0</ele><time>2026-04-26T12:54:56.26Z</time></trkpt><trkpt lat="40.2058439" lon="20.0892381"><ele>165.0</ele><time>2026-04-26T12:54:57.26Z</time></trkpt><trkpt lat="40.2056496" lon="20.0893619"><ele>169.0</ele><time>2026-04-26T12:54:58.262Z</time></trkpt><trkpt lat="40.2054621" lon="20.0895044"><ele>173.0</ele><time>2026-04-26T12:54:59.261Z</time></trkpt><trkpt lat="40.2052827" lon="20.0896606"><ele>173.0</ele><time>2026-04-26T12:55:00.261Z</time></trkpt><trkpt lat="40.205107" lon="20.0898298"><ele>173.0</ele><time>2026-04-26T12:55:01.262Z</time></trkpt><trkpt lat="40.2049367" lon="20.0900076"><ele>173.0</ele><time>2026-04-26T12:55:02.259Z</time></trkpt><trkpt lat="40.204771" lon="20.0901891"><ele>174.0</ele><time>2026-04-26T12:55:03.263Z</time></trkpt><trkpt lat="40.2046073" lon="20.0903678"><ele>175.0</ele><time>2026-04-26T12:55:04.259Z</time></trkpt><trkpt lat="40.204445" lon="20.0905409"><ele>176.0</ele><time>2026-04-26T12:55:05.261Z</time></trkpt><trkpt lat="40.2042774" lon="20.0907097"><ele>172.66666666666666</ele><time>2026-04-26T12:55:06.261Z</time></trkpt><trkpt lat="40.2040994" lon="20.0908611"><ele>169.33333333333334</ele><time>2026-04-26T12:55:07.262Z</time></trkpt><trkpt lat="40.2039136" lon="20.0909969"><ele>166.0</ele><time>2026-04-26T12:55:08.261Z</time></trkpt><trkpt lat="40.2037186" lon="20.0911157"><ele>166.0</ele><time>2026-04-26T12:55:09.26Z</time></trkpt><trkpt lat="40.2035124" lon="20.0912126"><ele>166.0</ele><time>2026-04-26T12:55:10.261Z</time></trkpt><trkpt lat="40.2032984" lon="20.091288"><ele>166.0</ele><time>2026-04-26T12:55:11.261Z</time></trkpt><trkpt lat="40.2030783" lon="20.0913381"><ele>172.33333333333334</ele><time>2026-04-26T12:55:12.261Z</time></trkpt><trkpt lat="40.2028555" lon="20.0913613"><ele>178.66666666666666</ele><time>2026-04-26T12:55:13.261Z</time></trkpt><trkpt lat="40.2026326" lon="20.0913552"><ele>185.0</ele><time>2026-04-26T12:55:14.261Z</time></trkpt><trkpt lat="40.2024125" lon="20.091322"><ele>181.66666666666666</ele><time>2026-04-26T12:55:15.262Z</time></trkpt><trkpt lat="40.2021945" lon="20.0912608"><ele>178.33333333333334</ele><time>2026-04-26T12:55:16.262Z</time></trkpt><trkpt lat="40.2019832" lon="20.091183"><ele>175.0</ele><time>2026-04-26T12:55:17.26Z</time></trkpt><trkpt lat="40.2017815" lon="20.0910869"><ele>175.0</ele><time>2026-04-26T12:55:18.262Z</time></trkpt><trkpt lat="40.2015854" lon="20.0909671"><ele>175.0</ele><time>2026-04-26T12:55:19.262Z</time></trkpt><trkpt lat="40.2013995" lon="20.0908199"><ele>175.0</ele><time>2026-04-26T12:55:20.26Z</time></trkpt><trkpt lat="40.2012208" lon="20.0906535"><ele>172.66666666666669</ele><time>2026-04-26T12:55:21.261Z</time></trkpt><trkpt lat="40.2010522" lon="20.0904648"><ele>170.33333333333334</ele><time>2026-04-26T12:55:22.261Z</time></trkpt><trkpt lat="40.2008938" lon="20.0902582"><ele>168.0</ele><time>2026-04-26T12:55:23.262Z</time></trkpt><trkpt lat="40.2007409" lon="20.0900329"><ele>166.0</ele><time>2026-04-26T12:55:24.263Z</time></trkpt><trkpt lat="40.2005922" lon="20.0898049"><ele>164.0</ele><time>2026-04-26T12:55:25.262Z</time></trkpt><trkpt lat="40.2004397" lon="20.0895753"><ele>164.0</ele><time>2026-04-26T12:55:26.262Z</time></trkpt><trkpt lat="40.2002841" lon="20.0893396"><ele>164.0</ele><time>2026-04-26T12:55:27.261Z</time></trkpt><trkpt lat="40.2001268" lon="20.0890983"><ele>164.5</ele><time>2026-04-26T12:55:28.263Z</time></trkpt><trkpt lat="40.1999703" lon="20.0888591"><ele>165.0</ele><time>2026-04-26T12:55:29.261Z</time></trkpt><trkpt lat="40.1998142" lon="20.0886173"><ele>165.0</ele><time>2026-04-26T12:55:30.261Z</time></trkpt><trkpt lat="40.1996617" lon="20.0883829"><ele>165.0</ele><time>2026-04-26T12:55:31.26Z</time></trkpt><trkpt lat="40.1995057" lon="20.0881414"><ele>165.0</ele><time>2026-04-26T12:55:32.26Z</time></trkpt><trkpt lat="40.1993488" lon="20.0878997"><ele>165.0</ele><time>2026-04-26T12:55:33.261Z</time></trkpt><trkpt lat="40.1991921" lon="20.0876559"><ele>166.5</ele><time>2026-04-26T12:55:34.26Z</time></trkpt><trkpt lat="40.1990375" lon="20.0874135"><ele>168.0</ele><time>2026-04-26T12:55:35.262Z</time></trkpt><trkpt lat="40.198884" lon="20.0871753"><ele>164.5</ele><time>2026-04-26T12:55:36.262Z</time></trkpt><trkpt lat="40.1987256" lon="20.0869403"><ele>161.0</ele><time>2026-04-26T12:55:37.263Z</time></trkpt><trkpt lat="40.1985747" lon="20.0867044"><ele>162.0</ele><time>2026-04-26T12:55:38.262Z</time></trkpt><trkpt lat="40.1984261" lon="20.0864721"><ele>163.0</ele><time>2026-04-26T12:55:39.261Z</time></trkpt><trkpt lat="40.198276" lon="20.0862433"><ele>162.5</ele><time>2026-04-26T12:55:40.262Z</time></trkpt><trkpt lat="40.1981296" lon="20.0860162"><ele>162.0</ele><time>2026-04-26T12:55:41.263Z</time></trkpt><trkpt lat="40.1979852" lon="20.085786"><ele>164.5</ele><time>2026-04-26T12:55:42.263Z</time></trkpt><trkpt lat="40.1978375" lon="20.0855564"><ele>167.0</ele><time>2026-04-26T12:55:43.262Z</time></trkpt><trkpt lat="40.1976871" lon="20.0853254"><ele>167.0</ele><time>2026-04-26T12:55:44.263Z</time></trkpt><trkpt lat="40.1975365" lon="20.0850868"><ele>167.0</ele><time>2026-04-26T12:55:45.263Z</time></trkpt><trkpt lat="40.1973839" lon="20.0848458"><ele>168.0</ele><time>2026-04-26T12:55:46.262Z</time></trkpt><trkpt lat="40.1972302" lon="20.0846067"><ele>169.0</ele><time>2026-04-26T12:55:47.26Z</time></trkpt><trkpt lat="40.1970747" lon="20.0843721"><ele>169.0</ele><time>2026-04-26T12:55:48.262Z</time></trkpt><trkpt lat="40.1969117" lon="20.0841438"><ele>169.0</ele><time>2026-04-26T12:55:49.261Z</time></trkpt><trkpt lat="40.1967386" lon="20.0839158"><ele>168.0</ele><time>2026-04-26T12:55:50.259Z</time></trkpt><trkpt lat="40.1965548" lon="20.0836962"><ele>167.0</ele><time>2026-04-26T12:55:51.262Z</time></trkpt><trkpt lat="40.1963559" lon="20.0834883"><ele>167.0</ele><time>2026-04-26T12:55:52.261Z</time></trkpt><trkpt lat="40.1961451" lon="20.0832999"><ele>167.0</ele><time>2026-04-26T12:55:53.261Z</time></trkpt><trkpt lat="40.1959173" lon="20.0831291"><ele>167.5</ele><time>2026-04-26T12:55:54.259Z</time></trkpt><trkpt lat="40.195685" lon="20.0829659"><ele>168.0</ele><time>2026-04-26T12:55:55.263Z</time></trkpt><trkpt lat="40.1954408" lon="20.0828254"><ele>168.0</ele><time>2026-04-26T12:55:56.263Z</time></trkpt><trkpt lat="40.1951861" lon="20.0827039"><ele>168.0</ele><time>2026-04-26T12:55:57.261Z</time></trkpt><trkpt lat="40.1949281" lon="20.082598"><ele>167.5</ele><time>2026-04-26T12:55:58.263Z</time></trkpt><trkpt lat="40.1946647" lon="20.0825099"><ele>167.0</ele><time>2026-04-26T12:55:59.261Z</time></trkpt><trkpt lat="40.1943998" lon="20.0824356"><ele>168.0</ele><time>2026-04-26T12:56:00.261Z</time></trkpt><trkpt lat="40.1941348" lon="20.0823618"><ele>169.0</ele><time>2026-04-26T12:56:01.259Z</time></trkpt><trkpt lat="40.1938705" lon="20.082291"><ele>169.0</ele><time>2026-04-26T12:56:02.261Z</time></trkpt><trkpt lat="40.1936061" lon="20.0822191"><ele>169.0</ele><time>2026-04-26T12:56:03.261Z</time></trkpt><trkpt lat="40.1933396" lon="20.0821534"><ele>168.5</ele><time>2026-04-26T12:56:04.262Z</time></trkpt><trkpt lat="40.1930674" lon="20.082085"><ele>168.0</ele><time>2026-04-26T12:56:05.263Z</time></trkpt><trkpt lat="40.1927968" lon="20.0820148"><ele>168.0</ele><time>2026-04-26T12:56:06.262Z</time></trkpt><trkpt lat="40.1925262" lon="20.0819484"><ele>168.0</ele><time>2026-04-26T12:56:07.26Z</time></trkpt><trkpt lat="40.192248" lon="20.0818824"><ele>170.0</ele><time>2026-04-26T12:56:08.262Z</time></trkpt><trkpt lat="40.1919535" lon="20.0818155"><ele>172.0</ele><time>2026-04-26T12:56:09.259Z</time></trkpt><trkpt lat="40.1916619" lon="20.081739"><ele>172.0</ele><time>2026-04-26T12:56:10.261Z</time></trkpt><trkpt lat="40.1913783" lon="20.0816581"><ele>172.0</ele><time>2026-04-26T12:56:11.261Z</time></trkpt><trkpt lat="40.1911058" lon="20.081576"><ele>176.5</ele><time>2026-04-26T12:56:12.262Z</time></trkpt><trkpt lat="40.1908437" lon="20.0815004"><ele>181.0</ele><time>2026-04-26T12:56:13.262Z</time></trkpt><trkpt lat="40.190596" lon="20.081423"><ele>181.0</ele><time>2026-04-26T12:56:14.261Z</time></trkpt><trkpt lat="40.1903522" lon="20.0813413"><ele>181.0</ele><time>2026-04-26T12:56:15.26Z</time></trkpt><trkpt lat="40.1901134" lon="20.0812448"><ele>181.0</ele><time>2026-04-26T12:56:16.259Z</time></trkpt><trkpt lat="40.1898756" lon="20.0811348"><ele>181.0</ele><time>2026-04-26T12:56:17.261Z</time></trkpt><trkpt lat="40.1896408" lon="20.0810114"><ele>180.0</ele><time>2026-04-26T12:56:18.262Z</time></trkpt><trkpt lat="40.1894112" lon="20.0808723"><ele>179.0</ele><time>2026-04-26T12:56:19.262Z</time></trkpt><trkpt lat="40.1891921" lon="20.0807174"><ele>177.0</ele><time>2026-04-26T12:56:20.263Z</time></trkpt><trkpt lat="40.1889828" lon="20.0805506"><ele>175.0</ele><time>2026-04-26T12:56:21.261Z</time></trkpt><trkpt lat="40.1887783" lon="20.080382"><ele>175.0</ele><time>2026-04-26T12:56:22.262Z</time></trkpt><trkpt lat="40.1885752" lon="20.0802097"><ele>175.0</ele><time>2026-04-26T12:56:23.263Z</time></trkpt><trkpt lat="40.1883669" lon="20.0800392"><ele>176.0</ele><time>2026-04-26T12:56:24.262Z</time></trkpt><trkpt lat="40.1881595" lon="20.0798651"><ele>177.0</ele><time>2026-04-26T12:56:25.26Z</time></trkpt><trkpt lat="40.187956" lon="20.0796881"><ele>177.0</ele><time>2026-04-26T12:56:26.262Z</time></trkpt><trkpt lat="40.1877553" lon="20.0795139"><ele>177.0</ele><time>2026-04-26T12:56:27.261Z</time></trkpt><trkpt lat="40.1875632" lon="20.0793423"><ele>177.0</ele><time>2026-04-26T12:56:28.26Z</time></trkpt><trkpt lat="40.1873665" lon="20.079171"><ele>177.0</ele><time>2026-04-26T12:56:29.261Z</time></trkpt><trkpt lat="40.1871678" lon="20.0789966"><ele>178.0</ele><time>2026-04-26T12:56:30.261Z</time></trkpt><trkpt lat="40.186967" lon="20.0788185"><ele>179.0</ele><time>2026-04-26T12:56:31.263Z</time></trkpt><trkpt lat="40.1867645" lon="20.078643"><ele>179.0</ele><time>2026-04-26T12:56:32.263Z</time></trkpt><trkpt lat="40.1865566" lon="20.0784666"><ele>179.0</ele><time>2026-04-26T12:56:33.261Z</time></trkpt><trkpt lat="40.1863481" lon="20.0782911"><ele>179.5</ele><time>2026-04-26T12:56:34.263Z</time></trkpt><trkpt lat="40.1861348" lon="20.0781157"><ele>180.0</ele><time>2026-04-26T12:56:35.261Z</time></trkpt><trkpt lat="40.1859212" lon="20.0779385"><ele>180.0</ele><time>2026-04-26T12:56:36.261Z</time></trkpt><trkpt lat="40.1857088" lon="20.0777555"><ele>180.0</ele><time>2026-04-26T12:56:37.262Z</time></trkpt><trkpt lat="40.1854958" lon="20.0775701"><ele>179.5</ele><time>2026-04-26T12:56:38.261Z</time></trkpt><trkpt lat="40.185283" lon="20.0773887"><ele>179.0</ele><time>2026-04-26T12:56:39.261Z</time></trkpt><trkpt lat="40.1850701" lon="20.0772109"><ele>179.0</ele><time>2026-04-26T12:56:40.262Z</time></trkpt><trkpt lat="40.1848551" lon="20.077044"><ele>179.0</ele><time>2026-04-26T12:56:41.261Z</time></trkpt><trkpt lat="40.1846371" lon="20.0768836"><ele>180.0</ele><time>2026-04-26T12:56:42.262Z</time></trkpt><trkpt lat="40.1844122" lon="20.0767434"><ele>181.0</ele><time>2026-04-26T12:56:43.26Z</time></trkpt><trkpt lat="40.1841804" lon="20.0766221"><ele>182.0</ele><time>2026-04-26T12:56:44.262Z</time></trkpt><trkpt lat="40.1839458" lon="20.0765166"><ele>183.0</ele><time>2026-04-26T12:56:45.26Z</time></trkpt><trkpt lat="40.1837097" lon="20.0764291"><ele>183.0</ele><time>2026-04-26T12:56:46.262Z</time></trkpt><trkpt lat="40.1834704" lon="20.0763659"><ele>183.0</ele><time>2026-04-26T12:56:47.26Z</time></trkpt><trkpt lat="40.1832279" lon="20.0763242"><ele>183.0</ele><time>2026-04-26T12:56:48.26Z</time></trkpt><trkpt lat="40.1829819" lon="20.0763019"><ele>183.0</ele><time>2026-04-26T12:56:49.262Z</time></trkpt><trkpt lat="40.1827365" lon="20.0763017"><ele>183.0</ele><time>2026-04-26T12:56:50.262Z</time></trkpt><trkpt lat="40.1824916" lon="20.0763182"><ele>183.0</ele><time>2026-04-26T12:56:51.262Z</time></trkpt><trkpt lat="40.1822475" lon="20.0763495"><ele>184.5</ele><time>2026-04-26T12:56:52.26Z</time></trkpt><trkpt lat="40.1820038" lon="20.0763907"><ele>186.0</ele><time>2026-04-26T12:56:53.261Z</time></trkpt><trkpt lat="40.1817575" lon="20.0764404"><ele>188.5</ele><time>2026-04-26T12:56:54.262Z</time></trkpt><trkpt lat="40.181508" lon="20.0764902"><ele>191.0</ele><time>2026-04-26T12:56:55.262Z</time></trkpt><trkpt lat="40.1812551" lon="20.0765429"><ele>191.0</ele><time>2026-04-26T12:56:56.262Z</time></trkpt><trkpt lat="40.1810028" lon="20.076594"><ele>191.0</ele><time>2026-04-26T12:56:57.262Z</time></trkpt><trkpt lat="40.1807502" lon="20.0766406"><ele>186.0</ele><time>2026-04-26T12:56:58.261Z</time></trkpt><trkpt lat="40.1804993" lon="20.0766837"><ele>181.0</ele><time>2026-04-26T12:56:59.261Z</time></trkpt><trkpt lat="40.1802476" lon="20.0767233"><ele>181.0</ele><time>2026-04-26T12:57:00.262Z</time></trkpt><trkpt lat="40.1799977" lon="20.0767633"><ele>181.0</ele><time>2026-04-26T12:57:01.259Z</time></trkpt><trkpt lat="40.1797496" lon="20.0768008"><ele>180.5</ele><time>2026-04-26T12:57:02.26Z</time></trkpt><trkpt lat="40.1795045" lon="20.0768378"><ele>180.0</ele><time>2026-04-26T12:57:03.26Z</time></trkpt><trkpt lat="40.1792614" lon="20.0768756"><ele>180.0</ele><time>2026-04-26T12:57:04.262Z</time></trkpt><trkpt lat="40.1790208" lon="20.0769128"><ele>180.0</ele><time>2026-04-26T12:57:05.26Z</time></trkpt><trkpt lat="40.17878" lon="20.0769516"><ele>183.0</ele><time>2026-04-26T12:57:06.262Z</time></trkpt><trkpt lat="40.1785395" lon="20.0769927"><ele>186.0</ele><time>2026-04-26T12:57:07.26Z</time></trkpt><trkpt lat="40.178298" lon="20.0770313"><ele>187.5</ele><time>2026-04-26T12:57:08.261Z</time></trkpt><trkpt lat="40.1780563" lon="20.0770665"><ele>189.0</ele><time>2026-04-26T12:57:09.261Z</time></trkpt><trkpt lat="40.1778131" lon="20.0771012"><ele>189.0</ele><time>2026-04-26T12:57:10.263Z</time></trkpt><trkpt lat="40.1775706" lon="20.0771374"><ele>189.0</ele><time>2026-04-26T12:57:11.261Z</time></trkpt><trkpt lat="40.1773293" lon="20.0771829"><ele>187.5</ele><time>2026-04-26T12:57:12.262Z</time></trkpt><trkpt lat="40.1770879" lon="20.0772414"><ele>186.0</ele><time>2026-04-26T12:57:13.262Z</time></trkpt><trkpt lat="40.1768465" lon="20.0773128"><ele>186.0</ele><time>2026-04-26T12:57:14.26Z</time></trkpt><trkpt lat="40.1766085" lon="20.0773947"><ele>186.0</ele><time>2026-04-26T12:57:15.261Z</time></trkpt><trkpt lat="40.1763678" lon="20.0774728"><ele>182.0</ele><time>2026-04-26T12:57:16.262Z</time></trkpt><trkpt lat="40.1761294" lon="20.0775543"><ele>178.0</ele><time>2026-04-26T12:57:17.263Z</time></trkpt><trkpt lat="40.1758895" lon="20.0776369"><ele>181.0</ele><time>2026-04-26T12:57:18.262Z</time></trkpt><trkpt lat="40.1756513" lon="20.0777199"><ele>184.0</ele><time>2026-04-26T12:57:19.26Z</time></trkpt><trkpt lat="40.1754115" lon="20.0778021"><ele>184.0</ele><time>2026-04-26T12:57:20.261Z</time></trkpt><trkpt lat="40.1751736" lon="20.0778838"><ele>184.0</ele><time>2026-04-26T12:57:21.259Z</time></trkpt><trkpt lat="40.1749364" lon="20.077964"><ele>186.5</ele><time>2026-04-26T12:57:22.261Z</time></trkpt><trkpt lat="40.1746993" lon="20.0780438"><ele>189.0</ele><time>2026-04-26T12:57:23.26Z</time></trkpt><trkpt lat="40.1744635" lon="20.078126"><ele>189.0</ele><time>2026-04-26T12:57:24.261Z</time></trkpt><trkpt lat="40.1742267" lon="20.0782153"><ele>189.0</ele><time>2026-04-26T12:57:25.262Z</time></trkpt><trkpt lat="40.1739935" lon="20.0783091"><ele>183.0</ele><time>2026-04-26T12:57:26.261Z</time></trkpt><trkpt lat="40.1737665" lon="20.0784155"><ele>177.0</ele><time>2026-04-26T12:57:27.263Z</time></trkpt><trkpt lat="40.1735447" lon="20.0785358"><ele>177.0</ele><time>2026-04-26T12:57:28.261Z</time></trkpt><trkpt lat="40.1733268" lon="20.0786742"><ele>177.0</ele><time>2026-04-26T12:57:29.263Z</time></trkpt><trkpt lat="40.1731129" lon="20.0788323"><ele>177.0</ele><time>2026-04-26T12:57:30.262Z</time></trkpt><trkpt lat="40.1729076" lon="20.079001"><ele>177.0</ele><time>2026-04-26T12:57:31.26Z</time></trkpt><trkpt lat="40.1727032" lon="20.0791766"><ele>178.0</ele><time>2026-04-26T12:57:32.263Z</time></trkpt><trkpt lat="40.1725096" lon="20.0793639"><ele>179.0</ele><time>2026-04-26T12:57:33.262Z</time></trkpt><trkpt lat="40.1723244" lon="20.0795627"><ele>181.5</ele><time>2026-04-26T12:57:34.26Z</time></trkpt><trkpt lat="40.1721444" lon="20.0797626"><ele>184.0</ele><time>2026-04-26T12:57:35.261Z</time></trkpt><trkpt lat="40.1719656" lon="20.0799649"><ele>184.0</ele><time>2026-04-26T12:57:36.263Z</time></trkpt><trkpt lat="40.1717907" lon="20.080168"><ele>184.0</ele><time>2026-04-26T12:57:37.262Z</time></trkpt><trkpt lat="40.1716124" lon="20.0803704"><ele>183.5</ele><time>2026-04-26T12:57:38.262Z</time></trkpt><trkpt lat="40.1714394" lon="20.0805687"><ele>183.0</ele><time>2026-04-26T12:57:39.262Z</time></trkpt><trkpt lat="40.1712651" lon="20.0807689"><ele>183.0</ele><time>2026-04-26T12:57:40.262Z</time></trkpt><trkpt lat="40.1710925" lon="20.0809662"><ele>183.0</ele><time>2026-04-26T12:57:41.261Z</time></trkpt><trkpt lat="40.1709193" lon="20.0811619"><ele>183.0</ele><time>2026-04-26T12:57:42.262Z</time></trkpt><trkpt lat="40.1707414" lon="20.0813618"><ele>183.0</ele><time>2026-04-26T12:57:43.262Z</time></trkpt><trkpt lat="40.1705646" lon="20.0815609"><ele>183.5</ele><time>2026-04-26T12:57:44.262Z</time></trkpt><trkpt lat="40.1703857" lon="20.0817631"><ele>184.0</ele><time>2026-04-26T12:57:45.263Z</time></trkpt><trkpt lat="40.170207" lon="20.0819689"><ele>184.0</ele><time>2026-04-26T12:57:46.26Z</time></trkpt><trkpt lat="40.1700296" lon="20.082177"><ele>184.0</ele><time>2026-04-26T12:57:47.263Z</time></trkpt><trkpt lat="40.1698491" lon="20.0823783"><ele>183.5</ele><time>2026-04-26T12:57:48.262Z</time></trkpt><trkpt lat="40.1696719" lon="20.0825837"><ele>183.0</ele><time>2026-04-26T12:57:49.263Z</time></trkpt><trkpt lat="40.1694881" lon="20.0827844"><ele>183.0</ele><time>2026-04-26T12:57:50.263Z</time></trkpt><trkpt lat="40.1692988" lon="20.0829762"><ele>183.0</ele><time>2026-04-26T12:57:51.262Z</time></trkpt><trkpt lat="40.1691057" lon="20.0831521"><ele>184.5</ele><time>2026-04-26T12:57:52.262Z</time></trkpt><trkpt lat="40.1689021" lon="20.0833135"><ele>186.0</ele><time>2026-04-26T12:57:53.263Z</time></trkpt><trkpt lat="40.1686914" lon="20.0834622"><ele>186.0</ele><time>2026-04-26T12:57:54.263Z</time></trkpt><trkpt lat="40.1684751" lon="20.0835981"><ele>186.0</ele><time>2026-04-26T12:57:55.261Z</time></trkpt><trkpt lat="40.1682545" lon="20.083728"><ele>185.0</ele><time>2026-04-26T12:57:56.262Z</time></trkpt><trkpt lat="40.1680341" lon="20.0838594"><ele>184.0</ele><time>2026-04-26T12:57:57.261Z</time></trkpt><trkpt lat="40.1678133" lon="20.0839931"><ele>183.5</ele><time>2026-04-26T12:57:58.263Z</time></trkpt><trkpt lat="40.1675899" lon="20.0841242"><ele>183.0</ele><time>2026-04-26T12:57:59.261Z</time></trkpt><trkpt lat="40.1673689" lon="20.084254"><ele>184.5</ele><time>2026-04-26T12:58:00.26Z</time></trkpt><trkpt lat="40.1671482" lon="20.084389"><ele>186.0</ele><time>2026-04-26T12:58:01.261Z</time></trkpt><trkpt lat="40.1669258" lon="20.0845245"><ele>186.0</ele><time>2026-04-26T12:58:02.26Z</time></trkpt><trkpt lat="40.1667035" lon="20.0846584"><ele>186.0</ele><time>2026-04-26T12:58:03.261Z</time></trkpt><trkpt lat="40.1664796" lon="20.084792"><ele>186.5</ele><time>2026-04-26T12:58:04.261Z</time></trkpt><trkpt lat="40.1662539" lon="20.0849271"><ele>187.0</ele><time>2026-04-26T12:58:05.261Z</time></trkpt><trkpt lat="40.1660248" lon="20.0850596"><ele>187.5</ele><time>2026-04-26T12:58:06.261Z</time></trkpt><trkpt lat="40.1657976" lon="20.0851929"><ele>188.0</ele><time>2026-04-26T12:58:07.261Z</time></trkpt><trkpt lat="40.1655717" lon="20.0853226"><ele>188.0</ele><time>2026-04-26T12:58:08.258Z</time></trkpt><trkpt lat="40.1653471" lon="20.0854538"><ele>188.0</ele><time>2026-04-26T12:58:09.26Z</time></trkpt><trkpt lat="40.1651246" lon="20.0855815"><ele>188.0</ele><time>2026-04-26T12:58:10.262Z</time></trkpt><trkpt lat="40.1649038" lon="20.0857061"><ele>188.0</ele><time>2026-04-26T12:58:11.261Z</time></trkpt><trkpt lat="40.1646859" lon="20.0858312"><ele>188.5</ele><time>2026-04-26T12:58:12.26Z</time></trkpt><trkpt lat="40.1644672" lon="20.085951"><ele>189.0</ele><time>2026-04-26T12:58:13.263Z</time></trkpt><trkpt lat="40.1642471" lon="20.0860673"><ele>190.5</ele><time>2026-04-26T12:58:14.26Z</time></trkpt><trkpt lat="40.1640231" lon="20.0861789"><ele>192.0</ele><time>2026-04-26T12:58:15.261Z</time></trkpt><trkpt lat="40.1637971" lon="20.0862884"><ele>192.0</ele><time>2026-04-26T12:58:16.26Z</time></trkpt><trkpt lat="40.1635681" lon="20.0863958"><ele>192.0</ele><time>2026-04-26T12:58:17.26Z</time></trkpt><trkpt lat="40.1633381" lon="20.0864989"><ele>191.5</ele><time>2026-04-26T12:58:18.261Z</time></trkpt><trkpt lat="40.1631074" lon="20.0865997"><ele>191.0</ele><time>2026-04-26T12:58:19.262Z</time></trkpt><trkpt lat="40.162877" lon="20.0866997"><ele>191.0</ele><time>2026-04-26T12:58:20.263Z</time></trkpt><trkpt lat="40.1626484" lon="20.086798"><ele>191.0</ele><time>2026-04-26T12:58:21.262Z</time></trkpt><trkpt lat="40.1624205" lon="20.0868961"><ele>190.5</ele><time>2026-04-26T12:58:22.262Z</time></trkpt><trkpt lat="40.1621971" lon="20.0869937"><ele>190.0</ele><time>2026-04-26T12:58:23.263Z</time></trkpt><trkpt lat="40.1619762" lon="20.0870892"><ele>190.0</ele><time>2026-04-26T12:58:24.263Z</time></trkpt><trkpt lat="40.1617584" lon="20.0871833"><ele>190.0</ele><time>2026-04-26T12:58:25.262Z</time></trkpt><trkpt lat="40.1615443" lon="20.0872767"><ele>190.5</ele><time>2026-04-26T12:58:26.262Z</time></trkpt><trkpt lat="40.1613323" lon="20.0873737"><ele>191.0</ele><time>2026-04-26T12:58:27.261Z</time></trkpt><trkpt lat="40.1611191" lon="20.0874741"><ele>191.5</ele><time>2026-04-26T12:58:28.262Z</time></trkpt><trkpt lat="40.1609045" lon="20.0875819"><ele>192.0</ele><time>2026-04-26T12:58:29.261Z</time></trkpt><trkpt lat="40.1606895" lon="20.0877"><ele>192.0</ele><time>2026-04-26T12:58:30.262Z</time></trkpt><trkpt lat="40.1604726" lon="20.0878245"><ele>192.0</ele><time>2026-04-26T12:58:31.262Z</time></trkpt><trkpt lat="40.1602545" lon="20.0879514"><ele>192.0</ele><time>2026-04-26T12:58:32.261Z</time></trkpt><trkpt lat="40.1600386" lon="20.0880899"><ele>192.0</ele><time>2026-04-26T12:58:33.26Z</time></trkpt><trkpt lat="40.1598225" lon="20.0882236"><ele>193.0</ele><time>2026-04-26T12:58:34.261Z</time></trkpt><trkpt lat="40.1596095" lon="20.0883497"><ele>194.0</ele><time>2026-04-26T12:58:35.262Z</time></trkpt><trkpt lat="40.1594039" lon="20.0884755"><ele>194.0</ele><time>2026-04-26T12:58:36.262Z</time></trkpt><trkpt lat="40.1592018" lon="20.0885994"><ele>194.0</ele><time>2026-04-26T12:58:37.262Z</time></trkpt><trkpt lat="40.1590064" lon="20.0887207"><ele>194.0</ele><time>2026-04-26T12:58:38.263Z</time></trkpt><trkpt lat="40.1588088" lon="20.0888435"><ele>194.33333333333334</ele><time>2026-04-26T12:58:39.261Z</time></trkpt><trkpt lat="40.1586131" lon="20.0889647"><ele>194.66666666666669</ele><time>2026-04-26T12:58:40.26Z</time></trkpt><trkpt lat="40.1584172" lon="20.0890824"><ele>195.0</ele><time>2026-04-26T12:58:41.261Z</time></trkpt><trkpt lat="40.1582229" lon="20.0892024"><ele>195.33333333333331</ele><time>2026-04-26T12:58:42.261Z</time></trkpt><trkpt lat="40.158028" lon="20.0893242"><ele>195.66666666666666</ele><time>2026-04-26T12:58:43.261Z</time></trkpt><trkpt lat="40.1578344" lon="20.089445"><ele>196.0</ele><time>2026-04-26T12:58:44.262Z</time></trkpt><trkpt lat="40.1576394" lon="20.089566"><ele>196.0</ele><time>2026-04-26T12:58:45.261Z</time></trkpt><trkpt lat="40.1574488" lon="20.0896879"><ele>196.0</ele><time>2026-04-26T12:58:46.26Z</time></trkpt><trkpt lat="40.1572597" lon="20.0898079"><ele>196.0</ele><time>2026-04-26T12:58:47.263Z</time></trkpt><trkpt lat="40.1570728" lon="20.0899272"><ele>197.33333333333331</ele><time>2026-04-26T12:58:48.261Z</time></trkpt><trkpt lat="40.1568874" lon="20.0900452"><ele>198.66666666666669</ele><time>2026-04-26T12:58:49.261Z</time></trkpt><trkpt lat="40.1567027" lon="20.090159"><ele>200.0</ele><time>2026-04-26T12:58:50.26Z</time></trkpt><trkpt lat="40.15652" lon="20.0902736"><ele>201.0</ele><time>2026-04-26T12:58:51.261Z</time></trkpt><trkpt lat="40.1563367" lon="20.0903871"><ele>202.0</ele><time>2026-04-26T12:58:52.262Z</time></trkpt><trkpt lat="40.1561536" lon="20.0905"><ele>203.0</ele><time>2026-04-26T12:58:53.262Z</time></trkpt><trkpt lat="40.155971" lon="20.0906135"><ele>203.0</ele><time>2026-04-26T12:58:54.259Z</time></trkpt><trkpt lat="40.1557879" lon="20.0907258"><ele>203.0</ele><time>2026-04-26T12:58:55.261Z</time></trkpt><trkpt lat="40.1556043" lon="20.0908394"><ele>203.0</ele><time>2026-04-26T12:58:56.26Z</time></trkpt><trkpt lat="40.15542" lon="20.0909536"><ele>203.0</ele><time>2026-04-26T12:58:57.261Z</time></trkpt><trkpt lat="40.1552351" lon="20.0910717"><ele>203.0</ele><time>2026-04-26T12:58:58.262Z</time></trkpt><trkpt lat="40.1550512" lon="20.0911897"><ele>203.0</ele><time>2026-04-26T12:58:59.261Z</time></trkpt><trkpt lat="40.1548626" lon="20.091306"><ele>203.0</ele><time>2026-04-26T12:59:00.261Z</time></trkpt><trkpt lat="40.154676" lon="20.0914236"><ele>203.0</ele><time>2026-04-26T12:59:01.26Z</time></trkpt><trkpt lat="40.1544881" lon="20.0915389"><ele>203.0</ele><time>2026-04-26T12:59:02.263Z</time></trkpt><trkpt lat="40.1543012" lon="20.0916552"><ele>202.33333333333334</ele><time>2026-04-26T12:59:03.262Z</time></trkpt><trkpt lat="40.1541156" lon="20.0917714"><ele>201.66666666666669</ele><time>2026-04-26T12:59:04.261Z</time></trkpt><trkpt lat="40.1539292" lon="20.0918873"><ele>201.0</ele><time>2026-04-26T12:59:05.259Z</time></trkpt><trkpt lat="40.153743" lon="20.0920074"><ele>201.0</ele><time>2026-04-26T12:59:06.261Z</time></trkpt><trkpt lat="40.153554" lon="20.0921241"><ele>201.0</ele><time>2026-04-26T12:59:07.26Z</time></trkpt><trkpt lat="40.1533642" lon="20.0922394"><ele>201.0</ele><time>2026-04-26T12:59:08.259Z</time></trkpt><trkpt lat="40.1531731" lon="20.0923558"><ele>201.66666666666669</ele><time>2026-04-26T12:59:09.259Z</time></trkpt><trkpt lat="40.1529828" lon="20.0924722"><ele>202.33333333333334</ele><time>2026-04-26T12:59:10.259Z</time></trkpt><trkpt lat="40.1527919" lon="20.09259"><ele>203.0</ele><time>2026-04-26T12:59:11.26Z</time></trkpt><trkpt lat="40.1525972" lon="20.0927066"><ele>203.0</ele><time>2026-04-26T12:59:12.261Z</time></trkpt><trkpt lat="40.1524042" lon="20.0928205"><ele>203.0</ele><time>2026-04-26T12:59:13.261Z</time></trkpt><trkpt lat="40.1522084" lon="20.0929341"><ele>203.0</ele><time>2026-04-26T12:59:14.261Z</time></trkpt><trkpt lat="40.1520114" lon="20.0930508"><ele>203.66666666666669</ele><time>2026-04-26T12:59:15.262Z</time></trkpt><trkpt lat="40.1518163" lon="20.0931656"><ele>204.33333333333331</ele><time>2026-04-26T12:59:16.26Z</time></trkpt><trkpt lat="40.1516217" lon="20.0932775"><ele>205.0</ele><time>2026-04-26T12:59:17.259Z</time></trkpt><trkpt lat="40.1514284" lon="20.09339"><ele>203.33333333333331</ele><time>2026-04-26T12:59:18.259Z</time></trkpt><trkpt lat="40.1512353" lon="20.0935035"><ele>201.66666666666669</ele><time>2026-04-26T12:59:19.26Z</time></trkpt><trkpt lat="40.1510421" lon="20.093618"><ele>200.0</ele><time>2026-04-26T12:59:20.259Z</time></trkpt><trkpt lat="40.1508507" lon="20.0937354"><ele>199.0</ele><time>2026-04-26T12:59:21.257Z</time></trkpt><trkpt lat="40.1506627" lon="20.0938559"><ele>198.0</ele><time>2026-04-26T12:59:22.26Z</time></trkpt><trkpt lat="40.150477" lon="20.0939772"><ele>197.0</ele><time>2026-04-26T12:59:23.26Z</time></trkpt><trkpt lat="40.150293" lon="20.0940981"><ele>197.0</ele><time>2026-04-26T12:59:24.263Z</time></trkpt><trkpt lat="40.1501106" lon="20.0942194"><ele>197.0</ele><time>2026-04-26T12:59:25.259Z</time></trkpt><trkpt lat="40.1499279" lon="20.0943396"><ele>197.0</ele><time>2026-04-26T12:59:26.26Z</time></trkpt><trkpt lat="40.1497458" lon="20.0944549"><ele>196.0</ele><time>2026-04-26T12:59:27.26Z</time></trkpt><trkpt lat="40.1495637" lon="20.094574"><ele>195.0</ele><time>2026-04-26T12:59:28.258Z</time></trkpt><trkpt lat="40.1493826" lon="20.0946946"><ele>194.0</ele><time>2026-04-26T12:59:29.26Z</time></trkpt><trkpt lat="40.1492024" lon="20.0948143"><ele>193.66666666666669</ele><time>2026-04-26T12:59:30.262Z</time></trkpt><trkpt lat="40.1490196" lon="20.0949269"><ele>193.33333333333331</ele><time>2026-04-26T12:59:31.261Z</time></trkpt><trkpt lat="40.1488382" lon="20.0950384"><ele>193.0</ele><time>2026-04-26T12:59:32.263Z</time></trkpt><trkpt lat="40.1486612" lon="20.0951564"><ele>193.0</ele><time>2026-04-26T12:59:33.263Z</time></trkpt><trkpt lat="40.1484829" lon="20.0952717"><ele>193.0</ele><time>2026-04-26T12:59:34.261Z</time></trkpt><trkpt lat="40.1483064" lon="20.0953848"><ele>193.0</ele><time>2026-04-26T12:59:35.262Z</time></trkpt><trkpt lat="40.1481353" lon="20.0954928"><ele>194.33333333333331</ele><time>2026-04-26T12:59:36.26Z</time></trkpt><trkpt lat="40.147976" lon="20.0955896"><ele>195.66666666666669</ele><time>2026-04-26T12:59:37.261Z</time></trkpt><trkpt lat="40.1478307" lon="20.0956783"><ele>197.0</ele><time>2026-04-26T12:59:38.26Z</time></trkpt><trkpt lat="40.1476957" lon="20.0957622"><ele>197.75</ele><time>2026-04-26T12:59:39.26Z</time></trkpt><trkpt lat="40.147569" lon="20.0958471"><ele>198.5</ele><time>2026-04-26T12:59:40.259Z</time></trkpt><trkpt lat="40.1474465" lon="20.0959307"><ele>199.25</ele><time>2026-04-26T12:59:41.259Z</time></trkpt><trkpt lat="40.1473261" lon="20.0960141"><ele>200.0</ele><time>2026-04-26T12:59:42.263Z</time></trkpt><trkpt lat="40.1472028" lon="20.0960989"><ele>200.0</ele><time>2026-04-26T12:59:43.258Z</time></trkpt><trkpt lat="40.1470787" lon="20.0961825"><ele>200.0</ele><time>2026-04-26T12:59:44.262Z</time></trkpt><trkpt lat="40.1469535" lon="20.0962619"><ele>200.0</ele><time>2026-04-26T12:59:45.261Z</time></trkpt><trkpt lat="40.1468274" lon="20.0963455"><ele>200.0</ele><time>2026-04-26T12:59:46.26Z</time></trkpt><trkpt lat="40.1466989" lon="20.0964331"><ele>200.0</ele><time>2026-04-26T12:59:47.259Z</time></trkpt><trkpt lat="40.1465664" lon="20.0965198"><ele>200.0</ele><time>2026-04-26T12:59:48.261Z</time></trkpt><trkpt lat="40.1464303" lon="20.0966124"><ele>200.0</ele><time>2026-04-26T12:59:49.261Z</time></trkpt><trkpt lat="40.1462906" lon="20.0967089"><ele>200.0</ele><time>2026-04-26T12:59:50.261Z</time></trkpt><trkpt lat="40.1461454" lon="20.0968097"><ele>200.0</ele><time>2026-04-26T12:59:51.26Z</time></trkpt><trkpt lat="40.145998" lon="20.0969058"><ele>200.0</ele><time>2026-04-26T12:59:52.261Z</time></trkpt><trkpt lat="40.1458512" lon="20.0970009"><ele>200.33333333333334</ele><time>2026-04-26T12:59:53.26Z</time></trkpt><trkpt lat="40.1457048" lon="20.0970976"><ele>200.66666666666669</ele><time>2026-04-26T12:59:54.259Z</time></trkpt><trkpt lat="40.1455555" lon="20.097195"><ele>201.0</ele><time>2026-04-26T12:59:55.26Z</time></trkpt><trkpt lat="40.1454047" lon="20.0972923"><ele>201.0</ele><time>2026-04-26T12:59:56.26Z</time></trkpt><trkpt lat="40.1452484" lon="20.0973918"><ele>201.0</ele><time>2026-04-26T12:59:57.261Z</time></trkpt><trkpt lat="40.1450858" lon="20.0974928"><ele>201.0</ele><time>2026-04-26T12:59:58.259Z</time></trkpt><trkpt lat="40.1449206" lon="20.0975996"><ele>201.0</ele><time>2026-04-26T12:59:59.261Z</time></trkpt><trkpt lat="40.1447524" lon="20.0977073"><ele>201.0</ele><time>2026-04-26T13:00:00.261Z</time></trkpt><trkpt lat="40.1445824" lon="20.0978195"><ele>201.0</ele><time>2026-04-26T13:00:01.259Z</time></trkpt><trkpt lat="40.1444105" lon="20.097928"><ele>201.0</ele><time>2026-04-26T13:00:02.258Z</time></trkpt><trkpt lat="40.1442364" lon="20.0980389"><ele>201.0</ele><time>2026-04-26T13:00:03.258Z</time></trkpt><trkpt lat="40.1440619" lon="20.0981501"><ele>201.0</ele><time>2026-04-26T13:00:04.261Z</time></trkpt><trkpt lat="40.1438856" lon="20.0982651"><ele>200.66666666666669</ele><time>2026-04-26T13:00:05.26Z</time></trkpt><trkpt lat="40.1437082" lon="20.0983803"><ele>200.33333333333334</ele><time>2026-04-26T13:00:06.259Z</time></trkpt><trkpt lat="40.1435333" lon="20.0984902"><ele>200.0</ele><time>2026-04-26T13:00:07.26Z</time></trkpt><trkpt lat="40.1433575" lon="20.0986008"><ele>200.0</ele><time>2026-04-26T13:00:08.262Z</time></trkpt><trkpt lat="40.1431814" lon="20.0987129"><ele>200.0</ele><time>2026-04-26T13:00:09.259Z</time></trkpt><trkpt lat="40.1430011" lon="20.0988235"><ele>200.0</ele><time>2026-04-26T13:00:10.262Z</time></trkpt><trkpt lat="40.1428187" lon="20.0989369"><ele>200.0</ele><time>2026-04-26T13:00:11.26Z</time></trkpt><trkpt lat="40.1426374" lon="20.0990505"><ele>200.0</ele><time>2026-04-26T13:00:12.261Z</time></trkpt><trkpt lat="40.1424508" lon="20.0991648"><ele>200.0</ele><time>2026-04-26T13:00:13.262Z</time></trkpt><trkpt lat="40.1422669" lon="20.099282"><ele>201.33333333333334</ele><time>2026-04-26T13:00:14.259Z</time></trkpt><trkpt lat="40.1420787" lon="20.0994033"><ele>202.66666666666669</ele><time>2026-04-26T13:00:15.26Z</time></trkpt><trkpt lat="40.1418926" lon="20.0995251"><ele>204.0</ele><time>2026-04-26T13:00:16.261Z</time></trkpt><trkpt lat="40.1417036" lon="20.0996445"><ele>203.0</ele><time>2026-04-26T13:00:17.262Z</time></trkpt><trkpt lat="40.141515" lon="20.0997656"><ele>202.0</ele><time>2026-04-26T13:00:18.26Z</time></trkpt><trkpt lat="40.1413243" lon="20.0998848"><ele>201.0</ele><time>2026-04-26T13:00:19.261Z</time></trkpt><trkpt lat="40.1411315" lon="20.1000095"><ele>199.66666666666669</ele><time>2026-04-26T13:00:20.259Z</time></trkpt><trkpt lat="40.1409379" lon="20.1001341"><ele>198.33333333333334</ele><time>2026-04-26T13:00:21.259Z</time></trkpt><trkpt lat="40.1407426" lon="20.1002571"><ele>197.0</ele><time>2026-04-26T13:00:22.261Z</time></trkpt><trkpt lat="40.1405441" lon="20.1003755"><ele>197.0</ele><time>2026-04-26T13:00:23.261Z</time></trkpt><trkpt lat="40.1403433" lon="20.1004965"><ele>197.0</ele><time>2026-04-26T13:00:24.261Z</time></trkpt><trkpt lat="40.1401427" lon="20.1006178"><ele>197.0</ele><time>2026-04-26T13:00:25.262Z</time></trkpt><trkpt lat="40.1399376" lon="20.1007289"><ele>196.66666666666669</ele><time>2026-04-26T13:00:26.26Z</time></trkpt><trkpt lat="40.1397299" lon="20.1008324"><ele>196.33333333333331</ele><time>2026-04-26T13:00:27.262Z</time></trkpt><trkpt lat="40.139519" lon="20.1009271"><ele>196.0</ele><time>2026-04-26T13:00:28.259Z</time></trkpt><trkpt lat="40.139306" lon="20.1010208"><ele>196.0</ele><time>2026-04-26T13:00:29.262Z</time></trkpt><trkpt lat="40.1390941" lon="20.1011103"><ele>196.0</ele><time>2026-04-26T13:00:30.263Z</time></trkpt><trkpt lat="40.1388813" lon="20.1012012"><ele>196.0</ele><time>2026-04-26T13:00:31.263Z</time></trkpt><trkpt lat="40.1386684" lon="20.101295"><ele>195.0</ele><time>2026-04-26T13:00:32.262Z</time></trkpt><trkpt lat="40.138458" lon="20.1013855"><ele>194.0</ele><time>2026-04-26T13:00:33.258Z</time></trkpt><trkpt lat="40.1382472" lon="20.1014736"><ele>193.0</ele><time>2026-04-26T13:00:34.259Z</time></trkpt><trkpt lat="40.138035" lon="20.1015622"><ele>191.66666666666666</ele><time>2026-04-26T13:00:35.261Z</time></trkpt><trkpt lat="40.1378238" lon="20.1016536"><ele>190.33333333333331</ele><time>2026-04-26T13:00:36.259Z</time></trkpt><trkpt lat="40.1376127" lon="20.1017472"><ele>189.0</ele><time>2026-04-26T13:00:37.26Z</time></trkpt><trkpt lat="40.137403" lon="20.1018459"><ele>188.66666666666666</ele><time>2026-04-26T13:00:38.261Z</time></trkpt><trkpt lat="40.1371945" lon="20.1019484"><ele>188.33333333333331</ele><time>2026-04-26T13:00:39.26Z</time></trkpt><trkpt lat="40.1369878" lon="20.1020582"><ele>188.0</ele><time>2026-04-26T13:00:40.262Z</time></trkpt><trkpt lat="40.1367827" lon="20.1021767"><ele>188.0</ele><time>2026-04-26T13:00:41.259Z</time></trkpt><trkpt lat="40.1365797" lon="20.1023075"><ele>188.0</ele><time>2026-04-26T13:00:42.26Z</time></trkpt><trkpt lat="40.1363762" lon="20.1024441"><ele>187.0</ele><time>2026-04-26T13:00:43.26Z</time></trkpt><trkpt lat="40.1361711" lon="20.1025894"><ele>186.0</ele><time>2026-04-26T13:00:44.261Z</time></trkpt><trkpt lat="40.1359659" lon="20.1027383"><ele>186.0</ele><time>2026-04-26T13:00:45.257Z</time></trkpt><trkpt lat="40.1357603" lon="20.102885"><ele>186.0</ele><time>2026-04-26T13:00:46.261Z</time></trkpt><trkpt lat="40.1355536" lon="20.1030349"><ele>185.5</ele><time>2026-04-26T13:00:47.26Z</time></trkpt><trkpt lat="40.135346" lon="20.1031811"><ele>185.0</ele><time>2026-04-26T13:00:48.26Z</time></trkpt><trkpt lat="40.1351383" lon="20.1033292"><ele>184.5</ele><time>2026-04-26T13:00:49.26Z</time></trkpt><trkpt lat="40.1349339" lon="20.1034758"><ele>184.0</ele><time>2026-04-26T13:00:50.26Z</time></trkpt><trkpt lat="40.1347297" lon="20.1036311"><ele>184.0</ele><time>2026-04-26T13:00:51.262Z</time></trkpt><trkpt lat="40.1345239" lon="20.1037811"><ele>184.0</ele><time>2026-04-26T13:00:52.26Z</time></trkpt><trkpt lat="40.1343176" lon="20.1039339"><ele>184.5</ele><time>2026-04-26T13:00:53.26Z</time></trkpt><trkpt lat="40.1341143" lon="20.1040855"><ele>185.0</ele><time>2026-04-26T13:00:54.261Z</time></trkpt><trkpt lat="40.133913" lon="20.104244"><ele>185.0</ele><time>2026-04-26T13:00:55.261Z</time></trkpt><trkpt lat="40.1337079" lon="20.1044057"><ele>185.0</ele><time>2026-04-26T13:00:56.261Z</time></trkpt><trkpt lat="40.1335029" lon="20.1045674"><ele>185.0</ele><time>2026-04-26T13:00:57.262Z</time></trkpt><trkpt lat="40.1332989" lon="20.1047278"><ele>185.0</ele><time>2026-04-26T13:00:58.26Z</time></trkpt><trkpt lat="40.1330934" lon="20.1048884"><ele>185.5</ele><time>2026-04-26T13:00:59.261Z</time></trkpt><trkpt lat="40.1328871" lon="20.1050515"><ele>186.0</ele><time>2026-04-26T13:01:00.259Z</time></trkpt><trkpt lat="40.1326812" lon="20.1052129"><ele>186.0</ele><time>2026-04-26T13:01:01.26Z</time></trkpt><trkpt lat="40.132475" lon="20.1053786"><ele>186.0</ele><time>2026-04-26T13:01:02.261Z</time></trkpt><trkpt lat="40.1322694" lon="20.1055466"><ele>186.0</ele><time>2026-04-26T13:01:03.261Z</time></trkpt><trkpt lat="40.1320616" lon="20.10571"><ele>186.0</ele><time>2026-04-26T13:01:04.26Z</time></trkpt><trkpt lat="40.1318536" lon="20.1058746"><ele>186.0</ele><time>2026-04-26T13:01:05.262Z</time></trkpt><trkpt lat="40.1316454" lon="20.1060364"><ele>186.0</ele><time>2026-04-26T13:01:06.261Z</time></trkpt><trkpt lat="40.1314367" lon="20.1061997"><ele>186.0</ele><time>2026-04-26T13:01:07.26Z</time></trkpt><trkpt lat="40.1312281" lon="20.1063662"><ele>186.0</ele><time>2026-04-26T13:01:08.261Z</time></trkpt><trkpt lat="40.1310182" lon="20.1065332"><ele>185.5</ele><time>2026-04-26T13:01:09.262Z</time></trkpt><trkpt lat="40.130808" lon="20.1066993"><ele>185.0</ele><time>2026-04-26T13:01:10.259Z</time></trkpt><trkpt lat="40.1305998" lon="20.106867"><ele>186.5</ele><time>2026-04-26T13:01:11.259Z</time></trkpt><trkpt lat="40.1303887" lon="20.1070318"><ele>188.0</ele><time>2026-04-26T13:01:12.26Z</time></trkpt><trkpt lat="40.1301804" lon="20.1071993"><ele>188.0</ele><time>2026-04-26T13:01:13.259Z</time></trkpt><trkpt lat="40.1299718" lon="20.1073647"><ele>188.0</ele><time>2026-04-26T13:01:14.261Z</time></trkpt><trkpt lat="40.129763" lon="20.1075287"><ele>187.0</ele><time>2026-04-26T13:01:15.26Z</time></trkpt><trkpt lat="40.1295549" lon="20.1076933"><ele>186.0</ele><time>2026-04-26T13:01:16.262Z</time></trkpt><trkpt lat="40.1293497" lon="20.107857"><ele>186.0</ele><time>2026-04-26T13:01:17.261Z</time></trkpt><trkpt lat="40.1291441" lon="20.1080207"><ele>186.0</ele><time>2026-04-26T13:01:18.259Z</time></trkpt><trkpt lat="40.1289399" lon="20.1081836"><ele>187.0</ele><time>2026-04-26T13:01:19.26Z</time></trkpt><trkpt lat="40.1287363" lon="20.1083483"><ele>188.0</ele><time>2026-04-26T13:01:20.26Z</time></trkpt><trkpt lat="40.128532" lon="20.1085112"><ele>188.0</ele><time>2026-04-26T13:01:21.259Z</time></trkpt><trkpt lat="40.1283299" lon="20.108674"><ele>188.0</ele><time>2026-04-26T13:01:22.26Z</time></trkpt><trkpt lat="40.1281307" lon="20.1088381"><ele>188.0</ele><time>2026-04-26T13:01:23.26Z</time></trkpt><trkpt lat="40.1279279" lon="20.109001"><ele>188.0</ele><time>2026-04-26T13:01:24.262Z</time></trkpt><trkpt lat="40.1277294" lon="20.109165"><ele>188.0</ele><time>2026-04-26T13:01:25.259Z</time></trkpt><trkpt lat="40.1275304" lon="20.1093253"><ele>188.0</ele><time>2026-04-26T13:01:26.261Z</time></trkpt><trkpt lat="40.1273319" lon="20.1094855"><ele>189.0</ele><time>2026-04-26T13:01:27.261Z</time></trkpt><trkpt lat="40.1271339" lon="20.1096417"><ele>190.0</ele><time>2026-04-26T13:01:28.26Z</time></trkpt><trkpt lat="40.1269375" lon="20.1098023"><ele>189.5</ele><time>2026-04-26T13:01:29.26Z</time></trkpt><trkpt lat="40.1267389" lon="20.1099633"><ele>189.0</ele><time>2026-04-26T13:01:30.262Z</time></trkpt><trkpt lat="40.1265411" lon="20.110122"><ele>189.0</ele><time>2026-04-26T13:01:31.263Z</time></trkpt><trkpt lat="40.1263436" lon="20.1102789"><ele>189.0</ele><time>2026-04-26T13:01:32.261Z</time></trkpt><trkpt lat="40.1261445" lon="20.1104334"><ele>189.0</ele><time>2026-04-26T13:01:33.263Z</time></trkpt><trkpt lat="40.1259409" lon="20.110587"><ele>189.0</ele><time>2026-04-26T13:01:34.261Z</time></trkpt><trkpt lat="40.1257294" lon="20.1107433"><ele>189.0</ele><time>2026-04-26T13:01:35.262Z</time></trkpt><trkpt lat="40.1255161" lon="20.1109085"><ele>189.0</ele><time>2026-04-26T13:01:36.263Z</time></trkpt><trkpt lat="40.1253061" lon="20.1110804"><ele>189.0</ele><time>2026-04-26T13:01:37.259Z</time></trkpt><trkpt lat="40.125096" lon="20.1112497"><ele>189.0</ele><time>2026-04-26T13:01:38.262Z</time></trkpt><trkpt lat="40.1248842" lon="20.1114175"><ele>189.0</ele><time>2026-04-26T13:01:39.262Z</time></trkpt><trkpt lat="40.1246745" lon="20.1115851"><ele>189.0</ele><time>2026-04-26T13:01:40.26Z</time></trkpt><trkpt lat="40.1244637" lon="20.1117501"><ele>189.0</ele><time>2026-04-26T13:01:41.263Z</time></trkpt><trkpt lat="40.1242537" lon="20.1119147"><ele>189.0</ele><time>2026-04-26T13:01:42.26Z</time></trkpt><trkpt lat="40.1240437" lon="20.1120797"><ele>189.5</ele><time>2026-04-26T13:01:43.262Z</time></trkpt><trkpt lat="40.1238341" lon="20.1122439"><ele>190.0</ele><time>2026-04-26T13:01:44.259Z</time></trkpt><trkpt lat="40.1236232" lon="20.1124087"><ele>189.0</ele><time>2026-04-26T13:01:45.261Z</time></trkpt><trkpt lat="40.1234119" lon="20.1125742"><ele>188.0</ele><time>2026-04-26T13:01:46.263Z</time></trkpt><trkpt lat="40.1232014" lon="20.1127424"><ele>187.0</ele><time>2026-04-26T13:01:47.261Z</time></trkpt><trkpt lat="40.1229891" lon="20.1129132"><ele>186.0</ele><time>2026-04-26T13:01:48.261Z</time></trkpt><trkpt lat="40.1227769" lon="20.1130813"><ele>186.5</ele><time>2026-04-26T13:01:49.259Z</time></trkpt><trkpt lat="40.1225615" lon="20.1132523"><ele>187.0</ele><time>2026-04-26T13:01:50.262Z</time></trkpt><trkpt lat="40.1223479" lon="20.1134212"><ele>186.0</ele><time>2026-04-26T13:01:51.26Z</time></trkpt><trkpt lat="40.1221329" lon="20.1135883"><ele>185.0</ele><time>2026-04-26T13:01:52.261Z</time></trkpt><trkpt lat="40.1219165" lon="20.1137553"><ele>185.0</ele><time>2026-04-26T13:01:53.26Z</time></trkpt><trkpt lat="40.1217011" lon="20.1139253"><ele>185.0</ele><time>2026-04-26T13:01:54.261Z</time></trkpt><trkpt lat="40.1214813" lon="20.1140965"><ele>184.5</ele><time>2026-04-26T13:01:55.261Z</time></trkpt><trkpt lat="40.1212583" lon="20.1142712"><ele>184.0</ele><time>2026-04-26T13:01:56.26Z</time></trkpt><trkpt lat="40.1210371" lon="20.1144448"><ele>184.0</ele><time>2026-04-26T13:01:57.261Z</time></trkpt><trkpt lat="40.1208139" lon="20.1146181"><ele>184.0</ele><time>2026-04-26T13:01:58.261Z</time></trkpt><trkpt lat="40.120593" lon="20.1147927"><ele>184.5</ele><time>2026-04-26T13:01:59.261Z</time></trkpt><trkpt lat="40.1203705" lon="20.1149652"><ele>185.0</ele><time>2026-04-26T13:02:00.259Z</time></trkpt><trkpt lat="40.1201478" lon="20.1151404"><ele>185.0</ele><time>2026-04-26T13:02:01.261Z</time></trkpt><trkpt lat="40.1199248" lon="20.1153138"><ele>185.0</ele><time>2026-04-26T13:02:02.261Z</time></trkpt><trkpt lat="40.1197033" lon="20.1154907"><ele>188.0</ele><time>2026-04-26T13:02:03.26Z</time></trkpt><trkpt lat="40.1194845" lon="20.115667"><ele>191.0</ele><time>2026-04-26T13:02:04.259Z</time></trkpt><trkpt lat="40.1192635" lon="20.1158378"><ele>190.5</ele><time>2026-04-26T13:02:05.262Z</time></trkpt><trkpt lat="40.1190447" lon="20.1160098"><ele>190.0</ele><time>2026-04-26T13:02:06.261Z</time></trkpt><trkpt lat="40.1188281" lon="20.1161776"><ele>190.0</ele><time>2026-04-26T13:02:07.262Z</time></trkpt><trkpt lat="40.1186119" lon="20.1163471"><ele>190.0</ele><time>2026-04-26T13:02:08.26Z</time></trkpt><trkpt lat="40.1183952" lon="20.1165144"><ele>189.0</ele><time>2026-04-26T13:02:09.26Z</time></trkpt><trkpt lat="40.1181821" lon="20.1166859"><ele>188.0</ele><time>2026-04-26T13:02:10.261Z</time></trkpt><trkpt lat="40.1179681" lon="20.1168555"><ele>188.0</ele><time>2026-04-26T13:02:11.261Z</time></trkpt><trkpt lat="40.1177551" lon="20.1170248"><ele>188.0</ele><time>2026-04-26T13:02:12.262Z</time></trkpt><trkpt lat="40.117544" lon="20.1171913"><ele>188.5</ele><time>2026-04-26T13:02:13.258Z</time></trkpt><trkpt lat="40.1173343" lon="20.1173582"><ele>189.0</ele><time>2026-04-26T13:02:14.261Z</time></trkpt><trkpt lat="40.1171209" lon="20.1175219"><ele>189.0</ele><time>2026-04-26T13:02:15.262Z</time></trkpt><trkpt lat="40.1169102" lon="20.1176733"><ele>189.0</ele><time>2026-04-26T13:02:16.262Z</time></trkpt><trkpt lat="40.1166975" lon="20.1178091"><ele>191.5</ele><time>2026-04-26T13:02:17.261Z</time></trkpt><trkpt lat="40.1164876" lon="20.1179296"><ele>194.0</ele><time>2026-04-26T13:02:18.26Z</time></trkpt><trkpt lat="40.1162789" lon="20.1180478"><ele>194.0</ele><time>2026-04-26T13:02:19.259Z</time></trkpt><trkpt lat="40.1160682" lon="20.118169"><ele>194.0</ele><time>2026-04-26T13:02:20.261Z</time></trkpt><trkpt lat="40.1158578" lon="20.1183031"><ele>191.5</ele><time>2026-04-26T13:02:21.26Z</time></trkpt><trkpt lat="40.115644" lon="20.1184317"><ele>189.0</ele><time>2026-04-26T13:02:22.261Z</time></trkpt><trkpt lat="40.11543" lon="20.1185491"><ele>189.0</ele><time>2026-04-26T13:02:23.261Z</time></trkpt><trkpt lat="40.1152141" lon="20.1186586"><ele>189.0</ele><time>2026-04-26T13:02:24.263Z</time></trkpt><trkpt lat="40.1150015" lon="20.1187751"><ele>188.5</ele><time>2026-04-26T13:02:25.261Z</time></trkpt><trkpt lat="40.1147868" lon="20.1188922"><ele>188.0</ele><time>2026-04-26T13:02:26.261Z</time></trkpt><trkpt lat="40.1145732" lon="20.1190135"><ele>186.5</ele><time>2026-04-26T13:02:27.259Z</time></trkpt><trkpt lat="40.1143563" lon="20.1191348"><ele>185.0</ele><time>2026-04-26T13:02:28.262Z</time></trkpt><trkpt lat="40.1141398" lon="20.1192594"><ele>185.5</ele><time>2026-04-26T13:02:29.26Z</time></trkpt><trkpt lat="40.1139236" lon="20.1193867"><ele>186.0</ele><time>2026-04-26T13:02:30.261Z</time></trkpt><trkpt lat="40.1137062" lon="20.1195104"><ele>186.0</ele><time>2026-04-26T13:02:31.262Z</time></trkpt><trkpt lat="40.1134872" lon="20.1196293"><ele>186.0</ele><time>2026-04-26T13:02:32.262Z</time></trkpt><trkpt lat="40.1132699" lon="20.1197518"><ele>185.5</ele><time>2026-04-26T13:02:33.261Z</time></trkpt><trkpt lat="40.1130521" lon="20.1198763"><ele>185.0</ele><time>2026-04-26T13:02:34.261Z</time></trkpt><trkpt lat="40.1128356" lon="20.1200002"><ele>185.0</ele><time>2026-04-26T13:02:35.261Z</time></trkpt><trkpt lat="40.1126197" lon="20.1201259"><ele>185.0</ele><time>2026-04-26T13:02:36.26Z</time></trkpt><trkpt lat="40.1124034" lon="20.1202483"><ele>185.0</ele><time>2026-04-26T13:02:37.261Z</time></trkpt><trkpt lat="40.1121888" lon="20.1203737"><ele>185.0</ele><time>2026-04-26T13:02:38.26Z</time></trkpt><trkpt lat="40.1119758" lon="20.1204989"><ele>185.0</ele><time>2026-04-26T13:02:39.26Z</time></trkpt><trkpt lat="40.1117633" lon="20.1206276"><ele>185.0</ele><time>2026-04-26T13:02:40.259Z</time></trkpt><trkpt lat="40.1115518" lon="20.120752"><ele>184.0</ele><time>2026-04-26T13:02:41.26Z</time></trkpt><trkpt lat="40.1113396" lon="20.1208768"><ele>183.0</ele><time>2026-04-26T13:02:42.262Z</time></trkpt><trkpt lat="40.1111285" lon="20.1209986"><ele>183.0</ele><time>2026-04-26T13:02:43.263Z</time></trkpt><trkpt lat="40.1109171" lon="20.1211244"><ele>183.0</ele><time>2026-04-26T13:02:44.262Z</time></trkpt><trkpt lat="40.110708" lon="20.1212495"><ele>185.0</ele><time>2026-04-26T13:02:45.262Z</time></trkpt><trkpt lat="40.1104979" lon="20.1213715"><ele>187.0</ele><time>2026-04-26T13:02:46.263Z</time></trkpt><trkpt lat="40.1102884" lon="20.1214937"><ele>187.5</ele><time>2026-04-26T13:02:47.259Z</time></trkpt><trkpt lat="40.1100803" lon="20.1216162"><ele>188.0</ele><time>2026-04-26T13:02:48.26Z</time></trkpt><trkpt lat="40.1098719" lon="20.1217352"><ele>188.0</ele><time>2026-04-26T13:02:49.258Z</time></trkpt><trkpt lat="40.1096661" lon="20.1218565"><ele>188.0</ele><time>2026-04-26T13:02:50.259Z</time></trkpt><trkpt lat="40.1094626" lon="20.1219808"><ele>188.0</ele><time>2026-04-26T13:02:51.259Z</time></trkpt><trkpt lat="40.1092625" lon="20.1221003"><ele>188.0</ele><time>2026-04-26T13:02:52.261Z</time></trkpt><trkpt lat="40.109068" lon="20.1222162"><ele>188.0</ele><time>2026-04-26T13:02:53.26Z</time></trkpt><trkpt lat="40.108883" lon="20.1223248"><ele>187.33333333333331</ele><time>2026-04-26T13:02:54.262Z</time></trkpt><trkpt lat="40.1087043" lon="20.1224178"><ele>186.66666666666666</ele><time>2026-04-26T13:02:55.263Z</time></trkpt><trkpt lat="40.1085274" lon="20.12248"><ele>186.0</ele><time>2026-04-26T13:02:56.263Z</time></trkpt><trkpt lat="40.1083476" lon="20.1225039"><ele>186.66666666666666</ele><time>2026-04-26T13:02:57.263Z</time></trkpt><trkpt lat="40.1081583" lon="20.1224907"><ele>187.33333333333331</ele><time>2026-04-26T13:02:58.263Z</time></trkpt><trkpt lat="40.1079662" lon="20.1224634"><ele>188.0</ele><time>2026-04-26T13:02:59.26Z</time></trkpt><trkpt lat="40.1077643" lon="20.1224322"><ele>188.0</ele><time>2026-04-26T13:03:00.26Z</time></trkpt><trkpt lat="40.1075589" lon="20.122431"><ele>188.0</ele><time>2026-04-26T13:03:01.259Z</time></trkpt><trkpt lat="40.107348" lon="20.1224604"><ele>188.0</ele><time>2026-04-26T13:03:02.263Z</time></trkpt><trkpt lat="40.1071374" lon="20.1225135"><ele>188.5</ele><time>2026-04-26T13:03:03.263Z</time></trkpt><trkpt lat="40.1069217" lon="20.1225874"><ele>189.0</ele><time>2026-04-26T13:03:04.26Z</time></trkpt><trkpt lat="40.1067014" lon="20.1226719"><ele>188.0</ele><time>2026-04-26T13:03:05.26Z</time></trkpt><trkpt lat="40.1064807" lon="20.1227555"><ele>187.0</ele><time>2026-04-26T13:03:06.262Z</time></trkpt><trkpt lat="40.1062589" lon="20.1228383"><ele>187.0</ele><time>2026-04-26T13:03:07.261Z</time></trkpt><trkpt lat="40.1060371" lon="20.1229204"><ele>187.0</ele><time>2026-04-26T13:03:08.26Z</time></trkpt><trkpt lat="40.1058177" lon="20.123003"><ele>187.0</ele><time>2026-04-26T13:03:09.258Z</time></trkpt><trkpt lat="40.1056014" lon="20.1230865"><ele>187.0</ele><time>2026-04-26T13:03:10.263Z</time></trkpt><trkpt lat="40.105388" lon="20.1231669"><ele>187.0</ele><time>2026-04-26T13:03:11.26Z</time></trkpt><trkpt lat="40.1051772" lon="20.1232468"><ele>187.33333333333334</ele><time>2026-04-26T13:03:12.26Z</time></trkpt><trkpt lat="40.1049676" lon="20.1233295"><ele>187.66666666666666</ele><time>2026-04-26T13:03:13.26Z</time></trkpt><trkpt lat="40.104761" lon="20.1234139"><ele>188.0</ele><time>2026-04-26T13:03:14.259Z</time></trkpt><trkpt lat="40.1045559" lon="20.1234951"><ele>188.0</ele><time>2026-04-26T13:03:15.261Z</time></trkpt><trkpt lat="40.1043551" lon="20.1235794"><ele>188.0</ele><time>2026-04-26T13:03:16.262Z</time></trkpt><trkpt lat="40.1041569" lon="20.1236713"><ele>188.0</ele><time>2026-04-26T13:03:17.261Z</time></trkpt><trkpt lat="40.1039625" lon="20.1237739"><ele>188.0</ele><time>2026-04-26T13:03:18.262Z</time></trkpt><trkpt lat="40.1037757" lon="20.1239004"><ele>188.0</ele><time>2026-04-26T13:03:19.259Z</time></trkpt><trkpt lat="40.1036012" lon="20.1240502"><ele>188.0</ele><time>2026-04-26T13:03:20.261Z</time></trkpt><trkpt lat="40.103439" lon="20.1242111"><ele>188.0</ele><time>2026-04-26T13:03:21.26Z</time></trkpt><trkpt lat="40.1032829" lon="20.1243886"><ele>188.0</ele><time>2026-04-26T13:03:22.261Z</time></trkpt><trkpt lat="40.1031378" lon="20.1245869"><ele>188.0</ele><time>2026-04-26T13:03:23.26Z</time></trkpt><trkpt lat="40.1030007" lon="20.1247939"><ele>188.0</ele><time>2026-04-26T13:03:24.258Z</time></trkpt><trkpt lat="40.1028774" lon="20.125014"><ele>188.0</ele><time>2026-04-26T13:03:25.259Z</time></trkpt><trkpt lat="40.1027666" lon="20.1252468"><ele>188.0</ele><time>2026-04-26T13:03:26.26Z</time></trkpt><trkpt lat="40.102667" lon="20.1254865"><ele>188.0</ele><time>2026-04-26T13:03:27.259Z</time></trkpt><trkpt lat="40.1025734" lon="20.1257245"><ele>188.0</ele><time>2026-04-26T13:03:28.258Z</time></trkpt><trkpt lat="40.1024713" lon="20.1259653"><ele>188.0</ele><time>2026-04-26T13:03:29.259Z</time></trkpt><trkpt lat="40.1023724" lon="20.1261982"><ele>187.66666666666666</ele><time>2026-04-26T13:03:30.258Z</time></trkpt><trkpt lat="40.1022735" lon="20.1264213"><ele>187.33333333333334</ele><time>2026-04-26T13:03:31.259Z</time></trkpt><trkpt lat="40.1021609" lon="20.1266372"><ele>187.0</ele><time>2026-04-26T13:03:32.262Z</time></trkpt><trkpt lat="40.1020344" lon="20.1268477"><ele>187.0</ele><time>2026-04-26T13:03:33.26Z</time></trkpt><trkpt lat="40.1018919" lon="20.1270492"><ele>187.0</ele><time>2026-04-26T13:03:34.259Z</time></trkpt><trkpt lat="40.1017385" lon="20.1272411"><ele>187.0</ele><time>2026-04-26T13:03:35.26Z</time></trkpt><trkpt lat="40.1015749" lon="20.1274266"><ele>190.33333333333334</ele><time>2026-04-26T13:03:36.26Z</time></trkpt><trkpt lat="40.1014063" lon="20.1276046"><ele>193.66666666666669</ele><time>2026-04-26T13:03:37.261Z</time></trkpt><trkpt lat="40.1012364" lon="20.127773"><ele>197.0</ele><time>2026-04-26T13:03:38.26Z</time></trkpt><trkpt lat="40.1010589" lon="20.1279428"><ele>197.0</ele><time>2026-04-26T13:03:39.259Z</time></trkpt><trkpt lat="40.1008769" lon="20.1281279"><ele>197.0</ele><time>2026-04-26T13:03:40.259Z</time></trkpt><trkpt lat="40.1006898" lon="20.1283207"><ele>195.5</ele><time>2026-04-26T13:03:41.259Z</time></trkpt><trkpt lat="40.1005004" lon="20.1285226"><ele>194.0</ele><time>2026-04-26T13:03:42.262Z</time></trkpt><trkpt lat="40.1003049" lon="20.1287225"><ele>194.0</ele><time>2026-04-26T13:03:43.259Z</time></trkpt><trkpt lat="40.1001092" lon="20.1289228"><ele>194.0</ele><time>2026-04-26T13:03:44.262Z</time></trkpt><trkpt lat="40.0999129" lon="20.1291224"><ele>191.0</ele><time>2026-04-26T13:03:45.261Z</time></trkpt><trkpt lat="40.0997186" lon="20.1293218"><ele>188.0</ele><time>2026-04-26T13:03:46.26Z</time></trkpt><trkpt lat="40.0995374" lon="20.1295062"><ele>188.0</ele><time>2026-04-26T13:03:47.259Z</time></trkpt><trkpt lat="40.0993831" lon="20.1296615"><ele>188.0</ele><time>2026-04-26T13:03:48.26Z</time></trkpt><trkpt lat="40.0992366" lon="20.1298062"><ele>188.0</ele><time>2026-04-26T13:03:49.259Z</time></trkpt><trkpt lat="40.0990994" lon="20.1299427"><ele>188.0</ele><time>2026-04-26T13:03:50.261Z</time></trkpt><trkpt lat="40.0989672" lon="20.1300776"><ele>188.0</ele><time>2026-04-26T13:03:51.262Z</time></trkpt><trkpt lat="40.0988381" lon="20.1302128"><ele>188.0</ele><time>2026-04-26T13:03:52.26Z</time></trkpt><trkpt lat="40.0987073" lon="20.1303464"><ele>188.0</ele><time>2026-04-26T13:03:53.261Z</time></trkpt><trkpt lat="40.098581" lon="20.1304801"><ele>188.0</ele><time>2026-04-26T13:03:54.26Z</time></trkpt><trkpt lat="40.0984591" lon="20.1306128"><ele>188.0</ele><time>2026-04-26T13:03:55.26Z</time></trkpt><trkpt lat="40.0983362" lon="20.1307438"><ele>188.66666666666666</ele><time>2026-04-26T13:03:56.262Z</time></trkpt><trkpt lat="40.0982065" lon="20.1308762"><ele>189.33333333333334</ele><time>2026-04-26T13:03:57.259Z</time></trkpt><trkpt lat="40.0980785" lon="20.1310058"><ele>190.0</ele><time>2026-04-26T13:03:58.26Z</time></trkpt><trkpt lat="40.097951" lon="20.1311405"><ele>190.0</ele><time>2026-04-26T13:03:59.26Z</time></trkpt><trkpt lat="40.0978182" lon="20.131277"><ele>190.0</ele><time>2026-04-26T13:04:00.26Z</time></trkpt><trkpt lat="40.0976844" lon="20.1314177"><ele>190.0</ele><time>2026-04-26T13:04:01.263Z</time></trkpt><trkpt lat="40.0975459" lon="20.1315571"><ele>191.33333333333334</ele><time>2026-04-26T13:04:02.26Z</time></trkpt><trkpt lat="40.097409" lon="20.1316972"><ele>192.66666666666669</ele><time>2026-04-26T13:04:03.263Z</time></trkpt><trkpt lat="40.0972672" lon="20.1318414"><ele>194.0</ele><time>2026-04-26T13:04:04.262Z</time></trkpt><trkpt lat="40.0971243" lon="20.1319861"><ele>194.0</ele><time>2026-04-26T13:04:05.261Z</time></trkpt><trkpt lat="40.0969795" lon="20.1321304"><ele>194.0</ele><time>2026-04-26T13:04:06.262Z</time></trkpt><trkpt lat="40.0968396" lon="20.132271"><ele>194.0</ele><time>2026-04-26T13:04:07.261Z</time></trkpt><trkpt lat="40.0966947" lon="20.1324219"><ele>194.66666666666669</ele><time>2026-04-26T13:04:08.263Z</time></trkpt><trkpt lat="40.0965506" lon="20.1325745"><ele>195.33333333333331</ele><time>2026-04-26T13:04:09.26Z</time></trkpt><trkpt lat="40.0964046" lon="20.1327283"><ele>196.0</ele><time>2026-04-26T13:04:10.261Z</time></trkpt><trkpt lat="40.0962595" lon="20.1328803"><ele>196.0</ele><time>2026-04-26T13:04:11.259Z</time></trkpt><trkpt lat="40.0961127" lon="20.1330311"><ele>196.0</ele><time>2026-04-26T13:04:12.261Z</time></trkpt><trkpt lat="40.0959652" lon="20.1331834"><ele>196.0</ele><time>2026-04-26T13:04:13.262Z</time></trkpt><trkpt lat="40.0958164" lon="20.1333373"><ele>197.66666666666666</ele><time>2026-04-26T13:04:14.26Z</time></trkpt><trkpt lat="40.0956702" lon="20.1334922"><ele>199.33333333333331</ele><time>2026-04-26T13:04:15.26Z</time></trkpt><trkpt lat="40.0955187" lon="20.133644"><ele>201.0</ele><time>2026-04-26T13:04:16.26Z</time></trkpt><trkpt lat="40.0953646" lon="20.1338029"><ele>201.0</ele><time>2026-04-26T13:04:17.259Z</time></trkpt><trkpt lat="40.0952026" lon="20.1339661"><ele>201.0</ele><time>2026-04-26T13:04:18.262Z</time></trkpt><trkpt lat="40.0950412" lon="20.1341334"><ele>201.0</ele><time>2026-04-26T13:04:19.261Z</time></trkpt><trkpt lat="40.0948846" lon="20.1342999"><ele>201.0</ele><time>2026-04-26T13:04:20.262Z</time></trkpt><trkpt lat="40.0947298" lon="20.1344635"><ele>201.0</ele><time>2026-04-26T13:04:21.26Z</time></trkpt><trkpt lat="40.0945791" lon="20.1346246"><ele>201.0</ele><time>2026-04-26T13:04:22.26Z</time></trkpt><trkpt lat="40.0944262" lon="20.1347791"><ele>200.66666666666669</ele><time>2026-04-26T13:04:23.257Z</time></trkpt><trkpt lat="40.094276" lon="20.1349279"><ele>200.33333333333334</ele><time>2026-04-26T13:04:24.26Z</time></trkpt><trkpt lat="40.0941246" lon="20.1350722"><ele>200.0</ele><time>2026-04-26T13:04:25.263Z</time></trkpt><trkpt lat="40.0939732" lon="20.1352205"><ele>201.0</ele><time>2026-04-26T13:04:26.259Z</time></trkpt><trkpt lat="40.0938223" lon="20.1353635"><ele>202.0</ele><time>2026-04-26T13:04:27.261Z</time></trkpt><trkpt lat="40.0936658" lon="20.1354997"><ele>203.0</ele><time>2026-04-26T13:04:28.26Z</time></trkpt><trkpt lat="40.0935054" lon="20.1356287"><ele>202.33333333333334</ele><time>2026-04-26T13:04:29.26Z</time></trkpt><trkpt lat="40.0933436" lon="20.1357513"><ele>201.66666666666669</ele><time>2026-04-26T13:04:30.261Z</time></trkpt><trkpt lat="40.0931781" lon="20.135871"><ele>201.0</ele><time>2026-04-26T13:04:31.26Z</time></trkpt><trkpt lat="40.0930143" lon="20.1359874"><ele>201.0</ele><time>2026-04-26T13:04:32.261Z</time></trkpt><trkpt lat="40.0928456" lon="20.136103"><ele>201.0</ele><time>2026-04-26T13:04:33.26Z</time></trkpt><trkpt lat="40.0926776" lon="20.1362204"><ele>201.0</ele><time>2026-04-26T13:04:34.26Z</time></trkpt><trkpt lat="40.0925065" lon="20.1363369"><ele>201.66666666666669</ele><time>2026-04-26T13:04:35.26Z</time></trkpt><trkpt lat="40.092337" lon="20.1364515"><ele>202.33333333333334</ele><time>2026-04-26T13:04:36.261Z</time></trkpt><trkpt lat="40.0921656" lon="20.1365688"><ele>203.0</ele><time>2026-04-26T13:04:37.261Z</time></trkpt><trkpt lat="40.091993" lon="20.1366843"><ele>201.33333333333334</ele><time>2026-04-26T13:04:38.263Z</time></trkpt><trkpt lat="40.0918173" lon="20.1367993"><ele>199.66666666666669</ele><time>2026-04-26T13:04:39.262Z</time></trkpt><trkpt lat="40.0916432" lon="20.1369165"><ele>198.0</ele><time>2026-04-26T13:04:40.261Z</time></trkpt><trkpt lat="40.0914719" lon="20.1370321"><ele>198.0</ele><time>2026-04-26T13:04:41.26Z</time></trkpt><trkpt lat="40.0913011" lon="20.1371488"><ele>198.0</ele><time>2026-04-26T13:04:42.261Z</time></trkpt><trkpt lat="40.0911319" lon="20.1372635"><ele>198.0</ele><time>2026-04-26T13:04:43.259Z</time></trkpt><trkpt lat="40.0909657" lon="20.1373778"><ele>196.0</ele><time>2026-04-26T13:04:44.261Z</time></trkpt><trkpt lat="40.0908075" lon="20.1374933"><ele>194.0</ele><time>2026-04-26T13:04:45.259Z</time></trkpt><trkpt lat="40.0906567" lon="20.1376069"><ele>192.0</ele><time>2026-04-26T13:04:46.261Z</time></trkpt><trkpt lat="40.0905121" lon="20.1377275"><ele>192.0</ele><time>2026-04-26T13:04:47.261Z</time></trkpt><trkpt lat="40.0903694" lon="20.1378594"><ele>192.0</ele><time>2026-04-26T13:04:48.262Z</time></trkpt><trkpt lat="40.0902305" lon="20.1379985"><ele>192.0</ele><time>2026-04-26T13:04:49.26Z</time></trkpt><trkpt lat="40.0900917" lon="20.1381379"><ele>191.66666666666666</ele><time>2026-04-26T13:04:50.262Z</time></trkpt><trkpt lat="40.0899529" lon="20.1382805"><ele>191.33333333333331</ele><time>2026-04-26T13:04:51.263Z</time></trkpt><trkpt lat="40.0898151" lon="20.1384171"><ele>191.0</ele><time>2026-04-26T13:04:52.26Z</time></trkpt><trkpt lat="40.0896798" lon="20.1385537"><ele>191.0</ele><time>2026-04-26T13:04:53.262Z</time></trkpt><trkpt lat="40.089549" lon="20.138688"><ele>191.0</ele><time>2026-04-26T13:04:54.263Z</time></trkpt><trkpt lat="40.0894235" lon="20.1388155"><ele>191.0</ele><time>2026-04-26T13:04:55.259Z</time></trkpt><trkpt lat="40.0893039" lon="20.1389392"><ele>191.33333333333331</ele><time>2026-04-26T13:04:56.26Z</time></trkpt><trkpt lat="40.0891872" lon="20.1390647"><ele>191.66666666666666</ele><time>2026-04-26T13:04:57.26Z</time></trkpt><trkpt lat="40.0890711" lon="20.139194"><ele>192.0</ele><time>2026-04-26T13:04:58.262Z</time></trkpt><trkpt lat="40.0889573" lon="20.1393218"><ele>192.0</ele><time>2026-04-26T13:04:59.258Z</time></trkpt><trkpt lat="40.0888472" lon="20.1394487"><ele>192.0</ele><time>2026-04-26T13:05:00.26Z</time></trkpt><trkpt lat="40.0887396" lon="20.139578"><ele>192.0</ele><time>2026-04-26T13:05:01.262Z</time></trkpt><trkpt lat="40.0886236" lon="20.1397292"><ele>191.0</ele><time>2026-04-26T13:05:02.26Z</time></trkpt><trkpt lat="40.0884965" lon="20.1399218"><ele>190.0</ele><time>2026-04-26T13:05:03.26Z</time></trkpt><trkpt lat="40.0883525" lon="20.1401411"><ele>189.0</ele><time>2026-04-26T13:05:04.261Z</time></trkpt><trkpt lat="40.0882026" lon="20.1403453"><ele>190.66666666666669</ele><time>2026-04-26T13:05:05.26Z</time></trkpt><trkpt lat="40.0880581" lon="20.1405308"><ele>192.33333333333334</ele><time>2026-04-26T13:05:06.261Z</time></trkpt><trkpt lat="40.0879179" lon="20.1407121"><ele>194.0</ele><time>2026-04-26T13:05:07.259Z</time></trkpt><trkpt lat="40.0877911" lon="20.1408913"><ele>194.0</ele><time>2026-04-26T13:05:08.258Z</time></trkpt><trkpt lat="40.087667" lon="20.1410728"><ele>194.0</ele><time>2026-04-26T13:05:09.259Z</time></trkpt><trkpt lat="40.0875457" lon="20.1412603"><ele>194.0</ele><time>2026-04-26T13:05:10.258Z</time></trkpt><trkpt lat="40.0874175" lon="20.1414547"><ele>193.33333333333334</ele><time>2026-04-26T13:05:11.259Z</time></trkpt><trkpt lat="40.0872837" lon="20.1416417"><ele>192.66666666666669</ele><time>2026-04-26T13:05:12.258Z</time></trkpt><trkpt lat="40.0871498" lon="20.1418195"><ele>192.0</ele><time>2026-04-26T13:05:13.262Z</time></trkpt><trkpt lat="40.0870223" lon="20.1419861"><ele>192.0</ele><time>2026-04-26T13:05:14.26Z</time></trkpt><trkpt lat="40.0869041" lon="20.1421427"><ele>192.0</ele><time>2026-04-26T13:05:15.26Z</time></trkpt><trkpt lat="40.0867902" lon="20.1422971"><ele>192.0</ele><time>2026-04-26T13:05:16.259Z</time></trkpt><trkpt lat="40.0866842" lon="20.1424435"><ele>194.33333333333331</ele><time>2026-04-26T13:05:17.256Z</time></trkpt><trkpt lat="40.0865784" lon="20.1425936"><ele>196.66666666666666</ele><time>2026-04-26T13:05:18.258Z</time></trkpt><trkpt lat="40.0864628" lon="20.1427351"><ele>199.0</ele><time>2026-04-26T13:05:19.258Z</time></trkpt><trkpt lat="40.0863344" lon="20.1428634"><ele>199.0</ele><time>2026-04-26T13:05:20.261Z</time></trkpt><trkpt lat="40.0861961" lon="20.1429754"><ele>199.0</ele><time>2026-04-26T13:05:21.259Z</time></trkpt><trkpt lat="40.0860499" lon="20.1430556"><ele>199.0</ele><time>2026-04-26T13:05:22.257Z</time></trkpt><trkpt lat="40.0859115" lon="20.143129"><ele>199.0</ele><time>2026-04-26T13:05:23.258Z</time></trkpt><trkpt lat="40.0857783" lon="20.1431833"><ele>199.0</ele><time>2026-04-26T13:05:24.26Z</time></trkpt><trkpt lat="40.0856486" lon="20.1432279"><ele>199.0</ele><time>2026-04-26T13:05:25.259Z</time></trkpt><trkpt lat="40.0855223" lon="20.1432704"><ele>199.0</ele><time>2026-04-26T13:05:26.26Z</time></trkpt><trkpt lat="40.0853991" lon="20.1433157"><ele>197.25</ele><time>2026-04-26T13:05:27.261Z</time></trkpt><trkpt lat="40.0852854" lon="20.1433751"><ele>195.5</ele><time>2026-04-26T13:05:28.258Z</time></trkpt><trkpt lat="40.0851758" lon="20.1434508"><ele>193.75</ele><time>2026-04-26T13:05:29.261Z</time></trkpt><trkpt lat="40.085068" lon="20.1435428"><ele>192.0</ele><time>2026-04-26T13:05:30.259Z</time></trkpt><trkpt lat="40.0849594" lon="20.1436404"><ele>192.0</ele><time>2026-04-26T13:05:31.26Z</time></trkpt><trkpt lat="40.08485" lon="20.1437429"><ele>192.0</ele><time>2026-04-26T13:05:32.259Z</time></trkpt><trkpt lat="40.0847436" lon="20.1438395"><ele>192.0</ele><time>2026-04-26T13:05:33.26Z</time></trkpt><trkpt lat="40.0846396" lon="20.1439418"><ele>192.0</ele><time>2026-04-26T13:05:34.259Z</time></trkpt><trkpt lat="40.0845422" lon="20.1440357"><ele>192.0</ele><time>2026-04-26T13:05:35.26Z</time></trkpt><trkpt lat="40.0844622" lon="20.1441156"><ele>192.0</ele><time>2026-04-26T13:05:36.257Z</time></trkpt><trkpt lat="40.0843909" lon="20.144184"><ele>192.0</ele><time>2026-04-26T13:05:37.258Z</time></trkpt><trkpt lat="40.0843315" lon="20.1442456"><ele>192.0</ele><time>2026-04-26T13:05:38.258Z</time></trkpt><trkpt lat="40.0842563" lon="20.1443149"><ele>192.0</ele><time>2026-04-26T13:05:40.261Z</time></trkpt><trkpt lat="40.0841792" lon="20.144353"><ele>192.0</ele><time>2026-04-26T13:05:44.257Z</time></trkpt><trkpt lat="40.0841023" lon="20.1444014"><ele>191.8</ele><time>2026-04-26T13:05:46.26Z</time></trkpt><trkpt lat="40.0840201" lon="20.1445067"><ele>191.6</ele><time>2026-04-26T13:05:48.26Z</time></trkpt><trkpt lat="40.0839354" lon="20.1446154"><ele>191.4</ele><time>2026-04-26T13:05:50.262Z</time></trkpt><trkpt lat="40.0838461" lon="20.1446944"><ele>191.20000000000002</ele><time>2026-04-26T13:05:52.258Z</time></trkpt><trkpt lat="40.0837892" lon="20.1447515"><ele>191.0</ele><time>2026-04-26T13:05:54.259Z</time></trkpt><trkpt lat="40.0837456" lon="20.1448163"><ele>190.8</ele><time>2026-04-26T13:07:08.259Z</time></trkpt><trkpt lat="40.0836417" lon="20.1449306"><ele>190.60000000000002</ele><time>2026-04-26T13:07:10.258Z</time></trkpt><trkpt lat="40.0835792" lon="20.1449951"><ele>190.4</ele><time>2026-04-26T13:07:11.257Z</time></trkpt><trkpt lat="40.0834974" lon="20.1450747"><ele>190.2</ele><time>2026-04-26T13:07:12.262Z</time></trkpt><trkpt lat="40.0834047" lon="20.1451649"><ele>190.0</ele><time>2026-04-26T13:07:13.259Z</time></trkpt><trkpt lat="40.0833165" lon="20.145253"><ele>190.75</ele><time>2026-04-26T13:07:14.261Z</time></trkpt><trkpt lat="40.0832242" lon="20.1453461"><ele>191.5</ele><time>2026-04-26T13:07:15.259Z</time></trkpt><trkpt lat="40.0831296" lon="20.1454389"><ele>192.25</ele><time>2026-04-26T13:07:16.26Z</time></trkpt><trkpt lat="40.0830353" lon="20.1455358"><ele>193.0</ele><time>2026-04-26T13:07:17.259Z</time></trkpt><trkpt lat="40.0829373" lon="20.1456339"><ele>192.75</ele><time>2026-04-26T13:07:18.261Z</time></trkpt><trkpt lat="40.0828331" lon="20.1457294"><ele>192.5</ele><time>2026-04-26T13:07:19.261Z</time></trkpt><trkpt lat="40.0827259" lon="20.1458313"><ele>192.25</ele><time>2026-04-26T13:07:20.259Z</time></trkpt><trkpt lat="40.0826173" lon="20.1459368"><ele>192.0</ele><time>2026-04-26T13:07:21.261Z</time></trkpt><trkpt lat="40.0825056" lon="20.1460476"><ele>195.25</ele><time>2026-04-26T13:07:22.259Z</time></trkpt><trkpt lat="40.0823891" lon="20.1461601"><ele>198.5</ele><time>2026-04-26T13:07:23.259Z</time></trkpt><trkpt lat="40.0822702" lon="20.1462722"><ele>201.75</ele><time>2026-04-26T13:07:24.26Z</time></trkpt><trkpt lat="40.0821527" lon="20.1463792"><ele>205.0</ele><time>2026-04-26T13:07:25.26Z</time></trkpt><trkpt lat="40.0820355" lon="20.1464941"><ele>203.5</ele><time>2026-04-26T13:07:26.262Z</time></trkpt><trkpt lat="40.0819181" lon="20.1466116"><ele>202.0</ele><time>2026-04-26T13:07:27.261Z</time></trkpt><trkpt lat="40.0817982" lon="20.1467304"><ele>200.5</ele><time>2026-04-26T13:07:28.261Z</time></trkpt><trkpt lat="40.0816784" lon="20.1468449"><ele>199.0</ele><time>2026-04-26T13:07:29.26Z</time></trkpt><trkpt lat="40.0815588" lon="20.1469622"><ele>199.0</ele><time>2026-04-26T13:07:30.261Z</time></trkpt><trkpt lat="40.0814423" lon="20.1470812"><ele>199.0</ele><time>2026-04-26T13:07:31.26Z</time></trkpt><trkpt lat="40.08133" lon="20.1471925"><ele>199.0</ele><time>2026-04-26T13:07:32.26Z</time></trkpt><trkpt lat="40.0812162" lon="20.1473033"><ele>199.0</ele><time>2026-04-26T13:07:33.26Z</time></trkpt><trkpt lat="40.0811059" lon="20.1474125"><ele>199.0</ele><time>2026-04-26T13:07:34.26Z</time></trkpt><trkpt lat="40.0809997" lon="20.1475165"><ele>199.0</ele><time>2026-04-26T13:07:35.257Z</time></trkpt><trkpt lat="40.0808973" lon="20.1476145"><ele>199.0</ele><time>2026-04-26T13:07:36.261Z</time></trkpt><trkpt lat="40.0807999" lon="20.1477122"><ele>199.0</ele><time>2026-04-26T13:07:37.263Z</time></trkpt><trkpt lat="40.080702" lon="20.1478075"><ele>199.0</ele><time>2026-04-26T13:07:38.263Z</time></trkpt><trkpt lat="40.080604" lon="20.1479031"><ele>199.0</ele><time>2026-04-26T13:07:39.262Z</time></trkpt><trkpt lat="40.0805071" lon="20.1479959"><ele>199.0</ele><time>2026-04-26T13:07:40.262Z</time></trkpt><trkpt lat="40.0804093" lon="20.1480902"><ele>199.0</ele><time>2026-04-26T13:07:41.26Z</time></trkpt><trkpt lat="40.0803149" lon="20.1481832"><ele>199.5</ele><time>2026-04-26T13:07:42.261Z</time></trkpt><trkpt lat="40.0802242" lon="20.1482728"><ele>200.0</ele><time>2026-04-26T13:07:43.258Z</time></trkpt><trkpt lat="40.0801321" lon="20.1483613"><ele>200.5</ele><time>2026-04-26T13:07:44.262Z</time></trkpt><trkpt lat="40.0800376" lon="20.1484521"><ele>201.0</ele><time>2026-04-26T13:07:45.259Z</time></trkpt><trkpt lat="40.079935" lon="20.1485476"><ele>203.0</ele><time>2026-04-26T13:07:46.263Z</time></trkpt><trkpt lat="40.0798331" lon="20.1486463"><ele>205.0</ele><time>2026-04-26T13:07:47.263Z</time></trkpt><trkpt lat="40.0797336" lon="20.1487434"><ele>207.0</ele><time>2026-04-26T13:07:48.262Z</time></trkpt><trkpt lat="40.0796302" lon="20.1488411"><ele>209.0</ele><time>2026-04-26T13:07:49.262Z</time></trkpt><trkpt lat="40.0795288" lon="20.1489395"><ele>209.0</ele><time>2026-04-26T13:07:50.263Z</time></trkpt><trkpt lat="40.0794272" lon="20.1490424"><ele>209.0</ele><time>2026-04-26T13:07:51.261Z</time></trkpt><trkpt lat="40.0793265" lon="20.1491446"><ele>209.0</ele><time>2026-04-26T13:07:52.261Z</time></trkpt><trkpt lat="40.0792269" lon="20.1492477"><ele>209.0</ele><time>2026-04-26T13:07:53.259Z</time></trkpt><trkpt lat="40.0791248" lon="20.1493477"><ele>208.0</ele><time>2026-04-26T13:07:54.258Z</time></trkpt><trkpt lat="40.079024" lon="20.149448"><ele>207.0</ele><time>2026-04-26T13:07:55.26Z</time></trkpt><trkpt lat="40.0789284" lon="20.1495469"><ele>206.0</ele><time>2026-04-26T13:07:56.261Z</time></trkpt><trkpt lat="40.0788348" lon="20.1496459"><ele>205.0</ele><time>2026-04-26T13:07:57.26Z</time></trkpt><trkpt lat="40.0787444" lon="20.149742"><ele>205.0</ele><time>2026-04-26T13:07:58.259Z</time></trkpt><trkpt lat="40.0786562" lon="20.1498361"><ele>205.0</ele><time>2026-04-26T13:07:59.258Z</time></trkpt><trkpt lat="40.078569" lon="20.1499322"><ele>205.0</ele><time>2026-04-26T13:08:00.257Z</time></trkpt><trkpt lat="40.0784761" lon="20.1500299"><ele>205.0</ele><time>2026-04-26T13:08:01.258Z</time></trkpt><trkpt lat="40.0783792" lon="20.1501317"><ele>204.75</ele><time>2026-04-26T13:08:02.261Z</time></trkpt><trkpt lat="40.0782809" lon="20.1502344"><ele>204.5</ele><time>2026-04-26T13:08:03.26Z</time></trkpt><trkpt lat="40.0781813" lon="20.150338"><ele>204.25</ele><time>2026-04-26T13:08:04.263Z</time></trkpt><trkpt lat="40.0780819" lon="20.1504423"><ele>204.0</ele><time>2026-04-26T13:08:05.262Z</time></trkpt><trkpt lat="40.0779823" lon="20.1505476"><ele>204.39999999999998</ele><time>2026-04-26T13:08:06.262Z</time></trkpt><trkpt lat="40.0778906" lon="20.1506476"><ele>204.8</ele><time>2026-04-26T13:08:07.263Z</time></trkpt><trkpt lat="40.0778035" lon="20.1507309"><ele>205.2</ele><time>2026-04-26T13:08:08.262Z</time></trkpt><trkpt lat="40.077718" lon="20.1507933"><ele>205.60000000000002</ele><time>2026-04-26T13:08:09.26Z</time></trkpt><trkpt lat="40.0776338" lon="20.1508334"><ele>206.0</ele><time>2026-04-26T13:08:10.259Z</time></trkpt><trkpt lat="40.0775533" lon="20.150885"><ele>206.0</ele><time>2026-04-26T13:08:11.259Z</time></trkpt><trkpt lat="40.077486" lon="20.15096"><ele>206.0</ele><time>2026-04-26T13:08:12.258Z</time></trkpt><trkpt lat="40.0774202" lon="20.1510612"><ele>206.0</ele><time>2026-04-26T13:08:13.257Z</time></trkpt><trkpt lat="40.0773507" lon="20.1511831"><ele>206.0</ele><time>2026-04-26T13:08:14.263Z</time></trkpt><trkpt lat="40.0772675" lon="20.1513247"><ele>206.0</ele><time>2026-04-26T13:08:15.263Z</time></trkpt><trkpt lat="40.0771682" lon="20.1514778"><ele>208.0</ele><time>2026-04-26T13:08:16.263Z</time></trkpt><trkpt lat="40.0770558" lon="20.1516456"><ele>210.0</ele><time>2026-04-26T13:08:17.262Z</time></trkpt><trkpt lat="40.0769437" lon="20.1518164"><ele>212.0</ele><time>2026-04-26T13:08:18.262Z</time></trkpt><trkpt lat="40.0768247" lon="20.1520027"><ele>212.0</ele><time>2026-04-26T13:08:19.259Z</time></trkpt><trkpt lat="40.0767091" lon="20.1521813"><ele>212.0</ele><time>2026-04-26T13:08:20.259Z</time></trkpt><trkpt lat="40.0765963" lon="20.1523619"><ele>212.0</ele><time>2026-04-26T13:08:21.26Z</time></trkpt><trkpt lat="40.0764828" lon="20.1525339"><ele>214.66666666666669</ele><time>2026-04-26T13:08:22.263Z</time></trkpt><trkpt lat="40.0763667" lon="20.1526979"><ele>217.33333333333331</ele><time>2026-04-26T13:08:23.26Z</time></trkpt><trkpt lat="40.0762525" lon="20.1528592"><ele>220.0</ele><time>2026-04-26T13:08:24.261Z</time></trkpt><trkpt lat="40.0761381" lon="20.153009"><ele>220.0</ele><time>2026-04-26T13:08:25.258Z</time></trkpt><trkpt lat="40.0760293" lon="20.1531508"><ele>220.0</ele><time>2026-04-26T13:08:26.259Z</time></trkpt><trkpt lat="40.0759257" lon="20.1532855"><ele>220.0</ele><time>2026-04-26T13:08:27.261Z</time></trkpt><trkpt lat="40.0758262" lon="20.1534105"><ele>220.0</ele><time>2026-04-26T13:08:28.259Z</time></trkpt><trkpt lat="40.0757253" lon="20.1535292"><ele>220.25</ele><time>2026-04-26T13:08:29.257Z</time></trkpt><trkpt lat="40.0756113" lon="20.1536383"><ele>220.5</ele><time>2026-04-26T13:08:30.259Z</time></trkpt><trkpt lat="40.0754934" lon="20.1537306"><ele>220.75</ele><time>2026-04-26T13:08:31.258Z</time></trkpt><trkpt lat="40.0753652" lon="20.1538136"><ele>221.0</ele><time>2026-04-26T13:08:32.259Z</time></trkpt><trkpt lat="40.0752314" lon="20.1538861"><ele>221.0</ele><time>2026-04-26T13:08:33.26Z</time></trkpt><trkpt lat="40.0750989" lon="20.1539587"><ele>221.0</ele><time>2026-04-26T13:08:34.259Z</time></trkpt><trkpt lat="40.0749724" lon="20.154034"><ele>221.0</ele><time>2026-04-26T13:08:35.259Z</time></trkpt><trkpt lat="40.0748612" lon="20.1541269"><ele>221.0</ele><time>2026-04-26T13:08:36.26Z</time></trkpt><trkpt lat="40.0747629" lon="20.1542295"><ele>218.5</ele><time>2026-04-26T13:08:37.259Z</time></trkpt><trkpt lat="40.0746704" lon="20.1543345"><ele>216.0</ele><time>2026-04-26T13:08:38.259Z</time></trkpt><trkpt lat="40.0745841" lon="20.1544371"><ele>213.5</ele><time>2026-04-26T13:08:39.259Z</time></trkpt><trkpt lat="40.0744971" lon="20.1545391"><ele>211.0</ele><time>2026-04-26T13:08:40.256Z</time></trkpt><trkpt lat="40.0744075" lon="20.1546503"><ele>211.0</ele><time>2026-04-26T13:08:41.259Z</time></trkpt><trkpt lat="40.0743068" lon="20.1547781"><ele>211.0</ele><time>2026-04-26T13:08:42.261Z</time></trkpt><trkpt lat="40.0741942" lon="20.1549328"><ele>211.0</ele><time>2026-04-26T13:08:43.259Z</time></trkpt><trkpt lat="40.0740657" lon="20.1550978"><ele>211.66666666666666</ele><time>2026-04-26T13:08:44.256Z</time></trkpt><trkpt lat="40.0739308" lon="20.1552546"><ele>212.33333333333331</ele><time>2026-04-26T13:08:45.258Z</time></trkpt><trkpt lat="40.0737929" lon="20.15541"><ele>213.0</ele><time>2026-04-26T13:08:46.258Z</time></trkpt><trkpt lat="40.0736587" lon="20.1555705"><ele>213.0</ele><time>2026-04-26T13:08:47.259Z</time></trkpt><trkpt lat="40.0735247" lon="20.1557333"><ele>213.0</ele><time>2026-04-26T13:08:48.259Z</time></trkpt><trkpt lat="40.0733927" lon="20.1558879"><ele>213.0</ele><time>2026-04-26T13:08:49.259Z</time></trkpt><trkpt lat="40.0732569" lon="20.1560367"><ele>213.0</ele><time>2026-04-26T13:08:50.261Z</time></trkpt><trkpt lat="40.0731246" lon="20.1561872"><ele>213.0</ele><time>2026-04-26T13:08:51.258Z</time></trkpt><trkpt lat="40.0729925" lon="20.1563393"><ele>213.0</ele><time>2026-04-26T13:08:52.26Z</time></trkpt><trkpt lat="40.072856" lon="20.1564943"><ele>212.0</ele><time>2026-04-26T13:08:53.26Z</time></trkpt><trkpt lat="40.0727227" lon="20.1566538"><ele>211.0</ele><time>2026-04-26T13:08:54.258Z</time></trkpt><trkpt lat="40.0725883" lon="20.1568135"><ele>210.0</ele><time>2026-04-26T13:08:55.256Z</time></trkpt><trkpt lat="40.072453" lon="20.1569716"><ele>210.66666666666669</ele><time>2026-04-26T13:08:56.259Z</time></trkpt><trkpt lat="40.0723181" lon="20.1571259"><ele>211.33333333333334</ele><time>2026-04-26T13:08:57.26Z</time></trkpt><trkpt lat="40.0721862" lon="20.1572808"><ele>212.0</ele><time>2026-04-26T13:08:58.261Z</time></trkpt><trkpt lat="40.0720545" lon="20.1574384"><ele>210.66666666666669</ele><time>2026-04-26T13:08:59.26Z</time></trkpt><trkpt lat="40.0719233" lon="20.1575926"><ele>209.33333333333331</ele><time>2026-04-26T13:09:00.261Z</time></trkpt><trkpt lat="40.0717946" lon="20.1577488"><ele>208.0</ele><time>2026-04-26T13:09:01.261Z</time></trkpt><trkpt lat="40.0716657" lon="20.1579022"><ele>208.33333333333331</ele><time>2026-04-26T13:09:02.26Z</time></trkpt><trkpt lat="40.0715367" lon="20.1580542"><ele>208.66666666666669</ele><time>2026-04-26T13:09:03.258Z</time></trkpt><trkpt lat="40.0714077" lon="20.1582063"><ele>209.0</ele><time>2026-04-26T13:09:04.26Z</time></trkpt><trkpt lat="40.07128" lon="20.1583613"><ele>207.33333333333334</ele><time>2026-04-26T13:09:05.258Z</time></trkpt><trkpt lat="40.0711524" lon="20.1585125"><ele>205.66666666666669</ele><time>2026-04-26T13:09:06.26Z</time></trkpt><trkpt lat="40.0710246" lon="20.1586629"><ele>204.0</ele><time>2026-04-26T13:09:07.259Z</time></trkpt><trkpt lat="40.0708962" lon="20.1588161"><ele>203.66666666666669</ele><time>2026-04-26T13:09:08.263Z</time></trkpt><trkpt lat="40.070768" lon="20.1589712"><ele>203.33333333333334</ele><time>2026-04-26T13:09:09.258Z</time></trkpt><trkpt lat="40.0706388" lon="20.1591271"><ele>203.0</ele><time>2026-04-26T13:09:10.257Z</time></trkpt><trkpt lat="40.0705056" lon="20.159283"><ele>203.0</ele><time>2026-04-26T13:09:11.258Z</time></trkpt><trkpt lat="40.0703725" lon="20.1594436"><ele>203.0</ele><time>2026-04-26T13:09:12.259Z</time></trkpt><trkpt lat="40.0702415" lon="20.1596073"><ele>203.0</ele><time>2026-04-26T13:09:13.262Z</time></trkpt><trkpt lat="40.0701079" lon="20.1597707"><ele>202.66666666666669</ele><time>2026-04-26T13:09:14.26Z</time></trkpt><trkpt lat="40.0699715" lon="20.1599348"><ele>202.33333333333331</ele><time>2026-04-26T13:09:15.26Z</time></trkpt><trkpt lat="40.0698349" lon="20.1600977"><ele>202.0</ele><time>2026-04-26T13:09:16.261Z</time></trkpt><trkpt lat="40.0696974" lon="20.1602607"><ele>201.66666666666666</ele><time>2026-04-26T13:09:17.26Z</time></trkpt><trkpt lat="40.0695617" lon="20.1604237"><ele>201.33333333333331</ele><time>2026-04-26T13:09:18.259Z</time></trkpt><trkpt lat="40.0694268" lon="20.1605845"><ele>201.0</ele><time>2026-04-26T13:09:19.26Z</time></trkpt><trkpt lat="40.0692944" lon="20.1607439"><ele>201.0</ele><time>2026-04-26T13:09:20.26Z</time></trkpt><trkpt lat="40.0691646" lon="20.1609026"><ele>201.0</ele><time>2026-04-26T13:09:21.259Z</time></trkpt><trkpt lat="40.0690381" lon="20.1610554"><ele>201.0</ele><time>2026-04-26T13:09:22.259Z</time></trkpt><trkpt lat="40.0689152" lon="20.1612039"><ele>201.33333333333331</ele><time>2026-04-26T13:09:23.26Z</time></trkpt><trkpt lat="40.0687942" lon="20.1613462"><ele>201.66666666666666</ele><time>2026-04-26T13:09:24.26Z</time></trkpt><trkpt lat="40.0686754" lon="20.1614898"><ele>202.0</ele><time>2026-04-26T13:09:25.26Z</time></trkpt><trkpt lat="40.0685601" lon="20.1616321"><ele>202.0</ele><time>2026-04-26T13:09:26.261Z</time></trkpt><trkpt lat="40.0684444" lon="20.1617708"><ele>202.0</ele><time>2026-04-26T13:09:27.259Z</time></trkpt><trkpt lat="40.0683272" lon="20.1619102"><ele>202.0</ele><time>2026-04-26T13:09:28.258Z</time></trkpt><trkpt lat="40.0682078" lon="20.162052"><ele>202.0</ele><time>2026-04-26T13:09:29.26Z</time></trkpt><trkpt lat="40.0680873" lon="20.1621952"><ele>202.0</ele><time>2026-04-26T13:09:30.258Z</time></trkpt><trkpt lat="40.0679643" lon="20.1623383"><ele>202.0</ele><time>2026-04-26T13:09:31.26Z</time></trkpt><trkpt lat="40.0678392" lon="20.1624836"><ele>202.0</ele><time>2026-04-26T13:09:32.258Z</time></trkpt><trkpt lat="40.0677177" lon="20.1626236"><ele>202.0</ele><time>2026-04-26T13:09:33.26Z</time></trkpt><trkpt lat="40.0676023" lon="20.1627584"><ele>202.0</ele><time>2026-04-26T13:09:34.26Z</time></trkpt><trkpt lat="40.0674913" lon="20.1628895"><ele>202.0</ele><time>2026-04-26T13:09:35.258Z</time></trkpt><trkpt lat="40.0673775" lon="20.1630225"><ele>202.0</ele><time>2026-04-26T13:09:36.263Z</time></trkpt><trkpt lat="40.0672628" lon="20.1631565"><ele>202.0</ele><time>2026-04-26T13:09:37.258Z</time></trkpt><trkpt lat="40.0671457" lon="20.1632885"><ele>201.39999999999998</ele><time>2026-04-26T13:09:38.258Z</time></trkpt><trkpt lat="40.0670428" lon="20.163413"><ele>200.79999999999998</ele><time>2026-04-26T13:09:39.259Z</time></trkpt><trkpt lat="40.0669627" lon="20.1635102"><ele>200.2</ele><time>2026-04-26T13:09:40.261Z</time></trkpt><trkpt lat="40.0669001" lon="20.163592"><ele>199.6</ele><time>2026-04-26T13:09:41.259Z</time></trkpt><trkpt lat="40.0668309" lon="20.1636804"><ele>199.0</ele><time>2026-04-26T13:09:42.261Z</time></trkpt><trkpt lat="40.0667361" lon="20.1637836"><ele>199.0</ele><time>2026-04-26T13:09:43.26Z</time></trkpt><trkpt lat="40.0666137" lon="20.1639154"><ele>199.0</ele><time>2026-04-26T13:09:44.261Z</time></trkpt><trkpt lat="40.0664908" lon="20.1640585"><ele>199.0</ele><time>2026-04-26T13:09:45.26Z</time></trkpt><trkpt lat="40.066356" lon="20.1642179"><ele>198.33333333333331</ele><time>2026-04-26T13:09:46.259Z</time></trkpt><trkpt lat="40.0662232" lon="20.1643815"><ele>197.66666666666669</ele><time>2026-04-26T13:09:47.259Z</time></trkpt><trkpt lat="40.0660908" lon="20.1645433"><ele>197.0</ele><time>2026-04-26T13:09:48.259Z</time></trkpt><trkpt lat="40.0659571" lon="20.1647071"><ele>196.66666666666669</ele><time>2026-04-26T13:09:49.26Z</time></trkpt><trkpt lat="40.0658231" lon="20.1648685"><ele>196.33333333333331</ele><time>2026-04-26T13:09:50.259Z</time></trkpt><trkpt lat="40.0656913" lon="20.1650327"><ele>196.0</ele><time>2026-04-26T13:09:51.261Z</time></trkpt><trkpt lat="40.065572" lon="20.165215"><ele>196.0</ele><time>2026-04-26T13:09:52.259Z</time></trkpt><trkpt lat="40.0654778" lon="20.1654178"><ele>196.0</ele><time>2026-04-26T13:09:53.257Z</time></trkpt><trkpt lat="40.0653879" lon="20.1656321"><ele>196.0</ele><time>2026-04-26T13:09:54.26Z</time></trkpt><trkpt lat="40.0653005" lon="20.1658488"><ele>196.0</ele><time>2026-04-26T13:09:55.257Z</time></trkpt><trkpt lat="40.0652135" lon="20.1660655"><ele>196.0</ele><time>2026-04-26T13:09:56.259Z</time></trkpt><trkpt lat="40.0651246" lon="20.1662778"><ele>196.0</ele><time>2026-04-26T13:09:57.262Z</time></trkpt><trkpt lat="40.06504" lon="20.1664869"><ele>196.0</ele><time>2026-04-26T13:09:58.26Z</time></trkpt><trkpt lat="40.0649556" lon="20.1666886"><ele>196.0</ele><time>2026-04-26T13:09:59.26Z</time></trkpt><trkpt lat="40.0648733" lon="20.1668857"><ele>196.0</ele><time>2026-04-26T13:10:00.259Z</time></trkpt><trkpt lat="40.0647922" lon="20.167083"><ele>197.33333333333331</ele><time>2026-04-26T13:10:01.26Z</time></trkpt><trkpt lat="40.0647129" lon="20.1672831"><ele>198.66666666666669</ele><time>2026-04-26T13:10:02.259Z</time></trkpt><trkpt lat="40.0646381" lon="20.1674846"><ele>200.0</ele><time>2026-04-26T13:10:03.257Z</time></trkpt><trkpt lat="40.064572" lon="20.1676933"><ele>200.0</ele><time>2026-04-26T13:10:04.261Z</time></trkpt><trkpt lat="40.0645117" lon="20.1679072"><ele>200.0</ele><time>2026-04-26T13:10:05.259Z</time></trkpt><trkpt lat="40.0644574" lon="20.1681313"><ele>200.0</ele><time>2026-04-26T13:10:06.261Z</time></trkpt><trkpt lat="40.0644044" lon="20.1683663"><ele>199.66666666666669</ele><time>2026-04-26T13:10:07.26Z</time></trkpt><trkpt lat="40.0643503" lon="20.168605"><ele>199.33333333333331</ele><time>2026-04-26T13:10:08.26Z</time></trkpt><trkpt lat="40.0643012" lon="20.1688469"><ele>199.0</ele><time>2026-04-26T13:10:09.259Z</time></trkpt><trkpt lat="40.0642529" lon="20.1690855"><ele>199.0</ele><time>2026-04-26T13:10:10.26Z</time></trkpt><trkpt lat="40.0642048" lon="20.1693217"><ele>199.0</ele><time>2026-04-26T13:10:11.262Z</time></trkpt><trkpt lat="40.0641564" lon="20.1695566"><ele>199.0</ele><time>2026-04-26T13:10:12.26Z</time></trkpt><trkpt lat="40.0641095" lon="20.169782"><ele>202.66666666666666</ele><time>2026-04-26T13:10:13.259Z</time></trkpt><trkpt lat="40.0640642" lon="20.1699965"><ele>206.33333333333331</ele><time>2026-04-26T13:10:14.26Z</time></trkpt><trkpt lat="40.0640156" lon="20.1702025"><ele>210.0</ele><time>2026-04-26T13:10:15.26Z</time></trkpt><trkpt lat="40.0639494" lon="20.1704052"><ele>210.0</ele><time>2026-04-26T13:10:16.261Z</time></trkpt><trkpt lat="40.0638682" lon="20.1706037"><ele>210.0</ele><time>2026-04-26T13:10:17.26Z</time></trkpt><trkpt lat="40.0637751" lon="20.1707986"><ele>210.0</ele><time>2026-04-26T13:10:18.258Z</time></trkpt><trkpt lat="40.0636741" lon="20.1709928"><ele>208.66666666666669</ele><time>2026-04-26T13:10:19.258Z</time></trkpt><trkpt lat="40.0635678" lon="20.1711897"><ele>207.33333333333334</ele><time>2026-04-26T13:10:20.259Z</time></trkpt><trkpt lat="40.0634631" lon="20.1713873"><ele>206.0</ele><time>2026-04-26T13:10:21.259Z</time></trkpt><trkpt lat="40.0633545" lon="20.1715813"><ele>210.0</ele><time>2026-04-26T13:10:22.259Z</time></trkpt><trkpt lat="40.0632534" lon="20.1717694"><ele>214.0</ele><time>2026-04-26T13:10:23.26Z</time></trkpt><trkpt lat="40.0631576" lon="20.1719441"><ele>218.0</ele><time>2026-04-26T13:10:24.26Z</time></trkpt><trkpt lat="40.0630586" lon="20.1721073"><ele>218.0</ele><time>2026-04-26T13:10:25.259Z</time></trkpt><trkpt lat="40.0629572" lon="20.1722468"><ele>218.0</ele><time>2026-04-26T13:10:26.258Z</time></trkpt><trkpt lat="40.0628493" lon="20.1723635"><ele>218.0</ele><time>2026-04-26T13:10:27.262Z</time></trkpt><trkpt lat="40.0627228" lon="20.1724689"><ele>218.0</ele><time>2026-04-26T13:10:28.26Z</time></trkpt><trkpt lat="40.0625825" lon="20.1725566"><ele>215.66666666666669</ele><time>2026-04-26T13:10:29.258Z</time></trkpt><trkpt lat="40.0624326" lon="20.1726318"><ele>213.33333333333331</ele><time>2026-04-26T13:10:30.26Z</time></trkpt><trkpt lat="40.0622812" lon="20.1726959"><ele>211.0</ele><time>2026-04-26T13:10:31.262Z</time></trkpt><trkpt lat="40.0621339" lon="20.1727498"><ele>211.0</ele><time>2026-04-26T13:10:32.261Z</time></trkpt><trkpt lat="40.0619895" lon="20.1727935"><ele>211.0</ele><time>2026-04-26T13:10:33.259Z</time></trkpt><trkpt lat="40.0618409" lon="20.1728233"><ele>211.0</ele><time>2026-04-26T13:10:34.261Z</time></trkpt><trkpt lat="40.0616838" lon="20.1728298"><ele>209.5</ele><time>2026-04-26T13:10:35.262Z</time></trkpt><trkpt lat="40.0615264" lon="20.1728214"><ele>208.0</ele><time>2026-04-26T13:10:36.26Z</time></trkpt><trkpt lat="40.0613755" lon="20.1728115"><ele>206.5</ele><time>2026-04-26T13:10:37.26Z</time></trkpt><trkpt lat="40.0612439" lon="20.1728052"><ele>205.0</ele><time>2026-04-26T13:10:38.259Z</time></trkpt><trkpt lat="40.0611132" lon="20.1727992"><ele>205.0</ele><time>2026-04-26T13:10:39.259Z</time></trkpt><trkpt lat="40.0609814" lon="20.1727861"><ele>205.0</ele><time>2026-04-26T13:10:40.259Z</time></trkpt><trkpt lat="40.0608529" lon="20.1727581"><ele>205.0</ele><time>2026-04-26T13:10:41.26Z</time></trkpt><trkpt lat="40.0607275" lon="20.1727113"><ele>205.0</ele><time>2026-04-26T13:10:42.261Z</time></trkpt><trkpt lat="40.0606043" lon="20.1726459"><ele>203.5</ele><time>2026-04-26T13:10:43.26Z</time></trkpt><trkpt lat="40.0604869" lon="20.1725631"><ele>202.0</ele><time>2026-04-26T13:10:44.263Z</time></trkpt><trkpt lat="40.060373" lon="20.1724716"><ele>200.5</ele><time>2026-04-26T13:10:45.259Z</time></trkpt><trkpt lat="40.0602645" lon="20.1723808"><ele>199.0</ele><time>2026-04-26T13:10:46.258Z</time></trkpt><trkpt lat="40.0601551" lon="20.172298"><ele>200.0</ele><time>2026-04-26T13:10:47.261Z</time></trkpt><trkpt lat="40.0600392" lon="20.172228"><ele>201.0</ele><time>2026-04-26T13:10:48.259Z</time></trkpt><trkpt lat="40.0599227" lon="20.1721763"><ele>202.0</ele><time>2026-04-26T13:10:49.26Z</time></trkpt><trkpt lat="40.0597975" lon="20.1721503"><ele>203.0</ele><time>2026-04-26T13:10:50.259Z</time></trkpt><trkpt lat="40.0596707" lon="20.1721588"><ele>203.0</ele><time>2026-04-26T13:10:51.26Z</time></trkpt><trkpt lat="40.0595349" lon="20.1721815"><ele>203.0</ele><time>2026-04-26T13:10:52.258Z</time></trkpt><trkpt lat="40.0593916" lon="20.1722059"><ele>203.0</ele><time>2026-04-26T13:10:53.26Z</time></trkpt><trkpt lat="40.0592368" lon="20.1722406"><ele>203.0</ele><time>2026-04-26T13:10:54.258Z</time></trkpt><trkpt lat="40.0590859" lon="20.1722791"><ele>203.33333333333334</ele><time>2026-04-26T13:10:55.259Z</time></trkpt><trkpt lat="40.0589343" lon="20.1723198"><ele>203.66666666666669</ele><time>2026-04-26T13:10:56.261Z</time></trkpt><trkpt lat="40.0587793" lon="20.1723627"><ele>204.0</ele><time>2026-04-26T13:10:57.26Z</time></trkpt><trkpt lat="40.058622" lon="20.1724118"><ele>203.0</ele><time>2026-04-26T13:10:58.258Z</time></trkpt><trkpt lat="40.0584641" lon="20.1724581"><ele>202.0</ele><time>2026-04-26T13:10:59.259Z</time></trkpt><trkpt lat="40.058304" lon="20.1724998"><ele>201.0</ele><time>2026-04-26T13:11:00.258Z</time></trkpt><trkpt lat="40.058142" lon="20.1725425"><ele>201.0</ele><time>2026-04-26T13:11:01.259Z</time></trkpt><trkpt lat="40.0579814" lon="20.1725846"><ele>201.0</ele><time>2026-04-26T13:11:02.26Z</time></trkpt><trkpt lat="40.0578192" lon="20.1726301"><ele>201.0</ele><time>2026-04-26T13:11:03.259Z</time></trkpt><trkpt lat="40.0576577" lon="20.1726799"><ele>201.0</ele><time>2026-04-26T13:11:04.258Z</time></trkpt><trkpt lat="40.0574982" lon="20.1727269"><ele>201.0</ele><time>2026-04-26T13:11:05.259Z</time></trkpt><trkpt lat="40.057338" lon="20.1727866"><ele>201.0</ele><time>2026-04-26T13:11:06.259Z</time></trkpt><trkpt lat="40.057183" lon="20.1728657"><ele>201.0</ele><time>2026-04-26T13:11:07.258Z</time></trkpt><trkpt lat="40.0570377" lon="20.1729718"><ele>201.0</ele><time>2026-04-26T13:11:08.258Z</time></trkpt><trkpt lat="40.0569048" lon="20.1731063"><ele>201.0</ele><time>2026-04-26T13:11:09.258Z</time></trkpt><trkpt lat="40.0567876" lon="20.173263"><ele>201.0</ele><time>2026-04-26T13:11:10.259Z</time></trkpt><trkpt lat="40.0566818" lon="20.1734259"><ele>201.0</ele><time>2026-04-26T13:11:11.258Z</time></trkpt><trkpt lat="40.0565841" lon="20.1735968"><ele>201.0</ele><time>2026-04-26T13:11:12.258Z</time></trkpt><trkpt lat="40.0564909" lon="20.173764"><ele>202.0</ele><time>2026-04-26T13:11:13.26Z</time></trkpt><trkpt lat="40.0564014" lon="20.1739301"><ele>203.0</ele><time>2026-04-26T13:11:14.258Z</time></trkpt><trkpt lat="40.0563111" lon="20.1740957"><ele>204.0</ele><time>2026-04-26T13:11:15.26Z</time></trkpt><trkpt lat="40.05622" lon="20.1742595"><ele>204.0</ele><time>2026-04-26T13:11:16.258Z</time></trkpt><trkpt lat="40.0561256" lon="20.1744226"><ele>204.0</ele><time>2026-04-26T13:11:17.259Z</time></trkpt><trkpt lat="40.0560292" lon="20.1745834"><ele>204.0</ele><time>2026-04-26T13:11:18.256Z</time></trkpt><trkpt lat="40.0559329" lon="20.1747412"><ele>203.66666666666669</ele><time>2026-04-26T13:11:19.258Z</time></trkpt><trkpt lat="40.0558333" lon="20.174894"><ele>203.33333333333334</ele><time>2026-04-26T13:11:20.258Z</time></trkpt><trkpt lat="40.0557283" lon="20.1750419"><ele>203.0</ele><time>2026-04-26T13:11:21.259Z</time></trkpt><trkpt lat="40.0556125" lon="20.1751782"><ele>203.0</ele><time>2026-04-26T13:11:22.258Z</time></trkpt><trkpt lat="40.0554876" lon="20.1753107"><ele>203.0</ele><time>2026-04-26T13:11:23.259Z</time></trkpt><trkpt lat="40.0553586" lon="20.1754456"><ele>203.0</ele><time>2026-04-26T13:11:24.258Z</time></trkpt><trkpt lat="40.0552255" lon="20.1755723"><ele>202.33333333333334</ele><time>2026-04-26T13:11:25.259Z</time></trkpt><trkpt lat="40.0550968" lon="20.1756935"><ele>201.66666666666669</ele><time>2026-04-26T13:11:26.258Z</time></trkpt><trkpt lat="40.054961" lon="20.1758181"><ele>201.0</ele><time>2026-04-26T13:11:27.258Z</time></trkpt><trkpt lat="40.0548244" lon="20.1759378"><ele>202.33333333333331</ele><time>2026-04-26T13:11:28.259Z</time></trkpt><trkpt lat="40.0546887" lon="20.1760668"><ele>203.66666666666666</ele><time>2026-04-26T13:11:29.259Z</time></trkpt><trkpt lat="40.0545497" lon="20.1761905"><ele>205.0</ele><time>2026-04-26T13:11:30.257Z</time></trkpt><trkpt lat="40.0544051" lon="20.176302"><ele>205.0</ele><time>2026-04-26T13:11:31.257Z</time></trkpt><trkpt lat="40.0542528" lon="20.1764008"><ele>205.0</ele><time>2026-04-26T13:11:32.259Z</time></trkpt><trkpt lat="40.0540912" lon="20.1764844"><ele>205.0</ele><time>2026-04-26T13:11:33.259Z</time></trkpt><trkpt lat="40.0539247" lon="20.1765688"><ele>204.0</ele><time>2026-04-26T13:11:34.259Z</time></trkpt><trkpt lat="40.0537575" lon="20.1766587"><ele>203.0</ele><time>2026-04-26T13:11:35.26Z</time></trkpt><trkpt lat="40.0535884" lon="20.1767455"><ele>202.0</ele><time>2026-04-26T13:11:36.26Z</time></trkpt><trkpt lat="40.0534178" lon="20.1768354"><ele>202.66666666666666</ele><time>2026-04-26T13:11:37.258Z</time></trkpt><trkpt lat="40.0532468" lon="20.1769222"><ele>203.33333333333331</ele><time>2026-04-26T13:11:38.258Z</time></trkpt><trkpt lat="40.0530746" lon="20.1770095"><ele>204.0</ele><time>2026-04-26T13:11:39.258Z</time></trkpt><trkpt lat="40.0529044" lon="20.1770946"><ele>204.0</ele><time>2026-04-26T13:11:40.258Z</time></trkpt><trkpt lat="40.0527375" lon="20.1771774"><ele>204.0</ele><time>2026-04-26T13:11:41.259Z</time></trkpt><trkpt lat="40.0525695" lon="20.1772587"><ele>204.0</ele><time>2026-04-26T13:11:42.26Z</time></trkpt><trkpt lat="40.0524011" lon="20.1773314"><ele>203.0</ele><time>2026-04-26T13:11:43.26Z</time></trkpt><trkpt lat="40.0522315" lon="20.177389"><ele>202.0</ele><time>2026-04-26T13:11:44.259Z</time></trkpt><trkpt lat="40.0520587" lon="20.1774257"><ele>201.0</ele><time>2026-04-26T13:11:45.259Z</time></trkpt><trkpt lat="40.0518791" lon="20.1774455"><ele>201.0</ele><time>2026-04-26T13:11:46.258Z</time></trkpt><trkpt lat="40.0516941" lon="20.1774431"><ele>201.0</ele><time>2026-04-26T13:11:47.26Z</time></trkpt><trkpt lat="40.0515091" lon="20.1774296"><ele>201.0</ele><time>2026-04-26T13:11:48.257Z</time></trkpt><trkpt lat="40.0513277" lon="20.1774048"><ele>201.33333333333331</ele><time>2026-04-26T13:11:49.262Z</time></trkpt><trkpt lat="40.0511388" lon="20.1773788"><ele>201.66666666666666</ele><time>2026-04-26T13:11:50.259Z</time></trkpt><trkpt lat="40.0509491" lon="20.1773479"><ele>202.0</ele><time>2026-04-26T13:11:51.259Z</time></trkpt><trkpt lat="40.050759" lon="20.1773137"><ele>203.33333333333331</ele><time>2026-04-26T13:11:52.258Z</time></trkpt><trkpt lat="40.0505692" lon="20.1772757"><ele>204.66666666666669</ele><time>2026-04-26T13:11:53.257Z</time></trkpt><trkpt lat="40.050379" lon="20.1772375"><ele>206.0</ele><time>2026-04-26T13:11:54.262Z</time></trkpt><trkpt lat="40.0501891" lon="20.1772034"><ele>206.0</ele><time>2026-04-26T13:11:55.258Z</time></trkpt><trkpt lat="40.0499987" lon="20.1771715"><ele>206.0</ele><time>2026-04-26T13:11:56.258Z</time></trkpt><trkpt lat="40.0498099" lon="20.1771363"><ele>206.0</ele><time>2026-04-26T13:11:57.259Z</time></trkpt><trkpt lat="40.0496208" lon="20.1771002"><ele>205.66666666666669</ele><time>2026-04-26T13:11:58.259Z</time></trkpt><trkpt lat="40.0494334" lon="20.1770607"><ele>205.33333333333331</ele><time>2026-04-26T13:11:59.26Z</time></trkpt><trkpt lat="40.0492438" lon="20.1770242"><ele>205.0</ele><time>2026-04-26T13:12:00.259Z</time></trkpt><trkpt lat="40.0490552" lon="20.1769967"><ele>204.66666666666666</ele><time>2026-04-26T13:12:01.261Z</time></trkpt><trkpt lat="40.0488677" lon="20.1769633"><ele>204.33333333333331</ele><time>2026-04-26T13:12:02.26Z</time></trkpt><trkpt lat="40.0486764" lon="20.1769296"><ele>204.0</ele><time>2026-04-26T13:12:03.259Z</time></trkpt><trkpt lat="40.0484851" lon="20.1768953"><ele>204.0</ele><time>2026-04-26T13:12:04.26Z</time></trkpt><trkpt lat="40.0482957" lon="20.1768603"><ele>204.0</ele><time>2026-04-26T13:12:05.258Z</time></trkpt><trkpt lat="40.0481047" lon="20.1768305"><ele>204.0</ele><time>2026-04-26T13:12:06.255Z</time></trkpt><trkpt lat="40.0479168" lon="20.1768018"><ele>204.0</ele><time>2026-04-26T13:12:07.261Z</time></trkpt><trkpt lat="40.0477288" lon="20.1767739"><ele>204.0</ele><time>2026-04-26T13:12:08.258Z</time></trkpt><trkpt lat="40.0475416" lon="20.1767462"><ele>204.0</ele><time>2026-04-26T13:12:09.26Z</time></trkpt><trkpt lat="40.0473547" lon="20.1767164"><ele>203.66666666666669</ele><time>2026-04-26T13:12:10.259Z</time></trkpt><trkpt lat="40.047169" lon="20.176683"><ele>203.33333333333334</ele><time>2026-04-26T13:12:11.258Z</time></trkpt><trkpt lat="40.0469841" lon="20.1766485"><ele>203.0</ele><time>2026-04-26T13:12:12.259Z</time></trkpt><trkpt lat="40.0468034" lon="20.1766158"><ele>204.33333333333334</ele><time>2026-04-26T13:12:13.257Z</time></trkpt><trkpt lat="40.0466218" lon="20.1765855"><ele>205.66666666666669</ele><time>2026-04-26T13:12:14.258Z</time></trkpt><trkpt lat="40.0464426" lon="20.1765516"><ele>207.0</ele><time>2026-04-26T13:12:15.259Z</time></trkpt><trkpt lat="40.0462619" lon="20.176509"><ele>208.0</ele><time>2026-04-26T13:12:16.261Z</time></trkpt><trkpt lat="40.0460725" lon="20.1764641"><ele>209.0</ele><time>2026-04-26T13:12:17.256Z</time></trkpt><trkpt lat="40.0458676" lon="20.1764253"><ele>210.0</ele><time>2026-04-26T13:12:18.258Z</time></trkpt><trkpt lat="40.0456409" lon="20.1763854"><ele>210.0</ele><time>2026-04-26T13:12:19.259Z</time></trkpt><trkpt lat="40.0454081" lon="20.1763419"><ele>210.0</ele><time>2026-04-26T13:12:20.259Z</time></trkpt><trkpt lat="40.0451721" lon="20.1762916"><ele>208.5</ele><time>2026-04-26T13:12:21.258Z</time></trkpt><trkpt lat="40.0449359" lon="20.1762428"><ele>207.0</ele><time>2026-04-26T13:12:22.259Z</time></trkpt><trkpt lat="40.0447001" lon="20.176198"><ele>207.0</ele><time>2026-04-26T13:12:23.259Z</time></trkpt><trkpt lat="40.0444658" lon="20.1761532"><ele>207.0</ele><time>2026-04-26T13:12:24.258Z</time></trkpt><trkpt lat="40.0442257" lon="20.1761133"><ele>205.5</ele><time>2026-04-26T13:12:25.26Z</time></trkpt><trkpt lat="40.0439849" lon="20.1760754"><ele>204.0</ele><time>2026-04-26T13:12:26.259Z</time></trkpt><trkpt lat="40.0437461" lon="20.1760384"><ele>204.0</ele><time>2026-04-26T13:12:27.258Z</time></trkpt><trkpt lat="40.0435096" lon="20.1759957"><ele>204.0</ele><time>2026-04-26T13:12:28.257Z</time></trkpt><trkpt lat="40.0432724" lon="20.1759572"><ele>202.5</ele><time>2026-04-26T13:12:29.258Z</time></trkpt><trkpt lat="40.0430375" lon="20.1759228"><ele>201.0</ele><time>2026-04-26T13:12:30.256Z</time></trkpt><trkpt lat="40.0428012" lon="20.1758988"><ele>201.0</ele><time>2026-04-26T13:12:31.258Z</time></trkpt><trkpt lat="40.0425646" lon="20.175885"><ele>201.0</ele><time>2026-04-26T13:12:32.259Z</time></trkpt><trkpt lat="40.0423269" lon="20.1758799"><ele>200.5</ele><time>2026-04-26T13:12:33.257Z</time></trkpt><trkpt lat="40.0420896" lon="20.1758858"><ele>200.0</ele><time>2026-04-26T13:12:34.262Z</time></trkpt><trkpt lat="40.0418499" lon="20.1759002"><ele>200.0</ele><time>2026-04-26T13:12:35.26Z</time></trkpt><trkpt lat="40.0416086" lon="20.1759259"><ele>200.0</ele><time>2026-04-26T13:12:36.259Z</time></trkpt><trkpt lat="40.0413688" lon="20.1759629"><ele>200.0</ele><time>2026-04-26T13:12:37.261Z</time></trkpt><trkpt lat="40.0411317" lon="20.1760114"><ele>200.0</ele><time>2026-04-26T13:12:38.261Z</time></trkpt><trkpt lat="40.0408961" lon="20.1760719"><ele>199.0</ele><time>2026-04-26T13:12:39.257Z</time></trkpt><trkpt lat="40.0406619" lon="20.176144"><ele>198.0</ele><time>2026-04-26T13:12:40.26Z</time></trkpt><trkpt lat="40.0404336" lon="20.1762293"><ele>198.0</ele><time>2026-04-26T13:12:41.258Z</time></trkpt><trkpt lat="40.0402093" lon="20.1763227"><ele>198.0</ele><time>2026-04-26T13:12:42.259Z</time></trkpt><trkpt lat="40.0399874" lon="20.1764217"><ele>199.5</ele><time>2026-04-26T13:12:43.257Z</time></trkpt><trkpt lat="40.039771" lon="20.1765321"><ele>201.0</ele><time>2026-04-26T13:12:44.259Z</time></trkpt><trkpt lat="40.0395566" lon="20.1766495"><ele>201.0</ele><time>2026-04-26T13:12:45.259Z</time></trkpt><trkpt lat="40.0393427" lon="20.1767786"><ele>201.0</ele><time>2026-04-26T13:12:46.257Z</time></trkpt><trkpt lat="40.0391312" lon="20.176914"><ele>201.0</ele><time>2026-04-26T13:12:47.258Z</time></trkpt><trkpt lat="40.0389207" lon="20.1770656"><ele>201.0</ele><time>2026-04-26T13:12:48.259Z</time></trkpt><trkpt lat="40.0387156" lon="20.1772281"><ele>200.0</ele><time>2026-04-26T13:12:49.259Z</time></trkpt><trkpt lat="40.0385143" lon="20.1774058"><ele>199.0</ele><time>2026-04-26T13:12:50.26Z</time></trkpt><trkpt lat="40.0383132" lon="20.1775877"><ele>198.5</ele><time>2026-04-26T13:12:51.259Z</time></trkpt><trkpt lat="40.0381156" lon="20.1777777"><ele>198.0</ele><time>2026-04-26T13:12:52.257Z</time></trkpt><trkpt lat="40.0379197" lon="20.1779663"><ele>198.0</ele><time>2026-04-26T13:12:53.258Z</time></trkpt><trkpt lat="40.0377233" lon="20.1781555"><ele>198.0</ele><time>2026-04-26T13:12:54.258Z</time></trkpt><trkpt lat="40.0375327" lon="20.1783451"><ele>199.0</ele><time>2026-04-26T13:12:55.256Z</time></trkpt><trkpt lat="40.0373408" lon="20.1785288"><ele>200.0</ele><time>2026-04-26T13:12:56.256Z</time></trkpt><trkpt lat="40.0371559" lon="20.1787101"><ele>200.0</ele><time>2026-04-26T13:12:57.257Z</time></trkpt><trkpt lat="40.0369682" lon="20.1788899"><ele>200.0</ele><time>2026-04-26T13:12:58.261Z</time></trkpt><trkpt lat="40.0367836" lon="20.1790709"><ele>201.5</ele><time>2026-04-26T13:12:59.26Z</time></trkpt><trkpt lat="40.0365996" lon="20.1792482"><ele>203.0</ele><time>2026-04-26T13:13:00.258Z</time></trkpt><trkpt lat="40.0364169" lon="20.1794231"><ele>203.0</ele><time>2026-04-26T13:13:01.26Z</time></trkpt><trkpt lat="40.0362347" lon="20.1795981"><ele>203.0</ele><time>2026-04-26T13:13:02.259Z</time></trkpt><trkpt lat="40.0360524" lon="20.1797719"><ele>202.66666666666669</ele><time>2026-04-26T13:13:03.258Z</time></trkpt><trkpt lat="40.0358698" lon="20.1799423"><ele>202.33333333333331</ele><time>2026-04-26T13:13:04.26Z</time></trkpt><trkpt lat="40.0356916" lon="20.1801108"><ele>202.0</ele><time>2026-04-26T13:13:05.258Z</time></trkpt><trkpt lat="40.0355137" lon="20.1802811"><ele>201.66666666666666</ele><time>2026-04-26T13:13:06.259Z</time></trkpt><trkpt lat="40.0353366" lon="20.1804509"><ele>201.33333333333331</ele><time>2026-04-26T13:13:07.263Z</time></trkpt><trkpt lat="40.0351589" lon="20.1806163"><ele>201.0</ele><time>2026-04-26T13:13:08.259Z</time></trkpt><trkpt lat="40.0349828" lon="20.1807823"><ele>200.33333333333331</ele><time>2026-04-26T13:13:09.259Z</time></trkpt><trkpt lat="40.0348077" lon="20.1809511"><ele>199.66666666666666</ele><time>2026-04-26T13:13:10.26Z</time></trkpt><trkpt lat="40.0346333" lon="20.1811218"><ele>199.0</ele><time>2026-04-26T13:13:11.258Z</time></trkpt><trkpt lat="40.0344599" lon="20.1812917"><ele>199.0</ele><time>2026-04-26T13:13:12.259Z</time></trkpt><trkpt lat="40.0342872" lon="20.1814629"><ele>199.0</ele><time>2026-04-26T13:13:13.261Z</time></trkpt><trkpt lat="40.0341139" lon="20.1816309"><ele>199.0</ele><time>2026-04-26T13:13:14.258Z</time></trkpt><trkpt lat="40.033939" lon="20.1818027"><ele>199.66666666666666</ele><time>2026-04-26T13:13:15.258Z</time></trkpt><trkpt lat="40.0337626" lon="20.1819779"><ele>200.33333333333331</ele><time>2026-04-26T13:13:16.259Z</time></trkpt><trkpt lat="40.0335852" lon="20.1821582"><ele>201.0</ele><time>2026-04-26T13:13:17.258Z</time></trkpt><trkpt lat="40.033403" lon="20.1823353"><ele>201.0</ele><time>2026-04-26T13:13:18.258Z</time></trkpt><trkpt lat="40.0332205" lon="20.1825167"><ele>201.0</ele><time>2026-04-26T13:13:19.257Z</time></trkpt><trkpt lat="40.0330376" lon="20.1826977"><ele>201.0</ele><time>2026-04-26T13:13:20.257Z</time></trkpt><trkpt lat="40.0328564" lon="20.1828793"><ele>201.0</ele><time>2026-04-26T13:13:21.256Z</time></trkpt><trkpt lat="40.0326756" lon="20.1830549"><ele>201.0</ele><time>2026-04-26T13:13:22.258Z</time></trkpt><trkpt lat="40.0324962" lon="20.1832246"><ele>201.0</ele><time>2026-04-26T13:13:23.257Z</time></trkpt><trkpt lat="40.0323196" lon="20.1833923"><ele>201.0</ele><time>2026-04-26T13:13:24.258Z</time></trkpt><trkpt lat="40.032144" lon="20.1835536"><ele>201.0</ele><time>2026-04-26T13:13:25.259Z</time></trkpt><trkpt lat="40.0319685" lon="20.1837143"><ele>201.0</ele><time>2026-04-26T13:13:26.258Z</time></trkpt><trkpt lat="40.0317944" lon="20.1838733"><ele>201.0</ele><time>2026-04-26T13:13:27.257Z</time></trkpt><trkpt lat="40.0316211" lon="20.1840335"><ele>201.66666666666669</ele><time>2026-04-26T13:13:28.258Z</time></trkpt><trkpt lat="40.0314503" lon="20.1841938"><ele>202.33333333333334</ele><time>2026-04-26T13:13:29.259Z</time></trkpt><trkpt lat="40.0312797" lon="20.1843526"><ele>203.0</ele><time>2026-04-26T13:13:30.259Z</time></trkpt><trkpt lat="40.0311101" lon="20.1845096"><ele>203.0</ele><time>2026-04-26T13:13:31.26Z</time></trkpt><trkpt lat="40.0309397" lon="20.1846657"><ele>203.0</ele><time>2026-04-26T13:13:32.259Z</time></trkpt><trkpt lat="40.030768" lon="20.1848214"><ele>203.0</ele><time>2026-04-26T13:13:33.259Z</time></trkpt><trkpt lat="40.0305906" lon="20.1849825"><ele>202.0</ele><time>2026-04-26T13:13:34.259Z</time></trkpt><trkpt lat="40.0304071" lon="20.1851495"><ele>201.0</ele><time>2026-04-26T13:13:35.259Z</time></trkpt><trkpt lat="40.0302225" lon="20.1853146"><ele>200.0</ele><time>2026-04-26T13:13:36.26Z</time></trkpt><trkpt lat="40.0300395" lon="20.1854763"><ele>200.0</ele><time>2026-04-26T13:13:37.258Z</time></trkpt><trkpt lat="40.0298632" lon="20.1856445"><ele>200.0</ele><time>2026-04-26T13:13:38.258Z</time></trkpt><trkpt lat="40.0296886" lon="20.1858108"><ele>200.0</ele><time>2026-04-26T13:13:39.258Z</time></trkpt><trkpt lat="40.0295119" lon="20.1859762"><ele>200.0</ele><time>2026-04-26T13:13:40.259Z</time></trkpt><trkpt lat="40.0293356" lon="20.1861435"><ele>200.0</ele><time>2026-04-26T13:13:41.258Z</time></trkpt><trkpt lat="40.0291563" lon="20.1863066"><ele>200.0</ele><time>2026-04-26T13:13:42.255Z</time></trkpt><trkpt lat="40.0289707" lon="20.186472"><ele>200.0</ele><time>2026-04-26T13:13:43.263Z</time></trkpt><trkpt lat="40.0287834" lon="20.1866404"><ele>200.0</ele><time>2026-04-26T13:13:44.256Z</time></trkpt><trkpt lat="40.0285932" lon="20.1868115"><ele>200.0</ele><time>2026-04-26T13:13:45.258Z</time></trkpt><trkpt lat="40.0283997" lon="20.1869881"><ele>200.0</ele><time>2026-04-26T13:13:46.258Z</time></trkpt><trkpt lat="40.0282065" lon="20.1871633"><ele>199.5</ele><time>2026-04-26T13:13:47.26Z</time></trkpt><trkpt lat="40.0280097" lon="20.1873405"><ele>199.0</ele><time>2026-04-26T13:13:48.259Z</time></trkpt><trkpt lat="40.0278152" lon="20.1875214"><ele>199.5</ele><time>2026-04-26T13:13:49.257Z</time></trkpt><trkpt lat="40.0276227" lon="20.1877028"><ele>200.0</ele><time>2026-04-26T13:13:50.259Z</time></trkpt><trkpt lat="40.027431" lon="20.1878823"><ele>200.0</ele><time>2026-04-26T13:13:51.26Z</time></trkpt><trkpt lat="40.0272392" lon="20.1880618"><ele>200.0</ele><time>2026-04-26T13:13:52.258Z</time></trkpt><trkpt lat="40.0270488" lon="20.1882357"><ele>201.0</ele><time>2026-04-26T13:13:53.257Z</time></trkpt><trkpt lat="40.0268552" lon="20.1884134"><ele>202.0</ele><time>2026-04-26T13:13:54.259Z</time></trkpt><trkpt lat="40.0266536" lon="20.1886001"><ele>202.5</ele><time>2026-04-26T13:13:55.257Z</time></trkpt><trkpt lat="40.0264474" lon="20.1887888"><ele>203.0</ele><time>2026-04-26T13:13:56.258Z</time></trkpt><trkpt lat="40.0262397" lon="20.1889817"><ele>202.5</ele><time>2026-04-26T13:13:57.26Z</time></trkpt><trkpt lat="40.0260327" lon="20.1891804"><ele>202.0</ele><time>2026-04-26T13:13:58.26Z</time></trkpt><trkpt lat="40.0258269" lon="20.1893787"><ele>201.0</ele><time>2026-04-26T13:13:59.26Z</time></trkpt><trkpt lat="40.0256207" lon="20.1895762"><ele>200.0</ele><time>2026-04-26T13:14:00.26Z</time></trkpt><trkpt lat="40.0254149" lon="20.1897677"><ele>200.5</ele><time>2026-04-26T13:14:01.258Z</time></trkpt><trkpt lat="40.0252106" lon="20.1899568"><ele>201.0</ele><time>2026-04-26T13:14:02.262Z</time></trkpt><trkpt lat="40.0250054" lon="20.1901455"><ele>202.0</ele><time>2026-04-26T13:14:03.258Z</time></trkpt><trkpt lat="40.0248019" lon="20.1903318"><ele>203.0</ele><time>2026-04-26T13:14:04.259Z</time></trkpt><trkpt lat="40.0245991" lon="20.1905145"><ele>202.5</ele><time>2026-04-26T13:14:05.259Z</time></trkpt><trkpt lat="40.0243989" lon="20.190695"><ele>202.0</ele><time>2026-04-26T13:14:06.259Z</time></trkpt><trkpt lat="40.0241985" lon="20.1908735"><ele>202.0</ele><time>2026-04-26T13:14:07.258Z</time></trkpt><trkpt lat="40.0240049" lon="20.1910465"><ele>202.0</ele><time>2026-04-26T13:14:08.259Z</time></trkpt><trkpt lat="40.023817" lon="20.1912157"><ele>202.0</ele><time>2026-04-26T13:14:09.261Z</time></trkpt><trkpt lat="40.0236351" lon="20.1913783"><ele>202.0</ele><time>2026-04-26T13:14:10.259Z</time></trkpt><trkpt lat="40.0234564" lon="20.1915366"><ele>202.0</ele><time>2026-04-26T13:14:11.26Z</time></trkpt><trkpt lat="40.0232804" lon="20.1916919"><ele>202.33333333333331</ele><time>2026-04-26T13:14:12.258Z</time></trkpt><trkpt lat="40.0231028" lon="20.1918504"><ele>202.66666666666669</ele><time>2026-04-26T13:14:13.259Z</time></trkpt><trkpt lat="40.0229242" lon="20.1920081"><ele>203.0</ele><time>2026-04-26T13:14:14.257Z</time></trkpt><trkpt lat="40.0227519" lon="20.1921585"><ele>203.0</ele><time>2026-04-26T13:14:15.259Z</time></trkpt><trkpt lat="40.0225772" lon="20.1923182"><ele>203.0</ele><time>2026-04-26T13:14:16.259Z</time></trkpt><trkpt lat="40.0224038" lon="20.1924802"><ele>203.0</ele><time>2026-04-26T13:14:17.259Z</time></trkpt><trkpt lat="40.0222285" lon="20.192638"><ele>204.0</ele><time>2026-04-26T13:14:18.258Z</time></trkpt><trkpt lat="40.022053" lon="20.1927934"><ele>205.0</ele><time>2026-04-26T13:14:19.258Z</time></trkpt><trkpt lat="40.0218761" lon="20.1929483"><ele>206.0</ele><time>2026-04-26T13:14:20.258Z</time></trkpt><trkpt lat="40.0216992" lon="20.1931077"><ele>205.66666666666669</ele><time>2026-04-26T13:14:21.259Z</time></trkpt><trkpt lat="40.0215209" lon="20.1932652"><ele>205.33333333333331</ele><time>2026-04-26T13:14:22.258Z</time></trkpt><trkpt lat="40.0213401" lon="20.1934237"><ele>205.0</ele><time>2026-04-26T13:14:23.26Z</time></trkpt><trkpt lat="40.0211548" lon="20.1935695"><ele>205.0</ele><time>2026-04-26T13:14:24.258Z</time></trkpt><trkpt lat="40.0209623" lon="20.1937083"><ele>205.0</ele><time>2026-04-26T13:14:25.258Z</time></trkpt><trkpt lat="40.020767" lon="20.1938344"><ele>205.0</ele><time>2026-04-26T13:14:26.258Z</time></trkpt><trkpt lat="40.0205663" lon="20.1939584"><ele>205.0</ele><time>2026-04-26T13:14:27.258Z</time></trkpt><trkpt lat="40.0203609" lon="20.1940814"><ele>205.0</ele><time>2026-04-26T13:14:28.259Z</time></trkpt><trkpt lat="40.0201522" lon="20.1941991"><ele>204.5</ele><time>2026-04-26T13:14:29.259Z</time></trkpt><trkpt lat="40.0199401" lon="20.1943107"><ele>204.0</ele><time>2026-04-26T13:14:30.258Z</time></trkpt><trkpt lat="40.0197263" lon="20.1944201"><ele>204.0</ele><time>2026-04-26T13:14:31.258Z</time></trkpt><trkpt lat="40.0195127" lon="20.1945225"><ele>204.0</ele><time>2026-04-26T13:14:32.257Z</time></trkpt><trkpt lat="40.0192972" lon="20.1946181"><ele>205.0</ele><time>2026-04-26T13:14:33.259Z</time></trkpt><trkpt lat="40.0190831" lon="20.1947128"><ele>206.0</ele><time>2026-04-26T13:14:34.26Z</time></trkpt><trkpt lat="40.0188668" lon="20.194805"><ele>204.5</ele><time>2026-04-26T13:14:35.261Z</time></trkpt><trkpt lat="40.0186553" lon="20.1948937"><ele>203.0</ele><time>2026-04-26T13:14:36.26Z</time></trkpt><trkpt lat="40.0184385" lon="20.1949933"><ele>202.5</ele><time>2026-04-26T13:14:37.26Z</time></trkpt><trkpt lat="40.0182229" lon="20.1951071"><ele>202.0</ele><time>2026-04-26T13:14:38.259Z</time></trkpt><trkpt lat="40.0180092" lon="20.1952308"><ele>202.0</ele><time>2026-04-26T13:14:39.258Z</time></trkpt><trkpt lat="40.0177954" lon="20.1953669"><ele>202.0</ele><time>2026-04-26T13:14:40.259Z</time></trkpt><trkpt lat="40.0175793" lon="20.1955091"><ele>202.5</ele><time>2026-04-26T13:14:41.259Z</time></trkpt><trkpt lat="40.0173662" lon="20.1956625"><ele>203.0</ele><time>2026-04-26T13:14:42.259Z</time></trkpt><trkpt lat="40.0171527" lon="20.1958278"><ele>203.0</ele><time>2026-04-26T13:14:43.259Z</time></trkpt><trkpt lat="40.0169408" lon="20.1959989"><ele>203.0</ele><time>2026-04-26T13:14:44.259Z</time></trkpt><trkpt lat="40.0167339" lon="20.1961781"><ele>202.5</ele><time>2026-04-26T13:14:45.257Z</time></trkpt><trkpt lat="40.016535" lon="20.1963694"><ele>202.0</ele><time>2026-04-26T13:14:46.259Z</time></trkpt><trkpt lat="40.0163411" lon="20.1965706"><ele>203.0</ele><time>2026-04-26T13:14:47.259Z</time></trkpt><trkpt lat="40.0161492" lon="20.196772"><ele>204.0</ele><time>2026-04-26T13:14:48.26Z</time></trkpt><trkpt lat="40.0159624" lon="20.1969786"><ele>204.0</ele><time>2026-04-26T13:14:49.261Z</time></trkpt><trkpt lat="40.0157785" lon="20.1971865"><ele>204.0</ele><time>2026-04-26T13:14:50.26Z</time></trkpt><trkpt lat="40.0155923" lon="20.1973929"><ele>204.0</ele><time>2026-04-26T13:14:51.258Z</time></trkpt><trkpt lat="40.0154079" lon="20.1976029"><ele>204.0</ele><time>2026-04-26T13:14:52.258Z</time></trkpt><trkpt lat="40.015224" lon="20.1978096"><ele>204.0</ele><time>2026-04-26T13:14:53.26Z</time></trkpt><trkpt lat="40.015041" lon="20.1980129"><ele>204.0</ele><time>2026-04-26T13:14:54.258Z</time></trkpt><trkpt lat="40.0148575" lon="20.1982138"><ele>204.5</ele><time>2026-04-26T13:14:55.258Z</time></trkpt><trkpt lat="40.0146795" lon="20.1984162"><ele>205.0</ele><time>2026-04-26T13:14:56.262Z</time></trkpt><trkpt lat="40.0145025" lon="20.1986171"><ele>205.0</ele><time>2026-04-26T13:14:57.26Z</time></trkpt><trkpt lat="40.0143287" lon="20.1988189"><ele>205.0</ele><time>2026-04-26T13:14:58.257Z</time></trkpt><trkpt lat="40.0141557" lon="20.1990247"><ele>204.0</ele><time>2026-04-26T13:14:59.259Z</time></trkpt><trkpt lat="40.013983" lon="20.1992335"><ele>203.0</ele><time>2026-04-26T13:15:00.26Z</time></trkpt><trkpt lat="40.0138101" lon="20.1994381"><ele>203.0</ele><time>2026-04-26T13:15:01.259Z</time></trkpt><trkpt lat="40.0136371" lon="20.1996416"><ele>203.0</ele><time>2026-04-26T13:15:02.26Z</time></trkpt><trkpt lat="40.0134659" lon="20.199844"><ele>203.0</ele><time>2026-04-26T13:15:03.259Z</time></trkpt><trkpt lat="40.013292" lon="20.2000439"><ele>203.0</ele><time>2026-04-26T13:15:04.259Z</time></trkpt><trkpt lat="40.0131225" lon="20.2002442"><ele>203.0</ele><time>2026-04-26T13:15:05.256Z</time></trkpt><trkpt lat="40.0129551" lon="20.2004443"><ele>203.0</ele><time>2026-04-26T13:15:06.257Z</time></trkpt><trkpt lat="40.0127863" lon="20.2006461"><ele>204.0</ele><time>2026-04-26T13:15:07.258Z</time></trkpt><trkpt lat="40.0126186" lon="20.2008503"><ele>205.0</ele><time>2026-04-26T13:15:08.258Z</time></trkpt><trkpt lat="40.012451" lon="20.2010517"><ele>205.0</ele><time>2026-04-26T13:15:09.257Z</time></trkpt><trkpt lat="40.0122835" lon="20.2012566"><ele>205.0</ele><time>2026-04-26T13:15:10.258Z</time></trkpt><trkpt lat="40.012117" lon="20.2014609"><ele>205.0</ele><time>2026-04-26T13:15:11.259Z</time></trkpt><trkpt lat="40.0119485" lon="20.2016628"><ele>205.0</ele><time>2026-04-26T13:15:12.26Z</time></trkpt><trkpt lat="40.0117817" lon="20.2018613"><ele>204.5</ele><time>2026-04-26T13:15:13.259Z</time></trkpt><trkpt lat="40.011615" lon="20.2020652"><ele>204.0</ele><time>2026-04-26T13:15:14.257Z</time></trkpt><trkpt lat="40.0114475" lon="20.2022704"><ele>203.0</ele><time>2026-04-26T13:15:15.257Z</time></trkpt><trkpt lat="40.0112793" lon="20.2024759"><ele>202.0</ele><time>2026-04-26T13:15:16.259Z</time></trkpt><trkpt lat="40.0111074" lon="20.2026797"><ele>202.0</ele><time>2026-04-26T13:15:17.26Z</time></trkpt><trkpt lat="40.010935" lon="20.2028828"><ele>202.0</ele><time>2026-04-26T13:15:18.258Z</time></trkpt><trkpt lat="40.010761" lon="20.2030871"><ele>204.0</ele><time>2026-04-26T13:15:19.259Z</time></trkpt><trkpt lat="40.0105854" lon="20.20329"><ele>206.0</ele><time>2026-04-26T13:15:20.259Z</time></trkpt><trkpt lat="40.0104128" lon="20.2034952"><ele>206.0</ele><time>2026-04-26T13:15:21.26Z</time></trkpt><trkpt lat="40.0102375" lon="20.2037024"><ele>206.0</ele><time>2026-04-26T13:15:22.258Z</time></trkpt><trkpt lat="40.0100633" lon="20.2039078"><ele>205.0</ele><time>2026-04-26T13:15:23.258Z</time></trkpt><trkpt lat="40.0098874" lon="20.2041153"><ele>204.0</ele><time>2026-04-26T13:15:24.26Z</time></trkpt><trkpt lat="40.00971" lon="20.2043195"><ele>204.0</ele><time>2026-04-26T13:15:25.261Z</time></trkpt><trkpt lat="40.0095337" lon="20.2045243"><ele>204.0</ele><time>2026-04-26T13:15:26.255Z</time></trkpt><trkpt lat="40.0093574" lon="20.2047333"><ele>204.0</ele><time>2026-04-26T13:15:27.256Z</time></trkpt><trkpt lat="40.0091816" lon="20.2049418"><ele>204.0</ele><time>2026-04-26T13:15:28.26Z</time></trkpt><trkpt lat="40.009008" lon="20.2051484"><ele>204.0</ele><time>2026-04-26T13:15:29.256Z</time></trkpt><trkpt lat="40.0088334" lon="20.2053532"><ele>204.0</ele><time>2026-04-26T13:15:30.258Z</time></trkpt><trkpt lat="40.0086583" lon="20.205557"><ele>204.0</ele><time>2026-04-26T13:15:31.259Z</time></trkpt><trkpt lat="40.0084827" lon="20.2057584"><ele>204.0</ele><time>2026-04-26T13:15:32.259Z</time></trkpt><trkpt lat="40.0083033" lon="20.2059577"><ele>204.0</ele><time>2026-04-26T13:15:33.258Z</time></trkpt><trkpt lat="40.0081276" lon="20.2061612"><ele>204.0</ele><time>2026-04-26T13:15:34.259Z</time></trkpt><trkpt lat="40.0079545" lon="20.2063695"><ele>205.0</ele><time>2026-04-26T13:15:35.259Z</time></trkpt><trkpt lat="40.007781" lon="20.2065666"><ele>206.0</ele><time>2026-04-26T13:15:36.259Z</time></trkpt><trkpt lat="40.0076047" lon="20.2067689"><ele>205.5</ele><time>2026-04-26T13:15:37.259Z</time></trkpt><trkpt lat="40.0074326" lon="20.2069734"><ele>205.0</ele><time>2026-04-26T13:15:38.257Z</time></trkpt><trkpt lat="40.0072627" lon="20.2071763"><ele>205.5</ele><time>2026-04-26T13:15:39.259Z</time></trkpt><trkpt lat="40.0070929" lon="20.2073796"><ele>206.0</ele><time>2026-04-26T13:15:40.258Z</time></trkpt><trkpt lat="40.0069235" lon="20.2075799"><ele>206.0</ele><time>2026-04-26T13:15:41.259Z</time></trkpt><trkpt lat="40.0067519" lon="20.2077778"><ele>206.0</ele><time>2026-04-26T13:15:42.257Z</time></trkpt><trkpt lat="40.006583" lon="20.2079786"><ele>206.0</ele><time>2026-04-26T13:15:43.259Z</time></trkpt><trkpt lat="40.006414" lon="20.2081789"><ele>206.0</ele><time>2026-04-26T13:15:44.258Z</time></trkpt><trkpt lat="40.0062441" lon="20.2083733"><ele>206.0</ele><time>2026-04-26T13:15:45.257Z</time></trkpt><trkpt lat="40.0060735" lon="20.2085705"><ele>206.0</ele><time>2026-04-26T13:15:46.257Z</time></trkpt><trkpt lat="40.0058999" lon="20.2087592"><ele>206.0</ele><time>2026-04-26T13:15:47.257Z</time></trkpt><trkpt lat="40.0057223" lon="20.2089388"><ele>206.0</ele><time>2026-04-26T13:15:48.259Z</time></trkpt><trkpt lat="40.0055424" lon="20.2091169"><ele>206.0</ele><time>2026-04-26T13:15:49.257Z</time></trkpt><trkpt lat="40.0053597" lon="20.2092897"><ele>206.0</ele><time>2026-04-26T13:15:50.26Z</time></trkpt><trkpt lat="40.0051731" lon="20.2094568"><ele>206.0</ele><time>2026-04-26T13:15:51.262Z</time></trkpt><trkpt lat="40.0049801" lon="20.209618"><ele>206.0</ele><time>2026-04-26T13:15:52.259Z</time></trkpt><trkpt lat="40.0047841" lon="20.2097704"><ele>206.5</ele><time>2026-04-26T13:15:53.258Z</time></trkpt><trkpt lat="40.0045844" lon="20.209916"><ele>207.0</ele><time>2026-04-26T13:15:54.258Z</time></trkpt><trkpt lat="40.0043849" lon="20.2100578"><ele>207.0</ele><time>2026-04-26T13:15:55.258Z</time></trkpt><trkpt lat="40.0041806" lon="20.2101962"><ele>207.0</ele><time>2026-04-26T13:15:56.258Z</time></trkpt><trkpt lat="40.0039746" lon="20.2103324"><ele>207.5</ele><time>2026-04-26T13:15:57.259Z</time></trkpt><trkpt lat="40.0037712" lon="20.2104681"><ele>208.0</ele><time>2026-04-26T13:15:58.258Z</time></trkpt><trkpt lat="40.003569" lon="20.2106069"><ele>208.0</ele><time>2026-04-26T13:15:59.258Z</time></trkpt><trkpt lat="40.0033676" lon="20.2107462"><ele>208.0</ele><time>2026-04-26T13:16:00.256Z</time></trkpt><trkpt lat="40.0031644" lon="20.2108978"><ele>208.0</ele><time>2026-04-26T13:16:01.261Z</time></trkpt><trkpt lat="40.0029653" lon="20.2110609"><ele>208.0</ele><time>2026-04-26T13:16:02.259Z</time></trkpt><trkpt lat="40.0027658" lon="20.2112322"><ele>208.0</ele><time>2026-04-26T13:16:03.258Z</time></trkpt><trkpt lat="40.0025664" lon="20.2114122"><ele>208.0</ele><time>2026-04-26T13:16:04.262Z</time></trkpt><trkpt lat="40.0023758" lon="20.211605"><ele>210.0</ele><time>2026-04-26T13:16:05.259Z</time></trkpt><trkpt lat="40.0021897" lon="20.2118092"><ele>212.0</ele><time>2026-04-26T13:16:06.258Z</time></trkpt><trkpt lat="40.0020063" lon="20.2120213"><ele>212.0</ele><time>2026-04-26T13:16:07.26Z</time></trkpt><trkpt lat="40.0018321" lon="20.2122392"><ele>212.0</ele><time>2026-04-26T13:16:08.262Z</time></trkpt><trkpt lat="40.0016608" lon="20.2124592"><ele>214.0</ele><time>2026-04-26T13:16:09.258Z</time></trkpt><trkpt lat="40.0014934" lon="20.2126807"><ele>216.0</ele><time>2026-04-26T13:16:10.26Z</time></trkpt><trkpt lat="40.0013292" lon="20.2129026"><ele>216.0</ele><time>2026-04-26T13:16:11.258Z</time></trkpt><trkpt lat="40.001167" lon="20.2131226"><ele>216.0</ele><time>2026-04-26T13:16:12.258Z</time></trkpt><trkpt lat="40.0010038" lon="20.2133427"><ele>215.5</ele><time>2026-04-26T13:16:13.256Z</time></trkpt><trkpt lat="40.0008348" lon="20.2135579"><ele>215.0</ele><time>2026-04-26T13:16:14.256Z</time></trkpt><trkpt lat="40.0006601" lon="20.2137663"><ele>215.0</ele><time>2026-04-26T13:16:15.258Z</time></trkpt><trkpt lat="40.0004796" lon="20.2139652"><ele>215.0</ele><time>2026-04-26T13:16:16.256Z</time></trkpt><trkpt lat="40.0002943" lon="20.214157"><ele>212.5</ele><time>2026-04-26T13:16:17.259Z</time></trkpt><trkpt lat="40.0001056" lon="20.2143378"><ele>210.0</ele><time>2026-04-26T13:16:18.257Z</time></trkpt><trkpt lat="39.9999115" lon="20.2145128"><ele>210.0</ele><time>2026-04-26T13:16:19.256Z</time></trkpt><trkpt lat="39.9997144" lon="20.2146785"><ele>210.0</ele><time>2026-04-26T13:16:20.257Z</time></trkpt><trkpt lat="39.9995141" lon="20.2148342"><ele>209.5</ele><time>2026-04-26T13:16:21.255Z</time></trkpt><trkpt lat="39.9993103" lon="20.2149798"><ele>209.0</ele><time>2026-04-26T13:16:22.257Z</time></trkpt><trkpt lat="39.9991044" lon="20.2151119"><ele>209.0</ele><time>2026-04-26T13:16:23.258Z</time></trkpt><trkpt lat="39.9988942" lon="20.2152377"><ele>209.0</ele><time>2026-04-26T13:16:24.257Z</time></trkpt><trkpt lat="39.9986804" lon="20.2153533"><ele>209.0</ele><time>2026-04-26T13:16:25.257Z</time></trkpt><trkpt lat="39.9984637" lon="20.2154561"><ele>209.0</ele><time>2026-04-26T13:16:26.259Z</time></trkpt><trkpt lat="39.9982441" lon="20.2155491"><ele>209.0</ele><time>2026-04-26T13:16:27.258Z</time></trkpt><trkpt lat="39.9980249" lon="20.2156353"><ele>209.0</ele><time>2026-04-26T13:16:28.259Z</time></trkpt><trkpt lat="39.9978075" lon="20.2157183"><ele>209.0</ele><time>2026-04-26T13:16:29.257Z</time></trkpt><trkpt lat="39.9975919" lon="20.2157966"><ele>209.0</ele><time>2026-04-26T13:16:30.258Z</time></trkpt><trkpt lat="39.9973782" lon="20.2158702"><ele>209.0</ele><time>2026-04-26T13:16:31.259Z</time></trkpt><trkpt lat="39.9971612" lon="20.2159453"><ele>208.66666666666669</ele><time>2026-04-26T13:16:32.257Z</time></trkpt><trkpt lat="39.9969416" lon="20.2160157"><ele>208.33333333333331</ele><time>2026-04-26T13:16:33.259Z</time></trkpt><trkpt lat="39.996728" lon="20.2160835"><ele>208.0</ele><time>2026-04-26T13:16:34.259Z</time></trkpt><trkpt lat="39.9965204" lon="20.2161531"><ele>209.0</ele><time>2026-04-26T13:16:35.258Z</time></trkpt><trkpt lat="39.996305" lon="20.2162268"><ele>210.0</ele><time>2026-04-26T13:16:36.259Z</time></trkpt><trkpt lat="39.9960903" lon="20.2162996"><ele>211.0</ele><time>2026-04-26T13:16:37.259Z</time></trkpt><trkpt lat="39.9958756" lon="20.216366"><ele>211.5</ele><time>2026-04-26T13:16:38.257Z</time></trkpt><trkpt lat="39.9956564" lon="20.2164332"><ele>212.0</ele><time>2026-04-26T13:16:39.259Z</time></trkpt><trkpt lat="39.9954348" lon="20.2165039"><ele>211.0</ele><time>2026-04-26T13:16:40.258Z</time></trkpt><trkpt lat="39.9952135" lon="20.2165764"><ele>210.0</ele><time>2026-04-26T13:16:41.261Z</time></trkpt><trkpt lat="39.994997" lon="20.2166541"><ele>209.0</ele><time>2026-04-26T13:16:42.259Z</time></trkpt><trkpt lat="39.9947773" lon="20.2167402"><ele>208.0</ele><time>2026-04-26T13:16:43.257Z</time></trkpt><trkpt lat="39.9945584" lon="20.2168237"><ele>208.0</ele><time>2026-04-26T13:16:44.256Z</time></trkpt><trkpt lat="39.9943378" lon="20.216913"><ele>208.0</ele><time>2026-04-26T13:16:45.259Z</time></trkpt><trkpt lat="39.9941187" lon="20.2170074"><ele>209.5</ele><time>2026-04-26T13:16:46.259Z</time></trkpt><trkpt lat="39.9939025" lon="20.2171096"><ele>211.0</ele><time>2026-04-26T13:16:47.259Z</time></trkpt><trkpt lat="39.9936852" lon="20.2172201"><ele>211.5</ele><time>2026-04-26T13:16:48.259Z</time></trkpt><trkpt lat="39.9934691" lon="20.2173398"><ele>212.0</ele><time>2026-04-26T13:16:49.259Z</time></trkpt><trkpt lat="39.9932526" lon="20.2174716"><ele>212.0</ele><time>2026-04-26T13:16:50.261Z</time></trkpt><trkpt lat="39.9930364" lon="20.2176111"><ele>212.0</ele><time>2026-04-26T13:16:51.259Z</time></trkpt><trkpt lat="39.9928217" lon="20.217757"><ele>212.0</ele><time>2026-04-26T13:16:52.259Z</time></trkpt><trkpt lat="39.9926121" lon="20.2179099"><ele>212.0</ele><time>2026-04-26T13:16:53.258Z</time></trkpt><trkpt lat="39.9924033" lon="20.218068"><ele>211.5</ele><time>2026-04-26T13:16:54.256Z</time></trkpt><trkpt lat="39.9921985" lon="20.2182362"><ele>211.0</ele><time>2026-04-26T13:16:55.258Z</time></trkpt><trkpt lat="39.9919934" lon="20.2184126"><ele>211.0</ele><time>2026-04-26T13:16:56.256Z</time></trkpt><trkpt lat="39.9917938" lon="20.2185925"><ele>211.0</ele><time>2026-04-26T13:16:57.257Z</time></trkpt><trkpt lat="39.9915928" lon="20.2187746"><ele>210.5</ele><time>2026-04-26T13:16:58.258Z</time></trkpt><trkpt lat="39.9913974" lon="20.218961"><ele>210.0</ele><time>2026-04-26T13:16:59.259Z</time></trkpt><trkpt lat="39.9912025" lon="20.2191466"><ele>210.0</ele><time>2026-04-26T13:17:00.257Z</time></trkpt><trkpt lat="39.9910083" lon="20.2193295"><ele>210.0</ele><time>2026-04-26T13:17:01.256Z</time></trkpt><trkpt lat="39.9908166" lon="20.2195109"><ele>210.0</ele><time>2026-04-26T13:17:02.258Z</time></trkpt><trkpt lat="39.9906266" lon="20.2196905"><ele>210.0</ele><time>2026-04-26T13:17:03.257Z</time></trkpt><trkpt lat="39.9904374" lon="20.2198666"><ele>209.5</ele><time>2026-04-26T13:17:04.257Z</time></trkpt><trkpt lat="39.9902491" lon="20.2200428"><ele>209.0</ele><time>2026-04-26T13:17:05.255Z</time></trkpt><trkpt lat="39.9900627" lon="20.2202236"><ele>209.0</ele><time>2026-04-26T13:17:06.256Z</time></trkpt><trkpt lat="39.9898736" lon="20.2204042"><ele>209.0</ele><time>2026-04-26T13:17:07.258Z</time></trkpt><trkpt lat="39.9896837" lon="20.220583"><ele>210.0</ele><time>2026-04-26T13:17:08.257Z</time></trkpt><trkpt lat="39.9894955" lon="20.220767"><ele>211.0</ele><time>2026-04-26T13:17:09.257Z</time></trkpt><trkpt lat="39.9893094" lon="20.2209468"><ele>211.5</ele><time>2026-04-26T13:17:10.258Z</time></trkpt><trkpt lat="39.9891255" lon="20.221125"><ele>212.0</ele><time>2026-04-26T13:17:11.256Z</time></trkpt><trkpt lat="39.9889419" lon="20.2212994"><ele>212.0</ele><time>2026-04-26T13:17:12.258Z</time></trkpt><trkpt lat="39.9887577" lon="20.2214698"><ele>212.0</ele><time>2026-04-26T13:17:13.258Z</time></trkpt><trkpt lat="39.9885775" lon="20.2216399"><ele>212.0</ele><time>2026-04-26T13:17:14.257Z</time></trkpt><trkpt lat="39.9883955" lon="20.2218092"><ele>211.5</ele><time>2026-04-26T13:17:15.259Z</time></trkpt><trkpt lat="39.9882134" lon="20.2219804"><ele>211.0</ele><time>2026-04-26T13:17:16.256Z</time></trkpt><trkpt lat="39.9880282" lon="20.2221538"><ele>211.0</ele><time>2026-04-26T13:17:17.256Z</time></trkpt><trkpt lat="39.9878423" lon="20.2223306"><ele>211.0</ele><time>2026-04-26T13:17:18.258Z</time></trkpt><trkpt lat="39.9876511" lon="20.2225091"><ele>211.5</ele><time>2026-04-26T13:17:19.257Z</time></trkpt><trkpt lat="39.9874575" lon="20.2226866"><ele>212.0</ele><time>2026-04-26T13:17:20.258Z</time></trkpt><trkpt lat="39.9872652" lon="20.222867"><ele>212.0</ele><time>2026-04-26T13:17:21.259Z</time></trkpt><trkpt lat="39.9870745" lon="20.2230524"><ele>212.0</ele><time>2026-04-26T13:17:22.258Z</time></trkpt><trkpt lat="39.9868822" lon="20.2232376"><ele>212.0</ele><time>2026-04-26T13:17:23.257Z</time></trkpt><trkpt lat="39.9866884" lon="20.2234206"><ele>212.0</ele><time>2026-04-26T13:17:24.255Z</time></trkpt><trkpt lat="39.986496" lon="20.2236019"><ele>212.5</ele><time>2026-04-26T13:17:25.256Z</time></trkpt><trkpt lat="39.9863028" lon="20.2237846"><ele>213.0</ele><time>2026-04-26T13:17:26.256Z</time></trkpt><trkpt lat="39.9861083" lon="20.2239708"><ele>212.0</ele><time>2026-04-26T13:17:27.255Z</time></trkpt><trkpt lat="39.9859157" lon="20.2241554"><ele>211.0</ele><time>2026-04-26T13:17:28.257Z</time></trkpt><trkpt lat="39.9857224" lon="20.2243401"><ele>211.0</ele><time>2026-04-26T13:17:29.255Z</time></trkpt><trkpt lat="39.9855263" lon="20.2245241"><ele>211.0</ele><time>2026-04-26T13:17:30.258Z</time></trkpt><trkpt lat="39.9853277" lon="20.2247077"><ele>211.0</ele><time>2026-04-26T13:17:31.258Z</time></trkpt><trkpt lat="39.9851304" lon="20.224896"><ele>211.0</ele><time>2026-04-26T13:17:32.256Z</time></trkpt><trkpt lat="39.9849319" lon="20.2250871"><ele>211.0</ele><time>2026-04-26T13:17:33.256Z</time></trkpt><trkpt lat="39.9847335" lon="20.225279"><ele>211.0</ele><time>2026-04-26T13:17:34.257Z</time></trkpt><trkpt lat="39.9845339" lon="20.2254773"><ele>211.0</ele><time>2026-04-26T13:17:35.26Z</time></trkpt><trkpt lat="39.9843293" lon="20.2256694"><ele>211.0</ele><time>2026-04-26T13:17:36.259Z</time></trkpt><trkpt lat="39.9841282" lon="20.2258567"><ele>211.5</ele><time>2026-04-26T13:17:37.259Z</time></trkpt><trkpt lat="39.9839295" lon="20.2260395"><ele>212.0</ele><time>2026-04-26T13:17:38.256Z</time></trkpt><trkpt lat="39.9837358" lon="20.2262243"><ele>212.0</ele><time>2026-04-26T13:17:39.259Z</time></trkpt><trkpt lat="39.9835416" lon="20.22641"><ele>212.0</ele><time>2026-04-26T13:17:40.257Z</time></trkpt><trkpt lat="39.9833502" lon="20.2265922"><ele>211.5</ele><time>2026-04-26T13:17:41.259Z</time></trkpt><trkpt lat="39.9831561" lon="20.2267732"><ele>211.0</ele><time>2026-04-26T13:17:42.259Z</time></trkpt><trkpt lat="39.9829615" lon="20.2269557"><ele>211.0</ele><time>2026-04-26T13:17:43.258Z</time></trkpt><trkpt lat="39.9827651" lon="20.227141"><ele>211.0</ele><time>2026-04-26T13:17:44.259Z</time></trkpt><trkpt lat="39.9825685" lon="20.2273268"><ele>211.5</ele><time>2026-04-26T13:17:45.258Z</time></trkpt><trkpt lat="39.9823738" lon="20.2275135"><ele>212.0</ele><time>2026-04-26T13:17:46.258Z</time></trkpt><trkpt lat="39.9821768" lon="20.2277026"><ele>212.0</ele><time>2026-04-26T13:17:47.257Z</time></trkpt><trkpt lat="39.9819764" lon="20.2278928"><ele>212.0</ele><time>2026-04-26T13:17:48.259Z</time></trkpt><trkpt lat="39.9817769" lon="20.2280801"><ele>212.0</ele><time>2026-04-26T13:17:49.257Z</time></trkpt><trkpt lat="39.9815784" lon="20.2282648"><ele>212.0</ele><time>2026-04-26T13:17:50.259Z</time></trkpt><trkpt lat="39.9813815" lon="20.2284507"><ele>212.0</ele><time>2026-04-26T13:17:51.258Z</time></trkpt><trkpt lat="39.9811855" lon="20.2286321"><ele>212.0</ele><time>2026-04-26T13:17:52.256Z</time></trkpt><trkpt lat="39.9809915" lon="20.2288162"><ele>212.5</ele><time>2026-04-26T13:17:53.259Z</time></trkpt><trkpt lat="39.9807988" lon="20.2290008"><ele>213.0</ele><time>2026-04-26T13:17:54.258Z</time></trkpt><trkpt lat="39.9806072" lon="20.2291821"><ele>213.0</ele><time>2026-04-26T13:17:55.259Z</time></trkpt><trkpt lat="39.9804148" lon="20.2293647"><ele>213.0</ele><time>2026-04-26T13:17:56.256Z</time></trkpt><trkpt lat="39.9802227" lon="20.2295481"><ele>213.0</ele><time>2026-04-26T13:17:57.258Z</time></trkpt><trkpt lat="39.9800264" lon="20.229728"><ele>213.0</ele><time>2026-04-26T13:17:58.259Z</time></trkpt><trkpt lat="39.9798352" lon="20.2299146"><ele>212.5</ele><time>2026-04-26T13:17:59.257Z</time></trkpt><trkpt lat="39.9796453" lon="20.2301016"><ele>212.0</ele><time>2026-04-26T13:18:00.258Z</time></trkpt><trkpt lat="39.9794583" lon="20.2302922"><ele>212.0</ele><time>2026-04-26T13:18:01.256Z</time></trkpt><trkpt lat="39.9792796" lon="20.230491"><ele>212.0</ele><time>2026-04-26T13:18:02.256Z</time></trkpt><trkpt lat="39.9790999" lon="20.2306901"><ele>214.0</ele><time>2026-04-26T13:18:03.257Z</time></trkpt><trkpt lat="39.9789225" lon="20.2308948"><ele>216.0</ele><time>2026-04-26T13:18:04.258Z</time></trkpt><trkpt lat="39.9787479" lon="20.2311042"><ele>216.0</ele><time>2026-04-26T13:18:05.256Z</time></trkpt><trkpt lat="39.9785738" lon="20.2313145"><ele>216.0</ele><time>2026-04-26T13:18:06.259Z</time></trkpt><trkpt lat="39.9784003" lon="20.2315219"><ele>214.5</ele><time>2026-04-26T13:18:07.258Z</time></trkpt><trkpt lat="39.9782306" lon="20.2317309"><ele>213.0</ele><time>2026-04-26T13:18:08.256Z</time></trkpt><trkpt lat="39.9780633" lon="20.2319392"><ele>213.0</ele><time>2026-04-26T13:18:09.258Z</time></trkpt><trkpt lat="39.9778976" lon="20.2321481"><ele>213.0</ele><time>2026-04-26T13:18:10.259Z</time></trkpt><trkpt lat="39.9777329" lon="20.2323518"><ele>213.0</ele><time>2026-04-26T13:18:11.256Z</time></trkpt><trkpt lat="39.9775717" lon="20.2325544"><ele>213.0</ele><time>2026-04-26T13:18:12.257Z</time></trkpt><trkpt lat="39.9774079" lon="20.2327608"><ele>213.5</ele><time>2026-04-26T13:18:13.257Z</time></trkpt><trkpt lat="39.9772447" lon="20.2329644"><ele>214.0</ele><time>2026-04-26T13:18:14.257Z</time></trkpt><trkpt lat="39.9770789" lon="20.2331713"><ele>214.0</ele><time>2026-04-26T13:18:15.26Z</time></trkpt><trkpt lat="39.9769129" lon="20.2333766"><ele>214.0</ele><time>2026-04-26T13:18:16.263Z</time></trkpt><trkpt lat="39.9767433" lon="20.2335755"><ele>218.0</ele><time>2026-04-26T13:18:17.256Z</time></trkpt><trkpt lat="39.9765691" lon="20.2337643"><ele>222.0</ele><time>2026-04-26T13:18:18.256Z</time></trkpt><trkpt lat="39.9763884" lon="20.2339459"><ele>221.5</ele><time>2026-04-26T13:18:19.256Z</time></trkpt><trkpt lat="39.9762034" lon="20.2341216"><ele>221.0</ele><time>2026-04-26T13:18:20.254Z</time></trkpt><trkpt lat="39.9760104" lon="20.2342948"><ele>224.0</ele><time>2026-04-26T13:18:21.256Z</time></trkpt><trkpt lat="39.9758102" lon="20.234461"><ele>227.0</ele><time>2026-04-26T13:18:22.258Z</time></trkpt><trkpt lat="39.9756019" lon="20.2346242"><ele>227.0</ele><time>2026-04-26T13:18:23.259Z</time></trkpt><trkpt lat="39.9753898" lon="20.2347816"><ele>227.0</ele><time>2026-04-26T13:18:24.256Z</time></trkpt><trkpt lat="39.9751723" lon="20.2349266"><ele>229.5</ele><time>2026-04-26T13:18:25.259Z</time></trkpt><trkpt lat="39.9749515" lon="20.235064"><ele>232.0</ele><time>2026-04-26T13:18:26.258Z</time></trkpt><trkpt lat="39.9747297" lon="20.2351913"><ele>232.0</ele><time>2026-04-26T13:18:27.257Z</time></trkpt><trkpt lat="39.9745043" lon="20.2353083"><ele>232.0</ele><time>2026-04-26T13:18:28.259Z</time></trkpt><trkpt lat="39.9742765" lon="20.235416"><ele>231.5</ele><time>2026-04-26T13:18:29.258Z</time></trkpt><trkpt lat="39.9740502" lon="20.2355179"><ele>231.0</ele><time>2026-04-26T13:18:30.254Z</time></trkpt><trkpt lat="39.973828" lon="20.2356057"><ele>227.0</ele><time>2026-04-26T13:18:31.258Z</time></trkpt><trkpt lat="39.973605" lon="20.2356821"><ele>223.0</ele><time>2026-04-26T13:18:32.257Z</time></trkpt><trkpt lat="39.9733822" lon="20.2357521"><ele>222.0</ele><time>2026-04-26T13:18:33.258Z</time></trkpt><trkpt lat="39.9731597" lon="20.2358174"><ele>221.0</ele><time>2026-04-26T13:18:34.256Z</time></trkpt><trkpt lat="39.9729383" lon="20.2358809"><ele>221.0</ele><time>2026-04-26T13:18:35.257Z</time></trkpt><trkpt lat="39.9727183" lon="20.2359415"><ele>221.0</ele><time>2026-04-26T13:18:36.258Z</time></trkpt><trkpt lat="39.9724996" lon="20.2360082"><ele>221.0</ele><time>2026-04-26T13:18:37.258Z</time></trkpt><trkpt lat="39.9722824" lon="20.2360726"><ele>220.33333333333334</ele><time>2026-04-26T13:18:38.257Z</time></trkpt><trkpt lat="39.9720656" lon="20.2361371"><ele>219.66666666666669</ele><time>2026-04-26T13:18:39.257Z</time></trkpt><trkpt lat="39.9718499" lon="20.2362014"><ele>219.0</ele><time>2026-04-26T13:18:40.258Z</time></trkpt><trkpt lat="39.9716374" lon="20.2362644"><ele>218.66666666666669</ele><time>2026-04-26T13:18:41.256Z</time></trkpt><trkpt lat="39.9714243" lon="20.2363337"><ele>218.33333333333334</ele><time>2026-04-26T13:18:42.255Z</time></trkpt><trkpt lat="39.9712109" lon="20.236408"><ele>218.0</ele><time>2026-04-26T13:18:43.258Z</time></trkpt><trkpt lat="39.9710015" lon="20.2364887"><ele>217.66666666666669</ele><time>2026-04-26T13:18:44.257Z</time></trkpt><trkpt lat="39.9707936" lon="20.2365761"><ele>217.33333333333331</ele><time>2026-04-26T13:18:45.255Z</time></trkpt><trkpt lat="39.970585" lon="20.2366678"><ele>217.0</ele><time>2026-04-26T13:18:46.256Z</time></trkpt><trkpt lat="39.9703797" lon="20.2367731"><ele>217.0</ele><time>2026-04-26T13:18:47.257Z</time></trkpt><trkpt lat="39.9701762" lon="20.2368878"><ele>217.0</ele><time>2026-04-26T13:18:48.255Z</time></trkpt><trkpt lat="39.969978" lon="20.237015"><ele>217.0</ele><time>2026-04-26T13:18:49.257Z</time></trkpt><trkpt lat="39.9697806" lon="20.2371506"><ele>217.33333333333331</ele><time>2026-04-26T13:18:50.261Z</time></trkpt><trkpt lat="39.9695835" lon="20.2372854"><ele>217.66666666666669</ele><time>2026-04-26T13:18:51.257Z</time></trkpt><trkpt lat="39.9693891" lon="20.237423"><ele>218.0</ele><time>2026-04-26T13:18:52.257Z</time></trkpt><trkpt lat="39.9691967" lon="20.2375663"><ele>219.0</ele><time>2026-04-26T13:18:53.257Z</time></trkpt><trkpt lat="39.9690071" lon="20.2377156"><ele>220.0</ele><time>2026-04-26T13:18:54.259Z</time></trkpt><trkpt lat="39.9688219" lon="20.2378693"><ele>221.0</ele><time>2026-04-26T13:18:55.257Z</time></trkpt><trkpt lat="39.9686385" lon="20.2380273"><ele>220.66666666666669</ele><time>2026-04-26T13:18:56.259Z</time></trkpt><trkpt lat="39.9684506" lon="20.2381859"><ele>220.33333333333331</ele><time>2026-04-26T13:18:57.259Z</time></trkpt><trkpt lat="39.9682663" lon="20.2383523"><ele>220.0</ele><time>2026-04-26T13:18:58.26Z</time></trkpt><trkpt lat="39.9680813" lon="20.238521"><ele>220.0</ele><time>2026-04-26T13:18:59.258Z</time></trkpt><trkpt lat="39.9678973" lon="20.2386902"><ele>220.0</ele><time>2026-04-26T13:19:00.257Z</time></trkpt><trkpt lat="39.9677133" lon="20.2388597"><ele>220.0</ele><time>2026-04-26T13:19:01.258Z</time></trkpt><trkpt lat="39.9675263" lon="20.239028"><ele>220.0</ele><time>2026-04-26T13:19:02.256Z</time></trkpt><trkpt lat="39.9673415" lon="20.2391969"><ele>220.0</ele><time>2026-04-26T13:19:03.255Z</time></trkpt><trkpt lat="39.9671566" lon="20.2393677"><ele>220.0</ele><time>2026-04-26T13:19:04.256Z</time></trkpt><trkpt lat="39.9669709" lon="20.2395393"><ele>220.0</ele><time>2026-04-26T13:19:05.256Z</time></trkpt><trkpt lat="39.9667816" lon="20.2397089"><ele>220.0</ele><time>2026-04-26T13:19:06.256Z</time></trkpt><trkpt lat="39.9665942" lon="20.2398828"><ele>220.5</ele><time>2026-04-26T13:19:07.26Z</time></trkpt><trkpt lat="39.9664059" lon="20.2400562"><ele>221.0</ele><time>2026-04-26T13:19:08.259Z</time></trkpt><trkpt lat="39.9662171" lon="20.240229"><ele>221.0</ele><time>2026-04-26T13:19:09.257Z</time></trkpt><trkpt lat="39.9660282" lon="20.2404063"><ele>221.0</ele><time>2026-04-26T13:19:10.258Z</time></trkpt><trkpt lat="39.9658382" lon="20.2405824"><ele>220.0</ele><time>2026-04-26T13:19:11.258Z</time></trkpt><trkpt lat="39.965653" lon="20.2407635"><ele>219.0</ele><time>2026-04-26T13:19:12.259Z</time></trkpt><trkpt lat="39.9654691" lon="20.2409436"><ele>219.0</ele><time>2026-04-26T13:19:13.257Z</time></trkpt><trkpt lat="39.9652864" lon="20.241121"><ele>219.0</ele><time>2026-04-26T13:19:14.256Z</time></trkpt><trkpt lat="39.965105" lon="20.2412954"><ele>219.0</ele><time>2026-04-26T13:19:15.259Z</time></trkpt><trkpt lat="39.9649253" lon="20.2414655"><ele>219.0</ele><time>2026-04-26T13:19:16.256Z</time></trkpt><trkpt lat="39.9647448" lon="20.2416295"><ele>219.0</ele><time>2026-04-26T13:19:17.259Z</time></trkpt><trkpt lat="39.9645655" lon="20.2417913"><ele>219.0</ele><time>2026-04-26T13:19:18.258Z</time></trkpt><trkpt lat="39.9643873" lon="20.2419539"><ele>219.0</ele><time>2026-04-26T13:19:19.258Z</time></trkpt><trkpt lat="39.9642132" lon="20.2421166"><ele>219.0</ele><time>2026-04-26T13:19:20.26Z</time></trkpt><trkpt lat="39.9640413" lon="20.242277"><ele>219.66666666666669</ele><time>2026-04-26T13:19:21.258Z</time></trkpt><trkpt lat="39.9638692" lon="20.2424355"><ele>220.33333333333334</ele><time>2026-04-26T13:19:22.257Z</time></trkpt><trkpt lat="39.9636975" lon="20.2425914"><ele>221.0</ele><time>2026-04-26T13:19:23.258Z</time></trkpt><trkpt lat="39.9635265" lon="20.2427456"><ele>220.66666666666669</ele><time>2026-04-26T13:19:24.256Z</time></trkpt><trkpt lat="39.9633556" lon="20.2428964"><ele>220.33333333333331</ele><time>2026-04-26T13:19:25.259Z</time></trkpt><trkpt lat="39.9631856" lon="20.2430495"><ele>220.0</ele><time>2026-04-26T13:19:26.257Z</time></trkpt><trkpt lat="39.9630165" lon="20.2432051"><ele>219.66666666666666</ele><time>2026-04-26T13:19:27.256Z</time></trkpt><trkpt lat="39.9628504" lon="20.2433639"><ele>219.33333333333331</ele><time>2026-04-26T13:19:28.256Z</time></trkpt><trkpt lat="39.9626844" lon="20.2435151"><ele>219.0</ele><time>2026-04-26T13:19:29.257Z</time></trkpt><trkpt lat="39.9625204" lon="20.2436613"><ele>219.0</ele><time>2026-04-26T13:19:30.256Z</time></trkpt><trkpt lat="39.9623615" lon="20.2438052"><ele>219.0</ele><time>2026-04-26T13:19:31.255Z</time></trkpt><trkpt lat="39.9622135" lon="20.2439461"><ele>219.0</ele><time>2026-04-26T13:19:32.261Z</time></trkpt><trkpt lat="39.9620709" lon="20.2440746"><ele>219.0</ele><time>2026-04-26T13:19:33.256Z</time></trkpt><trkpt lat="39.9619317" lon="20.244206"><ele>219.0</ele><time>2026-04-26T13:19:34.258Z</time></trkpt><trkpt lat="39.9617847" lon="20.2443409"><ele>219.0</ele><time>2026-04-26T13:19:35.258Z</time></trkpt><trkpt lat="39.9616286" lon="20.2444905"><ele>219.33333333333331</ele><time>2026-04-26T13:19:36.255Z</time></trkpt><trkpt lat="39.9614603" lon="20.2446504"><ele>219.66666666666666</ele><time>2026-04-26T13:19:37.255Z</time></trkpt><trkpt lat="39.9612796" lon="20.2448106"><ele>220.0</ele><time>2026-04-26T13:19:38.256Z</time></trkpt><trkpt lat="39.9610926" lon="20.244976"><ele>221.0</ele><time>2026-04-26T13:19:39.255Z</time></trkpt><trkpt lat="39.9609011" lon="20.245146"><ele>222.0</ele><time>2026-04-26T13:19:40.256Z</time></trkpt><trkpt lat="39.9607067" lon="20.2453135"><ele>222.0</ele><time>2026-04-26T13:19:41.256Z</time></trkpt><trkpt lat="39.9605125" lon="20.2454839"><ele>222.0</ele><time>2026-04-26T13:19:42.257Z</time></trkpt><trkpt lat="39.9603258" lon="20.2456543"><ele>222.0</ele><time>2026-04-26T13:19:43.255Z</time></trkpt><trkpt lat="39.9601403" lon="20.2458237"><ele>222.0</ele><time>2026-04-26T13:19:44.255Z</time></trkpt><trkpt lat="39.9599531" lon="20.2459891"><ele>221.66666666666669</ele><time>2026-04-26T13:19:45.256Z</time></trkpt><trkpt lat="39.9597748" lon="20.2461558"><ele>221.33333333333334</ele><time>2026-04-26T13:19:46.259Z</time></trkpt><trkpt lat="39.9596002" lon="20.2463118"><ele>221.0</ele><time>2026-04-26T13:19:47.257Z</time></trkpt><trkpt lat="39.9594274" lon="20.2464707"><ele>221.0</ele><time>2026-04-26T13:19:48.255Z</time></trkpt><trkpt lat="39.9592556" lon="20.2466286"><ele>221.0</ele><time>2026-04-26T13:19:49.258Z</time></trkpt><trkpt lat="39.9590847" lon="20.246789"><ele>221.0</ele><time>2026-04-26T13:19:50.26Z</time></trkpt><trkpt lat="39.9589118" lon="20.246945"><ele>221.33333333333334</ele><time>2026-04-26T13:19:51.256Z</time></trkpt><trkpt lat="39.9587382" lon="20.2470991"><ele>221.66666666666669</ele><time>2026-04-26T13:19:52.256Z</time></trkpt><trkpt lat="39.9585632" lon="20.2472557"><ele>222.0</ele><time>2026-04-26T13:19:53.258Z</time></trkpt><trkpt lat="39.9583869" lon="20.2474145"><ele>222.0</ele><time>2026-04-26T13:19:54.257Z</time></trkpt><trkpt lat="39.9582089" lon="20.2475765"><ele>222.0</ele><time>2026-04-26T13:19:55.255Z</time></trkpt><trkpt lat="39.9580281" lon="20.2477422"><ele>222.0</ele><time>2026-04-26T13:19:56.258Z</time></trkpt><trkpt lat="39.9578518" lon="20.2479033"><ele>222.0</ele><time>2026-04-26T13:19:57.256Z</time></trkpt><trkpt lat="39.957676" lon="20.2480684"><ele>222.0</ele><time>2026-04-26T13:19:58.258Z</time></trkpt><trkpt lat="39.9574989" lon="20.248235"><ele>222.0</ele><time>2026-04-26T13:19:59.257Z</time></trkpt><trkpt lat="39.9573192" lon="20.2484013"><ele>223.0</ele><time>2026-04-26T13:20:00.256Z</time></trkpt><trkpt lat="39.9571373" lon="20.2485717"><ele>224.0</ele><time>2026-04-26T13:20:01.26Z</time></trkpt><trkpt lat="39.9569534" lon="20.2487439"><ele>224.0</ele><time>2026-04-26T13:20:02.26Z</time></trkpt><trkpt lat="39.9567719" lon="20.2489171"><ele>224.0</ele><time>2026-04-26T13:20:03.256Z</time></trkpt><trkpt lat="39.9565897" lon="20.2490996"><ele>223.5</ele><time>2026-04-26T13:20:04.258Z</time></trkpt><trkpt lat="39.9564094" lon="20.2492828"><ele>223.0</ele><time>2026-04-26T13:20:05.257Z</time></trkpt><trkpt lat="39.9562292" lon="20.2494697"><ele>223.0</ele><time>2026-04-26T13:20:06.258Z</time></trkpt><trkpt lat="39.9560493" lon="20.2496552"><ele>223.0</ele><time>2026-04-26T13:20:07.258Z</time></trkpt><trkpt lat="39.9558728" lon="20.2498427"><ele>224.0</ele><time>2026-04-26T13:20:08.258Z</time></trkpt><trkpt lat="39.9557007" lon="20.2500328"><ele>225.0</ele><time>2026-04-26T13:20:09.256Z</time></trkpt><trkpt lat="39.9555308" lon="20.2502227"><ele>226.0</ele><time>2026-04-26T13:20:10.257Z</time></trkpt><trkpt lat="39.9553636" lon="20.2504102"><ele>226.0</ele><time>2026-04-26T13:20:11.256Z</time></trkpt><trkpt lat="39.9551993" lon="20.2505968"><ele>226.0</ele><time>2026-04-26T13:20:12.257Z</time></trkpt><trkpt lat="39.9550375" lon="20.2507838"><ele>226.0</ele><time>2026-04-26T13:20:13.257Z</time></trkpt><trkpt lat="39.9548729" lon="20.2509692"><ele>225.66666666666666</ele><time>2026-04-26T13:20:14.258Z</time></trkpt><trkpt lat="39.9547113" lon="20.2511544"><ele>225.33333333333331</ele><time>2026-04-26T13:20:15.255Z</time></trkpt><trkpt lat="39.9545475" lon="20.251341"><ele>225.0</ele><time>2026-04-26T13:20:16.256Z</time></trkpt><trkpt lat="39.9543787" lon="20.2515256"><ele>225.0</ele><time>2026-04-26T13:20:17.259Z</time></trkpt><trkpt lat="39.9542132" lon="20.2517142"><ele>225.0</ele><time>2026-04-26T13:20:18.255Z</time></trkpt><trkpt lat="39.9540467" lon="20.2519066"><ele>225.0</ele><time>2026-04-26T13:20:19.257Z</time></trkpt><trkpt lat="39.9538783" lon="20.252098"><ele>225.33333333333331</ele><time>2026-04-26T13:20:20.257Z</time></trkpt><trkpt lat="39.9537079" lon="20.2522903"><ele>225.66666666666666</ele><time>2026-04-26T13:20:21.259Z</time></trkpt><trkpt lat="39.9535406" lon="20.2524839"><ele>226.0</ele><time>2026-04-26T13:20:22.259Z</time></trkpt><trkpt lat="39.9533693" lon="20.2526731"><ele>226.0</ele><time>2026-04-26T13:20:23.256Z</time></trkpt><trkpt lat="39.9531985" lon="20.2528633"><ele>226.0</ele><time>2026-04-26T13:20:24.257Z</time></trkpt><trkpt lat="39.9530328" lon="20.2530581"><ele>226.0</ele><time>2026-04-26T13:20:25.257Z</time></trkpt><trkpt lat="39.9528686" lon="20.2532496"><ele>226.33333333333331</ele><time>2026-04-26T13:20:26.258Z</time></trkpt><trkpt lat="39.9527035" lon="20.253442"><ele>226.66666666666669</ele><time>2026-04-26T13:20:27.258Z</time></trkpt><trkpt lat="39.9525376" lon="20.2536334"><ele>227.0</ele><time>2026-04-26T13:20:28.261Z</time></trkpt><trkpt lat="39.9523723" lon="20.2538174"><ele>226.33333333333334</ele><time>2026-04-26T13:20:29.257Z</time></trkpt><trkpt lat="39.952208" lon="20.2540062"><ele>225.66666666666669</ele><time>2026-04-26T13:20:30.26Z</time></trkpt><trkpt lat="39.9520439" lon="20.2541969"><ele>225.0</ele><time>2026-04-26T13:20:31.259Z</time></trkpt><trkpt lat="39.9518788" lon="20.2543845"><ele>225.0</ele><time>2026-04-26T13:20:32.257Z</time></trkpt><trkpt lat="39.951717" lon="20.2545716"><ele>225.0</ele><time>2026-04-26T13:20:33.256Z</time></trkpt><trkpt lat="39.951555" lon="20.2547601"><ele>225.0</ele><time>2026-04-26T13:20:34.258Z</time></trkpt><trkpt lat="39.9513914" lon="20.2549492"><ele>224.66666666666669</ele><time>2026-04-26T13:20:35.257Z</time></trkpt><trkpt lat="39.9512303" lon="20.2551412"><ele>224.33333333333334</ele><time>2026-04-26T13:20:36.258Z</time></trkpt><trkpt lat="39.9510646" lon="20.2553317"><ele>224.0</ele><time>2026-04-26T13:20:37.257Z</time></trkpt><trkpt lat="39.9508962" lon="20.255521"><ele>226.0</ele><time>2026-04-26T13:20:38.26Z</time></trkpt><trkpt lat="39.9507303" lon="20.2557148"><ele>228.0</ele><time>2026-04-26T13:20:39.257Z</time></trkpt><trkpt lat="39.9505648" lon="20.2559122"><ele>230.0</ele><time>2026-04-26T13:20:40.257Z</time></trkpt><trkpt lat="39.9503983" lon="20.2561078"><ele>230.0</ele><time>2026-04-26T13:20:41.258Z</time></trkpt><trkpt lat="39.9502309" lon="20.2563011"><ele>230.0</ele><time>2026-04-26T13:20:42.258Z</time></trkpt><trkpt lat="39.9500598" lon="20.2564932"><ele>230.0</ele><time>2026-04-26T13:20:43.259Z</time></trkpt><trkpt lat="39.9498833" lon="20.2566824"><ele>232.0</ele><time>2026-04-26T13:20:44.257Z</time></trkpt><trkpt lat="39.9496997" lon="20.2568693"><ele>234.0</ele><time>2026-04-26T13:20:45.257Z</time></trkpt><trkpt lat="39.9495081" lon="20.2570503"><ele>234.0</ele><time>2026-04-26T13:20:46.256Z</time></trkpt><trkpt lat="39.9493108" lon="20.2572307"><ele>234.0</ele><time>2026-04-26T13:20:47.256Z</time></trkpt><trkpt lat="39.9491079" lon="20.25741"><ele>232.5</ele><time>2026-04-26T13:20:48.256Z</time></trkpt><trkpt lat="39.9489046" lon="20.2575854"><ele>231.0</ele><time>2026-04-26T13:20:49.256Z</time></trkpt><trkpt lat="39.9486998" lon="20.257758"><ele>231.0</ele><time>2026-04-26T13:20:50.256Z</time></trkpt><trkpt lat="39.9484963" lon="20.2579348"><ele>231.0</ele><time>2026-04-26T13:20:51.257Z</time></trkpt><trkpt lat="39.9482934" lon="20.2581142"><ele>230.5</ele><time>2026-04-26T13:20:52.26Z</time></trkpt><trkpt lat="39.9480895" lon="20.2582948"><ele>230.0</ele><time>2026-04-26T13:20:53.258Z</time></trkpt><trkpt lat="39.9478858" lon="20.258482"><ele>230.0</ele><time>2026-04-26T13:20:54.257Z</time></trkpt><trkpt lat="39.9476864" lon="20.2586751"><ele>230.0</ele><time>2026-04-26T13:20:55.258Z</time></trkpt><trkpt lat="39.9474897" lon="20.2588777"><ele>230.0</ele><time>2026-04-26T13:20:56.257Z</time></trkpt><trkpt lat="39.9472985" lon="20.2590873"><ele>230.0</ele><time>2026-04-26T13:20:57.256Z</time></trkpt><trkpt lat="39.9471138" lon="20.2593058"><ele>230.0</ele><time>2026-04-26T13:20:58.258Z</time></trkpt><trkpt lat="39.9469277" lon="20.259523"><ele>230.0</ele><time>2026-04-26T13:20:59.256Z</time></trkpt><trkpt lat="39.9467411" lon="20.2597418"><ele>229.5</ele><time>2026-04-26T13:21:00.256Z</time></trkpt><trkpt lat="39.9465548" lon="20.2599542"><ele>229.0</ele><time>2026-04-26T13:21:01.257Z</time></trkpt><trkpt lat="39.9463655" lon="20.2601648"><ele>229.0</ele><time>2026-04-26T13:21:02.258Z</time></trkpt><trkpt lat="39.9461748" lon="20.2603752"><ele>229.0</ele><time>2026-04-26T13:21:03.259Z</time></trkpt><trkpt lat="39.9459852" lon="20.2605866"><ele>233.0</ele><time>2026-04-26T13:21:04.257Z</time></trkpt><trkpt lat="39.9457984" lon="20.2607955"><ele>237.0</ele><time>2026-04-26T13:21:05.259Z</time></trkpt><trkpt lat="39.9456106" lon="20.2610023"><ele>237.0</ele><time>2026-04-26T13:21:06.256Z</time></trkpt><trkpt lat="39.9454249" lon="20.2612083"><ele>237.0</ele><time>2026-04-26T13:21:07.259Z</time></trkpt><trkpt lat="39.9452413" lon="20.2614196"><ele>236.5</ele><time>2026-04-26T13:21:08.26Z</time></trkpt><trkpt lat="39.9450628" lon="20.2616314"><ele>236.0</ele><time>2026-04-26T13:21:09.259Z</time></trkpt><trkpt lat="39.9448877" lon="20.2618475"><ele>236.0</ele><time>2026-04-26T13:21:10.258Z</time></trkpt><trkpt lat="39.9447186" lon="20.2620753"><ele>236.0</ele><time>2026-04-26T13:21:11.258Z</time></trkpt><trkpt lat="39.9445552" lon="20.262309"><ele>233.0</ele><time>2026-04-26T13:21:12.255Z</time></trkpt><trkpt lat="39.9444006" lon="20.2625464"><ele>230.0</ele><time>2026-04-26T13:21:13.255Z</time></trkpt><trkpt lat="39.944254" lon="20.2627917"><ele>230.5</ele><time>2026-04-26T13:21:14.258Z</time></trkpt><trkpt lat="39.9441113" lon="20.2630388"><ele>231.0</ele><time>2026-04-26T13:21:15.257Z</time></trkpt><trkpt lat="39.9439696" lon="20.2632864"><ele>231.0</ele><time>2026-04-26T13:21:16.258Z</time></trkpt><trkpt lat="39.9438269" lon="20.2635309"><ele>231.0</ele><time>2026-04-26T13:21:17.258Z</time></trkpt><trkpt lat="39.9436859" lon="20.2637704"><ele>231.0</ele><time>2026-04-26T13:21:18.257Z</time></trkpt><trkpt lat="39.9435418" lon="20.2640141"><ele>231.0</ele><time>2026-04-26T13:21:19.256Z</time></trkpt><trkpt lat="39.9434049" lon="20.2642581"><ele>234.5</ele><time>2026-04-26T13:21:20.257Z</time></trkpt><trkpt lat="39.9432734" lon="20.2645015"><ele>238.0</ele><time>2026-04-26T13:21:21.26Z</time></trkpt><trkpt lat="39.9431479" lon="20.264746"><ele>236.66666666666666</ele><time>2026-04-26T13:21:22.257Z</time></trkpt><trkpt lat="39.9430253" lon="20.2649881"><ele>235.33333333333331</ele><time>2026-04-26T13:21:23.26Z</time></trkpt><trkpt lat="39.9429046" lon="20.2652202"><ele>234.0</ele><time>2026-04-26T13:21:24.256Z</time></trkpt><trkpt lat="39.9427878" lon="20.2654442"><ele>233.33333333333331</ele><time>2026-04-26T13:21:25.258Z</time></trkpt><trkpt lat="39.942668" lon="20.2656627"><ele>232.66666666666666</ele><time>2026-04-26T13:21:26.256Z</time></trkpt><trkpt lat="39.9425459" lon="20.2658775"><ele>232.0</ele><time>2026-04-26T13:21:27.256Z</time></trkpt><trkpt lat="39.9424245" lon="20.2660923"><ele>231.33333333333331</ele><time>2026-04-26T13:21:28.256Z</time></trkpt><trkpt lat="39.9423046" lon="20.2663058"><ele>230.66666666666669</ele><time>2026-04-26T13:21:29.259Z</time></trkpt><trkpt lat="39.9421829" lon="20.2665182"><ele>230.0</ele><time>2026-04-26T13:21:30.258Z</time></trkpt><trkpt lat="39.9420608" lon="20.2667303"><ele>230.0</ele><time>2026-04-26T13:21:31.259Z</time></trkpt><trkpt lat="39.9419393" lon="20.2669422"><ele>230.0</ele><time>2026-04-26T13:21:32.258Z</time></trkpt><trkpt lat="39.9418151" lon="20.2671552"><ele>230.0</ele><time>2026-04-26T13:21:33.257Z</time></trkpt><trkpt lat="39.9416868" lon="20.2673684"><ele>229.33333333333334</ele><time>2026-04-26T13:21:34.256Z</time></trkpt><trkpt lat="39.9415596" lon="20.267581"><ele>228.66666666666669</ele><time>2026-04-26T13:21:35.257Z</time></trkpt><trkpt lat="39.9414237" lon="20.2677896"><ele>228.0</ele><time>2026-04-26T13:21:36.258Z</time></trkpt><trkpt lat="39.9412794" lon="20.2680002"><ele>228.33333333333331</ele><time>2026-04-26T13:21:37.26Z</time></trkpt><trkpt lat="39.9411307" lon="20.2682083"><ele>228.66666666666666</ele><time>2026-04-26T13:21:38.255Z</time></trkpt><trkpt lat="39.9409776" lon="20.2684179"><ele>229.0</ele><time>2026-04-26T13:21:39.26Z</time></trkpt><trkpt lat="39.9408234" lon="20.2686292"><ele>229.0</ele><time>2026-04-26T13:21:40.257Z</time></trkpt><trkpt lat="39.9406642" lon="20.268838"><ele>229.0</ele><time>2026-04-26T13:21:41.256Z</time></trkpt><trkpt lat="39.9405052" lon="20.2690474"><ele>228.5</ele><time>2026-04-26T13:21:42.26Z</time></trkpt><trkpt lat="39.9403417" lon="20.2692518"><ele>228.0</ele><time>2026-04-26T13:21:43.257Z</time></trkpt><trkpt lat="39.9401814" lon="20.269455"><ele>228.0</ele><time>2026-04-26T13:21:44.257Z</time></trkpt><trkpt lat="39.9400211" lon="20.2696605"><ele>228.0</ele><time>2026-04-26T13:21:45.257Z</time></trkpt><trkpt lat="39.9398629" lon="20.2698629"><ele>228.0</ele><time>2026-04-26T13:21:46.257Z</time></trkpt><trkpt lat="39.939706" lon="20.2700677"><ele>227.66666666666669</ele><time>2026-04-26T13:21:47.257Z</time></trkpt><trkpt lat="39.9395502" lon="20.2702687"><ele>227.33333333333334</ele><time>2026-04-26T13:21:48.257Z</time></trkpt><trkpt lat="39.9393922" lon="20.2704704"><ele>227.0</ele><time>2026-04-26T13:21:49.26Z</time></trkpt><trkpt lat="39.9392342" lon="20.2706686"><ele>228.0</ele><time>2026-04-26T13:21:50.258Z</time></trkpt><trkpt lat="39.9390772" lon="20.2708649"><ele>229.0</ele><time>2026-04-26T13:21:51.255Z</time></trkpt><trkpt lat="39.9389197" lon="20.271063"><ele>230.0</ele><time>2026-04-26T13:21:52.257Z</time></trkpt><trkpt lat="39.9387643" lon="20.2712602"><ele>230.66666666666669</ele><time>2026-04-26T13:21:53.258Z</time></trkpt><trkpt lat="39.9386067" lon="20.2714587"><ele>231.33333333333331</ele><time>2026-04-26T13:21:54.258Z</time></trkpt><trkpt lat="39.9384531" lon="20.2716585"><ele>232.0</ele><time>2026-04-26T13:21:55.258Z</time></trkpt><trkpt lat="39.9382987" lon="20.2718602"><ele>232.0</ele><time>2026-04-26T13:21:56.258Z</time></trkpt><trkpt lat="39.9381412" lon="20.2720596"><ele>232.0</ele><time>2026-04-26T13:21:57.256Z</time></trkpt><trkpt lat="39.93798" lon="20.2722591"><ele>232.0</ele><time>2026-04-26T13:21:58.257Z</time></trkpt><trkpt lat="39.9378188" lon="20.2724605"><ele>231.66666666666666</ele><time>2026-04-26T13:21:59.257Z</time></trkpt><trkpt lat="39.9376592" lon="20.2726604"><ele>231.33333333333331</ele><time>2026-04-26T13:22:00.258Z</time></trkpt><trkpt lat="39.9374969" lon="20.2728651"><ele>231.0</ele><time>2026-04-26T13:22:01.258Z</time></trkpt><trkpt lat="39.9373299" lon="20.2730743"><ele>232.0</ele><time>2026-04-26T13:22:02.258Z</time></trkpt><trkpt lat="39.9371621" lon="20.2732847"><ele>233.0</ele><time>2026-04-26T13:22:03.256Z</time></trkpt><trkpt lat="39.9369947" lon="20.2734989"><ele>233.0</ele><time>2026-04-26T13:22:04.258Z</time></trkpt><trkpt lat="39.936827" lon="20.2737124"><ele>233.0</ele><time>2026-04-26T13:22:05.258Z</time></trkpt><trkpt lat="39.9366577" lon="20.2739295"><ele>232.5</ele><time>2026-04-26T13:22:06.258Z</time></trkpt><trkpt lat="39.936486" lon="20.2741484"><ele>232.0</ele><time>2026-04-26T13:22:07.259Z</time></trkpt><trkpt lat="39.936314" lon="20.2743695"><ele>232.0</ele><time>2026-04-26T13:22:08.26Z</time></trkpt><trkpt lat="39.9361389" lon="20.2745899"><ele>232.0</ele><time>2026-04-26T13:22:09.256Z</time></trkpt><trkpt lat="39.9359665" lon="20.2748131"><ele>232.0</ele><time>2026-04-26T13:22:10.256Z</time></trkpt><trkpt lat="39.9357933" lon="20.2750348"><ele>232.0</ele><time>2026-04-26T13:22:11.258Z</time></trkpt><trkpt lat="39.9356185" lon="20.2752575"><ele>232.0</ele><time>2026-04-26T13:22:12.259Z</time></trkpt><trkpt lat="39.9354417" lon="20.2754794"><ele>232.0</ele><time>2026-04-26T13:22:13.258Z</time></trkpt><trkpt lat="39.9352673" lon="20.2757039"><ele>232.0</ele><time>2026-04-26T13:22:14.256Z</time></trkpt><trkpt lat="39.9350924" lon="20.2759263"><ele>232.0</ele><time>2026-04-26T13:22:15.257Z</time></trkpt><trkpt lat="39.9349175" lon="20.2761461"><ele>232.5</ele><time>2026-04-26T13:22:16.258Z</time></trkpt><trkpt lat="39.9347429" lon="20.2763691"><ele>233.0</ele><time>2026-04-26T13:22:17.257Z</time></trkpt><trkpt lat="39.9345688" lon="20.2765903"><ele>233.5</ele><time>2026-04-26T13:22:18.257Z</time></trkpt><trkpt lat="39.9343927" lon="20.276815"><ele>234.0</ele><time>2026-04-26T13:22:19.258Z</time></trkpt><trkpt lat="39.934219" lon="20.277039"><ele>234.5</ele><time>2026-04-26T13:22:20.257Z</time></trkpt><trkpt lat="39.9340509" lon="20.2772663"><ele>235.0</ele><time>2026-04-26T13:22:21.256Z</time></trkpt><trkpt lat="39.9338889" lon="20.277495"><ele>235.0</ele><time>2026-04-26T13:22:22.259Z</time></trkpt><trkpt lat="39.9337311" lon="20.2777322"><ele>235.0</ele><time>2026-04-26T13:22:23.257Z</time></trkpt><trkpt lat="39.9335789" lon="20.2779733"><ele>234.5</ele><time>2026-04-26T13:22:24.258Z</time></trkpt><trkpt lat="39.9334331" lon="20.2782188"><ele>234.0</ele><time>2026-04-26T13:22:25.257Z</time></trkpt><trkpt lat="39.9332936" lon="20.2784676"><ele>234.0</ele><time>2026-04-26T13:22:26.258Z</time></trkpt><trkpt lat="39.9331629" lon="20.2787243"><ele>234.0</ele><time>2026-04-26T13:22:27.257Z</time></trkpt><trkpt lat="39.9330417" lon="20.2789872"><ele>235.5</ele><time>2026-04-26T13:22:28.257Z</time></trkpt><trkpt lat="39.9329277" lon="20.2792534"><ele>237.0</ele><time>2026-04-26T13:22:29.256Z</time></trkpt><trkpt lat="39.9328182" lon="20.2795236"><ele>237.5</ele><time>2026-04-26T13:22:30.258Z</time></trkpt><trkpt lat="39.9327157" lon="20.2797956"><ele>238.0</ele><time>2026-04-26T13:22:31.257Z</time></trkpt><trkpt lat="39.9326183" lon="20.2800717"><ele>237.5</ele><time>2026-04-26T13:22:32.258Z</time></trkpt><trkpt lat="39.9325222" lon="20.2803471"><ele>237.0</ele><time>2026-04-26T13:22:33.256Z</time></trkpt><trkpt lat="39.9324293" lon="20.2806249"><ele>237.0</ele><time>2026-04-26T13:22:34.256Z</time></trkpt><trkpt lat="39.9323386" lon="20.2809069"><ele>237.0</ele><time>2026-04-26T13:22:35.256Z</time></trkpt><trkpt lat="39.932249" lon="20.2811873"><ele>237.5</ele><time>2026-04-26T13:22:36.256Z</time></trkpt><trkpt lat="39.9321569" lon="20.2814648"><ele>238.0</ele><time>2026-04-26T13:22:37.255Z</time></trkpt><trkpt lat="39.9320646" lon="20.2817431"><ele>238.0</ele><time>2026-04-26T13:22:38.259Z</time></trkpt><trkpt lat="39.9319712" lon="20.2820215"><ele>238.0</ele><time>2026-04-26T13:22:39.258Z</time></trkpt><trkpt lat="39.9318788" lon="20.282301"><ele>237.5</ele><time>2026-04-26T13:22:40.257Z</time></trkpt><trkpt lat="39.9317894" lon="20.2825844"><ele>237.0</ele><time>2026-04-26T13:22:41.258Z</time></trkpt><trkpt lat="39.9317004" lon="20.2828702"><ele>237.0</ele><time>2026-04-26T13:22:42.259Z</time></trkpt><trkpt lat="39.9316093" lon="20.2831668"><ele>237.0</ele><time>2026-04-26T13:22:43.259Z</time></trkpt><trkpt lat="39.931516" lon="20.2834638"><ele>237.0</ele><time>2026-04-26T13:22:44.257Z</time></trkpt><trkpt lat="39.9314213" lon="20.2837647"><ele>237.0</ele><time>2026-04-26T13:22:45.256Z</time></trkpt><trkpt lat="39.9313229" lon="20.2840643"><ele>237.0</ele><time>2026-04-26T13:22:46.256Z</time></trkpt><trkpt lat="39.931222" lon="20.2843646"><ele>237.0</ele><time>2026-04-26T13:22:47.259Z</time></trkpt><trkpt lat="39.9311218" lon="20.2846612"><ele>237.0</ele><time>2026-04-26T13:22:48.259Z</time></trkpt><trkpt lat="39.9310274" lon="20.2849557"><ele>237.0</ele><time>2026-04-26T13:22:49.257Z</time></trkpt><trkpt lat="39.9309311" lon="20.2852491"><ele>237.5</ele><time>2026-04-26T13:22:50.257Z</time></trkpt><trkpt lat="39.9308346" lon="20.2855394"><ele>238.0</ele><time>2026-04-26T13:22:51.256Z</time></trkpt><trkpt lat="39.9307415" lon="20.2858322"><ele>238.0</ele><time>2026-04-26T13:22:52.258Z</time></trkpt><trkpt lat="39.9306489" lon="20.2861277"><ele>238.0</ele><time>2026-04-26T13:22:53.258Z</time></trkpt><trkpt lat="39.9305546" lon="20.2864166"><ele>238.0</ele><time>2026-04-26T13:22:54.257Z</time></trkpt><trkpt lat="39.9304622" lon="20.2867086"><ele>238.0</ele><time>2026-04-26T13:22:55.256Z</time></trkpt><trkpt lat="39.9303699" lon="20.2869957"><ele>237.5</ele><time>2026-04-26T13:22:56.256Z</time></trkpt><trkpt lat="39.9302779" lon="20.2872807"><ele>237.0</ele><time>2026-04-26T13:22:57.257Z</time></trkpt><trkpt lat="39.9301874" lon="20.2875606"><ele>237.0</ele><time>2026-04-26T13:22:58.257Z</time></trkpt><trkpt lat="39.930097" lon="20.287839"><ele>237.0</ele><time>2026-04-26T13:22:59.259Z</time></trkpt><trkpt lat="39.9300058" lon="20.2881167"><ele>238.0</ele><time>2026-04-26T13:23:00.256Z</time></trkpt><trkpt lat="39.9299148" lon="20.288395"><ele>239.0</ele><time>2026-04-26T13:23:01.256Z</time></trkpt><trkpt lat="39.9298229" lon="20.2886713"><ele>239.5</ele><time>2026-04-26T13:23:02.258Z</time></trkpt><trkpt lat="39.9297308" lon="20.2889478"><ele>240.0</ele><time>2026-04-26T13:23:03.256Z</time></trkpt><trkpt lat="39.9296374" lon="20.2892232"><ele>240.0</ele><time>2026-04-26T13:23:04.256Z</time></trkpt><trkpt lat="39.9295479" lon="20.2894984"><ele>240.0</ele><time>2026-04-26T13:23:05.258Z</time></trkpt><trkpt lat="39.9294576" lon="20.2897808"><ele>240.5</ele><time>2026-04-26T13:23:06.258Z</time></trkpt><trkpt lat="39.9293666" lon="20.2900679"><ele>241.0</ele><time>2026-04-26T13:23:07.259Z</time></trkpt><trkpt lat="39.9292735" lon="20.2903579"><ele>239.5</ele><time>2026-04-26T13:23:08.259Z</time></trkpt><trkpt lat="39.9291808" lon="20.2906499"><ele>238.0</ele><time>2026-04-26T13:23:09.256Z</time></trkpt><trkpt lat="39.9290852" lon="20.2909457"><ele>238.0</ele><time>2026-04-26T13:23:10.257Z</time></trkpt><trkpt lat="39.928991" lon="20.2912424"><ele>238.0</ele><time>2026-04-26T13:23:11.26Z</time></trkpt><trkpt lat="39.9288929" lon="20.2915409"><ele>239.0</ele><time>2026-04-26T13:23:12.258Z</time></trkpt><trkpt lat="39.9287966" lon="20.2918358"><ele>240.0</ele><time>2026-04-26T13:23:13.256Z</time></trkpt><trkpt lat="39.9286979" lon="20.2921334"><ele>240.0</ele><time>2026-04-26T13:23:14.253Z</time></trkpt><trkpt lat="39.9285996" lon="20.2924296"><ele>240.0</ele><time>2026-04-26T13:23:15.256Z</time></trkpt><trkpt lat="39.9285023" lon="20.2927241"><ele>240.0</ele><time>2026-04-26T13:23:16.254Z</time></trkpt><trkpt lat="39.9284041" lon="20.2930212"><ele>240.0</ele><time>2026-04-26T13:23:17.256Z</time></trkpt><trkpt lat="39.9283111" lon="20.293318"><ele>241.0</ele><time>2026-04-26T13:23:18.257Z</time></trkpt><trkpt lat="39.928216" lon="20.2936134"><ele>242.0</ele><time>2026-04-26T13:23:19.255Z</time></trkpt><trkpt lat="39.9281226" lon="20.2939076"><ele>242.0</ele><time>2026-04-26T13:23:20.259Z</time></trkpt><trkpt lat="39.9280282" lon="20.2942043"><ele>242.0</ele><time>2026-04-26T13:23:21.258Z</time></trkpt><trkpt lat="39.9279317" lon="20.2945013"><ele>242.5</ele><time>2026-04-26T13:23:22.257Z</time></trkpt><trkpt lat="39.9278339" lon="20.2948003"><ele>243.0</ele><time>2026-04-26T13:23:23.256Z</time></trkpt><trkpt lat="39.9277372" lon="20.2950958"><ele>243.0</ele><time>2026-04-26T13:23:24.255Z</time></trkpt><trkpt lat="39.9276428" lon="20.2953876"><ele>243.0</ele><time>2026-04-26T13:23:25.256Z</time></trkpt><trkpt lat="39.9275425" lon="20.2956819"><ele>244.0</ele><time>2026-04-26T13:23:26.256Z</time></trkpt><trkpt lat="39.9274434" lon="20.2959783"><ele>245.0</ele><time>2026-04-26T13:23:27.256Z</time></trkpt><trkpt lat="39.9273462" lon="20.2962755"><ele>244.5</ele><time>2026-04-26T13:23:28.255Z</time></trkpt><trkpt lat="39.9272511" lon="20.296573"><ele>244.0</ele><time>2026-04-26T13:23:29.255Z</time></trkpt><trkpt lat="39.927157" lon="20.2968707"><ele>244.0</ele><time>2026-04-26T13:23:30.256Z</time></trkpt><trkpt lat="39.9270638" lon="20.2971692"><ele>244.0</ele><time>2026-04-26T13:23:31.256Z</time></trkpt><trkpt lat="39.9269701" lon="20.2974629"><ele>243.5</ele><time>2026-04-26T13:23:32.258Z</time></trkpt><trkpt lat="39.9268757" lon="20.2977577"><ele>243.0</ele><time>2026-04-26T13:23:33.257Z</time></trkpt><trkpt lat="39.9267803" lon="20.2980525"><ele>243.0</ele><time>2026-04-26T13:23:34.256Z</time></trkpt><trkpt lat="39.9266849" lon="20.2983485"><ele>243.0</ele><time>2026-04-26T13:23:35.257Z</time></trkpt><trkpt lat="39.9265873" lon="20.2986427"><ele>243.5</ele><time>2026-04-26T13:23:36.257Z</time></trkpt><trkpt lat="39.9264909" lon="20.2989368"><ele>244.0</ele><time>2026-04-26T13:23:37.255Z</time></trkpt><trkpt lat="39.9263964" lon="20.2992315"><ele>244.0</ele><time>2026-04-26T13:23:38.257Z</time></trkpt><trkpt lat="39.9263029" lon="20.2995224"><ele>244.0</ele><time>2026-04-26T13:23:39.257Z</time></trkpt><trkpt lat="39.9262101" lon="20.2998118"><ele>244.5</ele><time>2026-04-26T13:23:40.255Z</time></trkpt><trkpt lat="39.9261179" lon="20.3000952"><ele>245.0</ele><time>2026-04-26T13:23:41.258Z</time></trkpt><trkpt lat="39.9260272" lon="20.3003783"><ele>245.0</ele><time>2026-04-26T13:23:42.256Z</time></trkpt><trkpt lat="39.9259386" lon="20.3006567"><ele>245.0</ele><time>2026-04-26T13:23:43.256Z</time></trkpt><trkpt lat="39.9258524" lon="20.3009341"><ele>245.5</ele><time>2026-04-26T13:23:44.252Z</time></trkpt><trkpt lat="39.925763" lon="20.301209"><ele>246.0</ele><time>2026-04-26T13:23:45.256Z</time></trkpt><trkpt lat="39.9256719" lon="20.3014813"><ele>246.0</ele><time>2026-04-26T13:23:46.257Z</time></trkpt><trkpt lat="39.9255821" lon="20.3017548"><ele>246.0</ele><time>2026-04-26T13:23:47.255Z</time></trkpt><trkpt lat="39.9254941" lon="20.3020316"><ele>246.0</ele><time>2026-04-26T13:23:48.256Z</time></trkpt><trkpt lat="39.9254072" lon="20.3023101"><ele>246.0</ele><time>2026-04-26T13:23:49.256Z</time></trkpt><trkpt lat="39.9253171" lon="20.3025903"><ele>246.0</ele><time>2026-04-26T13:23:50.256Z</time></trkpt><trkpt lat="39.9252247" lon="20.3028694"><ele>246.0</ele><time>2026-04-26T13:23:51.256Z</time></trkpt><trkpt lat="39.9251311" lon="20.3031524"><ele>248.0</ele><time>2026-04-26T13:23:52.255Z</time></trkpt><trkpt lat="39.9250371" lon="20.3034432"><ele>250.0</ele><time>2026-04-26T13:23:53.256Z</time></trkpt><trkpt lat="39.9249428" lon="20.303743"><ele>250.0</ele><time>2026-04-26T13:23:54.256Z</time></trkpt><trkpt lat="39.9248449" lon="20.3040458"><ele>250.0</ele><time>2026-04-26T13:23:55.255Z</time></trkpt><trkpt lat="39.9247405" lon="20.304357"><ele>250.0</ele><time>2026-04-26T13:23:56.26Z</time></trkpt><trkpt lat="39.9246314" lon="20.3046811"><ele>250.0</ele><time>2026-04-26T13:23:57.256Z</time></trkpt><trkpt lat="39.9245203" lon="20.3050212"><ele>250.0</ele><time>2026-04-26T13:23:58.255Z</time></trkpt><trkpt lat="39.9244067" lon="20.3053762"><ele>250.0</ele><time>2026-04-26T13:23:59.256Z</time></trkpt><trkpt lat="39.9242938" lon="20.3057434"><ele>249.5</ele><time>2026-04-26T13:24:00.257Z</time></trkpt><trkpt lat="39.9241777" lon="20.3061219"><ele>249.0</ele><time>2026-04-26T13:24:01.256Z</time></trkpt><trkpt lat="39.9240549" lon="20.3065115"><ele>249.0</ele><time>2026-04-26T13:24:02.257Z</time></trkpt><trkpt lat="39.9239267" lon="20.3069121"><ele>249.0</ele><time>2026-04-26T13:24:03.256Z</time></trkpt><trkpt lat="39.9237954" lon="20.3073179"><ele>249.5</ele><time>2026-04-26T13:24:04.255Z</time></trkpt><trkpt lat="39.9236606" lon="20.3077323"><ele>250.0</ele><time>2026-04-26T13:24:05.259Z</time></trkpt><trkpt lat="39.9235239" lon="20.3081337"><ele>250.5</ele><time>2026-04-26T13:24:06.257Z</time></trkpt><trkpt lat="39.9233897" lon="20.3085219"><ele>251.0</ele><time>2026-04-26T13:24:07.256Z</time></trkpt><trkpt lat="39.9232659" lon="20.3088907"><ele>251.0</ele><time>2026-04-26T13:24:08.258Z</time></trkpt><trkpt lat="39.9231493" lon="20.3092433"><ele>251.0</ele><time>2026-04-26T13:24:09.256Z</time></trkpt><trkpt lat="39.9230366" lon="20.3095847"><ele>253.0</ele><time>2026-04-26T13:24:10.256Z</time></trkpt><trkpt lat="39.9229288" lon="20.3099151"><ele>255.0</ele><time>2026-04-26T13:24:11.258Z</time></trkpt><trkpt lat="39.9228244" lon="20.3102334"><ele>255.0</ele><time>2026-04-26T13:24:12.256Z</time></trkpt><trkpt lat="39.9227224" lon="20.3105488"><ele>255.0</ele><time>2026-04-26T13:24:13.255Z</time></trkpt><trkpt lat="39.92262" lon="20.3108622"><ele>254.5</ele><time>2026-04-26T13:24:14.256Z</time></trkpt><trkpt lat="39.9225167" lon="20.3111732"><ele>254.0</ele><time>2026-04-26T13:24:15.256Z</time></trkpt><trkpt lat="39.9224161" lon="20.3114811"><ele>254.0</ele><time>2026-04-26T13:24:16.256Z</time></trkpt><trkpt lat="39.9223139" lon="20.3117914"><ele>254.0</ele><time>2026-04-26T13:24:17.256Z</time></trkpt><trkpt lat="39.9222137" lon="20.3121029"><ele>255.0</ele><time>2026-04-26T13:24:18.257Z</time></trkpt><trkpt lat="39.9221132" lon="20.3124141"><ele>256.0</ele><time>2026-04-26T13:24:19.255Z</time></trkpt><trkpt lat="39.922016" lon="20.3127263"><ele>256.0</ele><time>2026-04-26T13:24:20.257Z</time></trkpt><trkpt lat="39.9219134" lon="20.3130391"><ele>256.0</ele><time>2026-04-26T13:24:21.26Z</time></trkpt><trkpt lat="39.9218117" lon="20.3133504"><ele>256.0</ele><time>2026-04-26T13:24:22.256Z</time></trkpt><trkpt lat="39.9217064" lon="20.3136642"><ele>256.0</ele><time>2026-04-26T13:24:23.256Z</time></trkpt><trkpt lat="39.9215992" lon="20.313981"><ele>255.0</ele><time>2026-04-26T13:24:24.255Z</time></trkpt><trkpt lat="39.9214964" lon="20.3143006"><ele>254.0</ele><time>2026-04-26T13:24:25.255Z</time></trkpt><trkpt lat="39.9213934" lon="20.3146224"><ele>254.5</ele><time>2026-04-26T13:24:26.257Z</time></trkpt><trkpt lat="39.9212913" lon="20.3149475"><ele>255.0</ele><time>2026-04-26T13:24:27.255Z</time></trkpt><trkpt lat="39.9211887" lon="20.3152715"><ele>256.5</ele><time>2026-04-26T13:24:28.256Z</time></trkpt><trkpt lat="39.9210827" lon="20.3155966"><ele>258.0</ele><time>2026-04-26T13:24:29.256Z</time></trkpt><trkpt lat="39.920976" lon="20.3159209"><ele>257.5</ele><time>2026-04-26T13:24:30.258Z</time></trkpt><trkpt lat="39.9208662" lon="20.3162461"><ele>257.0</ele><time>2026-04-26T13:24:31.255Z</time></trkpt><trkpt lat="39.9207618" lon="20.3165728"><ele>257.0</ele><time>2026-04-26T13:24:32.259Z</time></trkpt><trkpt lat="39.9206531" lon="20.3169031"><ele>257.0</ele><time>2026-04-26T13:24:33.256Z</time></trkpt><trkpt lat="39.9205436" lon="20.3172383"><ele>257.0</ele><time>2026-04-26T13:24:34.255Z</time></trkpt><trkpt lat="39.9204358" lon="20.3175761"><ele>257.0</ele><time>2026-04-26T13:24:35.256Z</time></trkpt><trkpt lat="39.9203303" lon="20.317914"><ele>257.5</ele><time>2026-04-26T13:24:36.256Z</time></trkpt><trkpt lat="39.9202261" lon="20.3182473"><ele>258.0</ele><time>2026-04-26T13:24:37.256Z</time></trkpt><trkpt lat="39.9201183" lon="20.3185809"><ele>258.5</ele><time>2026-04-26T13:24:38.257Z</time></trkpt><trkpt lat="39.9200098" lon="20.3189123"><ele>259.0</ele><time>2026-04-26T13:24:39.256Z</time></trkpt><trkpt lat="39.9199053" lon="20.3192401"><ele>259.0</ele><time>2026-04-26T13:24:40.257Z</time></trkpt><trkpt lat="39.9198002" lon="20.3195646"><ele>259.0</ele><time>2026-04-26T13:24:41.255Z</time></trkpt><trkpt lat="39.919696" lon="20.3198855"><ele>259.5</ele><time>2026-04-26T13:24:42.259Z</time></trkpt><trkpt lat="39.9195903" lon="20.3202069"><ele>260.0</ele><time>2026-04-26T13:24:43.257Z</time></trkpt><trkpt lat="39.9194865" lon="20.3205216"><ele>260.5</ele><time>2026-04-26T13:24:44.255Z</time></trkpt><trkpt lat="39.9193833" lon="20.3208345"><ele>261.0</ele><time>2026-04-26T13:24:45.256Z</time></trkpt><trkpt lat="39.9192791" lon="20.3211458"><ele>261.0</ele><time>2026-04-26T13:24:46.256Z</time></trkpt><trkpt lat="39.9191777" lon="20.3214534"><ele>261.0</ele><time>2026-04-26T13:24:47.258Z</time></trkpt><trkpt lat="39.9190786" lon="20.3217616"><ele>261.0</ele><time>2026-04-26T13:24:48.256Z</time></trkpt><trkpt lat="39.9189766" lon="20.322063"><ele>261.0</ele><time>2026-04-26T13:24:49.256Z</time></trkpt><trkpt lat="39.9188771" lon="20.3223686"><ele>261.0</ele><time>2026-04-26T13:24:50.256Z</time></trkpt><trkpt lat="39.9187785" lon="20.3226704"><ele>261.0</ele><time>2026-04-26T13:24:51.257Z</time></trkpt><trkpt lat="39.9186798" lon="20.3229836"><ele>261.5</ele><time>2026-04-26T13:24:52.256Z</time></trkpt><trkpt lat="39.9185812" lon="20.3232925"><ele>262.0</ele><time>2026-04-26T13:24:53.257Z</time></trkpt><trkpt lat="39.9184766" lon="20.3235994"><ele>262.5</ele><time>2026-04-26T13:24:54.257Z</time></trkpt><trkpt lat="39.9183626" lon="20.3239037"><ele>263.0</ele><time>2026-04-26T13:24:55.256Z</time></trkpt><trkpt lat="39.9182379" lon="20.3242062"><ele>263.0</ele><time>2026-04-26T13:24:56.257Z</time></trkpt><trkpt lat="39.918109" lon="20.3245021"><ele>263.0</ele><time>2026-04-26T13:24:57.255Z</time></trkpt><trkpt lat="39.91797" lon="20.3247984"><ele>263.0</ele><time>2026-04-26T13:24:58.256Z</time></trkpt><trkpt lat="39.9178192" lon="20.3250904"><ele>263.0</ele><time>2026-04-26T13:24:59.258Z</time></trkpt><trkpt lat="39.9176536" lon="20.3253775"><ele>263.5</ele><time>2026-04-26T13:25:00.258Z</time></trkpt><trkpt lat="39.9174849" lon="20.3256546"><ele>264.0</ele><time>2026-04-26T13:25:01.256Z</time></trkpt><trkpt lat="39.9173074" lon="20.3259191"><ele>264.0</ele><time>2026-04-26T13:25:02.258Z</time></trkpt><trkpt lat="39.9171223" lon="20.3261719"><ele>264.0</ele><time>2026-04-26T13:25:03.255Z</time></trkpt><trkpt lat="39.9169317" lon="20.3264119"><ele>264.5</ele><time>2026-04-26T13:25:04.255Z</time></trkpt><trkpt lat="39.9167336" lon="20.3266413"><ele>265.0</ele><time>2026-04-26T13:25:05.257Z</time></trkpt><trkpt lat="39.9165282" lon="20.3268602"><ele>265.0</ele><time>2026-04-26T13:25:06.257Z</time></trkpt><trkpt lat="39.9163187" lon="20.3270714"><ele>265.0</ele><time>2026-04-26T13:25:07.255Z</time></trkpt><trkpt lat="39.9161045" lon="20.3272755"><ele>266.0</ele><time>2026-04-26T13:25:08.255Z</time></trkpt><trkpt lat="39.9158833" lon="20.3274649"><ele>267.0</ele><time>2026-04-26T13:25:09.259Z</time></trkpt><trkpt lat="39.9156558" lon="20.3276426"><ele>267.0</ele><time>2026-04-26T13:25:10.256Z</time></trkpt><trkpt lat="39.9154219" lon="20.3278182"><ele>267.0</ele><time>2026-04-26T13:25:11.258Z</time></trkpt><trkpt lat="39.9151817" lon="20.3279899"><ele>267.0</ele><time>2026-04-26T13:25:12.258Z</time></trkpt><trkpt lat="39.9149399" lon="20.3281561"><ele>267.0</ele><time>2026-04-26T13:25:13.257Z</time></trkpt><trkpt lat="39.9146987" lon="20.3283218"><ele>267.0</ele><time>2026-04-26T13:25:14.257Z</time></trkpt><trkpt lat="39.9144559" lon="20.3284913"><ele>267.0</ele><time>2026-04-26T13:25:15.256Z</time></trkpt><trkpt lat="39.9142146" lon="20.328659"><ele>267.0</ele><time>2026-04-26T13:25:16.256Z</time></trkpt><trkpt lat="39.9139742" lon="20.328826"><ele>267.0</ele><time>2026-04-26T13:25:17.256Z</time></trkpt><trkpt lat="39.9137353" lon="20.328989"><ele>267.5</ele><time>2026-04-26T13:25:18.257Z</time></trkpt><trkpt lat="39.9134979" lon="20.3291527"><ele>268.0</ele><time>2026-04-26T13:25:19.258Z</time></trkpt><trkpt lat="39.9132653" lon="20.3293139"><ele>268.5</ele><time>2026-04-26T13:25:20.257Z</time></trkpt><trkpt lat="39.9130334" lon="20.3294713"><ele>269.0</ele><time>2026-04-26T13:25:21.257Z</time></trkpt><trkpt lat="39.912807" lon="20.3296276"><ele>269.0</ele><time>2026-04-26T13:25:22.256Z</time></trkpt><trkpt lat="39.9125791" lon="20.32978"><ele>269.0</ele><time>2026-04-26T13:25:23.255Z</time></trkpt><trkpt lat="39.9123534" lon="20.3299337"><ele>269.0</ele><time>2026-04-26T13:25:24.255Z</time></trkpt><trkpt lat="39.9121296" lon="20.3300885"><ele>269.0</ele><time>2026-04-26T13:25:25.26Z</time></trkpt><trkpt lat="39.9119089" lon="20.3302422"><ele>270.5</ele><time>2026-04-26T13:25:26.257Z</time></trkpt><trkpt lat="39.9116877" lon="20.3303928"><ele>272.0</ele><time>2026-04-26T13:25:27.256Z</time></trkpt><trkpt lat="39.9114671" lon="20.3305438"><ele>271.5</ele><time>2026-04-26T13:25:28.255Z</time></trkpt><trkpt lat="39.9112476" lon="20.330699"><ele>271.0</ele><time>2026-04-26T13:25:29.255Z</time></trkpt><trkpt lat="39.9110275" lon="20.3308502"><ele>273.0</ele><time>2026-04-26T13:25:30.257Z</time></trkpt><trkpt lat="39.9108027" lon="20.3309984"><ele>275.0</ele><time>2026-04-26T13:25:31.257Z</time></trkpt><trkpt lat="39.910583" lon="20.3311493"><ele>275.0</ele><time>2026-04-26T13:25:32.256Z</time></trkpt><trkpt lat="39.9103635" lon="20.3313008"><ele>275.0</ele><time>2026-04-26T13:25:33.255Z</time></trkpt><trkpt lat="39.9101415" lon="20.3314541"><ele>275.0</ele><time>2026-04-26T13:25:34.254Z</time></trkpt><trkpt lat="39.9099218" lon="20.3316086"><ele>275.0</ele><time>2026-04-26T13:25:35.258Z</time></trkpt><trkpt lat="39.909704" lon="20.3317611"><ele>275.0</ele><time>2026-04-26T13:25:36.258Z</time></trkpt><trkpt lat="39.9094864" lon="20.3319139"><ele>275.0</ele><time>2026-04-26T13:25:37.257Z</time></trkpt><trkpt lat="39.9092698" lon="20.3320688"><ele>275.0</ele><time>2026-04-26T13:25:38.258Z</time></trkpt><trkpt lat="39.9090521" lon="20.3322322"><ele>275.0</ele><time>2026-04-26T13:25:39.257Z</time></trkpt><trkpt lat="39.9088401" lon="20.3324104"><ele>275.0</ele><time>2026-04-26T13:25:40.26Z</time></trkpt><trkpt lat="39.9086354" lon="20.3325993"><ele>275.0</ele><time>2026-04-26T13:25:41.257Z</time></trkpt><trkpt lat="39.9084351" lon="20.3327973"><ele>275.5</ele><time>2026-04-26T13:25:42.256Z</time></trkpt><trkpt lat="39.9082426" lon="20.3330102"><ele>276.0</ele><time>2026-04-26T13:25:43.256Z</time></trkpt><trkpt lat="39.908055" lon="20.3332334"><ele>276.0</ele><time>2026-04-26T13:25:44.255Z</time></trkpt><trkpt lat="39.9078756" lon="20.3334703"><ele>276.0</ele><time>2026-04-26T13:25:45.257Z</time></trkpt><trkpt lat="39.907703" lon="20.3337213"><ele>277.5</ele><time>2026-04-26T13:25:46.259Z</time></trkpt><trkpt lat="39.907542" lon="20.3339823"><ele>279.0</ele><time>2026-04-26T13:25:47.255Z</time></trkpt><trkpt lat="39.9073901" lon="20.3342521"><ele>279.0</ele><time>2026-04-26T13:25:48.259Z</time></trkpt><trkpt lat="39.9072484" lon="20.3345315"><ele>279.0</ele><time>2026-04-26T13:25:49.255Z</time></trkpt><trkpt lat="39.9071167" lon="20.3348196"><ele>279.0</ele><time>2026-04-26T13:25:50.257Z</time></trkpt><trkpt lat="39.9069971" lon="20.3351128"><ele>279.0</ele><time>2026-04-26T13:25:51.258Z</time></trkpt><trkpt lat="39.9068896" lon="20.3354126"><ele>279.5</ele><time>2026-04-26T13:25:52.257Z</time></trkpt><trkpt lat="39.9067934" lon="20.3357177"><ele>280.0</ele><time>2026-04-26T13:25:53.257Z</time></trkpt><trkpt lat="39.9067063" lon="20.3360244"><ele>280.0</ele><time>2026-04-26T13:25:54.254Z</time></trkpt><trkpt lat="39.9066332" lon="20.3363299"><ele>280.0</ele><time>2026-04-26T13:25:55.256Z</time></trkpt><trkpt lat="39.9065714" lon="20.3366332"><ele>281.0</ele><time>2026-04-26T13:25:56.255Z</time></trkpt><trkpt lat="39.9065236" lon="20.3369347"><ele>282.0</ele><time>2026-04-26T13:25:57.255Z</time></trkpt><trkpt lat="39.9064867" lon="20.3372355"><ele>282.0</ele><time>2026-04-26T13:25:58.257Z</time></trkpt><trkpt lat="39.9064623" lon="20.3375406"><ele>282.0</ele><time>2026-04-26T13:25:59.26Z</time></trkpt><trkpt lat="39.9064492" lon="20.3378445"><ele>282.5</ele><time>2026-04-26T13:26:00.256Z</time></trkpt><trkpt lat="39.9064438" lon="20.3381574"><ele>283.0</ele><time>2026-04-26T13:26:01.257Z</time></trkpt><trkpt lat="39.9064443" lon="20.3384722"><ele>283.0</ele><time>2026-04-26T13:26:02.256Z</time></trkpt><trkpt lat="39.9064546" lon="20.338784"><ele>283.0</ele><time>2026-04-26T13:26:03.262Z</time></trkpt><trkpt lat="39.9064768" lon="20.3390961"><ele>283.0</ele><time>2026-04-26T13:26:04.258Z</time></trkpt><trkpt lat="39.9065121" lon="20.3394072"><ele>283.0</ele><time>2026-04-26T13:26:05.258Z</time></trkpt><trkpt lat="39.9065603" lon="20.339712"><ele>283.0</ele><time>2026-04-26T13:26:06.259Z</time></trkpt><trkpt lat="39.9066152" lon="20.3400137"><ele>283.0</ele><time>2026-04-26T13:26:07.258Z</time></trkpt><trkpt lat="39.906676" lon="20.3403119"><ele>282.66666666666663</ele><time>2026-04-26T13:26:08.259Z</time></trkpt><trkpt lat="39.906738" lon="20.3405996"><ele>282.3333333333333</ele><time>2026-04-26T13:26:09.257Z</time></trkpt><trkpt lat="39.9068016" lon="20.340873"><ele>282.0</ele><time>2026-04-26T13:26:10.257Z</time></trkpt><trkpt lat="39.9068656" lon="20.3411329"><ele>281.6666666666667</ele><time>2026-04-26T13:26:11.255Z</time></trkpt><trkpt lat="39.9069311" lon="20.3413899"><ele>281.33333333333337</ele><time>2026-04-26T13:26:12.259Z</time></trkpt><trkpt lat="39.9069976" lon="20.3416598"><ele>281.0</ele><time>2026-04-26T13:26:13.256Z</time></trkpt><trkpt lat="39.9070677" lon="20.3419349"><ele>281.5</ele><time>2026-04-26T13:26:14.257Z</time></trkpt><trkpt lat="39.9071397" lon="20.3422205"><ele>282.0</ele><time>2026-04-26T13:26:15.258Z</time></trkpt><trkpt lat="39.9072137" lon="20.3425133"><ele>282.0</ele><time>2026-04-26T13:26:16.255Z</time></trkpt><trkpt lat="39.9072898" lon="20.3428173"><ele>282.0</ele><time>2026-04-26T13:26:17.255Z</time></trkpt><trkpt lat="39.907361" lon="20.3431313"><ele>282.5</ele><time>2026-04-26T13:26:18.255Z</time></trkpt><trkpt lat="39.9074311" lon="20.3434486"><ele>283.0</ele><time>2026-04-26T13:26:19.261Z</time></trkpt><trkpt lat="39.9075016" lon="20.3437642"><ele>283.5</ele><time>2026-04-26T13:26:20.256Z</time></trkpt><trkpt lat="39.9075786" lon="20.344079"><ele>284.0</ele><time>2026-04-26T13:26:21.258Z</time></trkpt><trkpt lat="39.9076572" lon="20.344393"><ele>284.0</ele><time>2026-04-26T13:26:22.26Z</time></trkpt><trkpt lat="39.9077401" lon="20.3447056"><ele>284.0</ele><time>2026-04-26T13:26:23.258Z</time></trkpt><trkpt lat="39.9078188" lon="20.3450186"><ele>284.5</ele><time>2026-04-26T13:26:24.255Z</time></trkpt><trkpt lat="39.9078963" lon="20.3453307"><ele>285.0</ele><time>2026-04-26T13:26:25.255Z</time></trkpt><trkpt lat="39.9079705" lon="20.3456435"><ele>285.5</ele><time>2026-04-26T13:26:26.256Z</time></trkpt><trkpt lat="39.9080414" lon="20.3459529"><ele>286.0</ele><time>2026-04-26T13:26:27.258Z</time></trkpt><trkpt lat="39.9081128" lon="20.3462578"><ele>286.5</ele><time>2026-04-26T13:26:28.258Z</time></trkpt><trkpt lat="39.9081858" lon="20.3465612"><ele>287.0</ele><time>2026-04-26T13:26:29.256Z</time></trkpt><trkpt lat="39.9082611" lon="20.3468599"><ele>287.0</ele><time>2026-04-26T13:26:30.256Z</time></trkpt><trkpt lat="39.9083369" lon="20.3471564"><ele>287.0</ele><time>2026-04-26T13:26:31.256Z</time></trkpt><trkpt lat="39.9084139" lon="20.3474509"><ele>288.5</ele><time>2026-04-26T13:26:32.259Z</time></trkpt><trkpt lat="39.9084908" lon="20.3477464"><ele>290.0</ele><time>2026-04-26T13:26:33.256Z</time></trkpt><trkpt lat="39.9085639" lon="20.348043"><ele>290.5</ele><time>2026-04-26T13:26:34.257Z</time></trkpt><trkpt lat="39.9086371" lon="20.34834"><ele>291.0</ele><time>2026-04-26T13:26:35.257Z</time></trkpt><trkpt lat="39.9087075" lon="20.3486367"><ele>291.0</ele><time>2026-04-26T13:26:36.256Z</time></trkpt><trkpt lat="39.908782" lon="20.3489338"><ele>291.0</ele><time>2026-04-26T13:26:37.257Z</time></trkpt><trkpt lat="39.9088562" lon="20.3492311"><ele>291.0</ele><time>2026-04-26T13:26:38.256Z</time></trkpt><trkpt lat="39.9089343" lon="20.3495283"><ele>291.0</ele><time>2026-04-26T13:26:39.259Z</time></trkpt><trkpt lat="39.909015" lon="20.3498237"><ele>291.5</ele><time>2026-04-26T13:26:40.256Z</time></trkpt><trkpt lat="39.9090996" lon="20.3501177"><ele>292.0</ele><time>2026-04-26T13:26:41.256Z</time></trkpt><trkpt lat="39.909186" lon="20.350404"><ele>294.5</ele><time>2026-04-26T13:26:42.255Z</time></trkpt><trkpt lat="39.9092715" lon="20.3506792"><ele>297.0</ele><time>2026-04-26T13:26:43.254Z</time></trkpt><trkpt lat="39.9093541" lon="20.3509494"><ele>297.0</ele><time>2026-04-26T13:26:44.258Z</time></trkpt><trkpt lat="39.9094319" lon="20.3512044"><ele>297.0</ele><time>2026-04-26T13:26:45.253Z</time></trkpt><trkpt lat="39.9095045" lon="20.3514441"><ele>297.0</ele><time>2026-04-26T13:26:46.255Z</time></trkpt><trkpt lat="39.9095764" lon="20.3516745"><ele>297.3333333333333</ele><time>2026-04-26T13:26:47.254Z</time></trkpt><trkpt lat="39.9096503" lon="20.3518952"><ele>297.66666666666663</ele><time>2026-04-26T13:26:48.255Z</time></trkpt><trkpt lat="39.9097337" lon="20.3521073"><ele>298.0</ele><time>2026-04-26T13:26:49.254Z</time></trkpt><trkpt lat="39.9098379" lon="20.3523134"><ele>299.3333333333333</ele><time>2026-04-26T13:26:50.254Z</time></trkpt><trkpt lat="39.9099588" lon="20.3525068"><ele>300.6666666666667</ele><time>2026-04-26T13:26:51.254Z</time></trkpt><trkpt lat="39.9100959" lon="20.3526803"><ele>302.0</ele><time>2026-04-26T13:26:52.254Z</time></trkpt><trkpt lat="39.9102428" lon="20.352832"><ele>302.6666666666667</ele><time>2026-04-26T13:26:53.254Z</time></trkpt><trkpt lat="39.9104005" lon="20.3529626"><ele>303.3333333333333</ele><time>2026-04-26T13:26:54.255Z</time></trkpt><trkpt lat="39.9105711" lon="20.3530771"><ele>304.0</ele><time>2026-04-26T13:26:55.256Z</time></trkpt><trkpt lat="39.9107478" lon="20.3531678"><ele>309.0</ele><time>2026-04-26T13:26:56.255Z</time></trkpt><trkpt lat="39.9109274" lon="20.3532317"><ele>314.0</ele><time>2026-04-26T13:26:57.256Z</time></trkpt><trkpt lat="39.9111126" lon="20.3532716"><ele>319.0</ele><time>2026-04-26T13:26:58.257Z</time></trkpt><trkpt lat="39.911304" lon="20.3532824"><ele>319.0</ele><time>2026-04-26T13:26:59.258Z</time></trkpt><trkpt lat="39.9114901" lon="20.3532722"><ele>319.0</ele><time>2026-04-26T13:27:00.259Z</time></trkpt><trkpt lat="39.9116633" lon="20.3532441"><ele>319.0</ele><time>2026-04-26T13:27:01.255Z</time></trkpt><trkpt lat="39.9118327" lon="20.3532058"><ele>322.0</ele><time>2026-04-26T13:27:02.257Z</time></trkpt><trkpt lat="39.9120003" lon="20.353158"><ele>325.0</ele><time>2026-04-26T13:27:03.257Z</time></trkpt><trkpt lat="39.9121588" lon="20.3531126"><ele>328.0</ele><time>2026-04-26T13:27:04.254Z</time></trkpt><trkpt lat="39.912302" lon="20.353075"><ele>328.0</ele><time>2026-04-26T13:27:05.257Z</time></trkpt><trkpt lat="39.9124328" lon="20.3530553"><ele>328.0</ele><time>2026-04-26T13:27:06.258Z</time></trkpt><trkpt lat="39.9125535" lon="20.3530747"><ele>328.0</ele><time>2026-04-26T13:27:07.256Z</time></trkpt><trkpt lat="39.912673" lon="20.3531372"><ele>328.0</ele><time>2026-04-26T13:27:08.255Z</time></trkpt><trkpt lat="39.9127703" lon="20.3532251"><ele>329.0</ele><time>2026-04-26T13:27:09.256Z</time></trkpt><trkpt lat="39.9128352" lon="20.3533241"><ele>330.0</ele><time>2026-04-26T13:27:10.258Z</time></trkpt><trkpt lat="39.9128737" lon="20.3534349"><ele>331.0</ele><time>2026-04-26T13:27:11.257Z</time></trkpt><trkpt lat="39.9128766" lon="20.3535603"><ele>332.0</ele><time>2026-04-26T13:27:12.254Z</time></trkpt><trkpt lat="39.9128588" lon="20.353692"><ele>333.0</ele><time>2026-04-26T13:27:13.256Z</time></trkpt><trkpt lat="39.9128295" lon="20.3538273"><ele>333.2</ele><time>2026-04-26T13:27:14.256Z</time></trkpt><trkpt lat="39.9127944" lon="20.3539627"><ele>333.4</ele><time>2026-04-26T13:27:15.257Z</time></trkpt><trkpt lat="39.9127567" lon="20.3541005"><ele>333.59999999999997</ele><time>2026-04-26T13:27:16.256Z</time></trkpt><trkpt lat="39.9127157" lon="20.3542366"><ele>333.79999999999995</ele><time>2026-04-26T13:27:17.257Z</time></trkpt><trkpt lat="39.9126789" lon="20.3543627"><ele>334.0</ele><time>2026-04-26T13:27:18.256Z</time></trkpt><trkpt lat="39.912639" lon="20.3544902"><ele>334.0</ele><time>2026-04-26T13:27:19.258Z</time></trkpt><trkpt lat="39.9126003" lon="20.3546194"><ele>334.0</ele><time>2026-04-26T13:27:20.256Z</time></trkpt><trkpt lat="39.9125647" lon="20.3547511"><ele>334.0</ele><time>2026-04-26T13:27:21.254Z</time></trkpt><trkpt lat="39.912531" lon="20.3548822"><ele>334.0</ele><time>2026-04-26T13:27:22.255Z</time></trkpt><trkpt lat="39.9124997" lon="20.3550161"><ele>334.0</ele><time>2026-04-26T13:27:23.256Z</time></trkpt><trkpt lat="39.9124761" lon="20.3551515"><ele>332.6</ele><time>2026-04-26T13:27:24.258Z</time></trkpt><trkpt lat="39.9124566" lon="20.3552851"><ele>331.2</ele><time>2026-04-26T13:27:25.256Z</time></trkpt><trkpt lat="39.912444" lon="20.3554156"><ele>329.8</ele><time>2026-04-26T13:27:26.256Z</time></trkpt><trkpt lat="39.9124417" lon="20.3555348"><ele>328.40000000000003</ele><time>2026-04-26T13:27:27.254Z</time></trkpt><trkpt lat="39.9124407" lon="20.3556492"><ele>327.0</ele><time>2026-04-26T13:27:28.254Z</time></trkpt><trkpt lat="39.9124408" lon="20.35576"><ele>327.0</ele><time>2026-04-26T13:27:29.255Z</time></trkpt><trkpt lat="39.9124407" lon="20.3558681"><ele>327.0</ele><time>2026-04-26T13:27:30.255Z</time></trkpt><trkpt lat="39.912442" lon="20.3559715"><ele>327.0</ele><time>2026-04-26T13:27:31.258Z</time></trkpt><trkpt lat="39.9124453" lon="20.3560687"><ele>327.0</ele><time>2026-04-26T13:27:32.255Z</time></trkpt><trkpt lat="39.9124474" lon="20.3561574"><ele>327.0</ele><time>2026-04-26T13:27:33.256Z</time></trkpt><trkpt lat="39.9124451" lon="20.3562794"><ele>327.0</ele><time>2026-04-26T13:27:35.256Z</time></trkpt><trkpt lat="39.9124402" lon="20.3563735"><ele>327.0</ele><time>2026-04-26T13:27:37.256Z</time></trkpt><trkpt lat="39.9124399" lon="20.3564625"><ele>327.0</ele><time>2026-04-26T13:27:39.257Z</time></trkpt><trkpt lat="39.9124286" lon="20.3565489"><ele>327.0</ele><time>2026-04-26T13:27:41.256Z</time></trkpt><trkpt lat="39.9124024" lon="20.3566558"><ele>327.0</ele><time>2026-04-26T13:27:44.259Z</time></trkpt><trkpt lat="39.912381" lon="20.3567358"><ele>327.0</ele><time>2026-04-26T13:29:18.256Z</time></trkpt><trkpt lat="39.9123158" lon="20.3567885"><ele>327.0</ele><time>2026-04-26T13:31:18.255Z</time></trkpt><trkpt lat="39.9123103" lon="20.3568898"><ele>327.0</ele><time>2026-04-26T13:31:22.256Z</time></trkpt><trkpt lat="39.9123097" lon="20.3569799"><ele>327.0</ele><time>2026-04-26T13:31:24.252Z</time></trkpt><trkpt lat="39.9123108" lon="20.3570779"><ele>327.0</ele><time>2026-04-26T13:31:27.251Z</time></trkpt><trkpt lat="39.9122535" lon="20.3570397"><ele>327.0</ele><time>2026-04-26T13:32:48.757Z</time></trkpt><trkpt lat="39.9122389" lon="20.3572577"><ele>327.0</ele><time>2026-04-26T13:32:49.779Z</time></trkpt><trkpt lat="39.9123189" lon="20.3571306"><ele>327.0</ele><time>2026-04-26T13:32:57.243Z</time></trkpt><trkpt lat="39.9123293" lon="20.3572177"><ele>327.0</ele><time>2026-04-26T13:34:22.243Z</time></trkpt><trkpt lat="39.9123321" lon="20.3571337"><ele>327.0</ele><time>2026-04-26T13:36:25.242Z</time></trkpt><trkpt lat="39.9123026" lon="20.3572562"><ele>327.0</ele><time>2026-04-26T13:39:09.249Z</time></trkpt><trkpt lat="39.9122926" lon="20.3574032"><ele>327.0</ele><time>2026-04-26T13:39:11.249Z</time></trkpt><trkpt lat="39.9122967" lon="20.3575554"><ele>327.0</ele><time>2026-04-26T13:39:13.25Z</time></trkpt><trkpt lat="39.9123054" lon="20.3577213"><ele>327.1428571428571</ele><time>2026-04-26T13:39:15.25Z</time></trkpt><trkpt lat="39.9123107" lon="20.3578065"><ele>327.2857142857143</ele><time>2026-04-26T13:39:16.249Z</time></trkpt><trkpt lat="39.91232" lon="20.3578995"><ele>327.42857142857144</ele><time>2026-04-26T13:39:17.25Z</time></trkpt><trkpt lat="39.9123263" lon="20.357996"><ele>327.57142857142856</ele><time>2026-04-26T13:39:18.249Z</time></trkpt><trkpt lat="39.9123342" lon="20.3580968"><ele>327.7142857142857</ele><time>2026-04-26T13:39:19.249Z</time></trkpt><trkpt lat="39.9123427" lon="20.3581913"><ele>327.85714285714283</ele><time>2026-04-26T13:39:20.249Z</time></trkpt><trkpt lat="39.9123506" lon="20.3582867"><ele>328.0</ele><time>2026-04-26T13:39:21.249Z</time></trkpt><trkpt lat="39.9123585" lon="20.3583828"><ele>328.0</ele><time>2026-04-26T13:39:22.25Z</time></trkpt><trkpt lat="39.9123616" lon="20.3584866"><ele>328.0</ele><time>2026-04-26T13:39:23.25Z</time></trkpt><trkpt lat="39.9123651" lon="20.3586004"><ele>328.0</ele><time>2026-04-26T13:39:24.25Z</time></trkpt><trkpt lat="39.9123723" lon="20.3587198"><ele>328.0</ele><time>2026-04-26T13:39:25.25Z</time></trkpt><trkpt lat="39.9123801" lon="20.3588388"><ele>328.0</ele><time>2026-04-26T13:39:26.249Z</time></trkpt><trkpt lat="39.9123827" lon="20.3589604"><ele>328.0</ele><time>2026-04-26T13:39:27.249Z</time></trkpt><trkpt lat="39.9123858" lon="20.3590849"><ele>327.4</ele><time>2026-04-26T13:39:28.25Z</time></trkpt><trkpt lat="39.9123867" lon="20.3592149"><ele>326.79999999999995</ele><time>2026-04-26T13:39:29.25Z</time></trkpt><trkpt lat="39.9123791" lon="20.3593448"><ele>326.2</ele><time>2026-04-26T13:39:30.25Z</time></trkpt><trkpt lat="39.912355" lon="20.3594684"><ele>325.6</ele><time>2026-04-26T13:39:31.249Z</time></trkpt><trkpt lat="39.9123102" lon="20.3595931"><ele>325.0</ele><time>2026-04-26T13:39:32.249Z</time></trkpt><trkpt lat="39.9122499" lon="20.3597058"><ele>323.6</ele><time>2026-04-26T13:39:33.249Z</time></trkpt><trkpt lat="39.9121874" lon="20.3597993"><ele>322.2</ele><time>2026-04-26T13:39:34.249Z</time></trkpt><trkpt lat="39.9121147" lon="20.3598804"><ele>320.8</ele><time>2026-04-26T13:39:35.249Z</time></trkpt><trkpt lat="39.9120486" lon="20.3599542"><ele>319.4</ele><time>2026-04-26T13:39:36.25Z</time></trkpt><trkpt lat="39.9119865" lon="20.3600336"><ele>318.0</ele><time>2026-04-26T13:39:37.25Z</time></trkpt><trkpt lat="39.9119301" lon="20.3601189"><ele>318.0</ele><time>2026-04-26T13:39:38.25Z</time></trkpt><trkpt lat="39.9118755" lon="20.3602068"><ele>318.0</ele><time>2026-04-26T13:39:39.25Z</time></trkpt><trkpt lat="39.9118281" lon="20.3602882"><ele>318.0</ele><time>2026-04-26T13:39:40.249Z</time></trkpt><trkpt lat="39.9117756" lon="20.3603646"><ele>318.0</ele><time>2026-04-26T13:39:41.249Z</time></trkpt><trkpt lat="39.9117261" lon="20.360442"><ele>318.0</ele><time>2026-04-26T13:39:42.25Z</time></trkpt><trkpt lat="39.9116751" lon="20.3605184"><ele>318.0</ele><time>2026-04-26T13:39:43.249Z</time></trkpt><trkpt lat="39.9116261" lon="20.3606035"><ele>317.1666666666667</ele><time>2026-04-26T13:39:44.25Z</time></trkpt><trkpt lat="39.9115806" lon="20.36069"><ele>316.3333333333333</ele><time>2026-04-26T13:39:45.249Z</time></trkpt><trkpt lat="39.9115391" lon="20.3607722"><ele>315.5</ele><time>2026-04-26T13:39:46.249Z</time></trkpt><trkpt lat="39.911501" lon="20.3608514"><ele>314.66666666666663</ele><time>2026-04-26T13:39:47.249Z</time></trkpt><trkpt lat="39.9114705" lon="20.3609244"><ele>313.8333333333333</ele><time>2026-04-26T13:39:48.25Z</time></trkpt><trkpt lat="39.9114322" lon="20.3609932"><ele>313.0</ele><time>2026-04-26T13:39:49.249Z</time></trkpt><trkpt lat="39.9113754" lon="20.3611127"><ele>313.0</ele><time>2026-04-26T13:39:51.249Z</time></trkpt><trkpt lat="39.9113351" lon="20.3612013"><ele>313.0</ele><time>2026-04-26T13:39:53.25Z</time></trkpt><trkpt lat="39.9112912" lon="20.3613109"><ele>313.0</ele><time>2026-04-26T13:39:55.249Z</time></trkpt><trkpt lat="39.9112653" lon="20.3613899"><ele>313.0</ele><time>2026-04-26T13:39:56.25Z</time></trkpt><trkpt lat="39.9112402" lon="20.3614701"><ele>313.0</ele><time>2026-04-26T13:39:57.25Z</time></trkpt><trkpt lat="39.9111995" lon="20.3616114"><ele>313.0</ele><time>2026-04-26T13:39:59.249Z</time></trkpt><trkpt lat="39.911169" lon="20.3617069"><ele>312.1428571428571</ele><time>2026-04-26T13:40:01.249Z</time></trkpt><trkpt lat="39.9111337" lon="20.3617837"><ele>311.2857142857143</ele><time>2026-04-26T13:40:15.25Z</time></trkpt><trkpt lat="39.9110987" lon="20.3618642"><ele>310.42857142857144</ele><time>2026-04-26T13:40:49.25Z</time></trkpt><trkpt lat="39.9110697" lon="20.3619557"><ele>309.57142857142856</ele><time>2026-04-26T13:40:52.249Z</time></trkpt><trkpt lat="39.911035" lon="20.3620315"><ele>308.7142857142857</ele><time>2026-04-26T13:40:55.249Z</time></trkpt><trkpt lat="39.9109998" lon="20.3621095"><ele>307.85714285714283</ele><time>2026-04-26T13:41:00.25Z</time></trkpt><trkpt lat="39.91098" lon="20.3622043"><ele>307.0</ele><time>2026-04-26T13:43:35.25Z</time></trkpt><trkpt lat="39.9109464" lon="20.3622795"><ele>307.66666666666663</ele><time>2026-04-26T13:43:49.239Z</time></trkpt><trkpt lat="39.9109024" lon="20.3623985"><ele>308.3333333333333</ele><time>2026-04-26T13:43:51.24Z</time></trkpt><trkpt lat="39.9108594" lon="20.3625045"><ele>309.0</ele><time>2026-04-26T13:43:53.239Z</time></trkpt><trkpt lat="39.9108388" lon="20.3625882"><ele>309.6666666666667</ele><time>2026-04-26T13:43:55.239Z</time></trkpt><trkpt lat="39.9108059" lon="20.3626686"><ele>310.33333333333337</ele><time>2026-04-26T13:43:57.24Z</time></trkpt><trkpt lat="39.9107571" lon="20.3627827"><ele>311.0</ele><time>2026-04-26T13:43:59.24Z</time></trkpt><trkpt lat="39.9107153" lon="20.3629036"><ele>309.8</ele><time>2026-04-26T13:44:01.24Z</time></trkpt><trkpt lat="39.9106969" lon="20.3630738"><ele>308.6</ele><time>2026-04-26T13:44:03.24Z</time></trkpt><trkpt lat="39.9106986" lon="20.3631759"><ele>307.4</ele><time>2026-04-26T13:44:04.239Z</time></trkpt><trkpt lat="39.9107027" lon="20.3632854"><ele>306.2</ele><time>2026-04-26T13:44:05.24Z</time></trkpt><trkpt lat="39.9107067" lon="20.3634047"><ele>305.0</ele><time>2026-04-26T13:44:06.239Z</time></trkpt><trkpt lat="39.9107081" lon="20.3635221"><ele>305.0</ele><time>2026-04-26T13:44:07.24Z</time></trkpt><trkpt lat="39.9107053" lon="20.3636488"><ele>305.0</ele><time>2026-04-26T13:44:08.239Z</time></trkpt><trkpt lat="39.9106968" lon="20.3637884"><ele>305.0</ele><time>2026-04-26T13:44:09.24Z</time></trkpt><trkpt lat="39.9106625" lon="20.363938"><ele>305.0</ele><time>2026-04-26T13:44:10.239Z</time></trkpt><trkpt lat="39.9106196" lon="20.3640838"><ele>305.0</ele><time>2026-04-26T13:44:11.24Z</time></trkpt><trkpt lat="39.9105654" lon="20.3642158"><ele>303.8</ele><time>2026-04-26T13:44:12.239Z</time></trkpt><trkpt lat="39.9105055" lon="20.364339"><ele>302.6</ele><time>2026-04-26T13:44:13.24Z</time></trkpt><trkpt lat="39.910451" lon="20.3644637"><ele>301.4</ele><time>2026-04-26T13:44:14.24Z</time></trkpt><trkpt lat="39.9104124" lon="20.3645926"><ele>300.2</ele><time>2026-04-26T13:44:15.239Z</time></trkpt><trkpt lat="39.9103897" lon="20.3647387"><ele>299.0</ele><time>2026-04-26T13:44:16.24Z</time></trkpt><trkpt lat="39.9103836" lon="20.3648941"><ele>297.75</ele><time>2026-04-26T13:44:17.24Z</time></trkpt><trkpt lat="39.9103968" lon="20.3650511"><ele>296.5</ele><time>2026-04-26T13:44:18.239Z</time></trkpt><trkpt lat="39.9104311" lon="20.3652096"><ele>295.25</ele><time>2026-04-26T13:44:19.24Z</time></trkpt><trkpt lat="39.9104846" lon="20.3653572"><ele>294.0</ele><time>2026-04-26T13:44:20.24Z</time></trkpt><trkpt lat="39.9105518" lon="20.3654986"><ele>292.5</ele><time>2026-04-26T13:44:21.239Z</time></trkpt><trkpt lat="39.9106303" lon="20.3656324"><ele>291.0</ele><time>2026-04-26T13:44:22.24Z</time></trkpt><trkpt lat="39.9107144" lon="20.3657639"><ele>289.5</ele><time>2026-04-26T13:44:23.239Z</time></trkpt><trkpt lat="39.9107957" lon="20.3658988"><ele>288.0</ele><time>2026-04-26T13:44:24.239Z</time></trkpt><trkpt lat="39.9108598" lon="20.3660478"><ele>288.0</ele><time>2026-04-26T13:44:25.24Z</time></trkpt><trkpt lat="39.9109031" lon="20.3662112"><ele>288.0</ele><time>2026-04-26T13:44:26.24Z</time></trkpt><trkpt lat="39.9109221" lon="20.366386"><ele>288.0</ele><time>2026-04-26T13:44:27.24Z</time></trkpt><trkpt lat="39.910922" lon="20.3665616"><ele>288.0</ele><time>2026-04-26T13:44:28.239Z</time></trkpt><trkpt lat="39.9109118" lon="20.36674"><ele>287.0</ele><time>2026-04-26T13:44:29.24Z</time></trkpt><trkpt lat="39.9109" lon="20.366924"><ele>286.0</ele><time>2026-04-26T13:44:30.239Z</time></trkpt><trkpt lat="39.9108888" lon="20.3671091"><ele>285.0</ele><time>2026-04-26T13:44:31.239Z</time></trkpt><trkpt lat="39.9108793" lon="20.3672915"><ele>284.0</ele><time>2026-04-26T13:44:32.239Z</time></trkpt><trkpt lat="39.9108718" lon="20.3674772"><ele>283.75</ele><time>2026-04-26T13:44:33.239Z</time></trkpt><trkpt lat="39.9108627" lon="20.3676588"><ele>283.5</ele><time>2026-04-26T13:44:34.24Z</time></trkpt><trkpt lat="39.9108502" lon="20.3678416"><ele>283.25</ele><time>2026-04-26T13:44:35.24Z</time></trkpt><trkpt lat="39.910836" lon="20.3680242"><ele>283.0</ele><time>2026-04-26T13:44:36.24Z</time></trkpt><trkpt lat="39.9108218" lon="20.368207"><ele>282.5</ele><time>2026-04-26T13:44:37.24Z</time></trkpt><trkpt lat="39.9108101" lon="20.3683965"><ele>282.0</ele><time>2026-04-26T13:44:38.239Z</time></trkpt><trkpt lat="39.9107862" lon="20.3685848"><ele>281.5</ele><time>2026-04-26T13:44:39.24Z</time></trkpt><trkpt lat="39.9107541" lon="20.3687653"><ele>281.0</ele><time>2026-04-26T13:44:40.239Z</time></trkpt><trkpt lat="39.9107023" lon="20.3689346"><ele>280.25</ele><time>2026-04-26T13:44:41.239Z</time></trkpt><trkpt lat="39.9106205" lon="20.3690892"><ele>279.5</ele><time>2026-04-26T13:44:42.239Z</time></trkpt><trkpt lat="39.9105265" lon="20.3692356"><ele>278.75</ele><time>2026-04-26T13:44:43.239Z</time></trkpt><trkpt lat="39.9104289" lon="20.3693756"><ele>278.0</ele><time>2026-04-26T13:44:44.24Z</time></trkpt><trkpt lat="39.9103284" lon="20.3695218"><ele>278.0</ele><time>2026-04-26T13:44:45.24Z</time></trkpt><trkpt lat="39.9102249" lon="20.3696731"><ele>278.0</ele><time>2026-04-26T13:44:46.239Z</time></trkpt><trkpt lat="39.9101164" lon="20.3698345"><ele>278.0</ele><time>2026-04-26T13:44:47.239Z</time></trkpt><trkpt lat="39.9100009" lon="20.3700034"><ele>278.0</ele><time>2026-04-26T13:44:48.239Z</time></trkpt><trkpt lat="39.9098803" lon="20.3701858"><ele>278.0</ele><time>2026-04-26T13:44:49.239Z</time></trkpt><trkpt lat="39.9097574" lon="20.3703783"><ele>278.0</ele><time>2026-04-26T13:44:50.239Z</time></trkpt><trkpt lat="39.9096362" lon="20.3705889"><ele>278.0</ele><time>2026-04-26T13:44:51.24Z</time></trkpt><trkpt lat="39.9095153" lon="20.3708238"><ele>278.0</ele><time>2026-04-26T13:44:52.24Z</time></trkpt><trkpt lat="39.9094013" lon="20.3710836"><ele>278.0</ele><time>2026-04-26T13:44:53.24Z</time></trkpt><trkpt lat="39.9093096" lon="20.3713804"><ele>279.0</ele><time>2026-04-26T13:44:54.239Z</time></trkpt><trkpt lat="39.9092302" lon="20.3716779"><ele>280.0</ele><time>2026-04-26T13:44:55.24Z</time></trkpt><trkpt lat="39.9091773" lon="20.3719775"><ele>277.5</ele><time>2026-04-26T13:44:56.24Z</time></trkpt><trkpt lat="39.9091391" lon="20.3722894"><ele>275.0</ele><time>2026-04-26T13:44:57.239Z</time></trkpt><trkpt lat="39.9091174" lon="20.3726056"><ele>275.0</ele><time>2026-04-26T13:44:58.239Z</time></trkpt><trkpt lat="39.9091098" lon="20.3729282"><ele>275.0</ele><time>2026-04-26T13:44:59.24Z</time></trkpt><trkpt lat="39.9091115" lon="20.3732545"><ele>275.5</ele><time>2026-04-26T13:45:00.24Z</time></trkpt><trkpt lat="39.9091135" lon="20.3735856"><ele>276.0</ele><time>2026-04-26T13:45:01.239Z</time></trkpt><trkpt lat="39.9091184" lon="20.3739318"><ele>276.5</ele><time>2026-04-26T13:45:02.239Z</time></trkpt><trkpt lat="39.9091216" lon="20.3742748"><ele>277.0</ele><time>2026-04-26T13:45:03.24Z</time></trkpt><trkpt lat="39.9091183" lon="20.3746099"><ele>278.0</ele><time>2026-04-26T13:45:04.24Z</time></trkpt><trkpt lat="39.9091165" lon="20.374948"><ele>279.0</ele><time>2026-04-26T13:45:05.239Z</time></trkpt><trkpt lat="39.9091181" lon="20.3752884"><ele>280.0</ele><time>2026-04-26T13:45:06.239Z</time></trkpt><trkpt lat="39.9091127" lon="20.3756262"><ele>281.0</ele><time>2026-04-26T13:45:07.239Z</time></trkpt><trkpt lat="39.9091052" lon="20.3759656"><ele>281.0</ele><time>2026-04-26T13:45:08.239Z</time></trkpt><trkpt lat="39.9090915" lon="20.3763173"><ele>281.0</ele><time>2026-04-26T13:45:09.239Z</time></trkpt><trkpt lat="39.9090717" lon="20.3766446"><ele>281.5</ele><time>2026-04-26T13:45:10.24Z</time></trkpt><trkpt lat="39.9090519" lon="20.376978"><ele>282.0</ele><time>2026-04-26T13:45:11.24Z</time></trkpt><trkpt lat="39.9090219" lon="20.3773088"><ele>284.0</ele><time>2026-04-26T13:45:12.239Z</time></trkpt><trkpt lat="39.9089817" lon="20.3776273"><ele>286.0</ele><time>2026-04-26T13:45:13.239Z</time></trkpt><trkpt lat="39.9089367" lon="20.3779351"><ele>287.0</ele><time>2026-04-26T13:45:14.24Z</time></trkpt><trkpt lat="39.908889" lon="20.3782396"><ele>288.0</ele><time>2026-04-26T13:45:15.239Z</time></trkpt><trkpt lat="39.9088525" lon="20.3785294"><ele>288.0</ele><time>2026-04-26T13:45:16.24Z</time></trkpt><trkpt lat="39.90881" lon="20.3788024"><ele>288.0</ele><time>2026-04-26T13:45:17.239Z</time></trkpt><trkpt lat="39.9087722" lon="20.3790701"><ele>288.0</ele><time>2026-04-26T13:45:18.24Z</time></trkpt><trkpt lat="39.9087294" lon="20.3793367"><ele>289.0</ele><time>2026-04-26T13:45:19.239Z</time></trkpt><trkpt lat="39.908689" lon="20.3796059"><ele>290.0</ele><time>2026-04-26T13:45:20.24Z</time></trkpt><trkpt lat="39.9086512" lon="20.3798705"><ele>291.0</ele><time>2026-04-26T13:45:21.24Z</time></trkpt><trkpt lat="39.9086144" lon="20.3801559"><ele>296.5</ele><time>2026-04-26T13:45:22.239Z</time></trkpt><trkpt lat="39.9085718" lon="20.3804516"><ele>302.0</ele><time>2026-04-26T13:45:23.24Z</time></trkpt><trkpt lat="39.9085236" lon="20.3807641"><ele>305.0</ele><time>2026-04-26T13:45:24.239Z</time></trkpt><trkpt lat="39.9084776" lon="20.3810865"><ele>308.0</ele><time>2026-04-26T13:45:25.239Z</time></trkpt><trkpt lat="39.908428" lon="20.3814076"><ele>311.0</ele><time>2026-04-26T13:45:26.239Z</time></trkpt><trkpt lat="39.9083813" lon="20.3817378"><ele>314.0</ele><time>2026-04-26T13:45:27.239Z</time></trkpt><trkpt lat="39.9083231" lon="20.3820485"><ele>317.0</ele><time>2026-04-26T13:45:28.24Z</time></trkpt><trkpt lat="39.9082624" lon="20.3823417"><ele>320.0</ele><time>2026-04-26T13:45:29.239Z</time></trkpt><trkpt lat="39.9082208" lon="20.3826394"><ele>320.0</ele><time>2026-04-26T13:45:30.239Z</time></trkpt><trkpt lat="39.9081842" lon="20.3829349"><ele>320.0</ele><time>2026-04-26T13:45:31.24Z</time></trkpt><trkpt lat="39.9081689" lon="20.3832216"><ele>320.6666666666667</ele><time>2026-04-26T13:45:32.239Z</time></trkpt><trkpt lat="39.9081748" lon="20.383512"><ele>321.3333333333333</ele><time>2026-04-26T13:45:33.24Z</time></trkpt><trkpt lat="39.9081943" lon="20.3838001"><ele>322.0</ele><time>2026-04-26T13:45:34.24Z</time></trkpt><trkpt lat="39.9082247" lon="20.3840826"><ele>323.0</ele><time>2026-04-26T13:45:35.239Z</time></trkpt><trkpt lat="39.9082693" lon="20.3843612"><ele>324.0</ele><time>2026-04-26T13:45:36.24Z</time></trkpt><trkpt lat="39.908325" lon="20.3846379"><ele>325.0</ele><time>2026-04-26T13:45:37.239Z</time></trkpt><trkpt lat="39.9083884" lon="20.3849178"><ele>322.66666666666663</ele><time>2026-04-26T13:45:38.24Z</time></trkpt><trkpt lat="39.9084533" lon="20.3851897"><ele>320.3333333333333</ele><time>2026-04-26T13:45:39.239Z</time></trkpt><trkpt lat="39.9085122" lon="20.3854522"><ele>318.0</ele><time>2026-04-26T13:45:40.239Z</time></trkpt><trkpt lat="39.9085743" lon="20.385711"><ele>317.6666666666667</ele><time>2026-04-26T13:45:41.239Z</time></trkpt><trkpt lat="39.9086353" lon="20.3859642"><ele>317.33333333333337</ele><time>2026-04-26T13:45:42.239Z</time></trkpt><trkpt lat="39.9086845" lon="20.3862201"><ele>317.0</ele><time>2026-04-26T13:45:43.24Z</time></trkpt><trkpt lat="39.9087325" lon="20.3864811"><ele>318.33333333333337</ele><time>2026-04-26T13:45:44.24Z</time></trkpt><trkpt lat="39.9087508" lon="20.3867487"><ele>319.6666666666667</ele><time>2026-04-26T13:45:45.239Z</time></trkpt><trkpt lat="39.9087543" lon="20.3870099"><ele>321.0</ele><time>2026-04-26T13:45:46.239Z</time></trkpt><trkpt lat="39.9087399" lon="20.3872802"><ele>321.0</ele><time>2026-04-26T13:45:47.24Z</time></trkpt><trkpt lat="39.9087056" lon="20.387552"><ele>321.0</ele><time>2026-04-26T13:45:48.239Z</time></trkpt><trkpt lat="39.9086522" lon="20.3878165"><ele>321.0</ele><time>2026-04-26T13:45:49.239Z</time></trkpt><trkpt lat="39.9085897" lon="20.3880758"><ele>320.0</ele><time>2026-04-26T13:45:50.239Z</time></trkpt><trkpt lat="39.9084997" lon="20.3883179"><ele>319.0</ele><time>2026-04-26T13:45:51.24Z</time></trkpt><trkpt lat="39.9083908" lon="20.3885466"><ele>318.0</ele><time>2026-04-26T13:45:52.239Z</time></trkpt><trkpt lat="39.90827" lon="20.3887591"><ele>324.3333333333333</ele><time>2026-04-26T13:45:53.24Z</time></trkpt><trkpt lat="39.9081264" lon="20.3889489"><ele>330.66666666666663</ele><time>2026-04-26T13:45:54.239Z</time></trkpt><trkpt lat="39.9079649" lon="20.3891287"><ele>337.0</ele><time>2026-04-26T13:45:55.24Z</time></trkpt><trkpt lat="39.9078061" lon="20.3893002"><ele>337.0</ele><time>2026-04-26T13:45:56.24Z</time></trkpt><trkpt lat="39.9076296" lon="20.3894651"><ele>337.0</ele><time>2026-04-26T13:45:57.24Z</time></trkpt><trkpt lat="39.9074491" lon="20.3896241"><ele>337.0</ele><time>2026-04-26T13:45:58.239Z</time></trkpt><trkpt lat="39.9072728" lon="20.3897767"><ele>336.66666666666663</ele><time>2026-04-26T13:45:59.24Z</time></trkpt><trkpt lat="39.9070981" lon="20.3899343"><ele>336.3333333333333</ele><time>2026-04-26T13:46:00.24Z</time></trkpt><trkpt lat="39.9069302" lon="20.3901124"><ele>336.0</ele><time>2026-04-26T13:46:01.24Z</time></trkpt><trkpt lat="39.9067693" lon="20.3902987"><ele>337.3333333333333</ele><time>2026-04-26T13:46:02.24Z</time></trkpt><trkpt lat="39.906613" lon="20.3904833"><ele>338.66666666666663</ele><time>2026-04-26T13:46:03.239Z</time></trkpt><trkpt lat="39.9064618" lon="20.3906788"><ele>340.0</ele><time>2026-04-26T13:46:04.24Z</time></trkpt><trkpt lat="39.9063162" lon="20.3908881"><ele>340.0</ele><time>2026-04-26T13:46:05.239Z</time></trkpt><trkpt lat="39.9061754" lon="20.3910887"><ele>340.0</ele><time>2026-04-26T13:46:06.239Z</time></trkpt><trkpt lat="39.9060281" lon="20.3912875"><ele>340.0</ele><time>2026-04-26T13:46:07.239Z</time></trkpt><trkpt lat="39.9058842" lon="20.3914884"><ele>344.0</ele><time>2026-04-26T13:46:08.239Z</time></trkpt><trkpt lat="39.9057426" lon="20.3916926"><ele>348.0</ele><time>2026-04-26T13:46:09.24Z</time></trkpt><trkpt lat="39.9056058" lon="20.3919034"><ele>352.0</ele><time>2026-04-26T13:46:10.239Z</time></trkpt><trkpt lat="39.9054818" lon="20.3921208"><ele>347.66666666666663</ele><time>2026-04-26T13:46:11.24Z</time></trkpt><trkpt lat="39.905378" lon="20.3923563"><ele>343.3333333333333</ele><time>2026-04-26T13:46:12.239Z</time></trkpt><trkpt lat="39.9052852" lon="20.3926077"><ele>339.0</ele><time>2026-04-26T13:46:13.239Z</time></trkpt><trkpt lat="39.905214" lon="20.3928661"><ele>335.0</ele><time>2026-04-26T13:46:14.24Z</time></trkpt><trkpt lat="39.9051558" lon="20.3931261"><ele>331.0</ele><time>2026-04-26T13:46:15.239Z</time></trkpt><trkpt lat="39.9051139" lon="20.3933868"><ele>327.0</ele><time>2026-04-26T13:46:16.24Z</time></trkpt><trkpt lat="39.9050948" lon="20.3936545"><ele>326.6666666666667</ele><time>2026-04-26T13:46:17.239Z</time></trkpt><trkpt lat="39.9050901" lon="20.3939275"><ele>326.33333333333337</ele><time>2026-04-26T13:46:18.239Z</time></trkpt><trkpt lat="39.9051069" lon="20.3942002"><ele>326.0</ele><time>2026-04-26T13:46:19.24Z</time></trkpt><trkpt lat="39.9051446" lon="20.3944724"><ele>327.33333333333337</ele><time>2026-04-26T13:46:20.239Z</time></trkpt><trkpt lat="39.9051937" lon="20.3947463"><ele>328.6666666666667</ele><time>2026-04-26T13:46:21.24Z</time></trkpt><trkpt lat="39.9052459" lon="20.3950167"><ele>330.0</ele><time>2026-04-26T13:46:22.24Z</time></trkpt><trkpt lat="39.9052952" lon="20.3952882"><ele>333.3333333333333</ele><time>2026-04-26T13:46:23.24Z</time></trkpt><trkpt lat="39.905337" lon="20.3955555"><ele>336.66666666666663</ele><time>2026-04-26T13:46:24.24Z</time></trkpt><trkpt lat="39.9053782" lon="20.3958267"><ele>340.0</ele><time>2026-04-26T13:46:25.24Z</time></trkpt><trkpt lat="39.9054075" lon="20.3960953"><ele>343.3333333333333</ele><time>2026-04-26T13:46:26.24Z</time></trkpt><trkpt lat="39.9054228" lon="20.3963604"><ele>346.6666666666667</ele><time>2026-04-26T13:46:27.24Z</time></trkpt><trkpt lat="39.9054229" lon="20.3966387"><ele>350.0</ele><time>2026-04-26T13:46:28.24Z</time></trkpt><trkpt lat="39.905397" lon="20.3969199"><ele>350.0</ele><time>2026-04-26T13:46:29.239Z</time></trkpt><trkpt lat="39.9053523" lon="20.3971964"><ele>350.0</ele><time>2026-04-26T13:46:30.239Z</time></trkpt><trkpt lat="39.9052866" lon="20.3974701"><ele>350.0</ele><time>2026-04-26T13:46:31.239Z</time></trkpt><trkpt lat="39.9052091" lon="20.3977327"><ele>350.0</ele><time>2026-04-26T13:46:32.239Z</time></trkpt><trkpt lat="39.9051014" lon="20.3979723"><ele>350.0</ele><time>2026-04-26T13:46:33.239Z</time></trkpt><trkpt lat="39.9049886" lon="20.3981993"><ele>350.0</ele><time>2026-04-26T13:46:34.24Z</time></trkpt><trkpt lat="39.904852" lon="20.3984141"><ele>353.33333333333337</ele><time>2026-04-26T13:46:35.24Z</time></trkpt><trkpt lat="39.904704" lon="20.3986179"><ele>356.6666666666667</ele><time>2026-04-26T13:46:36.24Z</time></trkpt><trkpt lat="39.9045517" lon="20.398821"><ele>360.0</ele><time>2026-04-26T13:46:37.24Z</time></trkpt><trkpt lat="39.9043727" lon="20.3989846"><ele>361.0</ele><time>2026-04-26T13:46:38.24Z</time></trkpt><trkpt lat="39.9041816" lon="20.3991292"><ele>362.0</ele><time>2026-04-26T13:46:39.239Z</time></trkpt><trkpt lat="39.9039848" lon="20.3992539"><ele>363.0</ele><time>2026-04-26T13:46:40.239Z</time></trkpt><trkpt lat="39.9037814" lon="20.3993668"><ele>363.0</ele><time>2026-04-26T13:46:41.239Z</time></trkpt><trkpt lat="39.903571" lon="20.3994762"><ele>363.0</ele><time>2026-04-26T13:46:42.24Z</time></trkpt><trkpt lat="39.9033676" lon="20.3995819"><ele>363.0</ele><time>2026-04-26T13:46:43.239Z</time></trkpt><trkpt lat="39.9031616" lon="20.399697"><ele>363.0</ele><time>2026-04-26T13:46:44.24Z</time></trkpt><trkpt lat="39.9029621" lon="20.3998333"><ele>363.0</ele><time>2026-04-26T13:46:45.24Z</time></trkpt><trkpt lat="39.9027753" lon="20.4000037"><ele>363.0</ele><time>2026-04-26T13:46:46.239Z</time></trkpt><trkpt lat="39.9025914" lon="20.4001837"><ele>363.0</ele><time>2026-04-26T13:46:47.239Z</time></trkpt><trkpt lat="39.9024259" lon="20.4003801"><ele>367.6666666666667</ele><time>2026-04-26T13:46:48.239Z</time></trkpt><trkpt lat="39.9022849" lon="20.4005967"><ele>372.33333333333337</ele><time>2026-04-26T13:46:49.239Z</time></trkpt><trkpt lat="39.902162" lon="20.4008261"><ele>377.0</ele><time>2026-04-26T13:46:50.24Z</time></trkpt><trkpt lat="39.9020579" lon="20.4010665"><ele>377.0</ele><time>2026-04-26T13:46:51.24Z</time></trkpt><trkpt lat="39.9019698" lon="20.4013144"><ele>377.0</ele><time>2026-04-26T13:46:52.24Z</time></trkpt><trkpt lat="39.9019015" lon="20.4015659"><ele>377.0</ele><time>2026-04-26T13:46:53.239Z</time></trkpt><trkpt lat="39.9018511" lon="20.4018208"><ele>376.33333333333337</ele><time>2026-04-26T13:46:54.239Z</time></trkpt><trkpt lat="39.9018174" lon="20.4020802"><ele>375.6666666666667</ele><time>2026-04-26T13:46:55.239Z</time></trkpt><trkpt lat="39.9018048" lon="20.4023443"><ele>375.0</ele><time>2026-04-26T13:46:56.24Z</time></trkpt><trkpt lat="39.9018128" lon="20.4026068"><ele>377.6666666666667</ele><time>2026-04-26T13:46:57.239Z</time></trkpt><trkpt lat="39.9018384" lon="20.4028779"><ele>380.33333333333337</ele><time>2026-04-26T13:46:58.24Z</time></trkpt><trkpt lat="39.901882" lon="20.4031473"><ele>383.0</ele><time>2026-04-26T13:46:59.24Z</time></trkpt><trkpt lat="39.9019336" lon="20.403416"><ele>383.33333333333337</ele><time>2026-04-26T13:47:00.239Z</time></trkpt><trkpt lat="39.9019874" lon="20.4036845"><ele>383.6666666666667</ele><time>2026-04-26T13:47:01.239Z</time></trkpt><trkpt lat="39.9020484" lon="20.4039516"><ele>384.0</ele><time>2026-04-26T13:47:02.24Z</time></trkpt><trkpt lat="39.9021017" lon="20.4042125"><ele>386.0</ele><time>2026-04-26T13:47:03.239Z</time></trkpt><trkpt lat="39.9021581" lon="20.4044722"><ele>388.0</ele><time>2026-04-26T13:47:04.24Z</time></trkpt><trkpt lat="39.9022196" lon="20.4047339"><ele>390.0</ele><time>2026-04-26T13:47:05.24Z</time></trkpt><trkpt lat="39.9022924" lon="20.4049969"><ele>389.0</ele><time>2026-04-26T13:47:06.24Z</time></trkpt><trkpt lat="39.9023839" lon="20.4052504"><ele>388.0</ele><time>2026-04-26T13:47:07.239Z</time></trkpt><trkpt lat="39.9024866" lon="20.4054912"><ele>387.0</ele><time>2026-04-26T13:47:08.239Z</time></trkpt><trkpt lat="39.9026111" lon="20.405723"><ele>387.0</ele><time>2026-04-26T13:47:09.24Z</time></trkpt><trkpt lat="39.9027389" lon="20.4059513"><ele>387.0</ele><time>2026-04-26T13:47:10.239Z</time></trkpt><trkpt lat="39.902868" lon="20.4061749"><ele>387.0</ele><time>2026-04-26T13:47:11.239Z</time></trkpt><trkpt lat="39.9029936" lon="20.4064057"><ele>392.66666666666663</ele><time>2026-04-26T13:47:12.24Z</time></trkpt><trkpt lat="39.9031079" lon="20.4066462"><ele>398.3333333333333</ele><time>2026-04-26T13:47:13.24Z</time></trkpt><trkpt lat="39.9032061" lon="20.4068979"><ele>404.0</ele><time>2026-04-26T13:47:14.239Z</time></trkpt><trkpt lat="39.9032835" lon="20.4071605"><ele>409.66666666666663</ele><time>2026-04-26T13:47:15.24Z</time></trkpt><trkpt lat="39.9033414" lon="20.4074369"><ele>415.33333333333337</ele><time>2026-04-26T13:47:16.24Z</time></trkpt><trkpt lat="39.9033823" lon="20.407721"><ele>421.0</ele><time>2026-04-26T13:47:17.239Z</time></trkpt><trkpt lat="39.9034111" lon="20.4080061"><ele>422.33333333333337</ele><time>2026-04-26T13:47:18.24Z</time></trkpt><trkpt lat="39.9034247" lon="20.4082833"><ele>423.66666666666663</ele><time>2026-04-26T13:47:19.239Z</time></trkpt><trkpt lat="39.9033938" lon="20.408564"><ele>425.0</ele><time>2026-04-26T13:47:20.239Z</time></trkpt><trkpt lat="39.9033613" lon="20.4088445"><ele>425.0</ele><time>2026-04-26T13:47:21.24Z</time></trkpt><trkpt lat="39.90331" lon="20.4091133"><ele>425.0</ele><time>2026-04-26T13:47:22.24Z</time></trkpt><trkpt lat="39.9032459" lon="20.4093813"><ele>425.0</ele><time>2026-04-26T13:47:23.239Z</time></trkpt><trkpt lat="39.9031876" lon="20.4096489"><ele>425.66666666666663</ele><time>2026-04-26T13:47:24.239Z</time></trkpt><trkpt lat="39.9031424" lon="20.4099202"><ele>426.33333333333337</ele><time>2026-04-26T13:47:25.239Z</time></trkpt><trkpt lat="39.9031207" lon="20.4102005"><ele>427.0</ele><time>2026-04-26T13:47:26.239Z</time></trkpt><trkpt lat="39.9031224" lon="20.410489"><ele>429.5</ele><time>2026-04-26T13:47:27.24Z</time></trkpt><trkpt lat="39.903148" lon="20.4107877"><ele>432.0</ele><time>2026-04-26T13:47:28.24Z</time></trkpt><trkpt lat="39.903173" lon="20.4110745"><ele>436.33333333333337</ele><time>2026-04-26T13:47:29.24Z</time></trkpt><trkpt lat="39.9032052" lon="20.4113538"><ele>440.6666666666667</ele><time>2026-04-26T13:47:30.24Z</time></trkpt><trkpt lat="39.9032194" lon="20.4116387"><ele>445.0</ele><time>2026-04-26T13:47:31.24Z</time></trkpt><trkpt lat="39.9032154" lon="20.4119178"><ele>448.33333333333337</ele><time>2026-04-26T13:47:32.24Z</time></trkpt><trkpt lat="39.9032003" lon="20.412193"><ele>451.66666666666663</ele><time>2026-04-26T13:47:33.24Z</time></trkpt><trkpt lat="39.9031694" lon="20.4124711"><ele>455.0</ele><time>2026-04-26T13:47:34.239Z</time></trkpt><trkpt lat="39.9031165" lon="20.4127419"><ele>453.0</ele><time>2026-04-26T13:47:35.24Z</time></trkpt><trkpt lat="39.9030418" lon="20.4129977"><ele>451.0</ele><time>2026-04-26T13:47:36.239Z</time></trkpt><trkpt lat="39.9029545" lon="20.4132473"><ele>449.0</ele><time>2026-04-26T13:47:37.24Z</time></trkpt><trkpt lat="39.9028593" lon="20.4135023"><ele>449.0</ele><time>2026-04-26T13:47:38.24Z</time></trkpt><trkpt lat="39.9027528" lon="20.4137575"><ele>449.0</ele><time>2026-04-26T13:47:39.239Z</time></trkpt><trkpt lat="39.902641" lon="20.4140209"><ele>453.0</ele><time>2026-04-26T13:47:40.239Z</time></trkpt><trkpt lat="39.9025333" lon="20.4142859"><ele>457.0</ele><time>2026-04-26T13:47:41.239Z</time></trkpt><trkpt lat="39.9024223" lon="20.4145382"><ele>456.0</ele><time>2026-04-26T13:47:42.24Z</time></trkpt><trkpt lat="39.9023158" lon="20.4147904"><ele>455.0</ele><time>2026-04-26T13:47:43.239Z</time></trkpt><trkpt lat="39.9022134" lon="20.4150438"><ele>454.0</ele><time>2026-04-26T13:47:44.24Z</time></trkpt><trkpt lat="39.9021154" lon="20.4152949"><ele>454.0</ele><time>2026-04-26T13:47:45.239Z</time></trkpt><trkpt lat="39.9020286" lon="20.4155629"><ele>454.0</ele><time>2026-04-26T13:47:46.239Z</time></trkpt><trkpt lat="39.9019646" lon="20.4158378"><ele>454.0</ele><time>2026-04-26T13:47:47.239Z</time></trkpt><trkpt lat="39.9019211" lon="20.4161215"><ele>453.6666666666667</ele><time>2026-04-26T13:47:48.24Z</time></trkpt><trkpt lat="39.9018955" lon="20.4164066"><ele>453.33333333333337</ele><time>2026-04-26T13:47:49.24Z</time></trkpt><trkpt lat="39.9018974" lon="20.4166987"><ele>453.0</ele><time>2026-04-26T13:47:50.239Z</time></trkpt><trkpt lat="39.9019229" lon="20.4169928"><ele>450.5</ele><time>2026-04-26T13:47:51.239Z</time></trkpt><trkpt lat="39.9019666" lon="20.4172896"><ele>448.0</ele><time>2026-04-26T13:47:52.239Z</time></trkpt><trkpt lat="39.9020339" lon="20.4175694"><ele>448.0</ele><time>2026-04-26T13:47:53.239Z</time></trkpt><trkpt lat="39.9021272" lon="20.4178465"><ele>448.0</ele><time>2026-04-26T13:47:54.239Z</time></trkpt><trkpt lat="39.9022328" lon="20.4180974"><ele>448.33333333333337</ele><time>2026-04-26T13:47:55.239Z</time></trkpt><trkpt lat="39.90236" lon="20.4183343"><ele>448.66666666666663</ele><time>2026-04-26T13:47:56.24Z</time></trkpt><trkpt lat="39.9025013" lon="20.4185509"><ele>449.0</ele><time>2026-04-26T13:47:57.24Z</time></trkpt><trkpt lat="39.9026608" lon="20.4187421"><ele>454.66666666666663</ele><time>2026-04-26T13:47:58.24Z</time></trkpt><trkpt lat="39.9028317" lon="20.4189078"><ele>460.33333333333337</ele><time>2026-04-26T13:47:59.239Z</time></trkpt><trkpt lat="39.9030181" lon="20.419059"><ele>466.0</ele><time>2026-04-26T13:48:00.24Z</time></trkpt><trkpt lat="39.9032043" lon="20.4191917"><ele>466.0</ele><time>2026-04-26T13:48:01.24Z</time></trkpt><trkpt lat="39.903395" lon="20.4193111"><ele>466.0</ele><time>2026-04-26T13:48:02.239Z</time></trkpt><trkpt lat="39.903584" lon="20.4194231"><ele>466.0</ele><time>2026-04-26T13:48:03.239Z</time></trkpt><trkpt lat="39.903762" lon="20.4195394"><ele>469.0</ele><time>2026-04-26T13:48:04.24Z</time></trkpt><trkpt lat="39.9039356" lon="20.4196601"><ele>472.0</ele><time>2026-04-26T13:48:05.24Z</time></trkpt><trkpt lat="39.9040941" lon="20.4197911"><ele>475.0</ele><time>2026-04-26T13:48:06.24Z</time></trkpt><trkpt lat="39.9042439" lon="20.4199379"><ele>472.6666666666667</ele><time>2026-04-26T13:48:07.239Z</time></trkpt><trkpt lat="39.9043697" lon="20.4201037"><ele>470.33333333333337</ele><time>2026-04-26T13:48:08.24Z</time></trkpt><trkpt lat="39.9044888" lon="20.420281"><ele>468.0</ele><time>2026-04-26T13:48:09.239Z</time></trkpt><trkpt lat="39.904608" lon="20.4204665"><ele>470.33333333333337</ele><time>2026-04-26T13:48:10.239Z</time></trkpt><trkpt lat="39.9047066" lon="20.4206757"><ele>472.6666666666667</ele><time>2026-04-26T13:48:11.239Z</time></trkpt><trkpt lat="39.9047877" lon="20.4208894"><ele>475.0</ele><time>2026-04-26T13:48:12.239Z</time></trkpt><trkpt lat="39.9048551" lon="20.4211076"><ele>476.6666666666667</ele><time>2026-04-26T13:48:13.239Z</time></trkpt><trkpt lat="39.9049124" lon="20.4213352"><ele>478.33333333333337</ele><time>2026-04-26T13:48:14.239Z</time></trkpt><trkpt lat="39.9049553" lon="20.4215768"><ele>480.0</ele><time>2026-04-26T13:48:15.24Z</time></trkpt><trkpt lat="39.9049856" lon="20.4218244"><ele>480.0</ele><time>2026-04-26T13:48:16.24Z</time></trkpt><trkpt lat="39.9050108" lon="20.4220738"><ele>480.0</ele><time>2026-04-26T13:48:17.239Z</time></trkpt><trkpt lat="39.9050357" lon="20.422314"><ele>480.0</ele><time>2026-04-26T13:48:18.24Z</time></trkpt><trkpt lat="39.9050796" lon="20.4225606"><ele>478.0</ele><time>2026-04-26T13:48:19.239Z</time></trkpt><trkpt lat="39.9051307" lon="20.4227996"><ele>476.0</ele><time>2026-04-26T13:48:20.239Z</time></trkpt><trkpt lat="39.9052072" lon="20.4230423"><ele>474.0</ele><time>2026-04-26T13:48:21.24Z</time></trkpt><trkpt lat="39.9052969" lon="20.4232824"><ele>474.0</ele><time>2026-04-26T13:48:22.24Z</time></trkpt><trkpt lat="39.9053985" lon="20.4235101"><ele>474.0</ele><time>2026-04-26T13:48:23.24Z</time></trkpt><trkpt lat="39.9055191" lon="20.4237308"><ele>474.0</ele><time>2026-04-26T13:48:24.239Z</time></trkpt><trkpt lat="39.9056534" lon="20.4239442"><ele>476.33333333333337</ele><time>2026-04-26T13:48:25.239Z</time></trkpt><trkpt lat="39.9057839" lon="20.4241625"><ele>478.6666666666667</ele><time>2026-04-26T13:48:26.24Z</time></trkpt><trkpt lat="39.9058974" lon="20.4243881"><ele>481.0</ele><time>2026-04-26T13:48:27.239Z</time></trkpt><trkpt lat="39.9059993" lon="20.4246265"><ele>485.6666666666667</ele><time>2026-04-26T13:48:28.24Z</time></trkpt><trkpt lat="39.9060896" lon="20.4248795"><ele>490.33333333333337</ele><time>2026-04-26T13:48:29.24Z</time></trkpt><trkpt lat="39.9061624" lon="20.4251472"><ele>495.0</ele><time>2026-04-26T13:48:30.239Z</time></trkpt><trkpt lat="39.9062158" lon="20.4254302"><ele>494.5</ele><time>2026-04-26T13:48:31.24Z</time></trkpt><trkpt lat="39.9062713" lon="20.4257172"><ele>494.0</ele><time>2026-04-26T13:48:32.239Z</time></trkpt><trkpt lat="39.9063207" lon="20.4260068"><ele>494.0</ele><time>2026-04-26T13:48:33.24Z</time></trkpt><trkpt lat="39.9063837" lon="20.4262921"><ele>494.0</ele><time>2026-04-26T13:48:34.24Z</time></trkpt><trkpt lat="39.9064688" lon="20.4265722"><ele>492.0</ele><time>2026-04-26T13:48:35.24Z</time></trkpt><trkpt lat="39.9065741" lon="20.4268466"><ele>490.0</ele><time>2026-04-26T13:48:36.239Z</time></trkpt><trkpt lat="39.9066891" lon="20.4271063"><ele>490.6666666666667</ele><time>2026-04-26T13:48:37.24Z</time></trkpt><trkpt lat="39.9068075" lon="20.427352"><ele>491.33333333333337</ele><time>2026-04-26T13:48:38.24Z</time></trkpt><trkpt lat="39.9069287" lon="20.4275893"><ele>492.0</ele><time>2026-04-26T13:48:39.24Z</time></trkpt><trkpt lat="39.9070387" lon="20.4278233"><ele>489.33333333333337</ele><time>2026-04-26T13:48:40.24Z</time></trkpt><trkpt lat="39.9071438" lon="20.4280562"><ele>486.6666666666667</ele><time>2026-04-26T13:48:41.239Z</time></trkpt><trkpt lat="39.9072341" lon="20.4282813"><ele>484.0</ele><time>2026-04-26T13:48:42.24Z</time></trkpt><trkpt lat="39.9073017" lon="20.4285075"><ele>484.0</ele><time>2026-04-26T13:48:43.24Z</time></trkpt><trkpt lat="39.9073582" lon="20.4287329"><ele>484.0</ele><time>2026-04-26T13:48:44.24Z</time></trkpt><trkpt lat="39.9074005" lon="20.4289473"><ele>484.0</ele><time>2026-04-26T13:48:45.24Z</time></trkpt><trkpt lat="39.9074256" lon="20.4291645"><ele>483.6666666666667</ele><time>2026-04-26T13:48:46.239Z</time></trkpt><trkpt lat="39.9074323" lon="20.4293751"><ele>483.33333333333337</ele><time>2026-04-26T13:48:47.239Z</time></trkpt><trkpt lat="39.9074297" lon="20.4295917"><ele>483.0</ele><time>2026-04-26T13:48:48.24Z</time></trkpt><trkpt lat="39.9074169" lon="20.4298056"><ele>483.66666666666663</ele><time>2026-04-26T13:48:49.239Z</time></trkpt><trkpt lat="39.9073931" lon="20.4300038"><ele>484.3333333333333</ele><time>2026-04-26T13:48:50.239Z</time></trkpt><trkpt lat="39.9073583" lon="20.4301944"><ele>485.0</ele><time>2026-04-26T13:48:51.239Z</time></trkpt><trkpt lat="39.9073182" lon="20.4303802"><ele>489.66666666666663</ele><time>2026-04-26T13:48:52.239Z</time></trkpt><trkpt lat="39.9072699" lon="20.4305681"><ele>494.33333333333337</ele><time>2026-04-26T13:48:53.24Z</time></trkpt><trkpt lat="39.9072046" lon="20.4307541"><ele>499.0</ele><time>2026-04-26T13:48:54.24Z</time></trkpt><trkpt lat="39.9071363" lon="20.4309363"><ele>499.0</ele><time>2026-04-26T13:48:55.239Z</time></trkpt><trkpt lat="39.9070587" lon="20.4311229"><ele>499.0</ele><time>2026-04-26T13:48:56.24Z</time></trkpt><trkpt lat="39.9069688" lon="20.4313114"><ele>499.0</ele><time>2026-04-26T13:48:57.239Z</time></trkpt><trkpt lat="39.9068874" lon="20.4315028"><ele>503.6666666666667</ele><time>2026-04-26T13:48:58.24Z</time></trkpt><trkpt lat="39.9068135" lon="20.4317174"><ele>508.33333333333337</ele><time>2026-04-26T13:48:59.24Z</time></trkpt><trkpt lat="39.9067445" lon="20.4319289"><ele>513.0</ele><time>2026-04-26T13:49:00.24Z</time></trkpt><trkpt lat="39.9066908" lon="20.4321574"><ele>515.0</ele><time>2026-04-26T13:49:01.239Z</time></trkpt><trkpt lat="39.9066472" lon="20.4323904"><ele>517.0</ele><time>2026-04-26T13:49:02.24Z</time></trkpt><trkpt lat="39.9066229" lon="20.4326338"><ele>519.0</ele><time>2026-04-26T13:49:03.239Z</time></trkpt><trkpt lat="39.9066101" lon="20.4328848"><ele>521.5</ele><time>2026-04-26T13:49:04.24Z</time></trkpt><trkpt lat="39.9066242" lon="20.4331684"><ele>524.0</ele><time>2026-04-26T13:49:05.24Z</time></trkpt><trkpt lat="39.9066715" lon="20.4334944"><ele>524.0</ele><time>2026-04-26T13:49:06.24Z</time></trkpt><trkpt lat="39.9067342" lon="20.4338512"><ele>524.0</ele><time>2026-04-26T13:49:07.239Z</time></trkpt><trkpt lat="39.9067956" lon="20.43423"><ele>534.5</ele><time>2026-04-26T13:49:08.239Z</time></trkpt><trkpt lat="39.9068672" lon="20.4346363"><ele>545.0</ele><time>2026-04-26T13:49:09.24Z</time></trkpt><trkpt lat="39.9069389" lon="20.4350426"><ele>545.0</ele><time>2026-04-26T13:49:10.24Z</time></trkpt><trkpt lat="39.9070128" lon="20.4354434"><ele>545.0</ele><time>2026-04-26T13:49:11.239Z</time></trkpt><trkpt lat="39.9070878" lon="20.4358341"><ele>545.0</ele><time>2026-04-26T13:49:12.239Z</time></trkpt><trkpt lat="39.9071665" lon="20.4362152"><ele>545.0</ele><time>2026-04-26T13:49:13.24Z</time></trkpt><trkpt lat="39.9072336" lon="20.436581"><ele>544.0</ele><time>2026-04-26T13:49:14.24Z</time></trkpt><trkpt lat="39.9072997" lon="20.4369353"><ele>543.0</ele><time>2026-04-26T13:49:15.24Z</time></trkpt><trkpt lat="39.9073645" lon="20.4372718"><ele>543.0</ele><time>2026-04-26T13:49:16.239Z</time></trkpt><trkpt lat="39.9074212" lon="20.4376057"><ele>543.0</ele><time>2026-04-26T13:49:17.24Z</time></trkpt><trkpt lat="39.9074785" lon="20.4379358"><ele>542.5</ele><time>2026-04-26T13:49:18.239Z</time></trkpt><trkpt lat="39.907529" lon="20.438268"><ele>542.0</ele><time>2026-04-26T13:49:19.239Z</time></trkpt><trkpt lat="39.9075819" lon="20.4385994"><ele>542.5</ele><time>2026-04-26T13:49:20.239Z</time></trkpt><trkpt lat="39.9076296" lon="20.4389329"><ele>543.0</ele><time>2026-04-26T13:49:21.24Z</time></trkpt><trkpt lat="39.9076744" lon="20.4392638"><ele>543.0</ele><time>2026-04-26T13:49:22.239Z</time></trkpt><trkpt lat="39.9077188" lon="20.4395882"><ele>543.0</ele><time>2026-04-26T13:49:23.24Z</time></trkpt><trkpt lat="39.9077563" lon="20.4399127"><ele>543.0</ele><time>2026-04-26T13:49:24.24Z</time></trkpt><trkpt lat="39.9078046" lon="20.4402367"><ele>543.0</ele><time>2026-04-26T13:49:25.24Z</time></trkpt><trkpt lat="39.9078462" lon="20.4405529"><ele>541.5</ele><time>2026-04-26T13:49:26.239Z</time></trkpt><trkpt lat="39.907895" lon="20.4408672"><ele>540.0</ele><time>2026-04-26T13:49:27.239Z</time></trkpt><trkpt lat="39.9079393" lon="20.4411849"><ele>541.0</ele><time>2026-04-26T13:49:28.24Z</time></trkpt><trkpt lat="39.9079784" lon="20.4415076"><ele>542.0</ele><time>2026-04-26T13:49:29.239Z</time></trkpt><trkpt lat="39.9080176" lon="20.4418308"><ele>542.0</ele><time>2026-04-26T13:49:30.239Z</time></trkpt><trkpt lat="39.9080598" lon="20.4421485"><ele>542.0</ele><time>2026-04-26T13:49:31.239Z</time></trkpt><trkpt lat="39.9081043" lon="20.4424629"><ele>542.0</ele><time>2026-04-26T13:49:32.239Z</time></trkpt><trkpt lat="39.9081496" lon="20.4427769"><ele>542.0</ele><time>2026-04-26T13:49:33.24Z</time></trkpt><trkpt lat="39.9081956" lon="20.4430828"><ele>544.0</ele><time>2026-04-26T13:49:34.24Z</time></trkpt><trkpt lat="39.9082386" lon="20.443389"><ele>546.0</ele><time>2026-04-26T13:49:35.239Z</time></trkpt><trkpt lat="39.9082872" lon="20.4436938"><ele>547.5</ele><time>2026-04-26T13:49:36.24Z</time></trkpt><trkpt lat="39.9083223" lon="20.4439962"><ele>549.0</ele><time>2026-04-26T13:49:37.24Z</time></trkpt><trkpt lat="39.908355" lon="20.4442988"><ele>549.0</ele><time>2026-04-26T13:49:38.24Z</time></trkpt><trkpt lat="39.9083754" lon="20.4446052"><ele>549.0</ele><time>2026-04-26T13:49:39.24Z</time></trkpt><trkpt lat="39.9083863" lon="20.4449144"><ele>550.0</ele><time>2026-04-26T13:49:40.24Z</time></trkpt><trkpt lat="39.9083853" lon="20.4452222"><ele>551.0</ele><time>2026-04-26T13:49:41.24Z</time></trkpt><trkpt lat="39.9083766" lon="20.4455381"><ele>551.5</ele><time>2026-04-26T13:49:42.24Z</time></trkpt><trkpt lat="39.9083598" lon="20.445853"><ele>552.0</ele><time>2026-04-26T13:49:43.24Z</time></trkpt><trkpt lat="39.9083396" lon="20.4461683"><ele>553.0</ele><time>2026-04-26T13:49:44.239Z</time></trkpt><trkpt lat="39.908302" lon="20.4464756"><ele>554.0</ele><time>2026-04-26T13:49:45.239Z</time></trkpt><trkpt lat="39.9082534" lon="20.4467882"><ele>554.0</ele><time>2026-04-26T13:49:46.24Z</time></trkpt><trkpt lat="39.9082003" lon="20.4471009"><ele>554.0</ele><time>2026-04-26T13:49:47.239Z</time></trkpt><trkpt lat="39.908127" lon="20.4474135"><ele>555.0</ele><time>2026-04-26T13:49:48.239Z</time></trkpt><trkpt lat="39.9080454" lon="20.4477182"><ele>556.0</ele><time>2026-04-26T13:49:49.239Z</time></trkpt><trkpt lat="39.9079538" lon="20.4480135"><ele>557.0</ele><time>2026-04-26T13:49:50.24Z</time></trkpt><trkpt lat="39.9078571" lon="20.4483014"><ele>558.0</ele><time>2026-04-26T13:49:51.239Z</time></trkpt><trkpt lat="39.9077619" lon="20.4485872"><ele>557.5</ele><time>2026-04-26T13:49:52.24Z</time></trkpt><trkpt lat="39.9076662" lon="20.4488705"><ele>557.0</ele><time>2026-04-26T13:49:53.239Z</time></trkpt><trkpt lat="39.9075699" lon="20.4491632"><ele>557.0</ele><time>2026-04-26T13:49:54.24Z</time></trkpt><trkpt lat="39.9074758" lon="20.4494628"><ele>557.0</ele><time>2026-04-26T13:49:55.24Z</time></trkpt><trkpt lat="39.9073868" lon="20.4497711"><ele>560.0</ele><time>2026-04-26T13:49:56.239Z</time></trkpt><trkpt lat="39.9073087" lon="20.4500798"><ele>563.0</ele><time>2026-04-26T13:49:57.24Z</time></trkpt><trkpt lat="39.907255" lon="20.4504094"><ele>565.0</ele><time>2026-04-26T13:49:58.239Z</time></trkpt><trkpt lat="39.9072118" lon="20.4507578"><ele>567.0</ele><time>2026-04-26T13:49:59.24Z</time></trkpt><trkpt lat="39.9071802" lon="20.4511032"><ele>568.5</ele><time>2026-04-26T13:50:00.239Z</time></trkpt><trkpt lat="39.9071581" lon="20.4514446"><ele>570.0</ele><time>2026-04-26T13:50:01.24Z</time></trkpt><trkpt lat="39.9071439" lon="20.4517761"><ele>570.0</ele><time>2026-04-26T13:50:02.24Z</time></trkpt><trkpt lat="39.9071245" lon="20.4521012"><ele>570.0</ele><time>2026-04-26T13:50:03.24Z</time></trkpt><trkpt lat="39.9071047" lon="20.4524253"><ele>568.5</ele><time>2026-04-26T13:50:04.24Z</time></trkpt><trkpt lat="39.9070803" lon="20.4527574"><ele>567.0</ele><time>2026-04-26T13:50:05.239Z</time></trkpt><trkpt lat="39.9070553" lon="20.4530961"><ele>565.5</ele><time>2026-04-26T13:50:06.239Z</time></trkpt><trkpt lat="39.9070332" lon="20.4534374"><ele>564.0</ele><time>2026-04-26T13:50:07.24Z</time></trkpt><trkpt lat="39.9070095" lon="20.4537866"><ele>562.5</ele><time>2026-04-26T13:50:08.24Z</time></trkpt><trkpt lat="39.9069824" lon="20.4541341"><ele>561.0</ele><time>2026-04-26T13:50:09.239Z</time></trkpt><trkpt lat="39.9069643" lon="20.4544867"><ele>559.0</ele><time>2026-04-26T13:50:10.24Z</time></trkpt><trkpt lat="39.9069348" lon="20.4548379"><ele>557.0</ele><time>2026-04-26T13:50:11.239Z</time></trkpt><trkpt lat="39.9069122" lon="20.455179"><ele>559.0</ele><time>2026-04-26T13:50:12.239Z</time></trkpt><trkpt lat="39.906891" lon="20.4555242"><ele>561.0</ele><time>2026-04-26T13:50:13.24Z</time></trkpt><trkpt lat="39.9068745" lon="20.4558683"><ele>561.0</ele><time>2026-04-26T13:50:14.24Z</time></trkpt><trkpt lat="39.9068522" lon="20.4562123"><ele>561.0</ele><time>2026-04-26T13:50:15.24Z</time></trkpt><trkpt lat="39.9068255" lon="20.4565536"><ele>562.0</ele><time>2026-04-26T13:50:16.24Z</time></trkpt><trkpt lat="39.9068008" lon="20.4568991"><ele>563.0</ele><time>2026-04-26T13:50:17.24Z</time></trkpt><trkpt lat="39.9067841" lon="20.4572452"><ele>563.5</ele><time>2026-04-26T13:50:18.24Z</time></trkpt><trkpt lat="39.9067715" lon="20.4575996"><ele>564.0</ele><time>2026-04-26T13:50:19.239Z</time></trkpt><trkpt lat="39.9067698" lon="20.457954"><ele>562.0</ele><time>2026-04-26T13:50:20.239Z</time></trkpt><trkpt lat="39.9067839" lon="20.4583169"><ele>560.0</ele><time>2026-04-26T13:50:21.239Z</time></trkpt><trkpt lat="39.9068107" lon="20.4586822"><ele>559.0</ele><time>2026-04-26T13:50:22.24Z</time></trkpt><trkpt lat="39.9068466" lon="20.4590344"><ele>558.0</ele><time>2026-04-26T13:50:23.24Z</time></trkpt><trkpt lat="39.9068929" lon="20.4593857"><ele>557.5</ele><time>2026-04-26T13:50:24.24Z</time></trkpt><trkpt lat="39.906953" lon="20.4597289"><ele>557.0</ele><time>2026-04-26T13:50:25.24Z</time></trkpt><trkpt lat="39.9070272" lon="20.4600685"><ele>557.0</ele><time>2026-04-26T13:50:26.239Z</time></trkpt><trkpt lat="39.907106" lon="20.4603903"><ele>557.0</ele><time>2026-04-26T13:50:27.239Z</time></trkpt><trkpt lat="39.9071953" lon="20.4607039"><ele>556.0</ele><time>2026-04-26T13:50:28.24Z</time></trkpt><trkpt lat="39.9072917" lon="20.4610072"><ele>555.0</ele><time>2026-04-26T13:50:29.239Z</time></trkpt><trkpt lat="39.9073919" lon="20.4613024"><ele>554.5</ele><time>2026-04-26T13:50:30.24Z</time></trkpt><trkpt lat="39.9074946" lon="20.4615958"><ele>554.0</ele><time>2026-04-26T13:50:31.24Z</time></trkpt><trkpt lat="39.9075949" lon="20.4618852"><ele>559.5</ele><time>2026-04-26T13:50:32.24Z</time></trkpt><trkpt lat="39.9076862" lon="20.4621767"><ele>565.0</ele><time>2026-04-26T13:50:33.239Z</time></trkpt><trkpt lat="39.9077647" lon="20.4624665"><ele>565.0</ele><time>2026-04-26T13:50:34.239Z</time></trkpt><trkpt lat="39.9078249" lon="20.4627563"><ele>565.0</ele><time>2026-04-26T13:50:35.24Z</time></trkpt><trkpt lat="39.9078671" lon="20.4630504"><ele>566.0</ele><time>2026-04-26T13:50:36.24Z</time></trkpt><trkpt lat="39.9079039" lon="20.4633421"><ele>567.0</ele><time>2026-04-26T13:50:37.239Z</time></trkpt><trkpt lat="39.9079247" lon="20.4636302"><ele>568.0</ele><time>2026-04-26T13:50:38.24Z</time></trkpt><trkpt lat="39.9079345" lon="20.4639206"><ele>568.0</ele><time>2026-04-26T13:50:39.239Z</time></trkpt><trkpt lat="39.9079254" lon="20.4642049"><ele>568.0</ele><time>2026-04-26T13:50:40.239Z</time></trkpt><trkpt lat="39.9079199" lon="20.4644954"><ele>568.0</ele><time>2026-04-26T13:50:41.239Z</time></trkpt><trkpt lat="39.9079184" lon="20.4648002"><ele>570.3333333333334</ele><time>2026-04-26T13:50:42.239Z</time></trkpt><trkpt lat="39.9079089" lon="20.4650892"><ele>572.6666666666666</ele><time>2026-04-26T13:50:43.24Z</time></trkpt><trkpt lat="39.9078951" lon="20.4653792"><ele>575.0</ele><time>2026-04-26T13:50:44.24Z</time></trkpt><trkpt lat="39.9078801" lon="20.4656636"><ele>575.0</ele><time>2026-04-26T13:50:45.24Z</time></trkpt><trkpt lat="39.9078733" lon="20.4659487"><ele>575.0</ele><time>2026-04-26T13:50:46.239Z</time></trkpt><trkpt lat="39.9078564" lon="20.4662283"><ele>575.0</ele><time>2026-04-26T13:50:47.239Z</time></trkpt><trkpt lat="39.9078392" lon="20.4665114"><ele>575.0</ele><time>2026-04-26T13:50:48.24Z</time></trkpt><trkpt lat="39.9078234" lon="20.4667972"><ele>575.0</ele><time>2026-04-26T13:50:49.239Z</time></trkpt><trkpt lat="39.9078014" lon="20.4670868"><ele>575.0</ele><time>2026-04-26T13:50:50.24Z</time></trkpt><trkpt lat="39.9077834" lon="20.4673606"><ele>573.0</ele><time>2026-04-26T13:50:51.24Z</time></trkpt><trkpt lat="39.9077581" lon="20.4676334"><ele>571.0</ele><time>2026-04-26T13:50:52.239Z</time></trkpt><trkpt lat="39.9077298" lon="20.4678923"><ele>569.0</ele><time>2026-04-26T13:50:53.239Z</time></trkpt><trkpt lat="39.9077074" lon="20.4681613"><ele>568.0</ele><time>2026-04-26T13:50:54.24Z</time></trkpt><trkpt lat="39.9076769" lon="20.4684186"><ele>567.0</ele><time>2026-04-26T13:50:55.24Z</time></trkpt><trkpt lat="39.9076474" lon="20.4686795"><ele>566.0</ele><time>2026-04-26T13:50:56.239Z</time></trkpt><trkpt lat="39.9076199" lon="20.4689435"><ele>566.0</ele><time>2026-04-26T13:50:57.24Z</time></trkpt><trkpt lat="39.9075907" lon="20.4692094"><ele>566.0</ele><time>2026-04-26T13:50:58.24Z</time></trkpt><trkpt lat="39.9075608" lon="20.4694753"><ele>566.0</ele><time>2026-04-26T13:50:59.24Z</time></trkpt><trkpt lat="39.9075272" lon="20.4697428"><ele>565.6666666666666</ele><time>2026-04-26T13:51:00.239Z</time></trkpt><trkpt lat="39.9075062" lon="20.4700209"><ele>565.3333333333334</ele><time>2026-04-26T13:51:01.24Z</time></trkpt><trkpt lat="39.9074773" lon="20.4702912"><ele>565.0</ele><time>2026-04-26T13:51:02.239Z</time></trkpt><trkpt lat="39.9074455" lon="20.4705614"><ele>564.3333333333334</ele><time>2026-04-26T13:51:03.24Z</time></trkpt><trkpt lat="39.9074131" lon="20.4708331"><ele>563.6666666666666</ele><time>2026-04-26T13:51:04.24Z</time></trkpt><trkpt lat="39.9073777" lon="20.4711109"><ele>563.0</ele><time>2026-04-26T13:51:05.24Z</time></trkpt><trkpt lat="39.9073391" lon="20.4713858"><ele>563.0</ele><time>2026-04-26T13:51:06.24Z</time></trkpt><trkpt lat="39.9073054" lon="20.4716588"><ele>563.0</ele><time>2026-04-26T13:51:07.24Z</time></trkpt><trkpt lat="39.9072718" lon="20.4719293"><ele>563.0</ele><time>2026-04-26T13:51:08.239Z</time></trkpt><trkpt lat="39.9072356" lon="20.472194"><ele>563.6666666666666</ele><time>2026-04-26T13:51:09.24Z</time></trkpt><trkpt lat="39.9071962" lon="20.4724557"><ele>564.3333333333334</ele><time>2026-04-26T13:51:10.239Z</time></trkpt><trkpt lat="39.9071508" lon="20.4727131"><ele>565.0</ele><time>2026-04-26T13:51:11.239Z</time></trkpt><trkpt lat="39.907106" lon="20.47297"><ele>566.0</ele><time>2026-04-26T13:51:12.24Z</time></trkpt><trkpt lat="39.9070551" lon="20.4732303"><ele>567.0</ele><time>2026-04-26T13:51:13.24Z</time></trkpt><trkpt lat="39.9069986" lon="20.4734941"><ele>568.0</ele><time>2026-04-26T13:51:14.24Z</time></trkpt><trkpt lat="39.9069439" lon="20.4737659"><ele>567.0</ele><time>2026-04-26T13:51:15.239Z</time></trkpt><trkpt lat="39.9068831" lon="20.4740374"><ele>566.0</ele><time>2026-04-26T13:51:16.24Z</time></trkpt><trkpt lat="39.9068186" lon="20.4743068"><ele>565.0</ele><time>2026-04-26T13:51:17.239Z</time></trkpt><trkpt lat="39.9067472" lon="20.474577"><ele>565.0</ele><time>2026-04-26T13:51:18.239Z</time></trkpt><trkpt lat="39.9066759" lon="20.4748584"><ele>565.0</ele><time>2026-04-26T13:51:19.24Z</time></trkpt><trkpt lat="39.9066003" lon="20.475128"><ele>565.0</ele><time>2026-04-26T13:51:20.239Z</time></trkpt><trkpt lat="39.9065207" lon="20.4754095"><ele>564.5</ele><time>2026-04-26T13:51:21.239Z</time></trkpt><trkpt lat="39.9064392" lon="20.475687"><ele>564.0</ele><time>2026-04-26T13:51:22.24Z</time></trkpt><trkpt lat="39.906353" lon="20.4759688"><ele>564.0</ele><time>2026-04-26T13:51:23.239Z</time></trkpt><trkpt lat="39.9062715" lon="20.4762477"><ele>564.0</ele><time>2026-04-26T13:51:24.24Z</time></trkpt><trkpt lat="39.9061939" lon="20.4765266"><ele>563.3333333333334</ele><time>2026-04-26T13:51:25.24Z</time></trkpt><trkpt lat="39.9061145" lon="20.4767979"><ele>562.6666666666667</ele><time>2026-04-26T13:51:26.24Z</time></trkpt><trkpt lat="39.9060398" lon="20.4770722"><ele>562.0</ele><time>2026-04-26T13:51:27.24Z</time></trkpt><trkpt lat="39.9059641" lon="20.477346"><ele>563.0</ele><time>2026-04-26T13:51:28.24Z</time></trkpt><trkpt lat="39.9059028" lon="20.4776299"><ele>564.0</ele><time>2026-04-26T13:51:29.24Z</time></trkpt><trkpt lat="39.9058485" lon="20.477927"><ele>563.0</ele><time>2026-04-26T13:51:30.24Z</time></trkpt><trkpt lat="39.9058009" lon="20.478223"><ele>562.0</ele><time>2026-04-26T13:51:31.24Z</time></trkpt><trkpt lat="39.9057724" lon="20.4785175"><ele>563.0</ele><time>2026-04-26T13:51:32.24Z</time></trkpt><trkpt lat="39.905745" lon="20.4788071"><ele>564.0</ele><time>2026-04-26T13:51:33.239Z</time></trkpt><trkpt lat="39.9057218" lon="20.4791015"><ele>564.0</ele><time>2026-04-26T13:51:34.239Z</time></trkpt><trkpt lat="39.9056983" lon="20.4793973"><ele>564.0</ele><time>2026-04-26T13:51:35.239Z</time></trkpt><trkpt lat="39.9056755" lon="20.479695"><ele>562.5</ele><time>2026-04-26T13:51:36.239Z</time></trkpt><trkpt lat="39.9056554" lon="20.4799915"><ele>561.0</ele><time>2026-04-26T13:51:37.24Z</time></trkpt><trkpt lat="39.9056444" lon="20.4802904"><ele>559.5</ele><time>2026-04-26T13:51:38.239Z</time></trkpt><trkpt lat="39.9056264" lon="20.4805848"><ele>558.0</ele><time>2026-04-26T13:51:39.24Z</time></trkpt><trkpt lat="39.9056074" lon="20.4808784"><ele>558.0</ele><time>2026-04-26T13:51:40.24Z</time></trkpt><trkpt lat="39.9055886" lon="20.4811736"><ele>558.0</ele><time>2026-04-26T13:51:41.239Z</time></trkpt><trkpt lat="39.9055649" lon="20.481474"><ele>557.0</ele><time>2026-04-26T13:51:42.239Z</time></trkpt><trkpt lat="39.9055488" lon="20.4817794"><ele>556.0</ele><time>2026-04-26T13:51:43.24Z</time></trkpt><trkpt lat="39.9055254" lon="20.4820795"><ele>554.5</ele><time>2026-04-26T13:51:44.239Z</time></trkpt><trkpt lat="39.9054951" lon="20.482372"><ele>553.0</ele><time>2026-04-26T13:51:45.239Z</time></trkpt><trkpt lat="39.9054678" lon="20.4826657"><ele>554.5</ele><time>2026-04-26T13:51:46.24Z</time></trkpt><trkpt lat="39.9054418" lon="20.4829582"><ele>556.0</ele><time>2026-04-26T13:51:47.24Z</time></trkpt><trkpt lat="39.9054189" lon="20.4832589"><ele>556.0</ele><time>2026-04-26T13:51:48.239Z</time></trkpt><trkpt lat="39.9053967" lon="20.4835652"><ele>556.0</ele><time>2026-04-26T13:51:49.239Z</time></trkpt><trkpt lat="39.9053754" lon="20.4838678"><ele>554.5</ele><time>2026-04-26T13:51:50.24Z</time></trkpt><trkpt lat="39.9053577" lon="20.484175"><ele>553.0</ele><time>2026-04-26T13:51:51.239Z</time></trkpt><trkpt lat="39.9053586" lon="20.4844932"><ele>550.5</ele><time>2026-04-26T13:51:52.24Z</time></trkpt><trkpt lat="39.9053766" lon="20.4848026"><ele>548.0</ele><time>2026-04-26T13:51:53.239Z</time></trkpt><trkpt lat="39.905416" lon="20.485105"><ele>548.0</ele><time>2026-04-26T13:51:54.239Z</time></trkpt><trkpt lat="39.9054744" lon="20.4853977"><ele>548.0</ele><time>2026-04-26T13:51:55.24Z</time></trkpt><trkpt lat="39.9055382" lon="20.4856717"><ele>545.3333333333333</ele><time>2026-04-26T13:51:56.239Z</time></trkpt><trkpt lat="39.9056306" lon="20.4859314"><ele>542.6666666666666</ele><time>2026-04-26T13:51:57.239Z</time></trkpt><trkpt lat="39.9057203" lon="20.4861806"><ele>540.0</ele><time>2026-04-26T13:51:58.239Z</time></trkpt><trkpt lat="39.9058068" lon="20.4864161"><ele>539.3333333333334</ele><time>2026-04-26T13:51:59.239Z</time></trkpt><trkpt lat="39.9059006" lon="20.4866599"><ele>538.6666666666667</ele><time>2026-04-26T13:52:00.24Z</time></trkpt><trkpt lat="39.9059995" lon="20.4869017"><ele>538.0</ele><time>2026-04-26T13:52:01.24Z</time></trkpt><trkpt lat="39.9060918" lon="20.4871595"><ele>538.0</ele><time>2026-04-26T13:52:02.239Z</time></trkpt><trkpt lat="39.9061756" lon="20.4874351"><ele>538.0</ele><time>2026-04-26T13:52:03.239Z</time></trkpt><trkpt lat="39.906246" lon="20.4877246"><ele>536.5</ele><time>2026-04-26T13:52:04.239Z</time></trkpt><trkpt lat="39.9063035" lon="20.488027"><ele>535.0</ele><time>2026-04-26T13:52:05.24Z</time></trkpt><trkpt lat="39.9063433" lon="20.488337"><ele>535.0</ele><time>2026-04-26T13:52:06.239Z</time></trkpt><trkpt lat="39.9063683" lon="20.4886396"><ele>535.0</ele><time>2026-04-26T13:52:07.239Z</time></trkpt><trkpt lat="39.9063814" lon="20.4889456"><ele>535.0</ele><time>2026-04-26T13:52:08.239Z</time></trkpt><trkpt lat="39.9063912" lon="20.4892485"><ele>535.0</ele><time>2026-04-26T13:52:09.24Z</time></trkpt><trkpt lat="39.9063991" lon="20.4895453"><ele>533.5</ele><time>2026-04-26T13:52:10.24Z</time></trkpt><trkpt lat="39.906405" lon="20.4898386"><ele>532.0</ele><time>2026-04-26T13:52:11.24Z</time></trkpt><trkpt lat="39.9064124" lon="20.4901359"><ele>531.0</ele><time>2026-04-26T13:52:12.24Z</time></trkpt><trkpt lat="39.9064181" lon="20.4904296"><ele>530.0</ele><time>2026-04-26T13:52:13.239Z</time></trkpt><trkpt lat="39.9064236" lon="20.4907223"><ele>530.0</ele><time>2026-04-26T13:52:14.239Z</time></trkpt><trkpt lat="39.9064308" lon="20.4910164"><ele>530.0</ele><time>2026-04-26T13:52:15.24Z</time></trkpt><trkpt lat="39.9064356" lon="20.491314"><ele>529.0</ele><time>2026-04-26T13:52:16.239Z</time></trkpt><trkpt lat="39.9064455" lon="20.4916171"><ele>528.0</ele><time>2026-04-26T13:52:17.24Z</time></trkpt><trkpt lat="39.9064518" lon="20.4919125"><ele>527.0</ele><time>2026-04-26T13:52:18.239Z</time></trkpt><trkpt lat="39.9064606" lon="20.4922054"><ele>526.0</ele><time>2026-04-26T13:52:19.24Z</time></trkpt><trkpt lat="39.9064686" lon="20.4924934"><ele>525.0</ele><time>2026-04-26T13:52:20.24Z</time></trkpt><trkpt lat="39.9064734" lon="20.4927768"><ele>524.0</ele><time>2026-04-26T13:52:21.24Z</time></trkpt><trkpt lat="39.9064837" lon="20.4930547"><ele>523.0</ele><time>2026-04-26T13:52:22.239Z</time></trkpt><trkpt lat="39.9064883" lon="20.4933266"><ele>522.0</ele><time>2026-04-26T13:52:23.24Z</time></trkpt><trkpt lat="39.9064991" lon="20.4936022"><ele>519.3333333333334</ele><time>2026-04-26T13:52:24.239Z</time></trkpt><trkpt lat="39.9065078" lon="20.4938714"><ele>516.6666666666667</ele><time>2026-04-26T13:52:25.239Z</time></trkpt><trkpt lat="39.9065128" lon="20.4941326"><ele>514.0</ele><time>2026-04-26T13:52:26.239Z</time></trkpt><trkpt lat="39.9065167" lon="20.4943971"><ele>512.6666666666667</ele><time>2026-04-26T13:52:27.24Z</time></trkpt><trkpt lat="39.9065064" lon="20.494659"><ele>511.33333333333337</ele><time>2026-04-26T13:52:28.24Z</time></trkpt><trkpt lat="39.9064752" lon="20.4949124"><ele>510.0</ele><time>2026-04-26T13:52:29.24Z</time></trkpt><trkpt lat="39.9064366" lon="20.4951646"><ele>510.0</ele><time>2026-04-26T13:52:30.24Z</time></trkpt><trkpt lat="39.9063755" lon="20.4954032"><ele>510.0</ele><time>2026-04-26T13:52:31.239Z</time></trkpt><trkpt lat="39.9063056" lon="20.4956303"><ele>510.0</ele><time>2026-04-26T13:52:32.24Z</time></trkpt><trkpt lat="39.906226" lon="20.4958452"><ele>510.66666666666663</ele><time>2026-04-26T13:52:33.239Z</time></trkpt><trkpt lat="39.9061412" lon="20.4960516"><ele>511.3333333333333</ele><time>2026-04-26T13:52:34.239Z</time></trkpt><trkpt lat="39.9060682" lon="20.4962608"><ele>512.0</ele><time>2026-04-26T13:52:35.24Z</time></trkpt><trkpt lat="39.9060087" lon="20.4964687"><ele>513.6666666666666</ele><time>2026-04-26T13:52:36.24Z</time></trkpt><trkpt lat="39.905958" lon="20.4966787"><ele>515.3333333333334</ele><time>2026-04-26T13:52:37.239Z</time></trkpt><trkpt lat="39.905918" lon="20.4968837"><ele>517.0</ele><time>2026-04-26T13:52:38.24Z</time></trkpt><trkpt lat="39.9058907" lon="20.497091"><ele>509.33333333333337</ele><time>2026-04-26T13:52:39.24Z</time></trkpt><trkpt lat="39.9058717" lon="20.4972934"><ele>501.66666666666663</ele><time>2026-04-26T13:52:40.24Z</time></trkpt><trkpt lat="39.9058689" lon="20.4975051"><ele>494.0</ele><time>2026-04-26T13:52:41.24Z</time></trkpt><trkpt lat="39.9058777" lon="20.497712"><ele>492.0</ele><time>2026-04-26T13:52:42.24Z</time></trkpt><trkpt lat="39.9058994" lon="20.4979223"><ele>490.0</ele><time>2026-04-26T13:52:43.239Z</time></trkpt><trkpt lat="39.9059353" lon="20.4981344"><ele>488.0</ele><time>2026-04-26T13:52:44.24Z</time></trkpt><trkpt lat="39.9059806" lon="20.498344"><ele>489.0</ele><time>2026-04-26T13:52:45.24Z</time></trkpt><trkpt lat="39.906042" lon="20.498561"><ele>490.0</ele><time>2026-04-26T13:52:46.24Z</time></trkpt><trkpt lat="39.9061205" lon="20.4987624"><ele>491.0</ele><time>2026-04-26T13:52:47.24Z</time></trkpt><trkpt lat="39.9061957" lon="20.4989671"><ele>491.0</ele><time>2026-04-26T13:52:48.239Z</time></trkpt><trkpt lat="39.906288" lon="20.4991688"><ele>491.0</ele><time>2026-04-26T13:52:49.239Z</time></trkpt><trkpt lat="39.9063763" lon="20.4993703"><ele>491.0</ele><time>2026-04-26T13:52:50.239Z</time></trkpt><trkpt lat="39.9064554" lon="20.4995833"><ele>486.3333333333333</ele><time>2026-04-26T13:52:51.239Z</time></trkpt><trkpt lat="39.9065228" lon="20.4998119"><ele>481.66666666666663</ele><time>2026-04-26T13:52:52.239Z</time></trkpt><trkpt lat="39.9065842" lon="20.5000563"><ele>477.0</ele><time>2026-04-26T13:52:53.24Z</time></trkpt><trkpt lat="39.9066238" lon="20.5003085"><ele>474.66666666666663</ele><time>2026-04-26T13:52:54.24Z</time></trkpt><trkpt lat="39.906651" lon="20.5005669"><ele>472.3333333333333</ele><time>2026-04-26T13:52:55.239Z</time></trkpt><trkpt lat="39.9066644" lon="20.5008339"><ele>470.0</ele><time>2026-04-26T13:52:56.24Z</time></trkpt><trkpt lat="39.906666" lon="20.5011149"><ele>469.0</ele><time>2026-04-26T13:52:57.239Z</time></trkpt><trkpt lat="39.9066456" lon="20.5014185"><ele>468.0</ele><time>2026-04-26T13:52:58.239Z</time></trkpt><trkpt lat="39.9066099" lon="20.5017252"><ele>468.0</ele><time>2026-04-26T13:52:59.24Z</time></trkpt><trkpt lat="39.9065689" lon="20.502016"><ele>468.0</ele><time>2026-04-26T13:53:00.24Z</time></trkpt><trkpt lat="39.9065326" lon="20.502285"><ele>468.0</ele><time>2026-04-26T13:53:01.239Z</time></trkpt><trkpt lat="39.9065015" lon="20.5025334"><ele>470.0</ele><time>2026-04-26T13:53:02.239Z</time></trkpt><trkpt lat="39.9064759" lon="20.502771"><ele>472.0</ele><time>2026-04-26T13:53:03.239Z</time></trkpt><trkpt lat="39.9064653" lon="20.5030067"><ele>474.0</ele><time>2026-04-26T13:53:04.24Z</time></trkpt><trkpt lat="39.9064676" lon="20.5032395"><ele>474.0</ele><time>2026-04-26T13:53:05.239Z</time></trkpt><trkpt lat="39.9064897" lon="20.503496"><ele>474.0</ele><time>2026-04-26T13:53:06.239Z</time></trkpt><trkpt lat="39.9065224" lon="20.5037501"><ele>474.0</ele><time>2026-04-26T13:53:07.239Z</time></trkpt><trkpt lat="39.9065686" lon="20.5040007"><ele>474.0</ele><time>2026-04-26T13:53:08.239Z</time></trkpt><trkpt lat="39.906625" lon="20.504236"><ele>474.0</ele><time>2026-04-26T13:53:09.239Z</time></trkpt><trkpt lat="39.9066944" lon="20.5044551"><ele>474.0</ele><time>2026-04-26T13:53:10.239Z</time></trkpt><trkpt lat="39.9067676" lon="20.5046489"><ele>479.66666666666663</ele><time>2026-04-26T13:53:11.239Z</time></trkpt><trkpt lat="39.9068423" lon="20.5048339"><ele>485.3333333333333</ele><time>2026-04-26T13:53:12.24Z</time></trkpt><trkpt lat="39.9069235" lon="20.5050227"><ele>491.0</ele><time>2026-04-26T13:53:13.24Z</time></trkpt><trkpt lat="39.9070029" lon="20.5052084"><ele>491.0</ele><time>2026-04-26T13:53:14.24Z</time></trkpt><trkpt lat="39.907078" lon="20.5053998"><ele>491.0</ele><time>2026-04-26T13:53:15.24Z</time></trkpt><trkpt lat="39.9071392" lon="20.5055969"><ele>491.0</ele><time>2026-04-26T13:53:16.24Z</time></trkpt><trkpt lat="39.9071893" lon="20.5058076"><ele>487.0</ele><time>2026-04-26T13:53:17.24Z</time></trkpt><trkpt lat="39.907235" lon="20.5060264"><ele>483.0</ele><time>2026-04-26T13:53:18.24Z</time></trkpt><trkpt lat="39.9072669" lon="20.5062414"><ele>479.0</ele><time>2026-04-26T13:53:19.24Z</time></trkpt><trkpt lat="39.9072868" lon="20.5064564"><ele>479.0</ele><time>2026-04-26T13:53:20.24Z</time></trkpt><trkpt lat="39.9072931" lon="20.506671"><ele>479.0</ele><time>2026-04-26T13:53:21.239Z</time></trkpt><trkpt lat="39.9072834" lon="20.506881"><ele>479.0</ele><time>2026-04-26T13:53:22.24Z</time></trkpt><trkpt lat="39.9072652" lon="20.5070844"><ele>479.0</ele><time>2026-04-26T13:53:23.239Z</time></trkpt><trkpt lat="39.9072365" lon="20.5072869"><ele>479.0</ele><time>2026-04-26T13:53:24.239Z</time></trkpt><trkpt lat="39.9071972" lon="20.5074891"><ele>479.0</ele><time>2026-04-26T13:53:25.239Z</time></trkpt><trkpt lat="39.9071451" lon="20.5076912"><ele>479.0</ele><time>2026-04-26T13:53:26.239Z</time></trkpt><trkpt lat="39.9070837" lon="20.5078934"><ele>479.0</ele><time>2026-04-26T13:53:27.24Z</time></trkpt><trkpt lat="39.9070101" lon="20.5080924"><ele>479.0</ele><time>2026-04-26T13:53:28.239Z</time></trkpt><trkpt lat="39.9069281" lon="20.5082867"><ele>481.3333333333333</ele><time>2026-04-26T13:53:29.24Z</time></trkpt><trkpt lat="39.906843" lon="20.5084806"><ele>483.66666666666663</ele><time>2026-04-26T13:53:30.24Z</time></trkpt><trkpt lat="39.906758" lon="20.5086669"><ele>486.0</ele><time>2026-04-26T13:53:31.239Z</time></trkpt><trkpt lat="39.9066721" lon="20.508856"><ele>480.66666666666663</ele><time>2026-04-26T13:53:32.239Z</time></trkpt><trkpt lat="39.9065951" lon="20.5090536"><ele>475.3333333333333</ele><time>2026-04-26T13:53:33.24Z</time></trkpt><trkpt lat="39.9065241" lon="20.5092593"><ele>470.0</ele><time>2026-04-26T13:53:34.239Z</time></trkpt><trkpt lat="39.9064644" lon="20.5094763"><ele>470.3333333333333</ele><time>2026-04-26T13:53:35.24Z</time></trkpt><trkpt lat="39.9064067" lon="20.5096831"><ele>470.66666666666663</ele><time>2026-04-26T13:53:36.239Z</time></trkpt><trkpt lat="39.9063703" lon="20.5098923"><ele>471.0</ele><time>2026-04-26T13:53:37.24Z</time></trkpt><trkpt lat="39.9063373" lon="20.5100991"><ele>471.0</ele><time>2026-04-26T13:53:38.239Z</time></trkpt><trkpt lat="39.9063001" lon="20.5102999"><ele>471.0</ele><time>2026-04-26T13:53:39.24Z</time></trkpt><trkpt lat="39.9062598" lon="20.5104983"><ele>471.0</ele><time>2026-04-26T13:53:40.239Z</time></trkpt><trkpt lat="39.9062116" lon="20.5106933"><ele>473.66666666666663</ele><time>2026-04-26T13:53:41.24Z</time></trkpt><trkpt lat="39.9061632" lon="20.5108838"><ele>476.3333333333333</ele><time>2026-04-26T13:53:42.24Z</time></trkpt><trkpt lat="39.9060835" lon="20.5110767"><ele>479.0</ele><time>2026-04-26T13:53:43.239Z</time></trkpt><trkpt lat="39.9060013" lon="20.5112618"><ele>475.66666666666663</ele><time>2026-04-26T13:53:44.239Z</time></trkpt><trkpt lat="39.905912" lon="20.511437"><ele>472.33333333333337</ele><time>2026-04-26T13:53:45.24Z</time></trkpt><trkpt lat="39.9058172" lon="20.5116163"><ele>469.0</ele><time>2026-04-26T13:53:46.24Z</time></trkpt><trkpt lat="39.905716" lon="20.5117774"><ele>469.0</ele><time>2026-04-26T13:53:47.239Z</time></trkpt><trkpt lat="39.9055977" lon="20.5119289"><ele>469.0</ele><time>2026-04-26T13:53:48.239Z</time></trkpt><trkpt lat="39.9054764" lon="20.512094"><ele>469.0</ele><time>2026-04-26T13:53:49.239Z</time></trkpt><trkpt lat="39.9053194" lon="20.5122462"><ele>467.33333333333337</ele><time>2026-04-26T13:53:50.24Z</time></trkpt><trkpt lat="39.9051499" lon="20.5123677"><ele>465.66666666666663</ele><time>2026-04-26T13:53:51.24Z</time></trkpt><trkpt lat="39.9049516" lon="20.5124869"><ele>464.0</ele><time>2026-04-26T13:53:52.24Z</time></trkpt><trkpt lat="39.904759" lon="20.5126001"><ele>464.0</ele><time>2026-04-26T13:53:53.24Z</time></trkpt><trkpt lat="39.9045019" lon="20.5127224"><ele>464.0</ele><time>2026-04-26T13:53:54.24Z</time></trkpt><trkpt lat="39.9042567" lon="20.512865"><ele>465.5</ele><time>2026-04-26T13:53:55.239Z</time></trkpt><trkpt lat="39.9040093" lon="20.5130273"><ele>467.0</ele><time>2026-04-26T13:53:56.24Z</time></trkpt><trkpt lat="39.9037707" lon="20.5132297"><ele>467.0</ele><time>2026-04-26T13:53:57.239Z</time></trkpt><trkpt lat="39.9035433" lon="20.513453"><ele>467.0</ele><time>2026-04-26T13:53:58.24Z</time></trkpt><trkpt lat="39.9033293" lon="20.5136903"><ele>466.5</ele><time>2026-04-26T13:53:59.239Z</time></trkpt><trkpt lat="39.9031287" lon="20.5139569"><ele>466.0</ele><time>2026-04-26T13:54:00.239Z</time></trkpt><trkpt lat="39.9029256" lon="20.5142654"><ele>466.5</ele><time>2026-04-26T13:54:01.24Z</time></trkpt><trkpt lat="39.9027419" lon="20.5146068"><ele>467.0</ele><time>2026-04-26T13:54:02.239Z</time></trkpt><trkpt lat="39.9025739" lon="20.5149632"><ele>465.0</ele><time>2026-04-26T13:54:03.239Z</time></trkpt><trkpt lat="39.9024216" lon="20.515338"><ele>463.0</ele><time>2026-04-26T13:54:04.24Z</time></trkpt><trkpt lat="39.9022712" lon="20.5157084"><ele>463.0</ele><time>2026-04-26T13:54:05.24Z</time></trkpt><trkpt lat="39.9021257" lon="20.5160695"><ele>463.0</ele><time>2026-04-26T13:54:06.24Z</time></trkpt><trkpt lat="39.901986" lon="20.5164256"><ele>462.5</ele><time>2026-04-26T13:54:07.239Z</time></trkpt><trkpt lat="39.9018489" lon="20.5167857"><ele>462.0</ele><time>2026-04-26T13:54:08.239Z</time></trkpt><trkpt lat="39.9017265" lon="20.5171521"><ele>462.0</ele><time>2026-04-26T13:54:09.24Z</time></trkpt><trkpt lat="39.901623" lon="20.517521"><ele>462.0</ele><time>2026-04-26T13:54:10.24Z</time></trkpt><trkpt lat="39.901527" lon="20.5178924"><ele>463.0</ele><time>2026-04-26T13:54:11.24Z</time></trkpt><trkpt lat="39.9014368" lon="20.5182718"><ele>464.0</ele><time>2026-04-26T13:54:12.24Z</time></trkpt><trkpt lat="39.9013528" lon="20.5186435"><ele>465.5</ele><time>2026-04-26T13:54:13.239Z</time></trkpt><trkpt lat="39.9012671" lon="20.5190112"><ele>467.0</ele><time>2026-04-26T13:54:14.239Z</time></trkpt><trkpt lat="39.9011862" lon="20.519379"><ele>468.5</ele><time>2026-04-26T13:54:15.24Z</time></trkpt><trkpt lat="39.9011027" lon="20.5197341"><ele>470.0</ele><time>2026-04-26T13:54:16.24Z</time></trkpt><trkpt lat="39.9010208" lon="20.5200809"><ele>470.0</ele><time>2026-04-26T13:54:17.24Z</time></trkpt><trkpt lat="39.9009402" lon="20.5204237"><ele>470.0</ele><time>2026-04-26T13:54:18.24Z</time></trkpt><trkpt lat="39.9008662" lon="20.5207636"><ele>470.0</ele><time>2026-04-26T13:54:19.24Z</time></trkpt><trkpt lat="39.9007988" lon="20.5211078"><ele>470.0</ele><time>2026-04-26T13:54:20.239Z</time></trkpt><trkpt lat="39.9007468" lon="20.5214515"><ele>470.0</ele><time>2026-04-26T13:54:21.239Z</time></trkpt><trkpt lat="39.9007213" lon="20.5218001"><ele>470.0</ele><time>2026-04-26T13:54:22.24Z</time></trkpt><trkpt lat="39.9007172" lon="20.522155"><ele>470.0</ele><time>2026-04-26T13:54:23.239Z</time></trkpt><trkpt lat="39.9007367" lon="20.5225116"><ele>470.0</ele><time>2026-04-26T13:54:24.239Z</time></trkpt><trkpt lat="39.9007848" lon="20.5228746"><ele>468.5</ele><time>2026-04-26T13:54:25.24Z</time></trkpt><trkpt lat="39.9008566" lon="20.5232388"><ele>467.0</ele><time>2026-04-26T13:54:26.24Z</time></trkpt><trkpt lat="39.9009561" lon="20.5235983"><ele>469.5</ele><time>2026-04-26T13:54:27.239Z</time></trkpt><trkpt lat="39.9010659" lon="20.5239626"><ele>472.0</ele><time>2026-04-26T13:54:28.239Z</time></trkpt><trkpt lat="39.9011825" lon="20.5243283"><ele>471.0</ele><time>2026-04-26T13:54:29.24Z</time></trkpt><trkpt lat="39.9012832" lon="20.5246812"><ele>470.0</ele><time>2026-04-26T13:54:30.239Z</time></trkpt><trkpt lat="39.9013683" lon="20.5250351"><ele>470.0</ele><time>2026-04-26T13:54:31.239Z</time></trkpt><trkpt lat="39.901438" lon="20.52539"><ele>470.0</ele><time>2026-04-26T13:54:32.239Z</time></trkpt><trkpt lat="39.9014812" lon="20.5257638"><ele>470.0</ele><time>2026-04-26T13:54:33.24Z</time></trkpt><trkpt lat="39.9015105" lon="20.5261519"><ele>470.0</ele><time>2026-04-26T13:54:34.239Z</time></trkpt><trkpt lat="39.9015159" lon="20.5265407"><ele>469.5</ele><time>2026-04-26T13:54:35.239Z</time></trkpt><trkpt lat="39.9015161" lon="20.5269358"><ele>469.0</ele><time>2026-04-26T13:54:36.24Z</time></trkpt><trkpt lat="39.9015307" lon="20.5273351"><ele>466.5</ele><time>2026-04-26T13:54:37.24Z</time></trkpt><trkpt lat="39.9015432" lon="20.5277295"><ele>464.0</ele><time>2026-04-26T13:54:38.24Z</time></trkpt><trkpt lat="39.9015506" lon="20.5281176"><ele>464.0</ele><time>2026-04-26T13:54:39.239Z</time></trkpt><trkpt lat="39.9015544" lon="20.5284987"><ele>464.0</ele><time>2026-04-26T13:54:40.239Z</time></trkpt><trkpt lat="39.9015506" lon="20.5288787"><ele>463.0</ele><time>2026-04-26T13:54:41.239Z</time></trkpt><trkpt lat="39.9015352" lon="20.5292569"><ele>462.0</ele><time>2026-04-26T13:54:42.24Z</time></trkpt><trkpt lat="39.901504" lon="20.5296293"><ele>460.5</ele><time>2026-04-26T13:54:43.24Z</time></trkpt><trkpt lat="39.9014559" lon="20.5300002"><ele>459.0</ele><time>2026-04-26T13:54:44.24Z</time></trkpt><trkpt lat="39.9013856" lon="20.5303635"><ele>461.0</ele><time>2026-04-26T13:54:45.239Z</time></trkpt><trkpt lat="39.9012962" lon="20.5307138"><ele>463.0</ele><time>2026-04-26T13:54:46.24Z</time></trkpt><trkpt lat="39.9012005" lon="20.5310514"><ele>464.5</ele><time>2026-04-26T13:54:47.24Z</time></trkpt><trkpt lat="39.9010824" lon="20.5313929"><ele>466.0</ele><time>2026-04-26T13:54:48.24Z</time></trkpt><trkpt lat="39.9009641" lon="20.5317404"><ele>464.0</ele><time>2026-04-26T13:54:49.24Z</time></trkpt><trkpt lat="39.9008462" lon="20.532092"><ele>462.0</ele><time>2026-04-26T13:54:50.239Z</time></trkpt><trkpt lat="39.90074" lon="20.5324405"><ele>462.0</ele><time>2026-04-26T13:54:51.24Z</time></trkpt><trkpt lat="39.9006488" lon="20.5328082"><ele>462.0</ele><time>2026-04-26T13:54:52.239Z</time></trkpt><trkpt lat="39.9005817" lon="20.5331558"><ele>464.5</ele><time>2026-04-26T13:54:53.239Z</time></trkpt><trkpt lat="39.9005192" lon="20.5335036"><ele>467.0</ele><time>2026-04-26T13:54:54.239Z</time></trkpt><trkpt lat="39.9004542" lon="20.5338538"><ele>468.5</ele><time>2026-04-26T13:54:55.239Z</time></trkpt><trkpt lat="39.9003729" lon="20.5342003"><ele>470.0</ele><time>2026-04-26T13:54:56.24Z</time></trkpt><trkpt lat="39.9002754" lon="20.5345327"><ele>472.5</ele><time>2026-04-26T13:54:57.24Z</time></trkpt><trkpt lat="39.9001606" lon="20.5348522"><ele>475.0</ele><time>2026-04-26T13:54:58.239Z</time></trkpt><trkpt lat="39.9000341" lon="20.5351652"><ele>470.5</ele><time>2026-04-26T13:54:59.239Z</time></trkpt><trkpt lat="39.8998966" lon="20.5354695"><ele>466.0</ele><time>2026-04-26T13:55:00.239Z</time></trkpt><trkpt lat="39.8997518" lon="20.53576"><ele>466.0</ele><time>2026-04-26T13:55:01.24Z</time></trkpt><trkpt lat="39.8996012" lon="20.5360452"><ele>466.0</ele><time>2026-04-26T13:55:02.239Z</time></trkpt><trkpt lat="39.8994596" lon="20.5363513"><ele>469.5</ele><time>2026-04-26T13:55:03.24Z</time></trkpt><trkpt lat="39.8993356" lon="20.5366717"><ele>473.0</ele><time>2026-04-26T13:55:04.24Z</time></trkpt><trkpt lat="39.8992167" lon="20.537005"><ele>465.0</ele><time>2026-04-26T13:55:05.24Z</time></trkpt><trkpt lat="39.8991209" lon="20.5373426"><ele>457.0</ele><time>2026-04-26T13:55:06.239Z</time></trkpt><trkpt lat="39.8990363" lon="20.5376756"><ele>457.5</ele><time>2026-04-26T13:55:07.24Z</time></trkpt><trkpt lat="39.8989643" lon="20.5380148"><ele>458.0</ele><time>2026-04-26T13:55:08.239Z</time></trkpt><trkpt lat="39.898862" lon="20.5383396"><ele>458.0</ele><time>2026-04-26T13:55:09.239Z</time></trkpt><trkpt lat="39.8987467" lon="20.538653"><ele>458.0</ele><time>2026-04-26T13:55:10.239Z</time></trkpt><trkpt lat="39.8986085" lon="20.5389577"><ele>457.5</ele><time>2026-04-26T13:55:11.24Z</time></trkpt><trkpt lat="39.8984483" lon="20.5392498"><ele>457.0</ele><time>2026-04-26T13:55:12.239Z</time></trkpt><trkpt lat="39.8982719" lon="20.5395194"><ele>448.5</ele><time>2026-04-26T13:55:13.239Z</time></trkpt><trkpt lat="39.8980961" lon="20.5397879"><ele>440.0</ele><time>2026-04-26T13:55:14.24Z</time></trkpt><trkpt lat="39.8979157" lon="20.5400565"><ele>440.0</ele><time>2026-04-26T13:55:15.24Z</time></trkpt><trkpt lat="39.8977429" lon="20.5403243"><ele>440.0</ele><time>2026-04-26T13:55:16.239Z</time></trkpt><trkpt lat="39.897587" lon="20.5406167"><ele>439.5</ele><time>2026-04-26T13:55:17.239Z</time></trkpt><trkpt lat="39.8974492" lon="20.540915"><ele>439.0</ele><time>2026-04-26T13:55:18.239Z</time></trkpt><trkpt lat="39.8973333" lon="20.5412239"><ele>434.5</ele><time>2026-04-26T13:55:19.24Z</time></trkpt><trkpt lat="39.8972238" lon="20.5415363"><ele>430.0</ele><time>2026-04-26T13:55:20.239Z</time></trkpt><trkpt lat="39.897126" lon="20.5418533"><ele>424.5</ele><time>2026-04-26T13:55:21.24Z</time></trkpt><trkpt lat="39.8970395" lon="20.5421661"><ele>419.0</ele><time>2026-04-26T13:55:22.24Z</time></trkpt><trkpt lat="39.8969516" lon="20.5424858"><ele>419.0</ele><time>2026-04-26T13:55:23.24Z</time></trkpt><trkpt lat="39.896867" lon="20.5428061"><ele>419.0</ele><time>2026-04-26T13:55:24.239Z</time></trkpt><trkpt lat="39.896778" lon="20.543126"><ele>418.5</ele><time>2026-04-26T13:55:25.239Z</time></trkpt><trkpt lat="39.8966925" lon="20.5434419"><ele>418.0</ele><time>2026-04-26T13:55:26.239Z</time></trkpt><trkpt lat="39.8966064" lon="20.5437504"><ele>425.5</ele><time>2026-04-26T13:55:27.239Z</time></trkpt><trkpt lat="39.8965263" lon="20.5440557"><ele>433.0</ele><time>2026-04-26T13:55:28.24Z</time></trkpt><trkpt lat="39.8964446" lon="20.5443556"><ele>441.5</ele><time>2026-04-26T13:55:29.24Z</time></trkpt><trkpt lat="39.8963655" lon="20.5446508"><ele>450.0</ele><time>2026-04-26T13:55:30.24Z</time></trkpt><trkpt lat="39.8962753" lon="20.5449364"><ele>450.0</ele><time>2026-04-26T13:55:31.239Z</time></trkpt><trkpt lat="39.8961768" lon="20.5452068"><ele>450.0</ele><time>2026-04-26T13:55:32.24Z</time></trkpt><trkpt lat="39.8960753" lon="20.5454636"><ele>450.33333333333337</ele><time>2026-04-26T13:55:33.239Z</time></trkpt><trkpt lat="39.8959754" lon="20.5456934"><ele>450.6666666666667</ele><time>2026-04-26T13:55:34.239Z</time></trkpt><trkpt lat="39.8958716" lon="20.5459106"><ele>451.0</ele><time>2026-04-26T13:55:35.239Z</time></trkpt><trkpt lat="39.8957486" lon="20.5461074"><ele>455.33333333333337</ele><time>2026-04-26T13:55:36.239Z</time></trkpt><trkpt lat="39.8956076" lon="20.5462885"><ele>459.66666666666663</ele><time>2026-04-26T13:55:37.24Z</time></trkpt><trkpt lat="39.8954536" lon="20.5464391"><ele>464.0</ele><time>2026-04-26T13:55:38.239Z</time></trkpt><trkpt lat="39.8952974" lon="20.5465875"><ele>464.0</ele><time>2026-04-26T13:55:39.239Z</time></trkpt><trkpt lat="39.8951416" lon="20.5467491"><ele>464.0</ele><time>2026-04-26T13:55:40.239Z</time></trkpt><trkpt lat="39.8949814" lon="20.5469198"><ele>464.0</ele><time>2026-04-26T13:55:41.24Z</time></trkpt><trkpt lat="39.8948262" lon="20.5470977"><ele>463.66666666666663</ele><time>2026-04-26T13:55:42.239Z</time></trkpt><trkpt lat="39.8946779" lon="20.5472974"><ele>463.33333333333337</ele><time>2026-04-26T13:55:43.239Z</time></trkpt><trkpt lat="39.8945368" lon="20.5475295"><ele>463.0</ele><time>2026-04-26T13:55:44.24Z</time></trkpt><trkpt lat="39.8944036" lon="20.547775"><ele>463.5</ele><time>2026-04-26T13:55:45.239Z</time></trkpt><trkpt lat="39.8942795" lon="20.548033"><ele>464.0</ele><time>2026-04-26T13:55:46.24Z</time></trkpt><trkpt lat="39.8941668" lon="20.5482952"><ele>464.0</ele><time>2026-04-26T13:55:47.24Z</time></trkpt><trkpt lat="39.8940597" lon="20.5485519"><ele>464.0</ele><time>2026-04-26T13:55:48.24Z</time></trkpt><trkpt lat="39.8939729" lon="20.5487903"><ele>464.0</ele><time>2026-04-26T13:55:49.239Z</time></trkpt><trkpt lat="39.8939091" lon="20.5490369"><ele>464.0</ele><time>2026-04-26T13:55:50.24Z</time></trkpt><trkpt lat="39.8938709" lon="20.5492798"><ele>464.0</ele><time>2026-04-26T13:55:51.239Z</time></trkpt><trkpt lat="39.8938557" lon="20.5495083"><ele>464.0</ele><time>2026-04-26T13:55:52.24Z</time></trkpt><trkpt lat="39.8938672" lon="20.5497456"><ele>464.3333333333333</ele><time>2026-04-26T13:55:53.24Z</time></trkpt><trkpt lat="39.8939099" lon="20.5499961"><ele>464.66666666666663</ele><time>2026-04-26T13:55:54.239Z</time></trkpt><trkpt lat="39.8939838" lon="20.5502464"><ele>465.0</ele><time>2026-04-26T13:55:55.239Z</time></trkpt><trkpt lat="39.89408" lon="20.5504856"><ele>465.0</ele><time>2026-04-26T13:55:56.24Z</time></trkpt><trkpt lat="39.8942019" lon="20.5507273"><ele>465.0</ele><time>2026-04-26T13:55:57.24Z</time></trkpt><trkpt lat="39.8943199" lon="20.5509536"><ele>465.0</ele><time>2026-04-26T13:55:58.24Z</time></trkpt><trkpt lat="39.8944445" lon="20.5511831"><ele>464.0</ele><time>2026-04-26T13:55:59.239Z</time></trkpt><trkpt lat="39.8945602" lon="20.5514141"><ele>463.0</ele><time>2026-04-26T13:56:00.239Z</time></trkpt><trkpt lat="39.8946797" lon="20.5516436"><ele>462.0</ele><time>2026-04-26T13:56:01.24Z</time></trkpt><trkpt lat="39.8947885" lon="20.5518623"><ele>462.0</ele><time>2026-04-26T13:56:02.239Z</time></trkpt><trkpt lat="39.8948978" lon="20.5520762"><ele>462.0</ele><time>2026-04-26T13:56:03.24Z</time></trkpt><trkpt lat="39.895006" lon="20.55229"><ele>462.0</ele><time>2026-04-26T13:56:04.239Z</time></trkpt><trkpt lat="39.8951006" lon="20.5524901"><ele>462.33333333333337</ele><time>2026-04-26T13:56:05.239Z</time></trkpt><trkpt lat="39.895188" lon="20.552679"><ele>462.6666666666667</ele><time>2026-04-26T13:56:06.24Z</time></trkpt><trkpt lat="39.8952667" lon="20.5528778"><ele>463.0</ele><time>2026-04-26T13:56:07.239Z</time></trkpt><trkpt lat="39.8953379" lon="20.5530569"><ele>463.0</ele><time>2026-04-26T13:56:08.24Z</time></trkpt><trkpt lat="39.8954038" lon="20.5532424"><ele>463.0</ele><time>2026-04-26T13:56:09.24Z</time></trkpt><trkpt lat="39.8954487" lon="20.5534369"><ele>463.0</ele><time>2026-04-26T13:56:10.24Z</time></trkpt><trkpt lat="39.8954814" lon="20.5536582"><ele>463.0</ele><time>2026-04-26T13:56:11.24Z</time></trkpt><trkpt lat="39.8955058" lon="20.5538797"><ele>463.0</ele><time>2026-04-26T13:56:12.239Z</time></trkpt><trkpt lat="39.8955135" lon="20.5541354"><ele>463.0</ele><time>2026-04-26T13:56:13.239Z</time></trkpt><trkpt lat="39.8955106" lon="20.5543885"><ele>463.33333333333337</ele><time>2026-04-26T13:56:14.239Z</time></trkpt><trkpt lat="39.8954966" lon="20.5546519"><ele>463.66666666666663</ele><time>2026-04-26T13:56:15.239Z</time></trkpt><trkpt lat="39.8954793" lon="20.5549221"><ele>464.0</ele><time>2026-04-26T13:56:16.239Z</time></trkpt><trkpt lat="39.8954593" lon="20.555203"><ele>465.3333333333333</ele><time>2026-04-26T13:56:17.239Z</time></trkpt><trkpt lat="39.8954284" lon="20.555473"><ele>466.66666666666663</ele><time>2026-04-26T13:56:18.24Z</time></trkpt><trkpt lat="39.8953993" lon="20.5557448"><ele>468.0</ele><time>2026-04-26T13:56:19.24Z</time></trkpt><trkpt lat="39.8953623" lon="20.5560208"><ele>468.0</ele><time>2026-04-26T13:56:20.24Z</time></trkpt><trkpt lat="39.8953413" lon="20.5563136"><ele>468.0</ele><time>2026-04-26T13:56:21.239Z</time></trkpt><trkpt lat="39.8953102" lon="20.5565814"><ele>468.0</ele><time>2026-04-26T13:56:22.24Z</time></trkpt><trkpt lat="39.8952749" lon="20.5568522"><ele>466.33333333333337</ele><time>2026-04-26T13:56:23.24Z</time></trkpt><trkpt lat="39.8952489" lon="20.5571224"><ele>464.6666666666667</ele><time>2026-04-26T13:56:24.239Z</time></trkpt><trkpt lat="39.8952231" lon="20.5573877"><ele>463.0</ele><time>2026-04-26T13:56:25.24Z</time></trkpt><trkpt lat="39.8951874" lon="20.5576499"><ele>462.6666666666667</ele><time>2026-04-26T13:56:26.24Z</time></trkpt><trkpt lat="39.8951555" lon="20.557899"><ele>462.33333333333337</ele><time>2026-04-26T13:56:27.24Z</time></trkpt><trkpt lat="39.8951271" lon="20.5581396"><ele>462.0</ele><time>2026-04-26T13:56:28.24Z</time></trkpt><trkpt lat="39.8950809" lon="20.5583794"><ele>458.33333333333337</ele><time>2026-04-26T13:56:29.24Z</time></trkpt><trkpt lat="39.8950349" lon="20.5586287"><ele>454.6666666666667</ele><time>2026-04-26T13:56:30.24Z</time></trkpt><trkpt lat="39.8949677" lon="20.5588584"><ele>451.0</ele><time>2026-04-26T13:56:31.239Z</time></trkpt><trkpt lat="39.8948671" lon="20.5590929"><ele>451.0</ele><time>2026-04-26T13:56:32.239Z</time></trkpt><trkpt lat="39.8947451" lon="20.5593192"><ele>451.0</ele><time>2026-04-26T13:56:33.239Z</time></trkpt><trkpt lat="39.8946311" lon="20.5595363"><ele>451.0</ele><time>2026-04-26T13:56:34.24Z</time></trkpt><trkpt lat="39.8945157" lon="20.5597445"><ele>452.33333333333337</ele><time>2026-04-26T13:56:35.24Z</time></trkpt><trkpt lat="39.8943582" lon="20.5599352"><ele>453.66666666666663</ele><time>2026-04-26T13:56:36.24Z</time></trkpt><trkpt lat="39.8941913" lon="20.5601196"><ele>455.0</ele><time>2026-04-26T13:56:37.239Z</time></trkpt><trkpt lat="39.894036" lon="20.5602852"><ele>452.0</ele><time>2026-04-26T13:56:38.239Z</time></trkpt><trkpt lat="39.8938677" lon="20.5604598"><ele>449.0</ele><time>2026-04-26T13:56:39.239Z</time></trkpt><trkpt lat="39.8937025" lon="20.5606399"><ele>446.0</ele><time>2026-04-26T13:56:40.24Z</time></trkpt><trkpt lat="39.8935399" lon="20.5608336"><ele>444.0</ele><time>2026-04-26T13:56:41.24Z</time></trkpt><trkpt lat="39.8933921" lon="20.5610423"><ele>442.0</ele><time>2026-04-26T13:56:42.24Z</time></trkpt><trkpt lat="39.8932469" lon="20.5612605"><ele>440.0</ele><time>2026-04-26T13:56:43.24Z</time></trkpt><trkpt lat="39.8931048" lon="20.5614757"><ele>440.0</ele><time>2026-04-26T13:56:44.239Z</time></trkpt><trkpt lat="39.8929707" lon="20.5616888"><ele>440.0</ele><time>2026-04-26T13:56:45.24Z</time></trkpt><trkpt lat="39.892842" lon="20.561898"><ele>440.0</ele><time>2026-04-26T13:56:46.24Z</time></trkpt><trkpt lat="39.8927029" lon="20.5621065"><ele>437.66666666666663</ele><time>2026-04-26T13:56:47.239Z</time></trkpt><trkpt lat="39.8925867" lon="20.5623198"><ele>435.33333333333337</ele><time>2026-04-26T13:56:48.239Z</time></trkpt><trkpt lat="39.8924819" lon="20.562547"><ele>433.0</ele><time>2026-04-26T13:56:49.24Z</time></trkpt><trkpt lat="39.8923998" lon="20.5627893"><ele>432.6666666666667</ele><time>2026-04-26T13:56:50.24Z</time></trkpt><trkpt lat="39.8923254" lon="20.5630418"><ele>432.33333333333337</ele><time>2026-04-26T13:56:51.239Z</time></trkpt><trkpt lat="39.8922731" lon="20.5633069"><ele>432.0</ele><time>2026-04-26T13:56:52.239Z</time></trkpt><trkpt lat="39.8922463" lon="20.5635839"><ele>431.33333333333337</ele><time>2026-04-26T13:56:53.239Z</time></trkpt><trkpt lat="39.8922292" lon="20.5638702"><ele>430.6666666666667</ele><time>2026-04-26T13:56:54.24Z</time></trkpt><trkpt lat="39.8922177" lon="20.5641544"><ele>430.0</ele><time>2026-04-26T13:56:55.239Z</time></trkpt><trkpt lat="39.8922125" lon="20.5644475"><ele>429.33333333333337</ele><time>2026-04-26T13:56:56.239Z</time></trkpt><trkpt lat="39.8922029" lon="20.5647437"><ele>428.66666666666663</ele><time>2026-04-26T13:56:57.24Z</time></trkpt><trkpt lat="39.8921876" lon="20.5650242"><ele>428.0</ele><time>2026-04-26T13:56:58.239Z</time></trkpt><trkpt lat="39.8921613" lon="20.565314"><ele>427.0</ele><time>2026-04-26T13:56:59.24Z</time></trkpt><trkpt lat="39.8921338" lon="20.5656049"><ele>426.0</ele><time>2026-04-26T13:57:00.24Z</time></trkpt><trkpt lat="39.8921" lon="20.5658918"><ele>425.0</ele><time>2026-04-26T13:57:01.239Z</time></trkpt><trkpt lat="39.8920498" lon="20.5661869"><ele>422.5</ele><time>2026-04-26T13:57:02.24Z</time></trkpt><trkpt lat="39.8919872" lon="20.5664854"><ele>420.0</ele><time>2026-04-26T13:57:03.239Z</time></trkpt><trkpt lat="39.8919231" lon="20.5667825"><ele>421.0</ele><time>2026-04-26T13:57:04.24Z</time></trkpt><trkpt lat="39.891853" lon="20.5670811"><ele>422.0</ele><time>2026-04-26T13:57:05.239Z</time></trkpt><trkpt lat="39.8917796" lon="20.5673781"><ele>423.5</ele><time>2026-04-26T13:57:06.239Z</time></trkpt><trkpt lat="39.8917089" lon="20.5676672"><ele>425.0</ele><time>2026-04-26T13:57:07.24Z</time></trkpt><trkpt lat="39.8916369" lon="20.5679685"><ele>425.0</ele><time>2026-04-26T13:57:08.239Z</time></trkpt><trkpt lat="39.8915639" lon="20.5682651"><ele>425.0</ele><time>2026-04-26T13:57:09.24Z</time></trkpt><trkpt lat="39.8915026" lon="20.5685679"><ele>424.5</ele><time>2026-04-26T13:57:10.24Z</time></trkpt><trkpt lat="39.8914471" lon="20.5688716"><ele>424.0</ele><time>2026-04-26T13:57:11.24Z</time></trkpt><trkpt lat="39.8914003" lon="20.5691786"><ele>424.0</ele><time>2026-04-26T13:57:12.239Z</time></trkpt><trkpt lat="39.8913683" lon="20.5694844"><ele>424.0</ele><time>2026-04-26T13:57:13.24Z</time></trkpt><trkpt lat="39.8913448" lon="20.5697891"><ele>426.5</ele><time>2026-04-26T13:57:14.24Z</time></trkpt><trkpt lat="39.8913377" lon="20.5700945"><ele>429.0</ele><time>2026-04-26T13:57:15.24Z</time></trkpt><trkpt lat="39.8913436" lon="20.5704032"><ele>430.0</ele><time>2026-04-26T13:57:16.24Z</time></trkpt><trkpt lat="39.8913762" lon="20.5707207"><ele>431.0</ele><time>2026-04-26T13:57:17.239Z</time></trkpt><trkpt lat="39.8914201" lon="20.5710413"><ele>431.5</ele><time>2026-04-26T13:57:18.239Z</time></trkpt><trkpt lat="39.8914763" lon="20.5713649"><ele>432.0</ele><time>2026-04-26T13:57:19.24Z</time></trkpt><trkpt lat="39.8915328" lon="20.5716874"><ele>432.0</ele><time>2026-04-26T13:57:20.239Z</time></trkpt><trkpt lat="39.8915902" lon="20.5720119"><ele>432.0</ele><time>2026-04-26T13:57:21.24Z</time></trkpt><trkpt lat="39.8916475" lon="20.5723517"><ele>432.0</ele><time>2026-04-26T13:57:22.24Z</time></trkpt><trkpt lat="39.8917019" lon="20.5726761"><ele>432.0</ele><time>2026-04-26T13:57:23.24Z</time></trkpt><trkpt lat="39.8917684" lon="20.5729933"><ele>436.5</ele><time>2026-04-26T13:57:24.239Z</time></trkpt><trkpt lat="39.891825" lon="20.5733114"><ele>441.0</ele><time>2026-04-26T13:57:25.239Z</time></trkpt><trkpt lat="39.8918778" lon="20.5736157"><ele>443.5</ele><time>2026-04-26T13:57:26.24Z</time></trkpt><trkpt lat="39.8919108" lon="20.5739251"><ele>446.0</ele><time>2026-04-26T13:57:27.24Z</time></trkpt><trkpt lat="39.8919335" lon="20.5742457"><ele>450.5</ele><time>2026-04-26T13:57:28.24Z</time></trkpt><trkpt lat="39.891948" lon="20.5745639"><ele>455.0</ele><time>2026-04-26T13:57:29.239Z</time></trkpt><trkpt lat="39.8919541" lon="20.5748775"><ele>455.0</ele><time>2026-04-26T13:57:30.239Z</time></trkpt><trkpt lat="39.8919652" lon="20.5751861"><ele>455.0</ele><time>2026-04-26T13:57:31.239Z</time></trkpt><trkpt lat="39.8919683" lon="20.5754886"><ele>456.0</ele><time>2026-04-26T13:57:32.24Z</time></trkpt><trkpt lat="39.8919811" lon="20.5757852"><ele>457.0</ele><time>2026-04-26T13:57:33.239Z</time></trkpt><trkpt lat="39.8919809" lon="20.576079"><ele>456.0</ele><time>2026-04-26T13:57:34.239Z</time></trkpt><trkpt lat="39.8919962" lon="20.5763588"><ele>455.0</ele><time>2026-04-26T13:57:35.24Z</time></trkpt><trkpt lat="39.8920253" lon="20.5766352"><ele>454.0</ele><time>2026-04-26T13:57:36.24Z</time></trkpt><trkpt lat="39.892072" lon="20.5768948"><ele>450.0</ele><time>2026-04-26T13:57:37.239Z</time></trkpt><trkpt lat="39.8921448" lon="20.5771424"><ele>446.0</ele><time>2026-04-26T13:57:38.239Z</time></trkpt><trkpt lat="39.8922482" lon="20.5773638"><ele>442.0</ele><time>2026-04-26T13:57:39.239Z</time></trkpt><trkpt lat="39.8923672" lon="20.5775671"><ele>442.0</ele><time>2026-04-26T13:57:40.24Z</time></trkpt><trkpt lat="39.8925265" lon="20.5777383"><ele>442.0</ele><time>2026-04-26T13:57:41.24Z</time></trkpt><trkpt lat="39.8927042" lon="20.5778833"><ele>442.0</ele><time>2026-04-26T13:57:42.239Z</time></trkpt><trkpt lat="39.8929022" lon="20.5780074"><ele>440.0</ele><time>2026-04-26T13:57:43.24Z</time></trkpt><trkpt lat="39.8931111" lon="20.5781038"><ele>438.0</ele><time>2026-04-26T13:57:44.24Z</time></trkpt><trkpt lat="39.8933248" lon="20.5781735"><ele>436.0</ele><time>2026-04-26T13:57:45.239Z</time></trkpt><trkpt lat="39.8935405" lon="20.5782392"><ele>435.6666666666667</ele><time>2026-04-26T13:57:46.24Z</time></trkpt><trkpt lat="39.8937603" lon="20.578302"><ele>435.33333333333337</ele><time>2026-04-26T13:57:47.239Z</time></trkpt><trkpt lat="39.8939743" lon="20.5783733"><ele>435.0</ele><time>2026-04-26T13:57:48.24Z</time></trkpt><trkpt lat="39.8941805" lon="20.5784601"><ele>435.0</ele><time>2026-04-26T13:57:49.24Z</time></trkpt><trkpt lat="39.894376" lon="20.5785576"><ele>435.0</ele><time>2026-04-26T13:57:50.24Z</time></trkpt><trkpt lat="39.8945626" lon="20.57867"><ele>435.0</ele><time>2026-04-26T13:57:51.239Z</time></trkpt><trkpt lat="39.8947436" lon="20.5788023"><ele>435.0</ele><time>2026-04-26T13:57:52.24Z</time></trkpt><trkpt lat="39.8949136" lon="20.5789534"><ele>435.0</ele><time>2026-04-26T13:57:53.239Z</time></trkpt><trkpt lat="39.8950747" lon="20.5791231"><ele>435.0</ele><time>2026-04-26T13:57:54.239Z</time></trkpt><trkpt lat="39.8952276" lon="20.5793123"><ele>435.0</ele><time>2026-04-26T13:57:55.239Z</time></trkpt><trkpt lat="39.8953767" lon="20.5795052"><ele>435.0</ele><time>2026-04-26T13:57:56.239Z</time></trkpt><trkpt lat="39.8955148" lon="20.5797213"><ele>435.0</ele><time>2026-04-26T13:57:57.24Z</time></trkpt><trkpt lat="39.8956497" lon="20.5799435"><ele>435.0</ele><time>2026-04-26T13:57:58.24Z</time></trkpt><trkpt lat="39.8957852" lon="20.5801675"><ele>435.0</ele><time>2026-04-26T13:57:59.239Z</time></trkpt><trkpt lat="39.8959141" lon="20.5804001"><ele>435.0</ele><time>2026-04-26T13:58:00.24Z</time></trkpt><trkpt lat="39.8960359" lon="20.5806343"><ele>434.33333333333337</ele><time>2026-04-26T13:58:01.239Z</time></trkpt><trkpt lat="39.8961602" lon="20.5808695"><ele>433.6666666666667</ele><time>2026-04-26T13:58:02.239Z</time></trkpt><trkpt lat="39.8962697" lon="20.5811109"><ele>433.0</ele><time>2026-04-26T13:58:03.239Z</time></trkpt><trkpt lat="39.8963767" lon="20.5813596"><ele>433.0</ele><time>2026-04-26T13:58:04.239Z</time></trkpt><trkpt lat="39.8964668" lon="20.5816201"><ele>433.0</ele><time>2026-04-26T13:58:05.24Z</time></trkpt><trkpt lat="39.896542" lon="20.5818856"><ele>433.0</ele><time>2026-04-26T13:58:06.239Z</time></trkpt><trkpt lat="39.8966019" lon="20.5821592"><ele>432.0</ele><time>2026-04-26T13:58:07.24Z</time></trkpt><trkpt lat="39.8966463" lon="20.5824224"><ele>431.0</ele><time>2026-04-26T13:58:08.24Z</time></trkpt><trkpt lat="39.8966656" lon="20.5826837"><ele>430.0</ele><time>2026-04-26T13:58:09.239Z</time></trkpt><trkpt lat="39.8966602" lon="20.5829389"><ele>429.6666666666667</ele><time>2026-04-26T13:58:10.239Z</time></trkpt><trkpt lat="39.8966279" lon="20.5832023"><ele>429.33333333333337</ele><time>2026-04-26T13:58:11.24Z</time></trkpt><trkpt lat="39.8965726" lon="20.5834699"><ele>429.0</ele><time>2026-04-26T13:58:12.24Z</time></trkpt><trkpt lat="39.8964982" lon="20.5837316"><ele>429.0</ele><time>2026-04-26T13:58:13.24Z</time></trkpt><trkpt lat="39.8964141" lon="20.5839923"><ele>429.0</ele><time>2026-04-26T13:58:14.24Z</time></trkpt><trkpt lat="39.8963094" lon="20.5842371"><ele>429.0</ele><time>2026-04-26T13:58:15.24Z</time></trkpt><trkpt lat="39.8961876" lon="20.584468"><ele>429.33333333333337</ele><time>2026-04-26T13:58:16.239Z</time></trkpt><trkpt lat="39.8960591" lon="20.5846902"><ele>429.6666666666667</ele><time>2026-04-26T13:58:17.24Z</time></trkpt><trkpt lat="39.8959114" lon="20.5848944"><ele>430.0</ele><time>2026-04-26T13:58:18.239Z</time></trkpt><trkpt lat="39.8957656" lon="20.5850798"><ele>427.33333333333337</ele><time>2026-04-26T13:58:19.239Z</time></trkpt><trkpt lat="39.8956158" lon="20.5852746"><ele>424.66666666666663</ele><time>2026-04-26T13:58:20.24Z</time></trkpt><trkpt lat="39.8954725" lon="20.5854983"><ele>422.0</ele><time>2026-04-26T13:58:21.239Z</time></trkpt><trkpt lat="39.8953341" lon="20.5857373"><ele>421.5</ele><time>2026-04-26T13:58:22.24Z</time></trkpt><trkpt lat="39.8952068" lon="20.5859958"><ele>421.0</ele><time>2026-04-26T13:58:23.24Z</time></trkpt><trkpt lat="39.8950929" lon="20.5862655"><ele>419.5</ele><time>2026-04-26T13:58:24.239Z</time></trkpt><trkpt lat="39.8949887" lon="20.586544"><ele>418.0</ele><time>2026-04-26T13:58:25.239Z</time></trkpt><trkpt lat="39.8948963" lon="20.5868229"><ele>417.5</ele><time>2026-04-26T13:58:26.24Z</time></trkpt><trkpt lat="39.8948209" lon="20.5871187"><ele>417.0</ele><time>2026-04-26T13:58:27.24Z</time></trkpt><trkpt lat="39.8947597" lon="20.5874234"><ele>417.0</ele><time>2026-04-26T13:58:28.24Z</time></trkpt><trkpt lat="39.894717" lon="20.5877619"><ele>417.0</ele><time>2026-04-26T13:58:29.239Z</time></trkpt><trkpt lat="39.8946702" lon="20.5880795"><ele>414.5</ele><time>2026-04-26T13:58:30.24Z</time></trkpt><trkpt lat="39.8946297" lon="20.5883995"><ele>412.0</ele><time>2026-04-26T13:58:31.239Z</time></trkpt><trkpt lat="39.8945892" lon="20.5887124"><ele>411.5</ele><time>2026-04-26T13:58:32.239Z</time></trkpt><trkpt lat="39.8945501" lon="20.5890236"><ele>411.0</ele><time>2026-04-26T13:58:33.24Z</time></trkpt><trkpt lat="39.8945046" lon="20.5893395"><ele>412.5</ele><time>2026-04-26T13:58:34.239Z</time></trkpt><trkpt lat="39.8944572" lon="20.589652"><ele>414.0</ele><time>2026-04-26T13:58:35.24Z</time></trkpt><trkpt lat="39.8944166" lon="20.5899696"><ele>414.0</ele><time>2026-04-26T13:58:36.239Z</time></trkpt><trkpt lat="39.8943753" lon="20.5902837"><ele>414.0</ele><time>2026-04-26T13:58:37.239Z</time></trkpt><trkpt lat="39.8943437" lon="20.5905901"><ele>417.5</ele><time>2026-04-26T13:58:38.24Z</time></trkpt><trkpt lat="39.8943043" lon="20.5908979"><ele>421.0</ele><time>2026-04-26T13:58:39.24Z</time></trkpt><trkpt lat="39.8942723" lon="20.5911994"><ele>423.0</ele><time>2026-04-26T13:58:40.239Z</time></trkpt><trkpt lat="39.8942448" lon="20.5915143"><ele>425.0</ele><time>2026-04-26T13:58:41.239Z</time></trkpt><trkpt lat="39.8942255" lon="20.5918328"><ele>423.5</ele><time>2026-04-26T13:58:42.239Z</time></trkpt><trkpt lat="39.8942127" lon="20.5921511"><ele>422.0</ele><time>2026-04-26T13:58:43.239Z</time></trkpt><trkpt lat="39.8942081" lon="20.5924735"><ele>422.0</ele><time>2026-04-26T13:58:44.24Z</time></trkpt><trkpt lat="39.8942075" lon="20.5928081"><ele>422.0</ele><time>2026-04-26T13:58:45.24Z</time></trkpt><trkpt lat="39.8942102" lon="20.5931438"><ele>419.5</ele><time>2026-04-26T13:58:46.239Z</time></trkpt><trkpt lat="39.8942191" lon="20.5934817"><ele>417.0</ele><time>2026-04-26T13:58:47.239Z</time></trkpt><trkpt lat="39.8942345" lon="20.5938144"><ele>414.5</ele><time>2026-04-26T13:58:48.24Z</time></trkpt><trkpt lat="39.8942618" lon="20.5941467"><ele>412.0</ele><time>2026-04-26T13:58:49.239Z</time></trkpt><trkpt lat="39.8942847" lon="20.5944613"><ele>411.6666666666667</ele><time>2026-04-26T13:58:50.24Z</time></trkpt><trkpt lat="39.8943128" lon="20.5947528"><ele>411.33333333333337</ele><time>2026-04-26T13:58:51.24Z</time></trkpt><trkpt lat="39.894335" lon="20.5950396"><ele>411.0</ele><time>2026-04-26T13:58:52.239Z</time></trkpt><trkpt lat="39.894353" lon="20.5953261"><ele>411.0</ele><time>2026-04-26T13:58:53.239Z</time></trkpt><trkpt lat="39.8943752" lon="20.5956144"><ele>411.0</ele><time>2026-04-26T13:58:54.24Z</time></trkpt><trkpt lat="39.8943963" lon="20.5959047"><ele>411.0</ele><time>2026-04-26T13:58:55.239Z</time></trkpt><trkpt lat="39.8944076" lon="20.5961978"><ele>410.5</ele><time>2026-04-26T13:58:56.24Z</time></trkpt><trkpt lat="39.894421" lon="20.5964897"><ele>410.0</ele><time>2026-04-26T13:58:57.24Z</time></trkpt><trkpt lat="39.8944277" lon="20.5967835"><ele>408.5</ele><time>2026-04-26T13:58:58.24Z</time></trkpt><trkpt lat="39.8944216" lon="20.5970781"><ele>407.0</ele><time>2026-04-26T13:58:59.239Z</time></trkpt><trkpt lat="39.8944078" lon="20.5973766"><ele>407.0</ele><time>2026-04-26T13:59:00.239Z</time></trkpt><trkpt lat="39.8943899" lon="20.5976853"><ele>407.0</ele><time>2026-04-26T13:59:01.239Z</time></trkpt><trkpt lat="39.8943695" lon="20.5979897"><ele>406.66666666666663</ele><time>2026-04-26T13:59:02.239Z</time></trkpt><trkpt lat="39.8943425" lon="20.5982835"><ele>406.33333333333337</ele><time>2026-04-26T13:59:03.239Z</time></trkpt><trkpt lat="39.8943133" lon="20.5985686"><ele>406.0</ele><time>2026-04-26T13:59:04.24Z</time></trkpt><trkpt lat="39.8942818" lon="20.5988533"><ele>405.6666666666667</ele><time>2026-04-26T13:59:05.24Z</time></trkpt><trkpt lat="39.8942426" lon="20.5991344"><ele>405.33333333333337</ele><time>2026-04-26T13:59:06.239Z</time></trkpt><trkpt lat="39.8941959" lon="20.5994132"><ele>405.0</ele><time>2026-04-26T13:59:07.24Z</time></trkpt><trkpt lat="39.8941469" lon="20.5996987"><ele>404.33333333333337</ele><time>2026-04-26T13:59:08.24Z</time></trkpt><trkpt lat="39.8940917" lon="20.5999787"><ele>403.6666666666667</ele><time>2026-04-26T13:59:09.24Z</time></trkpt><trkpt lat="39.8940279" lon="20.6002588"><ele>403.0</ele><time>2026-04-26T13:59:10.239Z</time></trkpt><trkpt lat="39.8939606" lon="20.6005411"><ele>403.0</ele><time>2026-04-26T13:59:11.239Z</time></trkpt><trkpt lat="39.8938864" lon="20.6008198"><ele>403.0</ele><time>2026-04-26T13:59:12.24Z</time></trkpt><trkpt lat="39.893811" lon="20.6010982"><ele>402.0</ele><time>2026-04-26T13:59:13.239Z</time></trkpt><trkpt lat="39.8937307" lon="20.60138"><ele>401.0</ele><time>2026-04-26T13:59:14.24Z</time></trkpt><trkpt lat="39.893645" lon="20.6016568"><ele>401.0</ele><time>2026-04-26T13:59:15.24Z</time></trkpt><trkpt lat="39.8935641" lon="20.6019441"><ele>401.0</ele><time>2026-04-26T13:59:16.239Z</time></trkpt><trkpt lat="39.8934813" lon="20.6022385"><ele>401.0</ele><time>2026-04-26T13:59:17.24Z</time></trkpt><trkpt lat="39.8934004" lon="20.6025419"><ele>401.0</ele><time>2026-04-26T13:59:18.239Z</time></trkpt><trkpt lat="39.8933206" lon="20.6028335"><ele>400.5</ele><time>2026-04-26T13:59:19.24Z</time></trkpt><trkpt lat="39.8932418" lon="20.6031256"><ele>400.0</ele><time>2026-04-26T13:59:20.24Z</time></trkpt><trkpt lat="39.8931644" lon="20.6034163"><ele>399.5</ele><time>2026-04-26T13:59:21.239Z</time></trkpt><trkpt lat="39.8930897" lon="20.6037056"><ele>399.0</ele><time>2026-04-26T13:59:22.24Z</time></trkpt><trkpt lat="39.8930155" lon="20.6039855"><ele>399.0</ele><time>2026-04-26T13:59:23.239Z</time></trkpt><trkpt lat="39.892935" lon="20.604265"><ele>399.0</ele><time>2026-04-26T13:59:24.239Z</time></trkpt><trkpt lat="39.8928481" lon="20.604532"><ele>398.66666666666663</ele><time>2026-04-26T13:59:25.239Z</time></trkpt><trkpt lat="39.892761" lon="20.6047986"><ele>398.3333333333333</ele><time>2026-04-26T13:59:26.24Z</time></trkpt><trkpt lat="39.8926665" lon="20.6050477"><ele>398.0</ele><time>2026-04-26T13:59:27.24Z</time></trkpt><trkpt lat="39.8925633" lon="20.605287"><ele>397.3333333333333</ele><time>2026-04-26T13:59:28.24Z</time></trkpt><trkpt lat="39.8924507" lon="20.6055144"><ele>396.66666666666663</ele><time>2026-04-26T13:59:29.24Z</time></trkpt><trkpt lat="39.8923313" lon="20.6057386"><ele>396.0</ele><time>2026-04-26T13:59:30.239Z</time></trkpt><trkpt lat="39.8922063" lon="20.6059597"><ele>396.33333333333337</ele><time>2026-04-26T13:59:31.24Z</time></trkpt><trkpt lat="39.8920791" lon="20.6061777"><ele>396.6666666666667</ele><time>2026-04-26T13:59:32.24Z</time></trkpt><trkpt lat="39.8919431" lon="20.6063969"><ele>397.0</ele><time>2026-04-26T13:59:33.239Z</time></trkpt><trkpt lat="39.8918045" lon="20.606616"><ele>396.33333333333337</ele><time>2026-04-26T13:59:34.239Z</time></trkpt><trkpt lat="39.891658" lon="20.6068283"><ele>395.66666666666663</ele><time>2026-04-26T13:59:35.24Z</time></trkpt><trkpt lat="39.8915119" lon="20.6070378"><ele>395.0</ele><time>2026-04-26T13:59:36.24Z</time></trkpt><trkpt lat="39.8913642" lon="20.6072424"><ele>395.0</ele><time>2026-04-26T13:59:37.239Z</time></trkpt><trkpt lat="39.8912167" lon="20.6074461"><ele>395.0</ele><time>2026-04-26T13:59:38.24Z</time></trkpt><trkpt lat="39.8910683" lon="20.6076464"><ele>395.0</ele><time>2026-04-26T13:59:39.239Z</time></trkpt><trkpt lat="39.8909197" lon="20.6078426"><ele>394.66666666666663</ele><time>2026-04-26T13:59:40.239Z</time></trkpt><trkpt lat="39.8907774" lon="20.6080429"><ele>394.33333333333337</ele><time>2026-04-26T13:59:41.24Z</time></trkpt><trkpt lat="39.890643" lon="20.6082493"><ele>394.0</ele><time>2026-04-26T13:59:42.24Z</time></trkpt><trkpt lat="39.8905117" lon="20.6084491"><ele>394.0</ele><time>2026-04-26T13:59:43.24Z</time></trkpt><trkpt lat="39.890397" lon="20.6086441"><ele>394.0</ele><time>2026-04-26T13:59:44.239Z</time></trkpt><trkpt lat="39.8902887" lon="20.6088379"><ele>394.0</ele><time>2026-04-26T13:59:45.24Z</time></trkpt><trkpt lat="39.8901907" lon="20.6090321"><ele>394.0</ele><time>2026-04-26T13:59:46.239Z</time></trkpt><trkpt lat="39.8901098" lon="20.6092416"><ele>394.0</ele><time>2026-04-26T13:59:47.24Z</time></trkpt><trkpt lat="39.8900485" lon="20.6094661"><ele>394.0</ele><time>2026-04-26T13:59:48.239Z</time></trkpt><trkpt lat="39.8900157" lon="20.6097101"><ele>394.0</ele><time>2026-04-26T13:59:49.239Z</time></trkpt><trkpt lat="39.8899895" lon="20.6099505"><ele>394.0</ele><time>2026-04-26T13:59:50.239Z</time></trkpt><trkpt lat="39.889972" lon="20.6101978"><ele>394.0</ele><time>2026-04-26T13:59:51.24Z</time></trkpt><trkpt lat="39.8899639" lon="20.6104424"><ele>394.0</ele><time>2026-04-26T13:59:52.239Z</time></trkpt><trkpt lat="39.889955" lon="20.6106979"><ele>394.0</ele><time>2026-04-26T13:59:53.24Z</time></trkpt><trkpt lat="39.8899672" lon="20.6109499"><ele>394.0</ele><time>2026-04-26T13:59:54.24Z</time></trkpt><trkpt lat="39.8899963" lon="20.6112044"><ele>393.33333333333337</ele><time>2026-04-26T13:59:55.239Z</time></trkpt><trkpt lat="39.8900363" lon="20.6114662"><ele>392.66666666666663</ele><time>2026-04-26T13:59:56.239Z</time></trkpt><trkpt lat="39.8900695" lon="20.6117216"><ele>392.0</ele><time>2026-04-26T13:59:57.239Z</time></trkpt><trkpt lat="39.8900978" lon="20.6119839"><ele>392.3333333333333</ele><time>2026-04-26T13:59:58.239Z</time></trkpt><trkpt lat="39.8901266" lon="20.6122436"><ele>392.66666666666663</ele><time>2026-04-26T13:59:59.24Z</time></trkpt><trkpt lat="39.8901536" lon="20.6124988"><ele>393.0</ele><time>2026-04-26T14:00:00.24Z</time></trkpt><trkpt lat="39.8901766" lon="20.6127511"><ele>394.33333333333337</ele><time>2026-04-26T14:00:01.24Z</time></trkpt><trkpt lat="39.8901901" lon="20.6130059"><ele>395.6666666666667</ele><time>2026-04-26T14:00:02.24Z</time></trkpt><trkpt lat="39.8901866" lon="20.6132518"><ele>397.0</ele><time>2026-04-26T14:00:03.24Z</time></trkpt><trkpt lat="39.8901764" lon="20.613499"><ele>397.0</ele><time>2026-04-26T14:00:04.239Z</time></trkpt><trkpt lat="39.8901639" lon="20.6137471"><ele>397.0</ele><time>2026-04-26T14:00:05.24Z</time></trkpt><trkpt lat="39.8901496" lon="20.6139908"><ele>397.0</ele><time>2026-04-26T14:00:06.24Z</time></trkpt><trkpt lat="39.8901344" lon="20.6142296"><ele>397.0</ele><time>2026-04-26T14:00:07.239Z</time></trkpt><trkpt lat="39.8901186" lon="20.6144608"><ele>397.0</ele><time>2026-04-26T14:00:08.239Z</time></trkpt><trkpt lat="39.8901085" lon="20.6146891"><ele>397.0</ele><time>2026-04-26T14:00:09.239Z</time></trkpt><trkpt lat="39.8900926" lon="20.6149008"><ele>398.0</ele><time>2026-04-26T14:00:10.24Z</time></trkpt><trkpt lat="39.8900771" lon="20.6151057"><ele>399.0</ele><time>2026-04-26T14:00:11.239Z</time></trkpt><trkpt lat="39.8900627" lon="20.6153032"><ele>400.0</ele><time>2026-04-26T14:00:12.239Z</time></trkpt><trkpt lat="39.8900516" lon="20.6154992"><ele>400.5</ele><time>2026-04-26T14:00:13.239Z</time></trkpt><trkpt lat="39.8900366" lon="20.6156938"><ele>401.0</ele><time>2026-04-26T14:00:14.24Z</time></trkpt><trkpt lat="39.8900256" lon="20.6158939"><ele>401.5</ele><time>2026-04-26T14:00:15.239Z</time></trkpt><trkpt lat="39.8900129" lon="20.6160557"><ele>402.0</ele><time>2026-04-26T14:00:16.24Z</time></trkpt><trkpt lat="39.8900032" lon="20.6161987"><ele>402.5</ele><time>2026-04-26T14:00:17.239Z</time></trkpt><trkpt lat="39.8899932" lon="20.6163271"><ele>403.0</ele><time>2026-04-26T14:00:18.239Z</time></trkpt><trkpt lat="39.8899846" lon="20.6164383"><ele>403.5</ele><time>2026-04-26T14:00:19.24Z</time></trkpt><trkpt lat="39.8899692" lon="20.6165206"><ele>404.0</ele><time>2026-04-26T14:00:20.239Z</time></trkpt><trkpt lat="39.8899089" lon="20.6166295"><ele>404.5</ele><time>2026-04-26T14:00:22.24Z</time></trkpt><trkpt lat="39.8898541" lon="20.6166706"><ele>405.0</ele><time>2026-04-26T14:00:24.24Z</time></trkpt><trkpt lat="39.8898258" lon="20.6167448"><ele>404.99999999999994</ele><time>2026-04-26T14:02:01.239Z</time></trkpt><trkpt lat="39.8897662" lon="20.6166955"><ele>405.0</ele><time>2026-04-26T14:06:20.171Z</time></trkpt><trkpt lat="39.8897204" lon="20.6167575"><ele>405.0</ele><time>2026-04-26T14:07:07.239Z</time></trkpt><trkpt lat="39.8897642" lon="20.6168178"><ele>405.0</ele><time>2026-04-26T14:07:23.239Z</time></trkpt><trkpt lat="39.8898152" lon="20.6168954"><ele>405.0</ele><time>2026-04-26T14:09:34.245Z</time></trkpt><trkpt lat="39.8898151" lon="20.6168058"><ele>404.99999999999994</ele><time>2026-04-26T14:12:54.244Z</time></trkpt><trkpt lat="39.8897649" lon="20.6168678"><ele>405.0</ele><time>2026-04-26T14:13:02.244Z</time></trkpt><trkpt lat="39.8897963" lon="20.6167939"><ele>405.0</ele><time>2026-04-26T14:13:50.244Z</time></trkpt><trkpt lat="39.8897875" lon="20.616711"><ele>405.0</ele><time>2026-04-26T14:14:17.244Z</time></trkpt><trkpt lat="39.889816" lon="20.6167957"><ele>405.0</ele><time>2026-04-26T14:14:47.245Z</time></trkpt><trkpt lat="39.8897653" lon="20.6168661"><ele>405.0</ele><time>2026-04-26T14:15:24.244Z</time></trkpt><trkpt lat="39.8898458" lon="20.6170063"><ele>405.0</ele><time>2026-04-26T14:16:44.235Z</time></trkpt><trkpt lat="39.8898326" lon="20.6169237"><ele>405.0</ele><time>2026-04-26T14:16:47.235Z</time></trkpt><trkpt lat="39.8898969" lon="20.6170183"><ele>404.85714285714283</ele><time>2026-04-26T14:18:04.235Z</time></trkpt><trkpt lat="39.8899095" lon="20.6171033"><ele>404.7142857142857</ele><time>2026-04-26T14:18:05.235Z</time></trkpt><trkpt lat="39.889911" lon="20.6171951"><ele>404.57142857142856</ele><time>2026-04-26T14:18:06.234Z</time></trkpt><trkpt lat="39.8899025" lon="20.6172919"><ele>404.42857142857144</ele><time>2026-04-26T14:18:07.235Z</time></trkpt><trkpt lat="39.8898916" lon="20.6173876"><ele>404.2857142857143</ele><time>2026-04-26T14:18:08.234Z</time></trkpt><trkpt lat="39.8898858" lon="20.6174848"><ele>404.1428571428571</ele><time>2026-04-26T14:18:09.234Z</time></trkpt><trkpt lat="39.8898863" lon="20.617582"><ele>404.0</ele><time>2026-04-26T14:18:10.235Z</time></trkpt><trkpt lat="39.8898811" lon="20.6176685"><ele>403.99999999999994</ele><time>2026-04-26T14:18:11.235Z</time></trkpt><trkpt lat="39.8898735" lon="20.6177565"><ele>404.0</ele><time>2026-04-26T14:18:12.235Z</time></trkpt><trkpt lat="39.8898674" lon="20.617849"><ele>404.0</ele><time>2026-04-26T14:18:13.235Z</time></trkpt><trkpt lat="39.889859" lon="20.6179517"><ele>404.0</ele><time>2026-04-26T14:18:14.235Z</time></trkpt><trkpt lat="39.8898531" lon="20.6180601"><ele>403.99999999999994</ele><time>2026-04-26T14:18:15.234Z</time></trkpt><trkpt lat="39.8898443" lon="20.6181769"><ele>404.0</ele><time>2026-04-26T14:18:16.235Z</time></trkpt><trkpt lat="39.8898348" lon="20.6183046"><ele>404.2</ele><time>2026-04-26T14:18:17.234Z</time></trkpt><trkpt lat="39.8898248" lon="20.6184312"><ele>404.4</ele><time>2026-04-26T14:18:18.234Z</time></trkpt><trkpt lat="39.8898166" lon="20.6185537"><ele>404.6</ele><time>2026-04-26T14:18:19.235Z</time></trkpt><trkpt lat="39.8898051" lon="20.6186809"><ele>404.8</ele><time>2026-04-26T14:18:20.234Z</time></trkpt><trkpt lat="39.8898072" lon="20.618815"><ele>405.0</ele><time>2026-04-26T14:18:21.234Z</time></trkpt><trkpt lat="39.8897994" lon="20.6189417"><ele>405.2</ele><time>2026-04-26T14:18:22.235Z</time></trkpt><trkpt lat="39.8897953" lon="20.6190655"><ele>405.4</ele><time>2026-04-26T14:18:23.234Z</time></trkpt><trkpt lat="39.889788" lon="20.6191939"><ele>405.6</ele><time>2026-04-26T14:18:24.234Z</time></trkpt><trkpt lat="39.8897761" lon="20.6193285"><ele>405.8</ele><time>2026-04-26T14:18:25.234Z</time></trkpt><trkpt lat="39.8897639" lon="20.6194625"><ele>406.0</ele><time>2026-04-26T14:18:26.234Z</time></trkpt><trkpt lat="39.8897559" lon="20.6196013"><ele>406.5</ele><time>2026-04-26T14:18:27.234Z</time></trkpt><trkpt lat="39.8897446" lon="20.6197414"><ele>407.0</ele><time>2026-04-26T14:18:28.235Z</time></trkpt><trkpt lat="39.889739" lon="20.6198912"><ele>407.5</ele><time>2026-04-26T14:18:29.234Z</time></trkpt><trkpt lat="39.8897284" lon="20.6200393"><ele>408.0</ele><time>2026-04-26T14:18:30.235Z</time></trkpt><trkpt lat="39.889718" lon="20.6201898"><ele>408.2</ele><time>2026-04-26T14:18:31.234Z</time></trkpt><trkpt lat="39.8897169" lon="20.6203407"><ele>408.4</ele><time>2026-04-26T14:18:32.235Z</time></trkpt><trkpt lat="39.8897038" lon="20.6204721"><ele>408.59999999999997</ele><time>2026-04-26T14:18:33.234Z</time></trkpt><trkpt lat="39.8896951" lon="20.620587"><ele>408.79999999999995</ele><time>2026-04-26T14:18:34.234Z</time></trkpt><trkpt lat="39.8896889" lon="20.6207005"><ele>409.0</ele><time>2026-04-26T14:18:35.234Z</time></trkpt><trkpt lat="39.889679" lon="20.6208159"><ele>409.0</ele><time>2026-04-26T14:18:36.235Z</time></trkpt><trkpt lat="39.8896701" lon="20.6209306"><ele>409.0</ele><time>2026-04-26T14:18:37.234Z</time></trkpt><trkpt lat="39.8896591" lon="20.6210499"><ele>409.0</ele><time>2026-04-26T14:18:38.234Z</time></trkpt><trkpt lat="39.8896489" lon="20.6211736"><ele>409.0</ele><time>2026-04-26T14:18:39.235Z</time></trkpt><trkpt lat="39.8896413" lon="20.6213024"><ele>409.0</ele><time>2026-04-26T14:18:40.234Z</time></trkpt><trkpt lat="39.8896318" lon="20.621438"><ele>409.4</ele><time>2026-04-26T14:18:41.235Z</time></trkpt><trkpt lat="39.8896223" lon="20.6215801"><ele>409.79999999999995</ele><time>2026-04-26T14:18:42.234Z</time></trkpt><trkpt lat="39.8896115" lon="20.621722"><ele>410.20000000000005</ele><time>2026-04-26T14:18:43.234Z</time></trkpt><trkpt lat="39.889601" lon="20.6218663"><ele>410.6</ele><time>2026-04-26T14:18:44.235Z</time></trkpt><trkpt lat="39.8895944" lon="20.6220138"><ele>411.0</ele><time>2026-04-26T14:18:45.234Z</time></trkpt><trkpt lat="39.8895923" lon="20.6221589"><ele>411.20000000000005</ele><time>2026-04-26T14:18:46.234Z</time></trkpt><trkpt lat="39.8895915" lon="20.6223116"><ele>411.40000000000003</ele><time>2026-04-26T14:18:47.234Z</time></trkpt><trkpt lat="39.8895876" lon="20.6224578"><ele>411.6</ele><time>2026-04-26T14:18:48.234Z</time></trkpt><trkpt lat="39.8895884" lon="20.6226055"><ele>411.8</ele><time>2026-04-26T14:18:49.235Z</time></trkpt><trkpt lat="39.8895934" lon="20.6227366"><ele>412.0</ele><time>2026-04-26T14:18:50.235Z</time></trkpt><trkpt lat="39.8895873" lon="20.622858"><ele>412.1666666666667</ele><time>2026-04-26T14:18:51.234Z</time></trkpt><trkpt lat="39.88958" lon="20.6229709"><ele>412.33333333333337</ele><time>2026-04-26T14:18:52.235Z</time></trkpt><trkpt lat="39.8895744" lon="20.6230786"><ele>412.5</ele><time>2026-04-26T14:18:53.234Z</time></trkpt><trkpt lat="39.889566" lon="20.6231756"><ele>412.66666666666663</ele><time>2026-04-26T14:18:54.234Z</time></trkpt><trkpt lat="39.8895604" lon="20.6232636"><ele>412.8333333333333</ele><time>2026-04-26T14:18:55.234Z</time></trkpt><trkpt lat="39.8895602" lon="20.6233499"><ele>413.0</ele><time>2026-04-26T14:18:56.235Z</time></trkpt><trkpt lat="39.8895539" lon="20.6234808"><ele>412.99999999999994</ele><time>2026-04-26T14:18:58.235Z</time></trkpt><trkpt lat="39.8895393" lon="20.6235718"><ele>413.0</ele><time>2026-04-26T14:19:01.234Z</time></trkpt><trkpt lat="39.8894777" lon="20.6236499"><ele>413.0</ele><time>2026-04-26T14:19:07.234Z</time></trkpt><trkpt lat="39.8893613" lon="20.6237296"><ele>413.0</ele><time>2026-04-26T14:19:09.234Z</time></trkpt><trkpt lat="39.8892939" lon="20.6237609"><ele>412.99999999999994</ele><time>2026-04-26T14:19:10.234Z</time></trkpt><trkpt lat="39.8892187" lon="20.6237911"><ele>413.0</ele><time>2026-04-26T14:19:11.235Z</time></trkpt><trkpt lat="39.8891403" lon="20.6238214"><ele>412.49999999999994</ele><time>2026-04-26T14:19:12.235Z</time></trkpt><trkpt lat="39.8890642" lon="20.6238533"><ele>412.0</ele><time>2026-04-26T14:19:13.234Z</time></trkpt><trkpt lat="39.8889924" lon="20.6238896"><ele>411.5</ele><time>2026-04-26T14:19:14.235Z</time></trkpt><trkpt lat="39.888925" lon="20.6239225"><ele>411.0</ele><time>2026-04-26T14:19:15.234Z</time></trkpt><trkpt lat="39.8888647" lon="20.6239576"><ele>410.49999999999994</ele><time>2026-04-26T14:19:16.234Z</time></trkpt><trkpt lat="39.8887517" lon="20.6240116"><ele>410.0</ele><time>2026-04-26T14:19:18.234Z</time></trkpt><trkpt lat="39.8886346" lon="20.6240651"><ele>409.99999999999994</ele><time>2026-04-26T14:19:20.234Z</time></trkpt><trkpt lat="39.8885662" lon="20.624103"><ele>410.0</ele><time>2026-04-26T14:19:21.235Z</time></trkpt><trkpt lat="39.8884909" lon="20.6241433"><ele>410.0</ele><time>2026-04-26T14:19:22.234Z</time></trkpt><trkpt lat="39.8884076" lon="20.624189"><ele>410.0</ele><time>2026-04-26T14:19:23.235Z</time></trkpt><trkpt lat="39.8883171" lon="20.6242349"><ele>409.99999999999994</ele><time>2026-04-26T14:19:24.234Z</time></trkpt><trkpt lat="39.888235" lon="20.6242889"><ele>410.0</ele><time>2026-04-26T14:19:25.234Z</time></trkpt><trkpt lat="39.8881454" lon="20.6243296"><ele>409.6</ele><time>2026-04-26T14:19:26.235Z</time></trkpt><trkpt lat="39.8880521" lon="20.6243792"><ele>409.2</ele><time>2026-04-26T14:19:27.235Z</time></trkpt><trkpt lat="39.8879592" lon="20.6244233"><ele>408.79999999999995</ele><time>2026-04-26T14:19:28.235Z</time></trkpt><trkpt lat="39.8878695" lon="20.6244663"><ele>408.4</ele><time>2026-04-26T14:19:29.234Z</time></trkpt><trkpt lat="39.8877741" lon="20.6245107"><ele>408.0</ele><time>2026-04-26T14:19:30.235Z</time></trkpt><trkpt lat="39.8876794" lon="20.6245581"><ele>408.4</ele><time>2026-04-26T14:19:31.235Z</time></trkpt><trkpt lat="39.8875811" lon="20.6246049"><ele>408.79999999999995</ele><time>2026-04-26T14:19:32.235Z</time></trkpt><trkpt lat="39.8874862" lon="20.6246409"><ele>409.2</ele><time>2026-04-26T14:19:33.235Z</time></trkpt><trkpt lat="39.8873784" lon="20.6246765"><ele>409.6</ele><time>2026-04-26T14:19:34.234Z</time></trkpt><trkpt lat="39.8872664" lon="20.6247008"><ele>410.0</ele><time>2026-04-26T14:19:35.234Z</time></trkpt><trkpt lat="39.8871469" lon="20.6247208"><ele>410.0</ele><time>2026-04-26T14:19:36.234Z</time></trkpt><trkpt lat="39.8870244" lon="20.6247356"><ele>410.0</ele><time>2026-04-26T14:19:37.234Z</time></trkpt><trkpt lat="39.8869041" lon="20.6247569"><ele>410.0</ele><time>2026-04-26T14:19:38.234Z</time></trkpt><trkpt lat="39.8867814" lon="20.6247775"><ele>410.0</ele><time>2026-04-26T14:19:39.235Z</time></trkpt><trkpt lat="39.8866592" lon="20.6248047"><ele>410.75</ele><time>2026-04-26T14:19:40.234Z</time></trkpt><trkpt lat="39.8865303" lon="20.6248311"><ele>411.5</ele><time>2026-04-26T14:19:41.235Z</time></trkpt><trkpt lat="39.8864035" lon="20.6248692"><ele>412.25</ele><time>2026-04-26T14:19:42.235Z</time></trkpt><trkpt lat="39.8862708" lon="20.6249145"><ele>413.0</ele><time>2026-04-26T14:19:43.235Z</time></trkpt><trkpt lat="39.8861392" lon="20.6249784"><ele>413.0</ele><time>2026-04-26T14:19:44.235Z</time></trkpt><trkpt lat="39.8860102" lon="20.6250736"><ele>413.0</ele><time>2026-04-26T14:19:45.234Z</time></trkpt><trkpt lat="39.885875" lon="20.6251842"><ele>413.0</ele><time>2026-04-26T14:19:46.235Z</time></trkpt><trkpt lat="39.8857505" lon="20.6253094"><ele>415.66666666666663</ele><time>2026-04-26T14:19:47.234Z</time></trkpt><trkpt lat="39.8856244" lon="20.6254275"><ele>418.33333333333337</ele><time>2026-04-26T14:19:48.235Z</time></trkpt><trkpt lat="39.885499" lon="20.6255505"><ele>421.0</ele><time>2026-04-26T14:19:49.235Z</time></trkpt><trkpt lat="39.8853736" lon="20.6256766"><ele>421.0</ele><time>2026-04-26T14:19:50.234Z</time></trkpt><trkpt lat="39.8852529" lon="20.6258144"><ele>421.0</ele><time>2026-04-26T14:19:51.234Z</time></trkpt><trkpt lat="39.8851228" lon="20.6259526"><ele>421.0</ele><time>2026-04-26T14:19:52.234Z</time></trkpt><trkpt lat="39.8849952" lon="20.6260949"><ele>421.0</ele><time>2026-04-26T14:19:53.234Z</time></trkpt><trkpt lat="39.8848628" lon="20.6262394"><ele>421.0</ele><time>2026-04-26T14:19:54.235Z</time></trkpt><trkpt lat="39.8847334" lon="20.6263808"><ele>421.0</ele><time>2026-04-26T14:19:55.234Z</time></trkpt><trkpt lat="39.8846008" lon="20.6265173"><ele>421.0</ele><time>2026-04-26T14:19:56.234Z</time></trkpt><trkpt lat="39.8844783" lon="20.6266477"><ele>421.0</ele><time>2026-04-26T14:19:57.235Z</time></trkpt><trkpt lat="39.8843631" lon="20.6267862"><ele>421.0</ele><time>2026-04-26T14:19:58.234Z</time></trkpt><trkpt lat="39.8842514" lon="20.6269345"><ele>421.0</ele><time>2026-04-26T14:19:59.234Z</time></trkpt><trkpt lat="39.8841549" lon="20.6270953"><ele>421.0</ele><time>2026-04-26T14:20:00.234Z</time></trkpt><trkpt lat="39.8840834" lon="20.6272735"><ele>421.0</ele><time>2026-04-26T14:20:01.234Z</time></trkpt><trkpt lat="39.8840336" lon="20.6274697"><ele>421.0</ele><time>2026-04-26T14:20:02.234Z</time></trkpt><trkpt lat="39.884007" lon="20.6276759"><ele>421.0</ele><time>2026-04-26T14:20:03.235Z</time></trkpt><trkpt lat="39.8840093" lon="20.6278908"><ele>421.0</ele><time>2026-04-26T14:20:04.235Z</time></trkpt><trkpt lat="39.8840275" lon="20.6281087"><ele>421.33333333333337</ele><time>2026-04-26T14:20:05.234Z</time></trkpt><trkpt lat="39.8840739" lon="20.6283498"><ele>421.66666666666663</ele><time>2026-04-26T14:20:06.234Z</time></trkpt><trkpt lat="39.8841247" lon="20.6285871"><ele>422.0</ele><time>2026-04-26T14:20:07.234Z</time></trkpt><trkpt lat="39.8841735" lon="20.6288269"><ele>423.0</ele><time>2026-04-26T14:20:08.235Z</time></trkpt><trkpt lat="39.8842221" lon="20.6290692"><ele>424.0</ele><time>2026-04-26T14:20:09.235Z</time></trkpt><trkpt lat="39.884271" lon="20.6293158"><ele>425.0</ele><time>2026-04-26T14:20:10.234Z</time></trkpt><trkpt lat="39.8843194" lon="20.6295624"><ele>425.0</ele><time>2026-04-26T14:20:11.235Z</time></trkpt><trkpt lat="39.8843719" lon="20.6298052"><ele>425.0</ele><time>2026-04-26T14:20:12.234Z</time></trkpt><trkpt lat="39.8844192" lon="20.6300421"><ele>425.0</ele><time>2026-04-26T14:20:13.234Z</time></trkpt><trkpt lat="39.8844763" lon="20.6302652"><ele>424.0</ele><time>2026-04-26T14:20:14.235Z</time></trkpt><trkpt lat="39.8845135" lon="20.6304863"><ele>423.0</ele><time>2026-04-26T14:20:15.234Z</time></trkpt><trkpt lat="39.8845421" lon="20.6307064"><ele>422.0</ele><time>2026-04-26T14:20:16.235Z</time></trkpt><trkpt lat="39.8845641" lon="20.6309193"><ele>422.0</ele><time>2026-04-26T14:20:17.234Z</time></trkpt><trkpt lat="39.8845753" lon="20.6311186"><ele>422.0</ele><time>2026-04-26T14:20:18.234Z</time></trkpt><trkpt lat="39.8845543" lon="20.6313084"><ele>422.0</ele><time>2026-04-26T14:20:19.235Z</time></trkpt><trkpt lat="39.8845089" lon="20.6314949"><ele>421.66666666666663</ele><time>2026-04-26T14:20:20.235Z</time></trkpt><trkpt lat="39.8844274" lon="20.6316708"><ele>421.33333333333337</ele><time>2026-04-26T14:20:21.234Z</time></trkpt><trkpt lat="39.8843198" lon="20.6318284"><ele>421.0</ele><time>2026-04-26T14:20:22.234Z</time></trkpt><trkpt lat="39.8841802" lon="20.6319679"><ele>422.6666666666667</ele><time>2026-04-26T14:20:23.234Z</time></trkpt><trkpt lat="39.8840424" lon="20.6321018"><ele>424.33333333333337</ele><time>2026-04-26T14:20:24.234Z</time></trkpt><trkpt lat="39.8839121" lon="20.632229"><ele>426.0</ele><time>2026-04-26T14:20:25.234Z</time></trkpt><trkpt lat="39.8837808" lon="20.63235"><ele>426.0</ele><time>2026-04-26T14:20:26.235Z</time></trkpt><trkpt lat="39.8836655" lon="20.6324788"><ele>426.0</ele><time>2026-04-26T14:20:27.234Z</time></trkpt><trkpt lat="39.8835339" lon="20.6326062"><ele>426.0</ele><time>2026-04-26T14:20:28.234Z</time></trkpt><trkpt lat="39.8834107" lon="20.6327198"><ele>426.0</ele><time>2026-04-26T14:20:29.235Z</time></trkpt><trkpt lat="39.8832875" lon="20.6328326"><ele>426.0</ele><time>2026-04-26T14:20:30.235Z</time></trkpt><trkpt lat="39.8831633" lon="20.6329409"><ele>426.0</ele><time>2026-04-26T14:20:31.235Z</time></trkpt><trkpt lat="39.8830395" lon="20.6330514"><ele>426.0</ele><time>2026-04-26T14:20:32.234Z</time></trkpt><trkpt lat="39.8829233" lon="20.6331616"><ele>426.0</ele><time>2026-04-26T14:20:33.234Z</time></trkpt><trkpt lat="39.8828072" lon="20.6332717"><ele>426.0</ele><time>2026-04-26T14:20:34.234Z</time></trkpt><trkpt lat="39.8826857" lon="20.633388"><ele>426.0</ele><time>2026-04-26T14:20:35.235Z</time></trkpt><trkpt lat="39.8825553" lon="20.6334995"><ele>428.0</ele><time>2026-04-26T14:20:36.234Z</time></trkpt><trkpt lat="39.8824219" lon="20.633614"><ele>430.0</ele><time>2026-04-26T14:20:37.234Z</time></trkpt><trkpt lat="39.8822824" lon="20.6337367"><ele>432.0</ele><time>2026-04-26T14:20:38.235Z</time></trkpt><trkpt lat="39.8821353" lon="20.6338544"><ele>432.0</ele><time>2026-04-26T14:20:39.234Z</time></trkpt><trkpt lat="39.8819997" lon="20.6339637"><ele>432.0</ele><time>2026-04-26T14:20:40.235Z</time></trkpt><trkpt lat="39.8818381" lon="20.6340739"><ele>432.0</ele><time>2026-04-26T14:20:41.234Z</time></trkpt><trkpt lat="39.881667" lon="20.6341929"><ele>436.0</ele><time>2026-04-26T14:20:42.234Z</time></trkpt><trkpt lat="39.8814701" lon="20.6343015"><ele>440.0</ele><time>2026-04-26T14:20:43.234Z</time></trkpt><trkpt lat="39.8812538" lon="20.6344401"><ele>440.0</ele><time>2026-04-26T14:20:44.234Z</time></trkpt><trkpt lat="39.8810041" lon="20.6345727"><ele>440.0</ele><time>2026-04-26T14:20:45.235Z</time></trkpt><trkpt lat="39.8807514" lon="20.6346874"><ele>440.0</ele><time>2026-04-26T14:20:46.235Z</time></trkpt><trkpt lat="39.8805188" lon="20.6347961"><ele>440.0</ele><time>2026-04-26T14:20:47.235Z</time></trkpt><trkpt lat="39.8803064" lon="20.6349327"><ele>440.0</ele><time>2026-04-26T14:20:48.234Z</time></trkpt><trkpt lat="39.8801128" lon="20.6350951"><ele>440.0</ele><time>2026-04-26T14:20:49.235Z</time></trkpt><trkpt lat="39.8799426" lon="20.6352892"><ele>443.5</ele><time>2026-04-26T14:20:50.234Z</time></trkpt><trkpt lat="39.8797861" lon="20.6355051"><ele>447.0</ele><time>2026-04-26T14:20:51.234Z</time></trkpt><trkpt lat="39.8796308" lon="20.6357123"><ele>447.0</ele><time>2026-04-26T14:20:52.235Z</time></trkpt><trkpt lat="39.8794637" lon="20.6359137"><ele>447.0</ele><time>2026-04-26T14:20:53.235Z</time></trkpt><trkpt lat="39.8792886" lon="20.6360996"><ele>450.5</ele><time>2026-04-26T14:20:54.234Z</time></trkpt><trkpt lat="39.8790954" lon="20.6362816"><ele>454.0</ele><time>2026-04-26T14:20:55.235Z</time></trkpt><trkpt lat="39.8788917" lon="20.6364394"><ele>454.0</ele><time>2026-04-26T14:20:56.234Z</time></trkpt><trkpt lat="39.8786773" lon="20.6365914"><ele>454.0</ele><time>2026-04-26T14:20:57.234Z</time></trkpt><trkpt lat="39.8784497" lon="20.6367712"><ele>453.0</ele><time>2026-04-26T14:20:58.234Z</time></trkpt><trkpt lat="39.8782122" lon="20.6369508"><ele>452.0</ele><time>2026-04-26T14:20:59.235Z</time></trkpt><trkpt lat="39.8779787" lon="20.6371153"><ele>457.0</ele><time>2026-04-26T14:21:00.234Z</time></trkpt><trkpt lat="39.8777609" lon="20.6372779"><ele>462.0</ele><time>2026-04-26T14:21:01.235Z</time></trkpt><trkpt lat="39.8775459" lon="20.6374103"><ele>462.0</ele><time>2026-04-26T14:21:02.235Z</time></trkpt><trkpt lat="39.8773389" lon="20.6375461"><ele>462.0</ele><time>2026-04-26T14:21:03.235Z</time></trkpt><trkpt lat="39.8771325" lon="20.6376953"><ele>468.0</ele><time>2026-04-26T14:21:04.235Z</time></trkpt><trkpt lat="39.8769362" lon="20.6378387"><ele>474.0</ele><time>2026-04-26T14:21:05.234Z</time></trkpt><trkpt lat="39.8767453" lon="20.6379827"><ele>480.0</ele><time>2026-04-26T14:21:06.235Z</time></trkpt><trkpt lat="39.8765658" lon="20.6381156"><ele>480.0</ele><time>2026-04-26T14:21:07.235Z</time></trkpt><trkpt lat="39.8763916" lon="20.6382444"><ele>480.0</ele><time>2026-04-26T14:21:08.235Z</time></trkpt><trkpt lat="39.8762111" lon="20.6383908"><ele>480.0</ele><time>2026-04-26T14:21:09.235Z</time></trkpt><trkpt lat="39.8760189" lon="20.6385614"><ele>486.5</ele><time>2026-04-26T14:21:10.235Z</time></trkpt><trkpt lat="39.8758287" lon="20.6387343"><ele>493.0</ele><time>2026-04-26T14:21:11.235Z</time></trkpt><trkpt lat="39.8756364" lon="20.6389143"><ele>493.0</ele><time>2026-04-26T14:21:12.235Z</time></trkpt><trkpt lat="39.8754441" lon="20.6391101"><ele>493.0</ele><time>2026-04-26T14:21:13.235Z</time></trkpt><trkpt lat="39.8752632" lon="20.6393165"><ele>490.5</ele><time>2026-04-26T14:21:14.235Z</time></trkpt><trkpt lat="39.8750848" lon="20.6395306"><ele>488.0</ele><time>2026-04-26T14:21:15.234Z</time></trkpt><trkpt lat="39.874905" lon="20.6397413"><ele>488.0</ele><time>2026-04-26T14:21:16.234Z</time></trkpt><trkpt lat="39.8747345" lon="20.6399495"><ele>488.0</ele><time>2026-04-26T14:21:17.234Z</time></trkpt><trkpt lat="39.8745695" lon="20.640153"><ele>488.0</ele><time>2026-04-26T14:21:18.235Z</time></trkpt><trkpt lat="39.8744171" lon="20.6403443"><ele>488.0</ele><time>2026-04-26T14:21:19.234Z</time></trkpt><trkpt lat="39.8742818" lon="20.640534"><ele>488.0</ele><time>2026-04-26T14:21:20.234Z</time></trkpt><trkpt lat="39.8741571" lon="20.6407347"><ele>488.0</ele><time>2026-04-26T14:21:21.235Z</time></trkpt><trkpt lat="39.8740456" lon="20.6409518"><ele>488.0</ele><time>2026-04-26T14:21:22.234Z</time></trkpt><trkpt lat="39.8739525" lon="20.6411761"><ele>488.0</ele><time>2026-04-26T14:21:23.234Z</time></trkpt><trkpt lat="39.8738774" lon="20.6414153"><ele>491.3333333333333</ele><time>2026-04-26T14:21:24.234Z</time></trkpt><trkpt lat="39.8738219" lon="20.6416645"><ele>494.66666666666663</ele><time>2026-04-26T14:21:25.234Z</time></trkpt><trkpt lat="39.8737824" lon="20.6419305"><ele>498.0</ele><time>2026-04-26T14:21:26.234Z</time></trkpt><trkpt lat="39.87375" lon="20.6421962"><ele>498.0</ele><time>2026-04-26T14:21:27.235Z</time></trkpt><trkpt lat="39.8737249" lon="20.6424671"><ele>498.0</ele><time>2026-04-26T14:21:28.235Z</time></trkpt><trkpt lat="39.8737042" lon="20.6427401"><ele>498.0</ele><time>2026-04-26T14:21:29.235Z</time></trkpt><trkpt lat="39.8736837" lon="20.6430106"><ele>500.33333333333337</ele><time>2026-04-26T14:21:30.235Z</time></trkpt><trkpt lat="39.8736558" lon="20.6432801"><ele>502.6666666666667</ele><time>2026-04-26T14:21:31.234Z</time></trkpt><trkpt lat="39.8736324" lon="20.6435488"><ele>505.0</ele><time>2026-04-26T14:21:32.234Z</time></trkpt><trkpt lat="39.8735866" lon="20.6438138"><ele>505.6666666666667</ele><time>2026-04-26T14:21:33.235Z</time></trkpt><trkpt lat="39.873533" lon="20.6440813"><ele>506.33333333333337</ele><time>2026-04-26T14:21:34.234Z</time></trkpt><trkpt lat="39.8734708" lon="20.6443448"><ele>507.0</ele><time>2026-04-26T14:21:35.234Z</time></trkpt><trkpt lat="39.8733911" lon="20.6445941"><ele>507.0</ele><time>2026-04-26T14:21:36.234Z</time></trkpt><trkpt lat="39.8732908" lon="20.6448414"><ele>507.0</ele><time>2026-04-26T14:21:37.235Z</time></trkpt><trkpt lat="39.8731769" lon="20.6450699"><ele>507.0</ele><time>2026-04-26T14:21:38.235Z</time></trkpt><trkpt lat="39.8730466" lon="20.6452987"><ele>507.66666666666663</ele><time>2026-04-26T14:21:39.235Z</time></trkpt><trkpt lat="39.8728957" lon="20.645517"><ele>508.3333333333333</ele><time>2026-04-26T14:21:40.235Z</time></trkpt><trkpt lat="39.8727383" lon="20.645713"><ele>509.0</ele><time>2026-04-26T14:21:41.235Z</time></trkpt><trkpt lat="39.872558" lon="20.645885"><ele>509.0</ele><time>2026-04-26T14:21:42.235Z</time></trkpt><trkpt lat="39.8723815" lon="20.6460459"><ele>509.0</ele><time>2026-04-26T14:21:43.234Z</time></trkpt><trkpt lat="39.872192" lon="20.6461748"><ele>509.0</ele><time>2026-04-26T14:21:44.234Z</time></trkpt><trkpt lat="39.8719927" lon="20.6462987"><ele>512.6666666666666</ele><time>2026-04-26T14:21:45.234Z</time></trkpt><trkpt lat="39.8717839" lon="20.6463942"><ele>516.3333333333334</ele><time>2026-04-26T14:21:46.234Z</time></trkpt><trkpt lat="39.8715721" lon="20.6464673"><ele>520.0</ele><time>2026-04-26T14:21:47.235Z</time></trkpt><trkpt lat="39.8713494" lon="20.6465258"><ele>520.0</ele><time>2026-04-26T14:21:48.235Z</time></trkpt><trkpt lat="39.8711177" lon="20.6465691"><ele>520.0</ele><time>2026-04-26T14:21:49.235Z</time></trkpt><trkpt lat="39.8708792" lon="20.6466044"><ele>521.0</ele><time>2026-04-26T14:21:50.235Z</time></trkpt><trkpt lat="39.8706372" lon="20.6466318"><ele>522.0</ele><time>2026-04-26T14:21:51.234Z</time></trkpt><trkpt lat="39.8703965" lon="20.6466588"><ele>522.0</ele><time>2026-04-26T14:21:52.234Z</time></trkpt><trkpt lat="39.8701511" lon="20.6466832"><ele>522.0</ele><time>2026-04-26T14:21:53.234Z</time></trkpt><trkpt lat="39.8699069" lon="20.6467099"><ele>522.0</ele><time>2026-04-26T14:21:54.234Z</time></trkpt><trkpt lat="39.8696706" lon="20.6467352"><ele>522.0</ele><time>2026-04-26T14:21:55.235Z</time></trkpt><trkpt lat="39.8694335" lon="20.6467606"><ele>522.0</ele><time>2026-04-26T14:21:56.234Z</time></trkpt><trkpt lat="39.8692003" lon="20.6468077"><ele>522.0</ele><time>2026-04-26T14:21:57.235Z</time></trkpt><trkpt lat="39.8689751" lon="20.6468796"><ele>525.3333333333334</ele><time>2026-04-26T14:21:58.234Z</time></trkpt><trkpt lat="39.8687612" lon="20.6469779"><ele>528.6666666666667</ele><time>2026-04-26T14:21:59.235Z</time></trkpt><trkpt lat="39.8685647" lon="20.6471086"><ele>532.0</ele><time>2026-04-26T14:22:00.235Z</time></trkpt><trkpt lat="39.8683829" lon="20.6472687"><ele>532.0</ele><time>2026-04-26T14:22:01.235Z</time></trkpt><trkpt lat="39.8682211" lon="20.647462"><ele>532.0</ele><time>2026-04-26T14:22:02.234Z</time></trkpt><trkpt lat="39.8680735" lon="20.6476794"><ele>532.0</ele><time>2026-04-26T14:22:03.234Z</time></trkpt><trkpt lat="39.867944" lon="20.6479175"><ele>536.5</ele><time>2026-04-26T14:22:04.234Z</time></trkpt><trkpt lat="39.867823" lon="20.6481823"><ele>541.0</ele><time>2026-04-26T14:22:05.234Z</time></trkpt><trkpt lat="39.8677058" lon="20.6484561"><ele>538.5</ele><time>2026-04-26T14:22:06.235Z</time></trkpt><trkpt lat="39.8675979" lon="20.6487367"><ele>536.0</ele><time>2026-04-26T14:22:07.234Z</time></trkpt><trkpt lat="39.8674952" lon="20.6490256"><ele>536.0</ele><time>2026-04-26T14:22:08.235Z</time></trkpt><trkpt lat="39.8673858" lon="20.6493075"><ele>536.0</ele><time>2026-04-26T14:22:09.235Z</time></trkpt><trkpt lat="39.8672726" lon="20.649582"><ele>540.0</ele><time>2026-04-26T14:22:10.234Z</time></trkpt><trkpt lat="39.8671516" lon="20.6498458"><ele>544.0</ele><time>2026-04-26T14:22:11.235Z</time></trkpt><trkpt lat="39.8670182" lon="20.6500963"><ele>543.5</ele><time>2026-04-26T14:22:12.235Z</time></trkpt><trkpt lat="39.8668625" lon="20.6503261"><ele>543.0</ele><time>2026-04-26T14:22:13.234Z</time></trkpt><trkpt lat="39.8666846" lon="20.6505356"><ele>543.0</ele><time>2026-04-26T14:22:14.235Z</time></trkpt><trkpt lat="39.8665006" lon="20.6507218"><ele>543.0</ele><time>2026-04-26T14:22:15.235Z</time></trkpt><trkpt lat="39.8663063" lon="20.6509095"><ele>543.0</ele><time>2026-04-26T14:22:16.235Z</time></trkpt><trkpt lat="39.8661062" lon="20.6510578"><ele>543.0</ele><time>2026-04-26T14:22:17.234Z</time></trkpt><trkpt lat="39.8659067" lon="20.6512083"><ele>547.5</ele><time>2026-04-26T14:22:18.234Z</time></trkpt><trkpt lat="39.8657207" lon="20.6513776"><ele>552.0</ele><time>2026-04-26T14:22:19.234Z</time></trkpt><trkpt lat="39.865543" lon="20.6515735"><ele>552.0</ele><time>2026-04-26T14:22:20.234Z</time></trkpt><trkpt lat="39.8653771" lon="20.6517852"><ele>552.0</ele><time>2026-04-26T14:22:21.235Z</time></trkpt><trkpt lat="39.8652301" lon="20.6520169"><ele>553.0</ele><time>2026-04-26T14:22:22.234Z</time></trkpt><trkpt lat="39.8650914" lon="20.6522669"><ele>554.0</ele><time>2026-04-26T14:22:23.235Z</time></trkpt><trkpt lat="39.8649718" lon="20.6525305"><ele>559.5</ele><time>2026-04-26T14:22:24.235Z</time></trkpt><trkpt lat="39.8648537" lon="20.6528045"><ele>565.0</ele><time>2026-04-26T14:22:25.234Z</time></trkpt><trkpt lat="39.8647431" lon="20.6530854"><ele>565.0</ele><time>2026-04-26T14:22:26.235Z</time></trkpt><trkpt lat="39.8646189" lon="20.6533556"><ele>565.0</ele><time>2026-04-26T14:22:27.234Z</time></trkpt><trkpt lat="39.8644838" lon="20.6536166"><ele>565.5</ele><time>2026-04-26T14:22:28.234Z</time></trkpt><trkpt lat="39.8643476" lon="20.6538784"><ele>566.0</ele><time>2026-04-26T14:22:29.235Z</time></trkpt><trkpt lat="39.8641972" lon="20.6541274"><ele>566.0</ele><time>2026-04-26T14:22:30.235Z</time></trkpt><trkpt lat="39.8640434" lon="20.6543731"><ele>566.0</ele><time>2026-04-26T14:22:31.234Z</time></trkpt><trkpt lat="39.8638775" lon="20.6546065"><ele>568.0</ele><time>2026-04-26T14:22:32.235Z</time></trkpt><trkpt lat="39.8636945" lon="20.6548239"><ele>570.0</ele><time>2026-04-26T14:22:33.234Z</time></trkpt><trkpt lat="39.8635064" lon="20.6550283"><ele>571.5</ele><time>2026-04-26T14:22:34.234Z</time></trkpt><trkpt lat="39.8633092" lon="20.6552409"><ele>573.0</ele><time>2026-04-26T14:22:35.235Z</time></trkpt><trkpt lat="39.8631011" lon="20.6554219"><ele>573.0</ele><time>2026-04-26T14:22:36.235Z</time></trkpt><trkpt lat="39.8629013" lon="20.6555953"><ele>573.0</ele><time>2026-04-26T14:22:37.235Z</time></trkpt><trkpt lat="39.8627066" lon="20.6557673"><ele>576.5</ele><time>2026-04-26T14:22:38.234Z</time></trkpt><trkpt lat="39.8625104" lon="20.6559379"><ele>580.0</ele><time>2026-04-26T14:22:39.234Z</time></trkpt><trkpt lat="39.8623196" lon="20.656108"><ele>581.0</ele><time>2026-04-26T14:22:40.235Z</time></trkpt><trkpt lat="39.8621249" lon="20.6562786"><ele>582.0</ele><time>2026-04-26T14:22:41.235Z</time></trkpt><trkpt lat="39.8619341" lon="20.6564491"><ele>582.0</ele><time>2026-04-26T14:22:42.234Z</time></trkpt><trkpt lat="39.8617503" lon="20.6566168"><ele>582.0</ele><time>2026-04-26T14:22:43.235Z</time></trkpt><trkpt lat="39.8615622" lon="20.6567842"><ele>585.5</ele><time>2026-04-26T14:22:44.235Z</time></trkpt><trkpt lat="39.8613727" lon="20.6569528"><ele>589.0</ele><time>2026-04-26T14:22:45.235Z</time></trkpt><trkpt lat="39.8611862" lon="20.6571265"><ele>589.0</ele><time>2026-04-26T14:22:46.234Z</time></trkpt><trkpt lat="39.8609894" lon="20.6572982"><ele>589.0</ele><time>2026-04-26T14:22:47.235Z</time></trkpt><trkpt lat="39.8607928" lon="20.6574719"><ele>589.0</ele><time>2026-04-26T14:22:48.234Z</time></trkpt><trkpt lat="39.8605921" lon="20.6576479"><ele>589.0</ele><time>2026-04-26T14:22:49.234Z</time></trkpt><trkpt lat="39.8603942" lon="20.6578284"><ele>589.0</ele><time>2026-04-26T14:22:50.234Z</time></trkpt><trkpt lat="39.8601899" lon="20.6580283"><ele>589.0</ele><time>2026-04-26T14:22:51.235Z</time></trkpt><trkpt lat="39.8599802" lon="20.6582382"><ele>587.5</ele><time>2026-04-26T14:22:52.235Z</time></trkpt><trkpt lat="39.8597652" lon="20.6584586"><ele>586.0</ele><time>2026-04-26T14:22:53.235Z</time></trkpt><trkpt lat="39.859563" lon="20.658674"><ele>586.0</ele><time>2026-04-26T14:22:54.235Z</time></trkpt><trkpt lat="39.8593562" lon="20.6588911"><ele>586.0</ele><time>2026-04-26T14:22:55.235Z</time></trkpt><trkpt lat="39.8591565" lon="20.659105"><ele>585.5</ele><time>2026-04-26T14:22:56.234Z</time></trkpt><trkpt lat="39.8589669" lon="20.6593158"><ele>585.0</ele><time>2026-04-26T14:22:57.234Z</time></trkpt><trkpt lat="39.8587765" lon="20.6595252"><ele>585.0</ele><time>2026-04-26T14:22:58.234Z</time></trkpt><trkpt lat="39.8585958" lon="20.6597297"><ele>585.0</ele><time>2026-04-26T14:22:59.234Z</time></trkpt><trkpt lat="39.8584122" lon="20.6599438"><ele>585.0</ele><time>2026-04-26T14:23:00.234Z</time></trkpt><trkpt lat="39.8582216" lon="20.6601561"><ele>585.0</ele><time>2026-04-26T14:23:01.235Z</time></trkpt><trkpt lat="39.8580334" lon="20.6603712"><ele>585.0</ele><time>2026-04-26T14:23:02.234Z</time></trkpt><trkpt lat="39.8578429" lon="20.6605917"><ele>585.0</ele><time>2026-04-26T14:23:03.234Z</time></trkpt><trkpt lat="39.8576495" lon="20.6608173"><ele>584.0</ele><time>2026-04-26T14:23:04.235Z</time></trkpt><trkpt lat="39.8574622" lon="20.6610491"><ele>583.0</ele><time>2026-04-26T14:23:05.235Z</time></trkpt><trkpt lat="39.8572767" lon="20.6612683"><ele>583.0</ele><time>2026-04-26T14:23:06.234Z</time></trkpt><trkpt lat="39.8570852" lon="20.6614708"><ele>583.0</ele><time>2026-04-26T14:23:07.235Z</time></trkpt><trkpt lat="39.856894" lon="20.6616687"><ele>582.5</ele><time>2026-04-26T14:23:08.234Z</time></trkpt><trkpt lat="39.8567092" lon="20.661864"><ele>582.0</ele><time>2026-04-26T14:23:09.234Z</time></trkpt><trkpt lat="39.8565288" lon="20.6620659"><ele>582.0</ele><time>2026-04-26T14:23:10.234Z</time></trkpt><trkpt lat="39.8563519" lon="20.6622667"><ele>582.0</ele><time>2026-04-26T14:23:11.234Z</time></trkpt><trkpt lat="39.8561724" lon="20.6624651"><ele>582.0</ele><time>2026-04-26T14:23:12.234Z</time></trkpt><trkpt lat="39.8559915" lon="20.6626652"><ele>582.0</ele><time>2026-04-26T14:23:13.235Z</time></trkpt><trkpt lat="39.8558177" lon="20.6628671"><ele>583.0</ele><time>2026-04-26T14:23:14.235Z</time></trkpt><trkpt lat="39.8556389" lon="20.6630708"><ele>584.0</ele><time>2026-04-26T14:23:15.235Z</time></trkpt><trkpt lat="39.8554642" lon="20.6632664"><ele>584.0</ele><time>2026-04-26T14:23:16.235Z</time></trkpt><trkpt lat="39.8552901" lon="20.6634623"><ele>584.0</ele><time>2026-04-26T14:23:17.234Z</time></trkpt><trkpt lat="39.8551189" lon="20.6636615"><ele>584.0</ele><time>2026-04-26T14:23:18.235Z</time></trkpt><trkpt lat="39.8549454" lon="20.6638564"><ele>584.0</ele><time>2026-04-26T14:23:19.234Z</time></trkpt><trkpt lat="39.8547687" lon="20.6640532"><ele>584.0</ele><time>2026-04-26T14:23:20.234Z</time></trkpt><trkpt lat="39.8545918" lon="20.6642491"><ele>584.0</ele><time>2026-04-26T14:23:21.235Z</time></trkpt><trkpt lat="39.8544143" lon="20.6644512"><ele>583.5</ele><time>2026-04-26T14:23:22.234Z</time></trkpt><trkpt lat="39.8542355" lon="20.6646616"><ele>583.0</ele><time>2026-04-26T14:23:23.234Z</time></trkpt><trkpt lat="39.8540631" lon="20.6648858"><ele>583.0</ele><time>2026-04-26T14:23:24.234Z</time></trkpt><trkpt lat="39.853896" lon="20.6651126"><ele>583.0</ele><time>2026-04-26T14:23:25.235Z</time></trkpt><trkpt lat="39.8537348" lon="20.6653451"><ele>583.5</ele><time>2026-04-26T14:23:26.234Z</time></trkpt><trkpt lat="39.8535777" lon="20.6655886"><ele>584.0</ele><time>2026-04-26T14:23:27.234Z</time></trkpt><trkpt lat="39.8534211" lon="20.6658338"><ele>584.5</ele><time>2026-04-26T14:23:28.235Z</time></trkpt><trkpt lat="39.8532719" lon="20.6660878"><ele>585.0</ele><time>2026-04-26T14:23:29.234Z</time></trkpt><trkpt lat="39.8531328" lon="20.6663488"><ele>585.5</ele><time>2026-04-26T14:23:30.234Z</time></trkpt><trkpt lat="39.852994" lon="20.6666083"><ele>586.0</ele><time>2026-04-26T14:23:31.235Z</time></trkpt><trkpt lat="39.8528698" lon="20.6668907"><ele>586.5</ele><time>2026-04-26T14:23:32.234Z</time></trkpt><trkpt lat="39.8527411" lon="20.6671618"><ele>587.0</ele><time>2026-04-26T14:23:33.235Z</time></trkpt><trkpt lat="39.8526247" lon="20.6674303"><ele>587.5</ele><time>2026-04-26T14:23:34.234Z</time></trkpt><trkpt lat="39.8524959" lon="20.6677026"><ele>588.0</ele><time>2026-04-26T14:23:35.234Z</time></trkpt><trkpt lat="39.8523717" lon="20.667975"><ele>588.0</ele><time>2026-04-26T14:23:36.235Z</time></trkpt><trkpt lat="39.8522472" lon="20.6682437"><ele>588.0</ele><time>2026-04-26T14:23:37.234Z</time></trkpt><trkpt lat="39.852127" lon="20.6685142"><ele>588.0</ele><time>2026-04-26T14:23:38.234Z</time></trkpt><trkpt lat="39.8520015" lon="20.6687827"><ele>588.0</ele><time>2026-04-26T14:23:39.235Z</time></trkpt><trkpt lat="39.8518746" lon="20.6690418"><ele>589.0</ele><time>2026-04-26T14:23:40.234Z</time></trkpt><trkpt lat="39.8517513" lon="20.6693112"><ele>590.0</ele><time>2026-04-26T14:23:41.234Z</time></trkpt><trkpt lat="39.8516315" lon="20.6695796"><ele>590.0</ele><time>2026-04-26T14:23:42.234Z</time></trkpt><trkpt lat="39.8515125" lon="20.6698504"><ele>590.0</ele><time>2026-04-26T14:23:43.234Z</time></trkpt><trkpt lat="39.8513853" lon="20.6701145"><ele>590.5</ele><time>2026-04-26T14:23:44.234Z</time></trkpt><trkpt lat="39.8512662" lon="20.6703901"><ele>591.0</ele><time>2026-04-26T14:23:45.234Z</time></trkpt><trkpt lat="39.8511413" lon="20.67066"><ele>591.0</ele><time>2026-04-26T14:23:46.235Z</time></trkpt><trkpt lat="39.8510164" lon="20.6709385"><ele>591.0</ele><time>2026-04-26T14:23:47.235Z</time></trkpt><trkpt lat="39.8508898" lon="20.6712155"><ele>591.5</ele><time>2026-04-26T14:23:48.234Z</time></trkpt><trkpt lat="39.8507656" lon="20.671492"><ele>592.0</ele><time>2026-04-26T14:23:49.234Z</time></trkpt><trkpt lat="39.8506376" lon="20.6717677"><ele>594.0</ele><time>2026-04-26T14:23:50.235Z</time></trkpt><trkpt lat="39.8505023" lon="20.6720372"><ele>596.0</ele><time>2026-04-26T14:23:51.234Z</time></trkpt><trkpt lat="39.8503868" lon="20.6723087"><ele>596.0</ele><time>2026-04-26T14:23:52.235Z</time></trkpt><trkpt lat="39.8502501" lon="20.6725788"><ele>596.0</ele><time>2026-04-26T14:23:53.234Z</time></trkpt><trkpt lat="39.8501175" lon="20.6728478"><ele>593.5</ele><time>2026-04-26T14:23:54.235Z</time></trkpt><trkpt lat="39.8499894" lon="20.673115"><ele>591.0</ele><time>2026-04-26T14:23:55.234Z</time></trkpt><trkpt lat="39.8498678" lon="20.673383"><ele>591.0</ele><time>2026-04-26T14:23:56.234Z</time></trkpt><trkpt lat="39.8497395" lon="20.6736493"><ele>591.0</ele><time>2026-04-26T14:23:57.235Z</time></trkpt><trkpt lat="39.8496202" lon="20.6739208"><ele>591.0</ele><time>2026-04-26T14:23:58.235Z</time></trkpt><trkpt lat="39.8494936" lon="20.6741934"><ele>591.0</ele><time>2026-04-26T14:23:59.234Z</time></trkpt><trkpt lat="39.8493666" lon="20.6744664"><ele>589.5</ele><time>2026-04-26T14:24:00.234Z</time></trkpt><trkpt lat="39.8492308" lon="20.6747461"><ele>588.0</ele><time>2026-04-26T14:24:01.235Z</time></trkpt><trkpt lat="39.8491028" lon="20.6750143"><ele>587.5</ele><time>2026-04-26T14:24:02.235Z</time></trkpt><trkpt lat="39.8489759" lon="20.6752803"><ele>587.0</ele><time>2026-04-26T14:24:03.234Z</time></trkpt><trkpt lat="39.8488507" lon="20.6755469"><ele>587.0</ele><time>2026-04-26T14:24:04.235Z</time></trkpt><trkpt lat="39.8487241" lon="20.6758127"><ele>587.0</ele><time>2026-04-26T14:24:05.235Z</time></trkpt><trkpt lat="39.8486012" lon="20.6760808"><ele>586.5</ele><time>2026-04-26T14:24:06.235Z</time></trkpt><trkpt lat="39.8484753" lon="20.6763463"><ele>586.0</ele><time>2026-04-26T14:24:07.234Z</time></trkpt><trkpt lat="39.8483491" lon="20.6766118"><ele>586.0</ele><time>2026-04-26T14:24:08.235Z</time></trkpt><trkpt lat="39.8482212" lon="20.6768708"><ele>586.0</ele><time>2026-04-26T14:24:09.235Z</time></trkpt><trkpt lat="39.8480931" lon="20.6771327"><ele>585.5</ele><time>2026-04-26T14:24:10.234Z</time></trkpt><trkpt lat="39.8479666" lon="20.677398"><ele>585.0</ele><time>2026-04-26T14:24:11.235Z</time></trkpt><trkpt lat="39.847842" lon="20.6776614"><ele>584.5</ele><time>2026-04-26T14:24:12.235Z</time></trkpt><trkpt lat="39.8477196" lon="20.6779275"><ele>584.0</ele><time>2026-04-26T14:24:13.235Z</time></trkpt><trkpt lat="39.8475923" lon="20.6781885"><ele>584.0</ele><time>2026-04-26T14:24:14.234Z</time></trkpt><trkpt lat="39.8474704" lon="20.6784466"><ele>584.0</ele><time>2026-04-26T14:24:15.234Z</time></trkpt><trkpt lat="39.8473363" lon="20.6786934"><ele>582.0</ele><time>2026-04-26T14:24:16.234Z</time></trkpt><trkpt lat="39.8471963" lon="20.6789383"><ele>580.0</ele><time>2026-04-26T14:24:17.235Z</time></trkpt><trkpt lat="39.8470548" lon="20.6791771"><ele>580.0</ele><time>2026-04-26T14:24:18.234Z</time></trkpt><trkpt lat="39.8469056" lon="20.679415"><ele>580.0</ele><time>2026-04-26T14:24:19.234Z</time></trkpt><trkpt lat="39.8467508" lon="20.6796498"><ele>581.0</ele><time>2026-04-26T14:24:20.234Z</time></trkpt><trkpt lat="39.8466012" lon="20.679886"><ele>582.0</ele><time>2026-04-26T14:24:21.235Z</time></trkpt><trkpt lat="39.8464349" lon="20.6801193"><ele>580.0</ele><time>2026-04-26T14:24:22.234Z</time></trkpt><trkpt lat="39.8462593" lon="20.6803411"><ele>578.0</ele><time>2026-04-26T14:24:23.235Z</time></trkpt><trkpt lat="39.8460896" lon="20.6805599"><ele>580.5</ele><time>2026-04-26T14:24:24.235Z</time></trkpt><trkpt lat="39.8459222" lon="20.6807709"><ele>583.0</ele><time>2026-04-26T14:24:25.234Z</time></trkpt><trkpt lat="39.8457448" lon="20.6809756"><ele>581.0</ele><time>2026-04-26T14:24:26.235Z</time></trkpt><trkpt lat="39.8455659" lon="20.6811838"><ele>579.0</ele><time>2026-04-26T14:24:27.235Z</time></trkpt><trkpt lat="39.8453872" lon="20.6813941"><ele>579.0</ele><time>2026-04-26T14:24:28.234Z</time></trkpt><trkpt lat="39.8452042" lon="20.6815873"><ele>579.0</ele><time>2026-04-26T14:24:29.234Z</time></trkpt><trkpt lat="39.8450174" lon="20.6817771"><ele>578.0</ele><time>2026-04-26T14:24:30.235Z</time></trkpt><trkpt lat="39.8448246" lon="20.6819602"><ele>577.0</ele><time>2026-04-26T14:24:31.235Z</time></trkpt><trkpt lat="39.8446273" lon="20.6821432"><ele>577.0</ele><time>2026-04-26T14:24:32.235Z</time></trkpt><trkpt lat="39.8444312" lon="20.6823026"><ele>577.0</ele><time>2026-04-26T14:24:33.235Z</time></trkpt><trkpt lat="39.8442393" lon="20.6824622"><ele>579.0</ele><time>2026-04-26T14:24:34.234Z</time></trkpt><trkpt lat="39.8440347" lon="20.6826176"><ele>581.0</ele><time>2026-04-26T14:24:35.234Z</time></trkpt><trkpt lat="39.8438337" lon="20.6827656"><ele>579.0</ele><time>2026-04-26T14:24:36.235Z</time></trkpt><trkpt lat="39.8436357" lon="20.6829174"><ele>577.0</ele><time>2026-04-26T14:24:37.234Z</time></trkpt><trkpt lat="39.8434289" lon="20.6830569"><ele>577.0</ele><time>2026-04-26T14:24:38.234Z</time></trkpt><trkpt lat="39.8432228" lon="20.6831866"><ele>577.0</ele><time>2026-04-26T14:24:39.234Z</time></trkpt><trkpt lat="39.8430084" lon="20.68331"><ele>577.0</ele><time>2026-04-26T14:24:40.235Z</time></trkpt><trkpt lat="39.8427914" lon="20.6834288"><ele>577.0</ele><time>2026-04-26T14:24:41.235Z</time></trkpt><trkpt lat="39.8425736" lon="20.6835478"><ele>574.5</ele><time>2026-04-26T14:24:42.235Z</time></trkpt><trkpt lat="39.8423476" lon="20.6836594"><ele>572.0</ele><time>2026-04-26T14:24:43.235Z</time></trkpt><trkpt lat="39.8421237" lon="20.6837687"><ele>572.0</ele><time>2026-04-26T14:24:44.234Z</time></trkpt><trkpt lat="39.8418994" lon="20.6838773"><ele>572.0</ele><time>2026-04-26T14:24:45.235Z</time></trkpt><trkpt lat="39.8416735" lon="20.683982"><ele>573.5</ele><time>2026-04-26T14:24:46.234Z</time></trkpt><trkpt lat="39.8414483" lon="20.6840938"><ele>575.0</ele><time>2026-04-26T14:24:47.234Z</time></trkpt><trkpt lat="39.841219" lon="20.6842074"><ele>575.0</ele><time>2026-04-26T14:24:48.235Z</time></trkpt><trkpt lat="39.8409917" lon="20.6843253"><ele>575.0</ele><time>2026-04-26T14:24:49.234Z</time></trkpt><trkpt lat="39.8407661" lon="20.6844466"><ele>572.5</ele><time>2026-04-26T14:24:50.235Z</time></trkpt><trkpt lat="39.8405383" lon="20.6845647"><ele>570.0</ele><time>2026-04-26T14:24:51.234Z</time></trkpt><trkpt lat="39.8403083" lon="20.684693"><ele>572.0</ele><time>2026-04-26T14:24:52.234Z</time></trkpt><trkpt lat="39.8400753" lon="20.6848258"><ele>574.0</ele><time>2026-04-26T14:24:53.234Z</time></trkpt><trkpt lat="39.839838" lon="20.6849665"><ele>574.0</ele><time>2026-04-26T14:24:54.235Z</time></trkpt><trkpt lat="39.8396003" lon="20.6851159"><ele>574.0</ele><time>2026-04-26T14:24:55.235Z</time></trkpt><trkpt lat="39.8393695" lon="20.6852739"><ele>573.5</ele><time>2026-04-26T14:24:56.234Z</time></trkpt><trkpt lat="39.8391336" lon="20.6854355"><ele>573.0</ele><time>2026-04-26T14:24:57.234Z</time></trkpt><trkpt lat="39.8389053" lon="20.6855976"><ele>573.0</ele><time>2026-04-26T14:24:58.234Z</time></trkpt><trkpt lat="39.8386756" lon="20.6857606"><ele>573.0</ele><time>2026-04-26T14:24:59.235Z</time></trkpt><trkpt lat="39.838456" lon="20.6859212"><ele>573.0</ele><time>2026-04-26T14:25:00.234Z</time></trkpt><trkpt lat="39.8382397" lon="20.6860872"><ele>573.0</ele><time>2026-04-26T14:25:01.235Z</time></trkpt><trkpt lat="39.8380294" lon="20.6862539"><ele>573.0</ele><time>2026-04-26T14:25:02.235Z</time></trkpt><trkpt lat="39.8378085" lon="20.6864112"><ele>573.0</ele><time>2026-04-26T14:25:03.234Z</time></trkpt><trkpt lat="39.837604" lon="20.6865742"><ele>576.5</ele><time>2026-04-26T14:25:04.234Z</time></trkpt><trkpt lat="39.8373955" lon="20.686737"><ele>580.0</ele><time>2026-04-26T14:25:05.235Z</time></trkpt><trkpt lat="39.8371836" lon="20.6869102"><ele>579.5</ele><time>2026-04-26T14:25:06.235Z</time></trkpt><trkpt lat="39.8369776" lon="20.6870898"><ele>579.0</ele><time>2026-04-26T14:25:07.235Z</time></trkpt><trkpt lat="39.836772" lon="20.6872768"><ele>579.0</ele><time>2026-04-26T14:25:08.234Z</time></trkpt><trkpt lat="39.8365739" lon="20.6874728"><ele>579.0</ele><time>2026-04-26T14:25:09.235Z</time></trkpt><trkpt lat="39.8363772" lon="20.6876731"><ele>577.0</ele><time>2026-04-26T14:25:10.235Z</time></trkpt><trkpt lat="39.8361834" lon="20.6878846"><ele>575.0</ele><time>2026-04-26T14:25:11.234Z</time></trkpt><trkpt lat="39.8359931" lon="20.6881026"><ele>579.0</ele><time>2026-04-26T14:25:12.235Z</time></trkpt><trkpt lat="39.8358023" lon="20.6883354"><ele>583.0</ele><time>2026-04-26T14:25:13.234Z</time></trkpt><trkpt lat="39.8356131" lon="20.6885745"><ele>579.0</ele><time>2026-04-26T14:25:14.235Z</time></trkpt><trkpt lat="39.8354235" lon="20.6888216"><ele>575.0</ele><time>2026-04-26T14:25:15.235Z</time></trkpt><trkpt lat="39.8352349" lon="20.6890603"><ele>575.0</ele><time>2026-04-26T14:25:16.234Z</time></trkpt><trkpt lat="39.8350511" lon="20.6893032"><ele>575.0</ele><time>2026-04-26T14:25:17.234Z</time></trkpt><trkpt lat="39.8348724" lon="20.6895413"><ele>575.0</ele><time>2026-04-26T14:25:18.235Z</time></trkpt><trkpt lat="39.8346958" lon="20.6897842"><ele>575.0</ele><time>2026-04-26T14:25:19.234Z</time></trkpt><trkpt lat="39.8345163" lon="20.6900219"><ele>575.5</ele><time>2026-04-26T14:25:20.234Z</time></trkpt><trkpt lat="39.8343477" lon="20.6902589"><ele>576.0</ele><time>2026-04-26T14:25:21.235Z</time></trkpt><trkpt lat="39.8341722" lon="20.6904919"><ele>576.0</ele><time>2026-04-26T14:25:22.235Z</time></trkpt><trkpt lat="39.833999" lon="20.6907264"><ele>576.0</ele><time>2026-04-26T14:25:23.234Z</time></trkpt><trkpt lat="39.8338222" lon="20.6909536"><ele>574.5</ele><time>2026-04-26T14:25:24.235Z</time></trkpt><trkpt lat="39.8336495" lon="20.6911788"><ele>573.0</ele><time>2026-04-26T14:25:25.235Z</time></trkpt><trkpt lat="39.8334781" lon="20.6914049"><ele>574.0</ele><time>2026-04-26T14:25:26.234Z</time></trkpt><trkpt lat="39.8333049" lon="20.6916383"><ele>575.0</ele><time>2026-04-26T14:25:27.235Z</time></trkpt><trkpt lat="39.8331286" lon="20.6918723"><ele>575.0</ele><time>2026-04-26T14:25:28.234Z</time></trkpt><trkpt lat="39.8329557" lon="20.6921076"><ele>575.0</ele><time>2026-04-26T14:25:29.235Z</time></trkpt><trkpt lat="39.8327866" lon="20.6923421"><ele>575.5</ele><time>2026-04-26T14:25:30.235Z</time></trkpt><trkpt lat="39.8326176" lon="20.6925784"><ele>576.0</ele><time>2026-04-26T14:25:31.235Z</time></trkpt><trkpt lat="39.8324521" lon="20.6928097"><ele>576.0</ele><time>2026-04-26T14:25:32.235Z</time></trkpt><trkpt lat="39.8322861" lon="20.6930387"><ele>576.0</ele><time>2026-04-26T14:25:33.234Z</time></trkpt><trkpt lat="39.8321246" lon="20.6932679"><ele>576.0</ele><time>2026-04-26T14:25:34.235Z</time></trkpt><trkpt lat="39.8319598" lon="20.6934981"><ele>576.0</ele><time>2026-04-26T14:25:35.234Z</time></trkpt><trkpt lat="39.8318027" lon="20.6937276"><ele>577.0</ele><time>2026-04-26T14:25:36.234Z</time></trkpt><trkpt lat="39.8316437" lon="20.6939658"><ele>578.0</ele><time>2026-04-26T14:25:37.235Z</time></trkpt><trkpt lat="39.83148" lon="20.694209"><ele>577.5</ele><time>2026-04-26T14:25:38.235Z</time></trkpt><trkpt lat="39.831316" lon="20.694449"><ele>577.0</ele><time>2026-04-26T14:25:39.234Z</time></trkpt><trkpt lat="39.8311533" lon="20.6946829"><ele>577.0</ele><time>2026-04-26T14:25:40.234Z</time></trkpt><trkpt lat="39.8309937" lon="20.6949182"><ele>577.0</ele><time>2026-04-26T14:25:41.234Z</time></trkpt><trkpt lat="39.8308299" lon="20.6951562"><ele>579.0</ele><time>2026-04-26T14:25:42.234Z</time></trkpt><trkpt lat="39.8306652" lon="20.6953966"><ele>581.0</ele><time>2026-04-26T14:25:43.234Z</time></trkpt><trkpt lat="39.8305034" lon="20.6956434"><ele>581.0</ele><time>2026-04-26T14:25:44.234Z</time></trkpt><trkpt lat="39.8303364" lon="20.6958769"><ele>581.0</ele><time>2026-04-26T14:25:45.234Z</time></trkpt><trkpt lat="39.8301643" lon="20.6961139"><ele>583.5</ele><time>2026-04-26T14:25:46.235Z</time></trkpt><trkpt lat="39.8300004" lon="20.6963539"><ele>586.0</ele><time>2026-04-26T14:25:47.234Z</time></trkpt><trkpt lat="39.8298316" lon="20.6965882"><ele>586.0</ele><time>2026-04-26T14:25:48.234Z</time></trkpt><trkpt lat="39.8296645" lon="20.6968211"><ele>586.0</ele><time>2026-04-26T14:25:49.235Z</time></trkpt><trkpt lat="39.829499" lon="20.697056"><ele>587.0</ele><time>2026-04-26T14:25:50.235Z</time></trkpt><trkpt lat="39.8293303" lon="20.6972829"><ele>588.0</ele><time>2026-04-26T14:25:51.235Z</time></trkpt><trkpt lat="39.8291523" lon="20.6975004"><ele>588.0</ele><time>2026-04-26T14:25:52.235Z</time></trkpt><trkpt lat="39.8289746" lon="20.6977167"><ele>588.0</ele><time>2026-04-26T14:25:53.234Z</time></trkpt><trkpt lat="39.8287974" lon="20.6979387"><ele>588.0</ele><time>2026-04-26T14:25:54.234Z</time></trkpt><trkpt lat="39.8286216" lon="20.6981513"><ele>588.0</ele><time>2026-04-26T14:25:55.235Z</time></trkpt><trkpt lat="39.8284434" lon="20.6983605"><ele>588.0</ele><time>2026-04-26T14:25:56.235Z</time></trkpt><trkpt lat="39.8282658" lon="20.6985757"><ele>588.0</ele><time>2026-04-26T14:25:57.235Z</time></trkpt><trkpt lat="39.8280907" lon="20.6987814"><ele>591.0</ele><time>2026-04-26T14:25:58.235Z</time></trkpt><trkpt lat="39.8279175" lon="20.6989869"><ele>594.0</ele><time>2026-04-26T14:25:59.234Z</time></trkpt><trkpt lat="39.8277424" lon="20.6991917"><ele>592.0</ele><time>2026-04-26T14:26:00.235Z</time></trkpt><trkpt lat="39.827561" lon="20.6994012"><ele>590.0</ele><time>2026-04-26T14:26:01.234Z</time></trkpt><trkpt lat="39.8273847" lon="20.6996114"><ele>596.5</ele><time>2026-04-26T14:26:02.235Z</time></trkpt><trkpt lat="39.8272053" lon="20.6998235"><ele>603.0</ele><time>2026-04-26T14:26:03.235Z</time></trkpt><trkpt lat="39.8270279" lon="20.7000394"><ele>603.5</ele><time>2026-04-26T14:26:04.235Z</time></trkpt><trkpt lat="39.8268452" lon="20.7002511"><ele>604.0</ele><time>2026-04-26T14:26:05.235Z</time></trkpt><trkpt lat="39.8266661" lon="20.7004652"><ele>604.0</ele><time>2026-04-26T14:26:06.234Z</time></trkpt><trkpt lat="39.8264842" lon="20.7006776"><ele>604.0</ele><time>2026-04-26T14:26:07.234Z</time></trkpt><trkpt lat="39.8263029" lon="20.7008864"><ele>602.0</ele><time>2026-04-26T14:26:08.234Z</time></trkpt><trkpt lat="39.8261172" lon="20.7011041"><ele>600.0</ele><time>2026-04-26T14:26:09.235Z</time></trkpt><trkpt lat="39.8259307" lon="20.7013236"><ele>600.0</ele><time>2026-04-26T14:26:10.234Z</time></trkpt><trkpt lat="39.825743" lon="20.7015518"><ele>600.0</ele><time>2026-04-26T14:26:11.235Z</time></trkpt><trkpt lat="39.8255511" lon="20.7017803"><ele>604.0</ele><time>2026-04-26T14:26:12.235Z</time></trkpt><trkpt lat="39.8253608" lon="20.7019906"><ele>608.0</ele><time>2026-04-26T14:26:13.234Z</time></trkpt><trkpt lat="39.8251735" lon="20.7022035"><ele>603.0</ele><time>2026-04-26T14:26:14.235Z</time></trkpt><trkpt lat="39.8249915" lon="20.7024182"><ele>598.0</ele><time>2026-04-26T14:26:15.235Z</time></trkpt><trkpt lat="39.8248153" lon="20.7026154"><ele>602.5</ele><time>2026-04-26T14:26:16.235Z</time></trkpt><trkpt lat="39.8246397" lon="20.7028082"><ele>607.0</ele><time>2026-04-26T14:26:17.234Z</time></trkpt><trkpt lat="39.8244711" lon="20.7030013"><ele>605.3333333333334</ele><time>2026-04-26T14:26:18.234Z</time></trkpt><trkpt lat="39.8243064" lon="20.7031985"><ele>603.6666666666666</ele><time>2026-04-26T14:26:19.235Z</time></trkpt><trkpt lat="39.8241435" lon="20.7033871"><ele>602.0</ele><time>2026-04-26T14:26:20.235Z</time></trkpt><trkpt lat="39.8239808" lon="20.7035794"><ele>605.0</ele><time>2026-04-26T14:26:21.234Z</time></trkpt><trkpt lat="39.8238193" lon="20.7037772"><ele>608.0</ele><time>2026-04-26T14:26:22.235Z</time></trkpt><trkpt lat="39.8236557" lon="20.7039786"><ele>611.0</ele><time>2026-04-26T14:26:23.234Z</time></trkpt><trkpt lat="39.8234929" lon="20.704166"><ele>610.0</ele><time>2026-04-26T14:26:24.234Z</time></trkpt><trkpt lat="39.8233228" lon="20.7043571"><ele>609.0</ele><time>2026-04-26T14:26:25.234Z</time></trkpt><trkpt lat="39.823158" lon="20.704555"><ele>608.0</ele><time>2026-04-26T14:26:26.235Z</time></trkpt><trkpt lat="39.8229905" lon="20.7047547"><ele>611.5</ele><time>2026-04-26T14:26:27.235Z</time></trkpt><trkpt lat="39.822822" lon="20.7049519"><ele>615.0</ele><time>2026-04-26T14:26:28.235Z</time></trkpt><trkpt lat="39.8226516" lon="20.7051493"><ele>615.0</ele><time>2026-04-26T14:26:29.234Z</time></trkpt><trkpt lat="39.8224845" lon="20.7053467"><ele>615.0</ele><time>2026-04-26T14:26:30.235Z</time></trkpt><trkpt lat="39.8223171" lon="20.7055474"><ele>615.0</ele><time>2026-04-26T14:26:31.234Z</time></trkpt><trkpt lat="39.8221505" lon="20.7057612"><ele>615.0</ele><time>2026-04-26T14:26:32.234Z</time></trkpt><trkpt lat="39.821982" lon="20.7059574"><ele>618.0</ele><time>2026-04-26T14:26:33.235Z</time></trkpt><trkpt lat="39.8218146" lon="20.7061514"><ele>621.0</ele><time>2026-04-26T14:26:34.235Z</time></trkpt><trkpt lat="39.8216345" lon="20.7063611"><ele>621.0</ele><time>2026-04-26T14:26:35.235Z</time></trkpt><trkpt lat="39.8214808" lon="20.7065682"><ele>621.0</ele><time>2026-04-26T14:26:36.235Z</time></trkpt><trkpt lat="39.8213171" lon="20.7067686"><ele>621.0</ele><time>2026-04-26T14:26:37.235Z</time></trkpt><trkpt lat="39.821155" lon="20.706953"><ele>622.3333333333334</ele><time>2026-04-26T14:26:38.235Z</time></trkpt><trkpt lat="39.8209928" lon="20.7071349"><ele>623.6666666666667</ele><time>2026-04-26T14:26:39.234Z</time></trkpt><trkpt lat="39.8208317" lon="20.7073254"><ele>625.0</ele><time>2026-04-26T14:26:40.235Z</time></trkpt><trkpt lat="39.8206731" lon="20.7075134"><ele>625.0</ele><time>2026-04-26T14:26:41.234Z</time></trkpt><trkpt lat="39.8205136" lon="20.7077103"><ele>625.0</ele><time>2026-04-26T14:26:42.234Z</time></trkpt><trkpt lat="39.8203496" lon="20.7078981"><ele>625.0</ele><time>2026-04-26T14:26:43.235Z</time></trkpt><trkpt lat="39.8201882" lon="20.7080849"><ele>624.6666666666667</ele><time>2026-04-26T14:26:44.234Z</time></trkpt><trkpt lat="39.8200248" lon="20.7082829"><ele>624.3333333333334</ele><time>2026-04-26T14:26:45.234Z</time></trkpt><trkpt lat="39.8198589" lon="20.7084733"><ele>624.0</ele><time>2026-04-26T14:26:46.234Z</time></trkpt><trkpt lat="39.8196968" lon="20.7086776"><ele>624.6666666666666</ele><time>2026-04-26T14:26:47.234Z</time></trkpt><trkpt lat="39.819538" lon="20.7088774"><ele>625.3333333333333</ele><time>2026-04-26T14:26:48.235Z</time></trkpt><trkpt lat="39.8193708" lon="20.7090681"><ele>626.0</ele><time>2026-04-26T14:26:49.234Z</time></trkpt><trkpt lat="39.8192022" lon="20.7092664"><ele>623.0</ele><time>2026-04-26T14:26:50.235Z</time></trkpt><trkpt lat="39.8190366" lon="20.7094659"><ele>620.0</ele><time>2026-04-26T14:26:51.235Z</time></trkpt><trkpt lat="39.8188673" lon="20.7096662"><ele>620.0</ele><time>2026-04-26T14:26:52.234Z</time></trkpt><trkpt lat="39.8186959" lon="20.7098697"><ele>620.0</ele><time>2026-04-26T14:26:53.235Z</time></trkpt><trkpt lat="39.8185232" lon="20.7100751"><ele>619.5</ele><time>2026-04-26T14:26:54.235Z</time></trkpt><trkpt lat="39.8183431" lon="20.7102738"><ele>619.0</ele><time>2026-04-26T14:26:55.234Z</time></trkpt><trkpt lat="39.818165" lon="20.7104598"><ele>619.0</ele><time>2026-04-26T14:26:56.234Z</time></trkpt><trkpt lat="39.8179776" lon="20.7106476"><ele>619.0</ele><time>2026-04-26T14:26:57.235Z</time></trkpt><trkpt lat="39.8177846" lon="20.7108352"><ele>618.5</ele><time>2026-04-26T14:26:58.234Z</time></trkpt><trkpt lat="39.8175882" lon="20.7110066"><ele>618.0</ele><time>2026-04-26T14:26:59.235Z</time></trkpt><trkpt lat="39.8173836" lon="20.7111784"><ele>618.0</ele><time>2026-04-26T14:27:00.234Z</time></trkpt><trkpt lat="39.8171754" lon="20.7113392"><ele>618.0</ele><time>2026-04-26T14:27:01.235Z</time></trkpt><trkpt lat="39.816965" lon="20.7114933"><ele>614.5</ele><time>2026-04-26T14:27:02.235Z</time></trkpt><trkpt lat="39.8167499" lon="20.7116433"><ele>611.0</ele><time>2026-04-26T14:27:03.235Z</time></trkpt><trkpt lat="39.8165324" lon="20.7117887"><ele>614.0</ele><time>2026-04-26T14:27:04.234Z</time></trkpt><trkpt lat="39.8163217" lon="20.7119339"><ele>617.0</ele><time>2026-04-26T14:27:05.235Z</time></trkpt><trkpt lat="39.81611" lon="20.7120811"><ele>613.5</ele><time>2026-04-26T14:27:06.234Z</time></trkpt><trkpt lat="39.8158922" lon="20.7122274"><ele>610.0</ele><time>2026-04-26T14:27:07.235Z</time></trkpt><trkpt lat="39.8156774" lon="20.7123754"><ele>610.0</ele><time>2026-04-26T14:27:08.234Z</time></trkpt><trkpt lat="39.8154618" lon="20.712517"><ele>610.0</ele><time>2026-04-26T14:27:09.234Z</time></trkpt><trkpt lat="39.8152456" lon="20.712666"><ele>610.5</ele><time>2026-04-26T14:27:10.234Z</time></trkpt><trkpt lat="39.8150266" lon="20.7128111"><ele>611.0</ele><time>2026-04-26T14:27:11.234Z</time></trkpt><trkpt lat="39.8148061" lon="20.7129612"><ele>611.0</ele><time>2026-04-26T14:27:12.234Z</time></trkpt><trkpt lat="39.8145839" lon="20.7131033"><ele>611.0</ele><time>2026-04-26T14:27:13.235Z</time></trkpt><trkpt lat="39.8143623" lon="20.7132425"><ele>609.5</ele><time>2026-04-26T14:27:14.235Z</time></trkpt><trkpt lat="39.8141349" lon="20.7133723"><ele>608.0</ele><time>2026-04-26T14:27:15.235Z</time></trkpt><trkpt lat="39.8139082" lon="20.7134973"><ele>608.5</ele><time>2026-04-26T14:27:16.235Z</time></trkpt><trkpt lat="39.8136799" lon="20.7136264"><ele>609.0</ele><time>2026-04-26T14:27:17.235Z</time></trkpt><trkpt lat="39.8134545" lon="20.7137447"><ele>609.0</ele><time>2026-04-26T14:27:18.235Z</time></trkpt><trkpt lat="39.8132286" lon="20.7138547"><ele>609.0</ele><time>2026-04-26T14:27:19.235Z</time></trkpt><trkpt lat="39.8130019" lon="20.7139594"><ele>609.0</ele><time>2026-04-26T14:27:20.234Z</time></trkpt><trkpt lat="39.81277" lon="20.7140666"><ele>609.0</ele><time>2026-04-26T14:27:21.234Z</time></trkpt><trkpt lat="39.8125413" lon="20.7141808"><ele>609.5</ele><time>2026-04-26T14:27:22.235Z</time></trkpt><trkpt lat="39.8123143" lon="20.7142897"><ele>610.0</ele><time>2026-04-26T14:27:23.234Z</time></trkpt><trkpt lat="39.8120821" lon="20.7144105"><ele>610.0</ele><time>2026-04-26T14:27:24.234Z</time></trkpt><trkpt lat="39.8118593" lon="20.7145434"><ele>610.0</ele><time>2026-04-26T14:27:25.234Z</time></trkpt><trkpt lat="39.8116407" lon="20.7146845"><ele>609.0</ele><time>2026-04-26T14:27:26.234Z</time></trkpt><trkpt lat="39.81142" lon="20.7148266"><ele>608.0</ele><time>2026-04-26T14:27:27.234Z</time></trkpt><trkpt lat="39.8112107" lon="20.7149746"><ele>608.0</ele><time>2026-04-26T14:27:28.234Z</time></trkpt><trkpt lat="39.8110063" lon="20.7151275"><ele>608.0</ele><time>2026-04-26T14:27:29.234Z</time></trkpt><trkpt lat="39.8108033" lon="20.715288"><ele>608.5</ele><time>2026-04-26T14:27:30.235Z</time></trkpt><trkpt lat="39.8106141" lon="20.7154516"><ele>609.0</ele><time>2026-04-26T14:27:31.235Z</time></trkpt><trkpt lat="39.8104234" lon="20.7156267"><ele>609.0</ele><time>2026-04-26T14:27:32.234Z</time></trkpt><trkpt lat="39.8102368" lon="20.7157971"><ele>609.0</ele><time>2026-04-26T14:27:33.235Z</time></trkpt><trkpt lat="39.8100419" lon="20.7159726"><ele>607.5</ele><time>2026-04-26T14:27:34.235Z</time></trkpt><trkpt lat="39.8098472" lon="20.7161707"><ele>606.0</ele><time>2026-04-26T14:27:35.235Z</time></trkpt><trkpt lat="39.8096489" lon="20.7163534"><ele>606.0</ele><time>2026-04-26T14:27:36.235Z</time></trkpt><trkpt lat="39.8094452" lon="20.716541"><ele>606.0</ele><time>2026-04-26T14:27:37.234Z</time></trkpt><trkpt lat="39.809242" lon="20.7167294"><ele>606.5</ele><time>2026-04-26T14:27:38.235Z</time></trkpt><trkpt lat="39.8090432" lon="20.7169252"><ele>607.0</ele><time>2026-04-26T14:27:39.235Z</time></trkpt><trkpt lat="39.8088456" lon="20.7171173"><ele>607.0</ele><time>2026-04-26T14:27:40.235Z</time></trkpt><trkpt lat="39.808645" lon="20.7173067"><ele>607.0</ele><time>2026-04-26T14:27:41.235Z</time></trkpt><trkpt lat="39.8084459" lon="20.7174955"><ele>607.0</ele><time>2026-04-26T14:27:42.235Z</time></trkpt><trkpt lat="39.8082467" lon="20.7176771"><ele>607.0</ele><time>2026-04-26T14:27:43.235Z</time></trkpt><trkpt lat="39.8080428" lon="20.7178635"><ele>607.0</ele><time>2026-04-26T14:27:44.234Z</time></trkpt><trkpt lat="39.8078397" lon="20.7180513"><ele>607.0</ele><time>2026-04-26T14:27:45.235Z</time></trkpt><trkpt lat="39.8076359" lon="20.7182461"><ele>605.5</ele><time>2026-04-26T14:27:46.235Z</time></trkpt><trkpt lat="39.8074268" lon="20.7184339"><ele>604.0</ele><time>2026-04-26T14:27:47.235Z</time></trkpt><trkpt lat="39.8072201" lon="20.7186147"><ele>604.0</ele><time>2026-04-26T14:27:48.234Z</time></trkpt><trkpt lat="39.8070264" lon="20.7187851"><ele>604.0</ele><time>2026-04-26T14:27:49.235Z</time></trkpt><trkpt lat="39.8068281" lon="20.7189678"><ele>599.0</ele><time>2026-04-26T14:27:50.235Z</time></trkpt><trkpt lat="39.8066318" lon="20.7191508"><ele>594.0</ele><time>2026-04-26T14:27:51.235Z</time></trkpt><trkpt lat="39.806434" lon="20.7193373"><ele>596.5</ele><time>2026-04-26T14:27:52.235Z</time></trkpt><trkpt lat="39.8062444" lon="20.7195226"><ele>599.0</ele><time>2026-04-26T14:27:53.234Z</time></trkpt><trkpt lat="39.8060509" lon="20.7196937"><ele>596.5</ele><time>2026-04-26T14:27:54.234Z</time></trkpt><trkpt lat="39.8058624" lon="20.719863"><ele>594.0</ele><time>2026-04-26T14:27:55.234Z</time></trkpt><trkpt lat="39.8056722" lon="20.7200361"><ele>594.0</ele><time>2026-04-26T14:27:56.235Z</time></trkpt><trkpt lat="39.8054846" lon="20.7202179"><ele>594.0</ele><time>2026-04-26T14:27:57.235Z</time></trkpt><trkpt lat="39.805299" lon="20.720398"><ele>593.0</ele><time>2026-04-26T14:27:58.234Z</time></trkpt><trkpt lat="39.8051114" lon="20.7205659"><ele>592.0</ele><time>2026-04-26T14:27:59.234Z</time></trkpt><trkpt lat="39.804924" lon="20.7207377"><ele>592.0</ele><time>2026-04-26T14:28:00.235Z</time></trkpt><trkpt lat="39.8047398" lon="20.7209155"><ele>592.0</ele><time>2026-04-26T14:28:01.234Z</time></trkpt><trkpt lat="39.8045523" lon="20.7210809"><ele>593.5</ele><time>2026-04-26T14:28:02.235Z</time></trkpt><trkpt lat="39.8043601" lon="20.7212433"><ele>595.0</ele><time>2026-04-26T14:28:03.234Z</time></trkpt><trkpt lat="39.8041726" lon="20.7214139"><ele>595.0</ele><time>2026-04-26T14:28:04.235Z</time></trkpt><trkpt lat="39.8039848" lon="20.7215817"><ele>595.0</ele><time>2026-04-26T14:28:05.234Z</time></trkpt><trkpt lat="39.8038001" lon="20.7217446"><ele>595.3333333333334</ele><time>2026-04-26T14:28:06.235Z</time></trkpt><trkpt lat="39.8036219" lon="20.7219028"><ele>595.6666666666666</ele><time>2026-04-26T14:28:07.235Z</time></trkpt><trkpt lat="39.8034452" lon="20.7220597"><ele>596.0</ele><time>2026-04-26T14:28:08.234Z</time></trkpt><trkpt lat="39.8032758" lon="20.7222177"><ele>596.0</ele><time>2026-04-26T14:28:09.234Z</time></trkpt><trkpt lat="39.8031117" lon="20.7223682"><ele>596.0</ele><time>2026-04-26T14:28:10.235Z</time></trkpt><trkpt lat="39.8029569" lon="20.722525"><ele>596.0</ele><time>2026-04-26T14:28:11.235Z</time></trkpt><trkpt lat="39.8028081" lon="20.7226891"><ele>597.0</ele><time>2026-04-26T14:28:12.234Z</time></trkpt><trkpt lat="39.8026722" lon="20.7228592"><ele>598.0</ele><time>2026-04-26T14:28:13.234Z</time></trkpt><trkpt lat="39.8025479" lon="20.7230464"><ele>599.0</ele><time>2026-04-26T14:28:14.235Z</time></trkpt><trkpt lat="39.8024359" lon="20.7232716"><ele>599.0</ele><time>2026-04-26T14:28:15.235Z</time></trkpt><trkpt lat="39.8023302" lon="20.7235373"><ele>599.0</ele><time>2026-04-26T14:28:16.234Z</time></trkpt><trkpt lat="39.8022145" lon="20.723825"><ele>601.0</ele><time>2026-04-26T14:28:17.234Z</time></trkpt><trkpt lat="39.8020912" lon="20.7241288"><ele>603.0</ele><time>2026-04-26T14:28:18.234Z</time></trkpt><trkpt lat="39.8019657" lon="20.7244609"><ele>605.5</ele><time>2026-04-26T14:28:19.235Z</time></trkpt><trkpt lat="39.8018319" lon="20.7248097"><ele>608.0</ele><time>2026-04-26T14:28:20.234Z</time></trkpt><trkpt lat="39.8016929" lon="20.7251302"><ele>606.0</ele><time>2026-04-26T14:28:21.235Z</time></trkpt><trkpt lat="39.8015648" lon="20.7254479"><ele>604.0</ele><time>2026-04-26T14:28:22.235Z</time></trkpt><trkpt lat="39.8014415" lon="20.7257479"><ele>604.0</ele><time>2026-04-26T14:28:23.234Z</time></trkpt><trkpt lat="39.8013315" lon="20.7260389"><ele>604.0</ele><time>2026-04-26T14:28:24.235Z</time></trkpt><trkpt lat="39.8012174" lon="20.7263108"><ele>603.6666666666667</ele><time>2026-04-26T14:28:25.234Z</time></trkpt><trkpt lat="39.8011159" lon="20.726564"><ele>603.3333333333334</ele><time>2026-04-26T14:28:26.235Z</time></trkpt><trkpt lat="39.8009971" lon="20.726796"><ele>603.0</ele><time>2026-04-26T14:28:27.234Z</time></trkpt><trkpt lat="39.8008521" lon="20.7270091"><ele>604.6666666666666</ele><time>2026-04-26T14:28:28.235Z</time></trkpt><trkpt lat="39.8006908" lon="20.7271903"><ele>606.3333333333333</ele><time>2026-04-26T14:28:29.234Z</time></trkpt><trkpt lat="39.8005098" lon="20.727345"><ele>608.0</ele><time>2026-04-26T14:28:30.234Z</time></trkpt><trkpt lat="39.800292" lon="20.7274363"><ele>605.0</ele><time>2026-04-26T14:28:31.234Z</time></trkpt><trkpt lat="39.8000781" lon="20.7275079"><ele>602.0</ele><time>2026-04-26T14:28:32.234Z</time></trkpt><trkpt lat="39.7998589" lon="20.7275536"><ele>599.0</ele><time>2026-04-26T14:28:33.235Z</time></trkpt><trkpt lat="39.7996528" lon="20.7276356"><ele>600.0</ele><time>2026-04-26T14:28:34.234Z</time></trkpt><trkpt lat="39.7994514" lon="20.7277425"><ele>601.0</ele><time>2026-04-26T14:28:35.234Z</time></trkpt><trkpt lat="39.7992642" lon="20.7278882"><ele>602.0</ele><time>2026-04-26T14:28:36.235Z</time></trkpt><trkpt lat="39.7990913" lon="20.7280665"><ele>602.0</ele><time>2026-04-26T14:28:37.235Z</time></trkpt><trkpt lat="39.7989483" lon="20.728272"><ele>602.0</ele><time>2026-04-26T14:28:38.234Z</time></trkpt><trkpt lat="39.7988354" lon="20.7285023"><ele>602.0</ele><time>2026-04-26T14:28:39.234Z</time></trkpt><trkpt lat="39.7987535" lon="20.7287489"><ele>604.3333333333333</ele><time>2026-04-26T14:28:40.234Z</time></trkpt><trkpt lat="39.7987041" lon="20.729012"><ele>606.6666666666666</ele><time>2026-04-26T14:28:41.235Z</time></trkpt><trkpt lat="39.7986748" lon="20.7292843"><ele>609.0</ele><time>2026-04-26T14:28:42.235Z</time></trkpt><trkpt lat="39.7986574" lon="20.7295599"><ele>610.3333333333334</ele><time>2026-04-26T14:28:43.234Z</time></trkpt><trkpt lat="39.79864" lon="20.7298324"><ele>611.6666666666667</ele><time>2026-04-26T14:28:44.234Z</time></trkpt><trkpt lat="39.7986225" lon="20.7301039"><ele>613.0</ele><time>2026-04-26T14:28:45.234Z</time></trkpt><trkpt lat="39.7985886" lon="20.7303728"><ele>610.6666666666667</ele><time>2026-04-26T14:28:46.234Z</time></trkpt><trkpt lat="39.7985387" lon="20.7306442"><ele>608.3333333333334</ele><time>2026-04-26T14:28:47.234Z</time></trkpt><trkpt lat="39.7984583" lon="20.7309171"><ele>606.0</ele><time>2026-04-26T14:28:48.234Z</time></trkpt><trkpt lat="39.7983642" lon="20.7311827"><ele>606.0</ele><time>2026-04-26T14:28:49.235Z</time></trkpt><trkpt lat="39.7982502" lon="20.7314477"><ele>606.0</ele><time>2026-04-26T14:28:50.235Z</time></trkpt><trkpt lat="39.7981201" lon="20.7317175"><ele>613.0</ele><time>2026-04-26T14:28:51.235Z</time></trkpt><trkpt lat="39.7979903" lon="20.7319876"><ele>620.0</ele><time>2026-04-26T14:28:52.234Z</time></trkpt><trkpt lat="39.7978587" lon="20.7322412"><ele>620.0</ele><time>2026-04-26T14:28:53.234Z</time></trkpt><trkpt lat="39.7977306" lon="20.7324883"><ele>620.0</ele><time>2026-04-26T14:28:54.235Z</time></trkpt><trkpt lat="39.7975978" lon="20.7327123"><ele>620.0</ele><time>2026-04-26T14:28:55.235Z</time></trkpt><trkpt lat="39.7974416" lon="20.732903"><ele>615.0</ele><time>2026-04-26T14:28:56.235Z</time></trkpt><trkpt lat="39.7972683" lon="20.7330719"><ele>610.0</ele><time>2026-04-26T14:28:57.234Z</time></trkpt><trkpt lat="39.7970828" lon="20.7331914"><ele>605.0</ele><time>2026-04-26T14:28:58.234Z</time></trkpt><trkpt lat="39.796881" lon="20.7332767"><ele>601.3333333333333</ele><time>2026-04-26T14:28:59.235Z</time></trkpt><trkpt lat="39.7966663" lon="20.7333201"><ele>597.6666666666666</ele><time>2026-04-26T14:29:00.235Z</time></trkpt><trkpt lat="39.796449" lon="20.7333186"><ele>594.0</ele><time>2026-04-26T14:29:01.234Z</time></trkpt><trkpt lat="39.7962297" lon="20.7332697"><ele>594.0</ele><time>2026-04-26T14:29:02.235Z</time></trkpt><trkpt lat="39.7960136" lon="20.7331918"><ele>594.0</ele><time>2026-04-26T14:29:03.235Z</time></trkpt><trkpt lat="39.7957995" lon="20.7330935"><ele>598.5</ele><time>2026-04-26T14:29:04.235Z</time></trkpt><trkpt lat="39.7955822" lon="20.7330152"><ele>603.0</ele><time>2026-04-26T14:29:05.234Z</time></trkpt><trkpt lat="39.7953622" lon="20.7329491"><ele>603.5</ele><time>2026-04-26T14:29:06.235Z</time></trkpt><trkpt lat="39.795135" lon="20.7329102"><ele>604.0</ele><time>2026-04-26T14:29:07.235Z</time></trkpt><trkpt lat="39.7949023" lon="20.7328951"><ele>604.0</ele><time>2026-04-26T14:29:08.235Z</time></trkpt><trkpt lat="39.7946651" lon="20.7328942"><ele>604.0</ele><time>2026-04-26T14:29:09.234Z</time></trkpt><trkpt lat="39.7944239" lon="20.7329548"><ele>601.0</ele><time>2026-04-26T14:29:10.234Z</time></trkpt><trkpt lat="39.7941753" lon="20.7330263"><ele>598.0</ele><time>2026-04-26T14:29:11.235Z</time></trkpt><trkpt lat="39.793925" lon="20.7331284"><ele>598.0</ele><time>2026-04-26T14:29:12.234Z</time></trkpt><trkpt lat="39.793682" lon="20.7332439"><ele>598.0</ele><time>2026-04-26T14:29:13.235Z</time></trkpt><trkpt lat="39.7934427" lon="20.7333716"><ele>599.0</ele><time>2026-04-26T14:29:14.235Z</time></trkpt><trkpt lat="39.7932129" lon="20.7335067"><ele>600.0</ele><time>2026-04-26T14:29:15.235Z</time></trkpt><trkpt lat="39.7929873" lon="20.7336405"><ele>600.0</ele><time>2026-04-26T14:29:16.235Z</time></trkpt><trkpt lat="39.7927726" lon="20.7337667"><ele>600.0</ele><time>2026-04-26T14:29:17.235Z</time></trkpt><trkpt lat="39.7925614" lon="20.7338886"><ele>597.0</ele><time>2026-04-26T14:29:18.234Z</time></trkpt><trkpt lat="39.7923537" lon="20.7340137"><ele>594.0</ele><time>2026-04-26T14:29:19.234Z</time></trkpt><trkpt lat="39.7921483" lon="20.7341251"><ele>594.0</ele><time>2026-04-26T14:29:20.235Z</time></trkpt><trkpt lat="39.7919448" lon="20.7342452"><ele>594.0</ele><time>2026-04-26T14:29:21.235Z</time></trkpt><trkpt lat="39.7917412" lon="20.7343761"><ele>593.0</ele><time>2026-04-26T14:29:22.234Z</time></trkpt><trkpt lat="39.7915478" lon="20.7345092"><ele>592.0</ele><time>2026-04-26T14:29:23.235Z</time></trkpt><trkpt lat="39.7913567" lon="20.7346472"><ele>591.0</ele><time>2026-04-26T14:29:24.235Z</time></trkpt><trkpt lat="39.7911749" lon="20.7347913"><ele>591.3333333333334</ele><time>2026-04-26T14:29:25.234Z</time></trkpt><trkpt lat="39.7909993" lon="20.7349387"><ele>591.6666666666667</ele><time>2026-04-26T14:29:26.234Z</time></trkpt><trkpt lat="39.7908306" lon="20.7350991"><ele>592.0</ele><time>2026-04-26T14:29:27.235Z</time></trkpt><trkpt lat="39.7906681" lon="20.7352734"><ele>592.0</ele><time>2026-04-26T14:29:28.235Z</time></trkpt><trkpt lat="39.7905102" lon="20.7354545"><ele>592.0</ele><time>2026-04-26T14:29:29.235Z</time></trkpt><trkpt lat="39.7903584" lon="20.7356455"><ele>592.0</ele><time>2026-04-26T14:29:30.235Z</time></trkpt><trkpt lat="39.7902153" lon="20.7358541"><ele>591.3333333333334</ele><time>2026-04-26T14:29:31.235Z</time></trkpt><trkpt lat="39.7900834" lon="20.7360818"><ele>590.6666666666666</ele><time>2026-04-26T14:29:32.235Z</time></trkpt><trkpt lat="39.7899586" lon="20.7363154"><ele>590.0</ele><time>2026-04-26T14:29:33.234Z</time></trkpt><trkpt lat="39.7898349" lon="20.7365432"><ele>590.0</ele><time>2026-04-26T14:29:34.235Z</time></trkpt><trkpt lat="39.7897203" lon="20.7367635"><ele>590.0</ele><time>2026-04-26T14:29:35.235Z</time></trkpt><trkpt lat="39.7896108" lon="20.7369874"><ele>590.0</ele><time>2026-04-26T14:29:36.234Z</time></trkpt><trkpt lat="39.7895127" lon="20.7371983"><ele>591.0</ele><time>2026-04-26T14:29:37.235Z</time></trkpt><trkpt lat="39.7894274" lon="20.7374059"><ele>592.0</ele><time>2026-04-26T14:29:38.235Z</time></trkpt><trkpt lat="39.7893436" lon="20.7376017"><ele>593.0</ele><time>2026-04-26T14:29:39.234Z</time></trkpt><trkpt lat="39.7892565" lon="20.7377948"><ele>590.3333333333333</ele><time>2026-04-26T14:29:40.234Z</time></trkpt><trkpt lat="39.7891543" lon="20.7379771"><ele>587.6666666666666</ele><time>2026-04-26T14:29:41.235Z</time></trkpt><trkpt lat="39.7890395" lon="20.7381574"><ele>585.0</ele><time>2026-04-26T14:29:42.235Z</time></trkpt><trkpt lat="39.7889137" lon="20.7383325"><ele>585.0</ele><time>2026-04-26T14:29:43.235Z</time></trkpt><trkpt lat="39.7887799" lon="20.7384931"><ele>585.0</ele><time>2026-04-26T14:29:44.235Z</time></trkpt><trkpt lat="39.7886311" lon="20.7386376"><ele>585.0</ele><time>2026-04-26T14:29:45.234Z</time></trkpt><trkpt lat="39.7884656" lon="20.738753"><ele>584.0</ele><time>2026-04-26T14:29:46.235Z</time></trkpt><trkpt lat="39.7882853" lon="20.7388413"><ele>583.0</ele><time>2026-04-26T14:29:47.235Z</time></trkpt><trkpt lat="39.788096" lon="20.7389091"><ele>582.0</ele><time>2026-04-26T14:29:48.235Z</time></trkpt><trkpt lat="39.7879007" lon="20.7389524"><ele>582.0</ele><time>2026-04-26T14:29:49.234Z</time></trkpt><trkpt lat="39.7876974" lon="20.7389766"><ele>582.0</ele><time>2026-04-26T14:29:50.235Z</time></trkpt><trkpt lat="39.7874887" lon="20.7389712"><ele>582.0</ele><time>2026-04-26T14:29:51.234Z</time></trkpt><trkpt lat="39.787281" lon="20.7389362"><ele>582.0</ele><time>2026-04-26T14:29:52.234Z</time></trkpt><trkpt lat="39.7870776" lon="20.7388807"><ele>582.0</ele><time>2026-04-26T14:29:53.235Z</time></trkpt><trkpt lat="39.7868697" lon="20.7388178"><ele>582.0</ele><time>2026-04-26T14:29:54.234Z</time></trkpt><trkpt lat="39.7866595" lon="20.7387494"><ele>582.6666666666666</ele><time>2026-04-26T14:29:55.235Z</time></trkpt><trkpt lat="39.7864478" lon="20.7386878"><ele>583.3333333333333</ele><time>2026-04-26T14:29:56.234Z</time></trkpt><trkpt lat="39.7862365" lon="20.7386329"><ele>584.0</ele><time>2026-04-26T14:29:57.234Z</time></trkpt><trkpt lat="39.7860327" lon="20.7385747"><ele>577.6666666666666</ele><time>2026-04-26T14:29:58.234Z</time></trkpt><trkpt lat="39.7858386" lon="20.7385214"><ele>571.3333333333334</ele><time>2026-04-26T14:29:59.234Z</time></trkpt><trkpt lat="39.7856409" lon="20.7384797"><ele>565.0</ele><time>2026-04-26T14:30:00.234Z</time></trkpt><trkpt lat="39.7854381" lon="20.7384659"><ele>565.0</ele><time>2026-04-26T14:30:01.234Z</time></trkpt><trkpt lat="39.785238" lon="20.73847"><ele>565.0</ele><time>2026-04-26T14:30:02.235Z</time></trkpt><trkpt lat="39.7850387" lon="20.7385269"><ele>565.0</ele><time>2026-04-26T14:30:03.235Z</time></trkpt><trkpt lat="39.7848422" lon="20.7386099"><ele>563.3333333333334</ele><time>2026-04-26T14:30:04.234Z</time></trkpt><trkpt lat="39.7846578" lon="20.7387396"><ele>561.6666666666666</ele><time>2026-04-26T14:30:05.235Z</time></trkpt><trkpt lat="39.7844816" lon="20.7388867"><ele>560.0</ele><time>2026-04-26T14:30:06.235Z</time></trkpt><trkpt lat="39.7843107" lon="20.7390637"><ele>560.0</ele><time>2026-04-26T14:30:07.235Z</time></trkpt><trkpt lat="39.7841444" lon="20.7392564"><ele>560.0</ele><time>2026-04-26T14:30:08.234Z</time></trkpt><trkpt lat="39.7839733" lon="20.7394367"><ele>560.0</ele><time>2026-04-26T14:30:09.234Z</time></trkpt><trkpt lat="39.783801" lon="20.7396153"><ele>557.6666666666666</ele><time>2026-04-26T14:30:10.235Z</time></trkpt><trkpt lat="39.7836315" lon="20.7397845"><ele>555.3333333333334</ele><time>2026-04-26T14:30:11.235Z</time></trkpt><trkpt lat="39.7834579" lon="20.7399416"><ele>553.0</ele><time>2026-04-26T14:30:12.234Z</time></trkpt><trkpt lat="39.7832825" lon="20.7401044"><ele>558.0</ele><time>2026-04-26T14:30:13.234Z</time></trkpt><trkpt lat="39.7830978" lon="20.7402365"><ele>563.0</ele><time>2026-04-26T14:30:14.234Z</time></trkpt><trkpt lat="39.7829063" lon="20.7403536"><ele>568.0</ele><time>2026-04-26T14:30:15.234Z</time></trkpt><trkpt lat="39.7827082" lon="20.7404669"><ele>562.3333333333334</ele><time>2026-04-26T14:30:16.234Z</time></trkpt><trkpt lat="39.7825127" lon="20.7405735"><ele>556.6666666666666</ele><time>2026-04-26T14:30:17.235Z</time></trkpt><trkpt lat="39.782325" lon="20.7406746"><ele>551.0</ele><time>2026-04-26T14:30:18.235Z</time></trkpt><trkpt lat="39.7821491" lon="20.7407915"><ele>551.0</ele><time>2026-04-26T14:30:19.235Z</time></trkpt><trkpt lat="39.7819731" lon="20.7409502"><ele>551.0</ele><time>2026-04-26T14:30:20.234Z</time></trkpt><trkpt lat="39.7818145" lon="20.7411264"><ele>551.0</ele><time>2026-04-26T14:30:21.235Z</time></trkpt><trkpt lat="39.7816752" lon="20.7413327"><ele>551.0</ele><time>2026-04-26T14:30:22.234Z</time></trkpt><trkpt lat="39.7815515" lon="20.7415585"><ele>551.0</ele><time>2026-04-26T14:30:23.234Z</time></trkpt><trkpt lat="39.7814431" lon="20.7418033"><ele>551.0</ele><time>2026-04-26T14:30:24.235Z</time></trkpt><trkpt lat="39.7813439" lon="20.7420553"><ele>557.0</ele><time>2026-04-26T14:30:25.235Z</time></trkpt><trkpt lat="39.7812511" lon="20.7423034"><ele>563.0</ele><time>2026-04-26T14:30:26.235Z</time></trkpt><trkpt lat="39.7811642" lon="20.7425473"><ele>569.0</ele><time>2026-04-26T14:30:27.234Z</time></trkpt><trkpt lat="39.7810797" lon="20.7427907"><ele>558.3333333333333</ele><time>2026-04-26T14:30:28.234Z</time></trkpt><trkpt lat="39.7809861" lon="20.7430187"><ele>547.6666666666666</ele><time>2026-04-26T14:30:29.235Z</time></trkpt><trkpt lat="39.7808756" lon="20.7432299"><ele>537.0</ele><time>2026-04-26T14:30:30.234Z</time></trkpt><trkpt lat="39.7807333" lon="20.743415"><ele>543.0</ele><time>2026-04-26T14:30:31.234Z</time></trkpt><trkpt lat="39.7805676" lon="20.7435622"><ele>549.0</ele><time>2026-04-26T14:30:32.234Z</time></trkpt><trkpt lat="39.780399" lon="20.7436849"><ele>555.0</ele><time>2026-04-26T14:30:33.234Z</time></trkpt><trkpt lat="39.7802291" lon="20.7438123"><ele>551.3333333333334</ele><time>2026-04-26T14:30:34.235Z</time></trkpt><trkpt lat="39.7800612" lon="20.7439727"><ele>547.6666666666667</ele><time>2026-04-26T14:30:35.234Z</time></trkpt><trkpt lat="39.7799089" lon="20.7441708"><ele>544.0</ele><time>2026-04-26T14:30:36.235Z</time></trkpt><trkpt lat="39.7797648" lon="20.744406"><ele>544.0</ele><time>2026-04-26T14:30:37.234Z</time></trkpt><trkpt lat="39.7796375" lon="20.7446826"><ele>544.0</ele><time>2026-04-26T14:30:38.234Z</time></trkpt><trkpt lat="39.7795341" lon="20.74499"><ele>550.5</ele><time>2026-04-26T14:30:39.235Z</time></trkpt><trkpt lat="39.7794565" lon="20.7453416"><ele>557.0</ele><time>2026-04-26T14:30:40.234Z</time></trkpt><trkpt lat="39.7793933" lon="20.7457117"><ele>538.5</ele><time>2026-04-26T14:30:41.234Z</time></trkpt><trkpt lat="39.7793278" lon="20.7460621"><ele>520.0</ele><time>2026-04-26T14:30:42.235Z</time></trkpt><trkpt lat="39.7792663" lon="20.7463974"><ele>520.0</ele><time>2026-04-26T14:30:43.235Z</time></trkpt><trkpt lat="39.7792022" lon="20.7466963"><ele>520.0</ele><time>2026-04-26T14:30:44.234Z</time></trkpt><trkpt lat="39.7791495" lon="20.7469692"><ele>524.0</ele><time>2026-04-26T14:30:45.235Z</time></trkpt><trkpt lat="39.7791039" lon="20.747221"><ele>528.0</ele><time>2026-04-26T14:30:46.235Z</time></trkpt><trkpt lat="39.7790561" lon="20.7474623"><ele>532.0</ele><time>2026-04-26T14:30:47.234Z</time></trkpt><trkpt lat="39.7790222" lon="20.7477047"><ele>535.0</ele><time>2026-04-26T14:30:48.235Z</time></trkpt><trkpt lat="39.7789781" lon="20.7479458"><ele>538.0</ele><time>2026-04-26T14:30:49.234Z</time></trkpt><trkpt lat="39.7789331" lon="20.7481817"><ele>541.0</ele><time>2026-04-26T14:30:50.234Z</time></trkpt><trkpt lat="39.778892" lon="20.7484111"><ele>543.6666666666667</ele><time>2026-04-26T14:30:51.235Z</time></trkpt><trkpt lat="39.778854" lon="20.7486372"><ele>546.3333333333334</ele><time>2026-04-26T14:30:52.235Z</time></trkpt><trkpt lat="39.7788131" lon="20.7488573"><ele>549.0</ele><time>2026-04-26T14:30:53.235Z</time></trkpt><trkpt lat="39.7787741" lon="20.7490873"><ele>549.0</ele><time>2026-04-26T14:30:54.234Z</time></trkpt><trkpt lat="39.77872" lon="20.7492907"><ele>549.0</ele><time>2026-04-26T14:30:55.235Z</time></trkpt><trkpt lat="39.7786592" lon="20.7494865"><ele>549.0</ele><time>2026-04-26T14:30:56.234Z</time></trkpt><trkpt lat="39.7785922" lon="20.7496803"><ele>548.3333333333334</ele><time>2026-04-26T14:30:57.235Z</time></trkpt><trkpt lat="39.7785083" lon="20.7498579"><ele>547.6666666666667</ele><time>2026-04-26T14:30:58.235Z</time></trkpt><trkpt lat="39.7784148" lon="20.7500381"><ele>547.0</ele><time>2026-04-26T14:30:59.234Z</time></trkpt><trkpt lat="39.7783179" lon="20.7502212"><ele>547.0</ele><time>2026-04-26T14:31:00.235Z</time></trkpt><trkpt lat="39.7782197" lon="20.7503784"><ele>547.0</ele><time>2026-04-26T14:31:01.234Z</time></trkpt><trkpt lat="39.7781182" lon="20.75053"><ele>547.0</ele><time>2026-04-26T14:31:02.235Z</time></trkpt><trkpt lat="39.7780132" lon="20.7506737"><ele>547.0</ele><time>2026-04-26T14:31:03.235Z</time></trkpt><trkpt lat="39.777894" lon="20.7508008"><ele>547.0</ele><time>2026-04-26T14:31:04.234Z</time></trkpt><trkpt lat="39.7777686" lon="20.7509279"><ele>547.0</ele><time>2026-04-26T14:31:05.235Z</time></trkpt><trkpt lat="39.7776333" lon="20.751042"><ele>551.3333333333334</ele><time>2026-04-26T14:31:06.234Z</time></trkpt><trkpt lat="39.7774936" lon="20.7511423"><ele>555.6666666666666</ele><time>2026-04-26T14:31:07.234Z</time></trkpt><trkpt lat="39.7773442" lon="20.7512619"><ele>560.0</ele><time>2026-04-26T14:31:08.234Z</time></trkpt><trkpt lat="39.7771942" lon="20.7513495"><ele>560.0</ele><time>2026-04-26T14:31:09.235Z</time></trkpt><trkpt lat="39.7770456" lon="20.751422"><ele>560.0</ele><time>2026-04-26T14:31:10.234Z</time></trkpt><trkpt lat="39.7768999" lon="20.7514848"><ele>560.0</ele><time>2026-04-26T14:31:11.234Z</time></trkpt><trkpt lat="39.7767548" lon="20.7515326"><ele>553.0</ele><time>2026-04-26T14:31:12.234Z</time></trkpt><trkpt lat="39.7766088" lon="20.7515827"><ele>546.0</ele><time>2026-04-26T14:31:13.234Z</time></trkpt><trkpt lat="39.7764609" lon="20.7516333"><ele>539.0</ele><time>2026-04-26T14:31:14.234Z</time></trkpt><trkpt lat="39.7763069" lon="20.7516737"><ele>539.0</ele><time>2026-04-26T14:31:15.235Z</time></trkpt><trkpt lat="39.7761515" lon="20.7517193"><ele>539.0</ele><time>2026-04-26T14:31:16.235Z</time></trkpt><trkpt lat="39.7760017" lon="20.7517646"><ele>539.0</ele><time>2026-04-26T14:31:17.234Z</time></trkpt><trkpt lat="39.7758587" lon="20.7518023"><ele>540.25</ele><time>2026-04-26T14:31:18.235Z</time></trkpt><trkpt lat="39.775714" lon="20.7518367"><ele>541.5</ele><time>2026-04-26T14:31:19.234Z</time></trkpt><trkpt lat="39.7755664" lon="20.7518798"><ele>542.75</ele><time>2026-04-26T14:31:20.235Z</time></trkpt><trkpt lat="39.7754237" lon="20.7519259"><ele>544.0</ele><time>2026-04-26T14:31:21.234Z</time></trkpt><trkpt lat="39.7752715" lon="20.7519708"><ele>541.3333333333334</ele><time>2026-04-26T14:31:22.235Z</time></trkpt><trkpt lat="39.7750893" lon="20.7520175"><ele>538.6666666666666</ele><time>2026-04-26T14:31:23.235Z</time></trkpt><trkpt lat="39.7749033" lon="20.7520398"><ele>536.0</ele><time>2026-04-26T14:31:24.235Z</time></trkpt><trkpt lat="39.7747225" lon="20.752037"><ele>536.0</ele><time>2026-04-26T14:31:25.234Z</time></trkpt><trkpt lat="39.7745551" lon="20.752009"><ele>536.0</ele><time>2026-04-26T14:31:26.234Z</time></trkpt><trkpt lat="39.774402" lon="20.751969"><ele>536.0</ele><time>2026-04-26T14:31:27.234Z</time></trkpt><trkpt lat="39.7742596" lon="20.7519089"><ele>531.0</ele><time>2026-04-26T14:31:28.234Z</time></trkpt><trkpt lat="39.7741133" lon="20.751824"><ele>526.0</ele><time>2026-04-26T14:31:29.234Z</time></trkpt><trkpt lat="39.7739495" lon="20.751709"><ele>521.0</ele><time>2026-04-26T14:31:30.235Z</time></trkpt><trkpt lat="39.7737743" lon="20.7515564"><ele>521.0</ele><time>2026-04-26T14:31:31.234Z</time></trkpt><trkpt lat="39.7736053" lon="20.7514051"><ele>521.0</ele><time>2026-04-26T14:31:32.235Z</time></trkpt><trkpt lat="39.77344" lon="20.7512527"><ele>521.0</ele><time>2026-04-26T14:31:33.234Z</time></trkpt><trkpt lat="39.773261" lon="20.7511054"><ele>517.6666666666666</ele><time>2026-04-26T14:31:34.235Z</time></trkpt><trkpt lat="39.7730702" lon="20.7509804"><ele>514.3333333333334</ele><time>2026-04-26T14:31:35.235Z</time></trkpt><trkpt lat="39.7728709" lon="20.7508838"><ele>511.0</ele><time>2026-04-26T14:31:36.235Z</time></trkpt><trkpt lat="39.7726658" lon="20.750834"><ele>508.33333333333337</ele><time>2026-04-26T14:31:37.234Z</time></trkpt><trkpt lat="39.7724495" lon="20.7508123"><ele>505.66666666666663</ele><time>2026-04-26T14:31:38.235Z</time></trkpt><trkpt lat="39.772242" lon="20.7508349"><ele>503.0</ele><time>2026-04-26T14:31:39.235Z</time></trkpt><trkpt lat="39.7720329" lon="20.750878"><ele>504.0</ele><time>2026-04-26T14:31:40.234Z</time></trkpt><trkpt lat="39.7718392" lon="20.7509569"><ele>505.0</ele><time>2026-04-26T14:31:41.234Z</time></trkpt><trkpt lat="39.7716588" lon="20.7510654"><ele>506.0</ele><time>2026-04-26T14:31:42.235Z</time></trkpt><trkpt lat="39.7714764" lon="20.7511976"><ele>506.0</ele><time>2026-04-26T14:31:43.235Z</time></trkpt><trkpt lat="39.7713121" lon="20.7513771"><ele>506.0</ele><time>2026-04-26T14:31:44.234Z</time></trkpt><trkpt lat="39.7711627" lon="20.7515746"><ele>506.0</ele><time>2026-04-26T14:31:45.234Z</time></trkpt><trkpt lat="39.7710056" lon="20.7517578"><ele>507.66666666666663</ele><time>2026-04-26T14:31:46.234Z</time></trkpt><trkpt lat="39.7708562" lon="20.7519509"><ele>509.33333333333337</ele><time>2026-04-26T14:31:47.235Z</time></trkpt><trkpt lat="39.7707147" lon="20.752156"><ele>511.0</ele><time>2026-04-26T14:31:48.235Z</time></trkpt><trkpt lat="39.7705704" lon="20.7523647"><ele>511.0</ele><time>2026-04-26T14:31:49.234Z</time></trkpt><trkpt lat="39.7704351" lon="20.752568"><ele>511.0</ele><time>2026-04-26T14:31:50.235Z</time></trkpt><trkpt lat="39.7703112" lon="20.7527771"><ele>511.0</ele><time>2026-04-26T14:31:51.235Z</time></trkpt><trkpt lat="39.7701822" lon="20.7530128"><ele>512.0</ele><time>2026-04-26T14:31:52.234Z</time></trkpt><trkpt lat="39.770042" lon="20.753261"><ele>513.0</ele><time>2026-04-26T14:31:53.234Z</time></trkpt><trkpt lat="39.7698976" lon="20.7534944"><ele>523.0</ele><time>2026-04-26T14:31:54.235Z</time></trkpt><trkpt lat="39.7697625" lon="20.7537526"><ele>533.0</ele><time>2026-04-26T14:31:55.235Z</time></trkpt><trkpt lat="39.7696364" lon="20.7540329"><ele>533.0</ele><time>2026-04-26T14:31:56.234Z</time></trkpt><trkpt lat="39.7695191" lon="20.75432"><ele>533.0</ele><time>2026-04-26T14:31:57.234Z</time></trkpt><trkpt lat="39.7693973" lon="20.754582"><ele>532.3333333333333</ele><time>2026-04-26T14:31:58.235Z</time></trkpt><trkpt lat="39.7692865" lon="20.7548349"><ele>531.6666666666666</ele><time>2026-04-26T14:31:59.234Z</time></trkpt><trkpt lat="39.7691866" lon="20.7550859"><ele>531.0</ele><time>2026-04-26T14:32:00.234Z</time></trkpt><trkpt lat="39.7690937" lon="20.7553399"><ele>531.0</ele><time>2026-04-26T14:32:01.235Z</time></trkpt><trkpt lat="39.7690154" lon="20.7555976"><ele>531.0</ele><time>2026-04-26T14:32:02.235Z</time></trkpt><trkpt lat="39.7689455" lon="20.7558568"><ele>531.0</ele><time>2026-04-26T14:32:03.235Z</time></trkpt><trkpt lat="39.7688631" lon="20.7561084"><ele>535.0</ele><time>2026-04-26T14:32:04.234Z</time></trkpt><trkpt lat="39.7687759" lon="20.7563587"><ele>539.0</ele><time>2026-04-26T14:32:05.235Z</time></trkpt><trkpt lat="39.768703" lon="20.7566524"><ele>543.0</ele><time>2026-04-26T14:32:06.234Z</time></trkpt><trkpt lat="39.7686116" lon="20.7569534"><ele>532.0</ele><time>2026-04-26T14:32:07.235Z</time></trkpt><trkpt lat="39.768505" lon="20.7572404"><ele>521.0</ele><time>2026-04-26T14:32:08.234Z</time></trkpt><trkpt lat="39.7683898" lon="20.7575167"><ele>523.6666666666666</ele><time>2026-04-26T14:32:09.234Z</time></trkpt><trkpt lat="39.7682745" lon="20.7577746"><ele>526.3333333333334</ele><time>2026-04-26T14:32:10.234Z</time></trkpt><trkpt lat="39.7681615" lon="20.7580159"><ele>529.0</ele><time>2026-04-26T14:32:11.234Z</time></trkpt><trkpt lat="39.7680436" lon="20.7582455"><ele>529.0</ele><time>2026-04-26T14:32:12.234Z</time></trkpt><trkpt lat="39.7679251" lon="20.758472"><ele>529.0</ele><time>2026-04-26T14:32:13.234Z</time></trkpt><trkpt lat="39.7678172" lon="20.7587062"><ele>529.0</ele><time>2026-04-26T14:32:14.235Z</time></trkpt><trkpt lat="39.7677059" lon="20.7589416"><ele>528.3333333333334</ele><time>2026-04-26T14:32:15.234Z</time></trkpt><trkpt lat="39.7675717" lon="20.7591596"><ele>527.6666666666666</ele><time>2026-04-26T14:32:16.235Z</time></trkpt><trkpt lat="39.7674325" lon="20.7593892"><ele>527.0</ele><time>2026-04-26T14:32:17.234Z</time></trkpt><trkpt lat="39.7672949" lon="20.7596182"><ele>527.0</ele><time>2026-04-26T14:32:18.234Z</time></trkpt><trkpt lat="39.7671578" lon="20.7598496"><ele>527.0</ele><time>2026-04-26T14:32:19.234Z</time></trkpt><trkpt lat="39.7670185" lon="20.7600738"><ele>527.0</ele><time>2026-04-26T14:32:20.234Z</time></trkpt><trkpt lat="39.766881" lon="20.7602997"><ele>524.6666666666666</ele><time>2026-04-26T14:32:21.235Z</time></trkpt><trkpt lat="39.7667424" lon="20.7605285"><ele>522.3333333333334</ele><time>2026-04-26T14:32:22.234Z</time></trkpt><trkpt lat="39.7666124" lon="20.7607671"><ele>520.0</ele><time>2026-04-26T14:32:23.235Z</time></trkpt><trkpt lat="39.7664914" lon="20.7609839"><ele>523.0</ele><time>2026-04-26T14:32:24.234Z</time></trkpt><trkpt lat="39.7663671" lon="20.7612046"><ele>526.0</ele><time>2026-04-26T14:32:25.235Z</time></trkpt><trkpt lat="39.7662361" lon="20.7614163"><ele>529.0</ele><time>2026-04-26T14:32:26.235Z</time></trkpt><trkpt lat="39.7661013" lon="20.7616323"><ele>525.0</ele><time>2026-04-26T14:32:27.234Z</time></trkpt><trkpt lat="39.7659637" lon="20.7618476"><ele>521.0</ele><time>2026-04-26T14:32:28.234Z</time></trkpt><trkpt lat="39.7658311" lon="20.7620652"><ele>517.0</ele><time>2026-04-26T14:32:29.234Z</time></trkpt><trkpt lat="39.7657013" lon="20.7622881"><ele>517.0</ele><time>2026-04-26T14:32:30.235Z</time></trkpt><trkpt lat="39.7655767" lon="20.7625109"><ele>517.0</ele><time>2026-04-26T14:32:31.235Z</time></trkpt><trkpt lat="39.76544" lon="20.7627268"><ele>517.0</ele><time>2026-04-26T14:32:32.235Z</time></trkpt><trkpt lat="39.7653042" lon="20.7629415"><ele>513.6666666666667</ele><time>2026-04-26T14:32:33.235Z</time></trkpt><trkpt lat="39.7651758" lon="20.7631614"><ele>510.33333333333337</ele><time>2026-04-26T14:32:34.235Z</time></trkpt><trkpt lat="39.7650546" lon="20.7633724"><ele>507.0</ele><time>2026-04-26T14:32:35.234Z</time></trkpt><trkpt lat="39.7649222" lon="20.7635823"><ele>507.0</ele><time>2026-04-26T14:32:36.235Z</time></trkpt><trkpt lat="39.7648008" lon="20.7637885"><ele>507.0</ele><time>2026-04-26T14:32:37.234Z</time></trkpt><trkpt lat="39.7646725" lon="20.7639893"><ele>507.0</ele><time>2026-04-26T14:32:38.235Z</time></trkpt><trkpt lat="39.7645403" lon="20.7641867"><ele>507.0</ele><time>2026-04-26T14:32:39.234Z</time></trkpt><trkpt lat="39.764403" lon="20.7643745"><ele>507.0</ele><time>2026-04-26T14:32:40.234Z</time></trkpt><trkpt lat="39.7642582" lon="20.7645452"><ele>507.0</ele><time>2026-04-26T14:32:41.235Z</time></trkpt><trkpt lat="39.7641102" lon="20.7647136"><ele>504.33333333333337</ele><time>2026-04-26T14:32:42.235Z</time></trkpt><trkpt lat="39.7639637" lon="20.7648754"><ele>501.6666666666667</ele><time>2026-04-26T14:32:43.234Z</time></trkpt><trkpt lat="39.7638079" lon="20.7650301"><ele>499.0</ele><time>2026-04-26T14:32:44.234Z</time></trkpt><trkpt lat="39.7636479" lon="20.7651849"><ele>497.33333333333337</ele><time>2026-04-26T14:32:45.234Z</time></trkpt><trkpt lat="39.7634877" lon="20.76534"><ele>495.66666666666663</ele><time>2026-04-26T14:32:46.234Z</time></trkpt><trkpt lat="39.7633246" lon="20.7654965"><ele>494.0</ele><time>2026-04-26T14:32:47.234Z</time></trkpt><trkpt lat="39.7631609" lon="20.7656532"><ele>494.0</ele><time>2026-04-26T14:32:48.234Z</time></trkpt><trkpt lat="39.7629949" lon="20.7658182"><ele>494.0</ele><time>2026-04-26T14:32:49.235Z</time></trkpt><trkpt lat="39.7628279" lon="20.7659772"><ele>494.0</ele><time>2026-04-26T14:32:50.234Z</time></trkpt><trkpt lat="39.7626527" lon="20.7661375"><ele>493.0</ele><time>2026-04-26T14:32:51.235Z</time></trkpt><trkpt lat="39.7624789" lon="20.7662945"><ele>492.0</ele><time>2026-04-26T14:32:52.234Z</time></trkpt><trkpt lat="39.7623014" lon="20.7664658"><ele>491.0</ele><time>2026-04-26T14:32:53.234Z</time></trkpt><trkpt lat="39.7621274" lon="20.7666237"><ele>491.0</ele><time>2026-04-26T14:32:54.234Z</time></trkpt><trkpt lat="39.7619545" lon="20.7667881"><ele>491.0</ele><time>2026-04-26T14:32:55.234Z</time></trkpt><trkpt lat="39.7617745" lon="20.7669512"><ele>491.0</ele><time>2026-04-26T14:32:56.234Z</time></trkpt><trkpt lat="39.7615908" lon="20.7671149"><ele>488.66666666666663</ele><time>2026-04-26T14:32:57.234Z</time></trkpt><trkpt lat="39.7614131" lon="20.7672792"><ele>486.33333333333337</ele><time>2026-04-26T14:32:58.234Z</time></trkpt><trkpt lat="39.7612362" lon="20.7674447"><ele>484.0</ele><time>2026-04-26T14:32:59.234Z</time></trkpt><trkpt lat="39.761057" lon="20.7676233"><ele>483.0</ele><time>2026-04-26T14:33:00.235Z</time></trkpt><trkpt lat="39.7608786" lon="20.7677775"><ele>482.0</ele><time>2026-04-26T14:33:01.235Z</time></trkpt><trkpt lat="39.7607" lon="20.7679344"><ele>481.0</ele><time>2026-04-26T14:33:02.235Z</time></trkpt><trkpt lat="39.7605269" lon="20.7680955"><ele>481.0</ele><time>2026-04-26T14:33:03.235Z</time></trkpt><trkpt lat="39.7603521" lon="20.7682629"><ele>481.0</ele><time>2026-04-26T14:33:04.235Z</time></trkpt><trkpt lat="39.7601765" lon="20.76843"><ele>481.0</ele><time>2026-04-26T14:33:05.235Z</time></trkpt><trkpt lat="39.7599978" lon="20.7686007"><ele>480.6666666666667</ele><time>2026-04-26T14:33:06.235Z</time></trkpt><trkpt lat="39.7598214" lon="20.7687686"><ele>480.33333333333337</ele><time>2026-04-26T14:33:07.234Z</time></trkpt><trkpt lat="39.7596449" lon="20.7689319"><ele>480.0</ele><time>2026-04-26T14:33:08.235Z</time></trkpt><trkpt lat="39.7594813" lon="20.7691075"><ele>479.0</ele><time>2026-04-26T14:33:09.234Z</time></trkpt><trkpt lat="39.7593093" lon="20.7692637"><ele>478.0</ele><time>2026-04-26T14:33:10.234Z</time></trkpt><trkpt lat="39.7591374" lon="20.7694223"><ele>477.0</ele><time>2026-04-26T14:33:11.234Z</time></trkpt><trkpt lat="39.7589677" lon="20.7695721"><ele>477.0</ele><time>2026-04-26T14:33:12.234Z</time></trkpt><trkpt lat="39.7587998" lon="20.7697282"><ele>477.0</ele><time>2026-04-26T14:33:13.234Z</time></trkpt><trkpt lat="39.7586291" lon="20.7698792"><ele>477.0</ele><time>2026-04-26T14:33:14.234Z</time></trkpt><trkpt lat="39.7584567" lon="20.7700424"><ele>476.66666666666663</ele><time>2026-04-26T14:33:15.235Z</time></trkpt><trkpt lat="39.7582779" lon="20.7701945"><ele>476.3333333333333</ele><time>2026-04-26T14:33:16.235Z</time></trkpt><trkpt lat="39.7581043" lon="20.7703531"><ele>476.0</ele><time>2026-04-26T14:33:17.235Z</time></trkpt><trkpt lat="39.757932" lon="20.7705146"><ele>476.0</ele><time>2026-04-26T14:33:18.235Z</time></trkpt><trkpt lat="39.7577541" lon="20.7706736"><ele>476.0</ele><time>2026-04-26T14:33:19.234Z</time></trkpt><trkpt lat="39.7575798" lon="20.7708405"><ele>476.0</ele><time>2026-04-26T14:33:20.235Z</time></trkpt><trkpt lat="39.7574068" lon="20.771001"><ele>476.0</ele><time>2026-04-26T14:33:21.234Z</time></trkpt><trkpt lat="39.7572247" lon="20.7711665"><ele>476.0</ele><time>2026-04-26T14:33:22.235Z</time></trkpt><trkpt lat="39.7570449" lon="20.7713353"><ele>476.0</ele><time>2026-04-26T14:33:23.234Z</time></trkpt><trkpt lat="39.7568683" lon="20.7714999"><ele>476.0</ele><time>2026-04-26T14:33:24.235Z</time></trkpt><trkpt lat="39.7566894" lon="20.7716752"><ele>476.0</ele><time>2026-04-26T14:33:25.234Z</time></trkpt><trkpt lat="39.7565063" lon="20.7718447"><ele>476.0</ele><time>2026-04-26T14:33:26.235Z</time></trkpt><trkpt lat="39.7563192" lon="20.7720135"><ele>476.0</ele><time>2026-04-26T14:33:27.234Z</time></trkpt><trkpt lat="39.7561343" lon="20.7721812"><ele>476.0</ele><time>2026-04-26T14:33:28.235Z</time></trkpt><trkpt lat="39.7559457" lon="20.7723539"><ele>477.0</ele><time>2026-04-26T14:33:29.234Z</time></trkpt><trkpt lat="39.7557571" lon="20.7725306"><ele>478.0</ele><time>2026-04-26T14:33:30.234Z</time></trkpt><trkpt lat="39.7555676" lon="20.7727075"><ele>478.0</ele><time>2026-04-26T14:33:31.235Z</time></trkpt><trkpt lat="39.7553751" lon="20.7728854"><ele>478.0</ele><time>2026-04-26T14:33:32.234Z</time></trkpt><trkpt lat="39.7551892" lon="20.7730747"><ele>476.0</ele><time>2026-04-26T14:33:33.234Z</time></trkpt><trkpt lat="39.7549947" lon="20.7732607"><ele>474.0</ele><time>2026-04-26T14:33:34.234Z</time></trkpt><trkpt lat="39.7548056" lon="20.7734551"><ele>474.5</ele><time>2026-04-26T14:33:35.235Z</time></trkpt><trkpt lat="39.7546176" lon="20.773664"><ele>475.0</ele><time>2026-04-26T14:33:36.235Z</time></trkpt><trkpt lat="39.7544353" lon="20.7738764"><ele>474.0</ele><time>2026-04-26T14:33:37.234Z</time></trkpt><trkpt lat="39.7542596" lon="20.7741006"><ele>473.0</ele><time>2026-04-26T14:33:38.235Z</time></trkpt><trkpt lat="39.7540892" lon="20.7743305"><ele>474.0</ele><time>2026-04-26T14:33:39.234Z</time></trkpt><trkpt lat="39.7539309" lon="20.7745678"><ele>475.0</ele><time>2026-04-26T14:33:40.234Z</time></trkpt><trkpt lat="39.7537802" lon="20.7748161"><ele>475.0</ele><time>2026-04-26T14:33:41.235Z</time></trkpt><trkpt lat="39.7536405" lon="20.7750699"><ele>475.0</ele><time>2026-04-26T14:33:42.234Z</time></trkpt><trkpt lat="39.7535081" lon="20.7753373"><ele>473.0</ele><time>2026-04-26T14:33:43.235Z</time></trkpt><trkpt lat="39.7533955" lon="20.775615"><ele>471.0</ele><time>2026-04-26T14:33:44.235Z</time></trkpt><trkpt lat="39.7532756" lon="20.7759066"><ele>472.0</ele><time>2026-04-26T14:33:45.234Z</time></trkpt><trkpt lat="39.7531666" lon="20.7762103"><ele>473.0</ele><time>2026-04-26T14:33:46.234Z</time></trkpt><trkpt lat="39.753068" lon="20.7765227"><ele>473.0</ele><time>2026-04-26T14:33:47.235Z</time></trkpt><trkpt lat="39.752969" lon="20.7768315"><ele>473.0</ele><time>2026-04-26T14:33:48.234Z</time></trkpt><trkpt lat="39.7528658" lon="20.7771332"><ele>472.5</ele><time>2026-04-26T14:33:49.235Z</time></trkpt><trkpt lat="39.7527729" lon="20.7774411"><ele>472.0</ele><time>2026-04-26T14:33:50.234Z</time></trkpt><trkpt lat="39.7526689" lon="20.7777342"><ele>472.0</ele><time>2026-04-26T14:33:51.234Z</time></trkpt><trkpt lat="39.7525664" lon="20.7780236"><ele>472.0</ele><time>2026-04-26T14:33:52.234Z</time></trkpt><trkpt lat="39.7524763" lon="20.7783217"><ele>473.0</ele><time>2026-04-26T14:33:53.235Z</time></trkpt><trkpt lat="39.7523856" lon="20.7786185"><ele>474.0</ele><time>2026-04-26T14:33:54.234Z</time></trkpt><trkpt lat="39.7522903" lon="20.7789033"><ele>474.0</ele><time>2026-04-26T14:33:55.235Z</time></trkpt><trkpt lat="39.7521863" lon="20.7791783"><ele>474.0</ele><time>2026-04-26T14:33:56.235Z</time></trkpt><trkpt lat="39.7520808" lon="20.7794526"><ele>474.5</ele><time>2026-04-26T14:33:57.235Z</time></trkpt><trkpt lat="39.7519606" lon="20.7797087"><ele>475.0</ele><time>2026-04-26T14:33:58.235Z</time></trkpt><trkpt lat="39.7518265" lon="20.7799487"><ele>474.6666666666667</ele><time>2026-04-26T14:33:59.235Z</time></trkpt><trkpt lat="39.7516799" lon="20.7801747"><ele>474.33333333333337</ele><time>2026-04-26T14:34:00.235Z</time></trkpt><trkpt lat="39.751522" lon="20.7803756"><ele>474.0</ele><time>2026-04-26T14:34:01.235Z</time></trkpt><trkpt lat="39.7513492" lon="20.7805678"><ele>474.0</ele><time>2026-04-26T14:34:02.235Z</time></trkpt><trkpt lat="39.7511739" lon="20.7807432"><ele>474.0</ele><time>2026-04-26T14:34:03.234Z</time></trkpt><trkpt lat="39.7509887" lon="20.7809052"><ele>474.0</ele><time>2026-04-26T14:34:04.235Z</time></trkpt><trkpt lat="39.7507971" lon="20.7810515"><ele>473.33333333333337</ele><time>2026-04-26T14:34:05.235Z</time></trkpt><trkpt lat="39.7506041" lon="20.7811717"><ele>472.6666666666667</ele><time>2026-04-26T14:34:06.235Z</time></trkpt><trkpt lat="39.7504154" lon="20.7812691"><ele>472.0</ele><time>2026-04-26T14:34:07.235Z</time></trkpt><trkpt lat="39.7502395" lon="20.7813449"><ele>472.0</ele><time>2026-04-26T14:34:08.234Z</time></trkpt><trkpt lat="39.7500855" lon="20.7814073"><ele>472.0</ele><time>2026-04-26T14:34:09.235Z</time></trkpt><trkpt lat="39.7499365" lon="20.7814662"><ele>472.0</ele><time>2026-04-26T14:34:10.235Z</time></trkpt><trkpt lat="39.7497971" lon="20.7815264"><ele>472.0</ele><time>2026-04-26T14:34:11.234Z</time></trkpt><trkpt lat="39.7496536" lon="20.7815765"><ele>472.0</ele><time>2026-04-26T14:34:12.235Z</time></trkpt><trkpt lat="39.7495041" lon="20.7816235"><ele>472.0</ele><time>2026-04-26T14:34:13.234Z</time></trkpt><trkpt lat="39.749358" lon="20.7816667"><ele>471.6666666666667</ele><time>2026-04-26T14:34:14.234Z</time></trkpt><trkpt lat="39.7492088" lon="20.781729"><ele>471.33333333333337</ele><time>2026-04-26T14:34:15.234Z</time></trkpt><trkpt lat="39.7490611" lon="20.7817768"><ele>471.0</ele><time>2026-04-26T14:34:16.235Z</time></trkpt><trkpt lat="39.7489157" lon="20.7818231"><ele>471.75</ele><time>2026-04-26T14:34:17.235Z</time></trkpt><trkpt lat="39.7487721" lon="20.7818662"><ele>472.5</ele><time>2026-04-26T14:34:18.234Z</time></trkpt><trkpt lat="39.7486296" lon="20.7819139"><ele>473.25</ele><time>2026-04-26T14:34:19.234Z</time></trkpt><trkpt lat="39.7484889" lon="20.7819576"><ele>474.0</ele><time>2026-04-26T14:34:20.235Z</time></trkpt><trkpt lat="39.7483484" lon="20.7820003"><ele>474.0</ele><time>2026-04-26T14:34:21.234Z</time></trkpt><trkpt lat="39.7482059" lon="20.7820494"><ele>474.0</ele><time>2026-04-26T14:34:22.234Z</time></trkpt><trkpt lat="39.7480577" lon="20.7820884"><ele>474.0</ele><time>2026-04-26T14:34:23.234Z</time></trkpt><trkpt lat="39.7479049" lon="20.7821152"><ele>474.0</ele><time>2026-04-26T14:34:24.234Z</time></trkpt><trkpt lat="39.74775" lon="20.7821406"><ele>474.0</ele><time>2026-04-26T14:34:25.234Z</time></trkpt><trkpt lat="39.7475948" lon="20.7821561"><ele>474.0</ele><time>2026-04-26T14:34:26.234Z</time></trkpt><trkpt lat="39.7474371" lon="20.7821516"><ele>473.66666666666663</ele><time>2026-04-26T14:34:27.234Z</time></trkpt><trkpt lat="39.7472772" lon="20.7821391"><ele>473.3333333333333</ele><time>2026-04-26T14:34:28.235Z</time></trkpt><trkpt lat="39.747113" lon="20.7821185"><ele>473.0</ele><time>2026-04-26T14:34:29.235Z</time></trkpt><trkpt lat="39.7469543" lon="20.7820863"><ele>472.66666666666663</ele><time>2026-04-26T14:34:30.234Z</time></trkpt><trkpt lat="39.7468006" lon="20.7820472"><ele>472.33333333333337</ele><time>2026-04-26T14:34:31.235Z</time></trkpt><trkpt lat="39.7466471" lon="20.7819982"><ele>472.0</ele><time>2026-04-26T14:34:32.235Z</time></trkpt><trkpt lat="39.7464882" lon="20.7819503"><ele>472.0</ele><time>2026-04-26T14:34:33.234Z</time></trkpt><trkpt lat="39.7463379" lon="20.7818912"><ele>472.0</ele><time>2026-04-26T14:34:34.234Z</time></trkpt><trkpt lat="39.7461957" lon="20.7818227"><ele>472.0</ele><time>2026-04-26T14:34:35.234Z</time></trkpt><trkpt lat="39.746057" lon="20.7817436"><ele>471.33333333333337</ele><time>2026-04-26T14:34:36.234Z</time></trkpt><trkpt lat="39.7459066" lon="20.7816693"><ele>470.66666666666663</ele><time>2026-04-26T14:34:37.234Z</time></trkpt><trkpt lat="39.745742" lon="20.7815825"><ele>470.0</ele><time>2026-04-26T14:34:38.234Z</time></trkpt><trkpt lat="39.7455563" lon="20.7814715"><ele>470.0</ele><time>2026-04-26T14:34:39.235Z</time></trkpt><trkpt lat="39.7453594" lon="20.7813479"><ele>470.0</ele><time>2026-04-26T14:34:40.235Z</time></trkpt><trkpt lat="39.7451631" lon="20.7812131"><ele>470.0</ele><time>2026-04-26T14:34:41.234Z</time></trkpt><trkpt lat="39.7449732" lon="20.7810777"><ele>469.3333333333333</ele><time>2026-04-26T14:34:42.235Z</time></trkpt><trkpt lat="39.7447836" lon="20.7809393"><ele>468.66666666666663</ele><time>2026-04-26T14:34:43.234Z</time></trkpt><trkpt lat="39.7446006" lon="20.7808071"><ele>468.0</ele><time>2026-04-26T14:34:44.235Z</time></trkpt><trkpt lat="39.7444151" lon="20.7806826"><ele>468.0</ele><time>2026-04-26T14:34:45.235Z</time></trkpt><trkpt lat="39.7442331" lon="20.7805525"><ele>468.0</ele><time>2026-04-26T14:34:46.235Z</time></trkpt><trkpt lat="39.7440578" lon="20.7804315"><ele>468.0</ele><time>2026-04-26T14:34:47.234Z</time></trkpt><trkpt lat="39.7438716" lon="20.7803025"><ele>467.66666666666663</ele><time>2026-04-26T14:34:48.235Z</time></trkpt><trkpt lat="39.7436834" lon="20.7801681"><ele>467.3333333333333</ele><time>2026-04-26T14:34:49.234Z</time></trkpt><trkpt lat="39.7434919" lon="20.780032"><ele>467.0</ele><time>2026-04-26T14:34:50.235Z</time></trkpt><trkpt lat="39.7432963" lon="20.7798933"><ele>467.0</ele><time>2026-04-26T14:34:51.235Z</time></trkpt><trkpt lat="39.7431016" lon="20.779752"><ele>467.0</ele><time>2026-04-26T14:34:52.235Z</time></trkpt><trkpt lat="39.7429041" lon="20.7796109"><ele>467.0</ele><time>2026-04-26T14:34:53.235Z</time></trkpt><trkpt lat="39.7427185" lon="20.779475"><ele>466.66666666666663</ele><time>2026-04-26T14:34:54.235Z</time></trkpt><trkpt lat="39.7425309" lon="20.7793411"><ele>466.33333333333337</ele><time>2026-04-26T14:34:55.235Z</time></trkpt><trkpt lat="39.7423462" lon="20.7792094"><ele>466.0</ele><time>2026-04-26T14:34:56.235Z</time></trkpt><trkpt lat="39.7421638" lon="20.7790835"><ele>466.0</ele><time>2026-04-26T14:34:57.234Z</time></trkpt><trkpt lat="39.7419853" lon="20.7789632"><ele>466.0</ele><time>2026-04-26T14:34:58.235Z</time></trkpt><trkpt lat="39.741809" lon="20.7788481"><ele>466.0</ele><time>2026-04-26T14:34:59.234Z</time></trkpt><trkpt lat="39.7416326" lon="20.7787338"><ele>466.0</ele><time>2026-04-26T14:35:00.235Z</time></trkpt><trkpt lat="39.7414499" lon="20.7786333"><ele>466.0</ele><time>2026-04-26T14:35:01.234Z</time></trkpt><trkpt lat="39.7412741" lon="20.7785339"><ele>466.0</ele><time>2026-04-26T14:35:02.235Z</time></trkpt><trkpt lat="39.7410963" lon="20.7784384"><ele>466.0</ele><time>2026-04-26T14:35:03.234Z</time></trkpt><trkpt lat="39.7409179" lon="20.7783496"><ele>466.0</ele><time>2026-04-26T14:35:04.234Z</time></trkpt><trkpt lat="39.7407391" lon="20.7782742"><ele>466.0</ele><time>2026-04-26T14:35:05.235Z</time></trkpt><trkpt lat="39.7405641" lon="20.7782073"><ele>466.0</ele><time>2026-04-26T14:35:06.234Z</time></trkpt><trkpt lat="39.7403902" lon="20.778141"><ele>466.0</ele><time>2026-04-26T14:35:07.235Z</time></trkpt><trkpt lat="39.7402171" lon="20.7780823"><ele>466.0</ele><time>2026-04-26T14:35:08.235Z</time></trkpt><trkpt lat="39.7400462" lon="20.7780247"><ele>465.6666666666667</ele><time>2026-04-26T14:35:09.234Z</time></trkpt><trkpt lat="39.7398697" lon="20.7779736"><ele>465.33333333333337</ele><time>2026-04-26T14:35:10.234Z</time></trkpt><trkpt lat="39.7396957" lon="20.7779234"><ele>465.0</ele><time>2026-04-26T14:35:11.235Z</time></trkpt><trkpt lat="39.739527" lon="20.7778779"><ele>465.33333333333337</ele><time>2026-04-26T14:35:12.234Z</time></trkpt><trkpt lat="39.7393656" lon="20.7778308"><ele>465.6666666666667</ele><time>2026-04-26T14:35:13.235Z</time></trkpt><trkpt lat="39.739205" lon="20.7777862"><ele>466.0</ele><time>2026-04-26T14:35:14.234Z</time></trkpt><trkpt lat="39.7390575" lon="20.7777414"><ele>466.0</ele><time>2026-04-26T14:35:15.235Z</time></trkpt><trkpt lat="39.7389083" lon="20.7776932"><ele>466.0</ele><time>2026-04-26T14:35:16.234Z</time></trkpt><trkpt lat="39.7387634" lon="20.7776481"><ele>466.0</ele><time>2026-04-26T14:35:17.234Z</time></trkpt><trkpt lat="39.7386161" lon="20.7776114"><ele>466.0</ele><time>2026-04-26T14:35:18.235Z</time></trkpt><trkpt lat="39.7384759" lon="20.7775705"><ele>466.0</ele><time>2026-04-26T14:35:19.235Z</time></trkpt><trkpt lat="39.7383311" lon="20.7775359"><ele>466.0</ele><time>2026-04-26T14:35:20.234Z</time></trkpt><trkpt lat="39.7381932" lon="20.7774955"><ele>466.0</ele><time>2026-04-26T14:35:21.234Z</time></trkpt><trkpt lat="39.7380541" lon="20.7774491"><ele>466.0</ele><time>2026-04-26T14:35:22.234Z</time></trkpt><trkpt lat="39.7379191" lon="20.7774172"><ele>466.0</ele><time>2026-04-26T14:35:23.234Z</time></trkpt><trkpt lat="39.7377834" lon="20.7773748"><ele>466.0</ele><time>2026-04-26T14:35:24.235Z</time></trkpt><trkpt lat="39.737656" lon="20.7773362"><ele>466.0</ele><time>2026-04-26T14:35:25.234Z</time></trkpt><trkpt lat="39.7375335" lon="20.7772993"><ele>465.8</ele><time>2026-04-26T14:35:26.234Z</time></trkpt><trkpt lat="39.7374169" lon="20.7772679"><ele>465.6</ele><time>2026-04-26T14:35:27.234Z</time></trkpt><trkpt lat="39.7373069" lon="20.777233"><ele>465.4</ele><time>2026-04-26T14:35:28.235Z</time></trkpt><trkpt lat="39.7372005" lon="20.7771985"><ele>465.2</ele><time>2026-04-26T14:35:29.235Z</time></trkpt><trkpt lat="39.7371069" lon="20.7771682"><ele>465.0</ele><time>2026-04-26T14:35:30.235Z</time></trkpt><trkpt lat="39.7370242" lon="20.7771488"><ele>465.0</ele><time>2026-04-26T14:35:31.235Z</time></trkpt><trkpt lat="39.7369518" lon="20.7771312"><ele>465.0</ele><time>2026-04-26T14:35:32.234Z</time></trkpt><trkpt lat="39.736887" lon="20.777109"><ele>465.0</ele><time>2026-04-26T14:35:33.234Z</time></trkpt><trkpt lat="39.7368197" lon="20.7770824"><ele>465.0</ele><time>2026-04-26T14:35:34.235Z</time></trkpt><trkpt lat="39.7367439" lon="20.7770602"><ele>465.0</ele><time>2026-04-26T14:35:35.235Z</time></trkpt><trkpt lat="39.7366628" lon="20.7770425"><ele>465.0</ele><time>2026-04-26T14:35:36.234Z</time></trkpt><trkpt lat="39.7365648" lon="20.7770247"><ele>465.0</ele><time>2026-04-26T14:35:37.235Z</time></trkpt><trkpt lat="39.7364611" lon="20.7769937"><ele>465.0</ele><time>2026-04-26T14:35:38.234Z</time></trkpt><trkpt lat="39.7363496" lon="20.7769658"><ele>465.0</ele><time>2026-04-26T14:35:39.234Z</time></trkpt><trkpt lat="39.736243" lon="20.7769384"><ele>465.0</ele><time>2026-04-26T14:35:40.235Z</time></trkpt><trkpt lat="39.7361457" lon="20.7769107"><ele>465.0</ele><time>2026-04-26T14:35:41.234Z</time></trkpt><trkpt lat="39.7360501" lon="20.7768774"><ele>465.0</ele><time>2026-04-26T14:35:42.235Z</time></trkpt><trkpt lat="39.7359556" lon="20.776854"><ele>465.0</ele><time>2026-04-26T14:35:43.234Z</time></trkpt><trkpt lat="39.7358555" lon="20.7768259"><ele>465.0</ele><time>2026-04-26T14:35:44.235Z</time></trkpt><trkpt lat="39.7357553" lon="20.7767982"><ele>465.0</ele><time>2026-04-26T14:35:45.235Z</time></trkpt><trkpt lat="39.735654" lon="20.7767774"><ele>465.0</ele><time>2026-04-26T14:35:46.235Z</time></trkpt><trkpt lat="39.7355457" lon="20.776763"><ele>465.4</ele><time>2026-04-26T14:35:47.234Z</time></trkpt><trkpt lat="39.7354397" lon="20.776748"><ele>465.8</ele><time>2026-04-26T14:35:48.235Z</time></trkpt><trkpt lat="39.7353343" lon="20.776744"><ele>466.20000000000005</ele><time>2026-04-26T14:35:49.235Z</time></trkpt><trkpt lat="39.7352381" lon="20.7767488"><ele>466.6</ele><time>2026-04-26T14:35:50.234Z</time></trkpt><trkpt lat="39.735146" lon="20.7767606"><ele>467.0</ele><time>2026-04-26T14:35:51.235Z</time></trkpt><trkpt lat="39.7350604" lon="20.7767694"><ele>466.99999999999994</ele><time>2026-04-26T14:35:52.234Z</time></trkpt><trkpt lat="39.7349801" lon="20.776779"><ele>467.0</ele><time>2026-04-26T14:35:53.235Z</time></trkpt><trkpt lat="39.7349025" lon="20.7767835"><ele>467.0</ele><time>2026-04-26T14:35:54.234Z</time></trkpt><trkpt lat="39.7348362" lon="20.7767897"><ele>467.0</ele><time>2026-04-26T14:35:55.234Z</time></trkpt><trkpt lat="39.7347726" lon="20.7767937"><ele>466.99999999999994</ele><time>2026-04-26T14:35:56.235Z</time></trkpt><trkpt lat="39.73466" lon="20.7767803"><ele>467.0</ele><time>2026-04-26T14:35:58.234Z</time></trkpt><trkpt lat="39.7345653" lon="20.7767408"><ele>467.0</ele><time>2026-04-26T14:36:00.234Z</time></trkpt><trkpt lat="39.7344889" lon="20.7767007"><ele>467.00000000000006</ele><time>2026-04-26T14:36:02.234Z</time></trkpt><trkpt lat="39.7344209" lon="20.7766551"><ele>467.00000000000006</ele><time>2026-04-26T14:36:04.235Z</time></trkpt><trkpt lat="39.7343521" lon="20.776581"><ele>467.0</ele><time>2026-04-26T14:36:06.234Z</time></trkpt><trkpt lat="39.73427" lon="20.7764754"><ele>467.0</ele><time>2026-04-26T14:36:08.234Z</time></trkpt><trkpt lat="39.7341505" lon="20.7764483"><ele>467.16666666666663</ele><time>2026-04-26T14:36:10.234Z</time></trkpt><trkpt lat="39.7340912" lon="20.7764784"><ele>467.3333333333333</ele><time>2026-04-26T14:36:11.235Z</time></trkpt><trkpt lat="39.7340355" lon="20.7765323"><ele>467.5</ele><time>2026-04-26T14:36:12.234Z</time></trkpt><trkpt lat="39.7339681" lon="20.7766634"><ele>467.66666666666663</ele><time>2026-04-26T14:36:14.235Z</time></trkpt><trkpt lat="39.7339251" lon="20.7767242"><ele>467.8333333333333</ele><time>2026-04-26T14:36:15.235Z</time></trkpt><trkpt lat="39.7338707" lon="20.7767838"><ele>468.0</ele><time>2026-04-26T14:36:16.235Z</time></trkpt><trkpt lat="39.7337975" lon="20.7768348"><ele>467.59999999999997</ele><time>2026-04-26T14:36:17.234Z</time></trkpt><trkpt lat="39.7337119" lon="20.7768883"><ele>467.19999999999993</ele><time>2026-04-26T14:36:18.234Z</time></trkpt><trkpt lat="39.7336203" lon="20.7769351"><ele>466.8</ele><time>2026-04-26T14:36:19.234Z</time></trkpt><trkpt lat="39.7335314" lon="20.7769828"><ele>466.4</ele><time>2026-04-26T14:36:20.235Z</time></trkpt><trkpt lat="39.7334415" lon="20.7770335"><ele>466.0</ele><time>2026-04-26T14:36:21.235Z</time></trkpt><trkpt lat="39.7333459" lon="20.7770885"><ele>467.5</ele><time>2026-04-26T14:36:22.235Z</time></trkpt><trkpt lat="39.7332466" lon="20.7771446"><ele>469.0</ele><time>2026-04-26T14:36:23.234Z</time></trkpt><trkpt lat="39.7331325" lon="20.7772058"><ele>470.5</ele><time>2026-04-26T14:36:24.235Z</time></trkpt><trkpt lat="39.733022" lon="20.7772684"><ele>472.0</ele><time>2026-04-26T14:36:25.235Z</time></trkpt><trkpt lat="39.7329195" lon="20.7773276"><ele>472.0</ele><time>2026-04-26T14:36:26.235Z</time></trkpt><trkpt lat="39.7328242" lon="20.7773884"><ele>472.0</ele><time>2026-04-26T14:36:27.235Z</time></trkpt><trkpt lat="39.7327206" lon="20.7774493"><ele>472.0</ele><time>2026-04-26T14:36:28.234Z</time></trkpt><trkpt lat="39.7326111" lon="20.7775092"><ele>472.0</ele><time>2026-04-26T14:36:29.234Z</time></trkpt><trkpt lat="39.7324852" lon="20.7775883"><ele>471.75</ele><time>2026-04-26T14:36:30.234Z</time></trkpt><trkpt lat="39.7323541" lon="20.7776597"><ele>471.5</ele><time>2026-04-26T14:36:31.234Z</time></trkpt><trkpt lat="39.7322209" lon="20.7777385"><ele>471.25</ele><time>2026-04-26T14:36:32.234Z</time></trkpt><trkpt lat="39.732082" lon="20.7778167"><ele>471.0</ele><time>2026-04-26T14:36:33.235Z</time></trkpt><trkpt lat="39.7319321" lon="20.7778987"><ele>471.0</ele><time>2026-04-26T14:36:34.234Z</time></trkpt><trkpt lat="39.7317734" lon="20.7779847"><ele>471.0</ele><time>2026-04-26T14:36:35.235Z</time></trkpt><trkpt lat="39.7315861" lon="20.7780747"><ele>471.0</ele><time>2026-04-26T14:36:36.235Z</time></trkpt><trkpt lat="39.7314043" lon="20.7781629"><ele>471.0</ele><time>2026-04-26T14:36:37.235Z</time></trkpt><trkpt lat="39.7312146" lon="20.7782583"><ele>471.0</ele><time>2026-04-26T14:36:38.235Z</time></trkpt><trkpt lat="39.7310153" lon="20.7783486"><ele>471.0</ele><time>2026-04-26T14:36:39.235Z</time></trkpt><trkpt lat="39.7308167" lon="20.7784443"><ele>470.66666666666663</ele><time>2026-04-26T14:36:40.234Z</time></trkpt><trkpt lat="39.7306187" lon="20.7785472"><ele>470.3333333333333</ele><time>2026-04-26T14:36:41.235Z</time></trkpt><trkpt lat="39.7304081" lon="20.7786469"><ele>470.0</ele><time>2026-04-26T14:36:42.235Z</time></trkpt><trkpt lat="39.730192" lon="20.7787485"><ele>470.0</ele><time>2026-04-26T14:36:43.235Z</time></trkpt><trkpt lat="39.7299794" lon="20.7788468"><ele>470.0</ele><time>2026-04-26T14:36:44.235Z</time></trkpt><trkpt lat="39.7297612" lon="20.7789521"><ele>470.0</ele><time>2026-04-26T14:36:45.234Z</time></trkpt><trkpt lat="39.7295331" lon="20.7790715"><ele>470.0</ele><time>2026-04-26T14:36:46.235Z</time></trkpt><trkpt lat="39.7292843" lon="20.779193"><ele>470.5</ele><time>2026-04-26T14:36:47.234Z</time></trkpt><trkpt lat="39.7290245" lon="20.7793548"><ele>471.0</ele><time>2026-04-26T14:36:48.234Z</time></trkpt><trkpt lat="39.7287623" lon="20.7794697"><ele>472.5</ele><time>2026-04-26T14:36:49.234Z</time></trkpt><trkpt lat="39.7285084" lon="20.7795716"><ele>474.0</ele><time>2026-04-26T14:36:50.234Z</time></trkpt><trkpt lat="39.7282818" lon="20.7796703"><ele>474.0</ele><time>2026-04-26T14:36:51.234Z</time></trkpt><trkpt lat="39.7280517" lon="20.7797784"><ele>474.0</ele><time>2026-04-26T14:36:52.235Z</time></trkpt><trkpt lat="39.7278323" lon="20.779891"><ele>473.66666666666663</ele><time>2026-04-26T14:36:53.234Z</time></trkpt><trkpt lat="39.7276257" lon="20.7799877"><ele>473.3333333333333</ele><time>2026-04-26T14:36:54.235Z</time></trkpt><trkpt lat="39.7274232" lon="20.7800821"><ele>473.0</ele><time>2026-04-26T14:36:55.234Z</time></trkpt><trkpt lat="39.7272275" lon="20.7801722"><ele>473.0</ele><time>2026-04-26T14:36:56.234Z</time></trkpt><trkpt lat="39.7270288" lon="20.7802641"><ele>473.0</ele><time>2026-04-26T14:36:57.235Z</time></trkpt><trkpt lat="39.7268379" lon="20.7803487"><ele>473.0</ele><time>2026-04-26T14:36:58.234Z</time></trkpt><trkpt lat="39.7266434" lon="20.7804371"><ele>472.66666666666663</ele><time>2026-04-26T14:36:59.234Z</time></trkpt><trkpt lat="39.7264533" lon="20.7805273"><ele>472.33333333333337</ele><time>2026-04-26T14:37:00.234Z</time></trkpt><trkpt lat="39.7262636" lon="20.7806154"><ele>472.0</ele><time>2026-04-26T14:37:01.234Z</time></trkpt><trkpt lat="39.7260739" lon="20.7807054"><ele>472.33333333333337</ele><time>2026-04-26T14:37:02.234Z</time></trkpt><trkpt lat="39.7258788" lon="20.7807991"><ele>472.66666666666663</ele><time>2026-04-26T14:37:03.235Z</time></trkpt><trkpt lat="39.7256814" lon="20.7808926"><ele>473.0</ele><time>2026-04-26T14:37:04.234Z</time></trkpt><trkpt lat="39.7254744" lon="20.7810008"><ele>473.0</ele><time>2026-04-26T14:37:05.234Z</time></trkpt><trkpt lat="39.7252688" lon="20.7810907"><ele>473.0</ele><time>2026-04-26T14:37:06.235Z</time></trkpt><trkpt lat="39.7250759" lon="20.7811734"><ele>473.0</ele><time>2026-04-26T14:37:07.235Z</time></trkpt><trkpt lat="39.7248855" lon="20.7812607"><ele>473.0</ele><time>2026-04-26T14:37:08.234Z</time></trkpt><trkpt lat="39.7246963" lon="20.7813483"><ele>473.0</ele><time>2026-04-26T14:37:09.234Z</time></trkpt><trkpt lat="39.724518" lon="20.7814274"><ele>473.0</ele><time>2026-04-26T14:37:10.235Z</time></trkpt><trkpt lat="39.7243459" lon="20.7815034"><ele>473.0</ele><time>2026-04-26T14:37:11.235Z</time></trkpt><trkpt lat="39.7241729" lon="20.781578"><ele>473.0</ele><time>2026-04-26T14:37:12.235Z</time></trkpt><trkpt lat="39.7239977" lon="20.7816584"><ele>473.0</ele><time>2026-04-26T14:37:13.235Z</time></trkpt><trkpt lat="39.7238184" lon="20.7817486"><ele>473.0</ele><time>2026-04-26T14:37:14.235Z</time></trkpt><trkpt lat="39.7236334" lon="20.7818441"><ele>473.0</ele><time>2026-04-26T14:37:15.234Z</time></trkpt><trkpt lat="39.7234565" lon="20.7819374"><ele>473.0</ele><time>2026-04-26T14:37:16.235Z</time></trkpt><trkpt lat="39.7232758" lon="20.782042"><ele>472.66666666666663</ele><time>2026-04-26T14:37:17.235Z</time></trkpt><trkpt lat="39.7230943" lon="20.7821634"><ele>472.33333333333337</ele><time>2026-04-26T14:37:18.234Z</time></trkpt><trkpt lat="39.7228987" lon="20.7823137"><ele>472.0</ele><time>2026-04-26T14:37:19.234Z</time></trkpt><trkpt lat="39.7226869" lon="20.7825023"><ele>470.0</ele><time>2026-04-26T14:37:20.235Z</time></trkpt><trkpt lat="39.722459" lon="20.7827229"><ele>468.0</ele><time>2026-04-26T14:37:21.234Z</time></trkpt><trkpt lat="39.7222346" lon="20.7829662"><ele>468.0</ele><time>2026-04-26T14:37:22.234Z</time></trkpt><trkpt lat="39.7220314" lon="20.7832094"><ele>468.0</ele><time>2026-04-26T14:37:23.234Z</time></trkpt><trkpt lat="39.7218463" lon="20.783454"><ele>469.0</ele><time>2026-04-26T14:37:24.235Z</time></trkpt><trkpt lat="39.7216573" lon="20.7837111"><ele>470.0</ele><time>2026-04-26T14:37:25.235Z</time></trkpt><trkpt lat="39.7214765" lon="20.783972"><ele>470.0</ele><time>2026-04-26T14:37:26.234Z</time></trkpt><trkpt lat="39.7212982" lon="20.7842418"><ele>470.0</ele><time>2026-04-26T14:37:27.235Z</time></trkpt><trkpt lat="39.7211152" lon="20.7845057"><ele>470.0</ele><time>2026-04-26T14:37:28.234Z</time></trkpt><trkpt lat="39.7209422" lon="20.7847676"><ele>470.0</ele><time>2026-04-26T14:37:29.235Z</time></trkpt><trkpt lat="39.7207706" lon="20.7850294"><ele>469.0</ele><time>2026-04-26T14:37:30.234Z</time></trkpt><trkpt lat="39.7205946" lon="20.7852831"><ele>468.0</ele><time>2026-04-26T14:37:31.235Z</time></trkpt><trkpt lat="39.7204269" lon="20.7855542"><ele>468.0</ele><time>2026-04-26T14:37:32.235Z</time></trkpt><trkpt lat="39.720249" lon="20.7858041"><ele>468.0</ele><time>2026-04-26T14:37:33.234Z</time></trkpt><trkpt lat="39.7200775" lon="20.7860585"><ele>469.0</ele><time>2026-04-26T14:37:34.235Z</time></trkpt><trkpt lat="39.7199058" lon="20.7863029"><ele>470.0</ele><time>2026-04-26T14:37:35.235Z</time></trkpt><trkpt lat="39.7197377" lon="20.7865475"><ele>470.0</ele><time>2026-04-26T14:37:36.234Z</time></trkpt><trkpt lat="39.7195715" lon="20.7867885"><ele>470.0</ele><time>2026-04-26T14:37:37.234Z</time></trkpt><trkpt lat="39.7194047" lon="20.7870266"><ele>470.5</ele><time>2026-04-26T14:37:38.235Z</time></trkpt><trkpt lat="39.7192465" lon="20.7872615"><ele>471.0</ele><time>2026-04-26T14:37:39.234Z</time></trkpt><trkpt lat="39.7190887" lon="20.7874977"><ele>469.5</ele><time>2026-04-26T14:37:40.235Z</time></trkpt><trkpt lat="39.7189329" lon="20.7877493"><ele>468.0</ele><time>2026-04-26T14:37:41.234Z</time></trkpt><trkpt lat="39.7187635" lon="20.7879847"><ele>468.0</ele><time>2026-04-26T14:37:42.235Z</time></trkpt><trkpt lat="39.7186047" lon="20.7882265"><ele>468.0</ele><time>2026-04-26T14:37:43.235Z</time></trkpt><trkpt lat="39.7184455" lon="20.788455"><ele>469.0</ele><time>2026-04-26T14:37:44.234Z</time></trkpt><trkpt lat="39.7182853" lon="20.7886936"><ele>470.0</ele><time>2026-04-26T14:37:45.234Z</time></trkpt><trkpt lat="39.7181348" lon="20.7889212"><ele>470.0</ele><time>2026-04-26T14:37:46.234Z</time></trkpt><trkpt lat="39.7179905" lon="20.7891149"><ele>470.0</ele><time>2026-04-26T14:37:47.235Z</time></trkpt><trkpt lat="39.7178645" lon="20.7892838"><ele>470.0</ele><time>2026-04-26T14:37:48.234Z</time></trkpt><trkpt lat="39.717747" lon="20.7894278"><ele>470.0</ele><time>2026-04-26T14:37:49.234Z</time></trkpt><trkpt lat="39.7176377" lon="20.7895643"><ele>470.0</ele><time>2026-04-26T14:37:50.234Z</time></trkpt><trkpt lat="39.717532" lon="20.7896865"><ele>470.0</ele><time>2026-04-26T14:37:51.234Z</time></trkpt><trkpt lat="39.7174397" lon="20.7898121"><ele>470.0</ele><time>2026-04-26T14:37:52.234Z</time></trkpt><trkpt lat="39.717359" lon="20.7899195"><ele>470.0</ele><time>2026-04-26T14:37:53.234Z</time></trkpt><trkpt lat="39.717274" lon="20.7900207"><ele>470.0</ele><time>2026-04-26T14:37:54.235Z</time></trkpt><trkpt lat="39.7171885" lon="20.7901276"><ele>470.0</ele><time>2026-04-26T14:37:55.234Z</time></trkpt><trkpt lat="39.7170998" lon="20.7902318"><ele>470.0</ele><time>2026-04-26T14:37:56.234Z</time></trkpt><trkpt lat="39.7170123" lon="20.7903353"><ele>469.75</ele><time>2026-04-26T14:37:57.234Z</time></trkpt><trkpt lat="39.7169163" lon="20.7904488"><ele>469.5</ele><time>2026-04-26T14:37:58.234Z</time></trkpt><trkpt lat="39.7168191" lon="20.7905549"><ele>469.25</ele><time>2026-04-26T14:37:59.234Z</time></trkpt><trkpt lat="39.7167225" lon="20.7906604"><ele>469.0</ele><time>2026-04-26T14:38:00.235Z</time></trkpt><trkpt lat="39.7166261" lon="20.7907721"><ele>469.0</ele><time>2026-04-26T14:38:01.235Z</time></trkpt><trkpt lat="39.7165345" lon="20.7908854"><ele>469.0</ele><time>2026-04-26T14:38:02.234Z</time></trkpt><trkpt lat="39.7164382" lon="20.7910042"><ele>469.0</ele><time>2026-04-26T14:38:03.234Z</time></trkpt><trkpt lat="39.7163357" lon="20.7911325"><ele>469.0</ele><time>2026-04-26T14:38:04.234Z</time></trkpt><trkpt lat="39.7162273" lon="20.7912553"><ele>469.0</ele><time>2026-04-26T14:38:05.234Z</time></trkpt><trkpt lat="39.7161156" lon="20.7913851"><ele>469.0</ele><time>2026-04-26T14:38:06.234Z</time></trkpt><trkpt lat="39.7160028" lon="20.7915183"><ele>469.0</ele><time>2026-04-26T14:38:07.235Z</time></trkpt><trkpt lat="39.7158899" lon="20.7916472"><ele>469.6666666666667</ele><time>2026-04-26T14:38:08.235Z</time></trkpt><trkpt lat="39.7157746" lon="20.791784"><ele>470.33333333333337</ele><time>2026-04-26T14:38:09.235Z</time></trkpt><trkpt lat="39.7156554" lon="20.7919233"><ele>471.0</ele><time>2026-04-26T14:38:10.234Z</time></trkpt><trkpt lat="39.7155374" lon="20.7920797"><ele>471.0</ele><time>2026-04-26T14:38:11.235Z</time></trkpt><trkpt lat="39.7154145" lon="20.7922241"><ele>471.0</ele><time>2026-04-26T14:38:12.235Z</time></trkpt><trkpt lat="39.7152943" lon="20.7923644"><ele>471.0</ele><time>2026-04-26T14:38:13.234Z</time></trkpt><trkpt lat="39.7151666" lon="20.7925037"><ele>472.33333333333337</ele><time>2026-04-26T14:38:14.234Z</time></trkpt><trkpt lat="39.7150375" lon="20.7926497"><ele>473.6666666666667</ele><time>2026-04-26T14:38:15.234Z</time></trkpt><trkpt lat="39.7149115" lon="20.7928074"><ele>475.0</ele><time>2026-04-26T14:38:16.234Z</time></trkpt><trkpt lat="39.7147841" lon="20.7929559"><ele>475.0</ele><time>2026-04-26T14:38:17.234Z</time></trkpt><trkpt lat="39.7146591" lon="20.7931106"><ele>475.0</ele><time>2026-04-26T14:38:18.234Z</time></trkpt><trkpt lat="39.7145348" lon="20.7932614"><ele>475.0</ele><time>2026-04-26T14:38:19.235Z</time></trkpt><trkpt lat="39.7144083" lon="20.7934102"><ele>474.0</ele><time>2026-04-26T14:38:20.235Z</time></trkpt><trkpt lat="39.7142849" lon="20.7935649"><ele>473.0</ele><time>2026-04-26T14:38:21.235Z</time></trkpt><trkpt lat="39.7141619" lon="20.7937063"><ele>472.0</ele><time>2026-04-26T14:38:22.234Z</time></trkpt><trkpt lat="39.7140419" lon="20.793859"><ele>472.0</ele><time>2026-04-26T14:38:23.234Z</time></trkpt><trkpt lat="39.7139197" lon="20.7939955"><ele>472.0</ele><time>2026-04-26T14:38:24.234Z</time></trkpt><trkpt lat="39.7138013" lon="20.794143"><ele>472.0</ele><time>2026-04-26T14:38:25.235Z</time></trkpt><trkpt lat="39.7136841" lon="20.79429"><ele>473.0</ele><time>2026-04-26T14:38:26.234Z</time></trkpt><trkpt lat="39.7135636" lon="20.7944386"><ele>474.0</ele><time>2026-04-26T14:38:27.235Z</time></trkpt><trkpt lat="39.7134356" lon="20.7945872"><ele>475.0</ele><time>2026-04-26T14:38:28.235Z</time></trkpt><trkpt lat="39.7133118" lon="20.7947305"><ele>475.0</ele><time>2026-04-26T14:38:29.235Z</time></trkpt><trkpt lat="39.7131886" lon="20.7948766"><ele>475.0</ele><time>2026-04-26T14:38:30.234Z</time></trkpt><trkpt lat="39.7130615" lon="20.7950306"><ele>475.0</ele><time>2026-04-26T14:38:31.234Z</time></trkpt><trkpt lat="39.7129345" lon="20.7951862"><ele>474.33333333333337</ele><time>2026-04-26T14:38:32.234Z</time></trkpt><trkpt lat="39.7128086" lon="20.7953518"><ele>473.66666666666663</ele><time>2026-04-26T14:38:33.234Z</time></trkpt><trkpt lat="39.7126736" lon="20.795518"><ele>473.0</ele><time>2026-04-26T14:38:34.234Z</time></trkpt><trkpt lat="39.7125456" lon="20.7957025"><ele>473.0</ele><time>2026-04-26T14:38:35.234Z</time></trkpt><trkpt lat="39.7124039" lon="20.7958673"><ele>473.0</ele><time>2026-04-26T14:38:36.234Z</time></trkpt><trkpt lat="39.7122597" lon="20.7960359"><ele>473.0</ele><time>2026-04-26T14:38:37.235Z</time></trkpt><trkpt lat="39.7121139" lon="20.7962092"><ele>473.0</ele><time>2026-04-26T14:38:38.234Z</time></trkpt><trkpt lat="39.7119661" lon="20.7963872"><ele>473.0</ele><time>2026-04-26T14:38:39.235Z</time></trkpt><trkpt lat="39.7118223" lon="20.7965537"><ele>473.0</ele><time>2026-04-26T14:38:40.234Z</time></trkpt><trkpt lat="39.7116818" lon="20.7967195"><ele>472.66666666666663</ele><time>2026-04-26T14:38:41.234Z</time></trkpt><trkpt lat="39.7115365" lon="20.7968854"><ele>472.33333333333337</ele><time>2026-04-26T14:38:42.235Z</time></trkpt><trkpt lat="39.7113956" lon="20.7970506"><ele>472.0</ele><time>2026-04-26T14:38:43.234Z</time></trkpt><trkpt lat="39.71125" lon="20.7972195"><ele>472.0</ele><time>2026-04-26T14:38:44.235Z</time></trkpt><trkpt lat="39.7111114" lon="20.7973863"><ele>472.0</ele><time>2026-04-26T14:38:45.235Z</time></trkpt><trkpt lat="39.7109722" lon="20.7975573"><ele>472.0</ele><time>2026-04-26T14:38:46.235Z</time></trkpt><trkpt lat="39.7108315" lon="20.7977302"><ele>472.6666666666667</ele><time>2026-04-26T14:38:47.235Z</time></trkpt><trkpt lat="39.7106921" lon="20.7979053"><ele>473.33333333333337</ele><time>2026-04-26T14:38:48.235Z</time></trkpt><trkpt lat="39.7105471" lon="20.7980756"><ele>474.0</ele><time>2026-04-26T14:38:49.234Z</time></trkpt><trkpt lat="39.7104063" lon="20.798254"><ele>474.0</ele><time>2026-04-26T14:38:50.235Z</time></trkpt><trkpt lat="39.7102672" lon="20.7984405"><ele>474.0</ele><time>2026-04-26T14:38:51.235Z</time></trkpt><trkpt lat="39.7101327" lon="20.7986282"><ele>474.0</ele><time>2026-04-26T14:38:52.234Z</time></trkpt><trkpt lat="39.7100063" lon="20.7988259"><ele>474.0</ele><time>2026-04-26T14:38:53.234Z</time></trkpt><trkpt lat="39.7098895" lon="20.7990313"><ele>474.0</ele><time>2026-04-26T14:38:54.235Z</time></trkpt><trkpt lat="39.7097602" lon="20.7992213"><ele>474.0</ele><time>2026-04-26T14:38:55.235Z</time></trkpt><trkpt lat="39.7096442" lon="20.7994235"><ele>474.0</ele><time>2026-04-26T14:38:56.235Z</time></trkpt><trkpt lat="39.7095162" lon="20.7996206"><ele>474.0</ele><time>2026-04-26T14:38:57.235Z</time></trkpt><trkpt lat="39.7094012" lon="20.7998244"><ele>474.0</ele><time>2026-04-26T14:38:58.234Z</time></trkpt><trkpt lat="39.7092757" lon="20.8000219"><ele>473.66666666666663</ele><time>2026-04-26T14:38:59.235Z</time></trkpt><trkpt lat="39.7091539" lon="20.8002192"><ele>473.3333333333333</ele><time>2026-04-26T14:39:00.234Z</time></trkpt><trkpt lat="39.7090334" lon="20.8004148"><ele>473.0</ele><time>2026-04-26T14:39:01.235Z</time></trkpt><trkpt lat="39.70891" lon="20.8006052"><ele>473.0</ele><time>2026-04-26T14:39:02.234Z</time></trkpt><trkpt lat="39.7087881" lon="20.8007879"><ele>473.0</ele><time>2026-04-26T14:39:03.235Z</time></trkpt><trkpt lat="39.7086684" lon="20.8009764"><ele>473.0</ele><time>2026-04-26T14:39:04.235Z</time></trkpt><trkpt lat="39.7085569" lon="20.8011666"><ele>473.66666666666663</ele><time>2026-04-26T14:39:05.235Z</time></trkpt><trkpt lat="39.7084438" lon="20.8013399"><ele>474.33333333333337</ele><time>2026-04-26T14:39:06.234Z</time></trkpt><trkpt lat="39.7083375" lon="20.8015059"><ele>475.0</ele><time>2026-04-26T14:39:07.234Z</time></trkpt><trkpt lat="39.7082324" lon="20.8016628"><ele>475.0</ele><time>2026-04-26T14:39:08.235Z</time></trkpt><trkpt lat="39.7081361" lon="20.8018136"><ele>475.0</ele><time>2026-04-26T14:39:09.235Z</time></trkpt><trkpt lat="39.7080407" lon="20.8019531"><ele>475.0</ele><time>2026-04-26T14:39:10.235Z</time></trkpt><trkpt lat="39.7079482" lon="20.8020812"><ele>475.0</ele><time>2026-04-26T14:39:11.234Z</time></trkpt><trkpt lat="39.7078567" lon="20.8021986"><ele>475.2</ele><time>2026-04-26T14:39:12.235Z</time></trkpt><trkpt lat="39.7077665" lon="20.8023005"><ele>475.4</ele><time>2026-04-26T14:39:13.234Z</time></trkpt><trkpt lat="39.7076833" lon="20.8023893"><ele>475.6</ele><time>2026-04-26T14:39:14.234Z</time></trkpt><trkpt lat="39.7075943" lon="20.8024502"><ele>475.8</ele><time>2026-04-26T14:39:15.235Z</time></trkpt><trkpt lat="39.7075054" lon="20.8024836"><ele>476.0</ele><time>2026-04-26T14:39:16.235Z</time></trkpt><trkpt lat="39.7074285" lon="20.8024982"><ele>475.99999999999994</ele><time>2026-04-26T14:39:17.235Z</time></trkpt><trkpt lat="39.7073549" lon="20.802532"><ele>476.0</ele><time>2026-04-26T14:39:18.234Z</time></trkpt><trkpt lat="39.7072963" lon="20.8026053"><ele>476.0</ele><time>2026-04-26T14:39:19.235Z</time></trkpt><trkpt lat="39.7072577" lon="20.8027013"><ele>476.0</ele><time>2026-04-26T14:39:20.235Z</time></trkpt><trkpt lat="39.7072374" lon="20.8028171"><ele>475.99999999999994</ele><time>2026-04-26T14:39:21.235Z</time></trkpt><trkpt lat="39.7072089" lon="20.8029482"><ele>476.0</ele><time>2026-04-26T14:39:22.234Z</time></trkpt><trkpt lat="39.7071685" lon="20.8030816"><ele>475.75</ele><time>2026-04-26T14:39:23.235Z</time></trkpt><trkpt lat="39.7071164" lon="20.8032102"><ele>475.5</ele><time>2026-04-26T14:39:24.235Z</time></trkpt><trkpt lat="39.7070618" lon="20.8033312"><ele>475.25</ele><time>2026-04-26T14:39:25.234Z</time></trkpt><trkpt lat="39.7070046" lon="20.8034623"><ele>475.0</ele><time>2026-04-26T14:39:26.235Z</time></trkpt><trkpt lat="39.7069378" lon="20.8035945"><ele>475.75</ele><time>2026-04-26T14:39:27.235Z</time></trkpt><trkpt lat="39.7068671" lon="20.8037262"><ele>476.5</ele><time>2026-04-26T14:39:28.235Z</time></trkpt><trkpt lat="39.7067861" lon="20.8038574"><ele>477.25</ele><time>2026-04-26T14:39:29.234Z</time></trkpt><trkpt lat="39.7067" lon="20.8039801"><ele>478.0</ele><time>2026-04-26T14:39:30.235Z</time></trkpt><trkpt lat="39.7066004" lon="20.8040933"><ele>478.0</ele><time>2026-04-26T14:39:31.235Z</time></trkpt><trkpt lat="39.7065062" lon="20.8042334"><ele>478.0</ele><time>2026-04-26T14:39:32.235Z</time></trkpt><trkpt lat="39.7064117" lon="20.8043755"><ele>478.0</ele><time>2026-04-26T14:39:33.235Z</time></trkpt><trkpt lat="39.7063204" lon="20.8045461"><ele>478.0</ele><time>2026-04-26T14:39:34.235Z</time></trkpt><trkpt lat="39.7062037" lon="20.8047283"><ele>478.0</ele><time>2026-04-26T14:39:35.235Z</time></trkpt><trkpt lat="39.7060703" lon="20.8049288"><ele>478.0</ele><time>2026-04-26T14:39:36.234Z</time></trkpt><trkpt lat="39.7059422" lon="20.8051364"><ele>478.0</ele><time>2026-04-26T14:39:37.234Z</time></trkpt><trkpt lat="39.7058142" lon="20.8053647"><ele>478.0</ele><time>2026-04-26T14:39:38.234Z</time></trkpt><trkpt lat="39.7056861" lon="20.8056021"><ele>478.0</ele><time>2026-04-26T14:39:39.234Z</time></trkpt><trkpt lat="39.7055572" lon="20.8058326"><ele>478.0</ele><time>2026-04-26T14:39:40.234Z</time></trkpt><trkpt lat="39.7054245" lon="20.8060475"><ele>478.33333333333337</ele><time>2026-04-26T14:39:41.234Z</time></trkpt><trkpt lat="39.7052891" lon="20.806255"><ele>478.66666666666663</ele><time>2026-04-26T14:39:42.234Z</time></trkpt><trkpt lat="39.7051572" lon="20.8064579"><ele>479.0</ele><time>2026-04-26T14:39:43.234Z</time></trkpt><trkpt lat="39.7050229" lon="20.8066599"><ele>478.3333333333333</ele><time>2026-04-26T14:39:44.234Z</time></trkpt><trkpt lat="39.7049012" lon="20.8068473"><ele>477.66666666666663</ele><time>2026-04-26T14:39:45.234Z</time></trkpt><trkpt lat="39.704777" lon="20.8070352"><ele>477.0</ele><time>2026-04-26T14:39:46.234Z</time></trkpt><trkpt lat="39.7046491" lon="20.8072389"><ele>477.0</ele><time>2026-04-26T14:39:47.234Z</time></trkpt><trkpt lat="39.7045322" lon="20.8074474"><ele>477.0</ele><time>2026-04-26T14:39:48.235Z</time></trkpt><trkpt lat="39.7044152" lon="20.8076227"><ele>477.0</ele><time>2026-04-26T14:39:49.235Z</time></trkpt><trkpt lat="39.7043114" lon="20.8078003"><ele>477.0</ele><time>2026-04-26T14:39:50.235Z</time></trkpt><trkpt lat="39.7042173" lon="20.8079596"><ele>477.0</ele><time>2026-04-26T14:39:51.234Z</time></trkpt><trkpt lat="39.704121" lon="20.8081005"><ele>477.0</ele><time>2026-04-26T14:39:52.234Z</time></trkpt><trkpt lat="39.7040401" lon="20.8082377"><ele>477.0</ele><time>2026-04-26T14:39:53.234Z</time></trkpt><trkpt lat="39.7039598" lon="20.8083541"><ele>477.0</ele><time>2026-04-26T14:39:54.234Z</time></trkpt><trkpt lat="39.7038826" lon="20.8084572"><ele>477.00000000000006</ele><time>2026-04-26T14:39:55.234Z</time></trkpt><trkpt lat="39.7037988" lon="20.8085554"><ele>477.00000000000006</ele><time>2026-04-26T14:39:56.235Z</time></trkpt><trkpt lat="39.7037124" lon="20.8086439"><ele>477.0</ele><time>2026-04-26T14:39:57.235Z</time></trkpt><trkpt lat="39.7036226" lon="20.8087125"><ele>477.0</ele><time>2026-04-26T14:39:58.235Z</time></trkpt><trkpt lat="39.7035438" lon="20.8087462"><ele>477.1666666666667</ele><time>2026-04-26T14:39:59.234Z</time></trkpt><trkpt lat="39.7034547" lon="20.8087585"><ele>477.33333333333337</ele><time>2026-04-26T14:40:00.235Z</time></trkpt><trkpt lat="39.7033747" lon="20.8087658"><ele>477.5</ele><time>2026-04-26T14:40:01.235Z</time></trkpt><trkpt lat="39.7033087" lon="20.8088005"><ele>477.6666666666667</ele><time>2026-04-26T14:40:02.234Z</time></trkpt><trkpt lat="39.7032624" lon="20.8088646"><ele>477.83333333333337</ele><time>2026-04-26T14:40:03.234Z</time></trkpt><trkpt lat="39.703234" lon="20.8089546"><ele>478.0</ele><time>2026-04-26T14:40:04.235Z</time></trkpt><trkpt lat="39.7032286" lon="20.809053"><ele>478.0</ele><time>2026-04-26T14:40:05.234Z</time></trkpt><trkpt lat="39.7032231" lon="20.8091645"><ele>477.99999999999994</ele><time>2026-04-26T14:40:06.234Z</time></trkpt><trkpt lat="39.7032056" lon="20.8092801"><ele>477.99999999999994</ele><time>2026-04-26T14:40:07.235Z</time></trkpt><trkpt lat="39.7031561" lon="20.8093935"><ele>478.0</ele><time>2026-04-26T14:40:08.234Z</time></trkpt><trkpt lat="39.7030838" lon="20.809522"><ele>478.0</ele><time>2026-04-26T14:40:09.235Z</time></trkpt><trkpt lat="39.7030035" lon="20.8096517"><ele>478.0</ele><time>2026-04-26T14:40:10.235Z</time></trkpt><trkpt lat="39.7029164" lon="20.8097702"><ele>478.0</ele><time>2026-04-26T14:40:11.235Z</time></trkpt><trkpt lat="39.7028303" lon="20.8098918"><ele>478.0</ele><time>2026-04-26T14:40:12.234Z</time></trkpt><trkpt lat="39.7027473" lon="20.8100197"><ele>478.0</ele><time>2026-04-26T14:40:13.235Z</time></trkpt><trkpt lat="39.7026591" lon="20.8101451"><ele>477.25</ele><time>2026-04-26T14:40:14.234Z</time></trkpt><trkpt lat="39.7025663" lon="20.8102778"><ele>476.5</ele><time>2026-04-26T14:40:15.234Z</time></trkpt><trkpt lat="39.7024658" lon="20.8104125"><ele>475.75</ele><time>2026-04-26T14:40:16.235Z</time></trkpt><trkpt lat="39.7023662" lon="20.8105534"><ele>475.0</ele><time>2026-04-26T14:40:17.235Z</time></trkpt><trkpt lat="39.7022636" lon="20.8106933"><ele>475.0</ele><time>2026-04-26T14:40:18.234Z</time></trkpt><trkpt lat="39.7021645" lon="20.810837"><ele>475.0</ele><time>2026-04-26T14:40:19.235Z</time></trkpt><trkpt lat="39.7020629" lon="20.8109729"><ele>475.0</ele><time>2026-04-26T14:40:20.235Z</time></trkpt><trkpt lat="39.7019642" lon="20.8111047"><ele>475.0</ele><time>2026-04-26T14:40:21.234Z</time></trkpt><trkpt lat="39.701871" lon="20.8112417"><ele>475.5</ele><time>2026-04-26T14:40:22.235Z</time></trkpt><trkpt lat="39.7017807" lon="20.8113742"><ele>476.0</ele><time>2026-04-26T14:40:23.234Z</time></trkpt><trkpt lat="39.7016906" lon="20.8115062"><ele>476.5</ele><time>2026-04-26T14:40:24.234Z</time></trkpt><trkpt lat="39.7015998" lon="20.8116323"><ele>477.0</ele><time>2026-04-26T14:40:25.235Z</time></trkpt><trkpt lat="39.7014994" lon="20.8117661"><ele>476.5</ele><time>2026-04-26T14:40:26.234Z</time></trkpt><trkpt lat="39.7014081" lon="20.8119033"><ele>476.0</ele><time>2026-04-26T14:40:27.235Z</time></trkpt><trkpt lat="39.7013055" lon="20.81203"><ele>475.5</ele><time>2026-04-26T14:40:28.234Z</time></trkpt><trkpt lat="39.7012037" lon="20.8121571"><ele>475.0</ele><time>2026-04-26T14:40:29.235Z</time></trkpt><trkpt lat="39.7011082" lon="20.812293"><ele>475.0</ele><time>2026-04-26T14:40:30.235Z</time></trkpt><trkpt lat="39.700999" lon="20.8124133"><ele>475.0</ele><time>2026-04-26T14:40:31.235Z</time></trkpt><trkpt lat="39.7008853" lon="20.8125272"><ele>475.0</ele><time>2026-04-26T14:40:32.234Z</time></trkpt><trkpt lat="39.7007744" lon="20.8126464"><ele>475.0</ele><time>2026-04-26T14:40:33.235Z</time></trkpt><trkpt lat="39.7006645" lon="20.8127611"><ele>475.0</ele><time>2026-04-26T14:40:34.234Z</time></trkpt><trkpt lat="39.7005498" lon="20.8128722"><ele>475.0</ele><time>2026-04-26T14:40:35.235Z</time></trkpt><trkpt lat="39.7004384" lon="20.8129913"><ele>475.0</ele><time>2026-04-26T14:40:36.234Z</time></trkpt><trkpt lat="39.7003209" lon="20.8131142"><ele>475.0</ele><time>2026-04-26T14:40:37.235Z</time></trkpt><trkpt lat="39.7002094" lon="20.8132506"><ele>475.0</ele><time>2026-04-26T14:40:38.234Z</time></trkpt><trkpt lat="39.7000854" lon="20.8133722"><ele>475.0</ele><time>2026-04-26T14:40:39.235Z</time></trkpt><trkpt lat="39.6999703" lon="20.8135126"><ele>475.0</ele><time>2026-04-26T14:40:40.234Z</time></trkpt><trkpt lat="39.6998478" lon="20.8136418"><ele>475.0</ele><time>2026-04-26T14:40:41.234Z</time></trkpt><trkpt lat="39.6997219" lon="20.8137643"><ele>475.0</ele><time>2026-04-26T14:40:42.235Z</time></trkpt><trkpt lat="39.6995941" lon="20.8138929"><ele>475.0</ele><time>2026-04-26T14:40:43.235Z</time></trkpt><trkpt lat="39.6994693" lon="20.8140202"><ele>476.0</ele><time>2026-04-26T14:40:44.235Z</time></trkpt><trkpt lat="39.6993472" lon="20.8141557"><ele>477.0</ele><time>2026-04-26T14:40:45.235Z</time></trkpt><trkpt lat="39.6992262" lon="20.8142812"><ele>478.0</ele><time>2026-04-26T14:40:46.234Z</time></trkpt><trkpt lat="39.6991094" lon="20.8144025"><ele>478.0</ele><time>2026-04-26T14:40:47.234Z</time></trkpt><trkpt lat="39.6989903" lon="20.8145197"><ele>478.0</ele><time>2026-04-26T14:40:48.234Z</time></trkpt><trkpt lat="39.6988748" lon="20.8146331"><ele>478.0</ele><time>2026-04-26T14:40:49.235Z</time></trkpt><trkpt lat="39.6987801" lon="20.8147431"><ele>478.0</ele><time>2026-04-26T14:40:50.235Z</time></trkpt><trkpt lat="39.6986647" lon="20.814857"><ele>478.25</ele><time>2026-04-26T14:40:51.235Z</time></trkpt><trkpt lat="39.6985519" lon="20.814973"><ele>478.5</ele><time>2026-04-26T14:40:52.234Z</time></trkpt><trkpt lat="39.6984407" lon="20.8150851"><ele>478.75</ele><time>2026-04-26T14:40:53.235Z</time></trkpt><trkpt lat="39.6983467" lon="20.8152193"><ele>479.0</ele><time>2026-04-26T14:40:54.234Z</time></trkpt><trkpt lat="39.6982382" lon="20.8153334"><ele>479.0</ele><time>2026-04-26T14:40:55.234Z</time></trkpt><trkpt lat="39.6981293" lon="20.8154374"><ele>479.0</ele><time>2026-04-26T14:40:56.235Z</time></trkpt><trkpt lat="39.6980193" lon="20.8155433"><ele>479.0</ele><time>2026-04-26T14:40:57.235Z</time></trkpt><trkpt lat="39.6979132" lon="20.8156435"><ele>479.0</ele><time>2026-04-26T14:40:58.234Z</time></trkpt><trkpt lat="39.6978063" lon="20.8157477"><ele>478.75</ele><time>2026-04-26T14:40:59.235Z</time></trkpt><trkpt lat="39.6977002" lon="20.8158463"><ele>478.5</ele><time>2026-04-26T14:41:00.235Z</time></trkpt><trkpt lat="39.6975971" lon="20.8159386"><ele>478.25</ele><time>2026-04-26T14:41:01.234Z</time></trkpt><trkpt lat="39.6974979" lon="20.8160266"><ele>478.0</ele><time>2026-04-26T14:41:02.235Z</time></trkpt><trkpt lat="39.6973994" lon="20.8161124"><ele>478.0</ele><time>2026-04-26T14:41:03.235Z</time></trkpt><trkpt lat="39.6973037" lon="20.8162012"><ele>478.0</ele><time>2026-04-26T14:41:04.235Z</time></trkpt><trkpt lat="39.6972069" lon="20.8162849"><ele>478.0</ele><time>2026-04-26T14:41:05.234Z</time></trkpt><trkpt lat="39.6971085" lon="20.8163767"><ele>478.0</ele><time>2026-04-26T14:41:06.235Z</time></trkpt><trkpt lat="39.6970023" lon="20.8164644"><ele>478.5</ele><time>2026-04-26T14:41:07.235Z</time></trkpt><trkpt lat="39.6968984" lon="20.8165634"><ele>479.0</ele><time>2026-04-26T14:41:08.234Z</time></trkpt><trkpt lat="39.6967894" lon="20.8166612"><ele>479.5</ele><time>2026-04-26T14:41:09.234Z</time></trkpt><trkpt lat="39.6966778" lon="20.8167567"><ele>480.0</ele><time>2026-04-26T14:41:10.234Z</time></trkpt><trkpt lat="39.6965659" lon="20.8168579"><ele>480.0</ele><time>2026-04-26T14:41:11.235Z</time></trkpt><trkpt lat="39.6964535" lon="20.8169665"><ele>480.0</ele><time>2026-04-26T14:41:12.234Z</time></trkpt><trkpt lat="39.6963325" lon="20.8170689"><ele>480.0</ele><time>2026-04-26T14:41:13.235Z</time></trkpt><trkpt lat="39.6962093" lon="20.8171743"><ele>480.0</ele><time>2026-04-26T14:41:14.235Z</time></trkpt><trkpt lat="39.6960789" lon="20.8172826"><ele>481.0</ele><time>2026-04-26T14:41:15.235Z</time></trkpt><trkpt lat="39.6959519" lon="20.817389"><ele>482.0</ele><time>2026-04-26T14:41:16.235Z</time></trkpt><trkpt lat="39.6958254" lon="20.817495"><ele>483.0</ele><time>2026-04-26T14:41:17.234Z</time></trkpt><trkpt lat="39.6956937" lon="20.8176047"><ele>481.66666666666663</ele><time>2026-04-26T14:41:18.234Z</time></trkpt><trkpt lat="39.6955599" lon="20.8177155"><ele>480.3333333333333</ele><time>2026-04-26T14:41:19.234Z</time></trkpt><trkpt lat="39.6954286" lon="20.8178284"><ele>479.0</ele><time>2026-04-26T14:41:20.234Z</time></trkpt><trkpt lat="39.6952932" lon="20.8179474"><ele>480.0</ele><time>2026-04-26T14:41:21.235Z</time></trkpt><trkpt lat="39.6951582" lon="20.8180604"><ele>481.0</ele><time>2026-04-26T14:41:22.234Z</time></trkpt><trkpt lat="39.6950241" lon="20.8181767"><ele>482.0</ele><time>2026-04-26T14:41:23.235Z</time></trkpt><trkpt lat="39.6948886" lon="20.8182955"><ele>482.0</ele><time>2026-04-26T14:41:24.234Z</time></trkpt><trkpt lat="39.694755" lon="20.8184107"><ele>482.0</ele><time>2026-04-26T14:41:25.235Z</time></trkpt><trkpt lat="39.6946239" lon="20.8185342"><ele>482.0</ele><time>2026-04-26T14:41:26.235Z</time></trkpt><trkpt lat="39.6944942" lon="20.8186486"><ele>483.0</ele><time>2026-04-26T14:41:27.235Z</time></trkpt><trkpt lat="39.6943649" lon="20.8187608"><ele>484.0</ele><time>2026-04-26T14:41:28.235Z</time></trkpt><trkpt lat="39.694235" lon="20.8188725"><ele>485.0</ele><time>2026-04-26T14:41:29.234Z</time></trkpt><trkpt lat="39.6941056" lon="20.818977"><ele>485.0</ele><time>2026-04-26T14:41:30.235Z</time></trkpt><trkpt lat="39.693976" lon="20.8190872"><ele>485.0</ele><time>2026-04-26T14:41:31.235Z</time></trkpt><trkpt lat="39.6938526" lon="20.8192043"><ele>485.0</ele><time>2026-04-26T14:41:32.235Z</time></trkpt><trkpt lat="39.693715" lon="20.8193174"><ele>484.66666666666663</ele><time>2026-04-26T14:41:33.235Z</time></trkpt><trkpt lat="39.6935789" lon="20.8194331"><ele>484.33333333333337</ele><time>2026-04-26T14:41:34.235Z</time></trkpt><trkpt lat="39.6934489" lon="20.8195691"><ele>484.0</ele><time>2026-04-26T14:41:35.235Z</time></trkpt><trkpt lat="39.693321" lon="20.8197126"><ele>484.0</ele><time>2026-04-26T14:41:36.235Z</time></trkpt><trkpt lat="39.6932005" lon="20.8198763"><ele>484.0</ele><time>2026-04-26T14:41:37.235Z</time></trkpt><trkpt lat="39.6930853" lon="20.8200477"><ele>484.0</ele><time>2026-04-26T14:41:38.234Z</time></trkpt><trkpt lat="39.6929932" lon="20.8202333"><ele>484.5</ele><time>2026-04-26T14:41:39.234Z</time></trkpt><trkpt lat="39.6929014" lon="20.8204043"><ele>485.0</ele><time>2026-04-26T14:41:40.234Z</time></trkpt><trkpt lat="39.6928188" lon="20.8205661"><ele>485.5</ele><time>2026-04-26T14:41:41.234Z</time></trkpt><trkpt lat="39.6927463" lon="20.8207182"><ele>486.0</ele><time>2026-04-26T14:41:42.235Z</time></trkpt><trkpt lat="39.6926755" lon="20.8208673"><ele>485.0</ele><time>2026-04-26T14:41:43.234Z</time></trkpt><trkpt lat="39.6926143" lon="20.8210143"><ele>484.0</ele><time>2026-04-26T14:41:44.234Z</time></trkpt><trkpt lat="39.6925549" lon="20.8211318"><ele>483.0</ele><time>2026-04-26T14:41:45.234Z</time></trkpt><trkpt lat="39.6925052" lon="20.8212255"><ele>482.0</ele><time>2026-04-26T14:41:46.235Z</time></trkpt><trkpt lat="39.6924641" lon="20.8212933"><ele>481.0</ele><time>2026-04-26T14:41:47.234Z</time></trkpt><trkpt lat="39.6924187" lon="20.8213894"><ele>481.00000000000006</ele><time>2026-04-26T14:41:49.235Z</time></trkpt><trkpt lat="39.6923656" lon="20.8214988"><ele>481.0</ele><time>2026-04-26T14:42:35.234Z</time></trkpt><trkpt lat="39.6923236" lon="20.8215733"><ele>481.0</ele><time>2026-04-26T14:42:36.235Z</time></trkpt><trkpt lat="39.6922896" lon="20.8216589"><ele>481.0</ele><time>2026-04-26T14:42:37.235Z</time></trkpt><trkpt lat="39.6922423" lon="20.8217641"><ele>481.00000000000006</ele><time>2026-04-26T14:42:38.234Z</time></trkpt><trkpt lat="39.6921902" lon="20.8218744"><ele>481.0</ele><time>2026-04-26T14:42:39.235Z</time></trkpt><trkpt lat="39.692136" lon="20.8219984"><ele>481.0</ele><time>2026-04-26T14:42:40.234Z</time></trkpt><trkpt lat="39.692081" lon="20.8221406"><ele>481.0</ele><time>2026-04-26T14:42:41.234Z</time></trkpt><trkpt lat="39.6920206" lon="20.822287"><ele>481.0</ele><time>2026-04-26T14:42:42.235Z</time></trkpt><trkpt lat="39.6919568" lon="20.8224388"><ele>481.0</ele><time>2026-04-26T14:42:43.235Z</time></trkpt><trkpt lat="39.6918902" lon="20.8225967"><ele>480.25</ele><time>2026-04-26T14:42:44.235Z</time></trkpt><trkpt lat="39.6918292" lon="20.82276"><ele>479.5</ele><time>2026-04-26T14:42:45.234Z</time></trkpt><trkpt lat="39.6917622" lon="20.8229218"><ele>478.75</ele><time>2026-04-26T14:42:46.235Z</time></trkpt><trkpt lat="39.6916942" lon="20.8230823"><ele>478.0</ele><time>2026-04-26T14:42:47.234Z</time></trkpt><trkpt lat="39.6916277" lon="20.8232489"><ele>478.0</ele><time>2026-04-26T14:42:48.235Z</time></trkpt><trkpt lat="39.6915606" lon="20.8234104"><ele>478.0</ele><time>2026-04-26T14:42:49.234Z</time></trkpt><trkpt lat="39.6914915" lon="20.8235768"><ele>478.0</ele><time>2026-04-26T14:42:50.235Z</time></trkpt><trkpt lat="39.6914289" lon="20.8237546"><ele>478.0</ele><time>2026-04-26T14:42:51.235Z</time></trkpt><trkpt lat="39.6913559" lon="20.8239255"><ele>477.6666666666667</ele><time>2026-04-26T14:42:52.235Z</time></trkpt><trkpt lat="39.6912809" lon="20.8240954"><ele>477.33333333333337</ele><time>2026-04-26T14:42:53.234Z</time></trkpt><trkpt lat="39.6911995" lon="20.8242739"><ele>477.0</ele><time>2026-04-26T14:42:54.235Z</time></trkpt><trkpt lat="39.691123" lon="20.8244459"><ele>477.33333333333337</ele><time>2026-04-26T14:42:55.235Z</time></trkpt><trkpt lat="39.6910516" lon="20.8246288"><ele>477.6666666666667</ele><time>2026-04-26T14:42:56.234Z</time></trkpt><trkpt lat="39.6909707" lon="20.8247996"><ele>478.0</ele><time>2026-04-26T14:42:57.234Z</time></trkpt><trkpt lat="39.6908795" lon="20.8249604"><ele>478.0</ele><time>2026-04-26T14:42:58.234Z</time></trkpt><trkpt lat="39.6907826" lon="20.8251232"><ele>478.0</ele><time>2026-04-26T14:42:59.235Z</time></trkpt><trkpt lat="39.6906791" lon="20.8252855"><ele>478.0</ele><time>2026-04-26T14:43:00.235Z</time></trkpt><trkpt lat="39.6905769" lon="20.8254498"><ele>477.33333333333337</ele><time>2026-04-26T14:43:01.234Z</time></trkpt><trkpt lat="39.6904741" lon="20.8256162"><ele>476.66666666666663</ele><time>2026-04-26T14:43:02.234Z</time></trkpt><trkpt lat="39.6903661" lon="20.8257807"><ele>476.0</ele><time>2026-04-26T14:43:03.235Z</time></trkpt><trkpt lat="39.690261" lon="20.8259473"><ele>475.3333333333333</ele><time>2026-04-26T14:43:04.234Z</time></trkpt><trkpt lat="39.6901551" lon="20.826111"><ele>474.66666666666663</ele><time>2026-04-26T14:43:05.234Z</time></trkpt><trkpt lat="39.690052" lon="20.8262828"><ele>474.0</ele><time>2026-04-26T14:43:06.235Z</time></trkpt><trkpt lat="39.6899497" lon="20.8264551"><ele>474.0</ele><time>2026-04-26T14:43:07.235Z</time></trkpt><trkpt lat="39.6898426" lon="20.8266291"><ele>474.0</ele><time>2026-04-26T14:43:08.235Z</time></trkpt><trkpt lat="39.6897369" lon="20.8268063"><ele>474.0</ele><time>2026-04-26T14:43:09.234Z</time></trkpt><trkpt lat="39.6896331" lon="20.8269878"><ele>473.66666666666663</ele><time>2026-04-26T14:43:10.234Z</time></trkpt><trkpt lat="39.6895229" lon="20.8271603"><ele>473.3333333333333</ele><time>2026-04-26T14:43:11.234Z</time></trkpt><trkpt lat="39.6894193" lon="20.8273162"><ele>473.0</ele><time>2026-04-26T14:43:12.235Z</time></trkpt><trkpt lat="39.6893281" lon="20.8274487"><ele>473.5</ele><time>2026-04-26T14:43:13.234Z</time></trkpt><trkpt lat="39.689247" lon="20.8275698"><ele>474.0</ele><time>2026-04-26T14:43:14.235Z</time></trkpt><trkpt lat="39.6891714" lon="20.8276823"><ele>474.5</ele><time>2026-04-26T14:43:15.235Z</time></trkpt><trkpt lat="39.6890947" lon="20.8278005"><ele>475.0</ele><time>2026-04-26T14:43:16.234Z</time></trkpt><trkpt lat="39.6890192" lon="20.8279236"><ele>475.0</ele><time>2026-04-26T14:43:17.234Z</time></trkpt><trkpt lat="39.6889481" lon="20.8280715"><ele>475.0</ele><time>2026-04-26T14:43:18.235Z</time></trkpt><trkpt lat="39.6888676" lon="20.8281939"><ele>475.0</ele><time>2026-04-26T14:43:19.235Z</time></trkpt><trkpt lat="39.6887858" lon="20.828317"><ele>475.0</ele><time>2026-04-26T14:43:20.234Z</time></trkpt><trkpt lat="39.6887019" lon="20.8284424"><ele>475.25</ele><time>2026-04-26T14:43:21.235Z</time></trkpt><trkpt lat="39.688623" lon="20.8285739"><ele>475.5</ele><time>2026-04-26T14:43:22.234Z</time></trkpt><trkpt lat="39.6885423" lon="20.8287075"><ele>475.75</ele><time>2026-04-26T14:43:23.235Z</time></trkpt><trkpt lat="39.6884605" lon="20.8288354"><ele>476.0</ele><time>2026-04-26T14:43:24.235Z</time></trkpt><trkpt lat="39.6883849" lon="20.8289554"><ele>476.0</ele><time>2026-04-26T14:43:25.234Z</time></trkpt><trkpt lat="39.6882938" lon="20.8290757"><ele>476.0</ele><time>2026-04-26T14:43:26.234Z</time></trkpt><trkpt lat="39.6882036" lon="20.8291912"><ele>476.0</ele><time>2026-04-26T14:43:27.234Z</time></trkpt><trkpt lat="39.6881077" lon="20.8293051"><ele>476.0</ele><time>2026-04-26T14:43:28.235Z</time></trkpt><trkpt lat="39.6880178" lon="20.8294207"><ele>476.0</ele><time>2026-04-26T14:43:29.235Z</time></trkpt><trkpt lat="39.6879332" lon="20.8295258"><ele>476.0</ele><time>2026-04-26T14:43:30.235Z</time></trkpt><trkpt lat="39.6878497" lon="20.8296054"><ele>476.0</ele><time>2026-04-26T14:43:31.234Z</time></trkpt><trkpt lat="39.6877734" lon="20.8296668"><ele>476.0</ele><time>2026-04-26T14:43:32.235Z</time></trkpt><trkpt lat="39.6876988" lon="20.8297118"><ele>476.0</ele><time>2026-04-26T14:43:33.235Z</time></trkpt><trkpt lat="39.6876294" lon="20.8297375"><ele>476.0</ele><time>2026-04-26T14:43:34.234Z</time></trkpt><trkpt lat="39.6875664" lon="20.8297521"><ele>476.0</ele><time>2026-04-26T14:43:35.235Z</time></trkpt><trkpt lat="39.68744" lon="20.8297519"><ele>476.0</ele><time>2026-04-26T14:43:37.235Z</time></trkpt><trkpt lat="39.6873421" lon="20.8298442"><ele>476.0</ele><time>2026-04-26T14:43:39.234Z</time></trkpt><trkpt lat="39.6873123" lon="20.8299301"><ele>476.0</ele><time>2026-04-26T14:43:40.234Z</time></trkpt><trkpt lat="39.6873035" lon="20.83004"><ele>475.6</ele><time>2026-04-26T14:43:41.235Z</time></trkpt><trkpt lat="39.6872697" lon="20.8301545"><ele>475.20000000000005</ele><time>2026-04-26T14:43:42.235Z</time></trkpt><trkpt lat="39.6872242" lon="20.8302698"><ele>474.79999999999995</ele><time>2026-04-26T14:43:43.235Z</time></trkpt><trkpt lat="39.6871677" lon="20.830379"><ele>474.4</ele><time>2026-04-26T14:43:44.235Z</time></trkpt><trkpt lat="39.6870954" lon="20.8304872"><ele>474.0</ele><time>2026-04-26T14:43:45.235Z</time></trkpt><trkpt lat="39.6870126" lon="20.8305708"><ele>474.25</ele><time>2026-04-26T14:43:46.235Z</time></trkpt><trkpt lat="39.6869219" lon="20.8306521"><ele>474.5</ele><time>2026-04-26T14:43:47.234Z</time></trkpt><trkpt lat="39.6868348" lon="20.8307603"><ele>474.75</ele><time>2026-04-26T14:43:48.235Z</time></trkpt><trkpt lat="39.6867468" lon="20.8308686"><ele>475.0</ele><time>2026-04-26T14:43:49.235Z</time></trkpt><trkpt lat="39.6866571" lon="20.8309772"><ele>475.0</ele><time>2026-04-26T14:43:50.234Z</time></trkpt><trkpt lat="39.6865761" lon="20.8310965"><ele>475.0</ele><time>2026-04-26T14:43:51.234Z</time></trkpt><trkpt lat="39.686477" lon="20.8312084"><ele>475.0</ele><time>2026-04-26T14:43:52.234Z</time></trkpt><trkpt lat="39.6863802" lon="20.8313214"><ele>475.0</ele><time>2026-04-26T14:43:53.235Z</time></trkpt><trkpt lat="39.6862794" lon="20.8314396"><ele>475.0</ele><time>2026-04-26T14:43:54.234Z</time></trkpt><trkpt lat="39.6861841" lon="20.8315594"><ele>475.0</ele><time>2026-04-26T14:43:55.234Z</time></trkpt><trkpt lat="39.6860888" lon="20.8316764"><ele>475.0</ele><time>2026-04-26T14:43:56.235Z</time></trkpt><trkpt lat="39.6859945" lon="20.8317895"><ele>475.0</ele><time>2026-04-26T14:43:57.235Z</time></trkpt><trkpt lat="39.6859009" lon="20.8319034"><ele>475.0</ele><time>2026-04-26T14:43:58.235Z</time></trkpt><trkpt lat="39.685804" lon="20.8320201"><ele>475.0</ele><time>2026-04-26T14:43:59.234Z</time></trkpt><trkpt lat="39.6857171" lon="20.8321509"><ele>475.0</ele><time>2026-04-26T14:44:00.234Z</time></trkpt><trkpt lat="39.6856214" lon="20.8322711"><ele>475.0</ele><time>2026-04-26T14:44:01.235Z</time></trkpt><trkpt lat="39.6855281" lon="20.8323961"><ele>475.0</ele><time>2026-04-26T14:44:02.234Z</time></trkpt><trkpt lat="39.6854276" lon="20.832515"><ele>475.0</ele><time>2026-04-26T14:44:03.234Z</time></trkpt><trkpt lat="39.6853283" lon="20.832631"><ele>475.0</ele><time>2026-04-26T14:44:04.235Z</time></trkpt><trkpt lat="39.6852307" lon="20.8327471"><ele>475.0</ele><time>2026-04-26T14:44:05.235Z</time></trkpt><trkpt lat="39.6851325" lon="20.8328612"><ele>475.75</ele><time>2026-04-26T14:44:06.235Z</time></trkpt><trkpt lat="39.6850226" lon="20.8329749"><ele>476.5</ele><time>2026-04-26T14:44:07.235Z</time></trkpt><trkpt lat="39.6849203" lon="20.8330772"><ele>477.25</ele><time>2026-04-26T14:44:08.235Z</time></trkpt><trkpt lat="39.6848413" lon="20.8332164"><ele>478.0</ele><time>2026-04-26T14:44:09.234Z</time></trkpt><trkpt lat="39.6847476" lon="20.8333221"><ele>478.0</ele><time>2026-04-26T14:44:10.234Z</time></trkpt><trkpt lat="39.6846522" lon="20.8334364"><ele>478.0</ele><time>2026-04-26T14:44:11.235Z</time></trkpt><trkpt lat="39.6845615" lon="20.8335414"><ele>478.0</ele><time>2026-04-26T14:44:12.235Z</time></trkpt><trkpt lat="39.6844704" lon="20.8336398"><ele>478.0</ele><time>2026-04-26T14:44:13.234Z</time></trkpt><trkpt lat="39.6843786" lon="20.8337323"><ele>478.25</ele><time>2026-04-26T14:44:14.235Z</time></trkpt><trkpt lat="39.6842885" lon="20.8338254"><ele>478.5</ele><time>2026-04-26T14:44:15.235Z</time></trkpt><trkpt lat="39.6842001" lon="20.8339184"><ele>478.75</ele><time>2026-04-26T14:44:16.234Z</time></trkpt><trkpt lat="39.6841095" lon="20.8340082"><ele>479.0</ele><time>2026-04-26T14:44:17.235Z</time></trkpt><trkpt lat="39.6840249" lon="20.8341099"><ele>479.0</ele><time>2026-04-26T14:44:18.234Z</time></trkpt><trkpt lat="39.6839358" lon="20.8342053"><ele>479.0</ele><time>2026-04-26T14:44:19.234Z</time></trkpt><trkpt lat="39.6838489" lon="20.8342988"><ele>479.0</ele><time>2026-04-26T14:44:20.234Z</time></trkpt><trkpt lat="39.6837777" lon="20.8343864"><ele>479.0</ele><time>2026-04-26T14:44:21.234Z</time></trkpt><trkpt lat="39.6837131" lon="20.8344562"><ele>479.0</ele><time>2026-04-26T14:44:22.234Z</time></trkpt><trkpt lat="39.6836329" lon="20.8345321"><ele>479.0</ele><time>2026-04-26T14:44:23.234Z</time></trkpt><trkpt lat="39.6835484" lon="20.8346146"><ele>479.0</ele><time>2026-04-26T14:44:24.235Z</time></trkpt><trkpt lat="39.683464" lon="20.8346946"><ele>479.0</ele><time>2026-04-26T14:44:25.234Z</time></trkpt><trkpt lat="39.6833812" lon="20.8347602"><ele>479.0</ele><time>2026-04-26T14:44:26.234Z</time></trkpt><trkpt lat="39.6832792" lon="20.8348066"><ele>479.0</ele><time>2026-04-26T14:44:27.234Z</time></trkpt><trkpt lat="39.6831901" lon="20.8349026"><ele>479.0</ele><time>2026-04-26T14:44:28.235Z</time></trkpt><trkpt lat="39.6831003" lon="20.8349946"><ele>479.0</ele><time>2026-04-26T14:44:29.235Z</time></trkpt><trkpt lat="39.6830099" lon="20.8350841"><ele>479.0</ele><time>2026-04-26T14:44:30.235Z</time></trkpt><trkpt lat="39.6829035" lon="20.8351577"><ele>479.0</ele><time>2026-04-26T14:44:31.235Z</time></trkpt><trkpt lat="39.6828115" lon="20.8352371"><ele>478.5</ele><time>2026-04-26T14:44:32.235Z</time></trkpt><trkpt lat="39.6827147" lon="20.8353392"><ele>478.0</ele><time>2026-04-26T14:44:33.235Z</time></trkpt><trkpt lat="39.6826265" lon="20.8354326"><ele>477.5</ele><time>2026-04-26T14:44:34.235Z</time></trkpt><trkpt lat="39.6825395" lon="20.8355322"><ele>477.0</ele><time>2026-04-26T14:44:35.235Z</time></trkpt><trkpt lat="39.6824415" lon="20.835624"><ele>477.0</ele><time>2026-04-26T14:44:36.234Z</time></trkpt><trkpt lat="39.6823481" lon="20.8357286"><ele>477.0</ele><time>2026-04-26T14:44:37.234Z</time></trkpt><trkpt lat="39.6822546" lon="20.8358251"><ele>477.0</ele><time>2026-04-26T14:44:38.235Z</time></trkpt><trkpt lat="39.6821617" lon="20.8359199"><ele>477.0</ele><time>2026-04-26T14:44:39.235Z</time></trkpt><trkpt lat="39.6820745" lon="20.8360307"><ele>476.75</ele><time>2026-04-26T14:44:40.234Z</time></trkpt><trkpt lat="39.6819827" lon="20.8361334"><ele>476.5</ele><time>2026-04-26T14:44:41.234Z</time></trkpt><trkpt lat="39.681892" lon="20.8362248"><ele>476.25</ele><time>2026-04-26T14:44:42.234Z</time></trkpt><trkpt lat="39.6818004" lon="20.8363159"><ele>476.0</ele><time>2026-04-26T14:44:43.234Z</time></trkpt><trkpt lat="39.6817074" lon="20.8364117"><ele>476.0</ele><time>2026-04-26T14:44:44.234Z</time></trkpt><trkpt lat="39.6816199" lon="20.8365012"><ele>476.0</ele><time>2026-04-26T14:44:45.234Z</time></trkpt><trkpt lat="39.6815355" lon="20.8365971"><ele>476.0</ele><time>2026-04-26T14:44:46.234Z</time></trkpt><trkpt lat="39.6814483" lon="20.8366902"><ele>476.0</ele><time>2026-04-26T14:44:47.235Z</time></trkpt><trkpt lat="39.6813593" lon="20.8367848"><ele>476.0</ele><time>2026-04-26T14:44:48.235Z</time></trkpt><trkpt lat="39.6812633" lon="20.836891"><ele>476.0</ele><time>2026-04-26T14:44:49.235Z</time></trkpt><trkpt lat="39.6811686" lon="20.8369874"><ele>476.0</ele><time>2026-04-26T14:44:50.235Z</time></trkpt><trkpt lat="39.6810721" lon="20.8370799"><ele>476.0</ele><time>2026-04-26T14:44:51.235Z</time></trkpt><trkpt lat="39.6809736" lon="20.8371737"><ele>476.20000000000005</ele><time>2026-04-26T14:44:52.234Z</time></trkpt><trkpt lat="39.6808818" lon="20.8372579"><ele>476.40000000000003</ele><time>2026-04-26T14:44:53.235Z</time></trkpt><trkpt lat="39.6807945" lon="20.8373401"><ele>476.6</ele><time>2026-04-26T14:44:54.235Z</time></trkpt><trkpt lat="39.6807078" lon="20.8374274"><ele>476.8</ele><time>2026-04-26T14:44:55.234Z</time></trkpt><trkpt lat="39.6806178" lon="20.8375058"><ele>477.0</ele><time>2026-04-26T14:44:56.234Z</time></trkpt><trkpt lat="39.6805302" lon="20.8375912"><ele>477.0</ele><time>2026-04-26T14:44:57.235Z</time></trkpt><trkpt lat="39.6804618" lon="20.8376598"><ele>477.0</ele><time>2026-04-26T14:44:58.234Z</time></trkpt><trkpt lat="39.6803995" lon="20.837715"><ele>477.0</ele><time>2026-04-26T14:44:59.234Z</time></trkpt><trkpt lat="39.6803239" lon="20.8377637"><ele>477.0</ele><time>2026-04-26T14:45:00.235Z</time></trkpt><trkpt lat="39.6802598" lon="20.8378332"><ele>477.0</ele><time>2026-04-26T14:45:01.234Z</time></trkpt><trkpt lat="39.6801876" lon="20.8379032"><ele>477.0</ele><time>2026-04-26T14:45:02.234Z</time></trkpt><trkpt lat="39.6801247" lon="20.8379858"><ele>477.0</ele><time>2026-04-26T14:45:03.234Z</time></trkpt><trkpt lat="39.6800525" lon="20.8380742"><ele>477.00000000000006</ele><time>2026-04-26T14:45:04.235Z</time></trkpt><trkpt lat="39.6799742" lon="20.838156"><ele>477.00000000000006</ele><time>2026-04-26T14:45:05.235Z</time></trkpt><trkpt lat="39.6798925" lon="20.8382496"><ele>477.0</ele><time>2026-04-26T14:45:06.234Z</time></trkpt><trkpt lat="39.6798033" lon="20.8383302"><ele>477.0</ele><time>2026-04-26T14:45:07.235Z</time></trkpt><trkpt lat="39.6797252" lon="20.8384312"><ele>476.40000000000003</ele><time>2026-04-26T14:45:08.235Z</time></trkpt><trkpt lat="39.6796379" lon="20.8385201"><ele>475.80000000000007</ele><time>2026-04-26T14:45:09.234Z</time></trkpt><trkpt lat="39.6795475" lon="20.8386012"><ele>475.2</ele><time>2026-04-26T14:45:10.234Z</time></trkpt><trkpt lat="39.6794596" lon="20.8386923"><ele>474.6</ele><time>2026-04-26T14:45:11.234Z</time></trkpt><trkpt lat="39.6793713" lon="20.8387806"><ele>474.0</ele><time>2026-04-26T14:45:12.235Z</time></trkpt><trkpt lat="39.6792769" lon="20.8388816"><ele>474.0</ele><time>2026-04-26T14:45:13.235Z</time></trkpt><trkpt lat="39.6791849" lon="20.8389709"><ele>474.0</ele><time>2026-04-26T14:45:14.234Z</time></trkpt><trkpt lat="39.6790989" lon="20.8390623"><ele>474.0</ele><time>2026-04-26T14:45:15.234Z</time></trkpt><trkpt lat="39.679008" lon="20.8391555"><ele>474.0</ele><time>2026-04-26T14:45:16.234Z</time></trkpt><trkpt lat="39.6789156" lon="20.8392471"><ele>473.75</ele><time>2026-04-26T14:45:17.235Z</time></trkpt><trkpt lat="39.6788214" lon="20.839344"><ele>473.5</ele><time>2026-04-26T14:45:18.234Z</time></trkpt><trkpt lat="39.6787259" lon="20.8394418"><ele>473.25</ele><time>2026-04-26T14:45:19.234Z</time></trkpt><trkpt lat="39.6786281" lon="20.8395398"><ele>473.0</ele><time>2026-04-26T14:45:20.234Z</time></trkpt><trkpt lat="39.6785272" lon="20.8396502"><ele>473.0</ele><time>2026-04-26T14:45:21.235Z</time></trkpt><trkpt lat="39.6784282" lon="20.839757"><ele>473.0</ele><time>2026-04-26T14:45:22.235Z</time></trkpt><trkpt lat="39.6783293" lon="20.8398575"><ele>473.0</ele><time>2026-04-26T14:45:23.235Z</time></trkpt><trkpt lat="39.6782228" lon="20.8399653"><ele>473.0</ele><time>2026-04-26T14:45:24.234Z</time></trkpt><trkpt lat="39.6781114" lon="20.8400727"><ele>472.5</ele><time>2026-04-26T14:45:25.235Z</time></trkpt><trkpt lat="39.6780073" lon="20.8401775"><ele>472.0</ele><time>2026-04-26T14:45:26.234Z</time></trkpt><trkpt lat="39.6779078" lon="20.8402772"><ele>471.5</ele><time>2026-04-26T14:45:27.234Z</time></trkpt><trkpt lat="39.6778048" lon="20.840379"><ele>471.0</ele><time>2026-04-26T14:45:28.234Z</time></trkpt><trkpt lat="39.6777084" lon="20.8404897"><ele>472.0</ele><time>2026-04-26T14:45:29.234Z</time></trkpt><trkpt lat="39.6776102" lon="20.8405836"><ele>473.0</ele><time>2026-04-26T14:45:30.235Z</time></trkpt><trkpt lat="39.6775106" lon="20.8406749"><ele>474.0</ele><time>2026-04-26T14:45:31.235Z</time></trkpt><trkpt lat="39.6774128" lon="20.8407501"><ele>475.0</ele><time>2026-04-26T14:45:32.234Z</time></trkpt><trkpt lat="39.6773118" lon="20.8408188"><ele>475.0</ele><time>2026-04-26T14:45:33.234Z</time></trkpt><trkpt lat="39.6772076" lon="20.8408878"><ele>475.0</ele><time>2026-04-26T14:45:34.235Z</time></trkpt><trkpt lat="39.6771108" lon="20.8409451"><ele>475.0</ele><time>2026-04-26T14:45:35.235Z</time></trkpt><trkpt lat="39.677018" lon="20.8409954"><ele>475.0</ele><time>2026-04-26T14:45:36.235Z</time></trkpt><trkpt lat="39.6769339" lon="20.8410433"><ele>475.0</ele><time>2026-04-26T14:45:37.235Z</time></trkpt><trkpt lat="39.6768563" lon="20.8410904"><ele>475.14285714285717</ele><time>2026-04-26T14:45:38.235Z</time></trkpt><trkpt lat="39.6767885" lon="20.8411309"><ele>475.28571428571433</ele><time>2026-04-26T14:45:39.235Z</time></trkpt><trkpt lat="39.6767304" lon="20.841164"><ele>475.42857142857144</ele><time>2026-04-26T14:45:40.235Z</time></trkpt><trkpt lat="39.6766526" lon="20.8412158"><ele>475.57142857142856</ele><time>2026-04-26T14:45:42.235Z</time></trkpt><trkpt lat="39.6766003" lon="20.841271"><ele>475.7142857142857</ele><time>2026-04-26T14:45:44.235Z</time></trkpt><trkpt lat="39.6765417" lon="20.841342"><ele>475.8571428571429</ele><time>2026-04-26T14:45:47.234Z</time></trkpt><trkpt lat="39.6765169" lon="20.8414258"><ele>476.0</ele><time>2026-04-26T14:45:49.234Z</time></trkpt><trkpt lat="39.6765129" lon="20.8415152"><ele>476.0</ele><time>2026-04-26T14:45:51.234Z</time></trkpt><trkpt lat="39.6765717" lon="20.8416231"><ele>476.0</ele><time>2026-04-26T14:45:53.235Z</time></trkpt><trkpt lat="39.6766515" lon="20.8417075"><ele>476.0</ele><time>2026-04-26T14:45:55.235Z</time></trkpt><trkpt lat="39.6767549" lon="20.8417822"><ele>476.0</ele><time>2026-04-26T14:45:57.235Z</time></trkpt><trkpt lat="39.6768525" lon="20.8418562"><ele>476.0</ele><time>2026-04-26T14:45:59.234Z</time></trkpt><trkpt lat="39.6769333" lon="20.8419167"><ele>475.49999999999994</ele><time>2026-04-26T14:46:01.234Z</time></trkpt><trkpt lat="39.6769403" lon="20.842021"><ele>475.0</ele><time>2026-04-26T14:46:03.234Z</time></trkpt><trkpt lat="39.6768794" lon="20.8421431"><ele>474.5</ele><time>2026-04-26T14:46:05.235Z</time></trkpt><trkpt lat="39.6768443" lon="20.8422121"><ele>474.0</ele><time>2026-04-26T14:46:06.234Z</time></trkpt><trkpt lat="39.6767974" lon="20.842277"><ele>473.49999999999994</ele><time>2026-04-26T14:46:07.234Z</time></trkpt><trkpt lat="39.6767577" lon="20.8423604"><ele>473.0</ele><time>2026-04-26T14:46:08.235Z</time></trkpt><trkpt lat="39.6767103" lon="20.8424435"><ele>473.0</ele><time>2026-04-26T14:46:09.235Z</time></trkpt><trkpt lat="39.6766653" lon="20.8425291"><ele>472.99999999999994</ele><time>2026-04-26T14:46:10.234Z</time></trkpt><trkpt lat="39.6766043" lon="20.8426229"><ele>472.99999999999994</ele><time>2026-04-26T14:46:11.234Z</time></trkpt><trkpt lat="39.6765367" lon="20.8427105"><ele>473.0</ele><time>2026-04-26T14:46:12.234Z</time></trkpt><trkpt lat="39.6764772" lon="20.8427998"><ele>473.0</ele><time>2026-04-26T14:46:13.235Z</time></trkpt><trkpt lat="39.6764127" lon="20.8428887"><ele>472.66666666666663</ele><time>2026-04-26T14:46:14.235Z</time></trkpt><trkpt lat="39.6763666" lon="20.8429877"><ele>472.3333333333333</ele><time>2026-04-26T14:46:15.234Z</time></trkpt><trkpt lat="39.6763105" lon="20.8430824"><ele>472.0</ele><time>2026-04-26T14:46:16.234Z</time></trkpt><trkpt lat="39.6762599" lon="20.8431814"><ele>471.66666666666663</ele><time>2026-04-26T14:46:17.234Z</time></trkpt><trkpt lat="39.6762116" lon="20.8432728"><ele>471.3333333333333</ele><time>2026-04-26T14:46:18.234Z</time></trkpt><trkpt lat="39.6761604" lon="20.8433629"><ele>471.0</ele><time>2026-04-26T14:46:19.234Z</time></trkpt><trkpt lat="39.6761076" lon="20.8434569"><ele>471.5</ele><time>2026-04-26T14:46:20.234Z</time></trkpt><trkpt lat="39.6760613" lon="20.8435462"><ele>472.0</ele><time>2026-04-26T14:46:21.235Z</time></trkpt><trkpt lat="39.6760113" lon="20.843631"><ele>472.5</ele><time>2026-04-26T14:46:22.235Z</time></trkpt><trkpt lat="39.6759548" lon="20.8436978"><ele>473.0</ele><time>2026-04-26T14:46:23.235Z</time></trkpt><trkpt lat="39.6759104" lon="20.8437862"><ele>473.5</ele><time>2026-04-26T14:46:24.234Z</time></trkpt><trkpt lat="39.6758655" lon="20.8438817"><ele>474.0</ele><time>2026-04-26T14:46:25.235Z</time></trkpt><trkpt lat="39.6758211" lon="20.8439678"><ele>473.99999999999994</ele><time>2026-04-26T14:46:26.235Z</time></trkpt><trkpt lat="39.6757831" lon="20.8440481"><ele>474.0</ele><time>2026-04-26T14:46:27.234Z</time></trkpt><trkpt lat="39.6757469" lon="20.8441237"><ele>473.99999999999994</ele><time>2026-04-26T14:46:28.235Z</time></trkpt><trkpt lat="39.675706" lon="20.8441875"><ele>473.99999999999994</ele><time>2026-04-26T14:46:29.235Z</time></trkpt><trkpt lat="39.6756603" lon="20.8442778"><ele>474.0</ele><time>2026-04-26T14:46:30.235Z</time></trkpt><trkpt lat="39.6756299" lon="20.8443533"><ele>473.99999999999994</ele><time>2026-04-26T14:46:31.234Z</time></trkpt><trkpt lat="39.6755932" lon="20.8444343"><ele>473.99999999999994</ele><time>2026-04-26T14:46:32.234Z</time></trkpt><trkpt lat="39.6755134" lon="20.8445721"><ele>474.0</ele><time>2026-04-26T14:46:34.234Z</time></trkpt><trkpt lat="39.6754247" lon="20.8447124"><ele>474.0</ele><time>2026-04-26T14:46:36.234Z</time></trkpt><trkpt lat="39.675386" lon="20.8447876"><ele>474.0</ele><time>2026-04-26T14:46:37.235Z</time></trkpt><trkpt lat="39.6753277" lon="20.8449389"><ele>474.0</ele><time>2026-04-26T14:46:39.234Z</time></trkpt><trkpt lat="39.6752553" lon="20.8450796"><ele>473.79999999999995</ele><time>2026-04-26T14:46:41.235Z</time></trkpt><trkpt lat="39.6752232" lon="20.8451599"><ele>473.59999999999997</ele><time>2026-04-26T14:46:42.234Z</time></trkpt><trkpt lat="39.6751783" lon="20.8452276"><ele>473.4</ele><time>2026-04-26T14:46:43.234Z</time></trkpt><trkpt lat="39.6751161" lon="20.8453513"><ele>473.2</ele><time>2026-04-26T14:46:45.234Z</time></trkpt><trkpt lat="39.6750562" lon="20.8454813"><ele>473.0</ele><time>2026-04-26T14:46:47.234Z</time></trkpt><trkpt lat="39.674979" lon="20.8456027"><ele>472.99999999999994</ele><time>2026-04-26T14:46:49.234Z</time></trkpt><trkpt lat="39.6749452" lon="20.8456742"><ele>473.0</ele><time>2026-04-26T14:46:50.235Z</time></trkpt><trkpt lat="39.6749026" lon="20.8457481"><ele>473.0</ele><time>2026-04-26T14:46:51.234Z</time></trkpt><trkpt lat="39.6748522" lon="20.8458295"><ele>473.0</ele><time>2026-04-26T14:46:52.235Z</time></trkpt><trkpt lat="39.6748163" lon="20.8459071"><ele>472.99999999999994</ele><time>2026-04-26T14:46:53.234Z</time></trkpt><trkpt lat="39.6747681" lon="20.8460005"><ele>473.0</ele><time>2026-04-26T14:46:54.235Z</time></trkpt><trkpt lat="39.6747308" lon="20.8460921"><ele>472.66666666666663</ele><time>2026-04-26T14:46:55.235Z</time></trkpt><trkpt lat="39.6746871" lon="20.8461676"><ele>472.3333333333333</ele><time>2026-04-26T14:46:56.234Z</time></trkpt><trkpt lat="39.6746303" lon="20.8462695"><ele>472.0</ele><time>2026-04-26T14:46:57.235Z</time></trkpt><trkpt lat="39.6745907" lon="20.8463422"><ele>471.66666666666663</ele><time>2026-04-26T14:46:58.235Z</time></trkpt><trkpt lat="39.6745481" lon="20.8464127"><ele>471.3333333333333</ele><time>2026-04-26T14:46:59.235Z</time></trkpt><trkpt lat="39.6745118" lon="20.8465103"><ele>471.0</ele><time>2026-04-26T14:47:01.235Z</time></trkpt><trkpt lat="39.6744563" lon="20.8466045"><ele>471.20000000000005</ele><time>2026-04-26T14:47:03.235Z</time></trkpt><trkpt lat="39.6743909" lon="20.8467481"><ele>471.40000000000003</ele><time>2026-04-26T14:47:05.235Z</time></trkpt><trkpt lat="39.6743508" lon="20.8468235"><ele>471.6</ele><time>2026-04-26T14:47:06.235Z</time></trkpt><trkpt lat="39.6743049" lon="20.8469097"><ele>471.8</ele><time>2026-04-26T14:47:07.235Z</time></trkpt><trkpt lat="39.6742543" lon="20.8469967"><ele>472.0</ele><time>2026-04-26T14:47:08.235Z</time></trkpt><trkpt lat="39.6742035" lon="20.8470984"><ele>472.0</ele><time>2026-04-26T14:47:09.234Z</time></trkpt><trkpt lat="39.6741408" lon="20.8472047"><ele>472.00000000000006</ele><time>2026-04-26T14:47:10.234Z</time></trkpt><trkpt lat="39.6740822" lon="20.8473148"><ele>472.00000000000006</ele><time>2026-04-26T14:47:11.235Z</time></trkpt><trkpt lat="39.6740377" lon="20.8474221"><ele>472.0</ele><time>2026-04-26T14:47:12.234Z</time></trkpt><trkpt lat="39.6739895" lon="20.847538"><ele>472.0</ele><time>2026-04-26T14:47:13.234Z</time></trkpt><trkpt lat="39.67393" lon="20.8476552"><ele>472.25</ele><time>2026-04-26T14:47:14.234Z</time></trkpt><trkpt lat="39.6738589" lon="20.8477804"><ele>472.5</ele><time>2026-04-26T14:47:15.234Z</time></trkpt><trkpt lat="39.6737875" lon="20.8479031"><ele>472.75</ele><time>2026-04-26T14:47:16.234Z</time></trkpt><trkpt lat="39.6737168" lon="20.8480355"><ele>473.0</ele><time>2026-04-26T14:47:17.234Z</time></trkpt><trkpt lat="39.673657" lon="20.8481613"><ele>472.79999999999995</ele><time>2026-04-26T14:47:18.235Z</time></trkpt><trkpt lat="39.6736011" lon="20.8482838"><ele>472.59999999999997</ele><time>2026-04-26T14:47:19.234Z</time></trkpt><trkpt lat="39.6735386" lon="20.8483995"><ele>472.40000000000003</ele><time>2026-04-26T14:47:20.235Z</time></trkpt><trkpt lat="39.6734818" lon="20.8485241"><ele>472.20000000000005</ele><time>2026-04-26T14:47:21.235Z</time></trkpt><trkpt lat="39.6734244" lon="20.8486406"><ele>472.0</ele><time>2026-04-26T14:47:22.234Z</time></trkpt><trkpt lat="39.6733673" lon="20.8487707"><ele>472.0</ele><time>2026-04-26T14:47:23.235Z</time></trkpt><trkpt lat="39.673309" lon="20.8489016"><ele>472.0</ele><time>2026-04-26T14:47:24.234Z</time></trkpt><trkpt lat="39.6732451" lon="20.8490273"><ele>472.0</ele><time>2026-04-26T14:47:25.235Z</time></trkpt><trkpt lat="39.6731847" lon="20.8491505"><ele>472.0</ele><time>2026-04-26T14:47:26.234Z</time></trkpt><trkpt lat="39.673122" lon="20.8492759"><ele>471.5</ele><time>2026-04-26T14:47:27.235Z</time></trkpt><trkpt lat="39.6730594" lon="20.8494013"><ele>471.0</ele><time>2026-04-26T14:47:28.235Z</time></trkpt><trkpt lat="39.6729915" lon="20.8495204"><ele>470.5</ele><time>2026-04-26T14:47:29.235Z</time></trkpt><trkpt lat="39.6729164" lon="20.8496494"><ele>470.0</ele><time>2026-04-26T14:47:30.234Z</time></trkpt><trkpt lat="39.6728683" lon="20.8497736"><ele>470.0</ele><time>2026-04-26T14:47:31.234Z</time></trkpt><trkpt lat="39.6728121" lon="20.8498776"><ele>470.0</ele><time>2026-04-26T14:47:32.234Z</time></trkpt><trkpt lat="39.6727524" lon="20.8500091"><ele>470.0</ele><time>2026-04-26T14:47:33.235Z</time></trkpt><trkpt lat="39.6727003" lon="20.8501304"><ele>470.0</ele><time>2026-04-26T14:47:34.234Z</time></trkpt><trkpt lat="39.6726486" lon="20.8502574"><ele>470.0</ele><time>2026-04-26T14:47:35.234Z</time></trkpt><trkpt lat="39.6725953" lon="20.8503981"><ele>470.75</ele><time>2026-04-26T14:47:36.235Z</time></trkpt><trkpt lat="39.672558" lon="20.8505359"><ele>471.5</ele><time>2026-04-26T14:47:37.234Z</time></trkpt><trkpt lat="39.6725067" lon="20.8506707"><ele>472.25</ele><time>2026-04-26T14:47:38.234Z</time></trkpt><trkpt lat="39.6724651" lon="20.8508139"><ele>473.0</ele><time>2026-04-26T14:47:39.234Z</time></trkpt><trkpt lat="39.6724142" lon="20.8509459"><ele>472.99999999999994</ele><time>2026-04-26T14:47:40.234Z</time></trkpt><trkpt lat="39.6723714" lon="20.8510785"><ele>473.0</ele><time>2026-04-26T14:47:41.235Z</time></trkpt><trkpt lat="39.6723328" lon="20.8511961"><ele>473.0</ele><time>2026-04-26T14:47:42.234Z</time></trkpt><trkpt lat="39.6722978" lon="20.8512929"><ele>473.0</ele><time>2026-04-26T14:47:43.235Z</time></trkpt><trkpt lat="39.6722716" lon="20.8513778"><ele>472.99999999999994</ele><time>2026-04-26T14:47:44.234Z</time></trkpt><trkpt lat="39.6722471" lon="20.8514598"><ele>473.0</ele><time>2026-04-26T14:47:45.235Z</time></trkpt><trkpt lat="39.6722138" lon="20.8515401"><ele>473.0</ele><time>2026-04-26T14:47:46.234Z</time></trkpt><trkpt lat="39.6721863" lon="20.8516205"><ele>473.0</ele><time>2026-04-26T14:47:47.235Z</time></trkpt><trkpt lat="39.6721623" lon="20.8517055"><ele>473.0</ele><time>2026-04-26T14:47:48.235Z</time></trkpt><trkpt lat="39.6721381" lon="20.8517957"><ele>473.0</ele><time>2026-04-26T14:47:49.235Z</time></trkpt><trkpt lat="39.6721088" lon="20.8518969"><ele>473.0</ele><time>2026-04-26T14:47:50.234Z</time></trkpt><trkpt lat="39.6720811" lon="20.8519892"><ele>473.0</ele><time>2026-04-26T14:47:51.234Z</time></trkpt><trkpt lat="39.6720476" lon="20.8520806"><ele>473.0</ele><time>2026-04-26T14:47:52.235Z</time></trkpt><trkpt lat="39.6720171" lon="20.8521643"><ele>472.8333333333333</ele><time>2026-04-26T14:47:53.235Z</time></trkpt><trkpt lat="39.671979" lon="20.8522489"><ele>472.66666666666663</ele><time>2026-04-26T14:47:54.235Z</time></trkpt><trkpt lat="39.671948" lon="20.8523378"><ele>472.5</ele><time>2026-04-26T14:47:55.234Z</time></trkpt><trkpt lat="39.6719207" lon="20.8524269"><ele>472.33333333333337</ele><time>2026-04-26T14:47:56.235Z</time></trkpt><trkpt lat="39.6718901" lon="20.8525234"><ele>472.1666666666667</ele><time>2026-04-26T14:47:57.235Z</time></trkpt><trkpt lat="39.6718582" lon="20.8526198"><ele>472.0</ele><time>2026-04-26T14:47:58.235Z</time></trkpt><trkpt lat="39.6718251" lon="20.8527202"><ele>471.83333333333337</ele><time>2026-04-26T14:47:59.235Z</time></trkpt><trkpt lat="39.6717968" lon="20.8528181"><ele>471.6666666666667</ele><time>2026-04-26T14:48:00.235Z</time></trkpt><trkpt lat="39.671777" lon="20.8529208"><ele>471.5</ele><time>2026-04-26T14:48:01.235Z</time></trkpt><trkpt lat="39.6717558" lon="20.8530173"><ele>471.33333333333337</ele><time>2026-04-26T14:48:02.234Z</time></trkpt><trkpt lat="39.6717321" lon="20.8531186"><ele>471.1666666666667</ele><time>2026-04-26T14:48:03.234Z</time></trkpt><trkpt lat="39.6717087" lon="20.8532234"><ele>471.0</ele><time>2026-04-26T14:48:04.234Z</time></trkpt><trkpt lat="39.6716829" lon="20.8533261"><ele>471.0</ele><time>2026-04-26T14:48:05.235Z</time></trkpt><trkpt lat="39.6716615" lon="20.8534276"><ele>471.0</ele><time>2026-04-26T14:48:06.235Z</time></trkpt><trkpt lat="39.6716372" lon="20.8535235"><ele>471.0</ele><time>2026-04-26T14:48:07.234Z</time></trkpt><trkpt lat="39.6716112" lon="20.8536141"><ele>471.0</ele><time>2026-04-26T14:48:08.234Z</time></trkpt><trkpt lat="39.6715906" lon="20.8537137"><ele>471.0</ele><time>2026-04-26T14:48:09.235Z</time></trkpt><trkpt lat="39.6715583" lon="20.8538031"><ele>471.0</ele><time>2026-04-26T14:48:10.235Z</time></trkpt><trkpt lat="39.6715296" lon="20.8539126"><ele>471.1666666666667</ele><time>2026-04-26T14:48:11.234Z</time></trkpt><trkpt lat="39.671494" lon="20.854009"><ele>471.33333333333337</ele><time>2026-04-26T14:48:12.235Z</time></trkpt><trkpt lat="39.6714584" lon="20.8541061"><ele>471.5</ele><time>2026-04-26T14:48:13.234Z</time></trkpt><trkpt lat="39.6714195" lon="20.8541947"><ele>471.6666666666667</ele><time>2026-04-26T14:48:14.235Z</time></trkpt><trkpt lat="39.6713838" lon="20.8542847"><ele>471.83333333333337</ele><time>2026-04-26T14:48:15.235Z</time></trkpt><trkpt lat="39.671347" lon="20.8543679"><ele>472.0</ele><time>2026-04-26T14:48:16.235Z</time></trkpt><trkpt lat="39.6713088" lon="20.854452"><ele>472.0</ele><time>2026-04-26T14:48:17.235Z</time></trkpt><trkpt lat="39.6712729" lon="20.854521"><ele>472.00000000000006</ele><time>2026-04-26T14:48:18.234Z</time></trkpt><trkpt lat="39.6712198" lon="20.8546541"><ele>472.00000000000006</ele><time>2026-04-26T14:48:20.235Z</time></trkpt><trkpt lat="39.6712034" lon="20.854785"><ele>472.0</ele><time>2026-04-26T14:48:22.234Z</time></trkpt><trkpt lat="39.6712407" lon="20.8548975"><ele>472.0</ele><time>2026-04-26T14:48:24.234Z</time></trkpt><trkpt lat="39.6713456" lon="20.8549703"><ele>472.0</ele><time>2026-04-26T14:48:26.235Z</time></trkpt><trkpt lat="39.6714172" lon="20.8550085"><ele>472.0</ele><time>2026-04-26T14:48:27.235Z</time></trkpt><trkpt lat="39.6714775" lon="20.8550383"><ele>472.0</ele><time>2026-04-26T14:48:28.235Z</time></trkpt><trkpt lat="39.6715443" lon="20.8550746"><ele>472.0</ele><time>2026-04-26T14:48:29.235Z</time></trkpt><trkpt lat="39.671611" lon="20.8551111"><ele>472.0</ele><time>2026-04-26T14:48:30.234Z</time></trkpt><trkpt lat="39.6716878" lon="20.8551445"><ele>472.0</ele><time>2026-04-26T14:48:31.234Z</time></trkpt><trkpt lat="39.6717557" lon="20.8551827"><ele>472.0</ele><time>2026-04-26T14:48:32.235Z</time></trkpt><trkpt lat="39.671831" lon="20.8552259"><ele>472.33333333333337</ele><time>2026-04-26T14:48:33.235Z</time></trkpt><trkpt lat="39.6719088" lon="20.8552666"><ele>472.6666666666667</ele><time>2026-04-26T14:48:34.234Z</time></trkpt><trkpt lat="39.6719816" lon="20.8552934"><ele>473.0</ele><time>2026-04-26T14:48:35.234Z</time></trkpt><trkpt lat="39.6720487" lon="20.8553061"><ele>473.33333333333337</ele><time>2026-04-26T14:48:36.235Z</time></trkpt><trkpt lat="39.6721186" lon="20.8553346"><ele>473.6666666666667</ele><time>2026-04-26T14:48:37.234Z</time></trkpt><trkpt lat="39.6722294" lon="20.8553887"><ele>474.0</ele><time>2026-04-26T14:48:39.235Z</time></trkpt><trkpt lat="39.6722918" lon="20.8554216"><ele>474.0</ele><time>2026-04-26T14:48:40.235Z</time></trkpt><trkpt lat="39.6723963" lon="20.8554801"><ele>474.0</ele><time>2026-04-26T14:48:42.235Z</time></trkpt><trkpt lat="39.6725023" lon="20.8555505"><ele>474.0</ele><time>2026-04-26T14:48:44.235Z</time></trkpt><trkpt lat="39.6725998" lon="20.8555923"><ele>474.0</ele><time>2026-04-26T14:48:46.235Z</time></trkpt><trkpt lat="39.6726664" lon="20.8556155"><ele>474.0</ele><time>2026-04-26T14:48:48.235Z</time></trkpt><trkpt lat="39.6727233" lon="20.8556566"><ele>474.0</ele><time>2026-04-26T14:48:56.234Z</time></trkpt><trkpt lat="39.6727337" lon="20.8557446"><ele>474.0</ele><time>2026-04-26T14:49:04.235Z</time></trkpt><trkpt lat="39.6726833" lon="20.8558804"><ele>474.0</ele><time>2026-04-26T14:49:06.235Z</time></trkpt><trkpt lat="39.6726533" lon="20.8560234"><ele>474.0</ele><time>2026-04-26T14:49:08.234Z</time></trkpt><trkpt lat="39.6726149" lon="20.8561798"><ele>474.0</ele><time>2026-04-26T14:49:10.235Z</time></trkpt><trkpt lat="39.6725964" lon="20.8562704"><ele>473.8333333333333</ele><time>2026-04-26T14:49:11.235Z</time></trkpt><trkpt lat="39.6725711" lon="20.856358"><ele>473.66666666666663</ele><time>2026-04-26T14:49:12.235Z</time></trkpt><trkpt lat="39.6725525" lon="20.8564444"><ele>473.5</ele><time>2026-04-26T14:49:13.235Z</time></trkpt><trkpt lat="39.6725337" lon="20.8565237"><ele>473.3333333333333</ele><time>2026-04-26T14:49:14.235Z</time></trkpt><trkpt lat="39.6725282" lon="20.8566515"><ele>473.16666666666663</ele><time>2026-04-26T14:49:16.234Z</time></trkpt><trkpt lat="39.6725313" lon="20.8567728"><ele>473.0</ele><time>2026-04-26T14:49:18.234Z</time></trkpt><trkpt lat="39.6725655" lon="20.8568436"><ele>473.4</ele><time>2026-04-26T14:49:19.235Z</time></trkpt><trkpt lat="39.6726057" lon="20.8569715"><ele>473.79999999999995</ele><time>2026-04-26T14:49:21.234Z</time></trkpt><trkpt lat="39.6726361" lon="20.8571168"><ele>474.2</ele><time>2026-04-26T14:49:23.235Z</time></trkpt><trkpt lat="39.6726688" lon="20.8572376"><ele>474.6</ele><time>2026-04-26T14:49:25.235Z</time></trkpt><trkpt lat="39.672705" lon="20.85734"><ele>475.0</ele><time>2026-04-26T14:49:27.235Z</time></trkpt><trkpt lat="39.6727287" lon="20.8574464"><ele>475.0</ele><time>2026-04-26T14:49:29.234Z</time></trkpt><trkpt lat="39.6727541" lon="20.8575574"><ele>475.0</ele><time>2026-04-26T14:49:31.234Z</time></trkpt><trkpt lat="39.6727806" lon="20.8576643"><ele>475.0</ele><time>2026-04-26T14:49:33.235Z</time></trkpt><trkpt lat="39.6727975" lon="20.8577556"><ele>475.0</ele><time>2026-04-26T14:49:34.235Z</time></trkpt><trkpt lat="39.6728495" lon="20.8578918"><ele>475.0</ele><time>2026-04-26T14:49:36.234Z</time></trkpt><trkpt lat="39.6728923" lon="20.8580178"><ele>474.2</ele><time>2026-04-26T14:49:38.234Z</time></trkpt><trkpt lat="39.6729318" lon="20.8580911"><ele>473.4</ele><time>2026-04-26T14:49:39.235Z</time></trkpt><trkpt lat="39.6729775" lon="20.8581746"><ele>472.6</ele><time>2026-04-26T14:49:40.235Z</time></trkpt><trkpt lat="39.6730603" lon="20.8582857"><ele>471.8</ele><time>2026-04-26T14:49:42.234Z</time></trkpt><trkpt lat="39.6731465" lon="20.8583599"><ele>471.0</ele><time>2026-04-26T14:49:44.235Z</time></trkpt><trkpt lat="39.6732472" lon="20.8584312"><ele>471.4</ele><time>2026-04-26T14:49:46.235Z</time></trkpt><trkpt lat="39.6733463" lon="20.8584982"><ele>471.8</ele><time>2026-04-26T14:49:48.235Z</time></trkpt><trkpt lat="39.6734064" lon="20.8585398"><ele>472.19999999999993</ele><time>2026-04-26T14:49:49.235Z</time></trkpt><trkpt lat="39.6734775" lon="20.8586581"><ele>472.59999999999997</ele><time>2026-04-26T14:49:51.234Z</time></trkpt><trkpt lat="39.6735686" lon="20.8587418"><ele>473.0</ele><time>2026-04-26T14:49:53.235Z</time></trkpt><trkpt lat="39.6736518" lon="20.8588211"><ele>471.79999999999995</ele><time>2026-04-26T14:49:55.234Z</time></trkpt><trkpt lat="39.6737278" lon="20.8589056"><ele>470.59999999999997</ele><time>2026-04-26T14:49:57.235Z</time></trkpt><trkpt lat="39.6737657" lon="20.8590072"><ele>469.40000000000003</ele><time>2026-04-26T14:49:59.235Z</time></trkpt><trkpt lat="39.6737793" lon="20.8591514"><ele>468.20000000000005</ele><time>2026-04-26T14:50:01.235Z</time></trkpt><trkpt lat="39.673798" lon="20.8592743"><ele>467.0</ele><time>2026-04-26T14:50:03.235Z</time></trkpt><trkpt lat="39.673804" lon="20.8593558"><ele>467.0</ele><time>2026-04-26T14:50:04.235Z</time></trkpt><trkpt lat="39.673817" lon="20.8594428"><ele>467.00000000000006</ele><time>2026-04-26T14:50:05.235Z</time></trkpt><trkpt lat="39.673825" lon="20.8596083"><ele>467.00000000000006</ele><time>2026-04-26T14:50:07.234Z</time></trkpt><trkpt lat="39.6738316" lon="20.8596936"><ele>467.0</ele><time>2026-04-26T14:50:08.235Z</time></trkpt><trkpt lat="39.6738609" lon="20.8598596"><ele>467.0</ele><time>2026-04-26T14:50:10.234Z</time></trkpt><trkpt lat="39.673878" lon="20.8599466"><ele>467.0</ele><time>2026-04-26T14:50:11.234Z</time></trkpt><trkpt lat="39.6738996" lon="20.8600246"><ele>467.00000000000006</ele><time>2026-04-26T14:50:12.235Z</time></trkpt><trkpt lat="39.6739188" lon="20.8601804"><ele>467.00000000000006</ele><time>2026-04-26T14:50:14.234Z</time></trkpt><trkpt lat="39.6739498" lon="20.8602745"><ele>467.0</ele><time>2026-04-26T14:50:15.234Z</time></trkpt><trkpt lat="39.6739179" lon="20.8603841"><ele>467.0</ele><time>2026-04-26T14:50:17.235Z</time></trkpt><trkpt lat="39.6738601" lon="20.8605254"><ele>466.40000000000003</ele><time>2026-04-26T14:50:19.234Z</time></trkpt><trkpt lat="39.6737953" lon="20.8606344"><ele>465.80000000000007</ele><time>2026-04-26T14:50:21.234Z</time></trkpt><trkpt lat="39.6737164" lon="20.8607085"><ele>465.2</ele><time>2026-04-26T14:50:23.235Z</time></trkpt><trkpt lat="39.6736424" lon="20.860784"><ele>464.6</ele><time>2026-04-26T14:50:25.234Z</time></trkpt><trkpt lat="39.6735609" lon="20.8608573"><ele>464.0</ele><time>2026-04-26T14:50:27.234Z</time></trkpt><trkpt lat="39.6734957" lon="20.8609277"><ele>464.66666666666663</ele><time>2026-04-26T14:50:29.234Z</time></trkpt><trkpt lat="39.6734208" lon="20.8609921"><ele>465.3333333333333</ele><time>2026-04-26T14:50:31.234Z</time></trkpt><trkpt lat="39.6733546" lon="20.861046"><ele>466.0</ele><time>2026-04-26T14:50:33.234Z</time></trkpt><trkpt lat="39.6732952" lon="20.8610987"><ele>466.66666666666663</ele><time>2026-04-26T14:50:35.235Z</time></trkpt><trkpt lat="39.6732446" lon="20.8611509"><ele>467.3333333333333</ele><time>2026-04-26T14:50:37.235Z</time></trkpt><trkpt lat="39.6731796" lon="20.8612166"><ele>468.0</ele><time>2026-04-26T14:50:39.234Z</time></trkpt><trkpt lat="39.6731167" lon="20.8612825"><ele>468.0</ele><time>2026-04-26T14:50:41.234Z</time></trkpt><trkpt lat="39.6730369" lon="20.8613598"><ele>467.99999999999994</ele><time>2026-04-26T14:50:43.234Z</time></trkpt><trkpt lat="39.6729734" lon="20.8614183"><ele>467.99999999999994</ele><time>2026-04-26T14:50:45.235Z</time></trkpt><trkpt lat="39.6728733" lon="20.8614945"><ele>468.0</ele><time>2026-04-26T14:50:47.235Z</time></trkpt><trkpt lat="39.6727987" lon="20.8615844"><ele>468.0</ele><time>2026-04-26T14:50:49.234Z</time></trkpt><trkpt lat="39.6727303" lon="20.8616503"><ele>468.0</ele><time>2026-04-26T14:50:51.234Z</time></trkpt><trkpt lat="39.6726621" lon="20.8617187"><ele>468.0</ele><time>2026-04-26T14:50:53.234Z</time></trkpt><trkpt lat="39.6726055" lon="20.8617842"><ele>468.0</ele><time>2026-04-26T14:50:55.234Z</time></trkpt><trkpt lat="39.672549" lon="20.8618515"><ele>468.0</ele><time>2026-04-26T14:50:57.235Z</time></trkpt><trkpt lat="39.6724977" lon="20.8619153"><ele>468.0</ele><time>2026-04-26T14:50:59.235Z</time></trkpt><trkpt lat="39.6724421" lon="20.8619659"><ele>468.0</ele><time>2026-04-26T14:51:01.235Z</time></trkpt><trkpt lat="39.6723624" lon="20.8620319"><ele>468.0</ele><time>2026-04-26T14:51:04.234Z</time></trkpt><trkpt lat="39.6723084" lon="20.8620918"><ele>467.99999999999994</ele><time>2026-04-26T14:51:06.234Z</time></trkpt><trkpt lat="39.6722457" lon="20.8621645"><ele>467.99999999999994</ele><time>2026-04-26T14:51:08.234Z</time></trkpt><trkpt lat="39.6721643" lon="20.862246"><ele>468.0</ele><time>2026-04-26T14:51:10.235Z</time></trkpt><trkpt lat="39.6720851" lon="20.8623311"><ele>468.0</ele><time>2026-04-26T14:51:12.235Z</time></trkpt><trkpt lat="39.672" lon="20.862409"><ele>468.0</ele><time>2026-04-26T14:51:14.235Z</time></trkpt><trkpt lat="39.6719008" lon="20.8625104"><ele>468.0</ele><time>2026-04-26T14:51:16.234Z</time></trkpt><trkpt lat="39.6718117" lon="20.8626042"><ele>468.0</ele><time>2026-04-26T14:51:18.235Z</time></trkpt><trkpt lat="39.6717225" lon="20.8626848"><ele>468.0</ele><time>2026-04-26T14:51:20.234Z</time></trkpt><trkpt lat="39.6716425" lon="20.8627803"><ele>468.0</ele><time>2026-04-26T14:51:22.235Z</time></trkpt><trkpt lat="39.6715919" lon="20.8628319"><ele>468.0</ele><time>2026-04-26T14:51:23.234Z</time></trkpt><trkpt lat="39.6715273" lon="20.8628818"><ele>468.0</ele><time>2026-04-26T14:51:24.234Z</time></trkpt><trkpt lat="39.6714714" lon="20.8629346"><ele>468.0</ele><time>2026-04-26T14:51:25.235Z</time></trkpt><trkpt lat="39.6714213" lon="20.8629866"><ele>468.0</ele><time>2026-04-26T14:51:26.235Z</time></trkpt><trkpt lat="39.6713242" lon="20.8630749"><ele>468.0</ele><time>2026-04-26T14:51:28.234Z</time></trkpt><trkpt lat="39.6712717" lon="20.8631294"><ele>468.0</ele><time>2026-04-26T14:51:29.235Z</time></trkpt><trkpt lat="39.6712181" lon="20.8631959"><ele>468.0</ele><time>2026-04-26T14:51:30.234Z</time></trkpt><trkpt lat="39.6711672" lon="20.863251"><ele>468.0</ele><time>2026-04-26T14:51:31.235Z</time></trkpt><trkpt lat="39.6711173" lon="20.8633093"><ele>468.0</ele><time>2026-04-26T14:51:32.234Z</time></trkpt><trkpt lat="39.6710606" lon="20.8633581"><ele>468.0</ele><time>2026-04-26T14:51:33.234Z</time></trkpt><trkpt lat="39.6709524" lon="20.863434"><ele>468.0</ele><time>2026-04-26T14:51:35.234Z</time></trkpt><trkpt lat="39.670885" lon="20.8634598"><ele>467.3333333333333</ele><time>2026-04-26T14:51:36.234Z</time></trkpt><trkpt lat="39.6708203" lon="20.863477"><ele>466.66666666666663</ele><time>2026-04-26T14:51:37.235Z</time></trkpt><trkpt lat="39.6706702" lon="20.8635056"><ele>466.0</ele><time>2026-04-26T14:51:39.235Z</time></trkpt><trkpt lat="39.6705881" lon="20.8635103"><ele>465.3333333333333</ele><time>2026-04-26T14:51:40.235Z</time></trkpt><trkpt lat="39.6705194" lon="20.8635196"><ele>464.66666666666663</ele><time>2026-04-26T14:51:41.235Z</time></trkpt><trkpt lat="39.6704483" lon="20.8635047"><ele>464.0</ele><time>2026-04-26T14:51:42.234Z</time></trkpt><trkpt lat="39.6703281" lon="20.8634409"><ele>465.8333333333333</ele><time>2026-04-26T14:51:44.234Z</time></trkpt><trkpt lat="39.6702616" lon="20.8633764"><ele>467.66666666666663</ele><time>2026-04-26T14:51:45.234Z</time></trkpt><trkpt lat="39.6701689" lon="20.8633184"><ele>469.5</ele><time>2026-04-26T14:51:47.235Z</time></trkpt><trkpt lat="39.670133" lon="20.8632488"><ele>471.33333333333337</ele><time>2026-04-26T14:51:48.234Z</time></trkpt><trkpt lat="39.6700909" lon="20.8631665"><ele>473.1666666666667</ele><time>2026-04-26T14:51:49.234Z</time></trkpt><trkpt lat="39.6700632" lon="20.8630888"><ele>475.0</ele><time>2026-04-26T14:51:50.234Z</time></trkpt><trkpt lat="39.6700334" lon="20.8630137"><ele>475.0</ele><time>2026-04-26T14:51:51.234Z</time></trkpt><trkpt lat="39.6700075" lon="20.8629353"><ele>475.00000000000006</ele><time>2026-04-26T14:51:52.234Z</time></trkpt><trkpt lat="39.6699822" lon="20.8628556"><ele>475.0</ele><time>2026-04-26T14:51:53.234Z</time></trkpt><trkpt lat="39.6699566" lon="20.862769"><ele>475.0</ele><time>2026-04-26T14:51:54.235Z</time></trkpt><trkpt lat="39.6699262" lon="20.8626817"><ele>475.00000000000006</ele><time>2026-04-26T14:51:55.235Z</time></trkpt><trkpt lat="39.6698984" lon="20.8625927"><ele>475.0</ele><time>2026-04-26T14:51:56.234Z</time></trkpt><trkpt lat="39.6698735" lon="20.8624994"><ele>475.0</ele><time>2026-04-26T14:51:57.235Z</time></trkpt><trkpt lat="39.6698422" lon="20.8624155"><ele>475.7142857142857</ele><time>2026-04-26T14:51:58.235Z</time></trkpt><trkpt lat="39.6698123" lon="20.8623297"><ele>476.42857142857144</ele><time>2026-04-26T14:51:59.234Z</time></trkpt><trkpt lat="39.6697765" lon="20.8622517"><ele>477.14285714285717</ele><time>2026-04-26T14:52:00.235Z</time></trkpt><trkpt lat="39.6697494" lon="20.8621637"><ele>477.8571428571429</ele><time>2026-04-26T14:52:01.234Z</time></trkpt><trkpt lat="39.6697224" lon="20.8620841"><ele>478.57142857142856</ele><time>2026-04-26T14:52:02.234Z</time></trkpt><trkpt lat="39.6696973" lon="20.862005"><ele>479.28571428571433</ele><time>2026-04-26T14:52:03.235Z</time></trkpt><trkpt lat="39.6696692" lon="20.861929"><ele>480.0</ele><time>2026-04-26T14:52:04.235Z</time></trkpt><trkpt lat="39.6696418" lon="20.8618545"><ele>479.4</ele><time>2026-04-26T14:52:05.234Z</time></trkpt><trkpt lat="39.6695914" lon="20.8617035"><ele>478.8</ele><time>2026-04-26T14:52:07.234Z</time></trkpt><trkpt lat="39.6695676" lon="20.8616268"><ele>478.20000000000005</ele><time>2026-04-26T14:52:08.234Z</time></trkpt><trkpt lat="39.6695415" lon="20.8615519"><ele>477.6</ele><time>2026-04-26T14:52:09.235Z</time></trkpt><trkpt lat="39.6694964" lon="20.8614"><ele>477.0</ele><time>2026-04-26T14:52:11.235Z</time></trkpt><trkpt lat="39.6694509" lon="20.8612522"><ele>476.20000000000005</ele><time>2026-04-26T14:52:13.234Z</time></trkpt><trkpt lat="39.6694094" lon="20.8611115"><ele>475.40000000000003</ele><time>2026-04-26T14:52:15.235Z</time></trkpt><trkpt lat="39.669365" lon="20.86099"><ele>474.59999999999997</ele><time>2026-04-26T14:52:17.234Z</time></trkpt><trkpt lat="39.6693268" lon="20.8608652"><ele>473.79999999999995</ele><time>2026-04-26T14:52:19.234Z</time></trkpt><trkpt lat="39.6692824" lon="20.8607443"><ele>473.0</ele><time>2026-04-26T14:52:21.234Z</time></trkpt><trkpt lat="39.6692435" lon="20.8606126"><ele>472.99999999999994</ele><time>2026-04-26T14:52:23.234Z</time></trkpt><trkpt lat="39.6692155" lon="20.8605022"><ele>473.0</ele><time>2026-04-26T14:52:25.235Z</time></trkpt><trkpt lat="39.6691865" lon="20.8604209"><ele>473.0</ele><time>2026-04-26T14:52:27.235Z</time></trkpt><trkpt lat="39.6692382" lon="20.8603326"><ele>473.0</ele><time>2026-04-26T14:52:30.235Z</time></trkpt><trkpt lat="39.6693061" lon="20.8602934"><ele>472.99999999999994</ele><time>2026-04-26T14:52:32.234Z</time></trkpt><trkpt lat="39.6693772" lon="20.860237"><ele>473.0</ele><time>2026-04-26T14:52:34.234Z</time></trkpt><trkpt lat="39.6694428" lon="20.8601861"><ele>473.49999999999994</ele><time>2026-04-26T14:52:36.234Z</time></trkpt><trkpt lat="39.6695116" lon="20.860182"><ele>474.0</ele><time>2026-04-26T14:52:39.235Z</time></trkpt><trkpt lat="39.6695498" lon="20.8602613"><ele>474.5</ele><time>2026-04-26T14:52:41.235Z</time></trkpt><trkpt lat="39.669598" lon="20.8603666"><ele>475.0</ele><time>2026-04-26T14:52:43.235Z</time></trkpt><trkpt lat="39.669672" lon="20.8605007"><ele>475.49999999999994</ele><time>2026-04-26T14:52:45.235Z</time></trkpt><trkpt lat="39.6697128" lon="20.8605678"><ele>476.0</ele><time>2026-04-26T14:52:46.235Z</time></trkpt><trkpt lat="39.6697796" lon="20.8606838"><ele>475.99999999999994</ele><time>2026-04-26T14:52:48.234Z</time></trkpt><trkpt lat="39.6698496" lon="20.8607461"><ele>476.0</ele><time>2026-04-26T14:52:50.235Z</time></trkpt><trkpt lat="39.6699351" lon="20.8607296"><ele>476.0</ele><time>2026-04-26T14:52:52.234Z</time></trkpt><trkpt lat="39.6700229" lon="20.8606776"><ele>476.0</ele><time>2026-04-26T14:52:54.235Z</time></trkpt><trkpt lat="39.6700946" lon="20.8606019"><ele>475.99999999999994</ele><time>2026-04-26T14:52:56.235Z</time></trkpt><trkpt lat="39.670153" lon="20.860523"><ele>476.0</ele><time>2026-04-26T14:52:58.234Z</time></trkpt><trkpt lat="39.6702243" lon="20.860449"><ele>476.16666666666663</ele><time>2026-04-26T14:53:01.234Z</time></trkpt><trkpt lat="39.6703219" lon="20.860474"><ele>476.3333333333333</ele><time>2026-04-26T14:53:04.235Z</time></trkpt><trkpt lat="39.6703804" lon="20.8605106"><ele>476.5</ele><time>2026-04-26T14:53:06.234Z</time></trkpt><trkpt lat="39.6704449" lon="20.8605653"><ele>476.66666666666663</ele><time>2026-04-26T14:53:09.235Z</time></trkpt><trkpt lat="39.6704826" lon="20.8606436"><ele>476.8333333333333</ele><time>2026-04-26T14:53:11.235Z</time></trkpt><trkpt lat="39.6705269" lon="20.8607156"><ele>477.0</ele><time>2026-04-26T14:53:13.234Z</time></trkpt><trkpt lat="39.6706191" lon="20.8607507"><ele>477.0</ele><time>2026-04-26T14:53:16.235Z</time></trkpt><trkpt lat="39.6707052" lon="20.8607536"><ele>477.0</ele><time>2026-04-26T14:53:18.234Z</time></trkpt><trkpt lat="39.6707908" lon="20.8607521"><ele>477.0</ele><time>2026-04-26T14:53:20.235Z</time></trkpt><trkpt lat="39.6708642" lon="20.8607567"><ele>477.0</ele><time>2026-04-26T14:53:22.234Z</time></trkpt><trkpt lat="39.670935" lon="20.8607573"><ele>477.0</ele><time>2026-04-26T14:53:24.235Z</time></trkpt><trkpt lat="39.670994" lon="20.860712"><ele>477.0</ele><time>2026-04-26T14:53:26.235Z</time></trkpt><trkpt lat="39.6710451" lon="20.8606385"><ele>477.0</ele><time>2026-04-26T14:53:28.235Z</time></trkpt><trkpt lat="39.6710991" lon="20.8605785"><ele>477.0</ele><time>2026-04-26T14:53:30.234Z</time></trkpt><trkpt lat="39.6711656" lon="20.8605605"><ele>477.0</ele><time>2026-04-26T14:53:34.235Z</time></trkpt><trkpt lat="39.6712119" lon="20.8606779"><ele>477.0</ele><time>2026-04-26T14:53:37.235Z</time></trkpt><trkpt lat="39.6712622" lon="20.8607748"><ele>477.0</ele><time>2026-04-26T14:53:39.234Z</time></trkpt><trkpt lat="39.6712975" lon="20.8608598"><ele>477.0</ele><time>2026-04-26T14:53:41.235Z</time></trkpt><trkpt lat="39.6713589" lon="20.8608944"><ele>476.5</ele><time>2026-04-26T14:53:44.234Z</time></trkpt><trkpt lat="39.6714287" lon="20.8608566"><ele>476.0</ele><time>2026-04-26T14:53:46.234Z</time></trkpt><trkpt lat="39.6714957" lon="20.8608007"><ele>475.5</ele><time>2026-04-26T14:53:48.234Z</time></trkpt><trkpt lat="39.6715687" lon="20.860748"><ele>475.0</ele><time>2026-04-26T14:53:51.235Z</time></trkpt><trkpt lat="39.6716247" lon="20.860838"><ele>474.5</ele><time>2026-04-26T14:53:55.234Z</time></trkpt><trkpt lat="39.6716613" lon="20.8609405"><ele>474.0</ele><time>2026-04-26T14:53:57.234Z</time></trkpt><trkpt lat="39.6717032" lon="20.8610572"><ele>481.0</ele><time>2026-04-26T14:53:59.234Z</time></trkpt><trkpt lat="39.6717325" lon="20.861131"><ele>481.0</ele><time>2026-04-26T14:54:01.234Z</time></trkpt><trkpt lat="39.6717563" lon="20.8612258"><ele>481.0</ele><time>2026-04-26T14:54:15.235Z</time></trkpt><trkpt lat="39.6718168" lon="20.8612909"><ele>481.0</ele><time>2026-04-26T14:54:18.234Z</time></trkpt></trkseg><trkseg><trkpt lat="39.671823" lon="20.8613019"><ele>480.99999999999994</ele><time>2026-04-27T06:34:53.201Z</time></trkpt><trkpt lat="39.6717758" lon="20.861217"><ele>481.0</ele><time>2026-04-27T06:35:07.202Z</time></trkpt><trkpt lat="39.6717557" lon="20.8611172"><ele>480.99999999999994</ele><time>2026-04-27T06:35:10.202Z</time></trkpt><trkpt lat="39.6717302" lon="20.8610319"><ele>480.99999999999994</ele><time>2026-04-27T06:35:13.202Z</time></trkpt><trkpt lat="39.6716926" lon="20.860944"><ele>481.0</ele><time>2026-04-27T06:35:17.202Z</time></trkpt><trkpt lat="39.6716555" lon="20.8608668"><ele>480.99999999999994</ele><time>2026-04-27T06:35:22.202Z</time></trkpt><trkpt lat="39.6716169" lon="20.8607892"><ele>480.99999999999994</ele><time>2026-04-27T06:35:25.202Z</time></trkpt><trkpt lat="39.6715863" lon="20.8607076"><ele>479.83333333333337</ele><time>2026-04-27T06:35:27.202Z</time></trkpt><trkpt lat="39.671561" lon="20.8606185"><ele>478.6666666666667</ele><time>2026-04-27T06:35:29.202Z</time></trkpt><trkpt lat="39.6715332" lon="20.8605323"><ele>477.5</ele><time>2026-04-27T06:35:31.201Z</time></trkpt><trkpt lat="39.6715144" lon="20.8604523"><ele>476.33333333333337</ele><time>2026-04-27T06:35:33.201Z</time></trkpt><trkpt lat="39.6715159" lon="20.8603311"><ele>475.1666666666667</ele><time>2026-04-27T06:35:36.202Z</time></trkpt><trkpt lat="39.6715151" lon="20.8602251"><ele>474.0</ele><time>2026-04-27T06:35:39.202Z</time></trkpt><trkpt lat="39.6715119" lon="20.8601337"><ele>474.0</ele><time>2026-04-27T06:35:43.201Z</time></trkpt><trkpt lat="39.6714484" lon="20.8600848"><ele>474.0</ele><time>2026-04-27T06:35:58.201Z</time></trkpt><trkpt lat="39.671384" lon="20.8600424"><ele>474.0</ele><time>2026-04-27T06:36:00.202Z</time></trkpt><trkpt lat="39.6712875" lon="20.8600054"><ele>474.0</ele><time>2026-04-27T06:36:02.202Z</time></trkpt><trkpt lat="39.6712096" lon="20.8599369"><ele>474.0</ele><time>2026-04-27T06:36:04.202Z</time></trkpt><trkpt lat="39.6711555" lon="20.8598405"><ele>474.0</ele><time>2026-04-27T06:36:06.202Z</time></trkpt><trkpt lat="39.6711055" lon="20.8597677"><ele>474.0</ele><time>2026-04-27T06:36:08.201Z</time></trkpt><trkpt lat="39.6710388" lon="20.8596754"><ele>474.0</ele><time>2026-04-27T06:36:11.202Z</time></trkpt><trkpt lat="39.6709956" lon="20.8596041"><ele>474.0</ele><time>2026-04-27T06:36:13.201Z</time></trkpt><trkpt lat="39.6709349" lon="20.859524"><ele>474.0</ele><time>2026-04-27T06:36:15.202Z</time></trkpt><trkpt lat="39.6708713" lon="20.8594445"><ele>474.0</ele><time>2026-04-27T06:36:17.202Z</time></trkpt><trkpt lat="39.6708062" lon="20.8593646"><ele>474.0</ele><time>2026-04-27T06:36:19.201Z</time></trkpt><trkpt lat="39.6707423" lon="20.8592663"><ele>474.3333333333333</ele><time>2026-04-27T06:36:21.201Z</time></trkpt><trkpt lat="39.6707023" lon="20.8591476"><ele>474.66666666666663</ele><time>2026-04-27T06:36:23.201Z</time></trkpt><trkpt lat="39.6706597" lon="20.8590544"><ele>475.0</ele><time>2026-04-27T06:36:25.202Z</time></trkpt><trkpt lat="39.670621" lon="20.8589613"><ele>475.3333333333333</ele><time>2026-04-27T06:36:27.202Z</time></trkpt><trkpt lat="39.6705749" lon="20.858873"><ele>475.66666666666663</ele><time>2026-04-27T06:36:29.202Z</time></trkpt><trkpt lat="39.6705199" lon="20.8587792"><ele>476.0</ele><time>2026-04-27T06:36:31.201Z</time></trkpt><trkpt lat="39.670483" lon="20.858684"><ele>475.99999999999994</ele><time>2026-04-27T06:36:33.202Z</time></trkpt><trkpt lat="39.6704311" lon="20.8586033"><ele>476.0</ele><time>2026-04-27T06:36:35.202Z</time></trkpt><trkpt lat="39.6703791" lon="20.8585321"><ele>476.0</ele><time>2026-04-27T06:36:38.202Z</time></trkpt><trkpt lat="39.6703103" lon="20.8585549"><ele>476.0</ele><time>2026-04-27T06:36:40.202Z</time></trkpt><trkpt lat="39.6702663" lon="20.8586221"><ele>475.99999999999994</ele><time>2026-04-27T06:36:42.202Z</time></trkpt><trkpt lat="39.6702565" lon="20.8587306"><ele>476.0</ele><time>2026-04-27T06:36:44.201Z</time></trkpt><trkpt lat="39.6702539" lon="20.8588428"><ele>475.99999999999994</ele><time>2026-04-27T06:36:46.202Z</time></trkpt><trkpt lat="39.6702415" lon="20.8589366"><ele>476.0</ele><time>2026-04-27T06:36:48.202Z</time></trkpt><trkpt lat="39.6701818" lon="20.8590027"><ele>476.0</ele><time>2026-04-27T06:36:51.202Z</time></trkpt><trkpt lat="39.6701091" lon="20.8590148"><ele>476.0</ele><time>2026-04-27T06:36:53.202Z</time></trkpt><trkpt lat="39.6700108" lon="20.8590903"><ele>475.99999999999994</ele><time>2026-04-27T06:36:55.201Z</time></trkpt><trkpt lat="39.669925" lon="20.8591715"><ele>476.0</ele><time>2026-04-27T06:36:57.202Z</time></trkpt><trkpt lat="39.6698606" lon="20.8592298"><ele>476.0</ele><time>2026-04-27T06:36:59.202Z</time></trkpt><trkpt lat="39.6698038" lon="20.8593012"><ele>476.0</ele><time>2026-04-27T06:37:01.202Z</time></trkpt><trkpt lat="39.6697519" lon="20.8594164"><ele>476.0</ele><time>2026-04-27T06:37:03.201Z</time></trkpt><trkpt lat="39.6696874" lon="20.859522"><ele>476.0</ele><time>2026-04-27T06:37:05.202Z</time></trkpt><trkpt lat="39.669589" lon="20.8596002"><ele>476.0</ele><time>2026-04-27T06:37:07.201Z</time></trkpt><trkpt lat="39.6694928" lon="20.8596688"><ele>475.49999999999994</ele><time>2026-04-27T06:37:09.202Z</time></trkpt><trkpt lat="39.6694278" lon="20.8597075"><ele>475.0</ele><time>2026-04-27T06:37:11.201Z</time></trkpt><trkpt lat="39.6693683" lon="20.8597775"><ele>474.5</ele><time>2026-04-27T06:37:14.202Z</time></trkpt><trkpt lat="39.6693875" lon="20.8598902"><ele>474.0</ele><time>2026-04-27T06:37:16.201Z</time></trkpt><trkpt lat="39.6694319" lon="20.8599937"><ele>473.49999999999994</ele><time>2026-04-27T06:37:18.201Z</time></trkpt><trkpt lat="39.6694338" lon="20.8601046"><ele>473.0</ele><time>2026-04-27T06:37:21.201Z</time></trkpt><trkpt lat="39.6693568" lon="20.8601831"><ele>472.99999999999994</ele><time>2026-04-27T06:37:24.201Z</time></trkpt><trkpt lat="39.6692829" lon="20.8602418"><ele>473.0</ele><time>2026-04-27T06:37:26.202Z</time></trkpt><trkpt lat="39.6692155" lon="20.8602853"><ele>473.0</ele><time>2026-04-27T06:37:28.202Z</time></trkpt><trkpt lat="39.6691361" lon="20.8602972"><ele>473.0</ele><time>2026-04-27T06:37:30.201Z</time></trkpt><trkpt lat="39.669076" lon="20.8602631"><ele>472.99999999999994</ele><time>2026-04-27T06:37:32.202Z</time></trkpt><trkpt lat="39.6690462" lon="20.8601534"><ele>473.0</ele><time>2026-04-27T06:37:34.201Z</time></trkpt><trkpt lat="39.6690156" lon="20.8600151"><ele>473.0</ele><time>2026-04-27T06:37:36.202Z</time></trkpt><trkpt lat="39.6689655" lon="20.8598871"><ele>472.99999999999994</ele><time>2026-04-27T06:37:38.202Z</time></trkpt><trkpt lat="39.6689169" lon="20.8597734"><ele>472.99999999999994</ele><time>2026-04-27T06:37:40.201Z</time></trkpt><trkpt lat="39.668854" lon="20.8596566"><ele>473.0</ele><time>2026-04-27T06:37:42.202Z</time></trkpt><trkpt lat="39.6687803" lon="20.8595699"><ele>473.0</ele><time>2026-04-27T06:37:44.202Z</time></trkpt><trkpt lat="39.6687011" lon="20.8595001"><ele>473.0</ele><time>2026-04-27T06:37:46.201Z</time></trkpt><trkpt lat="39.6686181" lon="20.8594387"><ele>472.99999999999994</ele><time>2026-04-27T06:37:48.201Z</time></trkpt><trkpt lat="39.6685225" lon="20.8593794"><ele>472.99999999999994</ele><time>2026-04-27T06:37:50.201Z</time></trkpt><trkpt lat="39.6684246" lon="20.8593421"><ele>473.0</ele><time>2026-04-27T06:37:52.202Z</time></trkpt><trkpt lat="39.6683317" lon="20.859322"><ele>473.0</ele><time>2026-04-27T06:37:54.201Z</time></trkpt><trkpt lat="39.6682674" lon="20.8593107"><ele>472.8571428571429</ele><time>2026-04-27T06:37:57.201Z</time></trkpt><trkpt lat="39.6681975" lon="20.8592883"><ele>472.71428571428567</ele><time>2026-04-27T06:38:49.202Z</time></trkpt><trkpt lat="39.6681318" lon="20.8592869"><ele>472.57142857142856</ele><time>2026-04-27T06:38:52.202Z</time></trkpt><trkpt lat="39.6680636" lon="20.8592703"><ele>472.42857142857144</ele><time>2026-04-27T06:38:57.202Z</time></trkpt><trkpt lat="39.6679977" lon="20.8592602"><ele>472.28571428571433</ele><time>2026-04-27T06:39:00.201Z</time></trkpt><trkpt lat="39.6679328" lon="20.8592256"><ele>472.1428571428571</ele><time>2026-04-27T06:39:02.201Z</time></trkpt><trkpt lat="39.667874" lon="20.8591776"><ele>472.0</ele><time>2026-04-27T06:39:04.201Z</time></trkpt><trkpt lat="39.6678083" lon="20.8590917"><ele>471.83333333333337</ele><time>2026-04-27T06:39:07.202Z</time></trkpt><trkpt lat="39.667742" lon="20.8590075"><ele>471.6666666666667</ele><time>2026-04-27T06:39:10.202Z</time></trkpt><trkpt lat="39.6676851" lon="20.8589438"><ele>471.5</ele><time>2026-04-27T06:39:12.202Z</time></trkpt><trkpt lat="39.6676376" lon="20.8588894"><ele>471.33333333333337</ele><time>2026-04-27T06:39:14.201Z</time></trkpt><trkpt lat="39.6675616" lon="20.8588237"><ele>471.1666666666667</ele><time>2026-04-27T06:39:17.201Z</time></trkpt><trkpt lat="39.667482" lon="20.8587777"><ele>471.0</ele><time>2026-04-27T06:39:19.201Z</time></trkpt><trkpt lat="39.6674179" lon="20.858747"><ele>471.0</ele><time>2026-04-27T06:39:21.201Z</time></trkpt><trkpt lat="39.6673216" lon="20.8587244"><ele>471.0</ele><time>2026-04-27T06:39:24.202Z</time></trkpt><trkpt lat="39.6672491" lon="20.8587196"><ele>471.0</ele><time>2026-04-27T06:39:26.202Z</time></trkpt><trkpt lat="39.6671749" lon="20.8587129"><ele>471.0</ele><time>2026-04-27T06:39:28.201Z</time></trkpt><trkpt lat="39.6670927" lon="20.858706"><ele>471.0</ele><time>2026-04-27T06:39:30.201Z</time></trkpt><trkpt lat="39.6670095" lon="20.8587001"><ele>471.0</ele><time>2026-04-27T06:39:32.202Z</time></trkpt><trkpt lat="39.6669104" lon="20.8586898"><ele>471.4</ele><time>2026-04-27T06:39:34.201Z</time></trkpt><trkpt lat="39.666804" lon="20.8586836"><ele>471.8</ele><time>2026-04-27T06:39:36.202Z</time></trkpt><trkpt lat="39.6666987" lon="20.858679"><ele>472.19999999999993</ele><time>2026-04-27T06:39:38.201Z</time></trkpt><trkpt lat="39.6665904" lon="20.8586802"><ele>472.59999999999997</ele><time>2026-04-27T06:39:40.202Z</time></trkpt><trkpt lat="39.6664863" lon="20.8586702"><ele>473.0</ele><time>2026-04-27T06:39:42.202Z</time></trkpt><trkpt lat="39.6663778" lon="20.8586713"><ele>473.0</ele><time>2026-04-27T06:39:44.201Z</time></trkpt><trkpt lat="39.6662666" lon="20.8586698"><ele>473.0</ele><time>2026-04-27T06:39:46.202Z</time></trkpt><trkpt lat="39.6661518" lon="20.8586571"><ele>473.0</ele><time>2026-04-27T06:39:48.202Z</time></trkpt><trkpt lat="39.6660324" lon="20.8586599"><ele>473.0</ele><time>2026-04-27T06:39:50.202Z</time></trkpt><trkpt lat="39.6659177" lon="20.8586567"><ele>472.79999999999995</ele><time>2026-04-27T06:39:52.201Z</time></trkpt><trkpt lat="39.6658067" lon="20.8586588"><ele>472.59999999999997</ele><time>2026-04-27T06:39:54.201Z</time></trkpt><trkpt lat="39.6656991" lon="20.8586604"><ele>472.40000000000003</ele><time>2026-04-27T06:39:56.201Z</time></trkpt><trkpt lat="39.6656026" lon="20.8586429"><ele>472.20000000000005</ele><time>2026-04-27T06:39:58.201Z</time></trkpt><trkpt lat="39.6654704" lon="20.8586433"><ele>472.0</ele><time>2026-04-27T06:40:00.202Z</time></trkpt><trkpt lat="39.6653915" lon="20.8586572"><ele>472.0</ele><time>2026-04-27T06:40:01.202Z</time></trkpt><trkpt lat="39.6652956" lon="20.8586624"><ele>472.00000000000006</ele><time>2026-04-27T06:40:02.202Z</time></trkpt><trkpt lat="39.6652002" lon="20.8586637"><ele>472.00000000000006</ele><time>2026-04-27T06:40:03.202Z</time></trkpt><trkpt lat="39.6650945" lon="20.8586627"><ele>472.0</ele><time>2026-04-27T06:40:04.202Z</time></trkpt><trkpt lat="39.6649872" lon="20.8586636"><ele>472.0</ele><time>2026-04-27T06:40:05.202Z</time></trkpt><trkpt lat="39.6648795" lon="20.8586638"><ele>471.8</ele><time>2026-04-27T06:40:06.202Z</time></trkpt><trkpt lat="39.6647724" lon="20.8586635"><ele>471.6</ele><time>2026-04-27T06:40:07.202Z</time></trkpt><trkpt lat="39.6646689" lon="20.8586618"><ele>471.40000000000003</ele><time>2026-04-27T06:40:08.202Z</time></trkpt><trkpt lat="39.6645713" lon="20.8586579"><ele>471.20000000000005</ele><time>2026-04-27T06:40:09.202Z</time></trkpt><trkpt lat="39.6644815" lon="20.8586542"><ele>471.0</ele><time>2026-04-27T06:40:10.202Z</time></trkpt><trkpt lat="39.6643965" lon="20.8586435"><ele>471.0</ele><time>2026-04-27T06:40:11.201Z</time></trkpt><trkpt lat="39.6643135" lon="20.8586416"><ele>471.0</ele><time>2026-04-27T06:40:12.201Z</time></trkpt><trkpt lat="39.6642289" lon="20.8586413"><ele>471.0</ele><time>2026-04-27T06:40:13.201Z</time></trkpt><trkpt lat="39.6641465" lon="20.8586425"><ele>471.0</ele><time>2026-04-27T06:40:14.202Z</time></trkpt><trkpt lat="39.6640659" lon="20.8586395"><ele>471.0</ele><time>2026-04-27T06:40:15.202Z</time></trkpt><trkpt lat="39.6639869" lon="20.8586342"><ele>471.0</ele><time>2026-04-27T06:40:16.202Z</time></trkpt><trkpt lat="39.6639091" lon="20.8586315"><ele>471.00000000000006</ele><time>2026-04-27T06:40:17.201Z</time></trkpt><trkpt lat="39.6638313" lon="20.8586321"><ele>471.0</ele><time>2026-04-27T06:40:18.202Z</time></trkpt><trkpt lat="39.6637551" lon="20.8586317"><ele>471.00000000000006</ele><time>2026-04-27T06:40:19.202Z</time></trkpt><trkpt lat="39.6636819" lon="20.8586309"><ele>471.00000000000006</ele><time>2026-04-27T06:40:20.201Z</time></trkpt><trkpt lat="39.6636122" lon="20.8586275"><ele>471.0</ele><time>2026-04-27T06:40:21.201Z</time></trkpt><trkpt lat="39.6635437" lon="20.8586255"><ele>471.00000000000006</ele><time>2026-04-27T06:40:22.202Z</time></trkpt><trkpt lat="39.6634777" lon="20.8586219"><ele>471.00000000000006</ele><time>2026-04-27T06:40:23.202Z</time></trkpt><trkpt lat="39.6634129" lon="20.8586177"><ele>471.20000000000005</ele><time>2026-04-27T06:40:24.201Z</time></trkpt><trkpt lat="39.66335" lon="20.8586132"><ele>471.40000000000003</ele><time>2026-04-27T06:40:25.201Z</time></trkpt><trkpt lat="39.6632843" lon="20.8586144"><ele>471.6</ele><time>2026-04-27T06:40:26.201Z</time></trkpt><trkpt lat="39.6631588" lon="20.8586137"><ele>471.8</ele><time>2026-04-27T06:40:28.202Z</time></trkpt><trkpt lat="39.6630391" lon="20.8586124"><ele>472.0</ele><time>2026-04-27T06:40:30.201Z</time></trkpt><trkpt lat="39.6629135" lon="20.8586082"><ele>472.0</ele><time>2026-04-27T06:40:32.202Z</time></trkpt><trkpt lat="39.6628504" lon="20.858605"><ele>472.00000000000006</ele><time>2026-04-27T06:40:33.202Z</time></trkpt><trkpt lat="39.6627295" lon="20.8586027"><ele>472.00000000000006</ele><time>2026-04-27T06:40:35.202Z</time></trkpt><trkpt lat="39.662611" lon="20.8586039"><ele>472.0</ele><time>2026-04-27T06:40:37.202Z</time></trkpt><trkpt lat="39.6624904" lon="20.8585978"><ele>472.0</ele><time>2026-04-27T06:40:39.202Z</time></trkpt><trkpt lat="39.6623647" lon="20.8585956"><ele>472.00000000000006</ele><time>2026-04-27T06:40:41.201Z</time></trkpt><trkpt lat="39.6622983" lon="20.8585934"><ele>472.0</ele><time>2026-04-27T06:40:42.202Z</time></trkpt><trkpt lat="39.6621758" lon="20.858591"><ele>472.0</ele><time>2026-04-27T06:40:44.201Z</time></trkpt><trkpt lat="39.6621117" lon="20.8585853"><ele>472.0</ele><time>2026-04-27T06:40:45.201Z</time></trkpt><trkpt lat="39.6620045" lon="20.8585907"><ele>472.00000000000006</ele><time>2026-04-27T06:40:47.202Z</time></trkpt><trkpt lat="39.6619369" lon="20.8585861"><ele>472.0</ele><time>2026-04-27T06:40:48.201Z</time></trkpt><trkpt lat="39.6618718" lon="20.858587"><ele>471.50000000000006</ele><time>2026-04-27T06:40:49.202Z</time></trkpt><trkpt lat="39.6618088" lon="20.8585859"><ele>471.0</ele><time>2026-04-27T06:40:50.201Z</time></trkpt><trkpt lat="39.6617452" lon="20.858589"><ele>470.5</ele><time>2026-04-27T06:40:51.201Z</time></trkpt><trkpt lat="39.661682" lon="20.8585892"><ele>470.0</ele><time>2026-04-27T06:40:52.201Z</time></trkpt><trkpt lat="39.6615715" lon="20.8585886"><ele>469.50000000000006</ele><time>2026-04-27T06:40:54.201Z</time></trkpt><trkpt lat="39.6614757" lon="20.8585858"><ele>469.0</ele><time>2026-04-27T06:40:56.201Z</time></trkpt><trkpt lat="39.6613734" lon="20.8585906"><ele>469.0</ele><time>2026-04-27T06:40:58.201Z</time></trkpt><trkpt lat="39.6612677" lon="20.8585874"><ele>469.0</ele><time>2026-04-27T06:41:00.202Z</time></trkpt><trkpt lat="39.6611976" lon="20.8585927"><ele>469.0</ele><time>2026-04-27T06:41:02.202Z</time></trkpt><trkpt lat="39.6611317" lon="20.8586383"><ele>469.0</ele><time>2026-04-27T06:41:05.201Z</time></trkpt><trkpt lat="39.6610375" lon="20.858775"><ele>469.0</ele><time>2026-04-27T06:41:07.202Z</time></trkpt><trkpt lat="39.660958" lon="20.8588592"><ele>469.25</ele><time>2026-04-27T06:41:08.201Z</time></trkpt><trkpt lat="39.6608738" lon="20.8589355"><ele>469.5</ele><time>2026-04-27T06:41:09.202Z</time></trkpt><trkpt lat="39.6607696" lon="20.8590204"><ele>469.75</ele><time>2026-04-27T06:41:10.202Z</time></trkpt><trkpt lat="39.6606582" lon="20.8591136"><ele>470.0</ele><time>2026-04-27T06:41:11.201Z</time></trkpt><trkpt lat="39.6605515" lon="20.8592022"><ele>470.25</ele><time>2026-04-27T06:41:12.202Z</time></trkpt><trkpt lat="39.660437" lon="20.8592948"><ele>470.5</ele><time>2026-04-27T06:41:13.201Z</time></trkpt><trkpt lat="39.6603245" lon="20.8593888"><ele>470.75</ele><time>2026-04-27T06:41:14.201Z</time></trkpt><trkpt lat="39.6602108" lon="20.8594825"><ele>471.0</ele><time>2026-04-27T06:41:15.201Z</time></trkpt><trkpt lat="39.6600987" lon="20.8595767"><ele>471.0</ele><time>2026-04-27T06:41:16.202Z</time></trkpt><trkpt lat="39.6599845" lon="20.8596746"><ele>471.0</ele><time>2026-04-27T06:41:17.201Z</time></trkpt><trkpt lat="39.6598669" lon="20.8597682"><ele>471.0</ele><time>2026-04-27T06:41:18.202Z</time></trkpt><trkpt lat="39.6597488" lon="20.8598647"><ele>471.0</ele><time>2026-04-27T06:41:19.202Z</time></trkpt><trkpt lat="39.6596302" lon="20.8599649"><ele>471.0</ele><time>2026-04-27T06:41:20.201Z</time></trkpt><trkpt lat="39.6595096" lon="20.8600683"><ele>471.0</ele><time>2026-04-27T06:41:21.201Z</time></trkpt><trkpt lat="39.6593909" lon="20.8601669"><ele>471.0</ele><time>2026-04-27T06:41:22.202Z</time></trkpt><trkpt lat="39.6592725" lon="20.8602652"><ele>471.0</ele><time>2026-04-27T06:41:23.202Z</time></trkpt><trkpt lat="39.6591511" lon="20.8603667"><ele>470.75</ele><time>2026-04-27T06:41:24.201Z</time></trkpt><trkpt lat="39.6590282" lon="20.8604698"><ele>470.5</ele><time>2026-04-27T06:41:25.202Z</time></trkpt><trkpt lat="39.658904" lon="20.860573"><ele>470.25</ele><time>2026-04-27T06:41:26.202Z</time></trkpt><trkpt lat="39.6587768" lon="20.8606778"><ele>470.0</ele><time>2026-04-27T06:41:27.202Z</time></trkpt><trkpt lat="39.658651" lon="20.8607833"><ele>470.3333333333333</ele><time>2026-04-27T06:41:28.202Z</time></trkpt><trkpt lat="39.6585234" lon="20.860884"><ele>470.66666666666663</ele><time>2026-04-27T06:41:29.201Z</time></trkpt><trkpt lat="39.6583951" lon="20.8609803"><ele>471.0</ele><time>2026-04-27T06:41:30.201Z</time></trkpt><trkpt lat="39.6582588" lon="20.8610747"><ele>471.0</ele><time>2026-04-27T06:41:31.201Z</time></trkpt><trkpt lat="39.6581149" lon="20.8611702"><ele>471.0</ele><time>2026-04-27T06:41:32.201Z</time></trkpt><trkpt lat="39.6579664" lon="20.8612657"><ele>471.0</ele><time>2026-04-27T06:41:33.202Z</time></trkpt><trkpt lat="39.6578176" lon="20.8613608"><ele>471.0</ele><time>2026-04-27T06:41:34.202Z</time></trkpt><trkpt lat="39.6576727" lon="20.8614534"><ele>471.0</ele><time>2026-04-27T06:41:35.202Z</time></trkpt><trkpt lat="39.6575307" lon="20.8615427"><ele>471.0</ele><time>2026-04-27T06:41:36.202Z</time></trkpt><trkpt lat="39.6573914" lon="20.8616296"><ele>471.0</ele><time>2026-04-27T06:41:37.201Z</time></trkpt><trkpt lat="39.6572615" lon="20.8617114"><ele>471.0</ele><time>2026-04-27T06:41:38.201Z</time></trkpt><trkpt lat="39.6571387" lon="20.861788"><ele>471.0</ele><time>2026-04-27T06:41:39.202Z</time></trkpt><trkpt lat="39.657022" lon="20.8618608"><ele>471.0</ele><time>2026-04-27T06:41:40.202Z</time></trkpt><trkpt lat="39.6569132" lon="20.861928"><ele>470.75</ele><time>2026-04-27T06:41:41.202Z</time></trkpt><trkpt lat="39.656809" lon="20.8619937"><ele>470.5</ele><time>2026-04-27T06:41:42.202Z</time></trkpt><trkpt lat="39.656706" lon="20.8620611"><ele>470.25</ele><time>2026-04-27T06:41:43.202Z</time></trkpt><trkpt lat="39.6565809" lon="20.8621422"><ele>470.0</ele><time>2026-04-27T06:41:44.202Z</time></trkpt><trkpt lat="39.6564306" lon="20.8622436"><ele>470.0</ele><time>2026-04-27T06:41:45.202Z</time></trkpt><trkpt lat="39.6562585" lon="20.8623514"><ele>470.0</ele><time>2026-04-27T06:41:46.201Z</time></trkpt><trkpt lat="39.6560923" lon="20.8624497"><ele>470.0</ele><time>2026-04-27T06:41:47.201Z</time></trkpt><trkpt lat="39.655935" lon="20.8625481"><ele>469.0</ele><time>2026-04-27T06:41:48.202Z</time></trkpt><trkpt lat="39.6557765" lon="20.8626405"><ele>468.0</ele><time>2026-04-27T06:41:49.201Z</time></trkpt><trkpt lat="39.6556267" lon="20.862727"><ele>467.0</ele><time>2026-04-27T06:41:50.201Z</time></trkpt><trkpt lat="39.655489" lon="20.862812"><ele>467.0</ele><time>2026-04-27T06:41:51.201Z</time></trkpt><trkpt lat="39.6553591" lon="20.8628931"><ele>467.0</ele><time>2026-04-27T06:41:52.202Z</time></trkpt><trkpt lat="39.6552288" lon="20.8629724"><ele>467.0</ele><time>2026-04-27T06:41:53.201Z</time></trkpt><trkpt lat="39.6551078" lon="20.8630455"><ele>467.0</ele><time>2026-04-27T06:41:54.201Z</time></trkpt><trkpt lat="39.654994" lon="20.8631115"><ele>467.6</ele><time>2026-04-27T06:41:55.201Z</time></trkpt><trkpt lat="39.654892" lon="20.8631643"><ele>468.20000000000005</ele><time>2026-04-27T06:41:56.202Z</time></trkpt><trkpt lat="39.6548104" lon="20.8632083"><ele>468.8</ele><time>2026-04-27T06:41:57.201Z</time></trkpt><trkpt lat="39.6547227" lon="20.8632567"><ele>469.4</ele><time>2026-04-27T06:41:59.201Z</time></trkpt><trkpt lat="39.6546413" lon="20.8632864"><ele>470.0</ele><time>2026-04-27T06:42:01.201Z</time></trkpt><trkpt lat="39.6545017" lon="20.8633267"><ele>470.0</ele><time>2026-04-27T06:42:03.201Z</time></trkpt><trkpt lat="39.6544168" lon="20.8633768"><ele>470.0</ele><time>2026-04-27T06:42:04.201Z</time></trkpt><trkpt lat="39.6543147" lon="20.8634284"><ele>470.0</ele><time>2026-04-27T06:42:05.201Z</time></trkpt><trkpt lat="39.6541969" lon="20.8634751"><ele>470.0</ele><time>2026-04-27T06:42:06.201Z</time></trkpt><trkpt lat="39.6540743" lon="20.8635181"><ele>470.3333333333333</ele><time>2026-04-27T06:42:07.202Z</time></trkpt><trkpt lat="39.6539392" lon="20.8635671"><ele>470.66666666666663</ele><time>2026-04-27T06:42:08.201Z</time></trkpt><trkpt lat="39.6537848" lon="20.863624"><ele>471.0</ele><time>2026-04-27T06:42:09.201Z</time></trkpt><trkpt lat="39.6536172" lon="20.8636874"><ele>471.0</ele><time>2026-04-27T06:42:10.201Z</time></trkpt><trkpt lat="39.6534338" lon="20.8637535"><ele>471.0</ele><time>2026-04-27T06:42:11.202Z</time></trkpt><trkpt lat="39.6532428" lon="20.8638217"><ele>471.0</ele><time>2026-04-27T06:42:12.201Z</time></trkpt><trkpt lat="39.6530451" lon="20.863894"><ele>471.0</ele><time>2026-04-27T06:42:13.202Z</time></trkpt><trkpt lat="39.6528362" lon="20.8639741"><ele>471.0</ele><time>2026-04-27T06:42:14.201Z</time></trkpt><trkpt lat="39.6526247" lon="20.8640611"><ele>471.0</ele><time>2026-04-27T06:42:15.201Z</time></trkpt><trkpt lat="39.6524085" lon="20.8641479"><ele>471.0</ele><time>2026-04-27T06:42:16.201Z</time></trkpt><trkpt lat="39.6521852" lon="20.8642312"><ele>471.0</ele><time>2026-04-27T06:42:17.201Z</time></trkpt><trkpt lat="39.6519607" lon="20.8643133"><ele>470.5</ele><time>2026-04-27T06:42:18.202Z</time></trkpt><trkpt lat="39.6517377" lon="20.8643911"><ele>470.0</ele><time>2026-04-27T06:42:19.202Z</time></trkpt><trkpt lat="39.6515125" lon="20.8644699"><ele>470.0</ele><time>2026-04-27T06:42:20.201Z</time></trkpt><trkpt lat="39.6512862" lon="20.8645503"><ele>470.0</ele><time>2026-04-27T06:42:21.201Z</time></trkpt><trkpt lat="39.6510579" lon="20.8646299"><ele>469.5</ele><time>2026-04-27T06:42:22.201Z</time></trkpt><trkpt lat="39.65083" lon="20.8647104"><ele>469.0</ele><time>2026-04-27T06:42:23.201Z</time></trkpt><trkpt lat="39.6506055" lon="20.864791"><ele>469.0</ele><time>2026-04-27T06:42:24.201Z</time></trkpt><trkpt lat="39.6503833" lon="20.8648676"><ele>469.0</ele><time>2026-04-27T06:42:25.201Z</time></trkpt><trkpt lat="39.650164" lon="20.8649425"><ele>468.6666666666667</ele><time>2026-04-27T06:42:26.202Z</time></trkpt><trkpt lat="39.6499529" lon="20.865014"><ele>468.33333333333337</ele><time>2026-04-27T06:42:27.202Z</time></trkpt><trkpt lat="39.6497541" lon="20.8650804"><ele>468.0</ele><time>2026-04-27T06:42:28.201Z</time></trkpt><trkpt lat="39.6495603" lon="20.8651457"><ele>469.66666666666663</ele><time>2026-04-27T06:42:29.202Z</time></trkpt><trkpt lat="39.6493724" lon="20.8652084"><ele>471.3333333333333</ele><time>2026-04-27T06:42:30.201Z</time></trkpt><trkpt lat="39.6491953" lon="20.8652703"><ele>473.0</ele><time>2026-04-27T06:42:31.202Z</time></trkpt><trkpt lat="39.6490316" lon="20.865326"><ele>473.0</ele><time>2026-04-27T06:42:32.201Z</time></trkpt><trkpt lat="39.6488788" lon="20.8653789"><ele>473.0</ele><time>2026-04-27T06:42:33.201Z</time></trkpt><trkpt lat="39.6487374" lon="20.865427"><ele>473.0</ele><time>2026-04-27T06:42:34.201Z</time></trkpt><trkpt lat="39.6486176" lon="20.8654675"><ele>473.0</ele><time>2026-04-27T06:42:35.202Z</time></trkpt><trkpt lat="39.6485079" lon="20.8655018"><ele>472.75</ele><time>2026-04-27T06:42:36.202Z</time></trkpt><trkpt lat="39.648398" lon="20.8655251"><ele>472.5</ele><time>2026-04-27T06:42:37.202Z</time></trkpt><trkpt lat="39.6482895" lon="20.8655337"><ele>472.25</ele><time>2026-04-27T06:42:38.202Z</time></trkpt><trkpt lat="39.6481807" lon="20.8655665"><ele>472.0</ele><time>2026-04-27T06:42:39.201Z</time></trkpt><trkpt lat="39.6480641" lon="20.8656179"><ele>472.0</ele><time>2026-04-27T06:42:40.201Z</time></trkpt><trkpt lat="39.64794" lon="20.8656759"><ele>472.0</ele><time>2026-04-27T06:42:41.201Z</time></trkpt><trkpt lat="39.6478092" lon="20.8657338"><ele>472.0</ele><time>2026-04-27T06:42:42.201Z</time></trkpt><trkpt lat="39.6476825" lon="20.8657852"><ele>472.0</ele><time>2026-04-27T06:42:43.201Z</time></trkpt><trkpt lat="39.6475512" lon="20.8658329"><ele>472.25</ele><time>2026-04-27T06:42:44.202Z</time></trkpt><trkpt lat="39.6474178" lon="20.865873"><ele>472.5</ele><time>2026-04-27T06:42:45.201Z</time></trkpt><trkpt lat="39.6472814" lon="20.8659121"><ele>472.75</ele><time>2026-04-27T06:42:46.201Z</time></trkpt><trkpt lat="39.6471401" lon="20.8659555"><ele>473.0</ele><time>2026-04-27T06:42:47.201Z</time></trkpt><trkpt lat="39.6469937" lon="20.8660029"><ele>472.3333333333333</ele><time>2026-04-27T06:42:48.201Z</time></trkpt><trkpt lat="39.6468383" lon="20.8660549"><ele>471.66666666666663</ele><time>2026-04-27T06:42:49.202Z</time></trkpt><trkpt lat="39.6466781" lon="20.8661118"><ele>471.0</ele><time>2026-04-27T06:42:50.202Z</time></trkpt><trkpt lat="39.646511" lon="20.8661736"><ele>471.0</ele><time>2026-04-27T06:42:51.201Z</time></trkpt><trkpt lat="39.6463377" lon="20.8662404"><ele>471.0</ele><time>2026-04-27T06:42:52.202Z</time></trkpt><trkpt lat="39.6461605" lon="20.8663196"><ele>471.0</ele><time>2026-04-27T06:42:53.202Z</time></trkpt><trkpt lat="39.6459794" lon="20.8664156"><ele>471.0</ele><time>2026-04-27T06:42:54.202Z</time></trkpt><trkpt lat="39.6457864" lon="20.8665301"><ele>471.0</ele><time>2026-04-27T06:42:55.201Z</time></trkpt><trkpt lat="39.6455915" lon="20.8666488"><ele>471.0</ele><time>2026-04-27T06:42:56.201Z</time></trkpt><trkpt lat="39.6453969" lon="20.8667738"><ele>471.0</ele><time>2026-04-27T06:42:57.202Z</time></trkpt><trkpt lat="39.6452034" lon="20.8669022"><ele>471.0</ele><time>2026-04-27T06:42:58.201Z</time></trkpt><trkpt lat="39.6450123" lon="20.8670311"><ele>471.0</ele><time>2026-04-27T06:42:59.202Z</time></trkpt><trkpt lat="39.6448224" lon="20.8671626"><ele>471.0</ele><time>2026-04-27T06:43:00.202Z</time></trkpt><trkpt lat="39.6446343" lon="20.8672919"><ele>471.0</ele><time>2026-04-27T06:43:01.202Z</time></trkpt><trkpt lat="39.6444601" lon="20.8674118"><ele>471.0</ele><time>2026-04-27T06:43:02.201Z</time></trkpt><trkpt lat="39.6442988" lon="20.8675206"><ele>471.5</ele><time>2026-04-27T06:43:03.202Z</time></trkpt><trkpt lat="39.6441575" lon="20.8676188"><ele>472.0</ele><time>2026-04-27T06:43:04.201Z</time></trkpt><trkpt lat="39.6440329" lon="20.8677039"><ele>472.5</ele><time>2026-04-27T06:43:05.201Z</time></trkpt><trkpt lat="39.6439317" lon="20.8677688"><ele>473.0</ele><time>2026-04-27T06:43:06.201Z</time></trkpt><trkpt lat="39.643835" lon="20.8678171"><ele>473.0</ele><time>2026-04-27T06:43:07.202Z</time></trkpt><trkpt lat="39.6437497" lon="20.8678371"><ele>472.99999999999994</ele><time>2026-04-27T06:43:08.201Z</time></trkpt><trkpt lat="39.6436459" lon="20.8678379"><ele>472.99999999999994</ele><time>2026-04-27T06:43:10.201Z</time></trkpt><trkpt lat="39.64354" lon="20.8678903"><ele>473.0</ele><time>2026-04-27T06:43:12.202Z</time></trkpt><trkpt lat="39.6434941" lon="20.8679627"><ele>473.0</ele><time>2026-04-27T06:43:13.202Z</time></trkpt><trkpt lat="39.6434519" lon="20.8680662"><ele>472.75</ele><time>2026-04-27T06:43:14.201Z</time></trkpt><trkpt lat="39.6433943" lon="20.8681819"><ele>472.5</ele><time>2026-04-27T06:43:15.202Z</time></trkpt><trkpt lat="39.643293" lon="20.8683135"><ele>472.25</ele><time>2026-04-27T06:43:16.202Z</time></trkpt><trkpt lat="39.643169" lon="20.8684411"><ele>472.0</ele><time>2026-04-27T06:43:17.202Z</time></trkpt><trkpt lat="39.6430257" lon="20.8685565"><ele>472.0</ele><time>2026-04-27T06:43:18.201Z</time></trkpt><trkpt lat="39.6428615" lon="20.8686789"><ele>472.0</ele><time>2026-04-27T06:43:19.201Z</time></trkpt><trkpt lat="39.6426894" lon="20.868828"><ele>472.0</ele><time>2026-04-27T06:43:20.201Z</time></trkpt><trkpt lat="39.6425224" lon="20.8689805"><ele>472.33333333333337</ele><time>2026-04-27T06:43:21.202Z</time></trkpt><trkpt lat="39.6423537" lon="20.8691315"><ele>472.66666666666663</ele><time>2026-04-27T06:43:22.201Z</time></trkpt><trkpt lat="39.642181" lon="20.8692848"><ele>473.0</ele><time>2026-04-27T06:43:23.201Z</time></trkpt><trkpt lat="39.6420092" lon="20.8694392"><ele>472.0</ele><time>2026-04-27T06:43:24.202Z</time></trkpt><trkpt lat="39.6418463" lon="20.869592"><ele>471.0</ele><time>2026-04-27T06:43:25.202Z</time></trkpt><trkpt lat="39.6416805" lon="20.8697421"><ele>470.0</ele><time>2026-04-27T06:43:26.202Z</time></trkpt><trkpt lat="39.6415191" lon="20.8698903"><ele>470.0</ele><time>2026-04-27T06:43:27.202Z</time></trkpt><trkpt lat="39.6413588" lon="20.8700375"><ele>470.0</ele><time>2026-04-27T06:43:28.202Z</time></trkpt><trkpt lat="39.6412086" lon="20.8701737"><ele>470.0</ele><time>2026-04-27T06:43:29.201Z</time></trkpt><trkpt lat="39.6410685" lon="20.8703057"><ele>469.75</ele><time>2026-04-27T06:43:30.202Z</time></trkpt><trkpt lat="39.640942" lon="20.8704244"><ele>469.5</ele><time>2026-04-27T06:43:31.202Z</time></trkpt><trkpt lat="39.6408359" lon="20.870521"><ele>469.25</ele><time>2026-04-27T06:43:32.201Z</time></trkpt><trkpt lat="39.640751" lon="20.870594"><ele>469.0</ele><time>2026-04-27T06:43:33.201Z</time></trkpt><trkpt lat="39.6406791" lon="20.8706369"><ele>469.0</ele><time>2026-04-27T06:43:34.201Z</time></trkpt><trkpt lat="39.6405616" lon="20.8706185"><ele>469.0</ele><time>2026-04-27T06:43:36.202Z</time></trkpt><trkpt lat="39.6405075" lon="20.8705505"><ele>469.0</ele><time>2026-04-27T06:43:37.202Z</time></trkpt><trkpt lat="39.6404602" lon="20.8704673"><ele>469.0</ele><time>2026-04-27T06:43:38.201Z</time></trkpt><trkpt lat="39.6404089" lon="20.8703516"><ele>469.0</ele><time>2026-04-27T06:43:39.202Z</time></trkpt><trkpt lat="39.64035" lon="20.8702341"><ele>469.5</ele><time>2026-04-27T06:43:40.202Z</time></trkpt><trkpt lat="39.6402896" lon="20.8701144"><ele>470.0</ele><time>2026-04-27T06:43:41.202Z</time></trkpt><trkpt lat="39.6402249" lon="20.869997"><ele>470.5</ele><time>2026-04-27T06:43:42.202Z</time></trkpt><trkpt lat="39.6401567" lon="20.869874"><ele>471.0</ele><time>2026-04-27T06:43:43.201Z</time></trkpt><trkpt lat="39.6400863" lon="20.8697501"><ele>471.25</ele><time>2026-04-27T06:43:44.202Z</time></trkpt><trkpt lat="39.6400102" lon="20.8696223"><ele>471.5</ele><time>2026-04-27T06:43:45.201Z</time></trkpt><trkpt lat="39.6399333" lon="20.8694951"><ele>471.75</ele><time>2026-04-27T06:43:46.201Z</time></trkpt><trkpt lat="39.639859" lon="20.8693637"><ele>472.0</ele><time>2026-04-27T06:43:47.201Z</time></trkpt><trkpt lat="39.6397881" lon="20.8692314"><ele>472.40000000000003</ele><time>2026-04-27T06:43:48.201Z</time></trkpt><trkpt lat="39.6397177" lon="20.8690965"><ele>472.80000000000007</ele><time>2026-04-27T06:43:49.202Z</time></trkpt><trkpt lat="39.639647" lon="20.8689713"><ele>473.2</ele><time>2026-04-27T06:43:50.201Z</time></trkpt><trkpt lat="39.6395915" lon="20.868866"><ele>473.6</ele><time>2026-04-27T06:43:51.201Z</time></trkpt><trkpt lat="39.639546" lon="20.8687776"><ele>474.0</ele><time>2026-04-27T06:43:52.201Z</time></trkpt><trkpt lat="39.6395064" lon="20.8687059"><ele>474.4</ele><time>2026-04-27T06:43:53.202Z</time></trkpt><trkpt lat="39.6394557" lon="20.868598"><ele>474.79999999999995</ele><time>2026-04-27T06:43:55.202Z</time></trkpt><trkpt lat="39.6394" lon="20.8685431"><ele>475.20000000000005</ele><time>2026-04-27T06:44:10.202Z</time></trkpt><trkpt lat="39.639273" lon="20.8686037"><ele>475.6</ele><time>2026-04-27T06:44:12.201Z</time></trkpt><trkpt lat="39.6391949" lon="20.8686743"><ele>476.0</ele><time>2026-04-27T06:44:13.202Z</time></trkpt><trkpt lat="39.6391168" lon="20.8687484"><ele>476.0</ele><time>2026-04-27T06:44:14.202Z</time></trkpt><trkpt lat="39.6390226" lon="20.8688319"><ele>476.0</ele><time>2026-04-27T06:44:15.202Z</time></trkpt><trkpt lat="39.6389142" lon="20.8689283"><ele>476.0</ele><time>2026-04-27T06:44:16.201Z</time></trkpt><trkpt lat="39.6388034" lon="20.8690311"><ele>476.0</ele><time>2026-04-27T06:44:17.202Z</time></trkpt><trkpt lat="39.6386892" lon="20.8691358"><ele>476.0</ele><time>2026-04-27T06:44:18.201Z</time></trkpt><trkpt lat="39.63857" lon="20.8692415"><ele>476.0</ele><time>2026-04-27T06:44:19.202Z</time></trkpt><trkpt lat="39.6384509" lon="20.8693567"><ele>476.0</ele><time>2026-04-27T06:44:20.201Z</time></trkpt><trkpt lat="39.6383279" lon="20.8694694"><ele>476.0</ele><time>2026-04-27T06:44:21.201Z</time></trkpt><trkpt lat="39.6382039" lon="20.8695829"><ele>476.0</ele><time>2026-04-27T06:44:22.202Z</time></trkpt><trkpt lat="39.6380793" lon="20.869697"><ele>476.0</ele><time>2026-04-27T06:44:23.201Z</time></trkpt><trkpt lat="39.6379589" lon="20.8698111"><ele>476.0</ele><time>2026-04-27T06:44:24.201Z</time></trkpt><trkpt lat="39.6378414" lon="20.8699242"><ele>476.0</ele><time>2026-04-27T06:44:25.202Z</time></trkpt><trkpt lat="39.6377249" lon="20.8700331"><ele>476.0</ele><time>2026-04-27T06:44:26.202Z</time></trkpt><trkpt lat="39.6376112" lon="20.8701507"><ele>476.0</ele><time>2026-04-27T06:44:27.201Z</time></trkpt><trkpt lat="39.6374946" lon="20.8702615"><ele>476.0</ele><time>2026-04-27T06:44:28.202Z</time></trkpt><trkpt lat="39.6373769" lon="20.870379"><ele>476.0</ele><time>2026-04-27T06:44:29.201Z</time></trkpt><trkpt lat="39.637256" lon="20.8704946"><ele>476.0</ele><time>2026-04-27T06:44:30.202Z</time></trkpt><trkpt lat="39.6371351" lon="20.8706077"><ele>476.0</ele><time>2026-04-27T06:44:31.202Z</time></trkpt><trkpt lat="39.6370135" lon="20.8707235"><ele>476.0</ele><time>2026-04-27T06:44:32.201Z</time></trkpt><trkpt lat="39.6368911" lon="20.8708417"><ele>476.0</ele><time>2026-04-27T06:44:33.201Z</time></trkpt><trkpt lat="39.6367685" lon="20.8709619"><ele>476.0</ele><time>2026-04-27T06:44:34.202Z</time></trkpt><trkpt lat="39.6366434" lon="20.8710783"><ele>476.0</ele><time>2026-04-27T06:44:35.202Z</time></trkpt><trkpt lat="39.6365178" lon="20.8711976"><ele>476.0</ele><time>2026-04-27T06:44:36.202Z</time></trkpt><trkpt lat="39.6363922" lon="20.8713178"><ele>476.0</ele><time>2026-04-27T06:44:37.201Z</time></trkpt><trkpt lat="39.6362675" lon="20.8714418"><ele>476.0</ele><time>2026-04-27T06:44:38.201Z</time></trkpt><trkpt lat="39.6361459" lon="20.8715732"><ele>475.3333333333333</ele><time>2026-04-27T06:44:39.201Z</time></trkpt><trkpt lat="39.6360255" lon="20.8717101"><ele>474.66666666666663</ele><time>2026-04-27T06:44:40.201Z</time></trkpt><trkpt lat="39.6359031" lon="20.8718445"><ele>474.0</ele><time>2026-04-27T06:44:41.201Z</time></trkpt><trkpt lat="39.6357816" lon="20.8719762"><ele>474.0</ele><time>2026-04-27T06:44:42.201Z</time></trkpt><trkpt lat="39.6356525" lon="20.8721115"><ele>474.0</ele><time>2026-04-27T06:44:43.202Z</time></trkpt><trkpt lat="39.6355319" lon="20.8722468"><ele>474.0</ele><time>2026-04-27T06:44:44.202Z</time></trkpt><trkpt lat="39.6354106" lon="20.8723893"><ele>474.66666666666663</ele><time>2026-04-27T06:44:45.202Z</time></trkpt><trkpt lat="39.6352884" lon="20.8725252"><ele>475.3333333333333</ele><time>2026-04-27T06:44:46.202Z</time></trkpt><trkpt lat="39.6351719" lon="20.8726585"><ele>476.0</ele><time>2026-04-27T06:44:47.201Z</time></trkpt><trkpt lat="39.6350664" lon="20.872785"><ele>476.0</ele><time>2026-04-27T06:44:48.202Z</time></trkpt><trkpt lat="39.6349595" lon="20.8729044"><ele>476.0</ele><time>2026-04-27T06:44:49.201Z</time></trkpt><trkpt lat="39.6348531" lon="20.8730292"><ele>476.0</ele><time>2026-04-27T06:44:50.202Z</time></trkpt><trkpt lat="39.634748" lon="20.8731454"><ele>476.0</ele><time>2026-04-27T06:44:51.202Z</time></trkpt><trkpt lat="39.6346418" lon="20.8732617"><ele>476.0</ele><time>2026-04-27T06:44:52.202Z</time></trkpt><trkpt lat="39.6345325" lon="20.8733798"><ele>476.0</ele><time>2026-04-27T06:44:53.201Z</time></trkpt><trkpt lat="39.6344228" lon="20.873498"><ele>476.0</ele><time>2026-04-27T06:44:54.202Z</time></trkpt><trkpt lat="39.6343134" lon="20.8736148"><ele>476.0</ele><time>2026-04-27T06:44:55.202Z</time></trkpt><trkpt lat="39.6342052" lon="20.8737262"><ele>476.5</ele><time>2026-04-27T06:44:56.202Z</time></trkpt><trkpt lat="39.6341041" lon="20.8738408"><ele>477.0</ele><time>2026-04-27T06:44:57.201Z</time></trkpt><trkpt lat="39.6340066" lon="20.8739497"><ele>477.5</ele><time>2026-04-27T06:44:58.202Z</time></trkpt><trkpt lat="39.6339073" lon="20.8740619"><ele>478.0</ele><time>2026-04-27T06:44:59.202Z</time></trkpt><trkpt lat="39.6338107" lon="20.8741702"><ele>477.75</ele><time>2026-04-27T06:45:00.202Z</time></trkpt><trkpt lat="39.6337183" lon="20.8742787"><ele>477.5</ele><time>2026-04-27T06:45:01.202Z</time></trkpt><trkpt lat="39.6336335" lon="20.8743871"><ele>477.25</ele><time>2026-04-27T06:45:02.202Z</time></trkpt><trkpt lat="39.6335511" lon="20.8744847"><ele>477.0</ele><time>2026-04-27T06:45:03.202Z</time></trkpt><trkpt lat="39.6334741" lon="20.8745717"><ele>477.40000000000003</ele><time>2026-04-27T06:45:04.202Z</time></trkpt><trkpt lat="39.6334021" lon="20.8746502"><ele>477.80000000000007</ele><time>2026-04-27T06:45:05.201Z</time></trkpt><trkpt lat="39.6333367" lon="20.8747293"><ele>478.2</ele><time>2026-04-27T06:45:06.201Z</time></trkpt><trkpt lat="39.6332749" lon="20.874802"><ele>478.6</ele><time>2026-04-27T06:45:07.202Z</time></trkpt><trkpt lat="39.6332205" lon="20.8748611"><ele>479.0</ele><time>2026-04-27T06:45:08.201Z</time></trkpt><trkpt lat="39.6331256" lon="20.8749386"><ele>479.0</ele><time>2026-04-27T06:45:10.201Z</time></trkpt><trkpt lat="39.6330113" lon="20.874968"><ele>479.0</ele><time>2026-04-27T06:45:12.202Z</time></trkpt><trkpt lat="39.6329412" lon="20.8749882"><ele>479.0</ele><time>2026-04-27T06:45:13.201Z</time></trkpt><trkpt lat="39.6328834" lon="20.8750305"><ele>479.0</ele><time>2026-04-27T06:45:14.202Z</time></trkpt><trkpt lat="39.6328375" lon="20.875163"><ele>479.0</ele><time>2026-04-27T06:45:16.202Z</time></trkpt><trkpt lat="39.6328342" lon="20.8753114"><ele>479.2</ele><time>2026-04-27T06:45:18.202Z</time></trkpt><trkpt lat="39.6327696" lon="20.8754575"><ele>479.4</ele><time>2026-04-27T06:45:20.201Z</time></trkpt><trkpt lat="39.6327103" lon="20.8755321"><ele>479.6</ele><time>2026-04-27T06:45:21.202Z</time></trkpt><trkpt lat="39.6326337" lon="20.8756186"><ele>479.8</ele><time>2026-04-27T06:45:22.202Z</time></trkpt><trkpt lat="39.6325519" lon="20.8757179"><ele>480.0</ele><time>2026-04-27T06:45:23.201Z</time></trkpt><trkpt lat="39.6324658" lon="20.8758235"><ele>480.0</ele><time>2026-04-27T06:45:24.201Z</time></trkpt><trkpt lat="39.6323791" lon="20.8759337"><ele>480.0</ele><time>2026-04-27T06:45:25.201Z</time></trkpt><trkpt lat="39.6322914" lon="20.8760462"><ele>480.0</ele><time>2026-04-27T06:45:26.201Z</time></trkpt><trkpt lat="39.6321954" lon="20.8761651"><ele>480.0</ele><time>2026-04-27T06:45:27.202Z</time></trkpt><trkpt lat="39.6320787" lon="20.8763178"><ele>480.0</ele><time>2026-04-27T06:45:28.202Z</time></trkpt><trkpt lat="39.6319395" lon="20.8764946"><ele>480.0</ele><time>2026-04-27T06:45:29.202Z</time></trkpt><trkpt lat="39.6317772" lon="20.8766736"><ele>480.0</ele><time>2026-04-27T06:45:30.201Z</time></trkpt><trkpt lat="39.6316262" lon="20.8768453"><ele>479.33333333333337</ele><time>2026-04-27T06:45:31.201Z</time></trkpt><trkpt lat="39.6314933" lon="20.8770145"><ele>478.6666666666667</ele><time>2026-04-27T06:45:32.201Z</time></trkpt><trkpt lat="39.6313621" lon="20.877178"><ele>478.0</ele><time>2026-04-27T06:45:33.202Z</time></trkpt><trkpt lat="39.6312335" lon="20.8773405"><ele>478.33333333333337</ele><time>2026-04-27T06:45:34.201Z</time></trkpt><trkpt lat="39.6311069" lon="20.8774911"><ele>478.66666666666663</ele><time>2026-04-27T06:45:35.201Z</time></trkpt><trkpt lat="39.6309823" lon="20.8776405"><ele>479.0</ele><time>2026-04-27T06:45:36.202Z</time></trkpt><trkpt lat="39.630864" lon="20.877794"><ele>479.0</ele><time>2026-04-27T06:45:37.201Z</time></trkpt><trkpt lat="39.6307476" lon="20.8779391"><ele>479.0</ele><time>2026-04-27T06:45:38.202Z</time></trkpt><trkpt lat="39.6306302" lon="20.8780839"><ele>479.0</ele><time>2026-04-27T06:45:39.201Z</time></trkpt><trkpt lat="39.6305135" lon="20.878222"><ele>479.0</ele><time>2026-04-27T06:45:40.202Z</time></trkpt><trkpt lat="39.6304007" lon="20.8783612"><ele>479.0</ele><time>2026-04-27T06:45:41.201Z</time></trkpt><trkpt lat="39.6302911" lon="20.8785018"><ele>479.0</ele><time>2026-04-27T06:45:42.201Z</time></trkpt><trkpt lat="39.63018" lon="20.8786439"><ele>479.3333333333333</ele><time>2026-04-27T06:45:43.201Z</time></trkpt><trkpt lat="39.6300715" lon="20.8787838"><ele>479.66666666666663</ele><time>2026-04-27T06:45:44.201Z</time></trkpt><trkpt lat="39.6299634" lon="20.8789244"><ele>480.0</ele><time>2026-04-27T06:45:45.201Z</time></trkpt><trkpt lat="39.6298619" lon="20.8790615"><ele>480.0</ele><time>2026-04-27T06:45:46.202Z</time></trkpt><trkpt lat="39.6297653" lon="20.879195"><ele>480.0</ele><time>2026-04-27T06:45:47.202Z</time></trkpt><trkpt lat="39.6296663" lon="20.879321"><ele>480.0</ele><time>2026-04-27T06:45:48.202Z</time></trkpt><trkpt lat="39.629571" lon="20.8794499"><ele>480.0</ele><time>2026-04-27T06:45:49.201Z</time></trkpt><trkpt lat="39.6294761" lon="20.8795732"><ele>480.0</ele><time>2026-04-27T06:45:50.202Z</time></trkpt><trkpt lat="39.6293822" lon="20.8796935"><ele>480.0</ele><time>2026-04-27T06:45:51.202Z</time></trkpt><trkpt lat="39.6292897" lon="20.8798163"><ele>480.0</ele><time>2026-04-27T06:45:52.202Z</time></trkpt><trkpt lat="39.6291953" lon="20.879944"><ele>480.0</ele><time>2026-04-27T06:45:53.201Z</time></trkpt><trkpt lat="39.6290969" lon="20.8800673"><ele>478.75</ele><time>2026-04-27T06:45:54.202Z</time></trkpt><trkpt lat="39.6289986" lon="20.8801904"><ele>477.5</ele><time>2026-04-27T06:45:55.202Z</time></trkpt><trkpt lat="39.6289009" lon="20.8803161"><ele>476.25</ele><time>2026-04-27T06:45:56.202Z</time></trkpt><trkpt lat="39.6288061" lon="20.8804489"><ele>475.0</ele><time>2026-04-27T06:45:57.202Z</time></trkpt><trkpt lat="39.6287068" lon="20.8805798"><ele>475.0</ele><time>2026-04-27T06:45:58.202Z</time></trkpt><trkpt lat="39.6286009" lon="20.8807149"><ele>475.0</ele><time>2026-04-27T06:45:59.202Z</time></trkpt><trkpt lat="39.6284939" lon="20.8808489"><ele>475.0</ele><time>2026-04-27T06:46:00.202Z</time></trkpt><trkpt lat="39.6283867" lon="20.8809869"><ele>475.0</ele><time>2026-04-27T06:46:01.202Z</time></trkpt><trkpt lat="39.6282812" lon="20.881127"><ele>475.0</ele><time>2026-04-27T06:46:02.201Z</time></trkpt><trkpt lat="39.6281755" lon="20.8812703"><ele>475.0</ele><time>2026-04-27T06:46:03.202Z</time></trkpt><trkpt lat="39.6280688" lon="20.8814096"><ele>475.0</ele><time>2026-04-27T06:46:04.202Z</time></trkpt><trkpt lat="39.6279647" lon="20.8815506"><ele>475.0</ele><time>2026-04-27T06:46:05.201Z</time></trkpt><trkpt lat="39.6278585" lon="20.8816905"><ele>475.0</ele><time>2026-04-27T06:46:06.202Z</time></trkpt><trkpt lat="39.6277532" lon="20.8818259"><ele>475.0</ele><time>2026-04-27T06:46:07.201Z</time></trkpt><trkpt lat="39.6276486" lon="20.8819655"><ele>475.0</ele><time>2026-04-27T06:46:08.201Z</time></trkpt><trkpt lat="39.6275461" lon="20.8820961"><ele>475.6666666666667</ele><time>2026-04-27T06:46:09.201Z</time></trkpt><trkpt lat="39.6274406" lon="20.8822344"><ele>476.33333333333337</ele><time>2026-04-27T06:46:10.201Z</time></trkpt><trkpt lat="39.6273376" lon="20.8823766"><ele>477.0</ele><time>2026-04-27T06:46:11.201Z</time></trkpt><trkpt lat="39.6272355" lon="20.8825205"><ele>476.75</ele><time>2026-04-27T06:46:12.202Z</time></trkpt><trkpt lat="39.627141" lon="20.8826483"><ele>476.5</ele><time>2026-04-27T06:46:13.202Z</time></trkpt><trkpt lat="39.6270519" lon="20.8827707"><ele>476.25</ele><time>2026-04-27T06:46:14.201Z</time></trkpt><trkpt lat="39.6269639" lon="20.882883"><ele>476.0</ele><time>2026-04-27T06:46:15.201Z</time></trkpt><trkpt lat="39.6268777" lon="20.8829951"><ele>476.5</ele><time>2026-04-27T06:46:16.201Z</time></trkpt><trkpt lat="39.6267912" lon="20.8831059"><ele>477.0</ele><time>2026-04-27T06:46:17.202Z</time></trkpt><trkpt lat="39.626705" lon="20.8832206"><ele>477.5</ele><time>2026-04-27T06:46:18.201Z</time></trkpt><trkpt lat="39.62662" lon="20.8833345"><ele>478.0</ele><time>2026-04-27T06:46:19.201Z</time></trkpt><trkpt lat="39.6265403" lon="20.8834455"><ele>478.0</ele><time>2026-04-27T06:46:20.202Z</time></trkpt><trkpt lat="39.6264604" lon="20.8835573"><ele>478.0</ele><time>2026-04-27T06:46:21.201Z</time></trkpt><trkpt lat="39.6263793" lon="20.8836655"><ele>478.0</ele><time>2026-04-27T06:46:22.201Z</time></trkpt><trkpt lat="39.6262987" lon="20.8837727"><ele>478.0</ele><time>2026-04-27T06:46:23.202Z</time></trkpt><trkpt lat="39.6262154" lon="20.8838823"><ele>478.0</ele><time>2026-04-27T06:46:24.202Z</time></trkpt><trkpt lat="39.6261313" lon="20.8839934"><ele>478.0</ele><time>2026-04-27T06:46:25.201Z</time></trkpt><trkpt lat="39.6260518" lon="20.8841097"><ele>478.0</ele><time>2026-04-27T06:46:26.201Z</time></trkpt><trkpt lat="39.6259722" lon="20.884225"><ele>478.0</ele><time>2026-04-27T06:46:27.201Z</time></trkpt><trkpt lat="39.6258898" lon="20.8843328"><ele>478.0</ele><time>2026-04-27T06:46:28.202Z</time></trkpt><trkpt lat="39.6258146" lon="20.8844334"><ele>477.99999999999994</ele><time>2026-04-27T06:46:29.202Z</time></trkpt><trkpt lat="39.6257466" lon="20.8845266"><ele>477.99999999999994</ele><time>2026-04-27T06:46:30.201Z</time></trkpt><trkpt lat="39.6256831" lon="20.8846179"><ele>478.0</ele><time>2026-04-27T06:46:31.201Z</time></trkpt><trkpt lat="39.6256181" lon="20.8847096"><ele>478.0</ele><time>2026-04-27T06:46:32.202Z</time></trkpt><trkpt lat="39.6255511" lon="20.8848059"><ele>478.0</ele><time>2026-04-27T06:46:33.202Z</time></trkpt><trkpt lat="39.6254789" lon="20.8849036"><ele>478.0</ele><time>2026-04-27T06:46:34.201Z</time></trkpt><trkpt lat="39.6253991" lon="20.8850052"><ele>478.0</ele><time>2026-04-27T06:46:35.202Z</time></trkpt><trkpt lat="39.6253183" lon="20.8851116"><ele>478.0</ele><time>2026-04-27T06:46:36.202Z</time></trkpt><trkpt lat="39.6252343" lon="20.8852259"><ele>478.5</ele><time>2026-04-27T06:46:37.202Z</time></trkpt><trkpt lat="39.6251441" lon="20.8853447"><ele>479.0</ele><time>2026-04-27T06:46:38.202Z</time></trkpt><trkpt lat="39.6250511" lon="20.8854699"><ele>479.5</ele><time>2026-04-27T06:46:39.201Z</time></trkpt><trkpt lat="39.6249593" lon="20.8855953"><ele>480.0</ele><time>2026-04-27T06:46:40.201Z</time></trkpt><trkpt lat="39.6248723" lon="20.8857135"><ele>480.0</ele><time>2026-04-27T06:46:41.201Z</time></trkpt><trkpt lat="39.6247904" lon="20.8858305"><ele>480.0</ele><time>2026-04-27T06:46:42.201Z</time></trkpt><trkpt lat="39.624713" lon="20.885932"><ele>480.0</ele><time>2026-04-27T06:46:43.201Z</time></trkpt><trkpt lat="39.6246402" lon="20.8860278"><ele>480.0</ele><time>2026-04-27T06:46:44.202Z</time></trkpt><trkpt lat="39.6245775" lon="20.8861128"><ele>480.0</ele><time>2026-04-27T06:46:45.202Z</time></trkpt><trkpt lat="39.6245186" lon="20.8861946"><ele>480.0</ele><time>2026-04-27T06:46:46.201Z</time></trkpt><trkpt lat="39.6244598" lon="20.8862749"><ele>480.0</ele><time>2026-04-27T06:46:47.202Z</time></trkpt><trkpt lat="39.6244047" lon="20.8863479"><ele>480.0</ele><time>2026-04-27T06:46:48.202Z</time></trkpt><trkpt lat="39.6243517" lon="20.886422"><ele>480.0</ele><time>2026-04-27T06:46:49.201Z</time></trkpt><trkpt lat="39.6242938" lon="20.8865097"><ele>480.0</ele><time>2026-04-27T06:46:50.202Z</time></trkpt><trkpt lat="39.6242114" lon="20.8866356"><ele>480.0</ele><time>2026-04-27T06:46:51.201Z</time></trkpt><trkpt lat="39.6241036" lon="20.8867723"><ele>480.0</ele><time>2026-04-27T06:46:52.202Z</time></trkpt><trkpt lat="39.6239943" lon="20.886902"><ele>480.0</ele><time>2026-04-27T06:46:53.201Z</time></trkpt><trkpt lat="39.6238879" lon="20.8870302"><ele>480.0</ele><time>2026-04-27T06:46:54.201Z</time></trkpt><trkpt lat="39.6237875" lon="20.8871604"><ele>480.0</ele><time>2026-04-27T06:46:55.201Z</time></trkpt><trkpt lat="39.6236918" lon="20.8872918"><ele>480.0</ele><time>2026-04-27T06:46:56.202Z</time></trkpt><trkpt lat="39.6235997" lon="20.8874209"><ele>480.0</ele><time>2026-04-27T06:46:57.202Z</time></trkpt><trkpt lat="39.623511" lon="20.88755"><ele>480.0</ele><time>2026-04-27T06:46:58.201Z</time></trkpt><trkpt lat="39.6234246" lon="20.8876785"><ele>480.0</ele><time>2026-04-27T06:46:59.202Z</time></trkpt><trkpt lat="39.6233537" lon="20.8878179"><ele>480.0</ele><time>2026-04-27T06:47:00.201Z</time></trkpt><trkpt lat="39.6232771" lon="20.8879454"><ele>480.0</ele><time>2026-04-27T06:47:01.202Z</time></trkpt><trkpt lat="39.6231983" lon="20.8880693"><ele>480.0</ele><time>2026-04-27T06:47:02.202Z</time></trkpt><trkpt lat="39.6231292" lon="20.8881924"><ele>480.0</ele><time>2026-04-27T06:47:03.202Z</time></trkpt><trkpt lat="39.6230603" lon="20.8883129"><ele>480.0</ele><time>2026-04-27T06:47:04.201Z</time></trkpt><trkpt lat="39.622996" lon="20.8884395"><ele>480.0</ele><time>2026-04-27T06:47:05.202Z</time></trkpt><trkpt lat="39.622931" lon="20.8885538"><ele>480.0</ele><time>2026-04-27T06:47:06.201Z</time></trkpt><trkpt lat="39.6228701" lon="20.8886681"><ele>480.0</ele><time>2026-04-27T06:47:07.202Z</time></trkpt><trkpt lat="39.6228137" lon="20.8887769"><ele>480.0</ele><time>2026-04-27T06:47:08.201Z</time></trkpt><trkpt lat="39.6227555" lon="20.8888805"><ele>480.0</ele><time>2026-04-27T06:47:09.202Z</time></trkpt><trkpt lat="39.6227002" lon="20.8889774"><ele>480.0</ele><time>2026-04-27T06:47:10.202Z</time></trkpt><trkpt lat="39.622644" lon="20.8890792"><ele>480.0</ele><time>2026-04-27T06:47:11.201Z</time></trkpt><trkpt lat="39.6225839" lon="20.8891708"><ele>480.0</ele><time>2026-04-27T06:47:12.202Z</time></trkpt><trkpt lat="39.6225231" lon="20.8892668"><ele>479.8</ele><time>2026-04-27T06:47:13.202Z</time></trkpt><trkpt lat="39.6224663" lon="20.8893612"><ele>479.6</ele><time>2026-04-27T06:47:14.201Z</time></trkpt><trkpt lat="39.6224125" lon="20.8894598"><ele>479.4</ele><time>2026-04-27T06:47:15.201Z</time></trkpt><trkpt lat="39.6223575" lon="20.8895526"><ele>479.2</ele><time>2026-04-27T06:47:16.201Z</time></trkpt><trkpt lat="39.6223041" lon="20.8896484"><ele>479.0</ele><time>2026-04-27T06:47:17.202Z</time></trkpt><trkpt lat="39.6222501" lon="20.8897465"><ele>478.99999999999994</ele><time>2026-04-27T06:47:18.201Z</time></trkpt><trkpt lat="39.622198" lon="20.8898423"><ele>479.0</ele><time>2026-04-27T06:47:19.201Z</time></trkpt><trkpt lat="39.6221481" lon="20.8899318"><ele>479.0</ele><time>2026-04-27T06:47:20.201Z</time></trkpt><trkpt lat="39.6221006" lon="20.8900207"><ele>479.0</ele><time>2026-04-27T06:47:21.201Z</time></trkpt><trkpt lat="39.6220493" lon="20.8901153"><ele>478.99999999999994</ele><time>2026-04-27T06:47:22.202Z</time></trkpt><trkpt lat="39.6219947" lon="20.8902149"><ele>479.0</ele><time>2026-04-27T06:47:23.202Z</time></trkpt><trkpt lat="39.6219382" lon="20.8903169"><ele>479.0</ele><time>2026-04-27T06:47:24.201Z</time></trkpt><trkpt lat="39.6218828" lon="20.8904283"><ele>479.0</ele><time>2026-04-27T06:47:25.201Z</time></trkpt><trkpt lat="39.6218217" lon="20.8905377"><ele>479.0</ele><time>2026-04-27T06:47:26.201Z</time></trkpt><trkpt lat="39.6217601" lon="20.8906473"><ele>479.0</ele><time>2026-04-27T06:47:27.202Z</time></trkpt><trkpt lat="39.6216971" lon="20.8907594"><ele>479.0</ele><time>2026-04-27T06:47:28.201Z</time></trkpt><trkpt lat="39.6216391" lon="20.8908774"><ele>478.79999999999995</ele><time>2026-04-27T06:47:29.201Z</time></trkpt><trkpt lat="39.621576" lon="20.8909961"><ele>478.59999999999997</ele><time>2026-04-27T06:47:30.201Z</time></trkpt><trkpt lat="39.6215166" lon="20.8911148"><ele>478.4</ele><time>2026-04-27T06:47:31.202Z</time></trkpt><trkpt lat="39.6214552" lon="20.8912314"><ele>478.2</ele><time>2026-04-27T06:47:32.201Z</time></trkpt><trkpt lat="39.6213931" lon="20.8913525"><ele>478.0</ele><time>2026-04-27T06:47:33.201Z</time></trkpt><trkpt lat="39.6213259" lon="20.8914706"><ele>478.0</ele><time>2026-04-27T06:47:34.202Z</time></trkpt><trkpt lat="39.6212578" lon="20.8915892"><ele>478.0</ele><time>2026-04-27T06:47:35.202Z</time></trkpt><trkpt lat="39.6211822" lon="20.89171"><ele>478.0</ele><time>2026-04-27T06:47:36.202Z</time></trkpt><trkpt lat="39.6211067" lon="20.8918335"><ele>478.0</ele><time>2026-04-27T06:47:37.201Z</time></trkpt><trkpt lat="39.6210322" lon="20.8919516"><ele>478.25</ele><time>2026-04-27T06:47:38.201Z</time></trkpt><trkpt lat="39.6209604" lon="20.8920658"><ele>478.5</ele><time>2026-04-27T06:47:39.202Z</time></trkpt><trkpt lat="39.620886" lon="20.8921796"><ele>478.75</ele><time>2026-04-27T06:47:40.201Z</time></trkpt><trkpt lat="39.6208074" lon="20.8922903"><ele>479.0</ele><time>2026-04-27T06:47:41.202Z</time></trkpt><trkpt lat="39.6207328" lon="20.8924022"><ele>479.0</ele><time>2026-04-27T06:47:42.201Z</time></trkpt><trkpt lat="39.6206528" lon="20.8925103"><ele>479.0</ele><time>2026-04-27T06:47:43.201Z</time></trkpt><trkpt lat="39.6205758" lon="20.8926182"><ele>479.0</ele><time>2026-04-27T06:47:44.202Z</time></trkpt><trkpt lat="39.6204976" lon="20.8927265"><ele>479.0</ele><time>2026-04-27T06:47:45.202Z</time></trkpt><trkpt lat="39.6204176" lon="20.8928365"><ele>479.0</ele><time>2026-04-27T06:47:46.202Z</time></trkpt><trkpt lat="39.6203312" lon="20.8929473"><ele>479.0</ele><time>2026-04-27T06:47:47.202Z</time></trkpt><trkpt lat="39.6202427" lon="20.8930627"><ele>479.0</ele><time>2026-04-27T06:47:48.201Z</time></trkpt><trkpt lat="39.6201489" lon="20.8931893"><ele>479.0</ele><time>2026-04-27T06:47:49.202Z</time></trkpt><trkpt lat="39.6200541" lon="20.8933218"><ele>478.75</ele><time>2026-04-27T06:47:50.201Z</time></trkpt><trkpt lat="39.6199579" lon="20.8934576"><ele>478.5</ele><time>2026-04-27T06:47:51.202Z</time></trkpt><trkpt lat="39.6198577" lon="20.8935986"><ele>478.25</ele><time>2026-04-27T06:47:52.201Z</time></trkpt><trkpt lat="39.6197545" lon="20.8937428"><ele>478.0</ele><time>2026-04-27T06:47:53.201Z</time></trkpt><trkpt lat="39.6196462" lon="20.8938967"><ele>478.0</ele><time>2026-04-27T06:47:54.201Z</time></trkpt><trkpt lat="39.6195319" lon="20.8940548"><ele>478.0</ele><time>2026-04-27T06:47:55.201Z</time></trkpt><trkpt lat="39.6194143" lon="20.8942216"><ele>478.0</ele><time>2026-04-27T06:47:56.201Z</time></trkpt><trkpt lat="39.6192902" lon="20.8943944"><ele>477.6666666666667</ele><time>2026-04-27T06:47:57.201Z</time></trkpt><trkpt lat="39.6191631" lon="20.894572"><ele>477.33333333333337</ele><time>2026-04-27T06:47:58.201Z</time></trkpt><trkpt lat="39.619035" lon="20.8947543"><ele>477.0</ele><time>2026-04-27T06:47:59.201Z</time></trkpt><trkpt lat="39.618906" lon="20.894933"><ele>477.33333333333337</ele><time>2026-04-27T06:48:00.202Z</time></trkpt><trkpt lat="39.6187801" lon="20.8951109"><ele>477.6666666666667</ele><time>2026-04-27T06:48:01.202Z</time></trkpt><trkpt lat="39.6186512" lon="20.8952885"><ele>478.0</ele><time>2026-04-27T06:48:02.201Z</time></trkpt><trkpt lat="39.6185273" lon="20.8954622"><ele>478.0</ele><time>2026-04-27T06:48:03.202Z</time></trkpt><trkpt lat="39.6184078" lon="20.8956391"><ele>478.0</ele><time>2026-04-27T06:48:04.202Z</time></trkpt><trkpt lat="39.6182832" lon="20.8958162"><ele>478.0</ele><time>2026-04-27T06:48:05.202Z</time></trkpt><trkpt lat="39.6181596" lon="20.8959966"><ele>477.6666666666667</ele><time>2026-04-27T06:48:06.201Z</time></trkpt><trkpt lat="39.618033" lon="20.8961729"><ele>477.33333333333337</ele><time>2026-04-27T06:48:07.201Z</time></trkpt><trkpt lat="39.6179078" lon="20.8963458"><ele>477.0</ele><time>2026-04-27T06:48:08.201Z</time></trkpt><trkpt lat="39.6177809" lon="20.8965206"><ele>477.0</ele><time>2026-04-27T06:48:09.201Z</time></trkpt><trkpt lat="39.6176575" lon="20.8966961"><ele>477.0</ele><time>2026-04-27T06:48:10.202Z</time></trkpt><trkpt lat="39.6175325" lon="20.8968715"><ele>477.0</ele><time>2026-04-27T06:48:11.202Z</time></trkpt><trkpt lat="39.6174138" lon="20.8970478"><ele>476.66666666666663</ele><time>2026-04-27T06:48:12.202Z</time></trkpt><trkpt lat="39.6172925" lon="20.8972256"><ele>476.3333333333333</ele><time>2026-04-27T06:48:13.201Z</time></trkpt><trkpt lat="39.6171732" lon="20.897394"><ele>476.0</ele><time>2026-04-27T06:48:14.201Z</time></trkpt><trkpt lat="39.617053" lon="20.8975641"><ele>476.0</ele><time>2026-04-27T06:48:15.202Z</time></trkpt><trkpt lat="39.6169375" lon="20.8977295"><ele>476.0</ele><time>2026-04-27T06:48:16.202Z</time></trkpt><trkpt lat="39.6168192" lon="20.8978911"><ele>476.0</ele><time>2026-04-27T06:48:17.202Z</time></trkpt><trkpt lat="39.6167041" lon="20.8980495"><ele>476.0</ele><time>2026-04-27T06:48:18.202Z</time></trkpt><trkpt lat="39.6165897" lon="20.8982026"><ele>476.0</ele><time>2026-04-27T06:48:19.202Z</time></trkpt><trkpt lat="39.6164671" lon="20.8983474"><ele>476.0</ele><time>2026-04-27T06:48:20.202Z</time></trkpt><trkpt lat="39.6163452" lon="20.8984844"><ele>476.3333333333333</ele><time>2026-04-27T06:48:21.202Z</time></trkpt><trkpt lat="39.616215" lon="20.8986079"><ele>476.66666666666663</ele><time>2026-04-27T06:48:22.202Z</time></trkpt><trkpt lat="39.6160824" lon="20.8987321"><ele>477.0</ele><time>2026-04-27T06:48:23.202Z</time></trkpt><trkpt lat="39.6159495" lon="20.8988544"><ele>477.0</ele><time>2026-04-27T06:48:24.202Z</time></trkpt><trkpt lat="39.6158123" lon="20.8989817"><ele>477.0</ele><time>2026-04-27T06:48:25.202Z</time></trkpt><trkpt lat="39.6156707" lon="20.8991135"><ele>477.0</ele><time>2026-04-27T06:48:26.201Z</time></trkpt><trkpt lat="39.6155267" lon="20.8992506"><ele>476.66666666666663</ele><time>2026-04-27T06:48:27.201Z</time></trkpt><trkpt lat="39.6153812" lon="20.8993932"><ele>476.3333333333333</ele><time>2026-04-27T06:48:28.202Z</time></trkpt><trkpt lat="39.6152341" lon="20.8995381"><ele>476.0</ele><time>2026-04-27T06:48:29.202Z</time></trkpt><trkpt lat="39.6150876" lon="20.8996818"><ele>475.66666666666663</ele><time>2026-04-27T06:48:30.202Z</time></trkpt><trkpt lat="39.6149402" lon="20.8998258"><ele>475.33333333333337</ele><time>2026-04-27T06:48:31.201Z</time></trkpt><trkpt lat="39.6147921" lon="20.8999671"><ele>475.0</ele><time>2026-04-27T06:48:32.202Z</time></trkpt><trkpt lat="39.6146428" lon="20.9001093"><ele>475.0</ele><time>2026-04-27T06:48:33.201Z</time></trkpt><trkpt lat="39.6144935" lon="20.9002526"><ele>475.0</ele><time>2026-04-27T06:48:34.202Z</time></trkpt><trkpt lat="39.6143445" lon="20.9003948"><ele>475.0</ele><time>2026-04-27T06:48:35.201Z</time></trkpt><trkpt lat="39.614196" lon="20.9005383"><ele>476.0</ele><time>2026-04-27T06:48:36.201Z</time></trkpt><trkpt lat="39.6140513" lon="20.9006803"><ele>477.0</ele><time>2026-04-27T06:48:37.201Z</time></trkpt><trkpt lat="39.6139084" lon="20.9008204"><ele>478.0</ele><time>2026-04-27T06:48:38.201Z</time></trkpt><trkpt lat="39.6137685" lon="20.9009573"><ele>478.0</ele><time>2026-04-27T06:48:39.201Z</time></trkpt><trkpt lat="39.6136302" lon="20.9010867"><ele>478.0</ele><time>2026-04-27T06:48:40.202Z</time></trkpt><trkpt lat="39.6134921" lon="20.901213"><ele>478.0</ele><time>2026-04-27T06:48:41.202Z</time></trkpt><trkpt lat="39.6133533" lon="20.9013314"><ele>478.0</ele><time>2026-04-27T06:48:42.202Z</time></trkpt><trkpt lat="39.6132153" lon="20.9014448"><ele>478.0</ele><time>2026-04-27T06:48:43.201Z</time></trkpt><trkpt lat="39.6130739" lon="20.9015533"><ele>478.0</ele><time>2026-04-27T06:48:44.202Z</time></trkpt><trkpt lat="39.6129284" lon="20.9016567"><ele>479.0</ele><time>2026-04-27T06:48:45.202Z</time></trkpt><trkpt lat="39.612782" lon="20.9017606"><ele>480.0</ele><time>2026-04-27T06:48:46.201Z</time></trkpt><trkpt lat="39.6126353" lon="20.9018673"><ele>481.0</ele><time>2026-04-27T06:48:47.201Z</time></trkpt><trkpt lat="39.6124877" lon="20.9019763"><ele>481.0</ele><time>2026-04-27T06:48:48.201Z</time></trkpt><trkpt lat="39.61234" lon="20.9020849"><ele>481.0</ele><time>2026-04-27T06:48:49.201Z</time></trkpt><trkpt lat="39.6121907" lon="20.9021953"><ele>481.0</ele><time>2026-04-27T06:48:50.201Z</time></trkpt><trkpt lat="39.61204" lon="20.9023057"><ele>481.33333333333337</ele><time>2026-04-27T06:48:51.202Z</time></trkpt><trkpt lat="39.6118884" lon="20.9024176"><ele>481.66666666666663</ele><time>2026-04-27T06:48:52.202Z</time></trkpt><trkpt lat="39.6117371" lon="20.9025283"><ele>482.0</ele><time>2026-04-27T06:48:53.201Z</time></trkpt><trkpt lat="39.6115839" lon="20.9026356"><ele>482.0</ele><time>2026-04-27T06:48:54.201Z</time></trkpt><trkpt lat="39.6114282" lon="20.9027419"><ele>482.0</ele><time>2026-04-27T06:48:55.201Z</time></trkpt><trkpt lat="39.6112801" lon="20.9028531"><ele>482.0</ele><time>2026-04-27T06:48:56.202Z</time></trkpt><trkpt lat="39.6111266" lon="20.9029648"><ele>482.0</ele><time>2026-04-27T06:48:57.202Z</time></trkpt><trkpt lat="39.6109803" lon="20.9030779"><ele>482.0</ele><time>2026-04-27T06:48:58.202Z</time></trkpt><trkpt lat="39.6108309" lon="20.9031882"><ele>482.0</ele><time>2026-04-27T06:48:59.201Z</time></trkpt><trkpt lat="39.6106821" lon="20.9032962"><ele>482.0</ele><time>2026-04-27T06:49:00.202Z</time></trkpt><trkpt lat="39.6105368" lon="20.9034072"><ele>482.0</ele><time>2026-04-27T06:49:01.201Z</time></trkpt><trkpt lat="39.6103924" lon="20.9035198"><ele>482.0</ele><time>2026-04-27T06:49:02.201Z</time></trkpt><trkpt lat="39.6102503" lon="20.903628"><ele>482.3333333333333</ele><time>2026-04-27T06:49:03.201Z</time></trkpt><trkpt lat="39.6101085" lon="20.903735"><ele>482.66666666666663</ele><time>2026-04-27T06:49:04.202Z</time></trkpt><trkpt lat="39.6099709" lon="20.903838"><ele>483.0</ele><time>2026-04-27T06:49:05.202Z</time></trkpt><trkpt lat="39.6098316" lon="20.9039428"><ele>483.0</ele><time>2026-04-27T06:49:06.201Z</time></trkpt><trkpt lat="39.6096916" lon="20.9040424"><ele>483.0</ele><time>2026-04-27T06:49:07.202Z</time></trkpt><trkpt lat="39.6095549" lon="20.9041431"><ele>483.0</ele><time>2026-04-27T06:49:08.202Z</time></trkpt><trkpt lat="39.6094148" lon="20.9042409"><ele>482.66666666666663</ele><time>2026-04-27T06:49:09.202Z</time></trkpt><trkpt lat="39.6092779" lon="20.9043404"><ele>482.3333333333333</ele><time>2026-04-27T06:49:10.201Z</time></trkpt><trkpt lat="39.6091425" lon="20.9044422"><ele>482.0</ele><time>2026-04-27T06:49:11.202Z</time></trkpt><trkpt lat="39.6090061" lon="20.90454"><ele>482.0</ele><time>2026-04-27T06:49:12.201Z</time></trkpt><trkpt lat="39.6088724" lon="20.9046358"><ele>482.0</ele><time>2026-04-27T06:49:13.202Z</time></trkpt><trkpt lat="39.6087402" lon="20.9047344"><ele>482.0</ele><time>2026-04-27T06:49:14.201Z</time></trkpt><trkpt lat="39.6086105" lon="20.9048332"><ele>482.66666666666663</ele><time>2026-04-27T06:49:15.201Z</time></trkpt><trkpt lat="39.6084759" lon="20.9049296"><ele>483.33333333333337</ele><time>2026-04-27T06:49:16.201Z</time></trkpt><trkpt lat="39.6083425" lon="20.9050278"><ele>484.0</ele><time>2026-04-27T06:49:17.201Z</time></trkpt><trkpt lat="39.6082097" lon="20.9051256"><ele>484.0</ele><time>2026-04-27T06:49:18.202Z</time></trkpt><trkpt lat="39.6080746" lon="20.905221"><ele>484.0</ele><time>2026-04-27T06:49:19.202Z</time></trkpt><trkpt lat="39.6079384" lon="20.9053174"><ele>484.0</ele><time>2026-04-27T06:49:20.202Z</time></trkpt><trkpt lat="39.607802" lon="20.9054179"><ele>484.0</ele><time>2026-04-27T06:49:21.202Z</time></trkpt><trkpt lat="39.6076644" lon="20.9055152"><ele>484.0</ele><time>2026-04-27T06:49:22.202Z</time></trkpt><trkpt lat="39.6075251" lon="20.9056162"><ele>484.0</ele><time>2026-04-27T06:49:23.202Z</time></trkpt><trkpt lat="39.6073851" lon="20.9057185"><ele>484.0</ele><time>2026-04-27T06:49:24.202Z</time></trkpt><trkpt lat="39.6072453" lon="20.9058229"><ele>484.0</ele><time>2026-04-27T06:49:25.202Z</time></trkpt><trkpt lat="39.6071056" lon="20.9059266"><ele>484.0</ele><time>2026-04-27T06:49:26.201Z</time></trkpt><trkpt lat="39.606965" lon="20.9060301"><ele>483.75</ele><time>2026-04-27T06:49:27.202Z</time></trkpt><trkpt lat="39.6068284" lon="20.9061292"><ele>483.5</ele><time>2026-04-27T06:49:28.201Z</time></trkpt><trkpt lat="39.6067001" lon="20.9062257"><ele>483.25</ele><time>2026-04-27T06:49:29.201Z</time></trkpt><trkpt lat="39.6065767" lon="20.9063153"><ele>483.0</ele><time>2026-04-27T06:49:30.201Z</time></trkpt><trkpt lat="39.6064609" lon="20.9063975"><ele>483.0</ele><time>2026-04-27T06:49:31.202Z</time></trkpt><trkpt lat="39.6063511" lon="20.9064694"><ele>482.99999999999994</ele><time>2026-04-27T06:49:32.201Z</time></trkpt><trkpt lat="39.6062486" lon="20.906537"><ele>482.99999999999994</ele><time>2026-04-27T06:49:33.202Z</time></trkpt><trkpt lat="39.6061555" lon="20.9065962"><ele>483.0</ele><time>2026-04-27T06:49:34.201Z</time></trkpt><trkpt lat="39.6060755" lon="20.9066485"><ele>483.0</ele><time>2026-04-27T06:49:35.202Z</time></trkpt><trkpt lat="39.6060056" lon="20.9066921"><ele>483.6666666666667</ele><time>2026-04-27T06:49:36.201Z</time></trkpt><trkpt lat="39.6059047" lon="20.9067411"><ele>484.33333333333337</ele><time>2026-04-27T06:49:38.201Z</time></trkpt><trkpt lat="39.6058263" lon="20.9067428"><ele>485.0</ele><time>2026-04-27T06:49:40.201Z</time></trkpt><trkpt lat="39.605756" lon="20.9067245"><ele>485.6666666666667</ele><time>2026-04-27T06:49:43.201Z</time></trkpt><trkpt lat="39.6056983" lon="20.9067574"><ele>486.33333333333337</ele><time>2026-04-27T06:49:48.202Z</time></trkpt><trkpt lat="39.6056429" lon="20.9068174"><ele>487.0</ele><time>2026-04-27T06:49:53.201Z</time></trkpt><trkpt lat="39.605631" lon="20.9069183"><ele>487.1666666666667</ele><time>2026-04-27T06:50:16.201Z</time></trkpt><trkpt lat="39.6056488" lon="20.9069976"><ele>487.33333333333337</ele><time>2026-04-27T06:54:13.201Z</time></trkpt><trkpt lat="39.6055808" lon="20.9070528"><ele>487.5</ele><time>2026-04-27T06:54:14.201Z</time></trkpt><trkpt lat="39.6055163" lon="20.907111"><ele>487.66666666666663</ele><time>2026-04-27T06:54:15.2Z</time></trkpt><trkpt lat="39.6054345" lon="20.9071807"><ele>487.8333333333333</ele><time>2026-04-27T06:54:16.2Z</time></trkpt><trkpt lat="39.6053473" lon="20.9072525"><ele>488.0</ele><time>2026-04-27T06:54:17.201Z</time></trkpt><trkpt lat="39.6052461" lon="20.9073348"><ele>487.5</ele><time>2026-04-27T06:54:18.201Z</time></trkpt><trkpt lat="39.6051324" lon="20.9074283"><ele>487.0</ele><time>2026-04-27T06:54:19.2Z</time></trkpt><trkpt lat="39.6050159" lon="20.9075236"><ele>486.5</ele><time>2026-04-27T06:54:20.201Z</time></trkpt><trkpt lat="39.6048893" lon="20.9076275"><ele>486.0</ele><time>2026-04-27T06:54:21.2Z</time></trkpt><trkpt lat="39.6047551" lon="20.907736"><ele>486.0</ele><time>2026-04-27T06:54:22.2Z</time></trkpt><trkpt lat="39.6046141" lon="20.9078535"><ele>486.0</ele><time>2026-04-27T06:54:23.201Z</time></trkpt><trkpt lat="39.6044759" lon="20.9079695"><ele>486.0</ele><time>2026-04-27T06:54:24.201Z</time></trkpt><trkpt lat="39.60434" lon="20.9080788"><ele>485.66666666666663</ele><time>2026-04-27T06:54:25.2Z</time></trkpt><trkpt lat="39.6042022" lon="20.9081927"><ele>485.3333333333333</ele><time>2026-04-27T06:54:26.201Z</time></trkpt><trkpt lat="39.6040612" lon="20.908309"><ele>485.0</ele><time>2026-04-27T06:54:27.201Z</time></trkpt><trkpt lat="39.603917" lon="20.9084206"><ele>485.0</ele><time>2026-04-27T06:54:28.201Z</time></trkpt><trkpt lat="39.6037659" lon="20.9085324"><ele>485.0</ele><time>2026-04-27T06:54:29.2Z</time></trkpt><trkpt lat="39.6036112" lon="20.9086328"><ele>485.0</ele><time>2026-04-27T06:54:30.201Z</time></trkpt><trkpt lat="39.6034456" lon="20.9087247"><ele>485.66666666666663</ele><time>2026-04-27T06:54:31.201Z</time></trkpt><trkpt lat="39.6032843" lon="20.9087981"><ele>486.33333333333337</ele><time>2026-04-27T06:54:32.2Z</time></trkpt><trkpt lat="39.6031279" lon="20.9088548"><ele>487.0</ele><time>2026-04-27T06:54:33.2Z</time></trkpt><trkpt lat="39.6029727" lon="20.9089013"><ele>488.0</ele><time>2026-04-27T06:54:34.2Z</time></trkpt><trkpt lat="39.6028194" lon="20.9089328"><ele>489.0</ele><time>2026-04-27T06:54:35.2Z</time></trkpt><trkpt lat="39.6026648" lon="20.9089516"><ele>490.0</ele><time>2026-04-27T06:54:36.2Z</time></trkpt><trkpt lat="39.6025061" lon="20.9089588"><ele>490.0</ele><time>2026-04-27T06:54:37.201Z</time></trkpt><trkpt lat="39.6023458" lon="20.9089595"><ele>490.0</ele><time>2026-04-27T06:54:38.2Z</time></trkpt><trkpt lat="39.6021825" lon="20.9089573"><ele>490.0</ele><time>2026-04-27T06:54:39.2Z</time></trkpt><trkpt lat="39.6020175" lon="20.9089501"><ele>489.6666666666667</ele><time>2026-04-27T06:54:40.201Z</time></trkpt><trkpt lat="39.6018509" lon="20.9089445"><ele>489.33333333333337</ele><time>2026-04-27T06:54:41.2Z</time></trkpt><trkpt lat="39.6016849" lon="20.9089344"><ele>489.0</ele><time>2026-04-27T06:54:42.2Z</time></trkpt><trkpt lat="39.6015146" lon="20.9089266"><ele>489.0</ele><time>2026-04-27T06:54:43.201Z</time></trkpt><trkpt lat="39.6013445" lon="20.9089166"><ele>489.0</ele><time>2026-04-27T06:54:44.201Z</time></trkpt><trkpt lat="39.6011766" lon="20.9089085"><ele>489.0</ele><time>2026-04-27T06:54:45.2Z</time></trkpt><trkpt lat="39.6010084" lon="20.9088939"><ele>489.33333333333337</ele><time>2026-04-27T06:54:46.201Z</time></trkpt><trkpt lat="39.600837" lon="20.9088839"><ele>489.6666666666667</ele><time>2026-04-27T06:54:47.2Z</time></trkpt><trkpt lat="39.6006638" lon="20.9088798"><ele>490.0</ele><time>2026-04-27T06:54:48.201Z</time></trkpt><trkpt lat="39.6004909" lon="20.9088693"><ele>490.6666666666667</ele><time>2026-04-27T06:54:49.2Z</time></trkpt><trkpt lat="39.6003199" lon="20.9088565"><ele>491.33333333333337</ele><time>2026-04-27T06:54:50.2Z</time></trkpt><trkpt lat="39.6001585" lon="20.9088461"><ele>492.0</ele><time>2026-04-27T06:54:51.201Z</time></trkpt><trkpt lat="39.6000036" lon="20.9088346"><ele>492.0</ele><time>2026-04-27T06:54:52.201Z</time></trkpt><trkpt lat="39.5998543" lon="20.9088214"><ele>492.0</ele><time>2026-04-27T06:54:53.201Z</time></trkpt><trkpt lat="39.5997146" lon="20.9088111"><ele>492.0</ele><time>2026-04-27T06:54:54.2Z</time></trkpt><trkpt lat="39.5995824" lon="20.9088014"><ele>492.0</ele><time>2026-04-27T06:54:55.201Z</time></trkpt><trkpt lat="39.5994687" lon="20.9088007"><ele>491.8</ele><time>2026-04-27T06:54:56.2Z</time></trkpt><trkpt lat="39.5993556" lon="20.908791"><ele>491.6</ele><time>2026-04-27T06:54:57.2Z</time></trkpt><trkpt lat="39.5992482" lon="20.9087719"><ele>491.40000000000003</ele><time>2026-04-27T06:54:58.2Z</time></trkpt><trkpt lat="39.5991404" lon="20.908746"><ele>491.20000000000005</ele><time>2026-04-27T06:54:59.2Z</time></trkpt><trkpt lat="39.5990431" lon="20.9087173"><ele>491.0</ele><time>2026-04-27T06:55:00.201Z</time></trkpt><trkpt lat="39.5989581" lon="20.9086936"><ele>491.0</ele><time>2026-04-27T06:55:01.201Z</time></trkpt><trkpt lat="39.5988859" lon="20.9086777"><ele>491.0</ele><time>2026-04-27T06:55:02.201Z</time></trkpt><trkpt lat="39.5987718" lon="20.9086937"><ele>491.0</ele><time>2026-04-27T06:55:04.2Z</time></trkpt><trkpt lat="39.598727" lon="20.90882"><ele>491.0</ele><time>2026-04-27T06:55:06.2Z</time></trkpt><trkpt lat="39.5987257" lon="20.9089152"><ele>491.0</ele><time>2026-04-27T06:55:07.2Z</time></trkpt><trkpt lat="39.5987172" lon="20.9090318"><ele>491.0</ele><time>2026-04-27T06:55:08.2Z</time></trkpt><trkpt lat="39.5987009" lon="20.9091685"><ele>491.0</ele><time>2026-04-27T06:55:09.2Z</time></trkpt><trkpt lat="39.598687" lon="20.9093155"><ele>491.0</ele><time>2026-04-27T06:55:10.2Z</time></trkpt><trkpt lat="39.598664" lon="20.9094671"><ele>491.0</ele><time>2026-04-27T06:55:11.2Z</time></trkpt><trkpt lat="39.5986403" lon="20.9096298"><ele>492.25</ele><time>2026-04-27T06:55:12.2Z</time></trkpt><trkpt lat="39.5986184" lon="20.9098059"><ele>493.5</ele><time>2026-04-27T06:55:13.201Z</time></trkpt><trkpt lat="39.5985964" lon="20.9099893"><ele>494.75</ele><time>2026-04-27T06:55:14.201Z</time></trkpt><trkpt lat="39.5985684" lon="20.9101861"><ele>496.0</ele><time>2026-04-27T06:55:15.201Z</time></trkpt><trkpt lat="39.5985455" lon="20.9103748"><ele>496.33333333333337</ele><time>2026-04-27T06:55:16.201Z</time></trkpt><trkpt lat="39.5985242" lon="20.9105706"><ele>496.66666666666663</ele><time>2026-04-27T06:55:17.2Z</time></trkpt><trkpt lat="39.5985017" lon="20.9107672"><ele>497.0</ele><time>2026-04-27T06:55:18.2Z</time></trkpt><trkpt lat="39.5984791" lon="20.9109677"><ele>496.0</ele><time>2026-04-27T06:55:19.2Z</time></trkpt><trkpt lat="39.5984514" lon="20.9111687"><ele>495.0</ele><time>2026-04-27T06:55:20.201Z</time></trkpt><trkpt lat="39.5984307" lon="20.9113713"><ele>494.0</ele><time>2026-04-27T06:55:21.201Z</time></trkpt><trkpt lat="39.5983969" lon="20.9115662"><ele>493.5</ele><time>2026-04-27T06:55:22.201Z</time></trkpt><trkpt lat="39.5983658" lon="20.9117542"><ele>493.0</ele><time>2026-04-27T06:55:23.201Z</time></trkpt><trkpt lat="39.5983295" lon="20.9119269"><ele>492.5</ele><time>2026-04-27T06:55:24.2Z</time></trkpt><trkpt lat="39.5982934" lon="20.9120881"><ele>492.0</ele><time>2026-04-27T06:55:25.2Z</time></trkpt><trkpt lat="39.5982601" lon="20.912231"><ele>492.0</ele><time>2026-04-27T06:55:26.2Z</time></trkpt><trkpt lat="39.5982303" lon="20.9123612"><ele>492.00000000000006</ele><time>2026-04-27T06:55:27.2Z</time></trkpt><trkpt lat="39.5981942" lon="20.9124789"><ele>492.00000000000006</ele><time>2026-04-27T06:55:28.2Z</time></trkpt><trkpt lat="39.5981462" lon="20.9125719"><ele>492.0</ele><time>2026-04-27T06:55:29.2Z</time></trkpt><trkpt lat="39.5980778" lon="20.9126415"><ele>492.0</ele><time>2026-04-27T06:55:30.2Z</time></trkpt><trkpt lat="39.5979896" lon="20.9127133"><ele>492.0</ele><time>2026-04-27T06:55:31.2Z</time></trkpt><trkpt lat="39.5978917" lon="20.9127897"><ele>492.0</ele><time>2026-04-27T06:55:32.201Z</time></trkpt><trkpt lat="39.5977776" lon="20.9128837"><ele>492.0</ele><time>2026-04-27T06:55:33.201Z</time></trkpt><trkpt lat="39.5976542" lon="20.9129883"><ele>492.0</ele><time>2026-04-27T06:55:34.201Z</time></trkpt><trkpt lat="39.5975265" lon="20.9130973"><ele>492.0</ele><time>2026-04-27T06:55:35.201Z</time></trkpt><trkpt lat="39.5973849" lon="20.9132069"><ele>492.0</ele><time>2026-04-27T06:55:36.2Z</time></trkpt><trkpt lat="39.5972311" lon="20.9133237"><ele>492.0</ele><time>2026-04-27T06:55:37.201Z</time></trkpt><trkpt lat="39.5970727" lon="20.9134374"><ele>493.0</ele><time>2026-04-27T06:55:38.201Z</time></trkpt><trkpt lat="39.5969044" lon="20.9135463"><ele>494.0</ele><time>2026-04-27T06:55:39.201Z</time></trkpt><trkpt lat="39.596727" lon="20.9136182"><ele>495.0</ele><time>2026-04-27T06:55:40.2Z</time></trkpt><trkpt lat="39.5965429" lon="20.9136581"><ele>495.0</ele><time>2026-04-27T06:55:41.2Z</time></trkpt><trkpt lat="39.5963611" lon="20.9136843"><ele>495.0</ele><time>2026-04-27T06:55:42.201Z</time></trkpt><trkpt lat="39.5961897" lon="20.9137136"><ele>495.0</ele><time>2026-04-27T06:55:43.201Z</time></trkpt><trkpt lat="39.5960291" lon="20.9137439"><ele>496.0</ele><time>2026-04-27T06:55:44.2Z</time></trkpt><trkpt lat="39.5958709" lon="20.9137787"><ele>497.0</ele><time>2026-04-27T06:55:45.2Z</time></trkpt><trkpt lat="39.5957217" lon="20.9138187"><ele>498.0</ele><time>2026-04-27T06:55:46.2Z</time></trkpt><trkpt lat="39.5955781" lon="20.9138621"><ele>498.0</ele><time>2026-04-27T06:55:47.2Z</time></trkpt><trkpt lat="39.5954379" lon="20.9139033"><ele>498.0</ele><time>2026-04-27T06:55:48.2Z</time></trkpt><trkpt lat="39.5952943" lon="20.9139456"><ele>498.0</ele><time>2026-04-27T06:55:49.2Z</time></trkpt><trkpt lat="39.5951469" lon="20.9139874"><ele>498.0</ele><time>2026-04-27T06:55:50.201Z</time></trkpt><trkpt lat="39.5949963" lon="20.9140288"><ele>497.33333333333337</ele><time>2026-04-27T06:55:51.2Z</time></trkpt><trkpt lat="39.5948421" lon="20.9140755"><ele>496.6666666666667</ele><time>2026-04-27T06:55:52.201Z</time></trkpt><trkpt lat="39.594685" lon="20.9141228"><ele>496.0</ele><time>2026-04-27T06:55:53.2Z</time></trkpt><trkpt lat="39.5945176" lon="20.9141798"><ele>496.0</ele><time>2026-04-27T06:55:54.201Z</time></trkpt><trkpt lat="39.5943391" lon="20.9142347"><ele>496.0</ele><time>2026-04-27T06:55:55.2Z</time></trkpt><trkpt lat="39.5941493" lon="20.9142891"><ele>496.0</ele><time>2026-04-27T06:55:56.2Z</time></trkpt><trkpt lat="39.5939614" lon="20.9143398"><ele>496.0</ele><time>2026-04-27T06:55:57.2Z</time></trkpt><trkpt lat="39.5937887" lon="20.9143898"><ele>496.0</ele><time>2026-04-27T06:55:58.2Z</time></trkpt><trkpt lat="39.5936192" lon="20.9144475"><ele>496.0</ele><time>2026-04-27T06:55:59.2Z</time></trkpt><trkpt lat="39.5934559" lon="20.9145019"><ele>496.0</ele><time>2026-04-27T06:56:00.2Z</time></trkpt><trkpt lat="39.5932961" lon="20.9145569"><ele>496.0</ele><time>2026-04-27T06:56:01.201Z</time></trkpt><trkpt lat="39.5931375" lon="20.9146121"><ele>496.0</ele><time>2026-04-27T06:56:02.201Z</time></trkpt><trkpt lat="39.5929774" lon="20.9146717"><ele>496.33333333333337</ele><time>2026-04-27T06:56:03.2Z</time></trkpt><trkpt lat="39.5928133" lon="20.914732"><ele>496.66666666666663</ele><time>2026-04-27T06:56:04.201Z</time></trkpt><trkpt lat="39.5926493" lon="20.9147941"><ele>497.0</ele><time>2026-04-27T06:56:05.201Z</time></trkpt><trkpt lat="39.5924841" lon="20.914858"><ele>497.0</ele><time>2026-04-27T06:56:06.2Z</time></trkpt><trkpt lat="39.5923192" lon="20.9149158"><ele>497.0</ele><time>2026-04-27T06:56:07.201Z</time></trkpt><trkpt lat="39.5921547" lon="20.9149731"><ele>497.0</ele><time>2026-04-27T06:56:08.201Z</time></trkpt><trkpt lat="39.5919941" lon="20.9150292"><ele>498.66666666666663</ele><time>2026-04-27T06:56:09.2Z</time></trkpt><trkpt lat="39.5918353" lon="20.9150878"><ele>500.33333333333337</ele><time>2026-04-27T06:56:10.201Z</time></trkpt><trkpt lat="39.5916799" lon="20.9151524"><ele>502.0</ele><time>2026-04-27T06:56:11.201Z</time></trkpt><trkpt lat="39.5915274" lon="20.9152223"><ele>502.0</ele><time>2026-04-27T06:56:12.2Z</time></trkpt><trkpt lat="39.5913751" lon="20.9152942"><ele>502.0</ele><time>2026-04-27T06:56:13.2Z</time></trkpt><trkpt lat="39.5912233" lon="20.9153691"><ele>502.0</ele><time>2026-04-27T06:56:14.2Z</time></trkpt><trkpt lat="39.5910694" lon="20.9154462"><ele>501.6666666666667</ele><time>2026-04-27T06:56:15.2Z</time></trkpt><trkpt lat="39.5909144" lon="20.9155313"><ele>501.33333333333337</ele><time>2026-04-27T06:56:16.2Z</time></trkpt><trkpt lat="39.5907585" lon="20.9156169"><ele>501.0</ele><time>2026-04-27T06:56:17.201Z</time></trkpt><trkpt lat="39.5906048" lon="20.9156998"><ele>501.0</ele><time>2026-04-27T06:56:18.201Z</time></trkpt><trkpt lat="39.590454" lon="20.9157812"><ele>501.0</ele><time>2026-04-27T06:56:19.201Z</time></trkpt><trkpt lat="39.5903123" lon="20.9158651"><ele>501.0</ele><time>2026-04-27T06:56:20.2Z</time></trkpt><trkpt lat="39.5901733" lon="20.9159471"><ele>503.33333333333337</ele><time>2026-04-27T06:56:21.201Z</time></trkpt><trkpt lat="39.5900341" lon="20.9160245"><ele>505.6666666666667</ele><time>2026-04-27T06:56:22.2Z</time></trkpt><trkpt lat="39.5898986" lon="20.9161001"><ele>508.0</ele><time>2026-04-27T06:56:23.2Z</time></trkpt><trkpt lat="39.5897554" lon="20.9161734"><ele>508.0</ele><time>2026-04-27T06:56:24.2Z</time></trkpt><trkpt lat="39.5896126" lon="20.9162504"><ele>508.0</ele><time>2026-04-27T06:56:25.2Z</time></trkpt><trkpt lat="39.5894781" lon="20.9163277"><ele>508.0</ele><time>2026-04-27T06:56:26.2Z</time></trkpt><trkpt lat="39.5893488" lon="20.9164045"><ele>508.0</ele><time>2026-04-27T06:56:27.201Z</time></trkpt><trkpt lat="39.5892214" lon="20.9164773"><ele>507.25</ele><time>2026-04-27T06:56:28.2Z</time></trkpt><trkpt lat="39.5890961" lon="20.9165466"><ele>506.5</ele><time>2026-04-27T06:56:29.201Z</time></trkpt><trkpt lat="39.5889722" lon="20.9166059"><ele>505.75</ele><time>2026-04-27T06:56:30.201Z</time></trkpt><trkpt lat="39.5888542" lon="20.9166456"><ele>505.0</ele><time>2026-04-27T06:56:31.201Z</time></trkpt><trkpt lat="39.5887406" lon="20.9166928"><ele>503.5</ele><time>2026-04-27T06:56:32.2Z</time></trkpt><trkpt lat="39.5886302" lon="20.9167662"><ele>502.0</ele><time>2026-04-27T06:56:33.2Z</time></trkpt><trkpt lat="39.5885274" lon="20.9168662"><ele>500.5</ele><time>2026-04-27T06:56:34.2Z</time></trkpt><trkpt lat="39.5884297" lon="20.916985"><ele>499.0</ele><time>2026-04-27T06:56:35.2Z</time></trkpt><trkpt lat="39.5883365" lon="20.9171227"><ele>499.0</ele><time>2026-04-27T06:56:36.2Z</time></trkpt><trkpt lat="39.5882486" lon="20.9172807"><ele>499.0</ele><time>2026-04-27T06:56:37.2Z</time></trkpt><trkpt lat="39.5881617" lon="20.9174624"><ele>499.0</ele><time>2026-04-27T06:56:38.201Z</time></trkpt><trkpt lat="39.5880761" lon="20.9176586"><ele>499.0</ele><time>2026-04-27T06:56:39.2Z</time></trkpt><trkpt lat="39.5879941" lon="20.9178534"><ele>499.0</ele><time>2026-04-27T06:56:40.2Z</time></trkpt><trkpt lat="39.5879106" lon="20.9180512"><ele>499.0</ele><time>2026-04-27T06:56:41.2Z</time></trkpt><trkpt lat="39.5878268" lon="20.9182494"><ele>499.6666666666667</ele><time>2026-04-27T06:56:42.201Z</time></trkpt><trkpt lat="39.5877418" lon="20.9184505"><ele>500.33333333333337</ele><time>2026-04-27T06:56:43.2Z</time></trkpt><trkpt lat="39.587658" lon="20.9186442"><ele>501.0</ele><time>2026-04-27T06:56:44.2Z</time></trkpt><trkpt lat="39.5875805" lon="20.9188375"><ele>501.0</ele><time>2026-04-27T06:56:45.201Z</time></trkpt><trkpt lat="39.5875148" lon="20.919035"><ele>501.0</ele><time>2026-04-27T06:56:46.201Z</time></trkpt><trkpt lat="39.5874736" lon="20.9192261"><ele>501.0</ele><time>2026-04-27T06:56:47.201Z</time></trkpt><trkpt lat="39.5874594" lon="20.9194212"><ele>500.66666666666663</ele><time>2026-04-27T06:56:48.2Z</time></trkpt><trkpt lat="39.5874737" lon="20.9196162"><ele>500.3333333333333</ele><time>2026-04-27T06:56:49.201Z</time></trkpt><trkpt lat="39.5874985" lon="20.9198103"><ele>500.0</ele><time>2026-04-27T06:56:50.201Z</time></trkpt><trkpt lat="39.5875115" lon="20.9200104"><ele>498.75</ele><time>2026-04-27T06:56:51.201Z</time></trkpt><trkpt lat="39.5875171" lon="20.9202068"><ele>497.5</ele><time>2026-04-27T06:56:52.2Z</time></trkpt><trkpt lat="39.5874669" lon="20.9203791"><ele>496.25</ele><time>2026-04-27T06:56:53.2Z</time></trkpt><trkpt lat="39.587387" lon="20.9205362"><ele>495.0</ele><time>2026-04-27T06:56:54.2Z</time></trkpt><trkpt lat="39.5872786" lon="20.9206717"><ele>495.0</ele><time>2026-04-27T06:56:55.2Z</time></trkpt><trkpt lat="39.5871553" lon="20.9207951"><ele>495.0</ele><time>2026-04-27T06:56:56.201Z</time></trkpt><trkpt lat="39.5870167" lon="20.9209135"><ele>495.0</ele><time>2026-04-27T06:56:57.2Z</time></trkpt><trkpt lat="39.5868676" lon="20.9210231"><ele>494.33333333333337</ele><time>2026-04-27T06:56:58.2Z</time></trkpt><trkpt lat="39.5867162" lon="20.9211351"><ele>493.6666666666667</ele><time>2026-04-27T06:56:59.201Z</time></trkpt><trkpt lat="39.5865609" lon="20.9212518"><ele>493.0</ele><time>2026-04-27T06:57:00.201Z</time></trkpt><trkpt lat="39.5864036" lon="20.9213737"><ele>493.0</ele><time>2026-04-27T06:57:01.201Z</time></trkpt><trkpt lat="39.5862415" lon="20.9215029"><ele>493.0</ele><time>2026-04-27T06:57:02.2Z</time></trkpt><trkpt lat="39.5860788" lon="20.9216324"><ele>493.0</ele><time>2026-04-27T06:57:03.201Z</time></trkpt><trkpt lat="39.585914" lon="20.9217662"><ele>492.0</ele><time>2026-04-27T06:57:04.2Z</time></trkpt><trkpt lat="39.5857497" lon="20.9218983"><ele>491.0</ele><time>2026-04-27T06:57:05.2Z</time></trkpt><trkpt lat="39.5855838" lon="20.92203"><ele>490.0</ele><time>2026-04-27T06:57:06.2Z</time></trkpt><trkpt lat="39.585417" lon="20.9221621"><ele>492.33333333333337</ele><time>2026-04-27T06:57:07.2Z</time></trkpt><trkpt lat="39.5852488" lon="20.9222934"><ele>494.66666666666663</ele><time>2026-04-27T06:57:08.201Z</time></trkpt><trkpt lat="39.5850782" lon="20.9224207"><ele>497.0</ele><time>2026-04-27T06:57:09.201Z</time></trkpt><trkpt lat="39.5849063" lon="20.9225411"><ele>496.3333333333333</ele><time>2026-04-27T06:57:10.2Z</time></trkpt><trkpt lat="39.5847337" lon="20.9226514"><ele>495.66666666666663</ele><time>2026-04-27T06:57:11.201Z</time></trkpt><trkpt lat="39.5845596" lon="20.9227578"><ele>495.0</ele><time>2026-04-27T06:57:12.2Z</time></trkpt><trkpt lat="39.5843818" lon="20.9228604"><ele>495.0</ele><time>2026-04-27T06:57:13.2Z</time></trkpt><trkpt lat="39.5842018" lon="20.9229621"><ele>495.0</ele><time>2026-04-27T06:57:14.201Z</time></trkpt><trkpt lat="39.5840229" lon="20.9230589"><ele>495.0</ele><time>2026-04-27T06:57:15.201Z</time></trkpt><trkpt lat="39.583844" lon="20.9231494"><ele>497.33333333333337</ele><time>2026-04-27T06:57:16.2Z</time></trkpt><trkpt lat="39.5836656" lon="20.9232345"><ele>499.6666666666667</ele><time>2026-04-27T06:57:17.201Z</time></trkpt><trkpt lat="39.5834892" lon="20.9233172"><ele>502.0</ele><time>2026-04-27T06:57:18.201Z</time></trkpt><trkpt lat="39.5833104" lon="20.9233876"><ele>499.0</ele><time>2026-04-27T06:57:19.2Z</time></trkpt><trkpt lat="39.5831294" lon="20.9234486"><ele>496.0</ele><time>2026-04-27T06:57:20.2Z</time></trkpt><trkpt lat="39.5829403" lon="20.9234881"><ele>493.0</ele><time>2026-04-27T06:57:21.201Z</time></trkpt><trkpt lat="39.5827436" lon="20.923516"><ele>493.0</ele><time>2026-04-27T06:57:22.2Z</time></trkpt><trkpt lat="39.5825492" lon="20.9235238"><ele>493.0</ele><time>2026-04-27T06:57:23.201Z</time></trkpt><trkpt lat="39.5823646" lon="20.9235199"><ele>493.0</ele><time>2026-04-27T06:57:24.201Z</time></trkpt><trkpt lat="39.5821882" lon="20.9235182"><ele>493.0</ele><time>2026-04-27T06:57:25.201Z</time></trkpt><trkpt lat="39.5820198" lon="20.9235145"><ele>493.0</ele><time>2026-04-27T06:57:26.2Z</time></trkpt><trkpt lat="39.5818702" lon="20.9235155"><ele>493.0</ele><time>2026-04-27T06:57:27.201Z</time></trkpt><trkpt lat="39.581739" lon="20.9235331"><ele>494.25</ele><time>2026-04-27T06:57:28.2Z</time></trkpt><trkpt lat="39.5816174" lon="20.9235804"><ele>495.5</ele><time>2026-04-27T06:57:29.2Z</time></trkpt><trkpt lat="39.5815065" lon="20.9236664"><ele>496.75</ele><time>2026-04-27T06:57:30.201Z</time></trkpt><trkpt lat="39.5814098" lon="20.9237889"><ele>498.0</ele><time>2026-04-27T06:57:31.201Z</time></trkpt><trkpt lat="39.5813405" lon="20.9239372"><ele>498.0</ele><time>2026-04-27T06:57:32.201Z</time></trkpt><trkpt lat="39.5812991" lon="20.9241198"><ele>498.0</ele><time>2026-04-27T06:57:33.2Z</time></trkpt><trkpt lat="39.5812797" lon="20.9243285"><ele>498.0</ele><time>2026-04-27T06:57:34.201Z</time></trkpt><trkpt lat="39.5812755" lon="20.9245636"><ele>497.33333333333337</ele><time>2026-04-27T06:57:35.2Z</time></trkpt><trkpt lat="39.5812884" lon="20.9248265"><ele>496.6666666666667</ele><time>2026-04-27T06:57:36.2Z</time></trkpt><trkpt lat="39.5812996" lon="20.9251037"><ele>496.0</ele><time>2026-04-27T06:57:37.201Z</time></trkpt><trkpt lat="39.5813015" lon="20.9254061"><ele>496.0</ele><time>2026-04-27T06:57:38.201Z</time></trkpt><trkpt lat="39.581305" lon="20.9257347"><ele>496.0</ele><time>2026-04-27T06:57:39.2Z</time></trkpt><trkpt lat="39.5813101" lon="20.9260855"><ele>496.0</ele><time>2026-04-27T06:57:40.2Z</time></trkpt><trkpt lat="39.5813189" lon="20.9264315"><ele>496.0</ele><time>2026-04-27T06:57:41.2Z</time></trkpt><trkpt lat="39.5813318" lon="20.9267708"><ele>495.0</ele><time>2026-04-27T06:57:42.201Z</time></trkpt><trkpt lat="39.5813438" lon="20.9271033"><ele>494.0</ele><time>2026-04-27T06:57:43.201Z</time></trkpt><trkpt lat="39.581357" lon="20.9274319"><ele>493.5</ele><time>2026-04-27T06:57:44.2Z</time></trkpt><trkpt lat="39.5813725" lon="20.9277554"><ele>493.0</ele><time>2026-04-27T06:57:45.201Z</time></trkpt><trkpt lat="39.5813824" lon="20.9280681"><ele>493.0</ele><time>2026-04-27T06:57:46.201Z</time></trkpt><trkpt lat="39.5813933" lon="20.9283743"><ele>493.0</ele><time>2026-04-27T06:57:47.201Z</time></trkpt><trkpt lat="39.5814041" lon="20.9286777"><ele>492.5</ele><time>2026-04-27T06:57:48.2Z</time></trkpt><trkpt lat="39.5814165" lon="20.9289782"><ele>492.0</ele><time>2026-04-27T06:57:49.2Z</time></trkpt><trkpt lat="39.5814284" lon="20.92928"><ele>493.0</ele><time>2026-04-27T06:57:50.201Z</time></trkpt><trkpt lat="39.581437" lon="20.9295777"><ele>494.0</ele><time>2026-04-27T06:57:51.2Z</time></trkpt><trkpt lat="39.5814497" lon="20.9298784"><ele>493.0</ele><time>2026-04-27T06:57:52.2Z</time></trkpt><trkpt lat="39.5814611" lon="20.9301791"><ele>492.0</ele><time>2026-04-27T06:57:53.201Z</time></trkpt><trkpt lat="39.5814743" lon="20.9304831"><ele>492.0</ele><time>2026-04-27T06:57:54.201Z</time></trkpt><trkpt lat="39.5814851" lon="20.9307878"><ele>492.0</ele><time>2026-04-27T06:57:55.201Z</time></trkpt><trkpt lat="39.5814922" lon="20.9310962"><ele>491.5</ele><time>2026-04-27T06:57:56.2Z</time></trkpt><trkpt lat="39.5814993" lon="20.9314068"><ele>491.0</ele><time>2026-04-27T06:57:57.2Z</time></trkpt><trkpt lat="39.5815096" lon="20.9317174"><ele>491.5</ele><time>2026-04-27T06:57:58.2Z</time></trkpt><trkpt lat="39.5815235" lon="20.9320323"><ele>492.0</ele><time>2026-04-27T06:57:59.201Z</time></trkpt><trkpt lat="39.5815335" lon="20.932345"><ele>493.0</ele><time>2026-04-27T06:58:00.201Z</time></trkpt><trkpt lat="39.5815418" lon="20.9326572"><ele>494.0</ele><time>2026-04-27T06:58:01.2Z</time></trkpt><trkpt lat="39.5815503" lon="20.9329705"><ele>494.0</ele><time>2026-04-27T06:58:02.2Z</time></trkpt><trkpt lat="39.5815639" lon="20.9332829"><ele>494.0</ele><time>2026-04-27T06:58:03.201Z</time></trkpt><trkpt lat="39.5815729" lon="20.933602"><ele>493.0</ele><time>2026-04-27T06:58:04.2Z</time></trkpt><trkpt lat="39.5815808" lon="20.9339118"><ele>492.0</ele><time>2026-04-27T06:58:05.2Z</time></trkpt><trkpt lat="39.5815933" lon="20.9342151"><ele>492.33333333333337</ele><time>2026-04-27T06:58:06.2Z</time></trkpt><trkpt lat="39.5816042" lon="20.9345049"><ele>492.6666666666667</ele><time>2026-04-27T06:58:07.201Z</time></trkpt><trkpt lat="39.5816132" lon="20.9347754"><ele>493.0</ele><time>2026-04-27T06:58:08.2Z</time></trkpt><trkpt lat="39.581619" lon="20.9350417"><ele>493.0</ele><time>2026-04-27T06:58:09.201Z</time></trkpt><trkpt lat="39.5816119" lon="20.9353058"><ele>493.0</ele><time>2026-04-27T06:58:10.2Z</time></trkpt><trkpt lat="39.5815919" lon="20.9355611"><ele>493.0</ele><time>2026-04-27T06:58:11.2Z</time></trkpt><trkpt lat="39.581541" lon="20.9358026"><ele>493.0</ele><time>2026-04-27T06:58:12.2Z</time></trkpt><trkpt lat="39.581476" lon="20.9360277"><ele>493.0</ele><time>2026-04-27T06:58:13.2Z</time></trkpt><trkpt lat="39.5813972" lon="20.9362451"><ele>493.0</ele><time>2026-04-27T06:58:14.201Z</time></trkpt><trkpt lat="39.5813232" lon="20.9364627"><ele>493.0</ele><time>2026-04-27T06:58:15.201Z</time></trkpt><trkpt lat="39.5812561" lon="20.9366877"><ele>493.0</ele><time>2026-04-27T06:58:16.201Z</time></trkpt><trkpt lat="39.5812107" lon="20.9369241"><ele>493.0</ele><time>2026-04-27T06:58:17.201Z</time></trkpt><trkpt lat="39.5811858" lon="20.9371783"><ele>494.0</ele><time>2026-04-27T06:58:18.201Z</time></trkpt><trkpt lat="39.5811735" lon="20.9374435"><ele>495.0</ele><time>2026-04-27T06:58:19.201Z</time></trkpt><trkpt lat="39.5811669" lon="20.9377157"><ele>496.0</ele><time>2026-04-27T06:58:20.201Z</time></trkpt><trkpt lat="39.5811735" lon="20.9379949"><ele>494.33333333333337</ele><time>2026-04-27T06:58:21.201Z</time></trkpt><trkpt lat="39.5811888" lon="20.9382737"><ele>492.66666666666663</ele><time>2026-04-27T06:58:22.2Z</time></trkpt><trkpt lat="39.5812039" lon="20.9385538"><ele>491.0</ele><time>2026-04-27T06:58:23.2Z</time></trkpt><trkpt lat="39.5812121" lon="20.9388281"><ele>490.66666666666663</ele><time>2026-04-27T06:58:24.2Z</time></trkpt><trkpt lat="39.5812187" lon="20.9391005"><ele>490.33333333333337</ele><time>2026-04-27T06:58:25.201Z</time></trkpt><trkpt lat="39.5812237" lon="20.9393755"><ele>490.0</ele><time>2026-04-27T06:58:26.2Z</time></trkpt><trkpt lat="39.5812289" lon="20.9396376"><ele>490.0</ele><time>2026-04-27T06:58:27.201Z</time></trkpt><trkpt lat="39.5812284" lon="20.9398935"><ele>490.0</ele><time>2026-04-27T06:58:28.201Z</time></trkpt><trkpt lat="39.5812202" lon="20.9401474"><ele>490.0</ele><time>2026-04-27T06:58:29.2Z</time></trkpt><trkpt lat="39.5811941" lon="20.9404046"><ele>491.6666666666667</ele><time>2026-04-27T06:58:30.201Z</time></trkpt><trkpt lat="39.5811505" lon="20.940657"><ele>493.33333333333337</ele><time>2026-04-27T06:58:31.201Z</time></trkpt><trkpt lat="39.5811" lon="20.9409128"><ele>495.0</ele><time>2026-04-27T06:58:32.2Z</time></trkpt><trkpt lat="39.5810435" lon="20.9411694"><ele>495.0</ele><time>2026-04-27T06:58:33.201Z</time></trkpt><trkpt lat="39.5809879" lon="20.9414197"><ele>495.0</ele><time>2026-04-27T06:58:34.201Z</time></trkpt><trkpt lat="39.5809355" lon="20.9416743"><ele>495.0</ele><time>2026-04-27T06:58:35.2Z</time></trkpt><trkpt lat="39.580901" lon="20.9419204"><ele>495.0</ele><time>2026-04-27T06:58:36.201Z</time></trkpt><trkpt lat="39.5808923" lon="20.9421626"><ele>495.0</ele><time>2026-04-27T06:58:37.201Z</time></trkpt><trkpt lat="39.5809071" lon="20.9424177"><ele>495.0</ele><time>2026-04-27T06:58:38.2Z</time></trkpt><trkpt lat="39.5809384" lon="20.9426571"><ele>495.0</ele><time>2026-04-27T06:58:39.201Z</time></trkpt><trkpt lat="39.580984" lon="20.9429016"><ele>495.0</ele><time>2026-04-27T06:58:40.2Z</time></trkpt><trkpt lat="39.5810364" lon="20.9431413"><ele>495.0</ele><time>2026-04-27T06:58:41.201Z</time></trkpt><trkpt lat="39.5811002" lon="20.9433715"><ele>495.33333333333337</ele><time>2026-04-27T06:58:42.2Z</time></trkpt><trkpt lat="39.5811821" lon="20.9435931"><ele>495.6666666666667</ele><time>2026-04-27T06:58:43.201Z</time></trkpt><trkpt lat="39.5812842" lon="20.9438003"><ele>496.0</ele><time>2026-04-27T06:58:44.201Z</time></trkpt><trkpt lat="39.5814034" lon="20.9439955"><ele>496.0</ele><time>2026-04-27T06:58:45.201Z</time></trkpt><trkpt lat="39.5815349" lon="20.9441765"><ele>496.0</ele><time>2026-04-27T06:58:46.201Z</time></trkpt><trkpt lat="39.5816739" lon="20.9443501"><ele>496.0</ele><time>2026-04-27T06:58:47.2Z</time></trkpt><trkpt lat="39.5818127" lon="20.9445248"><ele>496.0</ele><time>2026-04-27T06:58:48.2Z</time></trkpt><trkpt lat="39.5819501" lon="20.9447053"><ele>496.0</ele><time>2026-04-27T06:58:49.201Z</time></trkpt><trkpt lat="39.5820903" lon="20.9448868"><ele>496.0</ele><time>2026-04-27T06:58:50.201Z</time></trkpt><trkpt lat="39.5822414" lon="20.9450592"><ele>497.33333333333337</ele><time>2026-04-27T06:58:51.201Z</time></trkpt><trkpt lat="39.582403" lon="20.9452267"><ele>498.66666666666663</ele><time>2026-04-27T06:58:52.201Z</time></trkpt><trkpt lat="39.5825693" lon="20.9453793"><ele>500.0</ele><time>2026-04-27T06:58:53.2Z</time></trkpt><trkpt lat="39.5827402" lon="20.9455274"><ele>499.3333333333333</ele><time>2026-04-27T06:58:54.2Z</time></trkpt><trkpt lat="39.582912" lon="20.9456726"><ele>498.66666666666663</ele><time>2026-04-27T06:58:55.2Z</time></trkpt><trkpt lat="39.583084" lon="20.9458212"><ele>498.0</ele><time>2026-04-27T06:58:56.2Z</time></trkpt><trkpt lat="39.5832546" lon="20.9459702"><ele>497.33333333333337</ele><time>2026-04-27T06:58:57.201Z</time></trkpt><trkpt lat="39.5834229" lon="20.9461151"><ele>496.6666666666667</ele><time>2026-04-27T06:58:58.2Z</time></trkpt><trkpt lat="39.5835775" lon="20.9462519"><ele>496.0</ele><time>2026-04-27T06:58:59.201Z</time></trkpt><trkpt lat="39.5837201" lon="20.9463828"><ele>496.0</ele><time>2026-04-27T06:59:00.2Z</time></trkpt><trkpt lat="39.583837" lon="20.9465044"><ele>496.0</ele><time>2026-04-27T06:59:01.201Z</time></trkpt><trkpt lat="39.5839237" lon="20.946624"><ele>496.0</ele><time>2026-04-27T06:59:02.201Z</time></trkpt><trkpt lat="39.5839867" lon="20.9467627"><ele>496.0</ele><time>2026-04-27T06:59:03.201Z</time></trkpt><trkpt lat="39.5840231" lon="20.9469246"><ele>497.6666666666667</ele><time>2026-04-27T06:59:04.2Z</time></trkpt><trkpt lat="39.5840449" lon="20.9471067"><ele>499.33333333333337</ele><time>2026-04-27T06:59:05.2Z</time></trkpt><trkpt lat="39.5840508" lon="20.9473065"><ele>501.0</ele><time>2026-04-27T06:59:06.2Z</time></trkpt><trkpt lat="39.5840465" lon="20.9475155"><ele>501.66666666666663</ele><time>2026-04-27T06:59:07.201Z</time></trkpt><trkpt lat="39.5840304" lon="20.9477244"><ele>502.3333333333333</ele><time>2026-04-27T06:59:08.2Z</time></trkpt><trkpt lat="39.5840149" lon="20.9479391"><ele>503.0</ele><time>2026-04-27T06:59:09.2Z</time></trkpt><trkpt lat="39.5839987" lon="20.9481564"><ele>504.3333333333333</ele><time>2026-04-27T06:59:10.201Z</time></trkpt><trkpt lat="39.5839882" lon="20.9483835"><ele>505.66666666666663</ele><time>2026-04-27T06:59:11.2Z</time></trkpt><trkpt lat="39.5839878" lon="20.9486056"><ele>507.0</ele><time>2026-04-27T06:59:12.201Z</time></trkpt><trkpt lat="39.5839846" lon="20.9488306"><ele>507.0</ele><time>2026-04-27T06:59:13.201Z</time></trkpt><trkpt lat="39.5839943" lon="20.9490476"><ele>507.0</ele><time>2026-04-27T06:59:14.201Z</time></trkpt><trkpt lat="39.5839924" lon="20.9492555"><ele>507.0</ele><time>2026-04-27T06:59:15.201Z</time></trkpt><trkpt lat="39.5839854" lon="20.9494471"><ele>508.25</ele><time>2026-04-27T06:59:16.2Z</time></trkpt><trkpt lat="39.583962" lon="20.9496309"><ele>509.5</ele><time>2026-04-27T06:59:17.2Z</time></trkpt><trkpt lat="39.583911" lon="20.9498241"><ele>510.75</ele><time>2026-04-27T06:59:18.2Z</time></trkpt><trkpt lat="39.5838515" lon="20.9499971"><ele>512.0</ele><time>2026-04-27T06:59:19.2Z</time></trkpt><trkpt lat="39.5837915" lon="20.9501428"><ele>513.0</ele><time>2026-04-27T06:59:20.201Z</time></trkpt><trkpt lat="39.5837319" lon="20.9502779"><ele>514.0</ele><time>2026-04-27T06:59:21.201Z</time></trkpt><trkpt lat="39.583678" lon="20.9504221"><ele>515.0</ele><time>2026-04-27T06:59:22.201Z</time></trkpt><trkpt lat="39.5836343" lon="20.9505805"><ele>516.0</ele><time>2026-04-27T06:59:23.2Z</time></trkpt><trkpt lat="39.5835994" lon="20.9507449"><ele>518.8</ele><time>2026-04-27T06:59:24.201Z</time></trkpt><trkpt lat="39.5835736" lon="20.9509055"><ele>521.6</ele><time>2026-04-27T06:59:25.2Z</time></trkpt><trkpt lat="39.5835484" lon="20.9510492"><ele>524.4</ele><time>2026-04-27T06:59:26.201Z</time></trkpt><trkpt lat="39.5835074" lon="20.9511688"><ele>527.2</ele><time>2026-04-27T06:59:27.201Z</time></trkpt><trkpt lat="39.5834512" lon="20.9512517"><ele>530.0</ele><time>2026-04-27T06:59:28.201Z</time></trkpt><trkpt lat="39.5833612" lon="20.9512979"><ele>530.0</ele><time>2026-04-27T06:59:29.201Z</time></trkpt><trkpt lat="39.583253" lon="20.9513256"><ele>530.0</ele><time>2026-04-27T06:59:30.201Z</time></trkpt><trkpt lat="39.5831329" lon="20.9513694"><ele>530.0</ele><time>2026-04-27T06:59:31.2Z</time></trkpt><trkpt lat="39.5830082" lon="20.9514507"><ele>530.0</ele><time>2026-04-27T06:59:32.201Z</time></trkpt><trkpt lat="39.5828821" lon="20.9515578"><ele>532.0</ele><time>2026-04-27T06:59:33.201Z</time></trkpt><trkpt lat="39.5827629" lon="20.9516842"><ele>534.0</ele><time>2026-04-27T06:59:34.2Z</time></trkpt><trkpt lat="39.5826402" lon="20.9518315"><ele>536.0</ele><time>2026-04-27T06:59:35.2Z</time></trkpt><trkpt lat="39.5825178" lon="20.9519878"><ele>538.0</ele><time>2026-04-27T06:59:36.2Z</time></trkpt><trkpt lat="39.5823988" lon="20.9521468"><ele>540.0</ele><time>2026-04-27T06:59:37.2Z</time></trkpt><trkpt lat="39.5822821" lon="20.9523054"><ele>542.0</ele><time>2026-04-27T06:59:38.2Z</time></trkpt><trkpt lat="39.5821609" lon="20.9524508"><ele>542.6666666666666</ele><time>2026-04-27T06:59:39.201Z</time></trkpt><trkpt lat="39.5820365" lon="20.9525848"><ele>543.3333333333334</ele><time>2026-04-27T06:59:40.201Z</time></trkpt><trkpt lat="39.5819081" lon="20.9527163"><ele>544.0</ele><time>2026-04-27T06:59:41.201Z</time></trkpt><trkpt lat="39.5817786" lon="20.9528399"><ele>544.0</ele><time>2026-04-27T06:59:42.2Z</time></trkpt><trkpt lat="39.5816481" lon="20.9529518"><ele>544.0</ele><time>2026-04-27T06:59:43.2Z</time></trkpt><trkpt lat="39.5815189" lon="20.9530581"><ele>544.0</ele><time>2026-04-27T06:59:44.2Z</time></trkpt><trkpt lat="39.5813923" lon="20.9531648"><ele>544.0</ele><time>2026-04-27T06:59:45.201Z</time></trkpt><trkpt lat="39.5812706" lon="20.9532847"><ele>544.0</ele><time>2026-04-27T06:59:46.2Z</time></trkpt><trkpt lat="39.5811505" lon="20.9534113"><ele>544.0</ele><time>2026-04-27T06:59:47.2Z</time></trkpt><trkpt lat="39.5810337" lon="20.9535492"><ele>542.3333333333334</ele><time>2026-04-27T06:59:48.201Z</time></trkpt><trkpt lat="39.5809209" lon="20.9536952"><ele>540.6666666666666</ele><time>2026-04-27T06:59:49.2Z</time></trkpt><trkpt lat="39.580816" lon="20.9538436"><ele>539.0</ele><time>2026-04-27T06:59:50.2Z</time></trkpt><trkpt lat="39.5807223" lon="20.9539916"><ele>539.0</ele><time>2026-04-27T06:59:51.201Z</time></trkpt><trkpt lat="39.580627" lon="20.9541356"><ele>539.0</ele><time>2026-04-27T06:59:52.201Z</time></trkpt><trkpt lat="39.5805382" lon="20.9542763"><ele>539.0</ele><time>2026-04-27T06:59:53.2Z</time></trkpt><trkpt lat="39.5804659" lon="20.9544212"><ele>539.0</ele><time>2026-04-27T06:59:54.2Z</time></trkpt><trkpt lat="39.5804181" lon="20.9545961"><ele>538.25</ele><time>2026-04-27T06:59:55.201Z</time></trkpt><trkpt lat="39.580396" lon="20.9547784"><ele>537.5</ele><time>2026-04-27T06:59:56.2Z</time></trkpt><trkpt lat="39.5803831" lon="20.9549675"><ele>536.75</ele><time>2026-04-27T06:59:57.201Z</time></trkpt><trkpt lat="39.5803651" lon="20.9551574"><ele>536.0</ele><time>2026-04-27T06:59:58.2Z</time></trkpt><trkpt lat="39.5803476" lon="20.9553436"><ele>536.0</ele><time>2026-04-27T06:59:59.2Z</time></trkpt><trkpt lat="39.5803439" lon="20.9555291"><ele>536.0</ele><time>2026-04-27T07:00:00.201Z</time></trkpt><trkpt lat="39.5803618" lon="20.9557223"><ele>536.0</ele><time>2026-04-27T07:00:01.201Z</time></trkpt><trkpt lat="39.5803965" lon="20.955918"><ele>536.0</ele><time>2026-04-27T07:00:02.201Z</time></trkpt><trkpt lat="39.5804349" lon="20.9561202"><ele>533.6666666666666</ele><time>2026-04-27T07:00:03.2Z</time></trkpt><trkpt lat="39.5804676" lon="20.9563255"><ele>531.3333333333334</ele><time>2026-04-27T07:00:04.201Z</time></trkpt><trkpt lat="39.5804935" lon="20.9565268"><ele>529.0</ele><time>2026-04-27T07:00:05.201Z</time></trkpt><trkpt lat="39.5805164" lon="20.9567213"><ele>527.25</ele><time>2026-04-27T07:00:06.201Z</time></trkpt><trkpt lat="39.5805422" lon="20.9569056"><ele>525.5</ele><time>2026-04-27T07:00:07.2Z</time></trkpt><trkpt lat="39.5805773" lon="20.9570813"><ele>523.75</ele><time>2026-04-27T07:00:08.2Z</time></trkpt><trkpt lat="39.5806246" lon="20.9572464"><ele>522.0</ele><time>2026-04-27T07:00:09.2Z</time></trkpt><trkpt lat="39.5806822" lon="20.957405"><ele>522.0</ele><time>2026-04-27T07:00:10.201Z</time></trkpt><trkpt lat="39.5807352" lon="20.9575535"><ele>522.0</ele><time>2026-04-27T07:00:11.2Z</time></trkpt><trkpt lat="39.5807762" lon="20.9576929"><ele>522.0</ele><time>2026-04-27T07:00:12.201Z</time></trkpt><trkpt lat="39.5808006" lon="20.957846"><ele>522.0</ele><time>2026-04-27T07:00:13.2Z</time></trkpt><trkpt lat="39.5807949" lon="20.9580057"><ele>522.0</ele><time>2026-04-27T07:00:14.2Z</time></trkpt><trkpt lat="39.5807427" lon="20.9581662"><ele>522.0</ele><time>2026-04-27T07:00:15.201Z</time></trkpt><trkpt lat="39.580667" lon="20.9583084"><ele>522.0</ele><time>2026-04-27T07:00:16.2Z</time></trkpt><trkpt lat="39.5805807" lon="20.9584416"><ele>522.0</ele><time>2026-04-27T07:00:17.201Z</time></trkpt><trkpt lat="39.5804636" lon="20.9585783"><ele>519.6666666666666</ele><time>2026-04-27T07:00:18.2Z</time></trkpt><trkpt lat="39.5803368" lon="20.9587127"><ele>517.3333333333333</ele><time>2026-04-27T07:00:19.201Z</time></trkpt><trkpt lat="39.5802094" lon="20.9588532"><ele>515.0</ele><time>2026-04-27T07:00:20.2Z</time></trkpt><trkpt lat="39.5800852" lon="20.9589919"><ele>515.0</ele><time>2026-04-27T07:00:21.2Z</time></trkpt><trkpt lat="39.5799635" lon="20.9591262"><ele>515.0</ele><time>2026-04-27T07:00:22.2Z</time></trkpt><trkpt lat="39.5798436" lon="20.9592527"><ele>515.0</ele><time>2026-04-27T07:00:23.2Z</time></trkpt><trkpt lat="39.5797324" lon="20.9593882"><ele>514.25</ele><time>2026-04-27T07:00:24.201Z</time></trkpt><trkpt lat="39.5796353" lon="20.959543"><ele>513.5</ele><time>2026-04-27T07:00:25.2Z</time></trkpt><trkpt lat="39.5795502" lon="20.9597026"><ele>512.75</ele><time>2026-04-27T07:00:26.201Z</time></trkpt><trkpt lat="39.5794791" lon="20.9598573"><ele>512.0</ele><time>2026-04-27T07:00:27.2Z</time></trkpt><trkpt lat="39.5794322" lon="20.9600153"><ele>509.5</ele><time>2026-04-27T07:00:28.2Z</time></trkpt><trkpt lat="39.5794248" lon="20.9601777"><ele>507.0</ele><time>2026-04-27T07:00:29.2Z</time></trkpt><trkpt lat="39.5794587" lon="20.9603416"><ele>504.5</ele><time>2026-04-27T07:00:30.2Z</time></trkpt><trkpt lat="39.5795149" lon="20.9604965"><ele>502.0</ele><time>2026-04-27T07:00:31.201Z</time></trkpt><trkpt lat="39.5795805" lon="20.9606398"><ele>502.0</ele><time>2026-04-27T07:00:32.2Z</time></trkpt><trkpt lat="39.5796083" lon="20.9608095"><ele>502.0</ele><time>2026-04-27T07:00:33.2Z</time></trkpt><trkpt lat="39.5796114" lon="20.96101"><ele>502.0</ele><time>2026-04-27T07:00:34.201Z</time></trkpt><trkpt lat="39.5795996" lon="20.9612321"><ele>502.0</ele><time>2026-04-27T07:00:35.201Z</time></trkpt><trkpt lat="39.5795786" lon="20.9614612"><ele>502.0</ele><time>2026-04-27T07:00:36.2Z</time></trkpt><trkpt lat="39.5795623" lon="20.9616994"><ele>502.0</ele><time>2026-04-27T07:00:37.2Z</time></trkpt><trkpt lat="39.5795456" lon="20.9619337"><ele>501.0</ele><time>2026-04-27T07:00:38.2Z</time></trkpt><trkpt lat="39.5795328" lon="20.9621549"><ele>500.0</ele><time>2026-04-27T07:00:39.201Z</time></trkpt><trkpt lat="39.5795238" lon="20.9623695"><ele>499.0</ele><time>2026-04-27T07:00:40.201Z</time></trkpt><trkpt lat="39.5795387" lon="20.9625697"><ele>498.75</ele><time>2026-04-27T07:00:41.201Z</time></trkpt><trkpt lat="39.579586" lon="20.9627565"><ele>498.5</ele><time>2026-04-27T07:00:42.201Z</time></trkpt><trkpt lat="39.5796359" lon="20.9629376"><ele>498.25</ele><time>2026-04-27T07:00:43.2Z</time></trkpt><trkpt lat="39.5796775" lon="20.9631109"><ele>498.0</ele><time>2026-04-27T07:00:44.2Z</time></trkpt><trkpt lat="39.5796168" lon="20.9632562"><ele>494.25</ele><time>2026-04-27T07:00:45.201Z</time></trkpt><trkpt lat="39.579607" lon="20.9634101"><ele>490.5</ele><time>2026-04-27T07:00:46.201Z</time></trkpt><trkpt lat="39.5794743" lon="20.9634674"><ele>486.75</ele><time>2026-04-27T07:00:47.201Z</time></trkpt><trkpt lat="39.579367" lon="20.9635426"><ele>483.0</ele><time>2026-04-27T07:00:48.201Z</time></trkpt><trkpt lat="39.5792543" lon="20.963624"><ele>493.0</ele><time>2026-04-27T07:00:49.201Z</time></trkpt><trkpt lat="39.5791516" lon="20.9637295"><ele>503.0</ele><time>2026-04-27T07:00:50.2Z</time></trkpt><trkpt lat="39.5790726" lon="20.9638608"><ele>513.0</ele><time>2026-04-27T07:00:51.201Z</time></trkpt><trkpt lat="39.5790156" lon="20.9640126"><ele>523.0</ele><time>2026-04-27T07:00:52.201Z</time></trkpt><trkpt lat="39.5789803" lon="20.9641945"><ele>519.75</ele><time>2026-04-27T07:00:53.2Z</time></trkpt><trkpt lat="39.5789428" lon="20.9643849"><ele>516.5</ele><time>2026-04-27T07:00:54.201Z</time></trkpt><trkpt lat="39.5788942" lon="20.9645623"><ele>513.25</ele><time>2026-04-27T07:00:55.2Z</time></trkpt><trkpt lat="39.5788426" lon="20.964729"><ele>510.0</ele><time>2026-04-27T07:00:56.2Z</time></trkpt><trkpt lat="39.5787656" lon="20.9648832"><ele>510.0</ele><time>2026-04-27T07:00:57.2Z</time></trkpt><trkpt lat="39.5786882" lon="20.9650281"><ele>510.0</ele><time>2026-04-27T07:00:58.201Z</time></trkpt><trkpt lat="39.5786029" lon="20.965164"><ele>510.0</ele><time>2026-04-27T07:00:59.2Z</time></trkpt><trkpt lat="39.5785231" lon="20.9653016"><ele>510.0</ele><time>2026-04-27T07:01:00.201Z</time></trkpt><trkpt lat="39.5784581" lon="20.9654378"><ele>509.75</ele><time>2026-04-27T07:01:01.2Z</time></trkpt><trkpt lat="39.578402" lon="20.9655701"><ele>509.5</ele><time>2026-04-27T07:01:02.2Z</time></trkpt><trkpt lat="39.5783633" lon="20.9657064"><ele>509.25</ele><time>2026-04-27T07:01:03.2Z</time></trkpt><trkpt lat="39.5783613" lon="20.9658489"><ele>509.0</ele><time>2026-04-27T07:01:04.201Z</time></trkpt><trkpt lat="39.5783903" lon="20.9660014"><ele>509.0</ele><time>2026-04-27T07:01:05.2Z</time></trkpt><trkpt lat="39.578445" lon="20.966155"><ele>509.0</ele><time>2026-04-27T07:01:06.201Z</time></trkpt><trkpt lat="39.5785023" lon="20.9662981"><ele>509.0</ele><time>2026-04-27T07:01:07.2Z</time></trkpt><trkpt lat="39.5785547" lon="20.9664351"><ele>509.0</ele><time>2026-04-27T07:01:08.2Z</time></trkpt><trkpt lat="39.5786071" lon="20.9665688"><ele>506.6</ele><time>2026-04-27T07:01:09.201Z</time></trkpt><trkpt lat="39.578652" lon="20.9667"><ele>504.2</ele><time>2026-04-27T07:01:10.201Z</time></trkpt><trkpt lat="39.5786777" lon="20.9668402"><ele>501.80000000000007</ele><time>2026-04-27T07:01:11.201Z</time></trkpt><trkpt lat="39.5786828" lon="20.9669782"><ele>499.40000000000003</ele><time>2026-04-27T07:01:12.2Z</time></trkpt><trkpt lat="39.5786573" lon="20.9671175"><ele>497.0</ele><time>2026-04-27T07:01:13.201Z</time></trkpt><trkpt lat="39.5786154" lon="20.9672471"><ele>497.0</ele><time>2026-04-27T07:01:14.2Z</time></trkpt><trkpt lat="39.5785062" lon="20.9673728"><ele>497.0</ele><time>2026-04-27T07:01:15.201Z</time></trkpt><trkpt lat="39.5783979" lon="20.9674844"><ele>497.0</ele><time>2026-04-27T07:01:16.201Z</time></trkpt><trkpt lat="39.5782926" lon="20.9675782"><ele>497.0</ele><time>2026-04-27T07:01:17.201Z</time></trkpt><trkpt lat="39.5781943" lon="20.9676716"><ele>495.6</ele><time>2026-04-27T07:01:18.2Z</time></trkpt><trkpt lat="39.5781114" lon="20.9677636"><ele>494.20000000000005</ele><time>2026-04-27T07:01:19.201Z</time></trkpt><trkpt lat="39.5780413" lon="20.9678564"><ele>492.8</ele><time>2026-04-27T07:01:20.201Z</time></trkpt><trkpt lat="39.5779916" lon="20.9679636"><ele>491.4</ele><time>2026-04-27T07:01:21.2Z</time></trkpt><trkpt lat="39.5779829" lon="20.9680865"><ele>490.0</ele><time>2026-04-27T07:01:22.201Z</time></trkpt><trkpt lat="39.5780146" lon="20.9682146"><ele>490.0</ele><time>2026-04-27T07:01:23.201Z</time></trkpt><trkpt lat="39.5780779" lon="20.9683338"><ele>490.0</ele><time>2026-04-27T07:01:24.201Z</time></trkpt><trkpt lat="39.5781531" lon="20.9684487"><ele>490.0</ele><time>2026-04-27T07:01:25.201Z</time></trkpt><trkpt lat="39.5782278" lon="20.9685955"><ele>490.0</ele><time>2026-04-27T07:01:26.2Z</time></trkpt><trkpt lat="39.5782958" lon="20.9687489"><ele>489.5</ele><time>2026-04-27T07:01:27.2Z</time></trkpt><trkpt lat="39.5783486" lon="20.9689025"><ele>489.0</ele><time>2026-04-27T07:01:28.201Z</time></trkpt><trkpt lat="39.5783865" lon="20.9690643"><ele>488.5</ele><time>2026-04-27T07:01:29.2Z</time></trkpt><trkpt lat="39.5784066" lon="20.969222"><ele>488.0</ele><time>2026-04-27T07:01:30.201Z</time></trkpt><trkpt lat="39.5783999" lon="20.9693723"><ele>485.49999999999994</ele><time>2026-04-27T07:01:31.201Z</time></trkpt><trkpt lat="39.5783791" lon="20.9694982"><ele>483.0</ele><time>2026-04-27T07:01:32.201Z</time></trkpt><trkpt lat="39.5783514" lon="20.9696113"><ele>480.5</ele><time>2026-04-27T07:01:33.201Z</time></trkpt><trkpt lat="39.5783264" lon="20.9697069"><ele>478.0</ele><time>2026-04-27T07:01:34.201Z</time></trkpt><trkpt lat="39.5783194" lon="20.9697915"><ele>475.49999999999994</ele><time>2026-04-27T07:01:35.201Z</time></trkpt><trkpt lat="39.5783881" lon="20.9698989"><ele>473.0</ele><time>2026-04-27T07:01:37.2Z</time></trkpt><trkpt lat="39.5785003" lon="20.9698288"><ele>473.0</ele><time>2026-04-27T07:01:39.2Z</time></trkpt><trkpt lat="39.5785454" lon="20.9697278"><ele>473.0</ele><time>2026-04-27T07:01:40.2Z</time></trkpt><trkpt lat="39.5785794" lon="20.9695917"><ele>473.0</ele><time>2026-04-27T07:01:41.201Z</time></trkpt><trkpt lat="39.5786112" lon="20.9694288"><ele>473.0</ele><time>2026-04-27T07:01:42.201Z</time></trkpt><trkpt lat="39.5786321" lon="20.9692552"><ele>471.59999999999997</ele><time>2026-04-27T07:01:43.2Z</time></trkpt><trkpt lat="39.5786477" lon="20.9690977"><ele>470.19999999999993</ele><time>2026-04-27T07:01:44.2Z</time></trkpt><trkpt lat="39.5786554" lon="20.9689725"><ele>468.8</ele><time>2026-04-27T07:01:45.201Z</time></trkpt><trkpt lat="39.5786672" lon="20.9688753"><ele>467.4</ele><time>2026-04-27T07:01:46.2Z</time></trkpt><trkpt lat="39.5787402" lon="20.9688135"><ele>466.0</ele><time>2026-04-27T07:01:48.201Z</time></trkpt><trkpt lat="39.5787829" lon="20.968963"><ele>466.0</ele><time>2026-04-27T07:01:50.201Z</time></trkpt><trkpt lat="39.5787755" lon="20.9691146"><ele>466.0</ele><time>2026-04-27T07:01:51.2Z</time></trkpt><trkpt lat="39.5787673" lon="20.9693003"><ele>466.0</ele><time>2026-04-27T07:01:52.201Z</time></trkpt><trkpt lat="39.5787567" lon="20.9694864"><ele>466.0</ele><time>2026-04-27T07:01:53.201Z</time></trkpt><trkpt lat="39.5787512" lon="20.9696682"><ele>464.0</ele><time>2026-04-27T07:01:54.2Z</time></trkpt><trkpt lat="39.5787488" lon="20.9698369"><ele>462.0</ele><time>2026-04-27T07:01:55.201Z</time></trkpt><trkpt lat="39.5787428" lon="20.9699917"><ele>460.0</ele><time>2026-04-27T07:01:56.2Z</time></trkpt><trkpt lat="39.578717" lon="20.9701265"><ele>458.0</ele><time>2026-04-27T07:01:57.2Z</time></trkpt><trkpt lat="39.578692" lon="20.9702525"><ele>460.0</ele><time>2026-04-27T07:01:58.2Z</time></trkpt><trkpt lat="39.5786386" lon="20.9703421"><ele>461.99999999999994</ele><time>2026-04-27T07:01:59.2Z</time></trkpt><trkpt lat="39.5785983" lon="20.970407"><ele>463.99999999999994</ele><time>2026-04-27T07:02:00.2Z</time></trkpt><trkpt lat="39.5785928" lon="20.9705525"><ele>466.0</ele><time>2026-04-27T07:02:02.2Z</time></trkpt><trkpt lat="39.5787045" lon="20.9705941"><ele>468.0</ele><time>2026-04-27T07:02:04.201Z</time></trkpt><trkpt lat="39.5787762" lon="20.9705431"><ele>466.0</ele><time>2026-04-27T07:02:05.2Z</time></trkpt><trkpt lat="39.5788385" lon="20.970455"><ele>463.99999999999994</ele><time>2026-04-27T07:02:06.2Z</time></trkpt><trkpt lat="39.5788874" lon="20.9703342"><ele>461.99999999999994</ele><time>2026-04-27T07:02:07.201Z</time></trkpt><trkpt lat="39.5789286" lon="20.9702048"><ele>460.0</ele><time>2026-04-27T07:02:08.201Z</time></trkpt><trkpt lat="39.5789784" lon="20.9700908"><ele>458.0</ele><time>2026-04-27T07:02:09.2Z</time></trkpt><trkpt lat="39.5790479" lon="20.9699846"><ele>458.0</ele><time>2026-04-27T07:02:10.2Z</time></trkpt><trkpt lat="39.5791492" lon="20.9699056"><ele>458.0</ele><time>2026-04-27T07:02:11.201Z</time></trkpt><trkpt lat="39.5792669" lon="20.9698479"><ele>458.0</ele><time>2026-04-27T07:02:12.2Z</time></trkpt><trkpt lat="39.5794712" lon="20.9697181"><ele>455.0</ele><time>2026-04-27T07:02:14.2Z</time></trkpt><trkpt lat="39.5795509" lon="20.9696275"><ele>451.99999999999994</ele><time>2026-04-27T07:02:15.201Z</time></trkpt><trkpt lat="39.5796198" lon="20.9695502"><ele>448.99999999999994</ele><time>2026-04-27T07:02:16.2Z</time></trkpt><trkpt lat="39.579678" lon="20.9694907"><ele>446.0</ele><time>2026-04-27T07:02:17.2Z</time></trkpt><trkpt lat="39.5797801" lon="20.9694687"><ele>443.0</ele><time>2026-04-27T07:02:19.2Z</time></trkpt><trkpt lat="39.579865" lon="20.969583"><ele>443.0</ele><time>2026-04-27T07:02:21.201Z</time></trkpt><trkpt lat="39.5798359" lon="20.9697163"><ele>443.0</ele><time>2026-04-27T07:02:22.2Z</time></trkpt><trkpt lat="39.5796402" lon="20.9699084"><ele>443.0</ele><time>2026-04-27T07:02:23.201Z</time></trkpt><trkpt lat="39.5795599" lon="20.9700261"><ele>443.2</ele><time>2026-04-27T07:02:24.2Z</time></trkpt><trkpt lat="39.5794716" lon="20.9701046"><ele>443.4</ele><time>2026-04-27T07:02:25.201Z</time></trkpt><trkpt lat="39.5793757" lon="20.9701531"><ele>443.59999999999997</ele><time>2026-04-27T07:02:26.201Z</time></trkpt><trkpt lat="39.579267" lon="20.9702016"><ele>443.79999999999995</ele><time>2026-04-27T07:02:27.201Z</time></trkpt><trkpt lat="39.5791785" lon="20.9702821"><ele>444.0</ele><time>2026-04-27T07:02:28.2Z</time></trkpt><trkpt lat="39.5791186" lon="20.9704074"><ele>444.0</ele><time>2026-04-27T07:02:29.201Z</time></trkpt><trkpt lat="39.5790677" lon="20.9705691"><ele>444.0</ele><time>2026-04-27T07:02:30.2Z</time></trkpt><trkpt lat="39.5790145" lon="20.9707455"><ele>444.0</ele><time>2026-04-27T07:02:31.201Z</time></trkpt><trkpt lat="39.5789541" lon="20.9709094"><ele>444.0</ele><time>2026-04-27T07:02:32.201Z</time></trkpt><trkpt lat="39.5788953" lon="20.9710666"><ele>438.5</ele><time>2026-04-27T07:02:33.2Z</time></trkpt><trkpt lat="39.5788547" lon="20.9712242"><ele>433.0</ele><time>2026-04-27T07:02:34.201Z</time></trkpt><trkpt lat="39.578835" lon="20.9713827"><ele>427.5</ele><time>2026-04-27T07:02:35.201Z</time></trkpt><trkpt lat="39.5788218" lon="20.9715367"><ele>422.0</ele><time>2026-04-27T07:02:36.2Z</time></trkpt><trkpt lat="39.5787972" lon="20.9716985"><ele>419.6</ele><time>2026-04-27T07:02:37.2Z</time></trkpt><trkpt lat="39.5787584" lon="20.971849"><ele>417.20000000000005</ele><time>2026-04-27T07:02:38.2Z</time></trkpt><trkpt lat="39.57871" lon="20.9719769"><ele>414.8</ele><time>2026-04-27T07:02:39.201Z</time></trkpt><trkpt lat="39.5786673" lon="20.972097"><ele>412.4</ele><time>2026-04-27T07:02:40.2Z</time></trkpt><trkpt lat="39.5785686" lon="20.9721641"><ele>410.0</ele><time>2026-04-27T07:02:41.201Z</time></trkpt><trkpt lat="39.5785077" lon="20.9722448"><ele>410.2857142857143</ele><time>2026-04-27T07:02:42.201Z</time></trkpt><trkpt lat="39.5784548" lon="20.9723052"><ele>410.57142857142856</ele><time>2026-04-27T07:02:43.2Z</time></trkpt><trkpt lat="39.5784226" lon="20.9723809"><ele>410.85714285714283</ele><time>2026-04-27T07:02:44.2Z</time></trkpt><trkpt lat="39.5784196" lon="20.9724694"><ele>411.1428571428571</ele><time>2026-04-27T07:02:45.2Z</time></trkpt><trkpt lat="39.5784496" lon="20.9725531"><ele>411.42857142857144</ele><time>2026-04-27T07:02:46.2Z</time></trkpt><trkpt lat="39.5784947" lon="20.9726329"><ele>411.71428571428567</ele><time>2026-04-27T07:02:47.2Z</time></trkpt><trkpt lat="39.5785379" lon="20.9727203"><ele>412.0</ele><time>2026-04-27T07:02:48.2Z</time></trkpt><trkpt lat="39.5785426" lon="20.9728298"><ele>412.0</ele><time>2026-04-27T07:02:49.2Z</time></trkpt><trkpt lat="39.5785271" lon="20.9729558"><ele>412.0</ele><time>2026-04-27T07:02:50.2Z</time></trkpt><trkpt lat="39.5784885" lon="20.9730745"><ele>412.0</ele><time>2026-04-27T07:02:51.2Z</time></trkpt><trkpt lat="39.5784351" lon="20.9731638"><ele>412.0</ele><time>2026-04-27T07:02:52.2Z</time></trkpt><trkpt lat="39.5783478" lon="20.9732378"><ele>412.0</ele><time>2026-04-27T07:02:53.201Z</time></trkpt><trkpt lat="39.578244" lon="20.9732828"><ele>412.0</ele><time>2026-04-27T07:02:54.201Z</time></trkpt><trkpt lat="39.5781367" lon="20.9733037"><ele>412.0</ele><time>2026-04-27T07:02:55.201Z</time></trkpt><trkpt lat="39.5780398" lon="20.973323"><ele>412.0</ele><time>2026-04-27T07:02:56.201Z</time></trkpt><trkpt lat="39.5779476" lon="20.9733381"><ele>412.0</ele><time>2026-04-27T07:02:57.2Z</time></trkpt><trkpt lat="39.577867" lon="20.9733633"><ele>412.0</ele><time>2026-04-27T07:02:58.2Z</time></trkpt><trkpt lat="39.5777984" lon="20.9733965"><ele>414.50000000000006</ele><time>2026-04-27T07:02:59.2Z</time></trkpt><trkpt lat="39.5777468" lon="20.9734455"><ele>417.0</ele><time>2026-04-27T07:03:00.2Z</time></trkpt><trkpt lat="39.5777211" lon="20.9735781"><ele>419.5</ele><time>2026-04-27T07:03:02.2Z</time></trkpt><trkpt lat="39.5777834" lon="20.9736045"><ele>422.0</ele><time>2026-04-27T07:03:03.2Z</time></trkpt><trkpt lat="39.5778558" lon="20.9736015"><ele>424.50000000000006</ele><time>2026-04-27T07:03:04.2Z</time></trkpt><trkpt lat="39.5779454" lon="20.9735576"><ele>427.0</ele><time>2026-04-27T07:03:05.201Z</time></trkpt><trkpt lat="39.5780518" lon="20.9735007"><ele>424.0</ele><time>2026-04-27T07:03:06.201Z</time></trkpt><trkpt lat="39.578163" lon="20.9734552"><ele>421.00000000000006</ele><time>2026-04-27T07:03:07.201Z</time></trkpt><trkpt lat="39.578274" lon="20.9734387"><ele>418.0</ele><time>2026-04-27T07:03:08.201Z</time></trkpt><trkpt lat="39.5783738" lon="20.9734177"><ele>415.0</ele><time>2026-04-27T07:03:09.201Z</time></trkpt><trkpt lat="39.5784644" lon="20.9733863"><ele>412.0</ele><time>2026-04-27T07:03:10.2Z</time></trkpt><trkpt lat="39.5785504" lon="20.9733171"><ele>412.0</ele><time>2026-04-27T07:03:11.2Z</time></trkpt><trkpt lat="39.5786313" lon="20.973209"><ele>412.0</ele><time>2026-04-27T07:03:12.2Z</time></trkpt><trkpt lat="39.5787147" lon="20.973075"><ele>412.0</ele><time>2026-04-27T07:03:13.201Z</time></trkpt><trkpt lat="39.5787869" lon="20.9729383"><ele>412.0</ele><time>2026-04-27T07:03:14.201Z</time></trkpt><trkpt lat="39.5788407" lon="20.9727965"><ele>411.5</ele><time>2026-04-27T07:03:15.2Z</time></trkpt><trkpt lat="39.5788781" lon="20.972646"><ele>411.0</ele><time>2026-04-27T07:03:16.2Z</time></trkpt><trkpt lat="39.578901" lon="20.9724949"><ele>410.5</ele><time>2026-04-27T07:03:17.201Z</time></trkpt><trkpt lat="39.5789292" lon="20.9723533"><ele>410.0</ele><time>2026-04-27T07:03:18.201Z</time></trkpt><trkpt lat="39.5789671" lon="20.9722262"><ele>409.99999999999994</ele><time>2026-04-27T07:03:19.201Z</time></trkpt><trkpt lat="39.5789986" lon="20.9721031"><ele>410.0</ele><time>2026-04-27T07:03:20.2Z</time></trkpt><trkpt lat="39.5790223" lon="20.9719896"><ele>410.0</ele><time>2026-04-27T07:03:21.2Z</time></trkpt><trkpt lat="39.5790505" lon="20.9718979"><ele>410.0</ele><time>2026-04-27T07:03:22.201Z</time></trkpt><trkpt lat="39.5791406" lon="20.971824"><ele>409.99999999999994</ele><time>2026-04-27T07:03:24.2Z</time></trkpt><trkpt lat="39.5792162" lon="20.9718366"><ele>410.0</ele><time>2026-04-27T07:03:26.201Z</time></trkpt><trkpt lat="39.5792448" lon="20.9719538"><ele>410.0</ele><time>2026-04-27T07:03:27.2Z</time></trkpt><trkpt lat="39.5792538" lon="20.9720578"><ele>410.0</ele><time>2026-04-27T07:03:28.2Z</time></trkpt><trkpt lat="39.5791085" lon="20.9723281"><ele>410.0</ele><time>2026-04-27T07:03:29.201Z</time></trkpt><trkpt lat="39.5790931" lon="20.9724815"><ele>412.75</ele><time>2026-04-27T07:03:30.201Z</time></trkpt><trkpt lat="39.5790692" lon="20.9726434"><ele>415.5</ele><time>2026-04-27T07:03:31.2Z</time></trkpt><trkpt lat="39.5790253" lon="20.9728101"><ele>418.25</ele><time>2026-04-27T07:03:32.201Z</time></trkpt><trkpt lat="39.5789791" lon="20.9729508"><ele>421.0</ele><time>2026-04-27T07:03:33.2Z</time></trkpt><trkpt lat="39.5789226" lon="20.9730944"><ele>421.0</ele><time>2026-04-27T07:03:34.201Z</time></trkpt><trkpt lat="39.5788602" lon="20.9732291"><ele>421.0</ele><time>2026-04-27T07:03:35.201Z</time></trkpt><trkpt lat="39.5787945" lon="20.9733484"><ele>421.0</ele><time>2026-04-27T07:03:36.2Z</time></trkpt><trkpt lat="39.5787154" lon="20.9734495"><ele>421.0</ele><time>2026-04-27T07:03:37.2Z</time></trkpt><trkpt lat="39.5786267" lon="20.9735252"><ele>415.0</ele><time>2026-04-27T07:03:38.201Z</time></trkpt><trkpt lat="39.5785252" lon="20.973599"><ele>409.0</ele><time>2026-04-27T07:03:39.201Z</time></trkpt><trkpt lat="39.5784205" lon="20.9736616"><ele>403.0</ele><time>2026-04-27T07:03:40.201Z</time></trkpt><trkpt lat="39.5783076" lon="20.9737155"><ele>397.0</ele><time>2026-04-27T07:03:41.2Z</time></trkpt><trkpt lat="39.5782036" lon="20.9737562"><ele>397.0</ele><time>2026-04-27T07:03:42.2Z</time></trkpt><trkpt lat="39.5781067" lon="20.973814"><ele>397.0</ele><time>2026-04-27T07:03:43.201Z</time></trkpt><trkpt lat="39.5780288" lon="20.9739099"><ele>397.0</ele><time>2026-04-27T07:03:44.2Z</time></trkpt><trkpt lat="39.5779668" lon="20.9740343"><ele>397.0</ele><time>2026-04-27T07:03:45.201Z</time></trkpt><trkpt lat="39.5779249" lon="20.9741758"><ele>397.0</ele><time>2026-04-27T07:03:46.201Z</time></trkpt><trkpt lat="39.5779054" lon="20.9743256"><ele>395.8</ele><time>2026-04-27T07:03:47.2Z</time></trkpt><trkpt lat="39.5778881" lon="20.9744652"><ele>394.6</ele><time>2026-04-27T07:03:48.2Z</time></trkpt><trkpt lat="39.5778774" lon="20.9746017"><ele>393.40000000000003</ele><time>2026-04-27T07:03:49.201Z</time></trkpt><trkpt lat="39.577858" lon="20.9747194"><ele>392.20000000000005</ele><time>2026-04-27T07:03:50.2Z</time></trkpt><trkpt lat="39.5778115" lon="20.9748199"><ele>391.0</ele><time>2026-04-27T07:03:51.2Z</time></trkpt><trkpt lat="39.5777563" lon="20.9749042"><ele>391.0</ele><time>2026-04-27T07:03:52.201Z</time></trkpt><trkpt lat="39.5776421" lon="20.974961"><ele>391.0</ele><time>2026-04-27T07:03:53.2Z</time></trkpt><trkpt lat="39.5775342" lon="20.9750079"><ele>391.0</ele><time>2026-04-27T07:03:54.201Z</time></trkpt><trkpt lat="39.5774315" lon="20.9750682"><ele>391.0</ele><time>2026-04-27T07:03:55.2Z</time></trkpt><trkpt lat="39.5773442" lon="20.9751702"><ele>391.75</ele><time>2026-04-27T07:03:56.201Z</time></trkpt><trkpt lat="39.577269" lon="20.9752925"><ele>392.5</ele><time>2026-04-27T07:03:57.2Z</time></trkpt><trkpt lat="39.5772052" lon="20.9754284"><ele>393.25</ele><time>2026-04-27T07:03:58.2Z</time></trkpt><trkpt lat="39.5771542" lon="20.9755782"><ele>394.0</ele><time>2026-04-27T07:03:59.201Z</time></trkpt><trkpt lat="39.5771232" lon="20.9757233"><ele>389.79999999999995</ele><time>2026-04-27T07:04:00.201Z</time></trkpt><trkpt lat="39.5770992" lon="20.9758612"><ele>385.59999999999997</ele><time>2026-04-27T07:04:01.2Z</time></trkpt><trkpt lat="39.5770815" lon="20.976007"><ele>381.4</ele><time>2026-04-27T07:04:02.2Z</time></trkpt><trkpt lat="39.5770393" lon="20.9761336"><ele>377.2</ele><time>2026-04-27T07:04:03.2Z</time></trkpt><trkpt lat="39.5769883" lon="20.9762346"><ele>373.0</ele><time>2026-04-27T07:04:04.201Z</time></trkpt><trkpt lat="39.5769395" lon="20.9763317"><ele>370.75</ele><time>2026-04-27T07:04:05.201Z</time></trkpt><trkpt lat="39.5768921" lon="20.9764232"><ele>368.5</ele><time>2026-04-27T07:04:06.2Z</time></trkpt><trkpt lat="39.5766978" lon="20.9763425"><ele>366.25</ele><time>2026-04-27T07:04:07.201Z</time></trkpt><trkpt lat="39.5765728" lon="20.9763347"><ele>364.0</ele><time>2026-04-27T07:04:08.2Z</time></trkpt><trkpt lat="39.5764647" lon="20.9763399"><ele>364.0</ele><time>2026-04-27T07:04:09.2Z</time></trkpt><trkpt lat="39.5763684" lon="20.9763707"><ele>364.0</ele><time>2026-04-27T07:04:10.2Z</time></trkpt><trkpt lat="39.5762921" lon="20.976443"><ele>364.0</ele><time>2026-04-27T07:04:11.2Z</time></trkpt><trkpt lat="39.5762407" lon="20.976551"><ele>364.0</ele><time>2026-04-27T07:04:12.2Z</time></trkpt><trkpt lat="39.5762136" lon="20.9766801"><ele>364.0</ele><time>2026-04-27T07:04:13.201Z</time></trkpt><trkpt lat="39.5762061" lon="20.9768154"><ele>365.4</ele><time>2026-04-27T07:04:14.201Z</time></trkpt><trkpt lat="39.5762161" lon="20.9769489"><ele>366.79999999999995</ele><time>2026-04-27T07:04:15.201Z</time></trkpt><trkpt lat="39.5762487" lon="20.9770639"><ele>368.20000000000005</ele><time>2026-04-27T07:04:16.2Z</time></trkpt><trkpt lat="39.5763093" lon="20.9771519"><ele>369.6</ele><time>2026-04-27T07:04:17.2Z</time></trkpt><trkpt lat="39.5763955" lon="20.9772113"><ele>371.0</ele><time>2026-04-27T07:04:18.201Z</time></trkpt><trkpt lat="39.5764987" lon="20.9772484"><ele>371.0</ele><time>2026-04-27T07:04:19.2Z</time></trkpt><trkpt lat="39.5766125" lon="20.9772756"><ele>371.0</ele><time>2026-04-27T07:04:20.201Z</time></trkpt><trkpt lat="39.5767208" lon="20.9773288"><ele>371.0</ele><time>2026-04-27T07:04:21.201Z</time></trkpt><trkpt lat="39.5768351" lon="20.9774003"><ele>371.0</ele><time>2026-04-27T07:04:22.2Z</time></trkpt><trkpt lat="39.5769247" lon="20.977481"><ele>375.0</ele><time>2026-04-27T07:04:23.201Z</time></trkpt><trkpt lat="39.5769974" lon="20.9775731"><ele>379.0</ele><time>2026-04-27T07:04:24.201Z</time></trkpt><trkpt lat="39.577015" lon="20.9776911"><ele>383.0</ele><time>2026-04-27T07:04:25.2Z</time></trkpt><trkpt lat="39.5770268" lon="20.9778051"><ele>387.0</ele><time>2026-04-27T07:04:26.2Z</time></trkpt><trkpt lat="39.5770272" lon="20.9779054"><ele>390.99999999999994</ele><time>2026-04-27T07:04:27.2Z</time></trkpt><trkpt lat="39.5770543" lon="20.9779891"><ele>395.0</ele><time>2026-04-27T07:04:28.201Z</time></trkpt><trkpt lat="39.5771113" lon="20.9780408"><ele>395.0</ele><time>2026-04-27T07:04:29.201Z</time></trkpt><trkpt lat="39.5771916" lon="20.9780575"><ele>395.0</ele><time>2026-04-27T07:04:30.201Z</time></trkpt><trkpt lat="39.5772878" lon="20.9780424"><ele>395.0</ele><time>2026-04-27T07:04:31.2Z</time></trkpt><trkpt lat="39.5774034" lon="20.9780125"><ele>395.0</ele><time>2026-04-27T07:04:32.201Z</time></trkpt><trkpt lat="39.5775064" lon="20.9779948"><ele>395.0</ele><time>2026-04-27T07:04:33.201Z</time></trkpt><trkpt lat="39.5775956" lon="20.9780074"><ele>395.0</ele><time>2026-04-27T07:04:34.201Z</time></trkpt><trkpt lat="39.5776981" lon="20.9780702"><ele>395.0</ele><time>2026-04-27T07:04:35.201Z</time></trkpt><trkpt lat="39.577802" lon="20.9781528"><ele>395.0</ele><time>2026-04-27T07:04:36.2Z</time></trkpt><trkpt lat="39.5779005" lon="20.9782183"><ele>395.0</ele><time>2026-04-27T07:04:37.2Z</time></trkpt><trkpt lat="39.5779824" lon="20.9782673"><ele>395.0</ele><time>2026-04-27T07:04:38.2Z</time></trkpt><trkpt lat="39.5780469" lon="20.978312"><ele>395.0</ele><time>2026-04-27T07:04:39.201Z</time></trkpt><trkpt lat="39.5781021" lon="20.9784155"><ele>395.0</ele><time>2026-04-27T07:04:41.2Z</time></trkpt><trkpt lat="39.5780004" lon="20.9784483"><ele>395.0</ele><time>2026-04-27T07:04:43.2Z</time></trkpt><trkpt lat="39.5779271" lon="20.9784043"><ele>395.0</ele><time>2026-04-27T07:04:44.201Z</time></trkpt><trkpt lat="39.5778447" lon="20.9783315"><ele>395.0</ele><time>2026-04-27T07:04:45.2Z</time></trkpt><trkpt lat="39.577747" lon="20.9782556"><ele>395.0</ele><time>2026-04-27T07:04:46.201Z</time></trkpt><trkpt lat="39.5776226" lon="20.9782134"><ele>395.0</ele><time>2026-04-27T07:04:47.201Z</time></trkpt><trkpt lat="39.5774798" lon="20.9781976"><ele>395.0</ele><time>2026-04-27T07:04:48.2Z</time></trkpt><trkpt lat="39.5773384" lon="20.9782207"><ele>395.0</ele><time>2026-04-27T07:04:49.2Z</time></trkpt><trkpt lat="39.5772023" lon="20.9782586"><ele>395.0</ele><time>2026-04-27T07:04:50.201Z</time></trkpt><trkpt lat="39.5770699" lon="20.9783039"><ele>395.0</ele><time>2026-04-27T07:04:51.2Z</time></trkpt><trkpt lat="39.5769498" lon="20.978326"><ele>395.0</ele><time>2026-04-27T07:04:52.201Z</time></trkpt><trkpt lat="39.5768418" lon="20.9783301"><ele>395.0</ele><time>2026-04-27T07:04:53.201Z</time></trkpt><trkpt lat="39.5767425" lon="20.9783085"><ele>397.4</ele><time>2026-04-27T07:04:54.2Z</time></trkpt><trkpt lat="39.5766684" lon="20.978213"><ele>399.8</ele><time>2026-04-27T07:04:55.2Z</time></trkpt><trkpt lat="39.5766043" lon="20.9781261"><ele>402.20000000000005</ele><time>2026-04-27T07:04:56.2Z</time></trkpt><trkpt lat="39.5765455" lon="20.9780226"><ele>404.6</ele><time>2026-04-27T07:04:57.2Z</time></trkpt><trkpt lat="39.5764858" lon="20.9779179"><ele>407.0</ele><time>2026-04-27T07:04:58.2Z</time></trkpt><trkpt lat="39.5764201" lon="20.9778261"><ele>407.0</ele><time>2026-04-27T07:04:59.2Z</time></trkpt><trkpt lat="39.5763378" lon="20.9777524"><ele>407.0</ele><time>2026-04-27T07:05:00.201Z</time></trkpt><trkpt lat="39.5762418" lon="20.9777087"><ele>407.0</ele><time>2026-04-27T07:05:01.2Z</time></trkpt><trkpt lat="39.5761394" lon="20.9776914"><ele>407.0</ele><time>2026-04-27T07:05:02.201Z</time></trkpt><trkpt lat="39.5760314" lon="20.9776915"><ele>407.0</ele><time>2026-04-27T07:05:03.201Z</time></trkpt><trkpt lat="39.5759183" lon="20.9776909"><ele>409.20000000000005</ele><time>2026-04-27T07:05:04.2Z</time></trkpt><trkpt lat="39.5758073" lon="20.977687"><ele>411.4</ele><time>2026-04-27T07:05:05.2Z</time></trkpt><trkpt lat="39.5757006" lon="20.9776866"><ele>413.6</ele><time>2026-04-27T07:05:06.2Z</time></trkpt><trkpt lat="39.5756081" lon="20.9777194"><ele>415.79999999999995</ele><time>2026-04-27T07:05:07.201Z</time></trkpt><trkpt lat="39.5755321" lon="20.9777922"><ele>418.0</ele><time>2026-04-27T07:05:08.2Z</time></trkpt><trkpt lat="39.5754685" lon="20.977886"><ele>418.0</ele><time>2026-04-27T07:05:09.2Z</time></trkpt><trkpt lat="39.5754084" lon="20.9779799"><ele>418.0</ele><time>2026-04-27T07:05:10.201Z</time></trkpt><trkpt lat="39.5753804" lon="20.9780679"><ele>418.0</ele><time>2026-04-27T07:05:11.2Z</time></trkpt><trkpt lat="39.5753613" lon="20.9781552"><ele>418.0</ele><time>2026-04-27T07:05:12.201Z</time></trkpt><trkpt lat="39.5754403" lon="20.9782853"><ele>418.0</ele><time>2026-04-27T07:05:14.201Z</time></trkpt><trkpt lat="39.5755324" lon="20.9783216"><ele>418.0</ele><time>2026-04-27T07:05:15.2Z</time></trkpt><trkpt lat="39.5756412" lon="20.9783402"><ele>418.0</ele><time>2026-04-27T07:05:16.2Z</time></trkpt><trkpt lat="39.5757549" lon="20.9783647"><ele>418.0</ele><time>2026-04-27T07:05:17.201Z</time></trkpt><trkpt lat="39.5758749" lon="20.9783945"><ele>418.0</ele><time>2026-04-27T07:05:18.201Z</time></trkpt><trkpt lat="39.5759882" lon="20.9784279"><ele>423.2</ele><time>2026-04-27T07:05:19.201Z</time></trkpt><trkpt lat="39.5761004" lon="20.978474"><ele>428.4</ele><time>2026-04-27T07:05:20.2Z</time></trkpt><trkpt lat="39.5761926" lon="20.978541"><ele>433.59999999999997</ele><time>2026-04-27T07:05:21.2Z</time></trkpt><trkpt lat="39.5762658" lon="20.9786403"><ele>438.79999999999995</ele><time>2026-04-27T07:05:22.2Z</time></trkpt><trkpt lat="39.5763217" lon="20.9787384"><ele>444.0</ele><time>2026-04-27T07:05:23.201Z</time></trkpt><trkpt lat="39.576398" lon="20.9788126"><ele>444.0</ele><time>2026-04-27T07:05:24.201Z</time></trkpt><trkpt lat="39.5765004" lon="20.9788443"><ele>444.0</ele><time>2026-04-27T07:05:25.201Z</time></trkpt><trkpt lat="39.5766165" lon="20.9788468"><ele>444.0</ele><time>2026-04-27T07:05:26.2Z</time></trkpt><trkpt lat="39.5767493" lon="20.9788372"><ele>444.0</ele><time>2026-04-27T07:05:27.2Z</time></trkpt><trkpt lat="39.5768852" lon="20.9788471"><ele>443.25</ele><time>2026-04-27T07:05:28.2Z</time></trkpt><trkpt lat="39.5770233" lon="20.9788582"><ele>442.5</ele><time>2026-04-27T07:05:29.2Z</time></trkpt><trkpt lat="39.5771606" lon="20.9788737"><ele>441.75</ele><time>2026-04-27T07:05:30.201Z</time></trkpt><trkpt lat="39.5772954" lon="20.9788834"><ele>441.0</ele><time>2026-04-27T07:05:31.201Z</time></trkpt><trkpt lat="39.5774313" lon="20.9788992"><ele>441.0</ele><time>2026-04-27T07:05:32.201Z</time></trkpt><trkpt lat="39.577568" lon="20.9789353"><ele>441.0</ele><time>2026-04-27T07:05:33.201Z</time></trkpt><trkpt lat="39.5777014" lon="20.9789831"><ele>441.0</ele><time>2026-04-27T07:05:34.201Z</time></trkpt><trkpt lat="39.5778216" lon="20.9790304"><ele>441.0</ele><time>2026-04-27T07:05:35.201Z</time></trkpt><trkpt lat="39.5779207" lon="20.9790815"><ele>435.3333333333333</ele><time>2026-04-27T07:05:36.2Z</time></trkpt><trkpt lat="39.5779994" lon="20.9791273"><ele>429.66666666666663</ele><time>2026-04-27T07:05:37.201Z</time></trkpt><trkpt lat="39.5780562" lon="20.9791678"><ele>424.0</ele><time>2026-04-27T07:05:38.201Z</time></trkpt><trkpt lat="39.5781018" lon="20.9792794"><ele>418.3333333333333</ele><time>2026-04-27T07:05:40.201Z</time></trkpt><trkpt lat="39.5780397" lon="20.9793312"><ele>412.66666666666663</ele><time>2026-04-27T07:05:42.2Z</time></trkpt><trkpt lat="39.5779773" lon="20.9793122"><ele>407.0</ele><time>2026-04-27T07:05:43.2Z</time></trkpt><trkpt lat="39.5778948" lon="20.9792215"><ele>415.5</ele><time>2026-04-27T07:05:44.201Z</time></trkpt><trkpt lat="39.5777919" lon="20.9791654"><ele>424.0</ele><time>2026-04-27T07:05:45.201Z</time></trkpt><trkpt lat="39.5776673" lon="20.9791258"><ele>432.5</ele><time>2026-04-27T07:05:46.2Z</time></trkpt><trkpt lat="39.5775332" lon="20.9791165"><ele>441.0</ele><time>2026-04-27T07:05:47.2Z</time></trkpt><trkpt lat="39.5773867" lon="20.979141"><ele>441.0</ele><time>2026-04-27T07:05:48.2Z</time></trkpt><trkpt lat="39.5772391" lon="20.9791718"><ele>441.0</ele><time>2026-04-27T07:05:49.201Z</time></trkpt><trkpt lat="39.577103" lon="20.9791964"><ele>441.0</ele><time>2026-04-27T07:05:50.2Z</time></trkpt><trkpt lat="39.5769768" lon="20.9792168"><ele>441.0</ele><time>2026-04-27T07:05:51.2Z</time></trkpt><trkpt lat="39.5768651" lon="20.9792452"><ele>449.4</ele><time>2026-04-27T07:05:52.201Z</time></trkpt><trkpt lat="39.576762" lon="20.9792921"><ele>457.8</ele><time>2026-04-27T07:05:53.2Z</time></trkpt><trkpt lat="39.5766655" lon="20.9793607"><ele>466.19999999999993</ele><time>2026-04-27T07:05:54.201Z</time></trkpt><trkpt lat="39.5765835" lon="20.9794478"><ele>474.59999999999997</ele><time>2026-04-27T07:05:55.2Z</time></trkpt><trkpt lat="39.5765074" lon="20.9795416"><ele>483.0</ele><time>2026-04-27T07:05:56.201Z</time></trkpt><trkpt lat="39.5764388" lon="20.9796301"><ele>483.0</ele><time>2026-04-27T07:05:57.201Z</time></trkpt><trkpt lat="39.5763779" lon="20.9797023"><ele>483.0</ele><time>2026-04-27T07:05:58.2Z</time></trkpt><trkpt lat="39.5763178" lon="20.9797427"><ele>483.0</ele><time>2026-04-27T07:05:59.201Z</time></trkpt><trkpt lat="39.5762528" lon="20.9797475"><ele>483.0</ele><time>2026-04-27T07:06:00.2Z</time></trkpt><trkpt lat="39.5761532" lon="20.9796605"><ele>483.0</ele><time>2026-04-27T07:06:02.201Z</time></trkpt><trkpt lat="39.5761346" lon="20.9795542"><ele>483.0</ele><time>2026-04-27T07:06:03.201Z</time></trkpt><trkpt lat="39.57613" lon="20.9794453"><ele>483.2</ele><time>2026-04-27T07:06:04.201Z</time></trkpt><trkpt lat="39.5761029" lon="20.9793317"><ele>483.4</ele><time>2026-04-27T07:06:05.201Z</time></trkpt><trkpt lat="39.5760482" lon="20.9792402"><ele>483.59999999999997</ele><time>2026-04-27T07:06:06.201Z</time></trkpt><trkpt lat="39.5759761" lon="20.9791727"><ele>483.79999999999995</ele><time>2026-04-27T07:06:07.201Z</time></trkpt><trkpt lat="39.5758854" lon="20.9791298"><ele>484.0</ele><time>2026-04-27T07:06:08.2Z</time></trkpt><trkpt lat="39.575777" lon="20.979112"><ele>479.6</ele><time>2026-04-27T07:06:09.201Z</time></trkpt><trkpt lat="39.5756549" lon="20.9791091"><ele>475.2</ele><time>2026-04-27T07:06:10.201Z</time></trkpt><trkpt lat="39.5755399" lon="20.9791213"><ele>470.80000000000007</ele><time>2026-04-27T07:06:11.201Z</time></trkpt><trkpt lat="39.575439" lon="20.9791372"><ele>466.40000000000003</ele><time>2026-04-27T07:06:12.201Z</time></trkpt><trkpt lat="39.5753575" lon="20.9791485"><ele>462.0</ele><time>2026-04-27T07:06:13.201Z</time></trkpt><trkpt lat="39.5752872" lon="20.9791574"><ele>462.0</ele><time>2026-04-27T07:06:14.201Z</time></trkpt><trkpt lat="39.575196" lon="20.9791625"><ele>462.0</ele><time>2026-04-27T07:06:16.2Z</time></trkpt><trkpt lat="39.5751218" lon="20.9791834"><ele>462.0</ele><time>2026-04-27T07:06:19.2Z</time></trkpt><trkpt lat="39.575068" lon="20.9792476"><ele>462.0</ele><time>2026-04-27T07:06:22.2Z</time></trkpt><trkpt lat="39.5750723" lon="20.9793363"><ele>462.0</ele><time>2026-04-27T07:06:25.201Z</time></trkpt><trkpt lat="39.5751515" lon="20.9793542"><ele>462.0</ele><time>2026-04-27T07:06:27.201Z</time></trkpt><trkpt lat="39.5752662" lon="20.9793069"><ele>465.6666666666667</ele><time>2026-04-27T07:06:29.2Z</time></trkpt><trkpt lat="39.5753391" lon="20.9792973"><ele>469.33333333333337</ele><time>2026-04-27T07:06:30.2Z</time></trkpt><trkpt lat="39.5754237" lon="20.979295"><ele>473.0</ele><time>2026-04-27T07:06:31.201Z</time></trkpt><trkpt lat="39.5754965" lon="20.9792997"><ele>476.6666666666667</ele><time>2026-04-27T07:06:32.2Z</time></trkpt><trkpt lat="39.5756003" lon="20.979334"><ele>480.33333333333337</ele><time>2026-04-27T07:06:34.2Z</time></trkpt><trkpt lat="39.5756954" lon="20.9793973"><ele>484.0</ele><time>2026-04-27T07:06:36.2Z</time></trkpt><trkpt lat="39.5757667" lon="20.9795257"><ele>484.00000000000006</ele><time>2026-04-27T07:06:38.201Z</time></trkpt><trkpt lat="39.5757799" lon="20.9796074"><ele>484.0</ele><time>2026-04-27T07:06:39.201Z</time></trkpt><trkpt lat="39.5757651" lon="20.9796973"><ele>484.0</ele><time>2026-04-27T07:06:40.2Z</time></trkpt><trkpt lat="39.5757208" lon="20.9797845"><ele>484.0</ele><time>2026-04-27T07:06:41.2Z</time></trkpt><trkpt lat="39.5756637" lon="20.9798677"><ele>484.00000000000006</ele><time>2026-04-27T07:06:42.2Z</time></trkpt><trkpt lat="39.5756181" lon="20.9799547"><ele>484.0</ele><time>2026-04-27T07:06:43.2Z</time></trkpt><trkpt lat="39.5755947" lon="20.9800479"><ele>490.0</ele><time>2026-04-27T07:06:44.201Z</time></trkpt><trkpt lat="39.5756011" lon="20.9801419"><ele>496.0</ele><time>2026-04-27T07:06:45.2Z</time></trkpt><trkpt lat="39.575641" lon="20.9802186"><ele>502.0</ele><time>2026-04-27T07:06:46.2Z</time></trkpt><trkpt lat="39.5757141" lon="20.9802633"><ele>508.0</ele><time>2026-04-27T07:06:47.201Z</time></trkpt><trkpt lat="39.5758171" lon="20.9802706"><ele>514.0</ele><time>2026-04-27T07:06:48.201Z</time></trkpt><trkpt lat="39.5759413" lon="20.9802681"><ele>514.0</ele><time>2026-04-27T07:06:49.2Z</time></trkpt><trkpt lat="39.5760804" lon="20.9802634"><ele>514.0</ele><time>2026-04-27T07:06:50.201Z</time></trkpt><trkpt lat="39.5762163" lon="20.9802534"><ele>514.0</ele><time>2026-04-27T07:06:51.2Z</time></trkpt><trkpt lat="39.5763441" lon="20.9802301"><ele>514.0</ele><time>2026-04-27T07:06:52.201Z</time></trkpt><trkpt lat="39.5764646" lon="20.9801987"><ele>517.5</ele><time>2026-04-27T07:06:53.201Z</time></trkpt><trkpt lat="39.576583" lon="20.9801636"><ele>521.0</ele><time>2026-04-27T07:06:54.2Z</time></trkpt><trkpt lat="39.5767012" lon="20.980123"><ele>524.5</ele><time>2026-04-27T07:06:55.2Z</time></trkpt><trkpt lat="39.5768176" lon="20.9800884"><ele>528.0</ele><time>2026-04-27T07:06:56.2Z</time></trkpt><trkpt lat="39.5769343" lon="20.9800556"><ele>525.3333333333334</ele><time>2026-04-27T07:06:57.2Z</time></trkpt><trkpt lat="39.5770369" lon="20.9800345"><ele>522.6666666666666</ele><time>2026-04-27T07:06:58.2Z</time></trkpt><trkpt lat="39.5771228" lon="20.980031"><ele>520.0</ele><time>2026-04-27T07:06:59.2Z</time></trkpt><trkpt lat="39.577206" lon="20.9800327"><ele>517.3333333333333</ele><time>2026-04-27T07:07:00.2Z</time></trkpt><trkpt lat="39.5772718" lon="20.9800435"><ele>514.6666666666666</ele><time>2026-04-27T07:07:01.2Z</time></trkpt><trkpt lat="39.5773313" lon="20.9801298"><ele>512.0</ele><time>2026-04-27T07:07:03.201Z</time></trkpt><trkpt lat="39.5772784" lon="20.9802027"><ele>512.0</ele><time>2026-04-27T07:07:05.2Z</time></trkpt><trkpt lat="39.5771971" lon="20.9802063"><ele>512.0</ele><time>2026-04-27T07:07:06.2Z</time></trkpt><trkpt lat="39.5770968" lon="20.9801809"><ele>512.0</ele><time>2026-04-27T07:07:07.2Z</time></trkpt><trkpt lat="39.5769921" lon="20.980197"><ele>512.0</ele><time>2026-04-27T07:07:08.201Z</time></trkpt><trkpt lat="39.5768651" lon="20.9802578"><ele>512.0</ele><time>2026-04-27T07:07:09.201Z</time></trkpt><trkpt lat="39.576715" lon="20.98034"><ele>517.3333333333333</ele><time>2026-04-27T07:07:10.201Z</time></trkpt><trkpt lat="39.5765547" lon="20.9804303"><ele>522.6666666666666</ele><time>2026-04-27T07:07:11.2Z</time></trkpt><trkpt lat="39.5763879" lon="20.9805133"><ele>528.0</ele><time>2026-04-27T07:07:12.201Z</time></trkpt><trkpt lat="39.5762287" lon="20.9805822"><ele>523.3333333333334</ele><time>2026-04-27T07:07:13.2Z</time></trkpt><trkpt lat="39.5760718" lon="20.9806429"><ele>518.6666666666667</ele><time>2026-04-27T07:07:14.201Z</time></trkpt><trkpt lat="39.57592" lon="20.9807036"><ele>514.0</ele><time>2026-04-27T07:07:15.201Z</time></trkpt><trkpt lat="39.575778" lon="20.9807718"><ele>522.5</ele><time>2026-04-27T07:07:16.201Z</time></trkpt><trkpt lat="39.5756494" lon="20.9808514"><ele>531.0</ele><time>2026-04-27T07:07:17.201Z</time></trkpt><trkpt lat="39.5755368" lon="20.9809482"><ele>539.5</ele><time>2026-04-27T07:07:18.201Z</time></trkpt><trkpt lat="39.5754363" lon="20.9810699"><ele>548.0</ele><time>2026-04-27T07:07:19.201Z</time></trkpt><trkpt lat="39.575346" lon="20.9812016"><ele>548.0</ele><time>2026-04-27T07:07:20.201Z</time></trkpt><trkpt lat="39.5752674" lon="20.9813185"><ele>548.0</ele><time>2026-04-27T07:07:21.201Z</time></trkpt><trkpt lat="39.5751946" lon="20.9814094"><ele>548.0</ele><time>2026-04-27T07:07:22.201Z</time></trkpt><trkpt lat="39.575126" lon="20.9814635"><ele>548.0</ele><time>2026-04-27T07:07:23.201Z</time></trkpt><trkpt lat="39.5750559" lon="20.9814941"><ele>548.0</ele><time>2026-04-27T07:07:24.2Z</time></trkpt><trkpt lat="39.5749919" lon="20.9814663"><ele>548.0</ele><time>2026-04-27T07:07:25.201Z</time></trkpt><trkpt lat="39.5749291" lon="20.9813829"><ele>548.0</ele><time>2026-04-27T07:07:26.201Z</time></trkpt><trkpt lat="39.5748798" lon="20.9812949"><ele>548.0</ele><time>2026-04-27T07:07:27.201Z</time></trkpt><trkpt lat="39.5748518" lon="20.9811816"><ele>548.0</ele><time>2026-04-27T07:07:28.201Z</time></trkpt><trkpt lat="39.5748745" lon="20.9810001"><ele>548.0</ele><time>2026-04-27T07:07:29.2Z</time></trkpt><trkpt lat="39.5748743" lon="20.9808388"><ele>548.0</ele><time>2026-04-27T07:07:30.201Z</time></trkpt><trkpt lat="39.574867" lon="20.9806918"><ele>544.1666666666666</ele><time>2026-04-27T07:07:31.201Z</time></trkpt><trkpt lat="39.5748577" lon="20.9805596"><ele>540.3333333333333</ele><time>2026-04-27T07:07:32.201Z</time></trkpt><trkpt lat="39.57485" lon="20.9804477"><ele>536.5</ele><time>2026-04-27T07:07:33.2Z</time></trkpt><trkpt lat="39.5748227" lon="20.9803607"><ele>532.6666666666666</ele><time>2026-04-27T07:07:34.201Z</time></trkpt><trkpt lat="39.5747681" lon="20.9802964"><ele>528.8333333333334</ele><time>2026-04-27T07:07:35.201Z</time></trkpt><trkpt lat="39.5746908" lon="20.9802634"><ele>525.0</ele><time>2026-04-27T07:07:36.201Z</time></trkpt><trkpt lat="39.5745849" lon="20.9802509"><ele>535.75</ele><time>2026-04-27T07:07:37.2Z</time></trkpt><trkpt lat="39.5744495" lon="20.9802473"><ele>546.5</ele><time>2026-04-27T07:07:38.201Z</time></trkpt><trkpt lat="39.5743099" lon="20.980238"><ele>557.25</ele><time>2026-04-27T07:07:39.201Z</time></trkpt><trkpt lat="39.574183" lon="20.9802086"><ele>568.0</ele><time>2026-04-27T07:07:40.2Z</time></trkpt><trkpt lat="39.5740644" lon="20.9801473"><ele>568.0</ele><time>2026-04-27T07:07:41.201Z</time></trkpt><trkpt lat="39.5739565" lon="20.9800488"><ele>568.0</ele><time>2026-04-27T07:07:42.2Z</time></trkpt><trkpt lat="39.5738672" lon="20.9799576"><ele>568.0</ele><time>2026-04-27T07:07:43.2Z</time></trkpt><trkpt lat="39.5737892" lon="20.9798775"><ele>568.0</ele><time>2026-04-27T07:07:44.2Z</time></trkpt><trkpt lat="39.5737087" lon="20.9798225"><ele>568.0</ele><time>2026-04-27T07:07:45.201Z</time></trkpt><trkpt lat="39.573625" lon="20.9797941"><ele>564.1999999999999</ele><time>2026-04-27T07:07:46.2Z</time></trkpt><trkpt lat="39.5735438" lon="20.9797792"><ele>560.4</ele><time>2026-04-27T07:07:47.2Z</time></trkpt><trkpt lat="39.573466" lon="20.9797643"><ele>556.5999999999999</ele><time>2026-04-27T07:07:48.201Z</time></trkpt><trkpt lat="39.5733515" lon="20.9797291"><ele>552.8</ele><time>2026-04-27T07:07:50.2Z</time></trkpt><trkpt lat="39.5732777" lon="20.9798106"><ele>549.0</ele><time>2026-04-27T07:07:52.201Z</time></trkpt><trkpt lat="39.5733257" lon="20.9799112"><ele>549.0</ele><time>2026-04-27T07:07:54.201Z</time></trkpt><trkpt lat="39.5733874" lon="20.9799364"><ele>549.0</ele><time>2026-04-27T07:07:55.2Z</time></trkpt><trkpt lat="39.5734666" lon="20.9799331"><ele>549.0</ele><time>2026-04-27T07:07:56.201Z</time></trkpt><trkpt lat="39.5735489" lon="20.9799408"><ele>549.0</ele><time>2026-04-27T07:07:57.2Z</time></trkpt><trkpt lat="39.5736361" lon="20.979996"><ele>549.0</ele><time>2026-04-27T07:07:58.2Z</time></trkpt><trkpt lat="39.5737177" lon="20.9800992"><ele>549.0</ele><time>2026-04-27T07:07:59.201Z</time></trkpt><trkpt lat="39.5738118" lon="20.9802286"><ele>553.75</ele><time>2026-04-27T07:08:00.2Z</time></trkpt><trkpt lat="39.5739131" lon="20.980357"><ele>558.5</ele><time>2026-04-27T07:08:01.2Z</time></trkpt><trkpt lat="39.5740175" lon="20.980467"><ele>563.25</ele><time>2026-04-27T07:08:02.2Z</time></trkpt><trkpt lat="39.5741242" lon="20.9805423"><ele>568.0</ele><time>2026-04-27T07:08:03.201Z</time></trkpt><trkpt lat="39.574228" lon="20.9805901"><ele>568.0</ele><time>2026-04-27T07:08:04.2Z</time></trkpt><trkpt lat="39.5743211" lon="20.9806445"><ele>568.0</ele><time>2026-04-27T07:08:05.2Z</time></trkpt><trkpt lat="39.574386" lon="20.9807318"><ele>568.0</ele><time>2026-04-27T07:08:06.201Z</time></trkpt><trkpt lat="39.5744275" lon="20.9808367"><ele>568.0</ele><time>2026-04-27T07:08:07.2Z</time></trkpt><trkpt lat="39.5744393" lon="20.9809881"><ele>568.0</ele><time>2026-04-27T07:08:08.2Z</time></trkpt><trkpt lat="39.5744411" lon="20.9811491"><ele>570.75</ele><time>2026-04-27T07:08:09.2Z</time></trkpt><trkpt lat="39.5744206" lon="20.9812999"><ele>573.5</ele><time>2026-04-27T07:08:10.201Z</time></trkpt><trkpt lat="39.5743834" lon="20.981443"><ele>576.25</ele><time>2026-04-27T07:08:11.2Z</time></trkpt><trkpt lat="39.5743267" lon="20.9815707"><ele>579.0</ele><time>2026-04-27T07:08:12.2Z</time></trkpt><trkpt lat="39.5742584" lon="20.981687"><ele>581.8</ele><time>2026-04-27T07:08:13.201Z</time></trkpt><trkpt lat="39.5741678" lon="20.981776"><ele>584.5999999999999</ele><time>2026-04-27T07:08:14.201Z</time></trkpt><trkpt lat="39.574089" lon="20.9818719"><ele>587.4</ele><time>2026-04-27T07:08:15.2Z</time></trkpt><trkpt lat="39.5740268" lon="20.9819848"><ele>590.1999999999999</ele><time>2026-04-27T07:08:16.201Z</time></trkpt><trkpt lat="39.573981" lon="20.9820984"><ele>593.0</ele><time>2026-04-27T07:08:17.2Z</time></trkpt><trkpt lat="39.5739462" lon="20.982203"><ele>593.0</ele><time>2026-04-27T07:08:18.201Z</time></trkpt><trkpt lat="39.5739238" lon="20.9823131"><ele>593.0</ele><time>2026-04-27T07:08:19.201Z</time></trkpt><trkpt lat="39.5739364" lon="20.982409"><ele>593.0</ele><time>2026-04-27T07:08:20.201Z</time></trkpt><trkpt lat="39.5739788" lon="20.9824879"><ele>593.0</ele><time>2026-04-27T07:08:21.201Z</time></trkpt><trkpt lat="39.5740401" lon="20.9825445"><ele>593.0</ele><time>2026-04-27T07:08:22.201Z</time></trkpt><trkpt lat="39.5741129" lon="20.9825599"><ele>593.0</ele><time>2026-04-27T07:08:23.201Z</time></trkpt><trkpt lat="39.5741964" lon="20.9825392"><ele>593.0</ele><time>2026-04-27T07:08:24.201Z</time></trkpt><trkpt lat="39.5742799" lon="20.9825026"><ele>593.0</ele><time>2026-04-27T07:08:25.201Z</time></trkpt><trkpt lat="39.5743687" lon="20.9825055"><ele>593.0</ele><time>2026-04-27T07:08:26.2Z</time></trkpt><trkpt lat="39.5744577" lon="20.9825548"><ele>593.0</ele><time>2026-04-27T07:08:27.2Z</time></trkpt><trkpt lat="39.5745423" lon="20.9826415"><ele>593.0</ele><time>2026-04-27T07:08:28.2Z</time></trkpt><trkpt lat="39.5746283" lon="20.9827165"><ele>601.0</ele><time>2026-04-27T07:08:29.2Z</time></trkpt><trkpt lat="39.5747261" lon="20.9827544"><ele>609.0</ele><time>2026-04-27T07:08:30.2Z</time></trkpt><trkpt lat="39.5748287" lon="20.9827541"><ele>617.0</ele><time>2026-04-27T07:08:31.201Z</time></trkpt><trkpt lat="39.5749502" lon="20.9827232"><ele>625.0</ele><time>2026-04-27T07:08:32.2Z</time></trkpt><trkpt lat="39.5750799" lon="20.982666"><ele>625.0</ele><time>2026-04-27T07:08:33.201Z</time></trkpt><trkpt lat="39.5752259" lon="20.9825951"><ele>625.0</ele><time>2026-04-27T07:08:34.201Z</time></trkpt><trkpt lat="39.5753788" lon="20.982521"><ele>625.0</ele><time>2026-04-27T07:08:35.201Z</time></trkpt><trkpt lat="39.575522" lon="20.9824504"><ele>621.5</ele><time>2026-04-27T07:08:36.201Z</time></trkpt><trkpt lat="39.5756542" lon="20.9823848"><ele>618.0</ele><time>2026-04-27T07:08:37.2Z</time></trkpt><trkpt lat="39.5757737" lon="20.9823279"><ele>614.5</ele><time>2026-04-27T07:08:38.2Z</time></trkpt><trkpt lat="39.575891" lon="20.9822782"><ele>611.0</ele><time>2026-04-27T07:08:39.201Z</time></trkpt><trkpt lat="39.5760111" lon="20.9822403"><ele>611.0</ele><time>2026-04-27T07:08:40.201Z</time></trkpt><trkpt lat="39.5761391" lon="20.9822188"><ele>611.0</ele><time>2026-04-27T07:08:41.201Z</time></trkpt><trkpt lat="39.576263" lon="20.9822035"><ele>611.0</ele><time>2026-04-27T07:08:42.2Z</time></trkpt><trkpt lat="39.5763887" lon="20.9821774"><ele>611.0</ele><time>2026-04-27T07:08:43.201Z</time></trkpt><trkpt lat="39.5765013" lon="20.9821493"><ele>611.1666666666666</ele><time>2026-04-27T07:08:44.201Z</time></trkpt><trkpt lat="39.5765984" lon="20.982122"><ele>611.3333333333333</ele><time>2026-04-27T07:08:45.2Z</time></trkpt><trkpt lat="39.5766779" lon="20.9820979"><ele>611.5</ele><time>2026-04-27T07:08:46.2Z</time></trkpt><trkpt lat="39.5767441" lon="20.9820905"><ele>611.6666666666666</ele><time>2026-04-27T07:08:47.2Z</time></trkpt><trkpt lat="39.5768222" lon="20.9821631"><ele>611.8333333333334</ele><time>2026-04-27T07:08:49.2Z</time></trkpt><trkpt lat="39.5767552" lon="20.9822476"><ele>612.0</ele><time>2026-04-27T07:08:51.2Z</time></trkpt><trkpt lat="39.5766701" lon="20.9822592"><ele>612.0</ele><time>2026-04-27T07:08:52.201Z</time></trkpt><trkpt lat="39.5765567" lon="20.9822604"><ele>612.0</ele><time>2026-04-27T07:08:53.201Z</time></trkpt><trkpt lat="39.5764375" lon="20.9822935"><ele>612.0</ele><time>2026-04-27T07:08:54.201Z</time></trkpt><trkpt lat="39.5763106" lon="20.9823287"><ele>612.0</ele><time>2026-04-27T07:08:55.201Z</time></trkpt><trkpt lat="39.5761902" lon="20.9823557"><ele>611.75</ele><time>2026-04-27T07:08:56.2Z</time></trkpt><trkpt lat="39.5760778" lon="20.982389"><ele>611.5</ele><time>2026-04-27T07:08:57.201Z</time></trkpt><trkpt lat="39.5759699" lon="20.9824377"><ele>611.25</ele><time>2026-04-27T07:08:58.2Z</time></trkpt><trkpt lat="39.5758636" lon="20.9825243"><ele>611.0</ele><time>2026-04-27T07:08:59.201Z</time></trkpt><trkpt lat="39.5757623" lon="20.9826352"><ele>614.5</ele><time>2026-04-27T07:09:00.201Z</time></trkpt><trkpt lat="39.5756505" lon="20.9827531"><ele>618.0</ele><time>2026-04-27T07:09:01.201Z</time></trkpt><trkpt lat="39.5755425" lon="20.9828634"><ele>621.5</ele><time>2026-04-27T07:09:02.201Z</time></trkpt><trkpt lat="39.575435" lon="20.9829653"><ele>625.0</ele><time>2026-04-27T07:09:03.2Z</time></trkpt><trkpt lat="39.5753294" lon="20.9830579"><ele>625.0</ele><time>2026-04-27T07:09:04.2Z</time></trkpt><trkpt lat="39.5752256" lon="20.9831468"><ele>625.0</ele><time>2026-04-27T07:09:05.201Z</time></trkpt><trkpt lat="39.5751249" lon="20.983235"><ele>625.0</ele><time>2026-04-27T07:09:06.2Z</time></trkpt><trkpt lat="39.5750253" lon="20.9833157"><ele>625.0</ele><time>2026-04-27T07:09:07.2Z</time></trkpt><trkpt lat="39.5749243" lon="20.9833672"><ele>625.0</ele><time>2026-04-27T07:09:08.201Z</time></trkpt><trkpt lat="39.5748211" lon="20.9833735"><ele>625.0</ele><time>2026-04-27T07:09:09.2Z</time></trkpt><trkpt lat="39.5747188" lon="20.9833364"><ele>625.0</ele><time>2026-04-27T07:09:10.2Z</time></trkpt><trkpt lat="39.5746009" lon="20.9832968"><ele>625.0</ele><time>2026-04-27T07:09:11.2Z</time></trkpt><trkpt lat="39.5744732" lon="20.9832859"><ele>625.0</ele><time>2026-04-27T07:09:12.2Z</time></trkpt><trkpt lat="39.5743467" lon="20.9832766"><ele>625.0</ele><time>2026-04-27T07:09:13.2Z</time></trkpt><trkpt lat="39.5742222" lon="20.9832853"><ele>625.0</ele><time>2026-04-27T07:09:14.2Z</time></trkpt><trkpt lat="39.5740935" lon="20.9833178"><ele>625.0</ele><time>2026-04-27T07:09:15.2Z</time></trkpt><trkpt lat="39.573965" lon="20.9833825"><ele>634.0</ele><time>2026-04-27T07:09:16.201Z</time></trkpt><trkpt lat="39.5738421" lon="20.9834629"><ele>643.0</ele><time>2026-04-27T07:09:17.201Z</time></trkpt><trkpt lat="39.5737217" lon="20.9835369"><ele>652.0</ele><time>2026-04-27T07:09:18.2Z</time></trkpt><trkpt lat="39.5736038" lon="20.9836094"><ele>661.0</ele><time>2026-04-27T07:09:19.201Z</time></trkpt><trkpt lat="39.5734984" lon="20.9836866"><ele>661.0</ele><time>2026-04-27T07:09:20.2Z</time></trkpt><trkpt lat="39.5734094" lon="20.983754"><ele>661.0</ele><time>2026-04-27T07:09:21.201Z</time></trkpt><trkpt lat="39.5733389" lon="20.9837955"><ele>661.0</ele><time>2026-04-27T07:09:22.2Z</time></trkpt><trkpt lat="39.5732727" lon="20.9838192"><ele>661.0</ele><time>2026-04-27T07:09:23.201Z</time></trkpt><trkpt lat="39.5732056" lon="20.9837919"><ele>661.0</ele><time>2026-04-27T07:09:24.2Z</time></trkpt><trkpt lat="39.5731553" lon="20.9837013"><ele>661.0</ele><time>2026-04-27T07:09:25.201Z</time></trkpt><trkpt lat="39.5731315" lon="20.9835954"><ele>661.0</ele><time>2026-04-27T07:09:26.2Z</time></trkpt><trkpt lat="39.5731251" lon="20.9834789"><ele>661.0</ele><time>2026-04-27T07:09:27.201Z</time></trkpt><trkpt lat="39.5731498" lon="20.9833481"><ele>661.0</ele><time>2026-04-27T07:09:28.201Z</time></trkpt><trkpt lat="39.5731717" lon="20.9832185"><ele>661.0</ele><time>2026-04-27T07:09:29.201Z</time></trkpt><trkpt lat="39.5731746" lon="20.9830912"><ele>661.0</ele><time>2026-04-27T07:09:30.2Z</time></trkpt><trkpt lat="39.5731571" lon="20.9829654"><ele>656.0</ele><time>2026-04-27T07:09:31.2Z</time></trkpt><trkpt lat="39.5731232" lon="20.9828513"><ele>651.0</ele><time>2026-04-27T07:09:32.201Z</time></trkpt><trkpt lat="39.5730762" lon="20.9827695"><ele>646.0</ele><time>2026-04-27T07:09:33.201Z</time></trkpt><trkpt lat="39.5730185" lon="20.982724"><ele>641.0</ele><time>2026-04-27T07:09:34.201Z</time></trkpt><trkpt lat="39.5729549" lon="20.9827246"><ele>636.0</ele><time>2026-04-27T07:09:35.2Z</time></trkpt><trkpt lat="39.5728857" lon="20.9828456"><ele>631.0</ele><time>2026-04-27T07:09:37.201Z</time></trkpt><trkpt lat="39.5728992" lon="20.9829544"><ele>631.0</ele><time>2026-04-27T07:09:38.2Z</time></trkpt><trkpt lat="39.5729413" lon="20.983076"><ele>631.0</ele><time>2026-04-27T07:09:39.201Z</time></trkpt><trkpt lat="39.572979" lon="20.9832133"><ele>631.0</ele><time>2026-04-27T07:09:40.201Z</time></trkpt><trkpt lat="39.5730194" lon="20.983358"><ele>631.0</ele><time>2026-04-27T07:09:41.2Z</time></trkpt><trkpt lat="39.5729525" lon="20.9835401"><ele>638.5</ele><time>2026-04-27T07:09:42.201Z</time></trkpt><trkpt lat="39.5729158" lon="20.9837111"><ele>646.0</ele><time>2026-04-27T07:09:43.201Z</time></trkpt><trkpt lat="39.5728841" lon="20.9838622"><ele>653.5</ele><time>2026-04-27T07:09:44.201Z</time></trkpt><trkpt lat="39.5728888" lon="20.9839959"><ele>661.0</ele><time>2026-04-27T07:09:45.2Z</time></trkpt><trkpt lat="39.5729056" lon="20.984112"><ele>661.0</ele><time>2026-04-27T07:09:46.2Z</time></trkpt><trkpt lat="39.5729534" lon="20.9841913"><ele>661.0</ele><time>2026-04-27T07:09:47.2Z</time></trkpt><trkpt lat="39.5730196" lon="20.9842437"><ele>661.0</ele><time>2026-04-27T07:09:48.2Z</time></trkpt><trkpt lat="39.5730986" lon="20.9842501"><ele>661.0</ele><time>2026-04-27T07:09:49.2Z</time></trkpt><trkpt lat="39.5731884" lon="20.9842116"><ele>661.0</ele><time>2026-04-27T07:09:50.201Z</time></trkpt><trkpt lat="39.5732847" lon="20.9841459"><ele>661.0</ele><time>2026-04-27T07:09:51.2Z</time></trkpt><trkpt lat="39.5733981" lon="20.9840836"><ele>661.0</ele><time>2026-04-27T07:09:52.2Z</time></trkpt><trkpt lat="39.5735295" lon="20.9840351"><ele>661.0</ele><time>2026-04-27T07:09:53.201Z</time></trkpt><trkpt lat="39.5736745" lon="20.9840164"><ele>661.0</ele><time>2026-04-27T07:09:54.201Z</time></trkpt><trkpt lat="39.5737985" lon="20.9840243"><ele>661.0</ele><time>2026-04-27T07:09:55.2Z</time></trkpt><trkpt lat="39.5739189" lon="20.984053"><ele>662.0</ele><time>2026-04-27T07:09:56.201Z</time></trkpt><trkpt lat="39.5740421" lon="20.9841253"><ele>663.0</ele><time>2026-04-27T07:09:57.2Z</time></trkpt><trkpt lat="39.5741765" lon="20.9842232"><ele>664.0</ele><time>2026-04-27T07:09:58.201Z</time></trkpt><trkpt lat="39.5743225" lon="20.9843214"><ele>671.25</ele><time>2026-04-27T07:09:59.2Z</time></trkpt><trkpt lat="39.5744652" lon="20.984409"><ele>678.5</ele><time>2026-04-27T07:10:00.201Z</time></trkpt><trkpt lat="39.5745924" lon="20.98449"><ele>685.75</ele><time>2026-04-27T07:10:01.2Z</time></trkpt><trkpt lat="39.5747031" lon="20.9845522"><ele>693.0</ele><time>2026-04-27T07:10:02.201Z</time></trkpt><trkpt lat="39.5748062" lon="20.9845921"><ele>693.0</ele><time>2026-04-27T07:10:03.2Z</time></trkpt><trkpt lat="39.5749136" lon="20.9845777"><ele>693.0</ele><time>2026-04-27T07:10:04.201Z</time></trkpt><trkpt lat="39.5750259" lon="20.9845139"><ele>693.0</ele><time>2026-04-27T07:10:05.201Z</time></trkpt><trkpt lat="39.5751362" lon="20.9844305"><ele>693.0</ele><time>2026-04-27T07:10:06.201Z</time></trkpt><trkpt lat="39.5752403" lon="20.9843435"><ele>693.0</ele><time>2026-04-27T07:10:07.2Z</time></trkpt><trkpt lat="39.5753412" lon="20.9842678"><ele>693.0</ele><time>2026-04-27T07:10:08.201Z</time></trkpt><trkpt lat="39.5754454" lon="20.9842005"><ele>693.0</ele><time>2026-04-27T07:10:09.2Z</time></trkpt><trkpt lat="39.5755402" lon="20.9841497"><ele>693.0</ele><time>2026-04-27T07:10:10.2Z</time></trkpt><trkpt lat="39.5756198" lon="20.9841191"><ele>693.0</ele><time>2026-04-27T07:10:11.2Z</time></trkpt><trkpt lat="39.5757363" lon="20.9841214"><ele>693.4</ele><time>2026-04-27T07:10:13.2Z</time></trkpt><trkpt lat="39.5757955" lon="20.9841594"><ele>693.8</ele><time>2026-04-27T07:10:15.201Z</time></trkpt><trkpt lat="39.5756453" lon="20.9842216"><ele>694.2</ele><time>2026-04-27T07:10:16.2Z</time></trkpt><trkpt lat="39.5755596" lon="20.9842445"><ele>694.6</ele><time>2026-04-27T07:10:17.2Z</time></trkpt><trkpt lat="39.5754665" lon="20.9842734"><ele>695.0</ele><time>2026-04-27T07:10:18.201Z</time></trkpt><trkpt lat="39.5753741" lon="20.9843552"><ele>694.5</ele><time>2026-04-27T07:10:19.2Z</time></trkpt><trkpt lat="39.5752835" lon="20.9844643"><ele>694.0</ele><time>2026-04-27T07:10:20.2Z</time></trkpt><trkpt lat="39.5751992" lon="20.9845915"><ele>693.5</ele><time>2026-04-27T07:10:21.201Z</time></trkpt><trkpt lat="39.5751331" lon="20.9847106"><ele>693.0</ele><time>2026-04-27T07:10:22.2Z</time></trkpt><trkpt lat="39.5750734" lon="20.9848161"><ele>693.0</ele><time>2026-04-27T07:10:23.2Z</time></trkpt><trkpt lat="39.5750065" lon="20.9848941"><ele>693.0</ele><time>2026-04-27T07:10:24.201Z</time></trkpt><trkpt lat="39.5749253" lon="20.9849432"><ele>693.0</ele><time>2026-04-27T07:10:25.2Z</time></trkpt><trkpt lat="39.5748363" lon="20.984962"><ele>693.0</ele><time>2026-04-27T07:10:26.201Z</time></trkpt><trkpt lat="39.5747312" lon="20.9849154"><ele>693.0</ele><time>2026-04-27T07:10:27.201Z</time></trkpt><trkpt lat="39.574608" lon="20.9848675"><ele>696.25</ele><time>2026-04-27T07:10:28.2Z</time></trkpt><trkpt lat="39.5744544" lon="20.9848424"><ele>699.5</ele><time>2026-04-27T07:10:29.201Z</time></trkpt><trkpt lat="39.5743107" lon="20.9848192"><ele>702.75</ele><time>2026-04-27T07:10:30.2Z</time></trkpt><trkpt lat="39.5741742" lon="20.9847995"><ele>706.0</ele><time>2026-04-27T07:10:31.2Z</time></trkpt><trkpt lat="39.5740359" lon="20.9847803"><ele>706.0</ele><time>2026-04-27T07:10:32.2Z</time></trkpt><trkpt lat="39.5738989" lon="20.984766"><ele>706.0</ele><time>2026-04-27T07:10:33.201Z</time></trkpt><trkpt lat="39.5737746" lon="20.9847539"><ele>706.0</ele><time>2026-04-27T07:10:34.201Z</time></trkpt><trkpt lat="39.5736654" lon="20.9847537"><ele>706.0</ele><time>2026-04-27T07:10:35.201Z</time></trkpt><trkpt lat="39.5735633" lon="20.9847749"><ele>702.75</ele><time>2026-04-27T07:10:36.201Z</time></trkpt><trkpt lat="39.5734733" lon="20.9848394"><ele>699.5</ele><time>2026-04-27T07:10:37.2Z</time></trkpt><trkpt lat="39.5733902" lon="20.9849418"><ele>696.25</ele><time>2026-04-27T07:10:38.201Z</time></trkpt><trkpt lat="39.5733085" lon="20.9850654"><ele>693.0</ele><time>2026-04-27T07:10:39.201Z</time></trkpt><trkpt lat="39.5732318" lon="20.9851868"><ele>701.4</ele><time>2026-04-27T07:10:40.201Z</time></trkpt><trkpt lat="39.5731587" lon="20.9852964"><ele>709.8</ele><time>2026-04-27T07:10:41.201Z</time></trkpt><trkpt lat="39.5730823" lon="20.9853861"><ele>718.2</ele><time>2026-04-27T07:10:42.201Z</time></trkpt><trkpt lat="39.573001" lon="20.9854458"><ele>726.6</ele><time>2026-04-27T07:10:43.2Z</time></trkpt><trkpt lat="39.572925" lon="20.9854786"><ele>735.0</ele><time>2026-04-27T07:10:44.201Z</time></trkpt><trkpt lat="39.5728507" lon="20.9854749"><ele>735.8</ele><time>2026-04-27T07:10:45.2Z</time></trkpt><trkpt lat="39.5727847" lon="20.9854372"><ele>736.6</ele><time>2026-04-27T07:10:46.201Z</time></trkpt><trkpt lat="39.5727281" lon="20.9853514"><ele>737.4000000000001</ele><time>2026-04-27T07:10:47.2Z</time></trkpt><trkpt lat="39.572685" lon="20.985234"><ele>738.2</ele><time>2026-04-27T07:10:48.2Z</time></trkpt><trkpt lat="39.5726369" lon="20.9850972"><ele>739.0</ele><time>2026-04-27T07:10:49.201Z</time></trkpt><trkpt lat="39.5725752" lon="20.9849786"><ele>733.5</ele><time>2026-04-27T07:10:50.2Z</time></trkpt><trkpt lat="39.5725152" lon="20.9848777"><ele>728.0</ele><time>2026-04-27T07:10:51.201Z</time></trkpt><trkpt lat="39.5724532" lon="20.9847874"><ele>722.5</ele><time>2026-04-27T07:10:52.201Z</time></trkpt><trkpt lat="39.5723827" lon="20.9847169"><ele>717.0</ele><time>2026-04-27T07:10:53.201Z</time></trkpt><trkpt lat="39.5723119" lon="20.9846769"><ele>711.5</ele><time>2026-04-27T07:10:54.201Z</time></trkpt><trkpt lat="39.5722486" lon="20.9846684"><ele>706.0</ele><time>2026-04-27T07:10:55.2Z</time></trkpt><trkpt lat="39.5721716" lon="20.9847559"><ele>706.0</ele><time>2026-04-27T07:10:57.201Z</time></trkpt><trkpt lat="39.57223" lon="20.9848857"><ele>706.0</ele><time>2026-04-27T07:10:59.201Z</time></trkpt><trkpt lat="39.5723054" lon="20.9849303"><ele>706.0</ele><time>2026-04-27T07:11:00.2Z</time></trkpt><trkpt lat="39.5723814" lon="20.9849773"><ele>706.0</ele><time>2026-04-27T07:11:01.2Z</time></trkpt><trkpt lat="39.572448" lon="20.9850503"><ele>706.0</ele><time>2026-04-27T07:11:02.201Z</time></trkpt><trkpt lat="39.5724999" lon="20.9851489"><ele>712.5999999999999</ele><time>2026-04-27T07:11:03.201Z</time></trkpt><trkpt lat="39.5725433" lon="20.9852897"><ele>719.2</ele><time>2026-04-27T07:11:04.201Z</time></trkpt><trkpt lat="39.5725897" lon="20.9854166"><ele>725.8</ele><time>2026-04-27T07:11:05.2Z</time></trkpt><trkpt lat="39.5726083" lon="20.985569"><ele>732.4000000000001</ele><time>2026-04-27T07:11:06.201Z</time></trkpt><trkpt lat="39.5726413" lon="20.985697"><ele>739.0</ele><time>2026-04-27T07:11:07.2Z</time></trkpt><trkpt lat="39.5726736" lon="20.9858044"><ele>738.3333333333334</ele><time>2026-04-27T07:11:08.201Z</time></trkpt><trkpt lat="39.5727106" lon="20.9858911"><ele>737.6666666666667</ele><time>2026-04-27T07:11:09.2Z</time></trkpt><trkpt lat="39.5727697" lon="20.985954"><ele>737.0</ele><time>2026-04-27T07:11:10.2Z</time></trkpt><trkpt lat="39.5728455" lon="20.9859744"><ele>736.3333333333334</ele><time>2026-04-27T07:11:11.201Z</time></trkpt><trkpt lat="39.5729266" lon="20.9859574"><ele>735.6666666666666</ele><time>2026-04-27T07:11:12.2Z</time></trkpt><trkpt lat="39.5730018" lon="20.9859027"><ele>735.0</ele><time>2026-04-27T07:11:13.2Z</time></trkpt><trkpt lat="39.5730824" lon="20.9858245"><ele>735.0</ele><time>2026-04-27T07:11:14.201Z</time></trkpt><trkpt lat="39.5731899" lon="20.985734"><ele>735.0</ele><time>2026-04-27T07:11:15.201Z</time></trkpt><trkpt lat="39.5733117" lon="20.9856509"><ele>735.0</ele><time>2026-04-27T07:11:16.201Z</time></trkpt><trkpt lat="39.5734309" lon="20.9855742"><ele>735.0</ele><time>2026-04-27T07:11:17.201Z</time></trkpt><trkpt lat="39.5735402" lon="20.9855073"><ele>735.0</ele><time>2026-04-27T07:11:18.201Z</time></trkpt><trkpt lat="39.5736427" lon="20.9854606"><ele>735.0</ele><time>2026-04-27T07:11:19.2Z</time></trkpt><trkpt lat="39.5737456" lon="20.9854394"><ele>735.0</ele><time>2026-04-27T07:11:20.2Z</time></trkpt><trkpt lat="39.5738503" lon="20.9854474"><ele>735.0</ele><time>2026-04-27T07:11:21.2Z</time></trkpt><trkpt lat="39.5739555" lon="20.9854795"><ele>735.0</ele><time>2026-04-27T07:11:22.201Z</time></trkpt><trkpt lat="39.5740674" lon="20.9855357"><ele>736.0</ele><time>2026-04-27T07:11:23.2Z</time></trkpt><trkpt lat="39.5741669" lon="20.9856126"><ele>737.0</ele><time>2026-04-27T07:11:24.2Z</time></trkpt><trkpt lat="39.5742661" lon="20.9857006"><ele>738.0</ele><time>2026-04-27T07:11:25.2Z</time></trkpt><trkpt lat="39.5743579" lon="20.9858062"><ele>739.0</ele><time>2026-04-27T07:11:26.201Z</time></trkpt><trkpt lat="39.5744492" lon="20.9859079"><ele>742.5</ele><time>2026-04-27T07:11:27.201Z</time></trkpt><trkpt lat="39.5745491" lon="20.9860022"><ele>746.0</ele><time>2026-04-27T07:11:28.2Z</time></trkpt><trkpt lat="39.574656" lon="20.9860883"><ele>749.5</ele><time>2026-04-27T07:11:29.2Z</time></trkpt><trkpt lat="39.5747601" lon="20.9861733"><ele>753.0</ele><time>2026-04-27T07:11:30.201Z</time></trkpt><trkpt lat="39.57486" lon="20.9862626"><ele>753.0</ele><time>2026-04-27T07:11:31.201Z</time></trkpt><trkpt lat="39.5749533" lon="20.9863469"><ele>753.0</ele><time>2026-04-27T07:11:32.201Z</time></trkpt><trkpt lat="39.5750467" lon="20.9864061"><ele>753.0</ele><time>2026-04-27T07:11:33.2Z</time></trkpt><trkpt lat="39.5751426" lon="20.9864321"><ele>753.0</ele><time>2026-04-27T07:11:34.201Z</time></trkpt><trkpt lat="39.5752321" lon="20.9864349"><ele>753.0</ele><time>2026-04-27T07:11:35.201Z</time></trkpt><trkpt lat="39.5753131" lon="20.9864342"><ele>753.0</ele><time>2026-04-27T07:11:36.2Z</time></trkpt><trkpt lat="39.5753846" lon="20.9864419"><ele>753.0</ele><time>2026-04-27T07:11:37.2Z</time></trkpt><trkpt lat="39.5754495" lon="20.9865416"><ele>753.0</ele><time>2026-04-27T07:11:39.2Z</time></trkpt><trkpt lat="39.5753642" lon="20.9866175"><ele>753.0</ele><time>2026-04-27T07:11:41.201Z</time></trkpt><trkpt lat="39.5751661" lon="20.9866108"><ele>753.0</ele><time>2026-04-27T07:11:43.201Z</time></trkpt><trkpt lat="39.5750279" lon="20.9865947"><ele>753.0</ele><time>2026-04-27T07:11:44.201Z</time></trkpt><trkpt lat="39.5748819" lon="20.9865576"><ele>753.0</ele><time>2026-04-27T07:11:45.201Z</time></trkpt><trkpt lat="39.5747316" lon="20.9865062"><ele>753.0</ele><time>2026-04-27T07:11:46.2Z</time></trkpt><trkpt lat="39.5745836" lon="20.9864572"><ele>756.0</ele><time>2026-04-27T07:11:47.201Z</time></trkpt><trkpt lat="39.5744408" lon="20.9864184"><ele>759.0</ele><time>2026-04-27T07:11:48.2Z</time></trkpt><trkpt lat="39.574307" lon="20.9863626"><ele>762.0</ele><time>2026-04-27T07:11:49.201Z</time></trkpt><trkpt lat="39.5741848" lon="20.9862985"><ele>765.0</ele><time>2026-04-27T07:11:50.201Z</time></trkpt><trkpt lat="39.5740774" lon="20.9862426"><ele>765.0</ele><time>2026-04-27T07:11:51.201Z</time></trkpt><trkpt lat="39.5739759" lon="20.9861844"><ele>765.0</ele><time>2026-04-27T07:11:52.2Z</time></trkpt><trkpt lat="39.5738829" lon="20.9861356"><ele>765.0</ele><time>2026-04-27T07:11:53.2Z</time></trkpt><trkpt lat="39.5738004" lon="20.9860982"><ele>765.0</ele><time>2026-04-27T07:11:54.201Z</time></trkpt><trkpt lat="39.5737236" lon="20.9860857"><ele>765.0</ele><time>2026-04-27T07:11:55.201Z</time></trkpt><trkpt lat="39.5736584" lon="20.9861075"><ele>765.0</ele><time>2026-04-27T07:11:56.2Z</time></trkpt><trkpt lat="39.5736197" lon="20.986173"><ele>765.0</ele><time>2026-04-27T07:11:57.2Z</time></trkpt><trkpt lat="39.5736585" lon="20.9863206"><ele>765.0</ele><time>2026-04-27T07:11:59.201Z</time></trkpt><trkpt lat="39.5737317" lon="20.9863733"><ele>765.0</ele><time>2026-04-27T07:12:00.201Z</time></trkpt><trkpt lat="39.5738093" lon="20.9864253"><ele>765.0</ele><time>2026-04-27T07:12:01.2Z</time></trkpt><trkpt lat="39.5739694" lon="20.9865152"><ele>765.0</ele><time>2026-04-27T07:12:02.201Z</time></trkpt><trkpt lat="39.5740794" lon="20.9866206"><ele>765.0</ele><time>2026-04-27T07:12:03.2Z</time></trkpt><trkpt lat="39.5741891" lon="20.9867408"><ele>765.0</ele><time>2026-04-27T07:12:04.201Z</time></trkpt><trkpt lat="39.5743005" lon="20.9868725"><ele>765.0</ele><time>2026-04-27T07:12:05.201Z</time></trkpt><trkpt lat="39.5744052" lon="20.9870028"><ele>767.5</ele><time>2026-04-27T07:12:06.201Z</time></trkpt><trkpt lat="39.5745007" lon="20.9871327"><ele>770.0</ele><time>2026-04-27T07:12:07.2Z</time></trkpt><trkpt lat="39.5745864" lon="20.987249"><ele>772.5</ele><time>2026-04-27T07:12:08.2Z</time></trkpt><trkpt lat="39.5746647" lon="20.9873519"><ele>775.0</ele><time>2026-04-27T07:12:09.201Z</time></trkpt><trkpt lat="39.5747565" lon="20.9874215"><ele>774.9999999999999</ele><time>2026-04-27T07:12:10.201Z</time></trkpt><trkpt lat="39.5748541" lon="20.9874576"><ele>775.0</ele><time>2026-04-27T07:12:11.201Z</time></trkpt><trkpt lat="39.5749476" lon="20.9874647"><ele>775.0</ele><time>2026-04-27T07:12:12.201Z</time></trkpt><trkpt lat="39.575029" lon="20.9874689"><ele>775.0</ele><time>2026-04-27T07:12:13.2Z</time></trkpt><trkpt lat="39.5750968" lon="20.9874978"><ele>774.9999999999999</ele><time>2026-04-27T07:12:14.2Z</time></trkpt><trkpt lat="39.5751529" lon="20.9875365"><ele>775.0</ele><time>2026-04-27T07:12:15.2Z</time></trkpt><trkpt lat="39.575135" lon="20.9876155"><ele>776.8</ele><time>2026-04-27T07:12:16.2Z</time></trkpt><trkpt lat="39.575045" lon="20.9876717"><ele>778.6</ele><time>2026-04-27T07:12:18.2Z</time></trkpt><trkpt lat="39.5749537" lon="20.9876563"><ele>780.4000000000001</ele><time>2026-04-27T07:12:19.2Z</time></trkpt><trkpt lat="39.5748376" lon="20.9876532"><ele>782.2</ele><time>2026-04-27T07:12:20.2Z</time></trkpt><trkpt lat="39.5747029" lon="20.9876531"><ele>784.0</ele><time>2026-04-27T07:12:21.201Z</time></trkpt><trkpt lat="39.5745512" lon="20.9876143"><ele>784.25</ele><time>2026-04-27T07:12:22.2Z</time></trkpt><trkpt lat="39.574398" lon="20.98756"><ele>784.5</ele><time>2026-04-27T07:12:23.2Z</time></trkpt><trkpt lat="39.5742579" lon="20.9875199"><ele>784.75</ele><time>2026-04-27T07:12:24.201Z</time></trkpt><trkpt lat="39.5741242" lon="20.9874898"><ele>785.0</ele><time>2026-04-27T07:12:25.201Z</time></trkpt><trkpt lat="39.5739943" lon="20.9874484"><ele>785.0</ele><time>2026-04-27T07:12:26.201Z</time></trkpt><trkpt lat="39.5738688" lon="20.9873968"><ele>785.0</ele><time>2026-04-27T07:12:27.201Z</time></trkpt><trkpt lat="39.5737489" lon="20.987334"><ele>785.0</ele><time>2026-04-27T07:12:28.201Z</time></trkpt><trkpt lat="39.5736455" lon="20.9872531"><ele>785.0</ele><time>2026-04-27T07:12:29.201Z</time></trkpt><trkpt lat="39.5735563" lon="20.9871662"><ele>786.6</ele><time>2026-04-27T07:12:30.201Z</time></trkpt><trkpt lat="39.5734785" lon="20.9870938"><ele>788.2</ele><time>2026-04-27T07:12:31.201Z</time></trkpt><trkpt lat="39.5734156" lon="20.9870544"><ele>789.8</ele><time>2026-04-27T07:12:32.201Z</time></trkpt><trkpt lat="39.5733491" lon="20.987032"><ele>791.4</ele><time>2026-04-27T07:12:33.201Z</time></trkpt><trkpt lat="39.5732611" lon="20.9871088"><ele>793.0</ele><time>2026-04-27T07:12:35.201Z</time></trkpt><trkpt lat="39.5733209" lon="20.9872563"><ele>793.0</ele><time>2026-04-27T07:12:37.201Z</time></trkpt><trkpt lat="39.5734083" lon="20.9873318"><ele>793.0</ele><time>2026-04-27T07:12:38.201Z</time></trkpt><trkpt lat="39.5735199" lon="20.987425"><ele>793.0</ele><time>2026-04-27T07:12:39.2Z</time></trkpt><trkpt lat="39.5736395" lon="20.9875611"><ele>793.0</ele><time>2026-04-27T07:12:40.201Z</time></trkpt><trkpt lat="39.5737481" lon="20.9877151"><ele>795.0</ele><time>2026-04-27T07:12:41.201Z</time></trkpt><trkpt lat="39.5738481" lon="20.9878922"><ele>797.0</ele><time>2026-04-27T07:12:42.201Z</time></trkpt><trkpt lat="39.5739491" lon="20.9880526"><ele>799.0</ele><time>2026-04-27T07:12:43.2Z</time></trkpt><trkpt lat="39.5740691" lon="20.9881916"><ele>799.0</ele><time>2026-04-27T07:12:44.2Z</time></trkpt><trkpt lat="39.5741894" lon="20.9883196"><ele>799.0</ele><time>2026-04-27T07:12:45.2Z</time></trkpt><trkpt lat="39.5742858" lon="20.9884491"><ele>799.0</ele><time>2026-04-27T07:12:46.2Z</time></trkpt><trkpt lat="39.57436" lon="20.9885772"><ele>799.0</ele><time>2026-04-27T07:12:47.2Z</time></trkpt><trkpt lat="39.574433" lon="20.9886812"><ele>797.8333333333333</ele><time>2026-04-27T07:12:48.201Z</time></trkpt><trkpt lat="39.5745311" lon="20.9887541"><ele>796.6666666666666</ele><time>2026-04-27T07:12:49.2Z</time></trkpt><trkpt lat="39.5746232" lon="20.9887825"><ele>795.5</ele><time>2026-04-27T07:12:50.201Z</time></trkpt><trkpt lat="39.5746966" lon="20.9888123"><ele>794.3333333333333</ele><time>2026-04-27T07:12:51.201Z</time></trkpt><trkpt lat="39.5747482" lon="20.9888627"><ele>793.1666666666666</ele><time>2026-04-27T07:12:52.2Z</time></trkpt><trkpt lat="39.574785" lon="20.9889789"><ele>792.0</ele><time>2026-04-27T07:12:54.201Z</time></trkpt><trkpt lat="39.5747393" lon="20.9890507"><ele>792.0</ele><time>2026-04-27T07:12:55.201Z</time></trkpt><trkpt lat="39.5746175" lon="20.9890008"><ele>792.0</ele><time>2026-04-27T07:12:56.201Z</time></trkpt><trkpt lat="39.5745082" lon="20.9889596"><ele>792.0</ele><time>2026-04-27T07:12:57.2Z</time></trkpt><trkpt lat="39.5743771" lon="20.9889052"><ele>792.0</ele><time>2026-04-27T07:12:58.201Z</time></trkpt><trkpt lat="39.5742483" lon="20.9888471"><ele>798.25</ele><time>2026-04-27T07:12:59.2Z</time></trkpt><trkpt lat="39.5741123" lon="20.9888064"><ele>804.5</ele><time>2026-04-27T07:13:00.201Z</time></trkpt><trkpt lat="39.5739742" lon="20.9887768"><ele>810.75</ele><time>2026-04-27T07:13:01.2Z</time></trkpt><trkpt lat="39.5738409" lon="20.988755"><ele>817.0</ele><time>2026-04-27T07:13:02.201Z</time></trkpt><trkpt lat="39.5737125" lon="20.9887161"><ele>819.0</ele><time>2026-04-27T07:13:03.201Z</time></trkpt><trkpt lat="39.5735865" lon="20.9886641"><ele>821.0</ele><time>2026-04-27T07:13:04.2Z</time></trkpt><trkpt lat="39.5734602" lon="20.9885889"><ele>823.0</ele><time>2026-04-27T07:13:05.2Z</time></trkpt><trkpt lat="39.5733412" lon="20.9884885"><ele>825.0</ele><time>2026-04-27T07:13:06.2Z</time></trkpt><trkpt lat="39.5732299" lon="20.9883857"><ele>823.4</ele><time>2026-04-27T07:13:07.2Z</time></trkpt><trkpt lat="39.573127" lon="20.9882966"><ele>821.8</ele><time>2026-04-27T07:13:08.2Z</time></trkpt><trkpt lat="39.573041" lon="20.9882145"><ele>820.2</ele><time>2026-04-27T07:13:09.2Z</time></trkpt><trkpt lat="39.5729646" lon="20.9881407"><ele>818.6</ele><time>2026-04-27T07:13:10.201Z</time></trkpt><trkpt lat="39.572896" lon="20.9880964"><ele>817.0</ele><time>2026-04-27T07:13:11.2Z</time></trkpt><trkpt lat="39.5728294" lon="20.9880795"><ele>817.0</ele><time>2026-04-27T07:13:12.2Z</time></trkpt><trkpt lat="39.5727518" lon="20.9881611"><ele>817.0</ele><time>2026-04-27T07:13:14.201Z</time></trkpt><trkpt lat="39.5728168" lon="20.988302"><ele>817.0</ele><time>2026-04-27T07:13:16.201Z</time></trkpt><trkpt lat="39.5729035" lon="20.9883722"><ele>817.0</ele><time>2026-04-27T07:13:17.2Z</time></trkpt><trkpt lat="39.5729904" lon="20.9884791"><ele>817.0</ele><time>2026-04-27T07:13:18.2Z</time></trkpt><trkpt lat="39.5730766" lon="20.9885859"><ele>819.0</ele><time>2026-04-27T07:13:19.201Z</time></trkpt><trkpt lat="39.5731207" lon="20.9887601"><ele>821.0</ele><time>2026-04-27T07:13:20.201Z</time></trkpt><trkpt lat="39.5731874" lon="20.9888976"><ele>823.0</ele><time>2026-04-27T07:13:21.201Z</time></trkpt><trkpt lat="39.5732584" lon="20.9890345"><ele>825.0</ele><time>2026-04-27T07:13:22.201Z</time></trkpt><trkpt lat="39.5733192" lon="20.989164"><ele>827.4</ele><time>2026-04-27T07:13:23.201Z</time></trkpt><trkpt lat="39.573368" lon="20.9892941"><ele>829.8</ele><time>2026-04-27T07:13:24.2Z</time></trkpt><trkpt lat="39.573407" lon="20.9894215"><ele>832.2</ele><time>2026-04-27T07:13:25.2Z</time></trkpt><trkpt lat="39.5734481" lon="20.9895421"><ele>834.6</ele><time>2026-04-27T07:13:26.201Z</time></trkpt><trkpt lat="39.5734989" lon="20.9896456"><ele>837.0</ele><time>2026-04-27T07:13:27.201Z</time></trkpt><trkpt lat="39.5735577" lon="20.9897301"><ele>837.0</ele><time>2026-04-27T07:13:28.2Z</time></trkpt><trkpt lat="39.5736261" lon="20.9898014"><ele>837.0</ele><time>2026-04-27T07:13:29.201Z</time></trkpt><trkpt lat="39.5736861" lon="20.9898633"><ele>837.0</ele><time>2026-04-27T07:13:30.2Z</time></trkpt><trkpt lat="39.57374" lon="20.9899906"><ele>837.0</ele><time>2026-04-27T07:13:32.2Z</time></trkpt><trkpt lat="39.5736845" lon="20.9900318"><ele>837.0</ele><time>2026-04-27T07:13:33.2Z</time></trkpt><trkpt lat="39.5735823" lon="20.9900343"><ele>837.0</ele><time>2026-04-27T07:13:35.2Z</time></trkpt><trkpt lat="39.5734694" lon="20.9898659"><ele>837.0</ele><time>2026-04-27T07:13:36.201Z</time></trkpt><trkpt lat="39.5734058" lon="20.989756"><ele>837.0</ele><time>2026-04-27T07:13:37.201Z</time></trkpt><trkpt lat="39.5733377" lon="20.9896318"><ele>837.0</ele><time>2026-04-27T07:13:38.201Z</time></trkpt><trkpt lat="39.5732633" lon="20.9895159"><ele>837.0</ele><time>2026-04-27T07:13:39.201Z</time></trkpt><trkpt lat="39.5731625" lon="20.9894214"><ele>837.0</ele><time>2026-04-27T07:13:40.2Z</time></trkpt><trkpt lat="39.5730465" lon="20.9893472"><ele>837.0</ele><time>2026-04-27T07:13:41.201Z</time></trkpt><trkpt lat="39.5729247" lon="20.989293"><ele>837.0</ele><time>2026-04-27T07:13:42.2Z</time></trkpt><trkpt lat="39.5728068" lon="20.989234"><ele>837.0</ele><time>2026-04-27T07:13:43.201Z</time></trkpt><trkpt lat="39.5726955" lon="20.9891628"><ele>837.0</ele><time>2026-04-27T07:13:44.201Z</time></trkpt><trkpt lat="39.5726004" lon="20.9890927"><ele>837.0</ele><time>2026-04-27T07:13:45.2Z</time></trkpt><trkpt lat="39.572511" lon="20.9890457"><ele>837.0</ele><time>2026-04-27T07:13:46.2Z</time></trkpt><trkpt lat="39.5724165" lon="20.9890476"><ele>837.0</ele><time>2026-04-27T07:13:47.2Z</time></trkpt><trkpt lat="39.5723265" lon="20.9890945"><ele>837.0</ele><time>2026-04-27T07:13:48.2Z</time></trkpt><trkpt lat="39.5722479" lon="20.9891661"><ele>839.2</ele><time>2026-04-27T07:13:49.201Z</time></trkpt><trkpt lat="39.5721769" lon="20.9892267"><ele>841.4000000000001</ele><time>2026-04-27T07:13:50.2Z</time></trkpt><trkpt lat="39.572102" lon="20.9892388"><ele>843.5999999999999</ele><time>2026-04-27T07:13:51.2Z</time></trkpt><trkpt lat="39.5720353" lon="20.9892513"><ele>845.8</ele><time>2026-04-27T07:13:52.2Z</time></trkpt><trkpt lat="39.5719581" lon="20.9891173"><ele>848.0</ele><time>2026-04-27T07:13:53.2Z</time></trkpt><trkpt lat="39.5718957" lon="20.9890068"><ele>848.0000000000001</ele><time>2026-04-27T07:13:54.2Z</time></trkpt><trkpt lat="39.5718396" lon="20.9888966"><ele>848.0</ele><time>2026-04-27T07:13:55.201Z</time></trkpt><trkpt lat="39.5717926" lon="20.9888028"><ele>848.0</ele><time>2026-04-27T07:13:56.201Z</time></trkpt><trkpt lat="39.5717476" lon="20.9887235"><ele>848.0</ele><time>2026-04-27T07:13:57.2Z</time></trkpt><trkpt lat="39.5716979" lon="20.9886667"><ele>848.0000000000001</ele><time>2026-04-27T07:13:58.201Z</time></trkpt><trkpt lat="39.5715942" lon="20.9886724"><ele>848.0</ele><time>2026-04-27T07:14:00.2Z</time></trkpt><trkpt lat="39.5715867" lon="20.9888231"><ele>848.0</ele><time>2026-04-27T07:14:02.2Z</time></trkpt><trkpt lat="39.5716339" lon="20.9889337"><ele>848.0</ele><time>2026-04-27T07:14:03.2Z</time></trkpt><trkpt lat="39.5717103" lon="20.9890828"><ele>848.0</ele><time>2026-04-27T07:14:04.201Z</time></trkpt><trkpt lat="39.5717684" lon="20.9892318"><ele>848.0</ele><time>2026-04-27T07:14:05.201Z</time></trkpt><trkpt lat="39.5718057" lon="20.9893893"><ele>848.5999999999999</ele><time>2026-04-27T07:14:06.201Z</time></trkpt><trkpt lat="39.5718257" lon="20.9895453"><ele>849.1999999999999</ele><time>2026-04-27T07:14:07.201Z</time></trkpt><trkpt lat="39.5718391" lon="20.9896821"><ele>849.8</ele><time>2026-04-27T07:14:08.201Z</time></trkpt><trkpt lat="39.5718763" lon="20.9898101"><ele>850.4</ele><time>2026-04-27T07:14:09.201Z</time></trkpt><trkpt lat="39.5719506" lon="20.9899195"><ele>851.0</ele><time>2026-04-27T07:14:10.201Z</time></trkpt><trkpt lat="39.572043" lon="20.9900033"><ele>853.25</ele><time>2026-04-27T07:14:11.2Z</time></trkpt><trkpt lat="39.5721325" lon="20.9900915"><ele>855.5</ele><time>2026-04-27T07:14:12.201Z</time></trkpt><trkpt lat="39.5722232" lon="20.9902089"><ele>857.75</ele><time>2026-04-27T07:14:13.2Z</time></trkpt><trkpt lat="39.5723065" lon="20.990365"><ele>860.0</ele><time>2026-04-27T07:14:14.2Z</time></trkpt><trkpt lat="39.572388" lon="20.9905211"><ele>860.0</ele><time>2026-04-27T07:14:15.201Z</time></trkpt><trkpt lat="39.5724696" lon="20.9906734"><ele>860.0</ele><time>2026-04-27T07:14:16.2Z</time></trkpt><trkpt lat="39.5725455" lon="20.9908298"><ele>860.0</ele><time>2026-04-27T07:14:17.2Z</time></trkpt><trkpt lat="39.572616" lon="20.990989"><ele>860.0</ele><time>2026-04-27T07:14:18.201Z</time></trkpt><trkpt lat="39.5726916" lon="20.9911438"><ele>860.75</ele><time>2026-04-27T07:14:19.201Z</time></trkpt><trkpt lat="39.5727808" lon="20.9912872"><ele>861.5</ele><time>2026-04-27T07:14:20.2Z</time></trkpt><trkpt lat="39.5728783" lon="20.9914067"><ele>862.25</ele><time>2026-04-27T07:14:21.2Z</time></trkpt><trkpt lat="39.5729625" lon="20.9915253"><ele>863.0</ele><time>2026-04-27T07:14:22.201Z</time></trkpt><trkpt lat="39.5730365" lon="20.9916531"><ele>864.75</ele><time>2026-04-27T07:14:23.201Z</time></trkpt><trkpt lat="39.5731062" lon="20.9917903"><ele>866.5</ele><time>2026-04-27T07:14:24.2Z</time></trkpt><trkpt lat="39.5731538" lon="20.9919528"><ele>868.25</ele><time>2026-04-27T07:14:25.2Z</time></trkpt><trkpt lat="39.5731932" lon="20.9920954"><ele>870.0</ele><time>2026-04-27T07:14:26.201Z</time></trkpt><trkpt lat="39.5732523" lon="20.9922324"><ele>870.0</ele><time>2026-04-27T07:14:27.2Z</time></trkpt><trkpt lat="39.5733315" lon="20.9923637"><ele>870.0</ele><time>2026-04-27T07:14:28.2Z</time></trkpt><trkpt lat="39.5734214" lon="20.9924827"><ele>870.0</ele><time>2026-04-27T07:14:29.201Z</time></trkpt><trkpt lat="39.573506" lon="20.9926038"><ele>870.0</ele><time>2026-04-27T07:14:30.201Z</time></trkpt><trkpt lat="39.573567" lon="20.9927299"><ele>871.0</ele><time>2026-04-27T07:14:31.2Z</time></trkpt><trkpt lat="39.5735995" lon="20.9928481"><ele>872.0</ele><time>2026-04-27T07:14:32.201Z</time></trkpt><trkpt lat="39.573621" lon="20.9929687"><ele>873.0</ele><time>2026-04-27T07:14:33.2Z</time></trkpt><trkpt lat="39.5735986" lon="20.9930672"><ele>874.0</ele><time>2026-04-27T07:14:34.2Z</time></trkpt><trkpt lat="39.5735044" lon="20.9931188"><ele>875.0</ele><time>2026-04-27T07:14:35.201Z</time></trkpt><trkpt lat="39.5733959" lon="20.9931733"><ele>875.0</ele><time>2026-04-27T07:14:36.2Z</time></trkpt><trkpt lat="39.5732998" lon="20.993265"><ele>875.0</ele><time>2026-04-27T07:14:37.201Z</time></trkpt><trkpt lat="39.5732094" lon="20.9933939"><ele>875.0</ele><time>2026-04-27T07:14:38.201Z</time></trkpt><trkpt lat="39.5731244" lon="20.993517"><ele>875.0</ele><time>2026-04-27T07:14:39.201Z</time></trkpt><trkpt lat="39.5730402" lon="20.993614"><ele>875.6</ele><time>2026-04-27T07:14:40.201Z</time></trkpt><trkpt lat="39.572957" lon="20.9936957"><ele>876.2</ele><time>2026-04-27T07:14:41.201Z</time></trkpt><trkpt lat="39.5728957" lon="20.9937973"><ele>876.8</ele><time>2026-04-27T07:14:42.2Z</time></trkpt><trkpt lat="39.5728704" lon="20.9939271"><ele>877.4</ele><time>2026-04-27T07:14:43.201Z</time></trkpt><trkpt lat="39.572879" lon="20.9940581"><ele>878.0</ele><time>2026-04-27T07:14:44.201Z</time></trkpt><trkpt lat="39.5729189" lon="20.994192"><ele>880.0</ele><time>2026-04-27T07:14:45.201Z</time></trkpt><trkpt lat="39.5729943" lon="20.9943171"><ele>882.0</ele><time>2026-04-27T07:14:46.2Z</time></trkpt><trkpt lat="39.573089" lon="20.9944398"><ele>884.0</ele><time>2026-04-27T07:14:47.2Z</time></trkpt><trkpt lat="39.5731815" lon="20.9945533"><ele>886.0</ele><time>2026-04-27T07:14:48.201Z</time></trkpt><trkpt lat="39.5732629" lon="20.9946562"><ele>886.0</ele><time>2026-04-27T07:14:49.201Z</time></trkpt><trkpt lat="39.5733293" lon="20.9947613"><ele>885.9999999999999</ele><time>2026-04-27T07:14:50.2Z</time></trkpt><trkpt lat="39.5733778" lon="20.9948842"><ele>885.9999999999999</ele><time>2026-04-27T07:14:51.2Z</time></trkpt><trkpt lat="39.5733965" lon="20.9950113"><ele>886.0</ele><time>2026-04-27T07:14:52.201Z</time></trkpt><trkpt lat="39.5733822" lon="20.9951239"><ele>886.0</ele><time>2026-04-27T07:14:53.201Z</time></trkpt><trkpt lat="39.5733295" lon="20.9952229"><ele>886.5</ele><time>2026-04-27T07:14:54.201Z</time></trkpt><trkpt lat="39.5732505" lon="20.9953011"><ele>887.0</ele><time>2026-04-27T07:14:55.201Z</time></trkpt><trkpt lat="39.5731177" lon="20.9953658"><ele>887.5</ele><time>2026-04-27T07:14:56.2Z</time></trkpt><trkpt lat="39.5729606" lon="20.9954178"><ele>888.0</ele><time>2026-04-27T07:14:57.201Z</time></trkpt><trkpt lat="39.5727928" lon="20.9954523"><ele>886.3333333333333</ele><time>2026-04-27T07:14:58.201Z</time></trkpt><trkpt lat="39.5726172" lon="20.9954852"><ele>884.6666666666666</ele><time>2026-04-27T07:14:59.2Z</time></trkpt><trkpt lat="39.5724357" lon="20.9955127"><ele>883.0</ele><time>2026-04-27T07:15:00.201Z</time></trkpt><trkpt lat="39.5722533" lon="20.9955232"><ele>883.0</ele><time>2026-04-27T07:15:01.201Z</time></trkpt><trkpt lat="39.5720661" lon="20.9955153"><ele>883.0</ele><time>2026-04-27T07:15:02.2Z</time></trkpt><trkpt lat="39.5718852" lon="20.9954701"><ele>883.0</ele><time>2026-04-27T07:15:03.2Z</time></trkpt><trkpt lat="39.5717255" lon="20.9954038"><ele>887.3333333333333</ele><time>2026-04-27T07:15:04.2Z</time></trkpt><trkpt lat="39.5715596" lon="20.9953551"><ele>891.6666666666667</ele><time>2026-04-27T07:15:05.201Z</time></trkpt><trkpt lat="39.5713846" lon="20.9953519"><ele>896.0</ele><time>2026-04-27T07:15:06.201Z</time></trkpt><trkpt lat="39.5712093" lon="20.9953566"><ele>898.0</ele><time>2026-04-27T07:15:07.2Z</time></trkpt><trkpt lat="39.5710506" lon="20.9953372"><ele>900.0</ele><time>2026-04-27T07:15:08.201Z</time></trkpt><trkpt lat="39.5709036" lon="20.9953177"><ele>902.0</ele><time>2026-04-27T07:15:09.2Z</time></trkpt><trkpt lat="39.5707749" lon="20.9953127"><ele>904.0</ele><time>2026-04-27T07:15:10.201Z</time></trkpt><trkpt lat="39.5706626" lon="20.9953315"><ele>904.0</ele><time>2026-04-27T07:15:11.201Z</time></trkpt><trkpt lat="39.5705747" lon="20.9953784"><ele>904.0</ele><time>2026-04-27T07:15:12.201Z</time></trkpt><trkpt lat="39.5705047" lon="20.9954671"><ele>904.0</ele><time>2026-04-27T07:15:13.201Z</time></trkpt><trkpt lat="39.5704369" lon="20.9956006"><ele>904.0</ele><time>2026-04-27T07:15:14.201Z</time></trkpt><trkpt lat="39.5703633" lon="20.9957574"><ele>904.75</ele><time>2026-04-27T07:15:15.201Z</time></trkpt><trkpt lat="39.5702816" lon="20.995922"><ele>905.5</ele><time>2026-04-27T07:15:16.201Z</time></trkpt><trkpt lat="39.570191" lon="20.9960845"><ele>906.25</ele><time>2026-04-27T07:15:17.2Z</time></trkpt><trkpt lat="39.5701053" lon="20.9962288"><ele>907.0</ele><time>2026-04-27T07:15:18.201Z</time></trkpt><trkpt lat="39.5700158" lon="20.9963768"><ele>907.0</ele><time>2026-04-27T07:15:19.201Z</time></trkpt><trkpt lat="39.569926" lon="20.9965119"><ele>907.0</ele><time>2026-04-27T07:15:20.2Z</time></trkpt><trkpt lat="39.5698442" lon="20.9966459"><ele>907.0</ele><time>2026-04-27T07:15:21.2Z</time></trkpt><trkpt lat="39.5697672" lon="20.996781"><ele>907.0</ele><time>2026-04-27T07:15:22.201Z</time></trkpt><trkpt lat="39.5696887" lon="20.996892"><ele>905.75</ele><time>2026-04-27T07:15:23.201Z</time></trkpt><trkpt lat="39.5695955" lon="20.9969809"><ele>904.5</ele><time>2026-04-27T07:15:24.2Z</time></trkpt><trkpt lat="39.5695017" lon="20.9970682"><ele>903.25</ele><time>2026-04-27T07:15:25.201Z</time></trkpt><trkpt lat="39.5692926" lon="20.9970715"><ele>902.0</ele><time>2026-04-27T07:15:26.2Z</time></trkpt><trkpt lat="39.5691257" lon="20.9971111"><ele>902.0</ele><time>2026-04-27T07:15:27.201Z</time></trkpt><trkpt lat="39.5689317" lon="20.9971824"><ele>902.0</ele><time>2026-04-27T07:15:28.2Z</time></trkpt><trkpt lat="39.5687316" lon="20.9972822"><ele>902.0</ele><time>2026-04-27T07:15:29.201Z</time></trkpt><trkpt lat="39.5685393" lon="20.9973847"><ele>902.6666666666667</ele><time>2026-04-27T07:15:30.201Z</time></trkpt><trkpt lat="39.5683452" lon="20.9974822"><ele>903.3333333333333</ele><time>2026-04-27T07:15:31.201Z</time></trkpt><trkpt lat="39.5681586" lon="20.9975639"><ele>904.0</ele><time>2026-04-27T07:15:32.2Z</time></trkpt><trkpt lat="39.5679769" lon="20.9976358"><ele>910.3333333333333</ele><time>2026-04-27T07:15:33.2Z</time></trkpt><trkpt lat="39.567815" lon="20.9976909"><ele>916.6666666666667</ele><time>2026-04-27T07:15:34.2Z</time></trkpt><trkpt lat="39.567667" lon="20.9977172"><ele>923.0</ele><time>2026-04-27T07:15:35.2Z</time></trkpt><trkpt lat="39.5675298" lon="20.9977242"><ele>923.0</ele><time>2026-04-27T07:15:36.201Z</time></trkpt><trkpt lat="39.5674072" lon="20.9977333"><ele>923.0</ele><time>2026-04-27T07:15:37.201Z</time></trkpt><trkpt lat="39.5672961" lon="20.9977724"><ele>923.0</ele><time>2026-04-27T07:15:38.2Z</time></trkpt><trkpt lat="39.5672025" lon="20.9978601"><ele>923.0</ele><time>2026-04-27T07:15:39.201Z</time></trkpt><trkpt lat="39.5671251" lon="20.9979782"><ele>923.0</ele><time>2026-04-27T07:15:40.2Z</time></trkpt><trkpt lat="39.5670599" lon="20.9981297"><ele>923.0</ele><time>2026-04-27T07:15:41.2Z</time></trkpt><trkpt lat="39.5669977" lon="20.9982826"><ele>923.0</ele><time>2026-04-27T07:15:42.201Z</time></trkpt><trkpt lat="39.5669427" lon="20.9984225"><ele>923.0</ele><time>2026-04-27T07:15:43.2Z</time></trkpt><trkpt lat="39.5669127" lon="20.9985623"><ele>924.5</ele><time>2026-04-27T07:15:44.2Z</time></trkpt><trkpt lat="39.5669178" lon="20.9987103"><ele>926.0</ele><time>2026-04-27T07:15:45.2Z</time></trkpt><trkpt lat="39.5669611" lon="20.9988669"><ele>927.5</ele><time>2026-04-27T07:15:46.2Z</time></trkpt><trkpt lat="39.5670422" lon="20.9990413"><ele>929.0</ele><time>2026-04-27T07:15:47.201Z</time></trkpt><trkpt lat="39.5671421" lon="20.9992444"><ele>933.3333333333334</ele><time>2026-04-27T07:15:48.2Z</time></trkpt><trkpt lat="39.5672357" lon="20.9994524"><ele>937.6666666666667</ele><time>2026-04-27T07:15:49.2Z</time></trkpt><trkpt lat="39.5673222" lon="20.9996757"><ele>942.0</ele><time>2026-04-27T07:15:50.201Z</time></trkpt><trkpt lat="39.5673984" lon="20.9998953"><ele>942.0</ele><time>2026-04-27T07:15:51.201Z</time></trkpt><trkpt lat="39.5674729" lon="21.0001016"><ele>942.0</ele><time>2026-04-27T07:15:52.201Z</time></trkpt><trkpt lat="39.5675446" lon="21.0003"><ele>942.0</ele><time>2026-04-27T07:15:53.201Z</time></trkpt><trkpt lat="39.5676154" lon="21.0004916"><ele>942.0</ele><time>2026-04-27T07:15:54.2Z</time></trkpt><trkpt lat="39.5676938" lon="21.0006769"><ele>942.0</ele><time>2026-04-27T07:15:55.2Z</time></trkpt><trkpt lat="39.5677782" lon="21.0008615"><ele>942.0</ele><time>2026-04-27T07:15:56.201Z</time></trkpt><trkpt lat="39.5678546" lon="21.0010442"><ele>942.3333333333333</ele><time>2026-04-27T07:15:57.2Z</time></trkpt><trkpt lat="39.5679216" lon="21.0012371"><ele>942.6666666666666</ele><time>2026-04-27T07:15:58.2Z</time></trkpt><trkpt lat="39.5679861" lon="21.0014304"><ele>943.0</ele><time>2026-04-27T07:15:59.201Z</time></trkpt><trkpt lat="39.5680481" lon="21.0016148"><ele>945.0</ele><time>2026-04-27T07:16:00.2Z</time></trkpt><trkpt lat="39.568102" lon="21.0017897"><ele>947.0</ele><time>2026-04-27T07:16:01.2Z</time></trkpt><trkpt lat="39.5681477" lon="21.0019539"><ele>949.0</ele><time>2026-04-27T07:16:02.2Z</time></trkpt><trkpt lat="39.5681817" lon="21.002107"><ele>951.0</ele><time>2026-04-27T07:16:03.2Z</time></trkpt><trkpt lat="39.5681978" lon="21.0022527"><ele>951.0</ele><time>2026-04-27T07:16:04.2Z</time></trkpt><trkpt lat="39.568191" lon="21.0023915"><ele>951.0</ele><time>2026-04-27T07:16:05.201Z</time></trkpt><trkpt lat="39.5681406" lon="21.0025301"><ele>951.0</ele><time>2026-04-27T07:16:06.2Z</time></trkpt><trkpt lat="39.5680713" lon="21.0026603"><ele>951.0</ele><time>2026-04-27T07:16:07.2Z</time></trkpt><trkpt lat="39.5679445" lon="21.0027557"><ele>955.75</ele><time>2026-04-27T07:16:08.2Z</time></trkpt><trkpt lat="39.5678172" lon="21.0028552"><ele>960.5</ele><time>2026-04-27T07:16:09.2Z</time></trkpt><trkpt lat="39.5677077" lon="21.0029789"><ele>965.25</ele><time>2026-04-27T07:16:10.2Z</time></trkpt><trkpt lat="39.5676154" lon="21.0030999"><ele>970.0</ele><time>2026-04-27T07:16:11.2Z</time></trkpt><trkpt lat="39.567536" lon="21.0031994"><ele>969.9999999999999</ele><time>2026-04-27T07:16:12.2Z</time></trkpt><trkpt lat="39.5674639" lon="21.0032658"><ele>970.0</ele><time>2026-04-27T07:16:13.201Z</time></trkpt><trkpt lat="39.567392" lon="21.0032986"><ele>970.0</ele><time>2026-04-27T07:16:14.2Z</time></trkpt><trkpt lat="39.5673255" lon="21.0032836"><ele>970.0</ele><time>2026-04-27T07:16:15.201Z</time></trkpt><trkpt lat="39.5672625" lon="21.003275"><ele>969.9999999999999</ele><time>2026-04-27T07:16:16.2Z</time></trkpt><trkpt lat="39.5671837" lon="21.0031737"><ele>970.0</ele><time>2026-04-27T07:16:17.201Z</time></trkpt><trkpt lat="39.5672246" lon="21.0029885"><ele>969.9999999999999</ele><time>2026-04-27T07:16:18.2Z</time></trkpt><trkpt lat="39.5671993" lon="21.0028544"><ele>970.0</ele><time>2026-04-27T07:16:19.201Z</time></trkpt><trkpt lat="39.5671763" lon="21.0027267"><ele>970.0</ele><time>2026-04-27T07:16:20.2Z</time></trkpt><trkpt lat="39.5671344" lon="21.0026197"><ele>970.0</ele><time>2026-04-27T07:16:21.201Z</time></trkpt><trkpt lat="39.5670742" lon="21.002552"><ele>969.9999999999999</ele><time>2026-04-27T07:16:22.201Z</time></trkpt><trkpt lat="39.567012" lon="21.0025315"><ele>970.0</ele><time>2026-04-27T07:16:23.2Z</time></trkpt><trkpt lat="39.5669124" lon="21.0025921"><ele>971.4</ele><time>2026-04-27T07:16:25.201Z</time></trkpt><trkpt lat="39.5668772" lon="21.0026818"><ele>972.8</ele><time>2026-04-27T07:16:26.201Z</time></trkpt><trkpt lat="39.5668488" lon="21.0027938"><ele>974.2</ele><time>2026-04-27T07:16:27.2Z</time></trkpt><trkpt lat="39.5668083" lon="21.002903"><ele>975.6</ele><time>2026-04-27T07:16:28.2Z</time></trkpt><trkpt lat="39.5667432" lon="21.0029931"><ele>977.0</ele><time>2026-04-27T07:16:29.201Z</time></trkpt><trkpt lat="39.5666558" lon="21.0030543"><ele>977.0</ele><time>2026-04-27T07:16:30.2Z</time></trkpt><trkpt lat="39.5665538" lon="21.0031005"><ele>977.0</ele><time>2026-04-27T07:16:31.201Z</time></trkpt><trkpt lat="39.5664461" lon="21.0031455"><ele>977.0</ele><time>2026-04-27T07:16:32.201Z</time></trkpt><trkpt lat="39.5663432" lon="21.0032172"><ele>977.0</ele><time>2026-04-27T07:16:33.2Z</time></trkpt><trkpt lat="39.5662553" lon="21.0033001"><ele>977.0</ele><time>2026-04-27T07:16:34.201Z</time></trkpt><trkpt lat="39.5661911" lon="21.0033914"><ele>977.8</ele><time>2026-04-27T07:16:35.2Z</time></trkpt><trkpt lat="39.5661529" lon="21.003497"><ele>978.6</ele><time>2026-04-27T07:16:36.2Z</time></trkpt><trkpt lat="39.5661442" lon="21.0036173"><ele>979.3999999999999</ele><time>2026-04-27T07:16:37.201Z</time></trkpt><trkpt lat="39.566175" lon="21.003736"><ele>980.1999999999999</ele><time>2026-04-27T07:16:38.2Z</time></trkpt><trkpt lat="39.5662433" lon="21.0038533"><ele>981.0</ele><time>2026-04-27T07:16:39.2Z</time></trkpt><trkpt lat="39.5663421" lon="21.0039675"><ele>981.75</ele><time>2026-04-27T07:16:40.201Z</time></trkpt><trkpt lat="39.5664483" lon="21.0040888"><ele>982.5</ele><time>2026-04-27T07:16:41.201Z</time></trkpt><trkpt lat="39.566534" lon="21.0042301"><ele>983.25</ele><time>2026-04-27T07:16:42.201Z</time></trkpt><trkpt lat="39.566605" lon="21.00436"><ele>984.0</ele><time>2026-04-27T07:16:43.2Z</time></trkpt><trkpt lat="39.5666705" lon="21.0044888"><ele>986.0</ele><time>2026-04-27T07:16:44.2Z</time></trkpt><trkpt lat="39.5667399" lon="21.0046146"><ele>988.0</ele><time>2026-04-27T07:16:45.201Z</time></trkpt><trkpt lat="39.56682" lon="21.004738"><ele>990.0</ele><time>2026-04-27T07:16:46.2Z</time></trkpt><trkpt lat="39.5669111" lon="21.0048537"><ele>992.0</ele><time>2026-04-27T07:16:47.2Z</time></trkpt><trkpt lat="39.5670179" lon="21.0049461"><ele>993.5</ele><time>2026-04-27T07:16:48.2Z</time></trkpt><trkpt lat="39.5671251" lon="21.0050304"><ele>995.0</ele><time>2026-04-27T07:16:49.2Z</time></trkpt><trkpt lat="39.5672419" lon="21.0050945"><ele>996.5</ele><time>2026-04-27T07:16:50.2Z</time></trkpt><trkpt lat="39.5673559" lon="21.0051606"><ele>998.0</ele><time>2026-04-27T07:16:51.2Z</time></trkpt><trkpt lat="39.5674722" lon="21.00522"><ele>998.0</ele><time>2026-04-27T07:16:52.2Z</time></trkpt><trkpt lat="39.5675852" lon="21.0052856"><ele>998.0</ele><time>2026-04-27T07:16:53.201Z</time></trkpt><trkpt lat="39.567702" lon="21.005348"><ele>998.0</ele><time>2026-04-27T07:16:54.2Z</time></trkpt><trkpt lat="39.5678135" lon="21.0054139"><ele>998.0</ele><time>2026-04-27T07:16:55.201Z</time></trkpt><trkpt lat="39.5679136" lon="21.0055011"><ele>1000.0</ele><time>2026-04-27T07:16:56.2Z</time></trkpt><trkpt lat="39.5680033" lon="21.0055947"><ele>1002.0</ele><time>2026-04-27T07:16:57.201Z</time></trkpt><trkpt lat="39.5680734" lon="21.0057082"><ele>1004.0</ele><time>2026-04-27T07:16:58.2Z</time></trkpt><trkpt lat="39.5681584" lon="21.0057884"><ele>1006.0</ele><time>2026-04-27T07:16:59.2Z</time></trkpt><trkpt lat="39.568272" lon="21.0058392"><ele>1006.0</ele><time>2026-04-27T07:17:00.201Z</time></trkpt><trkpt lat="39.5683892" lon="21.0058879"><ele>1006.0</ele><time>2026-04-27T07:17:01.2Z</time></trkpt><trkpt lat="39.5685116" lon="21.0059373"><ele>1006.0</ele><time>2026-04-27T07:17:02.2Z</time></trkpt><trkpt lat="39.5686131" lon="21.0060057"><ele>1006.0</ele><time>2026-04-27T07:17:03.2Z</time></trkpt><trkpt lat="39.5686957" lon="21.0060941"><ele>1003.0</ele><time>2026-04-27T07:17:04.201Z</time></trkpt><trkpt lat="39.5687625" lon="21.006195"><ele>999.9999999999999</ele><time>2026-04-27T07:17:05.2Z</time></trkpt><trkpt lat="39.5687921" lon="21.0063102"><ele>996.9999999999999</ele><time>2026-04-27T07:17:06.2Z</time></trkpt><trkpt lat="39.5688292" lon="21.0064285"><ele>994.0</ele><time>2026-04-27T07:17:07.201Z</time></trkpt><trkpt lat="39.5688961" lon="21.0065218"><ele>991.0</ele><time>2026-04-27T07:17:08.2Z</time></trkpt><trkpt lat="39.5689837" lon="21.0065702"><ele>991.0</ele><time>2026-04-27T07:17:09.201Z</time></trkpt><trkpt lat="39.5690859" lon="21.006594"><ele>990.9999999999999</ele><time>2026-04-27T07:17:10.2Z</time></trkpt><trkpt lat="39.5691953" lon="21.0066233"><ele>990.9999999999999</ele><time>2026-04-27T07:17:11.2Z</time></trkpt><trkpt lat="39.569301" lon="21.0066536"><ele>991.0</ele><time>2026-04-27T07:17:12.201Z</time></trkpt><trkpt lat="39.5693999" lon="21.0067106"><ele>991.0</ele><time>2026-04-27T07:17:13.2Z</time></trkpt><trkpt lat="39.5694747" lon="21.006793"><ele>993.3333333333333</ele><time>2026-04-27T07:17:14.201Z</time></trkpt><trkpt lat="39.5695258" lon="21.0068994"><ele>995.6666666666666</ele><time>2026-04-27T07:17:15.201Z</time></trkpt><trkpt lat="39.5695498" lon="21.0070079"><ele>998.0</ele><time>2026-04-27T07:17:16.201Z</time></trkpt><trkpt lat="39.5695678" lon="21.0071242"><ele>1000.3333333333333</ele><time>2026-04-27T07:17:17.201Z</time></trkpt><trkpt lat="39.5696012" lon="21.0072208"><ele>1002.6666666666666</ele><time>2026-04-27T07:17:18.2Z</time></trkpt><trkpt lat="39.5696636" lon="21.0072937"><ele>1005.0</ele><time>2026-04-27T07:17:19.201Z</time></trkpt><trkpt lat="39.5697486" lon="21.0073248"><ele>1005.0</ele><time>2026-04-27T07:17:20.2Z</time></trkpt><trkpt lat="39.5698408" lon="21.0073178"><ele>1005.0</ele><time>2026-04-27T07:17:21.201Z</time></trkpt><trkpt lat="39.5699382" lon="21.0072657"><ele>1005.0</ele><time>2026-04-27T07:17:22.2Z</time></trkpt><trkpt lat="39.5700373" lon="21.0071751"><ele>1005.0</ele><time>2026-04-27T07:17:23.201Z</time></trkpt><trkpt lat="39.5701347" lon="21.007067"><ele>1005.0</ele><time>2026-04-27T07:17:24.2Z</time></trkpt><trkpt lat="39.5702316" lon="21.0069593"><ele>1005.0</ele><time>2026-04-27T07:17:25.201Z</time></trkpt><trkpt lat="39.5703354" lon="21.0068687"><ele>1005.0</ele><time>2026-04-27T07:17:26.201Z</time></trkpt><trkpt lat="39.5704589" lon="21.006796"><ele>1005.0</ele><time>2026-04-27T07:17:27.2Z</time></trkpt><trkpt lat="39.5705895" lon="21.0067257"><ele>1005.0</ele><time>2026-04-27T07:17:28.201Z</time></trkpt><trkpt lat="39.5707254" lon="21.0066616"><ele>1003.3333333333333</ele><time>2026-04-27T07:17:29.2Z</time></trkpt><trkpt lat="39.5708694" lon="21.0066148"><ele>1001.6666666666666</ele><time>2026-04-27T07:17:30.201Z</time></trkpt><trkpt lat="39.5710192" lon="21.0065793"><ele>1000.0</ele><time>2026-04-27T07:17:31.201Z</time></trkpt><trkpt lat="39.5711721" lon="21.0065478"><ele>1000.3333333333333</ele><time>2026-04-27T07:17:32.201Z</time></trkpt><trkpt lat="39.571324" lon="21.0065233"><ele>1000.6666666666667</ele><time>2026-04-27T07:17:33.2Z</time></trkpt><trkpt lat="39.5714746" lon="21.0065116"><ele>1001.0</ele><time>2026-04-27T07:17:34.201Z</time></trkpt><trkpt lat="39.5716201" lon="21.0065191"><ele>1001.0</ele><time>2026-04-27T07:17:35.201Z</time></trkpt><trkpt lat="39.5717581" lon="21.0065544"><ele>1001.0</ele><time>2026-04-27T07:17:36.201Z</time></trkpt><trkpt lat="39.5718913" lon="21.006603"><ele>1001.0</ele><time>2026-04-27T07:17:37.201Z</time></trkpt><trkpt lat="39.5720257" lon="21.0066366"><ele>1001.0</ele><time>2026-04-27T07:17:38.2Z</time></trkpt><trkpt lat="39.5721576" lon="21.0066532"><ele>1004.5</ele><time>2026-04-27T07:17:39.201Z</time></trkpt><trkpt lat="39.5722898" lon="21.0066662"><ele>1008.0</ele><time>2026-04-27T07:17:40.2Z</time></trkpt><trkpt lat="39.5724199" lon="21.0066796"><ele>1011.5</ele><time>2026-04-27T07:17:41.201Z</time></trkpt><trkpt lat="39.5725427" lon="21.0066917"><ele>1015.0</ele><time>2026-04-27T07:17:42.201Z</time></trkpt><trkpt lat="39.5726603" lon="21.0067088"><ele>1015.0</ele><time>2026-04-27T07:17:43.2Z</time></trkpt><trkpt lat="39.5727722" lon="21.0067154"><ele>1015.0</ele><time>2026-04-27T07:17:44.2Z</time></trkpt><trkpt lat="39.5728648" lon="21.0067218"><ele>1015.0</ele><time>2026-04-27T07:17:45.2Z</time></trkpt><trkpt lat="39.5729559" lon="21.0067284"><ele>1015.0</ele><time>2026-04-27T07:17:46.201Z</time></trkpt><trkpt lat="39.5730416" lon="21.0067449"><ele>1015.0</ele><time>2026-04-27T07:17:47.201Z</time></trkpt><trkpt lat="39.5731185" lon="21.0067803"><ele>1016.2</ele><time>2026-04-27T07:17:48.201Z</time></trkpt><trkpt lat="39.5731781" lon="21.0068231"><ele>1017.4</ele><time>2026-04-27T07:17:49.2Z</time></trkpt><trkpt lat="39.5732617" lon="21.0069392"><ele>1018.5999999999999</ele><time>2026-04-27T07:17:51.2Z</time></trkpt><trkpt lat="39.5732478" lon="21.0071084"><ele>1019.8</ele><time>2026-04-27T07:17:53.2Z</time></trkpt><trkpt lat="39.5732348" lon="21.0072154"><ele>1021.0</ele><time>2026-04-27T07:17:54.201Z</time></trkpt><trkpt lat="39.5732411" lon="21.0073282"><ele>1021.0</ele><time>2026-04-27T07:17:55.2Z</time></trkpt><trkpt lat="39.5732685" lon="21.0074314"><ele>1020.9999999999999</ele><time>2026-04-27T07:17:56.2Z</time></trkpt><trkpt lat="39.5733281" lon="21.0075308"><ele>1020.9999999999999</ele><time>2026-04-27T07:17:57.2Z</time></trkpt><trkpt lat="39.5734234" lon="21.0076412"><ele>1021.0</ele><time>2026-04-27T07:17:58.2Z</time></trkpt><trkpt lat="39.5735196" lon="21.007764"><ele>1021.0</ele><time>2026-04-27T07:17:59.201Z</time></trkpt><trkpt lat="39.5736022" lon="21.0078998"><ele>1022.5</ele><time>2026-04-27T07:18:00.201Z</time></trkpt><trkpt lat="39.5736921" lon="21.0080287"><ele>1024.0</ele><time>2026-04-27T07:18:01.2Z</time></trkpt><trkpt lat="39.5737901" lon="21.0081395"><ele>1025.5</ele><time>2026-04-27T07:18:02.2Z</time></trkpt><trkpt lat="39.5738966" lon="21.0082398"><ele>1027.0</ele><time>2026-04-27T07:18:03.2Z</time></trkpt><trkpt lat="39.5740011" lon="21.0083274"><ele>1029.25</ele><time>2026-04-27T07:18:04.201Z</time></trkpt><trkpt lat="39.5741079" lon="21.0084059"><ele>1031.5</ele><time>2026-04-27T07:18:05.201Z</time></trkpt><trkpt lat="39.574211" lon="21.0084773"><ele>1033.75</ele><time>2026-04-27T07:18:06.2Z</time></trkpt><trkpt lat="39.5743104" lon="21.0085382"><ele>1036.0</ele><time>2026-04-27T07:18:07.201Z</time></trkpt><trkpt lat="39.5744156" lon="21.0085904"><ele>1036.0</ele><time>2026-04-27T07:18:08.201Z</time></trkpt><trkpt lat="39.574523" lon="21.0086563"><ele>1036.0</ele><time>2026-04-27T07:18:09.2Z</time></trkpt><trkpt lat="39.5746166" lon="21.008747"><ele>1036.0</ele><time>2026-04-27T07:18:10.2Z</time></trkpt><trkpt lat="39.5746905" lon="21.0088655"><ele>1036.0</ele><time>2026-04-27T07:18:11.2Z</time></trkpt><trkpt lat="39.574737" lon="21.0090145"><ele>1037.6</ele><time>2026-04-27T07:18:12.2Z</time></trkpt><trkpt lat="39.5747605" lon="21.0091638"><ele>1039.1999999999998</ele><time>2026-04-27T07:18:13.2Z</time></trkpt><trkpt lat="39.5747715" lon="21.0092995"><ele>1040.8000000000002</ele><time>2026-04-27T07:18:14.2Z</time></trkpt><trkpt lat="39.5747977" lon="21.009414"><ele>1042.4</ele><time>2026-04-27T07:18:15.201Z</time></trkpt><trkpt lat="39.5748471" lon="21.0094823"><ele>1044.0</ele><time>2026-04-27T07:18:16.2Z</time></trkpt><trkpt lat="39.5749144" lon="21.0095071"><ele>1044.0</ele><time>2026-04-27T07:18:17.2Z</time></trkpt><trkpt lat="39.5749915" lon="21.0094845"><ele>1044.0</ele><time>2026-04-27T07:18:18.201Z</time></trkpt><trkpt lat="39.5750613" lon="21.0094079"><ele>1044.0</ele><time>2026-04-27T07:18:19.2Z</time></trkpt><trkpt lat="39.5751193" lon="21.0092934"><ele>1044.0</ele><time>2026-04-27T07:18:20.2Z</time></trkpt><trkpt lat="39.5751715" lon="21.0091551"><ele>1044.0</ele><time>2026-04-27T07:18:21.2Z</time></trkpt><trkpt lat="39.5752366" lon="21.009039"><ele>1043.0</ele><time>2026-04-27T07:18:22.201Z</time></trkpt><trkpt lat="39.5753157" lon="21.0089513"><ele>1042.0</ele><time>2026-04-27T07:18:23.201Z</time></trkpt><trkpt lat="39.5754378" lon="21.008963"><ele>1041.0</ele><time>2026-04-27T07:18:24.201Z</time></trkpt><trkpt lat="39.5755281" lon="21.0089671"><ele>1040.0</ele><time>2026-04-27T07:18:25.201Z</time></trkpt><trkpt lat="39.5756106" lon="21.0089858"><ele>1039.0</ele><time>2026-04-27T07:18:26.2Z</time></trkpt><trkpt lat="39.5756475" lon="21.0091462"><ele>1040.75</ele><time>2026-04-27T07:18:27.201Z</time></trkpt><trkpt lat="39.5756823" lon="21.0092619"><ele>1042.5</ele><time>2026-04-27T07:18:28.2Z</time></trkpt><trkpt lat="39.5756828" lon="21.0094183"><ele>1044.25</ele><time>2026-04-27T07:18:29.2Z</time></trkpt><trkpt lat="39.575656" lon="21.0095653"><ele>1046.0</ele><time>2026-04-27T07:18:30.2Z</time></trkpt><trkpt lat="39.5756058" lon="21.0097156"><ele>1046.0</ele><time>2026-04-27T07:18:31.2Z</time></trkpt><trkpt lat="39.5755477" lon="21.0098733"><ele>1046.0</ele><time>2026-04-27T07:18:32.201Z</time></trkpt><trkpt lat="39.5755018" lon="21.0100583"><ele>1046.0</ele><time>2026-04-27T07:18:33.2Z</time></trkpt><trkpt lat="39.5754858" lon="21.0102672"><ele>1046.0</ele><time>2026-04-27T07:18:34.201Z</time></trkpt><trkpt lat="39.575472" lon="21.0104625"><ele>1048.3333333333335</ele><time>2026-04-27T07:18:35.201Z</time></trkpt><trkpt lat="39.5754483" lon="21.0106741"><ele>1050.6666666666667</ele><time>2026-04-27T07:18:36.201Z</time></trkpt><trkpt lat="39.5754088" lon="21.0108733"><ele>1053.0</ele><time>2026-04-27T07:18:37.201Z</time></trkpt><trkpt lat="39.5753678" lon="21.0110702"><ele>1054.5</ele><time>2026-04-27T07:18:38.2Z</time></trkpt><trkpt lat="39.575316" lon="21.0112576"><ele>1056.0</ele><time>2026-04-27T07:18:39.201Z</time></trkpt><trkpt lat="39.5752639" lon="21.0114396"><ele>1057.5</ele><time>2026-04-27T07:18:40.2Z</time></trkpt><trkpt lat="39.5752145" lon="21.0116165"><ele>1059.0</ele><time>2026-04-27T07:18:41.201Z</time></trkpt><trkpt lat="39.5751733" lon="21.0117885"><ele>1060.5</ele><time>2026-04-27T07:18:42.2Z</time></trkpt><trkpt lat="39.5751327" lon="21.0119548"><ele>1062.0</ele><time>2026-04-27T07:18:43.2Z</time></trkpt><trkpt lat="39.5750857" lon="21.0121168"><ele>1063.5</ele><time>2026-04-27T07:18:44.2Z</time></trkpt><trkpt lat="39.5750356" lon="21.0122843"><ele>1065.0</ele><time>2026-04-27T07:18:45.201Z</time></trkpt><trkpt lat="39.5749811" lon="21.0124598"><ele>1066.5</ele><time>2026-04-27T07:18:46.2Z</time></trkpt><trkpt lat="39.574922" lon="21.0126275"><ele>1068.0</ele><time>2026-04-27T07:18:47.201Z</time></trkpt><trkpt lat="39.5748643" lon="21.0127816"><ele>1069.5</ele><time>2026-04-27T07:18:48.2Z</time></trkpt><trkpt lat="39.5747978" lon="21.0129354"><ele>1071.0</ele><time>2026-04-27T07:18:49.201Z</time></trkpt><trkpt lat="39.5747212" lon="21.0130753"><ele>1071.0</ele><time>2026-04-27T07:18:50.201Z</time></trkpt><trkpt lat="39.5746401" lon="21.0132"><ele>1071.0</ele><time>2026-04-27T07:18:51.2Z</time></trkpt><trkpt lat="39.5745761" lon="21.0133167"><ele>1071.0</ele><time>2026-04-27T07:18:52.2Z</time></trkpt><trkpt lat="39.5745477" lon="21.0134502"><ele>1071.0</ele><time>2026-04-27T07:18:53.2Z</time></trkpt><trkpt lat="39.5745464" lon="21.0135968"><ele>1070.5</ele><time>2026-04-27T07:18:54.201Z</time></trkpt><trkpt lat="39.574579" lon="21.0137597"><ele>1070.0</ele><time>2026-04-27T07:18:55.201Z</time></trkpt><trkpt lat="39.5746298" lon="21.0139269"><ele>1069.5</ele><time>2026-04-27T07:18:56.201Z</time></trkpt><trkpt lat="39.5746738" lon="21.0140901"><ele>1069.0</ele><time>2026-04-27T07:18:57.201Z</time></trkpt><trkpt lat="39.574704" lon="21.0142491"><ele>1069.0</ele><time>2026-04-27T07:18:58.201Z</time></trkpt><trkpt lat="39.5746807" lon="21.014379"><ele>1069.0</ele><time>2026-04-27T07:18:59.2Z</time></trkpt><trkpt lat="39.5746" lon="21.0145242"><ele>1069.0</ele><time>2026-04-27T07:19:00.201Z</time></trkpt><trkpt lat="39.5745466" lon="21.0146384"><ele>1069.0</ele><time>2026-04-27T07:19:01.2Z</time></trkpt><trkpt lat="39.5744055" lon="21.0147207"><ele>1075.4</ele><time>2026-04-27T07:19:02.2Z</time></trkpt><trkpt lat="39.5743185" lon="21.0148086"><ele>1081.8000000000002</ele><time>2026-04-27T07:19:03.2Z</time></trkpt><trkpt lat="39.5742494" lon="21.014889"><ele>1088.1999999999998</ele><time>2026-04-27T07:19:04.2Z</time></trkpt><trkpt lat="39.5742259" lon="21.0149909"><ele>1094.6</ele><time>2026-04-27T07:19:05.201Z</time></trkpt><trkpt lat="39.5742381" lon="21.0150965"><ele>1101.0</ele><time>2026-04-27T07:19:06.2Z</time></trkpt><trkpt lat="39.5742655" lon="21.0152062"><ele>1101.0</ele><time>2026-04-27T07:19:07.201Z</time></trkpt><trkpt lat="39.5742777" lon="21.0153113"><ele>1101.0</ele><time>2026-04-27T07:19:08.201Z</time></trkpt><trkpt lat="39.5742385" lon="21.0154272"><ele>1101.0</ele><time>2026-04-27T07:19:09.201Z</time></trkpt><trkpt lat="39.5741838" lon="21.0155565"><ele>1101.0</ele><time>2026-04-27T07:19:10.201Z</time></trkpt><trkpt lat="39.5741393" lon="21.0157052"><ele>1101.0</ele><time>2026-04-27T07:19:11.2Z</time></trkpt><trkpt lat="39.5741096" lon="21.0158492"><ele>1101.0</ele><time>2026-04-27T07:19:12.201Z</time></trkpt><trkpt lat="39.5740739" lon="21.0159757"><ele>1101.0</ele><time>2026-04-27T07:19:13.2Z</time></trkpt><trkpt lat="39.5740604" lon="21.0160921"><ele>1101.0</ele><time>2026-04-27T07:19:14.201Z</time></trkpt><trkpt lat="39.5740719" lon="21.0161928"><ele>1101.0</ele><time>2026-04-27T07:19:15.201Z</time></trkpt><trkpt lat="39.5741239" lon="21.0162749"><ele>1101.0</ele><time>2026-04-27T07:19:16.201Z</time></trkpt><trkpt lat="39.5742063" lon="21.0163064"><ele>1101.0</ele><time>2026-04-27T07:19:17.2Z</time></trkpt><trkpt lat="39.5743014" lon="21.016292"><ele>1101.0</ele><time>2026-04-27T07:19:18.2Z</time></trkpt><trkpt lat="39.5743917" lon="21.0162638"><ele>1101.0</ele><time>2026-04-27T07:19:19.201Z</time></trkpt><trkpt lat="39.574472" lon="21.016256"><ele>1101.0</ele><time>2026-04-27T07:19:20.2Z</time></trkpt><trkpt lat="39.5745576" lon="21.0162867"><ele>1101.0</ele><time>2026-04-27T07:19:21.201Z</time></trkpt><trkpt lat="39.5746312" lon="21.0163045"><ele>1101.0</ele><time>2026-04-27T07:19:22.201Z</time></trkpt><trkpt lat="39.5747058" lon="21.0163378"><ele>1101.0</ele><time>2026-04-27T07:19:23.201Z</time></trkpt><trkpt lat="39.5747727" lon="21.0163686"><ele>1102.0</ele><time>2026-04-27T07:19:24.201Z</time></trkpt><trkpt lat="39.5748296" lon="21.0164116"><ele>1103.0</ele><time>2026-04-27T07:19:25.2Z</time></trkpt><trkpt lat="39.5748882" lon="21.0164572"><ele>1104.0</ele><time>2026-04-27T07:19:26.2Z</time></trkpt><trkpt lat="39.5749348" lon="21.0165132"><ele>1105.0</ele><time>2026-04-27T07:19:27.2Z</time></trkpt><trkpt lat="39.574975" lon="21.0165861"><ele>1106.0</ele><time>2026-04-27T07:19:28.2Z</time></trkpt><trkpt lat="39.5750152" lon="21.0166736"><ele>1107.0</ele><time>2026-04-27T07:19:29.201Z</time></trkpt><trkpt lat="39.5750546" lon="21.0167561"><ele>1108.0</ele><time>2026-04-27T07:19:30.2Z</time></trkpt><trkpt lat="39.5751014" lon="21.0168349"><ele>1108.0</ele><time>2026-04-27T07:19:31.2Z</time></trkpt><trkpt lat="39.5751598" lon="21.0169005"><ele>1108.0</ele><time>2026-04-27T07:19:32.2Z</time></trkpt><trkpt lat="39.5752345" lon="21.0169515"><ele>1108.0</ele><time>2026-04-27T07:19:33.2Z</time></trkpt><trkpt lat="39.5753155" lon="21.0169894"><ele>1108.0</ele><time>2026-04-27T07:19:34.2Z</time></trkpt><trkpt lat="39.5753997" lon="21.0170289"><ele>1108.0</ele><time>2026-04-27T07:19:35.2Z</time></trkpt><trkpt lat="39.5754857" lon="21.0170531"><ele>1108.0</ele><time>2026-04-27T07:19:36.2Z</time></trkpt><trkpt lat="39.5755722" lon="21.0170756"><ele>1109.0</ele><time>2026-04-27T07:19:37.201Z</time></trkpt><trkpt lat="39.5756648" lon="21.017095"><ele>1110.0</ele><time>2026-04-27T07:19:38.2Z</time></trkpt><trkpt lat="39.5757571" lon="21.0171212"><ele>1111.0</ele><time>2026-04-27T07:19:39.2Z</time></trkpt><trkpt lat="39.5758554" lon="21.0171505"><ele>1112.0</ele><time>2026-04-27T07:19:40.2Z</time></trkpt><trkpt lat="39.5759505" lon="21.0171909"><ele>1113.0</ele><time>2026-04-27T07:19:41.2Z</time></trkpt><trkpt lat="39.5760437" lon="21.0172473"><ele>1113.0</ele><time>2026-04-27T07:19:42.2Z</time></trkpt><trkpt lat="39.5761209" lon="21.0173308"><ele>1113.0</ele><time>2026-04-27T07:19:43.201Z</time></trkpt><trkpt lat="39.5762023" lon="21.0174343"><ele>1113.0</ele><time>2026-04-27T07:19:44.2Z</time></trkpt><trkpt lat="39.5762701" lon="21.0175463"><ele>1113.0</ele><time>2026-04-27T07:19:45.201Z</time></trkpt><trkpt lat="39.5763446" lon="21.017658"><ele>1113.0</ele><time>2026-04-27T07:19:46.201Z</time></trkpt><trkpt lat="39.5764364" lon="21.0177803"><ele>1111.5</ele><time>2026-04-27T07:19:47.201Z</time></trkpt><trkpt lat="39.5765318" lon="21.0179043"><ele>1110.0</ele><time>2026-04-27T07:19:48.2Z</time></trkpt><trkpt lat="39.5766179" lon="21.0180302"><ele>1108.5</ele><time>2026-04-27T07:19:49.201Z</time></trkpt><trkpt lat="39.5766981" lon="21.0181503"><ele>1107.0</ele><time>2026-04-27T07:19:50.201Z</time></trkpt><trkpt lat="39.5767777" lon="21.0182718"><ele>1109.25</ele><time>2026-04-27T07:19:51.201Z</time></trkpt><trkpt lat="39.5768596" lon="21.018392"><ele>1111.5</ele><time>2026-04-27T07:19:52.201Z</time></trkpt><trkpt lat="39.5769344" lon="21.0185147"><ele>1113.75</ele><time>2026-04-27T07:19:53.2Z</time></trkpt><trkpt lat="39.5769999" lon="21.0186765"><ele>1116.0</ele><time>2026-04-27T07:19:54.201Z</time></trkpt><trkpt lat="39.5770643" lon="21.0188229"><ele>1112.0</ele><time>2026-04-27T07:19:55.2Z</time></trkpt><trkpt lat="39.5771268" lon="21.0189696"><ele>1108.0</ele><time>2026-04-27T07:19:56.2Z</time></trkpt><trkpt lat="39.5771933" lon="21.0191057"><ele>1104.0</ele><time>2026-04-27T07:19:57.2Z</time></trkpt><trkpt lat="39.5772559" lon="21.0192296"><ele>1100.0</ele><time>2026-04-27T07:19:58.2Z</time></trkpt><trkpt lat="39.5773119" lon="21.0193508"><ele>1100.0</ele><time>2026-04-27T07:19:59.201Z</time></trkpt><trkpt lat="39.577364" lon="21.0194689"><ele>1100.0</ele><time>2026-04-27T07:20:00.201Z</time></trkpt><trkpt lat="39.5773752" lon="21.019589"><ele>1100.0</ele><time>2026-04-27T07:20:01.201Z</time></trkpt><trkpt lat="39.5773721" lon="21.01971"><ele>1100.0</ele><time>2026-04-27T07:20:02.2Z</time></trkpt><trkpt lat="39.5773408" lon="21.0198169"><ele>1100.0</ele><time>2026-04-27T07:20:03.201Z</time></trkpt><trkpt lat="39.5773309" lon="21.0200143"><ele>1097.5</ele><time>2026-04-27T07:20:04.201Z</time></trkpt><trkpt lat="39.5771867" lon="21.0201361"><ele>1095.0</ele><time>2026-04-27T07:20:05.2Z</time></trkpt><trkpt lat="39.5771274" lon="21.020285"><ele>1092.5</ele><time>2026-04-27T07:20:06.201Z</time></trkpt><trkpt lat="39.5770696" lon="21.0204272"><ele>1090.0</ele><time>2026-04-27T07:20:07.201Z</time></trkpt><trkpt lat="39.5770431" lon="21.0205694"><ele>1092.2</ele><time>2026-04-27T07:20:08.2Z</time></trkpt><trkpt lat="39.5769893" lon="21.0206914"><ele>1094.4</ele><time>2026-04-27T07:20:09.2Z</time></trkpt><trkpt lat="39.5769281" lon="21.0208005"><ele>1096.6</ele><time>2026-04-27T07:20:10.201Z</time></trkpt><trkpt lat="39.5768671" lon="21.0208981"><ele>1098.8</ele><time>2026-04-27T07:20:11.201Z</time></trkpt><trkpt lat="39.576807" lon="21.0209789"><ele>1101.0</ele><time>2026-04-27T07:20:12.2Z</time></trkpt><trkpt lat="39.5767703" lon="21.021066"><ele>1101.0</ele><time>2026-04-27T07:20:13.201Z</time></trkpt><trkpt lat="39.5767738" lon="21.0211671"><ele>1101.0</ele><time>2026-04-27T07:20:14.201Z</time></trkpt><trkpt lat="39.5768136" lon="21.0212576"><ele>1101.0</ele><time>2026-04-27T07:20:15.2Z</time></trkpt><trkpt lat="39.5768844" lon="21.0213204"><ele>1101.0</ele><time>2026-04-27T07:20:16.201Z</time></trkpt><trkpt lat="39.5769756" lon="21.021346"><ele>1101.0</ele><time>2026-04-27T07:20:17.201Z</time></trkpt><trkpt lat="39.5770932" lon="21.0213288"><ele>1098.25</ele><time>2026-04-27T07:20:18.201Z</time></trkpt><trkpt lat="39.5772332" lon="21.0212755"><ele>1095.5</ele><time>2026-04-27T07:20:19.2Z</time></trkpt><trkpt lat="39.5773712" lon="21.0211974"><ele>1092.75</ele><time>2026-04-27T07:20:20.201Z</time></trkpt><trkpt lat="39.5775029" lon="21.021116"><ele>1090.0</ele><time>2026-04-27T07:20:21.201Z</time></trkpt><trkpt lat="39.5776337" lon="21.0210597"><ele>1090.0</ele><time>2026-04-27T07:20:22.201Z</time></trkpt><trkpt lat="39.5777516" lon="21.0210231"><ele>1090.0</ele><time>2026-04-27T07:20:23.2Z</time></trkpt><trkpt lat="39.5778783" lon="21.0210216"><ele>1090.0</ele><time>2026-04-27T07:20:24.201Z</time></trkpt><trkpt lat="39.5779964" lon="21.0209483"><ele>1090.0</ele><time>2026-04-27T07:20:25.2Z</time></trkpt><trkpt lat="39.5781229" lon="21.0208461"><ele>1086.75</ele><time>2026-04-27T07:20:26.201Z</time></trkpt><trkpt lat="39.5782376" lon="21.0207428"><ele>1083.5</ele><time>2026-04-27T07:20:27.201Z</time></trkpt><trkpt lat="39.578341" lon="21.0206641"><ele>1080.25</ele><time>2026-04-27T07:20:28.201Z</time></trkpt><trkpt lat="39.5784556" lon="21.0206282"><ele>1077.0</ele><time>2026-04-27T07:20:29.201Z</time></trkpt><trkpt lat="39.5785608" lon="21.0205944"><ele>1077.0</ele><time>2026-04-27T07:20:30.2Z</time></trkpt><trkpt lat="39.5786725" lon="21.0206074"><ele>1077.0</ele><time>2026-04-27T07:20:31.201Z</time></trkpt><trkpt lat="39.5787579" lon="21.0206356"><ele>1077.0</ele><time>2026-04-27T07:20:32.201Z</time></trkpt><trkpt lat="39.5788445" lon="21.0205882"><ele>1077.0</ele><time>2026-04-27T07:20:33.201Z</time></trkpt><trkpt lat="39.5789155" lon="21.0204822"><ele>1077.0</ele><time>2026-04-27T07:20:34.2Z</time></trkpt><trkpt lat="39.5789931" lon="21.0203584"><ele>1077.5</ele><time>2026-04-27T07:20:35.2Z</time></trkpt><trkpt lat="39.5790904" lon="21.020252"><ele>1078.0</ele><time>2026-04-27T07:20:36.201Z</time></trkpt><trkpt lat="39.5792089" lon="21.0201718"><ele>1078.5</ele><time>2026-04-27T07:20:37.201Z</time></trkpt><trkpt lat="39.5792862" lon="21.0200319"><ele>1079.0</ele><time>2026-04-27T07:20:38.201Z</time></trkpt><trkpt lat="39.579343" lon="21.0198883"><ele>1079.0</ele><time>2026-04-27T07:20:39.2Z</time></trkpt><trkpt lat="39.5794124" lon="21.0197539"><ele>1079.0</ele><time>2026-04-27T07:20:40.2Z</time></trkpt><trkpt lat="39.5795159" lon="21.0196619"><ele>1079.0</ele><time>2026-04-27T07:20:41.2Z</time></trkpt><trkpt lat="39.5796046" lon="21.0195695"><ele>1079.0</ele><time>2026-04-27T07:20:42.2Z</time></trkpt><trkpt lat="39.5797871" lon="21.0194677"><ele>1084.6666666666667</ele><time>2026-04-27T07:20:43.2Z</time></trkpt><trkpt lat="39.5799357" lon="21.0193214"><ele>1090.3333333333333</ele><time>2026-04-27T07:20:44.2Z</time></trkpt><trkpt lat="39.5800726" lon="21.0191845"><ele>1096.0</ele><time>2026-04-27T07:20:45.201Z</time></trkpt><trkpt lat="39.5801837" lon="21.0190408"><ele>1096.0</ele><time>2026-04-27T07:20:46.201Z</time></trkpt><trkpt lat="39.5802792" lon="21.0188532"><ele>1096.0</ele><time>2026-04-27T07:20:47.201Z</time></trkpt><trkpt lat="39.5803502" lon="21.0186441"><ele>1096.0</ele><time>2026-04-27T07:20:48.2Z</time></trkpt><trkpt lat="39.5803934" lon="21.0184057"><ele>1101.3333333333333</ele><time>2026-04-27T07:20:49.201Z</time></trkpt><trkpt lat="39.5804112" lon="21.0181741"><ele>1106.6666666666667</ele><time>2026-04-27T07:20:50.2Z</time></trkpt><trkpt lat="39.5804194" lon="21.0179557"><ele>1112.0</ele><time>2026-04-27T07:20:51.2Z</time></trkpt><trkpt lat="39.5804501" lon="21.0177807"><ele>1112.0</ele><time>2026-04-27T07:20:52.201Z</time></trkpt><trkpt lat="39.5804749" lon="21.0176238"><ele>1112.0</ele><time>2026-04-27T07:20:53.2Z</time></trkpt><trkpt lat="39.5805733" lon="21.017479"><ele>1112.0</ele><time>2026-04-27T07:20:54.201Z</time></trkpt><trkpt lat="39.5806519" lon="21.0173694"><ele>1112.0</ele><time>2026-04-27T07:20:55.201Z</time></trkpt><trkpt lat="39.580734" lon="21.0172691"><ele>1111.5</ele><time>2026-04-27T07:20:56.2Z</time></trkpt><trkpt lat="39.5808645" lon="21.0172855"><ele>1111.0</ele><time>2026-04-27T07:20:57.2Z</time></trkpt><trkpt lat="39.5809527" lon="21.0172488"><ele>1110.5</ele><time>2026-04-27T07:20:58.2Z</time></trkpt><trkpt lat="39.5810948" lon="21.0173425"><ele>1110.0</ele><time>2026-04-27T07:20:59.2Z</time></trkpt><trkpt lat="39.5812172" lon="21.0173813"><ele>1108.0</ele><time>2026-04-27T07:21:00.2Z</time></trkpt><trkpt lat="39.5813297" lon="21.0174252"><ele>1106.0</ele><time>2026-04-27T07:21:01.201Z</time></trkpt><trkpt lat="39.5814348" lon="21.0174854"><ele>1104.0</ele><time>2026-04-27T07:21:02.201Z</time></trkpt><trkpt lat="39.5815066" lon="21.0176202"><ele>1102.0</ele><time>2026-04-27T07:21:03.2Z</time></trkpt><trkpt lat="39.5815768" lon="21.0177643"><ele>1103.25</ele><time>2026-04-27T07:21:04.201Z</time></trkpt><trkpt lat="39.581654" lon="21.0179222"><ele>1104.5</ele><time>2026-04-27T07:21:05.2Z</time></trkpt><trkpt lat="39.5817346" lon="21.0180674"><ele>1105.75</ele><time>2026-04-27T07:21:06.201Z</time></trkpt><trkpt lat="39.5818185" lon="21.0182103"><ele>1107.0</ele><time>2026-04-27T07:21:07.2Z</time></trkpt><trkpt lat="39.581904" lon="21.0183371"><ele>1107.0</ele><time>2026-04-27T07:21:08.2Z</time></trkpt><trkpt lat="39.5819861" lon="21.0184507"><ele>1107.0</ele><time>2026-04-27T07:21:09.2Z</time></trkpt><trkpt lat="39.5820573" lon="21.0185666"><ele>1107.0</ele><time>2026-04-27T07:21:10.201Z</time></trkpt><trkpt lat="39.5821212" lon="21.0186856"><ele>1107.0</ele><time>2026-04-27T07:21:11.201Z</time></trkpt><trkpt lat="39.5821634" lon="21.0188176"><ele>1100.25</ele><time>2026-04-27T07:21:12.201Z</time></trkpt><trkpt lat="39.5821831" lon="21.0189553"><ele>1093.5</ele><time>2026-04-27T07:21:13.2Z</time></trkpt><trkpt lat="39.5821906" lon="21.0191026"><ele>1086.75</ele><time>2026-04-27T07:21:14.2Z</time></trkpt><trkpt lat="39.5821825" lon="21.019254"><ele>1080.0</ele><time>2026-04-27T07:21:15.2Z</time></trkpt><trkpt lat="39.5821622" lon="21.0194118"><ele>1080.0</ele><time>2026-04-27T07:21:16.201Z</time></trkpt><trkpt lat="39.5821248" lon="21.0195643"><ele>1080.0</ele><time>2026-04-27T07:21:17.2Z</time></trkpt><trkpt lat="39.5820825" lon="21.0197044"><ele>1080.0</ele><time>2026-04-27T07:21:18.201Z</time></trkpt><trkpt lat="39.5820167" lon="21.0198278"><ele>1080.0</ele><time>2026-04-27T07:21:19.201Z</time></trkpt><trkpt lat="39.5819386" lon="21.0199464"><ele>1083.0</ele><time>2026-04-27T07:21:20.2Z</time></trkpt><trkpt lat="39.5818386" lon="21.0200629"><ele>1086.0</ele><time>2026-04-27T07:21:21.201Z</time></trkpt><trkpt lat="39.581741" lon="21.0201826"><ele>1089.0</ele><time>2026-04-27T07:21:22.201Z</time></trkpt><trkpt lat="39.5816526" lon="21.0203002"><ele>1092.0</ele><time>2026-04-27T07:21:23.201Z</time></trkpt><trkpt lat="39.5815824" lon="21.020437"><ele>1092.0</ele><time>2026-04-27T07:21:24.201Z</time></trkpt><trkpt lat="39.581532" lon="21.0205899"><ele>1092.0</ele><time>2026-04-27T07:21:25.201Z</time></trkpt><trkpt lat="39.5814981" lon="21.0207545"><ele>1092.0</ele><time>2026-04-27T07:21:26.201Z</time></trkpt><trkpt lat="39.5814737" lon="21.0209255"><ele>1092.0</ele><time>2026-04-27T07:21:27.201Z</time></trkpt><trkpt lat="39.5814376" lon="21.02109"><ele>1089.0</ele><time>2026-04-27T07:21:28.201Z</time></trkpt><trkpt lat="39.5813936" lon="21.0212593"><ele>1086.0</ele><time>2026-04-27T07:21:29.201Z</time></trkpt><trkpt lat="39.5813307" lon="21.0214315"><ele>1083.0</ele><time>2026-04-27T07:21:30.201Z</time></trkpt><trkpt lat="39.5812981" lon="21.0216024"><ele>1080.0</ele><time>2026-04-27T07:21:31.201Z</time></trkpt><trkpt lat="39.5812649" lon="21.0217705"><ele>1078.0</ele><time>2026-04-27T07:21:32.201Z</time></trkpt><trkpt lat="39.5812028" lon="21.0219265"><ele>1076.0</ele><time>2026-04-27T07:21:33.2Z</time></trkpt><trkpt lat="39.5811465" lon="21.0220812"><ele>1074.0</ele><time>2026-04-27T07:21:34.2Z</time></trkpt><trkpt lat="39.5810365" lon="21.02223"><ele>1072.0</ele><time>2026-04-27T07:21:35.201Z</time></trkpt><trkpt lat="39.5809614" lon="21.0223984"><ele>1074.0</ele><time>2026-04-27T07:21:36.2Z</time></trkpt><trkpt lat="39.5809006" lon="21.0225676"><ele>1076.0</ele><time>2026-04-27T07:21:37.201Z</time></trkpt><trkpt lat="39.5808371" lon="21.022743"><ele>1078.0</ele><time>2026-04-27T07:21:38.201Z</time></trkpt><trkpt lat="39.5807746" lon="21.0229067"><ele>1080.0</ele><time>2026-04-27T07:21:39.2Z</time></trkpt><trkpt lat="39.5807105" lon="21.0230647"><ele>1080.0</ele><time>2026-04-27T07:21:40.201Z</time></trkpt><trkpt lat="39.5806416" lon="21.0232254"><ele>1080.0</ele><time>2026-04-27T07:21:41.201Z</time></trkpt><trkpt lat="39.5805883" lon="21.0234071"><ele>1080.0</ele><time>2026-04-27T07:21:42.201Z</time></trkpt><trkpt lat="39.5805522" lon="21.0236146"><ele>1076.3333333333333</ele><time>2026-04-27T07:21:43.2Z</time></trkpt><trkpt lat="39.5805259" lon="21.0238063"><ele>1072.6666666666665</ele><time>2026-04-27T07:21:44.2Z</time></trkpt><trkpt lat="39.5804985" lon="21.0239961"><ele>1069.0</ele><time>2026-04-27T07:21:45.201Z</time></trkpt><trkpt lat="39.5804452" lon="21.0241801"><ele>1066.3333333333333</ele><time>2026-04-27T07:21:46.201Z</time></trkpt><trkpt lat="39.5803749" lon="21.0243631"><ele>1063.6666666666667</ele><time>2026-04-27T07:21:47.2Z</time></trkpt><trkpt lat="39.5803046" lon="21.0245416"><ele>1061.0</ele><time>2026-04-27T07:21:48.201Z</time></trkpt><trkpt lat="39.5802255" lon="21.0246915"><ele>1064.0</ele><time>2026-04-27T07:21:49.2Z</time></trkpt><trkpt lat="39.5801643" lon="21.0248427"><ele>1067.0</ele><time>2026-04-27T07:21:50.201Z</time></trkpt><trkpt lat="39.5801179" lon="21.0249974"><ele>1070.0</ele><time>2026-04-27T07:21:51.2Z</time></trkpt><trkpt lat="39.5800675" lon="21.0251516"><ele>1073.0</ele><time>2026-04-27T07:21:52.201Z</time></trkpt><trkpt lat="39.5800092" lon="21.025293"><ele>1073.0</ele><time>2026-04-27T07:21:53.2Z</time></trkpt><trkpt lat="39.579961" lon="21.0254213"><ele>1073.0</ele><time>2026-04-27T07:21:54.201Z</time></trkpt><trkpt lat="39.579908" lon="21.0255288"><ele>1073.0</ele><time>2026-04-27T07:21:55.201Z</time></trkpt><trkpt lat="39.5798333" lon="21.0256203"><ele>1073.0</ele><time>2026-04-27T07:21:56.201Z</time></trkpt><trkpt lat="39.5797938" lon="21.0257385"><ele>1073.0</ele><time>2026-04-27T07:21:57.201Z</time></trkpt><trkpt lat="39.5797781" lon="21.0258805"><ele>1071.0</ele><time>2026-04-27T07:21:58.2Z</time></trkpt><trkpt lat="39.5797684" lon="21.0260267"><ele>1069.0</ele><time>2026-04-27T07:21:59.2Z</time></trkpt><trkpt lat="39.5797701" lon="21.0261749"><ele>1067.0</ele><time>2026-04-27T07:22:00.2Z</time></trkpt><trkpt lat="39.5797861" lon="21.02631"><ele>1065.0</ele><time>2026-04-27T07:22:01.2Z</time></trkpt><trkpt lat="39.5797878" lon="21.0264397"><ele>1063.0</ele><time>2026-04-27T07:22:02.201Z</time></trkpt><trkpt lat="39.5797972" lon="21.0265541"><ele>1063.0</ele><time>2026-04-27T07:22:03.2Z</time></trkpt><trkpt lat="39.5797847" lon="21.0266647"><ele>1063.0</ele><time>2026-04-27T07:22:04.201Z</time></trkpt><trkpt lat="39.5797694" lon="21.0267462"><ele>1063.0</ele><time>2026-04-27T07:22:05.2Z</time></trkpt><trkpt lat="39.5797994" lon="21.0268716"><ele>1063.0</ele><time>2026-04-27T07:22:07.2Z</time></trkpt><trkpt lat="39.5798877" lon="21.0268138"><ele>1063.0</ele><time>2026-04-27T07:22:09.201Z</time></trkpt><trkpt lat="39.5799179" lon="21.0267324"><ele>1063.0</ele><time>2026-04-27T07:22:10.201Z</time></trkpt><trkpt lat="39.5799422" lon="21.0266105"><ele>1063.0</ele><time>2026-04-27T07:22:11.2Z</time></trkpt><trkpt lat="39.5799713" lon="21.0264701"><ele>1063.0</ele><time>2026-04-27T07:22:12.201Z</time></trkpt><trkpt lat="39.5800058" lon="21.0263311"><ele>1063.0</ele><time>2026-04-27T07:22:13.2Z</time></trkpt><trkpt lat="39.5800452" lon="21.0262044"><ele>1063.0</ele><time>2026-04-27T07:22:14.201Z</time></trkpt><trkpt lat="39.5800899" lon="21.0260804"><ele>1063.0</ele><time>2026-04-27T07:22:15.2Z</time></trkpt><trkpt lat="39.5801487" lon="21.0259653"><ele>1063.0</ele><time>2026-04-27T07:22:16.201Z</time></trkpt><trkpt lat="39.5802419" lon="21.0258776"><ele>1063.0</ele><time>2026-04-27T07:22:17.2Z</time></trkpt><trkpt lat="39.5803635" lon="21.0258177"><ele>1063.0</ele><time>2026-04-27T07:22:18.2Z</time></trkpt><trkpt lat="39.5804489" lon="21.0257253"><ele>1063.0</ele><time>2026-04-27T07:22:19.2Z</time></trkpt><trkpt lat="39.5805308" lon="21.0256306"><ele>1061.2</ele><time>2026-04-27T07:22:20.201Z</time></trkpt><trkpt lat="39.5806058" lon="21.025521"><ele>1059.4</ele><time>2026-04-27T07:22:21.201Z</time></trkpt><trkpt lat="39.5806682" lon="21.0253972"><ele>1057.6000000000001</ele><time>2026-04-27T07:22:22.201Z</time></trkpt><trkpt lat="39.5807362" lon="21.0252748"><ele>1055.8</ele><time>2026-04-27T07:22:23.201Z</time></trkpt><trkpt lat="39.5808157" lon="21.0251837"><ele>1054.0</ele><time>2026-04-27T07:22:24.2Z</time></trkpt><trkpt lat="39.5809048" lon="21.0250986"><ele>1054.0</ele><time>2026-04-27T07:22:25.2Z</time></trkpt><trkpt lat="39.5809939" lon="21.0249996"><ele>1054.0</ele><time>2026-04-27T07:22:26.201Z</time></trkpt><trkpt lat="39.5810745" lon="21.024906"><ele>1054.0</ele><time>2026-04-27T07:22:27.2Z</time></trkpt><trkpt lat="39.5811618" lon="21.0248012"><ele>1054.0</ele><time>2026-04-27T07:22:28.2Z</time></trkpt><trkpt lat="39.5812324" lon="21.0246793"><ele>1049.5</ele><time>2026-04-27T07:22:29.2Z</time></trkpt><trkpt lat="39.5812974" lon="21.0245435"><ele>1045.0</ele><time>2026-04-27T07:22:30.201Z</time></trkpt><trkpt lat="39.5813595" lon="21.0244124"><ele>1040.5</ele><time>2026-04-27T07:22:31.201Z</time></trkpt><trkpt lat="39.5814327" lon="21.0242966"><ele>1036.0</ele><time>2026-04-27T07:22:32.2Z</time></trkpt><trkpt lat="39.5815102" lon="21.0241979"><ele>1038.6</ele><time>2026-04-27T07:22:33.2Z</time></trkpt><trkpt lat="39.5815859" lon="21.0241103"><ele>1041.1999999999998</ele><time>2026-04-27T07:22:34.201Z</time></trkpt><trkpt lat="39.5816831" lon="21.0240269"><ele>1043.8000000000002</ele><time>2026-04-27T07:22:35.2Z</time></trkpt><trkpt lat="39.5817638" lon="21.0239252"><ele>1046.4</ele><time>2026-04-27T07:22:36.201Z</time></trkpt><trkpt lat="39.5818342" lon="21.0238144"><ele>1049.0</ele><time>2026-04-27T07:22:37.201Z</time></trkpt><trkpt lat="39.5818941" lon="21.0236922"><ele>1049.0</ele><time>2026-04-27T07:22:38.201Z</time></trkpt><trkpt lat="39.5819666" lon="21.0235769"><ele>1049.0</ele><time>2026-04-27T07:22:39.201Z</time></trkpt><trkpt lat="39.5820547" lon="21.0234675"><ele>1049.0</ele><time>2026-04-27T07:22:40.201Z</time></trkpt><trkpt lat="39.5821187" lon="21.0233997"><ele>1049.0</ele><time>2026-04-27T07:22:41.201Z</time></trkpt><trkpt lat="39.5821796" lon="21.0233461"><ele>1049.0</ele><time>2026-04-27T07:22:42.2Z</time></trkpt><trkpt lat="39.582297" lon="21.0233456"><ele>1044.5</ele><time>2026-04-27T07:22:44.201Z</time></trkpt><trkpt lat="39.5823325" lon="21.0234799"><ele>1040.0</ele><time>2026-04-27T07:22:46.2Z</time></trkpt><trkpt lat="39.5822425" lon="21.0236733"><ele>1035.5</ele><time>2026-04-27T07:22:47.2Z</time></trkpt><trkpt lat="39.5822012" lon="21.0238061"><ele>1031.0</ele><time>2026-04-27T07:22:48.2Z</time></trkpt><trkpt lat="39.5821434" lon="21.0239257"><ele>1031.0</ele><time>2026-04-27T07:22:49.2Z</time></trkpt><trkpt lat="39.5820954" lon="21.0240231"><ele>1031.0</ele><time>2026-04-27T07:22:50.2Z</time></trkpt><trkpt lat="39.5820166" lon="21.0241229"><ele>1031.0</ele><time>2026-04-27T07:22:51.201Z</time></trkpt><trkpt lat="39.5819428" lon="21.0242062"><ele>1031.0</ele><time>2026-04-27T07:22:52.2Z</time></trkpt><trkpt lat="39.5818769" lon="21.0242934"><ele>1031.0</ele><time>2026-04-27T07:22:53.201Z</time></trkpt><trkpt lat="39.5818337" lon="21.0244077"><ele>1032.0</ele><time>2026-04-27T07:22:54.2Z</time></trkpt><trkpt lat="39.581818" lon="21.0245397"><ele>1033.0</ele><time>2026-04-27T07:22:55.2Z</time></trkpt><trkpt lat="39.5818184" lon="21.0246816"><ele>1034.0</ele><time>2026-04-27T07:22:56.201Z</time></trkpt><trkpt lat="39.5818365" lon="21.0248292"><ele>1035.0</ele><time>2026-04-27T07:22:57.201Z</time></trkpt><trkpt lat="39.5818041" lon="21.0249762"><ele>1036.0</ele><time>2026-04-27T07:22:58.2Z</time></trkpt><trkpt lat="39.5817877" lon="21.0251269"><ele>1033.6</ele><time>2026-04-27T07:22:59.201Z</time></trkpt><trkpt lat="39.5817589" lon="21.0252688"><ele>1031.1999999999998</ele><time>2026-04-27T07:23:00.2Z</time></trkpt><trkpt lat="39.5817539" lon="21.0254034"><ele>1028.8000000000002</ele><time>2026-04-27T07:23:01.201Z</time></trkpt><trkpt lat="39.5817026" lon="21.0255331"><ele>1026.4</ele><time>2026-04-27T07:23:02.201Z</time></trkpt><trkpt lat="39.5816526" lon="21.0256548"><ele>1024.0</ele><time>2026-04-27T07:23:03.2Z</time></trkpt><trkpt lat="39.5815942" lon="21.0257642"><ele>1022.25</ele><time>2026-04-27T07:23:04.201Z</time></trkpt><trkpt lat="39.581544" lon="21.0259117"><ele>1020.5</ele><time>2026-04-27T07:23:05.2Z</time></trkpt><trkpt lat="39.5815243" lon="21.0260687"><ele>1018.75</ele><time>2026-04-27T07:23:06.2Z</time></trkpt><trkpt lat="39.5815206" lon="21.0262439"><ele>1017.0</ele><time>2026-04-27T07:23:07.201Z</time></trkpt><trkpt lat="39.5815146" lon="21.0264385"><ele>1017.0</ele><time>2026-04-27T07:23:08.2Z</time></trkpt><trkpt lat="39.5814997" lon="21.0266307"><ele>1017.0</ele><time>2026-04-27T07:23:09.201Z</time></trkpt><trkpt lat="39.5814758" lon="21.0268114"><ele>1017.0</ele><time>2026-04-27T07:23:10.201Z</time></trkpt><trkpt lat="39.5814478" lon="21.0270055"><ele>1017.0</ele><time>2026-04-27T07:23:11.201Z</time></trkpt><trkpt lat="39.58138" lon="21.0271853"><ele>1015.0</ele><time>2026-04-27T07:23:12.201Z</time></trkpt><trkpt lat="39.5813299" lon="21.0273618"><ele>1013.0</ele><time>2026-04-27T07:23:13.201Z</time></trkpt><trkpt lat="39.5812811" lon="21.0275427"><ele>1011.0</ele><time>2026-04-27T07:23:14.201Z</time></trkpt><trkpt lat="39.5812423" lon="21.0277073"><ele>1009.0</ele><time>2026-04-27T07:23:15.201Z</time></trkpt><trkpt lat="39.5812093" lon="21.0278724"><ele>1008.25</ele><time>2026-04-27T07:23:16.2Z</time></trkpt><trkpt lat="39.5811936" lon="21.0280479"><ele>1007.5</ele><time>2026-04-27T07:23:17.2Z</time></trkpt><trkpt lat="39.581175" lon="21.0282162"><ele>1006.75</ele><time>2026-04-27T07:23:18.201Z</time></trkpt><trkpt lat="39.581164" lon="21.0283834"><ele>1006.0</ele><time>2026-04-27T07:23:19.2Z</time></trkpt><trkpt lat="39.5811717" lon="21.0285492"><ele>1004.4</ele><time>2026-04-27T07:23:20.2Z</time></trkpt><trkpt lat="39.5811824" lon="21.028703"><ele>1002.8</ele><time>2026-04-27T07:23:21.2Z</time></trkpt><trkpt lat="39.5811726" lon="21.0288552"><ele>1001.1999999999999</ele><time>2026-04-27T07:23:22.2Z</time></trkpt><trkpt lat="39.5811508" lon="21.0289828"><ele>999.5999999999999</ele><time>2026-04-27T07:23:23.2Z</time></trkpt><trkpt lat="39.5811405" lon="21.0291116"><ele>998.0</ele><time>2026-04-27T07:23:24.201Z</time></trkpt><trkpt lat="39.5811335" lon="21.0292295"><ele>998.0</ele><time>2026-04-27T07:23:25.2Z</time></trkpt><trkpt lat="39.5811137" lon="21.0293602"><ele>998.0</ele><time>2026-04-27T07:23:26.201Z</time></trkpt><trkpt lat="39.5811106" lon="21.0294828"><ele>998.0</ele><time>2026-04-27T07:23:27.2Z</time></trkpt><trkpt lat="39.5811709" lon="21.0296072"><ele>998.0</ele><time>2026-04-27T07:23:28.2Z</time></trkpt><trkpt lat="39.5811794" lon="21.0297288"><ele>998.0</ele><time>2026-04-27T07:23:29.2Z</time></trkpt><trkpt lat="39.5811935" lon="21.0298342"><ele>998.0</ele><time>2026-04-27T07:23:30.201Z</time></trkpt><trkpt lat="39.5812387" lon="21.02993"><ele>998.0</ele><time>2026-04-27T07:23:31.201Z</time></trkpt><trkpt lat="39.5813091" lon="21.0300158"><ele>998.0</ele><time>2026-04-27T07:23:32.2Z</time></trkpt><trkpt lat="39.5813933" lon="21.0300972"><ele>998.0</ele><time>2026-04-27T07:23:33.201Z</time></trkpt><trkpt lat="39.5814951" lon="21.0301673"><ele>998.0</ele><time>2026-04-27T07:23:34.2Z</time></trkpt><trkpt lat="39.5816174" lon="21.0302387"><ele>998.0</ele><time>2026-04-27T07:23:35.2Z</time></trkpt><trkpt lat="39.5817387" lon="21.0302951"><ele>998.0</ele><time>2026-04-27T07:23:36.201Z</time></trkpt><trkpt lat="39.5818671" lon="21.0303333"><ele>998.0</ele><time>2026-04-27T07:23:37.201Z</time></trkpt><trkpt lat="39.5819989" lon="21.030367"><ele>998.0</ele><time>2026-04-27T07:23:38.201Z</time></trkpt><trkpt lat="39.5821326" lon="21.0304035"><ele>998.0</ele><time>2026-04-27T07:23:39.2Z</time></trkpt><trkpt lat="39.5822594" lon="21.0304479"><ele>998.0</ele><time>2026-04-27T07:23:40.2Z</time></trkpt><trkpt lat="39.5823874" lon="21.0304911"><ele>998.0</ele><time>2026-04-27T07:23:41.2Z</time></trkpt><trkpt lat="39.5825126" lon="21.0305102"><ele>998.0</ele><time>2026-04-27T07:23:42.2Z</time></trkpt><trkpt lat="39.5826384" lon="21.0305332"><ele>998.0</ele><time>2026-04-27T07:23:43.201Z</time></trkpt><trkpt lat="39.5827618" lon="21.0305562"><ele>998.0</ele><time>2026-04-27T07:23:44.2Z</time></trkpt><trkpt lat="39.5828904" lon="21.0306147"><ele>998.0</ele><time>2026-04-27T07:23:45.2Z</time></trkpt><trkpt lat="39.5830069" lon="21.030729"><ele>998.0</ele><time>2026-04-27T07:23:46.201Z</time></trkpt><trkpt lat="39.5831213" lon="21.0308298"><ele>998.5</ele><time>2026-04-27T07:23:47.201Z</time></trkpt><trkpt lat="39.5832379" lon="21.0309119"><ele>999.0</ele><time>2026-04-27T07:23:48.201Z</time></trkpt><trkpt lat="39.5833555" lon="21.0309693"><ele>999.5</ele><time>2026-04-27T07:23:49.201Z</time></trkpt><trkpt lat="39.583476" lon="21.0309928"><ele>1000.0</ele><time>2026-04-27T07:23:50.201Z</time></trkpt><trkpt lat="39.5835888" lon="21.0310123"><ele>996.2</ele><time>2026-04-27T07:23:51.201Z</time></trkpt><trkpt lat="39.5836995" lon="21.0310247"><ele>992.4</ele><time>2026-04-27T07:23:52.2Z</time></trkpt><trkpt lat="39.5838041" lon="21.0310314"><ele>988.5999999999999</ele><time>2026-04-27T07:23:53.2Z</time></trkpt><trkpt lat="39.5839029" lon="21.0310414"><ele>984.8</ele><time>2026-04-27T07:23:54.2Z</time></trkpt><trkpt lat="39.5839934" lon="21.0310502"><ele>981.0</ele><time>2026-04-27T07:23:55.201Z</time></trkpt><trkpt lat="39.5840781" lon="21.0310705"><ele>981.0</ele><time>2026-04-27T07:23:56.201Z</time></trkpt><trkpt lat="39.5841257" lon="21.0312214"><ele>981.0</ele><time>2026-04-27T07:23:58.2Z</time></trkpt><trkpt lat="39.5841235" lon="21.0314351"><ele>981.0</ele><time>2026-04-27T07:24:00.2Z</time></trkpt><trkpt lat="39.584019" lon="21.0315771"><ele>981.0</ele><time>2026-04-27T07:24:01.2Z</time></trkpt><trkpt lat="39.5839391" lon="21.031703"><ele>981.5</ele><time>2026-04-27T07:24:02.2Z</time></trkpt><trkpt lat="39.5838629" lon="21.0318265"><ele>982.0</ele><time>2026-04-27T07:24:03.201Z</time></trkpt><trkpt lat="39.5837935" lon="21.0319669"><ele>982.5</ele><time>2026-04-27T07:24:04.2Z</time></trkpt><trkpt lat="39.5837461" lon="21.032124"><ele>983.0</ele><time>2026-04-27T07:24:05.201Z</time></trkpt><trkpt lat="39.5837121" lon="21.0323"><ele>991.0</ele><time>2026-04-27T07:24:06.2Z</time></trkpt><trkpt lat="39.5836697" lon="21.0324827"><ele>999.0</ele><time>2026-04-27T07:24:07.201Z</time></trkpt><trkpt lat="39.5836219" lon="21.0326649"><ele>1007.0</ele><time>2026-04-27T07:24:08.2Z</time></trkpt><trkpt lat="39.5835697" lon="21.032835"><ele>1015.0</ele><time>2026-04-27T07:24:09.201Z</time></trkpt><trkpt lat="39.5835115" lon="21.0329763"><ele>1015.0</ele><time>2026-04-27T07:24:10.201Z</time></trkpt><trkpt lat="39.5834696" lon="21.0330981"><ele>1015.0</ele><time>2026-04-27T07:24:11.2Z</time></trkpt><trkpt lat="39.5834402" lon="21.0332164"><ele>1015.0</ele><time>2026-04-27T07:24:12.201Z</time></trkpt><trkpt lat="39.5834434" lon="21.0333315"><ele>1015.0</ele><time>2026-04-27T07:24:13.201Z</time></trkpt><trkpt lat="39.5834728" lon="21.0334363"><ele>1015.0</ele><time>2026-04-27T07:24:14.2Z</time></trkpt><trkpt lat="39.583516" lon="21.0335357"><ele>1012.6</ele><time>2026-04-27T07:24:15.2Z</time></trkpt><trkpt lat="39.5835554" lon="21.0336473"><ele>1010.2</ele><time>2026-04-27T07:24:16.2Z</time></trkpt><trkpt lat="39.5835727" lon="21.033762"><ele>1007.8</ele><time>2026-04-27T07:24:17.201Z</time></trkpt><trkpt lat="39.5835689" lon="21.0338684"><ele>1005.4</ele><time>2026-04-27T07:24:18.2Z</time></trkpt><trkpt lat="39.5835462" lon="21.0339932"><ele>1003.0</ele><time>2026-04-27T07:24:19.2Z</time></trkpt><trkpt lat="39.5834979" lon="21.0341113"><ele>1000.5999999999999</ele><time>2026-04-27T07:24:20.201Z</time></trkpt><trkpt lat="39.5834477" lon="21.0342385"><ele>998.1999999999999</ele><time>2026-04-27T07:24:21.201Z</time></trkpt><trkpt lat="39.5834031" lon="21.0343587"><ele>995.8</ele><time>2026-04-27T07:24:22.201Z</time></trkpt><trkpt lat="39.5833522" lon="21.0344712"><ele>993.4</ele><time>2026-04-27T07:24:23.2Z</time></trkpt><trkpt lat="39.5832922" lon="21.0345627"><ele>991.0</ele><time>2026-04-27T07:24:24.2Z</time></trkpt><trkpt lat="39.5832227" lon="21.034648"><ele>990.9999999999999</ele><time>2026-04-27T07:24:25.2Z</time></trkpt><trkpt lat="39.5831417" lon="21.0347237"><ele>991.0</ele><time>2026-04-27T07:24:26.201Z</time></trkpt><trkpt lat="39.583068" lon="21.0347957"><ele>991.0</ele><time>2026-04-27T07:24:27.201Z</time></trkpt><trkpt lat="39.5830014" lon="21.0348609"><ele>991.0</ele><time>2026-04-27T07:24:28.201Z</time></trkpt><trkpt lat="39.5829377" lon="21.0349267"><ele>990.9999999999999</ele><time>2026-04-27T07:24:29.2Z</time></trkpt><trkpt lat="39.5828841" lon="21.0350004"><ele>991.0</ele><time>2026-04-27T07:24:30.2Z</time></trkpt><trkpt lat="39.5828479" lon="21.0350778"><ele>987.4</ele><time>2026-04-27T07:24:31.2Z</time></trkpt><trkpt lat="39.5828452" lon="21.0351712"><ele>983.8</ele><time>2026-04-27T07:24:32.2Z</time></trkpt><trkpt lat="39.5828712" lon="21.0352636"><ele>980.1999999999999</ele><time>2026-04-27T07:24:33.201Z</time></trkpt><trkpt lat="39.5829252" lon="21.0353592"><ele>976.5999999999999</ele><time>2026-04-27T07:24:34.201Z</time></trkpt><trkpt lat="39.5829882" lon="21.0354618"><ele>973.0</ele><time>2026-04-27T07:24:35.2Z</time></trkpt><trkpt lat="39.5830855" lon="21.0355673"><ele>973.0</ele><time>2026-04-27T07:24:36.201Z</time></trkpt><trkpt lat="39.5831832" lon="21.0356538"><ele>973.0</ele><time>2026-04-27T07:24:37.2Z</time></trkpt><trkpt lat="39.5832792" lon="21.0357226"><ele>973.0</ele><time>2026-04-27T07:24:38.2Z</time></trkpt><trkpt lat="39.5833679" lon="21.0357959"><ele>973.0</ele><time>2026-04-27T07:24:39.2Z</time></trkpt><trkpt lat="39.5834322" lon="21.0358865"><ele>973.0</ele><time>2026-04-27T07:24:40.201Z</time></trkpt><trkpt lat="39.5834794" lon="21.035983"><ele>974.4999999999999</ele><time>2026-04-27T07:24:41.201Z</time></trkpt><trkpt lat="39.583511" lon="21.0360827"><ele>976.0</ele><time>2026-04-27T07:24:42.2Z</time></trkpt><trkpt lat="39.5835323" lon="21.036181"><ele>977.5</ele><time>2026-04-27T07:24:43.2Z</time></trkpt><trkpt lat="39.5835473" lon="21.0362827"><ele>979.0</ele><time>2026-04-27T07:24:44.2Z</time></trkpt><trkpt lat="39.5835805" lon="21.0363794"><ele>980.4999999999999</ele><time>2026-04-27T07:24:45.2Z</time></trkpt><trkpt lat="39.5836357" lon="21.0364494"><ele>982.0</ele><time>2026-04-27T07:24:46.2Z</time></trkpt><trkpt lat="39.5837119" lon="21.0364911"><ele>977.2</ele><time>2026-04-27T07:24:47.201Z</time></trkpt><trkpt lat="39.5837974" lon="21.0364982"><ele>972.4000000000001</ele><time>2026-04-27T07:24:48.2Z</time></trkpt><trkpt lat="39.5838927" lon="21.0364683"><ele>967.5999999999999</ele><time>2026-04-27T07:24:49.201Z</time></trkpt><trkpt lat="39.5839909" lon="21.0364142"><ele>962.8</ele><time>2026-04-27T07:24:50.2Z</time></trkpt><trkpt lat="39.5841029" lon="21.0363541"><ele>958.0</ele><time>2026-04-27T07:24:51.2Z</time></trkpt><trkpt lat="39.5842303" lon="21.0363039"><ele>958.0</ele><time>2026-04-27T07:24:52.2Z</time></trkpt><trkpt lat="39.5843558" lon="21.0362708"><ele>958.0</ele><time>2026-04-27T07:24:53.2Z</time></trkpt><trkpt lat="39.5844758" lon="21.0362309"><ele>958.0</ele><time>2026-04-27T07:24:54.2Z</time></trkpt><trkpt lat="39.5845901" lon="21.036156"><ele>958.0</ele><time>2026-04-27T07:24:55.201Z</time></trkpt><trkpt lat="39.5846835" lon="21.0360643"><ele>961.0</ele><time>2026-04-27T07:24:56.2Z</time></trkpt><trkpt lat="39.5847729" lon="21.035976"><ele>964.0</ele><time>2026-04-27T07:24:57.201Z</time></trkpt><trkpt lat="39.5848658" lon="21.0359058"><ele>967.0</ele><time>2026-04-27T07:24:58.2Z</time></trkpt><trkpt lat="39.584965" lon="21.0358586"><ele>970.0</ele><time>2026-04-27T07:24:59.201Z</time></trkpt><trkpt lat="39.5850675" lon="21.0358416"><ele>973.0</ele><time>2026-04-27T07:25:00.2Z</time></trkpt><trkpt lat="39.5851704" lon="21.035827"><ele>966.4</ele><time>2026-04-27T07:25:01.201Z</time></trkpt><trkpt lat="39.5852713" lon="21.0357875"><ele>959.8</ele><time>2026-04-27T07:25:02.2Z</time></trkpt><trkpt lat="39.5853664" lon="21.0357332"><ele>953.2</ele><time>2026-04-27T07:25:03.201Z</time></trkpt><trkpt lat="39.5854617" lon="21.0356822"><ele>946.6</ele><time>2026-04-27T07:25:04.201Z</time></trkpt><trkpt lat="39.5855571" lon="21.0356442"><ele>940.0</ele><time>2026-04-27T07:25:05.2Z</time></trkpt><trkpt lat="39.5856503" lon="21.0356259"><ele>940.0</ele><time>2026-04-27T07:25:06.2Z</time></trkpt><trkpt lat="39.5857463" lon="21.0356336"><ele>940.0</ele><time>2026-04-27T07:25:07.2Z</time></trkpt><trkpt lat="39.5858356" lon="21.0356641"><ele>940.0</ele><time>2026-04-27T07:25:08.201Z</time></trkpt><trkpt lat="39.5859231" lon="21.035722"><ele>940.0</ele><time>2026-04-27T07:25:09.201Z</time></trkpt><trkpt lat="39.5860116" lon="21.035791"><ele>940.0</ele><time>2026-04-27T07:25:10.2Z</time></trkpt><trkpt lat="39.5861094" lon="21.0358496"><ele>944.4</ele><time>2026-04-27T07:25:11.2Z</time></trkpt><trkpt lat="39.5862161" lon="21.0358726"><ele>948.8</ele><time>2026-04-27T07:25:12.201Z</time></trkpt><trkpt lat="39.586323" lon="21.0358688"><ele>953.2</ele><time>2026-04-27T07:25:13.201Z</time></trkpt><trkpt lat="39.5864313" lon="21.035865"><ele>957.6</ele><time>2026-04-27T07:25:14.201Z</time></trkpt><trkpt lat="39.5865394" lon="21.0358563"><ele>962.0</ele><time>2026-04-27T07:25:15.201Z</time></trkpt><trkpt lat="39.5866362" lon="21.0358659"><ele>962.0</ele><time>2026-04-27T07:25:16.201Z</time></trkpt><trkpt lat="39.5867304" lon="21.0359284"><ele>962.0</ele><time>2026-04-27T07:25:17.201Z</time></trkpt><trkpt lat="39.5868094" lon="21.0359912"><ele>962.0</ele><time>2026-04-27T07:25:18.2Z</time></trkpt><trkpt lat="39.5868833" lon="21.0360643"><ele>962.0</ele><time>2026-04-27T07:25:19.201Z</time></trkpt><trkpt lat="39.5869275" lon="21.0361524"><ele>962.0</ele><time>2026-04-27T07:25:20.2Z</time></trkpt><trkpt lat="39.5869645" lon="21.0362556"><ele>962.0000000000001</ele><time>2026-04-27T07:25:21.201Z</time></trkpt><trkpt lat="39.58696" lon="21.03636"><ele>962.0</ele><time>2026-04-27T07:25:22.2Z</time></trkpt><trkpt lat="39.5869195" lon="21.0364527"><ele>962.0</ele><time>2026-04-27T07:25:23.201Z</time></trkpt><trkpt lat="39.5868612" lon="21.0365226"><ele>962.0</ele><time>2026-04-27T07:25:24.201Z</time></trkpt><trkpt lat="39.5867857" lon="21.0365639"><ele>962.0000000000001</ele><time>2026-04-27T07:25:25.201Z</time></trkpt><trkpt lat="39.5867048" lon="21.0366002"><ele>962.0</ele><time>2026-04-27T07:25:26.201Z</time></trkpt><trkpt lat="39.5866129" lon="21.0366328"><ele>964.4000000000001</ele><time>2026-04-27T07:25:27.2Z</time></trkpt><trkpt lat="39.5865225" lon="21.0366868"><ele>966.8000000000001</ele><time>2026-04-27T07:25:28.201Z</time></trkpt><trkpt lat="39.5864371" lon="21.0367647"><ele>969.2</ele><time>2026-04-27T07:25:29.2Z</time></trkpt><trkpt lat="39.5863612" lon="21.0368615"><ele>971.6</ele><time>2026-04-27T07:25:30.201Z</time></trkpt><trkpt lat="39.5862969" lon="21.0369706"><ele>974.0</ele><time>2026-04-27T07:25:31.201Z</time></trkpt><trkpt lat="39.5862424" lon="21.0370925"><ele>974.0</ele><time>2026-04-27T07:25:32.2Z</time></trkpt><trkpt lat="39.586192" lon="21.0372284"><ele>974.0</ele><time>2026-04-27T07:25:33.201Z</time></trkpt><trkpt lat="39.5861389" lon="21.0373745"><ele>974.0</ele><time>2026-04-27T07:25:34.201Z</time></trkpt><trkpt lat="39.5860846" lon="21.0375294"><ele>974.0</ele><time>2026-04-27T07:25:35.201Z</time></trkpt><trkpt lat="39.5860324" lon="21.0376873"><ele>980.5</ele><time>2026-04-27T07:25:36.2Z</time></trkpt><trkpt lat="39.5859794" lon="21.0378476"><ele>987.0</ele><time>2026-04-27T07:25:37.2Z</time></trkpt><trkpt lat="39.5859202" lon="21.0379985"><ele>993.5</ele><time>2026-04-27T07:25:38.2Z</time></trkpt><trkpt lat="39.58585" lon="21.0381479"><ele>1000.0</ele><time>2026-04-27T07:25:39.2Z</time></trkpt><trkpt lat="39.5857615" lon="21.0382824"><ele>993.75</ele><time>2026-04-27T07:25:40.201Z</time></trkpt><trkpt lat="39.5856643" lon="21.0384195"><ele>987.5</ele><time>2026-04-27T07:25:41.2Z</time></trkpt><trkpt lat="39.5855624" lon="21.0385613"><ele>981.25</ele><time>2026-04-27T07:25:42.2Z</time></trkpt><trkpt lat="39.5854556" lon="21.0387032"><ele>975.0</ele><time>2026-04-27T07:25:43.2Z</time></trkpt><trkpt lat="39.5853531" lon="21.0388513"><ele>979.6666666666667</ele><time>2026-04-27T07:25:44.201Z</time></trkpt><trkpt lat="39.5852608" lon="21.0390133"><ele>984.3333333333334</ele><time>2026-04-27T07:25:45.201Z</time></trkpt><trkpt lat="39.5851693" lon="21.0391743"><ele>989.0</ele><time>2026-04-27T07:25:46.201Z</time></trkpt><trkpt lat="39.5850805" lon="21.0393256"><ele>989.0</ele><time>2026-04-27T07:25:47.201Z</time></trkpt><trkpt lat="39.5849971" lon="21.0394691"><ele>989.0</ele><time>2026-04-27T07:25:48.2Z</time></trkpt><trkpt lat="39.5849212" lon="21.0396044"><ele>989.0</ele><time>2026-04-27T07:25:49.201Z</time></trkpt><trkpt lat="39.5848547" lon="21.0397382"><ele>989.0</ele><time>2026-04-27T07:25:50.2Z</time></trkpt><trkpt lat="39.5847945" lon="21.0398602"><ele>990.75</ele><time>2026-04-27T07:25:51.2Z</time></trkpt><trkpt lat="39.584725" lon="21.0399774"><ele>992.5</ele><time>2026-04-27T07:25:52.201Z</time></trkpt><trkpt lat="39.5846282" lon="21.0400809"><ele>994.25</ele><time>2026-04-27T07:25:53.2Z</time></trkpt><trkpt lat="39.5845263" lon="21.040172"><ele>996.0</ele><time>2026-04-27T07:25:54.2Z</time></trkpt><trkpt lat="39.5844226" lon="21.0402589"><ele>996.0</ele><time>2026-04-27T07:25:55.2Z</time></trkpt><trkpt lat="39.5843154" lon="21.0403394"><ele>996.0</ele><time>2026-04-27T07:25:56.201Z</time></trkpt><trkpt lat="39.5842205" lon="21.0404312"><ele>996.0</ele><time>2026-04-27T07:25:57.201Z</time></trkpt><trkpt lat="39.5841431" lon="21.04054"><ele>996.0</ele><time>2026-04-27T07:25:58.201Z</time></trkpt><trkpt lat="39.584086" lon="21.0406766"><ele>988.5</ele><time>2026-04-27T07:25:59.201Z</time></trkpt><trkpt lat="39.5840472" lon="21.0408259"><ele>981.0</ele><time>2026-04-27T07:26:00.201Z</time></trkpt><trkpt lat="39.5840032" lon="21.0409821"><ele>973.5</ele><time>2026-04-27T07:26:01.201Z</time></trkpt><trkpt lat="39.5839321" lon="21.0411344"><ele>966.0</ele><time>2026-04-27T07:26:02.2Z</time></trkpt><trkpt lat="39.583862" lon="21.0412871"><ele>966.0</ele><time>2026-04-27T07:26:03.2Z</time></trkpt><trkpt lat="39.5837855" lon="21.0414472"><ele>966.0</ele><time>2026-04-27T07:26:04.201Z</time></trkpt><trkpt lat="39.5837129" lon="21.0416065"><ele>966.0</ele><time>2026-04-27T07:26:05.2Z</time></trkpt><trkpt lat="39.5836381" lon="21.0417585"><ele>966.0</ele><time>2026-04-27T07:26:06.2Z</time></trkpt><trkpt lat="39.5835574" lon="21.0419026"><ele>963.0</ele><time>2026-04-27T07:26:07.201Z</time></trkpt><trkpt lat="39.5834845" lon="21.0420479"><ele>960.0</ele><time>2026-04-27T07:26:08.2Z</time></trkpt><trkpt lat="39.5834264" lon="21.042196"><ele>957.0</ele><time>2026-04-27T07:26:09.2Z</time></trkpt><trkpt lat="39.5833836" lon="21.0423471"><ele>954.0</ele><time>2026-04-27T07:26:10.2Z</time></trkpt><trkpt lat="39.5833533" lon="21.0424968"><ele>954.0</ele><time>2026-04-27T07:26:11.2Z</time></trkpt><trkpt lat="39.5833416" lon="21.0426449"><ele>954.0000000000001</ele><time>2026-04-27T07:26:12.2Z</time></trkpt><trkpt lat="39.5833388" lon="21.0427919"><ele>954.0000000000001</ele><time>2026-04-27T07:26:13.201Z</time></trkpt><trkpt lat="39.5833364" lon="21.0429337"><ele>954.0</ele><time>2026-04-27T07:26:14.201Z</time></trkpt><trkpt lat="39.5833343" lon="21.0430656"><ele>954.0</ele><time>2026-04-27T07:26:15.201Z</time></trkpt><trkpt lat="39.5833461" lon="21.043181"><ele>954.0</ele><time>2026-04-27T07:26:16.2Z</time></trkpt><trkpt lat="39.583387" lon="21.0432861"><ele>954.0000000000001</ele><time>2026-04-27T07:26:17.2Z</time></trkpt><trkpt lat="39.5834556" lon="21.0433692"><ele>954.0000000000001</ele><time>2026-04-27T07:26:18.201Z</time></trkpt><trkpt lat="39.5835382" lon="21.0434502"><ele>954.0</ele><time>2026-04-27T07:26:19.201Z</time></trkpt><trkpt lat="39.5836192" lon="21.0435468"><ele>954.0</ele><time>2026-04-27T07:26:20.2Z</time></trkpt><trkpt lat="39.5836763" lon="21.0436561"><ele>950.8000000000001</ele><time>2026-04-27T07:26:21.2Z</time></trkpt><trkpt lat="39.5837059" lon="21.0437807"><ele>947.6000000000001</ele><time>2026-04-27T07:26:22.201Z</time></trkpt><trkpt lat="39.5837039" lon="21.0439151"><ele>944.4</ele><time>2026-04-27T07:26:23.201Z</time></trkpt><trkpt lat="39.5836864" lon="21.0440576"><ele>941.2</ele><time>2026-04-27T07:26:24.201Z</time></trkpt><trkpt lat="39.5836715" lon="21.0442026"><ele>938.0</ele><time>2026-04-27T07:26:25.2Z</time></trkpt><trkpt lat="39.5836438" lon="21.0443322"><ele>936.0</ele><time>2026-04-27T07:26:26.201Z</time></trkpt><trkpt lat="39.5836098" lon="21.0444564"><ele>934.0</ele><time>2026-04-27T07:26:27.201Z</time></trkpt><trkpt lat="39.5835755" lon="21.0445748"><ele>932.0</ele><time>2026-04-27T07:26:28.2Z</time></trkpt><trkpt lat="39.583546" lon="21.0446914"><ele>930.0</ele><time>2026-04-27T07:26:29.201Z</time></trkpt><trkpt lat="39.5835403" lon="21.04481"><ele>928.0</ele><time>2026-04-27T07:26:30.2Z</time></trkpt><trkpt lat="39.5835677" lon="21.0449326"><ele>926.5</ele><time>2026-04-27T07:26:31.201Z</time></trkpt><trkpt lat="39.5836294" lon="21.0450449"><ele>925.0</ele><time>2026-04-27T07:26:32.201Z</time></trkpt><trkpt lat="39.58372" lon="21.0451342"><ele>923.5</ele><time>2026-04-27T07:26:33.2Z</time></trkpt><trkpt lat="39.5838224" lon="21.0452225"><ele>922.0</ele><time>2026-04-27T07:26:34.201Z</time></trkpt><trkpt lat="39.5839219" lon="21.0453118"><ele>924.8</ele><time>2026-04-27T07:26:35.201Z</time></trkpt><trkpt lat="39.5840166" lon="21.0453973"><ele>927.6</ele><time>2026-04-27T07:26:36.2Z</time></trkpt><trkpt lat="39.5841004" lon="21.0454788"><ele>930.3999999999999</ele><time>2026-04-27T07:26:37.201Z</time></trkpt><trkpt lat="39.5841602" lon="21.0455687"><ele>933.1999999999999</ele><time>2026-04-27T07:26:38.201Z</time></trkpt><trkpt lat="39.5841912" lon="21.0456837"><ele>936.0</ele><time>2026-04-27T07:26:39.2Z</time></trkpt><trkpt lat="39.5841936" lon="21.0458021"><ele>936.0</ele><time>2026-04-27T07:26:40.201Z</time></trkpt><trkpt lat="39.5841871" lon="21.0459279"><ele>935.9999999999999</ele><time>2026-04-27T07:26:41.201Z</time></trkpt><trkpt lat="39.584184" lon="21.0460563"><ele>935.9999999999999</ele><time>2026-04-27T07:26:42.2Z</time></trkpt><trkpt lat="39.5841955" lon="21.0461864"><ele>936.0</ele><time>2026-04-27T07:26:43.2Z</time></trkpt><trkpt lat="39.5842222" lon="21.0463145"><ele>936.0</ele><time>2026-04-27T07:26:44.2Z</time></trkpt><trkpt lat="39.5842577" lon="21.0464328"><ele>936.0</ele><time>2026-04-27T07:26:45.2Z</time></trkpt><trkpt lat="39.5843007" lon="21.0465493"><ele>935.9999999999999</ele><time>2026-04-27T07:26:46.201Z</time></trkpt><trkpt lat="39.5843651" lon="21.0466599"><ele>935.9999999999999</ele><time>2026-04-27T07:26:47.2Z</time></trkpt><trkpt lat="39.5844392" lon="21.0467394"><ele>936.0</ele><time>2026-04-27T07:26:48.2Z</time></trkpt><trkpt lat="39.5845277" lon="21.0468006"><ele>936.0</ele><time>2026-04-27T07:26:49.2Z</time></trkpt><trkpt lat="39.5846263" lon="21.0468552"><ele>936.5999999999999</ele><time>2026-04-27T07:26:50.201Z</time></trkpt><trkpt lat="39.5847249" lon="21.0469033"><ele>937.1999999999999</ele><time>2026-04-27T07:26:51.2Z</time></trkpt><trkpt lat="39.58482" lon="21.0469487"><ele>937.8000000000001</ele><time>2026-04-27T07:26:52.201Z</time></trkpt><trkpt lat="39.5849098" lon="21.0469919"><ele>938.4000000000001</ele><time>2026-04-27T07:26:53.2Z</time></trkpt><trkpt lat="39.5849955" lon="21.0470362"><ele>939.0</ele><time>2026-04-27T07:26:54.201Z</time></trkpt><trkpt lat="39.5850833" lon="21.0470778"><ele>939.0</ele><time>2026-04-27T07:26:55.201Z</time></trkpt><trkpt lat="39.5851764" lon="21.0471057"><ele>939.0000000000001</ele><time>2026-04-27T07:26:56.201Z</time></trkpt><trkpt lat="39.5852687" lon="21.0471243"><ele>939.0000000000001</ele><time>2026-04-27T07:26:57.201Z</time></trkpt><trkpt lat="39.5853591" lon="21.0471549"><ele>939.0</ele><time>2026-04-27T07:26:58.2Z</time></trkpt><trkpt lat="39.585444" lon="21.0472028"><ele>939.0</ele><time>2026-04-27T07:26:59.201Z</time></trkpt><trkpt lat="39.5855253" lon="21.0472574"><ele>939.4000000000001</ele><time>2026-04-27T07:27:00.201Z</time></trkpt><trkpt lat="39.5856048" lon="21.0473014"><ele>939.8000000000001</ele><time>2026-04-27T07:27:01.2Z</time></trkpt><trkpt lat="39.5856965" lon="21.0473231"><ele>940.1999999999999</ele><time>2026-04-27T07:27:02.2Z</time></trkpt><trkpt lat="39.5857932" lon="21.0473086"><ele>940.5999999999999</ele><time>2026-04-27T07:27:03.201Z</time></trkpt><trkpt lat="39.5858997" lon="21.0472617"><ele>941.0</ele><time>2026-04-27T07:27:04.2Z</time></trkpt><trkpt lat="39.586" lon="21.0471956"><ele>941.0</ele><time>2026-04-27T07:27:05.201Z</time></trkpt><trkpt lat="39.586107" lon="21.0471358"><ele>941.0</ele><time>2026-04-27T07:27:06.2Z</time></trkpt><trkpt lat="39.5862212" lon="21.0470986"><ele>941.0</ele><time>2026-04-27T07:27:07.2Z</time></trkpt><trkpt lat="39.5863382" lon="21.0470867"><ele>941.0</ele><time>2026-04-27T07:27:08.201Z</time></trkpt><trkpt lat="39.5864444" lon="21.0471026"><ele>938.4</ele><time>2026-04-27T07:27:09.2Z</time></trkpt><trkpt lat="39.5865475" lon="21.0471507"><ele>935.8</ele><time>2026-04-27T07:27:10.201Z</time></trkpt><trkpt lat="39.5866376" lon="21.0472142"><ele>933.1999999999999</ele><time>2026-04-27T07:27:11.2Z</time></trkpt><trkpt lat="39.5867193" lon="21.04728"><ele>930.5999999999999</ele><time>2026-04-27T07:27:12.201Z</time></trkpt><trkpt lat="39.5867975" lon="21.0473281"><ele>928.0</ele><time>2026-04-27T07:27:13.2Z</time></trkpt><trkpt lat="39.5868864" lon="21.0473337"><ele>928.0</ele><time>2026-04-27T07:27:14.201Z</time></trkpt><trkpt lat="39.5869731" lon="21.0472982"><ele>928.0</ele><time>2026-04-27T07:27:15.2Z</time></trkpt><trkpt lat="39.5870453" lon="21.047218"><ele>928.0</ele><time>2026-04-27T07:27:16.201Z</time></trkpt><trkpt lat="39.5871104" lon="21.0471116"><ele>928.0</ele><time>2026-04-27T07:27:17.2Z</time></trkpt><trkpt lat="39.5871685" lon="21.0470037"><ele>928.0</ele><time>2026-04-27T07:27:18.201Z</time></trkpt><trkpt lat="39.5872216" lon="21.0469145"><ele>921.75</ele><time>2026-04-27T07:27:19.2Z</time></trkpt><trkpt lat="39.5872757" lon="21.0468573"><ele>915.5</ele><time>2026-04-27T07:27:20.2Z</time></trkpt><trkpt lat="39.5873919" lon="21.046871"><ele>909.25</ele><time>2026-04-27T07:27:22.2Z</time></trkpt><trkpt lat="39.5873673" lon="21.04708"><ele>903.0</ele><time>2026-04-27T07:27:24.201Z</time></trkpt><trkpt lat="39.5873202" lon="21.047206"><ele>903.0</ele><time>2026-04-27T07:27:25.201Z</time></trkpt><trkpt lat="39.5872589" lon="21.0473296"><ele>903.0</ele><time>2026-04-27T07:27:26.2Z</time></trkpt><trkpt lat="39.5871946" lon="21.0474622"><ele>903.0</ele><time>2026-04-27T07:27:27.201Z</time></trkpt><trkpt lat="39.5871274" lon="21.0475956"><ele>903.0</ele><time>2026-04-27T07:27:28.201Z</time></trkpt><trkpt lat="39.5870518" lon="21.047695"><ele>902.4</ele><time>2026-04-27T07:27:29.201Z</time></trkpt><trkpt lat="39.5869786" lon="21.0477685"><ele>901.8</ele><time>2026-04-27T07:27:30.2Z</time></trkpt><trkpt lat="39.5869083" lon="21.0478153"><ele>901.2</ele><time>2026-04-27T07:27:31.2Z</time></trkpt><trkpt lat="39.586816" lon="21.0477968"><ele>900.6</ele><time>2026-04-27T07:27:32.201Z</time></trkpt><trkpt lat="39.5867389" lon="21.0477333"><ele>900.0</ele><time>2026-04-27T07:27:33.2Z</time></trkpt><trkpt lat="39.5866626" lon="21.0476572"><ele>900.0</ele><time>2026-04-27T07:27:34.2Z</time></trkpt><trkpt lat="39.5865726" lon="21.0475758"><ele>900.0</ele><time>2026-04-27T07:27:35.201Z</time></trkpt><trkpt lat="39.586471" lon="21.0475341"><ele>900.0</ele><time>2026-04-27T07:27:36.2Z</time></trkpt><trkpt lat="39.5863635" lon="21.0475258"><ele>900.0</ele><time>2026-04-27T07:27:37.201Z</time></trkpt><trkpt lat="39.5862541" lon="21.0475605"><ele>900.0</ele><time>2026-04-27T07:27:38.2Z</time></trkpt><trkpt lat="39.5861531" lon="21.047627"><ele>901.6</ele><time>2026-04-27T07:27:39.2Z</time></trkpt><trkpt lat="39.5860494" lon="21.0477035"><ele>903.2</ele><time>2026-04-27T07:27:40.201Z</time></trkpt><trkpt lat="39.5859444" lon="21.0477762"><ele>904.8</ele><time>2026-04-27T07:27:41.2Z</time></trkpt><trkpt lat="39.5858472" lon="21.0478309"><ele>906.4</ele><time>2026-04-27T07:27:42.2Z</time></trkpt><trkpt lat="39.5857607" lon="21.0478762"><ele>908.0</ele><time>2026-04-27T07:27:43.2Z</time></trkpt><trkpt lat="39.5856909" lon="21.0479092"><ele>908.0</ele><time>2026-04-27T07:27:44.201Z</time></trkpt><trkpt lat="39.585633" lon="21.0480168"><ele>908.0</ele><time>2026-04-27T07:27:46.2Z</time></trkpt><trkpt lat="39.5857154" lon="21.0480801"><ele>908.0</ele><time>2026-04-27T07:27:48.2Z</time></trkpt><trkpt lat="39.5857934" lon="21.0480572"><ele>908.0</ele><time>2026-04-27T07:27:49.2Z</time></trkpt><trkpt lat="39.5858818" lon="21.048011"><ele>908.0</ele><time>2026-04-27T07:27:50.2Z</time></trkpt><trkpt lat="39.5859833" lon="21.0479569"><ele>908.0</ele><time>2026-04-27T07:27:51.201Z</time></trkpt><trkpt lat="39.5860838" lon="21.047919"><ele>908.0</ele><time>2026-04-27T07:27:52.2Z</time></trkpt><trkpt lat="39.5861801" lon="21.0478934"><ele>908.0</ele><time>2026-04-27T07:27:53.2Z</time></trkpt><trkpt lat="39.5862743" lon="21.0478847"><ele>908.0</ele><time>2026-04-27T07:27:54.201Z</time></trkpt><trkpt lat="39.5863627" lon="21.0479078"><ele>908.0</ele><time>2026-04-27T07:27:55.201Z</time></trkpt><trkpt lat="39.5864396" lon="21.0479343"><ele>906.4</ele><time>2026-04-27T07:27:56.2Z</time></trkpt><trkpt lat="39.5864438" lon="21.0480884"><ele>904.8</ele><time>2026-04-27T07:27:57.2Z</time></trkpt><trkpt lat="39.5864715" lon="21.0481795"><ele>903.2</ele><time>2026-04-27T07:27:58.201Z</time></trkpt><trkpt lat="39.5864429" lon="21.0483131"><ele>901.6</ele><time>2026-04-27T07:27:59.2Z</time></trkpt><trkpt lat="39.5864459" lon="21.0484157"><ele>900.0</ele><time>2026-04-27T07:28:00.201Z</time></trkpt><trkpt lat="39.5864603" lon="21.0485157"><ele>896.0</ele><time>2026-04-27T07:28:01.201Z</time></trkpt><trkpt lat="39.5864964" lon="21.0485971"><ele>892.0</ele><time>2026-04-27T07:28:02.2Z</time></trkpt><trkpt lat="39.5865495" lon="21.0486569"><ele>888.0</ele><time>2026-04-27T07:28:03.201Z</time></trkpt><trkpt lat="39.586626" lon="21.0486874"><ele>884.0</ele><time>2026-04-27T07:28:04.2Z</time></trkpt><trkpt lat="39.5867078" lon="21.0486687"><ele>880.0</ele><time>2026-04-27T07:28:05.201Z</time></trkpt><trkpt lat="39.5867896" lon="21.0486012"><ele>876.0</ele><time>2026-04-27T07:28:06.201Z</time></trkpt><trkpt lat="39.5868789" lon="21.0485088"><ele>876.0</ele><time>2026-04-27T07:28:07.2Z</time></trkpt><trkpt lat="39.5869875" lon="21.0484212"><ele>876.0</ele><time>2026-04-27T07:28:08.201Z</time></trkpt><trkpt lat="39.5871068" lon="21.0483391"><ele>876.0</ele><time>2026-04-27T07:28:09.2Z</time></trkpt><trkpt lat="39.5872309" lon="21.0482513"><ele>876.0</ele><time>2026-04-27T07:28:10.2Z</time></trkpt><trkpt lat="39.5873433" lon="21.0481546"><ele>878.75</ele><time>2026-04-27T07:28:11.2Z</time></trkpt><trkpt lat="39.5874517" lon="21.0480702"><ele>881.5</ele><time>2026-04-27T07:28:12.2Z</time></trkpt><trkpt lat="39.5875688" lon="21.048029"><ele>884.25</ele><time>2026-04-27T07:28:13.201Z</time></trkpt><trkpt lat="39.5876881" lon="21.0480147"><ele>887.0</ele><time>2026-04-27T07:28:14.2Z</time></trkpt><trkpt lat="39.5878122" lon="21.0480139"><ele>879.75</ele><time>2026-04-27T07:28:15.201Z</time></trkpt><trkpt lat="39.5879291" lon="21.0480038"><ele>872.5</ele><time>2026-04-27T07:28:16.2Z</time></trkpt><trkpt lat="39.5880409" lon="21.0479782"><ele>865.25</ele><time>2026-04-27T07:28:17.201Z</time></trkpt><trkpt lat="39.5881498" lon="21.0479214"><ele>858.0</ele><time>2026-04-27T07:28:18.201Z</time></trkpt><trkpt lat="39.588249" lon="21.0478463"><ele>858.0</ele><time>2026-04-27T07:28:19.2Z</time></trkpt><trkpt lat="39.5883331" lon="21.0477564"><ele>858.0</ele><time>2026-04-27T07:28:20.2Z</time></trkpt><trkpt lat="39.588406" lon="21.0476552"><ele>858.0</ele><time>2026-04-27T07:28:21.2Z</time></trkpt><trkpt lat="39.5884609" lon="21.0475634"><ele>858.0</ele><time>2026-04-27T07:28:22.2Z</time></trkpt><trkpt lat="39.5885066" lon="21.0474973"><ele>858.0</ele><time>2026-04-27T07:28:23.201Z</time></trkpt><trkpt lat="39.5886004" lon="21.0474719"><ele>858.0</ele><time>2026-04-27T07:28:25.2Z</time></trkpt><trkpt lat="39.5886355" lon="21.0475488"><ele>858.0</ele><time>2026-04-27T07:28:27.201Z</time></trkpt><trkpt lat="39.5885553" lon="21.0477272"><ele>858.0</ele><time>2026-04-27T07:28:28.2Z</time></trkpt><trkpt lat="39.588497" lon="21.0478474"><ele>858.0</ele><time>2026-04-27T07:28:29.201Z</time></trkpt><trkpt lat="39.5883541" lon="21.0479587"><ele>858.0</ele><time>2026-04-27T07:28:30.2Z</time></trkpt><trkpt lat="39.5882755" lon="21.0480597"><ele>858.0</ele><time>2026-04-27T07:28:31.201Z</time></trkpt><trkpt lat="39.5881909" lon="21.0481583"><ele>858.0</ele><time>2026-04-27T07:28:32.201Z</time></trkpt><trkpt lat="39.5880865" lon="21.0482139"><ele>858.0</ele><time>2026-04-27T07:28:33.2Z</time></trkpt><trkpt lat="39.5879669" lon="21.04825"><ele>858.5</ele><time>2026-04-27T07:28:34.2Z</time></trkpt><trkpt lat="39.5878397" lon="21.0482815"><ele>859.0</ele><time>2026-04-27T07:28:35.201Z</time></trkpt><trkpt lat="39.5877182" lon="21.0483364"><ele>859.5</ele><time>2026-04-27T07:28:36.2Z</time></trkpt><trkpt lat="39.5876169" lon="21.0484104"><ele>860.0</ele><time>2026-04-27T07:28:37.2Z</time></trkpt><trkpt lat="39.5875366" lon="21.0485004"><ele>860.0</ele><time>2026-04-27T07:28:38.2Z</time></trkpt><trkpt lat="39.5874537" lon="21.0485874"><ele>860.0</ele><time>2026-04-27T07:28:39.201Z</time></trkpt><trkpt lat="39.5873833" lon="21.0486712"><ele>860.0</ele><time>2026-04-27T07:28:40.2Z</time></trkpt><trkpt lat="39.587342" lon="21.0487731"><ele>860.0</ele><time>2026-04-27T07:28:41.201Z</time></trkpt><trkpt lat="39.5873249" lon="21.0488892"><ele>860.0</ele><time>2026-04-27T07:28:42.2Z</time></trkpt><trkpt lat="39.5873394" lon="21.0490154"><ele>855.0</ele><time>2026-04-27T07:28:43.201Z</time></trkpt><trkpt lat="39.587377" lon="21.0491455"><ele>850.0</ele><time>2026-04-27T07:28:44.2Z</time></trkpt><trkpt lat="39.5874128" lon="21.0492842"><ele>845.0</ele><time>2026-04-27T07:28:45.201Z</time></trkpt><trkpt lat="39.5874385" lon="21.0494324"><ele>840.0</ele><time>2026-04-27T07:28:46.2Z</time></trkpt><trkpt lat="39.5874528" lon="21.049601"><ele>840.0</ele><time>2026-04-27T07:28:47.201Z</time></trkpt><trkpt lat="39.5874748" lon="21.0497569"><ele>840.0</ele><time>2026-04-27T07:28:48.2Z</time></trkpt><trkpt lat="39.5875131" lon="21.0499106"><ele>840.0</ele><time>2026-04-27T07:28:49.201Z</time></trkpt><trkpt lat="39.587572" lon="21.0500399"><ele>840.0</ele><time>2026-04-27T07:28:50.2Z</time></trkpt><trkpt lat="39.5876343" lon="21.0501595"><ele>840.75</ele><time>2026-04-27T07:28:51.201Z</time></trkpt><trkpt lat="39.5876743" lon="21.0502885"><ele>841.5</ele><time>2026-04-27T07:28:52.201Z</time></trkpt><trkpt lat="39.5876892" lon="21.0504308"><ele>842.25</ele><time>2026-04-27T07:28:53.201Z</time></trkpt><trkpt lat="39.5876652" lon="21.0505865"><ele>843.0</ele><time>2026-04-27T07:28:54.2Z</time></trkpt><trkpt lat="39.5876193" lon="21.0507334"><ele>841.5</ele><time>2026-04-27T07:28:55.201Z</time></trkpt><trkpt lat="39.5875554" lon="21.0508536"><ele>840.0</ele><time>2026-04-27T07:28:56.2Z</time></trkpt><trkpt lat="39.5875014" lon="21.0509659"><ele>838.5</ele><time>2026-04-27T07:28:57.2Z</time></trkpt><trkpt lat="39.5874459" lon="21.0510373"><ele>837.0</ele><time>2026-04-27T07:28:58.2Z</time></trkpt><trkpt lat="39.5874155" lon="21.0511257"><ele>835.5</ele><time>2026-04-27T07:28:59.2Z</time></trkpt><trkpt lat="39.5874109" lon="21.0512134"><ele>834.0</ele><time>2026-04-27T07:29:00.2Z</time></trkpt><trkpt lat="39.5874385" lon="21.0513112"><ele>834.0</ele><time>2026-04-27T07:29:01.2Z</time></trkpt><trkpt lat="39.587503" lon="21.0514052"><ele>834.0</ele><time>2026-04-27T07:29:02.201Z</time></trkpt><trkpt lat="39.5875832" lon="21.0515004"><ele>834.0</ele><time>2026-04-27T07:29:03.201Z</time></trkpt><trkpt lat="39.5876873" lon="21.0515875"><ele>834.0</ele><time>2026-04-27T07:29:04.201Z</time></trkpt><trkpt lat="39.5877953" lon="21.0516768"><ele>828.6</ele><time>2026-04-27T07:29:05.201Z</time></trkpt><trkpt lat="39.587897" lon="21.0517638"><ele>823.2</ele><time>2026-04-27T07:29:06.201Z</time></trkpt><trkpt lat="39.5879928" lon="21.0518455"><ele>817.8000000000001</ele><time>2026-04-27T07:29:07.201Z</time></trkpt><trkpt lat="39.5880809" lon="21.0519286"><ele>812.4000000000001</ele><time>2026-04-27T07:29:08.201Z</time></trkpt><trkpt lat="39.588153" lon="21.0520098"><ele>807.0</ele><time>2026-04-27T07:29:09.2Z</time></trkpt><trkpt lat="39.5882132" lon="21.0520891"><ele>807.0</ele><time>2026-04-27T07:29:10.2Z</time></trkpt><trkpt lat="39.5882556" lon="21.0521656"><ele>807.0</ele><time>2026-04-27T07:29:11.2Z</time></trkpt><trkpt lat="39.5882834" lon="21.052246"><ele>807.0</ele><time>2026-04-27T07:29:12.201Z</time></trkpt><trkpt lat="39.5882981" lon="21.0523338"><ele>807.0</ele><time>2026-04-27T07:29:13.2Z</time></trkpt><trkpt lat="39.5883009" lon="21.0524231"><ele>807.0</ele><time>2026-04-27T07:29:14.2Z</time></trkpt><trkpt lat="39.5882843" lon="21.052519"><ele>807.0</ele><time>2026-04-27T07:29:15.2Z</time></trkpt><trkpt lat="39.5882217" lon="21.0526261"><ele>810.4000000000001</ele><time>2026-04-27T07:29:16.201Z</time></trkpt><trkpt lat="39.588146" lon="21.0527076"><ele>813.8000000000001</ele><time>2026-04-27T07:29:17.201Z</time></trkpt><trkpt lat="39.5880636" lon="21.0527691"><ele>817.2</ele><time>2026-04-27T07:29:18.201Z</time></trkpt><trkpt lat="39.5879758" lon="21.0528249"><ele>820.6</ele><time>2026-04-27T07:29:19.2Z</time></trkpt><trkpt lat="39.5879037" lon="21.0528875"><ele>824.0</ele><time>2026-04-27T07:29:20.2Z</time></trkpt><trkpt lat="39.5878448" lon="21.0529815"><ele>822.8000000000001</ele><time>2026-04-27T07:29:21.201Z</time></trkpt><trkpt lat="39.5878041" lon="21.0530986"><ele>821.6</ele><time>2026-04-27T07:29:22.201Z</time></trkpt><trkpt lat="39.587784" lon="21.0532322"><ele>820.4</ele><time>2026-04-27T07:29:23.2Z</time></trkpt><trkpt lat="39.5877756" lon="21.0533726"><ele>819.2</ele><time>2026-04-27T07:29:24.201Z</time></trkpt><trkpt lat="39.5877625" lon="21.0534989"><ele>818.0</ele><time>2026-04-27T07:29:25.201Z</time></trkpt><trkpt lat="39.5877308" lon="21.0536027"><ele>818.0000000000001</ele><time>2026-04-27T07:29:26.201Z</time></trkpt><trkpt lat="39.5876778" lon="21.0536808"><ele>818.0</ele><time>2026-04-27T07:29:27.201Z</time></trkpt><trkpt lat="39.5876042" lon="21.0537079"><ele>818.0</ele><time>2026-04-27T07:29:28.201Z</time></trkpt><trkpt lat="39.5875272" lon="21.0536966"><ele>818.0</ele><time>2026-04-27T07:29:29.201Z</time></trkpt><trkpt lat="39.5874453" lon="21.0536738"><ele>818.0000000000001</ele><time>2026-04-27T07:29:30.201Z</time></trkpt><trkpt lat="39.5873556" lon="21.0536738"><ele>818.0</ele><time>2026-04-27T07:29:31.201Z</time></trkpt><trkpt lat="39.5872689" lon="21.0537026"><ele>818.0</ele><time>2026-04-27T07:29:32.201Z</time></trkpt><trkpt lat="39.5871938" lon="21.0537683"><ele>818.0</ele><time>2026-04-27T07:29:33.201Z</time></trkpt><trkpt lat="39.5871312" lon="21.05387"><ele>818.0</ele><time>2026-04-27T07:29:34.201Z</time></trkpt><trkpt lat="39.5870829" lon="21.0540024"><ele>818.0</ele><time>2026-04-27T07:29:35.2Z</time></trkpt><trkpt lat="39.5870522" lon="21.0541539"><ele>818.0</ele><time>2026-04-27T07:29:36.2Z</time></trkpt><trkpt lat="39.5870391" lon="21.0543172"><ele>822.0</ele><time>2026-04-27T07:29:37.2Z</time></trkpt><trkpt lat="39.5870467" lon="21.0544826"><ele>826.0</ele><time>2026-04-27T07:29:38.201Z</time></trkpt><trkpt lat="39.5870675" lon="21.0546309"><ele>830.0</ele><time>2026-04-27T07:29:39.2Z</time></trkpt><trkpt lat="39.5870904" lon="21.0547613"><ele>834.0</ele><time>2026-04-27T07:29:40.201Z</time></trkpt><trkpt lat="39.587094" lon="21.0548963"><ele>836.2</ele><time>2026-04-27T07:29:41.201Z</time></trkpt><trkpt lat="39.5870735" lon="21.0550361"><ele>838.4000000000001</ele><time>2026-04-27T07:29:42.201Z</time></trkpt><trkpt lat="39.5870395" lon="21.0551484"><ele>840.6</ele><time>2026-04-27T07:29:43.201Z</time></trkpt><trkpt lat="39.5869864" lon="21.0552148"><ele>842.8</ele><time>2026-04-27T07:29:44.201Z</time></trkpt><trkpt lat="39.586888" lon="21.0552903"><ele>845.0</ele><time>2026-04-27T07:29:45.201Z</time></trkpt><trkpt lat="39.5867358" lon="21.0553286"><ele>838.25</ele><time>2026-04-27T07:29:46.2Z</time></trkpt><trkpt lat="39.5866219" lon="21.0554059"><ele>831.5</ele><time>2026-04-27T07:29:47.2Z</time></trkpt><trkpt lat="39.586513" lon="21.0554873"><ele>824.75</ele><time>2026-04-27T07:29:48.2Z</time></trkpt><trkpt lat="39.5864147" lon="21.0555605"><ele>818.0</ele><time>2026-04-27T07:29:49.2Z</time></trkpt><trkpt lat="39.5863322" lon="21.0556295"><ele>818.0000000000001</ele><time>2026-04-27T07:29:50.2Z</time></trkpt><trkpt lat="39.5862665" lon="21.0557113"><ele>818.0</ele><time>2026-04-27T07:29:51.2Z</time></trkpt><trkpt lat="39.5862158" lon="21.0558022"><ele>818.0</ele><time>2026-04-27T07:29:52.201Z</time></trkpt><trkpt lat="39.5861958" lon="21.0559111"><ele>818.0</ele><time>2026-04-27T07:29:53.2Z</time></trkpt><trkpt lat="39.5862024" lon="21.0560242"><ele>818.0000000000001</ele><time>2026-04-27T07:29:54.2Z</time></trkpt><trkpt lat="39.5862396" lon="21.0561414"><ele>818.0</ele><time>2026-04-27T07:29:55.201Z</time></trkpt><trkpt lat="39.5862998" lon="21.0562487"><ele>822.5</ele><time>2026-04-27T07:29:56.201Z</time></trkpt><trkpt lat="39.5863702" lon="21.056361"><ele>827.0</ele><time>2026-04-27T07:29:57.201Z</time></trkpt><trkpt lat="39.5864374" lon="21.0564898"><ele>831.5</ele><time>2026-04-27T07:29:58.201Z</time></trkpt><trkpt lat="39.5864917" lon="21.0566307"><ele>836.0</ele><time>2026-04-27T07:29:59.201Z</time></trkpt><trkpt lat="39.5865276" lon="21.0567906"><ele>836.0</ele><time>2026-04-27T07:30:00.201Z</time></trkpt><trkpt lat="39.5865468" lon="21.0569477"><ele>836.0</ele><time>2026-04-27T07:30:01.201Z</time></trkpt><trkpt lat="39.5865579" lon="21.0570935"><ele>836.0</ele><time>2026-04-27T07:30:02.201Z</time></trkpt><trkpt lat="39.5865682" lon="21.0572407"><ele>836.0</ele><time>2026-04-27T07:30:03.2Z</time></trkpt><trkpt lat="39.5865759" lon="21.05738"><ele>835.3333333333334</ele><time>2026-04-27T07:30:04.2Z</time></trkpt><trkpt lat="39.5865786" lon="21.0575031"><ele>834.6666666666667</ele><time>2026-04-27T07:30:05.201Z</time></trkpt><trkpt lat="39.5865799" lon="21.0576193"><ele>834.0</ele><time>2026-04-27T07:30:06.2Z</time></trkpt><trkpt lat="39.5865827" lon="21.0577239"><ele>833.3333333333333</ele><time>2026-04-27T07:30:07.201Z</time></trkpt><trkpt lat="39.5865934" lon="21.0578331"><ele>832.6666666666666</ele><time>2026-04-27T07:30:08.2Z</time></trkpt><trkpt lat="39.5866111" lon="21.0579452"><ele>832.0</ele><time>2026-04-27T07:30:09.201Z</time></trkpt><trkpt lat="39.5866421" lon="21.0580632"><ele>832.0</ele><time>2026-04-27T07:30:10.2Z</time></trkpt><trkpt lat="39.5866868" lon="21.0581743"><ele>832.0</ele><time>2026-04-27T07:30:11.201Z</time></trkpt><trkpt lat="39.5867436" lon="21.058274"><ele>832.0</ele><time>2026-04-27T07:30:12.201Z</time></trkpt><trkpt lat="39.5868109" lon="21.0583695"><ele>832.0</ele><time>2026-04-27T07:30:13.2Z</time></trkpt><trkpt lat="39.5868872" lon="21.0584549"><ele>832.0</ele><time>2026-04-27T07:30:14.201Z</time></trkpt><trkpt lat="39.5869652" lon="21.0585408"><ele>835.0</ele><time>2026-04-27T07:30:15.2Z</time></trkpt><trkpt lat="39.5870397" lon="21.0586375"><ele>838.0</ele><time>2026-04-27T07:30:16.201Z</time></trkpt><trkpt lat="39.5870996" lon="21.0587372"><ele>841.0</ele><time>2026-04-27T07:30:17.201Z</time></trkpt><trkpt lat="39.587145" lon="21.0588318"><ele>844.0</ele><time>2026-04-27T07:30:18.2Z</time></trkpt><trkpt lat="39.5871748" lon="21.058916"><ele>847.0</ele><time>2026-04-27T07:30:19.2Z</time></trkpt><trkpt lat="39.5872074" lon="21.0590521"><ele>843.0</ele><time>2026-04-27T07:30:21.2Z</time></trkpt><trkpt lat="39.5872238" lon="21.0591895"><ele>839.0</ele><time>2026-04-27T07:30:23.201Z</time></trkpt><trkpt lat="39.5872569" lon="21.0593512"><ele>835.0</ele><time>2026-04-27T07:30:25.2Z</time></trkpt><trkpt lat="39.587286" lon="21.0594316"><ele>831.0</ele><time>2026-04-27T07:30:26.201Z</time></trkpt><trkpt lat="39.587318" lon="21.0595139"><ele>827.0</ele><time>2026-04-27T07:30:27.2Z</time></trkpt><trkpt lat="39.5873589" lon="21.0596054"><ele>827.0000000000001</ele><time>2026-04-27T07:30:28.2Z</time></trkpt><trkpt lat="39.5874015" lon="21.0596941"><ele>827.0</ele><time>2026-04-27T07:30:29.2Z</time></trkpt><trkpt lat="39.5874476" lon="21.0597785"><ele>827.0</ele><time>2026-04-27T07:30:30.2Z</time></trkpt><trkpt lat="39.587497" lon="21.0598585"><ele>827.0</ele><time>2026-04-27T07:30:31.2Z</time></trkpt><trkpt lat="39.5875477" lon="21.0599309"><ele>827.0000000000001</ele><time>2026-04-27T07:30:32.2Z</time></trkpt><trkpt lat="39.5875938" lon="21.0599931"><ele>827.0</ele><time>2026-04-27T07:30:33.201Z</time></trkpt><trkpt lat="39.5876414" lon="21.060067"><ele>829.3333333333334</ele><time>2026-04-27T07:30:34.2Z</time></trkpt><trkpt lat="39.5876927" lon="21.0601381"><ele>831.6666666666667</ele><time>2026-04-27T07:30:35.2Z</time></trkpt><trkpt lat="39.5877521" lon="21.0602028"><ele>834.0</ele><time>2026-04-27T07:30:36.2Z</time></trkpt><trkpt lat="39.5878169" lon="21.0602654"><ele>836.3333333333333</ele><time>2026-04-27T07:30:37.2Z</time></trkpt><trkpt lat="39.5878862" lon="21.0603316"><ele>838.6666666666666</ele><time>2026-04-27T07:30:38.201Z</time></trkpt><trkpt lat="39.5879616" lon="21.0603941"><ele>841.0</ele><time>2026-04-27T07:30:39.201Z</time></trkpt><trkpt lat="39.5880374" lon="21.0604571"><ele>840.9999999999999</ele><time>2026-04-27T07:30:40.2Z</time></trkpt><trkpt lat="39.5881124" lon="21.0605249"><ele>841.0</ele><time>2026-04-27T07:30:41.201Z</time></trkpt><trkpt lat="39.5881758" lon="21.0606027"><ele>841.0</ele><time>2026-04-27T07:30:42.201Z</time></trkpt><trkpt lat="39.5882113" lon="21.0607068"><ele>841.0</ele><time>2026-04-27T07:30:43.2Z</time></trkpt><trkpt lat="39.5882229" lon="21.0608215"><ele>840.9999999999999</ele><time>2026-04-27T07:30:44.201Z</time></trkpt><trkpt lat="39.5882092" lon="21.0609403"><ele>841.0</ele><time>2026-04-27T07:30:45.2Z</time></trkpt><trkpt lat="39.5881843" lon="21.06106"><ele>837.4</ele><time>2026-04-27T07:30:46.2Z</time></trkpt><trkpt lat="39.5881627" lon="21.0611896"><ele>833.8</ele><time>2026-04-27T07:30:47.2Z</time></trkpt><trkpt lat="39.5881454" lon="21.0613232"><ele>830.1999999999999</ele><time>2026-04-27T07:30:48.201Z</time></trkpt><trkpt lat="39.5881274" lon="21.0614546"><ele>826.5999999999999</ele><time>2026-04-27T07:30:49.2Z</time></trkpt><trkpt lat="39.5881068" lon="21.0615868"><ele>823.0</ele><time>2026-04-27T07:30:50.2Z</time></trkpt><trkpt lat="39.5880894" lon="21.061708"><ele>822.8333333333333</ele><time>2026-04-27T07:30:51.201Z</time></trkpt><trkpt lat="39.5880647" lon="21.0618126"><ele>822.6666666666666</ele><time>2026-04-27T07:30:52.201Z</time></trkpt><trkpt lat="39.5880248" lon="21.0619009"><ele>822.5</ele><time>2026-04-27T07:30:53.2Z</time></trkpt><trkpt lat="39.5879637" lon="21.0619698"><ele>822.3333333333333</ele><time>2026-04-27T07:30:54.2Z</time></trkpt><trkpt lat="39.5878872" lon="21.0620155"><ele>822.1666666666666</ele><time>2026-04-27T07:30:55.2Z</time></trkpt><trkpt lat="39.5878027" lon="21.0620249"><ele>822.0</ele><time>2026-04-27T07:30:56.2Z</time></trkpt><trkpt lat="39.5877158" lon="21.0620111"><ele>819.2</ele><time>2026-04-27T07:30:57.2Z</time></trkpt><trkpt lat="39.5876275" lon="21.0619946"><ele>816.4000000000001</ele><time>2026-04-27T07:30:58.201Z</time></trkpt><trkpt lat="39.587532" lon="21.0620033"><ele>813.5999999999999</ele><time>2026-04-27T07:30:59.2Z</time></trkpt><trkpt lat="39.5874381" lon="21.0620279"><ele>810.8</ele><time>2026-04-27T07:31:00.2Z</time></trkpt><trkpt lat="39.5873429" lon="21.0620569"><ele>808.0</ele><time>2026-04-27T07:31:01.201Z</time></trkpt><trkpt lat="39.5872476" lon="21.0620966"><ele>808.0</ele><time>2026-04-27T07:31:02.2Z</time></trkpt><trkpt lat="39.5871478" lon="21.062136"><ele>808.0</ele><time>2026-04-27T07:31:03.201Z</time></trkpt><trkpt lat="39.5870366" lon="21.0621704"><ele>808.0</ele><time>2026-04-27T07:31:04.2Z</time></trkpt><trkpt lat="39.5869143" lon="21.0621766"><ele>808.0</ele><time>2026-04-27T07:31:05.201Z</time></trkpt><trkpt lat="39.5867891" lon="21.0621551"><ele>807.25</ele><time>2026-04-27T07:31:06.201Z</time></trkpt><trkpt lat="39.586664" lon="21.0621025"><ele>806.5</ele><time>2026-04-27T07:31:07.201Z</time></trkpt><trkpt lat="39.5865466" lon="21.0620342"><ele>805.75</ele><time>2026-04-27T07:31:08.2Z</time></trkpt><trkpt lat="39.5864369" lon="21.0619715"><ele>805.0</ele><time>2026-04-27T07:31:09.2Z</time></trkpt><trkpt lat="39.5863198" lon="21.0619324"><ele>805.0</ele><time>2026-04-27T07:31:10.2Z</time></trkpt><trkpt lat="39.5861897" lon="21.0619083"><ele>805.0</ele><time>2026-04-27T07:31:11.201Z</time></trkpt><trkpt lat="39.5860579" lon="21.061888"><ele>805.0</ele><time>2026-04-27T07:31:12.201Z</time></trkpt><trkpt lat="39.585928" lon="21.0618691"><ele>805.0</ele><time>2026-04-27T07:31:13.201Z</time></trkpt><trkpt lat="39.5858148" lon="21.0618492"><ele>801.0</ele><time>2026-04-27T07:31:14.2Z</time></trkpt><trkpt lat="39.5857021" lon="21.06182"><ele>797.0</ele><time>2026-04-27T07:31:15.2Z</time></trkpt><trkpt lat="39.5855911" lon="21.0617698"><ele>793.0</ele><time>2026-04-27T07:31:16.201Z</time></trkpt><trkpt lat="39.58548" lon="21.0616931"><ele>789.0</ele><time>2026-04-27T07:31:17.2Z</time></trkpt><trkpt lat="39.5853632" lon="21.0616015"><ele>797.5</ele><time>2026-04-27T07:31:18.2Z</time></trkpt><trkpt lat="39.5852445" lon="21.0615029"><ele>806.0</ele><time>2026-04-27T07:31:19.201Z</time></trkpt><trkpt lat="39.5851291" lon="21.0614056"><ele>814.5</ele><time>2026-04-27T07:31:20.201Z</time></trkpt><trkpt lat="39.5850159" lon="21.0613088"><ele>823.0</ele><time>2026-04-27T07:31:21.201Z</time></trkpt><trkpt lat="39.58491" lon="21.0612124"><ele>823.0</ele><time>2026-04-27T07:31:22.2Z</time></trkpt><trkpt lat="39.5848076" lon="21.061114"><ele>823.0</ele><time>2026-04-27T07:31:23.201Z</time></trkpt><trkpt lat="39.5847102" lon="21.0610227"><ele>823.0</ele><time>2026-04-27T07:31:24.201Z</time></trkpt><trkpt lat="39.5846181" lon="21.0609285"><ele>823.0</ele><time>2026-04-27T07:31:25.2Z</time></trkpt><trkpt lat="39.5845269" lon="21.0608322"><ele>824.5999999999999</ele><time>2026-04-27T07:31:26.2Z</time></trkpt><trkpt lat="39.5844435" lon="21.0607376"><ele>826.1999999999999</ele><time>2026-04-27T07:31:27.201Z</time></trkpt><trkpt lat="39.5843633" lon="21.0606437"><ele>827.8</ele><time>2026-04-27T07:31:28.201Z</time></trkpt><trkpt lat="39.58429" lon="21.0605461"><ele>829.4</ele><time>2026-04-27T07:31:29.2Z</time></trkpt><trkpt lat="39.5842231" lon="21.0604394"><ele>831.0</ele><time>2026-04-27T07:31:30.201Z</time></trkpt><trkpt lat="39.5841804" lon="21.0603215"><ele>831.0</ele><time>2026-04-27T07:31:31.2Z</time></trkpt><trkpt lat="39.5841588" lon="21.0601929"><ele>831.0</ele><time>2026-04-27T07:31:32.2Z</time></trkpt><trkpt lat="39.5841443" lon="21.0600619"><ele>831.0</ele><time>2026-04-27T07:31:33.2Z</time></trkpt><trkpt lat="39.5841268" lon="21.0599311"><ele>831.0</ele><time>2026-04-27T07:31:34.201Z</time></trkpt><trkpt lat="39.5840838" lon="21.0598016"><ele>831.0</ele><time>2026-04-27T07:31:35.201Z</time></trkpt><trkpt lat="39.5840242" lon="21.0596809"><ele>827.25</ele><time>2026-04-27T07:31:36.201Z</time></trkpt><trkpt lat="39.5839338" lon="21.0595766"><ele>823.5</ele><time>2026-04-27T07:31:37.201Z</time></trkpt><trkpt lat="39.583829" lon="21.0594759"><ele>819.75</ele><time>2026-04-27T07:31:38.2Z</time></trkpt><trkpt lat="39.583721" lon="21.0593756"><ele>816.0</ele><time>2026-04-27T07:31:39.201Z</time></trkpt><trkpt lat="39.5836139" lon="21.0592808"><ele>816.0</ele><time>2026-04-27T07:31:40.201Z</time></trkpt><trkpt lat="39.583502" lon="21.0592044"><ele>816.0</ele><time>2026-04-27T07:31:41.201Z</time></trkpt><trkpt lat="39.5833991" lon="21.0591547"><ele>816.0</ele><time>2026-04-27T07:31:42.201Z</time></trkpt><trkpt lat="39.5832909" lon="21.059152"><ele>816.0</ele><time>2026-04-27T07:31:43.2Z</time></trkpt><trkpt lat="39.5831843" lon="21.0591948"><ele>816.0</ele><time>2026-04-27T07:31:44.2Z</time></trkpt><trkpt lat="39.5830777" lon="21.0592685"><ele>816.0</ele><time>2026-04-27T07:31:45.2Z</time></trkpt><trkpt lat="39.5829772" lon="21.0593649"><ele>816.0</ele><time>2026-04-27T07:31:46.201Z</time></trkpt><trkpt lat="39.5828907" lon="21.0594714"><ele>816.0</ele><time>2026-04-27T07:31:47.201Z</time></trkpt><trkpt lat="39.5828101" lon="21.0595887"><ele>817.75</ele><time>2026-04-27T07:31:48.201Z</time></trkpt><trkpt lat="39.5827321" lon="21.0597073"><ele>819.5</ele><time>2026-04-27T07:31:49.201Z</time></trkpt><trkpt lat="39.5826512" lon="21.0598153"><ele>821.25</ele><time>2026-04-27T07:31:50.201Z</time></trkpt><trkpt lat="39.5825656" lon="21.0599057"><ele>823.0</ele><time>2026-04-27T07:31:51.201Z</time></trkpt><trkpt lat="39.582484" lon="21.0599964"><ele>823.0</ele><time>2026-04-27T07:31:52.201Z</time></trkpt><trkpt lat="39.5824225" lon="21.0601116"><ele>823.0</ele><time>2026-04-27T07:31:53.201Z</time></trkpt><trkpt lat="39.5823874" lon="21.0602345"><ele>823.0</ele><time>2026-04-27T07:31:54.2Z</time></trkpt><trkpt lat="39.5823714" lon="21.0603562"><ele>823.0</ele><time>2026-04-27T07:31:55.2Z</time></trkpt><trkpt lat="39.5823531" lon="21.0604716"><ele>823.0</ele><time>2026-04-27T07:31:56.201Z</time></trkpt><trkpt lat="39.5823191" lon="21.0605833"><ele>823.0</ele><time>2026-04-27T07:31:57.2Z</time></trkpt><trkpt lat="39.5822394" lon="21.0606327"><ele>823.0</ele><time>2026-04-27T07:31:58.2Z</time></trkpt><trkpt lat="39.5821534" lon="21.0606624"><ele>823.0</ele><time>2026-04-27T07:31:59.201Z</time></trkpt><trkpt lat="39.582049" lon="21.0606672"><ele>823.0</ele><time>2026-04-27T07:32:00.201Z</time></trkpt><trkpt lat="39.5819184" lon="21.0606603"><ele>823.0</ele><time>2026-04-27T07:32:01.201Z</time></trkpt><trkpt lat="39.5817847" lon="21.0606679"><ele>817.5</ele><time>2026-04-27T07:32:02.201Z</time></trkpt><trkpt lat="39.5816473" lon="21.0606753"><ele>812.0</ele><time>2026-04-27T07:32:03.201Z</time></trkpt><trkpt lat="39.5814985" lon="21.0606918"><ele>806.5</ele><time>2026-04-27T07:32:04.201Z</time></trkpt><trkpt lat="39.5813469" lon="21.0606994"><ele>801.0</ele><time>2026-04-27T07:32:05.201Z</time></trkpt><trkpt lat="39.5812003" lon="21.0606854"><ele>798.75</ele><time>2026-04-27T07:32:06.2Z</time></trkpt><trkpt lat="39.5810587" lon="21.0606603"><ele>796.5</ele><time>2026-04-27T07:32:07.201Z</time></trkpt><trkpt lat="39.5809239" lon="21.0606312"><ele>794.25</ele><time>2026-04-27T07:32:08.201Z</time></trkpt><trkpt lat="39.5807908" lon="21.0606116"><ele>792.0</ele><time>2026-04-27T07:32:09.2Z</time></trkpt><trkpt lat="39.5806607" lon="21.0606115"><ele>792.0</ele><time>2026-04-27T07:32:10.2Z</time></trkpt><trkpt lat="39.5805364" lon="21.0606271"><ele>792.0</ele><time>2026-04-27T07:32:11.201Z</time></trkpt><trkpt lat="39.5804252" lon="21.0606831"><ele>792.0</ele><time>2026-04-27T07:32:12.2Z</time></trkpt><trkpt lat="39.5803306" lon="21.0607813"><ele>792.0</ele><time>2026-04-27T07:32:13.201Z</time></trkpt><trkpt lat="39.5802521" lon="21.0609054"><ele>795.75</ele><time>2026-04-27T07:32:14.201Z</time></trkpt><trkpt lat="39.5801824" lon="21.0610333"><ele>799.5</ele><time>2026-04-27T07:32:15.2Z</time></trkpt><trkpt lat="39.5801001" lon="21.0611284"><ele>803.25</ele><time>2026-04-27T07:32:16.201Z</time></trkpt><trkpt lat="39.5799922" lon="21.0611944"><ele>807.0</ele><time>2026-04-27T07:32:17.2Z</time></trkpt><trkpt lat="39.5798655" lon="21.0611772"><ele>807.0</ele><time>2026-04-27T07:32:18.201Z</time></trkpt><trkpt lat="39.5797171" lon="21.0611625"><ele>807.0</ele><time>2026-04-27T07:32:19.201Z</time></trkpt><trkpt lat="39.5795635" lon="21.0611624"><ele>807.0</ele><time>2026-04-27T07:32:20.2Z</time></trkpt><trkpt lat="39.5793996" lon="21.0611668"><ele>804.6666666666667</ele><time>2026-04-27T07:32:21.201Z</time></trkpt><trkpt lat="39.5792298" lon="21.0611672"><ele>802.3333333333334</ele><time>2026-04-27T07:32:22.201Z</time></trkpt><trkpt lat="39.5790751" lon="21.0611734"><ele>800.0</ele><time>2026-04-27T07:32:23.2Z</time></trkpt><trkpt lat="39.5789281" lon="21.0611984"><ele>800.0</ele><time>2026-04-27T07:32:24.201Z</time></trkpt><trkpt lat="39.5787979" lon="21.0612569"><ele>800.0</ele><time>2026-04-27T07:32:25.2Z</time></trkpt><trkpt lat="39.5786799" lon="21.0613448"><ele>800.0</ele><time>2026-04-27T07:32:26.2Z</time></trkpt><trkpt lat="39.5785834" lon="21.0614744"><ele>800.0</ele><time>2026-04-27T07:32:27.201Z</time></trkpt><trkpt lat="39.578498" lon="21.0616228"><ele>802.0</ele><time>2026-04-27T07:32:28.2Z</time></trkpt><trkpt lat="39.5784043" lon="21.061786"><ele>804.0</ele><time>2026-04-27T07:32:29.2Z</time></trkpt><trkpt lat="39.5782902" lon="21.0619345"><ele>806.0</ele><time>2026-04-27T07:32:30.201Z</time></trkpt><trkpt lat="39.5781695" lon="21.0620624"><ele>806.0</ele><time>2026-04-27T07:32:31.2Z</time></trkpt><trkpt lat="39.5780504" lon="21.0621805"><ele>806.0</ele><time>2026-04-27T07:32:32.201Z</time></trkpt><trkpt lat="39.5779314" lon="21.0622967"><ele>806.0</ele><time>2026-04-27T07:32:33.201Z</time></trkpt><trkpt lat="39.577816" lon="21.0624161"><ele>806.0</ele><time>2026-04-27T07:32:34.201Z</time></trkpt><trkpt lat="39.5777121" lon="21.0625232"><ele>803.5999999999999</ele><time>2026-04-27T07:32:35.201Z</time></trkpt><trkpt lat="39.5776261" lon="21.0626117"><ele>801.2</ele><time>2026-04-27T07:32:36.2Z</time></trkpt><trkpt lat="39.5775596" lon="21.0626787"><ele>798.8</ele><time>2026-04-27T07:32:37.2Z</time></trkpt><trkpt lat="39.5774989" lon="21.0627164"><ele>796.4000000000001</ele><time>2026-04-27T07:32:38.201Z</time></trkpt><trkpt lat="39.5774105" lon="21.0626813"><ele>794.0</ele><time>2026-04-27T07:32:40.2Z</time></trkpt><trkpt lat="39.5774759" lon="21.0625323"><ele>794.0</ele><time>2026-04-27T07:32:42.2Z</time></trkpt><trkpt lat="39.5775554" lon="21.0624489"><ele>794.0</ele><time>2026-04-27T07:32:43.201Z</time></trkpt><trkpt lat="39.5776567" lon="21.0623569"><ele>794.0</ele><time>2026-04-27T07:32:44.201Z</time></trkpt><trkpt lat="39.5777632" lon="21.0622487"><ele>794.0</ele><time>2026-04-27T07:32:45.201Z</time></trkpt><trkpt lat="39.5778688" lon="21.0621216"><ele>798.0</ele><time>2026-04-27T07:32:46.2Z</time></trkpt><trkpt lat="39.577979" lon="21.061988"><ele>802.0</ele><time>2026-04-27T07:32:47.201Z</time></trkpt><trkpt lat="39.5780869" lon="21.0618414"><ele>806.0</ele><time>2026-04-27T07:32:48.2Z</time></trkpt><trkpt lat="39.578188" lon="21.0616892"><ele>800.75</ele><time>2026-04-27T07:32:49.201Z</time></trkpt><trkpt lat="39.5782812" lon="21.0615417"><ele>795.5</ele><time>2026-04-27T07:32:50.201Z</time></trkpt><trkpt lat="39.5783602" lon="21.0613932"><ele>790.25</ele><time>2026-04-27T07:32:51.201Z</time></trkpt><trkpt lat="39.578429" lon="21.0612431"><ele>785.0</ele><time>2026-04-27T07:32:52.201Z</time></trkpt><trkpt lat="39.578484" lon="21.0611068"><ele>785.0000000000001</ele><time>2026-04-27T07:32:53.201Z</time></trkpt><trkpt lat="39.5785262" lon="21.0609931"><ele>785.0</ele><time>2026-04-27T07:32:54.201Z</time></trkpt><trkpt lat="39.5785549" lon="21.0609026"><ele>785.0</ele><time>2026-04-27T07:32:55.2Z</time></trkpt><trkpt lat="39.5785585" lon="21.0608196"><ele>785.0</ele><time>2026-04-27T07:32:56.2Z</time></trkpt><trkpt lat="39.5785254" lon="21.06075"><ele>785.0000000000001</ele><time>2026-04-27T07:32:57.201Z</time></trkpt><trkpt lat="39.5784038" lon="21.0607502"><ele>785.0</ele><time>2026-04-27T07:32:59.201Z</time></trkpt><trkpt lat="39.5783405" lon="21.0608398"><ele>785.0</ele><time>2026-04-27T07:33:00.201Z</time></trkpt><trkpt lat="39.5782862" lon="21.0609839"><ele>785.0</ele><time>2026-04-27T07:33:01.2Z</time></trkpt><trkpt lat="39.5782037" lon="21.0611693"><ele>785.0</ele><time>2026-04-27T07:33:02.201Z</time></trkpt><trkpt lat="39.5780931" lon="21.0613426"><ele>785.0</ele><time>2026-04-27T07:33:03.201Z</time></trkpt><trkpt lat="39.5779678" lon="21.061506"><ele>785.0</ele><time>2026-04-27T07:33:04.201Z</time></trkpt><trkpt lat="39.577835" lon="21.0616564"><ele>785.0</ele><time>2026-04-27T07:33:05.2Z</time></trkpt><trkpt lat="39.5776994" lon="21.061786"><ele>780.6666666666667</ele><time>2026-04-27T07:33:06.201Z</time></trkpt><trkpt lat="39.5775567" lon="21.061908"><ele>776.3333333333333</ele><time>2026-04-27T07:33:07.2Z</time></trkpt><trkpt lat="39.5774135" lon="21.062022"><ele>772.0</ele><time>2026-04-27T07:33:08.2Z</time></trkpt><trkpt lat="39.5772765" lon="21.062131"><ele>772.0</ele><time>2026-04-27T07:33:09.2Z</time></trkpt><trkpt lat="39.5771439" lon="21.0622387"><ele>772.0</ele><time>2026-04-27T07:33:10.201Z</time></trkpt><trkpt lat="39.5770199" lon="21.0623341"><ele>772.0</ele><time>2026-04-27T07:33:11.2Z</time></trkpt><trkpt lat="39.5769013" lon="21.0624215"><ele>772.0</ele><time>2026-04-27T07:33:12.2Z</time></trkpt><trkpt lat="39.5767916" lon="21.0625206"><ele>771.5</ele><time>2026-04-27T07:33:13.2Z</time></trkpt><trkpt lat="39.5767022" lon="21.0626401"><ele>771.0</ele><time>2026-04-27T07:33:14.201Z</time></trkpt><trkpt lat="39.5766351" lon="21.0627866"><ele>770.5</ele><time>2026-04-27T07:33:15.201Z</time></trkpt><trkpt lat="39.5765806" lon="21.0629476"><ele>770.0</ele><time>2026-04-27T07:33:16.201Z</time></trkpt><trkpt lat="39.5765351" lon="21.0631085"><ele>770.0</ele><time>2026-04-27T07:33:17.201Z</time></trkpt><trkpt lat="39.5764998" lon="21.0632644"><ele>770.0</ele><time>2026-04-27T07:33:18.201Z</time></trkpt><trkpt lat="39.576488" lon="21.0634073"><ele>770.0</ele><time>2026-04-27T07:33:19.201Z</time></trkpt><trkpt lat="39.5765088" lon="21.0635368"><ele>770.0</ele><time>2026-04-27T07:33:20.2Z</time></trkpt><trkpt lat="39.5765755" lon="21.0636666"><ele>770.25</ele><time>2026-04-27T07:33:21.201Z</time></trkpt><trkpt lat="39.5766611" lon="21.0637824"><ele>770.5</ele><time>2026-04-27T07:33:22.2Z</time></trkpt><trkpt lat="39.5767307" lon="21.0638995"><ele>770.75</ele><time>2026-04-27T07:33:23.201Z</time></trkpt><trkpt lat="39.5767595" lon="21.0640438"><ele>771.0</ele><time>2026-04-27T07:33:24.2Z</time></trkpt><trkpt lat="39.5767992" lon="21.064175"><ele>771.0</ele><time>2026-04-27T07:33:25.201Z</time></trkpt><trkpt lat="39.576689" lon="21.064378"><ele>771.0</ele><time>2026-04-27T07:33:26.2Z</time></trkpt><trkpt lat="39.5766454" lon="21.0645557"><ele>771.0</ele><time>2026-04-27T07:33:27.201Z</time></trkpt><trkpt lat="39.5765865" lon="21.0647252"><ele>771.0</ele><time>2026-04-27T07:33:28.201Z</time></trkpt><trkpt lat="39.576519" lon="21.064881"><ele>771.0</ele><time>2026-04-27T07:33:29.201Z</time></trkpt><trkpt lat="39.576451" lon="21.0650245"><ele>771.0</ele><time>2026-04-27T07:33:30.2Z</time></trkpt><trkpt lat="39.5764071" lon="21.0651847"><ele>771.0</ele><time>2026-04-27T07:33:31.2Z</time></trkpt><trkpt lat="39.5763982" lon="21.0653595"><ele>771.0</ele><time>2026-04-27T07:33:32.201Z</time></trkpt><trkpt lat="39.5764116" lon="21.0655199"><ele>771.0</ele><time>2026-04-27T07:33:33.2Z</time></trkpt><trkpt lat="39.5763963" lon="21.0656714"><ele>771.0</ele><time>2026-04-27T07:33:34.201Z</time></trkpt><trkpt lat="39.5763588" lon="21.065815"><ele>771.0</ele><time>2026-04-27T07:33:35.201Z</time></trkpt><trkpt lat="39.5762749" lon="21.0659362"><ele>771.5</ele><time>2026-04-27T07:33:36.201Z</time></trkpt><trkpt lat="39.5761903" lon="21.0660485"><ele>772.0</ele><time>2026-04-27T07:33:37.2Z</time></trkpt><trkpt lat="39.5761178" lon="21.0661903"><ele>772.5</ele><time>2026-04-27T07:33:38.2Z</time></trkpt><trkpt lat="39.5760646" lon="21.0663396"><ele>773.0</ele><time>2026-04-27T07:33:39.2Z</time></trkpt><trkpt lat="39.5760298" lon="21.0664951"><ele>768.5</ele><time>2026-04-27T07:33:40.201Z</time></trkpt><trkpt lat="39.5760091" lon="21.066658"><ele>764.0</ele><time>2026-04-27T07:33:41.2Z</time></trkpt><trkpt lat="39.5759987" lon="21.0668265"><ele>759.5</ele><time>2026-04-27T07:33:42.201Z</time></trkpt><trkpt lat="39.575998" lon="21.0669837"><ele>755.0</ele><time>2026-04-27T07:33:43.201Z</time></trkpt><trkpt lat="39.5759952" lon="21.0671353"><ele>755.0</ele><time>2026-04-27T07:33:44.201Z</time></trkpt><trkpt lat="39.5759758" lon="21.0672933"><ele>755.0</ele><time>2026-04-27T07:33:45.2Z</time></trkpt><trkpt lat="39.5758875" lon="21.0674145"><ele>755.0</ele><time>2026-04-27T07:33:46.201Z</time></trkpt><trkpt lat="39.5758291" lon="21.0675474"><ele>755.0</ele><time>2026-04-27T07:33:47.2Z</time></trkpt><trkpt lat="39.5757714" lon="21.0676736"><ele>755.0</ele><time>2026-04-27T07:33:48.201Z</time></trkpt><trkpt lat="39.5757255" lon="21.0677942"><ele>755.0</ele><time>2026-04-27T07:33:49.201Z</time></trkpt><trkpt lat="39.5757048" lon="21.0679073"><ele>755.0</ele><time>2026-04-27T07:33:50.2Z</time></trkpt><trkpt lat="39.5757158" lon="21.0680098"><ele>755.0</ele><time>2026-04-27T07:33:51.2Z</time></trkpt><trkpt lat="39.5757634" lon="21.0680952"><ele>755.0</ele><time>2026-04-27T07:33:52.201Z</time></trkpt><trkpt lat="39.5758473" lon="21.0681631"><ele>755.0</ele><time>2026-04-27T07:33:53.201Z</time></trkpt><trkpt lat="39.5759674" lon="21.0682139"><ele>755.0</ele><time>2026-04-27T07:33:54.2Z</time></trkpt><trkpt lat="39.5760933" lon="21.0682532"><ele>755.0</ele><time>2026-04-27T07:33:55.2Z</time></trkpt><trkpt lat="39.5762214" lon="21.0682796"><ele>755.0</ele><time>2026-04-27T07:33:56.2Z</time></trkpt><trkpt lat="39.5763477" lon="21.0682954"><ele>753.75</ele><time>2026-04-27T07:33:57.2Z</time></trkpt><trkpt lat="39.5764739" lon="21.0682816"><ele>752.5</ele><time>2026-04-27T07:33:58.2Z</time></trkpt><trkpt lat="39.5765981" lon="21.0682313"><ele>751.25</ele><time>2026-04-27T07:33:59.201Z</time></trkpt><trkpt lat="39.5767169" lon="21.0681571"><ele>750.0</ele><time>2026-04-27T07:34:00.201Z</time></trkpt><trkpt lat="39.5768256" lon="21.0680869"><ele>754.2</ele><time>2026-04-27T07:34:01.2Z</time></trkpt><trkpt lat="39.5769253" lon="21.0680234"><ele>758.4</ele><time>2026-04-27T07:34:02.201Z</time></trkpt><trkpt lat="39.5770154" lon="21.0679712"><ele>762.5999999999999</ele><time>2026-04-27T07:34:03.201Z</time></trkpt><trkpt lat="39.5771123" lon="21.0679365"><ele>766.8</ele><time>2026-04-27T07:34:04.201Z</time></trkpt><trkpt lat="39.5771674" lon="21.0680062"><ele>771.0</ele><time>2026-04-27T07:34:05.201Z</time></trkpt><trkpt lat="39.5772203" lon="21.06808"><ele>770.25</ele><time>2026-04-27T07:34:06.2Z</time></trkpt><trkpt lat="39.5772519" lon="21.0681851"><ele>769.5</ele><time>2026-04-27T07:34:07.2Z</time></trkpt><trkpt lat="39.5772715" lon="21.0683447"><ele>768.75</ele><time>2026-04-27T07:34:08.201Z</time></trkpt><trkpt lat="39.5773097" lon="21.0684913"><ele>768.0</ele><time>2026-04-27T07:34:09.201Z</time></trkpt><trkpt lat="39.5773596" lon="21.0686319"><ele>768.0</ele><time>2026-04-27T07:34:10.2Z</time></trkpt><trkpt lat="39.5774347" lon="21.068776"><ele>768.0</ele><time>2026-04-27T07:34:11.201Z</time></trkpt><trkpt lat="39.5775223" lon="21.0689047"><ele>768.0</ele><time>2026-04-27T07:34:12.2Z</time></trkpt><trkpt lat="39.5776308" lon="21.0690328"><ele>768.0</ele><time>2026-04-27T07:34:13.201Z</time></trkpt><trkpt lat="39.5777348" lon="21.06915"><ele>769.4</ele><time>2026-04-27T07:34:14.201Z</time></trkpt><trkpt lat="39.5778303" lon="21.0692584"><ele>770.8</ele><time>2026-04-27T07:34:15.201Z</time></trkpt><trkpt lat="39.5779154" lon="21.0693648"><ele>772.2</ele><time>2026-04-27T07:34:16.201Z</time></trkpt><trkpt lat="39.5779832" lon="21.0694714"><ele>773.6</ele><time>2026-04-27T07:34:17.2Z</time></trkpt><trkpt lat="39.5780256" lon="21.0695834"><ele>775.0</ele><time>2026-04-27T07:34:18.2Z</time></trkpt><trkpt lat="39.5780465" lon="21.0697115"><ele>775.0</ele><time>2026-04-27T07:34:19.201Z</time></trkpt><trkpt lat="39.5780307" lon="21.069849"><ele>775.0</ele><time>2026-04-27T07:34:20.201Z</time></trkpt><trkpt lat="39.5779756" lon="21.0699721"><ele>775.0</ele><time>2026-04-27T07:34:21.201Z</time></trkpt><trkpt lat="39.5779138" lon="21.0700839"><ele>775.0</ele><time>2026-04-27T07:34:22.201Z</time></trkpt><trkpt lat="39.5778027" lon="21.0701932"><ele>765.6666666666666</ele><time>2026-04-27T07:34:23.201Z</time></trkpt><trkpt lat="39.57761" lon="21.0702673"><ele>756.3333333333333</ele><time>2026-04-27T07:34:24.201Z</time></trkpt><trkpt lat="39.5774349" lon="21.0703439"><ele>747.0</ele><time>2026-04-27T07:34:25.2Z</time></trkpt><trkpt lat="39.5772627" lon="21.070409"><ele>747.0</ele><time>2026-04-27T07:34:26.2Z</time></trkpt><trkpt lat="39.5770942" lon="21.07048"><ele>747.0</ele><time>2026-04-27T07:34:27.2Z</time></trkpt><trkpt lat="39.5769347" lon="21.0705599"><ele>747.0</ele><time>2026-04-27T07:34:28.201Z</time></trkpt><trkpt lat="39.5767866" lon="21.0706484"><ele>748.75</ele><time>2026-04-27T07:34:29.2Z</time></trkpt><trkpt lat="39.5766449" lon="21.0707318"><ele>750.5</ele><time>2026-04-27T07:34:30.201Z</time></trkpt><trkpt lat="39.5765124" lon="21.0708038"><ele>752.25</ele><time>2026-04-27T07:34:31.2Z</time></trkpt><trkpt lat="39.5763915" lon="21.0708757"><ele>754.0</ele><time>2026-04-27T07:34:32.2Z</time></trkpt><trkpt lat="39.5762899" lon="21.0709599"><ele>754.0</ele><time>2026-04-27T07:34:33.2Z</time></trkpt><trkpt lat="39.5762154" lon="21.0710567"><ele>754.0</ele><time>2026-04-27T07:34:34.201Z</time></trkpt><trkpt lat="39.5761728" lon="21.0711687"><ele>754.0</ele><time>2026-04-27T07:34:35.201Z</time></trkpt><trkpt lat="39.576163" lon="21.0712902"><ele>754.0</ele><time>2026-04-27T07:34:36.201Z</time></trkpt><trkpt lat="39.5761773" lon="21.071415"><ele>754.0</ele><time>2026-04-27T07:34:37.201Z</time></trkpt><trkpt lat="39.5762186" lon="21.0715294"><ele>754.2</ele><time>2026-04-27T07:34:38.2Z</time></trkpt><trkpt lat="39.5762847" lon="21.0716235"><ele>754.4000000000001</ele><time>2026-04-27T07:34:39.201Z</time></trkpt><trkpt lat="39.5763682" lon="21.0717052"><ele>754.6</ele><time>2026-04-27T07:34:40.2Z</time></trkpt><trkpt lat="39.576465" lon="21.0717819"><ele>754.8</ele><time>2026-04-27T07:34:41.201Z</time></trkpt><trkpt lat="39.5765677" lon="21.0718589"><ele>755.0</ele><time>2026-04-27T07:34:42.201Z</time></trkpt><trkpt lat="39.5766797" lon="21.0719437"><ele>755.0</ele><time>2026-04-27T07:34:43.201Z</time></trkpt><trkpt lat="39.5767877" lon="21.0720308"><ele>755.0</ele><time>2026-04-27T07:34:44.201Z</time></trkpt><trkpt lat="39.5768871" lon="21.0721104"><ele>755.0</ele><time>2026-04-27T07:34:45.201Z</time></trkpt><trkpt lat="39.5769779" lon="21.0721824"><ele>755.0</ele><time>2026-04-27T07:34:46.201Z</time></trkpt><trkpt lat="39.577056" lon="21.0722615"><ele>755.0</ele><time>2026-04-27T07:34:47.201Z</time></trkpt><trkpt lat="39.5771004" lon="21.0723647"><ele>755.2</ele><time>2026-04-27T07:34:48.2Z</time></trkpt><trkpt lat="39.577119" lon="21.0724915"><ele>755.4</ele><time>2026-04-27T07:34:49.201Z</time></trkpt><trkpt lat="39.5771117" lon="21.0726178"><ele>755.5999999999999</ele><time>2026-04-27T07:34:50.2Z</time></trkpt><trkpt lat="39.5770837" lon="21.0727453"><ele>755.8</ele><time>2026-04-27T07:34:51.2Z</time></trkpt><trkpt lat="39.5770287" lon="21.072851"><ele>756.0</ele><time>2026-04-27T07:34:52.2Z</time></trkpt><trkpt lat="39.5769708" lon="21.0729243"><ele>752.1999999999999</ele><time>2026-04-27T07:34:53.201Z</time></trkpt><trkpt lat="39.5768748" lon="21.0729573"><ele>748.4</ele><time>2026-04-27T07:34:54.2Z</time></trkpt><trkpt lat="39.5767775" lon="21.0729855"><ele>744.6</ele><time>2026-04-27T07:34:55.2Z</time></trkpt><trkpt lat="39.5766968" lon="21.0730343"><ele>740.8</ele><time>2026-04-27T07:34:56.201Z</time></trkpt><trkpt lat="39.5766224" lon="21.0731194"><ele>737.0</ele><time>2026-04-27T07:34:57.201Z</time></trkpt><trkpt lat="39.5765457" lon="21.0732417"><ele>736.25</ele><time>2026-04-27T07:34:58.201Z</time></trkpt><trkpt lat="39.5764619" lon="21.0733717"><ele>735.5</ele><time>2026-04-27T07:34:59.2Z</time></trkpt><trkpt lat="39.5763793" lon="21.0735056"><ele>734.75</ele><time>2026-04-27T07:35:00.201Z</time></trkpt><trkpt lat="39.5762799" lon="21.0736421"><ele>734.0</ele><time>2026-04-27T07:35:01.2Z</time></trkpt><trkpt lat="39.5761701" lon="21.0737628"><ele>734.0</ele><time>2026-04-27T07:35:02.2Z</time></trkpt><trkpt lat="39.5760503" lon="21.0738692"><ele>734.0</ele><time>2026-04-27T07:35:03.2Z</time></trkpt><trkpt lat="39.5759132" lon="21.073966"><ele>734.0</ele><time>2026-04-27T07:35:04.2Z</time></trkpt><trkpt lat="39.5757756" lon="21.0740407"><ele>734.0</ele><time>2026-04-27T07:35:05.2Z</time></trkpt><trkpt lat="39.5756283" lon="21.0741015"><ele>734.0</ele><time>2026-04-27T07:35:06.201Z</time></trkpt><trkpt lat="39.5754736" lon="21.0741491"><ele>734.0</ele><time>2026-04-27T07:35:07.201Z</time></trkpt><trkpt lat="39.5753246" lon="21.0741834"><ele>737.25</ele><time>2026-04-27T07:35:08.201Z</time></trkpt><trkpt lat="39.5751864" lon="21.0742039"><ele>740.5</ele><time>2026-04-27T07:35:09.201Z</time></trkpt><trkpt lat="39.5750621" lon="21.074194"><ele>743.75</ele><time>2026-04-27T07:35:10.201Z</time></trkpt><trkpt lat="39.5749623" lon="21.0741885"><ele>747.0</ele><time>2026-04-27T07:35:11.2Z</time></trkpt><trkpt lat="39.5748683" lon="21.0742249"><ele>747.0</ele><time>2026-04-27T07:35:12.201Z</time></trkpt><trkpt lat="39.5747893" lon="21.0743038"><ele>747.0</ele><time>2026-04-27T07:35:13.2Z</time></trkpt><trkpt lat="39.5747348" lon="21.0744347"><ele>747.0</ele><time>2026-04-27T07:35:14.201Z</time></trkpt><trkpt lat="39.5746978" lon="21.0746069"><ele>747.0</ele><time>2026-04-27T07:35:15.2Z</time></trkpt><trkpt lat="39.5746726" lon="21.0747966"><ele>748.75</ele><time>2026-04-27T07:35:16.201Z</time></trkpt><trkpt lat="39.5746542" lon="21.0749651"><ele>750.5</ele><time>2026-04-27T07:35:17.2Z</time></trkpt><trkpt lat="39.5746317" lon="21.0751134"><ele>752.25</ele><time>2026-04-27T07:35:18.2Z</time></trkpt><trkpt lat="39.5745789" lon="21.0752355"><ele>754.0</ele><time>2026-04-27T07:35:19.2Z</time></trkpt><trkpt lat="39.574503" lon="21.0753268"><ele>754.0</ele><time>2026-04-27T07:35:20.2Z</time></trkpt><trkpt lat="39.5744095" lon="21.0753734"><ele>754.0</ele><time>2026-04-27T07:35:21.2Z</time></trkpt><trkpt lat="39.5743199" lon="21.0754254"><ele>754.0</ele><time>2026-04-27T07:35:22.201Z</time></trkpt><trkpt lat="39.5741316" lon="21.0753424"><ele>754.0</ele><time>2026-04-27T07:35:23.201Z</time></trkpt><trkpt lat="39.5740054" lon="21.0753075"><ele>754.0</ele><time>2026-04-27T07:35:24.2Z</time></trkpt><trkpt lat="39.5738915" lon="21.0752526"><ele>754.0</ele><time>2026-04-27T07:35:25.2Z</time></trkpt><trkpt lat="39.573787" lon="21.0751704"><ele>754.0</ele><time>2026-04-27T07:35:26.2Z</time></trkpt><trkpt lat="39.5736886" lon="21.0750279"><ele>754.0</ele><time>2026-04-27T07:35:27.201Z</time></trkpt><trkpt lat="39.5736045" lon="21.0748687"><ele>756.0</ele><time>2026-04-27T07:35:28.201Z</time></trkpt><trkpt lat="39.5735403" lon="21.0747103"><ele>758.0</ele><time>2026-04-27T07:35:29.201Z</time></trkpt><trkpt lat="39.5734989" lon="21.074557"><ele>760.0</ele><time>2026-04-27T07:35:30.2Z</time></trkpt><trkpt lat="39.5734584" lon="21.0744175"><ele>762.0</ele><time>2026-04-27T07:35:31.2Z</time></trkpt><trkpt lat="39.5734012" lon="21.0743028"><ele>762.0</ele><time>2026-04-27T07:35:32.2Z</time></trkpt><trkpt lat="39.5733366" lon="21.0742196"><ele>762.0</ele><time>2026-04-27T07:35:33.201Z</time></trkpt><trkpt lat="39.5732556" lon="21.0741736"><ele>762.0</ele><time>2026-04-27T07:35:34.201Z</time></trkpt><trkpt lat="39.5731685" lon="21.0741675"><ele>762.0</ele><time>2026-04-27T07:35:35.2Z</time></trkpt><trkpt lat="39.5730902" lon="21.0741943"><ele>762.0</ele><time>2026-04-27T07:35:36.2Z</time></trkpt><trkpt lat="39.573028" lon="21.0742647"><ele>762.0</ele><time>2026-04-27T07:35:37.201Z</time></trkpt><trkpt lat="39.5729811" lon="21.0743839"><ele>762.0</ele><time>2026-04-27T07:35:38.2Z</time></trkpt><trkpt lat="39.5729461" lon="21.0745309"><ele>762.0</ele><time>2026-04-27T07:35:39.201Z</time></trkpt><trkpt lat="39.5728892" lon="21.0746822"><ele>762.0</ele><time>2026-04-27T07:35:40.2Z</time></trkpt><trkpt lat="39.5728253" lon="21.0748205"><ele>762.0</ele><time>2026-04-27T07:35:41.201Z</time></trkpt><trkpt lat="39.5726846" lon="21.0749027"><ele>765.5</ele><time>2026-04-27T07:35:42.2Z</time></trkpt><trkpt lat="39.5725607" lon="21.0749795"><ele>769.0</ele><time>2026-04-27T07:35:43.201Z</time></trkpt><trkpt lat="39.5724435" lon="21.0750857"><ele>772.5</ele><time>2026-04-27T07:35:44.2Z</time></trkpt><trkpt lat="39.5723378" lon="21.0752266"><ele>776.0</ele><time>2026-04-27T07:35:45.2Z</time></trkpt><trkpt lat="39.5722461" lon="21.0754032"><ele>776.0</ele><time>2026-04-27T07:35:46.2Z</time></trkpt><trkpt lat="39.5721804" lon="21.0755778"><ele>776.0</ele><time>2026-04-27T07:35:47.2Z</time></trkpt><trkpt lat="39.5721094" lon="21.0757376"><ele>776.0</ele><time>2026-04-27T07:35:48.201Z</time></trkpt><trkpt lat="39.5720338" lon="21.0758667"><ele>776.0</ele><time>2026-04-27T07:35:49.2Z</time></trkpt><trkpt lat="39.5719716" lon="21.0759986"><ele>776.4</ele><time>2026-04-27T07:35:50.201Z</time></trkpt><trkpt lat="39.5719457" lon="21.0761326"><ele>776.8</ele><time>2026-04-27T07:35:51.201Z</time></trkpt><trkpt lat="39.571956" lon="21.0762579"><ele>777.1999999999999</ele><time>2026-04-27T07:35:52.201Z</time></trkpt><trkpt lat="39.5719987" lon="21.0763712"><ele>777.5999999999999</ele><time>2026-04-27T07:35:53.2Z</time></trkpt><trkpt lat="39.5720826" lon="21.0764529"><ele>778.0</ele><time>2026-04-27T07:35:54.201Z</time></trkpt><trkpt lat="39.5721791" lon="21.0765171"><ele>782.0</ele><time>2026-04-27T07:35:55.2Z</time></trkpt><trkpt lat="39.5722844" lon="21.0765622"><ele>786.0</ele><time>2026-04-27T07:35:56.2Z</time></trkpt><trkpt lat="39.5723953" lon="21.0765734"><ele>790.0</ele><time>2026-04-27T07:35:57.2Z</time></trkpt><trkpt lat="39.5725056" lon="21.076555"><ele>794.0</ele><time>2026-04-27T07:35:58.201Z</time></trkpt><trkpt lat="39.5726155" lon="21.0765188"><ele>798.0</ele><time>2026-04-27T07:35:59.2Z</time></trkpt><trkpt lat="39.5727286" lon="21.0764905"><ele>798.0</ele><time>2026-04-27T07:36:00.201Z</time></trkpt><trkpt lat="39.5728302" lon="21.0765043"><ele>798.0</ele><time>2026-04-27T07:36:01.2Z</time></trkpt><trkpt lat="39.572919" lon="21.0765167"><ele>798.0</ele><time>2026-04-27T07:36:02.2Z</time></trkpt><trkpt lat="39.57301" lon="21.0765059"><ele>798.0</ele><time>2026-04-27T07:36:03.201Z</time></trkpt><trkpt lat="39.5731109" lon="21.0764558"><ele>798.0</ele><time>2026-04-27T07:36:04.2Z</time></trkpt><trkpt lat="39.5732191" lon="21.0763763"><ele>799.0</ele><time>2026-04-27T07:36:05.201Z</time></trkpt><trkpt lat="39.5733283" lon="21.0762868"><ele>800.0</ele><time>2026-04-27T07:36:06.2Z</time></trkpt><trkpt lat="39.573432" lon="21.0762119"><ele>801.0</ele><time>2026-04-27T07:36:07.201Z</time></trkpt><trkpt lat="39.5735346" lon="21.0761699"><ele>802.0</ele><time>2026-04-27T07:36:08.201Z</time></trkpt><trkpt lat="39.5736319" lon="21.0761427"><ele>798.6</ele><time>2026-04-27T07:36:09.2Z</time></trkpt><trkpt lat="39.5737138" lon="21.0761505"><ele>795.2</ele><time>2026-04-27T07:36:10.201Z</time></trkpt><trkpt lat="39.5737815" lon="21.0761717"><ele>791.8</ele><time>2026-04-27T07:36:11.2Z</time></trkpt><trkpt lat="39.573908" lon="21.0762306"><ele>788.4</ele><time>2026-04-27T07:36:13.2Z</time></trkpt><trkpt lat="39.5739875" lon="21.0762705"><ele>785.0</ele><time>2026-04-27T07:36:14.201Z</time></trkpt><trkpt lat="39.5740748" lon="21.0763097"><ele>785.0</ele><time>2026-04-27T07:36:15.2Z</time></trkpt><trkpt lat="39.5741671" lon="21.0763436"><ele>785.0</ele><time>2026-04-27T07:36:16.201Z</time></trkpt><trkpt lat="39.5742689" lon="21.0763704"><ele>785.0</ele><time>2026-04-27T07:36:17.201Z</time></trkpt><trkpt lat="39.574389" lon="21.0763711"><ele>785.0</ele><time>2026-04-27T07:36:18.2Z</time></trkpt><trkpt lat="39.5745252" lon="21.0763448"><ele>788.3333333333334</ele><time>2026-04-27T07:36:19.201Z</time></trkpt><trkpt lat="39.5746716" lon="21.0763001"><ele>791.6666666666667</ele><time>2026-04-27T07:36:20.201Z</time></trkpt><trkpt lat="39.5748191" lon="21.0762427"><ele>795.0</ele><time>2026-04-27T07:36:21.201Z</time></trkpt><trkpt lat="39.5749646" lon="21.0761717"><ele>795.0</ele><time>2026-04-27T07:36:22.2Z</time></trkpt><trkpt lat="39.5750958" lon="21.076091"><ele>795.0</ele><time>2026-04-27T07:36:23.201Z</time></trkpt><trkpt lat="39.5752114" lon="21.0760111"><ele>795.0</ele><time>2026-04-27T07:36:24.201Z</time></trkpt><trkpt lat="39.5753143" lon="21.0759339"><ele>795.0</ele><time>2026-04-27T07:36:25.2Z</time></trkpt><trkpt lat="39.5754085" lon="21.0758484"><ele>794.0</ele><time>2026-04-27T07:36:26.201Z</time></trkpt><trkpt lat="39.5754916" lon="21.0757665"><ele>793.0</ele><time>2026-04-27T07:36:27.2Z</time></trkpt><trkpt lat="39.5755591" lon="21.0756928"><ele>792.0</ele><time>2026-04-27T07:36:28.2Z</time></trkpt><trkpt lat="39.5756234" lon="21.0756445"><ele>791.0</ele><time>2026-04-27T07:36:29.2Z</time></trkpt><trkpt lat="39.5756886" lon="21.0756459"><ele>790.0</ele><time>2026-04-27T07:36:30.201Z</time></trkpt><trkpt lat="39.5757204" lon="21.0757589"><ele>789.0</ele><time>2026-04-27T07:36:32.2Z</time></trkpt><trkpt lat="39.5756162" lon="21.0759134"><ele>790.5</ele><time>2026-04-27T07:36:34.2Z</time></trkpt><trkpt lat="39.5754874" lon="21.0760268"><ele>792.0</ele><time>2026-04-27T07:36:35.201Z</time></trkpt><trkpt lat="39.5753823" lon="21.0761333"><ele>793.5</ele><time>2026-04-27T07:36:36.201Z</time></trkpt><trkpt lat="39.5752821" lon="21.0762371"><ele>795.0</ele><time>2026-04-27T07:36:37.201Z</time></trkpt><trkpt lat="39.5751974" lon="21.0763312"><ele>795.0</ele><time>2026-04-27T07:36:38.2Z</time></trkpt><trkpt lat="39.575132" lon="21.0764115"><ele>795.0</ele><time>2026-04-27T07:36:39.2Z</time></trkpt><trkpt lat="39.5750832" lon="21.0764854"><ele>795.0</ele><time>2026-04-27T07:36:40.2Z</time></trkpt><trkpt lat="39.5750371" lon="21.0766024"><ele>795.0</ele><time>2026-04-27T07:36:42.2Z</time></trkpt><trkpt lat="39.5750046" lon="21.0766831"><ele>795.0</ele><time>2026-04-27T07:37:27.201Z</time></trkpt><trkpt lat="39.5749413" lon="21.0766768"><ele>795.0</ele><time>2026-04-27T07:39:15.2Z</time></trkpt><trkpt lat="39.5749894" lon="21.0767341"><ele>798.0</ele><time>2026-04-27T07:40:01.2Z</time></trkpt><trkpt lat="39.5750213" lon="21.0766631"><ele>801.0</ele><time>2026-04-27T07:40:57.201Z</time></trkpt><trkpt lat="39.5750732" lon="21.0767353"><ele>804.0</ele><time>2026-04-27T07:43:42.188Z</time></trkpt><trkpt lat="39.5751357" lon="21.0768605"><ele>807.0</ele><time>2026-04-27T07:43:44.188Z</time></trkpt><trkpt lat="39.5752468" lon="21.0769425"><ele>810.0</ele><time>2026-04-27T07:43:46.188Z</time></trkpt><trkpt lat="39.5753098" lon="21.0769626"><ele>813.0</ele><time>2026-04-27T07:43:47.189Z</time></trkpt><trkpt lat="39.5754278" lon="21.0770061"><ele>816.3333333333334</ele><time>2026-04-27T07:43:49.189Z</time></trkpt><trkpt lat="39.5754903" lon="21.0770239"><ele>819.6666666666667</ele><time>2026-04-27T07:43:50.188Z</time></trkpt><trkpt lat="39.5755573" lon="21.0770593"><ele>823.0</ele><time>2026-04-27T07:43:51.188Z</time></trkpt><trkpt lat="39.575621" lon="21.0771207"><ele>826.3333333333334</ele><time>2026-04-27T07:43:52.189Z</time></trkpt><trkpt lat="39.5756737" lon="21.0772093"><ele>829.6666666666667</ele><time>2026-04-27T07:43:53.188Z</time></trkpt><trkpt lat="39.5757016" lon="21.0773108"><ele>833.0</ele><time>2026-04-27T07:43:54.189Z</time></trkpt><trkpt lat="39.5757272" lon="21.0774117"><ele>832.8333333333334</ele><time>2026-04-27T07:43:55.188Z</time></trkpt><trkpt lat="39.5757564" lon="21.0775122"><ele>832.6666666666667</ele><time>2026-04-27T07:43:56.188Z</time></trkpt><trkpt lat="39.5757944" lon="21.0776053"><ele>832.5</ele><time>2026-04-27T07:43:57.188Z</time></trkpt><trkpt lat="39.5758369" lon="21.077703"><ele>832.3333333333333</ele><time>2026-04-27T07:43:58.188Z</time></trkpt><trkpt lat="39.5758835" lon="21.0777944"><ele>832.1666666666666</ele><time>2026-04-27T07:43:59.189Z</time></trkpt><trkpt lat="39.5759305" lon="21.0778891"><ele>832.0</ele><time>2026-04-27T07:44:00.189Z</time></trkpt><trkpt lat="39.5759701" lon="21.0779873"><ele>832.0</ele><time>2026-04-27T07:44:01.189Z</time></trkpt><trkpt lat="39.5759933" lon="21.078077"><ele>832.0</ele><time>2026-04-27T07:44:02.189Z</time></trkpt><trkpt lat="39.5760009" lon="21.0781704"><ele>832.0</ele><time>2026-04-27T07:44:03.188Z</time></trkpt><trkpt lat="39.5759801" lon="21.0782583"><ele>832.0</ele><time>2026-04-27T07:44:04.188Z</time></trkpt><trkpt lat="39.5759415" lon="21.0783325"><ele>832.0</ele><time>2026-04-27T07:44:05.188Z</time></trkpt><trkpt lat="39.5758808" lon="21.078391"><ele>832.0</ele><time>2026-04-27T07:44:06.189Z</time></trkpt><trkpt lat="39.5758091" lon="21.0784435"><ele>832.0</ele><time>2026-04-27T07:44:07.189Z</time></trkpt><trkpt lat="39.5757294" lon="21.0784872"><ele>832.3333333333333</ele><time>2026-04-27T07:44:08.188Z</time></trkpt><trkpt lat="39.5756538" lon="21.0785192"><ele>832.6666666666666</ele><time>2026-04-27T07:44:09.188Z</time></trkpt><trkpt lat="39.5755737" lon="21.0785561"><ele>833.0</ele><time>2026-04-27T07:44:10.189Z</time></trkpt><trkpt lat="39.5754914" lon="21.0785842"><ele>833.3333333333333</ele><time>2026-04-27T07:44:11.189Z</time></trkpt><trkpt lat="39.5754052" lon="21.078611"><ele>833.6666666666666</ele><time>2026-04-27T07:44:12.188Z</time></trkpt><trkpt lat="39.5753162" lon="21.0786266"><ele>834.0</ele><time>2026-04-27T07:44:13.188Z</time></trkpt><trkpt lat="39.5752195" lon="21.078645"><ele>831.1666666666666</ele><time>2026-04-27T07:44:14.189Z</time></trkpt><trkpt lat="39.5751338" lon="21.0786766"><ele>828.3333333333333</ele><time>2026-04-27T07:44:15.188Z</time></trkpt><trkpt lat="39.5750567" lon="21.0787241"><ele>825.5</ele><time>2026-04-27T07:44:16.188Z</time></trkpt><trkpt lat="39.5749833" lon="21.0787718"><ele>822.6666666666666</ele><time>2026-04-27T07:44:17.189Z</time></trkpt><trkpt lat="39.5749087" lon="21.0788225"><ele>819.8333333333333</ele><time>2026-04-27T07:44:18.189Z</time></trkpt><trkpt lat="39.5748257" lon="21.0788821"><ele>817.0</ele><time>2026-04-27T07:44:19.188Z</time></trkpt><trkpt lat="39.5747407" lon="21.0789286"><ele>817.0</ele><time>2026-04-27T07:44:20.188Z</time></trkpt><trkpt lat="39.5746482" lon="21.0789776"><ele>817.0</ele><time>2026-04-27T07:44:21.189Z</time></trkpt><trkpt lat="39.5745577" lon="21.0790184"><ele>817.0</ele><time>2026-04-27T07:44:22.188Z</time></trkpt><trkpt lat="39.5744669" lon="21.0790518"><ele>817.0</ele><time>2026-04-27T07:44:23.188Z</time></trkpt><trkpt lat="39.5743758" lon="21.079094"><ele>817.0</ele><time>2026-04-27T07:44:24.189Z</time></trkpt><trkpt lat="39.574285" lon="21.0791318"><ele>821.2</ele><time>2026-04-27T07:44:25.188Z</time></trkpt><trkpt lat="39.5741908" lon="21.0791809"><ele>825.4000000000001</ele><time>2026-04-27T07:44:26.188Z</time></trkpt><trkpt lat="39.5740909" lon="21.0792364"><ele>829.5999999999999</ele><time>2026-04-27T07:44:27.189Z</time></trkpt><trkpt lat="39.5739868" lon="21.0793027"><ele>833.8</ele><time>2026-04-27T07:44:28.188Z</time></trkpt><trkpt lat="39.5738874" lon="21.0793762"><ele>838.0</ele><time>2026-04-27T07:44:29.188Z</time></trkpt><trkpt lat="39.5737927" lon="21.0794495"><ele>838.0</ele><time>2026-04-27T07:44:30.188Z</time></trkpt><trkpt lat="39.5737101" lon="21.0795118"><ele>838.0</ele><time>2026-04-27T07:44:31.189Z</time></trkpt><trkpt lat="39.5736286" lon="21.0795765"><ele>838.0</ele><time>2026-04-27T07:44:32.189Z</time></trkpt><trkpt lat="39.5735507" lon="21.0796347"><ele>838.0</ele><time>2026-04-27T07:44:33.189Z</time></trkpt><trkpt lat="39.5734723" lon="21.0797009"><ele>838.0</ele><time>2026-04-27T07:44:34.188Z</time></trkpt><trkpt lat="39.5734074" lon="21.0797763"><ele>838.5999999999999</ele><time>2026-04-27T07:44:35.188Z</time></trkpt><trkpt lat="39.5733595" lon="21.0798788"><ele>839.1999999999999</ele><time>2026-04-27T07:44:36.189Z</time></trkpt><trkpt lat="39.5733307" lon="21.0799909"><ele>839.8</ele><time>2026-04-27T07:44:37.189Z</time></trkpt><trkpt lat="39.5733278" lon="21.0801213"><ele>840.4</ele><time>2026-04-27T07:44:38.189Z</time></trkpt><trkpt lat="39.5733485" lon="21.0802381"><ele>841.0</ele><time>2026-04-27T07:44:39.188Z</time></trkpt><trkpt lat="39.5733946" lon="21.0803325"><ele>841.0</ele><time>2026-04-27T07:44:40.189Z</time></trkpt><trkpt lat="39.5734601" lon="21.0804048"><ele>841.0</ele><time>2026-04-27T07:44:41.188Z</time></trkpt><trkpt lat="39.5735484" lon="21.0804456"><ele>841.0</ele><time>2026-04-27T07:44:42.188Z</time></trkpt><trkpt lat="39.5736478" lon="21.0804522"><ele>841.0</ele><time>2026-04-27T07:44:43.189Z</time></trkpt><trkpt lat="39.5737561" lon="21.0804428"><ele>841.0</ele><time>2026-04-27T07:44:44.189Z</time></trkpt><trkpt lat="39.5738787" lon="21.0804142"><ele>846.3333333333333</ele><time>2026-04-27T07:44:45.188Z</time></trkpt><trkpt lat="39.5740223" lon="21.0803662"><ele>851.6666666666667</ele><time>2026-04-27T07:44:46.188Z</time></trkpt><trkpt lat="39.5741837" lon="21.0803142"><ele>857.0</ele><time>2026-04-27T07:44:47.189Z</time></trkpt><trkpt lat="39.5743507" lon="21.0802521"><ele>857.0</ele><time>2026-04-27T07:44:48.188Z</time></trkpt><trkpt lat="39.5745128" lon="21.0801875"><ele>857.0</ele><time>2026-04-27T07:44:49.188Z</time></trkpt><trkpt lat="39.574659" lon="21.0801306"><ele>857.0</ele><time>2026-04-27T07:44:50.189Z</time></trkpt><trkpt lat="39.5747936" lon="21.0800788"><ele>857.4000000000001</ele><time>2026-04-27T07:44:51.188Z</time></trkpt><trkpt lat="39.5749056" lon="21.0800442"><ele>857.8000000000001</ele><time>2026-04-27T07:44:52.189Z</time></trkpt><trkpt lat="39.5750079" lon="21.080036"><ele>858.2</ele><time>2026-04-27T07:44:53.189Z</time></trkpt><trkpt lat="39.5751012" lon="21.0800697"><ele>858.6</ele><time>2026-04-27T07:44:54.188Z</time></trkpt><trkpt lat="39.5751699" lon="21.0801619"><ele>859.0</ele><time>2026-04-27T07:44:55.189Z</time></trkpt><trkpt lat="39.5752174" lon="21.0803309"><ele>859.0</ele><time>2026-04-27T07:44:56.189Z</time></trkpt><trkpt lat="39.5752534" lon="21.0805057"><ele>859.0</ele><time>2026-04-27T07:44:57.189Z</time></trkpt><trkpt lat="39.5752507" lon="21.0806749"><ele>859.0</ele><time>2026-04-27T07:44:58.188Z</time></trkpt><trkpt lat="39.5752196" lon="21.0808326"><ele>859.0</ele><time>2026-04-27T07:44:59.189Z</time></trkpt><trkpt lat="39.5751778" lon="21.0809676"><ele>859.0</ele><time>2026-04-27T07:45:00.189Z</time></trkpt><trkpt lat="39.5751408" lon="21.0810917"><ele>859.0000000000001</ele><time>2026-04-27T07:45:01.188Z</time></trkpt><trkpt lat="39.5751431" lon="21.0812118"><ele>859.0000000000001</ele><time>2026-04-27T07:45:02.189Z</time></trkpt><trkpt lat="39.5751829" lon="21.0813274"><ele>859.0</ele><time>2026-04-27T07:45:03.188Z</time></trkpt><trkpt lat="39.5752358" lon="21.0814242"><ele>859.0</ele><time>2026-04-27T07:45:04.188Z</time></trkpt><trkpt lat="39.5752731" lon="21.0815189"><ele>860.0</ele><time>2026-04-27T07:45:05.188Z</time></trkpt><trkpt lat="39.5752757" lon="21.0816012"><ele>861.0000000000001</ele><time>2026-04-27T07:45:06.189Z</time></trkpt><trkpt lat="39.5751627" lon="21.0816993"><ele>862.0000000000001</ele><time>2026-04-27T07:45:08.188Z</time></trkpt><trkpt lat="39.5750745" lon="21.081681"><ele>863.0</ele><time>2026-04-27T07:45:09.189Z</time></trkpt><trkpt lat="39.5749955" lon="21.0817133"><ele>864.0</ele><time>2026-04-27T07:45:10.189Z</time></trkpt><trkpt lat="39.5749253" lon="21.0817927"><ele>864.0</ele><time>2026-04-27T07:45:11.189Z</time></trkpt><trkpt lat="39.5748843" lon="21.081888"><ele>864.0000000000001</ele><time>2026-04-27T07:45:12.189Z</time></trkpt><trkpt lat="39.5748754" lon="21.0820062"><ele>864.0000000000001</ele><time>2026-04-27T07:45:13.188Z</time></trkpt><trkpt lat="39.5749069" lon="21.0821504"><ele>864.0</ele><time>2026-04-27T07:45:14.188Z</time></trkpt><trkpt lat="39.5749687" lon="21.0822927"><ele>864.0</ele><time>2026-04-27T07:45:15.188Z</time></trkpt><trkpt lat="39.5750336" lon="21.0824167"><ele>865.0</ele><time>2026-04-27T07:45:16.189Z</time></trkpt><trkpt lat="39.5750697" lon="21.0825393"><ele>866.0</ele><time>2026-04-27T07:45:17.189Z</time></trkpt><trkpt lat="39.575089" lon="21.0826568"><ele>867.0</ele><time>2026-04-27T07:45:18.188Z</time></trkpt><trkpt lat="39.5750962" lon="21.0827641"><ele>868.0</ele><time>2026-04-27T07:45:19.189Z</time></trkpt><trkpt lat="39.5750957" lon="21.0828665"><ele>869.0</ele><time>2026-04-27T07:45:20.188Z</time></trkpt><trkpt lat="39.575097" lon="21.0829754"><ele>870.0</ele><time>2026-04-27T07:45:21.189Z</time></trkpt><trkpt lat="39.5750912" lon="21.0830794"><ele>870.0</ele><time>2026-04-27T07:45:22.188Z</time></trkpt><trkpt lat="39.5750732" lon="21.0831796"><ele>870.0</ele><time>2026-04-27T07:45:23.189Z</time></trkpt><trkpt lat="39.57504" lon="21.083263"><ele>870.0</ele><time>2026-04-27T07:45:24.189Z</time></trkpt><trkpt lat="39.574977" lon="21.0833226"><ele>870.0</ele><time>2026-04-27T07:45:25.189Z</time></trkpt><trkpt lat="39.5749009" lon="21.0833567"><ele>870.0</ele><time>2026-04-27T07:45:26.189Z</time></trkpt><trkpt lat="39.5748124" lon="21.0833564"><ele>870.0</ele><time>2026-04-27T07:45:27.188Z</time></trkpt><trkpt lat="39.5747289" lon="21.0833381"><ele>870.0000000000001</ele><time>2026-04-27T07:45:28.188Z</time></trkpt><trkpt lat="39.5746575" lon="21.0832923"><ele>870.0</ele><time>2026-04-27T07:45:29.189Z</time></trkpt><trkpt lat="39.5746002" lon="21.083228"><ele>870.0</ele><time>2026-04-27T07:45:30.189Z</time></trkpt><trkpt lat="39.5745519" lon="21.0831644"><ele>870.0</ele><time>2026-04-27T07:45:31.189Z</time></trkpt><trkpt lat="39.574505" lon="21.0831067"><ele>870.0</ele><time>2026-04-27T07:45:32.189Z</time></trkpt><trkpt lat="39.5744444" lon="21.083075"><ele>870.0000000000001</ele><time>2026-04-27T07:45:33.188Z</time></trkpt><trkpt lat="39.5743805" lon="21.0830735"><ele>870.0</ele><time>2026-04-27T07:45:34.189Z</time></trkpt><trkpt lat="39.5743117" lon="21.0831078"><ele>869.2</ele><time>2026-04-27T07:45:35.189Z</time></trkpt><trkpt lat="39.5742354" lon="21.0831723"><ele>868.4</ele><time>2026-04-27T07:45:36.188Z</time></trkpt><trkpt lat="39.5741618" lon="21.0832571"><ele>867.5999999999999</ele><time>2026-04-27T07:45:37.189Z</time></trkpt><trkpt lat="39.5740976" lon="21.0833483"><ele>866.8</ele><time>2026-04-27T07:45:38.188Z</time></trkpt><trkpt lat="39.5740392" lon="21.0834518"><ele>866.0</ele><time>2026-04-27T07:45:39.189Z</time></trkpt><trkpt lat="39.5739971" lon="21.0835548"><ele>866.0000000000001</ele><time>2026-04-27T07:45:40.189Z</time></trkpt><trkpt lat="39.5739617" lon="21.0836577"><ele>866.0</ele><time>2026-04-27T07:45:41.189Z</time></trkpt><trkpt lat="39.5739418" lon="21.0837612"><ele>866.0</ele><time>2026-04-27T07:45:42.189Z</time></trkpt><trkpt lat="39.5739368" lon="21.0838797"><ele>866.0</ele><time>2026-04-27T07:45:43.189Z</time></trkpt><trkpt lat="39.5739528" lon="21.0840028"><ele>866.0000000000001</ele><time>2026-04-27T07:45:44.188Z</time></trkpt><trkpt lat="39.5739809" lon="21.084116"><ele>866.0</ele><time>2026-04-27T07:45:45.189Z</time></trkpt><trkpt lat="39.5740042" lon="21.0842072"><ele>867.5</ele><time>2026-04-27T07:45:46.189Z</time></trkpt><trkpt lat="39.574023" lon="21.0842909"><ele>869.0</ele><time>2026-04-27T07:45:47.188Z</time></trkpt><trkpt lat="39.5739951" lon="21.0844239"><ele>870.5</ele><time>2026-04-27T07:45:49.189Z</time></trkpt><trkpt lat="39.5738878" lon="21.0844438"><ele>872.0</ele><time>2026-04-27T07:45:51.189Z</time></trkpt><trkpt lat="39.5737362" lon="21.0842813"><ele>867.6</ele><time>2026-04-27T07:45:53.188Z</time></trkpt><trkpt lat="39.5736615" lon="21.0841748"><ele>863.2</ele><time>2026-04-27T07:45:54.188Z</time></trkpt><trkpt lat="39.573598" lon="21.0840858"><ele>858.8</ele><time>2026-04-27T07:45:55.188Z</time></trkpt><trkpt lat="39.5735496" lon="21.084001"><ele>854.4</ele><time>2026-04-27T07:45:56.189Z</time></trkpt><trkpt lat="39.573516" lon="21.0839092"><ele>850.0</ele><time>2026-04-27T07:45:57.189Z</time></trkpt><trkpt lat="39.5734999" lon="21.0837903"><ele>849.9999999999999</ele><time>2026-04-27T07:45:58.188Z</time></trkpt><trkpt lat="39.5734887" lon="21.0836681"><ele>850.0</ele><time>2026-04-27T07:45:59.189Z</time></trkpt><trkpt lat="39.5734796" lon="21.0835552"><ele>850.0</ele><time>2026-04-27T07:46:00.189Z</time></trkpt><trkpt lat="39.5734644" lon="21.0834368"><ele>850.0</ele><time>2026-04-27T07:46:01.189Z</time></trkpt><trkpt lat="39.5734503" lon="21.0833233"><ele>849.9999999999999</ele><time>2026-04-27T07:46:02.189Z</time></trkpt><trkpt lat="39.5734298" lon="21.0832218"><ele>850.0</ele><time>2026-04-27T07:46:03.189Z</time></trkpt><trkpt lat="39.5734162" lon="21.0831183"><ele>847.4999999999999</ele><time>2026-04-27T07:46:04.188Z</time></trkpt><trkpt lat="39.5734159" lon="21.0830193"><ele>845.0</ele><time>2026-04-27T07:46:05.189Z</time></trkpt><trkpt lat="39.5734058" lon="21.0829345"><ele>842.5</ele><time>2026-04-27T07:46:06.188Z</time></trkpt><trkpt lat="39.5734159" lon="21.0828431"><ele>840.0</ele><time>2026-04-27T07:46:07.189Z</time></trkpt><trkpt lat="39.5734223" lon="21.0827615"><ele>837.4999999999999</ele><time>2026-04-27T07:46:08.188Z</time></trkpt><trkpt lat="39.5733678" lon="21.0826475"><ele>835.0</ele><time>2026-04-27T07:46:10.188Z</time></trkpt><trkpt lat="39.5732424" lon="21.0826768"><ele>835.0</ele><time>2026-04-27T07:46:12.188Z</time></trkpt><trkpt lat="39.57318" lon="21.0827528"><ele>835.0</ele><time>2026-04-27T07:46:13.189Z</time></trkpt><trkpt lat="39.5731272" lon="21.0828597"><ele>835.0</ele><time>2026-04-27T07:46:14.189Z</time></trkpt><trkpt lat="39.573087" lon="21.0829711"><ele>835.0</ele><time>2026-04-27T07:46:15.189Z</time></trkpt><trkpt lat="39.5730533" lon="21.083086"><ele>835.0</ele><time>2026-04-27T07:46:16.188Z</time></trkpt><trkpt lat="39.573024" lon="21.0831942"><ele>837.4999999999999</ele><time>2026-04-27T07:46:17.189Z</time></trkpt><trkpt lat="39.5730024" lon="21.0833067"><ele>840.0</ele><time>2026-04-27T07:46:18.189Z</time></trkpt><trkpt lat="39.5729779" lon="21.0834185"><ele>842.5</ele><time>2026-04-27T07:46:19.188Z</time></trkpt><trkpt lat="39.5729546" lon="21.0835207"><ele>845.0</ele><time>2026-04-27T07:46:20.189Z</time></trkpt><trkpt lat="39.5729339" lon="21.0836156"><ele>847.4999999999999</ele><time>2026-04-27T07:46:21.189Z</time></trkpt><trkpt lat="39.5729223" lon="21.0837101"><ele>850.0</ele><time>2026-04-27T07:46:22.188Z</time></trkpt><trkpt lat="39.5729092" lon="21.0838036"><ele>849.9999999999999</ele><time>2026-04-27T07:46:23.188Z</time></trkpt><trkpt lat="39.5728981" lon="21.0839015"><ele>850.0</ele><time>2026-04-27T07:46:24.188Z</time></trkpt><trkpt lat="39.5728966" lon="21.084003"><ele>850.0</ele><time>2026-04-27T07:46:25.189Z</time></trkpt><trkpt lat="39.5729095" lon="21.0841112"><ele>850.0</ele><time>2026-04-27T07:46:26.188Z</time></trkpt><trkpt lat="39.5729326" lon="21.0842189"><ele>849.9999999999999</ele><time>2026-04-27T07:46:27.188Z</time></trkpt><trkpt lat="39.5729557" lon="21.0843348"><ele>850.0</ele><time>2026-04-27T07:46:28.189Z</time></trkpt><trkpt lat="39.5729821" lon="21.0844547"><ele>849.6</ele><time>2026-04-27T07:46:29.188Z</time></trkpt><trkpt lat="39.5730166" lon="21.0845725"><ele>849.2</ele><time>2026-04-27T07:46:30.189Z</time></trkpt><trkpt lat="39.5730511" lon="21.0846969"><ele>848.8</ele><time>2026-04-27T07:46:31.188Z</time></trkpt><trkpt lat="39.5730841" lon="21.0848273"><ele>848.4</ele><time>2026-04-27T07:46:32.188Z</time></trkpt><trkpt lat="39.5731046" lon="21.0849444"><ele>848.0</ele><time>2026-04-27T07:46:33.188Z</time></trkpt><trkpt lat="39.5731115" lon="21.0850598"><ele>847.1666666666667</ele><time>2026-04-27T07:46:34.188Z</time></trkpt><trkpt lat="39.5731018" lon="21.0851844"><ele>846.3333333333334</ele><time>2026-04-27T07:46:35.188Z</time></trkpt><trkpt lat="39.5730974" lon="21.0852977"><ele>845.5</ele><time>2026-04-27T07:46:36.189Z</time></trkpt><trkpt lat="39.5731032" lon="21.0854097"><ele>844.6666666666667</ele><time>2026-04-27T07:46:37.189Z</time></trkpt><trkpt lat="39.5730979" lon="21.0855128"><ele>843.8333333333334</ele><time>2026-04-27T07:46:38.188Z</time></trkpt><trkpt lat="39.5730814" lon="21.0856141"><ele>843.0</ele><time>2026-04-27T07:46:39.189Z</time></trkpt><trkpt lat="39.5730406" lon="21.0857188"><ele>844.0</ele><time>2026-04-27T07:46:40.189Z</time></trkpt><trkpt lat="39.5729629" lon="21.0857897"><ele>845.0</ele><time>2026-04-27T07:46:41.189Z</time></trkpt><trkpt lat="39.5728689" lon="21.0858384"><ele>846.0</ele><time>2026-04-27T07:46:42.188Z</time></trkpt><trkpt lat="39.5727742" lon="21.0858917"><ele>847.0</ele><time>2026-04-27T07:46:43.188Z</time></trkpt><trkpt lat="39.572693" lon="21.0859715"><ele>848.0</ele><time>2026-04-27T07:46:44.188Z</time></trkpt><trkpt lat="39.5726194" lon="21.08606"><ele>842.8</ele><time>2026-04-27T07:46:45.188Z</time></trkpt><trkpt lat="39.5725451" lon="21.0861487"><ele>837.5999999999999</ele><time>2026-04-27T07:46:46.189Z</time></trkpt><trkpt lat="39.5724589" lon="21.0862157"><ele>832.4000000000001</ele><time>2026-04-27T07:46:47.189Z</time></trkpt><trkpt lat="39.5723728" lon="21.0862661"><ele>827.2</ele><time>2026-04-27T07:46:48.189Z</time></trkpt><trkpt lat="39.5722939" lon="21.0863043"><ele>822.0</ele><time>2026-04-27T07:46:49.189Z</time></trkpt><trkpt lat="39.5722302" lon="21.0863546"><ele>822.0</ele><time>2026-04-27T07:46:50.188Z</time></trkpt><trkpt lat="39.5721677" lon="21.0864932"><ele>822.0</ele><time>2026-04-27T07:46:52.188Z</time></trkpt><trkpt lat="39.5721722" lon="21.0866555"><ele>822.0</ele><time>2026-04-27T07:46:54.189Z</time></trkpt><trkpt lat="39.5721684" lon="21.0867421"><ele>822.0</ele><time>2026-04-27T07:46:55.188Z</time></trkpt><trkpt lat="39.5721478" lon="21.0868252"><ele>822.0</ele><time>2026-04-27T07:46:56.189Z</time></trkpt><trkpt lat="39.572112" lon="21.0868981"><ele>823.2857142857142</ele><time>2026-04-27T07:46:57.189Z</time></trkpt><trkpt lat="39.5720545" lon="21.0869574"><ele>824.5714285714286</ele><time>2026-04-27T07:46:58.189Z</time></trkpt><trkpt lat="39.5720002" lon="21.0870174"><ele>825.8571428571429</ele><time>2026-04-27T07:46:59.188Z</time></trkpt><trkpt lat="39.571953" lon="21.0870979"><ele>827.1428571428571</ele><time>2026-04-27T07:47:00.188Z</time></trkpt><trkpt lat="39.5719179" lon="21.0871801"><ele>828.4285714285714</ele><time>2026-04-27T07:47:01.189Z</time></trkpt><trkpt lat="39.5718871" lon="21.0872549"><ele>829.7142857142857</ele><time>2026-04-27T07:47:02.188Z</time></trkpt><trkpt lat="39.5718724" lon="21.0873364"><ele>831.0</ele><time>2026-04-27T07:47:03.189Z</time></trkpt><trkpt lat="39.5718723" lon="21.0874184"><ele>831.1666666666666</ele><time>2026-04-27T07:47:04.188Z</time></trkpt><trkpt lat="39.5718937" lon="21.0874983"><ele>831.3333333333333</ele><time>2026-04-27T07:47:05.189Z</time></trkpt><trkpt lat="39.5719379" lon="21.087573"><ele>831.5</ele><time>2026-04-27T07:47:06.189Z</time></trkpt><trkpt lat="39.5719862" lon="21.0876446"><ele>831.6666666666666</ele><time>2026-04-27T07:47:07.189Z</time></trkpt><trkpt lat="39.5720381" lon="21.0877316"><ele>831.8333333333333</ele><time>2026-04-27T07:47:08.189Z</time></trkpt><trkpt lat="39.572083" lon="21.0878397"><ele>832.0</ele><time>2026-04-27T07:47:09.189Z</time></trkpt><trkpt lat="39.572107" lon="21.087956"><ele>832.0</ele><time>2026-04-27T07:47:10.188Z</time></trkpt><trkpt lat="39.5721225" lon="21.0880736"><ele>832.0</ele><time>2026-04-27T07:47:11.189Z</time></trkpt><trkpt lat="39.5721535" lon="21.0881927"><ele>832.0</ele><time>2026-04-27T07:47:12.188Z</time></trkpt><trkpt lat="39.5721798" lon="21.0883041"><ele>832.0</ele><time>2026-04-27T07:47:13.189Z</time></trkpt><trkpt lat="39.5722146" lon="21.0884082"><ele>832.0</ele><time>2026-04-27T07:47:14.189Z</time></trkpt><trkpt lat="39.5722511" lon="21.0885166"><ele>830.8</ele><time>2026-04-27T07:47:15.188Z</time></trkpt><trkpt lat="39.5723035" lon="21.0886123"><ele>829.6</ele><time>2026-04-27T07:47:16.189Z</time></trkpt><trkpt lat="39.5723587" lon="21.0887132"><ele>828.4</ele><time>2026-04-27T07:47:17.189Z</time></trkpt><trkpt lat="39.5724113" lon="21.0888279"><ele>827.1999999999999</ele><time>2026-04-27T07:47:18.189Z</time></trkpt><trkpt lat="39.5724625" lon="21.0889439"><ele>826.0</ele><time>2026-04-27T07:47:19.189Z</time></trkpt><trkpt lat="39.5725066" lon="21.0890626"><ele>824.8333333333333</ele><time>2026-04-27T07:47:20.188Z</time></trkpt><trkpt lat="39.5725551" lon="21.0891811"><ele>823.6666666666666</ele><time>2026-04-27T07:47:21.188Z</time></trkpt><trkpt lat="39.5725953" lon="21.0892902"><ele>822.5</ele><time>2026-04-27T07:47:22.188Z</time></trkpt><trkpt lat="39.5726346" lon="21.0894013"><ele>821.3333333333333</ele><time>2026-04-27T07:47:23.188Z</time></trkpt><trkpt lat="39.5726684" lon="21.0894968"><ele>820.1666666666666</ele><time>2026-04-27T07:47:24.189Z</time></trkpt><trkpt lat="39.5726863" lon="21.0895869"><ele>819.0</ele><time>2026-04-27T07:47:25.189Z</time></trkpt><trkpt lat="39.5726754" lon="21.0896839"><ele>819.0</ele><time>2026-04-27T07:47:26.188Z</time></trkpt><trkpt lat="39.5725977" lon="21.0897698"><ele>819.0</ele><time>2026-04-27T07:47:27.189Z</time></trkpt><trkpt lat="39.5725089" lon="21.0898617"><ele>819.0</ele><time>2026-04-27T07:47:28.189Z</time></trkpt><trkpt lat="39.5724233" lon="21.0899556"><ele>819.0</ele><time>2026-04-27T07:47:29.188Z</time></trkpt><trkpt lat="39.5723415" lon="21.0900486"><ele>819.0</ele><time>2026-04-27T07:47:30.188Z</time></trkpt><trkpt lat="39.5722632" lon="21.0901413"><ele>822.0</ele><time>2026-04-27T07:47:31.189Z</time></trkpt><trkpt lat="39.5721958" lon="21.0902346"><ele>825.0</ele><time>2026-04-27T07:47:32.188Z</time></trkpt><trkpt lat="39.572143" lon="21.0903243"><ele>828.0</ele><time>2026-04-27T07:47:33.188Z</time></trkpt><trkpt lat="39.5721066" lon="21.0904321"><ele>831.0</ele><time>2026-04-27T07:47:34.189Z</time></trkpt><trkpt lat="39.572082" lon="21.0905531"><ele>834.0</ele><time>2026-04-27T07:47:35.189Z</time></trkpt><trkpt lat="39.5720681" lon="21.0906972"><ele>837.8000000000001</ele><time>2026-04-27T07:47:36.188Z</time></trkpt><trkpt lat="39.5720641" lon="21.0908471"><ele>841.6</ele><time>2026-04-27T07:47:37.188Z</time></trkpt><trkpt lat="39.5720718" lon="21.0910007"><ele>845.4</ele><time>2026-04-27T07:47:38.189Z</time></trkpt><trkpt lat="39.5720752" lon="21.0911448"><ele>849.2</ele><time>2026-04-27T07:47:39.188Z</time></trkpt><trkpt lat="39.5720685" lon="21.0912674"><ele>853.0</ele><time>2026-04-27T07:47:40.188Z</time></trkpt><trkpt lat="39.572037" lon="21.0913793"><ele>847.5999999999999</ele><time>2026-04-27T07:47:41.188Z</time></trkpt><trkpt lat="39.5719857" lon="21.0914881"><ele>842.1999999999999</ele><time>2026-04-27T07:47:42.189Z</time></trkpt><trkpt lat="39.5719113" lon="21.091575"><ele>836.8</ele><time>2026-04-27T07:47:43.188Z</time></trkpt><trkpt lat="39.5718224" lon="21.0916501"><ele>831.4</ele><time>2026-04-27T07:47:44.189Z</time></trkpt><trkpt lat="39.5717328" lon="21.0917207"><ele>826.0</ele><time>2026-04-27T07:47:45.189Z</time></trkpt><trkpt lat="39.5716472" lon="21.0918022"><ele>826.0</ele><time>2026-04-27T07:47:46.188Z</time></trkpt><trkpt lat="39.5715751" lon="21.0918965"><ele>826.0</ele><time>2026-04-27T07:47:47.188Z</time></trkpt><trkpt lat="39.5715202" lon="21.0920057"><ele>826.0</ele><time>2026-04-27T07:47:48.188Z</time></trkpt><trkpt lat="39.5714908" lon="21.0921253"><ele>826.0</ele><time>2026-04-27T07:47:49.189Z</time></trkpt><trkpt lat="39.5714822" lon="21.0922629"><ele>826.0</ele><time>2026-04-27T07:47:50.189Z</time></trkpt><trkpt lat="39.5714857" lon="21.0924039"><ele>830.0</ele><time>2026-04-27T07:47:51.188Z</time></trkpt><trkpt lat="39.5714885" lon="21.0925431"><ele>834.0</ele><time>2026-04-27T07:47:52.188Z</time></trkpt><trkpt lat="39.5714853" lon="21.0926715"><ele>838.0</ele><time>2026-04-27T07:47:53.189Z</time></trkpt><trkpt lat="39.5714595" lon="21.0927932"><ele>842.0</ele><time>2026-04-27T07:47:54.188Z</time></trkpt><trkpt lat="39.5714165" lon="21.0929021"><ele>846.0</ele><time>2026-04-27T07:47:55.188Z</time></trkpt><trkpt lat="39.5713523" lon="21.0929964"><ele>846.0</ele><time>2026-04-27T07:47:56.188Z</time></trkpt><trkpt lat="39.5712817" lon="21.0930861"><ele>846.0</ele><time>2026-04-27T07:47:57.189Z</time></trkpt><trkpt lat="39.5712066" lon="21.0931719"><ele>846.0</ele><time>2026-04-27T07:47:58.188Z</time></trkpt><trkpt lat="39.5711448" lon="21.0932662"><ele>846.0</ele><time>2026-04-27T07:47:59.188Z</time></trkpt><trkpt lat="39.5710946" lon="21.0933665"><ele>846.0</ele><time>2026-04-27T07:48:00.188Z</time></trkpt><trkpt lat="39.5710599" lon="21.0934771"><ele>837.5999999999999</ele><time>2026-04-27T07:48:01.189Z</time></trkpt><trkpt lat="39.5710299" lon="21.0936107"><ele>829.2</ele><time>2026-04-27T07:48:02.188Z</time></trkpt><trkpt lat="39.5710088" lon="21.0937257"><ele>820.8</ele><time>2026-04-27T07:48:03.189Z</time></trkpt><trkpt lat="39.5709833" lon="21.0938426"><ele>812.4000000000001</ele><time>2026-04-27T07:48:04.188Z</time></trkpt><trkpt lat="39.5709557" lon="21.093963"><ele>804.0</ele><time>2026-04-27T07:48:05.188Z</time></trkpt><trkpt lat="39.5709308" lon="21.0940867"><ele>806.4000000000001</ele><time>2026-04-27T07:48:06.188Z</time></trkpt><trkpt lat="39.5709091" lon="21.0942314"><ele>808.8</ele><time>2026-04-27T07:48:07.189Z</time></trkpt><trkpt lat="39.5708892" lon="21.0943706"><ele>811.2</ele><time>2026-04-27T07:48:08.188Z</time></trkpt><trkpt lat="39.5708812" lon="21.094511"><ele>813.5999999999999</ele><time>2026-04-27T07:48:09.188Z</time></trkpt><trkpt lat="39.5708827" lon="21.0946489"><ele>816.0</ele><time>2026-04-27T07:48:10.189Z</time></trkpt><trkpt lat="39.5708973" lon="21.0947899"><ele>816.25</ele><time>2026-04-27T07:48:11.189Z</time></trkpt><trkpt lat="39.5709178" lon="21.0949383"><ele>816.5</ele><time>2026-04-27T07:48:12.189Z</time></trkpt><trkpt lat="39.5709395" lon="21.0950858"><ele>816.75</ele><time>2026-04-27T07:48:13.189Z</time></trkpt><trkpt lat="39.5709596" lon="21.0952305"><ele>817.0</ele><time>2026-04-27T07:48:14.189Z</time></trkpt><trkpt lat="39.5709804" lon="21.0953719"><ele>817.0</ele><time>2026-04-27T07:48:15.189Z</time></trkpt><trkpt lat="39.5709977" lon="21.0955158"><ele>817.0</ele><time>2026-04-27T07:48:16.188Z</time></trkpt><trkpt lat="39.5710135" lon="21.0956515"><ele>817.0</ele><time>2026-04-27T07:48:17.189Z</time></trkpt><trkpt lat="39.5710195" lon="21.0957824"><ele>817.0</ele><time>2026-04-27T07:48:18.189Z</time></trkpt><trkpt lat="39.5710052" lon="21.0959247"><ele>817.0</ele><time>2026-04-27T07:48:19.189Z</time></trkpt><trkpt lat="39.5709694" lon="21.0960514"><ele>815.6</ele><time>2026-04-27T07:48:20.189Z</time></trkpt><trkpt lat="39.5709235" lon="21.0961866"><ele>814.2</ele><time>2026-04-27T07:48:21.189Z</time></trkpt><trkpt lat="39.5708748" lon="21.0963176"><ele>812.8</ele><time>2026-04-27T07:48:22.189Z</time></trkpt><trkpt lat="39.5708241" lon="21.0964421"><ele>811.4</ele><time>2026-04-27T07:48:23.189Z</time></trkpt><trkpt lat="39.5707769" lon="21.0965723"><ele>810.0</ele><time>2026-04-27T07:48:24.188Z</time></trkpt><trkpt lat="39.5707402" lon="21.0967014"><ele>809.8</ele><time>2026-04-27T07:48:25.188Z</time></trkpt><trkpt lat="39.5707084" lon="21.096829"><ele>809.6</ele><time>2026-04-27T07:48:26.189Z</time></trkpt><trkpt lat="39.5706896" lon="21.0969569"><ele>809.4000000000001</ele><time>2026-04-27T07:48:27.188Z</time></trkpt><trkpt lat="39.570692" lon="21.0970766"><ele>809.2</ele><time>2026-04-27T07:48:28.189Z</time></trkpt><trkpt lat="39.570724" lon="21.0971889"><ele>809.0</ele><time>2026-04-27T07:48:29.189Z</time></trkpt><trkpt lat="39.5707763" lon="21.0972921"><ele>809.0</ele><time>2026-04-27T07:48:30.188Z</time></trkpt><trkpt lat="39.5708403" lon="21.0973918"><ele>809.0</ele><time>2026-04-27T07:48:31.188Z</time></trkpt><trkpt lat="39.5708998" lon="21.0974835"><ele>809.0</ele><time>2026-04-27T07:48:32.189Z</time></trkpt><trkpt lat="39.5709626" lon="21.0975657"><ele>809.0</ele><time>2026-04-27T07:48:33.188Z</time></trkpt><trkpt lat="39.5710408" lon="21.0976347"><ele>809.0</ele><time>2026-04-27T07:48:34.188Z</time></trkpt><trkpt lat="39.5711141" lon="21.0976842"><ele>810.1666666666667</ele><time>2026-04-27T07:48:35.188Z</time></trkpt><trkpt lat="39.5711855" lon="21.097725"><ele>811.3333333333334</ele><time>2026-04-27T07:48:36.189Z</time></trkpt><trkpt lat="39.5712715" lon="21.0977696"><ele>812.5</ele><time>2026-04-27T07:48:37.189Z</time></trkpt><trkpt lat="39.5713555" lon="21.097816"><ele>813.6666666666667</ele><time>2026-04-27T07:48:38.189Z</time></trkpt><trkpt lat="39.5714246" lon="21.0978931"><ele>814.8333333333334</ele><time>2026-04-27T07:48:39.189Z</time></trkpt><trkpt lat="39.5714616" lon="21.0980012"><ele>816.0</ele><time>2026-04-27T07:48:40.189Z</time></trkpt><trkpt lat="39.5714768" lon="21.0981145"><ele>816.0</ele><time>2026-04-27T07:48:41.189Z</time></trkpt><trkpt lat="39.5714499" lon="21.0982432"><ele>816.0</ele><time>2026-04-27T07:48:42.189Z</time></trkpt><trkpt lat="39.5714029" lon="21.0983733"><ele>816.0</ele><time>2026-04-27T07:48:43.189Z</time></trkpt><trkpt lat="39.5713566" lon="21.0985135"><ele>816.0</ele><time>2026-04-27T07:48:44.188Z</time></trkpt><trkpt lat="39.5713078" lon="21.0986491"><ele>816.0</ele><time>2026-04-27T07:48:45.189Z</time></trkpt><trkpt lat="39.5712669" lon="21.0987847"><ele>814.0</ele><time>2026-04-27T07:48:46.189Z</time></trkpt><trkpt lat="39.571239" lon="21.0989098"><ele>812.0</ele><time>2026-04-27T07:48:47.189Z</time></trkpt><trkpt lat="39.5712269" lon="21.0990281"><ele>810.0</ele><time>2026-04-27T07:48:48.189Z</time></trkpt><trkpt lat="39.571236" lon="21.0991429"><ele>808.0</ele><time>2026-04-27T07:48:49.189Z</time></trkpt><trkpt lat="39.5712927" lon="21.0992544"><ele>806.0</ele><time>2026-04-27T07:48:50.188Z</time></trkpt><trkpt lat="39.5713728" lon="21.0993476"><ele>805.0</ele><time>2026-04-27T07:48:51.188Z</time></trkpt><trkpt lat="39.5714522" lon="21.0994181"><ele>804.0</ele><time>2026-04-27T07:48:52.189Z</time></trkpt><trkpt lat="39.5715229" lon="21.0995013"><ele>803.0</ele><time>2026-04-27T07:48:53.188Z</time></trkpt><trkpt lat="39.5715719" lon="21.0996161"><ele>802.0</ele><time>2026-04-27T07:48:54.188Z</time></trkpt><trkpt lat="39.5715761" lon="21.0997457"><ele>801.0</ele><time>2026-04-27T07:48:55.188Z</time></trkpt><trkpt lat="39.5715444" lon="21.0998819"><ele>799.75</ele><time>2026-04-27T07:48:56.188Z</time></trkpt><trkpt lat="39.5714848" lon="21.1000299"><ele>798.5</ele><time>2026-04-27T07:48:57.189Z</time></trkpt><trkpt lat="39.5714279" lon="21.1001754"><ele>797.25</ele><time>2026-04-27T07:48:58.188Z</time></trkpt><trkpt lat="39.5713889" lon="21.1003387"><ele>796.0</ele><time>2026-04-27T07:48:59.188Z</time></trkpt><trkpt lat="39.5713657" lon="21.1005105"><ele>796.0</ele><time>2026-04-27T07:49:00.189Z</time></trkpt><trkpt lat="39.5713299" lon="21.1006922"><ele>796.0</ele><time>2026-04-27T07:49:01.189Z</time></trkpt><trkpt lat="39.5712855" lon="21.1008818"><ele>796.0</ele><time>2026-04-27T07:49:02.189Z</time></trkpt><trkpt lat="39.571242" lon="21.101066"><ele>796.0</ele><time>2026-04-27T07:49:03.189Z</time></trkpt><trkpt lat="39.5711873" lon="21.1012396"><ele>790.25</ele><time>2026-04-27T07:49:04.188Z</time></trkpt><trkpt lat="39.5711195" lon="21.1014127"><ele>784.5</ele><time>2026-04-27T07:49:05.189Z</time></trkpt><trkpt lat="39.5710321" lon="21.1015637"><ele>778.75</ele><time>2026-04-27T07:49:06.189Z</time></trkpt><trkpt lat="39.5709372" lon="21.1017132"><ele>773.0</ele><time>2026-04-27T07:49:07.189Z</time></trkpt><trkpt lat="39.5708483" lon="21.1018603"><ele>773.0</ele><time>2026-04-27T07:49:08.188Z</time></trkpt><trkpt lat="39.5707649" lon="21.1020005"><ele>773.0</ele><time>2026-04-27T07:49:09.189Z</time></trkpt><trkpt lat="39.5706757" lon="21.102132"><ele>773.0</ele><time>2026-04-27T07:49:10.188Z</time></trkpt><trkpt lat="39.5705858" lon="21.1022488"><ele>773.0</ele><time>2026-04-27T07:49:11.189Z</time></trkpt><trkpt lat="39.5704959" lon="21.1023552"><ele>774.25</ele><time>2026-04-27T07:49:12.189Z</time></trkpt><trkpt lat="39.5704032" lon="21.1024575"><ele>775.5</ele><time>2026-04-27T07:49:13.188Z</time></trkpt><trkpt lat="39.5703125" lon="21.1025679"><ele>776.75</ele><time>2026-04-27T07:49:14.189Z</time></trkpt><trkpt lat="39.5702376" lon="21.1027082"><ele>778.0</ele><time>2026-04-27T07:49:15.189Z</time></trkpt><trkpt lat="39.5701752" lon="21.1028602"><ele>773.75</ele><time>2026-04-27T07:49:16.189Z</time></trkpt><trkpt lat="39.5701301" lon="21.1030359"><ele>769.5</ele><time>2026-04-27T07:49:17.189Z</time></trkpt><trkpt lat="39.5701009" lon="21.103224"><ele>765.25</ele><time>2026-04-27T07:49:18.189Z</time></trkpt><trkpt lat="39.5700907" lon="21.1034128"><ele>761.0</ele><time>2026-04-27T07:49:19.189Z</time></trkpt><trkpt lat="39.5700887" lon="21.1035961"><ele>761.0</ele><time>2026-04-27T07:49:20.188Z</time></trkpt><trkpt lat="39.5700903" lon="21.1037779"><ele>761.0</ele><time>2026-04-27T07:49:21.189Z</time></trkpt><trkpt lat="39.5700848" lon="21.1039451"><ele>761.0</ele><time>2026-04-27T07:49:22.189Z</time></trkpt><trkpt lat="39.5700263" lon="21.1041137"><ele>761.0</ele><time>2026-04-27T07:49:23.189Z</time></trkpt><trkpt lat="39.5699435" lon="21.1042439"><ele>761.0</ele><time>2026-04-27T07:49:24.189Z</time></trkpt><trkpt lat="39.5698466" lon="21.1043529"><ele>761.0</ele><time>2026-04-27T07:49:25.188Z</time></trkpt><trkpt lat="39.5697417" lon="21.104452"><ele>761.0</ele><time>2026-04-27T07:49:26.188Z</time></trkpt><trkpt lat="39.5696416" lon="21.1045508"><ele>761.0</ele><time>2026-04-27T07:49:27.188Z</time></trkpt><trkpt lat="39.5695399" lon="21.1046587"><ele>755.0</ele><time>2026-04-27T07:49:28.188Z</time></trkpt><trkpt lat="39.5694969" lon="21.1047992"><ele>749.0</ele><time>2026-04-27T07:49:29.188Z</time></trkpt><trkpt lat="39.5694465" lon="21.1049635"><ele>743.0</ele><time>2026-04-27T07:49:30.189Z</time></trkpt><trkpt lat="39.5694018" lon="21.1051396"><ele>737.0</ele><time>2026-04-27T07:49:31.189Z</time></trkpt><trkpt lat="39.5693516" lon="21.1053091"><ele>737.0</ele><time>2026-04-27T07:49:32.188Z</time></trkpt><trkpt lat="39.5692996" lon="21.1054886"><ele>737.0</ele><time>2026-04-27T07:49:33.188Z</time></trkpt><trkpt lat="39.5692255" lon="21.1056544"><ele>737.0</ele><time>2026-04-27T07:49:34.189Z</time></trkpt><trkpt lat="39.5691534" lon="21.1058252"><ele>737.0</ele><time>2026-04-27T07:49:35.188Z</time></trkpt><trkpt lat="39.5690834" lon="21.106001"><ele>737.0</ele><time>2026-04-27T07:49:36.188Z</time></trkpt><trkpt lat="39.5690058" lon="21.1061701"><ele>737.0</ele><time>2026-04-27T07:49:37.188Z</time></trkpt><trkpt lat="39.5689271" lon="21.1063383"><ele>737.0</ele><time>2026-04-27T07:49:38.188Z</time></trkpt><trkpt lat="39.5688464" lon="21.1064787"><ele>737.0</ele><time>2026-04-27T07:49:39.188Z</time></trkpt><trkpt lat="39.5687758" lon="21.1065962"><ele>738.8333333333333</ele><time>2026-04-27T07:49:40.188Z</time></trkpt><trkpt lat="39.5687214" lon="21.1066867"><ele>740.6666666666666</ele><time>2026-04-27T07:49:41.188Z</time></trkpt><trkpt lat="39.5686637" lon="21.1067609"><ele>742.5</ele><time>2026-04-27T07:49:42.189Z</time></trkpt><trkpt lat="39.5686084" lon="21.1068105"><ele>744.3333333333334</ele><time>2026-04-27T07:49:43.189Z</time></trkpt><trkpt lat="39.5685173" lon="21.1068153"><ele>746.1666666666667</ele><time>2026-04-27T07:49:45.188Z</time></trkpt><trkpt lat="39.5685396" lon="21.1066657"><ele>748.0</ele><time>2026-04-27T07:49:47.188Z</time></trkpt><trkpt lat="39.5685858" lon="21.1065572"><ele>745.25</ele><time>2026-04-27T07:49:48.189Z</time></trkpt><trkpt lat="39.5686532" lon="21.1064256"><ele>742.5</ele><time>2026-04-27T07:49:49.189Z</time></trkpt><trkpt lat="39.5686926" lon="21.106273"><ele>739.75</ele><time>2026-04-27T07:49:50.189Z</time></trkpt><trkpt lat="39.5687205" lon="21.1061034"><ele>737.0</ele><time>2026-04-27T07:49:51.188Z</time></trkpt><trkpt lat="39.5687425" lon="21.1059201"><ele>736.5</ele><time>2026-04-27T07:49:52.188Z</time></trkpt><trkpt lat="39.5687465" lon="21.1057286"><ele>736.0</ele><time>2026-04-27T07:49:53.188Z</time></trkpt><trkpt lat="39.5687431" lon="21.1055425"><ele>735.5</ele><time>2026-04-27T07:49:54.188Z</time></trkpt><trkpt lat="39.5687238" lon="21.1053737"><ele>735.0</ele><time>2026-04-27T07:49:55.189Z</time></trkpt><trkpt lat="39.5686912" lon="21.105221"><ele>730.75</ele><time>2026-04-27T07:49:56.188Z</time></trkpt><trkpt lat="39.5686447" lon="21.1050765"><ele>726.5</ele><time>2026-04-27T07:49:57.189Z</time></trkpt><trkpt lat="39.5685839" lon="21.1049424"><ele>722.25</ele><time>2026-04-27T07:49:58.189Z</time></trkpt><trkpt lat="39.5685182" lon="21.104821"><ele>718.0</ele><time>2026-04-27T07:49:59.189Z</time></trkpt><trkpt lat="39.5684506" lon="21.104716"><ele>718.0</ele><time>2026-04-27T07:50:00.189Z</time></trkpt><trkpt lat="39.5683802" lon="21.1046408"><ele>718.0</ele><time>2026-04-27T07:50:01.188Z</time></trkpt><trkpt lat="39.5683204" lon="21.1045767"><ele>718.0</ele><time>2026-04-27T07:50:02.188Z</time></trkpt><trkpt lat="39.5682525" lon="21.1045464"><ele>718.0</ele><time>2026-04-27T07:50:03.189Z</time></trkpt><trkpt lat="39.5681489" lon="21.1046044"><ele>718.0</ele><time>2026-04-27T07:50:05.188Z</time></trkpt><trkpt lat="39.5681272" lon="21.104689"><ele>718.0</ele><time>2026-04-27T07:50:06.189Z</time></trkpt><trkpt lat="39.5681383" lon="21.1048041"><ele>715.4</ele><time>2026-04-27T07:50:07.189Z</time></trkpt><trkpt lat="39.5681672" lon="21.1049429"><ele>712.8</ele><time>2026-04-27T07:50:08.188Z</time></trkpt><trkpt lat="39.5682024" lon="21.1050775"><ele>710.2</ele><time>2026-04-27T07:50:09.188Z</time></trkpt><trkpt lat="39.5682272" lon="21.105212"><ele>707.6</ele><time>2026-04-27T07:50:10.188Z</time></trkpt><trkpt lat="39.5682277" lon="21.1053381"><ele>705.0</ele><time>2026-04-27T07:50:11.189Z</time></trkpt><trkpt lat="39.5682141" lon="21.1054603"><ele>705.0</ele><time>2026-04-27T07:50:12.188Z</time></trkpt><trkpt lat="39.5681557" lon="21.1055669"><ele>705.0</ele><time>2026-04-27T07:50:13.188Z</time></trkpt><trkpt lat="39.5681021" lon="21.1056738"><ele>705.0</ele><time>2026-04-27T07:50:14.189Z</time></trkpt><trkpt lat="39.5680438" lon="21.1057736"><ele>705.0</ele><time>2026-04-27T07:50:15.188Z</time></trkpt><trkpt lat="39.5679867" lon="21.1058696"><ele>705.0</ele><time>2026-04-27T07:50:16.189Z</time></trkpt><trkpt lat="39.5679322" lon="21.1059643"><ele>705.0</ele><time>2026-04-27T07:50:17.188Z</time></trkpt><trkpt lat="39.5678828" lon="21.1060431"><ele>705.0</ele><time>2026-04-27T07:50:18.188Z</time></trkpt><trkpt lat="39.5678382" lon="21.1061228"><ele>705.0</ele><time>2026-04-27T07:50:19.188Z</time></trkpt><trkpt lat="39.5677924" lon="21.1062017"><ele>705.0</ele><time>2026-04-27T07:50:20.189Z</time></trkpt><trkpt lat="39.5677453" lon="21.1062815"><ele>705.0</ele><time>2026-04-27T07:50:21.188Z</time></trkpt><trkpt lat="39.5676914" lon="21.1063681"><ele>705.0</ele><time>2026-04-27T07:50:22.188Z</time></trkpt><trkpt lat="39.5676326" lon="21.1064532"><ele>700.8</ele><time>2026-04-27T07:50:23.188Z</time></trkpt><trkpt lat="39.5675725" lon="21.1065468"><ele>696.6</ele><time>2026-04-27T07:50:24.189Z</time></trkpt><trkpt lat="39.5675158" lon="21.1066475"><ele>692.4000000000001</ele><time>2026-04-27T07:50:25.189Z</time></trkpt><trkpt lat="39.5674497" lon="21.1067489"><ele>688.2</ele><time>2026-04-27T07:50:26.188Z</time></trkpt><trkpt lat="39.5673826" lon="21.1068422"><ele>684.0</ele><time>2026-04-27T07:50:27.189Z</time></trkpt><trkpt lat="39.5673088" lon="21.1069321"><ele>684.0</ele><time>2026-04-27T07:50:28.189Z</time></trkpt><trkpt lat="39.5672313" lon="21.1070141"><ele>684.0</ele><time>2026-04-27T07:50:29.188Z</time></trkpt><trkpt lat="39.5671492" lon="21.1070852"><ele>684.0</ele><time>2026-04-27T07:50:30.188Z</time></trkpt><trkpt lat="39.5670677" lon="21.1071455"><ele>684.0</ele><time>2026-04-27T07:50:31.188Z</time></trkpt><trkpt lat="39.5669891" lon="21.1071913"><ele>684.0</ele><time>2026-04-27T07:50:32.188Z</time></trkpt><trkpt lat="39.566906" lon="21.1072157"><ele>680.5</ele><time>2026-04-27T07:50:33.188Z</time></trkpt><trkpt lat="39.5668107" lon="21.1072195"><ele>677.0</ele><time>2026-04-27T07:50:34.189Z</time></trkpt><trkpt lat="39.5667166" lon="21.1072079"><ele>673.5</ele><time>2026-04-27T07:50:35.188Z</time></trkpt><trkpt lat="39.566629" lon="21.1071711"><ele>670.0</ele><time>2026-04-27T07:50:36.188Z</time></trkpt><trkpt lat="39.5665504" lon="21.1071492"><ele>666.5</ele><time>2026-04-27T07:50:37.188Z</time></trkpt><trkpt lat="39.5664725" lon="21.1071424"><ele>663.0</ele><time>2026-04-27T07:50:38.188Z</time></trkpt><trkpt lat="39.5664051" lon="21.107146"><ele>663.0</ele><time>2026-04-27T07:50:39.188Z</time></trkpt><trkpt lat="39.5662887" lon="21.1071978"><ele>663.0</ele><time>2026-04-27T07:50:41.188Z</time></trkpt><trkpt lat="39.5662323" lon="21.1072373"><ele>663.0</ele><time>2026-04-27T07:50:42.189Z</time></trkpt><trkpt lat="39.5661408" lon="21.1073325"><ele>663.0</ele><time>2026-04-27T07:50:44.188Z</time></trkpt><trkpt lat="39.566066" lon="21.1074376"><ele>663.0</ele><time>2026-04-27T07:50:46.189Z</time></trkpt><trkpt lat="39.5660325" lon="21.1075145"><ele>660.3333333333334</ele><time>2026-04-27T07:50:47.188Z</time></trkpt><trkpt lat="39.5660151" lon="21.1075979"><ele>657.6666666666666</ele><time>2026-04-27T07:50:48.189Z</time></trkpt><trkpt lat="39.5660136" lon="21.1076936"><ele>655.0</ele><time>2026-04-27T07:50:49.189Z</time></trkpt><trkpt lat="39.5660295" lon="21.1077883"><ele>652.3333333333333</ele><time>2026-04-27T07:50:50.189Z</time></trkpt><trkpt lat="39.5660719" lon="21.1078904"><ele>649.6666666666666</ele><time>2026-04-27T07:50:51.188Z</time></trkpt><trkpt lat="39.566127" lon="21.1079904"><ele>647.0</ele><time>2026-04-27T07:50:52.189Z</time></trkpt><trkpt lat="39.5661918" lon="21.1080924"><ele>652.6</ele><time>2026-04-27T07:50:53.188Z</time></trkpt><trkpt lat="39.5662571" lon="21.1082022"><ele>658.2</ele><time>2026-04-27T07:50:54.189Z</time></trkpt><trkpt lat="39.5663114" lon="21.1083101"><ele>663.8</ele><time>2026-04-27T07:50:55.189Z</time></trkpt><trkpt lat="39.5663575" lon="21.1084221"><ele>669.4</ele><time>2026-04-27T07:50:56.189Z</time></trkpt><trkpt lat="39.5663888" lon="21.1085312"><ele>675.0</ele><time>2026-04-27T07:50:57.189Z</time></trkpt><trkpt lat="39.5664155" lon="21.1086334"><ele>675.1666666666666</ele><time>2026-04-27T07:50:58.189Z</time></trkpt><trkpt lat="39.5664459" lon="21.108725"><ele>675.3333333333334</ele><time>2026-04-27T07:50:59.189Z</time></trkpt><trkpt lat="39.5664737" lon="21.1088121"><ele>675.5</ele><time>2026-04-27T07:51:00.188Z</time></trkpt><trkpt lat="39.5664948" lon="21.1089042"><ele>675.6666666666667</ele><time>2026-04-27T07:51:01.188Z</time></trkpt><trkpt lat="39.5665051" lon="21.1090005"><ele>675.8333333333334</ele><time>2026-04-27T07:51:02.189Z</time></trkpt><trkpt lat="39.5665135" lon="21.1091012"><ele>676.0</ele><time>2026-04-27T07:51:03.189Z</time></trkpt><trkpt lat="39.566518" lon="21.1092129"><ele>674.5999999999999</ele><time>2026-04-27T07:51:04.188Z</time></trkpt><trkpt lat="39.5665158" lon="21.1093219"><ele>673.2</ele><time>2026-04-27T07:51:05.188Z</time></trkpt><trkpt lat="39.5665101" lon="21.1094382"><ele>671.8</ele><time>2026-04-27T07:51:06.188Z</time></trkpt><trkpt lat="39.5664867" lon="21.1095589"><ele>670.4000000000001</ele><time>2026-04-27T07:51:07.189Z</time></trkpt><trkpt lat="39.5664639" lon="21.1096848"><ele>669.0</ele><time>2026-04-27T07:51:08.189Z</time></trkpt><trkpt lat="39.5664252" lon="21.1098156"><ele>668.8000000000001</ele><time>2026-04-27T07:51:09.189Z</time></trkpt><trkpt lat="39.566388" lon="21.1099463"><ele>668.6</ele><time>2026-04-27T07:51:10.188Z</time></trkpt><trkpt lat="39.566356" lon="21.1100793"><ele>668.4</ele><time>2026-04-27T07:51:11.189Z</time></trkpt><trkpt lat="39.5663131" lon="21.1102053"><ele>668.2</ele><time>2026-04-27T07:51:12.188Z</time></trkpt><trkpt lat="39.5662541" lon="21.1103199"><ele>668.0</ele><time>2026-04-27T07:51:13.188Z</time></trkpt><trkpt lat="39.5661886" lon="21.1104158"><ele>661.1999999999999</ele><time>2026-04-27T07:51:14.189Z</time></trkpt><trkpt lat="39.5661202" lon="21.1105013"><ele>654.4</ele><time>2026-04-27T07:51:15.189Z</time></trkpt><trkpt lat="39.5660523" lon="21.1105901"><ele>647.5999999999999</ele><time>2026-04-27T07:51:16.188Z</time></trkpt><trkpt lat="39.5659891" lon="21.1106778"><ele>640.8</ele><time>2026-04-27T07:51:17.188Z</time></trkpt><trkpt lat="39.5659334" lon="21.1107764"><ele>634.0</ele><time>2026-04-27T07:51:18.189Z</time></trkpt><trkpt lat="39.5658875" lon="21.1108773"><ele>634.0</ele><time>2026-04-27T07:51:19.189Z</time></trkpt><trkpt lat="39.5658371" lon="21.1109358"><ele>634.0</ele><time>2026-04-27T07:51:20.189Z</time></trkpt><trkpt lat="39.5657361" lon="21.1109511"><ele>634.0</ele><time>2026-04-27T07:51:22.189Z</time></trkpt><trkpt lat="39.5657244" lon="21.1108364"><ele>634.0</ele><time>2026-04-27T07:51:23.189Z</time></trkpt><trkpt lat="39.5657663" lon="21.1106724"><ele>634.0</ele><time>2026-04-27T07:51:25.189Z</time></trkpt><trkpt lat="39.5658084" lon="21.1105837"><ele>632.5</ele><time>2026-04-27T07:51:26.188Z</time></trkpt><trkpt lat="39.5658471" lon="21.1104911"><ele>631.0</ele><time>2026-04-27T07:51:27.189Z</time></trkpt><trkpt lat="39.5658755" lon="21.1103991"><ele>629.5</ele><time>2026-04-27T07:51:28.188Z</time></trkpt><trkpt lat="39.5658821" lon="21.1103022"><ele>628.0</ele><time>2026-04-27T07:51:29.188Z</time></trkpt><trkpt lat="39.5658914" lon="21.110204"><ele>626.5</ele><time>2026-04-27T07:51:30.189Z</time></trkpt><trkpt lat="39.5658868" lon="21.1100908"><ele>625.0</ele><time>2026-04-27T07:51:31.189Z</time></trkpt><trkpt lat="39.5658732" lon="21.1099801"><ele>625.2</ele><time>2026-04-27T07:51:32.188Z</time></trkpt><trkpt lat="39.5658611" lon="21.1098639"><ele>625.4</ele><time>2026-04-27T07:51:33.188Z</time></trkpt><trkpt lat="39.5658312" lon="21.1097471"><ele>625.6</ele><time>2026-04-27T07:51:34.188Z</time></trkpt><trkpt lat="39.5658006" lon="21.1096241"><ele>625.8</ele><time>2026-04-27T07:51:35.188Z</time></trkpt><trkpt lat="39.5657485" lon="21.1095054"><ele>626.0</ele><time>2026-04-27T07:51:36.189Z</time></trkpt><trkpt lat="39.56568" lon="21.1093946"><ele>626.0</ele><time>2026-04-27T07:51:37.189Z</time></trkpt><trkpt lat="39.5656052" lon="21.1092924"><ele>626.0</ele><time>2026-04-27T07:51:38.188Z</time></trkpt><trkpt lat="39.5655328" lon="21.1091843"><ele>626.0</ele><time>2026-04-27T07:51:39.189Z</time></trkpt><trkpt lat="39.5654742" lon="21.1090649"><ele>626.0</ele><time>2026-04-27T07:51:40.189Z</time></trkpt><trkpt lat="39.5654273" lon="21.1089398"><ele>626.0</ele><time>2026-04-27T07:51:41.188Z</time></trkpt><trkpt lat="39.5654052" lon="21.1088145"><ele>628.4</ele><time>2026-04-27T07:51:42.188Z</time></trkpt><trkpt lat="39.5653918" lon="21.1086831"><ele>630.8</ele><time>2026-04-27T07:51:43.189Z</time></trkpt><trkpt lat="39.5653768" lon="21.108558"><ele>633.1999999999999</ele><time>2026-04-27T07:51:44.189Z</time></trkpt><trkpt lat="39.5653451" lon="21.1084391"><ele>635.6</ele><time>2026-04-27T07:51:45.188Z</time></trkpt><trkpt lat="39.5653103" lon="21.1083224"><ele>638.0</ele><time>2026-04-27T07:51:46.188Z</time></trkpt><trkpt lat="39.5652545" lon="21.1082089"><ele>631.6</ele><time>2026-04-27T07:51:47.188Z</time></trkpt><trkpt lat="39.5651899" lon="21.108113"><ele>625.1999999999999</ele><time>2026-04-27T07:51:48.189Z</time></trkpt><trkpt lat="39.5651282" lon="21.1080191"><ele>618.8</ele><time>2026-04-27T07:51:49.188Z</time></trkpt><trkpt lat="39.5650652" lon="21.1079311"><ele>612.4</ele><time>2026-04-27T07:51:50.189Z</time></trkpt><trkpt lat="39.5649811" lon="21.1078632"><ele>606.0</ele><time>2026-04-27T07:51:51.189Z</time></trkpt><trkpt lat="39.5649041" lon="21.1077961"><ele>606.0</ele><time>2026-04-27T07:51:52.189Z</time></trkpt><trkpt lat="39.5648317" lon="21.1077482"><ele>606.0</ele><time>2026-04-27T07:51:53.189Z</time></trkpt><trkpt lat="39.5647677" lon="21.1077221"><ele>606.0</ele><time>2026-04-27T07:51:54.189Z</time></trkpt><trkpt lat="39.564689" lon="21.1077871"><ele>606.0</ele><time>2026-04-27T07:51:56.189Z</time></trkpt><trkpt lat="39.5647227" lon="21.1079663"><ele>606.0</ele><time>2026-04-27T07:51:58.189Z</time></trkpt><trkpt lat="39.56476" lon="21.1080999"><ele>606.0</ele><time>2026-04-27T07:51:59.188Z</time></trkpt><trkpt lat="39.5647872" lon="21.1082305"><ele>606.0</ele><time>2026-04-27T07:52:00.189Z</time></trkpt><trkpt lat="39.5647964" lon="21.1083904"><ele>606.0</ele><time>2026-04-27T07:52:01.188Z</time></trkpt><trkpt lat="39.5647914" lon="21.1085476"><ele>606.0</ele><time>2026-04-27T07:52:02.189Z</time></trkpt><trkpt lat="39.5647751" lon="21.1086932"><ele>605.6</ele><time>2026-04-27T07:52:03.189Z</time></trkpt><trkpt lat="39.56476" lon="21.1088302"><ele>605.2</ele><time>2026-04-27T07:52:04.189Z</time></trkpt><trkpt lat="39.5647016" lon="21.1089282"><ele>604.8</ele><time>2026-04-27T07:52:05.189Z</time></trkpt><trkpt lat="39.5646451" lon="21.1090378"><ele>604.4</ele><time>2026-04-27T07:52:06.188Z</time></trkpt><trkpt lat="39.5645823" lon="21.1091312"><ele>604.0</ele><time>2026-04-27T07:52:07.188Z</time></trkpt><trkpt lat="39.5645179" lon="21.1092012"><ele>598.3333333333334</ele><time>2026-04-27T07:52:08.188Z</time></trkpt><trkpt lat="39.5644572" lon="21.1092573"><ele>592.6666666666667</ele><time>2026-04-27T07:52:09.188Z</time></trkpt><trkpt lat="39.5643822" lon="21.1093168"><ele>587.0</ele><time>2026-04-27T07:52:11.188Z</time></trkpt><trkpt lat="39.5643224" lon="21.10936"><ele>581.3333333333334</ele><time>2026-04-27T07:52:13.189Z</time></trkpt><trkpt lat="39.5643414" lon="21.1094427"><ele>575.6666666666666</ele><time>2026-04-27T07:52:29.188Z</time></trkpt><trkpt lat="39.5643623" lon="21.1095431"><ele>570.0</ele><time>2026-04-27T07:52:31.189Z</time></trkpt><trkpt lat="39.5643846" lon="21.1097017"><ele>570.0</ele><time>2026-04-27T07:52:33.188Z</time></trkpt><trkpt lat="39.564417" lon="21.1097784"><ele>570.0</ele><time>2026-04-27T07:52:34.189Z</time></trkpt><trkpt lat="39.564457" lon="21.1098415"><ele>570.0</ele><time>2026-04-27T07:52:35.189Z</time></trkpt><trkpt lat="39.5645549" lon="21.1099538"><ele>570.0</ele><time>2026-04-27T07:52:37.188Z</time></trkpt><trkpt lat="39.5646179" lon="21.1100142"><ele>570.0</ele><time>2026-04-27T07:52:38.188Z</time></trkpt><trkpt lat="39.5646779" lon="21.1100723"><ele>570.0</ele><time>2026-04-27T07:52:39.189Z</time></trkpt><trkpt lat="39.5647274" lon="21.11014"><ele>574.3333333333334</ele><time>2026-04-27T07:52:40.189Z</time></trkpt><trkpt lat="39.5647729" lon="21.1102124"><ele>578.6666666666666</ele><time>2026-04-27T07:52:41.188Z</time></trkpt><trkpt lat="39.5648113" lon="21.1102998"><ele>583.0</ele><time>2026-04-27T07:52:42.189Z</time></trkpt><trkpt lat="39.5648417" lon="21.1103928"><ele>587.3333333333333</ele><time>2026-04-27T07:52:43.189Z</time></trkpt><trkpt lat="39.5648634" lon="21.1104899"><ele>591.6666666666666</ele><time>2026-04-27T07:52:44.189Z</time></trkpt><trkpt lat="39.5648752" lon="21.1105921"><ele>596.0</ele><time>2026-04-27T07:52:45.189Z</time></trkpt><trkpt lat="39.5648752" lon="21.1106981"><ele>596.5</ele><time>2026-04-27T07:52:46.189Z</time></trkpt><trkpt lat="39.5648733" lon="21.110792"><ele>597.0</ele><time>2026-04-27T07:52:47.189Z</time></trkpt><trkpt lat="39.5648706" lon="21.1108902"><ele>597.5</ele><time>2026-04-27T07:52:48.188Z</time></trkpt><trkpt lat="39.5648681" lon="21.1109814"><ele>598.0</ele><time>2026-04-27T07:52:49.188Z</time></trkpt><trkpt lat="39.564849" lon="21.1111018"><ele>598.5</ele><time>2026-04-27T07:52:51.189Z</time></trkpt><trkpt lat="39.564842" lon="21.1111926"><ele>599.0</ele><time>2026-04-27T07:52:57.189Z</time></trkpt><trkpt lat="39.5648482" lon="21.1113244"><ele>599.0</ele><time>2026-04-27T07:52:59.189Z</time></trkpt><trkpt lat="39.5648439" lon="21.1114097"><ele>599.0</ele><time>2026-04-27T07:53:00.188Z</time></trkpt><trkpt lat="39.5648386" lon="21.1115843"><ele>599.0</ele><time>2026-04-27T07:53:02.188Z</time></trkpt><trkpt lat="39.5648424" lon="21.111681"><ele>599.0</ele><time>2026-04-27T07:53:03.189Z</time></trkpt><trkpt lat="39.5648416" lon="21.1117878"><ele>599.0</ele><time>2026-04-27T07:53:04.189Z</time></trkpt><trkpt lat="39.5648445" lon="21.1119017"><ele>599.0</ele><time>2026-04-27T07:53:05.189Z</time></trkpt><trkpt lat="39.5648512" lon="21.1119874"><ele>599.2857142857143</ele><time>2026-04-27T07:53:06.189Z</time></trkpt><trkpt lat="39.5648538" lon="21.112076"><ele>599.5714285714286</ele><time>2026-04-27T07:53:07.188Z</time></trkpt><trkpt lat="39.5648619" lon="21.1121636"><ele>599.8571428571429</ele><time>2026-04-27T07:53:08.188Z</time></trkpt><trkpt lat="39.5648705" lon="21.112256"><ele>600.1428571428571</ele><time>2026-04-27T07:53:09.188Z</time></trkpt><trkpt lat="39.564886" lon="21.112341"><ele>600.4285714285714</ele><time>2026-04-27T07:53:10.189Z</time></trkpt><trkpt lat="39.5649092" lon="21.1124275"><ele>600.7142857142857</ele><time>2026-04-27T07:53:11.189Z</time></trkpt><trkpt lat="39.5649269" lon="21.1125161"><ele>601.0</ele><time>2026-04-27T07:53:12.189Z</time></trkpt><trkpt lat="39.5649389" lon="21.1126029"><ele>601.0</ele><time>2026-04-27T07:53:13.188Z</time></trkpt><trkpt lat="39.564949" lon="21.1126933"><ele>601.0</ele><time>2026-04-27T07:53:14.188Z</time></trkpt><trkpt lat="39.564957" lon="21.1127794"><ele>601.0</ele><time>2026-04-27T07:53:15.188Z</time></trkpt><trkpt lat="39.5649794" lon="21.1128637"><ele>601.0</ele><time>2026-04-27T07:53:16.188Z</time></trkpt><trkpt lat="39.5650242" lon="21.1129441"><ele>601.0</ele><time>2026-04-27T07:53:17.188Z</time></trkpt><trkpt lat="39.565092" lon="21.1130152"><ele>601.0</ele><time>2026-04-27T07:53:18.189Z</time></trkpt><trkpt lat="39.5651679" lon="21.1130733"><ele>601.0</ele><time>2026-04-27T07:53:19.189Z</time></trkpt><trkpt lat="39.5652498" lon="21.1131244"><ele>601.0</ele><time>2026-04-27T07:53:20.189Z</time></trkpt><trkpt lat="39.565325" lon="21.1131768"><ele>601.0</ele><time>2026-04-27T07:53:21.189Z</time></trkpt><trkpt lat="39.5653924" lon="21.1132301"><ele>601.0</ele><time>2026-04-27T07:53:22.189Z</time></trkpt><trkpt lat="39.5654553" lon="21.1132915"><ele>601.0</ele><time>2026-04-27T07:53:23.188Z</time></trkpt><trkpt lat="39.5655145" lon="21.1133586"><ele>601.0</ele><time>2026-04-27T07:53:24.188Z</time></trkpt><trkpt lat="39.5655522" lon="21.1134308"><ele>603.5</ele><time>2026-04-27T07:53:25.188Z</time></trkpt><trkpt lat="39.5655742" lon="21.1135217"><ele>606.0</ele><time>2026-04-27T07:53:26.189Z</time></trkpt><trkpt lat="39.5655934" lon="21.1136079"><ele>608.5</ele><time>2026-04-27T07:53:27.188Z</time></trkpt><trkpt lat="39.5656248" lon="21.1136865"><ele>611.0</ele><time>2026-04-27T07:53:28.188Z</time></trkpt><trkpt lat="39.5656665" lon="21.1137591"><ele>613.5</ele><time>2026-04-27T07:53:29.188Z</time></trkpt><trkpt lat="39.5657232" lon="21.1138359"><ele>616.0</ele><time>2026-04-27T07:53:30.188Z</time></trkpt><trkpt lat="39.5657839" lon="21.1139258"><ele>616.0</ele><time>2026-04-27T07:53:31.188Z</time></trkpt><trkpt lat="39.5658479" lon="21.1140255"><ele>616.0</ele><time>2026-04-27T07:53:32.189Z</time></trkpt><trkpt lat="39.5659104" lon="21.1141354"><ele>616.0</ele><time>2026-04-27T07:53:33.188Z</time></trkpt><trkpt lat="39.5659672" lon="21.1142577"><ele>616.0</ele><time>2026-04-27T07:53:34.189Z</time></trkpt><trkpt lat="39.5660222" lon="21.1143796"><ele>616.0</ele><time>2026-04-27T07:53:35.189Z</time></trkpt><trkpt lat="39.5660543" lon="21.1145072"><ele>613.6</ele><time>2026-04-27T07:53:36.188Z</time></trkpt><trkpt lat="39.566062" lon="21.1146368"><ele>611.2</ele><time>2026-04-27T07:53:37.189Z</time></trkpt><trkpt lat="39.5660603" lon="21.1147729"><ele>608.8</ele><time>2026-04-27T07:53:38.189Z</time></trkpt><trkpt lat="39.5660608" lon="21.1149007"><ele>606.4</ele><time>2026-04-27T07:53:39.188Z</time></trkpt><trkpt lat="39.566064" lon="21.1150306"><ele>604.0</ele><time>2026-04-27T07:53:40.189Z</time></trkpt><trkpt lat="39.5660651" lon="21.1151542"><ele>604.0</ele><time>2026-04-27T07:53:41.189Z</time></trkpt><trkpt lat="39.5660475" lon="21.115279"><ele>604.0</ele><time>2026-04-27T07:53:42.189Z</time></trkpt><trkpt lat="39.566032" lon="21.1153993"><ele>604.0</ele><time>2026-04-27T07:53:43.188Z</time></trkpt><trkpt lat="39.566006" lon="21.1155165"><ele>604.0</ele><time>2026-04-27T07:53:44.188Z</time></trkpt><trkpt lat="39.5659902" lon="21.1156251"><ele>604.0</ele><time>2026-04-27T07:53:45.189Z</time></trkpt><trkpt lat="39.5659854" lon="21.1157489"><ele>604.0</ele><time>2026-04-27T07:53:46.188Z</time></trkpt><trkpt lat="39.5659895" lon="21.1158635"><ele>604.0</ele><time>2026-04-27T07:53:47.189Z</time></trkpt><trkpt lat="39.5660016" lon="21.115979"><ele>604.0</ele><time>2026-04-27T07:53:48.189Z</time></trkpt><trkpt lat="39.5660317" lon="21.1161001"><ele>604.0</ele><time>2026-04-27T07:53:49.189Z</time></trkpt><trkpt lat="39.5660742" lon="21.1162283"><ele>604.0</ele><time>2026-04-27T07:53:50.189Z</time></trkpt><trkpt lat="39.5661297" lon="21.1163575"><ele>614.25</ele><time>2026-04-27T07:53:51.189Z</time></trkpt><trkpt lat="39.5661956" lon="21.1164887"><ele>624.5</ele><time>2026-04-27T07:53:52.189Z</time></trkpt><trkpt lat="39.5662633" lon="21.1166185"><ele>634.75</ele><time>2026-04-27T07:53:53.188Z</time></trkpt><trkpt lat="39.566343" lon="21.1167462"><ele>645.0</ele><time>2026-04-27T07:53:54.189Z</time></trkpt><trkpt lat="39.5664325" lon="21.1168698"><ele>645.0</ele><time>2026-04-27T07:53:55.189Z</time></trkpt><trkpt lat="39.5665266" lon="21.1169818"><ele>645.0</ele><time>2026-04-27T07:53:56.189Z</time></trkpt><trkpt lat="39.5666283" lon="21.1170844"><ele>645.0</ele><time>2026-04-27T07:53:57.189Z</time></trkpt><trkpt lat="39.5667303" lon="21.1171763"><ele>645.0</ele><time>2026-04-27T07:53:58.188Z</time></trkpt><trkpt lat="39.5668321" lon="21.1172672"><ele>645.0</ele><time>2026-04-27T07:53:59.189Z</time></trkpt><trkpt lat="39.5669239" lon="21.117353"><ele>645.0</ele><time>2026-04-27T07:54:00.189Z</time></trkpt><trkpt lat="39.5669952" lon="21.1174388"><ele>645.0</ele><time>2026-04-27T07:54:01.189Z</time></trkpt><trkpt lat="39.5670478" lon="21.1175238"><ele>645.0</ele><time>2026-04-27T07:54:02.189Z</time></trkpt><trkpt lat="39.567077" lon="21.1176162"><ele>645.0</ele><time>2026-04-27T07:54:03.188Z</time></trkpt><trkpt lat="39.5670568" lon="21.1177182"><ele>640.6</ele><time>2026-04-27T07:54:04.188Z</time></trkpt><trkpt lat="39.5670204" lon="21.1178243"><ele>636.2</ele><time>2026-04-27T07:54:05.188Z</time></trkpt><trkpt lat="39.5669574" lon="21.117936"><ele>631.8</ele><time>2026-04-27T07:54:06.189Z</time></trkpt><trkpt lat="39.5668914" lon="21.1180552"><ele>627.4</ele><time>2026-04-27T07:54:07.188Z</time></trkpt><trkpt lat="39.5668257" lon="21.1181622"><ele>623.0</ele><time>2026-04-27T07:54:08.189Z</time></trkpt><trkpt lat="39.5667649" lon="21.1182687"><ele>623.0</ele><time>2026-04-27T07:54:09.188Z</time></trkpt><trkpt lat="39.5667324" lon="21.1183605"><ele>623.0</ele><time>2026-04-27T07:54:10.188Z</time></trkpt><trkpt lat="39.5667274" lon="21.1184705"><ele>623.0</ele><time>2026-04-27T07:54:11.188Z</time></trkpt><trkpt lat="39.5667501" lon="21.1185948"><ele>623.0</ele><time>2026-04-27T07:54:12.188Z</time></trkpt><trkpt lat="39.5667921" lon="21.1187279"><ele>623.0</ele><time>2026-04-27T07:54:13.188Z</time></trkpt><trkpt lat="39.5668351" lon="21.1188668"><ele>623.0</ele><time>2026-04-27T07:54:14.189Z</time></trkpt><trkpt lat="39.56687" lon="21.1190062"><ele>623.0</ele><time>2026-04-27T07:54:15.188Z</time></trkpt><trkpt lat="39.5669" lon="21.1191527"><ele>623.0</ele><time>2026-04-27T07:54:16.189Z</time></trkpt><trkpt lat="39.5669346" lon="21.1192998"><ele>623.0</ele><time>2026-04-27T07:54:17.188Z</time></trkpt><trkpt lat="39.5669714" lon="21.119442"><ele>622.75</ele><time>2026-04-27T07:54:18.188Z</time></trkpt><trkpt lat="39.5670244" lon="21.1195873"><ele>622.5</ele><time>2026-04-27T07:54:19.189Z</time></trkpt><trkpt lat="39.5670907" lon="21.1197302"><ele>622.25</ele><time>2026-04-27T07:54:20.188Z</time></trkpt><trkpt lat="39.5671618" lon="21.119869"><ele>622.0</ele><time>2026-04-27T07:54:21.188Z</time></trkpt><trkpt lat="39.5672165" lon="21.1200053"><ele>629.0</ele><time>2026-04-27T07:54:22.189Z</time></trkpt><trkpt lat="39.567271" lon="21.1201396"><ele>636.0</ele><time>2026-04-27T07:54:23.188Z</time></trkpt><trkpt lat="39.5673187" lon="21.1202781"><ele>643.0</ele><time>2026-04-27T07:54:24.189Z</time></trkpt><trkpt lat="39.5673666" lon="21.1204136"><ele>650.0</ele><time>2026-04-27T07:54:25.188Z</time></trkpt><trkpt lat="39.5674173" lon="21.1205418"><ele>650.0</ele><time>2026-04-27T07:54:26.188Z</time></trkpt><trkpt lat="39.5674286" lon="21.1206825"><ele>650.0</ele><time>2026-04-27T07:54:27.188Z</time></trkpt><trkpt lat="39.5674376" lon="21.120823"><ele>650.0</ele><time>2026-04-27T07:54:28.188Z</time></trkpt><trkpt lat="39.5674111" lon="21.1209495"><ele>650.0</ele><time>2026-04-27T07:54:29.189Z</time></trkpt><trkpt lat="39.5672813" lon="21.1210339"><ele>648.8</ele><time>2026-04-27T07:54:30.189Z</time></trkpt><trkpt lat="39.5671791" lon="21.1210917"><ele>647.6</ele><time>2026-04-27T07:54:31.188Z</time></trkpt><trkpt lat="39.5670871" lon="21.1211662"><ele>646.4000000000001</ele><time>2026-04-27T07:54:32.188Z</time></trkpt><trkpt lat="39.566999" lon="21.1212368"><ele>645.2</ele><time>2026-04-27T07:54:33.188Z</time></trkpt><trkpt lat="39.566923" lon="21.1212883"><ele>644.0</ele><time>2026-04-27T07:54:34.188Z</time></trkpt><trkpt lat="39.5668541" lon="21.1213337"><ele>639.0</ele><time>2026-04-27T07:54:35.189Z</time></trkpt><trkpt lat="39.5667969" lon="21.1213937"><ele>634.0</ele><time>2026-04-27T07:54:36.189Z</time></trkpt><trkpt lat="39.5667515" lon="21.1214687"><ele>629.0</ele><time>2026-04-27T07:54:37.189Z</time></trkpt><trkpt lat="39.5667234" lon="21.1215774"><ele>624.0</ele><time>2026-04-27T07:54:38.189Z</time></trkpt><trkpt lat="39.5667211" lon="21.121695"><ele>619.0</ele><time>2026-04-27T07:54:39.189Z</time></trkpt><trkpt lat="39.5667401" lon="21.1218191"><ele>614.0</ele><time>2026-04-27T07:54:40.188Z</time></trkpt><trkpt lat="39.5667738" lon="21.121926"><ele>614.0</ele><time>2026-04-27T07:54:41.188Z</time></trkpt><trkpt lat="39.5668082" lon="21.1220085"><ele>614.0</ele><time>2026-04-27T07:54:42.188Z</time></trkpt><trkpt lat="39.5668454" lon="21.1220776"><ele>614.0</ele><time>2026-04-27T07:54:43.188Z</time></trkpt><trkpt lat="39.5668891" lon="21.1221443"><ele>614.0</ele><time>2026-04-27T07:54:44.188Z</time></trkpt><trkpt lat="39.566935" lon="21.1222022"><ele>614.0</ele><time>2026-04-27T07:54:45.189Z</time></trkpt><trkpt lat="39.567017" lon="21.1223134"><ele>614.0</ele><time>2026-04-27T07:54:47.189Z</time></trkpt><trkpt lat="39.5670413" lon="21.1224614"><ele>613.3333333333333</ele><time>2026-04-27T07:54:49.189Z</time></trkpt><trkpt lat="39.5670228" lon="21.1226008"><ele>612.6666666666666</ele><time>2026-04-27T07:54:51.188Z</time></trkpt><trkpt lat="39.5670045" lon="21.1226869"><ele>612.0</ele><time>2026-04-27T07:54:52.188Z</time></trkpt><trkpt lat="39.5669736" lon="21.122776"><ele>611.3333333333334</ele><time>2026-04-27T07:54:53.188Z</time></trkpt><trkpt lat="39.5669384" lon="21.1228751"><ele>610.6666666666667</ele><time>2026-04-27T07:54:54.189Z</time></trkpt><trkpt lat="39.5668853" lon="21.1229683"><ele>610.0</ele><time>2026-04-27T07:54:55.188Z</time></trkpt><trkpt lat="39.5668336" lon="21.1230702"><ele>610.0</ele><time>2026-04-27T07:54:56.188Z</time></trkpt><trkpt lat="39.5667949" lon="21.1231888"><ele>610.0</ele><time>2026-04-27T07:54:57.189Z</time></trkpt><trkpt lat="39.5667599" lon="21.1233151"><ele>610.0</ele><time>2026-04-27T07:54:58.189Z</time></trkpt><trkpt lat="39.5667256" lon="21.1234434"><ele>610.0</ele><time>2026-04-27T07:54:59.188Z</time></trkpt><trkpt lat="39.5666819" lon="21.1235665"><ele>610.0</ele><time>2026-04-27T07:55:00.189Z</time></trkpt><trkpt lat="39.5666276" lon="21.123681"><ele>611.6</ele><time>2026-04-27T07:55:01.188Z</time></trkpt><trkpt lat="39.56656" lon="21.1237852"><ele>613.2</ele><time>2026-04-27T07:55:02.188Z</time></trkpt><trkpt lat="39.5665001" lon="21.1238916"><ele>614.8</ele><time>2026-04-27T07:55:03.188Z</time></trkpt><trkpt lat="39.5664633" lon="21.1240044"><ele>616.4</ele><time>2026-04-27T07:55:04.189Z</time></trkpt><trkpt lat="39.5664239" lon="21.1241206"><ele>618.0</ele><time>2026-04-27T07:55:05.189Z</time></trkpt><trkpt lat="39.5663968" lon="21.1242366"><ele>626.2</ele><time>2026-04-27T07:55:06.189Z</time></trkpt><trkpt lat="39.5663797" lon="21.1243604"><ele>634.4</ele><time>2026-04-27T07:55:07.189Z</time></trkpt><trkpt lat="39.566361" lon="21.1244955"><ele>642.6</ele><time>2026-04-27T07:55:08.189Z</time></trkpt><trkpt lat="39.5663323" lon="21.124634"><ele>650.8000000000001</ele><time>2026-04-27T07:55:09.188Z</time></trkpt><trkpt lat="39.5663063" lon="21.1247676"><ele>659.0</ele><time>2026-04-27T07:55:10.189Z</time></trkpt><trkpt lat="39.5662679" lon="21.1248778"><ele>663.4000000000001</ele><time>2026-04-27T07:55:11.189Z</time></trkpt><trkpt lat="39.5662368" lon="21.1249968"><ele>667.8</ele><time>2026-04-27T07:55:12.189Z</time></trkpt><trkpt lat="39.5661914" lon="21.1250976"><ele>672.2</ele><time>2026-04-27T07:55:13.189Z</time></trkpt><trkpt lat="39.5661294" lon="21.12518"><ele>676.5999999999999</ele><time>2026-04-27T07:55:14.188Z</time></trkpt><trkpt lat="39.5660589" lon="21.1252681"><ele>681.0</ele><time>2026-04-27T07:55:15.189Z</time></trkpt><trkpt lat="39.5660004" lon="21.125364"><ele>674.6666666666666</ele><time>2026-04-27T07:55:16.188Z</time></trkpt><trkpt lat="39.5659529" lon="21.1254597"><ele>668.3333333333334</ele><time>2026-04-27T07:55:17.189Z</time></trkpt><trkpt lat="39.5659184" lon="21.1255625"><ele>662.0</ele><time>2026-04-27T07:55:18.188Z</time></trkpt><trkpt lat="39.5658837" lon="21.1256492"><ele>655.6666666666667</ele><time>2026-04-27T07:55:19.188Z</time></trkpt><trkpt lat="39.5658401" lon="21.1257263"><ele>649.3333333333334</ele><time>2026-04-27T07:55:20.189Z</time></trkpt><trkpt lat="39.5657699" lon="21.1257613"><ele>643.0</ele><time>2026-04-27T07:55:21.189Z</time></trkpt><trkpt lat="39.5656975" lon="21.1258067"><ele>643.0</ele><time>2026-04-27T07:55:22.189Z</time></trkpt><trkpt lat="39.5656259" lon="21.1258617"><ele>643.0</ele><time>2026-04-27T07:55:23.188Z</time></trkpt><trkpt lat="39.5655668" lon="21.1259355"><ele>643.0</ele><time>2026-04-27T07:55:24.189Z</time></trkpt><trkpt lat="39.5655266" lon="21.1260477"><ele>643.0</ele><time>2026-04-27T07:55:25.188Z</time></trkpt><trkpt lat="39.5654909" lon="21.1261679"><ele>643.0</ele><time>2026-04-27T07:55:26.188Z</time></trkpt><trkpt lat="39.5654481" lon="21.1262738"><ele>643.0</ele><time>2026-04-27T07:55:27.189Z</time></trkpt><trkpt lat="39.5654051" lon="21.1263637"><ele>643.0</ele><time>2026-04-27T07:55:28.188Z</time></trkpt><trkpt lat="39.5653725" lon="21.1264566"><ele>643.0</ele><time>2026-04-27T07:55:29.189Z</time></trkpt><trkpt lat="39.5653485" lon="21.126598"><ele>643.0</ele><time>2026-04-27T07:55:31.188Z</time></trkpt><trkpt lat="39.5654239" lon="21.1266731"><ele>643.0</ele><time>2026-04-27T07:55:33.189Z</time></trkpt><trkpt lat="39.5655095" lon="21.1265824"><ele>643.0</ele><time>2026-04-27T07:55:35.189Z</time></trkpt><trkpt lat="39.5655286" lon="21.1265035"><ele>643.0</ele><time>2026-04-27T07:55:36.188Z</time></trkpt><trkpt lat="39.5655499" lon="21.1264205"><ele>643.0</ele><time>2026-04-27T07:55:37.188Z</time></trkpt><trkpt lat="39.5655922" lon="21.1262998"><ele>643.0</ele><time>2026-04-27T07:55:39.189Z</time></trkpt><trkpt lat="39.5656623" lon="21.12628"><ele>643.0</ele><time>2026-04-27T07:55:41.188Z</time></trkpt><trkpt lat="39.565693" lon="21.1264053"><ele>643.0</ele><time>2026-04-27T07:55:43.188Z</time></trkpt><trkpt lat="39.5656519" lon="21.1264801"><ele>651.5</ele><time>2026-04-27T07:55:44.188Z</time></trkpt><trkpt lat="39.5656032" lon="21.1265669"><ele>660.0</ele><time>2026-04-27T07:55:45.188Z</time></trkpt><trkpt lat="39.5655618" lon="21.1266588"><ele>668.5</ele><time>2026-04-27T07:55:46.189Z</time></trkpt><trkpt lat="39.5655316" lon="21.1267636"><ele>677.0</ele><time>2026-04-27T07:55:47.189Z</time></trkpt><trkpt lat="39.5655101" lon="21.126882"><ele>685.5</ele><time>2026-04-27T07:55:48.188Z</time></trkpt><trkpt lat="39.5655007" lon="21.1270016"><ele>694.0</ele><time>2026-04-27T07:55:49.188Z</time></trkpt><trkpt lat="39.565492" lon="21.1271253"><ele>694.0</ele><time>2026-04-27T07:55:50.188Z</time></trkpt><trkpt lat="39.5654836" lon="21.1272511"><ele>694.0</ele><time>2026-04-27T07:55:51.189Z</time></trkpt><trkpt lat="39.565473" lon="21.1273694"><ele>694.0</ele><time>2026-04-27T07:55:52.189Z</time></trkpt><trkpt lat="39.5654627" lon="21.1274767"><ele>694.0</ele><time>2026-04-27T07:55:53.189Z</time></trkpt><trkpt lat="39.5654683" lon="21.1275801"><ele>694.0</ele><time>2026-04-27T07:55:54.188Z</time></trkpt><trkpt lat="39.565497" lon="21.1276684"><ele>694.0</ele><time>2026-04-27T07:55:55.188Z</time></trkpt><trkpt lat="39.5655546" lon="21.1277499"><ele>694.2</ele><time>2026-04-27T07:55:56.188Z</time></trkpt><trkpt lat="39.5656242" lon="21.1278244"><ele>694.4000000000001</ele><time>2026-04-27T07:55:57.189Z</time></trkpt><trkpt lat="39.5657031" lon="21.1279037"><ele>694.6</ele><time>2026-04-27T07:55:58.188Z</time></trkpt><trkpt lat="39.5657779" lon="21.1279912"><ele>694.8</ele><time>2026-04-27T07:55:59.189Z</time></trkpt><trkpt lat="39.5658412" lon="21.1280807"><ele>695.0</ele><time>2026-04-27T07:56:00.188Z</time></trkpt><trkpt lat="39.5659033" lon="21.1281743"><ele>691.4</ele><time>2026-04-27T07:56:01.189Z</time></trkpt><trkpt lat="39.5659603" lon="21.1282728"><ele>687.8</ele><time>2026-04-27T07:56:02.189Z</time></trkpt><trkpt lat="39.5660166" lon="21.1283664"><ele>684.2</ele><time>2026-04-27T07:56:03.189Z</time></trkpt><trkpt lat="39.566073" lon="21.1284564"><ele>680.6</ele><time>2026-04-27T07:56:04.188Z</time></trkpt><trkpt lat="39.5661364" lon="21.1285452"><ele>677.0</ele><time>2026-04-27T07:56:05.189Z</time></trkpt><trkpt lat="39.5662014" lon="21.1286404"><ele>684.0</ele><time>2026-04-27T07:56:06.188Z</time></trkpt><trkpt lat="39.5662642" lon="21.1287451"><ele>691.0</ele><time>2026-04-27T07:56:07.189Z</time></trkpt><trkpt lat="39.5663328" lon="21.1288483"><ele>698.0</ele><time>2026-04-27T07:56:08.189Z</time></trkpt><trkpt lat="39.5664144" lon="21.128946"><ele>705.0</ele><time>2026-04-27T07:56:09.189Z</time></trkpt><trkpt lat="39.5664973" lon="21.1290392"><ele>712.0</ele><time>2026-04-27T07:56:10.189Z</time></trkpt><trkpt lat="39.5665784" lon="21.1291274"><ele>712.0</ele><time>2026-04-27T07:56:11.189Z</time></trkpt><trkpt lat="39.5666546" lon="21.1292096"><ele>712.0</ele><time>2026-04-27T07:56:12.188Z</time></trkpt><trkpt lat="39.5667269" lon="21.1292959"><ele>712.0</ele><time>2026-04-27T07:56:13.189Z</time></trkpt><trkpt lat="39.5667967" lon="21.1293857"><ele>712.0</ele><time>2026-04-27T07:56:14.189Z</time></trkpt><trkpt lat="39.566859" lon="21.1294919"><ele>712.0</ele><time>2026-04-27T07:56:15.188Z</time></trkpt><trkpt lat="39.5669303" lon="21.1296134"><ele>712.0</ele><time>2026-04-27T07:56:16.189Z</time></trkpt><trkpt lat="39.566994" lon="21.129751"><ele>712.0</ele><time>2026-04-27T07:56:17.188Z</time></trkpt><trkpt lat="39.5670579" lon="21.1298928"><ele>712.0</ele><time>2026-04-27T07:56:18.188Z</time></trkpt><trkpt lat="39.5671211" lon="21.1300338"><ele>712.0</ele><time>2026-04-27T07:56:19.189Z</time></trkpt><trkpt lat="39.5671798" lon="21.1301716"><ele>727.0</ele><time>2026-04-27T07:56:20.188Z</time></trkpt><trkpt lat="39.5672429" lon="21.1303066"><ele>742.0</ele><time>2026-04-27T07:56:21.189Z</time></trkpt><trkpt lat="39.5673096" lon="21.130431"><ele>757.0</ele><time>2026-04-27T07:56:22.189Z</time></trkpt><trkpt lat="39.5673764" lon="21.1305466"><ele>772.0</ele><time>2026-04-27T07:56:23.189Z</time></trkpt><trkpt lat="39.5674464" lon="21.1306518"><ele>773.8333333333333</ele><time>2026-04-27T07:56:24.189Z</time></trkpt><trkpt lat="39.5675116" lon="21.13074"><ele>775.6666666666666</ele><time>2026-04-27T07:56:25.188Z</time></trkpt><trkpt lat="39.5675646" lon="21.1308011"><ele>777.5</ele><time>2026-04-27T07:56:26.188Z</time></trkpt><trkpt lat="39.5676466" lon="21.1308319"><ele>779.3333333333333</ele><time>2026-04-27T07:56:27.188Z</time></trkpt><trkpt lat="39.5677341" lon="21.1308548"><ele>781.1666666666666</ele><time>2026-04-27T07:56:28.188Z</time></trkpt><trkpt lat="39.5678189" lon="21.1308981"><ele>783.0</ele><time>2026-04-27T07:56:29.188Z</time></trkpt><trkpt lat="39.5679068" lon="21.1309391"><ele>783.0</ele><time>2026-04-27T07:56:30.189Z</time></trkpt><trkpt lat="39.5679848" lon="21.1309941"><ele>783.0</ele><time>2026-04-27T07:56:31.189Z</time></trkpt><trkpt lat="39.5680638" lon="21.131046"><ele>783.0</ele><time>2026-04-27T07:56:32.189Z</time></trkpt><trkpt lat="39.5681357" lon="21.1311075"><ele>783.0</ele><time>2026-04-27T07:56:33.189Z</time></trkpt><trkpt lat="39.5681848" lon="21.1311941"><ele>783.0</ele><time>2026-04-27T07:56:34.188Z</time></trkpt><trkpt lat="39.5682304" lon="21.1312855"><ele>783.0</ele><time>2026-04-27T07:56:35.189Z</time></trkpt><trkpt lat="39.5682654" lon="21.1313867"><ele>783.0</ele><time>2026-04-27T07:56:36.188Z</time></trkpt><trkpt lat="39.5682515" lon="21.1315024"><ele>783.0</ele><time>2026-04-27T07:56:37.189Z</time></trkpt><trkpt lat="39.5682587" lon="21.131606"><ele>783.0</ele><time>2026-04-27T07:56:38.188Z</time></trkpt><trkpt lat="39.5682585" lon="21.1317174"><ele>783.0</ele><time>2026-04-27T07:56:39.189Z</time></trkpt><trkpt lat="39.5682645" lon="21.1318217"><ele>783.0</ele><time>2026-04-27T07:56:40.189Z</time></trkpt><trkpt lat="39.568281" lon="21.1319215"><ele>783.0</ele><time>2026-04-27T07:56:41.189Z</time></trkpt><trkpt lat="39.5683108" lon="21.1320192"><ele>775.2</ele><time>2026-04-27T07:56:42.188Z</time></trkpt><trkpt lat="39.5683603" lon="21.1321137"><ele>767.4</ele><time>2026-04-27T07:56:43.189Z</time></trkpt><trkpt lat="39.5684223" lon="21.1322062"><ele>759.6</ele><time>2026-04-27T07:56:44.189Z</time></trkpt><trkpt lat="39.5685027" lon="21.1322826"><ele>751.8000000000001</ele><time>2026-04-27T07:56:45.188Z</time></trkpt><trkpt lat="39.5685926" lon="21.1323566"><ele>744.0</ele><time>2026-04-27T07:56:46.188Z</time></trkpt><trkpt lat="39.5686884" lon="21.1324246"><ele>756.0</ele><time>2026-04-27T07:56:47.189Z</time></trkpt><trkpt lat="39.568793" lon="21.132499"><ele>768.0</ele><time>2026-04-27T07:56:48.189Z</time></trkpt><trkpt lat="39.5688867" lon="21.1325695"><ele>780.0</ele><time>2026-04-27T07:56:49.188Z</time></trkpt><trkpt lat="39.5689731" lon="21.1326387"><ele>792.0</ele><time>2026-04-27T07:56:50.189Z</time></trkpt><trkpt lat="39.569049" lon="21.132706"><ele>804.0</ele><time>2026-04-27T07:56:51.188Z</time></trkpt><trkpt lat="39.5691171" lon="21.1327902"><ele>804.0</ele><time>2026-04-27T07:56:52.188Z</time></trkpt><trkpt lat="39.5691705" lon="21.1328828"><ele>804.0</ele><time>2026-04-27T07:56:53.188Z</time></trkpt><trkpt lat="39.5692252" lon="21.1329778"><ele>804.0</ele><time>2026-04-27T07:56:54.188Z</time></trkpt><trkpt lat="39.5692987" lon="21.1330579"><ele>804.0</ele><time>2026-04-27T07:56:55.188Z</time></trkpt><trkpt lat="39.5693797" lon="21.1331206"><ele>804.0</ele><time>2026-04-27T07:56:56.188Z</time></trkpt><trkpt lat="39.569476" lon="21.133166"><ele>818.75</ele><time>2026-04-27T07:56:57.188Z</time></trkpt><trkpt lat="39.5695825" lon="21.1331895"><ele>833.5</ele><time>2026-04-27T07:56:58.188Z</time></trkpt><trkpt lat="39.569702" lon="21.1331811"><ele>848.25</ele><time>2026-04-27T07:56:59.189Z</time></trkpt><trkpt lat="39.56982" lon="21.1331651"><ele>863.0</ele><time>2026-04-27T07:57:00.189Z</time></trkpt><trkpt lat="39.569936" lon="21.1331409"><ele>863.0</ele><time>2026-04-27T07:57:01.188Z</time></trkpt><trkpt lat="39.570052" lon="21.1331179"><ele>863.0</ele><time>2026-04-27T07:57:02.189Z</time></trkpt><trkpt lat="39.5701577" lon="21.1331008"><ele>863.0</ele><time>2026-04-27T07:57:03.188Z</time></trkpt><trkpt lat="39.5702788" lon="21.1330979"><ele>863.0</ele><time>2026-04-27T07:57:04.188Z</time></trkpt><trkpt lat="39.5703916" lon="21.1331182"><ele>863.0</ele><time>2026-04-27T07:57:05.189Z</time></trkpt><trkpt lat="39.5705046" lon="21.1331355"><ele>863.0</ele><time>2026-04-27T07:57:06.188Z</time></trkpt><trkpt lat="39.5706172" lon="21.1331471"><ele>863.0</ele><time>2026-04-27T07:57:07.188Z</time></trkpt><trkpt lat="39.5707373" lon="21.1331486"><ele>863.0</ele><time>2026-04-27T07:57:08.189Z</time></trkpt><trkpt lat="39.5708606" lon="21.1331461"><ele>863.0</ele><time>2026-04-27T07:57:09.189Z</time></trkpt><trkpt lat="39.5709778" lon="21.1331396"><ele>863.0</ele><time>2026-04-27T07:57:10.188Z</time></trkpt><trkpt lat="39.5710858" lon="21.1331321"><ele>863.0</ele><time>2026-04-27T07:57:11.189Z</time></trkpt><trkpt lat="39.571187" lon="21.1331287"><ele>863.0</ele><time>2026-04-27T07:57:12.189Z</time></trkpt><trkpt lat="39.5712873" lon="21.1331165"><ele>863.0</ele><time>2026-04-27T07:57:13.189Z</time></trkpt><trkpt lat="39.571397" lon="21.1330969"><ele>863.0</ele><time>2026-04-27T07:57:14.188Z</time></trkpt><trkpt lat="39.5715003" lon="21.1330697"><ele>863.0</ele><time>2026-04-27T07:57:15.188Z</time></trkpt><trkpt lat="39.5716042" lon="21.1330297"><ele>863.0</ele><time>2026-04-27T07:57:16.189Z</time></trkpt><trkpt lat="39.5717116" lon="21.1329855"><ele>863.0</ele><time>2026-04-27T07:57:17.188Z</time></trkpt><trkpt lat="39.5718221" lon="21.1329511"><ele>863.0</ele><time>2026-04-27T07:57:18.188Z</time></trkpt><trkpt lat="39.5719311" lon="21.1329097"><ele>844.0</ele><time>2026-04-27T07:57:19.189Z</time></trkpt><trkpt lat="39.5720353" lon="21.1328743"><ele>825.0</ele><time>2026-04-27T07:57:20.188Z</time></trkpt><trkpt lat="39.5721348" lon="21.132852"><ele>806.0</ele><time>2026-04-27T07:57:21.189Z</time></trkpt><trkpt lat="39.572238" lon="21.1328274"><ele>787.0</ele><time>2026-04-27T07:57:22.188Z</time></trkpt><trkpt lat="39.5723363" lon="21.1328105"><ele>768.0</ele><time>2026-04-27T07:57:23.189Z</time></trkpt><trkpt lat="39.572439" lon="21.1327727"><ele>768.0</ele><time>2026-04-27T07:57:24.188Z</time></trkpt><trkpt lat="39.5725421" lon="21.1327302"><ele>768.0</ele><time>2026-04-27T07:57:25.189Z</time></trkpt><trkpt lat="39.5726451" lon="21.1326831"><ele>768.0</ele><time>2026-04-27T07:57:26.189Z</time></trkpt><trkpt lat="39.5727507" lon="21.1326282"><ele>768.0</ele><time>2026-04-27T07:57:27.189Z</time></trkpt><trkpt lat="39.5728492" lon="21.1325884"><ele>768.0</ele><time>2026-04-27T07:57:28.189Z</time></trkpt><trkpt lat="39.5729417" lon="21.132545"><ele>771.5999999999999</ele><time>2026-04-27T07:57:29.188Z</time></trkpt><trkpt lat="39.5730321" lon="21.1324926"><ele>775.1999999999999</ele><time>2026-04-27T07:57:30.188Z</time></trkpt><trkpt lat="39.5731262" lon="21.1324215"><ele>778.8</ele><time>2026-04-27T07:57:31.189Z</time></trkpt><trkpt lat="39.5732186" lon="21.1323394"><ele>782.4</ele><time>2026-04-27T07:57:32.188Z</time></trkpt><trkpt lat="39.5732976" lon="21.1322487"><ele>786.0</ele><time>2026-04-27T07:57:33.189Z</time></trkpt><trkpt lat="39.5733773" lon="21.1321501"><ele>786.0</ele><time>2026-04-27T07:57:34.189Z</time></trkpt><trkpt lat="39.5734525" lon="21.1320474"><ele>786.0</ele><time>2026-04-27T07:57:35.188Z</time></trkpt><trkpt lat="39.5735175" lon="21.1319502"><ele>786.0</ele><time>2026-04-27T07:57:36.188Z</time></trkpt><trkpt lat="39.5735666" lon="21.1318684"><ele>786.0</ele><time>2026-04-27T07:57:37.189Z</time></trkpt><trkpt lat="39.5736057" lon="21.1317973"><ele>786.0</ele><time>2026-04-27T07:57:38.189Z</time></trkpt><trkpt lat="39.5736642" lon="21.1316661"><ele>786.0</ele><time>2026-04-27T07:57:40.188Z</time></trkpt><trkpt lat="39.5736884" lon="21.1315871"><ele>786.0</ele><time>2026-04-27T07:57:41.189Z</time></trkpt><trkpt lat="39.5737272" lon="21.131443"><ele>786.0</ele><time>2026-04-27T07:57:43.189Z</time></trkpt><trkpt lat="39.5737593" lon="21.1313356"><ele>786.0</ele><time>2026-04-27T07:57:45.189Z</time></trkpt><trkpt lat="39.5737892" lon="21.1312566"><ele>786.0</ele><time>2026-04-27T07:57:48.188Z</time></trkpt><trkpt lat="39.5738083" lon="21.1311411"><ele>786.0</ele><time>2026-04-27T07:57:55.189Z</time></trkpt><trkpt lat="39.5738385" lon="21.131049"><ele>801.6666666666667</ele><time>2026-04-27T07:57:57.188Z</time></trkpt><trkpt lat="39.5740321" lon="21.1306753"><ele>817.3333333333334</ele><time>2026-04-27T07:58:04.188Z</time></trkpt><trkpt lat="39.5740915" lon="21.1305793"><ele>833.0</ele><time>2026-04-27T07:58:05.189Z</time></trkpt><trkpt lat="39.5741336" lon="21.1304971"><ele>833.0000000000001</ele><time>2026-04-27T07:58:06.189Z</time></trkpt><trkpt lat="39.5741652" lon="21.1304199"><ele>833.0</ele><time>2026-04-27T07:58:07.189Z</time></trkpt><trkpt lat="39.5742034" lon="21.1303503"><ele>833.0</ele><time>2026-04-27T07:58:08.188Z</time></trkpt><trkpt lat="39.574248" lon="21.1302764"><ele>833.0</ele><time>2026-04-27T07:58:09.188Z</time></trkpt><trkpt lat="39.5742952" lon="21.1302013"><ele>833.0000000000001</ele><time>2026-04-27T07:58:10.188Z</time></trkpt><trkpt lat="39.5743531" lon="21.1301396"><ele>833.0</ele><time>2026-04-27T07:58:11.189Z</time></trkpt><trkpt lat="39.5744334" lon="21.1300743"><ele>833.0000000000001</ele><time>2026-04-27T07:58:12.189Z</time></trkpt><trkpt lat="39.5744997" lon="21.1300123"><ele>833.0</ele><time>2026-04-27T07:58:13.189Z</time></trkpt><trkpt lat="39.5745723" lon="21.1299528"><ele>833.0</ele><time>2026-04-27T07:58:14.189Z</time></trkpt><trkpt lat="39.5746504" lon="21.1298985"><ele>833.0</ele><time>2026-04-27T07:58:15.189Z</time></trkpt><trkpt lat="39.5747266" lon="21.1298469"><ele>833.0000000000001</ele><time>2026-04-27T07:58:16.188Z</time></trkpt><trkpt lat="39.5748097" lon="21.1297913"><ele>833.0</ele><time>2026-04-27T07:58:17.189Z</time></trkpt><trkpt lat="39.5748913" lon="21.1297418"><ele>833.0</ele><time>2026-04-27T07:58:18.188Z</time></trkpt><trkpt lat="39.5749718" lon="21.1296846"><ele>833.0</ele><time>2026-04-27T07:58:19.189Z</time></trkpt><trkpt lat="39.5750535" lon="21.1296171"><ele>833.0</ele><time>2026-04-27T07:58:20.188Z</time></trkpt><trkpt lat="39.5751323" lon="21.1295465"><ele>833.0</ele><time>2026-04-27T07:58:21.189Z</time></trkpt><trkpt lat="39.5752054" lon="21.1294832"><ele>833.0</ele><time>2026-04-27T07:58:22.188Z</time></trkpt><trkpt lat="39.5752796" lon="21.129424"><ele>833.0000000000001</ele><time>2026-04-27T07:58:23.188Z</time></trkpt><trkpt lat="39.5753527" lon="21.1293664"><ele>833.0</ele><time>2026-04-27T07:58:24.188Z</time></trkpt><trkpt lat="39.5754242" lon="21.1293112"><ele>833.0</ele><time>2026-04-27T07:58:25.188Z</time></trkpt><trkpt lat="39.5754937" lon="21.1292543"><ele>833.0</ele><time>2026-04-27T07:58:26.189Z</time></trkpt><trkpt lat="39.5755635" lon="21.1291897"><ele>833.0000000000001</ele><time>2026-04-27T07:58:27.189Z</time></trkpt><trkpt lat="39.5756317" lon="21.1291234"><ele>833.0</ele><time>2026-04-27T07:58:28.188Z</time></trkpt><trkpt lat="39.575702" lon="21.1290598"><ele>833.0</ele><time>2026-04-27T07:58:29.188Z</time></trkpt><trkpt lat="39.575778" lon="21.1290088"><ele>833.0</ele><time>2026-04-27T07:58:30.189Z</time></trkpt><trkpt lat="39.5758619" lon="21.1289753"><ele>833.0</ele><time>2026-04-27T07:58:31.189Z</time></trkpt><trkpt lat="39.5759546" lon="21.1289694"><ele>833.0</ele><time>2026-04-27T07:58:32.189Z</time></trkpt><trkpt lat="39.5760477" lon="21.1289892"><ele>833.0</ele><time>2026-04-27T07:58:33.189Z</time></trkpt><trkpt lat="39.5761395" lon="21.1290121"><ele>818.8</ele><time>2026-04-27T07:58:34.189Z</time></trkpt><trkpt lat="39.5762301" lon="21.1290314"><ele>804.5999999999999</ele><time>2026-04-27T07:58:35.188Z</time></trkpt><trkpt lat="39.5763237" lon="21.1290475"><ele>790.4000000000001</ele><time>2026-04-27T07:58:36.188Z</time></trkpt><trkpt lat="39.5764227" lon="21.1290472"><ele>776.2</ele><time>2026-04-27T07:58:37.188Z</time></trkpt><trkpt lat="39.576523" lon="21.1290333"><ele>762.0</ele><time>2026-04-27T07:58:38.189Z</time></trkpt><trkpt lat="39.5766238" lon="21.1290007"><ele>762.0</ele><time>2026-04-27T07:58:39.188Z</time></trkpt><trkpt lat="39.5767197" lon="21.1289462"><ele>762.0</ele><time>2026-04-27T07:58:40.188Z</time></trkpt><trkpt lat="39.5768094" lon="21.1288593"><ele>762.0</ele><time>2026-04-27T07:58:41.189Z</time></trkpt><trkpt lat="39.5768865" lon="21.1287515"><ele>762.0</ele><time>2026-04-27T07:58:42.188Z</time></trkpt><trkpt lat="39.5769544" lon="21.1286294"><ele>762.0</ele><time>2026-04-27T07:58:43.189Z</time></trkpt><trkpt lat="39.5770142" lon="21.1285028"><ele>758.8</ele><time>2026-04-27T07:58:44.188Z</time></trkpt><trkpt lat="39.5770719" lon="21.128381"><ele>755.6</ele><time>2026-04-27T07:58:45.188Z</time></trkpt><trkpt lat="39.5771351" lon="21.1282682"><ele>752.4</ele><time>2026-04-27T07:58:46.189Z</time></trkpt><trkpt lat="39.5772145" lon="21.1281721"><ele>749.1999999999999</ele><time>2026-04-27T07:58:47.189Z</time></trkpt><trkpt lat="39.5772959" lon="21.128079"><ele>746.0</ele><time>2026-04-27T07:58:48.188Z</time></trkpt><trkpt lat="39.5773713" lon="21.1279822"><ele>746.0</ele><time>2026-04-27T07:58:49.188Z</time></trkpt><trkpt lat="39.5774374" lon="21.1278862"><ele>746.0</ele><time>2026-04-27T07:58:50.188Z</time></trkpt><trkpt lat="39.5774966" lon="21.1278001"><ele>746.0</ele><time>2026-04-27T07:58:51.188Z</time></trkpt><trkpt lat="39.5775598" lon="21.1277387"><ele>746.0</ele><time>2026-04-27T07:58:52.189Z</time></trkpt><trkpt lat="39.5776262" lon="21.1277146"><ele>746.0</ele><time>2026-04-27T07:58:53.188Z</time></trkpt><trkpt lat="39.5776953" lon="21.127713"><ele>746.0</ele><time>2026-04-27T07:58:54.189Z</time></trkpt><trkpt lat="39.5777591" lon="21.1277338"><ele>746.0</ele><time>2026-04-27T07:58:55.189Z</time></trkpt><trkpt lat="39.5778272" lon="21.1277489"><ele>746.0</ele><time>2026-04-27T07:58:56.188Z</time></trkpt><trkpt lat="39.5778982" lon="21.127766"><ele>746.0</ele><time>2026-04-27T07:58:57.188Z</time></trkpt><trkpt lat="39.5779702" lon="21.1277791"><ele>746.0</ele><time>2026-04-27T07:58:58.189Z</time></trkpt><trkpt lat="39.5780818" lon="21.1277987"><ele>746.0</ele><time>2026-04-27T07:59:00.188Z</time></trkpt><trkpt lat="39.5781747" lon="21.1277385"><ele>746.0</ele><time>2026-04-27T07:59:02.189Z</time></trkpt><trkpt lat="39.5782266" lon="21.1275947"><ele>748.2857142857143</ele><time>2026-04-27T07:59:04.188Z</time></trkpt><trkpt lat="39.5782344" lon="21.1275082"><ele>750.5714285714287</ele><time>2026-04-27T07:59:05.189Z</time></trkpt><trkpt lat="39.5782428" lon="21.1274191"><ele>752.8571428571429</ele><time>2026-04-27T07:59:06.189Z</time></trkpt><trkpt lat="39.5782509" lon="21.1273251"><ele>755.1428571428571</ele><time>2026-04-27T07:59:07.188Z</time></trkpt><trkpt lat="39.5782585" lon="21.1272302"><ele>757.4285714285714</ele><time>2026-04-27T07:59:08.188Z</time></trkpt><trkpt lat="39.5782655" lon="21.1271256"><ele>759.7142857142857</ele><time>2026-04-27T07:59:09.189Z</time></trkpt><trkpt lat="39.5782831" lon="21.127021"><ele>762.0</ele><time>2026-04-27T07:59:10.188Z</time></trkpt><trkpt lat="39.5783171" lon="21.126912"><ele>762.0</ele><time>2026-04-27T07:59:11.188Z</time></trkpt><trkpt lat="39.5783528" lon="21.1268089"><ele>762.0</ele><time>2026-04-27T07:59:12.189Z</time></trkpt><trkpt lat="39.578389" lon="21.1266987"><ele>762.0</ele><time>2026-04-27T07:59:13.188Z</time></trkpt><trkpt lat="39.5784247" lon="21.1265913"><ele>762.0</ele><time>2026-04-27T07:59:14.188Z</time></trkpt><trkpt lat="39.5784641" lon="21.1264851"><ele>762.0</ele><time>2026-04-27T07:59:15.188Z</time></trkpt><trkpt lat="39.5785067" lon="21.1263786"><ele>762.6666666666666</ele><time>2026-04-27T07:59:16.188Z</time></trkpt><trkpt lat="39.5785481" lon="21.1262743"><ele>763.3333333333334</ele><time>2026-04-27T07:59:17.188Z</time></trkpt><trkpt lat="39.5785804" lon="21.1261654"><ele>764.0</ele><time>2026-04-27T07:59:18.188Z</time></trkpt><trkpt lat="39.5786022" lon="21.1260545"><ele>764.6666666666667</ele><time>2026-04-27T07:59:19.189Z</time></trkpt><trkpt lat="39.5786098" lon="21.1259432"><ele>765.3333333333334</ele><time>2026-04-27T07:59:20.188Z</time></trkpt><trkpt lat="39.5786" lon="21.1258345"><ele>766.0</ele><time>2026-04-27T07:59:21.189Z</time></trkpt><trkpt lat="39.5785846" lon="21.1257275"><ele>766.1666666666667</ele><time>2026-04-27T07:59:22.188Z</time></trkpt><trkpt lat="39.5785632" lon="21.1256212"><ele>766.3333333333334</ele><time>2026-04-27T07:59:23.189Z</time></trkpt><trkpt lat="39.5785534" lon="21.1255127"><ele>766.5</ele><time>2026-04-27T07:59:24.188Z</time></trkpt><trkpt lat="39.5785468" lon="21.1254025"><ele>766.6666666666666</ele><time>2026-04-27T07:59:25.188Z</time></trkpt><trkpt lat="39.5785464" lon="21.1252944"><ele>766.8333333333333</ele><time>2026-04-27T07:59:26.188Z</time></trkpt><trkpt lat="39.5785593" lon="21.1251906"><ele>767.0</ele><time>2026-04-27T07:59:27.189Z</time></trkpt><trkpt lat="39.5785835" lon="21.1250912"><ele>767.0</ele><time>2026-04-27T07:59:28.189Z</time></trkpt><trkpt lat="39.5786017" lon="21.1249974"><ele>767.0</ele><time>2026-04-27T07:59:29.188Z</time></trkpt><trkpt lat="39.5786165" lon="21.1249092"><ele>767.0</ele><time>2026-04-27T07:59:30.188Z</time></trkpt><trkpt lat="39.5786318" lon="21.1248279"><ele>767.0</ele><time>2026-04-27T07:59:31.188Z</time></trkpt><trkpt lat="39.5786675" lon="21.1247027"><ele>767.0</ele><time>2026-04-27T07:59:33.189Z</time></trkpt><trkpt lat="39.578739" lon="21.1246357"><ele>767.0</ele><time>2026-04-27T07:59:35.188Z</time></trkpt><trkpt lat="39.5788046" lon="21.1247135"><ele>780.75</ele><time>2026-04-27T07:59:37.188Z</time></trkpt><trkpt lat="39.5787888" lon="21.1248381"><ele>794.5</ele><time>2026-04-27T07:59:39.189Z</time></trkpt><trkpt lat="39.578708" lon="21.1250743"><ele>808.25</ele><time>2026-04-27T07:59:42.189Z</time></trkpt><trkpt lat="39.5786925" lon="21.1251735"><ele>822.0</ele><time>2026-04-27T07:59:43.188Z</time></trkpt><trkpt lat="39.5786977" lon="21.1252815"><ele>823.2</ele><time>2026-04-27T07:59:44.188Z</time></trkpt><trkpt lat="39.5787168" lon="21.1253971"><ele>824.4000000000001</ele><time>2026-04-27T07:59:45.189Z</time></trkpt><trkpt lat="39.5787435" lon="21.1255162"><ele>825.5999999999999</ele><time>2026-04-27T07:59:46.188Z</time></trkpt><trkpt lat="39.5787774" lon="21.1256336"><ele>826.8</ele><time>2026-04-27T07:59:47.188Z</time></trkpt><trkpt lat="39.578816" lon="21.1257464"><ele>828.0</ele><time>2026-04-27T07:59:48.189Z</time></trkpt><trkpt lat="39.5788518" lon="21.1258455"><ele>828.0</ele><time>2026-04-27T07:59:49.188Z</time></trkpt><trkpt lat="39.5788741" lon="21.1259251"><ele>828.0</ele><time>2026-04-27T07:59:50.188Z</time></trkpt><trkpt lat="39.5788923" lon="21.1260213"><ele>828.0</ele><time>2026-04-27T07:59:52.188Z</time></trkpt><trkpt lat="39.5789135" lon="21.1261331"><ele>828.0</ele><time>2026-04-27T07:59:56.188Z</time></trkpt><trkpt lat="39.5789147" lon="21.1262487"><ele>828.0</ele><time>2026-04-27T07:59:58.189Z</time></trkpt><trkpt lat="39.5789127" lon="21.1264066"><ele>828.0</ele><time>2026-04-27T08:00:00.188Z</time></trkpt><trkpt lat="39.5788995" lon="21.1265567"><ele>828.8</ele><time>2026-04-27T08:00:02.189Z</time></trkpt><trkpt lat="39.5788787" lon="21.1266946"><ele>829.5999999999999</ele><time>2026-04-27T08:00:04.189Z</time></trkpt><trkpt lat="39.5788367" lon="21.1268271"><ele>830.4000000000001</ele><time>2026-04-27T08:00:06.188Z</time></trkpt><trkpt lat="39.5787585" lon="21.1269267"><ele>831.2</ele><time>2026-04-27T08:00:08.188Z</time></trkpt><trkpt lat="39.5786761" lon="21.1270404"><ele>832.0</ele><time>2026-04-27T08:00:10.189Z</time></trkpt><trkpt lat="39.5786417" lon="21.1271125"><ele>819.6</ele><time>2026-04-27T08:00:11.188Z</time></trkpt><trkpt lat="39.5786171" lon="21.1271936"><ele>807.2</ele><time>2026-04-27T08:00:12.189Z</time></trkpt><trkpt lat="39.5786069" lon="21.1272804"><ele>794.8</ele><time>2026-04-27T08:00:13.188Z</time></trkpt><trkpt lat="39.578612" lon="21.1274431"><ele>782.4</ele><time>2026-04-27T08:00:15.189Z</time></trkpt><trkpt lat="39.5786041" lon="21.1275903"><ele>770.0</ele><time>2026-04-27T08:00:17.188Z</time></trkpt><trkpt lat="39.5785891" lon="21.1277245"><ele>770.0</ele><time>2026-04-27T08:00:19.189Z</time></trkpt><trkpt lat="39.5785861" lon="21.1278447"><ele>770.0</ele><time>2026-04-27T08:00:21.189Z</time></trkpt><trkpt lat="39.5786306" lon="21.1279786"><ele>770.0</ele><time>2026-04-27T08:00:23.188Z</time></trkpt><trkpt lat="39.5786877" lon="21.1281203"><ele>770.0</ele><time>2026-04-27T08:00:25.189Z</time></trkpt><trkpt lat="39.5787171" lon="21.1282494"><ele>770.0</ele><time>2026-04-27T08:00:27.188Z</time></trkpt><trkpt lat="39.5787151" lon="21.1283573"><ele>773.6666666666667</ele><time>2026-04-27T08:00:29.188Z</time></trkpt><trkpt lat="39.5786653" lon="21.1284878"><ele>777.3333333333334</ele><time>2026-04-27T08:00:31.189Z</time></trkpt><trkpt lat="39.5786175" lon="21.1285547"><ele>781.0</ele><time>2026-04-27T08:00:32.189Z</time></trkpt><trkpt lat="39.5785803" lon="21.1286249"><ele>784.6666666666667</ele><time>2026-04-27T08:00:33.188Z</time></trkpt><trkpt lat="39.578557" lon="21.1287012"><ele>788.3333333333334</ele><time>2026-04-27T08:00:34.188Z</time></trkpt><trkpt lat="39.5785609" lon="21.1288515"><ele>792.0</ele><time>2026-04-27T08:00:36.189Z</time></trkpt><trkpt lat="39.5786033" lon="21.1289935"><ele>794.5</ele><time>2026-04-27T08:00:38.188Z</time></trkpt><trkpt lat="39.5786781" lon="21.1291086"><ele>797.0</ele><time>2026-04-27T08:00:40.188Z</time></trkpt><trkpt lat="39.5787346" lon="21.1292015"><ele>799.5</ele><time>2026-04-27T08:00:42.189Z</time></trkpt><trkpt lat="39.5787335" lon="21.1293051"><ele>802.0</ele><time>2026-04-27T08:00:45.189Z</time></trkpt><trkpt lat="39.5786849" lon="21.1293614"><ele>804.5</ele><time>2026-04-27T08:00:47.188Z</time></trkpt><trkpt lat="39.578598" lon="21.1294114"><ele>807.0</ele><time>2026-04-27T08:00:49.188Z</time></trkpt><trkpt lat="39.5784903" lon="21.1294411"><ele>807.0</ele><time>2026-04-27T08:00:51.188Z</time></trkpt><trkpt lat="39.5783745" lon="21.1294665"><ele>807.0</ele><time>2026-04-27T08:00:53.189Z</time></trkpt><trkpt lat="39.5783105" lon="21.1294906"><ele>807.0</ele><time>2026-04-27T08:00:54.189Z</time></trkpt><trkpt lat="39.5782492" lon="21.1295238"><ele>807.0</ele><time>2026-04-27T08:00:55.189Z</time></trkpt><trkpt lat="39.5781928" lon="21.1295645"><ele>807.0</ele><time>2026-04-27T08:00:56.189Z</time></trkpt><trkpt lat="39.5781408" lon="21.1296197"><ele>807.0</ele><time>2026-04-27T08:00:57.189Z</time></trkpt><trkpt lat="39.5781051" lon="21.129707"><ele>807.0</ele><time>2026-04-27T08:00:58.189Z</time></trkpt><trkpt lat="39.5780878" lon="21.1298215"><ele>807.0</ele><time>2026-04-27T08:00:59.188Z</time></trkpt><trkpt lat="39.5780891" lon="21.1299464"><ele>807.0</ele><time>2026-04-27T08:01:00.189Z</time></trkpt><trkpt lat="39.5780982" lon="21.1300643"><ele>807.0</ele><time>2026-04-27T08:01:01.188Z</time></trkpt><trkpt lat="39.5781056" lon="21.1301859"><ele>807.0</ele><time>2026-04-27T08:01:02.189Z</time></trkpt><trkpt lat="39.5780976" lon="21.1303013"><ele>803.6666666666666</ele><time>2026-04-27T08:01:03.189Z</time></trkpt><trkpt lat="39.5780768" lon="21.130402"><ele>800.3333333333333</ele><time>2026-04-27T08:01:04.188Z</time></trkpt><trkpt lat="39.5780077" lon="21.1304464"><ele>797.0</ele><time>2026-04-27T08:01:05.188Z</time></trkpt><trkpt lat="39.5779316" lon="21.1304587"><ele>793.6666666666666</ele><time>2026-04-27T08:01:06.188Z</time></trkpt><trkpt lat="39.5778573" lon="21.1304545"><ele>790.3333333333333</ele><time>2026-04-27T08:01:07.188Z</time></trkpt><trkpt lat="39.5777815" lon="21.1304839"><ele>787.0</ele><time>2026-04-27T08:01:08.189Z</time></trkpt><trkpt lat="39.5777206" lon="21.1305478"><ele>787.0</ele><time>2026-04-27T08:01:09.188Z</time></trkpt><trkpt lat="39.577671" lon="21.1306448"><ele>787.0</ele><time>2026-04-27T08:01:10.189Z</time></trkpt><trkpt lat="39.5776323" lon="21.1307606"><ele>787.0</ele><time>2026-04-27T08:01:11.189Z</time></trkpt><trkpt lat="39.5775985" lon="21.1308748"><ele>787.0</ele><time>2026-04-27T08:01:12.189Z</time></trkpt><trkpt lat="39.5775493" lon="21.1309636"><ele>787.0</ele><time>2026-04-27T08:01:13.188Z</time></trkpt><trkpt lat="39.5774778" lon="21.1310237"><ele>797.8</ele><time>2026-04-27T08:01:14.188Z</time></trkpt><trkpt lat="39.5773979" lon="21.1310308"><ele>808.6</ele><time>2026-04-27T08:01:15.189Z</time></trkpt><trkpt lat="39.5773094" lon="21.1310246"><ele>819.4</ele><time>2026-04-27T08:01:16.189Z</time></trkpt><trkpt lat="39.5772145" lon="21.1310237"><ele>830.1999999999999</ele><time>2026-04-27T08:01:17.189Z</time></trkpt><trkpt lat="39.5771188" lon="21.1310616"><ele>841.0</ele><time>2026-04-27T08:01:18.189Z</time></trkpt><trkpt lat="39.5770193" lon="21.1311115"><ele>827.5</ele><time>2026-04-27T08:01:19.188Z</time></trkpt><trkpt lat="39.5769249" lon="21.1312087"><ele>814.0</ele><time>2026-04-27T08:01:20.189Z</time></trkpt><trkpt lat="39.5768299" lon="21.1312908"><ele>800.5</ele><time>2026-04-27T08:01:21.188Z</time></trkpt><trkpt lat="39.5767293" lon="21.1313683"><ele>787.0</ele><time>2026-04-27T08:01:22.189Z</time></trkpt><trkpt lat="39.5766415" lon="21.1314482"><ele>800.0</ele><time>2026-04-27T08:01:23.188Z</time></trkpt><trkpt lat="39.5765762" lon="21.1315589"><ele>813.0</ele><time>2026-04-27T08:01:24.189Z</time></trkpt><trkpt lat="39.576528" lon="21.1316949"><ele>826.0</ele><time>2026-04-27T08:01:25.189Z</time></trkpt><trkpt lat="39.57648" lon="21.1318119"><ele>839.0</ele><time>2026-04-27T08:01:26.189Z</time></trkpt><trkpt lat="39.5764288" lon="21.1319096"><ele>852.0</ele><time>2026-04-27T08:01:27.189Z</time></trkpt><trkpt lat="39.5763557" lon="21.131984"><ele>852.0</ele><time>2026-04-27T08:01:28.189Z</time></trkpt><trkpt lat="39.5762645" lon="21.1320209"><ele>852.0</ele><time>2026-04-27T08:01:29.189Z</time></trkpt><trkpt lat="39.5761769" lon="21.1320739"><ele>852.0</ele><time>2026-04-27T08:01:30.189Z</time></trkpt><trkpt lat="39.5760917" lon="21.1321286"><ele>852.0</ele><time>2026-04-27T08:01:31.188Z</time></trkpt><trkpt lat="39.5760148" lon="21.1321917"><ele>852.0</ele><time>2026-04-27T08:01:32.188Z</time></trkpt><trkpt lat="39.5759499" lon="21.1322674"><ele>848.3333333333334</ele><time>2026-04-27T08:01:33.188Z</time></trkpt><trkpt lat="39.5758973" lon="21.1323542"><ele>844.6666666666667</ele><time>2026-04-27T08:01:34.189Z</time></trkpt><trkpt lat="39.5758704" lon="21.1324591"><ele>841.0</ele><time>2026-04-27T08:01:35.188Z</time></trkpt><trkpt lat="39.5758555" lon="21.1325741"><ele>837.3333333333334</ele><time>2026-04-27T08:01:36.188Z</time></trkpt><trkpt lat="39.5758162" lon="21.1326768"><ele>833.6666666666667</ele><time>2026-04-27T08:01:37.188Z</time></trkpt><trkpt lat="39.5757541" lon="21.132763"><ele>830.0</ele><time>2026-04-27T08:01:38.188Z</time></trkpt><trkpt lat="39.5757054" lon="21.1328512"><ele>830.0000000000001</ele><time>2026-04-27T08:01:39.189Z</time></trkpt><trkpt lat="39.5756893" lon="21.1329561"><ele>830.0</ele><time>2026-04-27T08:01:40.189Z</time></trkpt><trkpt lat="39.5757029" lon="21.1330634"><ele>830.0</ele><time>2026-04-27T08:01:41.188Z</time></trkpt><trkpt lat="39.5757239" lon="21.1331723"><ele>830.0</ele><time>2026-04-27T08:01:42.189Z</time></trkpt><trkpt lat="39.5757198" lon="21.13329"><ele>830.0000000000001</ele><time>2026-04-27T08:01:43.189Z</time></trkpt><trkpt lat="39.5756972" lon="21.1333801"><ele>830.0</ele><time>2026-04-27T08:01:44.189Z</time></trkpt><trkpt lat="39.5756487" lon="21.1334685"><ele>839.8333333333334</ele><time>2026-04-27T08:01:45.189Z</time></trkpt><trkpt lat="39.5755955" lon="21.133541"><ele>849.6666666666667</ele><time>2026-04-27T08:01:46.189Z</time></trkpt><trkpt lat="39.5755205" lon="21.1336046"><ele>859.5</ele><time>2026-04-27T08:01:47.189Z</time></trkpt><trkpt lat="39.5754602" lon="21.1336735"><ele>869.3333333333333</ele><time>2026-04-27T08:01:48.188Z</time></trkpt><trkpt lat="39.5753996" lon="21.1337497"><ele>879.1666666666666</ele><time>2026-04-27T08:01:49.188Z</time></trkpt><trkpt lat="39.5754043" lon="21.1338694"><ele>889.0</ele><time>2026-04-27T08:01:50.188Z</time></trkpt><trkpt lat="39.5754197" lon="21.1339921"><ele>897.2</ele><time>2026-04-27T08:01:51.188Z</time></trkpt><trkpt lat="39.5754437" lon="21.1341224"><ele>905.4000000000001</ele><time>2026-04-27T08:01:52.189Z</time></trkpt><trkpt lat="39.5754488" lon="21.1342657"><ele>913.6</ele><time>2026-04-27T08:01:53.188Z</time></trkpt><trkpt lat="39.5754477" lon="21.1344111"><ele>921.8</ele><time>2026-04-27T08:01:54.189Z</time></trkpt><trkpt lat="39.5754394" lon="21.1345506"><ele>930.0</ele><time>2026-04-27T08:01:55.189Z</time></trkpt><trkpt lat="39.5754395" lon="21.1346687"><ele>930.0</ele><time>2026-04-27T08:01:56.189Z</time></trkpt><trkpt lat="39.5754656" lon="21.1347755"><ele>930.0</ele><time>2026-04-27T08:01:57.189Z</time></trkpt><trkpt lat="39.5755039" lon="21.1348734"><ele>930.0</ele><time>2026-04-27T08:01:58.188Z</time></trkpt><trkpt lat="39.5755962" lon="21.1349434"><ele>930.0</ele><time>2026-04-27T08:01:59.189Z</time></trkpt><trkpt lat="39.5756696" lon="21.1350261"><ele>930.0</ele><time>2026-04-27T08:02:00.188Z</time></trkpt><trkpt lat="39.5757227" lon="21.1351174"><ele>925.3333333333334</ele><time>2026-04-27T08:02:01.188Z</time></trkpt><trkpt lat="39.5757631" lon="21.1352178"><ele>920.6666666666667</ele><time>2026-04-27T08:02:02.189Z</time></trkpt><trkpt lat="39.575774" lon="21.1353232"><ele>916.0</ele><time>2026-04-27T08:02:03.188Z</time></trkpt><trkpt lat="39.5757704" lon="21.135439"><ele>911.3333333333334</ele><time>2026-04-27T08:02:04.188Z</time></trkpt><trkpt lat="39.575786" lon="21.1355516"><ele>906.6666666666667</ele><time>2026-04-27T08:02:05.189Z</time></trkpt><trkpt lat="39.5758287" lon="21.1356563"><ele>902.0</ele><time>2026-04-27T08:02:06.188Z</time></trkpt><trkpt lat="39.5758922" lon="21.135743"><ele>904.6</ele><time>2026-04-27T08:02:07.188Z</time></trkpt><trkpt lat="39.5759839" lon="21.1358121"><ele>907.2</ele><time>2026-04-27T08:02:08.189Z</time></trkpt><trkpt lat="39.5760882" lon="21.1358678"><ele>909.8</ele><time>2026-04-27T08:02:09.188Z</time></trkpt><trkpt lat="39.5761891" lon="21.1359226"><ele>912.4</ele><time>2026-04-27T08:02:10.189Z</time></trkpt><trkpt lat="39.5762656" lon="21.1360065"><ele>915.0</ele><time>2026-04-27T08:02:11.189Z</time></trkpt><trkpt lat="39.5763249" lon="21.136129"><ele>915.0</ele><time>2026-04-27T08:02:12.189Z</time></trkpt><trkpt lat="39.576373" lon="21.1362625"><ele>915.0</ele><time>2026-04-27T08:02:13.189Z</time></trkpt><trkpt lat="39.5764118" lon="21.1363985"><ele>915.0</ele><time>2026-04-27T08:02:14.189Z</time></trkpt><trkpt lat="39.5764501" lon="21.1365333"><ele>915.0</ele><time>2026-04-27T08:02:15.189Z</time></trkpt><trkpt lat="39.5765027" lon="21.1366384"><ele>915.0</ele><time>2026-04-27T08:02:16.189Z</time></trkpt><trkpt lat="39.5765706" lon="21.1367355"><ele>914.8</ele><time>2026-04-27T08:02:17.189Z</time></trkpt><trkpt lat="39.5766526" lon="21.1368021"><ele>914.6</ele><time>2026-04-27T08:02:18.189Z</time></trkpt><trkpt lat="39.5767374" lon="21.1368423"><ele>914.4000000000001</ele><time>2026-04-27T08:02:19.189Z</time></trkpt><trkpt lat="39.5768353" lon="21.1368408"><ele>914.2</ele><time>2026-04-27T08:02:20.188Z</time></trkpt><trkpt lat="39.5769376" lon="21.1368231"><ele>914.0</ele><time>2026-04-27T08:02:21.189Z</time></trkpt><trkpt lat="39.5770385" lon="21.136819"><ele>914.0</ele><time>2026-04-27T08:02:22.189Z</time></trkpt><trkpt lat="39.5771436" lon="21.1368228"><ele>914.0000000000001</ele><time>2026-04-27T08:02:23.189Z</time></trkpt><trkpt lat="39.5772499" lon="21.1368245"><ele>914.0000000000001</ele><time>2026-04-27T08:02:24.189Z</time></trkpt><trkpt lat="39.5773469" lon="21.136833"><ele>914.0</ele><time>2026-04-27T08:02:25.189Z</time></trkpt><trkpt lat="39.5774278" lon="21.1368587"><ele>914.0</ele><time>2026-04-27T08:02:26.188Z</time></trkpt><trkpt lat="39.5774966" lon="21.1369019"><ele>914.0000000000001</ele><time>2026-04-27T08:02:27.188Z</time></trkpt><trkpt lat="39.5775519" lon="21.1369624"><ele>914.0</ele><time>2026-04-27T08:02:28.188Z</time></trkpt><trkpt lat="39.5775957" lon="21.1370436"><ele>914.0</ele><time>2026-04-27T08:02:29.188Z</time></trkpt><trkpt lat="39.5776332" lon="21.1371418"><ele>914.0</ele><time>2026-04-27T08:02:30.189Z</time></trkpt><trkpt lat="39.5776573" lon="21.1372539"><ele>914.0000000000001</ele><time>2026-04-27T08:02:31.188Z</time></trkpt><trkpt lat="39.5776798" lon="21.1373669"><ele>914.0</ele><time>2026-04-27T08:02:32.189Z</time></trkpt><trkpt lat="39.5776983" lon="21.1374699"><ele>917.6666666666667</ele><time>2026-04-27T08:02:33.188Z</time></trkpt><trkpt lat="39.5777278" lon="21.1375602"><ele>921.3333333333334</ele><time>2026-04-27T08:02:34.188Z</time></trkpt><trkpt lat="39.5777758" lon="21.137636"><ele>925.0</ele><time>2026-04-27T08:02:35.188Z</time></trkpt><trkpt lat="39.5778456" lon="21.1377118"><ele>928.6666666666667</ele><time>2026-04-27T08:02:36.189Z</time></trkpt><trkpt lat="39.5779142" lon="21.1377956"><ele>932.3333333333334</ele><time>2026-04-27T08:02:37.188Z</time></trkpt><trkpt lat="39.5779791" lon="21.1378709"><ele>936.0</ele><time>2026-04-27T08:02:38.188Z</time></trkpt><trkpt lat="39.5780549" lon="21.1379379"><ele>936.0</ele><time>2026-04-27T08:02:39.189Z</time></trkpt><trkpt lat="39.5781334" lon="21.1379926"><ele>936.0</ele><time>2026-04-27T08:02:40.188Z</time></trkpt><trkpt lat="39.5782156" lon="21.1380434"><ele>936.0</ele><time>2026-04-27T08:02:41.189Z</time></trkpt><trkpt lat="39.5782907" lon="21.1380991"><ele>936.0</ele><time>2026-04-27T08:02:42.189Z</time></trkpt><trkpt lat="39.5783628" lon="21.138167"><ele>936.0</ele><time>2026-04-27T08:02:43.189Z</time></trkpt><trkpt lat="39.5784234" lon="21.1382368"><ele>936.0</ele><time>2026-04-27T08:02:44.188Z</time></trkpt><trkpt lat="39.5784849" lon="21.1383136"><ele>934.5</ele><time>2026-04-27T08:02:45.189Z</time></trkpt><trkpt lat="39.5785406" lon="21.1383967"><ele>933.0</ele><time>2026-04-27T08:02:46.189Z</time></trkpt><trkpt lat="39.5785826" lon="21.1384895"><ele>931.5</ele><time>2026-04-27T08:02:47.188Z</time></trkpt><trkpt lat="39.5786161" lon="21.1385829"><ele>930.0</ele><time>2026-04-27T08:02:48.188Z</time></trkpt><trkpt lat="39.578656" lon="21.1386694"><ele>928.5</ele><time>2026-04-27T08:02:49.189Z</time></trkpt><trkpt lat="39.5787092" lon="21.1387488"><ele>927.0</ele><time>2026-04-27T08:02:50.188Z</time></trkpt><trkpt lat="39.5787857" lon="21.1388139"><ele>927.0</ele><time>2026-04-27T08:02:51.189Z</time></trkpt><trkpt lat="39.5788719" lon="21.1388411"><ele>927.0</ele><time>2026-04-27T08:02:52.188Z</time></trkpt><trkpt lat="39.5789628" lon="21.1388313"><ele>927.0</ele><time>2026-04-27T08:02:53.189Z</time></trkpt><trkpt lat="39.5790497" lon="21.1388053"><ele>927.0</ele><time>2026-04-27T08:02:54.188Z</time></trkpt><trkpt lat="39.5791427" lon="21.13879"><ele>927.0</ele><time>2026-04-27T08:02:55.188Z</time></trkpt><trkpt lat="39.5792382" lon="21.1388136"><ele>927.0</ele><time>2026-04-27T08:02:56.188Z</time></trkpt><trkpt lat="39.5793293" lon="21.1388553"><ele>927.0</ele><time>2026-04-27T08:02:57.189Z</time></trkpt><trkpt lat="39.5794123" lon="21.1389316"><ele>927.0</ele><time>2026-04-27T08:02:58.189Z</time></trkpt><trkpt lat="39.57948" lon="21.1390194"><ele>927.0</ele><time>2026-04-27T08:02:59.189Z</time></trkpt><trkpt lat="39.5795381" lon="21.1391316"><ele>927.0</ele><time>2026-04-27T08:03:00.189Z</time></trkpt><trkpt lat="39.579583" lon="21.1392454"><ele>927.6</ele><time>2026-04-27T08:03:01.188Z</time></trkpt><trkpt lat="39.5796295" lon="21.1393564"><ele>928.2</ele><time>2026-04-27T08:03:02.188Z</time></trkpt><trkpt lat="39.579673" lon="21.139463"><ele>928.8</ele><time>2026-04-27T08:03:03.188Z</time></trkpt><trkpt lat="39.5797228" lon="21.1395654"><ele>929.4</ele><time>2026-04-27T08:03:04.189Z</time></trkpt><trkpt lat="39.5797721" lon="21.1396588"><ele>930.0</ele><time>2026-04-27T08:03:05.188Z</time></trkpt><trkpt lat="39.5798341" lon="21.1397391"><ele>930.0</ele><time>2026-04-27T08:03:06.189Z</time></trkpt><trkpt lat="39.5799113" lon="21.139791"><ele>930.0</ele><time>2026-04-27T08:03:07.188Z</time></trkpt><trkpt lat="39.5799996" lon="21.1398074"><ele>930.0</ele><time>2026-04-27T08:03:08.189Z</time></trkpt><trkpt lat="39.5800969" lon="21.1397862"><ele>930.0</ele><time>2026-04-27T08:03:09.188Z</time></trkpt><trkpt lat="39.5801849" lon="21.1397325"><ele>930.0</ele><time>2026-04-27T08:03:10.188Z</time></trkpt><trkpt lat="39.5802653" lon="21.1396707"><ele>936.4</ele><time>2026-04-27T08:03:11.189Z</time></trkpt><trkpt lat="39.5803593" lon="21.1396261"><ele>942.8</ele><time>2026-04-27T08:03:12.189Z</time></trkpt><trkpt lat="39.5804488" lon="21.1396107"><ele>949.2</ele><time>2026-04-27T08:03:13.188Z</time></trkpt><trkpt lat="39.5805358" lon="21.1396231"><ele>955.6</ele><time>2026-04-27T08:03:14.189Z</time></trkpt><trkpt lat="39.5806238" lon="21.1396577"><ele>962.0</ele><time>2026-04-27T08:03:15.188Z</time></trkpt><trkpt lat="39.5807126" lon="21.1397098"><ele>962.0</ele><time>2026-04-27T08:03:16.188Z</time></trkpt><trkpt lat="39.5807974" lon="21.1397683"><ele>962.0</ele><time>2026-04-27T08:03:17.188Z</time></trkpt><trkpt lat="39.580883" lon="21.1398184"><ele>962.0</ele><time>2026-04-27T08:03:18.189Z</time></trkpt><trkpt lat="39.5809735" lon="21.139869"><ele>962.0</ele><time>2026-04-27T08:03:19.189Z</time></trkpt><trkpt lat="39.5810613" lon="21.1399217"><ele>962.0</ele><time>2026-04-27T08:03:20.189Z</time></trkpt><trkpt lat="39.5811482" lon="21.1400018"><ele>960.0</ele><time>2026-04-27T08:03:21.188Z</time></trkpt><trkpt lat="39.5812237" lon="21.1400904"><ele>958.0</ele><time>2026-04-27T08:03:22.188Z</time></trkpt><trkpt lat="39.581289" lon="21.1401866"><ele>956.0</ele><time>2026-04-27T08:03:23.188Z</time></trkpt><trkpt lat="39.5813509" lon="21.1402813"><ele>954.0</ele><time>2026-04-27T08:03:24.189Z</time></trkpt><trkpt lat="39.5814206" lon="21.140361"><ele>952.0</ele><time>2026-04-27T08:03:25.188Z</time></trkpt><trkpt lat="39.581493" lon="21.1404253"><ele>951.9999999999999</ele><time>2026-04-27T08:03:26.188Z</time></trkpt><trkpt lat="39.5815752" lon="21.140473"><ele>952.0</ele><time>2026-04-27T08:03:27.188Z</time></trkpt><trkpt lat="39.5816659" lon="21.1404954"><ele>952.0</ele><time>2026-04-27T08:03:28.188Z</time></trkpt><trkpt lat="39.5817618" lon="21.1404974"><ele>952.0</ele><time>2026-04-27T08:03:29.188Z</time></trkpt><trkpt lat="39.5818465" lon="21.140484"><ele>951.9999999999999</ele><time>2026-04-27T08:03:30.188Z</time></trkpt><trkpt lat="39.581913" lon="21.1404554"><ele>952.0</ele><time>2026-04-27T08:03:31.189Z</time></trkpt><trkpt lat="39.5819669" lon="21.1404008"><ele>951.9999999999999</ele><time>2026-04-27T08:03:32.188Z</time></trkpt><trkpt lat="39.581997" lon="21.1403257"><ele>952.0</ele><time>2026-04-27T08:03:33.189Z</time></trkpt><trkpt lat="39.5819997" lon="21.1402352"><ele>952.0</ele><time>2026-04-27T08:03:34.188Z</time></trkpt><trkpt lat="39.5819708" lon="21.1401373"><ele>952.0</ele><time>2026-04-27T08:03:35.188Z</time></trkpt><trkpt lat="39.5819128" lon="21.1400472"><ele>951.9999999999999</ele><time>2026-04-27T08:03:36.189Z</time></trkpt><trkpt lat="39.5818345" lon="21.1399548"><ele>952.0</ele><time>2026-04-27T08:03:37.189Z</time></trkpt><trkpt lat="39.5817386" lon="21.1398649"><ele>963.5</ele><time>2026-04-27T08:03:38.188Z</time></trkpt><trkpt lat="39.5816285" lon="21.1397656"><ele>975.0</ele><time>2026-04-27T08:03:39.188Z</time></trkpt><trkpt lat="39.5815251" lon="21.139663"><ele>986.5</ele><time>2026-04-27T08:03:40.189Z</time></trkpt><trkpt lat="39.5814193" lon="21.1395444"><ele>998.0</ele><time>2026-04-27T08:03:41.189Z</time></trkpt><trkpt lat="39.5813069" lon="21.1394127"><ele>996.3333333333334</ele><time>2026-04-27T08:03:42.188Z</time></trkpt><trkpt lat="39.5811814" lon="21.1392839"><ele>994.6666666666667</ele><time>2026-04-27T08:03:43.189Z</time></trkpt><trkpt lat="39.5810529" lon="21.1391516"><ele>993.0</ele><time>2026-04-27T08:03:44.188Z</time></trkpt><trkpt lat="39.5809313" lon="21.1390207"><ele>993.0</ele><time>2026-04-27T08:03:45.188Z</time></trkpt><trkpt lat="39.5808093" lon="21.1388937"><ele>993.0</ele><time>2026-04-27T08:03:46.189Z</time></trkpt><trkpt lat="39.5806904" lon="21.1387697"><ele>993.0</ele><time>2026-04-27T08:03:47.188Z</time></trkpt><trkpt lat="39.5805704" lon="21.1386453"><ele>993.0</ele><time>2026-04-27T08:03:48.188Z</time></trkpt><trkpt lat="39.5804626" lon="21.1385057"><ele>993.0</ele><time>2026-04-27T08:03:49.189Z</time></trkpt><trkpt lat="39.5803556" lon="21.1383655"><ele>993.0</ele><time>2026-04-27T08:03:50.188Z</time></trkpt><trkpt lat="39.5802623" lon="21.1382304"><ele>993.0</ele><time>2026-04-27T08:03:51.188Z</time></trkpt><trkpt lat="39.5801765" lon="21.138112"><ele>994.75</ele><time>2026-04-27T08:03:52.188Z</time></trkpt><trkpt lat="39.5800647" lon="21.1380085"><ele>996.5</ele><time>2026-04-27T08:03:53.188Z</time></trkpt><trkpt lat="39.5799412" lon="21.1379265"><ele>998.25</ele><time>2026-04-27T08:03:54.189Z</time></trkpt><trkpt lat="39.5798192" lon="21.1378425"><ele>1000.0</ele><time>2026-04-27T08:03:55.188Z</time></trkpt><trkpt lat="39.5797012" lon="21.1377625"><ele>1000.0</ele><time>2026-04-27T08:03:56.189Z</time></trkpt><trkpt lat="39.5795902" lon="21.1376742"><ele>1000.0</ele><time>2026-04-27T08:03:57.188Z</time></trkpt><trkpt lat="39.5794936" lon="21.1375858"><ele>1000.0</ele><time>2026-04-27T08:03:58.188Z</time></trkpt><trkpt lat="39.5794139" lon="21.1375269"><ele>1000.0</ele><time>2026-04-27T08:03:59.188Z</time></trkpt><trkpt lat="39.5793212" lon="21.1375064"><ele>1000.0</ele><time>2026-04-27T08:04:00.188Z</time></trkpt><trkpt lat="39.57923" lon="21.137521"><ele>1001.2</ele><time>2026-04-27T08:04:01.189Z</time></trkpt><trkpt lat="39.5791397" lon="21.1375453"><ele>1002.4</ele><time>2026-04-27T08:04:02.189Z</time></trkpt><trkpt lat="39.5790533" lon="21.1375568"><ele>1003.5999999999999</ele><time>2026-04-27T08:04:03.189Z</time></trkpt><trkpt lat="39.5789808" lon="21.1375297"><ele>1004.8</ele><time>2026-04-27T08:04:04.188Z</time></trkpt><trkpt lat="39.5789134" lon="21.1375005"><ele>1006.0</ele><time>2026-04-27T08:04:05.189Z</time></trkpt><trkpt lat="39.5788636" lon="21.1373197"><ele>1006.0</ele><time>2026-04-27T08:04:06.189Z</time></trkpt><trkpt lat="39.5788278" lon="21.137183"><ele>1006.0</ele><time>2026-04-27T08:04:07.189Z</time></trkpt><trkpt lat="39.5788026" lon="21.1369874"><ele>1006.0</ele><time>2026-04-27T08:04:08.189Z</time></trkpt><trkpt lat="39.5787911" lon="21.1367853"><ele>1006.0</ele><time>2026-04-27T08:04:09.189Z</time></trkpt><trkpt lat="39.5787791" lon="21.1365757"><ele>1002.25</ele><time>2026-04-27T08:04:10.189Z</time></trkpt><trkpt lat="39.5787665" lon="21.1363773"><ele>998.5</ele><time>2026-04-27T08:04:11.189Z</time></trkpt><trkpt lat="39.5787403" lon="21.1361895"><ele>994.75</ele><time>2026-04-27T08:04:12.189Z</time></trkpt><trkpt lat="39.5786962" lon="21.1360112"><ele>991.0</ele><time>2026-04-27T08:04:13.189Z</time></trkpt><trkpt lat="39.5786362" lon="21.1358531"><ele>998.75</ele><time>2026-04-27T08:04:14.188Z</time></trkpt><trkpt lat="39.5785507" lon="21.1356891"><ele>1006.5</ele><time>2026-04-27T08:04:15.189Z</time></trkpt><trkpt lat="39.5784608" lon="21.1355469"><ele>1014.25</ele><time>2026-04-27T08:04:16.189Z</time></trkpt><trkpt lat="39.5783526" lon="21.1354255"><ele>1022.0</ele><time>2026-04-27T08:04:17.188Z</time></trkpt><trkpt lat="39.5782193" lon="21.1353265"><ele>1022.0</ele><time>2026-04-27T08:04:18.188Z</time></trkpt><trkpt lat="39.5780983" lon="21.1352382"><ele>1022.0</ele><time>2026-04-27T08:04:19.189Z</time></trkpt><trkpt lat="39.5779852" lon="21.1351339"><ele>1022.0</ele><time>2026-04-27T08:04:20.188Z</time></trkpt><trkpt lat="39.5778848" lon="21.135052"><ele>1022.0</ele><time>2026-04-27T08:04:21.189Z</time></trkpt><trkpt lat="39.5777633" lon="21.1350084"><ele>1023.75</ele><time>2026-04-27T08:04:22.189Z</time></trkpt><trkpt lat="39.5776265" lon="21.1349888"><ele>1025.5</ele><time>2026-04-27T08:04:23.188Z</time></trkpt><trkpt lat="39.5774843" lon="21.1349567"><ele>1027.25</ele><time>2026-04-27T08:04:24.188Z</time></trkpt><trkpt lat="39.5773534" lon="21.1349215"><ele>1029.0</ele><time>2026-04-27T08:04:25.189Z</time></trkpt><trkpt lat="39.5772355" lon="21.1348625"><ele>1029.0</ele><time>2026-04-27T08:04:26.188Z</time></trkpt><trkpt lat="39.5771221" lon="21.1348035"><ele>1029.0</ele><time>2026-04-27T08:04:27.188Z</time></trkpt><trkpt lat="39.5770615" lon="21.1346783"><ele>1029.0</ele><time>2026-04-27T08:04:28.188Z</time></trkpt><trkpt lat="39.5770099" lon="21.1345831"><ele>1029.0</ele><time>2026-04-27T08:04:29.188Z</time></trkpt><trkpt lat="39.576981" lon="21.134482"><ele>1029.0</ele><time>2026-04-27T08:04:30.189Z</time></trkpt><trkpt lat="39.5769558" lon="21.1343853"><ele>1029.0</ele><time>2026-04-27T08:04:31.189Z</time></trkpt><trkpt lat="39.5769559" lon="21.1342973"><ele>1029.0</ele><time>2026-04-27T08:04:32.188Z</time></trkpt><trkpt lat="39.5770816" lon="21.1342106"><ele>1029.0</ele><time>2026-04-27T08:04:33.189Z</time></trkpt><trkpt lat="39.5771801" lon="21.1341315"><ele>1029.0</ele><time>2026-04-27T08:04:34.188Z</time></trkpt><trkpt lat="39.5772873" lon="21.1340529"><ele>1029.0</ele><time>2026-04-27T08:04:35.188Z</time></trkpt><trkpt lat="39.5773987" lon="21.1339962"><ele>1020.0</ele><time>2026-04-27T08:04:36.189Z</time></trkpt><trkpt lat="39.5775082" lon="21.1339194"><ele>1011.0</ele><time>2026-04-27T08:04:37.188Z</time></trkpt><trkpt lat="39.577616" lon="21.1338192"><ele>1002.0</ele><time>2026-04-27T08:04:38.188Z</time></trkpt><trkpt lat="39.5777083" lon="21.1337148"><ele>993.0</ele><time>2026-04-27T08:04:39.189Z</time></trkpt><trkpt lat="39.5777946" lon="21.1336183"><ele>999.0</ele><time>2026-04-27T08:04:40.188Z</time></trkpt><trkpt lat="39.5778854" lon="21.1335442"><ele>1005.0</ele><time>2026-04-27T08:04:41.189Z</time></trkpt><trkpt lat="39.5779844" lon="21.1335155"><ele>1011.0</ele><time>2026-04-27T08:04:42.188Z</time></trkpt><trkpt lat="39.5780837" lon="21.1335208"><ele>1017.0</ele><time>2026-04-27T08:04:43.188Z</time></trkpt><trkpt lat="39.5781787" lon="21.133547"><ele>1023.0</ele><time>2026-04-27T08:04:44.188Z</time></trkpt><trkpt lat="39.5782618" lon="21.1336007"><ele>1023.0</ele><time>2026-04-27T08:04:45.189Z</time></trkpt><trkpt lat="39.5783508" lon="21.1336492"><ele>1023.0</ele><time>2026-04-27T08:04:46.189Z</time></trkpt><trkpt lat="39.5784529" lon="21.1336705"><ele>1023.0</ele><time>2026-04-27T08:04:47.189Z</time></trkpt><trkpt lat="39.5785579" lon="21.1336631"><ele>1023.0</ele><time>2026-04-27T08:04:48.188Z</time></trkpt><trkpt lat="39.5786611" lon="21.1336243"><ele>1023.0</ele><time>2026-04-27T08:04:49.188Z</time></trkpt><trkpt lat="39.578759" lon="21.1335714"><ele>1027.2</ele><time>2026-04-27T08:04:50.189Z</time></trkpt><trkpt lat="39.5788555" lon="21.1335085"><ele>1031.4</ele><time>2026-04-27T08:04:51.189Z</time></trkpt><trkpt lat="39.5789554" lon="21.1334401"><ele>1035.6000000000001</ele><time>2026-04-27T08:04:52.188Z</time></trkpt><trkpt lat="39.5790384" lon="21.1333688"><ele>1039.8</ele><time>2026-04-27T08:04:53.189Z</time></trkpt><trkpt lat="39.5791168" lon="21.1332955"><ele>1044.0</ele><time>2026-04-27T08:04:54.188Z</time></trkpt><trkpt lat="39.5791963" lon="21.1332301"><ele>1045.6000000000001</ele><time>2026-04-27T08:04:55.188Z</time></trkpt><trkpt lat="39.5792863" lon="21.1332001"><ele>1047.2</ele><time>2026-04-27T08:04:56.189Z</time></trkpt><trkpt lat="39.5793829" lon="21.1331862"><ele>1048.8000000000002</ele><time>2026-04-27T08:04:57.189Z</time></trkpt><trkpt lat="39.5794801" lon="21.1332043"><ele>1050.4</ele><time>2026-04-27T08:04:58.189Z</time></trkpt><trkpt lat="39.5795728" lon="21.1332058"><ele>1052.0</ele><time>2026-04-27T08:04:59.188Z</time></trkpt><trkpt lat="39.5796635" lon="21.1331722"><ele>1052.0</ele><time>2026-04-27T08:05:00.188Z</time></trkpt><trkpt lat="39.5797449" lon="21.1331117"><ele>1052.0</ele><time>2026-04-27T08:05:01.188Z</time></trkpt><trkpt lat="39.5798215" lon="21.1330297"><ele>1052.0</ele><time>2026-04-27T08:05:02.188Z</time></trkpt><trkpt lat="39.5798814" lon="21.1329381"><ele>1052.0</ele><time>2026-04-27T08:05:03.189Z</time></trkpt><trkpt lat="39.5799328" lon="21.1328332"><ele>1052.0</ele><time>2026-04-27T08:05:04.188Z</time></trkpt><trkpt lat="39.5799885" lon="21.132724"><ele>1052.0</ele><time>2026-04-27T08:05:05.189Z</time></trkpt><trkpt lat="39.5800581" lon="21.132636"><ele>1052.0</ele><time>2026-04-27T08:05:06.188Z</time></trkpt><trkpt lat="39.5801435" lon="21.1325613"><ele>1052.0</ele><time>2026-04-27T08:05:07.189Z</time></trkpt><trkpt lat="39.5802319" lon="21.1325056"><ele>1052.0</ele><time>2026-04-27T08:05:08.188Z</time></trkpt><trkpt lat="39.580329" lon="21.1324478"><ele>1052.0</ele><time>2026-04-27T08:05:09.188Z</time></trkpt><trkpt lat="39.5804128" lon="21.1323866"><ele>1056.5</ele><time>2026-04-27T08:05:10.189Z</time></trkpt><trkpt lat="39.5804869" lon="21.1322945"><ele>1061.0</ele><time>2026-04-27T08:05:11.189Z</time></trkpt><trkpt lat="39.5805496" lon="21.132175"><ele>1065.5</ele><time>2026-04-27T08:05:12.189Z</time></trkpt><trkpt lat="39.5806021" lon="21.132037"><ele>1070.0</ele><time>2026-04-27T08:05:13.189Z</time></trkpt><trkpt lat="39.5806544" lon="21.131899"><ele>1070.0</ele><time>2026-04-27T08:05:14.188Z</time></trkpt><trkpt lat="39.5807166" lon="21.1317784"><ele>1070.0</ele><time>2026-04-27T08:05:15.189Z</time></trkpt><trkpt lat="39.5807961" lon="21.1316925"><ele>1070.0</ele><time>2026-04-27T08:05:16.188Z</time></trkpt><trkpt lat="39.5808968" lon="21.1316251"><ele>1070.0</ele><time>2026-04-27T08:05:17.189Z</time></trkpt><trkpt lat="39.5809957" lon="21.1315465"><ele>1070.0</ele><time>2026-04-27T08:05:18.188Z</time></trkpt><trkpt lat="39.5810759" lon="21.13144"><ele>1064.5</ele><time>2026-04-27T08:05:19.189Z</time></trkpt><trkpt lat="39.5811457" lon="21.131325"><ele>1059.0</ele><time>2026-04-27T08:05:20.188Z</time></trkpt><trkpt lat="39.5812152" lon="21.131194"><ele>1053.5</ele><time>2026-04-27T08:05:21.188Z</time></trkpt><trkpt lat="39.5812795" lon="21.1310639"><ele>1048.0</ele><time>2026-04-27T08:05:22.188Z</time></trkpt><trkpt lat="39.5813331" lon="21.1309272"><ele>1059.4</ele><time>2026-04-27T08:05:23.189Z</time></trkpt><trkpt lat="39.5813337" lon="21.1307975"><ele>1070.8</ele><time>2026-04-27T08:05:24.188Z</time></trkpt><trkpt lat="39.5813193" lon="21.1306591"><ele>1082.2</ele><time>2026-04-27T08:05:25.189Z</time></trkpt><trkpt lat="39.5812916" lon="21.1305095"><ele>1093.6</ele><time>2026-04-27T08:05:26.188Z</time></trkpt><trkpt lat="39.5812777" lon="21.1303512"><ele>1105.0</ele><time>2026-04-27T08:05:27.188Z</time></trkpt><trkpt lat="39.5812742" lon="21.1301907"><ele>1105.0</ele><time>2026-04-27T08:05:28.188Z</time></trkpt><trkpt lat="39.5812976" lon="21.1300446"><ele>1105.0</ele><time>2026-04-27T08:05:29.189Z</time></trkpt><trkpt lat="39.5813526" lon="21.1299228"><ele>1105.0</ele><time>2026-04-27T08:05:30.188Z</time></trkpt><trkpt lat="39.5814211" lon="21.1298192"><ele>1105.0</ele><time>2026-04-27T08:05:31.189Z</time></trkpt><trkpt lat="39.581473" lon="21.1297216"><ele>1105.0</ele><time>2026-04-27T08:05:32.188Z</time></trkpt><trkpt lat="39.5814908" lon="21.1295838"><ele>1105.0</ele><time>2026-04-27T08:05:33.189Z</time></trkpt><trkpt lat="39.5814829" lon="21.1294127"><ele>1105.0</ele><time>2026-04-27T08:05:34.188Z</time></trkpt><trkpt lat="39.5814658" lon="21.1292476"><ele>1105.0</ele><time>2026-04-27T08:05:35.188Z</time></trkpt><trkpt lat="39.5814459" lon="21.1290834"><ele>1105.0</ele><time>2026-04-27T08:05:36.189Z</time></trkpt><trkpt lat="39.5814331" lon="21.1289219"><ele>1102.0</ele><time>2026-04-27T08:05:37.188Z</time></trkpt><trkpt lat="39.5814301" lon="21.1287595"><ele>1099.0</ele><time>2026-04-27T08:05:38.188Z</time></trkpt><trkpt lat="39.5814362" lon="21.1286116"><ele>1096.0</ele><time>2026-04-27T08:05:39.189Z</time></trkpt><trkpt lat="39.5814679" lon="21.1284916"><ele>1093.0</ele><time>2026-04-27T08:05:40.188Z</time></trkpt><trkpt lat="39.5815233" lon="21.1283829"><ele>1090.0</ele><time>2026-04-27T08:05:41.188Z</time></trkpt><trkpt lat="39.5816172" lon="21.1282813"><ele>1080.3333333333333</ele><time>2026-04-27T08:05:42.189Z</time></trkpt><trkpt lat="39.5817289" lon="21.1281871"><ele>1070.6666666666667</ele><time>2026-04-27T08:05:43.189Z</time></trkpt><trkpt lat="39.5818624" lon="21.1280846"><ele>1061.0</ele><time>2026-04-27T08:05:44.188Z</time></trkpt><trkpt lat="39.5819891" lon="21.1279477"><ele>1071.25</ele><time>2026-04-27T08:05:45.188Z</time></trkpt><trkpt lat="39.5821057" lon="21.1278093"><ele>1081.5</ele><time>2026-04-27T08:05:46.188Z</time></trkpt><trkpt lat="39.5822119" lon="21.1276785"><ele>1091.75</ele><time>2026-04-27T08:05:47.188Z</time></trkpt><trkpt lat="39.5823119" lon="21.1275553"><ele>1102.0</ele><time>2026-04-27T08:05:48.189Z</time></trkpt><trkpt lat="39.5824228" lon="21.1274737"><ele>1102.0</ele><time>2026-04-27T08:05:49.188Z</time></trkpt><trkpt lat="39.5825446" lon="21.1274114"><ele>1102.0</ele><time>2026-04-27T08:05:50.188Z</time></trkpt><trkpt lat="39.5826567" lon="21.1273574"><ele>1102.0</ele><time>2026-04-27T08:05:51.189Z</time></trkpt><trkpt lat="39.5827605" lon="21.1272978"><ele>1102.0</ele><time>2026-04-27T08:05:52.189Z</time></trkpt><trkpt lat="39.5828591" lon="21.1272239"><ele>1106.2</ele><time>2026-04-27T08:05:53.188Z</time></trkpt><trkpt lat="39.5829472" lon="21.1271219"><ele>1110.4</ele><time>2026-04-27T08:05:54.188Z</time></trkpt><trkpt lat="39.5830125" lon="21.1270137"><ele>1114.6</ele><time>2026-04-27T08:05:55.188Z</time></trkpt><trkpt lat="39.5830601" lon="21.1268964"><ele>1118.8</ele><time>2026-04-27T08:05:56.189Z</time></trkpt><trkpt lat="39.5830976" lon="21.126784"><ele>1123.0</ele><time>2026-04-27T08:05:57.189Z</time></trkpt><trkpt lat="39.5831227" lon="21.1266805"><ele>1123.0</ele><time>2026-04-27T08:05:58.189Z</time></trkpt><trkpt lat="39.5831391" lon="21.1265866"><ele>1123.0</ele><time>2026-04-27T08:05:59.189Z</time></trkpt><trkpt lat="39.583168" lon="21.1264804"><ele>1123.0</ele><time>2026-04-27T08:06:01.189Z</time></trkpt><trkpt lat="39.5832333" lon="21.1264743"><ele>1123.0</ele><time>2026-04-27T08:06:03.188Z</time></trkpt><trkpt lat="39.583239" lon="21.1265604"><ele>1123.0</ele><time>2026-04-27T08:06:05.189Z</time></trkpt><trkpt lat="39.5832084" lon="21.126696"><ele>1123.0</ele><time>2026-04-27T08:06:07.188Z</time></trkpt><trkpt lat="39.5831819" lon="21.1268267"><ele>1123.0</ele><time>2026-04-27T08:06:09.189Z</time></trkpt><trkpt lat="39.5831517" lon="21.1269582"><ele>1123.0</ele><time>2026-04-27T08:06:11.188Z</time></trkpt><trkpt lat="39.5831235" lon="21.1270954"><ele>1123.0</ele><time>2026-04-27T08:06:13.189Z</time></trkpt><trkpt lat="39.5830814" lon="21.1272449"><ele>1123.0</ele><time>2026-04-27T08:06:15.188Z</time></trkpt><trkpt lat="39.5830498" lon="21.1273186"><ele>1123.0</ele><time>2026-04-27T08:06:16.188Z</time></trkpt><trkpt lat="39.5830029" lon="21.1273774"><ele>1125.6666666666665</ele><time>2026-04-27T08:06:17.189Z</time></trkpt><trkpt lat="39.5829431" lon="21.127429"><ele>1128.3333333333333</ele><time>2026-04-27T08:06:18.188Z</time></trkpt><trkpt lat="39.5828734" lon="21.1274656"><ele>1131.0</ele><time>2026-04-27T08:06:19.189Z</time></trkpt><trkpt lat="39.5827983" lon="21.1274945"><ele>1133.6666666666667</ele><time>2026-04-27T08:06:20.189Z</time></trkpt><trkpt lat="39.5827225" lon="21.1275291"><ele>1136.3333333333335</ele><time>2026-04-27T08:06:21.189Z</time></trkpt><trkpt lat="39.582648" lon="21.1275755"><ele>1139.0</ele><time>2026-04-27T08:06:22.189Z</time></trkpt><trkpt lat="39.5825821" lon="21.1276411"><ele>1132.8333333333335</ele><time>2026-04-27T08:06:23.188Z</time></trkpt><trkpt lat="39.5825257" lon="21.1277203"><ele>1126.6666666666667</ele><time>2026-04-27T08:06:24.189Z</time></trkpt><trkpt lat="39.5824755" lon="21.127803"><ele>1120.5</ele><time>2026-04-27T08:06:25.189Z</time></trkpt><trkpt lat="39.5824322" lon="21.1278913"><ele>1114.3333333333333</ele><time>2026-04-27T08:06:26.188Z</time></trkpt><trkpt lat="39.5823936" lon="21.1279873"><ele>1108.1666666666665</ele><time>2026-04-27T08:06:27.189Z</time></trkpt><trkpt lat="39.582349" lon="21.1280837"><ele>1102.0</ele><time>2026-04-27T08:06:28.188Z</time></trkpt><trkpt lat="39.582301" lon="21.1281798"><ele>1100.0</ele><time>2026-04-27T08:06:29.188Z</time></trkpt><trkpt lat="39.582247" lon="21.1282703"><ele>1098.0</ele><time>2026-04-27T08:06:30.188Z</time></trkpt><trkpt lat="39.5821862" lon="21.1283629"><ele>1096.0</ele><time>2026-04-27T08:06:31.188Z</time></trkpt><trkpt lat="39.5821262" lon="21.1284406"><ele>1094.0</ele><time>2026-04-27T08:06:32.188Z</time></trkpt><trkpt lat="39.582062" lon="21.128503"><ele>1092.0</ele><time>2026-04-27T08:06:33.188Z</time></trkpt><trkpt lat="39.5820014" lon="21.1285581"><ele>1090.0</ele><time>2026-04-27T08:06:34.188Z</time></trkpt><trkpt lat="39.5819542" lon="21.128682"><ele>1097.6</ele><time>2026-04-27T08:06:36.189Z</time></trkpt><trkpt lat="39.5820208" lon="21.1287727"><ele>1105.2</ele><time>2026-04-27T08:06:38.189Z</time></trkpt><trkpt lat="39.5820943" lon="21.1287678"><ele>1112.8</ele><time>2026-04-27T08:06:39.188Z</time></trkpt><trkpt lat="39.5821816" lon="21.1287336"><ele>1120.4</ele><time>2026-04-27T08:06:40.189Z</time></trkpt><trkpt lat="39.582274" lon="21.128676"><ele>1128.0</ele><time>2026-04-27T08:06:41.188Z</time></trkpt><trkpt lat="39.5823571" lon="21.1285991"><ele>1128.0</ele><time>2026-04-27T08:06:42.189Z</time></trkpt><trkpt lat="39.5824303" lon="21.1285027"><ele>1128.0</ele><time>2026-04-27T08:06:43.188Z</time></trkpt><trkpt lat="39.5825105" lon="21.1283986"><ele>1128.0</ele><time>2026-04-27T08:06:44.188Z</time></trkpt><trkpt lat="39.5826017" lon="21.128293"><ele>1128.0</ele><time>2026-04-27T08:06:45.188Z</time></trkpt><trkpt lat="39.582706" lon="21.1281863"><ele>1130.75</ele><time>2026-04-27T08:06:46.188Z</time></trkpt><trkpt lat="39.5828137" lon="21.1280845"><ele>1133.5</ele><time>2026-04-27T08:06:47.189Z</time></trkpt><trkpt lat="39.582927" lon="21.1279872"><ele>1136.25</ele><time>2026-04-27T08:06:48.188Z</time></trkpt><trkpt lat="39.5830401" lon="21.1279222"><ele>1139.0</ele><time>2026-04-27T08:06:49.188Z</time></trkpt><trkpt lat="39.5831523" lon="21.1278629"><ele>1139.0</ele><time>2026-04-27T08:06:50.188Z</time></trkpt><trkpt lat="39.5832631" lon="21.1278119"><ele>1139.0</ele><time>2026-04-27T08:06:51.188Z</time></trkpt><trkpt lat="39.583361" lon="21.1277554"><ele>1139.0</ele><time>2026-04-27T08:06:52.188Z</time></trkpt><trkpt lat="39.583443" lon="21.1276842"><ele>1139.0</ele><time>2026-04-27T08:06:53.189Z</time></trkpt><trkpt lat="39.5835049" lon="21.1275967"><ele>1139.0</ele><time>2026-04-27T08:06:54.188Z</time></trkpt><trkpt lat="39.5835468" lon="21.1274968"><ele>1135.0</ele><time>2026-04-27T08:06:55.189Z</time></trkpt><trkpt lat="39.583571" lon="21.1273725"><ele>1131.0</ele><time>2026-04-27T08:06:56.188Z</time></trkpt><trkpt lat="39.5835889" lon="21.1272288"><ele>1127.0</ele><time>2026-04-27T08:06:57.188Z</time></trkpt><trkpt lat="39.5836236" lon="21.1270735"><ele>1123.0</ele><time>2026-04-27T08:06:58.189Z</time></trkpt><trkpt lat="39.5836829" lon="21.1269102"><ele>1132.75</ele><time>2026-04-27T08:06:59.188Z</time></trkpt><trkpt lat="39.5837333" lon="21.1267422"><ele>1142.5</ele><time>2026-04-27T08:07:00.189Z</time></trkpt><trkpt lat="39.5837834" lon="21.1265824"><ele>1152.25</ele><time>2026-04-27T08:07:01.189Z</time></trkpt><trkpt lat="39.5838229" lon="21.126433"><ele>1162.0</ele><time>2026-04-27T08:07:02.189Z</time></trkpt><trkpt lat="39.5838651" lon="21.1262847"><ele>1162.0</ele><time>2026-04-27T08:07:03.188Z</time></trkpt><trkpt lat="39.5839083" lon="21.126143"><ele>1162.0</ele><time>2026-04-27T08:07:04.189Z</time></trkpt><trkpt lat="39.5839348" lon="21.1260243"><ele>1162.0</ele><time>2026-04-27T08:07:05.189Z</time></trkpt><trkpt lat="39.5839476" lon="21.1258956"><ele>1162.0</ele><time>2026-04-27T08:07:06.189Z</time></trkpt><trkpt lat="39.5839532" lon="21.1257791"><ele>1162.0</ele><time>2026-04-27T08:07:07.189Z</time></trkpt><trkpt lat="39.5839568" lon="21.1256828"><ele>1161.7142857142858</ele><time>2026-04-27T08:07:08.188Z</time></trkpt><trkpt lat="39.5839579" lon="21.1255927"><ele>1161.4285714285716</ele><time>2026-04-27T08:07:09.188Z</time></trkpt><trkpt lat="39.5839707" lon="21.125501"><ele>1161.142857142857</ele><time>2026-04-27T08:07:10.188Z</time></trkpt><trkpt lat="39.5839909" lon="21.1254019"><ele>1160.857142857143</ele><time>2026-04-27T08:07:11.188Z</time></trkpt><trkpt lat="39.5840159" lon="21.1253016"><ele>1160.5714285714287</ele><time>2026-04-27T08:07:12.188Z</time></trkpt><trkpt lat="39.5840468" lon="21.1252089"><ele>1160.2857142857142</ele><time>2026-04-27T08:07:13.189Z</time></trkpt><trkpt lat="39.5840738" lon="21.1251266"><ele>1160.0</ele><time>2026-04-27T08:07:14.189Z</time></trkpt><trkpt lat="39.5841003" lon="21.1250522"><ele>1160.0</ele><time>2026-04-27T08:07:15.188Z</time></trkpt><trkpt lat="39.5841405" lon="21.1249312"><ele>1160.0</ele><time>2026-04-27T08:07:17.188Z</time></trkpt><trkpt lat="39.5841646" lon="21.1248424"><ele>1160.0</ele><time>2026-04-27T08:07:19.189Z</time></trkpt><trkpt lat="39.5841711" lon="21.1247604"><ele>1160.0</ele><time>2026-04-27T08:07:22.188Z</time></trkpt><trkpt lat="39.584122" lon="21.1246999"><ele>1160.0</ele><time>2026-04-27T08:07:37.188Z</time></trkpt><trkpt lat="39.5841498" lon="21.1246237"><ele>1160.0</ele><time>2026-04-27T08:08:19.188Z</time></trkpt><trkpt lat="39.5841595" lon="21.124708"><ele>1160.0</ele><time>2026-04-27T08:09:20.192Z</time></trkpt><trkpt lat="39.5841768" lon="21.1247905"><ele>1159.4285714285716</ele><time>2026-04-27T08:09:30.192Z</time></trkpt><trkpt lat="39.5841329" lon="21.1247135"><ele>1158.857142857143</ele><time>2026-04-27T08:09:46.191Z</time></trkpt><trkpt lat="39.5842064" lon="21.1247037"><ele>1158.2857142857142</ele><time>2026-04-27T08:10:05.192Z</time></trkpt><trkpt lat="39.5842622" lon="21.1247475"><ele>1157.7142857142858</ele><time>2026-04-27T08:10:11.191Z</time></trkpt><trkpt lat="39.5843259" lon="21.1247478"><ele>1157.142857142857</ele><time>2026-04-27T08:10:28.191Z</time></trkpt><trkpt lat="39.5843496" lon="21.124671"><ele>1156.5714285714287</ele><time>2026-04-27T08:11:36.098Z</time></trkpt><trkpt lat="39.5843113" lon="21.1247398"><ele>1156.0</ele><time>2026-04-27T08:12:09.192Z</time></trkpt><trkpt lat="39.5842383" lon="21.1247478"><ele>1156.0</ele><time>2026-04-27T08:12:19.191Z</time></trkpt><trkpt lat="39.5841757" lon="21.1247269"><ele>1156.0</ele><time>2026-04-27T08:12:25.15Z</time></trkpt><trkpt lat="39.5841306" lon="21.1246555"><ele>1156.0</ele><time>2026-04-27T08:12:33.194Z</time></trkpt><trkpt lat="39.5841487" lon="21.1245712"><ele>1156.0</ele><time>2026-04-27T08:13:05.191Z</time></trkpt><trkpt lat="39.5841374" lon="21.1244806"><ele>1156.0</ele><time>2026-04-27T08:13:11.191Z</time></trkpt><trkpt lat="39.5841495" lon="21.1243945"><ele>1156.0</ele><time>2026-04-27T08:13:17.191Z</time></trkpt><trkpt lat="39.5841735" lon="21.1243131"><ele>1156.0</ele><time>2026-04-27T08:13:24.191Z</time></trkpt><trkpt lat="39.5841744" lon="21.1242281"><ele>1156.0</ele><time>2026-04-27T08:13:33.11Z</time></trkpt><trkpt lat="39.5841771" lon="21.1241443"><ele>1156.0</ele><time>2026-04-27T08:13:41.191Z</time></trkpt><trkpt lat="39.5842016" lon="21.1240634"><ele>1156.0</ele><time>2026-04-27T08:13:50.198Z</time></trkpt><trkpt lat="39.5842442" lon="21.1239955"><ele>1156.0</ele><time>2026-04-27T08:13:59.191Z</time></trkpt><trkpt lat="39.5842876" lon="21.1239363"><ele>1156.0</ele><time>2026-04-27T08:14:07.192Z</time></trkpt><trkpt lat="39.5843249" lon="21.1238563"><ele>1156.0</ele><time>2026-04-27T08:14:15.191Z</time></trkpt><trkpt lat="39.584362" lon="21.1237864"><ele>1156.0</ele><time>2026-04-27T08:14:22.191Z</time></trkpt><trkpt lat="39.5844081" lon="21.1237307"><ele>1154.0</ele><time>2026-04-27T08:14:29.191Z</time></trkpt><trkpt lat="39.5844425" lon="21.1236479"><ele>1152.0</ele><time>2026-04-27T08:14:41.192Z</time></trkpt><trkpt lat="39.5845006" lon="21.1235849"><ele>1150.0</ele><time>2026-04-27T08:14:48.179Z</time></trkpt><trkpt lat="39.5844469" lon="21.123656"><ele>1148.0</ele><time>2026-04-27T08:15:00.191Z</time></trkpt><trkpt lat="39.5843881" lon="21.1236878"><ele>1146.0</ele><time>2026-04-27T08:16:03.192Z</time></trkpt><trkpt lat="39.5843331" lon="21.1236409"><ele>1144.0</ele><time>2026-04-27T08:17:03.191Z</time></trkpt><trkpt lat="39.5843586" lon="21.123562"><ele>1142.0</ele><time>2026-04-27T08:17:28.185Z</time></trkpt><trkpt lat="39.58433" lon="21.1234834"><ele>1142.0</ele><time>2026-04-27T08:17:36.123Z</time></trkpt><trkpt lat="39.5842715" lon="21.1234415"><ele>1142.0</ele><time>2026-04-27T08:17:46.191Z</time></trkpt><trkpt lat="39.5842201" lon="21.1233893"><ele>1142.0</ele><time>2026-04-27T08:17:59.118Z</time></trkpt><trkpt lat="39.5841668" lon="21.1233441"><ele>1142.0</ele><time>2026-04-27T08:18:08.192Z</time></trkpt><trkpt lat="39.5841104" lon="21.1233074"><ele>1142.0</ele><time>2026-04-27T08:18:17.191Z</time></trkpt><trkpt lat="39.5840701" lon="21.1232407"><ele>1142.0</ele><time>2026-04-27T08:18:23.192Z</time></trkpt><trkpt lat="39.5840984" lon="21.1231567"><ele>1142.0</ele><time>2026-04-27T08:18:30.191Z</time></trkpt><trkpt lat="39.5841077" lon="21.1230725"><ele>1140.0</ele><time>2026-04-27T08:18:52.191Z</time></trkpt><trkpt lat="39.5841352" lon="21.1229873"><ele>1138.0</ele><time>2026-04-27T08:18:58.191Z</time></trkpt><trkpt lat="39.5841314" lon="21.122896"><ele>1136.0</ele><time>2026-04-27T08:19:06.192Z</time></trkpt><trkpt lat="39.5840759" lon="21.122853"><ele>1134.0</ele><time>2026-04-27T08:19:12.153Z</time></trkpt><trkpt lat="39.5840208" lon="21.1227964"><ele>1132.0</ele><time>2026-04-27T08:19:21.097Z</time></trkpt><trkpt lat="39.5839627" lon="21.1227524"><ele>1130.0</ele><time>2026-04-27T08:19:31.191Z</time></trkpt><trkpt lat="39.5839592" lon="21.1226532"><ele>1128.0</ele><time>2026-04-27T08:20:03.191Z</time></trkpt><trkpt lat="39.5838922" lon="21.1226434"><ele>1128.0</ele><time>2026-04-27T08:20:09.113Z</time></trkpt><trkpt lat="39.5839337" lon="21.1225698"><ele>1128.0</ele><time>2026-04-27T08:20:59.191Z</time></trkpt><trkpt lat="39.5839139" lon="21.1224908"><ele>1128.0</ele><time>2026-04-27T08:21:07.191Z</time></trkpt><trkpt lat="39.5839766" lon="21.1224986"><ele>1128.0</ele><time>2026-04-27T08:21:14.191Z</time></trkpt><trkpt lat="39.5839084" lon="21.122484"><ele>1128.0</ele><time>2026-04-27T08:21:35.143Z</time></trkpt><trkpt lat="39.5838604" lon="21.12256"><ele>1128.0</ele><time>2026-04-27T08:21:40.192Z</time></trkpt><trkpt lat="39.5838055" lon="21.1226081"><ele>1128.0</ele><time>2026-04-27T08:21:50.183Z</time></trkpt><trkpt lat="39.5838764" lon="21.1226218"><ele>1128.0</ele><time>2026-04-27T08:23:06.114Z</time></trkpt><trkpt lat="39.5838664" lon="21.1227074"><ele>1128.0</ele><time>2026-04-27T08:23:12.192Z</time></trkpt><trkpt lat="39.5839293" lon="21.1226679"><ele>1128.0</ele><time>2026-04-27T08:24:14.192Z</time></trkpt><trkpt lat="39.5839898" lon="21.1226369"><ele>1128.0</ele><time>2026-04-27T08:24:29.192Z</time></trkpt><trkpt lat="39.5839322" lon="21.1226889"><ele>1128.0</ele><time>2026-04-27T08:48:51.191Z</time></trkpt><trkpt lat="39.5839058" lon="21.1227664"><ele>1128.0</ele><time>2026-04-27T08:48:57.191Z</time></trkpt><trkpt lat="39.5839584" lon="21.1228283"><ele>1128.0</ele><time>2026-04-27T08:49:06.191Z</time></trkpt><trkpt lat="39.5840153" lon="21.1228736"><ele>1128.0</ele><time>2026-04-27T08:49:13.191Z</time></trkpt><trkpt lat="39.5840708" lon="21.1229194"><ele>1128.0</ele><time>2026-04-27T08:49:20.192Z</time></trkpt><trkpt lat="39.5841228" lon="21.1229737"><ele>1128.0</ele><time>2026-04-27T08:49:29.191Z</time></trkpt><trkpt lat="39.5841011" lon="21.1230611"><ele>1128.0</ele><time>2026-04-27T08:49:37.191Z</time></trkpt><trkpt lat="39.5840682" lon="21.1231375"><ele>1128.0</ele><time>2026-04-27T08:49:43.192Z</time></trkpt><trkpt lat="39.5840922" lon="21.1232145"><ele>1128.0</ele><time>2026-04-27T08:49:53.192Z</time></trkpt><trkpt lat="39.5840987" lon="21.1233016"><ele>1128.0</ele><time>2026-04-27T08:50:03.192Z</time></trkpt><trkpt lat="39.5841569" lon="21.123342"><ele>1130.0</ele><time>2026-04-27T08:50:11.192Z</time></trkpt><trkpt lat="39.5842073" lon="21.1234"><ele>1132.0</ele><time>2026-04-27T08:50:19.192Z</time></trkpt><trkpt lat="39.584253" lon="21.1234639"><ele>1134.0</ele><time>2026-04-27T08:50:29.192Z</time></trkpt><trkpt lat="39.5843096" lon="21.123507"><ele>1136.0</ele><time>2026-04-27T08:50:40.191Z</time></trkpt><trkpt lat="39.5843484" lon="21.1235803"><ele>1138.0</ele><time>2026-04-27T08:50:52.191Z</time></trkpt><trkpt lat="39.5843191" lon="21.1236543"><ele>1140.0</ele><time>2026-04-27T08:51:01.189Z</time></trkpt><trkpt lat="39.5843799" lon="21.123695"><ele>1142.0</ele><time>2026-04-27T08:51:12.191Z</time></trkpt><trkpt lat="39.5843568" lon="21.1237738"><ele>1142.0</ele><time>2026-04-27T08:51:21.192Z</time></trkpt><trkpt lat="39.5843201" lon="21.1238466"><ele>1142.0</ele><time>2026-04-27T08:51:29.192Z</time></trkpt><trkpt lat="39.584283" lon="21.1239179"><ele>1142.0</ele><time>2026-04-27T08:51:35.192Z</time></trkpt><trkpt lat="39.584241" lon="21.1239818"><ele>1142.0</ele><time>2026-04-27T08:51:41.192Z</time></trkpt><trkpt lat="39.5841922" lon="21.1240474"><ele>1142.0</ele><time>2026-04-27T08:51:48.137Z</time></trkpt><trkpt lat="39.5841654" lon="21.1241237"><ele>1142.0</ele><time>2026-04-27T08:51:57.19Z</time></trkpt><trkpt lat="39.5841614" lon="21.1242127"><ele>1142.0</ele><time>2026-04-27T08:52:05.191Z</time></trkpt><trkpt lat="39.584155" lon="21.1242988"><ele>1144.0</ele><time>2026-04-27T08:52:13.191Z</time></trkpt><trkpt lat="39.5841556" lon="21.1243806"><ele>1146.0</ele><time>2026-04-27T08:52:21.159Z</time></trkpt><trkpt lat="39.5841326" lon="21.1244639"><ele>1148.0</ele><time>2026-04-27T08:52:31.192Z</time></trkpt><trkpt lat="39.5841381" lon="21.124549"><ele>1150.0</ele><time>2026-04-27T08:52:39.192Z</time></trkpt><trkpt lat="39.5841548" lon="21.1246322"><ele>1152.0</ele><time>2026-04-27T08:52:46.192Z</time></trkpt><trkpt lat="39.5840986" lon="21.1246712"><ele>1154.0</ele><time>2026-04-27T08:52:54.191Z</time></trkpt><trkpt lat="39.5841109" lon="21.1245895"><ele>1156.0</ele><time>2026-04-27T08:54:23.19Z</time></trkpt><trkpt lat="39.5841692" lon="21.1246385"><ele>1156.0</ele><time>2026-04-27T08:55:56.192Z</time></trkpt><trkpt lat="39.5841135" lon="21.1246882"><ele>1156.0</ele><time>2026-04-27T08:57:46.191Z</time></trkpt><trkpt lat="39.5841748" lon="21.1246686"><ele>1156.0</ele><time>2026-04-27T08:59:36.191Z</time></trkpt><trkpt lat="39.5842398" lon="21.124644"><ele>1156.0</ele><time>2026-04-27T08:59:46.192Z</time></trkpt><trkpt lat="39.5841713" lon="21.124687"><ele>1156.0</ele><time>2026-04-27T09:04:05.191Z</time></trkpt><trkpt lat="39.5841087" lon="21.1246741"><ele>1156.0</ele><time>2026-04-27T09:04:12.191Z</time></trkpt><trkpt lat="39.5841219" lon="21.1247564"><ele>1156.0</ele><time>2026-04-27T09:05:56.178Z</time></trkpt><trkpt lat="39.5841244" lon="21.1248398"><ele>1156.5714285714287</ele><time>2026-04-27T09:05:59.178Z</time></trkpt><trkpt lat="39.5841243" lon="21.1249426"><ele>1157.142857142857</ele><time>2026-04-27T09:06:02.178Z</time></trkpt><trkpt lat="39.5840914" lon="21.1250123"><ele>1157.7142857142858</ele><time>2026-04-27T09:06:04.178Z</time></trkpt><trkpt lat="39.584054" lon="21.1250912"><ele>1158.2857142857142</ele><time>2026-04-27T09:06:06.178Z</time></trkpt><trkpt lat="39.584024" lon="21.1251752"><ele>1158.857142857143</ele><time>2026-04-27T09:06:08.178Z</time></trkpt><trkpt lat="39.5839944" lon="21.1252668"><ele>1159.4285714285716</ele><time>2026-04-27T09:06:10.178Z</time></trkpt><trkpt lat="39.5839669" lon="21.1253571"><ele>1160.0</ele><time>2026-04-27T09:06:12.179Z</time></trkpt><trkpt lat="39.5839403" lon="21.1254488"><ele>1160.0</ele><time>2026-04-27T09:06:14.179Z</time></trkpt><trkpt lat="39.58392" lon="21.1255532"><ele>1160.0</ele><time>2026-04-27T09:06:16.178Z</time></trkpt><trkpt lat="39.5839193" lon="21.1256707"><ele>1160.0</ele><time>2026-04-27T09:06:18.178Z</time></trkpt><trkpt lat="39.5839168" lon="21.1258221"><ele>1160.0</ele><time>2026-04-27T09:06:20.178Z</time></trkpt><trkpt lat="39.5839147" lon="21.1259068"><ele>1160.0</ele><time>2026-04-27T09:06:21.178Z</time></trkpt><trkpt lat="39.5839093" lon="21.1259992"><ele>1160.0</ele><time>2026-04-27T09:06:22.178Z</time></trkpt><trkpt lat="39.5838929" lon="21.1260896"><ele>1160.3333333333335</ele><time>2026-04-27T09:06:23.179Z</time></trkpt><trkpt lat="39.5838672" lon="21.1261798"><ele>1160.6666666666667</ele><time>2026-04-27T09:06:24.178Z</time></trkpt><trkpt lat="39.5838373" lon="21.1262652"><ele>1161.0</ele><time>2026-04-27T09:06:25.179Z</time></trkpt><trkpt lat="39.5838115" lon="21.126366"><ele>1161.3333333333333</ele><time>2026-04-27T09:06:26.179Z</time></trkpt><trkpt lat="39.5837998" lon="21.1264715"><ele>1161.6666666666665</ele><time>2026-04-27T09:06:27.178Z</time></trkpt><trkpt lat="39.5837714" lon="21.1265835"><ele>1162.0</ele><time>2026-04-27T09:06:28.179Z</time></trkpt><trkpt lat="39.5837422" lon="21.1266861"><ele>1163.0</ele><time>2026-04-27T09:06:29.179Z</time></trkpt><trkpt lat="39.5837135" lon="21.1267855"><ele>1164.0</ele><time>2026-04-27T09:06:30.178Z</time></trkpt><trkpt lat="39.5836817" lon="21.1268749"><ele>1165.0</ele><time>2026-04-27T09:06:31.179Z</time></trkpt><trkpt lat="39.5836448" lon="21.1269643"><ele>1166.0</ele><time>2026-04-27T09:06:32.178Z</time></trkpt><trkpt lat="39.5836138" lon="21.1270534"><ele>1167.0</ele><time>2026-04-27T09:06:33.179Z</time></trkpt><trkpt lat="39.5835854" lon="21.127154"><ele>1168.0</ele><time>2026-04-27T09:06:34.179Z</time></trkpt><trkpt lat="39.5835723" lon="21.1272494"><ele>1163.857142857143</ele><time>2026-04-27T09:06:35.179Z</time></trkpt><trkpt lat="39.5835693" lon="21.1273411"><ele>1159.7142857142858</ele><time>2026-04-27T09:06:36.179Z</time></trkpt><trkpt lat="39.5835601" lon="21.127425"><ele>1155.5714285714287</ele><time>2026-04-27T09:06:37.178Z</time></trkpt><trkpt lat="39.5835388" lon="21.1275064"><ele>1151.4285714285716</ele><time>2026-04-27T09:06:38.178Z</time></trkpt><trkpt lat="39.5835029" lon="21.1275791"><ele>1147.2857142857144</ele><time>2026-04-27T09:06:39.179Z</time></trkpt><trkpt lat="39.5834614" lon="21.1276441"><ele>1143.142857142857</ele><time>2026-04-27T09:06:40.178Z</time></trkpt><trkpt lat="39.5833985" lon="21.1276926"><ele>1139.0</ele><time>2026-04-27T09:06:41.178Z</time></trkpt><trkpt lat="39.583324" lon="21.1277265"><ele>1139.0</ele><time>2026-04-27T09:06:42.178Z</time></trkpt><trkpt lat="39.5832509" lon="21.127756"><ele>1139.0</ele><time>2026-04-27T09:06:43.179Z</time></trkpt><trkpt lat="39.5831712" lon="21.127795"><ele>1139.0</ele><time>2026-04-27T09:06:44.178Z</time></trkpt><trkpt lat="39.5830868" lon="21.1278391"><ele>1139.0</ele><time>2026-04-27T09:06:45.178Z</time></trkpt><trkpt lat="39.5829987" lon="21.1278892"><ele>1139.0</ele><time>2026-04-27T09:06:46.178Z</time></trkpt><trkpt lat="39.5829158" lon="21.1279422"><ele>1139.0</ele><time>2026-04-27T09:06:47.178Z</time></trkpt><trkpt lat="39.5828328" lon="21.1280095"><ele>1136.8</ele><time>2026-04-27T09:06:48.179Z</time></trkpt><trkpt lat="39.5827554" lon="21.1280818"><ele>1134.6000000000001</ele><time>2026-04-27T09:06:49.179Z</time></trkpt><trkpt lat="39.5826799" lon="21.1281622"><ele>1132.4</ele><time>2026-04-27T09:06:50.178Z</time></trkpt><trkpt lat="39.5826022" lon="21.1282403"><ele>1130.2</ele><time>2026-04-27T09:06:51.179Z</time></trkpt><trkpt lat="39.5825255" lon="21.1283219"><ele>1128.0</ele><time>2026-04-27T09:06:52.178Z</time></trkpt><trkpt lat="39.5824592" lon="21.1284154"><ele>1128.0</ele><time>2026-04-27T09:06:53.179Z</time></trkpt><trkpt lat="39.5823988" lon="21.1285046"><ele>1128.0</ele><time>2026-04-27T09:06:54.178Z</time></trkpt><trkpt lat="39.5823308" lon="21.1285921"><ele>1128.0</ele><time>2026-04-27T09:06:55.179Z</time></trkpt><trkpt lat="39.5822666" lon="21.1286507"><ele>1128.0</ele><time>2026-04-27T09:06:56.178Z</time></trkpt><trkpt lat="39.5821963" lon="21.128693"><ele>1128.0</ele><time>2026-04-27T09:06:57.179Z</time></trkpt><trkpt lat="39.5821278" lon="21.128724"><ele>1128.0</ele><time>2026-04-27T09:06:58.178Z</time></trkpt><trkpt lat="39.5820128" lon="21.1287205"><ele>1128.0</ele><time>2026-04-27T09:07:00.179Z</time></trkpt><trkpt lat="39.5820393" lon="21.128586"><ele>1128.0</ele><time>2026-04-27T09:07:03.179Z</time></trkpt><trkpt lat="39.5821114" lon="21.1285138"><ele>1128.0</ele><time>2026-04-27T09:07:04.178Z</time></trkpt><trkpt lat="39.582174" lon="21.1284277"><ele>1128.0</ele><time>2026-04-27T09:07:05.178Z</time></trkpt><trkpt lat="39.5822341" lon="21.1283255"><ele>1128.0</ele><time>2026-04-27T09:07:06.178Z</time></trkpt><trkpt lat="39.5822976" lon="21.1282209"><ele>1122.8</ele><time>2026-04-27T09:07:07.178Z</time></trkpt><trkpt lat="39.5823464" lon="21.1281153"><ele>1117.6</ele><time>2026-04-27T09:07:08.179Z</time></trkpt><trkpt lat="39.5823949" lon="21.1280033"><ele>1112.4</ele><time>2026-04-27T09:07:09.179Z</time></trkpt><trkpt lat="39.5824486" lon="21.1278957"><ele>1107.2</ele><time>2026-04-27T09:07:10.179Z</time></trkpt><trkpt lat="39.582497" lon="21.1277917"><ele>1102.0</ele><time>2026-04-27T09:07:11.179Z</time></trkpt><trkpt lat="39.5825643" lon="21.1276939"><ele>1102.0</ele><time>2026-04-27T09:07:12.178Z</time></trkpt><trkpt lat="39.5826221" lon="21.1276209"><ele>1102.0</ele><time>2026-04-27T09:07:13.179Z</time></trkpt><trkpt lat="39.5826927" lon="21.1275686"><ele>1102.0</ele><time>2026-04-27T09:07:14.178Z</time></trkpt><trkpt lat="39.582774" lon="21.1275349"><ele>1102.0</ele><time>2026-04-27T09:07:15.179Z</time></trkpt><trkpt lat="39.582852" lon="21.1275071"><ele>1102.0</ele><time>2026-04-27T09:07:16.179Z</time></trkpt><trkpt lat="39.5829265" lon="21.1274731"><ele>1102.0</ele><time>2026-04-27T09:07:17.179Z</time></trkpt><trkpt lat="39.5829962" lon="21.12742"><ele>1105.5</ele><time>2026-04-27T09:07:18.178Z</time></trkpt><trkpt lat="39.5830524" lon="21.1273393"><ele>1109.0</ele><time>2026-04-27T09:07:19.179Z</time></trkpt><trkpt lat="39.5831002" lon="21.1272455"><ele>1112.5</ele><time>2026-04-27T09:07:20.179Z</time></trkpt><trkpt lat="39.5831252" lon="21.1271498"><ele>1116.0</ele><time>2026-04-27T09:07:21.179Z</time></trkpt><trkpt lat="39.5831514" lon="21.1270534"><ele>1119.5</ele><time>2026-04-27T09:07:22.179Z</time></trkpt><trkpt lat="39.5831771" lon="21.1269572"><ele>1123.0</ele><time>2026-04-27T09:07:23.178Z</time></trkpt><trkpt lat="39.5832028" lon="21.1268654"><ele>1123.0</ele><time>2026-04-27T09:07:24.178Z</time></trkpt><trkpt lat="39.5832273" lon="21.1267806"><ele>1123.0</ele><time>2026-04-27T09:07:25.178Z</time></trkpt><trkpt lat="39.5832396" lon="21.1267"><ele>1123.0</ele><time>2026-04-27T09:07:26.178Z</time></trkpt><trkpt lat="39.5832745" lon="21.126557"><ele>1123.0</ele><time>2026-04-27T09:07:28.178Z</time></trkpt><trkpt lat="39.5832656" lon="21.1264429"><ele>1123.0</ele><time>2026-04-27T09:07:30.178Z</time></trkpt><trkpt lat="39.5831935" lon="21.1264235"><ele>1123.0</ele><time>2026-04-27T09:07:33.178Z</time></trkpt><trkpt lat="39.583174" lon="21.1265417"><ele>1123.0</ele><time>2026-04-27T09:07:35.178Z</time></trkpt><trkpt lat="39.5831627" lon="21.1266261"><ele>1123.0</ele><time>2026-04-27T09:07:36.179Z</time></trkpt><trkpt lat="39.5831332" lon="21.1267213"><ele>1123.0</ele><time>2026-04-27T09:07:37.178Z</time></trkpt><trkpt lat="39.5830929" lon="21.126824"><ele>1123.0</ele><time>2026-04-27T09:07:38.179Z</time></trkpt><trkpt lat="39.5830478" lon="21.1269287"><ele>1123.0</ele><time>2026-04-27T09:07:39.179Z</time></trkpt><trkpt lat="39.5829972" lon="21.1270374"><ele>1123.0</ele><time>2026-04-27T09:07:40.178Z</time></trkpt><trkpt lat="39.5829347" lon="21.1271349"><ele>1123.0</ele><time>2026-04-27T09:07:41.178Z</time></trkpt><trkpt lat="39.5828556" lon="21.1272104"><ele>1123.0</ele><time>2026-04-27T09:07:42.178Z</time></trkpt><trkpt lat="39.5827675" lon="21.1272546"><ele>1123.0</ele><time>2026-04-27T09:07:43.178Z</time></trkpt><trkpt lat="39.58267" lon="21.1272919"><ele>1123.0</ele><time>2026-04-27T09:07:44.179Z</time></trkpt><trkpt lat="39.5825584" lon="21.1273488"><ele>1123.0</ele><time>2026-04-27T09:07:45.178Z</time></trkpt><trkpt lat="39.5824487" lon="21.1274239"><ele>1117.75</ele><time>2026-04-27T09:07:46.178Z</time></trkpt><trkpt lat="39.5823446" lon="21.1275228"><ele>1112.5</ele><time>2026-04-27T09:07:47.179Z</time></trkpt><trkpt lat="39.5822394" lon="21.127636"><ele>1107.25</ele><time>2026-04-27T09:07:48.179Z</time></trkpt><trkpt lat="39.5821339" lon="21.1277539"><ele>1102.0</ele><time>2026-04-27T09:07:49.179Z</time></trkpt><trkpt lat="39.5820294" lon="21.1278804"><ele>1099.0</ele><time>2026-04-27T09:07:50.179Z</time></trkpt><trkpt lat="39.5819218" lon="21.1279955"><ele>1096.0</ele><time>2026-04-27T09:07:51.178Z</time></trkpt><trkpt lat="39.5818143" lon="21.1280879"><ele>1093.0</ele><time>2026-04-27T09:07:52.179Z</time></trkpt><trkpt lat="39.5817073" lon="21.1281673"><ele>1090.0</ele><time>2026-04-27T09:07:53.179Z</time></trkpt><trkpt lat="39.5816063" lon="21.1282329"><ele>1090.0</ele><time>2026-04-27T09:07:54.179Z</time></trkpt><trkpt lat="39.5815225" lon="21.1283087"><ele>1090.0</ele><time>2026-04-27T09:07:55.179Z</time></trkpt><trkpt lat="39.581467" lon="21.1284098"><ele>1090.0</ele><time>2026-04-27T09:07:56.178Z</time></trkpt><trkpt lat="39.5814316" lon="21.1285236"><ele>1090.0</ele><time>2026-04-27T09:07:57.178Z</time></trkpt><trkpt lat="39.5814144" lon="21.1286568"><ele>1090.0</ele><time>2026-04-27T09:07:58.178Z</time></trkpt><trkpt lat="39.5814112" lon="21.1287997"><ele>1090.0</ele><time>2026-04-27T09:07:59.179Z</time></trkpt><trkpt lat="39.5814152" lon="21.12895"><ele>1090.0</ele><time>2026-04-27T09:08:00.179Z</time></trkpt><trkpt lat="39.5814208" lon="21.1291062"><ele>1090.0</ele><time>2026-04-27T09:08:01.179Z</time></trkpt><trkpt lat="39.5814397" lon="21.1292628"><ele>1090.0</ele><time>2026-04-27T09:08:02.178Z</time></trkpt><trkpt lat="39.5814635" lon="21.1294108"><ele>1093.0</ele><time>2026-04-27T09:08:03.178Z</time></trkpt><trkpt lat="39.5814738" lon="21.1295556"><ele>1096.0</ele><time>2026-04-27T09:08:04.179Z</time></trkpt><trkpt lat="39.5814663" lon="21.1296769"><ele>1099.0</ele><time>2026-04-27T09:08:05.178Z</time></trkpt><trkpt lat="39.5814249" lon="21.1297815"><ele>1102.0</ele><time>2026-04-27T09:08:06.178Z</time></trkpt><trkpt lat="39.5813658" lon="21.1298639"><ele>1105.0</ele><time>2026-04-27T09:08:07.178Z</time></trkpt><trkpt lat="39.5813078" lon="21.1299543"><ele>1105.0</ele><time>2026-04-27T09:08:08.179Z</time></trkpt><trkpt lat="39.581276" lon="21.1300749"><ele>1105.0</ele><time>2026-04-27T09:08:09.179Z</time></trkpt><trkpt lat="39.5812715" lon="21.1302284"><ele>1105.0</ele><time>2026-04-27T09:08:10.179Z</time></trkpt><trkpt lat="39.5812802" lon="21.1303806"><ele>1105.0</ele><time>2026-04-27T09:08:11.178Z</time></trkpt><trkpt lat="39.5812977" lon="21.1305411"><ele>1105.0</ele><time>2026-04-27T09:08:12.178Z</time></trkpt><trkpt lat="39.5813156" lon="21.1306822"><ele>1105.0</ele><time>2026-04-27T09:08:13.178Z</time></trkpt><trkpt lat="39.5813257" lon="21.1308167"><ele>1105.0</ele><time>2026-04-27T09:08:14.179Z</time></trkpt><trkpt lat="39.5813048" lon="21.1309426"><ele>1105.0</ele><time>2026-04-27T09:08:15.178Z</time></trkpt><trkpt lat="39.5812605" lon="21.1310615"><ele>1105.0</ele><time>2026-04-27T09:08:16.179Z</time></trkpt><trkpt lat="39.5812055" lon="21.1311741"><ele>1099.1666666666665</ele><time>2026-04-27T09:08:17.178Z</time></trkpt><trkpt lat="39.5811562" lon="21.1312842"><ele>1093.3333333333333</ele><time>2026-04-27T09:08:18.179Z</time></trkpt><trkpt lat="39.5811159" lon="21.1313758"><ele>1087.5</ele><time>2026-04-27T09:08:19.179Z</time></trkpt><trkpt lat="39.5810694" lon="21.131464"><ele>1081.6666666666667</ele><time>2026-04-27T09:08:20.178Z</time></trkpt><trkpt lat="39.5810208" lon="21.1315317"><ele>1075.8333333333335</ele><time>2026-04-27T09:08:21.178Z</time></trkpt><trkpt lat="39.5809641" lon="21.1315732"><ele>1070.0</ele><time>2026-04-27T09:08:22.178Z</time></trkpt><trkpt lat="39.5808475" lon="21.1316352"><ele>1070.0</ele><time>2026-04-27T09:08:24.179Z</time></trkpt><trkpt lat="39.5807867" lon="21.1316714"><ele>1070.0</ele><time>2026-04-27T09:08:25.179Z</time></trkpt><trkpt lat="39.5806931" lon="21.1317475"><ele>1070.0</ele><time>2026-04-27T09:08:27.178Z</time></trkpt><trkpt lat="39.5806475" lon="21.1318231"><ele>1070.0</ele><time>2026-04-27T09:08:29.178Z</time></trkpt><trkpt lat="39.5806053" lon="21.1319147"><ele>1070.0</ele><time>2026-04-27T09:08:31.179Z</time></trkpt><trkpt lat="39.5805676" lon="21.1320278"><ele>1070.0</ele><time>2026-04-27T09:08:33.178Z</time></trkpt><trkpt lat="39.5805416" lon="21.1321668"><ele>1070.0</ele><time>2026-04-27T09:08:35.179Z</time></trkpt><trkpt lat="39.580474" lon="21.132295"><ele>1070.0</ele><time>2026-04-27T09:08:37.178Z</time></trkpt><trkpt lat="39.5804273" lon="21.1323512"><ele>1070.0</ele><time>2026-04-27T09:08:38.178Z</time></trkpt><trkpt lat="39.5803699" lon="21.1323996"><ele>1070.0</ele><time>2026-04-27T09:08:39.178Z</time></trkpt><trkpt lat="39.5803028" lon="21.132443"><ele>1070.0</ele><time>2026-04-27T09:08:40.178Z</time></trkpt><trkpt lat="39.5802244" lon="21.1324716"><ele>1070.0</ele><time>2026-04-27T09:08:41.179Z</time></trkpt><trkpt lat="39.5801488" lon="21.1325017"><ele>1067.0</ele><time>2026-04-27T09:08:42.178Z</time></trkpt><trkpt lat="39.5800746" lon="21.1325459"><ele>1064.0</ele><time>2026-04-27T09:08:43.179Z</time></trkpt><trkpt lat="39.5800214" lon="21.1326182"><ele>1061.0</ele><time>2026-04-27T09:08:44.179Z</time></trkpt><trkpt lat="39.5799729" lon="21.1326971"><ele>1058.0</ele><time>2026-04-27T09:08:45.178Z</time></trkpt><trkpt lat="39.5799299" lon="21.1327816"><ele>1055.0</ele><time>2026-04-27T09:08:46.179Z</time></trkpt><trkpt lat="39.5798894" lon="21.1328719"><ele>1052.0</ele><time>2026-04-27T09:08:47.179Z</time></trkpt><trkpt lat="39.5798461" lon="21.1329549"><ele>1052.0</ele><time>2026-04-27T09:08:48.178Z</time></trkpt><trkpt lat="39.5797976" lon="21.1330325"><ele>1052.0</ele><time>2026-04-27T09:08:49.179Z</time></trkpt><trkpt lat="39.5797358" lon="21.1330933"><ele>1052.0</ele><time>2026-04-27T09:08:50.179Z</time></trkpt><trkpt lat="39.5796575" lon="21.1331424"><ele>1052.0</ele><time>2026-04-27T09:08:51.178Z</time></trkpt><trkpt lat="39.5795746" lon="21.1331625"><ele>1052.0</ele><time>2026-04-27T09:08:52.178Z</time></trkpt><trkpt lat="39.5794925" lon="21.1331714"><ele>1052.0</ele><time>2026-04-27T09:08:53.179Z</time></trkpt><trkpt lat="39.5794139" lon="21.1331512"><ele>1050.6666666666667</ele><time>2026-04-27T09:08:54.179Z</time></trkpt><trkpt lat="39.5793355" lon="21.1331412"><ele>1049.3333333333335</ele><time>2026-04-27T09:08:55.179Z</time></trkpt><trkpt lat="39.5792576" lon="21.1331547"><ele>1048.0</ele><time>2026-04-27T09:08:56.179Z</time></trkpt><trkpt lat="39.579184" lon="21.1331969"><ele>1046.6666666666667</ele><time>2026-04-27T09:08:57.178Z</time></trkpt><trkpt lat="39.5791094" lon="21.1332664"><ele>1045.3333333333333</ele><time>2026-04-27T09:08:58.179Z</time></trkpt><trkpt lat="39.5790347" lon="21.1333487"><ele>1044.0</ele><time>2026-04-27T09:08:59.179Z</time></trkpt><trkpt lat="39.5789505" lon="21.1334215"><ele>1044.0</ele><time>2026-04-27T09:09:00.178Z</time></trkpt><trkpt lat="39.578854" lon="21.1334778"><ele>1044.0</ele><time>2026-04-27T09:09:01.179Z</time></trkpt><trkpt lat="39.5787617" lon="21.1335364"><ele>1044.0</ele><time>2026-04-27T09:09:02.178Z</time></trkpt><trkpt lat="39.5786803" lon="21.133592"><ele>1044.0</ele><time>2026-04-27T09:09:03.179Z</time></trkpt><trkpt lat="39.5786033" lon="21.1336307"><ele>1044.0</ele><time>2026-04-27T09:09:04.178Z</time></trkpt><trkpt lat="39.5785315" lon="21.1336629"><ele>1040.5</ele><time>2026-04-27T09:09:05.178Z</time></trkpt><trkpt lat="39.5784554" lon="21.1336654"><ele>1037.0</ele><time>2026-04-27T09:09:06.178Z</time></trkpt><trkpt lat="39.5783848" lon="21.1336387"><ele>1033.5</ele><time>2026-04-27T09:09:07.179Z</time></trkpt><trkpt lat="39.5783228" lon="21.1336031"><ele>1030.0</ele><time>2026-04-27T09:09:08.178Z</time></trkpt><trkpt lat="39.5782287" lon="21.1335378"><ele>1026.5</ele><time>2026-04-27T09:09:10.179Z</time></trkpt><trkpt lat="39.5781445" lon="21.1334927"><ele>1023.0</ele><time>2026-04-27T09:09:12.179Z</time></trkpt><trkpt lat="39.5780543" lon="21.1334862"><ele>1023.0</ele><time>2026-04-27T09:09:14.178Z</time></trkpt><trkpt lat="39.5779541" lon="21.1334912"><ele>1023.0</ele><time>2026-04-27T09:09:16.178Z</time></trkpt><trkpt lat="39.577837" lon="21.1335461"><ele>1023.0</ele><time>2026-04-27T09:09:18.178Z</time></trkpt><trkpt lat="39.5777855" lon="21.1335974"><ele>1023.0</ele><time>2026-04-27T09:09:19.178Z</time></trkpt><trkpt lat="39.5777303" lon="21.1336594"><ele>1023.0</ele><time>2026-04-27T09:09:20.179Z</time></trkpt><trkpt lat="39.5776757" lon="21.1337288"><ele>1023.0</ele><time>2026-04-27T09:09:21.179Z</time></trkpt><trkpt lat="39.5776133" lon="21.1337989"><ele>1024.0</ele><time>2026-04-27T09:09:22.178Z</time></trkpt><trkpt lat="39.5775514" lon="21.1338609"><ele>1025.0</ele><time>2026-04-27T09:09:23.179Z</time></trkpt><trkpt lat="39.5774768" lon="21.1339173"><ele>1026.0</ele><time>2026-04-27T09:09:24.178Z</time></trkpt><trkpt lat="39.5774002" lon="21.1339567"><ele>1027.0</ele><time>2026-04-27T09:09:25.178Z</time></trkpt><trkpt lat="39.5773201" lon="21.1339968"><ele>1028.0</ele><time>2026-04-27T09:09:26.179Z</time></trkpt><trkpt lat="39.5772423" lon="21.134033"><ele>1029.0</ele><time>2026-04-27T09:09:27.178Z</time></trkpt><trkpt lat="39.5771723" lon="21.1340735"><ele>1029.0</ele><time>2026-04-27T09:09:28.179Z</time></trkpt><trkpt lat="39.5771063" lon="21.1341272"><ele>1029.0</ele><time>2026-04-27T09:09:29.178Z</time></trkpt><trkpt lat="39.57705" lon="21.1341924"><ele>1029.0</ele><time>2026-04-27T09:09:30.179Z</time></trkpt><trkpt lat="39.5770054" lon="21.1342696"><ele>1029.0</ele><time>2026-04-27T09:09:31.178Z</time></trkpt><trkpt lat="39.5769771" lon="21.1343516"><ele>1029.0</ele><time>2026-04-27T09:09:32.179Z</time></trkpt><trkpt lat="39.5769699" lon="21.1344413"><ele>1029.0</ele><time>2026-04-27T09:09:33.178Z</time></trkpt><trkpt lat="39.5769947" lon="21.1345342"><ele>1029.0</ele><time>2026-04-27T09:09:34.179Z</time></trkpt><trkpt lat="39.577034" lon="21.1346175"><ele>1029.0</ele><time>2026-04-27T09:09:35.178Z</time></trkpt><trkpt lat="39.5770859" lon="21.1346984"><ele>1029.0</ele><time>2026-04-27T09:09:36.179Z</time></trkpt><trkpt lat="39.5771381" lon="21.134781"><ele>1029.0</ele><time>2026-04-27T09:09:37.178Z</time></trkpt><trkpt lat="39.5772006" lon="21.1348538"><ele>1029.0</ele><time>2026-04-27T09:09:38.179Z</time></trkpt><trkpt lat="39.5772754" lon="21.134905"><ele>1029.0</ele><time>2026-04-27T09:09:39.179Z</time></trkpt><trkpt lat="39.5773624" lon="21.1349382"><ele>1029.0</ele><time>2026-04-27T09:09:40.178Z</time></trkpt><trkpt lat="39.5774531" lon="21.1349586"><ele>1027.6000000000001</ele><time>2026-04-27T09:09:41.178Z</time></trkpt><trkpt lat="39.5775486" lon="21.1349778"><ele>1026.2</ele><time>2026-04-27T09:09:42.178Z</time></trkpt><trkpt lat="39.5776465" lon="21.1349925"><ele>1024.8000000000002</ele><time>2026-04-27T09:09:43.179Z</time></trkpt><trkpt lat="39.5777505" lon="21.1350042"><ele>1023.4000000000001</ele><time>2026-04-27T09:09:44.178Z</time></trkpt><trkpt lat="39.5778468" lon="21.1350362"><ele>1022.0</ele><time>2026-04-27T09:09:45.179Z</time></trkpt><trkpt lat="39.5779384" lon="21.1350875"><ele>1022.0</ele><time>2026-04-27T09:09:46.179Z</time></trkpt><trkpt lat="39.5780243" lon="21.1351723"><ele>1022.0</ele><time>2026-04-27T09:09:47.179Z</time></trkpt><trkpt lat="39.5781272" lon="21.1352634"><ele>1022.0</ele><time>2026-04-27T09:09:48.179Z</time></trkpt><trkpt lat="39.5782437" lon="21.1353325"><ele>1022.0</ele><time>2026-04-27T09:09:49.179Z</time></trkpt><trkpt lat="39.5783483" lon="21.135414"><ele>1022.0</ele><time>2026-04-27T09:09:50.178Z</time></trkpt><trkpt lat="39.5784444" lon="21.1355204"><ele>1022.0</ele><time>2026-04-27T09:09:51.179Z</time></trkpt><trkpt lat="39.5785244" lon="21.1356307"><ele>1022.0</ele><time>2026-04-27T09:09:52.178Z</time></trkpt><trkpt lat="39.5785959" lon="21.1357516"><ele>1022.0</ele><time>2026-04-27T09:09:53.178Z</time></trkpt><trkpt lat="39.5786596" lon="21.1358752"><ele>1023.25</ele><time>2026-04-27T09:09:54.179Z</time></trkpt><trkpt lat="39.5787133" lon="21.1360245"><ele>1024.5</ele><time>2026-04-27T09:09:55.179Z</time></trkpt><trkpt lat="39.5787516" lon="21.1361867"><ele>1025.75</ele><time>2026-04-27T09:09:56.179Z</time></trkpt><trkpt lat="39.5787766" lon="21.1363564"><ele>1027.0</ele><time>2026-04-27T09:09:57.179Z</time></trkpt><trkpt lat="39.5787871" lon="21.1365214"><ele>1021.75</ele><time>2026-04-27T09:09:58.178Z</time></trkpt><trkpt lat="39.5787939" lon="21.1366845"><ele>1016.5</ele><time>2026-04-27T09:09:59.178Z</time></trkpt><trkpt lat="39.5787997" lon="21.1368433"><ele>1011.25</ele><time>2026-04-27T09:10:00.179Z</time></trkpt><trkpt lat="39.5788027" lon="21.1369896"><ele>1006.0</ele><time>2026-04-27T09:10:01.179Z</time></trkpt><trkpt lat="39.5788102" lon="21.1371379"><ele>1006.0</ele><time>2026-04-27T09:10:02.179Z</time></trkpt><trkpt lat="39.5788359" lon="21.1372734"><ele>1005.9999999999999</ele><time>2026-04-27T09:10:03.179Z</time></trkpt><trkpt lat="39.5788741" lon="21.1373976"><ele>1005.9999999999999</ele><time>2026-04-27T09:10:04.179Z</time></trkpt><trkpt lat="39.5789298" lon="21.1374946"><ele>1006.0</ele><time>2026-04-27T09:10:05.179Z</time></trkpt><trkpt lat="39.5790022" lon="21.137556"><ele>1006.0</ele><time>2026-04-27T09:10:06.179Z</time></trkpt><trkpt lat="39.5790878" lon="21.1375824"><ele>1004.8</ele><time>2026-04-27T09:10:07.179Z</time></trkpt><trkpt lat="39.5791829" lon="21.1375898"><ele>1003.5999999999999</ele><time>2026-04-27T09:10:08.178Z</time></trkpt><trkpt lat="39.5792784" lon="21.1375493"><ele>1002.4</ele><time>2026-04-27T09:10:09.179Z</time></trkpt><trkpt lat="39.5793721" lon="21.1375479"><ele>1001.2</ele><time>2026-04-27T09:10:10.178Z</time></trkpt><trkpt lat="39.579469" lon="21.1376001"><ele>1000.0</ele><time>2026-04-27T09:10:11.178Z</time></trkpt><trkpt lat="39.5795584" lon="21.1376826"><ele>1000.0</ele><time>2026-04-27T09:10:12.179Z</time></trkpt><trkpt lat="39.5796651" lon="21.1377754"><ele>1000.0</ele><time>2026-04-27T09:10:13.179Z</time></trkpt><trkpt lat="39.5797913" lon="21.1378645"><ele>1000.0</ele><time>2026-04-27T09:10:14.178Z</time></trkpt><trkpt lat="39.5799256" lon="21.1379458"><ele>1000.0</ele><time>2026-04-27T09:10:15.179Z</time></trkpt><trkpt lat="39.5800497" lon="21.1380419"><ele>1000.0</ele><time>2026-04-27T09:10:16.178Z</time></trkpt><trkpt lat="39.5801657" lon="21.1381631"><ele>1000.0</ele><time>2026-04-27T09:10:17.179Z</time></trkpt><trkpt lat="39.5802638" lon="21.1382923"><ele>1000.0</ele><time>2026-04-27T09:10:18.179Z</time></trkpt><trkpt lat="39.5803617" lon="21.1384343"><ele>1000.0</ele><time>2026-04-27T09:10:19.179Z</time></trkpt><trkpt lat="39.5804646" lon="21.138569"><ele>998.25</ele><time>2026-04-27T09:10:20.179Z</time></trkpt><trkpt lat="39.5805668" lon="21.1386947"><ele>996.5</ele><time>2026-04-27T09:10:21.178Z</time></trkpt><trkpt lat="39.5806758" lon="21.1388164"><ele>994.75</ele><time>2026-04-27T09:10:22.178Z</time></trkpt><trkpt lat="39.5807787" lon="21.1389322"><ele>993.0</ele><time>2026-04-27T09:10:23.179Z</time></trkpt><trkpt lat="39.5808833" lon="21.1390344"><ele>994.25</ele><time>2026-04-27T09:10:24.179Z</time></trkpt><trkpt lat="39.5809816" lon="21.1391399"><ele>995.5</ele><time>2026-04-27T09:10:25.179Z</time></trkpt><trkpt lat="39.5810714" lon="21.1392359"><ele>996.75</ele><time>2026-04-27T09:10:26.179Z</time></trkpt><trkpt lat="39.5811568" lon="21.139324"><ele>998.0</ele><time>2026-04-27T09:10:27.179Z</time></trkpt><trkpt lat="39.5812386" lon="21.1394153"><ele>998.0</ele><time>2026-04-27T09:10:28.179Z</time></trkpt><trkpt lat="39.5813158" lon="21.1395028"><ele>998.0</ele><time>2026-04-27T09:10:29.179Z</time></trkpt><trkpt lat="39.5813898" lon="21.1395833"><ele>998.0</ele><time>2026-04-27T09:10:30.179Z</time></trkpt><trkpt lat="39.581459" lon="21.1396557"><ele>998.0</ele><time>2026-04-27T09:10:31.179Z</time></trkpt><trkpt lat="39.5815173" lon="21.1397123"><ele>998.0</ele><time>2026-04-27T09:10:32.179Z</time></trkpt><trkpt lat="39.5815932" lon="21.1397838"><ele>998.0000000000001</ele><time>2026-04-27T09:10:34.179Z</time></trkpt><trkpt lat="39.5816495" lon="21.1398233"><ele>998.0</ele><time>2026-04-27T09:10:37.179Z</time></trkpt><trkpt lat="39.581707" lon="21.1398643"><ele>998.0</ele><time>2026-04-27T09:10:39.179Z</time></trkpt><trkpt lat="39.5817761" lon="21.1399252"><ele>998.0</ele><time>2026-04-27T09:10:41.179Z</time></trkpt><trkpt lat="39.5818392" lon="21.1399846"><ele>998.0000000000001</ele><time>2026-04-27T09:10:43.179Z</time></trkpt><trkpt lat="39.5819057" lon="21.1400667"><ele>998.0</ele><time>2026-04-27T09:10:45.178Z</time></trkpt><trkpt lat="39.5819699" lon="21.1401836"><ele>988.8</ele><time>2026-04-27T09:10:47.178Z</time></trkpt><trkpt lat="39.5819959" lon="21.1403064"><ele>979.5999999999999</ele><time>2026-04-27T09:10:49.179Z</time></trkpt><trkpt lat="39.5819489" lon="21.1404229"><ele>970.4000000000001</ele><time>2026-04-27T09:10:51.178Z</time></trkpt><trkpt lat="39.5818212" lon="21.1404716"><ele>961.2</ele><time>2026-04-27T09:10:53.179Z</time></trkpt><trkpt lat="39.5817422" lon="21.1404706"><ele>952.0</ele><time>2026-04-27T09:10:54.178Z</time></trkpt><trkpt lat="39.5816561" lon="21.1404676"><ele>952.0</ele><time>2026-04-27T09:10:55.179Z</time></trkpt><trkpt lat="39.581574" lon="21.1404517"><ele>952.0</ele><time>2026-04-27T09:10:56.179Z</time></trkpt><trkpt lat="39.5814795" lon="21.140391"><ele>952.0</ele><time>2026-04-27T09:10:57.179Z</time></trkpt><trkpt lat="39.5814002" lon="21.1403098"><ele>952.0</ele><time>2026-04-27T09:10:58.178Z</time></trkpt><trkpt lat="39.5813257" lon="21.1402196"><ele>952.0</ele><time>2026-04-27T09:10:59.179Z</time></trkpt><trkpt lat="39.5812519" lon="21.1401124"><ele>954.5</ele><time>2026-04-27T09:11:00.179Z</time></trkpt><trkpt lat="39.5811654" lon="21.1400169"><ele>957.0</ele><time>2026-04-27T09:11:01.179Z</time></trkpt><trkpt lat="39.5810684" lon="21.1399405"><ele>959.5</ele><time>2026-04-27T09:11:02.178Z</time></trkpt><trkpt lat="39.5809673" lon="21.1398782"><ele>962.0</ele><time>2026-04-27T09:11:03.178Z</time></trkpt><trkpt lat="39.5808563" lon="21.1398249"><ele>962.0</ele><time>2026-04-27T09:11:04.179Z</time></trkpt><trkpt lat="39.5807582" lon="21.1397605"><ele>962.0</ele><time>2026-04-27T09:11:05.179Z</time></trkpt><trkpt lat="39.5805751" lon="21.1396463"><ele>962.0</ele><time>2026-04-27T09:11:07.178Z</time></trkpt><trkpt lat="39.5804811" lon="21.1396101"><ele>962.0</ele><time>2026-04-27T09:11:08.178Z</time></trkpt><trkpt lat="39.580394" lon="21.1396027"><ele>956.6666666666667</ele><time>2026-04-27T09:11:09.178Z</time></trkpt><trkpt lat="39.5803073" lon="21.1396306"><ele>951.3333333333334</ele><time>2026-04-27T09:11:10.179Z</time></trkpt><trkpt lat="39.5802256" lon="21.1396771"><ele>946.0</ele><time>2026-04-27T09:11:11.179Z</time></trkpt><trkpt lat="39.5801518" lon="21.139731"><ele>940.6666666666667</ele><time>2026-04-27T09:11:12.179Z</time></trkpt><trkpt lat="39.5800734" lon="21.1397714"><ele>935.3333333333334</ele><time>2026-04-27T09:11:13.178Z</time></trkpt><trkpt lat="39.579995" lon="21.1397838"><ele>930.0</ele><time>2026-04-27T09:11:14.178Z</time></trkpt><trkpt lat="39.5799171" lon="21.1397783"><ele>930.0</ele><time>2026-04-27T09:11:15.179Z</time></trkpt><trkpt lat="39.5798443" lon="21.1397077"><ele>930.0</ele><time>2026-04-27T09:11:16.178Z</time></trkpt><trkpt lat="39.5797699" lon="21.1396144"><ele>930.0</ele><time>2026-04-27T09:11:17.179Z</time></trkpt><trkpt lat="39.5797116" lon="21.139501"><ele>930.0</ele><time>2026-04-27T09:11:18.179Z</time></trkpt><trkpt lat="39.5796553" lon="21.1393797"><ele>930.0</ele><time>2026-04-27T09:11:19.178Z</time></trkpt><trkpt lat="39.5796078" lon="21.1392548"><ele>930.0</ele><time>2026-04-27T09:11:20.178Z</time></trkpt><trkpt lat="39.579562" lon="21.139136"><ele>930.0</ele><time>2026-04-27T09:11:21.178Z</time></trkpt><trkpt lat="39.5795128" lon="21.1390273"><ele>930.0</ele><time>2026-04-27T09:11:22.178Z</time></trkpt><trkpt lat="39.5794404" lon="21.1389399"><ele>930.0</ele><time>2026-04-27T09:11:23.178Z</time></trkpt><trkpt lat="39.5793696" lon="21.1388589"><ele>930.0</ele><time>2026-04-27T09:11:24.178Z</time></trkpt><trkpt lat="39.5792847" lon="21.1388"><ele>929.5</ele><time>2026-04-27T09:11:25.179Z</time></trkpt><trkpt lat="39.5791938" lon="21.1387683"><ele>929.0</ele><time>2026-04-27T09:11:26.178Z</time></trkpt><trkpt lat="39.579099" lon="21.1387778"><ele>928.5</ele><time>2026-04-27T09:11:27.179Z</time></trkpt><trkpt lat="39.5790099" lon="21.1387945"><ele>928.0</ele><time>2026-04-27T09:11:28.179Z</time></trkpt><trkpt lat="39.5789244" lon="21.1388064"><ele>927.5</ele><time>2026-04-27T09:11:29.179Z</time></trkpt><trkpt lat="39.5788481" lon="21.1388066"><ele>927.0</ele><time>2026-04-27T09:11:30.179Z</time></trkpt><trkpt lat="39.5787647" lon="21.1387458"><ele>927.0</ele><time>2026-04-27T09:11:31.179Z</time></trkpt><trkpt lat="39.57871" lon="21.1386772"><ele>927.0</ele><time>2026-04-27T09:11:32.179Z</time></trkpt><trkpt lat="39.5786592" lon="21.1385781"><ele>927.0</ele><time>2026-04-27T09:11:33.179Z</time></trkpt><trkpt lat="39.5786145" lon="21.138462"><ele>927.0</ele><time>2026-04-27T09:11:34.178Z</time></trkpt><trkpt lat="39.5785544" lon="21.1383584"><ele>927.0</ele><time>2026-04-27T09:11:35.179Z</time></trkpt><trkpt lat="39.5784845" lon="21.1382622"><ele>928.8</ele><time>2026-04-27T09:11:36.178Z</time></trkpt><trkpt lat="39.5784117" lon="21.1381701"><ele>930.6</ele><time>2026-04-27T09:11:37.179Z</time></trkpt><trkpt lat="39.5783281" lon="21.1380978"><ele>932.3999999999999</ele><time>2026-04-27T09:11:38.178Z</time></trkpt><trkpt lat="39.5782424" lon="21.1380293"><ele>934.1999999999999</ele><time>2026-04-27T09:11:39.179Z</time></trkpt><trkpt lat="39.5781491" lon="21.1379712"><ele>936.0</ele><time>2026-04-27T09:11:40.178Z</time></trkpt><trkpt lat="39.5780621" lon="21.1379056"><ele>936.0</ele><time>2026-04-27T09:11:41.179Z</time></trkpt><trkpt lat="39.5779897" lon="21.1378351"><ele>935.9999999999999</ele><time>2026-04-27T09:11:42.179Z</time></trkpt><trkpt lat="39.5779132" lon="21.1377464"><ele>935.9999999999999</ele><time>2026-04-27T09:11:43.178Z</time></trkpt><trkpt lat="39.5778484" lon="21.1376564"><ele>936.0</ele><time>2026-04-27T09:11:44.178Z</time></trkpt><trkpt lat="39.5777857" lon="21.137566"><ele>936.0</ele><time>2026-04-27T09:11:45.178Z</time></trkpt><trkpt lat="39.5777479" lon="21.1374448"><ele>931.5999999999999</ele><time>2026-04-27T09:11:46.179Z</time></trkpt><trkpt lat="39.5777053" lon="21.1373219"><ele>927.1999999999999</ele><time>2026-04-27T09:11:47.178Z</time></trkpt><trkpt lat="39.5776642" lon="21.1371974"><ele>922.8000000000001</ele><time>2026-04-27T09:11:48.178Z</time></trkpt><trkpt lat="39.5776376" lon="21.1370699"><ele>918.4000000000001</ele><time>2026-04-27T09:11:49.178Z</time></trkpt><trkpt lat="39.5775912" lon="21.1369677"><ele>914.0</ele><time>2026-04-27T09:11:50.179Z</time></trkpt><trkpt lat="39.5775263" lon="21.1368904"><ele>914.0</ele><time>2026-04-27T09:11:51.179Z</time></trkpt><trkpt lat="39.5774524" lon="21.136841"><ele>914.0000000000001</ele><time>2026-04-27T09:11:52.179Z</time></trkpt><trkpt lat="39.5773669" lon="21.1368108"><ele>914.0000000000001</ele><time>2026-04-27T09:11:53.179Z</time></trkpt><trkpt lat="39.5772673" lon="21.1367967"><ele>914.0</ele><time>2026-04-27T09:11:54.178Z</time></trkpt><trkpt lat="39.5771835" lon="21.1367855"><ele>914.0</ele><time>2026-04-27T09:11:55.178Z</time></trkpt><trkpt lat="39.5770884" lon="21.1367788"><ele>905.8000000000001</ele><time>2026-04-27T09:11:56.178Z</time></trkpt><trkpt lat="39.5770027" lon="21.1367748"><ele>897.6000000000001</ele><time>2026-04-27T09:11:57.179Z</time></trkpt><trkpt lat="39.5769082" lon="21.1367915"><ele>889.4</ele><time>2026-04-27T09:11:58.178Z</time></trkpt><trkpt lat="39.5768178" lon="21.1368061"><ele>881.2</ele><time>2026-04-27T09:11:59.179Z</time></trkpt><trkpt lat="39.5767266" lon="21.1367976"><ele>873.0</ele><time>2026-04-27T09:12:00.179Z</time></trkpt><trkpt lat="39.5766466" lon="21.1367464"><ele>873.0</ele><time>2026-04-27T09:12:01.178Z</time></trkpt><trkpt lat="39.5765814" lon="21.1366859"><ele>873.0</ele><time>2026-04-27T09:12:02.179Z</time></trkpt><trkpt lat="39.5765169" lon="21.1366006"><ele>873.0</ele><time>2026-04-27T09:12:03.179Z</time></trkpt><trkpt lat="39.5764758" lon="21.1364841"><ele>873.0</ele><time>2026-04-27T09:12:04.178Z</time></trkpt><trkpt lat="39.5764392" lon="21.1363649"><ele>873.0</ele><time>2026-04-27T09:12:05.178Z</time></trkpt><trkpt lat="39.5763988" lon="21.1362415"><ele>871.0</ele><time>2026-04-27T09:12:06.178Z</time></trkpt><trkpt lat="39.5763528" lon="21.1361239"><ele>869.0</ele><time>2026-04-27T09:12:07.178Z</time></trkpt><trkpt lat="39.576299" lon="21.136019"><ele>867.0</ele><time>2026-04-27T09:12:08.179Z</time></trkpt><trkpt lat="39.5762343" lon="21.13594"><ele>865.0</ele><time>2026-04-27T09:12:09.178Z</time></trkpt><trkpt lat="39.5761504" lon="21.1358807"><ele>863.0</ele><time>2026-04-27T09:12:10.178Z</time></trkpt><trkpt lat="39.5760594" lon="21.1358345"><ele>863.0000000000001</ele><time>2026-04-27T09:12:11.178Z</time></trkpt><trkpt lat="39.5759777" lon="21.1357787"><ele>863.0</ele><time>2026-04-27T09:12:12.179Z</time></trkpt><trkpt lat="39.5759138" lon="21.1357121"><ele>863.0</ele><time>2026-04-27T09:12:13.179Z</time></trkpt><trkpt lat="39.5758642" lon="21.1356253"><ele>863.0</ele><time>2026-04-27T09:12:14.179Z</time></trkpt><trkpt lat="39.5758218" lon="21.135527"><ele>863.0000000000001</ele><time>2026-04-27T09:12:15.179Z</time></trkpt><trkpt lat="39.5758219" lon="21.1353917"><ele>863.0</ele><time>2026-04-27T09:12:16.179Z</time></trkpt><trkpt lat="39.5758129" lon="21.135266"><ele>870.8</ele><time>2026-04-27T09:12:17.179Z</time></trkpt><trkpt lat="39.5757786" lon="21.1351543"><ele>878.5999999999999</ele><time>2026-04-27T09:12:18.178Z</time></trkpt><trkpt lat="39.5757195" lon="21.1350569"><ele>886.4000000000001</ele><time>2026-04-27T09:12:19.178Z</time></trkpt><trkpt lat="39.5756494" lon="21.1349737"><ele>894.2</ele><time>2026-04-27T09:12:20.178Z</time></trkpt><trkpt lat="39.5755803" lon="21.1348995"><ele>902.0</ele><time>2026-04-27T09:12:21.179Z</time></trkpt><trkpt lat="39.5755186" lon="21.1348087"><ele>907.6</ele><time>2026-04-27T09:12:22.178Z</time></trkpt><trkpt lat="39.575474" lon="21.1347055"><ele>913.2</ele><time>2026-04-27T09:12:23.179Z</time></trkpt><trkpt lat="39.5754728" lon="21.1345586"><ele>918.8</ele><time>2026-04-27T09:12:24.179Z</time></trkpt><trkpt lat="39.5754557" lon="21.1344278"><ele>924.4</ele><time>2026-04-27T09:12:25.178Z</time></trkpt><trkpt lat="39.5754815" lon="21.1342819"><ele>930.0</ele><time>2026-04-27T09:12:26.179Z</time></trkpt><trkpt lat="39.5754694" lon="21.1341515"><ele>921.8</ele><time>2026-04-27T09:12:27.179Z</time></trkpt><trkpt lat="39.5754472" lon="21.1340263"><ele>913.6</ele><time>2026-04-27T09:12:28.179Z</time></trkpt><trkpt lat="39.5754487" lon="21.133909"><ele>905.4000000000001</ele><time>2026-04-27T09:12:29.178Z</time></trkpt><trkpt lat="39.5754663" lon="21.133799"><ele>897.2</ele><time>2026-04-27T09:12:30.179Z</time></trkpt><trkpt lat="39.5754916" lon="21.1336872"><ele>889.0</ele><time>2026-04-27T09:12:31.179Z</time></trkpt><trkpt lat="39.5755679" lon="21.1336328"><ele>888.9999999999999</ele><time>2026-04-27T09:12:32.179Z</time></trkpt><trkpt lat="39.5756303" lon="21.1335714"><ele>889.0</ele><time>2026-04-27T09:12:33.179Z</time></trkpt><trkpt lat="39.5756842" lon="21.1335028"><ele>889.0</ele><time>2026-04-27T09:12:34.179Z</time></trkpt><trkpt lat="39.5757315" lon="21.1334246"><ele>889.0</ele><time>2026-04-27T09:12:35.179Z</time></trkpt><trkpt lat="39.5757571" lon="21.1333354"><ele>888.9999999999999</ele><time>2026-04-27T09:12:36.179Z</time></trkpt><trkpt lat="39.5757619" lon="21.1332302"><ele>889.0</ele><time>2026-04-27T09:12:37.178Z</time></trkpt><trkpt lat="39.5757509" lon="21.133126"><ele>879.1666666666666</ele><time>2026-04-27T09:12:38.178Z</time></trkpt><trkpt lat="39.5757331" lon="21.1330242"><ele>869.3333333333333</ele><time>2026-04-27T09:12:39.178Z</time></trkpt><trkpt lat="39.5757373" lon="21.1329135"><ele>859.5</ele><time>2026-04-27T09:12:40.179Z</time></trkpt><trkpt lat="39.5757449" lon="21.1328022"><ele>849.6666666666667</ele><time>2026-04-27T09:12:41.179Z</time></trkpt><trkpt lat="39.5757841" lon="21.1327094"><ele>839.8333333333334</ele><time>2026-04-27T09:12:42.179Z</time></trkpt><trkpt lat="39.575863" lon="21.1326132"><ele>830.0</ele><time>2026-04-27T09:12:43.178Z</time></trkpt><trkpt lat="39.5758946" lon="21.1324998"><ele>830.0</ele><time>2026-04-27T09:12:44.179Z</time></trkpt><trkpt lat="39.575922" lon="21.1323938"><ele>830.0</ele><time>2026-04-27T09:12:45.179Z</time></trkpt><trkpt lat="39.5759996" lon="21.1323075"><ele>830.0</ele><time>2026-04-27T09:12:46.178Z</time></trkpt><trkpt lat="39.5760612" lon="21.1322038"><ele>830.0</ele><time>2026-04-27T09:12:47.179Z</time></trkpt><trkpt lat="39.5761668" lon="21.1321417"><ele>830.0</ele><time>2026-04-27T09:12:48.178Z</time></trkpt><trkpt lat="39.5762524" lon="21.1320741"><ele>834.4</ele><time>2026-04-27T09:12:49.179Z</time></trkpt><trkpt lat="39.5763422" lon="21.1320383"><ele>838.8</ele><time>2026-04-27T09:12:50.178Z</time></trkpt><trkpt lat="39.576427" lon="21.1319756"><ele>843.2</ele><time>2026-04-27T09:12:51.178Z</time></trkpt><trkpt lat="39.5764886" lon="21.1318891"><ele>847.6</ele><time>2026-04-27T09:12:52.178Z</time></trkpt><trkpt lat="39.5765362" lon="21.1317762"><ele>852.0</ele><time>2026-04-27T09:12:53.178Z</time></trkpt><trkpt lat="39.5765738" lon="21.1316543"><ele>839.0</ele><time>2026-04-27T09:12:54.179Z</time></trkpt><trkpt lat="39.5766269" lon="21.1315355"><ele>826.0</ele><time>2026-04-27T09:12:55.179Z</time></trkpt><trkpt lat="39.5766967" lon="21.1314445"><ele>813.0</ele><time>2026-04-27T09:12:56.179Z</time></trkpt><trkpt lat="39.5767824" lon="21.1313739"><ele>800.0</ele><time>2026-04-27T09:12:57.178Z</time></trkpt><trkpt lat="39.5768674" lon="21.1313087"><ele>787.0</ele><time>2026-04-27T09:12:58.178Z</time></trkpt><trkpt lat="39.5769579" lon="21.1312394"><ele>795.9999999999999</ele><time>2026-04-27T09:12:59.178Z</time></trkpt><trkpt lat="39.5770418" lon="21.1311731"><ele>805.0</ele><time>2026-04-27T09:13:00.179Z</time></trkpt><trkpt lat="39.5771201" lon="21.131107"><ele>814.0</ele><time>2026-04-27T09:13:01.179Z</time></trkpt><trkpt lat="39.5771957" lon="21.1310628"><ele>823.0</ele><time>2026-04-27T09:13:02.179Z</time></trkpt><trkpt lat="39.5772749" lon="21.1310501"><ele>831.9999999999999</ele><time>2026-04-27T09:13:03.178Z</time></trkpt><trkpt lat="39.5773537" lon="21.1310515"><ele>841.0</ele><time>2026-04-27T09:13:04.179Z</time></trkpt><trkpt lat="39.5774357" lon="21.131054"><ele>840.9999999999999</ele><time>2026-04-27T09:13:05.178Z</time></trkpt><trkpt lat="39.5775066" lon="21.1310413"><ele>841.0</ele><time>2026-04-27T09:13:06.178Z</time></trkpt><trkpt lat="39.5775691" lon="21.1309563"><ele>841.0</ele><time>2026-04-27T09:13:07.178Z</time></trkpt><trkpt lat="39.5776174" lon="21.1308663"><ele>841.0</ele><time>2026-04-27T09:13:08.178Z</time></trkpt><trkpt lat="39.5776488" lon="21.1307544"><ele>840.9999999999999</ele><time>2026-04-27T09:13:09.179Z</time></trkpt><trkpt lat="39.577692" lon="21.1306491"><ele>841.0</ele><time>2026-04-27T09:13:10.179Z</time></trkpt><trkpt lat="39.57774" lon="21.130562"><ele>840.6666666666666</ele><time>2026-04-27T09:13:11.178Z</time></trkpt><trkpt lat="39.5777939" lon="21.1305088"><ele>840.3333333333333</ele><time>2026-04-27T09:13:12.178Z</time></trkpt><trkpt lat="39.5778603" lon="21.1304642"><ele>840.0</ele><time>2026-04-27T09:13:13.178Z</time></trkpt><trkpt lat="39.5779502" lon="21.1304957"><ele>839.6666666666667</ele><time>2026-04-27T09:13:14.178Z</time></trkpt><trkpt lat="39.5780161" lon="21.1304576"><ele>839.3333333333334</ele><time>2026-04-27T09:13:15.179Z</time></trkpt><trkpt lat="39.5780737" lon="21.1304017"><ele>839.0</ele><time>2026-04-27T09:13:16.179Z</time></trkpt><trkpt lat="39.5781118" lon="21.1303196"><ele>839.0</ele><time>2026-04-27T09:13:17.179Z</time></trkpt><trkpt lat="39.5781126" lon="21.1301913"><ele>839.0</ele><time>2026-04-27T09:13:18.178Z</time></trkpt><trkpt lat="39.578103" lon="21.1300569"><ele>839.0</ele><time>2026-04-27T09:13:19.178Z</time></trkpt><trkpt lat="39.578097" lon="21.1299303"><ele>839.0</ele><time>2026-04-27T09:13:20.179Z</time></trkpt><trkpt lat="39.5780985" lon="21.1298139"><ele>839.0</ele><time>2026-04-27T09:13:21.178Z</time></trkpt><trkpt lat="39.5781249" lon="21.1297173"><ele>832.6</ele><time>2026-04-27T09:13:22.179Z</time></trkpt><trkpt lat="39.5781726" lon="21.129628"><ele>826.2</ele><time>2026-04-27T09:13:23.179Z</time></trkpt><trkpt lat="39.5782626" lon="21.1295663"><ele>819.8000000000001</ele><time>2026-04-27T09:13:24.179Z</time></trkpt><trkpt lat="39.5783611" lon="21.1295224"><ele>813.4000000000001</ele><time>2026-04-27T09:13:25.178Z</time></trkpt><trkpt lat="39.5784662" lon="21.129495"><ele>807.0</ele><time>2026-04-27T09:13:26.178Z</time></trkpt><trkpt lat="39.5785637" lon="21.1294689"><ele>807.0</ele><time>2026-04-27T09:13:27.179Z</time></trkpt><trkpt lat="39.5786467" lon="21.1294331"><ele>807.0</ele><time>2026-04-27T09:13:28.178Z</time></trkpt><trkpt lat="39.578708" lon="21.1293805"><ele>807.0</ele><time>2026-04-27T09:13:29.178Z</time></trkpt><trkpt lat="39.5787399" lon="21.1293028"><ele>807.0</ele><time>2026-04-27T09:13:30.178Z</time></trkpt><trkpt lat="39.5787384" lon="21.1292131"><ele>807.0</ele><time>2026-04-27T09:13:31.179Z</time></trkpt><trkpt lat="39.5787015" lon="21.1291159"><ele>807.0</ele><time>2026-04-27T09:13:32.178Z</time></trkpt><trkpt lat="39.5786465" lon="21.1290207"><ele>804.0</ele><time>2026-04-27T09:13:33.179Z</time></trkpt><trkpt lat="39.5786059" lon="21.1289225"><ele>801.0</ele><time>2026-04-27T09:13:34.179Z</time></trkpt><trkpt lat="39.57858" lon="21.1288064"><ele>798.0</ele><time>2026-04-27T09:13:35.178Z</time></trkpt><trkpt lat="39.5785823" lon="21.1286831"><ele>795.0</ele><time>2026-04-27T09:13:36.179Z</time></trkpt><trkpt lat="39.5786345" lon="21.1285835"><ele>792.0</ele><time>2026-04-27T09:13:37.178Z</time></trkpt><trkpt lat="39.5786813" lon="21.128465"><ele>787.6</ele><time>2026-04-27T09:13:38.179Z</time></trkpt><trkpt lat="39.5787057" lon="21.1283404"><ele>783.2</ele><time>2026-04-27T09:13:39.179Z</time></trkpt><trkpt lat="39.5787082" lon="21.1282188"><ele>778.8</ele><time>2026-04-27T09:13:40.178Z</time></trkpt><trkpt lat="39.5786847" lon="21.128097"><ele>774.4</ele><time>2026-04-27T09:13:41.178Z</time></trkpt><trkpt lat="39.5786515" lon="21.1279876"><ele>770.0</ele><time>2026-04-27T09:13:42.179Z</time></trkpt><trkpt lat="39.5786169" lon="21.127873"><ele>770.0</ele><time>2026-04-27T09:13:43.178Z</time></trkpt><trkpt lat="39.578616" lon="21.1277424"><ele>770.0</ele><time>2026-04-27T09:13:44.179Z</time></trkpt><trkpt lat="39.578631" lon="21.1276025"><ele>770.0</ele><time>2026-04-27T09:13:45.178Z</time></trkpt><trkpt lat="39.5786311" lon="21.1274655"><ele>770.0</ele><time>2026-04-27T09:13:46.179Z</time></trkpt><trkpt lat="39.5786262" lon="21.1273319"><ele>770.0</ele><time>2026-04-27T09:13:47.179Z</time></trkpt><trkpt lat="39.5786509" lon="21.1272016"><ele>768.0</ele><time>2026-04-27T09:13:48.178Z</time></trkpt><trkpt lat="39.5786836" lon="21.1270775"><ele>766.0</ele><time>2026-04-27T09:13:49.178Z</time></trkpt><trkpt lat="39.5787224" lon="21.1269557"><ele>764.0</ele><time>2026-04-27T09:13:50.179Z</time></trkpt><trkpt lat="39.5788217" lon="21.1268428"><ele>762.0</ele><time>2026-04-27T09:13:51.178Z</time></trkpt><trkpt lat="39.5788781" lon="21.1267105"><ele>778.5</ele><time>2026-04-27T09:13:52.179Z</time></trkpt><trkpt lat="39.5789079" lon="21.1265622"><ele>795.0</ele><time>2026-04-27T09:13:53.179Z</time></trkpt><trkpt lat="39.5789239" lon="21.1263922"><ele>811.5</ele><time>2026-04-27T09:13:54.179Z</time></trkpt><trkpt lat="39.5789281" lon="21.1262258"><ele>828.0</ele><time>2026-04-27T09:13:55.178Z</time></trkpt><trkpt lat="39.5789131" lon="21.1260638"><ele>828.0</ele><time>2026-04-27T09:13:56.179Z</time></trkpt><trkpt lat="39.5788792" lon="21.1259155"><ele>828.0</ele><time>2026-04-27T09:13:57.179Z</time></trkpt><trkpt lat="39.5788349" lon="21.125772"><ele>828.0</ele><time>2026-04-27T09:13:58.179Z</time></trkpt><trkpt lat="39.5787906" lon="21.1256252"><ele>828.0</ele><time>2026-04-27T09:13:59.179Z</time></trkpt><trkpt lat="39.5787514" lon="21.1254745"><ele>828.8</ele><time>2026-04-27T09:14:00.178Z</time></trkpt><trkpt lat="39.5787202" lon="21.1253278"><ele>829.5999999999999</ele><time>2026-04-27T09:14:01.179Z</time></trkpt><trkpt lat="39.5787035" lon="21.1252081"><ele>830.4000000000001</ele><time>2026-04-27T09:14:02.178Z</time></trkpt><trkpt lat="39.5787165" lon="21.1250716"><ele>831.2</ele><time>2026-04-27T09:14:03.178Z</time></trkpt><trkpt lat="39.578745" lon="21.1249507"><ele>832.0</ele><time>2026-04-27T09:14:04.179Z</time></trkpt><trkpt lat="39.5787857" lon="21.1248443"><ele>830.0</ele><time>2026-04-27T09:14:05.179Z</time></trkpt><trkpt lat="39.5788242" lon="21.1246961"><ele>828.0</ele><time>2026-04-27T09:14:07.179Z</time></trkpt><trkpt lat="39.5787458" lon="21.1246479"><ele>826.0</ele><time>2026-04-27T09:14:09.178Z</time></trkpt><trkpt lat="39.5786698" lon="21.1247376"><ele>824.0</ele><time>2026-04-27T09:14:11.178Z</time></trkpt><trkpt lat="39.5786421" lon="21.1248301"><ele>822.0</ele><time>2026-04-27T09:14:12.179Z</time></trkpt><trkpt lat="39.5786201" lon="21.1249256"><ele>811.0</ele><time>2026-04-27T09:14:13.178Z</time></trkpt><trkpt lat="39.5785872" lon="21.125051"><ele>800.0</ele><time>2026-04-27T09:14:14.178Z</time></trkpt><trkpt lat="39.5785653" lon="21.1251769"><ele>789.0</ele><time>2026-04-27T09:14:15.179Z</time></trkpt><trkpt lat="39.578551" lon="21.1253084"><ele>778.0</ele><time>2026-04-27T09:14:16.178Z</time></trkpt><trkpt lat="39.5785478" lon="21.1254396"><ele>767.0</ele><time>2026-04-27T09:14:17.179Z</time></trkpt><trkpt lat="39.5785574" lon="21.1255673"><ele>767.0</ele><time>2026-04-27T09:14:18.179Z</time></trkpt><trkpt lat="39.5785673" lon="21.1256811"><ele>767.0</ele><time>2026-04-27T09:14:19.178Z</time></trkpt><trkpt lat="39.578584" lon="21.1257877"><ele>767.0</ele><time>2026-04-27T09:14:20.179Z</time></trkpt><trkpt lat="39.5785986" lon="21.1258868"><ele>767.0</ele><time>2026-04-27T09:14:21.179Z</time></trkpt><trkpt lat="39.5786016" lon="21.1259975"><ele>767.0</ele><time>2026-04-27T09:14:22.178Z</time></trkpt><trkpt lat="39.5785833" lon="21.1261067"><ele>767.0</ele><time>2026-04-27T09:14:23.179Z</time></trkpt><trkpt lat="39.5785533" lon="21.1262252"><ele>766.8</ele><time>2026-04-27T09:14:24.178Z</time></trkpt><trkpt lat="39.5785119" lon="21.1263411"><ele>766.6</ele><time>2026-04-27T09:14:25.178Z</time></trkpt><trkpt lat="39.5784669" lon="21.1264586"><ele>766.4</ele><time>2026-04-27T09:14:26.178Z</time></trkpt><trkpt lat="39.5784235" lon="21.1265699"><ele>766.1999999999999</ele><time>2026-04-27T09:14:27.178Z</time></trkpt><trkpt lat="39.5783829" lon="21.1266815"><ele>766.0</ele><time>2026-04-27T09:14:28.179Z</time></trkpt><trkpt lat="39.5783414" lon="21.1267933"><ele>765.1999999999999</ele><time>2026-04-27T09:14:29.179Z</time></trkpt><trkpt lat="39.5783006" lon="21.126906"><ele>764.4</ele><time>2026-04-27T09:14:30.179Z</time></trkpt><trkpt lat="39.5782711" lon="21.127032"><ele>763.6</ele><time>2026-04-27T09:14:31.178Z</time></trkpt><trkpt lat="39.5782511" lon="21.1271501"><ele>762.8</ele><time>2026-04-27T09:14:32.179Z</time></trkpt><trkpt lat="39.5782338" lon="21.1272587"><ele>762.0</ele><time>2026-04-27T09:14:33.178Z</time></trkpt><trkpt lat="39.5782233" lon="21.1273599"><ele>763.1428571428571</ele><time>2026-04-27T09:14:34.178Z</time></trkpt><trkpt lat="39.5782135" lon="21.1274521"><ele>764.2857142857143</ele><time>2026-04-27T09:14:35.179Z</time></trkpt><trkpt lat="39.5781964" lon="21.1275435"><ele>765.4285714285714</ele><time>2026-04-27T09:14:36.179Z</time></trkpt><trkpt lat="39.5781766" lon="21.1276299"><ele>766.5714285714286</ele><time>2026-04-27T09:14:37.179Z</time></trkpt><trkpt lat="39.5781532" lon="21.1277075"><ele>767.7142857142858</ele><time>2026-04-27T09:14:38.178Z</time></trkpt><trkpt lat="39.5780798" lon="21.127782"><ele>768.8571428571429</ele><time>2026-04-27T09:14:40.178Z</time></trkpt><trkpt lat="39.5780058" lon="21.1277766"><ele>770.0</ele><time>2026-04-27T09:14:42.179Z</time></trkpt><trkpt lat="39.5778869" lon="21.1277589"><ele>765.2</ele><time>2026-04-27T09:14:44.178Z</time></trkpt><trkpt lat="39.5777784" lon="21.1277189"><ele>760.4</ele><time>2026-04-27T09:14:46.178Z</time></trkpt><trkpt lat="39.5776746" lon="21.1277005"><ele>755.5999999999999</ele><time>2026-04-27T09:14:48.179Z</time></trkpt><trkpt lat="39.5775583" lon="21.1277336"><ele>750.8</ele><time>2026-04-27T09:14:50.179Z</time></trkpt><trkpt lat="39.5774955" lon="21.127798"><ele>746.0</ele><time>2026-04-27T09:14:51.178Z</time></trkpt><trkpt lat="39.5774292" lon="21.1278881"><ele>746.0</ele><time>2026-04-27T09:14:52.178Z</time></trkpt><trkpt lat="39.5773528" lon="21.1279835"><ele>746.0</ele><time>2026-04-27T09:14:53.179Z</time></trkpt><trkpt lat="39.5772784" lon="21.1280736"><ele>746.0</ele><time>2026-04-27T09:14:54.179Z</time></trkpt><trkpt lat="39.5771985" lon="21.1281729"><ele>746.0</ele><time>2026-04-27T09:14:55.179Z</time></trkpt><trkpt lat="39.5771247" lon="21.1282775"><ele>746.0</ele><time>2026-04-27T09:14:56.178Z</time></trkpt><trkpt lat="39.5770677" lon="21.1283988"><ele>749.1999999999999</ele><time>2026-04-27T09:14:57.179Z</time></trkpt><trkpt lat="39.5770056" lon="21.1285149"><ele>752.4</ele><time>2026-04-27T09:14:58.178Z</time></trkpt><trkpt lat="39.5769408" lon="21.1286296"><ele>755.6</ele><time>2026-04-27T09:14:59.179Z</time></trkpt><trkpt lat="39.5768716" lon="21.1287396"><ele>758.8</ele><time>2026-04-27T09:15:00.179Z</time></trkpt><trkpt lat="39.5767944" lon="21.1288371"><ele>762.0</ele><time>2026-04-27T09:15:01.179Z</time></trkpt><trkpt lat="39.5767003" lon="21.1289099"><ele>762.0</ele><time>2026-04-27T09:15:02.178Z</time></trkpt><trkpt lat="39.5765966" lon="21.1289553"><ele>762.0</ele><time>2026-04-27T09:15:03.178Z</time></trkpt><trkpt lat="39.5764885" lon="21.1289833"><ele>762.0</ele><time>2026-04-27T09:15:04.179Z</time></trkpt><trkpt lat="39.5763767" lon="21.1289899"><ele>762.0</ele><time>2026-04-27T09:15:05.179Z</time></trkpt><trkpt lat="39.5762624" lon="21.1289805"><ele>762.0</ele><time>2026-04-27T09:15:06.179Z</time></trkpt><trkpt lat="39.5761497" lon="21.1289643"><ele>762.0</ele><time>2026-04-27T09:15:07.179Z</time></trkpt><trkpt lat="39.5760476" lon="21.1289405"><ele>762.0</ele><time>2026-04-27T09:15:08.179Z</time></trkpt><trkpt lat="39.5759423" lon="21.1289255"><ele>762.0</ele><time>2026-04-27T09:15:09.178Z</time></trkpt><trkpt lat="39.5758519" lon="21.1289488"><ele>762.0</ele><time>2026-04-27T09:15:10.179Z</time></trkpt><trkpt lat="39.5757304" lon="21.1289975"><ele>762.0</ele><time>2026-04-27T09:15:11.178Z</time></trkpt><trkpt lat="39.5756149" lon="21.1290815"><ele>762.0</ele><time>2026-04-27T09:15:12.178Z</time></trkpt><trkpt lat="39.5754903" lon="21.1291887"><ele>762.0</ele><time>2026-04-27T09:15:13.179Z</time></trkpt><trkpt lat="39.5753761" lon="21.1292908"><ele>762.0</ele><time>2026-04-27T09:15:14.178Z</time></trkpt><trkpt lat="39.575264" lon="21.1293842"><ele>762.0</ele><time>2026-04-27T09:15:15.178Z</time></trkpt><trkpt lat="39.575154" lon="21.1294735"><ele>762.0</ele><time>2026-04-27T09:15:16.178Z</time></trkpt><trkpt lat="39.5750427" lon="21.1295643"><ele>762.0</ele><time>2026-04-27T09:15:17.178Z</time></trkpt><trkpt lat="39.5749423" lon="21.1296432"><ele>762.0</ele><time>2026-04-27T09:15:18.178Z</time></trkpt><trkpt lat="39.5748422" lon="21.129716"><ele>762.0</ele><time>2026-04-27T09:15:19.179Z</time></trkpt><trkpt lat="39.574744" lon="21.1297844"><ele>773.8333333333334</ele><time>2026-04-27T09:15:20.178Z</time></trkpt><trkpt lat="39.5746591" lon="21.1298466"><ele>785.6666666666667</ele><time>2026-04-27T09:15:21.179Z</time></trkpt><trkpt lat="39.5745901" lon="21.1299037"><ele>797.5</ele><time>2026-04-27T09:15:22.178Z</time></trkpt><trkpt lat="39.5745162" lon="21.129971"><ele>809.3333333333334</ele><time>2026-04-27T09:15:23.178Z</time></trkpt><trkpt lat="39.5744479" lon="21.1300377"><ele>821.1666666666667</ele><time>2026-04-27T09:15:24.178Z</time></trkpt><trkpt lat="39.5743801" lon="21.130111"><ele>833.0</ele><time>2026-04-27T09:15:25.179Z</time></trkpt><trkpt lat="39.5743213" lon="21.1301876"><ele>833.0</ele><time>2026-04-27T09:15:26.179Z</time></trkpt><trkpt lat="39.5742705" lon="21.1302727"><ele>833.0</ele><time>2026-04-27T09:15:27.179Z</time></trkpt><trkpt lat="39.5742323" lon="21.1303525"><ele>833.0</ele><time>2026-04-27T09:15:28.178Z</time></trkpt><trkpt lat="39.574205" lon="21.1304325"><ele>833.0</ele><time>2026-04-27T09:15:29.178Z</time></trkpt><trkpt lat="39.5741659" lon="21.1305065"><ele>833.0</ele><time>2026-04-27T09:15:30.178Z</time></trkpt><trkpt lat="39.5741216" lon="21.1305777"><ele>833.0</ele><time>2026-04-27T09:15:31.179Z</time></trkpt><trkpt lat="39.5740765" lon="21.1306498"><ele>833.0</ele><time>2026-04-27T09:15:32.179Z</time></trkpt><trkpt lat="39.5739987" lon="21.1307528"><ele>794.0</ele><time>2026-04-27T09:15:34.179Z</time></trkpt><trkpt lat="39.5737666" lon="21.1311922"><ele>755.0</ele><time>2026-04-27T09:15:41.178Z</time></trkpt><trkpt lat="39.573707" lon="21.1313384"><ele>761.2</ele><time>2026-04-27T09:15:43.179Z</time></trkpt><trkpt lat="39.573654" lon="21.131465"><ele>767.4</ele><time>2026-04-27T09:15:44.179Z</time></trkpt><trkpt lat="39.5736133" lon="21.1315854"><ele>773.5999999999999</ele><time>2026-04-27T09:15:45.178Z</time></trkpt><trkpt lat="39.5735634" lon="21.1316993"><ele>779.8</ele><time>2026-04-27T09:15:46.178Z</time></trkpt><trkpt lat="39.5735117" lon="21.1318081"><ele>786.0</ele><time>2026-04-27T09:15:47.178Z</time></trkpt><trkpt lat="39.5734396" lon="21.1319284"><ele>786.0</ele><time>2026-04-27T09:15:48.178Z</time></trkpt><trkpt lat="39.5733713" lon="21.1320382"><ele>786.0</ele><time>2026-04-27T09:15:49.178Z</time></trkpt><trkpt lat="39.5732882" lon="21.1321466"><ele>786.0</ele><time>2026-04-27T09:15:50.178Z</time></trkpt><trkpt lat="39.5731985" lon="21.1322471"><ele>786.0</ele><time>2026-04-27T09:15:51.178Z</time></trkpt><trkpt lat="39.5731006" lon="21.1323408"><ele>781.5</ele><time>2026-04-27T09:15:52.178Z</time></trkpt><trkpt lat="39.572995" lon="21.1324217"><ele>777.0</ele><time>2026-04-27T09:15:53.178Z</time></trkpt><trkpt lat="39.5728877" lon="21.132494"><ele>772.5</ele><time>2026-04-27T09:15:54.179Z</time></trkpt><trkpt lat="39.5727721" lon="21.1325556"><ele>768.0</ele><time>2026-04-27T09:15:55.178Z</time></trkpt><trkpt lat="39.5726579" lon="21.1326125"><ele>768.0</ele><time>2026-04-27T09:15:56.178Z</time></trkpt><trkpt lat="39.5725462" lon="21.1326638"><ele>768.0</ele><time>2026-04-27T09:15:57.179Z</time></trkpt><trkpt lat="39.5724279" lon="21.1327092"><ele>768.0</ele><time>2026-04-27T09:15:58.178Z</time></trkpt><trkpt lat="39.5723028" lon="21.1327528"><ele>768.0</ele><time>2026-04-27T09:15:59.179Z</time></trkpt><trkpt lat="39.572169" lon="21.1328069"><ele>768.0</ele><time>2026-04-27T09:16:00.179Z</time></trkpt><trkpt lat="39.572041" lon="21.1328526"><ele>768.0</ele><time>2026-04-27T09:16:01.178Z</time></trkpt><trkpt lat="39.5719117" lon="21.132895"><ele>768.0</ele><time>2026-04-27T09:16:02.178Z</time></trkpt><trkpt lat="39.5717855" lon="21.132943"><ele>768.0</ele><time>2026-04-27T09:16:03.178Z</time></trkpt><trkpt lat="39.5716613" lon="21.1329928"><ele>768.0</ele><time>2026-04-27T09:16:04.178Z</time></trkpt><trkpt lat="39.571544" lon="21.1330215"><ele>768.0</ele><time>2026-04-27T09:16:05.178Z</time></trkpt><trkpt lat="39.5714053" lon="21.1330465"><ele>768.0</ele><time>2026-04-27T09:16:06.178Z</time></trkpt><trkpt lat="39.5712673" lon="21.1330745"><ele>768.0</ele><time>2026-04-27T09:16:07.179Z</time></trkpt><trkpt lat="39.5711287" lon="21.1330826"><ele>768.0</ele><time>2026-04-27T09:16:08.179Z</time></trkpt><trkpt lat="39.5709933" lon="21.1330941"><ele>768.0</ele><time>2026-04-27T09:16:09.179Z</time></trkpt><trkpt lat="39.570852" lon="21.1331042"><ele>768.0</ele><time>2026-04-27T09:16:10.178Z</time></trkpt><trkpt lat="39.5707047" lon="21.133099"><ele>768.0</ele><time>2026-04-27T09:16:11.179Z</time></trkpt><trkpt lat="39.5705747" lon="21.1330896"><ele>791.75</ele><time>2026-04-27T09:16:12.178Z</time></trkpt><trkpt lat="39.5704416" lon="21.1330778"><ele>815.5</ele><time>2026-04-27T09:16:13.179Z</time></trkpt><trkpt lat="39.5703008" lon="21.1330463"><ele>839.25</ele><time>2026-04-27T09:16:14.178Z</time></trkpt><trkpt lat="39.5701778" lon="21.1330378"><ele>863.0</ele><time>2026-04-27T09:16:15.179Z</time></trkpt><trkpt lat="39.5700374" lon="21.1330591"><ele>863.0</ele><time>2026-04-27T09:16:16.179Z</time></trkpt><trkpt lat="39.5699082" lon="21.1330888"><ele>863.0</ele><time>2026-04-27T09:16:17.179Z</time></trkpt><trkpt lat="39.5697788" lon="21.1331076"><ele>863.0</ele><time>2026-04-27T09:16:18.179Z</time></trkpt><trkpt lat="39.5696619" lon="21.1331151"><ele>863.0</ele><time>2026-04-27T09:16:19.179Z</time></trkpt><trkpt lat="39.5695434" lon="21.1331121"><ele>851.2</ele><time>2026-04-27T09:16:20.179Z</time></trkpt><trkpt lat="39.569453" lon="21.1330927"><ele>839.4</ele><time>2026-04-27T09:16:21.178Z</time></trkpt><trkpt lat="39.5693527" lon="21.1330488"><ele>827.6</ele><time>2026-04-27T09:16:22.178Z</time></trkpt><trkpt lat="39.5692773" lon="21.1329646"><ele>815.8000000000001</ele><time>2026-04-27T09:16:23.178Z</time></trkpt><trkpt lat="39.5692079" lon="21.1328797"><ele>804.0</ele><time>2026-04-27T09:16:24.179Z</time></trkpt><trkpt lat="39.5691236" lon="21.1327808"><ele>804.0</ele><time>2026-04-27T09:16:25.179Z</time></trkpt><trkpt lat="39.5690298" lon="21.1326912"><ele>804.0</ele><time>2026-04-27T09:16:26.179Z</time></trkpt><trkpt lat="39.5689304" lon="21.1325919"><ele>804.0</ele><time>2026-04-27T09:16:27.179Z</time></trkpt><trkpt lat="39.5688286" lon="21.132503"><ele>804.0</ele><time>2026-04-27T09:16:28.179Z</time></trkpt><trkpt lat="39.5687162" lon="21.1324291"><ele>789.0</ele><time>2026-04-27T09:16:29.178Z</time></trkpt><trkpt lat="39.5686074" lon="21.1323539"><ele>774.0</ele><time>2026-04-27T09:16:30.179Z</time></trkpt><trkpt lat="39.5685057" lon="21.132254"><ele>759.0</ele><time>2026-04-27T09:16:31.179Z</time></trkpt><trkpt lat="39.5684189" lon="21.1321514"><ele>744.0</ele><time>2026-04-27T09:16:32.178Z</time></trkpt><trkpt lat="39.5683502" lon="21.1320346"><ele>744.0</ele><time>2026-04-27T09:16:33.178Z</time></trkpt><trkpt lat="39.5682923" lon="21.1319115"><ele>744.0</ele><time>2026-04-27T09:16:34.179Z</time></trkpt><trkpt lat="39.5682308" lon="21.1318031"><ele>744.0</ele><time>2026-04-27T09:16:35.179Z</time></trkpt><trkpt lat="39.5682505" lon="21.131665"><ele>744.0</ele><time>2026-04-27T09:16:36.179Z</time></trkpt><trkpt lat="39.5682759" lon="21.1315086"><ele>744.0</ele><time>2026-04-27T09:16:37.179Z</time></trkpt><trkpt lat="39.5682814" lon="21.1313713"><ele>751.8000000000001</ele><time>2026-04-27T09:16:38.178Z</time></trkpt><trkpt lat="39.5682239" lon="21.1312538"><ele>759.6</ele><time>2026-04-27T09:16:39.178Z</time></trkpt><trkpt lat="39.5681612" lon="21.1311413"><ele>767.4</ele><time>2026-04-27T09:16:40.179Z</time></trkpt><trkpt lat="39.5680752" lon="21.1310504"><ele>775.2</ele><time>2026-04-27T09:16:41.179Z</time></trkpt><trkpt lat="39.5679858" lon="21.1309848"><ele>783.0</ele><time>2026-04-27T09:16:42.179Z</time></trkpt><trkpt lat="39.5678847" lon="21.130928"><ele>780.8</ele><time>2026-04-27T09:16:43.178Z</time></trkpt><trkpt lat="39.5677808" lon="21.130889"><ele>778.5999999999999</ele><time>2026-04-27T09:16:44.179Z</time></trkpt><trkpt lat="39.5676845" lon="21.1308545"><ele>776.4000000000001</ele><time>2026-04-27T09:16:45.178Z</time></trkpt><trkpt lat="39.5675979" lon="21.1308253"><ele>774.2</ele><time>2026-04-27T09:16:46.179Z</time></trkpt><trkpt lat="39.5675235" lon="21.1307863"><ele>772.0</ele><time>2026-04-27T09:16:47.179Z</time></trkpt><trkpt lat="39.5674355" lon="21.1307049"><ele>772.0</ele><time>2026-04-27T09:16:48.178Z</time></trkpt><trkpt lat="39.5673472" lon="21.1305892"><ele>772.0</ele><time>2026-04-27T09:16:49.178Z</time></trkpt><trkpt lat="39.5672864" lon="21.1304235"><ele>772.0</ele><time>2026-04-27T09:16:50.179Z</time></trkpt><trkpt lat="39.5672155" lon="21.1302795"><ele>772.0</ele><time>2026-04-27T09:16:51.178Z</time></trkpt><trkpt lat="39.5671455" lon="21.1301324"><ele>772.0</ele><time>2026-04-27T09:16:52.178Z</time></trkpt><trkpt lat="39.5670802" lon="21.1299694"><ele>772.0</ele><time>2026-04-27T09:16:53.178Z</time></trkpt><trkpt lat="39.5670117" lon="21.1297844"><ele>772.0</ele><time>2026-04-27T09:16:54.179Z</time></trkpt><trkpt lat="39.5669204" lon="21.1296101"><ele>757.0</ele><time>2026-04-27T09:16:55.178Z</time></trkpt><trkpt lat="39.5668348" lon="21.1294647"><ele>742.0</ele><time>2026-04-27T09:16:56.179Z</time></trkpt><trkpt lat="39.5667383" lon="21.1293272"><ele>727.0</ele><time>2026-04-27T09:16:57.179Z</time></trkpt><trkpt lat="39.5666406" lon="21.1292057"><ele>712.0</ele><time>2026-04-27T09:16:58.179Z</time></trkpt><trkpt lat="39.5665286" lon="21.129068"><ele>732.6666666666667</ele><time>2026-04-27T09:16:59.179Z</time></trkpt><trkpt lat="39.5664208" lon="21.1289343"><ele>753.3333333333334</ele><time>2026-04-27T09:17:00.179Z</time></trkpt><trkpt lat="39.5663164" lon="21.1287717"><ele>774.0</ele><time>2026-04-27T09:17:01.178Z</time></trkpt><trkpt lat="39.5662156" lon="21.1286215"><ele>747.6666666666666</ele><time>2026-04-27T09:17:02.179Z</time></trkpt><trkpt lat="39.5661101" lon="21.128461"><ele>721.3333333333333</ele><time>2026-04-27T09:17:03.178Z</time></trkpt><trkpt lat="39.566011" lon="21.1283034"><ele>695.0</ele><time>2026-04-27T09:17:04.179Z</time></trkpt><trkpt lat="39.5659114" lon="21.1281463"><ele>695.0</ele><time>2026-04-27T09:17:05.179Z</time></trkpt><trkpt lat="39.5658056" lon="21.1280068"><ele>695.0</ele><time>2026-04-27T09:17:06.178Z</time></trkpt><trkpt lat="39.5657055" lon="21.1278918"><ele>695.0</ele><time>2026-04-27T09:17:07.178Z</time></trkpt><trkpt lat="39.5656246" lon="21.1278019"><ele>695.0</ele><time>2026-04-27T09:17:08.179Z</time></trkpt><trkpt lat="39.5655595" lon="21.1277105"><ele>695.0</ele><time>2026-04-27T09:17:09.179Z</time></trkpt><trkpt lat="39.5655199" lon="21.1276012"><ele>695.0</ele><time>2026-04-27T09:17:10.179Z</time></trkpt><trkpt lat="39.5655074" lon="21.1274669"><ele>695.0</ele><time>2026-04-27T09:17:11.179Z</time></trkpt><trkpt lat="39.5655192" lon="21.1273168"><ele>695.0</ele><time>2026-04-27T09:17:12.178Z</time></trkpt><trkpt lat="39.5655291" lon="21.1271547"><ele>695.0</ele><time>2026-04-27T09:17:13.179Z</time></trkpt><trkpt lat="39.5655388" lon="21.1269909"><ele>694.8</ele><time>2026-04-27T09:17:14.179Z</time></trkpt><trkpt lat="39.5655531" lon="21.1268333"><ele>694.6</ele><time>2026-04-27T09:17:15.179Z</time></trkpt><trkpt lat="39.565569" lon="21.1266803"><ele>694.4000000000001</ele><time>2026-04-27T09:17:16.178Z</time></trkpt><trkpt lat="39.5656106" lon="21.1265383"><ele>694.2</ele><time>2026-04-27T09:17:17.178Z</time></trkpt><trkpt lat="39.5656728" lon="21.1264663"><ele>694.0</ele><time>2026-04-27T09:17:18.179Z</time></trkpt><trkpt lat="39.5657022" lon="21.1263809"><ele>694.0</ele><time>2026-04-27T09:17:19.178Z</time></trkpt><trkpt lat="39.5657236" lon="21.1262984"><ele>694.0</ele><time>2026-04-27T09:17:20.179Z</time></trkpt><trkpt lat="39.5656281" lon="21.1262522"><ele>694.0</ele><time>2026-04-27T09:17:22.179Z</time></trkpt><trkpt lat="39.565542" lon="21.1264012"><ele>694.0</ele><time>2026-04-27T09:17:24.179Z</time></trkpt><trkpt lat="39.5655251" lon="21.1265005"><ele>694.0</ele><time>2026-04-27T09:17:25.178Z</time></trkpt><trkpt lat="39.5655051" lon="21.126583"><ele>694.0</ele><time>2026-04-27T09:17:26.179Z</time></trkpt><trkpt lat="39.5654204" lon="21.1266848"><ele>694.0</ele><time>2026-04-27T09:17:28.178Z</time></trkpt><trkpt lat="39.5653559" lon="21.1266045"><ele>694.0</ele><time>2026-04-27T09:17:30.178Z</time></trkpt><trkpt lat="39.5653531" lon="21.1264552"><ele>694.0</ele><time>2026-04-27T09:17:31.178Z</time></trkpt><trkpt lat="39.5653828" lon="21.1263728"><ele>694.0</ele><time>2026-04-27T09:17:32.179Z</time></trkpt><trkpt lat="39.5654321" lon="21.1262578"><ele>683.8000000000001</ele><time>2026-04-27T09:17:33.179Z</time></trkpt><trkpt lat="39.5654793" lon="21.1261348"><ele>673.6</ele><time>2026-04-27T09:17:34.178Z</time></trkpt><trkpt lat="39.565523" lon="21.1260366"><ele>663.4</ele><time>2026-04-27T09:17:35.178Z</time></trkpt><trkpt lat="39.5655616" lon="21.125936"><ele>653.2</ele><time>2026-04-27T09:17:36.179Z</time></trkpt><trkpt lat="39.565666" lon="21.1258783"><ele>643.0</ele><time>2026-04-27T09:17:37.179Z</time></trkpt><trkpt lat="39.5657362" lon="21.1258213"><ele>643.0</ele><time>2026-04-27T09:17:38.179Z</time></trkpt><trkpt lat="39.5658162" lon="21.125758"><ele>643.0</ele><time>2026-04-27T09:17:39.178Z</time></trkpt><trkpt lat="39.5658878" lon="21.1256836"><ele>643.0</ele><time>2026-04-27T09:17:40.179Z</time></trkpt><trkpt lat="39.5659256" lon="21.1255361"><ele>643.0</ele><time>2026-04-27T09:17:41.178Z</time></trkpt><trkpt lat="39.5659765" lon="21.1254103"><ele>643.0</ele><time>2026-04-27T09:17:42.178Z</time></trkpt><trkpt lat="39.5660496" lon="21.1252937"><ele>647.0</ele><time>2026-04-27T09:17:43.178Z</time></trkpt><trkpt lat="39.5661321" lon="21.1251646"><ele>651.0</ele><time>2026-04-27T09:17:44.178Z</time></trkpt><trkpt lat="39.5662118" lon="21.1250407"><ele>655.0</ele><time>2026-04-27T09:17:45.179Z</time></trkpt><trkpt lat="39.5662704" lon="21.1249093"><ele>659.0</ele><time>2026-04-27T09:17:46.178Z</time></trkpt><trkpt lat="39.566314" lon="21.1247786"><ele>659.0</ele><time>2026-04-27T09:17:47.178Z</time></trkpt><trkpt lat="39.5663514" lon="21.1246356"><ele>659.0</ele><time>2026-04-27T09:17:48.178Z</time></trkpt><trkpt lat="39.5663828" lon="21.1244868"><ele>659.0</ele><time>2026-04-27T09:17:49.178Z</time></trkpt><trkpt lat="39.5664059" lon="21.1243406"><ele>659.0</ele><time>2026-04-27T09:17:50.178Z</time></trkpt><trkpt lat="39.5664331" lon="21.1241957"><ele>648.75</ele><time>2026-04-27T09:17:51.178Z</time></trkpt><trkpt lat="39.5664733" lon="21.1240561"><ele>638.5</ele><time>2026-04-27T09:17:52.178Z</time></trkpt><trkpt lat="39.5665258" lon="21.1239224"><ele>628.25</ele><time>2026-04-27T09:17:53.179Z</time></trkpt><trkpt lat="39.5666131" lon="21.1237684"><ele>618.0</ele><time>2026-04-27T09:17:54.179Z</time></trkpt><trkpt lat="39.5666833" lon="21.1236325"><ele>618.0</ele><time>2026-04-27T09:17:55.179Z</time></trkpt><trkpt lat="39.5667358" lon="21.1234955"><ele>618.0</ele><time>2026-04-27T09:17:56.178Z</time></trkpt><trkpt lat="39.5667769" lon="21.1233567"><ele>618.0</ele><time>2026-04-27T09:17:57.179Z</time></trkpt><trkpt lat="39.5668139" lon="21.1232153"><ele>618.0</ele><time>2026-04-27T09:17:58.178Z</time></trkpt><trkpt lat="39.5668576" lon="21.1230746"><ele>616.6666666666666</ele><time>2026-04-27T09:17:59.178Z</time></trkpt><trkpt lat="39.5669129" lon="21.1229596"><ele>615.3333333333334</ele><time>2026-04-27T09:18:00.178Z</time></trkpt><trkpt lat="39.5669711" lon="21.1228476"><ele>614.0</ele><time>2026-04-27T09:18:01.179Z</time></trkpt><trkpt lat="39.5670125" lon="21.1227449"><ele>612.6666666666667</ele><time>2026-04-27T09:18:02.178Z</time></trkpt><trkpt lat="39.5670408" lon="21.1226431"><ele>611.3333333333334</ele><time>2026-04-27T09:18:03.178Z</time></trkpt><trkpt lat="39.5670533" lon="21.1225567"><ele>610.0</ele><time>2026-04-27T09:18:04.179Z</time></trkpt><trkpt lat="39.5670481" lon="21.122405"><ele>610.8</ele><time>2026-04-27T09:18:06.178Z</time></trkpt><trkpt lat="39.5669998" lon="21.1222859"><ele>611.6</ele><time>2026-04-27T09:18:08.178Z</time></trkpt><trkpt lat="39.5669364" lon="21.1221871"><ele>612.4</ele><time>2026-04-27T09:18:10.178Z</time></trkpt><trkpt lat="39.5668652" lon="21.1220713"><ele>613.2</ele><time>2026-04-27T09:18:12.179Z</time></trkpt><trkpt lat="39.566813" lon="21.1219391"><ele>614.0</ele><time>2026-04-27T09:18:14.179Z</time></trkpt><trkpt lat="39.5667688" lon="21.1217837"><ele>613.9999999999999</ele><time>2026-04-27T09:18:16.179Z</time></trkpt><trkpt lat="39.5667605" lon="21.1216915"><ele>614.0</ele><time>2026-04-27T09:18:17.178Z</time></trkpt><trkpt lat="39.5667642" lon="21.1215992"><ele>614.0</ele><time>2026-04-27T09:18:18.179Z</time></trkpt><trkpt lat="39.5667879" lon="21.1215178"><ele>614.0</ele><time>2026-04-27T09:18:19.178Z</time></trkpt><trkpt lat="39.56682" lon="21.1214442"><ele>614.0</ele><time>2026-04-27T09:18:20.178Z</time></trkpt><trkpt lat="39.5668608" lon="21.1213818"><ele>613.9999999999999</ele><time>2026-04-27T09:18:21.179Z</time></trkpt><trkpt lat="39.5669338" lon="21.1213074"><ele>614.0</ele><time>2026-04-27T09:18:22.179Z</time></trkpt><trkpt lat="39.5670087" lon="21.1212459"><ele>620.0</ele><time>2026-04-27T09:18:23.178Z</time></trkpt><trkpt lat="39.5670915" lon="21.1211887"><ele>626.0</ele><time>2026-04-27T09:18:24.178Z</time></trkpt><trkpt lat="39.5671746" lon="21.1211356"><ele>632.0</ele><time>2026-04-27T09:18:25.178Z</time></trkpt><trkpt lat="39.5672538" lon="21.1210763"><ele>638.0</ele><time>2026-04-27T09:18:26.179Z</time></trkpt><trkpt lat="39.5673316" lon="21.1210061"><ele>644.0</ele><time>2026-04-27T09:18:27.178Z</time></trkpt><trkpt lat="39.5673976" lon="21.1209311"><ele>644.0</ele><time>2026-04-27T09:18:28.178Z</time></trkpt><trkpt lat="39.5674477" lon="21.1208497"><ele>644.0</ele><time>2026-04-27T09:18:29.178Z</time></trkpt><trkpt lat="39.5674726" lon="21.1207506"><ele>644.0</ele><time>2026-04-27T09:18:30.178Z</time></trkpt><trkpt lat="39.5674643" lon="21.1206412"><ele>644.0</ele><time>2026-04-27T09:18:31.179Z</time></trkpt><trkpt lat="39.5674392" lon="21.1205253"><ele>644.0</ele><time>2026-04-27T09:18:32.179Z</time></trkpt><trkpt lat="39.5673987" lon="21.1204053"><ele>644.0</ele><time>2026-04-27T09:18:33.179Z</time></trkpt><trkpt lat="39.5673441" lon="21.1202678"><ele>645.5</ele><time>2026-04-27T09:18:34.179Z</time></trkpt><trkpt lat="39.5672887" lon="21.1201229"><ele>647.0</ele><time>2026-04-27T09:18:35.178Z</time></trkpt><trkpt lat="39.5672329" lon="21.119994"><ele>648.5</ele><time>2026-04-27T09:18:36.178Z</time></trkpt><trkpt lat="39.5671799" lon="21.1198684"><ele>650.0</ele><time>2026-04-27T09:18:37.179Z</time></trkpt><trkpt lat="39.567125" lon="21.1197499"><ele>654.4</ele><time>2026-04-27T09:18:38.179Z</time></trkpt><trkpt lat="39.567068" lon="21.1196363"><ele>658.8</ele><time>2026-04-27T09:18:39.178Z</time></trkpt><trkpt lat="39.5670167" lon="21.1195257"><ele>663.2</ele><time>2026-04-27T09:18:40.179Z</time></trkpt><trkpt lat="39.566982" lon="21.1193964"><ele>667.6</ele><time>2026-04-27T09:18:41.179Z</time></trkpt><trkpt lat="39.5669513" lon="21.119266"><ele>672.0</ele><time>2026-04-27T09:18:42.178Z</time></trkpt><trkpt lat="39.5669211" lon="21.1191358"><ele>662.2</ele><time>2026-04-27T09:18:43.179Z</time></trkpt><trkpt lat="39.566887" lon="21.1190042"><ele>652.4000000000001</ele><time>2026-04-27T09:18:44.178Z</time></trkpt><trkpt lat="39.5668494" lon="21.1188841"><ele>642.5999999999999</ele><time>2026-04-27T09:18:45.178Z</time></trkpt><trkpt lat="39.5668166" lon="21.1187662"><ele>632.8</ele><time>2026-04-27T09:18:46.179Z</time></trkpt><trkpt lat="39.5667782" lon="21.1186575"><ele>623.0</ele><time>2026-04-27T09:18:47.179Z</time></trkpt><trkpt lat="39.5667477" lon="21.1185528"><ele>623.0</ele><time>2026-04-27T09:18:48.179Z</time></trkpt><trkpt lat="39.5667371" lon="21.1184476"><ele>623.0</ele><time>2026-04-27T09:18:49.179Z</time></trkpt><trkpt lat="39.566745" lon="21.1183547"><ele>623.0</ele><time>2026-04-27T09:18:50.179Z</time></trkpt><trkpt lat="39.5668052" lon="21.1182531"><ele>623.0</ele><time>2026-04-27T09:18:51.179Z</time></trkpt><trkpt lat="39.5668613" lon="21.1181409"><ele>623.0</ele><time>2026-04-27T09:18:52.179Z</time></trkpt><trkpt lat="39.5669199" lon="21.1180239"><ele>622.5</ele><time>2026-04-27T09:18:53.179Z</time></trkpt><trkpt lat="39.5669768" lon="21.1179092"><ele>622.0</ele><time>2026-04-27T09:18:54.179Z</time></trkpt><trkpt lat="39.5670268" lon="21.1177985"><ele>621.5</ele><time>2026-04-27T09:18:55.179Z</time></trkpt><trkpt lat="39.5670672" lon="21.1176934"><ele>621.0</ele><time>2026-04-27T09:18:56.179Z</time></trkpt><trkpt lat="39.5670786" lon="21.1175949"><ele>620.5</ele><time>2026-04-27T09:18:57.178Z</time></trkpt><trkpt lat="39.5670576" lon="21.1175008"><ele>620.0</ele><time>2026-04-27T09:18:58.178Z</time></trkpt><trkpt lat="39.5669881" lon="21.1174097"><ele>625.0</ele><time>2026-04-27T09:18:59.179Z</time></trkpt><trkpt lat="39.5669101" lon="21.1173305"><ele>630.0</ele><time>2026-04-27T09:19:00.178Z</time></trkpt><trkpt lat="39.5668296" lon="21.1172547"><ele>635.0</ele><time>2026-04-27T09:19:01.178Z</time></trkpt><trkpt lat="39.5667441" lon="21.1171801"><ele>640.0</ele><time>2026-04-27T09:19:02.179Z</time></trkpt><trkpt lat="39.5666585" lon="21.1171125"><ele>645.0</ele><time>2026-04-27T09:19:03.178Z</time></trkpt><trkpt lat="39.5665805" lon="21.1170321"><ele>645.0</ele><time>2026-04-27T09:19:04.179Z</time></trkpt><trkpt lat="39.566505" lon="21.1169485"><ele>645.0</ele><time>2026-04-27T09:19:05.178Z</time></trkpt><trkpt lat="39.5664327" lon="21.1168748"><ele>645.0</ele><time>2026-04-27T09:19:06.179Z</time></trkpt><trkpt lat="39.566359" lon="21.1167857"><ele>645.0</ele><time>2026-04-27T09:19:07.178Z</time></trkpt><trkpt lat="39.566297" lon="21.1166939"><ele>645.0</ele><time>2026-04-27T09:19:08.178Z</time></trkpt><trkpt lat="39.5662404" lon="21.1165922"><ele>636.8</ele><time>2026-04-27T09:19:09.179Z</time></trkpt><trkpt lat="39.566188" lon="21.116489"><ele>628.6</ele><time>2026-04-27T09:19:10.178Z</time></trkpt><trkpt lat="39.5661357" lon="21.1163818"><ele>620.4</ele><time>2026-04-27T09:19:11.178Z</time></trkpt><trkpt lat="39.5660862" lon="21.1162653"><ele>612.2</ele><time>2026-04-27T09:19:12.179Z</time></trkpt><trkpt lat="39.566044" lon="21.1161406"><ele>604.0</ele><time>2026-04-27T09:19:13.178Z</time></trkpt><trkpt lat="39.5660029" lon="21.1160127"><ele>604.0</ele><time>2026-04-27T09:19:14.178Z</time></trkpt><trkpt lat="39.5659766" lon="21.1158839"><ele>604.0</ele><time>2026-04-27T09:19:15.178Z</time></trkpt><trkpt lat="39.5659677" lon="21.1157503"><ele>604.0</ele><time>2026-04-27T09:19:16.179Z</time></trkpt><trkpt lat="39.5659733" lon="21.1156317"><ele>604.0</ele><time>2026-04-27T09:19:17.179Z</time></trkpt><trkpt lat="39.5659944" lon="21.1154919"><ele>604.0</ele><time>2026-04-27T09:19:18.179Z</time></trkpt><trkpt lat="39.5660192" lon="21.1153475"><ele>604.0</ele><time>2026-04-27T09:19:19.178Z</time></trkpt><trkpt lat="39.5660234" lon="21.115198"><ele>604.0</ele><time>2026-04-27T09:19:20.179Z</time></trkpt><trkpt lat="39.5660312" lon="21.1150619"><ele>604.0</ele><time>2026-04-27T09:19:21.179Z</time></trkpt><trkpt lat="39.5660394" lon="21.1149183"><ele>604.0</ele><time>2026-04-27T09:19:22.178Z</time></trkpt><trkpt lat="39.5660476" lon="21.1147774"><ele>604.0</ele><time>2026-04-27T09:19:23.178Z</time></trkpt><trkpt lat="39.5660595" lon="21.1146595"><ele>604.0</ele><time>2026-04-27T09:19:24.179Z</time></trkpt><trkpt lat="39.5660565" lon="21.114525"><ele>604.0</ele><time>2026-04-27T09:19:25.179Z</time></trkpt><trkpt lat="39.5660159" lon="21.1144003"><ele>604.0</ele><time>2026-04-27T09:19:26.178Z</time></trkpt><trkpt lat="39.5659771" lon="21.1142815"><ele>604.0</ele><time>2026-04-27T09:19:27.179Z</time></trkpt><trkpt lat="39.5659218" lon="21.1141876"><ele>604.0</ele><time>2026-04-27T09:19:28.178Z</time></trkpt><trkpt lat="39.5658643" lon="21.1140909"><ele>606.0</ele><time>2026-04-27T09:19:29.179Z</time></trkpt><trkpt lat="39.5658069" lon="21.1139974"><ele>608.0</ele><time>2026-04-27T09:19:30.178Z</time></trkpt><trkpt lat="39.5657524" lon="21.1139095"><ele>610.0</ele><time>2026-04-27T09:19:31.179Z</time></trkpt><trkpt lat="39.5656912" lon="21.1138275"><ele>612.0</ele><time>2026-04-27T09:19:32.179Z</time></trkpt><trkpt lat="39.565643" lon="21.1137535"><ele>614.0</ele><time>2026-04-27T09:19:33.178Z</time></trkpt><trkpt lat="39.565607" lon="21.113666"><ele>616.0</ele><time>2026-04-27T09:19:34.178Z</time></trkpt><trkpt lat="39.5655795" lon="21.1135764"><ele>616.0</ele><time>2026-04-27T09:19:35.178Z</time></trkpt><trkpt lat="39.5655578" lon="21.1134721"><ele>616.0</ele><time>2026-04-27T09:19:36.178Z</time></trkpt><trkpt lat="39.5655075" lon="21.1133711"><ele>616.0</ele><time>2026-04-27T09:19:37.179Z</time></trkpt><trkpt lat="39.565447" lon="21.1132739"><ele>616.0</ele><time>2026-04-27T09:19:38.178Z</time></trkpt><trkpt lat="39.5653508" lon="21.1132014"><ele>616.0</ele><time>2026-04-27T09:19:39.179Z</time></trkpt><trkpt lat="39.5652611" lon="21.113133"><ele>613.0</ele><time>2026-04-27T09:19:40.178Z</time></trkpt><trkpt lat="39.565175" lon="21.1130761"><ele>610.0</ele><time>2026-04-27T09:19:41.179Z</time></trkpt><trkpt lat="39.5650978" lon="21.1130134"><ele>607.0</ele><time>2026-04-27T09:19:42.178Z</time></trkpt><trkpt lat="39.5650353" lon="21.1129256"><ele>604.0</ele><time>2026-04-27T09:19:43.179Z</time></trkpt><trkpt lat="39.5650043" lon="21.112821"><ele>601.0</ele><time>2026-04-27T09:19:44.179Z</time></trkpt><trkpt lat="39.5649779" lon="21.1127021"><ele>601.0</ele><time>2026-04-27T09:19:45.178Z</time></trkpt><trkpt lat="39.5649606" lon="21.1125566"><ele>601.0</ele><time>2026-04-27T09:19:46.179Z</time></trkpt><trkpt lat="39.5649342" lon="21.1124053"><ele>601.0</ele><time>2026-04-27T09:19:47.178Z</time></trkpt><trkpt lat="39.5649039" lon="21.1122515"><ele>601.0</ele><time>2026-04-27T09:19:48.179Z</time></trkpt><trkpt lat="39.5648875" lon="21.112086"><ele>600.5</ele><time>2026-04-27T09:19:49.179Z</time></trkpt><trkpt lat="39.564887" lon="21.1119405"><ele>600.0</ele><time>2026-04-27T09:19:50.179Z</time></trkpt><trkpt lat="39.5648762" lon="21.1117739"><ele>599.5</ele><time>2026-04-27T09:19:51.179Z</time></trkpt><trkpt lat="39.5648734" lon="21.1116143"><ele>599.0</ele><time>2026-04-27T09:19:52.178Z</time></trkpt><trkpt lat="39.5648639" lon="21.1114563"><ele>599.0</ele><time>2026-04-27T09:19:53.178Z</time></trkpt><trkpt lat="39.5648834" lon="21.1112943"><ele>599.0</ele><time>2026-04-27T09:19:54.179Z</time></trkpt><trkpt lat="39.564902" lon="21.1111511"><ele>599.0</ele><time>2026-04-27T09:19:55.179Z</time></trkpt><trkpt lat="39.5649196" lon="21.1110136"><ele>599.0</ele><time>2026-04-27T09:19:56.178Z</time></trkpt><trkpt lat="39.5649351" lon="21.1108599"><ele>598.25</ele><time>2026-04-27T09:19:57.178Z</time></trkpt><trkpt lat="39.564938" lon="21.1107095"><ele>597.5</ele><time>2026-04-27T09:19:58.179Z</time></trkpt><trkpt lat="39.5649266" lon="21.1105566"><ele>596.75</ele><time>2026-04-27T09:19:59.178Z</time></trkpt><trkpt lat="39.5649026" lon="21.110415"><ele>596.0</ele><time>2026-04-27T09:20:00.178Z</time></trkpt><trkpt lat="39.5648691" lon="21.1102874"><ele>596.0</ele><time>2026-04-27T09:20:01.178Z</time></trkpt><trkpt lat="39.5648263" lon="21.1101836"><ele>596.0</ele><time>2026-04-27T09:20:02.178Z</time></trkpt><trkpt lat="39.5647519" lon="21.1100962"><ele>596.0</ele><time>2026-04-27T09:20:03.179Z</time></trkpt><trkpt lat="39.5646767" lon="21.1100168"><ele>596.0</ele><time>2026-04-27T09:20:04.178Z</time></trkpt><trkpt lat="39.5646068" lon="21.1099402"><ele>596.0</ele><time>2026-04-27T09:20:05.178Z</time></trkpt><trkpt lat="39.5645426" lon="21.1098635"><ele>591.6666666666666</ele><time>2026-04-27T09:20:06.179Z</time></trkpt><trkpt lat="39.5644907" lon="21.1097767"><ele>587.3333333333333</ele><time>2026-04-27T09:20:07.179Z</time></trkpt><trkpt lat="39.5644589" lon="21.1097005"><ele>583.0</ele><time>2026-04-27T09:20:08.179Z</time></trkpt><trkpt lat="39.5644388" lon="21.1095976"><ele>578.6666666666666</ele><time>2026-04-27T09:20:09.179Z</time></trkpt><trkpt lat="39.5644314" lon="21.1094823"><ele>574.3333333333334</ele><time>2026-04-27T09:20:10.178Z</time></trkpt><trkpt lat="39.5644417" lon="21.1093817"><ele>570.0</ele><time>2026-04-27T09:20:11.179Z</time></trkpt><trkpt lat="39.5644723" lon="21.1092961"><ele>574.8333333333334</ele><time>2026-04-27T09:20:12.178Z</time></trkpt><trkpt lat="39.5645366" lon="21.1092244"><ele>579.6666666666666</ele><time>2026-04-27T09:20:13.178Z</time></trkpt><trkpt lat="39.5646029" lon="21.1091601"><ele>584.5</ele><time>2026-04-27T09:20:14.178Z</time></trkpt><trkpt lat="39.5646683" lon="21.1090853"><ele>589.3333333333333</ele><time>2026-04-27T09:20:15.178Z</time></trkpt><trkpt lat="39.5647303" lon="21.1089998"><ele>594.1666666666666</ele><time>2026-04-27T09:20:16.179Z</time></trkpt><trkpt lat="39.5647781" lon="21.1088907"><ele>599.0</ele><time>2026-04-27T09:20:17.178Z</time></trkpt><trkpt lat="39.5648201" lon="21.1087662"><ele>600.0</ele><time>2026-04-27T09:20:18.179Z</time></trkpt><trkpt lat="39.5648431" lon="21.1086443"><ele>601.0</ele><time>2026-04-27T09:20:19.178Z</time></trkpt><trkpt lat="39.564858" lon="21.1085118"><ele>602.0</ele><time>2026-04-27T09:20:20.179Z</time></trkpt><trkpt lat="39.5648607" lon="21.1083764"><ele>603.0</ele><time>2026-04-27T09:20:21.179Z</time></trkpt><trkpt lat="39.5648522" lon="21.1082416"><ele>604.0</ele><time>2026-04-27T09:20:22.179Z</time></trkpt><trkpt lat="39.5648457" lon="21.1081328"><ele>604.3333333333334</ele><time>2026-04-27T09:20:23.178Z</time></trkpt><trkpt lat="39.5648192" lon="21.10805"><ele>604.6666666666667</ele><time>2026-04-27T09:20:24.178Z</time></trkpt><trkpt lat="39.5647924" lon="21.1079759"><ele>605.0</ele><time>2026-04-27T09:20:25.178Z</time></trkpt><trkpt lat="39.5647284" lon="21.1078524"><ele>605.3333333333334</ele><time>2026-04-27T09:20:27.178Z</time></trkpt><trkpt lat="39.5647735" lon="21.1077634"><ele>605.6666666666666</ele><time>2026-04-27T09:20:29.178Z</time></trkpt><trkpt lat="39.5648374" lon="21.1077555"><ele>606.0</ele><time>2026-04-27T09:20:30.179Z</time></trkpt><trkpt lat="39.5649094" lon="21.1077872"><ele>606.0</ele><time>2026-04-27T09:20:31.179Z</time></trkpt><trkpt lat="39.5649893" lon="21.1078573"><ele>606.0</ele><time>2026-04-27T09:20:32.178Z</time></trkpt><trkpt lat="39.5650634" lon="21.1079244"><ele>606.0</ele><time>2026-04-27T09:20:33.178Z</time></trkpt><trkpt lat="39.5651242" lon="21.1079941"><ele>606.0</ele><time>2026-04-27T09:20:34.179Z</time></trkpt><trkpt lat="39.5651708" lon="21.108064"><ele>606.0</ele><time>2026-04-27T09:20:35.179Z</time></trkpt><trkpt lat="39.565205" lon="21.1081353"><ele>606.0</ele><time>2026-04-27T09:20:36.178Z</time></trkpt><trkpt lat="39.5652414" lon="21.1082162"><ele>605.6</ele><time>2026-04-27T09:20:37.178Z</time></trkpt><trkpt lat="39.5652865" lon="21.1083159"><ele>605.2</ele><time>2026-04-27T09:20:38.179Z</time></trkpt><trkpt lat="39.5653366" lon="21.1084472"><ele>604.8</ele><time>2026-04-27T09:20:39.178Z</time></trkpt><trkpt lat="39.5653811" lon="21.1085925"><ele>604.4</ele><time>2026-04-27T09:20:40.178Z</time></trkpt><trkpt lat="39.5654046" lon="21.1087253"><ele>604.0</ele><time>2026-04-27T09:20:41.178Z</time></trkpt><trkpt lat="39.5654153" lon="21.1088581"><ele>608.4</ele><time>2026-04-27T09:20:42.178Z</time></trkpt><trkpt lat="39.5654499" lon="21.1089861"><ele>612.8</ele><time>2026-04-27T09:20:43.178Z</time></trkpt><trkpt lat="39.5655053" lon="21.1091089"><ele>617.2</ele><time>2026-04-27T09:20:44.179Z</time></trkpt><trkpt lat="39.5655759" lon="21.1092257"><ele>621.6</ele><time>2026-04-27T09:20:45.179Z</time></trkpt><trkpt lat="39.5656586" lon="21.1093387"><ele>626.0</ele><time>2026-04-27T09:20:46.178Z</time></trkpt><trkpt lat="39.5657366" lon="21.1094597"><ele>626.0</ele><time>2026-04-27T09:20:47.178Z</time></trkpt><trkpt lat="39.5658023" lon="21.1095791"><ele>626.0</ele><time>2026-04-27T09:20:48.178Z</time></trkpt><trkpt lat="39.5658384" lon="21.1097046"><ele>626.0</ele><time>2026-04-27T09:20:49.179Z</time></trkpt><trkpt lat="39.5658639" lon="21.1098261"><ele>626.0</ele><time>2026-04-27T09:20:50.179Z</time></trkpt><trkpt lat="39.5658884" lon="21.1099332"><ele>626.0</ele><time>2026-04-27T09:20:51.178Z</time></trkpt><trkpt lat="39.5659056" lon="21.1100397"><ele>625.8571428571429</ele><time>2026-04-27T09:20:52.179Z</time></trkpt><trkpt lat="39.5659192" lon="21.1101423"><ele>625.7142857142858</ele><time>2026-04-27T09:20:53.178Z</time></trkpt><trkpt lat="39.5659241" lon="21.1102368"><ele>625.5714285714287</ele><time>2026-04-27T09:20:54.178Z</time></trkpt><trkpt lat="39.5659149" lon="21.1103281"><ele>625.4285714285714</ele><time>2026-04-27T09:20:55.178Z</time></trkpt><trkpt lat="39.5658918" lon="21.1104103"><ele>625.2857142857143</ele><time>2026-04-27T09:20:56.178Z</time></trkpt><trkpt lat="39.565858" lon="21.1104896"><ele>625.1428571428572</ele><time>2026-04-27T09:20:57.179Z</time></trkpt><trkpt lat="39.5658175" lon="21.110567"><ele>625.0</ele><time>2026-04-27T09:20:58.178Z</time></trkpt><trkpt lat="39.5657668" lon="21.1106576"><ele>626.8</ele><time>2026-04-27T09:20:59.178Z</time></trkpt><trkpt lat="39.565731" lon="21.110751"><ele>628.6</ele><time>2026-04-27T09:21:00.179Z</time></trkpt><trkpt lat="39.5657183" lon="21.110848"><ele>630.4</ele><time>2026-04-27T09:21:01.178Z</time></trkpt><trkpt lat="39.5657253" lon="21.1109333"><ele>632.2</ele><time>2026-04-27T09:21:02.178Z</time></trkpt><trkpt lat="39.5658058" lon="21.111013"><ele>634.0</ele><time>2026-04-27T09:21:04.179Z</time></trkpt><trkpt lat="39.5659129" lon="21.1109132"><ele>634.0</ele><time>2026-04-27T09:21:06.178Z</time></trkpt><trkpt lat="39.5659799" lon="21.1108002"><ele>634.0</ele><time>2026-04-27T09:21:07.178Z</time></trkpt><trkpt lat="39.5660667" lon="21.1106501"><ele>634.0</ele><time>2026-04-27T09:21:08.179Z</time></trkpt><trkpt lat="39.5661784" lon="21.1105142"><ele>634.0</ele><time>2026-04-27T09:21:09.179Z</time></trkpt><trkpt lat="39.5662672" lon="21.1103562"><ele>645.3333333333334</ele><time>2026-04-27T09:21:10.179Z</time></trkpt><trkpt lat="39.5663499" lon="21.1101815"><ele>656.6666666666666</ele><time>2026-04-27T09:21:11.179Z</time></trkpt><trkpt lat="39.5664282" lon="21.1099945"><ele>668.0</ele><time>2026-04-27T09:21:12.179Z</time></trkpt><trkpt lat="39.5664923" lon="21.1097838"><ele>668.25</ele><time>2026-04-27T09:21:13.179Z</time></trkpt><trkpt lat="39.5665409" lon="21.1096011"><ele>668.5</ele><time>2026-04-27T09:21:14.179Z</time></trkpt><trkpt lat="39.5665743" lon="21.1094283"><ele>668.75</ele><time>2026-04-27T09:21:15.179Z</time></trkpt><trkpt lat="39.5665841" lon="21.1092658"><ele>669.0</ele><time>2026-04-27T09:21:16.178Z</time></trkpt><trkpt lat="39.5665826" lon="21.1091176"><ele>670.75</ele><time>2026-04-27T09:21:17.178Z</time></trkpt><trkpt lat="39.5665711" lon="21.1089664"><ele>672.5</ele><time>2026-04-27T09:21:18.179Z</time></trkpt><trkpt lat="39.5665382" lon="21.1088016"><ele>674.25</ele><time>2026-04-27T09:21:19.179Z</time></trkpt><trkpt lat="39.566487" lon="21.1086341"><ele>676.0</ele><time>2026-04-27T09:21:20.178Z</time></trkpt><trkpt lat="39.5664394" lon="21.1084699"><ele>676.0</ele><time>2026-04-27T09:21:21.178Z</time></trkpt><trkpt lat="39.566376" lon="21.1083168"><ele>676.0</ele><time>2026-04-27T09:21:22.178Z</time></trkpt><trkpt lat="39.5662823" lon="21.1081633"><ele>676.0</ele><time>2026-04-27T09:21:23.178Z</time></trkpt><trkpt lat="39.5661983" lon="21.1080277"><ele>676.0</ele><time>2026-04-27T09:21:24.178Z</time></trkpt><trkpt lat="39.5661188" lon="21.1078989"><ele>673.4</ele><time>2026-04-27T09:21:25.178Z</time></trkpt><trkpt lat="39.5660586" lon="21.1077809"><ele>670.8</ele><time>2026-04-27T09:21:26.179Z</time></trkpt><trkpt lat="39.5660503" lon="21.1076577"><ele>668.1999999999999</ele><time>2026-04-27T09:21:27.179Z</time></trkpt><trkpt lat="39.5660797" lon="21.1075344"><ele>665.5999999999999</ele><time>2026-04-27T09:21:28.178Z</time></trkpt><trkpt lat="39.5661522" lon="21.1074114"><ele>663.0</ele><time>2026-04-27T09:21:29.178Z</time></trkpt><trkpt lat="39.5662381" lon="21.1073013"><ele>663.0</ele><time>2026-04-27T09:21:30.179Z</time></trkpt><trkpt lat="39.5663382" lon="21.1072309"><ele>663.0</ele><time>2026-04-27T09:21:31.179Z</time></trkpt><trkpt lat="39.5664356" lon="21.1071644"><ele>663.0</ele><time>2026-04-27T09:21:32.179Z</time></trkpt><trkpt lat="39.5665483" lon="21.107194"><ele>663.0</ele><time>2026-04-27T09:21:33.179Z</time></trkpt><trkpt lat="39.5666665" lon="21.1072274"><ele>663.0</ele><time>2026-04-27T09:21:34.178Z</time></trkpt><trkpt lat="39.5667748" lon="21.1072499"><ele>663.0</ele><time>2026-04-27T09:21:35.178Z</time></trkpt><trkpt lat="39.5668909" lon="21.1072478"><ele>663.0</ele><time>2026-04-27T09:21:36.178Z</time></trkpt><trkpt lat="39.567011" lon="21.1072061"><ele>663.0</ele><time>2026-04-27T09:21:37.178Z</time></trkpt><trkpt lat="39.5671458" lon="21.1071116"><ele>670.0</ele><time>2026-04-27T09:21:38.178Z</time></trkpt><trkpt lat="39.5672839" lon="21.106977"><ele>677.0</ele><time>2026-04-27T09:21:39.179Z</time></trkpt><trkpt lat="39.5674362" lon="21.1067898"><ele>684.0</ele><time>2026-04-27T09:21:40.179Z</time></trkpt><trkpt lat="39.5675779" lon="21.1065893"><ele>681.3333333333334</ele><time>2026-04-27T09:21:41.179Z</time></trkpt><trkpt lat="39.5677102" lon="21.106383"><ele>678.6666666666667</ele><time>2026-04-27T09:21:42.178Z</time></trkpt><trkpt lat="39.5678215" lon="21.1061884"><ele>676.0</ele><time>2026-04-27T09:21:43.178Z</time></trkpt><trkpt lat="39.5679265" lon="21.1060183"><ele>683.25</ele><time>2026-04-27T09:21:44.179Z</time></trkpt><trkpt lat="39.5680257" lon="21.1058554"><ele>690.5</ele><time>2026-04-27T09:21:45.179Z</time></trkpt><trkpt lat="39.5681142" lon="21.1057053"><ele>697.75</ele><time>2026-04-27T09:21:46.178Z</time></trkpt><trkpt lat="39.5681866" lon="21.1055686"><ele>705.0</ele><time>2026-04-27T09:21:47.179Z</time></trkpt><trkpt lat="39.5682363" lon="21.1054356"><ele>705.0</ele><time>2026-04-27T09:21:48.178Z</time></trkpt><trkpt lat="39.5682523" lon="21.105285"><ele>705.0</ele><time>2026-04-27T09:21:49.179Z</time></trkpt><trkpt lat="39.5682483" lon="21.1051222"><ele>705.0</ele><time>2026-04-27T09:21:50.178Z</time></trkpt><trkpt lat="39.5682119" lon="21.1049708"><ele>705.0</ele><time>2026-04-27T09:21:51.179Z</time></trkpt><trkpt lat="39.5681792" lon="21.1048457"><ele>707.1666666666666</ele><time>2026-04-27T09:21:52.178Z</time></trkpt><trkpt lat="39.5681584" lon="21.1047405"><ele>709.3333333333334</ele><time>2026-04-27T09:21:53.178Z</time></trkpt><trkpt lat="39.5681555" lon="21.1046476"><ele>711.5</ele><time>2026-04-27T09:21:54.178Z</time></trkpt><trkpt lat="39.5681724" lon="21.104564"><ele>713.6666666666667</ele><time>2026-04-27T09:21:55.179Z</time></trkpt><trkpt lat="39.5682745" lon="21.1045929"><ele>715.8333333333334</ele><time>2026-04-27T09:21:56.179Z</time></trkpt><trkpt lat="39.5683622" lon="21.1046213"><ele>718.0</ele><time>2026-04-27T09:21:57.179Z</time></trkpt><trkpt lat="39.5684653" lon="21.1047221"><ele>718.0</ele><time>2026-04-27T09:21:58.178Z</time></trkpt><trkpt lat="39.5685413" lon="21.1048846"><ele>718.0</ele><time>2026-04-27T09:21:59.178Z</time></trkpt><trkpt lat="39.5686101" lon="21.1050525"><ele>718.0</ele><time>2026-04-27T09:22:00.179Z</time></trkpt><trkpt lat="39.5686706" lon="21.1052358"><ele>718.0</ele><time>2026-04-27T09:22:01.178Z</time></trkpt><trkpt lat="39.5687208" lon="21.1054222"><ele>723.6666666666667</ele><time>2026-04-27T09:22:02.178Z</time></trkpt><trkpt lat="39.568734" lon="21.1056241"><ele>729.3333333333334</ele><time>2026-04-27T09:22:03.179Z</time></trkpt><trkpt lat="39.5687378" lon="21.1058367"><ele>735.0</ele><time>2026-04-27T09:22:04.178Z</time></trkpt><trkpt lat="39.5687275" lon="21.1060328"><ele>735.4</ele><time>2026-04-27T09:22:05.179Z</time></trkpt><trkpt lat="39.5687041" lon="21.1062044"><ele>735.8</ele><time>2026-04-27T09:22:06.179Z</time></trkpt><trkpt lat="39.5686666" lon="21.1063584"><ele>736.2</ele><time>2026-04-27T09:22:07.179Z</time></trkpt><trkpt lat="39.5686378" lon="21.106488"><ele>736.6</ele><time>2026-04-27T09:22:08.178Z</time></trkpt><trkpt lat="39.5685918" lon="21.1065783"><ele>737.0</ele><time>2026-04-27T09:22:09.178Z</time></trkpt><trkpt lat="39.5685474" lon="21.1066587"><ele>737.0</ele><time>2026-04-27T09:22:10.178Z</time></trkpt><trkpt lat="39.5685227" lon="21.1067432"><ele>737.0</ele><time>2026-04-27T09:22:11.179Z</time></trkpt><trkpt lat="39.5685778" lon="21.1068535"><ele>737.0</ele><time>2026-04-27T09:22:13.178Z</time></trkpt><trkpt lat="39.5687128" lon="21.1067837"><ele>737.0</ele><time>2026-04-27T09:22:15.179Z</time></trkpt><trkpt lat="39.568789" lon="21.1066556"><ele>737.0</ele><time>2026-04-27T09:22:16.179Z</time></trkpt><trkpt lat="39.5688804" lon="21.106497"><ele>737.0</ele><time>2026-04-27T09:22:17.179Z</time></trkpt><trkpt lat="39.5689913" lon="21.106287"><ele>737.0</ele><time>2026-04-27T09:22:18.179Z</time></trkpt><trkpt lat="39.5690873" lon="21.1060637"><ele>737.0</ele><time>2026-04-27T09:22:19.179Z</time></trkpt><trkpt lat="39.5691876" lon="21.1058399"><ele>736.3333333333333</ele><time>2026-04-27T09:22:20.178Z</time></trkpt><trkpt lat="39.5692744" lon="21.1056214"><ele>735.6666666666666</ele><time>2026-04-27T09:22:21.179Z</time></trkpt><trkpt lat="39.5693418" lon="21.1054196"><ele>735.0</ele><time>2026-04-27T09:22:22.179Z</time></trkpt><trkpt lat="39.5693926" lon="21.1052245"><ele>735.0</ele><time>2026-04-27T09:22:23.178Z</time></trkpt><trkpt lat="39.5694354" lon="21.1050457"><ele>735.0</ele><time>2026-04-27T09:22:24.179Z</time></trkpt><trkpt lat="39.5694925" lon="21.1048816"><ele>735.0</ele><time>2026-04-27T09:22:25.179Z</time></trkpt><trkpt lat="39.5695662" lon="21.1047287"><ele>735.0</ele><time>2026-04-27T09:22:26.179Z</time></trkpt><trkpt lat="39.5696626" lon="21.1046018"><ele>741.5</ele><time>2026-04-27T09:22:27.178Z</time></trkpt><trkpt lat="39.5697693" lon="21.1044808"><ele>748.0</ele><time>2026-04-27T09:22:28.179Z</time></trkpt><trkpt lat="39.5698933" lon="21.1043666"><ele>754.5</ele><time>2026-04-27T09:22:29.178Z</time></trkpt><trkpt lat="39.5699867" lon="21.1042469"><ele>761.0</ele><time>2026-04-27T09:22:30.179Z</time></trkpt><trkpt lat="39.5700592" lon="21.1041212"><ele>761.0</ele><time>2026-04-27T09:22:31.178Z</time></trkpt><trkpt lat="39.5701118" lon="21.1039606"><ele>761.0</ele><time>2026-04-27T09:22:32.179Z</time></trkpt><trkpt lat="39.5701298" lon="21.103774"><ele>761.0</ele><time>2026-04-27T09:22:33.178Z</time></trkpt><trkpt lat="39.5701345" lon="21.1035812"><ele>761.0</ele><time>2026-04-27T09:22:34.178Z</time></trkpt><trkpt lat="39.5701349" lon="21.1033741"><ele>758.75</ele><time>2026-04-27T09:22:35.178Z</time></trkpt><trkpt lat="39.5701507" lon="21.1031771"><ele>756.5</ele><time>2026-04-27T09:22:36.179Z</time></trkpt><trkpt lat="39.5701857" lon="21.1029874"><ele>754.25</ele><time>2026-04-27T09:22:37.178Z</time></trkpt><trkpt lat="39.5702332" lon="21.1028154"><ele>752.0</ele><time>2026-04-27T09:22:38.178Z</time></trkpt><trkpt lat="39.5703013" lon="21.1026464"><ele>759.0</ele><time>2026-04-27T09:22:39.178Z</time></trkpt><trkpt lat="39.5703975" lon="21.1024824"><ele>766.0</ele><time>2026-04-27T09:22:40.179Z</time></trkpt><trkpt lat="39.5705306" lon="21.1023269"><ele>773.0</ele><time>2026-04-27T09:22:41.179Z</time></trkpt><trkpt lat="39.5706638" lon="21.102168"><ele>773.0</ele><time>2026-04-27T09:22:42.178Z</time></trkpt><trkpt lat="39.5707744" lon="21.102003"><ele>773.0</ele><time>2026-04-27T09:22:43.179Z</time></trkpt><trkpt lat="39.57089" lon="21.1018342"><ele>773.0</ele><time>2026-04-27T09:22:44.179Z</time></trkpt><trkpt lat="39.5710011" lon="21.101673"><ele>772.0</ele><time>2026-04-27T09:22:45.179Z</time></trkpt><trkpt lat="39.5710892" lon="21.1015174"><ele>771.0</ele><time>2026-04-27T09:22:46.178Z</time></trkpt><trkpt lat="39.5711702" lon="21.1013587"><ele>770.0</ele><time>2026-04-27T09:22:47.178Z</time></trkpt><trkpt lat="39.5712337" lon="21.1011803"><ele>769.0</ele><time>2026-04-27T09:22:48.178Z</time></trkpt><trkpt lat="39.5712883" lon="21.1009999"><ele>775.75</ele><time>2026-04-27T09:22:49.179Z</time></trkpt><trkpt lat="39.5713412" lon="21.1008198"><ele>782.5</ele><time>2026-04-27T09:22:50.178Z</time></trkpt><trkpt lat="39.5713719" lon="21.1006354"><ele>789.25</ele><time>2026-04-27T09:22:51.179Z</time></trkpt><trkpt lat="39.5714033" lon="21.1004541"><ele>796.0</ele><time>2026-04-27T09:22:52.179Z</time></trkpt><trkpt lat="39.5714352" lon="21.1002859"><ele>796.0</ele><time>2026-04-27T09:22:53.179Z</time></trkpt><trkpt lat="39.5714717" lon="21.1001319"><ele>796.0</ele><time>2026-04-27T09:22:54.178Z</time></trkpt><trkpt lat="39.5715218" lon="21.0999889"><ele>796.0</ele><time>2026-04-27T09:22:55.179Z</time></trkpt><trkpt lat="39.5715837" lon="21.0998606"><ele>796.0</ele><time>2026-04-27T09:22:56.178Z</time></trkpt><trkpt lat="39.5716215" lon="21.0997247"><ele>797.0</ele><time>2026-04-27T09:22:57.179Z</time></trkpt><trkpt lat="39.5716216" lon="21.0996041"><ele>798.0</ele><time>2026-04-27T09:22:58.178Z</time></trkpt><trkpt lat="39.5715879" lon="21.0994907"><ele>799.0</ele><time>2026-04-27T09:22:59.179Z</time></trkpt><trkpt lat="39.5715195" lon="21.099392"><ele>800.0</ele><time>2026-04-27T09:23:00.179Z</time></trkpt><trkpt lat="39.5714449" lon="21.0993093"><ele>801.0</ele><time>2026-04-27T09:23:01.178Z</time></trkpt><trkpt lat="39.5713596" lon="21.0992196"><ele>801.0</ele><time>2026-04-27T09:23:02.179Z</time></trkpt><trkpt lat="39.5713265" lon="21.0990927"><ele>801.0</ele><time>2026-04-27T09:23:03.178Z</time></trkpt><trkpt lat="39.5712941" lon="21.0989822"><ele>801.0</ele><time>2026-04-27T09:23:04.178Z</time></trkpt><trkpt lat="39.5713302" lon="21.0988108"><ele>801.0</ele><time>2026-04-27T09:23:05.178Z</time></trkpt><trkpt lat="39.5713704" lon="21.0986441"><ele>802.25</ele><time>2026-04-27T09:23:06.178Z</time></trkpt><trkpt lat="39.5714337" lon="21.0984727"><ele>803.5</ele><time>2026-04-27T09:23:07.179Z</time></trkpt><trkpt lat="39.5714869" lon="21.0983159"><ele>804.75</ele><time>2026-04-27T09:23:08.179Z</time></trkpt><trkpt lat="39.571542" lon="21.0981711"><ele>806.0</ele><time>2026-04-27T09:23:09.178Z</time></trkpt><trkpt lat="39.5715442" lon="21.0980392"><ele>808.0</ele><time>2026-04-27T09:23:10.179Z</time></trkpt><trkpt lat="39.5715093" lon="21.0979165"><ele>810.0</ele><time>2026-04-27T09:23:11.178Z</time></trkpt><trkpt lat="39.5714528" lon="21.0978162"><ele>812.0</ele><time>2026-04-27T09:23:12.179Z</time></trkpt><trkpt lat="39.5713596" lon="21.0977414"><ele>814.0</ele><time>2026-04-27T09:23:13.179Z</time></trkpt><trkpt lat="39.5712501" lon="21.0976861"><ele>816.0</ele><time>2026-04-27T09:23:14.179Z</time></trkpt><trkpt lat="39.5711523" lon="21.0976232"><ele>814.5999999999999</ele><time>2026-04-27T09:23:15.178Z</time></trkpt><trkpt lat="39.5710572" lon="21.0975481"><ele>813.2</ele><time>2026-04-27T09:23:16.179Z</time></trkpt><trkpt lat="39.5709689" lon="21.0974609"><ele>811.8</ele><time>2026-04-27T09:23:17.178Z</time></trkpt><trkpt lat="39.5708927" lon="21.097366"><ele>810.4000000000001</ele><time>2026-04-27T09:23:18.179Z</time></trkpt><trkpt lat="39.5708245" lon="21.0972699"><ele>809.0</ele><time>2026-04-27T09:23:19.178Z</time></trkpt><trkpt lat="39.5707698" lon="21.0971718"><ele>809.0</ele><time>2026-04-27T09:23:20.179Z</time></trkpt><trkpt lat="39.5707319" lon="21.0970598"><ele>809.0</ele><time>2026-04-27T09:23:21.178Z</time></trkpt><trkpt lat="39.5707381" lon="21.0969054"><ele>809.0</ele><time>2026-04-27T09:23:22.179Z</time></trkpt><trkpt lat="39.5707675" lon="21.0967457"><ele>809.0</ele><time>2026-04-27T09:23:23.179Z</time></trkpt><trkpt lat="39.5708176" lon="21.0965806"><ele>809.25</ele><time>2026-04-27T09:23:24.179Z</time></trkpt><trkpt lat="39.5708801" lon="21.0964163"><ele>809.5</ele><time>2026-04-27T09:23:25.178Z</time></trkpt><trkpt lat="39.5709454" lon="21.0962476"><ele>809.75</ele><time>2026-04-27T09:23:26.178Z</time></trkpt><trkpt lat="39.5709931" lon="21.0960732"><ele>810.0</ele><time>2026-04-27T09:23:27.178Z</time></trkpt><trkpt lat="39.5710348" lon="21.0959189"><ele>812.3333333333333</ele><time>2026-04-27T09:23:28.179Z</time></trkpt><trkpt lat="39.5710427" lon="21.0957258"><ele>814.6666666666666</ele><time>2026-04-27T09:23:29.179Z</time></trkpt><trkpt lat="39.5710265" lon="21.0955143"><ele>817.0</ele><time>2026-04-27T09:23:30.178Z</time></trkpt><trkpt lat="39.5709983" lon="21.0952915"><ele>817.0</ele><time>2026-04-27T09:23:31.179Z</time></trkpt><trkpt lat="39.5709693" lon="21.095077"><ele>817.0</ele><time>2026-04-27T09:23:32.178Z</time></trkpt><trkpt lat="39.5709468" lon="21.09486"><ele>817.0</ele><time>2026-04-27T09:23:33.179Z</time></trkpt><trkpt lat="39.5709315" lon="21.0946557"><ele>816.6666666666666</ele><time>2026-04-27T09:23:34.178Z</time></trkpt><trkpt lat="39.5709277" lon="21.0944498"><ele>816.3333333333333</ele><time>2026-04-27T09:23:35.178Z</time></trkpt><trkpt lat="39.5709405" lon="21.0942535"><ele>816.0</ele><time>2026-04-27T09:23:36.179Z</time></trkpt><trkpt lat="39.5709697" lon="21.0940675"><ele>813.0</ele><time>2026-04-27T09:23:37.179Z</time></trkpt><trkpt lat="39.5710029" lon="21.0938945"><ele>810.0</ele><time>2026-04-27T09:23:38.178Z</time></trkpt><trkpt lat="39.5710309" lon="21.0937348"><ele>807.0</ele><time>2026-04-27T09:23:39.178Z</time></trkpt><trkpt lat="39.571056" lon="21.0935903"><ele>804.0</ele><time>2026-04-27T09:23:40.179Z</time></trkpt><trkpt lat="39.5710907" lon="21.0934419"><ele>804.0</ele><time>2026-04-27T09:23:41.179Z</time></trkpt><trkpt lat="39.5711531" lon="21.0933008"><ele>804.0</ele><time>2026-04-27T09:23:42.178Z</time></trkpt><trkpt lat="39.5712414" lon="21.0931671"><ele>804.0</ele><time>2026-04-27T09:23:43.178Z</time></trkpt><trkpt lat="39.5713458" lon="21.0930411"><ele>804.0</ele><time>2026-04-27T09:23:44.179Z</time></trkpt><trkpt lat="39.5714291" lon="21.0929056"><ele>809.5</ele><time>2026-04-27T09:23:45.178Z</time></trkpt><trkpt lat="39.5714902" lon="21.0927544"><ele>815.0</ele><time>2026-04-27T09:23:46.178Z</time></trkpt><trkpt lat="39.5715088" lon="21.0925956"><ele>820.5</ele><time>2026-04-27T09:23:47.178Z</time></trkpt><trkpt lat="39.57151" lon="21.0924353"><ele>826.0</ele><time>2026-04-27T09:23:48.178Z</time></trkpt><trkpt lat="39.5715086" lon="21.0922799"><ele>826.0</ele><time>2026-04-27T09:23:49.178Z</time></trkpt><trkpt lat="39.5715188" lon="21.09213"><ele>826.0</ele><time>2026-04-27T09:23:50.178Z</time></trkpt><trkpt lat="39.5715475" lon="21.0919949"><ele>826.0</ele><time>2026-04-27T09:23:51.179Z</time></trkpt><trkpt lat="39.5716077" lon="21.0918866"><ele>826.0</ele><time>2026-04-27T09:23:52.178Z</time></trkpt><trkpt lat="39.5717053" lon="21.0917913"><ele>826.0</ele><time>2026-04-27T09:23:53.179Z</time></trkpt><trkpt lat="39.5717933" lon="21.0917066"><ele>826.0</ele><time>2026-04-27T09:23:54.178Z</time></trkpt><trkpt lat="39.5718959" lon="21.0916233"><ele>826.0</ele><time>2026-04-27T09:23:55.178Z</time></trkpt><trkpt lat="39.5719883" lon="21.0915335"><ele>826.0</ele><time>2026-04-27T09:23:56.179Z</time></trkpt><trkpt lat="39.5720589" lon="21.0914116"><ele>826.0</ele><time>2026-04-27T09:23:57.179Z</time></trkpt><trkpt lat="39.572101" lon="21.0912863"><ele>828.0</ele><time>2026-04-27T09:23:58.179Z</time></trkpt><trkpt lat="39.5721169" lon="21.0911305"><ele>830.0</ele><time>2026-04-27T09:23:59.178Z</time></trkpt><trkpt lat="39.5721184" lon="21.0909732"><ele>832.0</ele><time>2026-04-27T09:24:00.178Z</time></trkpt><trkpt lat="39.5721098" lon="21.0908184"><ele>834.0</ele><time>2026-04-27T09:24:01.179Z</time></trkpt><trkpt lat="39.5721056" lon="21.09067"><ele>834.0</ele><time>2026-04-27T09:24:02.178Z</time></trkpt><trkpt lat="39.572113" lon="21.0905366"><ele>834.0</ele><time>2026-04-27T09:24:03.179Z</time></trkpt><trkpt lat="39.572141" lon="21.0903992"><ele>834.0</ele><time>2026-04-27T09:24:04.178Z</time></trkpt><trkpt lat="39.5721891" lon="21.0902729"><ele>834.0</ele><time>2026-04-27T09:24:05.178Z</time></trkpt><trkpt lat="39.5722613" lon="21.0901574"><ele>834.0</ele><time>2026-04-27T09:24:06.179Z</time></trkpt><trkpt lat="39.5723384" lon="21.0900459"><ele>834.0</ele><time>2026-04-27T09:24:07.179Z</time></trkpt><trkpt lat="39.5724406" lon="21.0899394"><ele>834.0</ele><time>2026-04-27T09:24:08.179Z</time></trkpt><trkpt lat="39.5725433" lon="21.0898406"><ele>834.0</ele><time>2026-04-27T09:24:09.179Z</time></trkpt><trkpt lat="39.572624" lon="21.0897507"><ele>834.0</ele><time>2026-04-27T09:24:10.178Z</time></trkpt><trkpt lat="39.5726726" lon="21.0896576"><ele>832.4000000000001</ele><time>2026-04-27T09:24:11.179Z</time></trkpt><trkpt lat="39.5726767" lon="21.0895453"><ele>830.8</ele><time>2026-04-27T09:24:12.178Z</time></trkpt><trkpt lat="39.5726465" lon="21.0894171"><ele>829.2</ele><time>2026-04-27T09:24:13.178Z</time></trkpt><trkpt lat="39.572597" lon="21.0892771"><ele>827.5999999999999</ele><time>2026-04-27T09:24:14.178Z</time></trkpt><trkpt lat="39.5725364" lon="21.0891135"><ele>826.0</ele><time>2026-04-27T09:24:15.179Z</time></trkpt><trkpt lat="39.5724691" lon="21.088939"><ele>826.0</ele><time>2026-04-27T09:24:16.179Z</time></trkpt><trkpt lat="39.5723935" lon="21.088767"><ele>826.0</ele><time>2026-04-27T09:24:17.178Z</time></trkpt><trkpt lat="39.5723032" lon="21.0886124"><ele>826.0</ele><time>2026-04-27T09:24:18.178Z</time></trkpt><trkpt lat="39.5722212" lon="21.088448"><ele>826.0</ele><time>2026-04-27T09:24:19.179Z</time></trkpt><trkpt lat="39.5721962" lon="21.0882989"><ele>826.0</ele><time>2026-04-27T09:24:20.179Z</time></trkpt><trkpt lat="39.5721665" lon="21.0881404"><ele>826.0</ele><time>2026-04-27T09:24:21.178Z</time></trkpt><trkpt lat="39.5721459" lon="21.0879986"><ele>826.0</ele><time>2026-04-27T09:24:22.178Z</time></trkpt><trkpt lat="39.572108" lon="21.087869"><ele>826.9999999999999</ele><time>2026-04-27T09:24:23.179Z</time></trkpt><trkpt lat="39.5720572" lon="21.0877548"><ele>828.0</ele><time>2026-04-27T09:24:24.178Z</time></trkpt><trkpt lat="39.5719824" lon="21.0876596"><ele>829.0</ele><time>2026-04-27T09:24:25.178Z</time></trkpt><trkpt lat="39.5719251" lon="21.0875629"><ele>830.0</ele><time>2026-04-27T09:24:26.179Z</time></trkpt><trkpt lat="39.571892" lon="21.0874779"><ele>830.9999999999999</ele><time>2026-04-27T09:24:27.178Z</time></trkpt><trkpt lat="39.571883" lon="21.087383"><ele>832.0</ele><time>2026-04-27T09:24:28.179Z</time></trkpt><trkpt lat="39.5718951" lon="21.0872763"><ele>831.8</ele><time>2026-04-27T09:24:29.178Z</time></trkpt><trkpt lat="39.5719281" lon="21.0871632"><ele>831.6</ele><time>2026-04-27T09:24:30.178Z</time></trkpt><trkpt lat="39.5719746" lon="21.087042"><ele>831.4</ele><time>2026-04-27T09:24:31.179Z</time></trkpt><trkpt lat="39.5720232" lon="21.0869332"><ele>831.1999999999999</ele><time>2026-04-27T09:24:32.179Z</time></trkpt><trkpt lat="39.5721151" lon="21.0868497"><ele>831.0</ele><time>2026-04-27T09:24:33.178Z</time></trkpt><trkpt lat="39.57218" lon="21.0867678"><ele>831.0</ele><time>2026-04-27T09:24:34.178Z</time></trkpt><trkpt lat="39.5722172" lon="21.0866757"><ele>831.0</ele><time>2026-04-27T09:24:35.178Z</time></trkpt><trkpt lat="39.5722164" lon="21.0865695"><ele>831.0</ele><time>2026-04-27T09:24:36.178Z</time></trkpt><trkpt lat="39.5722196" lon="21.0864753"><ele>831.0</ele><time>2026-04-27T09:24:37.179Z</time></trkpt><trkpt lat="39.5722543" lon="21.0863888"><ele>831.0</ele><time>2026-04-27T09:24:38.178Z</time></trkpt><trkpt lat="39.5723177" lon="21.0863238"><ele>831.0</ele><time>2026-04-27T09:24:39.178Z</time></trkpt><trkpt lat="39.5724158" lon="21.0862689"><ele>828.75</ele><time>2026-04-27T09:24:40.178Z</time></trkpt><trkpt lat="39.5725181" lon="21.0861845"><ele>826.5</ele><time>2026-04-27T09:24:41.178Z</time></trkpt><trkpt lat="39.5726329" lon="21.0860551"><ele>824.25</ele><time>2026-04-27T09:24:42.178Z</time></trkpt><trkpt lat="39.5727462" lon="21.0859462"><ele>822.0</ele><time>2026-04-27T09:24:43.179Z</time></trkpt><trkpt lat="39.5728531" lon="21.0858599"><ele>826.2</ele><time>2026-04-27T09:24:44.179Z</time></trkpt><trkpt lat="39.5729549" lon="21.0858051"><ele>830.4000000000001</ele><time>2026-04-27T09:24:45.178Z</time></trkpt><trkpt lat="39.5730318" lon="21.0857372"><ele>834.5999999999999</ele><time>2026-04-27T09:24:46.179Z</time></trkpt><trkpt lat="39.5730842" lon="21.0856259"><ele>838.8</ele><time>2026-04-27T09:24:47.178Z</time></trkpt><trkpt lat="39.573114" lon="21.0854727"><ele>843.0</ele><time>2026-04-27T09:24:48.178Z</time></trkpt><trkpt lat="39.5731238" lon="21.0852899"><ele>843.0</ele><time>2026-04-27T09:24:49.178Z</time></trkpt><trkpt lat="39.5731348" lon="21.0851111"><ele>843.0</ele><time>2026-04-27T09:24:50.179Z</time></trkpt><trkpt lat="39.5731179" lon="21.0849354"><ele>843.0</ele><time>2026-04-27T09:24:51.179Z</time></trkpt><trkpt lat="39.5730741" lon="21.0847422"><ele>843.0</ele><time>2026-04-27T09:24:52.179Z</time></trkpt><trkpt lat="39.5730317" lon="21.0845686"><ele>844.25</ele><time>2026-04-27T09:24:53.179Z</time></trkpt><trkpt lat="39.5729902" lon="21.0844066"><ele>845.5</ele><time>2026-04-27T09:24:54.178Z</time></trkpt><trkpt lat="39.5729519" lon="21.0842567"><ele>846.75</ele><time>2026-04-27T09:24:55.178Z</time></trkpt><trkpt lat="39.5729318" lon="21.0841062"><ele>848.0</ele><time>2026-04-27T09:24:56.179Z</time></trkpt><trkpt lat="39.572928" lon="21.0839504"><ele>848.5</ele><time>2026-04-27T09:24:57.178Z</time></trkpt><trkpt lat="39.5729413" lon="21.0837872"><ele>849.0</ele><time>2026-04-27T09:24:58.178Z</time></trkpt><trkpt lat="39.5729685" lon="21.0836136"><ele>849.5</ele><time>2026-04-27T09:24:59.178Z</time></trkpt><trkpt lat="39.5730008" lon="21.0834312"><ele>850.0</ele><time>2026-04-27T09:25:00.178Z</time></trkpt><trkpt lat="39.5730337" lon="21.0832491"><ele>846.25</ele><time>2026-04-27T09:25:01.178Z</time></trkpt><trkpt lat="39.5730728" lon="21.0830744"><ele>842.5</ele><time>2026-04-27T09:25:02.179Z</time></trkpt><trkpt lat="39.5731225" lon="21.0829182"><ele>838.75</ele><time>2026-04-27T09:25:03.179Z</time></trkpt><trkpt lat="39.5731765" lon="21.0827948"><ele>835.0</ele><time>2026-04-27T09:25:04.179Z</time></trkpt><trkpt lat="39.5732383" lon="21.0826993"><ele>835.0</ele><time>2026-04-27T09:25:05.178Z</time></trkpt><trkpt lat="39.5732912" lon="21.0826421"><ele>835.0</ele><time>2026-04-27T09:25:06.178Z</time></trkpt><trkpt lat="39.573356" lon="21.0826283"><ele>835.0</ele><time>2026-04-27T09:25:07.179Z</time></trkpt><trkpt lat="39.5734257" lon="21.0827375"><ele>835.0</ele><time>2026-04-27T09:25:09.179Z</time></trkpt><trkpt lat="39.5734348" lon="21.0828455"><ele>835.0</ele><time>2026-04-27T09:25:10.178Z</time></trkpt><trkpt lat="39.5734296" lon="21.0830381"><ele>835.0</ele><time>2026-04-27T09:25:11.179Z</time></trkpt><trkpt lat="39.5734593" lon="21.0832596"><ele>835.0</ele><time>2026-04-27T09:25:12.179Z</time></trkpt><trkpt lat="39.5734661" lon="21.0834551"><ele>835.0</ele><time>2026-04-27T09:25:13.178Z</time></trkpt><trkpt lat="39.5734777" lon="21.0836423"><ele>838.75</ele><time>2026-04-27T09:25:14.178Z</time></trkpt><trkpt lat="39.5734977" lon="21.083808"><ele>842.5</ele><time>2026-04-27T09:25:15.179Z</time></trkpt><trkpt lat="39.5735307" lon="21.0839491"><ele>846.25</ele><time>2026-04-27T09:25:16.179Z</time></trkpt><trkpt lat="39.5736018" lon="21.0840843"><ele>850.0</ele><time>2026-04-27T09:25:17.179Z</time></trkpt><trkpt lat="39.5737051" lon="21.0842221"><ele>854.4</ele><time>2026-04-27T09:25:18.178Z</time></trkpt><trkpt lat="39.573803" lon="21.0843386"><ele>858.8</ele><time>2026-04-27T09:25:19.178Z</time></trkpt><trkpt lat="39.5738777" lon="21.0844213"><ele>863.2</ele><time>2026-04-27T09:25:20.178Z</time></trkpt><trkpt lat="39.5739455" lon="21.0844632"><ele>867.6</ele><time>2026-04-27T09:25:21.178Z</time></trkpt><trkpt lat="39.574053" lon="21.0843791"><ele>872.0</ele><time>2026-04-27T09:25:23.178Z</time></trkpt><trkpt lat="39.5740844" lon="21.0842986"><ele>872.0</ele><time>2026-04-27T09:25:24.178Z</time></trkpt><trkpt lat="39.5740417" lon="21.0841674"><ele>872.0</ele><time>2026-04-27T09:25:25.178Z</time></trkpt><trkpt lat="39.5740061" lon="21.0840153"><ele>872.0</ele><time>2026-04-27T09:25:26.179Z</time></trkpt><trkpt lat="39.5739849" lon="21.083855"><ele>872.0</ele><time>2026-04-27T09:25:27.179Z</time></trkpt><trkpt lat="39.573997" lon="21.0836892"><ele>870.5</ele><time>2026-04-27T09:25:28.178Z</time></trkpt><trkpt lat="39.5740476" lon="21.0835169"><ele>869.0</ele><time>2026-04-27T09:25:29.178Z</time></trkpt><trkpt lat="39.5741222" lon="21.0833574"><ele>867.5</ele><time>2026-04-27T09:25:30.178Z</time></trkpt><trkpt lat="39.5742114" lon="21.083235"><ele>866.0</ele><time>2026-04-27T09:25:31.179Z</time></trkpt><trkpt lat="39.5742928" lon="21.083149"><ele>866.6666666666667</ele><time>2026-04-27T09:25:32.179Z</time></trkpt><trkpt lat="39.5743678" lon="21.0830926"><ele>867.3333333333334</ele><time>2026-04-27T09:25:33.178Z</time></trkpt><trkpt lat="39.5744823" lon="21.0830834"><ele>868.0</ele><time>2026-04-27T09:25:35.178Z</time></trkpt><trkpt lat="39.5745282" lon="21.083163"><ele>868.6666666666667</ele><time>2026-04-27T09:25:37.179Z</time></trkpt><trkpt lat="39.5745996" lon="21.0832443"><ele>869.3333333333334</ele><time>2026-04-27T09:25:39.179Z</time></trkpt><trkpt lat="39.5746577" lon="21.0832828"><ele>870.0</ele><time>2026-04-27T09:25:40.178Z</time></trkpt><trkpt lat="39.574733" lon="21.0833283"><ele>870.0</ele><time>2026-04-27T09:25:41.179Z</time></trkpt><trkpt lat="39.5748279" lon="21.083352"><ele>870.0</ele><time>2026-04-27T09:25:42.178Z</time></trkpt><trkpt lat="39.5749227" lon="21.0833586"><ele>870.0</ele><time>2026-04-27T09:25:43.179Z</time></trkpt><trkpt lat="39.5750065" lon="21.0833265"><ele>870.0</ele><time>2026-04-27T09:25:44.179Z</time></trkpt><trkpt lat="39.5750727" lon="21.0832658"><ele>870.0</ele><time>2026-04-27T09:25:45.179Z</time></trkpt><trkpt lat="39.5751129" lon="21.0831613"><ele>870.0</ele><time>2026-04-27T09:25:46.178Z</time></trkpt><trkpt lat="39.5751319" lon="21.0830422"><ele>870.0</ele><time>2026-04-27T09:25:47.179Z</time></trkpt><trkpt lat="39.5751429" lon="21.0829158"><ele>870.0</ele><time>2026-04-27T09:25:48.179Z</time></trkpt><trkpt lat="39.5751475" lon="21.0827964"><ele>870.0</ele><time>2026-04-27T09:25:49.179Z</time></trkpt><trkpt lat="39.5751448" lon="21.0826816"><ele>870.0</ele><time>2026-04-27T09:25:50.178Z</time></trkpt><trkpt lat="39.5751286" lon="21.0825748"><ele>870.0</ele><time>2026-04-27T09:25:51.179Z</time></trkpt><trkpt lat="39.5750933" lon="21.0824639"><ele>870.0</ele><time>2026-04-27T09:25:52.178Z</time></trkpt><trkpt lat="39.5750528" lon="21.0823557"><ele>870.0</ele><time>2026-04-27T09:25:53.179Z</time></trkpt><trkpt lat="39.5750014" lon="21.082256"><ele>870.0</ele><time>2026-04-27T09:25:54.178Z</time></trkpt><trkpt lat="39.5749538" lon="21.0821682"><ele>870.0</ele><time>2026-04-27T09:25:55.178Z</time></trkpt><trkpt lat="39.5749202" lon="21.0820828"><ele>870.0</ele><time>2026-04-27T09:25:56.178Z</time></trkpt><trkpt lat="39.574906" lon="21.0819925"><ele>869.0</ele><time>2026-04-27T09:25:57.178Z</time></trkpt><trkpt lat="39.5749125" lon="21.0818937"><ele>868.0</ele><time>2026-04-27T09:25:58.179Z</time></trkpt><trkpt lat="39.5749432" lon="21.0818022"><ele>867.0</ele><time>2026-04-27T09:25:59.179Z</time></trkpt><trkpt lat="39.5749953" lon="21.0817411"><ele>866.0</ele><time>2026-04-27T09:26:00.179Z</time></trkpt><trkpt lat="39.5750672" lon="21.0817033"><ele>865.0</ele><time>2026-04-27T09:26:01.179Z</time></trkpt><trkpt lat="39.5751487" lon="21.0816935"><ele>864.0</ele><time>2026-04-27T09:26:02.178Z</time></trkpt><trkpt lat="39.5752192" lon="21.081693"><ele>863.1666666666666</ele><time>2026-04-27T09:26:03.179Z</time></trkpt><trkpt lat="39.5752973" lon="21.081595"><ele>862.3333333333333</ele><time>2026-04-27T09:26:05.178Z</time></trkpt><trkpt lat="39.5753007" lon="21.0815115"><ele>861.5</ele><time>2026-04-27T09:26:06.179Z</time></trkpt><trkpt lat="39.5752532" lon="21.0814143"><ele>860.6666666666666</ele><time>2026-04-27T09:26:07.179Z</time></trkpt><trkpt lat="39.5752097" lon="21.0813193"><ele>859.8333333333333</ele><time>2026-04-27T09:26:08.179Z</time></trkpt><trkpt lat="39.5751744" lon="21.0812023"><ele>859.0</ele><time>2026-04-27T09:26:09.178Z</time></trkpt><trkpt lat="39.575178" lon="21.0810901"><ele>859.0</ele><time>2026-04-27T09:26:10.179Z</time></trkpt><trkpt lat="39.5752064" lon="21.0809649"><ele>859.0000000000001</ele><time>2026-04-27T09:26:11.179Z</time></trkpt><trkpt lat="39.5752533" lon="21.0808357"><ele>859.0000000000001</ele><time>2026-04-27T09:26:12.179Z</time></trkpt><trkpt lat="39.5752867" lon="21.0806938"><ele>859.0</ele><time>2026-04-27T09:26:13.178Z</time></trkpt><trkpt lat="39.575301" lon="21.080539"><ele>859.0</ele><time>2026-04-27T09:26:14.178Z</time></trkpt><trkpt lat="39.575271" lon="21.0804009"><ele>859.0</ele><time>2026-04-27T09:26:15.178Z</time></trkpt><trkpt lat="39.575247" lon="21.0802736"><ele>859.0000000000001</ele><time>2026-04-27T09:26:16.179Z</time></trkpt><trkpt lat="39.575211" lon="21.0801619"><ele>859.0000000000001</ele><time>2026-04-27T09:26:17.179Z</time></trkpt><trkpt lat="39.5751578" lon="21.0800763"><ele>859.0</ele><time>2026-04-27T09:26:18.179Z</time></trkpt><trkpt lat="39.5750804" lon="21.0800297"><ele>859.0</ele><time>2026-04-27T09:26:19.179Z</time></trkpt><trkpt lat="39.5749788" lon="21.0800232"><ele>859.0</ele><time>2026-04-27T09:26:20.179Z</time></trkpt><trkpt lat="39.5748498" lon="21.080052"><ele>859.0</ele><time>2026-04-27T09:26:21.179Z</time></trkpt><trkpt lat="39.574708" lon="21.0800983"><ele>859.0</ele><time>2026-04-27T09:26:22.179Z</time></trkpt><trkpt lat="39.5745651" lon="21.0801472"><ele>859.0</ele><time>2026-04-27T09:26:23.179Z</time></trkpt><trkpt lat="39.5744042" lon="21.080207"><ele>858.5</ele><time>2026-04-27T09:26:24.179Z</time></trkpt><trkpt lat="39.5742407" lon="21.0802666"><ele>858.0</ele><time>2026-04-27T09:26:25.178Z</time></trkpt><trkpt lat="39.5741005" lon="21.0803167"><ele>857.5</ele><time>2026-04-27T09:26:26.178Z</time></trkpt><trkpt lat="39.5739711" lon="21.0803587"><ele>857.0</ele><time>2026-04-27T09:26:27.178Z</time></trkpt><trkpt lat="39.5738523" lon="21.0803967"><ele>857.0</ele><time>2026-04-27T09:26:28.178Z</time></trkpt><trkpt lat="39.5737424" lon="21.0804162"><ele>857.0</ele><time>2026-04-27T09:26:29.178Z</time></trkpt><trkpt lat="39.5736393" lon="21.0804266"><ele>857.0</ele><time>2026-04-27T09:26:30.179Z</time></trkpt><trkpt lat="39.5735446" lon="21.0804257"><ele>857.0</ele><time>2026-04-27T09:26:31.178Z</time></trkpt><trkpt lat="39.5734608" lon="21.0803706"><ele>857.0</ele><time>2026-04-27T09:26:32.178Z</time></trkpt><trkpt lat="39.5733908" lon="21.0802772"><ele>853.8</ele><time>2026-04-27T09:26:33.178Z</time></trkpt><trkpt lat="39.5733537" lon="21.0801736"><ele>850.6</ele><time>2026-04-27T09:26:34.179Z</time></trkpt><trkpt lat="39.5733369" lon="21.0800544"><ele>847.4</ele><time>2026-04-27T09:26:35.179Z</time></trkpt><trkpt lat="39.5733813" lon="21.0799336"><ele>844.1999999999999</ele><time>2026-04-27T09:26:36.178Z</time></trkpt><trkpt lat="39.5734642" lon="21.079818"><ele>841.0</ele><time>2026-04-27T09:26:37.179Z</time></trkpt><trkpt lat="39.5735606" lon="21.079716"><ele>840.25</ele><time>2026-04-27T09:26:38.179Z</time></trkpt><trkpt lat="39.573666" lon="21.0796145"><ele>839.5</ele><time>2026-04-27T09:26:39.179Z</time></trkpt><trkpt lat="39.5737853" lon="21.0795166"><ele>838.75</ele><time>2026-04-27T09:26:40.179Z</time></trkpt><trkpt lat="39.5739002" lon="21.0794276"><ele>838.0</ele><time>2026-04-27T09:26:41.178Z</time></trkpt><trkpt lat="39.5740221" lon="21.0793372"><ele>838.0</ele><time>2026-04-27T09:26:42.179Z</time></trkpt><trkpt lat="39.5741343" lon="21.0792519"><ele>838.0</ele><time>2026-04-27T09:26:43.179Z</time></trkpt><trkpt lat="39.5742493" lon="21.0791862"><ele>838.0</ele><time>2026-04-27T09:26:44.179Z</time></trkpt><trkpt lat="39.5743718" lon="21.0791416"><ele>838.0</ele><time>2026-04-27T09:26:45.179Z</time></trkpt><trkpt lat="39.5744976" lon="21.0790929"><ele>832.75</ele><time>2026-04-27T09:26:46.179Z</time></trkpt><trkpt lat="39.574609" lon="21.0790377"><ele>827.5</ele><time>2026-04-27T09:26:47.178Z</time></trkpt><trkpt lat="39.5747109" lon="21.0789748"><ele>822.25</ele><time>2026-04-27T09:26:48.178Z</time></trkpt><trkpt lat="39.5748097" lon="21.078914"><ele>817.0</ele><time>2026-04-27T09:26:49.178Z</time></trkpt><trkpt lat="39.5749039" lon="21.0788428"><ele>817.0</ele><time>2026-04-27T09:26:50.179Z</time></trkpt><trkpt lat="39.5750104" lon="21.0787729"><ele>817.0</ele><time>2026-04-27T09:26:51.178Z</time></trkpt><trkpt lat="39.575123" lon="21.0787086"><ele>817.0</ele><time>2026-04-27T09:26:52.179Z</time></trkpt><trkpt lat="39.5752509" lon="21.0786634"><ele>817.0</ele><time>2026-04-27T09:26:53.179Z</time></trkpt><trkpt lat="39.575391" lon="21.0786326"><ele>821.25</ele><time>2026-04-27T09:26:54.179Z</time></trkpt><trkpt lat="39.575525" lon="21.0785975"><ele>825.5</ele><time>2026-04-27T09:26:55.178Z</time></trkpt><trkpt lat="39.575654" lon="21.0785537"><ele>829.75</ele><time>2026-04-27T09:26:56.178Z</time></trkpt><trkpt lat="39.5757728" lon="21.0784983"><ele>834.0</ele><time>2026-04-27T09:26:57.178Z</time></trkpt><trkpt lat="39.5758724" lon="21.0784329"><ele>834.0</ele><time>2026-04-27T09:26:58.179Z</time></trkpt><trkpt lat="39.5759516" lon="21.0783482"><ele>834.0</ele><time>2026-04-27T09:26:59.179Z</time></trkpt><trkpt lat="39.5760054" lon="21.0782513"><ele>834.0</ele><time>2026-04-27T09:27:00.179Z</time></trkpt><trkpt lat="39.57602" lon="21.0781295"><ele>834.0</ele><time>2026-04-27T09:27:01.179Z</time></trkpt><trkpt lat="39.5759922" lon="21.0779901"><ele>834.0</ele><time>2026-04-27T09:27:02.179Z</time></trkpt><trkpt lat="39.5759327" lon="21.0778492"><ele>833.75</ele><time>2026-04-27T09:27:03.178Z</time></trkpt><trkpt lat="39.5758527" lon="21.0777076"><ele>833.5</ele><time>2026-04-27T09:27:04.179Z</time></trkpt><trkpt lat="39.5757988" lon="21.0775561"><ele>833.25</ele><time>2026-04-27T09:27:05.179Z</time></trkpt><trkpt lat="39.575756" lon="21.0774037"><ele>833.0</ele><time>2026-04-27T09:27:06.179Z</time></trkpt><trkpt lat="39.5757322" lon="21.0772687"><ele>833.0</ele><time>2026-04-27T09:27:07.179Z</time></trkpt><trkpt lat="39.5756753" lon="21.0771526"><ele>833.0</ele><time>2026-04-27T09:27:08.179Z</time></trkpt><trkpt lat="39.575587" lon="21.0770648"><ele>833.0</ele><time>2026-04-27T09:27:09.179Z</time></trkpt><trkpt lat="39.5754753" lon="21.0770068"><ele>833.0</ele><time>2026-04-27T09:27:10.178Z</time></trkpt><trkpt lat="39.5753518" lon="21.076973"><ele>829.0</ele><time>2026-04-27T09:27:11.179Z</time></trkpt><trkpt lat="39.5752393" lon="21.0769228"><ele>825.0</ele><time>2026-04-27T09:27:12.178Z</time></trkpt><trkpt lat="39.5751159" lon="21.0768541"><ele>821.0</ele><time>2026-04-27T09:27:13.178Z</time></trkpt><trkpt lat="39.5750253" lon="21.0767807"><ele>817.0</ele><time>2026-04-27T09:27:14.179Z</time></trkpt><trkpt lat="39.5750378" lon="21.076683"><ele>813.0</ele><time>2026-04-27T09:27:15.178Z</time></trkpt><trkpt lat="39.5751308" lon="21.0765278"><ele>813.5</ele><time>2026-04-27T09:27:16.178Z</time></trkpt><trkpt lat="39.5752034" lon="21.0764155"><ele>814.0</ele><time>2026-04-27T09:27:17.178Z</time></trkpt><trkpt lat="39.5752988" lon="21.0763071"><ele>814.5</ele><time>2026-04-27T09:27:18.179Z</time></trkpt><trkpt lat="39.5754133" lon="21.0761745"><ele>815.0</ele><time>2026-04-27T09:27:19.179Z</time></trkpt><trkpt lat="39.5755131" lon="21.0760656"><ele>815.0</ele><time>2026-04-27T09:27:20.178Z</time></trkpt><trkpt lat="39.5756051" lon="21.0759681"><ele>815.0</ele><time>2026-04-27T09:27:21.179Z</time></trkpt><trkpt lat="39.5756759" lon="21.0758933"><ele>815.0</ele><time>2026-04-27T09:27:22.179Z</time></trkpt><trkpt lat="39.5757275" lon="21.0758373"><ele>815.0</ele><time>2026-04-27T09:27:23.179Z</time></trkpt><trkpt lat="39.575767" lon="21.0757698"><ele>815.0</ele><time>2026-04-27T09:27:24.178Z</time></trkpt><trkpt lat="39.5757454" lon="21.0756287"><ele>815.0</ele><time>2026-04-27T09:27:26.179Z</time></trkpt><trkpt lat="39.5756795" lon="21.0756085"><ele>815.0</ele><time>2026-04-27T09:27:27.178Z</time></trkpt><trkpt lat="39.5755988" lon="21.0756389"><ele>815.0</ele><time>2026-04-27T09:27:28.179Z</time></trkpt><trkpt lat="39.5755044" lon="21.075729"><ele>815.0</ele><time>2026-04-27T09:27:29.178Z</time></trkpt><trkpt lat="39.5753928" lon="21.0758481"><ele>815.0</ele><time>2026-04-27T09:27:30.178Z</time></trkpt><trkpt lat="39.5752734" lon="21.0759466"><ele>810.0</ele><time>2026-04-27T09:27:31.179Z</time></trkpt><trkpt lat="39.5751436" lon="21.0760396"><ele>805.0</ele><time>2026-04-27T09:27:32.178Z</time></trkpt><trkpt lat="39.5750122" lon="21.0761157"><ele>800.0</ele><time>2026-04-27T09:27:33.178Z</time></trkpt><trkpt lat="39.5748825" lon="21.0761852"><ele>795.0</ele><time>2026-04-27T09:27:34.179Z</time></trkpt><trkpt lat="39.5747534" lon="21.0762458"><ele>795.0</ele><time>2026-04-27T09:27:35.179Z</time></trkpt><trkpt lat="39.5746276" lon="21.0762954"><ele>795.0</ele><time>2026-04-27T09:27:36.179Z</time></trkpt><trkpt lat="39.5745076" lon="21.0763301"><ele>795.0</ele><time>2026-04-27T09:27:37.178Z</time></trkpt><trkpt lat="39.5743862" lon="21.0763459"><ele>795.0</ele><time>2026-04-27T09:27:38.178Z</time></trkpt><trkpt lat="39.5742629" lon="21.0763364"><ele>792.5</ele><time>2026-04-27T09:27:39.178Z</time></trkpt><trkpt lat="39.5741351" lon="21.0762964"><ele>790.0</ele><time>2026-04-27T09:27:40.178Z</time></trkpt><trkpt lat="39.5739977" lon="21.0762314"><ele>787.5</ele><time>2026-04-27T09:27:41.178Z</time></trkpt><trkpt lat="39.5738627" lon="21.0761702"><ele>785.0</ele><time>2026-04-27T09:27:42.179Z</time></trkpt><trkpt lat="39.5737296" lon="21.0761348"><ele>789.25</ele><time>2026-04-27T09:27:43.178Z</time></trkpt><trkpt lat="39.5735939" lon="21.0761419"><ele>793.5</ele><time>2026-04-27T09:27:44.179Z</time></trkpt><trkpt lat="39.5734643" lon="21.0761843"><ele>797.75</ele><time>2026-04-27T09:27:45.178Z</time></trkpt><trkpt lat="39.5733435" lon="21.076261"><ele>802.0</ele><time>2026-04-27T09:27:46.179Z</time></trkpt><trkpt lat="39.5732336" lon="21.076349"><ele>802.0</ele><time>2026-04-27T09:27:47.179Z</time></trkpt><trkpt lat="39.5731206" lon="21.0764277"><ele>802.0</ele><time>2026-04-27T09:27:48.178Z</time></trkpt><trkpt lat="39.5730009" lon="21.076474"><ele>802.0</ele><time>2026-04-27T09:27:49.178Z</time></trkpt><trkpt lat="39.5728721" lon="21.0764802"><ele>802.0</ele><time>2026-04-27T09:27:50.179Z</time></trkpt><trkpt lat="39.5727407" lon="21.0764817"><ele>801.0</ele><time>2026-04-27T09:27:51.179Z</time></trkpt><trkpt lat="39.57261" lon="21.0765143"><ele>800.0</ele><time>2026-04-27T09:27:52.178Z</time></trkpt><trkpt lat="39.5724891" lon="21.0765451"><ele>799.0</ele><time>2026-04-27T09:27:53.178Z</time></trkpt><trkpt lat="39.5723633" lon="21.0765459"><ele>798.0</ele><time>2026-04-27T09:27:54.179Z</time></trkpt><trkpt lat="39.5722435" lon="21.0765084"><ele>798.0</ele><time>2026-04-27T09:27:55.178Z</time></trkpt><trkpt lat="39.5721469" lon="21.0764489"><ele>798.0</ele><time>2026-04-27T09:27:56.178Z</time></trkpt><trkpt lat="39.5720604" lon="21.0763792"><ele>798.0</ele><time>2026-04-27T09:27:57.179Z</time></trkpt><trkpt lat="39.5720038" lon="21.0762783"><ele>798.0</ele><time>2026-04-27T09:27:58.178Z</time></trkpt><trkpt lat="39.5719774" lon="21.07616"><ele>798.0</ele><time>2026-04-27T09:27:59.179Z</time></trkpt><trkpt lat="39.5719946" lon="21.0760179"><ele>798.0</ele><time>2026-04-27T09:28:00.179Z</time></trkpt><trkpt lat="39.5720367" lon="21.0758744"><ele>798.0</ele><time>2026-04-27T09:28:01.179Z</time></trkpt><trkpt lat="39.5721439" lon="21.0756923"><ele>798.0</ele><time>2026-04-27T09:28:02.178Z</time></trkpt><trkpt lat="39.5722172" lon="21.0755176"><ele>798.0</ele><time>2026-04-27T09:28:03.178Z</time></trkpt><trkpt lat="39.5722862" lon="21.0753481"><ele>792.5</ele><time>2026-04-27T09:28:04.179Z</time></trkpt><trkpt lat="39.5723729" lon="21.0752042"><ele>787.0</ele><time>2026-04-27T09:28:05.179Z</time></trkpt><trkpt lat="39.5724963" lon="21.0750802"><ele>781.5</ele><time>2026-04-27T09:28:06.178Z</time></trkpt><trkpt lat="39.5726164" lon="21.0749759"><ele>776.0</ele><time>2026-04-27T09:28:07.179Z</time></trkpt><trkpt lat="39.5727451" lon="21.0749037"><ele>772.5</ele><time>2026-04-27T09:28:08.179Z</time></trkpt><trkpt lat="39.5728467" lon="21.0748052"><ele>769.0</ele><time>2026-04-27T09:28:09.178Z</time></trkpt><trkpt lat="39.5729199" lon="21.0746761"><ele>765.5</ele><time>2026-04-27T09:28:10.178Z</time></trkpt><trkpt lat="39.5729728" lon="21.0745355"><ele>762.0</ele><time>2026-04-27T09:28:11.179Z</time></trkpt><trkpt lat="39.5730096" lon="21.0743959"><ele>762.0</ele><time>2026-04-27T09:28:12.179Z</time></trkpt><trkpt lat="39.5730552" lon="21.0742733"><ele>762.0</ele><time>2026-04-27T09:28:13.178Z</time></trkpt><trkpt lat="39.5730967" lon="21.0741787"><ele>762.0</ele><time>2026-04-27T09:28:14.178Z</time></trkpt><trkpt lat="39.5731837" lon="21.0741271"><ele>762.0</ele><time>2026-04-27T09:28:15.178Z</time></trkpt><trkpt lat="39.5732931" lon="21.0741916"><ele>762.0</ele><time>2026-04-27T09:28:16.178Z</time></trkpt><trkpt lat="39.5733838" lon="21.0742154"><ele>762.0</ele><time>2026-04-27T09:28:17.179Z</time></trkpt><trkpt lat="39.5734826" lon="21.074311"><ele>762.0</ele><time>2026-04-27T09:28:18.178Z</time></trkpt><trkpt lat="39.5735534" lon="21.074504"><ele>762.0</ele><time>2026-04-27T09:28:19.178Z</time></trkpt><trkpt lat="39.5735767" lon="21.0747225"><ele>762.0</ele><time>2026-04-27T09:28:20.179Z</time></trkpt><trkpt lat="39.5736525" lon="21.0748761"><ele>762.0</ele><time>2026-04-27T09:28:21.179Z</time></trkpt><trkpt lat="39.5737329" lon="21.075011"><ele>762.0</ele><time>2026-04-27T09:28:22.179Z</time></trkpt><trkpt lat="39.5738119" lon="21.0751439"><ele>762.0</ele><time>2026-04-27T09:28:23.179Z</time></trkpt><trkpt lat="39.5739158" lon="21.0752279"><ele>760.0</ele><time>2026-04-27T09:28:24.178Z</time></trkpt><trkpt lat="39.5740423" lon="21.0752905"><ele>758.0</ele><time>2026-04-27T09:28:25.178Z</time></trkpt><trkpt lat="39.5741603" lon="21.0753466"><ele>756.0</ele><time>2026-04-27T09:28:26.178Z</time></trkpt><trkpt lat="39.5742783" lon="21.0753884"><ele>754.0</ele><time>2026-04-27T09:28:27.179Z</time></trkpt><trkpt lat="39.574385" lon="21.0754086"><ele>754.0</ele><time>2026-04-27T09:28:28.178Z</time></trkpt><trkpt lat="39.5744867" lon="21.0753907"><ele>754.0</ele><time>2026-04-27T09:28:29.178Z</time></trkpt><trkpt lat="39.5745733" lon="21.0753299"><ele>754.0</ele><time>2026-04-27T09:28:30.178Z</time></trkpt><trkpt lat="39.5746355" lon="21.0752199"><ele>754.0</ele><time>2026-04-27T09:28:31.178Z</time></trkpt><trkpt lat="39.574678" lon="21.0750712"><ele>754.0</ele><time>2026-04-27T09:28:32.178Z</time></trkpt><trkpt lat="39.5746994" lon="21.0749101"><ele>752.25</ele><time>2026-04-27T09:28:33.179Z</time></trkpt><trkpt lat="39.5747205" lon="21.0747439"><ele>750.5</ele><time>2026-04-27T09:28:34.178Z</time></trkpt><trkpt lat="39.5747342" lon="21.074586"><ele>748.75</ele><time>2026-04-27T09:28:35.179Z</time></trkpt><trkpt lat="39.5747624" lon="21.0744462"><ele>747.0</ele><time>2026-04-27T09:28:36.179Z</time></trkpt><trkpt lat="39.5748088" lon="21.074329"><ele>747.0</ele><time>2026-04-27T09:28:37.179Z</time></trkpt><trkpt lat="39.5748767" lon="21.0742494"><ele>747.0</ele><time>2026-04-27T09:28:38.179Z</time></trkpt><trkpt lat="39.5749759" lon="21.074219"><ele>747.0</ele><time>2026-04-27T09:28:39.179Z</time></trkpt><trkpt lat="39.5750952" lon="21.074226"><ele>747.0</ele><time>2026-04-27T09:28:40.179Z</time></trkpt><trkpt lat="39.5752157" lon="21.0742309"><ele>747.0</ele><time>2026-04-27T09:28:41.179Z</time></trkpt><trkpt lat="39.5753545" lon="21.0742164"><ele>748.6666666666666</ele><time>2026-04-27T09:28:42.179Z</time></trkpt><trkpt lat="39.5754968" lon="21.0741776"><ele>750.3333333333333</ele><time>2026-04-27T09:28:43.179Z</time></trkpt><trkpt lat="39.5756649" lon="21.0741102"><ele>752.0</ele><time>2026-04-27T09:28:44.178Z</time></trkpt><trkpt lat="39.5758159" lon="21.0740437"><ele>750.3333333333333</ele><time>2026-04-27T09:28:45.178Z</time></trkpt><trkpt lat="39.5759589" lon="21.0739624"><ele>748.6666666666666</ele><time>2026-04-27T09:28:46.178Z</time></trkpt><trkpt lat="39.5760942" lon="21.0738679"><ele>747.0</ele><time>2026-04-27T09:28:47.178Z</time></trkpt><trkpt lat="39.5762199" lon="21.0737367"><ele>747.0</ele><time>2026-04-27T09:28:48.178Z</time></trkpt><trkpt lat="39.576334" lon="21.0736038"><ele>747.0</ele><time>2026-04-27T09:28:49.178Z</time></trkpt><trkpt lat="39.5764236" lon="21.0734704"><ele>747.0</ele><time>2026-04-27T09:28:50.179Z</time></trkpt><trkpt lat="39.5765016" lon="21.0733373"><ele>747.0</ele><time>2026-04-27T09:28:51.179Z</time></trkpt><trkpt lat="39.5765678" lon="21.0732206"><ele>745.0</ele><time>2026-04-27T09:28:52.178Z</time></trkpt><trkpt lat="39.5766429" lon="21.0731148"><ele>743.0</ele><time>2026-04-27T09:28:53.178Z</time></trkpt><trkpt lat="39.5767236" lon="21.0730382"><ele>741.0</ele><time>2026-04-27T09:28:54.179Z</time></trkpt><trkpt lat="39.5768121" lon="21.0729868"><ele>739.0</ele><time>2026-04-27T09:28:55.178Z</time></trkpt><trkpt lat="39.5769025" lon="21.0729602"><ele>737.0</ele><time>2026-04-27T09:28:56.178Z</time></trkpt><trkpt lat="39.5769896" lon="21.0729137"><ele>740.8</ele><time>2026-04-27T09:28:57.179Z</time></trkpt><trkpt lat="39.5770618" lon="21.0728305"><ele>744.6</ele><time>2026-04-27T09:28:58.178Z</time></trkpt><trkpt lat="39.5771086" lon="21.0727224"><ele>748.4</ele><time>2026-04-27T09:28:59.179Z</time></trkpt><trkpt lat="39.5771326" lon="21.0725865"><ele>752.1999999999999</ele><time>2026-04-27T09:29:00.179Z</time></trkpt><trkpt lat="39.5771393" lon="21.0724596"><ele>756.0</ele><time>2026-04-27T09:29:01.178Z</time></trkpt><trkpt lat="39.5771157" lon="21.0723399"><ele>755.75</ele><time>2026-04-27T09:29:02.178Z</time></trkpt><trkpt lat="39.5770549" lon="21.072229"><ele>755.5</ele><time>2026-04-27T09:29:03.178Z</time></trkpt><trkpt lat="39.5769579" lon="21.0721273"><ele>755.25</ele><time>2026-04-27T09:29:04.178Z</time></trkpt><trkpt lat="39.5768314" lon="21.0720049"><ele>755.0</ele><time>2026-04-27T09:29:05.178Z</time></trkpt><trkpt lat="39.576677" lon="21.0719002"><ele>755.0</ele><time>2026-04-27T09:29:06.178Z</time></trkpt><trkpt lat="39.5765395" lon="21.0717959"><ele>755.0</ele><time>2026-04-27T09:29:07.179Z</time></trkpt><trkpt lat="39.5764139" lon="21.0717033"><ele>755.0</ele><time>2026-04-27T09:29:08.178Z</time></trkpt><trkpt lat="39.5763089" lon="21.0715964"><ele>755.0</ele><time>2026-04-27T09:29:09.179Z</time></trkpt><trkpt lat="39.5762297" lon="21.0714798"><ele>754.8</ele><time>2026-04-27T09:29:10.179Z</time></trkpt><trkpt lat="39.5761848" lon="21.0713538"><ele>754.6</ele><time>2026-04-27T09:29:11.178Z</time></trkpt><trkpt lat="39.5761754" lon="21.0712237"><ele>754.4000000000001</ele><time>2026-04-27T09:29:12.178Z</time></trkpt><trkpt lat="39.576224" lon="21.0710885"><ele>754.2</ele><time>2026-04-27T09:29:13.178Z</time></trkpt><trkpt lat="39.5762952" lon="21.0709549"><ele>754.0</ele><time>2026-04-27T09:29:14.178Z</time></trkpt><trkpt lat="39.5764313" lon="21.0708479"><ele>746.3333333333334</ele><time>2026-04-27T09:29:15.178Z</time></trkpt><trkpt lat="39.5765869" lon="21.0707611"><ele>738.6666666666666</ele><time>2026-04-27T09:29:16.178Z</time></trkpt><trkpt lat="39.5767507" lon="21.0706747"><ele>731.0</ele><time>2026-04-27T09:29:17.179Z</time></trkpt><trkpt lat="39.5769113" lon="21.0705871"><ele>736.3333333333333</ele><time>2026-04-27T09:29:18.178Z</time></trkpt><trkpt lat="39.5770717" lon="21.0705055"><ele>741.6666666666666</ele><time>2026-04-27T09:29:19.179Z</time></trkpt><trkpt lat="39.5772268" lon="21.0704446"><ele>747.0</ele><time>2026-04-27T09:29:20.178Z</time></trkpt><trkpt lat="39.5773919" lon="21.0703842"><ele>747.0</ele><time>2026-04-27T09:29:21.179Z</time></trkpt><trkpt lat="39.5775414" lon="21.0703382"><ele>747.0</ele><time>2026-04-27T09:29:22.179Z</time></trkpt><trkpt lat="39.5776755" lon="21.0702722"><ele>747.0</ele><time>2026-04-27T09:29:23.178Z</time></trkpt><trkpt lat="39.5778" lon="21.0701909"><ele>747.0</ele><time>2026-04-27T09:29:24.179Z</time></trkpt><trkpt lat="39.5779113" lon="21.0701128"><ele>752.6</ele><time>2026-04-27T09:29:25.179Z</time></trkpt><trkpt lat="39.5779975" lon="21.070012"><ele>758.2</ele><time>2026-04-27T09:29:26.178Z</time></trkpt><trkpt lat="39.5780634" lon="21.0699013"><ele>763.8</ele><time>2026-04-27T09:29:27.178Z</time></trkpt><trkpt lat="39.5780915" lon="21.0697698"><ele>769.4</ele><time>2026-04-27T09:29:28.179Z</time></trkpt><trkpt lat="39.5780828" lon="21.0696359"><ele>775.0</ele><time>2026-04-27T09:29:29.179Z</time></trkpt><trkpt lat="39.5780321" lon="21.0694919"><ele>775.0</ele><time>2026-04-27T09:29:30.179Z</time></trkpt><trkpt lat="39.5779357" lon="21.0693373"><ele>775.0</ele><time>2026-04-27T09:29:31.178Z</time></trkpt><trkpt lat="39.5778184" lon="21.069181"><ele>775.0</ele><time>2026-04-27T09:29:32.178Z</time></trkpt><trkpt lat="39.5776933" lon="21.0690405"><ele>772.6666666666666</ele><time>2026-04-27T09:29:33.179Z</time></trkpt><trkpt lat="39.5775693" lon="21.0688996"><ele>770.3333333333333</ele><time>2026-04-27T09:29:34.178Z</time></trkpt><trkpt lat="39.5774628" lon="21.0687543"><ele>768.0</ele><time>2026-04-27T09:29:35.179Z</time></trkpt><trkpt lat="39.5773852" lon="21.0686006"><ele>768.0</ele><time>2026-04-27T09:29:36.179Z</time></trkpt><trkpt lat="39.5773361" lon="21.0684425"><ele>768.0</ele><time>2026-04-27T09:29:37.178Z</time></trkpt><trkpt lat="39.5773038" lon="21.0682881"><ele>768.0</ele><time>2026-04-27T09:29:38.179Z</time></trkpt><trkpt lat="39.5772737" lon="21.0681499"><ele>768.0</ele><time>2026-04-27T09:29:39.179Z</time></trkpt><trkpt lat="39.577239" lon="21.0680344"><ele>768.5999999999999</ele><time>2026-04-27T09:29:40.179Z</time></trkpt><trkpt lat="39.5771698" lon="21.0679625"><ele>769.1999999999999</ele><time>2026-04-27T09:29:41.178Z</time></trkpt><trkpt lat="39.5770854" lon="21.0679457"><ele>769.8</ele><time>2026-04-27T09:29:42.178Z</time></trkpt><trkpt lat="39.5769867" lon="21.0679748"><ele>770.4</ele><time>2026-04-27T09:29:43.179Z</time></trkpt><trkpt lat="39.576875" lon="21.0680521"><ele>771.0</ele><time>2026-04-27T09:29:44.178Z</time></trkpt><trkpt lat="39.5767675" lon="21.0681314"><ele>771.0</ele><time>2026-04-27T09:29:45.178Z</time></trkpt><trkpt lat="39.5766708" lon="21.0682073"><ele>771.0</ele><time>2026-04-27T09:29:46.179Z</time></trkpt><trkpt lat="39.5765621" lon="21.0682696"><ele>771.0</ele><time>2026-04-27T09:29:47.179Z</time></trkpt><trkpt lat="39.5764496" lon="21.0683092"><ele>771.0</ele><time>2026-04-27T09:29:48.178Z</time></trkpt><trkpt lat="39.5763309" lon="21.068286"><ele>771.0</ele><time>2026-04-27T09:29:49.178Z</time></trkpt><trkpt lat="39.5762122" lon="21.0682599"><ele>771.0</ele><time>2026-04-27T09:29:50.179Z</time></trkpt><trkpt lat="39.5760955" lon="21.0682322"><ele>771.0</ele><time>2026-04-27T09:29:51.179Z</time></trkpt><trkpt lat="39.5759885" lon="21.0681976"><ele>771.0</ele><time>2026-04-27T09:29:52.178Z</time></trkpt><trkpt lat="39.5758897" lon="21.06815"><ele>767.8</ele><time>2026-04-27T09:29:53.179Z</time></trkpt><trkpt lat="39.5758106" lon="21.0680839"><ele>764.5999999999999</ele><time>2026-04-27T09:29:54.179Z</time></trkpt><trkpt lat="39.5757658" lon="21.0679943"><ele>761.4</ele><time>2026-04-27T09:29:55.178Z</time></trkpt><trkpt lat="39.5757562" lon="21.0678866"><ele>758.2</ele><time>2026-04-27T09:29:56.179Z</time></trkpt><trkpt lat="39.5757671" lon="21.0677729"><ele>755.0</ele><time>2026-04-27T09:29:57.178Z</time></trkpt><trkpt lat="39.5758336" lon="21.0676108"><ele>755.0</ele><time>2026-04-27T09:29:58.179Z</time></trkpt><trkpt lat="39.5759028" lon="21.0674734"><ele>755.0</ele><time>2026-04-27T09:29:59.179Z</time></trkpt><trkpt lat="39.5759632" lon="21.0673458"><ele>755.0</ele><time>2026-04-27T09:30:00.179Z</time></trkpt><trkpt lat="39.5760168" lon="21.0671967"><ele>755.0</ele><time>2026-04-27T09:30:01.179Z</time></trkpt><trkpt lat="39.5760125" lon="21.0670318"><ele>755.0</ele><time>2026-04-27T09:30:02.179Z</time></trkpt><trkpt lat="39.5760201" lon="21.0668556"><ele>755.0</ele><time>2026-04-27T09:30:03.179Z</time></trkpt><trkpt lat="39.5760255" lon="21.0666723"><ele>755.0</ele><time>2026-04-27T09:30:04.178Z</time></trkpt><trkpt lat="39.57606" lon="21.0664922"><ele>755.0</ele><time>2026-04-27T09:30:05.179Z</time></trkpt><trkpt lat="39.5760835" lon="21.0663195"><ele>754.5</ele><time>2026-04-27T09:30:06.179Z</time></trkpt><trkpt lat="39.5761516" lon="21.0661683"><ele>754.0</ele><time>2026-04-27T09:30:07.178Z</time></trkpt><trkpt lat="39.5762428" lon="21.0660447"><ele>753.5</ele><time>2026-04-27T09:30:08.179Z</time></trkpt><trkpt lat="39.5763447" lon="21.0659231"><ele>753.0</ele><time>2026-04-27T09:30:09.178Z</time></trkpt><trkpt lat="39.5764086" lon="21.0658015"><ele>757.5</ele><time>2026-04-27T09:30:10.179Z</time></trkpt><trkpt lat="39.5764383" lon="21.0656581"><ele>762.0</ele><time>2026-04-27T09:30:11.179Z</time></trkpt><trkpt lat="39.5764288" lon="21.0654966"><ele>766.5</ele><time>2026-04-27T09:30:12.178Z</time></trkpt><trkpt lat="39.5764252" lon="21.0653335"><ele>771.0</ele><time>2026-04-27T09:30:13.178Z</time></trkpt><trkpt lat="39.5764479" lon="21.0651609"><ele>771.0</ele><time>2026-04-27T09:30:14.179Z</time></trkpt><trkpt lat="39.5765008" lon="21.0649788"><ele>771.0</ele><time>2026-04-27T09:30:15.179Z</time></trkpt><trkpt lat="39.5765822" lon="21.0648085"><ele>771.0</ele><time>2026-04-27T09:30:16.178Z</time></trkpt><trkpt lat="39.5766485" lon="21.0646134"><ele>771.0</ele><time>2026-04-27T09:30:17.178Z</time></trkpt><trkpt lat="39.5767036" lon="21.0644362"><ele>771.0</ele><time>2026-04-27T09:30:18.178Z</time></trkpt><trkpt lat="39.5767479" lon="21.0642672"><ele>771.0</ele><time>2026-04-27T09:30:19.178Z</time></trkpt><trkpt lat="39.5767785" lon="21.0641186"><ele>771.0</ele><time>2026-04-27T09:30:20.178Z</time></trkpt><trkpt lat="39.5767779" lon="21.0639829"><ele>772.75</ele><time>2026-04-27T09:30:21.179Z</time></trkpt><trkpt lat="39.5767228" lon="21.0638547"><ele>774.5</ele><time>2026-04-27T09:30:22.178Z</time></trkpt><trkpt lat="39.5766343" lon="21.0637211"><ele>776.25</ele><time>2026-04-27T09:30:23.178Z</time></trkpt><trkpt lat="39.5765681" lon="21.0635906"><ele>778.0</ele><time>2026-04-27T09:30:24.178Z</time></trkpt><trkpt lat="39.5765241" lon="21.0634524"><ele>778.0</ele><time>2026-04-27T09:30:25.178Z</time></trkpt><trkpt lat="39.5765074" lon="21.0632969"><ele>778.0</ele><time>2026-04-27T09:30:26.178Z</time></trkpt><trkpt lat="39.576555" lon="21.0631189"><ele>778.0</ele><time>2026-04-27T09:30:27.179Z</time></trkpt><trkpt lat="39.5765917" lon="21.0629534"><ele>778.0</ele><time>2026-04-27T09:30:28.178Z</time></trkpt><trkpt lat="39.5766536" lon="21.0627886"><ele>776.5</ele><time>2026-04-27T09:30:29.179Z</time></trkpt><trkpt lat="39.5767255" lon="21.0626382"><ele>775.0</ele><time>2026-04-27T09:30:30.178Z</time></trkpt><trkpt lat="39.5768228" lon="21.0624981"><ele>773.5</ele><time>2026-04-27T09:30:31.178Z</time></trkpt><trkpt lat="39.5769595" lon="21.0623833"><ele>772.0</ele><time>2026-04-27T09:30:32.178Z</time></trkpt><trkpt lat="39.5771148" lon="21.0622692"><ele>772.0</ele><time>2026-04-27T09:30:33.179Z</time></trkpt><trkpt lat="39.5772687" lon="21.0621511"><ele>772.0</ele><time>2026-04-27T09:30:34.178Z</time></trkpt><trkpt lat="39.5774237" lon="21.0620284"><ele>772.0</ele><time>2026-04-27T09:30:35.179Z</time></trkpt><trkpt lat="39.5775848" lon="21.0619068"><ele>772.0</ele><time>2026-04-27T09:30:36.179Z</time></trkpt><trkpt lat="39.5777404" lon="21.0617796"><ele>772.0</ele><time>2026-04-27T09:30:37.178Z</time></trkpt><trkpt lat="39.5778828" lon="21.0616283"><ele>772.0</ele><time>2026-04-27T09:30:38.178Z</time></trkpt><trkpt lat="39.5780206" lon="21.0614652"><ele>776.3333333333333</ele><time>2026-04-27T09:30:39.179Z</time></trkpt><trkpt lat="39.5781361" lon="21.0613053"><ele>780.6666666666667</ele><time>2026-04-27T09:30:40.178Z</time></trkpt><trkpt lat="39.5782304" lon="21.0611565"><ele>785.0</ele><time>2026-04-27T09:30:41.178Z</time></trkpt><trkpt lat="39.5783047" lon="21.0610044"><ele>785.0</ele><time>2026-04-27T09:30:42.179Z</time></trkpt><trkpt lat="39.5783568" lon="21.060863"><ele>785.0</ele><time>2026-04-27T09:30:43.178Z</time></trkpt><trkpt lat="39.5784014" lon="21.060758"><ele>785.0</ele><time>2026-04-27T09:30:44.179Z</time></trkpt><trkpt lat="39.5784618" lon="21.0607234"><ele>785.0</ele><time>2026-04-27T09:30:45.178Z</time></trkpt><trkpt lat="39.5785193" lon="21.06079"><ele>785.0</ele><time>2026-04-27T09:30:46.179Z</time></trkpt><trkpt lat="39.5785215" lon="21.0609804"><ele>785.0</ele><time>2026-04-27T09:30:48.178Z</time></trkpt><trkpt lat="39.578473" lon="21.0611237"><ele>785.0</ele><time>2026-04-27T09:30:49.179Z</time></trkpt><trkpt lat="39.5783943" lon="21.0613091"><ele>785.0</ele><time>2026-04-27T09:30:50.179Z</time></trkpt><trkpt lat="39.5783011" lon="21.0614902"><ele>792.0</ele><time>2026-04-27T09:30:51.178Z</time></trkpt><trkpt lat="39.5781823" lon="21.0616821"><ele>799.0</ele><time>2026-04-27T09:30:52.178Z</time></trkpt><trkpt lat="39.5780572" lon="21.0618686"><ele>806.0</ele><time>2026-04-27T09:30:53.179Z</time></trkpt><trkpt lat="39.5779405" lon="21.0620176"><ele>803.0</ele><time>2026-04-27T09:30:54.178Z</time></trkpt><trkpt lat="39.5778272" lon="21.0621511"><ele>800.0</ele><time>2026-04-27T09:30:55.179Z</time></trkpt><trkpt lat="39.5777169" lon="21.0622695"><ele>797.0</ele><time>2026-04-27T09:30:56.179Z</time></trkpt><trkpt lat="39.5776138" lon="21.062368"><ele>794.0</ele><time>2026-04-27T09:30:57.179Z</time></trkpt><trkpt lat="39.577525" lon="21.062455"><ele>794.0</ele><time>2026-04-27T09:30:58.179Z</time></trkpt><trkpt lat="39.5774501" lon="21.062531"><ele>794.0</ele><time>2026-04-27T09:30:59.178Z</time></trkpt><trkpt lat="39.5774073" lon="21.062607"><ele>794.0</ele><time>2026-04-27T09:31:00.178Z</time></trkpt><trkpt lat="39.5774287" lon="21.0627424"><ele>794.0</ele><time>2026-04-27T09:31:02.178Z</time></trkpt><trkpt lat="39.5775539" lon="21.0627262"><ele>794.0</ele><time>2026-04-27T09:31:04.179Z</time></trkpt><trkpt lat="39.5776425" lon="21.062679"><ele>794.0</ele><time>2026-04-27T09:31:05.179Z</time></trkpt><trkpt lat="39.5777593" lon="21.0624979"><ele>794.0</ele><time>2026-04-27T09:31:06.178Z</time></trkpt><trkpt lat="39.5778848" lon="21.0623663"><ele>794.0</ele><time>2026-04-27T09:31:07.179Z</time></trkpt><trkpt lat="39.5780338" lon="21.0622349"><ele>798.0</ele><time>2026-04-27T09:31:08.179Z</time></trkpt><trkpt lat="39.5781715" lon="21.0620959"><ele>802.0</ele><time>2026-04-27T09:31:09.178Z</time></trkpt><trkpt lat="39.578299" lon="21.0619466"><ele>806.0</ele><time>2026-04-27T09:31:10.179Z</time></trkpt><trkpt lat="39.578413" lon="21.06179"><ele>806.0</ele><time>2026-04-27T09:31:11.178Z</time></trkpt><trkpt lat="39.578498" lon="21.0616352"><ele>806.0</ele><time>2026-04-27T09:31:12.179Z</time></trkpt><trkpt lat="39.5785839" lon="21.0615011"><ele>806.0</ele><time>2026-04-27T09:31:13.178Z</time></trkpt><trkpt lat="39.5786793" lon="21.0613778"><ele>806.0</ele><time>2026-04-27T09:31:14.178Z</time></trkpt><trkpt lat="39.5787926" lon="21.0612769"><ele>804.0</ele><time>2026-04-27T09:31:15.178Z</time></trkpt><trkpt lat="39.578932" lon="21.0612402"><ele>802.0</ele><time>2026-04-27T09:31:16.178Z</time></trkpt><trkpt lat="39.5790902" lon="21.0611882"><ele>800.0</ele><time>2026-04-27T09:31:17.179Z</time></trkpt><trkpt lat="39.5792721" lon="21.0611821"><ele>800.0</ele><time>2026-04-27T09:31:18.179Z</time></trkpt><trkpt lat="39.579452" lon="21.0611701"><ele>800.0</ele><time>2026-04-27T09:31:19.179Z</time></trkpt><trkpt lat="39.5796226" lon="21.0611643"><ele>800.0</ele><time>2026-04-27T09:31:20.178Z</time></trkpt><trkpt lat="39.5797803" lon="21.0611783"><ele>801.75</ele><time>2026-04-27T09:31:21.179Z</time></trkpt><trkpt lat="39.5799222" lon="21.0611907"><ele>803.5</ele><time>2026-04-27T09:31:22.179Z</time></trkpt><trkpt lat="39.5800487" lon="21.0611696"><ele>805.25</ele><time>2026-04-27T09:31:23.178Z</time></trkpt><trkpt lat="39.5801555" lon="21.0611037"><ele>807.0</ele><time>2026-04-27T09:31:24.179Z</time></trkpt><trkpt lat="39.580238" lon="21.0609902"><ele>807.0</ele><time>2026-04-27T09:31:25.179Z</time></trkpt><trkpt lat="39.5803202" lon="21.0608716"><ele>807.0</ele><time>2026-04-27T09:31:26.178Z</time></trkpt><trkpt lat="39.58041" lon="21.0607528"><ele>807.0</ele><time>2026-04-27T09:31:27.179Z</time></trkpt><trkpt lat="39.5805252" lon="21.0606749"><ele>807.0</ele><time>2026-04-27T09:31:28.178Z</time></trkpt><trkpt lat="39.5806699" lon="21.060642"><ele>805.0</ele><time>2026-04-27T09:31:29.178Z</time></trkpt><trkpt lat="39.5808329" lon="21.0606487"><ele>803.0</ele><time>2026-04-27T09:31:30.179Z</time></trkpt><trkpt lat="39.5810134" lon="21.060677"><ele>801.0</ele><time>2026-04-27T09:31:31.178Z</time></trkpt><trkpt lat="39.5811985" lon="21.06071"><ele>801.0</ele><time>2026-04-27T09:31:32.179Z</time></trkpt><trkpt lat="39.5814003" lon="21.0607135"><ele>801.0</ele><time>2026-04-27T09:31:33.178Z</time></trkpt><trkpt lat="39.5815922" lon="21.0606946"><ele>801.0</ele><time>2026-04-27T09:31:34.179Z</time></trkpt><trkpt lat="39.581765" lon="21.0606832"><ele>801.0</ele><time>2026-04-27T09:31:35.179Z</time></trkpt><trkpt lat="39.5819234" lon="21.0606808"><ele>801.0</ele><time>2026-04-27T09:31:36.179Z</time></trkpt><trkpt lat="39.5820602" lon="21.060682"><ele>801.0</ele><time>2026-04-27T09:31:37.178Z</time></trkpt><trkpt lat="39.582172" lon="21.0606758"><ele>801.0</ele><time>2026-04-27T09:31:38.179Z</time></trkpt><trkpt lat="39.5822688" lon="21.0606441"><ele>805.4</ele><time>2026-04-27T09:31:39.179Z</time></trkpt><trkpt lat="39.5823475" lon="21.0605785"><ele>809.8</ele><time>2026-04-27T09:31:40.178Z</time></trkpt><trkpt lat="39.5823954" lon="21.0604658"><ele>814.1999999999999</ele><time>2026-04-27T09:31:41.178Z</time></trkpt><trkpt lat="39.5824369" lon="21.0603278"><ele>818.5999999999999</ele><time>2026-04-27T09:31:42.178Z</time></trkpt><trkpt lat="39.5824664" lon="21.0601977"><ele>823.0</ele><time>2026-04-27T09:31:43.178Z</time></trkpt><trkpt lat="39.5824931" lon="21.0600666"><ele>823.0</ele><time>2026-04-27T09:31:44.179Z</time></trkpt><trkpt lat="39.5826037" lon="21.0599558"><ele>823.0</ele><time>2026-04-27T09:31:45.179Z</time></trkpt><trkpt lat="39.5826983" lon="21.0598234"><ele>823.0</ele><time>2026-04-27T09:31:46.179Z</time></trkpt><trkpt lat="39.5828" lon="21.0596652"><ele>823.0</ele><time>2026-04-27T09:31:47.179Z</time></trkpt><trkpt lat="39.5829188" lon="21.0595017"><ele>821.25</ele><time>2026-04-27T09:31:48.178Z</time></trkpt><trkpt lat="39.5830423" lon="21.0593528"><ele>819.5</ele><time>2026-04-27T09:31:49.179Z</time></trkpt><trkpt lat="39.5831611" lon="21.0592408"><ele>817.75</ele><time>2026-04-27T09:31:50.178Z</time></trkpt><trkpt lat="39.5832838" lon="21.0591738"><ele>816.0</ele><time>2026-04-27T09:31:51.178Z</time></trkpt><trkpt lat="39.5833965" lon="21.0591654"><ele>816.0</ele><time>2026-04-27T09:31:52.179Z</time></trkpt><trkpt lat="39.5835085" lon="21.0592009"><ele>816.0</ele><time>2026-04-27T09:31:53.179Z</time></trkpt><trkpt lat="39.5836109" lon="21.0592893"><ele>816.0</ele><time>2026-04-27T09:31:54.179Z</time></trkpt><trkpt lat="39.583722" lon="21.0593894"><ele>816.0</ele><time>2026-04-27T09:31:55.179Z</time></trkpt><trkpt lat="39.5838206" lon="21.0594952"><ele>811.25</ele><time>2026-04-27T09:31:56.179Z</time></trkpt><trkpt lat="39.5839235" lon="21.0595975"><ele>806.5</ele><time>2026-04-27T09:31:57.179Z</time></trkpt><trkpt lat="39.584012" lon="21.0597084"><ele>801.75</ele><time>2026-04-27T09:31:58.178Z</time></trkpt><trkpt lat="39.5840691" lon="21.0598127"><ele>797.0</ele><time>2026-04-27T09:31:59.178Z</time></trkpt><trkpt lat="39.5841149" lon="21.0599352"><ele>805.5</ele><time>2026-04-27T09:32:00.179Z</time></trkpt><trkpt lat="39.584157" lon="21.0600614"><ele>814.0</ele><time>2026-04-27T09:32:01.179Z</time></trkpt><trkpt lat="39.5841892" lon="21.0602112"><ele>822.5</ele><time>2026-04-27T09:32:02.178Z</time></trkpt><trkpt lat="39.5842108" lon="21.0603707"><ele>831.0</ele><time>2026-04-27T09:32:03.179Z</time></trkpt><trkpt lat="39.5842533" lon="21.0605007"><ele>831.0</ele><time>2026-04-27T09:32:04.179Z</time></trkpt><trkpt lat="39.5843239" lon="21.0606076"><ele>831.0</ele><time>2026-04-27T09:32:05.178Z</time></trkpt><trkpt lat="39.5844015" lon="21.0607209"><ele>831.0</ele><time>2026-04-27T09:32:06.178Z</time></trkpt><trkpt lat="39.5845008" lon="21.0608469"><ele>831.0</ele><time>2026-04-27T09:32:07.179Z</time></trkpt><trkpt lat="39.5846225" lon="21.0609863"><ele>828.3333333333333</ele><time>2026-04-27T09:32:08.178Z</time></trkpt><trkpt lat="39.5847532" lon="21.0611194"><ele>825.6666666666666</ele><time>2026-04-27T09:32:09.179Z</time></trkpt><trkpt lat="39.5848902" lon="21.0612512"><ele>823.0</ele><time>2026-04-27T09:32:10.179Z</time></trkpt><trkpt lat="39.5850364" lon="21.0613828"><ele>823.0</ele><time>2026-04-27T09:32:11.178Z</time></trkpt><trkpt lat="39.58518" lon="21.0615131"><ele>823.0</ele><time>2026-04-27T09:32:12.179Z</time></trkpt><trkpt lat="39.5853165" lon="21.061625"><ele>823.0</ele><time>2026-04-27T09:32:13.179Z</time></trkpt><trkpt lat="39.5854574" lon="21.0617455"><ele>823.3333333333333</ele><time>2026-04-27T09:32:14.179Z</time></trkpt><trkpt lat="39.5855993" lon="21.0618345"><ele>823.6666666666667</ele><time>2026-04-27T09:32:15.179Z</time></trkpt><trkpt lat="39.5857501" lon="21.0618811"><ele>824.0</ele><time>2026-04-27T09:32:16.179Z</time></trkpt><trkpt lat="39.585901" lon="21.061916"><ele>824.0</ele><time>2026-04-27T09:32:17.179Z</time></trkpt><trkpt lat="39.5860488" lon="21.0619405"><ele>824.0</ele><time>2026-04-27T09:32:18.179Z</time></trkpt><trkpt lat="39.5861964" lon="21.061975"><ele>824.0</ele><time>2026-04-27T09:32:19.178Z</time></trkpt><trkpt lat="39.5863417" lon="21.0620392"><ele>819.25</ele><time>2026-04-27T09:32:20.179Z</time></trkpt><trkpt lat="39.5864818" lon="21.0621066"><ele>814.5</ele><time>2026-04-27T09:32:21.178Z</time></trkpt><trkpt lat="39.5866184" lon="21.062176"><ele>809.75</ele><time>2026-04-27T09:32:22.179Z</time></trkpt><trkpt lat="39.5867641" lon="21.0622268"><ele>805.0</ele><time>2026-04-27T09:32:23.179Z</time></trkpt><trkpt lat="39.5869141" lon="21.0622487"><ele>805.75</ele><time>2026-04-27T09:32:24.178Z</time></trkpt><trkpt lat="39.5870631" lon="21.06223"><ele>806.5</ele><time>2026-04-27T09:32:25.179Z</time></trkpt><trkpt lat="39.5872001" lon="21.0621869"><ele>807.25</ele><time>2026-04-27T09:32:26.179Z</time></trkpt><trkpt lat="39.5873373" lon="21.0621223"><ele>808.0</ele><time>2026-04-27T09:32:27.179Z</time></trkpt><trkpt lat="39.5874576" lon="21.0620765"><ele>808.0</ele><time>2026-04-27T09:32:28.178Z</time></trkpt><trkpt lat="39.5875855" lon="21.0620594"><ele>808.0</ele><time>2026-04-27T09:32:29.178Z</time></trkpt><trkpt lat="39.5877107" lon="21.0620589"><ele>808.0</ele><time>2026-04-27T09:32:30.179Z</time></trkpt><trkpt lat="39.5878182" lon="21.062073"><ele>808.0</ele><time>2026-04-27T09:32:31.179Z</time></trkpt><trkpt lat="39.5879287" lon="21.0620326"><ele>811.5</ele><time>2026-04-27T09:32:32.178Z</time></trkpt><trkpt lat="39.5880144" lon="21.0619472"><ele>815.0</ele><time>2026-04-27T09:32:33.179Z</time></trkpt><trkpt lat="39.5880891" lon="21.0618082"><ele>818.5</ele><time>2026-04-27T09:32:34.178Z</time></trkpt><trkpt lat="39.5881251" lon="21.0616458"><ele>822.0</ele><time>2026-04-27T09:32:35.178Z</time></trkpt><trkpt lat="39.5881548" lon="21.0614486"><ele>822.25</ele><time>2026-04-27T09:32:36.178Z</time></trkpt><trkpt lat="39.5881799" lon="21.0612697"><ele>822.5</ele><time>2026-04-27T09:32:37.178Z</time></trkpt><trkpt lat="39.5882057" lon="21.0611091"><ele>822.75</ele><time>2026-04-27T09:32:38.178Z</time></trkpt><trkpt lat="39.5882286" lon="21.0609638"><ele>823.0</ele><time>2026-04-27T09:32:39.178Z</time></trkpt><trkpt lat="39.5882523" lon="21.0608327"><ele>826.5999999999999</ele><time>2026-04-27T09:32:40.178Z</time></trkpt><trkpt lat="39.5882618" lon="21.0607082"><ele>830.1999999999999</ele><time>2026-04-27T09:32:41.178Z</time></trkpt><trkpt lat="39.5881868" lon="21.0606007"><ele>833.8</ele><time>2026-04-27T09:32:42.178Z</time></trkpt><trkpt lat="39.5881216" lon="21.0605033"><ele>837.4</ele><time>2026-04-27T09:32:43.179Z</time></trkpt><trkpt lat="39.5880257" lon="21.0604153"><ele>841.0</ele><time>2026-04-27T09:32:44.178Z</time></trkpt><trkpt lat="39.5879266" lon="21.0603239"><ele>838.1999999999999</ele><time>2026-04-27T09:32:45.179Z</time></trkpt><trkpt lat="39.5878278" lon="21.06023"><ele>835.4</ele><time>2026-04-27T09:32:46.179Z</time></trkpt><trkpt lat="39.5877424" lon="21.0601479"><ele>832.6</ele><time>2026-04-27T09:32:47.178Z</time></trkpt><trkpt lat="39.5876813" lon="21.0600736"><ele>829.8</ele><time>2026-04-27T09:32:48.179Z</time></trkpt><trkpt lat="39.5876297" lon="21.0599937"><ele>827.0</ele><time>2026-04-27T09:32:49.178Z</time></trkpt><trkpt lat="39.5875731" lon="21.0599142"><ele>827.0000000000001</ele><time>2026-04-27T09:32:50.178Z</time></trkpt><trkpt lat="39.5875125" lon="21.0598243"><ele>827.0</ele><time>2026-04-27T09:32:51.179Z</time></trkpt><trkpt lat="39.5874589" lon="21.0597295"><ele>827.0</ele><time>2026-04-27T09:32:52.178Z</time></trkpt><trkpt lat="39.5874056" lon="21.0596238"><ele>827.0</ele><time>2026-04-27T09:32:53.178Z</time></trkpt><trkpt lat="39.5873629" lon="21.0595213"><ele>827.0000000000001</ele><time>2026-04-27T09:32:54.179Z</time></trkpt><trkpt lat="39.5873293" lon="21.0594283"><ele>827.0</ele><time>2026-04-27T09:32:55.178Z</time></trkpt><trkpt lat="39.5872949" lon="21.0593384"><ele>827.0000000000001</ele><time>2026-04-27T09:32:56.179Z</time></trkpt><trkpt lat="39.587271" lon="21.0592425"><ele>827.0</ele><time>2026-04-27T09:32:57.179Z</time></trkpt><trkpt lat="39.5872648" lon="21.0591431"><ele>827.0</ele><time>2026-04-27T09:32:58.178Z</time></trkpt><trkpt lat="39.5872616" lon="21.0590328"><ele>827.0</ele><time>2026-04-27T09:32:59.178Z</time></trkpt><trkpt lat="39.5872236" lon="21.0589238"><ele>827.0000000000001</ele><time>2026-04-27T09:33:00.178Z</time></trkpt><trkpt lat="39.5871722" lon="21.0587955"><ele>827.0</ele><time>2026-04-27T09:33:01.178Z</time></trkpt><trkpt lat="39.5871029" lon="21.0586599"><ele>828.25</ele><time>2026-04-27T09:33:02.179Z</time></trkpt><trkpt lat="39.5870106" lon="21.0585432"><ele>829.5</ele><time>2026-04-27T09:33:03.178Z</time></trkpt><trkpt lat="39.5869167" lon="21.058425"><ele>830.75</ele><time>2026-04-27T09:33:04.179Z</time></trkpt><trkpt lat="39.5868294" lon="21.058314"><ele>832.0</ele><time>2026-04-27T09:33:05.179Z</time></trkpt><trkpt lat="39.5867522" lon="21.058189"><ele>832.0</ele><time>2026-04-27T09:33:06.178Z</time></trkpt><trkpt lat="39.5866914" lon="21.0580511"><ele>832.0</ele><time>2026-04-27T09:33:07.179Z</time></trkpt><trkpt lat="39.5866409" lon="21.0578956"><ele>832.0</ele><time>2026-04-27T09:33:08.178Z</time></trkpt><trkpt lat="39.5866224" lon="21.0577227"><ele>832.0</ele><time>2026-04-27T09:33:09.179Z</time></trkpt><trkpt lat="39.5866137" lon="21.0575355"><ele>833.0</ele><time>2026-04-27T09:33:10.179Z</time></trkpt><trkpt lat="39.5866048" lon="21.0573404"><ele>834.0</ele><time>2026-04-27T09:33:11.179Z</time></trkpt><trkpt lat="39.5865865" lon="21.0571533"><ele>835.0</ele><time>2026-04-27T09:33:12.179Z</time></trkpt><trkpt lat="39.5865674" lon="21.0569654"><ele>836.0</ele><time>2026-04-27T09:33:13.179Z</time></trkpt><trkpt lat="39.5865567" lon="21.0567872"><ele>836.0</ele><time>2026-04-27T09:33:14.178Z</time></trkpt><trkpt lat="39.5865254" lon="21.0566229"><ele>836.0</ele><time>2026-04-27T09:33:15.178Z</time></trkpt><trkpt lat="39.5864689" lon="21.0564862"><ele>836.0</ele><time>2026-04-27T09:33:16.179Z</time></trkpt><trkpt lat="39.5864134" lon="21.0563524"><ele>836.0</ele><time>2026-04-27T09:33:17.179Z</time></trkpt><trkpt lat="39.586331" lon="21.0562505"><ele>836.4</ele><time>2026-04-27T09:33:18.178Z</time></trkpt><trkpt lat="39.5862614" lon="21.05615"><ele>836.8</ele><time>2026-04-27T09:33:19.179Z</time></trkpt><trkpt lat="39.5862251" lon="21.0560315"><ele>837.1999999999999</ele><time>2026-04-27T09:33:20.178Z</time></trkpt><trkpt lat="39.586196" lon="21.0559198"><ele>837.5999999999999</ele><time>2026-04-27T09:33:21.178Z</time></trkpt><trkpt lat="39.5861999" lon="21.0558051"><ele>838.0</ele><time>2026-04-27T09:33:22.179Z</time></trkpt><trkpt lat="39.5862738" lon="21.0557038"><ele>833.0</ele><time>2026-04-27T09:33:23.178Z</time></trkpt><trkpt lat="39.5863599" lon="21.0556083"><ele>828.0</ele><time>2026-04-27T09:33:24.178Z</time></trkpt><trkpt lat="39.5864541" lon="21.055514"><ele>823.0</ele><time>2026-04-27T09:33:25.178Z</time></trkpt><trkpt lat="39.5865561" lon="21.0554401"><ele>818.0</ele><time>2026-04-27T09:33:26.178Z</time></trkpt><trkpt lat="39.5866669" lon="21.0553746"><ele>818.0</ele><time>2026-04-27T09:33:27.178Z</time></trkpt><trkpt lat="39.5867824" lon="21.0553238"><ele>818.0</ele><time>2026-04-27T09:33:28.178Z</time></trkpt><trkpt lat="39.5868896" lon="21.0552712"><ele>818.0</ele><time>2026-04-27T09:33:29.179Z</time></trkpt><trkpt lat="39.5869813" lon="21.0552069"><ele>818.0</ele><time>2026-04-27T09:33:30.179Z</time></trkpt><trkpt lat="39.5870639" lon="21.0551126"><ele>821.2</ele><time>2026-04-27T09:33:31.178Z</time></trkpt><trkpt lat="39.5871104" lon="21.0549924"><ele>824.4</ele><time>2026-04-27T09:33:32.178Z</time></trkpt><trkpt lat="39.5871259" lon="21.0548637"><ele>827.6</ele><time>2026-04-27T09:33:33.178Z</time></trkpt><trkpt lat="39.5871173" lon="21.0547188"><ele>830.8000000000001</ele><time>2026-04-27T09:33:34.179Z</time></trkpt><trkpt lat="39.5870982" lon="21.054565"><ele>834.0</ele><time>2026-04-27T09:33:35.178Z</time></trkpt><trkpt lat="39.5870719" lon="21.054405"><ele>834.0</ele><time>2026-04-27T09:33:36.178Z</time></trkpt><trkpt lat="39.5870933" lon="21.0542318"><ele>834.0</ele><time>2026-04-27T09:33:37.179Z</time></trkpt><trkpt lat="39.5871101" lon="21.0540571"><ele>834.0</ele><time>2026-04-27T09:33:38.179Z</time></trkpt><trkpt lat="39.5871641" lon="21.0539182"><ele>834.0</ele><time>2026-04-27T09:33:39.178Z</time></trkpt><trkpt lat="39.5872309" lon="21.0538061"><ele>831.3333333333334</ele><time>2026-04-27T09:33:40.178Z</time></trkpt><trkpt lat="39.5872835" lon="21.0537322"><ele>828.6666666666667</ele><time>2026-04-27T09:33:41.178Z</time></trkpt><trkpt lat="39.5873729" lon="21.0536997"><ele>826.0</ele><time>2026-04-27T09:33:42.179Z</time></trkpt><trkpt lat="39.5874593" lon="21.0537053"><ele>823.3333333333334</ele><time>2026-04-27T09:33:43.178Z</time></trkpt><trkpt lat="39.5875436" lon="21.0537269"><ele>820.6666666666667</ele><time>2026-04-27T09:33:44.178Z</time></trkpt><trkpt lat="39.5876195" lon="21.0537327"><ele>818.0</ele><time>2026-04-27T09:33:45.178Z</time></trkpt><trkpt lat="39.5876876" lon="21.053684"><ele>818.0000000000001</ele><time>2026-04-27T09:33:46.179Z</time></trkpt><trkpt lat="39.5877325" lon="21.0535989"><ele>818.0</ele><time>2026-04-27T09:33:47.178Z</time></trkpt><trkpt lat="39.5877679" lon="21.0534923"><ele>818.0</ele><time>2026-04-27T09:33:48.178Z</time></trkpt><trkpt lat="39.5877854" lon="21.0533722"><ele>818.0</ele><time>2026-04-27T09:33:49.178Z</time></trkpt><trkpt lat="39.5877968" lon="21.0532556"><ele>818.0000000000001</ele><time>2026-04-27T09:33:50.179Z</time></trkpt><trkpt lat="39.5878177" lon="21.0531568"><ele>818.0</ele><time>2026-04-27T09:33:51.178Z</time></trkpt><trkpt lat="39.5878511" lon="21.0530228"><ele>819.0000000000001</ele><time>2026-04-27T09:33:52.179Z</time></trkpt><trkpt lat="39.5878915" lon="21.0529366"><ele>820.0</ele><time>2026-04-27T09:33:53.179Z</time></trkpt><trkpt lat="39.5879514" lon="21.0528685"><ele>821.0</ele><time>2026-04-27T09:33:54.179Z</time></trkpt><trkpt lat="39.5880116" lon="21.0528151"><ele>822.0</ele><time>2026-04-27T09:33:55.179Z</time></trkpt><trkpt lat="39.588085" lon="21.052774"><ele>823.0000000000001</ele><time>2026-04-27T09:33:56.178Z</time></trkpt><trkpt lat="39.5881485" lon="21.0527243"><ele>824.0</ele><time>2026-04-27T09:33:57.178Z</time></trkpt><trkpt lat="39.5882044" lon="21.0526682"><ele>824.0</ele><time>2026-04-27T09:33:58.179Z</time></trkpt><trkpt lat="39.5882748" lon="21.0525779"><ele>824.0</ele><time>2026-04-27T09:34:00.179Z</time></trkpt><trkpt lat="39.5883435" lon="21.0525107"><ele>824.0</ele><time>2026-04-27T09:34:03.179Z</time></trkpt><trkpt lat="39.5884168" lon="21.0524467"><ele>824.0</ele><time>2026-04-27T09:34:51.179Z</time></trkpt><trkpt lat="39.5885009" lon="21.0524009"><ele>824.0</ele><time>2026-04-27T09:34:53.179Z</time></trkpt><trkpt lat="39.5886173" lon="21.0523832"><ele>819.1428571428571</ele><time>2026-04-27T09:34:55.178Z</time></trkpt><trkpt lat="39.5886811" lon="21.0523829"><ele>814.2857142857142</ele><time>2026-04-27T09:34:56.178Z</time></trkpt><trkpt lat="39.588746" lon="21.0523787"><ele>809.4285714285713</ele><time>2026-04-27T09:34:57.178Z</time></trkpt><trkpt lat="39.5888232" lon="21.0523662"><ele>804.5714285714286</ele><time>2026-04-27T09:34:58.179Z</time></trkpt><trkpt lat="39.5889005" lon="21.0523686"><ele>799.7142857142858</ele><time>2026-04-27T09:34:59.178Z</time></trkpt><trkpt lat="39.5889757" lon="21.0523712"><ele>794.8571428571428</ele><time>2026-04-27T09:35:00.179Z</time></trkpt><trkpt lat="39.5890569" lon="21.0523757"><ele>790.0</ele><time>2026-04-27T09:35:01.178Z</time></trkpt><trkpt lat="39.5891353" lon="21.0523567"><ele>790.0</ele><time>2026-04-27T09:35:02.178Z</time></trkpt><trkpt lat="39.5892093" lon="21.052321"><ele>790.0</ele><time>2026-04-27T09:35:03.179Z</time></trkpt><trkpt lat="39.5892709" lon="21.0522998"><ele>790.0</ele><time>2026-04-27T09:35:04.178Z</time></trkpt><trkpt lat="39.5893369" lon="21.0523027"><ele>790.0</ele><time>2026-04-27T09:35:05.179Z</time></trkpt><trkpt lat="39.5894055" lon="21.0523278"><ele>790.0</ele><time>2026-04-27T09:35:06.178Z</time></trkpt><trkpt lat="39.5894382" lon="21.0524175"><ele>790.0</ele><time>2026-04-27T09:35:07.178Z</time></trkpt><trkpt lat="39.5894898" lon="21.0524956"><ele>790.0</ele><time>2026-04-27T09:35:08.179Z</time></trkpt><trkpt lat="39.589552" lon="21.0525819"><ele>791.8333333333333</ele><time>2026-04-27T09:35:09.178Z</time></trkpt><trkpt lat="39.5896097" lon="21.0526671"><ele>793.6666666666666</ele><time>2026-04-27T09:35:10.179Z</time></trkpt><trkpt lat="39.5896763" lon="21.0527566"><ele>795.5</ele><time>2026-04-27T09:35:11.179Z</time></trkpt><trkpt lat="39.589726" lon="21.0528441"><ele>797.3333333333333</ele><time>2026-04-27T09:35:12.179Z</time></trkpt><trkpt lat="39.5897665" lon="21.052914"><ele>799.1666666666666</ele><time>2026-04-27T09:35:13.179Z</time></trkpt><trkpt lat="39.5898148" lon="21.0529783"><ele>801.0</ele><time>2026-04-27T09:35:14.178Z</time></trkpt><trkpt lat="39.5898656" lon="21.0530322"><ele>801.0</ele><time>2026-04-27T09:35:15.179Z</time></trkpt><trkpt lat="39.5899288" lon="21.0530412"><ele>801.0</ele><time>2026-04-27T09:35:16.179Z</time></trkpt><trkpt lat="39.5900039" lon="21.0530171"><ele>801.0</ele><time>2026-04-27T09:35:17.178Z</time></trkpt><trkpt lat="39.5900772" lon="21.0529675"><ele>801.0</ele><time>2026-04-27T09:35:18.178Z</time></trkpt><trkpt lat="39.5901468" lon="21.0528983"><ele>801.0</ele><time>2026-04-27T09:35:19.178Z</time></trkpt><trkpt lat="39.5902283" lon="21.0528453"><ele>801.0</ele><time>2026-04-27T09:35:20.178Z</time></trkpt><trkpt lat="39.59031" lon="21.0528114"><ele>804.3333333333334</ele><time>2026-04-27T09:35:21.179Z</time></trkpt><trkpt lat="39.5903876" lon="21.0528178"><ele>807.6666666666667</ele><time>2026-04-27T09:35:22.178Z</time></trkpt><trkpt lat="39.5904627" lon="21.0528423"><ele>811.0</ele><time>2026-04-27T09:35:23.179Z</time></trkpt><trkpt lat="39.5905189" lon="21.0528893"><ele>814.3333333333334</ele><time>2026-04-27T09:35:24.178Z</time></trkpt><trkpt lat="39.5905876" lon="21.0529287"><ele>817.6666666666667</ele><time>2026-04-27T09:35:25.178Z</time></trkpt><trkpt lat="39.5906507" lon="21.0529238"><ele>821.0</ele><time>2026-04-27T09:35:26.179Z</time></trkpt><trkpt lat="39.5907535" lon="21.0528529"><ele>821.0</ele><time>2026-04-27T09:35:28.179Z</time></trkpt><trkpt lat="39.5907941" lon="21.0527682"><ele>821.0</ele><time>2026-04-27T09:35:29.179Z</time></trkpt><trkpt lat="39.5908176" lon="21.0526568"><ele>821.0</ele><time>2026-04-27T09:35:30.179Z</time></trkpt><trkpt lat="39.5908179" lon="21.0525232"><ele>821.0</ele><time>2026-04-27T09:35:31.178Z</time></trkpt><trkpt lat="39.5908" lon="21.0523733"><ele>821.0</ele><time>2026-04-27T09:35:32.179Z</time></trkpt><trkpt lat="39.5907671" lon="21.0522053"><ele>820.5</ele><time>2026-04-27T09:35:33.178Z</time></trkpt><trkpt lat="39.5907453" lon="21.052047"><ele>820.0</ele><time>2026-04-27T09:35:34.178Z</time></trkpt><trkpt lat="39.590736" lon="21.0518819"><ele>819.5</ele><time>2026-04-27T09:35:35.179Z</time></trkpt><trkpt lat="39.5907298" lon="21.0517393"><ele>819.0</ele><time>2026-04-27T09:35:36.179Z</time></trkpt><trkpt lat="39.5907345" lon="21.051596"><ele>817.25</ele><time>2026-04-27T09:35:37.179Z</time></trkpt><trkpt lat="39.5907553" lon="21.0514508"><ele>815.5</ele><time>2026-04-27T09:35:38.179Z</time></trkpt><trkpt lat="39.590784" lon="21.051304"><ele>813.75</ele><time>2026-04-27T09:35:39.179Z</time></trkpt><trkpt lat="39.5908197" lon="21.0511549"><ele>812.0</ele><time>2026-04-27T09:35:40.179Z</time></trkpt><trkpt lat="39.590881" lon="21.0510113"><ele>812.0</ele><time>2026-04-27T09:35:41.179Z</time></trkpt><trkpt lat="39.590932" lon="21.0508878"><ele>812.0</ele><time>2026-04-27T09:35:42.178Z</time></trkpt><trkpt lat="39.5909932" lon="21.0507833"><ele>812.0</ele><time>2026-04-27T09:35:43.178Z</time></trkpt><trkpt lat="39.5910504" lon="21.050701"><ele>812.0</ele><time>2026-04-27T09:35:44.179Z</time></trkpt><trkpt lat="39.5911498" lon="21.0506853"><ele>812.0</ele><time>2026-04-27T09:35:45.179Z</time></trkpt><trkpt lat="39.5912508" lon="21.0506677"><ele>814.75</ele><time>2026-04-27T09:35:46.178Z</time></trkpt><trkpt lat="39.5913636" lon="21.0506814"><ele>817.5</ele><time>2026-04-27T09:35:47.179Z</time></trkpt><trkpt lat="39.5914743" lon="21.0507176"><ele>820.25</ele><time>2026-04-27T09:35:48.179Z</time></trkpt><trkpt lat="39.591575" lon="21.050783"><ele>823.0</ele><time>2026-04-27T09:35:49.179Z</time></trkpt><trkpt lat="39.5916729" lon="21.0508626"><ele>823.0</ele><time>2026-04-27T09:35:50.179Z</time></trkpt><trkpt lat="39.5917693" lon="21.0509492"><ele>823.0</ele><time>2026-04-27T09:35:51.179Z</time></trkpt><trkpt lat="39.5918649" lon="21.0510282"><ele>823.0</ele><time>2026-04-27T09:35:52.179Z</time></trkpt><trkpt lat="39.5919701" lon="21.0511044"><ele>823.0</ele><time>2026-04-27T09:35:53.178Z</time></trkpt><trkpt lat="39.5920785" lon="21.0511663"><ele>820.25</ele><time>2026-04-27T09:35:54.179Z</time></trkpt><trkpt lat="39.5921954" lon="21.051228"><ele>817.5</ele><time>2026-04-27T09:35:55.178Z</time></trkpt><trkpt lat="39.5923037" lon="21.0512728"><ele>814.75</ele><time>2026-04-27T09:35:56.179Z</time></trkpt><trkpt lat="39.5924151" lon="21.0512843"><ele>812.0</ele><time>2026-04-27T09:35:57.179Z</time></trkpt><trkpt lat="39.5925256" lon="21.0512882"><ele>812.0</ele><time>2026-04-27T09:35:58.178Z</time></trkpt><trkpt lat="39.592632" lon="21.0512755"><ele>812.0</ele><time>2026-04-27T09:35:59.179Z</time></trkpt><trkpt lat="39.5927373" lon="21.0512771"><ele>812.0</ele><time>2026-04-27T09:36:00.179Z</time></trkpt><trkpt lat="39.5928416" lon="21.0512861"><ele>812.0</ele><time>2026-04-27T09:36:01.179Z</time></trkpt><trkpt lat="39.5929435" lon="21.0512863"><ele>812.0</ele><time>2026-04-27T09:36:02.179Z</time></trkpt><trkpt lat="39.5930414" lon="21.0512532"><ele>811.6</ele><time>2026-04-27T09:36:03.179Z</time></trkpt><trkpt lat="39.5931343" lon="21.0511738"><ele>811.2</ele><time>2026-04-27T09:36:04.179Z</time></trkpt><trkpt lat="39.593212" lon="21.0510772"><ele>810.8</ele><time>2026-04-27T09:36:05.178Z</time></trkpt><trkpt lat="39.5932817" lon="21.0509663"><ele>810.4</ele><time>2026-04-27T09:36:06.178Z</time></trkpt><trkpt lat="39.5933619" lon="21.0508556"><ele>810.0</ele><time>2026-04-27T09:36:07.178Z</time></trkpt><trkpt lat="39.5934564" lon="21.0507518"><ele>810.0</ele><time>2026-04-27T09:36:08.178Z</time></trkpt><trkpt lat="39.5935429" lon="21.0506715"><ele>810.0</ele><time>2026-04-27T09:36:09.178Z</time></trkpt><trkpt lat="39.5936451" lon="21.0505923"><ele>810.0</ele><time>2026-04-27T09:36:10.179Z</time></trkpt><trkpt lat="39.5937589" lon="21.0506095"><ele>810.0</ele><time>2026-04-27T09:36:11.179Z</time></trkpt><trkpt lat="39.5938835" lon="21.0506284"><ele>810.8</ele><time>2026-04-27T09:36:12.179Z</time></trkpt><trkpt lat="39.5940008" lon="21.0506696"><ele>811.6</ele><time>2026-04-27T09:36:13.178Z</time></trkpt><trkpt lat="39.5941152" lon="21.0507143"><ele>812.4000000000001</ele><time>2026-04-27T09:36:14.179Z</time></trkpt><trkpt lat="39.5942091" lon="21.0507515"><ele>813.2</ele><time>2026-04-27T09:36:15.178Z</time></trkpt><trkpt lat="39.5943179" lon="21.050772"><ele>814.0</ele><time>2026-04-27T09:36:16.179Z</time></trkpt><trkpt lat="39.5944265" lon="21.0507897"><ele>819.25</ele><time>2026-04-27T09:36:17.178Z</time></trkpt><trkpt lat="39.5945318" lon="21.0508206"><ele>824.5</ele><time>2026-04-27T09:36:18.178Z</time></trkpt><trkpt lat="39.5946453" lon="21.0508483"><ele>829.75</ele><time>2026-04-27T09:36:19.179Z</time></trkpt><trkpt lat="39.5947543" lon="21.0509036"><ele>835.0</ele><time>2026-04-27T09:36:20.178Z</time></trkpt><trkpt lat="39.5948494" lon="21.050991"><ele>835.0</ele><time>2026-04-27T09:36:21.178Z</time></trkpt><trkpt lat="39.5949451" lon="21.0510747"><ele>835.0</ele><time>2026-04-27T09:36:22.179Z</time></trkpt><trkpt lat="39.5950476" lon="21.0511363"><ele>835.0</ele><time>2026-04-27T09:36:23.178Z</time></trkpt><trkpt lat="39.5951487" lon="21.0511903"><ele>835.0</ele><time>2026-04-27T09:36:24.178Z</time></trkpt><trkpt lat="39.5952536" lon="21.0512486"><ele>835.0</ele><time>2026-04-27T09:36:25.178Z</time></trkpt><trkpt lat="39.5953032" lon="21.0513788"><ele>835.0</ele><time>2026-04-27T09:36:26.179Z</time></trkpt><trkpt lat="39.5953503" lon="21.0514954"><ele>835.0</ele><time>2026-04-27T09:36:27.179Z</time></trkpt><trkpt lat="39.5954086" lon="21.0516028"><ele>835.0</ele><time>2026-04-27T09:36:28.179Z</time></trkpt><trkpt lat="39.595476" lon="21.0517153"><ele>835.0</ele><time>2026-04-27T09:36:29.178Z</time></trkpt><trkpt lat="39.5955668" lon="21.0517908"><ele>838.0</ele><time>2026-04-27T09:36:30.179Z</time></trkpt><trkpt lat="39.5956702" lon="21.051846"><ele>841.0</ele><time>2026-04-27T09:36:31.179Z</time></trkpt><trkpt lat="39.5957807" lon="21.051864"><ele>844.0</ele><time>2026-04-27T09:36:32.179Z</time></trkpt><trkpt lat="39.595892" lon="21.0518593"><ele>847.0</ele><time>2026-04-27T09:36:33.179Z</time></trkpt><trkpt lat="39.5959889" lon="21.051849"><ele>850.0</ele><time>2026-04-27T09:36:34.179Z</time></trkpt><trkpt lat="39.5960656" lon="21.0518379"><ele>850.0</ele><time>2026-04-27T09:36:35.179Z</time></trkpt><trkpt lat="39.596131" lon="21.051829"><ele>850.0</ele><time>2026-04-27T09:36:36.178Z</time></trkpt><trkpt lat="39.596195" lon="21.0518027"><ele>850.0</ele><time>2026-04-27T09:36:37.179Z</time></trkpt><trkpt lat="39.5962959" lon="21.05181"><ele>850.0</ele><time>2026-04-27T09:36:39.179Z</time></trkpt><trkpt lat="39.5962936" lon="21.0519252"><ele>850.0</ele><time>2026-04-27T09:36:41.178Z</time></trkpt><trkpt lat="39.596173" lon="21.0519879"><ele>850.0</ele><time>2026-04-27T09:36:43.179Z</time></trkpt><trkpt lat="39.596087" lon="21.0520227"><ele>850.0</ele><time>2026-04-27T09:36:44.179Z</time></trkpt><trkpt lat="39.5959889" lon="21.0520852"><ele>850.0</ele><time>2026-04-27T09:36:45.178Z</time></trkpt><trkpt lat="39.5958702" lon="21.0521716"><ele>850.0</ele><time>2026-04-27T09:36:46.178Z</time></trkpt><trkpt lat="39.5957568" lon="21.0522659"><ele>850.0</ele><time>2026-04-27T09:36:47.178Z</time></trkpt><trkpt lat="39.5956464" lon="21.0523658"><ele>850.0</ele><time>2026-04-27T09:36:48.179Z</time></trkpt><trkpt lat="39.5955373" lon="21.0524662"><ele>850.0</ele><time>2026-04-27T09:36:49.179Z</time></trkpt><trkpt lat="39.5954298" lon="21.052557"><ele>850.0</ele><time>2026-04-27T09:36:50.178Z</time></trkpt><trkpt lat="39.5953061" lon="21.0525876"><ele>855.0</ele><time>2026-04-27T09:36:51.178Z</time></trkpt><trkpt lat="39.5951913" lon="21.0526056"><ele>860.0</ele><time>2026-04-27T09:36:52.179Z</time></trkpt><trkpt lat="39.5950788" lon="21.0526116"><ele>865.0</ele><time>2026-04-27T09:36:53.178Z</time></trkpt><trkpt lat="39.5949654" lon="21.0526368"><ele>870.0</ele><time>2026-04-27T09:36:54.179Z</time></trkpt><trkpt lat="39.5948671" lon="21.0526764"><ele>875.0</ele><time>2026-04-27T09:36:55.178Z</time></trkpt><trkpt lat="39.5947909" lon="21.0527253"><ele>875.0</ele><time>2026-04-27T09:36:56.179Z</time></trkpt><trkpt lat="39.5947388" lon="21.0527895"><ele>875.0</ele><time>2026-04-27T09:36:57.179Z</time></trkpt><trkpt lat="39.5947206" lon="21.0528897"><ele>875.0</ele><time>2026-04-27T09:36:58.178Z</time></trkpt><trkpt lat="39.5947758" lon="21.0530319"><ele>875.0</ele><time>2026-04-27T09:37:00.178Z</time></trkpt><trkpt lat="39.5948565" lon="21.0530723"><ele>875.0</ele><time>2026-04-27T09:37:01.178Z</time></trkpt><trkpt lat="39.5949588" lon="21.05308"><ele>875.0</ele><time>2026-04-27T09:37:02.178Z</time></trkpt><trkpt lat="39.5950862" lon="21.0530722"><ele>875.0</ele><time>2026-04-27T09:37:03.179Z</time></trkpt><trkpt lat="39.5952363" lon="21.0530824"><ele>875.0</ele><time>2026-04-27T09:37:04.179Z</time></trkpt><trkpt lat="39.5953761" lon="21.0530935"><ele>875.0</ele><time>2026-04-27T09:37:05.179Z</time></trkpt><trkpt lat="39.5955094" lon="21.0531072"><ele>874.75</ele><time>2026-04-27T09:37:06.179Z</time></trkpt><trkpt lat="39.5956343" lon="21.0531064"><ele>874.5</ele><time>2026-04-27T09:37:07.178Z</time></trkpt><trkpt lat="39.5957565" lon="21.0530953"><ele>874.25</ele><time>2026-04-27T09:37:08.178Z</time></trkpt><trkpt lat="39.5958732" lon="21.0530903"><ele>874.0</ele><time>2026-04-27T09:37:09.179Z</time></trkpt><trkpt lat="39.5959891" lon="21.0531027"><ele>874.0</ele><time>2026-04-27T09:37:10.178Z</time></trkpt><trkpt lat="39.5961168" lon="21.0531013"><ele>874.0</ele><time>2026-04-27T09:37:11.179Z</time></trkpt><trkpt lat="39.596245" lon="21.053121"><ele>874.0</ele><time>2026-04-27T09:37:12.179Z</time></trkpt><trkpt lat="39.596368" lon="21.0531447"><ele>874.0</ele><time>2026-04-27T09:37:13.178Z</time></trkpt><trkpt lat="39.5964745" lon="21.0531799"><ele>873.0</ele><time>2026-04-27T09:37:14.179Z</time></trkpt><trkpt lat="39.5965645" lon="21.0532326"><ele>872.0000000000001</ele><time>2026-04-27T09:37:15.179Z</time></trkpt><trkpt lat="39.5966379" lon="21.0532966"><ele>871.0000000000001</ele><time>2026-04-27T09:37:16.178Z</time></trkpt><trkpt lat="39.5966654" lon="21.0533986"><ele>870.0</ele><time>2026-04-27T09:37:17.178Z</time></trkpt><trkpt lat="39.596677" lon="21.0535116"><ele>869.0</ele><time>2026-04-27T09:37:18.178Z</time></trkpt><trkpt lat="39.5966161" lon="21.0536061"><ele>876.5</ele><time>2026-04-27T09:37:19.178Z</time></trkpt><trkpt lat="39.5965428" lon="21.0536761"><ele>884.0</ele><time>2026-04-27T09:37:20.179Z</time></trkpt><trkpt lat="39.5964336" lon="21.0537293"><ele>891.5</ele><time>2026-04-27T09:37:21.178Z</time></trkpt><trkpt lat="39.5962898" lon="21.0537785"><ele>899.0</ele><time>2026-04-27T09:37:22.178Z</time></trkpt><trkpt lat="39.5961228" lon="21.0538266"><ele>899.6666666666667</ele><time>2026-04-27T09:37:23.179Z</time></trkpt><trkpt lat="39.5959598" lon="21.0538771"><ele>900.3333333333333</ele><time>2026-04-27T09:37:24.178Z</time></trkpt><trkpt lat="39.5957976" lon="21.0539171"><ele>901.0</ele><time>2026-04-27T09:37:25.179Z</time></trkpt><trkpt lat="39.5956367" lon="21.0539457"><ele>901.0</ele><time>2026-04-27T09:37:26.178Z</time></trkpt><trkpt lat="39.5954835" lon="21.0539801"><ele>901.0</ele><time>2026-04-27T09:37:27.179Z</time></trkpt><trkpt lat="39.5953305" lon="21.0540036"><ele>901.0</ele><time>2026-04-27T09:37:28.179Z</time></trkpt><trkpt lat="39.5951808" lon="21.0540321"><ele>900.5</ele><time>2026-04-27T09:37:29.178Z</time></trkpt><trkpt lat="39.5950383" lon="21.0540641"><ele>900.0</ele><time>2026-04-27T09:37:30.178Z</time></trkpt><trkpt lat="39.5949126" lon="21.0540878"><ele>899.5</ele><time>2026-04-27T09:37:31.179Z</time></trkpt><trkpt lat="39.594815" lon="21.0541232"><ele>899.0</ele><time>2026-04-27T09:37:32.178Z</time></trkpt><trkpt lat="39.5947468" lon="21.0541758"><ele>902.6666666666667</ele><time>2026-04-27T09:37:33.179Z</time></trkpt><trkpt lat="39.5947065" lon="21.0542597"><ele>906.3333333333334</ele><time>2026-04-27T09:37:34.179Z</time></trkpt><trkpt lat="39.5947036" lon="21.0543493"><ele>910.0</ele><time>2026-04-27T09:37:35.178Z</time></trkpt><trkpt lat="39.5947426" lon="21.0544287"><ele>913.6666666666667</ele><time>2026-04-27T09:37:36.178Z</time></trkpt><trkpt lat="39.5948185" lon="21.054493"><ele>917.3333333333334</ele><time>2026-04-27T09:37:37.178Z</time></trkpt><trkpt lat="39.5949254" lon="21.0545513"><ele>921.0</ele><time>2026-04-27T09:37:38.178Z</time></trkpt><trkpt lat="39.5950655" lon="21.0545815"><ele>921.0</ele><time>2026-04-27T09:37:39.179Z</time></trkpt><trkpt lat="39.595215" lon="21.0545969"><ele>921.0</ele><time>2026-04-27T09:37:40.179Z</time></trkpt><trkpt lat="39.5953758" lon="21.0546138"><ele>921.0</ele><time>2026-04-27T09:37:41.179Z</time></trkpt><trkpt lat="39.595529" lon="21.0546017"><ele>922.5</ele><time>2026-04-27T09:37:42.179Z</time></trkpt><trkpt lat="39.5956721" lon="21.0546266"><ele>924.0</ele><time>2026-04-27T09:37:43.178Z</time></trkpt><trkpt lat="39.5958172" lon="21.0546745"><ele>925.5</ele><time>2026-04-27T09:37:44.178Z</time></trkpt><trkpt lat="39.5959624" lon="21.0546974"><ele>927.0</ele><time>2026-04-27T09:37:45.178Z</time></trkpt><trkpt lat="39.5960999" lon="21.054733"><ele>927.0</ele><time>2026-04-27T09:37:46.178Z</time></trkpt><trkpt lat="39.5962188" lon="21.0547809"><ele>927.0</ele><time>2026-04-27T09:37:47.179Z</time></trkpt><trkpt lat="39.5963276" lon="21.054792"><ele>927.0</ele><time>2026-04-27T09:37:48.178Z</time></trkpt><trkpt lat="39.5964139" lon="21.0548201"><ele>927.0</ele><time>2026-04-27T09:37:49.178Z</time></trkpt><trkpt lat="39.5964869" lon="21.0548681"><ele>927.0</ele><time>2026-04-27T09:37:50.178Z</time></trkpt><trkpt lat="39.596539" lon="21.0549373"><ele>931.1666666666666</ele><time>2026-04-27T09:37:51.179Z</time></trkpt><trkpt lat="39.5965665" lon="21.0550291"><ele>935.3333333333333</ele><time>2026-04-27T09:37:52.179Z</time></trkpt><trkpt lat="39.596546" lon="21.0551073"><ele>939.5</ele><time>2026-04-27T09:37:53.178Z</time></trkpt><trkpt lat="39.5965004" lon="21.0551662"><ele>943.6666666666666</ele><time>2026-04-27T09:37:54.178Z</time></trkpt><trkpt lat="39.5964133" lon="21.0551885"><ele>947.8333333333333</ele><time>2026-04-27T09:37:55.178Z</time></trkpt><trkpt lat="39.5962975" lon="21.0551772"><ele>952.0</ele><time>2026-04-27T09:37:56.178Z</time></trkpt><trkpt lat="39.5961582" lon="21.0551676"><ele>952.0</ele><time>2026-04-27T09:37:57.178Z</time></trkpt><trkpt lat="39.596011" lon="21.0551988"><ele>952.0</ele><time>2026-04-27T09:37:58.179Z</time></trkpt><trkpt lat="39.5958622" lon="21.055269"><ele>952.0</ele><time>2026-04-27T09:37:59.178Z</time></trkpt><trkpt lat="39.5957333" lon="21.0553472"><ele>952.0</ele><time>2026-04-27T09:38:00.179Z</time></trkpt><trkpt lat="39.5956254" lon="21.0554464"><ele>952.0</ele><time>2026-04-27T09:38:01.179Z</time></trkpt><trkpt lat="39.5955424" lon="21.0555592"><ele>952.0</ele><time>2026-04-27T09:38:02.178Z</time></trkpt><trkpt lat="39.5954835" lon="21.0556916"><ele>952.0</ele><time>2026-04-27T09:38:03.179Z</time></trkpt><trkpt lat="39.5954414" lon="21.0558397"><ele>952.6</ele><time>2026-04-27T09:38:04.179Z</time></trkpt><trkpt lat="39.5954044" lon="21.0559727"><ele>953.2</ele><time>2026-04-27T09:38:05.178Z</time></trkpt><trkpt lat="39.5953641" lon="21.0560965"><ele>953.8</ele><time>2026-04-27T09:38:06.179Z</time></trkpt><trkpt lat="39.5952772" lon="21.0561652"><ele>954.4</ele><time>2026-04-27T09:38:07.178Z</time></trkpt><trkpt lat="39.5951785" lon="21.0561876"><ele>955.0</ele><time>2026-04-27T09:38:08.178Z</time></trkpt><trkpt lat="39.5950764" lon="21.0561842"><ele>954.9999999999999</ele><time>2026-04-27T09:38:09.179Z</time></trkpt><trkpt lat="39.594986" lon="21.0561537"><ele>955.0</ele><time>2026-04-27T09:38:10.178Z</time></trkpt><trkpt lat="39.59489" lon="21.0561597"><ele>955.0</ele><time>2026-04-27T09:38:11.178Z</time></trkpt><trkpt lat="39.5948167" lon="21.0562018"><ele>955.0</ele><time>2026-04-27T09:38:12.179Z</time></trkpt><trkpt lat="39.5947716" lon="21.056281"><ele>954.9999999999999</ele><time>2026-04-27T09:38:13.178Z</time></trkpt><trkpt lat="39.5947588" lon="21.0563867"><ele>955.0</ele><time>2026-04-27T09:38:14.179Z</time></trkpt><trkpt lat="39.594771" lon="21.056504"><ele>955.0</ele><time>2026-04-27T09:38:15.179Z</time></trkpt><trkpt lat="39.5948091" lon="21.0565936"><ele>955.0</ele><time>2026-04-27T09:38:16.179Z</time></trkpt><trkpt lat="39.5948827" lon="21.056671"><ele>955.0</ele><time>2026-04-27T09:38:17.178Z</time></trkpt><trkpt lat="39.5949872" lon="21.0567124"><ele>955.0</ele><time>2026-04-27T09:38:18.178Z</time></trkpt><trkpt lat="39.5951246" lon="21.0567512"><ele>955.0</ele><time>2026-04-27T09:38:19.179Z</time></trkpt><trkpt lat="39.5952699" lon="21.0567589"><ele>963.25</ele><time>2026-04-27T09:38:20.178Z</time></trkpt><trkpt lat="39.5954191" lon="21.0567498"><ele>971.5</ele><time>2026-04-27T09:38:21.179Z</time></trkpt><trkpt lat="39.5955616" lon="21.0567152"><ele>979.75</ele><time>2026-04-27T09:38:22.179Z</time></trkpt><trkpt lat="39.5957071" lon="21.0566845"><ele>988.0</ele><time>2026-04-27T09:38:23.179Z</time></trkpt><trkpt lat="39.5958355" lon="21.0566686"><ele>988.0</ele><time>2026-04-27T09:38:24.179Z</time></trkpt><trkpt lat="39.5959578" lon="21.0566398"><ele>988.0</ele><time>2026-04-27T09:38:25.179Z</time></trkpt><trkpt lat="39.5960688" lon="21.0566074"><ele>988.0</ele><time>2026-04-27T09:38:26.178Z</time></trkpt><trkpt lat="39.5961809" lon="21.0565786"><ele>988.0</ele><time>2026-04-27T09:38:27.178Z</time></trkpt><trkpt lat="39.5962937" lon="21.0565533"><ele>986.0</ele><time>2026-04-27T09:38:28.179Z</time></trkpt><trkpt lat="39.5964028" lon="21.0565158"><ele>984.0</ele><time>2026-04-27T09:38:29.179Z</time></trkpt><trkpt lat="39.5965121" lon="21.0564703"><ele>982.0</ele><time>2026-04-27T09:38:30.178Z</time></trkpt><trkpt lat="39.5966296" lon="21.0564271"><ele>980.0</ele><time>2026-04-27T09:38:31.179Z</time></trkpt><trkpt lat="39.5967548" lon="21.0563863"><ele>980.0</ele><time>2026-04-27T09:38:32.179Z</time></trkpt><trkpt lat="39.5968842" lon="21.056363"><ele>980.0</ele><time>2026-04-27T09:38:33.178Z</time></trkpt><trkpt lat="39.5970136" lon="21.0563261"><ele>980.0</ele><time>2026-04-27T09:38:34.179Z</time></trkpt><trkpt lat="39.5971235" lon="21.0562881"><ele>980.0</ele><time>2026-04-27T09:38:35.178Z</time></trkpt><trkpt lat="39.5972283" lon="21.0562487"><ele>981.6</ele><time>2026-04-27T09:38:36.178Z</time></trkpt><trkpt lat="39.5973276" lon="21.056207"><ele>983.2</ele><time>2026-04-27T09:38:37.178Z</time></trkpt><trkpt lat="39.5974223" lon="21.0561778"><ele>984.8</ele><time>2026-04-27T09:38:38.179Z</time></trkpt><trkpt lat="39.5975071" lon="21.0561534"><ele>986.4</ele><time>2026-04-27T09:38:39.178Z</time></trkpt><trkpt lat="39.5975899" lon="21.0561399"><ele>988.0</ele><time>2026-04-27T09:38:40.179Z</time></trkpt><trkpt lat="39.597679" lon="21.0561167"><ele>988.0</ele><time>2026-04-27T09:38:41.178Z</time></trkpt><trkpt lat="39.5977699" lon="21.0560877"><ele>988.0</ele><time>2026-04-27T09:38:42.179Z</time></trkpt><trkpt lat="39.597872" lon="21.0560638"><ele>988.0</ele><time>2026-04-27T09:38:43.179Z</time></trkpt><trkpt lat="39.5979808" lon="21.0560588"><ele>988.0</ele><time>2026-04-27T09:38:44.178Z</time></trkpt><trkpt lat="39.5981095" lon="21.0560669"><ele>988.0</ele><time>2026-04-27T09:38:45.179Z</time></trkpt><trkpt lat="39.598235" lon="21.0560784"><ele>989.0</ele><time>2026-04-27T09:38:46.178Z</time></trkpt><trkpt lat="39.5983596" lon="21.0560903"><ele>990.0</ele><time>2026-04-27T09:38:47.179Z</time></trkpt><trkpt lat="39.5984784" lon="21.0560995"><ele>991.0</ele><time>2026-04-27T09:38:48.179Z</time></trkpt><trkpt lat="39.598594" lon="21.0561202"><ele>992.0</ele><time>2026-04-27T09:38:49.178Z</time></trkpt><trkpt lat="39.5987204" lon="21.0561243"><ele>992.0</ele><time>2026-04-27T09:38:50.178Z</time></trkpt><trkpt lat="39.5988533" lon="21.0561127"><ele>992.0</ele><time>2026-04-27T09:38:51.179Z</time></trkpt><trkpt lat="39.5989948" lon="21.0560911"><ele>992.0</ele><time>2026-04-27T09:38:52.179Z</time></trkpt><trkpt lat="39.5991442" lon="21.0560736"><ele>992.0</ele><time>2026-04-27T09:38:53.179Z</time></trkpt><trkpt lat="39.5992972" lon="21.0560628"><ele>992.0</ele><time>2026-04-27T09:38:54.179Z</time></trkpt><trkpt lat="39.5994431" lon="21.0560444"><ele>992.0</ele><time>2026-04-27T09:38:55.179Z</time></trkpt><trkpt lat="39.5995823" lon="21.0560218"><ele>992.0</ele><time>2026-04-27T09:38:56.179Z</time></trkpt><trkpt lat="39.5997248" lon="21.0559875"><ele>992.0</ele><time>2026-04-27T09:38:57.178Z</time></trkpt><trkpt lat="39.5998638" lon="21.0559492"><ele>995.0</ele><time>2026-04-27T09:38:58.178Z</time></trkpt><trkpt lat="39.5999971" lon="21.0559108"><ele>998.0</ele><time>2026-04-27T09:38:59.178Z</time></trkpt><trkpt lat="39.6001368" lon="21.0558664"><ele>1001.0</ele><time>2026-04-27T09:39:00.179Z</time></trkpt><trkpt lat="39.6002701" lon="21.0558013"><ele>1004.0</ele><time>2026-04-27T09:39:01.179Z</time></trkpt><trkpt lat="39.6003937" lon="21.055704"><ele>1005.3333333333334</ele><time>2026-04-27T09:39:02.179Z</time></trkpt><trkpt lat="39.600511" lon="21.0555772"><ele>1006.6666666666667</ele><time>2026-04-27T09:39:03.178Z</time></trkpt><trkpt lat="39.6006189" lon="21.055415"><ele>1008.0</ele><time>2026-04-27T09:39:04.179Z</time></trkpt><trkpt lat="39.6007132" lon="21.0552509"><ele>1008.0</ele><time>2026-04-27T09:39:05.179Z</time></trkpt><trkpt lat="39.6007952" lon="21.0550937"><ele>1008.0</ele><time>2026-04-27T09:39:06.178Z</time></trkpt><trkpt lat="39.6008731" lon="21.0549472"><ele>1008.0</ele><time>2026-04-27T09:39:07.179Z</time></trkpt><trkpt lat="39.6009798" lon="21.0548121"><ele>1008.0</ele><time>2026-04-27T09:39:08.178Z</time></trkpt><trkpt lat="39.6010976" lon="21.054695"><ele>1009.75</ele><time>2026-04-27T09:39:09.178Z</time></trkpt><trkpt lat="39.6012232" lon="21.0546125"><ele>1011.5</ele><time>2026-04-27T09:39:10.179Z</time></trkpt><trkpt lat="39.6013489" lon="21.0545226"><ele>1013.25</ele><time>2026-04-27T09:39:11.179Z</time></trkpt><trkpt lat="39.6014622" lon="21.0544031"><ele>1015.0</ele><time>2026-04-27T09:39:12.179Z</time></trkpt><trkpt lat="39.601556" lon="21.0542891"><ele>1015.0</ele><time>2026-04-27T09:39:13.178Z</time></trkpt><trkpt lat="39.6016349" lon="21.0541614"><ele>1015.0</ele><time>2026-04-27T09:39:14.179Z</time></trkpt><trkpt lat="39.6016961" lon="21.054026"><ele>1015.0</ele><time>2026-04-27T09:39:15.178Z</time></trkpt><trkpt lat="39.6017448" lon="21.0538836"><ele>1015.0</ele><time>2026-04-27T09:39:16.179Z</time></trkpt><trkpt lat="39.601792" lon="21.0537392"><ele>1009.25</ele><time>2026-04-27T09:39:17.178Z</time></trkpt><trkpt lat="39.6018198" lon="21.053583"><ele>1003.5</ele><time>2026-04-27T09:39:18.179Z</time></trkpt><trkpt lat="39.6018409" lon="21.0534308"><ele>997.75</ele><time>2026-04-27T09:39:19.179Z</time></trkpt><trkpt lat="39.6018589" lon="21.0532637"><ele>992.0</ele><time>2026-04-27T09:39:20.178Z</time></trkpt><trkpt lat="39.601876" lon="21.0530932"><ele>992.0</ele><time>2026-04-27T09:39:21.178Z</time></trkpt><trkpt lat="39.6019031" lon="21.0529296"><ele>992.0</ele><time>2026-04-27T09:39:22.178Z</time></trkpt><trkpt lat="39.6019264" lon="21.0527817"><ele>992.0</ele><time>2026-04-27T09:39:23.179Z</time></trkpt><trkpt lat="39.6019623" lon="21.052641"><ele>992.0</ele><time>2026-04-27T09:39:24.178Z</time></trkpt><trkpt lat="39.6020092" lon="21.0525177"><ele>992.0</ele><time>2026-04-27T09:39:25.178Z</time></trkpt><trkpt lat="39.6021216" lon="21.0524718"><ele>992.0</ele><time>2026-04-27T09:39:26.179Z</time></trkpt><trkpt lat="39.6022274" lon="21.0524163"><ele>992.0</ele><time>2026-04-27T09:39:27.179Z</time></trkpt><trkpt lat="39.6023396" lon="21.0523832"><ele>992.0</ele><time>2026-04-27T09:39:28.179Z</time></trkpt><trkpt lat="39.6024584" lon="21.0523415"><ele>987.25</ele><time>2026-04-27T09:39:29.179Z</time></trkpt><trkpt lat="39.6025767" lon="21.0522728"><ele>982.5</ele><time>2026-04-27T09:39:30.178Z</time></trkpt><trkpt lat="39.6026862" lon="21.0521936"><ele>977.75</ele><time>2026-04-27T09:39:31.179Z</time></trkpt><trkpt lat="39.6027907" lon="21.0521105"><ele>973.0</ele><time>2026-04-27T09:39:32.178Z</time></trkpt><trkpt lat="39.602906" lon="21.052047"><ele>972.0</ele><time>2026-04-27T09:39:33.178Z</time></trkpt><trkpt lat="39.6030323" lon="21.0520113"><ele>971.0</ele><time>2026-04-27T09:39:34.179Z</time></trkpt><trkpt lat="39.6031484" lon="21.0519965"><ele>970.0</ele><time>2026-04-27T09:39:35.178Z</time></trkpt><trkpt lat="39.6032694" lon="21.0519761"><ele>969.0</ele><time>2026-04-27T09:39:36.179Z</time></trkpt><trkpt lat="39.6034" lon="21.0519559"><ele>969.0</ele><time>2026-04-27T09:39:37.179Z</time></trkpt><trkpt lat="39.6035211" lon="21.0519264"><ele>969.0</ele><time>2026-04-27T09:39:38.179Z</time></trkpt><trkpt lat="39.6036483" lon="21.0518814"><ele>969.0</ele><time>2026-04-27T09:39:39.179Z</time></trkpt><trkpt lat="39.6037718" lon="21.05182"><ele>969.0</ele><time>2026-04-27T09:39:40.178Z</time></trkpt><trkpt lat="39.6038959" lon="21.0517474"><ele>969.5</ele><time>2026-04-27T09:39:41.178Z</time></trkpt><trkpt lat="39.6040178" lon="21.0516557"><ele>970.0</ele><time>2026-04-27T09:39:42.178Z</time></trkpt><trkpt lat="39.6041369" lon="21.0515396"><ele>970.5</ele><time>2026-04-27T09:39:43.179Z</time></trkpt><trkpt lat="39.6042646" lon="21.0514255"><ele>971.0</ele><time>2026-04-27T09:39:44.179Z</time></trkpt><trkpt lat="39.6043935" lon="21.0512964"><ele>971.0</ele><time>2026-04-27T09:39:45.179Z</time></trkpt><trkpt lat="39.6045208" lon="21.0511714"><ele>971.0</ele><time>2026-04-27T09:39:46.178Z</time></trkpt><trkpt lat="39.6046451" lon="21.0510472"><ele>971.0</ele><time>2026-04-27T09:39:47.179Z</time></trkpt><trkpt lat="39.6047661" lon="21.0509248"><ele>971.0</ele><time>2026-04-27T09:39:48.179Z</time></trkpt><trkpt lat="39.6048814" lon="21.0508059"><ele>971.0</ele><time>2026-04-27T09:39:49.179Z</time></trkpt><trkpt lat="39.6049986" lon="21.0506843"><ele>971.0</ele><time>2026-04-27T09:39:50.179Z</time></trkpt><trkpt lat="39.6051119" lon="21.05057"><ele>971.0</ele><time>2026-04-27T09:39:51.178Z</time></trkpt><trkpt lat="39.6052247" lon="21.0504484"><ele>969.75</ele><time>2026-04-27T09:39:52.179Z</time></trkpt><trkpt lat="39.6053354" lon="21.0503392"><ele>968.5</ele><time>2026-04-27T09:39:53.179Z</time></trkpt><trkpt lat="39.6054479" lon="21.0502478"><ele>967.25</ele><time>2026-04-27T09:39:54.179Z</time></trkpt><trkpt lat="39.6055599" lon="21.0501762"><ele>966.0</ele><time>2026-04-27T09:39:55.179Z</time></trkpt><trkpt lat="39.6056665" lon="21.0501072"><ele>966.0</ele><time>2026-04-27T09:39:56.178Z</time></trkpt><trkpt lat="39.6057696" lon="21.0500283"><ele>966.0</ele><time>2026-04-27T09:39:57.179Z</time></trkpt><trkpt lat="39.6058688" lon="21.0499384"><ele>966.0</ele><time>2026-04-27T09:39:58.179Z</time></trkpt><trkpt lat="39.6059487" lon="21.0498124"><ele>966.0</ele><time>2026-04-27T09:39:59.179Z</time></trkpt><trkpt lat="39.6060145" lon="21.0496553"><ele>964.25</ele><time>2026-04-27T09:40:00.178Z</time></trkpt><trkpt lat="39.6060727" lon="21.0495004"><ele>962.5</ele><time>2026-04-27T09:40:01.178Z</time></trkpt><trkpt lat="39.6061419" lon="21.0493609"><ele>960.75</ele><time>2026-04-27T09:40:02.178Z</time></trkpt><trkpt lat="39.6062387" lon="21.0492501"><ele>959.0</ele><time>2026-04-27T09:40:03.179Z</time></trkpt><trkpt lat="39.6063431" lon="21.0491609"><ele>958.0</ele><time>2026-04-27T09:40:04.179Z</time></trkpt><trkpt lat="39.6064463" lon="21.0490808"><ele>957.0</ele><time>2026-04-27T09:40:05.179Z</time></trkpt><trkpt lat="39.606569" lon="21.049017"><ele>956.0</ele><time>2026-04-27T09:40:06.178Z</time></trkpt><trkpt lat="39.6067201" lon="21.0489759"><ele>955.0</ele><time>2026-04-27T09:40:07.179Z</time></trkpt><trkpt lat="39.6068854" lon="21.0489539"><ele>953.6666666666666</ele><time>2026-04-27T09:40:08.179Z</time></trkpt><trkpt lat="39.6070413" lon="21.0489582"><ele>952.3333333333333</ele><time>2026-04-27T09:40:09.179Z</time></trkpt><trkpt lat="39.6072007" lon="21.0489781"><ele>951.0</ele><time>2026-04-27T09:40:10.179Z</time></trkpt><trkpt lat="39.6073556" lon="21.048985"><ele>951.0</ele><time>2026-04-27T09:40:11.179Z</time></trkpt><trkpt lat="39.6075092" lon="21.0489853"><ele>951.0</ele><time>2026-04-27T09:40:12.178Z</time></trkpt><trkpt lat="39.6076561" lon="21.0489815"><ele>951.0</ele><time>2026-04-27T09:40:13.178Z</time></trkpt><trkpt lat="39.607795" lon="21.0489715"><ele>951.0</ele><time>2026-04-27T09:40:14.179Z</time></trkpt><trkpt lat="39.6079311" lon="21.0489524"><ele>949.0</ele><time>2026-04-27T09:40:15.178Z</time></trkpt><trkpt lat="39.6080574" lon="21.0489386"><ele>947.0</ele><time>2026-04-27T09:40:16.179Z</time></trkpt><trkpt lat="39.6081776" lon="21.048923"><ele>945.0</ele><time>2026-04-27T09:40:17.179Z</time></trkpt><trkpt lat="39.6082906" lon="21.0489"><ele>943.0</ele><time>2026-04-27T09:40:18.179Z</time></trkpt><trkpt lat="39.6083972" lon="21.0488675"><ele>942.9999999999999</ele><time>2026-04-27T09:40:19.179Z</time></trkpt><trkpt lat="39.6084999" lon="21.0488296"><ele>943.0</ele><time>2026-04-27T09:40:20.179Z</time></trkpt><trkpt lat="39.6085986" lon="21.0487896"><ele>943.0</ele><time>2026-04-27T09:40:21.178Z</time></trkpt><trkpt lat="39.6086769" lon="21.0487559"><ele>943.0</ele><time>2026-04-27T09:40:22.179Z</time></trkpt><trkpt lat="39.6087409" lon="21.0487299"><ele>942.9999999999999</ele><time>2026-04-27T09:40:23.178Z</time></trkpt><trkpt lat="39.6088126" lon="21.0487091"><ele>943.0</ele><time>2026-04-27T09:40:25.179Z</time></trkpt><trkpt lat="39.6088816" lon="21.0486869"><ele>943.0</ele><time>2026-04-27T09:40:50.178Z</time></trkpt><trkpt lat="39.6087714" lon="21.0486763"><ele>943.0</ele><time>2026-04-27T09:41:00.178Z</time></trkpt><trkpt lat="39.6086474" lon="21.0487232"><ele>943.0</ele><time>2026-04-27T09:41:02.178Z</time></trkpt><trkpt lat="39.6085856" lon="21.0487462"><ele>943.0</ele><time>2026-04-27T09:41:03.178Z</time></trkpt><trkpt lat="39.6084776" lon="21.0487879"><ele>943.0</ele><time>2026-04-27T09:41:05.178Z</time></trkpt><trkpt lat="39.6084137" lon="21.0488286"><ele>943.0</ele><time>2026-04-27T09:41:07.178Z</time></trkpt><trkpt lat="39.6083549" lon="21.0488791"><ele>943.0000000000001</ele><time>2026-04-27T09:41:38.179Z</time></trkpt><trkpt lat="39.6084211" lon="21.0488889"><ele>943.0</ele><time>2026-04-27T09:42:52.178Z</time></trkpt><trkpt lat="39.6085098" lon="21.0488577"><ele>943.0</ele><time>2026-04-27T09:42:54.179Z</time></trkpt><trkpt lat="39.6085713" lon="21.0488206"><ele>943.0000000000001</ele><time>2026-04-27T09:42:55.178Z</time></trkpt><trkpt lat="39.6086393" lon="21.0487931"><ele>943.0</ele><time>2026-04-27T09:42:56.179Z</time></trkpt><trkpt lat="39.6087099" lon="21.0487619"><ele>943.0</ele><time>2026-04-27T09:42:57.179Z</time></trkpt><trkpt lat="39.6087811" lon="21.048734"><ele>943.4999999999999</ele><time>2026-04-27T09:42:58.178Z</time></trkpt><trkpt lat="39.6088579" lon="21.048703"><ele>944.0</ele><time>2026-04-27T09:42:59.178Z</time></trkpt><trkpt lat="39.6089378" lon="21.0486701"><ele>944.5</ele><time>2026-04-27T09:43:00.178Z</time></trkpt><trkpt lat="39.609021" lon="21.0486293"><ele>945.0</ele><time>2026-04-27T09:43:01.179Z</time></trkpt><trkpt lat="39.6091092" lon="21.0485993"><ele>945.4999999999999</ele><time>2026-04-27T09:43:02.179Z</time></trkpt><trkpt lat="39.6091933" lon="21.0485578"><ele>946.0</ele><time>2026-04-27T09:43:03.178Z</time></trkpt><trkpt lat="39.6092806" lon="21.0484976"><ele>946.0</ele><time>2026-04-27T09:43:04.178Z</time></trkpt><trkpt lat="39.609374" lon="21.0484213"><ele>945.9999999999999</ele><time>2026-04-27T09:43:05.178Z</time></trkpt><trkpt lat="39.6094601" lon="21.0483566"><ele>945.9999999999999</ele><time>2026-04-27T09:43:06.178Z</time></trkpt><trkpt lat="39.6095448" lon="21.0483089"><ele>946.0</ele><time>2026-04-27T09:43:07.178Z</time></trkpt><trkpt lat="39.6096313" lon="21.0482471"><ele>946.0</ele><time>2026-04-27T09:43:08.179Z</time></trkpt><trkpt lat="39.6097118" lon="21.0481936"><ele>942.9999999999999</ele><time>2026-04-27T09:43:09.178Z</time></trkpt><trkpt lat="39.6097915" lon="21.0481303"><ele>940.0</ele><time>2026-04-27T09:43:10.179Z</time></trkpt><trkpt lat="39.6098646" lon="21.0480843"><ele>937.0</ele><time>2026-04-27T09:43:11.179Z</time></trkpt><trkpt lat="39.6099365" lon="21.0480579"><ele>934.0</ele><time>2026-04-27T09:43:12.179Z</time></trkpt><trkpt lat="39.6100143" lon="21.0480544"><ele>930.9999999999999</ele><time>2026-04-27T09:43:13.179Z</time></trkpt><trkpt lat="39.6100941" lon="21.048087"><ele>928.0</ele><time>2026-04-27T09:43:14.179Z</time></trkpt><trkpt lat="39.6101638" lon="21.0481538"><ele>928.0</ele><time>2026-04-27T09:43:15.179Z</time></trkpt><trkpt lat="39.6102385" lon="21.0482277"><ele>928.0</ele><time>2026-04-27T09:43:16.178Z</time></trkpt><trkpt lat="39.6103214" lon="21.0482932"><ele>928.0</ele><time>2026-04-27T09:43:17.178Z</time></trkpt><trkpt lat="39.6104153" lon="21.048318"><ele>928.0</ele><time>2026-04-27T09:43:18.179Z</time></trkpt><trkpt lat="39.610512" lon="21.0483123"><ele>928.0</ele><time>2026-04-27T09:43:19.178Z</time></trkpt><trkpt lat="39.6106147" lon="21.0482753"><ele>930.0</ele><time>2026-04-27T09:43:20.178Z</time></trkpt><trkpt lat="39.610706" lon="21.0482359"><ele>932.0</ele><time>2026-04-27T09:43:21.178Z</time></trkpt><trkpt lat="39.6107966" lon="21.0482096"><ele>934.0</ele><time>2026-04-27T09:43:22.178Z</time></trkpt><trkpt lat="39.6108784" lon="21.0482184"><ele>936.0</ele><time>2026-04-27T09:43:23.178Z</time></trkpt><trkpt lat="39.6109549" lon="21.0482656"><ele>938.0</ele><time>2026-04-27T09:43:24.178Z</time></trkpt><trkpt lat="39.6110179" lon="21.0483614"><ele>938.0</ele><time>2026-04-27T09:43:25.178Z</time></trkpt><trkpt lat="39.6110809" lon="21.048464"><ele>938.0</ele><time>2026-04-27T09:43:26.178Z</time></trkpt><trkpt lat="39.6111656" lon="21.0485484"><ele>938.0</ele><time>2026-04-27T09:43:27.178Z</time></trkpt><trkpt lat="39.6112551" lon="21.048606"><ele>938.0</ele><time>2026-04-27T09:43:28.178Z</time></trkpt><trkpt lat="39.6113359" lon="21.0486669"><ele>938.0</ele><time>2026-04-27T09:43:29.179Z</time></trkpt><trkpt lat="39.6114163" lon="21.048728"><ele>935.2</ele><time>2026-04-27T09:43:30.179Z</time></trkpt><trkpt lat="39.6114927" lon="21.0488121"><ele>932.4</ele><time>2026-04-27T09:43:31.179Z</time></trkpt><trkpt lat="39.6115518" lon="21.048926"><ele>929.6000000000001</ele><time>2026-04-27T09:43:32.178Z</time></trkpt><trkpt lat="39.6115993" lon="21.0490459"><ele>926.8000000000001</ele><time>2026-04-27T09:43:33.178Z</time></trkpt><trkpt lat="39.6116554" lon="21.049182"><ele>924.0</ele><time>2026-04-27T09:43:34.179Z</time></trkpt><trkpt lat="39.6117052" lon="21.0493098"><ele>924.0</ele><time>2026-04-27T09:43:35.179Z</time></trkpt><trkpt lat="39.6117481" lon="21.0494427"><ele>924.0</ele><time>2026-04-27T09:43:36.179Z</time></trkpt><trkpt lat="39.6117842" lon="21.0495853"><ele>924.0</ele><time>2026-04-27T09:43:37.179Z</time></trkpt><trkpt lat="39.6117948" lon="21.0497357"><ele>924.0</ele><time>2026-04-27T09:43:38.178Z</time></trkpt><trkpt lat="39.6118097" lon="21.0498793"><ele>926.6</ele><time>2026-04-27T09:43:39.179Z</time></trkpt><trkpt lat="39.6118316" lon="21.0500183"><ele>929.2</ele><time>2026-04-27T09:43:40.179Z</time></trkpt><trkpt lat="39.6119086" lon="21.0501223"><ele>931.8000000000001</ele><time>2026-04-27T09:43:41.179Z</time></trkpt><trkpt lat="39.611973" lon="21.0502301"><ele>934.4000000000001</ele><time>2026-04-27T09:43:42.179Z</time></trkpt><trkpt lat="39.6120399" lon="21.0503314"><ele>937.0</ele><time>2026-04-27T09:43:43.179Z</time></trkpt><trkpt lat="39.6121186" lon="21.0503945"><ele>931.8333333333333</ele><time>2026-04-27T09:43:44.179Z</time></trkpt><trkpt lat="39.6121726" lon="21.0504675"><ele>926.6666666666666</ele><time>2026-04-27T09:43:45.179Z</time></trkpt><trkpt lat="39.612222" lon="21.0505228"><ele>921.5</ele><time>2026-04-27T09:43:46.178Z</time></trkpt><trkpt lat="39.6123142" lon="21.0505497"><ele>916.3333333333333</ele><time>2026-04-27T09:43:48.179Z</time></trkpt><trkpt lat="39.6123698" lon="21.050451"><ele>911.1666666666666</ele><time>2026-04-27T09:43:51.179Z</time></trkpt><trkpt lat="39.6123275" lon="21.0503485"><ele>906.0</ele><time>2026-04-27T09:43:53.179Z</time></trkpt><trkpt lat="39.6122417" lon="21.0502526"><ele>906.0</ele><time>2026-04-27T09:43:55.179Z</time></trkpt><trkpt lat="39.6121973" lon="21.0501783"><ele>906.0</ele><time>2026-04-27T09:43:56.179Z</time></trkpt><trkpt lat="39.6121467" lon="21.0500894"><ele>906.0</ele><time>2026-04-27T09:43:57.178Z</time></trkpt><trkpt lat="39.6121077" lon="21.0499796"><ele>906.0</ele><time>2026-04-27T09:43:58.179Z</time></trkpt><trkpt lat="39.6120924" lon="21.049857"><ele>906.0</ele><time>2026-04-27T09:43:59.179Z</time></trkpt><trkpt lat="39.6121059" lon="21.0497324"><ele>906.0</ele><time>2026-04-27T09:44:00.179Z</time></trkpt><trkpt lat="39.6121323" lon="21.0496089"><ele>902.0</ele><time>2026-04-27T09:44:01.178Z</time></trkpt><trkpt lat="39.6121451" lon="21.0494732"><ele>897.9999999999999</ele><time>2026-04-27T09:44:02.178Z</time></trkpt><trkpt lat="39.6121427" lon="21.0493283"><ele>893.9999999999999</ele><time>2026-04-27T09:44:03.178Z</time></trkpt><trkpt lat="39.6121221" lon="21.0491832"><ele>890.0</ele><time>2026-04-27T09:44:04.179Z</time></trkpt><trkpt lat="39.6121081" lon="21.0490321"><ele>886.0</ele><time>2026-04-27T09:44:05.178Z</time></trkpt><trkpt lat="39.6120938" lon="21.0488862"><ele>881.0</ele><time>2026-04-27T09:44:06.179Z</time></trkpt><trkpt lat="39.6120781" lon="21.0487384"><ele>876.0</ele><time>2026-04-27T09:44:07.179Z</time></trkpt><trkpt lat="39.6120553" lon="21.0485905"><ele>871.0</ele><time>2026-04-27T09:44:08.178Z</time></trkpt><trkpt lat="39.6120266" lon="21.0484405"><ele>866.0</ele><time>2026-04-27T09:44:09.178Z</time></trkpt><trkpt lat="39.6119943" lon="21.0483003"><ele>872.75</ele><time>2026-04-27T09:44:10.179Z</time></trkpt><trkpt lat="39.6119577" lon="21.0481578"><ele>879.5</ele><time>2026-04-27T09:44:11.179Z</time></trkpt><trkpt lat="39.6119308" lon="21.048001"><ele>886.25</ele><time>2026-04-27T09:44:12.178Z</time></trkpt><trkpt lat="39.6119334" lon="21.0478385"><ele>893.0</ele><time>2026-04-27T09:44:13.179Z</time></trkpt><trkpt lat="39.6119274" lon="21.0476728"><ele>893.0</ele><time>2026-04-27T09:44:14.179Z</time></trkpt><trkpt lat="39.6119033" lon="21.0474945"><ele>893.0</ele><time>2026-04-27T09:44:15.178Z</time></trkpt><trkpt lat="39.6118726" lon="21.0473252"><ele>893.0</ele><time>2026-04-27T09:44:16.178Z</time></trkpt><trkpt lat="39.6118361" lon="21.0471597"><ele>893.0</ele><time>2026-04-27T09:44:17.178Z</time></trkpt><trkpt lat="39.6117947" lon="21.0470072"><ele>887.4</ele><time>2026-04-27T09:44:18.178Z</time></trkpt><trkpt lat="39.6117499" lon="21.0468889"><ele>881.8</ele><time>2026-04-27T09:44:19.178Z</time></trkpt><trkpt lat="39.6116933" lon="21.0467855"><ele>876.2</ele><time>2026-04-27T09:44:20.178Z</time></trkpt><trkpt lat="39.6116125" lon="21.046706"><ele>870.6</ele><time>2026-04-27T09:44:21.178Z</time></trkpt><trkpt lat="39.6115309" lon="21.0466233"><ele>865.0</ele><time>2026-04-27T09:44:22.178Z</time></trkpt><trkpt lat="39.6114373" lon="21.0465506"><ele>859.5</ele><time>2026-04-27T09:44:23.178Z</time></trkpt><trkpt lat="39.611303" lon="21.0464944"><ele>854.0</ele><time>2026-04-27T09:44:24.179Z</time></trkpt><trkpt lat="39.6111973" lon="21.0464365"><ele>848.5</ele><time>2026-04-27T09:44:25.179Z</time></trkpt><trkpt lat="39.6110854" lon="21.0463832"><ele>843.0</ele><time>2026-04-27T09:44:26.179Z</time></trkpt><trkpt lat="39.6109669" lon="21.046339"><ele>843.0</ele><time>2026-04-27T09:44:27.179Z</time></trkpt><trkpt lat="39.6108486" lon="21.0462897"><ele>843.0</ele><time>2026-04-27T09:44:28.178Z</time></trkpt><trkpt lat="39.6107335" lon="21.0462401"><ele>843.0</ele><time>2026-04-27T09:44:29.178Z</time></trkpt><trkpt lat="39.6106156" lon="21.0461863"><ele>843.0</ele><time>2026-04-27T09:44:30.178Z</time></trkpt><trkpt lat="39.6105147" lon="21.0461152"><ele>843.0</ele><time>2026-04-27T09:44:31.179Z</time></trkpt><trkpt lat="39.610414" lon="21.0460281"><ele>843.0</ele><time>2026-04-27T09:44:32.179Z</time></trkpt><trkpt lat="39.6103012" lon="21.0459434"><ele>843.0</ele><time>2026-04-27T09:44:33.178Z</time></trkpt><trkpt lat="39.6101903" lon="21.0458619"><ele>843.0</ele><time>2026-04-27T09:44:34.179Z</time></trkpt><trkpt lat="39.6100832" lon="21.0457751"><ele>841.5</ele><time>2026-04-27T09:44:35.178Z</time></trkpt><trkpt lat="39.6099851" lon="21.0456845"><ele>840.0</ele><time>2026-04-27T09:44:36.179Z</time></trkpt><trkpt lat="39.6098983" lon="21.0455702"><ele>838.5</ele><time>2026-04-27T09:44:37.178Z</time></trkpt><trkpt lat="39.6098228" lon="21.0454374"><ele>837.0</ele><time>2026-04-27T09:44:38.178Z</time></trkpt><trkpt lat="39.6097669" lon="21.0452876"><ele>837.0</ele><time>2026-04-27T09:44:39.179Z</time></trkpt><trkpt lat="39.6097276" lon="21.0451462"><ele>837.0</ele><time>2026-04-27T09:44:40.179Z</time></trkpt><trkpt lat="39.6096932" lon="21.0450176"><ele>837.0</ele><time>2026-04-27T09:44:41.179Z</time></trkpt><trkpt lat="39.6096549" lon="21.0449051"><ele>837.0</ele><time>2026-04-27T09:44:42.178Z</time></trkpt><trkpt lat="39.6096148" lon="21.0448215"><ele>837.0</ele><time>2026-04-27T09:44:43.179Z</time></trkpt><trkpt lat="39.6095578" lon="21.0447051"><ele>833.6666666666666</ele><time>2026-04-27T09:44:45.179Z</time></trkpt><trkpt lat="39.6095508" lon="21.0446091"><ele>830.3333333333333</ele><time>2026-04-27T09:45:01.179Z</time></trkpt><trkpt lat="39.609487" lon="21.0445992"><ele>827.0</ele><time>2026-04-27T09:45:06.179Z</time></trkpt><trkpt lat="39.6094053" lon="21.0446068"><ele>823.6666666666666</ele><time>2026-04-27T09:50:26.177Z</time></trkpt><trkpt lat="39.6093243" lon="21.0446175"><ele>820.3333333333333</ele><time>2026-04-27T09:50:28.177Z</time></trkpt><trkpt lat="39.6092526" lon="21.0446499"><ele>817.0</ele><time>2026-04-27T09:50:30.176Z</time></trkpt><trkpt lat="39.6093399" lon="21.0446363"><ele>816.9999999999999</ele><time>2026-04-27T09:51:14.177Z</time></trkpt><trkpt lat="39.609415" lon="21.0446453"><ele>817.0</ele><time>2026-04-27T09:51:17.177Z</time></trkpt><trkpt lat="39.609486" lon="21.0446667"><ele>817.0</ele><time>2026-04-27T09:51:21.177Z</time></trkpt><trkpt lat="39.6095411" lon="21.0447158"><ele>817.0</ele><time>2026-04-27T09:51:29.177Z</time></trkpt><trkpt lat="39.609603" lon="21.0448341"><ele>816.9999999999999</ele><time>2026-04-27T09:51:31.176Z</time></trkpt><trkpt lat="39.609664" lon="21.0449716"><ele>817.0</ele><time>2026-04-27T09:51:33.177Z</time></trkpt><trkpt lat="39.6096906" lon="21.0450641"><ele>821.0</ele><time>2026-04-27T09:51:34.176Z</time></trkpt><trkpt lat="39.6097327" lon="21.0451652"><ele>825.0</ele><time>2026-04-27T09:51:35.176Z</time></trkpt><trkpt lat="39.6097657" lon="21.0452718"><ele>829.0</ele><time>2026-04-27T09:51:36.176Z</time></trkpt><trkpt lat="39.6097989" lon="21.0453903"><ele>833.0</ele><time>2026-04-27T09:51:37.176Z</time></trkpt><trkpt lat="39.6098582" lon="21.0455117"><ele>837.0</ele><time>2026-04-27T09:51:38.177Z</time></trkpt><trkpt lat="39.6099296" lon="21.0456255"><ele>837.0</ele><time>2026-04-27T09:51:39.177Z</time></trkpt><trkpt lat="39.6100057" lon="21.0457255"><ele>837.0</ele><time>2026-04-27T09:51:40.176Z</time></trkpt><trkpt lat="39.6101049" lon="21.0458165"><ele>837.0</ele><time>2026-04-27T09:51:41.176Z</time></trkpt><trkpt lat="39.610224" lon="21.0459105"><ele>837.0</ele><time>2026-04-27T09:51:42.177Z</time></trkpt><trkpt lat="39.6103462" lon="21.0459982"><ele>838.5</ele><time>2026-04-27T09:51:43.176Z</time></trkpt><trkpt lat="39.6104611" lon="21.0460912"><ele>840.0</ele><time>2026-04-27T09:51:44.176Z</time></trkpt><trkpt lat="39.6105789" lon="21.0461707"><ele>841.5</ele><time>2026-04-27T09:51:45.176Z</time></trkpt><trkpt lat="39.6106994" lon="21.0462397"><ele>843.0</ele><time>2026-04-27T09:51:46.177Z</time></trkpt><trkpt lat="39.6108307" lon="21.0462984"><ele>843.0</ele><time>2026-04-27T09:51:47.176Z</time></trkpt><trkpt lat="39.6109674" lon="21.0463555"><ele>843.0</ele><time>2026-04-27T09:51:48.176Z</time></trkpt><trkpt lat="39.6110989" lon="21.0464215"><ele>843.0</ele><time>2026-04-27T09:51:49.176Z</time></trkpt><trkpt lat="39.6112334" lon="21.0464775"><ele>843.0</ele><time>2026-04-27T09:51:50.176Z</time></trkpt><trkpt lat="39.6113501" lon="21.0465442"><ele>839.8</ele><time>2026-04-27T09:51:51.176Z</time></trkpt><trkpt lat="39.6114526" lon="21.0466074"><ele>836.5999999999999</ele><time>2026-04-27T09:51:52.177Z</time></trkpt><trkpt lat="39.611543" lon="21.0466718"><ele>833.4000000000001</ele><time>2026-04-27T09:51:53.176Z</time></trkpt><trkpt lat="39.6116188" lon="21.0467447"><ele>830.2</ele><time>2026-04-27T09:51:54.177Z</time></trkpt><trkpt lat="39.6116788" lon="21.0468159"><ele>827.0</ele><time>2026-04-27T09:51:55.177Z</time></trkpt><trkpt lat="39.611729" lon="21.0469086"><ele>836.5</ele><time>2026-04-27T09:51:56.176Z</time></trkpt><trkpt lat="39.6117706" lon="21.0470218"><ele>846.0</ele><time>2026-04-27T09:51:57.177Z</time></trkpt><trkpt lat="39.6118132" lon="21.047161"><ele>855.5</ele><time>2026-04-27T09:51:58.177Z</time></trkpt><trkpt lat="39.6118516" lon="21.0473147"><ele>865.0</ele><time>2026-04-27T09:51:59.176Z</time></trkpt><trkpt lat="39.6118773" lon="21.0474805"><ele>872.0</ele><time>2026-04-27T09:52:00.176Z</time></trkpt><trkpt lat="39.6118904" lon="21.0476541"><ele>879.0</ele><time>2026-04-27T09:52:01.176Z</time></trkpt><trkpt lat="39.6118969" lon="21.0478377"><ele>886.0</ele><time>2026-04-27T09:52:02.177Z</time></trkpt><trkpt lat="39.6119122" lon="21.0480095"><ele>893.0</ele><time>2026-04-27T09:52:03.176Z</time></trkpt><trkpt lat="39.6119444" lon="21.0481931"><ele>899.6666666666667</ele><time>2026-04-27T09:52:04.177Z</time></trkpt><trkpt lat="39.6119825" lon="21.0483878"><ele>906.3333333333333</ele><time>2026-04-27T09:52:05.177Z</time></trkpt><trkpt lat="39.6120341" lon="21.0486012"><ele>913.0</ele><time>2026-04-27T09:52:06.177Z</time></trkpt><trkpt lat="39.6120669" lon="21.0488121"><ele>906.25</ele><time>2026-04-27T09:52:07.177Z</time></trkpt><trkpt lat="39.6121037" lon="21.0490224"><ele>899.5</ele><time>2026-04-27T09:52:08.176Z</time></trkpt><trkpt lat="39.6121184" lon="21.0492127"><ele>892.75</ele><time>2026-04-27T09:52:09.176Z</time></trkpt><trkpt lat="39.6121194" lon="21.0493857"><ele>886.0</ele><time>2026-04-27T09:52:10.176Z</time></trkpt><trkpt lat="39.6121067" lon="21.049531"><ele>886.0</ele><time>2026-04-27T09:52:11.176Z</time></trkpt><trkpt lat="39.6120808" lon="21.0496881"><ele>885.9999999999999</ele><time>2026-04-27T09:52:12.176Z</time></trkpt><trkpt lat="39.6120571" lon="21.0498329"><ele>885.9999999999999</ele><time>2026-04-27T09:52:13.176Z</time></trkpt><trkpt lat="39.6120692" lon="21.0499632"><ele>886.0</ele><time>2026-04-27T09:52:14.176Z</time></trkpt><trkpt lat="39.6121054" lon="21.0500906"><ele>886.0</ele><time>2026-04-27T09:52:15.176Z</time></trkpt><trkpt lat="39.6121551" lon="21.0502006"><ele>889.3333333333333</ele><time>2026-04-27T09:52:16.176Z</time></trkpt><trkpt lat="39.6122182" lon="21.0502861"><ele>892.6666666666666</ele><time>2026-04-27T09:52:17.177Z</time></trkpt><trkpt lat="39.6122778" lon="21.0503583"><ele>896.0</ele><time>2026-04-27T09:52:18.177Z</time></trkpt><trkpt lat="39.6123387" lon="21.0504615"><ele>899.3333333333333</ele><time>2026-04-27T09:52:20.176Z</time></trkpt><trkpt lat="39.6122906" lon="21.0505285"><ele>902.6666666666666</ele><time>2026-04-27T09:52:22.176Z</time></trkpt><trkpt lat="39.6122294" lon="21.0505025"><ele>906.0</ele><time>2026-04-27T09:52:23.177Z</time></trkpt><trkpt lat="39.6121542" lon="21.050448"><ele>906.0</ele><time>2026-04-27T09:52:24.176Z</time></trkpt><trkpt lat="39.6120732" lon="21.0503549"><ele>906.0</ele><time>2026-04-27T09:52:25.176Z</time></trkpt><trkpt lat="39.6119895" lon="21.0502543"><ele>906.0</ele><time>2026-04-27T09:52:26.176Z</time></trkpt><trkpt lat="39.6119146" lon="21.050143"><ele>906.0</ele><time>2026-04-27T09:52:27.176Z</time></trkpt><trkpt lat="39.6118532" lon="21.0500147"><ele>910.5</ele><time>2026-04-27T09:52:28.177Z</time></trkpt><trkpt lat="39.6118118" lon="21.0498771"><ele>915.0</ele><time>2026-04-27T09:52:29.176Z</time></trkpt><trkpt lat="39.6117838" lon="21.0497303"><ele>919.5</ele><time>2026-04-27T09:52:30.176Z</time></trkpt><trkpt lat="39.6117749" lon="21.049577"><ele>924.0</ele><time>2026-04-27T09:52:31.177Z</time></trkpt><trkpt lat="39.6117492" lon="21.0494261"><ele>924.0</ele><time>2026-04-27T09:52:32.177Z</time></trkpt><trkpt lat="39.6117012" lon="21.0492723"><ele>924.0</ele><time>2026-04-27T09:52:33.176Z</time></trkpt><trkpt lat="39.6116422" lon="21.0491178"><ele>924.0</ele><time>2026-04-27T09:52:34.176Z</time></trkpt><trkpt lat="39.6115789" lon="21.0489793"><ele>924.0</ele><time>2026-04-27T09:52:35.176Z</time></trkpt><trkpt lat="39.6114998" lon="21.0488454"><ele>921.25</ele><time>2026-04-27T09:52:36.176Z</time></trkpt><trkpt lat="39.6114071" lon="21.048744"><ele>918.5</ele><time>2026-04-27T09:52:37.176Z</time></trkpt><trkpt lat="39.6113114" lon="21.0486553"><ele>915.75</ele><time>2026-04-27T09:52:38.176Z</time></trkpt><trkpt lat="39.6111986" lon="21.0485653"><ele>913.0</ele><time>2026-04-27T09:52:39.177Z</time></trkpt><trkpt lat="39.6111009" lon="21.0484657"><ele>913.8</ele><time>2026-04-27T09:52:40.176Z</time></trkpt><trkpt lat="39.6110194" lon="21.0483595"><ele>914.5999999999999</ele><time>2026-04-27T09:52:41.176Z</time></trkpt><trkpt lat="39.6109467" lon="21.0482743"><ele>915.4000000000001</ele><time>2026-04-27T09:52:42.177Z</time></trkpt><trkpt lat="39.610869" lon="21.0482344"><ele>916.2</ele><time>2026-04-27T09:52:43.176Z</time></trkpt><trkpt lat="39.6107828" lon="21.0482191"><ele>917.0</ele><time>2026-04-27T09:52:44.177Z</time></trkpt><trkpt lat="39.6106768" lon="21.0482444"><ele>917.0</ele><time>2026-04-27T09:52:45.176Z</time></trkpt><trkpt lat="39.6105765" lon="21.0482772"><ele>917.0</ele><time>2026-04-27T09:52:46.176Z</time></trkpt><trkpt lat="39.6104797" lon="21.0483099"><ele>917.0</ele><time>2026-04-27T09:52:47.177Z</time></trkpt><trkpt lat="39.6103924" lon="21.0483208"><ele>917.0</ele><time>2026-04-27T09:52:48.177Z</time></trkpt><trkpt lat="39.6103117" lon="21.0483001"><ele>917.0</ele><time>2026-04-27T09:52:49.177Z</time></trkpt><trkpt lat="39.610241" lon="21.0482416"><ele>919.2</ele><time>2026-04-27T09:52:50.176Z</time></trkpt><trkpt lat="39.6101715" lon="21.0481693"><ele>921.4000000000001</ele><time>2026-04-27T09:52:51.177Z</time></trkpt><trkpt lat="39.6101099" lon="21.0480921"><ele>923.5999999999999</ele><time>2026-04-27T09:52:52.177Z</time></trkpt><trkpt lat="39.6100295" lon="21.0480458"><ele>925.8</ele><time>2026-04-27T09:52:53.176Z</time></trkpt><trkpt lat="39.6099473" lon="21.0480496"><ele>928.0</ele><time>2026-04-27T09:52:54.177Z</time></trkpt><trkpt lat="39.6098405" lon="21.0480897"><ele>928.0</ele><time>2026-04-27T09:52:55.177Z</time></trkpt><trkpt lat="39.6097232" lon="21.0481628"><ele>928.0</ele><time>2026-04-27T09:52:56.177Z</time></trkpt><trkpt lat="39.6095942" lon="21.0482546"><ele>928.0</ele><time>2026-04-27T09:52:57.177Z</time></trkpt><trkpt lat="39.609464" lon="21.0483523"><ele>928.0</ele><time>2026-04-27T09:52:58.176Z</time></trkpt><trkpt lat="39.6093298" lon="21.0484466"><ele>934.0</ele><time>2026-04-27T09:52:59.176Z</time></trkpt><trkpt lat="39.6091861" lon="21.0485326"><ele>940.0</ele><time>2026-04-27T09:53:00.177Z</time></trkpt><trkpt lat="39.6090413" lon="21.0486064"><ele>946.0</ele><time>2026-04-27T09:53:01.176Z</time></trkpt><trkpt lat="39.6088928" lon="21.0486675"><ele>946.0</ele><time>2026-04-27T09:53:02.176Z</time></trkpt><trkpt lat="39.6087493" lon="21.0487218"><ele>946.0</ele><time>2026-04-27T09:53:03.177Z</time></trkpt><trkpt lat="39.6086163" lon="21.0487738"><ele>946.0</ele><time>2026-04-27T09:53:04.177Z</time></trkpt><trkpt lat="39.6084939" lon="21.0488267"><ele>946.0</ele><time>2026-04-27T09:53:05.176Z</time></trkpt><trkpt lat="39.6083772" lon="21.0488749"><ele>945.25</ele><time>2026-04-27T09:53:06.177Z</time></trkpt><trkpt lat="39.6082634" lon="21.0489174"><ele>944.5</ele><time>2026-04-27T09:53:07.177Z</time></trkpt><trkpt lat="39.6081497" lon="21.0489372"><ele>943.75</ele><time>2026-04-27T09:53:08.176Z</time></trkpt><trkpt lat="39.6080343" lon="21.048932"><ele>943.0</ele><time>2026-04-27T09:53:09.177Z</time></trkpt><trkpt lat="39.60791" lon="21.0489445"><ele>945.0</ele><time>2026-04-27T09:53:10.177Z</time></trkpt><trkpt lat="39.6077819" lon="21.0489581"><ele>947.0</ele><time>2026-04-27T09:53:11.177Z</time></trkpt><trkpt lat="39.6076511" lon="21.0489653"><ele>949.0</ele><time>2026-04-27T09:53:12.177Z</time></trkpt><trkpt lat="39.6075176" lon="21.0489619"><ele>951.0</ele><time>2026-04-27T09:53:13.177Z</time></trkpt><trkpt lat="39.6073875" lon="21.0489759"><ele>951.0</ele><time>2026-04-27T09:53:14.176Z</time></trkpt><trkpt lat="39.6072518" lon="21.0489725"><ele>951.0</ele><time>2026-04-27T09:53:15.176Z</time></trkpt><trkpt lat="39.6071132" lon="21.0489641"><ele>951.0</ele><time>2026-04-27T09:53:16.177Z</time></trkpt><trkpt lat="39.6069749" lon="21.0489621"><ele>951.0</ele><time>2026-04-27T09:53:17.177Z</time></trkpt><trkpt lat="39.6068401" lon="21.0489735"><ele>952.0</ele><time>2026-04-27T09:53:18.176Z</time></trkpt><trkpt lat="39.6067083" lon="21.0490003"><ele>953.0</ele><time>2026-04-27T09:53:19.177Z</time></trkpt><trkpt lat="39.6065797" lon="21.0490261"><ele>954.0</ele><time>2026-04-27T09:53:20.176Z</time></trkpt><trkpt lat="39.6064564" lon="21.0490824"><ele>955.0</ele><time>2026-04-27T09:53:21.177Z</time></trkpt><trkpt lat="39.6063383" lon="21.0491537"><ele>954.75</ele><time>2026-04-27T09:53:22.177Z</time></trkpt><trkpt lat="39.6062296" lon="21.0492482"><ele>954.5</ele><time>2026-04-27T09:53:23.177Z</time></trkpt><trkpt lat="39.6061424" lon="21.0493555"><ele>954.25</ele><time>2026-04-27T09:53:24.176Z</time></trkpt><trkpt lat="39.6060754" lon="21.0494792"><ele>954.0</ele><time>2026-04-27T09:53:25.177Z</time></trkpt><trkpt lat="39.6060223" lon="21.0496171"><ele>954.0</ele><time>2026-04-27T09:53:26.176Z</time></trkpt><trkpt lat="39.6059701" lon="21.0497535"><ele>954.0</ele><time>2026-04-27T09:53:27.176Z</time></trkpt><trkpt lat="39.6059041" lon="21.0498716"><ele>954.0</ele><time>2026-04-27T09:53:28.177Z</time></trkpt><trkpt lat="39.6058159" lon="21.0499639"><ele>954.0</ele><time>2026-04-27T09:53:29.176Z</time></trkpt><trkpt lat="39.6057134" lon="21.0500425"><ele>954.5</ele><time>2026-04-27T09:53:30.177Z</time></trkpt><trkpt lat="39.6056041" lon="21.0501189"><ele>955.0</ele><time>2026-04-27T09:53:31.176Z</time></trkpt><trkpt lat="39.6054933" lon="21.0502028"><ele>955.5</ele><time>2026-04-27T09:53:32.177Z</time></trkpt><trkpt lat="39.6053764" lon="21.0502926"><ele>956.0</ele><time>2026-04-27T09:53:33.177Z</time></trkpt><trkpt lat="39.6052585" lon="21.0504001"><ele>956.0</ele><time>2026-04-27T09:53:34.177Z</time></trkpt><trkpt lat="39.6051445" lon="21.05052"><ele>956.0</ele><time>2026-04-27T09:53:35.176Z</time></trkpt><trkpt lat="39.6050302" lon="21.0506451"><ele>956.0</ele><time>2026-04-27T09:53:36.176Z</time></trkpt><trkpt lat="39.6049194" lon="21.0507571"><ele>956.0</ele><time>2026-04-27T09:53:37.176Z</time></trkpt><trkpt lat="39.6048078" lon="21.0508659"><ele>956.5</ele><time>2026-04-27T09:53:38.177Z</time></trkpt><trkpt lat="39.6046942" lon="21.0509752"><ele>957.0</ele><time>2026-04-27T09:53:39.177Z</time></trkpt><trkpt lat="39.6045839" lon="21.0510803"><ele>957.5</ele><time>2026-04-27T09:53:40.177Z</time></trkpt><trkpt lat="39.6044738" lon="21.0511898"><ele>958.0</ele><time>2026-04-27T09:53:41.177Z</time></trkpt><trkpt lat="39.6043668" lon="21.0512954"><ele>958.0</ele><time>2026-04-27T09:53:42.177Z</time></trkpt><trkpt lat="39.6042616" lon="21.0514039"><ele>958.0</ele><time>2026-04-27T09:53:43.177Z</time></trkpt><trkpt lat="39.6041629" lon="21.0515098"><ele>958.0</ele><time>2026-04-27T09:53:44.176Z</time></trkpt><trkpt lat="39.6040673" lon="21.0516102"><ele>958.0</ele><time>2026-04-27T09:53:45.176Z</time></trkpt><trkpt lat="39.6039686" lon="21.0517033"><ele>960.75</ele><time>2026-04-27T09:53:46.176Z</time></trkpt><trkpt lat="39.6038663" lon="21.051771"><ele>963.5</ele><time>2026-04-27T09:53:47.177Z</time></trkpt><trkpt lat="39.6037524" lon="21.0518308"><ele>966.25</ele><time>2026-04-27T09:53:48.177Z</time></trkpt><trkpt lat="39.6036528" lon="21.0518886"><ele>969.0</ele><time>2026-04-27T09:53:49.177Z</time></trkpt><trkpt lat="39.6035429" lon="21.05193"><ele>969.0</ele><time>2026-04-27T09:53:50.176Z</time></trkpt><trkpt lat="39.6034353" lon="21.051954"><ele>969.0000000000001</ele><time>2026-04-27T09:53:51.177Z</time></trkpt><trkpt lat="39.6033304" lon="21.0519657"><ele>969.0000000000001</ele><time>2026-04-27T09:53:52.176Z</time></trkpt><trkpt lat="39.6032212" lon="21.0519815"><ele>969.0</ele><time>2026-04-27T09:53:53.177Z</time></trkpt><trkpt lat="39.603121" lon="21.0520021"><ele>969.0</ele><time>2026-04-27T09:53:54.176Z</time></trkpt><trkpt lat="39.6030271" lon="21.0520165"><ele>969.0</ele><time>2026-04-27T09:53:55.176Z</time></trkpt><trkpt lat="39.6029337" lon="21.0520495"><ele>969.0</ele><time>2026-04-27T09:53:56.177Z</time></trkpt><trkpt lat="39.602826" lon="21.0521009"><ele>969.0</ele><time>2026-04-27T09:53:57.177Z</time></trkpt><trkpt lat="39.6027216" lon="21.0521775"><ele>969.0</ele><time>2026-04-27T09:53:58.177Z</time></trkpt><trkpt lat="39.6026106" lon="21.0522492"><ele>970.0</ele><time>2026-04-27T09:53:59.176Z</time></trkpt><trkpt lat="39.602493" lon="21.0523037"><ele>971.0</ele><time>2026-04-27T09:54:00.176Z</time></trkpt><trkpt lat="39.6023771" lon="21.0523481"><ele>972.0</ele><time>2026-04-27T09:54:01.176Z</time></trkpt><trkpt lat="39.6022667" lon="21.0523835"><ele>973.0</ele><time>2026-04-27T09:54:02.176Z</time></trkpt><trkpt lat="39.6021709" lon="21.0524282"><ele>973.8</ele><time>2026-04-27T09:54:03.177Z</time></trkpt><trkpt lat="39.6020846" lon="21.0524799"><ele>974.5999999999999</ele><time>2026-04-27T09:54:04.177Z</time></trkpt><trkpt lat="39.6020165" lon="21.0525553"><ele>975.4000000000001</ele><time>2026-04-27T09:54:05.176Z</time></trkpt><trkpt lat="39.6019645" lon="21.0526669"><ele>976.2</ele><time>2026-04-27T09:54:06.177Z</time></trkpt><trkpt lat="39.6019242" lon="21.0528029"><ele>977.0</ele><time>2026-04-27T09:54:07.177Z</time></trkpt><trkpt lat="39.6018972" lon="21.0529586"><ele>977.0</ele><time>2026-04-27T09:54:08.177Z</time></trkpt><trkpt lat="39.601871" lon="21.0531481"><ele>977.0</ele><time>2026-04-27T09:54:09.177Z</time></trkpt><trkpt lat="39.6018442" lon="21.0533322"><ele>977.0</ele><time>2026-04-27T09:54:10.177Z</time></trkpt><trkpt lat="39.6018117" lon="21.0535068"><ele>977.0</ele><time>2026-04-27T09:54:11.177Z</time></trkpt><trkpt lat="39.6017796" lon="21.0536684"><ele>980.0</ele><time>2026-04-27T09:54:12.176Z</time></trkpt><trkpt lat="39.6017483" lon="21.0538088"><ele>983.0</ele><time>2026-04-27T09:54:13.177Z</time></trkpt><trkpt lat="39.601712" lon="21.0539453"><ele>986.0</ele><time>2026-04-27T09:54:14.176Z</time></trkpt><trkpt lat="39.6016648" lon="21.0540722"><ele>989.0</ele><time>2026-04-27T09:54:15.176Z</time></trkpt><trkpt lat="39.6016039" lon="21.054198"><ele>992.0</ele><time>2026-04-27T09:54:16.176Z</time></trkpt><trkpt lat="39.6015291" lon="21.0543141"><ele>990.25</ele><time>2026-04-27T09:54:17.176Z</time></trkpt><trkpt lat="39.6014438" lon="21.0544176"><ele>988.5</ele><time>2026-04-27T09:54:18.177Z</time></trkpt><trkpt lat="39.6013403" lon="21.0545153"><ele>986.75</ele><time>2026-04-27T09:54:19.176Z</time></trkpt><trkpt lat="39.6012272" lon="21.0545951"><ele>985.0</ele><time>2026-04-27T09:54:20.176Z</time></trkpt><trkpt lat="39.601099" lon="21.0546671"><ele>985.0</ele><time>2026-04-27T09:54:21.177Z</time></trkpt><trkpt lat="39.6009871" lon="21.0547633"><ele>985.0</ele><time>2026-04-27T09:54:22.176Z</time></trkpt><trkpt lat="39.6008857" lon="21.0548796"><ele>985.0</ele><time>2026-04-27T09:54:23.176Z</time></trkpt><trkpt lat="39.6008014" lon="21.0550253"><ele>985.0</ele><time>2026-04-27T09:54:24.176Z</time></trkpt><trkpt lat="39.6007311" lon="21.055189"><ele>990.75</ele><time>2026-04-27T09:54:25.176Z</time></trkpt><trkpt lat="39.6006532" lon="21.0553469"><ele>996.5</ele><time>2026-04-27T09:54:26.176Z</time></trkpt><trkpt lat="39.6005636" lon="21.0554951"><ele>1002.25</ele><time>2026-04-27T09:54:27.176Z</time></trkpt><trkpt lat="39.6004664" lon="21.0556198"><ele>1008.0</ele><time>2026-04-27T09:54:28.177Z</time></trkpt><trkpt lat="39.6003567" lon="21.0557311"><ele>1007.0</ele><time>2026-04-27T09:54:29.176Z</time></trkpt><trkpt lat="39.6002299" lon="21.055817"><ele>1006.0</ele><time>2026-04-27T09:54:30.177Z</time></trkpt><trkpt lat="39.6000875" lon="21.0558772"><ele>1005.0</ele><time>2026-04-27T09:54:31.177Z</time></trkpt><trkpt lat="39.5999391" lon="21.0559373"><ele>1004.0</ele><time>2026-04-27T09:54:32.176Z</time></trkpt><trkpt lat="39.5997866" lon="21.0559894"><ele>1004.0</ele><time>2026-04-27T09:54:33.177Z</time></trkpt><trkpt lat="39.5996237" lon="21.0560256"><ele>1004.0</ele><time>2026-04-27T09:54:34.176Z</time></trkpt><trkpt lat="39.599449" lon="21.0560366"><ele>1004.0</ele><time>2026-04-27T09:54:35.176Z</time></trkpt><trkpt lat="39.599273" lon="21.0560484"><ele>1000.0</ele><time>2026-04-27T09:54:36.176Z</time></trkpt><trkpt lat="39.5990951" lon="21.056072"><ele>996.0</ele><time>2026-04-27T09:54:37.176Z</time></trkpt><trkpt lat="39.5989308" lon="21.0561064"><ele>992.0</ele><time>2026-04-27T09:54:38.177Z</time></trkpt><trkpt lat="39.5987778" lon="21.0561312"><ele>992.25</ele><time>2026-04-27T09:54:39.176Z</time></trkpt><trkpt lat="39.5986463" lon="21.0561155"><ele>992.5</ele><time>2026-04-27T09:54:40.177Z</time></trkpt><trkpt lat="39.5985168" lon="21.0561007"><ele>992.75</ele><time>2026-04-27T09:54:41.176Z</time></trkpt><trkpt lat="39.5983765" lon="21.0561009"><ele>993.0</ele><time>2026-04-27T09:54:42.177Z</time></trkpt><trkpt lat="39.5982319" lon="21.0561015"><ele>993.0</ele><time>2026-04-27T09:54:43.177Z</time></trkpt><trkpt lat="39.5980902" lon="21.0560838"><ele>993.0</ele><time>2026-04-27T09:54:44.176Z</time></trkpt><trkpt lat="39.5979669" lon="21.0560704"><ele>993.0</ele><time>2026-04-27T09:54:45.177Z</time></trkpt><trkpt lat="39.5978482" lon="21.0560894"><ele>993.0</ele><time>2026-04-27T09:54:46.177Z</time></trkpt><trkpt lat="39.5977309" lon="21.0561205"><ele>991.75</ele><time>2026-04-27T09:54:47.176Z</time></trkpt><trkpt lat="39.5976065" lon="21.0561415"><ele>990.5</ele><time>2026-04-27T09:54:48.177Z</time></trkpt><trkpt lat="39.5974785" lon="21.0561625"><ele>989.25</ele><time>2026-04-27T09:54:49.176Z</time></trkpt><trkpt lat="39.5973415" lon="21.0562087"><ele>988.0</ele><time>2026-04-27T09:54:50.176Z</time></trkpt><trkpt lat="39.5972049" lon="21.0562614"><ele>988.0</ele><time>2026-04-27T09:54:51.177Z</time></trkpt><trkpt lat="39.5970604" lon="21.0563027"><ele>988.0</ele><time>2026-04-27T09:54:52.177Z</time></trkpt><trkpt lat="39.5969134" lon="21.056341"><ele>988.0</ele><time>2026-04-27T09:54:53.176Z</time></trkpt><trkpt lat="39.5967618" lon="21.0563799"><ele>985.3333333333333</ele><time>2026-04-27T09:54:54.176Z</time></trkpt><trkpt lat="39.596596" lon="21.0564294"><ele>982.6666666666667</ele><time>2026-04-27T09:54:55.176Z</time></trkpt><trkpt lat="39.5964453" lon="21.0564764"><ele>980.0</ele><time>2026-04-27T09:54:56.177Z</time></trkpt><trkpt lat="39.5963078" lon="21.0565181"><ele>980.0</ele><time>2026-04-27T09:54:57.176Z</time></trkpt><trkpt lat="39.5961874" lon="21.0565574"><ele>980.0</ele><time>2026-04-27T09:54:58.177Z</time></trkpt><trkpt lat="39.5960601" lon="21.0565908"><ele>980.0</ele><time>2026-04-27T09:54:59.176Z</time></trkpt><trkpt lat="39.5959388" lon="21.0566135"><ele>980.0</ele><time>2026-04-27T09:55:00.176Z</time></trkpt><trkpt lat="39.5958122" lon="21.0566406"><ele>980.5</ele><time>2026-04-27T09:55:01.177Z</time></trkpt><trkpt lat="39.5956821" lon="21.056668"><ele>981.0</ele><time>2026-04-27T09:55:02.176Z</time></trkpt><trkpt lat="39.595557" lon="21.0567038"><ele>981.5</ele><time>2026-04-27T09:55:03.176Z</time></trkpt><trkpt lat="39.5954355" lon="21.0567248"><ele>982.0</ele><time>2026-04-27T09:55:04.176Z</time></trkpt><trkpt lat="39.5953135" lon="21.0567277"><ele>982.0</ele><time>2026-04-27T09:55:05.176Z</time></trkpt><trkpt lat="39.5951929" lon="21.0567144"><ele>982.0</ele><time>2026-04-27T09:55:06.177Z</time></trkpt><trkpt lat="39.595079" lon="21.0566979"><ele>982.0</ele><time>2026-04-27T09:55:07.176Z</time></trkpt><trkpt lat="39.5949693" lon="21.0566714"><ele>982.0</ele><time>2026-04-27T09:55:08.177Z</time></trkpt><trkpt lat="39.5948814" lon="21.0566315"><ele>982.0</ele><time>2026-04-27T09:55:09.176Z</time></trkpt><trkpt lat="39.5948152" lon="21.0565599"><ele>977.4999999999999</ele><time>2026-04-27T09:55:10.176Z</time></trkpt><trkpt lat="39.5947806" lon="21.0564568"><ele>973.0</ele><time>2026-04-27T09:55:11.176Z</time></trkpt><trkpt lat="39.5947721" lon="21.0563536"><ele>968.5</ele><time>2026-04-27T09:55:12.177Z</time></trkpt><trkpt lat="39.5947905" lon="21.0562582"><ele>964.0</ele><time>2026-04-27T09:55:13.177Z</time></trkpt><trkpt lat="39.5948424" lon="21.0561886"><ele>959.4999999999999</ele><time>2026-04-27T09:55:14.176Z</time></trkpt><trkpt lat="39.5949084" lon="21.0561621"><ele>955.0</ele><time>2026-04-27T09:55:15.177Z</time></trkpt><trkpt lat="39.5949946" lon="21.056174"><ele>955.0</ele><time>2026-04-27T09:55:16.176Z</time></trkpt><trkpt lat="39.5950822" lon="21.0562042"><ele>955.0</ele><time>2026-04-27T09:55:17.176Z</time></trkpt><trkpt lat="39.5951836" lon="21.0561857"><ele>955.0</ele><time>2026-04-27T09:55:18.176Z</time></trkpt><trkpt lat="39.5952728" lon="21.0561625"><ele>955.0</ele><time>2026-04-27T09:55:19.176Z</time></trkpt><trkpt lat="39.5953475" lon="21.0560969"><ele>955.0</ele><time>2026-04-27T09:55:20.177Z</time></trkpt><trkpt lat="39.5954031" lon="21.0559892"><ele>954.4</ele><time>2026-04-27T09:55:21.176Z</time></trkpt><trkpt lat="39.5954441" lon="21.0558706"><ele>953.8</ele><time>2026-04-27T09:55:22.176Z</time></trkpt><trkpt lat="39.5954795" lon="21.0557381"><ele>953.2</ele><time>2026-04-27T09:55:23.177Z</time></trkpt><trkpt lat="39.5955213" lon="21.0556068"><ele>952.6</ele><time>2026-04-27T09:55:24.177Z</time></trkpt><trkpt lat="39.595584" lon="21.0554923"><ele>952.0</ele><time>2026-04-27T09:55:25.177Z</time></trkpt><trkpt lat="39.5956727" lon="21.055402"><ele>952.0</ele><time>2026-04-27T09:55:26.177Z</time></trkpt><trkpt lat="39.5957748" lon="21.0553231"><ele>952.0</ele><time>2026-04-27T09:55:27.176Z</time></trkpt><trkpt lat="39.5958831" lon="21.055252"><ele>952.0</ele><time>2026-04-27T09:55:28.176Z</time></trkpt><trkpt lat="39.5960025" lon="21.0551933"><ele>952.0</ele><time>2026-04-27T09:55:29.176Z</time></trkpt><trkpt lat="39.5961314" lon="21.0551666"><ele>952.8</ele><time>2026-04-27T09:55:30.176Z</time></trkpt><trkpt lat="39.5962521" lon="21.0551601"><ele>953.6</ele><time>2026-04-27T09:55:31.177Z</time></trkpt><trkpt lat="39.5963719" lon="21.0551672"><ele>954.3999999999999</ele><time>2026-04-27T09:55:32.176Z</time></trkpt><trkpt lat="39.5964718" lon="21.0551647"><ele>955.1999999999999</ele><time>2026-04-27T09:55:33.177Z</time></trkpt><trkpt lat="39.596547" lon="21.0551269"><ele>956.0</ele><time>2026-04-27T09:55:34.176Z</time></trkpt><trkpt lat="39.5965988" lon="21.0550622"><ele>956.0</ele><time>2026-04-27T09:55:35.177Z</time></trkpt><trkpt lat="39.5966151" lon="21.0549654"><ele>955.9999999999999</ele><time>2026-04-27T09:55:36.177Z</time></trkpt><trkpt lat="39.5965928" lon="21.0548712"><ele>955.9999999999999</ele><time>2026-04-27T09:55:37.177Z</time></trkpt><trkpt lat="39.5965418" lon="21.0547943"><ele>956.0</ele><time>2026-04-27T09:55:38.176Z</time></trkpt><trkpt lat="39.596434" lon="21.0547344"><ele>956.0</ele><time>2026-04-27T09:55:39.176Z</time></trkpt><trkpt lat="39.5962879" lon="21.0547021"><ele>946.3333333333334</ele><time>2026-04-27T09:55:40.177Z</time></trkpt><trkpt lat="39.5961174" lon="21.0546647"><ele>936.6666666666667</ele><time>2026-04-27T09:55:41.176Z</time></trkpt><trkpt lat="39.59594" lon="21.0546071"><ele>927.0</ele><time>2026-04-27T09:55:42.176Z</time></trkpt><trkpt lat="39.5957533" lon="21.0545674"><ele>927.0</ele><time>2026-04-27T09:55:43.177Z</time></trkpt><trkpt lat="39.5955667" lon="21.0545658"><ele>927.0</ele><time>2026-04-27T09:55:44.176Z</time></trkpt><trkpt lat="39.5953839" lon="21.0545715"><ele>927.0</ele><time>2026-04-27T09:55:45.176Z</time></trkpt><trkpt lat="39.595204" lon="21.0545604"><ele>925.8</ele><time>2026-04-27T09:55:46.177Z</time></trkpt><trkpt lat="39.5950419" lon="21.0545329"><ele>924.6</ele><time>2026-04-27T09:55:47.177Z</time></trkpt><trkpt lat="39.5949304" lon="21.05451"><ele>923.3999999999999</ele><time>2026-04-27T09:55:48.177Z</time></trkpt><trkpt lat="39.594842" lon="21.0544805"><ele>922.1999999999999</ele><time>2026-04-27T09:55:49.177Z</time></trkpt><trkpt lat="39.5947729" lon="21.0544268"><ele>921.0</ele><time>2026-04-27T09:55:50.177Z</time></trkpt><trkpt lat="39.5947385" lon="21.0543445"><ele>921.0</ele><time>2026-04-27T09:55:51.176Z</time></trkpt><trkpt lat="39.594744" lon="21.0542448"><ele>920.9999999999999</ele><time>2026-04-27T09:55:52.177Z</time></trkpt><trkpt lat="39.5947827" lon="21.0541703"><ele>920.9999999999999</ele><time>2026-04-27T09:55:53.177Z</time></trkpt><trkpt lat="39.5948694" lon="21.0541239"><ele>921.0</ele><time>2026-04-27T09:55:54.177Z</time></trkpt><trkpt lat="39.5949726" lon="21.0540866"><ele>921.0</ele><time>2026-04-27T09:55:55.176Z</time></trkpt><trkpt lat="39.5951071" lon="21.0540601"><ele>914.3333333333333</ele><time>2026-04-27T09:55:56.177Z</time></trkpt><trkpt lat="39.5952611" lon="21.05403"><ele>907.6666666666666</ele><time>2026-04-27T09:55:57.176Z</time></trkpt><trkpt lat="39.5954154" lon="21.0540077"><ele>901.0</ele><time>2026-04-27T09:55:58.176Z</time></trkpt><trkpt lat="39.5955677" lon="21.0539819"><ele>901.0</ele><time>2026-04-27T09:55:59.176Z</time></trkpt><trkpt lat="39.5957207" lon="21.0539638"><ele>901.0</ele><time>2026-04-27T09:56:00.177Z</time></trkpt><trkpt lat="39.5958732" lon="21.0539307"><ele>901.0</ele><time>2026-04-27T09:56:01.176Z</time></trkpt><trkpt lat="39.5960214" lon="21.053892"><ele>901.0</ele><time>2026-04-27T09:56:02.177Z</time></trkpt><trkpt lat="39.5961607" lon="21.0538479"><ele>901.0</ele><time>2026-04-27T09:56:03.176Z</time></trkpt><trkpt lat="39.5962945" lon="21.053803"><ele>901.0</ele><time>2026-04-27T09:56:04.177Z</time></trkpt><trkpt lat="39.5964096" lon="21.0537665"><ele>901.0</ele><time>2026-04-27T09:56:05.176Z</time></trkpt><trkpt lat="39.5965071" lon="21.0537307"><ele>900.6666666666666</ele><time>2026-04-27T09:56:06.176Z</time></trkpt><trkpt lat="39.5965876" lon="21.0536754"><ele>900.3333333333333</ele><time>2026-04-27T09:56:07.177Z</time></trkpt><trkpt lat="39.5966476" lon="21.0536048"><ele>900.0</ele><time>2026-04-27T09:56:08.176Z</time></trkpt><trkpt lat="39.5966755" lon="21.0535029"><ele>899.6666666666667</ele><time>2026-04-27T09:56:09.177Z</time></trkpt><trkpt lat="39.5966717" lon="21.0534032"><ele>899.3333333333334</ele><time>2026-04-27T09:56:10.176Z</time></trkpt><trkpt lat="39.5966276" lon="21.0533001"><ele>899.0</ele><time>2026-04-27T09:56:11.177Z</time></trkpt><trkpt lat="39.5965566" lon="21.0532112"><ele>892.75</ele><time>2026-04-27T09:56:12.177Z</time></trkpt><trkpt lat="39.5964524" lon="21.0531484"><ele>886.5</ele><time>2026-04-27T09:56:13.177Z</time></trkpt><trkpt lat="39.5963148" lon="21.0530978"><ele>880.25</ele><time>2026-04-27T09:56:14.176Z</time></trkpt><trkpt lat="39.5961595" lon="21.0530745"><ele>874.0</ele><time>2026-04-27T09:56:15.177Z</time></trkpt><trkpt lat="39.5960056" lon="21.0530589"><ele>874.0</ele><time>2026-04-27T09:56:16.177Z</time></trkpt><trkpt lat="39.5958438" lon="21.0530517"><ele>874.0</ele><time>2026-04-27T09:56:17.177Z</time></trkpt><trkpt lat="39.5956837" lon="21.0530496"><ele>874.0</ele><time>2026-04-27T09:56:18.177Z</time></trkpt><trkpt lat="39.5955266" lon="21.0530482"><ele>874.0</ele><time>2026-04-27T09:56:19.176Z</time></trkpt><trkpt lat="39.595372" lon="21.0530364"><ele>874.0</ele><time>2026-04-27T09:56:20.176Z</time></trkpt><trkpt lat="39.5952281" lon="21.053023"><ele>874.0</ele><time>2026-04-27T09:56:21.176Z</time></trkpt><trkpt lat="39.5951053" lon="21.0530259"><ele>874.0</ele><time>2026-04-27T09:56:22.176Z</time></trkpt><trkpt lat="39.5949967" lon="21.0530321"><ele>874.1428571428571</ele><time>2026-04-27T09:56:23.177Z</time></trkpt><trkpt lat="39.5949107" lon="21.0530374"><ele>874.2857142857143</ele><time>2026-04-27T09:56:24.176Z</time></trkpt><trkpt lat="39.5948328" lon="21.0530123"><ele>874.4285714285714</ele><time>2026-04-27T09:56:25.176Z</time></trkpt><trkpt lat="39.5947775" lon="21.0529611"><ele>874.5714285714286</ele><time>2026-04-27T09:56:26.177Z</time></trkpt><trkpt lat="39.594759" lon="21.0528777"><ele>874.7142857142858</ele><time>2026-04-27T09:56:27.176Z</time></trkpt><trkpt lat="39.5947731" lon="21.0527916"><ele>874.8571428571429</ele><time>2026-04-27T09:56:28.176Z</time></trkpt><trkpt lat="39.5948291" lon="21.0527252"><ele>875.0</ele><time>2026-04-27T09:56:29.176Z</time></trkpt><trkpt lat="39.5949256" lon="21.0526802"><ele>875.0</ele><time>2026-04-27T09:56:30.177Z</time></trkpt><trkpt lat="39.5950369" lon="21.0526517"><ele>875.0</ele><time>2026-04-27T09:56:31.177Z</time></trkpt><trkpt lat="39.5951612" lon="21.0526296"><ele>875.0</ele><time>2026-04-27T09:56:32.177Z</time></trkpt><trkpt lat="39.5952791" lon="21.0526231"><ele>875.0</ele><time>2026-04-27T09:56:33.177Z</time></trkpt><trkpt lat="39.5954043" lon="21.0525663"><ele>874.75</ele><time>2026-04-27T09:56:34.177Z</time></trkpt><trkpt lat="39.5955288" lon="21.0524807"><ele>874.5</ele><time>2026-04-27T09:56:35.177Z</time></trkpt><trkpt lat="39.5956429" lon="21.0523907"><ele>874.25</ele><time>2026-04-27T09:56:36.176Z</time></trkpt><trkpt lat="39.5957555" lon="21.0522911"><ele>874.0</ele><time>2026-04-27T09:56:37.177Z</time></trkpt><trkpt lat="39.5958661" lon="21.0521902"><ele>869.9999999999999</ele><time>2026-04-27T09:56:38.176Z</time></trkpt><trkpt lat="39.5959558" lon="21.052117"><ele>866.0</ele><time>2026-04-27T09:56:39.177Z</time></trkpt><trkpt lat="39.5960403" lon="21.0520531"><ele>862.0</ele><time>2026-04-27T09:56:40.176Z</time></trkpt><trkpt lat="39.5961301" lon="21.0520186"><ele>858.0</ele><time>2026-04-27T09:56:41.177Z</time></trkpt><trkpt lat="39.5962028" lon="21.0520088"><ele>853.9999999999999</ele><time>2026-04-27T09:56:42.176Z</time></trkpt><trkpt lat="39.5962655" lon="21.0519843"><ele>850.0</ele><time>2026-04-27T09:56:43.176Z</time></trkpt><trkpt lat="39.5963161" lon="21.0519348"><ele>850.0</ele><time>2026-04-27T09:56:44.177Z</time></trkpt><trkpt lat="39.5963226" lon="21.0518262"><ele>850.0</ele><time>2026-04-27T09:56:46.177Z</time></trkpt><trkpt lat="39.5962001" lon="21.0518005"><ele>850.0</ele><time>2026-04-27T09:56:48.176Z</time></trkpt><trkpt lat="39.5960812" lon="21.0518215"><ele>850.0</ele><time>2026-04-27T09:56:49.176Z</time></trkpt><trkpt lat="39.5959466" lon="21.0518438"><ele>850.0</ele><time>2026-04-27T09:56:50.176Z</time></trkpt><trkpt lat="39.5958208" lon="21.0518583"><ele>850.0</ele><time>2026-04-27T09:56:51.176Z</time></trkpt><trkpt lat="39.5956932" lon="21.051808"><ele>850.0</ele><time>2026-04-27T09:56:52.177Z</time></trkpt><trkpt lat="39.5955889" lon="21.051746"><ele>850.0</ele><time>2026-04-27T09:56:53.176Z</time></trkpt><trkpt lat="39.5955048" lon="21.0516499"><ele>846.25</ele><time>2026-04-27T09:56:54.176Z</time></trkpt><trkpt lat="39.5954253" lon="21.0515214"><ele>842.5</ele><time>2026-04-27T09:56:55.177Z</time></trkpt><trkpt lat="39.59536" lon="21.0513789"><ele>838.75</ele><time>2026-04-27T09:56:56.176Z</time></trkpt><trkpt lat="39.5952815" lon="21.051262"><ele>835.0</ele><time>2026-04-27T09:56:57.177Z</time></trkpt><trkpt lat="39.59518" lon="21.0511871"><ele>835.0</ele><time>2026-04-27T09:56:58.177Z</time></trkpt><trkpt lat="39.595067" lon="21.0511388"><ele>835.0</ele><time>2026-04-27T09:56:59.177Z</time></trkpt><trkpt lat="39.5949561" lon="21.0510626"><ele>835.0</ele><time>2026-04-27T09:57:00.176Z</time></trkpt><trkpt lat="39.594852" lon="21.0509671"><ele>835.0</ele><time>2026-04-27T09:57:01.176Z</time></trkpt><trkpt lat="39.5947373" lon="21.0508764"><ele>835.0</ele><time>2026-04-27T09:57:02.176Z</time></trkpt><trkpt lat="39.5946102" lon="21.0508155"><ele>835.0</ele><time>2026-04-27T09:57:03.177Z</time></trkpt><trkpt lat="39.5944768" lon="21.0507953"><ele>835.0</ele><time>2026-04-27T09:57:04.177Z</time></trkpt><trkpt lat="39.5943519" lon="21.0507749"><ele>835.0</ele><time>2026-04-27T09:57:05.176Z</time></trkpt><trkpt lat="39.5942319" lon="21.0507413"><ele>829.75</ele><time>2026-04-27T09:57:06.177Z</time></trkpt><trkpt lat="39.5941158" lon="21.0506968"><ele>824.5</ele><time>2026-04-27T09:57:07.176Z</time></trkpt><trkpt lat="39.5939885" lon="21.0506546"><ele>819.25</ele><time>2026-04-27T09:57:08.177Z</time></trkpt><trkpt lat="39.5938651" lon="21.0506204"><ele>814.0</ele><time>2026-04-27T09:57:09.177Z</time></trkpt><trkpt lat="39.593753" lon="21.0506077"><ele>813.2</ele><time>2026-04-27T09:57:10.177Z</time></trkpt><trkpt lat="39.5936586" lon="21.050619"><ele>812.4000000000001</ele><time>2026-04-27T09:57:11.176Z</time></trkpt><trkpt lat="39.5935714" lon="21.050653"><ele>811.6</ele><time>2026-04-27T09:57:12.176Z</time></trkpt><trkpt lat="39.593483" lon="21.0507193"><ele>810.8</ele><time>2026-04-27T09:57:13.176Z</time></trkpt><trkpt lat="39.5933814" lon="21.0508359"><ele>810.0</ele><time>2026-04-27T09:57:14.177Z</time></trkpt><trkpt lat="39.5932831" lon="21.0509622"><ele>814.75</ele><time>2026-04-27T09:57:15.177Z</time></trkpt><trkpt lat="39.5931921" lon="21.051092"><ele>819.5</ele><time>2026-04-27T09:57:16.176Z</time></trkpt><trkpt lat="39.5931026" lon="21.0511935"><ele>824.25</ele><time>2026-04-27T09:57:17.176Z</time></trkpt><trkpt lat="39.5930074" lon="21.0512562"><ele>829.0</ele><time>2026-04-27T09:57:18.176Z</time></trkpt><trkpt lat="39.5929079" lon="21.0512721"><ele>824.75</ele><time>2026-04-27T09:57:19.177Z</time></trkpt><trkpt lat="39.5927987" lon="21.0512628"><ele>820.5</ele><time>2026-04-27T09:57:20.177Z</time></trkpt><trkpt lat="39.5926866" lon="21.0512759"><ele>816.25</ele><time>2026-04-27T09:57:21.176Z</time></trkpt><trkpt lat="39.5925662" lon="21.0512933"><ele>812.0</ele><time>2026-04-27T09:57:22.176Z</time></trkpt><trkpt lat="39.592437" lon="21.0512891"><ele>812.0</ele><time>2026-04-27T09:57:23.177Z</time></trkpt><trkpt lat="39.5922865" lon="21.051256"><ele>812.0</ele><time>2026-04-27T09:57:24.176Z</time></trkpt><trkpt lat="39.5921371" lon="21.0512068"><ele>812.0</ele><time>2026-04-27T09:57:25.176Z</time></trkpt><trkpt lat="39.592" lon="21.0511285"><ele>814.75</ele><time>2026-04-27T09:57:26.176Z</time></trkpt><trkpt lat="39.5918783" lon="21.0510393"><ele>817.5</ele><time>2026-04-27T09:57:27.176Z</time></trkpt><trkpt lat="39.5917675" lon="21.050936"><ele>820.25</ele><time>2026-04-27T09:57:28.176Z</time></trkpt><trkpt lat="39.5916671" lon="21.0508478"><ele>823.0</ele><time>2026-04-27T09:57:29.176Z</time></trkpt><trkpt lat="39.5915659" lon="21.0507766"><ele>816.2</ele><time>2026-04-27T09:57:30.177Z</time></trkpt><trkpt lat="39.5914547" lon="21.0507324"><ele>809.4</ele><time>2026-04-27T09:57:31.176Z</time></trkpt><trkpt lat="39.5913471" lon="21.0507033"><ele>802.6</ele><time>2026-04-27T09:57:32.177Z</time></trkpt><trkpt lat="39.5912341" lon="21.0506965"><ele>795.8000000000001</ele><time>2026-04-27T09:57:33.177Z</time></trkpt><trkpt lat="39.5911321" lon="21.0507147"><ele>789.0</ele><time>2026-04-27T09:57:34.176Z</time></trkpt><trkpt lat="39.5910391" lon="21.0507512"><ele>794.75</ele><time>2026-04-27T09:57:35.177Z</time></trkpt><trkpt lat="39.5909636" lon="21.0508307"><ele>800.5</ele><time>2026-04-27T09:57:36.176Z</time></trkpt><trkpt lat="39.5908922" lon="21.0509554"><ele>806.25</ele><time>2026-04-27T09:57:37.176Z</time></trkpt><trkpt lat="39.5908349" lon="21.0511103"><ele>812.0</ele><time>2026-04-27T09:57:38.177Z</time></trkpt><trkpt lat="39.5907893" lon="21.0512847"><ele>812.0</ele><time>2026-04-27T09:57:39.177Z</time></trkpt><trkpt lat="39.5907523" lon="21.0514704"><ele>812.0</ele><time>2026-04-27T09:57:40.176Z</time></trkpt><trkpt lat="39.5907245" lon="21.0516573"><ele>812.0</ele><time>2026-04-27T09:57:41.176Z</time></trkpt><trkpt lat="39.5907241" lon="21.0518505"><ele>812.0</ele><time>2026-04-27T09:57:42.177Z</time></trkpt><trkpt lat="39.5907409" lon="21.0520316"><ele>813.75</ele><time>2026-04-27T09:57:43.177Z</time></trkpt><trkpt lat="39.5907677" lon="21.0522008"><ele>815.5</ele><time>2026-04-27T09:57:44.176Z</time></trkpt><trkpt lat="39.5907941" lon="21.0523544"><ele>817.25</ele><time>2026-04-27T09:57:45.177Z</time></trkpt><trkpt lat="39.5908184" lon="21.0524964"><ele>819.0</ele><time>2026-04-27T09:57:46.176Z</time></trkpt><trkpt lat="39.5908246" lon="21.0526282"><ele>819.3333333333334</ele><time>2026-04-27T09:57:47.176Z</time></trkpt><trkpt lat="39.5908106" lon="21.0527436"><ele>819.6666666666667</ele><time>2026-04-27T09:57:48.177Z</time></trkpt><trkpt lat="39.5907787" lon="21.0528421"><ele>820.0</ele><time>2026-04-27T09:57:49.177Z</time></trkpt><trkpt lat="39.5907279" lon="21.0529072"><ele>820.3333333333334</ele><time>2026-04-27T09:57:50.177Z</time></trkpt><trkpt lat="39.5906675" lon="21.0529308"><ele>820.6666666666667</ele><time>2026-04-27T09:57:51.176Z</time></trkpt><trkpt lat="39.5905968" lon="21.0529054"><ele>821.0</ele><time>2026-04-27T09:57:52.176Z</time></trkpt><trkpt lat="39.5905262" lon="21.0528493"><ele>821.0</ele><time>2026-04-27T09:57:53.177Z</time></trkpt><trkpt lat="39.5904369" lon="21.0528073"><ele>821.0</ele><time>2026-04-27T09:57:54.176Z</time></trkpt><trkpt lat="39.5903297" lon="21.0528022"><ele>821.0</ele><time>2026-04-27T09:57:55.177Z</time></trkpt><trkpt lat="39.5902253" lon="21.0528486"><ele>821.0</ele><time>2026-04-27T09:57:56.177Z</time></trkpt><trkpt lat="39.5901379" lon="21.0529188"><ele>821.0</ele><time>2026-04-27T09:57:57.176Z</time></trkpt><trkpt lat="39.5900588" lon="21.05299"><ele>817.0</ele><time>2026-04-27T09:57:58.177Z</time></trkpt><trkpt lat="39.5899788" lon="21.0530354"><ele>813.0</ele><time>2026-04-27T09:57:59.176Z</time></trkpt><trkpt lat="39.5899034" lon="21.0530227"><ele>809.0</ele><time>2026-04-27T09:58:00.176Z</time></trkpt><trkpt lat="39.5898303" lon="21.0529308"><ele>805.0</ele><time>2026-04-27T09:58:01.177Z</time></trkpt><trkpt lat="39.5897489" lon="21.0528051"><ele>801.0</ele><time>2026-04-27T09:58:02.177Z</time></trkpt><trkpt lat="39.5896604" lon="21.0526747"><ele>801.0</ele><time>2026-04-27T09:58:03.177Z</time></trkpt><trkpt lat="39.5895744" lon="21.0525449"><ele>801.0</ele><time>2026-04-27T09:58:04.176Z</time></trkpt><trkpt lat="39.5894942" lon="21.052422"><ele>801.0</ele><time>2026-04-27T09:58:05.176Z</time></trkpt><trkpt lat="39.589418" lon="21.0523277"><ele>801.0</ele><time>2026-04-27T09:58:06.177Z</time></trkpt><trkpt lat="39.589331" lon="21.0522818"><ele>799.1666666666666</ele><time>2026-04-27T09:58:07.176Z</time></trkpt><trkpt lat="39.5892418" lon="21.0522893"><ele>797.3333333333333</ele><time>2026-04-27T09:58:08.176Z</time></trkpt><trkpt lat="39.5891709" lon="21.0523214"><ele>795.5</ele><time>2026-04-27T09:58:09.177Z</time></trkpt><trkpt lat="39.5890888" lon="21.052349"><ele>793.6666666666666</ele><time>2026-04-27T09:58:10.177Z</time></trkpt><trkpt lat="39.5889944" lon="21.0523384"><ele>791.8333333333333</ele><time>2026-04-27T09:58:11.177Z</time></trkpt><trkpt lat="39.5889029" lon="21.0523381"><ele>790.0</ele><time>2026-04-27T09:58:12.176Z</time></trkpt><trkpt lat="39.588821" lon="21.0523505"><ele>789.9999999999999</ele><time>2026-04-27T09:58:13.176Z</time></trkpt><trkpt lat="39.5887409" lon="21.0523615"><ele>790.0</ele><time>2026-04-27T09:58:14.176Z</time></trkpt><trkpt lat="39.5886655" lon="21.0523697"><ele>790.0</ele><time>2026-04-27T09:58:15.177Z</time></trkpt><trkpt lat="39.5885929" lon="21.0523738"><ele>790.0</ele><time>2026-04-27T09:58:16.177Z</time></trkpt><trkpt lat="39.5885214" lon="21.0523738"><ele>789.9999999999999</ele><time>2026-04-27T09:58:17.176Z</time></trkpt><trkpt lat="39.5884139" lon="21.0523658"><ele>790.0</ele><time>2026-04-27T09:58:19.176Z</time></trkpt><trkpt lat="39.5883477" lon="21.0522651"><ele>793.4</ele><time>2026-04-27T09:58:21.176Z</time></trkpt><trkpt lat="39.5883063" lon="21.05219"><ele>796.8</ele><time>2026-04-27T09:58:22.176Z</time></trkpt><trkpt lat="39.5882601" lon="21.0520956"><ele>800.2</ele><time>2026-04-27T09:58:23.176Z</time></trkpt><trkpt lat="39.5881934" lon="21.0520045"><ele>803.6</ele><time>2026-04-27T09:58:24.177Z</time></trkpt><trkpt lat="39.5881138" lon="21.0519154"><ele>807.0</ele><time>2026-04-27T09:58:25.176Z</time></trkpt><trkpt lat="39.5880145" lon="21.0518345"><ele>807.0</ele><time>2026-04-27T09:58:26.177Z</time></trkpt><trkpt lat="39.5879089" lon="21.0517439"><ele>807.0</ele><time>2026-04-27T09:58:27.177Z</time></trkpt><trkpt lat="39.5878064" lon="21.0516566"><ele>807.0</ele><time>2026-04-27T09:58:28.177Z</time></trkpt><trkpt lat="39.5877077" lon="21.0515742"><ele>807.0</ele><time>2026-04-27T09:58:29.177Z</time></trkpt><trkpt lat="39.5876131" lon="21.0514918"><ele>811.5</ele><time>2026-04-27T09:58:30.177Z</time></trkpt><trkpt lat="39.5875381" lon="21.0514164"><ele>816.0</ele><time>2026-04-27T09:58:31.177Z</time></trkpt><trkpt lat="39.5874701" lon="21.0513362"><ele>820.5</ele><time>2026-04-27T09:58:32.176Z</time></trkpt><trkpt lat="39.5874239" lon="21.0512509"><ele>825.0</ele><time>2026-04-27T09:58:33.176Z</time></trkpt><trkpt lat="39.5874085" lon="21.0511665"><ele>829.5</ele><time>2026-04-27T09:58:34.176Z</time></trkpt><trkpt lat="39.587444" lon="21.0510817"><ele>834.0</ele><time>2026-04-27T09:58:35.177Z</time></trkpt><trkpt lat="39.587502" lon="21.0510005"><ele>834.0</ele><time>2026-04-27T09:58:36.177Z</time></trkpt><trkpt lat="39.5875798" lon="21.0508928"><ele>834.0</ele><time>2026-04-27T09:58:37.176Z</time></trkpt><trkpt lat="39.5876417" lon="21.050761"><ele>834.0</ele><time>2026-04-27T09:58:38.176Z</time></trkpt><trkpt lat="39.5876925" lon="21.0506145"><ele>834.0</ele><time>2026-04-27T09:58:39.176Z</time></trkpt><trkpt lat="39.5877224" lon="21.0504576"><ele>835.5</ele><time>2026-04-27T09:58:40.177Z</time></trkpt><trkpt lat="39.5877164" lon="21.050311"><ele>837.0</ele><time>2026-04-27T09:58:41.177Z</time></trkpt><trkpt lat="39.587677" lon="21.0501803"><ele>838.5</ele><time>2026-04-27T09:58:42.177Z</time></trkpt><trkpt lat="39.5876062" lon="21.0500621"><ele>840.0</ele><time>2026-04-27T09:58:43.176Z</time></trkpt><trkpt lat="39.5875516" lon="21.0499275"><ele>840.0</ele><time>2026-04-27T09:58:44.176Z</time></trkpt><trkpt lat="39.5875122" lon="21.049773"><ele>840.0</ele><time>2026-04-27T09:58:45.177Z</time></trkpt><trkpt lat="39.587492" lon="21.0496152"><ele>840.0</ele><time>2026-04-27T09:58:46.177Z</time></trkpt><trkpt lat="39.5874713" lon="21.0494572"><ele>840.0</ele><time>2026-04-27T09:58:47.176Z</time></trkpt><trkpt lat="39.5874368" lon="21.0492967"><ele>840.0</ele><time>2026-04-27T09:58:48.176Z</time></trkpt><trkpt lat="39.5873958" lon="21.0491509"><ele>840.0</ele><time>2026-04-27T09:58:49.176Z</time></trkpt><trkpt lat="39.5873611" lon="21.049025"><ele>840.0</ele><time>2026-04-27T09:58:50.177Z</time></trkpt><trkpt lat="39.5873387" lon="21.0489036"><ele>840.0</ele><time>2026-04-27T09:58:51.177Z</time></trkpt><trkpt lat="39.5873634" lon="21.0487883"><ele>840.0</ele><time>2026-04-27T09:58:52.177Z</time></trkpt><trkpt lat="39.5874274" lon="21.0486707"><ele>839.5</ele><time>2026-04-27T09:58:53.177Z</time></trkpt><trkpt lat="39.587508" lon="21.0485453"><ele>839.0</ele><time>2026-04-27T09:58:54.177Z</time></trkpt><trkpt lat="39.5876295" lon="21.0484476"><ele>838.5</ele><time>2026-04-27T09:58:55.177Z</time></trkpt><trkpt lat="39.5877539" lon="21.0483572"><ele>838.0</ele><time>2026-04-27T09:58:56.177Z</time></trkpt><trkpt lat="39.5878894" lon="21.0483014"><ele>843.0</ele><time>2026-04-27T09:58:57.176Z</time></trkpt><trkpt lat="39.5880209" lon="21.0482725"><ele>848.0</ele><time>2026-04-27T09:58:58.177Z</time></trkpt><trkpt lat="39.5881471" lon="21.0482084"><ele>853.0</ele><time>2026-04-27T09:58:59.176Z</time></trkpt><trkpt lat="39.5882723" lon="21.0481249"><ele>858.0</ele><time>2026-04-27T09:59:00.177Z</time></trkpt><trkpt lat="39.5883813" lon="21.0480051"><ele>858.0</ele><time>2026-04-27T09:59:01.177Z</time></trkpt><trkpt lat="39.5884811" lon="21.047884"><ele>858.0</ele><time>2026-04-27T09:59:02.176Z</time></trkpt><trkpt lat="39.5885589" lon="21.0477679"><ele>858.0</ele><time>2026-04-27T09:59:03.177Z</time></trkpt><trkpt lat="39.5886236" lon="21.0476619"><ele>858.0</ele><time>2026-04-27T09:59:04.176Z</time></trkpt><trkpt lat="39.5886464" lon="21.0475746"><ele>858.0</ele><time>2026-04-27T09:59:05.176Z</time></trkpt><trkpt lat="39.5885901" lon="21.0474627"><ele>858.0</ele><time>2026-04-27T09:59:07.176Z</time></trkpt><trkpt lat="39.588471" lon="21.0475533"><ele>858.0</ele><time>2026-04-27T09:59:09.176Z</time></trkpt><trkpt lat="39.5884052" lon="21.0476559"><ele>858.0</ele><time>2026-04-27T09:59:10.177Z</time></trkpt><trkpt lat="39.5883287" lon="21.0477664"><ele>858.0</ele><time>2026-04-27T09:59:11.176Z</time></trkpt><trkpt lat="39.5881882" lon="21.0478558"><ele>858.0</ele><time>2026-04-27T09:59:12.177Z</time></trkpt><trkpt lat="39.588066" lon="21.0479184"><ele>858.0</ele><time>2026-04-27T09:59:13.176Z</time></trkpt><trkpt lat="39.5879286" lon="21.0479723"><ele>858.0</ele><time>2026-04-27T09:59:14.176Z</time></trkpt><trkpt lat="39.5877777" lon="21.0479594"><ele>858.0</ele><time>2026-04-27T09:59:15.177Z</time></trkpt><trkpt lat="39.587649" lon="21.04797"><ele>867.6666666666667</ele><time>2026-04-27T09:59:16.177Z</time></trkpt><trkpt lat="39.5875139" lon="21.0480315"><ele>877.3333333333334</ele><time>2026-04-27T09:59:17.177Z</time></trkpt><trkpt lat="39.5873729" lon="21.0481377"><ele>887.0</ele><time>2026-04-27T09:59:18.176Z</time></trkpt><trkpt lat="39.5872195" lon="21.0482423"><ele>883.3333333333334</ele><time>2026-04-27T09:59:19.176Z</time></trkpt><trkpt lat="39.5870788" lon="21.0483453"><ele>879.6666666666667</ele><time>2026-04-27T09:59:20.177Z</time></trkpt><trkpt lat="39.5869447" lon="21.0484573"><ele>876.0</ele><time>2026-04-27T09:59:21.177Z</time></trkpt><trkpt lat="39.5868381" lon="21.0485591"><ele>876.0</ele><time>2026-04-27T09:59:22.177Z</time></trkpt><trkpt lat="39.5867521" lon="21.0486365"><ele>876.0</ele><time>2026-04-27T09:59:23.177Z</time></trkpt><trkpt lat="39.5866752" lon="21.0486689"><ele>876.0</ele><time>2026-04-27T09:59:24.177Z</time></trkpt><trkpt lat="39.5866057" lon="21.0486525"><ele>876.0</ele><time>2026-04-27T09:59:25.177Z</time></trkpt><trkpt lat="39.5865449" lon="21.0485999"><ele>876.0</ele><time>2026-04-27T09:59:26.176Z</time></trkpt><trkpt lat="39.5865077" lon="21.0484855"><ele>876.0</ele><time>2026-04-27T09:59:27.177Z</time></trkpt><trkpt lat="39.586499" lon="21.0483333"><ele>880.8</ele><time>2026-04-27T09:59:28.176Z</time></trkpt><trkpt lat="39.5865036" lon="21.0482004"><ele>885.5999999999999</ele><time>2026-04-27T09:59:29.177Z</time></trkpt><trkpt lat="39.5864841" lon="21.0480708"><ele>890.4</ele><time>2026-04-27T09:59:30.177Z</time></trkpt><trkpt lat="39.586431" lon="21.0479672"><ele>895.2</ele><time>2026-04-27T09:59:31.177Z</time></trkpt><trkpt lat="39.5863396" lon="21.0479015"><ele>900.0</ele><time>2026-04-27T09:59:32.177Z</time></trkpt><trkpt lat="39.5862206" lon="21.0478849"><ele>902.0</ele><time>2026-04-27T09:59:33.176Z</time></trkpt><trkpt lat="39.5860871" lon="21.0479145"><ele>904.0</ele><time>2026-04-27T09:59:34.177Z</time></trkpt><trkpt lat="39.5859638" lon="21.0479674"><ele>906.0</ele><time>2026-04-27T09:59:35.177Z</time></trkpt><trkpt lat="39.5858632" lon="21.0480195"><ele>908.0</ele><time>2026-04-27T09:59:36.177Z</time></trkpt><trkpt lat="39.5857834" lon="21.0480558"><ele>908.0</ele><time>2026-04-27T09:59:37.177Z</time></trkpt><trkpt lat="39.585681" lon="21.0480448"><ele>908.0</ele><time>2026-04-27T09:59:39.177Z</time></trkpt><trkpt lat="39.5856897" lon="21.0479429"><ele>908.0</ele><time>2026-04-27T09:59:41.176Z</time></trkpt><trkpt lat="39.5857436" lon="21.0478977"><ele>908.0</ele><time>2026-04-27T09:59:42.176Z</time></trkpt><trkpt lat="39.5858263" lon="21.0478511"><ele>908.0</ele><time>2026-04-27T09:59:43.177Z</time></trkpt><trkpt lat="39.5859367" lon="21.047791"><ele>908.0</ele><time>2026-04-27T09:59:44.176Z</time></trkpt><trkpt lat="39.5860596" lon="21.0477099"><ele>908.0</ele><time>2026-04-27T09:59:45.176Z</time></trkpt><trkpt lat="39.5861802" lon="21.0476241"><ele>908.0</ele><time>2026-04-27T09:59:46.177Z</time></trkpt><trkpt lat="39.5862945" lon="21.04756"><ele>908.0</ele><time>2026-04-27T09:59:47.176Z</time></trkpt><trkpt lat="39.5864064" lon="21.0475423"><ele>906.4</ele><time>2026-04-27T09:59:48.176Z</time></trkpt><trkpt lat="39.586515" lon="21.0475573"><ele>904.8</ele><time>2026-04-27T09:59:49.176Z</time></trkpt><trkpt lat="39.5866158" lon="21.0476335"><ele>903.2</ele><time>2026-04-27T09:59:50.177Z</time></trkpt><trkpt lat="39.5867095" lon="21.0477257"><ele>901.6</ele><time>2026-04-27T09:59:51.176Z</time></trkpt><trkpt lat="39.5867813" lon="21.0478097"><ele>900.0</ele><time>2026-04-27T09:59:52.176Z</time></trkpt><trkpt lat="39.5868624" lon="21.0478463"><ele>900.0</ele><time>2026-04-27T09:59:53.177Z</time></trkpt><trkpt lat="39.5869487" lon="21.0478354"><ele>900.0</ele><time>2026-04-27T09:59:54.177Z</time></trkpt><trkpt lat="39.5870374" lon="21.0477678"><ele>900.0</ele><time>2026-04-27T09:59:55.176Z</time></trkpt><trkpt lat="39.5871397" lon="21.0476501"><ele>900.0</ele><time>2026-04-27T09:59:56.177Z</time></trkpt><trkpt lat="39.5872437" lon="21.0475015"><ele>900.75</ele><time>2026-04-27T09:59:57.177Z</time></trkpt><trkpt lat="39.5873237" lon="21.0473287"><ele>901.5</ele><time>2026-04-27T09:59:58.177Z</time></trkpt><trkpt lat="39.5873908" lon="21.0471844"><ele>902.25</ele><time>2026-04-27T09:59:59.176Z</time></trkpt><trkpt lat="39.58743" lon="21.0470597"><ele>903.0</ele><time>2026-04-27T10:00:00.177Z</time></trkpt><trkpt lat="39.5874348" lon="21.0469562"><ele>903.0</ele><time>2026-04-27T10:00:01.176Z</time></trkpt><trkpt lat="39.5874047" lon="21.0468785"><ele>903.0</ele><time>2026-04-27T10:00:02.176Z</time></trkpt><trkpt lat="39.587348" lon="21.0468365"><ele>903.0</ele><time>2026-04-27T10:00:03.177Z</time></trkpt><trkpt lat="39.5872805" lon="21.0468485"><ele>903.0</ele><time>2026-04-27T10:00:04.176Z</time></trkpt><trkpt lat="39.5872143" lon="21.0469267"><ele>903.0</ele><time>2026-04-27T10:00:05.177Z</time></trkpt><trkpt lat="39.5871404" lon="21.0470549"><ele>903.0</ele><time>2026-04-27T10:00:06.177Z</time></trkpt><trkpt lat="39.5870692" lon="21.0471691"><ele>908.0</ele><time>2026-04-27T10:00:07.177Z</time></trkpt><trkpt lat="39.586993" lon="21.0472635"><ele>913.0</ele><time>2026-04-27T10:00:08.177Z</time></trkpt><trkpt lat="39.5869158" lon="21.0473053"><ele>918.0</ele><time>2026-04-27T10:00:09.177Z</time></trkpt><trkpt lat="39.5868296" lon="21.0473043"><ele>923.0</ele><time>2026-04-27T10:00:10.176Z</time></trkpt><trkpt lat="39.5867313" lon="21.0472625"><ele>928.0</ele><time>2026-04-27T10:00:11.176Z</time></trkpt><trkpt lat="39.5866135" lon="21.0471759"><ele>928.0</ele><time>2026-04-27T10:00:12.177Z</time></trkpt><trkpt lat="39.5864867" lon="21.0471076"><ele>928.0</ele><time>2026-04-27T10:00:13.177Z</time></trkpt><trkpt lat="39.586346" lon="21.0470836"><ele>928.0</ele><time>2026-04-27T10:00:14.176Z</time></trkpt><trkpt lat="39.5861858" lon="21.0471138"><ele>928.0</ele><time>2026-04-27T10:00:15.176Z</time></trkpt><trkpt lat="39.5860417" lon="21.047174"><ele>931.25</ele><time>2026-04-27T10:00:16.177Z</time></trkpt><trkpt lat="39.585917" lon="21.0472454"><ele>934.5</ele><time>2026-04-27T10:00:17.176Z</time></trkpt><trkpt lat="39.585797" lon="21.0472987"><ele>937.75</ele><time>2026-04-27T10:00:18.177Z</time></trkpt><trkpt lat="39.5856698" lon="21.0472866"><ele>941.0</ele><time>2026-04-27T10:00:19.177Z</time></trkpt><trkpt lat="39.5855301" lon="21.0472382"><ele>941.0</ele><time>2026-04-27T10:00:20.176Z</time></trkpt><trkpt lat="39.5853484" lon="21.0471551"><ele>941.0</ele><time>2026-04-27T10:00:21.177Z</time></trkpt><trkpt lat="39.5851468" lon="21.0470988"><ele>941.0</ele><time>2026-04-27T10:00:22.177Z</time></trkpt><trkpt lat="39.5849644" lon="21.04702"><ele>940.5</ele><time>2026-04-27T10:00:23.176Z</time></trkpt><trkpt lat="39.5848091" lon="21.0469512"><ele>940.0</ele><time>2026-04-27T10:00:24.176Z</time></trkpt><trkpt lat="39.5846714" lon="21.0468853"><ele>939.5</ele><time>2026-04-27T10:00:25.176Z</time></trkpt><trkpt lat="39.5845462" lon="21.0468147"><ele>939.0</ele><time>2026-04-27T10:00:26.176Z</time></trkpt><trkpt lat="39.5844357" lon="21.0467127"><ele>938.25</ele><time>2026-04-27T10:00:27.176Z</time></trkpt><trkpt lat="39.584346" lon="21.0465888"><ele>937.5</ele><time>2026-04-27T10:00:28.177Z</time></trkpt><trkpt lat="39.584279" lon="21.0464461"><ele>936.75</ele><time>2026-04-27T10:00:29.176Z</time></trkpt><trkpt lat="39.5842387" lon="21.0462551"><ele>936.0</ele><time>2026-04-27T10:00:30.177Z</time></trkpt><trkpt lat="39.5842197" lon="21.0460588"><ele>936.0</ele><time>2026-04-27T10:00:31.176Z</time></trkpt><trkpt lat="39.584229" lon="21.0458876"><ele>936.0</ele><time>2026-04-27T10:00:32.177Z</time></trkpt><trkpt lat="39.5842183" lon="21.045734"><ele>936.0</ele><time>2026-04-27T10:00:33.176Z</time></trkpt><trkpt lat="39.5841734" lon="21.0455862"><ele>936.0</ele><time>2026-04-27T10:00:34.177Z</time></trkpt><trkpt lat="39.5840685" lon="21.0454447"><ele>932.5</ele><time>2026-04-27T10:00:35.177Z</time></trkpt><trkpt lat="39.5839358" lon="21.0453203"><ele>929.0</ele><time>2026-04-27T10:00:36.176Z</time></trkpt><trkpt lat="39.5838172" lon="21.0452124"><ele>925.5</ele><time>2026-04-27T10:00:37.176Z</time></trkpt><trkpt lat="39.5837138" lon="21.0451079"><ele>922.0</ele><time>2026-04-27T10:00:38.177Z</time></trkpt><trkpt lat="39.5836351" lon="21.0450048"><ele>923.5</ele><time>2026-04-27T10:00:39.177Z</time></trkpt><trkpt lat="39.5835831" lon="21.0448906"><ele>925.0</ele><time>2026-04-27T10:00:40.177Z</time></trkpt><trkpt lat="39.5835722" lon="21.0447591"><ele>926.5</ele><time>2026-04-27T10:00:41.177Z</time></trkpt><trkpt lat="39.5835834" lon="21.044607"><ele>928.0</ele><time>2026-04-27T10:00:42.177Z</time></trkpt><trkpt lat="39.5836335" lon="21.0444102"><ele>928.0</ele><time>2026-04-27T10:00:43.176Z</time></trkpt><trkpt lat="39.5836731" lon="21.0442212"><ele>928.0</ele><time>2026-04-27T10:00:44.176Z</time></trkpt><trkpt lat="39.583706" lon="21.0440437"><ele>928.0</ele><time>2026-04-27T10:00:45.177Z</time></trkpt><trkpt lat="39.5837283" lon="21.0438804"><ele>928.0</ele><time>2026-04-27T10:00:46.176Z</time></trkpt><trkpt lat="39.5837162" lon="21.0437256"><ele>930.75</ele><time>2026-04-27T10:00:47.176Z</time></trkpt><trkpt lat="39.5836649" lon="21.0435873"><ele>933.5</ele><time>2026-04-27T10:00:48.177Z</time></trkpt><trkpt lat="39.58358" lon="21.0434698"><ele>936.25</ele><time>2026-04-27T10:00:49.176Z</time></trkpt><trkpt lat="39.5834886" lon="21.0433828"><ele>939.0</ele><time>2026-04-27T10:00:50.177Z</time></trkpt><trkpt lat="39.5834177" lon="21.0432726"><ele>942.75</ele><time>2026-04-27T10:00:51.177Z</time></trkpt><trkpt lat="39.5833743" lon="21.0431359"><ele>946.5</ele><time>2026-04-27T10:00:52.176Z</time></trkpt><trkpt lat="39.5833546" lon="21.0429546"><ele>950.25</ele><time>2026-04-27T10:00:53.176Z</time></trkpt><trkpt lat="39.5833576" lon="21.0427211"><ele>954.0</ele><time>2026-04-27T10:00:54.177Z</time></trkpt><trkpt lat="39.5833715" lon="21.0425013"><ele>964.0</ele><time>2026-04-27T10:00:55.176Z</time></trkpt><trkpt lat="39.5834206" lon="21.0422975"><ele>974.0</ele><time>2026-04-27T10:00:56.176Z</time></trkpt><trkpt lat="39.5834998" lon="21.0420532"><ele>984.0</ele><time>2026-04-27T10:00:57.177Z</time></trkpt><trkpt lat="39.5836195" lon="21.0418029"><ele>978.0</ele><time>2026-04-27T10:00:58.177Z</time></trkpt><trkpt lat="39.5837482" lon="21.0415418"><ele>972.0</ele><time>2026-04-27T10:00:59.177Z</time></trkpt><trkpt lat="39.5838608" lon="21.0413155"><ele>966.0</ele><time>2026-04-27T10:01:00.176Z</time></trkpt><trkpt lat="39.5839553" lon="21.0411183"><ele>966.0</ele><time>2026-04-27T10:01:01.177Z</time></trkpt><trkpt lat="39.5840207" lon="21.0409295"><ele>966.0</ele><time>2026-04-27T10:01:02.177Z</time></trkpt><trkpt lat="39.5840701" lon="21.0407529"><ele>966.0</ele><time>2026-04-27T10:01:03.176Z</time></trkpt><trkpt lat="39.584129" lon="21.0405953"><ele>966.0</ele><time>2026-04-27T10:01:04.176Z</time></trkpt><trkpt lat="39.5842225" lon="21.0404606"><ele>963.5</ele><time>2026-04-27T10:01:05.177Z</time></trkpt><trkpt lat="39.5843387" lon="21.0403256"><ele>961.0</ele><time>2026-04-27T10:01:06.176Z</time></trkpt><trkpt lat="39.5844587" lon="21.0402346"><ele>958.5</ele><time>2026-04-27T10:01:07.176Z</time></trkpt><trkpt lat="39.5845622" lon="21.0401545"><ele>956.0</ele><time>2026-04-27T10:01:08.176Z</time></trkpt><trkpt lat="39.5846643" lon="21.0400636"><ele>964.25</ele><time>2026-04-27T10:01:09.176Z</time></trkpt><trkpt lat="39.5847507" lon="21.0399522"><ele>972.5</ele><time>2026-04-27T10:01:10.176Z</time></trkpt><trkpt lat="39.5848348" lon="21.0398111"><ele>980.75</ele><time>2026-04-27T10:01:11.176Z</time></trkpt><trkpt lat="39.5849231" lon="21.0396519"><ele>989.0</ele><time>2026-04-27T10:01:12.177Z</time></trkpt><trkpt lat="39.585017" lon="21.0394901"><ele>989.0</ele><time>2026-04-27T10:01:13.176Z</time></trkpt><trkpt lat="39.5851144" lon="21.0393174"><ele>989.0</ele><time>2026-04-27T10:01:14.176Z</time></trkpt><trkpt lat="39.5852234" lon="21.0391292"><ele>989.0</ele><time>2026-04-27T10:01:15.176Z</time></trkpt><trkpt lat="39.5853356" lon="21.0389257"><ele>984.3333333333334</ele><time>2026-04-27T10:01:16.176Z</time></trkpt><trkpt lat="39.5854516" lon="21.0387216"><ele>979.6666666666667</ele><time>2026-04-27T10:01:17.177Z</time></trkpt><trkpt lat="39.5855776" lon="21.0385615"><ele>975.0</ele><time>2026-04-27T10:01:18.176Z</time></trkpt><trkpt lat="39.5856927" lon="21.0384091"><ele>983.3333333333333</ele><time>2026-04-27T10:01:19.176Z</time></trkpt><trkpt lat="39.5858005" lon="21.0382624"><ele>991.6666666666666</ele><time>2026-04-27T10:01:20.176Z</time></trkpt><trkpt lat="39.5858994" lon="21.0380997"><ele>1000.0</ele><time>2026-04-27T10:01:21.177Z</time></trkpt><trkpt lat="39.5859858" lon="21.0379124"><ele>1000.0</ele><time>2026-04-27T10:01:22.176Z</time></trkpt><trkpt lat="39.586059" lon="21.0376931"><ele>1000.0</ele><time>2026-04-27T10:01:23.176Z</time></trkpt><trkpt lat="39.5861285" lon="21.0374782"><ele>1000.0</ele><time>2026-04-27T10:01:24.176Z</time></trkpt><trkpt lat="39.586201" lon="21.0372779"><ele>993.5</ele><time>2026-04-27T10:01:25.177Z</time></trkpt><trkpt lat="39.586271" lon="21.0370919"><ele>987.0</ele><time>2026-04-27T10:01:26.176Z</time></trkpt><trkpt lat="39.5863434" lon="21.0369375"><ele>980.5</ele><time>2026-04-27T10:01:27.177Z</time></trkpt><trkpt lat="39.5864269" lon="21.0368097"><ele>974.0</ele><time>2026-04-27T10:01:28.177Z</time></trkpt><trkpt lat="39.5865211" lon="21.0366946"><ele>971.6</ele><time>2026-04-27T10:01:29.176Z</time></trkpt><trkpt lat="39.5866346" lon="21.0366264"><ele>969.2</ele><time>2026-04-27T10:01:30.177Z</time></trkpt><trkpt lat="39.586745" lon="21.0365873"><ele>966.8000000000001</ele><time>2026-04-27T10:01:31.177Z</time></trkpt><trkpt lat="39.5868403" lon="21.0365368"><ele>964.4000000000001</ele><time>2026-04-27T10:01:32.176Z</time></trkpt><trkpt lat="39.5869235" lon="21.036479"><ele>962.0</ele><time>2026-04-27T10:01:33.176Z</time></trkpt><trkpt lat="39.5869774" lon="21.0363739"><ele>962.0</ele><time>2026-04-27T10:01:34.177Z</time></trkpt><trkpt lat="39.5869969" lon="21.0362565"><ele>962.0</ele><time>2026-04-27T10:01:35.176Z</time></trkpt><trkpt lat="39.5869895" lon="21.0361412"><ele>962.0</ele><time>2026-04-27T10:01:36.177Z</time></trkpt><trkpt lat="39.5869348" lon="21.0360377"><ele>962.0</ele><time>2026-04-27T10:01:37.176Z</time></trkpt><trkpt lat="39.5868315" lon="21.035951"><ele>962.0</ele><time>2026-04-27T10:01:38.176Z</time></trkpt><trkpt lat="39.5867105" lon="21.0358846"><ele>962.0</ele><time>2026-04-27T10:01:39.176Z</time></trkpt><trkpt lat="39.5865836" lon="21.0358471"><ele>962.0</ele><time>2026-04-27T10:01:40.176Z</time></trkpt><trkpt lat="39.5864414" lon="21.0358433"><ele>962.0</ele><time>2026-04-27T10:01:41.176Z</time></trkpt><trkpt lat="39.5863049" lon="21.0358507"><ele>962.0</ele><time>2026-04-27T10:01:42.176Z</time></trkpt><trkpt lat="39.5861796" lon="21.0358394"><ele>957.6</ele><time>2026-04-27T10:01:43.176Z</time></trkpt><trkpt lat="39.5860674" lon="21.0357962"><ele>953.2</ele><time>2026-04-27T10:01:44.176Z</time></trkpt><trkpt lat="39.5859688" lon="21.0357269"><ele>948.8</ele><time>2026-04-27T10:01:45.176Z</time></trkpt><trkpt lat="39.5858846" lon="21.0356615"><ele>944.4</ele><time>2026-04-27T10:01:46.177Z</time></trkpt><trkpt lat="39.5858051" lon="21.0356136"><ele>940.0</ele><time>2026-04-27T10:01:47.176Z</time></trkpt><trkpt lat="39.585694" lon="21.0356133"><ele>940.0</ele><time>2026-04-27T10:01:48.177Z</time></trkpt><trkpt lat="39.58557" lon="21.0356384"><ele>940.0</ele><time>2026-04-27T10:01:49.177Z</time></trkpt><trkpt lat="39.5854279" lon="21.0356956"><ele>940.0</ele><time>2026-04-27T10:01:50.177Z</time></trkpt><trkpt lat="39.585293" lon="21.0357629"><ele>940.0</ele><time>2026-04-27T10:01:51.177Z</time></trkpt><trkpt lat="39.5851614" lon="21.0358095"><ele>948.25</ele><time>2026-04-27T10:01:52.176Z</time></trkpt><trkpt lat="39.585043" lon="21.0358203"><ele>956.5</ele><time>2026-04-27T10:01:53.177Z</time></trkpt><trkpt lat="39.5849398" lon="21.0358564"><ele>964.75</ele><time>2026-04-27T10:01:54.176Z</time></trkpt><trkpt lat="39.5848274" lon="21.035944"><ele>973.0</ele><time>2026-04-27T10:01:55.177Z</time></trkpt><trkpt lat="39.5847178" lon="21.0360521"><ele>973.0</ele><time>2026-04-27T10:01:56.177Z</time></trkpt><trkpt lat="39.5845947" lon="21.0361578"><ele>973.0</ele><time>2026-04-27T10:01:57.176Z</time></trkpt><trkpt lat="39.5844526" lon="21.0362478"><ele>973.0</ele><time>2026-04-27T10:01:58.176Z</time></trkpt><trkpt lat="39.5843002" lon="21.0362901"><ele>969.25</ele><time>2026-04-27T10:01:59.177Z</time></trkpt><trkpt lat="39.5841618" lon="21.0363477"><ele>965.5</ele><time>2026-04-27T10:02:00.176Z</time></trkpt><trkpt lat="39.5840363" lon="21.0364106"><ele>961.75</ele><time>2026-04-27T10:02:01.177Z</time></trkpt><trkpt lat="39.5839233" lon="21.0364671"><ele>958.0</ele><time>2026-04-27T10:02:02.177Z</time></trkpt><trkpt lat="39.5838191" lon="21.0364957"><ele>957.9999999999999</ele><time>2026-04-27T10:02:03.176Z</time></trkpt><trkpt lat="39.5837339" lon="21.0364919"><ele>958.0</ele><time>2026-04-27T10:02:04.176Z</time></trkpt><trkpt lat="39.5836685" lon="21.0364528"><ele>958.0</ele><time>2026-04-27T10:02:05.176Z</time></trkpt><trkpt lat="39.5836246" lon="21.0363728"><ele>958.0</ele><time>2026-04-27T10:02:06.177Z</time></trkpt><trkpt lat="39.583594" lon="21.0362867"><ele>957.9999999999999</ele><time>2026-04-27T10:02:07.177Z</time></trkpt><trkpt lat="39.5835825" lon="21.036181"><ele>958.0</ele><time>2026-04-27T10:02:08.177Z</time></trkpt><trkpt lat="39.583564" lon="21.0360716"><ele>961.0</ele><time>2026-04-27T10:02:09.177Z</time></trkpt><trkpt lat="39.5835234" lon="21.0359646"><ele>964.0</ele><time>2026-04-27T10:02:10.177Z</time></trkpt><trkpt lat="39.5834514" lon="21.0358632"><ele>967.0</ele><time>2026-04-27T10:02:11.177Z</time></trkpt><trkpt lat="39.5833529" lon="21.0357799"><ele>970.0</ele><time>2026-04-27T10:02:12.177Z</time></trkpt><trkpt lat="39.5832435" lon="21.0356911"><ele>973.0</ele><time>2026-04-27T10:02:13.176Z</time></trkpt><trkpt lat="39.5831424" lon="21.0355875"><ele>973.0</ele><time>2026-04-27T10:02:14.176Z</time></trkpt><trkpt lat="39.5830541" lon="21.0354771"><ele>973.0</ele><time>2026-04-27T10:02:15.176Z</time></trkpt><trkpt lat="39.5829696" lon="21.0353757"><ele>973.0</ele><time>2026-04-27T10:02:16.176Z</time></trkpt><trkpt lat="39.5829084" lon="21.0352938"><ele>973.0</ele><time>2026-04-27T10:02:17.176Z</time></trkpt><trkpt lat="39.5828689" lon="21.0351997"><ele>973.0</ele><time>2026-04-27T10:02:18.176Z</time></trkpt><trkpt lat="39.5828942" lon="21.0350953"><ele>973.0</ele><time>2026-04-27T10:02:19.176Z</time></trkpt><trkpt lat="39.5829393" lon="21.0349972"><ele>973.0</ele><time>2026-04-27T10:02:20.177Z</time></trkpt><trkpt lat="39.5830304" lon="21.0348966"><ele>973.0</ele><time>2026-04-27T10:02:21.176Z</time></trkpt><trkpt lat="39.5831347" lon="21.0348023"><ele>973.0</ele><time>2026-04-27T10:02:22.176Z</time></trkpt><trkpt lat="39.583246" lon="21.0346934"><ele>977.5</ele><time>2026-04-27T10:02:23.176Z</time></trkpt><trkpt lat="39.5833419" lon="21.0345559"><ele>982.0</ele><time>2026-04-27T10:02:24.177Z</time></trkpt><trkpt lat="39.5834352" lon="21.0344"><ele>986.5</ele><time>2026-04-27T10:02:25.177Z</time></trkpt><trkpt lat="39.5835064" lon="21.0342453"><ele>991.0</ele><time>2026-04-27T10:02:26.177Z</time></trkpt><trkpt lat="39.5835612" lon="21.0341001"><ele>994.0</ele><time>2026-04-27T10:02:27.176Z</time></trkpt><trkpt lat="39.5835967" lon="21.033963"><ele>997.0</ele><time>2026-04-27T10:02:28.176Z</time></trkpt><trkpt lat="39.5836202" lon="21.0338298"><ele>1000.0</ele><time>2026-04-27T10:02:29.177Z</time></trkpt><trkpt lat="39.5835553" lon="21.0336721"><ele>1003.0</ele><time>2026-04-27T10:02:30.177Z</time></trkpt><trkpt lat="39.5834977" lon="21.0335359"><ele>1003.0</ele><time>2026-04-27T10:02:31.176Z</time></trkpt><trkpt lat="39.5834562" lon="21.0334124"><ele>1003.0</ele><time>2026-04-27T10:02:32.177Z</time></trkpt><trkpt lat="39.5834406" lon="21.0332852"><ele>1003.0</ele><time>2026-04-27T10:02:33.176Z</time></trkpt><trkpt lat="39.5834517" lon="21.0331534"><ele>1003.0</ele><time>2026-04-27T10:02:34.176Z</time></trkpt><trkpt lat="39.5835186" lon="21.0329975"><ele>1003.0</ele><time>2026-04-27T10:02:35.176Z</time></trkpt><trkpt lat="39.583585" lon="21.0327982"><ele>1007.0</ele><time>2026-04-27T10:02:36.176Z</time></trkpt><trkpt lat="39.5836461" lon="21.0325908"><ele>1011.0</ele><time>2026-04-27T10:02:37.177Z</time></trkpt><trkpt lat="39.5836896" lon="21.0323969"><ele>1015.0</ele><time>2026-04-27T10:02:38.177Z</time></trkpt><trkpt lat="39.5837269" lon="21.0322099"><ele>1008.6</ele><time>2026-04-27T10:02:39.176Z</time></trkpt><trkpt lat="39.5837724" lon="21.0320546"><ele>1002.2</ele><time>2026-04-27T10:02:40.176Z</time></trkpt><trkpt lat="39.5838233" lon="21.0319226"><ele>995.8</ele><time>2026-04-27T10:02:41.177Z</time></trkpt><trkpt lat="39.5838775" lon="21.0318227"><ele>989.4</ele><time>2026-04-27T10:02:42.177Z</time></trkpt><trkpt lat="39.5839341" lon="21.0317246"><ele>983.0</ele><time>2026-04-27T10:02:43.176Z</time></trkpt><trkpt lat="39.5839802" lon="21.0316397"><ele>982.6666666666667</ele><time>2026-04-27T10:02:44.176Z</time></trkpt><trkpt lat="39.5840387" lon="21.031546"><ele>982.3333333333334</ele><time>2026-04-27T10:02:45.177Z</time></trkpt><trkpt lat="39.5840829" lon="21.0314832"><ele>982.0</ele><time>2026-04-27T10:02:46.177Z</time></trkpt><trkpt lat="39.5841211" lon="21.0314041"><ele>981.6666666666667</ele><time>2026-04-27T10:02:47.177Z</time></trkpt><trkpt lat="39.5841592" lon="21.0312875"><ele>981.3333333333334</ele><time>2026-04-27T10:02:49.176Z</time></trkpt><trkpt lat="39.5841511" lon="21.0311887"><ele>981.0</ele><time>2026-04-27T10:02:51.177Z</time></trkpt><trkpt lat="39.5840934" lon="21.0310906"><ele>981.0</ele><time>2026-04-27T10:02:53.176Z</time></trkpt><trkpt lat="39.5840274" lon="21.0310699"><ele>980.9999999999999</ele><time>2026-04-27T10:02:54.177Z</time></trkpt><trkpt lat="39.5839324" lon="21.031064"><ele>980.9999999999999</ele><time>2026-04-27T10:02:55.177Z</time></trkpt><trkpt lat="39.5838014" lon="21.0310559"><ele>981.0</ele><time>2026-04-27T10:02:56.176Z</time></trkpt><trkpt lat="39.5836743" lon="21.0310434"><ele>981.0</ele><time>2026-04-27T10:02:57.176Z</time></trkpt><trkpt lat="39.5835396" lon="21.0310165"><ele>981.0</ele><time>2026-04-27T10:02:58.177Z</time></trkpt><trkpt lat="39.5834012" lon="21.0309796"><ele>981.0</ele><time>2026-04-27T10:02:59.177Z</time></trkpt><trkpt lat="39.5832615" lon="21.0308962"><ele>981.0</ele><time>2026-04-27T10:03:00.177Z</time></trkpt><trkpt lat="39.5831306" lon="21.0307975"><ele>981.0</ele><time>2026-04-27T10:03:01.177Z</time></trkpt><trkpt lat="39.5830129" lon="21.0307026"><ele>981.0</ele><time>2026-04-27T10:03:02.177Z</time></trkpt><trkpt lat="39.5829031" lon="21.0306163"><ele>981.0</ele><time>2026-04-27T10:03:03.176Z</time></trkpt><trkpt lat="39.5827855" lon="21.0305469"><ele>981.0</ele><time>2026-04-27T10:03:04.177Z</time></trkpt><trkpt lat="39.5826445" lon="21.0305289"><ele>981.0</ele><time>2026-04-27T10:03:05.176Z</time></trkpt><trkpt lat="39.5824951" lon="21.030503"><ele>986.6666666666667</ele><time>2026-04-27T10:03:06.176Z</time></trkpt><trkpt lat="39.582345" lon="21.0304521"><ele>992.3333333333334</ele><time>2026-04-27T10:03:07.177Z</time></trkpt><trkpt lat="39.5821951" lon="21.0304022"><ele>998.0</ele><time>2026-04-27T10:03:08.176Z</time></trkpt><trkpt lat="39.5820421" lon="21.0303696"><ele>1001.6666666666667</ele><time>2026-04-27T10:03:09.176Z</time></trkpt><trkpt lat="39.5818811" lon="21.0303201"><ele>1005.3333333333333</ele><time>2026-04-27T10:03:10.177Z</time></trkpt><trkpt lat="39.5817223" lon="21.0302547"><ele>1009.0</ele><time>2026-04-27T10:03:11.177Z</time></trkpt><trkpt lat="39.5815773" lon="21.0301676"><ele>1009.0</ele><time>2026-04-27T10:03:12.177Z</time></trkpt><trkpt lat="39.5814624" lon="21.0301003"><ele>1009.0</ele><time>2026-04-27T10:03:13.176Z</time></trkpt><trkpt lat="39.581357" lon="21.0300319"><ele>1009.0</ele><time>2026-04-27T10:03:14.176Z</time></trkpt><trkpt lat="39.5812932" lon="21.0299276"><ele>1009.0</ele><time>2026-04-27T10:03:15.176Z</time></trkpt><trkpt lat="39.5812367" lon="21.0297814"><ele>1006.25</ele><time>2026-04-27T10:03:16.176Z</time></trkpt><trkpt lat="39.5811954" lon="21.0296199"><ele>1003.5</ele><time>2026-04-27T10:03:17.176Z</time></trkpt><trkpt lat="39.5811566" lon="21.0294624"><ele>1000.75</ele><time>2026-04-27T10:03:18.177Z</time></trkpt><trkpt lat="39.5811293" lon="21.0293171"><ele>998.0</ele><time>2026-04-27T10:03:19.177Z</time></trkpt><trkpt lat="39.581132" lon="21.0291501"><ele>998.0</ele><time>2026-04-27T10:03:20.176Z</time></trkpt><trkpt lat="39.5811739" lon="21.0289927"><ele>998.0</ele><time>2026-04-27T10:03:21.177Z</time></trkpt><trkpt lat="39.5811843" lon="21.0288131"><ele>998.0</ele><time>2026-04-27T10:03:22.177Z</time></trkpt><trkpt lat="39.5811684" lon="21.0286115"><ele>998.0</ele><time>2026-04-27T10:03:23.177Z</time></trkpt><trkpt lat="39.5811579" lon="21.028412"><ele>1000.6666666666667</ele><time>2026-04-27T10:03:24.176Z</time></trkpt><trkpt lat="39.5811719" lon="21.0282016"><ele>1003.3333333333333</ele><time>2026-04-27T10:03:25.177Z</time></trkpt><trkpt lat="39.5811987" lon="21.0279671"><ele>1006.0</ele><time>2026-04-27T10:03:26.177Z</time></trkpt><trkpt lat="39.5812496" lon="21.0277345"><ele>1006.0</ele><time>2026-04-27T10:03:27.177Z</time></trkpt><trkpt lat="39.5813042" lon="21.0275049"><ele>1006.0</ele><time>2026-04-27T10:03:28.176Z</time></trkpt><trkpt lat="39.5813736" lon="21.0272903"><ele>1006.0</ele><time>2026-04-27T10:03:29.176Z</time></trkpt><trkpt lat="39.581428" lon="21.0270836"><ele>1007.0</ele><time>2026-04-27T10:03:30.176Z</time></trkpt><trkpt lat="39.5814675" lon="21.0268693"><ele>1008.0</ele><time>2026-04-27T10:03:31.177Z</time></trkpt><trkpt lat="39.5814913" lon="21.0266437"><ele>1009.0</ele><time>2026-04-27T10:03:32.176Z</time></trkpt><trkpt lat="39.5815002" lon="21.0264289"><ele>1011.0</ele><time>2026-04-27T10:03:33.177Z</time></trkpt><trkpt lat="39.5815028" lon="21.0262332"><ele>1013.0</ele><time>2026-04-27T10:03:34.177Z</time></trkpt><trkpt lat="39.5815121" lon="21.0260549"><ele>1015.0</ele><time>2026-04-27T10:03:35.176Z</time></trkpt><trkpt lat="39.5815458" lon="21.0258841"><ele>1017.0</ele><time>2026-04-27T10:03:36.176Z</time></trkpt><trkpt lat="39.5816016" lon="21.0257347"><ele>1018.75</ele><time>2026-04-27T10:03:37.176Z</time></trkpt><trkpt lat="39.5816781" lon="21.0255809"><ele>1020.5</ele><time>2026-04-27T10:03:38.177Z</time></trkpt><trkpt lat="39.5817376" lon="21.0254072"><ele>1022.25</ele><time>2026-04-27T10:03:39.177Z</time></trkpt><trkpt lat="39.5817838" lon="21.0252193"><ele>1024.0</ele><time>2026-04-27T10:03:40.176Z</time></trkpt><trkpt lat="39.5818126" lon="21.0250276"><ele>1027.0</ele><time>2026-04-27T10:03:41.177Z</time></trkpt><trkpt lat="39.5818304" lon="21.0248507"><ele>1030.0</ele><time>2026-04-27T10:03:42.176Z</time></trkpt><trkpt lat="39.5818254" lon="21.0246799"><ele>1033.0</ele><time>2026-04-27T10:03:43.176Z</time></trkpt><trkpt lat="39.581828" lon="21.0245241"><ele>1036.0</ele><time>2026-04-27T10:03:44.177Z</time></trkpt><trkpt lat="39.581868" lon="21.0243722"><ele>1036.0</ele><time>2026-04-27T10:03:45.177Z</time></trkpt><trkpt lat="39.5819452" lon="21.024258"><ele>1036.0</ele><time>2026-04-27T10:03:46.177Z</time></trkpt><trkpt lat="39.5820426" lon="21.024136"><ele>1036.0</ele><time>2026-04-27T10:03:47.176Z</time></trkpt><trkpt lat="39.5821318" lon="21.0239896"><ele>1036.0</ele><time>2026-04-27T10:03:48.176Z</time></trkpt><trkpt lat="39.5822047" lon="21.0238386"><ele>1035.0</ele><time>2026-04-27T10:03:49.176Z</time></trkpt><trkpt lat="39.5822591" lon="21.0236896"><ele>1034.0</ele><time>2026-04-27T10:03:50.177Z</time></trkpt><trkpt lat="39.582299" lon="21.0235577"><ele>1033.0</ele><time>2026-04-27T10:03:51.176Z</time></trkpt><trkpt lat="39.5823207" lon="21.0234491"><ele>1032.0</ele><time>2026-04-27T10:03:52.176Z</time></trkpt><trkpt lat="39.5822779" lon="21.0233035"><ele>1031.0</ele><time>2026-04-27T10:03:54.177Z</time></trkpt><trkpt lat="39.5821421" lon="21.0233252"><ele>1031.0</ele><time>2026-04-27T10:03:56.176Z</time></trkpt><trkpt lat="39.5820541" lon="21.0233987"><ele>1031.0</ele><time>2026-04-27T10:03:57.177Z</time></trkpt><trkpt lat="39.5819617" lon="21.0235479"><ele>1031.0</ele><time>2026-04-27T10:03:58.177Z</time></trkpt><trkpt lat="39.5818511" lon="21.0237311"><ele>1031.0</ele><time>2026-04-27T10:03:59.176Z</time></trkpt><trkpt lat="39.581741" lon="21.0239131"><ele>1032.6666666666667</ele><time>2026-04-27T10:04:00.177Z</time></trkpt><trkpt lat="39.5816086" lon="21.0240591"><ele>1034.3333333333333</ele><time>2026-04-27T10:04:01.176Z</time></trkpt><trkpt lat="39.581483" lon="21.0242038"><ele>1036.0</ele><time>2026-04-27T10:04:02.176Z</time></trkpt><trkpt lat="39.5813768" lon="21.024353"><ele>1036.0</ele><time>2026-04-27T10:04:03.177Z</time></trkpt><trkpt lat="39.5812905" lon="21.0245137"><ele>1036.0</ele><time>2026-04-27T10:04:04.176Z</time></trkpt><trkpt lat="39.5811982" lon="21.0246784"><ele>1036.0</ele><time>2026-04-27T10:04:05.177Z</time></trkpt><trkpt lat="39.5810913" lon="21.0248229"><ele>1040.5</ele><time>2026-04-27T10:04:06.177Z</time></trkpt><trkpt lat="39.5809753" lon="21.0249527"><ele>1045.0</ele><time>2026-04-27T10:04:07.177Z</time></trkpt><trkpt lat="39.5808611" lon="21.0250736"><ele>1049.5</ele><time>2026-04-27T10:04:08.176Z</time></trkpt><trkpt lat="39.5807574" lon="21.0251845"><ele>1054.0</ele><time>2026-04-27T10:04:09.176Z</time></trkpt><trkpt lat="39.5806746" lon="21.0253178"><ele>1054.0</ele><time>2026-04-27T10:04:10.177Z</time></trkpt><trkpt lat="39.5806002" lon="21.0254558"><ele>1054.0</ele><time>2026-04-27T10:04:11.176Z</time></trkpt><trkpt lat="39.5804977" lon="21.0255978"><ele>1054.0</ele><time>2026-04-27T10:04:12.176Z</time></trkpt><trkpt lat="39.5803894" lon="21.0257104"><ele>1054.0</ele><time>2026-04-27T10:04:13.176Z</time></trkpt><trkpt lat="39.5802811" lon="21.0258084"><ele>1056.25</ele><time>2026-04-27T10:04:14.177Z</time></trkpt><trkpt lat="39.5801815" lon="21.0258924"><ele>1058.5</ele><time>2026-04-27T10:04:15.177Z</time></trkpt><trkpt lat="39.5800983" lon="21.0259946"><ele>1060.75</ele><time>2026-04-27T10:04:16.177Z</time></trkpt><trkpt lat="39.580035" lon="21.0261387"><ele>1063.0</ele><time>2026-04-27T10:04:17.176Z</time></trkpt><trkpt lat="39.5799862" lon="21.0262851"><ele>1063.0</ele><time>2026-04-27T10:04:18.176Z</time></trkpt><trkpt lat="39.5799528" lon="21.0264226"><ele>1063.0</ele><time>2026-04-27T10:04:19.177Z</time></trkpt><trkpt lat="39.5799297" lon="21.026551"><ele>1063.0</ele><time>2026-04-27T10:04:20.177Z</time></trkpt><trkpt lat="39.579913" lon="21.0266564"><ele>1063.0</ele><time>2026-04-27T10:04:21.177Z</time></trkpt><trkpt lat="39.5798995" lon="21.026752"><ele>1063.0</ele><time>2026-04-27T10:04:22.177Z</time></trkpt><trkpt lat="39.5798173" lon="21.0268189"><ele>1063.0</ele><time>2026-04-27T10:04:24.176Z</time></trkpt><trkpt lat="39.5797723" lon="21.0266868"><ele>1063.0</ele><time>2026-04-27T10:04:26.177Z</time></trkpt><trkpt lat="39.5797822" lon="21.0265783"><ele>1063.0</ele><time>2026-04-27T10:04:27.177Z</time></trkpt><trkpt lat="39.5797853" lon="21.0264139"><ele>1063.0</ele><time>2026-04-27T10:04:28.177Z</time></trkpt><trkpt lat="39.5797811" lon="21.0262102"><ele>1063.0</ele><time>2026-04-27T10:04:29.177Z</time></trkpt><trkpt lat="39.579776" lon="21.0260128"><ele>1063.0</ele><time>2026-04-27T10:04:30.177Z</time></trkpt><trkpt lat="39.5797705" lon="21.0258388"><ele>1063.0</ele><time>2026-04-27T10:04:31.177Z</time></trkpt><trkpt lat="39.5798011" lon="21.0256911"><ele>1063.0</ele><time>2026-04-27T10:04:32.177Z</time></trkpt><trkpt lat="39.5798682" lon="21.0255444"><ele>1066.3333333333333</ele><time>2026-04-27T10:04:33.177Z</time></trkpt><trkpt lat="39.5799528" lon="21.0253751"><ele>1069.6666666666667</ele><time>2026-04-27T10:04:34.177Z</time></trkpt><trkpt lat="39.5800358" lon="21.0251654"><ele>1073.0</ele><time>2026-04-27T10:04:35.177Z</time></trkpt><trkpt lat="39.5801156" lon="21.0249376"><ele>1069.0</ele><time>2026-04-27T10:04:36.176Z</time></trkpt><trkpt lat="39.5802082" lon="21.02473"><ele>1065.0</ele><time>2026-04-27T10:04:37.177Z</time></trkpt><trkpt lat="39.5803069" lon="21.0245336"><ele>1061.0</ele><time>2026-04-27T10:04:38.177Z</time></trkpt><trkpt lat="39.5804017" lon="21.0243239"><ele>1063.6666666666667</ele><time>2026-04-27T10:04:39.177Z</time></trkpt><trkpt lat="39.5804657" lon="21.0240777"><ele>1066.3333333333333</ele><time>2026-04-27T10:04:40.177Z</time></trkpt><trkpt lat="39.5805142" lon="21.0238371"><ele>1069.0</ele><time>2026-04-27T10:04:41.176Z</time></trkpt><trkpt lat="39.5805534" lon="21.0235911"><ele>1069.0</ele><time>2026-04-27T10:04:42.177Z</time></trkpt><trkpt lat="39.5806125" lon="21.0233612"><ele>1069.0</ele><time>2026-04-27T10:04:43.177Z</time></trkpt><trkpt lat="39.5806923" lon="21.0231242"><ele>1069.0</ele><time>2026-04-27T10:04:44.177Z</time></trkpt><trkpt lat="39.5807815" lon="21.0229063"><ele>1072.6666666666665</ele><time>2026-04-27T10:04:45.176Z</time></trkpt><trkpt lat="39.5808594" lon="21.0227126"><ele>1076.3333333333333</ele><time>2026-04-27T10:04:46.176Z</time></trkpt><trkpt lat="39.5809273" lon="21.0225232"><ele>1080.0</ele><time>2026-04-27T10:04:47.176Z</time></trkpt><trkpt lat="39.5810007" lon="21.0223556"><ele>1077.3333333333333</ele><time>2026-04-27T10:04:48.177Z</time></trkpt><trkpt lat="39.5810766" lon="21.0221872"><ele>1074.6666666666665</ele><time>2026-04-27T10:04:49.176Z</time></trkpt><trkpt lat="39.5811749" lon="21.0220161"><ele>1072.0</ele><time>2026-04-27T10:04:50.177Z</time></trkpt><trkpt lat="39.5812457" lon="21.021826"><ele>1074.6666666666665</ele><time>2026-04-27T10:04:51.177Z</time></trkpt><trkpt lat="39.5813007" lon="21.0216141"><ele>1077.3333333333333</ele><time>2026-04-27T10:04:52.177Z</time></trkpt><trkpt lat="39.5813606" lon="21.0214048"><ele>1080.0</ele><time>2026-04-27T10:04:53.177Z</time></trkpt><trkpt lat="39.5814189" lon="21.0212001"><ele>1080.0</ele><time>2026-04-27T10:04:54.177Z</time></trkpt><trkpt lat="39.5814637" lon="21.0210033"><ele>1080.0</ele><time>2026-04-27T10:04:55.177Z</time></trkpt><trkpt lat="39.5814966" lon="21.0207849"><ele>1080.0</ele><time>2026-04-27T10:04:56.176Z</time></trkpt><trkpt lat="39.5815478" lon="21.0205837"><ele>1084.0</ele><time>2026-04-27T10:04:57.177Z</time></trkpt><trkpt lat="39.5816209" lon="21.0203998"><ele>1088.0</ele><time>2026-04-27T10:04:58.177Z</time></trkpt><trkpt lat="39.5817068" lon="21.0202366"><ele>1092.0</ele><time>2026-04-27T10:04:59.176Z</time></trkpt><trkpt lat="39.581813" lon="21.0200924"><ele>1089.0</ele><time>2026-04-27T10:05:00.177Z</time></trkpt><trkpt lat="39.5819235" lon="21.0199541"><ele>1086.0</ele><time>2026-04-27T10:05:01.176Z</time></trkpt><trkpt lat="39.5820216" lon="21.0198186"><ele>1083.0</ele><time>2026-04-27T10:05:02.177Z</time></trkpt><trkpt lat="39.5821053" lon="21.0196563"><ele>1080.0</ele><time>2026-04-27T10:05:03.177Z</time></trkpt><trkpt lat="39.582164" lon="21.0194525"><ele>1080.0</ele><time>2026-04-27T10:05:04.176Z</time></trkpt><trkpt lat="39.5821963" lon="21.0192525"><ele>1080.0</ele><time>2026-04-27T10:05:05.176Z</time></trkpt><trkpt lat="39.582211" lon="21.0190528"><ele>1080.0</ele><time>2026-04-27T10:05:06.176Z</time></trkpt><trkpt lat="39.5822025" lon="21.0188723"><ele>1079.3333333333333</ele><time>2026-04-27T10:05:07.176Z</time></trkpt><trkpt lat="39.5821512" lon="21.0186922"><ele>1078.6666666666665</ele><time>2026-04-27T10:05:08.176Z</time></trkpt><trkpt lat="39.5820621" lon="21.0185171"><ele>1078.0</ele><time>2026-04-27T10:05:09.177Z</time></trkpt><trkpt lat="39.581949" lon="21.0183488"><ele>1083.6666666666665</ele><time>2026-04-27T10:05:10.177Z</time></trkpt><trkpt lat="39.5818342" lon="21.0181798"><ele>1089.3333333333333</ele><time>2026-04-27T10:05:11.177Z</time></trkpt><trkpt lat="39.5817256" lon="21.0180006"><ele>1095.0</ele><time>2026-04-27T10:05:12.176Z</time></trkpt><trkpt lat="39.5816326" lon="21.0178147"><ele>1095.0</ele><time>2026-04-27T10:05:13.177Z</time></trkpt><trkpt lat="39.5815458" lon="21.0176477"><ele>1095.0</ele><time>2026-04-27T10:05:14.177Z</time></trkpt><trkpt lat="39.5814622" lon="21.017513"><ele>1095.0</ele><time>2026-04-27T10:05:15.176Z</time></trkpt><trkpt lat="39.5813614" lon="21.0174231"><ele>1095.0</ele><time>2026-04-27T10:05:16.177Z</time></trkpt><trkpt lat="39.5812532" lon="21.0173693"><ele>1098.75</ele><time>2026-04-27T10:05:17.177Z</time></trkpt><trkpt lat="39.5811214" lon="21.0173333"><ele>1102.5</ele><time>2026-04-27T10:05:18.176Z</time></trkpt><trkpt lat="39.5810031" lon="21.0172912"><ele>1106.25</ele><time>2026-04-27T10:05:19.176Z</time></trkpt><trkpt lat="39.5808996" lon="21.0172612"><ele>1110.0</ele><time>2026-04-27T10:05:20.177Z</time></trkpt><trkpt lat="39.5807972" lon="21.0172802"><ele>1110.0</ele><time>2026-04-27T10:05:21.177Z</time></trkpt><trkpt lat="39.5806945" lon="21.0173471"><ele>1110.0</ele><time>2026-04-27T10:05:22.177Z</time></trkpt><trkpt lat="39.580593" lon="21.017456"><ele>1110.0</ele><time>2026-04-27T10:05:23.177Z</time></trkpt><trkpt lat="39.5805159" lon="21.0175799"><ele>1110.0</ele><time>2026-04-27T10:05:24.176Z</time></trkpt><trkpt lat="39.5804497" lon="21.0177128"><ele>1110.5</ele><time>2026-04-27T10:05:25.177Z</time></trkpt><trkpt lat="39.5804126" lon="21.0178652"><ele>1111.0</ele><time>2026-04-27T10:05:26.177Z</time></trkpt><trkpt lat="39.5803993" lon="21.0180495"><ele>1111.5</ele><time>2026-04-27T10:05:27.176Z</time></trkpt><trkpt lat="39.5803889" lon="21.0182641"><ele>1112.0</ele><time>2026-04-27T10:05:28.177Z</time></trkpt><trkpt lat="39.5803644" lon="21.0184865"><ele>1106.6666666666667</ele><time>2026-04-27T10:05:29.177Z</time></trkpt><trkpt lat="39.5803191" lon="21.0187106"><ele>1101.3333333333333</ele><time>2026-04-27T10:05:30.177Z</time></trkpt><trkpt lat="39.5802487" lon="21.0189158"><ele>1096.0</ele><time>2026-04-27T10:05:31.177Z</time></trkpt><trkpt lat="39.5801423" lon="21.0190976"><ele>1098.3333333333333</ele><time>2026-04-27T10:05:32.176Z</time></trkpt><trkpt lat="39.5800046" lon="21.0192685"><ele>1100.6666666666667</ele><time>2026-04-27T10:05:33.176Z</time></trkpt><trkpt lat="39.5798682" lon="21.0194167"><ele>1103.0</ele><time>2026-04-27T10:05:34.177Z</time></trkpt><trkpt lat="39.5797401" lon="21.0195283"><ele>1103.0</ele><time>2026-04-27T10:05:35.177Z</time></trkpt><trkpt lat="39.579601" lon="21.019609"><ele>1103.0</ele><time>2026-04-27T10:05:36.177Z</time></trkpt><trkpt lat="39.5794936" lon="21.0196734"><ele>1103.0</ele><time>2026-04-27T10:05:37.177Z</time></trkpt><trkpt lat="39.5794048" lon="21.0197922"><ele>1103.0</ele><time>2026-04-27T10:05:38.177Z</time></trkpt><trkpt lat="39.5793361" lon="21.0199479"><ele>1100.5</ele><time>2026-04-27T10:05:39.177Z</time></trkpt><trkpt lat="39.5792661" lon="21.0200917"><ele>1098.0</ele><time>2026-04-27T10:05:40.177Z</time></trkpt><trkpt lat="39.5791604" lon="21.0202146"><ele>1095.5</ele><time>2026-04-27T10:05:41.176Z</time></trkpt><trkpt lat="39.5790435" lon="21.0203236"><ele>1093.0</ele><time>2026-04-27T10:05:42.176Z</time></trkpt><trkpt lat="39.5789584" lon="21.0204602"><ele>1093.0</ele><time>2026-04-27T10:05:43.176Z</time></trkpt><trkpt lat="39.5788755" lon="21.0205774"><ele>1093.0</ele><time>2026-04-27T10:05:44.176Z</time></trkpt><trkpt lat="39.5787906" lon="21.0206668"><ele>1093.0</ele><time>2026-04-27T10:05:45.177Z</time></trkpt><trkpt lat="39.5786924" lon="21.0206473"><ele>1093.0</ele><time>2026-04-27T10:05:46.177Z</time></trkpt><trkpt lat="39.5785772" lon="21.0206207"><ele>1093.0</ele><time>2026-04-27T10:05:47.177Z</time></trkpt><trkpt lat="39.5784609" lon="21.0206231"><ele>1094.25</ele><time>2026-04-27T10:05:48.177Z</time></trkpt><trkpt lat="39.5783429" lon="21.020678"><ele>1095.5</ele><time>2026-04-27T10:05:49.177Z</time></trkpt><trkpt lat="39.5782173" lon="21.0207968"><ele>1096.75</ele><time>2026-04-27T10:05:50.177Z</time></trkpt><trkpt lat="39.5780896" lon="21.0209152"><ele>1098.0</ele><time>2026-04-27T10:05:51.176Z</time></trkpt><trkpt lat="39.5779547" lon="21.0210138"><ele>1096.0</ele><time>2026-04-27T10:05:52.177Z</time></trkpt><trkpt lat="39.5778187" lon="21.0210994"><ele>1094.0</ele><time>2026-04-27T10:05:53.177Z</time></trkpt><trkpt lat="39.5776795" lon="21.0210611"><ele>1092.0</ele><time>2026-04-27T10:05:54.177Z</time></trkpt><trkpt lat="39.5775325" lon="21.0211196"><ele>1090.0</ele><time>2026-04-27T10:05:55.176Z</time></trkpt><trkpt lat="39.577412" lon="21.0212002"><ele>1090.0</ele><time>2026-04-27T10:05:56.177Z</time></trkpt><trkpt lat="39.5772941" lon="21.0212714"><ele>1090.0</ele><time>2026-04-27T10:05:57.177Z</time></trkpt><trkpt lat="39.5771795" lon="21.0213226"><ele>1090.0</ele><time>2026-04-27T10:05:58.176Z</time></trkpt><trkpt lat="39.5770763" lon="21.0213424"><ele>1090.0</ele><time>2026-04-27T10:05:59.177Z</time></trkpt><trkpt lat="39.5769809" lon="21.0213488"><ele>1092.2</ele><time>2026-04-27T10:06:00.176Z</time></trkpt><trkpt lat="39.5768955" lon="21.0213313"><ele>1094.4</ele><time>2026-04-27T10:06:01.176Z</time></trkpt><trkpt lat="39.5768277" lon="21.0212731"><ele>1096.6</ele><time>2026-04-27T10:06:02.177Z</time></trkpt><trkpt lat="39.5767891" lon="21.0211642"><ele>1098.8</ele><time>2026-04-27T10:06:03.177Z</time></trkpt><trkpt lat="39.5767907" lon="21.0210599"><ele>1101.0</ele><time>2026-04-27T10:06:04.176Z</time></trkpt><trkpt lat="39.5768604" lon="21.0209422"><ele>1097.3333333333333</ele><time>2026-04-27T10:06:05.177Z</time></trkpt><trkpt lat="39.5769352" lon="21.0207916"><ele>1093.6666666666665</ele><time>2026-04-27T10:06:06.176Z</time></trkpt><trkpt lat="39.5770117" lon="21.0205901"><ele>1090.0</ele><time>2026-04-27T10:06:07.177Z</time></trkpt><trkpt lat="39.5770787" lon="21.0203639"><ele>1090.0</ele><time>2026-04-27T10:06:08.177Z</time></trkpt><trkpt lat="39.5771675" lon="21.0201671"><ele>1090.0</ele><time>2026-04-27T10:06:09.177Z</time></trkpt><trkpt lat="39.5772564" lon="21.0199925"><ele>1090.0</ele><time>2026-04-27T10:06:10.176Z</time></trkpt><trkpt lat="39.5773371" lon="21.0198358"><ele>1092.5</ele><time>2026-04-27T10:06:11.177Z</time></trkpt><trkpt lat="39.5773882" lon="21.019688"><ele>1095.0</ele><time>2026-04-27T10:06:12.177Z</time></trkpt><trkpt lat="39.5774036" lon="21.0195537"><ele>1097.5</ele><time>2026-04-27T10:06:13.177Z</time></trkpt><trkpt lat="39.5773777" lon="21.0194161"><ele>1100.0</ele><time>2026-04-27T10:06:14.175Z</time></trkpt><trkpt lat="39.5773215" lon="21.0192722"><ele>1098.3333333333335</ele><time>2026-04-27T10:06:15.177Z</time></trkpt><trkpt lat="39.5772406" lon="21.0191033"><ele>1096.6666666666667</ele><time>2026-04-27T10:06:16.177Z</time></trkpt><trkpt lat="39.5771578" lon="21.0189056"><ele>1095.0</ele><time>2026-04-27T10:06:17.177Z</time></trkpt><trkpt lat="39.5770847" lon="21.0187126"><ele>1099.0</ele><time>2026-04-27T10:06:18.177Z</time></trkpt><trkpt lat="39.5769934" lon="21.018514"><ele>1103.0</ele><time>2026-04-27T10:06:19.176Z</time></trkpt><trkpt lat="39.5768851" lon="21.0183321"><ele>1107.0</ele><time>2026-04-27T10:06:20.177Z</time></trkpt><trkpt lat="39.5767717" lon="21.0181625"><ele>1107.0</ele><time>2026-04-27T10:06:21.176Z</time></trkpt><trkpt lat="39.5766523" lon="21.0179925"><ele>1107.0</ele><time>2026-04-27T10:06:22.176Z</time></trkpt><trkpt lat="39.5765347" lon="21.0178223"><ele>1107.0</ele><time>2026-04-27T10:06:23.177Z</time></trkpt><trkpt lat="39.57642" lon="21.0176637"><ele>1107.0</ele><time>2026-04-27T10:06:24.176Z</time></trkpt><trkpt lat="39.5763238" lon="21.0175229"><ele>1107.0</ele><time>2026-04-27T10:06:25.177Z</time></trkpt><trkpt lat="39.5762322" lon="21.017388"><ele>1107.0</ele><time>2026-04-27T10:06:26.177Z</time></trkpt><trkpt lat="39.5761356" lon="21.0172637"><ele>1107.0</ele><time>2026-04-27T10:06:27.177Z</time></trkpt><trkpt lat="39.576034" lon="21.0171732"><ele>1108.5</ele><time>2026-04-27T10:06:28.176Z</time></trkpt><trkpt lat="39.5759205" lon="21.0171146"><ele>1110.0</ele><time>2026-04-27T10:06:29.177Z</time></trkpt><trkpt lat="39.5757859" lon="21.0170708"><ele>1111.5</ele><time>2026-04-27T10:06:30.176Z</time></trkpt><trkpt lat="39.5756359" lon="21.0170301"><ele>1113.0</ele><time>2026-04-27T10:06:31.176Z</time></trkpt><trkpt lat="39.5754902" lon="21.0169892"><ele>1111.75</ele><time>2026-04-27T10:06:32.176Z</time></trkpt><trkpt lat="39.5753468" lon="21.0169497"><ele>1110.5</ele><time>2026-04-27T10:06:33.177Z</time></trkpt><trkpt lat="39.5752223" lon="21.0168785"><ele>1109.25</ele><time>2026-04-27T10:06:34.176Z</time></trkpt><trkpt lat="39.5751247" lon="21.0167511"><ele>1108.0</ele><time>2026-04-27T10:06:35.176Z</time></trkpt><trkpt lat="39.575056" lon="21.0166165"><ele>1102.0</ele><time>2026-04-27T10:06:36.176Z</time></trkpt><trkpt lat="39.5749779" lon="21.0164796"><ele>1096.0</ele><time>2026-04-27T10:06:37.177Z</time></trkpt><trkpt lat="39.5748715" lon="21.0163721"><ele>1090.0</ele><time>2026-04-27T10:06:38.177Z</time></trkpt><trkpt lat="39.5747433" lon="21.0163063"><ele>1084.0</ele><time>2026-04-27T10:06:39.176Z</time></trkpt><trkpt lat="39.57462" lon="21.0162595"><ele>1087.4</ele><time>2026-04-27T10:06:40.177Z</time></trkpt><trkpt lat="39.5744954" lon="21.0162394"><ele>1090.8000000000002</ele><time>2026-04-27T10:06:41.176Z</time></trkpt><trkpt lat="39.574382" lon="21.0162538"><ele>1094.1999999999998</ele><time>2026-04-27T10:06:42.177Z</time></trkpt><trkpt lat="39.5742911" lon="21.0162805"><ele>1097.6</ele><time>2026-04-27T10:06:43.177Z</time></trkpt><trkpt lat="39.5742021" lon="21.0162793"><ele>1101.0</ele><time>2026-04-27T10:06:44.176Z</time></trkpt><trkpt lat="39.5741301" lon="21.0162318"><ele>1101.0</ele><time>2026-04-27T10:06:45.177Z</time></trkpt><trkpt lat="39.5740895" lon="21.0161444"><ele>1101.0</ele><time>2026-04-27T10:06:46.176Z</time></trkpt><trkpt lat="39.5740876" lon="21.0160233"><ele>1101.0</ele><time>2026-04-27T10:06:47.176Z</time></trkpt><trkpt lat="39.5741116" lon="21.0158633"><ele>1101.0</ele><time>2026-04-27T10:06:48.176Z</time></trkpt><trkpt lat="39.5741506" lon="21.0157187"><ele>1101.0</ele><time>2026-04-27T10:06:49.177Z</time></trkpt><trkpt lat="39.5742008" lon="21.0155877"><ele>1101.0</ele><time>2026-04-27T10:06:50.176Z</time></trkpt><trkpt lat="39.5742608" lon="21.0154789"><ele>1101.0</ele><time>2026-04-27T10:06:51.177Z</time></trkpt><trkpt lat="39.5742918" lon="21.0153476"><ele>1101.0</ele><time>2026-04-27T10:06:52.177Z</time></trkpt><trkpt lat="39.5742749" lon="21.0152256"><ele>1101.0</ele><time>2026-04-27T10:06:53.176Z</time></trkpt><trkpt lat="39.574254" lon="21.0151086"><ele>1101.0</ele><time>2026-04-27T10:06:54.176Z</time></trkpt><trkpt lat="39.574249" lon="21.0149812"><ele>1102.25</ele><time>2026-04-27T10:06:55.177Z</time></trkpt><trkpt lat="39.5742798" lon="21.0148678"><ele>1103.5</ele><time>2026-04-27T10:06:56.177Z</time></trkpt><trkpt lat="39.574328" lon="21.0147533"><ele>1104.75</ele><time>2026-04-27T10:06:57.177Z</time></trkpt><trkpt lat="39.574465" lon="21.0146691"><ele>1106.0</ele><time>2026-04-27T10:06:58.176Z</time></trkpt><trkpt lat="39.5745606" lon="21.0145717"><ele>1096.75</ele><time>2026-04-27T10:06:59.176Z</time></trkpt><trkpt lat="39.574638" lon="21.01446"><ele>1087.5</ele><time>2026-04-27T10:07:00.177Z</time></trkpt><trkpt lat="39.5746729" lon="21.0143142"><ele>1078.25</ele><time>2026-04-27T10:07:01.176Z</time></trkpt><trkpt lat="39.5746786" lon="21.0141445"><ele>1069.0</ele><time>2026-04-27T10:07:02.176Z</time></trkpt><trkpt lat="39.5746494" lon="21.0139633"><ele>1069.5</ele><time>2026-04-27T10:07:03.176Z</time></trkpt><trkpt lat="39.5746047" lon="21.0137987"><ele>1070.0</ele><time>2026-04-27T10:07:04.176Z</time></trkpt><trkpt lat="39.5745676" lon="21.0136432"><ele>1070.5</ele><time>2026-04-27T10:07:05.176Z</time></trkpt><trkpt lat="39.5745594" lon="21.0134798"><ele>1071.0</ele><time>2026-04-27T10:07:06.177Z</time></trkpt><trkpt lat="39.5745874" lon="21.0133198"><ele>1071.0</ele><time>2026-04-27T10:07:07.176Z</time></trkpt><trkpt lat="39.5746674" lon="21.0131654"><ele>1071.0</ele><time>2026-04-27T10:07:08.176Z</time></trkpt><trkpt lat="39.57475" lon="21.0130265"><ele>1071.0</ele><time>2026-04-27T10:07:09.176Z</time></trkpt><trkpt lat="39.5748241" lon="21.0128662"><ele>1071.0</ele><time>2026-04-27T10:07:10.177Z</time></trkpt><trkpt lat="39.5748885" lon="21.0127029"><ele>1071.0</ele><time>2026-04-27T10:07:11.176Z</time></trkpt><trkpt lat="39.574955" lon="21.0125455"><ele>1071.0</ele><time>2026-04-27T10:07:12.177Z</time></trkpt><trkpt lat="39.5750205" lon="21.0123667"><ele>1071.0</ele><time>2026-04-27T10:07:13.177Z</time></trkpt><trkpt lat="39.5750857" lon="21.0121476"><ele>1069.0</ele><time>2026-04-27T10:07:14.177Z</time></trkpt><trkpt lat="39.5751481" lon="21.0119329"><ele>1067.0</ele><time>2026-04-27T10:07:15.177Z</time></trkpt><trkpt lat="39.5752058" lon="21.011722"><ele>1065.0</ele><time>2026-04-27T10:07:16.176Z</time></trkpt><trkpt lat="39.57527" lon="21.0115172"><ele>1063.0</ele><time>2026-04-27T10:07:17.177Z</time></trkpt><trkpt lat="39.5753284" lon="21.0113207"><ele>1061.0</ele><time>2026-04-27T10:07:18.177Z</time></trkpt><trkpt lat="39.5753794" lon="21.0111265"><ele>1059.0</ele><time>2026-04-27T10:07:19.176Z</time></trkpt><trkpt lat="39.5754265" lon="21.010938"><ele>1057.5</ele><time>2026-04-27T10:07:20.176Z</time></trkpt><trkpt lat="39.5754608" lon="21.0107422"><ele>1056.0</ele><time>2026-04-27T10:07:21.177Z</time></trkpt><trkpt lat="39.575491" lon="21.0105554"><ele>1054.5</ele><time>2026-04-27T10:07:22.176Z</time></trkpt><trkpt lat="39.5755007" lon="21.0103717"><ele>1053.0</ele><time>2026-04-27T10:07:23.177Z</time></trkpt><trkpt lat="39.5755086" lon="21.0101995"><ele>1053.0</ele><time>2026-04-27T10:07:24.177Z</time></trkpt><trkpt lat="39.5755344" lon="21.0100362"><ele>1053.0</ele><time>2026-04-27T10:07:25.176Z</time></trkpt><trkpt lat="39.5755843" lon="21.0098952"><ele>1053.0</ele><time>2026-04-27T10:07:26.177Z</time></trkpt><trkpt lat="39.5756417" lon="21.0097537"><ele>1053.0</ele><time>2026-04-27T10:07:27.176Z</time></trkpt><trkpt lat="39.5757047" lon="21.0096075"><ele>1051.6</ele><time>2026-04-27T10:07:28.177Z</time></trkpt><trkpt lat="39.5757389" lon="21.0094538"><ele>1050.1999999999998</ele><time>2026-04-27T10:07:29.177Z</time></trkpt><trkpt lat="39.575742" lon="21.009305"><ele>1048.8</ele><time>2026-04-27T10:07:30.176Z</time></trkpt><trkpt lat="39.5757261" lon="21.0091704"><ele>1047.3999999999999</ele><time>2026-04-27T10:07:31.177Z</time></trkpt><trkpt lat="39.5756821" lon="21.0090504"><ele>1046.0</ele><time>2026-04-27T10:07:32.177Z</time></trkpt><trkpt lat="39.575617" lon="21.0089662"><ele>1045.6</ele><time>2026-04-27T10:07:33.176Z</time></trkpt><trkpt lat="39.5755188" lon="21.008921"><ele>1045.1999999999998</ele><time>2026-04-27T10:07:34.176Z</time></trkpt><trkpt lat="39.5754101" lon="21.0089224"><ele>1044.8000000000002</ele><time>2026-04-27T10:07:35.177Z</time></trkpt><trkpt lat="39.5753119" lon="21.0089621"><ele>1044.4</ele><time>2026-04-27T10:07:36.177Z</time></trkpt><trkpt lat="39.5752219" lon="21.0090466"><ele>1044.0</ele><time>2026-04-27T10:07:37.176Z</time></trkpt><trkpt lat="39.5751557" lon="21.0091698"><ele>1044.0</ele><time>2026-04-27T10:07:38.177Z</time></trkpt><trkpt lat="39.5751067" lon="21.0092981"><ele>1044.0</ele><time>2026-04-27T10:07:39.176Z</time></trkpt><trkpt lat="39.5750717" lon="21.0093987"><ele>1044.0</ele><time>2026-04-27T10:07:40.177Z</time></trkpt><trkpt lat="39.5750094" lon="21.0094742"><ele>1044.0</ele><time>2026-04-27T10:07:41.176Z</time></trkpt><trkpt lat="39.5749391" lon="21.0094649"><ele>1044.0</ele><time>2026-04-27T10:07:42.177Z</time></trkpt><trkpt lat="39.5748743" lon="21.0094295"><ele>1044.0</ele><time>2026-04-27T10:07:43.176Z</time></trkpt><trkpt lat="39.5748309" lon="21.0093239"><ele>1044.0</ele><time>2026-04-27T10:07:44.176Z</time></trkpt><trkpt lat="39.5748259" lon="21.0091731"><ele>1044.0</ele><time>2026-04-27T10:07:45.177Z</time></trkpt><trkpt lat="39.5748006" lon="21.0090141"><ele>1044.0</ele><time>2026-04-27T10:07:46.176Z</time></trkpt><trkpt lat="39.5747616" lon="21.0088689"><ele>1044.0</ele><time>2026-04-27T10:07:47.177Z</time></trkpt><trkpt lat="39.574681" lon="21.0087485"><ele>1042.0</ele><time>2026-04-27T10:07:48.176Z</time></trkpt><trkpt lat="39.5745819" lon="21.008647"><ele>1040.0</ele><time>2026-04-27T10:07:49.176Z</time></trkpt><trkpt lat="39.5744451" lon="21.0085644"><ele>1038.0</ele><time>2026-04-27T10:07:50.177Z</time></trkpt><trkpt lat="39.5743037" lon="21.0084859"><ele>1036.0</ele><time>2026-04-27T10:07:51.176Z</time></trkpt><trkpt lat="39.574158" lon="21.0083984"><ele>1033.0</ele><time>2026-04-27T10:07:52.176Z</time></trkpt><trkpt lat="39.5740154" lon="21.0082892"><ele>1030.0</ele><time>2026-04-27T10:07:53.176Z</time></trkpt><trkpt lat="39.5738884" lon="21.0081862"><ele>1027.0</ele><time>2026-04-27T10:07:54.176Z</time></trkpt><trkpt lat="39.5737735" lon="21.0080618"><ele>1027.5</ele><time>2026-04-27T10:07:55.176Z</time></trkpt><trkpt lat="39.5736752" lon="21.007928"><ele>1028.0</ele><time>2026-04-27T10:07:56.177Z</time></trkpt><trkpt lat="39.5735848" lon="21.0077879"><ele>1028.5</ele><time>2026-04-27T10:07:57.176Z</time></trkpt><trkpt lat="39.5734876" lon="21.0076696"><ele>1029.0</ele><time>2026-04-27T10:07:58.176Z</time></trkpt><trkpt lat="39.5733988" lon="21.0075687"><ele>1027.6666666666667</ele><time>2026-04-27T10:07:59.177Z</time></trkpt><trkpt lat="39.5733326" lon="21.0074821"><ele>1026.3333333333333</ele><time>2026-04-27T10:08:00.176Z</time></trkpt><trkpt lat="39.5732887" lon="21.0073851"><ele>1025.0</ele><time>2026-04-27T10:08:01.177Z</time></trkpt><trkpt lat="39.5732637" lon="21.0072954"><ele>1023.6666666666666</ele><time>2026-04-27T10:08:02.177Z</time></trkpt><trkpt lat="39.5732732" lon="21.0071975"><ele>1022.3333333333333</ele><time>2026-04-27T10:08:03.176Z</time></trkpt><trkpt lat="39.5732963" lon="21.0070912"><ele>1021.0</ele><time>2026-04-27T10:08:04.176Z</time></trkpt><trkpt lat="39.5733044" lon="21.0069892"><ele>1021.0</ele><time>2026-04-27T10:08:05.177Z</time></trkpt><trkpt lat="39.5732778" lon="21.0068972"><ele>1020.9999999999999</ele><time>2026-04-27T10:08:06.176Z</time></trkpt><trkpt lat="39.5732337" lon="21.0068248"><ele>1020.9999999999999</ele><time>2026-04-27T10:08:07.177Z</time></trkpt><trkpt lat="39.5731588" lon="21.0067582"><ele>1021.0</ele><time>2026-04-27T10:08:08.176Z</time></trkpt><trkpt lat="39.5730547" lon="21.0067108"><ele>1021.0</ele><time>2026-04-27T10:08:09.176Z</time></trkpt><trkpt lat="39.5729199" lon="21.0066793"><ele>1019.0</ele><time>2026-04-27T10:08:10.176Z</time></trkpt><trkpt lat="39.5727739" lon="21.0066676"><ele>1017.0</ele><time>2026-04-27T10:08:11.176Z</time></trkpt><trkpt lat="39.5726099" lon="21.0066527"><ele>1015.0</ele><time>2026-04-27T10:08:12.176Z</time></trkpt><trkpt lat="39.5724429" lon="21.0066486"><ele>1012.0</ele><time>2026-04-27T10:08:13.176Z</time></trkpt><trkpt lat="39.5722811" lon="21.0066366"><ele>1009.0</ele><time>2026-04-27T10:08:14.177Z</time></trkpt><trkpt lat="39.5721224" lon="21.006621"><ele>1006.0</ele><time>2026-04-27T10:08:15.176Z</time></trkpt><trkpt lat="39.5719692" lon="21.0065846"><ele>1004.75</ele><time>2026-04-27T10:08:16.177Z</time></trkpt><trkpt lat="39.5718274" lon="21.0065363"><ele>1003.5</ele><time>2026-04-27T10:08:17.176Z</time></trkpt><trkpt lat="39.5716874" lon="21.0064919"><ele>1002.25</ele><time>2026-04-27T10:08:18.176Z</time></trkpt><trkpt lat="39.5715456" lon="21.0064785"><ele>1001.0</ele><time>2026-04-27T10:08:19.177Z</time></trkpt><trkpt lat="39.5713861" lon="21.0064804"><ele>1001.0</ele><time>2026-04-27T10:08:20.176Z</time></trkpt><trkpt lat="39.5712175" lon="21.006503"><ele>1001.0</ele><time>2026-04-27T10:08:21.177Z</time></trkpt><trkpt lat="39.571054" lon="21.0065364"><ele>1001.0</ele><time>2026-04-27T10:08:22.176Z</time></trkpt><trkpt lat="39.5708907" lon="21.0065812"><ele>1000.6666666666667</ele><time>2026-04-27T10:08:23.177Z</time></trkpt><trkpt lat="39.5707315" lon="21.0066341"><ele>1000.3333333333333</ele><time>2026-04-27T10:08:24.177Z</time></trkpt><trkpt lat="39.5705878" lon="21.0067019"><ele>1000.0</ele><time>2026-04-27T10:08:25.176Z</time></trkpt><trkpt lat="39.5704492" lon="21.0067765"><ele>1001.25</ele><time>2026-04-27T10:08:26.177Z</time></trkpt><trkpt lat="39.5703182" lon="21.0068696"><ele>1002.5</ele><time>2026-04-27T10:08:27.177Z</time></trkpt><trkpt lat="39.5702012" lon="21.0069861"><ele>1003.75</ele><time>2026-04-27T10:08:28.177Z</time></trkpt><trkpt lat="39.5700983" lon="21.0071037"><ele>1005.0</ele><time>2026-04-27T10:08:29.177Z</time></trkpt><trkpt lat="39.5699916" lon="21.0072062"><ele>1005.0</ele><time>2026-04-27T10:08:30.177Z</time></trkpt><trkpt lat="39.5698881" lon="21.0072869"><ele>1005.0</ele><time>2026-04-27T10:08:31.177Z</time></trkpt><trkpt lat="39.5697896" lon="21.0073323"><ele>1005.0</ele><time>2026-04-27T10:08:32.177Z</time></trkpt><trkpt lat="39.5697043" lon="21.0072514"><ele>1005.0</ele><time>2026-04-27T10:08:33.176Z</time></trkpt><trkpt lat="39.5696464" lon="21.0071775"><ele>1005.0</ele><time>2026-04-27T10:08:34.176Z</time></trkpt><trkpt lat="39.569632" lon="21.0070475"><ele>1005.0</ele><time>2026-04-27T10:08:35.176Z</time></trkpt><trkpt lat="39.5695991" lon="21.0069233"><ele>1005.0</ele><time>2026-04-27T10:08:36.176Z</time></trkpt><trkpt lat="39.5695341" lon="21.0068101"><ele>1005.0</ele><time>2026-04-27T10:08:37.177Z</time></trkpt><trkpt lat="39.5694264" lon="21.0067101"><ele>1005.0</ele><time>2026-04-27T10:08:38.176Z</time></trkpt><trkpt lat="39.5693115" lon="21.006631"><ele>1001.5</ele><time>2026-04-27T10:08:39.176Z</time></trkpt><trkpt lat="39.5691837" lon="21.0065945"><ele>998.0</ele><time>2026-04-27T10:08:40.177Z</time></trkpt><trkpt lat="39.5690693" lon="21.0065662"><ele>994.5</ele><time>2026-04-27T10:08:41.177Z</time></trkpt><trkpt lat="39.5689639" lon="21.0065144"><ele>991.0</ele><time>2026-04-27T10:08:42.176Z</time></trkpt><trkpt lat="39.5688924" lon="21.0064328"><ele>991.0</ele><time>2026-04-27T10:08:43.177Z</time></trkpt><trkpt lat="39.5688587" lon="21.0063202"><ele>990.9999999999999</ele><time>2026-04-27T10:08:44.176Z</time></trkpt><trkpt lat="39.5688352" lon="21.0061971"><ele>990.9999999999999</ele><time>2026-04-27T10:08:45.176Z</time></trkpt><trkpt lat="39.5687661" lon="21.0060777"><ele>991.0</ele><time>2026-04-27T10:08:46.176Z</time></trkpt><trkpt lat="39.5686533" lon="21.0059665"><ele>991.0</ele><time>2026-04-27T10:08:47.177Z</time></trkpt><trkpt lat="39.568524" lon="21.0058772"><ele>989.25</ele><time>2026-04-27T10:08:48.176Z</time></trkpt><trkpt lat="39.5683932" lon="21.0058163"><ele>987.5</ele><time>2026-04-27T10:08:49.177Z</time></trkpt><trkpt lat="39.568258" lon="21.0057727"><ele>985.75</ele><time>2026-04-27T10:08:50.176Z</time></trkpt><trkpt lat="39.5681449" lon="21.0057101"><ele>984.0</ele><time>2026-04-27T10:08:51.176Z</time></trkpt><trkpt lat="39.5680578" lon="21.0055856"><ele>984.0</ele><time>2026-04-27T10:08:52.176Z</time></trkpt><trkpt lat="39.5679452" lon="21.0054686"><ele>984.0</ele><time>2026-04-27T10:08:53.176Z</time></trkpt><trkpt lat="39.5678021" lon="21.005376"><ele>984.0</ele><time>2026-04-27T10:08:54.177Z</time></trkpt><trkpt lat="39.5676463" lon="21.0052877"><ele>988.6666666666667</ele><time>2026-04-27T10:08:55.177Z</time></trkpt><trkpt lat="39.5675043" lon="21.0051974"><ele>993.3333333333334</ele><time>2026-04-27T10:08:56.177Z</time></trkpt><trkpt lat="39.5673507" lon="21.0051234"><ele>998.0</ele><time>2026-04-27T10:08:57.176Z</time></trkpt><trkpt lat="39.5672112" lon="21.0050408"><ele>996.5</ele><time>2026-04-27T10:08:58.177Z</time></trkpt><trkpt lat="39.5670854" lon="21.004953"><ele>995.0</ele><time>2026-04-27T10:08:59.176Z</time></trkpt><trkpt lat="39.5669708" lon="21.0048567"><ele>993.5</ele><time>2026-04-27T10:09:00.176Z</time></trkpt><trkpt lat="39.5668774" lon="21.0047457"><ele>992.0</ele><time>2026-04-27T10:09:01.177Z</time></trkpt><trkpt lat="39.5667943" lon="21.0046049"><ele>992.0</ele><time>2026-04-27T10:09:02.177Z</time></trkpt><trkpt lat="39.5667139" lon="21.0044462"><ele>992.0</ele><time>2026-04-27T10:09:03.176Z</time></trkpt><trkpt lat="39.5666352" lon="21.0042967"><ele>992.0</ele><time>2026-04-27T10:09:04.177Z</time></trkpt><trkpt lat="39.5665524" lon="21.0041506"><ele>992.0</ele><time>2026-04-27T10:09:05.176Z</time></trkpt><trkpt lat="39.5664598" lon="21.0040373"><ele>990.4000000000001</ele><time>2026-04-27T10:09:06.177Z</time></trkpt><trkpt lat="39.5663615" lon="21.0039419"><ele>988.8000000000001</ele><time>2026-04-27T10:09:07.177Z</time></trkpt><trkpt lat="39.5662854" lon="21.0038496"><ele>987.2</ele><time>2026-04-27T10:09:08.177Z</time></trkpt><trkpt lat="39.5662289" lon="21.0037389"><ele>985.6</ele><time>2026-04-27T10:09:09.177Z</time></trkpt><trkpt lat="39.5661939" lon="21.003619"><ele>984.0</ele><time>2026-04-27T10:09:10.177Z</time></trkpt><trkpt lat="39.5662028" lon="21.0034984"><ele>984.0</ele><time>2026-04-27T10:09:11.177Z</time></trkpt><trkpt lat="39.5662401" lon="21.0033821"><ele>984.0</ele><time>2026-04-27T10:09:12.177Z</time></trkpt><trkpt lat="39.5663181" lon="21.0032806"><ele>984.0</ele><time>2026-04-27T10:09:13.176Z</time></trkpt><trkpt lat="39.5664335" lon="21.0032175"><ele>984.0</ele><time>2026-04-27T10:09:14.177Z</time></trkpt><trkpt lat="39.5665752" lon="21.0031752"><ele>982.6</ele><time>2026-04-27T10:09:15.176Z</time></trkpt><trkpt lat="39.5666848" lon="21.0031188"><ele>981.2</ele><time>2026-04-27T10:09:16.176Z</time></trkpt><trkpt lat="39.5667783" lon="21.003047"><ele>979.8000000000001</ele><time>2026-04-27T10:09:17.177Z</time></trkpt><trkpt lat="39.5668483" lon="21.0029407"><ele>978.4000000000001</ele><time>2026-04-27T10:09:18.176Z</time></trkpt><trkpt lat="39.566896" lon="21.0028385"><ele>977.0</ele><time>2026-04-27T10:09:19.176Z</time></trkpt><trkpt lat="39.5669252" lon="21.0027124"><ele>977.0000000000001</ele><time>2026-04-27T10:09:20.176Z</time></trkpt><trkpt lat="39.56696" lon="21.0026325"><ele>977.0</ele><time>2026-04-27T10:09:21.176Z</time></trkpt><trkpt lat="39.5670135" lon="21.0025794"><ele>977.0</ele><time>2026-04-27T10:09:22.176Z</time></trkpt><trkpt lat="39.5670847" lon="21.0025812"><ele>977.0</ele><time>2026-04-27T10:09:23.176Z</time></trkpt><trkpt lat="39.5671397" lon="21.0026656"><ele>977.0000000000001</ele><time>2026-04-27T10:09:24.177Z</time></trkpt><trkpt lat="39.5671766" lon="21.0027589"><ele>977.0</ele><time>2026-04-27T10:09:25.177Z</time></trkpt><trkpt lat="39.5671955" lon="21.0028827"><ele>975.6</ele><time>2026-04-27T10:09:26.176Z</time></trkpt><trkpt lat="39.5672088" lon="21.0030302"><ele>974.2</ele><time>2026-04-27T10:09:27.176Z</time></trkpt><trkpt lat="39.5672302" lon="21.0031501"><ele>972.8</ele><time>2026-04-27T10:09:28.177Z</time></trkpt><trkpt lat="39.5672743" lon="21.0032493"><ele>971.4</ele><time>2026-04-27T10:09:29.176Z</time></trkpt><trkpt lat="39.5673423" lon="21.0033034"><ele>970.0</ele><time>2026-04-27T10:09:30.176Z</time></trkpt><trkpt lat="39.5674234" lon="21.0033159"><ele>970.0</ele><time>2026-04-27T10:09:31.177Z</time></trkpt><trkpt lat="39.5675113" lon="21.0032633"><ele>970.0</ele><time>2026-04-27T10:09:32.177Z</time></trkpt><trkpt lat="39.5676012" lon="21.0031716"><ele>970.0</ele><time>2026-04-27T10:09:33.177Z</time></trkpt><trkpt lat="39.5676923" lon="21.0030556"><ele>970.0</ele><time>2026-04-27T10:09:34.177Z</time></trkpt><trkpt lat="39.5678012" lon="21.0029358"><ele>966.75</ele><time>2026-04-27T10:09:35.177Z</time></trkpt><trkpt lat="39.5679177" lon="21.0028327"><ele>963.5</ele><time>2026-04-27T10:09:36.177Z</time></trkpt><trkpt lat="39.5680263" lon="21.0027446"><ele>960.25</ele><time>2026-04-27T10:09:37.177Z</time></trkpt><trkpt lat="39.5681223" lon="21.0026489"><ele>957.0</ele><time>2026-04-27T10:09:38.177Z</time></trkpt><trkpt lat="39.568196" lon="21.002544"><ele>955.5</ele><time>2026-04-27T10:09:39.177Z</time></trkpt><trkpt lat="39.5682404" lon="21.0024321"><ele>954.0</ele><time>2026-04-27T10:09:40.177Z</time></trkpt><trkpt lat="39.5682433" lon="21.0023"><ele>952.5</ele><time>2026-04-27T10:09:41.177Z</time></trkpt><trkpt lat="39.5682276" lon="21.0021488"><ele>951.0</ele><time>2026-04-27T10:09:42.176Z</time></trkpt><trkpt lat="39.568184" lon="21.0019832"><ele>951.0</ele><time>2026-04-27T10:09:43.176Z</time></trkpt><trkpt lat="39.5681336" lon="21.0017876"><ele>951.0</ele><time>2026-04-27T10:09:44.177Z</time></trkpt><trkpt lat="39.5680676" lon="21.0015765"><ele>951.0</ele><time>2026-04-27T10:09:45.177Z</time></trkpt><trkpt lat="39.5680012" lon="21.0013651"><ele>952.6666666666667</ele><time>2026-04-27T10:09:46.176Z</time></trkpt><trkpt lat="39.5679263" lon="21.0011497"><ele>954.3333333333334</ele><time>2026-04-27T10:09:47.177Z</time></trkpt><trkpt lat="39.5678407" lon="21.0009368"><ele>956.0</ele><time>2026-04-27T10:09:48.176Z</time></trkpt><trkpt lat="39.567749" lon="21.0007243"><ele>951.3333333333334</ele><time>2026-04-27T10:09:49.177Z</time></trkpt><trkpt lat="39.5676595" lon="21.0005005"><ele>946.6666666666667</ele><time>2026-04-27T10:09:50.177Z</time></trkpt><trkpt lat="39.5675715" lon="21.0002709"><ele>942.0</ele><time>2026-04-27T10:09:51.177Z</time></trkpt><trkpt lat="39.5674933" lon="21.0000469"><ele>942.0</ele><time>2026-04-27T10:09:52.177Z</time></trkpt><trkpt lat="39.5674148" lon="20.9998271"><ele>942.0</ele><time>2026-04-27T10:09:53.177Z</time></trkpt><trkpt lat="39.5673358" lon="20.999625"><ele>942.0</ele><time>2026-04-27T10:09:54.177Z</time></trkpt><trkpt lat="39.5672557" lon="20.9994287"><ele>942.0</ele><time>2026-04-27T10:09:55.177Z</time></trkpt><trkpt lat="39.5671783" lon="20.9992454"><ele>942.0</ele><time>2026-04-27T10:09:56.177Z</time></trkpt><trkpt lat="39.5670966" lon="20.9990861"><ele>942.0</ele><time>2026-04-27T10:09:57.177Z</time></trkpt><trkpt lat="39.567022" lon="20.9989342"><ele>942.0</ele><time>2026-04-27T10:09:58.176Z</time></trkpt><trkpt lat="39.5669713" lon="20.9987835"><ele>939.0</ele><time>2026-04-27T10:09:59.176Z</time></trkpt><trkpt lat="39.5669488" lon="20.998626"><ele>936.0</ele><time>2026-04-27T10:10:00.177Z</time></trkpt><trkpt lat="39.5669596" lon="20.9984673"><ele>933.0</ele><time>2026-04-27T10:10:01.177Z</time></trkpt><trkpt lat="39.5670138" lon="20.9983179"><ele>930.0</ele><time>2026-04-27T10:10:02.177Z</time></trkpt><trkpt lat="39.5670731" lon="20.9981727"><ele>928.25</ele><time>2026-04-27T10:10:03.177Z</time></trkpt><trkpt lat="39.5671334" lon="20.9980268"><ele>926.5</ele><time>2026-04-27T10:10:04.177Z</time></trkpt><trkpt lat="39.5672033" lon="20.9978939"><ele>924.75</ele><time>2026-04-27T10:10:05.176Z</time></trkpt><trkpt lat="39.5672961" lon="20.9977944"><ele>923.0</ele><time>2026-04-27T10:10:06.177Z</time></trkpt><trkpt lat="39.567415" lon="20.9977479"><ele>923.0</ele><time>2026-04-27T10:10:07.177Z</time></trkpt><trkpt lat="39.5675424" lon="20.9977409"><ele>923.0</ele><time>2026-04-27T10:10:08.177Z</time></trkpt><trkpt lat="39.5676758" lon="20.9977306"><ele>923.0</ele><time>2026-04-27T10:10:09.177Z</time></trkpt><trkpt lat="39.5678339" lon="20.9976786"><ele>923.0</ele><time>2026-04-27T10:10:10.176Z</time></trkpt><trkpt lat="39.5680036" lon="20.9976236"><ele>923.0</ele><time>2026-04-27T10:10:11.177Z</time></trkpt><trkpt lat="39.5681697" lon="20.9975645"><ele>923.0</ele><time>2026-04-27T10:10:12.177Z</time></trkpt><trkpt lat="39.5683312" lon="20.9975022"><ele>923.0</ele><time>2026-04-27T10:10:13.176Z</time></trkpt><trkpt lat="39.5684841" lon="20.9974313"><ele>923.0</ele><time>2026-04-27T10:10:14.176Z</time></trkpt><trkpt lat="39.5686294" lon="20.997358"><ele>923.0</ele><time>2026-04-27T10:10:15.176Z</time></trkpt><trkpt lat="39.5687683" lon="20.9972897"><ele>923.0</ele><time>2026-04-27T10:10:16.176Z</time></trkpt><trkpt lat="39.5689014" lon="20.9972176"><ele>923.0</ele><time>2026-04-27T10:10:17.176Z</time></trkpt><trkpt lat="39.5690294" lon="20.9971598"><ele>917.75</ele><time>2026-04-27T10:10:18.177Z</time></trkpt><trkpt lat="39.5691566" lon="20.9971242"><ele>912.5</ele><time>2026-04-27T10:10:19.176Z</time></trkpt><trkpt lat="39.5692794" lon="20.9971187"><ele>907.25</ele><time>2026-04-27T10:10:20.176Z</time></trkpt><trkpt lat="39.5693995" lon="20.9970909"><ele>902.0</ele><time>2026-04-27T10:10:21.176Z</time></trkpt><trkpt lat="39.5695097" lon="20.9970609"><ele>903.25</ele><time>2026-04-27T10:10:22.176Z</time></trkpt><trkpt lat="39.5696113" lon="20.9970077"><ele>904.5</ele><time>2026-04-27T10:10:23.177Z</time></trkpt><trkpt lat="39.5697075" lon="20.9969181"><ele>905.75</ele><time>2026-04-27T10:10:24.177Z</time></trkpt><trkpt lat="39.5697984" lon="20.9967951"><ele>907.0</ele><time>2026-04-27T10:10:25.177Z</time></trkpt><trkpt lat="39.5698924" lon="20.9966376"><ele>907.0</ele><time>2026-04-27T10:10:26.176Z</time></trkpt><trkpt lat="39.5699823" lon="20.9964818"><ele>907.0</ele><time>2026-04-27T10:10:27.177Z</time></trkpt><trkpt lat="39.5700871" lon="20.9963173"><ele>907.0</ele><time>2026-04-27T10:10:28.176Z</time></trkpt><trkpt lat="39.5701853" lon="20.9961599"><ele>907.0</ele><time>2026-04-27T10:10:29.177Z</time></trkpt><trkpt lat="39.5702746" lon="20.9960054"><ele>907.0</ele><time>2026-04-27T10:10:30.176Z</time></trkpt><trkpt lat="39.570361" lon="20.9958507"><ele>907.0</ele><time>2026-04-27T10:10:31.176Z</time></trkpt><trkpt lat="39.5704194" lon="20.9957111"><ele>907.0</ele><time>2026-04-27T10:10:32.177Z</time></trkpt><trkpt lat="39.5704823" lon="20.9955796"><ele>906.25</ele><time>2026-04-27T10:10:33.176Z</time></trkpt><trkpt lat="39.5705431" lon="20.9954669"><ele>905.5</ele><time>2026-04-27T10:10:34.176Z</time></trkpt><trkpt lat="39.5706159" lon="20.9953725"><ele>904.75</ele><time>2026-04-27T10:10:35.177Z</time></trkpt><trkpt lat="39.5707293" lon="20.9953212"><ele>904.0</ele><time>2026-04-27T10:10:36.177Z</time></trkpt><trkpt lat="39.5708592" lon="20.9953125"><ele>904.0</ele><time>2026-04-27T10:10:37.177Z</time></trkpt><trkpt lat="39.5710044" lon="20.9953292"><ele>904.0</ele><time>2026-04-27T10:10:38.177Z</time></trkpt><trkpt lat="39.5711553" lon="20.9953492"><ele>904.0</ele><time>2026-04-27T10:10:39.176Z</time></trkpt><trkpt lat="39.5713061" lon="20.9953483"><ele>904.0</ele><time>2026-04-27T10:10:40.177Z</time></trkpt><trkpt lat="39.5714526" lon="20.9953333"><ele>901.3333333333333</ele><time>2026-04-27T10:10:41.177Z</time></trkpt><trkpt lat="39.5715945" lon="20.9953583"><ele>898.6666666666667</ele><time>2026-04-27T10:10:42.177Z</time></trkpt><trkpt lat="39.5717428" lon="20.9954118"><ele>896.0</ele><time>2026-04-27T10:10:43.177Z</time></trkpt><trkpt lat="39.5718909" lon="20.9954683"><ele>891.6666666666667</ele><time>2026-04-27T10:10:44.176Z</time></trkpt><trkpt lat="39.5720453" lon="20.9955121"><ele>887.3333333333333</ele><time>2026-04-27T10:10:45.176Z</time></trkpt><trkpt lat="39.5722079" lon="20.9955277"><ele>883.0</ele><time>2026-04-27T10:10:46.176Z</time></trkpt><trkpt lat="39.5723742" lon="20.9955284"><ele>883.0</ele><time>2026-04-27T10:10:47.177Z</time></trkpt><trkpt lat="39.5725451" lon="20.9955087"><ele>883.0</ele><time>2026-04-27T10:10:48.176Z</time></trkpt><trkpt lat="39.572712" lon="20.9954749"><ele>883.0</ele><time>2026-04-27T10:10:49.177Z</time></trkpt><trkpt lat="39.5728726" lon="20.9954463"><ele>884.25</ele><time>2026-04-27T10:10:50.176Z</time></trkpt><trkpt lat="39.5730145" lon="20.9954152"><ele>885.5</ele><time>2026-04-27T10:10:51.177Z</time></trkpt><trkpt lat="39.5731409" lon="20.9953841"><ele>886.75</ele><time>2026-04-27T10:10:52.177Z</time></trkpt><trkpt lat="39.5732453" lon="20.9953267"><ele>888.0</ele><time>2026-04-27T10:10:53.177Z</time></trkpt><trkpt lat="39.5733314" lon="20.995268"><ele>888.0</ele><time>2026-04-27T10:10:54.176Z</time></trkpt><trkpt lat="39.573405" lon="20.9951833"><ele>888.0</ele><time>2026-04-27T10:10:55.177Z</time></trkpt><trkpt lat="39.5734403" lon="20.9950815"><ele>888.0</ele><time>2026-04-27T10:10:56.177Z</time></trkpt><trkpt lat="39.5734415" lon="20.9949646"><ele>888.0</ele><time>2026-04-27T10:10:57.177Z</time></trkpt><trkpt lat="39.5734067" lon="20.9948243"><ele>888.0</ele><time>2026-04-27T10:10:58.177Z</time></trkpt><trkpt lat="39.5733406" lon="20.9946894"><ele>887.5</ele><time>2026-04-27T10:10:59.176Z</time></trkpt><trkpt lat="39.5732486" lon="20.9945559"><ele>887.0</ele><time>2026-04-27T10:11:00.177Z</time></trkpt><trkpt lat="39.5731593" lon="20.9944341"><ele>886.5</ele><time>2026-04-27T10:11:01.177Z</time></trkpt><trkpt lat="39.5730584" lon="20.9943296"><ele>886.0</ele><time>2026-04-27T10:11:02.176Z</time></trkpt><trkpt lat="39.5729799" lon="20.9942213"><ele>884.4</ele><time>2026-04-27T10:11:03.176Z</time></trkpt><trkpt lat="39.5729223" lon="20.9940919"><ele>882.8</ele><time>2026-04-27T10:11:04.177Z</time></trkpt><trkpt lat="39.5729129" lon="20.993961"><ele>881.1999999999999</ele><time>2026-04-27T10:11:05.177Z</time></trkpt><trkpt lat="39.572916" lon="20.9938315"><ele>879.5999999999999</ele><time>2026-04-27T10:11:06.177Z</time></trkpt><trkpt lat="39.5729661" lon="20.9937104"><ele>878.0</ele><time>2026-04-27T10:11:07.177Z</time></trkpt><trkpt lat="39.5730563" lon="20.9936177"><ele>878.0</ele><time>2026-04-27T10:11:08.176Z</time></trkpt><trkpt lat="39.5731364" lon="20.9935044"><ele>878.0</ele><time>2026-04-27T10:11:09.176Z</time></trkpt><trkpt lat="39.573195" lon="20.993403"><ele>878.0</ele><time>2026-04-27T10:11:10.177Z</time></trkpt><trkpt lat="39.5732832" lon="20.9933072"><ele>878.0</ele><time>2026-04-27T10:11:11.177Z</time></trkpt><trkpt lat="39.5733835" lon="20.9932272"><ele>878.0</ele><time>2026-04-27T10:11:12.177Z</time></trkpt><trkpt lat="39.5734734" lon="20.9931682"><ele>877.4</ele><time>2026-04-27T10:11:13.176Z</time></trkpt><trkpt lat="39.5735602" lon="20.9931079"><ele>876.8</ele><time>2026-04-27T10:11:14.177Z</time></trkpt><trkpt lat="39.5736226" lon="20.9930198"><ele>876.2</ele><time>2026-04-27T10:11:15.176Z</time></trkpt><trkpt lat="39.5736332" lon="20.9929143"><ele>875.6</ele><time>2026-04-27T10:11:16.177Z</time></trkpt><trkpt lat="39.573612" lon="20.9927922"><ele>875.0</ele><time>2026-04-27T10:11:17.177Z</time></trkpt><trkpt lat="39.5735695" lon="20.9926613"><ele>875.0</ele><time>2026-04-27T10:11:18.177Z</time></trkpt><trkpt lat="39.5734967" lon="20.9925337"><ele>875.0</ele><time>2026-04-27T10:11:19.177Z</time></trkpt><trkpt lat="39.5734063" lon="20.9924157"><ele>875.0</ele><time>2026-04-27T10:11:20.177Z</time></trkpt><trkpt lat="39.5733311" lon="20.992291"><ele>875.0</ele><time>2026-04-27T10:11:21.177Z</time></trkpt><trkpt lat="39.5732663" lon="20.9921387"><ele>873.75</ele><time>2026-04-27T10:11:22.177Z</time></trkpt><trkpt lat="39.5732184" lon="20.9919762"><ele>872.5</ele><time>2026-04-27T10:11:23.176Z</time></trkpt><trkpt lat="39.5731669" lon="20.9918095"><ele>871.25</ele><time>2026-04-27T10:11:24.176Z</time></trkpt><trkpt lat="39.5730948" lon="20.9916576"><ele>870.0</ele><time>2026-04-27T10:11:25.176Z</time></trkpt><trkpt lat="39.5729942" lon="20.9915099"><ele>871.3333333333333</ele><time>2026-04-27T10:11:26.177Z</time></trkpt><trkpt lat="39.5728751" lon="20.9913597"><ele>872.6666666666666</ele><time>2026-04-27T10:11:27.176Z</time></trkpt><trkpt lat="39.5727658" lon="20.9911836"><ele>874.0</ele><time>2026-04-27T10:11:28.177Z</time></trkpt><trkpt lat="39.5726739" lon="20.9909986"><ele>869.3333333333333</ele><time>2026-04-27T10:11:29.177Z</time></trkpt><trkpt lat="39.572584" lon="20.9908098"><ele>864.6666666666667</ele><time>2026-04-27T10:11:30.177Z</time></trkpt><trkpt lat="39.5724922" lon="20.9906272"><ele>860.0</ele><time>2026-04-27T10:11:31.176Z</time></trkpt><trkpt lat="39.5724057" lon="20.9904608"><ele>860.0</ele><time>2026-04-27T10:11:32.177Z</time></trkpt><trkpt lat="39.57233" lon="20.9903037"><ele>860.0</ele><time>2026-04-27T10:11:33.177Z</time></trkpt><trkpt lat="39.5722312" lon="20.9901652"><ele>860.0</ele><time>2026-04-27T10:11:34.177Z</time></trkpt><trkpt lat="39.572125" lon="20.9900545"><ele>860.0</ele><time>2026-04-27T10:11:35.176Z</time></trkpt><trkpt lat="39.5720261" lon="20.9899483"><ele>860.0</ele><time>2026-04-27T10:11:36.176Z</time></trkpt><trkpt lat="39.5719503" lon="20.989822"><ele>860.0</ele><time>2026-04-27T10:11:37.176Z</time></trkpt><trkpt lat="39.5719025" lon="20.9896391"><ele>860.0</ele><time>2026-04-27T10:11:38.177Z</time></trkpt><trkpt lat="39.57187" lon="20.9894407"><ele>860.0</ele><time>2026-04-27T10:11:39.177Z</time></trkpt><trkpt lat="39.571825" lon="20.9892586"><ele>857.6</ele><time>2026-04-27T10:11:40.176Z</time></trkpt><trkpt lat="39.5717624" lon="20.9891041"><ele>855.2</ele><time>2026-04-27T10:11:41.177Z</time></trkpt><trkpt lat="39.5716982" lon="20.9889728"><ele>852.8</ele><time>2026-04-27T10:11:42.177Z</time></trkpt><trkpt lat="39.5716495" lon="20.9888738"><ele>850.4</ele><time>2026-04-27T10:11:43.176Z</time></trkpt><trkpt lat="39.5716273" lon="20.9887832"><ele>848.0</ele><time>2026-04-27T10:11:44.176Z</time></trkpt><trkpt lat="39.5716651" lon="20.9886572"><ele>848.0</ele><time>2026-04-27T10:11:46.177Z</time></trkpt><trkpt lat="39.5717259" lon="20.9887066"><ele>848.0</ele><time>2026-04-27T10:11:47.177Z</time></trkpt><trkpt lat="39.5717746" lon="20.9887799"><ele>848.0</ele><time>2026-04-27T10:11:48.176Z</time></trkpt><trkpt lat="39.5718275" lon="20.9889195"><ele>848.0</ele><time>2026-04-27T10:11:49.176Z</time></trkpt><trkpt lat="39.5718915" lon="20.9890468"><ele>848.0</ele><time>2026-04-27T10:11:50.177Z</time></trkpt><trkpt lat="39.5719532" lon="20.9891542"><ele>848.5999999999999</ele><time>2026-04-27T10:11:51.176Z</time></trkpt><trkpt lat="39.5720167" lon="20.9892342"><ele>849.1999999999999</ele><time>2026-04-27T10:11:52.177Z</time></trkpt><trkpt lat="39.5720948" lon="20.9892801"><ele>849.8</ele><time>2026-04-27T10:11:53.177Z</time></trkpt><trkpt lat="39.5721793" lon="20.9892551"><ele>850.4</ele><time>2026-04-27T10:11:54.176Z</time></trkpt><trkpt lat="39.572254" lon="20.989182"><ele>851.0</ele><time>2026-04-27T10:11:55.176Z</time></trkpt><trkpt lat="39.5723294" lon="20.9891051"><ele>851.0</ele><time>2026-04-27T10:11:56.177Z</time></trkpt><trkpt lat="39.5724269" lon="20.9890724"><ele>851.0</ele><time>2026-04-27T10:11:57.177Z</time></trkpt><trkpt lat="39.5725498" lon="20.9891201"><ele>851.0</ele><time>2026-04-27T10:11:58.176Z</time></trkpt><trkpt lat="39.5726838" lon="20.989195"><ele>851.0</ele><time>2026-04-27T10:11:59.176Z</time></trkpt><trkpt lat="39.5728252" lon="20.9892741"><ele>847.5</ele><time>2026-04-27T10:12:00.177Z</time></trkpt><trkpt lat="39.5729636" lon="20.9893457"><ele>844.0</ele><time>2026-04-27T10:12:01.176Z</time></trkpt><trkpt lat="39.573103" lon="20.989418"><ele>840.5</ele><time>2026-04-27T10:12:02.177Z</time></trkpt><trkpt lat="39.5732113" lon="20.9895511"><ele>837.0</ele><time>2026-04-27T10:12:03.177Z</time></trkpt><trkpt lat="39.5733047" lon="20.9896778"><ele>837.0</ele><time>2026-04-27T10:12:04.176Z</time></trkpt><trkpt lat="39.5733852" lon="20.9898069"><ele>837.0</ele><time>2026-04-27T10:12:05.176Z</time></trkpt><trkpt lat="39.573462" lon="20.9899133"><ele>837.0</ele><time>2026-04-27T10:12:06.176Z</time></trkpt><trkpt lat="39.5735355" lon="20.9900024"><ele>837.0</ele><time>2026-04-27T10:12:07.176Z</time></trkpt><trkpt lat="39.5736066" lon="20.9900508"><ele>837.0</ele><time>2026-04-27T10:12:08.177Z</time></trkpt><trkpt lat="39.5736722" lon="20.9900622"><ele>837.0</ele><time>2026-04-27T10:12:09.177Z</time></trkpt><trkpt lat="39.5737289" lon="20.99002"><ele>837.0</ele><time>2026-04-27T10:12:10.177Z</time></trkpt><trkpt lat="39.573722" lon="20.9898756"><ele>837.0</ele><time>2026-04-27T10:12:12.176Z</time></trkpt><trkpt lat="39.573654" lon="20.9897861"><ele>837.0</ele><time>2026-04-27T10:12:13.176Z</time></trkpt><trkpt lat="39.5735765" lon="20.9896867"><ele>837.0</ele><time>2026-04-27T10:12:14.176Z</time></trkpt><trkpt lat="39.5734843" lon="20.9895606"><ele>837.0</ele><time>2026-04-27T10:12:15.176Z</time></trkpt><trkpt lat="39.5734269" lon="20.9893394"><ele>837.0</ele><time>2026-04-27T10:12:16.176Z</time></trkpt><trkpt lat="39.5733395" lon="20.989142"><ele>837.0</ele><time>2026-04-27T10:12:17.176Z</time></trkpt><trkpt lat="39.5732453" lon="20.9889464"><ele>834.0</ele><time>2026-04-27T10:12:18.176Z</time></trkpt><trkpt lat="39.5731678" lon="20.9887601"><ele>831.0</ele><time>2026-04-27T10:12:19.176Z</time></trkpt><trkpt lat="39.5731076" lon="20.9886042"><ele>828.0</ele><time>2026-04-27T10:12:20.177Z</time></trkpt><trkpt lat="39.5730362" lon="20.9884717"><ele>825.0</ele><time>2026-04-27T10:12:21.177Z</time></trkpt><trkpt lat="39.5729559" lon="20.9883718"><ele>823.4</ele><time>2026-04-27T10:12:22.177Z</time></trkpt><trkpt lat="39.5728828" lon="20.9883062"><ele>821.8</ele><time>2026-04-27T10:12:23.176Z</time></trkpt><trkpt lat="39.5728237" lon="20.9882515"><ele>820.2</ele><time>2026-04-27T10:12:24.176Z</time></trkpt><trkpt lat="39.5728475" lon="20.9881386"><ele>818.6</ele><time>2026-04-27T10:12:26.176Z</time></trkpt><trkpt lat="39.5729788" lon="20.9881703"><ele>817.0</ele><time>2026-04-27T10:12:28.177Z</time></trkpt><trkpt lat="39.5730765" lon="20.9882657"><ele>819.0</ele><time>2026-04-27T10:12:29.177Z</time></trkpt><trkpt lat="39.5731924" lon="20.9883524"><ele>821.0</ele><time>2026-04-27T10:12:30.176Z</time></trkpt><trkpt lat="39.5733101" lon="20.9884642"><ele>823.0</ele><time>2026-04-27T10:12:31.177Z</time></trkpt><trkpt lat="39.5734265" lon="20.9885843"><ele>825.0</ele><time>2026-04-27T10:12:32.177Z</time></trkpt><trkpt lat="39.5735705" lon="20.9886737"><ele>822.3333333333333</ele><time>2026-04-27T10:12:33.177Z</time></trkpt><trkpt lat="39.5737307" lon="20.9887358"><ele>819.6666666666666</ele><time>2026-04-27T10:12:34.176Z</time></trkpt><trkpt lat="39.5738933" lon="20.9887812"><ele>817.0</ele><time>2026-04-27T10:12:35.176Z</time></trkpt><trkpt lat="39.5740482" lon="20.9888143"><ele>817.0</ele><time>2026-04-27T10:12:36.177Z</time></trkpt><trkpt lat="39.5741971" lon="20.9888549"><ele>817.0</ele><time>2026-04-27T10:12:37.176Z</time></trkpt><trkpt lat="39.5743331" lon="20.9889122"><ele>817.0</ele><time>2026-04-27T10:12:38.176Z</time></trkpt><trkpt lat="39.5744526" lon="20.9889707"><ele>817.0</ele><time>2026-04-27T10:12:39.177Z</time></trkpt><trkpt lat="39.5745622" lon="20.9890073"><ele>812.8333333333333</ele><time>2026-04-27T10:12:40.177Z</time></trkpt><trkpt lat="39.5746534" lon="20.9890229"><ele>808.6666666666666</ele><time>2026-04-27T10:12:41.176Z</time></trkpt><trkpt lat="39.5747339" lon="20.989026"><ele>804.5</ele><time>2026-04-27T10:12:42.176Z</time></trkpt><trkpt lat="39.5748067" lon="20.9889287"><ele>800.3333333333333</ele><time>2026-04-27T10:12:44.177Z</time></trkpt><trkpt lat="39.5747849" lon="20.9888506"><ele>796.1666666666666</ele><time>2026-04-27T10:12:45.177Z</time></trkpt><trkpt lat="39.5747237" lon="20.9887902"><ele>792.0</ele><time>2026-04-27T10:12:46.177Z</time></trkpt><trkpt lat="39.5746386" lon="20.9887497"><ele>792.0</ele><time>2026-04-27T10:12:47.177Z</time></trkpt><trkpt lat="39.5745399" lon="20.9887002"><ele>792.0</ele><time>2026-04-27T10:12:48.177Z</time></trkpt><trkpt lat="39.5744487" lon="20.9886102"><ele>792.0</ele><time>2026-04-27T10:12:49.177Z</time></trkpt><trkpt lat="39.574365" lon="20.988476"><ele>792.0</ele><time>2026-04-27T10:12:50.177Z</time></trkpt><trkpt lat="39.5742685" lon="20.9883572"><ele>794.3333333333333</ele><time>2026-04-27T10:12:51.176Z</time></trkpt><trkpt lat="39.5741617" lon="20.9882334"><ele>796.6666666666666</ele><time>2026-04-27T10:12:52.176Z</time></trkpt><trkpt lat="39.5740442" lon="20.9880953"><ele>799.0</ele><time>2026-04-27T10:12:53.176Z</time></trkpt><trkpt lat="39.573939" lon="20.9879438"><ele>799.0</ele><time>2026-04-27T10:12:54.176Z</time></trkpt><trkpt lat="39.5738443" lon="20.9877772"><ele>799.0</ele><time>2026-04-27T10:12:55.177Z</time></trkpt><trkpt lat="39.573748" lon="20.9876239"><ele>799.0</ele><time>2026-04-27T10:12:56.177Z</time></trkpt><trkpt lat="39.5736581" lon="20.9875037"><ele>799.0</ele><time>2026-04-27T10:12:57.177Z</time></trkpt><trkpt lat="39.5735673" lon="20.9874032"><ele>797.8000000000001</ele><time>2026-04-27T10:12:58.177Z</time></trkpt><trkpt lat="39.5734717" lon="20.9873265"><ele>796.6</ele><time>2026-04-27T10:12:59.176Z</time></trkpt><trkpt lat="39.5733942" lon="20.987273"><ele>795.4</ele><time>2026-04-27T10:13:00.177Z</time></trkpt><trkpt lat="39.5733352" lon="20.9872272"><ele>794.2</ele><time>2026-04-27T10:13:01.177Z</time></trkpt><trkpt lat="39.5732838" lon="20.9871097"><ele>793.0</ele><time>2026-04-27T10:13:03.177Z</time></trkpt><trkpt lat="39.5734015" lon="20.9870878"><ele>793.0</ele><time>2026-04-27T10:13:05.177Z</time></trkpt><trkpt lat="39.5734924" lon="20.9871519"><ele>793.0</ele><time>2026-04-27T10:13:06.177Z</time></trkpt><trkpt lat="39.5735828" lon="20.9872517"><ele>793.0</ele><time>2026-04-27T10:13:07.176Z</time></trkpt><trkpt lat="39.5736923" lon="20.9873282"><ele>793.0</ele><time>2026-04-27T10:13:08.177Z</time></trkpt><trkpt lat="39.5738334" lon="20.9874051"><ele>795.0</ele><time>2026-04-27T10:13:09.176Z</time></trkpt><trkpt lat="39.5739777" lon="20.9874634"><ele>797.0</ele><time>2026-04-27T10:13:10.176Z</time></trkpt><trkpt lat="39.5741267" lon="20.9875057"><ele>799.0</ele><time>2026-04-27T10:13:11.176Z</time></trkpt><trkpt lat="39.5742727" lon="20.9875386"><ele>799.0</ele><time>2026-04-27T10:13:12.177Z</time></trkpt><trkpt lat="39.574408" lon="20.9875858"><ele>799.0</ele><time>2026-04-27T10:13:13.176Z</time></trkpt><trkpt lat="39.5745369" lon="20.9876426"><ele>799.0</ele><time>2026-04-27T10:13:14.177Z</time></trkpt><trkpt lat="39.5746725" lon="20.9876744"><ele>799.0</ele><time>2026-04-27T10:13:15.177Z</time></trkpt><trkpt lat="39.5748042" lon="20.9876714"><ele>796.4999999999999</ele><time>2026-04-27T10:13:16.177Z</time></trkpt><trkpt lat="39.5749151" lon="20.9876792"><ele>794.0</ele><time>2026-04-27T10:13:17.176Z</time></trkpt><trkpt lat="39.5750085" lon="20.9876918"><ele>791.5</ele><time>2026-04-27T10:13:18.176Z</time></trkpt><trkpt lat="39.5750808" lon="20.9877078"><ele>789.0</ele><time>2026-04-27T10:13:19.177Z</time></trkpt><trkpt lat="39.5751427" lon="20.9876919"><ele>786.4999999999999</ele><time>2026-04-27T10:13:20.176Z</time></trkpt><trkpt lat="39.5751968" lon="20.9875708"><ele>784.0</ele><time>2026-04-27T10:13:22.176Z</time></trkpt><trkpt lat="39.5750941" lon="20.9874522"><ele>782.2</ele><time>2026-04-27T10:13:24.176Z</time></trkpt><trkpt lat="39.5750019" lon="20.9874272"><ele>780.4000000000001</ele><time>2026-04-27T10:13:25.177Z</time></trkpt><trkpt lat="39.5748911" lon="20.9874188"><ele>778.6</ele><time>2026-04-27T10:13:26.177Z</time></trkpt><trkpt lat="39.5747813" lon="20.9873825"><ele>776.8</ele><time>2026-04-27T10:13:27.176Z</time></trkpt><trkpt lat="39.5746779" lon="20.9872933"><ele>775.0</ele><time>2026-04-27T10:13:28.177Z</time></trkpt><trkpt lat="39.5745659" lon="20.9871437"><ele>778.3333333333333</ele><time>2026-04-27T10:13:29.177Z</time></trkpt><trkpt lat="39.5744427" lon="20.9869863"><ele>781.6666666666667</ele><time>2026-04-27T10:13:30.176Z</time></trkpt><trkpt lat="39.5743247" lon="20.9868254"><ele>785.0</ele><time>2026-04-27T10:13:31.176Z</time></trkpt><trkpt lat="39.574207" lon="20.9866805"><ele>780.0</ele><time>2026-04-27T10:13:32.177Z</time></trkpt><trkpt lat="39.5741021" lon="20.9865525"><ele>775.0</ele><time>2026-04-27T10:13:33.176Z</time></trkpt><trkpt lat="39.5739893" lon="20.9864555"><ele>770.0</ele><time>2026-04-27T10:13:34.177Z</time></trkpt><trkpt lat="39.5738733" lon="20.9863872"><ele>765.0</ele><time>2026-04-27T10:13:35.177Z</time></trkpt><trkpt lat="39.5737771" lon="20.98635"><ele>765.0</ele><time>2026-04-27T10:13:36.177Z</time></trkpt><trkpt lat="39.573707" lon="20.9863172"><ele>765.0</ele><time>2026-04-27T10:13:37.176Z</time></trkpt><trkpt lat="39.5736563" lon="20.9862001"><ele>765.0</ele><time>2026-04-27T10:13:39.177Z</time></trkpt><trkpt lat="39.5737785" lon="20.9861095"><ele>765.0</ele><time>2026-04-27T10:13:41.176Z</time></trkpt><trkpt lat="39.5738894" lon="20.9861703"><ele>765.0</ele><time>2026-04-27T10:13:42.177Z</time></trkpt><trkpt lat="39.5740235" lon="20.9862432"><ele>765.0</ele><time>2026-04-27T10:13:43.177Z</time></trkpt><trkpt lat="39.5741785" lon="20.9863222"><ele>765.0</ele><time>2026-04-27T10:13:44.177Z</time></trkpt><trkpt lat="39.5743419" lon="20.9863831"><ele>765.0</ele><time>2026-04-27T10:13:45.176Z</time></trkpt><trkpt lat="39.5744982" lon="20.9864412"><ele>761.0</ele><time>2026-04-27T10:13:46.177Z</time></trkpt><trkpt lat="39.5746532" lon="20.9865016"><ele>757.0</ele><time>2026-04-27T10:13:47.176Z</time></trkpt><trkpt lat="39.5748047" lon="20.9865558"><ele>753.0</ele><time>2026-04-27T10:13:48.176Z</time></trkpt><trkpt lat="39.5749499" lon="20.986597"><ele>753.0</ele><time>2026-04-27T10:13:49.176Z</time></trkpt><trkpt lat="39.5750886" lon="20.9866099"><ele>753.0</ele><time>2026-04-27T10:13:50.177Z</time></trkpt><trkpt lat="39.5752121" lon="20.9866284"><ele>753.0</ele><time>2026-04-27T10:13:51.176Z</time></trkpt><trkpt lat="39.5753151" lon="20.9866556"><ele>753.0</ele><time>2026-04-27T10:13:52.177Z</time></trkpt><trkpt lat="39.5753904" lon="20.9866643"><ele>753.0</ele><time>2026-04-27T10:13:53.176Z</time></trkpt><trkpt lat="39.5754532" lon="20.9866355"><ele>753.0</ele><time>2026-04-27T10:13:54.176Z</time></trkpt><trkpt lat="39.5754773" lon="20.9865108"><ele>753.0</ele><time>2026-04-27T10:13:56.177Z</time></trkpt><trkpt lat="39.5754351" lon="20.9864479"><ele>753.0</ele><time>2026-04-27T10:13:57.177Z</time></trkpt><trkpt lat="39.5753493" lon="20.986418"><ele>753.0</ele><time>2026-04-27T10:13:58.177Z</time></trkpt><trkpt lat="39.5752379" lon="20.9864023"><ele>753.0</ele><time>2026-04-27T10:13:59.177Z</time></trkpt><trkpt lat="39.5751174" lon="20.9863914"><ele>753.0</ele><time>2026-04-27T10:14:00.177Z</time></trkpt><trkpt lat="39.575002" lon="20.986364"><ele>753.0</ele><time>2026-04-27T10:14:01.176Z</time></trkpt><trkpt lat="39.5748798" lon="20.9862547"><ele>753.0</ele><time>2026-04-27T10:14:02.177Z</time></trkpt><trkpt lat="39.5747485" lon="20.9861437"><ele>753.0</ele><time>2026-04-27T10:14:03.176Z</time></trkpt><trkpt lat="39.5746119" lon="20.9860389"><ele>756.0</ele><time>2026-04-27T10:14:04.176Z</time></trkpt><trkpt lat="39.5744887" lon="20.9859326"><ele>759.0</ele><time>2026-04-27T10:14:05.176Z</time></trkpt><trkpt lat="39.5743865" lon="20.9858028"><ele>762.0</ele><time>2026-04-27T10:14:06.176Z</time></trkpt><trkpt lat="39.5742798" lon="20.985684"><ele>765.0</ele><time>2026-04-27T10:14:07.176Z</time></trkpt><trkpt lat="39.5741688" lon="20.9855932"><ele>758.5</ele><time>2026-04-27T10:14:08.176Z</time></trkpt><trkpt lat="39.5740482" lon="20.9855032"><ele>752.0</ele><time>2026-04-27T10:14:09.176Z</time></trkpt><trkpt lat="39.5739262" lon="20.985442"><ele>745.5</ele><time>2026-04-27T10:14:10.176Z</time></trkpt><trkpt lat="39.5738141" lon="20.9854077"><ele>739.0</ele><time>2026-04-27T10:14:11.176Z</time></trkpt><trkpt lat="39.5736893" lon="20.9854149"><ele>738.0</ele><time>2026-04-27T10:14:12.177Z</time></trkpt><trkpt lat="39.5735595" lon="20.9854521"><ele>737.0</ele><time>2026-04-27T10:14:13.176Z</time></trkpt><trkpt lat="39.5734236" lon="20.9855175"><ele>736.0</ele><time>2026-04-27T10:14:14.176Z</time></trkpt><trkpt lat="39.5732987" lon="20.9855967"><ele>735.0</ele><time>2026-04-27T10:14:15.176Z</time></trkpt><trkpt lat="39.5731834" lon="20.9856797"><ele>735.0</ele><time>2026-04-27T10:14:16.177Z</time></trkpt><trkpt lat="39.5730756" lon="20.9857617"><ele>735.0</ele><time>2026-04-27T10:14:17.176Z</time></trkpt><trkpt lat="39.5729859" lon="20.9858471"><ele>735.0</ele><time>2026-04-27T10:14:18.176Z</time></trkpt><trkpt lat="39.5729149" lon="20.9859206"><ele>735.0</ele><time>2026-04-27T10:14:19.177Z</time></trkpt><trkpt lat="39.5728426" lon="20.9859464"><ele>735.0</ele><time>2026-04-27T10:14:20.176Z</time></trkpt><trkpt lat="39.572772" lon="20.9859254"><ele>735.8</ele><time>2026-04-27T10:14:21.177Z</time></trkpt><trkpt lat="39.5727165" lon="20.9858414"><ele>736.6</ele><time>2026-04-27T10:14:22.177Z</time></trkpt><trkpt lat="39.5726777" lon="20.9857368"><ele>737.4000000000001</ele><time>2026-04-27T10:14:23.177Z</time></trkpt><trkpt lat="39.572647" lon="20.9855979"><ele>738.2</ele><time>2026-04-27T10:14:24.177Z</time></trkpt><trkpt lat="39.5726156" lon="20.9854598"><ele>739.0</ele><time>2026-04-27T10:14:25.176Z</time></trkpt><trkpt lat="39.5725869" lon="20.9853181"><ele>739.0</ele><time>2026-04-27T10:14:26.176Z</time></trkpt><trkpt lat="39.5725399" lon="20.9851733"><ele>739.0</ele><time>2026-04-27T10:14:27.177Z</time></trkpt><trkpt lat="39.5724692" lon="20.9850455"><ele>739.0</ele><time>2026-04-27T10:14:28.177Z</time></trkpt><trkpt lat="39.5723828" lon="20.984949"><ele>739.0</ele><time>2026-04-27T10:14:29.176Z</time></trkpt><trkpt lat="39.5723096" lon="20.9848965"><ele>739.0</ele><time>2026-04-27T10:14:30.177Z</time></trkpt><trkpt lat="39.5722512" lon="20.9848395"><ele>730.75</ele><time>2026-04-27T10:14:31.176Z</time></trkpt><trkpt lat="39.5722296" lon="20.9847235"><ele>722.5</ele><time>2026-04-27T10:14:33.176Z</time></trkpt><trkpt lat="39.5723653" lon="20.9847463"><ele>714.25</ele><time>2026-04-27T10:14:35.176Z</time></trkpt><trkpt lat="39.5724549" lon="20.9848334"><ele>706.0</ele><time>2026-04-27T10:14:36.176Z</time></trkpt><trkpt lat="39.572532" lon="20.9849681"><ele>714.25</ele><time>2026-04-27T10:14:37.176Z</time></trkpt><trkpt lat="39.5726119" lon="20.9851184"><ele>722.5</ele><time>2026-04-27T10:14:38.176Z</time></trkpt><trkpt lat="39.5726684" lon="20.9852637"><ele>730.75</ele><time>2026-04-27T10:14:39.176Z</time></trkpt><trkpt lat="39.5727192" lon="20.9853867"><ele>739.0</ele><time>2026-04-27T10:14:40.177Z</time></trkpt><trkpt lat="39.5727799" lon="20.9854725"><ele>738.2</ele><time>2026-04-27T10:14:41.177Z</time></trkpt><trkpt lat="39.5728641" lon="20.9855113"><ele>737.4000000000001</ele><time>2026-04-27T10:14:42.177Z</time></trkpt><trkpt lat="39.5729595" lon="20.985503"><ele>736.6</ele><time>2026-04-27T10:14:43.176Z</time></trkpt><trkpt lat="39.5730639" lon="20.9854399"><ele>735.8</ele><time>2026-04-27T10:14:44.177Z</time></trkpt><trkpt lat="39.5731663" lon="20.9853366"><ele>735.0</ele><time>2026-04-27T10:14:45.177Z</time></trkpt><trkpt lat="39.5732501" lon="20.9852083"><ele>735.0</ele><time>2026-04-27T10:14:46.177Z</time></trkpt><trkpt lat="39.5733314" lon="20.9850725"><ele>735.0</ele><time>2026-04-27T10:14:47.176Z</time></trkpt><trkpt lat="39.5734122" lon="20.984961"><ele>735.0</ele><time>2026-04-27T10:14:48.176Z</time></trkpt><trkpt lat="39.5735038" lon="20.9848726"><ele>735.0</ele><time>2026-04-27T10:14:49.176Z</time></trkpt><trkpt lat="39.5736076" lon="20.9848151"><ele>727.75</ele><time>2026-04-27T10:14:50.177Z</time></trkpt><trkpt lat="39.5737337" lon="20.9847963"><ele>720.5</ele><time>2026-04-27T10:14:51.177Z</time></trkpt><trkpt lat="39.5738782" lon="20.9847975"><ele>713.25</ele><time>2026-04-27T10:14:52.176Z</time></trkpt><trkpt lat="39.574034" lon="20.9848033"><ele>706.0</ele><time>2026-04-27T10:14:53.177Z</time></trkpt><trkpt lat="39.5741942" lon="20.9848253"><ele>706.0</ele><time>2026-04-27T10:14:54.177Z</time></trkpt><trkpt lat="39.5743464" lon="20.9848595"><ele>706.0</ele><time>2026-04-27T10:14:55.176Z</time></trkpt><trkpt lat="39.5744935" lon="20.9848954"><ele>706.0</ele><time>2026-04-27T10:14:56.176Z</time></trkpt><trkpt lat="39.5746328" lon="20.9849402"><ele>706.0</ele><time>2026-04-27T10:14:57.176Z</time></trkpt><trkpt lat="39.5747637" lon="20.9849842"><ele>703.4</ele><time>2026-04-27T10:14:58.176Z</time></trkpt><trkpt lat="39.5748657" lon="20.9849991"><ele>700.8</ele><time>2026-04-27T10:14:59.176Z</time></trkpt><trkpt lat="39.5749534" lon="20.9849741"><ele>698.1999999999999</ele><time>2026-04-27T10:15:00.177Z</time></trkpt><trkpt lat="39.5750483" lon="20.9849027"><ele>695.5999999999999</ele><time>2026-04-27T10:15:01.176Z</time></trkpt><trkpt lat="39.5751335" lon="20.9847949"><ele>693.0</ele><time>2026-04-27T10:15:02.177Z</time></trkpt><trkpt lat="39.575216" lon="20.984675"><ele>693.0</ele><time>2026-04-27T10:15:03.177Z</time></trkpt><trkpt lat="39.5753068" lon="20.9845525"><ele>693.0</ele><time>2026-04-27T10:15:04.177Z</time></trkpt><trkpt lat="39.5753974" lon="20.9844388"><ele>693.0</ele><time>2026-04-27T10:15:05.176Z</time></trkpt><trkpt lat="39.5755008" lon="20.9843545"><ele>693.0</ele><time>2026-04-27T10:15:06.177Z</time></trkpt><trkpt lat="39.5756047" lon="20.9843174"><ele>693.4</ele><time>2026-04-27T10:15:07.176Z</time></trkpt><trkpt lat="39.5756875" lon="20.98429"><ele>693.8</ele><time>2026-04-27T10:15:08.177Z</time></trkpt><trkpt lat="39.5757494" lon="20.984256"><ele>694.2</ele><time>2026-04-27T10:15:09.177Z</time></trkpt><trkpt lat="39.5757794" lon="20.9841231"><ele>694.6</ele><time>2026-04-27T10:15:11.177Z</time></trkpt><trkpt lat="39.5756773" lon="20.984054"><ele>695.0</ele><time>2026-04-27T10:15:13.176Z</time></trkpt><trkpt lat="39.5755715" lon="20.9840673"><ele>694.5</ele><time>2026-04-27T10:15:14.176Z</time></trkpt><trkpt lat="39.5754617" lon="20.9841279"><ele>694.0</ele><time>2026-04-27T10:15:15.177Z</time></trkpt><trkpt lat="39.5753454" lon="20.9842063"><ele>693.5</ele><time>2026-04-27T10:15:16.176Z</time></trkpt><trkpt lat="39.5752448" lon="20.9842985"><ele>693.0</ele><time>2026-04-27T10:15:17.177Z</time></trkpt><trkpt lat="39.5751367" lon="20.9843859"><ele>693.0</ele><time>2026-04-27T10:15:18.177Z</time></trkpt><trkpt lat="39.5750413" lon="20.9844836"><ele>693.0</ele><time>2026-04-27T10:15:19.177Z</time></trkpt><trkpt lat="39.5749429" lon="20.9845484"><ele>693.0</ele><time>2026-04-27T10:15:20.177Z</time></trkpt><trkpt lat="39.5748402" lon="20.9846065"><ele>693.0</ele><time>2026-04-27T10:15:21.176Z</time></trkpt><trkpt lat="39.5747204" lon="20.9845419"><ele>693.0</ele><time>2026-04-27T10:15:22.177Z</time></trkpt><trkpt lat="39.5745777" lon="20.9844308"><ele>693.0</ele><time>2026-04-27T10:15:23.177Z</time></trkpt><trkpt lat="39.5744432" lon="20.9843491"><ele>693.0</ele><time>2026-04-27T10:15:24.176Z</time></trkpt><trkpt lat="39.5743192" lon="20.9842691"><ele>696.25</ele><time>2026-04-27T10:15:25.176Z</time></trkpt><trkpt lat="39.5741977" lon="20.984183"><ele>699.5</ele><time>2026-04-27T10:15:26.176Z</time></trkpt><trkpt lat="39.5740772" lon="20.9841025"><ele>702.75</ele><time>2026-04-27T10:15:27.176Z</time></trkpt><trkpt lat="39.5739499" lon="20.9840358"><ele>706.0</ele><time>2026-04-27T10:15:28.176Z</time></trkpt><trkpt lat="39.5738233" lon="20.9840131"><ele>695.5</ele><time>2026-04-27T10:15:29.176Z</time></trkpt><trkpt lat="39.5736985" lon="20.9840078"><ele>685.0</ele><time>2026-04-27T10:15:30.177Z</time></trkpt><trkpt lat="39.573578" lon="20.984022"><ele>674.5</ele><time>2026-04-27T10:15:31.176Z</time></trkpt><trkpt lat="39.5734615" lon="20.9840472"><ele>664.0</ele><time>2026-04-27T10:15:32.176Z</time></trkpt><trkpt lat="39.5733549" lon="20.9840917"><ele>663.5</ele><time>2026-04-27T10:15:33.176Z</time></trkpt><trkpt lat="39.5732593" lon="20.9841605"><ele>663.0</ele><time>2026-04-27T10:15:34.177Z</time></trkpt><trkpt lat="39.5731755" lon="20.9842177"><ele>662.5</ele><time>2026-04-27T10:15:35.176Z</time></trkpt><trkpt lat="39.5730923" lon="20.984244"><ele>662.0</ele><time>2026-04-27T10:15:36.176Z</time></trkpt><trkpt lat="39.5730101" lon="20.9842619"><ele>661.5</ele><time>2026-04-27T10:15:37.176Z</time></trkpt><trkpt lat="39.572977" lon="20.984183"><ele>661.0</ele><time>2026-04-27T10:15:38.177Z</time></trkpt><trkpt lat="39.5729441" lon="20.9839837"><ele>661.0</ele><time>2026-04-27T10:15:39.177Z</time></trkpt><trkpt lat="39.5729489" lon="20.9838441"><ele>661.0</ele><time>2026-04-27T10:15:40.176Z</time></trkpt><trkpt lat="39.5729681" lon="20.983698"><ele>661.0</ele><time>2026-04-27T10:15:41.177Z</time></trkpt><trkpt lat="39.5730019" lon="20.9835579"><ele>661.0</ele><time>2026-04-27T10:15:42.177Z</time></trkpt><trkpt lat="39.5730224" lon="20.9834116"><ele>655.0</ele><time>2026-04-27T10:15:43.177Z</time></trkpt><trkpt lat="39.5730173" lon="20.9832724"><ele>649.0</ele><time>2026-04-27T10:15:44.176Z</time></trkpt><trkpt lat="39.5729805" lon="20.9831538"><ele>643.0</ele><time>2026-04-27T10:15:45.176Z</time></trkpt><trkpt lat="39.5729243" lon="20.9830468"><ele>637.0</ele><time>2026-04-27T10:15:46.176Z</time></trkpt><trkpt lat="39.5728877" lon="20.9829407"><ele>631.0</ele><time>2026-04-27T10:15:47.176Z</time></trkpt><trkpt lat="39.5729003" lon="20.9828472"><ele>631.0</ele><time>2026-04-27T10:15:48.176Z</time></trkpt><trkpt lat="39.5729219" lon="20.9827608"><ele>631.0</ele><time>2026-04-27T10:15:49.176Z</time></trkpt><trkpt lat="39.5729855" lon="20.9827776"><ele>631.0</ele><time>2026-04-27T10:15:50.177Z</time></trkpt><trkpt lat="39.5730488" lon="20.9828246"><ele>631.0</ele><time>2026-04-27T10:15:51.176Z</time></trkpt><trkpt lat="39.5730983" lon="20.9829578"><ele>631.0</ele><time>2026-04-27T10:15:52.177Z</time></trkpt><trkpt lat="39.5731227" lon="20.9830998"><ele>631.0</ele><time>2026-04-27T10:15:53.177Z</time></trkpt><trkpt lat="39.5731371" lon="20.9832449"><ele>637.0</ele><time>2026-04-27T10:15:54.177Z</time></trkpt><trkpt lat="39.5731218" lon="20.9833789"><ele>643.0</ele><time>2026-04-27T10:15:55.176Z</time></trkpt><trkpt lat="39.5731076" lon="20.9835074"><ele>649.0</ele><time>2026-04-27T10:15:56.177Z</time></trkpt><trkpt lat="39.5731108" lon="20.9836279"><ele>655.0</ele><time>2026-04-27T10:15:57.176Z</time></trkpt><trkpt lat="39.5731534" lon="20.9837253"><ele>661.0</ele><time>2026-04-27T10:15:58.176Z</time></trkpt><trkpt lat="39.5732161" lon="20.9837946"><ele>661.0</ele><time>2026-04-27T10:15:59.176Z</time></trkpt><trkpt lat="39.5732945" lon="20.98382"><ele>661.0</ele><time>2026-04-27T10:16:00.176Z</time></trkpt><trkpt lat="39.5733866" lon="20.983787"><ele>661.0</ele><time>2026-04-27T10:16:01.177Z</time></trkpt><trkpt lat="39.573481" lon="20.983713"><ele>661.0</ele><time>2026-04-27T10:16:02.176Z</time></trkpt><trkpt lat="39.5735785" lon="20.9836383"><ele>661.0</ele><time>2026-04-27T10:16:03.176Z</time></trkpt><trkpt lat="39.5736728" lon="20.9835729"><ele>661.5999999999999</ele><time>2026-04-27T10:16:04.177Z</time></trkpt><trkpt lat="39.5737637" lon="20.9835182"><ele>662.2</ele><time>2026-04-27T10:16:05.177Z</time></trkpt><trkpt lat="39.5738511" lon="20.9834631"><ele>662.8</ele><time>2026-04-27T10:16:06.177Z</time></trkpt><trkpt lat="39.5739326" lon="20.9834075"><ele>663.4000000000001</ele><time>2026-04-27T10:16:07.177Z</time></trkpt><trkpt lat="39.5740066" lon="20.9833572"><ele>664.0</ele><time>2026-04-27T10:16:08.177Z</time></trkpt><trkpt lat="39.5740855" lon="20.9833249"><ele>656.2</ele><time>2026-04-27T10:16:09.177Z</time></trkpt><trkpt lat="39.5741705" lon="20.9832932"><ele>648.4000000000001</ele><time>2026-04-27T10:16:10.177Z</time></trkpt><trkpt lat="39.5742741" lon="20.9832759"><ele>640.6</ele><time>2026-04-27T10:16:11.176Z</time></trkpt><trkpt lat="39.5743942" lon="20.9832818"><ele>632.8</ele><time>2026-04-27T10:16:12.177Z</time></trkpt><trkpt lat="39.574516" lon="20.9832938"><ele>625.0</ele><time>2026-04-27T10:16:13.177Z</time></trkpt><trkpt lat="39.5746348" lon="20.9833302"><ele>625.0</ele><time>2026-04-27T10:16:14.176Z</time></trkpt><trkpt lat="39.5747503" lon="20.9833788"><ele>625.0</ele><time>2026-04-27T10:16:15.177Z</time></trkpt><trkpt lat="39.5748588" lon="20.9834039"><ele>625.0</ele><time>2026-04-27T10:16:16.177Z</time></trkpt><trkpt lat="39.5749624" lon="20.9833764"><ele>625.0</ele><time>2026-04-27T10:16:17.177Z</time></trkpt><trkpt lat="39.5750853" lon="20.9832952"><ele>625.0</ele><time>2026-04-27T10:16:18.176Z</time></trkpt><trkpt lat="39.5752071" lon="20.9831926"><ele>625.0</ele><time>2026-04-27T10:16:19.176Z</time></trkpt><trkpt lat="39.5753371" lon="20.9830893"><ele>625.0</ele><time>2026-04-27T10:16:20.177Z</time></trkpt><trkpt lat="39.5754617" lon="20.9829753"><ele>629.5</ele><time>2026-04-27T10:16:21.176Z</time></trkpt><trkpt lat="39.575587" lon="20.9828582"><ele>634.0</ele><time>2026-04-27T10:16:22.176Z</time></trkpt><trkpt lat="39.5756978" lon="20.9827365"><ele>638.5</ele><time>2026-04-27T10:16:23.177Z</time></trkpt><trkpt lat="39.5757948" lon="20.9826243"><ele>643.0</ele><time>2026-04-27T10:16:24.177Z</time></trkpt><trkpt lat="39.5758943" lon="20.9825236"><ele>635.25</ele><time>2026-04-27T10:16:25.177Z</time></trkpt><trkpt lat="39.5760092" lon="20.9824391"><ele>627.5</ele><time>2026-04-27T10:16:26.176Z</time></trkpt><trkpt lat="39.5761485" lon="20.9823919"><ele>619.75</ele><time>2026-04-27T10:16:27.177Z</time></trkpt><trkpt lat="39.5762823" lon="20.9823506"><ele>612.0</ele><time>2026-04-27T10:16:28.177Z</time></trkpt><trkpt lat="39.5764086" lon="20.9823177"><ele>612.0</ele><time>2026-04-27T10:16:29.176Z</time></trkpt><trkpt lat="39.5765295" lon="20.9822968"><ele>612.0</ele><time>2026-04-27T10:16:30.176Z</time></trkpt><trkpt lat="39.5766359" lon="20.9822859"><ele>612.0</ele><time>2026-04-27T10:16:31.177Z</time></trkpt><trkpt lat="39.576722" lon="20.9822829"><ele>612.0</ele><time>2026-04-27T10:16:32.177Z</time></trkpt><trkpt lat="39.5768004" lon="20.9822563"><ele>612.0</ele><time>2026-04-27T10:16:33.177Z</time></trkpt><trkpt lat="39.5768528" lon="20.9822093"><ele>612.0</ele><time>2026-04-27T10:16:34.177Z</time></trkpt><trkpt lat="39.5768272" lon="20.9820671"><ele>612.0</ele><time>2026-04-27T10:16:36.177Z</time></trkpt><trkpt lat="39.5767559" lon="20.9820409"><ele>612.0</ele><time>2026-04-27T10:16:37.177Z</time></trkpt><trkpt lat="39.5766523" lon="20.9820591"><ele>612.0</ele><time>2026-04-27T10:16:38.177Z</time></trkpt><trkpt lat="39.5765362" lon="20.9820936"><ele>612.0</ele><time>2026-04-27T10:16:39.176Z</time></trkpt><trkpt lat="39.576408" lon="20.9821219"><ele>612.0</ele><time>2026-04-27T10:16:40.177Z</time></trkpt><trkpt lat="39.5762652" lon="20.982151"><ele>612.0</ele><time>2026-04-27T10:16:41.176Z</time></trkpt><trkpt lat="39.5761057" lon="20.9821772"><ele>612.0</ele><time>2026-04-27T10:16:42.176Z</time></trkpt><trkpt lat="39.5759535" lon="20.9822108"><ele>611.6666666666666</ele><time>2026-04-27T10:16:43.177Z</time></trkpt><trkpt lat="39.5758078" lon="20.9822609"><ele>611.3333333333333</ele><time>2026-04-27T10:16:44.176Z</time></trkpt><trkpt lat="39.5756609" lon="20.9823302"><ele>611.0</ele><time>2026-04-27T10:16:45.176Z</time></trkpt><trkpt lat="39.5755118" lon="20.9824086"><ele>611.0</ele><time>2026-04-27T10:16:46.176Z</time></trkpt><trkpt lat="39.5753675" lon="20.9824861"><ele>611.0</ele><time>2026-04-27T10:16:47.177Z</time></trkpt><trkpt lat="39.5752216" lon="20.9825569"><ele>611.0</ele><time>2026-04-27T10:16:48.177Z</time></trkpt><trkpt lat="39.5750786" lon="20.982627"><ele>614.5</ele><time>2026-04-27T10:16:49.176Z</time></trkpt><trkpt lat="39.5749469" lon="20.9826857"><ele>618.0</ele><time>2026-04-27T10:16:50.177Z</time></trkpt><trkpt lat="39.5748175" lon="20.9827133"><ele>621.5</ele><time>2026-04-27T10:16:51.177Z</time></trkpt><trkpt lat="39.5746966" lon="20.9826988"><ele>625.0</ele><time>2026-04-27T10:16:52.177Z</time></trkpt><trkpt lat="39.5745977" lon="20.9826008"><ele>625.0</ele><time>2026-04-27T10:16:53.177Z</time></trkpt><trkpt lat="39.5745118" lon="20.9825149"><ele>625.0</ele><time>2026-04-27T10:16:54.176Z</time></trkpt><trkpt lat="39.5744182" lon="20.9824609"><ele>625.0</ele><time>2026-04-27T10:16:55.176Z</time></trkpt><trkpt lat="39.5743236" lon="20.9824502"><ele>625.0</ele><time>2026-04-27T10:16:56.176Z</time></trkpt><trkpt lat="39.5742288" lon="20.9824728"><ele>625.0</ele><time>2026-04-27T10:16:57.176Z</time></trkpt><trkpt lat="39.5741383" lon="20.9824905"><ele>618.6</ele><time>2026-04-27T10:16:58.177Z</time></trkpt><trkpt lat="39.5740559" lon="20.9824993"><ele>612.2</ele><time>2026-04-27T10:16:59.177Z</time></trkpt><trkpt lat="39.5739856" lon="20.9824921"><ele>605.8</ele><time>2026-04-27T10:17:00.177Z</time></trkpt><trkpt lat="39.5739729" lon="20.9822813"><ele>599.4</ele><time>2026-04-27T10:17:01.177Z</time></trkpt><trkpt lat="39.573986" lon="20.9821477"><ele>593.0</ele><time>2026-04-27T10:17:02.177Z</time></trkpt><trkpt lat="39.5740317" lon="20.9820013"><ele>593.0</ele><time>2026-04-27T10:17:03.176Z</time></trkpt><trkpt lat="39.5741073" lon="20.98185"><ele>593.0</ele><time>2026-04-27T10:17:04.176Z</time></trkpt><trkpt lat="39.574213" lon="20.9817639"><ele>593.0</ele><time>2026-04-27T10:17:05.177Z</time></trkpt><trkpt lat="39.5743185" lon="20.9816564"><ele>593.0</ele><time>2026-04-27T10:17:06.177Z</time></trkpt><trkpt lat="39.5743971" lon="20.9815149"><ele>589.5</ele><time>2026-04-27T10:17:07.177Z</time></trkpt><trkpt lat="39.5744488" lon="20.9813442"><ele>586.0</ele><time>2026-04-27T10:17:08.176Z</time></trkpt><trkpt lat="39.5744685" lon="20.9811709"><ele>582.5</ele><time>2026-04-27T10:17:09.177Z</time></trkpt><trkpt lat="39.5744863" lon="20.9809954"><ele>579.0</ele><time>2026-04-27T10:17:10.176Z</time></trkpt><trkpt lat="39.5744761" lon="20.9808497"><ele>576.8</ele><time>2026-04-27T10:17:11.177Z</time></trkpt><trkpt lat="39.5744484" lon="20.9807197"><ele>574.5999999999999</ele><time>2026-04-27T10:17:12.176Z</time></trkpt><trkpt lat="39.5743889" lon="20.980616"><ele>572.4</ele><time>2026-04-27T10:17:13.177Z</time></trkpt><trkpt lat="39.574295" lon="20.9805426"><ele>570.1999999999999</ele><time>2026-04-27T10:17:14.177Z</time></trkpt><trkpt lat="39.5741809" lon="20.9804941"><ele>568.0</ele><time>2026-04-27T10:17:15.177Z</time></trkpt><trkpt lat="39.5740628" lon="20.9804313"><ele>568.0</ele><time>2026-04-27T10:17:16.176Z</time></trkpt><trkpt lat="39.5739579" lon="20.9802836"><ele>568.0</ele><time>2026-04-27T10:17:17.177Z</time></trkpt><trkpt lat="39.5738698" lon="20.980147"><ele>568.0</ele><time>2026-04-27T10:17:18.177Z</time></trkpt><trkpt lat="39.5737782" lon="20.9800219"><ele>568.0</ele><time>2026-04-27T10:17:19.177Z</time></trkpt><trkpt lat="39.5736945" lon="20.9799352"><ele>564.8333333333334</ele><time>2026-04-27T10:17:20.177Z</time></trkpt><trkpt lat="39.5736098" lon="20.9798868"><ele>561.6666666666667</ele><time>2026-04-27T10:17:21.177Z</time></trkpt><trkpt lat="39.573519" lon="20.9798778"><ele>558.5</ele><time>2026-04-27T10:17:22.176Z</time></trkpt><trkpt lat="39.5734435" lon="20.979875"><ele>555.3333333333334</ele><time>2026-04-27T10:17:23.177Z</time></trkpt><trkpt lat="39.5733822" lon="20.9798528"><ele>552.1666666666666</ele><time>2026-04-27T10:17:24.177Z</time></trkpt><trkpt lat="39.5733415" lon="20.9797616"><ele>549.0</ele><time>2026-04-27T10:17:26.176Z</time></trkpt><trkpt lat="39.5734133" lon="20.9797442"><ele>549.0</ele><time>2026-04-27T10:17:27.177Z</time></trkpt><trkpt lat="39.5734995" lon="20.9797764"><ele>549.0</ele><time>2026-04-27T10:17:28.176Z</time></trkpt><trkpt lat="39.573604" lon="20.9798003"><ele>549.0</ele><time>2026-04-27T10:17:29.177Z</time></trkpt><trkpt lat="39.5736999" lon="20.979848"><ele>549.0</ele><time>2026-04-27T10:17:30.176Z</time></trkpt><trkpt lat="39.5737981" lon="20.9799207"><ele>549.0</ele><time>2026-04-27T10:17:31.176Z</time></trkpt><trkpt lat="39.5738961" lon="20.9800227"><ele>553.75</ele><time>2026-04-27T10:17:32.176Z</time></trkpt><trkpt lat="39.5739995" lon="20.9801113"><ele>558.5</ele><time>2026-04-27T10:17:33.177Z</time></trkpt><trkpt lat="39.5741122" lon="20.9801874"><ele>563.25</ele><time>2026-04-27T10:17:34.176Z</time></trkpt><trkpt lat="39.5742336" lon="20.9802439"><ele>568.0</ele><time>2026-04-27T10:17:35.176Z</time></trkpt><trkpt lat="39.5743539" lon="20.9802693"><ele>568.0</ele><time>2026-04-27T10:17:36.177Z</time></trkpt><trkpt lat="39.5744799" lon="20.9802683"><ele>568.0</ele><time>2026-04-27T10:17:37.177Z</time></trkpt><trkpt lat="39.5745901" lon="20.980264"><ele>568.0</ele><time>2026-04-27T10:17:38.177Z</time></trkpt><trkpt lat="39.5746916" lon="20.9802692"><ele>568.0</ele><time>2026-04-27T10:17:39.177Z</time></trkpt><trkpt lat="39.5747742" lon="20.9803072"><ele>568.0</ele><time>2026-04-27T10:17:40.177Z</time></trkpt><trkpt lat="39.5748306" lon="20.980365"><ele>564.6666666666667</ele><time>2026-04-27T10:17:41.177Z</time></trkpt><trkpt lat="39.574864" lon="20.9804605"><ele>561.3333333333334</ele><time>2026-04-27T10:17:42.177Z</time></trkpt><trkpt lat="39.5748756" lon="20.9805824"><ele>558.0</ele><time>2026-04-27T10:17:43.177Z</time></trkpt><trkpt lat="39.5748816" lon="20.9806937"><ele>554.6666666666666</ele><time>2026-04-27T10:17:44.177Z</time></trkpt><trkpt lat="39.5748888" lon="20.9808037"><ele>551.3333333333333</ele><time>2026-04-27T10:17:45.176Z</time></trkpt><trkpt lat="39.5748978" lon="20.9809035"><ele>548.0</ele><time>2026-04-27T10:17:46.177Z</time></trkpt><trkpt lat="39.574899" lon="20.980992"><ele>548.0</ele><time>2026-04-27T10:17:47.176Z</time></trkpt><trkpt lat="39.5748984" lon="20.981123"><ele>548.0</ele><time>2026-04-27T10:17:49.176Z</time></trkpt><trkpt lat="39.5748884" lon="20.9812335"><ele>548.0</ele><time>2026-04-27T10:17:52.176Z</time></trkpt><trkpt lat="39.5749104" lon="20.9813402"><ele>548.0</ele><time>2026-04-27T10:17:55.177Z</time></trkpt><trkpt lat="39.5749595" lon="20.9814424"><ele>548.0</ele><time>2026-04-27T10:17:58.176Z</time></trkpt><trkpt lat="39.5750259" lon="20.9815091"><ele>548.0</ele><time>2026-04-27T10:18:01.177Z</time></trkpt><trkpt lat="39.5751002" lon="20.9814953"><ele>548.0</ele><time>2026-04-27T10:19:10.177Z</time></trkpt><trkpt lat="39.575162" lon="20.9814463"><ele>548.0</ele><time>2026-04-27T10:19:11.177Z</time></trkpt><trkpt lat="39.5752346" lon="20.981371"><ele>548.0</ele><time>2026-04-27T10:19:12.177Z</time></trkpt><trkpt lat="39.5753028" lon="20.9812832"><ele>548.0</ele><time>2026-04-27T10:19:13.177Z</time></trkpt><trkpt lat="39.5753982" lon="20.9811705"><ele>548.0</ele><time>2026-04-27T10:19:14.177Z</time></trkpt><trkpt lat="39.5754899" lon="20.9810517"><ele>551.5</ele><time>2026-04-27T10:19:15.177Z</time></trkpt><trkpt lat="39.5755885" lon="20.980948"><ele>555.0</ele><time>2026-04-27T10:19:16.177Z</time></trkpt><trkpt lat="39.5757032" lon="20.9808652"><ele>558.5</ele><time>2026-04-27T10:19:17.177Z</time></trkpt><trkpt lat="39.5758287" lon="20.9807898"><ele>562.0</ele><time>2026-04-27T10:19:18.176Z</time></trkpt><trkpt lat="39.5759571" lon="20.9807306"><ele>553.5</ele><time>2026-04-27T10:19:19.176Z</time></trkpt><trkpt lat="39.5760878" lon="20.980676"><ele>545.0</ele><time>2026-04-27T10:19:20.177Z</time></trkpt><trkpt lat="39.5762248" lon="20.980627"><ele>536.5</ele><time>2026-04-27T10:19:21.177Z</time></trkpt><trkpt lat="39.5763731" lon="20.9805557"><ele>528.0</ele><time>2026-04-27T10:19:22.177Z</time></trkpt><trkpt lat="39.5765244" lon="20.9804736"><ele>528.0</ele><time>2026-04-27T10:19:23.176Z</time></trkpt><trkpt lat="39.5766723" lon="20.9803955"><ele>528.0</ele><time>2026-04-27T10:19:24.176Z</time></trkpt><trkpt lat="39.5768116" lon="20.9803157"><ele>528.0</ele><time>2026-04-27T10:19:25.176Z</time></trkpt><trkpt lat="39.5769392" lon="20.9802537"><ele>528.0</ele><time>2026-04-27T10:19:26.176Z</time></trkpt><trkpt lat="39.5770542" lon="20.9802267"><ele>524.8</ele><time>2026-04-27T10:19:27.176Z</time></trkpt><trkpt lat="39.5771492" lon="20.9802329"><ele>521.5999999999999</ele><time>2026-04-27T10:19:28.177Z</time></trkpt><trkpt lat="39.5772296" lon="20.9802465"><ele>518.4000000000001</ele><time>2026-04-27T10:19:29.176Z</time></trkpt><trkpt lat="39.5773393" lon="20.9801935"><ele>515.2</ele><time>2026-04-27T10:19:31.177Z</time></trkpt><trkpt lat="39.5773378" lon="20.980056"><ele>512.0</ele><time>2026-04-27T10:19:33.177Z</time></trkpt><trkpt lat="39.5772826" lon="20.980007"><ele>516.0</ele><time>2026-04-27T10:19:34.176Z</time></trkpt><trkpt lat="39.5771956" lon="20.979985"><ele>520.0</ele><time>2026-04-27T10:19:35.177Z</time></trkpt><trkpt lat="39.577096" lon="20.9799851"><ele>524.0</ele><time>2026-04-27T10:19:36.176Z</time></trkpt><trkpt lat="39.5769704" lon="20.980009"><ele>528.0</ele><time>2026-04-27T10:19:37.177Z</time></trkpt><trkpt lat="39.5768382" lon="20.9800427"><ele>528.0</ele><time>2026-04-27T10:19:38.177Z</time></trkpt><trkpt lat="39.5767002" lon="20.9800876"><ele>528.0</ele><time>2026-04-27T10:19:39.176Z</time></trkpt><trkpt lat="39.5765534" lon="20.9801371"><ele>528.0</ele><time>2026-04-27T10:19:40.176Z</time></trkpt><trkpt lat="39.5764067" lon="20.980178"><ele>528.0</ele><time>2026-04-27T10:19:41.177Z</time></trkpt><trkpt lat="39.5762618" lon="20.9802068"><ele>524.5</ele><time>2026-04-27T10:19:42.176Z</time></trkpt><trkpt lat="39.5761187" lon="20.9802256"><ele>521.0</ele><time>2026-04-27T10:19:43.177Z</time></trkpt><trkpt lat="39.5759921" lon="20.9802333"><ele>517.5</ele><time>2026-04-27T10:19:44.177Z</time></trkpt><trkpt lat="39.5758835" lon="20.9802357"><ele>514.0</ele><time>2026-04-27T10:19:45.177Z</time></trkpt><trkpt lat="39.5757875" lon="20.9802324"><ele>514.0</ele><time>2026-04-27T10:19:46.177Z</time></trkpt><trkpt lat="39.5757123" lon="20.980219"><ele>514.0</ele><time>2026-04-27T10:19:47.176Z</time></trkpt><trkpt lat="39.5756376" lon="20.9800779"><ele>514.0</ele><time>2026-04-27T10:19:49.176Z</time></trkpt><trkpt lat="39.5756541" lon="20.9799792"><ele>514.0</ele><time>2026-04-27T10:19:50.176Z</time></trkpt><trkpt lat="39.575697" lon="20.9798902"><ele>514.0</ele><time>2026-04-27T10:19:51.177Z</time></trkpt><trkpt lat="39.5757458" lon="20.9798131"><ele>514.0</ele><time>2026-04-27T10:19:52.177Z</time></trkpt><trkpt lat="39.5757921" lon="20.9797278"><ele>509.00000000000006</ele><time>2026-04-27T10:19:53.177Z</time></trkpt><trkpt lat="39.5758105" lon="20.9796339"><ele>504.0</ele><time>2026-04-27T10:19:54.177Z</time></trkpt><trkpt lat="39.575803" lon="20.9795222"><ele>499.0</ele><time>2026-04-27T10:19:55.177Z</time></trkpt><trkpt lat="39.5757645" lon="20.9794233"><ele>494.0</ele><time>2026-04-27T10:19:56.176Z</time></trkpt><trkpt lat="39.5757024" lon="20.9793445"><ele>489.00000000000006</ele><time>2026-04-27T10:19:57.176Z</time></trkpt><trkpt lat="39.5756253" lon="20.9792926"><ele>484.0</ele><time>2026-04-27T10:19:58.177Z</time></trkpt><trkpt lat="39.5755376" lon="20.979276"><ele>484.00000000000006</ele><time>2026-04-27T10:19:59.176Z</time></trkpt><trkpt lat="39.5754454" lon="20.9792628"><ele>484.0</ele><time>2026-04-27T10:20:00.177Z</time></trkpt><trkpt lat="39.5753686" lon="20.9792647"><ele>484.0</ele><time>2026-04-27T10:20:01.176Z</time></trkpt><trkpt lat="39.5753026" lon="20.9792716"><ele>484.0</ele><time>2026-04-27T10:20:02.176Z</time></trkpt><trkpt lat="39.5752002" lon="20.9793013"><ele>484.00000000000006</ele><time>2026-04-27T10:20:04.176Z</time></trkpt><trkpt lat="39.575125" lon="20.9793107"><ele>484.0</ele><time>2026-04-27T10:20:06.176Z</time></trkpt><trkpt lat="39.5750984" lon="20.9792134"><ele>479.6</ele><time>2026-04-27T10:20:09.176Z</time></trkpt><trkpt lat="39.5751984" lon="20.9791625"><ele>475.2</ele><time>2026-04-27T10:20:11.177Z</time></trkpt><trkpt lat="39.575292" lon="20.9791495"><ele>470.80000000000007</ele><time>2026-04-27T10:20:12.177Z</time></trkpt><trkpt lat="39.5754136" lon="20.9791325"><ele>466.40000000000003</ele><time>2026-04-27T10:20:13.176Z</time></trkpt><trkpt lat="39.575529" lon="20.9791186"><ele>462.0</ele><time>2026-04-27T10:20:14.177Z</time></trkpt><trkpt lat="39.5756409" lon="20.9791039"><ele>460.20000000000005</ele><time>2026-04-27T10:20:15.176Z</time></trkpt><trkpt lat="39.5757471" lon="20.9790978"><ele>458.40000000000003</ele><time>2026-04-27T10:20:16.177Z</time></trkpt><trkpt lat="39.5758598" lon="20.9791263"><ele>456.59999999999997</ele><time>2026-04-27T10:20:17.176Z</time></trkpt><trkpt lat="39.5759447" lon="20.9791762"><ele>454.79999999999995</ele><time>2026-04-27T10:20:18.177Z</time></trkpt><trkpt lat="39.5760262" lon="20.979238"><ele>453.0</ele><time>2026-04-27T10:20:19.177Z</time></trkpt><trkpt lat="39.5760769" lon="20.9793403"><ele>458.0</ele><time>2026-04-27T10:20:20.176Z</time></trkpt><trkpt lat="39.5761023" lon="20.9794506"><ele>463.0</ele><time>2026-04-27T10:20:21.177Z</time></trkpt><trkpt lat="39.5761056" lon="20.9795602"><ele>468.0</ele><time>2026-04-27T10:20:22.177Z</time></trkpt><trkpt lat="39.5761304" lon="20.9796483"><ele>473.0</ele><time>2026-04-27T10:20:23.176Z</time></trkpt><trkpt lat="39.576196" lon="20.9797118"><ele>478.0</ele><time>2026-04-27T10:20:24.176Z</time></trkpt><trkpt lat="39.5762679" lon="20.9797349"><ele>483.0</ele><time>2026-04-27T10:20:25.177Z</time></trkpt><trkpt lat="39.576355" lon="20.9797243"><ele>483.0</ele><time>2026-04-27T10:20:26.177Z</time></trkpt><trkpt lat="39.5764591" lon="20.9796546"><ele>483.0</ele><time>2026-04-27T10:20:27.177Z</time></trkpt><trkpt lat="39.5765679" lon="20.9795445"><ele>483.0</ele><time>2026-04-27T10:20:28.177Z</time></trkpt><trkpt lat="39.576664" lon="20.9794387"><ele>483.0</ele><time>2026-04-27T10:20:29.176Z</time></trkpt><trkpt lat="39.5767625" lon="20.9793581"><ele>483.0</ele><time>2026-04-27T10:20:30.176Z</time></trkpt><trkpt lat="39.5768801" lon="20.9792975"><ele>483.0</ele><time>2026-04-27T10:20:31.176Z</time></trkpt><trkpt lat="39.5770211" lon="20.9792653"><ele>483.0</ele><time>2026-04-27T10:20:32.177Z</time></trkpt><trkpt lat="39.5771628" lon="20.9792363"><ele>483.0</ele><time>2026-04-27T10:20:33.176Z</time></trkpt><trkpt lat="39.5773108" lon="20.9791989"><ele>481.0</ele><time>2026-04-27T10:20:34.176Z</time></trkpt><trkpt lat="39.5774439" lon="20.979165"><ele>479.0</ele><time>2026-04-27T10:20:35.176Z</time></trkpt><trkpt lat="39.5775634" lon="20.9791499"><ele>477.0</ele><time>2026-04-27T10:20:36.176Z</time></trkpt><trkpt lat="39.5776815" lon="20.9791565"><ele>475.0</ele><time>2026-04-27T10:20:37.177Z</time></trkpt><trkpt lat="39.5777949" lon="20.9792005"><ele>461.4</ele><time>2026-04-27T10:20:38.177Z</time></trkpt><trkpt lat="39.5778958" lon="20.9792618"><ele>447.8</ele><time>2026-04-27T10:20:39.176Z</time></trkpt><trkpt lat="39.5779751" lon="20.9793171"><ele>434.20000000000005</ele><time>2026-04-27T10:20:40.177Z</time></trkpt><trkpt lat="39.5780435" lon="20.9793534"><ele>420.6</ele><time>2026-04-27T10:20:41.176Z</time></trkpt><trkpt lat="39.5781474" lon="20.9793148"><ele>407.0</ele><time>2026-04-27T10:20:43.176Z</time></trkpt><trkpt lat="39.5781413" lon="20.9791782"><ele>407.0</ele><time>2026-04-27T10:20:45.176Z</time></trkpt><trkpt lat="39.5780703" lon="20.9791026"><ele>407.0</ele><time>2026-04-27T10:20:46.176Z</time></trkpt><trkpt lat="39.5779931" lon="20.9790281"><ele>407.0</ele><time>2026-04-27T10:20:47.176Z</time></trkpt><trkpt lat="39.5778444" lon="20.9789407"><ele>407.0</ele><time>2026-04-27T10:20:48.177Z</time></trkpt><trkpt lat="39.5776949" lon="20.9788819"><ele>418.3333333333333</ele><time>2026-04-27T10:20:49.177Z</time></trkpt><trkpt lat="39.5775423" lon="20.9788444"><ele>429.66666666666663</ele><time>2026-04-27T10:20:50.177Z</time></trkpt><trkpt lat="39.5773958" lon="20.9788124"><ele>441.0</ele><time>2026-04-27T10:20:51.176Z</time></trkpt><trkpt lat="39.5772497" lon="20.9787964"><ele>441.0</ele><time>2026-04-27T10:20:52.177Z</time></trkpt><trkpt lat="39.5771092" lon="20.9787873"><ele>441.0</ele><time>2026-04-27T10:20:53.177Z</time></trkpt><trkpt lat="39.5769717" lon="20.978771"><ele>441.0</ele><time>2026-04-27T10:20:54.176Z</time></trkpt><trkpt lat="39.5768402" lon="20.9787675"><ele>441.0</ele><time>2026-04-27T10:20:55.176Z</time></trkpt><trkpt lat="39.5767113" lon="20.9787769"><ele>441.6</ele><time>2026-04-27T10:20:56.177Z</time></trkpt><trkpt lat="39.576593" lon="20.9787855"><ele>442.20000000000005</ele><time>2026-04-27T10:20:57.177Z</time></trkpt><trkpt lat="39.5764822" lon="20.9787677"><ele>442.79999999999995</ele><time>2026-04-27T10:20:58.176Z</time></trkpt><trkpt lat="39.5763833" lon="20.9787145"><ele>443.4</ele><time>2026-04-27T10:20:59.176Z</time></trkpt><trkpt lat="39.5763116" lon="20.9786028"><ele>444.0</ele><time>2026-04-27T10:21:00.177Z</time></trkpt><trkpt lat="39.5762312" lon="20.9785058"><ele>446.25</ele><time>2026-04-27T10:21:01.176Z</time></trkpt><trkpt lat="39.5761384" lon="20.9784211"><ele>448.5</ele><time>2026-04-27T10:21:02.176Z</time></trkpt><trkpt lat="39.5760223" lon="20.9783644"><ele>450.75</ele><time>2026-04-27T10:21:03.177Z</time></trkpt><trkpt lat="39.5758782" lon="20.9783431"><ele>453.0</ele><time>2026-04-27T10:21:04.177Z</time></trkpt><trkpt lat="39.5757413" lon="20.9783248"><ele>446.0</ele><time>2026-04-27T10:21:05.176Z</time></trkpt><trkpt lat="39.5756186" lon="20.978309"><ele>438.99999999999994</ele><time>2026-04-27T10:21:06.176Z</time></trkpt><trkpt lat="39.5755209" lon="20.9782904"><ele>432.0</ele><time>2026-04-27T10:21:07.177Z</time></trkpt><trkpt lat="39.575444" lon="20.9782389"><ele>425.0</ele><time>2026-04-27T10:21:08.177Z</time></trkpt><trkpt lat="39.575403" lon="20.9781027"><ele>418.0</ele><time>2026-04-27T10:21:10.177Z</time></trkpt><trkpt lat="39.5754416" lon="20.9779863"><ele>418.0</ele><time>2026-04-27T10:21:11.177Z</time></trkpt><trkpt lat="39.5754976" lon="20.977873"><ele>418.0</ele><time>2026-04-27T10:21:12.176Z</time></trkpt><trkpt lat="39.5755753" lon="20.9777786"><ele>418.0</ele><time>2026-04-27T10:21:13.176Z</time></trkpt><trkpt lat="39.575671" lon="20.9777148"><ele>418.0</ele><time>2026-04-27T10:21:14.177Z</time></trkpt><trkpt lat="39.5757926" lon="20.9776949"><ele>418.0</ele><time>2026-04-27T10:21:15.176Z</time></trkpt><trkpt lat="39.5759418" lon="20.9776943"><ele>418.0</ele><time>2026-04-27T10:21:16.177Z</time></trkpt><trkpt lat="39.5760772" lon="20.9776945"><ele>418.0</ele><time>2026-04-27T10:21:17.177Z</time></trkpt><trkpt lat="39.5762023" lon="20.9777278"><ele>418.0</ele><time>2026-04-27T10:21:18.177Z</time></trkpt><trkpt lat="39.5763137" lon="20.9777891"><ele>418.0</ele><time>2026-04-27T10:21:19.177Z</time></trkpt><trkpt lat="39.5764064" lon="20.9778759"><ele>415.25</ele><time>2026-04-27T10:21:20.177Z</time></trkpt><trkpt lat="39.5764876" lon="20.9779831"><ele>412.5</ele><time>2026-04-27T10:21:21.176Z</time></trkpt><trkpt lat="39.5765534" lon="20.9781075"><ele>409.75</ele><time>2026-04-27T10:21:22.177Z</time></trkpt><trkpt lat="39.5766333" lon="20.9782109"><ele>407.0</ele><time>2026-04-27T10:21:23.177Z</time></trkpt><trkpt lat="39.5767233" lon="20.9782948"><ele>407.0</ele><time>2026-04-27T10:21:24.176Z</time></trkpt><trkpt lat="39.5768337" lon="20.9783418"><ele>407.0</ele><time>2026-04-27T10:21:25.176Z</time></trkpt><trkpt lat="39.5769558" lon="20.9783521"><ele>407.0</ele><time>2026-04-27T10:21:26.176Z</time></trkpt><trkpt lat="39.5770934" lon="20.9783233"><ele>407.0</ele><time>2026-04-27T10:21:27.176Z</time></trkpt><trkpt lat="39.5772331" lon="20.9782759"><ele>404.0</ele><time>2026-04-27T10:21:28.176Z</time></trkpt><trkpt lat="39.5773611" lon="20.9782511"><ele>401.0</ele><time>2026-04-27T10:21:29.176Z</time></trkpt><trkpt lat="39.5774865" lon="20.9782436"><ele>398.0</ele><time>2026-04-27T10:21:30.176Z</time></trkpt><trkpt lat="39.5775986" lon="20.9782585"><ele>395.0</ele><time>2026-04-27T10:21:31.176Z</time></trkpt><trkpt lat="39.5777066" lon="20.9782919"><ele>394.99999999999994</ele><time>2026-04-27T10:21:32.177Z</time></trkpt><trkpt lat="39.5777995" lon="20.9783478"><ele>395.0</ele><time>2026-04-27T10:21:33.177Z</time></trkpt><trkpt lat="39.5778837" lon="20.9784076"><ele>395.0</ele><time>2026-04-27T10:21:34.177Z</time></trkpt><trkpt lat="39.577965" lon="20.9784594"><ele>395.0</ele><time>2026-04-27T10:21:35.176Z</time></trkpt><trkpt lat="39.5780334" lon="20.9784742"><ele>394.99999999999994</ele><time>2026-04-27T10:21:36.177Z</time></trkpt><trkpt lat="39.5781105" lon="20.9784276"><ele>395.0</ele><time>2026-04-27T10:21:38.176Z</time></trkpt><trkpt lat="39.5780467" lon="20.978284"><ele>395.0</ele><time>2026-04-27T10:21:40.176Z</time></trkpt><trkpt lat="39.5779687" lon="20.9782261"><ele>395.0</ele><time>2026-04-27T10:21:41.176Z</time></trkpt><trkpt lat="39.5778748" lon="20.9781677"><ele>395.0</ele><time>2026-04-27T10:21:42.177Z</time></trkpt><trkpt lat="39.5777837" lon="20.9780976"><ele>395.0</ele><time>2026-04-27T10:21:43.177Z</time></trkpt><trkpt lat="39.577695" lon="20.9780261"><ele>395.0</ele><time>2026-04-27T10:21:44.177Z</time></trkpt><trkpt lat="39.5775905" lon="20.9779811"><ele>395.0</ele><time>2026-04-27T10:21:45.176Z</time></trkpt><trkpt lat="39.5774771" lon="20.9779754"><ele>395.0</ele><time>2026-04-27T10:21:46.176Z</time></trkpt><trkpt lat="39.5773704" lon="20.9779934"><ele>395.0</ele><time>2026-04-27T10:21:47.176Z</time></trkpt><trkpt lat="39.5772737" lon="20.9780223"><ele>395.0</ele><time>2026-04-27T10:21:48.176Z</time></trkpt><trkpt lat="39.5771882" lon="20.9780321"><ele>395.0</ele><time>2026-04-27T10:21:49.177Z</time></trkpt><trkpt lat="39.5771205" lon="20.9780186"><ele>395.0</ele><time>2026-04-27T10:21:50.177Z</time></trkpt><trkpt lat="39.577053" lon="20.9778465"><ele>395.0</ele><time>2026-04-27T10:21:52.176Z</time></trkpt><trkpt lat="39.5770473" lon="20.9777188"><ele>395.0</ele><time>2026-04-27T10:21:53.176Z</time></trkpt><trkpt lat="39.5770259" lon="20.9775991"><ele>395.0</ele><time>2026-04-27T10:21:54.177Z</time></trkpt><trkpt lat="39.5769627" lon="20.9774855"><ele>389.0</ele><time>2026-04-27T10:21:55.177Z</time></trkpt><trkpt lat="39.5768733" lon="20.9774042"><ele>383.0</ele><time>2026-04-27T10:21:56.177Z</time></trkpt><trkpt lat="39.5767694" lon="20.9773421"><ele>377.0</ele><time>2026-04-27T10:21:57.176Z</time></trkpt><trkpt lat="39.576656" lon="20.9773022"><ele>371.0</ele><time>2026-04-27T10:21:58.177Z</time></trkpt><trkpt lat="39.5765432" lon="20.9772628"><ele>371.0</ele><time>2026-04-27T10:21:59.176Z</time></trkpt><trkpt lat="39.5764344" lon="20.9772279"><ele>371.0</ele><time>2026-04-27T10:22:00.177Z</time></trkpt><trkpt lat="39.5763424" lon="20.9771822"><ele>371.0</ele><time>2026-04-27T10:22:01.176Z</time></trkpt><trkpt lat="39.5762795" lon="20.9771045"><ele>371.0</ele><time>2026-04-27T10:22:02.177Z</time></trkpt><trkpt lat="39.5762348" lon="20.9769984"><ele>371.0</ele><time>2026-04-27T10:22:03.177Z</time></trkpt><trkpt lat="39.5762085" lon="20.9768893"><ele>371.0</ele><time>2026-04-27T10:22:04.176Z</time></trkpt><trkpt lat="39.5762135" lon="20.9767575"><ele>371.0</ele><time>2026-04-27T10:22:05.176Z</time></trkpt><trkpt lat="39.5762296" lon="20.9766173"><ele>371.0</ele><time>2026-04-27T10:22:06.176Z</time></trkpt><trkpt lat="39.5762715" lon="20.976491"><ele>371.0</ele><time>2026-04-27T10:22:07.176Z</time></trkpt><trkpt lat="39.5763391" lon="20.976415"><ele>371.0</ele><time>2026-04-27T10:22:08.176Z</time></trkpt><trkpt lat="39.576425" lon="20.9763596"><ele>369.6</ele><time>2026-04-27T10:22:09.177Z</time></trkpt><trkpt lat="39.5765356" lon="20.9763661"><ele>368.20000000000005</ele><time>2026-04-27T10:22:10.177Z</time></trkpt><trkpt lat="39.5766477" lon="20.976377"><ele>366.79999999999995</ele><time>2026-04-27T10:22:11.176Z</time></trkpt><trkpt lat="39.5767577" lon="20.9763838"><ele>365.4</ele><time>2026-04-27T10:22:12.176Z</time></trkpt><trkpt lat="39.5768641" lon="20.9763685"><ele>364.0</ele><time>2026-04-27T10:22:13.176Z</time></trkpt><trkpt lat="39.5769467" lon="20.9763042"><ele>364.0</ele><time>2026-04-27T10:22:14.176Z</time></trkpt><trkpt lat="39.5770068" lon="20.9762043"><ele>364.0</ele><time>2026-04-27T10:22:15.176Z</time></trkpt><trkpt lat="39.5770499" lon="20.9760645"><ele>364.0</ele><time>2026-04-27T10:22:16.176Z</time></trkpt><trkpt lat="39.5770828" lon="20.9758922"><ele>364.0</ele><time>2026-04-27T10:22:17.177Z</time></trkpt><trkpt lat="39.5771162" lon="20.9757255"><ele>371.5</ele><time>2026-04-27T10:22:18.177Z</time></trkpt><trkpt lat="39.5771649" lon="20.9755471"><ele>379.0</ele><time>2026-04-27T10:22:19.177Z</time></trkpt><trkpt lat="39.5772276" lon="20.9753742"><ele>386.5</ele><time>2026-04-27T10:22:20.177Z</time></trkpt><trkpt lat="39.577303" lon="20.9752465"><ele>394.0</ele><time>2026-04-27T10:22:21.176Z</time></trkpt><trkpt lat="39.5773865" lon="20.9751297"><ele>394.0</ele><time>2026-04-27T10:22:22.176Z</time></trkpt><trkpt lat="39.5774834" lon="20.9750514"><ele>394.0</ele><time>2026-04-27T10:22:23.177Z</time></trkpt><trkpt lat="39.5775904" lon="20.9750206"><ele>394.0</ele><time>2026-04-27T10:22:24.177Z</time></trkpt><trkpt lat="39.5777013" lon="20.974962"><ele>394.0</ele><time>2026-04-27T10:22:25.177Z</time></trkpt><trkpt lat="39.5777809" lon="20.9748759"><ele>394.0</ele><time>2026-04-27T10:22:26.176Z</time></trkpt><trkpt lat="39.577838" lon="20.9747449"><ele>394.75</ele><time>2026-04-27T10:22:27.177Z</time></trkpt><trkpt lat="39.5778684" lon="20.9745797"><ele>395.5</ele><time>2026-04-27T10:22:28.176Z</time></trkpt><trkpt lat="39.5778881" lon="20.9743949"><ele>396.25</ele><time>2026-04-27T10:22:29.177Z</time></trkpt><trkpt lat="39.5779066" lon="20.9742181"><ele>397.0</ele><time>2026-04-27T10:22:30.176Z</time></trkpt><trkpt lat="39.5779413" lon="20.9740417"><ele>397.0</ele><time>2026-04-27T10:22:31.176Z</time></trkpt><trkpt lat="39.5779971" lon="20.9739148"><ele>397.0</ele><time>2026-04-27T10:22:32.177Z</time></trkpt><trkpt lat="39.5780764" lon="20.9738435"><ele>397.0</ele><time>2026-04-27T10:22:33.176Z</time></trkpt><trkpt lat="39.5781938" lon="20.9737847"><ele>397.0</ele><time>2026-04-27T10:22:34.176Z</time></trkpt><trkpt lat="39.5783291" lon="20.9737208"><ele>397.0</ele><time>2026-04-27T10:22:35.177Z</time></trkpt><trkpt lat="39.5784886" lon="20.9736404"><ele>397.0</ele><time>2026-04-27T10:22:36.177Z</time></trkpt><trkpt lat="39.5786188" lon="20.973542"><ele>397.0</ele><time>2026-04-27T10:22:37.177Z</time></trkpt><trkpt lat="39.578726" lon="20.9734263"><ele>405.0</ele><time>2026-04-27T10:22:38.177Z</time></trkpt><trkpt lat="39.5788211" lon="20.973274"><ele>413.0</ele><time>2026-04-27T10:22:39.176Z</time></trkpt><trkpt lat="39.5789021" lon="20.973113"><ele>421.0</ele><time>2026-04-27T10:22:40.176Z</time></trkpt><trkpt lat="39.5789671" lon="20.9729328"><ele>421.0</ele><time>2026-04-27T10:22:41.177Z</time></trkpt><trkpt lat="39.579012" lon="20.9727368"><ele>421.0</ele><time>2026-04-27T10:22:42.177Z</time></trkpt><trkpt lat="39.579044" lon="20.9725255"><ele>421.0</ele><time>2026-04-27T10:22:43.177Z</time></trkpt><trkpt lat="39.5790886" lon="20.9723347"><ele>418.8</ele><time>2026-04-27T10:22:44.177Z</time></trkpt><trkpt lat="39.5791354" lon="20.9721713"><ele>416.6</ele><time>2026-04-27T10:22:45.177Z</time></trkpt><trkpt lat="39.5791747" lon="20.9720369"><ele>414.4</ele><time>2026-04-27T10:22:46.177Z</time></trkpt><trkpt lat="39.5791899" lon="20.9719366"><ele>412.2</ele><time>2026-04-27T10:22:47.176Z</time></trkpt><trkpt lat="39.5791956" lon="20.9718369"><ele>410.0</ele><time>2026-04-27T10:22:48.177Z</time></trkpt><trkpt lat="39.5791245" lon="20.9717998"><ele>410.0</ele><time>2026-04-27T10:22:49.176Z</time></trkpt><trkpt lat="39.5790128" lon="20.9718743"><ele>410.0</ele><time>2026-04-27T10:22:51.176Z</time></trkpt><trkpt lat="39.5789726" lon="20.9719958"><ele>410.0</ele><time>2026-04-27T10:22:52.177Z</time></trkpt><trkpt lat="39.5789241" lon="20.9721634"><ele>410.0</ele><time>2026-04-27T10:22:53.177Z</time></trkpt><trkpt lat="39.5788947" lon="20.9723549"><ele>410.5</ele><time>2026-04-27T10:22:54.177Z</time></trkpt><trkpt lat="39.5788601" lon="20.9725275"><ele>411.0</ele><time>2026-04-27T10:22:55.176Z</time></trkpt><trkpt lat="39.5788253" lon="20.9727133"><ele>411.5</ele><time>2026-04-27T10:22:56.177Z</time></trkpt><trkpt lat="39.578758" lon="20.9728946"><ele>412.0</ele><time>2026-04-27T10:22:57.176Z</time></trkpt><trkpt lat="39.5786737" lon="20.9730634"><ele>412.0</ele><time>2026-04-27T10:22:58.176Z</time></trkpt><trkpt lat="39.5785915" lon="20.9731982"><ele>412.0</ele><time>2026-04-27T10:22:59.176Z</time></trkpt><trkpt lat="39.5785138" lon="20.9733015"><ele>412.0</ele><time>2026-04-27T10:23:00.177Z</time></trkpt><trkpt lat="39.57842" lon="20.9733708"><ele>412.0</ele><time>2026-04-27T10:23:01.176Z</time></trkpt><trkpt lat="39.5782928" lon="20.9734016"><ele>409.0</ele><time>2026-04-27T10:23:02.176Z</time></trkpt><trkpt lat="39.5781679" lon="20.9734236"><ele>406.0</ele><time>2026-04-27T10:23:03.177Z</time></trkpt><trkpt lat="39.578067" lon="20.9734678"><ele>403.0</ele><time>2026-04-27T10:23:04.176Z</time></trkpt><trkpt lat="39.5779796" lon="20.9735219"><ele>400.0</ele><time>2026-04-27T10:23:05.177Z</time></trkpt><trkpt lat="39.5779003" lon="20.9735683"><ele>397.0</ele><time>2026-04-27T10:23:06.176Z</time></trkpt><trkpt lat="39.5778296" lon="20.9735939"><ele>397.0</ele><time>2026-04-27T10:23:07.176Z</time></trkpt><trkpt lat="39.5777125" lon="20.9736036"><ele>397.0</ele><time>2026-04-27T10:23:09.177Z</time></trkpt><trkpt lat="39.577658" lon="20.9735475"><ele>397.0</ele><time>2026-04-27T10:23:11.177Z</time></trkpt><trkpt lat="39.5779988" lon="20.9734403"><ele>397.0</ele><time>2026-04-27T10:23:12.176Z</time></trkpt><trkpt lat="39.5781098" lon="20.973397"><ele>397.0</ele><time>2026-04-27T10:23:13.177Z</time></trkpt><trkpt lat="39.5782188" lon="20.9733624"><ele>397.0</ele><time>2026-04-27T10:23:14.177Z</time></trkpt><trkpt lat="39.578314" lon="20.9733158"><ele>397.0</ele><time>2026-04-27T10:23:15.176Z</time></trkpt><trkpt lat="39.5784002" lon="20.9732383"><ele>397.0</ele><time>2026-04-27T10:23:16.176Z</time></trkpt><trkpt lat="39.5784772" lon="20.9731195"><ele>400.0</ele><time>2026-04-27T10:23:17.177Z</time></trkpt><trkpt lat="39.5785328" lon="20.9729875"><ele>403.0</ele><time>2026-04-27T10:23:18.176Z</time></trkpt><trkpt lat="39.5785496" lon="20.9728435"><ele>406.0</ele><time>2026-04-27T10:23:19.177Z</time></trkpt><trkpt lat="39.5785297" lon="20.9727228"><ele>409.0</ele><time>2026-04-27T10:23:20.176Z</time></trkpt><trkpt lat="39.5784806" lon="20.9726187"><ele>412.0</ele><time>2026-04-27T10:23:21.177Z</time></trkpt><trkpt lat="39.578429" lon="20.9725389"><ele>417.0</ele><time>2026-04-27T10:23:22.176Z</time></trkpt><trkpt lat="39.5784079" lon="20.972458"><ele>422.0</ele><time>2026-04-27T10:23:23.176Z</time></trkpt><trkpt lat="39.5784327" lon="20.9723597"><ele>427.00000000000006</ele><time>2026-04-27T10:23:24.176Z</time></trkpt><trkpt lat="39.5784947" lon="20.9722629"><ele>432.0</ele><time>2026-04-27T10:23:25.177Z</time></trkpt><trkpt lat="39.578583" lon="20.9722194"><ele>437.0</ele><time>2026-04-27T10:23:26.176Z</time></trkpt><trkpt lat="39.5786625" lon="20.9721123"><ele>432.0</ele><time>2026-04-27T10:23:27.176Z</time></trkpt><trkpt lat="39.5787375" lon="20.9719611"><ele>427.0</ele><time>2026-04-27T10:23:28.177Z</time></trkpt><trkpt lat="39.5787882" lon="20.9717816"><ele>422.0</ele><time>2026-04-27T10:23:29.177Z</time></trkpt><trkpt lat="39.5788122" lon="20.9715691"><ele>422.0</ele><time>2026-04-27T10:23:30.177Z</time></trkpt><trkpt lat="39.5788271" lon="20.9713579"><ele>422.0</ele><time>2026-04-27T10:23:31.176Z</time></trkpt><trkpt lat="39.5788647" lon="20.9711645"><ele>422.0</ele><time>2026-04-27T10:23:32.176Z</time></trkpt><trkpt lat="39.5789319" lon="20.9709651"><ele>429.3333333333333</ele><time>2026-04-27T10:23:33.177Z</time></trkpt><trkpt lat="39.5790085" lon="20.9707578"><ele>436.66666666666663</ele><time>2026-04-27T10:23:34.176Z</time></trkpt><trkpt lat="39.5790626" lon="20.9705673"><ele>444.0</ele><time>2026-04-27T10:23:35.176Z</time></trkpt><trkpt lat="39.5791167" lon="20.9704294"><ele>444.0</ele><time>2026-04-27T10:23:36.176Z</time></trkpt><trkpt lat="39.579189" lon="20.9703051"><ele>444.0</ele><time>2026-04-27T10:23:37.176Z</time></trkpt><trkpt lat="39.5792868" lon="20.9702309"><ele>444.0</ele><time>2026-04-27T10:23:38.176Z</time></trkpt><trkpt lat="39.5794015" lon="20.9702144"><ele>444.0</ele><time>2026-04-27T10:23:39.176Z</time></trkpt><trkpt lat="39.5795146" lon="20.970141"><ele>443.75</ele><time>2026-04-27T10:23:40.176Z</time></trkpt><trkpt lat="39.579619" lon="20.9700079"><ele>443.5</ele><time>2026-04-27T10:23:41.177Z</time></trkpt><trkpt lat="39.5797064" lon="20.9698781"><ele>443.25</ele><time>2026-04-27T10:23:42.177Z</time></trkpt><trkpt lat="39.5797716" lon="20.9697426"><ele>443.0</ele><time>2026-04-27T10:23:43.177Z</time></trkpt><trkpt lat="39.579811" lon="20.9696254"><ele>442.99999999999994</ele><time>2026-04-27T10:23:44.176Z</time></trkpt><trkpt lat="39.5798182" lon="20.9695328"><ele>443.0</ele><time>2026-04-27T10:23:45.177Z</time></trkpt><trkpt lat="39.5797888" lon="20.9694563"><ele>443.0</ele><time>2026-04-27T10:23:46.176Z</time></trkpt><trkpt lat="39.5797308" lon="20.9694226"><ele>443.0</ele><time>2026-04-27T10:23:47.177Z</time></trkpt><trkpt lat="39.5796116" lon="20.9695191"><ele>442.99999999999994</ele><time>2026-04-27T10:23:49.176Z</time></trkpt><trkpt lat="39.5795302" lon="20.969608"><ele>443.0</ele><time>2026-04-27T10:23:50.176Z</time></trkpt><trkpt lat="39.5794304" lon="20.9697049"><ele>443.25</ele><time>2026-04-27T10:23:51.177Z</time></trkpt><trkpt lat="39.5793011" lon="20.9697682"><ele>443.5</ele><time>2026-04-27T10:23:52.177Z</time></trkpt><trkpt lat="39.5791741" lon="20.9698354"><ele>443.75</ele><time>2026-04-27T10:23:53.177Z</time></trkpt><trkpt lat="39.5790578" lon="20.9699245"><ele>444.0</ele><time>2026-04-27T10:23:54.176Z</time></trkpt><trkpt lat="39.5789761" lon="20.9701023"><ele>444.0</ele><time>2026-04-27T10:23:55.177Z</time></trkpt><trkpt lat="39.57891" lon="20.9702718"><ele>444.0</ele><time>2026-04-27T10:23:56.177Z</time></trkpt><trkpt lat="39.5788439" lon="20.9704082"><ele>444.0</ele><time>2026-04-27T10:23:57.176Z</time></trkpt><trkpt lat="39.5787716" lon="20.9705114"><ele>444.0</ele><time>2026-04-27T10:23:58.177Z</time></trkpt><trkpt lat="39.5787081" lon="20.9705645"><ele>444.0</ele><time>2026-04-27T10:23:59.176Z</time></trkpt><trkpt lat="39.5786058" lon="20.9704992"><ele>444.0</ele><time>2026-04-27T10:24:01.176Z</time></trkpt><trkpt lat="39.5786453" lon="20.9704193"><ele>444.0</ele><time>2026-04-27T10:24:02.177Z</time></trkpt><trkpt lat="39.5786941" lon="20.9703245"><ele>444.0</ele><time>2026-04-27T10:24:03.177Z</time></trkpt><trkpt lat="39.578737" lon="20.9702237"><ele>444.0</ele><time>2026-04-27T10:24:04.177Z</time></trkpt><trkpt lat="39.5787709" lon="20.9700792"><ele>447.5</ele><time>2026-04-27T10:24:05.176Z</time></trkpt><trkpt lat="39.578789" lon="20.9699234"><ele>451.0</ele><time>2026-04-27T10:24:06.177Z</time></trkpt><trkpt lat="39.5787998" lon="20.9697571"><ele>454.5</ele><time>2026-04-27T10:24:07.177Z</time></trkpt><trkpt lat="39.5788111" lon="20.9695729"><ele>458.0</ele><time>2026-04-27T10:24:08.176Z</time></trkpt><trkpt lat="39.5788225" lon="20.9693857"><ele>458.0</ele><time>2026-04-27T10:24:09.177Z</time></trkpt><trkpt lat="39.5788316" lon="20.9692123"><ele>457.99999999999994</ele><time>2026-04-27T10:24:10.176Z</time></trkpt><trkpt lat="39.5788466" lon="20.9690662"><ele>457.99999999999994</ele><time>2026-04-27T10:24:11.176Z</time></trkpt><trkpt lat="39.578847" lon="20.9689493"><ele>458.0</ele><time>2026-04-27T10:24:12.177Z</time></trkpt><trkpt lat="39.5788368" lon="20.9688493"><ele>458.0</ele><time>2026-04-27T10:24:13.177Z</time></trkpt><trkpt lat="39.5787953" lon="20.9687802"><ele>461.0</ele><time>2026-04-27T10:24:14.176Z</time></trkpt><trkpt lat="39.5786837" lon="20.9688037"><ele>463.99999999999994</ele><time>2026-04-27T10:24:16.177Z</time></trkpt><trkpt lat="39.5786456" lon="20.968881"><ele>466.99999999999994</ele><time>2026-04-27T10:24:17.177Z</time></trkpt><trkpt lat="39.5786323" lon="20.969"><ele>470.0</ele><time>2026-04-27T10:24:18.177Z</time></trkpt><trkpt lat="39.578625" lon="20.9691341"><ele>473.0</ele><time>2026-04-27T10:24:19.176Z</time></trkpt><trkpt lat="39.5786132" lon="20.9692872"><ele>473.0</ele><time>2026-04-27T10:24:20.177Z</time></trkpt><trkpt lat="39.578588" lon="20.9694327"><ele>472.99999999999994</ele><time>2026-04-27T10:24:21.176Z</time></trkpt><trkpt lat="39.5785594" lon="20.9695632"><ele>472.99999999999994</ele><time>2026-04-27T10:24:22.176Z</time></trkpt><trkpt lat="39.5785377" lon="20.9696809"><ele>473.0</ele><time>2026-04-27T10:24:23.176Z</time></trkpt><trkpt lat="39.5785143" lon="20.969778"><ele>473.0</ele><time>2026-04-27T10:24:24.177Z</time></trkpt><trkpt lat="39.5784238" lon="20.9698519"><ele>473.0</ele><time>2026-04-27T10:24:26.176Z</time></trkpt><trkpt lat="39.5783873" lon="20.9697181"><ele>472.99999999999994</ele><time>2026-04-27T10:24:28.177Z</time></trkpt><trkpt lat="39.5784116" lon="20.9696088"><ele>472.99999999999994</ele><time>2026-04-27T10:24:29.176Z</time></trkpt><trkpt lat="39.578443" lon="20.9694835"><ele>473.0</ele><time>2026-04-27T10:24:30.176Z</time></trkpt><trkpt lat="39.5784576" lon="20.9693225"><ele>473.0</ele><time>2026-04-27T10:24:31.176Z</time></trkpt><trkpt lat="39.5784491" lon="20.9691549"><ele>478.0</ele><time>2026-04-27T10:24:32.176Z</time></trkpt><trkpt lat="39.5784114" lon="20.9689754"><ele>483.0</ele><time>2026-04-27T10:24:33.176Z</time></trkpt><trkpt lat="39.5783443" lon="20.9687819"><ele>488.0</ele><time>2026-04-27T10:24:34.176Z</time></trkpt><trkpt lat="39.5782664" lon="20.9685997"><ele>488.0</ele><time>2026-04-27T10:24:35.177Z</time></trkpt><trkpt lat="39.5781897" lon="20.9684516"><ele>488.0</ele><time>2026-04-27T10:24:36.177Z</time></trkpt><trkpt lat="39.5781029" lon="20.9683088"><ele>488.0</ele><time>2026-04-27T10:24:37.177Z</time></trkpt><trkpt lat="39.5780413" lon="20.9681904"><ele>488.0</ele><time>2026-04-27T10:24:38.177Z</time></trkpt><trkpt lat="39.5780188" lon="20.9680643"><ele>488.5</ele><time>2026-04-27T10:24:39.176Z</time></trkpt><trkpt lat="39.5780585" lon="20.9679319"><ele>489.0</ele><time>2026-04-27T10:24:40.177Z</time></trkpt><trkpt lat="39.5781424" lon="20.96778"><ele>489.5</ele><time>2026-04-27T10:24:41.176Z</time></trkpt><trkpt lat="39.578251" lon="20.9676668"><ele>490.0</ele><time>2026-04-27T10:24:42.176Z</time></trkpt><trkpt lat="39.5783681" lon="20.9675479"><ele>491.75</ele><time>2026-04-27T10:24:43.177Z</time></trkpt><trkpt lat="39.5784778" lon="20.9674273"><ele>493.5</ele><time>2026-04-27T10:24:44.176Z</time></trkpt><trkpt lat="39.5785766" lon="20.9673035"><ele>495.25</ele><time>2026-04-27T10:24:45.176Z</time></trkpt><trkpt lat="39.5786507" lon="20.9671675"><ele>497.0</ele><time>2026-04-27T10:24:46.176Z</time></trkpt><trkpt lat="39.5786895" lon="20.9670208"><ele>500.0</ele><time>2026-04-27T10:24:47.177Z</time></trkpt><trkpt lat="39.5786942" lon="20.9668598"><ele>503.0</ele><time>2026-04-27T10:24:48.176Z</time></trkpt><trkpt lat="39.5786659" lon="20.9666878"><ele>506.0</ele><time>2026-04-27T10:24:49.177Z</time></trkpt><trkpt lat="39.5786164" lon="20.966521"><ele>509.0</ele><time>2026-04-27T10:24:50.176Z</time></trkpt><trkpt lat="39.5785545" lon="20.9663545"><ele>509.0</ele><time>2026-04-27T10:24:51.176Z</time></trkpt><trkpt lat="39.5784833" lon="20.9662016"><ele>509.0</ele><time>2026-04-27T10:24:52.177Z</time></trkpt><trkpt lat="39.5784247" lon="20.9660554"><ele>509.0</ele><time>2026-04-27T10:24:53.177Z</time></trkpt><trkpt lat="39.5783828" lon="20.9659194"><ele>509.0</ele><time>2026-04-27T10:24:54.176Z</time></trkpt><trkpt lat="39.5783614" lon="20.9657814"><ele>510.5</ele><time>2026-04-27T10:24:55.176Z</time></trkpt><trkpt lat="39.5783817" lon="20.9656291"><ele>512.0</ele><time>2026-04-27T10:24:56.176Z</time></trkpt><trkpt lat="39.5784417" lon="20.965452"><ele>513.5</ele><time>2026-04-27T10:24:57.176Z</time></trkpt><trkpt lat="39.5785162" lon="20.9652871"><ele>515.0</ele><time>2026-04-27T10:24:58.176Z</time></trkpt><trkpt lat="39.5785986" lon="20.9651305"><ele>513.3333333333333</ele><time>2026-04-27T10:24:59.176Z</time></trkpt><trkpt lat="39.5787006" lon="20.9649618"><ele>511.66666666666663</ele><time>2026-04-27T10:25:00.176Z</time></trkpt><trkpt lat="39.5787918" lon="20.9647975"><ele>510.0</ele><time>2026-04-27T10:25:01.177Z</time></trkpt><trkpt lat="39.5788682" lon="20.9646112"><ele>510.0</ele><time>2026-04-27T10:25:02.176Z</time></trkpt><trkpt lat="39.5789275" lon="20.9644055"><ele>510.0</ele><time>2026-04-27T10:25:03.177Z</time></trkpt><trkpt lat="39.5789698" lon="20.9641948"><ele>510.0</ele><time>2026-04-27T10:25:04.177Z</time></trkpt><trkpt lat="39.579016" lon="20.9640065"><ele>513.25</ele><time>2026-04-27T10:25:05.176Z</time></trkpt><trkpt lat="39.5790735" lon="20.9638369"><ele>516.5</ele><time>2026-04-27T10:25:06.176Z</time></trkpt><trkpt lat="39.5791649" lon="20.9637098"><ele>519.75</ele><time>2026-04-27T10:25:07.177Z</time></trkpt><trkpt lat="39.5792847" lon="20.9636052"><ele>523.0</ele><time>2026-04-27T10:25:08.176Z</time></trkpt><trkpt lat="39.5794046" lon="20.9635396"><ele>523.0</ele><time>2026-04-27T10:25:09.177Z</time></trkpt><trkpt lat="39.579515" lon="20.9634743"><ele>523.0</ele><time>2026-04-27T10:25:10.177Z</time></trkpt><trkpt lat="39.5796171" lon="20.9633875"><ele>523.0</ele><time>2026-04-27T10:25:11.177Z</time></trkpt><trkpt lat="39.5796757" lon="20.9632632"><ele>523.0</ele><time>2026-04-27T10:25:12.176Z</time></trkpt><trkpt lat="39.5797004" lon="20.9631169"><ele>517.0</ele><time>2026-04-27T10:25:13.177Z</time></trkpt><trkpt lat="39.5796847" lon="20.9629566"><ele>511.0</ele><time>2026-04-27T10:25:14.176Z</time></trkpt><trkpt lat="39.5796372" lon="20.9627796"><ele>505.0</ele><time>2026-04-27T10:25:15.177Z</time></trkpt><trkpt lat="39.5795838" lon="20.9626056"><ele>499.0</ele><time>2026-04-27T10:25:16.177Z</time></trkpt><trkpt lat="39.5795526" lon="20.9624252"><ele>499.0</ele><time>2026-04-27T10:25:17.177Z</time></trkpt><trkpt lat="39.5795757" lon="20.9622255"><ele>499.0</ele><time>2026-04-27T10:25:18.176Z</time></trkpt><trkpt lat="39.579592" lon="20.9620255"><ele>499.0</ele><time>2026-04-27T10:25:19.176Z</time></trkpt><trkpt lat="39.579599" lon="20.9618196"><ele>499.75</ele><time>2026-04-27T10:25:20.176Z</time></trkpt><trkpt lat="39.5796095" lon="20.9616147"><ele>500.5</ele><time>2026-04-27T10:25:21.176Z</time></trkpt><trkpt lat="39.5796244" lon="20.9614229"><ele>501.25</ele><time>2026-04-27T10:25:22.177Z</time></trkpt><trkpt lat="39.5796405" lon="20.9612406"><ele>502.0</ele><time>2026-04-27T10:25:23.176Z</time></trkpt><trkpt lat="39.5796441" lon="20.9610604"><ele>502.0</ele><time>2026-04-27T10:25:24.176Z</time></trkpt><trkpt lat="39.5796456" lon="20.9608865"><ele>502.0</ele><time>2026-04-27T10:25:25.177Z</time></trkpt><trkpt lat="39.5796234" lon="20.9607262"><ele>502.0</ele><time>2026-04-27T10:25:26.177Z</time></trkpt><trkpt lat="39.5795777" lon="20.9605807"><ele>502.0</ele><time>2026-04-27T10:25:27.177Z</time></trkpt><trkpt lat="39.5795162" lon="20.9604427"><ele>506.25</ele><time>2026-04-27T10:25:28.176Z</time></trkpt><trkpt lat="39.5794647" lon="20.9603046"><ele>510.5</ele><time>2026-04-27T10:25:29.176Z</time></trkpt><trkpt lat="39.5794461" lon="20.9601433"><ele>514.75</ele><time>2026-04-27T10:25:30.176Z</time></trkpt><trkpt lat="39.5794684" lon="20.9599904"><ele>519.0</ele><time>2026-04-27T10:25:31.177Z</time></trkpt><trkpt lat="39.5795164" lon="20.9598267"><ele>516.6666666666666</ele><time>2026-04-27T10:25:32.177Z</time></trkpt><trkpt lat="39.5795953" lon="20.9596617"><ele>514.3333333333333</ele><time>2026-04-27T10:25:33.177Z</time></trkpt><trkpt lat="39.5797041" lon="20.9594772"><ele>512.0</ele><time>2026-04-27T10:25:34.177Z</time></trkpt><trkpt lat="39.5798006" lon="20.9592995"><ele>513.5</ele><time>2026-04-27T10:25:35.177Z</time></trkpt><trkpt lat="39.5800002" lon="20.9591016"><ele>515.0</ele><time>2026-04-27T10:25:36.176Z</time></trkpt><trkpt lat="39.5801661" lon="20.9589124"><ele>515.0</ele><time>2026-04-27T10:25:37.177Z</time></trkpt><trkpt lat="39.5803185" lon="20.9587502"><ele>515.0</ele><time>2026-04-27T10:25:38.177Z</time></trkpt><trkpt lat="39.5804664" lon="20.9585976"><ele>515.0</ele><time>2026-04-27T10:25:39.177Z</time></trkpt><trkpt lat="39.5805956" lon="20.9584562"><ele>516.75</ele><time>2026-04-27T10:25:40.177Z</time></trkpt><trkpt lat="39.5807057" lon="20.9583038"><ele>518.5</ele><time>2026-04-27T10:25:41.177Z</time></trkpt><trkpt lat="39.5807808" lon="20.958145"><ele>520.25</ele><time>2026-04-27T10:25:42.177Z</time></trkpt><trkpt lat="39.5808139" lon="20.9579709"><ele>522.0</ele><time>2026-04-27T10:25:43.176Z</time></trkpt><trkpt lat="39.5808111" lon="20.9578101"><ele>522.0</ele><time>2026-04-27T10:25:44.177Z</time></trkpt><trkpt lat="39.5807753" lon="20.9576326"><ele>522.0</ele><time>2026-04-27T10:25:45.177Z</time></trkpt><trkpt lat="39.580714" lon="20.9574502"><ele>522.0</ele><time>2026-04-27T10:25:46.176Z</time></trkpt><trkpt lat="39.5806482" lon="20.9572599"><ele>522.0</ele><time>2026-04-27T10:25:47.176Z</time></trkpt><trkpt lat="39.5805996" lon="20.9570604"><ele>522.0</ele><time>2026-04-27T10:25:48.176Z</time></trkpt><trkpt lat="39.5805638" lon="20.9568334"><ele>522.0</ele><time>2026-04-27T10:25:49.176Z</time></trkpt><trkpt lat="39.5805285" lon="20.9565988"><ele>524.3333333333334</ele><time>2026-04-27T10:25:50.176Z</time></trkpt><trkpt lat="39.5804971" lon="20.9563516"><ele>526.6666666666667</ele><time>2026-04-27T10:25:51.176Z</time></trkpt><trkpt lat="39.5804542" lon="20.9561073"><ele>529.0</ele><time>2026-04-27T10:25:52.176Z</time></trkpt><trkpt lat="39.5804124" lon="20.9558791"><ele>531.3333333333334</ele><time>2026-04-27T10:25:53.176Z</time></trkpt><trkpt lat="39.580375" lon="20.9556687"><ele>533.6666666666666</ele><time>2026-04-27T10:25:54.176Z</time></trkpt><trkpt lat="39.5803516" lon="20.9554566"><ele>536.0</ele><time>2026-04-27T10:25:55.177Z</time></trkpt><trkpt lat="39.5803742" lon="20.9552494"><ele>538.3333333333333</ele><time>2026-04-27T10:25:56.177Z</time></trkpt><trkpt lat="39.580393" lon="20.9550346"><ele>540.6666666666666</ele><time>2026-04-27T10:25:57.176Z</time></trkpt><trkpt lat="39.5804074" lon="20.9548284"><ele>543.0</ele><time>2026-04-27T10:25:58.176Z</time></trkpt><trkpt lat="39.5804373" lon="20.9546219"><ele>543.0</ele><time>2026-04-27T10:25:59.176Z</time></trkpt><trkpt lat="39.5804808" lon="20.9544367"><ele>543.0</ele><time>2026-04-27T10:26:00.177Z</time></trkpt><trkpt lat="39.5805631" lon="20.9542613"><ele>543.0</ele><time>2026-04-27T10:26:01.177Z</time></trkpt><trkpt lat="39.5806638" lon="20.9540876"><ele>541.6666666666666</ele><time>2026-04-27T10:26:02.177Z</time></trkpt><trkpt lat="39.5807749" lon="20.9539116"><ele>540.3333333333333</ele><time>2026-04-27T10:26:03.176Z</time></trkpt><trkpt lat="39.5808879" lon="20.9537434"><ele>539.0</ele><time>2026-04-27T10:26:04.177Z</time></trkpt><trkpt lat="39.5810054" lon="20.9536007"><ele>539.0</ele><time>2026-04-27T10:26:05.177Z</time></trkpt><trkpt lat="39.5811214" lon="20.9534736"><ele>539.0</ele><time>2026-04-27T10:26:06.177Z</time></trkpt><trkpt lat="39.5812327" lon="20.9533476"><ele>539.0</ele><time>2026-04-27T10:26:07.177Z</time></trkpt><trkpt lat="39.5813519" lon="20.9532273"><ele>540.6666666666666</ele><time>2026-04-27T10:26:08.176Z</time></trkpt><trkpt lat="39.5814856" lon="20.953111"><ele>542.3333333333334</ele><time>2026-04-27T10:26:09.177Z</time></trkpt><trkpt lat="39.5816228" lon="20.9529932"><ele>544.0</ele><time>2026-04-27T10:26:10.176Z</time></trkpt><trkpt lat="39.581757" lon="20.9528712"><ele>544.0</ele><time>2026-04-27T10:26:11.177Z</time></trkpt><trkpt lat="39.5818846" lon="20.9527444"><ele>544.0</ele><time>2026-04-27T10:26:12.177Z</time></trkpt><trkpt lat="39.5820113" lon="20.9526471"><ele>544.0</ele><time>2026-04-27T10:26:13.176Z</time></trkpt><trkpt lat="39.5821354" lon="20.9525365"><ele>543.3333333333334</ele><time>2026-04-27T10:26:14.176Z</time></trkpt><trkpt lat="39.5822562" lon="20.9524045"><ele>542.6666666666666</ele><time>2026-04-27T10:26:15.177Z</time></trkpt><trkpt lat="39.5823687" lon="20.9522476"><ele>542.0</ele><time>2026-04-27T10:26:16.176Z</time></trkpt><trkpt lat="39.5824824" lon="20.9520762"><ele>542.0</ele><time>2026-04-27T10:26:17.176Z</time></trkpt><trkpt lat="39.5826083" lon="20.9519125"><ele>542.0</ele><time>2026-04-27T10:26:18.177Z</time></trkpt><trkpt lat="39.5827325" lon="20.9517609"><ele>542.0</ele><time>2026-04-27T10:26:19.177Z</time></trkpt><trkpt lat="39.5828513" lon="20.9516265"><ele>539.0</ele><time>2026-04-27T10:26:20.177Z</time></trkpt><trkpt lat="39.5829718" lon="20.9515154"><ele>536.0</ele><time>2026-04-27T10:26:21.177Z</time></trkpt><trkpt lat="39.5830962" lon="20.9514133"><ele>533.0</ele><time>2026-04-27T10:26:22.176Z</time></trkpt><trkpt lat="39.583227" lon="20.9513633"><ele>530.0</ele><time>2026-04-27T10:26:23.177Z</time></trkpt><trkpt lat="39.5833397" lon="20.9513234"><ele>530.0</ele><time>2026-04-27T10:26:24.177Z</time></trkpt><trkpt lat="39.583429" lon="20.9512878"><ele>530.0</ele><time>2026-04-27T10:26:25.176Z</time></trkpt><trkpt lat="39.5834985" lon="20.9512223"><ele>530.0</ele><time>2026-04-27T10:26:26.177Z</time></trkpt><trkpt lat="39.5835498" lon="20.9511113"><ele>530.0</ele><time>2026-04-27T10:26:27.176Z</time></trkpt><trkpt lat="39.5835872" lon="20.9509704"><ele>530.0</ele><time>2026-04-27T10:26:28.176Z</time></trkpt><trkpt lat="39.5836173" lon="20.9508118"><ele>529.25</ele><time>2026-04-27T10:26:29.177Z</time></trkpt><trkpt lat="39.5836568" lon="20.9506371"><ele>528.5</ele><time>2026-04-27T10:26:30.176Z</time></trkpt><trkpt lat="39.5837028" lon="20.9504646"><ele>527.75</ele><time>2026-04-27T10:26:31.177Z</time></trkpt><trkpt lat="39.583762" lon="20.9502997"><ele>527.0</ele><time>2026-04-27T10:26:32.177Z</time></trkpt><trkpt lat="39.5838194" lon="20.9501435"><ele>523.25</ele><time>2026-04-27T10:26:33.176Z</time></trkpt><trkpt lat="39.5838877" lon="20.9499975"><ele>519.5</ele><time>2026-04-27T10:26:34.176Z</time></trkpt><trkpt lat="39.5839412" lon="20.9498498"><ele>515.75</ele><time>2026-04-27T10:26:35.176Z</time></trkpt><trkpt lat="39.583968" lon="20.9497169"><ele>512.0</ele><time>2026-04-27T10:26:36.176Z</time></trkpt><trkpt lat="39.5839895" lon="20.9495931"><ele>512.0</ele><time>2026-04-27T10:26:37.177Z</time></trkpt><trkpt lat="39.5840058" lon="20.949476"><ele>512.0</ele><time>2026-04-27T10:26:38.176Z</time></trkpt><trkpt lat="39.5840153" lon="20.9493566"><ele>512.0</ele><time>2026-04-27T10:26:39.176Z</time></trkpt><trkpt lat="39.5840203" lon="20.949238"><ele>512.0</ele><time>2026-04-27T10:26:40.176Z</time></trkpt><trkpt lat="39.5840231" lon="20.9491096"><ele>512.0</ele><time>2026-04-27T10:26:41.176Z</time></trkpt><trkpt lat="39.5840197" lon="20.9489761"><ele>510.75</ele><time>2026-04-27T10:26:42.177Z</time></trkpt><trkpt lat="39.5840164" lon="20.9488192"><ele>509.5</ele><time>2026-04-27T10:26:43.177Z</time></trkpt><trkpt lat="39.5840071" lon="20.9486635"><ele>508.25</ele><time>2026-04-27T10:26:44.176Z</time></trkpt><trkpt lat="39.5840135" lon="20.9484836"><ele>507.0</ele><time>2026-04-27T10:26:45.176Z</time></trkpt><trkpt lat="39.5840221" lon="20.948294"><ele>506.0</ele><time>2026-04-27T10:26:46.177Z</time></trkpt><trkpt lat="39.5840424" lon="20.9480918"><ele>505.0</ele><time>2026-04-27T10:26:47.177Z</time></trkpt><trkpt lat="39.584058" lon="20.9479039"><ele>504.0</ele><time>2026-04-27T10:26:48.177Z</time></trkpt><trkpt lat="39.5840737" lon="20.9477234"><ele>503.0</ele><time>2026-04-27T10:26:49.177Z</time></trkpt><trkpt lat="39.5840899" lon="20.9475541"><ele>502.5</ele><time>2026-04-27T10:26:50.176Z</time></trkpt><trkpt lat="39.584088" lon="20.9473673"><ele>502.0</ele><time>2026-04-27T10:26:51.177Z</time></trkpt><trkpt lat="39.5840841" lon="20.9472047"><ele>501.5</ele><time>2026-04-27T10:26:52.177Z</time></trkpt><trkpt lat="39.5840802" lon="20.9470649"><ele>501.0</ele><time>2026-04-27T10:26:53.176Z</time></trkpt><trkpt lat="39.5840705" lon="20.9469604"><ele>501.0</ele><time>2026-04-27T10:26:54.176Z</time></trkpt><trkpt lat="39.5840669" lon="20.9468246"><ele>501.0</ele><time>2026-04-27T10:26:56.176Z</time></trkpt><trkpt lat="39.5841322" lon="20.9467515"><ele>501.0</ele><time>2026-04-27T10:26:58.177Z</time></trkpt><trkpt lat="39.5842347" lon="20.9467712"><ele>501.0</ele><time>2026-04-27T10:27:00.177Z</time></trkpt><trkpt lat="39.5843352" lon="20.9468044"><ele>501.0</ele><time>2026-04-27T10:27:02.177Z</time></trkpt><trkpt lat="39.5844071" lon="20.9468275"><ele>501.0</ele><time>2026-04-27T10:27:05.177Z</time></trkpt><trkpt lat="39.5844793" lon="20.9468348"><ele>501.0</ele><time>2026-04-27T10:39:13.172Z</time></trkpt><trkpt lat="39.5846068" lon="20.9468437"><ele>501.0</ele><time>2026-04-27T10:39:15.172Z</time></trkpt><trkpt lat="39.5846757" lon="20.9468501"><ele>501.0</ele><time>2026-04-27T10:39:16.171Z</time></trkpt><trkpt lat="39.5847511" lon="20.9468635"><ele>501.0</ele><time>2026-04-27T10:39:17.171Z</time></trkpt><trkpt lat="39.5848369" lon="20.946883"><ele>501.0</ele><time>2026-04-27T10:39:18.172Z</time></trkpt><trkpt lat="39.5849466" lon="20.9468972"><ele>499.75</ele><time>2026-04-27T10:39:19.172Z</time></trkpt><trkpt lat="39.5850575" lon="20.9469031"><ele>498.5</ele><time>2026-04-27T10:39:20.171Z</time></trkpt><trkpt lat="39.5851708" lon="20.9469147"><ele>497.25</ele><time>2026-04-27T10:39:21.171Z</time></trkpt><trkpt lat="39.5852869" lon="20.9469275"><ele>496.0</ele><time>2026-04-27T10:39:22.171Z</time></trkpt><trkpt lat="39.585405" lon="20.9469432"><ele>496.0</ele><time>2026-04-27T10:39:23.171Z</time></trkpt><trkpt lat="39.5855259" lon="20.9469647"><ele>496.0</ele><time>2026-04-27T10:39:24.171Z</time></trkpt><trkpt lat="39.5856467" lon="20.9469856"><ele>496.0</ele><time>2026-04-27T10:39:25.172Z</time></trkpt><trkpt lat="39.5857663" lon="20.9470039"><ele>496.0</ele><time>2026-04-27T10:39:26.171Z</time></trkpt><trkpt lat="39.585888" lon="20.9470193"><ele>496.0</ele><time>2026-04-27T10:39:27.172Z</time></trkpt><trkpt lat="39.5859966" lon="20.947032"><ele>496.0</ele><time>2026-04-27T10:39:28.171Z</time></trkpt><trkpt lat="39.5860989" lon="20.9470431"><ele>496.0</ele><time>2026-04-27T10:39:29.172Z</time></trkpt><trkpt lat="39.5861976" lon="20.9470474"><ele>496.0</ele><time>2026-04-27T10:39:30.171Z</time></trkpt><trkpt lat="39.586293" lon="20.9470537"><ele>496.0</ele><time>2026-04-27T10:39:31.172Z</time></trkpt><trkpt lat="39.5863929" lon="20.9470586"><ele>495.8</ele><time>2026-04-27T10:39:32.172Z</time></trkpt><trkpt lat="39.5864933" lon="20.94706"><ele>495.6</ele><time>2026-04-27T10:39:33.171Z</time></trkpt><trkpt lat="39.5865916" lon="20.9470621"><ele>495.4</ele><time>2026-04-27T10:39:34.172Z</time></trkpt><trkpt lat="39.5866904" lon="20.9470645"><ele>495.2</ele><time>2026-04-27T10:39:35.172Z</time></trkpt><trkpt lat="39.58678" lon="20.9470728"><ele>495.0</ele><time>2026-04-27T10:39:36.171Z</time></trkpt><trkpt lat="39.5868887" lon="20.9470836"><ele>495.0</ele><time>2026-04-27T10:39:37.171Z</time></trkpt><trkpt lat="39.5869994" lon="20.947098"><ele>495.0</ele><time>2026-04-27T10:39:38.172Z</time></trkpt><trkpt lat="39.5871156" lon="20.9471082"><ele>495.0</ele><time>2026-04-27T10:39:39.171Z</time></trkpt><trkpt lat="39.5872158" lon="20.9471143"><ele>495.0</ele><time>2026-04-27T10:39:40.172Z</time></trkpt><trkpt lat="39.5873046" lon="20.9471132"><ele>495.0</ele><time>2026-04-27T10:39:41.171Z</time></trkpt><trkpt lat="39.5874136" lon="20.9470697"><ele>495.6</ele><time>2026-04-27T10:39:43.171Z</time></trkpt><trkpt lat="39.5874715" lon="20.9470147"><ele>496.2</ele><time>2026-04-27T10:39:44.171Z</time></trkpt><trkpt lat="39.5875382" lon="20.9469446"><ele>496.79999999999995</ele><time>2026-04-27T10:39:45.172Z</time></trkpt><trkpt lat="39.5876269" lon="20.9468841"><ele>497.4</ele><time>2026-04-27T10:39:46.171Z</time></trkpt><trkpt lat="39.5877194" lon="20.9468221"><ele>498.0</ele><time>2026-04-27T10:39:47.171Z</time></trkpt><trkpt lat="39.5878415" lon="20.9468048"><ele>497.33333333333337</ele><time>2026-04-27T10:39:48.171Z</time></trkpt><trkpt lat="39.5880253" lon="20.9468131"><ele>496.6666666666667</ele><time>2026-04-27T10:39:49.172Z</time></trkpt><trkpt lat="39.5881811" lon="20.9467841"><ele>496.0</ele><time>2026-04-27T10:39:50.172Z</time></trkpt><trkpt lat="39.5883349" lon="20.9467671"><ele>496.0</ele><time>2026-04-27T10:39:51.172Z</time></trkpt><trkpt lat="39.5884967" lon="20.946744"><ele>496.0</ele><time>2026-04-27T10:39:52.171Z</time></trkpt><trkpt lat="39.5886387" lon="20.9467262"><ele>496.0</ele><time>2026-04-27T10:39:53.172Z</time></trkpt><trkpt lat="39.5887732" lon="20.9467133"><ele>496.0</ele><time>2026-04-27T10:39:54.172Z</time></trkpt><trkpt lat="39.5889047" lon="20.9467091"><ele>496.75</ele><time>2026-04-27T10:39:55.171Z</time></trkpt><trkpt lat="39.5890076" lon="20.9467523"><ele>497.5</ele><time>2026-04-27T10:39:56.171Z</time></trkpt><trkpt lat="39.589122" lon="20.9467863"><ele>498.25</ele><time>2026-04-27T10:39:57.171Z</time></trkpt><trkpt lat="39.5892343" lon="20.9468449"><ele>499.0</ele><time>2026-04-27T10:39:58.171Z</time></trkpt><trkpt lat="39.5893459" lon="20.9469082"><ele>499.0</ele><time>2026-04-27T10:39:59.171Z</time></trkpt><trkpt lat="39.5894544" lon="20.9469699"><ele>499.0</ele><time>2026-04-27T10:40:00.171Z</time></trkpt><trkpt lat="39.5895586" lon="20.9470255"><ele>499.0</ele><time>2026-04-27T10:40:01.171Z</time></trkpt><trkpt lat="39.5896609" lon="20.9470648"><ele>499.0</ele><time>2026-04-27T10:40:02.172Z</time></trkpt><trkpt lat="39.589754" lon="20.947102"><ele>499.0</ele><time>2026-04-27T10:40:03.172Z</time></trkpt><trkpt lat="39.5898493" lon="20.9471204"><ele>499.5</ele><time>2026-04-27T10:40:04.171Z</time></trkpt><trkpt lat="39.5899424" lon="20.9471166"><ele>500.0</ele><time>2026-04-27T10:40:05.165Z</time></trkpt><trkpt lat="39.5900674" lon="20.9470672"><ele>500.5</ele><time>2026-04-27T10:40:06.171Z</time></trkpt><trkpt lat="39.5901802" lon="20.9470233"><ele>501.0</ele><time>2026-04-27T10:40:07.172Z</time></trkpt><trkpt lat="39.5903088" lon="20.9469729"><ele>501.0</ele><time>2026-04-27T10:40:08.172Z</time></trkpt><trkpt lat="39.5904364" lon="20.9469196"><ele>501.0</ele><time>2026-04-27T10:40:09.172Z</time></trkpt><trkpt lat="39.5905623" lon="20.9468725"><ele>501.0</ele><time>2026-04-27T10:40:10.172Z</time></trkpt><trkpt lat="39.5906939" lon="20.9468271"><ele>501.0</ele><time>2026-04-27T10:40:11.172Z</time></trkpt><trkpt lat="39.5908182" lon="20.9467714"><ele>501.0</ele><time>2026-04-27T10:40:12.172Z</time></trkpt><trkpt lat="39.5909452" lon="20.946718"><ele>501.0</ele><time>2026-04-27T10:40:13.172Z</time></trkpt><trkpt lat="39.5910651" lon="20.946668"><ele>501.0</ele><time>2026-04-27T10:40:14.171Z</time></trkpt><trkpt lat="39.5911842" lon="20.9466157"><ele>501.0</ele><time>2026-04-27T10:40:15.172Z</time></trkpt><trkpt lat="39.5912987" lon="20.946564"><ele>501.5</ele><time>2026-04-27T10:40:16.172Z</time></trkpt><trkpt lat="39.5914117" lon="20.9465064"><ele>502.0</ele><time>2026-04-27T10:40:17.172Z</time></trkpt><trkpt lat="39.5915175" lon="20.9464427"><ele>502.5</ele><time>2026-04-27T10:40:18.172Z</time></trkpt><trkpt lat="39.5916064" lon="20.946348"><ele>503.0</ele><time>2026-04-27T10:40:19.171Z</time></trkpt><trkpt lat="39.5916861" lon="20.9462323"><ele>503.0</ele><time>2026-04-27T10:40:20.172Z</time></trkpt><trkpt lat="39.5917768" lon="20.9461072"><ele>503.0</ele><time>2026-04-27T10:40:21.172Z</time></trkpt><trkpt lat="39.591873" lon="20.9459864"><ele>503.0</ele><time>2026-04-27T10:40:22.172Z</time></trkpt><trkpt lat="39.591971" lon="20.945861"><ele>503.0</ele><time>2026-04-27T10:40:23.172Z</time></trkpt><trkpt lat="39.5920678" lon="20.9457331"><ele>502.5</ele><time>2026-04-27T10:40:24.172Z</time></trkpt><trkpt lat="39.5921658" lon="20.9456048"><ele>502.0</ele><time>2026-04-27T10:40:25.172Z</time></trkpt><trkpt lat="39.5922668" lon="20.9454804"><ele>501.5</ele><time>2026-04-27T10:40:26.172Z</time></trkpt><trkpt lat="39.5923614" lon="20.9453581"><ele>501.0</ele><time>2026-04-27T10:40:27.172Z</time></trkpt><trkpt lat="39.5924609" lon="20.9452412"><ele>501.0</ele><time>2026-04-27T10:40:28.172Z</time></trkpt><trkpt lat="39.5925555" lon="20.9451181"><ele>501.0</ele><time>2026-04-27T10:40:29.172Z</time></trkpt><trkpt lat="39.5926459" lon="20.9449993"><ele>501.0</ele><time>2026-04-27T10:40:30.172Z</time></trkpt><trkpt lat="39.5927344" lon="20.9448843"><ele>501.0</ele><time>2026-04-27T10:40:31.171Z</time></trkpt><trkpt lat="39.5928055" lon="20.9447728"><ele>500.5</ele><time>2026-04-27T10:40:32.172Z</time></trkpt><trkpt lat="39.5928552" lon="20.9446548"><ele>500.0</ele><time>2026-04-27T10:40:33.172Z</time></trkpt><trkpt lat="39.5928818" lon="20.9445265"><ele>499.5</ele><time>2026-04-27T10:40:34.171Z</time></trkpt><trkpt lat="39.5928913" lon="20.9443765"><ele>499.0</ele><time>2026-04-27T10:40:35.172Z</time></trkpt><trkpt lat="39.5929075" lon="20.9442031"><ele>498.75</ele><time>2026-04-27T10:40:36.171Z</time></trkpt><trkpt lat="39.5929275" lon="20.944028"><ele>498.5</ele><time>2026-04-27T10:40:37.171Z</time></trkpt><trkpt lat="39.5929439" lon="20.9438535"><ele>498.25</ele><time>2026-04-27T10:40:38.171Z</time></trkpt><trkpt lat="39.5929601" lon="20.9436856"><ele>498.0</ele><time>2026-04-27T10:40:39.171Z</time></trkpt><trkpt lat="39.5929739" lon="20.9435232"><ele>497.75</ele><time>2026-04-27T10:40:40.172Z</time></trkpt><trkpt lat="39.5929888" lon="20.9433569"><ele>497.5</ele><time>2026-04-27T10:40:41.172Z</time></trkpt><trkpt lat="39.5929978" lon="20.9431785"><ele>497.25</ele><time>2026-04-27T10:40:42.171Z</time></trkpt><trkpt lat="39.5930011" lon="20.9429896"><ele>497.0</ele><time>2026-04-27T10:40:43.172Z</time></trkpt><trkpt lat="39.593002" lon="20.9427826"><ele>497.0</ele><time>2026-04-27T10:40:44.172Z</time></trkpt><trkpt lat="39.5929987" lon="20.9425608"><ele>497.0</ele><time>2026-04-27T10:40:45.171Z</time></trkpt><trkpt lat="39.5929944" lon="20.9423373"><ele>497.0</ele><time>2026-04-27T10:40:46.171Z</time></trkpt><trkpt lat="39.5929905" lon="20.9420926"><ele>497.0</ele><time>2026-04-27T10:40:47.171Z</time></trkpt><trkpt lat="39.5929861" lon="20.9418449"><ele>497.0</ele><time>2026-04-27T10:40:48.172Z</time></trkpt><trkpt lat="39.5929822" lon="20.9416062"><ele>497.0</ele><time>2026-04-27T10:40:49.171Z</time></trkpt><trkpt lat="39.5929752" lon="20.9413823"><ele>496.66666666666663</ele><time>2026-04-27T10:40:50.171Z</time></trkpt><trkpt lat="39.5929654" lon="20.9411709"><ele>496.33333333333337</ele><time>2026-04-27T10:40:51.171Z</time></trkpt><trkpt lat="39.5929522" lon="20.9409679"><ele>496.0</ele><time>2026-04-27T10:40:52.172Z</time></trkpt><trkpt lat="39.5929399" lon="20.9407752"><ele>496.0</ele><time>2026-04-27T10:40:53.172Z</time></trkpt><trkpt lat="39.5929382" lon="20.940595"><ele>496.0</ele><time>2026-04-27T10:40:54.172Z</time></trkpt><trkpt lat="39.5929447" lon="20.9404224"><ele>496.0</ele><time>2026-04-27T10:40:55.171Z</time></trkpt><trkpt lat="39.5929714" lon="20.9402716"><ele>496.0</ele><time>2026-04-27T10:40:56.171Z</time></trkpt><trkpt lat="39.5930321" lon="20.9401303"><ele>495.25</ele><time>2026-04-27T10:40:57.171Z</time></trkpt><trkpt lat="39.5931134" lon="20.9400015"><ele>494.5</ele><time>2026-04-27T10:40:58.171Z</time></trkpt><trkpt lat="39.5932217" lon="20.939897"><ele>493.75</ele><time>2026-04-27T10:40:59.171Z</time></trkpt><trkpt lat="39.5933313" lon="20.9398226"><ele>493.0</ele><time>2026-04-27T10:41:00.172Z</time></trkpt><trkpt lat="39.5934802" lon="20.9397606"><ele>493.0</ele><time>2026-04-27T10:41:01.172Z</time></trkpt><trkpt lat="39.5936309" lon="20.9397303"><ele>493.0</ele><time>2026-04-27T10:41:02.171Z</time></trkpt><trkpt lat="39.5937847" lon="20.9397131"><ele>493.0</ele><time>2026-04-27T10:41:03.171Z</time></trkpt><trkpt lat="39.5939227" lon="20.9397093"><ele>493.0</ele><time>2026-04-27T10:41:04.171Z</time></trkpt><trkpt lat="39.5940524" lon="20.939721"><ele>494.0</ele><time>2026-04-27T10:41:05.171Z</time></trkpt><trkpt lat="39.5941846" lon="20.9396641"><ele>495.0</ele><time>2026-04-27T10:41:06.171Z</time></trkpt><trkpt lat="39.5943215" lon="20.9395871"><ele>496.0</ele><time>2026-04-27T10:41:07.171Z</time></trkpt><trkpt lat="39.5944579" lon="20.9394974"><ele>497.0</ele><time>2026-04-27T10:41:08.172Z</time></trkpt><trkpt lat="39.5945895" lon="20.9394004"><ele>497.0</ele><time>2026-04-27T10:41:09.172Z</time></trkpt><trkpt lat="39.5947129" lon="20.9393006"><ele>497.0</ele><time>2026-04-27T10:41:10.171Z</time></trkpt><trkpt lat="39.594829" lon="20.9392101"><ele>497.0</ele><time>2026-04-27T10:41:11.172Z</time></trkpt><trkpt lat="39.5949394" lon="20.9391364"><ele>497.0</ele><time>2026-04-27T10:41:12.171Z</time></trkpt><trkpt lat="39.5950413" lon="20.9390766"><ele>497.20000000000005</ele><time>2026-04-27T10:41:13.171Z</time></trkpt><trkpt lat="39.5951329" lon="20.939018"><ele>497.40000000000003</ele><time>2026-04-27T10:41:14.172Z</time></trkpt><trkpt lat="39.5952224" lon="20.9389505"><ele>497.59999999999997</ele><time>2026-04-27T10:41:15.171Z</time></trkpt><trkpt lat="39.5953143" lon="20.9388782"><ele>497.79999999999995</ele><time>2026-04-27T10:41:16.171Z</time></trkpt><trkpt lat="39.595414" lon="20.938811"><ele>498.0</ele><time>2026-04-27T10:41:17.172Z</time></trkpt><trkpt lat="39.5955202" lon="20.9387458"><ele>498.0</ele><time>2026-04-27T10:41:18.171Z</time></trkpt><trkpt lat="39.5956283" lon="20.9387081"><ele>498.0</ele><time>2026-04-27T10:41:19.171Z</time></trkpt><trkpt lat="39.5957567" lon="20.9386774"><ele>498.0</ele><time>2026-04-27T10:41:20.172Z</time></trkpt><trkpt lat="39.5958722" lon="20.9386874"><ele>498.0</ele><time>2026-04-27T10:41:21.172Z</time></trkpt><trkpt lat="39.5959924" lon="20.9387224"><ele>498.0</ele><time>2026-04-27T10:41:22.171Z</time></trkpt><trkpt lat="39.5961319" lon="20.9387694"><ele>498.0</ele><time>2026-04-27T10:41:23.171Z</time></trkpt><trkpt lat="39.5962673" lon="20.9388094"><ele>498.0</ele><time>2026-04-27T10:41:24.171Z</time></trkpt><trkpt lat="39.5964247" lon="20.9387908"><ele>498.0</ele><time>2026-04-27T10:41:25.171Z</time></trkpt><trkpt lat="39.5965866" lon="20.9387905"><ele>497.33333333333337</ele><time>2026-04-27T10:41:26.172Z</time></trkpt><trkpt lat="39.5967504" lon="20.938764"><ele>496.6666666666667</ele><time>2026-04-27T10:41:27.171Z</time></trkpt><trkpt lat="39.5969188" lon="20.9387419"><ele>496.0</ele><time>2026-04-27T10:41:28.171Z</time></trkpt><trkpt lat="39.5970864" lon="20.9387075"><ele>496.0</ele><time>2026-04-27T10:41:29.171Z</time></trkpt><trkpt lat="39.5972525" lon="20.9386723"><ele>496.0</ele><time>2026-04-27T10:41:30.172Z</time></trkpt><trkpt lat="39.5974181" lon="20.9386409"><ele>496.0</ele><time>2026-04-27T10:41:31.171Z</time></trkpt><trkpt lat="39.5975785" lon="20.9386126"><ele>496.0</ele><time>2026-04-27T10:41:32.172Z</time></trkpt><trkpt lat="39.5977362" lon="20.9385808"><ele>496.0</ele><time>2026-04-27T10:41:33.171Z</time></trkpt><trkpt lat="39.59789" lon="20.93855"><ele>496.0</ele><time>2026-04-27T10:41:34.171Z</time></trkpt><trkpt lat="39.5980433" lon="20.9385151"><ele>495.0</ele><time>2026-04-27T10:41:35.171Z</time></trkpt><trkpt lat="39.5981968" lon="20.9384845"><ele>494.0</ele><time>2026-04-27T10:41:36.172Z</time></trkpt><trkpt lat="39.5983556" lon="20.9384743"><ele>493.0</ele><time>2026-04-27T10:41:37.171Z</time></trkpt><trkpt lat="39.5985197" lon="20.9384808"><ele>492.6666666666667</ele><time>2026-04-27T10:41:38.171Z</time></trkpt><trkpt lat="39.5986825" lon="20.9384787"><ele>492.33333333333337</ele><time>2026-04-27T10:41:39.171Z</time></trkpt><trkpt lat="39.5988411" lon="20.938464"><ele>492.0</ele><time>2026-04-27T10:41:40.172Z</time></trkpt><trkpt lat="39.5989872" lon="20.9384402"><ele>492.0</ele><time>2026-04-27T10:41:41.172Z</time></trkpt><trkpt lat="39.5991214" lon="20.9384183"><ele>492.0</ele><time>2026-04-27T10:41:42.171Z</time></trkpt><trkpt lat="39.599252" lon="20.9384116"><ele>492.0</ele><time>2026-04-27T10:41:43.172Z</time></trkpt><trkpt lat="39.59938" lon="20.9384281"><ele>492.0</ele><time>2026-04-27T10:41:44.171Z</time></trkpt><trkpt lat="39.5994985" lon="20.9384685"><ele>492.25</ele><time>2026-04-27T10:41:45.171Z</time></trkpt><trkpt lat="39.5996136" lon="20.9384802"><ele>492.5</ele><time>2026-04-27T10:41:46.172Z</time></trkpt><trkpt lat="39.5997388" lon="20.9384553"><ele>492.75</ele><time>2026-04-27T10:41:47.172Z</time></trkpt><trkpt lat="39.5998682" lon="20.9384152"><ele>493.0</ele><time>2026-04-27T10:41:48.172Z</time></trkpt><trkpt lat="39.6000002" lon="20.9383716"><ele>492.25</ele><time>2026-04-27T10:41:49.172Z</time></trkpt><trkpt lat="39.6001342" lon="20.9383211"><ele>491.5</ele><time>2026-04-27T10:41:50.171Z</time></trkpt><trkpt lat="39.6002673" lon="20.938264"><ele>490.75</ele><time>2026-04-27T10:41:51.171Z</time></trkpt><trkpt lat="39.6003956" lon="20.9382095"><ele>490.0</ele><time>2026-04-27T10:41:52.172Z</time></trkpt><trkpt lat="39.6005139" lon="20.9381558"><ele>490.0</ele><time>2026-04-27T10:41:53.172Z</time></trkpt><trkpt lat="39.600622" lon="20.9381"><ele>490.0</ele><time>2026-04-27T10:41:54.171Z</time></trkpt><trkpt lat="39.6007104" lon="20.9380242"><ele>490.0</ele><time>2026-04-27T10:41:55.171Z</time></trkpt><trkpt lat="39.6007758" lon="20.9379142"><ele>490.0</ele><time>2026-04-27T10:41:56.171Z</time></trkpt><trkpt lat="39.6008308" lon="20.9377758"><ele>490.0</ele><time>2026-04-27T10:41:57.172Z</time></trkpt><trkpt lat="39.6008821" lon="20.9376366"><ele>489.75</ele><time>2026-04-27T10:41:58.172Z</time></trkpt><trkpt lat="39.600939" lon="20.9375007"><ele>489.5</ele><time>2026-04-27T10:41:59.171Z</time></trkpt><trkpt lat="39.6009926" lon="20.9373605"><ele>489.25</ele><time>2026-04-27T10:42:00.171Z</time></trkpt><trkpt lat="39.6010328" lon="20.937208"><ele>489.0</ele><time>2026-04-27T10:42:01.172Z</time></trkpt><trkpt lat="39.6010533" lon="20.9370462"><ele>489.0</ele><time>2026-04-27T10:42:02.172Z</time></trkpt><trkpt lat="39.6010679" lon="20.9368761"><ele>489.0</ele><time>2026-04-27T10:42:03.172Z</time></trkpt><trkpt lat="39.6010791" lon="20.9366994"><ele>489.0</ele><time>2026-04-27T10:42:04.171Z</time></trkpt><trkpt lat="39.6010873" lon="20.9365208"><ele>489.0</ele><time>2026-04-27T10:42:05.172Z</time></trkpt><trkpt lat="39.6010916" lon="20.9363421"><ele>489.0</ele><time>2026-04-27T10:42:06.172Z</time></trkpt><trkpt lat="39.6010852" lon="20.93616"><ele>489.0</ele><time>2026-04-27T10:42:07.172Z</time></trkpt><trkpt lat="39.6010585" lon="20.9359874"><ele>489.0</ele><time>2026-04-27T10:42:08.171Z</time></trkpt><trkpt lat="39.6010175" lon="20.9358225"><ele>489.0</ele><time>2026-04-27T10:42:09.172Z</time></trkpt><trkpt lat="39.600973" lon="20.9356685"><ele>489.2</ele><time>2026-04-27T10:42:10.171Z</time></trkpt><trkpt lat="39.6009355" lon="20.9355225"><ele>489.4</ele><time>2026-04-27T10:42:11.172Z</time></trkpt><trkpt lat="39.6009065" lon="20.9353801"><ele>489.6</ele><time>2026-04-27T10:42:12.172Z</time></trkpt><trkpt lat="39.60091" lon="20.9352481"><ele>489.8</ele><time>2026-04-27T10:42:13.172Z</time></trkpt><trkpt lat="39.6009428" lon="20.9351164"><ele>490.0</ele><time>2026-04-27T10:42:14.171Z</time></trkpt><trkpt lat="39.6010097" lon="20.9350065"><ele>489.5</ele><time>2026-04-27T10:42:15.172Z</time></trkpt><trkpt lat="39.6010947" lon="20.9348961"><ele>489.0</ele><time>2026-04-27T10:42:16.172Z</time></trkpt><trkpt lat="39.6011991" lon="20.9348138"><ele>488.5</ele><time>2026-04-27T10:42:17.171Z</time></trkpt><trkpt lat="39.6013391" lon="20.9347656"><ele>488.0</ele><time>2026-04-27T10:42:18.171Z</time></trkpt><trkpt lat="39.6014836" lon="20.9347276"><ele>490.0</ele><time>2026-04-27T10:42:19.171Z</time></trkpt><trkpt lat="39.6016254" lon="20.9346875"><ele>492.0</ele><time>2026-04-27T10:42:20.171Z</time></trkpt><trkpt lat="39.6017687" lon="20.9346386"><ele>494.0</ele><time>2026-04-27T10:42:21.171Z</time></trkpt><trkpt lat="39.6019164" lon="20.9345896"><ele>496.0</ele><time>2026-04-27T10:42:22.172Z</time></trkpt><trkpt lat="39.6020586" lon="20.9345363"><ele>496.75</ele><time>2026-04-27T10:42:23.172Z</time></trkpt><trkpt lat="39.602196" lon="20.9344766"><ele>497.5</ele><time>2026-04-27T10:42:24.172Z</time></trkpt><trkpt lat="39.6023234" lon="20.9343959"><ele>498.25</ele><time>2026-04-27T10:42:25.172Z</time></trkpt><trkpt lat="39.6024404" lon="20.934282"><ele>499.0</ele><time>2026-04-27T10:42:26.171Z</time></trkpt><trkpt lat="39.602552" lon="20.9341328"><ele>496.6666666666667</ele><time>2026-04-27T10:42:27.171Z</time></trkpt><trkpt lat="39.6026619" lon="20.9339794"><ele>494.33333333333337</ele><time>2026-04-27T10:42:28.172Z</time></trkpt><trkpt lat="39.6027677" lon="20.9338239"><ele>492.0</ele><time>2026-04-27T10:42:29.171Z</time></trkpt><trkpt lat="39.6028635" lon="20.9336867"><ele>492.0</ele><time>2026-04-27T10:42:30.171Z</time></trkpt><trkpt lat="39.6029418" lon="20.9335809"><ele>492.00000000000006</ele><time>2026-04-27T10:42:31.172Z</time></trkpt><trkpt lat="39.603013" lon="20.9335232"><ele>492.00000000000006</ele><time>2026-04-27T10:42:32.172Z</time></trkpt><trkpt lat="39.6030876" lon="20.9334796"><ele>492.0</ele><time>2026-04-27T10:42:33.172Z</time></trkpt><trkpt lat="39.6031726" lon="20.9335132"><ele>492.0</ele><time>2026-04-27T10:42:34.172Z</time></trkpt><trkpt lat="39.6032761" lon="20.9335713"><ele>492.0</ele><time>2026-04-27T10:42:35.172Z</time></trkpt><trkpt lat="39.6034047" lon="20.9336458"><ele>492.0</ele><time>2026-04-27T10:42:36.171Z</time></trkpt><trkpt lat="39.6035659" lon="20.9337449"><ele>492.0</ele><time>2026-04-27T10:42:37.172Z</time></trkpt><trkpt lat="39.6037119" lon="20.9338239"><ele>491.0</ele><time>2026-04-27T10:42:38.171Z</time></trkpt><trkpt lat="39.6038622" lon="20.9339127"><ele>490.0</ele><time>2026-04-27T10:42:39.172Z</time></trkpt><trkpt lat="39.604018" lon="20.9340003"><ele>489.0</ele><time>2026-04-27T10:42:40.171Z</time></trkpt><trkpt lat="39.6041784" lon="20.9340904"><ele>489.0</ele><time>2026-04-27T10:42:41.172Z</time></trkpt><trkpt lat="39.6043363" lon="20.9341732"><ele>489.0</ele><time>2026-04-27T10:42:42.172Z</time></trkpt><trkpt lat="39.6044811" lon="20.9342529"><ele>489.0</ele><time>2026-04-27T10:42:43.171Z</time></trkpt><trkpt lat="39.6046103" lon="20.934326"><ele>489.2</ele><time>2026-04-27T10:42:44.171Z</time></trkpt><trkpt lat="39.6047185" lon="20.9343908"><ele>489.4</ele><time>2026-04-27T10:42:45.171Z</time></trkpt><trkpt lat="39.6047983" lon="20.9344407"><ele>489.6</ele><time>2026-04-27T10:42:46.171Z</time></trkpt><trkpt lat="39.6048581" lon="20.9344783"><ele>489.8</ele><time>2026-04-27T10:42:47.172Z</time></trkpt><trkpt lat="39.6049518" lon="20.9344761"><ele>490.0</ele><time>2026-04-27T10:42:49.172Z</time></trkpt><trkpt lat="39.6050421" lon="20.9343836"><ele>490.0</ele><time>2026-04-27T10:42:51.171Z</time></trkpt><trkpt lat="39.6050895" lon="20.9342975"><ele>490.0</ele><time>2026-04-27T10:42:52.171Z</time></trkpt><trkpt lat="39.6051441" lon="20.9342004"><ele>490.0</ele><time>2026-04-27T10:42:53.171Z</time></trkpt><trkpt lat="39.6052019" lon="20.9341022"><ele>490.0</ele><time>2026-04-27T10:42:54.171Z</time></trkpt><trkpt lat="39.6052642" lon="20.9340035"><ele>490.0</ele><time>2026-04-27T10:42:55.171Z</time></trkpt><trkpt lat="39.6053309" lon="20.9339041"><ele>489.83333333333337</ele><time>2026-04-27T10:42:56.171Z</time></trkpt><trkpt lat="39.6053977" lon="20.9338142"><ele>489.6666666666667</ele><time>2026-04-27T10:42:57.171Z</time></trkpt><trkpt lat="39.6054594" lon="20.9337279"><ele>489.5</ele><time>2026-04-27T10:42:58.171Z</time></trkpt><trkpt lat="39.6055191" lon="20.9336539"><ele>489.33333333333337</ele><time>2026-04-27T10:42:59.171Z</time></trkpt><trkpt lat="39.6055774" lon="20.9335804"><ele>489.1666666666667</ele><time>2026-04-27T10:43:00.171Z</time></trkpt><trkpt lat="39.6056579" lon="20.9335197"><ele>489.0</ele><time>2026-04-27T10:43:02.172Z</time></trkpt><trkpt lat="39.6057346" lon="20.9335259"><ele>489.0</ele><time>2026-04-27T10:43:04.172Z</time></trkpt><trkpt lat="39.6057926" lon="20.9335751"><ele>489.0</ele><time>2026-04-27T10:43:05.171Z</time></trkpt><trkpt lat="39.6058612" lon="20.9336658"><ele>489.0</ele><time>2026-04-27T10:43:06.172Z</time></trkpt><trkpt lat="39.6059536" lon="20.9338"><ele>489.0</ele><time>2026-04-27T10:43:07.171Z</time></trkpt><trkpt lat="39.60606" lon="20.9339504"><ele>488.66666666666663</ele><time>2026-04-27T10:43:08.171Z</time></trkpt><trkpt lat="39.6061832" lon="20.9341137"><ele>488.3333333333333</ele><time>2026-04-27T10:43:09.172Z</time></trkpt><trkpt lat="39.606322" lon="20.9343125"><ele>488.0</ele><time>2026-04-27T10:43:10.171Z</time></trkpt><trkpt lat="39.6064702" lon="20.9345058"><ele>488.0</ele><time>2026-04-27T10:43:11.172Z</time></trkpt><trkpt lat="39.6066162" lon="20.9347117"><ele>488.0</ele><time>2026-04-27T10:43:12.171Z</time></trkpt><trkpt lat="39.6067648" lon="20.9349178"><ele>488.0</ele><time>2026-04-27T10:43:13.171Z</time></trkpt><trkpt lat="39.6069129" lon="20.9351233"><ele>488.3333333333333</ele><time>2026-04-27T10:43:14.172Z</time></trkpt><trkpt lat="39.6070551" lon="20.9353202"><ele>488.66666666666663</ele><time>2026-04-27T10:43:15.171Z</time></trkpt><trkpt lat="39.6071877" lon="20.9355051"><ele>489.0</ele><time>2026-04-27T10:43:16.172Z</time></trkpt><trkpt lat="39.6073116" lon="20.9356772"><ele>489.0</ele><time>2026-04-27T10:43:17.171Z</time></trkpt><trkpt lat="39.6074279" lon="20.9358345"><ele>489.0</ele><time>2026-04-27T10:43:18.172Z</time></trkpt><trkpt lat="39.6075313" lon="20.9359752"><ele>489.0</ele><time>2026-04-27T10:43:19.172Z</time></trkpt><trkpt lat="39.607619" lon="20.9361031"><ele>488.79999999999995</ele><time>2026-04-27T10:43:20.172Z</time></trkpt><trkpt lat="39.6076993" lon="20.9362142"><ele>488.59999999999997</ele><time>2026-04-27T10:43:21.172Z</time></trkpt><trkpt lat="39.6077675" lon="20.936305"><ele>488.4</ele><time>2026-04-27T10:43:22.171Z</time></trkpt><trkpt lat="39.6078276" lon="20.9363712"><ele>488.2</ele><time>2026-04-27T10:43:23.172Z</time></trkpt><trkpt lat="39.6078857" lon="20.9364117"><ele>488.0</ele><time>2026-04-27T10:43:24.172Z</time></trkpt><trkpt lat="39.6080441" lon="20.9363859"><ele>488.5</ele><time>2026-04-27T10:43:26.172Z</time></trkpt><trkpt lat="39.6081518" lon="20.9363434"><ele>489.0</ele><time>2026-04-27T10:43:27.171Z</time></trkpt><trkpt lat="39.6082705" lon="20.9363098"><ele>489.5</ele><time>2026-04-27T10:43:28.172Z</time></trkpt><trkpt lat="39.6083911" lon="20.9362819"><ele>490.0</ele><time>2026-04-27T10:43:29.171Z</time></trkpt><trkpt lat="39.6085192" lon="20.9362548"><ele>490.0</ele><time>2026-04-27T10:43:30.172Z</time></trkpt><trkpt lat="39.608648" lon="20.9362362"><ele>490.0</ele><time>2026-04-27T10:43:31.172Z</time></trkpt><trkpt lat="39.6087754" lon="20.9362291"><ele>490.0</ele><time>2026-04-27T10:43:32.172Z</time></trkpt><trkpt lat="39.6089042" lon="20.9362289"><ele>490.0</ele><time>2026-04-27T10:43:33.171Z</time></trkpt><trkpt lat="39.6090418" lon="20.9362323"><ele>490.0</ele><time>2026-04-27T10:43:34.172Z</time></trkpt><trkpt lat="39.6091875" lon="20.9362655"><ele>490.0</ele><time>2026-04-27T10:43:35.172Z</time></trkpt><trkpt lat="39.6093406" lon="20.9363085"><ele>490.0</ele><time>2026-04-27T10:43:36.172Z</time></trkpt><trkpt lat="39.6095099" lon="20.9363575"><ele>488.6666666666667</ele><time>2026-04-27T10:43:37.172Z</time></trkpt><trkpt lat="39.6096911" lon="20.9364042"><ele>487.33333333333337</ele><time>2026-04-27T10:43:38.172Z</time></trkpt><trkpt lat="39.609871" lon="20.9364496"><ele>486.0</ele><time>2026-04-27T10:43:39.172Z</time></trkpt><trkpt lat="39.6100543" lon="20.9364979"><ele>486.0</ele><time>2026-04-27T10:43:40.171Z</time></trkpt><trkpt lat="39.6102369" lon="20.9365394"><ele>486.0</ele><time>2026-04-27T10:43:41.171Z</time></trkpt><trkpt lat="39.6104142" lon="20.9365793"><ele>486.0</ele><time>2026-04-27T10:43:42.171Z</time></trkpt><trkpt lat="39.6105859" lon="20.9366216"><ele>486.66666666666663</ele><time>2026-04-27T10:43:43.171Z</time></trkpt><trkpt lat="39.6107508" lon="20.9366637"><ele>487.3333333333333</ele><time>2026-04-27T10:43:44.171Z</time></trkpt><trkpt lat="39.6109013" lon="20.9367019"><ele>488.0</ele><time>2026-04-27T10:43:45.172Z</time></trkpt><trkpt lat="39.6110452" lon="20.9367372"><ele>488.5</ele><time>2026-04-27T10:43:46.172Z</time></trkpt><trkpt lat="39.6111784" lon="20.9367696"><ele>489.0</ele><time>2026-04-27T10:43:47.171Z</time></trkpt><trkpt lat="39.6112974" lon="20.9368039"><ele>489.5</ele><time>2026-04-27T10:43:48.171Z</time></trkpt><trkpt lat="39.6113954" lon="20.9368318"><ele>490.0</ele><time>2026-04-27T10:43:49.171Z</time></trkpt><trkpt lat="39.6114955" lon="20.9368624"><ele>490.0</ele><time>2026-04-27T10:43:50.172Z</time></trkpt><trkpt lat="39.6116229" lon="20.9368957"><ele>490.0</ele><time>2026-04-27T10:43:51.171Z</time></trkpt><trkpt lat="39.6117779" lon="20.9369362"><ele>490.0</ele><time>2026-04-27T10:43:52.171Z</time></trkpt><trkpt lat="39.6119418" lon="20.9369693"><ele>489.6666666666667</ele><time>2026-04-27T10:43:53.171Z</time></trkpt><trkpt lat="39.6121162" lon="20.9370062"><ele>489.33333333333337</ele><time>2026-04-27T10:43:54.172Z</time></trkpt><trkpt lat="39.6122962" lon="20.9370498"><ele>489.0</ele><time>2026-04-27T10:43:55.171Z</time></trkpt><trkpt lat="39.6124806" lon="20.9370967"><ele>489.0</ele><time>2026-04-27T10:43:56.172Z</time></trkpt><trkpt lat="39.6126717" lon="20.9371435"><ele>489.0</ele><time>2026-04-27T10:43:57.172Z</time></trkpt><trkpt lat="39.6128713" lon="20.9371911"><ele>489.0</ele><time>2026-04-27T10:43:58.171Z</time></trkpt><trkpt lat="39.6130725" lon="20.9372377"><ele>488.66666666666663</ele><time>2026-04-27T10:43:59.172Z</time></trkpt><trkpt lat="39.6132829" lon="20.9372898"><ele>488.3333333333333</ele><time>2026-04-27T10:44:00.172Z</time></trkpt><trkpt lat="39.61349" lon="20.9373484"><ele>488.0</ele><time>2026-04-27T10:44:01.172Z</time></trkpt><trkpt lat="39.6137035" lon="20.9374029"><ele>489.0</ele><time>2026-04-27T10:44:02.171Z</time></trkpt><trkpt lat="39.6139205" lon="20.9374544"><ele>490.0</ele><time>2026-04-27T10:44:03.172Z</time></trkpt><trkpt lat="39.6141399" lon="20.9375035"><ele>491.0</ele><time>2026-04-27T10:44:04.171Z</time></trkpt><trkpt lat="39.6143584" lon="20.9375525"><ele>491.3333333333333</ele><time>2026-04-27T10:44:05.172Z</time></trkpt><trkpt lat="39.6145776" lon="20.9376079"><ele>491.66666666666663</ele><time>2026-04-27T10:44:06.171Z</time></trkpt><trkpt lat="39.6147988" lon="20.9376681"><ele>492.0</ele><time>2026-04-27T10:44:07.171Z</time></trkpt><trkpt lat="39.6150216" lon="20.93773"><ele>492.0</ele><time>2026-04-27T10:44:08.172Z</time></trkpt><trkpt lat="39.6152553" lon="20.9377884"><ele>492.0</ele><time>2026-04-27T10:44:09.171Z</time></trkpt><trkpt lat="39.6154866" lon="20.9378475"><ele>490.0</ele><time>2026-04-27T10:44:10.172Z</time></trkpt><trkpt lat="39.6157193" lon="20.937906"><ele>488.0</ele><time>2026-04-27T10:44:11.171Z</time></trkpt><trkpt lat="39.6159517" lon="20.9379604"><ele>488.5</ele><time>2026-04-27T10:44:12.172Z</time></trkpt><trkpt lat="39.6161812" lon="20.9380149"><ele>489.0</ele><time>2026-04-27T10:44:13.171Z</time></trkpt><trkpt lat="39.6164035" lon="20.9380697"><ele>489.0</ele><time>2026-04-27T10:44:14.172Z</time></trkpt><trkpt lat="39.6166184" lon="20.9381218"><ele>489.0</ele><time>2026-04-27T10:44:15.172Z</time></trkpt><trkpt lat="39.6168316" lon="20.9381725"><ele>489.0</ele><time>2026-04-27T10:44:16.172Z</time></trkpt><trkpt lat="39.6170362" lon="20.938223"><ele>488.66666666666663</ele><time>2026-04-27T10:44:17.172Z</time></trkpt><trkpt lat="39.617239" lon="20.938271"><ele>488.3333333333333</ele><time>2026-04-27T10:44:18.171Z</time></trkpt><trkpt lat="39.6174483" lon="20.9383184"><ele>488.0</ele><time>2026-04-27T10:44:19.171Z</time></trkpt><trkpt lat="39.6176587" lon="20.9383703"><ele>488.3333333333333</ele><time>2026-04-27T10:44:20.172Z</time></trkpt><trkpt lat="39.6178727" lon="20.9384208"><ele>488.66666666666663</ele><time>2026-04-27T10:44:21.171Z</time></trkpt><trkpt lat="39.6180906" lon="20.9384771"><ele>489.0</ele><time>2026-04-27T10:44:22.171Z</time></trkpt><trkpt lat="39.6183094" lon="20.9385314"><ele>489.0</ele><time>2026-04-27T10:44:23.171Z</time></trkpt><trkpt lat="39.6185262" lon="20.9385856"><ele>489.0</ele><time>2026-04-27T10:44:24.172Z</time></trkpt><trkpt lat="39.6187408" lon="20.9386389"><ele>489.0</ele><time>2026-04-27T10:44:25.172Z</time></trkpt><trkpt lat="39.6189604" lon="20.9386902"><ele>489.33333333333337</ele><time>2026-04-27T10:44:26.172Z</time></trkpt><trkpt lat="39.6191737" lon="20.9387434"><ele>489.6666666666667</ele><time>2026-04-27T10:44:27.171Z</time></trkpt><trkpt lat="39.6193892" lon="20.9387955"><ele>490.0</ele><time>2026-04-27T10:44:28.172Z</time></trkpt><trkpt lat="39.6196061" lon="20.9388496"><ele>490.33333333333337</ele><time>2026-04-27T10:44:29.172Z</time></trkpt><trkpt lat="39.6198232" lon="20.9389046"><ele>490.66666666666663</ele><time>2026-04-27T10:44:30.171Z</time></trkpt><trkpt lat="39.6200403" lon="20.9389574"><ele>491.0</ele><time>2026-04-27T10:44:31.171Z</time></trkpt><trkpt lat="39.6202572" lon="20.9390109"><ele>490.66666666666663</ele><time>2026-04-27T10:44:32.172Z</time></trkpt><trkpt lat="39.620472" lon="20.939065"><ele>490.33333333333337</ele><time>2026-04-27T10:44:33.172Z</time></trkpt><trkpt lat="39.6206844" lon="20.939116"><ele>490.0</ele><time>2026-04-27T10:44:34.172Z</time></trkpt><trkpt lat="39.620897" lon="20.9391701"><ele>490.33333333333337</ele><time>2026-04-27T10:44:35.171Z</time></trkpt><trkpt lat="39.6211079" lon="20.9392221"><ele>490.66666666666663</ele><time>2026-04-27T10:44:36.172Z</time></trkpt><trkpt lat="39.6213201" lon="20.9392732"><ele>491.0</ele><time>2026-04-27T10:44:37.172Z</time></trkpt><trkpt lat="39.6215375" lon="20.9393199"><ele>490.3333333333333</ele><time>2026-04-27T10:44:38.171Z</time></trkpt><trkpt lat="39.6217423" lon="20.9393704"><ele>489.66666666666663</ele><time>2026-04-27T10:44:39.171Z</time></trkpt><trkpt lat="39.6219384" lon="20.9394206"><ele>489.0</ele><time>2026-04-27T10:44:40.172Z</time></trkpt><trkpt lat="39.6221233" lon="20.9394685"><ele>489.0</ele><time>2026-04-27T10:44:41.171Z</time></trkpt><trkpt lat="39.6222992" lon="20.939515"><ele>489.0</ele><time>2026-04-27T10:44:42.172Z</time></trkpt><trkpt lat="39.6224636" lon="20.9395511"><ele>489.0</ele><time>2026-04-27T10:44:43.172Z</time></trkpt><trkpt lat="39.6226296" lon="20.9395567"><ele>489.0</ele><time>2026-04-27T10:44:44.172Z</time></trkpt><trkpt lat="39.6227883" lon="20.9395222"><ele>489.0</ele><time>2026-04-27T10:44:45.172Z</time></trkpt><trkpt lat="39.6229591" lon="20.9394688"><ele>489.0</ele><time>2026-04-27T10:44:46.172Z</time></trkpt><trkpt lat="39.6231422" lon="20.9394181"><ele>489.33333333333337</ele><time>2026-04-27T10:44:47.172Z</time></trkpt><trkpt lat="39.6233484" lon="20.9393579"><ele>489.6666666666667</ele><time>2026-04-27T10:44:48.172Z</time></trkpt><trkpt lat="39.6235633" lon="20.9392978"><ele>490.0</ele><time>2026-04-27T10:44:49.171Z</time></trkpt><trkpt lat="39.6238046" lon="20.9392218"><ele>489.0</ele><time>2026-04-27T10:44:50.172Z</time></trkpt><trkpt lat="39.6240431" lon="20.939158"><ele>488.0</ele><time>2026-04-27T10:44:51.171Z</time></trkpt><trkpt lat="39.6242809" lon="20.9390778"><ele>488.0</ele><time>2026-04-27T10:44:52.172Z</time></trkpt><trkpt lat="39.6245179" lon="20.9390835"><ele>488.0</ele><time>2026-04-27T10:44:53.172Z</time></trkpt><trkpt lat="39.6247477" lon="20.9390722"><ele>488.0</ele><time>2026-04-27T10:44:54.171Z</time></trkpt><trkpt lat="39.6249705" lon="20.9390634"><ele>488.0</ele><time>2026-04-27T10:44:55.172Z</time></trkpt><trkpt lat="39.6251814" lon="20.9390567"><ele>488.0</ele><time>2026-04-27T10:44:56.172Z</time></trkpt><trkpt lat="39.6253761" lon="20.9390442"><ele>489.0</ele><time>2026-04-27T10:44:57.172Z</time></trkpt><trkpt lat="39.6255759" lon="20.9389941"><ele>490.0</ele><time>2026-04-27T10:44:58.172Z</time></trkpt><trkpt lat="39.6257678" lon="20.9389087"><ele>491.0</ele><time>2026-04-27T10:44:59.172Z</time></trkpt><trkpt lat="39.6259602" lon="20.9388104"><ele>491.0</ele><time>2026-04-27T10:45:00.171Z</time></trkpt><trkpt lat="39.6261538" lon="20.9387062"><ele>491.0</ele><time>2026-04-27T10:45:01.172Z</time></trkpt><trkpt lat="39.6263498" lon="20.9386016"><ele>491.0</ele><time>2026-04-27T10:45:02.171Z</time></trkpt><trkpt lat="39.6265479" lon="20.9385014"><ele>491.0</ele><time>2026-04-27T10:45:03.172Z</time></trkpt><trkpt lat="39.6267461" lon="20.9384133"><ele>491.0</ele><time>2026-04-27T10:45:04.171Z</time></trkpt><trkpt lat="39.6269527" lon="20.9383301"><ele>491.0</ele><time>2026-04-27T10:45:05.171Z</time></trkpt><trkpt lat="39.6271615" lon="20.9382665"><ele>491.0</ele><time>2026-04-27T10:45:06.172Z</time></trkpt><trkpt lat="39.6273685" lon="20.9382041"><ele>491.0</ele><time>2026-04-27T10:45:07.171Z</time></trkpt><trkpt lat="39.6275639" lon="20.938147"><ele>491.0</ele><time>2026-04-27T10:45:08.172Z</time></trkpt><trkpt lat="39.6277487" lon="20.9380959"><ele>491.66666666666663</ele><time>2026-04-27T10:45:09.171Z</time></trkpt><trkpt lat="39.6279291" lon="20.938049"><ele>492.33333333333337</ele><time>2026-04-27T10:45:10.171Z</time></trkpt><trkpt lat="39.628094" lon="20.9380237"><ele>493.0</ele><time>2026-04-27T10:45:11.172Z</time></trkpt><trkpt lat="39.6282588" lon="20.9380283"><ele>493.0</ele><time>2026-04-27T10:45:12.171Z</time></trkpt><trkpt lat="39.628418" lon="20.9380522"><ele>493.0</ele><time>2026-04-27T10:45:13.171Z</time></trkpt><trkpt lat="39.6285649" lon="20.9380844"><ele>493.0</ele><time>2026-04-27T10:45:14.171Z</time></trkpt><trkpt lat="39.628704" lon="20.9381202"><ele>492.4</ele><time>2026-04-27T10:45:15.172Z</time></trkpt><trkpt lat="39.6288323" lon="20.9381533"><ele>491.79999999999995</ele><time>2026-04-27T10:45:16.171Z</time></trkpt><trkpt lat="39.6289489" lon="20.9381838"><ele>491.2</ele><time>2026-04-27T10:45:17.172Z</time></trkpt><trkpt lat="39.629031" lon="20.9382171"><ele>490.6</ele><time>2026-04-27T10:45:18.171Z</time></trkpt><trkpt lat="39.6291009" lon="20.9382665"><ele>490.0</ele><time>2026-04-27T10:45:19.172Z</time></trkpt><trkpt lat="39.6291533" lon="20.9383562"><ele>489.5</ele><time>2026-04-27T10:45:20.172Z</time></trkpt><trkpt lat="39.6291194" lon="20.9385379"><ele>489.0</ele><time>2026-04-27T10:45:21.172Z</time></trkpt><trkpt lat="39.629092" lon="20.9387071"><ele>488.5</ele><time>2026-04-27T10:45:22.172Z</time></trkpt><trkpt lat="39.6290734" lon="20.9388854"><ele>488.0</ele><time>2026-04-27T10:45:23.171Z</time></trkpt><trkpt lat="39.6290617" lon="20.9390674"><ele>488.0</ele><time>2026-04-27T10:45:24.171Z</time></trkpt><trkpt lat="39.6290459" lon="20.9392521"><ele>488.0</ele><time>2026-04-27T10:45:25.171Z</time></trkpt><trkpt lat="39.6290341" lon="20.9394372"><ele>488.0</ele><time>2026-04-27T10:45:26.171Z</time></trkpt><trkpt lat="39.6290404" lon="20.9396262"><ele>488.0</ele><time>2026-04-27T10:45:27.172Z</time></trkpt><trkpt lat="39.6290741" lon="20.939817"><ele>488.0</ele><time>2026-04-27T10:45:28.172Z</time></trkpt><trkpt lat="39.629128" lon="20.9400125"><ele>488.0</ele><time>2026-04-27T10:45:29.172Z</time></trkpt><trkpt lat="39.6291908" lon="20.9402196"><ele>488.0</ele><time>2026-04-27T10:45:30.172Z</time></trkpt><trkpt lat="39.6292599" lon="20.9404228"><ele>489.0</ele><time>2026-04-27T10:45:31.171Z</time></trkpt><trkpt lat="39.6293303" lon="20.9406234"><ele>490.0</ele><time>2026-04-27T10:45:32.172Z</time></trkpt><trkpt lat="39.6293969" lon="20.9408115"><ele>491.0</ele><time>2026-04-27T10:45:33.172Z</time></trkpt><trkpt lat="39.6294607" lon="20.9409891"><ele>491.0</ele><time>2026-04-27T10:45:34.171Z</time></trkpt><trkpt lat="39.6295239" lon="20.9411561"><ele>491.0</ele><time>2026-04-27T10:45:35.172Z</time></trkpt><trkpt lat="39.6296009" lon="20.9412959"><ele>491.0</ele><time>2026-04-27T10:45:36.172Z</time></trkpt><trkpt lat="39.6296988" lon="20.9414055"><ele>491.0</ele><time>2026-04-27T10:45:37.172Z</time></trkpt><trkpt lat="39.6298114" lon="20.9414843"><ele>491.0</ele><time>2026-04-27T10:45:38.172Z</time></trkpt><trkpt lat="39.6299304" lon="20.9415216"><ele>491.0</ele><time>2026-04-27T10:45:39.171Z</time></trkpt><trkpt lat="39.6300521" lon="20.9415112"><ele>491.0</ele><time>2026-04-27T10:45:40.171Z</time></trkpt><trkpt lat="39.6301762" lon="20.9414509"><ele>491.0</ele><time>2026-04-27T10:45:41.172Z</time></trkpt><trkpt lat="39.6302963" lon="20.9413503"><ele>490.66666666666663</ele><time>2026-04-27T10:45:42.172Z</time></trkpt><trkpt lat="39.630404" lon="20.9412135"><ele>490.33333333333337</ele><time>2026-04-27T10:45:43.171Z</time></trkpt><trkpt lat="39.6305032" lon="20.9410566"><ele>490.0</ele><time>2026-04-27T10:45:44.172Z</time></trkpt><trkpt lat="39.6306075" lon="20.9408871"><ele>489.6666666666667</ele><time>2026-04-27T10:45:45.172Z</time></trkpt><trkpt lat="39.6307115" lon="20.9407167"><ele>489.33333333333337</ele><time>2026-04-27T10:45:46.171Z</time></trkpt><trkpt lat="39.6308137" lon="20.9405574"><ele>489.0</ele><time>2026-04-27T10:45:47.172Z</time></trkpt><trkpt lat="39.6309113" lon="20.9404169"><ele>489.0</ele><time>2026-04-27T10:45:48.172Z</time></trkpt><trkpt lat="39.6310098" lon="20.9402941"><ele>489.0</ele><time>2026-04-27T10:45:49.171Z</time></trkpt><trkpt lat="39.6311095" lon="20.9401892"><ele>489.0</ele><time>2026-04-27T10:45:50.172Z</time></trkpt><trkpt lat="39.6312031" lon="20.9401128"><ele>489.0</ele><time>2026-04-27T10:45:51.171Z</time></trkpt><trkpt lat="39.6312993" lon="20.9400513"><ele>489.1666666666667</ele><time>2026-04-27T10:45:52.171Z</time></trkpt><trkpt lat="39.63138" lon="20.9400383"><ele>489.33333333333337</ele><time>2026-04-27T10:45:53.172Z</time></trkpt><trkpt lat="39.6314614" lon="20.9400264"><ele>489.5</ele><time>2026-04-27T10:45:54.172Z</time></trkpt><trkpt lat="39.6315453" lon="20.9400269"><ele>489.6666666666667</ele><time>2026-04-27T10:45:55.172Z</time></trkpt><trkpt lat="39.631623" lon="20.9400328"><ele>489.83333333333337</ele><time>2026-04-27T10:45:56.171Z</time></trkpt><trkpt lat="39.6316901" lon="20.9400455"><ele>490.0</ele><time>2026-04-27T10:45:57.171Z</time></trkpt><trkpt lat="39.6317934" lon="20.9400861"><ele>490.1428571428571</ele><time>2026-04-27T10:45:59.171Z</time></trkpt><trkpt lat="39.6318291" lon="20.9401543"><ele>490.2857142857143</ele><time>2026-04-27T10:46:01.172Z</time></trkpt><trkpt lat="39.6317702" lon="20.9402292"><ele>490.42857142857144</ele><time>2026-04-27T10:46:03.171Z</time></trkpt><trkpt lat="39.631712" lon="20.9402815"><ele>490.57142857142856</ele><time>2026-04-27T10:46:05.172Z</time></trkpt><trkpt lat="39.6316817" lon="20.9403655"><ele>490.71428571428567</ele><time>2026-04-27T10:55:20.162Z</time></trkpt><trkpt lat="39.6316831" lon="20.9404586"><ele>490.85714285714283</ele><time>2026-04-27T10:55:22.163Z</time></trkpt><trkpt lat="39.6317247" lon="20.9405263"><ele>491.0</ele><time>2026-04-27T10:55:25.162Z</time></trkpt><trkpt lat="39.6318035" lon="20.9404592"><ele>491.0</ele><time>2026-04-27T10:55:28.163Z</time></trkpt><trkpt lat="39.6318388" lon="20.9403146"><ele>491.0</ele><time>2026-04-27T10:55:30.163Z</time></trkpt><trkpt lat="39.6318571" lon="20.9402179"><ele>491.0</ele><time>2026-04-27T10:55:31.163Z</time></trkpt><trkpt lat="39.6318889" lon="20.940086"><ele>491.0</ele><time>2026-04-27T10:55:33.162Z</time></trkpt><trkpt lat="39.6319229" lon="20.9399829"><ele>491.0</ele><time>2026-04-27T10:55:35.162Z</time></trkpt><trkpt lat="39.6319597" lon="20.9398677"><ele>490.8</ele><time>2026-04-27T10:55:37.162Z</time></trkpt><trkpt lat="39.6319942" lon="20.9397427"><ele>490.6</ele><time>2026-04-27T10:55:39.162Z</time></trkpt><trkpt lat="39.6320256" lon="20.9396158"><ele>490.4</ele><time>2026-04-27T10:55:41.163Z</time></trkpt><trkpt lat="39.6320491" lon="20.9395052"><ele>490.2</ele><time>2026-04-27T10:55:43.163Z</time></trkpt><trkpt lat="39.6320794" lon="20.9393892"><ele>490.0</ele><time>2026-04-27T10:55:45.163Z</time></trkpt><trkpt lat="39.6321129" lon="20.9392748"><ele>490.0</ele><time>2026-04-27T10:55:47.162Z</time></trkpt><trkpt lat="39.632187" lon="20.9391951"><ele>490.0</ele><time>2026-04-27T10:55:49.163Z</time></trkpt><trkpt lat="39.6322962" lon="20.9391888"><ele>490.0</ele><time>2026-04-27T10:55:51.162Z</time></trkpt><trkpt lat="39.6323773" lon="20.9392149"><ele>490.0</ele><time>2026-04-27T10:55:53.162Z</time></trkpt><trkpt lat="39.632463" lon="20.9392406"><ele>490.0</ele><time>2026-04-27T10:55:55.163Z</time></trkpt><trkpt lat="39.6325775" lon="20.9392659"><ele>490.0</ele><time>2026-04-27T10:55:57.162Z</time></trkpt><trkpt lat="39.6326443" lon="20.9392808"><ele>490.0</ele><time>2026-04-27T10:55:58.162Z</time></trkpt><trkpt lat="39.6327694" lon="20.9393065"><ele>490.0</ele><time>2026-04-27T10:56:00.163Z</time></trkpt><trkpt lat="39.6328372" lon="20.9393179"><ele>490.0</ele><time>2026-04-27T10:56:01.162Z</time></trkpt><trkpt lat="39.6329076" lon="20.9393321"><ele>490.0</ele><time>2026-04-27T10:56:02.163Z</time></trkpt><trkpt lat="39.6330464" lon="20.9393551"><ele>489.6666666666667</ele><time>2026-04-27T10:56:04.162Z</time></trkpt><trkpt lat="39.6331238" lon="20.9393653"><ele>489.33333333333337</ele><time>2026-04-27T10:56:05.163Z</time></trkpt><trkpt lat="39.6331999" lon="20.9393813"><ele>489.0</ele><time>2026-04-27T10:56:06.163Z</time></trkpt><trkpt lat="39.6332764" lon="20.9393987"><ele>488.66666666666663</ele><time>2026-04-27T10:56:07.162Z</time></trkpt><trkpt lat="39.6333514" lon="20.9394137"><ele>488.3333333333333</ele><time>2026-04-27T10:56:08.163Z</time></trkpt><trkpt lat="39.6334232" lon="20.9394242"><ele>488.0</ele><time>2026-04-27T10:56:09.162Z</time></trkpt><trkpt lat="39.6334954" lon="20.9394367"><ele>487.99999999999994</ele><time>2026-04-27T10:56:10.163Z</time></trkpt><trkpt lat="39.6335759" lon="20.9394584"><ele>488.0</ele><time>2026-04-27T10:56:11.162Z</time></trkpt><trkpt lat="39.6336467" lon="20.9394814"><ele>488.0</ele><time>2026-04-27T10:56:12.162Z</time></trkpt><trkpt lat="39.6337191" lon="20.9395068"><ele>488.0</ele><time>2026-04-27T10:56:13.163Z</time></trkpt><trkpt lat="39.6337938" lon="20.9395231"><ele>487.99999999999994</ele><time>2026-04-27T10:56:14.162Z</time></trkpt><trkpt lat="39.6338789" lon="20.9395374"><ele>488.0</ele><time>2026-04-27T10:56:15.162Z</time></trkpt><trkpt lat="39.6339552" lon="20.9395544"><ele>487.66666666666663</ele><time>2026-04-27T10:56:16.162Z</time></trkpt><trkpt lat="39.6340269" lon="20.9395771"><ele>487.3333333333333</ele><time>2026-04-27T10:56:17.162Z</time></trkpt><trkpt lat="39.6341021" lon="20.9395961"><ele>487.0</ele><time>2026-04-27T10:56:18.162Z</time></trkpt><trkpt lat="39.6341824" lon="20.9396143"><ele>486.66666666666663</ele><time>2026-04-27T10:56:19.163Z</time></trkpt><trkpt lat="39.6342682" lon="20.9396342"><ele>486.3333333333333</ele><time>2026-04-27T10:56:20.163Z</time></trkpt><trkpt lat="39.634359" lon="20.9396544"><ele>486.0</ele><time>2026-04-27T10:56:21.162Z</time></trkpt><trkpt lat="39.6344569" lon="20.9396743"><ele>486.5</ele><time>2026-04-27T10:56:22.162Z</time></trkpt><trkpt lat="39.6345642" lon="20.9396925"><ele>487.0</ele><time>2026-04-27T10:56:23.163Z</time></trkpt><trkpt lat="39.6346781" lon="20.9397141"><ele>487.5</ele><time>2026-04-27T10:56:24.163Z</time></trkpt><trkpt lat="39.6347944" lon="20.9397368"><ele>488.0</ele><time>2026-04-27T10:56:25.163Z</time></trkpt><trkpt lat="39.6349179" lon="20.9397634"><ele>488.0</ele><time>2026-04-27T10:56:26.163Z</time></trkpt><trkpt lat="39.6350459" lon="20.9397875"><ele>488.0</ele><time>2026-04-27T10:56:27.163Z</time></trkpt><trkpt lat="39.6351785" lon="20.9398105"><ele>488.0</ele><time>2026-04-27T10:56:28.162Z</time></trkpt><trkpt lat="39.6353138" lon="20.9398377"><ele>488.0</ele><time>2026-04-27T10:56:29.163Z</time></trkpt><trkpt lat="39.6354561" lon="20.9398656"><ele>488.0</ele><time>2026-04-27T10:56:30.162Z</time></trkpt><trkpt lat="39.6356149" lon="20.939899"><ele>488.0</ele><time>2026-04-27T10:56:31.162Z</time></trkpt><trkpt lat="39.635787" lon="20.9399383"><ele>488.0</ele><time>2026-04-27T10:56:32.162Z</time></trkpt><trkpt lat="39.6359615" lon="20.9399752"><ele>488.0</ele><time>2026-04-27T10:56:33.162Z</time></trkpt><trkpt lat="39.6361313" lon="20.9400095"><ele>488.0</ele><time>2026-04-27T10:56:34.162Z</time></trkpt><trkpt lat="39.636292" lon="20.9400405"><ele>488.0</ele><time>2026-04-27T10:56:35.163Z</time></trkpt><trkpt lat="39.6364477" lon="20.9400699"><ele>488.5</ele><time>2026-04-27T10:56:36.162Z</time></trkpt><trkpt lat="39.636599" lon="20.9400998"><ele>489.0</ele><time>2026-04-27T10:56:37.163Z</time></trkpt><trkpt lat="39.6367423" lon="20.94013"><ele>489.5</ele><time>2026-04-27T10:56:38.163Z</time></trkpt><trkpt lat="39.6368741" lon="20.9401587"><ele>490.0</ele><time>2026-04-27T10:56:39.163Z</time></trkpt><trkpt lat="39.6369945" lon="20.940187"><ele>490.0</ele><time>2026-04-27T10:56:40.162Z</time></trkpt><trkpt lat="39.6371151" lon="20.9402081"><ele>490.0</ele><time>2026-04-27T10:56:41.162Z</time></trkpt><trkpt lat="39.637252" lon="20.9402238"><ele>490.0</ele><time>2026-04-27T10:56:42.162Z</time></trkpt><trkpt lat="39.6374038" lon="20.9402391"><ele>490.0</ele><time>2026-04-27T10:56:43.162Z</time></trkpt><trkpt lat="39.6375605" lon="20.9402538"><ele>490.0</ele><time>2026-04-27T10:56:44.163Z</time></trkpt><trkpt lat="39.6377209" lon="20.9402686"><ele>490.0</ele><time>2026-04-27T10:56:45.163Z</time></trkpt><trkpt lat="39.6378842" lon="20.940282"><ele>490.0</ele><time>2026-04-27T10:56:46.163Z</time></trkpt><trkpt lat="39.6380469" lon="20.9402961"><ele>490.6666666666667</ele><time>2026-04-27T10:56:47.163Z</time></trkpt><trkpt lat="39.6382073" lon="20.9403092"><ele>491.33333333333337</ele><time>2026-04-27T10:56:48.162Z</time></trkpt><trkpt lat="39.6383658" lon="20.9403253"><ele>492.0</ele><time>2026-04-27T10:56:49.163Z</time></trkpt><trkpt lat="39.6385227" lon="20.9403412"><ele>492.66666666666663</ele><time>2026-04-27T10:56:50.163Z</time></trkpt><trkpt lat="39.6386778" lon="20.9403557"><ele>493.3333333333333</ele><time>2026-04-27T10:56:51.163Z</time></trkpt><trkpt lat="39.638833" lon="20.9403705"><ele>494.0</ele><time>2026-04-27T10:56:52.162Z</time></trkpt><trkpt lat="39.6389836" lon="20.9403825"><ele>494.0</ele><time>2026-04-27T10:56:53.162Z</time></trkpt><trkpt lat="39.6391256" lon="20.9403976"><ele>494.0</ele><time>2026-04-27T10:56:54.163Z</time></trkpt><trkpt lat="39.6392661" lon="20.9404113"><ele>494.0</ele><time>2026-04-27T10:56:55.163Z</time></trkpt><trkpt lat="39.6393851" lon="20.9404239"><ele>494.0</ele><time>2026-04-27T10:56:56.163Z</time></trkpt><trkpt lat="39.6394926" lon="20.9404284"><ele>494.0</ele><time>2026-04-27T10:56:57.163Z</time></trkpt><trkpt lat="39.6395791" lon="20.9404379"><ele>494.0</ele><time>2026-04-27T10:56:58.163Z</time></trkpt><trkpt lat="39.639659" lon="20.9404101"><ele>494.0</ele><time>2026-04-27T10:56:59.162Z</time></trkpt><trkpt lat="39.6397306" lon="20.9403527"><ele>494.0</ele><time>2026-04-27T10:57:00.162Z</time></trkpt><trkpt lat="39.6397957" lon="20.9402618"><ele>494.0</ele><time>2026-04-27T10:57:01.162Z</time></trkpt><trkpt lat="39.6398552" lon="20.9401478"><ele>493.5</ele><time>2026-04-27T10:57:02.163Z</time></trkpt><trkpt lat="39.6399129" lon="20.9400154"><ele>493.0</ele><time>2026-04-27T10:57:03.163Z</time></trkpt><trkpt lat="39.6399754" lon="20.9398735"><ele>492.5</ele><time>2026-04-27T10:57:04.162Z</time></trkpt><trkpt lat="39.6400424" lon="20.9397294"><ele>492.0</ele><time>2026-04-27T10:57:05.163Z</time></trkpt><trkpt lat="39.6401171" lon="20.9395923"><ele>492.0</ele><time>2026-04-27T10:57:06.162Z</time></trkpt><trkpt lat="39.640193" lon="20.9394744"><ele>492.0</ele><time>2026-04-27T10:57:07.163Z</time></trkpt><trkpt lat="39.6402789" lon="20.9393787"><ele>492.0</ele><time>2026-04-27T10:57:08.163Z</time></trkpt><trkpt lat="39.6403783" lon="20.9393"><ele>492.0</ele><time>2026-04-27T10:57:09.163Z</time></trkpt><trkpt lat="39.6404895" lon="20.9392397"><ele>492.6</ele><time>2026-04-27T10:57:10.162Z</time></trkpt><trkpt lat="39.6405973" lon="20.9391861"><ele>493.20000000000005</ele><time>2026-04-27T10:57:11.163Z</time></trkpt><trkpt lat="39.6407018" lon="20.9391367"><ele>493.8</ele><time>2026-04-27T10:57:12.163Z</time></trkpt><trkpt lat="39.6408032" lon="20.9390887"><ele>494.4</ele><time>2026-04-27T10:57:13.163Z</time></trkpt><trkpt lat="39.6409023" lon="20.9390489"><ele>495.0</ele><time>2026-04-27T10:57:14.162Z</time></trkpt><trkpt lat="39.6409938" lon="20.9390196"><ele>495.0</ele><time>2026-04-27T10:57:15.163Z</time></trkpt><trkpt lat="39.6410767" lon="20.9390051"><ele>495.0</ele><time>2026-04-27T10:57:16.163Z</time></trkpt><trkpt lat="39.6411439" lon="20.9390139"><ele>495.0</ele><time>2026-04-27T10:57:17.162Z</time></trkpt><trkpt lat="39.6412045" lon="20.939045"><ele>495.0</ele><time>2026-04-27T10:57:18.163Z</time></trkpt><trkpt lat="39.6412686" lon="20.939078"><ele>495.0</ele><time>2026-04-27T10:57:19.163Z</time></trkpt><trkpt lat="39.6413511" lon="20.939091"><ele>495.0</ele><time>2026-04-27T10:57:20.162Z</time></trkpt><trkpt lat="39.641448" lon="20.939091"><ele>494.0</ele><time>2026-04-27T10:57:21.163Z</time></trkpt><trkpt lat="39.6415594" lon="20.9390895"><ele>493.0</ele><time>2026-04-27T10:57:22.163Z</time></trkpt><trkpt lat="39.6416892" lon="20.9390904"><ele>492.0</ele><time>2026-04-27T10:57:23.163Z</time></trkpt><trkpt lat="39.6418231" lon="20.9390963"><ele>491.0</ele><time>2026-04-27T10:57:24.163Z</time></trkpt><trkpt lat="39.6419759" lon="20.9391085"><ele>491.0</ele><time>2026-04-27T10:57:25.162Z</time></trkpt><trkpt lat="39.6421406" lon="20.9391244"><ele>491.0</ele><time>2026-04-27T10:57:26.162Z</time></trkpt><trkpt lat="39.6423195" lon="20.9391421"><ele>491.0</ele><time>2026-04-27T10:57:27.162Z</time></trkpt><trkpt lat="39.6424965" lon="20.9391605"><ele>491.0</ele><time>2026-04-27T10:57:28.163Z</time></trkpt><trkpt lat="39.6426765" lon="20.9391771"><ele>491.0</ele><time>2026-04-27T10:57:29.163Z</time></trkpt><trkpt lat="39.6428601" lon="20.9391973"><ele>491.0</ele><time>2026-04-27T10:57:30.163Z</time></trkpt><trkpt lat="39.6430467" lon="20.9392181"><ele>491.66666666666663</ele><time>2026-04-27T10:57:31.163Z</time></trkpt><trkpt lat="39.6432398" lon="20.9392398"><ele>492.33333333333337</ele><time>2026-04-27T10:57:32.162Z</time></trkpt><trkpt lat="39.6434313" lon="20.9392614"><ele>493.0</ele><time>2026-04-27T10:57:33.163Z</time></trkpt><trkpt lat="39.6436274" lon="20.9392833"><ele>494.0</ele><time>2026-04-27T10:57:34.163Z</time></trkpt><trkpt lat="39.643828" lon="20.9393059"><ele>495.0</ele><time>2026-04-27T10:57:35.162Z</time></trkpt><trkpt lat="39.6440457" lon="20.9393275"><ele>496.0</ele><time>2026-04-27T10:57:36.162Z</time></trkpt><trkpt lat="39.6442843" lon="20.9393508"><ele>495.0</ele><time>2026-04-27T10:57:37.162Z</time></trkpt><trkpt lat="39.6445263" lon="20.9393741"><ele>494.0</ele><time>2026-04-27T10:57:38.163Z</time></trkpt><trkpt lat="39.6447633" lon="20.9393957"><ele>494.0</ele><time>2026-04-27T10:57:39.163Z</time></trkpt><trkpt lat="39.6449839" lon="20.9394135"><ele>494.0</ele><time>2026-04-27T10:57:40.163Z</time></trkpt><trkpt lat="39.6451917" lon="20.9394291"><ele>494.0</ele><time>2026-04-27T10:57:41.163Z</time></trkpt><trkpt lat="39.6453909" lon="20.9394454"><ele>493.66666666666663</ele><time>2026-04-27T10:57:42.163Z</time></trkpt><trkpt lat="39.6455736" lon="20.9394692"><ele>493.33333333333337</ele><time>2026-04-27T10:57:43.163Z</time></trkpt><trkpt lat="39.6457301" lon="20.9394911"><ele>493.0</ele><time>2026-04-27T10:57:44.162Z</time></trkpt><trkpt lat="39.6458582" lon="20.9395018"><ele>493.0</ele><time>2026-04-27T10:57:45.163Z</time></trkpt><trkpt lat="39.6459733" lon="20.9394964"><ele>493.0</ele><time>2026-04-27T10:57:46.162Z</time></trkpt><trkpt lat="39.6460567" lon="20.9394338"><ele>493.0</ele><time>2026-04-27T10:57:47.163Z</time></trkpt><trkpt lat="39.6461301" lon="20.9393239"><ele>493.0</ele><time>2026-04-27T10:57:48.163Z</time></trkpt><trkpt lat="39.6461949" lon="20.9391593"><ele>492.6666666666667</ele><time>2026-04-27T10:57:49.163Z</time></trkpt><trkpt lat="39.6462662" lon="20.9389409"><ele>492.33333333333337</ele><time>2026-04-27T10:57:50.162Z</time></trkpt><trkpt lat="39.6463521" lon="20.9387079"><ele>492.0</ele><time>2026-04-27T10:57:51.163Z</time></trkpt><trkpt lat="39.6464577" lon="20.9384719"><ele>492.0</ele><time>2026-04-27T10:57:52.163Z</time></trkpt><trkpt lat="39.6465535" lon="20.9382275"><ele>492.0</ele><time>2026-04-27T10:57:53.162Z</time></trkpt><trkpt lat="39.6466394" lon="20.9380086"><ele>492.0</ele><time>2026-04-27T10:57:54.162Z</time></trkpt><trkpt lat="39.6467147" lon="20.9378135"><ele>492.0</ele><time>2026-04-27T10:57:55.163Z</time></trkpt><trkpt lat="39.6467889" lon="20.9376298"><ele>492.0</ele><time>2026-04-27T10:57:56.162Z</time></trkpt><trkpt lat="39.6468435" lon="20.9375022"><ele>492.0</ele><time>2026-04-27T10:57:57.162Z</time></trkpt><trkpt lat="39.6469129" lon="20.9373913"><ele>492.0</ele><time>2026-04-27T10:57:58.162Z</time></trkpt><trkpt lat="39.6470058" lon="20.9373193"><ele>491.75</ele><time>2026-04-27T10:57:59.163Z</time></trkpt><trkpt lat="39.6471273" lon="20.9372737"><ele>491.5</ele><time>2026-04-27T10:58:00.163Z</time></trkpt><trkpt lat="39.6472766" lon="20.9372394"><ele>491.25</ele><time>2026-04-27T10:58:01.163Z</time></trkpt><trkpt lat="39.6474411" lon="20.9371962"><ele>491.0</ele><time>2026-04-27T10:58:02.163Z</time></trkpt><trkpt lat="39.6476025" lon="20.9371653"><ele>491.0</ele><time>2026-04-27T10:58:03.162Z</time></trkpt><trkpt lat="39.6477705" lon="20.9371295"><ele>491.0</ele><time>2026-04-27T10:58:04.163Z</time></trkpt><trkpt lat="39.6479417" lon="20.9370874"><ele>491.0</ele><time>2026-04-27T10:58:05.163Z</time></trkpt><trkpt lat="39.6481238" lon="20.9370444"><ele>492.0</ele><time>2026-04-27T10:58:06.162Z</time></trkpt><trkpt lat="39.6483133" lon="20.9369995"><ele>493.0</ele><time>2026-04-27T10:58:07.162Z</time></trkpt><trkpt lat="39.6485089" lon="20.936955"><ele>494.0</ele><time>2026-04-27T10:58:08.163Z</time></trkpt><trkpt lat="39.648706" lon="20.9369096"><ele>494.66666666666663</ele><time>2026-04-27T10:58:09.162Z</time></trkpt><trkpt lat="39.648903" lon="20.9368632"><ele>495.33333333333337</ele><time>2026-04-27T10:58:10.162Z</time></trkpt><trkpt lat="39.6490944" lon="20.9368122"><ele>496.0</ele><time>2026-04-27T10:58:11.162Z</time></trkpt><trkpt lat="39.6492804" lon="20.9367619"><ele>496.0</ele><time>2026-04-27T10:58:12.162Z</time></trkpt><trkpt lat="39.6494493" lon="20.9367222"><ele>496.0</ele><time>2026-04-27T10:58:13.163Z</time></trkpt><trkpt lat="39.6496083" lon="20.9366929"><ele>496.0</ele><time>2026-04-27T10:58:14.163Z</time></trkpt><trkpt lat="39.649765" lon="20.9366869"><ele>496.33333333333337</ele><time>2026-04-27T10:58:15.162Z</time></trkpt><trkpt lat="39.6499259" lon="20.9367121"><ele>496.66666666666663</ele><time>2026-04-27T10:58:16.162Z</time></trkpt><trkpt lat="39.6501002" lon="20.9367768"><ele>497.0</ele><time>2026-04-27T10:58:17.162Z</time></trkpt><trkpt lat="39.6502976" lon="20.9368808"><ele>495.0</ele><time>2026-04-27T10:58:18.163Z</time></trkpt><trkpt lat="39.6505045" lon="20.9369916"><ele>493.0</ele><time>2026-04-27T10:58:19.163Z</time></trkpt><trkpt lat="39.650729" lon="20.9371087"><ele>493.0</ele><time>2026-04-27T10:58:20.162Z</time></trkpt><trkpt lat="39.6509662" lon="20.9372343"><ele>493.0</ele><time>2026-04-27T10:58:21.162Z</time></trkpt><trkpt lat="39.651201" lon="20.9373581"><ele>493.5</ele><time>2026-04-27T10:58:22.162Z</time></trkpt><trkpt lat="39.6514291" lon="20.9374803"><ele>494.0</ele><time>2026-04-27T10:58:23.162Z</time></trkpt><trkpt lat="39.651642" lon="20.9375909"><ele>494.0</ele><time>2026-04-27T10:58:24.162Z</time></trkpt><trkpt lat="39.6518423" lon="20.9376964"><ele>494.0</ele><time>2026-04-27T10:58:25.163Z</time></trkpt><trkpt lat="39.6520311" lon="20.9378038"><ele>494.0</ele><time>2026-04-27T10:58:26.162Z</time></trkpt><trkpt lat="39.6522057" lon="20.9378975"><ele>494.3333333333333</ele><time>2026-04-27T10:58:27.162Z</time></trkpt><trkpt lat="39.6523696" lon="20.9379805"><ele>494.66666666666663</ele><time>2026-04-27T10:58:28.162Z</time></trkpt><trkpt lat="39.652528" lon="20.9380683"><ele>495.0</ele><time>2026-04-27T10:58:29.162Z</time></trkpt><trkpt lat="39.652673" lon="20.9381582"><ele>495.0</ele><time>2026-04-27T10:58:30.163Z</time></trkpt><trkpt lat="39.6528089" lon="20.9382676"><ele>495.0</ele><time>2026-04-27T10:58:31.162Z</time></trkpt><trkpt lat="39.6529275" lon="20.9383971"><ele>495.0</ele><time>2026-04-27T10:58:32.163Z</time></trkpt><trkpt lat="39.6530229" lon="20.9385461"><ele>495.5</ele><time>2026-04-27T10:58:33.163Z</time></trkpt><trkpt lat="39.6531039" lon="20.9386848"><ele>496.0</ele><time>2026-04-27T10:58:34.163Z</time></trkpt><trkpt lat="39.653185" lon="20.9388044"><ele>496.5</ele><time>2026-04-27T10:58:35.162Z</time></trkpt><trkpt lat="39.6532749" lon="20.9388943"><ele>497.0</ele><time>2026-04-27T10:58:36.162Z</time></trkpt><trkpt lat="39.6533818" lon="20.9389495"><ele>497.0</ele><time>2026-04-27T10:58:37.163Z</time></trkpt><trkpt lat="39.6534944" lon="20.9389723"><ele>497.0</ele><time>2026-04-27T10:58:38.163Z</time></trkpt><trkpt lat="39.6536594" lon="20.9389344"><ele>497.0</ele><time>2026-04-27T10:58:39.163Z</time></trkpt><trkpt lat="39.6538071" lon="20.9388868"><ele>497.0</ele><time>2026-04-27T10:58:40.163Z</time></trkpt><trkpt lat="39.6539578" lon="20.938826"><ele>496.66666666666663</ele><time>2026-04-27T10:58:41.162Z</time></trkpt><trkpt lat="39.6541069" lon="20.9387142"><ele>496.33333333333337</ele><time>2026-04-27T10:58:42.163Z</time></trkpt><trkpt lat="39.6542601" lon="20.9385506"><ele>496.0</ele><time>2026-04-27T10:58:43.163Z</time></trkpt><trkpt lat="39.654413" lon="20.9383743"><ele>495.6666666666667</ele><time>2026-04-27T10:58:44.162Z</time></trkpt><trkpt lat="39.6545699" lon="20.9382139"><ele>495.33333333333337</ele><time>2026-04-27T10:58:45.163Z</time></trkpt><trkpt lat="39.6547238" lon="20.9380569"><ele>495.0</ele><time>2026-04-27T10:58:46.163Z</time></trkpt><trkpt lat="39.6548738" lon="20.9378986"><ele>495.0</ele><time>2026-04-27T10:58:47.163Z</time></trkpt><trkpt lat="39.6550292" lon="20.9377437"><ele>495.0</ele><time>2026-04-27T10:58:48.163Z</time></trkpt><trkpt lat="39.6551897" lon="20.9375906"><ele>495.0</ele><time>2026-04-27T10:58:49.162Z</time></trkpt><trkpt lat="39.6553532" lon="20.9374422"><ele>495.66666666666663</ele><time>2026-04-27T10:58:50.162Z</time></trkpt><trkpt lat="39.6555092" lon="20.9373024"><ele>496.3333333333333</ele><time>2026-04-27T10:58:51.163Z</time></trkpt><trkpt lat="39.6556551" lon="20.9371706"><ele>497.0</ele><time>2026-04-27T10:58:52.162Z</time></trkpt><trkpt lat="39.6557971" lon="20.9370447"><ele>497.0</ele><time>2026-04-27T10:58:53.163Z</time></trkpt><trkpt lat="39.6559263" lon="20.9369309"><ele>497.0</ele><time>2026-04-27T10:58:54.162Z</time></trkpt><trkpt lat="39.6560473" lon="20.9368266"><ele>497.0</ele><time>2026-04-27T10:58:55.162Z</time></trkpt><trkpt lat="39.6561575" lon="20.9367326"><ele>497.0</ele><time>2026-04-27T10:58:56.163Z</time></trkpt><trkpt lat="39.656259" lon="20.9366562"><ele>497.49999999999994</ele><time>2026-04-27T10:58:57.162Z</time></trkpt><trkpt lat="39.6563455" lon="20.9366236"><ele>498.0</ele><time>2026-04-27T10:58:58.163Z</time></trkpt><trkpt lat="39.6564179" lon="20.9366123"><ele>498.5</ele><time>2026-04-27T10:58:59.162Z</time></trkpt><trkpt lat="39.6564776" lon="20.9366722"><ele>499.0</ele><time>2026-04-27T10:59:00.163Z</time></trkpt><trkpt lat="39.6565381" lon="20.9367615"><ele>499.49999999999994</ele><time>2026-04-27T10:59:01.162Z</time></trkpt><trkpt lat="39.6566044" lon="20.9368857"><ele>500.0</ele><time>2026-04-27T10:59:02.162Z</time></trkpt><trkpt lat="39.6566793" lon="20.9370405"><ele>500.0</ele><time>2026-04-27T10:59:03.162Z</time></trkpt><trkpt lat="39.6567596" lon="20.9371994"><ele>500.0</ele><time>2026-04-27T10:59:04.162Z</time></trkpt><trkpt lat="39.6568433" lon="20.9373644"><ele>500.0</ele><time>2026-04-27T10:59:05.163Z</time></trkpt><trkpt lat="39.6569323" lon="20.9375163"><ele>500.0</ele><time>2026-04-27T10:59:06.163Z</time></trkpt><trkpt lat="39.657019" lon="20.9376725"><ele>500.5</ele><time>2026-04-27T10:59:07.162Z</time></trkpt><trkpt lat="39.6570989" lon="20.9378399"><ele>501.0</ele><time>2026-04-27T10:59:08.162Z</time></trkpt><trkpt lat="39.6571663" lon="20.9380102"><ele>501.5</ele><time>2026-04-27T10:59:09.163Z</time></trkpt><trkpt lat="39.6572346" lon="20.938174"><ele>502.0</ele><time>2026-04-27T10:59:10.162Z</time></trkpt><trkpt lat="39.6572947" lon="20.9383335"><ele>503.0</ele><time>2026-04-27T10:59:11.162Z</time></trkpt><trkpt lat="39.657343" lon="20.9384926"><ele>504.0</ele><time>2026-04-27T10:59:12.162Z</time></trkpt><trkpt lat="39.6573956" lon="20.9386463"><ele>505.0</ele><time>2026-04-27T10:59:13.162Z</time></trkpt><trkpt lat="39.6574617" lon="20.9387829"><ele>506.0</ele><time>2026-04-27T10:59:14.162Z</time></trkpt><trkpt lat="39.6575471" lon="20.9389073"><ele>506.0</ele><time>2026-04-27T10:59:15.163Z</time></trkpt><trkpt lat="39.6576383" lon="20.9390204"><ele>506.0</ele><time>2026-04-27T10:59:16.162Z</time></trkpt><trkpt lat="39.6577427" lon="20.9391204"><ele>506.0</ele><time>2026-04-27T10:59:17.163Z</time></trkpt><trkpt lat="39.6578409" lon="20.9392134"><ele>506.0</ele><time>2026-04-27T10:59:18.162Z</time></trkpt><trkpt lat="39.6579387" lon="20.9393016"><ele>506.20000000000005</ele><time>2026-04-27T10:59:19.163Z</time></trkpt><trkpt lat="39.6580325" lon="20.9393816"><ele>506.40000000000003</ele><time>2026-04-27T10:59:20.163Z</time></trkpt><trkpt lat="39.6581203" lon="20.9394557"><ele>506.6</ele><time>2026-04-27T10:59:21.163Z</time></trkpt><trkpt lat="39.6582007" lon="20.9395248"><ele>506.8</ele><time>2026-04-27T10:59:22.163Z</time></trkpt><trkpt lat="39.658275" lon="20.939582"><ele>507.0</ele><time>2026-04-27T10:59:23.162Z</time></trkpt><trkpt lat="39.6583564" lon="20.9396162"><ele>507.0</ele><time>2026-04-27T10:59:24.162Z</time></trkpt><trkpt lat="39.6584488" lon="20.9396189"><ele>507.00000000000006</ele><time>2026-04-27T10:59:25.163Z</time></trkpt><trkpt lat="39.6585434" lon="20.9395944"><ele>507.00000000000006</ele><time>2026-04-27T10:59:26.162Z</time></trkpt><trkpt lat="39.6586357" lon="20.9395518"><ele>507.0</ele><time>2026-04-27T10:59:27.163Z</time></trkpt><trkpt lat="39.6587252" lon="20.9395048"><ele>507.0</ele><time>2026-04-27T10:59:28.163Z</time></trkpt><trkpt lat="39.6588064" lon="20.9394618"><ele>507.0</ele><time>2026-04-27T10:59:29.163Z</time></trkpt><trkpt lat="39.658875" lon="20.9394251"><ele>507.0</ele><time>2026-04-27T10:59:30.162Z</time></trkpt><trkpt lat="39.658941" lon="20.9393859"><ele>507.0</ele><time>2026-04-27T10:59:31.163Z</time></trkpt><trkpt lat="39.6590025" lon="20.939335"><ele>507.0</ele><time>2026-04-27T10:59:32.162Z</time></trkpt><trkpt lat="39.6590614" lon="20.9392666"><ele>507.0</ele><time>2026-04-27T10:59:33.163Z</time></trkpt><trkpt lat="39.6591094" lon="20.939187"><ele>507.0</ele><time>2026-04-27T10:59:34.162Z</time></trkpt><trkpt lat="39.6591495" lon="20.9391088"><ele>507.0</ele><time>2026-04-27T10:59:35.162Z</time></trkpt><trkpt lat="39.6591888" lon="20.939042"><ele>507.0</ele><time>2026-04-27T10:59:36.163Z</time></trkpt><trkpt lat="39.6592332" lon="20.9389777"><ele>507.00000000000006</ele><time>2026-04-27T10:59:37.163Z</time></trkpt><trkpt lat="39.65935" lon="20.9389388"><ele>507.00000000000006</ele><time>2026-04-27T10:59:39.163Z</time></trkpt><trkpt lat="39.6594464" lon="20.9389373"><ele>507.0</ele><time>2026-04-27T10:59:41.163Z</time></trkpt><trkpt lat="39.6595064" lon="20.9389944"><ele>507.0</ele><time>2026-04-27T10:59:43.163Z</time></trkpt><trkpt lat="39.659523" lon="20.9391544"><ele>508.3333333333333</ele><time>2026-04-27T10:59:45.162Z</time></trkpt><trkpt lat="39.6595398" lon="20.939246"><ele>509.66666666666663</ele><time>2026-04-27T10:59:46.163Z</time></trkpt><trkpt lat="39.6595572" lon="20.9393491"><ele>511.0</ele><time>2026-04-27T10:59:47.163Z</time></trkpt><trkpt lat="39.6595776" lon="20.9394617"><ele>512.3333333333333</ele><time>2026-04-27T10:59:48.162Z</time></trkpt><trkpt lat="39.6595986" lon="20.9395793"><ele>513.6666666666666</ele><time>2026-04-27T10:59:49.163Z</time></trkpt><trkpt lat="39.65963" lon="20.939697"><ele>515.0</ele><time>2026-04-27T10:59:50.162Z</time></trkpt><trkpt lat="39.659654" lon="20.9398213"><ele>515.0</ele><time>2026-04-27T10:59:51.163Z</time></trkpt><trkpt lat="39.6596907" lon="20.9399337"><ele>515.0</ele><time>2026-04-27T10:59:52.163Z</time></trkpt><trkpt lat="39.6597265" lon="20.9400513"><ele>515.0</ele><time>2026-04-27T10:59:53.162Z</time></trkpt><trkpt lat="39.6597652" lon="20.9401602"><ele>515.0</ele><time>2026-04-27T10:59:54.163Z</time></trkpt><trkpt lat="39.6598258" lon="20.940273"><ele>515.0</ele><time>2026-04-27T10:59:55.163Z</time></trkpt><trkpt lat="39.6598881" lon="20.9403829"><ele>516.0</ele><time>2026-04-27T10:59:56.162Z</time></trkpt><trkpt lat="39.6599668" lon="20.9404946"><ele>517.0</ele><time>2026-04-27T10:59:57.162Z</time></trkpt><trkpt lat="39.6600521" lon="20.9406003"><ele>518.0</ele><time>2026-04-27T10:59:58.162Z</time></trkpt><trkpt lat="39.6601439" lon="20.9407032"><ele>519.0</ele><time>2026-04-27T10:59:59.162Z</time></trkpt><trkpt lat="39.6602279" lon="20.9407931"><ele>519.3333333333334</ele><time>2026-04-27T11:00:00.162Z</time></trkpt><trkpt lat="39.660299" lon="20.9408749"><ele>519.6666666666666</ele><time>2026-04-27T11:00:01.163Z</time></trkpt><trkpt lat="39.6603574" lon="20.9409512"><ele>520.0</ele><time>2026-04-27T11:00:02.162Z</time></trkpt><trkpt lat="39.6604074" lon="20.9410271"><ele>520.3333333333333</ele><time>2026-04-27T11:00:03.162Z</time></trkpt><trkpt lat="39.660464" lon="20.9411025"><ele>520.6666666666666</ele><time>2026-04-27T11:00:04.163Z</time></trkpt><trkpt lat="39.6605359" lon="20.9411862"><ele>521.0</ele><time>2026-04-27T11:00:05.163Z</time></trkpt><trkpt lat="39.6606225" lon="20.9412745"><ele>522.6</ele><time>2026-04-27T11:00:06.163Z</time></trkpt><trkpt lat="39.6607014" lon="20.9413634"><ele>524.2</ele><time>2026-04-27T11:00:07.163Z</time></trkpt><trkpt lat="39.6607792" lon="20.9414505"><ele>525.8</ele><time>2026-04-27T11:00:08.163Z</time></trkpt><trkpt lat="39.6608574" lon="20.9415335"><ele>527.4</ele><time>2026-04-27T11:00:09.163Z</time></trkpt><trkpt lat="39.6609293" lon="20.9416177"><ele>529.0</ele><time>2026-04-27T11:00:10.162Z</time></trkpt><trkpt lat="39.6609889" lon="20.9417059"><ele>529.6666666666667</ele><time>2026-04-27T11:00:11.162Z</time></trkpt><trkpt lat="39.6610299" lon="20.9418402"><ele>530.3333333333334</ele><time>2026-04-27T11:00:13.163Z</time></trkpt><trkpt lat="39.6610471" lon="20.9419392"><ele>531.0</ele><time>2026-04-27T11:00:14.163Z</time></trkpt><trkpt lat="39.6610636" lon="20.942036"><ele>531.6666666666666</ele><time>2026-04-27T11:00:15.162Z</time></trkpt><trkpt lat="39.661073" lon="20.9421221"><ele>532.3333333333333</ele><time>2026-04-27T11:00:16.162Z</time></trkpt><trkpt lat="39.6611059" lon="20.9422174"><ele>533.0</ele><time>2026-04-27T11:00:17.163Z</time></trkpt><trkpt lat="39.6611469" lon="20.9423104"><ele>533.6</ele><time>2026-04-27T11:00:18.163Z</time></trkpt><trkpt lat="39.6611981" lon="20.9423912"><ele>534.1999999999999</ele><time>2026-04-27T11:00:19.162Z</time></trkpt><trkpt lat="39.6612588" lon="20.9424864"><ele>534.8</ele><time>2026-04-27T11:00:20.162Z</time></trkpt><trkpt lat="39.6613385" lon="20.9425955"><ele>535.4</ele><time>2026-04-27T11:00:21.163Z</time></trkpt><trkpt lat="39.6614013" lon="20.9426961"><ele>536.0</ele><time>2026-04-27T11:00:22.163Z</time></trkpt><trkpt lat="39.6614577" lon="20.9427967"><ele>536.6666666666666</ele><time>2026-04-27T11:00:23.163Z</time></trkpt><trkpt lat="39.6615035" lon="20.9428873"><ele>537.3333333333333</ele><time>2026-04-27T11:00:24.162Z</time></trkpt><trkpt lat="39.6615328" lon="20.9429894"><ele>538.0</ele><time>2026-04-27T11:00:25.163Z</time></trkpt><trkpt lat="39.6615464" lon="20.943104"><ele>538.6666666666666</ele><time>2026-04-27T11:00:26.162Z</time></trkpt><trkpt lat="39.6615454" lon="20.943227"><ele>539.3333333333334</ele><time>2026-04-27T11:00:27.162Z</time></trkpt><trkpt lat="39.6615354" lon="20.9433495"><ele>540.0</ele><time>2026-04-27T11:00:28.163Z</time></trkpt><trkpt lat="39.6615319" lon="20.9434725"><ele>541.3333333333334</ele><time>2026-04-27T11:00:29.163Z</time></trkpt><trkpt lat="39.6615312" lon="20.9435939"><ele>542.6666666666666</ele><time>2026-04-27T11:00:30.163Z</time></trkpt><trkpt lat="39.66156" lon="20.9437045"><ele>544.0</ele><time>2026-04-27T11:00:31.162Z</time></trkpt><trkpt lat="39.6615982" lon="20.9437979"><ele>545.3333333333333</ele><time>2026-04-27T11:00:32.163Z</time></trkpt><trkpt lat="39.6616332" lon="20.9438859"><ele>546.6666666666666</ele><time>2026-04-27T11:00:33.162Z</time></trkpt><trkpt lat="39.6616731" lon="20.9439739"><ele>548.0</ele><time>2026-04-27T11:00:34.163Z</time></trkpt><trkpt lat="39.6616311" lon="20.944067"><ele>548.0</ele><time>2026-04-27T11:00:35.163Z</time></trkpt><trkpt lat="39.6615931" lon="20.9441674"><ele>548.0</ele><time>2026-04-27T11:00:36.163Z</time></trkpt><trkpt lat="39.6615632" lon="20.9443046"><ele>548.0</ele><time>2026-04-27T11:00:37.163Z</time></trkpt><trkpt lat="39.6615376" lon="20.9444468"><ele>548.0</ele><time>2026-04-27T11:00:38.162Z</time></trkpt><trkpt lat="39.6615" lon="20.944584"><ele>548.0</ele><time>2026-04-27T11:00:39.162Z</time></trkpt><trkpt lat="39.6615214" lon="20.944673"><ele>551.6</ele><time>2026-04-27T11:00:41.162Z</time></trkpt><trkpt lat="39.6616164" lon="20.9446763"><ele>555.1999999999999</ele><time>2026-04-27T11:00:43.163Z</time></trkpt><trkpt lat="39.6616966" lon="20.9445609"><ele>558.8</ele><time>2026-04-27T11:00:44.162Z</time></trkpt><trkpt lat="39.6617396" lon="20.9444861"><ele>562.4</ele><time>2026-04-27T11:00:45.163Z</time></trkpt><trkpt lat="39.6617849" lon="20.9444163"><ele>566.0</ele><time>2026-04-27T11:00:46.163Z</time></trkpt><trkpt lat="39.6618808" lon="20.9444483"><ele>566.0</ele><time>2026-04-27T11:00:48.163Z</time></trkpt><trkpt lat="39.6619192" lon="20.9445746"><ele>566.0</ele><time>2026-04-27T11:00:50.163Z</time></trkpt><trkpt lat="39.6618792" lon="20.9446961"><ele>566.0</ele><time>2026-04-27T11:00:51.163Z</time></trkpt><trkpt lat="39.6618451" lon="20.9448279"><ele>566.0</ele><time>2026-04-27T11:00:52.163Z</time></trkpt><trkpt lat="39.661812" lon="20.9449648"><ele>566.0</ele><time>2026-04-27T11:00:53.162Z</time></trkpt><trkpt lat="39.6618064" lon="20.9451262"><ele>570.0</ele><time>2026-04-27T11:00:54.162Z</time></trkpt><trkpt lat="39.661806" lon="20.9452916"><ele>574.0</ele><time>2026-04-27T11:00:55.162Z</time></trkpt><trkpt lat="39.6618242" lon="20.9454544"><ele>578.0</ele><time>2026-04-27T11:00:56.162Z</time></trkpt><trkpt lat="39.6618543" lon="20.9456032"><ele>582.0</ele><time>2026-04-27T11:00:57.163Z</time></trkpt><trkpt lat="39.6618759" lon="20.9457315"><ele>582.0</ele><time>2026-04-27T11:00:58.162Z</time></trkpt><trkpt lat="39.661897" lon="20.9458396"><ele>582.0</ele><time>2026-04-27T11:00:59.162Z</time></trkpt><trkpt lat="39.661929" lon="20.9459433"><ele>582.0</ele><time>2026-04-27T11:01:00.163Z</time></trkpt><trkpt lat="39.661898" lon="20.9460952"><ele>582.0</ele><time>2026-04-27T11:01:02.163Z</time></trkpt><trkpt lat="39.6618601" lon="20.9461775"><ele>582.0</ele><time>2026-04-27T11:01:03.163Z</time></trkpt><trkpt lat="39.6617712" lon="20.9462258"><ele>587.25</ele><time>2026-04-27T11:01:04.163Z</time></trkpt><trkpt lat="39.6616614" lon="20.9462383"><ele>592.5</ele><time>2026-04-27T11:01:05.163Z</time></trkpt><trkpt lat="39.6615218" lon="20.9461324"><ele>597.75</ele><time>2026-04-27T11:01:06.163Z</time></trkpt><trkpt lat="39.6614078" lon="20.946132"><ele>603.0</ele><time>2026-04-27T11:01:07.163Z</time></trkpt><trkpt lat="39.6613064" lon="20.9461393"><ele>603.0</ele><time>2026-04-27T11:01:08.162Z</time></trkpt><trkpt lat="39.6612039" lon="20.9461625"><ele>603.0</ele><time>2026-04-27T11:01:09.162Z</time></trkpt><trkpt lat="39.6611066" lon="20.9462006"><ele>603.0</ele><time>2026-04-27T11:01:10.162Z</time></trkpt><trkpt lat="39.6610619" lon="20.9462777"><ele>603.0</ele><time>2026-04-27T11:01:11.162Z</time></trkpt><trkpt lat="39.6610299" lon="20.9463688"><ele>603.0</ele><time>2026-04-27T11:01:12.163Z</time></trkpt><trkpt lat="39.6610302" lon="20.946477"><ele>603.0</ele><time>2026-04-27T11:01:13.163Z</time></trkpt><trkpt lat="39.6610325" lon="20.9465982"><ele>603.25</ele><time>2026-04-27T11:01:14.162Z</time></trkpt><trkpt lat="39.6610765" lon="20.9467438"><ele>603.5</ele><time>2026-04-27T11:01:15.162Z</time></trkpt><trkpt lat="39.6610709" lon="20.9469225"><ele>603.75</ele><time>2026-04-27T11:01:16.163Z</time></trkpt><trkpt lat="39.6610751" lon="20.9470829"><ele>604.0</ele><time>2026-04-27T11:01:17.163Z</time></trkpt><trkpt lat="39.6610632" lon="20.9472226"><ele>604.0</ele><time>2026-04-27T11:01:18.162Z</time></trkpt><trkpt lat="39.661055" lon="20.9473585"><ele>604.0</ele><time>2026-04-27T11:01:19.162Z</time></trkpt><trkpt lat="39.6610452" lon="20.947487"><ele>604.0</ele><time>2026-04-27T11:01:20.162Z</time></trkpt><trkpt lat="39.6609786" lon="20.9476105"><ele>604.0</ele><time>2026-04-27T11:01:21.163Z</time></trkpt><trkpt lat="39.6608406" lon="20.9476516"><ele>606.0</ele><time>2026-04-27T11:01:22.162Z</time></trkpt><trkpt lat="39.6608096" lon="20.9477567"><ele>608.0</ele><time>2026-04-27T11:01:23.163Z</time></trkpt><trkpt lat="39.6607855" lon="20.9478511"><ele>610.0</ele><time>2026-04-27T11:01:24.163Z</time></trkpt><trkpt lat="39.6608265" lon="20.9479936"><ele>612.0</ele><time>2026-04-27T11:01:26.163Z</time></trkpt><trkpt lat="39.6608913" lon="20.9480127"><ele>614.0</ele><time>2026-04-27T11:01:27.163Z</time></trkpt><trkpt lat="39.6609777" lon="20.9479931"><ele>616.0</ele><time>2026-04-27T11:01:28.163Z</time></trkpt><trkpt lat="39.6610894" lon="20.9479504"><ele>619.8</ele><time>2026-04-27T11:01:29.162Z</time></trkpt><trkpt lat="39.6612044" lon="20.9479029"><ele>623.6</ele><time>2026-04-27T11:01:30.163Z</time></trkpt><trkpt lat="39.6613071" lon="20.9478503"><ele>627.4</ele><time>2026-04-27T11:01:31.162Z</time></trkpt><trkpt lat="39.6613861" lon="20.9478028"><ele>631.2</ele><time>2026-04-27T11:01:32.163Z</time></trkpt><trkpt lat="39.6614529" lon="20.9477581"><ele>635.0</ele><time>2026-04-27T11:01:33.162Z</time></trkpt><trkpt lat="39.6615539" lon="20.9477741"><ele>635.0</ele><time>2026-04-27T11:01:35.163Z</time></trkpt><trkpt lat="39.6615597" lon="20.9478669"><ele>635.0</ele><time>2026-04-27T11:01:36.163Z</time></trkpt><trkpt lat="39.6615262" lon="20.9479732"><ele>635.0</ele><time>2026-04-27T11:01:37.162Z</time></trkpt><trkpt lat="39.6614781" lon="20.9481172"><ele>635.0</ele><time>2026-04-27T11:01:38.162Z</time></trkpt><trkpt lat="39.6614394" lon="20.9482624"><ele>635.0</ele><time>2026-04-27T11:01:39.163Z</time></trkpt><trkpt lat="39.6614166" lon="20.9484371"><ele>637.0</ele><time>2026-04-27T11:01:40.163Z</time></trkpt><trkpt lat="39.6614051" lon="20.9486241"><ele>639.0</ele><time>2026-04-27T11:01:41.162Z</time></trkpt><trkpt lat="39.6614022" lon="20.9487979"><ele>641.0</ele><time>2026-04-27T11:01:42.162Z</time></trkpt><trkpt lat="39.6614094" lon="20.9489559"><ele>643.0</ele><time>2026-04-27T11:01:43.163Z</time></trkpt><trkpt lat="39.6614354" lon="20.9491093"><ele>642.5</ele><time>2026-04-27T11:01:44.163Z</time></trkpt><trkpt lat="39.6614801" lon="20.9492701"><ele>642.0</ele><time>2026-04-27T11:01:45.162Z</time></trkpt><trkpt lat="39.6615334" lon="20.9494436"><ele>641.5</ele><time>2026-04-27T11:01:46.163Z</time></trkpt><trkpt lat="39.6615736" lon="20.949609"><ele>641.0</ele><time>2026-04-27T11:01:47.163Z</time></trkpt><trkpt lat="39.6615937" lon="20.949751"><ele>641.0</ele><time>2026-04-27T11:01:48.163Z</time></trkpt><trkpt lat="39.661621" lon="20.9498695"><ele>641.0</ele><time>2026-04-27T11:01:49.163Z</time></trkpt><trkpt lat="39.6616677" lon="20.94996"><ele>641.0</ele><time>2026-04-27T11:01:50.162Z</time></trkpt><trkpt lat="39.661738" lon="20.9500158"><ele>641.0</ele><time>2026-04-27T11:01:51.163Z</time></trkpt><trkpt lat="39.6618261" lon="20.9500298"><ele>641.0</ele><time>2026-04-27T11:01:52.163Z</time></trkpt><trkpt lat="39.661933" lon="20.9499773"><ele>644.0</ele><time>2026-04-27T11:01:53.163Z</time></trkpt><trkpt lat="39.6620344" lon="20.9499081"><ele>647.0</ele><time>2026-04-27T11:01:54.162Z</time></trkpt><trkpt lat="39.6621207" lon="20.9498291"><ele>650.0</ele><time>2026-04-27T11:01:55.162Z</time></trkpt><trkpt lat="39.6621829" lon="20.9497195"><ele>653.0</ele><time>2026-04-27T11:01:56.162Z</time></trkpt><trkpt lat="39.6622086" lon="20.9495855"><ele>656.0</ele><time>2026-04-27T11:01:57.163Z</time></trkpt><trkpt lat="39.6622128" lon="20.9494324"><ele>656.0</ele><time>2026-04-27T11:01:58.162Z</time></trkpt><trkpt lat="39.6622282" lon="20.9492595"><ele>656.0</ele><time>2026-04-27T11:01:59.162Z</time></trkpt><trkpt lat="39.6622607" lon="20.9490932"><ele>656.0</ele><time>2026-04-27T11:02:00.162Z</time></trkpt><trkpt lat="39.6623015" lon="20.9489494"><ele>656.0</ele><time>2026-04-27T11:02:01.162Z</time></trkpt><trkpt lat="39.6623538" lon="20.9488339"><ele>658.5</ele><time>2026-04-27T11:02:02.163Z</time></trkpt><trkpt lat="39.6624477" lon="20.9487655"><ele>661.0</ele><time>2026-04-27T11:02:03.162Z</time></trkpt><trkpt lat="39.6625534" lon="20.9487303"><ele>663.5</ele><time>2026-04-27T11:02:04.163Z</time></trkpt><trkpt lat="39.6626646" lon="20.9487499"><ele>666.0</ele><time>2026-04-27T11:02:05.162Z</time></trkpt><trkpt lat="39.6627975" lon="20.9488087"><ele>668.6666666666666</ele><time>2026-04-27T11:02:06.163Z</time></trkpt><trkpt lat="39.6629248" lon="20.9488575"><ele>671.3333333333333</ele><time>2026-04-27T11:02:07.162Z</time></trkpt><trkpt lat="39.6631168" lon="20.9490409"><ele>674.0</ele><time>2026-04-27T11:02:08.162Z</time></trkpt><trkpt lat="39.6632977" lon="20.9492079"><ele>675.5</ele><time>2026-04-27T11:02:09.162Z</time></trkpt><trkpt lat="39.6634938" lon="20.9493761"><ele>677.0</ele><time>2026-04-27T11:02:10.163Z</time></trkpt><trkpt lat="39.663671" lon="20.9495409"><ele>681.6666666666666</ele><time>2026-04-27T11:02:11.162Z</time></trkpt><trkpt lat="39.6638462" lon="20.9496911"><ele>686.3333333333334</ele><time>2026-04-27T11:02:12.163Z</time></trkpt><trkpt lat="39.6639965" lon="20.9498237"><ele>691.0</ele><time>2026-04-27T11:02:13.162Z</time></trkpt><trkpt lat="39.664137" lon="20.9499342"><ele>691.0</ele><time>2026-04-27T11:02:14.162Z</time></trkpt><trkpt lat="39.6642617" lon="20.9500213"><ele>691.0</ele><time>2026-04-27T11:02:15.163Z</time></trkpt><trkpt lat="39.6643668" lon="20.9501125"><ele>691.0</ele><time>2026-04-27T11:02:16.162Z</time></trkpt><trkpt lat="39.6644526" lon="20.9501946"><ele>691.0</ele><time>2026-04-27T11:02:17.163Z</time></trkpt><trkpt lat="39.6645429" lon="20.950249"><ele>694.5999999999999</ele><time>2026-04-27T11:02:18.162Z</time></trkpt><trkpt lat="39.6646499" lon="20.9502476"><ele>698.2</ele><time>2026-04-27T11:02:19.163Z</time></trkpt><trkpt lat="39.6647423" lon="20.9502282"><ele>701.8</ele><time>2026-04-27T11:02:20.163Z</time></trkpt><trkpt lat="39.6648191" lon="20.9502182"><ele>705.4000000000001</ele><time>2026-04-27T11:02:21.163Z</time></trkpt><trkpt lat="39.6648959" lon="20.950348"><ele>709.0</ele><time>2026-04-27T11:02:23.163Z</time></trkpt><trkpt lat="39.664896" lon="20.9504701"><ele>709.0</ele><time>2026-04-27T11:02:24.163Z</time></trkpt><trkpt lat="39.6648821" lon="20.9506218"><ele>709.0</ele><time>2026-04-27T11:02:25.162Z</time></trkpt><trkpt lat="39.6648766" lon="20.9507881"><ele>709.0</ele><time>2026-04-27T11:02:26.163Z</time></trkpt><trkpt lat="39.6648699" lon="20.9509457"><ele>709.0</ele><time>2026-04-27T11:02:27.163Z</time></trkpt><trkpt lat="39.6648533" lon="20.9511081"><ele>710.5</ele><time>2026-04-27T11:02:28.162Z</time></trkpt><trkpt lat="39.6648003" lon="20.9512371"><ele>712.0</ele><time>2026-04-27T11:02:29.163Z</time></trkpt><trkpt lat="39.6647687" lon="20.9513771"><ele>713.5</ele><time>2026-04-27T11:02:30.162Z</time></trkpt><trkpt lat="39.6647534" lon="20.9515275"><ele>715.0</ele><time>2026-04-27T11:02:31.162Z</time></trkpt><trkpt lat="39.6647429" lon="20.9516721"><ele>716.6</ele><time>2026-04-27T11:02:32.163Z</time></trkpt><trkpt lat="39.6647548" lon="20.9517989"><ele>718.2</ele><time>2026-04-27T11:02:33.163Z</time></trkpt><trkpt lat="39.6647577" lon="20.9519189"><ele>719.8</ele><time>2026-04-27T11:02:34.162Z</time></trkpt><trkpt lat="39.6648089" lon="20.9520409"><ele>721.4</ele><time>2026-04-27T11:02:35.162Z</time></trkpt><trkpt lat="39.6648673" lon="20.9521523"><ele>723.0</ele><time>2026-04-27T11:02:36.162Z</time></trkpt><trkpt lat="39.6649396" lon="20.9522705"><ele>723.0</ele><time>2026-04-27T11:02:37.162Z</time></trkpt><trkpt lat="39.6650149" lon="20.9523962"><ele>723.0</ele><time>2026-04-27T11:02:38.162Z</time></trkpt><trkpt lat="39.6650891" lon="20.9525208"><ele>723.0</ele><time>2026-04-27T11:02:39.163Z</time></trkpt><trkpt lat="39.665162" lon="20.9526464"><ele>723.0</ele><time>2026-04-27T11:02:40.163Z</time></trkpt><trkpt lat="39.6652225" lon="20.95279"><ele>723.75</ele><time>2026-04-27T11:02:41.162Z</time></trkpt><trkpt lat="39.6652472" lon="20.952973"><ele>724.5</ele><time>2026-04-27T11:02:42.162Z</time></trkpt><trkpt lat="39.6652645" lon="20.9531672"><ele>725.25</ele><time>2026-04-27T11:02:43.163Z</time></trkpt><trkpt lat="39.6652686" lon="20.9533595"><ele>726.0</ele><time>2026-04-27T11:02:44.163Z</time></trkpt><trkpt lat="39.6652605" lon="20.9535474"><ele>727.25</ele><time>2026-04-27T11:02:45.163Z</time></trkpt><trkpt lat="39.6652451" lon="20.9537243"><ele>728.5</ele><time>2026-04-27T11:02:46.163Z</time></trkpt><trkpt lat="39.665225" lon="20.9538898"><ele>729.75</ele><time>2026-04-27T11:02:47.162Z</time></trkpt><trkpt lat="39.6652093" lon="20.954041"><ele>731.0</ele><time>2026-04-27T11:02:48.163Z</time></trkpt><trkpt lat="39.6651965" lon="20.9541774"><ele>731.8</ele><time>2026-04-27T11:02:49.162Z</time></trkpt><trkpt lat="39.6651849" lon="20.9543033"><ele>732.5999999999999</ele><time>2026-04-27T11:02:50.162Z</time></trkpt><trkpt lat="39.6652011" lon="20.9544119"><ele>733.4</ele><time>2026-04-27T11:02:51.163Z</time></trkpt><trkpt lat="39.6652168" lon="20.9545295"><ele>734.2</ele><time>2026-04-27T11:02:52.163Z</time></trkpt><trkpt lat="39.6652448" lon="20.9546601"><ele>735.0</ele><time>2026-04-27T11:02:53.162Z</time></trkpt><trkpt lat="39.6652859" lon="20.9547905"><ele>738.5</ele><time>2026-04-27T11:02:54.162Z</time></trkpt><trkpt lat="39.6653522" lon="20.954922"><ele>742.0</ele><time>2026-04-27T11:02:55.162Z</time></trkpt><trkpt lat="39.6654477" lon="20.9550375"><ele>745.5</ele><time>2026-04-27T11:02:56.162Z</time></trkpt><trkpt lat="39.6655602" lon="20.9551424"><ele>749.0</ele><time>2026-04-27T11:02:57.163Z</time></trkpt><trkpt lat="39.6656657" lon="20.9552526"><ele>749.0</ele><time>2026-04-27T11:02:58.163Z</time></trkpt><trkpt lat="39.6657607" lon="20.955334"><ele>749.0</ele><time>2026-04-27T11:02:59.163Z</time></trkpt><trkpt lat="39.6657668" lon="20.9554775"><ele>749.0</ele><time>2026-04-27T11:03:00.162Z</time></trkpt><trkpt lat="39.6658125" lon="20.9555836"><ele>749.0</ele><time>2026-04-27T11:03:01.163Z</time></trkpt><trkpt lat="39.6657228" lon="20.9557643"><ele>751.5</ele><time>2026-04-27T11:03:02.162Z</time></trkpt><trkpt lat="39.6656764" lon="20.9559227"><ele>754.0</ele><time>2026-04-27T11:03:03.163Z</time></trkpt><trkpt lat="39.6656449" lon="20.9560944"><ele>756.5</ele><time>2026-04-27T11:03:04.162Z</time></trkpt><trkpt lat="39.6656102" lon="20.9562674"><ele>759.0</ele><time>2026-04-27T11:03:05.162Z</time></trkpt><trkpt lat="39.6655859" lon="20.9564361"><ele>759.0</ele><time>2026-04-27T11:03:06.163Z</time></trkpt><trkpt lat="39.6655651" lon="20.9566112"><ele>759.0</ele><time>2026-04-27T11:03:07.163Z</time></trkpt><trkpt lat="39.6655586" lon="20.9567726"><ele>759.0</ele><time>2026-04-27T11:03:08.162Z</time></trkpt><trkpt lat="39.6655606" lon="20.9569142"><ele>759.0</ele><time>2026-04-27T11:03:09.163Z</time></trkpt><trkpt lat="39.6655793" lon="20.9570466"><ele>760.4000000000001</ele><time>2026-04-27T11:03:10.162Z</time></trkpt><trkpt lat="39.6656155" lon="20.9571676"><ele>761.8</ele><time>2026-04-27T11:03:11.163Z</time></trkpt><trkpt lat="39.6656592" lon="20.9572941"><ele>763.2</ele><time>2026-04-27T11:03:12.162Z</time></trkpt><trkpt lat="39.6657058" lon="20.9574321"><ele>764.5999999999999</ele><time>2026-04-27T11:03:13.162Z</time></trkpt><trkpt lat="39.6657441" lon="20.9575729"><ele>766.0</ele><time>2026-04-27T11:03:14.163Z</time></trkpt><trkpt lat="39.6657757" lon="20.957707"><ele>762.8</ele><time>2026-04-27T11:03:15.163Z</time></trkpt><trkpt lat="39.6658063" lon="20.9578289"><ele>759.5999999999999</ele><time>2026-04-27T11:03:16.163Z</time></trkpt><trkpt lat="39.6658432" lon="20.9579325"><ele>756.4</ele><time>2026-04-27T11:03:17.162Z</time></trkpt><trkpt lat="39.6659005" lon="20.95802"><ele>753.2</ele><time>2026-04-27T11:03:18.163Z</time></trkpt><trkpt lat="39.6659845" lon="20.9580855"><ele>750.0</ele><time>2026-04-27T11:03:19.163Z</time></trkpt><trkpt lat="39.6660849" lon="20.9581356"><ele>754.2</ele><time>2026-04-27T11:03:20.163Z</time></trkpt><trkpt lat="39.6661938" lon="20.9581873"><ele>758.4</ele><time>2026-04-27T11:03:21.163Z</time></trkpt><trkpt lat="39.6662935" lon="20.958238"><ele>762.5999999999999</ele><time>2026-04-27T11:03:22.162Z</time></trkpt><trkpt lat="39.6663799" lon="20.9582862"><ele>766.8</ele><time>2026-04-27T11:03:23.163Z</time></trkpt><trkpt lat="39.6664466" lon="20.958317"><ele>771.0</ele><time>2026-04-27T11:03:24.162Z</time></trkpt><trkpt lat="39.6665095" lon="20.9583394"><ele>770.4</ele><time>2026-04-27T11:03:25.163Z</time></trkpt><trkpt lat="39.6665888" lon="20.9583708"><ele>769.8</ele><time>2026-04-27T11:03:26.162Z</time></trkpt><trkpt lat="39.6666803" lon="20.9584112"><ele>769.1999999999999</ele><time>2026-04-27T11:03:27.163Z</time></trkpt><trkpt lat="39.6667836" lon="20.958465"><ele>768.5999999999999</ele><time>2026-04-27T11:03:28.162Z</time></trkpt><trkpt lat="39.6668981" lon="20.9585161"><ele>768.0</ele><time>2026-04-27T11:03:29.162Z</time></trkpt><trkpt lat="39.6670125" lon="20.9585748"><ele>768.0</ele><time>2026-04-27T11:03:30.163Z</time></trkpt><trkpt lat="39.6671198" lon="20.9586276"><ele>768.0</ele><time>2026-04-27T11:03:31.163Z</time></trkpt><trkpt lat="39.6672175" lon="20.9586715"><ele>768.0</ele><time>2026-04-27T11:03:32.162Z</time></trkpt><trkpt lat="39.667296" lon="20.9587053"><ele>768.0</ele><time>2026-04-27T11:03:33.162Z</time></trkpt><trkpt lat="39.6673865" lon="20.9587364"><ele>768.0</ele><time>2026-04-27T11:03:35.163Z</time></trkpt><trkpt lat="39.6674485" lon="20.958702"><ele>768.0</ele><time>2026-04-27T11:03:37.162Z</time></trkpt><trkpt lat="39.6674906" lon="20.9586229"><ele>768.0</ele><time>2026-04-27T11:04:32.006Z</time></trkpt><trkpt lat="39.6674384" lon="20.9586705"><ele>768.0</ele><time>2026-04-27T11:04:58.17Z</time></trkpt><trkpt lat="39.6673993" lon="20.9587435"><ele>768.0</ele><time>2026-04-27T11:05:52.17Z</time></trkpt><trkpt lat="39.6674525" lon="20.9586992"><ele>768.0</ele><time>2026-04-27T11:06:02.171Z</time></trkpt><trkpt lat="39.6674731" lon="20.9585798"><ele>768.0</ele><time>2026-04-27T11:06:04.171Z</time></trkpt><trkpt lat="39.6674311" lon="20.9584609"><ele>768.0</ele><time>2026-04-27T11:06:06.171Z</time></trkpt><trkpt lat="39.6673572" lon="20.9583697"><ele>768.0</ele><time>2026-04-27T11:06:08.171Z</time></trkpt><trkpt lat="39.6672671" lon="20.9582778"><ele>768.0</ele><time>2026-04-27T11:06:10.171Z</time></trkpt><trkpt lat="39.6672073" lon="20.9582192"><ele>768.0</ele><time>2026-04-27T11:06:12.171Z</time></trkpt><trkpt lat="39.6671426" lon="20.9581712"><ele>768.0</ele><time>2026-04-27T11:06:16.17Z</time></trkpt><trkpt lat="39.6670724" lon="20.9580941"><ele>768.5999999999999</ele><time>2026-04-27T11:06:19.17Z</time></trkpt><trkpt lat="39.6669781" lon="20.9579876"><ele>769.1999999999999</ele><time>2026-04-27T11:06:21.171Z</time></trkpt><trkpt lat="39.6669348" lon="20.9579162"><ele>769.8</ele><time>2026-04-27T11:06:22.171Z</time></trkpt><trkpt lat="39.6668687" lon="20.9578151"><ele>770.4</ele><time>2026-04-27T11:06:24.17Z</time></trkpt><trkpt lat="39.6668533" lon="20.9577282"><ele>771.0</ele><time>2026-04-27T11:06:26.171Z</time></trkpt><trkpt lat="39.6669012" lon="20.9576314"><ele>773.8</ele><time>2026-04-27T11:06:29.17Z</time></trkpt><trkpt lat="39.6669761" lon="20.9577122"><ele>776.5999999999999</ele><time>2026-04-27T11:06:32.17Z</time></trkpt><trkpt lat="39.6670481" lon="20.9578031"><ele>779.4</ele><time>2026-04-27T11:06:34.171Z</time></trkpt><trkpt lat="39.6671381" lon="20.9578871"><ele>782.2</ele><time>2026-04-27T11:06:36.171Z</time></trkpt><trkpt lat="39.6672109" lon="20.9579071"><ele>785.0</ele><time>2026-04-27T11:06:38.171Z</time></trkpt><trkpt lat="39.6672433" lon="20.9578234"><ele>785.0</ele><time>2026-04-27T11:06:40.17Z</time></trkpt><trkpt lat="39.6672192" lon="20.9576928"><ele>785.0</ele><time>2026-04-27T11:06:42.171Z</time></trkpt><trkpt lat="39.6672077" lon="20.9575436"><ele>785.0</ele><time>2026-04-27T11:06:44.17Z</time></trkpt><trkpt lat="39.6671969" lon="20.9573878"><ele>785.0</ele><time>2026-04-27T11:06:46.171Z</time></trkpt><trkpt lat="39.6672035" lon="20.9572747"><ele>785.0</ele><time>2026-04-27T11:06:48.17Z</time></trkpt><trkpt lat="39.6672063" lon="20.9571617"><ele>787.1666666666667</ele><time>2026-04-27T11:06:50.171Z</time></trkpt><trkpt lat="39.667267" lon="20.9570524"><ele>789.3333333333334</ele><time>2026-04-27T11:06:52.171Z</time></trkpt><trkpt lat="39.66733" lon="20.9569975"><ele>791.5</ele><time>2026-04-27T11:06:53.17Z</time></trkpt><trkpt lat="39.6673802" lon="20.9569475"><ele>793.6666666666667</ele><time>2026-04-27T11:06:54.171Z</time></trkpt><trkpt lat="39.667451" lon="20.9569037"><ele>795.8333333333334</ele><time>2026-04-27T11:06:55.171Z</time></trkpt><trkpt lat="39.6675404" lon="20.9568682"><ele>798.0</ele><time>2026-04-27T11:06:56.17Z</time></trkpt><trkpt lat="39.6676112" lon="20.95685"><ele>798.0</ele><time>2026-04-27T11:06:57.17Z</time></trkpt><trkpt lat="39.6676834" lon="20.9568128"><ele>798.0</ele><time>2026-04-27T11:06:58.171Z</time></trkpt><trkpt lat="39.6677482" lon="20.9567803"><ele>798.0</ele><time>2026-04-27T11:06:59.17Z</time></trkpt><trkpt lat="39.6677979" lon="20.9567192"><ele>798.0</ele><time>2026-04-27T11:07:00.171Z</time></trkpt><trkpt lat="39.6678408" lon="20.9566464"><ele>798.0</ele><time>2026-04-27T11:07:01.171Z</time></trkpt><trkpt lat="39.6678934" lon="20.9565687"><ele>798.0</ele><time>2026-04-27T11:07:02.171Z</time></trkpt><trkpt lat="39.6679556" lon="20.956467"><ele>802.3333333333334</ele><time>2026-04-27T11:07:03.17Z</time></trkpt><trkpt lat="39.6680123" lon="20.9563736"><ele>806.6666666666667</ele><time>2026-04-27T11:07:04.171Z</time></trkpt><trkpt lat="39.668078" lon="20.9562765"><ele>811.0</ele><time>2026-04-27T11:07:05.17Z</time></trkpt><trkpt lat="39.6681285" lon="20.9562008"><ele>815.3333333333334</ele><time>2026-04-27T11:07:06.171Z</time></trkpt><trkpt lat="39.6681724" lon="20.9561256"><ele>819.6666666666667</ele><time>2026-04-27T11:07:07.17Z</time></trkpt><trkpt lat="39.6682571" lon="20.9560662"><ele>824.0</ele><time>2026-04-27T11:07:10.171Z</time></trkpt><trkpt lat="39.6682941" lon="20.9561711"><ele>824.0000000000001</ele><time>2026-04-27T11:07:12.17Z</time></trkpt><trkpt lat="39.6683269" lon="20.956306"><ele>824.0</ele><time>2026-04-27T11:07:14.171Z</time></trkpt><trkpt lat="39.6683501" lon="20.956391"><ele>824.0</ele><time>2026-04-27T11:07:15.17Z</time></trkpt><trkpt lat="39.6684044" lon="20.9565022"><ele>824.0</ele><time>2026-04-27T11:07:17.17Z</time></trkpt><trkpt lat="39.6684638" lon="20.9565311"><ele>824.0000000000001</ele><time>2026-04-27T11:07:19.17Z</time></trkpt><trkpt lat="39.668541" lon="20.9564513"><ele>824.0</ele><time>2026-04-27T11:07:22.17Z</time></trkpt><trkpt lat="39.6685668" lon="20.9563489"><ele>827.0000000000001</ele><time>2026-04-27T11:07:24.171Z</time></trkpt><trkpt lat="39.6686261" lon="20.9562596"><ele>830.0</ele><time>2026-04-27T11:07:27.171Z</time></trkpt><trkpt lat="39.668696" lon="20.9562345"><ele>833.0</ele><time>2026-04-27T11:07:29.171Z</time></trkpt><trkpt lat="39.6687759" lon="20.9562368"><ele>836.0</ele><time>2026-04-27T11:07:31.171Z</time></trkpt><trkpt lat="39.6688757" lon="20.9562418"><ele>839.0000000000001</ele><time>2026-04-27T11:07:33.171Z</time></trkpt><trkpt lat="39.6689449" lon="20.9562343"><ele>842.0</ele><time>2026-04-27T11:07:35.171Z</time></trkpt><trkpt lat="39.6690121" lon="20.9562291"><ele>842.0000000000001</ele><time>2026-04-27T11:07:38.17Z</time></trkpt><trkpt lat="39.669041" lon="20.9563439"><ele>842.0</ele><time>2026-04-27T11:07:41.17Z</time></trkpt><trkpt lat="39.6689801" lon="20.956444"><ele>842.0</ele><time>2026-04-27T11:07:44.17Z</time></trkpt><trkpt lat="39.6689296" lon="20.9565316"><ele>842.0</ele><time>2026-04-27T11:07:46.171Z</time></trkpt><trkpt lat="39.668928" lon="20.9566331"><ele>842.0000000000001</ele><time>2026-04-27T11:07:48.17Z</time></trkpt><trkpt lat="39.6689842" lon="20.9567301"><ele>842.0</ele><time>2026-04-27T11:07:50.17Z</time></trkpt><trkpt lat="39.6690623" lon="20.9568036"><ele>842.0000000000001</ele><time>2026-04-27T11:07:52.17Z</time></trkpt><trkpt lat="39.6691536" lon="20.9568305"><ele>842.0</ele><time>2026-04-27T11:07:54.171Z</time></trkpt><trkpt lat="39.6692439" lon="20.9567822"><ele>842.0</ele><time>2026-04-27T11:07:56.17Z</time></trkpt><trkpt lat="39.6693219" lon="20.956734"><ele>842.0</ele><time>2026-04-27T11:07:58.17Z</time></trkpt><trkpt lat="39.6693973" lon="20.9566989"><ele>842.0000000000001</ele><time>2026-04-27T11:08:00.17Z</time></trkpt><trkpt lat="39.6694802" lon="20.9566814"><ele>842.0</ele><time>2026-04-27T11:08:02.17Z</time></trkpt><trkpt lat="39.6695612" lon="20.9567058"><ele>846.6</ele><time>2026-04-27T11:08:04.17Z</time></trkpt><trkpt lat="39.6696414" lon="20.9567386"><ele>851.2</ele><time>2026-04-27T11:08:06.17Z</time></trkpt><trkpt lat="39.6697172" lon="20.956782"><ele>855.8</ele><time>2026-04-27T11:08:08.171Z</time></trkpt><trkpt lat="39.6697962" lon="20.9568411"><ele>860.4</ele><time>2026-04-27T11:08:10.17Z</time></trkpt><trkpt lat="39.6698971" lon="20.9568561"><ele>865.0</ele><time>2026-04-27T11:08:12.171Z</time></trkpt><trkpt lat="39.670012" lon="20.9568222"><ele>865.0</ele><time>2026-04-27T11:08:14.17Z</time></trkpt><trkpt lat="39.6701024" lon="20.956799"><ele>865.0</ele><time>2026-04-27T11:08:16.171Z</time></trkpt><trkpt lat="39.6701926" lon="20.9568061"><ele>865.0</ele><time>2026-04-27T11:08:18.171Z</time></trkpt><trkpt lat="39.6702955" lon="20.956859"><ele>865.0</ele><time>2026-04-27T11:08:20.17Z</time></trkpt><trkpt lat="39.6704008" lon="20.9569408"><ele>865.0</ele><time>2026-04-27T11:08:22.17Z</time></trkpt><trkpt lat="39.6704548" lon="20.9569852"><ele>868.0</ele><time>2026-04-27T11:08:23.17Z</time></trkpt><trkpt lat="39.6705183" lon="20.9570498"><ele>871.0</ele><time>2026-04-27T11:08:24.171Z</time></trkpt><trkpt lat="39.670623" lon="20.9571114"><ele>874.0</ele><time>2026-04-27T11:08:26.17Z</time></trkpt><trkpt lat="39.6707271" lon="20.9571901"><ele>877.0</ele><time>2026-04-27T11:08:28.171Z</time></trkpt><trkpt lat="39.6707788" lon="20.9572466"><ele>880.0</ele><time>2026-04-27T11:08:29.171Z</time></trkpt><trkpt lat="39.6708785" lon="20.9573237"><ele>880.0</ele><time>2026-04-27T11:08:31.17Z</time></trkpt><trkpt lat="39.6709786" lon="20.9573917"><ele>880.0</ele><time>2026-04-27T11:08:33.171Z</time></trkpt><trkpt lat="39.6710883" lon="20.9574478"><ele>880.0</ele><time>2026-04-27T11:08:35.171Z</time></trkpt><trkpt lat="39.6711735" lon="20.9574933"><ele>880.0</ele><time>2026-04-27T11:08:37.17Z</time></trkpt><trkpt lat="39.6712443" lon="20.9575454"><ele>880.0</ele><time>2026-04-27T11:08:39.17Z</time></trkpt><trkpt lat="39.6713033" lon="20.9576279"><ele>881.8333333333333</ele><time>2026-04-27T11:08:41.171Z</time></trkpt><trkpt lat="39.6713391" lon="20.9577332"><ele>883.6666666666666</ele><time>2026-04-27T11:08:43.17Z</time></trkpt><trkpt lat="39.671358" lon="20.9578484"><ele>885.5</ele><time>2026-04-27T11:08:45.171Z</time></trkpt><trkpt lat="39.6713856" lon="20.9579589"><ele>887.3333333333333</ele><time>2026-04-27T11:08:47.17Z</time></trkpt><trkpt lat="39.6714413" lon="20.9580416"><ele>889.1666666666666</ele><time>2026-04-27T11:08:49.17Z</time></trkpt><trkpt lat="39.6714982" lon="20.9581224"><ele>891.0</ele><time>2026-04-27T11:08:51.171Z</time></trkpt><trkpt lat="39.671557" lon="20.9581796"><ele>891.0</ele><time>2026-04-27T11:08:53.171Z</time></trkpt><trkpt lat="39.6716357" lon="20.9582165"><ele>891.0</ele><time>2026-04-27T11:08:57.171Z</time></trkpt><trkpt lat="39.6717044" lon="20.9582451"><ele>891.0</ele><time>2026-04-27T11:08:59.171Z</time></trkpt><trkpt lat="39.6717823" lon="20.9583258"><ele>891.0</ele><time>2026-04-27T11:09:01.171Z</time></trkpt><trkpt lat="39.6718827" lon="20.95838"><ele>891.0</ele><time>2026-04-27T11:09:03.171Z</time></trkpt><trkpt lat="39.6719446" lon="20.9584037"><ele>891.0</ele><time>2026-04-27T11:09:04.171Z</time></trkpt><trkpt lat="39.6720082" lon="20.9584258"><ele>892.6666666666666</ele><time>2026-04-27T11:09:05.17Z</time></trkpt><trkpt lat="39.6720702" lon="20.9584611"><ele>894.3333333333333</ele><time>2026-04-27T11:09:06.171Z</time></trkpt><trkpt lat="39.6721326" lon="20.9584919"><ele>896.0</ele><time>2026-04-27T11:09:07.171Z</time></trkpt><trkpt lat="39.6721933" lon="20.958517"><ele>897.6666666666666</ele><time>2026-04-27T11:09:08.17Z</time></trkpt><trkpt lat="39.6722552" lon="20.9585434"><ele>899.3333333333333</ele><time>2026-04-27T11:09:09.17Z</time></trkpt><trkpt lat="39.6723807" lon="20.9585669"><ele>901.0</ele><time>2026-04-27T11:09:11.171Z</time></trkpt><trkpt lat="39.6724924" lon="20.9585562"><ele>901.0</ele><time>2026-04-27T11:09:13.17Z</time></trkpt><trkpt lat="39.6726019" lon="20.9585304"><ele>901.0</ele><time>2026-04-27T11:09:15.171Z</time></trkpt><trkpt lat="39.6727108" lon="20.9585301"><ele>901.0</ele><time>2026-04-27T11:09:17.17Z</time></trkpt><trkpt lat="39.6728247" lon="20.958572"><ele>901.0</ele><time>2026-04-27T11:09:19.17Z</time></trkpt><trkpt lat="39.6729393" lon="20.9586047"><ele>903.5999999999999</ele><time>2026-04-27T11:09:21.171Z</time></trkpt><trkpt lat="39.6729996" lon="20.9586315"><ele>906.1999999999999</ele><time>2026-04-27T11:09:22.171Z</time></trkpt><trkpt lat="39.6731139" lon="20.9587079"><ele>908.8000000000001</ele><time>2026-04-27T11:09:24.17Z</time></trkpt><trkpt lat="39.6732304" lon="20.9587793"><ele>911.4000000000001</ele><time>2026-04-27T11:09:26.171Z</time></trkpt><trkpt lat="39.6732916" lon="20.9588114"><ele>914.0</ele><time>2026-04-27T11:09:27.171Z</time></trkpt><trkpt lat="39.6733512" lon="20.9588443"><ele>914.0</ele><time>2026-04-27T11:09:28.171Z</time></trkpt><trkpt lat="39.6734662" lon="20.9589143"><ele>914.0</ele><time>2026-04-27T11:09:30.171Z</time></trkpt><trkpt lat="39.6735573" lon="20.9590108"><ele>914.0</ele><time>2026-04-27T11:09:32.171Z</time></trkpt><trkpt lat="39.6736249" lon="20.9591268"><ele>914.0</ele><time>2026-04-27T11:09:34.17Z</time></trkpt><trkpt lat="39.6737088" lon="20.9591875"><ele>916.3333333333334</ele><time>2026-04-27T11:09:36.17Z</time></trkpt><trkpt lat="39.6738477" lon="20.9592007"><ele>918.6666666666667</ele><time>2026-04-27T11:09:38.171Z</time></trkpt><trkpt lat="39.6739179" lon="20.9592103"><ele>921.0</ele><time>2026-04-27T11:09:39.17Z</time></trkpt><trkpt lat="39.6740037" lon="20.9592118"><ele>923.3333333333333</ele><time>2026-04-27T11:09:40.171Z</time></trkpt><trkpt lat="39.6740785" lon="20.9592201"><ele>925.6666666666666</ele><time>2026-04-27T11:09:41.171Z</time></trkpt><trkpt lat="39.6741428" lon="20.9592353"><ele>928.0</ele><time>2026-04-27T11:09:42.17Z</time></trkpt><trkpt lat="39.6742124" lon="20.95925"><ele>928.0</ele><time>2026-04-27T11:09:43.171Z</time></trkpt><trkpt lat="39.6742786" lon="20.9592825"><ele>928.0</ele><time>2026-04-27T11:09:44.17Z</time></trkpt><trkpt lat="39.6743399" lon="20.9593071"><ele>928.0</ele><time>2026-04-27T11:09:45.171Z</time></trkpt><trkpt lat="39.6744039" lon="20.9593384"><ele>928.0</ele><time>2026-04-27T11:09:46.17Z</time></trkpt><trkpt lat="39.6744935" lon="20.959452"><ele>928.0</ele><time>2026-04-27T11:09:48.17Z</time></trkpt><trkpt lat="39.6745909" lon="20.9595464"><ele>927.3333333333333</ele><time>2026-04-27T11:09:50.17Z</time></trkpt><trkpt lat="39.6746447" lon="20.9595999"><ele>926.6666666666666</ele><time>2026-04-27T11:09:51.171Z</time></trkpt><trkpt lat="39.6747023" lon="20.9596427"><ele>926.0</ele><time>2026-04-27T11:09:52.17Z</time></trkpt><trkpt lat="39.6747635" lon="20.9596793"><ele>925.3333333333333</ele><time>2026-04-27T11:09:53.17Z</time></trkpt><trkpt lat="39.6748623" lon="20.9597424"><ele>924.6666666666666</ele><time>2026-04-27T11:09:55.17Z</time></trkpt><trkpt lat="39.6749606" lon="20.9598111"><ele>924.0</ele><time>2026-04-27T11:09:57.17Z</time></trkpt><trkpt lat="39.6750412" lon="20.9598666"><ele>924.0</ele><time>2026-04-27T11:09:59.171Z</time></trkpt><trkpt lat="39.6751008" lon="20.9598981"><ele>924.0</ele><time>2026-04-27T11:10:01.17Z</time></trkpt><trkpt lat="39.6751644" lon="20.9599269"><ele>924.0</ele><time>2026-04-27T11:10:40.171Z</time></trkpt><trkpt lat="39.675228" lon="20.9599292"><ele>924.0</ele><time>2026-04-27T11:10:41.17Z</time></trkpt><trkpt lat="39.6752889" lon="20.9599567"><ele>924.0</ele><time>2026-04-27T11:10:42.17Z</time></trkpt><trkpt lat="39.6753644" lon="20.9599799"><ele>924.0</ele><time>2026-04-27T11:10:44.171Z</time></trkpt><trkpt lat="39.6754124" lon="20.9600473"><ele>924.0</ele><time>2026-04-27T11:11:19.17Z</time></trkpt><trkpt lat="39.6754439" lon="20.9601249"><ele>925.1666666666666</ele><time>2026-04-27T11:11:21.17Z</time></trkpt><trkpt lat="39.6754784" lon="20.9602111"><ele>926.3333333333333</ele><time>2026-04-27T11:11:23.17Z</time></trkpt><trkpt lat="39.6755165" lon="20.9603093"><ele>927.5</ele><time>2026-04-27T11:11:25.17Z</time></trkpt><trkpt lat="39.6755523" lon="20.9604518"><ele>928.6666666666666</ele><time>2026-04-27T11:11:27.17Z</time></trkpt><trkpt lat="39.6755722" lon="20.9605422"><ele>929.8333333333333</ele><time>2026-04-27T11:11:28.171Z</time></trkpt><trkpt lat="39.675588" lon="20.960638"><ele>931.0</ele><time>2026-04-27T11:11:29.17Z</time></trkpt><trkpt lat="39.6755968" lon="20.9607316"><ele>931.0</ele><time>2026-04-27T11:11:30.171Z</time></trkpt><trkpt lat="39.6755998" lon="20.9608409"><ele>931.0</ele><time>2026-04-27T11:11:31.17Z</time></trkpt><trkpt lat="39.6755864" lon="20.9609891"><ele>931.0</ele><time>2026-04-27T11:11:32.171Z</time></trkpt><trkpt lat="39.6755753" lon="20.9611563"><ele>931.0</ele><time>2026-04-27T11:11:33.17Z</time></trkpt><trkpt lat="39.6755557" lon="20.9613359"><ele>930.75</ele><time>2026-04-27T11:11:34.17Z</time></trkpt><trkpt lat="39.6755384" lon="20.9615158"><ele>930.5</ele><time>2026-04-27T11:11:35.17Z</time></trkpt><trkpt lat="39.6755272" lon="20.9616929"><ele>930.25</ele><time>2026-04-27T11:11:36.17Z</time></trkpt><trkpt lat="39.6755131" lon="20.9618649"><ele>930.0</ele><time>2026-04-27T11:11:37.17Z</time></trkpt><trkpt lat="39.675513" lon="20.9620299"><ele>927.5</ele><time>2026-04-27T11:11:38.17Z</time></trkpt><trkpt lat="39.675532" lon="20.9621957"><ele>925.0</ele><time>2026-04-27T11:11:39.17Z</time></trkpt><trkpt lat="39.6755724" lon="20.9623607"><ele>922.5</ele><time>2026-04-27T11:11:40.17Z</time></trkpt><trkpt lat="39.6756316" lon="20.9625164"><ele>920.0</ele><time>2026-04-27T11:11:41.171Z</time></trkpt><trkpt lat="39.6757065" lon="20.9626578"><ele>917.25</ele><time>2026-04-27T11:11:42.171Z</time></trkpt><trkpt lat="39.6758013" lon="20.9627754"><ele>914.5</ele><time>2026-04-27T11:11:43.17Z</time></trkpt><trkpt lat="39.675917" lon="20.9628591"><ele>911.75</ele><time>2026-04-27T11:11:44.171Z</time></trkpt><trkpt lat="39.6760453" lon="20.9629084"><ele>909.0</ele><time>2026-04-27T11:11:45.171Z</time></trkpt><trkpt lat="39.6761848" lon="20.9629193"><ele>908.3333333333333</ele><time>2026-04-27T11:11:46.17Z</time></trkpt><trkpt lat="39.6763377" lon="20.9628965"><ele>907.6666666666666</ele><time>2026-04-27T11:11:47.171Z</time></trkpt><trkpt lat="39.6764998" lon="20.9628391"><ele>907.0</ele><time>2026-04-27T11:11:48.171Z</time></trkpt><trkpt lat="39.6766657" lon="20.9627575"><ele>907.0</ele><time>2026-04-27T11:11:49.171Z</time></trkpt><trkpt lat="39.6768308" lon="20.9626596"><ele>907.0</ele><time>2026-04-27T11:11:50.171Z</time></trkpt><trkpt lat="39.6769996" lon="20.9625598"><ele>907.0</ele><time>2026-04-27T11:11:51.171Z</time></trkpt><trkpt lat="39.6771695" lon="20.9624594"><ele>907.0</ele><time>2026-04-27T11:11:52.171Z</time></trkpt><trkpt lat="39.6773481" lon="20.9623602"><ele>907.0</ele><time>2026-04-27T11:11:53.171Z</time></trkpt><trkpt lat="39.6775124" lon="20.9622487"><ele>907.0</ele><time>2026-04-27T11:11:54.171Z</time></trkpt><trkpt lat="39.6776591" lon="20.9621224"><ele>905.6666666666666</ele><time>2026-04-27T11:11:55.17Z</time></trkpt><trkpt lat="39.677784" lon="20.9619759"><ele>904.3333333333333</ele><time>2026-04-27T11:11:56.171Z</time></trkpt><trkpt lat="39.6778939" lon="20.9618242"><ele>903.0</ele><time>2026-04-27T11:11:57.17Z</time></trkpt><trkpt lat="39.6780001" lon="20.9616807"><ele>903.0</ele><time>2026-04-27T11:11:58.171Z</time></trkpt><trkpt lat="39.6781115" lon="20.9615545"><ele>903.0</ele><time>2026-04-27T11:11:59.17Z</time></trkpt><trkpt lat="39.6782366" lon="20.9614499"><ele>903.0</ele><time>2026-04-27T11:12:00.17Z</time></trkpt><trkpt lat="39.6783683" lon="20.9613858"><ele>903.0</ele><time>2026-04-27T11:12:01.17Z</time></trkpt><trkpt lat="39.6785019" lon="20.9613683"><ele>904.5</ele><time>2026-04-27T11:12:02.171Z</time></trkpt><trkpt lat="39.6786397" lon="20.9613841"><ele>906.0</ele><time>2026-04-27T11:12:03.171Z</time></trkpt><trkpt lat="39.678771" lon="20.9614655"><ele>907.5</ele><time>2026-04-27T11:12:04.17Z</time></trkpt><trkpt lat="39.6789003" lon="20.9615784"><ele>909.0</ele><time>2026-04-27T11:12:05.171Z</time></trkpt><trkpt lat="39.6790227" lon="20.9617258"><ele>903.3333333333333</ele><time>2026-04-27T11:12:06.17Z</time></trkpt><trkpt lat="39.6791434" lon="20.9618897"><ele>897.6666666666666</ele><time>2026-04-27T11:12:07.17Z</time></trkpt><trkpt lat="39.6792585" lon="20.9620551"><ele>892.0</ele><time>2026-04-27T11:12:08.171Z</time></trkpt><trkpt lat="39.679371" lon="20.9622244"><ele>893.3333333333333</ele><time>2026-04-27T11:12:09.171Z</time></trkpt><trkpt lat="39.6794815" lon="20.9623991"><ele>894.6666666666667</ele><time>2026-04-27T11:12:10.17Z</time></trkpt><trkpt lat="39.6795941" lon="20.9625713"><ele>896.0</ele><time>2026-04-27T11:12:11.17Z</time></trkpt><trkpt lat="39.6797103" lon="20.9627398"><ele>896.0</ele><time>2026-04-27T11:12:12.17Z</time></trkpt><trkpt lat="39.6798268" lon="20.9629091"><ele>896.0</ele><time>2026-04-27T11:12:13.17Z</time></trkpt><trkpt lat="39.6799421" lon="20.9630831"><ele>896.0</ele><time>2026-04-27T11:12:14.17Z</time></trkpt><trkpt lat="39.6800554" lon="20.9632598"><ele>891.6666666666667</ele><time>2026-04-27T11:12:15.17Z</time></trkpt><trkpt lat="39.6801626" lon="20.9634456"><ele>887.3333333333333</ele><time>2026-04-27T11:12:16.17Z</time></trkpt><trkpt lat="39.6802636" lon="20.9636385"><ele>883.0</ele><time>2026-04-27T11:12:17.171Z</time></trkpt><trkpt lat="39.6803504" lon="20.9638497"><ele>890.3333333333333</ele><time>2026-04-27T11:12:18.171Z</time></trkpt><trkpt lat="39.6804146" lon="20.9640734"><ele>897.6666666666667</ele><time>2026-04-27T11:12:19.171Z</time></trkpt><trkpt lat="39.6804616" lon="20.9643098"><ele>905.0</ele><time>2026-04-27T11:12:20.17Z</time></trkpt><trkpt lat="39.6805044" lon="20.9645513"><ele>905.0</ele><time>2026-04-27T11:12:21.17Z</time></trkpt><trkpt lat="39.6805297" lon="20.9647925"><ele>905.0</ele><time>2026-04-27T11:12:22.171Z</time></trkpt><trkpt lat="39.6805337" lon="20.9650341"><ele>905.0</ele><time>2026-04-27T11:12:23.17Z</time></trkpt><trkpt lat="39.6805147" lon="20.965265"><ele>903.3333333333334</ele><time>2026-04-27T11:12:24.171Z</time></trkpt><trkpt lat="39.68048" lon="20.9654856"><ele>901.6666666666667</ele><time>2026-04-27T11:12:25.17Z</time></trkpt><trkpt lat="39.6804441" lon="20.9656943"><ele>900.0</ele><time>2026-04-27T11:12:26.171Z</time></trkpt><trkpt lat="39.6804092" lon="20.9658895"><ele>895.0</ele><time>2026-04-27T11:12:27.171Z</time></trkpt><trkpt lat="39.6803834" lon="20.9660763"><ele>890.0</ele><time>2026-04-27T11:12:28.171Z</time></trkpt><trkpt lat="39.6803789" lon="20.966259"><ele>885.0</ele><time>2026-04-27T11:12:29.17Z</time></trkpt><trkpt lat="39.6804038" lon="20.9664338"><ele>880.0</ele><time>2026-04-27T11:12:30.17Z</time></trkpt><trkpt lat="39.6804602" lon="20.9665999"><ele>874.5</ele><time>2026-04-27T11:12:31.171Z</time></trkpt><trkpt lat="39.6805465" lon="20.9667385"><ele>869.0</ele><time>2026-04-27T11:12:32.171Z</time></trkpt><trkpt lat="39.6806628" lon="20.9668361"><ele>863.5</ele><time>2026-04-27T11:12:33.17Z</time></trkpt><trkpt lat="39.6807993" lon="20.9668937"><ele>858.0</ele><time>2026-04-27T11:12:34.17Z</time></trkpt><trkpt lat="39.6809534" lon="20.9669142"><ele>854.6666666666667</ele><time>2026-04-27T11:12:35.171Z</time></trkpt><trkpt lat="39.68112" lon="20.9669082"><ele>851.3333333333334</ele><time>2026-04-27T11:12:36.171Z</time></trkpt><trkpt lat="39.681294" lon="20.9668844"><ele>848.0</ele><time>2026-04-27T11:12:37.171Z</time></trkpt><trkpt lat="39.681462" lon="20.9668422"><ele>848.0</ele><time>2026-04-27T11:12:38.171Z</time></trkpt><trkpt lat="39.6816245" lon="20.9667875"><ele>848.0</ele><time>2026-04-27T11:12:39.171Z</time></trkpt><trkpt lat="39.6817814" lon="20.9667274"><ele>848.0</ele><time>2026-04-27T11:12:40.171Z</time></trkpt><trkpt lat="39.6819342" lon="20.9666689"><ele>854.3333333333334</ele><time>2026-04-27T11:12:41.171Z</time></trkpt><trkpt lat="39.6820887" lon="20.9666329"><ele>860.6666666666667</ele><time>2026-04-27T11:12:42.171Z</time></trkpt><trkpt lat="39.6822502" lon="20.9666239"><ele>867.0</ele><time>2026-04-27T11:12:43.17Z</time></trkpt><trkpt lat="39.6824072" lon="20.966618"><ele>867.0</ele><time>2026-04-27T11:12:44.171Z</time></trkpt><trkpt lat="39.6825458" lon="20.9666078"><ele>867.0</ele><time>2026-04-27T11:12:45.171Z</time></trkpt><trkpt lat="39.6826727" lon="20.9665767"><ele>867.0</ele><time>2026-04-27T11:12:46.171Z</time></trkpt><trkpt lat="39.6827895" lon="20.9665075"><ele>867.0</ele><time>2026-04-27T11:12:47.17Z</time></trkpt><trkpt lat="39.6828876" lon="20.9664082"><ele>863.5</ele><time>2026-04-27T11:12:48.17Z</time></trkpt><trkpt lat="39.6829577" lon="20.9662763"><ele>860.0</ele><time>2026-04-27T11:12:49.171Z</time></trkpt><trkpt lat="39.6830027" lon="20.9661182"><ele>856.5</ele><time>2026-04-27T11:12:50.17Z</time></trkpt><trkpt lat="39.6830172" lon="20.9659445"><ele>853.0</ele><time>2026-04-27T11:12:51.17Z</time></trkpt><trkpt lat="39.6830021" lon="20.9657589"><ele>849.6666666666666</ele><time>2026-04-27T11:12:52.168Z</time></trkpt><trkpt lat="39.6829642" lon="20.9655652"><ele>846.3333333333333</ele><time>2026-04-27T11:12:53.17Z</time></trkpt><trkpt lat="39.6829159" lon="20.9653714"><ele>843.0</ele><time>2026-04-27T11:12:54.17Z</time></trkpt><trkpt lat="39.6828693" lon="20.9651711"><ele>840.3333333333333</ele><time>2026-04-27T11:12:55.17Z</time></trkpt><trkpt lat="39.6828226" lon="20.9649699"><ele>837.6666666666666</ele><time>2026-04-27T11:12:56.171Z</time></trkpt><trkpt lat="39.6827783" lon="20.9647644"><ele>835.0</ele><time>2026-04-27T11:12:57.17Z</time></trkpt><trkpt lat="39.6827492" lon="20.9645488"><ele>848.0</ele><time>2026-04-27T11:12:58.171Z</time></trkpt><trkpt lat="39.6827383" lon="20.9643266"><ele>861.0</ele><time>2026-04-27T11:12:59.17Z</time></trkpt><trkpt lat="39.6827483" lon="20.9640975"><ele>874.0</ele><time>2026-04-27T11:13:00.17Z</time></trkpt><trkpt lat="39.6827639" lon="20.9638677"><ele>861.0</ele><time>2026-04-27T11:13:01.171Z</time></trkpt><trkpt lat="39.6827911" lon="20.9636441"><ele>848.0</ele><time>2026-04-27T11:13:02.171Z</time></trkpt><trkpt lat="39.6828337" lon="20.9634314"><ele>835.0</ele><time>2026-04-27T11:13:03.17Z</time></trkpt><trkpt lat="39.682891" lon="20.9632275"><ele>835.0</ele><time>2026-04-27T11:13:04.171Z</time></trkpt><trkpt lat="39.6829576" lon="20.9630314"><ele>835.0</ele><time>2026-04-27T11:13:05.17Z</time></trkpt><trkpt lat="39.6830277" lon="20.9628444"><ele>835.0</ele><time>2026-04-27T11:13:06.171Z</time></trkpt><trkpt lat="39.6830852" lon="20.9626578"><ele>834.3333333333333</ele><time>2026-04-27T11:13:07.17Z</time></trkpt><trkpt lat="39.6831116" lon="20.9624578"><ele>833.6666666666667</ele><time>2026-04-27T11:13:08.17Z</time></trkpt><trkpt lat="39.6831064" lon="20.9622506"><ele>833.0</ele><time>2026-04-27T11:13:09.17Z</time></trkpt><trkpt lat="39.6830688" lon="20.9620463"><ele>833.0</ele><time>2026-04-27T11:13:10.17Z</time></trkpt><trkpt lat="39.68301" lon="20.9618392"><ele>833.0</ele><time>2026-04-27T11:13:11.17Z</time></trkpt><trkpt lat="39.6829419" lon="20.9616294"><ele>833.0</ele><time>2026-04-27T11:13:12.17Z</time></trkpt><trkpt lat="39.6828744" lon="20.961417"><ele>830.6666666666667</ele><time>2026-04-27T11:13:13.171Z</time></trkpt><trkpt lat="39.6828059" lon="20.9612134"><ele>828.3333333333333</ele><time>2026-04-27T11:13:14.171Z</time></trkpt><trkpt lat="39.6827392" lon="20.9610138"><ele>826.0</ele><time>2026-04-27T11:13:15.17Z</time></trkpt><trkpt lat="39.6826881" lon="20.9608265"><ele>833.5</ele><time>2026-04-27T11:13:16.17Z</time></trkpt><trkpt lat="39.6826601" lon="20.9606449"><ele>841.0</ele><time>2026-04-27T11:13:17.171Z</time></trkpt><trkpt lat="39.6826619" lon="20.9604622"><ele>848.5</ele><time>2026-04-27T11:13:18.171Z</time></trkpt><trkpt lat="39.6826849" lon="20.9602833"><ele>856.0</ele><time>2026-04-27T11:13:19.171Z</time></trkpt><trkpt lat="39.682736" lon="20.9601266"><ele>851.0</ele><time>2026-04-27T11:13:20.17Z</time></trkpt><trkpt lat="39.6828165" lon="20.9600173"><ele>846.0</ele><time>2026-04-27T11:13:21.17Z</time></trkpt><trkpt lat="39.6829252" lon="20.9599412"><ele>841.0</ele><time>2026-04-27T11:13:22.17Z</time></trkpt><trkpt lat="39.6830497" lon="20.9599035"><ele>836.0</ele><time>2026-04-27T11:13:23.17Z</time></trkpt><trkpt lat="39.6831859" lon="20.959905"><ele>836.0</ele><time>2026-04-27T11:13:24.17Z</time></trkpt><trkpt lat="39.6833236" lon="20.9599566"><ele>836.0</ele><time>2026-04-27T11:13:25.17Z</time></trkpt><trkpt lat="39.6834515" lon="20.9600226"><ele>836.0</ele><time>2026-04-27T11:13:26.171Z</time></trkpt><trkpt lat="39.6835846" lon="20.9601569"><ele>836.0</ele><time>2026-04-27T11:13:27.171Z</time></trkpt><trkpt lat="39.6837157" lon="20.9602868"><ele>836.3333333333334</ele><time>2026-04-27T11:13:28.17Z</time></trkpt><trkpt lat="39.6838539" lon="20.9604302"><ele>836.6666666666667</ele><time>2026-04-27T11:13:29.171Z</time></trkpt><trkpt lat="39.6839971" lon="20.9605675"><ele>837.0</ele><time>2026-04-27T11:13:30.171Z</time></trkpt><trkpt lat="39.6841159" lon="20.9607054"><ele>837.0</ele><time>2026-04-27T11:13:31.171Z</time></trkpt><trkpt lat="39.6842241" lon="20.9608507"><ele>837.0</ele><time>2026-04-27T11:13:32.171Z</time></trkpt><trkpt lat="39.6843098" lon="20.9610201"><ele>837.0</ele><time>2026-04-27T11:13:33.17Z</time></trkpt><trkpt lat="39.684371" lon="20.9612058"><ele>837.25</ele><time>2026-04-27T11:13:34.171Z</time></trkpt><trkpt lat="39.6844132" lon="20.9613942"><ele>837.5</ele><time>2026-04-27T11:13:35.171Z</time></trkpt><trkpt lat="39.6844516" lon="20.9615832"><ele>837.75</ele><time>2026-04-27T11:13:36.17Z</time></trkpt><trkpt lat="39.684507" lon="20.961756"><ele>838.0</ele><time>2026-04-27T11:13:37.17Z</time></trkpt><trkpt lat="39.6845834" lon="20.9619192"><ele>838.0</ele><time>2026-04-27T11:13:38.17Z</time></trkpt><trkpt lat="39.6846775" lon="20.9620581"><ele>838.0</ele><time>2026-04-27T11:13:39.17Z</time></trkpt><trkpt lat="39.6847855" lon="20.9621905"><ele>838.0</ele><time>2026-04-27T11:13:40.17Z</time></trkpt><trkpt lat="39.6848854" lon="20.9623421"><ele>838.0</ele><time>2026-04-27T11:13:41.17Z</time></trkpt><trkpt lat="39.6849665" lon="20.9625294"><ele>833.0</ele><time>2026-04-27T11:13:42.171Z</time></trkpt><trkpt lat="39.6850349" lon="20.9627431"><ele>828.0</ele><time>2026-04-27T11:13:43.17Z</time></trkpt><trkpt lat="39.6850922" lon="20.9629751"><ele>823.0</ele><time>2026-04-27T11:13:44.171Z</time></trkpt><trkpt lat="39.6851455" lon="20.9632146"><ele>818.0</ele><time>2026-04-27T11:13:45.17Z</time></trkpt><trkpt lat="39.6851846" lon="20.963464"><ele>813.0</ele><time>2026-04-27T11:13:46.171Z</time></trkpt><trkpt lat="39.6852224" lon="20.9637112"><ele>808.0</ele><time>2026-04-27T11:13:47.17Z</time></trkpt><trkpt lat="39.6852593" lon="20.9639506"><ele>811.3333333333333</ele><time>2026-04-27T11:13:48.171Z</time></trkpt><trkpt lat="39.6853027" lon="20.9641779"><ele>814.6666666666667</ele><time>2026-04-27T11:13:49.171Z</time></trkpt><trkpt lat="39.6853548" lon="20.9643872"><ele>818.0</ele><time>2026-04-27T11:13:50.17Z</time></trkpt><trkpt lat="39.6854284" lon="20.9645733"><ele>818.0</ele><time>2026-04-27T11:13:51.17Z</time></trkpt><trkpt lat="39.6855289" lon="20.9647379"><ele>818.0</ele><time>2026-04-27T11:13:52.17Z</time></trkpt><trkpt lat="39.6856557" lon="20.9648788"><ele>818.0</ele><time>2026-04-27T11:13:53.17Z</time></trkpt><trkpt lat="39.6858045" lon="20.9649881"><ele>812.0</ele><time>2026-04-27T11:13:54.17Z</time></trkpt><trkpt lat="39.6859677" lon="20.9650789"><ele>806.0</ele><time>2026-04-27T11:13:55.171Z</time></trkpt><trkpt lat="39.6861374" lon="20.9651626"><ele>800.0</ele><time>2026-04-27T11:13:56.17Z</time></trkpt><trkpt lat="39.6863097" lon="20.9652444"><ele>800.0</ele><time>2026-04-27T11:13:57.171Z</time></trkpt><trkpt lat="39.6864834" lon="20.965327"><ele>800.0</ele><time>2026-04-27T11:13:58.171Z</time></trkpt><trkpt lat="39.6866537" lon="20.9654087"><ele>800.0</ele><time>2026-04-27T11:13:59.17Z</time></trkpt><trkpt lat="39.6868192" lon="20.9654867"><ele>801.3333333333334</ele><time>2026-04-27T11:14:00.171Z</time></trkpt><trkpt lat="39.6869817" lon="20.9655525"><ele>802.6666666666667</ele><time>2026-04-27T11:14:01.17Z</time></trkpt><trkpt lat="39.6871467" lon="20.9655925"><ele>804.0</ele><time>2026-04-27T11:14:02.171Z</time></trkpt><trkpt lat="39.6873128" lon="20.9656022"><ele>804.0</ele><time>2026-04-27T11:14:03.171Z</time></trkpt><trkpt lat="39.6874713" lon="20.9655852"><ele>804.0</ele><time>2026-04-27T11:14:04.171Z</time></trkpt><trkpt lat="39.6876204" lon="20.965544"><ele>804.0</ele><time>2026-04-27T11:14:05.171Z</time></trkpt><trkpt lat="39.6877556" lon="20.9654677"><ele>799.25</ele><time>2026-04-27T11:14:06.17Z</time></trkpt><trkpt lat="39.6878697" lon="20.9653526"><ele>794.5</ele><time>2026-04-27T11:14:07.17Z</time></trkpt><trkpt lat="39.6879575" lon="20.9652072"><ele>789.75</ele><time>2026-04-27T11:14:08.17Z</time></trkpt><trkpt lat="39.6880116" lon="20.9650382"><ele>785.0</ele><time>2026-04-27T11:14:09.17Z</time></trkpt><trkpt lat="39.6880412" lon="20.9648479"><ele>785.0</ele><time>2026-04-27T11:14:10.171Z</time></trkpt><trkpt lat="39.6880593" lon="20.9646538"><ele>785.0</ele><time>2026-04-27T11:14:11.17Z</time></trkpt><trkpt lat="39.688078" lon="20.9644669"><ele>785.0</ele><time>2026-04-27T11:14:12.17Z</time></trkpt><trkpt lat="39.6881065" lon="20.9642881"><ele>785.0</ele><time>2026-04-27T11:14:13.17Z</time></trkpt><trkpt lat="39.6881562" lon="20.9641209"><ele>785.0</ele><time>2026-04-27T11:14:14.17Z</time></trkpt><trkpt lat="39.6882291" lon="20.9639738"><ele>785.0</ele><time>2026-04-27T11:14:15.171Z</time></trkpt><trkpt lat="39.688328" lon="20.9638589"><ele>785.0</ele><time>2026-04-27T11:14:16.17Z</time></trkpt><trkpt lat="39.688441" lon="20.9637557"><ele>785.0</ele><time>2026-04-27T11:14:17.17Z</time></trkpt><trkpt lat="39.6885608" lon="20.9636621"><ele>783.6666666666667</ele><time>2026-04-27T11:14:18.17Z</time></trkpt><trkpt lat="39.6887383" lon="20.9637706"><ele>782.3333333333333</ele><time>2026-04-27T11:14:19.17Z</time></trkpt><trkpt lat="39.6888766" lon="20.9638441"><ele>781.0</ele><time>2026-04-27T11:14:20.171Z</time></trkpt><trkpt lat="39.6890149" lon="20.9639402"><ele>781.0</ele><time>2026-04-27T11:14:21.17Z</time></trkpt><trkpt lat="39.6891566" lon="20.9640291"><ele>781.0</ele><time>2026-04-27T11:14:22.171Z</time></trkpt><trkpt lat="39.6893012" lon="20.9640837"><ele>781.0</ele><time>2026-04-27T11:14:23.17Z</time></trkpt><trkpt lat="39.6894503" lon="20.9640993"><ele>780.6666666666666</ele><time>2026-04-27T11:14:24.17Z</time></trkpt><trkpt lat="39.6896032" lon="20.9640604"><ele>780.3333333333333</ele><time>2026-04-27T11:14:25.171Z</time></trkpt><trkpt lat="39.6897536" lon="20.9639873"><ele>780.0</ele><time>2026-04-27T11:14:26.17Z</time></trkpt><trkpt lat="39.6898954" lon="20.9638877"><ele>780.0</ele><time>2026-04-27T11:14:27.171Z</time></trkpt><trkpt lat="39.6900371" lon="20.9637779"><ele>780.0</ele><time>2026-04-27T11:14:28.17Z</time></trkpt><trkpt lat="39.6901823" lon="20.9636937"><ele>780.0</ele><time>2026-04-27T11:14:29.17Z</time></trkpt><trkpt lat="39.69034" lon="20.9636407"><ele>775.6666666666666</ele><time>2026-04-27T11:14:30.171Z</time></trkpt><trkpt lat="39.6905054" lon="20.9636118"><ele>771.3333333333333</ele><time>2026-04-27T11:14:31.171Z</time></trkpt><trkpt lat="39.6906759" lon="20.963608"><ele>767.0</ele><time>2026-04-27T11:14:32.17Z</time></trkpt><trkpt lat="39.6908357" lon="20.963623"><ele>767.0</ele><time>2026-04-27T11:14:33.171Z</time></trkpt><trkpt lat="39.6909826" lon="20.9636469"><ele>767.0</ele><time>2026-04-27T11:14:34.17Z</time></trkpt><trkpt lat="39.6911102" lon="20.9636903"><ele>767.0</ele><time>2026-04-27T11:14:35.171Z</time></trkpt><trkpt lat="39.6912167" lon="20.9637731"><ele>767.0</ele><time>2026-04-27T11:14:36.17Z</time></trkpt><trkpt lat="39.6912971" lon="20.9639168"><ele>770.5</ele><time>2026-04-27T11:14:37.171Z</time></trkpt><trkpt lat="39.6913585" lon="20.9640635"><ele>774.0</ele><time>2026-04-27T11:14:38.17Z</time></trkpt><trkpt lat="39.691351" lon="20.9642546"><ele>777.5</ele><time>2026-04-27T11:14:39.171Z</time></trkpt><trkpt lat="39.6913269" lon="20.9644425"><ele>781.0</ele><time>2026-04-27T11:14:40.17Z</time></trkpt><trkpt lat="39.6912694" lon="20.9646039"><ele>777.3333333333333</ele><time>2026-04-27T11:14:41.17Z</time></trkpt><trkpt lat="39.691102" lon="20.9647191"><ele>773.6666666666667</ele><time>2026-04-27T11:14:42.17Z</time></trkpt><trkpt lat="39.6909813" lon="20.9648369"><ele>770.0</ele><time>2026-04-27T11:14:43.171Z</time></trkpt><trkpt lat="39.690864" lon="20.9649587"><ele>773.75</ele><time>2026-04-27T11:14:44.171Z</time></trkpt><trkpt lat="39.690774" lon="20.9651101"><ele>777.5</ele><time>2026-04-27T11:14:45.17Z</time></trkpt><trkpt lat="39.6906992" lon="20.9652805"><ele>781.25</ele><time>2026-04-27T11:14:46.171Z</time></trkpt><trkpt lat="39.690641" lon="20.965461"><ele>785.0</ele><time>2026-04-27T11:14:47.17Z</time></trkpt><trkpt lat="39.6905948" lon="20.96566"><ele>784.0</ele><time>2026-04-27T11:14:48.171Z</time></trkpt><trkpt lat="39.6905672" lon="20.9658694"><ele>783.0</ele><time>2026-04-27T11:14:49.17Z</time></trkpt><trkpt lat="39.6905542" lon="20.966085"><ele>782.0</ele><time>2026-04-27T11:14:50.169Z</time></trkpt><trkpt lat="39.6905505" lon="20.9663049"><ele>782.0</ele><time>2026-04-27T11:14:51.17Z</time></trkpt><trkpt lat="39.6905504" lon="20.9665319"><ele>782.0</ele><time>2026-04-27T11:14:52.171Z</time></trkpt><trkpt lat="39.6905496" lon="20.9667609"><ele>782.0</ele><time>2026-04-27T11:14:53.171Z</time></trkpt><trkpt lat="39.690549" lon="20.9669935"><ele>780.6666666666667</ele><time>2026-04-27T11:14:54.17Z</time></trkpt><trkpt lat="39.6905519" lon="20.9672288"><ele>779.3333333333333</ele><time>2026-04-27T11:14:55.17Z</time></trkpt><trkpt lat="39.6905535" lon="20.9674617"><ele>778.0</ele><time>2026-04-27T11:14:56.171Z</time></trkpt><trkpt lat="39.6905501" lon="20.9676846"><ele>777.6666666666666</ele><time>2026-04-27T11:14:57.17Z</time></trkpt><trkpt lat="39.6905394" lon="20.9679038"><ele>777.3333333333333</ele><time>2026-04-27T11:14:58.171Z</time></trkpt><trkpt lat="39.690528" lon="20.9681238"><ele>777.0</ele><time>2026-04-27T11:14:59.17Z</time></trkpt><trkpt lat="39.6905119" lon="20.9683386"><ele>770.3333333333334</ele><time>2026-04-27T11:15:00.17Z</time></trkpt><trkpt lat="39.6905033" lon="20.9685486"><ele>763.6666666666667</ele><time>2026-04-27T11:15:01.169Z</time></trkpt><trkpt lat="39.6905127" lon="20.9687467"><ele>757.0</ele><time>2026-04-27T11:15:02.169Z</time></trkpt><trkpt lat="39.6905521" lon="20.9689315"><ele>757.0</ele><time>2026-04-27T11:15:03.171Z</time></trkpt><trkpt lat="39.6906211" lon="20.9690917"><ele>757.0</ele><time>2026-04-27T11:15:04.17Z</time></trkpt><trkpt lat="39.6907162" lon="20.9692216"><ele>757.0</ele><time>2026-04-27T11:15:05.171Z</time></trkpt><trkpt lat="39.6908392" lon="20.9693223"><ele>757.0</ele><time>2026-04-27T11:15:06.171Z</time></trkpt><trkpt lat="39.6909885" lon="20.9693949"><ele>747.6666666666667</ele><time>2026-04-27T11:15:07.17Z</time></trkpt><trkpt lat="39.691156" lon="20.9694464"><ele>738.3333333333334</ele><time>2026-04-27T11:15:08.171Z</time></trkpt><trkpt lat="39.6913319" lon="20.9694872"><ele>729.0</ele><time>2026-04-27T11:15:09.171Z</time></trkpt><trkpt lat="39.6915085" lon="20.9695042"><ele>729.0</ele><time>2026-04-27T11:15:10.171Z</time></trkpt><trkpt lat="39.6916842" lon="20.9694946"><ele>729.0</ele><time>2026-04-27T11:15:11.171Z</time></trkpt><trkpt lat="39.6918617" lon="20.9694477"><ele>729.0</ele><time>2026-04-27T11:15:12.171Z</time></trkpt><trkpt lat="39.6920289" lon="20.9693732"><ele>732.0</ele><time>2026-04-27T11:15:13.17Z</time></trkpt><trkpt lat="39.6921906" lon="20.9692621"><ele>735.0</ele><time>2026-04-27T11:15:14.17Z</time></trkpt><trkpt lat="39.692341" lon="20.9691166"><ele>738.0</ele><time>2026-04-27T11:15:15.17Z</time></trkpt><trkpt lat="39.6924841" lon="20.9689448"><ele>738.0</ele><time>2026-04-27T11:15:16.17Z</time></trkpt><trkpt lat="39.6926246" lon="20.9687607"><ele>738.0</ele><time>2026-04-27T11:15:17.171Z</time></trkpt><trkpt lat="39.6927587" lon="20.9685775"><ele>738.0</ele><time>2026-04-27T11:15:18.17Z</time></trkpt><trkpt lat="39.6928882" lon="20.9684041"><ele>735.0</ele><time>2026-04-27T11:15:19.171Z</time></trkpt><trkpt lat="39.6930168" lon="20.9682401"><ele>732.0</ele><time>2026-04-27T11:15:20.17Z</time></trkpt><trkpt lat="39.693146" lon="20.9680878"><ele>729.0</ele><time>2026-04-27T11:15:21.171Z</time></trkpt><trkpt lat="39.6932752" lon="20.9679714"><ele>729.0</ele><time>2026-04-27T11:15:22.17Z</time></trkpt><trkpt lat="39.6934184" lon="20.9679183"><ele>729.0</ele><time>2026-04-27T11:15:23.17Z</time></trkpt><trkpt lat="39.6935662" lon="20.9679037"><ele>729.0</ele><time>2026-04-27T11:15:24.171Z</time></trkpt><trkpt lat="39.6937158" lon="20.9679327"><ele>729.0</ele><time>2026-04-27T11:15:25.17Z</time></trkpt><trkpt lat="39.6938602" lon="20.968003"><ele>727.0</ele><time>2026-04-27T11:15:26.171Z</time></trkpt><trkpt lat="39.6939981" lon="20.9680648"><ele>725.0</ele><time>2026-04-27T11:15:27.171Z</time></trkpt><trkpt lat="39.6941428" lon="20.9680923"><ele>723.0</ele><time>2026-04-27T11:15:28.171Z</time></trkpt><trkpt lat="39.6942912" lon="20.9680878"><ele>721.0</ele><time>2026-04-27T11:15:29.17Z</time></trkpt><trkpt lat="39.6944278" lon="20.9680423"><ele>718.25</ele><time>2026-04-27T11:15:30.171Z</time></trkpt><trkpt lat="39.6945421" lon="20.9679469"><ele>715.5</ele><time>2026-04-27T11:15:31.17Z</time></trkpt><trkpt lat="39.6946371" lon="20.9678076"><ele>712.75</ele><time>2026-04-27T11:15:32.171Z</time></trkpt><trkpt lat="39.6947054" lon="20.9676303"><ele>710.0</ele><time>2026-04-27T11:15:33.171Z</time></trkpt><trkpt lat="39.694747" lon="20.9674396"><ele>710.0</ele><time>2026-04-27T11:15:34.171Z</time></trkpt><trkpt lat="39.6947806" lon="20.9672508"><ele>710.0</ele><time>2026-04-27T11:15:35.171Z</time></trkpt><trkpt lat="39.6948322" lon="20.9670629"><ele>710.0</ele><time>2026-04-27T11:15:36.171Z</time></trkpt><trkpt lat="39.694909" lon="20.9669001"><ele>710.0</ele><time>2026-04-27T11:15:37.171Z</time></trkpt><trkpt lat="39.6950065" lon="20.9667592"><ele>710.0</ele><time>2026-04-27T11:15:38.17Z</time></trkpt><trkpt lat="39.6951285" lon="20.9666964"><ele>710.0</ele><time>2026-04-27T11:15:39.17Z</time></trkpt><trkpt lat="39.6952665" lon="20.9666638"><ele>710.0</ele><time>2026-04-27T11:15:40.17Z</time></trkpt><trkpt lat="39.6954092" lon="20.9667103"><ele>707.6666666666666</ele><time>2026-04-27T11:15:41.17Z</time></trkpt><trkpt lat="39.6955514" lon="20.9667966"><ele>705.3333333333334</ele><time>2026-04-27T11:15:42.171Z</time></trkpt><trkpt lat="39.6956804" lon="20.9668957"><ele>703.0</ele><time>2026-04-27T11:15:43.17Z</time></trkpt><trkpt lat="39.6958105" lon="20.9669763"><ele>703.0</ele><time>2026-04-27T11:15:44.17Z</time></trkpt><trkpt lat="39.695948" lon="20.9670033"><ele>703.0</ele><time>2026-04-27T11:15:45.17Z</time></trkpt><trkpt lat="39.6960895" lon="20.9669802"><ele>703.0</ele><time>2026-04-27T11:15:46.17Z</time></trkpt><trkpt lat="39.6962277" lon="20.9669019"><ele>703.0</ele><time>2026-04-27T11:15:47.17Z</time></trkpt><trkpt lat="39.6963556" lon="20.9667782"><ele>703.3333333333334</ele><time>2026-04-27T11:15:48.17Z</time></trkpt><trkpt lat="39.6964738" lon="20.9666252"><ele>703.6666666666666</ele><time>2026-04-27T11:15:49.171Z</time></trkpt><trkpt lat="39.6966023" lon="20.9664825"><ele>704.0</ele><time>2026-04-27T11:15:50.17Z</time></trkpt><trkpt lat="39.6967558" lon="20.9663642"><ele>702.3333333333333</ele><time>2026-04-27T11:15:51.17Z</time></trkpt><trkpt lat="39.6969474" lon="20.9662634"><ele>700.6666666666666</ele><time>2026-04-27T11:15:52.171Z</time></trkpt><trkpt lat="39.697163" lon="20.9661855"><ele>699.0</ele><time>2026-04-27T11:15:53.17Z</time></trkpt><trkpt lat="39.6974019" lon="20.9661201"><ele>699.0</ele><time>2026-04-27T11:15:54.171Z</time></trkpt><trkpt lat="39.6976537" lon="20.9660553"><ele>699.0</ele><time>2026-04-27T11:15:55.171Z</time></trkpt><trkpt lat="39.6979012" lon="20.9659942"><ele>703.0</ele><time>2026-04-27T11:15:56.171Z</time></trkpt><trkpt lat="39.6981379" lon="20.9659329"><ele>707.0</ele><time>2026-04-27T11:15:57.17Z</time></trkpt><trkpt lat="39.69837" lon="20.9658739"><ele>704.0</ele><time>2026-04-27T11:15:58.171Z</time></trkpt><trkpt lat="39.6986004" lon="20.9658114"><ele>701.0</ele><time>2026-04-27T11:15:59.171Z</time></trkpt><trkpt lat="39.6988284" lon="20.9657494"><ele>701.0</ele><time>2026-04-27T11:16:00.171Z</time></trkpt><trkpt lat="39.6990577" lon="20.9656912"><ele>701.0</ele><time>2026-04-27T11:16:01.171Z</time></trkpt><trkpt lat="39.6992866" lon="20.9656366"><ele>701.0</ele><time>2026-04-27T11:16:02.171Z</time></trkpt><trkpt lat="39.6995133" lon="20.9655829"><ele>701.0</ele><time>2026-04-27T11:16:03.171Z</time></trkpt><trkpt lat="39.69973" lon="20.9655291"><ele>701.0</ele><time>2026-04-27T11:16:04.17Z</time></trkpt><trkpt lat="39.6999411" lon="20.9654773"><ele>701.0</ele><time>2026-04-27T11:16:05.171Z</time></trkpt><trkpt lat="39.7001479" lon="20.9654242"><ele>701.0</ele><time>2026-04-27T11:16:06.17Z</time></trkpt><trkpt lat="39.7003554" lon="20.9653732"><ele>701.3333333333333</ele><time>2026-04-27T11:16:07.17Z</time></trkpt><trkpt lat="39.7005562" lon="20.9653252"><ele>701.6666666666666</ele><time>2026-04-27T11:16:08.17Z</time></trkpt><trkpt lat="39.7007566" lon="20.9652892"><ele>702.0</ele><time>2026-04-27T11:16:09.171Z</time></trkpt><trkpt lat="39.7009633" lon="20.9652933"><ele>696.0</ele><time>2026-04-27T11:16:10.171Z</time></trkpt><trkpt lat="39.7011688" lon="20.9653041"><ele>690.0</ele><time>2026-04-27T11:16:11.17Z</time></trkpt><trkpt lat="39.7013608" lon="20.9653522"><ele>684.0</ele><time>2026-04-27T11:16:12.171Z</time></trkpt><trkpt lat="39.7015618" lon="20.9654979"><ele>684.0</ele><time>2026-04-27T11:16:13.171Z</time></trkpt><trkpt lat="39.7017639" lon="20.9656056"><ele>684.0</ele><time>2026-04-27T11:16:14.17Z</time></trkpt><trkpt lat="39.7019814" lon="20.9657425"><ele>674.5</ele><time>2026-04-27T11:16:15.169Z</time></trkpt><trkpt lat="39.702156" lon="20.9659731"><ele>665.0</ele><time>2026-04-27T11:16:16.17Z</time></trkpt><trkpt lat="39.7023536" lon="20.9661514"><ele>665.0</ele><time>2026-04-27T11:16:17.171Z</time></trkpt><trkpt lat="39.7025426" lon="20.9663319"><ele>665.0</ele><time>2026-04-27T11:16:18.171Z</time></trkpt><trkpt lat="39.7027262" lon="20.9665082"><ele>663.6666666666666</ele><time>2026-04-27T11:16:19.171Z</time></trkpt><trkpt lat="39.7029029" lon="20.9666845"><ele>662.3333333333334</ele><time>2026-04-27T11:16:20.171Z</time></trkpt><trkpt lat="39.7030743" lon="20.9668577"><ele>661.0</ele><time>2026-04-27T11:16:21.171Z</time></trkpt><trkpt lat="39.7032454" lon="20.9670339"><ele>661.0</ele><time>2026-04-27T11:16:22.171Z</time></trkpt><trkpt lat="39.7034169" lon="20.9672077"><ele>661.0</ele><time>2026-04-27T11:16:23.17Z</time></trkpt><trkpt lat="39.7035876" lon="20.967373"><ele>661.0</ele><time>2026-04-27T11:16:24.171Z</time></trkpt><trkpt lat="39.7037612" lon="20.9675187"><ele>660.0</ele><time>2026-04-27T11:16:25.17Z</time></trkpt><trkpt lat="39.7039391" lon="20.9676417"><ele>659.0</ele><time>2026-04-27T11:16:26.169Z</time></trkpt><trkpt lat="39.7041195" lon="20.967747"><ele>658.0</ele><time>2026-04-27T11:16:27.171Z</time></trkpt><trkpt lat="39.7042958" lon="20.9678376"><ele>649.6666666666667</ele><time>2026-04-27T11:16:28.171Z</time></trkpt><trkpt lat="39.7044671" lon="20.9679182"><ele>641.3333333333334</ele><time>2026-04-27T11:16:29.17Z</time></trkpt><trkpt lat="39.7046114" lon="20.9680039"><ele>633.0</ele><time>2026-04-27T11:16:30.171Z</time></trkpt><trkpt lat="39.7047489" lon="20.9680918"><ele>633.0</ele><time>2026-04-27T11:16:31.171Z</time></trkpt><trkpt lat="39.7048379" lon="20.9682476"><ele>633.0</ele><time>2026-04-27T11:16:32.17Z</time></trkpt><trkpt lat="39.704934" lon="20.9683708"><ele>633.0</ele><time>2026-04-27T11:16:33.171Z</time></trkpt><trkpt lat="39.7049973" lon="20.9685322"><ele>633.0</ele><time>2026-04-27T11:16:34.17Z</time></trkpt><trkpt lat="39.7050675" lon="20.9687111"><ele>631.6666666666666</ele><time>2026-04-27T11:16:35.17Z</time></trkpt><trkpt lat="39.7049577" lon="20.9689235"><ele>630.3333333333333</ele><time>2026-04-27T11:16:36.17Z</time></trkpt><trkpt lat="39.7048255" lon="20.9691115"><ele>629.0</ele><time>2026-04-27T11:16:37.171Z</time></trkpt><trkpt lat="39.7047406" lon="20.9692644"><ele>624.0</ele><time>2026-04-27T11:16:38.17Z</time></trkpt><trkpt lat="39.7046421" lon="20.9694209"><ele>619.0</ele><time>2026-04-27T11:16:39.171Z</time></trkpt><trkpt lat="39.704546" lon="20.9695862"><ele>614.0</ele><time>2026-04-27T11:16:40.17Z</time></trkpt><trkpt lat="39.7044604" lon="20.9697474"><ele>617.3333333333333</ele><time>2026-04-27T11:16:41.171Z</time></trkpt><trkpt lat="39.7043919" lon="20.9699267"><ele>620.6666666666666</ele><time>2026-04-27T11:16:42.17Z</time></trkpt><trkpt lat="39.7043477" lon="20.9701267"><ele>624.0</ele><time>2026-04-27T11:16:43.17Z</time></trkpt><trkpt lat="39.7043327" lon="20.9703414"><ele>624.0</ele><time>2026-04-27T11:16:44.17Z</time></trkpt><trkpt lat="39.7043459" lon="20.9705647"><ele>624.0</ele><time>2026-04-27T11:16:45.171Z</time></trkpt><trkpt lat="39.7043902" lon="20.9707843"><ele>624.0</ele><time>2026-04-27T11:16:46.171Z</time></trkpt><trkpt lat="39.7044607" lon="20.970998"><ele>620.0</ele><time>2026-04-27T11:16:47.17Z</time></trkpt><trkpt lat="39.7045453" lon="20.971214"><ele>616.0</ele><time>2026-04-27T11:16:48.17Z</time></trkpt><trkpt lat="39.7046379" lon="20.9714348"><ele>612.0</ele><time>2026-04-27T11:16:49.171Z</time></trkpt><trkpt lat="39.7047352" lon="20.9716656"><ele>616.0</ele><time>2026-04-27T11:16:50.171Z</time></trkpt><trkpt lat="39.7048369" lon="20.9719054"><ele>620.0</ele><time>2026-04-27T11:16:51.171Z</time></trkpt><trkpt lat="39.7049425" lon="20.9721522"><ele>624.0</ele><time>2026-04-27T11:16:52.171Z</time></trkpt><trkpt lat="39.7050519" lon="20.9724016"><ele>628.3333333333334</ele><time>2026-04-27T11:16:53.171Z</time></trkpt><trkpt lat="39.7051621" lon="20.972659"><ele>632.6666666666667</ele><time>2026-04-27T11:16:54.17Z</time></trkpt><trkpt lat="39.7052705" lon="20.972912"><ele>637.0</ele><time>2026-04-27T11:16:55.171Z</time></trkpt><trkpt lat="39.7053766" lon="20.9731626"><ele>627.6666666666667</ele><time>2026-04-27T11:16:56.17Z</time></trkpt><trkpt lat="39.7054845" lon="20.9734166"><ele>618.3333333333334</ele><time>2026-04-27T11:16:57.17Z</time></trkpt><trkpt lat="39.7055937" lon="20.9736689"><ele>609.0</ele><time>2026-04-27T11:16:58.171Z</time></trkpt><trkpt lat="39.7057071" lon="20.9739215"><ele>609.0</ele><time>2026-04-27T11:16:59.171Z</time></trkpt><trkpt lat="39.7058138" lon="20.9741757"><ele>609.0</ele><time>2026-04-27T11:17:00.171Z</time></trkpt><trkpt lat="39.7059212" lon="20.9744214"><ele>609.0</ele><time>2026-04-27T11:17:01.171Z</time></trkpt><trkpt lat="39.7060296" lon="20.9746617"><ele>601.6666666666666</ele><time>2026-04-27T11:17:02.17Z</time></trkpt><trkpt lat="39.7061342" lon="20.974905"><ele>594.3333333333333</ele><time>2026-04-27T11:17:03.17Z</time></trkpt><trkpt lat="39.7062374" lon="20.975142"><ele>587.0</ele><time>2026-04-27T11:17:04.17Z</time></trkpt><trkpt lat="39.7063342" lon="20.9753773"><ele>587.0</ele><time>2026-04-27T11:17:05.17Z</time></trkpt><trkpt lat="39.7064244" lon="20.9756196"><ele>587.0</ele><time>2026-04-27T11:17:06.171Z</time></trkpt><trkpt lat="39.7065052" lon="20.9758629"><ele>587.0</ele><time>2026-04-27T11:17:07.17Z</time></trkpt><trkpt lat="39.706576" lon="20.9761105"><ele>587.0</ele><time>2026-04-27T11:17:08.171Z</time></trkpt><trkpt lat="39.7066301" lon="20.9763415"><ele>587.0</ele><time>2026-04-27T11:17:09.17Z</time></trkpt><trkpt lat="39.7066817" lon="20.9765801"><ele>587.0</ele><time>2026-04-27T11:17:10.17Z</time></trkpt><trkpt lat="39.7067127" lon="20.9768209"><ele>587.0</ele><time>2026-04-27T11:17:11.171Z</time></trkpt><trkpt lat="39.7067532" lon="20.9770603"><ele>587.0</ele><time>2026-04-27T11:17:12.17Z</time></trkpt><trkpt lat="39.7067791" lon="20.977289"><ele>587.0</ele><time>2026-04-27T11:17:13.17Z</time></trkpt><trkpt lat="39.7067952" lon="20.9775154"><ele>584.0</ele><time>2026-04-27T11:17:14.17Z</time></trkpt><trkpt lat="39.706789" lon="20.9777436"><ele>581.0</ele><time>2026-04-27T11:17:15.171Z</time></trkpt><trkpt lat="39.7067492" lon="20.9779659"><ele>578.0</ele><time>2026-04-27T11:17:16.17Z</time></trkpt><trkpt lat="39.7066637" lon="20.9781782"><ele>573.3333333333333</ele><time>2026-04-27T11:17:17.171Z</time></trkpt><trkpt lat="39.7065627" lon="20.978358"><ele>568.6666666666666</ele><time>2026-04-27T11:17:18.17Z</time></trkpt><trkpt lat="39.7063576" lon="20.9784883"><ele>564.0</ele><time>2026-04-27T11:17:19.171Z</time></trkpt><trkpt lat="39.7061687" lon="20.9786338"><ele>566.6666666666666</ele><time>2026-04-27T11:17:20.171Z</time></trkpt><trkpt lat="39.7059769" lon="20.9787828"><ele>569.3333333333333</ele><time>2026-04-27T11:17:21.17Z</time></trkpt><trkpt lat="39.7057951" lon="20.9789325"><ele>572.0</ele><time>2026-04-27T11:17:22.17Z</time></trkpt><trkpt lat="39.7056127" lon="20.9790796"><ele>573.3333333333333</ele><time>2026-04-27T11:17:23.171Z</time></trkpt><trkpt lat="39.7054387" lon="20.9792274"><ele>574.6666666666666</ele><time>2026-04-27T11:17:24.17Z</time></trkpt><trkpt lat="39.705264" lon="20.9793814"><ele>576.0</ele><time>2026-04-27T11:17:25.17Z</time></trkpt><trkpt lat="39.705088" lon="20.979539"><ele>571.3333333333334</ele><time>2026-04-27T11:17:26.17Z</time></trkpt><trkpt lat="39.7049213" lon="20.9797204"><ele>566.6666666666667</ele><time>2026-04-27T11:17:27.17Z</time></trkpt><trkpt lat="39.7047744" lon="20.9799286"><ele>562.0</ele><time>2026-04-27T11:17:28.171Z</time></trkpt><trkpt lat="39.7046555" lon="20.9801557"><ele>558.6666666666667</ele><time>2026-04-27T11:17:29.171Z</time></trkpt><trkpt lat="39.7045485" lon="20.9803867"><ele>555.3333333333334</ele><time>2026-04-27T11:17:30.17Z</time></trkpt><trkpt lat="39.7044424" lon="20.9806041"><ele>552.0</ele><time>2026-04-27T11:17:31.171Z</time></trkpt><trkpt lat="39.7043401" lon="20.9808205"><ele>548.6666666666666</ele><time>2026-04-27T11:17:32.17Z</time></trkpt><trkpt lat="39.7042104" lon="20.9809715"><ele>545.3333333333333</ele><time>2026-04-27T11:17:33.171Z</time></trkpt><trkpt lat="39.7040784" lon="20.9811217"><ele>542.0</ele><time>2026-04-27T11:17:34.17Z</time></trkpt><trkpt lat="39.703907" lon="20.9812024"><ele>542.0</ele><time>2026-04-27T11:17:35.168Z</time></trkpt><trkpt lat="39.703734" lon="20.9812801"><ele>542.0</ele><time>2026-04-27T11:17:36.171Z</time></trkpt><trkpt lat="39.7035703" lon="20.981359"><ele>542.0</ele><time>2026-04-27T11:17:37.17Z</time></trkpt><trkpt lat="39.7034178" lon="20.9814623"><ele>539.6666666666666</ele><time>2026-04-27T11:17:38.171Z</time></trkpt><trkpt lat="39.703286" lon="20.9815978"><ele>537.3333333333334</ele><time>2026-04-27T11:17:39.171Z</time></trkpt><trkpt lat="39.7031803" lon="20.9817657"><ele>535.0</ele><time>2026-04-27T11:17:40.171Z</time></trkpt><trkpt lat="39.7031038" lon="20.9819713"><ele>531.3333333333334</ele><time>2026-04-27T11:17:41.171Z</time></trkpt><trkpt lat="39.7030508" lon="20.9822021"><ele>527.6666666666666</ele><time>2026-04-27T11:17:42.17Z</time></trkpt><trkpt lat="39.7030074" lon="20.9824432"><ele>524.0</ele><time>2026-04-27T11:17:43.171Z</time></trkpt><trkpt lat="39.7029703" lon="20.9826645"><ele>523.3333333333333</ele><time>2026-04-27T11:17:44.171Z</time></trkpt><trkpt lat="39.7029344" lon="20.9828889"><ele>522.6666666666666</ele><time>2026-04-27T11:17:45.171Z</time></trkpt><trkpt lat="39.7028434" lon="20.9830635"><ele>522.0</ele><time>2026-04-27T11:17:46.171Z</time></trkpt><trkpt lat="39.7027444" lon="20.9832477"><ele>523.3333333333334</ele><time>2026-04-27T11:17:47.171Z</time></trkpt><trkpt lat="39.7025895" lon="20.9834113"><ele>524.6666666666667</ele><time>2026-04-27T11:17:48.17Z</time></trkpt><trkpt lat="39.7024019" lon="20.9835811"><ele>526.0</ele><time>2026-04-27T11:17:49.171Z</time></trkpt><trkpt lat="39.702189" lon="20.9837314"><ele>526.0</ele><time>2026-04-27T11:17:50.171Z</time></trkpt><trkpt lat="39.7019618" lon="20.9838903"><ele>526.0</ele><time>2026-04-27T11:17:51.171Z</time></trkpt><trkpt lat="39.7017384" lon="20.9840454"><ele>525.5</ele><time>2026-04-27T11:17:52.17Z</time></trkpt><trkpt lat="39.7015194" lon="20.9842032"><ele>525.0</ele><time>2026-04-27T11:17:53.17Z</time></trkpt><trkpt lat="39.7013087" lon="20.9843546"><ele>525.0</ele><time>2026-04-27T11:17:54.171Z</time></trkpt><trkpt lat="39.7010991" lon="20.9845087"><ele>525.0</ele><time>2026-04-27T11:17:55.17Z</time></trkpt><trkpt lat="39.7008926" lon="20.9846638"><ele>527.0</ele><time>2026-04-27T11:17:56.17Z</time></trkpt><trkpt lat="39.7006849" lon="20.9848179"><ele>529.0</ele><time>2026-04-27T11:17:57.17Z</time></trkpt><trkpt lat="39.7004769" lon="20.9849708"><ele>526.5</ele><time>2026-04-27T11:17:58.17Z</time></trkpt><trkpt lat="39.7002748" lon="20.9851119"><ele>524.0</ele><time>2026-04-27T11:17:59.17Z</time></trkpt><trkpt lat="39.7000757" lon="20.9852532"><ele>524.0</ele><time>2026-04-27T11:18:00.17Z</time></trkpt><trkpt lat="39.6998819" lon="20.9853894"><ele>524.0</ele><time>2026-04-27T11:18:01.17Z</time></trkpt><trkpt lat="39.6996855" lon="20.9855275"><ele>524.0</ele><time>2026-04-27T11:18:02.171Z</time></trkpt><trkpt lat="39.6994956" lon="20.9856655"><ele>524.0</ele><time>2026-04-27T11:18:03.171Z</time></trkpt><trkpt lat="39.6993183" lon="20.9858007"><ele>524.0</ele><time>2026-04-27T11:18:04.171Z</time></trkpt><trkpt lat="39.6991499" lon="20.9859506"><ele>524.0</ele><time>2026-04-27T11:18:05.171Z</time></trkpt><trkpt lat="39.698991" lon="20.9861262"><ele>522.6666666666666</ele><time>2026-04-27T11:18:06.171Z</time></trkpt><trkpt lat="39.6988427" lon="20.986323"><ele>521.3333333333334</ele><time>2026-04-27T11:18:07.17Z</time></trkpt><trkpt lat="39.6987085" lon="20.9865473"><ele>520.0</ele><time>2026-04-27T11:18:08.171Z</time></trkpt><trkpt lat="39.698584" lon="20.9868052"><ele>520.0</ele><time>2026-04-27T11:18:09.17Z</time></trkpt><trkpt lat="39.6984669" lon="20.9870895"><ele>520.0</ele><time>2026-04-27T11:18:10.17Z</time></trkpt><trkpt lat="39.6983584" lon="20.987383"><ele>520.0</ele><time>2026-04-27T11:18:11.171Z</time></trkpt><trkpt lat="39.6982606" lon="20.9876647"><ele>520.0</ele><time>2026-04-27T11:18:12.171Z</time></trkpt><trkpt lat="39.6981644" lon="20.9879434"><ele>520.0</ele><time>2026-04-27T11:18:13.171Z</time></trkpt><trkpt lat="39.6980664" lon="20.9882213"><ele>520.0</ele><time>2026-04-27T11:18:14.17Z</time></trkpt><trkpt lat="39.6979671" lon="20.9885014"><ele>517.5</ele><time>2026-04-27T11:18:15.171Z</time></trkpt><trkpt lat="39.6978712" lon="20.9887874"><ele>515.0</ele><time>2026-04-27T11:18:16.17Z</time></trkpt><trkpt lat="39.6977768" lon="20.9890712"><ele>515.5</ele><time>2026-04-27T11:18:17.171Z</time></trkpt><trkpt lat="39.6976834" lon="20.9893502"><ele>516.0</ele><time>2026-04-27T11:18:18.17Z</time></trkpt><trkpt lat="39.6975907" lon="20.9896178"><ele>516.0</ele><time>2026-04-27T11:18:19.171Z</time></trkpt><trkpt lat="39.697499" lon="20.9898803"><ele>516.0</ele><time>2026-04-27T11:18:20.17Z</time></trkpt><trkpt lat="39.6974098" lon="20.990144"><ele>516.0</ele><time>2026-04-27T11:18:21.17Z</time></trkpt><trkpt lat="39.6973222" lon="20.9904067"><ele>513.5</ele><time>2026-04-27T11:18:22.171Z</time></trkpt><trkpt lat="39.6972334" lon="20.990674"><ele>511.0</ele><time>2026-04-27T11:18:23.169Z</time></trkpt><trkpt lat="39.6971402" lon="20.9909443"><ele>508.0</ele><time>2026-04-27T11:18:24.17Z</time></trkpt><trkpt lat="39.6970457" lon="20.9912166"><ele>505.0</ele><time>2026-04-27T11:18:25.17Z</time></trkpt><trkpt lat="39.6969496" lon="20.9914876"><ele>505.33333333333337</ele><time>2026-04-27T11:18:26.171Z</time></trkpt><trkpt lat="39.6968543" lon="20.9917581"><ele>505.66666666666663</ele><time>2026-04-27T11:18:27.171Z</time></trkpt><trkpt lat="39.6967639" lon="20.992017"><ele>506.0</ele><time>2026-04-27T11:18:28.17Z</time></trkpt><trkpt lat="39.6966716" lon="20.9922764"><ele>502.0</ele><time>2026-04-27T11:18:29.171Z</time></trkpt><trkpt lat="39.6965689" lon="20.9925208"><ele>498.0</ele><time>2026-04-27T11:18:30.17Z</time></trkpt><trkpt lat="39.6964604" lon="20.9927513"><ele>494.0</ele><time>2026-04-27T11:18:31.17Z</time></trkpt><trkpt lat="39.6963551" lon="20.9929695"><ele>494.0</ele><time>2026-04-27T11:18:32.171Z</time></trkpt><trkpt lat="39.6962537" lon="20.9931766"><ele>494.0</ele><time>2026-04-27T11:18:33.171Z</time></trkpt><trkpt lat="39.6961473" lon="20.993375"><ele>494.0</ele><time>2026-04-27T11:18:34.17Z</time></trkpt><trkpt lat="39.6960342" lon="20.9935486"><ele>492.66666666666663</ele><time>2026-04-27T11:18:35.171Z</time></trkpt><trkpt lat="39.695909" lon="20.993713"><ele>491.33333333333337</ele><time>2026-04-27T11:18:36.169Z</time></trkpt><trkpt lat="39.6957682" lon="20.9938571"><ele>490.0</ele><time>2026-04-27T11:18:37.17Z</time></trkpt><trkpt lat="39.6956126" lon="20.9939789"><ele>490.0</ele><time>2026-04-27T11:18:38.169Z</time></trkpt><trkpt lat="39.6954546" lon="20.9940649"><ele>490.0</ele><time>2026-04-27T11:18:39.171Z</time></trkpt><trkpt lat="39.6953042" lon="20.9941678"><ele>490.0</ele><time>2026-04-27T11:18:40.171Z</time></trkpt><trkpt lat="39.6951614" lon="20.9942983"><ele>486.6666666666667</ele><time>2026-04-27T11:18:41.17Z</time></trkpt><trkpt lat="39.6950412" lon="20.9944599"><ele>483.33333333333337</ele><time>2026-04-27T11:18:42.17Z</time></trkpt><trkpt lat="39.6949378" lon="20.9946517"><ele>480.0</ele><time>2026-04-27T11:18:43.171Z</time></trkpt><trkpt lat="39.694862" lon="20.9948573"><ele>478.66666666666663</ele><time>2026-04-27T11:18:44.171Z</time></trkpt><trkpt lat="39.6948153" lon="20.9950739"><ele>477.3333333333333</ele><time>2026-04-27T11:18:45.17Z</time></trkpt><trkpt lat="39.6948036" lon="20.9953016"><ele>476.0</ele><time>2026-04-27T11:18:46.171Z</time></trkpt><trkpt lat="39.6948231" lon="20.9955332"><ele>476.0</ele><time>2026-04-27T11:18:47.171Z</time></trkpt><trkpt lat="39.6948747" lon="20.9957617"><ele>476.0</ele><time>2026-04-27T11:18:48.17Z</time></trkpt><trkpt lat="39.694957" lon="20.995979"><ele>476.0</ele><time>2026-04-27T11:18:49.171Z</time></trkpt><trkpt lat="39.6950677" lon="20.9961787"><ele>476.0</ele><time>2026-04-27T11:18:50.17Z</time></trkpt><trkpt lat="39.695199" lon="20.9963596"><ele>476.0</ele><time>2026-04-27T11:18:51.17Z</time></trkpt><trkpt lat="39.6953387" lon="20.9965304"><ele>476.0</ele><time>2026-04-27T11:18:52.17Z</time></trkpt><trkpt lat="39.6954838" lon="20.9966972"><ele>476.66666666666663</ele><time>2026-04-27T11:18:53.171Z</time></trkpt><trkpt lat="39.6956279" lon="20.9968669"><ele>477.33333333333337</ele><time>2026-04-27T11:18:54.17Z</time></trkpt><trkpt lat="39.6957716" lon="20.9970347"><ele>478.0</ele><time>2026-04-27T11:18:55.171Z</time></trkpt><trkpt lat="39.6959142" lon="20.9972044"><ele>478.0</ele><time>2026-04-27T11:18:56.17Z</time></trkpt><trkpt lat="39.6960605" lon="20.9973661"><ele>478.0</ele><time>2026-04-27T11:18:57.171Z</time></trkpt><trkpt lat="39.6962071" lon="20.9975252"><ele>478.0</ele><time>2026-04-27T11:18:58.171Z</time></trkpt><trkpt lat="39.6963458" lon="20.9976956"><ele>480.33333333333337</ele><time>2026-04-27T11:18:59.17Z</time></trkpt><trkpt lat="39.6964797" lon="20.997885"><ele>482.66666666666663</ele><time>2026-04-27T11:19:00.17Z</time></trkpt><trkpt lat="39.6966102" lon="20.998083"><ele>485.0</ele><time>2026-04-27T11:19:01.171Z</time></trkpt><trkpt lat="39.696744" lon="20.9982951"><ele>485.66666666666663</ele><time>2026-04-27T11:19:02.171Z</time></trkpt><trkpt lat="39.6968772" lon="20.9985063"><ele>486.33333333333337</ele><time>2026-04-27T11:19:03.171Z</time></trkpt><trkpt lat="39.6970085" lon="20.9987085"><ele>487.0</ele><time>2026-04-27T11:19:04.171Z</time></trkpt><trkpt lat="39.6971377" lon="20.9989111"><ele>487.0</ele><time>2026-04-27T11:19:05.171Z</time></trkpt><trkpt lat="39.6972693" lon="20.999115"><ele>487.0</ele><time>2026-04-27T11:19:06.17Z</time></trkpt><trkpt lat="39.6974056" lon="20.9993295"><ele>487.0</ele><time>2026-04-27T11:19:07.17Z</time></trkpt><trkpt lat="39.6975405" lon="20.9995337"><ele>488.6666666666667</ele><time>2026-04-27T11:19:08.171Z</time></trkpt><trkpt lat="39.6976729" lon="20.9997262"><ele>490.33333333333337</ele><time>2026-04-27T11:19:09.171Z</time></trkpt><trkpt lat="39.6978004" lon="20.999907"><ele>492.0</ele><time>2026-04-27T11:19:10.171Z</time></trkpt><trkpt lat="39.6979273" lon="21.0000428"><ele>492.0</ele><time>2026-04-27T11:19:11.171Z</time></trkpt><trkpt lat="39.6980794" lon="21.0001519"><ele>492.0</ele><time>2026-04-27T11:19:12.17Z</time></trkpt><trkpt lat="39.6982602" lon="21.0002151"><ele>492.0</ele><time>2026-04-27T11:19:13.17Z</time></trkpt><trkpt lat="39.6984624" lon="21.0002597"><ele>495.0</ele><time>2026-04-27T11:19:14.171Z</time></trkpt><trkpt lat="39.6986842" lon="21.000295"><ele>498.0</ele><time>2026-04-27T11:19:15.17Z</time></trkpt><trkpt lat="39.6989259" lon="21.0003278"><ele>498.0</ele><time>2026-04-27T11:19:16.169Z</time></trkpt><trkpt lat="39.6991641" lon="21.000364"><ele>498.0</ele><time>2026-04-27T11:19:17.171Z</time></trkpt><trkpt lat="39.699395" lon="21.0003926"><ele>499.33333333333337</ele><time>2026-04-27T11:19:18.17Z</time></trkpt><trkpt lat="39.6996053" lon="21.0003877"><ele>500.6666666666667</ele><time>2026-04-27T11:19:19.17Z</time></trkpt><trkpt lat="39.699813" lon="21.00035"><ele>502.0</ele><time>2026-04-27T11:19:20.17Z</time></trkpt><trkpt lat="39.7000139" lon="21.0003105"><ele>502.0</ele><time>2026-04-27T11:19:21.171Z</time></trkpt><trkpt lat="39.7001838" lon="21.0001977"><ele>502.0</ele><time>2026-04-27T11:19:22.17Z</time></trkpt><trkpt lat="39.7003475" lon="21.0000959"><ele>502.0</ele><time>2026-04-27T11:19:23.17Z</time></trkpt><trkpt lat="39.7004909" lon="20.9999951"><ele>503.75</ele><time>2026-04-27T11:19:24.171Z</time></trkpt><trkpt lat="39.7006237" lon="20.9999118"><ele>505.5</ele><time>2026-04-27T11:19:25.171Z</time></trkpt><trkpt lat="39.7007505" lon="20.9998425"><ele>507.25</ele><time>2026-04-27T11:19:26.171Z</time></trkpt><trkpt lat="39.7008761" lon="20.9998189"><ele>509.0</ele><time>2026-04-27T11:19:27.17Z</time></trkpt><trkpt lat="39.7009658" lon="20.9998307"><ele>509.0</ele><time>2026-04-27T11:19:28.17Z</time></trkpt><trkpt lat="39.7010286" lon="20.9998967"><ele>509.0</ele><time>2026-04-27T11:19:29.171Z</time></trkpt><trkpt lat="39.7010408" lon="20.9999824"><ele>509.0</ele><time>2026-04-27T11:19:30.17Z</time></trkpt><trkpt lat="39.7009577" lon="21.0001623"><ele>509.0</ele><time>2026-04-27T11:19:31.17Z</time></trkpt><trkpt lat="39.7006855" lon="21.0003116"><ele>509.0</ele><time>2026-04-27T11:19:32.171Z</time></trkpt><trkpt lat="39.7005564" lon="21.0004335"><ele>509.0</ele><time>2026-04-27T11:19:33.171Z</time></trkpt><trkpt lat="39.7003893" lon="21.0006163"><ele>509.0</ele><time>2026-04-27T11:19:34.171Z</time></trkpt><trkpt lat="39.7001976" lon="21.000792"><ele>514.5</ele><time>2026-04-27T11:19:35.17Z</time></trkpt><trkpt lat="39.6999839" lon="21.0009745"><ele>520.0</ele><time>2026-04-27T11:19:36.171Z</time></trkpt><trkpt lat="39.6997725" lon="21.0011492"><ele>520.0</ele><time>2026-04-27T11:19:37.171Z</time></trkpt><trkpt lat="39.6995742" lon="21.0013006"><ele>520.0</ele><time>2026-04-27T11:19:38.17Z</time></trkpt><trkpt lat="39.6994006" lon="21.0014286"><ele>520.0</ele><time>2026-04-27T11:19:39.171Z</time></trkpt><trkpt lat="39.6992345" lon="21.0015268"><ele>517.5</ele><time>2026-04-27T11:19:40.17Z</time></trkpt><trkpt lat="39.69909" lon="21.00159"><ele>515.0</ele><time>2026-04-27T11:19:41.17Z</time></trkpt><trkpt lat="39.698967" lon="21.0016409"><ele>512.5</ele><time>2026-04-27T11:19:42.169Z</time></trkpt><trkpt lat="39.6988568" lon="21.0016765"><ele>510.0</ele><time>2026-04-27T11:19:43.169Z</time></trkpt><trkpt lat="39.6987446" lon="21.0017208"><ele>515.5</ele><time>2026-04-27T11:19:44.168Z</time></trkpt><trkpt lat="39.6986229" lon="21.0017446"><ele>521.0</ele><time>2026-04-27T11:19:45.17Z</time></trkpt><trkpt lat="39.6985132" lon="21.0017366"><ele>526.5</ele><time>2026-04-27T11:19:46.17Z</time></trkpt><trkpt lat="39.6983851" lon="21.0017367"><ele>532.0</ele><time>2026-04-27T11:19:47.17Z</time></trkpt><trkpt lat="39.698255" lon="21.0016942"><ele>532.0</ele><time>2026-04-27T11:19:48.17Z</time></trkpt><trkpt lat="39.6981661" lon="21.0016671"><ele>532.0</ele><time>2026-04-27T11:19:49.171Z</time></trkpt><trkpt lat="39.6981014" lon="21.0016901"><ele>532.0</ele><time>2026-04-27T11:19:50.17Z</time></trkpt><trkpt lat="39.6980399" lon="21.0017922"><ele>532.0</ele><time>2026-04-27T11:19:52.171Z</time></trkpt><trkpt lat="39.6980881" lon="21.0019052"><ele>532.0</ele><time>2026-04-27T11:19:54.17Z</time></trkpt><trkpt lat="39.6981613" lon="21.0019543"><ele>532.0</ele><time>2026-04-27T11:19:55.171Z</time></trkpt><trkpt lat="39.6983058" lon="21.0019559"><ele>532.0</ele><time>2026-04-27T11:19:56.17Z</time></trkpt><trkpt lat="39.6984718" lon="21.0019678"><ele>532.0</ele><time>2026-04-27T11:19:57.17Z</time></trkpt><trkpt lat="39.6986739" lon="21.0019825"><ele>532.0</ele><time>2026-04-27T11:19:58.171Z</time></trkpt><trkpt lat="39.6988765" lon="21.0019741"><ele>532.5</ele><time>2026-04-27T11:19:59.17Z</time></trkpt><trkpt lat="39.6991018" lon="21.0019325"><ele>533.0</ele><time>2026-04-27T11:20:00.171Z</time></trkpt><trkpt lat="39.6993501" lon="21.0018613"><ele>541.0</ele><time>2026-04-27T11:20:01.17Z</time></trkpt><trkpt lat="39.6995941" lon="21.0017755"><ele>549.0</ele><time>2026-04-27T11:20:02.17Z</time></trkpt><trkpt lat="39.6998349" lon="21.0016796"><ele>542.0</ele><time>2026-04-27T11:20:03.17Z</time></trkpt><trkpt lat="39.7000739" lon="21.0015745"><ele>535.0</ele><time>2026-04-27T11:20:04.17Z</time></trkpt><trkpt lat="39.7003155" lon="21.0014601"><ele>535.0</ele><time>2026-04-27T11:20:05.17Z</time></trkpt><trkpt lat="39.7005521" lon="21.001357"><ele>535.0</ele><time>2026-04-27T11:20:06.171Z</time></trkpt><trkpt lat="39.700764" lon="21.001299"><ele>535.0</ele><time>2026-04-27T11:20:07.169Z</time></trkpt><trkpt lat="39.7009661" lon="21.0012049"><ele>535.0</ele><time>2026-04-27T11:20:08.171Z</time></trkpt><trkpt lat="39.7011584" lon="21.0010952"><ele>535.0</ele><time>2026-04-27T11:20:09.171Z</time></trkpt><trkpt lat="39.7013295" lon="21.0010045"><ele>541.6666666666667</ele><time>2026-04-27T11:20:10.17Z</time></trkpt><trkpt lat="39.7015061" lon="21.0009163"><ele>548.3333333333334</ele><time>2026-04-27T11:20:11.171Z</time></trkpt><trkpt lat="39.7016886" lon="21.000896"><ele>555.0</ele><time>2026-04-27T11:20:12.171Z</time></trkpt><trkpt lat="39.7018644" lon="21.0009026"><ele>555.0</ele><time>2026-04-27T11:20:13.171Z</time></trkpt><trkpt lat="39.7020407" lon="21.0009618"><ele>555.0</ele><time>2026-04-27T11:20:14.17Z</time></trkpt><trkpt lat="39.702206" lon="21.0010371"><ele>555.0</ele><time>2026-04-27T11:20:15.17Z</time></trkpt><trkpt lat="39.7023996" lon="21.0012259"><ele>555.0</ele><time>2026-04-27T11:20:16.171Z</time></trkpt><trkpt lat="39.7025784" lon="21.0013556"><ele>555.0</ele><time>2026-04-27T11:20:17.169Z</time></trkpt><trkpt lat="39.7027481" lon="21.0014643"><ele>555.0</ele><time>2026-04-27T11:20:18.171Z</time></trkpt><trkpt lat="39.7029297" lon="21.0015475"><ele>558.3333333333334</ele><time>2026-04-27T11:20:19.168Z</time></trkpt><trkpt lat="39.7031151" lon="21.0015734"><ele>561.6666666666667</ele><time>2026-04-27T11:20:20.17Z</time></trkpt><trkpt lat="39.7033173" lon="21.0015541"><ele>565.0</ele><time>2026-04-27T11:20:21.17Z</time></trkpt><trkpt lat="39.7035147" lon="21.0015064"><ele>568.0</ele><time>2026-04-27T11:20:22.171Z</time></trkpt><trkpt lat="39.7036946" lon="21.0014696"><ele>571.0</ele><time>2026-04-27T11:20:23.17Z</time></trkpt><trkpt lat="39.7038852" lon="21.0014862"><ele>574.0</ele><time>2026-04-27T11:20:24.171Z</time></trkpt><trkpt lat="39.7040618" lon="21.0015387"><ele>574.0</ele><time>2026-04-27T11:20:25.17Z</time></trkpt><trkpt lat="39.7042145" lon="21.0016404"><ele>574.0</ele><time>2026-04-27T11:20:26.17Z</time></trkpt><trkpt lat="39.7043617" lon="21.0017934"><ele>574.0</ele><time>2026-04-27T11:20:27.17Z</time></trkpt><trkpt lat="39.7045071" lon="21.0019826"><ele>576.3333333333334</ele><time>2026-04-27T11:20:28.17Z</time></trkpt><trkpt lat="39.7046152" lon="21.0022012"><ele>578.6666666666666</ele><time>2026-04-27T11:20:29.171Z</time></trkpt><trkpt lat="39.7047348" lon="21.0024066"><ele>581.0</ele><time>2026-04-27T11:20:30.171Z</time></trkpt><trkpt lat="39.7048596" lon="21.0026096"><ele>583.3333333333333</ele><time>2026-04-27T11:20:31.17Z</time></trkpt><trkpt lat="39.7050054" lon="21.0027936"><ele>585.6666666666666</ele><time>2026-04-27T11:20:32.171Z</time></trkpt><trkpt lat="39.7051892" lon="21.0029485"><ele>588.0</ele><time>2026-04-27T11:20:33.17Z</time></trkpt><trkpt lat="39.7054019" lon="21.0030744"><ele>591.5</ele><time>2026-04-27T11:20:34.17Z</time></trkpt><trkpt lat="39.7056241" lon="21.0031877"><ele>595.0</ele><time>2026-04-27T11:20:35.171Z</time></trkpt><trkpt lat="39.705844" lon="21.0032962"><ele>595.0</ele><time>2026-04-27T11:20:36.171Z</time></trkpt><trkpt lat="39.7060614" lon="21.003389"><ele>595.0</ele><time>2026-04-27T11:20:37.17Z</time></trkpt><trkpt lat="39.7062749" lon="21.0034544"><ele>595.0</ele><time>2026-04-27T11:20:38.171Z</time></trkpt><trkpt lat="39.70648" lon="21.0034887"><ele>595.0</ele><time>2026-04-27T11:20:39.17Z</time></trkpt><trkpt lat="39.7066749" lon="21.0035184"><ele>595.0</ele><time>2026-04-27T11:20:40.171Z</time></trkpt><trkpt lat="39.7068452" lon="21.0035668"><ele>595.0</ele><time>2026-04-27T11:20:41.171Z</time></trkpt><trkpt lat="39.7070319" lon="21.0036568"><ele>593.0</ele><time>2026-04-27T11:20:42.171Z</time></trkpt><trkpt lat="39.7071937" lon="21.0037739"><ele>591.0</ele><time>2026-04-27T11:20:43.171Z</time></trkpt><trkpt lat="39.7073417" lon="21.0039266"><ele>589.0</ele><time>2026-04-27T11:20:44.17Z</time></trkpt><trkpt lat="39.7074906" lon="21.0040693"><ele>588.0</ele><time>2026-04-27T11:20:45.171Z</time></trkpt><trkpt lat="39.7076311" lon="21.0042456"><ele>587.0</ele><time>2026-04-27T11:20:46.17Z</time></trkpt><trkpt lat="39.7078109" lon="21.0043798"><ele>586.0</ele><time>2026-04-27T11:20:47.17Z</time></trkpt><trkpt lat="39.7080142" lon="21.004478"><ele>581.0</ele><time>2026-04-27T11:20:48.17Z</time></trkpt><trkpt lat="39.7082348" lon="21.0045446"><ele>576.0</ele><time>2026-04-27T11:20:49.169Z</time></trkpt><trkpt lat="39.7084582" lon="21.0046012"><ele>575.6666666666666</ele><time>2026-04-27T11:20:50.171Z</time></trkpt><trkpt lat="39.7086656" lon="21.0046554"><ele>575.3333333333333</ele><time>2026-04-27T11:20:51.171Z</time></trkpt><trkpt lat="39.7088611" lon="21.0047193"><ele>575.0</ele><time>2026-04-27T11:20:52.171Z</time></trkpt><trkpt lat="39.7090473" lon="21.0047879"><ele>575.0</ele><time>2026-04-27T11:20:53.171Z</time></trkpt><trkpt lat="39.7092409" lon="21.004824"><ele>575.0</ele><time>2026-04-27T11:20:54.17Z</time></trkpt><trkpt lat="39.7094384" lon="21.0048196"><ele>575.0</ele><time>2026-04-27T11:20:55.169Z</time></trkpt><trkpt lat="39.709628" lon="21.0048042"><ele>574.3333333333333</ele><time>2026-04-27T11:20:56.171Z</time></trkpt><trkpt lat="39.7098173" lon="21.0048141"><ele>573.6666666666666</ele><time>2026-04-27T11:20:57.171Z</time></trkpt><trkpt lat="39.7100063" lon="21.004886"><ele>573.0</ele><time>2026-04-27T11:20:58.171Z</time></trkpt><trkpt lat="39.7101835" lon="21.0050009"><ele>578.3333333333334</ele><time>2026-04-27T11:20:59.171Z</time></trkpt><trkpt lat="39.7103446" lon="21.0051516"><ele>583.6666666666667</ele><time>2026-04-27T11:21:00.17Z</time></trkpt><trkpt lat="39.7104713" lon="21.0053481"><ele>589.0</ele><time>2026-04-27T11:21:01.168Z</time></trkpt><trkpt lat="39.710598" lon="21.0055286"><ele>589.0</ele><time>2026-04-27T11:21:02.17Z</time></trkpt><trkpt lat="39.7107598" lon="21.0056792"><ele>589.0</ele><time>2026-04-27T11:21:03.17Z</time></trkpt><trkpt lat="39.7109497" lon="21.0058082"><ele>589.0</ele><time>2026-04-27T11:21:04.17Z</time></trkpt><trkpt lat="39.7111752" lon="21.0059118"><ele>595.0</ele><time>2026-04-27T11:21:05.17Z</time></trkpt><trkpt lat="39.7114227" lon="21.0060159"><ele>601.0</ele><time>2026-04-27T11:21:06.171Z</time></trkpt><trkpt lat="39.7116645" lon="21.006118"><ele>601.0</ele><time>2026-04-27T11:21:07.17Z</time></trkpt><trkpt lat="39.7118968" lon="21.0062265"><ele>601.0</ele><time>2026-04-27T11:21:08.171Z</time></trkpt><trkpt lat="39.7121205" lon="21.0063466"><ele>599.0</ele><time>2026-04-27T11:21:09.169Z</time></trkpt><trkpt lat="39.7123274" lon="21.0064677"><ele>597.0</ele><time>2026-04-27T11:21:10.17Z</time></trkpt><trkpt lat="39.7125154" lon="21.0065954"><ele>595.0</ele><time>2026-04-27T11:21:11.17Z</time></trkpt><trkpt lat="39.7127004" lon="21.0067226"><ele>591.6666666666667</ele><time>2026-04-27T11:21:12.17Z</time></trkpt><trkpt lat="39.7128779" lon="21.00684"><ele>588.3333333333334</ele><time>2026-04-27T11:21:13.171Z</time></trkpt><trkpt lat="39.7130551" lon="21.0069416"><ele>585.0</ele><time>2026-04-27T11:21:14.17Z</time></trkpt><trkpt lat="39.7132318" lon="21.0070155"><ele>585.0</ele><time>2026-04-27T11:21:15.171Z</time></trkpt><trkpt lat="39.7134103" lon="21.0070676"><ele>585.0</ele><time>2026-04-27T11:21:16.169Z</time></trkpt><trkpt lat="39.7135836" lon="21.0071064"><ele>585.0</ele><time>2026-04-27T11:21:17.171Z</time></trkpt><trkpt lat="39.7137525" lon="21.0071414"><ele>582.6666666666666</ele><time>2026-04-27T11:21:18.171Z</time></trkpt><trkpt lat="39.7139174" lon="21.0071766"><ele>580.3333333333333</ele><time>2026-04-27T11:21:19.171Z</time></trkpt><trkpt lat="39.7140792" lon="21.0072143"><ele>578.0</ele><time>2026-04-27T11:21:20.17Z</time></trkpt><trkpt lat="39.7142378" lon="21.0072528"><ele>578.0</ele><time>2026-04-27T11:21:21.169Z</time></trkpt><trkpt lat="39.7143866" lon="21.0072947"><ele>578.0</ele><time>2026-04-27T11:21:22.17Z</time></trkpt><trkpt lat="39.7145186" lon="21.0073403"><ele>578.0</ele><time>2026-04-27T11:21:23.169Z</time></trkpt><trkpt lat="39.7146324" lon="21.007405"><ele>578.0</ele><time>2026-04-27T11:21:24.171Z</time></trkpt><trkpt lat="39.7147402" lon="21.0074986"><ele>579.25</ele><time>2026-04-27T11:21:25.171Z</time></trkpt><trkpt lat="39.7148375" lon="21.0076182"><ele>580.5</ele><time>2026-04-27T11:21:26.17Z</time></trkpt><trkpt lat="39.7149169" lon="21.0077551"><ele>581.75</ele><time>2026-04-27T11:21:27.171Z</time></trkpt><trkpt lat="39.7149726" lon="21.0078963"><ele>583.0</ele><time>2026-04-27T11:21:28.17Z</time></trkpt><trkpt lat="39.7150015" lon="21.0080309"><ele>583.0</ele><time>2026-04-27T11:21:29.171Z</time></trkpt><trkpt lat="39.7150179" lon="21.0081583"><ele>583.0</ele><time>2026-04-27T11:21:30.17Z</time></trkpt><trkpt lat="39.7149933" lon="21.0082684"><ele>583.0</ele><time>2026-04-27T11:21:31.17Z</time></trkpt><trkpt lat="39.7149464" lon="21.0083551"><ele>583.0</ele><time>2026-04-27T11:21:32.169Z</time></trkpt><trkpt lat="39.7148625" lon="21.0084459"><ele>583.0</ele><time>2026-04-27T11:21:33.17Z</time></trkpt><trkpt lat="39.7147446" lon="21.0085484"><ele>583.6666666666667</ele><time>2026-04-27T11:21:34.17Z</time></trkpt><trkpt lat="39.7145902" lon="21.0086705"><ele>584.3333333333334</ele><time>2026-04-27T11:21:35.17Z</time></trkpt><trkpt lat="39.7143963" lon="21.0088109"><ele>585.0</ele><time>2026-04-27T11:21:36.17Z</time></trkpt><trkpt lat="39.7141752" lon="21.0089687"><ele>585.5</ele><time>2026-04-27T11:21:37.171Z</time></trkpt><trkpt lat="39.7139406" lon="21.0091379"><ele>586.0</ele><time>2026-04-27T11:21:38.17Z</time></trkpt><trkpt lat="39.7137241" lon="21.0093088"><ele>586.0</ele><time>2026-04-27T11:21:39.17Z</time></trkpt><trkpt lat="39.7135221" lon="21.0094874"><ele>586.0</ele><time>2026-04-27T11:21:40.171Z</time></trkpt><trkpt lat="39.7133452" lon="21.0096606"><ele>586.0</ele><time>2026-04-27T11:21:41.171Z</time></trkpt><trkpt lat="39.7131974" lon="21.0098459"><ele>586.0</ele><time>2026-04-27T11:21:42.17Z</time></trkpt><trkpt lat="39.7130812" lon="21.0100571"><ele>586.0</ele><time>2026-04-27T11:21:43.17Z</time></trkpt><trkpt lat="39.7129954" lon="21.0102972"><ele>590.6666666666667</ele><time>2026-04-27T11:21:44.17Z</time></trkpt><trkpt lat="39.712941" lon="21.0105664"><ele>595.3333333333334</ele><time>2026-04-27T11:21:45.171Z</time></trkpt><trkpt lat="39.7129215" lon="21.0108699"><ele>600.0</ele><time>2026-04-27T11:21:46.17Z</time></trkpt><trkpt lat="39.7129109" lon="21.0111696"><ele>600.6666666666666</ele><time>2026-04-27T11:21:47.17Z</time></trkpt><trkpt lat="39.7129258" lon="21.0114516"><ele>601.3333333333333</ele><time>2026-04-27T11:21:48.171Z</time></trkpt><trkpt lat="39.712895" lon="21.0117348"><ele>602.0</ele><time>2026-04-27T11:21:49.171Z</time></trkpt><trkpt lat="39.7128365" lon="21.0120097"><ele>599.6666666666666</ele><time>2026-04-27T11:21:50.17Z</time></trkpt><trkpt lat="39.7127868" lon="21.012287"><ele>597.3333333333334</ele><time>2026-04-27T11:21:51.171Z</time></trkpt><trkpt lat="39.7126242" lon="21.0124436"><ele>595.0</ele><time>2026-04-27T11:21:52.171Z</time></trkpt><trkpt lat="39.7124826" lon="21.0126308"><ele>593.3333333333334</ele><time>2026-04-27T11:21:53.171Z</time></trkpt><trkpt lat="39.7123317" lon="21.0128067"><ele>591.6666666666666</ele><time>2026-04-27T11:21:54.17Z</time></trkpt><trkpt lat="39.7121897" lon="21.0129933"><ele>590.0</ele><time>2026-04-27T11:21:55.171Z</time></trkpt><trkpt lat="39.7120694" lon="21.0131962"><ele>594.3333333333333</ele><time>2026-04-27T11:21:56.171Z</time></trkpt><trkpt lat="39.7119721" lon="21.0134188"><ele>598.6666666666666</ele><time>2026-04-27T11:21:57.171Z</time></trkpt><trkpt lat="39.7118976" lon="21.0136619"><ele>603.0</ele><time>2026-04-27T11:21:58.17Z</time></trkpt><trkpt lat="39.7118365" lon="21.0138904"><ele>603.0</ele><time>2026-04-27T11:21:59.17Z</time></trkpt><trkpt lat="39.7117891" lon="21.0141052"><ele>603.0</ele><time>2026-04-27T11:22:00.17Z</time></trkpt><trkpt lat="39.7117646" lon="21.0142979"><ele>603.0</ele><time>2026-04-27T11:22:01.168Z</time></trkpt><trkpt lat="39.7117755" lon="21.0144747"><ele>602.0</ele><time>2026-04-27T11:22:02.17Z</time></trkpt><trkpt lat="39.7118269" lon="21.014642"><ele>601.0</ele><time>2026-04-27T11:22:03.17Z</time></trkpt><trkpt lat="39.7119015" lon="21.0147932"><ele>600.0</ele><time>2026-04-27T11:22:04.171Z</time></trkpt><trkpt lat="39.7119671" lon="21.0149353"><ele>599.0</ele><time>2026-04-27T11:22:05.17Z</time></trkpt><trkpt lat="39.7119948" lon="21.0150721"><ele>603.5</ele><time>2026-04-27T11:22:06.169Z</time></trkpt><trkpt lat="39.7120163" lon="21.0152147"><ele>608.0</ele><time>2026-04-27T11:22:07.169Z</time></trkpt><trkpt lat="39.7119142" lon="21.0153663"><ele>612.5</ele><time>2026-04-27T11:22:08.17Z</time></trkpt><trkpt lat="39.7119116" lon="21.0155447"><ele>617.0</ele><time>2026-04-27T11:22:09.17Z</time></trkpt><trkpt lat="39.7119385" lon="21.0157183"><ele>618.0</ele><time>2026-04-27T11:22:10.171Z</time></trkpt><trkpt lat="39.7119848" lon="21.0158595"><ele>619.0</ele><time>2026-04-27T11:22:11.17Z</time></trkpt><trkpt lat="39.7120282" lon="21.0159931"><ele>620.0</ele><time>2026-04-27T11:22:12.17Z</time></trkpt><trkpt lat="39.7120452" lon="21.0161129"><ele>621.0</ele><time>2026-04-27T11:22:13.171Z</time></trkpt><trkpt lat="39.7120673" lon="21.0162252"><ele>622.0</ele><time>2026-04-27T11:22:14.17Z</time></trkpt><trkpt lat="39.712027" lon="21.0163353"><ele>615.25</ele><time>2026-04-27T11:22:15.17Z</time></trkpt><trkpt lat="39.7118327" lon="21.0162868"><ele>608.5</ele><time>2026-04-27T11:22:16.17Z</time></trkpt><trkpt lat="39.7117284" lon="21.0162853"><ele>601.75</ele><time>2026-04-27T11:22:17.171Z</time></trkpt><trkpt lat="39.7116121" lon="21.016309"><ele>595.0</ele><time>2026-04-27T11:22:18.168Z</time></trkpt><trkpt lat="39.7115111" lon="21.0163641"><ele>595.0</ele><time>2026-04-27T11:22:19.17Z</time></trkpt><trkpt lat="39.7114453" lon="21.0164569"><ele>595.0</ele><time>2026-04-27T11:22:20.17Z</time></trkpt><trkpt lat="39.7114244" lon="21.0165667"><ele>595.0</ele><time>2026-04-27T11:22:21.171Z</time></trkpt><trkpt lat="39.7114575" lon="21.0166927"><ele>595.0</ele><time>2026-04-27T11:22:22.17Z</time></trkpt><trkpt lat="39.7115304" lon="21.0167909"><ele>595.0</ele><time>2026-04-27T11:22:23.169Z</time></trkpt><trkpt lat="39.7116252" lon="21.0168626"><ele>596.75</ele><time>2026-04-27T11:22:24.17Z</time></trkpt><trkpt lat="39.7117398" lon="21.01691"><ele>598.5</ele><time>2026-04-27T11:22:25.17Z</time></trkpt><trkpt lat="39.7118346" lon="21.0169867"><ele>600.25</ele><time>2026-04-27T11:22:26.171Z</time></trkpt><trkpt lat="39.7119021" lon="21.0171058"><ele>602.0</ele><time>2026-04-27T11:22:27.17Z</time></trkpt><trkpt lat="39.7119376" lon="21.0172666"><ele>608.5</ele><time>2026-04-27T11:22:28.171Z</time></trkpt><trkpt lat="39.7119714" lon="21.0174366"><ele>615.0</ele><time>2026-04-27T11:22:29.17Z</time></trkpt><trkpt lat="39.7119504" lon="21.0175946"><ele>621.5</ele><time>2026-04-27T11:22:30.171Z</time></trkpt><trkpt lat="39.7119679" lon="21.0177382"><ele>628.0</ele><time>2026-04-27T11:22:31.171Z</time></trkpt><trkpt lat="39.7120148" lon="21.0178609"><ele>628.0</ele><time>2026-04-27T11:22:32.17Z</time></trkpt><trkpt lat="39.7121065" lon="21.017948"><ele>628.0</ele><time>2026-04-27T11:22:33.171Z</time></trkpt><trkpt lat="39.7122269" lon="21.0180022"><ele>628.0</ele><time>2026-04-27T11:22:34.17Z</time></trkpt><trkpt lat="39.7123769" lon="21.0180248"><ele>628.0</ele><time>2026-04-27T11:22:35.169Z</time></trkpt><trkpt lat="39.7125213" lon="21.018032"><ele>628.0</ele><time>2026-04-27T11:22:36.17Z</time></trkpt><trkpt lat="39.7126644" lon="21.0180333"><ele>628.0</ele><time>2026-04-27T11:22:37.17Z</time></trkpt><trkpt lat="39.7127991" lon="21.0180694"><ele>628.0</ele><time>2026-04-27T11:22:38.171Z</time></trkpt><trkpt lat="39.7129272" lon="21.018136"><ele>628.0</ele><time>2026-04-27T11:22:39.17Z</time></trkpt><trkpt lat="39.7130258" lon="21.0182515"><ele>630.0</ele><time>2026-04-27T11:22:40.17Z</time></trkpt><trkpt lat="39.7130929" lon="21.0183936"><ele>632.0</ele><time>2026-04-27T11:22:41.171Z</time></trkpt><trkpt lat="39.7131369" lon="21.018565"><ele>634.0</ele><time>2026-04-27T11:22:42.17Z</time></trkpt><trkpt lat="39.7131748" lon="21.0187698"><ele>636.0</ele><time>2026-04-27T11:22:43.171Z</time></trkpt><trkpt lat="39.7132179" lon="21.0189935"><ele>634.6666666666666</ele><time>2026-04-27T11:22:44.17Z</time></trkpt><trkpt lat="39.7132612" lon="21.0192098"><ele>633.3333333333333</ele><time>2026-04-27T11:22:45.171Z</time></trkpt><trkpt lat="39.7132965" lon="21.0194346"><ele>632.0</ele><time>2026-04-27T11:22:46.171Z</time></trkpt><trkpt lat="39.713308" lon="21.0196636"><ele>632.0</ele><time>2026-04-27T11:22:47.171Z</time></trkpt><trkpt lat="39.713303" lon="21.0198773"><ele>632.0</ele><time>2026-04-27T11:22:48.17Z</time></trkpt><trkpt lat="39.7132846" lon="21.0200669"><ele>632.0</ele><time>2026-04-27T11:22:49.17Z</time></trkpt><trkpt lat="39.7132845" lon="21.0202372"><ele>632.0</ele><time>2026-04-27T11:22:50.171Z</time></trkpt><trkpt lat="39.7133107" lon="21.0203994"><ele>631.25</ele><time>2026-04-27T11:22:51.17Z</time></trkpt><trkpt lat="39.7133657" lon="21.0205355"><ele>630.5</ele><time>2026-04-27T11:22:52.17Z</time></trkpt><trkpt lat="39.713452" lon="21.0206404"><ele>629.75</ele><time>2026-04-27T11:22:53.17Z</time></trkpt><trkpt lat="39.7135666" lon="21.0207057"><ele>629.0</ele><time>2026-04-27T11:22:54.171Z</time></trkpt><trkpt lat="39.713709" lon="21.0207397"><ele>635.3333333333333</ele><time>2026-04-27T11:22:55.171Z</time></trkpt><trkpt lat="39.7138716" lon="21.0207487"><ele>641.6666666666666</ele><time>2026-04-27T11:22:56.17Z</time></trkpt><trkpt lat="39.7140386" lon="21.0207493"><ele>648.0</ele><time>2026-04-27T11:22:57.17Z</time></trkpt><trkpt lat="39.7142277" lon="21.0207439"><ele>648.3333333333334</ele><time>2026-04-27T11:22:58.17Z</time></trkpt><trkpt lat="39.714406" lon="21.020737"><ele>648.6666666666667</ele><time>2026-04-27T11:22:59.17Z</time></trkpt><trkpt lat="39.714575" lon="21.020722"><ele>649.0</ele><time>2026-04-27T11:23:00.17Z</time></trkpt><trkpt lat="39.7147335" lon="21.0206775"><ele>649.0</ele><time>2026-04-27T11:23:01.171Z</time></trkpt><trkpt lat="39.7148728" lon="21.0206023"><ele>649.0</ele><time>2026-04-27T11:23:02.17Z</time></trkpt><trkpt lat="39.7149862" lon="21.0205217"><ele>649.0</ele><time>2026-04-27T11:23:03.17Z</time></trkpt><trkpt lat="39.7150884" lon="21.0204492"><ele>649.0</ele><time>2026-04-27T11:23:04.171Z</time></trkpt><trkpt lat="39.7151963" lon="21.0204279"><ele>648.25</ele><time>2026-04-27T11:23:05.17Z</time></trkpt><trkpt lat="39.7152996" lon="21.0204063"><ele>647.5</ele><time>2026-04-27T11:23:06.171Z</time></trkpt><trkpt lat="39.7153841" lon="21.0204283"><ele>646.75</ele><time>2026-04-27T11:23:07.171Z</time></trkpt><trkpt lat="39.7154103" lon="21.020712"><ele>646.0</ele><time>2026-04-27T11:23:08.17Z</time></trkpt><trkpt lat="39.7154636" lon="21.0208684"><ele>646.0</ele><time>2026-04-27T11:23:09.17Z</time></trkpt><trkpt lat="39.7154998" lon="21.0210522"><ele>646.0</ele><time>2026-04-27T11:23:10.171Z</time></trkpt><trkpt lat="39.7155176" lon="21.021248"><ele>646.0</ele><time>2026-04-27T11:23:11.17Z</time></trkpt><trkpt lat="39.7155087" lon="21.0214622"><ele>642.6666666666667</ele><time>2026-04-27T11:23:12.17Z</time></trkpt><trkpt lat="39.7154805" lon="21.0216964"><ele>639.3333333333334</ele><time>2026-04-27T11:23:13.167Z</time></trkpt><trkpt lat="39.715429" lon="21.0219254"><ele>636.0</ele><time>2026-04-27T11:23:14.171Z</time></trkpt><trkpt lat="39.7153858" lon="21.0221517"><ele>636.0</ele><time>2026-04-27T11:23:15.171Z</time></trkpt><trkpt lat="39.7153509" lon="21.022358"><ele>636.0</ele><time>2026-04-27T11:23:16.171Z</time></trkpt><trkpt lat="39.7153218" lon="21.0225211"><ele>636.0</ele><time>2026-04-27T11:23:17.169Z</time></trkpt><trkpt lat="39.7153164" lon="21.0226707"><ele>636.0</ele><time>2026-04-27T11:23:18.17Z</time></trkpt><trkpt lat="39.7153402" lon="21.0228095"><ele>633.75</ele><time>2026-04-27T11:23:19.171Z</time></trkpt><trkpt lat="39.7153987" lon="21.0229158"><ele>631.5</ele><time>2026-04-27T11:23:20.171Z</time></trkpt><trkpt lat="39.7154839" lon="21.0229821"><ele>629.25</ele><time>2026-04-27T11:23:21.17Z</time></trkpt><trkpt lat="39.7156131" lon="21.0230064"><ele>627.0</ele><time>2026-04-27T11:23:22.171Z</time></trkpt><trkpt lat="39.7157706" lon="21.023005"><ele>627.0</ele><time>2026-04-27T11:23:23.17Z</time></trkpt><trkpt lat="39.7159439" lon="21.0229794"><ele>627.0</ele><time>2026-04-27T11:23:24.17Z</time></trkpt><trkpt lat="39.7161126" lon="21.0229227"><ele>627.0</ele><time>2026-04-27T11:23:25.171Z</time></trkpt><trkpt lat="39.7162661" lon="21.0228341"><ele>625.25</ele><time>2026-04-27T11:23:26.171Z</time></trkpt><trkpt lat="39.7164043" lon="21.0227628"><ele>623.5</ele><time>2026-04-27T11:23:27.17Z</time></trkpt><trkpt lat="39.7165333" lon="21.0227612"><ele>621.75</ele><time>2026-04-27T11:23:28.17Z</time></trkpt><trkpt lat="39.7166872" lon="21.0227779"><ele>620.0</ele><time>2026-04-27T11:23:29.17Z</time></trkpt><trkpt lat="39.7168312" lon="21.0227964"><ele>616.25</ele><time>2026-04-27T11:23:30.171Z</time></trkpt><trkpt lat="39.7169647" lon="21.0228036"><ele>612.5</ele><time>2026-04-27T11:23:31.171Z</time></trkpt><trkpt lat="39.7170965" lon="21.0227761"><ele>608.75</ele><time>2026-04-27T11:23:32.17Z</time></trkpt><trkpt lat="39.7172249" lon="21.0227164"><ele>605.0</ele><time>2026-04-27T11:23:33.171Z</time></trkpt><trkpt lat="39.7173144" lon="21.0226222"><ele>605.0</ele><time>2026-04-27T11:23:34.17Z</time></trkpt><trkpt lat="39.7173765" lon="21.0224846"><ele>605.0</ele><time>2026-04-27T11:23:35.17Z</time></trkpt><trkpt lat="39.717412" lon="21.0223136"><ele>605.0</ele><time>2026-04-27T11:23:36.17Z</time></trkpt><trkpt lat="39.7174419" lon="21.0221369"><ele>605.0</ele><time>2026-04-27T11:23:37.171Z</time></trkpt><trkpt lat="39.7174668" lon="21.0219796"><ele>608.4</ele><time>2026-04-27T11:23:38.171Z</time></trkpt><trkpt lat="39.7174968" lon="21.0218388"><ele>611.8</ele><time>2026-04-27T11:23:39.171Z</time></trkpt><trkpt lat="39.7175391" lon="21.0217215"><ele>615.2</ele><time>2026-04-27T11:23:40.171Z</time></trkpt><trkpt lat="39.7175814" lon="21.0216291"><ele>618.6</ele><time>2026-04-27T11:23:41.17Z</time></trkpt><trkpt lat="39.717709" lon="21.0216402"><ele>622.0</ele><time>2026-04-27T11:23:42.17Z</time></trkpt><trkpt lat="39.7178179" lon="21.0217046"><ele>624.75</ele><time>2026-04-27T11:23:43.17Z</time></trkpt><trkpt lat="39.7179325" lon="21.0217762"><ele>627.5</ele><time>2026-04-27T11:23:44.17Z</time></trkpt><trkpt lat="39.7180402" lon="21.0218702"><ele>630.25</ele><time>2026-04-27T11:23:45.17Z</time></trkpt><trkpt lat="39.7181328" lon="21.0219977"><ele>633.0</ele><time>2026-04-27T11:23:46.17Z</time></trkpt><trkpt lat="39.7181993" lon="21.0221456"><ele>633.0</ele><time>2026-04-27T11:23:47.171Z</time></trkpt><trkpt lat="39.7182448" lon="21.0223275"><ele>633.0</ele><time>2026-04-27T11:23:48.17Z</time></trkpt><trkpt lat="39.7182531" lon="21.0225377"><ele>633.0</ele><time>2026-04-27T11:23:49.171Z</time></trkpt><trkpt lat="39.7182387" lon="21.0228494"><ele>628.0</ele><time>2026-04-27T11:23:50.171Z</time></trkpt><trkpt lat="39.7182407" lon="21.0231093"><ele>623.0</ele><time>2026-04-27T11:23:51.17Z</time></trkpt><trkpt lat="39.7182403" lon="21.0233316"><ele>618.0</ele><time>2026-04-27T11:23:52.171Z</time></trkpt><trkpt lat="39.71825" lon="21.0235187"><ele>618.0</ele><time>2026-04-27T11:23:53.171Z</time></trkpt><trkpt lat="39.7182728" lon="21.0236897"><ele>618.0</ele><time>2026-04-27T11:23:54.171Z</time></trkpt><trkpt lat="39.7184124" lon="21.0237921"><ele>618.0</ele><time>2026-04-27T11:23:55.17Z</time></trkpt><trkpt lat="39.7185257" lon="21.0238988"><ele>618.0</ele><time>2026-04-27T11:23:56.171Z</time></trkpt><trkpt lat="39.7186528" lon="21.0239679"><ele>626.0</ele><time>2026-04-27T11:23:57.169Z</time></trkpt><trkpt lat="39.7187858" lon="21.0240061"><ele>634.0</ele><time>2026-04-27T11:23:58.171Z</time></trkpt><trkpt lat="39.7189119" lon="21.0240336"><ele>642.0</ele><time>2026-04-27T11:23:59.171Z</time></trkpt><trkpt lat="39.7190246" lon="21.0240685"><ele>650.0</ele><time>2026-04-27T11:24:00.171Z</time></trkpt><trkpt lat="39.7191193" lon="21.0241095"><ele>646.2</ele><time>2026-04-27T11:24:01.17Z</time></trkpt><trkpt lat="39.7191851" lon="21.0241867"><ele>642.4</ele><time>2026-04-27T11:24:02.171Z</time></trkpt><trkpt lat="39.719208" lon="21.0242928"><ele>638.6</ele><time>2026-04-27T11:24:03.171Z</time></trkpt><trkpt lat="39.7192227" lon="21.0243958"><ele>634.8</ele><time>2026-04-27T11:24:04.17Z</time></trkpt><trkpt lat="39.7191686" lon="21.0245311"><ele>631.0</ele><time>2026-04-27T11:24:05.17Z</time></trkpt><trkpt lat="39.7189792" lon="21.0246186"><ele>631.0</ele><time>2026-04-27T11:24:06.171Z</time></trkpt><trkpt lat="39.7188478" lon="21.0247028"><ele>631.0</ele><time>2026-04-27T11:24:07.17Z</time></trkpt><trkpt lat="39.7187384" lon="21.0248078"><ele>631.0</ele><time>2026-04-27T11:24:08.171Z</time></trkpt><trkpt lat="39.7186549" lon="21.0249236"><ele>631.0</ele><time>2026-04-27T11:24:09.171Z</time></trkpt><trkpt lat="39.7186035" lon="21.0250554"><ele>632.2</ele><time>2026-04-27T11:24:10.17Z</time></trkpt><trkpt lat="39.7185972" lon="21.0251799"><ele>633.4000000000001</ele><time>2026-04-27T11:24:11.169Z</time></trkpt><trkpt lat="39.7186395" lon="21.0253055"><ele>634.6</ele><time>2026-04-27T11:24:12.171Z</time></trkpt><trkpt lat="39.7187142" lon="21.0254282"><ele>635.8000000000001</ele><time>2026-04-27T11:24:13.168Z</time></trkpt><trkpt lat="39.7187801" lon="21.0255454"><ele>637.0</ele><time>2026-04-27T11:24:14.17Z</time></trkpt><trkpt lat="39.7188071" lon="21.0256703"><ele>638.5</ele><time>2026-04-27T11:24:15.171Z</time></trkpt><trkpt lat="39.7188045" lon="21.0258133"><ele>640.0</ele><time>2026-04-27T11:24:16.171Z</time></trkpt><trkpt lat="39.7187862" lon="21.0259538"><ele>641.5</ele><time>2026-04-27T11:24:17.17Z</time></trkpt><trkpt lat="39.718705" lon="21.0260826"><ele>643.0</ele><time>2026-04-27T11:24:18.171Z</time></trkpt><trkpt lat="39.7184551" lon="21.02603"><ele>634.6666666666667</ele><time>2026-04-27T11:24:19.17Z</time></trkpt><trkpt lat="39.7183063" lon="21.0260764"><ele>626.3333333333334</ele><time>2026-04-27T11:24:20.171Z</time></trkpt><trkpt lat="39.7181506" lon="21.0261145"><ele>618.0</ele><time>2026-04-27T11:24:21.17Z</time></trkpt><trkpt lat="39.7180015" lon="21.0261546"><ele>618.0</ele><time>2026-04-27T11:24:22.17Z</time></trkpt><trkpt lat="39.7178471" lon="21.026229"><ele>618.0</ele><time>2026-04-27T11:24:23.17Z</time></trkpt><trkpt lat="39.7177031" lon="21.0263604"><ele>618.0</ele><time>2026-04-27T11:24:24.17Z</time></trkpt><trkpt lat="39.7175624" lon="21.0265213"><ele>619.3333333333334</ele><time>2026-04-27T11:24:25.17Z</time></trkpt><trkpt lat="39.7174217" lon="21.0266906"><ele>620.6666666666667</ele><time>2026-04-27T11:24:26.171Z</time></trkpt><trkpt lat="39.7172865" lon="21.0268652"><ele>622.0</ele><time>2026-04-27T11:24:27.171Z</time></trkpt><trkpt lat="39.7171425" lon="21.0270466"><ele>622.0</ele><time>2026-04-27T11:24:28.171Z</time></trkpt><trkpt lat="39.7170059" lon="21.0272236"><ele>622.0</ele><time>2026-04-27T11:24:29.17Z</time></trkpt><trkpt lat="39.7168847" lon="21.0273964"><ele>622.0</ele><time>2026-04-27T11:24:30.171Z</time></trkpt><trkpt lat="39.7167828" lon="21.0275617"><ele>620.2</ele><time>2026-04-27T11:24:31.168Z</time></trkpt><trkpt lat="39.7167092" lon="21.0277023"><ele>618.4000000000001</ele><time>2026-04-27T11:24:32.169Z</time></trkpt><trkpt lat="39.7166574" lon="21.0278311"><ele>616.5999999999999</ele><time>2026-04-27T11:24:33.171Z</time></trkpt><trkpt lat="39.7166432" lon="21.0279625"><ele>614.8</ele><time>2026-04-27T11:24:34.17Z</time></trkpt><trkpt lat="39.7166673" lon="21.028089"><ele>613.0</ele><time>2026-04-27T11:24:35.17Z</time></trkpt><trkpt lat="39.7167291" lon="21.0281709"><ele>613.0</ele><time>2026-04-27T11:24:36.169Z</time></trkpt><trkpt lat="39.7168296" lon="21.0282166"><ele>613.0</ele><time>2026-04-27T11:24:37.17Z</time></trkpt><trkpt lat="39.7169521" lon="21.0282198"><ele>613.0</ele><time>2026-04-27T11:24:38.171Z</time></trkpt><trkpt lat="39.7170861" lon="21.0281876"><ele>613.0</ele><time>2026-04-27T11:24:39.171Z</time></trkpt><trkpt lat="39.7172273" lon="21.0281324"><ele>620.0</ele><time>2026-04-27T11:24:40.171Z</time></trkpt><trkpt lat="39.7173772" lon="21.0281009"><ele>627.0</ele><time>2026-04-27T11:24:41.17Z</time></trkpt><trkpt lat="39.7175454" lon="21.0281084"><ele>634.0</ele><time>2026-04-27T11:24:42.17Z</time></trkpt><trkpt lat="39.7177182" lon="21.0281418"><ele>631.5</ele><time>2026-04-27T11:24:43.171Z</time></trkpt><trkpt lat="39.7178791" lon="21.0281928"><ele>629.0</ele><time>2026-04-27T11:24:44.17Z</time></trkpt><trkpt lat="39.7180213" lon="21.0282445"><ele>626.5</ele><time>2026-04-27T11:24:45.17Z</time></trkpt><trkpt lat="39.7181328" lon="21.0282971"><ele>624.0</ele><time>2026-04-27T11:24:46.171Z</time></trkpt><trkpt lat="39.7182076" lon="21.0283847"><ele>624.0</ele><time>2026-04-27T11:24:47.17Z</time></trkpt><trkpt lat="39.7182816" lon="21.0284646"><ele>624.0</ele><time>2026-04-27T11:24:48.17Z</time></trkpt><trkpt lat="39.7183469" lon="21.028597"><ele>624.0</ele><time>2026-04-27T11:24:49.17Z</time></trkpt><trkpt lat="39.7184051" lon="21.0287627"><ele>624.0</ele><time>2026-04-27T11:24:50.171Z</time></trkpt><trkpt lat="39.7183911" lon="21.0289688"><ele>621.6666666666666</ele><time>2026-04-27T11:24:51.169Z</time></trkpt><trkpt lat="39.7182225" lon="21.0291573"><ele>619.3333333333333</ele><time>2026-04-27T11:24:52.17Z</time></trkpt><trkpt lat="39.7181561" lon="21.0293436"><ele>617.0</ele><time>2026-04-27T11:24:53.17Z</time></trkpt><trkpt lat="39.7181548" lon="21.0295054"><ele>617.0</ele><time>2026-04-27T11:24:54.167Z</time></trkpt><trkpt lat="39.7181867" lon="21.0296391"><ele>617.0</ele><time>2026-04-27T11:24:55.17Z</time></trkpt><trkpt lat="39.7182623" lon="21.029768"><ele>617.0</ele><time>2026-04-27T11:24:56.17Z</time></trkpt><trkpt lat="39.7183688" lon="21.0299023"><ele>617.0</ele><time>2026-04-27T11:24:57.171Z</time></trkpt><trkpt lat="39.7184766" lon="21.0300286"><ele>618.0</ele><time>2026-04-27T11:24:58.168Z</time></trkpt><trkpt lat="39.7185778" lon="21.0301528"><ele>619.0</ele><time>2026-04-27T11:24:59.17Z</time></trkpt><trkpt lat="39.7186638" lon="21.0302715"><ele>620.0</ele><time>2026-04-27T11:25:00.17Z</time></trkpt><trkpt lat="39.7187238" lon="21.0303953"><ele>621.0</ele><time>2026-04-27T11:25:01.168Z</time></trkpt><trkpt lat="39.7187536" lon="21.0305221"><ele>621.0</ele><time>2026-04-27T11:25:02.167Z</time></trkpt><trkpt lat="39.7187596" lon="21.0306491"><ele>621.0</ele><time>2026-04-27T11:25:03.168Z</time></trkpt><trkpt lat="39.7187218" lon="21.0307998"><ele>621.0</ele><time>2026-04-27T11:25:04.17Z</time></trkpt><trkpt lat="39.7186441" lon="21.0309096"><ele>621.0</ele><time>2026-04-27T11:25:05.17Z</time></trkpt><trkpt lat="39.7184424" lon="21.0309139"><ele>610.6666666666666</ele><time>2026-04-27T11:25:06.17Z</time></trkpt><trkpt lat="39.7182829" lon="21.0309589"><ele>600.3333333333333</ele><time>2026-04-27T11:25:07.17Z</time></trkpt><trkpt lat="39.7181372" lon="21.0310117"><ele>590.0</ele><time>2026-04-27T11:25:08.171Z</time></trkpt><trkpt lat="39.7179991" lon="21.0310679"><ele>590.0</ele><time>2026-04-27T11:25:09.17Z</time></trkpt><trkpt lat="39.717877" lon="21.0311173"><ele>590.0</ele><time>2026-04-27T11:25:10.171Z</time></trkpt><trkpt lat="39.7177815" lon="21.0311707"><ele>590.0</ele><time>2026-04-27T11:25:11.171Z</time></trkpt><trkpt lat="39.7177013" lon="21.0312438"><ele>590.0</ele><time>2026-04-27T11:25:12.17Z</time></trkpt><trkpt lat="39.7176564" lon="21.0313569"><ele>590.0</ele><time>2026-04-27T11:25:13.171Z</time></trkpt><trkpt lat="39.7176476" lon="21.0314915"><ele>587.6</ele><time>2026-04-27T11:25:14.17Z</time></trkpt><trkpt lat="39.7176737" lon="21.0316195"><ele>585.2</ele><time>2026-04-27T11:25:15.171Z</time></trkpt><trkpt lat="39.7177332" lon="21.0317288"><ele>582.8</ele><time>2026-04-27T11:25:16.169Z</time></trkpt><trkpt lat="39.7178207" lon="21.0318111"><ele>580.4</ele><time>2026-04-27T11:25:17.168Z</time></trkpt><trkpt lat="39.7179341" lon="21.0318524"><ele>578.0</ele><time>2026-04-27T11:25:18.17Z</time></trkpt><trkpt lat="39.7180571" lon="21.0318575"><ele>578.0</ele><time>2026-04-27T11:25:19.17Z</time></trkpt><trkpt lat="39.7182047" lon="21.0318339"><ele>578.0</ele><time>2026-04-27T11:25:20.168Z</time></trkpt><trkpt lat="39.7183623" lon="21.0318337"><ele>578.0</ele><time>2026-04-27T11:25:21.17Z</time></trkpt><trkpt lat="39.718534" lon="21.0318353"><ele>576.3333333333333</ele><time>2026-04-27T11:25:22.169Z</time></trkpt><trkpt lat="39.7186974" lon="21.0318271"><ele>574.6666666666666</ele><time>2026-04-27T11:25:23.17Z</time></trkpt><trkpt lat="39.718857" lon="21.0317968"><ele>573.0</ele><time>2026-04-27T11:25:24.17Z</time></trkpt><trkpt lat="39.7190115" lon="21.0317577"><ele>573.0</ele><time>2026-04-27T11:25:25.171Z</time></trkpt><trkpt lat="39.719165" lon="21.0317499"><ele>573.0</ele><time>2026-04-27T11:25:26.169Z</time></trkpt><trkpt lat="39.7193016" lon="21.0317941"><ele>573.0</ele><time>2026-04-27T11:25:27.169Z</time></trkpt><trkpt lat="39.719426" lon="21.0318544"><ele>573.0</ele><time>2026-04-27T11:25:28.17Z</time></trkpt><trkpt lat="39.719537" lon="21.0319018"><ele>571.25</ele><time>2026-04-27T11:25:29.169Z</time></trkpt><trkpt lat="39.7196554" lon="21.0319115"><ele>569.5</ele><time>2026-04-27T11:25:30.169Z</time></trkpt><trkpt lat="39.719777" lon="21.0318756"><ele>567.75</ele><time>2026-04-27T11:25:31.17Z</time></trkpt><trkpt lat="39.719896" lon="21.031787"><ele>566.0</ele><time>2026-04-27T11:25:32.17Z</time></trkpt><trkpt lat="39.7200111" lon="21.0316674"><ele>570.5</ele><time>2026-04-27T11:25:33.171Z</time></trkpt><trkpt lat="39.7201113" lon="21.0315453"><ele>575.0</ele><time>2026-04-27T11:25:34.17Z</time></trkpt><trkpt lat="39.7202019" lon="21.0314241"><ele>579.5</ele><time>2026-04-27T11:25:35.169Z</time></trkpt><trkpt lat="39.7202835" lon="21.0313232"><ele>584.0</ele><time>2026-04-27T11:25:36.17Z</time></trkpt><trkpt lat="39.7203641" lon="21.0312427"><ele>584.0</ele><time>2026-04-27T11:25:37.17Z</time></trkpt><trkpt lat="39.7204484" lon="21.0312191"><ele>584.0</ele><time>2026-04-27T11:25:38.17Z</time></trkpt><trkpt lat="39.720534" lon="21.0312156"><ele>584.0</ele><time>2026-04-27T11:25:39.17Z</time></trkpt><trkpt lat="39.72061" lon="21.0312542"><ele>584.0</ele><time>2026-04-27T11:25:40.171Z</time></trkpt><trkpt lat="39.7206346" lon="21.0313884"><ele>584.0</ele><time>2026-04-27T11:25:41.171Z</time></trkpt><trkpt lat="39.7206729" lon="21.0314987"><ele>584.0</ele><time>2026-04-27T11:25:42.171Z</time></trkpt><trkpt lat="39.7206926" lon="21.0316061"><ele>584.0</ele><time>2026-04-27T11:25:43.17Z</time></trkpt><trkpt lat="39.7206907" lon="21.0317195"><ele>584.0</ele><time>2026-04-27T11:25:44.171Z</time></trkpt><trkpt lat="39.7206764" lon="21.0318316"><ele>584.0</ele><time>2026-04-27T11:25:45.171Z</time></trkpt><trkpt lat="39.7206324" lon="21.0319804"><ele>584.0</ele><time>2026-04-27T11:25:46.171Z</time></trkpt><trkpt lat="39.7205789" lon="21.0321399"><ele>583.25</ele><time>2026-04-27T11:25:47.171Z</time></trkpt><trkpt lat="39.7205231" lon="21.0322939"><ele>582.5</ele><time>2026-04-27T11:25:48.17Z</time></trkpt><trkpt lat="39.720459" lon="21.032439"><ele>581.75</ele><time>2026-04-27T11:25:49.171Z</time></trkpt><trkpt lat="39.7203694" lon="21.0325725"><ele>581.0</ele><time>2026-04-27T11:25:50.17Z</time></trkpt><trkpt lat="39.7202738" lon="21.0327018"><ele>573.6666666666666</ele><time>2026-04-27T11:25:51.169Z</time></trkpt><trkpt lat="39.7201562" lon="21.0328295"><ele>566.3333333333334</ele><time>2026-04-27T11:25:52.17Z</time></trkpt><trkpt lat="39.7200366" lon="21.0329715"><ele>559.0</ele><time>2026-04-27T11:25:53.171Z</time></trkpt><trkpt lat="39.7199224" lon="21.0331299"><ele>559.0</ele><time>2026-04-27T11:25:54.17Z</time></trkpt><trkpt lat="39.7198207" lon="21.0332923"><ele>559.0</ele><time>2026-04-27T11:25:55.17Z</time></trkpt><trkpt lat="39.7197102" lon="21.0334257"><ele>559.0</ele><time>2026-04-27T11:25:56.168Z</time></trkpt><trkpt lat="39.7195797" lon="21.0335528"><ele>557.3333333333334</ele><time>2026-04-27T11:25:57.17Z</time></trkpt><trkpt lat="39.7194487" lon="21.0336762"><ele>555.6666666666666</ele><time>2026-04-27T11:25:58.17Z</time></trkpt><trkpt lat="39.7192674" lon="21.0337528"><ele>554.0</ele><time>2026-04-27T11:25:59.171Z</time></trkpt><trkpt lat="39.7191163" lon="21.0338637"><ele>554.0</ele><time>2026-04-27T11:26:00.169Z</time></trkpt><trkpt lat="39.7189833" lon="21.0339645"><ele>554.0</ele><time>2026-04-27T11:26:01.171Z</time></trkpt><trkpt lat="39.7188667" lon="21.034055"><ele>554.0</ele><time>2026-04-27T11:26:02.17Z</time></trkpt><trkpt lat="39.7187776" lon="21.0341496"><ele>554.0</ele><time>2026-04-27T11:26:03.171Z</time></trkpt><trkpt lat="39.7187166" lon="21.0342623"><ele>561.25</ele><time>2026-04-27T11:26:04.17Z</time></trkpt><trkpt lat="39.7186933" lon="21.0344031"><ele>568.5</ele><time>2026-04-27T11:26:05.171Z</time></trkpt><trkpt lat="39.7187123" lon="21.0345478"><ele>575.75</ele><time>2026-04-27T11:26:06.17Z</time></trkpt><trkpt lat="39.7187696" lon="21.0346857"><ele>583.0</ele><time>2026-04-27T11:26:07.171Z</time></trkpt><trkpt lat="39.7188552" lon="21.0348062"><ele>583.0</ele><time>2026-04-27T11:26:08.167Z</time></trkpt><trkpt lat="39.7189603" lon="21.0348974"><ele>583.0</ele><time>2026-04-27T11:26:09.171Z</time></trkpt><trkpt lat="39.7190879" lon="21.0349487"><ele>583.0</ele><time>2026-04-27T11:26:10.17Z</time></trkpt><trkpt lat="39.7192307" lon="21.0349544"><ele>583.0</ele><time>2026-04-27T11:26:11.168Z</time></trkpt><trkpt lat="39.7193806" lon="21.0349301"><ele>586.3333333333334</ele><time>2026-04-27T11:26:12.17Z</time></trkpt><trkpt lat="39.7195284" lon="21.0349336"><ele>589.6666666666666</ele><time>2026-04-27T11:26:13.169Z</time></trkpt><trkpt lat="39.7196742" lon="21.0349494"><ele>593.0</ele><time>2026-04-27T11:26:14.171Z</time></trkpt><trkpt lat="39.7197783" lon="21.0351239"><ele>593.0</ele><time>2026-04-27T11:26:15.17Z</time></trkpt><trkpt lat="39.7198793" lon="21.0352408"><ele>593.0</ele><time>2026-04-27T11:26:16.17Z</time></trkpt><trkpt lat="39.7199937" lon="21.0353353"><ele>593.0</ele><time>2026-04-27T11:26:17.17Z</time></trkpt><trkpt lat="39.7201385" lon="21.0353796"><ele>593.0</ele><time>2026-04-27T11:26:18.17Z</time></trkpt><trkpt lat="39.7202959" lon="21.0353849"><ele>596.0</ele><time>2026-04-27T11:26:19.169Z</time></trkpt><trkpt lat="39.7204417" lon="21.0353894"><ele>599.0</ele><time>2026-04-27T11:26:20.171Z</time></trkpt><trkpt lat="39.7205833" lon="21.0354243"><ele>602.0</ele><time>2026-04-27T11:26:21.171Z</time></trkpt><trkpt lat="39.7207192" lon="21.0354974"><ele>605.0</ele><time>2026-04-27T11:26:22.17Z</time></trkpt><trkpt lat="39.7208484" lon="21.0355665"><ele>605.0</ele><time>2026-04-27T11:26:23.171Z</time></trkpt><trkpt lat="39.7209184" lon="21.0357594"><ele>605.0</ele><time>2026-04-27T11:26:24.17Z</time></trkpt><trkpt lat="39.7210406" lon="21.0358576"><ele>605.0</ele><time>2026-04-27T11:26:25.17Z</time></trkpt><trkpt lat="39.7211935" lon="21.0359483"><ele>603.0</ele><time>2026-04-27T11:26:26.17Z</time></trkpt><trkpt lat="39.721399" lon="21.0360278"><ele>601.0</ele><time>2026-04-27T11:26:27.167Z</time></trkpt><trkpt lat="39.7216354" lon="21.036107"><ele>601.0</ele><time>2026-04-27T11:26:28.168Z</time></trkpt><trkpt lat="39.7218915" lon="21.0361921"><ele>601.0</ele><time>2026-04-27T11:26:29.169Z</time></trkpt><trkpt lat="39.7221421" lon="21.0362604"><ele>606.0</ele><time>2026-04-27T11:26:30.169Z</time></trkpt><trkpt lat="39.7223808" lon="21.0363162"><ele>611.0</ele><time>2026-04-27T11:26:31.169Z</time></trkpt><trkpt lat="39.7225901" lon="21.036363"><ele>615.0</ele><time>2026-04-27T11:26:32.17Z</time></trkpt><trkpt lat="39.7227638" lon="21.0363984"><ele>619.0</ele><time>2026-04-27T11:26:33.17Z</time></trkpt><trkpt lat="39.7229114" lon="21.0364185"><ele>623.0</ele><time>2026-04-27T11:26:34.17Z</time></trkpt><trkpt lat="39.7230617" lon="21.0363938"><ele>623.0</ele><time>2026-04-27T11:26:35.17Z</time></trkpt><trkpt lat="39.7232218" lon="21.0363302"><ele>623.0</ele><time>2026-04-27T11:26:36.171Z</time></trkpt><trkpt lat="39.7233798" lon="21.0362502"><ele>623.0</ele><time>2026-04-27T11:26:37.171Z</time></trkpt><trkpt lat="39.7235364" lon="21.0361696"><ele>621.0</ele><time>2026-04-27T11:26:38.169Z</time></trkpt><trkpt lat="39.7237044" lon="21.0360976"><ele>619.0</ele><time>2026-04-27T11:26:39.17Z</time></trkpt><trkpt lat="39.7238599" lon="21.0360395"><ele>617.0</ele><time>2026-04-27T11:26:40.17Z</time></trkpt><trkpt lat="39.7240035" lon="21.0359948"><ele>617.0</ele><time>2026-04-27T11:26:41.17Z</time></trkpt><trkpt lat="39.724134" lon="21.035958"><ele>617.0</ele><time>2026-04-27T11:26:42.171Z</time></trkpt><trkpt lat="39.7242447" lon="21.0359415"><ele>617.0</ele><time>2026-04-27T11:26:43.171Z</time></trkpt><trkpt lat="39.7243435" lon="21.0359814"><ele>617.0</ele><time>2026-04-27T11:26:44.171Z</time></trkpt><trkpt lat="39.724434" lon="21.036062"><ele>620.6666666666666</ele><time>2026-04-27T11:26:45.171Z</time></trkpt><trkpt lat="39.7245299" lon="21.0361962"><ele>624.3333333333334</ele><time>2026-04-27T11:26:46.17Z</time></trkpt><trkpt lat="39.7246313" lon="21.0363602"><ele>628.0</ele><time>2026-04-27T11:26:47.17Z</time></trkpt><trkpt lat="39.7247428" lon="21.036557"><ele>624.6666666666667</ele><time>2026-04-27T11:26:48.17Z</time></trkpt><trkpt lat="39.7248507" lon="21.0367435"><ele>621.3333333333334</ele><time>2026-04-27T11:26:49.171Z</time></trkpt><trkpt lat="39.7249501" lon="21.0369137"><ele>618.0</ele><time>2026-04-27T11:26:50.171Z</time></trkpt><trkpt lat="39.7250517" lon="21.0370726"><ele>618.0</ele><time>2026-04-27T11:26:51.17Z</time></trkpt><trkpt lat="39.7251714" lon="21.0372089"><ele>618.0</ele><time>2026-04-27T11:26:52.171Z</time></trkpt><trkpt lat="39.7253146" lon="21.0373135"><ele>618.0</ele><time>2026-04-27T11:26:53.171Z</time></trkpt><trkpt lat="39.7254777" lon="21.037368"><ele>623.0</ele><time>2026-04-27T11:26:54.17Z</time></trkpt><trkpt lat="39.7256583" lon="21.0373969"><ele>628.0</ele><time>2026-04-27T11:26:55.17Z</time></trkpt><trkpt lat="39.725831" lon="21.0374131"><ele>633.0</ele><time>2026-04-27T11:26:56.171Z</time></trkpt><trkpt lat="39.7259834" lon="21.0374374"><ele>637.0</ele><time>2026-04-27T11:26:57.17Z</time></trkpt><trkpt lat="39.726111" lon="21.0375017"><ele>641.0</ele><time>2026-04-27T11:26:58.169Z</time></trkpt><trkpt lat="39.7262244" lon="21.037605"><ele>645.0</ele><time>2026-04-27T11:26:59.17Z</time></trkpt><trkpt lat="39.726348" lon="21.0377734"><ele>645.0</ele><time>2026-04-27T11:27:00.17Z</time></trkpt><trkpt lat="39.7264583" lon="21.0379693"><ele>645.0</ele><time>2026-04-27T11:27:01.169Z</time></trkpt><trkpt lat="39.7265813" lon="21.0381534"><ele>645.0</ele><time>2026-04-27T11:27:02.171Z</time></trkpt><trkpt lat="39.7266933" lon="21.0383283"><ele>647.6666666666666</ele><time>2026-04-27T11:27:03.169Z</time></trkpt><trkpt lat="39.7268335" lon="21.0384988"><ele>650.3333333333333</ele><time>2026-04-27T11:27:04.17Z</time></trkpt><trkpt lat="39.7269833" lon="21.03864"><ele>653.0</ele><time>2026-04-27T11:27:05.166Z</time></trkpt><trkpt lat="39.7271284" lon="21.0387553"><ele>653.0</ele><time>2026-04-27T11:27:06.17Z</time></trkpt><trkpt lat="39.7272533" lon="21.038866"><ele>653.0</ele><time>2026-04-27T11:27:07.171Z</time></trkpt><trkpt lat="39.7273583" lon="21.03899"><ele>653.0</ele><time>2026-04-27T11:27:08.169Z</time></trkpt><trkpt lat="39.7274429" lon="21.0391334"><ele>653.0</ele><time>2026-04-27T11:27:09.17Z</time></trkpt><trkpt lat="39.7274577" lon="21.0393001"><ele>648.0</ele><time>2026-04-27T11:27:10.171Z</time></trkpt><trkpt lat="39.7275027" lon="21.0394671"><ele>643.0</ele><time>2026-04-27T11:27:11.171Z</time></trkpt><trkpt lat="39.7274354" lon="21.0396838"><ele>638.0</ele><time>2026-04-27T11:27:12.168Z</time></trkpt><trkpt lat="39.7274116" lon="21.0398854"><ele>638.75</ele><time>2026-04-27T11:27:13.171Z</time></trkpt><trkpt lat="39.7273571" lon="21.0400654"><ele>639.5</ele><time>2026-04-27T11:27:14.171Z</time></trkpt><trkpt lat="39.7273139" lon="21.0402337"><ele>640.25</ele><time>2026-04-27T11:27:15.17Z</time></trkpt><trkpt lat="39.7272447" lon="21.0403826"><ele>641.0</ele><time>2026-04-27T11:27:16.17Z</time></trkpt><trkpt lat="39.7271344" lon="21.0405048"><ele>641.0</ele><time>2026-04-27T11:27:17.171Z</time></trkpt><trkpt lat="39.7269882" lon="21.0405687"><ele>641.0</ele><time>2026-04-27T11:27:18.171Z</time></trkpt><trkpt lat="39.7268199" lon="21.0405858"><ele>641.0</ele><time>2026-04-27T11:27:19.169Z</time></trkpt><trkpt lat="39.7266508" lon="21.0406359"><ele>640.0</ele><time>2026-04-27T11:27:20.171Z</time></trkpt><trkpt lat="39.7264773" lon="21.0407353"><ele>639.0</ele><time>2026-04-27T11:27:21.17Z</time></trkpt><trkpt lat="39.7263057" lon="21.0408582"><ele>638.0</ele><time>2026-04-27T11:27:22.17Z</time></trkpt><trkpt lat="39.7261263" lon="21.0410147"><ele>634.0</ele><time>2026-04-27T11:27:23.17Z</time></trkpt><trkpt lat="39.7259528" lon="21.0411745"><ele>630.0</ele><time>2026-04-27T11:27:24.171Z</time></trkpt><trkpt lat="39.7258008" lon="21.0413351"><ele>626.0</ele><time>2026-04-27T11:27:25.17Z</time></trkpt><trkpt lat="39.7256719" lon="21.0414999"><ele>630.25</ele><time>2026-04-27T11:27:26.169Z</time></trkpt><trkpt lat="39.7255638" lon="21.0416486"><ele>634.5</ele><time>2026-04-27T11:27:27.17Z</time></trkpt><trkpt lat="39.7254872" lon="21.0417832"><ele>638.75</ele><time>2026-04-27T11:27:28.171Z</time></trkpt><trkpt lat="39.725435" lon="21.0419141"><ele>643.0</ele><time>2026-04-27T11:27:29.171Z</time></trkpt><trkpt lat="39.7254235" lon="21.0420557"><ele>643.0</ele><time>2026-04-27T11:27:30.171Z</time></trkpt><trkpt lat="39.7254518" lon="21.0422097"><ele>643.0</ele><time>2026-04-27T11:27:31.168Z</time></trkpt><trkpt lat="39.7255265" lon="21.0423633"><ele>643.0</ele><time>2026-04-27T11:27:32.168Z</time></trkpt><trkpt lat="39.7256473" lon="21.0425337"><ele>643.0</ele><time>2026-04-27T11:27:33.169Z</time></trkpt><trkpt lat="39.725796" lon="21.042705"><ele>644.0</ele><time>2026-04-27T11:27:34.17Z</time></trkpt><trkpt lat="39.7259677" lon="21.0428723"><ele>645.0</ele><time>2026-04-27T11:27:35.169Z</time></trkpt><trkpt lat="39.7261579" lon="21.0430349"><ele>646.0</ele><time>2026-04-27T11:27:36.17Z</time></trkpt><trkpt lat="39.7263419" lon="21.0431791"><ele>646.3333333333334</ele><time>2026-04-27T11:27:37.17Z</time></trkpt><trkpt lat="39.7265159" lon="21.0432972"><ele>646.6666666666666</ele><time>2026-04-27T11:27:38.17Z</time></trkpt><trkpt lat="39.726682" lon="21.0433851"><ele>647.0</ele><time>2026-04-27T11:27:39.171Z</time></trkpt><trkpt lat="39.7268517" lon="21.0434333"><ele>647.0</ele><time>2026-04-27T11:27:40.17Z</time></trkpt><trkpt lat="39.7270258" lon="21.0434302"><ele>647.0</ele><time>2026-04-27T11:27:41.17Z</time></trkpt><trkpt lat="39.7272097" lon="21.0433841"><ele>647.0</ele><time>2026-04-27T11:27:42.17Z</time></trkpt><trkpt lat="39.7273916" lon="21.0433083"><ele>650.3333333333333</ele><time>2026-04-27T11:27:43.17Z</time></trkpt><trkpt lat="39.7275703" lon="21.0431988"><ele>653.6666666666666</ele><time>2026-04-27T11:27:44.171Z</time></trkpt><trkpt lat="39.727748" lon="21.0430479"><ele>657.0</ele><time>2026-04-27T11:27:45.171Z</time></trkpt><trkpt lat="39.7279228" lon="21.0428739"><ele>657.0</ele><time>2026-04-27T11:27:46.17Z</time></trkpt><trkpt lat="39.7280895" lon="21.0426971"><ele>657.0</ele><time>2026-04-27T11:27:47.17Z</time></trkpt><trkpt lat="39.7282367" lon="21.0425308"><ele>657.0</ele><time>2026-04-27T11:27:48.169Z</time></trkpt><trkpt lat="39.7283731" lon="21.0423641"><ele>652.3333333333334</ele><time>2026-04-27T11:27:49.17Z</time></trkpt><trkpt lat="39.7284948" lon="21.0422019"><ele>647.6666666666667</ele><time>2026-04-27T11:27:50.17Z</time></trkpt><trkpt lat="39.7286084" lon="21.0420201"><ele>643.0</ele><time>2026-04-27T11:27:51.171Z</time></trkpt><trkpt lat="39.7287159" lon="21.0418194"><ele>649.6666666666667</ele><time>2026-04-27T11:27:52.171Z</time></trkpt><trkpt lat="39.728817" lon="21.041622"><ele>656.3333333333334</ele><time>2026-04-27T11:27:53.17Z</time></trkpt><trkpt lat="39.7289115" lon="21.0414529"><ele>663.0</ele><time>2026-04-27T11:27:54.17Z</time></trkpt><trkpt lat="39.7290019" lon="21.0412914"><ele>663.0</ele><time>2026-04-27T11:27:55.171Z</time></trkpt><trkpt lat="39.7291005" lon="21.0411445"><ele>663.0</ele><time>2026-04-27T11:27:56.17Z</time></trkpt><trkpt lat="39.729245" lon="21.0411173"><ele>663.0</ele><time>2026-04-27T11:27:57.169Z</time></trkpt><trkpt lat="39.7293983" lon="21.0410925"><ele>659.0</ele><time>2026-04-27T11:27:58.169Z</time></trkpt><trkpt lat="39.7295694" lon="21.0410973"><ele>655.0</ele><time>2026-04-27T11:27:59.171Z</time></trkpt><trkpt lat="39.7297561" lon="21.0410865"><ele>651.0</ele><time>2026-04-27T11:28:00.17Z</time></trkpt><trkpt lat="39.7299406" lon="21.0410598"><ele>651.0</ele><time>2026-04-27T11:28:01.171Z</time></trkpt><trkpt lat="39.730117" lon="21.0410284"><ele>651.0</ele><time>2026-04-27T11:28:02.17Z</time></trkpt><trkpt lat="39.7302895" lon="21.0410028"><ele>651.0</ele><time>2026-04-27T11:28:03.17Z</time></trkpt><trkpt lat="39.7304576" lon="21.0409828"><ele>651.0</ele><time>2026-04-27T11:28:04.168Z</time></trkpt><trkpt lat="39.7306144" lon="21.0409697"><ele>651.0</ele><time>2026-04-27T11:28:05.171Z</time></trkpt><trkpt lat="39.7307613" lon="21.0409656"><ele>651.0</ele><time>2026-04-27T11:28:06.17Z</time></trkpt><trkpt lat="39.7308951" lon="21.0409843"><ele>651.0</ele><time>2026-04-27T11:28:07.17Z</time></trkpt><trkpt lat="39.7310163" lon="21.0410292"><ele>651.5999999999999</ele><time>2026-04-27T11:28:08.17Z</time></trkpt><trkpt lat="39.7311157" lon="21.0410872"><ele>652.2</ele><time>2026-04-27T11:28:09.171Z</time></trkpt><trkpt lat="39.731206" lon="21.0411545"><ele>652.8</ele><time>2026-04-27T11:28:10.17Z</time></trkpt><trkpt lat="39.7312607" lon="21.0412275"><ele>653.4000000000001</ele><time>2026-04-27T11:28:11.17Z</time></trkpt><trkpt lat="39.731223" lon="21.0413669"><ele>654.0</ele><time>2026-04-27T11:28:12.17Z</time></trkpt><trkpt lat="39.7312057" lon="21.0415153"><ele>654.75</ele><time>2026-04-27T11:28:13.168Z</time></trkpt><trkpt lat="39.7311628" lon="21.0416975"><ele>655.5</ele><time>2026-04-27T11:28:14.171Z</time></trkpt><trkpt lat="39.7311123" lon="21.0418814"><ele>656.25</ele><time>2026-04-27T11:28:15.17Z</time></trkpt><trkpt lat="39.7310588" lon="21.0420631"><ele>657.0</ele><time>2026-04-27T11:28:16.171Z</time></trkpt><trkpt lat="39.7310104" lon="21.042254"><ele>648.0</ele><time>2026-04-27T11:28:17.169Z</time></trkpt><trkpt lat="39.730975" lon="21.0424532"><ele>639.0</ele><time>2026-04-27T11:28:18.168Z</time></trkpt><trkpt lat="39.7309522" lon="21.042657"><ele>630.0</ele><time>2026-04-27T11:28:19.168Z</time></trkpt><trkpt lat="39.7309407" lon="21.0428535"><ele>629.0</ele><time>2026-04-27T11:28:20.17Z</time></trkpt><trkpt lat="39.7309349" lon="21.0430436"><ele>628.0</ele><time>2026-04-27T11:28:21.169Z</time></trkpt><trkpt lat="39.730936" lon="21.0432276"><ele>627.0</ele><time>2026-04-27T11:28:22.169Z</time></trkpt><trkpt lat="39.7309623" lon="21.0433983"><ele>626.0</ele><time>2026-04-27T11:28:23.17Z</time></trkpt><trkpt lat="39.7310163" lon="21.0435622"><ele>632.0</ele><time>2026-04-27T11:28:24.17Z</time></trkpt><trkpt lat="39.731092" lon="21.0436973"><ele>638.0</ele><time>2026-04-27T11:28:25.171Z</time></trkpt><trkpt lat="39.731182" lon="21.0438131"><ele>644.0</ele><time>2026-04-27T11:28:26.17Z</time></trkpt><trkpt lat="39.7312936" lon="21.0439072"><ele>650.0</ele><time>2026-04-27T11:28:27.17Z</time></trkpt><trkpt lat="39.7314229" lon="21.0439735"><ele>650.0</ele><time>2026-04-27T11:28:28.17Z</time></trkpt><trkpt lat="39.7315675" lon="21.0440206"><ele>650.0</ele><time>2026-04-27T11:28:29.171Z</time></trkpt><trkpt lat="39.7317194" lon="21.0440642"><ele>650.0</ele><time>2026-04-27T11:28:30.17Z</time></trkpt><trkpt lat="39.7318646" lon="21.0441098"><ele>643.25</ele><time>2026-04-27T11:28:31.167Z</time></trkpt><trkpt lat="39.7320016" lon="21.0441718"><ele>636.5</ele><time>2026-04-27T11:28:32.171Z</time></trkpt><trkpt lat="39.732127" lon="21.0442541"><ele>629.75</ele><time>2026-04-27T11:28:33.169Z</time></trkpt><trkpt lat="39.7322452" lon="21.0443436"><ele>623.0</ele><time>2026-04-27T11:28:34.169Z</time></trkpt><trkpt lat="39.7323611" lon="21.0443958"><ele>623.0</ele><time>2026-04-27T11:28:35.171Z</time></trkpt><trkpt lat="39.7324764" lon="21.0444082"><ele>623.0</ele><time>2026-04-27T11:28:36.171Z</time></trkpt><trkpt lat="39.7325915" lon="21.0443865"><ele>623.0</ele><time>2026-04-27T11:28:37.171Z</time></trkpt><trkpt lat="39.7326965" lon="21.0443596"><ele>623.0</ele><time>2026-04-27T11:28:38.17Z</time></trkpt><trkpt lat="39.7328004" lon="21.0443543"><ele>623.0</ele><time>2026-04-27T11:28:39.17Z</time></trkpt><trkpt lat="39.7328885" lon="21.0443896"><ele>623.4</ele><time>2026-04-27T11:28:40.171Z</time></trkpt><trkpt lat="39.7329476" lon="21.0444717"><ele>623.8</ele><time>2026-04-27T11:28:41.17Z</time></trkpt><trkpt lat="39.7329876" lon="21.0445873"><ele>624.2</ele><time>2026-04-27T11:28:42.17Z</time></trkpt><trkpt lat="39.7330232" lon="21.0447235"><ele>624.6</ele><time>2026-04-27T11:28:43.171Z</time></trkpt><trkpt lat="39.7330704" lon="21.0448711"><ele>625.0</ele><time>2026-04-27T11:28:44.17Z</time></trkpt><trkpt lat="39.7331281" lon="21.0450326"><ele>625.0</ele><time>2026-04-27T11:28:45.17Z</time></trkpt><trkpt lat="39.7331891" lon="21.0451876"><ele>625.0</ele><time>2026-04-27T11:28:46.168Z</time></trkpt><trkpt lat="39.7332591" lon="21.045328"><ele>625.0</ele><time>2026-04-27T11:28:47.17Z</time></trkpt><trkpt lat="39.7333498" lon="21.0454433"><ele>625.0</ele><time>2026-04-27T11:28:48.17Z</time></trkpt><trkpt lat="39.7334672" lon="21.0455139"><ele>629.5</ele><time>2026-04-27T11:28:49.17Z</time></trkpt><trkpt lat="39.7336016" lon="21.0455419"><ele>634.0</ele><time>2026-04-27T11:28:50.17Z</time></trkpt><trkpt lat="39.7337411" lon="21.045552"><ele>638.5</ele><time>2026-04-27T11:28:51.169Z</time></trkpt><trkpt lat="39.7338788" lon="21.0455718"><ele>643.0</ele><time>2026-04-27T11:28:52.168Z</time></trkpt><trkpt lat="39.734006" lon="21.0456186"><ele>643.0</ele><time>2026-04-27T11:28:53.17Z</time></trkpt><trkpt lat="39.7341175" lon="21.0456947"><ele>643.0</ele><time>2026-04-27T11:28:54.17Z</time></trkpt><trkpt lat="39.7342244" lon="21.0458151"><ele>643.0</ele><time>2026-04-27T11:28:55.169Z</time></trkpt><trkpt lat="39.7343366" lon="21.0459861"><ele>643.0</ele><time>2026-04-27T11:28:56.169Z</time></trkpt><trkpt lat="39.734444" lon="21.0461663"><ele>644.3333333333334</ele><time>2026-04-27T11:28:57.171Z</time></trkpt><trkpt lat="39.7345683" lon="21.0463615"><ele>645.6666666666666</ele><time>2026-04-27T11:28:58.17Z</time></trkpt><trkpt lat="39.7346948" lon="21.0465558"><ele>647.0</ele><time>2026-04-27T11:28:59.17Z</time></trkpt><trkpt lat="39.7348182" lon="21.0467448"><ele>642.0</ele><time>2026-04-27T11:29:00.17Z</time></trkpt><trkpt lat="39.7349306" lon="21.0469221"><ele>637.0</ele><time>2026-04-27T11:29:01.167Z</time></trkpt><trkpt lat="39.7350426" lon="21.0470911"><ele>632.0</ele><time>2026-04-27T11:29:02.171Z</time></trkpt><trkpt lat="39.7351549" lon="21.0472443"><ele>633.75</ele><time>2026-04-27T11:29:03.17Z</time></trkpt><trkpt lat="39.7352728" lon="21.0473724"><ele>635.5</ele><time>2026-04-27T11:29:04.17Z</time></trkpt><trkpt lat="39.7353812" lon="21.0474607"><ele>637.25</ele><time>2026-04-27T11:29:05.17Z</time></trkpt><trkpt lat="39.7354907" lon="21.0475097"><ele>639.0</ele><time>2026-04-27T11:29:06.17Z</time></trkpt><trkpt lat="39.735599" lon="21.0474906"><ele>639.0</ele><time>2026-04-27T11:29:07.17Z</time></trkpt><trkpt lat="39.7357028" lon="21.0474349"><ele>639.0</ele><time>2026-04-27T11:29:08.171Z</time></trkpt><trkpt lat="39.7358025" lon="21.0473516"><ele>639.0</ele><time>2026-04-27T11:29:09.169Z</time></trkpt><trkpt lat="39.7358995" lon="21.0472685"><ele>639.0</ele><time>2026-04-27T11:29:10.17Z</time></trkpt><trkpt lat="39.7359919" lon="21.0471973"><ele>638.2</ele><time>2026-04-27T11:29:11.17Z</time></trkpt><trkpt lat="39.7360743" lon="21.0471618"><ele>637.4</ele><time>2026-04-27T11:29:12.171Z</time></trkpt><trkpt lat="39.7361451" lon="21.047171"><ele>636.6</ele><time>2026-04-27T11:29:13.168Z</time></trkpt><trkpt lat="39.7362617" lon="21.0472512"><ele>635.8</ele><time>2026-04-27T11:29:15.17Z</time></trkpt><trkpt lat="39.7363371" lon="21.0473077"><ele>635.0</ele><time>2026-04-27T11:29:16.17Z</time></trkpt><trkpt lat="39.7363992" lon="21.0473665"><ele>635.0</ele><time>2026-04-27T11:29:17.169Z</time></trkpt><trkpt lat="39.7364354" lon="21.0474345"><ele>635.0</ele><time>2026-04-27T11:29:18.171Z</time></trkpt><trkpt lat="39.7364652" lon="21.0475902"><ele>635.0</ele><time>2026-04-27T11:29:20.171Z</time></trkpt><trkpt lat="39.7364306" lon="21.0477016"><ele>635.0</ele><time>2026-04-27T11:29:21.17Z</time></trkpt><trkpt lat="39.7363545" lon="21.0478151"><ele>635.0</ele><time>2026-04-27T11:29:22.169Z</time></trkpt><trkpt lat="39.7363038" lon="21.0479529"><ele>634.5</ele><time>2026-04-27T11:29:23.169Z</time></trkpt><trkpt lat="39.7362835" lon="21.0480977"><ele>634.0</ele><time>2026-04-27T11:29:24.171Z</time></trkpt><trkpt lat="39.7362906" lon="21.048261"><ele>633.5</ele><time>2026-04-27T11:29:25.171Z</time></trkpt><trkpt lat="39.7363245" lon="21.0484288"><ele>633.0</ele><time>2026-04-27T11:29:26.171Z</time></trkpt><trkpt lat="39.7363592" lon="21.0485739"><ele>634.0</ele><time>2026-04-27T11:29:27.171Z</time></trkpt><trkpt lat="39.7363841" lon="21.0487188"><ele>635.0</ele><time>2026-04-27T11:29:28.168Z</time></trkpt><trkpt lat="39.7363735" lon="21.0488673"><ele>636.0</ele><time>2026-04-27T11:29:29.17Z</time></trkpt><trkpt lat="39.7363381" lon="21.0490134"><ele>637.0</ele><time>2026-04-27T11:29:30.171Z</time></trkpt><trkpt lat="39.7362756" lon="21.0491453"><ele>638.75</ele><time>2026-04-27T11:29:31.17Z</time></trkpt><trkpt lat="39.7361953" lon="21.0492754"><ele>640.5</ele><time>2026-04-27T11:29:32.17Z</time></trkpt><trkpt lat="39.7361259" lon="21.049409"><ele>642.25</ele><time>2026-04-27T11:29:33.17Z</time></trkpt><trkpt lat="39.7360729" lon="21.0495494"><ele>644.0</ele><time>2026-04-27T11:29:34.17Z</time></trkpt><trkpt lat="39.73604" lon="21.0497032"><ele>635.0</ele><time>2026-04-27T11:29:35.17Z</time></trkpt><trkpt lat="39.7360233" lon="21.0498711"><ele>626.0</ele><time>2026-04-27T11:29:36.17Z</time></trkpt><trkpt lat="39.7360196" lon="21.0500497"><ele>617.0</ele><time>2026-04-27T11:29:37.171Z</time></trkpt><trkpt lat="39.7360224" lon="21.0502425"><ele>608.0</ele><time>2026-04-27T11:29:38.17Z</time></trkpt><trkpt lat="39.7360304" lon="21.0504413"><ele>608.0</ele><time>2026-04-27T11:29:39.171Z</time></trkpt><trkpt lat="39.7360442" lon="21.0506503"><ele>608.0</ele><time>2026-04-27T11:29:40.169Z</time></trkpt><trkpt lat="39.7360604" lon="21.0508689"><ele>608.0</ele><time>2026-04-27T11:29:41.171Z</time></trkpt><trkpt lat="39.7360758" lon="21.0510952"><ele>614.3333333333333</ele><time>2026-04-27T11:29:42.169Z</time></trkpt><trkpt lat="39.7360912" lon="21.0513306"><ele>620.6666666666666</ele><time>2026-04-27T11:29:43.169Z</time></trkpt><trkpt lat="39.7361059" lon="21.0515729"><ele>627.0</ele><time>2026-04-27T11:29:44.17Z</time></trkpt><trkpt lat="39.7361265" lon="21.0518185"><ele>627.0</ele><time>2026-04-27T11:29:45.171Z</time></trkpt><trkpt lat="39.7361434" lon="21.0520524"><ele>627.0</ele><time>2026-04-27T11:29:46.171Z</time></trkpt><trkpt lat="39.7361617" lon="21.0522736"><ele>627.0</ele><time>2026-04-27T11:29:47.17Z</time></trkpt><trkpt lat="39.736186" lon="21.0524896"><ele>626.6666666666666</ele><time>2026-04-27T11:29:48.171Z</time></trkpt><trkpt lat="39.736228" lon="21.0527034"><ele>626.3333333333333</ele><time>2026-04-27T11:29:49.17Z</time></trkpt><trkpt lat="39.7362945" lon="21.0529095"><ele>626.0</ele><time>2026-04-27T11:29:50.168Z</time></trkpt><trkpt lat="39.7363786" lon="21.0531087"><ele>623.3333333333333</ele><time>2026-04-27T11:29:51.167Z</time></trkpt><trkpt lat="39.7364859" lon="21.0532952"><ele>620.6666666666666</ele><time>2026-04-27T11:29:52.168Z</time></trkpt><trkpt lat="39.7366156" lon="21.053476"><ele>618.0</ele><time>2026-04-27T11:29:53.168Z</time></trkpt><trkpt lat="39.7367489" lon="21.0536482"><ele>618.0</ele><time>2026-04-27T11:29:54.168Z</time></trkpt><trkpt lat="39.7368803" lon="21.053821"><ele>618.0</ele><time>2026-04-27T11:29:55.171Z</time></trkpt><trkpt lat="39.7370099" lon="21.0539955"><ele>618.0</ele><time>2026-04-27T11:29:56.167Z</time></trkpt><trkpt lat="39.7371358" lon="21.0541676"><ele>620.0</ele><time>2026-04-27T11:29:57.167Z</time></trkpt><trkpt lat="39.7372553" lon="21.0543451"><ele>622.0</ele><time>2026-04-27T11:29:58.17Z</time></trkpt><trkpt lat="39.7373639" lon="21.0545286"><ele>624.0</ele><time>2026-04-27T11:29:59.168Z</time></trkpt><trkpt lat="39.7374638" lon="21.0547301"><ele>621.3333333333334</ele><time>2026-04-27T11:30:00.17Z</time></trkpt><trkpt lat="39.7375524" lon="21.0549585"><ele>618.6666666666667</ele><time>2026-04-27T11:30:01.167Z</time></trkpt><trkpt lat="39.7376303" lon="21.0551983"><ele>616.0</ele><time>2026-04-27T11:30:02.17Z</time></trkpt><trkpt lat="39.7377029" lon="21.0554456"><ele>620.6666666666667</ele><time>2026-04-27T11:30:03.169Z</time></trkpt><trkpt lat="39.7377786" lon="21.055695"><ele>625.3333333333334</ele><time>2026-04-27T11:30:04.17Z</time></trkpt><trkpt lat="39.7378579" lon="21.0559447"><ele>630.0</ele><time>2026-04-27T11:30:05.17Z</time></trkpt><trkpt lat="39.737938" lon="21.0561891"><ele>630.0</ele><time>2026-04-27T11:30:06.169Z</time></trkpt><trkpt lat="39.7380247" lon="21.0564284"><ele>630.0</ele><time>2026-04-27T11:30:07.169Z</time></trkpt><trkpt lat="39.7381147" lon="21.0566644"><ele>630.0</ele><time>2026-04-27T11:30:08.17Z</time></trkpt><trkpt lat="39.7382073" lon="21.0569026"><ele>627.3333333333334</ele><time>2026-04-27T11:30:09.169Z</time></trkpt><trkpt lat="39.7382965" lon="21.0571361"><ele>624.6666666666667</ele><time>2026-04-27T11:30:10.169Z</time></trkpt><trkpt lat="39.7383815" lon="21.0573706"><ele>622.0</ele><time>2026-04-27T11:30:11.17Z</time></trkpt><trkpt lat="39.7384573" lon="21.0576053"><ele>620.0</ele><time>2026-04-27T11:30:12.17Z</time></trkpt><trkpt lat="39.738521" lon="21.0578427"><ele>618.0</ele><time>2026-04-27T11:30:13.168Z</time></trkpt><trkpt lat="39.7385658" lon="21.0580806"><ele>616.0</ele><time>2026-04-27T11:30:14.17Z</time></trkpt><trkpt lat="39.7385968" lon="21.0583215"><ele>625.0</ele><time>2026-04-27T11:30:15.171Z</time></trkpt><trkpt lat="39.7386062" lon="21.0585546"><ele>634.0</ele><time>2026-04-27T11:30:16.169Z</time></trkpt><trkpt lat="39.738607" lon="21.0587756"><ele>643.0</ele><time>2026-04-27T11:30:17.169Z</time></trkpt><trkpt lat="39.7385926" lon="21.0589781"><ele>641.0</ele><time>2026-04-27T11:30:18.169Z</time></trkpt><trkpt lat="39.7385879" lon="21.0591654"><ele>639.0</ele><time>2026-04-27T11:30:19.17Z</time></trkpt><trkpt lat="39.7386204" lon="21.0593472"><ele>637.0</ele><time>2026-04-27T11:30:20.171Z</time></trkpt><trkpt lat="39.7386776" lon="21.059542"><ele>635.0</ele><time>2026-04-27T11:30:21.166Z</time></trkpt><trkpt lat="39.7387659" lon="21.0597559"><ele>633.0</ele><time>2026-04-27T11:30:22.17Z</time></trkpt><trkpt lat="39.7388599" lon="21.0599895"><ele>631.0</ele><time>2026-04-27T11:30:23.169Z</time></trkpt><trkpt lat="39.7389556" lon="21.0602497"><ele>629.0</ele><time>2026-04-27T11:30:24.171Z</time></trkpt><trkpt lat="39.739043" lon="21.0605127"><ele>629.0</ele><time>2026-04-27T11:30:25.168Z</time></trkpt><trkpt lat="39.739114" lon="21.0607699"><ele>629.0</ele><time>2026-04-27T11:30:26.167Z</time></trkpt><trkpt lat="39.7391624" lon="21.0610327"><ele>629.0</ele><time>2026-04-27T11:30:27.167Z</time></trkpt><trkpt lat="39.7392108" lon="21.061295"><ele>628.3333333333333</ele><time>2026-04-27T11:30:28.166Z</time></trkpt><trkpt lat="39.739202" lon="21.0615767"><ele>627.6666666666666</ele><time>2026-04-27T11:30:29.166Z</time></trkpt><trkpt lat="39.7391927" lon="21.0618221"><ele>627.0</ele><time>2026-04-27T11:30:30.167Z</time></trkpt><trkpt lat="39.7391915" lon="21.0620684"><ele>626.6666666666666</ele><time>2026-04-27T11:30:31.167Z</time></trkpt><trkpt lat="39.7392027" lon="21.0623237"><ele>626.3333333333333</ele><time>2026-04-27T11:30:32.169Z</time></trkpt><trkpt lat="39.7392351" lon="21.0625898"><ele>626.0</ele><time>2026-04-27T11:30:33.17Z</time></trkpt><trkpt lat="39.7392946" lon="21.0628502"><ele>628.3333333333333</ele><time>2026-04-27T11:30:34.169Z</time></trkpt><trkpt lat="39.7393689" lon="21.0631047"><ele>630.6666666666666</ele><time>2026-04-27T11:30:35.169Z</time></trkpt><trkpt lat="39.7394497" lon="21.0633552"><ele>633.0</ele><time>2026-04-27T11:30:36.17Z</time></trkpt><trkpt lat="39.7395299" lon="21.0636104"><ele>638.0</ele><time>2026-04-27T11:30:37.169Z</time></trkpt><trkpt lat="39.7396131" lon="21.063881"><ele>643.0</ele><time>2026-04-27T11:30:38.17Z</time></trkpt><trkpt lat="39.7397008" lon="21.0641628"><ele>643.0</ele><time>2026-04-27T11:30:39.169Z</time></trkpt><trkpt lat="39.7397896" lon="21.0644434"><ele>643.0</ele><time>2026-04-27T11:30:40.17Z</time></trkpt><trkpt lat="39.7398771" lon="21.0647094"><ele>639.0</ele><time>2026-04-27T11:30:41.167Z</time></trkpt><trkpt lat="39.7399599" lon="21.0649641"><ele>635.0</ele><time>2026-04-27T11:30:42.17Z</time></trkpt><trkpt lat="39.7400371" lon="21.0652126"><ele>631.0</ele><time>2026-04-27T11:30:43.166Z</time></trkpt><trkpt lat="39.7401137" lon="21.0654456"><ele>631.0</ele><time>2026-04-27T11:30:44.169Z</time></trkpt><trkpt lat="39.7401967" lon="21.0656796"><ele>631.0</ele><time>2026-04-27T11:30:45.168Z</time></trkpt><trkpt lat="39.7402908" lon="21.0658941"><ele>631.0</ele><time>2026-04-27T11:30:46.17Z</time></trkpt><trkpt lat="39.7403968" lon="21.0660885"><ele>635.0</ele><time>2026-04-27T11:30:47.169Z</time></trkpt><trkpt lat="39.740521" lon="21.0662613"><ele>639.0</ele><time>2026-04-27T11:30:48.17Z</time></trkpt><trkpt lat="39.740667" lon="21.0664102"><ele>643.0</ele><time>2026-04-27T11:30:49.169Z</time></trkpt><trkpt lat="39.7408364" lon="21.0665373"><ele>639.3333333333334</ele><time>2026-04-27T11:30:50.17Z</time></trkpt><trkpt lat="39.7410206" lon="21.0666483"><ele>635.6666666666666</ele><time>2026-04-27T11:30:51.169Z</time></trkpt><trkpt lat="39.741207" lon="21.06676"><ele>632.0</ele><time>2026-04-27T11:30:52.17Z</time></trkpt><trkpt lat="39.7414059" lon="21.0668679"><ele>632.0</ele><time>2026-04-27T11:30:53.171Z</time></trkpt><trkpt lat="39.7416042" lon="21.0669716"><ele>632.0</ele><time>2026-04-27T11:30:54.171Z</time></trkpt><trkpt lat="39.7417939" lon="21.067072"><ele>632.0</ele><time>2026-04-27T11:30:55.17Z</time></trkpt><trkpt lat="39.7419701" lon="21.0671667"><ele>634.6666666666666</ele><time>2026-04-27T11:30:56.169Z</time></trkpt><trkpt lat="39.7421365" lon="21.0672529"><ele>637.3333333333334</ele><time>2026-04-27T11:30:57.169Z</time></trkpt><trkpt lat="39.7423065" lon="21.0673279"><ele>640.0</ele><time>2026-04-27T11:30:58.167Z</time></trkpt><trkpt lat="39.7424818" lon="21.0673749"><ele>640.0</ele><time>2026-04-27T11:30:59.17Z</time></trkpt><trkpt lat="39.7426616" lon="21.067381"><ele>640.0</ele><time>2026-04-27T11:31:00.169Z</time></trkpt><trkpt lat="39.7428416" lon="21.0673479"><ele>640.0</ele><time>2026-04-27T11:31:01.169Z</time></trkpt><trkpt lat="39.743017" lon="21.0672718"><ele>637.0</ele><time>2026-04-27T11:31:02.168Z</time></trkpt><trkpt lat="39.7431898" lon="21.0671625"><ele>634.0</ele><time>2026-04-27T11:31:03.17Z</time></trkpt><trkpt lat="39.7433503" lon="21.0670447"><ele>631.0</ele><time>2026-04-27T11:31:04.169Z</time></trkpt><trkpt lat="39.7435003" lon="21.0669378"><ele>629.6666666666667</ele><time>2026-04-27T11:31:05.17Z</time></trkpt><trkpt lat="39.7436501" lon="21.0668518"><ele>628.3333333333334</ele><time>2026-04-27T11:31:06.169Z</time></trkpt><trkpt lat="39.7438059" lon="21.0667955"><ele>627.0</ele><time>2026-04-27T11:31:07.17Z</time></trkpt><trkpt lat="39.7439676" lon="21.0667821"><ele>627.0</ele><time>2026-04-27T11:31:08.17Z</time></trkpt><trkpt lat="39.7441292" lon="21.0668106"><ele>627.0</ele><time>2026-04-27T11:31:09.169Z</time></trkpt><trkpt lat="39.7442812" lon="21.0668799"><ele>627.0</ele><time>2026-04-27T11:31:10.171Z</time></trkpt><trkpt lat="39.7444287" lon="21.066997"><ele>624.6666666666666</ele><time>2026-04-27T11:31:11.169Z</time></trkpt><trkpt lat="39.7445712" lon="21.0671551"><ele>622.3333333333333</ele><time>2026-04-27T11:31:12.171Z</time></trkpt><trkpt lat="39.7447103" lon="21.0673461"><ele>620.0</ele><time>2026-04-27T11:31:13.168Z</time></trkpt><trkpt lat="39.744837" lon="21.0675542"><ele>620.0</ele><time>2026-04-27T11:31:14.17Z</time></trkpt><trkpt lat="39.7449484" lon="21.0677812"><ele>620.0</ele><time>2026-04-27T11:31:15.169Z</time></trkpt><trkpt lat="39.7450412" lon="21.0680179"><ele>620.0</ele><time>2026-04-27T11:31:16.17Z</time></trkpt><trkpt lat="39.7451149" lon="21.0682451"><ele>619.0</ele><time>2026-04-27T11:31:17.169Z</time></trkpt><trkpt lat="39.7451769" lon="21.0684656"><ele>618.0</ele><time>2026-04-27T11:31:18.169Z</time></trkpt><trkpt lat="39.7452363" lon="21.0686667"><ele>617.0</ele><time>2026-04-27T11:31:19.17Z</time></trkpt><trkpt lat="39.745299" lon="21.0688276"><ele>622.0</ele><time>2026-04-27T11:31:20.169Z</time></trkpt><trkpt lat="39.7453809" lon="21.0689548"><ele>627.0</ele><time>2026-04-27T11:31:21.169Z</time></trkpt><trkpt lat="39.7454879" lon="21.0690462"><ele>632.0</ele><time>2026-04-27T11:31:22.17Z</time></trkpt><trkpt lat="39.7456169" lon="21.0690987"><ele>637.0</ele><time>2026-04-27T11:31:23.17Z</time></trkpt><trkpt lat="39.7457695" lon="21.0690871"><ele>637.0</ele><time>2026-04-27T11:31:24.171Z</time></trkpt><trkpt lat="39.7459226" lon="21.0690159"><ele>637.0</ele><time>2026-04-27T11:31:25.169Z</time></trkpt><trkpt lat="39.746072" lon="21.068909"><ele>637.0</ele><time>2026-04-27T11:31:26.17Z</time></trkpt><trkpt lat="39.7462208" lon="21.0687899"><ele>636.75</ele><time>2026-04-27T11:31:27.171Z</time></trkpt><trkpt lat="39.7463655" lon="21.0686982"><ele>636.5</ele><time>2026-04-27T11:31:28.17Z</time></trkpt><trkpt lat="39.7465091" lon="21.0686485"><ele>636.25</ele><time>2026-04-27T11:31:29.17Z</time></trkpt><trkpt lat="39.7466369" lon="21.0686207"><ele>636.0</ele><time>2026-04-27T11:31:30.17Z</time></trkpt><trkpt lat="39.7467539" lon="21.0686902"><ele>636.0</ele><time>2026-04-27T11:31:31.17Z</time></trkpt><trkpt lat="39.7468585" lon="21.0687791"><ele>636.0</ele><time>2026-04-27T11:31:32.17Z</time></trkpt><trkpt lat="39.746947" lon="21.0689109"><ele>636.0</ele><time>2026-04-27T11:31:33.171Z</time></trkpt><trkpt lat="39.7470076" lon="21.0690735"><ele>636.0</ele><time>2026-04-27T11:31:34.166Z</time></trkpt><trkpt lat="39.74703" lon="21.0692812"><ele>634.6666666666666</ele><time>2026-04-27T11:31:35.169Z</time></trkpt><trkpt lat="39.7470478" lon="21.0695136"><ele>633.3333333333333</ele><time>2026-04-27T11:31:36.169Z</time></trkpt><trkpt lat="39.7470691" lon="21.0697408"><ele>632.0</ele><time>2026-04-27T11:31:37.171Z</time></trkpt><trkpt lat="39.7471053" lon="21.0699718"><ele>632.0</ele><time>2026-04-27T11:31:38.171Z</time></trkpt><trkpt lat="39.7471477" lon="21.0701855"><ele>632.0</ele><time>2026-04-27T11:31:39.17Z</time></trkpt><trkpt lat="39.7472078" lon="21.0703939"><ele>632.0</ele><time>2026-04-27T11:31:40.169Z</time></trkpt><trkpt lat="39.7472883" lon="21.0706002"><ele>631.3333333333333</ele><time>2026-04-27T11:31:41.169Z</time></trkpt><trkpt lat="39.7473914" lon="21.0708122"><ele>630.6666666666666</ele><time>2026-04-27T11:31:42.17Z</time></trkpt><trkpt lat="39.7475164" lon="21.0710282"><ele>630.0</ele><time>2026-04-27T11:31:43.169Z</time></trkpt><trkpt lat="39.7476485" lon="21.0712506"><ele>630.0</ele><time>2026-04-27T11:31:44.169Z</time></trkpt><trkpt lat="39.7477852" lon="21.0714754"><ele>630.0</ele><time>2026-04-27T11:31:45.169Z</time></trkpt><trkpt lat="39.7479201" lon="21.071706"><ele>630.0</ele><time>2026-04-27T11:31:46.17Z</time></trkpt><trkpt lat="39.7480465" lon="21.0719367"><ele>630.0</ele><time>2026-04-27T11:31:47.17Z</time></trkpt><trkpt lat="39.7481672" lon="21.0721682"><ele>630.0</ele><time>2026-04-27T11:31:48.169Z</time></trkpt><trkpt lat="39.7482809" lon="21.0723871"><ele>630.0</ele><time>2026-04-27T11:31:49.169Z</time></trkpt><trkpt lat="39.7483855" lon="21.072581"><ele>628.6666666666666</ele><time>2026-04-27T11:31:50.169Z</time></trkpt><trkpt lat="39.748484" lon="21.072754"><ele>627.3333333333333</ele><time>2026-04-27T11:31:51.168Z</time></trkpt><trkpt lat="39.74859" lon="21.0729106"><ele>626.0</ele><time>2026-04-27T11:31:52.169Z</time></trkpt><trkpt lat="39.748708" lon="21.0730595"><ele>628.0</ele><time>2026-04-27T11:31:53.169Z</time></trkpt><trkpt lat="39.748835" lon="21.0732132"><ele>630.0</ele><time>2026-04-27T11:31:54.169Z</time></trkpt><trkpt lat="39.7489749" lon="21.0733718"><ele>632.0</ele><time>2026-04-27T11:31:55.171Z</time></trkpt><trkpt lat="39.7491271" lon="21.0735318"><ele>632.0</ele><time>2026-04-27T11:31:56.17Z</time></trkpt><trkpt lat="39.7492882" lon="21.0736986"><ele>632.0</ele><time>2026-04-27T11:31:57.17Z</time></trkpt><trkpt lat="39.7494551" lon="21.0738721"><ele>632.0</ele><time>2026-04-27T11:31:58.17Z</time></trkpt><trkpt lat="39.7496269" lon="21.0740481"><ele>632.0</ele><time>2026-04-27T11:31:59.171Z</time></trkpt><trkpt lat="39.7497949" lon="21.0742221"><ele>632.0</ele><time>2026-04-27T11:32:00.17Z</time></trkpt><trkpt lat="39.7499669" lon="21.0743932"><ele>632.0</ele><time>2026-04-27T11:32:01.17Z</time></trkpt><trkpt lat="39.7501284" lon="21.0745622"><ele>634.0</ele><time>2026-04-27T11:32:02.17Z</time></trkpt><trkpt lat="39.7502845" lon="21.0747285"><ele>636.0</ele><time>2026-04-27T11:32:03.17Z</time></trkpt><trkpt lat="39.7504377" lon="21.0748964"><ele>638.0</ele><time>2026-04-27T11:32:04.167Z</time></trkpt><trkpt lat="39.7505828" lon="21.0750652"><ele>638.0</ele><time>2026-04-27T11:32:05.17Z</time></trkpt><trkpt lat="39.750728" lon="21.0752396"><ele>638.0</ele><time>2026-04-27T11:32:06.169Z</time></trkpt><trkpt lat="39.7508697" lon="21.075415"><ele>638.0</ele><time>2026-04-27T11:32:07.168Z</time></trkpt><trkpt lat="39.7510093" lon="21.075593"><ele>638.6666666666666</ele><time>2026-04-27T11:32:08.171Z</time></trkpt><trkpt lat="39.751147" lon="21.0757759"><ele>639.3333333333334</ele><time>2026-04-27T11:32:09.169Z</time></trkpt><trkpt lat="39.7512841" lon="21.0759606"><ele>640.0</ele><time>2026-04-27T11:32:10.168Z</time></trkpt><trkpt lat="39.7514253" lon="21.0761505"><ele>640.0</ele><time>2026-04-27T11:32:11.171Z</time></trkpt><trkpt lat="39.7515605" lon="21.0763378"><ele>640.0</ele><time>2026-04-27T11:32:12.171Z</time></trkpt><trkpt lat="39.7516893" lon="21.0765157"><ele>640.0</ele><time>2026-04-27T11:32:13.17Z</time></trkpt><trkpt lat="39.7518124" lon="21.0766864"><ele>641.0</ele><time>2026-04-27T11:32:14.169Z</time></trkpt><trkpt lat="39.7519311" lon="21.0768636"><ele>642.0</ele><time>2026-04-27T11:32:15.169Z</time></trkpt><trkpt lat="39.7520513" lon="21.0770437"><ele>643.0</ele><time>2026-04-27T11:32:16.169Z</time></trkpt><trkpt lat="39.7521719" lon="21.0772322"><ele>643.0</ele><time>2026-04-27T11:32:17.171Z</time></trkpt><trkpt lat="39.7522955" lon="21.077422"><ele>643.0</ele><time>2026-04-27T11:32:18.17Z</time></trkpt><trkpt lat="39.7524241" lon="21.0776127"><ele>643.0</ele><time>2026-04-27T11:32:19.17Z</time></trkpt><trkpt lat="39.7525544" lon="21.0778103"><ele>642.6666666666667</ele><time>2026-04-27T11:32:20.171Z</time></trkpt><trkpt lat="39.7526862" lon="21.0780149"><ele>642.3333333333334</ele><time>2026-04-27T11:32:21.171Z</time></trkpt><trkpt lat="39.7528211" lon="21.0782263"><ele>642.0</ele><time>2026-04-27T11:32:22.169Z</time></trkpt><trkpt lat="39.752956" lon="21.0784401"><ele>641.6666666666666</ele><time>2026-04-27T11:32:23.168Z</time></trkpt><trkpt lat="39.7530903" lon="21.0786534"><ele>641.3333333333333</ele><time>2026-04-27T11:32:24.171Z</time></trkpt><trkpt lat="39.7532157" lon="21.0788512"><ele>641.0</ele><time>2026-04-27T11:32:25.169Z</time></trkpt><trkpt lat="39.7533309" lon="21.0790378"><ele>640.6666666666666</ele><time>2026-04-27T11:32:26.17Z</time></trkpt><trkpt lat="39.7534372" lon="21.0792257"><ele>640.3333333333334</ele><time>2026-04-27T11:32:27.166Z</time></trkpt><trkpt lat="39.7535326" lon="21.079426"><ele>640.0</ele><time>2026-04-27T11:32:28.17Z</time></trkpt><trkpt lat="39.7536158" lon="21.0796379"><ele>640.0</ele><time>2026-04-27T11:32:29.17Z</time></trkpt><trkpt lat="39.7536868" lon="21.079865"><ele>640.0</ele><time>2026-04-27T11:32:30.167Z</time></trkpt><trkpt lat="39.7537454" lon="21.0801139"><ele>640.0</ele><time>2026-04-27T11:32:31.168Z</time></trkpt><trkpt lat="39.753792" lon="21.0803732"><ele>640.0</ele><time>2026-04-27T11:32:32.17Z</time></trkpt><trkpt lat="39.7538315" lon="21.0806398"><ele>640.0</ele><time>2026-04-27T11:32:33.169Z</time></trkpt><trkpt lat="39.7538678" lon="21.0809059"><ele>640.0</ele><time>2026-04-27T11:32:34.168Z</time></trkpt><trkpt lat="39.7539032" lon="21.0811701"><ele>640.0</ele><time>2026-04-27T11:32:35.169Z</time></trkpt><trkpt lat="39.7539368" lon="21.0814285"><ele>640.0</ele><time>2026-04-27T11:32:36.168Z</time></trkpt><trkpt lat="39.7539699" lon="21.0816833"><ele>640.0</ele><time>2026-04-27T11:32:37.171Z</time></trkpt><trkpt lat="39.7540089" lon="21.0819342"><ele>641.3333333333334</ele><time>2026-04-27T11:32:38.168Z</time></trkpt><trkpt lat="39.7540567" lon="21.082179"><ele>642.6666666666666</ele><time>2026-04-27T11:32:39.169Z</time></trkpt><trkpt lat="39.7541219" lon="21.0824195"><ele>644.0</ele><time>2026-04-27T11:32:40.169Z</time></trkpt><trkpt lat="39.7542027" lon="21.0826543"><ele>644.0</ele><time>2026-04-27T11:32:41.171Z</time></trkpt><trkpt lat="39.7542983" lon="21.0828769"><ele>644.0</ele><time>2026-04-27T11:32:42.171Z</time></trkpt><trkpt lat="39.7544044" lon="21.0830939"><ele>644.0</ele><time>2026-04-27T11:32:43.169Z</time></trkpt><trkpt lat="39.7545121" lon="21.0833057"><ele>645.3333333333333</ele><time>2026-04-27T11:32:44.17Z</time></trkpt><trkpt lat="39.7546243" lon="21.0835114"><ele>646.6666666666666</ele><time>2026-04-27T11:32:45.17Z</time></trkpt><trkpt lat="39.7547297" lon="21.0837066"><ele>648.0</ele><time>2026-04-27T11:32:46.17Z</time></trkpt><trkpt lat="39.7548357" lon="21.0838849"><ele>648.0</ele><time>2026-04-27T11:32:47.17Z</time></trkpt><trkpt lat="39.7549425" lon="21.0840467"><ele>648.0</ele><time>2026-04-27T11:32:48.165Z</time></trkpt><trkpt lat="39.7550594" lon="21.0841893"><ele>648.0</ele><time>2026-04-27T11:32:49.168Z</time></trkpt><trkpt lat="39.7551962" lon="21.0843128"><ele>650.0</ele><time>2026-04-27T11:32:50.169Z</time></trkpt><trkpt lat="39.7553372" lon="21.0844156"><ele>652.0</ele><time>2026-04-27T11:32:51.17Z</time></trkpt><trkpt lat="39.7554761" lon="21.0844912"><ele>654.0</ele><time>2026-04-27T11:32:52.171Z</time></trkpt><trkpt lat="39.7556128" lon="21.0845455"><ele>654.0</ele><time>2026-04-27T11:32:53.17Z</time></trkpt><trkpt lat="39.7557435" lon="21.0845853"><ele>654.0</ele><time>2026-04-27T11:32:54.17Z</time></trkpt><trkpt lat="39.7558645" lon="21.0846141"><ele>654.0</ele><time>2026-04-27T11:32:55.166Z</time></trkpt><trkpt lat="39.755979" lon="21.0846362"><ele>654.0</ele><time>2026-04-27T11:32:56.17Z</time></trkpt><trkpt lat="39.7560847" lon="21.0846555"><ele>656.4000000000001</ele><time>2026-04-27T11:32:57.17Z</time></trkpt><trkpt lat="39.7561838" lon="21.0846699"><ele>658.8</ele><time>2026-04-27T11:32:58.166Z</time></trkpt><trkpt lat="39.7562779" lon="21.0846828"><ele>661.2</ele><time>2026-04-27T11:32:59.171Z</time></trkpt><trkpt lat="39.7563603" lon="21.0846949"><ele>663.5999999999999</ele><time>2026-04-27T11:33:00.17Z</time></trkpt><trkpt lat="39.7564343" lon="21.084704"><ele>666.0</ele><time>2026-04-27T11:33:01.169Z</time></trkpt><trkpt lat="39.7565487" lon="21.0847152"><ele>666.0</ele><time>2026-04-27T11:33:03.167Z</time></trkpt><trkpt lat="39.7566832" lon="21.0847395"><ele>666.0</ele><time>2026-04-27T11:33:05.169Z</time></trkpt><trkpt lat="39.7567809" lon="21.0847521"><ele>666.0</ele><time>2026-04-27T11:33:06.168Z</time></trkpt><trkpt lat="39.7569044" lon="21.0847587"><ele>666.0</ele><time>2026-04-27T11:33:07.169Z</time></trkpt><trkpt lat="39.7570387" lon="21.0847677"><ele>663.6666666666666</ele><time>2026-04-27T11:33:08.168Z</time></trkpt><trkpt lat="39.7571775" lon="21.0847762"><ele>661.3333333333333</ele><time>2026-04-27T11:33:09.169Z</time></trkpt><trkpt lat="39.7573396" lon="21.08479"><ele>659.0</ele><time>2026-04-27T11:33:10.17Z</time></trkpt><trkpt lat="39.7575354" lon="21.0848031"><ele>659.6666666666666</ele><time>2026-04-27T11:33:11.168Z</time></trkpt><trkpt lat="39.7577347" lon="21.0848158"><ele>660.3333333333334</ele><time>2026-04-27T11:33:12.17Z</time></trkpt><trkpt lat="39.7579396" lon="21.084823"><ele>661.0</ele><time>2026-04-27T11:33:13.171Z</time></trkpt><trkpt lat="39.7581307" lon="21.0848291"><ele>661.0</ele><time>2026-04-27T11:33:14.169Z</time></trkpt><trkpt lat="39.7583194" lon="21.0848437"><ele>661.0</ele><time>2026-04-27T11:33:15.171Z</time></trkpt><trkpt lat="39.7584961" lon="21.0848744"><ele>661.0</ele><time>2026-04-27T11:33:16.17Z</time></trkpt><trkpt lat="39.7586616" lon="21.0849244"><ele>656.0</ele><time>2026-04-27T11:33:17.168Z</time></trkpt><trkpt lat="39.7588106" lon="21.0850003"><ele>651.0</ele><time>2026-04-27T11:33:18.169Z</time></trkpt><trkpt lat="39.758948" lon="21.0851032"><ele>646.0</ele><time>2026-04-27T11:33:19.168Z</time></trkpt><trkpt lat="39.7590718" lon="21.0852194"><ele>646.0</ele><time>2026-04-27T11:33:20.169Z</time></trkpt><trkpt lat="39.7591845" lon="21.0853496"><ele>646.0</ele><time>2026-04-27T11:33:21.169Z</time></trkpt><trkpt lat="39.7592905" lon="21.0854983"><ele>646.0</ele><time>2026-04-27T11:33:22.167Z</time></trkpt><trkpt lat="39.7593864" lon="21.0856498"><ele>646.5</ele><time>2026-04-27T11:33:23.171Z</time></trkpt><trkpt lat="39.7594771" lon="21.0858114"><ele>647.0</ele><time>2026-04-27T11:33:24.171Z</time></trkpt><trkpt lat="39.7595602" lon="21.0859654"><ele>647.5</ele><time>2026-04-27T11:33:25.169Z</time></trkpt><trkpt lat="39.7596327" lon="21.0861168"><ele>648.0</ele><time>2026-04-27T11:33:26.169Z</time></trkpt><trkpt lat="39.7596956" lon="21.0862703"><ele>648.0</ele><time>2026-04-27T11:33:27.169Z</time></trkpt><trkpt lat="39.7597411" lon="21.0864236"><ele>648.0</ele><time>2026-04-27T11:33:28.17Z</time></trkpt><trkpt lat="39.7597592" lon="21.0865831"><ele>648.0</ele><time>2026-04-27T11:33:29.168Z</time></trkpt><trkpt lat="39.7597578" lon="21.086747"><ele>648.0</ele><time>2026-04-27T11:33:30.168Z</time></trkpt><trkpt lat="39.7597344" lon="21.0869108"><ele>648.5</ele><time>2026-04-27T11:33:31.169Z</time></trkpt><trkpt lat="39.7596811" lon="21.0870696"><ele>649.0</ele><time>2026-04-27T11:33:32.168Z</time></trkpt><trkpt lat="39.7596182" lon="21.0872267"><ele>649.5</ele><time>2026-04-27T11:33:33.169Z</time></trkpt><trkpt lat="39.7595589" lon="21.0873872"><ele>650.0</ele><time>2026-04-27T11:33:34.171Z</time></trkpt><trkpt lat="39.7595097" lon="21.0875505"><ele>652.25</ele><time>2026-04-27T11:33:35.168Z</time></trkpt><trkpt lat="39.7594789" lon="21.0877146"><ele>654.5</ele><time>2026-04-27T11:33:36.17Z</time></trkpt><trkpt lat="39.7594791" lon="21.0878796"><ele>656.75</ele><time>2026-04-27T11:33:37.171Z</time></trkpt><trkpt lat="39.7595105" lon="21.0880506"><ele>659.0</ele><time>2026-04-27T11:33:38.17Z</time></trkpt><trkpt lat="39.7595737" lon="21.0882144"><ele>658.0</ele><time>2026-04-27T11:33:39.167Z</time></trkpt><trkpt lat="39.7596663" lon="21.0883631"><ele>657.0</ele><time>2026-04-27T11:33:40.169Z</time></trkpt><trkpt lat="39.7597804" lon="21.0884934"><ele>656.0</ele><time>2026-04-27T11:33:41.167Z</time></trkpt><trkpt lat="39.7598966" lon="21.0886129"><ele>655.0</ele><time>2026-04-27T11:33:42.168Z</time></trkpt><trkpt lat="39.7600114" lon="21.0887302"><ele>655.0</ele><time>2026-04-27T11:33:43.167Z</time></trkpt><trkpt lat="39.7601256" lon="21.0888531"><ele>655.0</ele><time>2026-04-27T11:33:44.17Z</time></trkpt><trkpt lat="39.7602325" lon="21.0889865"><ele>655.0</ele><time>2026-04-27T11:33:45.17Z</time></trkpt><trkpt lat="39.7603243" lon="21.0891416"><ele>655.0</ele><time>2026-04-27T11:33:46.169Z</time></trkpt><trkpt lat="39.760395" lon="21.0893183"><ele>654.6666666666667</ele><time>2026-04-27T11:33:47.171Z</time></trkpt><trkpt lat="39.7604475" lon="21.0895084"><ele>654.3333333333334</ele><time>2026-04-27T11:33:48.17Z</time></trkpt><trkpt lat="39.7604805" lon="21.0897118"><ele>654.0</ele><time>2026-04-27T11:33:49.17Z</time></trkpt><trkpt lat="39.7605089" lon="21.0899262"><ele>653.0</ele><time>2026-04-27T11:33:50.17Z</time></trkpt><trkpt lat="39.7605407" lon="21.0901443"><ele>652.0</ele><time>2026-04-27T11:33:51.17Z</time></trkpt><trkpt lat="39.7605723" lon="21.0903545"><ele>651.0</ele><time>2026-04-27T11:33:52.171Z</time></trkpt><trkpt lat="39.7606191" lon="21.0905451"><ele>651.0</ele><time>2026-04-27T11:33:53.17Z</time></trkpt><trkpt lat="39.7606911" lon="21.0907222"><ele>651.0</ele><time>2026-04-27T11:33:54.169Z</time></trkpt><trkpt lat="39.7607884" lon="21.0908964"><ele>651.0</ele><time>2026-04-27T11:33:55.17Z</time></trkpt><trkpt lat="39.7609111" lon="21.0910653"><ele>651.0</ele><time>2026-04-27T11:33:56.169Z</time></trkpt><trkpt lat="39.7610548" lon="21.0912306"><ele>651.0</ele><time>2026-04-27T11:33:57.17Z</time></trkpt><trkpt lat="39.7612121" lon="21.0913927"><ele>651.0</ele><time>2026-04-27T11:33:58.169Z</time></trkpt><trkpt lat="39.761375" lon="21.0915553"><ele>651.3333333333334</ele><time>2026-04-27T11:33:59.168Z</time></trkpt><trkpt lat="39.7615349" lon="21.0917176"><ele>651.6666666666667</ele><time>2026-04-27T11:34:00.169Z</time></trkpt><trkpt lat="39.7616969" lon="21.0918836"><ele>652.0</ele><time>2026-04-27T11:34:01.168Z</time></trkpt><trkpt lat="39.7618658" lon="21.0920554"><ele>652.0</ele><time>2026-04-27T11:34:02.169Z</time></trkpt><trkpt lat="39.7620359" lon="21.0922318"><ele>652.0</ele><time>2026-04-27T11:34:03.171Z</time></trkpt><trkpt lat="39.7622092" lon="21.0924058"><ele>652.0</ele><time>2026-04-27T11:34:04.169Z</time></trkpt><trkpt lat="39.7623789" lon="21.0925797"><ele>652.3333333333334</ele><time>2026-04-27T11:34:05.168Z</time></trkpt><trkpt lat="39.762544" lon="21.0927503"><ele>652.6666666666666</ele><time>2026-04-27T11:34:06.17Z</time></trkpt><trkpt lat="39.7627042" lon="21.0929161"><ele>653.0</ele><time>2026-04-27T11:34:07.168Z</time></trkpt><trkpt lat="39.7628639" lon="21.0930867"><ele>654.0</ele><time>2026-04-27T11:34:08.167Z</time></trkpt><trkpt lat="39.7630202" lon="21.0932479"><ele>655.0</ele><time>2026-04-27T11:34:09.17Z</time></trkpt><trkpt lat="39.7631753" lon="21.0934047"><ele>656.0</ele><time>2026-04-27T11:34:10.169Z</time></trkpt><trkpt lat="39.763331" lon="21.0935634"><ele>656.6666666666666</ele><time>2026-04-27T11:34:11.17Z</time></trkpt><trkpt lat="39.763488" lon="21.0937271"><ele>657.3333333333334</ele><time>2026-04-27T11:34:12.169Z</time></trkpt><trkpt lat="39.763645" lon="21.0938876"><ele>658.0</ele><time>2026-04-27T11:34:13.169Z</time></trkpt><trkpt lat="39.7637958" lon="21.094047"><ele>659.0</ele><time>2026-04-27T11:34:14.167Z</time></trkpt><trkpt lat="39.7639423" lon="21.094207"><ele>660.0</ele><time>2026-04-27T11:34:15.167Z</time></trkpt><trkpt lat="39.7640852" lon="21.0943703"><ele>661.0</ele><time>2026-04-27T11:34:16.17Z</time></trkpt><trkpt lat="39.7642233" lon="21.0945326"><ele>661.0</ele><time>2026-04-27T11:34:17.17Z</time></trkpt><trkpt lat="39.7643538" lon="21.0946992"><ele>661.0</ele><time>2026-04-27T11:34:18.169Z</time></trkpt><trkpt lat="39.7644772" lon="21.0948704"><ele>661.0</ele><time>2026-04-27T11:34:19.169Z</time></trkpt><trkpt lat="39.764595" lon="21.0950428"><ele>663.6666666666667</ele><time>2026-04-27T11:34:20.168Z</time></trkpt><trkpt lat="39.7647081" lon="21.0952069"><ele>666.3333333333334</ele><time>2026-04-27T11:34:21.168Z</time></trkpt><trkpt lat="39.7648218" lon="21.095362"><ele>669.0</ele><time>2026-04-27T11:34:22.17Z</time></trkpt><trkpt lat="39.7649396" lon="21.0955039"><ele>669.0</ele><time>2026-04-27T11:34:23.171Z</time></trkpt><trkpt lat="39.7650591" lon="21.095621"><ele>669.0</ele><time>2026-04-27T11:34:24.17Z</time></trkpt><trkpt lat="39.7651867" lon="21.0957139"><ele>669.0</ele><time>2026-04-27T11:34:25.171Z</time></trkpt><trkpt lat="39.7653244" lon="21.0957817"><ele>669.0</ele><time>2026-04-27T11:34:26.17Z</time></trkpt><trkpt lat="39.7654641" lon="21.0958313"><ele>668.75</ele><time>2026-04-27T11:34:27.167Z</time></trkpt><trkpt lat="39.7655935" lon="21.0958629"><ele>668.5</ele><time>2026-04-27T11:34:28.169Z</time></trkpt><trkpt lat="39.7657122" lon="21.0958865"><ele>668.25</ele><time>2026-04-27T11:34:29.169Z</time></trkpt><trkpt lat="39.7658223" lon="21.0959187"><ele>668.0</ele><time>2026-04-27T11:34:30.168Z</time></trkpt><trkpt lat="39.7659169" lon="21.0959748"><ele>668.0</ele><time>2026-04-27T11:34:31.17Z</time></trkpt><trkpt lat="39.7660078" lon="21.0960495"><ele>668.0</ele><time>2026-04-27T11:34:32.169Z</time></trkpt><trkpt lat="39.766072" lon="21.0961681"><ele>668.0</ele><time>2026-04-27T11:34:33.168Z</time></trkpt><trkpt lat="39.7661288" lon="21.0963095"><ele>668.0</ele><time>2026-04-27T11:34:34.169Z</time></trkpt><trkpt lat="39.7661778" lon="21.0964675"><ele>667.5</ele><time>2026-04-27T11:34:35.168Z</time></trkpt><trkpt lat="39.7662195" lon="21.0966381"><ele>667.0</ele><time>2026-04-27T11:34:36.17Z</time></trkpt><trkpt lat="39.766246" lon="21.096813"><ele>666.5</ele><time>2026-04-27T11:34:37.167Z</time></trkpt><trkpt lat="39.7662575" lon="21.0969953"><ele>666.0</ele><time>2026-04-27T11:34:38.168Z</time></trkpt><trkpt lat="39.7662616" lon="21.0971838"><ele>666.0</ele><time>2026-04-27T11:34:39.166Z</time></trkpt><trkpt lat="39.7662544" lon="21.0973795"><ele>666.0</ele><time>2026-04-27T11:34:40.167Z</time></trkpt><trkpt lat="39.7662464" lon="21.0975875"><ele>666.0</ele><time>2026-04-27T11:34:41.169Z</time></trkpt><trkpt lat="39.7662391" lon="21.097807"><ele>672.6666666666666</ele><time>2026-04-27T11:34:42.171Z</time></trkpt><trkpt lat="39.7662313" lon="21.0980368"><ele>679.3333333333333</ele><time>2026-04-27T11:34:43.17Z</time></trkpt><trkpt lat="39.7662223" lon="21.0982739"><ele>686.0</ele><time>2026-04-27T11:34:44.169Z</time></trkpt><trkpt lat="39.7662071" lon="21.0985163"><ele>686.6666666666666</ele><time>2026-04-27T11:34:45.169Z</time></trkpt><trkpt lat="39.766188" lon="21.0987638"><ele>687.3333333333334</ele><time>2026-04-27T11:34:46.17Z</time></trkpt><trkpt lat="39.7661685" lon="21.0990011"><ele>688.0</ele><time>2026-04-27T11:34:47.168Z</time></trkpt><trkpt lat="39.7661448" lon="21.0992365"><ele>689.6666666666667</ele><time>2026-04-27T11:34:48.169Z</time></trkpt><trkpt lat="39.7661144" lon="21.0994747"><ele>691.3333333333334</ele><time>2026-04-27T11:34:49.169Z</time></trkpt><trkpt lat="39.7660776" lon="21.0997185"><ele>693.0</ele><time>2026-04-27T11:34:50.169Z</time></trkpt><trkpt lat="39.7660365" lon="21.0999656"><ele>684.6666666666666</ele><time>2026-04-27T11:34:51.17Z</time></trkpt><trkpt lat="39.7659932" lon="21.1002125"><ele>676.3333333333333</ele><time>2026-04-27T11:34:52.171Z</time></trkpt><trkpt lat="39.7659446" lon="21.1004631"><ele>668.0</ele><time>2026-04-27T11:34:53.17Z</time></trkpt><trkpt lat="39.7658914" lon="21.1007112"><ele>670.0</ele><time>2026-04-27T11:34:54.169Z</time></trkpt><trkpt lat="39.7658363" lon="21.100956"><ele>672.0</ele><time>2026-04-27T11:34:55.17Z</time></trkpt><trkpt lat="39.7657817" lon="21.1012"><ele>674.0</ele><time>2026-04-27T11:34:56.168Z</time></trkpt><trkpt lat="39.7657303" lon="21.1014329"><ele>676.3333333333333</ele><time>2026-04-27T11:34:57.17Z</time></trkpt><trkpt lat="39.7656854" lon="21.1016467"><ele>678.6666666666666</ele><time>2026-04-27T11:34:58.166Z</time></trkpt><trkpt lat="39.7656543" lon="21.1018547"><ele>681.0</ele><time>2026-04-27T11:34:59.169Z</time></trkpt><trkpt lat="39.7656493" lon="21.1020719"><ele>681.0</ele><time>2026-04-27T11:35:00.169Z</time></trkpt><trkpt lat="39.765669" lon="21.1022947"><ele>681.0</ele><time>2026-04-27T11:35:01.171Z</time></trkpt><trkpt lat="39.7657137" lon="21.1025054"><ele>681.0</ele><time>2026-04-27T11:35:02.17Z</time></trkpt><trkpt lat="39.7657849" lon="21.1026966"><ele>680.3333333333334</ele><time>2026-04-27T11:35:03.168Z</time></trkpt><trkpt lat="39.7658786" lon="21.1028635"><ele>679.6666666666667</ele><time>2026-04-27T11:35:04.168Z</time></trkpt><trkpt lat="39.7659954" lon="21.103004"><ele>679.0</ele><time>2026-04-27T11:35:05.168Z</time></trkpt><trkpt lat="39.766125" lon="21.1031266"><ele>680.0</ele><time>2026-04-27T11:35:06.17Z</time></trkpt><trkpt lat="39.7662705" lon="21.1032114"><ele>681.0</ele><time>2026-04-27T11:35:07.167Z</time></trkpt><trkpt lat="39.7664316" lon="21.1032627"><ele>682.0</ele><time>2026-04-27T11:35:08.167Z</time></trkpt><trkpt lat="39.7666006" lon="21.1032848"><ele>682.0</ele><time>2026-04-27T11:35:09.168Z</time></trkpt><trkpt lat="39.7667741" lon="21.1032979"><ele>682.0</ele><time>2026-04-27T11:35:10.17Z</time></trkpt><trkpt lat="39.7669477" lon="21.1033076"><ele>682.0</ele><time>2026-04-27T11:35:11.166Z</time></trkpt><trkpt lat="39.7671193" lon="21.1033119"><ele>683.5</ele><time>2026-04-27T11:35:12.168Z</time></trkpt><trkpt lat="39.7672758" lon="21.103312"><ele>685.0</ele><time>2026-04-27T11:35:13.169Z</time></trkpt><trkpt lat="39.7674217" lon="21.1033155"><ele>686.5</ele><time>2026-04-27T11:35:14.169Z</time></trkpt><trkpt lat="39.7675553" lon="21.1033426"><ele>688.0</ele><time>2026-04-27T11:35:15.171Z</time></trkpt><trkpt lat="39.767676" lon="21.1033941"><ele>689.0</ele><time>2026-04-27T11:35:16.168Z</time></trkpt><trkpt lat="39.7677863" lon="21.1034772"><ele>690.0</ele><time>2026-04-27T11:35:17.169Z</time></trkpt><trkpt lat="39.7678802" lon="21.1035701"><ele>691.0</ele><time>2026-04-27T11:35:18.171Z</time></trkpt><trkpt lat="39.7679516" lon="21.1036943"><ele>692.0</ele><time>2026-04-27T11:35:19.169Z</time></trkpt><trkpt lat="39.7679967" lon="21.1038589"><ele>692.0</ele><time>2026-04-27T11:35:20.168Z</time></trkpt><trkpt lat="39.7679288" lon="21.1040536"><ele>692.0</ele><time>2026-04-27T11:35:21.17Z</time></trkpt><trkpt lat="39.767871" lon="21.1042356"><ele>692.0</ele><time>2026-04-27T11:35:22.167Z</time></trkpt><trkpt lat="39.7677954" lon="21.1044053"><ele>689.3333333333333</ele><time>2026-04-27T11:35:23.17Z</time></trkpt><trkpt lat="39.7676829" lon="21.1045298"><ele>686.6666666666666</ele><time>2026-04-27T11:35:24.17Z</time></trkpt><trkpt lat="39.7674953" lon="21.1045861"><ele>684.0</ele><time>2026-04-27T11:35:25.17Z</time></trkpt><trkpt lat="39.7673601" lon="21.1047037"><ele>684.0</ele><time>2026-04-27T11:35:26.17Z</time></trkpt><trkpt lat="39.7672427" lon="21.1048473"><ele>684.0</ele><time>2026-04-27T11:35:27.166Z</time></trkpt><trkpt lat="39.7671439" lon="21.1050155"><ele>684.0</ele><time>2026-04-27T11:35:28.168Z</time></trkpt><trkpt lat="39.7670809" lon="21.1052063"><ele>690.0</ele><time>2026-04-27T11:35:29.168Z</time></trkpt><trkpt lat="39.7670417" lon="21.1054347"><ele>696.0</ele><time>2026-04-27T11:35:30.171Z</time></trkpt><trkpt lat="39.7670211" lon="21.1057204"><ele>702.0</ele><time>2026-04-27T11:35:31.17Z</time></trkpt><trkpt lat="39.7670212" lon="21.1060444"><ele>706.0</ele><time>2026-04-27T11:35:32.169Z</time></trkpt><trkpt lat="39.7670399" lon="21.1063962"><ele>710.0</ele><time>2026-04-27T11:35:33.169Z</time></trkpt><trkpt lat="39.7670668" lon="21.1067695"><ele>711.5</ele><time>2026-04-27T11:35:34.168Z</time></trkpt><trkpt lat="39.7670969" lon="21.1071076"><ele>713.0</ele><time>2026-04-27T11:35:35.17Z</time></trkpt><trkpt lat="39.7671198" lon="21.1074273"><ele>713.3333333333333</ele><time>2026-04-27T11:35:36.17Z</time></trkpt><trkpt lat="39.7671466" lon="21.1077019"><ele>713.6666666666666</ele><time>2026-04-27T11:35:37.17Z</time></trkpt><trkpt lat="39.7671811" lon="21.1079554"><ele>714.0</ele><time>2026-04-27T11:35:38.169Z</time></trkpt><trkpt lat="39.7672361" lon="21.1082132"><ele>714.0</ele><time>2026-04-27T11:35:39.169Z</time></trkpt><trkpt lat="39.767321" lon="21.1084816"><ele>714.0</ele><time>2026-04-27T11:35:40.169Z</time></trkpt><trkpt lat="39.7674319" lon="21.1087515"><ele>714.0</ele><time>2026-04-27T11:35:41.169Z</time></trkpt><trkpt lat="39.7675693" lon="21.1090271"><ele>714.0</ele><time>2026-04-27T11:35:42.17Z</time></trkpt><trkpt lat="39.767719" lon="21.109309"><ele>726.0</ele><time>2026-04-27T11:35:43.171Z</time></trkpt><trkpt lat="39.7678746" lon="21.1095921"><ele>738.0</ele><time>2026-04-27T11:35:44.17Z</time></trkpt><trkpt lat="39.7680325" lon="21.1098718"><ele>729.5</ele><time>2026-04-27T11:35:45.17Z</time></trkpt><trkpt lat="39.7681821" lon="21.1101404"><ele>721.0</ele><time>2026-04-27T11:35:46.169Z</time></trkpt><trkpt lat="39.7683225" lon="21.1103919"><ele>721.0</ele><time>2026-04-27T11:35:47.169Z</time></trkpt><trkpt lat="39.7684589" lon="21.1106331"><ele>721.0</ele><time>2026-04-27T11:35:48.168Z</time></trkpt><trkpt lat="39.768589" lon="21.1108599"><ele>721.0</ele><time>2026-04-27T11:35:49.17Z</time></trkpt><trkpt lat="39.7687096" lon="21.1110686"><ele>725.0</ele><time>2026-04-27T11:35:50.17Z</time></trkpt><trkpt lat="39.7688089" lon="21.111276"><ele>729.0</ele><time>2026-04-27T11:35:51.17Z</time></trkpt><trkpt lat="39.7689141" lon="21.1114793"><ele>733.0</ele><time>2026-04-27T11:35:52.167Z</time></trkpt><trkpt lat="39.7690286" lon="21.1116754"><ele>733.0</ele><time>2026-04-27T11:35:53.169Z</time></trkpt><trkpt lat="39.7691312" lon="21.1118577"><ele>733.0</ele><time>2026-04-27T11:35:54.169Z</time></trkpt><trkpt lat="39.7692231" lon="21.1120245"><ele>733.0</ele><time>2026-04-27T11:35:55.17Z</time></trkpt><trkpt lat="39.7693001" lon="21.1121736"><ele>733.0</ele><time>2026-04-27T11:35:56.169Z</time></trkpt><trkpt lat="39.7693579" lon="21.1123152"><ele>733.0</ele><time>2026-04-27T11:35:57.17Z</time></trkpt><trkpt lat="39.7693967" lon="21.1124525"><ele>733.0</ele><time>2026-04-27T11:35:58.17Z</time></trkpt><trkpt lat="39.7694124" lon="21.1125837"><ele>733.0</ele><time>2026-04-27T11:35:59.167Z</time></trkpt><trkpt lat="39.7693897" lon="21.1127076"><ele>733.0</ele><time>2026-04-27T11:36:00.17Z</time></trkpt><trkpt lat="39.7693038" lon="21.1128539"><ele>732.25</ele><time>2026-04-27T11:36:01.168Z</time></trkpt><trkpt lat="39.7692024" lon="21.1129607"><ele>731.5</ele><time>2026-04-27T11:36:02.168Z</time></trkpt><trkpt lat="39.7690336" lon="21.1129237"><ele>730.75</ele><time>2026-04-27T11:36:03.169Z</time></trkpt><trkpt lat="39.7688892" lon="21.1129495"><ele>730.0</ele><time>2026-04-27T11:36:04.168Z</time></trkpt><trkpt lat="39.7687423" lon="21.1129501"><ele>730.0</ele><time>2026-04-27T11:36:05.17Z</time></trkpt><trkpt lat="39.768579" lon="21.1129187"><ele>730.0</ele><time>2026-04-27T11:36:06.167Z</time></trkpt><trkpt lat="39.7683968" lon="21.1129"><ele>730.0</ele><time>2026-04-27T11:36:07.17Z</time></trkpt><trkpt lat="39.7681696" lon="21.1127749"><ele>731.0</ele><time>2026-04-27T11:36:08.169Z</time></trkpt><trkpt lat="39.7679954" lon="21.1126948"><ele>732.0</ele><time>2026-04-27T11:36:09.169Z</time></trkpt><trkpt lat="39.7678342" lon="21.1126084"><ele>733.0</ele><time>2026-04-27T11:36:10.166Z</time></trkpt><trkpt lat="39.7676916" lon="21.1125139"><ele>732.5</ele><time>2026-04-27T11:36:11.168Z</time></trkpt><trkpt lat="39.7675986" lon="21.1123809"><ele>732.0</ele><time>2026-04-27T11:36:12.166Z</time></trkpt><trkpt lat="39.7674675" lon="21.112337"><ele>731.5</ele><time>2026-04-27T11:36:13.169Z</time></trkpt><trkpt lat="39.767347" lon="21.1123464"><ele>731.0</ele><time>2026-04-27T11:36:14.17Z</time></trkpt><trkpt lat="39.7672372" lon="21.1124055"><ele>734.25</ele><time>2026-04-27T11:36:15.166Z</time></trkpt><trkpt lat="39.7671461" lon="21.1125114"><ele>737.5</ele><time>2026-04-27T11:36:16.167Z</time></trkpt><trkpt lat="39.7670867" lon="21.1126438"><ele>740.75</ele><time>2026-04-27T11:36:17.168Z</time></trkpt><trkpt lat="39.767067" lon="21.1127958"><ele>744.0</ele><time>2026-04-27T11:36:18.169Z</time></trkpt><trkpt lat="39.7670754" lon="21.1129848"><ele>744.0</ele><time>2026-04-27T11:36:19.168Z</time></trkpt><trkpt lat="39.7671248" lon="21.1131908"><ele>744.0</ele><time>2026-04-27T11:36:20.167Z</time></trkpt><trkpt lat="39.76718" lon="21.1134032"><ele>744.0</ele><time>2026-04-27T11:36:21.168Z</time></trkpt><trkpt lat="39.7672124" lon="21.113645"><ele>748.0</ele><time>2026-04-27T11:36:22.168Z</time></trkpt><trkpt lat="39.7672193" lon="21.1139335"><ele>752.0</ele><time>2026-04-27T11:36:23.166Z</time></trkpt><trkpt lat="39.7672233" lon="21.1142333"><ele>758.5</ele><time>2026-04-27T11:36:24.17Z</time></trkpt><trkpt lat="39.7672299" lon="21.1145307"><ele>765.0</ele><time>2026-04-27T11:36:25.167Z</time></trkpt><trkpt lat="39.767238" lon="21.1148448"><ele>766.6666666666667</ele><time>2026-04-27T11:36:26.17Z</time></trkpt><trkpt lat="39.7672562" lon="21.1151305"><ele>768.3333333333334</ele><time>2026-04-27T11:36:27.169Z</time></trkpt><trkpt lat="39.7672788" lon="21.1153943"><ele>770.0</ele><time>2026-04-27T11:36:28.166Z</time></trkpt><trkpt lat="39.7673072" lon="21.115644"><ele>771.6666666666667</ele><time>2026-04-27T11:36:29.166Z</time></trkpt><trkpt lat="39.7673462" lon="21.1158675"><ele>773.3333333333333</ele><time>2026-04-27T11:36:30.167Z</time></trkpt><trkpt lat="39.7673692" lon="21.1160975"><ele>775.0</ele><time>2026-04-27T11:36:31.169Z</time></trkpt><trkpt lat="39.7673755" lon="21.116346"><ele>776.6666666666666</ele><time>2026-04-27T11:36:32.167Z</time></trkpt><trkpt lat="39.7673571" lon="21.1165954"><ele>778.3333333333333</ele><time>2026-04-27T11:36:33.17Z</time></trkpt><trkpt lat="39.7673271" lon="21.1168335"><ele>780.0</ele><time>2026-04-27T11:36:34.167Z</time></trkpt><trkpt lat="39.7672859" lon="21.1170437"><ele>780.0</ele><time>2026-04-27T11:36:35.169Z</time></trkpt><trkpt lat="39.7672355" lon="21.1172334"><ele>780.0</ele><time>2026-04-27T11:36:36.169Z</time></trkpt><trkpt lat="39.7671806" lon="21.1174007"><ele>780.0</ele><time>2026-04-27T11:36:37.169Z</time></trkpt><trkpt lat="39.7671311" lon="21.1175444"><ele>780.0</ele><time>2026-04-27T11:36:38.166Z</time></trkpt><trkpt lat="39.7670986" lon="21.117687"><ele>780.75</ele><time>2026-04-27T11:36:39.167Z</time></trkpt><trkpt lat="39.7671055" lon="21.1178262"><ele>781.5</ele><time>2026-04-27T11:36:40.17Z</time></trkpt><trkpt lat="39.7671457" lon="21.117987"><ele>782.25</ele><time>2026-04-27T11:36:41.169Z</time></trkpt><trkpt lat="39.7672155" lon="21.1181431"><ele>783.0</ele><time>2026-04-27T11:36:42.17Z</time></trkpt><trkpt lat="39.7672665" lon="21.1182785"><ele>781.8</ele><time>2026-04-27T11:36:43.168Z</time></trkpt><trkpt lat="39.7672943" lon="21.1184059"><ele>780.5999999999999</ele><time>2026-04-27T11:36:44.168Z</time></trkpt><trkpt lat="39.7673004" lon="21.118519"><ele>779.4000000000001</ele><time>2026-04-27T11:36:45.166Z</time></trkpt><trkpt lat="39.7672858" lon="21.1186111"><ele>778.2</ele><time>2026-04-27T11:36:46.169Z</time></trkpt><trkpt lat="39.7672346" lon="21.1187623"><ele>777.0</ele><time>2026-04-27T11:36:48.168Z</time></trkpt><trkpt lat="39.7671903" lon="21.1188516"><ele>777.0</ele><time>2026-04-27T11:36:49.169Z</time></trkpt><trkpt lat="39.7671399" lon="21.1189517"><ele>777.0</ele><time>2026-04-27T11:36:50.167Z</time></trkpt><trkpt lat="39.7670838" lon="21.1190628"><ele>777.0</ele><time>2026-04-27T11:36:51.17Z</time></trkpt><trkpt lat="39.7670309" lon="21.1191862"><ele>777.0</ele><time>2026-04-27T11:36:52.17Z</time></trkpt><trkpt lat="39.7669835" lon="21.1193241"><ele>777.0</ele><time>2026-04-27T11:36:53.17Z</time></trkpt><trkpt lat="39.7669494" lon="21.1194769"><ele>778.5</ele><time>2026-04-27T11:36:54.17Z</time></trkpt><trkpt lat="39.7669353" lon="21.1196401"><ele>780.0</ele><time>2026-04-27T11:36:55.167Z</time></trkpt><trkpt lat="39.7669395" lon="21.1198023"><ele>781.5</ele><time>2026-04-27T11:36:56.169Z</time></trkpt><trkpt lat="39.7669574" lon="21.1199694"><ele>783.0</ele><time>2026-04-27T11:36:57.169Z</time></trkpt><trkpt lat="39.7669754" lon="21.120144"><ele>784.25</ele><time>2026-04-27T11:36:58.168Z</time></trkpt><trkpt lat="39.7669877" lon="21.1203103"><ele>785.5</ele><time>2026-04-27T11:36:59.169Z</time></trkpt><trkpt lat="39.7669929" lon="21.120465"><ele>786.75</ele><time>2026-04-27T11:37:00.17Z</time></trkpt><trkpt lat="39.7669868" lon="21.1206059"><ele>788.0</ele><time>2026-04-27T11:37:01.168Z</time></trkpt><trkpt lat="39.7669602" lon="21.1207415"><ele>789.25</ele><time>2026-04-27T11:37:02.169Z</time></trkpt><trkpt lat="39.7668972" lon="21.1208465"><ele>790.5</ele><time>2026-04-27T11:37:03.166Z</time></trkpt><trkpt lat="39.7668246" lon="21.1209343"><ele>791.75</ele><time>2026-04-27T11:37:04.17Z</time></trkpt><trkpt lat="39.7666844" lon="21.1209381"><ele>793.0</ele><time>2026-04-27T11:37:05.169Z</time></trkpt><trkpt lat="39.7665595" lon="21.1208941"><ele>789.0</ele><time>2026-04-27T11:37:06.17Z</time></trkpt><trkpt lat="39.7664394" lon="21.120845"><ele>785.0</ele><time>2026-04-27T11:37:07.168Z</time></trkpt><trkpt lat="39.7663231" lon="21.120762"><ele>781.0</ele><time>2026-04-27T11:37:08.167Z</time></trkpt><trkpt lat="39.766218" lon="21.1206263"><ele>777.0</ele><time>2026-04-27T11:37:09.169Z</time></trkpt><trkpt lat="39.766098" lon="21.1205144"><ele>777.25</ele><time>2026-04-27T11:37:10.171Z</time></trkpt><trkpt lat="39.7659714" lon="21.120425"><ele>777.5</ele><time>2026-04-27T11:37:11.168Z</time></trkpt><trkpt lat="39.7658475" lon="21.1203711"><ele>777.75</ele><time>2026-04-27T11:37:12.17Z</time></trkpt><trkpt lat="39.7657227" lon="21.1203667"><ele>778.0</ele><time>2026-04-27T11:37:13.17Z</time></trkpt><trkpt lat="39.765599" lon="21.1204146"><ele>778.0</ele><time>2026-04-27T11:37:14.169Z</time></trkpt><trkpt lat="39.7654742" lon="21.1205144"><ele>778.0</ele><time>2026-04-27T11:37:15.169Z</time></trkpt><trkpt lat="39.765345" lon="21.1206439"><ele>778.0</ele><time>2026-04-27T11:37:16.169Z</time></trkpt><trkpt lat="39.7652094" lon="21.1207831"><ele>781.6666666666666</ele><time>2026-04-27T11:37:17.168Z</time></trkpt><trkpt lat="39.7650692" lon="21.1209246"><ele>785.3333333333333</ele><time>2026-04-27T11:37:18.168Z</time></trkpt><trkpt lat="39.7649288" lon="21.1210697"><ele>789.0</ele><time>2026-04-27T11:37:19.167Z</time></trkpt><trkpt lat="39.7647974" lon="21.121218"><ele>789.0</ele><time>2026-04-27T11:37:20.168Z</time></trkpt><trkpt lat="39.7646716" lon="21.1213727"><ele>789.0</ele><time>2026-04-27T11:37:21.167Z</time></trkpt><trkpt lat="39.7645522" lon="21.1215356"><ele>789.0</ele><time>2026-04-27T11:37:22.169Z</time></trkpt><trkpt lat="39.7644404" lon="21.1217139"><ele>790.3333333333333</ele><time>2026-04-27T11:37:23.168Z</time></trkpt><trkpt lat="39.7643437" lon="21.1219092"><ele>791.6666666666666</ele><time>2026-04-27T11:37:24.169Z</time></trkpt><trkpt lat="39.7642595" lon="21.1221229"><ele>793.0</ele><time>2026-04-27T11:37:25.167Z</time></trkpt><trkpt lat="39.7641841" lon="21.1223557"><ele>797.3333333333333</ele><time>2026-04-27T11:37:26.167Z</time></trkpt><trkpt lat="39.7641142" lon="21.1226041"><ele>801.6666666666667</ele><time>2026-04-27T11:37:27.166Z</time></trkpt><trkpt lat="39.7640468" lon="21.1228607"><ele>806.0</ele><time>2026-04-27T11:37:28.17Z</time></trkpt><trkpt lat="39.763978" lon="21.1231065"><ele>812.3333333333334</ele><time>2026-04-27T11:37:29.168Z</time></trkpt><trkpt lat="39.7639148" lon="21.1233439"><ele>818.6666666666667</ele><time>2026-04-27T11:37:30.166Z</time></trkpt><trkpt lat="39.7638561" lon="21.1235572"><ele>825.0</ele><time>2026-04-27T11:37:31.17Z</time></trkpt><trkpt lat="39.7638032" lon="21.1237453"><ele>825.0</ele><time>2026-04-27T11:37:32.169Z</time></trkpt><trkpt lat="39.7637335" lon="21.1239102"><ele>825.0</ele><time>2026-04-27T11:37:33.168Z</time></trkpt><trkpt lat="39.7636449" lon="21.1240457"><ele>825.0</ele><time>2026-04-27T11:37:34.168Z</time></trkpt><trkpt lat="39.763533" lon="21.1241578"><ele>825.0</ele><time>2026-04-27T11:37:35.169Z</time></trkpt><trkpt lat="39.7633878" lon="21.1241884"><ele>823.75</ele><time>2026-04-27T11:37:36.168Z</time></trkpt><trkpt lat="39.763242" lon="21.1241979"><ele>822.5</ele><time>2026-04-27T11:37:37.171Z</time></trkpt><trkpt lat="39.7630948" lon="21.1241864"><ele>821.25</ele><time>2026-04-27T11:37:38.17Z</time></trkpt><trkpt lat="39.7629531" lon="21.1241999"><ele>820.0</ele><time>2026-04-27T11:37:39.169Z</time></trkpt><trkpt lat="39.7628237" lon="21.1242504"><ele>820.0</ele><time>2026-04-27T11:37:40.169Z</time></trkpt><trkpt lat="39.7627111" lon="21.1243404"><ele>820.0</ele><time>2026-04-27T11:37:41.169Z</time></trkpt><trkpt lat="39.762622" lon="21.1244521"><ele>820.0</ele><time>2026-04-27T11:37:42.169Z</time></trkpt><trkpt lat="39.7625611" lon="21.1245873"><ele>820.0</ele><time>2026-04-27T11:37:43.167Z</time></trkpt><trkpt lat="39.762528" lon="21.1247606"><ele>821.25</ele><time>2026-04-27T11:37:44.168Z</time></trkpt><trkpt lat="39.7625166" lon="21.1249595"><ele>822.5</ele><time>2026-04-27T11:37:45.168Z</time></trkpt><trkpt lat="39.7625201" lon="21.1251473"><ele>823.75</ele><time>2026-04-27T11:37:46.169Z</time></trkpt><trkpt lat="39.7625227" lon="21.1253326"><ele>825.0</ele><time>2026-04-27T11:37:47.169Z</time></trkpt><trkpt lat="39.7625161" lon="21.1255006"><ele>825.0</ele><time>2026-04-27T11:37:48.17Z</time></trkpt><trkpt lat="39.762485" lon="21.1256676"><ele>825.0</ele><time>2026-04-27T11:37:49.169Z</time></trkpt><trkpt lat="39.7624198" lon="21.1258179"><ele>825.0</ele><time>2026-04-27T11:37:50.169Z</time></trkpt><trkpt lat="39.7623401" lon="21.1259483"><ele>825.0</ele><time>2026-04-27T11:37:51.169Z</time></trkpt><trkpt lat="39.7622373" lon="21.126048"><ele>827.75</ele><time>2026-04-27T11:37:52.168Z</time></trkpt><trkpt lat="39.7621261" lon="21.1260831"><ele>830.5</ele><time>2026-04-27T11:37:53.169Z</time></trkpt><trkpt lat="39.7620059" lon="21.1260906"><ele>833.25</ele><time>2026-04-27T11:37:54.169Z</time></trkpt><trkpt lat="39.7618756" lon="21.1260448"><ele>836.0</ele><time>2026-04-27T11:37:55.17Z</time></trkpt><trkpt lat="39.7617369" lon="21.1259845"><ele>836.0</ele><time>2026-04-27T11:37:56.168Z</time></trkpt><trkpt lat="39.7615931" lon="21.1259335"><ele>836.0</ele><time>2026-04-27T11:37:57.17Z</time></trkpt><trkpt lat="39.7614318" lon="21.1259158"><ele>836.0</ele><time>2026-04-27T11:37:58.17Z</time></trkpt><trkpt lat="39.7612521" lon="21.1259462"><ele>836.0</ele><time>2026-04-27T11:37:59.166Z</time></trkpt><trkpt lat="39.7610687" lon="21.1260066"><ele>836.0</ele><time>2026-04-27T11:38:00.167Z</time></trkpt><trkpt lat="39.7608927" lon="21.126073"><ele>836.0</ele><time>2026-04-27T11:38:01.168Z</time></trkpt><trkpt lat="39.7607345" lon="21.126143"><ele>834.25</ele><time>2026-04-27T11:38:02.17Z</time></trkpt><trkpt lat="39.7605854" lon="21.1262147"><ele>832.5</ele><time>2026-04-27T11:38:03.168Z</time></trkpt><trkpt lat="39.760449" lon="21.1262919"><ele>830.75</ele><time>2026-04-27T11:38:04.167Z</time></trkpt><trkpt lat="39.7603399" lon="21.1263842"><ele>829.0</ele><time>2026-04-27T11:38:05.169Z</time></trkpt><trkpt lat="39.7602558" lon="21.1265045"><ele>831.0</ele><time>2026-04-27T11:38:06.171Z</time></trkpt><trkpt lat="39.7601949" lon="21.1266478"><ele>833.0</ele><time>2026-04-27T11:38:07.168Z</time></trkpt><trkpt lat="39.7601514" lon="21.1268074"><ele>835.0</ele><time>2026-04-27T11:38:08.169Z</time></trkpt><trkpt lat="39.7601309" lon="21.1270007"><ele>837.0</ele><time>2026-04-27T11:38:09.166Z</time></trkpt><trkpt lat="39.7601243" lon="21.1272181"><ele>838.0</ele><time>2026-04-27T11:38:10.166Z</time></trkpt><trkpt lat="39.7601312" lon="21.1274332"><ele>839.0</ele><time>2026-04-27T11:38:11.17Z</time></trkpt><trkpt lat="39.7601498" lon="21.1276339"><ele>840.0</ele><time>2026-04-27T11:38:12.168Z</time></trkpt><trkpt lat="39.7601934" lon="21.1278215"><ele>851.0</ele><time>2026-04-27T11:38:13.169Z</time></trkpt><trkpt lat="39.7602741" lon="21.127994"><ele>862.0</ele><time>2026-04-27T11:38:14.169Z</time></trkpt><trkpt lat="39.7603922" lon="21.1281568"><ele>873.0</ele><time>2026-04-27T11:38:15.168Z</time></trkpt><trkpt lat="39.7605282" lon="21.1283187"><ele>873.0</ele><time>2026-04-27T11:38:16.17Z</time></trkpt><trkpt lat="39.7606574" lon="21.1284682"><ele>873.0</ele><time>2026-04-27T11:38:17.168Z</time></trkpt><trkpt lat="39.7607711" lon="21.1286088"><ele>873.0</ele><time>2026-04-27T11:38:18.165Z</time></trkpt><trkpt lat="39.7608629" lon="21.1287482"><ele>873.0</ele><time>2026-04-27T11:38:19.168Z</time></trkpt><trkpt lat="39.7609322" lon="21.1288882"><ele>873.0</ele><time>2026-04-27T11:38:20.168Z</time></trkpt><trkpt lat="39.7609558" lon="21.1290591"><ele>873.0</ele><time>2026-04-27T11:38:21.167Z</time></trkpt><trkpt lat="39.7609582" lon="21.1292134"><ele>873.0</ele><time>2026-04-27T11:38:22.17Z</time></trkpt><trkpt lat="39.7609286" lon="21.1293374"><ele>867.3333333333333</ele><time>2026-04-27T11:38:23.168Z</time></trkpt><trkpt lat="39.7607989" lon="21.1294784"><ele>861.6666666666666</ele><time>2026-04-27T11:38:24.168Z</time></trkpt><trkpt lat="39.7606813" lon="21.1295661"><ele>856.0</ele><time>2026-04-27T11:38:25.169Z</time></trkpt><trkpt lat="39.7604103" lon="21.1295721"><ele>856.0</ele><time>2026-04-27T11:38:26.171Z</time></trkpt><trkpt lat="39.7602018" lon="21.1295526"><ele>856.0</ele><time>2026-04-27T11:38:27.168Z</time></trkpt><trkpt lat="39.7600284" lon="21.1296157"><ele>856.0</ele><time>2026-04-27T11:38:28.169Z</time></trkpt><trkpt lat="39.759857" lon="21.1297202"><ele>851.3333333333333</ele><time>2026-04-27T11:38:29.17Z</time></trkpt><trkpt lat="39.7596874" lon="21.1298837"><ele>846.6666666666667</ele><time>2026-04-27T11:38:30.169Z</time></trkpt><trkpt lat="39.7595197" lon="21.1300808"><ele>842.0</ele><time>2026-04-27T11:38:31.168Z</time></trkpt><trkpt lat="39.7593637" lon="21.1302556"><ele>842.0</ele><time>2026-04-27T11:38:32.168Z</time></trkpt><trkpt lat="39.7592212" lon="21.1304284"><ele>842.0</ele><time>2026-04-27T11:38:33.168Z</time></trkpt><trkpt lat="39.7590902" lon="21.1305875"><ele>842.0</ele><time>2026-04-27T11:38:34.171Z</time></trkpt><trkpt lat="39.758983" lon="21.1307379"><ele>847.5</ele><time>2026-04-27T11:38:35.169Z</time></trkpt><trkpt lat="39.7589142" lon="21.1309039"><ele>853.0</ele><time>2026-04-27T11:38:36.168Z</time></trkpt><trkpt lat="39.7588903" lon="21.1310876"><ele>858.5</ele><time>2026-04-27T11:38:37.169Z</time></trkpt><trkpt lat="39.7589124" lon="21.1312556"><ele>864.0</ele><time>2026-04-27T11:38:38.168Z</time></trkpt><trkpt lat="39.7589793" lon="21.1314145"><ele>864.0</ele><time>2026-04-27T11:38:39.167Z</time></trkpt><trkpt lat="39.759109" lon="21.1315442"><ele>864.0</ele><time>2026-04-27T11:38:40.169Z</time></trkpt><trkpt lat="39.7592719" lon="21.1316596"><ele>864.0</ele><time>2026-04-27T11:38:41.167Z</time></trkpt><trkpt lat="39.7594508" lon="21.1317627"><ele>871.0</ele><time>2026-04-27T11:38:42.169Z</time></trkpt><trkpt lat="39.7596533" lon="21.131884"><ele>878.0</ele><time>2026-04-27T11:38:43.17Z</time></trkpt><trkpt lat="39.7598395" lon="21.1319924"><ele>885.0</ele><time>2026-04-27T11:38:44.168Z</time></trkpt><trkpt lat="39.7600169" lon="21.1321218"><ele>885.0</ele><time>2026-04-27T11:38:45.17Z</time></trkpt><trkpt lat="39.7601827" lon="21.1322658"><ele>885.0</ele><time>2026-04-27T11:38:46.169Z</time></trkpt><trkpt lat="39.7603298" lon="21.1324096"><ele>885.0</ele><time>2026-04-27T11:38:47.167Z</time></trkpt><trkpt lat="39.7604672" lon="21.1325564"><ele>885.3333333333333</ele><time>2026-04-27T11:38:48.168Z</time></trkpt><trkpt lat="39.7605753" lon="21.1327019"><ele>885.6666666666666</ele><time>2026-04-27T11:38:49.17Z</time></trkpt><trkpt lat="39.7606645" lon="21.1328566"><ele>886.0</ele><time>2026-04-27T11:38:50.168Z</time></trkpt><trkpt lat="39.7607507" lon="21.1330111"><ele>886.0</ele><time>2026-04-27T11:38:51.168Z</time></trkpt><trkpt lat="39.7607666" lon="21.1331576"><ele>886.0</ele><time>2026-04-27T11:38:52.17Z</time></trkpt><trkpt lat="39.7607286" lon="21.1333031"><ele>886.0</ele><time>2026-04-27T11:38:53.169Z</time></trkpt><trkpt lat="39.7606185" lon="21.1334488"><ele>886.0</ele><time>2026-04-27T11:38:54.169Z</time></trkpt><trkpt lat="39.7605409" lon="21.1335898"><ele>888.0</ele><time>2026-04-27T11:38:55.169Z</time></trkpt><trkpt lat="39.7603758" lon="21.1336985"><ele>890.0</ele><time>2026-04-27T11:38:56.169Z</time></trkpt><trkpt lat="39.7598998" lon="21.1336758"><ele>882.0</ele><time>2026-04-27T11:38:57.167Z</time></trkpt><trkpt lat="39.7596272" lon="21.133718"><ele>874.0</ele><time>2026-04-27T11:38:58.168Z</time></trkpt><trkpt lat="39.7593391" lon="21.133762"><ele>872.0</ele><time>2026-04-27T11:38:59.171Z</time></trkpt><trkpt lat="39.7590511" lon="21.1337965"><ele>870.0</ele><time>2026-04-27T11:39:00.168Z</time></trkpt><trkpt lat="39.7587931" lon="21.1338208"><ele>873.5</ele><time>2026-04-27T11:39:01.169Z</time></trkpt><trkpt lat="39.7585251" lon="21.1338227"><ele>877.0</ele><time>2026-04-27T11:39:02.169Z</time></trkpt><trkpt lat="39.7582612" lon="21.1338135"><ele>877.0</ele><time>2026-04-27T11:39:03.168Z</time></trkpt><trkpt lat="39.7580176" lon="21.1337934"><ele>877.0</ele><time>2026-04-27T11:39:04.169Z</time></trkpt><trkpt lat="39.7578034" lon="21.133763"><ele>878.0</ele><time>2026-04-27T11:39:05.171Z</time></trkpt><trkpt lat="39.757621" lon="21.1337246"><ele>879.0</ele><time>2026-04-27T11:39:06.167Z</time></trkpt><trkpt lat="39.7574508" lon="21.1337038"><ele>880.0</ele><time>2026-04-27T11:39:07.169Z</time></trkpt><trkpt lat="39.7572864" lon="21.1337286"><ele>880.0</ele><time>2026-04-27T11:39:08.17Z</time></trkpt><trkpt lat="39.7571351" lon="21.1337886"><ele>880.0</ele><time>2026-04-27T11:39:09.169Z</time></trkpt><trkpt lat="39.7569976" lon="21.1338937"><ele>880.0</ele><time>2026-04-27T11:39:10.167Z</time></trkpt><trkpt lat="39.7568798" lon="21.1340214"><ele>882.6666666666666</ele><time>2026-04-27T11:39:11.166Z</time></trkpt><trkpt lat="39.756792" lon="21.1341668"><ele>885.3333333333333</ele><time>2026-04-27T11:39:12.17Z</time></trkpt><trkpt lat="39.7567341" lon="21.1343515"><ele>888.0</ele><time>2026-04-27T11:39:13.169Z</time></trkpt><trkpt lat="39.756704" lon="21.1345821"><ele>888.0</ele><time>2026-04-27T11:39:14.167Z</time></trkpt><trkpt lat="39.7567076" lon="21.1348441"><ele>888.0</ele><time>2026-04-27T11:39:15.166Z</time></trkpt><trkpt lat="39.7567313" lon="21.1351033"><ele>888.0</ele><time>2026-04-27T11:39:16.168Z</time></trkpt><trkpt lat="39.7567669" lon="21.1353427"><ele>888.6666666666667</ele><time>2026-04-27T11:39:17.166Z</time></trkpt><trkpt lat="39.7567999" lon="21.1355564"><ele>889.3333333333334</ele><time>2026-04-27T11:39:18.171Z</time></trkpt><trkpt lat="39.7568115" lon="21.1357499"><ele>890.0</ele><time>2026-04-27T11:39:19.168Z</time></trkpt><trkpt lat="39.7567876" lon="21.1359477"><ele>890.0</ele><time>2026-04-27T11:39:20.17Z</time></trkpt><trkpt lat="39.756733" lon="21.1361213"><ele>890.0</ele><time>2026-04-27T11:39:21.168Z</time></trkpt><trkpt lat="39.7566554" lon="21.1362913"><ele>890.0</ele><time>2026-04-27T11:39:22.17Z</time></trkpt><trkpt lat="39.7565345" lon="21.1364119"><ele>890.0</ele><time>2026-04-27T11:39:23.171Z</time></trkpt><trkpt lat="39.7564279" lon="21.1365387"><ele>890.0</ele><time>2026-04-27T11:39:24.168Z</time></trkpt><trkpt lat="39.7561714" lon="21.1365448"><ele>890.0</ele><time>2026-04-27T11:39:25.167Z</time></trkpt><trkpt lat="39.7559309" lon="21.1366196"><ele>898.0</ele><time>2026-04-27T11:39:26.169Z</time></trkpt><trkpt lat="39.7556693" lon="21.1367105"><ele>906.0</ele><time>2026-04-27T11:39:27.167Z</time></trkpt><trkpt lat="39.7554096" lon="21.1368018"><ele>900.5</ele><time>2026-04-27T11:39:28.167Z</time></trkpt><trkpt lat="39.7551793" lon="21.1368855"><ele>895.0</ele><time>2026-04-27T11:39:29.167Z</time></trkpt><trkpt lat="39.754977" lon="21.1369622"><ele>895.0</ele><time>2026-04-27T11:39:30.17Z</time></trkpt><trkpt lat="39.75481" lon="21.1370406"><ele>895.0</ele><time>2026-04-27T11:39:31.167Z</time></trkpt><trkpt lat="39.7546699" lon="21.1371275"><ele>895.0</ele><time>2026-04-27T11:39:32.167Z</time></trkpt><trkpt lat="39.7545448" lon="21.1372518"><ele>904.0</ele><time>2026-04-27T11:39:33.168Z</time></trkpt><trkpt lat="39.7544554" lon="21.1374141"><ele>913.0</ele><time>2026-04-27T11:39:34.171Z</time></trkpt><trkpt lat="39.7544003" lon="21.1375926"><ele>922.0</ele><time>2026-04-27T11:39:35.169Z</time></trkpt><trkpt lat="39.7543809" lon="21.1377816"><ele>931.0</ele><time>2026-04-27T11:39:36.168Z</time></trkpt><trkpt lat="39.7543989" lon="21.1379775"><ele>931.0</ele><time>2026-04-27T11:39:37.168Z</time></trkpt><trkpt lat="39.7544552" lon="21.1381967"><ele>931.0</ele><time>2026-04-27T11:39:38.167Z</time></trkpt><trkpt lat="39.7545363" lon="21.1384358"><ele>931.0</ele><time>2026-04-27T11:39:39.168Z</time></trkpt><trkpt lat="39.7546306" lon="21.1386834"><ele>933.6666666666666</ele><time>2026-04-27T11:39:40.17Z</time></trkpt><trkpt lat="39.7547322" lon="21.138935"><ele>936.3333333333333</ele><time>2026-04-27T11:39:41.169Z</time></trkpt><trkpt lat="39.7548284" lon="21.1391644"><ele>939.0</ele><time>2026-04-27T11:39:42.168Z</time></trkpt><trkpt lat="39.7549118" lon="21.1393562"><ele>942.0</ele><time>2026-04-27T11:39:43.167Z</time></trkpt><trkpt lat="39.7549865" lon="21.1395101"><ele>945.0</ele><time>2026-04-27T11:39:44.168Z</time></trkpt><trkpt lat="39.7550751" lon="21.1396346"><ele>948.0</ele><time>2026-04-27T11:39:45.168Z</time></trkpt><trkpt lat="39.7551897" lon="21.1397295"><ele>951.0</ele><time>2026-04-27T11:39:46.168Z</time></trkpt><trkpt lat="39.7553228" lon="21.1397937"><ele>951.0</ele><time>2026-04-27T11:39:47.166Z</time></trkpt><trkpt lat="39.7554862" lon="21.1398174"><ele>951.0</ele><time>2026-04-27T11:39:48.168Z</time></trkpt><trkpt lat="39.7556737" lon="21.1398098"><ele>951.0</ele><time>2026-04-27T11:39:49.17Z</time></trkpt><trkpt lat="39.7558552" lon="21.1397938"><ele>951.0</ele><time>2026-04-27T11:39:50.17Z</time></trkpt><trkpt lat="39.7560231" lon="21.1397779"><ele>951.0</ele><time>2026-04-27T11:39:51.169Z</time></trkpt><trkpt lat="39.7561827" lon="21.1397664"><ele>951.0</ele><time>2026-04-27T11:39:52.169Z</time></trkpt><trkpt lat="39.7563235" lon="21.1397709"><ele>952.4</ele><time>2026-04-27T11:39:53.169Z</time></trkpt><trkpt lat="39.7564424" lon="21.1397966"><ele>953.8</ele><time>2026-04-27T11:39:54.169Z</time></trkpt><trkpt lat="39.7565518" lon="21.1398506"><ele>955.1999999999999</ele><time>2026-04-27T11:39:55.17Z</time></trkpt><trkpt lat="39.7566279" lon="21.1399334"><ele>956.5999999999999</ele><time>2026-04-27T11:39:56.17Z</time></trkpt><trkpt lat="39.7566802" lon="21.1400277"><ele>958.0</ele><time>2026-04-27T11:39:57.17Z</time></trkpt><trkpt lat="39.7566801" lon="21.1401981"><ele>947.6666666666666</ele><time>2026-04-27T11:39:58.169Z</time></trkpt><trkpt lat="39.7566661" lon="21.1403986"><ele>937.3333333333333</ele><time>2026-04-27T11:39:59.166Z</time></trkpt><trkpt lat="39.7565843" lon="21.1405015"><ele>927.0</ele><time>2026-04-27T11:40:00.17Z</time></trkpt><trkpt lat="39.7564351" lon="21.140657"><ele>919.5</ele><time>2026-04-27T11:40:01.166Z</time></trkpt><trkpt lat="39.7561422" lon="21.1407405"><ele>912.0</ele><time>2026-04-27T11:40:02.167Z</time></trkpt><trkpt lat="39.7560233" lon="21.1408821"><ele>912.0</ele><time>2026-04-27T11:40:03.166Z</time></trkpt><trkpt lat="39.7559391" lon="21.1410182"><ele>912.0</ele><time>2026-04-27T11:40:04.169Z</time></trkpt><trkpt lat="39.7558944" lon="21.1411788"><ele>912.0</ele><time>2026-04-27T11:40:05.167Z</time></trkpt><trkpt lat="39.755886" lon="21.1413571"><ele>912.0</ele><time>2026-04-27T11:40:06.168Z</time></trkpt><trkpt lat="39.7559104" lon="21.1415467"><ele>914.5</ele><time>2026-04-27T11:40:07.167Z</time></trkpt><trkpt lat="39.7559667" lon="21.1417323"><ele>917.0</ele><time>2026-04-27T11:40:08.171Z</time></trkpt><trkpt lat="39.7560301" lon="21.1418954"><ele>919.5</ele><time>2026-04-27T11:40:09.169Z</time></trkpt><trkpt lat="39.7561138" lon="21.1420393"><ele>922.0</ele><time>2026-04-27T11:40:10.169Z</time></trkpt><trkpt lat="39.7562327" lon="21.1421686"><ele>929.0</ele><time>2026-04-27T11:40:11.169Z</time></trkpt><trkpt lat="39.756392" lon="21.1422896"><ele>936.0</ele><time>2026-04-27T11:40:12.166Z</time></trkpt><trkpt lat="39.7565756" lon="21.142403"><ele>943.0</ele><time>2026-04-27T11:40:13.169Z</time></trkpt><trkpt lat="39.7567725" lon="21.1425173"><ele>956.0</ele><time>2026-04-27T11:40:14.169Z</time></trkpt><trkpt lat="39.7569889" lon="21.1426449"><ele>969.0</ele><time>2026-04-27T11:40:15.167Z</time></trkpt><trkpt lat="39.7571855" lon="21.1427705"><ele>969.0</ele><time>2026-04-27T11:40:16.17Z</time></trkpt><trkpt lat="39.7573603" lon="21.1428843"><ele>969.0</ele><time>2026-04-27T11:40:17.166Z</time></trkpt><trkpt lat="39.757508" lon="21.1429871"><ele>969.0</ele><time>2026-04-27T11:40:18.169Z</time></trkpt><trkpt lat="39.7576274" lon="21.1430799"><ele>968.8000000000001</ele><time>2026-04-27T11:40:19.17Z</time></trkpt><trkpt lat="39.7577261" lon="21.1431977"><ele>968.6000000000001</ele><time>2026-04-27T11:40:20.168Z</time></trkpt><trkpt lat="39.7577826" lon="21.1433232"><ele>968.4</ele><time>2026-04-27T11:40:21.17Z</time></trkpt><trkpt lat="39.7578212" lon="21.1434432"><ele>968.2</ele><time>2026-04-27T11:40:22.168Z</time></trkpt><trkpt lat="39.7578303" lon="21.1435551"><ele>968.0</ele><time>2026-04-27T11:40:23.169Z</time></trkpt><trkpt lat="39.7578081" lon="21.1436564"><ele>961.6666666666667</ele><time>2026-04-27T11:40:24.169Z</time></trkpt><trkpt lat="39.7576589" lon="21.1438016"><ele>955.3333333333333</ele><time>2026-04-27T11:40:25.17Z</time></trkpt><trkpt lat="39.7574993" lon="21.1439246"><ele>949.0</ele><time>2026-04-27T11:40:26.167Z</time></trkpt><trkpt lat="39.7573564" lon="21.1439522"><ele>949.0</ele><time>2026-04-27T11:40:27.168Z</time></trkpt><trkpt lat="39.7569554" lon="21.1438349"><ele>949.0</ele><time>2026-04-27T11:40:28.17Z</time></trkpt><trkpt lat="39.7567053" lon="21.1438228"><ele>944.5</ele><time>2026-04-27T11:40:29.167Z</time></trkpt><trkpt lat="39.756462" lon="21.1438121"><ele>940.0</ele><time>2026-04-27T11:40:30.167Z</time></trkpt><trkpt lat="39.7562282" lon="21.1437999"><ele>946.5</ele><time>2026-04-27T11:40:31.169Z</time></trkpt><trkpt lat="39.7559896" lon="21.1437305"><ele>953.0</ele><time>2026-04-27T11:40:32.17Z</time></trkpt><trkpt lat="39.7557663" lon="21.1436418"><ele>953.0</ele><time>2026-04-27T11:40:33.17Z</time></trkpt><trkpt lat="39.7555476" lon="21.1435156"><ele>953.0</ele><time>2026-04-27T11:40:34.17Z</time></trkpt><trkpt lat="39.755322" lon="21.1434468"><ele>961.5</ele><time>2026-04-27T11:40:35.168Z</time></trkpt><trkpt lat="39.7550737" lon="21.1433976"><ele>970.0</ele><time>2026-04-27T11:40:36.168Z</time></trkpt><trkpt lat="39.7548436" lon="21.1433802"><ele>970.0</ele><time>2026-04-27T11:40:37.168Z</time></trkpt><trkpt lat="39.7546427" lon="21.143356"><ele>970.0</ele><time>2026-04-27T11:40:38.168Z</time></trkpt><trkpt lat="39.7544791" lon="21.1433318"><ele>970.0</ele><time>2026-04-27T11:40:39.167Z</time></trkpt><trkpt lat="39.7543156" lon="21.1432503"><ele>964.6666666666666</ele><time>2026-04-27T11:40:40.17Z</time></trkpt><trkpt lat="39.7541466" lon="21.1431054"><ele>959.3333333333333</ele><time>2026-04-27T11:40:41.17Z</time></trkpt><trkpt lat="39.754004" lon="21.1429423"><ele>954.0</ele><time>2026-04-27T11:40:42.169Z</time></trkpt><trkpt lat="39.7538627" lon="21.1428173"><ele>954.0</ele><time>2026-04-27T11:40:43.168Z</time></trkpt><trkpt lat="39.7537255" lon="21.1427235"><ele>954.0</ele><time>2026-04-27T11:40:44.17Z</time></trkpt><trkpt lat="39.7535743" lon="21.1426861"><ele>954.0</ele><time>2026-04-27T11:40:45.169Z</time></trkpt><trkpt lat="39.7534037" lon="21.1427048"><ele>954.0</ele><time>2026-04-27T11:40:46.165Z</time></trkpt><trkpt lat="39.7532582" lon="21.1427402"><ele>954.0</ele><time>2026-04-27T11:40:47.167Z</time></trkpt><trkpt lat="39.7531147" lon="21.1427412"><ele>954.0</ele><time>2026-04-27T11:40:48.167Z</time></trkpt><trkpt lat="39.7529845" lon="21.1427056"><ele>954.0</ele><time>2026-04-27T11:40:49.169Z</time></trkpt><trkpt lat="39.7528651" lon="21.142636"><ele>954.0</ele><time>2026-04-27T11:40:50.167Z</time></trkpt><trkpt lat="39.7527804" lon="21.1424727"><ele>954.0</ele><time>2026-04-27T11:40:51.169Z</time></trkpt><trkpt lat="39.7526747" lon="21.1423579"><ele>954.0</ele><time>2026-04-27T11:40:52.169Z</time></trkpt><trkpt lat="39.7525688" lon="21.1422653"><ele>954.0</ele><time>2026-04-27T11:40:53.169Z</time></trkpt><trkpt lat="39.7524543" lon="21.142222"><ele>955.75</ele><time>2026-04-27T11:40:54.169Z</time></trkpt><trkpt lat="39.7523399" lon="21.1422356"><ele>957.5</ele><time>2026-04-27T11:40:55.168Z</time></trkpt><trkpt lat="39.7522422" lon="21.1423176"><ele>959.25</ele><time>2026-04-27T11:40:56.168Z</time></trkpt><trkpt lat="39.7521536" lon="21.1424507"><ele>961.0</ele><time>2026-04-27T11:40:57.168Z</time></trkpt><trkpt lat="39.752073" lon="21.1426222"><ele>967.0</ele><time>2026-04-27T11:40:58.169Z</time></trkpt><trkpt lat="39.7519837" lon="21.1428456"><ele>973.0</ele><time>2026-04-27T11:40:59.17Z</time></trkpt><trkpt lat="39.7518736" lon="21.1430883"><ele>979.0</ele><time>2026-04-27T11:41:00.167Z</time></trkpt><trkpt lat="39.7517545" lon="21.1433451"><ele>980.3333333333333</ele><time>2026-04-27T11:41:01.169Z</time></trkpt><trkpt lat="39.7516262" lon="21.1435827"><ele>981.6666666666667</ele><time>2026-04-27T11:41:02.169Z</time></trkpt><trkpt lat="39.7514997" lon="21.1437894"><ele>983.0</ele><time>2026-04-27T11:41:03.166Z</time></trkpt><trkpt lat="39.7513709" lon="21.1439617"><ele>977.6666666666667</ele><time>2026-04-27T11:41:04.171Z</time></trkpt><trkpt lat="39.7512379" lon="21.1440992"><ele>972.3333333333333</ele><time>2026-04-27T11:41:05.169Z</time></trkpt><trkpt lat="39.7511212" lon="21.144225"><ele>967.0</ele><time>2026-04-27T11:41:06.17Z</time></trkpt><trkpt lat="39.7510054" lon="21.1443857"><ele>967.0</ele><time>2026-04-27T11:41:07.171Z</time></trkpt><trkpt lat="39.7508956" lon="21.1445833"><ele>967.0</ele><time>2026-04-27T11:41:08.168Z</time></trkpt><trkpt lat="39.750795" lon="21.1447767"><ele>967.0</ele><time>2026-04-27T11:41:09.17Z</time></trkpt><trkpt lat="39.7507019" lon="21.1449602"><ele>974.5</ele><time>2026-04-27T11:41:10.168Z</time></trkpt><trkpt lat="39.7506287" lon="21.1451195"><ele>982.0</ele><time>2026-04-27T11:41:11.168Z</time></trkpt><trkpt lat="39.7505729" lon="21.1452626"><ele>989.5</ele><time>2026-04-27T11:41:12.167Z</time></trkpt><trkpt lat="39.7505448" lon="21.1453873"><ele>997.0</ele><time>2026-04-27T11:41:13.166Z</time></trkpt><trkpt lat="39.750562" lon="21.145515"><ele>997.0</ele><time>2026-04-27T11:41:14.169Z</time></trkpt><trkpt lat="39.7506142" lon="21.145621"><ele>997.0</ele><time>2026-04-27T11:41:15.168Z</time></trkpt><trkpt lat="39.7507109" lon="21.1457081"><ele>997.0</ele><time>2026-04-27T11:41:16.169Z</time></trkpt><trkpt lat="39.7508429" lon="21.1457737"><ele>997.0</ele><time>2026-04-27T11:41:17.167Z</time></trkpt><trkpt lat="39.7509852" lon="21.1458152"><ele>995.0</ele><time>2026-04-27T11:41:18.169Z</time></trkpt><trkpt lat="39.7511437" lon="21.1458155"><ele>993.0</ele><time>2026-04-27T11:41:19.167Z</time></trkpt><trkpt lat="39.7513142" lon="21.1457628"><ele>991.0</ele><time>2026-04-27T11:41:20.171Z</time></trkpt><trkpt lat="39.7514873" lon="21.1456871"><ele>1003.6666666666666</ele><time>2026-04-27T11:41:21.169Z</time></trkpt><trkpt lat="39.7516778" lon="21.1456485"><ele>1016.3333333333333</ele><time>2026-04-27T11:41:22.17Z</time></trkpt><trkpt lat="39.7518739" lon="21.1456213"><ele>1029.0</ele><time>2026-04-27T11:41:23.168Z</time></trkpt><trkpt lat="39.7520677" lon="21.1456739"><ele>1032.0</ele><time>2026-04-27T11:41:24.167Z</time></trkpt><trkpt lat="39.7522604" lon="21.1456626"><ele>1035.0</ele><time>2026-04-27T11:41:25.168Z</time></trkpt><trkpt lat="39.7524451" lon="21.1456366"><ele>1038.0</ele><time>2026-04-27T11:41:26.17Z</time></trkpt><trkpt lat="39.7526214" lon="21.145598"><ele>1037.0</ele><time>2026-04-27T11:41:27.17Z</time></trkpt><trkpt lat="39.7527941" lon="21.1455725"><ele>1036.0</ele><time>2026-04-27T11:41:28.169Z</time></trkpt><trkpt lat="39.7529602" lon="21.1455905"><ele>1035.0</ele><time>2026-04-27T11:41:29.169Z</time></trkpt><trkpt lat="39.7531285" lon="21.1456653"><ele>1030.6666666666667</ele><time>2026-04-27T11:41:30.168Z</time></trkpt><trkpt lat="39.753305" lon="21.1457474"><ele>1026.3333333333335</ele><time>2026-04-27T11:41:31.168Z</time></trkpt><trkpt lat="39.7534925" lon="21.1458454"><ele>1022.0</ele><time>2026-04-27T11:41:32.168Z</time></trkpt><trkpt lat="39.753685" lon="21.1459428"><ele>1022.0</ele><time>2026-04-27T11:41:33.169Z</time></trkpt><trkpt lat="39.7538823" lon="21.1460433"><ele>1022.0</ele><time>2026-04-27T11:41:34.169Z</time></trkpt><trkpt lat="39.7540815" lon="21.1461436"><ele>1022.0</ele><time>2026-04-27T11:41:35.168Z</time></trkpt><trkpt lat="39.7542674" lon="21.1462347"><ele>1028.6666666666667</ele><time>2026-04-27T11:41:36.17Z</time></trkpt><trkpt lat="39.7544438" lon="21.1463198"><ele>1035.3333333333333</ele><time>2026-04-27T11:41:37.168Z</time></trkpt><trkpt lat="39.7546041" lon="21.1463982"><ele>1042.0</ele><time>2026-04-27T11:41:38.168Z</time></trkpt><trkpt lat="39.7547368" lon="21.1464692"><ele>1042.0</ele><time>2026-04-27T11:41:39.168Z</time></trkpt><trkpt lat="39.754846" lon="21.1465393"><ele>1042.0</ele><time>2026-04-27T11:41:40.168Z</time></trkpt><trkpt lat="39.7549434" lon="21.1466232"><ele>1042.0</ele><time>2026-04-27T11:41:41.167Z</time></trkpt><trkpt lat="39.7549976" lon="21.1467463"><ele>1042.0</ele><time>2026-04-27T11:41:42.166Z</time></trkpt><trkpt lat="39.7550322" lon="21.1468872"><ele>1038.5</ele><time>2026-04-27T11:41:43.168Z</time></trkpt><trkpt lat="39.75504" lon="21.1470345"><ele>1035.0</ele><time>2026-04-27T11:41:44.169Z</time></trkpt><trkpt lat="39.7550226" lon="21.1471811"><ele>1031.5</ele><time>2026-04-27T11:41:45.17Z</time></trkpt><trkpt lat="39.7549593" lon="21.1473644"><ele>1028.0</ele><time>2026-04-27T11:41:46.168Z</time></trkpt><trkpt lat="39.7548822" lon="21.1475565"><ele>1028.0</ele><time>2026-04-27T11:41:47.17Z</time></trkpt><trkpt lat="39.754652" lon="21.1476871"><ele>1028.0</ele><time>2026-04-27T11:41:48.168Z</time></trkpt><trkpt lat="39.7545698" lon="21.1478362"><ele>1028.0</ele><time>2026-04-27T11:41:49.17Z</time></trkpt><trkpt lat="39.7544981" lon="21.147977"><ele>1028.0</ele><time>2026-04-27T11:41:50.168Z</time></trkpt><trkpt lat="39.7544723" lon="21.1481171"><ele>1028.0</ele><time>2026-04-27T11:41:51.168Z</time></trkpt><trkpt lat="39.7544878" lon="21.1482722"><ele>1028.0</ele><time>2026-04-27T11:41:52.169Z</time></trkpt><trkpt lat="39.7545388" lon="21.1484346"><ele>1028.0</ele><time>2026-04-27T11:41:53.166Z</time></trkpt><trkpt lat="39.7545964" lon="21.1485955"><ele>1036.0</ele><time>2026-04-27T11:41:54.168Z</time></trkpt><trkpt lat="39.7546368" lon="21.1487755"><ele>1044.0</ele><time>2026-04-27T11:41:55.168Z</time></trkpt><trkpt lat="39.7546489" lon="21.1489845"><ele>1052.0</ele><time>2026-04-27T11:41:56.167Z</time></trkpt><trkpt lat="39.7546569" lon="21.1492045"><ele>1053.75</ele><time>2026-04-27T11:41:57.168Z</time></trkpt><trkpt lat="39.7546615" lon="21.1494029"><ele>1055.5</ele><time>2026-04-27T11:41:58.167Z</time></trkpt><trkpt lat="39.7546507" lon="21.1495694"><ele>1057.25</ele><time>2026-04-27T11:41:59.168Z</time></trkpt><trkpt lat="39.7546169" lon="21.1497166"><ele>1059.0</ele><time>2026-04-27T11:42:00.166Z</time></trkpt><trkpt lat="39.7545521" lon="21.1498269"><ele>1059.0</ele><time>2026-04-27T11:42:01.165Z</time></trkpt><trkpt lat="39.7544269" lon="21.1498711"><ele>1059.0</ele><time>2026-04-27T11:42:02.168Z</time></trkpt><trkpt lat="39.7542686" lon="21.1499049"><ele>1059.0</ele><time>2026-04-27T11:42:03.17Z</time></trkpt><trkpt lat="39.7540776" lon="21.1499288"><ele>1052.6666666666667</ele><time>2026-04-27T11:42:04.167Z</time></trkpt><trkpt lat="39.7538893" lon="21.1499534"><ele>1046.3333333333335</ele><time>2026-04-27T11:42:05.169Z</time></trkpt><trkpt lat="39.7536947" lon="21.1499841"><ele>1040.0</ele><time>2026-04-27T11:42:06.167Z</time></trkpt><trkpt lat="39.7535239" lon="21.1500144"><ele>1034.5</ele><time>2026-04-27T11:42:07.168Z</time></trkpt><trkpt lat="39.753381" lon="21.1500495"><ele>1029.0</ele><time>2026-04-27T11:42:08.169Z</time></trkpt><trkpt lat="39.7532547" lon="21.1501103"><ele>1023.5</ele><time>2026-04-27T11:42:09.17Z</time></trkpt><trkpt lat="39.7531434" lon="21.1502018"><ele>1018.0</ele><time>2026-04-27T11:42:10.167Z</time></trkpt><trkpt lat="39.7530573" lon="21.1503493"><ele>1018.0</ele><time>2026-04-27T11:42:11.17Z</time></trkpt><trkpt lat="39.7529798" lon="21.1505338"><ele>1018.0</ele><time>2026-04-27T11:42:12.168Z</time></trkpt><trkpt lat="39.7528962" lon="21.1507134"><ele>1018.0</ele><time>2026-04-27T11:42:13.168Z</time></trkpt><trkpt lat="39.7528034" lon="21.1508734"><ele>1019.25</ele><time>2026-04-27T11:42:14.169Z</time></trkpt><trkpt lat="39.7526915" lon="21.1510047"><ele>1020.5</ele><time>2026-04-27T11:42:15.168Z</time></trkpt><trkpt lat="39.7525744" lon="21.1511427"><ele>1021.75</ele><time>2026-04-27T11:42:16.168Z</time></trkpt><trkpt lat="39.7524455" lon="21.1512114"><ele>1023.0</ele><time>2026-04-27T11:42:17.169Z</time></trkpt><trkpt lat="39.7523425" lon="21.1512929"><ele>1023.0</ele><time>2026-04-27T11:42:18.169Z</time></trkpt><trkpt lat="39.7522543" lon="21.151365"><ele>1023.0</ele><time>2026-04-27T11:42:19.17Z</time></trkpt><trkpt lat="39.7521959" lon="21.1514343"><ele>1023.0</ele><time>2026-04-27T11:42:20.17Z</time></trkpt><trkpt lat="39.7521563" lon="21.151529"><ele>1023.0</ele><time>2026-04-27T11:42:21.168Z</time></trkpt><trkpt lat="39.7521507" lon="21.1516632"><ele>1023.0</ele><time>2026-04-27T11:42:22.17Z</time></trkpt><trkpt lat="39.7521731" lon="21.1518347"><ele>1034.3333333333333</ele><time>2026-04-27T11:42:23.168Z</time></trkpt><trkpt lat="39.7522121" lon="21.1520141"><ele>1045.6666666666665</ele><time>2026-04-27T11:42:24.168Z</time></trkpt><trkpt lat="39.752256" lon="21.1522145"><ele>1057.0</ele><time>2026-04-27T11:42:25.169Z</time></trkpt><trkpt lat="39.7522865" lon="21.1524046"><ele>1059.75</ele><time>2026-04-27T11:42:26.169Z</time></trkpt><trkpt lat="39.7522967" lon="21.1525795"><ele>1062.5</ele><time>2026-04-27T11:42:27.169Z</time></trkpt><trkpt lat="39.7522746" lon="21.1527488"><ele>1065.25</ele><time>2026-04-27T11:42:28.169Z</time></trkpt><trkpt lat="39.7522277" lon="21.1529259"><ele>1068.0</ele><time>2026-04-27T11:42:29.167Z</time></trkpt><trkpt lat="39.7521121" lon="21.1530649"><ele>1068.0</ele><time>2026-04-27T11:42:30.17Z</time></trkpt><trkpt lat="39.7520123" lon="21.1532011"><ele>1068.0</ele><time>2026-04-27T11:42:31.169Z</time></trkpt><trkpt lat="39.7519317" lon="21.1533225"><ele>1068.0</ele><time>2026-04-27T11:42:32.169Z</time></trkpt><trkpt lat="39.7518645" lon="21.1534446"><ele>1068.0</ele><time>2026-04-27T11:42:33.169Z</time></trkpt><trkpt lat="39.7518253" lon="21.1535779"><ele>1068.75</ele><time>2026-04-27T11:42:34.164Z</time></trkpt><trkpt lat="39.7518258" lon="21.1537236"><ele>1069.5</ele><time>2026-04-27T11:42:35.171Z</time></trkpt><trkpt lat="39.7518735" lon="21.1538798"><ele>1070.25</ele><time>2026-04-27T11:42:36.168Z</time></trkpt><trkpt lat="39.7519524" lon="21.1540297"><ele>1071.0</ele><time>2026-04-27T11:42:37.17Z</time></trkpt><trkpt lat="39.7520459" lon="21.15417"><ele>1071.0</ele><time>2026-04-27T11:42:38.168Z</time></trkpt><trkpt lat="39.7521695" lon="21.1542978"><ele>1071.0</ele><time>2026-04-27T11:42:39.171Z</time></trkpt><trkpt lat="39.7523223" lon="21.1544053"><ele>1071.0</ele><time>2026-04-27T11:42:40.166Z</time></trkpt><trkpt lat="39.7524899" lon="21.1544941"><ele>1071.0</ele><time>2026-04-27T11:42:41.167Z</time></trkpt><trkpt lat="39.7526666" lon="21.1545814"><ele>1071.0</ele><time>2026-04-27T11:42:42.167Z</time></trkpt><trkpt lat="39.7528578" lon="21.1546681"><ele>1071.0</ele><time>2026-04-27T11:42:43.169Z</time></trkpt><trkpt lat="39.7530705" lon="21.1547361"><ele>1083.0</ele><time>2026-04-27T11:42:44.169Z</time></trkpt><trkpt lat="39.7533" lon="21.1547788"><ele>1095.0</ele><time>2026-04-27T11:42:45.168Z</time></trkpt><trkpt lat="39.7535117" lon="21.1548023"><ele>1107.0</ele><time>2026-04-27T11:42:46.168Z</time></trkpt><trkpt lat="39.7537082" lon="21.1548224"><ele>1109.0</ele><time>2026-04-27T11:42:47.169Z</time></trkpt><trkpt lat="39.7538875" lon="21.1548455"><ele>1111.0</ele><time>2026-04-27T11:42:48.169Z</time></trkpt><trkpt lat="39.7540405" lon="21.1548847"><ele>1113.0</ele><time>2026-04-27T11:42:49.167Z</time></trkpt><trkpt lat="39.7541805" lon="21.1549387"><ele>1113.25</ele><time>2026-04-27T11:42:50.168Z</time></trkpt><trkpt lat="39.7542968" lon="21.1550364"><ele>1113.5</ele><time>2026-04-27T11:42:51.166Z</time></trkpt><trkpt lat="39.7543803" lon="21.1551638"><ele>1113.75</ele><time>2026-04-27T11:42:52.166Z</time></trkpt><trkpt lat="39.7544505" lon="21.1553267"><ele>1114.0</ele><time>2026-04-27T11:42:53.166Z</time></trkpt><trkpt lat="39.75444" lon="21.1556759"><ele>1112.3333333333333</ele><time>2026-04-27T11:42:54.167Z</time></trkpt><trkpt lat="39.7544834" lon="21.1558904"><ele>1110.6666666666667</ele><time>2026-04-27T11:42:55.168Z</time></trkpt><trkpt lat="39.7544902" lon="21.156122"><ele>1109.0</ele><time>2026-04-27T11:42:56.165Z</time></trkpt><trkpt lat="39.754472" lon="21.1563735"><ele>1106.6666666666667</ele><time>2026-04-27T11:42:57.167Z</time></trkpt><trkpt lat="39.7544557" lon="21.1566391"><ele>1104.3333333333333</ele><time>2026-04-27T11:42:58.169Z</time></trkpt><trkpt lat="39.7544229" lon="21.1568917"><ele>1102.0</ele><time>2026-04-27T11:42:59.167Z</time></trkpt><trkpt lat="39.7543886" lon="21.1571312"><ele>1098.75</ele><time>2026-04-27T11:43:00.168Z</time></trkpt><trkpt lat="39.7543629" lon="21.1573281"><ele>1095.5</ele><time>2026-04-27T11:43:01.168Z</time></trkpt><trkpt lat="39.7543442" lon="21.1574991"><ele>1092.25</ele><time>2026-04-27T11:43:02.164Z</time></trkpt><trkpt lat="39.7543436" lon="21.1576557"><ele>1089.0</ele><time>2026-04-27T11:43:03.167Z</time></trkpt><trkpt lat="39.754389" lon="21.1577999"><ele>1089.0</ele><time>2026-04-27T11:43:04.167Z</time></trkpt><trkpt lat="39.7544608" lon="21.1579124"><ele>1089.0</ele><time>2026-04-27T11:43:05.169Z</time></trkpt><trkpt lat="39.754556" lon="21.1579836"><ele>1089.0</ele><time>2026-04-27T11:43:06.166Z</time></trkpt><trkpt lat="39.7546696" lon="21.1580061"><ele>1089.0</ele><time>2026-04-27T11:43:07.166Z</time></trkpt><trkpt lat="39.7547948" lon="21.1579808"><ele>1089.0</ele><time>2026-04-27T11:43:08.171Z</time></trkpt><trkpt lat="39.754938" lon="21.1579104"><ele>1089.0</ele><time>2026-04-27T11:43:09.166Z</time></trkpt><trkpt lat="39.7550963" lon="21.1578146"><ele>1089.0</ele><time>2026-04-27T11:43:10.169Z</time></trkpt><trkpt lat="39.7552602" lon="21.1577074"><ele>1087.3333333333333</ele><time>2026-04-27T11:43:11.167Z</time></trkpt><trkpt lat="39.7554484" lon="21.1575916"><ele>1085.6666666666665</ele><time>2026-04-27T11:43:12.164Z</time></trkpt><trkpt lat="39.7556429" lon="21.1574748"><ele>1084.0</ele><time>2026-04-27T11:43:13.167Z</time></trkpt><trkpt lat="39.7558209" lon="21.1573715"><ele>1088.5</ele><time>2026-04-27T11:43:14.17Z</time></trkpt><trkpt lat="39.7559839" lon="21.157277"><ele>1093.0</ele><time>2026-04-27T11:43:15.169Z</time></trkpt><trkpt lat="39.7561225" lon="21.1571968"><ele>1097.5</ele><time>2026-04-27T11:43:16.168Z</time></trkpt><trkpt lat="39.7562324" lon="21.1571382"><ele>1102.0</ele><time>2026-04-27T11:43:17.168Z</time></trkpt><trkpt lat="39.756336" lon="21.1571113"><ele>1102.0</ele><time>2026-04-27T11:43:18.167Z</time></trkpt><trkpt lat="39.7564458" lon="21.1571229"><ele>1102.0</ele><time>2026-04-27T11:43:19.17Z</time></trkpt><trkpt lat="39.7565407" lon="21.1571868"><ele>1102.0</ele><time>2026-04-27T11:43:20.167Z</time></trkpt><trkpt lat="39.7566135" lon="21.1573044"><ele>1102.0</ele><time>2026-04-27T11:43:21.168Z</time></trkpt><trkpt lat="39.7566721" lon="21.1574767"><ele>1097.6666666666665</ele><time>2026-04-27T11:43:22.168Z</time></trkpt><trkpt lat="39.7567336" lon="21.1576932"><ele>1093.3333333333333</ele><time>2026-04-27T11:43:23.167Z</time></trkpt><trkpt lat="39.7568144" lon="21.1578892"><ele>1089.0</ele><time>2026-04-27T11:43:24.165Z</time></trkpt><trkpt lat="39.756899" lon="21.1581067"><ele>1103.6666666666667</ele><time>2026-04-27T11:43:25.167Z</time></trkpt><trkpt lat="39.7570116" lon="21.1582845"><ele>1118.3333333333335</ele><time>2026-04-27T11:43:26.168Z</time></trkpt><trkpt lat="39.7571056" lon="21.1584615"><ele>1133.0</ele><time>2026-04-27T11:43:27.166Z</time></trkpt><trkpt lat="39.7571939" lon="21.158643"><ele>1133.0</ele><time>2026-04-27T11:43:28.167Z</time></trkpt><trkpt lat="39.75726" lon="21.1588419"><ele>1133.0</ele><time>2026-04-27T11:43:29.167Z</time></trkpt><trkpt lat="39.7572887" lon="21.1590617"><ele>1133.0</ele><time>2026-04-27T11:43:30.164Z</time></trkpt><trkpt lat="39.7572978" lon="21.1592721"><ele>1128.3333333333335</ele><time>2026-04-27T11:43:31.17Z</time></trkpt><trkpt lat="39.7572869" lon="21.159466"><ele>1123.6666666666667</ele><time>2026-04-27T11:43:32.168Z</time></trkpt><trkpt lat="39.7572439" lon="21.1596513"><ele>1119.0</ele><time>2026-04-27T11:43:33.167Z</time></trkpt><trkpt lat="39.7571781" lon="21.1598304"><ele>1118.5</ele><time>2026-04-27T11:43:34.168Z</time></trkpt><trkpt lat="39.7571124" lon="21.159991"><ele>1118.0</ele><time>2026-04-27T11:43:35.169Z</time></trkpt><trkpt lat="39.7570737" lon="21.1601462"><ele>1117.5</ele><time>2026-04-27T11:43:36.167Z</time></trkpt><trkpt lat="39.7570622" lon="21.160307"><ele>1117.0</ele><time>2026-04-27T11:43:37.165Z</time></trkpt><trkpt lat="39.757094" lon="21.1604617"><ele>1117.0</ele><time>2026-04-27T11:43:38.169Z</time></trkpt><trkpt lat="39.7571658" lon="21.1606149"><ele>1117.0</ele><time>2026-04-27T11:43:39.17Z</time></trkpt><trkpt lat="39.7572613" lon="21.1607555"><ele>1117.0</ele><time>2026-04-27T11:43:40.167Z</time></trkpt><trkpt lat="39.7573579" lon="21.1608699"><ele>1117.0</ele><time>2026-04-27T11:43:41.168Z</time></trkpt><trkpt lat="39.757455" lon="21.1609593"><ele>1111.5</ele><time>2026-04-27T11:43:42.164Z</time></trkpt><trkpt lat="39.7575555" lon="21.1610039"><ele>1106.0</ele><time>2026-04-27T11:43:43.165Z</time></trkpt><trkpt lat="39.7576614" lon="21.160996"><ele>1100.5</ele><time>2026-04-27T11:43:44.168Z</time></trkpt><trkpt lat="39.7577769" lon="21.1609289"><ele>1095.0</ele><time>2026-04-27T11:43:45.168Z</time></trkpt><trkpt lat="39.7578995" lon="21.1608216"><ele>1102.3333333333333</ele><time>2026-04-27T11:43:46.167Z</time></trkpt><trkpt lat="39.7580383" lon="21.1606842"><ele>1109.6666666666665</ele><time>2026-04-27T11:43:47.167Z</time></trkpt><trkpt lat="39.7581797" lon="21.1605497"><ele>1117.0</ele><time>2026-04-27T11:43:48.168Z</time></trkpt><trkpt lat="39.7583404" lon="21.1604088"><ele>1117.0</ele><time>2026-04-27T11:43:49.169Z</time></trkpt><trkpt lat="39.7585054" lon="21.160292"><ele>1117.0</ele><time>2026-04-27T11:43:50.167Z</time></trkpt><trkpt lat="39.7586552" lon="21.1602069"><ele>1117.0</ele><time>2026-04-27T11:43:51.167Z</time></trkpt><trkpt lat="39.7587765" lon="21.1601302"><ele>1114.75</ele><time>2026-04-27T11:43:52.168Z</time></trkpt><trkpt lat="39.7588769" lon="21.1600375"><ele>1112.5</ele><time>2026-04-27T11:43:53.168Z</time></trkpt><trkpt lat="39.7589521" lon="21.1599213"><ele>1110.25</ele><time>2026-04-27T11:43:54.169Z</time></trkpt><trkpt lat="39.7589982" lon="21.1597769"><ele>1108.0</ele><time>2026-04-27T11:43:55.166Z</time></trkpt><trkpt lat="39.7590177" lon="21.159609"><ele>1108.0</ele><time>2026-04-27T11:43:56.17Z</time></trkpt><trkpt lat="39.759021" lon="21.1594251"><ele>1108.0</ele><time>2026-04-27T11:43:57.168Z</time></trkpt><trkpt lat="39.7590216" lon="21.159252"><ele>1108.0</ele><time>2026-04-27T11:43:58.169Z</time></trkpt><trkpt lat="39.7590345" lon="21.1590978"><ele>1108.0</ele><time>2026-04-27T11:43:59.168Z</time></trkpt><trkpt lat="39.7590661" lon="21.1589606"><ele>1112.0</ele><time>2026-04-27T11:44:00.169Z</time></trkpt><trkpt lat="39.7591125" lon="21.1588428"><ele>1116.0</ele><time>2026-04-27T11:44:01.167Z</time></trkpt><trkpt lat="39.7592132" lon="21.1587782"><ele>1120.0</ele><time>2026-04-27T11:44:02.169Z</time></trkpt><trkpt lat="39.759316" lon="21.1587468"><ele>1124.0</ele><time>2026-04-27T11:44:03.169Z</time></trkpt><trkpt lat="39.7594116" lon="21.1587514"><ele>1128.0</ele><time>2026-04-27T11:44:04.17Z</time></trkpt><trkpt lat="39.7595048" lon="21.1587854"><ele>1128.0</ele><time>2026-04-27T11:44:05.17Z</time></trkpt><trkpt lat="39.7596158" lon="21.1588804"><ele>1128.0</ele><time>2026-04-27T11:44:06.167Z</time></trkpt><trkpt lat="39.7597349" lon="21.1591475"><ele>1128.0</ele><time>2026-04-27T11:44:07.168Z</time></trkpt><trkpt lat="39.7598363" lon="21.1593643"><ele>1122.6666666666667</ele><time>2026-04-27T11:44:08.17Z</time></trkpt><trkpt lat="39.7599367" lon="21.1595702"><ele>1117.3333333333335</ele><time>2026-04-27T11:44:09.166Z</time></trkpt><trkpt lat="39.7600007" lon="21.1597822"><ele>1112.0</ele><time>2026-04-27T11:44:10.168Z</time></trkpt><trkpt lat="39.7600631" lon="21.1599959"><ele>1112.0</ele><time>2026-04-27T11:44:11.164Z</time></trkpt><trkpt lat="39.7600511" lon="21.1601987"><ele>1112.0</ele><time>2026-04-27T11:44:12.167Z</time></trkpt><trkpt lat="39.7600457" lon="21.1603723"><ele>1112.0</ele><time>2026-04-27T11:44:13.167Z</time></trkpt><trkpt lat="39.7600529" lon="21.1605478"><ele>1112.0</ele><time>2026-04-27T11:44:14.171Z</time></trkpt><trkpt lat="39.7601166" lon="21.1607095"><ele>1123.5</ele><time>2026-04-27T11:44:15.167Z</time></trkpt><trkpt lat="39.7602004" lon="21.1608459"><ele>1135.0</ele><time>2026-04-27T11:44:16.169Z</time></trkpt><trkpt lat="39.7602765" lon="21.1609613"><ele>1146.5</ele><time>2026-04-27T11:44:17.166Z</time></trkpt><trkpt lat="39.7603419" lon="21.1610731"><ele>1158.0</ele><time>2026-04-27T11:44:18.168Z</time></trkpt><trkpt lat="39.7603941" lon="21.1612044"><ele>1158.0</ele><time>2026-04-27T11:44:19.167Z</time></trkpt><trkpt lat="39.7603949" lon="21.1613236"><ele>1158.0</ele><time>2026-04-27T11:44:20.167Z</time></trkpt><trkpt lat="39.7604129" lon="21.1614552"><ele>1158.0</ele><time>2026-04-27T11:44:21.168Z</time></trkpt><trkpt lat="39.7603312" lon="21.1616316"><ele>1158.0</ele><time>2026-04-27T11:44:22.166Z</time></trkpt><trkpt lat="39.7600944" lon="21.161752"><ele>1148.0</ele><time>2026-04-27T11:44:23.166Z</time></trkpt><trkpt lat="39.7598376" lon="21.1616777"><ele>1138.0</ele><time>2026-04-27T11:44:24.166Z</time></trkpt><trkpt lat="39.7597025" lon="21.1617699"><ele>1128.0</ele><time>2026-04-27T11:44:25.167Z</time></trkpt><trkpt lat="39.7595874" lon="21.1619043"><ele>1128.0</ele><time>2026-04-27T11:44:26.164Z</time></trkpt><trkpt lat="39.7595037" lon="21.162102"><ele>1128.0</ele><time>2026-04-27T11:44:27.168Z</time></trkpt><trkpt lat="39.7594399" lon="21.162346"><ele>1128.0</ele><time>2026-04-27T11:44:28.17Z</time></trkpt><trkpt lat="39.759375" lon="21.1625953"><ele>1129.6666666666667</ele><time>2026-04-27T11:44:29.166Z</time></trkpt><trkpt lat="39.7592821" lon="21.1628329"><ele>1131.3333333333335</ele><time>2026-04-27T11:44:30.168Z</time></trkpt><trkpt lat="39.7591668" lon="21.1630838"><ele>1133.0</ele><time>2026-04-27T11:44:31.165Z</time></trkpt><trkpt lat="39.7590522" lon="21.1633255"><ele>1133.0</ele><time>2026-04-27T11:44:32.167Z</time></trkpt><trkpt lat="39.7589483" lon="21.1635516"><ele>1133.0</ele><time>2026-04-27T11:44:33.17Z</time></trkpt><trkpt lat="39.7588401" lon="21.1637533"><ele>1133.0</ele><time>2026-04-27T11:44:34.167Z</time></trkpt><trkpt lat="39.7587424" lon="21.1639263"><ele>1138.0</ele><time>2026-04-27T11:44:35.169Z</time></trkpt><trkpt lat="39.7586603" lon="21.1640858"><ele>1143.0</ele><time>2026-04-27T11:44:36.166Z</time></trkpt><trkpt lat="39.7586074" lon="21.1642556"><ele>1148.0</ele><time>2026-04-27T11:44:37.167Z</time></trkpt><trkpt lat="39.7585873" lon="21.1644342"><ele>1153.0</ele><time>2026-04-27T11:44:38.17Z</time></trkpt><trkpt lat="39.7586125" lon="21.1646098"><ele>1153.0</ele><time>2026-04-27T11:44:39.168Z</time></trkpt><trkpt lat="39.7586791" lon="21.1647702"><ele>1153.0</ele><time>2026-04-27T11:44:40.17Z</time></trkpt><trkpt lat="39.7587842" lon="21.1648929"><ele>1153.0</ele><time>2026-04-27T11:44:41.169Z</time></trkpt><trkpt lat="39.7589119" lon="21.1649773"><ele>1153.0</ele><time>2026-04-27T11:44:42.165Z</time></trkpt><trkpt lat="39.7590695" lon="21.1650237"><ele>1148.3333333333333</ele><time>2026-04-27T11:44:43.168Z</time></trkpt><trkpt lat="39.7592657" lon="21.1650515"><ele>1143.6666666666667</ele><time>2026-04-27T11:44:44.164Z</time></trkpt><trkpt lat="39.7594924" lon="21.1650833"><ele>1139.0</ele><time>2026-04-27T11:44:45.168Z</time></trkpt><trkpt lat="39.7597539" lon="21.1651195"><ele>1139.0</ele><time>2026-04-27T11:44:46.167Z</time></trkpt><trkpt lat="39.7600294" lon="21.1651584"><ele>1139.0</ele><time>2026-04-27T11:44:47.169Z</time></trkpt><trkpt lat="39.7603288" lon="21.1651955"><ele>1139.0</ele><time>2026-04-27T11:44:48.17Z</time></trkpt><trkpt lat="39.7606363" lon="21.1652346"><ele>1139.0</ele><time>2026-04-27T11:44:49.166Z</time></trkpt><trkpt lat="39.7609282" lon="21.1652684"><ele>1155.0</ele><time>2026-04-27T11:44:50.168Z</time></trkpt><trkpt lat="39.7611913" lon="21.1653051"><ele>1171.0</ele><time>2026-04-27T11:44:51.166Z</time></trkpt><trkpt lat="39.7614349" lon="21.1653387"><ele>1171.0</ele><time>2026-04-27T11:44:52.168Z</time></trkpt><trkpt lat="39.7616674" lon="21.1653718"><ele>1171.0</ele><time>2026-04-27T11:44:53.166Z</time></trkpt><trkpt lat="39.7618903" lon="21.1654024"><ele>1170.6666666666665</ele><time>2026-04-27T11:44:54.166Z</time></trkpt><trkpt lat="39.7620972" lon="21.1654317"><ele>1170.3333333333333</ele><time>2026-04-27T11:44:55.165Z</time></trkpt><trkpt lat="39.7622854" lon="21.1654528"><ele>1170.0</ele><time>2026-04-27T11:44:56.167Z</time></trkpt><trkpt lat="39.762467" lon="21.1654596"><ele>1170.0</ele><time>2026-04-27T11:44:57.168Z</time></trkpt><trkpt lat="39.7626479" lon="21.1654317"><ele>1170.0</ele><time>2026-04-27T11:44:58.166Z</time></trkpt><trkpt lat="39.762838" lon="21.1653651"><ele>1170.0</ele><time>2026-04-27T11:44:59.168Z</time></trkpt><trkpt lat="39.763011" lon="21.1652856"><ele>1170.0</ele><time>2026-04-27T11:45:00.167Z</time></trkpt><trkpt lat="39.7631645" lon="21.1652125"><ele>1170.0</ele><time>2026-04-27T11:45:01.168Z</time></trkpt><trkpt lat="39.7633111" lon="21.1651689"><ele>1170.0</ele><time>2026-04-27T11:45:02.166Z</time></trkpt><trkpt lat="39.7634477" lon="21.1651936"><ele>1170.0</ele><time>2026-04-27T11:45:03.165Z</time></trkpt><trkpt lat="39.763592" lon="21.1652333"><ele>1170.0</ele><time>2026-04-27T11:45:04.17Z</time></trkpt><trkpt lat="39.7637086" lon="21.1654105"><ele>1170.0</ele><time>2026-04-27T11:45:05.168Z</time></trkpt><trkpt lat="39.7638154" lon="21.1655617"><ele>1170.0</ele><time>2026-04-27T11:45:06.168Z</time></trkpt><trkpt lat="39.7639309" lon="21.1656958"><ele>1170.0</ele><time>2026-04-27T11:45:07.167Z</time></trkpt><trkpt lat="39.7640589" lon="21.1658025"><ele>1170.0</ele><time>2026-04-27T11:45:08.168Z</time></trkpt><trkpt lat="39.7642106" lon="21.1658656"><ele>1170.0</ele><time>2026-04-27T11:45:09.167Z</time></trkpt><trkpt lat="39.7643727" lon="21.1658874"><ele>1170.0</ele><time>2026-04-27T11:45:10.168Z</time></trkpt><trkpt lat="39.7645336" lon="21.1658982"><ele>1170.0</ele><time>2026-04-27T11:45:11.167Z</time></trkpt><trkpt lat="39.7646905" lon="21.1659343"><ele>1170.0</ele><time>2026-04-27T11:45:12.166Z</time></trkpt><trkpt lat="39.7648399" lon="21.1659982"><ele>1170.0</ele><time>2026-04-27T11:45:13.169Z</time></trkpt><trkpt lat="39.7649463" lon="21.1661322"><ele>1170.0</ele><time>2026-04-27T11:45:14.169Z</time></trkpt><trkpt lat="39.7650427" lon="21.1662854"><ele>1170.0</ele><time>2026-04-27T11:45:15.168Z</time></trkpt><trkpt lat="39.7651295" lon="21.1664594"><ele>1170.0</ele><time>2026-04-27T11:45:16.166Z</time></trkpt><trkpt lat="39.7652014" lon="21.1666477"><ele>1170.0</ele><time>2026-04-27T11:45:17.166Z</time></trkpt><trkpt lat="39.7652214" lon="21.1669184"><ele>1170.0</ele><time>2026-04-27T11:45:18.168Z</time></trkpt><trkpt lat="39.7652544" lon="21.1671719"><ele>1170.0</ele><time>2026-04-27T11:45:19.169Z</time></trkpt><trkpt lat="39.7652891" lon="21.1673943"><ele>1170.0</ele><time>2026-04-27T11:45:20.169Z</time></trkpt><trkpt lat="39.765331" lon="21.1675883"><ele>1170.0</ele><time>2026-04-27T11:45:21.169Z</time></trkpt><trkpt lat="39.7654012" lon="21.1677454"><ele>1170.0</ele><time>2026-04-27T11:45:22.164Z</time></trkpt><trkpt lat="39.7655167" lon="21.1678825"><ele>1170.0</ele><time>2026-04-27T11:45:23.167Z</time></trkpt><trkpt lat="39.7656694" lon="21.1680111"><ele>1170.0</ele><time>2026-04-27T11:45:24.166Z</time></trkpt><trkpt lat="39.7658354" lon="21.1681338"><ele>1170.0</ele><time>2026-04-27T11:45:25.17Z</time></trkpt><trkpt lat="39.7659866" lon="21.1682446"><ele>1170.0</ele><time>2026-04-27T11:45:26.166Z</time></trkpt><trkpt lat="39.7661338" lon="21.1683328"><ele>1170.0</ele><time>2026-04-27T11:45:27.167Z</time></trkpt><trkpt lat="39.7663023" lon="21.1683688"><ele>1170.0</ele><time>2026-04-27T11:45:28.169Z</time></trkpt><trkpt lat="39.7664944" lon="21.16836"><ele>1170.0</ele><time>2026-04-27T11:45:29.167Z</time></trkpt><trkpt lat="39.7666933" lon="21.1683116"><ele>1167.0</ele><time>2026-04-27T11:45:30.167Z</time></trkpt><trkpt lat="39.7668817" lon="21.1682423"><ele>1164.0</ele><time>2026-04-27T11:45:31.17Z</time></trkpt><trkpt lat="39.7670526" lon="21.1681833"><ele>1161.0</ele><time>2026-04-27T11:45:32.17Z</time></trkpt><trkpt lat="39.7672097" lon="21.168148"><ele>1161.0</ele><time>2026-04-27T11:45:33.166Z</time></trkpt><trkpt lat="39.7673442" lon="21.1682154"><ele>1161.0</ele><time>2026-04-27T11:45:34.168Z</time></trkpt><trkpt lat="39.767481" lon="21.1682831"><ele>1161.0</ele><time>2026-04-27T11:45:35.167Z</time></trkpt><trkpt lat="39.7676083" lon="21.1683427"><ele>1161.0</ele><time>2026-04-27T11:45:36.167Z</time></trkpt><trkpt lat="39.7677424" lon="21.1683667"><ele>1164.0</ele><time>2026-04-27T11:45:37.167Z</time></trkpt><trkpt lat="39.767885" lon="21.1683366"><ele>1167.0</ele><time>2026-04-27T11:45:38.167Z</time></trkpt><trkpt lat="39.7680264" lon="21.1682698"><ele>1170.0</ele><time>2026-04-27T11:45:39.167Z</time></trkpt><trkpt lat="39.7681543" lon="21.1681914"><ele>1173.0</ele><time>2026-04-27T11:45:40.168Z</time></trkpt><trkpt lat="39.7682767" lon="21.1681262"><ele>1183.0</ele><time>2026-04-27T11:45:41.166Z</time></trkpt><trkpt lat="39.7684048" lon="21.1681023"><ele>1193.0</ele><time>2026-04-27T11:45:42.168Z</time></trkpt><trkpt lat="39.7685209" lon="21.1681379"><ele>1203.0</ele><time>2026-04-27T11:45:43.166Z</time></trkpt><trkpt lat="39.7686347" lon="21.1681672"><ele>1213.0</ele><time>2026-04-27T11:45:44.166Z</time></trkpt><trkpt lat="39.7687528" lon="21.1681891"><ele>1213.0</ele><time>2026-04-27T11:45:45.166Z</time></trkpt><trkpt lat="39.7688825" lon="21.1681898"><ele>1213.0</ele><time>2026-04-27T11:45:46.168Z</time></trkpt><trkpt lat="39.7690231" lon="21.1681645"><ele>1213.0</ele><time>2026-04-27T11:45:47.169Z</time></trkpt><trkpt lat="39.7691744" lon="21.16812"><ele>1213.0</ele><time>2026-04-27T11:45:48.166Z</time></trkpt><trkpt lat="39.7693326" lon="21.1680586"><ele>1215.0</ele><time>2026-04-27T11:45:49.169Z</time></trkpt><trkpt lat="39.7694834" lon="21.1680062"><ele>1217.0</ele><time>2026-04-27T11:45:50.168Z</time></trkpt><trkpt lat="39.7696355" lon="21.1679599"><ele>1219.0</ele><time>2026-04-27T11:45:51.167Z</time></trkpt><trkpt lat="39.7697831" lon="21.1679244"><ele>1219.0</ele><time>2026-04-27T11:45:52.167Z</time></trkpt><trkpt lat="39.7699224" lon="21.1679012"><ele>1219.0</ele><time>2026-04-27T11:45:53.169Z</time></trkpt><trkpt lat="39.7700497" lon="21.1678903"><ele>1219.0</ele><time>2026-04-27T11:45:54.168Z</time></trkpt><trkpt lat="39.7701683" lon="21.1678889"><ele>1219.0</ele><time>2026-04-27T11:45:55.17Z</time></trkpt><trkpt lat="39.7702824" lon="21.1678948"><ele>1218.2</ele><time>2026-04-27T11:45:56.17Z</time></trkpt><trkpt lat="39.7703848" lon="21.1679083"><ele>1217.4</ele><time>2026-04-27T11:45:57.167Z</time></trkpt><trkpt lat="39.7704797" lon="21.167925"><ele>1216.6</ele><time>2026-04-27T11:45:58.166Z</time></trkpt><trkpt lat="39.770577" lon="21.1679606"><ele>1215.8</ele><time>2026-04-27T11:45:59.168Z</time></trkpt><trkpt lat="39.7706744" lon="21.1680269"><ele>1215.0</ele><time>2026-04-27T11:46:00.168Z</time></trkpt><trkpt lat="39.7707742" lon="21.1681261"><ele>1210.5</ele><time>2026-04-27T11:46:01.167Z</time></trkpt><trkpt lat="39.770841" lon="21.1682584"><ele>1206.0</ele><time>2026-04-27T11:46:02.169Z</time></trkpt><trkpt lat="39.7708955" lon="21.1683894"><ele>1201.5</ele><time>2026-04-27T11:46:03.168Z</time></trkpt><trkpt lat="39.7709049" lon="21.168534"><ele>1197.0</ele><time>2026-04-27T11:46:04.169Z</time></trkpt><trkpt lat="39.7708983" lon="21.168693"><ele>1197.0</ele><time>2026-04-27T11:46:05.169Z</time></trkpt><trkpt lat="39.7708691" lon="21.1688688"><ele>1197.0</ele><time>2026-04-27T11:46:06.17Z</time></trkpt><trkpt lat="39.7708201" lon="21.1690397"><ele>1197.0</ele><time>2026-04-27T11:46:07.168Z</time></trkpt><trkpt lat="39.7707315" lon="21.1692006"><ele>1197.0</ele><time>2026-04-27T11:46:08.167Z</time></trkpt><trkpt lat="39.7705739" lon="21.1693199"><ele>1199.75</ele><time>2026-04-27T11:46:09.167Z</time></trkpt><trkpt lat="39.7704804" lon="21.1694441"><ele>1202.5</ele><time>2026-04-27T11:46:10.165Z</time></trkpt><trkpt lat="39.7704134" lon="21.1696014"><ele>1205.25</ele><time>2026-04-27T11:46:11.165Z</time></trkpt><trkpt lat="39.7703847" lon="21.1697858"><ele>1208.0</ele><time>2026-04-27T11:46:12.165Z</time></trkpt><trkpt lat="39.7703572" lon="21.1699695"><ele>1205.0</ele><time>2026-04-27T11:46:13.167Z</time></trkpt><trkpt lat="39.770324" lon="21.1701615"><ele>1202.0</ele><time>2026-04-27T11:46:14.166Z</time></trkpt><trkpt lat="39.7702883" lon="21.1703385"><ele>1199.0</ele><time>2026-04-27T11:46:15.166Z</time></trkpt><trkpt lat="39.7701721" lon="21.1704366"><ele>1196.0</ele><time>2026-04-27T11:46:16.165Z</time></trkpt><trkpt lat="39.7700398" lon="21.1705166"><ele>1196.0</ele><time>2026-04-27T11:46:17.167Z</time></trkpt><trkpt lat="39.7698352" lon="21.1704878"><ele>1196.0</ele><time>2026-04-27T11:46:18.168Z</time></trkpt><trkpt lat="39.7697249" lon="21.1705654"><ele>1196.0</ele><time>2026-04-27T11:46:19.169Z</time></trkpt><trkpt lat="39.7696293" lon="21.1706749"><ele>1204.6666666666667</ele><time>2026-04-27T11:46:20.167Z</time></trkpt><trkpt lat="39.7695534" lon="21.1708495"><ele>1213.3333333333333</ele><time>2026-04-27T11:46:21.166Z</time></trkpt><trkpt lat="39.7694976" lon="21.1710616"><ele>1222.0</ele><time>2026-04-27T11:46:22.165Z</time></trkpt><trkpt lat="39.7694556" lon="21.1712991"><ele>1217.6666666666665</ele><time>2026-04-27T11:46:23.166Z</time></trkpt><trkpt lat="39.7693903" lon="21.171525"><ele>1213.3333333333333</ele><time>2026-04-27T11:46:24.171Z</time></trkpt><trkpt lat="39.7692904" lon="21.1717347"><ele>1209.0</ele><time>2026-04-27T11:46:25.169Z</time></trkpt><trkpt lat="39.7691363" lon="21.1718987"><ele>1209.0</ele><time>2026-04-27T11:46:26.171Z</time></trkpt><trkpt lat="39.7689652" lon="21.1720947"><ele>1209.0</ele><time>2026-04-27T11:46:27.167Z</time></trkpt><trkpt lat="39.7687938" lon="21.1722924"><ele>1212.5</ele><time>2026-04-27T11:46:28.164Z</time></trkpt><trkpt lat="39.7685816" lon="21.1724546"><ele>1216.0</ele><time>2026-04-27T11:46:29.168Z</time></trkpt><trkpt lat="39.768352" lon="21.1726162"><ele>1216.0</ele><time>2026-04-27T11:46:30.166Z</time></trkpt><trkpt lat="39.7681333" lon="21.1727799"><ele>1216.0</ele><time>2026-04-27T11:46:31.168Z</time></trkpt><trkpt lat="39.7679328" lon="21.1729241"><ele>1216.0</ele><time>2026-04-27T11:46:32.166Z</time></trkpt><trkpt lat="39.767742" lon="21.1730793"><ele>1216.0</ele><time>2026-04-27T11:46:33.167Z</time></trkpt><trkpt lat="39.7675821" lon="21.1732535"><ele>1216.0</ele><time>2026-04-27T11:46:34.168Z</time></trkpt><trkpt lat="39.7674484" lon="21.1734354"><ele>1220.6666666666665</ele><time>2026-04-27T11:46:35.169Z</time></trkpt><trkpt lat="39.7673387" lon="21.1736146"><ele>1225.3333333333333</ele><time>2026-04-27T11:46:36.169Z</time></trkpt><trkpt lat="39.7672399" lon="21.1737849"><ele>1230.0</ele><time>2026-04-27T11:46:37.165Z</time></trkpt><trkpt lat="39.7671442" lon="21.1739484"><ele>1229.25</ele><time>2026-04-27T11:46:38.166Z</time></trkpt><trkpt lat="39.7670495" lon="21.1741042"><ele>1228.5</ele><time>2026-04-27T11:46:39.167Z</time></trkpt><trkpt lat="39.766949" lon="21.1742449"><ele>1227.75</ele><time>2026-04-27T11:46:40.167Z</time></trkpt><trkpt lat="39.7668333" lon="21.1743614"><ele>1227.0</ele><time>2026-04-27T11:46:41.167Z</time></trkpt><trkpt lat="39.7667068" lon="21.1744553"><ele>1227.0</ele><time>2026-04-27T11:46:42.167Z</time></trkpt><trkpt lat="39.7665872" lon="21.1745442"><ele>1227.0</ele><time>2026-04-27T11:46:43.168Z</time></trkpt><trkpt lat="39.7664654" lon="21.1746334"><ele>1227.0</ele><time>2026-04-27T11:46:44.169Z</time></trkpt><trkpt lat="39.7663512" lon="21.1747422"><ele>1227.0</ele><time>2026-04-27T11:46:45.167Z</time></trkpt><trkpt lat="39.7662494" lon="21.1748685"><ele>1226.0</ele><time>2026-04-27T11:46:46.168Z</time></trkpt><trkpt lat="39.7661616" lon="21.1750083"><ele>1225.0</ele><time>2026-04-27T11:46:47.171Z</time></trkpt><trkpt lat="39.7660866" lon="21.175155"><ele>1224.0</ele><time>2026-04-27T11:46:48.165Z</time></trkpt><trkpt lat="39.76602" lon="21.175308"><ele>1223.0</ele><time>2026-04-27T11:46:49.171Z</time></trkpt><trkpt lat="39.7659659" lon="21.1754668"><ele>1223.0</ele><time>2026-04-27T11:46:50.166Z</time></trkpt><trkpt lat="39.7659265" lon="21.175639"><ele>1223.0</ele><time>2026-04-27T11:46:51.171Z</time></trkpt><trkpt lat="39.7659003" lon="21.1758037"><ele>1223.0</ele><time>2026-04-27T11:46:52.167Z</time></trkpt><trkpt lat="39.7658901" lon="21.1759686"><ele>1223.0</ele><time>2026-04-27T11:46:53.169Z</time></trkpt><trkpt lat="39.7659013" lon="21.1761375"><ele>1226.75</ele><time>2026-04-27T11:46:54.168Z</time></trkpt><trkpt lat="39.7659355" lon="21.176303"><ele>1230.5</ele><time>2026-04-27T11:46:55.166Z</time></trkpt><trkpt lat="39.765989" lon="21.176454"><ele>1234.25</ele><time>2026-04-27T11:46:56.167Z</time></trkpt><trkpt lat="39.7660622" lon="21.176595"><ele>1238.0</ele><time>2026-04-27T11:46:57.167Z</time></trkpt><trkpt lat="39.7661522" lon="21.1767144"><ele>1243.6</ele><time>2026-04-27T11:46:58.168Z</time></trkpt><trkpt lat="39.76625" lon="21.1768148"><ele>1249.1999999999998</ele><time>2026-04-27T11:46:59.168Z</time></trkpt><trkpt lat="39.7663502" lon="21.1768982"><ele>1254.8</ele><time>2026-04-27T11:47:00.168Z</time></trkpt><trkpt lat="39.7664424" lon="21.1769581"><ele>1260.3999999999999</ele><time>2026-04-27T11:47:01.165Z</time></trkpt><trkpt lat="39.7665284" lon="21.1769892"><ele>1266.0</ele><time>2026-04-27T11:47:02.164Z</time></trkpt><trkpt lat="39.7666113" lon="21.1769943"><ele>1266.0</ele><time>2026-04-27T11:47:03.166Z</time></trkpt><trkpt lat="39.7666838" lon="21.176981"><ele>1266.0</ele><time>2026-04-27T11:47:04.167Z</time></trkpt><trkpt lat="39.7667896" lon="21.1769295"><ele>1266.0</ele><time>2026-04-27T11:47:06.169Z</time></trkpt><trkpt lat="39.7668479" lon="21.1768902"><ele>1266.0</ele><time>2026-04-27T11:47:07.169Z</time></trkpt><trkpt lat="39.7669144" lon="21.1768601"><ele>1266.0</ele><time>2026-04-27T11:47:08.17Z</time></trkpt><trkpt lat="39.7669859" lon="21.1768265"><ele>1266.0</ele><time>2026-04-27T11:47:09.169Z</time></trkpt><trkpt lat="39.7670677" lon="21.1767838"><ele>1265.6666666666667</ele><time>2026-04-27T11:47:10.167Z</time></trkpt><trkpt lat="39.7671526" lon="21.176742"><ele>1265.3333333333333</ele><time>2026-04-27T11:47:11.168Z</time></trkpt><trkpt lat="39.7672388" lon="21.1766984"><ele>1265.0</ele><time>2026-04-27T11:47:12.168Z</time></trkpt><trkpt lat="39.7673214" lon="21.176663"><ele>1264.6666666666665</ele><time>2026-04-27T11:47:13.169Z</time></trkpt><trkpt lat="39.7674071" lon="21.1766374"><ele>1264.3333333333333</ele><time>2026-04-27T11:47:14.167Z</time></trkpt><trkpt lat="39.7674952" lon="21.176617"><ele>1264.0</ele><time>2026-04-27T11:47:15.168Z</time></trkpt><trkpt lat="39.7675847" lon="21.1766016"><ele>1264.0</ele><time>2026-04-27T11:47:16.167Z</time></trkpt><trkpt lat="39.7676745" lon="21.1765828"><ele>1264.0</ele><time>2026-04-27T11:47:17.167Z</time></trkpt><trkpt lat="39.7677694" lon="21.1765659"><ele>1264.0</ele><time>2026-04-27T11:47:18.169Z</time></trkpt><trkpt lat="39.7678724" lon="21.1765518"><ele>1264.0</ele><time>2026-04-27T11:47:19.167Z</time></trkpt><trkpt lat="39.7679808" lon="21.1765406"><ele>1264.0</ele><time>2026-04-27T11:47:20.169Z</time></trkpt><trkpt lat="39.7680959" lon="21.176529"><ele>1264.0</ele><time>2026-04-27T11:47:21.168Z</time></trkpt><trkpt lat="39.7682188" lon="21.1765243"><ele>1264.0</ele><time>2026-04-27T11:47:22.17Z</time></trkpt><trkpt lat="39.7683473" lon="21.1765234"><ele>1264.0</ele><time>2026-04-27T11:47:23.168Z</time></trkpt><trkpt lat="39.7684805" lon="21.1765246"><ele>1264.0</ele><time>2026-04-27T11:47:24.168Z</time></trkpt><trkpt lat="39.7686119" lon="21.1765253"><ele>1264.0</ele><time>2026-04-27T11:47:25.167Z</time></trkpt><trkpt lat="39.7687403" lon="21.1765282"><ele>1264.0</ele><time>2026-04-27T11:47:26.167Z</time></trkpt><trkpt lat="39.7688729" lon="21.1765298"><ele>1264.0</ele><time>2026-04-27T11:47:27.166Z</time></trkpt><trkpt lat="39.7690068" lon="21.1765322"><ele>1264.0</ele><time>2026-04-27T11:47:28.168Z</time></trkpt><trkpt lat="39.7691453" lon="21.1765311"><ele>1264.0</ele><time>2026-04-27T11:47:29.169Z</time></trkpt><trkpt lat="39.7692818" lon="21.1765252"><ele>1264.0</ele><time>2026-04-27T11:47:30.167Z</time></trkpt><trkpt lat="39.76942" lon="21.1765127"><ele>1264.0</ele><time>2026-04-27T11:47:31.166Z</time></trkpt><trkpt lat="39.769559" lon="21.1764903"><ele>1264.0</ele><time>2026-04-27T11:47:32.168Z</time></trkpt><trkpt lat="39.7697019" lon="21.1764565"><ele>1268.5</ele><time>2026-04-27T11:47:33.169Z</time></trkpt><trkpt lat="39.7698421" lon="21.1764267"><ele>1273.0</ele><time>2026-04-27T11:47:34.17Z</time></trkpt><trkpt lat="39.7699822" lon="21.176399"><ele>1277.5</ele><time>2026-04-27T11:47:35.166Z</time></trkpt><trkpt lat="39.7701178" lon="21.1763673"><ele>1282.0</ele><time>2026-04-27T11:47:36.168Z</time></trkpt><trkpt lat="39.7702556" lon="21.1763285"><ele>1282.0</ele><time>2026-04-27T11:47:37.168Z</time></trkpt><trkpt lat="39.7703901" lon="21.1762981"><ele>1282.0</ele><time>2026-04-27T11:47:38.166Z</time></trkpt><trkpt lat="39.7705248" lon="21.1762745"><ele>1282.0</ele><time>2026-04-27T11:47:39.166Z</time></trkpt><trkpt lat="39.77066" lon="21.1762558"><ele>1282.0</ele><time>2026-04-27T11:47:40.165Z</time></trkpt><trkpt lat="39.7707979" lon="21.176239"><ele>1282.0</ele><time>2026-04-27T11:47:41.166Z</time></trkpt><trkpt lat="39.770937" lon="21.1762276"><ele>1282.0</ele><time>2026-04-27T11:47:42.168Z</time></trkpt><trkpt lat="39.7710776" lon="21.1762188"><ele>1282.0</ele><time>2026-04-27T11:47:43.169Z</time></trkpt><trkpt lat="39.7712185" lon="21.1762149"><ele>1282.0</ele><time>2026-04-27T11:47:44.169Z</time></trkpt><trkpt lat="39.7713607" lon="21.176214"><ele>1283.75</ele><time>2026-04-27T11:47:45.168Z</time></trkpt><trkpt lat="39.7715023" lon="21.1762129"><ele>1285.5</ele><time>2026-04-27T11:47:46.17Z</time></trkpt><trkpt lat="39.7716417" lon="21.1762046"><ele>1287.25</ele><time>2026-04-27T11:47:47.166Z</time></trkpt><trkpt lat="39.7717794" lon="21.1762022"><ele>1289.0</ele><time>2026-04-27T11:47:48.167Z</time></trkpt><trkpt lat="39.7719168" lon="21.1762011"><ele>1291.25</ele><time>2026-04-27T11:47:49.166Z</time></trkpt><trkpt lat="39.7720537" lon="21.1762063"><ele>1293.5</ele><time>2026-04-27T11:47:50.167Z</time></trkpt><trkpt lat="39.7721893" lon="21.176214"><ele>1295.75</ele><time>2026-04-27T11:47:51.166Z</time></trkpt><trkpt lat="39.7723219" lon="21.1762208"><ele>1298.0</ele><time>2026-04-27T11:47:52.167Z</time></trkpt><trkpt lat="39.7724557" lon="21.1762227"><ele>1298.0</ele><time>2026-04-27T11:47:53.166Z</time></trkpt><trkpt lat="39.7725857" lon="21.176238"><ele>1298.0</ele><time>2026-04-27T11:47:54.17Z</time></trkpt><trkpt lat="39.7727163" lon="21.1762598"><ele>1298.0</ele><time>2026-04-27T11:47:55.167Z</time></trkpt><trkpt lat="39.7728505" lon="21.1762904"><ele>1298.0</ele><time>2026-04-27T11:47:56.169Z</time></trkpt><trkpt lat="39.7729896" lon="21.176328"><ele>1300.25</ele><time>2026-04-27T11:47:57.168Z</time></trkpt><trkpt lat="39.7731308" lon="21.1763689"><ele>1302.5</ele><time>2026-04-27T11:47:58.164Z</time></trkpt><trkpt lat="39.7732725" lon="21.1764093"><ele>1304.75</ele><time>2026-04-27T11:47:59.165Z</time></trkpt><trkpt lat="39.7734143" lon="21.1764507"><ele>1307.0</ele><time>2026-04-27T11:48:00.166Z</time></trkpt><trkpt lat="39.7735552" lon="21.1764917"><ele>1304.75</ele><time>2026-04-27T11:48:01.167Z</time></trkpt><trkpt lat="39.7736945" lon="21.1765342"><ele>1302.5</ele><time>2026-04-27T11:48:02.167Z</time></trkpt><trkpt lat="39.7738313" lon="21.1765692"><ele>1300.25</ele><time>2026-04-27T11:48:03.165Z</time></trkpt><trkpt lat="39.773968" lon="21.176602"><ele>1298.0</ele><time>2026-04-27T11:48:04.167Z</time></trkpt><trkpt lat="39.7740994" lon="21.1766327"><ele>1298.0</ele><time>2026-04-27T11:48:05.164Z</time></trkpt><trkpt lat="39.7742287" lon="21.1766645"><ele>1298.0</ele><time>2026-04-27T11:48:06.167Z</time></trkpt><trkpt lat="39.7743591" lon="21.1766955"><ele>1298.0</ele><time>2026-04-27T11:48:07.166Z</time></trkpt><trkpt lat="39.7744975" lon="21.1767238"><ele>1298.0</ele><time>2026-04-27T11:48:08.166Z</time></trkpt><trkpt lat="39.7746369" lon="21.1767589"><ele>1301.0</ele><time>2026-04-27T11:48:09.166Z</time></trkpt><trkpt lat="39.7747726" lon="21.1767891"><ele>1304.0</ele><time>2026-04-27T11:48:10.165Z</time></trkpt><trkpt lat="39.7749044" lon="21.1767943"><ele>1307.0</ele><time>2026-04-27T11:48:11.169Z</time></trkpt><trkpt lat="39.7750276" lon="21.176746"><ele>1310.0</ele><time>2026-04-27T11:48:12.166Z</time></trkpt><trkpt lat="39.7751456" lon="21.1766412"><ele>1315.75</ele><time>2026-04-27T11:48:13.171Z</time></trkpt><trkpt lat="39.7752603" lon="21.1765136"><ele>1321.5</ele><time>2026-04-27T11:48:14.168Z</time></trkpt><trkpt lat="39.7753726" lon="21.1763823"><ele>1327.25</ele><time>2026-04-27T11:48:15.168Z</time></trkpt><trkpt lat="39.7754804" lon="21.1762654"><ele>1333.0</ele><time>2026-04-27T11:48:16.169Z</time></trkpt><trkpt lat="39.775605" lon="21.1761698"><ele>1333.0</ele><time>2026-04-27T11:48:17.167Z</time></trkpt><trkpt lat="39.775737" lon="21.1761183"><ele>1333.0</ele><time>2026-04-27T11:48:18.169Z</time></trkpt><trkpt lat="39.7758684" lon="21.1760745"><ele>1333.0</ele><time>2026-04-27T11:48:19.171Z</time></trkpt><trkpt lat="39.7759896" lon="21.1760271"><ele>1333.0</ele><time>2026-04-27T11:48:20.167Z</time></trkpt><trkpt lat="39.776101" lon="21.1759083"><ele>1335.0</ele><time>2026-04-27T11:48:21.166Z</time></trkpt><trkpt lat="39.7762141" lon="21.1757768"><ele>1337.0</ele><time>2026-04-27T11:48:22.168Z</time></trkpt><trkpt lat="39.7763193" lon="21.1756292"><ele>1339.0</ele><time>2026-04-27T11:48:23.167Z</time></trkpt><trkpt lat="39.7764292" lon="21.1754622"><ele>1339.0</ele><time>2026-04-27T11:48:24.167Z</time></trkpt><trkpt lat="39.7765366" lon="21.1753054"><ele>1339.0</ele><time>2026-04-27T11:48:25.164Z</time></trkpt><trkpt lat="39.7766523" lon="21.175172"><ele>1339.0</ele><time>2026-04-27T11:48:26.167Z</time></trkpt><trkpt lat="39.7767765" lon="21.1750608"><ele>1334.25</ele><time>2026-04-27T11:48:27.168Z</time></trkpt><trkpt lat="39.7768978" lon="21.1749575"><ele>1329.5</ele><time>2026-04-27T11:48:28.166Z</time></trkpt><trkpt lat="39.7770013" lon="21.1748395"><ele>1324.75</ele><time>2026-04-27T11:48:29.169Z</time></trkpt><trkpt lat="39.777069" lon="21.1746719"><ele>1320.0</ele><time>2026-04-27T11:48:30.166Z</time></trkpt><trkpt lat="39.777119" lon="21.1744662"><ele>1320.0</ele><time>2026-04-27T11:48:31.169Z</time></trkpt><trkpt lat="39.7771611" lon="21.1742419"><ele>1320.0</ele><time>2026-04-27T11:48:32.166Z</time></trkpt><trkpt lat="39.7772007" lon="21.1739884"><ele>1320.0</ele><time>2026-04-27T11:48:33.171Z</time></trkpt><trkpt lat="39.7772356" lon="21.1737231"><ele>1323.3333333333333</ele><time>2026-04-27T11:48:34.168Z</time></trkpt><trkpt lat="39.7772758" lon="21.1734595"><ele>1326.6666666666665</ele><time>2026-04-27T11:48:35.169Z</time></trkpt><trkpt lat="39.7773212" lon="21.1732011"><ele>1330.0</ele><time>2026-04-27T11:48:36.168Z</time></trkpt><trkpt lat="39.777368" lon="21.1729606"><ele>1334.0</ele><time>2026-04-27T11:48:37.168Z</time></trkpt><trkpt lat="39.777424" lon="21.1727351"><ele>1338.0</ele><time>2026-04-27T11:48:38.167Z</time></trkpt><trkpt lat="39.7774752" lon="21.1725094"><ele>1342.0</ele><time>2026-04-27T11:48:39.168Z</time></trkpt><trkpt lat="39.7775068" lon="21.172267"><ele>1343.3333333333333</ele><time>2026-04-27T11:48:40.167Z</time></trkpt><trkpt lat="39.7775127" lon="21.172017"><ele>1344.6666666666667</ele><time>2026-04-27T11:48:41.167Z</time></trkpt><trkpt lat="39.7774999" lon="21.1717623"><ele>1346.0</ele><time>2026-04-27T11:48:42.168Z</time></trkpt><trkpt lat="39.7774818" lon="21.1715233"><ele>1346.6666666666667</ele><time>2026-04-27T11:48:43.166Z</time></trkpt><trkpt lat="39.7774644" lon="21.1713033"><ele>1347.3333333333333</ele><time>2026-04-27T11:48:44.167Z</time></trkpt><trkpt lat="39.7774507" lon="21.1711013"><ele>1348.0</ele><time>2026-04-27T11:48:45.166Z</time></trkpt><trkpt lat="39.7774388" lon="21.1709202"><ele>1348.0</ele><time>2026-04-27T11:48:46.168Z</time></trkpt><trkpt lat="39.777433" lon="21.1707514"><ele>1348.0</ele><time>2026-04-27T11:48:47.169Z</time></trkpt><trkpt lat="39.7774426" lon="21.170588"><ele>1348.0</ele><time>2026-04-27T11:48:48.171Z</time></trkpt><trkpt lat="39.7774685" lon="21.1704265"><ele>1348.0</ele><time>2026-04-27T11:48:49.17Z</time></trkpt><trkpt lat="39.7775661" lon="21.1703281"><ele>1353.5</ele><time>2026-04-27T11:48:50.168Z</time></trkpt><trkpt lat="39.7776704" lon="21.1702545"><ele>1359.0</ele><time>2026-04-27T11:48:51.169Z</time></trkpt><trkpt lat="39.7777835" lon="21.1701967"><ele>1364.5</ele><time>2026-04-27T11:48:52.167Z</time></trkpt><trkpt lat="39.7779428" lon="21.1702992"><ele>1370.0</ele><time>2026-04-27T11:48:53.169Z</time></trkpt><trkpt lat="39.7780971" lon="21.1703637"><ele>1372.0</ele><time>2026-04-27T11:48:54.169Z</time></trkpt><trkpt lat="39.7782717" lon="21.1704281"><ele>1374.0</ele><time>2026-04-27T11:48:55.166Z</time></trkpt><trkpt lat="39.7784546" lon="21.1704846"><ele>1376.0</ele><time>2026-04-27T11:48:56.167Z</time></trkpt><trkpt lat="39.7786401" lon="21.1705402"><ele>1377.6666666666667</ele><time>2026-04-27T11:48:57.167Z</time></trkpt><trkpt lat="39.7788165" lon="21.1705929"><ele>1379.3333333333333</ele><time>2026-04-27T11:48:58.166Z</time></trkpt><trkpt lat="39.7789788" lon="21.1706416"><ele>1381.0</ele><time>2026-04-27T11:48:59.165Z</time></trkpt><trkpt lat="39.7791244" lon="21.1706809"><ele>1381.0</ele><time>2026-04-27T11:49:00.165Z</time></trkpt><trkpt lat="39.7792543" lon="21.1706887"><ele>1381.0</ele><time>2026-04-27T11:49:01.167Z</time></trkpt><trkpt lat="39.7793747" lon="21.1706599"><ele>1381.0</ele><time>2026-04-27T11:49:02.166Z</time></trkpt><trkpt lat="39.7794708" lon="21.1705753"><ele>1381.0</ele><time>2026-04-27T11:49:03.166Z</time></trkpt><trkpt lat="39.7795419" lon="21.1704405"><ele>1369.3333333333333</ele><time>2026-04-27T11:49:04.168Z</time></trkpt><trkpt lat="39.7795813" lon="21.1702579"><ele>1357.6666666666667</ele><time>2026-04-27T11:49:05.167Z</time></trkpt><trkpt lat="39.7795865" lon="21.1700428"><ele>1346.0</ele><time>2026-04-27T11:49:06.169Z</time></trkpt><trkpt lat="39.7795631" lon="21.1698036"><ele>1346.0</ele><time>2026-04-27T11:49:07.169Z</time></trkpt><trkpt lat="39.7795296" lon="21.1695529"><ele>1346.0</ele><time>2026-04-27T11:49:08.167Z</time></trkpt><trkpt lat="39.7795" lon="21.1692802"><ele>1346.0</ele><time>2026-04-27T11:49:09.169Z</time></trkpt><trkpt lat="39.7794768" lon="21.168984"><ele>1348.5</ele><time>2026-04-27T11:49:10.164Z</time></trkpt><trkpt lat="39.7794649" lon="21.1686844"><ele>1351.0</ele><time>2026-04-27T11:49:11.169Z</time></trkpt><trkpt lat="39.7794635" lon="21.1683737"><ele>1352.5</ele><time>2026-04-27T11:49:12.167Z</time></trkpt><trkpt lat="39.7794684" lon="21.1680549"><ele>1354.0</ele><time>2026-04-27T11:49:13.168Z</time></trkpt><trkpt lat="39.779472" lon="21.1677336"><ele>1354.0</ele><time>2026-04-27T11:49:14.166Z</time></trkpt><trkpt lat="39.7794719" lon="21.1674151"><ele>1354.0</ele><time>2026-04-27T11:49:15.166Z</time></trkpt><trkpt lat="39.7794715" lon="21.1671008"><ele>1357.0</ele><time>2026-04-27T11:49:16.166Z</time></trkpt><trkpt lat="39.779472" lon="21.1667856"><ele>1360.0</ele><time>2026-04-27T11:49:17.169Z</time></trkpt><trkpt lat="39.7794747" lon="21.1664749"><ele>1365.5</ele><time>2026-04-27T11:49:18.167Z</time></trkpt><trkpt lat="39.7794746" lon="21.1661697"><ele>1371.0</ele><time>2026-04-27T11:49:19.166Z</time></trkpt><trkpt lat="39.7794627" lon="21.1658632"><ele>1374.6666666666667</ele><time>2026-04-27T11:49:20.168Z</time></trkpt><trkpt lat="39.7794311" lon="21.1655659"><ele>1378.3333333333335</ele><time>2026-04-27T11:49:21.168Z</time></trkpt><trkpt lat="39.7793928" lon="21.1652921"><ele>1382.0</ele><time>2026-04-27T11:49:22.167Z</time></trkpt><trkpt lat="39.7793467" lon="21.1650383"><ele>1385.6666666666667</ele><time>2026-04-27T11:49:23.167Z</time></trkpt><trkpt lat="39.7793007" lon="21.1647781"><ele>1389.3333333333333</ele><time>2026-04-27T11:49:24.165Z</time></trkpt><trkpt lat="39.7792598" lon="21.164537"><ele>1393.0</ele><time>2026-04-27T11:49:25.167Z</time></trkpt><trkpt lat="39.7792151" lon="21.1642998"><ele>1393.0</ele><time>2026-04-27T11:49:26.167Z</time></trkpt><trkpt lat="39.7791687" lon="21.164059"><ele>1393.0</ele><time>2026-04-27T11:49:27.167Z</time></trkpt><trkpt lat="39.779125" lon="21.1638294"><ele>1393.0</ele><time>2026-04-27T11:49:28.165Z</time></trkpt><trkpt lat="39.7790857" lon="21.16362"><ele>1392.0</ele><time>2026-04-27T11:49:29.166Z</time></trkpt><trkpt lat="39.7790592" lon="21.1634227"><ele>1391.0</ele><time>2026-04-27T11:49:30.167Z</time></trkpt><trkpt lat="39.7790592" lon="21.1632438"><ele>1390.0</ele><time>2026-04-27T11:49:31.166Z</time></trkpt><trkpt lat="39.7790921" lon="21.1630839"><ele>1389.0</ele><time>2026-04-27T11:49:32.163Z</time></trkpt><trkpt lat="39.7791443" lon="21.1629493"><ele>1389.3333333333333</ele><time>2026-04-27T11:49:33.167Z</time></trkpt><trkpt lat="39.7792832" lon="21.1628664"><ele>1389.6666666666665</ele><time>2026-04-27T11:49:34.166Z</time></trkpt><trkpt lat="39.779453" lon="21.1628623"><ele>1390.0</ele><time>2026-04-27T11:49:35.165Z</time></trkpt><trkpt lat="39.7796368" lon="21.1628382"><ele>1390.0</ele><time>2026-04-27T11:49:36.165Z</time></trkpt><trkpt lat="39.7798142" lon="21.1628092"><ele>1390.0</ele><time>2026-04-27T11:49:37.165Z</time></trkpt><trkpt lat="39.7799908" lon="21.1627714"><ele>1390.0</ele><time>2026-04-27T11:49:38.165Z</time></trkpt><trkpt lat="39.7801514" lon="21.1627308"><ele>1388.5</ele><time>2026-04-27T11:49:39.168Z</time></trkpt><trkpt lat="39.7802949" lon="21.1626934"><ele>1387.0</ele><time>2026-04-27T11:49:40.167Z</time></trkpt><trkpt lat="39.7804163" lon="21.162654"><ele>1385.5</ele><time>2026-04-27T11:49:41.164Z</time></trkpt><trkpt lat="39.7805193" lon="21.1626016"><ele>1384.0</ele><time>2026-04-27T11:49:42.167Z</time></trkpt><trkpt lat="39.780603" lon="21.1625425"><ele>1384.0</ele><time>2026-04-27T11:49:43.168Z</time></trkpt><trkpt lat="39.7806745" lon="21.1624858"><ele>1384.0</ele><time>2026-04-27T11:49:44.169Z</time></trkpt><trkpt lat="39.7807361" lon="21.1624427"><ele>1384.0</ele><time>2026-04-27T11:49:45.169Z</time></trkpt><trkpt lat="39.780825" lon="21.1624088"><ele>1384.0</ele><time>2026-04-27T11:49:47.168Z</time></trkpt><trkpt lat="39.7808744" lon="21.1623243"><ele>1384.0</ele><time>2026-04-27T11:50:02.165Z</time></trkpt><trkpt lat="39.7808604" lon="21.1624061"><ele>1384.0</ele><time>2026-04-27T11:52:00.164Z</time></trkpt><trkpt lat="39.7809213" lon="21.1624383"><ele>1384.0</ele><time>2026-04-27T11:53:51.162Z</time></trkpt><trkpt lat="39.7809831" lon="21.1624557"><ele>1384.0</ele><time>2026-04-27T11:54:07.163Z</time></trkpt><trkpt lat="39.7810331" lon="21.1625115"><ele>1384.0</ele><time>2026-04-27T11:54:12.169Z</time></trkpt><trkpt lat="39.7811129" lon="21.1624796"><ele>1384.0</ele><time>2026-04-27T11:54:53.13Z</time></trkpt><trkpt lat="39.7810595" lon="21.1624224"><ele>1384.0</ele><time>2026-04-27T12:00:18.166Z</time></trkpt><trkpt lat="39.7811209" lon="21.1623832"><ele>1384.0</ele><time>2026-04-27T12:05:22.165Z</time></trkpt><trkpt lat="39.7810648" lon="21.1624243"><ele>1384.0</ele><time>2026-04-27T12:06:14.165Z</time></trkpt><trkpt lat="39.7811324" lon="21.1624773"><ele>1384.0</ele><time>2026-04-27T12:13:47.164Z</time></trkpt><trkpt lat="39.7810691" lon="21.1624447"><ele>1384.0</ele><time>2026-04-27T12:15:15.166Z</time></trkpt><trkpt lat="39.7810186" lon="21.1623929"><ele>1384.0</ele><time>2026-04-27T12:27:43.149Z</time></trkpt><trkpt lat="39.780947" lon="21.1623906"><ele>1384.0</ele><time>2026-04-27T12:27:53.15Z</time></trkpt><trkpt lat="39.7808928" lon="21.1623424"><ele>1384.0</ele><time>2026-04-27T12:28:08.149Z</time></trkpt><trkpt lat="39.7809613" lon="21.1623576"><ele>1384.0</ele><time>2026-04-27T12:28:43.155Z</time></trkpt><trkpt lat="39.7810428" lon="21.1624383"><ele>1384.0</ele><time>2026-04-27T12:29:27.149Z</time></trkpt><trkpt lat="39.7809721" lon="21.1624157"><ele>1384.0</ele><time>2026-04-27T12:34:25.149Z</time></trkpt><trkpt lat="39.7809084" lon="21.1623742"><ele>1384.0</ele><time>2026-04-27T12:34:32.15Z</time></trkpt><trkpt lat="39.7808421" lon="21.162396"><ele>1384.0</ele><time>2026-04-27T12:34:42.149Z</time></trkpt><trkpt lat="39.7808677" lon="21.162164"><ele>1384.0</ele><time>2026-04-27T12:36:37.15Z</time></trkpt><trkpt lat="39.7809467" lon="21.1621637"><ele>1384.0</ele><time>2026-04-27T12:36:42.149Z</time></trkpt><trkpt lat="39.7809188" lon="21.1620902"><ele>1386.6</ele><time>2026-04-27T12:37:28.149Z</time></trkpt><trkpt lat="39.7809217" lon="21.1619407"><ele>1389.2</ele><time>2026-04-27T12:37:37.15Z</time></trkpt><trkpt lat="39.7809371" lon="21.1617836"><ele>1391.8</ele><time>2026-04-27T12:37:39.149Z</time></trkpt><trkpt lat="39.7809494" lon="21.1616828"><ele>1394.3999999999999</ele><time>2026-04-27T12:37:40.149Z</time></trkpt><trkpt lat="39.7809724" lon="21.1615782"><ele>1397.0</ele><time>2026-04-27T12:37:41.149Z</time></trkpt><trkpt lat="39.7810051" lon="21.1614681"><ele>1397.3999999999999</ele><time>2026-04-27T12:37:42.15Z</time></trkpt><trkpt lat="39.7810421" lon="21.1613487"><ele>1397.8</ele><time>2026-04-27T12:37:43.149Z</time></trkpt><trkpt lat="39.781084" lon="21.161215"><ele>1398.2</ele><time>2026-04-27T12:37:44.149Z</time></trkpt><trkpt lat="39.781124" lon="21.1610818"><ele>1398.6</ele><time>2026-04-27T12:37:45.149Z</time></trkpt><trkpt lat="39.7811625" lon="21.1609496"><ele>1399.0</ele><time>2026-04-27T12:37:46.15Z</time></trkpt><trkpt lat="39.7812005" lon="21.1608343"><ele>1399.0</ele><time>2026-04-27T12:37:47.149Z</time></trkpt><trkpt lat="39.7812356" lon="21.1607298"><ele>1399.0</ele><time>2026-04-27T12:37:48.149Z</time></trkpt><trkpt lat="39.7812685" lon="21.1606331"><ele>1399.0</ele><time>2026-04-27T12:37:49.15Z</time></trkpt><trkpt lat="39.7813026" lon="21.1605411"><ele>1399.0</ele><time>2026-04-27T12:37:50.149Z</time></trkpt><trkpt lat="39.7813432" lon="21.160436"><ele>1399.0</ele><time>2026-04-27T12:37:51.149Z</time></trkpt><trkpt lat="39.7813936" lon="21.1603287"><ele>1399.0</ele><time>2026-04-27T12:37:52.149Z</time></trkpt><trkpt lat="39.7814542" lon="21.160223"><ele>1399.6</ele><time>2026-04-27T12:37:53.149Z</time></trkpt><trkpt lat="39.781522" lon="21.1601197"><ele>1400.2</ele><time>2026-04-27T12:37:54.149Z</time></trkpt><trkpt lat="39.7815973" lon="21.1600136"><ele>1400.8</ele><time>2026-04-27T12:37:55.15Z</time></trkpt><trkpt lat="39.7816834" lon="21.1599227"><ele>1401.3999999999999</ele><time>2026-04-27T12:37:56.15Z</time></trkpt><trkpt lat="39.7817824" lon="21.1598521"><ele>1402.0</ele><time>2026-04-27T12:37:57.149Z</time></trkpt><trkpt lat="39.7818896" lon="21.1598013"><ele>1403.5</ele><time>2026-04-27T12:37:58.149Z</time></trkpt><trkpt lat="39.7820005" lon="21.1597703"><ele>1405.0</ele><time>2026-04-27T12:37:59.149Z</time></trkpt><trkpt lat="39.7821129" lon="21.1597533"><ele>1406.5</ele><time>2026-04-27T12:38:00.149Z</time></trkpt><trkpt lat="39.782231" lon="21.159751"><ele>1408.0</ele><time>2026-04-27T12:38:01.149Z</time></trkpt><trkpt lat="39.7823532" lon="21.1597554"><ele>1408.0</ele><time>2026-04-27T12:38:02.149Z</time></trkpt><trkpt lat="39.7824762" lon="21.1597585"><ele>1408.0</ele><time>2026-04-27T12:38:03.15Z</time></trkpt><trkpt lat="39.7826042" lon="21.1597728"><ele>1408.0</ele><time>2026-04-27T12:38:04.149Z</time></trkpt><trkpt lat="39.7827326" lon="21.1597834"><ele>1408.0</ele><time>2026-04-27T12:38:05.15Z</time></trkpt><trkpt lat="39.7828669" lon="21.1597976"><ele>1406.25</ele><time>2026-04-27T12:38:06.15Z</time></trkpt><trkpt lat="39.7830045" lon="21.1598128"><ele>1404.5</ele><time>2026-04-27T12:38:07.149Z</time></trkpt><trkpt lat="39.7831503" lon="21.1598158"><ele>1402.75</ele><time>2026-04-27T12:38:08.15Z</time></trkpt><trkpt lat="39.783295" lon="21.1598117"><ele>1401.0</ele><time>2026-04-27T12:38:09.149Z</time></trkpt><trkpt lat="39.7834356" lon="21.1597852"><ele>1396.5</ele><time>2026-04-27T12:38:10.149Z</time></trkpt><trkpt lat="39.7835713" lon="21.1597323"><ele>1392.0</ele><time>2026-04-27T12:38:11.149Z</time></trkpt><trkpt lat="39.7837081" lon="21.159689"><ele>1387.5</ele><time>2026-04-27T12:38:12.149Z</time></trkpt><trkpt lat="39.783816" lon="21.159583"><ele>1383.0</ele><time>2026-04-27T12:38:13.149Z</time></trkpt><trkpt lat="39.7839323" lon="21.1594661"><ele>1383.0</ele><time>2026-04-27T12:38:14.15Z</time></trkpt><trkpt lat="39.7840517" lon="21.1593477"><ele>1383.0</ele><time>2026-04-27T12:38:15.15Z</time></trkpt><trkpt lat="39.7841743" lon="21.1592478"><ele>1383.0</ele><time>2026-04-27T12:38:16.15Z</time></trkpt><trkpt lat="39.7843042" lon="21.1591664"><ele>1383.0</ele><time>2026-04-27T12:38:17.15Z</time></trkpt><trkpt lat="39.7844428" lon="21.159097"><ele>1381.3333333333333</ele><time>2026-04-27T12:38:18.15Z</time></trkpt><trkpt lat="39.7845849" lon="21.1590386"><ele>1379.6666666666665</ele><time>2026-04-27T12:38:19.149Z</time></trkpt><trkpt lat="39.7847308" lon="21.1589913"><ele>1378.0</ele><time>2026-04-27T12:38:20.15Z</time></trkpt><trkpt lat="39.7848829" lon="21.1589551"><ele>1377.3333333333333</ele><time>2026-04-27T12:38:21.15Z</time></trkpt><trkpt lat="39.7850483" lon="21.1589223"><ele>1376.6666666666667</ele><time>2026-04-27T12:38:22.15Z</time></trkpt><trkpt lat="39.7852178" lon="21.1588906"><ele>1376.0</ele><time>2026-04-27T12:38:23.15Z</time></trkpt><trkpt lat="39.7853884" lon="21.1588558"><ele>1375.6666666666667</ele><time>2026-04-27T12:38:24.149Z</time></trkpt><trkpt lat="39.7855621" lon="21.1588222"><ele>1375.3333333333333</ele><time>2026-04-27T12:38:25.15Z</time></trkpt><trkpt lat="39.7857464" lon="21.158782"><ele>1375.0</ele><time>2026-04-27T12:38:26.15Z</time></trkpt><trkpt lat="39.7859222" lon="21.1587546"><ele>1374.3333333333333</ele><time>2026-04-27T12:38:27.149Z</time></trkpt><trkpt lat="39.7861025" lon="21.1587321"><ele>1373.6666666666667</ele><time>2026-04-27T12:38:28.15Z</time></trkpt><trkpt lat="39.7862821" lon="21.1587156"><ele>1373.0</ele><time>2026-04-27T12:38:29.149Z</time></trkpt><trkpt lat="39.7864601" lon="21.1586854"><ele>1373.0</ele><time>2026-04-27T12:38:30.149Z</time></trkpt><trkpt lat="39.7866281" lon="21.1586595"><ele>1373.0</ele><time>2026-04-27T12:38:31.15Z</time></trkpt><trkpt lat="39.7867981" lon="21.1586461"><ele>1373.0</ele><time>2026-04-27T12:38:32.15Z</time></trkpt><trkpt lat="39.7869611" lon="21.1586492"><ele>1371.3333333333335</ele><time>2026-04-27T12:38:33.15Z</time></trkpt><trkpt lat="39.7871186" lon="21.1586935"><ele>1369.6666666666667</ele><time>2026-04-27T12:38:34.149Z</time></trkpt><trkpt lat="39.7872624" lon="21.1587809"><ele>1368.0</ele><time>2026-04-27T12:38:35.15Z</time></trkpt><trkpt lat="39.7874063" lon="21.1588842"><ele>1368.0</ele><time>2026-04-27T12:38:36.149Z</time></trkpt><trkpt lat="39.7875433" lon="21.1589969"><ele>1368.0</ele><time>2026-04-27T12:38:37.15Z</time></trkpt><trkpt lat="39.7876827" lon="21.1591201"><ele>1368.0</ele><time>2026-04-27T12:38:38.149Z</time></trkpt><trkpt lat="39.7878315" lon="21.1592433"><ele>1368.6666666666667</ele><time>2026-04-27T12:38:39.149Z</time></trkpt><trkpt lat="39.787982" lon="21.1593654"><ele>1369.3333333333335</ele><time>2026-04-27T12:38:40.149Z</time></trkpt><trkpt lat="39.7881331" lon="21.1594823"><ele>1370.0</ele><time>2026-04-27T12:38:41.15Z</time></trkpt><trkpt lat="39.7882889" lon="21.15961"><ele>1370.0</ele><time>2026-04-27T12:38:42.15Z</time></trkpt><trkpt lat="39.7884433" lon="21.1597343"><ele>1370.0</ele><time>2026-04-27T12:38:43.15Z</time></trkpt><trkpt lat="39.7885903" lon="21.159861"><ele>1370.0</ele><time>2026-04-27T12:38:44.149Z</time></trkpt><trkpt lat="39.788734" lon="21.1599884"><ele>1373.6666666666667</ele><time>2026-04-27T12:38:45.15Z</time></trkpt><trkpt lat="39.7888757" lon="21.1601256"><ele>1377.3333333333333</ele><time>2026-04-27T12:38:46.149Z</time></trkpt><trkpt lat="39.7890049" lon="21.1602677"><ele>1381.0</ele><time>2026-04-27T12:38:47.15Z</time></trkpt><trkpt lat="39.7891333" lon="21.1604036"><ele>1381.0</ele><time>2026-04-27T12:38:48.149Z</time></trkpt><trkpt lat="39.789261" lon="21.1605345"><ele>1381.0</ele><time>2026-04-27T12:38:49.15Z</time></trkpt><trkpt lat="39.789377" lon="21.1606734"><ele>1381.0</ele><time>2026-04-27T12:38:50.15Z</time></trkpt><trkpt lat="39.789504" lon="21.1608168"><ele>1381.0</ele><time>2026-04-27T12:38:51.149Z</time></trkpt><trkpt lat="39.7896265" lon="21.1609625"><ele>1381.0</ele><time>2026-04-27T12:38:52.15Z</time></trkpt><trkpt lat="39.7897444" lon="21.1611172"><ele>1381.0</ele><time>2026-04-27T12:38:53.149Z</time></trkpt><trkpt lat="39.7898479" lon="21.161285"><ele>1381.0</ele><time>2026-04-27T12:38:54.15Z</time></trkpt><trkpt lat="39.7899052" lon="21.1614747"><ele>1381.0</ele><time>2026-04-27T12:38:55.149Z</time></trkpt><trkpt lat="39.7899226" lon="21.1616756"><ele>1381.0</ele><time>2026-04-27T12:38:56.149Z</time></trkpt><trkpt lat="39.7899054" lon="21.1618755"><ele>1381.6666666666665</ele><time>2026-04-27T12:38:57.15Z</time></trkpt><trkpt lat="39.7898545" lon="21.1620886"><ele>1382.3333333333333</ele><time>2026-04-27T12:38:58.149Z</time></trkpt><trkpt lat="39.789805" lon="21.1623184"><ele>1383.0</ele><time>2026-04-27T12:38:59.149Z</time></trkpt><trkpt lat="39.7897612" lon="21.1625388"><ele>1385.3333333333333</ele><time>2026-04-27T12:39:00.15Z</time></trkpt><trkpt lat="39.7897219" lon="21.1627502"><ele>1387.6666666666665</ele><time>2026-04-27T12:39:01.149Z</time></trkpt><trkpt lat="39.7896953" lon="21.1629657"><ele>1390.0</ele><time>2026-04-27T12:39:02.149Z</time></trkpt><trkpt lat="39.7896867" lon="21.1631758"><ele>1392.0</ele><time>2026-04-27T12:39:03.149Z</time></trkpt><trkpt lat="39.789708" lon="21.1633761"><ele>1394.0</ele><time>2026-04-27T12:39:04.149Z</time></trkpt><trkpt lat="39.7897603" lon="21.163565"><ele>1396.0</ele><time>2026-04-27T12:39:05.15Z</time></trkpt><trkpt lat="39.7898419" lon="21.1637502"><ele>1396.0</ele><time>2026-04-27T12:39:06.149Z</time></trkpt><trkpt lat="39.7899493" lon="21.1639368"><ele>1396.0</ele><time>2026-04-27T12:39:07.15Z</time></trkpt><trkpt lat="39.7900735" lon="21.1641229"><ele>1396.0</ele><time>2026-04-27T12:39:08.15Z</time></trkpt><trkpt lat="39.7902008" lon="21.1642942"><ele>1400.3333333333333</ele><time>2026-04-27T12:39:09.149Z</time></trkpt><trkpt lat="39.7903294" lon="21.1644555"><ele>1404.6666666666667</ele><time>2026-04-27T12:39:10.15Z</time></trkpt><trkpt lat="39.7904654" lon="21.1646106"><ele>1409.0</ele><time>2026-04-27T12:39:11.15Z</time></trkpt><trkpt lat="39.7905929" lon="21.1647371"><ele>1409.0</ele><time>2026-04-27T12:39:12.15Z</time></trkpt><trkpt lat="39.7907336" lon="21.1648324"><ele>1409.0</ele><time>2026-04-27T12:39:13.15Z</time></trkpt><trkpt lat="39.7908756" lon="21.1649011"><ele>1409.0</ele><time>2026-04-27T12:39:14.15Z</time></trkpt><trkpt lat="39.791019" lon="21.1649377"><ele>1409.25</ele><time>2026-04-27T12:39:15.15Z</time></trkpt><trkpt lat="39.7911598" lon="21.1649465"><ele>1409.5</ele><time>2026-04-27T12:39:16.15Z</time></trkpt><trkpt lat="39.7912967" lon="21.1649577"><ele>1409.75</ele><time>2026-04-27T12:39:17.149Z</time></trkpt><trkpt lat="39.7914293" lon="21.1649856"><ele>1410.0</ele><time>2026-04-27T12:39:18.15Z</time></trkpt><trkpt lat="39.791559" lon="21.165021"><ele>1410.0</ele><time>2026-04-27T12:39:19.15Z</time></trkpt><trkpt lat="39.7917001" lon="21.1650641"><ele>1410.0</ele><time>2026-04-27T12:39:20.15Z</time></trkpt><trkpt lat="39.7918486" lon="21.1651195"><ele>1410.0</ele><time>2026-04-27T12:39:21.15Z</time></trkpt><trkpt lat="39.7920076" lon="21.1651768"><ele>1408.3333333333333</ele><time>2026-04-27T12:39:22.15Z</time></trkpt><trkpt lat="39.7921628" lon="21.1652323"><ele>1406.6666666666665</ele><time>2026-04-27T12:39:23.15Z</time></trkpt><trkpt lat="39.7923204" lon="21.1652878"><ele>1405.0</ele><time>2026-04-27T12:39:24.149Z</time></trkpt><trkpt lat="39.792484" lon="21.1653314"><ele>1405.0</ele><time>2026-04-27T12:39:25.149Z</time></trkpt><trkpt lat="39.7926599" lon="21.1653613"><ele>1405.0</ele><time>2026-04-27T12:39:26.149Z</time></trkpt><trkpt lat="39.7928275" lon="21.165382"><ele>1405.0</ele><time>2026-04-27T12:39:27.15Z</time></trkpt><trkpt lat="39.7930032" lon="21.1654061"><ele>1403.0</ele><time>2026-04-27T12:39:28.15Z</time></trkpt><trkpt lat="39.7931793" lon="21.1654247"><ele>1401.0</ele><time>2026-04-27T12:39:29.149Z</time></trkpt><trkpt lat="39.7933462" lon="21.1654523"><ele>1399.0</ele><time>2026-04-27T12:39:30.15Z</time></trkpt><trkpt lat="39.7935006" lon="21.1654822"><ele>1399.25</ele><time>2026-04-27T12:39:31.149Z</time></trkpt><trkpt lat="39.7936405" lon="21.1655368"><ele>1399.5</ele><time>2026-04-27T12:39:32.149Z</time></trkpt><trkpt lat="39.793771" lon="21.1656147"><ele>1399.75</ele><time>2026-04-27T12:39:33.15Z</time></trkpt><trkpt lat="39.7938846" lon="21.1657255"><ele>1400.0</ele><time>2026-04-27T12:39:34.15Z</time></trkpt><trkpt lat="39.7939926" lon="21.1658726"><ele>1403.6666666666667</ele><time>2026-04-27T12:39:35.149Z</time></trkpt><trkpt lat="39.7940863" lon="21.1660335"><ele>1407.3333333333333</ele><time>2026-04-27T12:39:36.15Z</time></trkpt><trkpt lat="39.7941771" lon="21.1662114"><ele>1411.0</ele><time>2026-04-27T12:39:37.149Z</time></trkpt><trkpt lat="39.7942726" lon="21.1663928"><ele>1416.6666666666665</ele><time>2026-04-27T12:39:38.149Z</time></trkpt><trkpt lat="39.7943761" lon="21.16657"><ele>1422.3333333333333</ele><time>2026-04-27T12:39:39.149Z</time></trkpt><trkpt lat="39.7944816" lon="21.1667525"><ele>1428.0</ele><time>2026-04-27T12:39:40.15Z</time></trkpt><trkpt lat="39.7945828" lon="21.1669375"><ele>1428.0</ele><time>2026-04-27T12:39:41.15Z</time></trkpt><trkpt lat="39.7946833" lon="21.1671167"><ele>1428.0</ele><time>2026-04-27T12:39:42.15Z</time></trkpt><trkpt lat="39.7947831" lon="21.1673007"><ele>1428.0</ele><time>2026-04-27T12:39:43.15Z</time></trkpt><trkpt lat="39.7949028" lon="21.1674753"><ele>1427.0</ele><time>2026-04-27T12:39:44.149Z</time></trkpt><trkpt lat="39.7950337" lon="21.1676379"><ele>1426.0</ele><time>2026-04-27T12:39:45.15Z</time></trkpt><trkpt lat="39.7951759" lon="21.1677875"><ele>1425.0</ele><time>2026-04-27T12:39:46.149Z</time></trkpt><trkpt lat="39.7953313" lon="21.1679282"><ele>1422.6666666666667</ele><time>2026-04-27T12:39:47.15Z</time></trkpt><trkpt lat="39.7954886" lon="21.1680603"><ele>1420.3333333333335</ele><time>2026-04-27T12:39:48.15Z</time></trkpt><trkpt lat="39.7956442" lon="21.1681916"><ele>1418.0</ele><time>2026-04-27T12:39:49.149Z</time></trkpt><trkpt lat="39.7958084" lon="21.168309"><ele>1416.3333333333335</ele><time>2026-04-27T12:39:50.15Z</time></trkpt><trkpt lat="39.7959774" lon="21.1684122"><ele>1414.6666666666667</ele><time>2026-04-27T12:39:51.15Z</time></trkpt><trkpt lat="39.796149" lon="21.1684993"><ele>1413.0</ele><time>2026-04-27T12:39:52.15Z</time></trkpt><trkpt lat="39.7963113" lon="21.1685699"><ele>1418.0</ele><time>2026-04-27T12:39:53.15Z</time></trkpt><trkpt lat="39.7964694" lon="21.1686318"><ele>1423.0</ele><time>2026-04-27T12:39:54.149Z</time></trkpt><trkpt lat="39.7966169" lon="21.1686938"><ele>1428.0</ele><time>2026-04-27T12:39:55.149Z</time></trkpt><trkpt lat="39.7967498" lon="21.1687655"><ele>1431.0</ele><time>2026-04-27T12:39:56.15Z</time></trkpt><trkpt lat="39.7968687" lon="21.1688722"><ele>1434.0</ele><time>2026-04-27T12:39:57.15Z</time></trkpt><trkpt lat="39.796982" lon="21.1690011"><ele>1437.0</ele><time>2026-04-27T12:39:58.149Z</time></trkpt><trkpt lat="39.7970989" lon="21.1691485"><ele>1437.0</ele><time>2026-04-27T12:39:59.149Z</time></trkpt><trkpt lat="39.7972221" lon="21.1693013"><ele>1437.0</ele><time>2026-04-27T12:40:00.15Z</time></trkpt><trkpt lat="39.797358" lon="21.1694544"><ele>1437.0</ele><time>2026-04-27T12:40:01.15Z</time></trkpt><trkpt lat="39.7974853" lon="21.1696047"><ele>1437.0</ele><time>2026-04-27T12:40:02.149Z</time></trkpt><trkpt lat="39.7976103" lon="21.1697486"><ele>1437.0</ele><time>2026-04-27T12:40:03.149Z</time></trkpt><trkpt lat="39.7977249" lon="21.1698865"><ele>1437.0</ele><time>2026-04-27T12:40:04.15Z</time></trkpt><trkpt lat="39.7978337" lon="21.1700241"><ele>1442.5</ele><time>2026-04-27T12:40:05.149Z</time></trkpt><trkpt lat="39.7979293" lon="21.1701749"><ele>1448.0</ele><time>2026-04-27T12:40:06.15Z</time></trkpt><trkpt lat="39.7979988" lon="21.1703441"><ele>1453.5</ele><time>2026-04-27T12:40:07.149Z</time></trkpt><trkpt lat="39.7980675" lon="21.1705039"><ele>1459.0</ele><time>2026-04-27T12:40:08.149Z</time></trkpt><trkpt lat="39.7981251" lon="21.1706517"><ele>1457.25</ele><time>2026-04-27T12:40:09.149Z</time></trkpt><trkpt lat="39.7981559" lon="21.1708101"><ele>1455.5</ele><time>2026-04-27T12:40:10.149Z</time></trkpt><trkpt lat="39.7981594" lon="21.17097"><ele>1453.75</ele><time>2026-04-27T12:40:11.149Z</time></trkpt><trkpt lat="39.7981297" lon="21.1711336"><ele>1452.0</ele><time>2026-04-27T12:40:12.15Z</time></trkpt><trkpt lat="39.7980694" lon="21.1712902"><ele>1452.0</ele><time>2026-04-27T12:40:13.149Z</time></trkpt><trkpt lat="39.7980057" lon="21.1714349"><ele>1452.0</ele><time>2026-04-27T12:40:14.149Z</time></trkpt><trkpt lat="39.7979598" lon="21.171578"><ele>1452.0</ele><time>2026-04-27T12:40:15.15Z</time></trkpt><trkpt lat="39.7979308" lon="21.1717258"><ele>1452.0</ele><time>2026-04-27T12:40:16.15Z</time></trkpt><trkpt lat="39.7979357" lon="21.1718771"><ele>1450.5</ele><time>2026-04-27T12:40:17.149Z</time></trkpt><trkpt lat="39.7979653" lon="21.1720452"><ele>1449.0</ele><time>2026-04-27T12:40:18.15Z</time></trkpt><trkpt lat="39.7980061" lon="21.1722121"><ele>1447.5</ele><time>2026-04-27T12:40:19.15Z</time></trkpt><trkpt lat="39.7980582" lon="21.1723747"><ele>1446.0</ele><time>2026-04-27T12:40:20.149Z</time></trkpt><trkpt lat="39.7981261" lon="21.1725276"><ele>1443.5</ele><time>2026-04-27T12:40:21.15Z</time></trkpt><trkpt lat="39.7982113" lon="21.1726666"><ele>1441.0</ele><time>2026-04-27T12:40:22.149Z</time></trkpt><trkpt lat="39.7983066" lon="21.1728001"><ele>1438.5</ele><time>2026-04-27T12:40:23.149Z</time></trkpt><trkpt lat="39.7983922" lon="21.1729332"><ele>1436.0</ele><time>2026-04-27T12:40:24.149Z</time></trkpt><trkpt lat="39.7984567" lon="21.1730787"><ele>1436.5</ele><time>2026-04-27T12:40:25.15Z</time></trkpt><trkpt lat="39.7985036" lon="21.1732355"><ele>1437.0</ele><time>2026-04-27T12:40:26.15Z</time></trkpt><trkpt lat="39.7985458" lon="21.1733817"><ele>1437.5</ele><time>2026-04-27T12:40:27.149Z</time></trkpt><trkpt lat="39.7986079" lon="21.173508"><ele>1438.0</ele><time>2026-04-27T12:40:28.15Z</time></trkpt><trkpt lat="39.79868" lon="21.1736374"><ele>1438.0</ele><time>2026-04-27T12:40:29.15Z</time></trkpt><trkpt lat="39.7987527" lon="21.1737743"><ele>1438.0</ele><time>2026-04-27T12:40:30.149Z</time></trkpt><trkpt lat="39.7988191" lon="21.1739311"><ele>1438.0</ele><time>2026-04-27T12:40:31.149Z</time></trkpt><trkpt lat="39.7988566" lon="21.1741138"><ele>1438.0</ele><time>2026-04-27T12:40:32.15Z</time></trkpt><trkpt lat="39.7988803" lon="21.174309"><ele>1433.6666666666665</ele><time>2026-04-27T12:40:33.149Z</time></trkpt><trkpt lat="39.7988873" lon="21.1745106"><ele>1429.3333333333333</ele><time>2026-04-27T12:40:34.15Z</time></trkpt><trkpt lat="39.7988823" lon="21.1747047"><ele>1425.0</ele><time>2026-04-27T12:40:35.15Z</time></trkpt><trkpt lat="39.7988704" lon="21.1748986"><ele>1425.0</ele><time>2026-04-27T12:40:36.15Z</time></trkpt><trkpt lat="39.7988683" lon="21.1750887"><ele>1425.0</ele><time>2026-04-27T12:40:37.15Z</time></trkpt><trkpt lat="39.7988837" lon="21.175278"><ele>1425.0</ele><time>2026-04-27T12:40:38.149Z</time></trkpt><trkpt lat="39.7989274" lon="21.1754588"><ele>1425.0</ele><time>2026-04-27T12:40:39.149Z</time></trkpt><trkpt lat="39.7990029" lon="21.1756313"><ele>1424.5</ele><time>2026-04-27T12:40:40.15Z</time></trkpt><trkpt lat="39.7990992" lon="21.1757756"><ele>1424.0</ele><time>2026-04-27T12:40:41.15Z</time></trkpt><trkpt lat="39.7992135" lon="21.1758825"><ele>1423.5</ele><time>2026-04-27T12:40:42.149Z</time></trkpt><trkpt lat="39.79934" lon="21.1759437"><ele>1423.0</ele><time>2026-04-27T12:40:43.15Z</time></trkpt><trkpt lat="39.7994786" lon="21.1759615"><ele>1420.3333333333333</ele><time>2026-04-27T12:40:44.149Z</time></trkpt><trkpt lat="39.7996256" lon="21.1759413"><ele>1417.6666666666667</ele><time>2026-04-27T12:40:45.15Z</time></trkpt><trkpt lat="39.7997753" lon="21.1758624"><ele>1415.0</ele><time>2026-04-27T12:40:46.15Z</time></trkpt><trkpt lat="39.7999206" lon="21.1757503"><ele>1415.0</ele><time>2026-04-27T12:40:47.149Z</time></trkpt><trkpt lat="39.8000652" lon="21.1756186"><ele>1415.0</ele><time>2026-04-27T12:40:48.15Z</time></trkpt><trkpt lat="39.8002094" lon="21.175481"><ele>1415.0</ele><time>2026-04-27T12:40:49.15Z</time></trkpt><trkpt lat="39.8003545" lon="21.1753408"><ele>1415.0</ele><time>2026-04-27T12:40:50.149Z</time></trkpt><trkpt lat="39.800502" lon="21.1752084"><ele>1415.0</ele><time>2026-04-27T12:40:51.149Z</time></trkpt><trkpt lat="39.8006515" lon="21.1750824"><ele>1415.0</ele><time>2026-04-27T12:40:52.149Z</time></trkpt><trkpt lat="39.8008052" lon="21.1749695"><ele>1415.0</ele><time>2026-04-27T12:40:53.15Z</time></trkpt><trkpt lat="39.8009654" lon="21.174867"><ele>1415.0</ele><time>2026-04-27T12:40:54.15Z</time></trkpt><trkpt lat="39.8011337" lon="21.1747874"><ele>1415.0</ele><time>2026-04-27T12:40:55.149Z</time></trkpt><trkpt lat="39.8013094" lon="21.1747222"><ele>1416.3333333333335</ele><time>2026-04-27T12:40:56.15Z</time></trkpt><trkpt lat="39.8014937" lon="21.1746721"><ele>1417.6666666666667</ele><time>2026-04-27T12:40:57.149Z</time></trkpt><trkpt lat="39.8016786" lon="21.1746293"><ele>1419.0</ele><time>2026-04-27T12:40:58.149Z</time></trkpt><trkpt lat="39.801861" lon="21.1745909"><ele>1415.0</ele><time>2026-04-27T12:40:59.15Z</time></trkpt><trkpt lat="39.8020435" lon="21.1745564"><ele>1411.0</ele><time>2026-04-27T12:41:00.15Z</time></trkpt><trkpt lat="39.8022268" lon="21.1745195"><ele>1407.0</ele><time>2026-04-27T12:41:01.149Z</time></trkpt><trkpt lat="39.8024089" lon="21.1744709"><ele>1407.0</ele><time>2026-04-27T12:41:02.15Z</time></trkpt><trkpt lat="39.8025847" lon="21.1744075"><ele>1407.0</ele><time>2026-04-27T12:41:03.149Z</time></trkpt><trkpt lat="39.8027596" lon="21.1743219"><ele>1407.0</ele><time>2026-04-27T12:41:04.15Z</time></trkpt><trkpt lat="39.802924" lon="21.1742082"><ele>1406.0</ele><time>2026-04-27T12:41:05.15Z</time></trkpt><trkpt lat="39.8030826" lon="21.1740783"><ele>1405.0</ele><time>2026-04-27T12:41:06.15Z</time></trkpt><trkpt lat="39.8032391" lon="21.1739424"><ele>1404.0</ele><time>2026-04-27T12:41:07.149Z</time></trkpt><trkpt lat="39.8033922" lon="21.173794"><ele>1402.6666666666667</ele><time>2026-04-27T12:41:08.149Z</time></trkpt><trkpt lat="39.8035423" lon="21.1736441"><ele>1401.3333333333335</ele><time>2026-04-27T12:41:09.149Z</time></trkpt><trkpt lat="39.8036926" lon="21.1734982"><ele>1400.0</ele><time>2026-04-27T12:41:10.149Z</time></trkpt><trkpt lat="39.8038409" lon="21.1733511"><ele>1400.0</ele><time>2026-04-27T12:41:11.15Z</time></trkpt><trkpt lat="39.8039844" lon="21.1732058"><ele>1400.0</ele><time>2026-04-27T12:41:12.15Z</time></trkpt><trkpt lat="39.8041254" lon="21.173064"><ele>1400.0</ele><time>2026-04-27T12:41:13.15Z</time></trkpt><trkpt lat="39.8042565" lon="21.1729065"><ele>1400.0</ele><time>2026-04-27T12:41:14.149Z</time></trkpt><trkpt lat="39.8043748" lon="21.1727265"><ele>1400.0</ele><time>2026-04-27T12:41:15.15Z</time></trkpt><trkpt lat="39.8044769" lon="21.1725295"><ele>1400.0</ele><time>2026-04-27T12:41:16.149Z</time></trkpt><trkpt lat="39.8045709" lon="21.1723239"><ele>1397.3333333333335</ele><time>2026-04-27T12:41:17.15Z</time></trkpt><trkpt lat="39.8046621" lon="21.1720975"><ele>1394.6666666666667</ele><time>2026-04-27T12:41:18.15Z</time></trkpt><trkpt lat="39.8047489" lon="21.1718713"><ele>1392.0</ele><time>2026-04-27T12:41:19.149Z</time></trkpt><trkpt lat="39.8048361" lon="21.1716452"><ele>1390.6666666666667</ele><time>2026-04-27T12:41:20.15Z</time></trkpt><trkpt lat="39.8049174" lon="21.1714228"><ele>1389.3333333333335</ele><time>2026-04-27T12:41:21.15Z</time></trkpt><trkpt lat="39.8049962" lon="21.1712079"><ele>1388.0</ele><time>2026-04-27T12:41:22.15Z</time></trkpt><trkpt lat="39.8050753" lon="21.1710001"><ele>1388.0</ele><time>2026-04-27T12:41:23.149Z</time></trkpt><trkpt lat="39.8051593" lon="21.1707904"><ele>1388.0</ele><time>2026-04-27T12:41:24.149Z</time></trkpt><trkpt lat="39.8052532" lon="21.1705916"><ele>1388.0</ele><time>2026-04-27T12:41:25.149Z</time></trkpt><trkpt lat="39.8053665" lon="21.170419"><ele>1385.6666666666667</ele><time>2026-04-27T12:41:26.149Z</time></trkpt><trkpt lat="39.8054976" lon="21.170268"><ele>1383.3333333333333</ele><time>2026-04-27T12:41:27.149Z</time></trkpt><trkpt lat="39.8056486" lon="21.1701474"><ele>1381.0</ele><time>2026-04-27T12:41:28.15Z</time></trkpt><trkpt lat="39.8058163" lon="21.1700561"><ele>1381.0</ele><time>2026-04-27T12:41:29.149Z</time></trkpt><trkpt lat="39.8059947" lon="21.1699967"><ele>1381.0</ele><time>2026-04-27T12:41:30.15Z</time></trkpt><trkpt lat="39.8061748" lon="21.1699573"><ele>1381.0</ele><time>2026-04-27T12:41:31.15Z</time></trkpt><trkpt lat="39.8063538" lon="21.1699808"><ele>1380.6666666666665</ele><time>2026-04-27T12:41:32.149Z</time></trkpt><trkpt lat="39.8065339" lon="21.17004"><ele>1380.3333333333333</ele><time>2026-04-27T12:41:33.15Z</time></trkpt><trkpt lat="39.8067172" lon="21.1701166"><ele>1380.0</ele><time>2026-04-27T12:41:34.15Z</time></trkpt><trkpt lat="39.8069013" lon="21.1702077"><ele>1380.6666666666667</ele><time>2026-04-27T12:41:35.15Z</time></trkpt><trkpt lat="39.8070786" lon="21.1702937"><ele>1381.3333333333335</ele><time>2026-04-27T12:41:36.149Z</time></trkpt><trkpt lat="39.8072546" lon="21.1703767"><ele>1382.0</ele><time>2026-04-27T12:41:37.149Z</time></trkpt><trkpt lat="39.8074364" lon="21.1704391"><ele>1382.0</ele><time>2026-04-27T12:41:38.15Z</time></trkpt><trkpt lat="39.8076207" lon="21.1704711"><ele>1382.0</ele><time>2026-04-27T12:41:39.15Z</time></trkpt><trkpt lat="39.8078042" lon="21.1704609"><ele>1382.0</ele><time>2026-04-27T12:41:40.149Z</time></trkpt><trkpt lat="39.8079808" lon="21.1704235"><ele>1381.0</ele><time>2026-04-27T12:41:41.15Z</time></trkpt><trkpt lat="39.8081487" lon="21.1703367"><ele>1380.0</ele><time>2026-04-27T12:41:42.149Z</time></trkpt><trkpt lat="39.808309" lon="21.1702217"><ele>1379.0</ele><time>2026-04-27T12:41:43.15Z</time></trkpt><trkpt lat="39.8084638" lon="21.1700842"><ele>1380.3333333333335</ele><time>2026-04-27T12:41:44.15Z</time></trkpt><trkpt lat="39.8086105" lon="21.1699399"><ele>1381.6666666666667</ele><time>2026-04-27T12:41:45.149Z</time></trkpt><trkpt lat="39.8087668" lon="21.169792"><ele>1383.0</ele><time>2026-04-27T12:41:46.149Z</time></trkpt><trkpt lat="39.8089282" lon="21.1696421"><ele>1381.6666666666667</ele><time>2026-04-27T12:41:47.149Z</time></trkpt><trkpt lat="39.8090955" lon="21.1694988"><ele>1380.3333333333335</ele><time>2026-04-27T12:41:48.15Z</time></trkpt><trkpt lat="39.8092649" lon="21.1693596"><ele>1379.0</ele><time>2026-04-27T12:41:49.15Z</time></trkpt><trkpt lat="39.8094343" lon="21.1692279"><ele>1379.0</ele><time>2026-04-27T12:41:50.149Z</time></trkpt><trkpt lat="39.8096005" lon="21.1690988"><ele>1379.0</ele><time>2026-04-27T12:41:51.15Z</time></trkpt><trkpt lat="39.809768" lon="21.1689714"><ele>1379.0</ele><time>2026-04-27T12:41:52.15Z</time></trkpt><trkpt lat="39.8099308" lon="21.1688495"><ele>1377.3333333333335</ele><time>2026-04-27T12:41:53.15Z</time></trkpt><trkpt lat="39.8100942" lon="21.1687271"><ele>1375.6666666666667</ele><time>2026-04-27T12:41:54.15Z</time></trkpt><trkpt lat="39.8102489" lon="21.1686005"><ele>1374.0</ele><time>2026-04-27T12:41:55.15Z</time></trkpt><trkpt lat="39.8104029" lon="21.1684735"><ele>1374.0</ele><time>2026-04-27T12:41:56.149Z</time></trkpt><trkpt lat="39.8105434" lon="21.1683308"><ele>1374.0</ele><time>2026-04-27T12:41:57.15Z</time></trkpt><trkpt lat="39.810676" lon="21.1681725"><ele>1374.0</ele><time>2026-04-27T12:41:58.149Z</time></trkpt><trkpt lat="39.8107987" lon="21.1679971"><ele>1373.0</ele><time>2026-04-27T12:41:59.149Z</time></trkpt><trkpt lat="39.8109091" lon="21.1677975"><ele>1372.0</ele><time>2026-04-27T12:42:00.15Z</time></trkpt><trkpt lat="39.8110157" lon="21.1675694"><ele>1371.0</ele><time>2026-04-27T12:42:01.15Z</time></trkpt><trkpt lat="39.8111149" lon="21.1673319"><ele>1370.0</ele><time>2026-04-27T12:42:02.15Z</time></trkpt><trkpt lat="39.8112234" lon="21.167068"><ele>1369.0</ele><time>2026-04-27T12:42:03.149Z</time></trkpt><trkpt lat="39.8113362" lon="21.1668136"><ele>1369.0</ele><time>2026-04-27T12:42:04.15Z</time></trkpt><trkpt lat="39.8114541" lon="21.1665773"><ele>1369.0</ele><time>2026-04-27T12:42:05.149Z</time></trkpt><trkpt lat="39.8115889" lon="21.1663576"><ele>1369.0</ele><time>2026-04-27T12:42:06.15Z</time></trkpt><trkpt lat="39.8117438" lon="21.1661629"><ele>1367.0</ele><time>2026-04-27T12:42:07.149Z</time></trkpt><trkpt lat="39.8119179" lon="21.1660107"><ele>1365.0</ele><time>2026-04-27T12:42:08.149Z</time></trkpt><trkpt lat="39.8121079" lon="21.1658906"><ele>1363.0</ele><time>2026-04-27T12:42:09.15Z</time></trkpt><trkpt lat="39.812327" lon="21.1658561"><ele>1363.0</ele><time>2026-04-27T12:42:10.15Z</time></trkpt><trkpt lat="39.8125422" lon="21.1658513"><ele>1363.0</ele><time>2026-04-27T12:42:11.15Z</time></trkpt><trkpt lat="39.8127635" lon="21.1658726"><ele>1363.0</ele><time>2026-04-27T12:42:12.149Z</time></trkpt><trkpt lat="39.813017" lon="21.1659635"><ele>1365.5</ele><time>2026-04-27T12:42:13.149Z</time></trkpt><trkpt lat="39.8132588" lon="21.1660594"><ele>1368.0</ele><time>2026-04-27T12:42:14.15Z</time></trkpt><trkpt lat="39.8135041" lon="21.1661617"><ele>1369.5</ele><time>2026-04-27T12:42:15.15Z</time></trkpt><trkpt lat="39.8137471" lon="21.1662628"><ele>1371.0</ele><time>2026-04-27T12:42:16.149Z</time></trkpt><trkpt lat="39.8139839" lon="21.1663613"><ele>1371.0</ele><time>2026-04-27T12:42:17.15Z</time></trkpt><trkpt lat="39.8142087" lon="21.1664531"><ele>1371.0</ele><time>2026-04-27T12:42:18.15Z</time></trkpt><trkpt lat="39.8144236" lon="21.1665393"><ele>1371.6666666666667</ele><time>2026-04-27T12:42:19.149Z</time></trkpt><trkpt lat="39.8146285" lon="21.1666174"><ele>1372.3333333333335</ele><time>2026-04-27T12:42:20.15Z</time></trkpt><trkpt lat="39.8148362" lon="21.1666991"><ele>1373.0</ele><time>2026-04-27T12:42:21.15Z</time></trkpt><trkpt lat="39.8150416" lon="21.1667801"><ele>1374.3333333333335</ele><time>2026-04-27T12:42:22.15Z</time></trkpt><trkpt lat="39.8152441" lon="21.1668706"><ele>1375.6666666666667</ele><time>2026-04-27T12:42:23.15Z</time></trkpt><trkpt lat="39.8154586" lon="21.1669684"><ele>1377.0</ele><time>2026-04-27T12:42:24.149Z</time></trkpt><trkpt lat="39.8156369" lon="21.1670835"><ele>1377.0</ele><time>2026-04-27T12:42:25.15Z</time></trkpt><trkpt lat="39.8158019" lon="21.1672218"><ele>1377.0</ele><time>2026-04-27T12:42:26.149Z</time></trkpt><trkpt lat="39.8159529" lon="21.1673926"><ele>1377.0</ele><time>2026-04-27T12:42:27.15Z</time></trkpt><trkpt lat="39.8160857" lon="21.1675945"><ele>1377.3333333333333</ele><time>2026-04-27T12:42:28.149Z</time></trkpt><trkpt lat="39.8161882" lon="21.1678214"><ele>1377.6666666666665</ele><time>2026-04-27T12:42:29.149Z</time></trkpt><trkpt lat="39.8162677" lon="21.1680766"><ele>1378.0</ele><time>2026-04-27T12:42:30.15Z</time></trkpt><trkpt lat="39.8163184" lon="21.168365"><ele>1378.0</ele><time>2026-04-27T12:42:31.15Z</time></trkpt><trkpt lat="39.8163345" lon="21.168706"><ele>1378.0</ele><time>2026-04-27T12:42:32.149Z</time></trkpt><trkpt lat="39.8163322" lon="21.1690543"><ele>1378.5</ele><time>2026-04-27T12:42:33.15Z</time></trkpt><trkpt lat="39.8163248" lon="21.1694274"><ele>1379.0</ele><time>2026-04-27T12:42:34.149Z</time></trkpt><trkpt lat="39.8163158" lon="21.1698236"><ele>1379.5</ele><time>2026-04-27T12:42:35.149Z</time></trkpt><trkpt lat="39.8163064" lon="21.1702238"><ele>1380.0</ele><time>2026-04-27T12:42:36.149Z</time></trkpt><trkpt lat="39.816298" lon="21.1706023"><ele>1381.0</ele><time>2026-04-27T12:42:37.15Z</time></trkpt><trkpt lat="39.8162848" lon="21.170961"><ele>1382.0</ele><time>2026-04-27T12:42:38.15Z</time></trkpt><trkpt lat="39.8162682" lon="21.1712925"><ele>1376.5</ele><time>2026-04-27T12:42:39.15Z</time></trkpt><trkpt lat="39.8162592" lon="21.1716123"><ele>1371.0</ele><time>2026-04-27T12:42:40.15Z</time></trkpt><trkpt lat="39.8162493" lon="21.1719253"><ele>1371.0</ele><time>2026-04-27T12:42:41.149Z</time></trkpt><trkpt lat="39.8162472" lon="21.1722307"><ele>1371.0</ele><time>2026-04-27T12:42:42.149Z</time></trkpt><trkpt lat="39.8162689" lon="21.1725441"><ele>1373.5</ele><time>2026-04-27T12:42:43.149Z</time></trkpt><trkpt lat="39.8163155" lon="21.1728461"><ele>1376.0</ele><time>2026-04-27T12:42:44.15Z</time></trkpt><trkpt lat="39.8163788" lon="21.1731396"><ele>1378.0</ele><time>2026-04-27T12:42:45.15Z</time></trkpt><trkpt lat="39.8164573" lon="21.1734256"><ele>1380.0</ele><time>2026-04-27T12:42:46.149Z</time></trkpt><trkpt lat="39.8165495" lon="21.1737056"><ele>1380.0</ele><time>2026-04-27T12:42:47.149Z</time></trkpt><trkpt lat="39.816639" lon="21.1739798"><ele>1380.0</ele><time>2026-04-27T12:42:48.149Z</time></trkpt><trkpt lat="39.8167262" lon="21.1742605"><ele>1379.6666666666667</ele><time>2026-04-27T12:42:49.149Z</time></trkpt><trkpt lat="39.8168065" lon="21.1745374"><ele>1379.3333333333335</ele><time>2026-04-27T12:42:50.149Z</time></trkpt><trkpt lat="39.8168842" lon="21.1747994"><ele>1379.0</ele><time>2026-04-27T12:42:51.149Z</time></trkpt><trkpt lat="39.8169662" lon="21.1750552"><ele>1379.3333333333335</ele><time>2026-04-27T12:42:52.149Z</time></trkpt><trkpt lat="39.8170535" lon="21.1753035"><ele>1379.6666666666667</ele><time>2026-04-27T12:42:53.149Z</time></trkpt><trkpt lat="39.8171544" lon="21.1755388"><ele>1380.0</ele><time>2026-04-27T12:42:54.15Z</time></trkpt><trkpt lat="39.817275" lon="21.1757486"><ele>1380.0</ele><time>2026-04-27T12:42:55.15Z</time></trkpt><trkpt lat="39.8174206" lon="21.175932"><ele>1380.0</ele><time>2026-04-27T12:42:56.15Z</time></trkpt><trkpt lat="39.8175874" lon="21.1760868"><ele>1380.0</ele><time>2026-04-27T12:42:57.15Z</time></trkpt><trkpt lat="39.8177755" lon="21.1762126"><ele>1378.6666666666667</ele><time>2026-04-27T12:42:58.149Z</time></trkpt><trkpt lat="39.8179828" lon="21.1763019"><ele>1377.3333333333335</ele><time>2026-04-27T12:42:59.149Z</time></trkpt><trkpt lat="39.8181931" lon="21.1763436"><ele>1376.0</ele><time>2026-04-27T12:43:00.15Z</time></trkpt><trkpt lat="39.8184265" lon="21.1763522"><ele>1373.5</ele><time>2026-04-27T12:43:01.149Z</time></trkpt><trkpt lat="39.8186759" lon="21.1763342"><ele>1371.0</ele><time>2026-04-27T12:43:02.149Z</time></trkpt><trkpt lat="39.8189253" lon="21.1763061"><ele>1371.0</ele><time>2026-04-27T12:43:03.149Z</time></trkpt><trkpt lat="39.8191653" lon="21.1762817"><ele>1371.0</ele><time>2026-04-27T12:43:04.15Z</time></trkpt><trkpt lat="39.8193938" lon="21.1762701"><ele>1371.3333333333333</ele><time>2026-04-27T12:43:05.149Z</time></trkpt><trkpt lat="39.8196126" lon="21.176266"><ele>1371.6666666666665</ele><time>2026-04-27T12:43:06.149Z</time></trkpt><trkpt lat="39.8198213" lon="21.1762968"><ele>1372.0</ele><time>2026-04-27T12:43:07.149Z</time></trkpt><trkpt lat="39.8200283" lon="21.1763661"><ele>1372.5</ele><time>2026-04-27T12:43:08.149Z</time></trkpt><trkpt lat="39.8202403" lon="21.1764701"><ele>1373.0</ele><time>2026-04-27T12:43:09.15Z</time></trkpt><trkpt lat="39.8204585" lon="21.1766495"><ele>1373.0</ele><time>2026-04-27T12:43:10.15Z</time></trkpt><trkpt lat="39.8206695" lon="21.1768908"><ele>1373.0</ele><time>2026-04-27T12:43:11.15Z</time></trkpt><trkpt lat="39.8208927" lon="21.1771407"><ele>1376.5</ele><time>2026-04-27T12:43:12.149Z</time></trkpt><trkpt lat="39.8211198" lon="21.177405"><ele>1380.0</ele><time>2026-04-27T12:43:13.15Z</time></trkpt><trkpt lat="39.8213234" lon="21.1776487"><ele>1380.0</ele><time>2026-04-27T12:43:14.15Z</time></trkpt><trkpt lat="39.8215121" lon="21.1778871"><ele>1380.0</ele><time>2026-04-27T12:43:15.149Z</time></trkpt><trkpt lat="39.8216837" lon="21.1781271"><ele>1382.0</ele><time>2026-04-27T12:43:16.15Z</time></trkpt><trkpt lat="39.8218227" lon="21.1783619"><ele>1384.0</ele><time>2026-04-27T12:43:17.15Z</time></trkpt><trkpt lat="39.8219385" lon="21.1786174"><ele>1384.0</ele><time>2026-04-27T12:43:18.149Z</time></trkpt><trkpt lat="39.8220039" lon="21.1788881"><ele>1384.0</ele><time>2026-04-27T12:43:19.149Z</time></trkpt><trkpt lat="39.8220539" lon="21.1792031"><ele>1382.0</ele><time>2026-04-27T12:43:20.149Z</time></trkpt><trkpt lat="39.8220842" lon="21.1795509"><ele>1380.0</ele><time>2026-04-27T12:43:21.15Z</time></trkpt><trkpt lat="39.8221119" lon="21.1799033"><ele>1380.0</ele><time>2026-04-27T12:43:22.15Z</time></trkpt><trkpt lat="39.8221412" lon="21.1802619"><ele>1380.0</ele><time>2026-04-27T12:43:23.15Z</time></trkpt><trkpt lat="39.8221695" lon="21.1806158"><ele>1382.0</ele><time>2026-04-27T12:43:24.15Z</time></trkpt><trkpt lat="39.8221921" lon="21.1809671"><ele>1384.0</ele><time>2026-04-27T12:43:25.149Z</time></trkpt><trkpt lat="39.8222203" lon="21.181311"><ele>1382.5</ele><time>2026-04-27T12:43:26.149Z</time></trkpt><trkpt lat="39.8222453" lon="21.1816394"><ele>1381.0</ele><time>2026-04-27T12:43:27.15Z</time></trkpt><trkpt lat="39.8222695" lon="21.1819607"><ele>1381.0</ele><time>2026-04-27T12:43:28.149Z</time></trkpt><trkpt lat="39.8222931" lon="21.182264"><ele>1381.0</ele><time>2026-04-27T12:43:29.15Z</time></trkpt><trkpt lat="39.822315" lon="21.1825447"><ele>1381.0</ele><time>2026-04-27T12:43:30.15Z</time></trkpt><trkpt lat="39.8223493" lon="21.1828161"><ele>1381.0</ele><time>2026-04-27T12:43:31.149Z</time></trkpt><trkpt lat="39.8224015" lon="21.1830792"><ele>1381.0</ele><time>2026-04-27T12:43:32.15Z</time></trkpt><trkpt lat="39.8224797" lon="21.1833206"><ele>1382.0</ele><time>2026-04-27T12:43:33.149Z</time></trkpt><trkpt lat="39.8225825" lon="21.1835516"><ele>1383.0</ele><time>2026-04-27T12:43:34.149Z</time></trkpt><trkpt lat="39.8227132" lon="21.1837533"><ele>1384.0</ele><time>2026-04-27T12:43:35.149Z</time></trkpt><trkpt lat="39.8228667" lon="21.1839352"><ele>1385.3333333333333</ele><time>2026-04-27T12:43:36.15Z</time></trkpt><trkpt lat="39.8230436" lon="21.1840978"><ele>1386.6666666666667</ele><time>2026-04-27T12:43:37.15Z</time></trkpt><trkpt lat="39.8232356" lon="21.1842177"><ele>1388.0</ele><time>2026-04-27T12:43:38.15Z</time></trkpt><trkpt lat="39.8234553" lon="21.1842939"><ele>1388.5</ele><time>2026-04-27T12:43:39.149Z</time></trkpt><trkpt lat="39.8236804" lon="21.1843315"><ele>1389.0</ele><time>2026-04-27T12:43:40.149Z</time></trkpt><trkpt lat="39.8239505" lon="21.1843045"><ele>1389.0</ele><time>2026-04-27T12:43:41.149Z</time></trkpt><trkpt lat="39.8242177" lon="21.1842711"><ele>1389.0</ele><time>2026-04-27T12:43:42.149Z</time></trkpt><trkpt lat="39.8244923" lon="21.1842317"><ele>1391.0</ele><time>2026-04-27T12:43:43.149Z</time></trkpt><trkpt lat="39.8247631" lon="21.1841962"><ele>1393.0</ele><time>2026-04-27T12:43:44.149Z</time></trkpt><trkpt lat="39.8250376" lon="21.1841627"><ele>1396.5</ele><time>2026-04-27T12:43:45.149Z</time></trkpt><trkpt lat="39.8252936" lon="21.184135"><ele>1400.0</ele><time>2026-04-27T12:43:46.149Z</time></trkpt><trkpt lat="39.8255327" lon="21.184118"><ele>1400.0</ele><time>2026-04-27T12:43:47.15Z</time></trkpt><trkpt lat="39.825763" lon="21.1841132"><ele>1400.0</ele><time>2026-04-27T12:43:48.15Z</time></trkpt><trkpt lat="39.8259933" lon="21.1841552"><ele>1408.0</ele><time>2026-04-27T12:43:49.149Z</time></trkpt><trkpt lat="39.826233" lon="21.1842259"><ele>1416.0</ele><time>2026-04-27T12:43:50.149Z</time></trkpt><trkpt lat="39.8264759" lon="21.1843106"><ele>1416.0</ele><time>2026-04-27T12:43:51.15Z</time></trkpt><trkpt lat="39.8267231" lon="21.1844165"><ele>1416.0</ele><time>2026-04-27T12:43:52.15Z</time></trkpt><trkpt lat="39.8269829" lon="21.1845301"><ele>1414.5</ele><time>2026-04-27T12:43:53.15Z</time></trkpt><trkpt lat="39.8272493" lon="21.1846425"><ele>1413.0</ele><time>2026-04-27T12:43:54.149Z</time></trkpt><trkpt lat="39.8275241" lon="21.1847605"><ele>1415.0</ele><time>2026-04-27T12:43:55.149Z</time></trkpt><trkpt lat="39.8278033" lon="21.1848831"><ele>1417.0</ele><time>2026-04-27T12:43:56.149Z</time></trkpt><trkpt lat="39.8280883" lon="21.1850098"><ele>1417.0</ele><time>2026-04-27T12:43:57.15Z</time></trkpt><trkpt lat="39.8283655" lon="21.1851368"><ele>1417.0</ele><time>2026-04-27T12:43:58.149Z</time></trkpt><trkpt lat="39.8286376" lon="21.1852599"><ele>1419.0</ele><time>2026-04-27T12:43:59.15Z</time></trkpt><trkpt lat="39.828903" lon="21.1853809"><ele>1421.0</ele><time>2026-04-27T12:44:00.149Z</time></trkpt><trkpt lat="39.8291598" lon="21.1854924"><ele>1423.5</ele><time>2026-04-27T12:44:01.149Z</time></trkpt><trkpt lat="39.8294191" lon="21.1855882"><ele>1426.0</ele><time>2026-04-27T12:44:02.15Z</time></trkpt><trkpt lat="39.8296827" lon="21.1856621"><ele>1428.0</ele><time>2026-04-27T12:44:03.15Z</time></trkpt><trkpt lat="39.8299664" lon="21.1856989"><ele>1430.0</ele><time>2026-04-27T12:44:04.149Z</time></trkpt><trkpt lat="39.8302581" lon="21.1857004"><ele>1431.0</ele><time>2026-04-27T12:44:05.15Z</time></trkpt><trkpt lat="39.8305605" lon="21.1856823"><ele>1432.0</ele><time>2026-04-27T12:44:06.15Z</time></trkpt><trkpt lat="39.8308737" lon="21.1856598"><ele>1437.5</ele><time>2026-04-27T12:44:07.149Z</time></trkpt><trkpt lat="39.8311873" lon="21.1856301"><ele>1443.0</ele><time>2026-04-27T12:44:08.15Z</time></trkpt><trkpt lat="39.8315004" lon="21.1856151"><ele>1443.5</ele><time>2026-04-27T12:44:09.149Z</time></trkpt><trkpt lat="39.831809" lon="21.1855952"><ele>1444.0</ele><time>2026-04-27T12:44:10.149Z</time></trkpt><trkpt lat="39.8321064" lon="21.1855792"><ele>1444.0</ele><time>2026-04-27T12:44:11.149Z</time></trkpt><trkpt lat="39.8323891" lon="21.1855512"><ele>1444.0</ele><time>2026-04-27T12:44:12.149Z</time></trkpt><trkpt lat="39.8326463" lon="21.1855354"><ele>1447.5</ele><time>2026-04-27T12:44:13.149Z</time></trkpt><trkpt lat="39.8328855" lon="21.1855209"><ele>1451.0</ele><time>2026-04-27T12:44:14.149Z</time></trkpt><trkpt lat="39.833107" lon="21.1855063"><ele>1451.0</ele><time>2026-04-27T12:44:15.149Z</time></trkpt><trkpt lat="39.8333102" lon="21.1855034"><ele>1451.0</ele><time>2026-04-27T12:44:16.149Z</time></trkpt><trkpt lat="39.8335035" lon="21.1855396"><ele>1451.0</ele><time>2026-04-27T12:44:17.15Z</time></trkpt><trkpt lat="39.8336962" lon="21.1856232"><ele>1454.6666666666667</ele><time>2026-04-27T12:44:18.149Z</time></trkpt><trkpt lat="39.8338946" lon="21.1857483"><ele>1458.3333333333333</ele><time>2026-04-27T12:44:19.15Z</time></trkpt><trkpt lat="39.834072" lon="21.1859184"><ele>1462.0</ele><time>2026-04-27T12:44:20.15Z</time></trkpt><trkpt lat="39.8342332" lon="21.1860805"><ele>1464.3333333333333</ele><time>2026-04-27T12:44:21.149Z</time></trkpt><trkpt lat="39.8343686" lon="21.1862371"><ele>1466.6666666666667</ele><time>2026-04-27T12:44:22.149Z</time></trkpt><trkpt lat="39.8344739" lon="21.1864051"><ele>1469.0</ele><time>2026-04-27T12:44:23.15Z</time></trkpt><trkpt lat="39.834526" lon="21.1865898"><ele>1469.0</ele><time>2026-04-27T12:44:24.149Z</time></trkpt><trkpt lat="39.8345369" lon="21.186766"><ele>1469.0</ele><time>2026-04-27T12:44:25.149Z</time></trkpt><trkpt lat="39.8344881" lon="21.1869545"><ele>1469.0</ele><time>2026-04-27T12:44:26.15Z</time></trkpt><trkpt lat="39.8344039" lon="21.187115"><ele>1469.0</ele><time>2026-04-27T12:44:27.15Z</time></trkpt><trkpt lat="39.8342706" lon="21.1872555"><ele>1468.6666666666667</ele><time>2026-04-27T12:44:28.149Z</time></trkpt><trkpt lat="39.8341132" lon="21.1873852"><ele>1468.3333333333333</ele><time>2026-04-27T12:44:29.149Z</time></trkpt><trkpt lat="39.8339237" lon="21.1874899"><ele>1468.0</ele><time>2026-04-27T12:44:30.15Z</time></trkpt><trkpt lat="39.8337428" lon="21.1875906"><ele>1468.0</ele><time>2026-04-27T12:44:31.15Z</time></trkpt><trkpt lat="39.8335696" lon="21.1876673"><ele>1468.0</ele><time>2026-04-27T12:44:32.149Z</time></trkpt><trkpt lat="39.8334241" lon="21.187743"><ele>1468.0</ele><time>2026-04-27T12:44:33.149Z</time></trkpt><trkpt lat="39.8333096" lon="21.1878233"><ele>1468.8000000000002</ele><time>2026-04-27T12:44:34.149Z</time></trkpt><trkpt lat="39.8332218" lon="21.187917"><ele>1469.6</ele><time>2026-04-27T12:44:35.149Z</time></trkpt><trkpt lat="39.8331584" lon="21.1880336"><ele>1470.4</ele><time>2026-04-27T12:44:36.149Z</time></trkpt><trkpt lat="39.8331203" lon="21.1881438"><ele>1471.1999999999998</ele><time>2026-04-27T12:44:37.149Z</time></trkpt><trkpt lat="39.8331167" lon="21.1882832"><ele>1472.0</ele><time>2026-04-27T12:44:38.15Z</time></trkpt><trkpt lat="39.8331359" lon="21.1884173"><ele>1472.0</ele><time>2026-04-27T12:44:39.149Z</time></trkpt><trkpt lat="39.8331729" lon="21.1885587"><ele>1472.0</ele><time>2026-04-27T12:44:40.15Z</time></trkpt><trkpt lat="39.8332314" lon="21.1886836"><ele>1472.0</ele><time>2026-04-27T12:44:41.149Z</time></trkpt><trkpt lat="39.8333032" lon="21.1888011"><ele>1472.0</ele><time>2026-04-27T12:44:42.149Z</time></trkpt><trkpt lat="39.8333712" lon="21.1889148"><ele>1470.6</ele><time>2026-04-27T12:44:43.149Z</time></trkpt><trkpt lat="39.8334172" lon="21.189026"><ele>1469.1999999999998</ele><time>2026-04-27T12:44:44.15Z</time></trkpt><trkpt lat="39.833466" lon="21.189138"><ele>1467.8</ele><time>2026-04-27T12:44:45.149Z</time></trkpt><trkpt lat="39.8335001" lon="21.1892497"><ele>1466.4</ele><time>2026-04-27T12:44:46.15Z</time></trkpt><trkpt lat="39.8335201" lon="21.1893735"><ele>1465.0</ele><time>2026-04-27T12:44:47.15Z</time></trkpt><trkpt lat="39.8335392" lon="21.1895226"><ele>1465.0</ele><time>2026-04-27T12:44:48.15Z</time></trkpt><trkpt lat="39.8335165" lon="21.1896868"><ele>1465.0</ele><time>2026-04-27T12:44:49.15Z</time></trkpt><trkpt lat="39.8334708" lon="21.1898386"><ele>1465.0</ele><time>2026-04-27T12:44:50.15Z</time></trkpt><trkpt lat="39.8334193" lon="21.1900177"><ele>1465.0</ele><time>2026-04-27T12:44:51.15Z</time></trkpt><trkpt lat="39.8333858" lon="21.1901896"><ele>1467.5</ele><time>2026-04-27T12:44:52.15Z</time></trkpt><trkpt lat="39.8333734" lon="21.1903478"><ele>1470.0</ele><time>2026-04-27T12:44:53.149Z</time></trkpt><trkpt lat="39.833385" lon="21.1905063"><ele>1472.5</ele><time>2026-04-27T12:44:54.149Z</time></trkpt><trkpt lat="39.8334174" lon="21.1906591"><ele>1475.0</ele><time>2026-04-27T12:44:55.15Z</time></trkpt><trkpt lat="39.8334814" lon="21.1908032"><ele>1477.0</ele><time>2026-04-27T12:44:56.15Z</time></trkpt><trkpt lat="39.8335624" lon="21.1909292"><ele>1479.0</ele><time>2026-04-27T12:44:57.149Z</time></trkpt><trkpt lat="39.8336491" lon="21.1910119"><ele>1481.0</ele><time>2026-04-27T12:44:58.15Z</time></trkpt><trkpt lat="39.8337651" lon="21.1910536"><ele>1483.0</ele><time>2026-04-27T12:44:59.149Z</time></trkpt><trkpt lat="39.8339173" lon="21.191052"><ele>1483.0</ele><time>2026-04-27T12:45:00.15Z</time></trkpt><trkpt lat="39.8341045" lon="21.1910183"><ele>1483.0</ele><time>2026-04-27T12:45:01.15Z</time></trkpt><trkpt lat="39.8343141" lon="21.1909628"><ele>1483.0</ele><time>2026-04-27T12:45:02.15Z</time></trkpt><trkpt lat="39.834528" lon="21.190897"><ele>1482.0</ele><time>2026-04-27T12:45:03.15Z</time></trkpt><trkpt lat="39.8347426" lon="21.1908348"><ele>1481.0</ele><time>2026-04-27T12:45:04.149Z</time></trkpt><trkpt lat="39.8349457" lon="21.1907716"><ele>1480.0</ele><time>2026-04-27T12:45:05.149Z</time></trkpt><trkpt lat="39.8351406" lon="21.1907123"><ele>1485.0</ele><time>2026-04-27T12:45:06.15Z</time></trkpt><trkpt lat="39.8353223" lon="21.1906572"><ele>1490.0</ele><time>2026-04-27T12:45:07.149Z</time></trkpt><trkpt lat="39.8354966" lon="21.1906102"><ele>1495.0</ele><time>2026-04-27T12:45:08.149Z</time></trkpt><trkpt lat="39.8356575" lon="21.19059"><ele>1495.0</ele><time>2026-04-27T12:45:09.15Z</time></trkpt><trkpt lat="39.8358138" lon="21.1906089"><ele>1495.0</ele><time>2026-04-27T12:45:10.15Z</time></trkpt><trkpt lat="39.8359618" lon="21.1906605"><ele>1495.0</ele><time>2026-04-27T12:45:11.149Z</time></trkpt><trkpt lat="39.8360567" lon="21.190783"><ele>1495.0</ele><time>2026-04-27T12:45:12.149Z</time></trkpt><trkpt lat="39.8361452" lon="21.1909189"><ele>1490.6666666666665</ele><time>2026-04-27T12:45:13.15Z</time></trkpt><trkpt lat="39.8361837" lon="21.191088"><ele>1486.3333333333333</ele><time>2026-04-27T12:45:14.15Z</time></trkpt><trkpt lat="39.8361865" lon="21.1912818"><ele>1482.0</ele><time>2026-04-27T12:45:15.15Z</time></trkpt><trkpt lat="39.836153" lon="21.1914975"><ele>1478.0</ele><time>2026-04-27T12:45:16.149Z</time></trkpt><trkpt lat="39.8361147" lon="21.191697"><ele>1474.0</ele><time>2026-04-27T12:45:17.15Z</time></trkpt><trkpt lat="39.8359553" lon="21.1920843"><ele>1474.0</ele><time>2026-04-27T12:45:18.149Z</time></trkpt><trkpt lat="39.8356177" lon="21.1921902"><ele>1474.0</ele><time>2026-04-27T12:45:19.149Z</time></trkpt><trkpt lat="39.8354161" lon="21.1924439"><ele>1477.0</ele><time>2026-04-27T12:45:20.149Z</time></trkpt><trkpt lat="39.835211" lon="21.192698"><ele>1480.0</ele><time>2026-04-27T12:45:21.15Z</time></trkpt><trkpt lat="39.8350278" lon="21.1929296"><ele>1480.0</ele><time>2026-04-27T12:45:22.15Z</time></trkpt><trkpt lat="39.8348505" lon="21.1931716"><ele>1480.0</ele><time>2026-04-27T12:45:23.149Z</time></trkpt><trkpt lat="39.8347075" lon="21.193423"><ele>1491.0</ele><time>2026-04-27T12:45:24.15Z</time></trkpt><trkpt lat="39.8345883" lon="21.1936953"><ele>1502.0</ele><time>2026-04-27T12:45:25.149Z</time></trkpt><trkpt lat="39.8344869" lon="21.1939581"><ele>1501.0</ele><time>2026-04-27T12:45:26.15Z</time></trkpt><trkpt lat="39.8343999" lon="21.1942025"><ele>1500.0</ele><time>2026-04-27T12:45:27.15Z</time></trkpt><trkpt lat="39.8343192" lon="21.1944352"><ele>1499.0</ele><time>2026-04-27T12:45:28.15Z</time></trkpt><trkpt lat="39.8342434" lon="21.1946387"><ele>1499.0</ele><time>2026-04-27T12:45:29.149Z</time></trkpt><trkpt lat="39.8342008" lon="21.1948277"><ele>1499.0</ele><time>2026-04-27T12:45:30.149Z</time></trkpt><trkpt lat="39.8342002" lon="21.1950171"><ele>1499.0</ele><time>2026-04-27T12:45:31.149Z</time></trkpt><trkpt lat="39.8342333" lon="21.1952049"><ele>1499.0</ele><time>2026-04-27T12:45:32.15Z</time></trkpt><trkpt lat="39.834297" lon="21.1953815"><ele>1508.3333333333335</ele><time>2026-04-27T12:45:33.15Z</time></trkpt><trkpt lat="39.8343974" lon="21.1955447"><ele>1517.6666666666667</ele><time>2026-04-27T12:45:34.15Z</time></trkpt><trkpt lat="39.8345293" lon="21.195702"><ele>1527.0</ele><time>2026-04-27T12:45:35.149Z</time></trkpt><trkpt lat="39.8346734" lon="21.1958476"><ele>1527.0</ele><time>2026-04-27T12:45:36.15Z</time></trkpt><trkpt lat="39.8348164" lon="21.1959863"><ele>1527.0</ele><time>2026-04-27T12:45:37.149Z</time></trkpt><trkpt lat="39.8349564" lon="21.1961131"><ele>1527.0</ele><time>2026-04-27T12:45:38.15Z</time></trkpt><trkpt lat="39.8350933" lon="21.1962358"><ele>1525.3333333333333</ele><time>2026-04-27T12:45:39.149Z</time></trkpt><trkpt lat="39.8352243" lon="21.1963509"><ele>1523.6666666666665</ele><time>2026-04-27T12:45:40.149Z</time></trkpt><trkpt lat="39.8353655" lon="21.1964531"><ele>1522.0</ele><time>2026-04-27T12:45:41.149Z</time></trkpt><trkpt lat="39.8355098" lon="21.1965258"><ele>1522.0</ele><time>2026-04-27T12:45:42.15Z</time></trkpt><trkpt lat="39.8356732" lon="21.1965811"><ele>1522.0</ele><time>2026-04-27T12:45:43.15Z</time></trkpt><trkpt lat="39.8358496" lon="21.1966304"><ele>1522.0</ele><time>2026-04-27T12:45:44.149Z</time></trkpt><trkpt lat="39.8360424" lon="21.1966793"><ele>1521.6666666666665</ele><time>2026-04-27T12:45:45.15Z</time></trkpt><trkpt lat="39.836232" lon="21.1967312"><ele>1521.3333333333333</ele><time>2026-04-27T12:45:46.149Z</time></trkpt><trkpt lat="39.8364261" lon="21.1967777"><ele>1521.0</ele><time>2026-04-27T12:45:47.15Z</time></trkpt><trkpt lat="39.836607" lon="21.1968248"><ele>1521.0</ele><time>2026-04-27T12:45:48.149Z</time></trkpt><trkpt lat="39.8367694" lon="21.1968613"><ele>1521.0</ele><time>2026-04-27T12:45:49.15Z</time></trkpt><trkpt lat="39.8369118" lon="21.1968839"><ele>1521.0</ele><time>2026-04-27T12:45:50.15Z</time></trkpt><trkpt lat="39.8370445" lon="21.1968774"><ele>1521.0</ele><time>2026-04-27T12:45:51.149Z</time></trkpt><trkpt lat="39.83718" lon="21.1968387"><ele>1517.25</ele><time>2026-04-27T12:45:52.149Z</time></trkpt><trkpt lat="39.8373116" lon="21.1967729"><ele>1513.5</ele><time>2026-04-27T12:45:53.149Z</time></trkpt><trkpt lat="39.8374438" lon="21.1966729"><ele>1509.75</ele><time>2026-04-27T12:45:54.15Z</time></trkpt><trkpt lat="39.8375687" lon="21.1965661"><ele>1506.0</ele><time>2026-04-27T12:45:55.149Z</time></trkpt><trkpt lat="39.8376984" lon="21.196451"><ele>1505.0</ele><time>2026-04-27T12:45:56.15Z</time></trkpt><trkpt lat="39.8378315" lon="21.1963395"><ele>1504.0</ele><time>2026-04-27T12:45:57.15Z</time></trkpt><trkpt lat="39.8379689" lon="21.1962391"><ele>1503.0</ele><time>2026-04-27T12:45:58.15Z</time></trkpt><trkpt lat="39.8381058" lon="21.1961582"><ele>1503.0</ele><time>2026-04-27T12:45:59.15Z</time></trkpt><trkpt lat="39.8382414" lon="21.1960644"><ele>1503.0</ele><time>2026-04-27T12:46:00.15Z</time></trkpt><trkpt lat="39.8383686" lon="21.1959676"><ele>1503.0</ele><time>2026-04-27T12:46:01.149Z</time></trkpt><trkpt lat="39.8384906" lon="21.1958596"><ele>1503.0</ele><time>2026-04-27T12:46:02.15Z</time></trkpt><trkpt lat="39.8386096" lon="21.1957603"><ele>1502.75</ele><time>2026-04-27T12:46:03.15Z</time></trkpt><trkpt lat="39.8387314" lon="21.1956503"><ele>1502.5</ele><time>2026-04-27T12:46:04.15Z</time></trkpt><trkpt lat="39.8388498" lon="21.1955384"><ele>1502.25</ele><time>2026-04-27T12:46:05.15Z</time></trkpt><trkpt lat="39.8389652" lon="21.1954245"><ele>1502.0</ele><time>2026-04-27T12:46:06.149Z</time></trkpt><trkpt lat="39.8390822" lon="21.1953035"><ele>1502.0</ele><time>2026-04-27T12:46:07.15Z</time></trkpt><trkpt lat="39.8391956" lon="21.1951903"><ele>1502.0</ele><time>2026-04-27T12:46:08.15Z</time></trkpt><trkpt lat="39.8393124" lon="21.1950878"><ele>1502.0</ele><time>2026-04-27T12:46:09.15Z</time></trkpt><trkpt lat="39.8394385" lon="21.1949873"><ele>1502.0</ele><time>2026-04-27T12:46:10.149Z</time></trkpt><trkpt lat="39.8395718" lon="21.1948866"><ele>1503.75</ele><time>2026-04-27T12:46:11.149Z</time></trkpt><trkpt lat="39.8396947" lon="21.1948098"><ele>1505.5</ele><time>2026-04-27T12:46:12.15Z</time></trkpt><trkpt lat="39.8398249" lon="21.1947586"><ele>1507.25</ele><time>2026-04-27T12:46:13.149Z</time></trkpt><trkpt lat="39.8399611" lon="21.1947484"><ele>1509.0</ele><time>2026-04-27T12:46:14.149Z</time></trkpt><trkpt lat="39.8400987" lon="21.1947837"><ele>1506.3333333333333</ele><time>2026-04-27T12:46:15.15Z</time></trkpt><trkpt lat="39.8402183" lon="21.1948938"><ele>1503.6666666666665</ele><time>2026-04-27T12:46:16.149Z</time></trkpt><trkpt lat="39.8403371" lon="21.195033"><ele>1501.0</ele><time>2026-04-27T12:46:17.15Z</time></trkpt><trkpt lat="39.8404479" lon="21.1951971"><ele>1501.0</ele><time>2026-04-27T12:46:18.149Z</time></trkpt><trkpt lat="39.8405548" lon="21.1953436"><ele>1501.0</ele><time>2026-04-27T12:46:19.15Z</time></trkpt><trkpt lat="39.8406571" lon="21.1954687"><ele>1501.0</ele><time>2026-04-27T12:46:20.149Z</time></trkpt><trkpt lat="39.8407666" lon="21.1955413"><ele>1501.0</ele><time>2026-04-27T12:46:21.149Z</time></trkpt><trkpt lat="39.8408944" lon="21.1955734"><ele>1500.75</ele><time>2026-04-27T12:46:22.149Z</time></trkpt><trkpt lat="39.8410148" lon="21.1955956"><ele>1500.5</ele><time>2026-04-27T12:46:23.15Z</time></trkpt><trkpt lat="39.8411338" lon="21.1956407"><ele>1500.25</ele><time>2026-04-27T12:46:24.149Z</time></trkpt><trkpt lat="39.841227" lon="21.1957247"><ele>1500.0</ele><time>2026-04-27T12:46:25.15Z</time></trkpt><trkpt lat="39.8412698" lon="21.19586"><ele>1495.75</ele><time>2026-04-27T12:46:26.149Z</time></trkpt><trkpt lat="39.841292" lon="21.1960186"><ele>1491.5</ele><time>2026-04-27T12:46:27.15Z</time></trkpt><trkpt lat="39.8412694" lon="21.1962063"><ele>1487.25</ele><time>2026-04-27T12:46:28.15Z</time></trkpt><trkpt lat="39.8412223" lon="21.1963871"><ele>1483.0</ele><time>2026-04-27T12:46:29.149Z</time></trkpt><trkpt lat="39.8411374" lon="21.1965492"><ele>1483.0</ele><time>2026-04-27T12:46:30.15Z</time></trkpt><trkpt lat="39.841043" lon="21.1966994"><ele>1483.0</ele><time>2026-04-27T12:46:31.15Z</time></trkpt><trkpt lat="39.8409441" lon="21.1968254"><ele>1483.0</ele><time>2026-04-27T12:46:32.15Z</time></trkpt><trkpt lat="39.840841" lon="21.1969463"><ele>1483.0</ele><time>2026-04-27T12:46:33.149Z</time></trkpt><trkpt lat="39.8407384" lon="21.197087"><ele>1477.75</ele><time>2026-04-27T12:46:34.149Z</time></trkpt><trkpt lat="39.8406622" lon="21.1972323"><ele>1472.5</ele><time>2026-04-27T12:46:35.15Z</time></trkpt><trkpt lat="39.8405957" lon="21.1973843"><ele>1467.25</ele><time>2026-04-27T12:46:36.149Z</time></trkpt><trkpt lat="39.8405643" lon="21.1975505"><ele>1462.0</ele><time>2026-04-27T12:46:37.15Z</time></trkpt><trkpt lat="39.8405771" lon="21.1977234"><ele>1462.0</ele><time>2026-04-27T12:46:38.15Z</time></trkpt><trkpt lat="39.8406134" lon="21.1979138"><ele>1462.0</ele><time>2026-04-27T12:46:39.15Z</time></trkpt><trkpt lat="39.8406532" lon="21.1981135"><ele>1462.0</ele><time>2026-04-27T12:46:40.15Z</time></trkpt><trkpt lat="39.8406813" lon="21.1983185"><ele>1459.6666666666665</ele><time>2026-04-27T12:46:41.15Z</time></trkpt><trkpt lat="39.8406913" lon="21.1985278"><ele>1457.3333333333333</ele><time>2026-04-27T12:46:42.149Z</time></trkpt><trkpt lat="39.8407023" lon="21.1987411"><ele>1455.0</ele><time>2026-04-27T12:46:43.15Z</time></trkpt><trkpt lat="39.8407263" lon="21.1989593"><ele>1452.6666666666667</ele><time>2026-04-27T12:46:44.15Z</time></trkpt><trkpt lat="39.8407548" lon="21.1991649"><ele>1450.3333333333335</ele><time>2026-04-27T12:46:45.15Z</time></trkpt><trkpt lat="39.8407951" lon="21.1993655"><ele>1448.0</ele><time>2026-04-27T12:46:46.149Z</time></trkpt><trkpt lat="39.8408535" lon="21.1995551"><ele>1448.0</ele><time>2026-04-27T12:46:47.149Z</time></trkpt><trkpt lat="39.8409149" lon="21.1997397"><ele>1448.0</ele><time>2026-04-27T12:46:48.15Z</time></trkpt><trkpt lat="39.8409596" lon="21.1999239"><ele>1448.0</ele><time>2026-04-27T12:46:49.15Z</time></trkpt><trkpt lat="39.8409683" lon="21.2001221"><ele>1450.0</ele><time>2026-04-27T12:46:50.15Z</time></trkpt><trkpt lat="39.8409428" lon="21.2003097"><ele>1452.0</ele><time>2026-04-27T12:46:51.15Z</time></trkpt><trkpt lat="39.8409235" lon="21.2004911"><ele>1454.0</ele><time>2026-04-27T12:46:52.15Z</time></trkpt><trkpt lat="39.8409337" lon="21.2006796"><ele>1456.0</ele><time>2026-04-27T12:46:53.149Z</time></trkpt><trkpt lat="39.8409887" lon="21.2008916"><ele>1456.0</ele><time>2026-04-27T12:46:54.149Z</time></trkpt><trkpt lat="39.8410638" lon="21.2011156"><ele>1456.0</ele><time>2026-04-27T12:46:55.149Z</time></trkpt><trkpt lat="39.8411564" lon="21.2013641"><ele>1456.0</ele><time>2026-04-27T12:46:56.15Z</time></trkpt><trkpt lat="39.8412427" lon="21.201632"><ele>1448.0</ele><time>2026-04-27T12:46:57.149Z</time></trkpt><trkpt lat="39.8413165" lon="21.2019123"><ele>1440.0</ele><time>2026-04-27T12:46:58.149Z</time></trkpt><trkpt lat="39.8413859" lon="21.202187"><ele>1435.6666666666667</ele><time>2026-04-27T12:46:59.149Z</time></trkpt><trkpt lat="39.8414538" lon="21.2024547"><ele>1431.3333333333335</ele><time>2026-04-27T12:47:00.15Z</time></trkpt><trkpt lat="39.8415256" lon="21.2027102"><ele>1427.0</ele><time>2026-04-27T12:47:01.15Z</time></trkpt><trkpt lat="39.8416019" lon="21.2029613"><ele>1422.6666666666667</ele><time>2026-04-27T12:47:02.149Z</time></trkpt><trkpt lat="39.841691" lon="21.2031873"><ele>1418.3333333333333</ele><time>2026-04-27T12:47:03.15Z</time></trkpt><trkpt lat="39.8417719" lon="21.2034057"><ele>1414.0</ele><time>2026-04-27T12:47:04.15Z</time></trkpt><trkpt lat="39.8418347" lon="21.2036283"><ele>1411.6666666666665</ele><time>2026-04-27T12:47:05.15Z</time></trkpt><trkpt lat="39.841856" lon="21.2038687"><ele>1409.3333333333333</ele><time>2026-04-27T12:47:06.15Z</time></trkpt><trkpt lat="39.8418381" lon="21.2041266"><ele>1407.0</ele><time>2026-04-27T12:47:07.15Z</time></trkpt><trkpt lat="39.8417916" lon="21.2043875"><ele>1407.0</ele><time>2026-04-27T12:47:08.15Z</time></trkpt><trkpt lat="39.8417438" lon="21.2046754"><ele>1407.0</ele><time>2026-04-27T12:47:09.15Z</time></trkpt><trkpt lat="39.8417132" lon="21.2049587"><ele>1407.0</ele><time>2026-04-27T12:47:10.15Z</time></trkpt><trkpt lat="39.8416861" lon="21.2052417"><ele>1406.0</ele><time>2026-04-27T12:47:11.149Z</time></trkpt><trkpt lat="39.8416561" lon="21.2055197"><ele>1405.0</ele><time>2026-04-27T12:47:12.149Z</time></trkpt><trkpt lat="39.8416233" lon="21.2057901"><ele>1404.0</ele><time>2026-04-27T12:47:13.15Z</time></trkpt><trkpt lat="39.8415781" lon="21.2060521"><ele>1403.3333333333333</ele><time>2026-04-27T12:47:14.15Z</time></trkpt><trkpt lat="39.8415345" lon="21.2062998"><ele>1402.6666666666665</ele><time>2026-04-27T12:47:15.149Z</time></trkpt><trkpt lat="39.8415035" lon="21.206548"><ele>1402.0</ele><time>2026-04-27T12:47:16.149Z</time></trkpt><trkpt lat="39.8414909" lon="21.2067842"><ele>1401.6666666666665</ele><time>2026-04-27T12:47:17.149Z</time></trkpt><trkpt lat="39.8414939" lon="21.2070169"><ele>1401.3333333333333</ele><time>2026-04-27T12:47:18.15Z</time></trkpt><trkpt lat="39.8415219" lon="21.2072387"><ele>1401.0</ele><time>2026-04-27T12:47:19.149Z</time></trkpt><trkpt lat="39.8415826" lon="21.2074413"><ele>1400.6666666666667</ele><time>2026-04-27T12:47:20.149Z</time></trkpt><trkpt lat="39.8416685" lon="21.2076256"><ele>1400.3333333333335</ele><time>2026-04-27T12:47:21.149Z</time></trkpt><trkpt lat="39.8417906" lon="21.2077896"><ele>1400.0</ele><time>2026-04-27T12:47:22.149Z</time></trkpt><trkpt lat="39.8419489" lon="21.2079283"><ele>1400.0</ele><time>2026-04-27T12:47:23.15Z</time></trkpt><trkpt lat="39.8421069" lon="21.20804"><ele>1400.0</ele><time>2026-04-27T12:47:24.15Z</time></trkpt><trkpt lat="39.8422845" lon="21.2081297"><ele>1400.0</ele><time>2026-04-27T12:47:25.15Z</time></trkpt><trkpt lat="39.8424618" lon="21.2082158"><ele>1391.3333333333335</ele><time>2026-04-27T12:47:26.15Z</time></trkpt><trkpt lat="39.8426332" lon="21.2083038"><ele>1382.6666666666667</ele><time>2026-04-27T12:47:27.149Z</time></trkpt><trkpt lat="39.8427976" lon="21.2083737"><ele>1374.0</ele><time>2026-04-27T12:47:28.149Z</time></trkpt><trkpt lat="39.8429661" lon="21.2084008"><ele>1374.0</ele><time>2026-04-27T12:47:29.15Z</time></trkpt><trkpt lat="39.843131" lon="21.2083912"><ele>1374.0</ele><time>2026-04-27T12:47:30.149Z</time></trkpt><trkpt lat="39.8432925" lon="21.2083303"><ele>1374.0</ele><time>2026-04-27T12:47:31.15Z</time></trkpt><trkpt lat="39.8434522" lon="21.2082375"><ele>1371.6666666666667</ele><time>2026-04-27T12:47:32.149Z</time></trkpt><trkpt lat="39.8436062" lon="21.2081174"><ele>1369.3333333333335</ele><time>2026-04-27T12:47:33.15Z</time></trkpt><trkpt lat="39.8437549" lon="21.2079823"><ele>1367.0</ele><time>2026-04-27T12:47:34.15Z</time></trkpt><trkpt lat="39.8438936" lon="21.2078312"><ele>1367.0</ele><time>2026-04-27T12:47:35.149Z</time></trkpt><trkpt lat="39.8440278" lon="21.2076841"><ele>1367.0</ele><time>2026-04-27T12:47:36.149Z</time></trkpt><trkpt lat="39.8441673" lon="21.2075404"><ele>1367.0</ele><time>2026-04-27T12:47:37.15Z</time></trkpt><trkpt lat="39.8443202" lon="21.2074304"><ele>1361.6666666666667</ele><time>2026-04-27T12:47:38.15Z</time></trkpt><trkpt lat="39.8444887" lon="21.2073586"><ele>1356.3333333333333</ele><time>2026-04-27T12:47:39.149Z</time></trkpt><trkpt lat="39.8446716" lon="21.2073719"><ele>1351.0</ele><time>2026-04-27T12:47:40.15Z</time></trkpt><trkpt lat="39.8448578" lon="21.2074326"><ele>1351.0</ele><time>2026-04-27T12:47:41.15Z</time></trkpt><trkpt lat="39.8450477" lon="21.2075557"><ele>1351.0</ele><time>2026-04-27T12:47:42.149Z</time></trkpt><trkpt lat="39.8452411" lon="21.2077103"><ele>1351.0</ele><time>2026-04-27T12:47:43.15Z</time></trkpt><trkpt lat="39.8454356" lon="21.2078586"><ele>1353.6666666666665</ele><time>2026-04-27T12:47:44.15Z</time></trkpt><trkpt lat="39.8456264" lon="21.2080045"><ele>1356.3333333333333</ele><time>2026-04-27T12:47:45.15Z</time></trkpt><trkpt lat="39.8458073" lon="21.208153"><ele>1359.0</ele><time>2026-04-27T12:47:46.149Z</time></trkpt><trkpt lat="39.8459706" lon="21.2083141"><ele>1359.0</ele><time>2026-04-27T12:47:47.15Z</time></trkpt><trkpt lat="39.8461086" lon="21.2084824"><ele>1359.0</ele><time>2026-04-27T12:47:48.15Z</time></trkpt><trkpt lat="39.8462325" lon="21.2086476"><ele>1359.0</ele><time>2026-04-27T12:47:49.149Z</time></trkpt><trkpt lat="39.8463205" lon="21.2088296"><ele>1355.5</ele><time>2026-04-27T12:47:50.149Z</time></trkpt><trkpt lat="39.846383" lon="21.2090137"><ele>1352.0</ele><time>2026-04-27T12:47:51.15Z</time></trkpt><trkpt lat="39.846436" lon="21.2091907"><ele>1348.5</ele><time>2026-04-27T12:47:52.149Z</time></trkpt><trkpt lat="39.8464808" lon="21.2093568"><ele>1345.0</ele><time>2026-04-27T12:47:53.149Z</time></trkpt><trkpt lat="39.8465312" lon="21.2094953"><ele>1345.0</ele><time>2026-04-27T12:47:54.15Z</time></trkpt><trkpt lat="39.8466118" lon="21.2095992"><ele>1345.0</ele><time>2026-04-27T12:47:55.15Z</time></trkpt><trkpt lat="39.8467244" lon="21.209667"><ele>1345.0</ele><time>2026-04-27T12:47:56.15Z</time></trkpt><trkpt lat="39.8468796" lon="21.20971"><ele>1345.0</ele><time>2026-04-27T12:47:57.15Z</time></trkpt><trkpt lat="39.8470386" lon="21.2097307"><ele>1347.6666666666665</ele><time>2026-04-27T12:47:58.149Z</time></trkpt><trkpt lat="39.8471983" lon="21.2097462"><ele>1350.3333333333333</ele><time>2026-04-27T12:47:59.15Z</time></trkpt><trkpt lat="39.8473487" lon="21.2097669"><ele>1353.0</ele><time>2026-04-27T12:48:00.149Z</time></trkpt><trkpt lat="39.847492" lon="21.2097914"><ele>1349.75</ele><time>2026-04-27T12:48:01.149Z</time></trkpt><trkpt lat="39.8476268" lon="21.2098358"><ele>1346.5</ele><time>2026-04-27T12:48:02.15Z</time></trkpt><trkpt lat="39.8477475" lon="21.2099194"><ele>1343.25</ele><time>2026-04-27T12:48:03.149Z</time></trkpt><trkpt lat="39.847835" lon="21.2100459"><ele>1340.0</ele><time>2026-04-27T12:48:04.149Z</time></trkpt><trkpt lat="39.8479" lon="21.2101942"><ele>1340.0</ele><time>2026-04-27T12:48:05.149Z</time></trkpt><trkpt lat="39.8479424" lon="21.2103708"><ele>1340.0</ele><time>2026-04-27T12:48:06.149Z</time></trkpt><trkpt lat="39.8479746" lon="21.2105368"><ele>1340.0</ele><time>2026-04-27T12:48:07.149Z</time></trkpt><trkpt lat="39.8480109" lon="21.2106935"><ele>1340.0</ele><time>2026-04-27T12:48:08.15Z</time></trkpt><trkpt lat="39.8480388" lon="21.2108582"><ele>1337.0</ele><time>2026-04-27T12:48:09.149Z</time></trkpt><trkpt lat="39.8480528" lon="21.2110208"><ele>1334.0</ele><time>2026-04-27T12:48:10.15Z</time></trkpt><trkpt lat="39.8480563" lon="21.2111871"><ele>1331.0</ele><time>2026-04-27T12:48:11.15Z</time></trkpt><trkpt lat="39.8480615" lon="21.2113858"><ele>1328.0</ele><time>2026-04-27T12:48:12.15Z</time></trkpt><trkpt lat="39.8480507" lon="21.2115926"><ele>1325.0</ele><time>2026-04-27T12:48:13.149Z</time></trkpt><trkpt lat="39.8480481" lon="21.2118122"><ele>1322.0</ele><time>2026-04-27T12:48:14.15Z</time></trkpt><trkpt lat="39.8480374" lon="21.2120315"><ele>1319.0</ele><time>2026-04-27T12:48:15.149Z</time></trkpt><trkpt lat="39.8480365" lon="21.2122457"><ele>1319.0</ele><time>2026-04-27T12:48:16.149Z</time></trkpt><trkpt lat="39.8480396" lon="21.2124559"><ele>1319.0</ele><time>2026-04-27T12:48:17.149Z</time></trkpt><trkpt lat="39.8480514" lon="21.2126659"><ele>1319.0</ele><time>2026-04-27T12:48:18.15Z</time></trkpt><trkpt lat="39.8480684" lon="21.2128771"><ele>1319.0</ele><time>2026-04-27T12:48:19.15Z</time></trkpt><trkpt lat="39.8480865" lon="21.213076"><ele>1319.0</ele><time>2026-04-27T12:48:20.149Z</time></trkpt><trkpt lat="39.8481124" lon="21.2132697"><ele>1319.0</ele><time>2026-04-27T12:48:21.15Z</time></trkpt><trkpt lat="39.8481489" lon="21.2134466"><ele>1319.0</ele><time>2026-04-27T12:48:22.149Z</time></trkpt><trkpt lat="39.8481967" lon="21.2135876"><ele>1317.75</ele><time>2026-04-27T12:48:23.15Z</time></trkpt><trkpt lat="39.8482587" lon="21.2137153"><ele>1316.5</ele><time>2026-04-27T12:48:24.15Z</time></trkpt><trkpt lat="39.8483366" lon="21.2138213"><ele>1315.25</ele><time>2026-04-27T12:48:25.149Z</time></trkpt><trkpt lat="39.8484422" lon="21.2139078"><ele>1314.0</ele><time>2026-04-27T12:48:26.15Z</time></trkpt><trkpt lat="39.8485729" lon="21.213958"><ele>1314.0</ele><time>2026-04-27T12:48:27.15Z</time></trkpt><trkpt lat="39.8487377" lon="21.2139793"><ele>1314.0</ele><time>2026-04-27T12:48:28.149Z</time></trkpt><trkpt lat="39.8489098" lon="21.2139804"><ele>1314.0</ele><time>2026-04-27T12:48:29.149Z</time></trkpt><trkpt lat="39.8490884" lon="21.2139822"><ele>1307.6666666666667</ele><time>2026-04-27T12:48:30.149Z</time></trkpt><trkpt lat="39.8492907" lon="21.2140088"><ele>1301.3333333333335</ele><time>2026-04-27T12:48:31.149Z</time></trkpt><trkpt lat="39.8494991" lon="21.2140641"><ele>1295.0</ele><time>2026-04-27T12:48:32.15Z</time></trkpt><trkpt lat="39.8497054" lon="21.2141484"><ele>1295.0</ele><time>2026-04-27T12:48:33.149Z</time></trkpt><trkpt lat="39.8499134" lon="21.2142343"><ele>1295.0</ele><time>2026-04-27T12:48:34.149Z</time></trkpt><trkpt lat="39.8501122" lon="21.2143254"><ele>1295.0</ele><time>2026-04-27T12:48:35.149Z</time></trkpt><trkpt lat="39.8503114" lon="21.214408"><ele>1295.0</ele><time>2026-04-27T12:48:36.149Z</time></trkpt><trkpt lat="39.8505067" lon="21.2144638"><ele>1295.0</ele><time>2026-04-27T12:48:37.149Z</time></trkpt><trkpt lat="39.8506811" lon="21.2144981"><ele>1295.0</ele><time>2026-04-27T12:48:38.149Z</time></trkpt><trkpt lat="39.8508338" lon="21.2145126"><ele>1295.0</ele><time>2026-04-27T12:48:39.15Z</time></trkpt><trkpt lat="39.8509548" lon="21.214516"><ele>1295.0</ele><time>2026-04-27T12:48:40.149Z</time></trkpt><trkpt lat="39.8510412" lon="21.2145395"><ele>1295.0</ele><time>2026-04-27T12:48:41.15Z</time></trkpt><trkpt lat="39.8511002" lon="21.2145872"><ele>1295.0</ele><time>2026-04-27T12:48:42.15Z</time></trkpt><trkpt lat="39.8511031" lon="21.2147186"><ele>1295.0</ele><time>2026-04-27T12:48:44.149Z</time></trkpt><trkpt lat="39.8509722" lon="21.2147758"><ele>1288.25</ele><time>2026-04-27T12:48:45.15Z</time></trkpt><trkpt lat="39.8508853" lon="21.2148254"><ele>1281.5</ele><time>2026-04-27T12:48:46.149Z</time></trkpt><trkpt lat="39.8507616" lon="21.214876"><ele>1274.75</ele><time>2026-04-27T12:48:47.15Z</time></trkpt><trkpt lat="39.8505537" lon="21.2149096"><ele>1268.0</ele><time>2026-04-27T12:48:48.15Z</time></trkpt><trkpt lat="39.850303" lon="21.2149128"><ele>1269.6666666666667</ele><time>2026-04-27T12:48:49.149Z</time></trkpt><trkpt lat="39.8500963" lon="21.2149567"><ele>1271.3333333333333</ele><time>2026-04-27T12:48:50.149Z</time></trkpt><trkpt lat="39.8499047" lon="21.2149866"><ele>1273.0</ele><time>2026-04-27T12:48:51.15Z</time></trkpt><trkpt lat="39.849715" lon="21.2149961"><ele>1273.0</ele><time>2026-04-27T12:48:52.149Z</time></trkpt><trkpt lat="39.8495226" lon="21.2150014"><ele>1273.0</ele><time>2026-04-27T12:48:53.15Z</time></trkpt><trkpt lat="39.8493402" lon="21.2150155"><ele>1273.0</ele><time>2026-04-27T12:48:54.149Z</time></trkpt><trkpt lat="39.849157" lon="21.2150353"><ele>1271.0</ele><time>2026-04-27T12:48:55.15Z</time></trkpt><trkpt lat="39.8489896" lon="21.2150824"><ele>1269.0</ele><time>2026-04-27T12:48:56.15Z</time></trkpt><trkpt lat="39.8488269" lon="21.2151442"><ele>1267.0</ele><time>2026-04-27T12:48:57.149Z</time></trkpt><trkpt lat="39.8486636" lon="21.2151876"><ele>1267.0</ele><time>2026-04-27T12:48:58.149Z</time></trkpt><trkpt lat="39.84849" lon="21.215207"><ele>1267.0</ele><time>2026-04-27T12:48:59.149Z</time></trkpt><trkpt lat="39.8483264" lon="21.215202"><ele>1267.0</ele><time>2026-04-27T12:49:00.149Z</time></trkpt><trkpt lat="39.8481651" lon="21.2151687"><ele>1266.5</ele><time>2026-04-27T12:49:01.15Z</time></trkpt><trkpt lat="39.8480236" lon="21.2151128"><ele>1266.0</ele><time>2026-04-27T12:49:02.15Z</time></trkpt><trkpt lat="39.8478909" lon="21.2150441"><ele>1265.5</ele><time>2026-04-27T12:49:03.15Z</time></trkpt><trkpt lat="39.8477763" lon="21.2149785"><ele>1265.0</ele><time>2026-04-27T12:49:04.149Z</time></trkpt><trkpt lat="39.8476733" lon="21.2149221"><ele>1263.1666666666667</ele><time>2026-04-27T12:49:05.149Z</time></trkpt><trkpt lat="39.847581" lon="21.2148897"><ele>1261.3333333333335</ele><time>2026-04-27T12:49:06.149Z</time></trkpt><trkpt lat="39.8474896" lon="21.2149031"><ele>1259.5</ele><time>2026-04-27T12:49:07.149Z</time></trkpt><trkpt lat="39.8474273" lon="21.2149553"><ele>1257.6666666666667</ele><time>2026-04-27T12:49:08.149Z</time></trkpt><trkpt lat="39.8473938" lon="21.2150653"><ele>1255.8333333333333</ele><time>2026-04-27T12:49:09.149Z</time></trkpt><trkpt lat="39.8474128" lon="21.2151871"><ele>1254.0</ele><time>2026-04-27T12:49:10.15Z</time></trkpt><trkpt lat="39.8474845" lon="21.2152935"><ele>1254.0</ele><time>2026-04-27T12:49:11.15Z</time></trkpt><trkpt lat="39.8476115" lon="21.2153865"><ele>1254.0</ele><time>2026-04-27T12:49:12.15Z</time></trkpt><trkpt lat="39.84779" lon="21.2154922"><ele>1254.0</ele><time>2026-04-27T12:49:13.15Z</time></trkpt><trkpt lat="39.8479822" lon="21.2156317"><ele>1248.5</ele><time>2026-04-27T12:49:14.15Z</time></trkpt><trkpt lat="39.8481834" lon="21.2158348"><ele>1243.0</ele><time>2026-04-27T12:49:15.149Z</time></trkpt><trkpt lat="39.8484152" lon="21.2160456"><ele>1240.5</ele><time>2026-04-27T12:49:16.149Z</time></trkpt><trkpt lat="39.8486414" lon="21.2162922"><ele>1238.0</ele><time>2026-04-27T12:49:17.149Z</time></trkpt><trkpt lat="39.8488469" lon="21.2165449"><ele>1238.0</ele><time>2026-04-27T12:49:18.15Z</time></trkpt><trkpt lat="39.8490311" lon="21.2167514"><ele>1238.0</ele><time>2026-04-27T12:49:19.15Z</time></trkpt><trkpt lat="39.8491885" lon="21.2169654"><ele>1241.3333333333335</ele><time>2026-04-27T12:49:20.15Z</time></trkpt><trkpt lat="39.8493552" lon="21.217158"><ele>1244.6666666666667</ele><time>2026-04-27T12:49:21.15Z</time></trkpt><trkpt lat="39.8495277" lon="21.2172941"><ele>1248.0</ele><time>2026-04-27T12:49:22.149Z</time></trkpt><trkpt lat="39.8497049" lon="21.2174083"><ele>1240.0</ele><time>2026-04-27T12:49:23.15Z</time></trkpt><trkpt lat="39.8498883" lon="21.2174731"><ele>1232.0</ele><time>2026-04-27T12:49:24.149Z</time></trkpt><trkpt lat="39.8500817" lon="21.2175132"><ele>1224.0</ele><time>2026-04-27T12:49:25.15Z</time></trkpt><trkpt lat="39.8502748" lon="21.2175445"><ele>1223.0</ele><time>2026-04-27T12:49:26.15Z</time></trkpt><trkpt lat="39.8504748" lon="21.2176058"><ele>1222.0</ele><time>2026-04-27T12:49:27.15Z</time></trkpt><trkpt lat="39.8506659" lon="21.2176778"><ele>1221.0</ele><time>2026-04-27T12:49:28.15Z</time></trkpt><trkpt lat="39.8508494" lon="21.2177581"><ele>1223.0</ele><time>2026-04-27T12:49:29.15Z</time></trkpt><trkpt lat="39.8510261" lon="21.2178388"><ele>1225.0</ele><time>2026-04-27T12:49:30.149Z</time></trkpt><trkpt lat="39.8511933" lon="21.2179095"><ele>1227.0</ele><time>2026-04-27T12:49:31.149Z</time></trkpt><trkpt lat="39.8513534" lon="21.2179804"><ele>1227.0</ele><time>2026-04-27T12:49:32.149Z</time></trkpt><trkpt lat="39.8515066" lon="21.2180435"><ele>1227.0</ele><time>2026-04-27T12:49:33.15Z</time></trkpt><trkpt lat="39.8516574" lon="21.218106"><ele>1227.0</ele><time>2026-04-27T12:49:34.15Z</time></trkpt><trkpt lat="39.8517913" lon="21.2181915"><ele>1225.6666666666667</ele><time>2026-04-27T12:49:35.15Z</time></trkpt><trkpt lat="39.8518997" lon="21.2183131"><ele>1224.3333333333335</ele><time>2026-04-27T12:49:36.15Z</time></trkpt><trkpt lat="39.8519849" lon="21.2184714"><ele>1223.0</ele><time>2026-04-27T12:49:37.149Z</time></trkpt><trkpt lat="39.8520031" lon="21.2186847"><ele>1223.0</ele><time>2026-04-27T12:49:38.149Z</time></trkpt><trkpt lat="39.8520119" lon="21.2189289"><ele>1223.0</ele><time>2026-04-27T12:49:39.149Z</time></trkpt><trkpt lat="39.8520243" lon="21.2191777"><ele>1223.0</ele><time>2026-04-27T12:49:40.149Z</time></trkpt><trkpt lat="39.8520493" lon="21.219436"><ele>1222.3333333333335</ele><time>2026-04-27T12:49:41.149Z</time></trkpt><trkpt lat="39.8520731" lon="21.2196829"><ele>1221.6666666666667</ele><time>2026-04-27T12:49:42.149Z</time></trkpt><trkpt lat="39.8521021" lon="21.2199221"><ele>1221.0</ele><time>2026-04-27T12:49:43.15Z</time></trkpt><trkpt lat="39.852151" lon="21.2201483"><ele>1217.6666666666667</ele><time>2026-04-27T12:49:44.15Z</time></trkpt><trkpt lat="39.8522023" lon="21.2203486"><ele>1214.3333333333335</ele><time>2026-04-27T12:49:45.149Z</time></trkpt><trkpt lat="39.8522526" lon="21.2205548"><ele>1211.0</ele><time>2026-04-27T12:49:46.149Z</time></trkpt><trkpt lat="39.8523275" lon="21.2207631"><ele>1208.6666666666667</ele><time>2026-04-27T12:49:47.15Z</time></trkpt><trkpt lat="39.8524259" lon="21.2209703"><ele>1206.3333333333333</ele><time>2026-04-27T12:49:48.15Z</time></trkpt><trkpt lat="39.8525423" lon="21.2211775"><ele>1204.0</ele><time>2026-04-27T12:49:49.149Z</time></trkpt><trkpt lat="39.8526722" lon="21.221374"><ele>1198.6666666666665</ele><time>2026-04-27T12:49:50.15Z</time></trkpt><trkpt lat="39.8528243" lon="21.2215586"><ele>1193.3333333333333</ele><time>2026-04-27T12:49:51.15Z</time></trkpt><trkpt lat="39.8529876" lon="21.2217472"><ele>1188.0</ele><time>2026-04-27T12:49:52.15Z</time></trkpt><trkpt lat="39.8531249" lon="21.2219517"><ele>1188.0</ele><time>2026-04-27T12:49:53.15Z</time></trkpt><trkpt lat="39.8532683" lon="21.2221547"><ele>1188.0</ele><time>2026-04-27T12:49:54.149Z</time></trkpt><trkpt lat="39.8533797" lon="21.2223662"><ele>1188.0</ele><time>2026-04-27T12:49:55.15Z</time></trkpt><trkpt lat="39.8535284" lon="21.2225628"><ele>1185.6666666666667</ele><time>2026-04-27T12:49:56.149Z</time></trkpt><trkpt lat="39.8536776" lon="21.2227451"><ele>1183.3333333333335</ele><time>2026-04-27T12:49:57.149Z</time></trkpt><trkpt lat="39.8538368" lon="21.2229151"><ele>1181.0</ele><time>2026-04-27T12:49:58.15Z</time></trkpt><trkpt lat="39.8539857" lon="21.2230708"><ele>1181.3333333333335</ele><time>2026-04-27T12:49:59.15Z</time></trkpt><trkpt lat="39.8541308" lon="21.2232212"><ele>1181.6666666666667</ele><time>2026-04-27T12:50:00.149Z</time></trkpt><trkpt lat="39.8542502" lon="21.2233871"><ele>1182.0</ele><time>2026-04-27T12:50:01.15Z</time></trkpt><trkpt lat="39.8543406" lon="21.2235607"><ele>1182.0</ele><time>2026-04-27T12:50:02.15Z</time></trkpt><trkpt lat="39.8543867" lon="21.2237716"><ele>1182.0</ele><time>2026-04-27T12:50:03.15Z</time></trkpt><trkpt lat="39.8544278" lon="21.2239651"><ele>1182.0</ele><time>2026-04-27T12:50:04.149Z</time></trkpt><trkpt lat="39.8544578" lon="21.2241466"><ele>1179.5</ele><time>2026-04-27T12:50:05.15Z</time></trkpt><trkpt lat="39.8544803" lon="21.2243248"><ele>1177.0</ele><time>2026-04-27T12:50:06.15Z</time></trkpt><trkpt lat="39.8544916" lon="21.2244986"><ele>1174.5</ele><time>2026-04-27T12:50:07.149Z</time></trkpt><trkpt lat="39.8545124" lon="21.2246477"><ele>1172.0</ele><time>2026-04-27T12:50:08.149Z</time></trkpt><trkpt lat="39.8545027" lon="21.2248044"><ele>1170.25</ele><time>2026-04-27T12:50:09.149Z</time></trkpt><trkpt lat="39.8544838" lon="21.2249585"><ele>1168.5</ele><time>2026-04-27T12:50:10.15Z</time></trkpt><trkpt lat="39.8544716" lon="21.2251022"><ele>1166.75</ele><time>2026-04-27T12:50:11.149Z</time></trkpt><trkpt lat="39.8544488" lon="21.2252638"><ele>1165.0</ele><time>2026-04-27T12:50:12.15Z</time></trkpt><trkpt lat="39.8544251" lon="21.2254279"><ele>1165.0</ele><time>2026-04-27T12:50:13.15Z</time></trkpt><trkpt lat="39.8543983" lon="21.2255855"><ele>1165.0</ele><time>2026-04-27T12:50:14.15Z</time></trkpt><trkpt lat="39.8543582" lon="21.2257492"><ele>1165.0</ele><time>2026-04-27T12:50:15.149Z</time></trkpt><trkpt lat="39.8543222" lon="21.2259138"><ele>1165.0</ele><time>2026-04-27T12:50:16.149Z</time></trkpt><trkpt lat="39.854299" lon="21.2260742"><ele>1164.25</ele><time>2026-04-27T12:50:17.149Z</time></trkpt><trkpt lat="39.8542742" lon="21.2262318"><ele>1163.5</ele><time>2026-04-27T12:50:18.15Z</time></trkpt><trkpt lat="39.8542483" lon="21.2263812"><ele>1162.75</ele><time>2026-04-27T12:50:19.15Z</time></trkpt><trkpt lat="39.8542216" lon="21.2265283"><ele>1162.0</ele><time>2026-04-27T12:50:20.15Z</time></trkpt><trkpt lat="39.8542106" lon="21.2266861"><ele>1161.75</ele><time>2026-04-27T12:50:21.149Z</time></trkpt><trkpt lat="39.8542197" lon="21.2268537"><ele>1161.5</ele><time>2026-04-27T12:50:22.149Z</time></trkpt><trkpt lat="39.8542474" lon="21.2270262"><ele>1161.25</ele><time>2026-04-27T12:50:23.15Z</time></trkpt><trkpt lat="39.85428" lon="21.2271951"><ele>1161.0</ele><time>2026-04-27T12:50:24.15Z</time></trkpt><trkpt lat="39.8543149" lon="21.2273722"><ele>1161.0</ele><time>2026-04-27T12:50:25.15Z</time></trkpt><trkpt lat="39.8543511" lon="21.2275626"><ele>1161.0</ele><time>2026-04-27T12:50:26.149Z</time></trkpt><trkpt lat="39.8543997" lon="21.2277607"><ele>1161.0</ele><time>2026-04-27T12:50:27.149Z</time></trkpt><trkpt lat="39.8544427" lon="21.2279621"><ele>1159.6666666666667</ele><time>2026-04-27T12:50:28.149Z</time></trkpt><trkpt lat="39.8544851" lon="21.2281704"><ele>1158.3333333333335</ele><time>2026-04-27T12:50:29.15Z</time></trkpt><trkpt lat="39.8545245" lon="21.2283779"><ele>1157.0</ele><time>2026-04-27T12:50:30.15Z</time></trkpt><trkpt lat="39.8545729" lon="21.2285903"><ele>1157.0</ele><time>2026-04-27T12:50:31.15Z</time></trkpt><trkpt lat="39.8546235" lon="21.2287958"><ele>1157.0</ele><time>2026-04-27T12:50:32.149Z</time></trkpt><trkpt lat="39.854675" lon="21.2290077"><ele>1157.0</ele><time>2026-04-27T12:50:33.149Z</time></trkpt><trkpt lat="39.8547284" lon="21.2292226"><ele>1155.6666666666667</ele><time>2026-04-27T12:50:34.15Z</time></trkpt><trkpt lat="39.8547843" lon="21.2294468"><ele>1154.3333333333333</ele><time>2026-04-27T12:50:35.15Z</time></trkpt><trkpt lat="39.8548359" lon="21.2296683"><ele>1153.0</ele><time>2026-04-27T12:50:36.149Z</time></trkpt><trkpt lat="39.8548881" lon="21.229893"><ele>1151.0</ele><time>2026-04-27T12:50:37.149Z</time></trkpt><trkpt lat="39.8549359" lon="21.2301155"><ele>1149.0</ele><time>2026-04-27T12:50:38.15Z</time></trkpt><trkpt lat="39.8549904" lon="21.2303418"><ele>1147.0</ele><time>2026-04-27T12:50:39.15Z</time></trkpt><trkpt lat="39.8550463" lon="21.2305626"><ele>1146.6666666666665</ele><time>2026-04-27T12:50:40.15Z</time></trkpt><trkpt lat="39.8551002" lon="21.2307825"><ele>1146.3333333333333</ele><time>2026-04-27T12:50:41.15Z</time></trkpt><trkpt lat="39.8551652" lon="21.2309796"><ele>1146.0</ele><time>2026-04-27T12:50:42.149Z</time></trkpt><trkpt lat="39.8552311" lon="21.2311954"><ele>1148.3333333333333</ele><time>2026-04-27T12:50:43.149Z</time></trkpt><trkpt lat="39.8552969" lon="21.2314047"><ele>1150.6666666666665</ele><time>2026-04-27T12:50:44.15Z</time></trkpt><trkpt lat="39.8553613" lon="21.2316147"><ele>1153.0</ele><time>2026-04-27T12:50:45.149Z</time></trkpt><trkpt lat="39.8554269" lon="21.2318254"><ele>1153.0</ele><time>2026-04-27T12:50:46.15Z</time></trkpt><trkpt lat="39.8554938" lon="21.232037"><ele>1153.0</ele><time>2026-04-27T12:50:47.149Z</time></trkpt><trkpt lat="39.8555713" lon="21.2322481"><ele>1153.0</ele><time>2026-04-27T12:50:48.15Z</time></trkpt><trkpt lat="39.8556588" lon="21.2324512"><ele>1151.0</ele><time>2026-04-27T12:50:49.149Z</time></trkpt><trkpt lat="39.8557506" lon="21.2326534"><ele>1149.0</ele><time>2026-04-27T12:50:50.149Z</time></trkpt><trkpt lat="39.8558491" lon="21.2328582"><ele>1147.0</ele><time>2026-04-27T12:50:51.149Z</time></trkpt><trkpt lat="39.8559448" lon="21.2330722"><ele>1148.3333333333333</ele><time>2026-04-27T12:50:52.149Z</time></trkpt><trkpt lat="39.8560463" lon="21.2332922"><ele>1149.6666666666667</ele><time>2026-04-27T12:50:53.15Z</time></trkpt><trkpt lat="39.8561415" lon="21.2335143"><ele>1151.0</ele><time>2026-04-27T12:50:54.149Z</time></trkpt><trkpt lat="39.8562361" lon="21.2337341"><ele>1151.0</ele><time>2026-04-27T12:50:55.15Z</time></trkpt><trkpt lat="39.8563435" lon="21.2339605"><ele>1151.0</ele><time>2026-04-27T12:50:56.15Z</time></trkpt><trkpt lat="39.8564515" lon="21.2341747"><ele>1151.0</ele><time>2026-04-27T12:50:57.15Z</time></trkpt><trkpt lat="39.8565779" lon="21.2343787"><ele>1151.6666666666667</ele><time>2026-04-27T12:50:58.149Z</time></trkpt><trkpt lat="39.8567254" lon="21.2345582"><ele>1152.3333333333333</ele><time>2026-04-27T12:50:59.15Z</time></trkpt><trkpt lat="39.8568829" lon="21.2347154"><ele>1153.0</ele><time>2026-04-27T12:51:00.15Z</time></trkpt><trkpt lat="39.8570413" lon="21.2348694"><ele>1148.0</ele><time>2026-04-27T12:51:01.15Z</time></trkpt><trkpt lat="39.8571969" lon="21.2350243"><ele>1143.0</ele><time>2026-04-27T12:51:02.149Z</time></trkpt><trkpt lat="39.857345" lon="21.2351972"><ele>1138.0</ele><time>2026-04-27T12:51:03.149Z</time></trkpt><trkpt lat="39.857456" lon="21.2353971"><ele>1138.0</ele><time>2026-04-27T12:51:04.149Z</time></trkpt><trkpt lat="39.8575847" lon="21.2355977"><ele>1138.0</ele><time>2026-04-27T12:51:05.15Z</time></trkpt><trkpt lat="39.8577044" lon="21.2357908"><ele>1138.0</ele><time>2026-04-27T12:51:06.149Z</time></trkpt><trkpt lat="39.857832" lon="21.2359778"><ele>1137.0</ele><time>2026-04-27T12:51:07.15Z</time></trkpt><trkpt lat="39.8579671" lon="21.2361608"><ele>1136.0</ele><time>2026-04-27T12:51:08.15Z</time></trkpt><trkpt lat="39.8581137" lon="21.236339"><ele>1135.0</ele><time>2026-04-27T12:51:09.15Z</time></trkpt><trkpt lat="39.8582692" lon="21.2365212"><ele>1135.0</ele><time>2026-04-27T12:51:10.15Z</time></trkpt><trkpt lat="39.8584305" lon="21.2367133"><ele>1135.0</ele><time>2026-04-27T12:51:11.149Z</time></trkpt><trkpt lat="39.8585947" lon="21.2369109"><ele>1135.0</ele><time>2026-04-27T12:51:12.149Z</time></trkpt><trkpt lat="39.8587558" lon="21.2371171"><ele>1134.0</ele><time>2026-04-27T12:51:13.15Z</time></trkpt><trkpt lat="39.8589038" lon="21.2373275"><ele>1133.0</ele><time>2026-04-27T12:51:14.15Z</time></trkpt><trkpt lat="39.8590591" lon="21.2375145"><ele>1132.0</ele><time>2026-04-27T12:51:15.149Z</time></trkpt><trkpt lat="39.8592007" lon="21.2377016"><ele>1137.0</ele><time>2026-04-27T12:51:16.15Z</time></trkpt><trkpt lat="39.8593493" lon="21.2378557"><ele>1142.0</ele><time>2026-04-27T12:51:17.149Z</time></trkpt><trkpt lat="39.8595277" lon="21.2379586"><ele>1147.0</ele><time>2026-04-27T12:51:18.149Z</time></trkpt><trkpt lat="39.8597413" lon="21.23805"><ele>1147.0</ele><time>2026-04-27T12:51:19.15Z</time></trkpt><trkpt lat="39.8599818" lon="21.2381282"><ele>1147.0</ele><time>2026-04-27T12:51:20.149Z</time></trkpt><trkpt lat="39.8602068" lon="21.2381825"><ele>1141.3333333333333</ele><time>2026-04-27T12:51:21.149Z</time></trkpt><trkpt lat="39.8604245" lon="21.2382344"><ele>1135.6666666666667</ele><time>2026-04-27T12:51:22.15Z</time></trkpt><trkpt lat="39.8606369" lon="21.2383013"><ele>1130.0</ele><time>2026-04-27T12:51:23.15Z</time></trkpt><trkpt lat="39.8608285" lon="21.2383748"><ele>1137.6666666666667</ele><time>2026-04-27T12:51:24.149Z</time></trkpt><trkpt lat="39.8609866" lon="21.2384812"><ele>1145.3333333333333</ele><time>2026-04-27T12:51:25.15Z</time></trkpt><trkpt lat="39.8610825" lon="21.2386564"><ele>1153.0</ele><time>2026-04-27T12:51:26.149Z</time></trkpt><trkpt lat="39.8611752" lon="21.2388507"><ele>1148.0</ele><time>2026-04-27T12:51:27.15Z</time></trkpt><trkpt lat="39.8612483" lon="21.2390675"><ele>1143.0</ele><time>2026-04-27T12:51:28.149Z</time></trkpt><trkpt lat="39.8613337" lon="21.2392992"><ele>1138.0</ele><time>2026-04-27T12:51:29.149Z</time></trkpt><trkpt lat="39.8614296" lon="21.2395221"><ele>1138.0</ele><time>2026-04-27T12:51:30.15Z</time></trkpt><trkpt lat="39.8615295" lon="21.2397156"><ele>1138.0</ele><time>2026-04-27T12:51:31.149Z</time></trkpt><trkpt lat="39.8616351" lon="21.2398987"><ele>1138.0</ele><time>2026-04-27T12:51:32.149Z</time></trkpt><trkpt lat="39.8617656" lon="21.2400494"><ele>1134.3333333333333</ele><time>2026-04-27T12:51:33.15Z</time></trkpt><trkpt lat="39.8619221" lon="21.2401887"><ele>1130.6666666666667</ele><time>2026-04-27T12:51:34.149Z</time></trkpt><trkpt lat="39.8621182" lon="21.2403239"><ele>1127.0</ele><time>2026-04-27T12:51:35.149Z</time></trkpt><trkpt lat="39.8623496" lon="21.2404435"><ele>1130.0</ele><time>2026-04-27T12:51:36.149Z</time></trkpt><trkpt lat="39.8626171" lon="21.2405645"><ele>1133.0</ele><time>2026-04-27T12:51:37.149Z</time></trkpt><trkpt lat="39.8628689" lon="21.2406786"><ele>1125.0</ele><time>2026-04-27T12:51:38.149Z</time></trkpt><trkpt lat="39.8631071" lon="21.2408174"><ele>1117.0</ele><time>2026-04-27T12:51:39.15Z</time></trkpt><trkpt lat="39.86333" lon="21.2409811"><ele>1119.0</ele><time>2026-04-27T12:51:40.149Z</time></trkpt><trkpt lat="39.8635483" lon="21.2411546"><ele>1121.0</ele><time>2026-04-27T12:51:41.15Z</time></trkpt><trkpt lat="39.8637598" lon="21.2413336"><ele>1116.0</ele><time>2026-04-27T12:51:42.15Z</time></trkpt><trkpt lat="39.8639482" lon="21.2415205"><ele>1111.0</ele><time>2026-04-27T12:51:43.149Z</time></trkpt><trkpt lat="39.8641207" lon="21.2417061"><ele>1115.0</ele><time>2026-04-27T12:51:44.15Z</time></trkpt><trkpt lat="39.8642819" lon="21.2418517"><ele>1119.0</ele><time>2026-04-27T12:51:45.149Z</time></trkpt><trkpt lat="39.864468" lon="21.2419534"><ele>1123.0</ele><time>2026-04-27T12:51:46.15Z</time></trkpt><trkpt lat="39.864657" lon="21.2420717"><ele>1123.0</ele><time>2026-04-27T12:51:47.149Z</time></trkpt><trkpt lat="39.8648459" lon="21.2422117"><ele>1123.0</ele><time>2026-04-27T12:51:48.149Z</time></trkpt><trkpt lat="39.8650169" lon="21.2424049"><ele>1123.0</ele><time>2026-04-27T12:51:49.15Z</time></trkpt><trkpt lat="39.8652049" lon="21.242594"><ele>1126.5</ele><time>2026-04-27T12:51:50.15Z</time></trkpt><trkpt lat="39.8654141" lon="21.2427443"><ele>1130.0</ele><time>2026-04-27T12:51:51.15Z</time></trkpt><trkpt lat="39.8656161" lon="21.242898"><ele>1130.0</ele><time>2026-04-27T12:51:52.149Z</time></trkpt><trkpt lat="39.8658131" lon="21.243041"><ele>1130.0</ele><time>2026-04-27T12:51:53.15Z</time></trkpt><trkpt lat="39.8659984" lon="21.2431925"><ele>1130.0</ele><time>2026-04-27T12:51:54.15Z</time></trkpt><trkpt lat="39.8661689" lon="21.2433449"><ele>1132.3333333333335</ele><time>2026-04-27T12:51:55.15Z</time></trkpt><trkpt lat="39.8663245" lon="21.2435182"><ele>1134.6666666666667</ele><time>2026-04-27T12:51:56.149Z</time></trkpt><trkpt lat="39.8664576" lon="21.2437112"><ele>1137.0</ele><time>2026-04-27T12:51:57.15Z</time></trkpt><trkpt lat="39.8665692" lon="21.2439307"><ele>1134.3333333333333</ele><time>2026-04-27T12:51:58.149Z</time></trkpt><trkpt lat="39.8666606" lon="21.2441749"><ele>1131.6666666666665</ele><time>2026-04-27T12:51:59.15Z</time></trkpt><trkpt lat="39.8667364" lon="21.2444314"><ele>1129.0</ele><time>2026-04-27T12:52:00.15Z</time></trkpt><trkpt lat="39.8668082" lon="21.2446872"><ele>1138.6666666666665</ele><time>2026-04-27T12:52:01.149Z</time></trkpt><trkpt lat="39.8668716" lon="21.2449216"><ele>1148.3333333333333</ele><time>2026-04-27T12:52:02.15Z</time></trkpt><trkpt lat="39.8669219" lon="21.2451493"><ele>1158.0</ele><time>2026-04-27T12:52:03.15Z</time></trkpt><trkpt lat="39.8669631" lon="21.2453776"><ele>1158.0</ele><time>2026-04-27T12:52:04.15Z</time></trkpt><trkpt lat="39.8670152" lon="21.2455948"><ele>1158.0</ele><time>2026-04-27T12:52:05.149Z</time></trkpt><trkpt lat="39.8670712" lon="21.2458075"><ele>1158.0</ele><time>2026-04-27T12:52:06.149Z</time></trkpt><trkpt lat="39.8671332" lon="21.2460063"><ele>1153.3333333333333</ele><time>2026-04-27T12:52:07.15Z</time></trkpt><trkpt lat="39.8672121" lon="21.2461925"><ele>1148.6666666666665</ele><time>2026-04-27T12:52:08.15Z</time></trkpt><trkpt lat="39.8672936" lon="21.2463659"><ele>1144.0</ele><time>2026-04-27T12:52:09.15Z</time></trkpt><trkpt lat="39.8673914" lon="21.2465393"><ele>1143.0</ele><time>2026-04-27T12:52:10.15Z</time></trkpt><trkpt lat="39.8675192" lon="21.2467052"><ele>1142.0</ele><time>2026-04-27T12:52:11.149Z</time></trkpt><trkpt lat="39.8676843" lon="21.2468514"><ele>1141.0</ele><time>2026-04-27T12:52:12.15Z</time></trkpt><trkpt lat="39.8678552" lon="21.2469892"><ele>1141.0</ele><time>2026-04-27T12:52:13.149Z</time></trkpt><trkpt lat="39.8680288" lon="21.2471569"><ele>1141.0</ele><time>2026-04-27T12:52:14.15Z</time></trkpt><trkpt lat="39.8681945" lon="21.2473318"><ele>1141.0</ele><time>2026-04-27T12:52:15.15Z</time></trkpt><trkpt lat="39.8683759" lon="21.247516"><ele>1144.0</ele><time>2026-04-27T12:52:16.149Z</time></trkpt><trkpt lat="39.8685496" lon="21.2477094"><ele>1147.0</ele><time>2026-04-27T12:52:17.15Z</time></trkpt><trkpt lat="39.8687163" lon="21.2479306"><ele>1139.5</ele><time>2026-04-27T12:52:18.15Z</time></trkpt><trkpt lat="39.8688862" lon="21.2481719"><ele>1132.0</ele><time>2026-04-27T12:52:19.15Z</time></trkpt><trkpt lat="39.8690409" lon="21.248422"><ele>1132.0</ele><time>2026-04-27T12:52:20.15Z</time></trkpt><trkpt lat="39.8691857" lon="21.2486652"><ele>1132.0</ele><time>2026-04-27T12:52:21.149Z</time></trkpt><trkpt lat="39.8693235" lon="21.2488961"><ele>1138.0</ele><time>2026-04-27T12:52:22.149Z</time></trkpt><trkpt lat="39.8694437" lon="21.2491096"><ele>1144.0</ele><time>2026-04-27T12:52:23.15Z</time></trkpt><trkpt lat="39.8695554" lon="21.2493146"><ele>1150.0</ele><time>2026-04-27T12:52:24.149Z</time></trkpt><trkpt lat="39.8696717" lon="21.2495163"><ele>1150.0</ele><time>2026-04-27T12:52:25.15Z</time></trkpt><trkpt lat="39.8697946" lon="21.2497195"><ele>1150.0</ele><time>2026-04-27T12:52:26.15Z</time></trkpt><trkpt lat="39.8699232" lon="21.2498835"><ele>1150.0</ele><time>2026-04-27T12:52:27.149Z</time></trkpt><trkpt lat="39.8700885" lon="21.2500289"><ele>1142.0</ele><time>2026-04-27T12:52:28.149Z</time></trkpt><trkpt lat="39.8702896" lon="21.2501632"><ele>1134.0</ele><time>2026-04-27T12:52:29.15Z</time></trkpt><trkpt lat="39.8705008" lon="21.2502669"><ele>1134.0</ele><time>2026-04-27T12:52:30.149Z</time></trkpt><trkpt lat="39.8707089" lon="21.2503739"><ele>1134.0</ele><time>2026-04-27T12:52:31.15Z</time></trkpt><trkpt lat="39.8709038" lon="21.2504893"><ele>1134.0</ele><time>2026-04-27T12:52:32.149Z</time></trkpt><trkpt lat="39.8710975" lon="21.2505983"><ele>1126.6666666666667</ele><time>2026-04-27T12:52:33.149Z</time></trkpt><trkpt lat="39.8712714" lon="21.2506993"><ele>1119.3333333333335</ele><time>2026-04-27T12:52:34.149Z</time></trkpt><trkpt lat="39.8714205" lon="21.2507774"><ele>1112.0</ele><time>2026-04-27T12:52:35.149Z</time></trkpt><trkpt lat="39.8715494" lon="21.2508251"><ele>1112.0</ele><time>2026-04-27T12:52:36.15Z</time></trkpt><trkpt lat="39.8716873" lon="21.25083"><ele>1112.0</ele><time>2026-04-27T12:52:37.149Z</time></trkpt><trkpt lat="39.8718162" lon="21.2507886"><ele>1112.0</ele><time>2026-04-27T12:52:38.15Z</time></trkpt><trkpt lat="39.8719435" lon="21.2507139"><ele>1112.0</ele><time>2026-04-27T12:52:39.15Z</time></trkpt><trkpt lat="39.8720737" lon="21.2506324"><ele>1119.0</ele><time>2026-04-27T12:52:40.15Z</time></trkpt><trkpt lat="39.8722108" lon="21.2505555"><ele>1126.0</ele><time>2026-04-27T12:52:41.15Z</time></trkpt><trkpt lat="39.8723584" lon="21.250503"><ele>1133.0</ele><time>2026-04-27T12:52:42.15Z</time></trkpt><trkpt lat="39.8725082" lon="21.2504961"><ele>1129.3333333333335</ele><time>2026-04-27T12:52:43.149Z</time></trkpt><trkpt lat="39.8726596" lon="21.2505133"><ele>1125.6666666666667</ele><time>2026-04-27T12:52:44.149Z</time></trkpt><trkpt lat="39.8728083" lon="21.2505782"><ele>1122.0</ele><time>2026-04-27T12:52:45.149Z</time></trkpt><trkpt lat="39.8729594" lon="21.2506285"><ele>1122.0</ele><time>2026-04-27T12:52:46.15Z</time></trkpt><trkpt lat="39.8731086" lon="21.250649"><ele>1122.0</ele><time>2026-04-27T12:52:47.15Z</time></trkpt><trkpt lat="39.873257" lon="21.2506333"><ele>1122.0</ele><time>2026-04-27T12:52:48.15Z</time></trkpt><trkpt lat="39.8734038" lon="21.2505852"><ele>1116.6666666666667</ele><time>2026-04-27T12:52:49.149Z</time></trkpt><trkpt lat="39.8735699" lon="21.2504894"><ele>1111.3333333333335</ele><time>2026-04-27T12:52:50.149Z</time></trkpt><trkpt lat="39.8737293" lon="21.2504079"><ele>1106.0</ele><time>2026-04-27T12:52:51.15Z</time></trkpt><trkpt lat="39.8738869" lon="21.2503537"><ele>1106.0</ele><time>2026-04-27T12:52:52.149Z</time></trkpt><trkpt lat="39.8740454" lon="21.2503234"><ele>1106.0</ele><time>2026-04-27T12:52:53.15Z</time></trkpt><trkpt lat="39.8742042" lon="21.2502933"><ele>1106.0</ele><time>2026-04-27T12:52:54.149Z</time></trkpt><trkpt lat="39.8743578" lon="21.2502742"><ele>1099.3333333333335</ele><time>2026-04-27T12:52:55.15Z</time></trkpt><trkpt lat="39.8745095" lon="21.2502525"><ele>1092.6666666666667</ele><time>2026-04-27T12:52:56.15Z</time></trkpt><trkpt lat="39.874666" lon="21.2502066"><ele>1086.0</ele><time>2026-04-27T12:52:57.149Z</time></trkpt><trkpt lat="39.8748164" lon="21.2501357"><ele>1086.0</ele><time>2026-04-27T12:52:58.149Z</time></trkpt><trkpt lat="39.8749588" lon="21.2500541"><ele>1086.0</ele><time>2026-04-27T12:52:59.149Z</time></trkpt><trkpt lat="39.8750922" lon="21.2499756"><ele>1086.0</ele><time>2026-04-27T12:53:00.15Z</time></trkpt><trkpt lat="39.8752225" lon="21.2499003"><ele>1086.0</ele><time>2026-04-27T12:53:01.149Z</time></trkpt><trkpt lat="39.8753737" lon="21.249868"><ele>1083.6666666666667</ele><time>2026-04-27T12:53:02.149Z</time></trkpt><trkpt lat="39.8755319" lon="21.2498819"><ele>1081.3333333333335</ele><time>2026-04-27T12:53:03.149Z</time></trkpt><trkpt lat="39.8757136" lon="21.2499302"><ele>1079.0</ele><time>2026-04-27T12:53:04.15Z</time></trkpt><trkpt lat="39.8759157" lon="21.2500199"><ele>1083.0</ele><time>2026-04-27T12:53:05.15Z</time></trkpt><trkpt lat="39.8761356" lon="21.2500983"><ele>1087.0</ele><time>2026-04-27T12:53:06.15Z</time></trkpt><trkpt lat="39.8763471" lon="21.2501653"><ele>1091.0</ele><time>2026-04-27T12:53:07.15Z</time></trkpt><trkpt lat="39.8765494" lon="21.2502533"><ele>1091.0</ele><time>2026-04-27T12:53:08.149Z</time></trkpt><trkpt lat="39.8766937" lon="21.2503539"><ele>1091.0</ele><time>2026-04-27T12:53:09.149Z</time></trkpt><trkpt lat="39.8768279" lon="21.2504801"><ele>1091.0</ele><time>2026-04-27T12:53:10.15Z</time></trkpt><trkpt lat="39.8769579" lon="21.2506167"><ele>1086.0</ele><time>2026-04-27T12:53:11.149Z</time></trkpt><trkpt lat="39.8770803" lon="21.2507731"><ele>1081.0</ele><time>2026-04-27T12:53:12.149Z</time></trkpt><trkpt lat="39.8772113" lon="21.2508981"><ele>1076.0</ele><time>2026-04-27T12:53:13.149Z</time></trkpt><trkpt lat="39.8773369" lon="21.2509942"><ele>1076.0</ele><time>2026-04-27T12:53:14.15Z</time></trkpt><trkpt lat="39.8774502" lon="21.2510662"><ele>1076.0</ele><time>2026-04-27T12:53:15.15Z</time></trkpt><trkpt lat="39.8775593" lon="21.2511063"><ele>1076.0</ele><time>2026-04-27T12:53:16.149Z</time></trkpt><trkpt lat="39.8776675" lon="21.2510933"><ele>1076.0</ele><time>2026-04-27T12:53:17.149Z</time></trkpt><trkpt lat="39.8777709" lon="21.2510317"><ele>1075.0</ele><time>2026-04-27T12:53:18.149Z</time></trkpt><trkpt lat="39.8778595" lon="21.2509196"><ele>1074.0</ele><time>2026-04-27T12:53:19.149Z</time></trkpt><trkpt lat="39.8779391" lon="21.2507697"><ele>1073.0</ele><time>2026-04-27T12:53:20.15Z</time></trkpt><trkpt lat="39.8780249" lon="21.2505983"><ele>1072.0</ele><time>2026-04-27T12:53:21.149Z</time></trkpt><trkpt lat="39.8781291" lon="21.2504241"><ele>1072.0</ele><time>2026-04-27T12:53:22.149Z</time></trkpt><trkpt lat="39.8782472" lon="21.2502476"><ele>1072.0</ele><time>2026-04-27T12:53:23.15Z</time></trkpt><trkpt lat="39.8783677" lon="21.2500731"><ele>1072.0</ele><time>2026-04-27T12:53:24.149Z</time></trkpt><trkpt lat="39.8784814" lon="21.2499236"><ele>1073.5</ele><time>2026-04-27T12:53:25.149Z</time></trkpt><trkpt lat="39.8785874" lon="21.2497977"><ele>1075.0</ele><time>2026-04-27T12:53:26.149Z</time></trkpt><trkpt lat="39.878699" lon="21.2497022"><ele>1076.5</ele><time>2026-04-27T12:53:27.149Z</time></trkpt><trkpt lat="39.8788174" lon="21.249639"><ele>1078.0</ele><time>2026-04-27T12:53:28.149Z</time></trkpt><trkpt lat="39.8789395" lon="21.2496866"><ele>1078.0</ele><time>2026-04-27T12:53:29.149Z</time></trkpt><trkpt lat="39.879052" lon="21.2497527"><ele>1078.0</ele><time>2026-04-27T12:53:30.149Z</time></trkpt><trkpt lat="39.8791568" lon="21.2498682"><ele>1078.0</ele><time>2026-04-27T12:53:31.149Z</time></trkpt><trkpt lat="39.8792497" lon="21.2500015"><ele>1078.0</ele><time>2026-04-27T12:53:32.15Z</time></trkpt><trkpt lat="39.8793384" lon="21.2501289"><ele>1071.0</ele><time>2026-04-27T12:53:33.149Z</time></trkpt><trkpt lat="39.8794394" lon="21.2502212"><ele>1064.0</ele><time>2026-04-27T12:53:34.15Z</time></trkpt><trkpt lat="39.8795492" lon="21.2502633"><ele>1057.0</ele><time>2026-04-27T12:53:35.149Z</time></trkpt><trkpt lat="39.8796664" lon="21.2502726"><ele>1050.0</ele><time>2026-04-27T12:53:36.15Z</time></trkpt><trkpt lat="39.8797951" lon="21.2502332"><ele>1050.0</ele><time>2026-04-27T12:53:37.149Z</time></trkpt><trkpt lat="39.8799192" lon="21.2501737"><ele>1050.0</ele><time>2026-04-27T12:53:38.15Z</time></trkpt><trkpt lat="39.8800487" lon="21.2500931"><ele>1050.0</ele><time>2026-04-27T12:53:39.15Z</time></trkpt><trkpt lat="39.880181" lon="21.250006"><ele>1050.0</ele><time>2026-04-27T12:53:40.149Z</time></trkpt><trkpt lat="39.88032" lon="21.2499192"><ele>1046.6666666666667</ele><time>2026-04-27T12:53:41.15Z</time></trkpt><trkpt lat="39.8804684" lon="21.249848"><ele>1043.3333333333335</ele><time>2026-04-27T12:53:42.15Z</time></trkpt><trkpt lat="39.8806269" lon="21.2497891"><ele>1040.0</ele><time>2026-04-27T12:53:43.149Z</time></trkpt><trkpt lat="39.880778" lon="21.2497602"><ele>1039.0</ele><time>2026-04-27T12:53:44.149Z</time></trkpt><trkpt lat="39.8809206" lon="21.2497406"><ele>1038.0</ele><time>2026-04-27T12:53:45.15Z</time></trkpt><trkpt lat="39.8810612" lon="21.2497505"><ele>1037.0</ele><time>2026-04-27T12:53:46.15Z</time></trkpt><trkpt lat="39.8811989" lon="21.2497804"><ele>1036.0</ele><time>2026-04-27T12:53:47.149Z</time></trkpt><trkpt lat="39.8813361" lon="21.2498369"><ele>1036.0</ele><time>2026-04-27T12:53:48.149Z</time></trkpt><trkpt lat="39.881479" lon="21.2499032"><ele>1036.0</ele><time>2026-04-27T12:53:49.149Z</time></trkpt><trkpt lat="39.8816221" lon="21.2499769"><ele>1036.0</ele><time>2026-04-27T12:53:50.149Z</time></trkpt><trkpt lat="39.8817598" lon="21.2500558"><ele>1038.75</ele><time>2026-04-27T12:53:51.149Z</time></trkpt><trkpt lat="39.8818878" lon="21.2501499"><ele>1041.5</ele><time>2026-04-27T12:53:52.15Z</time></trkpt><trkpt lat="39.8820096" lon="21.2502551"><ele>1044.25</ele><time>2026-04-27T12:53:53.149Z</time></trkpt><trkpt lat="39.8821329" lon="21.2503659"><ele>1047.0</ele><time>2026-04-27T12:53:54.15Z</time></trkpt><trkpt lat="39.8822631" lon="21.2504681"><ele>1047.0</ele><time>2026-04-27T12:53:55.15Z</time></trkpt><trkpt lat="39.8824038" lon="21.2505551"><ele>1047.0</ele><time>2026-04-27T12:53:56.15Z</time></trkpt><trkpt lat="39.8825532" lon="21.2506433"><ele>1047.0</ele><time>2026-04-27T12:53:57.149Z</time></trkpt><trkpt lat="39.8826872" lon="21.250699"><ele>1041.75</ele><time>2026-04-27T12:53:58.15Z</time></trkpt><trkpt lat="39.8828223" lon="21.2507499"><ele>1036.5</ele><time>2026-04-27T12:53:59.15Z</time></trkpt><trkpt lat="39.8829609" lon="21.250765"><ele>1031.25</ele><time>2026-04-27T12:54:00.15Z</time></trkpt><trkpt lat="39.8830985" lon="21.2507533"><ele>1026.0</ele><time>2026-04-27T12:54:01.149Z</time></trkpt><trkpt lat="39.8832352" lon="21.2507428"><ele>1026.0</ele><time>2026-04-27T12:54:02.149Z</time></trkpt><trkpt lat="39.883365" lon="21.250758"><ele>1026.0</ele><time>2026-04-27T12:54:03.15Z</time></trkpt><trkpt lat="39.8835011" lon="21.2508182"><ele>1026.0</ele><time>2026-04-27T12:54:04.149Z</time></trkpt><trkpt lat="39.8836272" lon="21.2509024"><ele>1026.0</ele><time>2026-04-27T12:54:05.149Z</time></trkpt><trkpt lat="39.8837411" lon="21.251094"><ele>1031.3333333333333</ele><time>2026-04-27T12:54:06.15Z</time></trkpt><trkpt lat="39.8838385" lon="21.2512736"><ele>1036.6666666666665</ele><time>2026-04-27T12:54:07.15Z</time></trkpt><trkpt lat="39.8837649" lon="21.2515073"><ele>1042.0</ele><time>2026-04-27T12:54:08.15Z</time></trkpt><trkpt lat="39.8837628" lon="21.2517081"><ele>1042.0</ele><time>2026-04-27T12:54:09.15Z</time></trkpt><trkpt lat="39.8837311" lon="21.251883"><ele>1042.0</ele><time>2026-04-27T12:54:10.15Z</time></trkpt><trkpt lat="39.883707" lon="21.2520456"><ele>1042.0</ele><time>2026-04-27T12:54:11.149Z</time></trkpt><trkpt lat="39.8837013" lon="21.2522115"><ele>1042.0</ele><time>2026-04-27T12:54:12.15Z</time></trkpt><trkpt lat="39.8837352" lon="21.2523451"><ele>1037.75</ele><time>2026-04-27T12:54:13.15Z</time></trkpt><trkpt lat="39.8838036" lon="21.252455"><ele>1033.5</ele><time>2026-04-27T12:54:14.15Z</time></trkpt><trkpt lat="39.8838997" lon="21.2525215"><ele>1029.25</ele><time>2026-04-27T12:54:15.149Z</time></trkpt><trkpt lat="39.8840504" lon="21.2525366"><ele>1025.0</ele><time>2026-04-27T12:54:16.15Z</time></trkpt><trkpt lat="39.8842385" lon="21.2525097"><ele>1026.0</ele><time>2026-04-27T12:54:17.149Z</time></trkpt><trkpt lat="39.8844736" lon="21.2524793"><ele>1027.0</ele><time>2026-04-27T12:54:18.149Z</time></trkpt><trkpt lat="39.8847392" lon="21.2524476"><ele>1027.0</ele><time>2026-04-27T12:54:19.15Z</time></trkpt><trkpt lat="39.8850127" lon="21.2524117"><ele>1027.0</ele><time>2026-04-27T12:54:20.149Z</time></trkpt><trkpt lat="39.8853189" lon="21.2523663"><ele>1025.0</ele><time>2026-04-27T12:54:21.15Z</time></trkpt><trkpt lat="39.8856136" lon="21.2523278"><ele>1023.0</ele><time>2026-04-27T12:54:22.15Z</time></trkpt><trkpt lat="39.8858539" lon="21.2522844"><ele>1023.6666666666667</ele><time>2026-04-27T12:54:23.149Z</time></trkpt><trkpt lat="39.886027" lon="21.2522577"><ele>1024.3333333333335</ele><time>2026-04-27T12:54:24.149Z</time></trkpt><trkpt lat="39.8862009" lon="21.2522583"><ele>1025.0</ele><time>2026-04-27T12:54:25.149Z</time></trkpt><trkpt lat="39.8863964" lon="21.2523444"><ele>1025.0</ele><time>2026-04-27T12:54:26.149Z</time></trkpt><trkpt lat="39.8865801" lon="21.252402"><ele>1025.0</ele><time>2026-04-27T12:54:27.15Z</time></trkpt><trkpt lat="39.8867561" lon="21.2524425"><ele>1025.0</ele><time>2026-04-27T12:54:28.149Z</time></trkpt><trkpt lat="39.8869357" lon="21.252456"><ele>1023.6666666666667</ele><time>2026-04-27T12:54:29.15Z</time></trkpt><trkpt lat="39.8871181" lon="21.2524546"><ele>1022.3333333333333</ele><time>2026-04-27T12:54:30.15Z</time></trkpt><trkpt lat="39.8873085" lon="21.2524213"><ele>1021.0</ele><time>2026-04-27T12:54:31.149Z</time></trkpt><trkpt lat="39.8875021" lon="21.2523732"><ele>1021.6666666666666</ele><time>2026-04-27T12:54:32.15Z</time></trkpt><trkpt lat="39.8876863" lon="21.252308"><ele>1022.3333333333333</ele><time>2026-04-27T12:54:33.149Z</time></trkpt><trkpt lat="39.8878717" lon="21.2522405"><ele>1023.0</ele><time>2026-04-27T12:54:34.15Z</time></trkpt><trkpt lat="39.8880597" lon="21.2521904"><ele>1025.6666666666667</ele><time>2026-04-27T12:54:35.15Z</time></trkpt><trkpt lat="39.8882592" lon="21.2521641"><ele>1028.3333333333335</ele><time>2026-04-27T12:54:36.149Z</time></trkpt><trkpt lat="39.8884922" lon="21.2521556"><ele>1031.0</ele><time>2026-04-27T12:54:37.15Z</time></trkpt><trkpt lat="39.8887374" lon="21.2521773"><ele>1031.0</ele><time>2026-04-27T12:54:38.149Z</time></trkpt><trkpt lat="39.8889686" lon="21.2522265"><ele>1031.0</ele><time>2026-04-27T12:54:39.149Z</time></trkpt><trkpt lat="39.8892042" lon="21.2522942"><ele>1025.0</ele><time>2026-04-27T12:54:40.149Z</time></trkpt><trkpt lat="39.8894203" lon="21.252396"><ele>1019.0</ele><time>2026-04-27T12:54:41.149Z</time></trkpt><trkpt lat="39.8896219" lon="21.2525668"><ele>1019.0</ele><time>2026-04-27T12:54:42.15Z</time></trkpt><trkpt lat="39.8898245" lon="21.2527634"><ele>1019.0</ele><time>2026-04-27T12:54:43.149Z</time></trkpt><trkpt lat="39.8900071" lon="21.2529826"><ele>1013.5</ele><time>2026-04-27T12:54:44.149Z</time></trkpt><trkpt lat="39.8901741" lon="21.2531948"><ele>1008.0</ele><time>2026-04-27T12:54:45.15Z</time></trkpt><trkpt lat="39.8903403" lon="21.2533927"><ele>1008.0</ele><time>2026-04-27T12:54:46.149Z</time></trkpt><trkpt lat="39.8904958" lon="21.253566"><ele>1008.0</ele><time>2026-04-27T12:54:47.15Z</time></trkpt><trkpt lat="39.8906248" lon="21.2536955"><ele>1008.0</ele><time>2026-04-27T12:54:48.149Z</time></trkpt><trkpt lat="39.8907368" lon="21.2538098"><ele>1008.0</ele><time>2026-04-27T12:54:49.15Z</time></trkpt><trkpt lat="39.8908497" lon="21.2538816"><ele>1008.0</ele><time>2026-04-27T12:54:50.15Z</time></trkpt><trkpt lat="39.8909679" lon="21.2539115"><ele>1008.0</ele><time>2026-04-27T12:54:51.149Z</time></trkpt><trkpt lat="39.8910784" lon="21.2538906"><ele>1008.0</ele><time>2026-04-27T12:54:52.15Z</time></trkpt><trkpt lat="39.8911726" lon="21.2537972"><ele>1008.25</ele><time>2026-04-27T12:54:53.15Z</time></trkpt><trkpt lat="39.8912545" lon="21.2536513"><ele>1008.5</ele><time>2026-04-27T12:54:54.149Z</time></trkpt><trkpt lat="39.8913042" lon="21.2534695"><ele>1008.75</ele><time>2026-04-27T12:54:55.149Z</time></trkpt><trkpt lat="39.8913503" lon="21.2532676"><ele>1009.0</ele><time>2026-04-27T12:54:56.149Z</time></trkpt><trkpt lat="39.8914024" lon="21.2530941"><ele>1009.0</ele><time>2026-04-27T12:54:57.15Z</time></trkpt><trkpt lat="39.8914902" lon="21.2529607"><ele>1009.0</ele><time>2026-04-27T12:54:58.15Z</time></trkpt><trkpt lat="39.8915864" lon="21.2528476"><ele>1009.0</ele><time>2026-04-27T12:54:59.15Z</time></trkpt><trkpt lat="39.891692" lon="21.2527805"><ele>1009.0</ele><time>2026-04-27T12:55:00.149Z</time></trkpt><trkpt lat="39.8918206" lon="21.2528172"><ele>1006.25</ele><time>2026-04-27T12:55:01.15Z</time></trkpt><trkpt lat="39.8919319" lon="21.2528715"><ele>1003.5</ele><time>2026-04-27T12:55:02.149Z</time></trkpt><trkpt lat="39.8920165" lon="21.2529746"><ele>1000.75</ele><time>2026-04-27T12:55:03.15Z</time></trkpt><trkpt lat="39.8920837" lon="21.253116"><ele>998.0</ele><time>2026-04-27T12:55:04.149Z</time></trkpt><trkpt lat="39.8921227" lon="21.2532922"><ele>997.0</ele><time>2026-04-27T12:55:05.15Z</time></trkpt><trkpt lat="39.8921485" lon="21.2534762"><ele>996.0</ele><time>2026-04-27T12:55:06.149Z</time></trkpt><trkpt lat="39.8921909" lon="21.2536659"><ele>995.0</ele><time>2026-04-27T12:55:07.15Z</time></trkpt><trkpt lat="39.8922418" lon="21.2538438"><ele>994.0</ele><time>2026-04-27T12:55:08.15Z</time></trkpt><trkpt lat="39.8923056" lon="21.2540083"><ele>996.0</ele><time>2026-04-27T12:55:09.149Z</time></trkpt><trkpt lat="39.8924008" lon="21.2541433"><ele>998.0</ele><time>2026-04-27T12:55:10.15Z</time></trkpt><trkpt lat="39.8924989" lon="21.2542875"><ele>1000.0</ele><time>2026-04-27T12:55:11.149Z</time></trkpt><trkpt lat="39.8926711" lon="21.2543149"><ele>1000.0</ele><time>2026-04-27T12:55:12.149Z</time></trkpt><trkpt lat="39.8928307" lon="21.2543755"><ele>1000.0</ele><time>2026-04-27T12:55:13.15Z</time></trkpt><trkpt lat="39.8929888" lon="21.2544246"><ele>1000.0</ele><time>2026-04-27T12:55:14.149Z</time></trkpt><trkpt lat="39.8931315" lon="21.2544935"><ele>1000.0</ele><time>2026-04-27T12:55:15.149Z</time></trkpt><trkpt lat="39.8932329" lon="21.254607"><ele>1000.0</ele><time>2026-04-27T12:55:16.149Z</time></trkpt><trkpt lat="39.8933188" lon="21.2547735"><ele>1000.0</ele><time>2026-04-27T12:55:17.149Z</time></trkpt><trkpt lat="39.8933776" lon="21.2550173"><ele>996.3333333333333</ele><time>2026-04-27T12:55:18.149Z</time></trkpt><trkpt lat="39.8934438" lon="21.2552743"><ele>992.6666666666667</ele><time>2026-04-27T12:55:19.15Z</time></trkpt><trkpt lat="39.8935178" lon="21.2555187"><ele>989.0</ele><time>2026-04-27T12:55:20.149Z</time></trkpt><trkpt lat="39.8935857" lon="21.255761"><ele>989.0</ele><time>2026-04-27T12:55:21.149Z</time></trkpt><trkpt lat="39.8936218" lon="21.2560053"><ele>989.0</ele><time>2026-04-27T12:55:22.149Z</time></trkpt><trkpt lat="39.8936179" lon="21.2562358"><ele>989.0</ele><time>2026-04-27T12:55:23.149Z</time></trkpt><trkpt lat="39.8936067" lon="21.2564715"><ele>986.0</ele><time>2026-04-27T12:55:24.15Z</time></trkpt><trkpt lat="39.8936054" lon="21.2566997"><ele>983.0</ele><time>2026-04-27T12:55:25.149Z</time></trkpt><trkpt lat="39.8936248" lon="21.2569281"><ele>980.0</ele><time>2026-04-27T12:55:26.15Z</time></trkpt><trkpt lat="39.8936708" lon="21.2571637"><ele>975.3333333333334</ele><time>2026-04-27T12:55:27.149Z</time></trkpt><trkpt lat="39.8937424" lon="21.2573918"><ele>970.6666666666667</ele><time>2026-04-27T12:55:28.15Z</time></trkpt><trkpt lat="39.8938262" lon="21.2576118"><ele>966.0</ele><time>2026-04-27T12:55:29.15Z</time></trkpt><trkpt lat="39.8939189" lon="21.2578328"><ele>966.0</ele><time>2026-04-27T12:55:30.149Z</time></trkpt><trkpt lat="39.8940302" lon="21.2580702"><ele>966.0</ele><time>2026-04-27T12:55:31.15Z</time></trkpt><trkpt lat="39.8941717" lon="21.2583234"><ele>968.5</ele><time>2026-04-27T12:55:32.15Z</time></trkpt><trkpt lat="39.8943578" lon="21.2585954"><ele>971.0</ele><time>2026-04-27T12:55:33.15Z</time></trkpt><trkpt lat="39.8945794" lon="21.2588693"><ele>972.5</ele><time>2026-04-27T12:55:34.15Z</time></trkpt><trkpt lat="39.8948235" lon="21.2591533"><ele>974.0</ele><time>2026-04-27T12:55:35.149Z</time></trkpt><trkpt lat="39.8950992" lon="21.2594485"><ele>974.0</ele><time>2026-04-27T12:55:36.15Z</time></trkpt><trkpt lat="39.8953784" lon="21.2597407"><ele>974.0</ele><time>2026-04-27T12:55:37.15Z</time></trkpt><trkpt lat="39.895656" lon="21.2600114"><ele>976.5</ele><time>2026-04-27T12:55:38.15Z</time></trkpt><trkpt lat="39.895889" lon="21.2602513"><ele>979.0</ele><time>2026-04-27T12:55:39.149Z</time></trkpt><trkpt lat="39.8960976" lon="21.2604744"><ele>973.3333333333333</ele><time>2026-04-27T12:55:40.149Z</time></trkpt><trkpt lat="39.8962704" lon="21.2606787"><ele>967.6666666666667</ele><time>2026-04-27T12:55:41.149Z</time></trkpt><trkpt lat="39.896416" lon="21.2608717"><ele>962.0</ele><time>2026-04-27T12:55:42.149Z</time></trkpt><trkpt lat="39.8965315" lon="21.2610749"><ele>962.0</ele><time>2026-04-27T12:55:43.15Z</time></trkpt><trkpt lat="39.8966283" lon="21.2612864"><ele>962.0</ele><time>2026-04-27T12:55:44.149Z</time></trkpt><trkpt lat="39.8966967" lon="21.2615006"><ele>962.0</ele><time>2026-04-27T12:55:45.15Z</time></trkpt><trkpt lat="39.8967202" lon="21.2617072"><ele>959.6666666666667</ele><time>2026-04-27T12:55:46.15Z</time></trkpt><trkpt lat="39.8967325" lon="21.2619164"><ele>957.3333333333333</ele><time>2026-04-27T12:55:47.15Z</time></trkpt><trkpt lat="39.8967531" lon="21.2621252"><ele>955.0</ele><time>2026-04-27T12:55:48.149Z</time></trkpt><trkpt lat="39.8967924" lon="21.2623195"><ele>955.0</ele><time>2026-04-27T12:55:49.15Z</time></trkpt><trkpt lat="39.8968644" lon="21.2624924"><ele>955.0</ele><time>2026-04-27T12:55:50.149Z</time></trkpt><trkpt lat="39.8969586" lon="21.2626427"><ele>955.0</ele><time>2026-04-27T12:55:51.15Z</time></trkpt><trkpt lat="39.8970994" lon="21.262768"><ele>955.0</ele><time>2026-04-27T12:55:52.149Z</time></trkpt><trkpt lat="39.8972893" lon="21.2628618"><ele>955.0</ele><time>2026-04-27T12:55:53.15Z</time></trkpt><trkpt lat="39.8975143" lon="21.262942"><ele>955.0</ele><time>2026-04-27T12:55:54.15Z</time></trkpt><trkpt lat="39.8977488" lon="21.2630191"><ele>958.0</ele><time>2026-04-27T12:55:55.149Z</time></trkpt><trkpt lat="39.8979997" lon="21.2631117"><ele>961.0</ele><time>2026-04-27T12:55:56.15Z</time></trkpt><trkpt lat="39.8982227" lon="21.2631973"><ele>957.3333333333333</ele><time>2026-04-27T12:55:57.149Z</time></trkpt><trkpt lat="39.8984373" lon="21.2632928"><ele>953.6666666666667</ele><time>2026-04-27T12:55:58.15Z</time></trkpt><trkpt lat="39.8986399" lon="21.263385"><ele>950.0</ele><time>2026-04-27T12:55:59.15Z</time></trkpt><trkpt lat="39.8988393" lon="21.2634703"><ele>950.0</ele><time>2026-04-27T12:56:00.149Z</time></trkpt><trkpt lat="39.8990256" lon="21.2635453"><ele>950.0</ele><time>2026-04-27T12:56:01.149Z</time></trkpt><trkpt lat="39.8992011" lon="21.2636391"><ele>950.0</ele><time>2026-04-27T12:56:02.149Z</time></trkpt><trkpt lat="39.8993676" lon="21.2637606"><ele>951.3333333333334</ele><time>2026-04-27T12:56:03.149Z</time></trkpt><trkpt lat="39.899509" lon="21.2639246"><ele>952.6666666666667</ele><time>2026-04-27T12:56:04.15Z</time></trkpt><trkpt lat="39.8996406" lon="21.2641159"><ele>954.0</ele><time>2026-04-27T12:56:05.149Z</time></trkpt><trkpt lat="39.8996971" lon="21.2644802"><ele>945.0</ele><time>2026-04-27T12:56:06.15Z</time></trkpt><trkpt lat="39.8997862" lon="21.2648281"><ele>936.0</ele><time>2026-04-27T12:56:07.15Z</time></trkpt><trkpt lat="39.8998736" lon="21.2651622"><ele>936.0</ele><time>2026-04-27T12:56:08.149Z</time></trkpt><trkpt lat="39.8999467" lon="21.2655135"><ele>936.0</ele><time>2026-04-27T12:56:09.15Z</time></trkpt><trkpt lat="39.9000334" lon="21.2658199"><ele>939.5</ele><time>2026-04-27T12:56:10.15Z</time></trkpt><trkpt lat="39.9001083" lon="21.2661246"><ele>943.0</ele><time>2026-04-27T12:56:11.15Z</time></trkpt><trkpt lat="39.9001819" lon="21.2664043"><ele>939.5</ele><time>2026-04-27T12:56:12.149Z</time></trkpt><trkpt lat="39.9002558" lon="21.2666826"><ele>936.0</ele><time>2026-04-27T12:56:13.149Z</time></trkpt><trkpt lat="39.9003306" lon="21.2669611"><ele>936.0</ele><time>2026-04-27T12:56:14.149Z</time></trkpt><trkpt lat="39.9004174" lon="21.2672368"><ele>936.0</ele><time>2026-04-27T12:56:15.149Z</time></trkpt><trkpt lat="39.9005119" lon="21.2675052"><ele>932.6666666666667</ele><time>2026-04-27T12:56:16.15Z</time></trkpt><trkpt lat="39.9006137" lon="21.2677616"><ele>929.3333333333334</ele><time>2026-04-27T12:56:17.149Z</time></trkpt><trkpt lat="39.9007161" lon="21.268013"><ele>926.0</ele><time>2026-04-27T12:56:18.15Z</time></trkpt><trkpt lat="39.900837" lon="21.2682639"><ele>917.5</ele><time>2026-04-27T12:56:19.15Z</time></trkpt><trkpt lat="39.9009672" lon="21.2685183"><ele>909.0</ele><time>2026-04-27T12:56:20.149Z</time></trkpt><trkpt lat="39.9011097" lon="21.2687753"><ele>907.0</ele><time>2026-04-27T12:56:21.149Z</time></trkpt><trkpt lat="39.9012461" lon="21.2690278"><ele>905.0</ele><time>2026-04-27T12:56:22.149Z</time></trkpt><trkpt lat="39.9013714" lon="21.269265"><ele>905.0</ele><time>2026-04-27T12:56:23.15Z</time></trkpt><trkpt lat="39.9014946" lon="21.2694914"><ele>905.0</ele><time>2026-04-27T12:56:24.15Z</time></trkpt><trkpt lat="39.9016088" lon="21.2697209"><ele>905.0</ele><time>2026-04-27T12:56:25.15Z</time></trkpt><trkpt lat="39.9017202" lon="21.2699408"><ele>903.3333333333334</ele><time>2026-04-27T12:56:26.15Z</time></trkpt><trkpt lat="39.9018128" lon="21.2701569"><ele>901.6666666666667</ele><time>2026-04-27T12:56:27.149Z</time></trkpt><trkpt lat="39.9018907" lon="21.270368"><ele>900.0</ele><time>2026-04-27T12:56:28.15Z</time></trkpt><trkpt lat="39.9019628" lon="21.2705644"><ele>900.0</ele><time>2026-04-27T12:56:29.15Z</time></trkpt><trkpt lat="39.9020096" lon="21.2707797"><ele>900.0</ele><time>2026-04-27T12:56:30.15Z</time></trkpt><trkpt lat="39.9020367" lon="21.2709974"><ele>900.0</ele><time>2026-04-27T12:56:31.149Z</time></trkpt><trkpt lat="39.9020307" lon="21.2712115"><ele>900.0</ele><time>2026-04-27T12:56:32.15Z</time></trkpt><trkpt lat="39.9020023" lon="21.2714341"><ele>900.0</ele><time>2026-04-27T12:56:33.149Z</time></trkpt><trkpt lat="39.9019528" lon="21.2716619"><ele>900.0</ele><time>2026-04-27T12:56:34.15Z</time></trkpt><trkpt lat="39.901887" lon="21.2719132"><ele>900.3333333333333</ele><time>2026-04-27T12:56:35.149Z</time></trkpt><trkpt lat="39.9018183" lon="21.2721849"><ele>900.6666666666666</ele><time>2026-04-27T12:56:36.15Z</time></trkpt><trkpt lat="39.901747" lon="21.2724658"><ele>901.0</ele><time>2026-04-27T12:56:37.15Z</time></trkpt><trkpt lat="39.9016833" lon="21.2727626"><ele>901.0</ele><time>2026-04-27T12:56:38.149Z</time></trkpt><trkpt lat="39.9016301" lon="21.2730817"><ele>901.0</ele><time>2026-04-27T12:56:39.149Z</time></trkpt><trkpt lat="39.9015825" lon="21.2733998"><ele>901.3333333333333</ele><time>2026-04-27T12:56:40.15Z</time></trkpt><trkpt lat="39.9015543" lon="21.2736934"><ele>901.6666666666667</ele><time>2026-04-27T12:56:41.149Z</time></trkpt><trkpt lat="39.9015235" lon="21.2739701"><ele>902.0</ele><time>2026-04-27T12:56:42.15Z</time></trkpt><trkpt lat="39.9015001" lon="21.2742505"><ele>903.0</ele><time>2026-04-27T12:56:43.15Z</time></trkpt><trkpt lat="39.9014783" lon="21.274526"><ele>904.0</ele><time>2026-04-27T12:56:44.15Z</time></trkpt><trkpt lat="39.9014568" lon="21.2748034"><ele>905.0</ele><time>2026-04-27T12:56:45.149Z</time></trkpt><trkpt lat="39.9014319" lon="21.2750758"><ele>905.3333333333334</ele><time>2026-04-27T12:56:46.149Z</time></trkpt><trkpt lat="39.9014053" lon="21.2753447"><ele>905.6666666666667</ele><time>2026-04-27T12:56:47.149Z</time></trkpt><trkpt lat="39.9013774" lon="21.2756101"><ele>906.0</ele><time>2026-04-27T12:56:48.15Z</time></trkpt><trkpt lat="39.9013475" lon="21.2758675"><ele>908.3333333333333</ele><time>2026-04-27T12:56:49.15Z</time></trkpt><trkpt lat="39.9013182" lon="21.2761199"><ele>910.6666666666666</ele><time>2026-04-27T12:56:50.15Z</time></trkpt><trkpt lat="39.9012875" lon="21.2763614"><ele>913.0</ele><time>2026-04-27T12:56:51.149Z</time></trkpt><trkpt lat="39.9012593" lon="21.2765872"><ele>917.3333333333333</ele><time>2026-04-27T12:56:52.149Z</time></trkpt><trkpt lat="39.9012311" lon="21.276808"><ele>921.6666666666667</ele><time>2026-04-27T12:56:53.15Z</time></trkpt><trkpt lat="39.9012055" lon="21.2770232"><ele>926.0</ele><time>2026-04-27T12:56:54.15Z</time></trkpt><trkpt lat="39.9011883" lon="21.2772197"><ele>929.0</ele><time>2026-04-27T12:56:55.15Z</time></trkpt><trkpt lat="39.9011627" lon="21.2774103"><ele>932.0</ele><time>2026-04-27T12:56:56.149Z</time></trkpt><trkpt lat="39.9011429" lon="21.2775922"><ele>935.0</ele><time>2026-04-27T12:56:57.15Z</time></trkpt><trkpt lat="39.9011254" lon="21.277758"><ele>938.0</ele><time>2026-04-27T12:56:58.15Z</time></trkpt><trkpt lat="39.9011119" lon="21.2779149"><ele>938.0</ele><time>2026-04-27T12:56:59.149Z</time></trkpt><trkpt lat="39.9010914" lon="21.2780981"><ele>938.0</ele><time>2026-04-27T12:57:00.149Z</time></trkpt><trkpt lat="39.9010751" lon="21.2782796"><ele>938.0</ele><time>2026-04-27T12:57:01.149Z</time></trkpt><trkpt lat="39.9010527" lon="21.27846"><ele>938.0</ele><time>2026-04-27T12:57:02.15Z</time></trkpt><trkpt lat="39.9010334" lon="21.2786401"><ele>939.25</ele><time>2026-04-27T12:57:03.149Z</time></trkpt><trkpt lat="39.9010082" lon="21.2788197"><ele>940.5</ele><time>2026-04-27T12:57:04.149Z</time></trkpt><trkpt lat="39.9009767" lon="21.2790058"><ele>941.75</ele><time>2026-04-27T12:57:05.149Z</time></trkpt><trkpt lat="39.9009276" lon="21.279198"><ele>943.0</ele><time>2026-04-27T12:57:06.149Z</time></trkpt><trkpt lat="39.9008638" lon="21.2793794"><ele>943.6666666666666</ele><time>2026-04-27T12:57:07.15Z</time></trkpt><trkpt lat="39.9007676" lon="21.2795586"><ele>944.3333333333333</ele><time>2026-04-27T12:57:08.15Z</time></trkpt><trkpt lat="39.9006467" lon="21.2797285"><ele>945.0</ele><time>2026-04-27T12:57:09.15Z</time></trkpt><trkpt lat="39.9004808" lon="21.2798533"><ele>943.0</ele><time>2026-04-27T12:57:10.15Z</time></trkpt><trkpt lat="39.9003084" lon="21.2799818"><ele>941.0</ele><time>2026-04-27T12:57:11.15Z</time></trkpt><trkpt lat="39.900144" lon="21.2801052"><ele>939.0</ele><time>2026-04-27T12:57:12.15Z</time></trkpt><trkpt lat="39.8999918" lon="21.2802218"><ele>938.6666666666667</ele><time>2026-04-27T12:57:13.15Z</time></trkpt><trkpt lat="39.8998416" lon="21.280336"><ele>938.3333333333334</ele><time>2026-04-27T12:57:14.149Z</time></trkpt><trkpt lat="39.8996892" lon="21.2804684"><ele>938.0</ele><time>2026-04-27T12:57:15.15Z</time></trkpt><trkpt lat="39.8995525" lon="21.2806208"><ele>936.0</ele><time>2026-04-27T12:57:16.15Z</time></trkpt><trkpt lat="39.8994324" lon="21.280801"><ele>934.0</ele><time>2026-04-27T12:57:17.149Z</time></trkpt><trkpt lat="39.8993478" lon="21.2810089"><ele>932.0</ele><time>2026-04-27T12:57:18.15Z</time></trkpt><trkpt lat="39.8992845" lon="21.2812572"><ele>931.0</ele><time>2026-04-27T12:57:19.15Z</time></trkpt><trkpt lat="39.8992521" lon="21.2815319"><ele>930.0</ele><time>2026-04-27T12:57:20.149Z</time></trkpt><trkpt lat="39.8992571" lon="21.2818109"><ele>929.0</ele><time>2026-04-27T12:57:21.15Z</time></trkpt><trkpt lat="39.8992775" lon="21.282095"><ele>930.6666666666667</ele><time>2026-04-27T12:57:22.15Z</time></trkpt><trkpt lat="39.8993043" lon="21.2823812"><ele>932.3333333333333</ele><time>2026-04-27T12:57:23.149Z</time></trkpt><trkpt lat="39.8993318" lon="21.2826598"><ele>934.0</ele><time>2026-04-27T12:57:24.15Z</time></trkpt><trkpt lat="39.8993596" lon="21.2829298"><ele>934.6666666666666</ele><time>2026-04-27T12:57:25.149Z</time></trkpt><trkpt lat="39.8993894" lon="21.2831795"><ele>935.3333333333333</ele><time>2026-04-27T12:57:26.15Z</time></trkpt><trkpt lat="39.8994179" lon="21.2834342"><ele>936.0</ele><time>2026-04-27T12:57:27.149Z</time></trkpt><trkpt lat="39.8994485" lon="21.2836925"><ele>937.6666666666667</ele><time>2026-04-27T12:57:28.15Z</time></trkpt><trkpt lat="39.8994707" lon="21.2839451"><ele>939.3333333333334</ele><time>2026-04-27T12:57:29.149Z</time></trkpt><trkpt lat="39.8994852" lon="21.2841982"><ele>941.0</ele><time>2026-04-27T12:57:30.15Z</time></trkpt><trkpt lat="39.899486" lon="21.2844607"><ele>941.0</ele><time>2026-04-27T12:57:31.15Z</time></trkpt><trkpt lat="39.8994706" lon="21.2847182"><ele>941.0</ele><time>2026-04-27T12:57:32.149Z</time></trkpt><trkpt lat="39.8994412" lon="21.2849751"><ele>941.0</ele><time>2026-04-27T12:57:33.149Z</time></trkpt><trkpt lat="39.899411" lon="21.2852284"><ele>941.6666666666667</ele><time>2026-04-27T12:57:34.149Z</time></trkpt><trkpt lat="39.8994208" lon="21.2854915"><ele>942.3333333333333</ele><time>2026-04-27T12:57:35.15Z</time></trkpt><trkpt lat="39.8994647" lon="21.2857964"><ele>943.0</ele><time>2026-04-27T12:57:36.149Z</time></trkpt><trkpt lat="39.8995245" lon="21.2861247"><ele>938.5</ele><time>2026-04-27T12:57:37.149Z</time></trkpt><trkpt lat="39.8995999" lon="21.2864938"><ele>934.0</ele><time>2026-04-27T12:57:38.15Z</time></trkpt><trkpt lat="39.8996883" lon="21.2868926"><ele>929.0</ele><time>2026-04-27T12:57:39.15Z</time></trkpt><trkpt lat="39.8997898" lon="21.2872996"><ele>924.0</ele><time>2026-04-27T12:57:40.15Z</time></trkpt><trkpt lat="39.8998956" lon="21.2876938"><ele>924.0</ele><time>2026-04-27T12:57:41.149Z</time></trkpt><trkpt lat="39.9000084" lon="21.2880771"><ele>924.0</ele><time>2026-04-27T12:57:42.15Z</time></trkpt><trkpt lat="39.9001274" lon="21.2884432"><ele>917.5</ele><time>2026-04-27T12:57:43.149Z</time></trkpt><trkpt lat="39.9002512" lon="21.2888009"><ele>911.0</ele><time>2026-04-27T12:57:44.149Z</time></trkpt><trkpt lat="39.9003817" lon="21.2891565"><ele>909.5</ele><time>2026-04-27T12:57:45.15Z</time></trkpt><trkpt lat="39.9004966" lon="21.2894862"><ele>908.0</ele><time>2026-04-27T12:57:46.149Z</time></trkpt><trkpt lat="39.900592" lon="21.2897762"><ele>907.6666666666667</ele><time>2026-04-27T12:57:47.149Z</time></trkpt><trkpt lat="39.9006702" lon="21.2900318"><ele>907.3333333333333</ele><time>2026-04-27T12:57:48.149Z</time></trkpt><trkpt lat="39.9007161" lon="21.2902755"><ele>907.0</ele><time>2026-04-27T12:57:49.15Z</time></trkpt><trkpt lat="39.9007281" lon="21.2905217"><ele>909.5</ele><time>2026-04-27T12:57:50.15Z</time></trkpt><trkpt lat="39.9006566" lon="21.290813"><ele>912.0</ele><time>2026-04-27T12:57:51.15Z</time></trkpt><trkpt lat="39.900597" lon="21.2911038"><ele>912.0</ele><time>2026-04-27T12:57:52.15Z</time></trkpt><trkpt lat="39.9005274" lon="21.2913869"><ele>912.0</ele><time>2026-04-27T12:57:53.149Z</time></trkpt><trkpt lat="39.9004685" lon="21.2916455"><ele>912.0</ele><time>2026-04-27T12:57:54.149Z</time></trkpt><trkpt lat="39.9004148" lon="21.2918766"><ele>915.0</ele><time>2026-04-27T12:57:55.15Z</time></trkpt><trkpt lat="39.9003814" lon="21.2920918"><ele>918.0</ele><time>2026-04-27T12:57:56.15Z</time></trkpt><trkpt lat="39.9003787" lon="21.2923124"><ele>921.0</ele><time>2026-04-27T12:57:57.149Z</time></trkpt><trkpt lat="39.9004093" lon="21.2925237"><ele>922.3333333333333</ele><time>2026-04-27T12:57:58.15Z</time></trkpt><trkpt lat="39.9004806" lon="21.2927346"><ele>923.6666666666666</ele><time>2026-04-27T12:57:59.149Z</time></trkpt><trkpt lat="39.9005816" lon="21.2929391"><ele>925.0</ele><time>2026-04-27T12:58:00.15Z</time></trkpt><trkpt lat="39.9006913" lon="21.293137"><ele>925.0</ele><time>2026-04-27T12:58:01.149Z</time></trkpt><trkpt lat="39.9007885" lon="21.2933442"><ele>925.0</ele><time>2026-04-27T12:58:02.15Z</time></trkpt><trkpt lat="39.9008271" lon="21.2935825"><ele>925.0</ele><time>2026-04-27T12:58:03.15Z</time></trkpt><trkpt lat="39.9008576" lon="21.2938625"><ele>925.0</ele><time>2026-04-27T12:58:04.149Z</time></trkpt><trkpt lat="39.900859" lon="21.2941482"><ele>925.0</ele><time>2026-04-27T12:58:05.15Z</time></trkpt><trkpt lat="39.9008207" lon="21.2944512"><ele>925.0</ele><time>2026-04-27T12:58:06.15Z</time></trkpt><trkpt lat="39.9007769" lon="21.2947349"><ele>925.0</ele><time>2026-04-27T12:58:07.15Z</time></trkpt><trkpt lat="39.90074" lon="21.2949838"><ele>925.0</ele><time>2026-04-27T12:58:08.149Z</time></trkpt><trkpt lat="39.9007292" lon="21.295243"><ele>927.6666666666666</ele><time>2026-04-27T12:58:09.149Z</time></trkpt><trkpt lat="39.9007663" lon="21.2955103"><ele>930.3333333333333</ele><time>2026-04-27T12:58:10.149Z</time></trkpt><trkpt lat="39.9008313" lon="21.295796"><ele>933.0</ele><time>2026-04-27T12:58:11.15Z</time></trkpt><trkpt lat="39.9009168" lon="21.2960942"><ele>943.3333333333333</ele><time>2026-04-27T12:58:12.149Z</time></trkpt><trkpt lat="39.9010078" lon="21.2963624"><ele>953.6666666666666</ele><time>2026-04-27T12:58:13.149Z</time></trkpt><trkpt lat="39.9010839" lon="21.2965983"><ele>964.0</ele><time>2026-04-27T12:58:14.15Z</time></trkpt><trkpt lat="39.9011379" lon="21.2967886"><ele>966.0</ele><time>2026-04-27T12:58:15.15Z</time></trkpt><trkpt lat="39.9011483" lon="21.2969515"><ele>968.0</ele><time>2026-04-27T12:58:16.149Z</time></trkpt><trkpt lat="39.9011255" lon="21.2970932"><ele>970.0</ele><time>2026-04-27T12:58:17.149Z</time></trkpt><trkpt lat="39.9010511" lon="21.29721"><ele>972.0</ele><time>2026-04-27T12:58:18.149Z</time></trkpt><trkpt lat="39.9009317" lon="21.297287"><ele>970.25</ele><time>2026-04-27T12:58:19.15Z</time></trkpt><trkpt lat="39.9008205" lon="21.2973419"><ele>968.5</ele><time>2026-04-27T12:58:20.15Z</time></trkpt><trkpt lat="39.9006622" lon="21.297336"><ele>966.75</ele><time>2026-04-27T12:58:21.15Z</time></trkpt><trkpt lat="39.9005148" lon="21.2973372"><ele>965.0</ele><time>2026-04-27T12:58:22.15Z</time></trkpt><trkpt lat="39.9003574" lon="21.2972901"><ele>965.0</ele><time>2026-04-27T12:58:23.15Z</time></trkpt><trkpt lat="39.9002302" lon="21.2973248"><ele>965.0</ele><time>2026-04-27T12:58:24.15Z</time></trkpt><trkpt lat="39.9001342" lon="21.2973888"><ele>965.0</ele><time>2026-04-27T12:58:25.15Z</time></trkpt><trkpt lat="39.9000678" lon="21.2974841"><ele>965.0</ele><time>2026-04-27T12:58:26.149Z</time></trkpt><trkpt lat="39.90005" lon="21.2975931"><ele>965.0</ele><time>2026-04-27T12:58:27.15Z</time></trkpt><trkpt lat="39.9000827" lon="21.2976903"><ele>965.0</ele><time>2026-04-27T12:58:28.149Z</time></trkpt><trkpt lat="39.9001813" lon="21.2977625"><ele>965.0</ele><time>2026-04-27T12:58:29.149Z</time></trkpt><trkpt lat="39.9003228" lon="21.2978274"><ele>965.0</ele><time>2026-04-27T12:58:30.149Z</time></trkpt><trkpt lat="39.9005074" lon="21.2978852"><ele>965.0</ele><time>2026-04-27T12:58:31.15Z</time></trkpt><trkpt lat="39.9007209" lon="21.2979695"><ele>965.0</ele><time>2026-04-27T12:58:32.15Z</time></trkpt><trkpt lat="39.9009315" lon="21.2980523"><ele>965.0</ele><time>2026-04-27T12:58:33.15Z</time></trkpt><trkpt lat="39.9011243" lon="21.2981358"><ele>971.0</ele><time>2026-04-27T12:58:34.149Z</time></trkpt><trkpt lat="39.9013037" lon="21.2982325"><ele>977.0</ele><time>2026-04-27T12:58:35.15Z</time></trkpt><trkpt lat="39.9014715" lon="21.2983561"><ele>983.0</ele><time>2026-04-27T12:58:36.15Z</time></trkpt><trkpt lat="39.9015512" lon="21.2985393"><ele>983.0</ele><time>2026-04-27T12:58:37.149Z</time></trkpt><trkpt lat="39.9016361" lon="21.2987446"><ele>983.0</ele><time>2026-04-27T12:58:38.149Z</time></trkpt><trkpt lat="39.9017057" lon="21.2989913"><ele>983.0</ele><time>2026-04-27T12:58:39.15Z</time></trkpt><trkpt lat="39.90177" lon="21.2992607"><ele>990.5</ele><time>2026-04-27T12:58:40.149Z</time></trkpt><trkpt lat="39.9018392" lon="21.2995476"><ele>998.0</ele><time>2026-04-27T12:58:41.149Z</time></trkpt><trkpt lat="39.9019133" lon="21.2998189"><ele>1000.6666666666667</ele><time>2026-04-27T12:58:42.149Z</time></trkpt><trkpt lat="39.9019731" lon="21.3000782"><ele>1003.3333333333333</ele><time>2026-04-27T12:58:43.149Z</time></trkpt><trkpt lat="39.9020284" lon="21.3003215"><ele>1006.0</ele><time>2026-04-27T12:58:44.15Z</time></trkpt><trkpt lat="39.902068" lon="21.3005647"><ele>1008.6666666666666</ele><time>2026-04-27T12:58:45.149Z</time></trkpt><trkpt lat="39.9020875" lon="21.3008183"><ele>1011.3333333333333</ele><time>2026-04-27T12:58:46.15Z</time></trkpt><trkpt lat="39.9020142" lon="21.3011055"><ele>1014.0</ele><time>2026-04-27T12:58:47.15Z</time></trkpt><trkpt lat="39.901963" lon="21.3013956"><ele>1020.5</ele><time>2026-04-27T12:58:48.149Z</time></trkpt><trkpt lat="39.9018596" lon="21.3016786"><ele>1027.0</ele><time>2026-04-27T12:58:49.149Z</time></trkpt><trkpt lat="39.9017752" lon="21.3019344"><ele>1022.6666666666666</ele><time>2026-04-27T12:58:50.149Z</time></trkpt><trkpt lat="39.9016921" lon="21.3021775"><ele>1018.3333333333333</ele><time>2026-04-27T12:58:51.15Z</time></trkpt><trkpt lat="39.9016146" lon="21.3023899"><ele>1014.0</ele><time>2026-04-27T12:58:52.15Z</time></trkpt><trkpt lat="39.9015496" lon="21.302587"><ele>1014.0</ele><time>2026-04-27T12:58:53.15Z</time></trkpt><trkpt lat="39.9014971" lon="21.3027723"><ele>1014.0</ele><time>2026-04-27T12:58:54.149Z</time></trkpt><trkpt lat="39.9014688" lon="21.3029667"><ele>1014.0</ele><time>2026-04-27T12:58:55.149Z</time></trkpt><trkpt lat="39.9014803" lon="21.3031869"><ele>1017.0</ele><time>2026-04-27T12:58:56.149Z</time></trkpt><trkpt lat="39.9015323" lon="21.3034248"><ele>1020.0</ele><time>2026-04-27T12:58:57.15Z</time></trkpt><trkpt lat="39.9015918" lon="21.3036736"><ele>1023.0</ele><time>2026-04-27T12:58:58.149Z</time></trkpt><trkpt lat="39.9016444" lon="21.3039496"><ele>1023.3333333333333</ele><time>2026-04-27T12:58:59.149Z</time></trkpt><trkpt lat="39.9016665" lon="21.3042432"><ele>1023.6666666666666</ele><time>2026-04-27T12:59:00.15Z</time></trkpt><trkpt lat="39.901667" lon="21.3045322"><ele>1024.0</ele><time>2026-04-27T12:59:01.15Z</time></trkpt><trkpt lat="39.9016553" lon="21.3048079"><ele>1026.5</ele><time>2026-04-27T12:59:02.149Z</time></trkpt><trkpt lat="39.9016414" lon="21.3050905"><ele>1029.0</ele><time>2026-04-27T12:59:03.15Z</time></trkpt><trkpt lat="39.9015563" lon="21.3053922"><ele>1031.5</ele><time>2026-04-27T12:59:04.149Z</time></trkpt><trkpt lat="39.9014885" lon="21.3056807"><ele>1034.0</ele><time>2026-04-27T12:59:05.15Z</time></trkpt><trkpt lat="39.9014095" lon="21.3059628"><ele>1034.0</ele><time>2026-04-27T12:59:06.15Z</time></trkpt><trkpt lat="39.9013288" lon="21.3062217"><ele>1034.0</ele><time>2026-04-27T12:59:07.149Z</time></trkpt><trkpt lat="39.9012569" lon="21.3064726"><ele>1034.0</ele><time>2026-04-27T12:59:08.149Z</time></trkpt><trkpt lat="39.9011943" lon="21.3067139"><ele>1034.3333333333335</ele><time>2026-04-27T12:59:09.15Z</time></trkpt><trkpt lat="39.9011467" lon="21.3069392"><ele>1034.6666666666667</ele><time>2026-04-27T12:59:10.15Z</time></trkpt><trkpt lat="39.9011377" lon="21.3071616"><ele>1035.0</ele><time>2026-04-27T12:59:11.15Z</time></trkpt><trkpt lat="39.901177" lon="21.3073963"><ele>1036.6666666666667</ele><time>2026-04-27T12:59:12.15Z</time></trkpt><trkpt lat="39.9012704" lon="21.3076303"><ele>1038.3333333333335</ele><time>2026-04-27T12:59:13.149Z</time></trkpt><trkpt lat="39.9013951" lon="21.3078708"><ele>1040.0</ele><time>2026-04-27T12:59:14.149Z</time></trkpt><trkpt lat="39.9015505" lon="21.3081136"><ele>1041.0</ele><time>2026-04-27T12:59:15.15Z</time></trkpt><trkpt lat="39.9017035" lon="21.3083233"><ele>1042.0</ele><time>2026-04-27T12:59:16.15Z</time></trkpt><trkpt lat="39.9018425" lon="21.3085221"><ele>1043.0</ele><time>2026-04-27T12:59:17.15Z</time></trkpt><trkpt lat="39.901983" lon="21.308682"><ele>1045.3333333333335</ele><time>2026-04-27T12:59:18.15Z</time></trkpt><trkpt lat="39.9021199" lon="21.3088115"><ele>1047.6666666666667</ele><time>2026-04-27T12:59:19.149Z</time></trkpt><trkpt lat="39.9022697" lon="21.3088788"><ele>1050.0</ele><time>2026-04-27T12:59:20.149Z</time></trkpt><trkpt lat="39.9024197" lon="21.3088926"><ele>1050.0</ele><time>2026-04-27T12:59:21.15Z</time></trkpt><trkpt lat="39.9025738" lon="21.3088389"><ele>1050.0</ele><time>2026-04-27T12:59:22.15Z</time></trkpt><trkpt lat="39.9027114" lon="21.3087228"><ele>1050.0</ele><time>2026-04-27T12:59:23.149Z</time></trkpt><trkpt lat="39.9028283" lon="21.3085512"><ele>1050.3333333333333</ele><time>2026-04-27T12:59:24.15Z</time></trkpt><trkpt lat="39.9029273" lon="21.3083104"><ele>1050.6666666666665</ele><time>2026-04-27T12:59:25.149Z</time></trkpt><trkpt lat="39.9030063" lon="21.3080517"><ele>1051.0</ele><time>2026-04-27T12:59:26.149Z</time></trkpt><trkpt lat="39.9030828" lon="21.3077914"><ele>1053.6666666666665</ele><time>2026-04-27T12:59:27.149Z</time></trkpt><trkpt lat="39.9031684" lon="21.3075343"><ele>1056.3333333333333</ele><time>2026-04-27T12:59:28.15Z</time></trkpt><trkpt lat="39.9033031" lon="21.3073398"><ele>1059.0</ele><time>2026-04-27T12:59:29.149Z</time></trkpt><trkpt lat="39.9034578" lon="21.3071336"><ele>1060.3333333333333</ele><time>2026-04-27T12:59:30.15Z</time></trkpt><trkpt lat="39.9036373" lon="21.306949"><ele>1061.6666666666665</ele><time>2026-04-27T12:59:31.15Z</time></trkpt><trkpt lat="39.9038007" lon="21.3067933"><ele>1063.0</ele><time>2026-04-27T12:59:32.149Z</time></trkpt><trkpt lat="39.9039502" lon="21.3066293"><ele>1064.6666666666665</ele><time>2026-04-27T12:59:33.15Z</time></trkpt><trkpt lat="39.9040778" lon="21.3064052"><ele>1066.3333333333333</ele><time>2026-04-27T12:59:34.149Z</time></trkpt><trkpt lat="39.9041958" lon="21.3061549"><ele>1068.0</ele><time>2026-04-27T12:59:35.15Z</time></trkpt><trkpt lat="39.9042985" lon="21.3058997"><ele>1068.0</ele><time>2026-04-27T12:59:36.15Z</time></trkpt><trkpt lat="39.904389" lon="21.3056467"><ele>1068.0</ele><time>2026-04-27T12:59:37.149Z</time></trkpt><trkpt lat="39.9044853" lon="21.3053963"><ele>1068.0</ele><time>2026-04-27T12:59:38.149Z</time></trkpt><trkpt lat="39.9045789" lon="21.3051476"><ele>1069.0</ele><time>2026-04-27T12:59:39.15Z</time></trkpt><trkpt lat="39.9046629" lon="21.3049058"><ele>1070.0</ele><time>2026-04-27T12:59:40.15Z</time></trkpt><trkpt lat="39.9047557" lon="21.3046741"><ele>1071.0</ele><time>2026-04-27T12:59:41.15Z</time></trkpt><trkpt lat="39.9048477" lon="21.3044483"><ele>1070.3333333333333</ele><time>2026-04-27T12:59:42.149Z</time></trkpt><trkpt lat="39.9049332" lon="21.304224"><ele>1069.6666666666665</ele><time>2026-04-27T12:59:43.149Z</time></trkpt><trkpt lat="39.9050211" lon="21.3040249"><ele>1069.0</ele><time>2026-04-27T12:59:44.149Z</time></trkpt><trkpt lat="39.9051136" lon="21.3038331"><ele>1069.0</ele><time>2026-04-27T12:59:45.15Z</time></trkpt><trkpt lat="39.905219" lon="21.3036817"><ele>1069.0</ele><time>2026-04-27T12:59:46.15Z</time></trkpt><trkpt lat="39.9053446" lon="21.3035629"><ele>1069.0</ele><time>2026-04-27T12:59:47.149Z</time></trkpt><trkpt lat="39.9055184" lon="21.3034952"><ele>1069.0</ele><time>2026-04-27T12:59:48.15Z</time></trkpt><trkpt lat="39.9056953" lon="21.3034545"><ele>1069.0</ele><time>2026-04-27T12:59:49.15Z</time></trkpt><trkpt lat="39.9059001" lon="21.3035844"><ele>1069.0</ele><time>2026-04-27T12:59:50.15Z</time></trkpt><trkpt lat="39.9060575" lon="21.3036058"><ele>1065.6666666666665</ele><time>2026-04-27T12:59:51.149Z</time></trkpt><trkpt lat="39.9062095" lon="21.3035805"><ele>1062.3333333333333</ele><time>2026-04-27T12:59:52.149Z</time></trkpt><trkpt lat="39.9063545" lon="21.3034837"><ele>1059.0</ele><time>2026-04-27T12:59:53.15Z</time></trkpt><trkpt lat="39.9064721" lon="21.3033563"><ele>1059.0</ele><time>2026-04-27T12:59:54.149Z</time></trkpt><trkpt lat="39.9065863" lon="21.3032169"><ele>1059.0</ele><time>2026-04-27T12:59:55.149Z</time></trkpt><trkpt lat="39.9067036" lon="21.3030807"><ele>1059.0</ele><time>2026-04-27T12:59:56.15Z</time></trkpt><trkpt lat="39.9068327" lon="21.3029731"><ele>1058.0</ele><time>2026-04-27T12:59:57.15Z</time></trkpt><trkpt lat="39.9069538" lon="21.302893"><ele>1057.0</ele><time>2026-04-27T12:59:58.149Z</time></trkpt><trkpt lat="39.9071113" lon="21.3029482"><ele>1056.0</ele><time>2026-04-27T12:59:59.15Z</time></trkpt><trkpt lat="39.9072523" lon="21.3029818"><ele>1055.0</ele><time>2026-04-27T13:00:00.149Z</time></trkpt><trkpt lat="39.9073596" lon="21.3031061"><ele>1055.0</ele><time>2026-04-27T13:00:01.15Z</time></trkpt><trkpt lat="39.9074334" lon="21.3032717"><ele>1055.0</ele><time>2026-04-27T13:00:02.15Z</time></trkpt><trkpt lat="39.9074866" lon="21.3034599"><ele>1055.0</ele><time>2026-04-27T13:00:03.149Z</time></trkpt><trkpt lat="39.9075031" lon="21.3037083"><ele>1056.3333333333335</ele><time>2026-04-27T13:00:04.15Z</time></trkpt><trkpt lat="39.9075256" lon="21.3039458"><ele>1057.6666666666667</ele><time>2026-04-27T13:00:05.149Z</time></trkpt><trkpt lat="39.9075539" lon="21.3041677"><ele>1059.0</ele><time>2026-04-27T13:00:06.15Z</time></trkpt><trkpt lat="39.9075912" lon="21.3043915"><ele>1059.0</ele><time>2026-04-27T13:00:07.15Z</time></trkpt><trkpt lat="39.9076385" lon="21.3046003"><ele>1059.0</ele><time>2026-04-27T13:00:08.15Z</time></trkpt><trkpt lat="39.9077136" lon="21.3047987"><ele>1059.0</ele><time>2026-04-27T13:00:09.15Z</time></trkpt><trkpt lat="39.9078124" lon="21.3049919"><ele>1056.3333333333333</ele><time>2026-04-27T13:00:10.15Z</time></trkpt><trkpt lat="39.9079336" lon="21.3051843"><ele>1053.6666666666665</ele><time>2026-04-27T13:00:11.149Z</time></trkpt><trkpt lat="39.9080921" lon="21.3053512"><ele>1051.0</ele><time>2026-04-27T13:00:12.149Z</time></trkpt><trkpt lat="39.9082886" lon="21.3055082"><ele>1048.0</ele><time>2026-04-27T13:00:13.15Z</time></trkpt><trkpt lat="39.9085114" lon="21.3056764"><ele>1045.0</ele><time>2026-04-27T13:00:14.149Z</time></trkpt><trkpt lat="39.9087649" lon="21.3058527"><ele>1045.0</ele><time>2026-04-27T13:00:15.149Z</time></trkpt><trkpt lat="39.9090217" lon="21.3060538"><ele>1045.0</ele><time>2026-04-27T13:00:16.149Z</time></trkpt><trkpt lat="39.909268" lon="21.3062573"><ele>1035.5</ele><time>2026-04-27T13:00:17.15Z</time></trkpt><trkpt lat="39.9095074" lon="21.3064378"><ele>1026.0</ele><time>2026-04-27T13:00:18.149Z</time></trkpt><trkpt lat="39.9097378" lon="21.3066169"><ele>1026.0</ele><time>2026-04-27T13:00:19.15Z</time></trkpt><trkpt lat="39.9099387" lon="21.3067803"><ele>1026.0</ele><time>2026-04-27T13:00:20.15Z</time></trkpt><trkpt lat="39.9101498" lon="21.3069489"><ele>1024.0</ele><time>2026-04-27T13:00:21.15Z</time></trkpt><trkpt lat="39.9103561" lon="21.3071097"><ele>1022.0</ele><time>2026-04-27T13:00:22.149Z</time></trkpt><trkpt lat="39.9105708" lon="21.3072648"><ele>1017.5</ele><time>2026-04-27T13:00:23.15Z</time></trkpt><trkpt lat="39.910796" lon="21.3074069"><ele>1013.0</ele><time>2026-04-27T13:00:24.15Z</time></trkpt><trkpt lat="39.9110247" lon="21.3075376"><ele>1011.5</ele><time>2026-04-27T13:00:25.15Z</time></trkpt><trkpt lat="39.9112583" lon="21.3076608"><ele>1010.0</ele><time>2026-04-27T13:00:26.15Z</time></trkpt><trkpt lat="39.9115002" lon="21.3077712"><ele>1010.0</ele><time>2026-04-27T13:00:27.15Z</time></trkpt><trkpt lat="39.9117339" lon="21.3078738"><ele>1010.0</ele><time>2026-04-27T13:00:28.149Z</time></trkpt><trkpt lat="39.9119621" lon="21.3079721"><ele>1008.6666666666667</ele><time>2026-04-27T13:00:29.149Z</time></trkpt><trkpt lat="39.9121737" lon="21.3080609"><ele>1007.3333333333333</ele><time>2026-04-27T13:00:30.149Z</time></trkpt><trkpt lat="39.9123764" lon="21.3081377"><ele>1006.0</ele><time>2026-04-27T13:00:31.15Z</time></trkpt><trkpt lat="39.9125582" lon="21.308215"><ele>1002.6666666666666</ele><time>2026-04-27T13:00:32.15Z</time></trkpt><trkpt lat="39.9127211" lon="21.308297"><ele>999.3333333333333</ele><time>2026-04-27T13:00:33.149Z</time></trkpt><trkpt lat="39.9128733" lon="21.3084029"><ele>996.0</ele><time>2026-04-27T13:00:34.15Z</time></trkpt><trkpt lat="39.9130015" lon="21.3085318"><ele>996.0</ele><time>2026-04-27T13:00:35.149Z</time></trkpt><trkpt lat="39.9130644" lon="21.3086981"><ele>996.0</ele><time>2026-04-27T13:00:36.149Z</time></trkpt><trkpt lat="39.9131018" lon="21.3088692"><ele>996.0</ele><time>2026-04-27T13:00:37.15Z</time></trkpt><trkpt lat="39.913054" lon="21.3090969"><ele>993.3333333333333</ele><time>2026-04-27T13:00:38.149Z</time></trkpt><trkpt lat="39.9129482" lon="21.3092937"><ele>990.6666666666666</ele><time>2026-04-27T13:00:39.15Z</time></trkpt><trkpt lat="39.9128579" lon="21.3094941"><ele>988.0</ele><time>2026-04-27T13:00:40.149Z</time></trkpt><trkpt lat="39.9127727" lon="21.3096841"><ele>985.6666666666666</ele><time>2026-04-27T13:00:41.15Z</time></trkpt><trkpt lat="39.9126956" lon="21.3098825"><ele>983.3333333333333</ele><time>2026-04-27T13:00:42.15Z</time></trkpt><trkpt lat="39.9126509" lon="21.3101146"><ele>981.0</ele><time>2026-04-27T13:00:43.149Z</time></trkpt><trkpt lat="39.9126333" lon="21.3103599"><ele>979.6666666666667</ele><time>2026-04-27T13:00:44.149Z</time></trkpt><trkpt lat="39.9126464" lon="21.3106104"><ele>978.3333333333334</ele><time>2026-04-27T13:00:45.149Z</time></trkpt><trkpt lat="39.9126927" lon="21.3108537"><ele>977.0</ele><time>2026-04-27T13:00:46.15Z</time></trkpt><trkpt lat="39.9127807" lon="21.3111083"><ele>977.0</ele><time>2026-04-27T13:00:47.15Z</time></trkpt><trkpt lat="39.9129034" lon="21.3113476"><ele>977.0</ele><time>2026-04-27T13:00:48.149Z</time></trkpt><trkpt lat="39.9130641" lon="21.3116093"><ele>976.5</ele><time>2026-04-27T13:00:49.15Z</time></trkpt><trkpt lat="39.9132331" lon="21.3118569"><ele>976.0</ele><time>2026-04-27T13:00:50.15Z</time></trkpt><trkpt lat="39.9133991" lon="21.3121124"><ele>975.0</ele><time>2026-04-27T13:00:51.149Z</time></trkpt><trkpt lat="39.913548" lon="21.3123505"><ele>974.0</ele><time>2026-04-27T13:00:52.15Z</time></trkpt><trkpt lat="39.9136782" lon="21.3125757"><ele>974.0</ele><time>2026-04-27T13:00:53.15Z</time></trkpt><trkpt lat="39.9137996" lon="21.3128083"><ele>974.0</ele><time>2026-04-27T13:00:54.149Z</time></trkpt><trkpt lat="39.9138758" lon="21.313068"><ele>974.0</ele><time>2026-04-27T13:00:55.15Z</time></trkpt><trkpt lat="39.9139148" lon="21.3133483"><ele>972.6666666666667</ele><time>2026-04-27T13:00:56.15Z</time></trkpt><trkpt lat="39.9139808" lon="21.31361"><ele>971.3333333333333</ele><time>2026-04-27T13:00:57.149Z</time></trkpt><trkpt lat="39.9140305" lon="21.3138836"><ele>970.0</ele><time>2026-04-27T13:00:58.15Z</time></trkpt><trkpt lat="39.9140784" lon="21.314159"><ele>968.3333333333333</ele><time>2026-04-27T13:00:59.15Z</time></trkpt><trkpt lat="39.9141295" lon="21.3144334"><ele>966.6666666666667</ele><time>2026-04-27T13:01:00.149Z</time></trkpt><trkpt lat="39.9141822" lon="21.3147095"><ele>965.0</ele><time>2026-04-27T13:01:01.15Z</time></trkpt><trkpt lat="39.9142362" lon="21.314986"><ele>964.0</ele><time>2026-04-27T13:01:02.15Z</time></trkpt><trkpt lat="39.9142912" lon="21.31529"><ele>963.0</ele><time>2026-04-27T13:01:03.15Z</time></trkpt><trkpt lat="39.9143442" lon="21.3156104"><ele>963.0</ele><time>2026-04-27T13:01:04.149Z</time></trkpt><trkpt lat="39.9143949" lon="21.3159192"><ele>963.0</ele><time>2026-04-27T13:01:05.15Z</time></trkpt><trkpt lat="39.9144487" lon="21.3162045"><ele>962.3333333333333</ele><time>2026-04-27T13:01:06.149Z</time></trkpt><trkpt lat="39.9145048" lon="21.3164615"><ele>961.6666666666666</ele><time>2026-04-27T13:01:07.149Z</time></trkpt><trkpt lat="39.9145823" lon="21.3166983"><ele>961.0</ele><time>2026-04-27T13:01:08.15Z</time></trkpt><trkpt lat="39.9146875" lon="21.3169092"><ele>961.0</ele><time>2026-04-27T13:01:09.15Z</time></trkpt><trkpt lat="39.914831" lon="21.3170793"><ele>961.0</ele><time>2026-04-27T13:01:10.149Z</time></trkpt><trkpt lat="39.9149959" lon="21.317215"><ele>961.0</ele><time>2026-04-27T13:01:11.15Z</time></trkpt><trkpt lat="39.915187" lon="21.3173011"><ele>961.0</ele><time>2026-04-27T13:01:12.149Z</time></trkpt><trkpt lat="39.9154005" lon="21.3173386"><ele>961.0</ele><time>2026-04-27T13:01:13.149Z</time></trkpt><trkpt lat="39.915611" lon="21.3173606"><ele>961.0</ele><time>2026-04-27T13:01:14.149Z</time></trkpt><trkpt lat="39.9158169" lon="21.3174033"><ele>967.6666666666666</ele><time>2026-04-27T13:01:15.149Z</time></trkpt><trkpt lat="39.9160137" lon="21.3174704"><ele>974.3333333333333</ele><time>2026-04-27T13:01:16.149Z</time></trkpt><trkpt lat="39.9161587" lon="21.317617"><ele>981.0</ele><time>2026-04-27T13:01:17.15Z</time></trkpt><trkpt lat="39.9163059" lon="21.3177593"><ele>981.0</ele><time>2026-04-27T13:01:18.149Z</time></trkpt><trkpt lat="39.9164113" lon="21.3178837"><ele>981.0</ele><time>2026-04-27T13:01:19.15Z</time></trkpt><trkpt lat="39.9165422" lon="21.3179758"><ele>981.0</ele><time>2026-04-27T13:01:20.149Z</time></trkpt><trkpt lat="39.9166937" lon="21.3180048"><ele>981.0</ele><time>2026-04-27T13:01:21.149Z</time></trkpt><trkpt lat="39.9168337" lon="21.3179843"><ele>983.8</ele><time>2026-04-27T13:01:22.149Z</time></trkpt><trkpt lat="39.9169576" lon="21.317936"><ele>986.5999999999999</ele><time>2026-04-27T13:01:23.149Z</time></trkpt><trkpt lat="39.9170616" lon="21.3178746"><ele>989.4</ele><time>2026-04-27T13:01:24.149Z</time></trkpt><trkpt lat="39.9171592" lon="21.3178505"><ele>992.2</ele><time>2026-04-27T13:01:25.149Z</time></trkpt><trkpt lat="39.9172452" lon="21.3178471"><ele>995.0</ele><time>2026-04-27T13:01:26.15Z</time></trkpt><trkpt lat="39.917315" lon="21.3178983"><ele>995.0</ele><time>2026-04-27T13:01:27.149Z</time></trkpt><trkpt lat="39.917376" lon="21.3179868"><ele>995.0</ele><time>2026-04-27T13:01:28.149Z</time></trkpt><trkpt lat="39.9174296" lon="21.3180881"><ele>995.0</ele><time>2026-04-27T13:01:29.15Z</time></trkpt><trkpt lat="39.9174748" lon="21.3181938"><ele>995.0</ele><time>2026-04-27T13:01:30.15Z</time></trkpt><trkpt lat="39.9175155" lon="21.3183024"><ele>995.0</ele><time>2026-04-27T13:01:31.15Z</time></trkpt><trkpt lat="39.9175807" lon="21.3184044"><ele>993.8</ele><time>2026-04-27T13:01:32.149Z</time></trkpt><trkpt lat="39.9176383" lon="21.3185088"><ele>992.6</ele><time>2026-04-27T13:01:33.149Z</time></trkpt><trkpt lat="39.9177158" lon="21.3186025"><ele>991.4000000000001</ele><time>2026-04-27T13:01:34.15Z</time></trkpt><trkpt lat="39.9178009" lon="21.3186753"><ele>990.2</ele><time>2026-04-27T13:01:35.149Z</time></trkpt><trkpt lat="39.9179036" lon="21.3187184"><ele>989.0</ele><time>2026-04-27T13:01:36.149Z</time></trkpt><trkpt lat="39.91803" lon="21.3187249"><ele>989.0</ele><time>2026-04-27T13:01:37.149Z</time></trkpt><trkpt lat="39.918186" lon="21.3186844"><ele>989.0</ele><time>2026-04-27T13:01:38.15Z</time></trkpt><trkpt lat="39.9183669" lon="21.3186103"><ele>989.0</ele><time>2026-04-27T13:01:39.149Z</time></trkpt><trkpt lat="39.9185863" lon="21.3185304"><ele>985.0</ele><time>2026-04-27T13:01:40.15Z</time></trkpt><trkpt lat="39.9188129" lon="21.3184594"><ele>981.0</ele><time>2026-04-27T13:01:41.149Z</time></trkpt><trkpt lat="39.9190198" lon="21.3184007"><ele>977.0</ele><time>2026-04-27T13:01:42.15Z</time></trkpt><trkpt lat="39.9191979" lon="21.3183621"><ele>979.0</ele><time>2026-04-27T13:01:43.149Z</time></trkpt><trkpt lat="39.9193525" lon="21.3183391"><ele>981.0</ele><time>2026-04-27T13:01:44.15Z</time></trkpt><trkpt lat="39.9194993" lon="21.3183684"><ele>983.0</ele><time>2026-04-27T13:01:45.15Z</time></trkpt><trkpt lat="39.919632" lon="21.3184518"><ele>983.0</ele><time>2026-04-27T13:01:46.15Z</time></trkpt><trkpt lat="39.9197436" lon="21.3185992"><ele>983.0</ele><time>2026-04-27T13:01:47.15Z</time></trkpt><trkpt lat="39.9198435" lon="21.3187703"><ele>983.0</ele><time>2026-04-27T13:01:48.149Z</time></trkpt><trkpt lat="39.9199315" lon="21.3189613"><ele>977.3333333333334</ele><time>2026-04-27T13:01:49.15Z</time></trkpt><trkpt lat="39.9200213" lon="21.3191545"><ele>971.6666666666667</ele><time>2026-04-27T13:01:50.149Z</time></trkpt><trkpt lat="39.9201057" lon="21.3193641"><ele>966.0</ele><time>2026-04-27T13:01:51.15Z</time></trkpt><trkpt lat="39.9202086" lon="21.3195633"><ele>963.0</ele><time>2026-04-27T13:01:52.149Z</time></trkpt><trkpt lat="39.9203201" lon="21.3197593"><ele>960.0</ele><time>2026-04-27T13:01:53.149Z</time></trkpt><trkpt lat="39.9204455" lon="21.3199549"><ele>957.0</ele><time>2026-04-27T13:01:54.15Z</time></trkpt><trkpt lat="39.9205962" lon="21.3201465"><ele>957.0</ele><time>2026-04-27T13:01:55.149Z</time></trkpt><trkpt lat="39.9207807" lon="21.3203401"><ele>957.0</ele><time>2026-04-27T13:01:56.15Z</time></trkpt><trkpt lat="39.9210004" lon="21.3205348"><ele>953.0</ele><time>2026-04-27T13:01:57.15Z</time></trkpt><trkpt lat="39.9212512" lon="21.3207322"><ele>949.0</ele><time>2026-04-27T13:01:58.15Z</time></trkpt><trkpt lat="39.9215001" lon="21.3209593"><ele>947.5</ele><time>2026-04-27T13:01:59.15Z</time></trkpt><trkpt lat="39.9217632" lon="21.3212032"><ele>946.0</ele><time>2026-04-27T13:02:00.149Z</time></trkpt><trkpt lat="39.9220379" lon="21.3214133"><ele>946.0</ele><time>2026-04-27T13:02:01.149Z</time></trkpt><trkpt lat="39.9222992" lon="21.3216443"><ele>946.0</ele><time>2026-04-27T13:02:02.15Z</time></trkpt><trkpt lat="39.9225526" lon="21.3218647"><ele>946.0</ele><time>2026-04-27T13:02:03.149Z</time></trkpt><trkpt lat="39.9228043" lon="21.3220846"><ele>946.0</ele><time>2026-04-27T13:02:04.15Z</time></trkpt><trkpt lat="39.9230757" lon="21.3222867"><ele>941.5</ele><time>2026-04-27T13:02:05.149Z</time></trkpt><trkpt lat="39.9233324" lon="21.3225026"><ele>937.0</ele><time>2026-04-27T13:02:06.15Z</time></trkpt><trkpt lat="39.923587" lon="21.3227092"><ele>934.5</ele><time>2026-04-27T13:02:07.15Z</time></trkpt><trkpt lat="39.9238462" lon="21.3229338"><ele>932.0</ele><time>2026-04-27T13:02:08.15Z</time></trkpt><trkpt lat="39.9241001" lon="21.3231634"><ele>930.5</ele><time>2026-04-27T13:02:09.149Z</time></trkpt><trkpt lat="39.9243569" lon="21.3233761"><ele>929.0</ele><time>2026-04-27T13:02:10.15Z</time></trkpt><trkpt lat="39.9246199" lon="21.3235865"><ele>929.0</ele><time>2026-04-27T13:02:11.149Z</time></trkpt><trkpt lat="39.9248941" lon="21.3237663"><ele>929.0</ele><time>2026-04-27T13:02:12.15Z</time></trkpt><trkpt lat="39.925172" lon="21.3239468"><ele>926.5</ele><time>2026-04-27T13:02:13.149Z</time></trkpt><trkpt lat="39.9254536" lon="21.3241205"><ele>924.0</ele><time>2026-04-27T13:02:14.15Z</time></trkpt><trkpt lat="39.9257263" lon="21.3242884"><ele>928.0</ele><time>2026-04-27T13:02:15.149Z</time></trkpt><trkpt lat="39.9259898" lon="21.3244423"><ele>932.0</ele><time>2026-04-27T13:02:16.149Z</time></trkpt><trkpt lat="39.9262445" lon="21.3245956"><ele>930.5</ele><time>2026-04-27T13:02:17.149Z</time></trkpt><trkpt lat="39.9264942" lon="21.3247432"><ele>929.0</ele><time>2026-04-27T13:02:18.149Z</time></trkpt><trkpt lat="39.9267272" lon="21.32489"><ele>930.5</ele><time>2026-04-27T13:02:19.149Z</time></trkpt><trkpt lat="39.9269486" lon="21.3250279"><ele>932.0</ele><time>2026-04-27T13:02:20.15Z</time></trkpt><trkpt lat="39.9271545" lon="21.3251591"><ele>932.0</ele><time>2026-04-27T13:02:21.149Z</time></trkpt><trkpt lat="39.9273547" lon="21.3252582"><ele>932.0</ele><time>2026-04-27T13:02:22.15Z</time></trkpt><trkpt lat="39.9275564" lon="21.3253307"><ele>932.0</ele><time>2026-04-27T13:02:23.149Z</time></trkpt><trkpt lat="39.9277592" lon="21.3253737"><ele>930.6666666666667</ele><time>2026-04-27T13:02:24.149Z</time></trkpt><trkpt lat="39.9279575" lon="21.3253793"><ele>929.3333333333333</ele><time>2026-04-27T13:02:25.149Z</time></trkpt><trkpt lat="39.9281565" lon="21.3253579"><ele>928.0</ele><time>2026-04-27T13:02:26.149Z</time></trkpt><trkpt lat="39.9283424" lon="21.3253394"><ele>927.6666666666666</ele><time>2026-04-27T13:02:27.15Z</time></trkpt><trkpt lat="39.9285246" lon="21.3253199"><ele>927.3333333333333</ele><time>2026-04-27T13:02:28.15Z</time></trkpt><trkpt lat="39.9287025" lon="21.3253157"><ele>927.0</ele><time>2026-04-27T13:02:29.15Z</time></trkpt><trkpt lat="39.928877" lon="21.3253583"><ele>927.0</ele><time>2026-04-27T13:02:30.149Z</time></trkpt><trkpt lat="39.9290442" lon="21.3254476"><ele>927.0</ele><time>2026-04-27T13:02:31.149Z</time></trkpt><trkpt lat="39.9292229" lon="21.3255903"><ele>927.0</ele><time>2026-04-27T13:02:32.149Z</time></trkpt><trkpt lat="39.9294189" lon="21.3257733"><ele>923.5</ele><time>2026-04-27T13:02:33.15Z</time></trkpt><trkpt lat="39.9296067" lon="21.3259471"><ele>920.0</ele><time>2026-04-27T13:02:34.15Z</time></trkpt><trkpt lat="39.9297939" lon="21.3261032"><ele>920.0</ele><time>2026-04-27T13:02:35.15Z</time></trkpt><trkpt lat="39.9299745" lon="21.3262538"><ele>920.0</ele><time>2026-04-27T13:02:36.149Z</time></trkpt><trkpt lat="39.9301215" lon="21.3263926"><ele>920.0</ele><time>2026-04-27T13:02:37.15Z</time></trkpt><trkpt lat="39.9302541" lon="21.3265234"><ele>917.6666666666667</ele><time>2026-04-27T13:02:38.149Z</time></trkpt><trkpt lat="39.9303689" lon="21.3266718"><ele>915.3333333333333</ele><time>2026-04-27T13:02:39.149Z</time></trkpt><trkpt lat="39.9304705" lon="21.3268334"><ele>913.0</ele><time>2026-04-27T13:02:40.149Z</time></trkpt><trkpt lat="39.9305633" lon="21.3269993"><ele>913.0</ele><time>2026-04-27T13:02:41.149Z</time></trkpt><trkpt lat="39.9306627" lon="21.3271775"><ele>913.0</ele><time>2026-04-27T13:02:42.149Z</time></trkpt><trkpt lat="39.930744" lon="21.3273869"><ele>913.0</ele><time>2026-04-27T13:02:43.15Z</time></trkpt><trkpt lat="39.9308049" lon="21.3276013"><ele>911.6666666666666</ele><time>2026-04-27T13:02:44.149Z</time></trkpt><trkpt lat="39.9308645" lon="21.3278024"><ele>910.3333333333333</ele><time>2026-04-27T13:02:45.15Z</time></trkpt><trkpt lat="39.9309081" lon="21.3280158"><ele>909.0</ele><time>2026-04-27T13:02:46.149Z</time></trkpt><trkpt lat="39.9309478" lon="21.3282317"><ele>907.3333333333333</ele><time>2026-04-27T13:02:47.149Z</time></trkpt><trkpt lat="39.9310047" lon="21.3284314"><ele>905.6666666666666</ele><time>2026-04-27T13:02:48.15Z</time></trkpt><trkpt lat="39.931061" lon="21.3286553"><ele>904.0</ele><time>2026-04-27T13:02:49.15Z</time></trkpt><trkpt lat="39.9311364" lon="21.3288719"><ele>902.3333333333333</ele><time>2026-04-27T13:02:50.15Z</time></trkpt><trkpt lat="39.9312469" lon="21.3290797"><ele>900.6666666666667</ele><time>2026-04-27T13:02:51.149Z</time></trkpt><trkpt lat="39.9313951" lon="21.3292938"><ele>899.0</ele><time>2026-04-27T13:02:52.149Z</time></trkpt><trkpt lat="39.9315512" lon="21.3294947"><ele>899.0</ele><time>2026-04-27T13:02:53.149Z</time></trkpt><trkpt lat="39.9316979" lon="21.3296926"><ele>899.0</ele><time>2026-04-27T13:02:54.149Z</time></trkpt><trkpt lat="39.9318343" lon="21.3298862"><ele>899.0</ele><time>2026-04-27T13:02:55.149Z</time></trkpt><trkpt lat="39.9319565" lon="21.3300845"><ele>895.3333333333334</ele><time>2026-04-27T13:02:56.15Z</time></trkpt><trkpt lat="39.9320675" lon="21.3302906"><ele>891.6666666666667</ele><time>2026-04-27T13:02:57.15Z</time></trkpt><trkpt lat="39.9321653" lon="21.3305245"><ele>888.0</ele><time>2026-04-27T13:02:58.149Z</time></trkpt><trkpt lat="39.9322637" lon="21.3307667"><ele>885.6666666666667</ele><time>2026-04-27T13:02:59.15Z</time></trkpt><trkpt lat="39.932354" lon="21.3310203"><ele>883.3333333333334</ele><time>2026-04-27T13:03:00.15Z</time></trkpt><trkpt lat="39.9324571" lon="21.331282"><ele>881.0</ele><time>2026-04-27T13:03:01.149Z</time></trkpt><trkpt lat="39.9325473" lon="21.3315521"><ele>874.0</ele><time>2026-04-27T13:03:02.15Z</time></trkpt><trkpt lat="39.9326437" lon="21.3318223"><ele>867.0</ele><time>2026-04-27T13:03:03.149Z</time></trkpt><trkpt lat="39.9327357" lon="21.3320907"><ele>869.3333333333333</ele><time>2026-04-27T13:03:04.149Z</time></trkpt><trkpt lat="39.9328443" lon="21.3323306"><ele>871.6666666666666</ele><time>2026-04-27T13:03:05.15Z</time></trkpt><trkpt lat="39.9329319" lon="21.3325916"><ele>874.0</ele><time>2026-04-27T13:03:06.149Z</time></trkpt><trkpt lat="39.9329994" lon="21.3328441"><ele>875.6666666666666</ele><time>2026-04-27T13:03:07.15Z</time></trkpt><trkpt lat="39.93305" lon="21.3330941"><ele>877.3333333333333</ele><time>2026-04-27T13:03:08.149Z</time></trkpt><trkpt lat="39.9330818" lon="21.3333428"><ele>879.0</ele><time>2026-04-27T13:03:09.15Z</time></trkpt><trkpt lat="39.9331092" lon="21.333598"><ele>879.0</ele><time>2026-04-27T13:03:10.149Z</time></trkpt><trkpt lat="39.9331275" lon="21.3338484"><ele>879.0</ele><time>2026-04-27T13:03:11.149Z</time></trkpt><trkpt lat="39.9331509" lon="21.3340986"><ele>879.0</ele><time>2026-04-27T13:03:12.149Z</time></trkpt><trkpt lat="39.9331788" lon="21.3343489"><ele>876.6666666666667</ele><time>2026-04-27T13:03:13.149Z</time></trkpt><trkpt lat="39.933228" lon="21.3346027"><ele>874.3333333333334</ele><time>2026-04-27T13:03:14.15Z</time></trkpt><trkpt lat="39.9333072" lon="21.3348454"><ele>872.0</ele><time>2026-04-27T13:03:15.149Z</time></trkpt><trkpt lat="39.9334138" lon="21.3350821"><ele>871.6666666666667</ele><time>2026-04-27T13:03:16.149Z</time></trkpt><trkpt lat="39.9335244" lon="21.3353078"><ele>871.3333333333333</ele><time>2026-04-27T13:03:17.149Z</time></trkpt><trkpt lat="39.9336561" lon="21.3355301"><ele>871.0</ele><time>2026-04-27T13:03:18.15Z</time></trkpt><trkpt lat="39.9337918" lon="21.3357497"><ele>871.0</ele><time>2026-04-27T13:03:19.149Z</time></trkpt><trkpt lat="39.9339272" lon="21.3359745"><ele>871.0</ele><time>2026-04-27T13:03:20.149Z</time></trkpt><trkpt lat="39.9340595" lon="21.3361972"><ele>871.0</ele><time>2026-04-27T13:03:21.149Z</time></trkpt><trkpt lat="39.9341949" lon="21.3364151"><ele>872.6666666666666</ele><time>2026-04-27T13:03:22.149Z</time></trkpt><trkpt lat="39.9343351" lon="21.3366355"><ele>874.3333333333333</ele><time>2026-04-27T13:03:23.149Z</time></trkpt><trkpt lat="39.9344741" lon="21.3368465"><ele>876.0</ele><time>2026-04-27T13:03:24.149Z</time></trkpt><trkpt lat="39.9346169" lon="21.3370435"><ele>873.3333333333333</ele><time>2026-04-27T13:03:25.149Z</time></trkpt><trkpt lat="39.9347642" lon="21.3372238"><ele>870.6666666666666</ele><time>2026-04-27T13:03:26.149Z</time></trkpt><trkpt lat="39.9349214" lon="21.337389"><ele>868.0</ele><time>2026-04-27T13:03:27.15Z</time></trkpt><trkpt lat="39.935075" lon="21.3375596"><ele>868.0</ele><time>2026-04-27T13:03:28.149Z</time></trkpt><trkpt lat="39.9352286" lon="21.3377469"><ele>868.0</ele><time>2026-04-27T13:03:29.149Z</time></trkpt><trkpt lat="39.9353747" lon="21.3379691"><ele>868.0</ele><time>2026-04-27T13:03:30.149Z</time></trkpt><trkpt lat="39.9355262" lon="21.3382138"><ele>868.0</ele><time>2026-04-27T13:03:31.15Z</time></trkpt><trkpt lat="39.9356745" lon="21.338445"><ele>868.0</ele><time>2026-04-27T13:03:32.15Z</time></trkpt><trkpt lat="39.9358032" lon="21.338661"><ele>868.0</ele><time>2026-04-27T13:03:33.15Z</time></trkpt><trkpt lat="39.9359232" lon="21.3388902"><ele>865.0</ele><time>2026-04-27T13:03:34.15Z</time></trkpt><trkpt lat="39.9360305" lon="21.3391374"><ele>862.0</ele><time>2026-04-27T13:03:35.15Z</time></trkpt><trkpt lat="39.9361315" lon="21.3394109"><ele>862.0</ele><time>2026-04-27T13:03:36.15Z</time></trkpt><trkpt lat="39.936223" lon="21.3396874"><ele>862.0</ele><time>2026-04-27T13:03:37.149Z</time></trkpt><trkpt lat="39.9363075" lon="21.3399792"><ele>864.5</ele><time>2026-04-27T13:03:38.149Z</time></trkpt><trkpt lat="39.9363859" lon="21.3402707"><ele>867.0</ele><time>2026-04-27T13:03:39.149Z</time></trkpt><trkpt lat="39.9364673" lon="21.3405558"><ele>867.3333333333333</ele><time>2026-04-27T13:03:40.15Z</time></trkpt><trkpt lat="39.936532" lon="21.3408257"><ele>867.6666666666666</ele><time>2026-04-27T13:03:41.15Z</time></trkpt><trkpt lat="39.9365982" lon="21.3410809"><ele>868.0</ele><time>2026-04-27T13:03:42.149Z</time></trkpt><trkpt lat="39.9366797" lon="21.3413121"><ele>868.0</ele><time>2026-04-27T13:03:43.149Z</time></trkpt><trkpt lat="39.9367884" lon="21.3415179"><ele>868.0</ele><time>2026-04-27T13:03:44.15Z</time></trkpt><trkpt lat="39.9369347" lon="21.341699"><ele>868.0</ele><time>2026-04-27T13:03:45.15Z</time></trkpt><trkpt lat="39.9371021" lon="21.3418616"><ele>868.0</ele><time>2026-04-27T13:03:46.149Z</time></trkpt><trkpt lat="39.9372874" lon="21.3420155"><ele>868.0</ele><time>2026-04-27T13:03:47.15Z</time></trkpt><trkpt lat="39.9374665" lon="21.3421562"><ele>868.0</ele><time>2026-04-27T13:03:48.149Z</time></trkpt><trkpt lat="39.9376511" lon="21.3422924"><ele>863.0</ele><time>2026-04-27T13:03:49.15Z</time></trkpt><trkpt lat="39.9378063" lon="21.3424242"><ele>858.0</ele><time>2026-04-27T13:03:50.149Z</time></trkpt><trkpt lat="39.9379459" lon="21.3425589"><ele>853.0</ele><time>2026-04-27T13:03:51.149Z</time></trkpt><trkpt lat="39.9380405" lon="21.3427306"><ele>853.0</ele><time>2026-04-27T13:03:52.149Z</time></trkpt><trkpt lat="39.9381072" lon="21.3429315"><ele>853.0</ele><time>2026-04-27T13:03:53.15Z</time></trkpt><trkpt lat="39.9381532" lon="21.3431599"><ele>853.0</ele><time>2026-04-27T13:03:54.15Z</time></trkpt><trkpt lat="39.9381873" lon="21.3434018"><ele>851.0</ele><time>2026-04-27T13:03:55.15Z</time></trkpt><trkpt lat="39.9382285" lon="21.3436255"><ele>849.0</ele><time>2026-04-27T13:03:56.149Z</time></trkpt><trkpt lat="39.9382863" lon="21.3438345"><ele>847.0</ele><time>2026-04-27T13:03:57.149Z</time></trkpt><trkpt lat="39.9383757" lon="21.344028"><ele>839.3333333333333</ele><time>2026-04-27T13:03:58.15Z</time></trkpt><trkpt lat="39.9384953" lon="21.3441884"><ele>831.6666666666667</ele><time>2026-04-27T13:03:59.149Z</time></trkpt><trkpt lat="39.9386486" lon="21.344309"><ele>824.0</ele><time>2026-04-27T13:04:00.15Z</time></trkpt><trkpt lat="39.9388264" lon="21.3444078"><ele>824.0</ele><time>2026-04-27T13:04:01.15Z</time></trkpt><trkpt lat="39.9390081" lon="21.344489"><ele>824.0</ele><time>2026-04-27T13:04:02.15Z</time></trkpt><trkpt lat="39.9391966" lon="21.3445779"><ele>824.0</ele><time>2026-04-27T13:04:03.15Z</time></trkpt><trkpt lat="39.9393736" lon="21.344681"><ele>824.6666666666667</ele><time>2026-04-27T13:04:04.149Z</time></trkpt><trkpt lat="39.9395161" lon="21.3448827"><ele>825.3333333333333</ele><time>2026-04-27T13:04:05.15Z</time></trkpt><trkpt lat="39.9396727" lon="21.3451026"><ele>826.0</ele><time>2026-04-27T13:04:06.149Z</time></trkpt><trkpt lat="39.9398217" lon="21.3453871"><ele>825.0</ele><time>2026-04-27T13:04:07.15Z</time></trkpt><trkpt lat="39.939977" lon="21.3456581"><ele>824.0</ele><time>2026-04-27T13:04:08.15Z</time></trkpt><trkpt lat="39.9401187" lon="21.3459204"><ele>823.0</ele><time>2026-04-27T13:04:09.149Z</time></trkpt><trkpt lat="39.9402463" lon="21.3461885"><ele>822.0</ele><time>2026-04-27T13:04:10.15Z</time></trkpt><trkpt lat="39.9403561" lon="21.3464769"><ele>819.0</ele><time>2026-04-27T13:04:11.149Z</time></trkpt><trkpt lat="39.9404238" lon="21.3467724"><ele>816.0</ele><time>2026-04-27T13:04:12.15Z</time></trkpt><trkpt lat="39.940457" lon="21.3470809"><ele>821.5</ele><time>2026-04-27T13:04:13.15Z</time></trkpt><trkpt lat="39.9404843" lon="21.3473841"><ele>827.0</ele><time>2026-04-27T13:04:14.15Z</time></trkpt><trkpt lat="39.9405163" lon="21.3476721"><ele>827.0</ele><time>2026-04-27T13:04:15.149Z</time></trkpt><trkpt lat="39.940563" lon="21.3479475"><ele>827.0</ele><time>2026-04-27T13:04:16.15Z</time></trkpt><trkpt lat="39.9406366" lon="21.348182"><ele>827.0</ele><time>2026-04-27T13:04:17.15Z</time></trkpt><trkpt lat="39.9407399" lon="21.3483857"><ele>829.3333333333334</ele><time>2026-04-27T13:04:18.149Z</time></trkpt><trkpt lat="39.9408924" lon="21.3485671"><ele>831.6666666666667</ele><time>2026-04-27T13:04:19.15Z</time></trkpt><trkpt lat="39.9410912" lon="21.3487155"><ele>834.0</ele><time>2026-04-27T13:04:20.149Z</time></trkpt><trkpt lat="39.9413323" lon="21.3488444"><ele>834.0</ele><time>2026-04-27T13:04:21.149Z</time></trkpt><trkpt lat="39.9415849" lon="21.3489723"><ele>834.0</ele><time>2026-04-27T13:04:22.15Z</time></trkpt><trkpt lat="39.9418393" lon="21.3491003"><ele>834.0</ele><time>2026-04-27T13:04:23.15Z</time></trkpt><trkpt lat="39.942086" lon="21.3492208"><ele>834.0</ele><time>2026-04-27T13:04:24.15Z</time></trkpt><trkpt lat="39.9423311" lon="21.349336"><ele>837.5</ele><time>2026-04-27T13:04:25.15Z</time></trkpt><trkpt lat="39.9425676" lon="21.3494439"><ele>841.0</ele><time>2026-04-27T13:04:26.15Z</time></trkpt><trkpt lat="39.9427984" lon="21.3495502"><ele>841.0</ele><time>2026-04-27T13:04:27.15Z</time></trkpt><trkpt lat="39.9430204" lon="21.3496658"><ele>841.0</ele><time>2026-04-27T13:04:28.149Z</time></trkpt><trkpt lat="39.9432295" lon="21.349796"><ele>841.0</ele><time>2026-04-27T13:04:29.149Z</time></trkpt><trkpt lat="39.9434356" lon="21.3499511"><ele>841.0</ele><time>2026-04-27T13:04:30.149Z</time></trkpt><trkpt lat="39.9436342" lon="21.350112"><ele>841.0</ele><time>2026-04-27T13:04:31.15Z</time></trkpt><trkpt lat="39.9438203" lon="21.3502829"><ele>841.0</ele><time>2026-04-27T13:04:32.149Z</time></trkpt><trkpt lat="39.9440046" lon="21.3504544"><ele>840.0</ele><time>2026-04-27T13:04:33.15Z</time></trkpt><trkpt lat="39.9441666" lon="21.3506315"><ele>839.0</ele><time>2026-04-27T13:04:34.15Z</time></trkpt><trkpt lat="39.9443392" lon="21.350774"><ele>838.0</ele><time>2026-04-27T13:04:35.15Z</time></trkpt><trkpt lat="39.9444955" lon="21.350914"><ele>838.0</ele><time>2026-04-27T13:04:36.15Z</time></trkpt><trkpt lat="39.9446487" lon="21.351013"><ele>838.0</ele><time>2026-04-27T13:04:37.15Z</time></trkpt><trkpt lat="39.9448014" lon="21.3510714"><ele>838.0</ele><time>2026-04-27T13:04:38.15Z</time></trkpt><trkpt lat="39.944979" lon="21.3510859"><ele>838.0</ele><time>2026-04-27T13:04:39.149Z</time></trkpt><trkpt lat="39.9451478" lon="21.351068"><ele>838.0</ele><time>2026-04-27T13:04:40.149Z</time></trkpt><trkpt lat="39.9453126" lon="21.3510562"><ele>838.0</ele><time>2026-04-27T13:04:41.149Z</time></trkpt><trkpt lat="39.9454747" lon="21.3510693"><ele>838.0</ele><time>2026-04-27T13:04:42.149Z</time></trkpt><trkpt lat="39.9456291" lon="21.3511275"><ele>838.0</ele><time>2026-04-27T13:04:43.149Z</time></trkpt><trkpt lat="39.9457662" lon="21.3512238"><ele>838.0</ele><time>2026-04-27T13:04:44.149Z</time></trkpt><trkpt lat="39.9458984" lon="21.3513814"><ele>831.6666666666666</ele><time>2026-04-27T13:04:45.15Z</time></trkpt><trkpt lat="39.9460357" lon="21.351568"><ele>825.3333333333333</ele><time>2026-04-27T13:04:46.15Z</time></trkpt><trkpt lat="39.9461625" lon="21.3518502"><ele>819.0</ele><time>2026-04-27T13:04:47.15Z</time></trkpt><trkpt lat="39.9463044" lon="21.3521295"><ele>817.5</ele><time>2026-04-27T13:04:48.149Z</time></trkpt><trkpt lat="39.9464665" lon="21.3524009"><ele>816.0</ele><time>2026-04-27T13:04:49.15Z</time></trkpt><trkpt lat="39.9466177" lon="21.352676"><ele>816.5</ele><time>2026-04-27T13:04:50.149Z</time></trkpt><trkpt lat="39.9467637" lon="21.3529279"><ele>817.0</ele><time>2026-04-27T13:04:51.149Z</time></trkpt><trkpt lat="39.9468936" lon="21.3531703"><ele>817.0</ele><time>2026-04-27T13:04:52.149Z</time></trkpt><trkpt lat="39.947019" lon="21.3533956"><ele>817.0</ele><time>2026-04-27T13:04:53.15Z</time></trkpt><trkpt lat="39.947139" lon="21.3535863"><ele>817.0</ele><time>2026-04-27T13:04:54.149Z</time></trkpt><trkpt lat="39.9472752" lon="21.353726"><ele>817.0</ele><time>2026-04-27T13:04:55.15Z</time></trkpt><trkpt lat="39.9474322" lon="21.3538122"><ele>817.0</ele><time>2026-04-27T13:04:56.15Z</time></trkpt><trkpt lat="39.9476165" lon="21.3538519"><ele>817.0</ele><time>2026-04-27T13:04:57.15Z</time></trkpt><trkpt lat="39.9478034" lon="21.3538655"><ele>816.0</ele><time>2026-04-27T13:04:58.15Z</time></trkpt><trkpt lat="39.9479785" lon="21.3538665"><ele>815.0</ele><time>2026-04-27T13:04:59.15Z</time></trkpt><trkpt lat="39.9481491" lon="21.353929"><ele>814.0</ele><time>2026-04-27T13:05:00.149Z</time></trkpt><trkpt lat="39.9483175" lon="21.3540215"><ele>819.3333333333333</ele><time>2026-04-27T13:05:01.15Z</time></trkpt><trkpt lat="39.9484933" lon="21.3541767"><ele>824.6666666666667</ele><time>2026-04-27T13:05:02.15Z</time></trkpt><trkpt lat="39.9486681" lon="21.3543533"><ele>830.0</ele><time>2026-04-27T13:05:03.149Z</time></trkpt><trkpt lat="39.9488364" lon="21.3545321"><ele>830.0</ele><time>2026-04-27T13:05:04.149Z</time></trkpt><trkpt lat="39.9489943" lon="21.3547061"><ele>830.0</ele><time>2026-04-27T13:05:05.149Z</time></trkpt><trkpt lat="39.9491472" lon="21.3548645"><ele>830.0</ele><time>2026-04-27T13:05:06.15Z</time></trkpt><trkpt lat="39.949295" lon="21.355009"><ele>833.0</ele><time>2026-04-27T13:05:07.15Z</time></trkpt><trkpt lat="39.9494357" lon="21.3551545"><ele>836.0</ele><time>2026-04-27T13:05:08.149Z</time></trkpt><trkpt lat="39.9495718" lon="21.355302"><ele>839.0</ele><time>2026-04-27T13:05:09.15Z</time></trkpt><trkpt lat="39.9497137" lon="21.3554359"><ele>838.3333333333334</ele><time>2026-04-27T13:05:10.149Z</time></trkpt><trkpt lat="39.9498587" lon="21.3555534"><ele>837.6666666666667</ele><time>2026-04-27T13:05:11.15Z</time></trkpt><trkpt lat="39.9500287" lon="21.3556365"><ele>837.0</ele><time>2026-04-27T13:05:12.15Z</time></trkpt><trkpt lat="39.9502154" lon="21.3556944"><ele>837.0</ele><time>2026-04-27T13:05:13.149Z</time></trkpt><trkpt lat="39.9504249" lon="21.3557408"><ele>837.0</ele><time>2026-04-27T13:05:14.15Z</time></trkpt><trkpt lat="39.9506352" lon="21.3557814"><ele>837.0</ele><time>2026-04-27T13:05:15.15Z</time></trkpt><trkpt lat="39.9508489" lon="21.3558163"><ele>839.6666666666667</ele><time>2026-04-27T13:05:16.149Z</time></trkpt><trkpt lat="39.9510563" lon="21.3558555"><ele>842.3333333333334</ele><time>2026-04-27T13:05:17.15Z</time></trkpt><trkpt lat="39.9512479" lon="21.3558936"><ele>845.0</ele><time>2026-04-27T13:05:18.149Z</time></trkpt><trkpt lat="39.9514129" lon="21.3559232"><ele>845.0</ele><time>2026-04-27T13:05:19.149Z</time></trkpt><trkpt lat="39.9515619" lon="21.3559604"><ele>845.0</ele><time>2026-04-27T13:05:20.15Z</time></trkpt><trkpt lat="39.9516926" lon="21.3560174"><ele>845.0</ele><time>2026-04-27T13:05:21.15Z</time></trkpt><trkpt lat="39.9518114" lon="21.3561301"><ele>845.0</ele><time>2026-04-27T13:05:22.149Z</time></trkpt><trkpt lat="39.9519093" lon="21.3562719"><ele>842.3333333333334</ele><time>2026-04-27T13:05:23.149Z</time></trkpt><trkpt lat="39.951977" lon="21.3564674"><ele>839.6666666666667</ele><time>2026-04-27T13:05:24.149Z</time></trkpt><trkpt lat="39.9520199" lon="21.3566673"><ele>837.0</ele><time>2026-04-27T13:05:25.15Z</time></trkpt><trkpt lat="39.9520699" lon="21.3568639"><ele>837.0</ele><time>2026-04-27T13:05:26.15Z</time></trkpt><trkpt lat="39.9521341" lon="21.3570465"><ele>837.0</ele><time>2026-04-27T13:05:27.149Z</time></trkpt><trkpt lat="39.9522185" lon="21.3571946"><ele>837.0</ele><time>2026-04-27T13:05:28.15Z</time></trkpt><trkpt lat="39.952326" lon="21.3573117"><ele>837.0</ele><time>2026-04-27T13:05:29.15Z</time></trkpt><trkpt lat="39.9524725" lon="21.3573848"><ele>835.6666666666667</ele><time>2026-04-27T13:05:30.15Z</time></trkpt><trkpt lat="39.952639" lon="21.357446"><ele>834.3333333333334</ele><time>2026-04-27T13:05:31.15Z</time></trkpt><trkpt lat="39.9528314" lon="21.3574884"><ele>833.0</ele><time>2026-04-27T13:05:32.15Z</time></trkpt><trkpt lat="39.9530413" lon="21.3575384"><ele>833.0</ele><time>2026-04-27T13:05:33.15Z</time></trkpt><trkpt lat="39.9532488" lon="21.3575892"><ele>833.0</ele><time>2026-04-27T13:05:34.149Z</time></trkpt><trkpt lat="39.9534567" lon="21.3576388"><ele>833.0</ele><time>2026-04-27T13:05:35.149Z</time></trkpt><trkpt lat="39.9536578" lon="21.3576847"><ele>830.6666666666667</ele><time>2026-04-27T13:05:36.149Z</time></trkpt><trkpt lat="39.9538534" lon="21.3577339"><ele>828.3333333333333</ele><time>2026-04-27T13:05:37.149Z</time></trkpt><trkpt lat="39.9540429" lon="21.3577741"><ele>826.0</ele><time>2026-04-27T13:05:38.15Z</time></trkpt><trkpt lat="39.9542268" lon="21.3578123"><ele>825.6666666666666</ele><time>2026-04-27T13:05:39.15Z</time></trkpt><trkpt lat="39.9543965" lon="21.3578401"><ele>825.3333333333333</ele><time>2026-04-27T13:05:40.149Z</time></trkpt><trkpt lat="39.9545486" lon="21.3578406"><ele>825.0</ele><time>2026-04-27T13:05:41.149Z</time></trkpt><trkpt lat="39.9546884" lon="21.3577878"><ele>825.0</ele><time>2026-04-27T13:05:42.149Z</time></trkpt><trkpt lat="39.9548121" lon="21.357703"><ele>825.0</ele><time>2026-04-27T13:05:43.15Z</time></trkpt><trkpt lat="39.9549184" lon="21.3576092"><ele>825.0</ele><time>2026-04-27T13:05:44.15Z</time></trkpt><trkpt lat="39.9550165" lon="21.3575087"><ele>825.0</ele><time>2026-04-27T13:05:45.15Z</time></trkpt><trkpt lat="39.9551205" lon="21.3574191"><ele>825.0</ele><time>2026-04-27T13:05:46.15Z</time></trkpt><trkpt lat="39.9552408" lon="21.357351"><ele>825.0</ele><time>2026-04-27T13:05:47.149Z</time></trkpt><trkpt lat="39.9553822" lon="21.3573321"><ele>825.0</ele><time>2026-04-27T13:05:48.15Z</time></trkpt><trkpt lat="39.9555391" lon="21.3573561"><ele>825.0</ele><time>2026-04-27T13:05:49.149Z</time></trkpt><trkpt lat="39.9557014" lon="21.3574036"><ele>825.0</ele><time>2026-04-27T13:05:50.15Z</time></trkpt><trkpt lat="39.9558547" lon="21.3574399"><ele>825.0</ele><time>2026-04-27T13:05:51.149Z</time></trkpt><trkpt lat="39.9559987" lon="21.3574816"><ele>825.0</ele><time>2026-04-27T13:05:52.149Z</time></trkpt><trkpt lat="39.9561245" lon="21.3575285"><ele>825.0</ele><time>2026-04-27T13:05:53.15Z</time></trkpt><trkpt lat="39.956223" lon="21.3575953"><ele>823.6</ele><time>2026-04-27T13:05:54.15Z</time></trkpt><trkpt lat="39.9562694" lon="21.3577031"><ele>822.2</ele><time>2026-04-27T13:05:55.15Z</time></trkpt><trkpt lat="39.9562828" lon="21.3578336"><ele>820.8</ele><time>2026-04-27T13:05:56.15Z</time></trkpt><trkpt lat="39.9562526" lon="21.3579609"><ele>819.4</ele><time>2026-04-27T13:05:57.15Z</time></trkpt><trkpt lat="39.9561837" lon="21.3580638"><ele>818.0</ele><time>2026-04-27T13:05:58.149Z</time></trkpt><trkpt lat="39.9560757" lon="21.3581448"><ele>818.0</ele><time>2026-04-27T13:05:59.149Z</time></trkpt><trkpt lat="39.9559483" lon="21.3582016"><ele>818.0</ele><time>2026-04-27T13:06:00.149Z</time></trkpt><trkpt lat="39.9558055" lon="21.35827"><ele>818.0</ele><time>2026-04-27T13:06:01.149Z</time></trkpt><trkpt lat="39.9556635" lon="21.3583577"><ele>818.0</ele><time>2026-04-27T13:06:02.15Z</time></trkpt><trkpt lat="39.9555468" lon="21.3585065"><ele>816.3333333333334</ele><time>2026-04-27T13:06:03.15Z</time></trkpt><trkpt lat="39.9554409" lon="21.3586654"><ele>814.6666666666667</ele><time>2026-04-27T13:06:04.15Z</time></trkpt><trkpt lat="39.9553391" lon="21.3588207"><ele>813.0</ele><time>2026-04-27T13:06:05.15Z</time></trkpt><trkpt lat="39.9552375" lon="21.3589821"><ele>812.6666666666667</ele><time>2026-04-27T13:06:06.149Z</time></trkpt><trkpt lat="39.9551471" lon="21.3591578"><ele>812.3333333333334</ele><time>2026-04-27T13:06:07.15Z</time></trkpt><trkpt lat="39.9550515" lon="21.3593188"><ele>812.0</ele><time>2026-04-27T13:06:08.15Z</time></trkpt><trkpt lat="39.9549615" lon="21.3594806"><ele>812.0</ele><time>2026-04-27T13:06:09.15Z</time></trkpt><trkpt lat="39.9548684" lon="21.3596313"><ele>812.0</ele><time>2026-04-27T13:06:10.15Z</time></trkpt><trkpt lat="39.9547794" lon="21.3597698"><ele>812.0</ele><time>2026-04-27T13:06:11.15Z</time></trkpt><trkpt lat="39.9546939" lon="21.3599103"><ele>812.0</ele><time>2026-04-27T13:06:12.149Z</time></trkpt><trkpt lat="39.9546149" lon="21.3600467"><ele>807.75</ele><time>2026-04-27T13:06:13.149Z</time></trkpt><trkpt lat="39.9545514" lon="21.3601887"><ele>803.5</ele><time>2026-04-27T13:06:14.15Z</time></trkpt><trkpt lat="39.9544952" lon="21.3603337"><ele>799.25</ele><time>2026-04-27T13:06:15.15Z</time></trkpt><trkpt lat="39.9544532" lon="21.3604897"><ele>795.0</ele><time>2026-04-27T13:06:16.15Z</time></trkpt><trkpt lat="39.9544345" lon="21.360646"><ele>792.5</ele><time>2026-04-27T13:06:17.149Z</time></trkpt><trkpt lat="39.954452" lon="21.3608012"><ele>790.0</ele><time>2026-04-27T13:06:18.15Z</time></trkpt><trkpt lat="39.9544861" lon="21.3609481"><ele>787.5</ele><time>2026-04-27T13:06:19.15Z</time></trkpt><trkpt lat="39.9545465" lon="21.3610955"><ele>785.0</ele><time>2026-04-27T13:06:20.15Z</time></trkpt><trkpt lat="39.9546368" lon="21.3612368"><ele>789.3333333333334</ele><time>2026-04-27T13:06:21.15Z</time></trkpt><trkpt lat="39.9547503" lon="21.3613782"><ele>793.6666666666667</ele><time>2026-04-27T13:06:22.15Z</time></trkpt><trkpt lat="39.9548678" lon="21.3615163"><ele>798.0</ele><time>2026-04-27T13:06:23.15Z</time></trkpt><trkpt lat="39.9550055" lon="21.3616485"><ele>788.3333333333333</ele><time>2026-04-27T13:06:24.149Z</time></trkpt><trkpt lat="39.9551415" lon="21.3617667"><ele>778.6666666666666</ele><time>2026-04-27T13:06:25.15Z</time></trkpt><trkpt lat="39.9552685" lon="21.3618864"><ele>769.0</ele><time>2026-04-27T13:06:26.15Z</time></trkpt><trkpt lat="39.9554005" lon="21.362019"><ele>769.0</ele><time>2026-04-27T13:06:27.15Z</time></trkpt><trkpt lat="39.9555219" lon="21.3621323"><ele>769.0</ele><time>2026-04-27T13:06:28.149Z</time></trkpt><trkpt lat="39.9556365" lon="21.362251"><ele>769.0</ele><time>2026-04-27T13:06:29.15Z</time></trkpt><trkpt lat="39.9557388" lon="21.3623852"><ele>769.0</ele><time>2026-04-27T13:06:30.15Z</time></trkpt><trkpt lat="39.955822" lon="21.3625409"><ele>767.0</ele><time>2026-04-27T13:06:31.15Z</time></trkpt><trkpt lat="39.9558892" lon="21.3627038"><ele>765.0</ele><time>2026-04-27T13:06:32.15Z</time></trkpt><trkpt lat="39.955938" lon="21.3628808"><ele>763.0</ele><time>2026-04-27T13:06:33.15Z</time></trkpt><trkpt lat="39.9559646" lon="21.3630458"><ele>761.0</ele><time>2026-04-27T13:06:34.149Z</time></trkpt><trkpt lat="39.9559827" lon="21.3631887"><ele>761.0</ele><time>2026-04-27T13:06:35.15Z</time></trkpt><trkpt lat="39.9560054" lon="21.3633133"><ele>761.0</ele><time>2026-04-27T13:06:36.15Z</time></trkpt><trkpt lat="39.9560494" lon="21.3634063"><ele>761.0</ele><time>2026-04-27T13:06:37.149Z</time></trkpt><trkpt lat="39.9561135" lon="21.3634652"><ele>761.0</ele><time>2026-04-27T13:06:38.15Z</time></trkpt><trkpt lat="39.9561982" lon="21.3634737"><ele>761.0</ele><time>2026-04-27T13:06:39.149Z</time></trkpt><trkpt lat="39.9562686" lon="21.3634221"><ele>761.0</ele><time>2026-04-27T13:06:40.149Z</time></trkpt><trkpt lat="39.9563182" lon="21.3633375"><ele>761.0</ele><time>2026-04-27T13:06:41.15Z</time></trkpt><trkpt lat="39.956329" lon="21.3632242"><ele>761.0</ele><time>2026-04-27T13:06:42.15Z</time></trkpt><trkpt lat="39.9563" lon="21.3630979"><ele>761.0</ele><time>2026-04-27T13:06:43.149Z</time></trkpt><trkpt lat="39.9562346" lon="21.3629396"><ele>761.0</ele><time>2026-04-27T13:06:44.149Z</time></trkpt><trkpt lat="39.9561504" lon="21.3627643"><ele>760.3333333333333</ele><time>2026-04-27T13:06:45.149Z</time></trkpt><trkpt lat="39.9560691" lon="21.3625495"><ele>759.6666666666666</ele><time>2026-04-27T13:06:46.149Z</time></trkpt><trkpt lat="39.9560053" lon="21.3623484"><ele>759.0</ele><time>2026-04-27T13:06:47.149Z</time></trkpt><trkpt lat="39.9559264" lon="21.3621504"><ele>762.3333333333333</ele><time>2026-04-27T13:06:48.149Z</time></trkpt><trkpt lat="39.9558336" lon="21.361964"><ele>765.6666666666666</ele><time>2026-04-27T13:06:49.149Z</time></trkpt><trkpt lat="39.9557354" lon="21.3617973"><ele>769.0</ele><time>2026-04-27T13:06:50.15Z</time></trkpt><trkpt lat="39.9556395" lon="21.3616346"><ele>769.0</ele><time>2026-04-27T13:06:51.15Z</time></trkpt><trkpt lat="39.9555495" lon="21.361485"><ele>769.0</ele><time>2026-04-27T13:06:52.15Z</time></trkpt><trkpt lat="39.9554723" lon="21.3613376"><ele>769.0</ele><time>2026-04-27T13:06:53.149Z</time></trkpt><trkpt lat="39.9554185" lon="21.3611859"><ele>769.0</ele><time>2026-04-27T13:06:54.15Z</time></trkpt><trkpt lat="39.9553959" lon="21.3610193"><ele>769.5</ele><time>2026-04-27T13:06:55.149Z</time></trkpt><trkpt lat="39.9554071" lon="21.360859"><ele>770.0</ele><time>2026-04-27T13:06:56.15Z</time></trkpt><trkpt lat="39.9554428" lon="21.3607149"><ele>770.5</ele><time>2026-04-27T13:06:57.149Z</time></trkpt><trkpt lat="39.9555126" lon="21.3605899"><ele>771.0</ele><time>2026-04-27T13:06:58.149Z</time></trkpt><trkpt lat="39.9556104" lon="21.3604997"><ele>772.0</ele><time>2026-04-27T13:06:59.149Z</time></trkpt><trkpt lat="39.9557228" lon="21.3604319"><ele>773.0</ele><time>2026-04-27T13:07:00.149Z</time></trkpt><trkpt lat="39.9558517" lon="21.3604191"><ele>774.0</ele><time>2026-04-27T13:07:01.149Z</time></trkpt><trkpt lat="39.9559911" lon="21.3604807"><ele>775.0</ele><time>2026-04-27T13:07:02.149Z</time></trkpt><trkpt lat="39.9561205" lon="21.3605732"><ele>775.0</ele><time>2026-04-27T13:07:03.149Z</time></trkpt><trkpt lat="39.9562409" lon="21.3607008"><ele>775.0</ele><time>2026-04-27T13:07:04.149Z</time></trkpt><trkpt lat="39.9563621" lon="21.3608756"><ele>775.0</ele><time>2026-04-27T13:07:05.149Z</time></trkpt><trkpt lat="39.9564909" lon="21.3610549"><ele>775.0</ele><time>2026-04-27T13:07:06.149Z</time></trkpt><trkpt lat="39.9566321" lon="21.3612408"><ele>775.0</ele><time>2026-04-27T13:07:07.15Z</time></trkpt><trkpt lat="39.9567621" lon="21.361426"><ele>775.0</ele><time>2026-04-27T13:07:08.15Z</time></trkpt><trkpt lat="39.9568893" lon="21.3616094"><ele>774.6666666666666</ele><time>2026-04-27T13:07:09.15Z</time></trkpt><trkpt lat="39.9570176" lon="21.3617903"><ele>774.3333333333333</ele><time>2026-04-27T13:07:10.149Z</time></trkpt><trkpt lat="39.9571388" lon="21.3619732"><ele>774.0</ele><time>2026-04-27T13:07:11.15Z</time></trkpt><trkpt lat="39.9572669" lon="21.36215"><ele>768.0</ele><time>2026-04-27T13:07:12.15Z</time></trkpt><trkpt lat="39.9573924" lon="21.3623305"><ele>762.0</ele><time>2026-04-27T13:07:13.149Z</time></trkpt><trkpt lat="39.957534" lon="21.3624969"><ele>756.0</ele><time>2026-04-27T13:07:14.15Z</time></trkpt><trkpt lat="39.9576958" lon="21.3626313"><ele>756.0</ele><time>2026-04-27T13:07:15.149Z</time></trkpt><trkpt lat="39.9578719" lon="21.3627503"><ele>756.0</ele><time>2026-04-27T13:07:16.149Z</time></trkpt><trkpt lat="39.9580611" lon="21.3628432"><ele>756.0</ele><time>2026-04-27T13:07:17.149Z</time></trkpt><trkpt lat="39.958249" lon="21.3629326"><ele>751.0</ele><time>2026-04-27T13:07:18.15Z</time></trkpt><trkpt lat="39.9584223" lon="21.3630381"><ele>746.0</ele><time>2026-04-27T13:07:19.15Z</time></trkpt><trkpt lat="39.9585845" lon="21.363176"><ele>741.0</ele><time>2026-04-27T13:07:20.149Z</time></trkpt><trkpt lat="39.9587171" lon="21.363345"><ele>741.0</ele><time>2026-04-27T13:07:21.15Z</time></trkpt><trkpt lat="39.9588361" lon="21.3635437"><ele>741.0</ele><time>2026-04-27T13:07:22.149Z</time></trkpt><trkpt lat="39.958955" lon="21.363752"><ele>741.0</ele><time>2026-04-27T13:07:23.149Z</time></trkpt><trkpt lat="39.9590889" lon="21.3639431"><ele>738.3333333333334</ele><time>2026-04-27T13:07:24.15Z</time></trkpt><trkpt lat="39.959233" lon="21.3641189"><ele>735.6666666666667</ele><time>2026-04-27T13:07:25.15Z</time></trkpt><trkpt lat="39.9593747" lon="21.3643026"><ele>733.0</ele><time>2026-04-27T13:07:26.15Z</time></trkpt><trkpt lat="39.9595252" lon="21.364474"><ele>733.0</ele><time>2026-04-27T13:07:27.15Z</time></trkpt><trkpt lat="39.9596881" lon="21.3646247"><ele>733.0</ele><time>2026-04-27T13:07:28.149Z</time></trkpt><trkpt lat="39.9598594" lon="21.3647511"><ele>733.0</ele><time>2026-04-27T13:07:29.149Z</time></trkpt><trkpt lat="39.9600373" lon="21.364855"><ele>728.3333333333334</ele><time>2026-04-27T13:07:30.149Z</time></trkpt><trkpt lat="39.9602175" lon="21.364975"><ele>723.6666666666666</ele><time>2026-04-27T13:07:31.15Z</time></trkpt><trkpt lat="39.9603966" lon="21.3650965"><ele>719.0</ele><time>2026-04-27T13:07:32.149Z</time></trkpt><trkpt lat="39.9605637" lon="21.3652445"><ele>719.0</ele><time>2026-04-27T13:07:33.15Z</time></trkpt><trkpt lat="39.9607338" lon="21.3653892"><ele>719.0</ele><time>2026-04-27T13:07:34.15Z</time></trkpt><trkpt lat="39.9609048" lon="21.3655341"><ele>719.0</ele><time>2026-04-27T13:07:35.149Z</time></trkpt><trkpt lat="39.9610716" lon="21.3656769"><ele>716.0</ele><time>2026-04-27T13:07:36.15Z</time></trkpt><trkpt lat="39.9612268" lon="21.3658161"><ele>713.0</ele><time>2026-04-27T13:07:37.149Z</time></trkpt><trkpt lat="39.9613736" lon="21.3659562"><ele>710.0</ele><time>2026-04-27T13:07:38.15Z</time></trkpt><trkpt lat="39.9614881" lon="21.3661158"><ele>710.0</ele><time>2026-04-27T13:07:39.15Z</time></trkpt><trkpt lat="39.9615649" lon="21.3663158"><ele>710.0</ele><time>2026-04-27T13:07:40.15Z</time></trkpt><trkpt lat="39.9616178" lon="21.3665347"><ele>710.0</ele><time>2026-04-27T13:07:41.149Z</time></trkpt><trkpt lat="39.9616457" lon="21.3667802"><ele>708.3333333333333</ele><time>2026-04-27T13:07:42.149Z</time></trkpt><trkpt lat="39.9616547" lon="21.3670412"><ele>706.6666666666666</ele><time>2026-04-27T13:07:43.15Z</time></trkpt><trkpt lat="39.9616611" lon="21.3673048"><ele>705.0</ele><time>2026-04-27T13:07:44.15Z</time></trkpt><trkpt lat="39.961662" lon="21.3675656"><ele>704.3333333333334</ele><time>2026-04-27T13:07:45.15Z</time></trkpt><trkpt lat="39.9616748" lon="21.3677972"><ele>703.6666666666667</ele><time>2026-04-27T13:07:46.15Z</time></trkpt><trkpt lat="39.9616933" lon="21.3680059"><ele>703.0</ele><time>2026-04-27T13:07:47.149Z</time></trkpt><trkpt lat="39.9617292" lon="21.3681759"><ele>698.75</ele><time>2026-04-27T13:07:48.149Z</time></trkpt><trkpt lat="39.9617949" lon="21.368303"><ele>694.5</ele><time>2026-04-27T13:07:49.15Z</time></trkpt><trkpt lat="39.9618888" lon="21.368395"><ele>690.25</ele><time>2026-04-27T13:07:50.149Z</time></trkpt><trkpt lat="39.9619985" lon="21.368459"><ele>686.0</ele><time>2026-04-27T13:07:51.15Z</time></trkpt><trkpt lat="39.9621161" lon="21.3684853"><ele>686.0</ele><time>2026-04-27T13:07:52.149Z</time></trkpt><trkpt lat="39.9622302" lon="21.3684799"><ele>686.0</ele><time>2026-04-27T13:07:53.149Z</time></trkpt><trkpt lat="39.9623316" lon="21.3683966"><ele>686.0</ele><time>2026-04-27T13:07:54.15Z</time></trkpt><trkpt lat="39.9624222" lon="21.3682983"><ele>686.0</ele><time>2026-04-27T13:07:55.149Z</time></trkpt><trkpt lat="39.9625041" lon="21.3681813"><ele>682.75</ele><time>2026-04-27T13:07:56.149Z</time></trkpt><trkpt lat="39.962588" lon="21.3680698"><ele>679.5</ele><time>2026-04-27T13:07:57.149Z</time></trkpt><trkpt lat="39.9626859" lon="21.367954"><ele>676.25</ele><time>2026-04-27T13:07:58.15Z</time></trkpt><trkpt lat="39.9627984" lon="21.367866"><ele>673.0</ele><time>2026-04-27T13:07:59.149Z</time></trkpt><trkpt lat="39.9629214" lon="21.3678233"><ele>673.0</ele><time>2026-04-27T13:08:00.15Z</time></trkpt><trkpt lat="39.9630525" lon="21.3678315"><ele>673.0</ele><time>2026-04-27T13:08:01.149Z</time></trkpt><trkpt lat="39.9632041" lon="21.3679118"><ele>673.0</ele><time>2026-04-27T13:08:02.149Z</time></trkpt><trkpt lat="39.9633559" lon="21.3680305"><ele>670.0</ele><time>2026-04-27T13:08:03.149Z</time></trkpt><trkpt lat="39.9635294" lon="21.3681644"><ele>667.0</ele><time>2026-04-27T13:08:04.15Z</time></trkpt><trkpt lat="39.9637184" lon="21.3683548"><ele>664.0</ele><time>2026-04-27T13:08:05.15Z</time></trkpt><trkpt lat="39.9638922" lon="21.3685294"><ele>664.0</ele><time>2026-04-27T13:08:06.149Z</time></trkpt><trkpt lat="39.964061" lon="21.3686882"><ele>664.0</ele><time>2026-04-27T13:08:07.149Z</time></trkpt><trkpt lat="39.9642167" lon="21.3688486"><ele>664.0</ele><time>2026-04-27T13:08:08.149Z</time></trkpt><trkpt lat="39.9643532" lon="21.3690174"><ele>663.0</ele><time>2026-04-27T13:08:09.149Z</time></trkpt><trkpt lat="39.9644611" lon="21.3692028"><ele>662.0</ele><time>2026-04-27T13:08:10.149Z</time></trkpt><trkpt lat="39.9645415" lon="21.3694022"><ele>661.0</ele><time>2026-04-27T13:08:11.149Z</time></trkpt><trkpt lat="39.9645699" lon="21.3696233"><ele>663.3333333333334</ele><time>2026-04-27T13:08:12.15Z</time></trkpt><trkpt lat="39.9645837" lon="21.3698384"><ele>665.6666666666666</ele><time>2026-04-27T13:08:13.149Z</time></trkpt><trkpt lat="39.9646087" lon="21.3700398"><ele>668.0</ele><time>2026-04-27T13:08:14.149Z</time></trkpt><trkpt lat="39.9646575" lon="21.3702152"><ele>668.0</ele><time>2026-04-27T13:08:15.149Z</time></trkpt><trkpt lat="39.9647347" lon="21.3703686"><ele>668.0</ele><time>2026-04-27T13:08:16.15Z</time></trkpt><trkpt lat="39.9648325" lon="21.3704728"><ele>668.0</ele><time>2026-04-27T13:08:17.15Z</time></trkpt><trkpt lat="39.9649604" lon="21.3705297"><ele>668.0</ele><time>2026-04-27T13:08:18.15Z</time></trkpt><trkpt lat="39.9651006" lon="21.370541"><ele>663.75</ele><time>2026-04-27T13:08:19.149Z</time></trkpt><trkpt lat="39.9652384" lon="21.3704933"><ele>659.5</ele><time>2026-04-27T13:08:20.149Z</time></trkpt><trkpt lat="39.9653647" lon="21.3704113"><ele>655.25</ele><time>2026-04-27T13:08:21.15Z</time></trkpt><trkpt lat="39.9654669" lon="21.3702857"><ele>651.0</ele><time>2026-04-27T13:08:22.149Z</time></trkpt><trkpt lat="39.9655278" lon="21.3701265"><ele>651.0</ele><time>2026-04-27T13:08:23.15Z</time></trkpt><trkpt lat="39.9655435" lon="21.3699558"><ele>651.0</ele><time>2026-04-27T13:08:24.15Z</time></trkpt><trkpt lat="39.9655149" lon="21.3697585"><ele>651.0</ele><time>2026-04-27T13:08:25.15Z</time></trkpt><trkpt lat="39.9654447" lon="21.3695749"><ele>651.0</ele><time>2026-04-27T13:08:26.15Z</time></trkpt><trkpt lat="39.9653543" lon="21.3694241"><ele>647.6666666666666</ele><time>2026-04-27T13:08:27.15Z</time></trkpt><trkpt lat="39.965237" lon="21.3692717"><ele>644.3333333333333</ele><time>2026-04-27T13:08:28.149Z</time></trkpt><trkpt lat="39.9651054" lon="21.3691222"><ele>641.0</ele><time>2026-04-27T13:08:29.149Z</time></trkpt><trkpt lat="39.9649867" lon="21.3689616"><ele>643.3333333333333</ele><time>2026-04-27T13:08:30.15Z</time></trkpt><trkpt lat="39.9648674" lon="21.3687984"><ele>645.6666666666666</ele><time>2026-04-27T13:08:31.149Z</time></trkpt><trkpt lat="39.9647482" lon="21.3686327"><ele>648.0</ele><time>2026-04-27T13:08:32.15Z</time></trkpt><trkpt lat="39.9646336" lon="21.3684691"><ele>648.0</ele><time>2026-04-27T13:08:33.149Z</time></trkpt><trkpt lat="39.964529" lon="21.3683096"><ele>648.0</ele><time>2026-04-27T13:08:34.149Z</time></trkpt><trkpt lat="39.9644413" lon="21.3681318"><ele>648.0</ele><time>2026-04-27T13:08:35.15Z</time></trkpt><trkpt lat="39.9643788" lon="21.3679424"><ele>645.6666666666666</ele><time>2026-04-27T13:08:36.15Z</time></trkpt><trkpt lat="39.9643441" lon="21.3677466"><ele>643.3333333333333</ele><time>2026-04-27T13:08:37.15Z</time></trkpt><trkpt lat="39.9643395" lon="21.3675563"><ele>641.0</ele><time>2026-04-27T13:08:38.15Z</time></trkpt><trkpt lat="39.9644325" lon="21.3673778"><ele>641.0</ele><time>2026-04-27T13:08:39.15Z</time></trkpt><trkpt lat="39.9645173" lon="21.3672029"><ele>641.0</ele><time>2026-04-27T13:08:40.149Z</time></trkpt><trkpt lat="39.9646375" lon="21.367111"><ele>641.0</ele><time>2026-04-27T13:08:41.149Z</time></trkpt><trkpt lat="39.9647686" lon="21.3670104"><ele>644.3333333333333</ele><time>2026-04-27T13:08:42.149Z</time></trkpt><trkpt lat="39.9649237" lon="21.3669647"><ele>647.6666666666666</ele><time>2026-04-27T13:08:43.15Z</time></trkpt><trkpt lat="39.9651211" lon="21.3670554"><ele>651.0</ele><time>2026-04-27T13:08:44.149Z</time></trkpt><trkpt lat="39.9653013" lon="21.3671764"><ele>647.0</ele><time>2026-04-27T13:08:45.149Z</time></trkpt><trkpt lat="39.9655015" lon="21.3673003"><ele>643.0</ele><time>2026-04-27T13:08:46.15Z</time></trkpt><trkpt lat="39.9656951" lon="21.3674745"><ele>642.0</ele><time>2026-04-27T13:08:47.15Z</time></trkpt><trkpt lat="39.9659076" lon="21.3675989"><ele>641.0</ele><time>2026-04-27T13:08:48.149Z</time></trkpt><trkpt lat="39.9661467" lon="21.3676944"><ele>641.0</ele><time>2026-04-27T13:08:49.15Z</time></trkpt><trkpt lat="39.9663974" lon="21.367776"><ele>641.0</ele><time>2026-04-27T13:08:50.149Z</time></trkpt><trkpt lat="39.966646" lon="21.367851"><ele>646.5</ele><time>2026-04-27T13:08:51.149Z</time></trkpt><trkpt lat="39.9668882" lon="21.3679255"><ele>652.0</ele><time>2026-04-27T13:08:52.15Z</time></trkpt><trkpt lat="39.9671308" lon="21.36801"><ele>642.5</ele><time>2026-04-27T13:08:53.149Z</time></trkpt><trkpt lat="39.9673566" lon="21.3680877"><ele>633.0</ele><time>2026-04-27T13:08:54.15Z</time></trkpt><trkpt lat="39.9675754" lon="21.3681614"><ele>633.0</ele><time>2026-04-27T13:08:55.15Z</time></trkpt><trkpt lat="39.9677866" lon="21.3682238"><ele>633.0</ele><time>2026-04-27T13:08:56.15Z</time></trkpt><trkpt lat="39.9679849" lon="21.3682693"><ele>633.0</ele><time>2026-04-27T13:08:57.149Z</time></trkpt><trkpt lat="39.9681679" lon="21.3682799"><ele>633.0</ele><time>2026-04-27T13:08:58.149Z</time></trkpt><trkpt lat="39.9683359" lon="21.3682483"><ele>633.0</ele><time>2026-04-27T13:08:59.15Z</time></trkpt><trkpt lat="39.9684928" lon="21.3681457"><ele>633.0</ele><time>2026-04-27T13:09:00.149Z</time></trkpt><trkpt lat="39.9686375" lon="21.36799"><ele>634.3333333333334</ele><time>2026-04-27T13:09:01.15Z</time></trkpt><trkpt lat="39.968764" lon="21.3678282"><ele>635.6666666666667</ele><time>2026-04-27T13:09:02.15Z</time></trkpt><trkpt lat="39.9688865" lon="21.3676796"><ele>637.0</ele><time>2026-04-27T13:09:03.15Z</time></trkpt><trkpt lat="39.9690283" lon="21.3675574"><ele>637.0</ele><time>2026-04-27T13:09:04.149Z</time></trkpt><trkpt lat="39.9691783" lon="21.3674649"><ele>637.0</ele><time>2026-04-27T13:09:05.15Z</time></trkpt><trkpt lat="39.9693468" lon="21.3674807"><ele>637.0</ele><time>2026-04-27T13:09:06.15Z</time></trkpt><trkpt lat="39.9695159" lon="21.3675406"><ele>636.0</ele><time>2026-04-27T13:09:07.15Z</time></trkpt><trkpt lat="39.9696837" lon="21.367628"><ele>635.0</ele><time>2026-04-27T13:09:08.149Z</time></trkpt><trkpt lat="39.9698403" lon="21.3677628"><ele>634.0</ele><time>2026-04-27T13:09:09.149Z</time></trkpt><trkpt lat="39.9699871" lon="21.3679121"><ele>629.3333333333334</ele><time>2026-04-27T13:09:10.15Z</time></trkpt><trkpt lat="39.9701349" lon="21.3680359"><ele>624.6666666666666</ele><time>2026-04-27T13:09:11.149Z</time></trkpt><trkpt lat="39.9703008" lon="21.3681055"><ele>620.0</ele><time>2026-04-27T13:09:12.149Z</time></trkpt><trkpt lat="39.9704938" lon="21.3681281"><ele>620.0</ele><time>2026-04-27T13:09:13.15Z</time></trkpt><trkpt lat="39.9706991" lon="21.3681329"><ele>620.0</ele><time>2026-04-27T13:09:14.15Z</time></trkpt><trkpt lat="39.9709034" lon="21.368128"><ele>620.0</ele><time>2026-04-27T13:09:15.149Z</time></trkpt><trkpt lat="39.9710957" lon="21.3681577"><ele>620.3333333333333</ele><time>2026-04-27T13:09:16.149Z</time></trkpt><trkpt lat="39.971285" lon="21.3682284"><ele>620.6666666666666</ele><time>2026-04-27T13:09:17.15Z</time></trkpt><trkpt lat="39.9714539" lon="21.3683642"><ele>621.0</ele><time>2026-04-27T13:09:18.15Z</time></trkpt><trkpt lat="39.9716341" lon="21.3685068"><ele>617.0</ele><time>2026-04-27T13:09:19.15Z</time></trkpt><trkpt lat="39.9718102" lon="21.368715"><ele>613.0</ele><time>2026-04-27T13:09:20.15Z</time></trkpt><trkpt lat="39.9720024" lon="21.3688885"><ele>613.0</ele><time>2026-04-27T13:09:21.15Z</time></trkpt><trkpt lat="39.9721823" lon="21.3690786"><ele>613.0</ele><time>2026-04-27T13:09:22.15Z</time></trkpt><trkpt lat="39.9723361" lon="21.3692544"><ele>613.0</ele><time>2026-04-27T13:09:23.15Z</time></trkpt><trkpt lat="39.9724763" lon="21.3694454"><ele>614.3333333333334</ele><time>2026-04-27T13:09:24.15Z</time></trkpt><trkpt lat="39.9726078" lon="21.369658"><ele>615.6666666666666</ele><time>2026-04-27T13:09:25.15Z</time></trkpt><trkpt lat="39.9726724" lon="21.3698903"><ele>617.0</ele><time>2026-04-27T13:09:26.149Z</time></trkpt><trkpt lat="39.9727283" lon="21.3701428"><ele>617.6666666666666</ele><time>2026-04-27T13:09:27.149Z</time></trkpt><trkpt lat="39.9727743" lon="21.3704008"><ele>618.3333333333334</ele><time>2026-04-27T13:09:28.149Z</time></trkpt><trkpt lat="39.9728209" lon="21.3706693"><ele>619.0</ele><time>2026-04-27T13:09:29.149Z</time></trkpt><trkpt lat="39.9728655" lon="21.3709294"><ele>619.0</ele><time>2026-04-27T13:09:30.15Z</time></trkpt><trkpt lat="39.972902" lon="21.3711939"><ele>619.0</ele><time>2026-04-27T13:09:31.15Z</time></trkpt><trkpt lat="39.9729302" lon="21.3714755"><ele>619.0</ele><time>2026-04-27T13:09:32.15Z</time></trkpt><trkpt lat="39.9729419" lon="21.3717419"><ele>617.0</ele><time>2026-04-27T13:09:33.149Z</time></trkpt><trkpt lat="39.9729623" lon="21.3720015"><ele>615.0</ele><time>2026-04-27T13:09:34.149Z</time></trkpt><trkpt lat="39.9729874" lon="21.3722633"><ele>613.0</ele><time>2026-04-27T13:09:35.15Z</time></trkpt><trkpt lat="39.9730271" lon="21.3725138"><ele>610.0</ele><time>2026-04-27T13:09:36.15Z</time></trkpt><trkpt lat="39.9730691" lon="21.3727437"><ele>607.0</ele><time>2026-04-27T13:09:37.149Z</time></trkpt><trkpt lat="39.9731089" lon="21.3729606"><ele>604.0</ele><time>2026-04-27T13:09:38.149Z</time></trkpt><trkpt lat="39.9731532" lon="21.3731553"><ele>602.5</ele><time>2026-04-27T13:09:39.15Z</time></trkpt><trkpt lat="39.973205" lon="21.3733294"><ele>601.0</ele><time>2026-04-27T13:09:40.149Z</time></trkpt><trkpt lat="39.9732827" lon="21.3734856"><ele>599.5</ele><time>2026-04-27T13:09:41.15Z</time></trkpt><trkpt lat="39.9733842" lon="21.3736173"><ele>598.0</ele><time>2026-04-27T13:09:42.15Z</time></trkpt><trkpt lat="39.9735107" lon="21.373723"><ele>598.0</ele><time>2026-04-27T13:09:43.15Z</time></trkpt><trkpt lat="39.9736664" lon="21.3737886"><ele>598.0</ele><time>2026-04-27T13:09:44.15Z</time></trkpt><trkpt lat="39.9738296" lon="21.3738042"><ele>598.0</ele><time>2026-04-27T13:09:45.149Z</time></trkpt><trkpt lat="39.9739993" lon="21.3737814"><ele>598.0</ele><time>2026-04-27T13:09:46.149Z</time></trkpt><trkpt lat="39.9741702" lon="21.3737324"><ele>598.0</ele><time>2026-04-27T13:09:47.15Z</time></trkpt><trkpt lat="39.9743404" lon="21.373665"><ele>598.0</ele><time>2026-04-27T13:09:48.15Z</time></trkpt><trkpt lat="39.9745098" lon="21.3735933"><ele>594.3333333333334</ele><time>2026-04-27T13:09:49.15Z</time></trkpt><trkpt lat="39.9746805" lon="21.3735308"><ele>590.6666666666666</ele><time>2026-04-27T13:09:50.15Z</time></trkpt><trkpt lat="39.9748592" lon="21.3734711"><ele>587.0</ele><time>2026-04-27T13:09:51.15Z</time></trkpt><trkpt lat="39.9750423" lon="21.373421"><ele>584.6666666666666</ele><time>2026-04-27T13:09:52.15Z</time></trkpt><trkpt lat="39.9752427" lon="21.3733635"><ele>582.3333333333334</ele><time>2026-04-27T13:09:53.149Z</time></trkpt><trkpt lat="39.9754476" lon="21.3733108"><ele>580.0</ele><time>2026-04-27T13:09:54.149Z</time></trkpt><trkpt lat="39.9756679" lon="21.3732698"><ele>576.0</ele><time>2026-04-27T13:09:55.15Z</time></trkpt><trkpt lat="39.9758925" lon="21.3732376"><ele>572.0</ele><time>2026-04-27T13:09:56.149Z</time></trkpt><trkpt lat="39.9761111" lon="21.3732043"><ele>568.0</ele><time>2026-04-27T13:09:57.149Z</time></trkpt><trkpt lat="39.9763203" lon="21.3731598"><ele>568.0</ele><time>2026-04-27T13:09:58.15Z</time></trkpt><trkpt lat="39.9765205" lon="21.373134"><ele>568.0</ele><time>2026-04-27T13:09:59.149Z</time></trkpt><trkpt lat="39.9767228" lon="21.3731321"><ele>568.0</ele><time>2026-04-27T13:10:00.149Z</time></trkpt><trkpt lat="39.9769205" lon="21.3731606"><ele>567.6666666666667</ele><time>2026-04-27T13:10:01.15Z</time></trkpt><trkpt lat="39.9771267" lon="21.3732208"><ele>567.3333333333334</ele><time>2026-04-27T13:10:02.149Z</time></trkpt><trkpt lat="39.9773462" lon="21.3733096"><ele>567.0</ele><time>2026-04-27T13:10:03.15Z</time></trkpt><trkpt lat="39.9775888" lon="21.3734203"><ele>568.0</ele><time>2026-04-27T13:10:04.15Z</time></trkpt><trkpt lat="39.9778362" lon="21.3735271"><ele>569.0</ele><time>2026-04-27T13:10:05.15Z</time></trkpt><trkpt lat="39.9780789" lon="21.3736334"><ele>569.0</ele><time>2026-04-27T13:10:06.149Z</time></trkpt><trkpt lat="39.9783136" lon="21.3737281"><ele>569.0</ele><time>2026-04-27T13:10:07.15Z</time></trkpt><trkpt lat="39.9785437" lon="21.3738162"><ele>561.3333333333333</ele><time>2026-04-27T13:10:08.15Z</time></trkpt><trkpt lat="39.9787595" lon="21.3738881"><ele>553.6666666666666</ele><time>2026-04-27T13:10:09.149Z</time></trkpt><trkpt lat="39.9789616" lon="21.3739358"><ele>546.0</ele><time>2026-04-27T13:10:10.149Z</time></trkpt><trkpt lat="39.9791551" lon="21.3739591"><ele>549.0</ele><time>2026-04-27T13:10:11.15Z</time></trkpt><trkpt lat="39.9793468" lon="21.3739456"><ele>552.0</ele><time>2026-04-27T13:10:12.15Z</time></trkpt><trkpt lat="39.9795475" lon="21.3738891"><ele>555.0</ele><time>2026-04-27T13:10:13.15Z</time></trkpt><trkpt lat="39.9797551" lon="21.3737994"><ele>555.0</ele><time>2026-04-27T13:10:14.15Z</time></trkpt><trkpt lat="39.9799624" lon="21.3737084"><ele>555.0</ele><time>2026-04-27T13:10:15.149Z</time></trkpt><trkpt lat="39.9801686" lon="21.3736242"><ele>555.0</ele><time>2026-04-27T13:10:16.149Z</time></trkpt><trkpt lat="39.9803725" lon="21.3735751"><ele>549.0</ele><time>2026-04-27T13:10:17.149Z</time></trkpt><trkpt lat="39.9805812" lon="21.3735389"><ele>543.0</ele><time>2026-04-27T13:10:18.149Z</time></trkpt><trkpt lat="39.9807945" lon="21.3735127"><ele>537.0</ele><time>2026-04-27T13:10:19.15Z</time></trkpt><trkpt lat="39.9810112" lon="21.3734934"><ele>536.6666666666666</ele><time>2026-04-27T13:10:20.149Z</time></trkpt><trkpt lat="39.9812282" lon="21.3734953"><ele>536.3333333333333</ele><time>2026-04-27T13:10:21.149Z</time></trkpt><trkpt lat="39.9814472" lon="21.3735126"><ele>536.0</ele><time>2026-04-27T13:10:22.149Z</time></trkpt><trkpt lat="39.9816636" lon="21.3735332"><ele>534.3333333333333</ele><time>2026-04-27T13:10:23.149Z</time></trkpt><trkpt lat="39.9818795" lon="21.3735573"><ele>532.6666666666666</ele><time>2026-04-27T13:10:24.15Z</time></trkpt><trkpt lat="39.9820898" lon="21.3735864"><ele>531.0</ele><time>2026-04-27T13:10:25.15Z</time></trkpt><trkpt lat="39.9822874" lon="21.3736224"><ele>531.0</ele><time>2026-04-27T13:10:26.149Z</time></trkpt><trkpt lat="39.9824781" lon="21.3736794"><ele>531.0</ele><time>2026-04-27T13:10:27.149Z</time></trkpt><trkpt lat="39.9826585" lon="21.3737529"><ele>531.0</ele><time>2026-04-27T13:10:28.15Z</time></trkpt><trkpt lat="39.982844" lon="21.3738839"><ele>530.5</ele><time>2026-04-27T13:10:29.15Z</time></trkpt><trkpt lat="39.9830471" lon="21.3740316"><ele>530.0</ele><time>2026-04-27T13:10:30.149Z</time></trkpt><trkpt lat="39.9832434" lon="21.3741995"><ele>527.5</ele><time>2026-04-27T13:10:31.15Z</time></trkpt><trkpt lat="39.9834404" lon="21.37436"><ele>525.0</ele><time>2026-04-27T13:10:32.149Z</time></trkpt><trkpt lat="39.9836388" lon="21.3745189"><ele>525.0</ele><time>2026-04-27T13:10:33.149Z</time></trkpt><trkpt lat="39.983831" lon="21.3746824"><ele>525.0</ele><time>2026-04-27T13:10:34.15Z</time></trkpt><trkpt lat="39.9840193" lon="21.3748474"><ele>525.0</ele><time>2026-04-27T13:10:35.149Z</time></trkpt><trkpt lat="39.9841982" lon="21.3750192"><ele>525.0</ele><time>2026-04-27T13:10:36.149Z</time></trkpt><trkpt lat="39.9843687" lon="21.3752171"><ele>525.0</ele><time>2026-04-27T13:10:37.15Z</time></trkpt><trkpt lat="39.9845255" lon="21.3754476"><ele>525.0</ele><time>2026-04-27T13:10:38.15Z</time></trkpt><trkpt lat="39.9846662" lon="21.3757132"><ele>525.5</ele><time>2026-04-27T13:10:39.149Z</time></trkpt><trkpt lat="39.9847944" lon="21.376"><ele>526.0</ele><time>2026-04-27T13:10:40.149Z</time></trkpt><trkpt lat="39.9849123" lon="21.376299"><ele>526.0</ele><time>2026-04-27T13:10:41.149Z</time></trkpt><trkpt lat="39.9850127" lon="21.3765763"><ele>526.0</ele><time>2026-04-27T13:10:42.149Z</time></trkpt><trkpt lat="39.9850929" lon="21.3768878"><ele>525.0</ele><time>2026-04-27T13:10:43.15Z</time></trkpt><trkpt lat="39.9851425" lon="21.3772279"><ele>524.0</ele><time>2026-04-27T13:10:44.15Z</time></trkpt><trkpt lat="39.9851736" lon="21.3775788"><ele>524.0</ele><time>2026-04-27T13:10:45.149Z</time></trkpt><trkpt lat="39.9851966" lon="21.3779294"><ele>524.0</ele><time>2026-04-27T13:10:46.149Z</time></trkpt><trkpt lat="39.9852146" lon="21.37828"><ele>523.5</ele><time>2026-04-27T13:10:47.149Z</time></trkpt><trkpt lat="39.9852317" lon="21.3786243"><ele>523.0</ele><time>2026-04-27T13:10:48.149Z</time></trkpt><trkpt lat="39.9852495" lon="21.3789706"><ele>521.0</ele><time>2026-04-27T13:10:49.15Z</time></trkpt><trkpt lat="39.9852652" lon="21.3793107"><ele>519.0</ele><time>2026-04-27T13:10:50.15Z</time></trkpt><trkpt lat="39.9852855" lon="21.379647"><ele>517.0</ele><time>2026-04-27T13:10:51.149Z</time></trkpt><trkpt lat="39.9853099" lon="21.3799796"><ele>515.0</ele><time>2026-04-27T13:10:52.15Z</time></trkpt><trkpt lat="39.9853216" lon="21.380312"><ele>517.0</ele><time>2026-04-27T13:10:53.149Z</time></trkpt><trkpt lat="39.9853499" lon="21.3806295"><ele>519.0</ele><time>2026-04-27T13:10:54.149Z</time></trkpt><trkpt lat="39.9853971" lon="21.3809412"><ele>519.0</ele><time>2026-04-27T13:10:55.15Z</time></trkpt><trkpt lat="39.9854758" lon="21.381252"><ele>519.0</ele><time>2026-04-27T13:10:56.149Z</time></trkpt><trkpt lat="39.9855785" lon="21.3815611"><ele>519.5</ele><time>2026-04-27T13:10:57.149Z</time></trkpt><trkpt lat="39.9857082" lon="21.3818626"><ele>520.0</ele><time>2026-04-27T13:10:58.149Z</time></trkpt><trkpt lat="39.9858636" lon="21.3821538"><ele>520.0</ele><time>2026-04-27T13:10:59.149Z</time></trkpt><trkpt lat="39.9860618" lon="21.3824656"><ele>520.0</ele><time>2026-04-27T13:11:00.15Z</time></trkpt><trkpt lat="39.9862751" lon="21.3827683"><ele>520.0</ele><time>2026-04-27T13:11:01.15Z</time></trkpt><trkpt lat="39.9865212" lon="21.3830753"><ele>520.0</ele><time>2026-04-27T13:11:02.149Z</time></trkpt><trkpt lat="39.9867819" lon="21.383361"><ele>520.0</ele><time>2026-04-27T13:11:03.15Z</time></trkpt><trkpt lat="39.9870569" lon="21.3836613"><ele>520.0</ele><time>2026-04-27T13:11:04.15Z</time></trkpt><trkpt lat="39.9873454" lon="21.3839812"><ele>520.5</ele><time>2026-04-27T13:11:05.15Z</time></trkpt><trkpt lat="39.9876254" lon="21.3842973"><ele>521.0</ele><time>2026-04-27T13:11:06.15Z</time></trkpt><trkpt lat="39.9879222" lon="21.3845946"><ele>523.0</ele><time>2026-04-27T13:11:07.15Z</time></trkpt><trkpt lat="39.988192" lon="21.3848688"><ele>525.0</ele><time>2026-04-27T13:11:08.15Z</time></trkpt><trkpt lat="39.9884526" lon="21.3851199"><ele>525.0</ele><time>2026-04-27T13:11:09.15Z</time></trkpt><trkpt lat="39.9887157" lon="21.3853464"><ele>525.0</ele><time>2026-04-27T13:11:10.149Z</time></trkpt><trkpt lat="39.9889744" lon="21.3855391"><ele>542.0</ele><time>2026-04-27T13:11:11.15Z</time></trkpt><trkpt lat="39.9892246" lon="21.3857066"><ele>559.0</ele><time>2026-04-27T13:11:12.15Z</time></trkpt><trkpt lat="39.9894511" lon="21.3858475"><ele>559.0</ele><time>2026-04-27T13:11:13.149Z</time></trkpt><trkpt lat="39.9896725" lon="21.3859579"><ele>559.0</ele><time>2026-04-27T13:11:14.15Z</time></trkpt><trkpt lat="39.9898811" lon="21.3860322"><ele>561.6666666666667</ele><time>2026-04-27T13:11:15.149Z</time></trkpt><trkpt lat="39.9900742" lon="21.3860741"><ele>564.3333333333334</ele><time>2026-04-27T13:11:16.149Z</time></trkpt><trkpt lat="39.9902608" lon="21.3860829"><ele>567.0</ele><time>2026-04-27T13:11:17.15Z</time></trkpt><trkpt lat="39.9904443" lon="21.3860197"><ele>567.0</ele><time>2026-04-27T13:11:18.15Z</time></trkpt><trkpt lat="39.9906316" lon="21.3859043"><ele>567.0</ele><time>2026-04-27T13:11:19.15Z</time></trkpt><trkpt lat="39.9907898" lon="21.3857425"><ele>567.0</ele><time>2026-04-27T13:11:20.15Z</time></trkpt><trkpt lat="39.990935" lon="21.3855753"><ele>568.0</ele><time>2026-04-27T13:11:21.15Z</time></trkpt><trkpt lat="39.9910384" lon="21.3853702"><ele>569.0</ele><time>2026-04-27T13:11:22.15Z</time></trkpt><trkpt lat="39.9911448" lon="21.3851326"><ele>570.0</ele><time>2026-04-27T13:11:23.15Z</time></trkpt><trkpt lat="39.9912594" lon="21.3848914"><ele>563.3333333333334</ele><time>2026-04-27T13:11:24.149Z</time></trkpt><trkpt lat="39.9913778" lon="21.3846555"><ele>556.6666666666667</ele><time>2026-04-27T13:11:25.15Z</time></trkpt><trkpt lat="39.9915108" lon="21.384454"><ele>550.0</ele><time>2026-04-27T13:11:26.15Z</time></trkpt><trkpt lat="39.9916599" lon="21.3842746"><ele>550.3333333333334</ele><time>2026-04-27T13:11:27.149Z</time></trkpt><trkpt lat="39.991823" lon="21.3841467"><ele>550.6666666666666</ele><time>2026-04-27T13:11:28.15Z</time></trkpt><trkpt lat="39.9919869" lon="21.3840326"><ele>551.0</ele><time>2026-04-27T13:11:29.15Z</time></trkpt><trkpt lat="39.9921786" lon="21.3840228"><ele>551.0</ele><time>2026-04-27T13:11:30.15Z</time></trkpt><trkpt lat="39.9923967" lon="21.3840323"><ele>551.0</ele><time>2026-04-27T13:11:31.149Z</time></trkpt><trkpt lat="39.9926406" lon="21.3840505"><ele>549.0</ele><time>2026-04-27T13:11:32.149Z</time></trkpt><trkpt lat="39.9928966" lon="21.3840853"><ele>547.0</ele><time>2026-04-27T13:11:33.149Z</time></trkpt><trkpt lat="39.9931513" lon="21.3841205"><ele>542.5</ele><time>2026-04-27T13:11:34.149Z</time></trkpt><trkpt lat="39.9934215" lon="21.3841431"><ele>538.0</ele><time>2026-04-27T13:11:35.15Z</time></trkpt><trkpt lat="39.9936845" lon="21.3841701"><ele>538.0</ele><time>2026-04-27T13:11:36.149Z</time></trkpt><trkpt lat="39.9939287" lon="21.3841832"><ele>538.0</ele><time>2026-04-27T13:11:37.149Z</time></trkpt><trkpt lat="39.9941797" lon="21.3842096"><ele>534.5</ele><time>2026-04-27T13:11:38.149Z</time></trkpt><trkpt lat="39.9944315" lon="21.3842442"><ele>531.0</ele><time>2026-04-27T13:11:39.149Z</time></trkpt><trkpt lat="39.9946819" lon="21.3842948"><ele>531.0</ele><time>2026-04-27T13:11:40.149Z</time></trkpt><trkpt lat="39.9949226" lon="21.3843862"><ele>531.0</ele><time>2026-04-27T13:11:41.149Z</time></trkpt><trkpt lat="39.995152" lon="21.3844885"><ele>533.0</ele><time>2026-04-27T13:11:42.149Z</time></trkpt><trkpt lat="39.9953616" lon="21.384611"><ele>535.0</ele><time>2026-04-27T13:11:43.15Z</time></trkpt><trkpt lat="39.9955779" lon="21.384744"><ele>535.0</ele><time>2026-04-27T13:11:44.15Z</time></trkpt><trkpt lat="39.995802" lon="21.3849151"><ele>535.0</ele><time>2026-04-27T13:11:45.15Z</time></trkpt><trkpt lat="39.9960273" lon="21.3851363"><ele>533.5</ele><time>2026-04-27T13:11:46.15Z</time></trkpt><trkpt lat="39.99625" lon="21.3853525"><ele>532.0</ele><time>2026-04-27T13:11:47.15Z</time></trkpt><trkpt lat="39.9964624" lon="21.3855823"><ele>525.5</ele><time>2026-04-27T13:11:48.15Z</time></trkpt><trkpt lat="39.9966781" lon="21.3858125"><ele>519.0</ele><time>2026-04-27T13:11:49.149Z</time></trkpt><trkpt lat="39.996893" lon="21.3860371"><ele>519.0</ele><time>2026-04-27T13:11:50.15Z</time></trkpt><trkpt lat="39.9971042" lon="21.3862546"><ele>519.0</ele><time>2026-04-27T13:11:51.149Z</time></trkpt><trkpt lat="39.9973065" lon="21.386476"><ele>519.0</ele><time>2026-04-27T13:11:52.149Z</time></trkpt><trkpt lat="39.9975082" lon="21.3866671"><ele>519.0</ele><time>2026-04-27T13:11:53.15Z</time></trkpt><trkpt lat="39.9977247" lon="21.3868366"><ele>519.0</ele><time>2026-04-27T13:11:54.15Z</time></trkpt><trkpt lat="39.9979551" lon="21.3869689"><ele>519.0</ele><time>2026-04-27T13:11:55.15Z</time></trkpt><trkpt lat="39.9981962" lon="21.3870633"><ele>517.5</ele><time>2026-04-27T13:11:56.15Z</time></trkpt><trkpt lat="39.998456" lon="21.3871356"><ele>516.0</ele><time>2026-04-27T13:11:57.149Z</time></trkpt><trkpt lat="39.9987196" lon="21.3871714"><ele>522.0</ele><time>2026-04-27T13:11:58.149Z</time></trkpt><trkpt lat="39.998989" lon="21.3871948"><ele>528.0</ele><time>2026-04-27T13:11:59.149Z</time></trkpt><trkpt lat="39.9992664" lon="21.3872135"><ele>528.0</ele><time>2026-04-27T13:12:00.149Z</time></trkpt><trkpt lat="39.9995334" lon="21.3872282"><ele>528.0</ele><time>2026-04-27T13:12:01.15Z</time></trkpt><trkpt lat="39.9998042" lon="21.3872523"><ele>528.0</ele><time>2026-04-27T13:12:02.149Z</time></trkpt><trkpt lat="40.0000757" lon="21.3872767"><ele>528.0</ele><time>2026-04-27T13:12:03.15Z</time></trkpt><trkpt lat="40.0003405" lon="21.3873279"><ele>528.0</ele><time>2026-04-27T13:12:04.15Z</time></trkpt><trkpt lat="40.0006041" lon="21.3873833"><ele>528.0</ele><time>2026-04-27T13:12:05.15Z</time></trkpt><trkpt lat="40.0008704" lon="21.3874465"><ele>523.0</ele><time>2026-04-27T13:12:06.15Z</time></trkpt><trkpt lat="40.0011366" lon="21.3875112"><ele>518.0</ele><time>2026-04-27T13:12:07.15Z</time></trkpt><trkpt lat="40.0014039" lon="21.387584"><ele>515.0</ele><time>2026-04-27T13:12:08.15Z</time></trkpt><trkpt lat="40.0016659" lon="21.3876555"><ele>512.0</ele><time>2026-04-27T13:12:09.149Z</time></trkpt><trkpt lat="40.0019276" lon="21.3877222"><ele>512.0</ele><time>2026-04-27T13:12:10.149Z</time></trkpt><trkpt lat="40.0021807" lon="21.387796"><ele>512.0</ele><time>2026-04-27T13:12:11.15Z</time></trkpt><trkpt lat="40.0024377" lon="21.3878725"><ele>511.0</ele><time>2026-04-27T13:12:12.149Z</time></trkpt><trkpt lat="40.0026994" lon="21.3879582"><ele>510.0</ele><time>2026-04-27T13:12:13.149Z</time></trkpt><trkpt lat="40.0029471" lon="21.3880531"><ele>514.5</ele><time>2026-04-27T13:12:14.15Z</time></trkpt><trkpt lat="40.003174" lon="21.3881778"><ele>519.0</ele><time>2026-04-27T13:12:15.149Z</time></trkpt><trkpt lat="40.0033821" lon="21.3883177"><ele>519.0</ele><time>2026-04-27T13:12:16.149Z</time></trkpt><trkpt lat="40.0035812" lon="21.3884769"><ele>519.0</ele><time>2026-04-27T13:12:17.15Z</time></trkpt><trkpt lat="40.0037728" lon="21.3886596"><ele>523.0</ele><time>2026-04-27T13:12:18.149Z</time></trkpt><trkpt lat="40.0039628" lon="21.3888838"><ele>527.0</ele><time>2026-04-27T13:12:19.15Z</time></trkpt><trkpt lat="40.004139" lon="21.3891345"><ele>528.0</ele><time>2026-04-27T13:12:20.15Z</time></trkpt><trkpt lat="40.0043264" lon="21.3894199"><ele>529.0</ele><time>2026-04-27T13:12:21.149Z</time></trkpt><trkpt lat="40.0045141" lon="21.3897368"><ele>529.0</ele><time>2026-04-27T13:12:22.15Z</time></trkpt><trkpt lat="40.004716" lon="21.3900695"><ele>529.0</ele><time>2026-04-27T13:12:23.149Z</time></trkpt><trkpt lat="40.0049277" lon="21.3904238"><ele>527.5</ele><time>2026-04-27T13:12:24.149Z</time></trkpt><trkpt lat="40.0051488" lon="21.3908013"><ele>526.0</ele><time>2026-04-27T13:12:25.149Z</time></trkpt><trkpt lat="40.0053843" lon="21.3911786"><ele>529.0</ele><time>2026-04-27T13:12:26.149Z</time></trkpt><trkpt lat="40.0056014" lon="21.3915779"><ele>532.0</ele><time>2026-04-27T13:12:27.15Z</time></trkpt><trkpt lat="40.005829" lon="21.3919422"><ele>527.5</ele><time>2026-04-27T13:12:28.15Z</time></trkpt><trkpt lat="40.0060376" lon="21.3922931"><ele>523.0</ele><time>2026-04-27T13:12:29.15Z</time></trkpt><trkpt lat="40.006235" lon="21.3926268"><ele>523.0</ele><time>2026-04-27T13:12:30.149Z</time></trkpt><trkpt lat="40.0064379" lon="21.3929435"><ele>523.0</ele><time>2026-04-27T13:12:31.15Z</time></trkpt><trkpt lat="40.0066312" lon="21.3932541"><ele>520.0</ele><time>2026-04-27T13:12:32.15Z</time></trkpt><trkpt lat="40.0068331" lon="21.3935432"><ele>517.0</ele><time>2026-04-27T13:12:33.15Z</time></trkpt><trkpt lat="40.0070238" lon="21.3938201"><ele>522.5</ele><time>2026-04-27T13:12:34.15Z</time></trkpt><trkpt lat="40.0072188" lon="21.3940792"><ele>528.0</ele><time>2026-04-27T13:12:35.15Z</time></trkpt><trkpt lat="40.0074368" lon="21.3943251"><ele>528.0</ele><time>2026-04-27T13:12:36.15Z</time></trkpt><trkpt lat="40.0076678" lon="21.394557"><ele>528.0</ele><time>2026-04-27T13:12:37.15Z</time></trkpt><trkpt lat="40.0078994" lon="21.3947715"><ele>528.0</ele><time>2026-04-27T13:12:38.15Z</time></trkpt><trkpt lat="40.0081315" lon="21.3949654"><ele>528.0</ele><time>2026-04-27T13:12:39.15Z</time></trkpt><trkpt lat="40.0083569" lon="21.3951507"><ele>521.5</ele><time>2026-04-27T13:12:40.149Z</time></trkpt><trkpt lat="40.0085874" lon="21.3953157"><ele>515.0</ele><time>2026-04-27T13:12:41.149Z</time></trkpt><trkpt lat="40.0088038" lon="21.3954846"><ele>512.0</ele><time>2026-04-27T13:12:42.149Z</time></trkpt><trkpt lat="40.0090183" lon="21.3956612"><ele>509.0</ele><time>2026-04-27T13:12:43.15Z</time></trkpt><trkpt lat="40.0092323" lon="21.3958493"><ele>509.0</ele><time>2026-04-27T13:12:44.149Z</time></trkpt><trkpt lat="40.00944" lon="21.3960479"><ele>509.0</ele><time>2026-04-27T13:12:45.15Z</time></trkpt><trkpt lat="40.0096475" lon="21.3962561"><ele>508.5</ele><time>2026-04-27T13:12:46.149Z</time></trkpt><trkpt lat="40.0098522" lon="21.3964765"><ele>508.0</ele><time>2026-04-27T13:12:47.149Z</time></trkpt><trkpt lat="40.0100518" lon="21.3966943"><ele>508.0</ele><time>2026-04-27T13:12:48.15Z</time></trkpt><trkpt lat="40.0102421" lon="21.3969114"><ele>508.0</ele><time>2026-04-27T13:12:49.149Z</time></trkpt><trkpt lat="40.0104209" lon="21.397116"><ele>511.0</ele><time>2026-04-27T13:12:50.15Z</time></trkpt><trkpt lat="40.0105906" lon="21.3973267"><ele>514.0</ele><time>2026-04-27T13:12:51.149Z</time></trkpt><trkpt lat="40.0107541" lon="21.3975219"><ele>513.3333333333334</ele><time>2026-04-27T13:12:52.149Z</time></trkpt><trkpt lat="40.0109111" lon="21.3977046"><ele>512.6666666666666</ele><time>2026-04-27T13:12:53.15Z</time></trkpt><trkpt lat="40.0110727" lon="21.3978543"><ele>512.0</ele><time>2026-04-27T13:12:54.149Z</time></trkpt><trkpt lat="40.0112167" lon="21.3980102"><ele>512.0</ele><time>2026-04-27T13:12:55.149Z</time></trkpt><trkpt lat="40.0113479" lon="21.3981349"><ele>512.0</ele><time>2026-04-27T13:12:56.15Z</time></trkpt><trkpt lat="40.0114588" lon="21.3982445"><ele>512.0</ele><time>2026-04-27T13:12:57.149Z</time></trkpt><trkpt lat="40.0115623" lon="21.3983273"><ele>512.0</ele><time>2026-04-27T13:12:58.15Z</time></trkpt><trkpt lat="40.0116461" lon="21.3983999"><ele>512.0</ele><time>2026-04-27T13:12:59.149Z</time></trkpt><trkpt lat="40.0117113" lon="21.3984649"><ele>512.0</ele><time>2026-04-27T13:13:00.15Z</time></trkpt><trkpt lat="40.0117118" lon="21.3985985"><ele>512.0</ele><time>2026-04-27T13:13:02.15Z</time></trkpt><trkpt lat="40.0116639" lon="21.3986803"><ele>512.0</ele><time>2026-04-27T13:13:03.15Z</time></trkpt><trkpt lat="40.0115924" lon="21.3987721"><ele>512.0</ele><time>2026-04-27T13:13:04.149Z</time></trkpt><trkpt lat="40.0114795" lon="21.3989079"><ele>512.75</ele><time>2026-04-27T13:13:05.15Z</time></trkpt><trkpt lat="40.0113601" lon="21.3990402"><ele>513.5</ele><time>2026-04-27T13:13:06.149Z</time></trkpt><trkpt lat="40.0112563" lon="21.3991659"><ele>514.25</ele><time>2026-04-27T13:13:07.149Z</time></trkpt><trkpt lat="40.0111575" lon="21.399282"><ele>515.0</ele><time>2026-04-27T13:13:08.15Z</time></trkpt><trkpt lat="40.0110702" lon="21.3993942"><ele>515.0</ele><time>2026-04-27T13:13:09.149Z</time></trkpt><trkpt lat="40.0110016" lon="21.3995025"><ele>515.0</ele><time>2026-04-27T13:13:10.15Z</time></trkpt><trkpt lat="40.0109575" lon="21.3996143"><ele>515.0</ele><time>2026-04-27T13:13:11.149Z</time></trkpt><trkpt lat="40.0109332" lon="21.3997502"><ele>515.0</ele><time>2026-04-27T13:13:12.15Z</time></trkpt><trkpt lat="40.0109192" lon="21.3999295"><ele>515.0</ele><time>2026-04-27T13:13:13.149Z</time></trkpt><trkpt lat="40.0109028" lon="21.4001118"><ele>515.5</ele><time>2026-04-27T13:13:14.15Z</time></trkpt><trkpt lat="40.0108918" lon="21.4002966"><ele>516.0</ele><time>2026-04-27T13:13:15.149Z</time></trkpt><trkpt lat="40.0108988" lon="21.4004807"><ele>516.5</ele><time>2026-04-27T13:13:16.15Z</time></trkpt><trkpt lat="40.0109102" lon="21.4006562"><ele>517.0</ele><time>2026-04-27T13:13:17.15Z</time></trkpt><trkpt lat="40.0109401" lon="21.4008188"><ele>517.0</ele><time>2026-04-27T13:13:18.149Z</time></trkpt><trkpt lat="40.011005" lon="21.4009588"><ele>517.0</ele><time>2026-04-27T13:13:19.15Z</time></trkpt><trkpt lat="40.011108" lon="21.4010841"><ele>517.0</ele><time>2026-04-27T13:13:20.149Z</time></trkpt><trkpt lat="40.0112309" lon="21.4011803"><ele>517.0</ele><time>2026-04-27T13:13:21.149Z</time></trkpt><trkpt lat="40.0113728" lon="21.4012511"><ele>517.0</ele><time>2026-04-27T13:13:22.15Z</time></trkpt><trkpt lat="40.0115068" lon="21.4013258"><ele>517.0</ele><time>2026-04-27T13:13:23.149Z</time></trkpt><trkpt lat="40.0116308" lon="21.4014055"><ele>517.0</ele><time>2026-04-27T13:13:24.15Z</time></trkpt><trkpt lat="40.0117142" lon="21.4015273"><ele>517.0</ele><time>2026-04-27T13:13:25.149Z</time></trkpt><trkpt lat="40.0117891" lon="21.4016524"><ele>520.0</ele><time>2026-04-27T13:13:26.15Z</time></trkpt><trkpt lat="40.0118403" lon="21.4018426"><ele>523.0</ele><time>2026-04-27T13:13:27.149Z</time></trkpt><trkpt lat="40.0118797" lon="21.4020524"><ele>526.0</ele><time>2026-04-27T13:13:28.149Z</time></trkpt><trkpt lat="40.0119301" lon="21.4022772"><ele>528.6666666666667</ele><time>2026-04-27T13:13:29.149Z</time></trkpt><trkpt lat="40.0119812" lon="21.4025378"><ele>531.3333333333334</ele><time>2026-04-27T13:13:30.15Z</time></trkpt><trkpt lat="40.0120352" lon="21.4028315"><ele>534.0</ele><time>2026-04-27T13:13:31.15Z</time></trkpt><trkpt lat="40.0120994" lon="21.4031604"><ele>537.0</ele><time>2026-04-27T13:13:32.149Z</time></trkpt><trkpt lat="40.0121679" lon="21.4035139"><ele>540.0</ele><time>2026-04-27T13:13:33.149Z</time></trkpt><trkpt lat="40.0122423" lon="21.403882"><ele>546.5</ele><time>2026-04-27T13:13:34.149Z</time></trkpt><trkpt lat="40.0123082" lon="21.4042247"><ele>553.0</ele><time>2026-04-27T13:13:35.15Z</time></trkpt><trkpt lat="40.0123716" lon="21.4045417"><ele>557.5</ele><time>2026-04-27T13:13:36.149Z</time></trkpt><trkpt lat="40.0124386" lon="21.4048407"><ele>562.0</ele><time>2026-04-27T13:13:37.15Z</time></trkpt><trkpt lat="40.0124881" lon="21.4051147"><ele>560.3333333333334</ele><time>2026-04-27T13:13:38.149Z</time></trkpt><trkpt lat="40.012529" lon="21.4053857"><ele>558.6666666666666</ele><time>2026-04-27T13:13:39.149Z</time></trkpt><trkpt lat="40.0125499" lon="21.4056501"><ele>557.0</ele><time>2026-04-27T13:13:40.149Z</time></trkpt><trkpt lat="40.0125161" lon="21.4059385"><ele>561.6666666666666</ele><time>2026-04-27T13:13:41.15Z</time></trkpt><trkpt lat="40.0124651" lon="21.4062201"><ele>566.3333333333334</ele><time>2026-04-27T13:13:42.15Z</time></trkpt><trkpt lat="40.0124022" lon="21.4064965"><ele>571.0</ele><time>2026-04-27T13:13:43.149Z</time></trkpt><trkpt lat="40.0123388" lon="21.4067719"><ele>575.0</ele><time>2026-04-27T13:13:44.149Z</time></trkpt><trkpt lat="40.0122928" lon="21.4070789"><ele>579.0</ele><time>2026-04-27T13:13:45.149Z</time></trkpt><trkpt lat="40.0122729" lon="21.4073951"><ele>579.0</ele><time>2026-04-27T13:13:46.15Z</time></trkpt><trkpt lat="40.0122603" lon="21.4076857"><ele>579.0</ele><time>2026-04-27T13:13:47.149Z</time></trkpt><trkpt lat="40.0122579" lon="21.4079434"><ele>579.0</ele><time>2026-04-27T13:13:48.15Z</time></trkpt><trkpt lat="40.012239" lon="21.4081946"><ele>581.0</ele><time>2026-04-27T13:13:49.149Z</time></trkpt><trkpt lat="40.0121912" lon="21.408462"><ele>583.0</ele><time>2026-04-27T13:13:50.15Z</time></trkpt><trkpt lat="40.0121109" lon="21.4087417"><ele>585.0</ele><time>2026-04-27T13:13:51.149Z</time></trkpt><trkpt lat="40.0120324" lon="21.4090122"><ele>588.5</ele><time>2026-04-27T13:13:52.149Z</time></trkpt><trkpt lat="40.0119633" lon="21.4092977"><ele>592.0</ele><time>2026-04-27T13:13:53.149Z</time></trkpt><trkpt lat="40.0119108" lon="21.4095821"><ele>594.6666666666667</ele><time>2026-04-27T13:13:54.149Z</time></trkpt><trkpt lat="40.0118712" lon="21.4098712"><ele>597.3333333333334</ele><time>2026-04-27T13:13:55.149Z</time></trkpt><trkpt lat="40.0118375" lon="21.4101352"><ele>600.0</ele><time>2026-04-27T13:13:56.149Z</time></trkpt><trkpt lat="40.0118141" lon="21.4103842"><ele>600.6666666666666</ele><time>2026-04-27T13:13:57.149Z</time></trkpt><trkpt lat="40.01179" lon="21.4106121"><ele>601.3333333333333</ele><time>2026-04-27T13:13:58.15Z</time></trkpt><trkpt lat="40.0117622" lon="21.4108192"><ele>602.0</ele><time>2026-04-27T13:13:59.149Z</time></trkpt><trkpt lat="40.0117446" lon="21.4110116"><ele>602.0</ele><time>2026-04-27T13:14:00.15Z</time></trkpt><trkpt lat="40.0117504" lon="21.4111876"><ele>602.0</ele><time>2026-04-27T13:14:01.149Z</time></trkpt><trkpt lat="40.01178" lon="21.4113555"><ele>602.0</ele><time>2026-04-27T13:14:02.15Z</time></trkpt><trkpt lat="40.011832" lon="21.4115127"><ele>602.0</ele><time>2026-04-27T13:14:03.15Z</time></trkpt><trkpt lat="40.0118949" lon="21.4116611"><ele>603.0</ele><time>2026-04-27T13:14:04.15Z</time></trkpt><trkpt lat="40.0119529" lon="21.4118172"><ele>604.0</ele><time>2026-04-27T13:14:05.15Z</time></trkpt><trkpt lat="40.0120053" lon="21.4119779"><ele>605.0</ele><time>2026-04-27T13:14:06.149Z</time></trkpt><trkpt lat="40.0120283" lon="21.4121369"><ele>606.0</ele><time>2026-04-27T13:14:07.15Z</time></trkpt><trkpt lat="40.0120274" lon="21.4123186"><ele>608.0</ele><time>2026-04-27T13:14:08.149Z</time></trkpt><trkpt lat="40.0120163" lon="21.4125147"><ele>610.0</ele><time>2026-04-27T13:14:09.149Z</time></trkpt><trkpt lat="40.0119915" lon="21.4127444"><ele>612.0</ele><time>2026-04-27T13:14:10.149Z</time></trkpt><trkpt lat="40.011941" lon="21.4130195"><ele>613.5</ele><time>2026-04-27T13:14:11.15Z</time></trkpt><trkpt lat="40.011867" lon="21.4132841"><ele>615.0</ele><time>2026-04-27T13:14:12.149Z</time></trkpt><trkpt lat="40.0117584" lon="21.4135651"><ele>627.5</ele><time>2026-04-27T13:14:13.149Z</time></trkpt><trkpt lat="40.0116451" lon="21.4138626"><ele>640.0</ele><time>2026-04-27T13:14:14.149Z</time></trkpt><trkpt lat="40.0115296" lon="21.4141584"><ele>640.0</ele><time>2026-04-27T13:14:15.15Z</time></trkpt><trkpt lat="40.0114291" lon="21.4144495"><ele>640.0</ele><time>2026-04-27T13:14:16.15Z</time></trkpt><trkpt lat="40.0113325" lon="21.414718"><ele>639.5</ele><time>2026-04-27T13:14:17.15Z</time></trkpt><trkpt lat="40.0112279" lon="21.4149857"><ele>639.0</ele><time>2026-04-27T13:14:18.15Z</time></trkpt><trkpt lat="40.0111414" lon="21.4152491"><ele>639.0</ele><time>2026-04-27T13:14:19.15Z</time></trkpt><trkpt lat="40.0110562" lon="21.4154838"><ele>639.0</ele><time>2026-04-27T13:14:20.15Z</time></trkpt><trkpt lat="40.0109793" lon="21.4157043"><ele>639.0</ele><time>2026-04-27T13:14:21.15Z</time></trkpt><trkpt lat="40.0108841" lon="21.4158717"><ele>643.0</ele><time>2026-04-27T13:14:22.149Z</time></trkpt><trkpt lat="40.0107884" lon="21.4160195"><ele>647.0</ele><time>2026-04-27T13:14:23.15Z</time></trkpt><trkpt lat="40.0106469" lon="21.4161379"><ele>651.0</ele><time>2026-04-27T13:14:24.15Z</time></trkpt><trkpt lat="40.0104439" lon="21.4162409"><ele>649.5</ele><time>2026-04-27T13:14:25.149Z</time></trkpt><trkpt lat="40.0102394" lon="21.416393"><ele>648.0</ele><time>2026-04-27T13:14:26.149Z</time></trkpt><trkpt lat="40.0100237" lon="21.4165721"><ele>654.0</ele><time>2026-04-27T13:14:27.15Z</time></trkpt><trkpt lat="40.0097962" lon="21.4167824"><ele>660.0</ele><time>2026-04-27T13:14:28.149Z</time></trkpt><trkpt lat="40.0095605" lon="21.417004"><ele>655.0</ele><time>2026-04-27T13:14:29.15Z</time></trkpt><trkpt lat="40.0093418" lon="21.4172231"><ele>650.0</ele><time>2026-04-27T13:14:30.149Z</time></trkpt><trkpt lat="40.0091276" lon="21.4174283"><ele>661.5</ele><time>2026-04-27T13:14:31.15Z</time></trkpt><trkpt lat="40.0089147" lon="21.4176338"><ele>673.0</ele><time>2026-04-27T13:14:32.15Z</time></trkpt><trkpt lat="40.008701" lon="21.4178326"><ele>669.6666666666667</ele><time>2026-04-27T13:14:33.15Z</time></trkpt><trkpt lat="40.0085053" lon="21.417999"><ele>666.3333333333334</ele><time>2026-04-27T13:14:34.149Z</time></trkpt><trkpt lat="40.0083179" lon="21.4181366"><ele>663.0</ele><time>2026-04-27T13:14:35.149Z</time></trkpt><trkpt lat="40.0081209" lon="21.4183267"><ele>678.0</ele><time>2026-04-27T13:14:36.149Z</time></trkpt><trkpt lat="40.0079405" lon="21.4185434"><ele>693.0</ele><time>2026-04-27T13:14:37.15Z</time></trkpt><trkpt lat="40.0077902" lon="21.4187381"><ele>695.6666666666666</ele><time>2026-04-27T13:14:38.149Z</time></trkpt><trkpt lat="40.0076398" lon="21.418938"><ele>698.3333333333333</ele><time>2026-04-27T13:14:39.149Z</time></trkpt><trkpt lat="40.0074573" lon="21.4191017"><ele>701.0</ele><time>2026-04-27T13:14:40.15Z</time></trkpt><trkpt lat="40.007259" lon="21.4192744"><ele>701.0</ele><time>2026-04-27T13:14:41.149Z</time></trkpt><trkpt lat="40.0070513" lon="21.4194596"><ele>701.0</ele><time>2026-04-27T13:14:42.15Z</time></trkpt><trkpt lat="40.0068319" lon="21.4196476"><ele>703.5</ele><time>2026-04-27T13:14:43.15Z</time></trkpt><trkpt lat="40.0066196" lon="21.4198381"><ele>706.0</ele><time>2026-04-27T13:14:44.15Z</time></trkpt><trkpt lat="40.0064082" lon="21.4200129"><ele>706.0</ele><time>2026-04-27T13:14:45.15Z</time></trkpt><trkpt lat="40.0062036" lon="21.4201925"><ele>706.0</ele><time>2026-04-27T13:14:46.15Z</time></trkpt><trkpt lat="40.0060074" lon="21.4203522"><ele>708.6666666666667</ele><time>2026-04-27T13:14:47.149Z</time></trkpt><trkpt lat="40.0058258" lon="21.4205005"><ele>711.3333333333334</ele><time>2026-04-27T13:14:48.15Z</time></trkpt><trkpt lat="40.0056419" lon="21.4206532"><ele>714.0</ele><time>2026-04-27T13:14:49.15Z</time></trkpt><trkpt lat="40.0054611" lon="21.4208095"><ele>714.0</ele><time>2026-04-27T13:14:50.149Z</time></trkpt><trkpt lat="40.0052806" lon="21.4209817"><ele>714.0</ele><time>2026-04-27T13:14:51.149Z</time></trkpt><trkpt lat="40.0051053" lon="21.4211663"><ele>714.0</ele><time>2026-04-27T13:14:52.149Z</time></trkpt><trkpt lat="40.0049419" lon="21.4213801"><ele>717.5</ele><time>2026-04-27T13:14:53.149Z</time></trkpt><trkpt lat="40.0047789" lon="21.4216211"><ele>721.0</ele><time>2026-04-27T13:14:54.149Z</time></trkpt><trkpt lat="40.0046208" lon="21.4218606"><ele>721.0</ele><time>2026-04-27T13:14:55.15Z</time></trkpt><trkpt lat="40.0044449" lon="21.422099"><ele>721.0</ele><time>2026-04-27T13:14:56.149Z</time></trkpt><trkpt lat="40.0042917" lon="21.4223303"><ele>720.6666666666667</ele><time>2026-04-27T13:14:57.15Z</time></trkpt><trkpt lat="40.004148" lon="21.4225409"><ele>720.3333333333334</ele><time>2026-04-27T13:14:58.149Z</time></trkpt><trkpt lat="40.0040104" lon="21.4227446"><ele>720.0</ele><time>2026-04-27T13:14:59.15Z</time></trkpt><trkpt lat="40.0038855" lon="21.4229332"><ele>724.3333333333334</ele><time>2026-04-27T13:15:00.15Z</time></trkpt><trkpt lat="40.0037811" lon="21.4231115"><ele>728.6666666666667</ele><time>2026-04-27T13:15:01.15Z</time></trkpt><trkpt lat="40.003685" lon="21.4232983"><ele>733.0</ele><time>2026-04-27T13:15:02.15Z</time></trkpt><trkpt lat="40.0036065" lon="21.4235"><ele>733.0</ele><time>2026-04-27T13:15:03.15Z</time></trkpt><trkpt lat="40.0035508" lon="21.4237126"><ele>733.0</ele><time>2026-04-27T13:15:04.149Z</time></trkpt><trkpt lat="40.0035172" lon="21.4239216"><ele>733.0</ele><time>2026-04-27T13:15:05.149Z</time></trkpt><trkpt lat="40.0035008" lon="21.4241373"><ele>735.0</ele><time>2026-04-27T13:15:06.149Z</time></trkpt><trkpt lat="40.0035193" lon="21.4243438"><ele>737.0</ele><time>2026-04-27T13:15:07.149Z</time></trkpt><trkpt lat="40.0035738" lon="21.4245613"><ele>739.0</ele><time>2026-04-27T13:15:08.149Z</time></trkpt><trkpt lat="40.0036543" lon="21.4247881"><ele>742.3333333333334</ele><time>2026-04-27T13:15:09.15Z</time></trkpt><trkpt lat="40.0037558" lon="21.4249952"><ele>745.6666666666666</ele><time>2026-04-27T13:15:10.149Z</time></trkpt><trkpt lat="40.0038451" lon="21.4251979"><ele>749.0</ele><time>2026-04-27T13:15:11.149Z</time></trkpt><trkpt lat="40.0039014" lon="21.4253945"><ele>750.0</ele><time>2026-04-27T13:15:12.149Z</time></trkpt><trkpt lat="40.0039169" lon="21.4255755"><ele>751.0</ele><time>2026-04-27T13:15:13.149Z</time></trkpt><trkpt lat="40.0039267" lon="21.425773"><ele>752.0</ele><time>2026-04-27T13:15:14.149Z</time></trkpt><trkpt lat="40.0038999" lon="21.4259681"><ele>753.0</ele><time>2026-04-27T13:15:15.15Z</time></trkpt><trkpt lat="40.0038733" lon="21.4261503"><ele>752.25</ele><time>2026-04-27T13:15:16.149Z</time></trkpt><trkpt lat="40.0038418" lon="21.4263225"><ele>751.5</ele><time>2026-04-27T13:15:17.15Z</time></trkpt><trkpt lat="40.0038116" lon="21.4264948"><ele>750.75</ele><time>2026-04-27T13:15:18.149Z</time></trkpt><trkpt lat="40.003795" lon="21.4266631"><ele>750.0</ele><time>2026-04-27T13:15:19.15Z</time></trkpt><trkpt lat="40.0038097" lon="21.426833"><ele>750.0</ele><time>2026-04-27T13:15:20.15Z</time></trkpt><trkpt lat="40.0038548" lon="21.4269935"><ele>750.0</ele><time>2026-04-27T13:15:21.149Z</time></trkpt><trkpt lat="40.0039229" lon="21.4271387"><ele>750.0</ele><time>2026-04-27T13:15:22.149Z</time></trkpt><trkpt lat="40.0039975" lon="21.4272556"><ele>750.0</ele><time>2026-04-27T13:15:23.15Z</time></trkpt><trkpt lat="40.0040589" lon="21.4273449"><ele>748.6</ele><time>2026-04-27T13:15:24.15Z</time></trkpt><trkpt lat="40.0040994" lon="21.4274325"><ele>747.2</ele><time>2026-04-27T13:15:25.15Z</time></trkpt><trkpt lat="40.0040213" lon="21.4275354"><ele>745.8</ele><time>2026-04-27T13:15:27.149Z</time></trkpt><trkpt lat="40.0039553" lon="21.427551"><ele>744.4</ele><time>2026-04-27T13:15:28.15Z</time></trkpt><trkpt lat="40.0038037" lon="21.4275425"><ele>743.0</ele><time>2026-04-27T13:15:29.15Z</time></trkpt><trkpt lat="40.0036678" lon="21.4275372"><ele>743.0</ele><time>2026-04-27T13:15:30.149Z</time></trkpt><trkpt lat="40.0035182" lon="21.4275416"><ele>743.0</ele><time>2026-04-27T13:15:31.15Z</time></trkpt><trkpt lat="40.003371" lon="21.4275762"><ele>743.0</ele><time>2026-04-27T13:15:32.149Z</time></trkpt><trkpt lat="40.0032271" lon="21.4276132"><ele>743.0</ele><time>2026-04-27T13:15:33.149Z</time></trkpt><trkpt lat="40.0030821" lon="21.4276664"><ele>744.3333333333333</ele><time>2026-04-27T13:15:34.149Z</time></trkpt><trkpt lat="40.0029364" lon="21.4277278"><ele>745.6666666666666</ele><time>2026-04-27T13:15:35.149Z</time></trkpt><trkpt lat="40.0027852" lon="21.4277864"><ele>747.0</ele><time>2026-04-27T13:15:36.15Z</time></trkpt><trkpt lat="40.0026297" lon="21.4278543"><ele>747.6666666666666</ele><time>2026-04-27T13:15:37.15Z</time></trkpt><trkpt lat="40.0024724" lon="21.4279262"><ele>748.3333333333333</ele><time>2026-04-27T13:15:38.149Z</time></trkpt><trkpt lat="40.0023161" lon="21.4280027"><ele>749.0</ele><time>2026-04-27T13:15:39.15Z</time></trkpt><trkpt lat="40.0021594" lon="21.4280909"><ele>749.6666666666666</ele><time>2026-04-27T13:15:40.15Z</time></trkpt><trkpt lat="40.0019975" lon="21.4281706"><ele>750.3333333333334</ele><time>2026-04-27T13:15:41.149Z</time></trkpt><trkpt lat="40.0018211" lon="21.4282552"><ele>751.0</ele><time>2026-04-27T13:15:42.149Z</time></trkpt><trkpt lat="40.0016429" lon="21.4283202"><ele>751.3333333333334</ele><time>2026-04-27T13:15:43.149Z</time></trkpt><trkpt lat="40.0014575" lon="21.4283713"><ele>751.6666666666666</ele><time>2026-04-27T13:15:44.15Z</time></trkpt><trkpt lat="40.0012824" lon="21.4284125"><ele>752.0</ele><time>2026-04-27T13:15:45.15Z</time></trkpt><trkpt lat="40.0011155" lon="21.4284586"><ele>752.0</ele><time>2026-04-27T13:15:46.149Z</time></trkpt><trkpt lat="40.0009743" lon="21.4285311"><ele>752.0</ele><time>2026-04-27T13:15:47.15Z</time></trkpt><trkpt lat="40.0008562" lon="21.428645"><ele>752.0</ele><time>2026-04-27T13:15:48.15Z</time></trkpt><trkpt lat="40.0007546" lon="21.428802"><ele>752.3333333333333</ele><time>2026-04-27T13:15:49.15Z</time></trkpt><trkpt lat="40.000662" lon="21.4289968"><ele>752.6666666666666</ele><time>2026-04-27T13:15:50.15Z</time></trkpt><trkpt lat="40.0005543" lon="21.4292178"><ele>753.0</ele><time>2026-04-27T13:15:51.149Z</time></trkpt><trkpt lat="40.0004517" lon="21.4294308"><ele>752.0</ele><time>2026-04-27T13:15:52.149Z</time></trkpt><trkpt lat="40.0003411" lon="21.4296442"><ele>751.0</ele><time>2026-04-27T13:15:53.149Z</time></trkpt><trkpt lat="40.0002294" lon="21.4298601"><ele>750.0</ele><time>2026-04-27T13:15:54.15Z</time></trkpt><trkpt lat="40.0001099" lon="21.4300591"><ele>750.0</ele><time>2026-04-27T13:15:55.15Z</time></trkpt><trkpt lat="39.9999722" lon="21.4302364"><ele>750.0</ele><time>2026-04-27T13:15:56.15Z</time></trkpt><trkpt lat="39.9998258" lon="21.430398"><ele>750.0</ele><time>2026-04-27T13:15:57.15Z</time></trkpt><trkpt lat="39.9996747" lon="21.4305507"><ele>747.3333333333334</ele><time>2026-04-27T13:15:58.15Z</time></trkpt><trkpt lat="39.999528" lon="21.4306829"><ele>744.6666666666667</ele><time>2026-04-27T13:15:59.149Z</time></trkpt><trkpt lat="39.9993896" lon="21.4308154"><ele>742.0</ele><time>2026-04-27T13:16:00.149Z</time></trkpt><trkpt lat="39.9992709" lon="21.4309397"><ele>742.0</ele><time>2026-04-27T13:16:01.149Z</time></trkpt><trkpt lat="39.9991781" lon="21.4310493"><ele>742.0</ele><time>2026-04-27T13:16:02.15Z</time></trkpt><trkpt lat="39.9991005" lon="21.431178"><ele>742.0</ele><time>2026-04-27T13:16:03.15Z</time></trkpt><trkpt lat="39.9990572" lon="21.4313309"><ele>742.0</ele><time>2026-04-27T13:16:04.149Z</time></trkpt><trkpt lat="39.999031" lon="21.4315233"><ele>742.3333333333334</ele><time>2026-04-27T13:16:05.15Z</time></trkpt><trkpt lat="39.9990164" lon="21.4317386"><ele>742.6666666666666</ele><time>2026-04-27T13:16:06.15Z</time></trkpt><trkpt lat="39.9990224" lon="21.4319652"><ele>743.0</ele><time>2026-04-27T13:16:07.149Z</time></trkpt><trkpt lat="39.9990451" lon="21.4321948"><ele>743.0</ele><time>2026-04-27T13:16:08.15Z</time></trkpt><trkpt lat="39.9990801" lon="21.4324157"><ele>743.0</ele><time>2026-04-27T13:16:09.15Z</time></trkpt><trkpt lat="39.999127" lon="21.4326304"><ele>743.0</ele><time>2026-04-27T13:16:10.15Z</time></trkpt><trkpt lat="39.9991674" lon="21.4328288"><ele>740.75</ele><time>2026-04-27T13:16:11.149Z</time></trkpt><trkpt lat="39.9991995" lon="21.4330194"><ele>738.5</ele><time>2026-04-27T13:16:12.15Z</time></trkpt><trkpt lat="39.9992184" lon="21.4332102"><ele>736.25</ele><time>2026-04-27T13:16:13.149Z</time></trkpt><trkpt lat="39.9992234" lon="21.4333986"><ele>734.0</ele><time>2026-04-27T13:16:14.149Z</time></trkpt><trkpt lat="39.9991938" lon="21.4335801"><ele>736.3333333333333</ele><time>2026-04-27T13:16:15.15Z</time></trkpt><trkpt lat="39.999147" lon="21.4337573"><ele>738.6666666666666</ele><time>2026-04-27T13:16:16.149Z</time></trkpt><trkpt lat="39.9990899" lon="21.4339447"><ele>741.0</ele><time>2026-04-27T13:16:17.15Z</time></trkpt><trkpt lat="39.999013" lon="21.4341505"><ele>741.0</ele><time>2026-04-27T13:16:18.15Z</time></trkpt><trkpt lat="39.9989363" lon="21.4343666"><ele>741.0</ele><time>2026-04-27T13:16:19.149Z</time></trkpt><trkpt lat="39.9988599" lon="21.4345849"><ele>741.0</ele><time>2026-04-27T13:16:20.15Z</time></trkpt><trkpt lat="39.998776" lon="21.4348103"><ele>737.0</ele><time>2026-04-27T13:16:21.15Z</time></trkpt><trkpt lat="39.998698" lon="21.4350303"><ele>733.0</ele><time>2026-04-27T13:16:22.149Z</time></trkpt><trkpt lat="39.9986137" lon="21.4352437"><ele>729.0</ele><time>2026-04-27T13:16:23.149Z</time></trkpt><trkpt lat="39.9985273" lon="21.4354527"><ele>730.0</ele><time>2026-04-27T13:16:24.15Z</time></trkpt><trkpt lat="39.9984505" lon="21.4356669"><ele>731.0</ele><time>2026-04-27T13:16:25.149Z</time></trkpt><trkpt lat="39.9983709" lon="21.4358807"><ele>732.0</ele><time>2026-04-27T13:16:26.15Z</time></trkpt><trkpt lat="39.9982879" lon="21.4360929"><ele>731.6666666666666</ele><time>2026-04-27T13:16:27.15Z</time></trkpt><trkpt lat="39.998202" lon="21.4363157"><ele>731.3333333333333</ele><time>2026-04-27T13:16:28.149Z</time></trkpt><trkpt lat="39.9981207" lon="21.4365248"><ele>731.0</ele><time>2026-04-27T13:16:29.15Z</time></trkpt><trkpt lat="39.9980825" lon="21.43676"><ele>731.0</ele><time>2026-04-27T13:16:30.149Z</time></trkpt><trkpt lat="39.9980706" lon="21.4370216"><ele>731.0</ele><time>2026-04-27T13:16:31.15Z</time></trkpt><trkpt lat="39.9980661" lon="21.4372898"><ele>731.0</ele><time>2026-04-27T13:16:32.15Z</time></trkpt><trkpt lat="39.9980618" lon="21.4375502"><ele>731.0</ele><time>2026-04-27T13:16:33.15Z</time></trkpt><trkpt lat="39.998053" lon="21.4377971"><ele>731.0</ele><time>2026-04-27T13:16:34.15Z</time></trkpt><trkpt lat="39.998037" lon="21.4380364"><ele>731.0</ele><time>2026-04-27T13:16:35.149Z</time></trkpt><trkpt lat="39.9980107" lon="21.4382594"><ele>731.0</ele><time>2026-04-27T13:16:36.149Z</time></trkpt><trkpt lat="39.997985" lon="21.4384769"><ele>731.0</ele><time>2026-04-27T13:16:37.15Z</time></trkpt><trkpt lat="39.9979679" lon="21.4386899"><ele>731.0</ele><time>2026-04-27T13:16:38.149Z</time></trkpt><trkpt lat="39.997976" lon="21.4388928"><ele>732.3333333333333</ele><time>2026-04-27T13:16:39.149Z</time></trkpt><trkpt lat="39.9980254" lon="21.4391015"><ele>733.6666666666666</ele><time>2026-04-27T13:16:40.149Z</time></trkpt><trkpt lat="39.9980833" lon="21.4393048"><ele>735.0</ele><time>2026-04-27T13:16:41.15Z</time></trkpt><trkpt lat="39.9981536" lon="21.4395112"><ele>735.3333333333334</ele><time>2026-04-27T13:16:42.149Z</time></trkpt><trkpt lat="39.9982261" lon="21.4397247"><ele>735.6666666666667</ele><time>2026-04-27T13:16:43.15Z</time></trkpt><trkpt lat="39.9983073" lon="21.439931"><ele>736.0</ele><time>2026-04-27T13:16:44.149Z</time></trkpt><trkpt lat="39.9983877" lon="21.4401384"><ele>736.0</ele><time>2026-04-27T13:16:45.15Z</time></trkpt><trkpt lat="39.9984776" lon="21.4403504"><ele>736.0</ele><time>2026-04-27T13:16:46.149Z</time></trkpt><trkpt lat="39.9985705" lon="21.4405514"><ele>736.0</ele><time>2026-04-27T13:16:47.15Z</time></trkpt><trkpt lat="39.9986725" lon="21.4407477"><ele>737.0</ele><time>2026-04-27T13:16:48.15Z</time></trkpt><trkpt lat="39.998776" lon="21.4409432"><ele>738.0</ele><time>2026-04-27T13:16:49.149Z</time></trkpt><trkpt lat="39.9988822" lon="21.4411552"><ele>739.0</ele><time>2026-04-27T13:16:50.149Z</time></trkpt><trkpt lat="39.9989773" lon="21.4413787"><ele>739.0</ele><time>2026-04-27T13:16:51.15Z</time></trkpt><trkpt lat="39.9990655" lon="21.4416097"><ele>739.0</ele><time>2026-04-27T13:16:52.149Z</time></trkpt><trkpt lat="39.9991579" lon="21.4418147"><ele>739.0</ele><time>2026-04-27T13:16:53.149Z</time></trkpt><trkpt lat="39.9992388" lon="21.4420361"><ele>742.3333333333334</ele><time>2026-04-27T13:16:54.149Z</time></trkpt><trkpt lat="39.9993383" lon="21.4422428"><ele>745.6666666666666</ele><time>2026-04-27T13:16:55.149Z</time></trkpt><trkpt lat="39.9994526" lon="21.4424396"><ele>749.0</ele><time>2026-04-27T13:16:56.149Z</time></trkpt><trkpt lat="39.9995814" lon="21.4426224"><ele>749.0</ele><time>2026-04-27T13:16:57.15Z</time></trkpt><trkpt lat="39.9997254" lon="21.4427796"><ele>749.0</ele><time>2026-04-27T13:16:58.149Z</time></trkpt><trkpt lat="39.9998768" lon="21.442926"><ele>749.0</ele><time>2026-04-27T13:16:59.15Z</time></trkpt><trkpt lat="40.0000289" lon="21.4430788"><ele>746.0</ele><time>2026-04-27T13:17:00.15Z</time></trkpt><trkpt lat="40.0001749" lon="21.4432457"><ele>743.0</ele><time>2026-04-27T13:17:01.149Z</time></trkpt><trkpt lat="40.0003269" lon="21.4434578"><ele>740.0</ele><time>2026-04-27T13:17:02.149Z</time></trkpt><trkpt lat="40.0004794" lon="21.4436894"><ele>736.5</ele><time>2026-04-27T13:17:03.15Z</time></trkpt><trkpt lat="40.0006235" lon="21.443935"><ele>733.0</ele><time>2026-04-27T13:17:04.15Z</time></trkpt><trkpt lat="40.000755" lon="21.4441798"><ele>733.0</ele><time>2026-04-27T13:17:05.149Z</time></trkpt><trkpt lat="40.0008959" lon="21.4444184"><ele>733.0</ele><time>2026-04-27T13:17:06.15Z</time></trkpt><trkpt lat="40.0010454" lon="21.4446625"><ele>733.0</ele><time>2026-04-27T13:17:07.149Z</time></trkpt><trkpt lat="40.0011868" lon="21.4449199"><ele>733.0</ele><time>2026-04-27T13:17:08.149Z</time></trkpt><trkpt lat="40.001327" lon="21.4451792"><ele>733.0</ele><time>2026-04-27T13:17:09.15Z</time></trkpt><trkpt lat="40.001465" lon="21.4454288"><ele>733.0</ele><time>2026-04-27T13:17:10.149Z</time></trkpt><trkpt lat="40.0015932" lon="21.4456779"><ele>732.6666666666667</ele><time>2026-04-27T13:17:11.149Z</time></trkpt><trkpt lat="40.0017189" lon="21.4459219"><ele>732.3333333333334</ele><time>2026-04-27T13:17:12.149Z</time></trkpt><trkpt lat="40.0018406" lon="21.446161"><ele>732.0</ele><time>2026-04-27T13:17:13.149Z</time></trkpt><trkpt lat="40.0019543" lon="21.446384"><ele>732.0</ele><time>2026-04-27T13:17:14.15Z</time></trkpt><trkpt lat="40.0020574" lon="21.4465969"><ele>732.0</ele><time>2026-04-27T13:17:15.15Z</time></trkpt><trkpt lat="40.0021636" lon="21.4468062"><ele>732.0</ele><time>2026-04-27T13:17:16.15Z</time></trkpt><trkpt lat="40.0022772" lon="21.4470078"><ele>733.3333333333334</ele><time>2026-04-27T13:17:17.149Z</time></trkpt><trkpt lat="40.0023854" lon="21.4472017"><ele>734.6666666666667</ele><time>2026-04-27T13:17:18.15Z</time></trkpt><trkpt lat="40.0024668" lon="21.4474186"><ele>736.0</ele><time>2026-04-27T13:17:19.15Z</time></trkpt><trkpt lat="40.0025467" lon="21.4476521"><ele>736.0</ele><time>2026-04-27T13:17:20.149Z</time></trkpt><trkpt lat="40.0026184" lon="21.447902"><ele>736.0</ele><time>2026-04-27T13:17:21.149Z</time></trkpt><trkpt lat="40.0026952" lon="21.4481439"><ele>736.0</ele><time>2026-04-27T13:17:22.15Z</time></trkpt><trkpt lat="40.0027902" lon="21.4483627"><ele>733.3333333333334</ele><time>2026-04-27T13:17:23.149Z</time></trkpt><trkpt lat="40.0028871" lon="21.4485489"><ele>730.6666666666666</ele><time>2026-04-27T13:17:24.15Z</time></trkpt><trkpt lat="40.0029817" lon="21.4487426"><ele>728.0</ele><time>2026-04-27T13:17:25.15Z</time></trkpt><trkpt lat="40.0030552" lon="21.4489462"><ele>726.0</ele><time>2026-04-27T13:17:26.149Z</time></trkpt><trkpt lat="40.003106" lon="21.4491697"><ele>724.0</ele><time>2026-04-27T13:17:27.149Z</time></trkpt><trkpt lat="40.0031227" lon="21.4494597"><ele>722.0</ele><time>2026-04-27T13:17:28.15Z</time></trkpt><trkpt lat="40.0031798" lon="21.4497554"><ele>722.6666666666666</ele><time>2026-04-27T13:17:29.149Z</time></trkpt><trkpt lat="40.0032483" lon="21.450022"><ele>723.3333333333334</ele><time>2026-04-27T13:17:30.149Z</time></trkpt><trkpt lat="40.0033205" lon="21.450278"><ele>724.0</ele><time>2026-04-27T13:17:31.149Z</time></trkpt><trkpt lat="40.003376" lon="21.4505064"><ele>724.0</ele><time>2026-04-27T13:17:32.15Z</time></trkpt><trkpt lat="40.0034234" lon="21.4507066"><ele>724.0</ele><time>2026-04-27T13:17:33.15Z</time></trkpt><trkpt lat="40.0034387" lon="21.4508784"><ele>724.0</ele><time>2026-04-27T13:17:34.149Z</time></trkpt><trkpt lat="40.0034054" lon="21.4510118"><ele>724.0</ele><time>2026-04-27T13:17:35.15Z</time></trkpt><trkpt lat="40.0033288" lon="21.4511417"><ele>724.3333333333334</ele><time>2026-04-27T13:17:36.15Z</time></trkpt><trkpt lat="40.0032117" lon="21.4512097"><ele>724.6666666666666</ele><time>2026-04-27T13:17:37.15Z</time></trkpt><trkpt lat="40.0030527" lon="21.4512627"><ele>725.0</ele><time>2026-04-27T13:17:38.15Z</time></trkpt><trkpt lat="40.0029027" lon="21.4513425"><ele>726.6666666666666</ele><time>2026-04-27T13:17:39.15Z</time></trkpt><trkpt lat="40.0027467" lon="21.4514371"><ele>728.3333333333334</ele><time>2026-04-27T13:17:40.149Z</time></trkpt><trkpt lat="40.0026153" lon="21.4515258"><ele>730.0</ele><time>2026-04-27T13:17:41.15Z</time></trkpt><trkpt lat="40.0025025" lon="21.4516148"><ele>729.0</ele><time>2026-04-27T13:17:42.149Z</time></trkpt><trkpt lat="40.0024075" lon="21.4517066"><ele>728.0</ele><time>2026-04-27T13:17:43.15Z</time></trkpt><trkpt lat="40.0023348" lon="21.4518188"><ele>727.0</ele><time>2026-04-27T13:17:44.149Z</time></trkpt><trkpt lat="40.0022861" lon="21.4519272"><ele>726.0</ele><time>2026-04-27T13:17:45.149Z</time></trkpt><trkpt lat="40.0022621" lon="21.4520498"><ele>725.0</ele><time>2026-04-27T13:17:46.15Z</time></trkpt><trkpt lat="40.0022586" lon="21.4521808"><ele>725.0</ele><time>2026-04-27T13:17:47.15Z</time></trkpt><trkpt lat="40.0022736" lon="21.4523105"><ele>725.0</ele><time>2026-04-27T13:17:48.15Z</time></trkpt><trkpt lat="40.0022999" lon="21.4524446"><ele>725.0</ele><time>2026-04-27T13:17:49.149Z</time></trkpt><trkpt lat="40.0023361" lon="21.4525665"><ele>725.0</ele><time>2026-04-27T13:17:50.149Z</time></trkpt><trkpt lat="40.0023834" lon="21.4526801"><ele>725.0</ele><time>2026-04-27T13:17:51.15Z</time></trkpt><trkpt lat="40.0024673" lon="21.4528072"><ele>726.3333333333333</ele><time>2026-04-27T13:17:52.15Z</time></trkpt><trkpt lat="40.0025834" lon="21.4529267"><ele>727.6666666666666</ele><time>2026-04-27T13:17:53.149Z</time></trkpt><trkpt lat="40.0027024" lon="21.4530435"><ele>729.0</ele><time>2026-04-27T13:17:54.15Z</time></trkpt><trkpt lat="40.0028318" lon="21.4531609"><ele>729.0</ele><time>2026-04-27T13:17:55.15Z</time></trkpt><trkpt lat="40.0029671" lon="21.45328"><ele>729.0</ele><time>2026-04-27T13:17:56.149Z</time></trkpt><trkpt lat="40.0031154" lon="21.4534124"><ele>729.0</ele><time>2026-04-27T13:17:57.15Z</time></trkpt><trkpt lat="40.0032792" lon="21.4535523"><ele>730.3333333333334</ele><time>2026-04-27T13:17:58.149Z</time></trkpt><trkpt lat="40.0034581" lon="21.4536937"><ele>731.6666666666667</ele><time>2026-04-27T13:17:59.15Z</time></trkpt><trkpt lat="40.0036578" lon="21.4538277"><ele>733.0</ele><time>2026-04-27T13:18:00.149Z</time></trkpt><trkpt lat="40.0038677" lon="21.4539499"><ele>730.3333333333334</ele><time>2026-04-27T13:18:01.149Z</time></trkpt><trkpt lat="40.004067" lon="21.4540545"><ele>727.6666666666666</ele><time>2026-04-27T13:18:02.15Z</time></trkpt><trkpt lat="40.0042587" lon="21.4541545"><ele>725.0</ele><time>2026-04-27T13:18:03.149Z</time></trkpt><trkpt lat="40.0044416" lon="21.454261"><ele>724.6666666666666</ele><time>2026-04-27T13:18:04.149Z</time></trkpt><trkpt lat="40.004609" lon="21.4543658"><ele>724.3333333333334</ele><time>2026-04-27T13:18:05.15Z</time></trkpt><trkpt lat="40.0047539" lon="21.454504"><ele>724.0</ele><time>2026-04-27T13:18:06.149Z</time></trkpt><trkpt lat="40.0048551" lon="21.4546738"><ele>722.6666666666667</ele><time>2026-04-27T13:18:07.15Z</time></trkpt><trkpt lat="40.0049113" lon="21.4548648"><ele>721.3333333333334</ele><time>2026-04-27T13:18:08.15Z</time></trkpt><trkpt lat="40.0049392" lon="21.4551002"><ele>720.0</ele><time>2026-04-27T13:18:09.15Z</time></trkpt><trkpt lat="40.0049464" lon="21.4553937"><ele>719.0</ele><time>2026-04-27T13:18:10.149Z</time></trkpt><trkpt lat="40.0049105" lon="21.4557037"><ele>718.0</ele><time>2026-04-27T13:18:11.149Z</time></trkpt><trkpt lat="40.0048821" lon="21.4560693"><ele>718.5</ele><time>2026-04-27T13:18:12.149Z</time></trkpt><trkpt lat="40.0048429" lon="21.4564474"><ele>719.0</ele><time>2026-04-27T13:18:13.15Z</time></trkpt><trkpt lat="40.0048029" lon="21.4568006"><ele>720.5</ele><time>2026-04-27T13:18:14.149Z</time></trkpt><trkpt lat="40.0047512" lon="21.4571276"><ele>722.0</ele><time>2026-04-27T13:18:15.149Z</time></trkpt><trkpt lat="40.0046926" lon="21.4574368"><ele>722.0</ele><time>2026-04-27T13:18:16.15Z</time></trkpt><trkpt lat="40.0046322" lon="21.4577258"><ele>722.0</ele><time>2026-04-27T13:18:17.149Z</time></trkpt><trkpt lat="40.0045856" lon="21.4580073"><ele>722.6666666666666</ele><time>2026-04-27T13:18:18.15Z</time></trkpt><trkpt lat="40.0045267" lon="21.4582714"><ele>723.3333333333334</ele><time>2026-04-27T13:18:19.149Z</time></trkpt><trkpt lat="40.0044681" lon="21.4585123"><ele>724.0</ele><time>2026-04-27T13:18:20.15Z</time></trkpt><trkpt lat="40.004417" lon="21.458753"><ele>725.0</ele><time>2026-04-27T13:18:21.15Z</time></trkpt><trkpt lat="40.0043851" lon="21.458972"><ele>726.0</ele><time>2026-04-27T13:18:22.15Z</time></trkpt><trkpt lat="40.004362" lon="21.4591895"><ele>727.0</ele><time>2026-04-27T13:18:23.15Z</time></trkpt><trkpt lat="40.0043486" lon="21.459415"><ele>728.3333333333334</ele><time>2026-04-27T13:18:24.15Z</time></trkpt><trkpt lat="40.0043471" lon="21.4596365"><ele>729.6666666666666</ele><time>2026-04-27T13:18:25.149Z</time></trkpt><trkpt lat="40.0043516" lon="21.459854"><ele>731.0</ele><time>2026-04-27T13:18:26.149Z</time></trkpt><trkpt lat="40.0043748" lon="21.4600628"><ele>731.0</ele><time>2026-04-27T13:18:27.15Z</time></trkpt><trkpt lat="40.0044232" lon="21.4602746"><ele>731.0</ele><time>2026-04-27T13:18:28.15Z</time></trkpt><trkpt lat="40.0044809" lon="21.4604869"><ele>731.0</ele><time>2026-04-27T13:18:29.15Z</time></trkpt><trkpt lat="40.0045519" lon="21.4607026"><ele>730.0</ele><time>2026-04-27T13:18:30.15Z</time></trkpt><trkpt lat="40.00463" lon="21.4609157"><ele>729.0</ele><time>2026-04-27T13:18:31.149Z</time></trkpt><trkpt lat="40.00471" lon="21.4611226"><ele>728.0</ele><time>2026-04-27T13:18:32.149Z</time></trkpt><trkpt lat="40.0047884" lon="21.4613324"><ele>727.3333333333333</ele><time>2026-04-27T13:18:33.15Z</time></trkpt><trkpt lat="40.004856" lon="21.4615546"><ele>726.6666666666666</ele><time>2026-04-27T13:18:34.15Z</time></trkpt><trkpt lat="40.0049066" lon="21.4617838"><ele>726.0</ele><time>2026-04-27T13:18:35.15Z</time></trkpt><trkpt lat="40.0049685" lon="21.4620205"><ele>728.3333333333334</ele><time>2026-04-27T13:18:36.15Z</time></trkpt><trkpt lat="40.0050247" lon="21.4622637"><ele>730.6666666666667</ele><time>2026-04-27T13:18:37.15Z</time></trkpt><trkpt lat="40.0050563" lon="21.4625345"><ele>733.0</ele><time>2026-04-27T13:18:38.15Z</time></trkpt><trkpt lat="40.0050939" lon="21.4628056"><ele>733.0</ele><time>2026-04-27T13:18:39.149Z</time></trkpt><trkpt lat="40.0051407" lon="21.463069"><ele>733.0</ele><time>2026-04-27T13:18:40.15Z</time></trkpt><trkpt lat="40.0051887" lon="21.463326"><ele>733.0</ele><time>2026-04-27T13:18:41.149Z</time></trkpt><trkpt lat="40.0052285" lon="21.4636037"><ele>734.0</ele><time>2026-04-27T13:18:42.149Z</time></trkpt><trkpt lat="40.0052704" lon="21.4638691"><ele>735.0</ele><time>2026-04-27T13:18:43.15Z</time></trkpt><trkpt lat="40.0052978" lon="21.4641294"><ele>736.0</ele><time>2026-04-27T13:18:44.15Z</time></trkpt><trkpt lat="40.0053179" lon="21.4643925"><ele>738.0</ele><time>2026-04-27T13:18:45.149Z</time></trkpt><trkpt lat="40.0053239" lon="21.4646498"><ele>740.0</ele><time>2026-04-27T13:18:46.149Z</time></trkpt><trkpt lat="40.0053204" lon="21.4649056"><ele>742.0</ele><time>2026-04-27T13:18:47.149Z</time></trkpt><trkpt lat="40.0053235" lon="21.4651714"><ele>742.0</ele><time>2026-04-27T13:18:48.149Z</time></trkpt><trkpt lat="40.0052963" lon="21.4654285"><ele>742.0</ele><time>2026-04-27T13:18:49.15Z</time></trkpt><trkpt lat="40.0052632" lon="21.4657035"><ele>742.0</ele><time>2026-04-27T13:18:50.15Z</time></trkpt><trkpt lat="40.0052202" lon="21.4659881"><ele>743.0</ele><time>2026-04-27T13:18:51.149Z</time></trkpt><trkpt lat="40.0051687" lon="21.4662758"><ele>744.0</ele><time>2026-04-27T13:18:52.149Z</time></trkpt><trkpt lat="40.0051113" lon="21.4665636"><ele>745.5</ele><time>2026-04-27T13:18:53.149Z</time></trkpt><trkpt lat="40.0050566" lon="21.466856"><ele>747.0</ele><time>2026-04-27T13:18:54.15Z</time></trkpt><trkpt lat="40.0049971" lon="21.4671459"><ele>747.0</ele><time>2026-04-27T13:18:55.15Z</time></trkpt><trkpt lat="40.0049355" lon="21.4674422"><ele>747.0</ele><time>2026-04-27T13:18:56.149Z</time></trkpt><trkpt lat="40.0048873" lon="21.4677392"><ele>747.0</ele><time>2026-04-27T13:18:57.149Z</time></trkpt><trkpt lat="40.0048457" lon="21.4680371"><ele>747.0</ele><time>2026-04-27T13:18:58.149Z</time></trkpt><trkpt lat="40.0048179" lon="21.4683303"><ele>747.0</ele><time>2026-04-27T13:18:59.149Z</time></trkpt><trkpt lat="40.0048035" lon="21.4686193"><ele>747.0</ele><time>2026-04-27T13:19:00.15Z</time></trkpt><trkpt lat="40.0047894" lon="21.4688745"><ele>747.0</ele><time>2026-04-27T13:19:01.149Z</time></trkpt><trkpt lat="40.0047757" lon="21.4691125"><ele>748.0</ele><time>2026-04-27T13:19:02.15Z</time></trkpt><trkpt lat="40.0047698" lon="21.4693404"><ele>749.0</ele><time>2026-04-27T13:19:03.15Z</time></trkpt><trkpt lat="40.0047884" lon="21.4695564"><ele>750.0</ele><time>2026-04-27T13:19:04.15Z</time></trkpt><trkpt lat="40.0048415" lon="21.4697718"><ele>750.0</ele><time>2026-04-27T13:19:05.15Z</time></trkpt><trkpt lat="40.0049236" lon="21.469977"><ele>750.0</ele><time>2026-04-27T13:19:06.149Z</time></trkpt><trkpt lat="40.0050511" lon="21.4701845"><ele>750.0</ele><time>2026-04-27T13:19:07.15Z</time></trkpt><trkpt lat="40.0051833" lon="21.4703786"><ele>747.0</ele><time>2026-04-27T13:19:08.149Z</time></trkpt><trkpt lat="40.0053258" lon="21.4705519"><ele>744.0</ele><time>2026-04-27T13:19:09.15Z</time></trkpt><trkpt lat="40.0054628" lon="21.4707049"><ele>741.0</ele><time>2026-04-27T13:19:10.149Z</time></trkpt><trkpt lat="40.0056056" lon="21.4708609"><ele>741.0</ele><time>2026-04-27T13:19:11.15Z</time></trkpt><trkpt lat="40.0057369" lon="21.4710316"><ele>741.0</ele><time>2026-04-27T13:19:12.15Z</time></trkpt><trkpt lat="40.0058303" lon="21.4712362"><ele>741.0</ele><time>2026-04-27T13:19:13.15Z</time></trkpt><trkpt lat="40.0059086" lon="21.4714891"><ele>738.0</ele><time>2026-04-27T13:19:14.149Z</time></trkpt><trkpt lat="40.0059934" lon="21.4717682"><ele>735.0</ele><time>2026-04-27T13:19:15.149Z</time></trkpt><trkpt lat="40.006102" lon="21.4720463"><ele>733.5</ele><time>2026-04-27T13:19:16.15Z</time></trkpt><trkpt lat="40.0062319" lon="21.4723145"><ele>732.0</ele><time>2026-04-27T13:19:17.149Z</time></trkpt><trkpt lat="40.0063703" lon="21.472604"><ele>732.0</ele><time>2026-04-27T13:19:18.149Z</time></trkpt><trkpt lat="40.0064948" lon="21.4728946"><ele>732.0</ele><time>2026-04-27T13:19:19.15Z</time></trkpt><trkpt lat="40.006598" lon="21.4731793"><ele>730.0</ele><time>2026-04-27T13:19:20.149Z</time></trkpt><trkpt lat="40.006691" lon="21.4734584"><ele>728.0</ele><time>2026-04-27T13:19:21.149Z</time></trkpt><trkpt lat="40.0067486" lon="21.4737468"><ele>727.0</ele><time>2026-04-27T13:19:22.149Z</time></trkpt><trkpt lat="40.0067895" lon="21.4740395"><ele>726.0</ele><time>2026-04-27T13:19:23.149Z</time></trkpt><trkpt lat="40.0068235" lon="21.4743344"><ele>725.0</ele><time>2026-04-27T13:19:24.149Z</time></trkpt><trkpt lat="40.0068557" lon="21.4746221"><ele>724.0</ele><time>2026-04-27T13:19:25.15Z</time></trkpt><trkpt lat="40.0068833" lon="21.474896"><ele>723.0</ele><time>2026-04-27T13:19:26.15Z</time></trkpt><trkpt lat="40.0069133" lon="21.4751576"><ele>723.0</ele><time>2026-04-27T13:19:27.15Z</time></trkpt><trkpt lat="40.0069297" lon="21.475405"><ele>723.0</ele><time>2026-04-27T13:19:28.15Z</time></trkpt><trkpt lat="40.0069559" lon="21.4756501"><ele>723.0</ele><time>2026-04-27T13:19:29.149Z</time></trkpt><trkpt lat="40.0069558" lon="21.4758912"><ele>720.3333333333334</ele><time>2026-04-27T13:19:30.149Z</time></trkpt><trkpt lat="40.0069209" lon="21.4761148"><ele>717.6666666666667</ele><time>2026-04-27T13:19:31.15Z</time></trkpt><trkpt lat="40.0068511" lon="21.4763195"><ele>715.0</ele><time>2026-04-27T13:19:32.15Z</time></trkpt><trkpt lat="40.006758" lon="21.4765147"><ele>712.6666666666667</ele><time>2026-04-27T13:19:33.15Z</time></trkpt><trkpt lat="40.0066323" lon="21.4766951"><ele>710.3333333333334</ele><time>2026-04-27T13:19:34.149Z</time></trkpt><trkpt lat="40.0064732" lon="21.4768685"><ele>708.0</ele><time>2026-04-27T13:19:35.149Z</time></trkpt><trkpt lat="40.0062934" lon="21.4770374"><ele>709.0</ele><time>2026-04-27T13:19:36.15Z</time></trkpt><trkpt lat="40.0061086" lon="21.4772016"><ele>710.0</ele><time>2026-04-27T13:19:37.149Z</time></trkpt><trkpt lat="40.0059281" lon="21.4773767"><ele>711.0</ele><time>2026-04-27T13:19:38.149Z</time></trkpt><trkpt lat="40.0057564" lon="21.4775805"><ele>711.0</ele><time>2026-04-27T13:19:39.15Z</time></trkpt><trkpt lat="40.0055994" lon="21.4778019"><ele>711.0</ele><time>2026-04-27T13:19:40.15Z</time></trkpt><trkpt lat="40.0054446" lon="21.4780507"><ele>709.0</ele><time>2026-04-27T13:19:41.15Z</time></trkpt><trkpt lat="40.0053003" lon="21.4783131"><ele>707.0</ele><time>2026-04-27T13:19:42.15Z</time></trkpt><trkpt lat="40.0051722" lon="21.4785656"><ele>706.6666666666666</ele><time>2026-04-27T13:19:43.149Z</time></trkpt><trkpt lat="40.0050733" lon="21.4788186"><ele>706.3333333333334</ele><time>2026-04-27T13:19:44.149Z</time></trkpt><trkpt lat="40.0050051" lon="21.4790809"><ele>706.0</ele><time>2026-04-27T13:19:45.149Z</time></trkpt><trkpt lat="40.0049718" lon="21.4793418"><ele>706.5</ele><time>2026-04-27T13:19:46.149Z</time></trkpt><trkpt lat="40.0049639" lon="21.4796339"><ele>707.0</ele><time>2026-04-27T13:19:47.15Z</time></trkpt><trkpt lat="40.0049755" lon="21.4799484"><ele>707.0</ele><time>2026-04-27T13:19:48.15Z</time></trkpt><trkpt lat="40.0049919" lon="21.4802877"><ele>707.0</ele><time>2026-04-27T13:19:49.15Z</time></trkpt><trkpt lat="40.0050013" lon="21.48065"><ele>704.5</ele><time>2026-04-27T13:19:50.15Z</time></trkpt><trkpt lat="40.0050034" lon="21.4810325"><ele>702.0</ele><time>2026-04-27T13:19:51.149Z</time></trkpt><trkpt lat="40.0050044" lon="21.4814351"><ele>702.0</ele><time>2026-04-27T13:19:52.15Z</time></trkpt><trkpt lat="40.0050058" lon="21.4818365"><ele>702.0</ele><time>2026-04-27T13:19:53.15Z</time></trkpt><trkpt lat="40.0050091" lon="21.4822451"><ele>702.0</ele><time>2026-04-27T13:19:54.149Z</time></trkpt><trkpt lat="40.005002" lon="21.4826446"><ele>702.0</ele><time>2026-04-27T13:19:55.149Z</time></trkpt><trkpt lat="40.0049974" lon="21.483019"><ele>702.0</ele><time>2026-04-27T13:19:56.149Z</time></trkpt><trkpt lat="40.004998" lon="21.4833795"><ele>702.0</ele><time>2026-04-27T13:19:57.15Z</time></trkpt><trkpt lat="40.0049904" lon="21.4837239"><ele>706.0</ele><time>2026-04-27T13:19:58.149Z</time></trkpt><trkpt lat="40.0049855" lon="21.484041"><ele>710.0</ele><time>2026-04-27T13:19:59.149Z</time></trkpt><trkpt lat="40.0049794" lon="21.4843338"><ele>710.6666666666666</ele><time>2026-04-27T13:20:00.149Z</time></trkpt><trkpt lat="40.0049778" lon="21.4846039"><ele>711.3333333333334</ele><time>2026-04-27T13:20:01.149Z</time></trkpt><trkpt lat="40.0049887" lon="21.4848437"><ele>712.0</ele><time>2026-04-27T13:20:02.149Z</time></trkpt><trkpt lat="40.0050213" lon="21.4850551"><ele>712.0</ele><time>2026-04-27T13:20:03.149Z</time></trkpt><trkpt lat="40.0050736" lon="21.4852389"><ele>712.0</ele><time>2026-04-27T13:20:04.149Z</time></trkpt><trkpt lat="40.0051478" lon="21.4854132"><ele>712.0</ele><time>2026-04-27T13:20:05.149Z</time></trkpt><trkpt lat="40.0052239" lon="21.4855992"><ele>714.3333333333334</ele><time>2026-04-27T13:20:06.15Z</time></trkpt><trkpt lat="40.0053025" lon="21.4857903"><ele>716.6666666666666</ele><time>2026-04-27T13:20:07.15Z</time></trkpt><trkpt lat="40.0053594" lon="21.48599"><ele>719.0</ele><time>2026-04-27T13:20:08.15Z</time></trkpt><trkpt lat="40.0053974" lon="21.4862111"><ele>719.3333333333333</ele><time>2026-04-27T13:20:09.15Z</time></trkpt><trkpt lat="40.0054252" lon="21.4864313"><ele>719.6666666666666</ele><time>2026-04-27T13:20:10.15Z</time></trkpt><trkpt lat="40.0054406" lon="21.4866556"><ele>720.0</ele><time>2026-04-27T13:20:11.15Z</time></trkpt><trkpt lat="40.0054516" lon="21.4868802"><ele>721.6666666666666</ele><time>2026-04-27T13:20:12.15Z</time></trkpt><trkpt lat="40.0054576" lon="21.4870942"><ele>723.3333333333333</ele><time>2026-04-27T13:20:13.15Z</time></trkpt><trkpt lat="40.0054614" lon="21.4873183"><ele>725.0</ele><time>2026-04-27T13:20:14.149Z</time></trkpt><trkpt lat="40.0054712" lon="21.4875321"><ele>725.0</ele><time>2026-04-27T13:20:15.149Z</time></trkpt><trkpt lat="40.0054976" lon="21.4877294"><ele>725.0</ele><time>2026-04-27T13:20:16.149Z</time></trkpt><trkpt lat="40.0055423" lon="21.4879061"><ele>725.0</ele><time>2026-04-27T13:20:17.149Z</time></trkpt><trkpt lat="40.0056035" lon="21.4880631"><ele>725.0</ele><time>2026-04-27T13:20:18.149Z</time></trkpt><trkpt lat="40.0056981" lon="21.4881885"><ele>724.6666666666666</ele><time>2026-04-27T13:20:19.15Z</time></trkpt><trkpt lat="40.0058146" lon="21.4882832"><ele>724.3333333333334</ele><time>2026-04-27T13:20:20.149Z</time></trkpt><trkpt lat="40.0059687" lon="21.4883454"><ele>724.0</ele><time>2026-04-27T13:20:21.149Z</time></trkpt><trkpt lat="40.006148" lon="21.4883805"><ele>724.0</ele><time>2026-04-27T13:20:22.149Z</time></trkpt><trkpt lat="40.0063494" lon="21.4883981"><ele>724.0</ele><time>2026-04-27T13:20:23.15Z</time></trkpt><trkpt lat="40.0065634" lon="21.4884026"><ele>724.0</ele><time>2026-04-27T13:20:24.15Z</time></trkpt><trkpt lat="40.0067815" lon="21.4884113"><ele>724.0</ele><time>2026-04-27T13:20:25.15Z</time></trkpt><trkpt lat="40.007012" lon="21.4884324"><ele>724.0</ele><time>2026-04-27T13:20:26.15Z</time></trkpt><trkpt lat="40.0072499" lon="21.4884592"><ele>724.0</ele><time>2026-04-27T13:20:27.149Z</time></trkpt><trkpt lat="40.0074896" lon="21.4884866"><ele>724.0</ele><time>2026-04-27T13:20:28.149Z</time></trkpt><trkpt lat="40.0077124" lon="21.488513"><ele>724.0</ele><time>2026-04-27T13:20:29.15Z</time></trkpt><trkpt lat="40.0079277" lon="21.4885536"><ele>724.0</ele><time>2026-04-27T13:20:30.149Z</time></trkpt><trkpt lat="40.0081366" lon="21.4886104"><ele>724.0</ele><time>2026-04-27T13:20:31.149Z</time></trkpt><trkpt lat="40.0083423" lon="21.4886864"><ele>728.3333333333334</ele><time>2026-04-27T13:20:32.15Z</time></trkpt><trkpt lat="40.0085432" lon="21.4887779"><ele>732.6666666666666</ele><time>2026-04-27T13:20:33.149Z</time></trkpt><trkpt lat="40.0087406" lon="21.4888517"><ele>737.0</ele><time>2026-04-27T13:20:34.149Z</time></trkpt><trkpt lat="40.0089383" lon="21.4888955"><ele>737.0</ele><time>2026-04-27T13:20:35.15Z</time></trkpt><trkpt lat="40.009142" lon="21.4889161"><ele>737.0</ele><time>2026-04-27T13:20:36.149Z</time></trkpt><trkpt lat="40.0093432" lon="21.4889303"><ele>737.0</ele><time>2026-04-27T13:20:37.149Z</time></trkpt><trkpt lat="40.0095447" lon="21.4889431"><ele>737.0</ele><time>2026-04-27T13:20:38.149Z</time></trkpt><trkpt lat="40.0097323" lon="21.4889475"><ele>737.0</ele><time>2026-04-27T13:20:39.149Z</time></trkpt><trkpt lat="40.0099092" lon="21.4889477"><ele>737.0</ele><time>2026-04-27T13:20:40.149Z</time></trkpt><trkpt lat="40.0100715" lon="21.4889559"><ele>737.5</ele><time>2026-04-27T13:20:41.15Z</time></trkpt><trkpt lat="40.010216" lon="21.4889485"><ele>738.0</ele><time>2026-04-27T13:20:42.149Z</time></trkpt><trkpt lat="40.0103371" lon="21.4889292"><ele>738.5</ele><time>2026-04-27T13:20:43.149Z</time></trkpt><trkpt lat="40.0104301" lon="21.4889184"><ele>739.0</ele><time>2026-04-27T13:20:44.15Z</time></trkpt><trkpt lat="40.0105194" lon="21.4889949"><ele>739.0</ele><time>2026-04-27T13:20:46.15Z</time></trkpt><trkpt lat="40.0105101" lon="21.4890862"><ele>739.0</ele><time>2026-04-27T13:20:48.15Z</time></trkpt><trkpt lat="40.0104312" lon="21.4892053"><ele>739.0</ele><time>2026-04-27T13:20:50.149Z</time></trkpt><trkpt lat="40.0102699" lon="21.4893054"><ele>739.0</ele><time>2026-04-27T13:20:51.15Z</time></trkpt><trkpt lat="40.0101266" lon="21.4894223"><ele>738.3333333333334</ele><time>2026-04-27T13:20:52.15Z</time></trkpt><trkpt lat="40.0099798" lon="21.4895341"><ele>737.6666666666666</ele><time>2026-04-27T13:20:53.149Z</time></trkpt><trkpt lat="40.0098169" lon="21.489656"><ele>737.0</ele><time>2026-04-27T13:20:54.15Z</time></trkpt><trkpt lat="40.0096567" lon="21.4897839"><ele>739.3333333333333</ele><time>2026-04-27T13:20:55.149Z</time></trkpt><trkpt lat="40.0094892" lon="21.4899187"><ele>741.6666666666666</ele><time>2026-04-27T13:20:56.149Z</time></trkpt><trkpt lat="40.0093202" lon="21.490064"><ele>744.0</ele><time>2026-04-27T13:20:57.15Z</time></trkpt><trkpt lat="40.0091463" lon="21.4901945"><ele>744.0</ele><time>2026-04-27T13:20:58.149Z</time></trkpt><trkpt lat="40.0089634" lon="21.4903169"><ele>744.0</ele><time>2026-04-27T13:20:59.15Z</time></trkpt><trkpt lat="40.0087609" lon="21.4904387"><ele>744.0</ele><time>2026-04-27T13:21:00.149Z</time></trkpt><trkpt lat="40.0085403" lon="21.4905493"><ele>746.0</ele><time>2026-04-27T13:21:01.149Z</time></trkpt><trkpt lat="40.0082962" lon="21.4906429"><ele>748.0</ele><time>2026-04-27T13:21:02.15Z</time></trkpt><trkpt lat="40.0080484" lon="21.4907326"><ele>748.0</ele><time>2026-04-27T13:21:03.15Z</time></trkpt><trkpt lat="40.0077952" lon="21.4908434"><ele>748.0</ele><time>2026-04-27T13:21:04.149Z</time></trkpt><trkpt lat="40.0075415" lon="21.4909368"><ele>751.0</ele><time>2026-04-27T13:21:05.15Z</time></trkpt><trkpt lat="40.0072829" lon="21.4910217"><ele>754.0</ele><time>2026-04-27T13:21:06.15Z</time></trkpt><trkpt lat="40.0070328" lon="21.4911145"><ele>754.0</ele><time>2026-04-27T13:21:07.15Z</time></trkpt><trkpt lat="40.0067844" lon="21.491211"><ele>754.0</ele><time>2026-04-27T13:21:08.149Z</time></trkpt><trkpt lat="40.0065361" lon="21.4913092"><ele>755.0</ele><time>2026-04-27T13:21:09.15Z</time></trkpt><trkpt lat="40.0062796" lon="21.4914097"><ele>756.0</ele><time>2026-04-27T13:21:10.149Z</time></trkpt><trkpt lat="40.0060305" lon="21.4915065"><ele>755.5</ele><time>2026-04-27T13:21:11.15Z</time></trkpt><trkpt lat="40.0057802" lon="21.4916128"><ele>755.0</ele><time>2026-04-27T13:21:12.149Z</time></trkpt><trkpt lat="40.0055377" lon="21.4917091"><ele>755.0</ele><time>2026-04-27T13:21:13.149Z</time></trkpt><trkpt lat="40.0053008" lon="21.4917902"><ele>755.0</ele><time>2026-04-27T13:21:14.149Z</time></trkpt><trkpt lat="40.0050742" lon="21.491876"><ele>753.5</ele><time>2026-04-27T13:21:15.15Z</time></trkpt><trkpt lat="40.004852" lon="21.4919583"><ele>752.0</ele><time>2026-04-27T13:21:16.149Z</time></trkpt><trkpt lat="40.0046378" lon="21.4920344"><ele>756.0</ele><time>2026-04-27T13:21:17.149Z</time></trkpt><trkpt lat="40.0044243" lon="21.4921188"><ele>760.0</ele><time>2026-04-27T13:21:18.149Z</time></trkpt><trkpt lat="40.0042094" lon="21.4922156"><ele>759.0</ele><time>2026-04-27T13:21:19.15Z</time></trkpt><trkpt lat="40.003992" lon="21.4923322"><ele>758.0</ele><time>2026-04-27T13:21:20.149Z</time></trkpt><trkpt lat="40.0037651" lon="21.4924747"><ele>758.0</ele><time>2026-04-27T13:21:21.15Z</time></trkpt><trkpt lat="40.0035339" lon="21.4926206"><ele>758.0</ele><time>2026-04-27T13:21:22.149Z</time></trkpt><trkpt lat="40.0033001" lon="21.4927865"><ele>758.5</ele><time>2026-04-27T13:21:23.149Z</time></trkpt><trkpt lat="40.0030653" lon="21.4929648"><ele>759.0</ele><time>2026-04-27T13:21:24.149Z</time></trkpt><trkpt lat="40.0028266" lon="21.4931279"><ele>759.0</ele><time>2026-04-27T13:21:25.15Z</time></trkpt><trkpt lat="40.0025941" lon="21.4933024"><ele>759.0</ele><time>2026-04-27T13:21:26.149Z</time></trkpt><trkpt lat="40.0023617" lon="21.4934819"><ele>758.0</ele><time>2026-04-27T13:21:27.15Z</time></trkpt><trkpt lat="40.0021279" lon="21.4936615"><ele>757.0</ele><time>2026-04-27T13:21:28.149Z</time></trkpt><trkpt lat="40.0018996" lon="21.4938368"><ele>757.0</ele><time>2026-04-27T13:21:29.15Z</time></trkpt><trkpt lat="40.0016733" lon="21.4940047"><ele>757.0</ele><time>2026-04-27T13:21:30.149Z</time></trkpt><trkpt lat="40.0014513" lon="21.4941722"><ele>757.0</ele><time>2026-04-27T13:21:31.149Z</time></trkpt><trkpt lat="40.0012287" lon="21.4943377"><ele>757.0</ele><time>2026-04-27T13:21:32.15Z</time></trkpt><trkpt lat="40.0010061" lon="21.4944927"><ele>756.5</ele><time>2026-04-27T13:21:33.149Z</time></trkpt><trkpt lat="40.0007892" lon="21.4946577"><ele>756.0</ele><time>2026-04-27T13:21:34.149Z</time></trkpt><trkpt lat="40.0005796" lon="21.4948081"><ele>756.0</ele><time>2026-04-27T13:21:35.15Z</time></trkpt><trkpt lat="40.0003817" lon="21.494961"><ele>756.0</ele><time>2026-04-27T13:21:36.15Z</time></trkpt><trkpt lat="40.0001954" lon="21.4951081"><ele>756.0</ele><time>2026-04-27T13:21:37.15Z</time></trkpt><trkpt lat="40.0000146" lon="21.4952816"><ele>758.0</ele><time>2026-04-27T13:21:38.15Z</time></trkpt><trkpt lat="39.999845" lon="21.4954793"><ele>760.0</ele><time>2026-04-27T13:21:39.15Z</time></trkpt><trkpt lat="39.9996954" lon="21.4957162"><ele>760.0</ele><time>2026-04-27T13:21:40.149Z</time></trkpt><trkpt lat="39.9995539" lon="21.4959735"><ele>760.0</ele><time>2026-04-27T13:21:41.15Z</time></trkpt><trkpt lat="39.9993985" lon="21.4962433"><ele>760.0</ele><time>2026-04-27T13:21:42.149Z</time></trkpt><trkpt lat="39.9992696" lon="21.4965211"><ele>760.0</ele><time>2026-04-27T13:21:43.15Z</time></trkpt><trkpt lat="39.999133" lon="21.4967952"><ele>760.0</ele><time>2026-04-27T13:21:44.15Z</time></trkpt><trkpt lat="39.9989939" lon="21.4970793"><ele>760.0</ele><time>2026-04-27T13:21:45.15Z</time></trkpt><trkpt lat="39.998853" lon="21.4973589"><ele>762.5</ele><time>2026-04-27T13:21:46.149Z</time></trkpt><trkpt lat="39.9987173" lon="21.4976251"><ele>765.0</ele><time>2026-04-27T13:21:47.15Z</time></trkpt><trkpt lat="39.9985822" lon="21.4978984"><ele>766.5</ele><time>2026-04-27T13:21:48.149Z</time></trkpt><trkpt lat="39.9984437" lon="21.4981763"><ele>768.0</ele><time>2026-04-27T13:21:49.15Z</time></trkpt><trkpt lat="39.9983026" lon="21.498459"><ele>767.0</ele><time>2026-04-27T13:21:50.15Z</time></trkpt><trkpt lat="39.998159" lon="21.4987421"><ele>766.0</ele><time>2026-04-27T13:21:51.149Z</time></trkpt><trkpt lat="39.9980204" lon="21.4990251"><ele>766.0</ele><time>2026-04-27T13:21:52.149Z</time></trkpt><trkpt lat="39.9978812" lon="21.4993049"><ele>766.0</ele><time>2026-04-27T13:21:53.149Z</time></trkpt><trkpt lat="39.9977487" lon="21.4995754"><ele>766.5</ele><time>2026-04-27T13:21:54.149Z</time></trkpt><trkpt lat="39.997612" lon="21.4998364"><ele>767.0</ele><time>2026-04-27T13:21:55.15Z</time></trkpt><trkpt lat="39.9974789" lon="21.5000963"><ele>767.0</ele><time>2026-04-27T13:21:56.15Z</time></trkpt><trkpt lat="39.9973502" lon="21.5003644"><ele>767.0</ele><time>2026-04-27T13:21:57.15Z</time></trkpt><trkpt lat="39.997223" lon="21.5006529"><ele>767.0</ele><time>2026-04-27T13:21:58.15Z</time></trkpt><trkpt lat="39.9971076" lon="21.5009615"><ele>767.0</ele><time>2026-04-27T13:21:59.149Z</time></trkpt><trkpt lat="39.9969964" lon="21.5012804"><ele>767.0</ele><time>2026-04-27T13:22:00.149Z</time></trkpt><trkpt lat="39.9968911" lon="21.5016119"><ele>767.0</ele><time>2026-04-27T13:22:01.149Z</time></trkpt><trkpt lat="39.9967898" lon="21.5019446"><ele>768.5</ele><time>2026-04-27T13:22:02.149Z</time></trkpt><trkpt lat="39.9966841" lon="21.5022663"><ele>770.0</ele><time>2026-04-27T13:22:03.15Z</time></trkpt><trkpt lat="39.9965781" lon="21.5025825"><ele>767.5</ele><time>2026-04-27T13:22:04.149Z</time></trkpt><trkpt lat="39.996468" lon="21.5028724"><ele>765.0</ele><time>2026-04-27T13:22:05.15Z</time></trkpt><trkpt lat="39.9963429" lon="21.50315"><ele>765.0</ele><time>2026-04-27T13:22:06.149Z</time></trkpt><trkpt lat="39.9961906" lon="21.5033956"><ele>765.0</ele><time>2026-04-27T13:22:07.149Z</time></trkpt><trkpt lat="39.9960267" lon="21.5036178"><ele>764.5</ele><time>2026-04-27T13:22:08.15Z</time></trkpt><trkpt lat="39.995843" lon="21.5038179"><ele>764.0</ele><time>2026-04-27T13:22:09.15Z</time></trkpt><trkpt lat="39.995609" lon="21.5040216"><ele>764.0</ele><time>2026-04-27T13:22:10.15Z</time></trkpt><trkpt lat="39.9953666" lon="21.5041915"><ele>764.0</ele><time>2026-04-27T13:22:11.149Z</time></trkpt><trkpt lat="39.9951386" lon="21.5043563"><ele>765.0</ele><time>2026-04-27T13:22:12.15Z</time></trkpt><trkpt lat="39.9949187" lon="21.5045298"><ele>766.0</ele><time>2026-04-27T13:22:13.15Z</time></trkpt><trkpt lat="39.9947108" lon="21.5046882"><ele>767.0</ele><time>2026-04-27T13:22:14.149Z</time></trkpt><trkpt lat="39.9945064" lon="21.5048455"><ele>768.0</ele><time>2026-04-27T13:22:15.15Z</time></trkpt><trkpt lat="39.9943088" lon="21.505006"><ele>771.3333333333333</ele><time>2026-04-27T13:22:16.15Z</time></trkpt><trkpt lat="39.9941214" lon="21.5051478"><ele>774.6666666666666</ele><time>2026-04-27T13:22:17.149Z</time></trkpt><trkpt lat="39.99394" lon="21.5052722"><ele>778.0</ele><time>2026-04-27T13:22:18.15Z</time></trkpt><trkpt lat="39.9937671" lon="21.5053628"><ele>777.3333333333333</ele><time>2026-04-27T13:22:19.149Z</time></trkpt><trkpt lat="39.9935801" lon="21.5054214"><ele>776.6666666666667</ele><time>2026-04-27T13:22:20.15Z</time></trkpt><trkpt lat="39.9933691" lon="21.5054315"><ele>776.0</ele><time>2026-04-27T13:22:21.15Z</time></trkpt><trkpt lat="39.9931558" lon="21.5054244"><ele>777.6666666666667</ele><time>2026-04-27T13:22:22.149Z</time></trkpt><trkpt lat="39.9929401" lon="21.505389"><ele>779.3333333333333</ele><time>2026-04-27T13:22:23.149Z</time></trkpt><trkpt lat="39.9927236" lon="21.5052961"><ele>781.0</ele><time>2026-04-27T13:22:24.149Z</time></trkpt><trkpt lat="39.992502" lon="21.5051789"><ele>782.5</ele><time>2026-04-27T13:22:25.149Z</time></trkpt><trkpt lat="39.9922753" lon="21.5050407"><ele>784.0</ele><time>2026-04-27T13:22:26.149Z</time></trkpt><trkpt lat="39.9920387" lon="21.5048687"><ele>784.0</ele><time>2026-04-27T13:22:27.15Z</time></trkpt><trkpt lat="39.991799" lon="21.5047045"><ele>784.0</ele><time>2026-04-27T13:22:28.149Z</time></trkpt><trkpt lat="39.9915464" lon="21.5045321"><ele>788.5</ele><time>2026-04-27T13:22:29.149Z</time></trkpt><trkpt lat="39.9912872" lon="21.5043611"><ele>793.0</ele><time>2026-04-27T13:22:30.15Z</time></trkpt><trkpt lat="39.9910321" lon="21.5041803"><ele>791.5</ele><time>2026-04-27T13:22:31.15Z</time></trkpt><trkpt lat="39.9907978" lon="21.5040161"><ele>790.0</ele><time>2026-04-27T13:22:32.149Z</time></trkpt><trkpt lat="39.9905726" lon="21.5038669"><ele>792.0</ele><time>2026-04-27T13:22:33.15Z</time></trkpt><trkpt lat="39.9903673" lon="21.5037292"><ele>794.0</ele><time>2026-04-27T13:22:34.15Z</time></trkpt><trkpt lat="39.9901831" lon="21.5035963"><ele>796.0</ele><time>2026-04-27T13:22:35.15Z</time></trkpt><trkpt lat="39.9900215" lon="21.5034803"><ele>795.3333333333333</ele><time>2026-04-27T13:22:36.15Z</time></trkpt><trkpt lat="39.9898809" lon="21.5033483"><ele>794.6666666666667</ele><time>2026-04-27T13:22:37.149Z</time></trkpt><trkpt lat="39.9897463" lon="21.5031843"><ele>794.0</ele><time>2026-04-27T13:22:38.15Z</time></trkpt><trkpt lat="39.9896357" lon="21.5030076"><ele>795.0</ele><time>2026-04-27T13:22:39.15Z</time></trkpt><trkpt lat="39.9895265" lon="21.502818"><ele>796.0</ele><time>2026-04-27T13:22:40.149Z</time></trkpt><trkpt lat="39.9894167" lon="21.5026263"><ele>797.0</ele><time>2026-04-27T13:22:41.15Z</time></trkpt><trkpt lat="39.9893036" lon="21.5024411"><ele>797.0</ele><time>2026-04-27T13:22:42.15Z</time></trkpt><trkpt lat="39.9891799" lon="21.5022664"><ele>797.0</ele><time>2026-04-27T13:22:43.15Z</time></trkpt><trkpt lat="39.9890449" lon="21.5021108"><ele>797.0</ele><time>2026-04-27T13:22:44.15Z</time></trkpt><trkpt lat="39.9888967" lon="21.5019865"><ele>795.0</ele><time>2026-04-27T13:22:45.149Z</time></trkpt><trkpt lat="39.9887455" lon="21.501887"><ele>793.0</ele><time>2026-04-27T13:22:46.149Z</time></trkpt><trkpt lat="39.9885949" lon="21.5017984"><ele>791.0</ele><time>2026-04-27T13:22:47.15Z</time></trkpt><trkpt lat="39.9884431" lon="21.5017179"><ele>790.6666666666667</ele><time>2026-04-27T13:22:48.15Z</time></trkpt><trkpt lat="39.9882916" lon="21.5016428"><ele>790.3333333333333</ele><time>2026-04-27T13:22:49.149Z</time></trkpt><trkpt lat="39.9881441" lon="21.5015697"><ele>790.0</ele><time>2026-04-27T13:22:50.15Z</time></trkpt><trkpt lat="39.9880033" lon="21.501501"><ele>790.0</ele><time>2026-04-27T13:22:51.15Z</time></trkpt><trkpt lat="39.9878705" lon="21.5014319"><ele>790.0</ele><time>2026-04-27T13:22:52.15Z</time></trkpt><trkpt lat="39.9877416" lon="21.501364"><ele>790.0</ele><time>2026-04-27T13:22:53.149Z</time></trkpt><trkpt lat="39.9876093" lon="21.5013027"><ele>790.0</ele><time>2026-04-27T13:22:54.15Z</time></trkpt><trkpt lat="39.9874756" lon="21.5012513"><ele>790.75</ele><time>2026-04-27T13:22:55.15Z</time></trkpt><trkpt lat="39.9873352" lon="21.5012195"><ele>791.5</ele><time>2026-04-27T13:22:56.15Z</time></trkpt><trkpt lat="39.9872011" lon="21.501207"><ele>792.25</ele><time>2026-04-27T13:22:57.149Z</time></trkpt><trkpt lat="39.9870685" lon="21.5012186"><ele>793.0</ele><time>2026-04-27T13:22:58.15Z</time></trkpt><trkpt lat="39.9869405" lon="21.5012618"><ele>793.75</ele><time>2026-04-27T13:22:59.15Z</time></trkpt><trkpt lat="39.986812" lon="21.5013344"><ele>794.5</ele><time>2026-04-27T13:23:00.15Z</time></trkpt><trkpt lat="39.9866905" lon="21.5014075"><ele>795.25</ele><time>2026-04-27T13:23:01.15Z</time></trkpt><trkpt lat="39.9865644" lon="21.5014888"><ele>796.0</ele><time>2026-04-27T13:23:02.15Z</time></trkpt><trkpt lat="39.9864316" lon="21.5015667"><ele>796.3333333333333</ele><time>2026-04-27T13:23:03.149Z</time></trkpt><trkpt lat="39.9862965" lon="21.5016447"><ele>796.6666666666667</ele><time>2026-04-27T13:23:04.149Z</time></trkpt><trkpt lat="39.9861582" lon="21.5017306"><ele>797.0</ele><time>2026-04-27T13:23:05.149Z</time></trkpt><trkpt lat="39.9860118" lon="21.5018261"><ele>797.0</ele><time>2026-04-27T13:23:06.149Z</time></trkpt><trkpt lat="39.9858671" lon="21.501916"><ele>797.0</ele><time>2026-04-27T13:23:07.15Z</time></trkpt><trkpt lat="39.985724" lon="21.5020068"><ele>797.0</ele><time>2026-04-27T13:23:08.149Z</time></trkpt><trkpt lat="39.98559" lon="21.5020819"><ele>797.75</ele><time>2026-04-27T13:23:09.15Z</time></trkpt><trkpt lat="39.9854549" lon="21.5021594"><ele>798.5</ele><time>2026-04-27T13:23:10.149Z</time></trkpt><trkpt lat="39.9853227" lon="21.5022381"><ele>799.25</ele><time>2026-04-27T13:23:11.15Z</time></trkpt><trkpt lat="39.9851925" lon="21.5023189"><ele>800.0</ele><time>2026-04-27T13:23:12.15Z</time></trkpt><trkpt lat="39.9850644" lon="21.5023989"><ele>799.5</ele><time>2026-04-27T13:23:13.149Z</time></trkpt><trkpt lat="39.9849328" lon="21.50248"><ele>799.0</ele><time>2026-04-27T13:23:14.149Z</time></trkpt><trkpt lat="39.9847979" lon="21.5025634"><ele>798.5</ele><time>2026-04-27T13:23:15.15Z</time></trkpt><trkpt lat="39.9846648" lon="21.5026495"><ele>798.0</ele><time>2026-04-27T13:23:16.149Z</time></trkpt><trkpt lat="39.9845337" lon="21.5027399"><ele>798.0</ele><time>2026-04-27T13:23:17.149Z</time></trkpt><trkpt lat="39.9844134" lon="21.5028348"><ele>798.0</ele><time>2026-04-27T13:23:18.149Z</time></trkpt><trkpt lat="39.9842917" lon="21.5029407"><ele>798.0</ele><time>2026-04-27T13:23:19.149Z</time></trkpt><trkpt lat="39.9841788" lon="21.5030641"><ele>798.0</ele><time>2026-04-27T13:23:20.15Z</time></trkpt><trkpt lat="39.9840646" lon="21.5032"><ele>797.3333333333333</ele><time>2026-04-27T13:23:21.149Z</time></trkpt><trkpt lat="39.9839535" lon="21.5033363"><ele>796.6666666666666</ele><time>2026-04-27T13:23:22.149Z</time></trkpt><trkpt lat="39.9838435" lon="21.5034799"><ele>796.0</ele><time>2026-04-27T13:23:23.149Z</time></trkpt><trkpt lat="39.9837273" lon="21.5036404"><ele>797.0</ele><time>2026-04-27T13:23:24.15Z</time></trkpt><trkpt lat="39.983608" lon="21.5037863"><ele>798.0</ele><time>2026-04-27T13:23:25.149Z</time></trkpt><trkpt lat="39.9834878" lon="21.5039319"><ele>799.0</ele><time>2026-04-27T13:23:26.149Z</time></trkpt><trkpt lat="39.9833619" lon="21.5040755"><ele>798.3333333333333</ele><time>2026-04-27T13:23:27.149Z</time></trkpt><trkpt lat="39.9832245" lon="21.5042169"><ele>797.6666666666667</ele><time>2026-04-27T13:23:28.15Z</time></trkpt><trkpt lat="39.9830838" lon="21.5043387"><ele>797.0</ele><time>2026-04-27T13:23:29.15Z</time></trkpt><trkpt lat="39.9829405" lon="21.5044548"><ele>797.0</ele><time>2026-04-27T13:23:30.15Z</time></trkpt><trkpt lat="39.982797" lon="21.5045612"><ele>797.0</ele><time>2026-04-27T13:23:31.149Z</time></trkpt><trkpt lat="39.9826457" lon="21.5046857"><ele>797.0</ele><time>2026-04-27T13:23:32.15Z</time></trkpt><trkpt lat="39.9824871" lon="21.5047992"><ele>797.3333333333334</ele><time>2026-04-27T13:23:33.15Z</time></trkpt><trkpt lat="39.9823325" lon="21.5049199"><ele>797.6666666666667</ele><time>2026-04-27T13:23:34.15Z</time></trkpt><trkpt lat="39.982182" lon="21.5050465"><ele>798.0</ele><time>2026-04-27T13:23:35.15Z</time></trkpt><trkpt lat="39.982027" lon="21.505178"><ele>798.0</ele><time>2026-04-27T13:23:36.15Z</time></trkpt><trkpt lat="39.9818792" lon="21.505326"><ele>798.0</ele><time>2026-04-27T13:23:37.149Z</time></trkpt><trkpt lat="39.9817449" lon="21.5054915"><ele>798.0</ele><time>2026-04-27T13:23:38.15Z</time></trkpt><trkpt lat="39.9816138" lon="21.505661"><ele>798.6666666666667</ele><time>2026-04-27T13:23:39.149Z</time></trkpt><trkpt lat="39.9814796" lon="21.5058384"><ele>799.3333333333334</ele><time>2026-04-27T13:23:40.149Z</time></trkpt><trkpt lat="39.9813428" lon="21.5060089"><ele>800.0</ele><time>2026-04-27T13:23:41.149Z</time></trkpt><trkpt lat="39.9812073" lon="21.5061972"><ele>798.0</ele><time>2026-04-27T13:23:42.149Z</time></trkpt><trkpt lat="39.9810707" lon="21.5064076"><ele>796.0</ele><time>2026-04-27T13:23:43.149Z</time></trkpt><trkpt lat="39.9809222" lon="21.5066204"><ele>794.0</ele><time>2026-04-27T13:23:44.15Z</time></trkpt><trkpt lat="39.9807743" lon="21.5068347"><ele>796.6666666666667</ele><time>2026-04-27T13:23:45.15Z</time></trkpt><trkpt lat="39.9806188" lon="21.507042"><ele>799.3333333333333</ele><time>2026-04-27T13:23:46.149Z</time></trkpt><trkpt lat="39.9804641" lon="21.5072438"><ele>802.0</ele><time>2026-04-27T13:23:47.15Z</time></trkpt><trkpt lat="39.9803055" lon="21.507423"><ele>802.0</ele><time>2026-04-27T13:23:48.149Z</time></trkpt><trkpt lat="39.9801397" lon="21.5075798"><ele>802.0</ele><time>2026-04-27T13:23:49.149Z</time></trkpt><trkpt lat="39.979971" lon="21.5077311"><ele>802.0</ele><time>2026-04-27T13:23:50.149Z</time></trkpt><trkpt lat="39.9797912" lon="21.5078814"><ele>802.3333333333333</ele><time>2026-04-27T13:23:51.149Z</time></trkpt><trkpt lat="39.979628" lon="21.5080224"><ele>802.6666666666667</ele><time>2026-04-27T13:23:52.149Z</time></trkpt><trkpt lat="39.9794732" lon="21.5081892"><ele>803.0</ele><time>2026-04-27T13:23:53.15Z</time></trkpt><trkpt lat="39.979338" lon="21.5083732"><ele>803.0</ele><time>2026-04-27T13:23:54.149Z</time></trkpt><trkpt lat="39.9792274" lon="21.5085838"><ele>803.0</ele><time>2026-04-27T13:23:55.149Z</time></trkpt><trkpt lat="39.9791459" lon="21.5088075"><ele>803.0</ele><time>2026-04-27T13:23:56.15Z</time></trkpt><trkpt lat="39.9790852" lon="21.5090593"><ele>804.0</ele><time>2026-04-27T13:23:57.15Z</time></trkpt><trkpt lat="39.9790716" lon="21.5093257"><ele>805.0</ele><time>2026-04-27T13:23:58.149Z</time></trkpt><trkpt lat="39.9790809" lon="21.5096084"><ele>806.0</ele><time>2026-04-27T13:23:59.15Z</time></trkpt><trkpt lat="39.9791219" lon="21.5099014"><ele>806.5</ele><time>2026-04-27T13:24:00.15Z</time></trkpt><trkpt lat="39.9791773" lon="21.5101999"><ele>807.0</ele><time>2026-04-27T13:24:01.149Z</time></trkpt><trkpt lat="39.9792398" lon="21.5105078"><ele>804.5</ele><time>2026-04-27T13:24:02.149Z</time></trkpt><trkpt lat="39.9793031" lon="21.5108175"><ele>802.0</ele><time>2026-04-27T13:24:03.15Z</time></trkpt><trkpt lat="39.9793693" lon="21.5111293"><ele>804.0</ele><time>2026-04-27T13:24:04.149Z</time></trkpt><trkpt lat="39.9794241" lon="21.5114321"><ele>806.0</ele><time>2026-04-27T13:24:05.15Z</time></trkpt><trkpt lat="39.9794834" lon="21.5117152"><ele>806.0</ele><time>2026-04-27T13:24:06.149Z</time></trkpt><trkpt lat="39.9795482" lon="21.51198"><ele>806.0</ele><time>2026-04-27T13:24:07.15Z</time></trkpt><trkpt lat="39.9796192" lon="21.5122074"><ele>806.0</ele><time>2026-04-27T13:24:08.15Z</time></trkpt><trkpt lat="39.9797099" lon="21.5124147"><ele>809.6666666666667</ele><time>2026-04-27T13:24:09.149Z</time></trkpt><trkpt lat="39.9798227" lon="21.5126118"><ele>813.3333333333333</ele><time>2026-04-27T13:24:10.15Z</time></trkpt><trkpt lat="39.9799402" lon="21.5128054"><ele>817.0</ele><time>2026-04-27T13:24:11.149Z</time></trkpt><trkpt lat="39.9800487" lon="21.5130063"><ele>817.0</ele><time>2026-04-27T13:24:12.15Z</time></trkpt><trkpt lat="39.9801506" lon="21.5132224"><ele>817.0</ele><time>2026-04-27T13:24:13.149Z</time></trkpt><trkpt lat="39.9802238" lon="21.5134439"><ele>817.0</ele><time>2026-04-27T13:24:14.149Z</time></trkpt><trkpt lat="39.980258" lon="21.5136634"><ele>817.6666666666666</ele><time>2026-04-27T13:24:15.149Z</time></trkpt><trkpt lat="39.9802665" lon="21.5138826"><ele>818.3333333333333</ele><time>2026-04-27T13:24:16.149Z</time></trkpt><trkpt lat="39.9802318" lon="21.5140936"><ele>819.0</ele><time>2026-04-27T13:24:17.15Z</time></trkpt><trkpt lat="39.9801495" lon="21.514277"><ele>819.0</ele><time>2026-04-27T13:24:18.15Z</time></trkpt><trkpt lat="39.9800349" lon="21.5144388"><ele>819.0</ele><time>2026-04-27T13:24:19.15Z</time></trkpt><trkpt lat="39.9798955" lon="21.5145953"><ele>819.0</ele><time>2026-04-27T13:24:20.149Z</time></trkpt><trkpt lat="39.9797565" lon="21.5147396"><ele>823.6666666666667</ele><time>2026-04-27T13:24:21.15Z</time></trkpt><trkpt lat="39.979608" lon="21.5148651"><ele>828.3333333333334</ele><time>2026-04-27T13:24:22.149Z</time></trkpt><trkpt lat="39.9794419" lon="21.5149589"><ele>833.0</ele><time>2026-04-27T13:24:23.149Z</time></trkpt><trkpt lat="39.9792615" lon="21.5150096"><ele>836.0</ele><time>2026-04-27T13:24:24.149Z</time></trkpt><trkpt lat="39.979074" lon="21.5150393"><ele>839.0</ele><time>2026-04-27T13:24:25.149Z</time></trkpt><trkpt lat="39.9788761" lon="21.5150386"><ele>842.0</ele><time>2026-04-27T13:24:26.149Z</time></trkpt><trkpt lat="39.978661" lon="21.514977"><ele>842.0</ele><time>2026-04-27T13:24:27.15Z</time></trkpt><trkpt lat="39.9784603" lon="21.5149188"><ele>842.0</ele><time>2026-04-27T13:24:28.149Z</time></trkpt><trkpt lat="39.9782724" lon="21.5148668"><ele>842.0</ele><time>2026-04-27T13:24:29.15Z</time></trkpt><trkpt lat="39.9780852" lon="21.5148293"><ele>843.3333333333334</ele><time>2026-04-27T13:24:30.149Z</time></trkpt><trkpt lat="39.9779027" lon="21.5148226"><ele>844.6666666666667</ele><time>2026-04-27T13:24:31.15Z</time></trkpt><trkpt lat="39.9777218" lon="21.5148608"><ele>846.0</ele><time>2026-04-27T13:24:32.15Z</time></trkpt><trkpt lat="39.9775372" lon="21.5149532"><ele>846.0</ele><time>2026-04-27T13:24:33.15Z</time></trkpt><trkpt lat="39.9773607" lon="21.5150987"><ele>846.0</ele><time>2026-04-27T13:24:34.15Z</time></trkpt><trkpt lat="39.9771747" lon="21.5152746"><ele>846.0</ele><time>2026-04-27T13:24:35.149Z</time></trkpt><trkpt lat="39.9769912" lon="21.5154568"><ele>846.0</ele><time>2026-04-27T13:24:36.15Z</time></trkpt><trkpt lat="39.9767975" lon="21.5156426"><ele>846.0</ele><time>2026-04-27T13:24:37.149Z</time></trkpt><trkpt lat="39.9766052" lon="21.5158188"><ele>849.5</ele><time>2026-04-27T13:24:38.15Z</time></trkpt><trkpt lat="39.9764118" lon="21.5160023"><ele>853.0</ele><time>2026-04-27T13:24:39.149Z</time></trkpt><trkpt lat="39.9762172" lon="21.5161853"><ele>852.5</ele><time>2026-04-27T13:24:40.15Z</time></trkpt><trkpt lat="39.9760245" lon="21.5163728"><ele>852.0</ele><time>2026-04-27T13:24:41.149Z</time></trkpt><trkpt lat="39.9758387" lon="21.5165827"><ele>852.0</ele><time>2026-04-27T13:24:42.15Z</time></trkpt><trkpt lat="39.9756432" lon="21.5168037"><ele>852.0</ele><time>2026-04-27T13:24:43.15Z</time></trkpt><trkpt lat="39.9754509" lon="21.5170277"><ele>850.5</ele><time>2026-04-27T13:24:44.15Z</time></trkpt><trkpt lat="39.9752603" lon="21.5172606"><ele>849.0</ele><time>2026-04-27T13:24:45.149Z</time></trkpt><trkpt lat="39.9750584" lon="21.5174814"><ele>854.0</ele><time>2026-04-27T13:24:46.15Z</time></trkpt><trkpt lat="39.9748614" lon="21.5177033"><ele>859.0</ele><time>2026-04-27T13:24:47.15Z</time></trkpt><trkpt lat="39.974658" lon="21.517927"><ele>859.0</ele><time>2026-04-27T13:24:48.149Z</time></trkpt><trkpt lat="39.9744763" lon="21.5181345"><ele>859.0</ele><time>2026-04-27T13:24:49.15Z</time></trkpt><trkpt lat="39.9742963" lon="21.5183278"><ele>860.0</ele><time>2026-04-27T13:24:50.15Z</time></trkpt><trkpt lat="39.9741207" lon="21.5185058"><ele>861.0</ele><time>2026-04-27T13:24:51.15Z</time></trkpt><trkpt lat="39.9739295" lon="21.5186836"><ele>864.3333333333333</ele><time>2026-04-27T13:24:52.15Z</time></trkpt><trkpt lat="39.9737359" lon="21.5188363"><ele>867.6666666666666</ele><time>2026-04-27T13:24:53.149Z</time></trkpt><trkpt lat="39.9735498" lon="21.5189607"><ele>871.0</ele><time>2026-04-27T13:24:54.149Z</time></trkpt><trkpt lat="39.9734016" lon="21.5190931"><ele>871.0</ele><time>2026-04-27T13:24:55.149Z</time></trkpt><trkpt lat="39.9732649" lon="21.519232"><ele>871.0</ele><time>2026-04-27T13:24:56.15Z</time></trkpt><trkpt lat="39.973157" lon="21.5193925"><ele>871.0</ele><time>2026-04-27T13:24:57.149Z</time></trkpt><trkpt lat="39.973075" lon="21.5195877"><ele>872.6666666666666</ele><time>2026-04-27T13:24:58.15Z</time></trkpt><trkpt lat="39.9730093" lon="21.5197832"><ele>874.3333333333333</ele><time>2026-04-27T13:24:59.15Z</time></trkpt><trkpt lat="39.972956" lon="21.5200176"><ele>876.0</ele><time>2026-04-27T13:25:00.15Z</time></trkpt><trkpt lat="39.9729089" lon="21.5202702"><ele>876.0</ele><time>2026-04-27T13:25:01.149Z</time></trkpt><trkpt lat="39.9728617" lon="21.520516"><ele>876.0</ele><time>2026-04-27T13:25:02.149Z</time></trkpt><trkpt lat="39.9728098" lon="21.5207552"><ele>876.0</ele><time>2026-04-27T13:25:03.15Z</time></trkpt><trkpt lat="39.9727394" lon="21.5209795"><ele>876.0</ele><time>2026-04-27T13:25:04.149Z</time></trkpt><trkpt lat="39.9726303" lon="21.5211897"><ele>876.0</ele><time>2026-04-27T13:25:05.149Z</time></trkpt><trkpt lat="39.9725032" lon="21.5213889"><ele>876.0</ele><time>2026-04-27T13:25:06.149Z</time></trkpt><trkpt lat="39.9723576" lon="21.5215696"><ele>877.3333333333333</ele><time>2026-04-27T13:25:07.149Z</time></trkpt><trkpt lat="39.9722251" lon="21.5217706"><ele>878.6666666666666</ele><time>2026-04-27T13:25:08.15Z</time></trkpt><trkpt lat="39.972094" lon="21.5219512"><ele>880.0</ele><time>2026-04-27T13:25:09.149Z</time></trkpt><trkpt lat="39.9719695" lon="21.522134"><ele>880.0</ele><time>2026-04-27T13:25:10.149Z</time></trkpt><trkpt lat="39.9718503" lon="21.5222987"><ele>880.0</ele><time>2026-04-27T13:25:11.15Z</time></trkpt><trkpt lat="39.9717359" lon="21.5224609"><ele>880.0</ele><time>2026-04-27T13:25:12.149Z</time></trkpt><trkpt lat="39.971627" lon="21.522613"><ele>881.3333333333333</ele><time>2026-04-27T13:25:13.15Z</time></trkpt><trkpt lat="39.9715219" lon="21.5227616"><ele>882.6666666666667</ele><time>2026-04-27T13:25:14.149Z</time></trkpt><trkpt lat="39.9714206" lon="21.5229207"><ele>884.0</ele><time>2026-04-27T13:25:15.15Z</time></trkpt><trkpt lat="39.9713128" lon="21.5230635"><ele>884.6666666666667</ele><time>2026-04-27T13:25:16.149Z</time></trkpt><trkpt lat="39.9712074" lon="21.5232096"><ele>885.3333333333333</ele><time>2026-04-27T13:25:17.149Z</time></trkpt><trkpt lat="39.9711" lon="21.5233585"><ele>886.0</ele><time>2026-04-27T13:25:18.15Z</time></trkpt><trkpt lat="39.9709869" lon="21.5235039"><ele>886.0</ele><time>2026-04-27T13:25:19.15Z</time></trkpt><trkpt lat="39.9708671" lon="21.5236718"><ele>886.0</ele><time>2026-04-27T13:25:20.15Z</time></trkpt><trkpt lat="39.9707489" lon="21.5238357"><ele>886.0</ele><time>2026-04-27T13:25:21.15Z</time></trkpt><trkpt lat="39.9706305" lon="21.5240031"><ele>886.0</ele><time>2026-04-27T13:25:22.15Z</time></trkpt><trkpt lat="39.9705093" lon="21.5241684"><ele>886.0</ele><time>2026-04-27T13:25:23.15Z</time></trkpt><trkpt lat="39.970394" lon="21.524331"><ele>886.0</ele><time>2026-04-27T13:25:24.15Z</time></trkpt><trkpt lat="39.9702843" lon="21.5244821"><ele>886.25</ele><time>2026-04-27T13:25:25.149Z</time></trkpt><trkpt lat="39.9701828" lon="21.5246256"><ele>886.5</ele><time>2026-04-27T13:25:26.149Z</time></trkpt><trkpt lat="39.9700896" lon="21.524757"><ele>886.75</ele><time>2026-04-27T13:25:27.15Z</time></trkpt><trkpt lat="39.9700065" lon="21.5248778"><ele>887.0</ele><time>2026-04-27T13:25:28.149Z</time></trkpt><trkpt lat="39.9699335" lon="21.5249823"><ele>887.0000000000001</ele><time>2026-04-27T13:25:29.15Z</time></trkpt><trkpt lat="39.9698742" lon="21.5250734"><ele>887.0</ele><time>2026-04-27T13:25:30.15Z</time></trkpt><trkpt lat="39.969827" lon="21.5251327"><ele>887.0</ele><time>2026-04-27T13:25:31.15Z</time></trkpt><trkpt lat="39.9697751" lon="21.5251995"><ele>887.0</ele><time>2026-04-27T13:25:33.149Z</time></trkpt><trkpt lat="39.9697206" lon="21.5252706"><ele>887.0000000000001</ele><time>2026-04-27T13:25:37.149Z</time></trkpt><trkpt lat="39.9697918" lon="21.5253111"><ele>887.0</ele><time>2026-04-27T13:25:49.149Z</time></trkpt><trkpt lat="39.9698498" lon="21.5252657"><ele>887.0</ele><time>2026-04-27T13:25:53.15Z</time></trkpt><trkpt lat="39.9697786" lon="21.5252949"><ele>887.0</ele><time>2026-04-27T13:26:03.15Z</time></trkpt><trkpt lat="39.9697137" lon="21.5253339"><ele>887.0</ele><time>2026-04-27T13:32:31.14Z</time></trkpt><trkpt lat="39.9696237" lon="21.525387"><ele>887.0</ele><time>2026-04-27T13:32:33.141Z</time></trkpt><trkpt lat="39.9695416" lon="21.5254865"><ele>887.0</ele><time>2026-04-27T13:32:35.14Z</time></trkpt><trkpt lat="39.9694348" lon="21.5255996"><ele>887.0000000000001</ele><time>2026-04-27T13:32:37.14Z</time></trkpt><trkpt lat="39.969368" lon="21.5256447"><ele>887.0</ele><time>2026-04-27T13:32:38.141Z</time></trkpt><trkpt lat="39.9693052" lon="21.5256935"><ele>887.0</ele><time>2026-04-27T13:32:39.141Z</time></trkpt><trkpt lat="39.9692409" lon="21.5257385"><ele>887.0</ele><time>2026-04-27T13:32:40.141Z</time></trkpt><trkpt lat="39.9691721" lon="21.5257871"><ele>887.0000000000001</ele><time>2026-04-27T13:32:41.141Z</time></trkpt><trkpt lat="39.9690874" lon="21.5258391"><ele>887.0</ele><time>2026-04-27T13:32:42.14Z</time></trkpt><trkpt lat="39.9690024" lon="21.5258927"><ele>887.6666666666667</ele><time>2026-04-27T13:32:43.14Z</time></trkpt><trkpt lat="39.9689222" lon="21.5259623"><ele>888.3333333333334</ele><time>2026-04-27T13:32:44.14Z</time></trkpt><trkpt lat="39.9688566" lon="21.5260219"><ele>889.0</ele><time>2026-04-27T13:32:45.14Z</time></trkpt><trkpt lat="39.9687954" lon="21.526081"><ele>889.6666666666667</ele><time>2026-04-27T13:32:46.141Z</time></trkpt><trkpt lat="39.9687289" lon="21.5261382"><ele>890.3333333333334</ele><time>2026-04-27T13:32:47.14Z</time></trkpt><trkpt lat="39.9686704" lon="21.5261999"><ele>891.0</ele><time>2026-04-27T13:32:48.141Z</time></trkpt><trkpt lat="39.9686116" lon="21.5262662"><ele>891.0</ele><time>2026-04-27T13:32:49.141Z</time></trkpt><trkpt lat="39.968544" lon="21.5263348"><ele>890.9999999999999</ele><time>2026-04-27T13:32:50.14Z</time></trkpt><trkpt lat="39.9684727" lon="21.5263973"><ele>890.9999999999999</ele><time>2026-04-27T13:32:51.14Z</time></trkpt><trkpt lat="39.9684003" lon="21.5264789"><ele>891.0</ele><time>2026-04-27T13:32:52.14Z</time></trkpt><trkpt lat="39.9683191" lon="21.5265725"><ele>891.0</ele><time>2026-04-27T13:32:53.14Z</time></trkpt><trkpt lat="39.9682295" lon="21.5266824"><ele>892.3333333333333</ele><time>2026-04-27T13:32:54.141Z</time></trkpt><trkpt lat="39.96812" lon="21.5268053"><ele>893.6666666666666</ele><time>2026-04-27T13:32:55.141Z</time></trkpt><trkpt lat="39.9679993" lon="21.5269321"><ele>895.0</ele><time>2026-04-27T13:32:56.14Z</time></trkpt><trkpt lat="39.9678697" lon="21.5270807"><ele>895.0</ele><time>2026-04-27T13:32:57.141Z</time></trkpt><trkpt lat="39.9677273" lon="21.5272318"><ele>895.0</ele><time>2026-04-27T13:32:58.14Z</time></trkpt><trkpt lat="39.9675872" lon="21.5273836"><ele>895.0</ele><time>2026-04-27T13:32:59.141Z</time></trkpt><trkpt lat="39.9674384" lon="21.5275344"><ele>895.0</ele><time>2026-04-27T13:33:00.141Z</time></trkpt><trkpt lat="39.96728" lon="21.5276841"><ele>895.0</ele><time>2026-04-27T13:33:01.141Z</time></trkpt><trkpt lat="39.9671133" lon="21.5278734"><ele>895.0</ele><time>2026-04-27T13:33:02.141Z</time></trkpt><trkpt lat="39.966925" lon="21.528066"><ele>894.0</ele><time>2026-04-27T13:33:03.141Z</time></trkpt><trkpt lat="39.9667352" lon="21.5282769"><ele>893.0</ele><time>2026-04-27T13:33:04.14Z</time></trkpt><trkpt lat="39.9665548" lon="21.5285187"><ele>891.0</ele><time>2026-04-27T13:33:05.14Z</time></trkpt><trkpt lat="39.9663894" lon="21.5287689"><ele>889.0</ele><time>2026-04-27T13:33:06.141Z</time></trkpt><trkpt lat="39.9662314" lon="21.5290287"><ele>889.0</ele><time>2026-04-27T13:33:07.141Z</time></trkpt><trkpt lat="39.966061" lon="21.529279"><ele>889.0</ele><time>2026-04-27T13:33:08.141Z</time></trkpt><trkpt lat="39.9659035" lon="21.5295153"><ele>890.0</ele><time>2026-04-27T13:33:09.141Z</time></trkpt><trkpt lat="39.9657446" lon="21.5297536"><ele>891.0</ele><time>2026-04-27T13:33:10.14Z</time></trkpt><trkpt lat="39.9655885" lon="21.5299835"><ele>891.0</ele><time>2026-04-27T13:33:11.141Z</time></trkpt><trkpt lat="39.9654404" lon="21.5302207"><ele>891.0</ele><time>2026-04-27T13:33:12.14Z</time></trkpt><trkpt lat="39.9652948" lon="21.5304659"><ele>891.3333333333333</ele><time>2026-04-27T13:33:13.14Z</time></trkpt><trkpt lat="39.9651629" lon="21.5307024"><ele>891.6666666666666</ele><time>2026-04-27T13:33:14.14Z</time></trkpt><trkpt lat="39.9650433" lon="21.5309429"><ele>892.0</ele><time>2026-04-27T13:33:15.14Z</time></trkpt><trkpt lat="39.9649322" lon="21.5311807"><ele>892.3333333333333</ele><time>2026-04-27T13:33:16.141Z</time></trkpt><trkpt lat="39.9648294" lon="21.5314133"><ele>892.6666666666667</ele><time>2026-04-27T13:33:17.14Z</time></trkpt><trkpt lat="39.9647356" lon="21.5316359"><ele>893.0</ele><time>2026-04-27T13:33:18.14Z</time></trkpt><trkpt lat="39.9646554" lon="21.5318557"><ele>891.3333333333334</ele><time>2026-04-27T13:33:19.14Z</time></trkpt><trkpt lat="39.9645967" lon="21.5321003"><ele>889.6666666666667</ele><time>2026-04-27T13:33:20.141Z</time></trkpt><trkpt lat="39.9645599" lon="21.5323334"><ele>888.0</ele><time>2026-04-27T13:33:21.14Z</time></trkpt><trkpt lat="39.9645513" lon="21.5325662"><ele>888.0</ele><time>2026-04-27T13:33:22.14Z</time></trkpt><trkpt lat="39.964578" lon="21.5327979"><ele>888.0</ele><time>2026-04-27T13:33:23.14Z</time></trkpt><trkpt lat="39.9646108" lon="21.5330291"><ele>888.0</ele><time>2026-04-27T13:33:24.141Z</time></trkpt><trkpt lat="39.9646502" lon="21.5332561"><ele>886.6666666666667</ele><time>2026-04-27T13:33:25.141Z</time></trkpt><trkpt lat="39.9646978" lon="21.5334757"><ele>885.3333333333334</ele><time>2026-04-27T13:33:26.14Z</time></trkpt><trkpt lat="39.9647196" lon="21.5336989"><ele>884.0</ele><time>2026-04-27T13:33:27.14Z</time></trkpt><trkpt lat="39.9647245" lon="21.5338983"><ele>881.0</ele><time>2026-04-27T13:33:28.141Z</time></trkpt><trkpt lat="39.9646396" lon="21.5341318"><ele>878.0</ele><time>2026-04-27T13:33:29.141Z</time></trkpt><trkpt lat="39.964583" lon="21.5343772"><ele>875.0</ele><time>2026-04-27T13:33:30.14Z</time></trkpt><trkpt lat="39.9645077" lon="21.5346186"><ele>874.0</ele><time>2026-04-27T13:33:31.14Z</time></trkpt><trkpt lat="39.9644284" lon="21.5348377"><ele>873.0</ele><time>2026-04-27T13:33:32.14Z</time></trkpt><trkpt lat="39.9643407" lon="21.5350536"><ele>872.0</ele><time>2026-04-27T13:33:33.141Z</time></trkpt><trkpt lat="39.9642359" lon="21.5352526"><ele>872.3333333333334</ele><time>2026-04-27T13:33:34.14Z</time></trkpt><trkpt lat="39.9640718" lon="21.535384"><ele>872.6666666666667</ele><time>2026-04-27T13:33:35.141Z</time></trkpt><trkpt lat="39.963922" lon="21.5355245"><ele>873.0</ele><time>2026-04-27T13:33:36.141Z</time></trkpt><trkpt lat="39.9637731" lon="21.5356573"><ele>873.0</ele><time>2026-04-27T13:33:37.141Z</time></trkpt><trkpt lat="39.9636448" lon="21.5358252"><ele>873.0</ele><time>2026-04-27T13:33:38.14Z</time></trkpt><trkpt lat="39.9635288" lon="21.5359998"><ele>873.0</ele><time>2026-04-27T13:33:39.141Z</time></trkpt><trkpt lat="39.9634399" lon="21.5362115"><ele>873.6666666666667</ele><time>2026-04-27T13:33:40.141Z</time></trkpt><trkpt lat="39.9633771" lon="21.5364509"><ele>874.3333333333334</ele><time>2026-04-27T13:33:41.14Z</time></trkpt><trkpt lat="39.9633317" lon="21.5366933"><ele>875.0</ele><time>2026-04-27T13:33:42.141Z</time></trkpt><trkpt lat="39.9632984" lon="21.5369496"><ele>874.3333333333334</ele><time>2026-04-27T13:33:43.14Z</time></trkpt><trkpt lat="39.9632713" lon="21.5372042"><ele>873.6666666666667</ele><time>2026-04-27T13:33:44.14Z</time></trkpt><trkpt lat="39.9632529" lon="21.5374504"><ele>873.0</ele><time>2026-04-27T13:33:45.141Z</time></trkpt><trkpt lat="39.9632471" lon="21.5376853"><ele>871.3333333333333</ele><time>2026-04-27T13:33:46.141Z</time></trkpt><trkpt lat="39.9632618" lon="21.5379114"><ele>869.6666666666666</ele><time>2026-04-27T13:33:47.141Z</time></trkpt><trkpt lat="39.963281" lon="21.5381361"><ele>868.0</ele><time>2026-04-27T13:33:48.14Z</time></trkpt><trkpt lat="39.963282" lon="21.5383574"><ele>868.0</ele><time>2026-04-27T13:33:49.141Z</time></trkpt><trkpt lat="39.9632533" lon="21.538555"><ele>868.0</ele><time>2026-04-27T13:33:50.141Z</time></trkpt><trkpt lat="39.9631984" lon="21.538756"><ele>868.0</ele><time>2026-04-27T13:33:51.141Z</time></trkpt><trkpt lat="39.963076" lon="21.5389405"><ele>862.6666666666666</ele><time>2026-04-27T13:33:52.141Z</time></trkpt><trkpt lat="39.9629457" lon="21.539135"><ele>857.3333333333333</ele><time>2026-04-27T13:33:53.141Z</time></trkpt><trkpt lat="39.9628009" lon="21.5393312"><ele>852.0</ele><time>2026-04-27T13:33:54.141Z</time></trkpt><trkpt lat="39.9626512" lon="21.5395224"><ele>851.3333333333333</ele><time>2026-04-27T13:33:55.141Z</time></trkpt><trkpt lat="39.9624709" lon="21.5396722"><ele>850.6666666666666</ele><time>2026-04-27T13:33:56.14Z</time></trkpt><trkpt lat="39.9623041" lon="21.5398342"><ele>850.0</ele><time>2026-04-27T13:33:57.141Z</time></trkpt><trkpt lat="39.9621406" lon="21.5399836"><ele>850.0</ele><time>2026-04-27T13:33:58.14Z</time></trkpt><trkpt lat="39.9619876" lon="21.5401352"><ele>850.0</ele><time>2026-04-27T13:33:59.14Z</time></trkpt><trkpt lat="39.9618385" lon="21.540275"><ele>850.0</ele><time>2026-04-27T13:34:00.141Z</time></trkpt><trkpt lat="39.9616785" lon="21.5403838"><ele>848.0</ele><time>2026-04-27T13:34:01.14Z</time></trkpt><trkpt lat="39.9615331" lon="21.5404839"><ele>846.0</ele><time>2026-04-27T13:34:02.14Z</time></trkpt><trkpt lat="39.9613881" lon="21.5405632"><ele>844.0</ele><time>2026-04-27T13:34:03.14Z</time></trkpt><trkpt lat="39.9612494" lon="21.5406262"><ele>844.0</ele><time>2026-04-27T13:34:04.141Z</time></trkpt><trkpt lat="39.9611247" lon="21.5406912"><ele>844.0</ele><time>2026-04-27T13:34:05.141Z</time></trkpt><trkpt lat="39.9610542" lon="21.5407692"><ele>844.0</ele><time>2026-04-27T13:34:06.141Z</time></trkpt><trkpt lat="39.961003" lon="21.5408617"><ele>844.0</ele><time>2026-04-27T13:34:07.14Z</time></trkpt><trkpt lat="39.9609839" lon="21.5409547"><ele>844.0</ele><time>2026-04-27T13:34:08.14Z</time></trkpt><trkpt lat="39.9609882" lon="21.5410628"><ele>844.0</ele><time>2026-04-27T13:34:09.14Z</time></trkpt><trkpt lat="39.9610645" lon="21.5411381"><ele>844.0</ele><time>2026-04-27T13:34:10.14Z</time></trkpt><trkpt lat="39.9611595" lon="21.5411875"><ele>844.0</ele><time>2026-04-27T13:34:11.14Z</time></trkpt><trkpt lat="39.9612814" lon="21.5411991"><ele>844.0</ele><time>2026-04-27T13:34:12.14Z</time></trkpt><trkpt lat="39.9614138" lon="21.5411673"><ele>844.0</ele><time>2026-04-27T13:34:13.141Z</time></trkpt><trkpt lat="39.961553" lon="21.5411067"><ele>844.0</ele><time>2026-04-27T13:34:14.14Z</time></trkpt><trkpt lat="39.9617086" lon="21.5410094"><ele>844.0</ele><time>2026-04-27T13:34:15.141Z</time></trkpt><trkpt lat="39.961854" lon="21.5408954"><ele>840.75</ele><time>2026-04-27T13:34:16.141Z</time></trkpt><trkpt lat="39.9619808" lon="21.5407796"><ele>837.5</ele><time>2026-04-27T13:34:17.141Z</time></trkpt><trkpt lat="39.9620844" lon="21.540678"><ele>834.25</ele><time>2026-04-27T13:34:18.14Z</time></trkpt><trkpt lat="39.962176" lon="21.5405963"><ele>831.0</ele><time>2026-04-27T13:34:19.14Z</time></trkpt><trkpt lat="39.9622811" lon="21.5405611"><ele>831.0</ele><time>2026-04-27T13:34:20.14Z</time></trkpt><trkpt lat="39.9623789" lon="21.5405701"><ele>831.0</ele><time>2026-04-27T13:34:21.141Z</time></trkpt><trkpt lat="39.9624345" lon="21.5406771"><ele>831.0</ele><time>2026-04-27T13:34:22.14Z</time></trkpt><trkpt lat="39.9624409" lon="21.5407868"><ele>831.0</ele><time>2026-04-27T13:34:23.14Z</time></trkpt><trkpt lat="39.9623996" lon="21.5409048"><ele>831.0</ele><time>2026-04-27T13:34:24.141Z</time></trkpt><trkpt lat="39.9623106" lon="21.5410627"><ele>825.3333333333333</ele><time>2026-04-27T13:34:25.141Z</time></trkpt><trkpt lat="39.9621774" lon="21.5412624"><ele>819.6666666666666</ele><time>2026-04-27T13:34:26.141Z</time></trkpt><trkpt lat="39.962026" lon="21.5414654"><ele>814.0</ele><time>2026-04-27T13:34:27.141Z</time></trkpt><trkpt lat="39.961876" lon="21.5416823"><ele>814.0</ele><time>2026-04-27T13:34:28.141Z</time></trkpt><trkpt lat="39.9617234" lon="21.5418838"><ele>814.0</ele><time>2026-04-27T13:34:29.141Z</time></trkpt><trkpt lat="39.9615901" lon="21.5421211"><ele>814.0</ele><time>2026-04-27T13:34:30.14Z</time></trkpt><trkpt lat="39.9614484" lon="21.5423478"><ele>815.0</ele><time>2026-04-27T13:34:31.14Z</time></trkpt><trkpt lat="39.9613574" lon="21.542613"><ele>816.0</ele><time>2026-04-27T13:34:32.141Z</time></trkpt><trkpt lat="39.961259" lon="21.5428626"><ele>817.0</ele><time>2026-04-27T13:34:33.141Z</time></trkpt><trkpt lat="39.9611642" lon="21.5430999"><ele>816.0</ele><time>2026-04-27T13:34:34.14Z</time></trkpt><trkpt lat="39.9610772" lon="21.5433256"><ele>815.0</ele><time>2026-04-27T13:34:35.141Z</time></trkpt><trkpt lat="39.9609736" lon="21.5435484"><ele>814.0</ele><time>2026-04-27T13:34:36.141Z</time></trkpt><trkpt lat="39.9608499" lon="21.5437635"><ele>814.0</ele><time>2026-04-27T13:34:37.141Z</time></trkpt><trkpt lat="39.9607237" lon="21.5439666"><ele>814.0</ele><time>2026-04-27T13:34:38.14Z</time></trkpt><trkpt lat="39.9605834" lon="21.5441684"><ele>814.0</ele><time>2026-04-27T13:34:39.14Z</time></trkpt><trkpt lat="39.9604386" lon="21.5443683"><ele>811.6666666666666</ele><time>2026-04-27T13:34:40.141Z</time></trkpt><trkpt lat="39.9602911" lon="21.5445724"><ele>809.3333333333333</ele><time>2026-04-27T13:34:41.14Z</time></trkpt><trkpt lat="39.9601521" lon="21.5447718"><ele>807.0</ele><time>2026-04-27T13:34:42.14Z</time></trkpt><trkpt lat="39.9600166" lon="21.5449731"><ele>807.0</ele><time>2026-04-27T13:34:43.141Z</time></trkpt><trkpt lat="39.9598801" lon="21.5451564"><ele>807.0</ele><time>2026-04-27T13:34:44.14Z</time></trkpt><trkpt lat="39.95974" lon="21.5453224"><ele>807.0</ele><time>2026-04-27T13:34:45.141Z</time></trkpt><trkpt lat="39.9595924" lon="21.5454727"><ele>804.0</ele><time>2026-04-27T13:34:46.141Z</time></trkpt><trkpt lat="39.959441" lon="21.5456101"><ele>801.0</ele><time>2026-04-27T13:34:47.141Z</time></trkpt><trkpt lat="39.959291" lon="21.5457331"><ele>798.0</ele><time>2026-04-27T13:34:48.141Z</time></trkpt><trkpt lat="39.9591398" lon="21.5458483"><ele>797.6666666666667</ele><time>2026-04-27T13:34:49.141Z</time></trkpt><trkpt lat="39.9590003" lon="21.5459639"><ele>797.3333333333334</ele><time>2026-04-27T13:34:50.141Z</time></trkpt><trkpt lat="39.9588743" lon="21.5460967"><ele>797.0</ele><time>2026-04-27T13:34:51.14Z</time></trkpt><trkpt lat="39.9587715" lon="21.5462489"><ele>797.6666666666667</ele><time>2026-04-27T13:34:52.14Z</time></trkpt><trkpt lat="39.9586885" lon="21.5464192"><ele>798.3333333333333</ele><time>2026-04-27T13:34:53.141Z</time></trkpt><trkpt lat="39.9586303" lon="21.5466203"><ele>799.0</ele><time>2026-04-27T13:34:54.14Z</time></trkpt><trkpt lat="39.9585944" lon="21.5468059"><ele>799.0</ele><time>2026-04-27T13:34:55.14Z</time></trkpt><trkpt lat="39.9585892" lon="21.5469939"><ele>799.0</ele><time>2026-04-27T13:34:56.141Z</time></trkpt><trkpt lat="39.9586084" lon="21.5471685"><ele>799.0</ele><time>2026-04-27T13:34:57.14Z</time></trkpt><trkpt lat="39.9586543" lon="21.5473014"><ele>799.0</ele><time>2026-04-27T13:34:58.141Z</time></trkpt><trkpt lat="39.9587256" lon="21.5473908"><ele>795.5</ele><time>2026-04-27T13:34:59.14Z</time></trkpt><trkpt lat="39.9588311" lon="21.547442"><ele>792.0</ele><time>2026-04-27T13:35:00.141Z</time></trkpt><trkpt lat="39.9589658" lon="21.547453"><ele>788.5</ele><time>2026-04-27T13:35:01.141Z</time></trkpt><trkpt lat="39.9591208" lon="21.5474227"><ele>785.0</ele><time>2026-04-27T13:35:02.141Z</time></trkpt><trkpt lat="39.9592839" lon="21.5473755"><ele>781.3333333333334</ele><time>2026-04-27T13:35:03.141Z</time></trkpt><trkpt lat="39.9594434" lon="21.5473088"><ele>777.6666666666667</ele><time>2026-04-27T13:35:04.141Z</time></trkpt><trkpt lat="39.9596036" lon="21.5472289"><ele>774.0</ele><time>2026-04-27T13:35:05.141Z</time></trkpt><trkpt lat="39.9597539" lon="21.5471303"><ele>774.3333333333333</ele><time>2026-04-27T13:35:06.14Z</time></trkpt><trkpt lat="39.959897" lon="21.5470087"><ele>774.6666666666666</ele><time>2026-04-27T13:35:07.141Z</time></trkpt><trkpt lat="39.9600312" lon="21.5468858"><ele>775.0</ele><time>2026-04-27T13:35:08.14Z</time></trkpt><trkpt lat="39.9601646" lon="21.5467552"><ele>775.0</ele><time>2026-04-27T13:35:09.141Z</time></trkpt><trkpt lat="39.9602882" lon="21.5466358"><ele>775.0</ele><time>2026-04-27T13:35:10.141Z</time></trkpt><trkpt lat="39.9603988" lon="21.5465297"><ele>775.0</ele><time>2026-04-27T13:35:11.14Z</time></trkpt><trkpt lat="39.9604867" lon="21.5464802"><ele>775.0</ele><time>2026-04-27T13:35:12.14Z</time></trkpt><trkpt lat="39.9605671" lon="21.5464705"><ele>775.0</ele><time>2026-04-27T13:35:13.14Z</time></trkpt><trkpt lat="39.9606356" lon="21.5464832"><ele>775.0</ele><time>2026-04-27T13:35:14.141Z</time></trkpt><trkpt lat="39.960668" lon="21.5465713"><ele>775.0</ele><time>2026-04-27T13:35:15.141Z</time></trkpt><trkpt lat="39.9606172" lon="21.5467554"><ele>775.0</ele><time>2026-04-27T13:35:17.141Z</time></trkpt><trkpt lat="39.960565" lon="21.5468677"><ele>775.0</ele><time>2026-04-27T13:35:18.14Z</time></trkpt><trkpt lat="39.9604197" lon="21.5469827"><ele>771.0</ele><time>2026-04-27T13:35:19.14Z</time></trkpt><trkpt lat="39.9603007" lon="21.5471079"><ele>767.0</ele><time>2026-04-27T13:35:20.141Z</time></trkpt><trkpt lat="39.960207" lon="21.5472418"><ele>763.0</ele><time>2026-04-27T13:35:21.141Z</time></trkpt><trkpt lat="39.9601244" lon="21.5473756"><ele>759.0</ele><time>2026-04-27T13:35:22.14Z</time></trkpt><trkpt lat="39.9600483" lon="21.5475202"><ele>759.0</ele><time>2026-04-27T13:35:23.141Z</time></trkpt><trkpt lat="39.9599856" lon="21.5476553"><ele>759.0</ele><time>2026-04-27T13:35:24.141Z</time></trkpt><trkpt lat="39.9599263" lon="21.5477826"><ele>759.0</ele><time>2026-04-27T13:35:25.141Z</time></trkpt><trkpt lat="39.9598624" lon="21.5478999"><ele>759.0</ele><time>2026-04-27T13:35:26.14Z</time></trkpt><trkpt lat="39.9597974" lon="21.548009"><ele>759.0</ele><time>2026-04-27T13:35:27.14Z</time></trkpt><trkpt lat="39.959722" lon="21.5481127"><ele>759.0</ele><time>2026-04-27T13:35:28.14Z</time></trkpt><trkpt lat="39.9596412" lon="21.5482226"><ele>759.0</ele><time>2026-04-27T13:35:29.141Z</time></trkpt><trkpt lat="39.9595594" lon="21.5483331"><ele>759.0</ele><time>2026-04-27T13:35:30.14Z</time></trkpt><trkpt lat="39.9594615" lon="21.5484425"><ele>759.0</ele><time>2026-04-27T13:35:31.14Z</time></trkpt><trkpt lat="39.9593606" lon="21.5485427"><ele>759.0</ele><time>2026-04-27T13:35:32.141Z</time></trkpt><trkpt lat="39.959224" lon="21.5486303"><ele>759.0</ele><time>2026-04-27T13:35:33.141Z</time></trkpt><trkpt lat="39.9590855" lon="21.5486901"><ele>759.0</ele><time>2026-04-27T13:35:34.141Z</time></trkpt><trkpt lat="39.9589345" lon="21.5487418"><ele>757.3333333333334</ele><time>2026-04-27T13:35:35.141Z</time></trkpt><trkpt lat="39.958782" lon="21.5487963"><ele>755.6666666666667</ele><time>2026-04-27T13:35:36.14Z</time></trkpt><trkpt lat="39.9586333" lon="21.5488527"><ele>754.0</ele><time>2026-04-27T13:35:37.14Z</time></trkpt><trkpt lat="39.9584976" lon="21.5489206"><ele>754.0</ele><time>2026-04-27T13:35:38.141Z</time></trkpt><trkpt lat="39.9583761" lon="21.5490211"><ele>754.0</ele><time>2026-04-27T13:35:39.14Z</time></trkpt><trkpt lat="39.9582769" lon="21.5491543"><ele>754.0</ele><time>2026-04-27T13:35:40.141Z</time></trkpt><trkpt lat="39.9581954" lon="21.5493071"><ele>754.0</ele><time>2026-04-27T13:35:41.141Z</time></trkpt><trkpt lat="39.9581532" lon="21.5494878"><ele>752.6666666666667</ele><time>2026-04-27T13:35:42.141Z</time></trkpt><trkpt lat="39.9581348" lon="21.5496892"><ele>751.3333333333334</ele><time>2026-04-27T13:35:43.141Z</time></trkpt><trkpt lat="39.9581366" lon="21.5498923"><ele>750.0</ele><time>2026-04-27T13:35:44.14Z</time></trkpt><trkpt lat="39.9581459" lon="21.5501186"><ele>750.0</ele><time>2026-04-27T13:35:45.141Z</time></trkpt><trkpt lat="39.9581497" lon="21.5503524"><ele>750.0</ele><time>2026-04-27T13:35:46.14Z</time></trkpt><trkpt lat="39.9581359" lon="21.5506037"><ele>750.0</ele><time>2026-04-27T13:35:47.14Z</time></trkpt><trkpt lat="39.9580831" lon="21.550869"><ele>748.5</ele><time>2026-04-27T13:35:48.14Z</time></trkpt><trkpt lat="39.9580178" lon="21.5511544"><ele>747.0</ele><time>2026-04-27T13:35:49.14Z</time></trkpt><trkpt lat="39.9579487" lon="21.5514538"><ele>747.0</ele><time>2026-04-27T13:35:50.141Z</time></trkpt><trkpt lat="39.9578761" lon="21.5517497"><ele>747.0</ele><time>2026-04-27T13:35:51.141Z</time></trkpt><trkpt lat="39.9577999" lon="21.5520351"><ele>750.5</ele><time>2026-04-27T13:35:52.14Z</time></trkpt><trkpt lat="39.9577201" lon="21.5523129"><ele>754.0</ele><time>2026-04-27T13:35:53.14Z</time></trkpt><trkpt lat="39.9576366" lon="21.5525834"><ele>754.0</ele><time>2026-04-27T13:35:54.14Z</time></trkpt><trkpt lat="39.9575468" lon="21.5528404"><ele>754.0</ele><time>2026-04-27T13:35:55.14Z</time></trkpt><trkpt lat="39.9574533" lon="21.5530789"><ele>754.0</ele><time>2026-04-27T13:35:56.14Z</time></trkpt><trkpt lat="39.957341" lon="21.5533137"><ele>751.6666666666667</ele><time>2026-04-27T13:35:57.141Z</time></trkpt><trkpt lat="39.9572081" lon="21.5535436"><ele>749.3333333333334</ele><time>2026-04-27T13:35:58.14Z</time></trkpt><trkpt lat="39.9570657" lon="21.5537598"><ele>747.0</ele><time>2026-04-27T13:35:59.141Z</time></trkpt><trkpt lat="39.9568981" lon="21.5539734"><ele>739.0</ele><time>2026-04-27T13:36:00.141Z</time></trkpt><trkpt lat="39.956687" lon="21.5541682"><ele>731.0</ele><time>2026-04-27T13:36:01.141Z</time></trkpt><trkpt lat="39.9564565" lon="21.5543729"><ele>736.5</ele><time>2026-04-27T13:36:02.14Z</time></trkpt><trkpt lat="39.9562163" lon="21.5545713"><ele>742.0</ele><time>2026-04-27T13:36:03.141Z</time></trkpt><trkpt lat="39.9559608" lon="21.5547577"><ele>740.5</ele><time>2026-04-27T13:36:04.14Z</time></trkpt><trkpt lat="39.9557005" lon="21.5549432"><ele>739.0</ele><time>2026-04-27T13:36:05.141Z</time></trkpt><trkpt lat="39.9554489" lon="21.5551197"><ele>739.0</ele><time>2026-04-27T13:36:06.14Z</time></trkpt><trkpt lat="39.9551973" lon="21.555293"><ele>739.0</ele><time>2026-04-27T13:36:07.14Z</time></trkpt><trkpt lat="39.9549515" lon="21.5554686"><ele>739.0</ele><time>2026-04-27T13:36:08.141Z</time></trkpt><trkpt lat="39.954717" lon="21.5556502"><ele>739.0</ele><time>2026-04-27T13:36:09.14Z</time></trkpt><trkpt lat="39.954485" lon="21.5558266"><ele>739.0</ele><time>2026-04-27T13:36:10.141Z</time></trkpt><trkpt lat="39.9542641" lon="21.5559953"><ele>739.0</ele><time>2026-04-27T13:36:11.14Z</time></trkpt><trkpt lat="39.9540563" lon="21.5561574"><ele>740.5</ele><time>2026-04-27T13:36:12.141Z</time></trkpt><trkpt lat="39.9538548" lon="21.5563092"><ele>742.0</ele><time>2026-04-27T13:36:13.141Z</time></trkpt><trkpt lat="39.9536589" lon="21.5564688"><ele>742.0</ele><time>2026-04-27T13:36:14.141Z</time></trkpt><trkpt lat="39.9534665" lon="21.5566373"><ele>742.0</ele><time>2026-04-27T13:36:15.14Z</time></trkpt><trkpt lat="39.9532712" lon="21.5568194"><ele>737.0</ele><time>2026-04-27T13:36:16.141Z</time></trkpt><trkpt lat="39.9530818" lon="21.5570082"><ele>732.0</ele><time>2026-04-27T13:36:17.14Z</time></trkpt><trkpt lat="39.9528967" lon="21.5571937"><ele>732.0</ele><time>2026-04-27T13:36:18.14Z</time></trkpt><trkpt lat="39.9527227" lon="21.5573845"><ele>732.0</ele><time>2026-04-27T13:36:19.141Z</time></trkpt><trkpt lat="39.952561" lon="21.5575775"><ele>732.0</ele><time>2026-04-27T13:36:20.14Z</time></trkpt><trkpt lat="39.952402" lon="21.5577862"><ele>727.0</ele><time>2026-04-27T13:36:21.141Z</time></trkpt><trkpt lat="39.9522443" lon="21.5579967"><ele>722.0</ele><time>2026-04-27T13:36:22.141Z</time></trkpt><trkpt lat="39.9520702" lon="21.5581963"><ele>722.0</ele><time>2026-04-27T13:36:23.14Z</time></trkpt><trkpt lat="39.9518772" lon="21.5583906"><ele>722.0</ele><time>2026-04-27T13:36:24.14Z</time></trkpt><trkpt lat="39.951674" lon="21.5585877"><ele>716.0</ele><time>2026-04-27T13:36:25.141Z</time></trkpt><trkpt lat="39.9514667" lon="21.5587828"><ele>710.0</ele><time>2026-04-27T13:36:26.14Z</time></trkpt><trkpt lat="39.9512575" lon="21.5589711"><ele>710.0</ele><time>2026-04-27T13:36:27.141Z</time></trkpt><trkpt lat="39.9510528" lon="21.5591558"><ele>710.0</ele><time>2026-04-27T13:36:28.141Z</time></trkpt><trkpt lat="39.9508482" lon="21.5593434"><ele>708.5</ele><time>2026-04-27T13:36:29.141Z</time></trkpt><trkpt lat="39.9506556" lon="21.5595208"><ele>707.0</ele><time>2026-04-27T13:36:30.14Z</time></trkpt><trkpt lat="39.9504636" lon="21.5596977"><ele>707.0</ele><time>2026-04-27T13:36:31.141Z</time></trkpt><trkpt lat="39.9502799" lon="21.5598639"><ele>707.0</ele><time>2026-04-27T13:36:32.14Z</time></trkpt><trkpt lat="39.9500994" lon="21.5600289"><ele>707.0</ele><time>2026-04-27T13:36:33.14Z</time></trkpt><trkpt lat="39.949915" lon="21.5602008"><ele>703.5</ele><time>2026-04-27T13:36:34.141Z</time></trkpt><trkpt lat="39.9497234" lon="21.5603748"><ele>700.0</ele><time>2026-04-27T13:36:35.14Z</time></trkpt><trkpt lat="39.9495429" lon="21.5605456"><ele>700.0</ele><time>2026-04-27T13:36:36.14Z</time></trkpt><trkpt lat="39.9493698" lon="21.5607195"><ele>700.0</ele><time>2026-04-27T13:36:37.141Z</time></trkpt><trkpt lat="39.9492086" lon="21.5608967"><ele>700.0</ele><time>2026-04-27T13:36:38.14Z</time></trkpt><trkpt lat="39.9490484" lon="21.5610714"><ele>696.6666666666667</ele><time>2026-04-27T13:36:39.14Z</time></trkpt><trkpt lat="39.9489017" lon="21.5612444"><ele>693.3333333333334</ele><time>2026-04-27T13:36:40.141Z</time></trkpt><trkpt lat="39.9487759" lon="21.5614159"><ele>690.0</ele><time>2026-04-27T13:36:41.141Z</time></trkpt><trkpt lat="39.948682" lon="21.5615941"><ele>690.0</ele><time>2026-04-27T13:36:42.141Z</time></trkpt><trkpt lat="39.9486193" lon="21.561786"><ele>690.0</ele><time>2026-04-27T13:36:43.14Z</time></trkpt><trkpt lat="39.9485804" lon="21.5619968"><ele>690.0</ele><time>2026-04-27T13:36:44.141Z</time></trkpt><trkpt lat="39.9485626" lon="21.5622357"><ele>688.6666666666666</ele><time>2026-04-27T13:36:45.14Z</time></trkpt><trkpt lat="39.9485552" lon="21.562476"><ele>687.3333333333333</ele><time>2026-04-27T13:36:46.141Z</time></trkpt><trkpt lat="39.9485529" lon="21.5627035"><ele>686.0</ele><time>2026-04-27T13:36:47.14Z</time></trkpt><trkpt lat="39.9485341" lon="21.5629209"><ele>685.3333333333333</ele><time>2026-04-27T13:36:48.14Z</time></trkpt><trkpt lat="39.9484769" lon="21.5631209"><ele>684.6666666666666</ele><time>2026-04-27T13:36:49.14Z</time></trkpt><trkpt lat="39.9483886" lon="21.5633041"><ele>684.0</ele><time>2026-04-27T13:36:50.14Z</time></trkpt><trkpt lat="39.9482455" lon="21.5634776"><ele>682.0</ele><time>2026-04-27T13:36:51.14Z</time></trkpt><trkpt lat="39.9480925" lon="21.5636378"><ele>680.0</ele><time>2026-04-27T13:36:52.141Z</time></trkpt><trkpt lat="39.9479342" lon="21.563797"><ele>678.0</ele><time>2026-04-27T13:36:53.14Z</time></trkpt><trkpt lat="39.9477826" lon="21.5639541"><ele>678.0</ele><time>2026-04-27T13:36:54.141Z</time></trkpt><trkpt lat="39.947636" lon="21.5641042"><ele>678.0</ele><time>2026-04-27T13:36:55.14Z</time></trkpt><trkpt lat="39.9475085" lon="21.5642702"><ele>678.0</ele><time>2026-04-27T13:36:56.14Z</time></trkpt><trkpt lat="39.947387" lon="21.5644504"><ele>675.3333333333334</ele><time>2026-04-27T13:36:57.141Z</time></trkpt><trkpt lat="39.9472772" lon="21.5646514"><ele>672.6666666666667</ele><time>2026-04-27T13:36:58.141Z</time></trkpt><trkpt lat="39.9471866" lon="21.5648994"><ele>670.0</ele><time>2026-04-27T13:36:59.14Z</time></trkpt><trkpt lat="39.9471125" lon="21.56515"><ele>668.0</ele><time>2026-04-27T13:37:00.14Z</time></trkpt><trkpt lat="39.9470505" lon="21.5654308"><ele>666.0</ele><time>2026-04-27T13:37:01.141Z</time></trkpt><trkpt lat="39.9469948" lon="21.5657124"><ele>664.0</ele><time>2026-04-27T13:37:02.14Z</time></trkpt><trkpt lat="39.9469609" lon="21.5660231"><ele>661.0</ele><time>2026-04-27T13:37:03.14Z</time></trkpt><trkpt lat="39.9469189" lon="21.5663292"><ele>658.0</ele><time>2026-04-27T13:37:04.141Z</time></trkpt><trkpt lat="39.9468704" lon="21.5666504"><ele>658.0</ele><time>2026-04-27T13:37:05.141Z</time></trkpt><trkpt lat="39.9468216" lon="21.5669577"><ele>658.0</ele><time>2026-04-27T13:37:06.141Z</time></trkpt><trkpt lat="39.946771" lon="21.5672524"><ele>656.6666666666667</ele><time>2026-04-27T13:37:07.14Z</time></trkpt><trkpt lat="39.9467281" lon="21.5675313"><ele>655.3333333333334</ele><time>2026-04-27T13:37:08.14Z</time></trkpt><trkpt lat="39.9466829" lon="21.5677973"><ele>654.0</ele><time>2026-04-27T13:37:09.14Z</time></trkpt><trkpt lat="39.9466184" lon="21.5680426"><ele>652.0</ele><time>2026-04-27T13:37:10.14Z</time></trkpt><trkpt lat="39.9465224" lon="21.5682782"><ele>650.0</ele><time>2026-04-27T13:37:11.14Z</time></trkpt><trkpt lat="39.9463964" lon="21.5685108"><ele>648.0</ele><time>2026-04-27T13:37:12.14Z</time></trkpt><trkpt lat="39.9462537" lon="21.568731"><ele>646.3333333333334</ele><time>2026-04-27T13:37:13.14Z</time></trkpt><trkpt lat="39.9461168" lon="21.568952"><ele>644.6666666666667</ele><time>2026-04-27T13:37:14.141Z</time></trkpt><trkpt lat="39.9459826" lon="21.5691766"><ele>643.0</ele><time>2026-04-27T13:37:15.141Z</time></trkpt><trkpt lat="39.9458499" lon="21.5693954"><ele>642.0</ele><time>2026-04-27T13:37:16.141Z</time></trkpt><trkpt lat="39.9457155" lon="21.5696091"><ele>641.0</ele><time>2026-04-27T13:37:17.141Z</time></trkpt><trkpt lat="39.9455914" lon="21.5698259"><ele>640.0</ele><time>2026-04-27T13:37:18.14Z</time></trkpt><trkpt lat="39.9454786" lon="21.5700515"><ele>640.0</ele><time>2026-04-27T13:37:19.141Z</time></trkpt><trkpt lat="39.9453783" lon="21.5702844"><ele>640.0</ele><time>2026-04-27T13:37:20.141Z</time></trkpt><trkpt lat="39.9452795" lon="21.5705056"><ele>640.0</ele><time>2026-04-27T13:37:21.14Z</time></trkpt><trkpt lat="39.9451903" lon="21.5707248"><ele>639.3333333333334</ele><time>2026-04-27T13:37:22.141Z</time></trkpt><trkpt lat="39.9451037" lon="21.5709311"><ele>638.6666666666666</ele><time>2026-04-27T13:37:23.141Z</time></trkpt><trkpt lat="39.9450275" lon="21.5711277"><ele>638.0</ele><time>2026-04-27T13:37:24.14Z</time></trkpt><trkpt lat="39.9449603" lon="21.5712848"><ele>637.4</ele><time>2026-04-27T13:37:25.141Z</time></trkpt><trkpt lat="39.9449006" lon="21.5714097"><ele>636.8</ele><time>2026-04-27T13:37:26.14Z</time></trkpt><trkpt lat="39.9448404" lon="21.5715101"><ele>636.2</ele><time>2026-04-27T13:37:27.141Z</time></trkpt><trkpt lat="39.9447668" lon="21.5715779"><ele>635.6</ele><time>2026-04-27T13:37:28.141Z</time></trkpt><trkpt lat="39.9446784" lon="21.5715771"><ele>635.0</ele><time>2026-04-27T13:37:29.141Z</time></trkpt><trkpt lat="39.9445976" lon="21.5715289"><ele>635.0</ele><time>2026-04-27T13:37:30.14Z</time></trkpt><trkpt lat="39.9445415" lon="21.5714097"><ele>635.0</ele><time>2026-04-27T13:37:31.14Z</time></trkpt><trkpt lat="39.94448" lon="21.5712399"><ele>635.0</ele><time>2026-04-27T13:37:32.14Z</time></trkpt><trkpt lat="39.9444506" lon="21.5710231"><ele>635.0</ele><time>2026-04-27T13:37:33.14Z</time></trkpt><trkpt lat="39.9444112" lon="21.5707875"><ele>635.0</ele><time>2026-04-27T13:37:34.141Z</time></trkpt><trkpt lat="39.9443856" lon="21.5705615"><ele>635.0</ele><time>2026-04-27T13:37:35.14Z</time></trkpt><trkpt lat="39.9443771" lon="21.570346"><ele>635.0</ele><time>2026-04-27T13:37:36.14Z</time></trkpt><trkpt lat="39.9443536" lon="21.5701501"><ele>635.0</ele><time>2026-04-27T13:37:37.14Z</time></trkpt><trkpt lat="39.9443407" lon="21.5699752"><ele>635.0</ele><time>2026-04-27T13:37:38.14Z</time></trkpt><trkpt lat="39.9443059" lon="21.5698268"><ele>635.0</ele><time>2026-04-27T13:37:39.141Z</time></trkpt><trkpt lat="39.9442455" lon="21.5697187"><ele>635.0</ele><time>2026-04-27T13:37:40.14Z</time></trkpt><trkpt lat="39.9441774" lon="21.5696602"><ele>635.0</ele><time>2026-04-27T13:37:41.14Z</time></trkpt><trkpt lat="39.9440923" lon="21.5696521"><ele>631.75</ele><time>2026-04-27T13:37:42.141Z</time></trkpt><trkpt lat="39.9440046" lon="21.5697129"><ele>628.5</ele><time>2026-04-27T13:37:43.141Z</time></trkpt><trkpt lat="39.9439086" lon="21.5698479"><ele>625.25</ele><time>2026-04-27T13:37:44.14Z</time></trkpt><trkpt lat="39.9438178" lon="21.570056"><ele>622.0</ele><time>2026-04-27T13:37:45.141Z</time></trkpt><trkpt lat="39.9437177" lon="21.5703227"><ele>623.5</ele><time>2026-04-27T13:37:46.14Z</time></trkpt><trkpt lat="39.9436034" lon="21.5706019"><ele>625.0</ele><time>2026-04-27T13:37:47.14Z</time></trkpt><trkpt lat="39.9434653" lon="21.5709531"><ele>618.0</ele><time>2026-04-27T13:37:48.14Z</time></trkpt><trkpt lat="39.9433359" lon="21.5712648"><ele>611.0</ele><time>2026-04-27T13:37:49.141Z</time></trkpt><trkpt lat="39.9432083" lon="21.5715707"><ele>611.0</ele><time>2026-04-27T13:37:50.14Z</time></trkpt><trkpt lat="39.943085" lon="21.5718757"><ele>611.0</ele><time>2026-04-27T13:37:51.14Z</time></trkpt><trkpt lat="39.94297" lon="21.5721466"><ele>612.0</ele><time>2026-04-27T13:37:52.14Z</time></trkpt><trkpt lat="39.9428584" lon="21.5724172"><ele>613.0</ele><time>2026-04-27T13:37:53.141Z</time></trkpt><trkpt lat="39.9427509" lon="21.5726765"><ele>613.0</ele><time>2026-04-27T13:37:54.141Z</time></trkpt><trkpt lat="39.9426526" lon="21.572935"><ele>613.0</ele><time>2026-04-27T13:37:55.14Z</time></trkpt><trkpt lat="39.9425594" lon="21.5732008"><ele>613.0</ele><time>2026-04-27T13:37:56.14Z</time></trkpt><trkpt lat="39.94248" lon="21.5734825"><ele>606.5</ele><time>2026-04-27T13:37:57.141Z</time></trkpt><trkpt lat="39.9424269" lon="21.5737674"><ele>600.0</ele><time>2026-04-27T13:37:58.141Z</time></trkpt><trkpt lat="39.9423858" lon="21.5740621"><ele>600.0</ele><time>2026-04-27T13:37:59.14Z</time></trkpt><trkpt lat="39.9423402" lon="21.5743542"><ele>600.0</ele><time>2026-04-27T13:38:00.14Z</time></trkpt><trkpt lat="39.9423022" lon="21.5746453"><ele>600.0</ele><time>2026-04-27T13:38:01.141Z</time></trkpt><trkpt lat="39.9422659" lon="21.5749315"><ele>600.0</ele><time>2026-04-27T13:38:02.141Z</time></trkpt><trkpt lat="39.9422397" lon="21.5752159"><ele>600.0</ele><time>2026-04-27T13:38:03.141Z</time></trkpt><trkpt lat="39.9422187" lon="21.5754893"><ele>598.3333333333334</ele><time>2026-04-27T13:38:04.14Z</time></trkpt><trkpt lat="39.9422055" lon="21.575752"><ele>596.6666666666667</ele><time>2026-04-27T13:38:05.141Z</time></trkpt><trkpt lat="39.9421956" lon="21.576002"><ele>595.0</ele><time>2026-04-27T13:38:06.14Z</time></trkpt><trkpt lat="39.942195" lon="21.5762404"><ele>592.3333333333334</ele><time>2026-04-27T13:38:07.14Z</time></trkpt><trkpt lat="39.9422238" lon="21.5764907"><ele>589.6666666666666</ele><time>2026-04-27T13:38:08.141Z</time></trkpt><trkpt lat="39.9422477" lon="21.5767123"><ele>587.0</ele><time>2026-04-27T13:38:09.14Z</time></trkpt><trkpt lat="39.9422867" lon="21.5769281"><ele>585.75</ele><time>2026-04-27T13:38:10.14Z</time></trkpt><trkpt lat="39.9423312" lon="21.5771168"><ele>584.5</ele><time>2026-04-27T13:38:11.14Z</time></trkpt><trkpt lat="39.9423711" lon="21.5772805"><ele>583.25</ele><time>2026-04-27T13:38:12.141Z</time></trkpt><trkpt lat="39.9423817" lon="21.5774436"><ele>582.0</ele><time>2026-04-27T13:38:13.14Z</time></trkpt><trkpt lat="39.9423627" lon="21.5775916"><ele>582.0</ele><time>2026-04-27T13:38:14.141Z</time></trkpt><trkpt lat="39.9423099" lon="21.5777165"><ele>582.0</ele><time>2026-04-27T13:38:15.141Z</time></trkpt><trkpt lat="39.9422438" lon="21.5777999"><ele>582.0</ele><time>2026-04-27T13:38:16.141Z</time></trkpt><trkpt lat="39.9421486" lon="21.5778482"><ele>582.0</ele><time>2026-04-27T13:38:17.14Z</time></trkpt><trkpt lat="39.9420608" lon="21.5777739"><ele>582.0</ele><time>2026-04-27T13:38:18.141Z</time></trkpt><trkpt lat="39.9419649" lon="21.5776842"><ele>582.0</ele><time>2026-04-27T13:38:19.14Z</time></trkpt><trkpt lat="39.9418621" lon="21.5775242"><ele>582.0</ele><time>2026-04-27T13:38:20.141Z</time></trkpt><trkpt lat="39.9417417" lon="21.5773479"><ele>582.0</ele><time>2026-04-27T13:38:21.141Z</time></trkpt><trkpt lat="39.9416187" lon="21.5771635"><ele>580.3333333333334</ele><time>2026-04-27T13:38:22.14Z</time></trkpt><trkpt lat="39.9414977" lon="21.5769743"><ele>578.6666666666667</ele><time>2026-04-27T13:38:23.14Z</time></trkpt><trkpt lat="39.9413864" lon="21.576765"><ele>577.0</ele><time>2026-04-27T13:38:24.141Z</time></trkpt><trkpt lat="39.9412863" lon="21.5765547"><ele>577.0</ele><time>2026-04-27T13:38:25.14Z</time></trkpt><trkpt lat="39.9412041" lon="21.5763551"><ele>577.0</ele><time>2026-04-27T13:38:26.141Z</time></trkpt><trkpt lat="39.9411204" lon="21.5761597"><ele>577.0</ele><time>2026-04-27T13:38:27.14Z</time></trkpt><trkpt lat="39.9410404" lon="21.5759703"><ele>576.0</ele><time>2026-04-27T13:38:28.14Z</time></trkpt><trkpt lat="39.9409596" lon="21.575777"><ele>575.0</ele><time>2026-04-27T13:38:29.141Z</time></trkpt><trkpt lat="39.9408743" lon="21.5755742"><ele>574.0</ele><time>2026-04-27T13:38:30.14Z</time></trkpt><trkpt lat="39.9407946" lon="21.575372"><ele>575.3333333333334</ele><time>2026-04-27T13:38:31.14Z</time></trkpt><trkpt lat="39.9407085" lon="21.5751671"><ele>576.6666666666666</ele><time>2026-04-27T13:38:32.141Z</time></trkpt><trkpt lat="39.9406296" lon="21.5749602"><ele>578.0</ele><time>2026-04-27T13:38:33.14Z</time></trkpt><trkpt lat="39.9405545" lon="21.5747491"><ele>578.0</ele><time>2026-04-27T13:38:34.141Z</time></trkpt><trkpt lat="39.9404968" lon="21.5745315"><ele>578.0</ele><time>2026-04-27T13:38:35.14Z</time></trkpt><trkpt lat="39.9404613" lon="21.5743006"><ele>578.0</ele><time>2026-04-27T13:38:36.141Z</time></trkpt><trkpt lat="39.940454" lon="21.5740687"><ele>577.3333333333333</ele><time>2026-04-27T13:38:37.14Z</time></trkpt><trkpt lat="39.9404542" lon="21.5738505"><ele>576.6666666666666</ele><time>2026-04-27T13:38:38.141Z</time></trkpt><trkpt lat="39.9404353" lon="21.5736492"><ele>576.0</ele><time>2026-04-27T13:38:39.141Z</time></trkpt><trkpt lat="39.9403931" lon="21.5734675"><ele>576.0</ele><time>2026-04-27T13:38:40.14Z</time></trkpt><trkpt lat="39.9403297" lon="21.573309"><ele>576.0</ele><time>2026-04-27T13:38:41.141Z</time></trkpt><trkpt lat="39.940241" lon="21.5731785"><ele>576.0</ele><time>2026-04-27T13:38:42.141Z</time></trkpt><trkpt lat="39.9401208" lon="21.5730907"><ele>576.0</ele><time>2026-04-27T13:38:43.141Z</time></trkpt><trkpt lat="39.9399746" lon="21.5730874"><ele>573.0</ele><time>2026-04-27T13:38:44.14Z</time></trkpt><trkpt lat="39.9398017" lon="21.5731254"><ele>570.0</ele><time>2026-04-27T13:38:45.141Z</time></trkpt><trkpt lat="39.9395995" lon="21.5732406"><ele>567.0</ele><time>2026-04-27T13:38:46.141Z</time></trkpt><trkpt lat="39.9393774" lon="21.5733889"><ele>570.0</ele><time>2026-04-27T13:38:47.141Z</time></trkpt><trkpt lat="39.9391219" lon="21.5735478"><ele>573.0</ele><time>2026-04-27T13:38:48.14Z</time></trkpt><trkpt lat="39.9388502" lon="21.5737138"><ele>573.0</ele><time>2026-04-27T13:38:49.14Z</time></trkpt><trkpt lat="39.9385784" lon="21.5738822"><ele>573.0</ele><time>2026-04-27T13:38:50.14Z</time></trkpt><trkpt lat="39.938328" lon="21.5740411"><ele>578.5</ele><time>2026-04-27T13:38:51.14Z</time></trkpt><trkpt lat="39.9380833" lon="21.5741926"><ele>584.0</ele><time>2026-04-27T13:38:52.141Z</time></trkpt><trkpt lat="39.9378534" lon="21.574341"><ele>584.0</ele><time>2026-04-27T13:38:53.14Z</time></trkpt><trkpt lat="39.9376279" lon="21.5744816"><ele>584.0</ele><time>2026-04-27T13:38:54.14Z</time></trkpt><trkpt lat="39.9374035" lon="21.5746224"><ele>582.0</ele><time>2026-04-27T13:38:55.14Z</time></trkpt><trkpt lat="39.9371826" lon="21.5747598"><ele>580.0</ele><time>2026-04-27T13:38:56.14Z</time></trkpt><trkpt lat="39.9369673" lon="21.5748978"><ele>580.0</ele><time>2026-04-27T13:38:57.141Z</time></trkpt><trkpt lat="39.9367603" lon="21.575027"><ele>580.0</ele><time>2026-04-27T13:38:58.14Z</time></trkpt><trkpt lat="39.9365741" lon="21.5751437"><ele>580.0</ele><time>2026-04-27T13:38:59.14Z</time></trkpt><trkpt lat="39.9364043" lon="21.5752398"><ele>584.0</ele><time>2026-04-27T13:39:00.14Z</time></trkpt><trkpt lat="39.93625" lon="21.5753333"><ele>588.0</ele><time>2026-04-27T13:39:01.14Z</time></trkpt><trkpt lat="39.9360924" lon="21.5754205"><ele>592.0</ele><time>2026-04-27T13:39:02.141Z</time></trkpt><trkpt lat="39.9359478" lon="21.5755126"><ele>593.0</ele><time>2026-04-27T13:39:03.14Z</time></trkpt><trkpt lat="39.9357967" lon="21.575609"><ele>594.0</ele><time>2026-04-27T13:39:04.14Z</time></trkpt><trkpt lat="39.9356466" lon="21.5757092"><ele>595.0</ele><time>2026-04-27T13:39:05.141Z</time></trkpt><trkpt lat="39.9354796" lon="21.5758171"><ele>595.0</ele><time>2026-04-27T13:39:06.14Z</time></trkpt><trkpt lat="39.9353034" lon="21.575926"><ele>595.0</ele><time>2026-04-27T13:39:07.141Z</time></trkpt><trkpt lat="39.9351223" lon="21.5760444"><ele>595.0</ele><time>2026-04-27T13:39:08.14Z</time></trkpt><trkpt lat="39.9349411" lon="21.5761595"><ele>594.6666666666667</ele><time>2026-04-27T13:39:09.14Z</time></trkpt><trkpt lat="39.9347574" lon="21.5762674"><ele>594.3333333333334</ele><time>2026-04-27T13:39:10.141Z</time></trkpt><trkpt lat="39.9345695" lon="21.5763585"><ele>594.0</ele><time>2026-04-27T13:39:11.14Z</time></trkpt><trkpt lat="39.9343904" lon="21.5764471"><ele>591.3333333333334</ele><time>2026-04-27T13:39:12.141Z</time></trkpt><trkpt lat="39.9341919" lon="21.5764895"><ele>588.6666666666667</ele><time>2026-04-27T13:39:13.14Z</time></trkpt><trkpt lat="39.9339831" lon="21.5765032"><ele>586.0</ele><time>2026-04-27T13:39:14.141Z</time></trkpt><trkpt lat="39.9337699" lon="21.5764796"><ele>586.0</ele><time>2026-04-27T13:39:15.14Z</time></trkpt><trkpt lat="39.9335388" lon="21.5764056"><ele>586.0</ele><time>2026-04-27T13:39:16.141Z</time></trkpt><trkpt lat="39.9333025" lon="21.5763426"><ele>582.5</ele><time>2026-04-27T13:39:17.14Z</time></trkpt><trkpt lat="39.9330703" lon="21.5762672"><ele>579.0</ele><time>2026-04-27T13:39:18.141Z</time></trkpt><trkpt lat="39.9328484" lon="21.5761925"><ele>578.5</ele><time>2026-04-27T13:39:19.141Z</time></trkpt><trkpt lat="39.9326249" lon="21.5761529"><ele>578.0</ele><time>2026-04-27T13:39:20.14Z</time></trkpt><trkpt lat="39.9323673" lon="21.5761375"><ele>574.5</ele><time>2026-04-27T13:39:21.141Z</time></trkpt><trkpt lat="39.9320976" lon="21.576147"><ele>571.0</ele><time>2026-04-27T13:39:22.141Z</time></trkpt><trkpt lat="39.931813" lon="21.5761877"><ele>569.5</ele><time>2026-04-27T13:39:23.14Z</time></trkpt><trkpt lat="39.9315174" lon="21.576273"><ele>568.0</ele><time>2026-04-27T13:39:24.14Z</time></trkpt><trkpt lat="39.9312503" lon="21.5763403"><ele>568.0</ele><time>2026-04-27T13:39:25.141Z</time></trkpt><trkpt lat="39.9309836" lon="21.5764073"><ele>568.0</ele><time>2026-04-27T13:39:26.14Z</time></trkpt><trkpt lat="39.9307187" lon="21.5764606"><ele>564.0</ele><time>2026-04-27T13:39:27.141Z</time></trkpt><trkpt lat="39.9304518" lon="21.5764857"><ele>560.0</ele><time>2026-04-27T13:39:28.14Z</time></trkpt><trkpt lat="39.9301825" lon="21.5764905"><ele>558.5</ele><time>2026-04-27T13:39:29.14Z</time></trkpt><trkpt lat="39.9299132" lon="21.5764725"><ele>557.0</ele><time>2026-04-27T13:39:30.141Z</time></trkpt><trkpt lat="39.9296517" lon="21.5764441"><ele>557.0</ele><time>2026-04-27T13:39:31.141Z</time></trkpt><trkpt lat="39.9294041" lon="21.5764178"><ele>557.0</ele><time>2026-04-27T13:39:32.141Z</time></trkpt><trkpt lat="39.929168" lon="21.5763976"><ele>556.6666666666666</ele><time>2026-04-27T13:39:33.14Z</time></trkpt><trkpt lat="39.928947" lon="21.5763741"><ele>556.3333333333334</ele><time>2026-04-27T13:39:34.14Z</time></trkpt><trkpt lat="39.9287375" lon="21.5763574"><ele>556.0</ele><time>2026-04-27T13:39:35.141Z</time></trkpt><trkpt lat="39.9285385" lon="21.5763391"><ele>555.6666666666667</ele><time>2026-04-27T13:39:36.141Z</time></trkpt><trkpt lat="39.9283425" lon="21.5763242"><ele>555.3333333333334</ele><time>2026-04-27T13:39:37.141Z</time></trkpt><trkpt lat="39.9281535" lon="21.576306"><ele>555.0</ele><time>2026-04-27T13:39:38.141Z</time></trkpt><trkpt lat="39.9279737" lon="21.5762949"><ele>555.0</ele><time>2026-04-27T13:39:39.141Z</time></trkpt><trkpt lat="39.9277876" lon="21.5762855"><ele>555.0</ele><time>2026-04-27T13:39:40.14Z</time></trkpt><trkpt lat="39.9276137" lon="21.5762678"><ele>555.0</ele><time>2026-04-27T13:39:41.14Z</time></trkpt><trkpt lat="39.9274293" lon="21.5762472"><ele>554.6666666666666</ele><time>2026-04-27T13:39:42.14Z</time></trkpt><trkpt lat="39.9272472" lon="21.5762186"><ele>554.3333333333333</ele><time>2026-04-27T13:39:43.14Z</time></trkpt><trkpt lat="39.9270663" lon="21.5761758"><ele>554.0</ele><time>2026-04-27T13:39:44.14Z</time></trkpt><trkpt lat="39.9268774" lon="21.5761276"><ele>552.6666666666666</ele><time>2026-04-27T13:39:45.141Z</time></trkpt><trkpt lat="39.9266936" lon="21.5760514"><ele>551.3333333333334</ele><time>2026-04-27T13:39:46.14Z</time></trkpt><trkpt lat="39.9265223" lon="21.5759429"><ele>550.0</ele><time>2026-04-27T13:39:47.14Z</time></trkpt><trkpt lat="39.9263656" lon="21.5758148"><ele>550.0</ele><time>2026-04-27T13:39:48.141Z</time></trkpt><trkpt lat="39.9262103" lon="21.5756709"><ele>550.0</ele><time>2026-04-27T13:39:49.14Z</time></trkpt><trkpt lat="39.9260667" lon="21.5755196"><ele>550.0</ele><time>2026-04-27T13:39:50.141Z</time></trkpt><trkpt lat="39.9259363" lon="21.5753503"><ele>549.6666666666667</ele><time>2026-04-27T13:39:51.141Z</time></trkpt><trkpt lat="39.9257987" lon="21.5751822"><ele>549.3333333333334</ele><time>2026-04-27T13:39:52.14Z</time></trkpt><trkpt lat="39.9256625" lon="21.5750349"><ele>549.0</ele><time>2026-04-27T13:39:53.14Z</time></trkpt><trkpt lat="39.9255107" lon="21.5749282"><ele>549.0</ele><time>2026-04-27T13:39:54.14Z</time></trkpt><trkpt lat="39.925355" lon="21.5748571"><ele>549.0</ele><time>2026-04-27T13:39:55.141Z</time></trkpt><trkpt lat="39.9251884" lon="21.5748222"><ele>549.0</ele><time>2026-04-27T13:39:56.141Z</time></trkpt><trkpt lat="39.9250203" lon="21.574828"><ele>548.3333333333334</ele><time>2026-04-27T13:39:57.141Z</time></trkpt><trkpt lat="39.9248528" lon="21.5748621"><ele>547.6666666666667</ele><time>2026-04-27T13:39:58.141Z</time></trkpt><trkpt lat="39.9246884" lon="21.5749066"><ele>547.0</ele><time>2026-04-27T13:39:59.14Z</time></trkpt><trkpt lat="39.9245273" lon="21.5749574"><ele>547.0</ele><time>2026-04-27T13:40:00.14Z</time></trkpt><trkpt lat="39.9243627" lon="21.5750019"><ele>547.0</ele><time>2026-04-27T13:40:01.141Z</time></trkpt><trkpt lat="39.9241969" lon="21.575048"><ele>547.0</ele><time>2026-04-27T13:40:02.14Z</time></trkpt><trkpt lat="39.924034" lon="21.575085"><ele>547.3333333333334</ele><time>2026-04-27T13:40:03.14Z</time></trkpt><trkpt lat="39.9238671" lon="21.5751142"><ele>547.6666666666666</ele><time>2026-04-27T13:40:04.14Z</time></trkpt><trkpt lat="39.9237034" lon="21.5750894"><ele>548.0</ele><time>2026-04-27T13:40:05.141Z</time></trkpt><trkpt lat="39.9235396" lon="21.5750534"><ele>547.0</ele><time>2026-04-27T13:40:06.14Z</time></trkpt><trkpt lat="39.9233472" lon="21.5749294"><ele>546.0</ele><time>2026-04-27T13:40:07.141Z</time></trkpt><trkpt lat="39.9231236" lon="21.5748108"><ele>546.0</ele><time>2026-04-27T13:40:08.14Z</time></trkpt><trkpt lat="39.9228831" lon="21.5746784"><ele>546.0</ele><time>2026-04-27T13:40:09.14Z</time></trkpt><trkpt lat="39.92265" lon="21.5745482"><ele>546.5</ele><time>2026-04-27T13:40:10.141Z</time></trkpt><trkpt lat="39.9224317" lon="21.5743927"><ele>547.0</ele><time>2026-04-27T13:40:11.14Z</time></trkpt><trkpt lat="39.9222184" lon="21.5742547"><ele>547.0</ele><time>2026-04-27T13:40:12.141Z</time></trkpt><trkpt lat="39.9220199" lon="21.5741242"><ele>547.0</ele><time>2026-04-27T13:40:13.14Z</time></trkpt><trkpt lat="39.9218252" lon="21.5739934"><ele>547.0</ele><time>2026-04-27T13:40:14.141Z</time></trkpt><trkpt lat="39.92163" lon="21.573867"><ele>546.0</ele><time>2026-04-27T13:40:15.14Z</time></trkpt><trkpt lat="39.9214369" lon="21.5737475"><ele>545.0</ele><time>2026-04-27T13:40:16.14Z</time></trkpt><trkpt lat="39.9212444" lon="21.5736335"><ele>544.0</ele><time>2026-04-27T13:40:17.14Z</time></trkpt><trkpt lat="39.9210493" lon="21.5735175"><ele>543.6666666666667</ele><time>2026-04-27T13:40:18.14Z</time></trkpt><trkpt lat="39.9208622" lon="21.5734047"><ele>543.3333333333334</ele><time>2026-04-27T13:40:19.14Z</time></trkpt><trkpt lat="39.9206912" lon="21.5732955"><ele>543.0</ele><time>2026-04-27T13:40:20.141Z</time></trkpt><trkpt lat="39.9205086" lon="21.5732026"><ele>543.0</ele><time>2026-04-27T13:40:21.141Z</time></trkpt><trkpt lat="39.9203177" lon="21.5731508"><ele>543.0</ele><time>2026-04-27T13:40:22.14Z</time></trkpt><trkpt lat="39.920116" lon="21.5731352"><ele>543.0</ele><time>2026-04-27T13:40:23.141Z</time></trkpt><trkpt lat="39.9199124" lon="21.5731338"><ele>543.3333333333334</ele><time>2026-04-27T13:40:24.141Z</time></trkpt><trkpt lat="39.9197201" lon="21.5731347"><ele>543.6666666666667</ele><time>2026-04-27T13:40:25.14Z</time></trkpt><trkpt lat="39.9195357" lon="21.5731279"><ele>544.0</ele><time>2026-04-27T13:40:26.14Z</time></trkpt><trkpt lat="39.9193635" lon="21.5731043"><ele>544.0</ele><time>2026-04-27T13:40:27.14Z</time></trkpt><trkpt lat="39.9191978" lon="21.5730736"><ele>544.0</ele><time>2026-04-27T13:40:28.14Z</time></trkpt><trkpt lat="39.9190259" lon="21.5730346"><ele>544.0</ele><time>2026-04-27T13:40:29.141Z</time></trkpt><trkpt lat="39.9188663" lon="21.5729926"><ele>544.0</ele><time>2026-04-27T13:40:30.141Z</time></trkpt><trkpt lat="39.9187169" lon="21.5729492"><ele>544.0</ele><time>2026-04-27T13:40:31.14Z</time></trkpt><trkpt lat="39.9185864" lon="21.5729051"><ele>544.0</ele><time>2026-04-27T13:40:32.141Z</time></trkpt><trkpt lat="39.9184633" lon="21.5728631"><ele>544.0</ele><time>2026-04-27T13:40:33.141Z</time></trkpt><trkpt lat="39.9183477" lon="21.572827"><ele>544.8</ele><time>2026-04-27T13:40:34.14Z</time></trkpt><trkpt lat="39.9182392" lon="21.5727963"><ele>545.5999999999999</ele><time>2026-04-27T13:40:35.141Z</time></trkpt><trkpt lat="39.918131" lon="21.5727659"><ele>546.4</ele><time>2026-04-27T13:40:36.141Z</time></trkpt><trkpt lat="39.9180269" lon="21.5727343"><ele>547.1999999999999</ele><time>2026-04-27T13:40:37.14Z</time></trkpt><trkpt lat="39.9179341" lon="21.5727054"><ele>548.0</ele><time>2026-04-27T13:40:38.141Z</time></trkpt><trkpt lat="39.9178431" lon="21.5726783"><ele>548.0</ele><time>2026-04-27T13:40:39.141Z</time></trkpt><trkpt lat="39.917758" lon="21.5726525"><ele>548.0</ele><time>2026-04-27T13:40:40.141Z</time></trkpt><trkpt lat="39.9176784" lon="21.5726281"><ele>548.0</ele><time>2026-04-27T13:40:41.141Z</time></trkpt><trkpt lat="39.9176028" lon="21.572609"><ele>548.0</ele><time>2026-04-27T13:40:42.14Z</time></trkpt><trkpt lat="39.917531" lon="21.5725872"><ele>548.0</ele><time>2026-04-27T13:40:43.141Z</time></trkpt><trkpt lat="39.917453" lon="21.5725673"><ele>548.0</ele><time>2026-04-27T13:40:44.14Z</time></trkpt><trkpt lat="39.9173649" lon="21.572546"><ele>547.6</ele><time>2026-04-27T13:40:45.14Z</time></trkpt><trkpt lat="39.9172685" lon="21.5725198"><ele>547.1999999999999</ele><time>2026-04-27T13:40:46.14Z</time></trkpt><trkpt lat="39.9171677" lon="21.5724891"><ele>546.8</ele><time>2026-04-27T13:40:47.14Z</time></trkpt><trkpt lat="39.9170655" lon="21.5724535"><ele>546.4</ele><time>2026-04-27T13:40:48.14Z</time></trkpt><trkpt lat="39.9169719" lon="21.572424"><ele>546.0</ele><time>2026-04-27T13:40:49.141Z</time></trkpt><trkpt lat="39.9168778" lon="21.5723959"><ele>546.0</ele><time>2026-04-27T13:40:50.14Z</time></trkpt><trkpt lat="39.9167869" lon="21.5723683"><ele>546.0</ele><time>2026-04-27T13:40:51.141Z</time></trkpt><trkpt lat="39.9166966" lon="21.5723378"><ele>546.0</ele><time>2026-04-27T13:40:52.141Z</time></trkpt><trkpt lat="39.9166056" lon="21.5722989"><ele>546.0</ele><time>2026-04-27T13:40:53.14Z</time></trkpt><trkpt lat="39.9165108" lon="21.5722733"><ele>546.0</ele><time>2026-04-27T13:40:54.141Z</time></trkpt><trkpt lat="39.9164163" lon="21.5722502"><ele>545.8</ele><time>2026-04-27T13:40:55.141Z</time></trkpt><trkpt lat="39.9163163" lon="21.5722276"><ele>545.6</ele><time>2026-04-27T13:40:56.14Z</time></trkpt><trkpt lat="39.916217" lon="21.5722096"><ele>545.4</ele><time>2026-04-27T13:40:57.141Z</time></trkpt><trkpt lat="39.9161165" lon="21.5722087"><ele>545.2</ele><time>2026-04-27T13:40:58.141Z</time></trkpt><trkpt lat="39.9160116" lon="21.5722175"><ele>545.0</ele><time>2026-04-27T13:40:59.141Z</time></trkpt><trkpt lat="39.9159053" lon="21.5722436"><ele>546.0</ele><time>2026-04-27T13:41:00.14Z</time></trkpt><trkpt lat="39.9157949" lon="21.5722671"><ele>547.0</ele><time>2026-04-27T13:41:01.14Z</time></trkpt><trkpt lat="39.9156811" lon="21.5722989"><ele>548.0</ele><time>2026-04-27T13:41:02.141Z</time></trkpt><trkpt lat="39.9155533" lon="21.572352"><ele>549.0</ele><time>2026-04-27T13:41:03.14Z</time></trkpt><trkpt lat="39.9154306" lon="21.5723928"><ele>549.0</ele><time>2026-04-27T13:41:04.141Z</time></trkpt><trkpt lat="39.9153005" lon="21.5724196"><ele>549.0</ele><time>2026-04-27T13:41:05.14Z</time></trkpt><trkpt lat="39.9151649" lon="21.5724544"><ele>549.0</ele><time>2026-04-27T13:41:06.14Z</time></trkpt><trkpt lat="39.9150269" lon="21.5724932"><ele>549.0</ele><time>2026-04-27T13:41:07.14Z</time></trkpt><trkpt lat="39.9148864" lon="21.5725347"><ele>549.5</ele><time>2026-04-27T13:41:08.141Z</time></trkpt><trkpt lat="39.9147482" lon="21.5726075"><ele>550.0</ele><time>2026-04-27T13:41:09.141Z</time></trkpt><trkpt lat="39.9146188" lon="21.5726356"><ele>550.5</ele><time>2026-04-27T13:41:10.141Z</time></trkpt><trkpt lat="39.9144933" lon="21.5726761"><ele>551.0</ele><time>2026-04-27T13:41:11.141Z</time></trkpt><trkpt lat="39.9143695" lon="21.5727071"><ele>551.0</ele><time>2026-04-27T13:41:12.141Z</time></trkpt><trkpt lat="39.914251" lon="21.5727323"><ele>551.0</ele><time>2026-04-27T13:41:13.14Z</time></trkpt><trkpt lat="39.9141412" lon="21.572756"><ele>551.0</ele><time>2026-04-27T13:41:14.14Z</time></trkpt><trkpt lat="39.9140355" lon="21.5727728"><ele>551.0</ele><time>2026-04-27T13:41:15.14Z</time></trkpt><trkpt lat="39.9139239" lon="21.5728015"><ele>550.25</ele><time>2026-04-27T13:41:16.14Z</time></trkpt><trkpt lat="39.9138084" lon="21.5728345"><ele>549.5</ele><time>2026-04-27T13:41:17.141Z</time></trkpt><trkpt lat="39.9136825" lon="21.5728674"><ele>548.75</ele><time>2026-04-27T13:41:18.141Z</time></trkpt><trkpt lat="39.9135502" lon="21.5729044"><ele>548.0</ele><time>2026-04-27T13:41:19.141Z</time></trkpt><trkpt lat="39.9134179" lon="21.5729354"><ele>547.5</ele><time>2026-04-27T13:41:20.14Z</time></trkpt><trkpt lat="39.9132866" lon="21.5729711"><ele>547.0</ele><time>2026-04-27T13:41:21.14Z</time></trkpt><trkpt lat="39.9131661" lon="21.5729973"><ele>546.5</ele><time>2026-04-27T13:41:22.14Z</time></trkpt><trkpt lat="39.9130613" lon="21.5730213"><ele>546.0</ele><time>2026-04-27T13:41:23.14Z</time></trkpt><trkpt lat="39.9129643" lon="21.5730348"><ele>546.0</ele><time>2026-04-27T13:41:24.14Z</time></trkpt><trkpt lat="39.9128698" lon="21.5730588"><ele>546.0</ele><time>2026-04-27T13:41:25.14Z</time></trkpt><trkpt lat="39.9127787" lon="21.5730785"><ele>546.0</ele><time>2026-04-27T13:41:26.14Z</time></trkpt><trkpt lat="39.9126861" lon="21.5730982"><ele>546.0</ele><time>2026-04-27T13:41:27.141Z</time></trkpt><trkpt lat="39.9125915" lon="21.5731176"><ele>546.0</ele><time>2026-04-27T13:41:28.14Z</time></trkpt><trkpt lat="39.9124919" lon="21.5731142"><ele>546.4</ele><time>2026-04-27T13:41:29.141Z</time></trkpt><trkpt lat="39.9123894" lon="21.5731177"><ele>546.8</ele><time>2026-04-27T13:41:30.14Z</time></trkpt><trkpt lat="39.9122807" lon="21.5731175"><ele>547.1999999999999</ele><time>2026-04-27T13:41:31.141Z</time></trkpt><trkpt lat="39.9121754" lon="21.5731086"><ele>547.6</ele><time>2026-04-27T13:41:32.141Z</time></trkpt><trkpt lat="39.912065" lon="21.5730903"><ele>548.0</ele><time>2026-04-27T13:41:33.14Z</time></trkpt><trkpt lat="39.9119602" lon="21.5730756"><ele>548.0</ele><time>2026-04-27T13:41:34.14Z</time></trkpt><trkpt lat="39.9118557" lon="21.5730574"><ele>548.0</ele><time>2026-04-27T13:41:35.141Z</time></trkpt><trkpt lat="39.9117505" lon="21.5730389"><ele>548.0</ele><time>2026-04-27T13:41:36.141Z</time></trkpt><trkpt lat="39.9116388" lon="21.5730374"><ele>548.0</ele><time>2026-04-27T13:41:37.141Z</time></trkpt><trkpt lat="39.9115215" lon="21.5730165"><ele>548.0</ele><time>2026-04-27T13:41:38.141Z</time></trkpt><trkpt lat="39.9114074" lon="21.5729936"><ele>548.75</ele><time>2026-04-27T13:41:39.14Z</time></trkpt><trkpt lat="39.9112832" lon="21.5729615"><ele>549.5</ele><time>2026-04-27T13:41:40.141Z</time></trkpt><trkpt lat="39.9111399" lon="21.5729225"><ele>550.25</ele><time>2026-04-27T13:41:41.141Z</time></trkpt><trkpt lat="39.9109789" lon="21.5728833"><ele>551.0</ele><time>2026-04-27T13:41:42.14Z</time></trkpt><trkpt lat="39.9107909" lon="21.5728295"><ele>551.3333333333333</ele><time>2026-04-27T13:41:43.14Z</time></trkpt><trkpt lat="39.9105896" lon="21.5727454"><ele>551.6666666666666</ele><time>2026-04-27T13:41:44.14Z</time></trkpt><trkpt lat="39.9103784" lon="21.5726073"><ele>552.0</ele><time>2026-04-27T13:41:45.14Z</time></trkpt><trkpt lat="39.9101868" lon="21.5724181"><ele>551.5</ele><time>2026-04-27T13:41:46.141Z</time></trkpt><trkpt lat="39.910013" lon="21.5721836"><ele>551.0</ele><time>2026-04-27T13:41:47.14Z</time></trkpt><trkpt lat="39.9098514" lon="21.5719473"><ele>552.0</ele><time>2026-04-27T13:41:48.141Z</time></trkpt><trkpt lat="39.9097035" lon="21.5717292"><ele>553.0</ele><time>2026-04-27T13:41:49.141Z</time></trkpt><trkpt lat="39.9095604" lon="21.5715532"><ele>554.0</ele><time>2026-04-27T13:41:50.141Z</time></trkpt><trkpt lat="39.9094025" lon="21.571413"><ele>553.3333333333333</ele><time>2026-04-27T13:41:51.141Z</time></trkpt><trkpt lat="39.9092209" lon="21.5713145"><ele>552.6666666666666</ele><time>2026-04-27T13:41:52.14Z</time></trkpt><trkpt lat="39.9090056" lon="21.5712594"><ele>552.0</ele><time>2026-04-27T13:41:53.141Z</time></trkpt><trkpt lat="39.9087909" lon="21.5712122"><ele>553.3333333333334</ele><time>2026-04-27T13:41:54.141Z</time></trkpt><trkpt lat="39.9085752" lon="21.5711528"><ele>554.6666666666667</ele><time>2026-04-27T13:41:55.14Z</time></trkpt><trkpt lat="39.90836" lon="21.5710858"><ele>556.0</ele><time>2026-04-27T13:41:56.141Z</time></trkpt><trkpt lat="39.9081314" lon="21.5709979"><ele>556.0</ele><time>2026-04-27T13:41:57.141Z</time></trkpt><trkpt lat="39.9079056" lon="21.5708983"><ele>556.0</ele><time>2026-04-27T13:41:58.141Z</time></trkpt><trkpt lat="39.9076901" lon="21.5707971"><ele>555.6666666666667</ele><time>2026-04-27T13:41:59.14Z</time></trkpt><trkpt lat="39.9074824" lon="21.5706958"><ele>555.3333333333334</ele><time>2026-04-27T13:42:00.14Z</time></trkpt><trkpt lat="39.9072856" lon="21.5705879"><ele>555.0</ele><time>2026-04-27T13:42:01.141Z</time></trkpt><trkpt lat="39.9070964" lon="21.5704555"><ele>557.5</ele><time>2026-04-27T13:42:02.141Z</time></trkpt><trkpt lat="39.906902" lon="21.5702822"><ele>560.0</ele><time>2026-04-27T13:42:03.14Z</time></trkpt><trkpt lat="39.9067075" lon="21.5700968"><ele>560.0</ele><time>2026-04-27T13:42:04.141Z</time></trkpt><trkpt lat="39.9065165" lon="21.569895"><ele>560.0</ele><time>2026-04-27T13:42:05.14Z</time></trkpt><trkpt lat="39.9063396" lon="21.5696962"><ele>560.3333333333333</ele><time>2026-04-27T13:42:06.141Z</time></trkpt><trkpt lat="39.906169" lon="21.5695161"><ele>560.6666666666666</ele><time>2026-04-27T13:42:07.141Z</time></trkpt><trkpt lat="39.9059991" lon="21.56937"><ele>561.0</ele><time>2026-04-27T13:42:08.14Z</time></trkpt><trkpt lat="39.9058213" lon="21.5692476"><ele>560.0</ele><time>2026-04-27T13:42:09.141Z</time></trkpt><trkpt lat="39.9056533" lon="21.5691652"><ele>559.0</ele><time>2026-04-27T13:42:10.141Z</time></trkpt><trkpt lat="39.9054857" lon="21.5691262"><ele>558.0</ele><time>2026-04-27T13:42:11.141Z</time></trkpt><trkpt lat="39.9053149" lon="21.5691338"><ele>558.0</ele><time>2026-04-27T13:42:12.14Z</time></trkpt><trkpt lat="39.9051353" lon="21.5691943"><ele>558.0</ele><time>2026-04-27T13:42:13.141Z</time></trkpt><trkpt lat="39.9049601" lon="21.569287"><ele>558.0</ele><time>2026-04-27T13:42:14.141Z</time></trkpt><trkpt lat="39.9047988" lon="21.5693933"><ele>556.6666666666666</ele><time>2026-04-27T13:42:15.141Z</time></trkpt><trkpt lat="39.9046381" lon="21.5695"><ele>555.3333333333333</ele><time>2026-04-27T13:42:16.141Z</time></trkpt><trkpt lat="39.9044707" lon="21.5695827"><ele>554.0</ele><time>2026-04-27T13:42:17.14Z</time></trkpt><trkpt lat="39.9043062" lon="21.5696309"><ele>557.3333333333333</ele><time>2026-04-27T13:42:18.141Z</time></trkpt><trkpt lat="39.9041217" lon="21.5696078"><ele>560.6666666666666</ele><time>2026-04-27T13:42:19.14Z</time></trkpt><trkpt lat="39.9039509" lon="21.5695579"><ele>564.0</ele><time>2026-04-27T13:42:20.141Z</time></trkpt><trkpt lat="39.9037883" lon="21.5694262"><ele>566.6666666666666</ele><time>2026-04-27T13:42:21.14Z</time></trkpt><trkpt lat="39.9036467" lon="21.569284"><ele>569.3333333333333</ele><time>2026-04-27T13:42:22.141Z</time></trkpt><trkpt lat="39.9035251" lon="21.5690919"><ele>572.0</ele><time>2026-04-27T13:42:23.14Z</time></trkpt><trkpt lat="39.9034189" lon="21.5688616"><ele>572.5</ele><time>2026-04-27T13:42:24.14Z</time></trkpt><trkpt lat="39.9033183" lon="21.5685972"><ele>573.0</ele><time>2026-04-27T13:42:25.14Z</time></trkpt><trkpt lat="39.9032203" lon="21.5683314"><ele>573.0</ele><time>2026-04-27T13:42:26.14Z</time></trkpt><trkpt lat="39.9031202" lon="21.5680799"><ele>573.0</ele><time>2026-04-27T13:42:27.14Z</time></trkpt><trkpt lat="39.9030155" lon="21.5678381"><ele>573.0</ele><time>2026-04-27T13:42:28.141Z</time></trkpt><trkpt lat="39.902876" lon="21.5676038"><ele>574.0</ele><time>2026-04-27T13:42:29.14Z</time></trkpt><trkpt lat="39.9027248" lon="21.5673699"><ele>575.0</ele><time>2026-04-27T13:42:30.14Z</time></trkpt><trkpt lat="39.9025507" lon="21.5671313"><ele>578.0</ele><time>2026-04-27T13:42:31.141Z</time></trkpt><trkpt lat="39.9023656" lon="21.5668879"><ele>581.0</ele><time>2026-04-27T13:42:32.141Z</time></trkpt><trkpt lat="39.9021769" lon="21.5666454"><ele>581.0</ele><time>2026-04-27T13:42:33.141Z</time></trkpt><trkpt lat="39.9020017" lon="21.5664065"><ele>581.0</ele><time>2026-04-27T13:42:34.141Z</time></trkpt><trkpt lat="39.9018449" lon="21.5661702"><ele>580.5</ele><time>2026-04-27T13:42:35.141Z</time></trkpt><trkpt lat="39.9016957" lon="21.5659263"><ele>580.0</ele><time>2026-04-27T13:42:36.141Z</time></trkpt><trkpt lat="39.9015743" lon="21.5656788"><ele>580.0</ele><time>2026-04-27T13:42:37.14Z</time></trkpt><trkpt lat="39.9014714" lon="21.5654353"><ele>580.0</ele><time>2026-04-27T13:42:38.141Z</time></trkpt><trkpt lat="39.9013824" lon="21.5652141"><ele>580.0</ele><time>2026-04-27T13:42:39.141Z</time></trkpt><trkpt lat="39.901289" lon="21.5650349"><ele>579.5</ele><time>2026-04-27T13:42:40.141Z</time></trkpt><trkpt lat="39.9011785" lon="21.5648922"><ele>579.0</ele><time>2026-04-27T13:42:41.141Z</time></trkpt><trkpt lat="39.9010743" lon="21.5647902"><ele>578.5</ele><time>2026-04-27T13:42:42.14Z</time></trkpt><trkpt lat="39.9009438" lon="21.5647385"><ele>578.0</ele><time>2026-04-27T13:42:43.14Z</time></trkpt><trkpt lat="39.900799" lon="21.5647467"><ele>578.0</ele><time>2026-04-27T13:42:44.141Z</time></trkpt><trkpt lat="39.9006464" lon="21.5647812"><ele>578.0</ele><time>2026-04-27T13:42:45.14Z</time></trkpt><trkpt lat="39.9005022" lon="21.5648858"><ele>578.0</ele><time>2026-04-27T13:42:46.14Z</time></trkpt><trkpt lat="39.9003358" lon="21.565003"><ele>578.0</ele><time>2026-04-27T13:42:47.14Z</time></trkpt><trkpt lat="39.9001752" lon="21.5651156"><ele>578.0</ele><time>2026-04-27T13:42:48.141Z</time></trkpt><trkpt lat="39.9000156" lon="21.5652112"><ele>578.0</ele><time>2026-04-27T13:42:49.141Z</time></trkpt><trkpt lat="39.8998583" lon="21.565283"><ele>578.0</ele><time>2026-04-27T13:42:50.14Z</time></trkpt><trkpt lat="39.8996962" lon="21.5653197"><ele>578.0</ele><time>2026-04-27T13:42:51.14Z</time></trkpt><trkpt lat="39.8995309" lon="21.5653198"><ele>578.0</ele><time>2026-04-27T13:42:52.14Z</time></trkpt><trkpt lat="39.8993618" lon="21.5652746"><ele>576.0</ele><time>2026-04-27T13:42:53.141Z</time></trkpt><trkpt lat="39.8991952" lon="21.5651913"><ele>574.0</ele><time>2026-04-27T13:42:54.14Z</time></trkpt><trkpt lat="39.8990279" lon="21.5650442"><ele>572.0</ele><time>2026-04-27T13:42:55.14Z</time></trkpt><trkpt lat="39.8988606" lon="21.5648928"><ele>572.0</ele><time>2026-04-27T13:42:56.141Z</time></trkpt><trkpt lat="39.898683" lon="21.564739"><ele>572.0</ele><time>2026-04-27T13:42:57.14Z</time></trkpt><trkpt lat="39.8984862" lon="21.5646032"><ele>572.0</ele><time>2026-04-27T13:42:58.141Z</time></trkpt><trkpt lat="39.8982937" lon="21.5644932"><ele>569.6666666666666</ele><time>2026-04-27T13:42:59.141Z</time></trkpt><trkpt lat="39.8981154" lon="21.5643868"><ele>567.3333333333334</ele><time>2026-04-27T13:43:00.141Z</time></trkpt><trkpt lat="39.8979352" lon="21.564302"><ele>565.0</ele><time>2026-04-27T13:43:01.14Z</time></trkpt><trkpt lat="39.8977667" lon="21.5641933"><ele>565.0</ele><time>2026-04-27T13:43:02.141Z</time></trkpt><trkpt lat="39.8976156" lon="21.5640969"><ele>565.0</ele><time>2026-04-27T13:43:03.14Z</time></trkpt><trkpt lat="39.8974948" lon="21.563986"><ele>565.0</ele><time>2026-04-27T13:43:04.14Z</time></trkpt><trkpt lat="39.8973806" lon="21.5638829"><ele>561.75</ele><time>2026-04-27T13:43:05.141Z</time></trkpt><trkpt lat="39.8972781" lon="21.5637945"><ele>558.5</ele><time>2026-04-27T13:43:06.14Z</time></trkpt><trkpt lat="39.8971588" lon="21.5637474"><ele>555.25</ele><time>2026-04-27T13:43:07.14Z</time></trkpt><trkpt lat="39.8970313" lon="21.563754"><ele>552.0</ele><time>2026-04-27T13:43:08.141Z</time></trkpt><trkpt lat="39.8968956" lon="21.5638199"><ele>552.0</ele><time>2026-04-27T13:43:09.14Z</time></trkpt><trkpt lat="39.8967588" lon="21.5639289"><ele>552.0</ele><time>2026-04-27T13:43:10.141Z</time></trkpt><trkpt lat="39.8966263" lon="21.56406"><ele>552.0</ele><time>2026-04-27T13:43:11.141Z</time></trkpt><trkpt lat="39.8964936" lon="21.5642041"><ele>550.3333333333334</ele><time>2026-04-27T13:43:12.14Z</time></trkpt><trkpt lat="39.8963759" lon="21.5643581"><ele>548.6666666666667</ele><time>2026-04-27T13:43:13.14Z</time></trkpt><trkpt lat="39.8962804" lon="21.564538"><ele>547.0</ele><time>2026-04-27T13:43:14.141Z</time></trkpt><trkpt lat="39.8962258" lon="21.5647561"><ele>547.0</ele><time>2026-04-27T13:43:15.141Z</time></trkpt><trkpt lat="39.8961851" lon="21.5649758"><ele>547.0</ele><time>2026-04-27T13:43:16.141Z</time></trkpt><trkpt lat="39.8961659" lon="21.565206"><ele>547.0</ele><time>2026-04-27T13:43:17.141Z</time></trkpt><trkpt lat="39.8961433" lon="21.5654429"><ele>546.3333333333334</ele><time>2026-04-27T13:43:18.141Z</time></trkpt><trkpt lat="39.896105" lon="21.5656795"><ele>545.6666666666666</ele><time>2026-04-27T13:43:19.141Z</time></trkpt><trkpt lat="39.8960493" lon="21.5659159"><ele>545.0</ele><time>2026-04-27T13:43:20.141Z</time></trkpt><trkpt lat="39.8959783" lon="21.5661475"><ele>548.0</ele><time>2026-04-27T13:43:21.141Z</time></trkpt><trkpt lat="39.8959111" lon="21.56636"><ele>551.0</ele><time>2026-04-27T13:43:22.141Z</time></trkpt><trkpt lat="39.8958319" lon="21.5665561"><ele>554.0</ele><time>2026-04-27T13:43:23.14Z</time></trkpt><trkpt lat="39.8957314" lon="21.5667117"><ele>554.0</ele><time>2026-04-27T13:43:24.14Z</time></trkpt><trkpt lat="39.8956144" lon="21.5668221"><ele>554.0</ele><time>2026-04-27T13:43:25.14Z</time></trkpt><trkpt lat="39.8955029" lon="21.5668479"><ele>554.0</ele><time>2026-04-27T13:43:26.141Z</time></trkpt><trkpt lat="39.8954205" lon="21.5668509"><ele>554.0</ele><time>2026-04-27T13:43:27.141Z</time></trkpt><trkpt lat="39.8953381" lon="21.5668011"><ele>554.0</ele><time>2026-04-27T13:43:28.14Z</time></trkpt><trkpt lat="39.8952839" lon="21.5666497"><ele>554.0</ele><time>2026-04-27T13:43:29.14Z</time></trkpt><trkpt lat="39.8952357" lon="21.5665018"><ele>554.0</ele><time>2026-04-27T13:43:30.14Z</time></trkpt><trkpt lat="39.8951916" lon="21.5663529"><ele>554.0</ele><time>2026-04-27T13:43:31.14Z</time></trkpt><trkpt lat="39.8951867" lon="21.5661339"><ele>554.0</ele><time>2026-04-27T13:43:32.14Z</time></trkpt><trkpt lat="39.8952138" lon="21.5659566"><ele>555.0</ele><time>2026-04-27T13:43:33.14Z</time></trkpt><trkpt lat="39.8951811" lon="21.5658005"><ele>556.0</ele><time>2026-04-27T13:43:34.141Z</time></trkpt><trkpt lat="39.8951204" lon="21.5656836"><ele>557.0</ele><time>2026-04-27T13:43:35.14Z</time></trkpt><trkpt lat="39.8950334" lon="21.5655834"><ele>558.0</ele><time>2026-04-27T13:43:36.141Z</time></trkpt><trkpt lat="39.8949233" lon="21.5655114"><ele>559.0</ele><time>2026-04-27T13:43:37.14Z</time></trkpt><trkpt lat="39.8948068" lon="21.5654732"><ele>560.0</ele><time>2026-04-27T13:43:38.141Z</time></trkpt><trkpt lat="39.8946666" lon="21.5654445"><ele>561.0</ele><time>2026-04-27T13:43:39.141Z</time></trkpt><trkpt lat="39.8945025" lon="21.5654487"><ele>562.0</ele><time>2026-04-27T13:43:40.14Z</time></trkpt><trkpt lat="39.8943325" lon="21.5654531"><ele>562.6666666666667</ele><time>2026-04-27T13:43:41.14Z</time></trkpt><trkpt lat="39.89416" lon="21.565466"><ele>563.3333333333334</ele><time>2026-04-27T13:43:42.141Z</time></trkpt><trkpt lat="39.8939922" lon="21.5654881"><ele>564.0</ele><time>2026-04-27T13:43:43.141Z</time></trkpt><trkpt lat="39.8938216" lon="21.5655164"><ele>564.0</ele><time>2026-04-27T13:43:44.14Z</time></trkpt><trkpt lat="39.8936535" lon="21.5655669"><ele>564.0</ele><time>2026-04-27T13:43:45.141Z</time></trkpt><trkpt lat="39.8934868" lon="21.565663"><ele>564.0</ele><time>2026-04-27T13:43:46.141Z</time></trkpt><trkpt lat="39.8933208" lon="21.5657775"><ele>564.0</ele><time>2026-04-27T13:43:47.141Z</time></trkpt><trkpt lat="39.8931661" lon="21.5659125"><ele>564.0</ele><time>2026-04-27T13:43:48.14Z</time></trkpt><trkpt lat="39.8930164" lon="21.566066"><ele>564.0</ele><time>2026-04-27T13:43:49.141Z</time></trkpt><trkpt lat="39.8928682" lon="21.5662311"><ele>564.0</ele><time>2026-04-27T13:43:50.14Z</time></trkpt><trkpt lat="39.8927207" lon="21.5663971"><ele>564.0</ele><time>2026-04-27T13:43:51.141Z</time></trkpt><trkpt lat="39.8925658" lon="21.5665714"><ele>564.0</ele><time>2026-04-27T13:43:52.141Z</time></trkpt><trkpt lat="39.8924062" lon="21.5667443"><ele>564.0</ele><time>2026-04-27T13:43:53.141Z</time></trkpt><trkpt lat="39.8922484" lon="21.5669125"><ele>564.0</ele><time>2026-04-27T13:43:54.14Z</time></trkpt><trkpt lat="39.8921009" lon="21.5670686"><ele>564.0</ele><time>2026-04-27T13:43:55.141Z</time></trkpt><trkpt lat="39.8919554" lon="21.5672143"><ele>562.3333333333334</ele><time>2026-04-27T13:43:56.14Z</time></trkpt><trkpt lat="39.8918083" lon="21.5673298"><ele>560.6666666666667</ele><time>2026-04-27T13:43:57.141Z</time></trkpt><trkpt lat="39.891646" lon="21.5674262"><ele>559.0</ele><time>2026-04-27T13:43:58.141Z</time></trkpt><trkpt lat="39.8914804" lon="21.5674775"><ele>559.0</ele><time>2026-04-27T13:43:59.14Z</time></trkpt><trkpt lat="39.8913155" lon="21.5674904"><ele>559.0</ele><time>2026-04-27T13:44:00.14Z</time></trkpt><trkpt lat="39.8911445" lon="21.5674616"><ele>559.0</ele><time>2026-04-27T13:44:01.141Z</time></trkpt><trkpt lat="39.8909617" lon="21.5673858"><ele>557.3333333333334</ele><time>2026-04-27T13:44:02.141Z</time></trkpt><trkpt lat="39.8907677" lon="21.5672851"><ele>555.6666666666666</ele><time>2026-04-27T13:44:03.14Z</time></trkpt><trkpt lat="39.8905688" lon="21.567179"><ele>554.0</ele><time>2026-04-27T13:44:04.14Z</time></trkpt><trkpt lat="39.8903667" lon="21.5670732"><ele>552.5</ele><time>2026-04-27T13:44:05.14Z</time></trkpt><trkpt lat="39.8901575" lon="21.5669652"><ele>551.0</ele><time>2026-04-27T13:44:06.14Z</time></trkpt><trkpt lat="39.8899469" lon="21.5668545"><ele>551.0</ele><time>2026-04-27T13:44:07.141Z</time></trkpt><trkpt lat="39.8897402" lon="21.5667452"><ele>551.0</ele><time>2026-04-27T13:44:08.14Z</time></trkpt><trkpt lat="39.8895253" lon="21.5666725"><ele>551.0</ele><time>2026-04-27T13:44:09.14Z</time></trkpt><trkpt lat="39.8892822" lon="21.5666039"><ele>550.0</ele><time>2026-04-27T13:44:10.141Z</time></trkpt><trkpt lat="39.8890151" lon="21.5665817"><ele>549.0</ele><time>2026-04-27T13:44:11.14Z</time></trkpt><trkpt lat="39.8887207" lon="21.5665775"><ele>545.5</ele><time>2026-04-27T13:44:12.141Z</time></trkpt><trkpt lat="39.8884067" lon="21.5665806"><ele>542.0</ele><time>2026-04-27T13:44:13.14Z</time></trkpt><trkpt lat="39.8880879" lon="21.5665841"><ele>542.0</ele><time>2026-04-27T13:44:14.141Z</time></trkpt><trkpt lat="39.8877736" lon="21.5665844"><ele>542.0</ele><time>2026-04-27T13:44:15.141Z</time></trkpt><trkpt lat="39.8874694" lon="21.5665865"><ele>538.5</ele><time>2026-04-27T13:44:16.141Z</time></trkpt><trkpt lat="39.8871749" lon="21.5665924"><ele>535.0</ele><time>2026-04-27T13:44:17.14Z</time></trkpt><trkpt lat="39.8868876" lon="21.566595"><ele>540.0</ele><time>2026-04-27T13:44:18.14Z</time></trkpt><trkpt lat="39.8866099" lon="21.5665967"><ele>545.0</ele><time>2026-04-27T13:44:19.141Z</time></trkpt><trkpt lat="39.8863429" lon="21.5666008"><ele>545.0</ele><time>2026-04-27T13:44:20.14Z</time></trkpt><trkpt lat="39.8860777" lon="21.5666066"><ele>545.0</ele><time>2026-04-27T13:44:21.141Z</time></trkpt><trkpt lat="39.8858245" lon="21.5666166"><ele>549.5</ele><time>2026-04-27T13:44:22.141Z</time></trkpt><trkpt lat="39.8855895" lon="21.5666218"><ele>554.0</ele><time>2026-04-27T13:44:23.141Z</time></trkpt><trkpt lat="39.8853659" lon="21.5666297"><ele>554.0</ele><time>2026-04-27T13:44:24.14Z</time></trkpt><trkpt lat="39.8851659" lon="21.5666361"><ele>554.0</ele><time>2026-04-27T13:44:25.141Z</time></trkpt><trkpt lat="39.8849823" lon="21.5666366"><ele>554.0</ele><time>2026-04-27T13:44:26.141Z</time></trkpt><trkpt lat="39.884812" lon="21.5666399"><ele>556.3333333333333</ele><time>2026-04-27T13:44:27.141Z</time></trkpt><trkpt lat="39.8846595" lon="21.5666491"><ele>558.6666666666666</ele><time>2026-04-27T13:44:28.141Z</time></trkpt><trkpt lat="39.8844994" lon="21.566624"><ele>561.0</ele><time>2026-04-27T13:44:29.14Z</time></trkpt><trkpt lat="39.8843415" lon="21.5665797"><ele>561.3333333333334</ele><time>2026-04-27T13:44:30.141Z</time></trkpt><trkpt lat="39.8841679" lon="21.5665101"><ele>561.6666666666667</ele><time>2026-04-27T13:44:31.141Z</time></trkpt><trkpt lat="39.8839788" lon="21.5664171"><ele>562.0</ele><time>2026-04-27T13:44:32.141Z</time></trkpt><trkpt lat="39.8837759" lon="21.5663225"><ele>562.0</ele><time>2026-04-27T13:44:33.141Z</time></trkpt><trkpt lat="39.8835773" lon="21.5662162"><ele>562.0</ele><time>2026-04-27T13:44:34.14Z</time></trkpt><trkpt lat="39.883368" lon="21.5661095"><ele>562.0</ele><time>2026-04-27T13:44:35.141Z</time></trkpt><trkpt lat="39.8831597" lon="21.5659956"><ele>563.0</ele><time>2026-04-27T13:44:36.141Z</time></trkpt><trkpt lat="39.8829471" lon="21.5658762"><ele>564.0</ele><time>2026-04-27T13:44:37.14Z</time></trkpt><trkpt lat="39.882739" lon="21.5657656"><ele>564.0</ele><time>2026-04-27T13:44:38.14Z</time></trkpt><trkpt lat="39.8825416" lon="21.5656666"><ele>564.0</ele><time>2026-04-27T13:44:39.14Z</time></trkpt><trkpt lat="39.8823563" lon="21.5655705"><ele>564.0</ele><time>2026-04-27T13:44:40.14Z</time></trkpt><trkpt lat="39.8821825" lon="21.5654774"><ele>564.0</ele><time>2026-04-27T13:44:41.14Z</time></trkpt><trkpt lat="39.8820187" lon="21.5653926"><ele>564.0</ele><time>2026-04-27T13:44:42.141Z</time></trkpt><trkpt lat="39.8818621" lon="21.5653105"><ele>564.0</ele><time>2026-04-27T13:44:43.14Z</time></trkpt><trkpt lat="39.8817164" lon="21.5652371"><ele>564.75</ele><time>2026-04-27T13:44:44.14Z</time></trkpt><trkpt lat="39.8815864" lon="21.5651708"><ele>565.5</ele><time>2026-04-27T13:44:45.14Z</time></trkpt><trkpt lat="39.8814683" lon="21.5651094"><ele>566.25</ele><time>2026-04-27T13:44:46.141Z</time></trkpt><trkpt lat="39.8813612" lon="21.5650514"><ele>567.0</ele><time>2026-04-27T13:44:47.141Z</time></trkpt><trkpt lat="39.8812599" lon="21.5649962"><ele>567.0</ele><time>2026-04-27T13:44:48.141Z</time></trkpt><trkpt lat="39.8811514" lon="21.5649435"><ele>567.0</ele><time>2026-04-27T13:44:49.14Z</time></trkpt><trkpt lat="39.8810334" lon="21.5648842"><ele>567.0</ele><time>2026-04-27T13:44:50.14Z</time></trkpt><trkpt lat="39.8809116" lon="21.5648138"><ele>567.0</ele><time>2026-04-27T13:44:51.141Z</time></trkpt><trkpt lat="39.8807818" lon="21.5647426"><ele>567.0</ele><time>2026-04-27T13:44:52.14Z</time></trkpt><trkpt lat="39.88064" lon="21.5646715"><ele>567.0</ele><time>2026-04-27T13:44:53.14Z</time></trkpt><trkpt lat="39.8804917" lon="21.5645995"><ele>567.0</ele><time>2026-04-27T13:44:54.141Z</time></trkpt><trkpt lat="39.8803418" lon="21.5645265"><ele>567.6666666666666</ele><time>2026-04-27T13:44:55.141Z</time></trkpt><trkpt lat="39.8801912" lon="21.564447"><ele>568.3333333333333</ele><time>2026-04-27T13:44:56.14Z</time></trkpt><trkpt lat="39.8800402" lon="21.5643656"><ele>569.0</ele><time>2026-04-27T13:44:57.14Z</time></trkpt><trkpt lat="39.8798882" lon="21.564306"><ele>569.0</ele><time>2026-04-27T13:44:58.141Z</time></trkpt><trkpt lat="39.8797275" lon="21.5642265"><ele>569.0</ele><time>2026-04-27T13:44:59.141Z</time></trkpt><trkpt lat="39.8795723" lon="21.5641459"><ele>569.0</ele><time>2026-04-27T13:45:00.141Z</time></trkpt><trkpt lat="39.8794247" lon="21.5640554"><ele>569.0</ele><time>2026-04-27T13:45:01.141Z</time></trkpt><trkpt lat="39.8792711" lon="21.5639812"><ele>569.0</ele><time>2026-04-27T13:45:02.141Z</time></trkpt><trkpt lat="39.8791194" lon="21.5639066"><ele>569.0</ele><time>2026-04-27T13:45:03.14Z</time></trkpt><trkpt lat="39.8789672" lon="21.5638328"><ele>571.6666666666666</ele><time>2026-04-27T13:45:04.141Z</time></trkpt><trkpt lat="39.8788148" lon="21.5637527"><ele>574.3333333333334</ele><time>2026-04-27T13:45:05.141Z</time></trkpt><trkpt lat="39.8786613" lon="21.563672"><ele>577.0</ele><time>2026-04-27T13:45:06.14Z</time></trkpt><trkpt lat="39.8785007" lon="21.5635872"><ele>576.3333333333334</ele><time>2026-04-27T13:45:07.141Z</time></trkpt><trkpt lat="39.8783379" lon="21.5635025"><ele>575.6666666666666</ele><time>2026-04-27T13:45:08.141Z</time></trkpt><trkpt lat="39.8781915" lon="21.5634302"><ele>575.0</ele><time>2026-04-27T13:45:09.14Z</time></trkpt><trkpt lat="39.878054" lon="21.5633539"><ele>575.0</ele><time>2026-04-27T13:45:10.141Z</time></trkpt><trkpt lat="39.8779291" lon="21.5632708"><ele>575.0</ele><time>2026-04-27T13:45:11.141Z</time></trkpt><trkpt lat="39.8778225" lon="21.5632088"><ele>575.0</ele><time>2026-04-27T13:45:12.14Z</time></trkpt><trkpt lat="39.8777322" lon="21.5631484"><ele>575.0</ele><time>2026-04-27T13:45:13.14Z</time></trkpt><trkpt lat="39.8776694" lon="21.5630578"><ele>575.0</ele><time>2026-04-27T13:45:14.14Z</time></trkpt><trkpt lat="39.8776143" lon="21.5629513"><ele>575.0</ele><time>2026-04-27T13:45:15.141Z</time></trkpt><trkpt lat="39.8775492" lon="21.5628677"><ele>575.0</ele><time>2026-04-27T13:45:16.141Z</time></trkpt><trkpt lat="39.8774682" lon="21.5628219"><ele>575.0</ele><time>2026-04-27T13:45:17.141Z</time></trkpt><trkpt lat="39.8773903" lon="21.5628099"><ele>575.0</ele><time>2026-04-27T13:45:18.14Z</time></trkpt><trkpt lat="39.8773057" lon="21.5628173"><ele>575.0</ele><time>2026-04-27T13:45:19.141Z</time></trkpt><trkpt lat="39.8772197" lon="21.5628273"><ele>576.1666666666666</ele><time>2026-04-27T13:45:20.141Z</time></trkpt><trkpt lat="39.8771264" lon="21.5628075"><ele>577.3333333333333</ele><time>2026-04-27T13:45:21.14Z</time></trkpt><trkpt lat="39.8770576" lon="21.5627679"><ele>578.5</ele><time>2026-04-27T13:45:22.14Z</time></trkpt><trkpt lat="39.8769914" lon="21.5627303"><ele>579.6666666666666</ele><time>2026-04-27T13:45:23.141Z</time></trkpt><trkpt lat="39.8769261" lon="21.5626912"><ele>580.8333333333334</ele><time>2026-04-27T13:45:24.141Z</time></trkpt><trkpt lat="39.8768163" lon="21.5626435"><ele>582.0</ele><time>2026-04-27T13:45:25.14Z</time></trkpt><trkpt lat="39.8767161" lon="21.562608"><ele>582.1666666666666</ele><time>2026-04-27T13:45:26.141Z</time></trkpt><trkpt lat="39.8766226" lon="21.562565"><ele>582.3333333333334</ele><time>2026-04-27T13:45:27.141Z</time></trkpt><trkpt lat="39.8765408" lon="21.5625261"><ele>582.5</ele><time>2026-04-27T13:45:28.14Z</time></trkpt><trkpt lat="39.8764694" lon="21.5624767"><ele>582.6666666666667</ele><time>2026-04-27T13:45:29.14Z</time></trkpt><trkpt lat="39.8764033" lon="21.5624052"><ele>582.8333333333334</ele><time>2026-04-27T13:45:30.141Z</time></trkpt><trkpt lat="39.8763496" lon="21.5623443"><ele>583.0</ele><time>2026-04-27T13:45:31.141Z</time></trkpt><trkpt lat="39.8762814" lon="21.5622803"><ele>583.0</ele><time>2026-04-27T13:45:32.141Z</time></trkpt><trkpt lat="39.8762052" lon="21.5622395"><ele>583.0</ele><time>2026-04-27T13:45:33.14Z</time></trkpt><trkpt lat="39.876126" lon="21.5622421"><ele>583.0</ele><time>2026-04-27T13:45:34.141Z</time></trkpt><trkpt lat="39.8760506" lon="21.5622829"><ele>583.0</ele><time>2026-04-27T13:45:35.14Z</time></trkpt><trkpt lat="39.8759772" lon="21.5623329"><ele>583.0</ele><time>2026-04-27T13:45:36.141Z</time></trkpt><trkpt lat="39.8758792" lon="21.5623774"><ele>583.0</ele><time>2026-04-27T13:45:37.14Z</time></trkpt><trkpt lat="39.8757465" lon="21.5623941"><ele>583.0</ele><time>2026-04-27T13:45:38.141Z</time></trkpt><trkpt lat="39.8755735" lon="21.5624238"><ele>583.0</ele><time>2026-04-27T13:45:39.14Z</time></trkpt><trkpt lat="39.8753832" lon="21.5624661"><ele>583.0</ele><time>2026-04-27T13:45:40.141Z</time></trkpt><trkpt lat="39.8751612" lon="21.5625231"><ele>584.3333333333334</ele><time>2026-04-27T13:45:41.14Z</time></trkpt><trkpt lat="39.8749465" lon="21.5626074"><ele>585.6666666666666</ele><time>2026-04-27T13:45:42.14Z</time></trkpt><trkpt lat="39.8747441" lon="21.5626903"><ele>587.0</ele><time>2026-04-27T13:45:43.141Z</time></trkpt><trkpt lat="39.874556" lon="21.5627604"><ele>587.0</ele><time>2026-04-27T13:45:44.14Z</time></trkpt><trkpt lat="39.8743707" lon="21.5628168"><ele>587.0</ele><time>2026-04-27T13:45:45.14Z</time></trkpt><trkpt lat="39.8741944" lon="21.5628667"><ele>587.0</ele><time>2026-04-27T13:45:46.141Z</time></trkpt><trkpt lat="39.8740183" lon="21.5629039"><ele>587.0</ele><time>2026-04-27T13:45:47.14Z</time></trkpt><trkpt lat="39.8738406" lon="21.5629275"><ele>587.0</ele><time>2026-04-27T13:45:48.141Z</time></trkpt><trkpt lat="39.8736552" lon="21.5629374"><ele>587.0</ele><time>2026-04-27T13:45:49.141Z</time></trkpt><trkpt lat="39.8734695" lon="21.5629272"><ele>588.3333333333333</ele><time>2026-04-27T13:45:50.141Z</time></trkpt><trkpt lat="39.8732834" lon="21.5629096"><ele>589.6666666666666</ele><time>2026-04-27T13:45:51.141Z</time></trkpt><trkpt lat="39.8730846" lon="21.5628786"><ele>591.0</ele><time>2026-04-27T13:45:52.141Z</time></trkpt><trkpt lat="39.8728835" lon="21.5628406"><ele>593.3333333333334</ele><time>2026-04-27T13:45:53.14Z</time></trkpt><trkpt lat="39.872684" lon="21.5628227"><ele>595.6666666666667</ele><time>2026-04-27T13:45:54.141Z</time></trkpt><trkpt lat="39.8724867" lon="21.5627924"><ele>598.0</ele><time>2026-04-27T13:45:55.141Z</time></trkpt><trkpt lat="39.8722865" lon="21.562773"><ele>599.3333333333334</ele><time>2026-04-27T13:45:56.14Z</time></trkpt><trkpt lat="39.8720988" lon="21.5627837"><ele>600.6666666666666</ele><time>2026-04-27T13:45:57.14Z</time></trkpt><trkpt lat="39.871922" lon="21.5628265"><ele>602.0</ele><time>2026-04-27T13:45:58.141Z</time></trkpt><trkpt lat="39.8717378" lon="21.5629121"><ele>599.0</ele><time>2026-04-27T13:45:59.14Z</time></trkpt><trkpt lat="39.8715619" lon="21.5630076"><ele>596.0</ele><time>2026-04-27T13:46:00.14Z</time></trkpt><trkpt lat="39.8713898" lon="21.5631281"><ele>593.0</ele><time>2026-04-27T13:46:01.14Z</time></trkpt><trkpt lat="39.8712314" lon="21.5632588"><ele>593.0</ele><time>2026-04-27T13:46:02.14Z</time></trkpt><trkpt lat="39.8710705" lon="21.5634062"><ele>593.0</ele><time>2026-04-27T13:46:03.141Z</time></trkpt><trkpt lat="39.870919" lon="21.5635653"><ele>593.0</ele><time>2026-04-27T13:46:04.141Z</time></trkpt><trkpt lat="39.8707846" lon="21.5637554"><ele>594.3333333333333</ele><time>2026-04-27T13:46:05.14Z</time></trkpt><trkpt lat="39.8706514" lon="21.5639483"><ele>595.6666666666666</ele><time>2026-04-27T13:46:06.14Z</time></trkpt><trkpt lat="39.8705207" lon="21.564154"><ele>597.0</ele><time>2026-04-27T13:46:07.141Z</time></trkpt><trkpt lat="39.8704114" lon="21.5643689"><ele>597.0</ele><time>2026-04-27T13:46:08.14Z</time></trkpt><trkpt lat="39.8703009" lon="21.5645608"><ele>597.0</ele><time>2026-04-27T13:46:09.14Z</time></trkpt><trkpt lat="39.8701912" lon="21.5647412"><ele>597.0</ele><time>2026-04-27T13:46:10.14Z</time></trkpt><trkpt lat="39.8700703" lon="21.5648966"><ele>597.0</ele><time>2026-04-27T13:46:11.14Z</time></trkpt><trkpt lat="39.8699294" lon="21.565026"><ele>597.0</ele><time>2026-04-27T13:46:12.14Z</time></trkpt><trkpt lat="39.8697621" lon="21.5651059"><ele>597.0</ele><time>2026-04-27T13:46:13.14Z</time></trkpt><trkpt lat="39.8695914" lon="21.565165"><ele>597.0</ele><time>2026-04-27T13:46:14.141Z</time></trkpt><trkpt lat="39.8694315" lon="21.5651914"><ele>597.0</ele><time>2026-04-27T13:46:15.141Z</time></trkpt><trkpt lat="39.8692858" lon="21.5652156"><ele>597.0</ele><time>2026-04-27T13:46:16.14Z</time></trkpt><trkpt lat="39.8691611" lon="21.5652571"><ele>597.0</ele><time>2026-04-27T13:46:17.141Z</time></trkpt><trkpt lat="39.8690474" lon="21.5653361"><ele>600.25</ele><time>2026-04-27T13:46:18.14Z</time></trkpt><trkpt lat="39.8689576" lon="21.5654733"><ele>603.5</ele><time>2026-04-27T13:46:19.14Z</time></trkpt><trkpt lat="39.8688841" lon="21.5656407"><ele>606.75</ele><time>2026-04-27T13:46:20.141Z</time></trkpt><trkpt lat="39.8688222" lon="21.5657995"><ele>610.0</ele><time>2026-04-27T13:46:21.14Z</time></trkpt><trkpt lat="39.8687476" lon="21.5659403"><ele>610.0</ele><time>2026-04-27T13:46:22.141Z</time></trkpt><trkpt lat="39.868673" lon="21.566077"><ele>610.0</ele><time>2026-04-27T13:46:23.141Z</time></trkpt><trkpt lat="39.8685075" lon="21.5660716"><ele>610.0</ele><time>2026-04-27T13:46:24.141Z</time></trkpt><trkpt lat="39.8683402" lon="21.5660825"><ele>607.0</ele><time>2026-04-27T13:46:25.141Z</time></trkpt><trkpt lat="39.8681838" lon="21.5660662"><ele>604.0</ele><time>2026-04-27T13:46:26.141Z</time></trkpt><trkpt lat="39.8680254" lon="21.5660553"><ele>601.0</ele><time>2026-04-27T13:46:27.141Z</time></trkpt><trkpt lat="39.8678847" lon="21.5660602"><ele>601.0</ele><time>2026-04-27T13:46:28.14Z</time></trkpt><trkpt lat="39.8677486" lon="21.5660912"><ele>601.0</ele><time>2026-04-27T13:46:29.14Z</time></trkpt><trkpt lat="39.8676163" lon="21.56618"><ele>601.0</ele><time>2026-04-27T13:46:30.141Z</time></trkpt><trkpt lat="39.8674923" lon="21.5663242"><ele>600.0</ele><time>2026-04-27T13:46:31.141Z</time></trkpt><trkpt lat="39.867361" lon="21.5665106"><ele>599.0</ele><time>2026-04-27T13:46:32.14Z</time></trkpt><trkpt lat="39.8672091" lon="21.5667291"><ele>598.0</ele><time>2026-04-27T13:46:33.14Z</time></trkpt><trkpt lat="39.8670564" lon="21.5669461"><ele>596.6666666666667</ele><time>2026-04-27T13:46:34.141Z</time></trkpt><trkpt lat="39.8669166" lon="21.5671626"><ele>595.3333333333334</ele><time>2026-04-27T13:46:35.14Z</time></trkpt><trkpt lat="39.866778" lon="21.5673711"><ele>594.0</ele><time>2026-04-27T13:46:36.141Z</time></trkpt><trkpt lat="39.8666534" lon="21.5675659"><ele>594.0</ele><time>2026-04-27T13:46:37.141Z</time></trkpt><trkpt lat="39.8665376" lon="21.567748"><ele>594.0</ele><time>2026-04-27T13:46:38.141Z</time></trkpt><trkpt lat="39.8664296" lon="21.5679639"><ele>594.0</ele><time>2026-04-27T13:46:39.14Z</time></trkpt><trkpt lat="39.8663232" lon="21.5681436"><ele>593.3333333333334</ele><time>2026-04-27T13:46:40.141Z</time></trkpt><trkpt lat="39.8662154" lon="21.5683212"><ele>592.6666666666667</ele><time>2026-04-27T13:46:41.141Z</time></trkpt><trkpt lat="39.8661064" lon="21.5684691"><ele>592.0</ele><time>2026-04-27T13:46:42.141Z</time></trkpt><trkpt lat="39.8659978" lon="21.5686011"><ele>588.5</ele><time>2026-04-27T13:46:43.141Z</time></trkpt><trkpt lat="39.8658708" lon="21.5686671"><ele>585.0</ele><time>2026-04-27T13:46:44.14Z</time></trkpt><trkpt lat="39.8657484" lon="21.5686788"><ele>581.5</ele><time>2026-04-27T13:46:45.141Z</time></trkpt><trkpt lat="39.8656179" lon="21.5686586"><ele>578.0</ele><time>2026-04-27T13:46:46.141Z</time></trkpt><trkpt lat="39.8654766" lon="21.568632"><ele>578.0</ele><time>2026-04-27T13:46:47.14Z</time></trkpt><trkpt lat="39.8653243" lon="21.5685935"><ele>578.0</ele><time>2026-04-27T13:46:48.141Z</time></trkpt><trkpt lat="39.8651679" lon="21.5685508"><ele>578.0</ele><time>2026-04-27T13:46:49.14Z</time></trkpt><trkpt lat="39.8650063" lon="21.568513"><ele>576.3333333333333</ele><time>2026-04-27T13:46:50.14Z</time></trkpt><trkpt lat="39.8648452" lon="21.5684831"><ele>574.6666666666666</ele><time>2026-04-27T13:46:51.141Z</time></trkpt><trkpt lat="39.8646844" lon="21.5684696"><ele>573.0</ele><time>2026-04-27T13:46:52.141Z</time></trkpt><trkpt lat="39.8645198" lon="21.5684762"><ele>573.0</ele><time>2026-04-27T13:46:53.141Z</time></trkpt><trkpt lat="39.8643553" lon="21.5685102"><ele>573.0</ele><time>2026-04-27T13:46:54.141Z</time></trkpt><trkpt lat="39.8641852" lon="21.5685662"><ele>573.0</ele><time>2026-04-27T13:46:55.141Z</time></trkpt><trkpt lat="39.8640207" lon="21.5686279"><ele>573.6666666666666</ele><time>2026-04-27T13:46:56.141Z</time></trkpt><trkpt lat="39.8638565" lon="21.5686986"><ele>574.3333333333333</ele><time>2026-04-27T13:46:57.14Z</time></trkpt><trkpt lat="39.8636902" lon="21.568788"><ele>575.0</ele><time>2026-04-27T13:46:58.141Z</time></trkpt><trkpt lat="39.8635341" lon="21.5688582"><ele>574.3333333333333</ele><time>2026-04-27T13:46:59.14Z</time></trkpt><trkpt lat="39.8633787" lon="21.5689213"><ele>573.6666666666666</ele><time>2026-04-27T13:47:00.14Z</time></trkpt><trkpt lat="39.8632305" lon="21.5690038"><ele>573.0</ele><time>2026-04-27T13:47:01.141Z</time></trkpt><trkpt lat="39.8630846" lon="21.5690764"><ele>573.0</ele><time>2026-04-27T13:47:02.14Z</time></trkpt><trkpt lat="39.8629348" lon="21.5691473"><ele>573.0</ele><time>2026-04-27T13:47:03.14Z</time></trkpt><trkpt lat="39.8627942" lon="21.5692103"><ele>573.0</ele><time>2026-04-27T13:47:04.141Z</time></trkpt><trkpt lat="39.8626476" lon="21.5692766"><ele>571.6666666666666</ele><time>2026-04-27T13:47:05.141Z</time></trkpt><trkpt lat="39.862506" lon="21.5693483"><ele>570.3333333333333</ele><time>2026-04-27T13:47:06.14Z</time></trkpt><trkpt lat="39.8623574" lon="21.5694262"><ele>569.0</ele><time>2026-04-27T13:47:07.141Z</time></trkpt><trkpt lat="39.8622056" lon="21.5695175"><ele>570.3333333333333</ele><time>2026-04-27T13:47:08.141Z</time></trkpt><trkpt lat="39.8620573" lon="21.5696151"><ele>571.6666666666666</ele><time>2026-04-27T13:47:09.141Z</time></trkpt><trkpt lat="39.8619129" lon="21.5697256"><ele>573.0</ele><time>2026-04-27T13:47:10.14Z</time></trkpt><trkpt lat="39.8617668" lon="21.5698416"><ele>573.0</ele><time>2026-04-27T13:47:11.141Z</time></trkpt><trkpt lat="39.8616217" lon="21.5699673"><ele>573.0</ele><time>2026-04-27T13:47:12.14Z</time></trkpt><trkpt lat="39.8614826" lon="21.5700936"><ele>573.0</ele><time>2026-04-27T13:47:13.141Z</time></trkpt><trkpt lat="39.8613346" lon="21.5702274"><ele>573.0</ele><time>2026-04-27T13:47:14.141Z</time></trkpt><trkpt lat="39.8611755" lon="21.5703547"><ele>573.0</ele><time>2026-04-27T13:47:15.141Z</time></trkpt><trkpt lat="39.8610066" lon="21.5704728"><ele>573.0</ele><time>2026-04-27T13:47:16.14Z</time></trkpt><trkpt lat="39.8608338" lon="21.5705783"><ele>572.3333333333334</ele><time>2026-04-27T13:47:17.14Z</time></trkpt><trkpt lat="39.8606535" lon="21.570668"><ele>571.6666666666667</ele><time>2026-04-27T13:47:18.141Z</time></trkpt><trkpt lat="39.8604661" lon="21.5707534"><ele>571.0</ele><time>2026-04-27T13:47:19.14Z</time></trkpt><trkpt lat="39.8602808" lon="21.5708318"><ele>568.6666666666667</ele><time>2026-04-27T13:47:20.14Z</time></trkpt><trkpt lat="39.8601023" lon="21.5709038"><ele>566.3333333333334</ele><time>2026-04-27T13:47:21.141Z</time></trkpt><trkpt lat="39.8599298" lon="21.5709752"><ele>564.0</ele><time>2026-04-27T13:47:22.141Z</time></trkpt><trkpt lat="39.8597622" lon="21.5710392"><ele>564.0</ele><time>2026-04-27T13:47:23.141Z</time></trkpt><trkpt lat="39.8596078" lon="21.5711073"><ele>564.0</ele><time>2026-04-27T13:47:24.141Z</time></trkpt><trkpt lat="39.8594483" lon="21.5711727"><ele>564.0</ele><time>2026-04-27T13:47:25.141Z</time></trkpt><trkpt lat="39.8592893" lon="21.571217"><ele>559.6666666666666</ele><time>2026-04-27T13:47:26.141Z</time></trkpt><trkpt lat="39.8591283" lon="21.5712744"><ele>555.3333333333333</ele><time>2026-04-27T13:47:27.14Z</time></trkpt><trkpt lat="39.8589644" lon="21.571331"><ele>551.0</ele><time>2026-04-27T13:47:28.14Z</time></trkpt><trkpt lat="39.8588082" lon="21.5713873"><ele>551.0</ele><time>2026-04-27T13:47:29.141Z</time></trkpt><trkpt lat="39.8586525" lon="21.5714509"><ele>551.0</ele><time>2026-04-27T13:47:30.141Z</time></trkpt><trkpt lat="39.8585056" lon="21.5715428"><ele>551.0</ele><time>2026-04-27T13:47:31.141Z</time></trkpt><trkpt lat="39.8583542" lon="21.5716308"><ele>550.0</ele><time>2026-04-27T13:47:32.141Z</time></trkpt><trkpt lat="39.8582126" lon="21.5717223"><ele>549.0</ele><time>2026-04-27T13:47:33.14Z</time></trkpt><trkpt lat="39.8580733" lon="21.5718079"><ele>548.0</ele><time>2026-04-27T13:47:34.141Z</time></trkpt><trkpt lat="39.8579419" lon="21.5718838"><ele>548.0</ele><time>2026-04-27T13:47:35.14Z</time></trkpt><trkpt lat="39.8578134" lon="21.5719525"><ele>548.0</ele><time>2026-04-27T13:47:36.141Z</time></trkpt><trkpt lat="39.8576765" lon="21.5719906"><ele>548.0</ele><time>2026-04-27T13:47:37.14Z</time></trkpt><trkpt lat="39.8575474" lon="21.571981"><ele>548.0</ele><time>2026-04-27T13:47:38.14Z</time></trkpt><trkpt lat="39.8574082" lon="21.5719283"><ele>546.6666666666666</ele><time>2026-04-27T13:47:39.14Z</time></trkpt><trkpt lat="39.8572551" lon="21.5718359"><ele>545.3333333333334</ele><time>2026-04-27T13:47:40.141Z</time></trkpt><trkpt lat="39.8570947" lon="21.5717144"><ele>544.0</ele><time>2026-04-27T13:47:41.141Z</time></trkpt><trkpt lat="39.8569366" lon="21.5716063"><ele>541.6666666666667</ele><time>2026-04-27T13:47:42.14Z</time></trkpt><trkpt lat="39.8567756" lon="21.571506"><ele>539.3333333333334</ele><time>2026-04-27T13:47:43.14Z</time></trkpt><trkpt lat="39.8566178" lon="21.5714148"><ele>537.0</ele><time>2026-04-27T13:47:44.14Z</time></trkpt><trkpt lat="39.8564678" lon="21.5713267"><ele>537.0</ele><time>2026-04-27T13:47:45.141Z</time></trkpt><trkpt lat="39.8563228" lon="21.57125"><ele>537.0</ele><time>2026-04-27T13:47:46.14Z</time></trkpt><trkpt lat="39.8561785" lon="21.5711775"><ele>537.0</ele><time>2026-04-27T13:47:47.14Z</time></trkpt><trkpt lat="39.8560372" lon="21.5711095"><ele>537.0</ele><time>2026-04-27T13:47:48.14Z</time></trkpt><trkpt lat="39.8558972" lon="21.5710433"><ele>537.0</ele><time>2026-04-27T13:47:49.141Z</time></trkpt><trkpt lat="39.8557523" lon="21.5709751"><ele>537.0</ele><time>2026-04-27T13:47:50.14Z</time></trkpt><trkpt lat="39.8556092" lon="21.570902"><ele>537.0</ele><time>2026-04-27T13:47:51.141Z</time></trkpt><trkpt lat="39.8554623" lon="21.5708281"><ele>537.0</ele><time>2026-04-27T13:47:52.14Z</time></trkpt><trkpt lat="39.8553136" lon="21.5707526"><ele>537.0</ele><time>2026-04-27T13:47:53.14Z</time></trkpt><trkpt lat="39.855167" lon="21.5706805"><ele>532.3333333333334</ele><time>2026-04-27T13:47:54.141Z</time></trkpt><trkpt lat="39.8550201" lon="21.5706013"><ele>527.6666666666667</ele><time>2026-04-27T13:47:55.14Z</time></trkpt><trkpt lat="39.8548705" lon="21.5705275"><ele>523.0</ele><time>2026-04-27T13:47:56.14Z</time></trkpt><trkpt lat="39.8547211" lon="21.5704785"><ele>523.0</ele><time>2026-04-27T13:47:57.141Z</time></trkpt><trkpt lat="39.854568" lon="21.5704414"><ele>523.0</ele><time>2026-04-27T13:47:58.14Z</time></trkpt><trkpt lat="39.8544135" lon="21.5704271"><ele>523.0</ele><time>2026-04-27T13:47:59.14Z</time></trkpt><trkpt lat="39.8542529" lon="21.5704428"><ele>519.3333333333334</ele><time>2026-04-27T13:48:00.141Z</time></trkpt><trkpt lat="39.8540883" lon="21.5704635"><ele>515.6666666666666</ele><time>2026-04-27T13:48:01.141Z</time></trkpt><trkpt lat="39.8539161" lon="21.5705227"><ele>512.0</ele><time>2026-04-27T13:48:02.141Z</time></trkpt><trkpt lat="39.8537444" lon="21.5705596"><ele>512.0</ele><time>2026-04-27T13:48:03.14Z</time></trkpt><trkpt lat="39.8535717" lon="21.5705772"><ele>512.0</ele><time>2026-04-27T13:48:04.141Z</time></trkpt><trkpt lat="39.8533982" lon="21.5705852"><ele>512.0</ele><time>2026-04-27T13:48:05.14Z</time></trkpt><trkpt lat="39.8532266" lon="21.5705703"><ele>510.3333333333333</ele><time>2026-04-27T13:48:06.141Z</time></trkpt><trkpt lat="39.8530432" lon="21.5705531"><ele>508.66666666666663</ele><time>2026-04-27T13:48:07.141Z</time></trkpt><trkpt lat="39.8528498" lon="21.5705185"><ele>507.0</ele><time>2026-04-27T13:48:08.14Z</time></trkpt><trkpt lat="39.8526509" lon="21.5704828"><ele>504.0</ele><time>2026-04-27T13:48:09.14Z</time></trkpt><trkpt lat="39.8524544" lon="21.5704431"><ele>501.0</ele><time>2026-04-27T13:48:10.141Z</time></trkpt><trkpt lat="39.8522642" lon="21.5704075"><ele>498.0</ele><time>2026-04-27T13:48:11.141Z</time></trkpt><trkpt lat="39.8520692" lon="21.5703643"><ele>496.0</ele><time>2026-04-27T13:48:12.141Z</time></trkpt><trkpt lat="39.8518751" lon="21.5703547"><ele>494.0</ele><time>2026-04-27T13:48:13.14Z</time></trkpt><trkpt lat="39.8516888" lon="21.5703589"><ele>492.0</ele><time>2026-04-27T13:48:14.14Z</time></trkpt><trkpt lat="39.8515067" lon="21.5703834"><ele>492.0</ele><time>2026-04-27T13:48:15.141Z</time></trkpt><trkpt lat="39.8513346" lon="21.5704202"><ele>492.0</ele><time>2026-04-27T13:48:16.14Z</time></trkpt><trkpt lat="39.8511579" lon="21.570493"><ele>492.0</ele><time>2026-04-27T13:48:17.14Z</time></trkpt><trkpt lat="39.8509792" lon="21.57059"><ele>491.0</ele><time>2026-04-27T13:48:18.14Z</time></trkpt><trkpt lat="39.8507938" lon="21.5707065"><ele>490.0</ele><time>2026-04-27T13:48:19.14Z</time></trkpt><trkpt lat="39.8506034" lon="21.5708363"><ele>489.0</ele><time>2026-04-27T13:48:20.141Z</time></trkpt><trkpt lat="39.8504104" lon="21.570969"><ele>489.0</ele><time>2026-04-27T13:48:21.141Z</time></trkpt><trkpt lat="39.8502155" lon="21.5711077"><ele>489.0</ele><time>2026-04-27T13:48:22.141Z</time></trkpt><trkpt lat="39.8500282" lon="21.5712466"><ele>489.0</ele><time>2026-04-27T13:48:23.14Z</time></trkpt><trkpt lat="39.8498512" lon="21.57139"><ele>487.33333333333337</ele><time>2026-04-27T13:48:24.141Z</time></trkpt><trkpt lat="39.8496846" lon="21.5715371"><ele>485.6666666666667</ele><time>2026-04-27T13:48:25.141Z</time></trkpt><trkpt lat="39.8495214" lon="21.5716807"><ele>484.0</ele><time>2026-04-27T13:48:26.14Z</time></trkpt><trkpt lat="39.8493612" lon="21.5718179"><ele>485.0</ele><time>2026-04-27T13:48:27.141Z</time></trkpt><trkpt lat="39.8492016" lon="21.5719557"><ele>486.0</ele><time>2026-04-27T13:48:28.141Z</time></trkpt><trkpt lat="39.8490434" lon="21.5720891"><ele>487.0</ele><time>2026-04-27T13:48:29.14Z</time></trkpt><trkpt lat="39.8488931" lon="21.5722249"><ele>484.6666666666667</ele><time>2026-04-27T13:48:30.14Z</time></trkpt><trkpt lat="39.8487501" lon="21.5723597"><ele>482.33333333333337</ele><time>2026-04-27T13:48:31.14Z</time></trkpt><trkpt lat="39.848599" lon="21.5725005"><ele>480.0</ele><time>2026-04-27T13:48:32.14Z</time></trkpt><trkpt lat="39.8484534" lon="21.5726292"><ele>480.0</ele><time>2026-04-27T13:48:33.141Z</time></trkpt><trkpt lat="39.8483129" lon="21.5727596"><ele>480.0</ele><time>2026-04-27T13:48:34.141Z</time></trkpt><trkpt lat="39.8481735" lon="21.5728839"><ele>480.0</ele><time>2026-04-27T13:48:35.14Z</time></trkpt><trkpt lat="39.8480407" lon="21.5730059"><ele>476.66666666666663</ele><time>2026-04-27T13:48:36.141Z</time></trkpt><trkpt lat="39.8479094" lon="21.5731252"><ele>473.3333333333333</ele><time>2026-04-27T13:48:37.14Z</time></trkpt><trkpt lat="39.847783" lon="21.5732313"><ele>470.0</ele><time>2026-04-27T13:48:38.141Z</time></trkpt><trkpt lat="39.847656" lon="21.5733353"><ele>470.75</ele><time>2026-04-27T13:48:39.141Z</time></trkpt><trkpt lat="39.8475244" lon="21.5734021"><ele>471.5</ele><time>2026-04-27T13:48:40.141Z</time></trkpt><trkpt lat="39.8473958" lon="21.5734312"><ele>472.25</ele><time>2026-04-27T13:48:41.14Z</time></trkpt><trkpt lat="39.8472457" lon="21.5734332"><ele>473.0</ele><time>2026-04-27T13:48:42.14Z</time></trkpt><trkpt lat="39.8470846" lon="21.5734131"><ele>473.0</ele><time>2026-04-27T13:48:43.141Z</time></trkpt><trkpt lat="39.8469239" lon="21.5733831"><ele>473.0</ele><time>2026-04-27T13:48:44.141Z</time></trkpt><trkpt lat="39.8467576" lon="21.5733603"><ele>473.0</ele><time>2026-04-27T13:48:45.14Z</time></trkpt><trkpt lat="39.8466002" lon="21.5733225"><ele>470.3333333333333</ele><time>2026-04-27T13:48:46.141Z</time></trkpt><trkpt lat="39.8464495" lon="21.5732882"><ele>467.66666666666663</ele><time>2026-04-27T13:48:47.141Z</time></trkpt><trkpt lat="39.846293" lon="21.5732668"><ele>465.0</ele><time>2026-04-27T13:48:48.14Z</time></trkpt><trkpt lat="39.8461305" lon="21.5732544"><ele>465.0</ele><time>2026-04-27T13:48:49.141Z</time></trkpt><trkpt lat="39.8459734" lon="21.5732607"><ele>465.0</ele><time>2026-04-27T13:48:50.141Z</time></trkpt><trkpt lat="39.8458087" lon="21.5733197"><ele>465.0</ele><time>2026-04-27T13:48:51.141Z</time></trkpt><trkpt lat="39.8456447" lon="21.5733972"><ele>462.66666666666663</ele><time>2026-04-27T13:48:52.141Z</time></trkpt><trkpt lat="39.8454764" lon="21.5735057"><ele>460.3333333333333</ele><time>2026-04-27T13:48:53.141Z</time></trkpt><trkpt lat="39.8453163" lon="21.5736107"><ele>458.0</ele><time>2026-04-27T13:48:54.141Z</time></trkpt><trkpt lat="39.8451625" lon="21.573714"><ele>453.0</ele><time>2026-04-27T13:48:55.14Z</time></trkpt><trkpt lat="39.8450088" lon="21.5738083"><ele>448.0</ele><time>2026-04-27T13:48:56.141Z</time></trkpt><trkpt lat="39.8448565" lon="21.5738966"><ele>443.0</ele><time>2026-04-27T13:48:57.14Z</time></trkpt><trkpt lat="39.8447061" lon="21.5739853"><ele>443.0</ele><time>2026-04-27T13:48:58.141Z</time></trkpt><trkpt lat="39.8445397" lon="21.5740671"><ele>443.0</ele><time>2026-04-27T13:48:59.14Z</time></trkpt><trkpt lat="39.8443612" lon="21.5741405"><ele>443.0</ele><time>2026-04-27T13:49:00.141Z</time></trkpt><trkpt lat="39.8441444" lon="21.5741852"><ele>442.3333333333333</ele><time>2026-04-27T13:49:01.141Z</time></trkpt><trkpt lat="39.8439397" lon="21.5742241"><ele>441.66666666666663</ele><time>2026-04-27T13:49:02.14Z</time></trkpt><trkpt lat="39.8437458" lon="21.5742522"><ele>441.0</ele><time>2026-04-27T13:49:03.141Z</time></trkpt><trkpt lat="39.843562" lon="21.5742737"><ele>440.0</ele><time>2026-04-27T13:49:04.14Z</time></trkpt><trkpt lat="39.8433874" lon="21.5743292"><ele>439.0</ele><time>2026-04-27T13:49:05.14Z</time></trkpt><trkpt lat="39.8432198" lon="21.5743494"><ele>438.0</ele><time>2026-04-27T13:49:06.141Z</time></trkpt><trkpt lat="39.8430632" lon="21.574356"><ele>438.0</ele><time>2026-04-27T13:49:07.141Z</time></trkpt><trkpt lat="39.842913" lon="21.5743238"><ele>438.0</ele><time>2026-04-27T13:49:08.14Z</time></trkpt><trkpt lat="39.8427652" lon="21.5742573"><ele>438.0</ele><time>2026-04-27T13:49:09.14Z</time></trkpt><trkpt lat="39.8426202" lon="21.5741779"><ele>435.33333333333337</ele><time>2026-04-27T13:49:10.14Z</time></trkpt><trkpt lat="39.842472" lon="21.5740866"><ele>432.6666666666667</ele><time>2026-04-27T13:49:11.14Z</time></trkpt><trkpt lat="39.8423219" lon="21.5740139"><ele>430.0</ele><time>2026-04-27T13:49:12.14Z</time></trkpt><trkpt lat="39.8421726" lon="21.5739657"><ele>430.0</ele><time>2026-04-27T13:49:13.141Z</time></trkpt><trkpt lat="39.8420137" lon="21.5739243"><ele>430.0</ele><time>2026-04-27T13:49:14.141Z</time></trkpt><trkpt lat="39.8418555" lon="21.5739102"><ele>430.0</ele><time>2026-04-27T13:49:15.14Z</time></trkpt><trkpt lat="39.8416912" lon="21.5739005"><ele>427.5</ele><time>2026-04-27T13:49:16.14Z</time></trkpt><trkpt lat="39.8415341" lon="21.5738919"><ele>425.0</ele><time>2026-04-27T13:49:17.14Z</time></trkpt><trkpt lat="39.8413782" lon="21.5738819"><ele>422.5</ele><time>2026-04-27T13:49:18.14Z</time></trkpt><trkpt lat="39.8412486" lon="21.5738691"><ele>420.0</ele><time>2026-04-27T13:49:19.141Z</time></trkpt><trkpt lat="39.8411359" lon="21.5738353"><ele>420.0</ele><time>2026-04-27T13:49:20.14Z</time></trkpt><trkpt lat="39.8410468" lon="21.5737981"><ele>420.0</ele><time>2026-04-27T13:49:21.141Z</time></trkpt><trkpt lat="39.8409676" lon="21.5737146"><ele>420.0</ele><time>2026-04-27T13:49:22.141Z</time></trkpt><trkpt lat="39.8409217" lon="21.5735993"><ele>420.0</ele><time>2026-04-27T13:49:23.141Z</time></trkpt><trkpt lat="39.8408871" lon="21.5734732"><ele>420.0</ele><time>2026-04-27T13:49:24.14Z</time></trkpt><trkpt lat="39.8408779" lon="21.5733456"><ele>419.25</ele><time>2026-04-27T13:49:25.141Z</time></trkpt><trkpt lat="39.8409051" lon="21.5731458"><ele>418.5</ele><time>2026-04-27T13:49:26.14Z</time></trkpt><trkpt lat="39.8409233" lon="21.5729856"><ele>417.75</ele><time>2026-04-27T13:49:27.141Z</time></trkpt><trkpt lat="39.8409318" lon="21.5728288"><ele>417.0</ele><time>2026-04-27T13:49:28.14Z</time></trkpt><trkpt lat="39.8409092" lon="21.5726866"><ele>416.8</ele><time>2026-04-27T13:49:29.14Z</time></trkpt><trkpt lat="39.8408623" lon="21.5725729"><ele>416.6</ele><time>2026-04-27T13:49:30.14Z</time></trkpt><trkpt lat="39.8407835" lon="21.5724831"><ele>416.40000000000003</ele><time>2026-04-27T13:49:31.14Z</time></trkpt><trkpt lat="39.84069" lon="21.5724426"><ele>416.20000000000005</ele><time>2026-04-27T13:49:32.14Z</time></trkpt><trkpt lat="39.8405785" lon="21.5724534"><ele>416.0</ele><time>2026-04-27T13:49:33.141Z</time></trkpt><trkpt lat="39.84046" lon="21.5725211"><ele>416.0</ele><time>2026-04-27T13:49:34.141Z</time></trkpt><trkpt lat="39.8403071" lon="21.5726386"><ele>416.0</ele><time>2026-04-27T13:49:35.14Z</time></trkpt><trkpt lat="39.8401299" lon="21.5727743"><ele>416.0</ele><time>2026-04-27T13:49:36.141Z</time></trkpt><trkpt lat="39.8398904" lon="21.5729317"><ele>407.5</ele><time>2026-04-27T13:49:37.141Z</time></trkpt><trkpt lat="39.8396867" lon="21.5730784"><ele>399.0</ele><time>2026-04-27T13:49:38.141Z</time></trkpt><trkpt lat="39.8394835" lon="21.573227"><ele>399.0</ele><time>2026-04-27T13:49:39.14Z</time></trkpt><trkpt lat="39.8392915" lon="21.573373"><ele>399.0</ele><time>2026-04-27T13:49:40.14Z</time></trkpt><trkpt lat="39.839098" lon="21.5735199"><ele>399.0</ele><time>2026-04-27T13:49:41.14Z</time></trkpt><trkpt lat="39.8389054" lon="21.5736665"><ele>386.0</ele><time>2026-04-27T13:49:42.141Z</time></trkpt><trkpt lat="39.8384635" lon="21.573819"><ele>386.0</ele><time>2026-04-27T13:49:45.141Z</time></trkpt><trkpt lat="39.8383194" lon="21.5737391"><ele>386.0</ele><time>2026-04-27T13:49:46.141Z</time></trkpt><trkpt lat="39.8379527" lon="21.5732996"><ele>386.0</ele><time>2026-04-27T13:49:47.141Z</time></trkpt><trkpt lat="39.8377461" lon="21.5731885"><ele>386.0</ele><time>2026-04-27T13:49:48.14Z</time></trkpt><trkpt lat="39.8375228" lon="21.5730502"><ele>386.0</ele><time>2026-04-27T13:49:49.141Z</time></trkpt><trkpt lat="39.837284" lon="21.5728936"><ele>386.0</ele><time>2026-04-27T13:49:50.14Z</time></trkpt><trkpt lat="39.8370267" lon="21.5727279"><ele>384.0</ele><time>2026-04-27T13:49:51.141Z</time></trkpt><trkpt lat="39.8367699" lon="21.5725572"><ele>382.0</ele><time>2026-04-27T13:49:52.141Z</time></trkpt><trkpt lat="39.8365072" lon="21.57237"><ele>382.0</ele><time>2026-04-27T13:49:53.141Z</time></trkpt><trkpt lat="39.8362506" lon="21.5721804"><ele>382.0</ele><time>2026-04-27T13:49:54.14Z</time></trkpt><trkpt lat="39.8359994" lon="21.5720072"><ele>380.5</ele><time>2026-04-27T13:49:55.141Z</time></trkpt><trkpt lat="39.8357886" lon="21.5719012"><ele>379.0</ele><time>2026-04-27T13:49:56.141Z</time></trkpt><trkpt lat="39.8355302" lon="21.5717215"><ele>379.0</ele><time>2026-04-27T13:49:57.141Z</time></trkpt><trkpt lat="39.8352752" lon="21.5715436"><ele>379.0</ele><time>2026-04-27T13:49:58.141Z</time></trkpt><trkpt lat="39.8350337" lon="21.5713598"><ele>379.5</ele><time>2026-04-27T13:49:59.14Z</time></trkpt><trkpt lat="39.8347912" lon="21.5711867"><ele>380.0</ele><time>2026-04-27T13:50:00.141Z</time></trkpt><trkpt lat="39.8345442" lon="21.5710169"><ele>377.0</ele><time>2026-04-27T13:50:01.14Z</time></trkpt><trkpt lat="39.8343001" lon="21.5708706"><ele>374.0</ele><time>2026-04-27T13:50:02.14Z</time></trkpt><trkpt lat="39.8340544" lon="21.5707024"><ele>374.0</ele><time>2026-04-27T13:50:03.141Z</time></trkpt><trkpt lat="39.8338169" lon="21.5705323"><ele>374.0</ele><time>2026-04-27T13:50:04.141Z</time></trkpt><trkpt lat="39.8335673" lon="21.5703962"><ele>374.0</ele><time>2026-04-27T13:50:05.14Z</time></trkpt><trkpt lat="39.8333286" lon="21.570232"><ele>374.0</ele><time>2026-04-27T13:50:06.14Z</time></trkpt><trkpt lat="39.8330923" lon="21.5700646"><ele>374.0</ele><time>2026-04-27T13:50:07.14Z</time></trkpt><trkpt lat="39.8328498" lon="21.5698997"><ele>374.0</ele><time>2026-04-27T13:50:08.141Z</time></trkpt><trkpt lat="39.8325964" lon="21.5697316"><ele>373.5</ele><time>2026-04-27T13:50:09.141Z</time></trkpt><trkpt lat="39.8323372" lon="21.5695793"><ele>373.0</ele><time>2026-04-27T13:50:10.141Z</time></trkpt><trkpt lat="39.832077" lon="21.5694341"><ele>373.0</ele><time>2026-04-27T13:50:11.14Z</time></trkpt><trkpt lat="39.8318195" lon="21.5692981"><ele>373.0</ele><time>2026-04-27T13:50:12.141Z</time></trkpt><trkpt lat="39.8315667" lon="21.5691653"><ele>373.0</ele><time>2026-04-27T13:50:13.14Z</time></trkpt><trkpt lat="39.8313117" lon="21.5690286"><ele>373.0</ele><time>2026-04-27T13:50:14.14Z</time></trkpt><trkpt lat="39.8310596" lon="21.5688919"><ele>374.0</ele><time>2026-04-27T13:50:15.141Z</time></trkpt><trkpt lat="39.8308073" lon="21.5687565"><ele>375.0</ele><time>2026-04-27T13:50:16.141Z</time></trkpt><trkpt lat="39.8305539" lon="21.5686137"><ele>375.0</ele><time>2026-04-27T13:50:17.141Z</time></trkpt><trkpt lat="39.8303022" lon="21.5684502"><ele>375.0</ele><time>2026-04-27T13:50:18.14Z</time></trkpt><trkpt lat="39.8300443" lon="21.5683052"><ele>372.0</ele><time>2026-04-27T13:50:19.14Z</time></trkpt><trkpt lat="39.8297826" lon="21.5681579"><ele>369.0</ele><time>2026-04-27T13:50:20.14Z</time></trkpt><trkpt lat="39.8295202" lon="21.5680102"><ele>369.0</ele><time>2026-04-27T13:50:21.141Z</time></trkpt><trkpt lat="39.8292588" lon="21.5678623"><ele>369.0</ele><time>2026-04-27T13:50:22.141Z</time></trkpt><trkpt lat="39.8289984" lon="21.5677163"><ele>369.0</ele><time>2026-04-27T13:50:23.14Z</time></trkpt><trkpt lat="39.8287458" lon="21.5675721"><ele>369.0</ele><time>2026-04-27T13:50:24.14Z</time></trkpt><trkpt lat="39.8284888" lon="21.5674315"><ele>363.5</ele><time>2026-04-27T13:50:25.14Z</time></trkpt><trkpt lat="39.8282438" lon="21.5672891"><ele>358.0</ele><time>2026-04-27T13:50:26.141Z</time></trkpt><trkpt lat="39.8280132" lon="21.5671459"><ele>360.0</ele><time>2026-04-27T13:50:27.14Z</time></trkpt><trkpt lat="39.8278031" lon="21.5670103"><ele>362.0</ele><time>2026-04-27T13:50:28.14Z</time></trkpt><trkpt lat="39.8276133" lon="21.5668617"><ele>362.0</ele><time>2026-04-27T13:50:29.141Z</time></trkpt><trkpt lat="39.8274284" lon="21.5666947"><ele>362.0</ele><time>2026-04-27T13:50:30.141Z</time></trkpt><trkpt lat="39.8272572" lon="21.5665214"><ele>362.0</ele><time>2026-04-27T13:50:31.141Z</time></trkpt><trkpt lat="39.8270763" lon="21.5663166"><ele>364.0</ele><time>2026-04-27T13:50:32.14Z</time></trkpt><trkpt lat="39.8268963" lon="21.5661255"><ele>366.0</ele><time>2026-04-27T13:50:33.14Z</time></trkpt><trkpt lat="39.826722" lon="21.5659316"><ele>366.0</ele><time>2026-04-27T13:50:34.14Z</time></trkpt><trkpt lat="39.826546" lon="21.5657487"><ele>366.0</ele><time>2026-04-27T13:50:35.141Z</time></trkpt><trkpt lat="39.826375" lon="21.5655525"><ele>366.0</ele><time>2026-04-27T13:50:36.14Z</time></trkpt><trkpt lat="39.8261983" lon="21.565369"><ele>366.0</ele><time>2026-04-27T13:50:37.141Z</time></trkpt><trkpt lat="39.8260332" lon="21.5651851"><ele>366.0</ele><time>2026-04-27T13:50:38.141Z</time></trkpt><trkpt lat="39.8258687" lon="21.5649994"><ele>366.6666666666667</ele><time>2026-04-27T13:50:39.141Z</time></trkpt><trkpt lat="39.8257037" lon="21.5648085"><ele>367.33333333333337</ele><time>2026-04-27T13:50:40.14Z</time></trkpt><trkpt lat="39.8255407" lon="21.5646132"><ele>368.0</ele><time>2026-04-27T13:50:41.14Z</time></trkpt><trkpt lat="39.8253797" lon="21.5644247"><ele>368.0</ele><time>2026-04-27T13:50:42.141Z</time></trkpt><trkpt lat="39.8252156" lon="21.5642333"><ele>368.0</ele><time>2026-04-27T13:50:43.14Z</time></trkpt><trkpt lat="39.8250517" lon="21.5640404"><ele>368.0</ele><time>2026-04-27T13:50:44.14Z</time></trkpt><trkpt lat="39.8248793" lon="21.5638482"><ele>364.5</ele><time>2026-04-27T13:50:45.14Z</time></trkpt><trkpt lat="39.8247056" lon="21.5636633"><ele>361.0</ele><time>2026-04-27T13:50:46.14Z</time></trkpt><trkpt lat="39.8245299" lon="21.5634668"><ele>361.0</ele><time>2026-04-27T13:50:47.14Z</time></trkpt><trkpt lat="39.8243661" lon="21.5632704"><ele>361.0</ele><time>2026-04-27T13:50:48.14Z</time></trkpt><trkpt lat="39.8241977" lon="21.5630764"><ele>361.0</ele><time>2026-04-27T13:50:49.14Z</time></trkpt><trkpt lat="39.8240153" lon="21.5628882"><ele>358.5</ele><time>2026-04-27T13:50:50.14Z</time></trkpt><trkpt lat="39.8238288" lon="21.5627074"><ele>356.0</ele><time>2026-04-27T13:50:51.14Z</time></trkpt><trkpt lat="39.8236463" lon="21.5625214"><ele>356.0</ele><time>2026-04-27T13:50:52.14Z</time></trkpt><trkpt lat="39.8234739" lon="21.5623292"><ele>356.0</ele><time>2026-04-27T13:50:53.141Z</time></trkpt><trkpt lat="39.8233099" lon="21.5621471"><ele>356.0</ele><time>2026-04-27T13:50:54.14Z</time></trkpt><trkpt lat="39.8231543" lon="21.5619695"><ele>356.33333333333337</ele><time>2026-04-27T13:50:55.141Z</time></trkpt><trkpt lat="39.8230028" lon="21.5617883"><ele>356.6666666666667</ele><time>2026-04-27T13:50:56.14Z</time></trkpt><trkpt lat="39.8228444" lon="21.5616181"><ele>357.0</ele><time>2026-04-27T13:50:57.14Z</time></trkpt><trkpt lat="39.8226747" lon="21.5614287"><ele>353.5</ele><time>2026-04-27T13:50:58.14Z</time></trkpt><trkpt lat="39.8224984" lon="21.5612308"><ele>350.0</ele><time>2026-04-27T13:50:59.14Z</time></trkpt><trkpt lat="39.8223122" lon="21.5610164"><ele>350.0</ele><time>2026-04-27T13:51:00.141Z</time></trkpt><trkpt lat="39.8221235" lon="21.5608014"><ele>350.0</ele><time>2026-04-27T13:51:01.14Z</time></trkpt><trkpt lat="39.8219289" lon="21.5605865"><ele>349.5</ele><time>2026-04-27T13:51:02.14Z</time></trkpt><trkpt lat="39.8217379" lon="21.5603758"><ele>349.0</ele><time>2026-04-27T13:51:03.141Z</time></trkpt><trkpt lat="39.8215461" lon="21.5601761"><ele>349.0</ele><time>2026-04-27T13:51:04.141Z</time></trkpt><trkpt lat="39.8213507" lon="21.5599694"><ele>349.0</ele><time>2026-04-27T13:51:05.141Z</time></trkpt><trkpt lat="39.8211561" lon="21.5597632"><ele>346.0</ele><time>2026-04-27T13:51:06.141Z</time></trkpt><trkpt lat="39.8209683" lon="21.5595495"><ele>343.0</ele><time>2026-04-27T13:51:07.14Z</time></trkpt><trkpt lat="39.8207846" lon="21.5593359"><ele>343.0</ele><time>2026-04-27T13:51:08.14Z</time></trkpt><trkpt lat="39.8205986" lon="21.5591349"><ele>343.0</ele><time>2026-04-27T13:51:09.141Z</time></trkpt><trkpt lat="39.8204144" lon="21.5589223"><ele>343.0</ele><time>2026-04-27T13:51:10.14Z</time></trkpt><trkpt lat="39.8202316" lon="21.5587158"><ele>343.0</ele><time>2026-04-27T13:51:11.14Z</time></trkpt><trkpt lat="39.8200457" lon="21.558506"><ele>339.5</ele><time>2026-04-27T13:51:12.141Z</time></trkpt><trkpt lat="39.8198674" lon="21.5583079"><ele>336.0</ele><time>2026-04-27T13:51:13.141Z</time></trkpt><trkpt lat="39.8196827" lon="21.5581025"><ele>336.0</ele><time>2026-04-27T13:51:14.14Z</time></trkpt><trkpt lat="39.819505" lon="21.5578899"><ele>336.0</ele><time>2026-04-27T13:51:15.141Z</time></trkpt><trkpt lat="39.8193192" lon="21.5576731"><ele>335.0</ele><time>2026-04-27T13:51:16.14Z</time></trkpt><trkpt lat="39.8191371" lon="21.5574625"><ele>334.0</ele><time>2026-04-27T13:51:17.141Z</time></trkpt><trkpt lat="39.8189504" lon="21.5572506"><ele>334.0</ele><time>2026-04-27T13:51:18.14Z</time></trkpt><trkpt lat="39.8187576" lon="21.5570296"><ele>334.0</ele><time>2026-04-27T13:51:19.14Z</time></trkpt><trkpt lat="39.8185689" lon="21.5568046"><ele>334.0</ele><time>2026-04-27T13:51:20.141Z</time></trkpt><trkpt lat="39.8183775" lon="21.5565942"><ele>334.0</ele><time>2026-04-27T13:51:21.14Z</time></trkpt><trkpt lat="39.818187" lon="21.5563764"><ele>333.5</ele><time>2026-04-27T13:51:22.141Z</time></trkpt><trkpt lat="39.817986" lon="21.5561566"><ele>333.0</ele><time>2026-04-27T13:51:23.14Z</time></trkpt><trkpt lat="39.8177914" lon="21.5559349"><ele>331.5</ele><time>2026-04-27T13:51:24.141Z</time></trkpt><trkpt lat="39.8175893" lon="21.5557109"><ele>330.0</ele><time>2026-04-27T13:51:25.141Z</time></trkpt><trkpt lat="39.8173931" lon="21.5554938"><ele>330.5</ele><time>2026-04-27T13:51:26.14Z</time></trkpt><trkpt lat="39.8171834" lon="21.555279"><ele>331.0</ele><time>2026-04-27T13:51:27.14Z</time></trkpt><trkpt lat="39.8169853" lon="21.5550675"><ele>330.5</ele><time>2026-04-27T13:51:28.14Z</time></trkpt><trkpt lat="39.8167839" lon="21.5548496"><ele>330.0</ele><time>2026-04-27T13:51:29.141Z</time></trkpt><trkpt lat="39.8165938" lon="21.554638"><ele>330.0</ele><time>2026-04-27T13:51:30.14Z</time></trkpt><trkpt lat="39.8164015" lon="21.55442"><ele>330.0</ele><time>2026-04-27T13:51:31.141Z</time></trkpt><trkpt lat="39.8161989" lon="21.5541989"><ele>330.0</ele><time>2026-04-27T13:51:32.141Z</time></trkpt><trkpt lat="39.815996" lon="21.5539784"><ele>330.0</ele><time>2026-04-27T13:51:33.141Z</time></trkpt><trkpt lat="39.8158023" lon="21.5537585"><ele>328.5</ele><time>2026-04-27T13:51:34.14Z</time></trkpt><trkpt lat="39.8156072" lon="21.5535392"><ele>327.0</ele><time>2026-04-27T13:51:35.141Z</time></trkpt><trkpt lat="39.8154082" lon="21.5533179"><ele>327.0</ele><time>2026-04-27T13:51:36.14Z</time></trkpt><trkpt lat="39.8152154" lon="21.5531022"><ele>327.0</ele><time>2026-04-27T13:51:37.141Z</time></trkpt><trkpt lat="39.8150243" lon="21.5528858"><ele>326.0</ele><time>2026-04-27T13:51:38.14Z</time></trkpt><trkpt lat="39.8148343" lon="21.5526682"><ele>325.0</ele><time>2026-04-27T13:51:39.141Z</time></trkpt><trkpt lat="39.8146367" lon="21.5524518"><ele>325.0</ele><time>2026-04-27T13:51:40.14Z</time></trkpt><trkpt lat="39.8144412" lon="21.552242"><ele>325.0</ele><time>2026-04-27T13:51:41.14Z</time></trkpt><trkpt lat="39.8142564" lon="21.5520248"><ele>324.5</ele><time>2026-04-27T13:51:42.14Z</time></trkpt><trkpt lat="39.8140705" lon="21.5518186"><ele>324.0</ele><time>2026-04-27T13:51:43.14Z</time></trkpt><trkpt lat="39.8138899" lon="21.5516153"><ele>324.0</ele><time>2026-04-27T13:51:44.141Z</time></trkpt><trkpt lat="39.8137207" lon="21.551412"><ele>324.0</ele><time>2026-04-27T13:51:45.14Z</time></trkpt><trkpt lat="39.8135567" lon="21.5511952"><ele>325.5</ele><time>2026-04-27T13:51:46.141Z</time></trkpt><trkpt lat="39.813396" lon="21.5509571"><ele>327.0</ele><time>2026-04-27T13:51:47.14Z</time></trkpt><trkpt lat="39.8132451" lon="21.550706"><ele>327.0</ele><time>2026-04-27T13:51:48.141Z</time></trkpt><trkpt lat="39.813098" lon="21.5504448"><ele>327.0</ele><time>2026-04-27T13:51:49.14Z</time></trkpt><trkpt lat="39.812952" lon="21.5501743"><ele>327.0</ele><time>2026-04-27T13:51:50.141Z</time></trkpt><trkpt lat="39.8128056" lon="21.5499071"><ele>327.0</ele><time>2026-04-27T13:51:51.141Z</time></trkpt><trkpt lat="39.8126662" lon="21.5496452"><ele>327.0</ele><time>2026-04-27T13:51:52.141Z</time></trkpt><trkpt lat="39.8125206" lon="21.5493849"><ele>327.0</ele><time>2026-04-27T13:51:53.141Z</time></trkpt><trkpt lat="39.8123817" lon="21.5491375"><ele>327.0</ele><time>2026-04-27T13:51:54.141Z</time></trkpt><trkpt lat="39.812247" lon="21.5488994"><ele>327.0</ele><time>2026-04-27T13:51:55.14Z</time></trkpt><trkpt lat="39.8121201" lon="21.54867"><ele>327.0</ele><time>2026-04-27T13:51:56.141Z</time></trkpt><trkpt lat="39.8119939" lon="21.5484563"><ele>327.3333333333333</ele><time>2026-04-27T13:51:57.14Z</time></trkpt><trkpt lat="39.8118742" lon="21.5482497"><ele>327.66666666666663</ele><time>2026-04-27T13:51:58.14Z</time></trkpt><trkpt lat="39.8117567" lon="21.5480279"><ele>328.0</ele><time>2026-04-27T13:51:59.141Z</time></trkpt><trkpt lat="39.8116225" lon="21.5477989"><ele>329.5</ele><time>2026-04-27T13:52:00.141Z</time></trkpt><trkpt lat="39.8114925" lon="21.5475592"><ele>331.0</ele><time>2026-04-27T13:52:01.141Z</time></trkpt><trkpt lat="39.8113599" lon="21.5473175"><ele>331.0</ele><time>2026-04-27T13:52:02.14Z</time></trkpt><trkpt lat="39.8112232" lon="21.5470749"><ele>331.0</ele><time>2026-04-27T13:52:03.14Z</time></trkpt><trkpt lat="39.8110921" lon="21.5468353"><ele>329.0</ele><time>2026-04-27T13:52:04.14Z</time></trkpt><trkpt lat="39.8109561" lon="21.546586"><ele>327.0</ele><time>2026-04-27T13:52:05.141Z</time></trkpt><trkpt lat="39.8108258" lon="21.5463417"><ele>326.5</ele><time>2026-04-27T13:52:06.141Z</time></trkpt><trkpt lat="39.8106913" lon="21.5460972"><ele>326.0</ele><time>2026-04-27T13:52:07.14Z</time></trkpt><trkpt lat="39.81056" lon="21.5458497"><ele>326.0</ele><time>2026-04-27T13:52:08.14Z</time></trkpt><trkpt lat="39.8104294" lon="21.5456075"><ele>326.0</ele><time>2026-04-27T13:52:09.14Z</time></trkpt><trkpt lat="39.8103026" lon="21.5453705"><ele>326.0</ele><time>2026-04-27T13:52:10.14Z</time></trkpt><trkpt lat="39.8101678" lon="21.5451376"><ele>326.6666666666667</ele><time>2026-04-27T13:52:11.141Z</time></trkpt><trkpt lat="39.8100354" lon="21.5449111"><ele>327.3333333333333</ele><time>2026-04-27T13:52:12.14Z</time></trkpt><trkpt lat="39.8098956" lon="21.5446786"><ele>328.0</ele><time>2026-04-27T13:52:13.14Z</time></trkpt><trkpt lat="39.8097667" lon="21.5444452"><ele>328.0</ele><time>2026-04-27T13:52:14.14Z</time></trkpt><trkpt lat="39.8096367" lon="21.5442104"><ele>328.0</ele><time>2026-04-27T13:52:15.141Z</time></trkpt><trkpt lat="39.8095144" lon="21.5439699"><ele>328.0</ele><time>2026-04-27T13:52:16.141Z</time></trkpt><trkpt lat="39.8093854" lon="21.5437329"><ele>327.66666666666663</ele><time>2026-04-27T13:52:17.141Z</time></trkpt><trkpt lat="39.8092583" lon="21.5434977"><ele>327.3333333333333</ele><time>2026-04-27T13:52:18.141Z</time></trkpt><trkpt lat="39.8091337" lon="21.5432573"><ele>327.0</ele><time>2026-04-27T13:52:19.141Z</time></trkpt><trkpt lat="39.8090011" lon="21.5430147"><ele>327.0</ele><time>2026-04-27T13:52:20.141Z</time></trkpt><trkpt lat="39.8088685" lon="21.5427742"><ele>327.0</ele><time>2026-04-27T13:52:21.14Z</time></trkpt><trkpt lat="39.8087323" lon="21.5425349"><ele>327.0</ele><time>2026-04-27T13:52:22.14Z</time></trkpt><trkpt lat="39.8085945" lon="21.5422838"><ele>327.0</ele><time>2026-04-27T13:52:23.141Z</time></trkpt><trkpt lat="39.8084539" lon="21.5420283"><ele>323.5</ele><time>2026-04-27T13:52:24.14Z</time></trkpt><trkpt lat="39.8083121" lon="21.5417684"><ele>320.0</ele><time>2026-04-27T13:52:25.14Z</time></trkpt><trkpt lat="39.8081696" lon="21.541501"><ele>320.0</ele><time>2026-04-27T13:52:26.141Z</time></trkpt><trkpt lat="39.8080287" lon="21.5412329"><ele>320.0</ele><time>2026-04-27T13:52:27.14Z</time></trkpt><trkpt lat="39.8078914" lon="21.5409764"><ele>321.0</ele><time>2026-04-27T13:52:28.14Z</time></trkpt><trkpt lat="39.8077434" lon="21.540714"><ele>322.0</ele><time>2026-04-27T13:52:29.14Z</time></trkpt><trkpt lat="39.8076035" lon="21.5404499"><ele>322.5</ele><time>2026-04-27T13:52:30.14Z</time></trkpt><trkpt lat="39.8074545" lon="21.5401831"><ele>323.0</ele><time>2026-04-27T13:52:31.141Z</time></trkpt><trkpt lat="39.8073094" lon="21.5399147"><ele>323.0</ele><time>2026-04-27T13:52:32.14Z</time></trkpt><trkpt lat="39.8071631" lon="21.5396588"><ele>323.0</ele><time>2026-04-27T13:52:33.141Z</time></trkpt><trkpt lat="39.80702" lon="21.5393986"><ele>321.5</ele><time>2026-04-27T13:52:34.141Z</time></trkpt><trkpt lat="39.8068826" lon="21.5391484"><ele>320.0</ele><time>2026-04-27T13:52:35.14Z</time></trkpt><trkpt lat="39.8067556" lon="21.5389055"><ele>320.0</ele><time>2026-04-27T13:52:36.14Z</time></trkpt><trkpt lat="39.8066233" lon="21.5386604"><ele>320.0</ele><time>2026-04-27T13:52:37.141Z</time></trkpt><trkpt lat="39.8064902" lon="21.5384203"><ele>320.0</ele><time>2026-04-27T13:52:38.141Z</time></trkpt><trkpt lat="39.8063611" lon="21.5381862"><ele>320.0</ele><time>2026-04-27T13:52:39.14Z</time></trkpt><trkpt lat="39.8062058" lon="21.5379603"><ele>320.0</ele><time>2026-04-27T13:52:40.141Z</time></trkpt><trkpt lat="39.8060288" lon="21.537746"><ele>320.0</ele><time>2026-04-27T13:52:41.141Z</time></trkpt><trkpt lat="39.8058406" lon="21.537529"><ele>320.0</ele><time>2026-04-27T13:52:42.141Z</time></trkpt><trkpt lat="39.8056624" lon="21.5373161"><ele>320.0</ele><time>2026-04-27T13:52:43.14Z</time></trkpt><trkpt lat="39.8054785" lon="21.5371127"><ele>320.5</ele><time>2026-04-27T13:52:44.141Z</time></trkpt><trkpt lat="39.8052943" lon="21.5369112"><ele>321.0</ele><time>2026-04-27T13:52:45.14Z</time></trkpt><trkpt lat="39.8051243" lon="21.5367176"><ele>321.0</ele><time>2026-04-27T13:52:46.141Z</time></trkpt><trkpt lat="39.8049593" lon="21.5365275"><ele>321.0</ele><time>2026-04-27T13:52:47.14Z</time></trkpt><trkpt lat="39.8047869" lon="21.5363478"><ele>321.0</ele><time>2026-04-27T13:52:48.141Z</time></trkpt><trkpt lat="39.8046282" lon="21.5361652"><ele>321.0</ele><time>2026-04-27T13:52:49.141Z</time></trkpt><trkpt lat="39.8044621" lon="21.5359759"><ele>321.0</ele><time>2026-04-27T13:52:50.141Z</time></trkpt><trkpt lat="39.8042875" lon="21.5357849"><ele>321.0</ele><time>2026-04-27T13:52:51.14Z</time></trkpt><trkpt lat="39.8041252" lon="21.5355955"><ele>321.0</ele><time>2026-04-27T13:52:52.14Z</time></trkpt><trkpt lat="39.8039588" lon="21.5354047"><ele>321.0</ele><time>2026-04-27T13:52:53.141Z</time></trkpt><trkpt lat="39.8037948" lon="21.535214"><ele>321.0</ele><time>2026-04-27T13:52:54.14Z</time></trkpt><trkpt lat="39.8036292" lon="21.5350301"><ele>319.6666666666667</ele><time>2026-04-27T13:52:55.141Z</time></trkpt><trkpt lat="39.8034644" lon="21.5348458"><ele>318.33333333333337</ele><time>2026-04-27T13:52:56.14Z</time></trkpt><trkpt lat="39.8033015" lon="21.5346545"><ele>317.0</ele><time>2026-04-27T13:52:57.14Z</time></trkpt><trkpt lat="39.8031463" lon="21.5344741"><ele>317.0</ele><time>2026-04-27T13:52:58.141Z</time></trkpt><trkpt lat="39.8029898" lon="21.5342938"><ele>317.0</ele><time>2026-04-27T13:52:59.14Z</time></trkpt><trkpt lat="39.8028313" lon="21.5341123"><ele>317.0</ele><time>2026-04-27T13:53:00.14Z</time></trkpt><trkpt lat="39.8026745" lon="21.5339287"><ele>316.6666666666667</ele><time>2026-04-27T13:53:01.141Z</time></trkpt><trkpt lat="39.8025116" lon="21.5337353"><ele>316.3333333333333</ele><time>2026-04-27T13:53:02.14Z</time></trkpt><trkpt lat="39.8023575" lon="21.5335535"><ele>316.0</ele><time>2026-04-27T13:53:03.141Z</time></trkpt><trkpt lat="39.802189" lon="21.5333606"><ele>316.0</ele><time>2026-04-27T13:53:04.14Z</time></trkpt><trkpt lat="39.8020305" lon="21.5331724"><ele>316.0</ele><time>2026-04-27T13:53:05.14Z</time></trkpt><trkpt lat="39.8018704" lon="21.5329844"><ele>316.0</ele><time>2026-04-27T13:53:06.141Z</time></trkpt><trkpt lat="39.8017013" lon="21.5328096"><ele>314.5</ele><time>2026-04-27T13:53:07.141Z</time></trkpt><trkpt lat="39.8015171" lon="21.5326355"><ele>313.0</ele><time>2026-04-27T13:53:08.141Z</time></trkpt><trkpt lat="39.8013213" lon="21.5324832"><ele>313.0</ele><time>2026-04-27T13:53:09.141Z</time></trkpt><trkpt lat="39.801109" lon="21.5323367"><ele>313.0</ele><time>2026-04-27T13:53:10.141Z</time></trkpt><trkpt lat="39.8008863" lon="21.5321985"><ele>314.0</ele><time>2026-04-27T13:53:11.141Z</time></trkpt><trkpt lat="39.8006668" lon="21.5320641"><ele>315.0</ele><time>2026-04-27T13:53:12.14Z</time></trkpt><trkpt lat="39.8004626" lon="21.5319441"><ele>316.0</ele><time>2026-04-27T13:53:13.141Z</time></trkpt><trkpt lat="39.8002649" lon="21.5318264"><ele>317.0</ele><time>2026-04-27T13:53:14.14Z</time></trkpt><trkpt lat="39.8000714" lon="21.5317087"><ele>318.0</ele><time>2026-04-27T13:53:15.14Z</time></trkpt><trkpt lat="39.7998819" lon="21.5315917"><ele>316.0</ele><time>2026-04-27T13:53:16.14Z</time></trkpt><trkpt lat="39.7996833" lon="21.5314766"><ele>314.0</ele><time>2026-04-27T13:53:17.141Z</time></trkpt><trkpt lat="39.7994847" lon="21.5313599"><ele>312.0</ele><time>2026-04-27T13:53:18.141Z</time></trkpt><trkpt lat="39.7992928" lon="21.5312452"><ele>311.6666666666667</ele><time>2026-04-27T13:53:19.14Z</time></trkpt><trkpt lat="39.7991096" lon="21.5311296"><ele>311.33333333333337</ele><time>2026-04-27T13:53:20.141Z</time></trkpt><trkpt lat="39.7989278" lon="21.5310149"><ele>311.0</ele><time>2026-04-27T13:53:21.14Z</time></trkpt><trkpt lat="39.7987421" lon="21.5309023"><ele>311.0</ele><time>2026-04-27T13:53:22.14Z</time></trkpt><trkpt lat="39.7985587" lon="21.5307877"><ele>311.0</ele><time>2026-04-27T13:53:23.141Z</time></trkpt><trkpt lat="39.7983789" lon="21.5306771"><ele>311.0</ele><time>2026-04-27T13:53:24.141Z</time></trkpt><trkpt lat="39.7981978" lon="21.5305657"><ele>310.6666666666667</ele><time>2026-04-27T13:53:25.14Z</time></trkpt><trkpt lat="39.7980257" lon="21.5304592"><ele>310.3333333333333</ele><time>2026-04-27T13:53:26.14Z</time></trkpt><trkpt lat="39.7978615" lon="21.5303541"><ele>310.0</ele><time>2026-04-27T13:53:27.141Z</time></trkpt><trkpt lat="39.7976938" lon="21.53027"><ele>310.3333333333333</ele><time>2026-04-27T13:53:28.141Z</time></trkpt><trkpt lat="39.7975299" lon="21.5301991"><ele>310.6666666666667</ele><time>2026-04-27T13:53:29.141Z</time></trkpt><trkpt lat="39.7973467" lon="21.5301523"><ele>311.0</ele><time>2026-04-27T13:53:30.141Z</time></trkpt><trkpt lat="39.7971568" lon="21.5301355"><ele>311.0</ele><time>2026-04-27T13:53:31.141Z</time></trkpt><trkpt lat="39.7969617" lon="21.5301569"><ele>311.0</ele><time>2026-04-27T13:53:32.141Z</time></trkpt><trkpt lat="39.7967566" lon="21.5302192"><ele>311.0</ele><time>2026-04-27T13:53:33.141Z</time></trkpt><trkpt lat="39.7965472" lon="21.5303065"><ele>310.0</ele><time>2026-04-27T13:53:34.14Z</time></trkpt><trkpt lat="39.7963328" lon="21.5303972"><ele>309.0</ele><time>2026-04-27T13:53:35.14Z</time></trkpt><trkpt lat="39.7961142" lon="21.530499"><ele>312.0</ele><time>2026-04-27T13:53:36.141Z</time></trkpt><trkpt lat="39.7958961" lon="21.5306012"><ele>315.0</ele><time>2026-04-27T13:53:37.141Z</time></trkpt><trkpt lat="39.7956855" lon="21.5307126"><ele>315.0</ele><time>2026-04-27T13:53:38.14Z</time></trkpt><trkpt lat="39.7954816" lon="21.5308061"><ele>315.0</ele><time>2026-04-27T13:53:39.141Z</time></trkpt><trkpt lat="39.7952807" lon="21.5308955"><ele>315.0</ele><time>2026-04-27T13:53:40.14Z</time></trkpt><trkpt lat="39.7950853" lon="21.5309848"><ele>314.6666666666667</ele><time>2026-04-27T13:53:41.14Z</time></trkpt><trkpt lat="39.7948939" lon="21.5310678"><ele>314.33333333333337</ele><time>2026-04-27T13:53:42.14Z</time></trkpt><trkpt lat="39.7947028" lon="21.5311559"><ele>314.0</ele><time>2026-04-27T13:53:43.141Z</time></trkpt><trkpt lat="39.7945162" lon="21.5312466"><ele>312.6666666666667</ele><time>2026-04-27T13:53:44.14Z</time></trkpt><trkpt lat="39.7943345" lon="21.531343"><ele>311.3333333333333</ele><time>2026-04-27T13:53:45.14Z</time></trkpt><trkpt lat="39.7941595" lon="21.5314255"><ele>310.0</ele><time>2026-04-27T13:53:46.14Z</time></trkpt><trkpt lat="39.7939909" lon="21.531507"><ele>310.0</ele><time>2026-04-27T13:53:47.14Z</time></trkpt><trkpt lat="39.7938276" lon="21.5315828"><ele>310.0</ele><time>2026-04-27T13:53:48.141Z</time></trkpt><trkpt lat="39.7936807" lon="21.5316512"><ele>310.0</ele><time>2026-04-27T13:53:49.14Z</time></trkpt><trkpt lat="39.7935417" lon="21.5317178"><ele>309.5</ele><time>2026-04-27T13:53:50.14Z</time></trkpt><trkpt lat="39.7934031" lon="21.5317862"><ele>309.0</ele><time>2026-04-27T13:53:51.14Z</time></trkpt><trkpt lat="39.7932822" lon="21.5318251"><ele>308.5</ele><time>2026-04-27T13:53:52.14Z</time></trkpt><trkpt lat="39.793173" lon="21.5318262"><ele>308.0</ele><time>2026-04-27T13:53:53.14Z</time></trkpt><trkpt lat="39.7930707" lon="21.5317654"><ele>308.0</ele><time>2026-04-27T13:53:54.141Z</time></trkpt><trkpt lat="39.7929807" lon="21.531642"><ele>308.0</ele><time>2026-04-27T13:53:55.141Z</time></trkpt><trkpt lat="39.7929013" lon="21.5314779"><ele>308.0</ele><time>2026-04-27T13:53:56.141Z</time></trkpt><trkpt lat="39.7928245" lon="21.5312761"><ele>308.33333333333337</ele><time>2026-04-27T13:53:57.141Z</time></trkpt><trkpt lat="39.7927629" lon="21.5310713"><ele>308.6666666666667</ele><time>2026-04-27T13:53:58.141Z</time></trkpt><trkpt lat="39.7927364" lon="21.5308782"><ele>309.0</ele><time>2026-04-27T13:53:59.14Z</time></trkpt><trkpt lat="39.7926976" lon="21.5306989"><ele>308.5</ele><time>2026-04-27T13:54:00.14Z</time></trkpt><trkpt lat="39.7926407" lon="21.5305295"><ele>308.0</ele><time>2026-04-27T13:54:01.141Z</time></trkpt><trkpt lat="39.7925564" lon="21.5303861"><ele>307.5</ele><time>2026-04-27T13:54:02.141Z</time></trkpt><trkpt lat="39.7924497" lon="21.53028"><ele>307.0</ele><time>2026-04-27T13:54:03.14Z</time></trkpt><trkpt lat="39.7923218" lon="21.5301933"><ele>307.0</ele><time>2026-04-27T13:54:04.141Z</time></trkpt><trkpt lat="39.7921743" lon="21.5301265"><ele>307.0</ele><time>2026-04-27T13:54:05.141Z</time></trkpt><trkpt lat="39.7920233" lon="21.5300686"><ele>307.0</ele><time>2026-04-27T13:54:06.141Z</time></trkpt><trkpt lat="39.7918744" lon="21.5300079"><ele>309.3333333333333</ele><time>2026-04-27T13:54:07.14Z</time></trkpt><trkpt lat="39.7917264" lon="21.5299384"><ele>311.6666666666667</ele><time>2026-04-27T13:54:08.141Z</time></trkpt><trkpt lat="39.7915802" lon="21.5298577"><ele>314.0</ele><time>2026-04-27T13:54:09.141Z</time></trkpt><trkpt lat="39.7914335" lon="21.5297572"><ele>314.0</ele><time>2026-04-27T13:54:10.141Z</time></trkpt><trkpt lat="39.791287" lon="21.5296558"><ele>314.0</ele><time>2026-04-27T13:54:11.141Z</time></trkpt><trkpt lat="39.7911458" lon="21.5295526"><ele>314.0</ele><time>2026-04-27T13:54:12.14Z</time></trkpt><trkpt lat="39.7910021" lon="21.5294666"><ele>313.0</ele><time>2026-04-27T13:54:13.14Z</time></trkpt><trkpt lat="39.7908617" lon="21.529364"><ele>312.0</ele><time>2026-04-27T13:54:14.141Z</time></trkpt><trkpt lat="39.7907235" lon="21.5292532"><ele>311.0</ele><time>2026-04-27T13:54:15.141Z</time></trkpt><trkpt lat="39.7905849" lon="21.5291424"><ele>311.0</ele><time>2026-04-27T13:54:16.14Z</time></trkpt><trkpt lat="39.7904467" lon="21.5290278"><ele>311.0</ele><time>2026-04-27T13:54:17.141Z</time></trkpt><trkpt lat="39.7903239" lon="21.5289027"><ele>311.0</ele><time>2026-04-27T13:54:18.14Z</time></trkpt><trkpt lat="39.7902077" lon="21.528746"><ele>311.5</ele><time>2026-04-27T13:54:19.14Z</time></trkpt><trkpt lat="39.7901152" lon="21.5285942"><ele>312.0</ele><time>2026-04-27T13:54:20.14Z</time></trkpt><trkpt lat="39.7900261" lon="21.528435"><ele>312.5</ele><time>2026-04-27T13:54:21.141Z</time></trkpt><trkpt lat="39.78994" lon="21.5282846"><ele>313.0</ele><time>2026-04-27T13:54:22.141Z</time></trkpt><trkpt lat="39.7898409" lon="21.5281455"><ele>313.0</ele><time>2026-04-27T13:54:23.141Z</time></trkpt><trkpt lat="39.789717" lon="21.5280334"><ele>313.0</ele><time>2026-04-27T13:54:24.141Z</time></trkpt><trkpt lat="39.7895777" lon="21.5279519"><ele>313.0</ele><time>2026-04-27T13:54:25.14Z</time></trkpt><trkpt lat="39.7894135" lon="21.5278906"><ele>311.0</ele><time>2026-04-27T13:54:26.141Z</time></trkpt><trkpt lat="39.7892244" lon="21.5278411"><ele>309.0</ele><time>2026-04-27T13:54:27.141Z</time></trkpt><trkpt lat="39.789005" lon="21.5278059"><ele>307.0</ele><time>2026-04-27T13:54:28.14Z</time></trkpt><trkpt lat="39.7887631" lon="21.5277783"><ele>305.0</ele><time>2026-04-27T13:54:29.141Z</time></trkpt><trkpt lat="39.788499" lon="21.5277473"><ele>303.0</ele><time>2026-04-27T13:54:30.14Z</time></trkpt><trkpt lat="39.7882174" lon="21.5276987"><ele>303.0</ele><time>2026-04-27T13:54:31.141Z</time></trkpt><trkpt lat="39.7879201" lon="21.5276345"><ele>303.0</ele><time>2026-04-27T13:54:32.141Z</time></trkpt><trkpt lat="39.7875976" lon="21.5275754"><ele>302.0</ele><time>2026-04-27T13:54:33.141Z</time></trkpt><trkpt lat="39.787262" lon="21.5275159"><ele>301.0</ele><time>2026-04-27T13:54:34.141Z</time></trkpt><trkpt lat="39.7869448" lon="21.5274534"><ele>303.0</ele><time>2026-04-27T13:54:35.141Z</time></trkpt><trkpt lat="39.7866645" lon="21.5273897"><ele>305.0</ele><time>2026-04-27T13:54:36.141Z</time></trkpt><trkpt lat="39.7864103" lon="21.5273426"><ele>305.0</ele><time>2026-04-27T13:54:37.141Z</time></trkpt><trkpt lat="39.7861652" lon="21.527308"><ele>305.0</ele><time>2026-04-27T13:54:38.141Z</time></trkpt><trkpt lat="39.7859113" lon="21.5272867"><ele>307.0</ele><time>2026-04-27T13:54:39.141Z</time></trkpt><trkpt lat="39.7856472" lon="21.5272889"><ele>309.0</ele><time>2026-04-27T13:54:40.14Z</time></trkpt><trkpt lat="39.7853867" lon="21.5273009"><ele>311.0</ele><time>2026-04-27T13:54:41.14Z</time></trkpt><trkpt lat="39.7851255" lon="21.5273141"><ele>313.0</ele><time>2026-04-27T13:54:42.14Z</time></trkpt><trkpt lat="39.7848586" lon="21.527334"><ele>313.0</ele><time>2026-04-27T13:54:43.141Z</time></trkpt><trkpt lat="39.7845731" lon="21.5273527"><ele>313.0</ele><time>2026-04-27T13:54:44.141Z</time></trkpt><trkpt lat="39.7842807" lon="21.5273604"><ele>310.5</ele><time>2026-04-27T13:54:45.141Z</time></trkpt><trkpt lat="39.7839778" lon="21.5273603"><ele>308.0</ele><time>2026-04-27T13:54:46.141Z</time></trkpt><trkpt lat="39.7836692" lon="21.5273551"><ele>309.0</ele><time>2026-04-27T13:54:47.14Z</time></trkpt><trkpt lat="39.7833676" lon="21.5273659"><ele>310.0</ele><time>2026-04-27T13:54:48.14Z</time></trkpt><trkpt lat="39.7830764" lon="21.5273709"><ele>310.0</ele><time>2026-04-27T13:54:49.14Z</time></trkpt><trkpt lat="39.7827867" lon="21.5273755"><ele>310.0</ele><time>2026-04-27T13:54:50.141Z</time></trkpt><trkpt lat="39.7824903" lon="21.5273813"><ele>306.0</ele><time>2026-04-27T13:54:51.141Z</time></trkpt><trkpt lat="39.782209" lon="21.5273824"><ele>302.0</ele><time>2026-04-27T13:54:52.14Z</time></trkpt><trkpt lat="39.7819509" lon="21.5273923"><ele>301.0</ele><time>2026-04-27T13:54:53.141Z</time></trkpt><trkpt lat="39.7817022" lon="21.5274055"><ele>300.0</ele><time>2026-04-27T13:54:54.141Z</time></trkpt><trkpt lat="39.7814549" lon="21.5274144"><ele>300.0</ele><time>2026-04-27T13:54:55.141Z</time></trkpt><trkpt lat="39.7812039" lon="21.5274193"><ele>300.0</ele><time>2026-04-27T13:54:56.141Z</time></trkpt><trkpt lat="39.7809427" lon="21.5274262"><ele>299.0</ele><time>2026-04-27T13:54:57.14Z</time></trkpt><trkpt lat="39.7806715" lon="21.5274358"><ele>298.0</ele><time>2026-04-27T13:54:58.141Z</time></trkpt><trkpt lat="39.7803923" lon="21.5274441"><ele>298.0</ele><time>2026-04-27T13:54:59.141Z</time></trkpt><trkpt lat="39.780105" lon="21.5274668"><ele>298.0</ele><time>2026-04-27T13:55:00.141Z</time></trkpt><trkpt lat="39.779817" lon="21.5274736"><ele>298.0</ele><time>2026-04-27T13:55:01.14Z</time></trkpt><trkpt lat="39.7795321" lon="21.5274817"><ele>298.0</ele><time>2026-04-27T13:55:02.14Z</time></trkpt><trkpt lat="39.7792526" lon="21.5274832"><ele>299.5</ele><time>2026-04-27T13:55:03.14Z</time></trkpt><trkpt lat="39.778975" lon="21.5274925"><ele>301.0</ele><time>2026-04-27T13:55:04.14Z</time></trkpt><trkpt lat="39.7787006" lon="21.5274981"><ele>300.5</ele><time>2026-04-27T13:55:05.141Z</time></trkpt><trkpt lat="39.7784307" lon="21.5275014"><ele>300.0</ele><time>2026-04-27T13:55:06.14Z</time></trkpt><trkpt lat="39.778163" lon="21.5275045"><ele>300.0</ele><time>2026-04-27T13:55:07.14Z</time></trkpt><trkpt lat="39.7778952" lon="21.5275143"><ele>300.0</ele><time>2026-04-27T13:55:08.14Z</time></trkpt><trkpt lat="39.777636" lon="21.5275314"><ele>299.5</ele><time>2026-04-27T13:55:09.14Z</time></trkpt><trkpt lat="39.7773781" lon="21.527538"><ele>299.0</ele><time>2026-04-27T13:55:10.141Z</time></trkpt><trkpt lat="39.7771235" lon="21.5275436"><ele>299.0</ele><time>2026-04-27T13:55:11.14Z</time></trkpt><trkpt lat="39.7768691" lon="21.5275514"><ele>299.0</ele><time>2026-04-27T13:55:12.14Z</time></trkpt><trkpt lat="39.7766139" lon="21.5275707"><ele>298.0</ele><time>2026-04-27T13:55:13.141Z</time></trkpt><trkpt lat="39.7763633" lon="21.5276109"><ele>297.0</ele><time>2026-04-27T13:55:14.141Z</time></trkpt><trkpt lat="39.7761138" lon="21.5276754"><ele>295.5</ele><time>2026-04-27T13:55:15.141Z</time></trkpt><trkpt lat="39.7758661" lon="21.5277554"><ele>294.0</ele><time>2026-04-27T13:55:16.141Z</time></trkpt><trkpt lat="39.7756371" lon="21.5278414"><ele>296.0</ele><time>2026-04-27T13:55:17.14Z</time></trkpt><trkpt lat="39.7754137" lon="21.5279008"><ele>298.0</ele><time>2026-04-27T13:55:18.14Z</time></trkpt><trkpt lat="39.7751871" lon="21.5279852"><ele>298.0</ele><time>2026-04-27T13:55:19.141Z</time></trkpt><trkpt lat="39.7749591" lon="21.5280719"><ele>298.0</ele><time>2026-04-27T13:55:20.14Z</time></trkpt><trkpt lat="39.7747294" lon="21.5281576"><ele>298.0</ele><time>2026-04-27T13:55:21.14Z</time></trkpt><trkpt lat="39.7745006" lon="21.5282423"><ele>298.0</ele><time>2026-04-27T13:55:22.141Z</time></trkpt><trkpt lat="39.7742773" lon="21.5283451"><ele>297.5</ele><time>2026-04-27T13:55:23.14Z</time></trkpt><trkpt lat="39.7740555" lon="21.5284271"><ele>297.0</ele><time>2026-04-27T13:55:24.141Z</time></trkpt><trkpt lat="39.7738358" lon="21.5285296"><ele>297.0</ele><time>2026-04-27T13:55:25.14Z</time></trkpt><trkpt lat="39.773612" lon="21.528636"><ele>297.0</ele><time>2026-04-27T13:55:26.14Z</time></trkpt><trkpt lat="39.7733779" lon="21.5287406"><ele>296.0</ele><time>2026-04-27T13:55:27.141Z</time></trkpt><trkpt lat="39.7731451" lon="21.5288443"><ele>295.0</ele><time>2026-04-27T13:55:28.141Z</time></trkpt><trkpt lat="39.7729083" lon="21.5289635"><ele>292.5</ele><time>2026-04-27T13:55:29.141Z</time></trkpt><trkpt lat="39.7726699" lon="21.529073"><ele>290.0</ele><time>2026-04-27T13:55:30.141Z</time></trkpt><trkpt lat="39.7724315" lon="21.5291845"><ele>290.0</ele><time>2026-04-27T13:55:31.141Z</time></trkpt><trkpt lat="39.7721956" lon="21.5292947"><ele>290.0</ele><time>2026-04-27T13:55:32.141Z</time></trkpt><trkpt lat="39.7719511" lon="21.5294033"><ele>290.0</ele><time>2026-04-27T13:55:33.14Z</time></trkpt><trkpt lat="39.7717132" lon="21.5295155"><ele>290.0</ele><time>2026-04-27T13:55:34.141Z</time></trkpt><trkpt lat="39.7714778" lon="21.5296302"><ele>291.0</ele><time>2026-04-27T13:55:35.141Z</time></trkpt><trkpt lat="39.7712437" lon="21.5297429"><ele>292.0</ele><time>2026-04-27T13:55:36.141Z</time></trkpt><trkpt lat="39.7710067" lon="21.5298545"><ele>292.0</ele><time>2026-04-27T13:55:37.14Z</time></trkpt><trkpt lat="39.7707626" lon="21.529965"><ele>292.0</ele><time>2026-04-27T13:55:38.141Z</time></trkpt><trkpt lat="39.7705106" lon="21.5300825"><ele>292.0</ele><time>2026-04-27T13:55:39.14Z</time></trkpt><trkpt lat="39.770254" lon="21.5302009"><ele>292.0</ele><time>2026-04-27T13:55:40.14Z</time></trkpt><trkpt lat="39.7700022" lon="21.5303206"><ele>292.5</ele><time>2026-04-27T13:55:41.14Z</time></trkpt><trkpt lat="39.7697513" lon="21.5304327"><ele>293.0</ele><time>2026-04-27T13:55:42.141Z</time></trkpt><trkpt lat="39.7695044" lon="21.5305684"><ele>292.5</ele><time>2026-04-27T13:55:43.141Z</time></trkpt><trkpt lat="39.7692543" lon="21.5306865"><ele>292.0</ele><time>2026-04-27T13:55:44.14Z</time></trkpt><trkpt lat="39.7690041" lon="21.5308036"><ele>292.0</ele><time>2026-04-27T13:55:45.14Z</time></trkpt><trkpt lat="39.7687543" lon="21.5309231"><ele>292.0</ele><time>2026-04-27T13:55:46.141Z</time></trkpt><trkpt lat="39.7685157" lon="21.5310327"><ele>293.5</ele><time>2026-04-27T13:55:47.14Z</time></trkpt><trkpt lat="39.7682804" lon="21.5311495"><ele>295.0</ele><time>2026-04-27T13:55:48.14Z</time></trkpt><trkpt lat="39.7680464" lon="21.5312638"><ele>295.0</ele><time>2026-04-27T13:55:49.14Z</time></trkpt><trkpt lat="39.7678181" lon="21.5313705"><ele>295.0</ele><time>2026-04-27T13:55:50.141Z</time></trkpt><trkpt lat="39.7675856" lon="21.5314614"><ele>295.0</ele><time>2026-04-27T13:55:51.14Z</time></trkpt><trkpt lat="39.7673501" lon="21.5315597"><ele>295.0</ele><time>2026-04-27T13:55:52.14Z</time></trkpt><trkpt lat="39.7671144" lon="21.5316776"><ele>295.0</ele><time>2026-04-27T13:55:53.141Z</time></trkpt><trkpt lat="39.7668817" lon="21.5317856"><ele>295.0</ele><time>2026-04-27T13:55:54.14Z</time></trkpt><trkpt lat="39.766651" lon="21.5318846"><ele>297.5</ele><time>2026-04-27T13:55:55.14Z</time></trkpt><trkpt lat="39.7664064" lon="21.531993"><ele>300.0</ele><time>2026-04-27T13:55:56.14Z</time></trkpt><trkpt lat="39.7661667" lon="21.5320961"><ele>296.5</ele><time>2026-04-27T13:55:57.141Z</time></trkpt><trkpt lat="39.7659235" lon="21.5322099"><ele>293.0</ele><time>2026-04-27T13:55:58.141Z</time></trkpt><trkpt lat="39.7656808" lon="21.5323252"><ele>293.0</ele><time>2026-04-27T13:55:59.141Z</time></trkpt><trkpt lat="39.7654463" lon="21.5324299"><ele>293.0</ele><time>2026-04-27T13:56:00.141Z</time></trkpt><trkpt lat="39.765215" lon="21.532546"><ele>289.5</ele><time>2026-04-27T13:56:01.141Z</time></trkpt><trkpt lat="39.7649829" lon="21.5326509"><ele>286.0</ele><time>2026-04-27T13:56:02.141Z</time></trkpt><trkpt lat="39.7647542" lon="21.5327536"><ele>286.0</ele><time>2026-04-27T13:56:03.14Z</time></trkpt><trkpt lat="39.7645262" lon="21.5328615"><ele>286.0</ele><time>2026-04-27T13:56:04.141Z</time></trkpt><trkpt lat="39.7643025" lon="21.5329715"><ele>286.5</ele><time>2026-04-27T13:56:05.14Z</time></trkpt><trkpt lat="39.7640803" lon="21.5331064"><ele>287.0</ele><time>2026-04-27T13:56:06.141Z</time></trkpt><trkpt lat="39.7638554" lon="21.5332676"><ele>287.0</ele><time>2026-04-27T13:56:07.141Z</time></trkpt><trkpt lat="39.763626" lon="21.5334506"><ele>287.0</ele><time>2026-04-27T13:56:08.141Z</time></trkpt><trkpt lat="39.7634033" lon="21.5336467"><ele>285.0</ele><time>2026-04-27T13:56:09.141Z</time></trkpt><trkpt lat="39.7631741" lon="21.5338372"><ele>283.0</ele><time>2026-04-27T13:56:10.141Z</time></trkpt><trkpt lat="39.762946" lon="21.5340279"><ele>283.0</ele><time>2026-04-27T13:56:11.14Z</time></trkpt><trkpt lat="39.7627147" lon="21.5342155"><ele>283.0</ele><time>2026-04-27T13:56:12.14Z</time></trkpt><trkpt lat="39.7624863" lon="21.5344123"><ele>282.0</ele><time>2026-04-27T13:56:13.14Z</time></trkpt><trkpt lat="39.7622659" lon="21.5345947"><ele>281.0</ele><time>2026-04-27T13:56:14.141Z</time></trkpt><trkpt lat="39.7620481" lon="21.5347626"><ele>281.5</ele><time>2026-04-27T13:56:15.141Z</time></trkpt><trkpt lat="39.7618273" lon="21.5349451"><ele>282.0</ele><time>2026-04-27T13:56:16.141Z</time></trkpt><trkpt lat="39.7616182" lon="21.5351128"><ele>282.0</ele><time>2026-04-27T13:56:17.141Z</time></trkpt><trkpt lat="39.7614155" lon="21.5352794"><ele>282.0</ele><time>2026-04-27T13:56:18.141Z</time></trkpt><trkpt lat="39.7612182" lon="21.5354408"><ele>282.0</ele><time>2026-04-27T13:56:19.14Z</time></trkpt><trkpt lat="39.7610211" lon="21.5356006"><ele>282.0</ele><time>2026-04-27T13:56:20.14Z</time></trkpt><trkpt lat="39.7608224" lon="21.5357593"><ele>282.0</ele><time>2026-04-27T13:56:21.141Z</time></trkpt><trkpt lat="39.7606212" lon="21.5359187"><ele>282.0</ele><time>2026-04-27T13:56:22.141Z</time></trkpt><trkpt lat="39.7604186" lon="21.536081"><ele>283.5</ele><time>2026-04-27T13:56:23.141Z</time></trkpt><trkpt lat="39.7602151" lon="21.5362409"><ele>285.0</ele><time>2026-04-27T13:56:24.14Z</time></trkpt><trkpt lat="39.7600064" lon="21.5363879"><ele>285.0</ele><time>2026-04-27T13:56:25.14Z</time></trkpt><trkpt lat="39.7597995" lon="21.5365507"><ele>285.0</ele><time>2026-04-27T13:56:26.141Z</time></trkpt><trkpt lat="39.7595931" lon="21.5367144"><ele>286.0</ele><time>2026-04-27T13:56:27.14Z</time></trkpt><trkpt lat="39.759032" lon="21.5371679"><ele>286.0</ele><time>2026-04-27T13:56:30.141Z</time></trkpt><trkpt lat="39.7588496" lon="21.5373097"><ele>286.0</ele><time>2026-04-27T13:56:31.14Z</time></trkpt><trkpt lat="39.7586631" lon="21.5374403"><ele>286.0</ele><time>2026-04-27T13:56:32.141Z</time></trkpt><trkpt lat="39.7584621" lon="21.537579"><ele>286.0</ele><time>2026-04-27T13:56:33.14Z</time></trkpt><trkpt lat="39.7582572" lon="21.5377108"><ele>286.0</ele><time>2026-04-27T13:56:34.14Z</time></trkpt><trkpt lat="39.7580437" lon="21.5378389"><ele>286.5</ele><time>2026-04-27T13:56:35.141Z</time></trkpt><trkpt lat="39.7578301" lon="21.5379694"><ele>287.0</ele><time>2026-04-27T13:56:36.14Z</time></trkpt><trkpt lat="39.7576059" lon="21.5381128"><ele>286.0</ele><time>2026-04-27T13:56:37.14Z</time></trkpt><trkpt lat="39.7573721" lon="21.5382551"><ele>285.0</ele><time>2026-04-27T13:56:38.141Z</time></trkpt><trkpt lat="39.7571344" lon="21.5384078"><ele>285.0</ele><time>2026-04-27T13:56:39.141Z</time></trkpt><trkpt lat="39.7569041" lon="21.5385521"><ele>285.0</ele><time>2026-04-27T13:56:40.14Z</time></trkpt><trkpt lat="39.756662" lon="21.5387048"><ele>284.5</ele><time>2026-04-27T13:56:41.141Z</time></trkpt><trkpt lat="39.7564259" lon="21.5388543"><ele>284.0</ele><time>2026-04-27T13:56:42.141Z</time></trkpt><trkpt lat="39.7561795" lon="21.5390073"><ele>282.5</ele><time>2026-04-27T13:56:43.14Z</time></trkpt><trkpt lat="39.7559339" lon="21.5391733"><ele>281.0</ele><time>2026-04-27T13:56:44.14Z</time></trkpt><trkpt lat="39.7556994" lon="21.5393199"><ele>281.0</ele><time>2026-04-27T13:56:45.141Z</time></trkpt><trkpt lat="39.7554704" lon="21.5394914"><ele>281.0</ele><time>2026-04-27T13:56:46.141Z</time></trkpt><trkpt lat="39.7552308" lon="21.5396399"><ele>281.5</ele><time>2026-04-27T13:56:47.141Z</time></trkpt><trkpt lat="39.7549887" lon="21.5397905"><ele>282.0</ele><time>2026-04-27T13:56:48.14Z</time></trkpt><trkpt lat="39.754747" lon="21.5399223"><ele>282.0</ele><time>2026-04-27T13:56:49.14Z</time></trkpt><trkpt lat="39.7544996" lon="21.5400687"><ele>282.0</ele><time>2026-04-27T13:56:50.14Z</time></trkpt><trkpt lat="39.754256" lon="21.5402096"><ele>281.0</ele><time>2026-04-27T13:56:51.141Z</time></trkpt><trkpt lat="39.7540097" lon="21.5403552"><ele>280.0</ele><time>2026-04-27T13:56:52.14Z</time></trkpt><trkpt lat="39.7537665" lon="21.5405084"><ele>282.5</ele><time>2026-04-27T13:56:53.141Z</time></trkpt><trkpt lat="39.7535288" lon="21.5406515"><ele>285.0</ele><time>2026-04-27T13:56:54.141Z</time></trkpt><trkpt lat="39.7532935" lon="21.5407837"><ele>285.0</ele><time>2026-04-27T13:56:55.14Z</time></trkpt><trkpt lat="39.7530633" lon="21.5409243"><ele>285.0</ele><time>2026-04-27T13:56:56.141Z</time></trkpt><trkpt lat="39.7528373" lon="21.5410562"><ele>283.5</ele><time>2026-04-27T13:56:57.14Z</time></trkpt><trkpt lat="39.7526056" lon="21.5411837"><ele>282.0</ele><time>2026-04-27T13:56:58.14Z</time></trkpt><trkpt lat="39.7523839" lon="21.5413096"><ele>282.0</ele><time>2026-04-27T13:56:59.14Z</time></trkpt><trkpt lat="39.7521708" lon="21.5414372"><ele>282.0</ele><time>2026-04-27T13:57:00.141Z</time></trkpt><trkpt lat="39.7519614" lon="21.5415661"><ele>281.5</ele><time>2026-04-27T13:57:01.141Z</time></trkpt><trkpt lat="39.7517503" lon="21.5416931"><ele>281.0</ele><time>2026-04-27T13:57:02.141Z</time></trkpt><trkpt lat="39.7515371" lon="21.5418177"><ele>281.0</ele><time>2026-04-27T13:57:03.141Z</time></trkpt><trkpt lat="39.7513267" lon="21.5419487"><ele>281.0</ele><time>2026-04-27T13:57:04.14Z</time></trkpt><trkpt lat="39.7511141" lon="21.5420737"><ele>279.5</ele><time>2026-04-27T13:57:05.14Z</time></trkpt><trkpt lat="39.7509023" lon="21.5421985"><ele>278.0</ele><time>2026-04-27T13:57:06.141Z</time></trkpt><trkpt lat="39.7506855" lon="21.5423283"><ele>278.0</ele><time>2026-04-27T13:57:07.141Z</time></trkpt><trkpt lat="39.7504628" lon="21.542452"><ele>278.0</ele><time>2026-04-27T13:57:08.14Z</time></trkpt><trkpt lat="39.7502415" lon="21.542575"><ele>278.0</ele><time>2026-04-27T13:57:09.141Z</time></trkpt><trkpt lat="39.7500239" lon="21.5427103"><ele>278.0</ele><time>2026-04-27T13:57:10.141Z</time></trkpt><trkpt lat="39.7498078" lon="21.5428331"><ele>276.0</ele><time>2026-04-27T13:57:11.141Z</time></trkpt><trkpt lat="39.7495874" lon="21.5429582"><ele>274.0</ele><time>2026-04-27T13:57:12.14Z</time></trkpt><trkpt lat="39.7493677" lon="21.5430911"><ele>274.0</ele><time>2026-04-27T13:57:13.141Z</time></trkpt><trkpt lat="39.7491377" lon="21.5432155"><ele>274.0</ele><time>2026-04-27T13:57:14.141Z</time></trkpt><trkpt lat="39.748911" lon="21.5433439"><ele>274.0</ele><time>2026-04-27T13:57:15.141Z</time></trkpt><trkpt lat="39.7486817" lon="21.5434737"><ele>274.0</ele><time>2026-04-27T13:57:16.141Z</time></trkpt><trkpt lat="39.7484552" lon="21.5436082"><ele>275.5</ele><time>2026-04-27T13:57:17.14Z</time></trkpt><trkpt lat="39.7482334" lon="21.5437295"><ele>277.0</ele><time>2026-04-27T13:57:18.14Z</time></trkpt><trkpt lat="39.7480183" lon="21.543859"><ele>277.0</ele><time>2026-04-27T13:57:19.141Z</time></trkpt><trkpt lat="39.7478003" lon="21.5439738"><ele>277.0</ele><time>2026-04-27T13:57:20.141Z</time></trkpt><trkpt lat="39.7475896" lon="21.5440954"><ele>271.5</ele><time>2026-04-27T13:57:21.141Z</time></trkpt><trkpt lat="39.7473818" lon="21.5442245"><ele>266.0</ele><time>2026-04-27T13:57:22.14Z</time></trkpt><trkpt lat="39.7471711" lon="21.5443537"><ele>266.0</ele><time>2026-04-27T13:57:23.14Z</time></trkpt><trkpt lat="39.7469618" lon="21.544478"><ele>266.0</ele><time>2026-04-27T13:57:24.141Z</time></trkpt><trkpt lat="39.7467546" lon="21.5446076"><ele>266.5</ele><time>2026-04-27T13:57:25.14Z</time></trkpt><trkpt lat="39.7465448" lon="21.5447208"><ele>267.0</ele><time>2026-04-27T13:57:26.14Z</time></trkpt><trkpt lat="39.7463381" lon="21.5448422"><ele>267.0</ele><time>2026-04-27T13:57:27.14Z</time></trkpt><trkpt lat="39.746135" lon="21.5449579"><ele>267.0</ele><time>2026-04-27T13:57:28.141Z</time></trkpt><trkpt lat="39.7459381" lon="21.5450834"><ele>267.0</ele><time>2026-04-27T13:57:29.141Z</time></trkpt><trkpt lat="39.7457453" lon="21.5452164"><ele>266.6666666666667</ele><time>2026-04-27T13:57:30.141Z</time></trkpt><trkpt lat="39.7455547" lon="21.5453566"><ele>266.33333333333337</ele><time>2026-04-27T13:57:31.14Z</time></trkpt><trkpt lat="39.7453594" lon="21.5454959"><ele>266.0</ele><time>2026-04-27T13:57:32.14Z</time></trkpt><trkpt lat="39.7451587" lon="21.5456237"><ele>269.33333333333337</ele><time>2026-04-27T13:57:33.14Z</time></trkpt><trkpt lat="39.7449518" lon="21.5457427"><ele>272.6666666666667</ele><time>2026-04-27T13:57:34.141Z</time></trkpt><trkpt lat="39.7447438" lon="21.5458184"><ele>276.0</ele><time>2026-04-27T13:57:35.14Z</time></trkpt><trkpt lat="39.7445383" lon="21.545873"><ele>277.6666666666667</ele><time>2026-04-27T13:57:36.14Z</time></trkpt><trkpt lat="39.7443298" lon="21.5459075"><ele>279.33333333333337</ele><time>2026-04-27T13:57:37.141Z</time></trkpt><trkpt lat="39.7441273" lon="21.5459454"><ele>281.0</ele><time>2026-04-27T13:57:38.141Z</time></trkpt><trkpt lat="39.7439397" lon="21.5459975"><ele>281.0</ele><time>2026-04-27T13:57:39.14Z</time></trkpt><trkpt lat="39.7437752" lon="21.5460726"><ele>281.0</ele><time>2026-04-27T13:57:40.141Z</time></trkpt><trkpt lat="39.7436249" lon="21.5461782"><ele>281.0</ele><time>2026-04-27T13:57:41.141Z</time></trkpt><trkpt lat="39.7434879" lon="21.5463219"><ele>276.33333333333337</ele><time>2026-04-27T13:57:42.14Z</time></trkpt><trkpt lat="39.7433645" lon="21.5464952"><ele>271.6666666666667</ele><time>2026-04-27T13:57:43.14Z</time></trkpt><trkpt lat="39.7432645" lon="21.5466699"><ele>267.0</ele><time>2026-04-27T13:57:44.141Z</time></trkpt><trkpt lat="39.7431871" lon="21.5468349"><ele>267.0</ele><time>2026-04-27T13:57:45.14Z</time></trkpt><trkpt lat="39.7431295" lon="21.5469914"><ele>267.0</ele><time>2026-04-27T13:57:46.141Z</time></trkpt><trkpt lat="39.7430975" lon="21.547122"><ele>267.0</ele><time>2026-04-27T13:57:47.14Z</time></trkpt><trkpt lat="39.7430937" lon="21.5472429"><ele>267.0</ele><time>2026-04-27T13:57:48.141Z</time></trkpt><trkpt lat="39.7430987" lon="21.5473425"><ele>267.0</ele><time>2026-04-27T13:57:49.141Z</time></trkpt><trkpt lat="39.7431064" lon="21.54743"><ele>267.6666666666667</ele><time>2026-04-27T13:57:50.141Z</time></trkpt><trkpt lat="39.7430521" lon="21.5475575"><ele>268.3333333333333</ele><time>2026-04-27T13:57:52.14Z</time></trkpt><trkpt lat="39.7429906" lon="21.5475772"><ele>269.0</ele><time>2026-04-27T13:57:53.14Z</time></trkpt><trkpt lat="39.7429167" lon="21.5475688"><ele>269.66666666666663</ele><time>2026-04-27T13:57:54.14Z</time></trkpt><trkpt lat="39.7428336" lon="21.54758"><ele>270.3333333333333</ele><time>2026-04-27T13:57:55.141Z</time></trkpt><trkpt lat="39.742742" lon="21.5476091"><ele>271.0</ele><time>2026-04-27T13:57:56.141Z</time></trkpt><trkpt lat="39.7426538" lon="21.5477104"><ele>271.0</ele><time>2026-04-27T13:57:57.141Z</time></trkpt><trkpt lat="39.7425568" lon="21.5478069"><ele>271.0</ele><time>2026-04-27T13:57:58.14Z</time></trkpt><trkpt lat="39.7424412" lon="21.5478712"><ele>271.0</ele><time>2026-04-27T13:57:59.141Z</time></trkpt><trkpt lat="39.742294" lon="21.5479315"><ele>271.0</ele><time>2026-04-27T13:58:00.141Z</time></trkpt><trkpt lat="39.742123" lon="21.5479716"><ele>271.0</ele><time>2026-04-27T13:58:01.141Z</time></trkpt><trkpt lat="39.7419554" lon="21.5480081"><ele>271.0</ele><time>2026-04-27T13:58:02.141Z</time></trkpt><trkpt lat="39.7417908" lon="21.5480545"><ele>271.0</ele><time>2026-04-27T13:58:03.141Z</time></trkpt><trkpt lat="39.7416223" lon="21.5481005"><ele>271.3333333333333</ele><time>2026-04-27T13:58:04.14Z</time></trkpt><trkpt lat="39.7414649" lon="21.5481497"><ele>271.6666666666667</ele><time>2026-04-27T13:58:05.141Z</time></trkpt><trkpt lat="39.7413078" lon="21.5482376"><ele>272.0</ele><time>2026-04-27T13:58:06.14Z</time></trkpt><trkpt lat="39.7411581" lon="21.5483508"><ele>272.0</ele><time>2026-04-27T13:58:07.141Z</time></trkpt><trkpt lat="39.7410095" lon="21.5484763"><ele>272.0</ele><time>2026-04-27T13:58:08.141Z</time></trkpt><trkpt lat="39.7408639" lon="21.5486018"><ele>272.0</ele><time>2026-04-27T13:58:09.141Z</time></trkpt><trkpt lat="39.7407314" lon="21.5487246"><ele>272.0</ele><time>2026-04-27T13:58:10.141Z</time></trkpt><trkpt lat="39.7405996" lon="21.5488501"><ele>272.0</ele><time>2026-04-27T13:58:11.14Z</time></trkpt><trkpt lat="39.7404894" lon="21.5489919"><ele>272.0</ele><time>2026-04-27T13:58:12.141Z</time></trkpt><trkpt lat="39.7403906" lon="21.5491542"><ele>272.0</ele><time>2026-04-27T13:58:13.141Z</time></trkpt><trkpt lat="39.7403199" lon="21.5493344"><ele>272.0</ele><time>2026-04-27T13:58:14.141Z</time></trkpt><trkpt lat="39.7402777" lon="21.5495384"><ele>272.0</ele><time>2026-04-27T13:58:15.14Z</time></trkpt><trkpt lat="39.7402509" lon="21.549745"><ele>271.25</ele><time>2026-04-27T13:58:16.141Z</time></trkpt><trkpt lat="39.740224" lon="21.5499448"><ele>270.5</ele><time>2026-04-27T13:58:17.14Z</time></trkpt><trkpt lat="39.740186" lon="21.5501186"><ele>269.75</ele><time>2026-04-27T13:58:18.141Z</time></trkpt><trkpt lat="39.7401208" lon="21.5502813"><ele>269.0</ele><time>2026-04-27T13:58:19.14Z</time></trkpt><trkpt lat="39.7400397" lon="21.5504356"><ele>269.0</ele><time>2026-04-27T13:58:20.141Z</time></trkpt><trkpt lat="39.7399119" lon="21.5505367"><ele>269.0</ele><time>2026-04-27T13:58:21.141Z</time></trkpt><trkpt lat="39.73979" lon="21.5506015"><ele>269.0</ele><time>2026-04-27T13:58:22.14Z</time></trkpt><trkpt lat="39.7396607" lon="21.5506302"><ele>269.0</ele><time>2026-04-27T13:58:23.14Z</time></trkpt><trkpt lat="39.7395226" lon="21.5505854"><ele>269.0</ele><time>2026-04-27T13:58:24.141Z</time></trkpt><trkpt lat="39.7393976" lon="21.5505405"><ele>269.0</ele><time>2026-04-27T13:58:25.14Z</time></trkpt><trkpt lat="39.7392761" lon="21.5505008"><ele>269.0</ele><time>2026-04-27T13:58:26.14Z</time></trkpt><trkpt lat="39.7391677" lon="21.5505169"><ele>269.0</ele><time>2026-04-27T13:58:27.14Z</time></trkpt><trkpt lat="39.7390614" lon="21.550564"><ele>269.4</ele><time>2026-04-27T13:58:28.14Z</time></trkpt><trkpt lat="39.738962" lon="21.55064"><ele>269.79999999999995</ele><time>2026-04-27T13:58:29.141Z</time></trkpt><trkpt lat="39.7388734" lon="21.5507167"><ele>270.20000000000005</ele><time>2026-04-27T13:58:30.14Z</time></trkpt><trkpt lat="39.738798" lon="21.5507849"><ele>270.6</ele><time>2026-04-27T13:58:31.14Z</time></trkpt><trkpt lat="39.7387398" lon="21.5508463"><ele>271.0</ele><time>2026-04-27T13:58:34.14Z</time></trkpt><trkpt lat="39.7386814" lon="21.5508938"><ele>271.0</ele><time>2026-04-27T13:58:37.14Z</time></trkpt><trkpt lat="39.7386373" lon="21.5509641"><ele>271.0</ele><time>2026-04-27T13:58:38.14Z</time></trkpt><trkpt lat="39.7386074" lon="21.5510784"><ele>271.0</ele><time>2026-04-27T13:58:39.14Z</time></trkpt><trkpt lat="39.7385894" lon="21.5512016"><ele>271.0</ele><time>2026-04-27T13:58:40.141Z</time></trkpt><trkpt lat="39.7385735" lon="21.5513235"><ele>271.0</ele><time>2026-04-27T13:58:41.141Z</time></trkpt><trkpt lat="39.738567" lon="21.551463"><ele>270.5</ele><time>2026-04-27T13:58:42.141Z</time></trkpt><trkpt lat="39.7385555" lon="21.5515988"><ele>270.0</ele><time>2026-04-27T13:58:43.141Z</time></trkpt><trkpt lat="39.7385509" lon="21.5517477"><ele>269.5</ele><time>2026-04-27T13:58:44.141Z</time></trkpt><trkpt lat="39.738541" lon="21.5518969"><ele>269.0</ele><time>2026-04-27T13:58:45.14Z</time></trkpt><trkpt lat="39.7385297" lon="21.5520523"><ele>269.0</ele><time>2026-04-27T13:58:46.141Z</time></trkpt><trkpt lat="39.7385176" lon="21.552219"><ele>269.0</ele><time>2026-04-27T13:58:47.141Z</time></trkpt><trkpt lat="39.7385047" lon="21.5523903"><ele>269.0</ele><time>2026-04-27T13:58:48.141Z</time></trkpt><trkpt lat="39.7384945" lon="21.5525662"><ele>269.0</ele><time>2026-04-27T13:58:49.141Z</time></trkpt><trkpt lat="39.7384827" lon="21.552743"><ele>269.0</ele><time>2026-04-27T13:58:50.14Z</time></trkpt><trkpt lat="39.7384705" lon="21.5529236"><ele>269.0</ele><time>2026-04-27T13:58:51.14Z</time></trkpt><trkpt lat="39.7384544" lon="21.5531067"><ele>269.0</ele><time>2026-04-27T13:58:52.14Z</time></trkpt><trkpt lat="39.7384362" lon="21.5532913"><ele>269.0</ele><time>2026-04-27T13:58:53.141Z</time></trkpt><trkpt lat="39.738402" lon="21.5534799"><ele>269.0</ele><time>2026-04-27T13:58:54.141Z</time></trkpt><trkpt lat="39.7383624" lon="21.5536594"><ele>269.0</ele><time>2026-04-27T13:58:55.141Z</time></trkpt><trkpt lat="39.7383204" lon="21.5538477"><ele>269.0</ele><time>2026-04-27T13:58:56.14Z</time></trkpt><trkpt lat="39.7382721" lon="21.5540286"><ele>269.0</ele><time>2026-04-27T13:58:57.14Z</time></trkpt><trkpt lat="39.7382159" lon="21.5542029"><ele>269.6666666666667</ele><time>2026-04-27T13:58:58.141Z</time></trkpt><trkpt lat="39.738141" lon="21.5543838"><ele>270.3333333333333</ele><time>2026-04-27T13:58:59.141Z</time></trkpt><trkpt lat="39.7380548" lon="21.5545838"><ele>271.0</ele><time>2026-04-27T13:59:00.14Z</time></trkpt><trkpt lat="39.7379606" lon="21.5547709"><ele>271.0</ele><time>2026-04-27T13:59:01.141Z</time></trkpt><trkpt lat="39.7378589" lon="21.5549526"><ele>271.0</ele><time>2026-04-27T13:59:02.14Z</time></trkpt><trkpt lat="39.737744" lon="21.5551484"><ele>271.0</ele><time>2026-04-27T13:59:03.141Z</time></trkpt><trkpt lat="39.7376321" lon="21.5553408"><ele>269.66666666666663</ele><time>2026-04-27T13:59:04.14Z</time></trkpt><trkpt lat="39.7375053" lon="21.5555411"><ele>268.3333333333333</ele><time>2026-04-27T13:59:05.14Z</time></trkpt><trkpt lat="39.7373902" lon="21.5557482"><ele>267.0</ele><time>2026-04-27T13:59:06.141Z</time></trkpt><trkpt lat="39.737257" lon="21.5559667"><ele>267.0</ele><time>2026-04-27T13:59:07.141Z</time></trkpt><trkpt lat="39.7371211" lon="21.5561719"><ele>267.0</ele><time>2026-04-27T13:59:08.141Z</time></trkpt><trkpt lat="39.7369896" lon="21.5563734"><ele>267.0</ele><time>2026-04-27T13:59:09.14Z</time></trkpt><trkpt lat="39.7368565" lon="21.5565787"><ele>266.0</ele><time>2026-04-27T13:59:10.141Z</time></trkpt><trkpt lat="39.7367227" lon="21.5567801"><ele>265.0</ele><time>2026-04-27T13:59:11.141Z</time></trkpt><trkpt lat="39.7365799" lon="21.5569886"><ele>264.0</ele><time>2026-04-27T13:59:12.141Z</time></trkpt><trkpt lat="39.7364452" lon="21.557188"><ele>263.6666666666667</ele><time>2026-04-27T13:59:13.14Z</time></trkpt><trkpt lat="39.7363086" lon="21.5573878"><ele>263.33333333333337</ele><time>2026-04-27T13:59:14.14Z</time></trkpt><trkpt lat="39.7361755" lon="21.5575922"><ele>263.0</ele><time>2026-04-27T13:59:15.14Z</time></trkpt><trkpt lat="39.7360429" lon="21.5577995"><ele>260.6666666666667</ele><time>2026-04-27T13:59:16.14Z</time></trkpt><trkpt lat="39.735909" lon="21.5580098"><ele>258.3333333333333</ele><time>2026-04-27T13:59:17.141Z</time></trkpt><trkpt lat="39.7357678" lon="21.5582264"><ele>256.0</ele><time>2026-04-27T13:59:18.141Z</time></trkpt><trkpt lat="39.7356274" lon="21.5584429"><ele>256.0</ele><time>2026-04-27T13:59:19.141Z</time></trkpt><trkpt lat="39.735488" lon="21.558658"><ele>256.0</ele><time>2026-04-27T13:59:20.14Z</time></trkpt><trkpt lat="39.7353448" lon="21.5588814"><ele>256.0</ele><time>2026-04-27T13:59:21.141Z</time></trkpt><trkpt lat="39.73519" lon="21.5591107"><ele>261.5</ele><time>2026-04-27T13:59:22.141Z</time></trkpt><trkpt lat="39.7350368" lon="21.5593603"><ele>267.0</ele><time>2026-04-27T13:59:23.14Z</time></trkpt><trkpt lat="39.7348823" lon="21.559608"><ele>267.0</ele><time>2026-04-27T13:59:24.14Z</time></trkpt><trkpt lat="39.7347262" lon="21.5598591"><ele>267.0</ele><time>2026-04-27T13:59:25.141Z</time></trkpt><trkpt lat="39.7345713" lon="21.560117"><ele>265.5</ele><time>2026-04-27T13:59:26.14Z</time></trkpt><trkpt lat="39.7344098" lon="21.5603674"><ele>264.0</ele><time>2026-04-27T13:59:27.141Z</time></trkpt><trkpt lat="39.7342573" lon="21.5605996"><ele>264.0</ele><time>2026-04-27T13:59:28.14Z</time></trkpt><trkpt lat="39.734104" lon="21.5608316"><ele>264.0</ele><time>2026-04-27T13:59:29.141Z</time></trkpt><trkpt lat="39.7339437" lon="21.5610597"><ele>266.0</ele><time>2026-04-27T13:59:30.141Z</time></trkpt><trkpt lat="39.7337768" lon="21.5612941"><ele>268.0</ele><time>2026-04-27T13:59:31.141Z</time></trkpt><trkpt lat="39.7335949" lon="21.5615243"><ele>266.5</ele><time>2026-04-27T13:59:32.14Z</time></trkpt><trkpt lat="39.7334173" lon="21.561751"><ele>265.0</ele><time>2026-04-27T13:59:33.141Z</time></trkpt><trkpt lat="39.7332437" lon="21.5619757"><ele>268.0</ele><time>2026-04-27T13:59:34.141Z</time></trkpt><trkpt lat="39.7330672" lon="21.5621762"><ele>271.0</ele><time>2026-04-27T13:59:35.14Z</time></trkpt><trkpt lat="39.7328892" lon="21.5624171"><ele>268.0</ele><time>2026-04-27T13:59:36.141Z</time></trkpt><trkpt lat="39.7327053" lon="21.5626291"><ele>265.0</ele><time>2026-04-27T13:59:37.141Z</time></trkpt><trkpt lat="39.7325286" lon="21.5628339"><ele>263.5</ele><time>2026-04-27T13:59:38.141Z</time></trkpt><trkpt lat="39.7323485" lon="21.5630362"><ele>262.0</ele><time>2026-04-27T13:59:39.14Z</time></trkpt><trkpt lat="39.732167" lon="21.5632486"><ele>262.0</ele><time>2026-04-27T13:59:40.14Z</time></trkpt><trkpt lat="39.7319873" lon="21.5634578"><ele>262.0</ele><time>2026-04-27T13:59:41.141Z</time></trkpt><trkpt lat="39.7318154" lon="21.5636644"><ele>264.0</ele><time>2026-04-27T13:59:42.141Z</time></trkpt><trkpt lat="39.7316576" lon="21.5638471"><ele>266.0</ele><time>2026-04-27T13:59:43.141Z</time></trkpt><trkpt lat="39.7314943" lon="21.5640159"><ele>268.0</ele><time>2026-04-27T13:59:44.141Z</time></trkpt><trkpt lat="39.731327" lon="21.5641605"><ele>268.0</ele><time>2026-04-27T13:59:45.14Z</time></trkpt><trkpt lat="39.7311414" lon="21.5642851"><ele>268.0</ele><time>2026-04-27T13:59:46.141Z</time></trkpt><trkpt lat="39.7309362" lon="21.5644108"><ele>268.0</ele><time>2026-04-27T13:59:47.141Z</time></trkpt><trkpt lat="39.7307206" lon="21.564501"><ele>272.0</ele><time>2026-04-27T13:59:48.14Z</time></trkpt><trkpt lat="39.7305012" lon="21.5645859"><ele>276.0</ele><time>2026-04-27T13:59:49.14Z</time></trkpt><trkpt lat="39.7302896" lon="21.5646738"><ele>272.6666666666667</ele><time>2026-04-27T13:59:50.141Z</time></trkpt><trkpt lat="39.7300817" lon="21.5647552"><ele>269.33333333333337</ele><time>2026-04-27T13:59:51.141Z</time></trkpt><trkpt lat="39.7299014" lon="21.564831"><ele>266.0</ele><time>2026-04-27T13:59:52.141Z</time></trkpt><trkpt lat="39.7297343" lon="21.5649023"><ele>266.0</ele><time>2026-04-27T13:59:53.14Z</time></trkpt><trkpt lat="39.7296003" lon="21.5649659"><ele>266.0</ele><time>2026-04-27T13:59:54.14Z</time></trkpt><trkpt lat="39.7294791" lon="21.5650667"><ele>266.0</ele><time>2026-04-27T13:59:55.141Z</time></trkpt><trkpt lat="39.7293817" lon="21.5652034"><ele>266.0</ele><time>2026-04-27T13:59:56.14Z</time></trkpt><trkpt lat="39.7293117" lon="21.5653531"><ele>262.0</ele><time>2026-04-27T13:59:57.141Z</time></trkpt><trkpt lat="39.7292794" lon="21.5655359"><ele>258.0</ele><time>2026-04-27T13:59:58.14Z</time></trkpt><trkpt lat="39.7292741" lon="21.5657304"><ele>254.0</ele><time>2026-04-27T13:59:59.141Z</time></trkpt><trkpt lat="39.7293194" lon="21.5659551"><ele>255.33333333333334</ele><time>2026-04-27T14:00:00.141Z</time></trkpt><trkpt lat="39.7294031" lon="21.5661829"><ele>256.6666666666667</ele><time>2026-04-27T14:00:01.141Z</time></trkpt><trkpt lat="39.7295221" lon="21.5664082"><ele>258.0</ele><time>2026-04-27T14:00:02.14Z</time></trkpt><trkpt lat="39.7296613" lon="21.5666328"><ele>258.0</ele><time>2026-04-27T14:00:03.141Z</time></trkpt><trkpt lat="39.7298002" lon="21.5668563"><ele>258.0</ele><time>2026-04-27T14:00:04.14Z</time></trkpt><trkpt lat="39.7299414" lon="21.5670833"><ele>258.0</ele><time>2026-04-27T14:00:05.14Z</time></trkpt><trkpt lat="39.730082" lon="21.5673147"><ele>258.6666666666667</ele><time>2026-04-27T14:00:06.14Z</time></trkpt><trkpt lat="39.7302224" lon="21.5675322"><ele>259.33333333333337</ele><time>2026-04-27T14:00:07.14Z</time></trkpt><trkpt lat="39.7303628" lon="21.5677613"><ele>260.0</ele><time>2026-04-27T14:00:08.141Z</time></trkpt><trkpt lat="39.7304962" lon="21.567976"><ele>257.6666666666667</ele><time>2026-04-27T14:00:09.14Z</time></trkpt><trkpt lat="39.7306369" lon="21.5681951"><ele>255.33333333333331</ele><time>2026-04-27T14:00:10.141Z</time></trkpt><trkpt lat="39.7307615" lon="21.5684017"><ele>253.0</ele><time>2026-04-27T14:00:11.141Z</time></trkpt><trkpt lat="39.7308786" lon="21.568598"><ele>251.66666666666666</ele><time>2026-04-27T14:00:12.141Z</time></trkpt><trkpt lat="39.730987" lon="21.5687843"><ele>250.33333333333331</ele><time>2026-04-27T14:00:13.141Z</time></trkpt><trkpt lat="39.7310997" lon="21.568978"><ele>249.0</ele><time>2026-04-27T14:00:14.14Z</time></trkpt><trkpt lat="39.7311975" lon="21.5691849"><ele>250.66666666666669</ele><time>2026-04-27T14:00:15.14Z</time></trkpt><trkpt lat="39.7312904" lon="21.5693936"><ele>252.33333333333334</ele><time>2026-04-27T14:00:16.141Z</time></trkpt><trkpt lat="39.7313695" lon="21.5696214"><ele>254.0</ele><time>2026-04-27T14:00:17.14Z</time></trkpt><trkpt lat="39.7314375" lon="21.5698536"><ele>254.0</ele><time>2026-04-27T14:00:18.14Z</time></trkpt><trkpt lat="39.7314906" lon="21.5701009"><ele>254.0</ele><time>2026-04-27T14:00:19.14Z</time></trkpt><trkpt lat="39.7315378" lon="21.5703614"><ele>254.0</ele><time>2026-04-27T14:00:20.141Z</time></trkpt><trkpt lat="39.7315774" lon="21.5706456"><ele>252.66666666666669</ele><time>2026-04-27T14:00:21.141Z</time></trkpt><trkpt lat="39.7316031" lon="21.5709316"><ele>251.33333333333331</ele><time>2026-04-27T14:00:22.14Z</time></trkpt><trkpt lat="39.731632" lon="21.5712129"><ele>250.0</ele><time>2026-04-27T14:00:23.14Z</time></trkpt><trkpt lat="39.7316608" lon="21.571495"><ele>249.66666666666666</ele><time>2026-04-27T14:00:24.141Z</time></trkpt><trkpt lat="39.7316892" lon="21.5717799"><ele>249.33333333333331</ele><time>2026-04-27T14:00:25.141Z</time></trkpt><trkpt lat="39.7317095" lon="21.5720523"><ele>249.0</ele><time>2026-04-27T14:00:26.14Z</time></trkpt><trkpt lat="39.7317358" lon="21.5723282"><ele>248.66666666666669</ele><time>2026-04-27T14:00:27.14Z</time></trkpt><trkpt lat="39.7317609" lon="21.5726063"><ele>248.33333333333334</ele><time>2026-04-27T14:00:28.141Z</time></trkpt><trkpt lat="39.7317944" lon="21.5728742"><ele>248.0</ele><time>2026-04-27T14:00:29.14Z</time></trkpt><trkpt lat="39.7318232" lon="21.5731436"><ele>247.33333333333334</ele><time>2026-04-27T14:00:30.141Z</time></trkpt><trkpt lat="39.7318508" lon="21.5733913"><ele>246.66666666666669</ele><time>2026-04-27T14:00:31.141Z</time></trkpt><trkpt lat="39.7318748" lon="21.5736257"><ele>246.0</ele><time>2026-04-27T14:00:32.141Z</time></trkpt><trkpt lat="39.731902" lon="21.5738541"><ele>247.0</ele><time>2026-04-27T14:00:33.141Z</time></trkpt><trkpt lat="39.7319264" lon="21.5740852"><ele>248.0</ele><time>2026-04-27T14:00:34.141Z</time></trkpt><trkpt lat="39.7319467" lon="21.5743317"><ele>249.0</ele><time>2026-04-27T14:00:35.141Z</time></trkpt><trkpt lat="39.7319762" lon="21.574594"><ele>249.0</ele><time>2026-04-27T14:00:36.141Z</time></trkpt><trkpt lat="39.7320044" lon="21.5748709"><ele>249.0</ele><time>2026-04-27T14:00:37.141Z</time></trkpt><trkpt lat="39.7320297" lon="21.5751452"><ele>249.0</ele><time>2026-04-27T14:00:38.14Z</time></trkpt><trkpt lat="39.7320609" lon="21.57542"><ele>248.33333333333331</ele><time>2026-04-27T14:00:39.141Z</time></trkpt><trkpt lat="39.7320897" lon="21.5757006"><ele>247.66666666666666</ele><time>2026-04-27T14:00:40.14Z</time></trkpt><trkpt lat="39.7321141" lon="21.5759739"><ele>247.0</ele><time>2026-04-27T14:00:41.141Z</time></trkpt><trkpt lat="39.7321461" lon="21.5762534"><ele>246.66666666666666</ele><time>2026-04-27T14:00:42.141Z</time></trkpt><trkpt lat="39.7321609" lon="21.5765284"><ele>246.33333333333331</ele><time>2026-04-27T14:00:43.141Z</time></trkpt><trkpt lat="39.7321929" lon="21.5768018"><ele>246.0</ele><time>2026-04-27T14:00:44.141Z</time></trkpt><trkpt lat="39.7322221" lon="21.5770971"><ele>246.0</ele><time>2026-04-27T14:00:45.14Z</time></trkpt><trkpt lat="39.7322511" lon="21.577403"><ele>246.0</ele><time>2026-04-27T14:00:46.141Z</time></trkpt><trkpt lat="39.7322899" lon="21.5777339"><ele>245.5</ele><time>2026-04-27T14:00:47.14Z</time></trkpt><trkpt lat="39.7323175" lon="21.5780616"><ele>245.0</ele><time>2026-04-27T14:00:48.14Z</time></trkpt><trkpt lat="39.732342" lon="21.5783856"><ele>244.0</ele><time>2026-04-27T14:00:49.14Z</time></trkpt><trkpt lat="39.7323604" lon="21.5786925"><ele>243.0</ele><time>2026-04-27T14:00:50.141Z</time></trkpt><trkpt lat="39.7323794" lon="21.5789787"><ele>243.0</ele><time>2026-04-27T14:00:51.141Z</time></trkpt><trkpt lat="39.7324006" lon="21.5792606"><ele>243.0</ele><time>2026-04-27T14:00:52.14Z</time></trkpt><trkpt lat="39.732425" lon="21.5795403"><ele>243.0</ele><time>2026-04-27T14:00:53.141Z</time></trkpt><trkpt lat="39.7324478" lon="21.5798188"><ele>244.0</ele><time>2026-04-27T14:00:54.14Z</time></trkpt><trkpt lat="39.7324732" lon="21.5800983"><ele>245.0</ele><time>2026-04-27T14:00:55.14Z</time></trkpt><trkpt lat="39.7324938" lon="21.5803755"><ele>246.0</ele><time>2026-04-27T14:00:56.141Z</time></trkpt><trkpt lat="39.7325196" lon="21.5806435"><ele>246.0</ele><time>2026-04-27T14:00:57.141Z</time></trkpt><trkpt lat="39.732548" lon="21.5809095"><ele>246.0</ele><time>2026-04-27T14:00:58.141Z</time></trkpt><trkpt lat="39.7325772" lon="21.581178"><ele>246.0</ele><time>2026-04-27T14:00:59.141Z</time></trkpt><trkpt lat="39.7325945" lon="21.5814413"><ele>245.33333333333331</ele><time>2026-04-27T14:01:00.14Z</time></trkpt><trkpt lat="39.7326081" lon="21.5817147"><ele>244.66666666666666</ele><time>2026-04-27T14:01:01.14Z</time></trkpt><trkpt lat="39.7326138" lon="21.5820034"><ele>244.0</ele><time>2026-04-27T14:01:02.141Z</time></trkpt><trkpt lat="39.7326011" lon="21.5822871"><ele>244.0</ele><time>2026-04-27T14:01:03.141Z</time></trkpt><trkpt lat="39.7325748" lon="21.5825666"><ele>244.0</ele><time>2026-04-27T14:01:04.14Z</time></trkpt><trkpt lat="39.7325302" lon="21.5828442"><ele>244.0</ele><time>2026-04-27T14:01:05.14Z</time></trkpt><trkpt lat="39.7324727" lon="21.5831145"><ele>244.0</ele><time>2026-04-27T14:01:06.141Z</time></trkpt><trkpt lat="39.7323883" lon="21.5833812"><ele>244.0</ele><time>2026-04-27T14:01:07.141Z</time></trkpt><trkpt lat="39.732288" lon="21.5836542"><ele>243.0</ele><time>2026-04-27T14:01:08.141Z</time></trkpt><trkpt lat="39.7321615" lon="21.5839373"><ele>242.0</ele><time>2026-04-27T14:01:09.14Z</time></trkpt><trkpt lat="39.7320499" lon="21.5842089"><ele>242.0</ele><time>2026-04-27T14:01:10.14Z</time></trkpt><trkpt lat="39.7319321" lon="21.5844918"><ele>242.0</ele><time>2026-04-27T14:01:11.141Z</time></trkpt><trkpt lat="39.7318245" lon="21.5847655"><ele>241.0</ele><time>2026-04-27T14:01:12.141Z</time></trkpt><trkpt lat="39.731721" lon="21.5850446"><ele>240.0</ele><time>2026-04-27T14:01:13.141Z</time></trkpt><trkpt lat="39.7316163" lon="21.5853222"><ele>241.5</ele><time>2026-04-27T14:01:14.14Z</time></trkpt><trkpt lat="39.7315028" lon="21.5855957"><ele>243.0</ele><time>2026-04-27T14:01:15.14Z</time></trkpt><trkpt lat="39.731387" lon="21.5858644"><ele>243.0</ele><time>2026-04-27T14:01:16.141Z</time></trkpt><trkpt lat="39.7312778" lon="21.5861377"><ele>243.0</ele><time>2026-04-27T14:01:17.141Z</time></trkpt><trkpt lat="39.7311752" lon="21.5863962"><ele>243.0</ele><time>2026-04-27T14:01:18.141Z</time></trkpt><trkpt lat="39.7310826" lon="21.5866483"><ele>243.0</ele><time>2026-04-27T14:01:19.14Z</time></trkpt><trkpt lat="39.7309831" lon="21.5868993"><ele>243.0</ele><time>2026-04-27T14:01:20.14Z</time></trkpt><trkpt lat="39.7308867" lon="21.5871466"><ele>243.0</ele><time>2026-04-27T14:01:21.14Z</time></trkpt><trkpt lat="39.7307894" lon="21.5874045"><ele>243.0</ele><time>2026-04-27T14:01:22.141Z</time></trkpt><trkpt lat="39.7306877" lon="21.5876517"><ele>243.0</ele><time>2026-04-27T14:01:23.14Z</time></trkpt><trkpt lat="39.7305919" lon="21.5878924"><ele>245.0</ele><time>2026-04-27T14:01:24.14Z</time></trkpt><trkpt lat="39.7304984" lon="21.5881393"><ele>247.0</ele><time>2026-04-27T14:01:25.141Z</time></trkpt><trkpt lat="39.7304093" lon="21.5883763"><ele>249.0</ele><time>2026-04-27T14:01:26.141Z</time></trkpt><trkpt lat="39.7303169" lon="21.588608"><ele>249.66666666666669</ele><time>2026-04-27T14:01:27.14Z</time></trkpt><trkpt lat="39.7302251" lon="21.588846"><ele>250.33333333333334</ele><time>2026-04-27T14:01:28.14Z</time></trkpt><trkpt lat="39.7301306" lon="21.5890783"><ele>251.0</ele><time>2026-04-27T14:01:29.14Z</time></trkpt><trkpt lat="39.7300323" lon="21.58931"><ele>247.66666666666669</ele><time>2026-04-27T14:01:30.141Z</time></trkpt><trkpt lat="39.7299234" lon="21.5895471"><ele>244.33333333333331</ele><time>2026-04-27T14:01:31.141Z</time></trkpt><trkpt lat="39.72981" lon="21.5897771"><ele>241.0</ele><time>2026-04-27T14:01:32.14Z</time></trkpt><trkpt lat="39.7296903" lon="21.5900035"><ele>241.0</ele><time>2026-04-27T14:01:33.141Z</time></trkpt><trkpt lat="39.7295625" lon="21.5902183"><ele>241.0</ele><time>2026-04-27T14:01:34.141Z</time></trkpt><trkpt lat="39.7294259" lon="21.5904251"><ele>241.0</ele><time>2026-04-27T14:01:35.141Z</time></trkpt><trkpt lat="39.7292902" lon="21.5906269"><ele>241.33333333333331</ele><time>2026-04-27T14:01:36.14Z</time></trkpt><trkpt lat="39.7291484" lon="21.5908241"><ele>241.66666666666669</ele><time>2026-04-27T14:01:37.14Z</time></trkpt><trkpt lat="39.7290128" lon="21.5910308"><ele>242.0</ele><time>2026-04-27T14:01:38.14Z</time></trkpt><trkpt lat="39.7288688" lon="21.5912322"><ele>242.0</ele><time>2026-04-27T14:01:39.14Z</time></trkpt><trkpt lat="39.7287248" lon="21.5914327"><ele>242.0</ele><time>2026-04-27T14:01:40.141Z</time></trkpt><trkpt lat="39.7285815" lon="21.5916406"><ele>242.0</ele><time>2026-04-27T14:01:41.141Z</time></trkpt><trkpt lat="39.7284422" lon="21.5918573"><ele>241.0</ele><time>2026-04-27T14:01:42.14Z</time></trkpt><trkpt lat="39.7282967" lon="21.592065"><ele>240.0</ele><time>2026-04-27T14:01:43.141Z</time></trkpt><trkpt lat="39.7281505" lon="21.59227"><ele>239.0</ele><time>2026-04-27T14:01:44.141Z</time></trkpt><trkpt lat="39.7280061" lon="21.5924711"><ele>239.0</ele><time>2026-04-27T14:01:45.14Z</time></trkpt><trkpt lat="39.7278627" lon="21.5926712"><ele>239.0</ele><time>2026-04-27T14:01:46.141Z</time></trkpt><trkpt lat="39.7277164" lon="21.5928607"><ele>239.0</ele><time>2026-04-27T14:01:47.141Z</time></trkpt><trkpt lat="39.7275584" lon="21.5930327"><ele>239.0</ele><time>2026-04-27T14:01:48.14Z</time></trkpt><trkpt lat="39.7273983" lon="21.593174"><ele>239.0</ele><time>2026-04-27T14:01:49.14Z</time></trkpt><trkpt lat="39.7272091" lon="21.593285"><ele>239.0</ele><time>2026-04-27T14:01:50.14Z</time></trkpt><trkpt lat="39.727001" lon="21.5933616"><ele>240.33333333333334</ele><time>2026-04-27T14:01:51.141Z</time></trkpt><trkpt lat="39.726783" lon="21.5934236"><ele>241.66666666666669</ele><time>2026-04-27T14:01:52.14Z</time></trkpt><trkpt lat="39.7265661" lon="21.5934803"><ele>243.0</ele><time>2026-04-27T14:01:53.141Z</time></trkpt><trkpt lat="39.7263571" lon="21.5935357"><ele>243.0</ele><time>2026-04-27T14:01:54.14Z</time></trkpt><trkpt lat="39.7261545" lon="21.5935925"><ele>243.0</ele><time>2026-04-27T14:01:55.14Z</time></trkpt><trkpt lat="39.7259575" lon="21.5936515"><ele>243.0</ele><time>2026-04-27T14:01:56.14Z</time></trkpt><trkpt lat="39.7257627" lon="21.5937068"><ele>242.0</ele><time>2026-04-27T14:01:57.14Z</time></trkpt><trkpt lat="39.7255767" lon="21.5937543"><ele>241.0</ele><time>2026-04-27T14:01:58.14Z</time></trkpt><trkpt lat="39.7253987" lon="21.5937966"><ele>240.0</ele><time>2026-04-27T14:01:59.141Z</time></trkpt><trkpt lat="39.7252218" lon="21.5938404"><ele>239.66666666666669</ele><time>2026-04-27T14:02:00.14Z</time></trkpt><trkpt lat="39.7250379" lon="21.5938864"><ele>239.33333333333334</ele><time>2026-04-27T14:02:01.141Z</time></trkpt><trkpt lat="39.7248459" lon="21.59391"><ele>239.0</ele><time>2026-04-27T14:02:02.14Z</time></trkpt><trkpt lat="39.724649" lon="21.5939222"><ele>239.0</ele><time>2026-04-27T14:02:03.141Z</time></trkpt><trkpt lat="39.7244572" lon="21.5939052"><ele>239.0</ele><time>2026-04-27T14:02:04.141Z</time></trkpt><trkpt lat="39.7242658" lon="21.5938814"><ele>239.0</ele><time>2026-04-27T14:02:05.14Z</time></trkpt><trkpt lat="39.7240739" lon="21.593861"><ele>239.33333333333334</ele><time>2026-04-27T14:02:06.14Z</time></trkpt><trkpt lat="39.7238831" lon="21.5938435"><ele>239.66666666666669</ele><time>2026-04-27T14:02:07.141Z</time></trkpt><trkpt lat="39.7237006" lon="21.5938212"><ele>240.0</ele><time>2026-04-27T14:02:08.14Z</time></trkpt><trkpt lat="39.723525" lon="21.5938091"><ele>243.66666666666669</ele><time>2026-04-27T14:02:09.141Z</time></trkpt><trkpt lat="39.7233435" lon="21.5937962"><ele>247.33333333333334</ele><time>2026-04-27T14:02:10.14Z</time></trkpt><trkpt lat="39.7231586" lon="21.5937964"><ele>251.0</ele><time>2026-04-27T14:02:11.141Z</time></trkpt><trkpt lat="39.7229737" lon="21.5938164"><ele>251.0</ele><time>2026-04-27T14:02:12.14Z</time></trkpt><trkpt lat="39.7227882" lon="21.593854"><ele>251.0</ele><time>2026-04-27T14:02:13.14Z</time></trkpt><trkpt lat="39.7226069" lon="21.5939141"><ele>251.0</ele><time>2026-04-27T14:02:14.14Z</time></trkpt><trkpt lat="39.722431" lon="21.5939964"><ele>250.33333333333334</ele><time>2026-04-27T14:02:15.141Z</time></trkpt><trkpt lat="39.7222651" lon="21.5940877"><ele>249.66666666666669</ele><time>2026-04-27T14:02:16.14Z</time></trkpt><trkpt lat="39.7221039" lon="21.5941933"><ele>249.0</ele><time>2026-04-27T14:02:17.14Z</time></trkpt><trkpt lat="39.7219439" lon="21.5942972"><ele>248.33333333333331</ele><time>2026-04-27T14:02:18.141Z</time></trkpt><trkpt lat="39.7217838" lon="21.594404"><ele>247.66666666666666</ele><time>2026-04-27T14:02:19.14Z</time></trkpt><trkpt lat="39.7216207" lon="21.5944964"><ele>247.0</ele><time>2026-04-27T14:02:20.14Z</time></trkpt><trkpt lat="39.7214496" lon="21.5945731"><ele>247.0</ele><time>2026-04-27T14:02:21.14Z</time></trkpt><trkpt lat="39.7212758" lon="21.5946523"><ele>247.0</ele><time>2026-04-27T14:02:22.14Z</time></trkpt><trkpt lat="39.7210945" lon="21.5947156"><ele>247.0</ele><time>2026-04-27T14:02:23.141Z</time></trkpt><trkpt lat="39.7209011" lon="21.5947535"><ele>246.33333333333331</ele><time>2026-04-27T14:02:24.141Z</time></trkpt><trkpt lat="39.7206974" lon="21.594779"><ele>245.66666666666669</ele><time>2026-04-27T14:02:25.14Z</time></trkpt><trkpt lat="39.720485" lon="21.5948005"><ele>245.0</ele><time>2026-04-27T14:02:26.14Z</time></trkpt><trkpt lat="39.7202801" lon="21.5948165"><ele>245.66666666666669</ele><time>2026-04-27T14:02:27.14Z</time></trkpt><trkpt lat="39.720084" lon="21.5948274"><ele>246.33333333333331</ele><time>2026-04-27T14:02:28.141Z</time></trkpt><trkpt lat="39.7198958" lon="21.5948473"><ele>247.0</ele><time>2026-04-27T14:02:29.141Z</time></trkpt><trkpt lat="39.7197207" lon="21.5948714"><ele>247.0</ele><time>2026-04-27T14:02:30.14Z</time></trkpt><trkpt lat="39.7195553" lon="21.5949166"><ele>247.0</ele><time>2026-04-27T14:02:31.14Z</time></trkpt><trkpt lat="39.7193909" lon="21.5949904"><ele>247.0</ele><time>2026-04-27T14:02:32.141Z</time></trkpt><trkpt lat="39.7192242" lon="21.5951046"><ele>245.33333333333331</ele><time>2026-04-27T14:02:33.141Z</time></trkpt><trkpt lat="39.7190563" lon="21.5952301"><ele>243.66666666666669</ele><time>2026-04-27T14:02:34.14Z</time></trkpt><trkpt lat="39.7188854" lon="21.5953491"><ele>242.0</ele><time>2026-04-27T14:02:35.141Z</time></trkpt><trkpt lat="39.7187164" lon="21.5954782"><ele>241.66666666666669</ele><time>2026-04-27T14:02:36.141Z</time></trkpt><trkpt lat="39.718545" lon="21.5956111"><ele>241.33333333333331</ele><time>2026-04-27T14:02:37.14Z</time></trkpt><trkpt lat="39.7183745" lon="21.5957385"><ele>241.0</ele><time>2026-04-27T14:02:38.14Z</time></trkpt><trkpt lat="39.7182008" lon="21.5958737"><ele>241.0</ele><time>2026-04-27T14:02:39.141Z</time></trkpt><trkpt lat="39.718032" lon="21.5960013"><ele>241.0</ele><time>2026-04-27T14:02:40.141Z</time></trkpt><trkpt lat="39.7178633" lon="21.5961319"><ele>241.0</ele><time>2026-04-27T14:02:41.141Z</time></trkpt><trkpt lat="39.7176947" lon="21.5962708"><ele>241.66666666666666</ele><time>2026-04-27T14:02:42.14Z</time></trkpt><trkpt lat="39.7175372" lon="21.5964058"><ele>242.33333333333331</ele><time>2026-04-27T14:02:43.141Z</time></trkpt><trkpt lat="39.7173863" lon="21.596548"><ele>243.0</ele><time>2026-04-27T14:02:44.14Z</time></trkpt><trkpt lat="39.7172422" lon="21.5966995"><ele>243.0</ele><time>2026-04-27T14:02:45.141Z</time></trkpt><trkpt lat="39.7171303" lon="21.5968584"><ele>243.0</ele><time>2026-04-27T14:02:46.14Z</time></trkpt><trkpt lat="39.7170248" lon="21.5970266"><ele>243.0</ele><time>2026-04-27T14:02:47.141Z</time></trkpt><trkpt lat="39.7169333" lon="21.5971949"><ele>240.66666666666669</ele><time>2026-04-27T14:02:48.14Z</time></trkpt><trkpt lat="39.716854" lon="21.5973744"><ele>238.33333333333334</ele><time>2026-04-27T14:02:49.141Z</time></trkpt><trkpt lat="39.7167821" lon="21.5975549"><ele>236.0</ele><time>2026-04-27T14:02:50.141Z</time></trkpt><trkpt lat="39.7167173" lon="21.5977333"><ele>236.33333333333334</ele><time>2026-04-27T14:02:51.141Z</time></trkpt><trkpt lat="39.7166569" lon="21.5979261"><ele>236.66666666666669</ele><time>2026-04-27T14:02:52.141Z</time></trkpt><trkpt lat="39.7166001" lon="21.5981073"><ele>237.0</ele><time>2026-04-27T14:02:53.141Z</time></trkpt><trkpt lat="39.7165436" lon="21.5982829"><ele>237.0</ele><time>2026-04-27T14:02:54.14Z</time></trkpt><trkpt lat="39.7164853" lon="21.5984664"><ele>237.0</ele><time>2026-04-27T14:02:55.141Z</time></trkpt><trkpt lat="39.7164232" lon="21.5986512"><ele>237.0</ele><time>2026-04-27T14:02:56.141Z</time></trkpt><trkpt lat="39.7163655" lon="21.5988392"><ele>237.33333333333331</ele><time>2026-04-27T14:02:57.141Z</time></trkpt><trkpt lat="39.7163119" lon="21.5990403"><ele>237.66666666666666</ele><time>2026-04-27T14:02:58.141Z</time></trkpt><trkpt lat="39.7162488" lon="21.5992342"><ele>238.0</ele><time>2026-04-27T14:02:59.141Z</time></trkpt><trkpt lat="39.7161817" lon="21.5994296"><ele>236.33333333333331</ele><time>2026-04-27T14:03:00.14Z</time></trkpt><trkpt lat="39.7161136" lon="21.5996223"><ele>234.66666666666669</ele><time>2026-04-27T14:03:01.141Z</time></trkpt><trkpt lat="39.7160433" lon="21.5998172"><ele>233.0</ele><time>2026-04-27T14:03:02.141Z</time></trkpt><trkpt lat="39.71598" lon="21.6000097"><ele>232.0</ele><time>2026-04-27T14:03:03.141Z</time></trkpt><trkpt lat="39.7159066" lon="21.6001936"><ele>231.0</ele><time>2026-04-27T14:03:04.14Z</time></trkpt><trkpt lat="39.7158131" lon="21.6003646"><ele>230.0</ele><time>2026-04-27T14:03:05.141Z</time></trkpt><trkpt lat="39.7157069" lon="21.6005223"><ele>230.0</ele><time>2026-04-27T14:03:06.141Z</time></trkpt><trkpt lat="39.7155954" lon="21.6006601"><ele>230.0</ele><time>2026-04-27T14:03:07.14Z</time></trkpt><trkpt lat="39.7154701" lon="21.6007922"><ele>230.0</ele><time>2026-04-27T14:03:08.14Z</time></trkpt><trkpt lat="39.7153513" lon="21.6009274"><ele>230.33333333333334</ele><time>2026-04-27T14:03:09.141Z</time></trkpt><trkpt lat="39.7152323" lon="21.601061"><ele>230.66666666666669</ele><time>2026-04-27T14:03:10.141Z</time></trkpt><trkpt lat="39.7151077" lon="21.601193"><ele>231.0</ele><time>2026-04-27T14:03:11.14Z</time></trkpt><trkpt lat="39.7149748" lon="21.6013312"><ele>231.0</ele><time>2026-04-27T14:03:12.14Z</time></trkpt><trkpt lat="39.7148444" lon="21.6014644"><ele>231.0</ele><time>2026-04-27T14:03:13.141Z</time></trkpt><trkpt lat="39.7147148" lon="21.6015969"><ele>231.0</ele><time>2026-04-27T14:03:14.14Z</time></trkpt><trkpt lat="39.7145837" lon="21.6017251"><ele>231.0</ele><time>2026-04-27T14:03:15.141Z</time></trkpt><trkpt lat="39.7144545" lon="21.6018581"><ele>231.0</ele><time>2026-04-27T14:03:16.141Z</time></trkpt><trkpt lat="39.7143222" lon="21.6019905"><ele>231.0</ele><time>2026-04-27T14:03:17.141Z</time></trkpt><trkpt lat="39.7141861" lon="21.602103"><ele>231.66666666666669</ele><time>2026-04-27T14:03:18.14Z</time></trkpt><trkpt lat="39.7140501" lon="21.6022023"><ele>232.33333333333334</ele><time>2026-04-27T14:03:19.14Z</time></trkpt><trkpt lat="39.7139053" lon="21.6022724"><ele>233.0</ele><time>2026-04-27T14:03:20.141Z</time></trkpt><trkpt lat="39.7137535" lon="21.6023188"><ele>233.0</ele><time>2026-04-27T14:03:21.14Z</time></trkpt><trkpt lat="39.713597" lon="21.6023278"><ele>233.0</ele><time>2026-04-27T14:03:22.141Z</time></trkpt><trkpt lat="39.713445" lon="21.602312"><ele>233.0</ele><time>2026-04-27T14:03:23.141Z</time></trkpt><trkpt lat="39.7133024" lon="21.6022876"><ele>233.0</ele><time>2026-04-27T14:03:24.141Z</time></trkpt><trkpt lat="39.7131566" lon="21.6022355"><ele>233.0</ele><time>2026-04-27T14:03:25.141Z</time></trkpt><trkpt lat="39.7130199" lon="21.6021603"><ele>233.0</ele><time>2026-04-27T14:03:26.14Z</time></trkpt><trkpt lat="39.7128796" lon="21.6020688"><ele>231.0</ele><time>2026-04-27T14:03:27.141Z</time></trkpt><trkpt lat="39.7127371" lon="21.6019601"><ele>229.0</ele><time>2026-04-27T14:03:28.14Z</time></trkpt><trkpt lat="39.7125934" lon="21.6018547"><ele>227.0</ele><time>2026-04-27T14:03:29.141Z</time></trkpt><trkpt lat="39.7124456" lon="21.6017456"><ele>227.0</ele><time>2026-04-27T14:03:30.141Z</time></trkpt><trkpt lat="39.7122976" lon="21.6016402"><ele>227.0</ele><time>2026-04-27T14:03:31.141Z</time></trkpt><trkpt lat="39.7121488" lon="21.601532"><ele>227.0</ele><time>2026-04-27T14:03:32.14Z</time></trkpt><trkpt lat="39.7120014" lon="21.6014228"><ele>226.0</ele><time>2026-04-27T14:03:33.141Z</time></trkpt><trkpt lat="39.7118522" lon="21.601317"><ele>225.0</ele><time>2026-04-27T14:03:34.141Z</time></trkpt><trkpt lat="39.7117066" lon="21.6012074"><ele>224.0</ele><time>2026-04-27T14:03:35.141Z</time></trkpt><trkpt lat="39.7115638" lon="21.6011034"><ele>224.0</ele><time>2026-04-27T14:03:36.14Z</time></trkpt><trkpt lat="39.711419" lon="21.6010022"><ele>224.0</ele><time>2026-04-27T14:03:37.14Z</time></trkpt><trkpt lat="39.7112715" lon="21.6009188"><ele>224.0</ele><time>2026-04-27T14:03:38.14Z</time></trkpt><trkpt lat="39.7111434" lon="21.6008492"><ele>225.5</ele><time>2026-04-27T14:03:39.141Z</time></trkpt><trkpt lat="39.7110075" lon="21.6008232"><ele>227.0</ele><time>2026-04-27T14:03:40.141Z</time></trkpt><trkpt lat="39.7108743" lon="21.6008403"><ele>228.5</ele><time>2026-04-27T14:03:41.14Z</time></trkpt><trkpt lat="39.7107547" lon="21.6009058"><ele>230.0</ele><time>2026-04-27T14:03:42.141Z</time></trkpt><trkpt lat="39.7106587" lon="21.6010197"><ele>230.0</ele><time>2026-04-27T14:03:43.14Z</time></trkpt><trkpt lat="39.7105889" lon="21.6011576"><ele>230.0</ele><time>2026-04-27T14:03:44.14Z</time></trkpt><trkpt lat="39.7105421" lon="21.6013312"><ele>230.0</ele><time>2026-04-27T14:03:45.14Z</time></trkpt><trkpt lat="39.7105275" lon="21.6015238"><ele>230.0</ele><time>2026-04-27T14:03:46.14Z</time></trkpt><trkpt lat="39.7105313" lon="21.6017185"><ele>230.0</ele><time>2026-04-27T14:03:47.14Z</time></trkpt><trkpt lat="39.71055" lon="21.601929"><ele>230.0</ele><time>2026-04-27T14:03:48.141Z</time></trkpt><trkpt lat="39.7105645" lon="21.6021413"><ele>230.0</ele><time>2026-04-27T14:03:49.141Z</time></trkpt><trkpt lat="39.7105863" lon="21.6023474"><ele>229.0</ele><time>2026-04-27T14:03:50.141Z</time></trkpt><trkpt lat="39.7106047" lon="21.6025602"><ele>228.0</ele><time>2026-04-27T14:03:51.14Z</time></trkpt><trkpt lat="39.7106178" lon="21.6027599"><ele>227.0</ele><time>2026-04-27T14:03:52.141Z</time></trkpt><trkpt lat="39.7106366" lon="21.6029697"><ele>226.0</ele><time>2026-04-27T14:03:53.14Z</time></trkpt><trkpt lat="39.7106579" lon="21.6031744"><ele>225.0</ele><time>2026-04-27T14:03:54.14Z</time></trkpt><trkpt lat="39.7106827" lon="21.6033744"><ele>224.0</ele><time>2026-04-27T14:03:55.14Z</time></trkpt><trkpt lat="39.7106955" lon="21.6035761"><ele>223.66666666666669</ele><time>2026-04-27T14:03:56.141Z</time></trkpt><trkpt lat="39.7107186" lon="21.6037785"><ele>223.33333333333331</ele><time>2026-04-27T14:03:57.14Z</time></trkpt><trkpt lat="39.7107389" lon="21.6039746"><ele>223.0</ele><time>2026-04-27T14:03:58.14Z</time></trkpt><trkpt lat="39.710755" lon="21.6041749"><ele>223.0</ele><time>2026-04-27T14:03:59.141Z</time></trkpt><trkpt lat="39.7107681" lon="21.6043685"><ele>223.0</ele><time>2026-04-27T14:04:00.141Z</time></trkpt><trkpt lat="39.7107875" lon="21.6045588"><ele>223.0</ele><time>2026-04-27T14:04:01.14Z</time></trkpt><trkpt lat="39.7108028" lon="21.6046772"><ele>223.0</ele><time>2026-04-27T14:04:02.14Z</time></trkpt><trkpt lat="39.7108289" lon="21.6048125"><ele>223.16666666666666</ele><time>2026-04-27T14:04:03.141Z</time></trkpt><trkpt lat="39.7108568" lon="21.6049339"><ele>223.33333333333331</ele><time>2026-04-27T14:04:04.141Z</time></trkpt><trkpt lat="39.7108681" lon="21.6050334"><ele>223.5</ele><time>2026-04-27T14:04:05.141Z</time></trkpt><trkpt lat="39.7108688" lon="21.6051345"><ele>223.66666666666669</ele><time>2026-04-27T14:04:06.141Z</time></trkpt><trkpt lat="39.7108576" lon="21.6052436"><ele>223.83333333333334</ele><time>2026-04-27T14:04:07.14Z</time></trkpt><trkpt lat="39.7108447" lon="21.6053491"><ele>224.0</ele><time>2026-04-27T14:04:08.14Z</time></trkpt><trkpt lat="39.7108208" lon="21.6054657"><ele>224.0</ele><time>2026-04-27T14:04:09.14Z</time></trkpt><trkpt lat="39.710772" lon="21.605586"><ele>223.99999999999997</ele><time>2026-04-27T14:04:10.141Z</time></trkpt><trkpt lat="39.710719" lon="21.6057066"><ele>223.99999999999997</ele><time>2026-04-27T14:04:11.14Z</time></trkpt><trkpt lat="39.7106642" lon="21.6058218"><ele>224.0</ele><time>2026-04-27T14:04:12.141Z</time></trkpt><trkpt lat="39.7106015" lon="21.6059355"><ele>224.0</ele><time>2026-04-27T14:04:13.14Z</time></trkpt><trkpt lat="39.7105359" lon="21.6060431"><ele>224.00000000000003</ele><time>2026-04-27T14:04:14.141Z</time></trkpt><trkpt lat="39.7104752" lon="21.6061694"><ele>224.0</ele><time>2026-04-27T14:04:15.14Z</time></trkpt><trkpt lat="39.7104213" lon="21.6062554"><ele>224.0</ele><time>2026-04-27T14:04:16.14Z</time></trkpt><trkpt lat="39.7103774" lon="21.6063226"><ele>224.0</ele><time>2026-04-27T14:04:17.141Z</time></trkpt><trkpt lat="39.7103129" lon="21.6063981"><ele>224.00000000000003</ele><time>2026-04-27T14:04:19.14Z</time></trkpt><trkpt lat="39.7102516" lon="21.6064364"><ele>224.0</ele><time>2026-04-27T14:04:21.141Z</time></trkpt><trkpt lat="39.7101965" lon="21.6065058"><ele>224.0</ele><time>2026-04-27T14:04:24.141Z</time></trkpt><trkpt lat="39.7101657" lon="21.6066155"><ele>223.99999999999997</ele><time>2026-04-27T14:04:34.141Z</time></trkpt><trkpt lat="39.7101129" lon="21.606714"><ele>223.99999999999997</ele><time>2026-04-27T14:04:36.14Z</time></trkpt><trkpt lat="39.7100543" lon="21.6068122"><ele>224.0</ele><time>2026-04-27T14:04:38.14Z</time></trkpt><trkpt lat="39.7099944" lon="21.6069232"><ele>224.0</ele><time>2026-04-27T14:04:40.141Z</time></trkpt><trkpt lat="39.7099197" lon="21.6070436"><ele>223.83333333333334</ele><time>2026-04-27T14:04:42.14Z</time></trkpt><trkpt lat="39.7098804" lon="21.6071109"><ele>223.66666666666669</ele><time>2026-04-27T14:04:43.14Z</time></trkpt><trkpt lat="39.7098355" lon="21.6071758"><ele>223.5</ele><time>2026-04-27T14:04:44.14Z</time></trkpt><trkpt lat="39.7097622" lon="21.6072748"><ele>223.33333333333331</ele><time>2026-04-27T14:04:46.14Z</time></trkpt><trkpt lat="39.7096973" lon="21.607358"><ele>223.16666666666666</ele><time>2026-04-27T14:04:49.14Z</time></trkpt><trkpt lat="39.7096431" lon="21.6074154"><ele>223.0</ele><time>2026-04-27T14:04:52.141Z</time></trkpt><trkpt lat="39.7096806" lon="21.6073442"><ele>223.0</ele><time>2026-04-27T14:06:01.141Z</time></trkpt><trkpt lat="39.7096384" lon="21.6074064"><ele>223.0</ele><time>2026-04-27T14:07:23.138Z</time></trkpt><trkpt lat="39.7095994" lon="21.6075196"><ele>223.0</ele><time>2026-04-27T14:07:26.139Z</time></trkpt><trkpt lat="39.709526" lon="21.6076284"><ele>223.0</ele><time>2026-04-27T14:07:28.139Z</time></trkpt><trkpt lat="39.7094544" lon="21.6077348"><ele>223.0</ele><time>2026-04-27T14:07:30.139Z</time></trkpt><trkpt lat="39.7093943" lon="21.6078355"><ele>223.16666666666666</ele><time>2026-04-27T14:07:32.139Z</time></trkpt><trkpt lat="39.7093335" lon="21.6079376"><ele>223.33333333333331</ele><time>2026-04-27T14:07:34.139Z</time></trkpt><trkpt lat="39.7092621" lon="21.6080504"><ele>223.5</ele><time>2026-04-27T14:07:36.139Z</time></trkpt><trkpt lat="39.7092189" lon="21.6081144"><ele>223.66666666666669</ele><time>2026-04-27T14:07:37.139Z</time></trkpt><trkpt lat="39.7091727" lon="21.6081876"><ele>223.83333333333334</ele><time>2026-04-27T14:07:38.139Z</time></trkpt><trkpt lat="39.7091231" lon="21.608266"><ele>224.0</ele><time>2026-04-27T14:07:39.139Z</time></trkpt><trkpt lat="39.7090684" lon="21.6083506"><ele>224.0</ele><time>2026-04-27T14:07:40.139Z</time></trkpt><trkpt lat="39.7090055" lon="21.6084412"><ele>223.99999999999997</ele><time>2026-04-27T14:07:41.138Z</time></trkpt><trkpt lat="39.7089392" lon="21.6085485"><ele>223.99999999999997</ele><time>2026-04-27T14:07:42.138Z</time></trkpt><trkpt lat="39.7088705" lon="21.6086553"><ele>224.0</ele><time>2026-04-27T14:07:43.139Z</time></trkpt><trkpt lat="39.7087981" lon="21.6087671"><ele>224.0</ele><time>2026-04-27T14:07:44.139Z</time></trkpt><trkpt lat="39.7087222" lon="21.6088825"><ele>223.75</ele><time>2026-04-27T14:07:45.138Z</time></trkpt><trkpt lat="39.7086466" lon="21.609003"><ele>223.5</ele><time>2026-04-27T14:07:46.139Z</time></trkpt><trkpt lat="39.7085676" lon="21.6091265"><ele>223.25</ele><time>2026-04-27T14:07:47.139Z</time></trkpt><trkpt lat="39.7084856" lon="21.609258"><ele>223.0</ele><time>2026-04-27T14:07:48.139Z</time></trkpt><trkpt lat="39.7084008" lon="21.6093951"><ele>222.75</ele><time>2026-04-27T14:07:49.139Z</time></trkpt><trkpt lat="39.7083093" lon="21.6095349"><ele>222.5</ele><time>2026-04-27T14:07:50.139Z</time></trkpt><trkpt lat="39.7082193" lon="21.6096785"><ele>222.25</ele><time>2026-04-27T14:07:51.138Z</time></trkpt><trkpt lat="39.7081294" lon="21.6098242"><ele>222.0</ele><time>2026-04-27T14:07:52.139Z</time></trkpt><trkpt lat="39.7080393" lon="21.6099667"><ele>222.0</ele><time>2026-04-27T14:07:53.138Z</time></trkpt><trkpt lat="39.7079515" lon="21.610114"><ele>222.0</ele><time>2026-04-27T14:07:54.139Z</time></trkpt><trkpt lat="39.7078613" lon="21.6102643"><ele>222.0</ele><time>2026-04-27T14:07:55.138Z</time></trkpt><trkpt lat="39.7077631" lon="21.6104089"><ele>222.0</ele><time>2026-04-27T14:07:56.139Z</time></trkpt><trkpt lat="39.7076627" lon="21.6105473"><ele>222.25</ele><time>2026-04-27T14:07:57.138Z</time></trkpt><trkpt lat="39.7075551" lon="21.6106701"><ele>222.5</ele><time>2026-04-27T14:07:58.139Z</time></trkpt><trkpt lat="39.7074314" lon="21.6107671"><ele>222.75</ele><time>2026-04-27T14:07:59.138Z</time></trkpt><trkpt lat="39.7072959" lon="21.610847"><ele>223.0</ele><time>2026-04-27T14:08:00.139Z</time></trkpt><trkpt lat="39.7071506" lon="21.6109171"><ele>223.0</ele><time>2026-04-27T14:08:01.139Z</time></trkpt><trkpt lat="39.7069977" lon="21.6109846"><ele>223.0</ele><time>2026-04-27T14:08:02.139Z</time></trkpt><trkpt lat="39.7068308" lon="21.6110602"><ele>223.0</ele><time>2026-04-27T14:08:03.139Z</time></trkpt><trkpt lat="39.7066465" lon="21.6111452"><ele>222.66666666666666</ele><time>2026-04-27T14:08:04.139Z</time></trkpt><trkpt lat="39.7064601" lon="21.6112262"><ele>222.33333333333331</ele><time>2026-04-27T14:08:05.138Z</time></trkpt><trkpt lat="39.7062714" lon="21.6113015"><ele>222.0</ele><time>2026-04-27T14:08:06.139Z</time></trkpt><trkpt lat="39.70608" lon="21.6113804"><ele>221.66666666666669</ele><time>2026-04-27T14:08:07.138Z</time></trkpt><trkpt lat="39.7058864" lon="21.6114619"><ele>221.33333333333334</ele><time>2026-04-27T14:08:08.139Z</time></trkpt><trkpt lat="39.7056954" lon="21.6115411"><ele>221.0</ele><time>2026-04-27T14:08:09.138Z</time></trkpt><trkpt lat="39.7055072" lon="21.611615"><ele>221.0</ele><time>2026-04-27T14:08:10.138Z</time></trkpt><trkpt lat="39.7053193" lon="21.6116803"><ele>221.0</ele><time>2026-04-27T14:08:11.139Z</time></trkpt><trkpt lat="39.7051394" lon="21.6117244"><ele>221.0</ele><time>2026-04-27T14:08:12.138Z</time></trkpt><trkpt lat="39.7049539" lon="21.6117382"><ele>220.0</ele><time>2026-04-27T14:08:13.139Z</time></trkpt><trkpt lat="39.7047783" lon="21.6117374"><ele>219.0</ele><time>2026-04-27T14:08:14.139Z</time></trkpt><trkpt lat="39.7046092" lon="21.6117138"><ele>218.0</ele><time>2026-04-27T14:08:15.139Z</time></trkpt><trkpt lat="39.7044289" lon="21.6116778"><ele>218.0</ele><time>2026-04-27T14:08:16.138Z</time></trkpt><trkpt lat="39.7042601" lon="21.6116537"><ele>218.0</ele><time>2026-04-27T14:08:17.138Z</time></trkpt><trkpt lat="39.7040983" lon="21.6116258"><ele>218.0</ele><time>2026-04-27T14:08:18.138Z</time></trkpt><trkpt lat="39.7039585" lon="21.611597"><ele>218.00000000000003</ele><time>2026-04-27T14:08:19.138Z</time></trkpt><trkpt lat="39.7038452" lon="21.6115601"><ele>218.0</ele><time>2026-04-27T14:08:20.139Z</time></trkpt><trkpt lat="39.7037581" lon="21.6115201"><ele>218.0</ele><time>2026-04-27T14:08:21.139Z</time></trkpt><trkpt lat="39.7036944" lon="21.6114837"><ele>218.0</ele><time>2026-04-27T14:08:22.139Z</time></trkpt><trkpt lat="39.7036362" lon="21.6114217"><ele>218.00000000000003</ele><time>2026-04-27T14:08:23.138Z</time></trkpt><trkpt lat="39.7035768" lon="21.6113554"><ele>218.0</ele><time>2026-04-27T14:08:24.139Z</time></trkpt><trkpt lat="39.7035117" lon="21.6113166"><ele>217.42857142857144</ele><time>2026-04-27T14:08:25.139Z</time></trkpt><trkpt lat="39.7034479" lon="21.611317"><ele>216.85714285714286</ele><time>2026-04-27T14:08:26.139Z</time></trkpt><trkpt lat="39.7033886" lon="21.6113619"><ele>216.28571428571428</ele><time>2026-04-27T14:08:27.138Z</time></trkpt><trkpt lat="39.7033335" lon="21.6114131"><ele>215.71428571428572</ele><time>2026-04-27T14:08:28.139Z</time></trkpt><trkpt lat="39.7033263" lon="21.6115201"><ele>215.14285714285714</ele><time>2026-04-27T14:08:29.138Z</time></trkpt><trkpt lat="39.7033268" lon="21.611616"><ele>214.57142857142858</ele><time>2026-04-27T14:08:30.138Z</time></trkpt><trkpt lat="39.7033364" lon="21.6117202"><ele>214.0</ele><time>2026-04-27T14:08:31.139Z</time></trkpt><trkpt lat="39.7033379" lon="21.6118266"><ele>214.0</ele><time>2026-04-27T14:08:32.138Z</time></trkpt><trkpt lat="39.7033019" lon="21.6119565"><ele>214.0</ele><time>2026-04-27T14:08:33.138Z</time></trkpt><trkpt lat="39.7032731" lon="21.6121033"><ele>214.0</ele><time>2026-04-27T14:08:34.139Z</time></trkpt><trkpt lat="39.7032542" lon="21.6122656"><ele>214.0</ele><time>2026-04-27T14:08:35.139Z</time></trkpt><trkpt lat="39.7032414" lon="21.6124392"><ele>215.33333333333331</ele><time>2026-04-27T14:08:36.138Z</time></trkpt><trkpt lat="39.7032398" lon="21.6126343"><ele>216.66666666666669</ele><time>2026-04-27T14:08:37.138Z</time></trkpt><trkpt lat="39.703233" lon="21.6128266"><ele>218.0</ele><time>2026-04-27T14:08:38.139Z</time></trkpt><trkpt lat="39.7032251" lon="21.6130262"><ele>218.25</ele><time>2026-04-27T14:08:39.139Z</time></trkpt><trkpt lat="39.7032061" lon="21.6132245"><ele>218.5</ele><time>2026-04-27T14:08:40.139Z</time></trkpt><trkpt lat="39.703185" lon="21.6134146"><ele>218.75</ele><time>2026-04-27T14:08:41.139Z</time></trkpt><trkpt lat="39.7031545" lon="21.613594"><ele>219.0</ele><time>2026-04-27T14:08:42.139Z</time></trkpt><trkpt lat="39.703129" lon="21.6137759"><ele>219.5</ele><time>2026-04-27T14:08:43.138Z</time></trkpt><trkpt lat="39.7030952" lon="21.6139469"><ele>220.0</ele><time>2026-04-27T14:08:44.139Z</time></trkpt><trkpt lat="39.7030708" lon="21.6141238"><ele>220.5</ele><time>2026-04-27T14:08:45.139Z</time></trkpt><trkpt lat="39.7030437" lon="21.6142912"><ele>221.0</ele><time>2026-04-27T14:08:46.138Z</time></trkpt><trkpt lat="39.7030123" lon="21.6144591"><ele>221.25</ele><time>2026-04-27T14:08:47.138Z</time></trkpt><trkpt lat="39.7029869" lon="21.6146271"><ele>221.5</ele><time>2026-04-27T14:08:48.139Z</time></trkpt><trkpt lat="39.7029596" lon="21.6147958"><ele>221.75</ele><time>2026-04-27T14:08:49.139Z</time></trkpt><trkpt lat="39.7029303" lon="21.6149615"><ele>222.0</ele><time>2026-04-27T14:08:50.138Z</time></trkpt><trkpt lat="39.7028999" lon="21.6151255"><ele>222.0</ele><time>2026-04-27T14:08:51.139Z</time></trkpt><trkpt lat="39.7028733" lon="21.6152903"><ele>222.0</ele><time>2026-04-27T14:08:52.139Z</time></trkpt><trkpt lat="39.7028403" lon="21.6154523"><ele>222.0</ele><time>2026-04-27T14:08:53.138Z</time></trkpt><trkpt lat="39.7028061" lon="21.6156086"><ele>222.0</ele><time>2026-04-27T14:08:54.139Z</time></trkpt><trkpt lat="39.7027793" lon="21.6157649"><ele>222.0</ele><time>2026-04-27T14:08:55.138Z</time></trkpt><trkpt lat="39.7027544" lon="21.6159165"><ele>222.0</ele><time>2026-04-27T14:08:56.139Z</time></trkpt><trkpt lat="39.7027332" lon="21.6160589"><ele>222.0</ele><time>2026-04-27T14:08:57.139Z</time></trkpt><trkpt lat="39.7027137" lon="21.6161957"><ele>222.0</ele><time>2026-04-27T14:08:58.138Z</time></trkpt><trkpt lat="39.7027076" lon="21.6163274"><ele>222.0</ele><time>2026-04-27T14:08:59.138Z</time></trkpt><trkpt lat="39.7027059" lon="21.6164543"><ele>222.0</ele><time>2026-04-27T14:09:00.138Z</time></trkpt><trkpt lat="39.7027182" lon="21.6165742"><ele>222.0</ele><time>2026-04-27T14:09:01.138Z</time></trkpt><trkpt lat="39.7027378" lon="21.6166842"><ele>222.0</ele><time>2026-04-27T14:09:02.138Z</time></trkpt><trkpt lat="39.702779" lon="21.6167985"><ele>222.0</ele><time>2026-04-27T14:09:03.138Z</time></trkpt><trkpt lat="39.7028307" lon="21.6169139"><ele>222.0</ele><time>2026-04-27T14:09:04.138Z</time></trkpt><trkpt lat="39.7029012" lon="21.6170215"><ele>223.2</ele><time>2026-04-27T14:09:05.139Z</time></trkpt><trkpt lat="39.7029802" lon="21.617123"><ele>224.39999999999998</ele><time>2026-04-27T14:09:06.138Z</time></trkpt><trkpt lat="39.7030569" lon="21.6172142"><ele>225.60000000000002</ele><time>2026-04-27T14:09:07.139Z</time></trkpt><trkpt lat="39.7031498" lon="21.6172923"><ele>226.8</ele><time>2026-04-27T14:09:08.139Z</time></trkpt><trkpt lat="39.7032432" lon="21.6173558"><ele>228.0</ele><time>2026-04-27T14:09:09.139Z</time></trkpt><trkpt lat="39.7033339" lon="21.6174238"><ele>228.0</ele><time>2026-04-27T14:09:10.138Z</time></trkpt><trkpt lat="39.7034266" lon="21.6174928"><ele>228.0</ele><time>2026-04-27T14:09:11.138Z</time></trkpt><trkpt lat="39.7035145" lon="21.6175604"><ele>228.0</ele><time>2026-04-27T14:09:12.138Z</time></trkpt><trkpt lat="39.7035994" lon="21.6176294"><ele>228.0</ele><time>2026-04-27T14:09:13.139Z</time></trkpt><trkpt lat="39.703684" lon="21.6176976"><ele>228.0</ele><time>2026-04-27T14:09:14.139Z</time></trkpt><trkpt lat="39.7037713" lon="21.6177702"><ele>227.8</ele><time>2026-04-27T14:09:15.139Z</time></trkpt><trkpt lat="39.7038544" lon="21.6178567"><ele>227.60000000000002</ele><time>2026-04-27T14:09:16.139Z</time></trkpt><trkpt lat="39.7039387" lon="21.6179452"><ele>227.39999999999998</ele><time>2026-04-27T14:09:17.138Z</time></trkpt><trkpt lat="39.7040183" lon="21.6180378"><ele>227.2</ele><time>2026-04-27T14:09:18.138Z</time></trkpt><trkpt lat="39.7040992" lon="21.6181404"><ele>227.0</ele><time>2026-04-27T14:09:19.139Z</time></trkpt><trkpt lat="39.7041773" lon="21.6182526"><ele>227.0</ele><time>2026-04-27T14:09:20.139Z</time></trkpt><trkpt lat="39.7042497" lon="21.6183733"><ele>227.0</ele><time>2026-04-27T14:09:21.139Z</time></trkpt><trkpt lat="39.7043204" lon="21.6185013"><ele>227.0</ele><time>2026-04-27T14:09:22.138Z</time></trkpt><trkpt lat="39.7043847" lon="21.6186296"><ele>227.0</ele><time>2026-04-27T14:09:23.139Z</time></trkpt><trkpt lat="39.7044446" lon="21.6187645"><ele>226.75</ele><time>2026-04-27T14:09:24.139Z</time></trkpt><trkpt lat="39.7045079" lon="21.6188997"><ele>226.5</ele><time>2026-04-27T14:09:25.138Z</time></trkpt><trkpt lat="39.7045723" lon="21.6190342"><ele>226.25</ele><time>2026-04-27T14:09:26.138Z</time></trkpt><trkpt lat="39.7046241" lon="21.6191743"><ele>226.0</ele><time>2026-04-27T14:09:27.139Z</time></trkpt><trkpt lat="39.7046758" lon="21.6193201"><ele>226.0</ele><time>2026-04-27T14:09:28.139Z</time></trkpt><trkpt lat="39.7047325" lon="21.6194723"><ele>226.0</ele><time>2026-04-27T14:09:29.138Z</time></trkpt><trkpt lat="39.704781" lon="21.6196268"><ele>226.0</ele><time>2026-04-27T14:09:30.139Z</time></trkpt><trkpt lat="39.7048204" lon="21.6197838"><ele>226.0</ele><time>2026-04-27T14:09:31.139Z</time></trkpt><trkpt lat="39.7048576" lon="21.6199402"><ele>225.0</ele><time>2026-04-27T14:09:32.139Z</time></trkpt><trkpt lat="39.7048884" lon="21.6200975"><ele>224.0</ele><time>2026-04-27T14:09:33.138Z</time></trkpt><trkpt lat="39.7049154" lon="21.6202564"><ele>223.0</ele><time>2026-04-27T14:09:34.139Z</time></trkpt><trkpt lat="39.704932" lon="21.6204154"><ele>222.0</ele><time>2026-04-27T14:09:35.139Z</time></trkpt><trkpt lat="39.7049457" lon="21.6205763"><ele>221.66666666666666</ele><time>2026-04-27T14:09:36.139Z</time></trkpt><trkpt lat="39.7049481" lon="21.6207047"><ele>221.33333333333331</ele><time>2026-04-27T14:09:37.138Z</time></trkpt><trkpt lat="39.7049571" lon="21.6208149"><ele>221.0</ele><time>2026-04-27T14:09:38.138Z</time></trkpt><trkpt lat="39.7049577" lon="21.6209074"><ele>220.66666666666666</ele><time>2026-04-27T14:09:39.138Z</time></trkpt><trkpt lat="39.704966" lon="21.6210245"><ele>220.33333333333331</ele><time>2026-04-27T14:09:41.138Z</time></trkpt><trkpt lat="39.7049392" lon="21.6211083"><ele>220.0</ele><time>2026-04-27T14:09:54.138Z</time></trkpt><trkpt lat="39.7049457" lon="21.6212313"><ele>219.99999999999997</ele><time>2026-04-27T14:09:56.139Z</time></trkpt><trkpt lat="39.7049551" lon="21.6213191"><ele>220.0</ele><time>2026-04-27T14:09:57.139Z</time></trkpt><trkpt lat="39.7049535" lon="21.6214137"><ele>220.0</ele><time>2026-04-27T14:09:58.138Z</time></trkpt><trkpt lat="39.7049511" lon="21.6215101"><ele>220.0</ele><time>2026-04-27T14:09:59.138Z</time></trkpt><trkpt lat="39.70495" lon="21.6216289"><ele>219.99999999999997</ele><time>2026-04-27T14:10:00.139Z</time></trkpt><trkpt lat="39.7049426" lon="21.6217496"><ele>220.0</ele><time>2026-04-27T14:10:01.139Z</time></trkpt><trkpt lat="39.7049325" lon="21.6218773"><ele>219.8</ele><time>2026-04-27T14:10:02.139Z</time></trkpt><trkpt lat="39.7049165" lon="21.6220108"><ele>219.6</ele><time>2026-04-27T14:10:03.138Z</time></trkpt><trkpt lat="39.7048972" lon="21.6221511"><ele>219.39999999999998</ele><time>2026-04-27T14:10:04.139Z</time></trkpt><trkpt lat="39.7048711" lon="21.6222821"><ele>219.2</ele><time>2026-04-27T14:10:05.139Z</time></trkpt><trkpt lat="39.7048488" lon="21.6224001"><ele>219.0</ele><time>2026-04-27T14:10:06.139Z</time></trkpt><trkpt lat="39.704824" lon="21.6225044"><ele>219.0</ele><time>2026-04-27T14:10:07.139Z</time></trkpt><trkpt lat="39.7047912" lon="21.6226078"><ele>218.99999999999997</ele><time>2026-04-27T14:10:08.139Z</time></trkpt><trkpt lat="39.7047266" lon="21.6227026"><ele>218.99999999999997</ele><time>2026-04-27T14:10:09.139Z</time></trkpt><trkpt lat="39.7046744" lon="21.6228229"><ele>219.0</ele><time>2026-04-27T14:10:10.139Z</time></trkpt><trkpt lat="39.7046096" lon="21.6229459"><ele>219.0</ele><time>2026-04-27T14:10:11.138Z</time></trkpt><trkpt lat="39.7045474" lon="21.6230749"><ele>219.25</ele><time>2026-04-27T14:10:12.139Z</time></trkpt><trkpt lat="39.7044829" lon="21.6231994"><ele>219.5</ele><time>2026-04-27T14:10:13.139Z</time></trkpt><trkpt lat="39.7044138" lon="21.6233263"><ele>219.75</ele><time>2026-04-27T14:10:14.138Z</time></trkpt><trkpt lat="39.7043486" lon="21.6234462"><ele>220.0</ele><time>2026-04-27T14:10:15.138Z</time></trkpt><trkpt lat="39.7042756" lon="21.623562"><ele>218.75</ele><time>2026-04-27T14:10:16.138Z</time></trkpt><trkpt lat="39.7042026" lon="21.6236835"><ele>217.5</ele><time>2026-04-27T14:10:17.138Z</time></trkpt><trkpt lat="39.7041277" lon="21.6238059"><ele>216.25</ele><time>2026-04-27T14:10:18.138Z</time></trkpt><trkpt lat="39.7040477" lon="21.6239311"><ele>215.0</ele><time>2026-04-27T14:10:19.138Z</time></trkpt><trkpt lat="39.7039705" lon="21.6240595"><ele>215.0</ele><time>2026-04-27T14:10:20.138Z</time></trkpt><trkpt lat="39.7039013" lon="21.6242006"><ele>215.0</ele><time>2026-04-27T14:10:21.139Z</time></trkpt><trkpt lat="39.7038211" lon="21.6243443"><ele>215.0</ele><time>2026-04-27T14:10:22.139Z</time></trkpt><trkpt lat="39.7037424" lon="21.6244835"><ele>215.0</ele><time>2026-04-27T14:10:23.139Z</time></trkpt><trkpt lat="39.703663" lon="21.6246304"><ele>215.75</ele><time>2026-04-27T14:10:24.138Z</time></trkpt><trkpt lat="39.7035886" lon="21.6247704"><ele>216.5</ele><time>2026-04-27T14:10:25.138Z</time></trkpt><trkpt lat="39.7035147" lon="21.6249094"><ele>217.25</ele><time>2026-04-27T14:10:26.139Z</time></trkpt><trkpt lat="39.7034445" lon="21.6250506"><ele>218.0</ele><time>2026-04-27T14:10:27.138Z</time></trkpt><trkpt lat="39.7033812" lon="21.6251751"><ele>217.0</ele><time>2026-04-27T14:10:28.139Z</time></trkpt><trkpt lat="39.7033208" lon="21.6253051"><ele>216.0</ele><time>2026-04-27T14:10:29.139Z</time></trkpt><trkpt lat="39.7032548" lon="21.6254336"><ele>215.0</ele><time>2026-04-27T14:10:30.139Z</time></trkpt><trkpt lat="39.7031827" lon="21.6255677"><ele>214.0</ele><time>2026-04-27T14:10:31.139Z</time></trkpt><trkpt lat="39.703111" lon="21.6257127"><ele>214.0</ele><time>2026-04-27T14:10:32.139Z</time></trkpt><trkpt lat="39.703045" lon="21.6258539"><ele>214.0</ele><time>2026-04-27T14:10:33.139Z</time></trkpt><trkpt lat="39.7029791" lon="21.6260144"><ele>214.0</ele><time>2026-04-27T14:10:34.139Z</time></trkpt><trkpt lat="39.7029076" lon="21.6261575"><ele>214.0</ele><time>2026-04-27T14:10:35.139Z</time></trkpt><trkpt lat="39.7028396" lon="21.6263092"><ele>214.25</ele><time>2026-04-27T14:10:36.138Z</time></trkpt><trkpt lat="39.7027725" lon="21.626463"><ele>214.5</ele><time>2026-04-27T14:10:37.138Z</time></trkpt><trkpt lat="39.7027073" lon="21.6266145"><ele>214.75</ele><time>2026-04-27T14:10:38.139Z</time></trkpt><trkpt lat="39.7026462" lon="21.6267643"><ele>215.0</ele><time>2026-04-27T14:10:39.139Z</time></trkpt><trkpt lat="39.7025958" lon="21.6269066"><ele>215.5</ele><time>2026-04-27T14:10:40.139Z</time></trkpt><trkpt lat="39.7025458" lon="21.6270494"><ele>216.0</ele><time>2026-04-27T14:10:41.139Z</time></trkpt><trkpt lat="39.7025035" lon="21.6272053"><ele>216.5</ele><time>2026-04-27T14:10:42.139Z</time></trkpt><trkpt lat="39.7024615" lon="21.627361"><ele>217.0</ele><time>2026-04-27T14:10:43.139Z</time></trkpt><trkpt lat="39.7024175" lon="21.6275207"><ele>217.0</ele><time>2026-04-27T14:10:44.139Z</time></trkpt><trkpt lat="39.7023826" lon="21.6276824"><ele>217.0</ele><time>2026-04-27T14:10:45.139Z</time></trkpt><trkpt lat="39.7023531" lon="21.6278466"><ele>217.0</ele><time>2026-04-27T14:10:46.139Z</time></trkpt><trkpt lat="39.7023243" lon="21.6280089"><ele>217.0</ele><time>2026-04-27T14:10:47.139Z</time></trkpt><trkpt lat="39.702294" lon="21.628169"><ele>217.0</ele><time>2026-04-27T14:10:48.138Z</time></trkpt><trkpt lat="39.7022669" lon="21.6283316"><ele>217.0</ele><time>2026-04-27T14:10:49.139Z</time></trkpt><trkpt lat="39.7022353" lon="21.6284848"><ele>217.0</ele><time>2026-04-27T14:10:50.138Z</time></trkpt><trkpt lat="39.7022" lon="21.6286389"><ele>217.0</ele><time>2026-04-27T14:10:51.138Z</time></trkpt><trkpt lat="39.7021743" lon="21.6287995"><ele>217.0</ele><time>2026-04-27T14:10:52.139Z</time></trkpt><trkpt lat="39.7021496" lon="21.6289529"><ele>217.0</ele><time>2026-04-27T14:10:53.139Z</time></trkpt><trkpt lat="39.7021279" lon="21.629103"><ele>217.0</ele><time>2026-04-27T14:10:54.139Z</time></trkpt><trkpt lat="39.7021048" lon="21.6292529"><ele>217.0</ele><time>2026-04-27T14:10:55.139Z</time></trkpt><trkpt lat="39.7020871" lon="21.6294073"><ele>216.75</ele><time>2026-04-27T14:10:56.138Z</time></trkpt><trkpt lat="39.7020711" lon="21.6295638"><ele>216.5</ele><time>2026-04-27T14:10:57.139Z</time></trkpt><trkpt lat="39.7020506" lon="21.6297089"><ele>216.25</ele><time>2026-04-27T14:10:58.139Z</time></trkpt><trkpt lat="39.7020329" lon="21.6298588"><ele>216.0</ele><time>2026-04-27T14:10:59.139Z</time></trkpt><trkpt lat="39.7020184" lon="21.6300004"><ele>216.0</ele><time>2026-04-27T14:11:00.139Z</time></trkpt><trkpt lat="39.7020008" lon="21.6301272"><ele>216.00000000000003</ele><time>2026-04-27T14:11:01.138Z</time></trkpt><trkpt lat="39.7019823" lon="21.6302444"><ele>216.00000000000003</ele><time>2026-04-27T14:11:02.139Z</time></trkpt><trkpt lat="39.7019618" lon="21.6303624"><ele>216.0</ele><time>2026-04-27T14:11:03.138Z</time></trkpt><trkpt lat="39.7019475" lon="21.6304738"><ele>216.0</ele><time>2026-04-27T14:11:04.139Z</time></trkpt><trkpt lat="39.7019352" lon="21.6305775"><ele>216.0</ele><time>2026-04-27T14:11:05.139Z</time></trkpt><trkpt lat="39.7019239" lon="21.6306795"><ele>216.0</ele><time>2026-04-27T14:11:06.139Z</time></trkpt><trkpt lat="39.7019123" lon="21.6307766"><ele>216.0</ele><time>2026-04-27T14:11:07.138Z</time></trkpt><trkpt lat="39.701899" lon="21.6308611"><ele>216.0</ele><time>2026-04-27T14:11:08.139Z</time></trkpt><trkpt lat="39.7018739" lon="21.6309786"><ele>216.0</ele><time>2026-04-27T14:11:10.138Z</time></trkpt><trkpt lat="39.7017782" lon="21.6309983"><ele>216.0</ele><time>2026-04-27T14:11:13.138Z</time></trkpt><trkpt lat="39.7016989" lon="21.6309863"><ele>215.57142857142856</ele><time>2026-04-27T14:11:14.138Z</time></trkpt><trkpt lat="39.7016258" lon="21.6309688"><ele>215.14285714285714</ele><time>2026-04-27T14:11:15.138Z</time></trkpt><trkpt lat="39.7015553" lon="21.6309569"><ele>214.71428571428572</ele><time>2026-04-27T14:11:16.138Z</time></trkpt><trkpt lat="39.7014807" lon="21.6309338"><ele>214.28571428571428</ele><time>2026-04-27T14:11:17.138Z</time></trkpt><trkpt lat="39.7014057" lon="21.6309188"><ele>213.85714285714286</ele><time>2026-04-27T14:11:18.139Z</time></trkpt><trkpt lat="39.7013394" lon="21.630902"><ele>213.42857142857142</ele><time>2026-04-27T14:11:19.139Z</time></trkpt><trkpt lat="39.7012646" lon="21.6308882"><ele>213.0</ele><time>2026-04-27T14:11:21.139Z</time></trkpt><trkpt lat="39.7012125" lon="21.6309499"><ele>213.0</ele><time>2026-04-27T14:11:24.138Z</time></trkpt><trkpt lat="39.7012075" lon="21.6310893"><ele>213.0</ele><time>2026-04-27T14:11:26.139Z</time></trkpt><trkpt lat="39.7012036" lon="21.6311905"><ele>213.0</ele><time>2026-04-27T14:11:27.138Z</time></trkpt><trkpt lat="39.7011992" lon="21.631291"><ele>213.0</ele><time>2026-04-27T14:11:28.139Z</time></trkpt><trkpt lat="39.7011948" lon="21.631401"><ele>213.0</ele><time>2026-04-27T14:11:29.138Z</time></trkpt><trkpt lat="39.7011919" lon="21.6315209"><ele>213.0</ele><time>2026-04-27T14:11:30.139Z</time></trkpt><trkpt lat="39.7011879" lon="21.6316478"><ele>212.8</ele><time>2026-04-27T14:11:31.139Z</time></trkpt><trkpt lat="39.7011789" lon="21.631783"><ele>212.60000000000002</ele><time>2026-04-27T14:11:32.139Z</time></trkpt><trkpt lat="39.7011764" lon="21.6319194"><ele>212.39999999999998</ele><time>2026-04-27T14:11:33.138Z</time></trkpt><trkpt lat="39.7011698" lon="21.6320491"><ele>212.2</ele><time>2026-04-27T14:11:34.139Z</time></trkpt><trkpt lat="39.7011607" lon="21.632177"><ele>212.0</ele><time>2026-04-27T14:11:35.138Z</time></trkpt><trkpt lat="39.7011524" lon="21.6323114"><ele>212.33333333333334</ele><time>2026-04-27T14:11:36.139Z</time></trkpt><trkpt lat="39.7011476" lon="21.6324421"><ele>212.66666666666669</ele><time>2026-04-27T14:11:37.138Z</time></trkpt><trkpt lat="39.7011433" lon="21.6325616"><ele>213.0</ele><time>2026-04-27T14:11:38.138Z</time></trkpt><trkpt lat="39.7011404" lon="21.6326664"><ele>213.33333333333331</ele><time>2026-04-27T14:11:39.139Z</time></trkpt><trkpt lat="39.7011284" lon="21.6327936"><ele>213.66666666666666</ele><time>2026-04-27T14:11:41.138Z</time></trkpt><trkpt lat="39.7011373" lon="21.6328891"><ele>214.0</ele><time>2026-04-27T14:11:44.139Z</time></trkpt><trkpt lat="39.7011929" lon="21.6329289"><ele>214.66666666666666</ele><time>2026-04-27T14:11:46.138Z</time></trkpt><trkpt lat="39.701287" lon="21.6329219"><ele>215.33333333333331</ele><time>2026-04-27T14:11:48.138Z</time></trkpt><trkpt lat="39.701353" lon="21.6329051"><ele>216.0</ele><time>2026-04-27T14:11:49.139Z</time></trkpt><trkpt lat="39.7014275" lon="21.6328952"><ele>216.66666666666669</ele><time>2026-04-27T14:11:50.139Z</time></trkpt><trkpt lat="39.7015098" lon="21.6328818"><ele>217.33333333333334</ele><time>2026-04-27T14:11:51.138Z</time></trkpt><trkpt lat="39.7015879" lon="21.632877"><ele>218.0</ele><time>2026-04-27T14:11:52.139Z</time></trkpt><trkpt lat="39.7016688" lon="21.6328745"><ele>218.00000000000003</ele><time>2026-04-27T14:11:53.139Z</time></trkpt><trkpt lat="39.7017491" lon="21.6328672"><ele>218.0</ele><time>2026-04-27T14:11:54.139Z</time></trkpt><trkpt lat="39.7018151" lon="21.6328579"><ele>218.0</ele><time>2026-04-27T14:11:55.138Z</time></trkpt><trkpt lat="39.701878" lon="21.6328525"><ele>218.0</ele><time>2026-04-27T14:11:56.138Z</time></trkpt><trkpt lat="39.7019794" lon="21.6328238"><ele>218.00000000000003</ele><time>2026-04-27T14:11:58.139Z</time></trkpt><trkpt lat="39.7020688" lon="21.6327179"><ele>218.0</ele><time>2026-04-27T14:12:00.138Z</time></trkpt><trkpt lat="39.7020992" lon="21.6325625"><ele>218.14285714285714</ele><time>2026-04-27T14:12:02.139Z</time></trkpt><trkpt lat="39.7020958" lon="21.6324739"><ele>218.28571428571428</ele><time>2026-04-27T14:12:03.139Z</time></trkpt><trkpt lat="39.7020851" lon="21.6323727"><ele>218.42857142857144</ele><time>2026-04-27T14:12:04.138Z</time></trkpt><trkpt lat="39.7020754" lon="21.6322719"><ele>218.57142857142856</ele><time>2026-04-27T14:12:05.138Z</time></trkpt><trkpt lat="39.7020666" lon="21.6321757"><ele>218.7142857142857</ele><time>2026-04-27T14:12:06.138Z</time></trkpt><trkpt lat="39.7020602" lon="21.6320857"><ele>218.85714285714286</ele><time>2026-04-27T14:12:07.138Z</time></trkpt><trkpt lat="39.7020431" lon="21.631988"><ele>219.0</ele><time>2026-04-27T14:12:08.139Z</time></trkpt><trkpt lat="39.7020366" lon="21.6319034"><ele>219.0</ele><time>2026-04-27T14:12:09.139Z</time></trkpt><trkpt lat="39.7020541" lon="21.6318193"><ele>219.0</ele><time>2026-04-27T14:12:11.138Z</time></trkpt><trkpt lat="39.702076" lon="21.6317281"><ele>219.0</ele><time>2026-04-27T14:12:14.139Z</time></trkpt><trkpt lat="39.702151" lon="21.6316994"><ele>219.0</ele><time>2026-04-27T14:12:31.138Z</time></trkpt><trkpt lat="39.7021161" lon="21.631616"><ele>219.0</ele><time>2026-04-27T14:16:40.138Z</time></trkpt><trkpt lat="39.7020979" lon="21.6315372"><ele>219.0</ele><time>2026-04-27T14:16:45.139Z</time></trkpt><trkpt lat="39.7021136" lon="21.6314555"><ele>219.0</ele><time>2026-04-27T14:16:51.138Z</time></trkpt><trkpt lat="39.7021783" lon="21.6314471"><ele>219.0</ele><time>2026-04-27T14:17:00.138Z</time></trkpt><trkpt lat="39.7022271" lon="21.631514"><ele>219.0</ele><time>2026-04-27T14:17:08.139Z</time></trkpt></trkseg><trkseg><trkpt lat="39.702205" lon="21.6316373"><ele>219.0</ele><time>2026-04-28T06:14:43.076Z</time></trkpt><trkpt lat="39.7022418" lon="21.6317139"><ele>219.0</ele><time>2026-04-28T06:19:54.07Z</time></trkpt><trkpt lat="39.7021781" lon="21.6316703"><ele>219.0</ele><time>2026-04-28T06:19:57.07Z</time></trkpt><trkpt lat="39.7021203" lon="21.631628"><ele>219.0</ele><time>2026-04-28T06:20:01.071Z</time></trkpt><trkpt lat="39.7020661" lon="21.6315597"><ele>219.0</ele><time>2026-04-28T06:20:07.071Z</time></trkpt><trkpt lat="39.7020845" lon="21.6314739"><ele>219.0</ele><time>2026-04-28T06:20:11.071Z</time></trkpt><trkpt lat="39.7020749" lon="21.6313511"><ele>219.0</ele><time>2026-04-28T06:20:15.071Z</time></trkpt><trkpt lat="39.7020638" lon="21.6312274"><ele>219.0</ele><time>2026-04-28T06:20:17.071Z</time></trkpt><trkpt lat="39.7020483" lon="21.6311452"><ele>219.0</ele><time>2026-04-28T06:20:18.07Z</time></trkpt><trkpt lat="39.7020507" lon="21.6310514"><ele>219.0</ele><time>2026-04-28T06:20:19.07Z</time></trkpt><trkpt lat="39.7020459" lon="21.6309673"><ele>219.0</ele><time>2026-04-28T06:20:20.071Z</time></trkpt><trkpt lat="39.7020434" lon="21.6308819"><ele>219.0</ele><time>2026-04-28T06:20:21.07Z</time></trkpt><trkpt lat="39.7020438" lon="21.6308"><ele>219.0</ele><time>2026-04-28T06:20:22.071Z</time></trkpt><trkpt lat="39.7020486" lon="21.6307179"><ele>219.0</ele><time>2026-04-28T06:20:23.07Z</time></trkpt><trkpt lat="39.7020518" lon="21.6306343"><ele>218.5</ele><time>2026-04-28T06:20:24.071Z</time></trkpt><trkpt lat="39.7020822" lon="21.6304751"><ele>218.0</ele><time>2026-04-28T06:20:26.071Z</time></trkpt><trkpt lat="39.7020956" lon="21.6303817"><ele>217.5</ele><time>2026-04-28T06:20:27.071Z</time></trkpt><trkpt lat="39.7021236" lon="21.6302389"><ele>217.0</ele><time>2026-04-28T06:20:29.071Z</time></trkpt><trkpt lat="39.7021354" lon="21.6301532"><ele>216.5</ele><time>2026-04-28T06:20:30.071Z</time></trkpt><trkpt lat="39.702145" lon="21.6300715"><ele>216.0</ele><time>2026-04-28T06:20:31.07Z</time></trkpt><trkpt lat="39.7021551" lon="21.6299817"><ele>216.0</ele><time>2026-04-28T06:20:32.071Z</time></trkpt><trkpt lat="39.7021666" lon="21.629891"><ele>216.0</ele><time>2026-04-28T06:20:33.07Z</time></trkpt><trkpt lat="39.7021823" lon="21.6297978"><ele>216.0</ele><time>2026-04-28T06:20:34.071Z</time></trkpt><trkpt lat="39.7021938" lon="21.6296973"><ele>216.0</ele><time>2026-04-28T06:20:35.07Z</time></trkpt><trkpt lat="39.7022033" lon="21.629597"><ele>216.0</ele><time>2026-04-28T06:20:36.071Z</time></trkpt><trkpt lat="39.7022124" lon="21.6295027"><ele>216.0</ele><time>2026-04-28T06:20:37.07Z</time></trkpt><trkpt lat="39.7022251" lon="21.6294026"><ele>216.16666666666666</ele><time>2026-04-28T06:20:38.071Z</time></trkpt><trkpt lat="39.702235" lon="21.6293186"><ele>216.33333333333331</ele><time>2026-04-28T06:20:39.07Z</time></trkpt><trkpt lat="39.7022464" lon="21.6292306"><ele>216.5</ele><time>2026-04-28T06:20:40.071Z</time></trkpt><trkpt lat="39.7022602" lon="21.6290699"><ele>216.66666666666666</ele><time>2026-04-28T06:20:42.071Z</time></trkpt><trkpt lat="39.7022595" lon="21.6289846"><ele>216.83333333333331</ele><time>2026-04-28T06:20:43.07Z</time></trkpt><trkpt lat="39.7022732" lon="21.6288549"><ele>217.0</ele><time>2026-04-28T06:20:45.071Z</time></trkpt><trkpt lat="39.7022035" lon="21.6288123"><ele>216.99999999999997</ele><time>2026-04-28T06:20:48.071Z</time></trkpt><trkpt lat="39.7021804" lon="21.6289282"><ele>217.0</ele><time>2026-04-28T06:20:50.07Z</time></trkpt><trkpt lat="39.7021733" lon="21.6290198"><ele>217.0</ele><time>2026-04-28T06:20:51.071Z</time></trkpt><trkpt lat="39.7021524" lon="21.6291131"><ele>217.0</ele><time>2026-04-28T06:20:52.07Z</time></trkpt><trkpt lat="39.7021372" lon="21.6292001"><ele>216.99999999999997</ele><time>2026-04-28T06:20:53.071Z</time></trkpt><trkpt lat="39.7021206" lon="21.6292894"><ele>217.0</ele><time>2026-04-28T06:20:54.071Z</time></trkpt><trkpt lat="39.7021049" lon="21.6293872"><ele>216.83333333333331</ele><time>2026-04-28T06:20:55.07Z</time></trkpt><trkpt lat="39.70209" lon="21.6294988"><ele>216.66666666666666</ele><time>2026-04-28T06:20:56.071Z</time></trkpt><trkpt lat="39.7020781" lon="21.6296109"><ele>216.5</ele><time>2026-04-28T06:20:57.07Z</time></trkpt><trkpt lat="39.7020636" lon="21.6297232"><ele>216.33333333333331</ele><time>2026-04-28T06:20:58.071Z</time></trkpt><trkpt lat="39.7020556" lon="21.6298415"><ele>216.16666666666666</ele><time>2026-04-28T06:20:59.071Z</time></trkpt><trkpt lat="39.7020706" lon="21.6299487"><ele>216.0</ele><time>2026-04-28T06:21:00.07Z</time></trkpt><trkpt lat="39.7020511" lon="21.630063"><ele>216.0</ele><time>2026-04-28T06:21:01.07Z</time></trkpt><trkpt lat="39.7020386" lon="21.6301869"><ele>216.0</ele><time>2026-04-28T06:21:02.07Z</time></trkpt><trkpt lat="39.7020205" lon="21.630298"><ele>216.0</ele><time>2026-04-28T06:21:03.07Z</time></trkpt><trkpt lat="39.7020023" lon="21.6304119"><ele>216.0</ele><time>2026-04-28T06:21:04.071Z</time></trkpt><trkpt lat="39.7019775" lon="21.6305129"><ele>216.0</ele><time>2026-04-28T06:21:05.07Z</time></trkpt><trkpt lat="39.7019609" lon="21.6306262"><ele>216.0</ele><time>2026-04-28T06:21:06.07Z</time></trkpt><trkpt lat="39.7019429" lon="21.6307288"><ele>216.0</ele><time>2026-04-28T06:21:07.071Z</time></trkpt><trkpt lat="39.701935" lon="21.6308493"><ele>216.0</ele><time>2026-04-28T06:21:08.071Z</time></trkpt><trkpt lat="39.7019261" lon="21.6309716"><ele>216.0</ele><time>2026-04-28T06:21:09.07Z</time></trkpt><trkpt lat="39.7019241" lon="21.6310847"><ele>216.0</ele><time>2026-04-28T06:21:10.07Z</time></trkpt><trkpt lat="39.7019301" lon="21.6311991"><ele>216.0</ele><time>2026-04-28T06:21:11.071Z</time></trkpt><trkpt lat="39.7019344" lon="21.6313091"><ele>216.0</ele><time>2026-04-28T06:21:12.071Z</time></trkpt><trkpt lat="39.701938" lon="21.6314176"><ele>216.0</ele><time>2026-04-28T06:21:13.071Z</time></trkpt><trkpt lat="39.7019413" lon="21.6315213"><ele>216.0</ele><time>2026-04-28T06:21:14.071Z</time></trkpt><trkpt lat="39.7019466" lon="21.6316181"><ele>216.0</ele><time>2026-04-28T06:21:15.07Z</time></trkpt><trkpt lat="39.7019544" lon="21.6317212"><ele>216.0</ele><time>2026-04-28T06:21:16.07Z</time></trkpt><trkpt lat="39.701962" lon="21.6318226"><ele>216.0</ele><time>2026-04-28T06:21:17.071Z</time></trkpt><trkpt lat="39.7019714" lon="21.6319235"><ele>216.0</ele><time>2026-04-28T06:21:18.071Z</time></trkpt><trkpt lat="39.7019815" lon="21.6320171"><ele>216.0</ele><time>2026-04-28T06:21:19.071Z</time></trkpt><trkpt lat="39.7019809" lon="21.632103"><ele>216.0</ele><time>2026-04-28T06:21:20.071Z</time></trkpt><trkpt lat="39.7019948" lon="21.6322625"><ele>216.0</ele><time>2026-04-28T06:21:22.07Z</time></trkpt><trkpt lat="39.7020081" lon="21.6324013"><ele>216.0</ele><time>2026-04-28T06:21:24.071Z</time></trkpt><trkpt lat="39.7020117" lon="21.6324925"><ele>216.0</ele><time>2026-04-28T06:21:26.07Z</time></trkpt><trkpt lat="39.7019874" lon="21.6325691"><ele>216.0</ele><time>2026-04-28T06:21:32.071Z</time></trkpt><trkpt lat="39.701985" lon="21.6326997"><ele>216.0</ele><time>2026-04-28T06:21:34.07Z</time></trkpt><trkpt lat="39.701988" lon="21.6327982"><ele>216.0</ele><time>2026-04-28T06:21:35.07Z</time></trkpt><trkpt lat="39.7019892" lon="21.6328949"><ele>216.0</ele><time>2026-04-28T06:21:36.07Z</time></trkpt><trkpt lat="39.7019784" lon="21.6330078"><ele>216.0</ele><time>2026-04-28T06:21:37.071Z</time></trkpt><trkpt lat="39.7019546" lon="21.6331227"><ele>216.0</ele><time>2026-04-28T06:21:38.07Z</time></trkpt><trkpt lat="39.7019224" lon="21.6332394"><ele>216.0</ele><time>2026-04-28T06:21:39.07Z</time></trkpt><trkpt lat="39.7018747" lon="21.6333539"><ele>216.5</ele><time>2026-04-28T06:21:40.07Z</time></trkpt><trkpt lat="39.701819" lon="21.6334748"><ele>217.0</ele><time>2026-04-28T06:21:41.071Z</time></trkpt><trkpt lat="39.7017599" lon="21.6335961"><ele>217.5</ele><time>2026-04-28T06:21:42.07Z</time></trkpt><trkpt lat="39.7016941" lon="21.6337181"><ele>218.0</ele><time>2026-04-28T06:21:43.071Z</time></trkpt><trkpt lat="39.7016285" lon="21.6338472"><ele>217.0</ele><time>2026-04-28T06:21:44.071Z</time></trkpt><trkpt lat="39.7015607" lon="21.6339743"><ele>216.0</ele><time>2026-04-28T06:21:45.071Z</time></trkpt><trkpt lat="39.7014989" lon="21.6341113"><ele>215.0</ele><time>2026-04-28T06:21:46.07Z</time></trkpt><trkpt lat="39.7014336" lon="21.6342479"><ele>214.0</ele><time>2026-04-28T06:21:47.071Z</time></trkpt><trkpt lat="39.7013702" lon="21.6343809"><ele>214.0</ele><time>2026-04-28T06:21:48.071Z</time></trkpt><trkpt lat="39.7013071" lon="21.6345019"><ele>214.0</ele><time>2026-04-28T06:21:49.071Z</time></trkpt><trkpt lat="39.7012421" lon="21.6346264"><ele>214.0</ele><time>2026-04-28T06:21:50.071Z</time></trkpt><trkpt lat="39.7011863" lon="21.6347496"><ele>214.0</ele><time>2026-04-28T06:21:51.071Z</time></trkpt><trkpt lat="39.70112" lon="21.6348692"><ele>213.0</ele><time>2026-04-28T06:21:52.07Z</time></trkpt><trkpt lat="39.7010506" lon="21.6349993"><ele>212.0</ele><time>2026-04-28T06:21:53.071Z</time></trkpt><trkpt lat="39.7009821" lon="21.6351288"><ele>211.0</ele><time>2026-04-28T06:21:54.07Z</time></trkpt><trkpt lat="39.7009132" lon="21.635265"><ele>210.0</ele><time>2026-04-28T06:21:55.071Z</time></trkpt><trkpt lat="39.7008458" lon="21.6354032"><ele>210.0</ele><time>2026-04-28T06:21:56.071Z</time></trkpt><trkpt lat="39.7007772" lon="21.6355394"><ele>210.0</ele><time>2026-04-28T06:21:57.071Z</time></trkpt><trkpt lat="39.7007045" lon="21.6356726"><ele>210.0</ele><time>2026-04-28T06:21:58.071Z</time></trkpt><trkpt lat="39.7006358" lon="21.6358046"><ele>210.0</ele><time>2026-04-28T06:21:59.07Z</time></trkpt><trkpt lat="39.7005663" lon="21.6359394"><ele>210.0</ele><time>2026-04-28T06:22:00.071Z</time></trkpt><trkpt lat="39.7004999" lon="21.6360691"><ele>210.0</ele><time>2026-04-28T06:22:01.07Z</time></trkpt><trkpt lat="39.7004324" lon="21.6362018"><ele>210.0</ele><time>2026-04-28T06:22:02.07Z</time></trkpt><trkpt lat="39.7003621" lon="21.6363214"><ele>210.0</ele><time>2026-04-28T06:22:03.071Z</time></trkpt><trkpt lat="39.7002988" lon="21.6364403"><ele>209.6</ele><time>2026-04-28T06:22:04.071Z</time></trkpt><trkpt lat="39.7002416" lon="21.6365745"><ele>209.2</ele><time>2026-04-28T06:22:05.071Z</time></trkpt><trkpt lat="39.7001904" lon="21.6366935"><ele>208.8</ele><time>2026-04-28T06:22:06.071Z</time></trkpt><trkpt lat="39.7001384" lon="21.6368082"><ele>208.4</ele><time>2026-04-28T06:22:07.071Z</time></trkpt><trkpt lat="39.7000894" lon="21.6369172"><ele>208.0</ele><time>2026-04-28T06:22:08.07Z</time></trkpt><trkpt lat="39.7000462" lon="21.6370377"><ele>208.0</ele><time>2026-04-28T06:22:09.07Z</time></trkpt><trkpt lat="39.6999837" lon="21.6371519"><ele>208.0</ele><time>2026-04-28T06:22:10.07Z</time></trkpt><trkpt lat="39.6999115" lon="21.6372758"><ele>208.0</ele><time>2026-04-28T06:22:11.07Z</time></trkpt><trkpt lat="39.6998433" lon="21.6374065"><ele>208.0</ele><time>2026-04-28T06:22:12.07Z</time></trkpt><trkpt lat="39.6997734" lon="21.6375416"><ele>208.0</ele><time>2026-04-28T06:22:13.07Z</time></trkpt><trkpt lat="39.6997042" lon="21.6376705"><ele>208.0</ele><time>2026-04-28T06:22:14.07Z</time></trkpt><trkpt lat="39.69964" lon="21.6378077"><ele>208.0</ele><time>2026-04-28T06:22:15.07Z</time></trkpt><trkpt lat="39.6995804" lon="21.6379393"><ele>208.0</ele><time>2026-04-28T06:22:16.071Z</time></trkpt><trkpt lat="39.6995243" lon="21.6380645"><ele>208.2</ele><time>2026-04-28T06:22:17.071Z</time></trkpt><trkpt lat="39.6994707" lon="21.6381916"><ele>208.4</ele><time>2026-04-28T06:22:18.07Z</time></trkpt><trkpt lat="39.6994172" lon="21.6383052"><ele>208.6</ele><time>2026-04-28T06:22:19.071Z</time></trkpt><trkpt lat="39.6993661" lon="21.6384055"><ele>208.79999999999998</ele><time>2026-04-28T06:22:20.071Z</time></trkpt><trkpt lat="39.6993148" lon="21.638495"><ele>209.0</ele><time>2026-04-28T06:22:21.071Z</time></trkpt><trkpt lat="39.69927" lon="21.6385893"><ele>208.83333333333334</ele><time>2026-04-28T06:22:22.07Z</time></trkpt><trkpt lat="39.6992289" lon="21.6386807"><ele>208.66666666666669</ele><time>2026-04-28T06:22:23.07Z</time></trkpt><trkpt lat="39.6991988" lon="21.6387778"><ele>208.5</ele><time>2026-04-28T06:22:24.07Z</time></trkpt><trkpt lat="39.6991862" lon="21.638887"><ele>208.33333333333331</ele><time>2026-04-28T06:22:25.07Z</time></trkpt><trkpt lat="39.6991962" lon="21.6389784"><ele>208.16666666666666</ele><time>2026-04-28T06:22:26.07Z</time></trkpt><trkpt lat="39.699231" lon="21.639063"><ele>208.0</ele><time>2026-04-28T06:22:27.07Z</time></trkpt><trkpt lat="39.6992863" lon="21.6391214"><ele>208.0</ele><time>2026-04-28T06:22:28.07Z</time></trkpt><trkpt lat="39.6993478" lon="21.6391583"><ele>208.0</ele><time>2026-04-28T06:22:29.07Z</time></trkpt><trkpt lat="39.6994631" lon="21.6392129"><ele>208.0</ele><time>2026-04-28T06:22:31.071Z</time></trkpt><trkpt lat="39.6995405" lon="21.6393198"><ele>208.0</ele><time>2026-04-28T06:22:33.071Z</time></trkpt><trkpt lat="39.6995622" lon="21.6394848"><ele>208.0</ele><time>2026-04-28T06:22:35.07Z</time></trkpt><trkpt lat="39.6995421" lon="21.6395987"><ele>209.4</ele><time>2026-04-28T06:22:36.07Z</time></trkpt><trkpt lat="39.6995161" lon="21.6397225"><ele>210.8</ele><time>2026-04-28T06:22:37.07Z</time></trkpt><trkpt lat="39.6994867" lon="21.6398529"><ele>212.2</ele><time>2026-04-28T06:22:38.071Z</time></trkpt><trkpt lat="39.6994632" lon="21.6399703"><ele>213.6</ele><time>2026-04-28T06:22:39.071Z</time></trkpt><trkpt lat="39.699439" lon="21.640096"><ele>215.0</ele><time>2026-04-28T06:22:40.07Z</time></trkpt><trkpt lat="39.6994213" lon="21.6402212"><ele>214.0</ele><time>2026-04-28T06:22:41.07Z</time></trkpt><trkpt lat="39.6993993" lon="21.6403495"><ele>213.0</ele><time>2026-04-28T06:22:42.07Z</time></trkpt><trkpt lat="39.6993784" lon="21.6404849"><ele>212.0</ele><time>2026-04-28T06:22:43.071Z</time></trkpt><trkpt lat="39.6993451" lon="21.6406166"><ele>211.0</ele><time>2026-04-28T06:22:44.071Z</time></trkpt><trkpt lat="39.699322" lon="21.6407588"><ele>210.0</ele><time>2026-04-28T06:22:45.07Z</time></trkpt><trkpt lat="39.6993039" lon="21.6408946"><ele>210.0</ele><time>2026-04-28T06:22:46.07Z</time></trkpt><trkpt lat="39.699282" lon="21.6410262"><ele>210.0</ele><time>2026-04-28T06:22:47.07Z</time></trkpt><trkpt lat="39.6992593" lon="21.6411548"><ele>210.0</ele><time>2026-04-28T06:22:48.071Z</time></trkpt><trkpt lat="39.6992382" lon="21.6412851"><ele>210.0</ele><time>2026-04-28T06:22:49.071Z</time></trkpt><trkpt lat="39.699224" lon="21.6414233"><ele>210.0</ele><time>2026-04-28T06:22:50.07Z</time></trkpt><trkpt lat="39.6992025" lon="21.6415599"><ele>210.0</ele><time>2026-04-28T06:22:51.07Z</time></trkpt><trkpt lat="39.6991891" lon="21.6417078"><ele>210.0</ele><time>2026-04-28T06:22:52.071Z</time></trkpt><trkpt lat="39.699167" lon="21.6418479"><ele>210.0</ele><time>2026-04-28T06:22:53.071Z</time></trkpt><trkpt lat="39.6991443" lon="21.6419773"><ele>210.0</ele><time>2026-04-28T06:22:54.07Z</time></trkpt><trkpt lat="39.699115" lon="21.6421168"><ele>210.0</ele><time>2026-04-28T06:22:55.07Z</time></trkpt><trkpt lat="39.6990882" lon="21.6422577"><ele>210.0</ele><time>2026-04-28T06:22:56.07Z</time></trkpt><trkpt lat="39.6990489" lon="21.6423922"><ele>210.0</ele><time>2026-04-28T06:22:57.07Z</time></trkpt><trkpt lat="39.6990081" lon="21.6425211"><ele>210.0</ele><time>2026-04-28T06:22:58.071Z</time></trkpt><trkpt lat="39.6989671" lon="21.6426485"><ele>210.0</ele><time>2026-04-28T06:22:59.071Z</time></trkpt><trkpt lat="39.6989292" lon="21.6427744"><ele>210.0</ele><time>2026-04-28T06:23:00.07Z</time></trkpt><trkpt lat="39.6988855" lon="21.6428999"><ele>210.0</ele><time>2026-04-28T06:23:01.07Z</time></trkpt><trkpt lat="39.6988458" lon="21.6430275"><ele>210.0</ele><time>2026-04-28T06:23:02.07Z</time></trkpt><trkpt lat="39.6988074" lon="21.6431599"><ele>210.0</ele><time>2026-04-28T06:23:03.071Z</time></trkpt><trkpt lat="39.6987663" lon="21.6433031"><ele>210.0</ele><time>2026-04-28T06:23:04.07Z</time></trkpt><trkpt lat="39.6987171" lon="21.6434417"><ele>210.0</ele><time>2026-04-28T06:23:05.071Z</time></trkpt><trkpt lat="39.6986693" lon="21.6435772"><ele>210.0</ele><time>2026-04-28T06:23:06.07Z</time></trkpt><trkpt lat="39.6986165" lon="21.6437193"><ele>210.0</ele><time>2026-04-28T06:23:07.07Z</time></trkpt><trkpt lat="39.6985491" lon="21.6438579"><ele>210.0</ele><time>2026-04-28T06:23:08.071Z</time></trkpt><trkpt lat="39.6984769" lon="21.6439882"><ele>210.0</ele><time>2026-04-28T06:23:09.07Z</time></trkpt><trkpt lat="39.698412" lon="21.644121"><ele>210.0</ele><time>2026-04-28T06:23:10.071Z</time></trkpt><trkpt lat="39.6983543" lon="21.6442497"><ele>210.0</ele><time>2026-04-28T06:23:11.071Z</time></trkpt><trkpt lat="39.6982998" lon="21.6443895"><ele>210.0</ele><time>2026-04-28T06:23:12.07Z</time></trkpt><trkpt lat="39.6982525" lon="21.6445333"><ele>208.75</ele><time>2026-04-28T06:23:13.07Z</time></trkpt><trkpt lat="39.698226" lon="21.6446979"><ele>207.5</ele><time>2026-04-28T06:23:14.071Z</time></trkpt><trkpt lat="39.6981912" lon="21.644852"><ele>206.25</ele><time>2026-04-28T06:23:15.07Z</time></trkpt><trkpt lat="39.698154" lon="21.6450069"><ele>205.0</ele><time>2026-04-28T06:23:16.07Z</time></trkpt><trkpt lat="39.6981183" lon="21.6451791"><ele>205.25</ele><time>2026-04-28T06:23:17.07Z</time></trkpt><trkpt lat="39.698076" lon="21.6453274"><ele>205.5</ele><time>2026-04-28T06:23:18.07Z</time></trkpt><trkpt lat="39.6980332" lon="21.6454872"><ele>205.75</ele><time>2026-04-28T06:23:19.07Z</time></trkpt><trkpt lat="39.6979875" lon="21.6456408"><ele>206.0</ele><time>2026-04-28T06:23:20.071Z</time></trkpt><trkpt lat="39.6979387" lon="21.6458056"><ele>206.0</ele><time>2026-04-28T06:23:21.07Z</time></trkpt><trkpt lat="39.6978948" lon="21.6459635"><ele>206.0</ele><time>2026-04-28T06:23:22.071Z</time></trkpt><trkpt lat="39.6978489" lon="21.6461279"><ele>206.0</ele><time>2026-04-28T06:23:23.07Z</time></trkpt><trkpt lat="39.6978027" lon="21.6462958"><ele>206.0</ele><time>2026-04-28T06:23:24.071Z</time></trkpt><trkpt lat="39.6977609" lon="21.6464643"><ele>205.25</ele><time>2026-04-28T06:23:25.07Z</time></trkpt><trkpt lat="39.6977146" lon="21.6466281"><ele>204.5</ele><time>2026-04-28T06:23:26.07Z</time></trkpt><trkpt lat="39.697659" lon="21.6467967"><ele>203.75</ele><time>2026-04-28T06:23:27.07Z</time></trkpt><trkpt lat="39.697612" lon="21.6469606"><ele>203.0</ele><time>2026-04-28T06:23:28.07Z</time></trkpt><trkpt lat="39.6975711" lon="21.6471354"><ele>203.0</ele><time>2026-04-28T06:23:29.07Z</time></trkpt><trkpt lat="39.6975377" lon="21.6473146"><ele>203.0</ele><time>2026-04-28T06:23:30.071Z</time></trkpt><trkpt lat="39.6975127" lon="21.6474921"><ele>203.0</ele><time>2026-04-28T06:23:31.07Z</time></trkpt><trkpt lat="39.6974823" lon="21.6476679"><ele>203.0</ele><time>2026-04-28T06:23:32.071Z</time></trkpt><trkpt lat="39.6974552" lon="21.6478342"><ele>203.0</ele><time>2026-04-28T06:23:33.07Z</time></trkpt><trkpt lat="39.6974352" lon="21.648002"><ele>203.0</ele><time>2026-04-28T06:23:34.071Z</time></trkpt><trkpt lat="39.6974217" lon="21.6481687"><ele>203.0</ele><time>2026-04-28T06:23:35.071Z</time></trkpt><trkpt lat="39.6974094" lon="21.6483274"><ele>203.0</ele><time>2026-04-28T06:23:36.07Z</time></trkpt><trkpt lat="39.6974114" lon="21.6484932"><ele>204.25</ele><time>2026-04-28T06:23:37.071Z</time></trkpt><trkpt lat="39.6974398" lon="21.6486539"><ele>205.5</ele><time>2026-04-28T06:23:38.07Z</time></trkpt><trkpt lat="39.6974907" lon="21.6488047"><ele>206.75</ele><time>2026-04-28T06:23:39.071Z</time></trkpt><trkpt lat="39.6975642" lon="21.6489438"><ele>208.0</ele><time>2026-04-28T06:23:40.07Z</time></trkpt><trkpt lat="39.6976585" lon="21.6490577"><ele>209.25</ele><time>2026-04-28T06:23:41.07Z</time></trkpt><trkpt lat="39.6977746" lon="21.6491665"><ele>210.5</ele><time>2026-04-28T06:23:42.071Z</time></trkpt><trkpt lat="39.6978988" lon="21.6492556"><ele>211.75</ele><time>2026-04-28T06:23:43.071Z</time></trkpt><trkpt lat="39.6980379" lon="21.6493234"><ele>213.0</ele><time>2026-04-28T06:23:44.071Z</time></trkpt><trkpt lat="39.6981897" lon="21.6493629"><ele>213.0</ele><time>2026-04-28T06:23:45.07Z</time></trkpt><trkpt lat="39.698331" lon="21.649391"><ele>213.0</ele><time>2026-04-28T06:23:46.071Z</time></trkpt><trkpt lat="39.698466" lon="21.6493932"><ele>213.0</ele><time>2026-04-28T06:23:47.07Z</time></trkpt><trkpt lat="39.6985993" lon="21.6494051"><ele>213.0</ele><time>2026-04-28T06:23:48.07Z</time></trkpt><trkpt lat="39.6987288" lon="21.6494183"><ele>214.75</ele><time>2026-04-28T06:23:49.071Z</time></trkpt><trkpt lat="39.6988614" lon="21.6494137"><ele>216.5</ele><time>2026-04-28T06:23:50.071Z</time></trkpt><trkpt lat="39.6989885" lon="21.6493959"><ele>218.25</ele><time>2026-04-28T06:23:51.071Z</time></trkpt><trkpt lat="39.6991151" lon="21.6493688"><ele>220.0</ele><time>2026-04-28T06:23:52.07Z</time></trkpt><trkpt lat="39.6992362" lon="21.6493379"><ele>220.0</ele><time>2026-04-28T06:23:53.071Z</time></trkpt><trkpt lat="39.6993569" lon="21.6493204"><ele>220.0</ele><time>2026-04-28T06:23:54.071Z</time></trkpt><trkpt lat="39.699474" lon="21.6493077"><ele>220.0</ele><time>2026-04-28T06:23:55.071Z</time></trkpt><trkpt lat="39.6995879" lon="21.6492976"><ele>220.0</ele><time>2026-04-28T06:23:56.071Z</time></trkpt><trkpt lat="39.6996951" lon="21.6492948"><ele>222.25</ele><time>2026-04-28T06:23:57.071Z</time></trkpt><trkpt lat="39.6998089" lon="21.6492889"><ele>224.5</ele><time>2026-04-28T06:23:58.071Z</time></trkpt><trkpt lat="39.6999254" lon="21.6492893"><ele>226.75</ele><time>2026-04-28T06:23:59.071Z</time></trkpt><trkpt lat="39.7000424" lon="21.6492898"><ele>229.0</ele><time>2026-04-28T06:24:00.071Z</time></trkpt><trkpt lat="39.7001552" lon="21.6493149"><ele>231.0</ele><time>2026-04-28T06:24:01.071Z</time></trkpt><trkpt lat="39.7002622" lon="21.6493476"><ele>233.0</ele><time>2026-04-28T06:24:02.07Z</time></trkpt><trkpt lat="39.7003701" lon="21.6493963"><ele>235.0</ele><time>2026-04-28T06:24:03.071Z</time></trkpt><trkpt lat="39.7004767" lon="21.6494524"><ele>237.0</ele><time>2026-04-28T06:24:04.07Z</time></trkpt><trkpt lat="39.7005898" lon="21.6495085"><ele>240.0</ele><time>2026-04-28T06:24:05.07Z</time></trkpt><trkpt lat="39.7007054" lon="21.6495583"><ele>243.0</ele><time>2026-04-28T06:24:06.07Z</time></trkpt><trkpt lat="39.7008138" lon="21.6496154"><ele>246.0</ele><time>2026-04-28T06:24:07.07Z</time></trkpt><trkpt lat="39.7009268" lon="21.6496721"><ele>249.0</ele><time>2026-04-28T06:24:08.07Z</time></trkpt><trkpt lat="39.7010508" lon="21.6497282"><ele>250.75</ele><time>2026-04-28T06:24:09.07Z</time></trkpt><trkpt lat="39.7011665" lon="21.6497809"><ele>252.5</ele><time>2026-04-28T06:24:10.071Z</time></trkpt><trkpt lat="39.7012806" lon="21.6498306"><ele>254.25</ele><time>2026-04-28T06:24:11.071Z</time></trkpt><trkpt lat="39.7013856" lon="21.6498736"><ele>256.0</ele><time>2026-04-28T06:24:12.071Z</time></trkpt><trkpt lat="39.7014862" lon="21.6498848"><ele>255.99999999999997</ele><time>2026-04-28T06:24:13.071Z</time></trkpt><trkpt lat="39.7015676" lon="21.6498731"><ele>256.0</ele><time>2026-04-28T06:24:14.071Z</time></trkpt><trkpt lat="39.701636" lon="21.6498306"><ele>256.0</ele><time>2026-04-28T06:24:15.071Z</time></trkpt><trkpt lat="39.7016687" lon="21.6497605"><ele>256.0</ele><time>2026-04-28T06:24:16.071Z</time></trkpt><trkpt lat="39.7016639" lon="21.6496442"><ele>255.99999999999997</ele><time>2026-04-28T06:24:17.07Z</time></trkpt><trkpt lat="39.7016477" lon="21.649523"><ele>256.0</ele><time>2026-04-28T06:24:18.071Z</time></trkpt><trkpt lat="39.701623" lon="21.6494076"><ele>256.40000000000003</ele><time>2026-04-28T06:24:19.07Z</time></trkpt><trkpt lat="39.7016042" lon="21.6492915"><ele>256.8</ele><time>2026-04-28T06:24:20.071Z</time></trkpt><trkpt lat="39.7015799" lon="21.649174"><ele>257.20000000000005</ele><time>2026-04-28T06:24:21.071Z</time></trkpt><trkpt lat="39.7015578" lon="21.6490565"><ele>257.6</ele><time>2026-04-28T06:24:22.071Z</time></trkpt><trkpt lat="39.7015428" lon="21.6489436"><ele>258.0</ele><time>2026-04-28T06:24:23.071Z</time></trkpt><trkpt lat="39.7015422" lon="21.6488285"><ele>258.0</ele><time>2026-04-28T06:24:24.07Z</time></trkpt><trkpt lat="39.7015616" lon="21.6487042"><ele>258.0</ele><time>2026-04-28T06:24:25.071Z</time></trkpt><trkpt lat="39.7016009" lon="21.6485985"><ele>258.0</ele><time>2026-04-28T06:24:26.071Z</time></trkpt><trkpt lat="39.7016724" lon="21.6485037"><ele>258.0</ele><time>2026-04-28T06:24:27.07Z</time></trkpt><trkpt lat="39.701758" lon="21.6484224"><ele>258.0</ele><time>2026-04-28T06:24:28.071Z</time></trkpt><trkpt lat="39.701847" lon="21.6483384"><ele>260.6</ele><time>2026-04-28T06:24:29.07Z</time></trkpt><trkpt lat="39.7019421" lon="21.648262"><ele>263.20000000000005</ele><time>2026-04-28T06:24:30.071Z</time></trkpt><trkpt lat="39.7020339" lon="21.6481906"><ele>265.8</ele><time>2026-04-28T06:24:31.07Z</time></trkpt><trkpt lat="39.7021309" lon="21.6481379"><ele>268.40000000000003</ele><time>2026-04-28T06:24:32.071Z</time></trkpt><trkpt lat="39.702227" lon="21.6481031"><ele>271.0</ele><time>2026-04-28T06:24:33.071Z</time></trkpt><trkpt lat="39.7023528" lon="21.6481153"><ele>271.0</ele><time>2026-04-28T06:24:34.07Z</time></trkpt><trkpt lat="39.7024688" lon="21.6481787"><ele>271.0</ele><time>2026-04-28T06:24:35.07Z</time></trkpt><trkpt lat="39.7025902" lon="21.6482688"><ele>271.0</ele><time>2026-04-28T06:24:36.071Z</time></trkpt><trkpt lat="39.7026841" lon="21.6483901"><ele>271.0</ele><time>2026-04-28T06:24:37.07Z</time></trkpt><trkpt lat="39.7027689" lon="21.6485085"><ele>271.5</ele><time>2026-04-28T06:24:38.071Z</time></trkpt><trkpt lat="39.7028553" lon="21.648627"><ele>272.0</ele><time>2026-04-28T06:24:39.07Z</time></trkpt><trkpt lat="39.7029415" lon="21.6487568"><ele>272.5</ele><time>2026-04-28T06:24:40.071Z</time></trkpt><trkpt lat="39.7030309" lon="21.6488863"><ele>273.0</ele><time>2026-04-28T06:24:41.071Z</time></trkpt><trkpt lat="39.7031201" lon="21.6490166"><ele>273.0</ele><time>2026-04-28T06:24:42.071Z</time></trkpt><trkpt lat="39.7032121" lon="21.6491492"><ele>273.0</ele><time>2026-04-28T06:24:43.071Z</time></trkpt><trkpt lat="39.7032963" lon="21.6492947"><ele>273.0</ele><time>2026-04-28T06:24:44.071Z</time></trkpt><trkpt lat="39.7033719" lon="21.6494405"><ele>273.0</ele><time>2026-04-28T06:24:45.071Z</time></trkpt><trkpt lat="39.7034368" lon="21.6495967"><ele>274.75</ele><time>2026-04-28T06:24:46.071Z</time></trkpt><trkpt lat="39.7035027" lon="21.6497523"><ele>276.5</ele><time>2026-04-28T06:24:47.07Z</time></trkpt><trkpt lat="39.7035633" lon="21.6499201"><ele>278.25</ele><time>2026-04-28T06:24:48.071Z</time></trkpt><trkpt lat="39.7036056" lon="21.6500914"><ele>280.0</ele><time>2026-04-28T06:24:49.07Z</time></trkpt><trkpt lat="39.7036513" lon="21.6502667"><ele>282.5</ele><time>2026-04-28T06:24:50.071Z</time></trkpt><trkpt lat="39.7036847" lon="21.6504471"><ele>285.0</ele><time>2026-04-28T06:24:51.071Z</time></trkpt><trkpt lat="39.7036976" lon="21.6506173"><ele>287.5</ele><time>2026-04-28T06:24:52.071Z</time></trkpt><trkpt lat="39.7037095" lon="21.6507814"><ele>290.0</ele><time>2026-04-28T06:24:53.071Z</time></trkpt><trkpt lat="39.7037253" lon="21.6509392"><ele>290.0</ele><time>2026-04-28T06:24:54.07Z</time></trkpt><trkpt lat="39.7037583" lon="21.6510749"><ele>290.0</ele><time>2026-04-28T06:24:55.071Z</time></trkpt><trkpt lat="39.7038186" lon="21.6511895"><ele>290.0</ele><time>2026-04-28T06:24:56.071Z</time></trkpt><trkpt lat="39.7039052" lon="21.6512713"><ele>290.0</ele><time>2026-04-28T06:24:57.071Z</time></trkpt><trkpt lat="39.7040169" lon="21.6513286"><ele>290.0</ele><time>2026-04-28T06:24:58.071Z</time></trkpt><trkpt lat="39.7041388" lon="21.6513634"><ele>293.25</ele><time>2026-04-28T06:24:59.07Z</time></trkpt><trkpt lat="39.7042668" lon="21.6513793"><ele>296.5</ele><time>2026-04-28T06:25:00.071Z</time></trkpt><trkpt lat="39.7043918" lon="21.6513835"><ele>299.75</ele><time>2026-04-28T06:25:01.07Z</time></trkpt><trkpt lat="39.7045178" lon="21.6513852"><ele>303.0</ele><time>2026-04-28T06:25:02.071Z</time></trkpt><trkpt lat="39.7046458" lon="21.6513841"><ele>304.25</ele><time>2026-04-28T06:25:03.07Z</time></trkpt><trkpt lat="39.7047731" lon="21.6513882"><ele>305.5</ele><time>2026-04-28T06:25:04.071Z</time></trkpt><trkpt lat="39.7049061" lon="21.6513943"><ele>306.75</ele><time>2026-04-28T06:25:05.07Z</time></trkpt><trkpt lat="39.7050402" lon="21.6513858"><ele>308.0</ele><time>2026-04-28T06:25:06.071Z</time></trkpt><trkpt lat="39.7051693" lon="21.6513713"><ele>309.25</ele><time>2026-04-28T06:25:07.071Z</time></trkpt><trkpt lat="39.7052968" lon="21.6513489"><ele>310.5</ele><time>2026-04-28T06:25:08.07Z</time></trkpt><trkpt lat="39.7054308" lon="21.6513237"><ele>311.75</ele><time>2026-04-28T06:25:09.07Z</time></trkpt><trkpt lat="39.7055611" lon="21.6512991"><ele>313.0</ele><time>2026-04-28T06:25:10.071Z</time></trkpt><trkpt lat="39.7056903" lon="21.6512733"><ele>313.0</ele><time>2026-04-28T06:25:11.071Z</time></trkpt><trkpt lat="39.7058218" lon="21.651251"><ele>313.0</ele><time>2026-04-28T06:25:12.071Z</time></trkpt><trkpt lat="39.7059509" lon="21.651231"><ele>313.0</ele><time>2026-04-28T06:25:13.07Z</time></trkpt><trkpt lat="39.7060746" lon="21.6512208"><ele>313.0</ele><time>2026-04-28T06:25:14.071Z</time></trkpt><trkpt lat="39.7062073" lon="21.6512076"><ele>315.25</ele><time>2026-04-28T06:25:15.07Z</time></trkpt><trkpt lat="39.7063336" lon="21.6511891"><ele>317.5</ele><time>2026-04-28T06:25:16.071Z</time></trkpt><trkpt lat="39.7064568" lon="21.6511626"><ele>319.75</ele><time>2026-04-28T06:25:17.07Z</time></trkpt><trkpt lat="39.706582" lon="21.6511421"><ele>322.0</ele><time>2026-04-28T06:25:18.07Z</time></trkpt><trkpt lat="39.7067081" lon="21.6511416"><ele>322.0</ele><time>2026-04-28T06:25:19.071Z</time></trkpt><trkpt lat="39.7068206" lon="21.6511689"><ele>322.0</ele><time>2026-04-28T06:25:20.07Z</time></trkpt><trkpt lat="39.7069493" lon="21.6512187"><ele>322.0</ele><time>2026-04-28T06:25:21.071Z</time></trkpt><trkpt lat="39.7070816" lon="21.6512859"><ele>322.0</ele><time>2026-04-28T06:25:22.071Z</time></trkpt><trkpt lat="39.7072141" lon="21.6513513"><ele>323.0</ele><time>2026-04-28T06:25:23.071Z</time></trkpt><trkpt lat="39.7073437" lon="21.6514121"><ele>324.0</ele><time>2026-04-28T06:25:24.071Z</time></trkpt><trkpt lat="39.707468" lon="21.6515025"><ele>325.0</ele><time>2026-04-28T06:25:25.07Z</time></trkpt><trkpt lat="39.7075861" lon="21.651601"><ele>326.0</ele><time>2026-04-28T06:25:26.071Z</time></trkpt><trkpt lat="39.7076997" lon="21.6517211"><ele>325.0</ele><time>2026-04-28T06:25:27.07Z</time></trkpt><trkpt lat="39.7078094" lon="21.6518376"><ele>324.0</ele><time>2026-04-28T06:25:28.07Z</time></trkpt><trkpt lat="39.7079229" lon="21.6519544"><ele>323.0</ele><time>2026-04-28T06:25:29.071Z</time></trkpt><trkpt lat="39.7080385" lon="21.6520681"><ele>322.0</ele><time>2026-04-28T06:25:30.071Z</time></trkpt><trkpt lat="39.7081449" lon="21.6521887"><ele>325.25</ele><time>2026-04-28T06:25:31.071Z</time></trkpt><trkpt lat="39.7082493" lon="21.6523064"><ele>328.5</ele><time>2026-04-28T06:25:32.071Z</time></trkpt><trkpt lat="39.7083525" lon="21.6524166"><ele>331.75</ele><time>2026-04-28T06:25:33.071Z</time></trkpt><trkpt lat="39.708453" lon="21.652527"><ele>335.0</ele><time>2026-04-28T06:25:34.071Z</time></trkpt><trkpt lat="39.7085523" lon="21.6526359"><ele>335.25</ele><time>2026-04-28T06:25:35.07Z</time></trkpt><trkpt lat="39.7086497" lon="21.6527496"><ele>335.5</ele><time>2026-04-28T06:25:36.071Z</time></trkpt><trkpt lat="39.7087426" lon="21.6528615"><ele>335.75</ele><time>2026-04-28T06:25:37.071Z</time></trkpt><trkpt lat="39.7088427" lon="21.6529676"><ele>336.0</ele><time>2026-04-28T06:25:38.071Z</time></trkpt><trkpt lat="39.7089474" lon="21.6530538"><ele>339.0</ele><time>2026-04-28T06:25:39.071Z</time></trkpt><trkpt lat="39.7090587" lon="21.653119"><ele>342.0</ele><time>2026-04-28T06:25:40.07Z</time></trkpt><trkpt lat="39.7091671" lon="21.653153"><ele>345.0</ele><time>2026-04-28T06:25:41.07Z</time></trkpt><trkpt lat="39.709283" lon="21.6531426"><ele>348.0</ele><time>2026-04-28T06:25:42.071Z</time></trkpt><trkpt lat="39.7093856" lon="21.6530911"><ele>348.5</ele><time>2026-04-28T06:25:43.071Z</time></trkpt><trkpt lat="39.7094817" lon="21.6530048"><ele>349.0</ele><time>2026-04-28T06:25:44.07Z</time></trkpt><trkpt lat="39.7095703" lon="21.6529082"><ele>349.5</ele><time>2026-04-28T06:25:45.071Z</time></trkpt><trkpt lat="39.7096653" lon="21.6528085"><ele>350.0</ele><time>2026-04-28T06:25:46.071Z</time></trkpt><trkpt lat="39.7097725" lon="21.6527175"><ele>350.0</ele><time>2026-04-28T06:25:47.071Z</time></trkpt><trkpt lat="39.7098913" lon="21.6526656"><ele>350.0</ele><time>2026-04-28T06:25:48.07Z</time></trkpt><trkpt lat="39.7100044" lon="21.652636"><ele>350.0</ele><time>2026-04-28T06:25:49.071Z</time></trkpt><trkpt lat="39.7101205" lon="21.6526147"><ele>350.0</ele><time>2026-04-28T06:25:50.07Z</time></trkpt><trkpt lat="39.7102393" lon="21.6526334"><ele>352.25</ele><time>2026-04-28T06:25:51.07Z</time></trkpt><trkpt lat="39.7103492" lon="21.6526898"><ele>354.5</ele><time>2026-04-28T06:25:52.071Z</time></trkpt><trkpt lat="39.7104735" lon="21.6527653"><ele>356.75</ele><time>2026-04-28T06:25:53.071Z</time></trkpt><trkpt lat="39.7105972" lon="21.6528481"><ele>359.0</ele><time>2026-04-28T06:25:54.07Z</time></trkpt><trkpt lat="39.7107176" lon="21.6529329"><ele>360.25</ele><time>2026-04-28T06:25:55.071Z</time></trkpt><trkpt lat="39.7108452" lon="21.6530129"><ele>361.5</ele><time>2026-04-28T06:25:56.071Z</time></trkpt><trkpt lat="39.7109633" lon="21.653101"><ele>362.75</ele><time>2026-04-28T06:25:57.07Z</time></trkpt><trkpt lat="39.7110912" lon="21.6531645"><ele>364.0</ele><time>2026-04-28T06:25:58.07Z</time></trkpt><trkpt lat="39.7112333" lon="21.6531849"><ele>366.5</ele><time>2026-04-28T06:25:59.071Z</time></trkpt><trkpt lat="39.7113655" lon="21.653185"><ele>369.0</ele><time>2026-04-28T06:26:00.071Z</time></trkpt><trkpt lat="39.7114956" lon="21.6531705"><ele>371.5</ele><time>2026-04-28T06:26:01.071Z</time></trkpt><trkpt lat="39.7116224" lon="21.6531412"><ele>374.0</ele><time>2026-04-28T06:26:02.07Z</time></trkpt><trkpt lat="39.7117428" lon="21.6531045"><ele>374.0</ele><time>2026-04-28T06:26:03.071Z</time></trkpt><trkpt lat="39.7118611" lon="21.6530632"><ele>374.0</ele><time>2026-04-28T06:26:04.07Z</time></trkpt><trkpt lat="39.7119787" lon="21.653011"><ele>374.0</ele><time>2026-04-28T06:26:05.071Z</time></trkpt><trkpt lat="39.7120912" lon="21.6529534"><ele>374.0</ele><time>2026-04-28T06:26:06.071Z</time></trkpt><trkpt lat="39.7121993" lon="21.652889"><ele>377.5</ele><time>2026-04-28T06:26:07.07Z</time></trkpt><trkpt lat="39.7123006" lon="21.6528047"><ele>381.0</ele><time>2026-04-28T06:26:08.071Z</time></trkpt><trkpt lat="39.7123822" lon="21.6527106"><ele>384.5</ele><time>2026-04-28T06:26:09.07Z</time></trkpt><trkpt lat="39.7124484" lon="21.6525778"><ele>388.0</ele><time>2026-04-28T06:26:10.071Z</time></trkpt><trkpt lat="39.7124937" lon="21.6524397"><ele>388.75</ele><time>2026-04-28T06:26:11.071Z</time></trkpt><trkpt lat="39.7125277" lon="21.6522866"><ele>389.5</ele><time>2026-04-28T06:26:12.07Z</time></trkpt><trkpt lat="39.7125548" lon="21.6521287"><ele>390.25</ele><time>2026-04-28T06:26:13.07Z</time></trkpt><trkpt lat="39.7125781" lon="21.6519633"><ele>391.0</ele><time>2026-04-28T06:26:14.071Z</time></trkpt><trkpt lat="39.7126071" lon="21.6517982"><ele>391.25</ele><time>2026-04-28T06:26:15.07Z</time></trkpt><trkpt lat="39.7126425" lon="21.6516551"><ele>391.5</ele><time>2026-04-28T06:26:16.07Z</time></trkpt><trkpt lat="39.7126748" lon="21.6515135"><ele>391.75</ele><time>2026-04-28T06:26:17.07Z</time></trkpt><trkpt lat="39.7127141" lon="21.651368"><ele>392.0</ele><time>2026-04-28T06:26:18.07Z</time></trkpt><trkpt lat="39.7127555" lon="21.6512185"><ele>397.5</ele><time>2026-04-28T06:26:19.07Z</time></trkpt><trkpt lat="39.7128032" lon="21.6510745"><ele>403.0</ele><time>2026-04-28T06:26:20.071Z</time></trkpt><trkpt lat="39.7128606" lon="21.6509384"><ele>408.5</ele><time>2026-04-28T06:26:21.071Z</time></trkpt><trkpt lat="39.7129331" lon="21.650803"><ele>414.0</ele><time>2026-04-28T06:26:22.07Z</time></trkpt><trkpt lat="39.7130137" lon="21.6506692"><ele>414.0</ele><time>2026-04-28T06:26:23.07Z</time></trkpt><trkpt lat="39.7131021" lon="21.6505227"><ele>414.0</ele><time>2026-04-28T06:26:24.071Z</time></trkpt><trkpt lat="39.7131885" lon="21.6503841"><ele>414.0</ele><time>2026-04-28T06:26:25.071Z</time></trkpt><trkpt lat="39.7132698" lon="21.6502383"><ele>414.0</ele><time>2026-04-28T06:26:26.07Z</time></trkpt><trkpt lat="39.7133591" lon="21.6501008"><ele>412.25</ele><time>2026-04-28T06:26:27.071Z</time></trkpt><trkpt lat="39.7134415" lon="21.6499734"><ele>410.5</ele><time>2026-04-28T06:26:28.07Z</time></trkpt><trkpt lat="39.7135227" lon="21.6498483"><ele>408.75</ele><time>2026-04-28T06:26:29.071Z</time></trkpt><trkpt lat="39.7136025" lon="21.6497187"><ele>407.0</ele><time>2026-04-28T06:26:30.071Z</time></trkpt><trkpt lat="39.7136816" lon="21.6495925"><ele>409.0</ele><time>2026-04-28T06:26:31.071Z</time></trkpt><trkpt lat="39.7137666" lon="21.6494801"><ele>411.0</ele><time>2026-04-28T06:26:32.07Z</time></trkpt><trkpt lat="39.7138534" lon="21.6493725"><ele>413.0</ele><time>2026-04-28T06:26:33.07Z</time></trkpt><trkpt lat="39.713978" lon="21.6493125"><ele>415.0</ele><time>2026-04-28T06:26:34.07Z</time></trkpt><trkpt lat="39.7141031" lon="21.6492724"><ele>415.0</ele><time>2026-04-28T06:26:35.071Z</time></trkpt><trkpt lat="39.7142457" lon="21.6492498"><ele>415.0</ele><time>2026-04-28T06:26:36.071Z</time></trkpt><trkpt lat="39.7143904" lon="21.6492253"><ele>415.0</ele><time>2026-04-28T06:26:37.07Z</time></trkpt><trkpt lat="39.7145439" lon="21.6492029"><ele>415.0</ele><time>2026-04-28T06:26:38.07Z</time></trkpt><trkpt lat="39.7146987" lon="21.6491829"><ele>418.6666666666667</ele><time>2026-04-28T06:26:39.071Z</time></trkpt><trkpt lat="39.7148539" lon="21.6491673"><ele>422.33333333333337</ele><time>2026-04-28T06:26:40.071Z</time></trkpt><trkpt lat="39.7150036" lon="21.649162"><ele>426.0</ele><time>2026-04-28T06:26:41.07Z</time></trkpt><trkpt lat="39.715153" lon="21.6491662"><ele>430.25</ele><time>2026-04-28T06:26:42.071Z</time></trkpt><trkpt lat="39.7152963" lon="21.6491661"><ele>434.5</ele><time>2026-04-28T06:26:43.07Z</time></trkpt><trkpt lat="39.7154276" lon="21.6491541"><ele>438.75</ele><time>2026-04-28T06:26:44.071Z</time></trkpt><trkpt lat="39.7155482" lon="21.6491065"><ele>443.0</ele><time>2026-04-28T06:26:45.07Z</time></trkpt><trkpt lat="39.7156652" lon="21.6490245"><ele>443.0</ele><time>2026-04-28T06:26:46.07Z</time></trkpt><trkpt lat="39.7157705" lon="21.6489212"><ele>443.0</ele><time>2026-04-28T06:26:47.071Z</time></trkpt><trkpt lat="39.7158656" lon="21.6487984"><ele>443.0</ele><time>2026-04-28T06:26:48.071Z</time></trkpt><trkpt lat="39.7159541" lon="21.6486696"><ele>443.0</ele><time>2026-04-28T06:26:49.071Z</time></trkpt><trkpt lat="39.7160374" lon="21.6485326"><ele>443.5</ele><time>2026-04-28T06:26:50.07Z</time></trkpt><trkpt lat="39.7161185" lon="21.6483963"><ele>444.0</ele><time>2026-04-28T06:26:51.071Z</time></trkpt><trkpt lat="39.7162034" lon="21.648262"><ele>444.5</ele><time>2026-04-28T06:26:52.07Z</time></trkpt><trkpt lat="39.7162942" lon="21.6481479"><ele>445.0</ele><time>2026-04-28T06:26:53.071Z</time></trkpt><trkpt lat="39.716387" lon="21.6480748"><ele>445.0</ele><time>2026-04-28T06:26:54.071Z</time></trkpt><trkpt lat="39.7164956" lon="21.6480175"><ele>445.0</ele><time>2026-04-28T06:26:55.071Z</time></trkpt><trkpt lat="39.7166248" lon="21.6479909"><ele>445.0</ele><time>2026-04-28T06:26:56.071Z</time></trkpt><trkpt lat="39.7167582" lon="21.6479971"><ele>445.0</ele><time>2026-04-28T06:26:57.07Z</time></trkpt><trkpt lat="39.7168884" lon="21.6479732"><ele>448.5</ele><time>2026-04-28T06:26:58.071Z</time></trkpt><trkpt lat="39.7170163" lon="21.6479344"><ele>452.0</ele><time>2026-04-28T06:26:59.07Z</time></trkpt><trkpt lat="39.717126" lon="21.6478821"><ele>455.5</ele><time>2026-04-28T06:27:00.071Z</time></trkpt><trkpt lat="39.7172197" lon="21.6477957"><ele>459.0</ele><time>2026-04-28T06:27:01.071Z</time></trkpt><trkpt lat="39.717287" lon="21.6476736"><ele>459.0</ele><time>2026-04-28T06:27:02.071Z</time></trkpt><trkpt lat="39.7173345" lon="21.6475424"><ele>459.0</ele><time>2026-04-28T06:27:03.07Z</time></trkpt><trkpt lat="39.7173576" lon="21.6473979"><ele>459.0</ele><time>2026-04-28T06:27:04.071Z</time></trkpt><trkpt lat="39.7173595" lon="21.6472475"><ele>459.0</ele><time>2026-04-28T06:27:05.071Z</time></trkpt><trkpt lat="39.7173722" lon="21.6471105"><ele>459.0</ele><time>2026-04-28T06:27:06.07Z</time></trkpt><trkpt lat="39.7173972" lon="21.6470017"><ele>457.6</ele><time>2026-04-28T06:27:07.07Z</time></trkpt><trkpt lat="39.7174566" lon="21.6469154"><ele>456.2</ele><time>2026-04-28T06:27:08.07Z</time></trkpt><trkpt lat="39.7175445" lon="21.6468727"><ele>454.80000000000007</ele><time>2026-04-28T06:27:09.07Z</time></trkpt><trkpt lat="39.7176604" lon="21.6468459"><ele>453.40000000000003</ele><time>2026-04-28T06:27:10.07Z</time></trkpt><trkpt lat="39.7177877" lon="21.6468611"><ele>452.0</ele><time>2026-04-28T06:27:11.07Z</time></trkpt><trkpt lat="39.7179172" lon="21.646879"><ele>452.0</ele><time>2026-04-28T06:27:12.071Z</time></trkpt><trkpt lat="39.7180463" lon="21.6469046"><ele>452.0</ele><time>2026-04-28T06:27:13.071Z</time></trkpt><trkpt lat="39.7181731" lon="21.6469436"><ele>452.0</ele><time>2026-04-28T06:27:14.071Z</time></trkpt><trkpt lat="39.7183049" lon="21.6469823"><ele>452.0</ele><time>2026-04-28T06:27:15.07Z</time></trkpt><trkpt lat="39.718432" lon="21.6470262"><ele>457.20000000000005</ele><time>2026-04-28T06:27:16.07Z</time></trkpt><trkpt lat="39.7185571" lon="21.6470531"><ele>462.40000000000003</ele><time>2026-04-28T06:27:17.07Z</time></trkpt><trkpt lat="39.718674" lon="21.6470767"><ele>467.59999999999997</ele><time>2026-04-28T06:27:18.07Z</time></trkpt><trkpt lat="39.7187721" lon="21.6470777"><ele>472.79999999999995</ele><time>2026-04-28T06:27:19.071Z</time></trkpt><trkpt lat="39.7188633" lon="21.6470459"><ele>478.0</ele><time>2026-04-28T06:27:20.071Z</time></trkpt><trkpt lat="39.7189273" lon="21.6469759"><ele>477.4</ele><time>2026-04-28T06:27:21.07Z</time></trkpt><trkpt lat="39.7189691" lon="21.6468774"><ele>476.79999999999995</ele><time>2026-04-28T06:27:22.07Z</time></trkpt><trkpt lat="39.7189792" lon="21.6467463"><ele>476.2</ele><time>2026-04-28T06:27:23.071Z</time></trkpt><trkpt lat="39.7189853" lon="21.6465782"><ele>475.6</ele><time>2026-04-28T06:27:24.07Z</time></trkpt><trkpt lat="39.7189848" lon="21.6464075"><ele>475.0</ele><time>2026-04-28T06:27:25.071Z</time></trkpt><trkpt lat="39.7189853" lon="21.6462359"><ele>475.0</ele><time>2026-04-28T06:27:26.071Z</time></trkpt><trkpt lat="39.7189852" lon="21.6460623"><ele>475.0</ele><time>2026-04-28T06:27:27.07Z</time></trkpt><trkpt lat="39.7189872" lon="21.6459157"><ele>475.0</ele><time>2026-04-28T06:27:28.071Z</time></trkpt><trkpt lat="39.718991" lon="21.6457766"><ele>475.0</ele><time>2026-04-28T06:27:29.071Z</time></trkpt><trkpt lat="39.7189978" lon="21.6456382"><ele>475.0</ele><time>2026-04-28T06:27:30.071Z</time></trkpt><trkpt lat="39.7189747" lon="21.6455101"><ele>475.0</ele><time>2026-04-28T06:27:31.07Z</time></trkpt><trkpt lat="39.7189177" lon="21.6453923"><ele>475.0</ele><time>2026-04-28T06:27:32.071Z</time></trkpt><trkpt lat="39.718837" lon="21.6453"><ele>475.0</ele><time>2026-04-28T06:27:33.07Z</time></trkpt><trkpt lat="39.7187174" lon="21.6452227"><ele>475.0</ele><time>2026-04-28T06:27:34.071Z</time></trkpt><trkpt lat="39.7185994" lon="21.6451502"><ele>474.2</ele><time>2026-04-28T06:27:35.07Z</time></trkpt><trkpt lat="39.7185057" lon="21.6450767"><ele>473.4</ele><time>2026-04-28T06:27:36.07Z</time></trkpt><trkpt lat="39.7184201" lon="21.6449825"><ele>472.6</ele><time>2026-04-28T06:27:37.07Z</time></trkpt><trkpt lat="39.7183521" lon="21.6448774"><ele>471.8</ele><time>2026-04-28T06:27:38.07Z</time></trkpt><trkpt lat="39.7182905" lon="21.6447576"><ele>471.0</ele><time>2026-04-28T06:27:39.07Z</time></trkpt><trkpt lat="39.7182362" lon="21.6446366"><ele>471.0</ele><time>2026-04-28T06:27:40.071Z</time></trkpt><trkpt lat="39.7181784" lon="21.6445188"><ele>471.0</ele><time>2026-04-28T06:27:41.071Z</time></trkpt><trkpt lat="39.7181116" lon="21.6444057"><ele>471.0</ele><time>2026-04-28T06:27:42.07Z</time></trkpt><trkpt lat="39.7180384" lon="21.6442951"><ele>471.0</ele><time>2026-04-28T06:27:43.07Z</time></trkpt><trkpt lat="39.7179626" lon="21.6441932"><ele>471.0</ele><time>2026-04-28T06:27:44.071Z</time></trkpt><trkpt lat="39.7178951" lon="21.6441122"><ele>471.6666666666667</ele><time>2026-04-28T06:27:45.071Z</time></trkpt><trkpt lat="39.7178255" lon="21.6440452"><ele>472.33333333333337</ele><time>2026-04-28T06:27:46.07Z</time></trkpt><trkpt lat="39.7177755" lon="21.6439894"><ele>473.0</ele><time>2026-04-28T06:27:47.07Z</time></trkpt><trkpt lat="39.7176894" lon="21.6439112"><ele>473.6666666666667</ele><time>2026-04-28T06:27:49.07Z</time></trkpt><trkpt lat="39.7176296" lon="21.6438414"><ele>474.33333333333337</ele><time>2026-04-28T06:27:51.07Z</time></trkpt><trkpt lat="39.7175917" lon="21.6437488"><ele>475.0</ele><time>2026-04-28T06:27:54.071Z</time></trkpt><trkpt lat="39.7175373" lon="21.6436564"><ele>478.6</ele><time>2026-04-28T06:27:57.07Z</time></trkpt><trkpt lat="39.7174881" lon="21.6435397"><ele>482.2</ele><time>2026-04-28T06:27:59.071Z</time></trkpt><trkpt lat="39.7174483" lon="21.6434644"><ele>485.79999999999995</ele><time>2026-04-28T06:28:00.07Z</time></trkpt><trkpt lat="39.7173884" lon="21.6433748"><ele>489.4</ele><time>2026-04-28T06:28:01.071Z</time></trkpt><trkpt lat="39.717332" lon="21.6432758"><ele>493.0</ele><time>2026-04-28T06:28:02.07Z</time></trkpt><trkpt lat="39.7172689" lon="21.6431834"><ele>493.0</ele><time>2026-04-28T06:28:03.071Z</time></trkpt><trkpt lat="39.7172008" lon="21.6430938"><ele>492.99999999999994</ele><time>2026-04-28T06:28:04.07Z</time></trkpt><trkpt lat="39.7171324" lon="21.6429966"><ele>492.99999999999994</ele><time>2026-04-28T06:28:05.071Z</time></trkpt><trkpt lat="39.7170546" lon="21.6428894"><ele>493.0</ele><time>2026-04-28T06:28:06.071Z</time></trkpt><trkpt lat="39.7169763" lon="21.6427691"><ele>493.0</ele><time>2026-04-28T06:28:07.071Z</time></trkpt><trkpt lat="39.7168927" lon="21.6426483"><ele>491.79999999999995</ele><time>2026-04-28T06:28:08.07Z</time></trkpt><trkpt lat="39.7168204" lon="21.6425216"><ele>490.59999999999997</ele><time>2026-04-28T06:28:09.071Z</time></trkpt><trkpt lat="39.7167484" lon="21.6424098"><ele>489.40000000000003</ele><time>2026-04-28T06:28:10.071Z</time></trkpt><trkpt lat="39.7166774" lon="21.6422966"><ele>488.20000000000005</ele><time>2026-04-28T06:28:11.071Z</time></trkpt><trkpt lat="39.7166238" lon="21.6421817"><ele>487.0</ele><time>2026-04-28T06:28:12.07Z</time></trkpt><trkpt lat="39.7165806" lon="21.6420666"><ele>488.6</ele><time>2026-04-28T06:28:13.071Z</time></trkpt><trkpt lat="39.7165556" lon="21.6419449"><ele>490.20000000000005</ele><time>2026-04-28T06:28:14.07Z</time></trkpt><trkpt lat="39.7165404" lon="21.6418249"><ele>491.8</ele><time>2026-04-28T06:28:15.07Z</time></trkpt><trkpt lat="39.7165265" lon="21.641708"><ele>493.4</ele><time>2026-04-28T06:28:16.071Z</time></trkpt><trkpt lat="39.7165093" lon="21.6415838"><ele>495.0</ele><time>2026-04-28T06:28:17.071Z</time></trkpt><trkpt lat="39.7164925" lon="21.6414656"><ele>495.0</ele><time>2026-04-28T06:28:18.07Z</time></trkpt><trkpt lat="39.7164845" lon="21.6413747"><ele>495.0</ele><time>2026-04-28T06:28:19.071Z</time></trkpt><trkpt lat="39.7164752" lon="21.6412794"><ele>495.0</ele><time>2026-04-28T06:28:21.07Z</time></trkpt><trkpt lat="39.7165472" lon="21.6412077"><ele>495.0</ele><time>2026-04-28T06:28:24.071Z</time></trkpt><trkpt lat="39.7166355" lon="21.6412158"><ele>495.0</ele><time>2026-04-28T06:28:36.07Z</time></trkpt><trkpt lat="39.7167357" lon="21.6412584"><ele>495.0</ele><time>2026-04-28T06:28:38.07Z</time></trkpt><trkpt lat="39.7168413" lon="21.6413535"><ele>495.0</ele><time>2026-04-28T06:28:40.07Z</time></trkpt><trkpt lat="39.7168931" lon="21.6414059"><ele>495.0</ele><time>2026-04-28T06:28:41.071Z</time></trkpt><trkpt lat="39.7169797" lon="21.6415129"><ele>495.0</ele><time>2026-04-28T06:28:43.071Z</time></trkpt><trkpt lat="39.717028" lon="21.6415783"><ele>495.0</ele><time>2026-04-28T06:28:44.071Z</time></trkpt><trkpt lat="39.7170877" lon="21.6416505"><ele>495.0</ele><time>2026-04-28T06:28:45.07Z</time></trkpt><trkpt lat="39.7171464" lon="21.6417168"><ele>495.0</ele><time>2026-04-28T06:28:46.071Z</time></trkpt><trkpt lat="39.7171971" lon="21.6417831"><ele>494.8333333333333</ele><time>2026-04-28T06:28:47.071Z</time></trkpt><trkpt lat="39.7172624" lon="21.6418523"><ele>494.66666666666663</ele><time>2026-04-28T06:28:48.07Z</time></trkpt><trkpt lat="39.7173301" lon="21.6419036"><ele>494.5</ele><time>2026-04-28T06:28:49.07Z</time></trkpt><trkpt lat="39.7173997" lon="21.6419507"><ele>494.3333333333333</ele><time>2026-04-28T06:28:50.07Z</time></trkpt><trkpt lat="39.7174718" lon="21.641996"><ele>494.16666666666663</ele><time>2026-04-28T06:28:51.07Z</time></trkpt><trkpt lat="39.717543" lon="21.6420396"><ele>494.0</ele><time>2026-04-28T06:28:52.07Z</time></trkpt><trkpt lat="39.7176141" lon="21.6420929"><ele>496.0</ele><time>2026-04-28T06:28:53.071Z</time></trkpt><trkpt lat="39.7176867" lon="21.6421612"><ele>498.0</ele><time>2026-04-28T06:28:54.071Z</time></trkpt><trkpt lat="39.7177538" lon="21.6422493"><ele>500.0</ele><time>2026-04-28T06:28:55.071Z</time></trkpt><trkpt lat="39.7178289" lon="21.6423438"><ele>502.0</ele><time>2026-04-28T06:28:56.071Z</time></trkpt><trkpt lat="39.7179017" lon="21.6424412"><ele>504.0</ele><time>2026-04-28T06:28:57.071Z</time></trkpt><trkpt lat="39.717973" lon="21.6425452"><ele>504.75</ele><time>2026-04-28T06:28:58.071Z</time></trkpt><trkpt lat="39.7180611" lon="21.642648"><ele>505.5</ele><time>2026-04-28T06:28:59.07Z</time></trkpt><trkpt lat="39.7181537" lon="21.6427491"><ele>506.25</ele><time>2026-04-28T06:29:00.07Z</time></trkpt><trkpt lat="39.7182582" lon="21.6428364"><ele>507.0</ele><time>2026-04-28T06:29:01.071Z</time></trkpt><trkpt lat="39.7183643" lon="21.642917"><ele>507.0</ele><time>2026-04-28T06:29:02.071Z</time></trkpt><trkpt lat="39.7184594" lon="21.6429963"><ele>507.00000000000006</ele><time>2026-04-28T06:29:03.071Z</time></trkpt><trkpt lat="39.7185448" lon="21.6430611"><ele>507.00000000000006</ele><time>2026-04-28T06:29:04.07Z</time></trkpt><trkpt lat="39.7186289" lon="21.64312"><ele>507.0</ele><time>2026-04-28T06:29:05.07Z</time></trkpt><trkpt lat="39.7187104" lon="21.6431593"><ele>507.0</ele><time>2026-04-28T06:29:06.07Z</time></trkpt><trkpt lat="39.7188094" lon="21.6431869"><ele>508.5</ele><time>2026-04-28T06:29:07.07Z</time></trkpt><trkpt lat="39.7188911" lon="21.6431739"><ele>510.0</ele><time>2026-04-28T06:29:08.07Z</time></trkpt><trkpt lat="39.7189536" lon="21.6431235"><ele>511.5</ele><time>2026-04-28T06:29:09.07Z</time></trkpt><trkpt lat="39.7190006" lon="21.6430317"><ele>513.0</ele><time>2026-04-28T06:29:10.07Z</time></trkpt><trkpt lat="39.7190166" lon="21.6429169"><ele>514.5</ele><time>2026-04-28T06:29:11.07Z</time></trkpt><trkpt lat="39.7190045" lon="21.6427903"><ele>516.0</ele><time>2026-04-28T06:29:12.07Z</time></trkpt><trkpt lat="39.7189787" lon="21.6426662"><ele>517.0</ele><time>2026-04-28T06:29:13.07Z</time></trkpt><trkpt lat="39.7189538" lon="21.6425552"><ele>518.0</ele><time>2026-04-28T06:29:14.071Z</time></trkpt><trkpt lat="39.7189327" lon="21.6424614"><ele>519.0</ele><time>2026-04-28T06:29:15.071Z</time></trkpt><trkpt lat="39.7189225" lon="21.6423695"><ele>520.0</ele><time>2026-04-28T06:29:16.071Z</time></trkpt><trkpt lat="39.7189276" lon="21.6422797"><ele>521.0</ele><time>2026-04-28T06:29:17.071Z</time></trkpt><trkpt lat="39.7189476" lon="21.6421967"><ele>522.0</ele><time>2026-04-28T06:29:18.07Z</time></trkpt><trkpt lat="39.718988" lon="21.6420732"><ele>522.0</ele><time>2026-04-28T06:29:20.071Z</time></trkpt><trkpt lat="39.7190208" lon="21.6419966"><ele>522.0</ele><time>2026-04-28T06:29:22.071Z</time></trkpt><trkpt lat="39.7190515" lon="21.6419038"><ele>522.0</ele><time>2026-04-28T06:29:24.07Z</time></trkpt><trkpt lat="39.7190734" lon="21.641813"><ele>522.0</ele><time>2026-04-28T06:29:26.071Z</time></trkpt><trkpt lat="39.719038" lon="21.6417192"><ele>522.0</ele><time>2026-04-28T06:29:28.07Z</time></trkpt><trkpt lat="39.7189729" lon="21.6416719"><ele>522.0</ele><time>2026-04-28T06:29:30.07Z</time></trkpt><trkpt lat="39.7188755" lon="21.6416619"><ele>523.2</ele><time>2026-04-28T06:29:32.071Z</time></trkpt><trkpt lat="39.7187541" lon="21.641648"><ele>524.4000000000001</ele><time>2026-04-28T06:29:34.071Z</time></trkpt><trkpt lat="39.7186493" lon="21.6415691"><ele>525.5999999999999</ele><time>2026-04-28T06:29:36.071Z</time></trkpt><trkpt lat="39.7185717" lon="21.641438"><ele>526.8</ele><time>2026-04-28T06:29:38.07Z</time></trkpt><trkpt lat="39.7185452" lon="21.6413593"><ele>528.0</ele><time>2026-04-28T06:29:39.071Z</time></trkpt><trkpt lat="39.7185199" lon="21.6412749"><ele>526.6666666666666</ele><time>2026-04-28T06:29:40.071Z</time></trkpt><trkpt lat="39.7184922" lon="21.6411918"><ele>525.3333333333334</ele><time>2026-04-28T06:29:41.07Z</time></trkpt><trkpt lat="39.7184584" lon="21.641093"><ele>524.0</ele><time>2026-04-28T06:29:42.071Z</time></trkpt><trkpt lat="39.7184283" lon="21.6409982"><ele>522.6666666666667</ele><time>2026-04-28T06:29:43.071Z</time></trkpt><trkpt lat="39.7183928" lon="21.6409085"><ele>521.3333333333334</ele><time>2026-04-28T06:29:44.071Z</time></trkpt><trkpt lat="39.7183507" lon="21.6408185"><ele>520.0</ele><time>2026-04-28T06:29:45.071Z</time></trkpt><trkpt lat="39.7183112" lon="21.6407288"><ele>520.0</ele><time>2026-04-28T06:29:46.07Z</time></trkpt><trkpt lat="39.7182725" lon="21.640647"><ele>520.0</ele><time>2026-04-28T06:29:47.07Z</time></trkpt><trkpt lat="39.7182355" lon="21.640561"><ele>520.0</ele><time>2026-04-28T06:29:48.07Z</time></trkpt><trkpt lat="39.718207" lon="21.6404782"><ele>520.0</ele><time>2026-04-28T06:29:49.071Z</time></trkpt><trkpt lat="39.7181831" lon="21.6403994"><ele>520.0</ele><time>2026-04-28T06:29:50.07Z</time></trkpt><trkpt lat="39.7181497" lon="21.6402647"><ele>520.0</ele><time>2026-04-28T06:29:52.071Z</time></trkpt><trkpt lat="39.7181131" lon="21.6401801"><ele>521.6</ele><time>2026-04-28T06:29:54.07Z</time></trkpt><trkpt lat="39.7181182" lon="21.6400731"><ele>523.2</ele><time>2026-04-28T06:34:20.078Z</time></trkpt><trkpt lat="39.7181554" lon="21.6399953"><ele>524.8</ele><time>2026-04-28T06:34:21.078Z</time></trkpt><trkpt lat="39.7181891" lon="21.6398741"><ele>526.4</ele><time>2026-04-28T06:34:22.078Z</time></trkpt><trkpt lat="39.7182101" lon="21.6397422"><ele>528.0</ele><time>2026-04-28T06:34:23.078Z</time></trkpt><trkpt lat="39.7182299" lon="21.6396003"><ele>529.0</ele><time>2026-04-28T06:34:24.077Z</time></trkpt><trkpt lat="39.7182427" lon="21.6394464"><ele>530.0</ele><time>2026-04-28T06:34:25.078Z</time></trkpt><trkpt lat="39.7182347" lon="21.6392864"><ele>531.0</ele><time>2026-04-28T06:34:26.078Z</time></trkpt><trkpt lat="39.7182108" lon="21.6391332"><ele>532.0</ele><time>2026-04-28T06:34:27.078Z</time></trkpt><trkpt lat="39.71818" lon="21.63899"><ele>532.0</ele><time>2026-04-28T06:34:28.077Z</time></trkpt><trkpt lat="39.7181571" lon="21.6388498"><ele>532.0</ele><time>2026-04-28T06:34:29.077Z</time></trkpt><trkpt lat="39.7181413" lon="21.6387175"><ele>532.0</ele><time>2026-04-28T06:34:30.078Z</time></trkpt><trkpt lat="39.71813" lon="21.6385924"><ele>532.0</ele><time>2026-04-28T06:34:31.078Z</time></trkpt><trkpt lat="39.7181151" lon="21.6384685"><ele>532.0</ele><time>2026-04-28T06:34:32.078Z</time></trkpt><trkpt lat="39.7180917" lon="21.638351"><ele>532.8000000000001</ele><time>2026-04-28T06:34:33.078Z</time></trkpt><trkpt lat="39.7180654" lon="21.6382385"><ele>533.6</ele><time>2026-04-28T06:34:34.078Z</time></trkpt><trkpt lat="39.7180416" lon="21.6381305"><ele>534.4000000000001</ele><time>2026-04-28T06:34:35.078Z</time></trkpt><trkpt lat="39.718021" lon="21.6380395"><ele>535.2</ele><time>2026-04-28T06:34:36.077Z</time></trkpt><trkpt lat="39.7180071" lon="21.6378908"><ele>536.0</ele><time>2026-04-28T06:34:38.078Z</time></trkpt><trkpt lat="39.7180588" lon="21.6377595"><ele>534.8571428571429</ele><time>2026-04-28T06:34:40.077Z</time></trkpt><trkpt lat="39.7181151" lon="21.6377119"><ele>533.7142857142857</ele><time>2026-04-28T06:34:41.077Z</time></trkpt><trkpt lat="39.7181798" lon="21.6376968"><ele>532.5714285714286</ele><time>2026-04-28T06:34:42.078Z</time></trkpt><trkpt lat="39.7182508" lon="21.637689"><ele>531.4285714285714</ele><time>2026-04-28T06:34:43.077Z</time></trkpt><trkpt lat="39.718329" lon="21.6376907"><ele>530.2857142857143</ele><time>2026-04-28T06:34:44.078Z</time></trkpt><trkpt lat="39.71841" lon="21.6376879"><ele>529.1428571428571</ele><time>2026-04-28T06:34:45.078Z</time></trkpt><trkpt lat="39.7184884" lon="21.6376755"><ele>528.0</ele><time>2026-04-28T06:34:46.077Z</time></trkpt><trkpt lat="39.7185575" lon="21.6376584"><ele>530.8</ele><time>2026-04-28T06:34:47.078Z</time></trkpt><trkpt lat="39.7186203" lon="21.6376303"><ele>533.5999999999999</ele><time>2026-04-28T06:34:48.077Z</time></trkpt><trkpt lat="39.7187293" lon="21.6375515"><ele>536.4000000000001</ele><time>2026-04-28T06:34:50.077Z</time></trkpt><trkpt lat="39.7188431" lon="21.6374824"><ele>539.2</ele><time>2026-04-28T06:34:52.077Z</time></trkpt><trkpt lat="39.7189056" lon="21.6374575"><ele>542.0</ele><time>2026-04-28T06:34:53.078Z</time></trkpt><trkpt lat="39.7189734" lon="21.6374403"><ele>542.0</ele><time>2026-04-28T06:34:54.078Z</time></trkpt><trkpt lat="39.7190387" lon="21.6374214"><ele>542.0</ele><time>2026-04-28T06:34:55.078Z</time></trkpt><trkpt lat="39.7191511" lon="21.6373835"><ele>542.0</ele><time>2026-04-28T06:34:57.077Z</time></trkpt><trkpt lat="39.71924" lon="21.6373146"><ele>542.0</ele><time>2026-04-28T06:34:59.077Z</time></trkpt><trkpt lat="39.7193007" lon="21.6372379"><ele>542.0</ele><time>2026-04-28T06:35:01.078Z</time></trkpt><trkpt lat="39.7193238" lon="21.6371604"><ele>542.0</ele><time>2026-04-28T06:35:05.078Z</time></trkpt><trkpt lat="39.7193194" lon="21.6370611"><ele>542.0</ele><time>2026-04-28T06:35:46.077Z</time></trkpt><trkpt lat="39.7193333" lon="21.6369751"><ele>542.0</ele><time>2026-04-28T06:35:58.078Z</time></trkpt><trkpt lat="39.7193477" lon="21.6368913"><ele>542.0</ele><time>2026-04-28T06:36:13.077Z</time></trkpt><trkpt lat="39.7192828" lon="21.6368334"><ele>542.0</ele><time>2026-04-28T06:36:47.077Z</time></trkpt><trkpt lat="39.7192247" lon="21.6367829"><ele>542.0</ele><time>2026-04-28T06:36:53.04Z</time></trkpt><trkpt lat="39.719211" lon="21.6367015"><ele>542.0</ele><time>2026-04-28T06:37:29.077Z</time></trkpt><trkpt lat="39.7192493" lon="21.6367706"><ele>542.0</ele><time>2026-04-28T06:38:57.078Z</time></trkpt><trkpt lat="39.7192924" lon="21.6368353"><ele>542.0</ele><time>2026-04-28T06:39:03.04Z</time></trkpt><trkpt lat="39.7193129" lon="21.6369256"><ele>542.0</ele><time>2026-04-28T06:39:10.077Z</time></trkpt><trkpt lat="39.7193385" lon="21.6370062"><ele>542.0</ele><time>2026-04-28T06:39:16.033Z</time></trkpt><trkpt lat="39.7193558" lon="21.637092"><ele>542.0</ele><time>2026-04-28T06:39:27.077Z</time></trkpt><trkpt lat="39.7193032" lon="21.6371603"><ele>542.0</ele><time>2026-04-28T06:39:33.077Z</time></trkpt><trkpt lat="39.7194146" lon="21.6373272"><ele>543.0</ele><time>2026-04-28T06:40:25.07Z</time></trkpt><trkpt lat="39.7194692" lon="21.637381"><ele>544.0</ele><time>2026-04-28T06:40:26.071Z</time></trkpt><trkpt lat="39.7195607" lon="21.6374372"><ele>545.0</ele><time>2026-04-28T06:40:28.071Z</time></trkpt><trkpt lat="39.7196435" lon="21.6374724"><ele>546.0</ele><time>2026-04-28T06:40:30.071Z</time></trkpt><trkpt lat="39.7197581" lon="21.6374806"><ele>547.0</ele><time>2026-04-28T06:40:32.071Z</time></trkpt><trkpt lat="39.7198274" lon="21.6374761"><ele>548.0</ele><time>2026-04-28T06:40:33.07Z</time></trkpt><trkpt lat="39.7198967" lon="21.6374655"><ele>548.0000000000001</ele><time>2026-04-28T06:40:34.07Z</time></trkpt><trkpt lat="39.7199675" lon="21.6374518"><ele>548.0</ele><time>2026-04-28T06:40:35.07Z</time></trkpt><trkpt lat="39.720035" lon="21.6374366"><ele>548.0</ele><time>2026-04-28T06:40:36.07Z</time></trkpt><trkpt lat="39.720105" lon="21.637419"><ele>548.0</ele><time>2026-04-28T06:40:37.071Z</time></trkpt><trkpt lat="39.7201749" lon="21.6373972"><ele>548.0</ele><time>2026-04-28T06:40:38.07Z</time></trkpt><trkpt lat="39.7202416" lon="21.6373615"><ele>548.0000000000001</ele><time>2026-04-28T06:40:39.071Z</time></trkpt><trkpt lat="39.720297" lon="21.6373045"><ele>548.0</ele><time>2026-04-28T06:40:40.071Z</time></trkpt><trkpt lat="39.7203351" lon="21.6372317"><ele>548.4285714285714</ele><time>2026-04-28T06:40:41.071Z</time></trkpt><trkpt lat="39.7203568" lon="21.6371485"><ele>548.8571428571429</ele><time>2026-04-28T06:40:42.07Z</time></trkpt><trkpt lat="39.7203661" lon="21.6370575"><ele>549.2857142857142</ele><time>2026-04-28T06:40:43.071Z</time></trkpt><trkpt lat="39.7203623" lon="21.636959"><ele>549.7142857142858</ele><time>2026-04-28T06:40:44.071Z</time></trkpt><trkpt lat="39.7203559" lon="21.6368585"><ele>550.1428571428571</ele><time>2026-04-28T06:40:45.07Z</time></trkpt><trkpt lat="39.7203471" lon="21.6367595"><ele>550.5714285714286</ele><time>2026-04-28T06:40:46.07Z</time></trkpt><trkpt lat="39.7203395" lon="21.6366638"><ele>551.0</ele><time>2026-04-28T06:40:47.071Z</time></trkpt><trkpt lat="39.7203338" lon="21.6365705"><ele>551.0</ele><time>2026-04-28T06:40:48.071Z</time></trkpt><trkpt lat="39.7203311" lon="21.6364857"><ele>551.0</ele><time>2026-04-28T06:40:49.071Z</time></trkpt><trkpt lat="39.7203568" lon="21.6363387"><ele>551.0</ele><time>2026-04-28T06:40:51.071Z</time></trkpt><trkpt lat="39.7204571" lon="21.636244"><ele>551.0</ele><time>2026-04-28T06:40:53.071Z</time></trkpt><trkpt lat="39.7205248" lon="21.6362223"><ele>551.0</ele><time>2026-04-28T06:40:54.07Z</time></trkpt><trkpt lat="39.7205996" lon="21.6362081"><ele>551.0</ele><time>2026-04-28T06:40:55.07Z</time></trkpt><trkpt lat="39.7206865" lon="21.6361932"><ele>551.0</ele><time>2026-04-28T06:40:56.071Z</time></trkpt><trkpt lat="39.7207659" lon="21.6361776"><ele>551.0</ele><time>2026-04-28T06:40:57.07Z</time></trkpt><trkpt lat="39.7208404" lon="21.6361569"><ele>551.0</ele><time>2026-04-28T06:40:58.07Z</time></trkpt><trkpt lat="39.7209103" lon="21.6361275"><ele>551.0</ele><time>2026-04-28T06:40:59.071Z</time></trkpt><trkpt lat="39.720967" lon="21.6360834"><ele>551.0</ele><time>2026-04-28T06:41:00.07Z</time></trkpt><trkpt lat="39.7210442" lon="21.6359599"><ele>552.1666666666666</ele><time>2026-04-28T06:41:02.07Z</time></trkpt><trkpt lat="39.721064" lon="21.6358788"><ele>553.3333333333333</ele><time>2026-04-28T06:41:03.071Z</time></trkpt><trkpt lat="39.7210757" lon="21.6357936"><ele>554.5</ele><time>2026-04-28T06:41:04.07Z</time></trkpt><trkpt lat="39.7210816" lon="21.6357103"><ele>555.6666666666666</ele><time>2026-04-28T06:41:05.07Z</time></trkpt><trkpt lat="39.7210865" lon="21.6355495"><ele>556.8333333333334</ele><time>2026-04-28T06:41:07.071Z</time></trkpt><trkpt lat="39.7210983" lon="21.6353859"><ele>558.0</ele><time>2026-04-28T06:41:09.071Z</time></trkpt><trkpt lat="39.72111" lon="21.6352988"><ele>555.1428571428571</ele><time>2026-04-28T06:41:10.071Z</time></trkpt><trkpt lat="39.7211222" lon="21.635215"><ele>552.2857142857142</ele><time>2026-04-28T06:41:11.071Z</time></trkpt><trkpt lat="39.721141" lon="21.6351366"><ele>549.4285714285714</ele><time>2026-04-28T06:41:12.07Z</time></trkpt><trkpt lat="39.7211733" lon="21.6350562"><ele>546.5714285714286</ele><time>2026-04-28T06:41:13.071Z</time></trkpt><trkpt lat="39.7212088" lon="21.6349773"><ele>543.7142857142858</ele><time>2026-04-28T06:41:14.07Z</time></trkpt><trkpt lat="39.7212443" lon="21.6349078"><ele>540.8571428571429</ele><time>2026-04-28T06:41:15.071Z</time></trkpt><trkpt lat="39.7213015" lon="21.634781"><ele>538.0</ele><time>2026-04-28T06:41:17.071Z</time></trkpt><trkpt lat="39.7213442" lon="21.6346988"><ele>538.0</ele><time>2026-04-28T06:41:19.071Z</time></trkpt><trkpt lat="39.7214002" lon="21.634647"><ele>538.0</ele><time>2026-04-28T06:41:22.07Z</time></trkpt><trkpt lat="39.7214777" lon="21.6346114"><ele>538.0</ele><time>2026-04-28T06:41:25.07Z</time></trkpt><trkpt lat="39.7215552" lon="21.6346253"><ele>538.0</ele><time>2026-04-28T06:41:27.071Z</time></trkpt><trkpt lat="39.7216538" lon="21.634665"><ele>538.0</ele><time>2026-04-28T06:41:29.071Z</time></trkpt><trkpt lat="39.7217542" lon="21.6347266"><ele>538.0</ele><time>2026-04-28T06:41:31.071Z</time></trkpt><trkpt lat="39.721852" lon="21.634791"><ele>536.6</ele><time>2026-04-28T06:41:33.07Z</time></trkpt><trkpt lat="39.7219456" lon="21.6348533"><ele>535.1999999999999</ele><time>2026-04-28T06:41:35.071Z</time></trkpt><trkpt lat="39.7220411" lon="21.6349241"><ele>533.8</ele><time>2026-04-28T06:41:37.071Z</time></trkpt><trkpt lat="39.7221491" lon="21.6349872"><ele>532.4</ele><time>2026-04-28T06:41:39.071Z</time></trkpt><trkpt lat="39.7222584" lon="21.6349894"><ele>531.0</ele><time>2026-04-28T06:41:41.071Z</time></trkpt><trkpt lat="39.7223797" lon="21.634932"><ele>531.0</ele><time>2026-04-28T06:41:43.07Z</time></trkpt><trkpt lat="39.722445" lon="21.6348993"><ele>531.0</ele><time>2026-04-28T06:41:44.071Z</time></trkpt><trkpt lat="39.7225133" lon="21.6348717"><ele>531.0</ele><time>2026-04-28T06:41:45.07Z</time></trkpt><trkpt lat="39.7225824" lon="21.6348596"><ele>531.0</ele><time>2026-04-28T06:41:46.07Z</time></trkpt><trkpt lat="39.7226554" lon="21.6348395"><ele>531.0</ele><time>2026-04-28T06:41:47.071Z</time></trkpt><trkpt lat="39.7227334" lon="21.6348289"><ele>531.0</ele><time>2026-04-28T06:41:48.071Z</time></trkpt><trkpt lat="39.7228518" lon="21.6347895"><ele>528.0</ele><time>2026-04-28T06:41:50.071Z</time></trkpt><trkpt lat="39.7229148" lon="21.6347705"><ele>525.0</ele><time>2026-04-28T06:41:51.07Z</time></trkpt><trkpt lat="39.7230272" lon="21.6347425"><ele>522.0</ele><time>2026-04-28T06:41:53.071Z</time></trkpt><trkpt lat="39.7231255" lon="21.6347461"><ele>519.0</ele><time>2026-04-28T06:41:55.071Z</time></trkpt><trkpt lat="39.7232353" lon="21.6348111"><ele>516.0</ele><time>2026-04-28T06:41:57.07Z</time></trkpt><trkpt lat="39.7232742" lon="21.6348802"><ele>515.9999999999999</ele><time>2026-04-28T06:41:58.07Z</time></trkpt><trkpt lat="39.7233081" lon="21.6349589"><ele>516.0</ele><time>2026-04-28T06:41:59.07Z</time></trkpt><trkpt lat="39.7233037" lon="21.6350648"><ele>516.0</ele><time>2026-04-28T06:42:00.071Z</time></trkpt><trkpt lat="39.7233108" lon="21.6351572"><ele>516.0</ele><time>2026-04-28T06:42:01.07Z</time></trkpt><trkpt lat="39.7233262" lon="21.6352594"><ele>516.0</ele><time>2026-04-28T06:42:02.071Z</time></trkpt><trkpt lat="39.7233484" lon="21.635356"><ele>515.9999999999999</ele><time>2026-04-28T06:42:03.07Z</time></trkpt><trkpt lat="39.7233826" lon="21.6354283"><ele>516.0</ele><time>2026-04-28T06:42:04.071Z</time></trkpt><trkpt lat="39.72342" lon="21.6354968"><ele>517.3333333333334</ele><time>2026-04-28T06:42:05.07Z</time></trkpt><trkpt lat="39.7234602" lon="21.6355677"><ele>518.6666666666666</ele><time>2026-04-28T06:42:06.07Z</time></trkpt><trkpt lat="39.7234959" lon="21.6356398"><ele>520.0</ele><time>2026-04-28T06:42:07.07Z</time></trkpt><trkpt lat="39.7235337" lon="21.6357314"><ele>521.3333333333333</ele><time>2026-04-28T06:42:08.071Z</time></trkpt><trkpt lat="39.7235694" lon="21.6358247"><ele>522.6666666666666</ele><time>2026-04-28T06:42:09.07Z</time></trkpt><trkpt lat="39.723594" lon="21.6359217"><ele>524.0</ele><time>2026-04-28T06:42:10.071Z</time></trkpt><trkpt lat="39.7236106" lon="21.636022"><ele>520.0</ele><time>2026-04-28T06:42:11.07Z</time></trkpt><trkpt lat="39.7236112" lon="21.6361197"><ele>516.0</ele><time>2026-04-28T06:42:12.07Z</time></trkpt><trkpt lat="39.7235996" lon="21.6362131"><ele>512.0</ele><time>2026-04-28T06:42:13.07Z</time></trkpt><trkpt lat="39.7235916" lon="21.6363029"><ele>508.0</ele><time>2026-04-28T06:42:14.07Z</time></trkpt><trkpt lat="39.7235793" lon="21.6363964"><ele>504.00000000000006</ele><time>2026-04-28T06:42:15.07Z</time></trkpt><trkpt lat="39.7235801" lon="21.6364921"><ele>500.0</ele><time>2026-04-28T06:42:16.071Z</time></trkpt><trkpt lat="39.7236031" lon="21.6365837"><ele>496.0</ele><time>2026-04-28T06:42:17.071Z</time></trkpt><trkpt lat="39.7236458" lon="21.6366655"><ele>496.0</ele><time>2026-04-28T06:42:18.071Z</time></trkpt><trkpt lat="39.7237032" lon="21.6367294"><ele>496.00000000000006</ele><time>2026-04-28T06:42:19.07Z</time></trkpt><trkpt lat="39.7237708" lon="21.6367775"><ele>496.0</ele><time>2026-04-28T06:42:20.071Z</time></trkpt><trkpt lat="39.7238395" lon="21.636813"><ele>496.0</ele><time>2026-04-28T06:42:21.07Z</time></trkpt><trkpt lat="39.7239092" lon="21.6368414"><ele>496.00000000000006</ele><time>2026-04-28T06:42:22.071Z</time></trkpt><trkpt lat="39.7239791" lon="21.6368626"><ele>496.0</ele><time>2026-04-28T06:42:23.071Z</time></trkpt><trkpt lat="39.724054" lon="21.6368781"><ele>496.0</ele><time>2026-04-28T06:42:24.07Z</time></trkpt><trkpt lat="39.7241285" lon="21.6368935"><ele>496.00000000000006</ele><time>2026-04-28T06:42:25.07Z</time></trkpt><trkpt lat="39.7242062" lon="21.636901"><ele>496.0</ele><time>2026-04-28T06:42:26.071Z</time></trkpt><trkpt lat="39.7242888" lon="21.6369171"><ele>496.0</ele><time>2026-04-28T06:42:27.071Z</time></trkpt><trkpt lat="39.72438" lon="21.6369379"><ele>496.0</ele><time>2026-04-28T06:42:28.07Z</time></trkpt><trkpt lat="39.7244642" lon="21.6369718"><ele>496.00000000000006</ele><time>2026-04-28T06:42:29.071Z</time></trkpt><trkpt lat="39.7245421" lon="21.6370237"><ele>496.0</ele><time>2026-04-28T06:42:30.07Z</time></trkpt><trkpt lat="39.7246019" lon="21.6370975"><ele>496.0</ele><time>2026-04-28T06:42:31.07Z</time></trkpt><trkpt lat="39.7246385" lon="21.6371869"><ele>496.00000000000006</ele><time>2026-04-28T06:42:32.07Z</time></trkpt><trkpt lat="39.7246533" lon="21.6372746"><ele>496.0</ele><time>2026-04-28T06:42:33.07Z</time></trkpt><trkpt lat="39.7246373" lon="21.6373759"><ele>496.0</ele><time>2026-04-28T06:42:34.071Z</time></trkpt><trkpt lat="39.7246257" lon="21.6374655"><ele>496.00000000000006</ele><time>2026-04-28T06:42:35.07Z</time></trkpt><trkpt lat="39.7246263" lon="21.6375585"><ele>496.0</ele><time>2026-04-28T06:42:36.071Z</time></trkpt><trkpt lat="39.7246492" lon="21.6376383"><ele>496.0</ele><time>2026-04-28T06:42:37.07Z</time></trkpt><trkpt lat="39.7247049" lon="21.6376806"><ele>496.00000000000006</ele><time>2026-04-28T06:42:38.07Z</time></trkpt><trkpt lat="39.7248319" lon="21.6376923"><ele>496.0</ele><time>2026-04-28T06:42:40.071Z</time></trkpt><trkpt lat="39.7249074" lon="21.6376809"><ele>496.0</ele><time>2026-04-28T06:42:41.07Z</time></trkpt><trkpt lat="39.7249805" lon="21.6376635"><ele>496.0</ele><time>2026-04-28T06:42:42.07Z</time></trkpt><trkpt lat="39.7250505" lon="21.6376513"><ele>496.00000000000006</ele><time>2026-04-28T06:42:43.07Z</time></trkpt><trkpt lat="39.7251368" lon="21.6376573"><ele>496.0</ele><time>2026-04-28T06:42:44.07Z</time></trkpt><trkpt lat="39.7252243" lon="21.6376592"><ele>495.6</ele><time>2026-04-28T06:42:45.071Z</time></trkpt><trkpt lat="39.7253133" lon="21.6376678"><ele>495.20000000000005</ele><time>2026-04-28T06:42:46.071Z</time></trkpt><trkpt lat="39.7254048" lon="21.6376822"><ele>494.79999999999995</ele><time>2026-04-28T06:42:47.07Z</time></trkpt><trkpt lat="39.7254913" lon="21.6377186"><ele>494.4</ele><time>2026-04-28T06:42:48.07Z</time></trkpt><trkpt lat="39.7255753" lon="21.637783"><ele>494.0</ele><time>2026-04-28T06:42:49.07Z</time></trkpt><trkpt lat="39.7256561" lon="21.6378675"><ele>497.79999999999995</ele><time>2026-04-28T06:42:50.071Z</time></trkpt><trkpt lat="39.7257307" lon="21.6379507"><ele>501.59999999999997</ele><time>2026-04-28T06:42:51.07Z</time></trkpt><trkpt lat="39.7258029" lon="21.6380342"><ele>505.4</ele><time>2026-04-28T06:42:52.071Z</time></trkpt><trkpt lat="39.725867" lon="21.6381094"><ele>509.2</ele><time>2026-04-28T06:42:53.071Z</time></trkpt><trkpt lat="39.7259302" lon="21.6381848"><ele>513.0</ele><time>2026-04-28T06:42:54.07Z</time></trkpt><trkpt lat="39.7259921" lon="21.6382571"><ele>513.0</ele><time>2026-04-28T06:42:55.071Z</time></trkpt><trkpt lat="39.7260547" lon="21.6383169"><ele>513.0</ele><time>2026-04-28T06:42:56.071Z</time></trkpt><trkpt lat="39.7261197" lon="21.6383648"><ele>513.0</ele><time>2026-04-28T06:42:57.07Z</time></trkpt><trkpt lat="39.7261911" lon="21.6383835"><ele>513.0</ele><time>2026-04-28T06:42:58.07Z</time></trkpt><trkpt lat="39.7262548" lon="21.6383539"><ele>513.0</ele><time>2026-04-28T06:42:59.07Z</time></trkpt><trkpt lat="39.7263078" lon="21.6382856"><ele>513.0</ele><time>2026-04-28T06:43:00.071Z</time></trkpt><trkpt lat="39.7263432" lon="21.6381879"><ele>514.0</ele><time>2026-04-28T06:43:01.07Z</time></trkpt><trkpt lat="39.7263591" lon="21.6380768"><ele>515.0</ele><time>2026-04-28T06:43:02.071Z</time></trkpt><trkpt lat="39.7263611" lon="21.6379578"><ele>516.0</ele><time>2026-04-28T06:43:03.071Z</time></trkpt><trkpt lat="39.7263637" lon="21.6378323"><ele>517.0</ele><time>2026-04-28T06:43:04.07Z</time></trkpt><trkpt lat="39.7263838" lon="21.6377095"><ele>518.0</ele><time>2026-04-28T06:43:05.07Z</time></trkpt><trkpt lat="39.726406" lon="21.6375868"><ele>515.8</ele><time>2026-04-28T06:43:06.071Z</time></trkpt><trkpt lat="39.7264478" lon="21.6374766"><ele>513.5999999999999</ele><time>2026-04-28T06:43:07.07Z</time></trkpt><trkpt lat="39.7265149" lon="21.6373692"><ele>511.40000000000003</ele><time>2026-04-28T06:43:08.071Z</time></trkpt><trkpt lat="39.7265881" lon="21.6372763"><ele>509.20000000000005</ele><time>2026-04-28T06:43:09.07Z</time></trkpt><trkpt lat="39.7266715" lon="21.6371971"><ele>507.0</ele><time>2026-04-28T06:43:10.071Z</time></trkpt><trkpt lat="39.7267647" lon="21.6371414"><ele>507.0</ele><time>2026-04-28T06:43:11.07Z</time></trkpt><trkpt lat="39.7268409" lon="21.6370735"><ele>507.00000000000006</ele><time>2026-04-28T06:43:12.071Z</time></trkpt><trkpt lat="39.7268877" lon="21.6369707"><ele>507.00000000000006</ele><time>2026-04-28T06:43:13.07Z</time></trkpt><trkpt lat="39.7269415" lon="21.6368621"><ele>507.0</ele><time>2026-04-28T06:43:14.07Z</time></trkpt><trkpt lat="39.7269618" lon="21.6367496"><ele>507.0</ele><time>2026-04-28T06:43:15.07Z</time></trkpt><trkpt lat="39.7269665" lon="21.6365686"><ele>508.0</ele><time>2026-04-28T06:43:16.071Z</time></trkpt><trkpt lat="39.726982" lon="21.6363681"><ele>509.0</ele><time>2026-04-28T06:43:17.07Z</time></trkpt><trkpt lat="39.7269651" lon="21.6361882"><ele>510.0</ele><time>2026-04-28T06:43:18.07Z</time></trkpt><trkpt lat="39.7269415" lon="21.6360135"><ele>511.0</ele><time>2026-04-28T06:43:19.07Z</time></trkpt><trkpt lat="39.7268563" lon="21.6358392"><ele>511.0</ele><time>2026-04-28T06:43:20.07Z</time></trkpt><trkpt lat="39.7267759" lon="21.6356786"><ele>511.0</ele><time>2026-04-28T06:43:21.07Z</time></trkpt><trkpt lat="39.7267112" lon="21.6355285"><ele>511.0</ele><time>2026-04-28T06:43:22.07Z</time></trkpt><trkpt lat="39.7266707" lon="21.6353984"><ele>511.0</ele><time>2026-04-28T06:43:23.07Z</time></trkpt><trkpt lat="39.7266545" lon="21.6352632"><ele>512.2</ele><time>2026-04-28T06:43:24.071Z</time></trkpt><trkpt lat="39.726697" lon="21.6351654"><ele>513.4000000000001</ele><time>2026-04-28T06:43:25.07Z</time></trkpt><trkpt lat="39.7267205" lon="21.6350547"><ele>514.6</ele><time>2026-04-28T06:43:26.07Z</time></trkpt><trkpt lat="39.7267186" lon="21.6349216"><ele>515.8000000000001</ele><time>2026-04-28T06:43:27.07Z</time></trkpt><trkpt lat="39.7266782" lon="21.6347843"><ele>517.0</ele><time>2026-04-28T06:43:28.07Z</time></trkpt><trkpt lat="39.7266156" lon="21.6346552"><ele>517.0</ele><time>2026-04-28T06:43:29.07Z</time></trkpt><trkpt lat="39.7265635" lon="21.6345455"><ele>517.0</ele><time>2026-04-28T06:43:30.07Z</time></trkpt><trkpt lat="39.7265201" lon="21.6344334"><ele>517.0</ele><time>2026-04-28T06:43:31.071Z</time></trkpt><trkpt lat="39.7265042" lon="21.6343118"><ele>517.0</ele><time>2026-04-28T06:43:32.07Z</time></trkpt><trkpt lat="39.7265009" lon="21.6341846"><ele>517.0</ele><time>2026-04-28T06:43:33.071Z</time></trkpt><trkpt lat="39.7265108" lon="21.6340586"><ele>519.2</ele><time>2026-04-28T06:43:34.07Z</time></trkpt><trkpt lat="39.7265327" lon="21.6339232"><ele>521.4000000000001</ele><time>2026-04-28T06:43:35.07Z</time></trkpt><trkpt lat="39.7265371" lon="21.633803"><ele>523.5999999999999</ele><time>2026-04-28T06:43:36.07Z</time></trkpt><trkpt lat="39.7265433" lon="21.6336838"><ele>525.8</ele><time>2026-04-28T06:43:37.07Z</time></trkpt><trkpt lat="39.7265178" lon="21.6335702"><ele>528.0</ele><time>2026-04-28T06:43:38.071Z</time></trkpt><trkpt lat="39.7264783" lon="21.6334697"><ele>529.8333333333334</ele><time>2026-04-28T06:43:39.07Z</time></trkpt><trkpt lat="39.7264237" lon="21.6333754"><ele>531.6666666666666</ele><time>2026-04-28T06:43:40.07Z</time></trkpt><trkpt lat="39.7263703" lon="21.6332862"><ele>533.5</ele><time>2026-04-28T06:43:41.07Z</time></trkpt><trkpt lat="39.7263168" lon="21.6332032"><ele>535.3333333333333</ele><time>2026-04-28T06:43:42.071Z</time></trkpt><trkpt lat="39.7262562" lon="21.6331149"><ele>537.1666666666666</ele><time>2026-04-28T06:43:43.07Z</time></trkpt><trkpt lat="39.7262078" lon="21.6330283"><ele>539.0</ele><time>2026-04-28T06:43:44.07Z</time></trkpt><trkpt lat="39.7261645" lon="21.6329422"><ele>539.0</ele><time>2026-04-28T06:43:45.071Z</time></trkpt><trkpt lat="39.7261282" lon="21.6328652"><ele>539.0</ele><time>2026-04-28T06:43:46.071Z</time></trkpt><trkpt lat="39.7260712" lon="21.632747"><ele>539.0</ele><time>2026-04-28T06:43:48.07Z</time></trkpt><trkpt lat="39.7260399" lon="21.6326663"><ele>539.0</ele><time>2026-04-28T06:43:50.07Z</time></trkpt><trkpt lat="39.7260083" lon="21.6325836"><ele>539.0</ele><time>2026-04-28T06:43:52.07Z</time></trkpt><trkpt lat="39.7259784" lon="21.6324956"><ele>539.0</ele><time>2026-04-28T06:43:55.07Z</time></trkpt><trkpt lat="39.7259288" lon="21.6324174"><ele>534.3333333333333</ele><time>2026-04-28T06:44:00.071Z</time></trkpt><trkpt lat="39.7258479" lon="21.6323654"><ele>529.6666666666666</ele><time>2026-04-28T06:44:12.07Z</time></trkpt><trkpt lat="39.7257816" lon="21.6323278"><ele>525.0</ele><time>2026-04-28T06:44:14.071Z</time></trkpt><trkpt lat="39.7257221" lon="21.632284"><ele>520.3333333333334</ele><time>2026-04-28T06:44:17.071Z</time></trkpt><trkpt lat="39.7256489" lon="21.6322216"><ele>515.6666666666667</ele><time>2026-04-28T06:44:22.071Z</time></trkpt><trkpt lat="39.7255843" lon="21.6321736"><ele>511.0</ele><time>2026-04-28T06:44:24.07Z</time></trkpt><trkpt lat="39.7255241" lon="21.632138"><ele>511.00000000000006</ele><time>2026-04-28T06:44:26.071Z</time></trkpt><trkpt lat="39.7254286" lon="21.6321568"><ele>511.0</ele><time>2026-04-28T06:44:29.07Z</time></trkpt><trkpt lat="39.7253759" lon="21.6322022"><ele>511.0</ele><time>2026-04-28T06:44:40.07Z</time></trkpt><trkpt lat="39.7254449" lon="21.6322363"><ele>511.0</ele><time>2026-04-28T06:44:53.07Z</time></trkpt><trkpt lat="39.7255125" lon="21.6322975"><ele>511.00000000000006</ele><time>2026-04-28T06:44:56.071Z</time></trkpt><trkpt lat="39.725582" lon="21.6322969"><ele>511.0</ele><time>2026-04-28T06:44:59.07Z</time></trkpt><trkpt lat="39.725574" lon="21.6321969"><ele>511.00000000000006</ele><time>2026-04-28T06:45:03.071Z</time></trkpt><trkpt lat="39.7255053" lon="21.6321433"><ele>511.0</ele><time>2026-04-28T06:45:06.07Z</time></trkpt><trkpt lat="39.7255692" lon="21.6321776"><ele>511.0</ele><time>2026-04-28T06:52:03.07Z</time></trkpt><trkpt lat="39.7256284" lon="21.6322246"><ele>511.0</ele><time>2026-04-28T06:52:08.071Z</time></trkpt><trkpt lat="39.7256949" lon="21.6322778"><ele>511.00000000000006</ele><time>2026-04-28T06:52:13.07Z</time></trkpt><trkpt lat="39.7257596" lon="21.6323274"><ele>511.0</ele><time>2026-04-28T06:52:18.07Z</time></trkpt><trkpt lat="39.7258308" lon="21.632371"><ele>511.0</ele><time>2026-04-28T06:52:23.071Z</time></trkpt><trkpt lat="39.7259035" lon="21.6323825"><ele>511.0</ele><time>2026-04-28T06:52:28.071Z</time></trkpt><trkpt lat="39.7259625" lon="21.6323178"><ele>511.0</ele><time>2026-04-28T06:52:33.059Z</time></trkpt><trkpt lat="39.7260047" lon="21.6322349"><ele>511.0</ele><time>2026-04-28T06:52:38.081Z</time></trkpt><trkpt lat="39.7260316" lon="21.6321534"><ele>511.0</ele><time>2026-04-28T06:52:44.07Z</time></trkpt><trkpt lat="39.7260566" lon="21.6320603"><ele>511.0</ele><time>2026-04-28T06:53:22.07Z</time></trkpt><trkpt lat="39.7261315" lon="21.6320598"><ele>511.0</ele><time>2026-04-28T06:53:46.07Z</time></trkpt><trkpt lat="39.7261712" lon="21.6319954"><ele>516.1428571428571</ele><time>2026-04-28T06:54:20.041Z</time></trkpt><trkpt lat="39.7262304" lon="21.6319507"><ele>521.2857142857142</ele><time>2026-04-28T06:54:25.022Z</time></trkpt><trkpt lat="39.7262508" lon="21.6318729"><ele>526.4285714285714</ele><time>2026-04-28T06:54:29.984Z</time></trkpt><trkpt lat="39.7262807" lon="21.6317883"><ele>531.5714285714286</ele><time>2026-04-28T06:54:36.061Z</time></trkpt><trkpt lat="39.7262946" lon="21.6316962"><ele>536.7142857142857</ele><time>2026-04-28T06:54:42.07Z</time></trkpt><trkpt lat="39.7262745" lon="21.6316108"><ele>541.8571428571429</ele><time>2026-04-28T06:54:48.07Z</time></trkpt><trkpt lat="39.726257" lon="21.6315221"><ele>547.0</ele><time>2026-04-28T06:54:54.07Z</time></trkpt><trkpt lat="39.726237" lon="21.6314419"><ele>547.0</ele><time>2026-04-28T06:54:59.07Z</time></trkpt><trkpt lat="39.726203" lon="21.6313687"><ele>547.0</ele><time>2026-04-28T06:55:04.07Z</time></trkpt><trkpt lat="39.7261578" lon="21.631295"><ele>547.0</ele><time>2026-04-28T06:55:11.071Z</time></trkpt><trkpt lat="39.7261223" lon="21.6312185"><ele>547.0</ele><time>2026-04-28T06:55:18.071Z</time></trkpt><trkpt lat="39.7260684" lon="21.6311561"><ele>547.0</ele><time>2026-04-28T06:55:25.07Z</time></trkpt><trkpt lat="39.7260486" lon="21.6310768"><ele>547.0</ele><time>2026-04-28T06:55:29.98Z</time></trkpt><trkpt lat="39.7259934" lon="21.6310336"><ele>547.0</ele><time>2026-04-28T06:55:36.071Z</time></trkpt><trkpt lat="39.725923" lon="21.6310002"><ele>543.4285714285714</ele><time>2026-04-28T06:55:43.07Z</time></trkpt><trkpt lat="39.7258977" lon="21.6309187"><ele>539.8571428571428</ele><time>2026-04-28T06:55:50.071Z</time></trkpt><trkpt lat="39.7258394" lon="21.6308618"><ele>536.2857142857142</ele><time>2026-04-28T06:55:57.071Z</time></trkpt><trkpt lat="39.7257929" lon="21.6307932"><ele>532.7142857142857</ele><time>2026-04-28T06:56:03.071Z</time></trkpt><trkpt lat="39.7257362" lon="21.6307575"><ele>529.1428571428571</ele><time>2026-04-28T06:56:09.071Z</time></trkpt><trkpt lat="39.725677" lon="21.6307275"><ele>525.5714285714286</ele><time>2026-04-28T06:56:39.944Z</time></trkpt><trkpt lat="39.7256131" lon="21.6307344"><ele>522.0</ele><time>2026-04-28T06:56:50.071Z</time></trkpt><trkpt lat="39.7255476" lon="21.6307824"><ele>522.0</ele><time>2026-04-28T06:57:15.07Z</time></trkpt><trkpt lat="39.7254881" lon="21.6308281"><ele>522.0</ele><time>2026-04-28T06:57:20.071Z</time></trkpt><trkpt lat="39.7254139" lon="21.6308277"><ele>522.0</ele><time>2026-04-28T06:57:25.07Z</time></trkpt><trkpt lat="39.7253628" lon="21.6307754"><ele>522.0</ele><time>2026-04-28T06:57:30.974Z</time></trkpt><trkpt lat="39.7253129" lon="21.6307161"><ele>522.0</ele><time>2026-04-28T06:57:49.051Z</time></trkpt><trkpt lat="39.7252951" lon="21.6306314"><ele>522.0</ele><time>2026-04-28T06:57:56.07Z</time></trkpt><trkpt lat="39.7252788" lon="21.6305474"><ele>522.0</ele><time>2026-04-28T06:58:19.071Z</time></trkpt><trkpt lat="39.7253173" lon="21.6304781"><ele>522.0</ele><time>2026-04-28T06:58:59.07Z</time></trkpt><trkpt lat="39.7253311" lon="21.6303937"><ele>522.0</ele><time>2026-04-28T06:59:05.071Z</time></trkpt><trkpt lat="39.7252675" lon="21.6304453"><ele>522.0</ele><time>2026-04-28T06:59:21.07Z</time></trkpt><trkpt lat="39.7252213" lon="21.6303674"><ele>522.0</ele><time>2026-04-28T06:59:31.071Z</time></trkpt><trkpt lat="39.7251738" lon="21.6303032"><ele>522.0</ele><time>2026-04-28T06:59:37.071Z</time></trkpt><trkpt lat="39.7251151" lon="21.6303507"><ele>522.0</ele><time>2026-04-28T06:59:42.07Z</time></trkpt><trkpt lat="39.7250682" lon="21.6304128"><ele>522.0</ele><time>2026-04-28T06:59:47.07Z</time></trkpt><trkpt lat="39.7250035" lon="21.6304309"><ele>520.8571428571429</ele><time>2026-04-28T06:59:54.071Z</time></trkpt><trkpt lat="39.724944" lon="21.6304035"><ele>519.7142857142857</ele><time>2026-04-28T07:00:06.071Z</time></trkpt><trkpt lat="39.7249179" lon="21.6303248"><ele>518.5714285714286</ele><time>2026-04-28T07:00:28.071Z</time></trkpt><trkpt lat="39.7249869" lon="21.6303247"><ele>517.4285714285714</ele><time>2026-04-28T07:00:40.07Z</time></trkpt><trkpt lat="39.7250394" lon="21.6303838"><ele>516.2857142857143</ele><time>2026-04-28T07:01:09.071Z</time></trkpt><trkpt lat="39.7251003" lon="21.6303481"><ele>515.1428571428571</ele><time>2026-04-28T07:01:28.07Z</time></trkpt><trkpt lat="39.7250547" lon="21.6302892"><ele>514.0</ele><time>2026-04-28T07:01:40.07Z</time></trkpt><trkpt lat="39.724994" lon="21.6302574"><ele>509.1428571428571</ele><time>2026-04-28T07:01:54.071Z</time></trkpt><trkpt lat="39.7250229" lon="21.6301356"><ele>504.28571428571433</ele><time>2026-04-28T07:02:56.07Z</time></trkpt><trkpt lat="39.7249763" lon="21.6300756"><ele>499.42857142857144</ele><time>2026-04-28T07:03:05.034Z</time></trkpt><trkpt lat="39.724911" lon="21.630074"><ele>494.57142857142856</ele><time>2026-04-28T07:03:11.071Z</time></trkpt><trkpt lat="39.7248327" lon="21.6300836"><ele>489.71428571428567</ele><time>2026-04-28T07:03:44.071Z</time></trkpt><trkpt lat="39.7247765" lon="21.6301246"><ele>484.8571428571429</ele><time>2026-04-28T07:03:48.07Z</time></trkpt><trkpt lat="39.7247719" lon="21.6302135"><ele>480.0</ele><time>2026-04-28T07:04:17.071Z</time></trkpt><trkpt lat="39.7248199" lon="21.6301587"><ele>480.0</ele><time>2026-04-28T07:04:39.071Z</time></trkpt><trkpt lat="39.7248621" lon="21.6300893"><ele>480.0</ele><time>2026-04-28T07:04:58.071Z</time></trkpt><trkpt lat="39.7249223" lon="21.6300348"><ele>480.0</ele><time>2026-04-28T07:05:05.071Z</time></trkpt><trkpt lat="39.7249778" lon="21.6299796"><ele>480.0</ele><time>2026-04-28T07:05:13.08Z</time></trkpt><trkpt lat="39.7250289" lon="21.6299265"><ele>480.0</ele><time>2026-04-28T07:05:19.982Z</time></trkpt><trkpt lat="39.7250966" lon="21.6299201"><ele>480.0</ele><time>2026-04-28T07:05:36.07Z</time></trkpt><trkpt lat="39.7251505" lon="21.6300993"><ele>480.0</ele><time>2026-04-28T07:10:20.508Z</time></trkpt><trkpt lat="39.7250706" lon="21.6300676"><ele>480.0</ele><time>2026-04-28T07:10:22.071Z</time></trkpt><trkpt lat="39.7250139" lon="21.630142"><ele>480.0</ele><time>2026-04-28T07:13:34.071Z</time></trkpt><trkpt lat="39.724997" lon="21.6302263"><ele>480.0</ele><time>2026-04-28T07:13:42.071Z</time></trkpt><trkpt lat="39.7250578" lon="21.6302814"><ele>480.0</ele><time>2026-04-28T07:14:08.071Z</time></trkpt><trkpt lat="39.7251018" lon="21.6302204"><ele>480.0</ele><time>2026-04-28T07:14:26.071Z</time></trkpt><trkpt lat="39.7251522" lon="21.6301486"><ele>480.0</ele><time>2026-04-28T07:15:10.227Z</time></trkpt><trkpt lat="39.7252236" lon="21.6301326"><ele>480.0</ele><time>2026-04-28T07:15:39.071Z</time></trkpt><trkpt lat="39.7252803" lon="21.6300872"><ele>480.0</ele><time>2026-04-28T07:15:46.038Z</time></trkpt><trkpt lat="39.7252322" lon="21.6301434"><ele>480.0</ele><time>2026-04-28T07:17:41.07Z</time></trkpt><trkpt lat="39.7251677" lon="21.6301345"><ele>480.0</ele><time>2026-04-28T07:18:00.077Z</time></trkpt><trkpt lat="39.7251059" lon="21.6301842"><ele>480.0</ele><time>2026-04-28T07:18:06.052Z</time></trkpt><trkpt lat="39.725055" lon="21.6302328"><ele>480.0</ele><time>2026-04-28T07:18:20.995Z</time></trkpt><trkpt lat="39.7249874" lon="21.6302257"><ele>480.0</ele><time>2026-04-28T07:18:30.481Z</time></trkpt><trkpt lat="39.7249558" lon="21.6301439"><ele>480.0</ele><time>2026-04-28T07:19:31.054Z</time></trkpt><trkpt lat="39.7249002" lon="21.630084"><ele>480.0</ele><time>2026-04-28T07:19:36.07Z</time></trkpt><trkpt lat="39.7249465" lon="21.6301752"><ele>480.0</ele><time>2026-04-28T07:21:11.615Z</time></trkpt><trkpt lat="39.7249019" lon="21.6302334"><ele>480.0</ele><time>2026-04-28T07:25:19.071Z</time></trkpt><trkpt lat="39.7248692" lon="21.6301563"><ele>480.0</ele><time>2026-04-28T07:25:28.071Z</time></trkpt><trkpt lat="39.7248689" lon="21.6300689"><ele>480.0</ele><time>2026-04-28T07:25:34.07Z</time></trkpt><trkpt lat="39.7248282" lon="21.6301385"><ele>480.0</ele><time>2026-04-28T07:26:19.071Z</time></trkpt><trkpt lat="39.7248669" lon="21.6302153"><ele>480.0</ele><time>2026-04-28T07:26:32.973Z</time></trkpt><trkpt lat="39.7249307" lon="21.6302017"><ele>480.0</ele><time>2026-04-28T07:26:39.07Z</time></trkpt><trkpt lat="39.7249799" lon="21.6301496"><ele>480.0</ele><time>2026-04-28T07:26:45.07Z</time></trkpt><trkpt lat="39.7249368" lon="21.6300828"><ele>480.0</ele><time>2026-04-28T07:27:13.811Z</time></trkpt><trkpt lat="39.7249612" lon="21.6301783"><ele>480.0</ele><time>2026-04-28T07:35:32.05Z</time></trkpt><trkpt lat="39.7249795" lon="21.6302584"><ele>480.0</ele><time>2026-04-28T07:35:35.952Z</time></trkpt><trkpt lat="39.7250477" lon="21.6302728"><ele>480.0</ele><time>2026-04-28T07:35:40.014Z</time></trkpt><trkpt lat="39.7251139" lon="21.6303137"><ele>480.0</ele><time>2026-04-28T07:36:29.993Z</time></trkpt><trkpt lat="39.7250457" lon="21.630343"><ele>480.0</ele><time>2026-04-28T07:36:38.071Z</time></trkpt><trkpt lat="39.7250113" lon="21.6304165"><ele>480.0</ele><time>2026-04-28T07:36:48.071Z</time></trkpt><trkpt lat="39.724955" lon="21.6303775"><ele>480.0</ele><time>2026-04-28T07:36:58.07Z</time></trkpt><trkpt lat="39.72496" lon="21.6302954"><ele>480.0</ele><time>2026-04-28T07:37:11.055Z</time></trkpt><trkpt lat="39.7249073" lon="21.6303609"><ele>480.0</ele><time>2026-04-28T07:37:18.07Z</time></trkpt><trkpt lat="39.7249512" lon="21.6304217"><ele>480.0</ele><time>2026-04-28T07:37:27.993Z</time></trkpt><trkpt lat="39.7250183" lon="21.6304355"><ele>480.0</ele><time>2026-04-28T07:37:39.07Z</time></trkpt><trkpt lat="39.7250832" lon="21.6304105"><ele>480.0</ele><time>2026-04-28T07:37:48.972Z</time></trkpt><trkpt lat="39.7251446" lon="21.630376"><ele>480.0</ele><time>2026-04-28T07:37:55.071Z</time></trkpt><trkpt lat="39.7252095" lon="21.6303715"><ele>480.0</ele><time>2026-04-28T07:38:04.07Z</time></trkpt><trkpt lat="39.7252462" lon="21.6304426"><ele>480.0</ele><time>2026-04-28T07:38:11.075Z</time></trkpt><trkpt lat="39.7252741" lon="21.6305211"><ele>480.0</ele><time>2026-04-28T07:38:24.07Z</time></trkpt><trkpt lat="39.7253054" lon="21.6305998"><ele>480.0</ele><time>2026-04-28T07:38:38.071Z</time></trkpt><trkpt lat="39.7249612" lon="21.6301783"><ele>480.0</ele><time>2026-04-28T07:35:32.05Z</time></trkpt><trkpt lat="39.7249795" lon="21.6302584"><ele>480.0</ele><time>2026-04-28T07:35:35.952Z</time></trkpt><trkpt lat="39.7250477" lon="21.6302728"><ele>480.0</ele><time>2026-04-28T07:35:40.014Z</time></trkpt><trkpt lat="39.7251139" lon="21.6303137"><ele>480.0</ele><time>2026-04-28T07:36:29.993Z</time></trkpt><trkpt lat="39.7250457" lon="21.630343"><ele>480.0</ele><time>2026-04-28T07:36:38.071Z</time></trkpt><trkpt lat="39.7250113" lon="21.6304165"><ele>480.0</ele><time>2026-04-28T07:36:48.071Z</time></trkpt><trkpt lat="39.724955" lon="21.6303775"><ele>480.0</ele><time>2026-04-28T07:36:58.07Z</time></trkpt><trkpt lat="39.72496" lon="21.6302954"><ele>484.8571428571429</ele><time>2026-04-28T07:37:11.055Z</time></trkpt><trkpt lat="39.7249073" lon="21.6303609"><ele>489.71428571428567</ele><time>2026-04-28T07:37:18.07Z</time></trkpt><trkpt lat="39.7249512" lon="21.6304217"><ele>494.57142857142856</ele><time>2026-04-28T07:37:27.993Z</time></trkpt><trkpt lat="39.7250183" lon="21.6304355"><ele>499.42857142857144</ele><time>2026-04-28T07:37:39.07Z</time></trkpt><trkpt lat="39.7250832" lon="21.6304105"><ele>504.28571428571433</ele><time>2026-04-28T07:37:48.972Z</time></trkpt><trkpt lat="39.7251446" lon="21.630376"><ele>509.1428571428571</ele><time>2026-04-28T07:37:55.071Z</time></trkpt><trkpt lat="39.7252095" lon="21.6303715"><ele>514.0</ele><time>2026-04-28T07:38:04.07Z</time></trkpt><trkpt lat="39.7252462" lon="21.6304426"><ele>515.1428571428571</ele><time>2026-04-28T07:38:11.075Z</time></trkpt><trkpt lat="39.7252741" lon="21.6305211"><ele>516.2857142857143</ele><time>2026-04-28T07:38:24.07Z</time></trkpt><trkpt lat="39.7253054" lon="21.6305998"><ele>517.4285714285714</ele><time>2026-04-28T07:38:38.071Z</time></trkpt><trkpt lat="39.7252902" lon="21.6305182"><ele>518.5714285714286</ele><time>2026-04-28T07:38:48.071Z</time></trkpt><trkpt lat="39.7253023" lon="21.6304357"><ele>519.7142857142857</ele><time>2026-04-28T07:38:55.071Z</time></trkpt><trkpt lat="39.7252835" lon="21.630516"><ele>520.8571428571429</ele><time>2026-04-28T07:39:46.07Z</time></trkpt><trkpt lat="39.7252919" lon="21.6306083"><ele>522.0</ele><time>2026-04-28T07:39:50.07Z</time></trkpt><trkpt lat="39.725305" lon="21.6306969"><ele>522.0</ele><time>2026-04-28T07:39:55.071Z</time></trkpt><trkpt lat="39.7253422" lon="21.6307777"><ele>522.0</ele><time>2026-04-28T07:40:01.07Z</time></trkpt><trkpt lat="39.7253951" lon="21.6308407"><ele>522.0</ele><time>2026-04-28T07:40:07.07Z</time></trkpt><trkpt lat="39.7254676" lon="21.6308425"><ele>522.0</ele><time>2026-04-28T07:40:14.071Z</time></trkpt><trkpt lat="39.7255275" lon="21.6308011"><ele>522.0</ele><time>2026-04-28T07:40:20.048Z</time></trkpt><trkpt lat="39.7255759" lon="21.6307469"><ele>522.0</ele><time>2026-04-28T07:40:27.071Z</time></trkpt><trkpt lat="39.7256381" lon="21.6307196"><ele>522.0</ele><time>2026-04-28T07:40:41.071Z</time></trkpt><trkpt lat="39.7257002" lon="21.6307539"><ele>522.0</ele><time>2026-04-28T07:40:48.07Z</time></trkpt><trkpt lat="39.7257611" lon="21.6307828"><ele>522.0</ele><time>2026-04-28T07:40:55.071Z</time></trkpt><trkpt lat="39.7258064" lon="21.630844"><ele>522.0</ele><time>2026-04-28T07:41:01.07Z</time></trkpt><trkpt lat="39.7258583" lon="21.6309063"><ele>522.0</ele><time>2026-04-28T07:41:08.07Z</time></trkpt><trkpt lat="39.7259001" lon="21.6309703"><ele>522.0</ele><time>2026-04-28T07:41:15.07Z</time></trkpt><trkpt lat="39.7259572" lon="21.6310309"><ele>522.0</ele><time>2026-04-28T07:41:22.071Z</time></trkpt><trkpt lat="39.7260147" lon="21.6310824"><ele>522.0</ele><time>2026-04-28T07:41:28.07Z</time></trkpt><trkpt lat="39.7260726" lon="21.6311398"><ele>525.5714285714286</ele><time>2026-04-28T07:41:34.031Z</time></trkpt><trkpt lat="39.7260875" lon="21.6312326"><ele>529.1428571428571</ele><time>2026-04-28T07:41:44.07Z</time></trkpt><trkpt lat="39.7261117" lon="21.6313116"><ele>532.7142857142857</ele><time>2026-04-28T07:42:20.07Z</time></trkpt><trkpt lat="39.7261574" lon="21.6313827"><ele>536.2857142857142</ele><time>2026-04-28T07:42:27.07Z</time></trkpt><trkpt lat="39.7261991" lon="21.6314458"><ele>539.8571428571428</ele><time>2026-04-28T07:42:33.07Z</time></trkpt><trkpt lat="39.7262332" lon="21.6315177"><ele>543.4285714285714</ele><time>2026-04-28T07:42:40.053Z</time></trkpt><trkpt lat="39.7262471" lon="21.6316034"><ele>547.0</ele><time>2026-04-28T07:42:48.009Z</time></trkpt><trkpt lat="39.7262533" lon="21.6316876"><ele>547.0</ele><time>2026-04-28T07:42:55.066Z</time></trkpt><trkpt lat="39.726237" lon="21.6317781"><ele>547.0</ele><time>2026-04-28T07:43:03.07Z</time></trkpt><trkpt lat="39.7262189" lon="21.6318644"><ele>547.0</ele><time>2026-04-28T07:43:09.653Z</time></trkpt><trkpt lat="39.7261881" lon="21.6319483"><ele>547.0</ele><time>2026-04-28T07:43:16.07Z</time></trkpt><trkpt lat="39.7261499" lon="21.6320185"><ele>547.0</ele><time>2026-04-28T07:43:23.071Z</time></trkpt><trkpt lat="39.7261057" lon="21.6320828"><ele>547.0</ele><time>2026-04-28T07:43:29.071Z</time></trkpt><trkpt lat="39.7260525" lon="21.6321462"><ele>547.0</ele><time>2026-04-28T07:43:36.07Z</time></trkpt><trkpt lat="39.725995" lon="21.6321958"><ele>541.8571428571429</ele><time>2026-04-28T07:43:44.071Z</time></trkpt><trkpt lat="39.7259312" lon="21.6322384"><ele>536.7142857142857</ele><time>2026-04-28T07:43:50.071Z</time></trkpt><trkpt lat="39.7258747" lon="21.6322757"><ele>531.5714285714286</ele><time>2026-04-28T07:43:56.071Z</time></trkpt><trkpt lat="39.7258457" lon="21.632362"><ele>526.4285714285714</ele><time>2026-04-28T07:44:02.071Z</time></trkpt><trkpt lat="39.7257734" lon="21.6323734"><ele>521.2857142857142</ele><time>2026-04-28T07:44:09.071Z</time></trkpt><trkpt lat="39.7257033" lon="21.6323227"><ele>516.1428571428571</ele><time>2026-04-28T07:44:16.075Z</time></trkpt><trkpt lat="39.7256484" lon="21.632266"><ele>511.0</ele><time>2026-04-28T07:44:23.07Z</time></trkpt><trkpt lat="39.7255878" lon="21.6322242"><ele>511.00000000000006</ele><time>2026-04-28T07:44:29.07Z</time></trkpt><trkpt lat="39.7255302" lon="21.6321806"><ele>511.0</ele><time>2026-04-28T07:44:35.071Z</time></trkpt><trkpt lat="39.7254668" lon="21.6321452"><ele>511.0</ele><time>2026-04-28T07:44:41.071Z</time></trkpt><trkpt lat="39.7254995" lon="21.6322547"><ele>511.0</ele><time>2026-04-28T07:49:44.062Z</time></trkpt><trkpt lat="39.7255398" lon="21.6323342"><ele>511.00000000000006</ele><time>2026-04-28T07:49:53.061Z</time></trkpt><trkpt lat="39.7256036" lon="21.6324012"><ele>511.0</ele><time>2026-04-28T07:49:56.062Z</time></trkpt><trkpt lat="39.7256799" lon="21.632459"><ele>511.00000000000006</ele><time>2026-04-28T07:50:41.061Z</time></trkpt><trkpt lat="39.7257634" lon="21.6324946"><ele>511.0</ele><time>2026-04-28T07:50:43.062Z</time></trkpt><trkpt lat="39.7258371" lon="21.6325057"><ele>511.0</ele><time>2026-04-28T07:50:45.062Z</time></trkpt><trkpt lat="39.7259298" lon="21.6325551"><ele>511.0</ele><time>2026-04-28T07:50:48.062Z</time></trkpt><trkpt lat="39.7259928" lon="21.632691"><ele>511.00000000000006</ele><time>2026-04-28T07:50:50.061Z</time></trkpt><trkpt lat="39.7260194" lon="21.6327663"><ele>511.0</ele><time>2026-04-28T07:50:51.062Z</time></trkpt><trkpt lat="39.7260695" lon="21.6328923"><ele>515.6666666666667</ele><time>2026-04-28T07:50:53.061Z</time></trkpt><trkpt lat="39.7261029" lon="21.6330015"><ele>520.3333333333334</ele><time>2026-04-28T07:50:55.062Z</time></trkpt><trkpt lat="39.726148" lon="21.6330927"><ele>525.0</ele><time>2026-04-28T07:50:57.062Z</time></trkpt><trkpt lat="39.7262087" lon="21.633117"><ele>529.6666666666666</ele><time>2026-04-28T07:50:59.061Z</time></trkpt><trkpt lat="39.7262611" lon="21.6330393"><ele>534.3333333333333</ele><time>2026-04-28T07:51:02.062Z</time></trkpt><trkpt lat="39.7262218" lon="21.6329366"><ele>539.0</ele><time>2026-04-28T07:51:04.061Z</time></trkpt><trkpt lat="39.726185" lon="21.6328027"><ele>541.75</ele><time>2026-04-28T07:51:06.062Z</time></trkpt><trkpt lat="39.7261545" lon="21.6326709"><ele>544.5</ele><time>2026-04-28T07:51:08.062Z</time></trkpt><trkpt lat="39.7261479" lon="21.6325371"><ele>547.25</ele><time>2026-04-28T07:51:10.061Z</time></trkpt><trkpt lat="39.7262121" lon="21.6323941"><ele>550.0</ele><time>2026-04-28T07:51:12.061Z</time></trkpt><trkpt lat="39.7263289" lon="21.6322866"><ele>550.0</ele><time>2026-04-28T07:51:14.062Z</time></trkpt><trkpt lat="39.726392" lon="21.6322313"><ele>550.0</ele><time>2026-04-28T07:51:15.061Z</time></trkpt><trkpt lat="39.7264573" lon="21.6321749"><ele>550.0</ele><time>2026-04-28T07:51:16.062Z</time></trkpt><trkpt lat="39.726522" lon="21.6321029"><ele>550.0</ele><time>2026-04-28T07:51:17.062Z</time></trkpt><trkpt lat="39.7265748" lon="21.6320316"><ele>550.0</ele><time>2026-04-28T07:51:18.061Z</time></trkpt><trkpt lat="39.7266175" lon="21.6319504"><ele>550.0</ele><time>2026-04-28T07:51:19.062Z</time></trkpt><trkpt lat="39.7266568" lon="21.6318637"><ele>549.5</ele><time>2026-04-28T07:51:20.062Z</time></trkpt><trkpt lat="39.7266862" lon="21.631768"><ele>549.0</ele><time>2026-04-28T07:51:21.061Z</time></trkpt><trkpt lat="39.7267074" lon="21.6316604"><ele>548.5</ele><time>2026-04-28T07:51:22.062Z</time></trkpt><trkpt lat="39.7267102" lon="21.6315449"><ele>548.0</ele><time>2026-04-28T07:51:23.061Z</time></trkpt><trkpt lat="39.7267008" lon="21.6314248"><ele>547.5</ele><time>2026-04-28T07:51:24.062Z</time></trkpt><trkpt lat="39.7266852" lon="21.6313081"><ele>547.0</ele><time>2026-04-28T07:51:25.062Z</time></trkpt><trkpt lat="39.7266547" lon="21.6311931"><ele>548.0</ele><time>2026-04-28T07:51:26.062Z</time></trkpt><trkpt lat="39.7266196" lon="21.6310836"><ele>549.0</ele><time>2026-04-28T07:51:27.062Z</time></trkpt><trkpt lat="39.7265765" lon="21.6309891"><ele>550.0</ele><time>2026-04-28T07:51:28.062Z</time></trkpt><trkpt lat="39.7265382" lon="21.6308984"><ele>551.0</ele><time>2026-04-28T07:51:29.061Z</time></trkpt><trkpt lat="39.7264912" lon="21.6308118"><ele>552.0</ele><time>2026-04-28T07:51:30.061Z</time></trkpt><trkpt lat="39.7264459" lon="21.6307242"><ele>553.0</ele><time>2026-04-28T07:51:31.062Z</time></trkpt><trkpt lat="39.7264089" lon="21.6306414"><ele>553.0</ele><time>2026-04-28T07:51:32.062Z</time></trkpt><trkpt lat="39.7263766" lon="21.6305516"><ele>553.0</ele><time>2026-04-28T07:51:33.061Z</time></trkpt><trkpt lat="39.7263499" lon="21.6304634"><ele>553.0</ele><time>2026-04-28T07:51:34.061Z</time></trkpt><trkpt lat="39.7263259" lon="21.6303776"><ele>553.0</ele><time>2026-04-28T07:51:35.062Z</time></trkpt><trkpt lat="39.7263117" lon="21.6302809"><ele>553.0</ele><time>2026-04-28T07:51:36.061Z</time></trkpt><trkpt lat="39.7262993" lon="21.6301787"><ele>553.0</ele><time>2026-04-28T07:51:37.061Z</time></trkpt><trkpt lat="39.7262963" lon="21.6300814"><ele>555.0</ele><time>2026-04-28T07:51:38.061Z</time></trkpt><trkpt lat="39.7263089" lon="21.6299896"><ele>557.0</ele><time>2026-04-28T07:51:39.061Z</time></trkpt><trkpt lat="39.7263284" lon="21.6298924"><ele>559.0</ele><time>2026-04-28T07:51:40.061Z</time></trkpt><trkpt lat="39.7263597" lon="21.6298081"><ele>561.0</ele><time>2026-04-28T07:51:41.062Z</time></trkpt><trkpt lat="39.7263907" lon="21.6297307"><ele>563.0</ele><time>2026-04-28T07:51:42.062Z</time></trkpt><trkpt lat="39.7264097" lon="21.6296501"><ele>565.0</ele><time>2026-04-28T07:51:43.062Z</time></trkpt><trkpt lat="39.7264087" lon="21.6295675"><ele>567.0</ele><time>2026-04-28T07:51:44.062Z</time></trkpt><trkpt lat="39.7263899" lon="21.6294216"><ele>567.2</ele><time>2026-04-28T07:51:46.061Z</time></trkpt><trkpt lat="39.7263864" lon="21.6292526"><ele>567.4000000000001</ele><time>2026-04-28T07:51:48.062Z</time></trkpt><trkpt lat="39.7264294" lon="21.6291057"><ele>567.5999999999999</ele><time>2026-04-28T07:51:50.062Z</time></trkpt><trkpt lat="39.7264731" lon="21.6290247"><ele>567.8</ele><time>2026-04-28T07:51:51.062Z</time></trkpt><trkpt lat="39.7265149" lon="21.628944"><ele>568.0</ele><time>2026-04-28T07:51:52.061Z</time></trkpt><trkpt lat="39.7265552" lon="21.6288628"><ele>568.0</ele><time>2026-04-28T07:51:53.061Z</time></trkpt><trkpt lat="39.726591" lon="21.628777"><ele>568.0</ele><time>2026-04-28T07:51:54.062Z</time></trkpt><trkpt lat="39.7266146" lon="21.6286987"><ele>568.0</ele><time>2026-04-28T07:51:55.061Z</time></trkpt><trkpt lat="39.7266476" lon="21.6285475"><ele>568.0</ele><time>2026-04-28T07:51:57.061Z</time></trkpt><trkpt lat="39.726673" lon="21.6283918"><ele>568.0</ele><time>2026-04-28T07:51:59.062Z</time></trkpt><trkpt lat="39.7266971" lon="21.62826"><ele>568.1666666666667</ele><time>2026-04-28T07:52:01.061Z</time></trkpt><trkpt lat="39.7267144" lon="21.628138"><ele>568.3333333333334</ele><time>2026-04-28T07:52:04.062Z</time></trkpt><trkpt lat="39.7267232" lon="21.6280446"><ele>568.5</ele><time>2026-04-28T07:52:08.061Z</time></trkpt><trkpt lat="39.7266803" lon="21.6279818"><ele>568.6666666666666</ele><time>2026-04-28T07:52:13.061Z</time></trkpt><trkpt lat="39.7266407" lon="21.6280515"><ele>568.8333333333333</ele><time>2026-04-28T07:52:17.061Z</time></trkpt><trkpt lat="39.7266522" lon="21.6281985"><ele>569.0</ele><time>2026-04-28T07:52:20.061Z</time></trkpt><trkpt lat="39.7266359" lon="21.6283246"><ele>569.0</ele><time>2026-04-28T07:52:22.061Z</time></trkpt><trkpt lat="39.7266247" lon="21.6284394"><ele>569.0</ele><time>2026-04-28T07:52:24.062Z</time></trkpt><trkpt lat="39.7266006" lon="21.6285454"><ele>569.0</ele><time>2026-04-28T07:52:26.062Z</time></trkpt><trkpt lat="39.7265792" lon="21.6286727"><ele>569.0</ele><time>2026-04-28T07:52:28.062Z</time></trkpt><trkpt lat="39.7265369" lon="21.6287938"><ele>569.0</ele><time>2026-04-28T07:52:30.062Z</time></trkpt><trkpt lat="39.7264915" lon="21.62889"><ele>568.8333333333333</ele><time>2026-04-28T07:52:32.062Z</time></trkpt><trkpt lat="39.7264347" lon="21.6289877"><ele>568.6666666666666</ele><time>2026-04-28T07:52:34.061Z</time></trkpt><trkpt lat="39.7263856" lon="21.6290924"><ele>568.5</ele><time>2026-04-28T07:52:36.061Z</time></trkpt><trkpt lat="39.7263402" lon="21.6291904"><ele>568.3333333333334</ele><time>2026-04-28T07:52:38.062Z</time></trkpt><trkpt lat="39.7263182" lon="21.6292794"><ele>568.1666666666667</ele><time>2026-04-28T07:52:40.061Z</time></trkpt><trkpt lat="39.7263344" lon="21.6293696"><ele>568.0</ele><time>2026-04-28T07:52:44.062Z</time></trkpt><trkpt lat="39.7263785" lon="21.6294899"><ele>567.8</ele><time>2026-04-28T07:52:47.061Z</time></trkpt><trkpt lat="39.7263778" lon="21.6296029"><ele>567.5999999999999</ele><time>2026-04-28T07:52:49.062Z</time></trkpt><trkpt lat="39.7263468" lon="21.6297217"><ele>567.4000000000001</ele><time>2026-04-28T07:52:51.062Z</time></trkpt><trkpt lat="39.7262988" lon="21.6298544"><ele>567.2</ele><time>2026-04-28T07:52:53.062Z</time></trkpt><trkpt lat="39.726287" lon="21.6299355"><ele>567.0</ele><time>2026-04-28T07:52:54.062Z</time></trkpt><trkpt lat="39.7262748" lon="21.6301044"><ele>567.0</ele><time>2026-04-28T07:52:56.062Z</time></trkpt><trkpt lat="39.7262782" lon="21.6301974"><ele>567.0</ele><time>2026-04-28T07:52:57.061Z</time></trkpt><trkpt lat="39.7262847" lon="21.6302926"><ele>567.0</ele><time>2026-04-28T07:52:58.062Z</time></trkpt><trkpt lat="39.7263048" lon="21.6303905"><ele>567.0</ele><time>2026-04-28T07:52:59.061Z</time></trkpt><trkpt lat="39.7263201" lon="21.630476"><ele>567.0</ele><time>2026-04-28T07:53:00.062Z</time></trkpt><trkpt lat="39.7263396" lon="21.6305615"><ele>567.0</ele><time>2026-04-28T07:53:01.061Z</time></trkpt><trkpt lat="39.7263711" lon="21.6306533"><ele>567.0</ele><time>2026-04-28T07:53:02.062Z</time></trkpt><trkpt lat="39.7263995" lon="21.6307315"><ele>565.0</ele><time>2026-04-28T07:53:03.062Z</time></trkpt><trkpt lat="39.7264315" lon="21.6308042"><ele>563.0</ele><time>2026-04-28T07:53:04.062Z</time></trkpt><trkpt lat="39.7264725" lon="21.6308783"><ele>561.0</ele><time>2026-04-28T07:53:05.061Z</time></trkpt><trkpt lat="39.7265098" lon="21.6309496"><ele>559.0</ele><time>2026-04-28T07:53:06.061Z</time></trkpt><trkpt lat="39.7265469" lon="21.6310237"><ele>557.0</ele><time>2026-04-28T07:53:07.061Z</time></trkpt><trkpt lat="39.72658" lon="21.6311014"><ele>555.0</ele><time>2026-04-28T07:53:08.061Z</time></trkpt><trkpt lat="39.7266071" lon="21.6311869"><ele>553.0</ele><time>2026-04-28T07:53:09.061Z</time></trkpt><trkpt lat="39.7266292" lon="21.6312759"><ele>552.0</ele><time>2026-04-28T07:53:10.061Z</time></trkpt><trkpt lat="39.7266413" lon="21.6313745"><ele>551.0</ele><time>2026-04-28T07:53:11.061Z</time></trkpt><trkpt lat="39.7266477" lon="21.631474"><ele>550.0</ele><time>2026-04-28T07:53:12.062Z</time></trkpt><trkpt lat="39.7266461" lon="21.6315723"><ele>549.0</ele><time>2026-04-28T07:53:13.062Z</time></trkpt><trkpt lat="39.7266375" lon="21.631663"><ele>548.0</ele><time>2026-04-28T07:53:14.062Z</time></trkpt><trkpt lat="39.7266203" lon="21.6317639"><ele>547.0</ele><time>2026-04-28T07:53:15.061Z</time></trkpt><trkpt lat="39.726591" lon="21.6318638"><ele>547.0</ele><time>2026-04-28T07:53:16.062Z</time></trkpt><trkpt lat="39.726552" lon="21.6319559"><ele>547.0</ele><time>2026-04-28T07:53:17.061Z</time></trkpt><trkpt lat="39.7264992" lon="21.6320331"><ele>547.0</ele><time>2026-04-28T07:53:18.062Z</time></trkpt><trkpt lat="39.7264413" lon="21.6320923"><ele>547.0</ele><time>2026-04-28T07:53:19.061Z</time></trkpt><trkpt lat="39.7263762" lon="21.6321469"><ele>547.0</ele><time>2026-04-28T07:53:20.061Z</time></trkpt><trkpt lat="39.7263135" lon="21.632202"><ele>547.0</ele><time>2026-04-28T07:53:21.061Z</time></trkpt><trkpt lat="39.7262423" lon="21.6322657"><ele>547.5</ele><time>2026-04-28T07:53:22.061Z</time></trkpt><trkpt lat="39.7261826" lon="21.6323185"><ele>548.0</ele><time>2026-04-28T07:53:23.062Z</time></trkpt><trkpt lat="39.7261289" lon="21.6323758"><ele>548.5</ele><time>2026-04-28T07:53:24.061Z</time></trkpt><trkpt lat="39.7260858" lon="21.6324539"><ele>549.0</ele><time>2026-04-28T07:53:25.062Z</time></trkpt><trkpt lat="39.7260722" lon="21.6325442"><ele>549.5</ele><time>2026-04-28T07:53:26.062Z</time></trkpt><trkpt lat="39.7260752" lon="21.6326445"><ele>550.0</ele><time>2026-04-28T07:53:27.062Z</time></trkpt><trkpt lat="39.7261027" lon="21.6327561"><ele>547.8</ele><time>2026-04-28T07:53:28.061Z</time></trkpt><trkpt lat="39.7261507" lon="21.6328702"><ele>545.6</ele><time>2026-04-28T07:53:29.061Z</time></trkpt><trkpt lat="39.7261979" lon="21.6329864"><ele>543.4</ele><time>2026-04-28T07:53:30.061Z</time></trkpt><trkpt lat="39.7262461" lon="21.6331011"><ele>541.2</ele><time>2026-04-28T07:53:31.061Z</time></trkpt><trkpt lat="39.7262922" lon="21.6332143"><ele>539.0</ele><time>2026-04-28T07:53:32.061Z</time></trkpt><trkpt lat="39.7263397" lon="21.6333267"><ele>539.0</ele><time>2026-04-28T07:53:33.062Z</time></trkpt><trkpt lat="39.7263938" lon="21.6334339"><ele>539.0</ele><time>2026-04-28T07:53:34.061Z</time></trkpt><trkpt lat="39.7264409" lon="21.6335382"><ele>539.0</ele><time>2026-04-28T07:53:35.061Z</time></trkpt><trkpt lat="39.7264747" lon="21.6336457"><ele>539.0</ele><time>2026-04-28T07:53:36.062Z</time></trkpt><trkpt lat="39.7264899" lon="21.6337569"><ele>539.0</ele><time>2026-04-28T07:53:37.062Z</time></trkpt><trkpt lat="39.7264835" lon="21.63386"><ele>539.0</ele><time>2026-04-28T07:53:38.062Z</time></trkpt><trkpt lat="39.7264658" lon="21.633966"><ele>537.1666666666666</ele><time>2026-04-28T07:53:39.062Z</time></trkpt><trkpt lat="39.726455" lon="21.6340838"><ele>535.3333333333333</ele><time>2026-04-28T07:53:40.061Z</time></trkpt><trkpt lat="39.7264443" lon="21.6341992"><ele>533.5</ele><time>2026-04-28T07:53:41.061Z</time></trkpt><trkpt lat="39.7264383" lon="21.6343056"><ele>531.6666666666666</ele><time>2026-04-28T07:53:42.061Z</time></trkpt><trkpt lat="39.7264415" lon="21.6344169"><ele>529.8333333333334</ele><time>2026-04-28T07:53:43.061Z</time></trkpt><trkpt lat="39.7264701" lon="21.6345166"><ele>528.0</ele><time>2026-04-28T07:53:44.061Z</time></trkpt><trkpt lat="39.7265178" lon="21.6346124"><ele>526.1666666666666</ele><time>2026-04-28T07:53:45.062Z</time></trkpt><trkpt lat="39.7265685" lon="21.6346994"><ele>524.3333333333334</ele><time>2026-04-28T07:53:46.061Z</time></trkpt><trkpt lat="39.7266165" lon="21.6347942"><ele>522.5</ele><time>2026-04-28T07:53:47.062Z</time></trkpt><trkpt lat="39.7266509" lon="21.6348845"><ele>520.6666666666667</ele><time>2026-04-28T07:53:48.062Z</time></trkpt><trkpt lat="39.7266569" lon="21.6349949"><ele>518.8333333333334</ele><time>2026-04-28T07:53:49.062Z</time></trkpt><trkpt lat="39.7266341" lon="21.6351068"><ele>517.0</ele><time>2026-04-28T07:53:50.062Z</time></trkpt><trkpt lat="39.7266047" lon="21.6352209"><ele>515.8000000000001</ele><time>2026-04-28T07:53:51.061Z</time></trkpt><trkpt lat="39.7265976" lon="21.6353337"><ele>514.6</ele><time>2026-04-28T07:53:52.061Z</time></trkpt><trkpt lat="39.726617" lon="21.6354507"><ele>513.4000000000001</ele><time>2026-04-28T07:53:53.061Z</time></trkpt><trkpt lat="39.7266612" lon="21.6355727"><ele>512.2</ele><time>2026-04-28T07:53:54.062Z</time></trkpt><trkpt lat="39.7267094" lon="21.6356947"><ele>511.0</ele><time>2026-04-28T07:53:55.062Z</time></trkpt><trkpt lat="39.7267772" lon="21.6358282"><ele>511.0</ele><time>2026-04-28T07:53:56.061Z</time></trkpt><trkpt lat="39.7268333" lon="21.6359616"><ele>511.0</ele><time>2026-04-28T07:53:57.062Z</time></trkpt><trkpt lat="39.7268815" lon="21.6360887"><ele>511.0</ele><time>2026-04-28T07:53:58.062Z</time></trkpt><trkpt lat="39.7269115" lon="21.6362251"><ele>511.0</ele><time>2026-04-28T07:53:59.062Z</time></trkpt><trkpt lat="39.72692" lon="21.6363617"><ele>511.0</ele><time>2026-04-28T07:54:00.062Z</time></trkpt><trkpt lat="39.7269002" lon="21.6365007"><ele>510.33333333333337</ele><time>2026-04-28T07:54:01.062Z</time></trkpt><trkpt lat="39.7268824" lon="21.6366295"><ele>509.6666666666667</ele><time>2026-04-28T07:54:02.061Z</time></trkpt><trkpt lat="39.7268759" lon="21.636761"><ele>509.0</ele><time>2026-04-28T07:54:03.061Z</time></trkpt><trkpt lat="39.726862" lon="21.6368693"><ele>508.33333333333337</ele><time>2026-04-28T07:54:04.061Z</time></trkpt><trkpt lat="39.7268388" lon="21.6369733"><ele>507.6666666666667</ele><time>2026-04-28T07:54:05.062Z</time></trkpt><trkpt lat="39.7268002" lon="21.6370633"><ele>507.0</ele><time>2026-04-28T07:54:06.061Z</time></trkpt><trkpt lat="39.7267312" lon="21.6371264"><ele>507.0</ele><time>2026-04-28T07:54:07.062Z</time></trkpt><trkpt lat="39.7266482" lon="21.6371779"><ele>507.00000000000006</ele><time>2026-04-28T07:54:08.062Z</time></trkpt><trkpt lat="39.7265696" lon="21.6372489"><ele>507.00000000000006</ele><time>2026-04-28T07:54:09.061Z</time></trkpt><trkpt lat="39.7265019" lon="21.6373334"><ele>507.0</ele><time>2026-04-28T07:54:10.061Z</time></trkpt><trkpt lat="39.72645" lon="21.6374318"><ele>507.0</ele><time>2026-04-28T07:54:11.061Z</time></trkpt><trkpt lat="39.7264073" lon="21.6375299"><ele>507.0</ele><time>2026-04-28T07:54:12.062Z</time></trkpt><trkpt lat="39.7263711" lon="21.6376355"><ele>507.00000000000006</ele><time>2026-04-28T07:54:13.062Z</time></trkpt><trkpt lat="39.7263497" lon="21.6377535"><ele>507.00000000000006</ele><time>2026-04-28T07:54:14.061Z</time></trkpt><trkpt lat="39.7263398" lon="21.6378748"><ele>507.0</ele><time>2026-04-28T07:54:15.061Z</time></trkpt><trkpt lat="39.7263396" lon="21.6379987"><ele>507.0</ele><time>2026-04-28T07:54:16.061Z</time></trkpt><trkpt lat="39.7263389" lon="21.6381146"><ele>508.0</ele><time>2026-04-28T07:54:17.062Z</time></trkpt><trkpt lat="39.72632" lon="21.6382154"><ele>509.0</ele><time>2026-04-28T07:54:18.062Z</time></trkpt><trkpt lat="39.7262925" lon="21.6382963"><ele>510.0</ele><time>2026-04-28T07:54:19.061Z</time></trkpt><trkpt lat="39.7262378" lon="21.63836"><ele>511.0</ele><time>2026-04-28T07:54:20.062Z</time></trkpt><trkpt lat="39.7261576" lon="21.6383163"><ele>512.0</ele><time>2026-04-28T07:54:21.062Z</time></trkpt><trkpt lat="39.7260779" lon="21.638284"><ele>513.0</ele><time>2026-04-28T07:54:22.062Z</time></trkpt><trkpt lat="39.7260037" lon="21.6381739"><ele>513.0</ele><time>2026-04-28T07:54:23.062Z</time></trkpt><trkpt lat="39.7259417" lon="21.6380801"><ele>513.0</ele><time>2026-04-28T07:54:24.061Z</time></trkpt><trkpt lat="39.7258646" lon="21.6379958"><ele>513.0</ele><time>2026-04-28T07:54:25.062Z</time></trkpt><trkpt lat="39.7257867" lon="21.6379118"><ele>513.0</ele><time>2026-04-28T07:54:26.061Z</time></trkpt><trkpt lat="39.7257224" lon="21.637835"><ele>513.0</ele><time>2026-04-28T07:54:27.062Z</time></trkpt><trkpt lat="39.7256634" lon="21.6377671"><ele>509.2</ele><time>2026-04-28T07:54:28.061Z</time></trkpt><trkpt lat="39.7255907" lon="21.6376846"><ele>505.4</ele><time>2026-04-28T07:54:30.061Z</time></trkpt><trkpt lat="39.7255552" lon="21.6376148"><ele>501.59999999999997</ele><time>2026-04-28T07:54:57.062Z</time></trkpt><trkpt lat="39.7254837" lon="21.6375347"><ele>497.79999999999995</ele><time>2026-04-28T07:56:08.062Z</time></trkpt><trkpt lat="39.7253828" lon="21.63748"><ele>494.0</ele><time>2026-04-28T07:56:10.061Z</time></trkpt><trkpt lat="39.7252612" lon="21.6374556"><ele>494.4</ele><time>2026-04-28T07:56:12.061Z</time></trkpt><trkpt lat="39.725148" lon="21.6374413"><ele>494.79999999999995</ele><time>2026-04-28T07:56:14.061Z</time></trkpt><trkpt lat="39.7250445" lon="21.63742"><ele>495.20000000000005</ele><time>2026-04-28T07:56:16.062Z</time></trkpt><trkpt lat="39.7249629" lon="21.6373563"><ele>495.6</ele><time>2026-04-28T07:56:18.062Z</time></trkpt><trkpt lat="39.7249381" lon="21.6372483"><ele>496.0</ele><time>2026-04-28T07:56:20.061Z</time></trkpt><trkpt lat="39.7249253" lon="21.6371289"><ele>496.0</ele><time>2026-04-28T07:56:22.061Z</time></trkpt><trkpt lat="39.7248831" lon="21.6369735"><ele>496.0</ele><time>2026-04-28T07:56:24.062Z</time></trkpt><trkpt lat="39.724809" lon="21.6368634"><ele>496.0</ele><time>2026-04-28T07:56:26.061Z</time></trkpt><trkpt lat="39.7247372" lon="21.636759"><ele>496.0</ele><time>2026-04-28T07:56:28.061Z</time></trkpt><trkpt lat="39.7246637" lon="21.6366602"><ele>496.0</ele><time>2026-04-28T07:56:30.062Z</time></trkpt><trkpt lat="39.7245794" lon="21.6365721"><ele>496.0</ele><time>2026-04-28T07:56:32.061Z</time></trkpt><trkpt lat="39.724478" lon="21.6365109"><ele>496.0</ele><time>2026-04-28T07:56:34.061Z</time></trkpt><trkpt lat="39.7243582" lon="21.6364667"><ele>496.0</ele><time>2026-04-28T07:56:36.061Z</time></trkpt><trkpt lat="39.7242976" lon="21.6364381"><ele>496.0</ele><time>2026-04-28T07:56:37.061Z</time></trkpt><trkpt lat="39.7242138" lon="21.6363212"><ele>496.0</ele><time>2026-04-28T07:56:39.062Z</time></trkpt><trkpt lat="39.7241819" lon="21.6361644"><ele>496.0</ele><time>2026-04-28T07:56:41.061Z</time></trkpt><trkpt lat="39.7241867" lon="21.6360046"><ele>496.0</ele><time>2026-04-28T07:56:43.061Z</time></trkpt><trkpt lat="39.7242089" lon="21.6358521"><ele>496.0</ele><time>2026-04-28T07:56:45.061Z</time></trkpt><trkpt lat="39.7242324" lon="21.6357737"><ele>496.0</ele><time>2026-04-28T07:56:46.061Z</time></trkpt><trkpt lat="39.7242572" lon="21.6356877"><ele>494.00000000000006</ele><time>2026-04-28T07:56:47.062Z</time></trkpt><trkpt lat="39.7242695" lon="21.6355989"><ele>492.0</ele><time>2026-04-28T07:56:48.062Z</time></trkpt><trkpt lat="39.7242737" lon="21.6354993"><ele>490.0</ele><time>2026-04-28T07:56:49.061Z</time></trkpt><trkpt lat="39.7242596" lon="21.6353959"><ele>488.0</ele><time>2026-04-28T07:56:50.061Z</time></trkpt><trkpt lat="39.7242375" lon="21.6353012"><ele>486.00000000000006</ele><time>2026-04-28T07:56:51.062Z</time></trkpt><trkpt lat="39.7242018" lon="21.6351944"><ele>484.0</ele><time>2026-04-28T07:56:52.062Z</time></trkpt><trkpt lat="39.7241597" lon="21.6350875"><ele>483.50000000000006</ele><time>2026-04-28T07:56:53.062Z</time></trkpt><trkpt lat="39.7241008" lon="21.634974"><ele>483.0</ele><time>2026-04-28T07:56:54.062Z</time></trkpt><trkpt lat="39.7240579" lon="21.6348634"><ele>482.5</ele><time>2026-04-28T07:56:55.061Z</time></trkpt><trkpt lat="39.7240281" lon="21.6347505"><ele>482.0</ele><time>2026-04-28T07:56:56.062Z</time></trkpt><trkpt lat="39.7240132" lon="21.6346438"><ele>481.50000000000006</ele><time>2026-04-28T07:56:57.062Z</time></trkpt><trkpt lat="39.7240016" lon="21.6345492"><ele>481.0</ele><time>2026-04-28T07:56:58.061Z</time></trkpt><trkpt lat="39.7239865" lon="21.6344607"><ele>475.8</ele><time>2026-04-28T07:56:59.062Z</time></trkpt><trkpt lat="39.7239265" lon="21.6343216"><ele>470.6</ele><time>2026-04-28T07:57:01.061Z</time></trkpt><trkpt lat="39.7238318" lon="21.6342084"><ele>465.4</ele><time>2026-04-28T07:57:03.062Z</time></trkpt><trkpt lat="39.7237755" lon="21.634158"><ele>460.2</ele><time>2026-04-28T07:57:04.061Z</time></trkpt><trkpt lat="39.7237149" lon="21.6340949"><ele>455.0</ele><time>2026-04-28T07:57:05.061Z</time></trkpt><trkpt lat="39.7236516" lon="21.6340277"><ele>454.99999999999994</ele><time>2026-04-28T07:57:06.061Z</time></trkpt><trkpt lat="39.7235875" lon="21.6339613"><ele>455.0</ele><time>2026-04-28T07:57:07.061Z</time></trkpt><trkpt lat="39.723526" lon="21.6339022"><ele>455.0</ele><time>2026-04-28T07:57:08.061Z</time></trkpt><trkpt lat="39.7234582" lon="21.6338433"><ele>455.0</ele><time>2026-04-28T07:57:09.061Z</time></trkpt><trkpt lat="39.723391" lon="21.6337907"><ele>454.99999999999994</ele><time>2026-04-28T07:57:10.062Z</time></trkpt><trkpt lat="39.7233116" lon="21.6337329"><ele>455.0</ele><time>2026-04-28T07:57:11.062Z</time></trkpt><trkpt lat="39.7232433" lon="21.6336788"><ele>452.99999999999994</ele><time>2026-04-28T07:57:12.062Z</time></trkpt><trkpt lat="39.7231764" lon="21.633626"><ele>451.0</ele><time>2026-04-28T07:57:13.061Z</time></trkpt><trkpt lat="39.7231149" lon="21.6335709"><ele>449.0</ele><time>2026-04-28T07:57:14.061Z</time></trkpt><trkpt lat="39.7230528" lon="21.6335155"><ele>447.0</ele><time>2026-04-28T07:57:15.062Z</time></trkpt><trkpt lat="39.7229816" lon="21.6334664"><ele>444.99999999999994</ele><time>2026-04-28T07:57:16.062Z</time></trkpt><trkpt lat="39.7229183" lon="21.6334216"><ele>443.0</ele><time>2026-04-28T07:57:17.061Z</time></trkpt><trkpt lat="39.722851" lon="21.6333898"><ele>442.99999999999994</ele><time>2026-04-28T07:57:18.062Z</time></trkpt><trkpt lat="39.722779" lon="21.6333842"><ele>443.0</ele><time>2026-04-28T07:57:19.062Z</time></trkpt><trkpt lat="39.7227054" lon="21.633386"><ele>443.0</ele><time>2026-04-28T07:57:20.062Z</time></trkpt><trkpt lat="39.7226316" lon="21.6334057"><ele>443.0</ele><time>2026-04-28T07:57:21.061Z</time></trkpt><trkpt lat="39.7225512" lon="21.6334268"><ele>442.99999999999994</ele><time>2026-04-28T07:57:22.061Z</time></trkpt><trkpt lat="39.7224676" lon="21.6334453"><ele>443.0</ele><time>2026-04-28T07:57:23.062Z</time></trkpt><trkpt lat="39.7223899" lon="21.6334534"><ele>445.0</ele><time>2026-04-28T07:57:24.061Z</time></trkpt><trkpt lat="39.7223226" lon="21.633446"><ele>447.0</ele><time>2026-04-28T07:57:25.062Z</time></trkpt><trkpt lat="39.7222563" lon="21.6334307"><ele>449.0</ele><time>2026-04-28T07:57:26.062Z</time></trkpt><trkpt lat="39.7222046" lon="21.6333683"><ele>451.0</ele><time>2026-04-28T07:57:27.061Z</time></trkpt><trkpt lat="39.7221727" lon="21.6332742"><ele>453.0</ele><time>2026-04-28T07:57:28.061Z</time></trkpt><trkpt lat="39.7221622" lon="21.6331715"><ele>455.00000000000006</ele><time>2026-04-28T07:57:29.061Z</time></trkpt><trkpt lat="39.7221672" lon="21.6330655"><ele>457.00000000000006</ele><time>2026-04-28T07:57:30.061Z</time></trkpt><trkpt lat="39.722189" lon="21.6329496"><ele>457.00000000000006</ele><time>2026-04-28T07:57:31.061Z</time></trkpt><trkpt lat="39.7222065" lon="21.6328499"><ele>457.0</ele><time>2026-04-28T07:57:32.062Z</time></trkpt><trkpt lat="39.7222217" lon="21.6327486"><ele>457.0</ele><time>2026-04-28T07:57:33.062Z</time></trkpt><trkpt lat="39.7222214" lon="21.632651"><ele>457.0</ele><time>2026-04-28T07:57:34.061Z</time></trkpt><trkpt lat="39.7222265" lon="21.6325636"><ele>457.00000000000006</ele><time>2026-04-28T07:57:35.061Z</time></trkpt><trkpt lat="39.7222018" lon="21.6324043"><ele>457.0</ele><time>2026-04-28T07:57:37.061Z</time></trkpt><trkpt lat="39.7221823" lon="21.632325"><ele>452.8</ele><time>2026-04-28T07:57:38.062Z</time></trkpt><trkpt lat="39.72215" lon="21.63225"><ele>448.6</ele><time>2026-04-28T07:57:39.062Z</time></trkpt><trkpt lat="39.7220769" lon="21.6321349"><ele>444.40000000000003</ele><time>2026-04-28T07:57:41.062Z</time></trkpt><trkpt lat="39.7220184" lon="21.6320251"><ele>440.20000000000005</ele><time>2026-04-28T07:57:43.062Z</time></trkpt><trkpt lat="39.7219531" lon="21.6319149"><ele>436.0</ele><time>2026-04-28T07:57:45.061Z</time></trkpt><trkpt lat="39.7218872" lon="21.6318134"><ele>436.0</ele><time>2026-04-28T07:57:47.062Z</time></trkpt><trkpt lat="39.7218053" lon="21.6317066"><ele>436.0</ele><time>2026-04-28T07:57:49.062Z</time></trkpt><trkpt lat="39.7217156" lon="21.6316095"><ele>436.0</ele><time>2026-04-28T07:57:51.061Z</time></trkpt><trkpt lat="39.7216178" lon="21.6315207"><ele>436.0</ele><time>2026-04-28T07:57:53.062Z</time></trkpt><trkpt lat="39.7215061" lon="21.6314592"><ele>436.0</ele><time>2026-04-28T07:57:55.061Z</time></trkpt><trkpt lat="39.7213951" lon="21.6314508"><ele>436.0</ele><time>2026-04-28T07:57:57.062Z</time></trkpt><trkpt lat="39.7213074" lon="21.6314875"><ele>436.0</ele><time>2026-04-28T07:57:59.062Z</time></trkpt><trkpt lat="39.7212325" lon="21.6315853"><ele>436.0</ele><time>2026-04-28T07:58:01.062Z</time></trkpt><trkpt lat="39.7211666" lon="21.6317117"><ele>436.0</ele><time>2026-04-28T07:58:03.061Z</time></trkpt><trkpt lat="39.7211256" lon="21.6317802"><ele>436.0</ele><time>2026-04-28T07:58:04.061Z</time></trkpt><trkpt lat="39.7210895" lon="21.6318572"><ele>436.0</ele><time>2026-04-28T07:58:05.062Z</time></trkpt><trkpt lat="39.7210532" lon="21.6319313"><ele>436.0</ele><time>2026-04-28T07:58:06.061Z</time></trkpt><trkpt lat="39.7210172" lon="21.6320002"><ele>436.0</ele><time>2026-04-28T07:58:07.061Z</time></trkpt><trkpt lat="39.7209752" lon="21.6320689"><ele>436.0</ele><time>2026-04-28T07:58:08.061Z</time></trkpt><trkpt lat="39.7209241" lon="21.6321314"><ele>436.0</ele><time>2026-04-28T07:58:09.062Z</time></trkpt><trkpt lat="39.7208734" lon="21.6321942"><ele>436.0</ele><time>2026-04-28T07:58:10.062Z</time></trkpt><trkpt lat="39.7207664" lon="21.6322697"><ele>437.6666666666667</ele><time>2026-04-28T07:58:12.062Z</time></trkpt><trkpt lat="39.7206429" lon="21.6323027"><ele>439.33333333333337</ele><time>2026-04-28T07:58:14.062Z</time></trkpt><trkpt lat="39.720572" lon="21.6323056"><ele>441.0</ele><time>2026-04-28T07:58:15.062Z</time></trkpt><trkpt lat="39.7204961" lon="21.6323131"><ele>442.66666666666663</ele><time>2026-04-28T07:58:16.061Z</time></trkpt><trkpt lat="39.7204273" lon="21.6323218"><ele>444.3333333333333</ele><time>2026-04-28T07:58:17.062Z</time></trkpt><trkpt lat="39.7203623" lon="21.6323433"><ele>446.0</ele><time>2026-04-28T07:58:18.062Z</time></trkpt><trkpt lat="39.7202607" lon="21.6324341"><ele>444.2857142857143</ele><time>2026-04-28T07:58:20.062Z</time></trkpt><trkpt lat="39.7202259" lon="21.6325084"><ele>442.57142857142856</ele><time>2026-04-28T07:58:21.061Z</time></trkpt><trkpt lat="39.7202072" lon="21.6325959"><ele>440.8571428571429</ele><time>2026-04-28T07:58:22.061Z</time></trkpt><trkpt lat="39.7201968" lon="21.6326853"><ele>439.1428571428571</ele><time>2026-04-28T07:58:23.061Z</time></trkpt><trkpt lat="39.7201897" lon="21.6327807"><ele>437.42857142857144</ele><time>2026-04-28T07:58:24.062Z</time></trkpt><trkpt lat="39.7201789" lon="21.6328716"><ele>435.7142857142857</ele><time>2026-04-28T07:58:25.061Z</time></trkpt><trkpt lat="39.720165" lon="21.6329596"><ele>434.0</ele><time>2026-04-28T07:58:26.062Z</time></trkpt><trkpt lat="39.7201486" lon="21.6330442"><ele>434.0</ele><time>2026-04-28T07:58:27.061Z</time></trkpt><trkpt lat="39.7201365" lon="21.633129"><ele>434.0</ele><time>2026-04-28T07:58:28.061Z</time></trkpt><trkpt lat="39.720115" lon="21.6332087"><ele>434.0</ele><time>2026-04-28T07:58:29.062Z</time></trkpt><trkpt lat="39.7200783" lon="21.6332866"><ele>434.0</ele><time>2026-04-28T07:58:30.062Z</time></trkpt><trkpt lat="39.7200177" lon="21.63335"><ele>434.0</ele><time>2026-04-28T07:58:31.061Z</time></trkpt><trkpt lat="39.7199469" lon="21.6333835"><ele>434.0</ele><time>2026-04-28T07:58:32.061Z</time></trkpt><trkpt lat="39.719864" lon="21.6333867"><ele>434.0</ele><time>2026-04-28T07:58:33.061Z</time></trkpt><trkpt lat="39.719778" lon="21.6333644"><ele>433.99999999999994</ele><time>2026-04-28T07:58:34.062Z</time></trkpt><trkpt lat="39.7196967" lon="21.633333"><ele>434.0</ele><time>2026-04-28T07:58:35.061Z</time></trkpt><trkpt lat="39.7196215" lon="21.6333022"><ele>434.0</ele><time>2026-04-28T07:58:36.061Z</time></trkpt><trkpt lat="39.719546" lon="21.6332594"><ele>434.0</ele><time>2026-04-28T07:58:37.062Z</time></trkpt><trkpt lat="39.7194748" lon="21.6332245"><ele>433.99999999999994</ele><time>2026-04-28T07:58:38.061Z</time></trkpt><trkpt lat="39.7194073" lon="21.6331947"><ele>434.0</ele><time>2026-04-28T07:58:39.061Z</time></trkpt><trkpt lat="39.7193413" lon="21.6331851"><ele>429.0</ele><time>2026-04-28T07:58:40.062Z</time></trkpt><trkpt lat="39.7192291" lon="21.6332122"><ele>424.0</ele><time>2026-04-28T07:58:42.061Z</time></trkpt><trkpt lat="39.7191248" lon="21.6332746"><ele>419.0</ele><time>2026-04-28T07:58:44.061Z</time></trkpt><trkpt lat="39.7190197" lon="21.6333389"><ele>414.0</ele><time>2026-04-28T07:58:46.062Z</time></trkpt><trkpt lat="39.7189311" lon="21.6334225"><ele>414.0</ele><time>2026-04-28T07:58:48.061Z</time></trkpt><trkpt lat="39.7188609" lon="21.633533"><ele>414.0</ele><time>2026-04-28T07:58:50.061Z</time></trkpt><trkpt lat="39.7188011" lon="21.6336236"><ele>414.0</ele><time>2026-04-28T07:58:52.061Z</time></trkpt><trkpt lat="39.7187465" lon="21.6336745"><ele>414.0</ele><time>2026-04-28T07:58:54.062Z</time></trkpt><trkpt lat="39.7186815" lon="21.6337229"><ele>414.0</ele><time>2026-04-28T07:58:57.061Z</time></trkpt><trkpt lat="39.7186281" lon="21.6336596"><ele>414.0</ele><time>2026-04-28T08:00:53.061Z</time></trkpt><trkpt lat="39.7185911" lon="21.6335886"><ele>414.0</ele><time>2026-04-28T08:00:57.062Z</time></trkpt><trkpt lat="39.718636" lon="21.6334932"><ele>414.0</ele><time>2026-04-28T08:01:58.062Z</time></trkpt><trkpt lat="39.7186959" lon="21.6334074"><ele>414.0</ele><time>2026-04-28T08:02:00.061Z</time></trkpt><trkpt lat="39.7187749" lon="21.633332"><ele>414.0</ele><time>2026-04-28T08:02:02.062Z</time></trkpt><trkpt lat="39.7188553" lon="21.6332645"><ele>414.0</ele><time>2026-04-28T08:02:04.061Z</time></trkpt><trkpt lat="39.7189379" lon="21.6331868"><ele>414.0</ele><time>2026-04-28T08:02:06.061Z</time></trkpt><trkpt lat="39.7190348" lon="21.6331051"><ele>414.0</ele><time>2026-04-28T08:02:08.062Z</time></trkpt><trkpt lat="39.7191357" lon="21.6330168"><ele>414.0</ele><time>2026-04-28T08:02:10.061Z</time></trkpt><trkpt lat="39.7191878" lon="21.6329687"><ele>414.0</ele><time>2026-04-28T08:02:11.062Z</time></trkpt><trkpt lat="39.7192518" lon="21.6329209"><ele>414.0</ele><time>2026-04-28T08:02:12.061Z</time></trkpt><trkpt lat="39.7193703" lon="21.6328597"><ele>414.7142857142857</ele><time>2026-04-28T08:02:14.061Z</time></trkpt><trkpt lat="39.7194316" lon="21.6328305"><ele>415.42857142857144</ele><time>2026-04-28T08:02:15.061Z</time></trkpt><trkpt lat="39.7195007" lon="21.632806"><ele>416.1428571428571</ele><time>2026-04-28T08:02:16.062Z</time></trkpt><trkpt lat="39.7195649" lon="21.6327951"><ele>416.8571428571429</ele><time>2026-04-28T08:02:17.062Z</time></trkpt><trkpt lat="39.7196299" lon="21.6327779"><ele>417.57142857142856</ele><time>2026-04-28T08:02:18.062Z</time></trkpt><trkpt lat="39.7196939" lon="21.6327363"><ele>418.2857142857143</ele><time>2026-04-28T08:02:19.061Z</time></trkpt><trkpt lat="39.7197434" lon="21.6326754"><ele>419.0</ele><time>2026-04-28T08:02:20.061Z</time></trkpt><trkpt lat="39.7197894" lon="21.6325793"><ele>418.99999999999994</ele><time>2026-04-28T08:02:21.061Z</time></trkpt><trkpt lat="39.7198101" lon="21.6324718"><ele>419.0</ele><time>2026-04-28T08:02:22.061Z</time></trkpt><trkpt lat="39.7198163" lon="21.6323678"><ele>419.0</ele><time>2026-04-28T08:02:23.062Z</time></trkpt><trkpt lat="39.71983" lon="21.6322578"><ele>419.0</ele><time>2026-04-28T08:02:24.061Z</time></trkpt><trkpt lat="39.7198491" lon="21.6321631"><ele>418.99999999999994</ele><time>2026-04-28T08:02:25.061Z</time></trkpt><trkpt lat="39.7198678" lon="21.6320734"><ele>419.0</ele><time>2026-04-28T08:02:26.062Z</time></trkpt><trkpt lat="39.7198935" lon="21.6319885"><ele>415.16666666666663</ele><time>2026-04-28T08:02:27.062Z</time></trkpt><trkpt lat="39.7199273" lon="21.6319073"><ele>411.3333333333333</ele><time>2026-04-28T08:02:28.061Z</time></trkpt><trkpt lat="39.7199529" lon="21.6318295"><ele>407.5</ele><time>2026-04-28T08:02:29.061Z</time></trkpt><trkpt lat="39.7199872" lon="21.6317556"><ele>403.66666666666663</ele><time>2026-04-28T08:02:30.062Z</time></trkpt><trkpt lat="39.7200531" lon="21.6316498"><ele>399.8333333333333</ele><time>2026-04-28T08:02:32.061Z</time></trkpt><trkpt lat="39.7201438" lon="21.6315942"><ele>396.0</ele><time>2026-04-28T08:02:34.062Z</time></trkpt><trkpt lat="39.7202148" lon="21.6315588"><ele>400.6</ele><time>2026-04-28T08:02:36.061Z</time></trkpt><trkpt lat="39.7202956" lon="21.6315097"><ele>405.20000000000005</ele><time>2026-04-28T08:02:38.061Z</time></trkpt><trkpt lat="39.7203959" lon="21.6314454"><ele>409.79999999999995</ele><time>2026-04-28T08:02:40.062Z</time></trkpt><trkpt lat="39.7204844" lon="21.6313452"><ele>414.4</ele><time>2026-04-28T08:02:42.062Z</time></trkpt><trkpt lat="39.7205351" lon="21.6312432"><ele>419.0</ele><time>2026-04-28T08:02:44.061Z</time></trkpt><trkpt lat="39.7205865" lon="21.6311441"><ele>414.2</ele><time>2026-04-28T08:02:46.062Z</time></trkpt><trkpt lat="39.7206412" lon="21.6310212"><ele>409.4</ele><time>2026-04-28T08:02:48.062Z</time></trkpt><trkpt lat="39.7206748" lon="21.6309514"><ele>404.6</ele><time>2026-04-28T08:02:49.062Z</time></trkpt><trkpt lat="39.7207464" lon="21.6308255"><ele>399.8</ele><time>2026-04-28T08:02:51.061Z</time></trkpt><trkpt lat="39.7208176" lon="21.6307122"><ele>395.0</ele><time>2026-04-28T08:02:53.062Z</time></trkpt><trkpt lat="39.7208902" lon="21.6306068"><ele>395.0</ele><time>2026-04-28T08:02:55.061Z</time></trkpt><trkpt lat="39.7209792" lon="21.6305039"><ele>395.0</ele><time>2026-04-28T08:02:57.062Z</time></trkpt><trkpt lat="39.721065" lon="21.6304163"><ele>395.0</ele><time>2026-04-28T08:02:59.061Z</time></trkpt><trkpt lat="39.7211237" lon="21.6303558"><ele>395.0</ele><time>2026-04-28T08:03:01.062Z</time></trkpt><trkpt lat="39.7211661" lon="21.6302888"><ele>395.0</ele><time>2026-04-28T08:03:04.062Z</time></trkpt><trkpt lat="39.7212484" lon="21.6302139"><ele>391.8</ele><time>2026-04-28T08:03:07.061Z</time></trkpt><trkpt lat="39.721322" lon="21.6301506"><ele>388.6</ele><time>2026-04-28T08:03:09.061Z</time></trkpt><trkpt lat="39.7214261" lon="21.6300825"><ele>385.4</ele><time>2026-04-28T08:03:11.062Z</time></trkpt><trkpt lat="39.7215279" lon="21.6300091"><ele>382.2</ele><time>2026-04-28T08:03:13.062Z</time></trkpt><trkpt lat="39.7215957" lon="21.630004"><ele>379.0</ele><time>2026-04-28T08:03:14.061Z</time></trkpt><trkpt lat="39.7216659" lon="21.6300077"><ele>379.0</ele><time>2026-04-28T08:03:15.062Z</time></trkpt><trkpt lat="39.7217328" lon="21.6300243"><ele>379.0</ele><time>2026-04-28T08:03:16.061Z</time></trkpt><trkpt lat="39.7217937" lon="21.6300525"><ele>379.0</ele><time>2026-04-28T08:03:17.061Z</time></trkpt><trkpt lat="39.7219022" lon="21.6301295"><ele>379.0</ele><time>2026-04-28T08:03:19.062Z</time></trkpt><trkpt lat="39.721985" lon="21.6302391"><ele>379.0</ele><time>2026-04-28T08:03:21.061Z</time></trkpt><trkpt lat="39.72206" lon="21.6303479"><ele>382.0</ele><time>2026-04-28T08:03:23.061Z</time></trkpt><trkpt lat="39.7221008" lon="21.6304166"><ele>385.0</ele><time>2026-04-28T08:03:24.062Z</time></trkpt><trkpt lat="39.7221854" lon="21.6305328"><ele>388.0</ele><time>2026-04-28T08:03:26.061Z</time></trkpt><trkpt lat="39.7222882" lon="21.630608"><ele>391.0</ele><time>2026-04-28T08:03:28.062Z</time></trkpt><trkpt lat="39.7224001" lon="21.630581"><ele>394.0</ele><time>2026-04-28T08:03:30.062Z</time></trkpt><trkpt lat="39.7224826" lon="21.6304638"><ele>394.00000000000006</ele><time>2026-04-28T08:03:32.062Z</time></trkpt><trkpt lat="39.7225014" lon="21.6303773"><ele>394.0</ele><time>2026-04-28T08:03:33.061Z</time></trkpt><trkpt lat="39.7225043" lon="21.6302843"><ele>394.0</ele><time>2026-04-28T08:03:34.061Z</time></trkpt><trkpt lat="39.7225049" lon="21.6301854"><ele>394.0</ele><time>2026-04-28T08:03:35.062Z</time></trkpt><trkpt lat="39.7225022" lon="21.6300739"><ele>394.00000000000006</ele><time>2026-04-28T08:03:36.062Z</time></trkpt><trkpt lat="39.722497" lon="21.6299545"><ele>394.0</ele><time>2026-04-28T08:03:37.061Z</time></trkpt><trkpt lat="39.7224926" lon="21.6298484"><ele>390.83333333333337</ele><time>2026-04-28T08:03:38.061Z</time></trkpt><trkpt lat="39.7224797" lon="21.6297544"><ele>387.6666666666667</ele><time>2026-04-28T08:03:39.061Z</time></trkpt><trkpt lat="39.7224879" lon="21.6296539"><ele>384.5</ele><time>2026-04-28T08:03:40.062Z</time></trkpt><trkpt lat="39.7225047" lon="21.6295613"><ele>381.33333333333337</ele><time>2026-04-28T08:03:41.061Z</time></trkpt><trkpt lat="39.7225389" lon="21.6294648"><ele>378.1666666666667</ele><time>2026-04-28T08:03:42.062Z</time></trkpt><trkpt lat="39.7225816" lon="21.6293647"><ele>375.0</ele><time>2026-04-28T08:03:43.062Z</time></trkpt><trkpt lat="39.7226362" lon="21.6292712"><ele>374.6</ele><time>2026-04-28T08:03:44.062Z</time></trkpt><trkpt lat="39.7227004" lon="21.6291846"><ele>374.2</ele><time>2026-04-28T08:03:45.062Z</time></trkpt><trkpt lat="39.7227666" lon="21.6291063"><ele>373.79999999999995</ele><time>2026-04-28T08:03:46.062Z</time></trkpt><trkpt lat="39.7228405" lon="21.6290343"><ele>373.4</ele><time>2026-04-28T08:03:47.062Z</time></trkpt><trkpt lat="39.7229192" lon="21.6289555"><ele>373.0</ele><time>2026-04-28T08:03:48.061Z</time></trkpt><trkpt lat="39.7229927" lon="21.6288718"><ele>373.0</ele><time>2026-04-28T08:03:49.061Z</time></trkpt><trkpt lat="39.7230577" lon="21.6287757"><ele>373.0</ele><time>2026-04-28T08:03:50.061Z</time></trkpt><trkpt lat="39.7230997" lon="21.6286663"><ele>373.0</ele><time>2026-04-28T08:03:51.062Z</time></trkpt><trkpt lat="39.7231127" lon="21.6285496"><ele>373.0</ele><time>2026-04-28T08:03:52.061Z</time></trkpt><trkpt lat="39.7230963" lon="21.628428"><ele>373.0</ele><time>2026-04-28T08:03:53.061Z</time></trkpt><trkpt lat="39.7230593" lon="21.6283144"><ele>369.79999999999995</ele><time>2026-04-28T08:03:54.062Z</time></trkpt><trkpt lat="39.7230071" lon="21.6281991"><ele>366.6</ele><time>2026-04-28T08:03:55.062Z</time></trkpt><trkpt lat="39.7229559" lon="21.6280867"><ele>363.4</ele><time>2026-04-28T08:03:56.062Z</time></trkpt><trkpt lat="39.7229125" lon="21.6279717"><ele>360.20000000000005</ele><time>2026-04-28T08:03:57.061Z</time></trkpt><trkpt lat="39.7228757" lon="21.6278489"><ele>357.0</ele><time>2026-04-28T08:03:58.061Z</time></trkpt><trkpt lat="39.7228483" lon="21.6277223"><ele>357.0</ele><time>2026-04-28T08:03:59.062Z</time></trkpt><trkpt lat="39.722821" lon="21.6275951"><ele>357.0</ele><time>2026-04-28T08:04:00.062Z</time></trkpt><trkpt lat="39.7227965" lon="21.6274732"><ele>357.0</ele><time>2026-04-28T08:04:01.062Z</time></trkpt><trkpt lat="39.7227706" lon="21.6273402"><ele>357.0</ele><time>2026-04-28T08:04:02.061Z</time></trkpt><trkpt lat="39.7227435" lon="21.6272043"><ele>357.0</ele><time>2026-04-28T08:04:03.062Z</time></trkpt><trkpt lat="39.7227135" lon="21.6270589"><ele>352.75</ele><time>2026-04-28T08:04:04.062Z</time></trkpt><trkpt lat="39.7226891" lon="21.6269139"><ele>348.5</ele><time>2026-04-28T08:04:05.062Z</time></trkpt><trkpt lat="39.7226765" lon="21.6267667"><ele>344.25</ele><time>2026-04-28T08:04:06.061Z</time></trkpt><trkpt lat="39.7226804" lon="21.626618"><ele>340.0</ele><time>2026-04-28T08:04:07.062Z</time></trkpt><trkpt lat="39.7226857" lon="21.6264685"><ele>340.0</ele><time>2026-04-28T08:04:08.062Z</time></trkpt><trkpt lat="39.7226828" lon="21.6263199"><ele>340.0</ele><time>2026-04-28T08:04:09.061Z</time></trkpt><trkpt lat="39.7226833" lon="21.6261714"><ele>340.0</ele><time>2026-04-28T08:04:10.061Z</time></trkpt><trkpt lat="39.7226908" lon="21.6260308"><ele>340.0</ele><time>2026-04-28T08:04:11.062Z</time></trkpt><trkpt lat="39.7226997" lon="21.625899"><ele>340.0</ele><time>2026-04-28T08:04:12.062Z</time></trkpt><trkpt lat="39.7227298" lon="21.6257741"><ele>344.4</ele><time>2026-04-28T08:04:13.062Z</time></trkpt><trkpt lat="39.7227643" lon="21.6256489"><ele>348.8</ele><time>2026-04-28T08:04:14.061Z</time></trkpt><trkpt lat="39.7227877" lon="21.6255235"><ele>353.20000000000005</ele><time>2026-04-28T08:04:15.062Z</time></trkpt><trkpt lat="39.7228099" lon="21.6253994"><ele>357.6</ele><time>2026-04-28T08:04:16.062Z</time></trkpt><trkpt lat="39.7228308" lon="21.6252796"><ele>362.0</ele><time>2026-04-28T08:04:17.062Z</time></trkpt><trkpt lat="39.7228486" lon="21.6251776"><ele>362.83333333333337</ele><time>2026-04-28T08:04:18.062Z</time></trkpt><trkpt lat="39.7228616" lon="21.6250908"><ele>363.6666666666667</ele><time>2026-04-28T08:04:19.061Z</time></trkpt><trkpt lat="39.7228741" lon="21.6249463"><ele>364.5</ele><time>2026-04-28T08:04:21.062Z</time></trkpt><trkpt lat="39.7228874" lon="21.6248276"><ele>365.3333333333333</ele><time>2026-04-28T08:04:23.062Z</time></trkpt><trkpt lat="39.7228872" lon="21.6247273"><ele>366.16666666666663</ele><time>2026-04-28T08:04:25.062Z</time></trkpt><trkpt lat="39.7228841" lon="21.6245971"><ele>367.0</ele><time>2026-04-28T08:04:27.062Z</time></trkpt><trkpt lat="39.7228919" lon="21.6244524"><ele>365.16666666666663</ele><time>2026-04-28T08:04:29.062Z</time></trkpt><trkpt lat="39.7229242" lon="21.6243067"><ele>363.3333333333333</ele><time>2026-04-28T08:04:31.062Z</time></trkpt><trkpt lat="39.7229635" lon="21.6241592"><ele>361.5</ele><time>2026-04-28T08:04:33.062Z</time></trkpt><trkpt lat="39.7229831" lon="21.6240762"><ele>359.6666666666667</ele><time>2026-04-28T08:04:34.061Z</time></trkpt><trkpt lat="39.7230028" lon="21.6239977"><ele>357.83333333333337</ele><time>2026-04-28T08:04:35.061Z</time></trkpt><trkpt lat="39.723029" lon="21.6239081"><ele>356.0</ele><time>2026-04-28T08:04:36.062Z</time></trkpt><trkpt lat="39.7230534" lon="21.6238177"><ele>355.99999999999994</ele><time>2026-04-28T08:04:37.062Z</time></trkpt><trkpt lat="39.7230749" lon="21.6237192"><ele>356.0</ele><time>2026-04-28T08:04:38.062Z</time></trkpt><trkpt lat="39.7230975" lon="21.6236265"><ele>356.0</ele><time>2026-04-28T08:04:39.061Z</time></trkpt><trkpt lat="39.7231178" lon="21.6235349"><ele>356.0</ele><time>2026-04-28T08:04:40.062Z</time></trkpt><trkpt lat="39.7231369" lon="21.6234403"><ele>356.0</ele><time>2026-04-28T08:04:41.062Z</time></trkpt><trkpt lat="39.7231638" lon="21.6233489"><ele>355.99999999999994</ele><time>2026-04-28T08:04:42.062Z</time></trkpt><trkpt lat="39.7231843" lon="21.623266"><ele>356.0</ele><time>2026-04-28T08:04:43.061Z</time></trkpt><trkpt lat="39.7232073" lon="21.6231891"><ele>352.5</ele><time>2026-04-28T08:04:44.061Z</time></trkpt><trkpt lat="39.7232167" lon="21.6231026"><ele>349.0</ele><time>2026-04-28T08:04:45.062Z</time></trkpt><trkpt lat="39.7231715" lon="21.6229548"><ele>345.5</ele><time>2026-04-28T08:04:47.062Z</time></trkpt><trkpt lat="39.7231212" lon="21.6228862"><ele>342.0</ele><time>2026-04-28T08:04:48.062Z</time></trkpt><trkpt lat="39.7230598" lon="21.6228258"><ele>338.5</ele><time>2026-04-28T08:04:49.061Z</time></trkpt><trkpt lat="39.722992" lon="21.6227669"><ele>335.0</ele><time>2026-04-28T08:04:50.061Z</time></trkpt><trkpt lat="39.722917" lon="21.6227075"><ele>335.0</ele><time>2026-04-28T08:04:51.062Z</time></trkpt><trkpt lat="39.7228398" lon="21.6226462"><ele>335.0</ele><time>2026-04-28T08:04:52.062Z</time></trkpt><trkpt lat="39.7227709" lon="21.6225949"><ele>335.0</ele><time>2026-04-28T08:04:53.062Z</time></trkpt><trkpt lat="39.7227019" lon="21.6225407"><ele>335.0</ele><time>2026-04-28T08:04:54.061Z</time></trkpt><trkpt lat="39.7226281" lon="21.622497"><ele>335.0</ele><time>2026-04-28T08:04:55.062Z</time></trkpt><trkpt lat="39.7225666" lon="21.6224659"><ele>335.0</ele><time>2026-04-28T08:04:56.062Z</time></trkpt><trkpt lat="39.7224491" lon="21.6224143"><ele>334.1666666666667</ele><time>2026-04-28T08:04:58.062Z</time></trkpt><trkpt lat="39.7223858" lon="21.6223931"><ele>333.33333333333337</ele><time>2026-04-28T08:04:59.061Z</time></trkpt><trkpt lat="39.7222614" lon="21.6223684"><ele>332.5</ele><time>2026-04-28T08:05:01.062Z</time></trkpt><trkpt lat="39.7221954" lon="21.6223436"><ele>331.6666666666667</ele><time>2026-04-28T08:05:02.062Z</time></trkpt><trkpt lat="39.7221299" lon="21.6223137"><ele>330.8333333333333</ele><time>2026-04-28T08:05:03.061Z</time></trkpt><trkpt lat="39.7220588" lon="21.6222745"><ele>330.0</ele><time>2026-04-28T08:05:04.062Z</time></trkpt><trkpt lat="39.7219894" lon="21.6222134"><ele>330.0</ele><time>2026-04-28T08:05:05.061Z</time></trkpt><trkpt lat="39.7219223" lon="21.6221322"><ele>330.0</ele><time>2026-04-28T08:05:06.061Z</time></trkpt><trkpt lat="39.7218595" lon="21.6220511"><ele>330.0</ele><time>2026-04-28T08:05:07.062Z</time></trkpt><trkpt lat="39.7218021" lon="21.6219591"><ele>330.0</ele><time>2026-04-28T08:05:08.062Z</time></trkpt><trkpt lat="39.7217483" lon="21.6218766"><ele>330.0</ele><time>2026-04-28T08:05:09.061Z</time></trkpt><trkpt lat="39.7216895" lon="21.621782"><ele>330.0</ele><time>2026-04-28T08:05:10.062Z</time></trkpt><trkpt lat="39.7216328" lon="21.6216955"><ele>330.8333333333333</ele><time>2026-04-28T08:05:11.062Z</time></trkpt><trkpt lat="39.7215902" lon="21.6216167"><ele>331.6666666666667</ele><time>2026-04-28T08:05:12.062Z</time></trkpt><trkpt lat="39.7215493" lon="21.6215447"><ele>332.5</ele><time>2026-04-28T08:05:13.061Z</time></trkpt><trkpt lat="39.7215014" lon="21.6214477"><ele>333.33333333333337</ele><time>2026-04-28T08:05:15.061Z</time></trkpt><trkpt lat="39.7214768" lon="21.6213455"><ele>334.1666666666667</ele><time>2026-04-28T08:05:18.061Z</time></trkpt><trkpt lat="39.7213885" lon="21.6212771"><ele>335.0</ele><time>2026-04-28T08:05:58.062Z</time></trkpt><trkpt lat="39.7213508" lon="21.6212106"><ele>334.0</ele><time>2026-04-28T08:05:59.062Z</time></trkpt><trkpt lat="39.7212976" lon="21.6211284"><ele>333.0</ele><time>2026-04-28T08:06:00.062Z</time></trkpt><trkpt lat="39.7212509" lon="21.6210436"><ele>332.0</ele><time>2026-04-28T08:06:01.062Z</time></trkpt><trkpt lat="39.7211944" lon="21.6209572"><ele>331.0</ele><time>2026-04-28T08:06:02.061Z</time></trkpt><trkpt lat="39.7211429" lon="21.620863"><ele>330.0</ele><time>2026-04-28T08:06:03.061Z</time></trkpt><trkpt lat="39.7211006" lon="21.6207603"><ele>329.0</ele><time>2026-04-28T08:06:04.061Z</time></trkpt><trkpt lat="39.7210644" lon="21.620645"><ele>325.0</ele><time>2026-04-28T08:06:05.062Z</time></trkpt><trkpt lat="39.7210277" lon="21.6205282"><ele>321.0</ele><time>2026-04-28T08:06:06.062Z</time></trkpt><trkpt lat="39.720987" lon="21.6204167"><ele>317.0</ele><time>2026-04-28T08:06:07.061Z</time></trkpt><trkpt lat="39.7209393" lon="21.6203042"><ele>313.0</ele><time>2026-04-28T08:06:08.062Z</time></trkpt><trkpt lat="39.7208754" lon="21.6202032"><ele>309.0</ele><time>2026-04-28T08:06:09.061Z</time></trkpt><trkpt lat="39.7207983" lon="21.6201163"><ele>309.0</ele><time>2026-04-28T08:06:10.061Z</time></trkpt><trkpt lat="39.7207172" lon="21.6200342"><ele>309.0</ele><time>2026-04-28T08:06:11.062Z</time></trkpt><trkpt lat="39.7206347" lon="21.6199491"><ele>309.0</ele><time>2026-04-28T08:06:12.062Z</time></trkpt><trkpt lat="39.7205453" lon="21.619871"><ele>309.0</ele><time>2026-04-28T08:06:13.061Z</time></trkpt><trkpt lat="39.7204604" lon="21.6197923"><ele>309.0</ele><time>2026-04-28T08:06:14.062Z</time></trkpt><trkpt lat="39.720371" lon="21.6197085"><ele>309.0</ele><time>2026-04-28T08:06:15.061Z</time></trkpt><trkpt lat="39.7202933" lon="21.6196318"><ele>309.0</ele><time>2026-04-28T08:06:16.061Z</time></trkpt><trkpt lat="39.7202134" lon="21.6195616"><ele>309.0</ele><time>2026-04-28T08:06:17.061Z</time></trkpt><trkpt lat="39.7201322" lon="21.6194863"><ele>309.0</ele><time>2026-04-28T08:06:18.061Z</time></trkpt><trkpt lat="39.7200579" lon="21.6194161"><ele>309.0</ele><time>2026-04-28T08:06:19.062Z</time></trkpt><trkpt lat="39.719994" lon="21.6193359"><ele>306.59999999999997</ele><time>2026-04-28T08:06:20.062Z</time></trkpt><trkpt lat="39.719937" lon="21.61924"><ele>304.2</ele><time>2026-04-28T08:06:21.061Z</time></trkpt><trkpt lat="39.7198803" lon="21.6191368"><ele>301.79999999999995</ele><time>2026-04-28T08:06:22.062Z</time></trkpt><trkpt lat="39.7198356" lon="21.6190318"><ele>299.4</ele><time>2026-04-28T08:06:23.062Z</time></trkpt><trkpt lat="39.7198001" lon="21.6189243"><ele>297.0</ele><time>2026-04-28T08:06:24.061Z</time></trkpt><trkpt lat="39.7197653" lon="21.6188102"><ele>297.0</ele><time>2026-04-28T08:06:25.061Z</time></trkpt><trkpt lat="39.7197195" lon="21.618707"><ele>297.0</ele><time>2026-04-28T08:06:26.061Z</time></trkpt><trkpt lat="39.7196758" lon="21.6186033"><ele>297.0</ele><time>2026-04-28T08:06:27.061Z</time></trkpt><trkpt lat="39.7196321" lon="21.6185018"><ele>297.0</ele><time>2026-04-28T08:06:28.062Z</time></trkpt><trkpt lat="39.7195915" lon="21.6183955"><ele>297.0</ele><time>2026-04-28T08:06:29.062Z</time></trkpt><trkpt lat="39.7195514" lon="21.6182976"><ele>297.0</ele><time>2026-04-28T08:06:30.061Z</time></trkpt><trkpt lat="39.7195072" lon="21.618201"><ele>296.8333333333333</ele><time>2026-04-28T08:06:31.061Z</time></trkpt><trkpt lat="39.7194514" lon="21.6181213"><ele>296.6666666666667</ele><time>2026-04-28T08:06:32.062Z</time></trkpt><trkpt lat="39.7193929" lon="21.6180422"><ele>296.5</ele><time>2026-04-28T08:06:33.062Z</time></trkpt><trkpt lat="39.7193282" lon="21.6179742"><ele>296.33333333333337</ele><time>2026-04-28T08:06:34.062Z</time></trkpt><trkpt lat="39.7192564" lon="21.6179095"><ele>296.1666666666667</ele><time>2026-04-28T08:06:35.061Z</time></trkpt><trkpt lat="39.7191799" lon="21.6178509"><ele>296.0</ele><time>2026-04-28T08:06:36.062Z</time></trkpt><trkpt lat="39.7191059" lon="21.6177887"><ele>294.5</ele><time>2026-04-28T08:06:37.061Z</time></trkpt><trkpt lat="39.7190351" lon="21.6177281"><ele>293.0</ele><time>2026-04-28T08:06:38.061Z</time></trkpt><trkpt lat="39.7189683" lon="21.6176683"><ele>291.5</ele><time>2026-04-28T08:06:39.061Z</time></trkpt><trkpt lat="39.7188969" lon="21.6176151"><ele>290.0</ele><time>2026-04-28T08:06:40.062Z</time></trkpt><trkpt lat="39.7188258" lon="21.6175578"><ele>288.5</ele><time>2026-04-28T08:06:41.061Z</time></trkpt><trkpt lat="39.7187677" lon="21.6175029"><ele>287.0</ele><time>2026-04-28T08:06:42.061Z</time></trkpt><trkpt lat="39.7187149" lon="21.6174337"><ele>287.0</ele><time>2026-04-28T08:06:43.062Z</time></trkpt><trkpt lat="39.7186716" lon="21.6173591"><ele>287.0</ele><time>2026-04-28T08:06:44.061Z</time></trkpt><trkpt lat="39.7186299" lon="21.6172733"><ele>287.0</ele><time>2026-04-28T08:06:45.062Z</time></trkpt><trkpt lat="39.7185997" lon="21.6171641"><ele>287.0</ele><time>2026-04-28T08:06:46.062Z</time></trkpt><trkpt lat="39.7185743" lon="21.6170548"><ele>287.0</ele><time>2026-04-28T08:06:47.061Z</time></trkpt><trkpt lat="39.7185537" lon="21.6169371"><ele>287.0</ele><time>2026-04-28T08:06:48.062Z</time></trkpt><trkpt lat="39.7185394" lon="21.6168421"><ele>284.6666666666667</ele><time>2026-04-28T08:06:49.061Z</time></trkpt><trkpt lat="39.7185193" lon="21.6167526"><ele>282.33333333333337</ele><time>2026-04-28T08:06:50.062Z</time></trkpt><trkpt lat="39.7184921" lon="21.6166767"><ele>280.0</ele><time>2026-04-28T08:06:51.062Z</time></trkpt><trkpt lat="39.7183877" lon="21.6165926"><ele>277.6666666666667</ele><time>2026-04-28T08:06:53.062Z</time></trkpt><trkpt lat="39.7183199" lon="21.6165966"><ele>275.3333333333333</ele><time>2026-04-28T08:06:54.062Z</time></trkpt><trkpt lat="39.7182503" lon="21.6166197"><ele>273.0</ele><time>2026-04-28T08:06:55.062Z</time></trkpt><trkpt lat="39.7181809" lon="21.6166534"><ele>273.0</ele><time>2026-04-28T08:06:56.061Z</time></trkpt><trkpt lat="39.7181085" lon="21.6166924"><ele>273.0</ele><time>2026-04-28T08:06:57.062Z</time></trkpt><trkpt lat="39.7180404" lon="21.6167339"><ele>273.0</ele><time>2026-04-28T08:06:58.061Z</time></trkpt><trkpt lat="39.7179765" lon="21.6167822"><ele>273.0</ele><time>2026-04-28T08:06:59.061Z</time></trkpt><trkpt lat="39.7179052" lon="21.6168244"><ele>273.0</ele><time>2026-04-28T08:07:00.062Z</time></trkpt><trkpt lat="39.7178404" lon="21.6168636"><ele>273.0</ele><time>2026-04-28T08:07:01.061Z</time></trkpt><trkpt lat="39.7177771" lon="21.6169026"><ele>273.0</ele><time>2026-04-28T08:07:02.061Z</time></trkpt><trkpt lat="39.7176727" lon="21.6169802"><ele>272.1666666666667</ele><time>2026-04-28T08:07:04.062Z</time></trkpt><trkpt lat="39.7175641" lon="21.6170523"><ele>271.3333333333333</ele><time>2026-04-28T08:07:06.061Z</time></trkpt><trkpt lat="39.717504" lon="21.6170934"><ele>270.5</ele><time>2026-04-28T08:07:07.062Z</time></trkpt><trkpt lat="39.7174448" lon="21.6171356"><ele>269.66666666666663</ele><time>2026-04-28T08:07:08.062Z</time></trkpt><trkpt lat="39.7173919" lon="21.6171933"><ele>268.8333333333333</ele><time>2026-04-28T08:07:09.062Z</time></trkpt><trkpt lat="39.7173406" lon="21.6172674"><ele>268.0</ele><time>2026-04-28T08:07:10.062Z</time></trkpt><trkpt lat="39.7172868" lon="21.6173448"><ele>268.0</ele><time>2026-04-28T08:07:11.061Z</time></trkpt><trkpt lat="39.7172265" lon="21.6174331"><ele>268.0</ele><time>2026-04-28T08:07:12.062Z</time></trkpt><trkpt lat="39.7171746" lon="21.6175274"><ele>268.0</ele><time>2026-04-28T08:07:13.061Z</time></trkpt><trkpt lat="39.7171204" lon="21.6176211"><ele>268.0</ele><time>2026-04-28T08:07:14.062Z</time></trkpt><trkpt lat="39.7170798" lon="21.617727"><ele>268.0</ele><time>2026-04-28T08:07:15.062Z</time></trkpt><trkpt lat="39.7170489" lon="21.6178353"><ele>268.0</ele><time>2026-04-28T08:07:16.062Z</time></trkpt><trkpt lat="39.717024" lon="21.6179474"><ele>268.0</ele><time>2026-04-28T08:07:17.061Z</time></trkpt><trkpt lat="39.7169969" lon="21.6180494"><ele>268.0</ele><time>2026-04-28T08:07:18.061Z</time></trkpt><trkpt lat="39.716965" lon="21.6181426"><ele>268.0</ele><time>2026-04-28T08:07:19.061Z</time></trkpt><trkpt lat="39.716929" lon="21.6182275"><ele>268.0</ele><time>2026-04-28T08:07:20.061Z</time></trkpt><trkpt lat="39.716891" lon="21.6183127"><ele>268.0</ele><time>2026-04-28T08:07:21.061Z</time></trkpt><trkpt lat="39.7168504" lon="21.6183891"><ele>267.66666666666663</ele><time>2026-04-28T08:07:22.061Z</time></trkpt><trkpt lat="39.716796" lon="21.6184456"><ele>267.3333333333333</ele><time>2026-04-28T08:07:23.062Z</time></trkpt><trkpt lat="39.7166852" lon="21.6184489"><ele>267.0</ele><time>2026-04-28T08:07:25.061Z</time></trkpt><trkpt lat="39.7166282" lon="21.6184125"><ele>266.6666666666667</ele><time>2026-04-28T08:07:26.062Z</time></trkpt><trkpt lat="39.7165736" lon="21.6183554"><ele>266.33333333333337</ele><time>2026-04-28T08:07:27.061Z</time></trkpt><trkpt lat="39.7164754" lon="21.6182449"><ele>266.0</ele><time>2026-04-28T08:07:29.062Z</time></trkpt><trkpt lat="39.7164183" lon="21.6181947"><ele>266.0</ele><time>2026-04-28T08:07:30.061Z</time></trkpt><trkpt lat="39.7163496" lon="21.6181605"><ele>266.0</ele><time>2026-04-28T08:07:31.062Z</time></trkpt><trkpt lat="39.7162791" lon="21.6181383"><ele>266.0</ele><time>2026-04-28T08:07:32.062Z</time></trkpt><trkpt lat="39.7162114" lon="21.6181271"><ele>266.0</ele><time>2026-04-28T08:07:33.061Z</time></trkpt><trkpt lat="39.7161462" lon="21.6181222"><ele>266.0</ele><time>2026-04-28T08:07:34.061Z</time></trkpt><trkpt lat="39.7160766" lon="21.6181268"><ele>266.0</ele><time>2026-04-28T08:07:35.061Z</time></trkpt><trkpt lat="39.7160059" lon="21.6181282"><ele>266.0</ele><time>2026-04-28T08:07:36.062Z</time></trkpt><trkpt lat="39.7159331" lon="21.6181285"><ele>266.1666666666667</ele><time>2026-04-28T08:07:37.062Z</time></trkpt><trkpt lat="39.7158671" lon="21.6181296"><ele>266.33333333333337</ele><time>2026-04-28T08:07:38.062Z</time></trkpt><trkpt lat="39.7158032" lon="21.6181264"><ele>266.5</ele><time>2026-04-28T08:07:39.061Z</time></trkpt><trkpt lat="39.7157404" lon="21.6181167"><ele>266.6666666666667</ele><time>2026-04-28T08:07:40.062Z</time></trkpt><trkpt lat="39.715674" lon="21.6180927"><ele>266.8333333333333</ele><time>2026-04-28T08:07:41.061Z</time></trkpt><trkpt lat="39.7156113" lon="21.6180604"><ele>267.0</ele><time>2026-04-28T08:07:42.062Z</time></trkpt><trkpt lat="39.7155031" lon="21.6179836"><ele>267.00000000000006</ele><time>2026-04-28T08:07:44.061Z</time></trkpt><trkpt lat="39.7154478" lon="21.6179322"><ele>267.0</ele><time>2026-04-28T08:07:45.061Z</time></trkpt><trkpt lat="39.7153912" lon="21.6178698"><ele>267.0</ele><time>2026-04-28T08:07:46.062Z</time></trkpt><trkpt lat="39.7153323" lon="21.617816"><ele>267.0</ele><time>2026-04-28T08:07:47.061Z</time></trkpt><trkpt lat="39.7152716" lon="21.6177624"><ele>267.0</ele><time>2026-04-28T08:07:48.061Z</time></trkpt><trkpt lat="39.7152167" lon="21.617706"><ele>267.00000000000006</ele><time>2026-04-28T08:07:49.062Z</time></trkpt><trkpt lat="39.715177" lon="21.6176333"><ele>267.0</ele><time>2026-04-28T08:07:50.061Z</time></trkpt><trkpt lat="39.715148" lon="21.6175572"><ele>265.3333333333333</ele><time>2026-04-28T08:07:51.061Z</time></trkpt><trkpt lat="39.7151217" lon="21.6174683"><ele>263.6666666666667</ele><time>2026-04-28T08:07:52.061Z</time></trkpt><trkpt lat="39.7151" lon="21.6173878"><ele>262.0</ele><time>2026-04-28T08:07:53.061Z</time></trkpt><trkpt lat="39.7150745" lon="21.617299"><ele>260.33333333333337</ele><time>2026-04-28T08:07:54.061Z</time></trkpt><trkpt lat="39.715047" lon="21.6172168"><ele>258.6666666666667</ele><time>2026-04-28T08:07:55.062Z</time></trkpt><trkpt lat="39.7150328" lon="21.6171292"><ele>257.0</ele><time>2026-04-28T08:07:56.062Z</time></trkpt><trkpt lat="39.7150368" lon="21.6169623"><ele>256.7142857142857</ele><time>2026-04-28T08:07:58.061Z</time></trkpt><trkpt lat="39.7150436" lon="21.6168746"><ele>256.42857142857144</ele><time>2026-04-28T08:07:59.061Z</time></trkpt><trkpt lat="39.7150257" lon="21.6167781"><ele>256.14285714285717</ele><time>2026-04-28T08:08:00.062Z</time></trkpt><trkpt lat="39.7149969" lon="21.6166917"><ele>255.85714285714286</ele><time>2026-04-28T08:08:01.061Z</time></trkpt><trkpt lat="39.7149465" lon="21.6166135"><ele>255.5714285714286</ele><time>2026-04-28T08:08:02.061Z</time></trkpt><trkpt lat="39.7148911" lon="21.616554"><ele>255.2857142857143</ele><time>2026-04-28T08:08:03.061Z</time></trkpt><trkpt lat="39.7148265" lon="21.6165012"><ele>255.0</ele><time>2026-04-28T08:08:04.061Z</time></trkpt><trkpt lat="39.7147564" lon="21.6164609"><ele>255.0</ele><time>2026-04-28T08:08:05.062Z</time></trkpt><trkpt lat="39.7146815" lon="21.6164017"><ele>255.0</ele><time>2026-04-28T08:08:06.062Z</time></trkpt><trkpt lat="39.7146027" lon="21.6163498"><ele>255.0</ele><time>2026-04-28T08:08:07.061Z</time></trkpt><trkpt lat="39.7145179" lon="21.6162954"><ele>255.0</ele><time>2026-04-28T08:08:08.062Z</time></trkpt><trkpt lat="39.7144288" lon="21.6162419"><ele>255.0</ele><time>2026-04-28T08:08:09.062Z</time></trkpt><trkpt lat="39.7143429" lon="21.6161963"><ele>255.83333333333334</ele><time>2026-04-28T08:08:10.061Z</time></trkpt><trkpt lat="39.7142571" lon="21.6161547"><ele>256.6666666666667</ele><time>2026-04-28T08:08:11.062Z</time></trkpt><trkpt lat="39.7141754" lon="21.616118"><ele>257.5</ele><time>2026-04-28T08:08:12.062Z</time></trkpt><trkpt lat="39.7140939" lon="21.6160901"><ele>258.33333333333337</ele><time>2026-04-28T08:08:13.061Z</time></trkpt><trkpt lat="39.7140119" lon="21.6160502"><ele>259.1666666666667</ele><time>2026-04-28T08:08:14.061Z</time></trkpt><trkpt lat="39.7139202" lon="21.6160234"><ele>260.0</ele><time>2026-04-28T08:08:15.061Z</time></trkpt><trkpt lat="39.7138238" lon="21.6160029"><ele>259.0</ele><time>2026-04-28T08:08:16.061Z</time></trkpt><trkpt lat="39.7137248" lon="21.615985"><ele>258.0</ele><time>2026-04-28T08:08:17.061Z</time></trkpt><trkpt lat="39.713631" lon="21.6159705"><ele>257.0</ele><time>2026-04-28T08:08:18.061Z</time></trkpt><trkpt lat="39.7135312" lon="21.6159665"><ele>256.0</ele><time>2026-04-28T08:08:19.061Z</time></trkpt><trkpt lat="39.7134385" lon="21.6159599"><ele>255.0</ele><time>2026-04-28T08:08:20.061Z</time></trkpt><trkpt lat="39.7133431" lon="21.6159544"><ele>255.0</ele><time>2026-04-28T08:08:21.062Z</time></trkpt><trkpt lat="39.7132486" lon="21.6159464"><ele>255.0</ele><time>2026-04-28T08:08:22.061Z</time></trkpt><trkpt lat="39.7131358" lon="21.6159452"><ele>255.0</ele><time>2026-04-28T08:08:23.061Z</time></trkpt><trkpt lat="39.7130325" lon="21.6159353"><ele>255.0</ele><time>2026-04-28T08:08:24.062Z</time></trkpt><trkpt lat="39.7129328" lon="21.6159171"><ele>255.0</ele><time>2026-04-28T08:08:25.061Z</time></trkpt><trkpt lat="39.712832" lon="21.6158918"><ele>255.4</ele><time>2026-04-28T08:08:26.061Z</time></trkpt><trkpt lat="39.7127317" lon="21.6158587"><ele>255.8</ele><time>2026-04-28T08:08:27.061Z</time></trkpt><trkpt lat="39.7126333" lon="21.6158405"><ele>256.2</ele><time>2026-04-28T08:08:28.061Z</time></trkpt><trkpt lat="39.7125389" lon="21.6158324"><ele>256.6</ele><time>2026-04-28T08:08:29.062Z</time></trkpt><trkpt lat="39.7124453" lon="21.615833"><ele>257.0</ele><time>2026-04-28T08:08:30.062Z</time></trkpt><trkpt lat="39.7123525" lon="21.6158438"><ele>257.0</ele><time>2026-04-28T08:08:31.061Z</time></trkpt><trkpt lat="39.7122483" lon="21.6158694"><ele>257.0</ele><time>2026-04-28T08:08:32.061Z</time></trkpt><trkpt lat="39.7121515" lon="21.6158847"><ele>257.0</ele><time>2026-04-28T08:08:33.062Z</time></trkpt><trkpt lat="39.7120515" lon="21.6158953"><ele>257.0</ele><time>2026-04-28T08:08:34.062Z</time></trkpt><trkpt lat="39.7119547" lon="21.6159117"><ele>257.0</ele><time>2026-04-28T08:08:35.062Z</time></trkpt><trkpt lat="39.7118581" lon="21.615914"><ele>258.6</ele><time>2026-04-28T08:08:36.062Z</time></trkpt><trkpt lat="39.7117569" lon="21.6159127"><ele>260.2</ele><time>2026-04-28T08:08:37.062Z</time></trkpt><trkpt lat="39.7116547" lon="21.6158998"><ele>261.8</ele><time>2026-04-28T08:08:38.062Z</time></trkpt><trkpt lat="39.7115498" lon="21.6158876"><ele>263.4</ele><time>2026-04-28T08:08:39.061Z</time></trkpt><trkpt lat="39.7114465" lon="21.6158762"><ele>265.0</ele><time>2026-04-28T08:08:40.061Z</time></trkpt><trkpt lat="39.711343" lon="21.6158716"><ele>265.0</ele><time>2026-04-28T08:08:41.061Z</time></trkpt><trkpt lat="39.7112394" lon="21.6158736"><ele>265.0</ele><time>2026-04-28T08:08:42.062Z</time></trkpt><trkpt lat="39.7111353" lon="21.6158785"><ele>265.0</ele><time>2026-04-28T08:08:43.061Z</time></trkpt><trkpt lat="39.7110281" lon="21.6158984"><ele>265.0</ele><time>2026-04-28T08:08:44.061Z</time></trkpt><trkpt lat="39.7109189" lon="21.6159293"><ele>265.0</ele><time>2026-04-28T08:08:45.062Z</time></trkpt><trkpt lat="39.7108144" lon="21.6159717"><ele>265.2</ele><time>2026-04-28T08:08:46.062Z</time></trkpt><trkpt lat="39.7107112" lon="21.6160195"><ele>265.4</ele><time>2026-04-28T08:08:47.061Z</time></trkpt><trkpt lat="39.7106048" lon="21.6160618"><ele>265.6</ele><time>2026-04-28T08:08:48.062Z</time></trkpt><trkpt lat="39.7105083" lon="21.6161123"><ele>265.8</ele><time>2026-04-28T08:08:49.062Z</time></trkpt><trkpt lat="39.7104125" lon="21.616155"><ele>266.0</ele><time>2026-04-28T08:08:50.061Z</time></trkpt><trkpt lat="39.7103214" lon="21.6161871"><ele>269.0</ele><time>2026-04-28T08:08:51.061Z</time></trkpt><trkpt lat="39.7102309" lon="21.6162159"><ele>272.0</ele><time>2026-04-28T08:08:52.062Z</time></trkpt><trkpt lat="39.7101473" lon="21.6162612"><ele>275.0</ele><time>2026-04-28T08:08:53.062Z</time></trkpt><trkpt lat="39.710065" lon="21.6163144"><ele>278.0</ele><time>2026-04-28T08:08:54.062Z</time></trkpt><trkpt lat="39.7099872" lon="21.6163686"><ele>281.0</ele><time>2026-04-28T08:08:55.062Z</time></trkpt><trkpt lat="39.7099063" lon="21.6164356"><ele>281.0</ele><time>2026-04-28T08:08:56.062Z</time></trkpt><trkpt lat="39.709831" lon="21.6165113"><ele>281.0</ele><time>2026-04-28T08:08:57.062Z</time></trkpt><trkpt lat="39.7097575" lon="21.6165944"><ele>281.0</ele><time>2026-04-28T08:08:58.061Z</time></trkpt><trkpt lat="39.7097006" lon="21.6166897"><ele>281.0</ele><time>2026-04-28T08:08:59.061Z</time></trkpt><trkpt lat="39.7096579" lon="21.6167985"><ele>281.0</ele><time>2026-04-28T08:09:00.062Z</time></trkpt><trkpt lat="39.7096125" lon="21.6169082"><ele>282.6</ele><time>2026-04-28T08:09:01.062Z</time></trkpt><trkpt lat="39.7095694" lon="21.6170222"><ele>284.20000000000005</ele><time>2026-04-28T08:09:02.062Z</time></trkpt><trkpt lat="39.7095293" lon="21.6171232"><ele>285.79999999999995</ele><time>2026-04-28T08:09:03.062Z</time></trkpt><trkpt lat="39.7094927" lon="21.6172274"><ele>287.4</ele><time>2026-04-28T08:09:04.062Z</time></trkpt><trkpt lat="39.7094476" lon="21.6173289"><ele>289.0</ele><time>2026-04-28T08:09:05.061Z</time></trkpt><trkpt lat="39.7093986" lon="21.6174284"><ele>286.3333333333333</ele><time>2026-04-28T08:09:06.062Z</time></trkpt><trkpt lat="39.7093336" lon="21.6175022"><ele>283.66666666666663</ele><time>2026-04-28T08:09:07.062Z</time></trkpt><trkpt lat="39.7092586" lon="21.6175605"><ele>281.0</ele><time>2026-04-28T08:09:08.061Z</time></trkpt><trkpt lat="39.7091829" lon="21.6176169"><ele>278.3333333333333</ele><time>2026-04-28T08:09:09.062Z</time></trkpt><trkpt lat="39.709112" lon="21.6176802"><ele>275.6666666666667</ele><time>2026-04-28T08:09:10.062Z</time></trkpt><trkpt lat="39.7090526" lon="21.6177543"><ele>273.0</ele><time>2026-04-28T08:09:11.062Z</time></trkpt><trkpt lat="39.7090066" lon="21.6178379"><ele>272.3333333333333</ele><time>2026-04-28T08:09:12.062Z</time></trkpt><trkpt lat="39.7089671" lon="21.6179351"><ele>271.6666666666667</ele><time>2026-04-28T08:09:13.061Z</time></trkpt><trkpt lat="39.7089271" lon="21.6180188"><ele>271.0</ele><time>2026-04-28T08:09:14.062Z</time></trkpt><trkpt lat="39.7088741" lon="21.6180952"><ele>270.33333333333337</ele><time>2026-04-28T08:09:15.062Z</time></trkpt><trkpt lat="39.7088163" lon="21.6181364"><ele>269.6666666666667</ele><time>2026-04-28T08:09:16.062Z</time></trkpt><trkpt lat="39.7086928" lon="21.6180927"><ele>269.0</ele><time>2026-04-28T08:09:18.062Z</time></trkpt><trkpt lat="39.7086234" lon="21.6180275"><ele>267.6666666666667</ele><time>2026-04-28T08:09:19.062Z</time></trkpt><trkpt lat="39.7085525" lon="21.6179788"><ele>266.33333333333337</ele><time>2026-04-28T08:09:20.062Z</time></trkpt><trkpt lat="39.7084768" lon="21.6179292"><ele>265.0</ele><time>2026-04-28T08:09:21.062Z</time></trkpt><trkpt lat="39.7083934" lon="21.6178891"><ele>263.6666666666667</ele><time>2026-04-28T08:09:22.062Z</time></trkpt><trkpt lat="39.7083157" lon="21.617867"><ele>262.3333333333333</ele><time>2026-04-28T08:09:23.062Z</time></trkpt><trkpt lat="39.7082444" lon="21.6178501"><ele>261.0</ele><time>2026-04-28T08:09:24.062Z</time></trkpt><trkpt lat="39.7081788" lon="21.6178392"><ele>261.0</ele><time>2026-04-28T08:09:25.061Z</time></trkpt><trkpt lat="39.7081129" lon="21.6178231"><ele>261.0</ele><time>2026-04-28T08:09:26.061Z</time></trkpt><trkpt lat="39.7080491" lon="21.6178015"><ele>261.0</ele><time>2026-04-28T08:09:27.062Z</time></trkpt><trkpt lat="39.7079242" lon="21.6177956"><ele>261.0</ele><time>2026-04-28T08:09:29.062Z</time></trkpt><trkpt lat="39.7078257" lon="21.617859"><ele>261.0</ele><time>2026-04-28T08:09:31.062Z</time></trkpt><trkpt lat="39.7077871" lon="21.6179847"><ele>261.0</ele><time>2026-04-28T08:09:33.061Z</time></trkpt><trkpt lat="39.7077971" lon="21.6180685"><ele>261.0</ele><time>2026-04-28T08:09:34.061Z</time></trkpt><trkpt lat="39.7078208" lon="21.6181472"><ele>261.0</ele><time>2026-04-28T08:09:35.062Z</time></trkpt><trkpt lat="39.7078471" lon="21.6182329"><ele>261.0</ele><time>2026-04-28T08:09:36.062Z</time></trkpt><trkpt lat="39.7078778" lon="21.6183319"><ele>261.0</ele><time>2026-04-28T08:09:37.062Z</time></trkpt><trkpt lat="39.7079106" lon="21.6184242"><ele>261.0</ele><time>2026-04-28T08:09:38.062Z</time></trkpt><trkpt lat="39.7079427" lon="21.6185298"><ele>261.0</ele><time>2026-04-28T08:09:39.062Z</time></trkpt><trkpt lat="39.7079763" lon="21.6186275"><ele>260.1666666666667</ele><time>2026-04-28T08:09:40.062Z</time></trkpt><trkpt lat="39.7080161" lon="21.6187226"><ele>259.3333333333333</ele><time>2026-04-28T08:09:41.061Z</time></trkpt><trkpt lat="39.7080488" lon="21.6188152"><ele>258.5</ele><time>2026-04-28T08:09:42.061Z</time></trkpt><trkpt lat="39.708082" lon="21.6189068"><ele>257.66666666666663</ele><time>2026-04-28T08:09:43.062Z</time></trkpt><trkpt lat="39.7081106" lon="21.6189978"><ele>256.8333333333333</ele><time>2026-04-28T08:09:44.062Z</time></trkpt><trkpt lat="39.708116" lon="21.6191146"><ele>256.0</ele><time>2026-04-28T08:09:45.061Z</time></trkpt><trkpt lat="39.7081218" lon="21.6192105"><ele>255.99999999999997</ele><time>2026-04-28T08:09:46.062Z</time></trkpt><trkpt lat="39.7081156" lon="21.6193139"><ele>256.0</ele><time>2026-04-28T08:09:47.062Z</time></trkpt><trkpt lat="39.7081017" lon="21.6194165"><ele>256.0</ele><time>2026-04-28T08:09:48.061Z</time></trkpt><trkpt lat="39.7080757" lon="21.6195129"><ele>256.0</ele><time>2026-04-28T08:09:49.062Z</time></trkpt><trkpt lat="39.7080421" lon="21.6196006"><ele>255.99999999999997</ele><time>2026-04-28T08:09:50.061Z</time></trkpt><trkpt lat="39.7080012" lon="21.6196893"><ele>256.0</ele><time>2026-04-28T08:09:51.062Z</time></trkpt><trkpt lat="39.7079586" lon="21.6197708"><ele>255.49999999999997</ele><time>2026-04-28T08:09:52.062Z</time></trkpt><trkpt lat="39.7079175" lon="21.6198559"><ele>255.0</ele><time>2026-04-28T08:09:53.061Z</time></trkpt><trkpt lat="39.7078741" lon="21.6199453"><ele>254.5</ele><time>2026-04-28T08:09:54.061Z</time></trkpt><trkpt lat="39.7078326" lon="21.6200357"><ele>254.0</ele><time>2026-04-28T08:09:55.061Z</time></trkpt><trkpt lat="39.7077937" lon="21.6201369"><ele>253.49999999999997</ele><time>2026-04-28T08:09:56.062Z</time></trkpt><trkpt lat="39.7077525" lon="21.6202269"><ele>253.0</ele><time>2026-04-28T08:09:57.062Z</time></trkpt><trkpt lat="39.7077104" lon="21.6203233"><ele>251.49999999999997</ele><time>2026-04-28T08:09:58.062Z</time></trkpt><trkpt lat="39.7076695" lon="21.6204212"><ele>250.0</ele><time>2026-04-28T08:09:59.061Z</time></trkpt><trkpt lat="39.7076371" lon="21.6205198"><ele>248.5</ele><time>2026-04-28T08:10:00.062Z</time></trkpt><trkpt lat="39.7076083" lon="21.6206218"><ele>247.0</ele><time>2026-04-28T08:10:01.062Z</time></trkpt><trkpt lat="39.7075891" lon="21.6207223"><ele>245.49999999999997</ele><time>2026-04-28T08:10:02.062Z</time></trkpt><trkpt lat="39.7075786" lon="21.6208238"><ele>244.0</ele><time>2026-04-28T08:10:03.062Z</time></trkpt><trkpt lat="39.7075674" lon="21.6209243"><ele>243.99999999999997</ele><time>2026-04-28T08:10:04.061Z</time></trkpt><trkpt lat="39.7075528" lon="21.6210221"><ele>244.0</ele><time>2026-04-28T08:10:05.061Z</time></trkpt><trkpt lat="39.7075397" lon="21.6211199"><ele>243.99999999999997</ele><time>2026-04-28T08:10:06.061Z</time></trkpt><trkpt lat="39.7075262" lon="21.6212102"><ele>243.99999999999997</ele><time>2026-04-28T08:10:07.062Z</time></trkpt><trkpt lat="39.7075212" lon="21.6212981"><ele>244.0</ele><time>2026-04-28T08:10:08.062Z</time></trkpt><trkpt lat="39.7075097" lon="21.6213891"><ele>243.99999999999997</ele><time>2026-04-28T08:10:09.062Z</time></trkpt><trkpt lat="39.707499" lon="21.6214808"><ele>243.99999999999997</ele><time>2026-04-28T08:10:10.061Z</time></trkpt><trkpt lat="39.7074846" lon="21.621576"><ele>243.71428571428567</ele><time>2026-04-28T08:10:11.062Z</time></trkpt><trkpt lat="39.7074672" lon="21.6216661"><ele>243.42857142857142</ele><time>2026-04-28T08:10:12.061Z</time></trkpt><trkpt lat="39.707454" lon="21.6217537"><ele>243.1428571428571</ele><time>2026-04-28T08:10:13.062Z</time></trkpt><trkpt lat="39.7074389" lon="21.6218387"><ele>242.85714285714283</ele><time>2026-04-28T08:10:14.061Z</time></trkpt><trkpt lat="39.7074252" lon="21.6219247"><ele>242.57142857142856</ele><time>2026-04-28T08:10:15.061Z</time></trkpt><trkpt lat="39.707405" lon="21.622009"><ele>242.28571428571428</ele><time>2026-04-28T08:10:16.062Z</time></trkpt><trkpt lat="39.7073924" lon="21.6220938"><ele>242.0</ele><time>2026-04-28T08:10:17.061Z</time></trkpt><trkpt lat="39.7073765" lon="21.6221773"><ele>242.0</ele><time>2026-04-28T08:10:18.062Z</time></trkpt><trkpt lat="39.7073105" lon="21.6223214"><ele>242.0</ele><time>2026-04-28T08:10:20.062Z</time></trkpt><trkpt lat="39.7072705" lon="21.6223909"><ele>242.0</ele><time>2026-04-28T08:10:21.061Z</time></trkpt><trkpt lat="39.7071909" lon="21.6225172"><ele>242.0</ele><time>2026-04-28T08:10:23.062Z</time></trkpt><trkpt lat="39.7071263" lon="21.6226274"><ele>242.0</ele><time>2026-04-28T08:10:25.061Z</time></trkpt><trkpt lat="39.7070723" lon="21.6227003"><ele>242.00000000000003</ele><time>2026-04-28T08:10:27.062Z</time></trkpt><trkpt lat="39.7070054" lon="21.6227757"><ele>242.0</ele><time>2026-04-28T08:10:29.062Z</time></trkpt><trkpt lat="39.7069269" lon="21.6228534"><ele>242.0</ele><time>2026-04-28T08:10:31.062Z</time></trkpt><trkpt lat="39.7068727" lon="21.6229036"><ele>242.0</ele><time>2026-04-28T08:10:33.061Z</time></trkpt><trkpt lat="39.7068203" lon="21.622981"><ele>242.00000000000003</ele><time>2026-04-28T08:10:36.062Z</time></trkpt><trkpt lat="39.7068354" lon="21.6231022"><ele>242.0</ele><time>2026-04-28T08:10:39.062Z</time></trkpt><trkpt lat="39.7068524" lon="21.6231979"><ele>240.83333333333334</ele><time>2026-04-28T08:10:41.061Z</time></trkpt><trkpt lat="39.7068279" lon="21.6233032"><ele>239.66666666666669</ele><time>2026-04-28T08:10:44.061Z</time></trkpt><trkpt lat="39.7067929" lon="21.6233779"><ele>238.5</ele><time>2026-04-28T08:10:47.062Z</time></trkpt><trkpt lat="39.7067837" lon="21.6234814"><ele>237.33333333333331</ele><time>2026-04-28T08:11:05.062Z</time></trkpt><trkpt lat="39.7067336" lon="21.6235663"><ele>236.16666666666666</ele><time>2026-04-28T08:11:07.061Z</time></trkpt><trkpt lat="39.7066764" lon="21.6236757"><ele>235.0</ele><time>2026-04-28T08:11:09.061Z</time></trkpt><trkpt lat="39.7066336" lon="21.6237647"><ele>235.0</ele><time>2026-04-28T08:11:11.062Z</time></trkpt><trkpt lat="39.7065865" lon="21.6238267"><ele>235.0</ele><time>2026-04-28T08:11:13.062Z</time></trkpt><trkpt lat="39.7065227" lon="21.6239431"><ele>235.0</ele><time>2026-04-28T08:11:24.062Z</time></trkpt><trkpt lat="39.706463" lon="21.6240664"><ele>235.0</ele><time>2026-04-28T08:11:26.062Z</time></trkpt><trkpt lat="39.7063992" lon="21.6241944"><ele>235.0</ele><time>2026-04-28T08:11:28.062Z</time></trkpt><trkpt lat="39.7063341" lon="21.62432"><ele>235.0</ele><time>2026-04-28T08:11:30.061Z</time></trkpt><trkpt lat="39.7062707" lon="21.6244296"><ele>235.0</ele><time>2026-04-28T08:11:32.061Z</time></trkpt><trkpt lat="39.7062126" lon="21.6245381"><ele>235.0</ele><time>2026-04-28T08:11:34.061Z</time></trkpt><trkpt lat="39.706156" lon="21.6246351"><ele>235.0</ele><time>2026-04-28T08:11:36.061Z</time></trkpt><trkpt lat="39.7061089" lon="21.6247263"><ele>235.0</ele><time>2026-04-28T08:11:38.062Z</time></trkpt><trkpt lat="39.7060556" lon="21.6248238"><ele>234.66666666666666</ele><time>2026-04-28T08:11:40.062Z</time></trkpt><trkpt lat="39.7060145" lon="21.6249204"><ele>234.33333333333331</ele><time>2026-04-28T08:11:42.062Z</time></trkpt><trkpt lat="39.7059741" lon="21.6250067"><ele>234.0</ele><time>2026-04-28T08:11:44.062Z</time></trkpt><trkpt lat="39.7059276" lon="21.6250957"><ele>233.66666666666669</ele><time>2026-04-28T08:11:46.062Z</time></trkpt><trkpt lat="39.705867" lon="21.6251857"><ele>233.33333333333334</ele><time>2026-04-28T08:11:48.062Z</time></trkpt><trkpt lat="39.7058086" lon="21.6252812"><ele>233.0</ele><time>2026-04-28T08:11:50.061Z</time></trkpt><trkpt lat="39.7057453" lon="21.6253764"><ele>233.00000000000003</ele><time>2026-04-28T08:11:52.061Z</time></trkpt><trkpt lat="39.7056842" lon="21.6254696"><ele>233.0</ele><time>2026-04-28T08:11:54.061Z</time></trkpt><trkpt lat="39.7056366" lon="21.6255619"><ele>233.0</ele><time>2026-04-28T08:11:56.062Z</time></trkpt><trkpt lat="39.7056003" lon="21.625631"><ele>233.0</ele><time>2026-04-28T08:11:58.062Z</time></trkpt><trkpt lat="39.7055425" lon="21.6256886"><ele>233.00000000000003</ele><time>2026-04-28T08:12:02.061Z</time></trkpt><trkpt lat="39.7055284" lon="21.6256028"><ele>233.0</ele><time>2026-04-28T08:13:08.061Z</time></trkpt><trkpt lat="39.705487" lon="21.6256723"><ele>233.0</ele><time>2026-04-28T08:27:10.06Z</time></trkpt><trkpt lat="39.705503" lon="21.6257717"><ele>233.0</ele><time>2026-04-28T08:28:26.061Z</time></trkpt><trkpt lat="39.7054554" lon="21.6258822"><ele>233.0</ele><time>2026-04-28T08:28:29.06Z</time></trkpt><trkpt lat="39.7054204" lon="21.6260131"><ele>233.0</ele><time>2026-04-28T08:28:31.061Z</time></trkpt><trkpt lat="39.7053721" lon="21.626153"><ele>233.0</ele><time>2026-04-28T08:28:33.06Z</time></trkpt><trkpt lat="39.7053336" lon="21.6262785"><ele>232.50000000000003</ele><time>2026-04-28T08:28:35.06Z</time></trkpt><trkpt lat="39.7052654" lon="21.6264227"><ele>232.0</ele><time>2026-04-28T08:28:37.061Z</time></trkpt><trkpt lat="39.7052298" lon="21.6264992"><ele>231.5</ele><time>2026-04-28T08:28:38.061Z</time></trkpt><trkpt lat="39.7051997" lon="21.6265731"><ele>231.0</ele><time>2026-04-28T08:28:39.06Z</time></trkpt><trkpt lat="39.7051696" lon="21.626645"><ele>230.50000000000003</ele><time>2026-04-28T08:28:40.061Z</time></trkpt><trkpt lat="39.705131" lon="21.626719"><ele>230.0</ele><time>2026-04-28T08:28:41.061Z</time></trkpt><trkpt lat="39.7050946" lon="21.6267914"><ele>229.50000000000003</ele><time>2026-04-28T08:28:42.061Z</time></trkpt><trkpt lat="39.7050562" lon="21.6268682"><ele>229.0</ele><time>2026-04-28T08:28:43.061Z</time></trkpt><trkpt lat="39.7050159" lon="21.6269423"><ele>228.5</ele><time>2026-04-28T08:28:44.061Z</time></trkpt><trkpt lat="39.7049808" lon="21.6270198"><ele>228.0</ele><time>2026-04-28T08:28:45.061Z</time></trkpt><trkpt lat="39.7049446" lon="21.6270923"><ele>227.50000000000003</ele><time>2026-04-28T08:28:46.061Z</time></trkpt><trkpt lat="39.7049091" lon="21.6271627"><ele>227.0</ele><time>2026-04-28T08:28:47.061Z</time></trkpt><trkpt lat="39.7048476" lon="21.627289"><ele>227.00000000000003</ele><time>2026-04-28T08:28:49.06Z</time></trkpt><trkpt lat="39.7048074" lon="21.6273962"><ele>227.0</ele><time>2026-04-28T08:28:51.061Z</time></trkpt><trkpt lat="39.7048204" lon="21.6275035"><ele>227.0</ele><time>2026-04-28T08:28:53.061Z</time></trkpt><trkpt lat="39.704837" lon="21.6275826"><ele>227.0</ele><time>2026-04-28T08:28:55.061Z</time></trkpt><trkpt lat="39.7048029" lon="21.6276587"><ele>227.00000000000003</ele><time>2026-04-28T08:29:54.061Z</time></trkpt><trkpt lat="39.7047377" lon="21.627673"><ele>227.0</ele><time>2026-04-28T08:32:57.065Z</time></trkpt><trkpt lat="39.7046527" lon="21.627703"><ele>226.75</ele><time>2026-04-28T08:36:57.065Z</time></trkpt><trkpt lat="39.7045413" lon="21.6278925"><ele>226.5</ele><time>2026-04-28T08:36:59.634Z</time></trkpt><trkpt lat="39.7044822" lon="21.6280196"><ele>226.25</ele><time>2026-04-28T08:37:01.054Z</time></trkpt><trkpt lat="39.70444" lon="21.6281296"><ele>226.0</ele><time>2026-04-28T08:37:02.054Z</time></trkpt><trkpt lat="39.7043904" lon="21.6282297"><ele>226.0</ele><time>2026-04-28T08:37:03.053Z</time></trkpt><trkpt lat="39.7043495" lon="21.6283338"><ele>226.00000000000003</ele><time>2026-04-28T08:37:04.053Z</time></trkpt><trkpt lat="39.7042994" lon="21.6284408"><ele>226.00000000000003</ele><time>2026-04-28T08:37:05.054Z</time></trkpt><trkpt lat="39.7042545" lon="21.6285525"><ele>226.0</ele><time>2026-04-28T08:37:06.054Z</time></trkpt><trkpt lat="39.7042052" lon="21.6286652"><ele>226.0</ele><time>2026-04-28T08:37:07.054Z</time></trkpt><trkpt lat="39.7041548" lon="21.6287742"><ele>225.83333333333331</ele><time>2026-04-28T08:37:08.054Z</time></trkpt><trkpt lat="39.7041068" lon="21.6288818"><ele>225.66666666666666</ele><time>2026-04-28T08:37:09.053Z</time></trkpt><trkpt lat="39.7040531" lon="21.6289856"><ele>225.5</ele><time>2026-04-28T08:37:10.054Z</time></trkpt><trkpt lat="39.7040055" lon="21.6290867"><ele>225.33333333333331</ele><time>2026-04-28T08:37:11.054Z</time></trkpt><trkpt lat="39.7039581" lon="21.6291854"><ele>225.16666666666666</ele><time>2026-04-28T08:37:12.053Z</time></trkpt><trkpt lat="39.7039165" lon="21.6292683"><ele>225.0</ele><time>2026-04-28T08:37:13.054Z</time></trkpt><trkpt lat="39.7038773" lon="21.6293508"><ele>225.0</ele><time>2026-04-28T08:37:14.053Z</time></trkpt><trkpt lat="39.7038388" lon="21.6294337"><ele>225.0</ele><time>2026-04-28T08:37:15.054Z</time></trkpt><trkpt lat="39.7038076" lon="21.6295089"><ele>225.0</ele><time>2026-04-28T08:37:16.054Z</time></trkpt><trkpt lat="39.7037462" lon="21.6296335"><ele>225.0</ele><time>2026-04-28T08:37:18.053Z</time></trkpt><trkpt lat="39.7036935" lon="21.6297381"><ele>225.0</ele><time>2026-04-28T08:37:20.054Z</time></trkpt><trkpt lat="39.7036374" lon="21.629848"><ele>225.16666666666666</ele><time>2026-04-28T08:37:22.054Z</time></trkpt><trkpt lat="39.7036062" lon="21.629923"><ele>225.33333333333331</ele><time>2026-04-28T08:37:23.054Z</time></trkpt><trkpt lat="39.7035675" lon="21.630013"><ele>225.5</ele><time>2026-04-28T08:37:24.054Z</time></trkpt><trkpt lat="39.7035139" lon="21.6301152"><ele>225.66666666666666</ele><time>2026-04-28T08:37:25.053Z</time></trkpt><trkpt lat="39.7034634" lon="21.6302185"><ele>225.83333333333331</ele><time>2026-04-28T08:37:26.053Z</time></trkpt><trkpt lat="39.703412" lon="21.6303235"><ele>226.0</ele><time>2026-04-28T08:37:27.054Z</time></trkpt><trkpt lat="39.7033543" lon="21.6304146"><ele>225.99999999999997</ele><time>2026-04-28T08:37:28.053Z</time></trkpt><trkpt lat="39.7033036" lon="21.6305005"><ele>226.0</ele><time>2026-04-28T08:37:29.053Z</time></trkpt><trkpt lat="39.7032625" lon="21.6306008"><ele>226.0</ele><time>2026-04-28T08:37:30.053Z</time></trkpt><trkpt lat="39.7032208" lon="21.6306912"><ele>226.0</ele><time>2026-04-28T08:37:31.053Z</time></trkpt><trkpt lat="39.7031822" lon="21.6307832"><ele>225.99999999999997</ele><time>2026-04-28T08:37:32.053Z</time></trkpt><trkpt lat="39.7031384" lon="21.6308697"><ele>226.0</ele><time>2026-04-28T08:37:33.054Z</time></trkpt><trkpt lat="39.7030909" lon="21.6309585"><ele>225.99999999999997</ele><time>2026-04-28T08:37:34.054Z</time></trkpt><trkpt lat="39.7030458" lon="21.6310523"><ele>226.0</ele><time>2026-04-28T08:37:35.054Z</time></trkpt><trkpt lat="39.7029971" lon="21.6311486"><ele>226.0</ele><time>2026-04-28T08:37:36.054Z</time></trkpt><trkpt lat="39.7029565" lon="21.631249"><ele>226.0</ele><time>2026-04-28T08:37:37.054Z</time></trkpt><trkpt lat="39.702909" lon="21.6313468"><ele>225.99999999999997</ele><time>2026-04-28T08:37:38.054Z</time></trkpt><trkpt lat="39.7028621" lon="21.6314472"><ele>226.0</ele><time>2026-04-28T08:37:39.053Z</time></trkpt><trkpt lat="39.7028121" lon="21.6315478"><ele>225.83333333333331</ele><time>2026-04-28T08:37:40.054Z</time></trkpt><trkpt lat="39.7027657" lon="21.6316434"><ele>225.66666666666666</ele><time>2026-04-28T08:37:41.053Z</time></trkpt><trkpt lat="39.7027248" lon="21.6317276"><ele>225.5</ele><time>2026-04-28T08:37:42.054Z</time></trkpt><trkpt lat="39.7026865" lon="21.631805"><ele>225.33333333333331</ele><time>2026-04-28T08:37:43.054Z</time></trkpt><trkpt lat="39.7026467" lon="21.6318764"><ele>225.16666666666666</ele><time>2026-04-28T08:37:44.054Z</time></trkpt><trkpt lat="39.702577" lon="21.6320037"><ele>225.0</ele><time>2026-04-28T08:37:46.054Z</time></trkpt><trkpt lat="39.7025072" lon="21.6321186"><ele>223.8</ele><time>2026-04-28T08:37:48.054Z</time></trkpt><trkpt lat="39.7024334" lon="21.6321446"><ele>222.6</ele><time>2026-04-28T08:37:50.054Z</time></trkpt><trkpt lat="39.7023221" lon="21.6320826"><ele>221.39999999999998</ele><time>2026-04-28T08:37:52.053Z</time></trkpt><trkpt lat="39.7022173" lon="21.6319985"><ele>220.2</ele><time>2026-04-28T08:37:54.053Z</time></trkpt><trkpt lat="39.7021332" lon="21.6319387"><ele>219.0</ele><time>2026-04-28T08:37:56.054Z</time></trkpt><trkpt lat="39.7020676" lon="21.6318964"><ele>219.0</ele><time>2026-04-28T08:37:58.053Z</time></trkpt><trkpt lat="39.7020908" lon="21.6317909"><ele>219.0</ele><time>2026-04-28T08:38:02.054Z</time></trkpt><trkpt lat="39.702143" lon="21.6317322"><ele>219.0</ele><time>2026-04-28T08:38:04.053Z</time></trkpt><trkpt lat="39.7021943" lon="21.6316634"><ele>219.0</ele><time>2026-04-28T08:38:07.054Z</time></trkpt><trkpt lat="39.7021491" lon="21.6315932"><ele>219.0</ele><time>2026-04-28T08:38:50.053Z</time></trkpt><trkpt lat="39.7021057" lon="21.6315329"><ele>219.0</ele><time>2026-04-28T08:38:56.96Z</time></trkpt><trkpt lat="39.7021364" lon="21.6314455"><ele>219.0</ele><time>2026-04-28T08:39:02.053Z</time></trkpt><trkpt lat="39.702207" lon="21.6314366"><ele>219.0</ele><time>2026-04-28T08:39:12.054Z</time></trkpt><trkpt lat="39.7022659" lon="21.631467"><ele>219.0</ele><time>2026-04-28T08:39:21.054Z</time></trkpt><trkpt lat="39.7023084" lon="21.631399"><ele>219.0</ele><time>2026-04-28T08:39:51.054Z</time></trkpt><trkpt lat="39.7022858" lon="21.6314791"><ele>219.0</ele><time>2026-04-28T08:39:58.054Z</time></trkpt><trkpt lat="39.7022253" lon="21.6315116"><ele>219.0</ele><time>2026-04-28T08:42:27.053Z</time></trkpt><trkpt lat="39.7021561" lon="21.6314839"><ele>219.0</ele><time>2026-04-28T08:44:40.441Z</time></trkpt><trkpt lat="39.7020893" lon="21.6314586"><ele>219.0</ele><time>2026-04-28T08:44:50.054Z</time></trkpt><trkpt lat="39.702041" lon="21.6315179"><ele>219.0</ele><time>2026-04-28T08:44:55.054Z</time></trkpt><trkpt lat="39.7020389" lon="21.6316125"><ele>219.0</ele><time>2026-04-28T08:45:00.054Z</time></trkpt><trkpt lat="39.7020879" lon="21.6316681"><ele>219.0</ele><time>2026-04-28T08:45:04.054Z</time></trkpt><trkpt lat="39.7021631" lon="21.6316773"><ele>219.0</ele><time>2026-04-28T08:45:09.053Z</time></trkpt><trkpt lat="39.7021133" lon="21.6316112"><ele>219.0</ele><time>2026-04-28T08:50:20.053Z</time></trkpt><trkpt lat="39.7020998" lon="21.6315211"><ele>219.0</ele><time>2026-04-28T08:50:26.054Z</time></trkpt><trkpt lat="39.7021169" lon="21.6314342"><ele>219.0</ele><time>2026-04-28T08:50:35.068Z</time></trkpt><trkpt lat="39.7021511" lon="21.6313544"><ele>219.0</ele><time>2026-04-28T08:50:41.053Z</time></trkpt><trkpt lat="39.7021136" lon="21.6314268"><ele>219.0</ele><time>2026-04-28T08:50:57.054Z</time></trkpt><trkpt lat="39.7021015" lon="21.6313306"><ele>219.0</ele><time>2026-04-28T08:51:23.053Z</time></trkpt><trkpt lat="39.7020575" lon="21.631405"><ele>219.0</ele><time>2026-04-28T08:51:34.983Z</time></trkpt><trkpt lat="39.702061" lon="21.631499"><ele>219.0</ele><time>2026-04-28T08:51:41.054Z</time></trkpt><trkpt lat="39.7021139" lon="21.6315593"><ele>219.0</ele><time>2026-04-28T08:51:47.054Z</time></trkpt><trkpt lat="39.7021532" lon="21.6316304"><ele>219.0</ele><time>2026-04-28T08:51:54.054Z</time></trkpt><trkpt lat="39.7020902" lon="21.6316258"><ele>219.0</ele><time>2026-04-28T08:52:13.053Z</time></trkpt><trkpt lat="39.7020685" lon="21.6315377"><ele>219.0</ele><time>2026-04-28T08:52:20.054Z</time></trkpt><trkpt lat="39.7021002" lon="21.631457"><ele>219.0</ele><time>2026-04-28T08:52:25.053Z</time></trkpt><trkpt lat="39.7021369" lon="21.6313765"><ele>219.0</ele><time>2026-04-28T08:52:31.054Z</time></trkpt><trkpt lat="39.7021391" lon="21.6312853"><ele>219.0</ele><time>2026-04-28T08:52:37.053Z</time></trkpt><trkpt lat="39.7021049" lon="21.6313661"><ele>219.0</ele><time>2026-04-28T08:54:36.053Z</time></trkpt><trkpt lat="39.7020417" lon="21.6314142"><ele>219.0</ele><time>2026-04-28T08:54:41.054Z</time></trkpt><trkpt lat="39.7021038" lon="21.6313783"><ele>219.0</ele><time>2026-04-28T08:54:51.054Z</time></trkpt><trkpt lat="39.7021654" lon="21.6313511"><ele>219.0</ele><time>2026-04-28T08:54:58.054Z</time></trkpt><trkpt lat="39.7021636" lon="21.6314463"><ele>219.0</ele><time>2026-04-28T08:55:19.976Z</time></trkpt><trkpt lat="39.7021577" lon="21.6315358"><ele>219.0</ele><time>2026-04-28T08:55:26.053Z</time></trkpt><trkpt lat="39.7021376" lon="21.6316288"><ele>219.0</ele><time>2026-04-28T08:55:35.061Z</time></trkpt><trkpt lat="39.7021979" lon="21.6316606"><ele>219.0</ele><time>2026-04-28T08:55:41.06Z</time></trkpt><trkpt lat="39.7021417" lon="21.6316222"><ele>219.0</ele><time>2026-04-28T08:58:57.061Z</time></trkpt><trkpt lat="39.702104" lon="21.6315545"><ele>219.0</ele><time>2026-04-28T08:59:02.061Z</time></trkpt><trkpt lat="39.7020991" lon="21.6314327"><ele>219.0</ele><time>2026-04-28T09:05:18.061Z</time></trkpt><trkpt lat="39.7020826" lon="21.6313037"><ele>219.0</ele><time>2026-04-28T09:05:20.062Z</time></trkpt><trkpt lat="39.7020768" lon="21.6312196"><ele>219.0</ele><time>2026-04-28T09:05:21.061Z</time></trkpt><trkpt lat="39.7020716" lon="21.6311295"><ele>219.0</ele><time>2026-04-28T09:05:22.062Z</time></trkpt><trkpt lat="39.7020705" lon="21.6310234"><ele>219.0</ele><time>2026-04-28T09:05:23.061Z</time></trkpt><trkpt lat="39.7020679" lon="21.6308945"><ele>218.39999999999998</ele><time>2026-04-28T09:05:24.062Z</time></trkpt><trkpt lat="39.7020677" lon="21.6307488"><ele>217.79999999999998</ele><time>2026-04-28T09:05:25.061Z</time></trkpt><trkpt lat="39.702079" lon="21.6306011"><ele>217.20000000000002</ele><time>2026-04-28T09:05:26.061Z</time></trkpt><trkpt lat="39.7020947" lon="21.6304581"><ele>216.60000000000002</ele><time>2026-04-28T09:05:27.062Z</time></trkpt><trkpt lat="39.7021139" lon="21.6303283"><ele>216.0</ele><time>2026-04-28T09:05:28.061Z</time></trkpt><trkpt lat="39.70213" lon="21.6302078"><ele>216.0</ele><time>2026-04-28T09:05:29.062Z</time></trkpt><trkpt lat="39.7021443" lon="21.6300973"><ele>216.0</ele><time>2026-04-28T09:05:30.062Z</time></trkpt><trkpt lat="39.7021572" lon="21.6299966"><ele>216.0</ele><time>2026-04-28T09:05:31.062Z</time></trkpt><trkpt lat="39.7021663" lon="21.6299067"><ele>216.0</ele><time>2026-04-28T09:05:32.061Z</time></trkpt><trkpt lat="39.7021774" lon="21.6298178"><ele>216.0</ele><time>2026-04-28T09:05:33.061Z</time></trkpt><trkpt lat="39.7021879" lon="21.6297248"><ele>216.0</ele><time>2026-04-28T09:05:34.062Z</time></trkpt><trkpt lat="39.7021937" lon="21.629632"><ele>216.0</ele><time>2026-04-28T09:05:35.061Z</time></trkpt><trkpt lat="39.7022072" lon="21.6295408"><ele>216.16666666666666</ele><time>2026-04-28T09:05:36.062Z</time></trkpt><trkpt lat="39.7022174" lon="21.6294463"><ele>216.33333333333331</ele><time>2026-04-28T09:05:37.062Z</time></trkpt><trkpt lat="39.702229" lon="21.6293518"><ele>216.5</ele><time>2026-04-28T09:05:38.061Z</time></trkpt><trkpt lat="39.7022398" lon="21.6292575"><ele>216.66666666666666</ele><time>2026-04-28T09:05:39.061Z</time></trkpt><trkpt lat="39.7022553" lon="21.6291664"><ele>216.83333333333331</ele><time>2026-04-28T09:05:40.061Z</time></trkpt><trkpt lat="39.7022687" lon="21.6290814"><ele>217.0</ele><time>2026-04-28T09:05:41.062Z</time></trkpt><trkpt lat="39.7022905" lon="21.6289423"><ele>216.99999999999997</ele><time>2026-04-28T09:05:43.061Z</time></trkpt><trkpt lat="39.7023006" lon="21.6288467"><ele>217.0</ele><time>2026-04-28T09:05:45.061Z</time></trkpt><trkpt lat="39.7022293" lon="21.6288278"><ele>217.0</ele><time>2026-04-28T09:05:48.061Z</time></trkpt><trkpt lat="39.7022045" lon="21.628921"><ele>217.0</ele><time>2026-04-28T09:05:50.061Z</time></trkpt><trkpt lat="39.7021848" lon="21.6290324"><ele>216.99999999999997</ele><time>2026-04-28T09:05:52.061Z</time></trkpt><trkpt lat="39.7021634" lon="21.6291491"><ele>217.0</ele><time>2026-04-28T09:05:54.061Z</time></trkpt><trkpt lat="39.7021414" lon="21.629271"><ele>217.0</ele><time>2026-04-28T09:05:56.061Z</time></trkpt><trkpt lat="39.7021274" lon="21.629399"><ele>217.0</ele><time>2026-04-28T09:05:58.061Z</time></trkpt><trkpt lat="39.7021126" lon="21.6295401"><ele>217.0</ele><time>2026-04-28T09:06:00.062Z</time></trkpt><trkpt lat="39.7020876" lon="21.6296957"><ele>217.0</ele><time>2026-04-28T09:06:02.061Z</time></trkpt><trkpt lat="39.7020647" lon="21.6298448"><ele>217.0</ele><time>2026-04-28T09:06:04.062Z</time></trkpt><trkpt lat="39.7020403" lon="21.6299784"><ele>216.8</ele><time>2026-04-28T09:06:06.062Z</time></trkpt><trkpt lat="39.702023" lon="21.6301091"><ele>216.6</ele><time>2026-04-28T09:06:08.061Z</time></trkpt><trkpt lat="39.7019996" lon="21.6302384"><ele>216.40000000000003</ele><time>2026-04-28T09:06:10.062Z</time></trkpt><trkpt lat="39.7019811" lon="21.6303729"><ele>216.20000000000002</ele><time>2026-04-28T09:06:12.062Z</time></trkpt><trkpt lat="39.7019591" lon="21.6305047"><ele>216.0</ele><time>2026-04-28T09:06:14.061Z</time></trkpt><trkpt lat="39.7019383" lon="21.6306348"><ele>216.0</ele><time>2026-04-28T09:06:16.061Z</time></trkpt><trkpt lat="39.701925" lon="21.6307546"><ele>216.00000000000003</ele><time>2026-04-28T09:06:18.061Z</time></trkpt><trkpt lat="39.701915" lon="21.6308662"><ele>216.00000000000003</ele><time>2026-04-28T09:06:20.061Z</time></trkpt><trkpt lat="39.7019156" lon="21.6310007"><ele>216.0</ele><time>2026-04-28T09:06:22.062Z</time></trkpt><trkpt lat="39.7019165" lon="21.6311633"><ele>216.0</ele><time>2026-04-28T09:06:24.061Z</time></trkpt><trkpt lat="39.7019139" lon="21.6312529"><ele>216.42857142857142</ele><time>2026-04-28T09:06:25.062Z</time></trkpt><trkpt lat="39.701913" lon="21.631345"><ele>216.85714285714283</ele><time>2026-04-28T09:06:26.062Z</time></trkpt><trkpt lat="39.7019163" lon="21.631437"><ele>217.28571428571428</ele><time>2026-04-28T09:06:27.062Z</time></trkpt><trkpt lat="39.701919" lon="21.6315292"><ele>217.71428571428572</ele><time>2026-04-28T09:06:28.061Z</time></trkpt><trkpt lat="39.7019257" lon="21.6316242"><ele>218.14285714285714</ele><time>2026-04-28T09:06:29.061Z</time></trkpt><trkpt lat="39.7019343" lon="21.6317232"><ele>218.57142857142858</ele><time>2026-04-28T09:06:30.062Z</time></trkpt><trkpt lat="39.7019419" lon="21.6318211"><ele>219.0</ele><time>2026-04-28T09:06:31.062Z</time></trkpt><trkpt lat="39.7019475" lon="21.6319193"><ele>218.5</ele><time>2026-04-28T09:06:32.062Z</time></trkpt><trkpt lat="39.7019528" lon="21.6320092"><ele>218.0</ele><time>2026-04-28T09:06:33.061Z</time></trkpt><trkpt lat="39.7019584" lon="21.6320934"><ele>217.5</ele><time>2026-04-28T09:06:34.061Z</time></trkpt><trkpt lat="39.7019748" lon="21.6322445"><ele>217.0</ele><time>2026-04-28T09:06:36.062Z</time></trkpt><trkpt lat="39.7019874" lon="21.6323619"><ele>216.5</ele><time>2026-04-28T09:06:38.061Z</time></trkpt><trkpt lat="39.7019945" lon="21.6324638"><ele>216.0</ele><time>2026-04-28T09:06:40.062Z</time></trkpt><trkpt lat="39.7019975" lon="21.6325543"><ele>216.0</ele><time>2026-04-28T09:06:43.061Z</time></trkpt><trkpt lat="39.7020048" lon="21.6327044"><ele>216.00000000000003</ele><time>2026-04-28T09:06:50.062Z</time></trkpt><trkpt lat="39.7019953" lon="21.6328241"><ele>216.00000000000003</ele><time>2026-04-28T09:06:51.062Z</time></trkpt><trkpt lat="39.7019791" lon="21.6329376"><ele>216.0</ele><time>2026-04-28T09:06:52.061Z</time></trkpt><trkpt lat="39.7019482" lon="21.6330549"><ele>216.0</ele><time>2026-04-28T09:06:53.062Z</time></trkpt><trkpt lat="39.7019073" lon="21.6331739"><ele>216.4</ele><time>2026-04-28T09:06:54.061Z</time></trkpt><trkpt lat="39.7018585" lon="21.6332948"><ele>216.8</ele><time>2026-04-28T09:06:55.062Z</time></trkpt><trkpt lat="39.7018047" lon="21.6334186"><ele>217.20000000000002</ele><time>2026-04-28T09:06:56.062Z</time></trkpt><trkpt lat="39.7017474" lon="21.6335452"><ele>217.60000000000002</ele><time>2026-04-28T09:06:57.062Z</time></trkpt><trkpt lat="39.7016894" lon="21.6336711"><ele>218.0</ele><time>2026-04-28T09:06:58.062Z</time></trkpt><trkpt lat="39.7016289" lon="21.6337999"><ele>217.0</ele><time>2026-04-28T09:06:59.062Z</time></trkpt><trkpt lat="39.7015648" lon="21.6339322"><ele>216.0</ele><time>2026-04-28T09:07:00.062Z</time></trkpt><trkpt lat="39.7014994" lon="21.6340667"><ele>215.0</ele><time>2026-04-28T09:07:01.062Z</time></trkpt><trkpt lat="39.70143" lon="21.6342035"><ele>214.0</ele><time>2026-04-28T09:07:02.062Z</time></trkpt><trkpt lat="39.7013593" lon="21.6343423"><ele>214.0</ele><time>2026-04-28T09:07:03.062Z</time></trkpt><trkpt lat="39.7012902" lon="21.6344843"><ele>214.0</ele><time>2026-04-28T09:07:04.062Z</time></trkpt><trkpt lat="39.7012224" lon="21.6346295"><ele>214.0</ele><time>2026-04-28T09:07:05.062Z</time></trkpt><trkpt lat="39.7011535" lon="21.6347774"><ele>214.0</ele><time>2026-04-28T09:07:06.062Z</time></trkpt><trkpt lat="39.7010814" lon="21.6349249"><ele>213.0</ele><time>2026-04-28T09:07:07.062Z</time></trkpt><trkpt lat="39.7010064" lon="21.6350737"><ele>212.0</ele><time>2026-04-28T09:07:08.062Z</time></trkpt><trkpt lat="39.7009335" lon="21.6352228"><ele>211.0</ele><time>2026-04-28T09:07:09.062Z</time></trkpt><trkpt lat="39.7008593" lon="21.6353759"><ele>210.0</ele><time>2026-04-28T09:07:10.062Z</time></trkpt><trkpt lat="39.7007825" lon="21.6355283"><ele>210.0</ele><time>2026-04-28T09:07:11.062Z</time></trkpt><trkpt lat="39.7007067" lon="21.6356827"><ele>210.0</ele><time>2026-04-28T09:07:12.061Z</time></trkpt><trkpt lat="39.7006319" lon="21.635837"><ele>210.0</ele><time>2026-04-28T09:07:13.062Z</time></trkpt><trkpt lat="39.7005604" lon="21.6359864"><ele>210.0</ele><time>2026-04-28T09:07:14.062Z</time></trkpt><trkpt lat="39.7004902" lon="21.6361344"><ele>209.25</ele><time>2026-04-28T09:07:15.062Z</time></trkpt><trkpt lat="39.7004229" lon="21.6362804"><ele>208.5</ele><time>2026-04-28T09:07:16.061Z</time></trkpt><trkpt lat="39.7003541" lon="21.6364205"><ele>207.75</ele><time>2026-04-28T09:07:17.062Z</time></trkpt><trkpt lat="39.7002872" lon="21.6365647"><ele>207.0</ele><time>2026-04-28T09:07:18.061Z</time></trkpt><trkpt lat="39.7002191" lon="21.6367129"><ele>207.0</ele><time>2026-04-28T09:07:19.061Z</time></trkpt><trkpt lat="39.7001443" lon="21.6368521"><ele>207.0</ele><time>2026-04-28T09:07:20.062Z</time></trkpt><trkpt lat="39.7000696" lon="21.6369886"><ele>207.0</ele><time>2026-04-28T09:07:21.062Z</time></trkpt><trkpt lat="39.699992" lon="21.6371289"><ele>207.0</ele><time>2026-04-28T09:07:22.062Z</time></trkpt><trkpt lat="39.6999159" lon="21.6372767"><ele>207.25</ele><time>2026-04-28T09:07:23.062Z</time></trkpt><trkpt lat="39.6998411" lon="21.637426"><ele>207.5</ele><time>2026-04-28T09:07:24.06Z</time></trkpt><trkpt lat="39.6997657" lon="21.6375764"><ele>207.75</ele><time>2026-04-28T09:07:25.062Z</time></trkpt><trkpt lat="39.6996912" lon="21.6377297"><ele>208.0</ele><time>2026-04-28T09:07:26.061Z</time></trkpt><trkpt lat="39.6996148" lon="21.6378846"><ele>208.25</ele><time>2026-04-28T09:07:27.062Z</time></trkpt><trkpt lat="39.6995379" lon="21.6380374"><ele>208.5</ele><time>2026-04-28T09:07:28.062Z</time></trkpt><trkpt lat="39.6994639" lon="21.6381871"><ele>208.75</ele><time>2026-04-28T09:07:29.061Z</time></trkpt><trkpt lat="39.6993927" lon="21.6383304"><ele>209.0</ele><time>2026-04-28T09:07:30.061Z</time></trkpt><trkpt lat="39.6993226" lon="21.6384717"><ele>209.0</ele><time>2026-04-28T09:07:31.061Z</time></trkpt><trkpt lat="39.6992525" lon="21.6386126"><ele>209.0</ele><time>2026-04-28T09:07:32.062Z</time></trkpt><trkpt lat="39.6991815" lon="21.6387493"><ele>209.0</ele><time>2026-04-28T09:07:33.06Z</time></trkpt><trkpt lat="39.6991097" lon="21.6388856"><ele>209.0</ele><time>2026-04-28T09:07:34.062Z</time></trkpt><trkpt lat="39.6990339" lon="21.6390192"><ele>208.75</ele><time>2026-04-28T09:07:35.062Z</time></trkpt><trkpt lat="39.6989492" lon="21.6391428"><ele>208.5</ele><time>2026-04-28T09:07:36.062Z</time></trkpt><trkpt lat="39.6988591" lon="21.6392588"><ele>208.25</ele><time>2026-04-28T09:07:37.061Z</time></trkpt><trkpt lat="39.6987573" lon="21.6393658"><ele>208.0</ele><time>2026-04-28T09:07:38.061Z</time></trkpt><trkpt lat="39.6986523" lon="21.6394707"><ele>207.0</ele><time>2026-04-28T09:07:39.062Z</time></trkpt><trkpt lat="39.6985398" lon="21.6395707"><ele>206.0</ele><time>2026-04-28T09:07:40.062Z</time></trkpt><trkpt lat="39.6984189" lon="21.6396615"><ele>205.0</ele><time>2026-04-28T09:07:41.062Z</time></trkpt><trkpt lat="39.6982928" lon="21.6397465"><ele>204.0</ele><time>2026-04-28T09:07:42.062Z</time></trkpt><trkpt lat="39.6981629" lon="21.6398226"><ele>204.0</ele><time>2026-04-28T09:07:43.062Z</time></trkpt><trkpt lat="39.6980286" lon="21.6398861"><ele>204.0</ele><time>2026-04-28T09:07:44.061Z</time></trkpt><trkpt lat="39.697893" lon="21.6399353"><ele>204.0</ele><time>2026-04-28T09:07:45.061Z</time></trkpt><trkpt lat="39.6977534" lon="21.6399721"><ele>204.0</ele><time>2026-04-28T09:07:46.062Z</time></trkpt><trkpt lat="39.6976099" lon="21.6399994"><ele>204.0</ele><time>2026-04-28T09:07:47.061Z</time></trkpt><trkpt lat="39.6974641" lon="21.6400183"><ele>204.0</ele><time>2026-04-28T09:07:48.061Z</time></trkpt><trkpt lat="39.6973215" lon="21.6400287"><ele>204.0</ele><time>2026-04-28T09:07:49.061Z</time></trkpt><trkpt lat="39.6971731" lon="21.6400375"><ele>204.0</ele><time>2026-04-28T09:07:50.062Z</time></trkpt><trkpt lat="39.6970252" lon="21.640044"><ele>203.5</ele><time>2026-04-28T09:07:51.062Z</time></trkpt><trkpt lat="39.6968786" lon="21.6400479"><ele>203.0</ele><time>2026-04-28T09:07:52.061Z</time></trkpt><trkpt lat="39.6967377" lon="21.6400483"><ele>202.5</ele><time>2026-04-28T09:07:53.061Z</time></trkpt><trkpt lat="39.6966033" lon="21.640052"><ele>202.0</ele><time>2026-04-28T09:07:54.062Z</time></trkpt><trkpt lat="39.696479" lon="21.6400488"><ele>202.0</ele><time>2026-04-28T09:07:55.062Z</time></trkpt><trkpt lat="39.6963524" lon="21.6400548"><ele>202.0</ele><time>2026-04-28T09:07:56.062Z</time></trkpt><trkpt lat="39.6962271" lon="21.6400703"><ele>202.0</ele><time>2026-04-28T09:07:57.061Z</time></trkpt><trkpt lat="39.6961048" lon="21.6401035"><ele>202.0</ele><time>2026-04-28T09:07:58.061Z</time></trkpt><trkpt lat="39.6959836" lon="21.6401572"><ele>201.25</ele><time>2026-04-28T09:07:59.061Z</time></trkpt><trkpt lat="39.695865" lon="21.6402366"><ele>200.5</ele><time>2026-04-28T09:08:00.062Z</time></trkpt><trkpt lat="39.6957551" lon="21.6403253"><ele>199.75</ele><time>2026-04-28T09:08:01.062Z</time></trkpt><trkpt lat="39.6956495" lon="21.6404219"><ele>199.0</ele><time>2026-04-28T09:08:02.062Z</time></trkpt><trkpt lat="39.6955494" lon="21.640519"><ele>199.0</ele><time>2026-04-28T09:08:03.061Z</time></trkpt><trkpt lat="39.6954506" lon="21.6406164"><ele>199.0</ele><time>2026-04-28T09:08:04.061Z</time></trkpt><trkpt lat="39.6953506" lon="21.6407136"><ele>199.0</ele><time>2026-04-28T09:08:05.062Z</time></trkpt><trkpt lat="39.6952485" lon="21.6408121"><ele>199.0</ele><time>2026-04-28T09:08:06.062Z</time></trkpt><trkpt lat="39.6951463" lon="21.6409137"><ele>199.0</ele><time>2026-04-28T09:08:07.061Z</time></trkpt><trkpt lat="39.6950407" lon="21.641019"><ele>199.0</ele><time>2026-04-28T09:08:08.061Z</time></trkpt><trkpt lat="39.6949347" lon="21.641125"><ele>199.0</ele><time>2026-04-28T09:08:09.061Z</time></trkpt><trkpt lat="39.6948279" lon="21.6412303"><ele>199.0</ele><time>2026-04-28T09:08:10.061Z</time></trkpt><trkpt lat="39.6947217" lon="21.6413348"><ele>199.0</ele><time>2026-04-28T09:08:11.061Z</time></trkpt><trkpt lat="39.6946166" lon="21.6414399"><ele>199.0</ele><time>2026-04-28T09:08:12.062Z</time></trkpt><trkpt lat="39.6945131" lon="21.6415436"><ele>199.0</ele><time>2026-04-28T09:08:13.061Z</time></trkpt><trkpt lat="39.6944101" lon="21.6416456"><ele>199.0</ele><time>2026-04-28T09:08:14.061Z</time></trkpt><trkpt lat="39.6943114" lon="21.6417429"><ele>199.0</ele><time>2026-04-28T09:08:15.061Z</time></trkpt><trkpt lat="39.6942138" lon="21.6418388"><ele>199.0</ele><time>2026-04-28T09:08:16.062Z</time></trkpt><trkpt lat="39.6941149" lon="21.6419316"><ele>199.0</ele><time>2026-04-28T09:08:17.061Z</time></trkpt><trkpt lat="39.6940145" lon="21.6420276"><ele>199.0</ele><time>2026-04-28T09:08:18.061Z</time></trkpt><trkpt lat="39.693915" lon="21.6421273"><ele>199.0</ele><time>2026-04-28T09:08:19.061Z</time></trkpt><trkpt lat="39.6938148" lon="21.6422285"><ele>199.0</ele><time>2026-04-28T09:08:20.061Z</time></trkpt><trkpt lat="39.6937133" lon="21.6423302"><ele>199.0</ele><time>2026-04-28T09:08:21.062Z</time></trkpt><trkpt lat="39.6936116" lon="21.6424307"><ele>199.0</ele><time>2026-04-28T09:08:22.061Z</time></trkpt><trkpt lat="39.6935087" lon="21.6425314"><ele>198.25</ele><time>2026-04-28T09:08:23.062Z</time></trkpt><trkpt lat="39.6934063" lon="21.642632"><ele>197.5</ele><time>2026-04-28T09:08:24.061Z</time></trkpt><trkpt lat="39.6933012" lon="21.6427368"><ele>196.75</ele><time>2026-04-28T09:08:25.061Z</time></trkpt><trkpt lat="39.6931937" lon="21.6428444"><ele>196.0</ele><time>2026-04-28T09:08:26.061Z</time></trkpt><trkpt lat="39.6930823" lon="21.6429569"><ele>195.66666666666666</ele><time>2026-04-28T09:08:27.061Z</time></trkpt><trkpt lat="39.6929643" lon="21.6430756"><ele>195.33333333333331</ele><time>2026-04-28T09:08:28.061Z</time></trkpt><trkpt lat="39.6928422" lon="21.6431963"><ele>195.0</ele><time>2026-04-28T09:08:29.062Z</time></trkpt><trkpt lat="39.6927147" lon="21.6433187"><ele>194.66666666666669</ele><time>2026-04-28T09:08:30.062Z</time></trkpt><trkpt lat="39.6925854" lon="21.6434457"><ele>194.33333333333334</ele><time>2026-04-28T09:08:31.062Z</time></trkpt><trkpt lat="39.6924552" lon="21.6435788"><ele>194.0</ele><time>2026-04-28T09:08:32.061Z</time></trkpt><trkpt lat="39.6923182" lon="21.6437215"><ele>194.0</ele><time>2026-04-28T09:08:33.062Z</time></trkpt><trkpt lat="39.692182" lon="21.6438671"><ele>194.0</ele><time>2026-04-28T09:08:34.062Z</time></trkpt><trkpt lat="39.6920413" lon="21.6440057"><ele>194.0</ele><time>2026-04-28T09:08:35.062Z</time></trkpt><trkpt lat="39.6918974" lon="21.6441493"><ele>193.33333333333334</ele><time>2026-04-28T09:08:36.061Z</time></trkpt><trkpt lat="39.691749" lon="21.644295"><ele>192.66666666666669</ele><time>2026-04-28T09:08:37.062Z</time></trkpt><trkpt lat="39.691598" lon="21.6444423"><ele>192.0</ele><time>2026-04-28T09:08:38.061Z</time></trkpt><trkpt lat="39.691444" lon="21.6445921"><ele>192.0</ele><time>2026-04-28T09:08:39.062Z</time></trkpt><trkpt lat="39.6912888" lon="21.6447456"><ele>192.0</ele><time>2026-04-28T09:08:40.062Z</time></trkpt><trkpt lat="39.6911347" lon="21.6449026"><ele>192.0</ele><time>2026-04-28T09:08:41.061Z</time></trkpt><trkpt lat="39.6909794" lon="21.645058"><ele>191.33333333333334</ele><time>2026-04-28T09:08:42.062Z</time></trkpt><trkpt lat="39.690823" lon="21.645212"><ele>190.66666666666669</ele><time>2026-04-28T09:08:43.062Z</time></trkpt><trkpt lat="39.6906637" lon="21.6453651"><ele>190.0</ele><time>2026-04-28T09:08:44.062Z</time></trkpt><trkpt lat="39.6905028" lon="21.645522"><ele>189.66666666666669</ele><time>2026-04-28T09:08:45.061Z</time></trkpt><trkpt lat="39.6903432" lon="21.645684"><ele>189.33333333333334</ele><time>2026-04-28T09:08:46.061Z</time></trkpt><trkpt lat="39.6901787" lon="21.6458482"><ele>189.0</ele><time>2026-04-28T09:08:47.061Z</time></trkpt><trkpt lat="39.6900125" lon="21.646014"><ele>189.33333333333334</ele><time>2026-04-28T09:08:48.062Z</time></trkpt><trkpt lat="39.6898423" lon="21.6461802"><ele>189.66666666666669</ele><time>2026-04-28T09:08:49.061Z</time></trkpt><trkpt lat="39.6896777" lon="21.6463437"><ele>190.0</ele><time>2026-04-28T09:08:50.061Z</time></trkpt><trkpt lat="39.689512" lon="21.6465034"><ele>189.66666666666669</ele><time>2026-04-28T09:08:51.061Z</time></trkpt><trkpt lat="39.689348" lon="21.646656"><ele>189.33333333333334</ele><time>2026-04-28T09:08:52.062Z</time></trkpt><trkpt lat="39.6891895" lon="21.6468086"><ele>189.0</ele><time>2026-04-28T09:08:53.062Z</time></trkpt><trkpt lat="39.6890322" lon="21.6469598"><ele>189.0</ele><time>2026-04-28T09:08:54.061Z</time></trkpt><trkpt lat="39.6888744" lon="21.6471103"><ele>189.0</ele><time>2026-04-28T09:08:55.061Z</time></trkpt><trkpt lat="39.6887158" lon="21.6472623"><ele>189.0</ele><time>2026-04-28T09:08:56.062Z</time></trkpt><trkpt lat="39.6885557" lon="21.6474151"><ele>188.66666666666666</ele><time>2026-04-28T09:08:57.061Z</time></trkpt><trkpt lat="39.6883965" lon="21.6475718"><ele>188.33333333333331</ele><time>2026-04-28T09:08:58.062Z</time></trkpt><trkpt lat="39.6882343" lon="21.6477317"><ele>188.0</ele><time>2026-04-28T09:08:59.061Z</time></trkpt><trkpt lat="39.6880695" lon="21.647897"><ele>187.66666666666666</ele><time>2026-04-28T09:09:00.061Z</time></trkpt><trkpt lat="39.6879016" lon="21.6480631"><ele>187.33333333333334</ele><time>2026-04-28T09:09:01.062Z</time></trkpt><trkpt lat="39.6877323" lon="21.6482299"><ele>187.0</ele><time>2026-04-28T09:09:02.062Z</time></trkpt><trkpt lat="39.6875631" lon="21.6483988"><ele>186.66666666666669</ele><time>2026-04-28T09:09:03.062Z</time></trkpt><trkpt lat="39.6873951" lon="21.6485661"><ele>186.33333333333334</ele><time>2026-04-28T09:09:04.061Z</time></trkpt><trkpt lat="39.6872274" lon="21.6487341"><ele>186.0</ele><time>2026-04-28T09:09:05.061Z</time></trkpt><trkpt lat="39.6870607" lon="21.6489026"><ele>185.66666666666666</ele><time>2026-04-28T09:09:06.061Z</time></trkpt><trkpt lat="39.6868925" lon="21.6490697"><ele>185.33333333333331</ele><time>2026-04-28T09:09:07.062Z</time></trkpt><trkpt lat="39.6867232" lon="21.6492358"><ele>185.0</ele><time>2026-04-28T09:09:08.062Z</time></trkpt><trkpt lat="39.6865534" lon="21.6494046"><ele>185.0</ele><time>2026-04-28T09:09:09.061Z</time></trkpt><trkpt lat="39.6863802" lon="21.649578"><ele>185.0</ele><time>2026-04-28T09:09:10.062Z</time></trkpt><trkpt lat="39.6862065" lon="21.64975"><ele>185.0</ele><time>2026-04-28T09:09:11.062Z</time></trkpt><trkpt lat="39.6860333" lon="21.6499218"><ele>185.0</ele><time>2026-04-28T09:09:12.062Z</time></trkpt><trkpt lat="39.6858576" lon="21.6500925"><ele>185.0</ele><time>2026-04-28T09:09:13.061Z</time></trkpt><trkpt lat="39.6856823" lon="21.6502643"><ele>185.0</ele><time>2026-04-28T09:09:14.061Z</time></trkpt><trkpt lat="39.685506" lon="21.650438"><ele>185.0</ele><time>2026-04-28T09:09:15.061Z</time></trkpt><trkpt lat="39.6853321" lon="21.6506083"><ele>185.0</ele><time>2026-04-28T09:09:16.062Z</time></trkpt><trkpt lat="39.6851574" lon="21.6507803"><ele>185.0</ele><time>2026-04-28T09:09:17.062Z</time></trkpt><trkpt lat="39.6849826" lon="21.6509525"><ele>185.0</ele><time>2026-04-28T09:09:18.061Z</time></trkpt><trkpt lat="39.6848078" lon="21.651131"><ele>185.0</ele><time>2026-04-28T09:09:19.062Z</time></trkpt><trkpt lat="39.6846307" lon="21.6513084"><ele>185.0</ele><time>2026-04-28T09:09:20.062Z</time></trkpt><trkpt lat="39.6844513" lon="21.6514867"><ele>184.5</ele><time>2026-04-28T09:09:21.061Z</time></trkpt><trkpt lat="39.6842693" lon="21.651665"><ele>184.0</ele><time>2026-04-28T09:09:22.062Z</time></trkpt><trkpt lat="39.6840896" lon="21.6518372"><ele>184.33333333333334</ele><time>2026-04-28T09:09:23.06Z</time></trkpt><trkpt lat="39.6839111" lon="21.652007"><ele>184.66666666666666</ele><time>2026-04-28T09:09:24.06Z</time></trkpt><trkpt lat="39.6837381" lon="21.6521633"><ele>185.0</ele><time>2026-04-28T09:09:25.062Z</time></trkpt><trkpt lat="39.6835691" lon="21.65232"><ele>186.0</ele><time>2026-04-28T09:09:26.062Z</time></trkpt><trkpt lat="39.6834008" lon="21.6524792"><ele>187.0</ele><time>2026-04-28T09:09:27.061Z</time></trkpt><trkpt lat="39.6832335" lon="21.6526382"><ele>188.0</ele><time>2026-04-28T09:09:28.062Z</time></trkpt><trkpt lat="39.6830643" lon="21.6528039"><ele>186.33333333333331</ele><time>2026-04-28T09:09:29.06Z</time></trkpt><trkpt lat="39.6828952" lon="21.6529685"><ele>184.66666666666666</ele><time>2026-04-28T09:09:30.062Z</time></trkpt><trkpt lat="39.6827274" lon="21.653133"><ele>183.0</ele><time>2026-04-28T09:09:31.061Z</time></trkpt><trkpt lat="39.6825593" lon="21.6532956"><ele>183.0</ele><time>2026-04-28T09:09:32.061Z</time></trkpt><trkpt lat="39.6823928" lon="21.6534579"><ele>183.0</ele><time>2026-04-28T09:09:33.062Z</time></trkpt><trkpt lat="39.682228" lon="21.6536225"><ele>183.0</ele><time>2026-04-28T09:09:34.061Z</time></trkpt><trkpt lat="39.6820629" lon="21.6537877"><ele>182.0</ele><time>2026-04-28T09:09:35.062Z</time></trkpt><trkpt lat="39.6818978" lon="21.6539529"><ele>181.0</ele><time>2026-04-28T09:09:36.062Z</time></trkpt><trkpt lat="39.6817317" lon="21.6541178"><ele>180.0</ele><time>2026-04-28T09:09:37.062Z</time></trkpt><trkpt lat="39.6815652" lon="21.6542814"><ele>180.0</ele><time>2026-04-28T09:09:38.061Z</time></trkpt><trkpt lat="39.6813987" lon="21.6544475"><ele>180.0</ele><time>2026-04-28T09:09:39.059Z</time></trkpt><trkpt lat="39.6812328" lon="21.6546141"><ele>180.0</ele><time>2026-04-28T09:09:40.062Z</time></trkpt><trkpt lat="39.6810654" lon="21.6547816"><ele>180.0</ele><time>2026-04-28T09:09:41.061Z</time></trkpt><trkpt lat="39.6808931" lon="21.6549429"><ele>180.0</ele><time>2026-04-28T09:09:42.062Z</time></trkpt><trkpt lat="39.680722" lon="21.6551103"><ele>180.0</ele><time>2026-04-28T09:09:43.061Z</time></trkpt><trkpt lat="39.6805504" lon="21.6552787"><ele>180.0</ele><time>2026-04-28T09:09:44.061Z</time></trkpt><trkpt lat="39.6803781" lon="21.6554476"><ele>180.0</ele><time>2026-04-28T09:09:45.062Z</time></trkpt><trkpt lat="39.6802062" lon="21.6556163"><ele>180.0</ele><time>2026-04-28T09:09:46.061Z</time></trkpt><trkpt lat="39.6800336" lon="21.6557861"><ele>180.66666666666666</ele><time>2026-04-28T09:09:47.062Z</time></trkpt><trkpt lat="39.6798609" lon="21.655958"><ele>181.33333333333331</ele><time>2026-04-28T09:09:48.062Z</time></trkpt><trkpt lat="39.6796871" lon="21.6561291"><ele>182.0</ele><time>2026-04-28T09:09:49.061Z</time></trkpt><trkpt lat="39.6795139" lon="21.656301"><ele>181.33333333333331</ele><time>2026-04-28T09:09:50.061Z</time></trkpt><trkpt lat="39.6793413" lon="21.6564722"><ele>180.66666666666666</ele><time>2026-04-28T09:09:51.062Z</time></trkpt><trkpt lat="39.679168" lon="21.6566426"><ele>180.0</ele><time>2026-04-28T09:09:52.061Z</time></trkpt><trkpt lat="39.6789922" lon="21.6568178"><ele>180.0</ele><time>2026-04-28T09:09:53.062Z</time></trkpt><trkpt lat="39.678816" lon="21.6569903"><ele>180.0</ele><time>2026-04-28T09:09:54.062Z</time></trkpt><trkpt lat="39.6786389" lon="21.6571682"><ele>180.0</ele><time>2026-04-28T09:09:55.062Z</time></trkpt><trkpt lat="39.6784654" lon="21.6573426"><ele>180.0</ele><time>2026-04-28T09:09:56.061Z</time></trkpt><trkpt lat="39.678291" lon="21.657516"><ele>180.0</ele><time>2026-04-28T09:09:57.062Z</time></trkpt><trkpt lat="39.6781169" lon="21.6576915"><ele>180.0</ele><time>2026-04-28T09:09:58.062Z</time></trkpt><trkpt lat="39.6779416" lon="21.6578659"><ele>180.0</ele><time>2026-04-28T09:09:59.062Z</time></trkpt><trkpt lat="39.6777687" lon="21.6580386"><ele>180.0</ele><time>2026-04-28T09:10:00.061Z</time></trkpt><trkpt lat="39.677593" lon="21.6582097"><ele>180.0</ele><time>2026-04-28T09:10:01.061Z</time></trkpt><trkpt lat="39.677419" lon="21.6583798"><ele>180.0</ele><time>2026-04-28T09:10:02.062Z</time></trkpt><trkpt lat="39.6772458" lon="21.6585477"><ele>180.0</ele><time>2026-04-28T09:10:03.062Z</time></trkpt><trkpt lat="39.6770739" lon="21.6587177"><ele>180.0</ele><time>2026-04-28T09:10:04.061Z</time></trkpt><trkpt lat="39.676903" lon="21.658885"><ele>179.33333333333334</ele><time>2026-04-28T09:10:05.06Z</time></trkpt><trkpt lat="39.6767346" lon="21.6590519"><ele>178.66666666666669</ele><time>2026-04-28T09:10:06.061Z</time></trkpt><trkpt lat="39.6765654" lon="21.6592199"><ele>178.0</ele><time>2026-04-28T09:10:07.059Z</time></trkpt><trkpt lat="39.6763959" lon="21.6593885"><ele>178.33333333333334</ele><time>2026-04-28T09:10:08.062Z</time></trkpt><trkpt lat="39.6762254" lon="21.659556"><ele>178.66666666666666</ele><time>2026-04-28T09:10:09.061Z</time></trkpt><trkpt lat="39.6760535" lon="21.6597229"><ele>179.0</ele><time>2026-04-28T09:10:10.06Z</time></trkpt><trkpt lat="39.6758827" lon="21.6598901"><ele>179.0</ele><time>2026-04-28T09:10:11.062Z</time></trkpt><trkpt lat="39.6757111" lon="21.6600569"><ele>179.0</ele><time>2026-04-28T09:10:12.06Z</time></trkpt><trkpt lat="39.6755411" lon="21.6602266"><ele>179.0</ele><time>2026-04-28T09:10:13.062Z</time></trkpt><trkpt lat="39.6753709" lon="21.6603943"><ele>179.0</ele><time>2026-04-28T09:10:14.06Z</time></trkpt><trkpt lat="39.6752012" lon="21.6605675"><ele>179.0</ele><time>2026-04-28T09:10:15.061Z</time></trkpt><trkpt lat="39.6750337" lon="21.660737"><ele>179.0</ele><time>2026-04-28T09:10:16.061Z</time></trkpt><trkpt lat="39.6748652" lon="21.6609041"><ele>179.0</ele><time>2026-04-28T09:10:17.059Z</time></trkpt><trkpt lat="39.6746959" lon="21.6610695"><ele>179.0</ele><time>2026-04-28T09:10:18.059Z</time></trkpt><trkpt lat="39.6745247" lon="21.6612363"><ele>179.0</ele><time>2026-04-28T09:10:19.061Z</time></trkpt><trkpt lat="39.6743507" lon="21.6614053"><ele>179.33333333333331</ele><time>2026-04-28T09:10:20.06Z</time></trkpt><trkpt lat="39.6741739" lon="21.661579"><ele>179.66666666666666</ele><time>2026-04-28T09:10:21.06Z</time></trkpt><trkpt lat="39.6739976" lon="21.6617523"><ele>180.0</ele><time>2026-04-28T09:10:22.061Z</time></trkpt><trkpt lat="39.6738199" lon="21.6619237"><ele>178.33333333333334</ele><time>2026-04-28T09:10:23.061Z</time></trkpt><trkpt lat="39.6736434" lon="21.6620955"><ele>176.66666666666669</ele><time>2026-04-28T09:10:24.062Z</time></trkpt><trkpt lat="39.6734673" lon="21.662267"><ele>175.0</ele><time>2026-04-28T09:10:25.06Z</time></trkpt><trkpt lat="39.6732897" lon="21.6624408"><ele>175.0</ele><time>2026-04-28T09:10:26.062Z</time></trkpt><trkpt lat="39.6731104" lon="21.6626103"><ele>175.0</ele><time>2026-04-28T09:10:27.061Z</time></trkpt><trkpt lat="39.6729302" lon="21.6627794"><ele>175.0</ele><time>2026-04-28T09:10:28.061Z</time></trkpt><trkpt lat="39.672746" lon="21.6629532"><ele>174.5</ele><time>2026-04-28T09:10:29.061Z</time></trkpt><trkpt lat="39.6725532" lon="21.6631376"><ele>174.0</ele><time>2026-04-28T09:10:30.062Z</time></trkpt><trkpt lat="39.6723585" lon="21.6633257"><ele>174.0</ele><time>2026-04-28T09:10:31.062Z</time></trkpt><trkpt lat="39.6721669" lon="21.6635114"><ele>174.0</ele><time>2026-04-28T09:10:32.062Z</time></trkpt><trkpt lat="39.6719796" lon="21.6636938"><ele>174.0</ele><time>2026-04-28T09:10:33.062Z</time></trkpt><trkpt lat="39.6717955" lon="21.6638736"><ele>174.0</ele><time>2026-04-28T09:10:34.061Z</time></trkpt><trkpt lat="39.6716149" lon="21.6640512"><ele>174.0</ele><time>2026-04-28T09:10:35.061Z</time></trkpt><trkpt lat="39.6714384" lon="21.664225"><ele>174.0</ele><time>2026-04-28T09:10:36.061Z</time></trkpt><trkpt lat="39.6712651" lon="21.6643978"><ele>174.0</ele><time>2026-04-28T09:10:37.061Z</time></trkpt><trkpt lat="39.6710948" lon="21.6645665"><ele>173.33333333333334</ele><time>2026-04-28T09:10:38.062Z</time></trkpt><trkpt lat="39.6709249" lon="21.6647363"><ele>172.66666666666669</ele><time>2026-04-28T09:10:39.062Z</time></trkpt><trkpt lat="39.6707551" lon="21.6649074"><ele>172.0</ele><time>2026-04-28T09:10:40.061Z</time></trkpt><trkpt lat="39.6705834" lon="21.6650839"><ele>172.0</ele><time>2026-04-28T09:10:41.061Z</time></trkpt><trkpt lat="39.6704096" lon="21.6652633"><ele>172.0</ele><time>2026-04-28T09:10:42.06Z</time></trkpt><trkpt lat="39.6702316" lon="21.6654456"><ele>172.0</ele><time>2026-04-28T09:10:43.061Z</time></trkpt><trkpt lat="39.6700551" lon="21.6656253"><ele>172.33333333333334</ele><time>2026-04-28T09:10:44.062Z</time></trkpt><trkpt lat="39.6698803" lon="21.6658026"><ele>172.66666666666666</ele><time>2026-04-28T09:10:45.061Z</time></trkpt><trkpt lat="39.6697036" lon="21.6659811"><ele>173.0</ele><time>2026-04-28T09:10:46.061Z</time></trkpt><trkpt lat="39.6695254" lon="21.6661561"><ele>173.0</ele><time>2026-04-28T09:10:47.061Z</time></trkpt><trkpt lat="39.6693468" lon="21.6663282"><ele>173.0</ele><time>2026-04-28T09:10:48.061Z</time></trkpt><trkpt lat="39.669171" lon="21.6665019"><ele>173.0</ele><time>2026-04-28T09:10:49.061Z</time></trkpt><trkpt lat="39.6689926" lon="21.6666739"><ele>173.0</ele><time>2026-04-28T09:10:50.061Z</time></trkpt><trkpt lat="39.6688104" lon="21.6668441"><ele>173.0</ele><time>2026-04-28T09:10:51.062Z</time></trkpt><trkpt lat="39.6686286" lon="21.6670152"><ele>173.0</ele><time>2026-04-28T09:10:52.061Z</time></trkpt><trkpt lat="39.6684484" lon="21.6671885"><ele>172.66666666666666</ele><time>2026-04-28T09:10:53.061Z</time></trkpt><trkpt lat="39.6682684" lon="21.6673615"><ele>172.33333333333334</ele><time>2026-04-28T09:10:54.061Z</time></trkpt><trkpt lat="39.6680887" lon="21.6675364"><ele>172.0</ele><time>2026-04-28T09:10:55.062Z</time></trkpt><trkpt lat="39.667909" lon="21.6677083"><ele>171.33333333333334</ele><time>2026-04-28T09:10:56.061Z</time></trkpt><trkpt lat="39.66773" lon="21.6678787"><ele>170.66666666666666</ele><time>2026-04-28T09:10:57.061Z</time></trkpt><trkpt lat="39.667551" lon="21.6680501"><ele>170.0</ele><time>2026-04-28T09:10:58.062Z</time></trkpt><trkpt lat="39.6673714" lon="21.668224"><ele>170.0</ele><time>2026-04-28T09:10:59.061Z</time></trkpt><trkpt lat="39.667191" lon="21.6683987"><ele>170.0</ele><time>2026-04-28T09:11:00.061Z</time></trkpt><trkpt lat="39.6670101" lon="21.6685738"><ele>170.0</ele><time>2026-04-28T09:11:01.062Z</time></trkpt><trkpt lat="39.666827" lon="21.6687503"><ele>170.0</ele><time>2026-04-28T09:11:02.062Z</time></trkpt><trkpt lat="39.66664" lon="21.6689272"><ele>170.0</ele><time>2026-04-28T09:11:03.061Z</time></trkpt><trkpt lat="39.6664523" lon="21.6691034"><ele>170.0</ele><time>2026-04-28T09:11:04.062Z</time></trkpt><trkpt lat="39.6662683" lon="21.6692824"><ele>169.5</ele><time>2026-04-28T09:11:05.061Z</time></trkpt><trkpt lat="39.6660823" lon="21.6694614"><ele>169.0</ele><time>2026-04-28T09:11:06.062Z</time></trkpt><trkpt lat="39.6658983" lon="21.6696448"><ele>169.0</ele><time>2026-04-28T09:11:07.062Z</time></trkpt><trkpt lat="39.6657155" lon="21.6698296"><ele>169.0</ele><time>2026-04-28T09:11:08.061Z</time></trkpt><trkpt lat="39.6655291" lon="21.6700138"><ele>169.0</ele><time>2026-04-28T09:11:09.061Z</time></trkpt><trkpt lat="39.6653416" lon="21.6701962"><ele>169.0</ele><time>2026-04-28T09:11:10.061Z</time></trkpt><trkpt lat="39.6651527" lon="21.6703802"><ele>168.0</ele><time>2026-04-28T09:11:11.061Z</time></trkpt><trkpt lat="39.6649639" lon="21.670565"><ele>167.0</ele><time>2026-04-28T09:11:12.062Z</time></trkpt><trkpt lat="39.664775" lon="21.6707483"><ele>167.0</ele><time>2026-04-28T09:11:13.061Z</time></trkpt><trkpt lat="39.6645851" lon="21.6709314"><ele>167.0</ele><time>2026-04-28T09:11:14.061Z</time></trkpt><trkpt lat="39.6643945" lon="21.6711136"><ele>167.0</ele><time>2026-04-28T09:11:15.062Z</time></trkpt><trkpt lat="39.6642024" lon="21.6712957"><ele>167.0</ele><time>2026-04-28T09:11:16.061Z</time></trkpt><trkpt lat="39.6640088" lon="21.6714757"><ele>167.0</ele><time>2026-04-28T09:11:17.062Z</time></trkpt><trkpt lat="39.6638161" lon="21.6716571"><ele>167.0</ele><time>2026-04-28T09:11:18.062Z</time></trkpt><trkpt lat="39.6636247" lon="21.6718402"><ele>166.5</ele><time>2026-04-28T09:11:19.062Z</time></trkpt><trkpt lat="39.6634303" lon="21.6720314"><ele>166.0</ele><time>2026-04-28T09:11:20.062Z</time></trkpt><trkpt lat="39.6632328" lon="21.6722276"><ele>166.0</ele><time>2026-04-28T09:11:21.062Z</time></trkpt><trkpt lat="39.663034" lon="21.6724189"><ele>166.0</ele><time>2026-04-28T09:11:22.061Z</time></trkpt><trkpt lat="39.6628365" lon="21.6726062"><ele>164.5</ele><time>2026-04-28T09:11:23.061Z</time></trkpt><trkpt lat="39.6626451" lon="21.672787"><ele>163.0</ele><time>2026-04-28T09:11:24.061Z</time></trkpt><trkpt lat="39.6624561" lon="21.6729632"><ele>163.0</ele><time>2026-04-28T09:11:25.061Z</time></trkpt><trkpt lat="39.6622714" lon="21.6731402"><ele>163.0</ele><time>2026-04-28T09:11:26.061Z</time></trkpt><trkpt lat="39.6620859" lon="21.6733154"><ele>164.0</ele><time>2026-04-28T09:11:27.061Z</time></trkpt><trkpt lat="39.6619029" lon="21.6734887"><ele>165.0</ele><time>2026-04-28T09:11:28.061Z</time></trkpt><trkpt lat="39.6617197" lon="21.6736606"><ele>165.0</ele><time>2026-04-28T09:11:29.061Z</time></trkpt><trkpt lat="39.6615473" lon="21.6738251"><ele>165.0</ele><time>2026-04-28T09:11:30.061Z</time></trkpt><trkpt lat="39.6613819" lon="21.6739873"><ele>165.0</ele><time>2026-04-28T09:11:31.062Z</time></trkpt><trkpt lat="39.6612196" lon="21.6741371"><ele>165.33333333333334</ele><time>2026-04-28T09:11:32.062Z</time></trkpt><trkpt lat="39.6610546" lon="21.6742994"><ele>165.66666666666669</ele><time>2026-04-28T09:11:33.061Z</time></trkpt><trkpt lat="39.6608912" lon="21.6744536"><ele>166.0</ele><time>2026-04-28T09:11:34.061Z</time></trkpt><trkpt lat="39.6607264" lon="21.6746095"><ele>166.0</ele><time>2026-04-28T09:11:35.062Z</time></trkpt><trkpt lat="39.6605582" lon="21.6747623"><ele>166.0</ele><time>2026-04-28T09:11:36.061Z</time></trkpt><trkpt lat="39.660388" lon="21.674912"><ele>166.0</ele><time>2026-04-28T09:11:37.061Z</time></trkpt><trkpt lat="39.6602192" lon="21.6750653"><ele>164.66666666666669</ele><time>2026-04-28T09:11:38.062Z</time></trkpt><trkpt lat="39.6600535" lon="21.6752182"><ele>163.33333333333334</ele><time>2026-04-28T09:11:39.062Z</time></trkpt><trkpt lat="39.6598915" lon="21.675372"><ele>162.0</ele><time>2026-04-28T09:11:40.062Z</time></trkpt><trkpt lat="39.6597309" lon="21.6755234"><ele>162.0</ele><time>2026-04-28T09:11:41.062Z</time></trkpt><trkpt lat="39.6595691" lon="21.6756753"><ele>162.0</ele><time>2026-04-28T09:11:42.062Z</time></trkpt><trkpt lat="39.6594085" lon="21.6758287"><ele>162.0</ele><time>2026-04-28T09:11:43.059Z</time></trkpt><trkpt lat="39.6592454" lon="21.6759809"><ele>162.33333333333334</ele><time>2026-04-28T09:11:44.062Z</time></trkpt><trkpt lat="39.6590817" lon="21.6761383"><ele>162.66666666666669</ele><time>2026-04-28T09:11:45.061Z</time></trkpt><trkpt lat="39.6589206" lon="21.6762956"><ele>163.0</ele><time>2026-04-28T09:11:46.062Z</time></trkpt><trkpt lat="39.6587568" lon="21.6764485"><ele>162.33333333333334</ele><time>2026-04-28T09:11:47.062Z</time></trkpt><trkpt lat="39.6585942" lon="21.6766034"><ele>161.66666666666666</ele><time>2026-04-28T09:11:48.061Z</time></trkpt><trkpt lat="39.658431" lon="21.6767561"><ele>161.0</ele><time>2026-04-28T09:11:49.062Z</time></trkpt><trkpt lat="39.6582697" lon="21.6769125"><ele>161.0</ele><time>2026-04-28T09:11:50.061Z</time></trkpt><trkpt lat="39.6581068" lon="21.6770669"><ele>161.0</ele><time>2026-04-28T09:11:51.062Z</time></trkpt><trkpt lat="39.6579431" lon="21.677221"><ele>161.0</ele><time>2026-04-28T09:11:52.062Z</time></trkpt><trkpt lat="39.6577787" lon="21.6773763"><ele>161.0</ele><time>2026-04-28T09:11:53.061Z</time></trkpt><trkpt lat="39.6576141" lon="21.6775318"><ele>161.0</ele><time>2026-04-28T09:11:54.061Z</time></trkpt><trkpt lat="39.6574502" lon="21.6776879"><ele>161.0</ele><time>2026-04-28T09:11:55.062Z</time></trkpt><trkpt lat="39.6572863" lon="21.677841"><ele>161.0</ele><time>2026-04-28T09:11:56.061Z</time></trkpt><trkpt lat="39.6571228" lon="21.6779954"><ele>161.0</ele><time>2026-04-28T09:11:57.061Z</time></trkpt><trkpt lat="39.6569582" lon="21.6781489"><ele>161.0</ele><time>2026-04-28T09:11:58.062Z</time></trkpt><trkpt lat="39.6567935" lon="21.6783"><ele>160.66666666666666</ele><time>2026-04-28T09:11:59.061Z</time></trkpt><trkpt lat="39.6566283" lon="21.6784521"><ele>160.33333333333334</ele><time>2026-04-28T09:12:00.062Z</time></trkpt><trkpt lat="39.6564611" lon="21.6786042"><ele>160.0</ele><time>2026-04-28T09:12:01.062Z</time></trkpt><trkpt lat="39.6562926" lon="21.6787573"><ele>160.0</ele><time>2026-04-28T09:12:02.061Z</time></trkpt><trkpt lat="39.656123" lon="21.6789132"><ele>160.0</ele><time>2026-04-28T09:12:03.061Z</time></trkpt><trkpt lat="39.655952" lon="21.6790704"><ele>160.0</ele><time>2026-04-28T09:12:04.062Z</time></trkpt><trkpt lat="39.65578" lon="21.6792279"><ele>160.0</ele><time>2026-04-28T09:12:05.062Z</time></trkpt><trkpt lat="39.6556079" lon="21.6793862"><ele>160.0</ele><time>2026-04-28T09:12:06.061Z</time></trkpt><trkpt lat="39.6554355" lon="21.6795452"><ele>160.0</ele><time>2026-04-28T09:12:07.061Z</time></trkpt><trkpt lat="39.6552599" lon="21.6797102"><ele>160.33333333333334</ele><time>2026-04-28T09:12:08.061Z</time></trkpt><trkpt lat="39.6550902" lon="21.6798708"><ele>160.66666666666666</ele><time>2026-04-28T09:12:09.061Z</time></trkpt><trkpt lat="39.6549241" lon="21.6800276"><ele>161.0</ele><time>2026-04-28T09:12:10.062Z</time></trkpt><trkpt lat="39.6547615" lon="21.6801829"><ele>160.66666666666666</ele><time>2026-04-28T09:12:11.062Z</time></trkpt><trkpt lat="39.6546011" lon="21.6803358"><ele>160.33333333333334</ele><time>2026-04-28T09:12:12.062Z</time></trkpt><trkpt lat="39.6544387" lon="21.680491"><ele>160.0</ele><time>2026-04-28T09:12:13.061Z</time></trkpt><trkpt lat="39.6542784" lon="21.6806459"><ele>160.0</ele><time>2026-04-28T09:12:14.062Z</time></trkpt><trkpt lat="39.6541155" lon="21.6808008"><ele>160.0</ele><time>2026-04-28T09:12:15.062Z</time></trkpt><trkpt lat="39.6539528" lon="21.6809572"><ele>160.0</ele><time>2026-04-28T09:12:16.061Z</time></trkpt><trkpt lat="39.6537891" lon="21.6811137"><ele>159.66666666666669</ele><time>2026-04-28T09:12:17.061Z</time></trkpt><trkpt lat="39.6536272" lon="21.6812714"><ele>159.33333333333334</ele><time>2026-04-28T09:12:18.061Z</time></trkpt><trkpt lat="39.653466" lon="21.6814311"><ele>159.0</ele><time>2026-04-28T09:12:19.061Z</time></trkpt><trkpt lat="39.6533041" lon="21.6815895"><ele>158.66666666666666</ele><time>2026-04-28T09:12:20.061Z</time></trkpt><trkpt lat="39.6531413" lon="21.6817482"><ele>158.33333333333331</ele><time>2026-04-28T09:12:21.061Z</time></trkpt><trkpt lat="39.6529773" lon="21.6819095"><ele>158.0</ele><time>2026-04-28T09:12:22.061Z</time></trkpt><trkpt lat="39.6528138" lon="21.6820718"><ele>158.0</ele><time>2026-04-28T09:12:23.061Z</time></trkpt><trkpt lat="39.6526503" lon="21.682237"><ele>158.0</ele><time>2026-04-28T09:12:24.062Z</time></trkpt><trkpt lat="39.6524845" lon="21.6824013"><ele>158.0</ele><time>2026-04-28T09:12:25.062Z</time></trkpt><trkpt lat="39.6523166" lon="21.6825638"><ele>158.0</ele><time>2026-04-28T09:12:26.062Z</time></trkpt><trkpt lat="39.6521501" lon="21.6827265"><ele>158.0</ele><time>2026-04-28T09:12:27.06Z</time></trkpt><trkpt lat="39.651983" lon="21.6828897"><ele>158.0</ele><time>2026-04-28T09:12:28.06Z</time></trkpt><trkpt lat="39.6518151" lon="21.6830518"><ele>157.33333333333331</ele><time>2026-04-28T09:12:29.06Z</time></trkpt><trkpt lat="39.6516465" lon="21.6832176"><ele>156.66666666666666</ele><time>2026-04-28T09:12:30.061Z</time></trkpt><trkpt lat="39.6514755" lon="21.6833857"><ele>156.0</ele><time>2026-04-28T09:12:31.061Z</time></trkpt><trkpt lat="39.6513023" lon="21.6835507"><ele>156.33333333333334</ele><time>2026-04-28T09:12:32.062Z</time></trkpt><trkpt lat="39.6511263" lon="21.6837179"><ele>156.66666666666669</ele><time>2026-04-28T09:12:33.061Z</time></trkpt><trkpt lat="39.6509524" lon="21.6838873"><ele>157.0</ele><time>2026-04-28T09:12:34.062Z</time></trkpt><trkpt lat="39.6507765" lon="21.6840601"><ele>157.0</ele><time>2026-04-28T09:12:35.06Z</time></trkpt><trkpt lat="39.6505976" lon="21.6842325"><ele>157.0</ele><time>2026-04-28T09:12:36.061Z</time></trkpt><trkpt lat="39.6504172" lon="21.6844048"><ele>157.0</ele><time>2026-04-28T09:12:37.061Z</time></trkpt><trkpt lat="39.650237" lon="21.6845768"><ele>156.5</ele><time>2026-04-28T09:12:38.061Z</time></trkpt><trkpt lat="39.6500528" lon="21.6847512"><ele>156.0</ele><time>2026-04-28T09:12:39.061Z</time></trkpt><trkpt lat="39.6498722" lon="21.6849256"><ele>156.0</ele><time>2026-04-28T09:12:40.062Z</time></trkpt><trkpt lat="39.6496932" lon="21.6851027"><ele>156.0</ele><time>2026-04-28T09:12:41.061Z</time></trkpt><trkpt lat="39.6495092" lon="21.6852752"><ele>155.0</ele><time>2026-04-28T09:12:42.061Z</time></trkpt><trkpt lat="39.6493254" lon="21.6854512"><ele>154.0</ele><time>2026-04-28T09:12:43.061Z</time></trkpt><trkpt lat="39.6491426" lon="21.6856277"><ele>154.0</ele><time>2026-04-28T09:12:44.061Z</time></trkpt><trkpt lat="39.6489589" lon="21.6858038"><ele>154.0</ele><time>2026-04-28T09:12:45.062Z</time></trkpt><trkpt lat="39.6487742" lon="21.6859771"><ele>153.5</ele><time>2026-04-28T09:12:46.062Z</time></trkpt><trkpt lat="39.6485896" lon="21.6861505"><ele>153.0</ele><time>2026-04-28T09:12:47.062Z</time></trkpt><trkpt lat="39.6484045" lon="21.6863277"><ele>153.0</ele><time>2026-04-28T09:12:48.062Z</time></trkpt><trkpt lat="39.6482188" lon="21.6865088"><ele>153.0</ele><time>2026-04-28T09:12:49.062Z</time></trkpt><trkpt lat="39.6480294" lon="21.6866912"><ele>153.0</ele><time>2026-04-28T09:12:50.061Z</time></trkpt><trkpt lat="39.6478391" lon="21.6868751"><ele>153.0</ele><time>2026-04-28T09:12:51.062Z</time></trkpt><trkpt lat="39.6476489" lon="21.6870571"><ele>153.5</ele><time>2026-04-28T09:12:52.058Z</time></trkpt><trkpt lat="39.6474525" lon="21.6872403"><ele>154.0</ele><time>2026-04-28T09:12:53.061Z</time></trkpt><trkpt lat="39.6472581" lon="21.6874252"><ele>154.0</ele><time>2026-04-28T09:12:54.06Z</time></trkpt><trkpt lat="39.6470628" lon="21.6876095"><ele>154.0</ele><time>2026-04-28T09:12:55.059Z</time></trkpt><trkpt lat="39.6468687" lon="21.6877966"><ele>153.5</ele><time>2026-04-28T09:12:56.06Z</time></trkpt><trkpt lat="39.6466745" lon="21.6879802"><ele>153.0</ele><time>2026-04-28T09:12:57.059Z</time></trkpt><trkpt lat="39.6464801" lon="21.6881632"><ele>153.0</ele><time>2026-04-28T09:12:58.061Z</time></trkpt><trkpt lat="39.6462855" lon="21.6883433"><ele>153.0</ele><time>2026-04-28T09:12:59.059Z</time></trkpt><trkpt lat="39.6460912" lon="21.6885271"><ele>152.5</ele><time>2026-04-28T09:13:00.06Z</time></trkpt><trkpt lat="39.6458955" lon="21.688713"><ele>152.0</ele><time>2026-04-28T09:13:01.059Z</time></trkpt><trkpt lat="39.6456993" lon="21.6889009"><ele>152.0</ele><time>2026-04-28T09:13:02.06Z</time></trkpt><trkpt lat="39.6455068" lon="21.6890892"><ele>152.0</ele><time>2026-04-28T09:13:03.059Z</time></trkpt><trkpt lat="39.6453139" lon="21.6892729"><ele>151.5</ele><time>2026-04-28T09:13:04.058Z</time></trkpt><trkpt lat="39.6451188" lon="21.6894538"><ele>151.0</ele><time>2026-04-28T09:13:05.06Z</time></trkpt><trkpt lat="39.6449272" lon="21.6896334"><ele>151.0</ele><time>2026-04-28T09:13:06.061Z</time></trkpt><trkpt lat="39.6447316" lon="21.6898167"><ele>151.0</ele><time>2026-04-28T09:13:07.06Z</time></trkpt><trkpt lat="39.6445417" lon="21.6899989"><ele>151.5</ele><time>2026-04-28T09:13:08.06Z</time></trkpt><trkpt lat="39.6443519" lon="21.6901794"><ele>152.0</ele><time>2026-04-28T09:13:09.061Z</time></trkpt><trkpt lat="39.6441632" lon="21.6903612"><ele>152.0</ele><time>2026-04-28T09:13:10.059Z</time></trkpt><trkpt lat="39.643976" lon="21.6905381"><ele>152.0</ele><time>2026-04-28T09:13:11.062Z</time></trkpt><trkpt lat="39.6437878" lon="21.6907139"><ele>152.0</ele><time>2026-04-28T09:13:12.061Z</time></trkpt><trkpt lat="39.6436002" lon="21.6908879"><ele>152.0</ele><time>2026-04-28T09:13:13.062Z</time></trkpt><trkpt lat="39.6434129" lon="21.6910645"><ele>151.5</ele><time>2026-04-28T09:13:14.061Z</time></trkpt><trkpt lat="39.643228" lon="21.6912392"><ele>151.0</ele><time>2026-04-28T09:13:15.061Z</time></trkpt><trkpt lat="39.6430426" lon="21.6914129"><ele>151.0</ele><time>2026-04-28T09:13:16.061Z</time></trkpt><trkpt lat="39.6428571" lon="21.6915894"><ele>151.0</ele><time>2026-04-28T09:13:17.062Z</time></trkpt><trkpt lat="39.6426722" lon="21.691766"><ele>150.5</ele><time>2026-04-28T09:13:18.06Z</time></trkpt><trkpt lat="39.6424868" lon="21.6919459"><ele>150.0</ele><time>2026-04-28T09:13:19.059Z</time></trkpt><trkpt lat="39.6423027" lon="21.692124"><ele>150.0</ele><time>2026-04-28T09:13:20.061Z</time></trkpt><trkpt lat="39.6421176" lon="21.6922999"><ele>150.0</ele><time>2026-04-28T09:13:21.061Z</time></trkpt><trkpt lat="39.6419339" lon="21.6924767"><ele>149.5</ele><time>2026-04-28T09:13:22.062Z</time></trkpt><trkpt lat="39.6417482" lon="21.6926515"><ele>149.0</ele><time>2026-04-28T09:13:23.059Z</time></trkpt><trkpt lat="39.6415623" lon="21.6928264"><ele>149.0</ele><time>2026-04-28T09:13:24.061Z</time></trkpt><trkpt lat="39.6413765" lon="21.6930011"><ele>149.0</ele><time>2026-04-28T09:13:25.062Z</time></trkpt><trkpt lat="39.6411911" lon="21.6931756"><ele>149.0</ele><time>2026-04-28T09:13:26.062Z</time></trkpt><trkpt lat="39.6410078" lon="21.693349"><ele>149.0</ele><time>2026-04-28T09:13:27.061Z</time></trkpt><trkpt lat="39.6408242" lon="21.6935255"><ele>149.0</ele><time>2026-04-28T09:13:28.062Z</time></trkpt><trkpt lat="39.6406409" lon="21.6937009"><ele>149.0</ele><time>2026-04-28T09:13:29.062Z</time></trkpt><trkpt lat="39.640457" lon="21.693876"><ele>148.5</ele><time>2026-04-28T09:13:30.06Z</time></trkpt><trkpt lat="39.6402727" lon="21.6940505"><ele>148.0</ele><time>2026-04-28T09:13:31.062Z</time></trkpt><trkpt lat="39.6400855" lon="21.6942246"><ele>148.0</ele><time>2026-04-28T09:13:32.06Z</time></trkpt><trkpt lat="39.6398989" lon="21.6943962"><ele>148.0</ele><time>2026-04-28T09:13:33.06Z</time></trkpt><trkpt lat="39.639712" lon="21.6945691"><ele>148.0</ele><time>2026-04-28T09:13:34.061Z</time></trkpt><trkpt lat="39.639528" lon="21.6947467"><ele>148.0</ele><time>2026-04-28T09:13:35.061Z</time></trkpt><trkpt lat="39.6393439" lon="21.6949215"><ele>148.0</ele><time>2026-04-28T09:13:36.061Z</time></trkpt><trkpt lat="39.6391603" lon="21.6950974"><ele>148.0</ele><time>2026-04-28T09:13:37.061Z</time></trkpt><trkpt lat="39.6389763" lon="21.695272"><ele>148.5</ele><time>2026-04-28T09:13:38.061Z</time></trkpt><trkpt lat="39.6387914" lon="21.6954442"><ele>149.0</ele><time>2026-04-28T09:13:39.061Z</time></trkpt><trkpt lat="39.638606" lon="21.6956182"><ele>149.0</ele><time>2026-04-28T09:13:40.061Z</time></trkpt><trkpt lat="39.6384205" lon="21.6957926"><ele>149.0</ele><time>2026-04-28T09:13:41.061Z</time></trkpt><trkpt lat="39.6382359" lon="21.6959677"><ele>148.0</ele><time>2026-04-28T09:13:42.062Z</time></trkpt><trkpt lat="39.6380493" lon="21.696142"><ele>147.0</ele><time>2026-04-28T09:13:43.062Z</time></trkpt><trkpt lat="39.6378623" lon="21.6963175"><ele>148.0</ele><time>2026-04-28T09:13:44.062Z</time></trkpt><trkpt lat="39.6376749" lon="21.6964916"><ele>149.0</ele><time>2026-04-28T09:13:45.061Z</time></trkpt><trkpt lat="39.6374887" lon="21.6966706"><ele>149.0</ele><time>2026-04-28T09:13:46.061Z</time></trkpt><trkpt lat="39.6373017" lon="21.6968483"><ele>149.0</ele><time>2026-04-28T09:13:47.062Z</time></trkpt><trkpt lat="39.6371148" lon="21.6970237"><ele>148.0</ele><time>2026-04-28T09:13:48.061Z</time></trkpt><trkpt lat="39.6369271" lon="21.697201"><ele>147.0</ele><time>2026-04-28T09:13:49.061Z</time></trkpt><trkpt lat="39.636738" lon="21.6973767"><ele>147.0</ele><time>2026-04-28T09:13:50.061Z</time></trkpt><trkpt lat="39.6365462" lon="21.6975492"><ele>147.0</ele><time>2026-04-28T09:13:51.061Z</time></trkpt><trkpt lat="39.6363567" lon="21.6977219"><ele>147.5</ele><time>2026-04-28T09:13:52.061Z</time></trkpt><trkpt lat="39.6361667" lon="21.6979008"><ele>148.0</ele><time>2026-04-28T09:13:53.062Z</time></trkpt><trkpt lat="39.6359767" lon="21.698082"><ele>149.0</ele><time>2026-04-28T09:13:54.062Z</time></trkpt><trkpt lat="39.6357904" lon="21.698259"><ele>150.0</ele><time>2026-04-28T09:13:55.059Z</time></trkpt><trkpt lat="39.6356116" lon="21.6984283"><ele>150.0</ele><time>2026-04-28T09:13:56.061Z</time></trkpt><trkpt lat="39.6354452" lon="21.6985826"><ele>150.0</ele><time>2026-04-28T09:13:57.062Z</time></trkpt><trkpt lat="39.635296" lon="21.6987243"><ele>150.0</ele><time>2026-04-28T09:13:58.061Z</time></trkpt><trkpt lat="39.6351618" lon="21.6988498"><ele>149.4</ele><time>2026-04-28T09:13:59.062Z</time></trkpt><trkpt lat="39.6350488" lon="21.6989562"><ele>148.8</ele><time>2026-04-28T09:14:00.06Z</time></trkpt><trkpt lat="39.6349519" lon="21.6990463"><ele>148.2</ele><time>2026-04-28T09:14:01.062Z</time></trkpt><trkpt lat="39.6348728" lon="21.6991183"><ele>147.6</ele><time>2026-04-28T09:14:02.061Z</time></trkpt><trkpt lat="39.6348107" lon="21.6991744"><ele>147.0</ele><time>2026-04-28T09:14:03.062Z</time></trkpt><trkpt lat="39.6347372" lon="21.6992412"><ele>147.0</ele><time>2026-04-28T09:14:05.061Z</time></trkpt><trkpt lat="39.6346683" lon="21.6992747"><ele>147.0</ele><time>2026-04-28T09:14:41.061Z</time></trkpt><trkpt lat="39.6345558" lon="21.6993858"><ele>147.0</ele><time>2026-04-28T09:14:43.059Z</time></trkpt><trkpt lat="39.6344486" lon="21.6994898"><ele>147.0</ele><time>2026-04-28T09:14:44.062Z</time></trkpt><trkpt lat="39.6343173" lon="21.6996161"><ele>147.0</ele><time>2026-04-28T09:14:45.061Z</time></trkpt><trkpt lat="39.6341445" lon="21.6997826"><ele>147.0</ele><time>2026-04-28T09:14:46.06Z</time></trkpt><trkpt lat="39.6339447" lon="21.6999788"><ele>147.0</ele><time>2026-04-28T09:14:47.06Z</time></trkpt><trkpt lat="39.6337129" lon="21.7001977"><ele>147.0</ele><time>2026-04-28T09:14:48.061Z</time></trkpt><trkpt lat="39.6334571" lon="21.7004401"><ele>145.0</ele><time>2026-04-28T09:14:49.062Z</time></trkpt><trkpt lat="39.6331824" lon="21.7007023"><ele>143.0</ele><time>2026-04-28T09:14:50.062Z</time></trkpt><trkpt lat="39.6328941" lon="21.7009768"><ele>142.5</ele><time>2026-04-28T09:14:51.062Z</time></trkpt><trkpt lat="39.6325913" lon="21.7012617"><ele>142.0</ele><time>2026-04-28T09:14:52.061Z</time></trkpt><trkpt lat="39.6322781" lon="21.7015521"><ele>142.0</ele><time>2026-04-28T09:14:53.062Z</time></trkpt><trkpt lat="39.6319816" lon="21.7018252"><ele>142.0</ele><time>2026-04-28T09:14:54.062Z</time></trkpt><trkpt lat="39.6317054" lon="21.702082"><ele>144.0</ele><time>2026-04-28T09:14:55.059Z</time></trkpt><trkpt lat="39.631449" lon="21.7023201"><ele>146.0</ele><time>2026-04-28T09:14:56.061Z</time></trkpt><trkpt lat="39.6312071" lon="21.7025433"><ele>145.0</ele><time>2026-04-28T09:14:57.061Z</time></trkpt><trkpt lat="39.6309746" lon="21.702761"><ele>144.0</ele><time>2026-04-28T09:14:58.061Z</time></trkpt><trkpt lat="39.6307454" lon="21.7029745"><ele>144.0</ele><time>2026-04-28T09:14:59.061Z</time></trkpt><trkpt lat="39.6305198" lon="21.7031863"><ele>144.0</ele><time>2026-04-28T09:15:00.06Z</time></trkpt><trkpt lat="39.6302947" lon="21.7033976"><ele>143.5</ele><time>2026-04-28T09:15:01.062Z</time></trkpt><trkpt lat="39.6300737" lon="21.703608"><ele>143.0</ele><time>2026-04-28T09:15:02.062Z</time></trkpt><trkpt lat="39.6298534" lon="21.7038163"><ele>143.0</ele><time>2026-04-28T09:15:03.061Z</time></trkpt><trkpt lat="39.6296344" lon="21.7040223"><ele>143.0</ele><time>2026-04-28T09:15:04.062Z</time></trkpt><trkpt lat="39.6294193" lon="21.7042252"><ele>142.0</ele><time>2026-04-28T09:15:05.062Z</time></trkpt><trkpt lat="39.6292108" lon="21.704425"><ele>141.0</ele><time>2026-04-28T09:15:06.062Z</time></trkpt><trkpt lat="39.6290115" lon="21.7046171"><ele>141.0</ele><time>2026-04-28T09:15:07.061Z</time></trkpt><trkpt lat="39.628815" lon="21.7048077"><ele>141.0</ele><time>2026-04-28T09:15:08.061Z</time></trkpt><trkpt lat="39.6286193" lon="21.7049977"><ele>141.5</ele><time>2026-04-28T09:15:09.061Z</time></trkpt><trkpt lat="39.6284203" lon="21.7051906"><ele>142.0</ele><time>2026-04-28T09:15:10.061Z</time></trkpt><trkpt lat="39.6282195" lon="21.7053836"><ele>142.0</ele><time>2026-04-28T09:15:11.061Z</time></trkpt><trkpt lat="39.6280184" lon="21.7055797"><ele>142.0</ele><time>2026-04-28T09:15:12.061Z</time></trkpt><trkpt lat="39.6278193" lon="21.7057742"><ele>142.0</ele><time>2026-04-28T09:15:13.062Z</time></trkpt><trkpt lat="39.6276262" lon="21.7059605"><ele>142.0</ele><time>2026-04-28T09:15:14.061Z</time></trkpt><trkpt lat="39.6274411" lon="21.7061371"><ele>142.0</ele><time>2026-04-28T09:15:15.061Z</time></trkpt><trkpt lat="39.6272591" lon="21.7063098"><ele>142.0</ele><time>2026-04-28T09:15:16.061Z</time></trkpt><trkpt lat="39.6270768" lon="21.7064804"><ele>141.66666666666669</ele><time>2026-04-28T09:15:17.061Z</time></trkpt><trkpt lat="39.6268963" lon="21.7066503"><ele>141.33333333333334</ele><time>2026-04-28T09:15:18.061Z</time></trkpt><trkpt lat="39.6267164" lon="21.7068121"><ele>141.0</ele><time>2026-04-28T09:15:19.061Z</time></trkpt><trkpt lat="39.6265347" lon="21.7069739"><ele>141.0</ele><time>2026-04-28T09:15:20.06Z</time></trkpt><trkpt lat="39.6263518" lon="21.7071385"><ele>141.0</ele><time>2026-04-28T09:15:21.061Z</time></trkpt><trkpt lat="39.6261698" lon="21.7073021"><ele>141.0</ele><time>2026-04-28T09:15:22.062Z</time></trkpt><trkpt lat="39.6259886" lon="21.7074656"><ele>140.66666666666666</ele><time>2026-04-28T09:15:23.06Z</time></trkpt><trkpt lat="39.625808" lon="21.7076254"><ele>140.33333333333331</ele><time>2026-04-28T09:15:24.062Z</time></trkpt><trkpt lat="39.6256272" lon="21.7077838"><ele>140.0</ele><time>2026-04-28T09:15:25.061Z</time></trkpt><trkpt lat="39.6254471" lon="21.7079417"><ele>139.0</ele><time>2026-04-28T09:15:26.061Z</time></trkpt><trkpt lat="39.6252703" lon="21.7081017"><ele>138.0</ele><time>2026-04-28T09:15:27.062Z</time></trkpt><trkpt lat="39.6250908" lon="21.7082621"><ele>137.0</ele><time>2026-04-28T09:15:28.061Z</time></trkpt><trkpt lat="39.624912" lon="21.7084186"><ele>137.66666666666666</ele><time>2026-04-28T09:15:29.062Z</time></trkpt><trkpt lat="39.6247369" lon="21.7085788"><ele>138.33333333333334</ele><time>2026-04-28T09:15:30.062Z</time></trkpt><trkpt lat="39.6245633" lon="21.7087311"><ele>139.0</ele><time>2026-04-28T09:15:31.061Z</time></trkpt><trkpt lat="39.6243928" lon="21.708884"><ele>139.0</ele><time>2026-04-28T09:15:32.062Z</time></trkpt><trkpt lat="39.6242246" lon="21.7090361"><ele>139.0</ele><time>2026-04-28T09:15:33.062Z</time></trkpt><trkpt lat="39.6240587" lon="21.7091856"><ele>139.0</ele><time>2026-04-28T09:15:34.061Z</time></trkpt><trkpt lat="39.6238967" lon="21.7093327"><ele>139.0</ele><time>2026-04-28T09:15:35.062Z</time></trkpt><trkpt lat="39.6237407" lon="21.7094708"><ele>139.0</ele><time>2026-04-28T09:15:36.062Z</time></trkpt><trkpt lat="39.6235925" lon="21.7096047"><ele>139.0</ele><time>2026-04-28T09:15:37.062Z</time></trkpt><trkpt lat="39.6234539" lon="21.7097249"><ele>138.66666666666669</ele><time>2026-04-28T09:15:38.062Z</time></trkpt><trkpt lat="39.6233195" lon="21.709837"><ele>138.33333333333334</ele><time>2026-04-28T09:15:39.061Z</time></trkpt><trkpt lat="39.6231837" lon="21.7099444"><ele>138.0</ele><time>2026-04-28T09:15:40.061Z</time></trkpt><trkpt lat="39.6230455" lon="21.710051"><ele>138.0</ele><time>2026-04-28T09:15:41.061Z</time></trkpt><trkpt lat="39.6229057" lon="21.7101566"><ele>138.0</ele><time>2026-04-28T09:15:42.059Z</time></trkpt><trkpt lat="39.6227741" lon="21.710262"><ele>138.0</ele><time>2026-04-28T09:15:43.061Z</time></trkpt><trkpt lat="39.6226484" lon="21.7103691"><ele>138.0</ele><time>2026-04-28T09:15:44.061Z</time></trkpt><trkpt lat="39.6225347" lon="21.7104799"><ele>138.0</ele><time>2026-04-28T09:15:45.061Z</time></trkpt><trkpt lat="39.622436" lon="21.7105862"><ele>138.0</ele><time>2026-04-28T09:15:46.062Z</time></trkpt><trkpt lat="39.6223453" lon="21.7106718"><ele>138.0</ele><time>2026-04-28T09:15:47.06Z</time></trkpt><trkpt lat="39.6222373" lon="21.7107138"><ele>138.0</ele><time>2026-04-28T09:15:48.062Z</time></trkpt><trkpt lat="39.6221274" lon="21.7107358"><ele>138.0</ele><time>2026-04-28T09:15:49.061Z</time></trkpt><trkpt lat="39.6220156" lon="21.7107502"><ele>138.0</ele><time>2026-04-28T09:15:50.062Z</time></trkpt><trkpt lat="39.621907" lon="21.7107789"><ele>138.0</ele><time>2026-04-28T09:15:51.061Z</time></trkpt><trkpt lat="39.6218115" lon="21.7108429"><ele>138.0</ele><time>2026-04-28T09:15:52.06Z</time></trkpt><trkpt lat="39.6217348" lon="21.7109498"><ele>138.0</ele><time>2026-04-28T09:15:53.061Z</time></trkpt><trkpt lat="39.6216717" lon="21.7110717"><ele>138.0</ele><time>2026-04-28T09:15:54.062Z</time></trkpt><trkpt lat="39.6216163" lon="21.711227"><ele>138.0</ele><time>2026-04-28T09:15:55.062Z</time></trkpt><trkpt lat="39.6215458" lon="21.7113894"><ele>138.0</ele><time>2026-04-28T09:15:56.061Z</time></trkpt><trkpt lat="39.6214354" lon="21.7115352"><ele>138.0</ele><time>2026-04-28T09:15:57.062Z</time></trkpt><trkpt lat="39.6212957" lon="21.7116684"><ele>138.0</ele><time>2026-04-28T09:15:58.062Z</time></trkpt><trkpt lat="39.621129" lon="21.7118039"><ele>138.0</ele><time>2026-04-28T09:15:59.061Z</time></trkpt><trkpt lat="39.6209638" lon="21.7119525"><ele>137.66666666666666</ele><time>2026-04-28T09:16:00.06Z</time></trkpt><trkpt lat="39.6207879" lon="21.712115"><ele>137.33333333333331</ele><time>2026-04-28T09:16:01.06Z</time></trkpt><trkpt lat="39.6206044" lon="21.712283"><ele>137.0</ele><time>2026-04-28T09:16:02.062Z</time></trkpt><trkpt lat="39.6204146" lon="21.7124555"><ele>137.0</ele><time>2026-04-28T09:16:03.062Z</time></trkpt><trkpt lat="39.6202214" lon="21.7126275"><ele>137.0</ele><time>2026-04-28T09:16:04.062Z</time></trkpt><trkpt lat="39.6200252" lon="21.7127958"><ele>136.0</ele><time>2026-04-28T09:16:05.062Z</time></trkpt><trkpt lat="39.6198318" lon="21.7129648"><ele>135.0</ele><time>2026-04-28T09:16:06.061Z</time></trkpt><trkpt lat="39.6196461" lon="21.7131291"><ele>135.5</ele><time>2026-04-28T09:16:07.062Z</time></trkpt><trkpt lat="39.6194611" lon="21.7132973"><ele>136.0</ele><time>2026-04-28T09:16:08.06Z</time></trkpt><trkpt lat="39.6192755" lon="21.7134641"><ele>138.0</ele><time>2026-04-28T09:16:09.061Z</time></trkpt><trkpt lat="39.6190864" lon="21.713633"><ele>140.0</ele><time>2026-04-28T09:16:10.061Z</time></trkpt><trkpt lat="39.6188931" lon="21.713804"><ele>140.0</ele><time>2026-04-28T09:16:11.061Z</time></trkpt><trkpt lat="39.6186967" lon="21.7139787"><ele>140.0</ele><time>2026-04-28T09:16:12.062Z</time></trkpt><trkpt lat="39.6184996" lon="21.7141567"><ele>139.0</ele><time>2026-04-28T09:16:13.061Z</time></trkpt><trkpt lat="39.6183063" lon="21.7143342"><ele>138.0</ele><time>2026-04-28T09:16:14.061Z</time></trkpt><trkpt lat="39.6181085" lon="21.7145112"><ele>138.0</ele><time>2026-04-28T09:16:15.062Z</time></trkpt><trkpt lat="39.6179087" lon="21.7146891"><ele>138.0</ele><time>2026-04-28T09:16:16.062Z</time></trkpt><trkpt lat="39.617705" lon="21.7148694"><ele>137.0</ele><time>2026-04-28T09:16:17.062Z</time></trkpt><trkpt lat="39.6175056" lon="21.7150487"><ele>136.0</ele><time>2026-04-28T09:16:18.062Z</time></trkpt><trkpt lat="39.6173088" lon="21.7152224"><ele>137.0</ele><time>2026-04-28T09:16:19.061Z</time></trkpt><trkpt lat="39.6171129" lon="21.7153968"><ele>138.0</ele><time>2026-04-28T09:16:20.061Z</time></trkpt><trkpt lat="39.616918" lon="21.7155698"><ele>135.0</ele><time>2026-04-28T09:16:21.061Z</time></trkpt><trkpt lat="39.6167218" lon="21.7157496"><ele>132.0</ele><time>2026-04-28T09:16:22.061Z</time></trkpt><trkpt lat="39.6165207" lon="21.71593"><ele>132.0</ele><time>2026-04-28T09:16:23.062Z</time></trkpt><trkpt lat="39.6163185" lon="21.7161106"><ele>132.0</ele><time>2026-04-28T09:16:24.062Z</time></trkpt><trkpt lat="39.6161143" lon="21.7162934"><ele>132.5</ele><time>2026-04-28T09:16:25.062Z</time></trkpt><trkpt lat="39.6159095" lon="21.7164757"><ele>133.0</ele><time>2026-04-28T09:16:26.062Z</time></trkpt><trkpt lat="39.6157042" lon="21.7166577"><ele>133.0</ele><time>2026-04-28T09:16:27.062Z</time></trkpt><trkpt lat="39.6154982" lon="21.7168408"><ele>133.0</ele><time>2026-04-28T09:16:28.062Z</time></trkpt><trkpt lat="39.61529" lon="21.7170247"><ele>132.5</ele><time>2026-04-28T09:16:29.062Z</time></trkpt><trkpt lat="39.6150792" lon="21.7172097"><ele>132.0</ele><time>2026-04-28T09:16:30.061Z</time></trkpt><trkpt lat="39.6148684" lon="21.7173976"><ele>132.0</ele><time>2026-04-28T09:16:31.062Z</time></trkpt><trkpt lat="39.6146567" lon="21.7175875"><ele>132.0</ele><time>2026-04-28T09:16:32.062Z</time></trkpt><trkpt lat="39.6144432" lon="21.7177779"><ele>131.5</ele><time>2026-04-28T09:16:33.062Z</time></trkpt><trkpt lat="39.6142308" lon="21.7179665"><ele>131.0</ele><time>2026-04-28T09:16:34.061Z</time></trkpt><trkpt lat="39.6140185" lon="21.7181551"><ele>131.0</ele><time>2026-04-28T09:16:35.062Z</time></trkpt><trkpt lat="39.6138098" lon="21.7183435"><ele>131.0</ele><time>2026-04-28T09:16:36.061Z</time></trkpt><trkpt lat="39.6136031" lon="21.718526"><ele>132.5</ele><time>2026-04-28T09:16:37.062Z</time></trkpt><trkpt lat="39.6133986" lon="21.7187079"><ele>134.0</ele><time>2026-04-28T09:16:38.062Z</time></trkpt><trkpt lat="39.6131942" lon="21.7188909"><ele>134.0</ele><time>2026-04-28T09:16:39.061Z</time></trkpt><trkpt lat="39.6129905" lon="21.7190735"><ele>134.0</ele><time>2026-04-28T09:16:40.062Z</time></trkpt><trkpt lat="39.6127871" lon="21.7192582"><ele>133.5</ele><time>2026-04-28T09:16:41.061Z</time></trkpt><trkpt lat="39.612582" lon="21.7194411"><ele>133.0</ele><time>2026-04-28T09:16:42.061Z</time></trkpt><trkpt lat="39.6123761" lon="21.7196257"><ele>133.0</ele><time>2026-04-28T09:16:43.062Z</time></trkpt><trkpt lat="39.612171" lon="21.7198078"><ele>133.0</ele><time>2026-04-28T09:16:44.062Z</time></trkpt><trkpt lat="39.6119668" lon="21.7199871"><ele>133.5</ele><time>2026-04-28T09:16:45.062Z</time></trkpt><trkpt lat="39.6117646" lon="21.7201631"><ele>134.0</ele><time>2026-04-28T09:16:46.062Z</time></trkpt><trkpt lat="39.6115636" lon="21.7203392"><ele>134.0</ele><time>2026-04-28T09:16:47.061Z</time></trkpt><trkpt lat="39.6113657" lon="21.7205171"><ele>134.0</ele><time>2026-04-28T09:16:48.062Z</time></trkpt><trkpt lat="39.6111715" lon="21.7206945"><ele>132.5</ele><time>2026-04-28T09:16:49.062Z</time></trkpt><trkpt lat="39.6109808" lon="21.7208712"><ele>131.0</ele><time>2026-04-28T09:16:50.062Z</time></trkpt><trkpt lat="39.6107889" lon="21.7210473"><ele>131.5</ele><time>2026-04-28T09:16:51.061Z</time></trkpt><trkpt lat="39.6105968" lon="21.7212196"><ele>132.0</ele><time>2026-04-28T09:16:52.062Z</time></trkpt><trkpt lat="39.6104061" lon="21.7213917"><ele>132.0</ele><time>2026-04-28T09:16:53.061Z</time></trkpt><trkpt lat="39.6102174" lon="21.7215604"><ele>132.0</ele><time>2026-04-28T09:16:54.061Z</time></trkpt><trkpt lat="39.6100278" lon="21.7217273"><ele>132.0</ele><time>2026-04-28T09:16:55.062Z</time></trkpt><trkpt lat="39.6098396" lon="21.7218935"><ele>132.0</ele><time>2026-04-28T09:16:56.061Z</time></trkpt><trkpt lat="39.6096519" lon="21.722057"><ele>131.5</ele><time>2026-04-28T09:16:57.061Z</time></trkpt><trkpt lat="39.6094649" lon="21.7222238"><ele>131.0</ele><time>2026-04-28T09:16:58.061Z</time></trkpt><trkpt lat="39.6092802" lon="21.7223901"><ele>131.0</ele><time>2026-04-28T09:16:59.062Z</time></trkpt><trkpt lat="39.6090989" lon="21.722554"><ele>131.0</ele><time>2026-04-28T09:17:00.06Z</time></trkpt><trkpt lat="39.608913" lon="21.7227172"><ele>131.0</ele><time>2026-04-28T09:17:01.059Z</time></trkpt><trkpt lat="39.6087241" lon="21.722884"><ele>130.5</ele><time>2026-04-28T09:17:02.062Z</time></trkpt><trkpt lat="39.6085356" lon="21.7230518"><ele>130.0</ele><time>2026-04-28T09:17:03.06Z</time></trkpt><trkpt lat="39.6083495" lon="21.7232219"><ele>130.0</ele><time>2026-04-28T09:17:04.06Z</time></trkpt><trkpt lat="39.608162" lon="21.7233894"><ele>130.0</ele><time>2026-04-28T09:17:05.061Z</time></trkpt><trkpt lat="39.6079754" lon="21.7235567"><ele>131.0</ele><time>2026-04-28T09:17:06.061Z</time></trkpt><trkpt lat="39.6077895" lon="21.7237235"><ele>132.0</ele><time>2026-04-28T09:17:07.061Z</time></trkpt><trkpt lat="39.607605" lon="21.7238891"><ele>132.0</ele><time>2026-04-28T09:17:08.062Z</time></trkpt><trkpt lat="39.6074201" lon="21.7240553"><ele>132.0</ele><time>2026-04-28T09:17:09.061Z</time></trkpt><trkpt lat="39.6072336" lon="21.7242221"><ele>132.0</ele><time>2026-04-28T09:17:10.061Z</time></trkpt><trkpt lat="39.6070457" lon="21.7243937"><ele>132.0</ele><time>2026-04-28T09:17:11.062Z</time></trkpt><trkpt lat="39.606855" lon="21.7245624"><ele>130.5</ele><time>2026-04-28T09:17:12.062Z</time></trkpt><trkpt lat="39.6066626" lon="21.7247302"><ele>129.0</ele><time>2026-04-28T09:17:13.061Z</time></trkpt><trkpt lat="39.6064717" lon="21.7249023"><ele>129.0</ele><time>2026-04-28T09:17:14.062Z</time></trkpt><trkpt lat="39.606278" lon="21.7250741"><ele>129.0</ele><time>2026-04-28T09:17:15.062Z</time></trkpt><trkpt lat="39.6060832" lon="21.7252502"><ele>130.0</ele><time>2026-04-28T09:17:16.061Z</time></trkpt><trkpt lat="39.6058879" lon="21.7254246"><ele>131.0</ele><time>2026-04-28T09:17:17.062Z</time></trkpt><trkpt lat="39.6056916" lon="21.7256004"><ele>131.0</ele><time>2026-04-28T09:17:18.062Z</time></trkpt><trkpt lat="39.6054951" lon="21.7257755"><ele>131.0</ele><time>2026-04-28T09:17:19.062Z</time></trkpt><trkpt lat="39.6052977" lon="21.7259534"><ele>129.5</ele><time>2026-04-28T09:17:20.061Z</time></trkpt><trkpt lat="39.605101" lon="21.7261303"><ele>128.0</ele><time>2026-04-28T09:17:21.062Z</time></trkpt><trkpt lat="39.6049042" lon="21.7263072"><ele>128.0</ele><time>2026-04-28T09:17:22.061Z</time></trkpt><trkpt lat="39.6047094" lon="21.7264835"><ele>128.0</ele><time>2026-04-28T09:17:23.061Z</time></trkpt><trkpt lat="39.6045145" lon="21.7266601"><ele>128.0</ele><time>2026-04-28T09:17:24.062Z</time></trkpt><trkpt lat="39.6043174" lon="21.7268348"><ele>128.0</ele><time>2026-04-28T09:17:25.061Z</time></trkpt><trkpt lat="39.604122" lon="21.7270095"><ele>128.5</ele><time>2026-04-28T09:17:26.061Z</time></trkpt><trkpt lat="39.6039274" lon="21.7271833"><ele>129.0</ele><time>2026-04-28T09:17:27.062Z</time></trkpt><trkpt lat="39.6037343" lon="21.7273547"><ele>129.0</ele><time>2026-04-28T09:17:28.06Z</time></trkpt><trkpt lat="39.6035411" lon="21.727526"><ele>129.0</ele><time>2026-04-28T09:17:29.06Z</time></trkpt><trkpt lat="39.6033504" lon="21.727696"><ele>129.33333333333334</ele><time>2026-04-28T09:17:30.062Z</time></trkpt><trkpt lat="39.6031639" lon="21.7278621"><ele>129.66666666666669</ele><time>2026-04-28T09:17:31.062Z</time></trkpt><trkpt lat="39.6029819" lon="21.7280255"><ele>130.0</ele><time>2026-04-28T09:17:32.062Z</time></trkpt><trkpt lat="39.6028016" lon="21.7281874"><ele>129.33333333333334</ele><time>2026-04-28T09:17:33.061Z</time></trkpt><trkpt lat="39.6026224" lon="21.7283481"><ele>128.66666666666666</ele><time>2026-04-28T09:17:34.062Z</time></trkpt><trkpt lat="39.6024441" lon="21.7285076"><ele>128.0</ele><time>2026-04-28T09:17:35.061Z</time></trkpt><trkpt lat="39.6022665" lon="21.7286692"><ele>128.0</ele><time>2026-04-28T09:17:36.062Z</time></trkpt><trkpt lat="39.602079" lon="21.7288335"><ele>128.0</ele><time>2026-04-28T09:17:37.061Z</time></trkpt><trkpt lat="39.6018941" lon="21.7290019"><ele>127.5</ele><time>2026-04-28T09:17:38.062Z</time></trkpt><trkpt lat="39.6017062" lon="21.7291693"><ele>127.0</ele><time>2026-04-28T09:17:39.061Z</time></trkpt><trkpt lat="39.6015179" lon="21.7293388"><ele>126.5</ele><time>2026-04-28T09:17:40.061Z</time></trkpt><trkpt lat="39.6013281" lon="21.7295057"><ele>126.0</ele><time>2026-04-28T09:17:41.062Z</time></trkpt><trkpt lat="39.6011398" lon="21.7296716"><ele>125.5</ele><time>2026-04-28T09:17:42.061Z</time></trkpt><trkpt lat="39.6009524" lon="21.7298381"><ele>125.0</ele><time>2026-04-28T09:17:43.061Z</time></trkpt><trkpt lat="39.600766" lon="21.7300048"><ele>125.0</ele><time>2026-04-28T09:17:44.062Z</time></trkpt><trkpt lat="39.6005793" lon="21.7301682"><ele>125.0</ele><time>2026-04-28T09:17:45.061Z</time></trkpt><trkpt lat="39.6003952" lon="21.730332"><ele>125.0</ele><time>2026-04-28T09:17:46.061Z</time></trkpt><trkpt lat="39.6002123" lon="21.7304969"><ele>125.0</ele><time>2026-04-28T09:17:47.062Z</time></trkpt><trkpt lat="39.6000302" lon="21.7306618"><ele>125.0</ele><time>2026-04-28T09:17:48.061Z</time></trkpt><trkpt lat="39.5998482" lon="21.7308254"><ele>125.0</ele><time>2026-04-28T09:17:49.061Z</time></trkpt><trkpt lat="39.599674" lon="21.7309834"><ele>125.0</ele><time>2026-04-28T09:17:50.061Z</time></trkpt><trkpt lat="39.5995085" lon="21.7311337"><ele>125.0</ele><time>2026-04-28T09:17:51.061Z</time></trkpt><trkpt lat="39.5993499" lon="21.7312775"><ele>125.0</ele><time>2026-04-28T09:17:52.062Z</time></trkpt><trkpt lat="39.5991972" lon="21.7314169"><ele>125.0</ele><time>2026-04-28T09:17:53.062Z</time></trkpt><trkpt lat="39.5990502" lon="21.7315494"><ele>125.0</ele><time>2026-04-28T09:17:54.061Z</time></trkpt><trkpt lat="39.5989199" lon="21.7316661"><ele>125.0</ele><time>2026-04-28T09:17:55.061Z</time></trkpt><trkpt lat="39.5988119" lon="21.7317649"><ele>125.0</ele><time>2026-04-28T09:17:56.062Z</time></trkpt><trkpt lat="39.5987202" lon="21.7318484"><ele>125.0</ele><time>2026-04-28T09:17:57.061Z</time></trkpt><trkpt lat="39.598647" lon="21.731917"><ele>125.0</ele><time>2026-04-28T09:17:58.061Z</time></trkpt><trkpt lat="39.5985886" lon="21.7319713"><ele>125.0</ele><time>2026-04-28T09:17:59.059Z</time></trkpt><trkpt lat="39.5985231" lon="21.7320348"><ele>125.0</ele><time>2026-04-28T09:18:01.061Z</time></trkpt><trkpt lat="39.5984242" lon="21.7321272"><ele>125.4</ele><time>2026-04-28T09:19:04.061Z</time></trkpt><trkpt lat="39.5983632" lon="21.7321821"><ele>125.8</ele><time>2026-04-28T09:19:05.061Z</time></trkpt><trkpt lat="39.5982969" lon="21.732241"><ele>126.19999999999999</ele><time>2026-04-28T09:19:06.062Z</time></trkpt><trkpt lat="39.5982099" lon="21.7323114"><ele>126.6</ele><time>2026-04-28T09:19:07.062Z</time></trkpt><trkpt lat="39.5981129" lon="21.7323896"><ele>127.0</ele><time>2026-04-28T09:19:08.061Z</time></trkpt><trkpt lat="39.5980131" lon="21.7324704"><ele>127.0</ele><time>2026-04-28T09:19:09.061Z</time></trkpt><trkpt lat="39.5979086" lon="21.7325628"><ele>127.0</ele><time>2026-04-28T09:19:10.061Z</time></trkpt><trkpt lat="39.5977985" lon="21.7326632"><ele>127.0</ele><time>2026-04-28T09:19:11.062Z</time></trkpt><trkpt lat="39.5976798" lon="21.7327667"><ele>127.0</ele><time>2026-04-28T09:19:12.037Z</time></trkpt><trkpt lat="39.597561" lon="21.7328722"><ele>126.33333333333334</ele><time>2026-04-28T09:19:13.031Z</time></trkpt><trkpt lat="39.5974379" lon="21.7329825"><ele>125.66666666666666</ele><time>2026-04-28T09:19:14.034Z</time></trkpt><trkpt lat="39.5973095" lon="21.7330972"><ele>125.0</ele><time>2026-04-28T09:19:15.034Z</time></trkpt><trkpt lat="39.5971763" lon="21.7332136"><ele>125.0</ele><time>2026-04-28T09:19:16.034Z</time></trkpt><trkpt lat="39.5970433" lon="21.7333281"><ele>125.0</ele><time>2026-04-28T09:19:17.031Z</time></trkpt><trkpt lat="39.5969043" lon="21.7334432"><ele>125.0</ele><time>2026-04-28T09:19:18.032Z</time></trkpt><trkpt lat="39.5967581" lon="21.7335543"><ele>124.66666666666666</ele><time>2026-04-28T09:19:19.031Z</time></trkpt><trkpt lat="39.5966027" lon="21.7336644"><ele>124.33333333333334</ele><time>2026-04-28T09:19:20.032Z</time></trkpt><trkpt lat="39.5964423" lon="21.7337709"><ele>124.0</ele><time>2026-04-28T09:19:21.032Z</time></trkpt><trkpt lat="39.5962794" lon="21.733872"><ele>124.66666666666667</ele><time>2026-04-28T09:19:22.032Z</time></trkpt><trkpt lat="39.5961177" lon="21.7339654"><ele>125.33333333333334</ele><time>2026-04-28T09:19:23.032Z</time></trkpt><trkpt lat="39.5959492" lon="21.7340551"><ele>126.0</ele><time>2026-04-28T09:19:24.032Z</time></trkpt><trkpt lat="39.5957788" lon="21.7341349"><ele>126.0</ele><time>2026-04-28T09:19:25.032Z</time></trkpt><trkpt lat="39.5956111" lon="21.7342031"><ele>126.0</ele><time>2026-04-28T09:19:26.032Z</time></trkpt><trkpt lat="39.595439" lon="21.7342676"><ele>126.0</ele><time>2026-04-28T09:19:27.031Z</time></trkpt><trkpt lat="39.5952577" lon="21.7343339"><ele>125.0</ele><time>2026-04-28T09:19:28.031Z</time></trkpt><trkpt lat="39.5950751" lon="21.7344005"><ele>124.0</ele><time>2026-04-28T09:19:29.032Z</time></trkpt><trkpt lat="39.5948865" lon="21.7344702"><ele>123.0</ele><time>2026-04-28T09:19:30.031Z</time></trkpt><trkpt lat="39.5946923" lon="21.7345416"><ele>123.66666666666666</ele><time>2026-04-28T09:19:31.031Z</time></trkpt><trkpt lat="39.5944808" lon="21.7346209"><ele>124.33333333333333</ele><time>2026-04-28T09:19:32.032Z</time></trkpt><trkpt lat="39.5942609" lon="21.7347054"><ele>125.0</ele><time>2026-04-28T09:19:33.032Z</time></trkpt><trkpt lat="39.5940292" lon="21.7347927"><ele>125.0</ele><time>2026-04-28T09:19:34.032Z</time></trkpt><trkpt lat="39.5937989" lon="21.7348781"><ele>125.0</ele><time>2026-04-28T09:19:35.032Z</time></trkpt><trkpt lat="39.5935561" lon="21.7349659"><ele>124.0</ele><time>2026-04-28T09:19:36.032Z</time></trkpt><trkpt lat="39.5933121" lon="21.735053"><ele>123.0</ele><time>2026-04-28T09:19:37.032Z</time></trkpt><trkpt lat="39.5930643" lon="21.7351442"><ele>124.0</ele><time>2026-04-28T09:19:38.031Z</time></trkpt><trkpt lat="39.592818" lon="21.7352362"><ele>125.0</ele><time>2026-04-28T09:19:39.032Z</time></trkpt><trkpt lat="39.5925632" lon="21.7353313"><ele>125.0</ele><time>2026-04-28T09:19:40.032Z</time></trkpt><trkpt lat="39.5923125" lon="21.735424"><ele>125.0</ele><time>2026-04-28T09:19:41.032Z</time></trkpt><trkpt lat="39.5920627" lon="21.7355165"><ele>125.0</ele><time>2026-04-28T09:19:42.031Z</time></trkpt><trkpt lat="39.5918188" lon="21.7356079"><ele>125.0</ele><time>2026-04-28T09:19:43.031Z</time></trkpt><trkpt lat="39.5915684" lon="21.7357016"><ele>125.0</ele><time>2026-04-28T09:19:44.032Z</time></trkpt><trkpt lat="39.5913205" lon="21.735793"><ele>125.0</ele><time>2026-04-28T09:19:45.032Z</time></trkpt><trkpt lat="39.5910786" lon="21.7358812"><ele>124.5</ele><time>2026-04-28T09:19:46.031Z</time></trkpt><trkpt lat="39.5908318" lon="21.7359725"><ele>124.0</ele><time>2026-04-28T09:19:47.031Z</time></trkpt><trkpt lat="39.590584" lon="21.7360638"><ele>123.5</ele><time>2026-04-28T09:19:48.032Z</time></trkpt><trkpt lat="39.5903323" lon="21.7361568"><ele>123.0</ele><time>2026-04-28T09:19:49.032Z</time></trkpt><trkpt lat="39.5900887" lon="21.7362466"><ele>123.0</ele><time>2026-04-28T09:19:50.031Z</time></trkpt><trkpt lat="39.5898419" lon="21.7363387"><ele>123.0</ele><time>2026-04-28T09:19:51.031Z</time></trkpt><trkpt lat="39.5895962" lon="21.7364306"><ele>123.5</ele><time>2026-04-28T09:19:52.032Z</time></trkpt><trkpt lat="39.5893466" lon="21.7365237"><ele>124.0</ele><time>2026-04-28T09:19:53.032Z</time></trkpt><trkpt lat="39.5891061" lon="21.7366163"><ele>124.0</ele><time>2026-04-28T09:19:54.032Z</time></trkpt><trkpt lat="39.5888636" lon="21.7367147"><ele>124.0</ele><time>2026-04-28T09:19:55.032Z</time></trkpt><trkpt lat="39.5886265" lon="21.7368168"><ele>122.5</ele><time>2026-04-28T09:19:56.032Z</time></trkpt><trkpt lat="39.5883978" lon="21.7369231"><ele>121.0</ele><time>2026-04-28T09:19:57.031Z</time></trkpt><trkpt lat="39.5881884" lon="21.7370262"><ele>121.0</ele><time>2026-04-28T09:19:58.031Z</time></trkpt><trkpt lat="39.5879905" lon="21.7371282"><ele>121.0</ele><time>2026-04-28T09:19:59.032Z</time></trkpt><trkpt lat="39.5878099" lon="21.7372252"><ele>121.0</ele><time>2026-04-28T09:20:00.032Z</time></trkpt><trkpt lat="39.5876468" lon="21.7373174"><ele>121.25</ele><time>2026-04-28T09:20:01.032Z</time></trkpt><trkpt lat="39.5875085" lon="21.7373983"><ele>121.5</ele><time>2026-04-28T09:20:02.031Z</time></trkpt><trkpt lat="39.587385" lon="21.7374687"><ele>121.75</ele><time>2026-04-28T09:20:03.032Z</time></trkpt><trkpt lat="39.5872636" lon="21.7375398"><ele>122.0</ele><time>2026-04-28T09:20:04.031Z</time></trkpt><trkpt lat="39.5871494" lon="21.7376091"><ele>122.0</ele><time>2026-04-28T09:20:05.031Z</time></trkpt><trkpt lat="39.5870426" lon="21.7376773"><ele>122.0</ele><time>2026-04-28T09:20:06.032Z</time></trkpt><trkpt lat="39.5869405" lon="21.737744"><ele>122.0</ele><time>2026-04-28T09:20:07.032Z</time></trkpt><trkpt lat="39.5868397" lon="21.7378133"><ele>122.0</ele><time>2026-04-28T09:20:08.031Z</time></trkpt><trkpt lat="39.5867456" lon="21.7378766"><ele>121.6</ele><time>2026-04-28T09:20:09.031Z</time></trkpt><trkpt lat="39.5866541" lon="21.7379382"><ele>121.19999999999999</ele><time>2026-04-28T09:20:10.032Z</time></trkpt><trkpt lat="39.5865647" lon="21.7379968"><ele>120.8</ele><time>2026-04-28T09:20:11.031Z</time></trkpt><trkpt lat="39.5864702" lon="21.7380546"><ele>120.4</ele><time>2026-04-28T09:20:12.032Z</time></trkpt><trkpt lat="39.5863765" lon="21.7381102"><ele>120.0</ele><time>2026-04-28T09:20:13.031Z</time></trkpt><trkpt lat="39.5862882" lon="21.7381597"><ele>120.0</ele><time>2026-04-28T09:20:14.031Z</time></trkpt><trkpt lat="39.5862095" lon="21.738205"><ele>120.0</ele><time>2026-04-28T09:20:15.031Z</time></trkpt><trkpt lat="39.5861295" lon="21.7382552"><ele>120.0</ele><time>2026-04-28T09:20:16.031Z</time></trkpt><trkpt lat="39.5860477" lon="21.7383084"><ele>120.0</ele><time>2026-04-28T09:20:17.032Z</time></trkpt><trkpt lat="39.5859552" lon="21.7383686"><ele>120.0</ele><time>2026-04-28T09:20:18.031Z</time></trkpt><trkpt lat="39.5858463" lon="21.7384386"><ele>120.0</ele><time>2026-04-28T09:20:19.032Z</time></trkpt><trkpt lat="39.5857113" lon="21.7385234"><ele>120.0</ele><time>2026-04-28T09:20:20.031Z</time></trkpt><trkpt lat="39.5855629" lon="21.7386156"><ele>120.0</ele><time>2026-04-28T09:20:21.032Z</time></trkpt><trkpt lat="39.5853945" lon="21.7387199"><ele>121.33333333333334</ele><time>2026-04-28T09:20:22.031Z</time></trkpt><trkpt lat="39.5852164" lon="21.7388256"><ele>122.66666666666667</ele><time>2026-04-28T09:20:23.032Z</time></trkpt><trkpt lat="39.5850335" lon="21.7389304"><ele>124.0</ele><time>2026-04-28T09:20:24.031Z</time></trkpt><trkpt lat="39.5848482" lon="21.7390431"><ele>124.0</ele><time>2026-04-28T09:20:25.031Z</time></trkpt><trkpt lat="39.5846676" lon="21.7391581"><ele>124.0</ele><time>2026-04-28T09:20:26.032Z</time></trkpt><trkpt lat="39.5844779" lon="21.7392806"><ele>124.0</ele><time>2026-04-28T09:20:27.031Z</time></trkpt><trkpt lat="39.5842827" lon="21.7394064"><ele>123.33333333333334</ele><time>2026-04-28T09:20:28.031Z</time></trkpt><trkpt lat="39.5840857" lon="21.7395333"><ele>122.66666666666666</ele><time>2026-04-28T09:20:29.032Z</time></trkpt><trkpt lat="39.583895" lon="21.7396547"><ele>122.0</ele><time>2026-04-28T09:20:30.031Z</time></trkpt><trkpt lat="39.5837005" lon="21.7397781"><ele>121.33333333333333</ele><time>2026-04-28T09:20:31.031Z</time></trkpt><trkpt lat="39.5835052" lon="21.7399019"><ele>120.66666666666666</ele><time>2026-04-28T09:20:32.032Z</time></trkpt><trkpt lat="39.5833048" lon="21.7400292"><ele>120.0</ele><time>2026-04-28T09:20:33.031Z</time></trkpt><trkpt lat="39.5831086" lon="21.7401524"><ele>120.0</ele><time>2026-04-28T09:20:34.032Z</time></trkpt><trkpt lat="39.5829072" lon="21.740278"><ele>120.0</ele><time>2026-04-28T09:20:35.032Z</time></trkpt><trkpt lat="39.5827051" lon="21.7404054"><ele>120.0</ele><time>2026-04-28T09:20:36.032Z</time></trkpt><trkpt lat="39.5825007" lon="21.7405346"><ele>120.0</ele><time>2026-04-28T09:20:37.032Z</time></trkpt><trkpt lat="39.5823033" lon="21.740661"><ele>120.0</ele><time>2026-04-28T09:20:38.032Z</time></trkpt><trkpt lat="39.5821096" lon="21.7407858"><ele>120.0</ele><time>2026-04-28T09:20:39.032Z</time></trkpt><trkpt lat="39.581911" lon="21.7409134"><ele>120.33333333333334</ele><time>2026-04-28T09:20:40.032Z</time></trkpt><trkpt lat="39.5817142" lon="21.7410395"><ele>120.66666666666667</ele><time>2026-04-28T09:20:41.032Z</time></trkpt><trkpt lat="39.5815155" lon="21.7411657"><ele>121.0</ele><time>2026-04-28T09:20:42.032Z</time></trkpt><trkpt lat="39.5813186" lon="21.7412904"><ele>119.5</ele><time>2026-04-28T09:20:43.031Z</time></trkpt><trkpt lat="39.5811155" lon="21.7414192"><ele>118.0</ele><time>2026-04-28T09:20:44.032Z</time></trkpt><trkpt lat="39.58091" lon="21.7415483"><ele>118.0</ele><time>2026-04-28T09:20:45.032Z</time></trkpt><trkpt lat="39.5807111" lon="21.7416746"><ele>118.0</ele><time>2026-04-28T09:20:46.031Z</time></trkpt><trkpt lat="39.5805098" lon="21.741804"><ele>118.0</ele><time>2026-04-28T09:20:47.032Z</time></trkpt><trkpt lat="39.5803092" lon="21.7419325"><ele>118.66666666666667</ele><time>2026-04-28T09:20:48.031Z</time></trkpt><trkpt lat="39.5801063" lon="21.7420615"><ele>119.33333333333334</ele><time>2026-04-28T09:20:49.031Z</time></trkpt><trkpt lat="39.5799105" lon="21.7421854"><ele>120.0</ele><time>2026-04-28T09:20:50.032Z</time></trkpt><trkpt lat="39.5797121" lon="21.742311"><ele>119.33333333333334</ele><time>2026-04-28T09:20:51.031Z</time></trkpt><trkpt lat="39.5795138" lon="21.7424357"><ele>118.66666666666667</ele><time>2026-04-28T09:20:52.032Z</time></trkpt><trkpt lat="39.5793126" lon="21.7425623"><ele>118.0</ele><time>2026-04-28T09:20:53.032Z</time></trkpt><trkpt lat="39.5791199" lon="21.7426838"><ele>118.66666666666667</ele><time>2026-04-28T09:20:54.031Z</time></trkpt><trkpt lat="39.5789261" lon="21.7428075"><ele>119.33333333333334</ele><time>2026-04-28T09:20:55.032Z</time></trkpt><trkpt lat="39.5787343" lon="21.7429318"><ele>120.0</ele><time>2026-04-28T09:20:56.031Z</time></trkpt><trkpt lat="39.5785409" lon="21.7430584"><ele>120.0</ele><time>2026-04-28T09:20:57.032Z</time></trkpt><trkpt lat="39.578353" lon="21.7431793"><ele>120.0</ele><time>2026-04-28T09:20:58.031Z</time></trkpt><trkpt lat="39.5781617" lon="21.7433006"><ele>120.0</ele><time>2026-04-28T09:20:59.031Z</time></trkpt><trkpt lat="39.5779692" lon="21.743421"><ele>119.66666666666666</ele><time>2026-04-28T09:21:00.031Z</time></trkpt><trkpt lat="39.5777729" lon="21.7435436"><ele>119.33333333333333</ele><time>2026-04-28T09:21:01.031Z</time></trkpt><trkpt lat="39.5775838" lon="21.7436635"><ele>119.0</ele><time>2026-04-28T09:21:02.032Z</time></trkpt><trkpt lat="39.5773929" lon="21.7437839"><ele>118.66666666666666</ele><time>2026-04-28T09:21:03.031Z</time></trkpt><trkpt lat="39.5772034" lon="21.7439033"><ele>118.33333333333334</ele><time>2026-04-28T09:21:04.031Z</time></trkpt><trkpt lat="39.5770126" lon="21.7440248"><ele>118.0</ele><time>2026-04-28T09:21:05.032Z</time></trkpt><trkpt lat="39.5768286" lon="21.7441426"><ele>118.0</ele><time>2026-04-28T09:21:06.032Z</time></trkpt><trkpt lat="39.5766426" lon="21.7442624"><ele>118.0</ele><time>2026-04-28T09:21:07.032Z</time></trkpt><trkpt lat="39.5764558" lon="21.7443805"><ele>118.0</ele><time>2026-04-28T09:21:08.032Z</time></trkpt><trkpt lat="39.5762648" lon="21.7445029"><ele>118.0</ele><time>2026-04-28T09:21:09.031Z</time></trkpt><trkpt lat="39.576079" lon="21.7446225"><ele>118.0</ele><time>2026-04-28T09:21:10.031Z</time></trkpt><trkpt lat="39.5758885" lon="21.7447444"><ele>118.0</ele><time>2026-04-28T09:21:11.032Z</time></trkpt><trkpt lat="39.5756968" lon="21.7448672"><ele>118.0</ele><time>2026-04-28T09:21:12.031Z</time></trkpt><trkpt lat="39.5755022" lon="21.7449921"><ele>118.0</ele><time>2026-04-28T09:21:13.031Z</time></trkpt><trkpt lat="39.5753138" lon="21.745113"><ele>118.0</ele><time>2026-04-28T09:21:14.031Z</time></trkpt><trkpt lat="39.5751219" lon="21.7452359"><ele>117.33333333333334</ele><time>2026-04-28T09:21:15.031Z</time></trkpt><trkpt lat="39.5749301" lon="21.7453622"><ele>116.66666666666666</ele><time>2026-04-28T09:21:16.031Z</time></trkpt><trkpt lat="39.5747349" lon="21.7454922"><ele>116.0</ele><time>2026-04-28T09:21:17.032Z</time></trkpt><trkpt lat="39.5745461" lon="21.7456177"><ele>116.66666666666666</ele><time>2026-04-28T09:21:18.032Z</time></trkpt><trkpt lat="39.5743597" lon="21.7457401"><ele>117.33333333333334</ele><time>2026-04-28T09:21:19.032Z</time></trkpt><trkpt lat="39.5741811" lon="21.7458544"><ele>118.0</ele><time>2026-04-28T09:21:20.031Z</time></trkpt><trkpt lat="39.5740074" lon="21.7459663"><ele>118.0</ele><time>2026-04-28T09:21:21.032Z</time></trkpt><trkpt lat="39.5738477" lon="21.7460696"><ele>118.0</ele><time>2026-04-28T09:21:22.032Z</time></trkpt><trkpt lat="39.5736906" lon="21.7461707"><ele>118.0</ele><time>2026-04-28T09:21:23.032Z</time></trkpt><trkpt lat="39.5735353" lon="21.7462699"><ele>118.0</ele><time>2026-04-28T09:21:24.032Z</time></trkpt><trkpt lat="39.5733773" lon="21.7463711"><ele>118.0</ele><time>2026-04-28T09:21:25.031Z</time></trkpt><trkpt lat="39.5732266" lon="21.746469"><ele>118.0</ele><time>2026-04-28T09:21:26.032Z</time></trkpt><trkpt lat="39.5730796" lon="21.7465648"><ele>118.0</ele><time>2026-04-28T09:21:27.032Z</time></trkpt><trkpt lat="39.5729415" lon="21.7466547"><ele>118.0</ele><time>2026-04-28T09:21:28.031Z</time></trkpt><trkpt lat="39.5728116" lon="21.7467412"><ele>118.0</ele><time>2026-04-28T09:21:29.031Z</time></trkpt><trkpt lat="39.5726985" lon="21.7468176"><ele>118.0</ele><time>2026-04-28T09:21:30.032Z</time></trkpt><trkpt lat="39.5725948" lon="21.7468863"><ele>117.80000000000001</ele><time>2026-04-28T09:21:31.031Z</time></trkpt><trkpt lat="39.5724991" lon="21.7469427"><ele>117.60000000000001</ele><time>2026-04-28T09:21:32.031Z</time></trkpt><trkpt lat="39.5724016" lon="21.7469857"><ele>117.39999999999999</ele><time>2026-04-28T09:21:33.031Z</time></trkpt><trkpt lat="39.5723094" lon="21.7470024"><ele>117.19999999999999</ele><time>2026-04-28T09:21:34.032Z</time></trkpt><trkpt lat="39.5722204" lon="21.7470034"><ele>117.0</ele><time>2026-04-28T09:21:35.032Z</time></trkpt><trkpt lat="39.5721369" lon="21.7470119"><ele>117.0</ele><time>2026-04-28T09:21:36.032Z</time></trkpt><trkpt lat="39.5720639" lon="21.7470493"><ele>117.0</ele><time>2026-04-28T09:21:37.031Z</time></trkpt><trkpt lat="39.5720123" lon="21.7471161"><ele>117.0</ele><time>2026-04-28T09:21:38.032Z</time></trkpt><trkpt lat="39.5719863" lon="21.7472049"><ele>117.0</ele><time>2026-04-28T09:21:39.032Z</time></trkpt><trkpt lat="39.5719836" lon="21.7473027"><ele>117.0</ele><time>2026-04-28T09:21:40.032Z</time></trkpt><trkpt lat="39.5719978" lon="21.7474049"><ele>117.0</ele><time>2026-04-28T09:21:41.031Z</time></trkpt><trkpt lat="39.5720191" lon="21.7475062"><ele>117.0</ele><time>2026-04-28T09:21:42.032Z</time></trkpt><trkpt lat="39.5720328" lon="21.7476166"><ele>116.99999999999999</ele><time>2026-04-28T09:21:43.032Z</time></trkpt><trkpt lat="39.572027" lon="21.7477363"><ele>116.99999999999999</ele><time>2026-04-28T09:21:44.032Z</time></trkpt><trkpt lat="39.5719961" lon="21.7478676"><ele>117.0</ele><time>2026-04-28T09:21:45.032Z</time></trkpt><trkpt lat="39.5719462" lon="21.7480037"><ele>117.0</ele><time>2026-04-28T09:21:46.032Z</time></trkpt><trkpt lat="39.5718838" lon="21.7481573"><ele>117.0</ele><time>2026-04-28T09:21:47.032Z</time></trkpt><trkpt lat="39.5718195" lon="21.7483229"><ele>117.0</ele><time>2026-04-28T09:21:48.032Z</time></trkpt><trkpt lat="39.5717594" lon="21.7484998"><ele>117.0</ele><time>2026-04-28T09:21:49.032Z</time></trkpt><trkpt lat="39.5717055" lon="21.7486797"><ele>117.0</ele><time>2026-04-28T09:21:50.032Z</time></trkpt><trkpt lat="39.5716554" lon="21.7488735"><ele>117.0</ele><time>2026-04-28T09:21:51.032Z</time></trkpt><trkpt lat="39.5716101" lon="21.7490769"><ele>117.0</ele><time>2026-04-28T09:21:52.032Z</time></trkpt><trkpt lat="39.5715674" lon="21.7492903"><ele>117.0</ele><time>2026-04-28T09:21:53.031Z</time></trkpt><trkpt lat="39.5715279" lon="21.7495017"><ele>116.66666666666666</ele><time>2026-04-28T09:21:54.032Z</time></trkpt><trkpt lat="39.5714902" lon="21.7497197"><ele>116.33333333333333</ele><time>2026-04-28T09:21:55.031Z</time></trkpt><trkpt lat="39.5714564" lon="21.7499355"><ele>116.0</ele><time>2026-04-28T09:21:56.032Z</time></trkpt><trkpt lat="39.5714257" lon="21.7501533"><ele>116.0</ele><time>2026-04-28T09:21:57.031Z</time></trkpt><trkpt lat="39.5713969" lon="21.7503655"><ele>116.0</ele><time>2026-04-28T09:21:58.031Z</time></trkpt><trkpt lat="39.5713665" lon="21.75058"><ele>116.0</ele><time>2026-04-28T09:21:59.032Z</time></trkpt><trkpt lat="39.5713375" lon="21.7507892"><ele>116.0</ele><time>2026-04-28T09:22:00.032Z</time></trkpt><trkpt lat="39.5713089" lon="21.7509934"><ele>116.0</ele><time>2026-04-28T09:22:01.032Z</time></trkpt><trkpt lat="39.5712827" lon="21.7511889"><ele>116.0</ele><time>2026-04-28T09:22:02.031Z</time></trkpt><trkpt lat="39.5712545" lon="21.7513932"><ele>115.66666666666666</ele><time>2026-04-28T09:22:03.031Z</time></trkpt><trkpt lat="39.5712238" lon="21.7516086"><ele>115.33333333333334</ele><time>2026-04-28T09:22:04.031Z</time></trkpt><trkpt lat="39.5711915" lon="21.7518447"><ele>115.0</ele><time>2026-04-28T09:22:05.032Z</time></trkpt><trkpt lat="39.5711596" lon="21.7520884"><ele>115.0</ele><time>2026-04-28T09:22:06.031Z</time></trkpt><trkpt lat="39.5711263" lon="21.7523418"><ele>115.0</ele><time>2026-04-28T09:22:07.032Z</time></trkpt><trkpt lat="39.5710918" lon="21.7525965"><ele>115.0</ele><time>2026-04-28T09:22:08.032Z</time></trkpt><trkpt lat="39.5710548" lon="21.7528542"><ele>115.0</ele><time>2026-04-28T09:22:09.032Z</time></trkpt><trkpt lat="39.571018" lon="21.7531017"><ele>115.0</ele><time>2026-04-28T09:22:10.031Z</time></trkpt><trkpt lat="39.5709811" lon="21.753351"><ele>115.0</ele><time>2026-04-28T09:22:11.032Z</time></trkpt><trkpt lat="39.5709447" lon="21.7535978"><ele>115.0</ele><time>2026-04-28T09:22:12.032Z</time></trkpt><trkpt lat="39.5709086" lon="21.7538476"><ele>115.0</ele><time>2026-04-28T09:22:13.032Z</time></trkpt><trkpt lat="39.570874" lon="21.7540889"><ele>115.0</ele><time>2026-04-28T09:22:14.032Z</time></trkpt><trkpt lat="39.5708401" lon="21.7543354"><ele>115.0</ele><time>2026-04-28T09:22:15.031Z</time></trkpt><trkpt lat="39.5708082" lon="21.7545769"><ele>115.0</ele><time>2026-04-28T09:22:16.031Z</time></trkpt><trkpt lat="39.5707769" lon="21.7548194"><ele>115.0</ele><time>2026-04-28T09:22:17.032Z</time></trkpt><trkpt lat="39.5707465" lon="21.7550521"><ele>114.33333333333334</ele><time>2026-04-28T09:22:18.032Z</time></trkpt><trkpt lat="39.5707156" lon="21.7552865"><ele>113.66666666666666</ele><time>2026-04-28T09:22:19.032Z</time></trkpt><trkpt lat="39.5706846" lon="21.7555199"><ele>113.0</ele><time>2026-04-28T09:22:20.031Z</time></trkpt><trkpt lat="39.5706533" lon="21.7557583"><ele>113.0</ele><time>2026-04-28T09:22:21.032Z</time></trkpt><trkpt lat="39.570621" lon="21.75599"><ele>113.0</ele><time>2026-04-28T09:22:22.032Z</time></trkpt><trkpt lat="39.5705883" lon="21.7562255"><ele>113.0</ele><time>2026-04-28T09:22:23.032Z</time></trkpt><trkpt lat="39.5705562" lon="21.7564607"><ele>113.0</ele><time>2026-04-28T09:22:24.032Z</time></trkpt><trkpt lat="39.5705237" lon="21.7566987"><ele>113.0</ele><time>2026-04-28T09:22:25.032Z</time></trkpt><trkpt lat="39.5704908" lon="21.7569296"><ele>113.0</ele><time>2026-04-28T09:22:26.031Z</time></trkpt><trkpt lat="39.5704561" lon="21.7571643"><ele>113.0</ele><time>2026-04-28T09:22:27.031Z</time></trkpt><trkpt lat="39.5704217" lon="21.757399"><ele>113.0</ele><time>2026-04-28T09:22:28.031Z</time></trkpt><trkpt lat="39.5703877" lon="21.7576377"><ele>113.0</ele><time>2026-04-28T09:22:29.032Z</time></trkpt><trkpt lat="39.5703557" lon="21.7578681"><ele>113.66666666666666</ele><time>2026-04-28T09:22:30.031Z</time></trkpt><trkpt lat="39.570322" lon="21.758101"><ele>114.33333333333334</ele><time>2026-04-28T09:22:31.032Z</time></trkpt><trkpt lat="39.5702878" lon="21.7583334"><ele>115.0</ele><time>2026-04-28T09:22:32.032Z</time></trkpt><trkpt lat="39.570254" lon="21.7585697"><ele>115.33333333333334</ele><time>2026-04-28T09:22:33.032Z</time></trkpt><trkpt lat="39.5702237" lon="21.758792"><ele>115.66666666666666</ele><time>2026-04-28T09:22:34.032Z</time></trkpt><trkpt lat="39.5701937" lon="21.7590118"><ele>116.0</ele><time>2026-04-28T09:22:35.032Z</time></trkpt><trkpt lat="39.5701648" lon="21.7592245"><ele>115.66666666666666</ele><time>2026-04-28T09:22:36.031Z</time></trkpt><trkpt lat="39.5701367" lon="21.7594298"><ele>115.33333333333334</ele><time>2026-04-28T09:22:37.032Z</time></trkpt><trkpt lat="39.5701102" lon="21.7596194"><ele>115.0</ele><time>2026-04-28T09:22:38.032Z</time></trkpt><trkpt lat="39.5700854" lon="21.7598015"><ele>115.0</ele><time>2026-04-28T09:22:39.031Z</time></trkpt><trkpt lat="39.5700611" lon="21.7599762"><ele>115.0</ele><time>2026-04-28T09:22:40.032Z</time></trkpt><trkpt lat="39.5700386" lon="21.7601437"><ele>115.0</ele><time>2026-04-28T09:22:41.032Z</time></trkpt><trkpt lat="39.5700188" lon="21.7602976"><ele>115.0</ele><time>2026-04-28T09:22:42.032Z</time></trkpt><trkpt lat="39.5700018" lon="21.7604454"><ele>114.6</ele><time>2026-04-28T09:22:43.032Z</time></trkpt><trkpt lat="39.5699868" lon="21.7605842"><ele>114.2</ele><time>2026-04-28T09:22:44.031Z</time></trkpt><trkpt lat="39.569972" lon="21.7607213"><ele>113.80000000000001</ele><time>2026-04-28T09:22:45.031Z</time></trkpt><trkpt lat="39.5699548" lon="21.7608549"><ele>113.4</ele><time>2026-04-28T09:22:46.032Z</time></trkpt><trkpt lat="39.5699335" lon="21.7609986"><ele>113.0</ele><time>2026-04-28T09:22:47.031Z</time></trkpt><trkpt lat="39.5699091" lon="21.7611528"><ele>114.5</ele><time>2026-04-28T09:22:48.031Z</time></trkpt><trkpt lat="39.569883" lon="21.7613251"><ele>116.0</ele><time>2026-04-28T09:22:49.031Z</time></trkpt><trkpt lat="39.5698526" lon="21.7615145"><ele>117.5</ele><time>2026-04-28T09:22:50.032Z</time></trkpt><trkpt lat="39.5698162" lon="21.7617232"><ele>119.0</ele><time>2026-04-28T09:22:51.031Z</time></trkpt><trkpt lat="39.5697732" lon="21.7619321"><ele>119.66666666666666</ele><time>2026-04-28T09:22:52.032Z</time></trkpt><trkpt lat="39.5697227" lon="21.7621479"><ele>120.33333333333334</ele><time>2026-04-28T09:22:53.031Z</time></trkpt><trkpt lat="39.5696712" lon="21.7623505"><ele>121.0</ele><time>2026-04-28T09:22:54.032Z</time></trkpt><trkpt lat="39.5696193" lon="21.7625439"><ele>121.5</ele><time>2026-04-28T09:22:55.032Z</time></trkpt><trkpt lat="39.5695674" lon="21.7627231"><ele>122.0</ele><time>2026-04-28T09:22:56.031Z</time></trkpt><trkpt lat="39.5695135" lon="21.7628952"><ele>122.5</ele><time>2026-04-28T09:22:57.032Z</time></trkpt><trkpt lat="39.5694609" lon="21.7630581"><ele>123.0</ele><time>2026-04-28T09:22:58.031Z</time></trkpt><trkpt lat="39.5694062" lon="21.7632181"><ele>123.0</ele><time>2026-04-28T09:22:59.032Z</time></trkpt><trkpt lat="39.5693507" lon="21.7633693"><ele>123.0</ele><time>2026-04-28T09:23:00.031Z</time></trkpt><trkpt lat="39.5692938" lon="21.7635155"><ele>123.0</ele><time>2026-04-28T09:23:01.032Z</time></trkpt><trkpt lat="39.5692384" lon="21.7636535"><ele>123.0</ele><time>2026-04-28T09:23:02.032Z</time></trkpt><trkpt lat="39.5691778" lon="21.7638004"><ele>123.0</ele><time>2026-04-28T09:23:03.031Z</time></trkpt><trkpt lat="39.5691126" lon="21.7639556"><ele>123.0</ele><time>2026-04-28T09:23:04.032Z</time></trkpt><trkpt lat="39.5690418" lon="21.7641245"><ele>123.0</ele><time>2026-04-28T09:23:05.032Z</time></trkpt><trkpt lat="39.5689696" lon="21.7642956"><ele>123.0</ele><time>2026-04-28T09:23:06.032Z</time></trkpt><trkpt lat="39.5688954" lon="21.7644738"><ele>123.0</ele><time>2026-04-28T09:23:07.032Z</time></trkpt><trkpt lat="39.5688205" lon="21.7646541"><ele>123.0</ele><time>2026-04-28T09:23:08.031Z</time></trkpt><trkpt lat="39.5687443" lon="21.7648384"><ele>123.0</ele><time>2026-04-28T09:23:09.031Z</time></trkpt><trkpt lat="39.5686698" lon="21.7650186"><ele>126.33333333333334</ele><time>2026-04-28T09:23:10.031Z</time></trkpt><trkpt lat="39.5685956" lon="21.7652037"><ele>129.66666666666669</ele><time>2026-04-28T09:23:11.031Z</time></trkpt><trkpt lat="39.5685221" lon="21.7653958"><ele>133.0</ele><time>2026-04-28T09:23:12.032Z</time></trkpt><trkpt lat="39.5684504" lon="21.7655916"><ele>133.0</ele><time>2026-04-28T09:23:13.031Z</time></trkpt><trkpt lat="39.5683824" lon="21.7657851"><ele>133.0</ele><time>2026-04-28T09:23:14.031Z</time></trkpt><trkpt lat="39.5683139" lon="21.7659859"><ele>133.0</ele><time>2026-04-28T09:23:15.032Z</time></trkpt><trkpt lat="39.5682482" lon="21.7661926"><ele>133.66666666666669</ele><time>2026-04-28T09:23:16.032Z</time></trkpt><trkpt lat="39.5681867" lon="21.7664083"><ele>134.33333333333334</ele><time>2026-04-28T09:23:17.031Z</time></trkpt><trkpt lat="39.5681301" lon="21.7666206"><ele>135.0</ele><time>2026-04-28T09:23:18.031Z</time></trkpt><trkpt lat="39.5680735" lon="21.7668324"><ele>134.66666666666666</ele><time>2026-04-28T09:23:19.032Z</time></trkpt><trkpt lat="39.568021" lon="21.7670433"><ele>134.33333333333331</ele><time>2026-04-28T09:23:20.032Z</time></trkpt><trkpt lat="39.5679724" lon="21.7672569"><ele>134.0</ele><time>2026-04-28T09:23:21.032Z</time></trkpt><trkpt lat="39.5679302" lon="21.7674624"><ele>134.0</ele><time>2026-04-28T09:23:22.032Z</time></trkpt><trkpt lat="39.5678893" lon="21.7676673"><ele>134.0</ele><time>2026-04-28T09:23:23.032Z</time></trkpt><trkpt lat="39.56785" lon="21.7678603"><ele>134.0</ele><time>2026-04-28T09:23:24.032Z</time></trkpt><trkpt lat="39.5678162" lon="21.7680303"><ele>131.66666666666666</ele><time>2026-04-28T09:23:25.031Z</time></trkpt><trkpt lat="39.5677894" lon="21.7681607"><ele>129.33333333333331</ele><time>2026-04-28T09:23:26.032Z</time></trkpt><trkpt lat="39.5677678" lon="21.7682634"><ele>127.0</ele><time>2026-04-28T09:23:27.031Z</time></trkpt><trkpt lat="39.5677496" lon="21.7683477"><ele>124.66666666666666</ele><time>2026-04-28T09:23:28.032Z</time></trkpt><trkpt lat="39.5677309" lon="21.7684294"><ele>122.33333333333333</ele><time>2026-04-28T09:23:29.031Z</time></trkpt><trkpt lat="39.5677106" lon="21.7685194"><ele>120.0</ele><time>2026-04-28T09:23:30.032Z</time></trkpt><trkpt lat="39.5676868" lon="21.7686339"><ele>120.0</ele><time>2026-04-28T09:23:31.032Z</time></trkpt><trkpt lat="39.5676599" lon="21.7687886"><ele>120.0</ele><time>2026-04-28T09:23:32.031Z</time></trkpt><trkpt lat="39.5676205" lon="21.7689968"><ele>120.0</ele><time>2026-04-28T09:23:33.032Z</time></trkpt><trkpt lat="39.5675662" lon="21.7692218"><ele>118.0</ele><time>2026-04-28T09:23:34.032Z</time></trkpt><trkpt lat="39.5675015" lon="21.7694787"><ele>116.0</ele><time>2026-04-28T09:23:35.031Z</time></trkpt><trkpt lat="39.5674386" lon="21.7697416"><ele>114.0</ele><time>2026-04-28T09:23:36.031Z</time></trkpt><trkpt lat="39.5673817" lon="21.7700068"><ele>112.33333333333334</ele><time>2026-04-28T09:23:37.031Z</time></trkpt><trkpt lat="39.567328" lon="21.7702626"><ele>110.66666666666667</ele><time>2026-04-28T09:23:38.032Z</time></trkpt><trkpt lat="39.5672735" lon="21.7705199"><ele>109.0</ele><time>2026-04-28T09:23:39.032Z</time></trkpt><trkpt lat="39.5672196" lon="21.7707753"><ele>108.33333333333334</ele><time>2026-04-28T09:23:40.032Z</time></trkpt><trkpt lat="39.5671642" lon="21.771035"><ele>107.66666666666666</ele><time>2026-04-28T09:23:41.031Z</time></trkpt><trkpt lat="39.567109" lon="21.7712903"><ele>107.0</ele><time>2026-04-28T09:23:42.031Z</time></trkpt><trkpt lat="39.5670526" lon="21.7715455"><ele>107.33333333333333</ele><time>2026-04-28T09:23:43.031Z</time></trkpt><trkpt lat="39.5669956" lon="21.7717978"><ele>107.66666666666666</ele><time>2026-04-28T09:23:44.031Z</time></trkpt><trkpt lat="39.5669374" lon="21.7720526"><ele>108.0</ele><time>2026-04-28T09:23:45.031Z</time></trkpt><trkpt lat="39.5668811" lon="21.7723006"><ele>108.66666666666666</ele><time>2026-04-28T09:23:46.031Z</time></trkpt><trkpt lat="39.5668232" lon="21.7725535"><ele>109.33333333333333</ele><time>2026-04-28T09:23:47.032Z</time></trkpt><trkpt lat="39.5667667" lon="21.7728029"><ele>110.0</ele><time>2026-04-28T09:23:48.031Z</time></trkpt><trkpt lat="39.5667111" lon="21.7730485"><ele>110.0</ele><time>2026-04-28T09:23:49.032Z</time></trkpt><trkpt lat="39.5666595" lon="21.7732761"><ele>110.0</ele><time>2026-04-28T09:23:50.031Z</time></trkpt><trkpt lat="39.5666099" lon="21.7734968"><ele>110.0</ele><time>2026-04-28T09:23:51.031Z</time></trkpt><trkpt lat="39.5665617" lon="21.7737103"><ele>110.33333333333333</ele><time>2026-04-28T09:23:52.032Z</time></trkpt><trkpt lat="39.5665141" lon="21.7739237"><ele>110.66666666666666</ele><time>2026-04-28T09:23:53.032Z</time></trkpt><trkpt lat="39.5664707" lon="21.774124"><ele>111.0</ele><time>2026-04-28T09:23:54.032Z</time></trkpt><trkpt lat="39.5664274" lon="21.7743223"><ele>110.66666666666666</ele><time>2026-04-28T09:23:55.032Z</time></trkpt><trkpt lat="39.5663852" lon="21.7745162"><ele>110.33333333333333</ele><time>2026-04-28T09:23:56.031Z</time></trkpt><trkpt lat="39.5663429" lon="21.774709"><ele>110.0</ele><time>2026-04-28T09:23:57.031Z</time></trkpt><trkpt lat="39.5663031" lon="21.7748925"><ele>110.0</ele><time>2026-04-28T09:23:58.031Z</time></trkpt><trkpt lat="39.5662654" lon="21.7750709"><ele>110.0</ele><time>2026-04-28T09:23:59.032Z</time></trkpt><trkpt lat="39.5662291" lon="21.7752435"><ele>110.0</ele><time>2026-04-28T09:24:00.031Z</time></trkpt><trkpt lat="39.5661929" lon="21.7754162"><ele>110.0</ele><time>2026-04-28T09:24:01.032Z</time></trkpt><trkpt lat="39.5661578" lon="21.7755872"><ele>110.25</ele><time>2026-04-28T09:24:02.031Z</time></trkpt><trkpt lat="39.5661248" lon="21.7757512"><ele>110.5</ele><time>2026-04-28T09:24:03.032Z</time></trkpt><trkpt lat="39.5660919" lon="21.7759093"><ele>110.75</ele><time>2026-04-28T09:24:04.032Z</time></trkpt><trkpt lat="39.5660617" lon="21.7760564"><ele>111.0</ele><time>2026-04-28T09:24:05.032Z</time></trkpt><trkpt lat="39.5660347" lon="21.7761918"><ele>111.0</ele><time>2026-04-28T09:24:06.032Z</time></trkpt><trkpt lat="39.5660114" lon="21.7763066"><ele>111.0</ele><time>2026-04-28T09:24:07.031Z</time></trkpt><trkpt lat="39.5659901" lon="21.7764078"><ele>111.0</ele><time>2026-04-28T09:24:08.031Z</time></trkpt><trkpt lat="39.5659722" lon="21.7764911"><ele>111.0</ele><time>2026-04-28T09:24:09.031Z</time></trkpt><trkpt lat="39.5659483" lon="21.7766081"><ele>111.0</ele><time>2026-04-28T09:24:11.031Z</time></trkpt><trkpt lat="39.5659262" lon="21.7766975"><ele>111.0</ele><time>2026-04-28T09:24:54.031Z</time></trkpt><trkpt lat="39.5658961" lon="21.776849"><ele>110.4</ele><time>2026-04-28T09:24:56.031Z</time></trkpt><trkpt lat="39.5658747" lon="21.7769548"><ele>109.8</ele><time>2026-04-28T09:24:57.032Z</time></trkpt><trkpt lat="39.5658459" lon="21.7770793"><ele>109.20000000000002</ele><time>2026-04-28T09:24:58.032Z</time></trkpt><trkpt lat="39.5658105" lon="21.7772152"><ele>108.60000000000001</ele><time>2026-04-28T09:24:59.032Z</time></trkpt><trkpt lat="39.5657662" lon="21.7773712"><ele>108.0</ele><time>2026-04-28T09:25:00.032Z</time></trkpt><trkpt lat="39.5657218" lon="21.7775308"><ele>107.0</ele><time>2026-04-28T09:25:01.031Z</time></trkpt><trkpt lat="39.5656743" lon="21.7776959"><ele>106.0</ele><time>2026-04-28T09:25:02.031Z</time></trkpt><trkpt lat="39.5656219" lon="21.7778643"><ele>105.0</ele><time>2026-04-28T09:25:03.032Z</time></trkpt><trkpt lat="39.5655617" lon="21.7780405"><ele>104.0</ele><time>2026-04-28T09:25:04.031Z</time></trkpt><trkpt lat="39.5654954" lon="21.778212"><ele>104.0</ele><time>2026-04-28T09:25:05.031Z</time></trkpt><trkpt lat="39.5654228" lon="21.7783822"><ele>104.0</ele><time>2026-04-28T09:25:06.032Z</time></trkpt><trkpt lat="39.5653469" lon="21.77855"><ele>104.0</ele><time>2026-04-28T09:25:07.031Z</time></trkpt><trkpt lat="39.565264" lon="21.7787222"><ele>105.33333333333333</ele><time>2026-04-28T09:25:08.032Z</time></trkpt><trkpt lat="39.5651749" lon="21.7788916"><ele>106.66666666666666</ele><time>2026-04-28T09:25:09.031Z</time></trkpt><trkpt lat="39.5650789" lon="21.7790574"><ele>108.0</ele><time>2026-04-28T09:25:10.031Z</time></trkpt><trkpt lat="39.5649774" lon="21.7792166"><ele>108.0</ele><time>2026-04-28T09:25:11.032Z</time></trkpt><trkpt lat="39.5648677" lon="21.7793719"><ele>108.0</ele><time>2026-04-28T09:25:12.032Z</time></trkpt><trkpt lat="39.5647526" lon="21.7795218"><ele>108.0</ele><time>2026-04-28T09:25:13.031Z</time></trkpt><trkpt lat="39.5646326" lon="21.7796643"><ele>108.0</ele><time>2026-04-28T09:25:14.031Z</time></trkpt><trkpt lat="39.5645066" lon="21.7798003"><ele>108.0</ele><time>2026-04-28T09:25:15.031Z</time></trkpt><trkpt lat="39.5643705" lon="21.7799348"><ele>108.0</ele><time>2026-04-28T09:25:16.032Z</time></trkpt><trkpt lat="39.5642313" lon="21.7800637"><ele>108.0</ele><time>2026-04-28T09:25:17.032Z</time></trkpt><trkpt lat="39.5640911" lon="21.7801845"><ele>108.0</ele><time>2026-04-28T09:25:18.031Z</time></trkpt><trkpt lat="39.563948" lon="21.7803018"><ele>108.0</ele><time>2026-04-28T09:25:19.032Z</time></trkpt><trkpt lat="39.5638029" lon="21.7804171"><ele>107.33333333333334</ele><time>2026-04-28T09:25:20.032Z</time></trkpt><trkpt lat="39.5636559" lon="21.7805317"><ele>106.66666666666667</ele><time>2026-04-28T09:25:21.032Z</time></trkpt><trkpt lat="39.5635131" lon="21.7806397"><ele>106.0</ele><time>2026-04-28T09:25:22.031Z</time></trkpt><trkpt lat="39.5633653" lon="21.7807479"><ele>106.0</ele><time>2026-04-28T09:25:23.032Z</time></trkpt><trkpt lat="39.5632141" lon="21.7808592"><ele>106.0</ele><time>2026-04-28T09:25:24.032Z</time></trkpt><trkpt lat="39.5630569" lon="21.7809767"><ele>106.0</ele><time>2026-04-28T09:25:25.031Z</time></trkpt><trkpt lat="39.5629008" lon="21.7810935"><ele>106.33333333333334</ele><time>2026-04-28T09:25:26.032Z</time></trkpt><trkpt lat="39.5627365" lon="21.7812177"><ele>106.66666666666666</ele><time>2026-04-28T09:25:27.031Z</time></trkpt><trkpt lat="39.5625638" lon="21.7813472"><ele>107.0</ele><time>2026-04-28T09:25:28.031Z</time></trkpt><trkpt lat="39.5623839" lon="21.7814819"><ele>107.0</ele><time>2026-04-28T09:25:29.031Z</time></trkpt><trkpt lat="39.5622081" lon="21.7816134"><ele>107.0</ele><time>2026-04-28T09:25:30.032Z</time></trkpt><trkpt lat="39.5620309" lon="21.7817469"><ele>107.0</ele><time>2026-04-28T09:25:31.031Z</time></trkpt><trkpt lat="39.561855" lon="21.7818799"><ele>106.66666666666666</ele><time>2026-04-28T09:25:32.031Z</time></trkpt><trkpt lat="39.5616768" lon="21.7820158"><ele>106.33333333333334</ele><time>2026-04-28T09:25:33.032Z</time></trkpt><trkpt lat="39.5615043" lon="21.7821476"><ele>106.0</ele><time>2026-04-28T09:25:34.031Z</time></trkpt><trkpt lat="39.5613274" lon="21.782282"><ele>106.0</ele><time>2026-04-28T09:25:35.032Z</time></trkpt><trkpt lat="39.5611509" lon="21.782416"><ele>106.0</ele><time>2026-04-28T09:25:36.032Z</time></trkpt><trkpt lat="39.5609727" lon="21.7825527"><ele>106.0</ele><time>2026-04-28T09:25:37.031Z</time></trkpt><trkpt lat="39.5607994" lon="21.7826854"><ele>106.0</ele><time>2026-04-28T09:25:38.032Z</time></trkpt><trkpt lat="39.5606246" lon="21.7828185"><ele>106.0</ele><time>2026-04-28T09:25:39.032Z</time></trkpt><trkpt lat="39.5604463" lon="21.7829528"><ele>106.0</ele><time>2026-04-28T09:25:40.032Z</time></trkpt><trkpt lat="39.5602716" lon="21.7830827"><ele>106.66666666666667</ele><time>2026-04-28T09:25:41.031Z</time></trkpt><trkpt lat="39.5600973" lon="21.7832116"><ele>107.33333333333334</ele><time>2026-04-28T09:25:42.032Z</time></trkpt><trkpt lat="39.5599271" lon="21.7833394"><ele>108.0</ele><time>2026-04-28T09:25:43.032Z</time></trkpt><trkpt lat="39.5597533" lon="21.7834702"><ele>107.66666666666666</ele><time>2026-04-28T09:25:44.031Z</time></trkpt><trkpt lat="39.55958" lon="21.7835996"><ele>107.33333333333333</ele><time>2026-04-28T09:25:45.032Z</time></trkpt><trkpt lat="39.5594146" lon="21.783724"><ele>107.0</ele><time>2026-04-28T09:25:46.031Z</time></trkpt><trkpt lat="39.5592477" lon="21.7838498"><ele>107.0</ele><time>2026-04-28T09:25:47.032Z</time></trkpt><trkpt lat="39.5590814" lon="21.7839758"><ele>107.0</ele><time>2026-04-28T09:25:48.031Z</time></trkpt><trkpt lat="39.558912" lon="21.7841038"><ele>107.0</ele><time>2026-04-28T09:25:49.032Z</time></trkpt><trkpt lat="39.5587469" lon="21.7842283"><ele>107.33333333333333</ele><time>2026-04-28T09:25:50.032Z</time></trkpt><trkpt lat="39.5585779" lon="21.7843536"><ele>107.66666666666666</ele><time>2026-04-28T09:25:51.031Z</time></trkpt><trkpt lat="39.5584083" lon="21.7844772"><ele>108.0</ele><time>2026-04-28T09:25:52.032Z</time></trkpt><trkpt lat="39.5582394" lon="21.7846042"><ele>108.0</ele><time>2026-04-28T09:25:53.031Z</time></trkpt><trkpt lat="39.5580853" lon="21.7847244"><ele>108.0</ele><time>2026-04-28T09:25:54.032Z</time></trkpt><trkpt lat="39.5579346" lon="21.7848404"><ele>108.0</ele><time>2026-04-28T09:25:55.032Z</time></trkpt><trkpt lat="39.5577845" lon="21.7849533"><ele>108.33333333333334</ele><time>2026-04-28T09:25:56.032Z</time></trkpt><trkpt lat="39.5576308" lon="21.7850674"><ele>108.66666666666667</ele><time>2026-04-28T09:25:57.031Z</time></trkpt><trkpt lat="39.5574821" lon="21.78518"><ele>109.0</ele><time>2026-04-28T09:25:58.032Z</time></trkpt><trkpt lat="39.5573316" lon="21.7852956"><ele>109.0</ele><time>2026-04-28T09:25:59.031Z</time></trkpt><trkpt lat="39.5571805" lon="21.7854107"><ele>109.0</ele><time>2026-04-28T09:26:00.032Z</time></trkpt><trkpt lat="39.5570273" lon="21.7855279"><ele>109.0</ele><time>2026-04-28T09:26:01.032Z</time></trkpt><trkpt lat="39.5568842" lon="21.7856391"><ele>109.0</ele><time>2026-04-28T09:26:02.031Z</time></trkpt><trkpt lat="39.5567462" lon="21.7857517"><ele>109.0</ele><time>2026-04-28T09:26:03.032Z</time></trkpt><trkpt lat="39.55662" lon="21.7858655"><ele>109.0</ele><time>2026-04-28T09:26:04.031Z</time></trkpt><trkpt lat="39.5565039" lon="21.7859907"><ele>109.0</ele><time>2026-04-28T09:26:05.031Z</time></trkpt><trkpt lat="39.5564056" lon="21.786126"><ele>109.0</ele><time>2026-04-28T09:26:06.032Z</time></trkpt><trkpt lat="39.5563205" lon="21.7862797"><ele>109.0</ele><time>2026-04-28T09:26:07.031Z</time></trkpt><trkpt lat="39.5562492" lon="21.7864478"><ele>109.0</ele><time>2026-04-28T09:26:08.032Z</time></trkpt><trkpt lat="39.5561903" lon="21.7866299"><ele>108.5</ele><time>2026-04-28T09:26:09.031Z</time></trkpt><trkpt lat="39.5561461" lon="21.7868095"><ele>108.0</ele><time>2026-04-28T09:26:10.031Z</time></trkpt><trkpt lat="39.5561137" lon="21.7869849"><ele>107.5</ele><time>2026-04-28T09:26:11.032Z</time></trkpt><trkpt lat="39.556092" lon="21.7871444"><ele>107.0</ele><time>2026-04-28T09:26:12.031Z</time></trkpt><trkpt lat="39.5560786" lon="21.7872818"><ele>106.83333333333333</ele><time>2026-04-28T09:26:13.032Z</time></trkpt><trkpt lat="39.5560706" lon="21.7873908"><ele>106.66666666666666</ele><time>2026-04-28T09:26:14.032Z</time></trkpt><trkpt lat="39.5560652" lon="21.7874901"><ele>106.5</ele><time>2026-04-28T09:26:15.031Z</time></trkpt><trkpt lat="39.5560595" lon="21.7875973"><ele>106.33333333333334</ele><time>2026-04-28T09:26:16.031Z</time></trkpt><trkpt lat="39.5560515" lon="21.7877149"><ele>106.16666666666667</ele><time>2026-04-28T09:26:17.031Z</time></trkpt><trkpt lat="39.5560422" lon="21.7878365"><ele>106.0</ele><time>2026-04-28T09:26:18.032Z</time></trkpt><trkpt lat="39.5560326" lon="21.7879766"><ele>106.33333333333334</ele><time>2026-04-28T09:26:19.031Z</time></trkpt><trkpt lat="39.5560217" lon="21.788152"><ele>106.66666666666666</ele><time>2026-04-28T09:26:20.032Z</time></trkpt><trkpt lat="39.556006" lon="21.7883596"><ele>107.0</ele><time>2026-04-28T09:26:21.031Z</time></trkpt><trkpt lat="39.5559878" lon="21.7885829"><ele>107.0</ele><time>2026-04-28T09:26:22.031Z</time></trkpt><trkpt lat="39.555969" lon="21.7888161"><ele>107.0</ele><time>2026-04-28T09:26:23.031Z</time></trkpt><trkpt lat="39.555948" lon="21.7890465"><ele>107.0</ele><time>2026-04-28T09:26:24.031Z</time></trkpt><trkpt lat="39.5559268" lon="21.7892783"><ele>106.66666666666666</ele><time>2026-04-28T09:26:25.031Z</time></trkpt><trkpt lat="39.5559056" lon="21.7894967"><ele>106.33333333333334</ele><time>2026-04-28T09:26:26.031Z</time></trkpt><trkpt lat="39.555886" lon="21.7897172"><ele>106.0</ele><time>2026-04-28T09:26:27.032Z</time></trkpt><trkpt lat="39.5558681" lon="21.7899346"><ele>106.0</ele><time>2026-04-28T09:26:28.032Z</time></trkpt><trkpt lat="39.5558509" lon="21.7901533"><ele>106.0</ele><time>2026-04-28T09:26:29.032Z</time></trkpt><trkpt lat="39.5558347" lon="21.7903627"><ele>106.0</ele><time>2026-04-28T09:26:30.032Z</time></trkpt><trkpt lat="39.5558182" lon="21.7905742"><ele>106.0</ele><time>2026-04-28T09:26:31.032Z</time></trkpt><trkpt lat="39.5558004" lon="21.7907837"><ele>106.0</ele><time>2026-04-28T09:26:32.032Z</time></trkpt><trkpt lat="39.5557801" lon="21.790996"><ele>106.0</ele><time>2026-04-28T09:26:33.032Z</time></trkpt><trkpt lat="39.5557606" lon="21.7912011"><ele>106.33333333333334</ele><time>2026-04-28T09:26:34.031Z</time></trkpt><trkpt lat="39.5557418" lon="21.7914096"><ele>106.66666666666666</ele><time>2026-04-28T09:26:35.032Z</time></trkpt><trkpt lat="39.5557239" lon="21.7916181"><ele>107.0</ele><time>2026-04-28T09:26:36.031Z</time></trkpt><trkpt lat="39.5557057" lon="21.7918287"><ele>106.33333333333333</ele><time>2026-04-28T09:26:37.031Z</time></trkpt><trkpt lat="39.5556879" lon="21.7920337"><ele>105.66666666666666</ele><time>2026-04-28T09:26:38.032Z</time></trkpt><trkpt lat="39.5556711" lon="21.7922427"><ele>105.0</ele><time>2026-04-28T09:26:39.032Z</time></trkpt><trkpt lat="39.5556551" lon="21.7924543"><ele>105.33333333333334</ele><time>2026-04-28T09:26:40.031Z</time></trkpt><trkpt lat="39.5556397" lon="21.7926732"><ele>105.66666666666667</ele><time>2026-04-28T09:26:41.032Z</time></trkpt><trkpt lat="39.5556262" lon="21.7928888"><ele>106.0</ele><time>2026-04-28T09:26:42.031Z</time></trkpt><trkpt lat="39.5556169" lon="21.7931139"><ele>106.0</ele><time>2026-04-28T09:26:43.032Z</time></trkpt><trkpt lat="39.5556108" lon="21.7933446"><ele>106.0</ele><time>2026-04-28T09:26:44.032Z</time></trkpt><trkpt lat="39.5556091" lon="21.7935851"><ele>106.0</ele><time>2026-04-28T09:26:45.032Z</time></trkpt><trkpt lat="39.555611" lon="21.7938176"><ele>106.33333333333334</ele><time>2026-04-28T09:26:46.032Z</time></trkpt><trkpt lat="39.5556165" lon="21.7940515"><ele>106.66666666666666</ele><time>2026-04-28T09:26:47.031Z</time></trkpt><trkpt lat="39.5556255" lon="21.7942843"><ele>107.0</ele><time>2026-04-28T09:26:48.031Z</time></trkpt><trkpt lat="39.5556404" lon="21.7945235"><ele>107.0</ele><time>2026-04-28T09:26:49.032Z</time></trkpt><trkpt lat="39.5556599" lon="21.7947578"><ele>107.0</ele><time>2026-04-28T09:26:50.032Z</time></trkpt><trkpt lat="39.5556812" lon="21.7949976"><ele>107.0</ele><time>2026-04-28T09:26:51.032Z</time></trkpt><trkpt lat="39.5557021" lon="21.7952376"><ele>106.66666666666666</ele><time>2026-04-28T09:26:52.032Z</time></trkpt><trkpt lat="39.5557232" lon="21.7954806"><ele>106.33333333333334</ele><time>2026-04-28T09:26:53.032Z</time></trkpt><trkpt lat="39.5557439" lon="21.7957154"><ele>106.0</ele><time>2026-04-28T09:26:54.032Z</time></trkpt><trkpt lat="39.5557655" lon="21.7959543"><ele>105.66666666666667</ele><time>2026-04-28T09:26:55.031Z</time></trkpt><trkpt lat="39.5557869" lon="21.796195"><ele>105.33333333333334</ele><time>2026-04-28T09:26:56.032Z</time></trkpt><trkpt lat="39.5558087" lon="21.7964426"><ele>105.0</ele><time>2026-04-28T09:26:57.031Z</time></trkpt><trkpt lat="39.5558303" lon="21.7966844"><ele>104.33333333333334</ele><time>2026-04-28T09:26:58.032Z</time></trkpt><trkpt lat="39.555853" lon="21.796932"><ele>103.66666666666667</ele><time>2026-04-28T09:26:59.032Z</time></trkpt><trkpt lat="39.5558741" lon="21.7971817"><ele>103.0</ele><time>2026-04-28T09:27:00.032Z</time></trkpt><trkpt lat="39.5558955" lon="21.7974367"><ele>103.0</ele><time>2026-04-28T09:27:01.031Z</time></trkpt><trkpt lat="39.555917" lon="21.7976828"><ele>103.0</ele><time>2026-04-28T09:27:02.032Z</time></trkpt><trkpt lat="39.5559399" lon="21.7979318"><ele>103.0</ele><time>2026-04-28T09:27:03.031Z</time></trkpt><trkpt lat="39.5559632" lon="21.7981793"><ele>103.0</ele><time>2026-04-28T09:27:04.031Z</time></trkpt><trkpt lat="39.555986" lon="21.7984304"><ele>103.0</ele><time>2026-04-28T09:27:05.031Z</time></trkpt><trkpt lat="39.5560073" lon="21.798672"><ele>103.0</ele><time>2026-04-28T09:27:06.031Z</time></trkpt><trkpt lat="39.5560279" lon="21.7989165"><ele>103.33333333333334</ele><time>2026-04-28T09:27:07.031Z</time></trkpt><trkpt lat="39.5560489" lon="21.7991593"><ele>103.66666666666666</ele><time>2026-04-28T09:27:08.031Z</time></trkpt><trkpt lat="39.5560701" lon="21.7994037"><ele>104.0</ele><time>2026-04-28T09:27:09.032Z</time></trkpt><trkpt lat="39.5560895" lon="21.7996384"><ele>104.0</ele><time>2026-04-28T09:27:10.032Z</time></trkpt><trkpt lat="39.5561085" lon="21.7998722"><ele>104.0</ele><time>2026-04-28T09:27:11.032Z</time></trkpt><trkpt lat="39.5561266" lon="21.8000973"><ele>104.0</ele><time>2026-04-28T09:27:12.031Z</time></trkpt><trkpt lat="39.5561441" lon="21.8003165"><ele>104.25</ele><time>2026-04-28T09:27:13.032Z</time></trkpt><trkpt lat="39.5561607" lon="21.8005177"><ele>104.5</ele><time>2026-04-28T09:27:14.032Z</time></trkpt><trkpt lat="39.5561766" lon="21.8007099"><ele>104.75</ele><time>2026-04-28T09:27:15.031Z</time></trkpt><trkpt lat="39.5561906" lon="21.8008912"><ele>105.0</ele><time>2026-04-28T09:27:16.031Z</time></trkpt><trkpt lat="39.5562023" lon="21.8010636"><ele>105.4</ele><time>2026-04-28T09:27:17.031Z</time></trkpt><trkpt lat="39.5562095" lon="21.8012192"><ele>105.8</ele><time>2026-04-28T09:27:18.031Z</time></trkpt><trkpt lat="39.556213" lon="21.8013688"><ele>106.19999999999999</ele><time>2026-04-28T09:27:19.031Z</time></trkpt><trkpt lat="39.5562142" lon="21.801507"><ele>106.6</ele><time>2026-04-28T09:27:20.031Z</time></trkpt><trkpt lat="39.5562075" lon="21.8016357"><ele>107.0</ele><time>2026-04-28T09:27:21.032Z</time></trkpt><trkpt lat="39.5561853" lon="21.8017533"><ele>106.83333333333333</ele><time>2026-04-28T09:27:22.032Z</time></trkpt><trkpt lat="39.5561435" lon="21.8018536"><ele>106.66666666666666</ele><time>2026-04-28T09:27:23.031Z</time></trkpt><trkpt lat="39.5560849" lon="21.8019208"><ele>106.5</ele><time>2026-04-28T09:27:24.032Z</time></trkpt><trkpt lat="39.5560086" lon="21.8019566"><ele>106.33333333333334</ele><time>2026-04-28T09:27:25.032Z</time></trkpt><trkpt lat="39.5559177" lon="21.8019641"><ele>106.16666666666667</ele><time>2026-04-28T09:27:26.031Z</time></trkpt><trkpt lat="39.55581" lon="21.8019572"><ele>106.0</ele><time>2026-04-28T09:27:27.031Z</time></trkpt><trkpt lat="39.5556824" lon="21.8019401"><ele>106.0</ele><time>2026-04-28T09:27:28.031Z</time></trkpt><trkpt lat="39.5555498" lon="21.8019197"><ele>106.0</ele><time>2026-04-28T09:27:29.031Z</time></trkpt><trkpt lat="39.555412" lon="21.8019007"><ele>106.0</ele><time>2026-04-28T09:27:30.031Z</time></trkpt><trkpt lat="39.5552594" lon="21.8018809"><ele>106.0</ele><time>2026-04-28T09:27:31.032Z</time></trkpt><trkpt lat="39.5550937" lon="21.8018598"><ele>105.33333333333334</ele><time>2026-04-28T09:27:32.031Z</time></trkpt><trkpt lat="39.5549256" lon="21.8018381"><ele>104.66666666666666</ele><time>2026-04-28T09:27:33.032Z</time></trkpt><trkpt lat="39.5547585" lon="21.8018198"><ele>104.0</ele><time>2026-04-28T09:27:34.031Z</time></trkpt><trkpt lat="39.5545834" lon="21.8018027"><ele>103.66666666666666</ele><time>2026-04-28T09:27:35.031Z</time></trkpt><trkpt lat="39.5544034" lon="21.8017871"><ele>103.33333333333334</ele><time>2026-04-28T09:27:36.032Z</time></trkpt><trkpt lat="39.5542169" lon="21.8017716"><ele>103.0</ele><time>2026-04-28T09:27:37.032Z</time></trkpt><trkpt lat="39.5540347" lon="21.801754"><ele>103.0</ele><time>2026-04-28T09:27:38.032Z</time></trkpt><trkpt lat="39.5538483" lon="21.8017328"><ele>103.0</ele><time>2026-04-28T09:27:39.031Z</time></trkpt><trkpt lat="39.5536626" lon="21.8017077"><ele>103.0</ele><time>2026-04-28T09:27:40.031Z</time></trkpt><trkpt lat="39.553474" lon="21.8016774"><ele>104.0</ele><time>2026-04-28T09:27:41.032Z</time></trkpt><trkpt lat="39.5532903" lon="21.8016425"><ele>105.0</ele><time>2026-04-28T09:27:42.032Z</time></trkpt><trkpt lat="39.5531046" lon="21.801607"><ele>106.0</ele><time>2026-04-28T09:27:43.032Z</time></trkpt><trkpt lat="39.5529171" lon="21.8015775"><ele>105.66666666666667</ele><time>2026-04-28T09:27:44.032Z</time></trkpt><trkpt lat="39.5527284" lon="21.8015499"><ele>105.33333333333334</ele><time>2026-04-28T09:27:45.031Z</time></trkpt><trkpt lat="39.5525456" lon="21.8015212"><ele>105.0</ele><time>2026-04-28T09:27:46.032Z</time></trkpt><trkpt lat="39.5523585" lon="21.8014919"><ele>105.0</ele><time>2026-04-28T09:27:47.032Z</time></trkpt><trkpt lat="39.5521712" lon="21.8014652"><ele>105.0</ele><time>2026-04-28T09:27:48.031Z</time></trkpt><trkpt lat="39.5519811" lon="21.8014409"><ele>105.0</ele><time>2026-04-28T09:27:49.032Z</time></trkpt><trkpt lat="39.5517964" lon="21.8014205"><ele>104.0</ele><time>2026-04-28T09:27:50.032Z</time></trkpt><trkpt lat="39.5516079" lon="21.8014003"><ele>103.0</ele><time>2026-04-28T09:27:51.031Z</time></trkpt><trkpt lat="39.5514208" lon="21.8013808"><ele>102.0</ele><time>2026-04-28T09:27:52.031Z</time></trkpt><trkpt lat="39.5512321" lon="21.8013609"><ele>102.33333333333334</ele><time>2026-04-28T09:27:53.031Z</time></trkpt><trkpt lat="39.5510543" lon="21.8013404"><ele>102.66666666666667</ele><time>2026-04-28T09:27:54.031Z</time></trkpt><trkpt lat="39.5508768" lon="21.8013157"><ele>103.0</ele><time>2026-04-28T09:27:55.031Z</time></trkpt><trkpt lat="39.5507024" lon="21.8012875"><ele>103.0</ele><time>2026-04-28T09:27:56.032Z</time></trkpt><trkpt lat="39.5505309" lon="21.8012444"><ele>103.0</ele><time>2026-04-28T09:27:57.032Z</time></trkpt><trkpt lat="39.5503719" lon="21.8011843"><ele>103.0</ele><time>2026-04-28T09:27:58.032Z</time></trkpt><trkpt lat="39.5502184" lon="21.8011065"><ele>103.66666666666667</ele><time>2026-04-28T09:27:59.031Z</time></trkpt><trkpt lat="39.5500731" lon="21.8010162"><ele>104.33333333333334</ele><time>2026-04-28T09:28:00.032Z</time></trkpt><trkpt lat="39.5499295" lon="21.8009142"><ele>105.0</ele><time>2026-04-28T09:28:01.032Z</time></trkpt><trkpt lat="39.5497939" lon="21.8008046"><ele>105.0</ele><time>2026-04-28T09:28:02.032Z</time></trkpt><trkpt lat="39.5496607" lon="21.8006775"><ele>105.0</ele><time>2026-04-28T09:28:03.032Z</time></trkpt><trkpt lat="39.5495324" lon="21.8005337"><ele>105.0</ele><time>2026-04-28T09:28:04.031Z</time></trkpt><trkpt lat="39.549408" lon="21.8003742"><ele>105.66666666666666</ele><time>2026-04-28T09:28:05.031Z</time></trkpt><trkpt lat="39.5492937" lon="21.8002072"><ele>106.33333333333333</ele><time>2026-04-28T09:28:06.032Z</time></trkpt><trkpt lat="39.5491858" lon="21.8000264"><ele>107.0</ele><time>2026-04-28T09:28:07.032Z</time></trkpt><trkpt lat="39.5490834" lon="21.7998386"><ele>105.66666666666666</ele><time>2026-04-28T09:28:08.032Z</time></trkpt><trkpt lat="39.5489816" lon="21.7996433"><ele>104.33333333333334</ele><time>2026-04-28T09:28:09.031Z</time></trkpt><trkpt lat="39.5488826" lon="21.7994486"><ele>103.0</ele><time>2026-04-28T09:28:10.032Z</time></trkpt><trkpt lat="39.5487805" lon="21.7992458"><ele>103.0</ele><time>2026-04-28T09:28:11.032Z</time></trkpt><trkpt lat="39.5486763" lon="21.7990396"><ele>103.0</ele><time>2026-04-28T09:28:12.032Z</time></trkpt><trkpt lat="39.5485671" lon="21.7988274"><ele>103.0</ele><time>2026-04-28T09:28:13.031Z</time></trkpt><trkpt lat="39.5484569" lon="21.7986236"><ele>102.0</ele><time>2026-04-28T09:28:14.031Z</time></trkpt><trkpt lat="39.5483404" lon="21.7984235"><ele>101.0</ele><time>2026-04-28T09:28:15.032Z</time></trkpt><trkpt lat="39.5482117" lon="21.7982313"><ele>100.0</ele><time>2026-04-28T09:28:16.031Z</time></trkpt><trkpt lat="39.5480685" lon="21.7980475"><ele>100.0</ele><time>2026-04-28T09:28:17.031Z</time></trkpt><trkpt lat="39.5479165" lon="21.7978847"><ele>100.0</ele><time>2026-04-28T09:28:18.032Z</time></trkpt><trkpt lat="39.5477502" lon="21.7977354"><ele>100.0</ele><time>2026-04-28T09:28:19.032Z</time></trkpt><trkpt lat="39.5475742" lon="21.7975994"><ele>100.66666666666667</ele><time>2026-04-28T09:28:20.031Z</time></trkpt><trkpt lat="39.5473863" lon="21.7974678"><ele>101.33333333333334</ele><time>2026-04-28T09:28:21.032Z</time></trkpt><trkpt lat="39.5471979" lon="21.7973424"><ele>102.0</ele><time>2026-04-28T09:28:22.032Z</time></trkpt><trkpt lat="39.5470012" lon="21.7972148"><ele>104.0</ele><time>2026-04-28T09:28:23.032Z</time></trkpt><trkpt lat="39.5468009" lon="21.7970883"><ele>106.0</ele><time>2026-04-28T09:28:24.031Z</time></trkpt><trkpt lat="39.5465949" lon="21.7969598"><ele>105.5</ele><time>2026-04-28T09:28:25.031Z</time></trkpt><trkpt lat="39.5463947" lon="21.7968336"><ele>105.0</ele><time>2026-04-28T09:28:26.031Z</time></trkpt><trkpt lat="39.5461909" lon="21.7967039"><ele>105.0</ele><time>2026-04-28T09:28:27.031Z</time></trkpt><trkpt lat="39.5459864" lon="21.7965755"><ele>105.0</ele><time>2026-04-28T09:28:28.031Z</time></trkpt><trkpt lat="39.5457781" lon="21.796444"><ele>105.0</ele><time>2026-04-28T09:28:29.031Z</time></trkpt><trkpt lat="39.545577" lon="21.7963152"><ele>105.0</ele><time>2026-04-28T09:28:30.031Z</time></trkpt><trkpt lat="39.5453741" lon="21.7961861"><ele>105.0</ele><time>2026-04-28T09:28:31.031Z</time></trkpt><trkpt lat="39.5451731" lon="21.7960584"><ele>105.0</ele><time>2026-04-28T09:28:32.032Z</time></trkpt><trkpt lat="39.5449708" lon="21.7959277"><ele>105.0</ele><time>2026-04-28T09:28:33.032Z</time></trkpt><trkpt lat="39.5447741" lon="21.7958017"><ele>105.0</ele><time>2026-04-28T09:28:34.031Z</time></trkpt><trkpt lat="39.5445736" lon="21.7956741"><ele>105.0</ele><time>2026-04-28T09:28:35.032Z</time></trkpt><trkpt lat="39.5443733" lon="21.7955472"><ele>105.0</ele><time>2026-04-28T09:28:36.032Z</time></trkpt><trkpt lat="39.5441709" lon="21.7954174"><ele>105.0</ele><time>2026-04-28T09:28:37.032Z</time></trkpt><trkpt lat="39.5439753" lon="21.7952925"><ele>105.0</ele><time>2026-04-28T09:28:38.032Z</time></trkpt><trkpt lat="39.5437763" lon="21.7951682"><ele>105.0</ele><time>2026-04-28T09:28:39.031Z</time></trkpt><trkpt lat="39.5435776" lon="21.7950447"><ele>105.0</ele><time>2026-04-28T09:28:40.032Z</time></trkpt><trkpt lat="39.5433764" lon="21.7949204"><ele>105.0</ele><time>2026-04-28T09:28:41.032Z</time></trkpt><trkpt lat="39.5431831" lon="21.7947996"><ele>105.0</ele><time>2026-04-28T09:28:42.032Z</time></trkpt><trkpt lat="39.5429887" lon="21.7946765"><ele>105.0</ele><time>2026-04-28T09:28:43.032Z</time></trkpt><trkpt lat="39.542796" lon="21.7945537"><ele>105.0</ele><time>2026-04-28T09:28:44.031Z</time></trkpt><trkpt lat="39.542601" lon="21.7944295"><ele>105.0</ele><time>2026-04-28T09:28:45.032Z</time></trkpt><trkpt lat="39.5424133" lon="21.7943101"><ele>105.0</ele><time>2026-04-28T09:28:46.031Z</time></trkpt><trkpt lat="39.5422256" lon="21.7941907"><ele>105.0</ele><time>2026-04-28T09:28:47.031Z</time></trkpt><trkpt lat="39.5420441" lon="21.7940746"><ele>105.66666666666666</ele><time>2026-04-28T09:28:48.032Z</time></trkpt><trkpt lat="39.5418644" lon="21.7939583"><ele>106.33333333333333</ele><time>2026-04-28T09:28:49.032Z</time></trkpt><trkpt lat="39.5416975" lon="21.7938492"><ele>107.0</ele><time>2026-04-28T09:28:50.031Z</time></trkpt><trkpt lat="39.5415311" lon="21.7937387"><ele>107.0</ele><time>2026-04-28T09:28:51.032Z</time></trkpt><trkpt lat="39.5413772" lon="21.7936345"><ele>107.0</ele><time>2026-04-28T09:28:52.032Z</time></trkpt><trkpt lat="39.5412402" lon="21.7935402"><ele>107.0</ele><time>2026-04-28T09:28:53.032Z</time></trkpt><trkpt lat="39.5411269" lon="21.7934569"><ele>106.8</ele><time>2026-04-28T09:28:54.031Z</time></trkpt><trkpt lat="39.5410252" lon="21.793374"><ele>106.6</ele><time>2026-04-28T09:28:55.031Z</time></trkpt><trkpt lat="39.5409382" lon="21.7932913"><ele>106.39999999999999</ele><time>2026-04-28T09:28:56.032Z</time></trkpt><trkpt lat="39.5408569" lon="21.7932107"><ele>106.19999999999999</ele><time>2026-04-28T09:28:57.032Z</time></trkpt><trkpt lat="39.5407653" lon="21.7931393"><ele>106.0</ele><time>2026-04-28T09:28:58.031Z</time></trkpt><trkpt lat="39.5406503" lon="21.7930714"><ele>106.0</ele><time>2026-04-28T09:28:59.032Z</time></trkpt><trkpt lat="39.5405058" lon="21.7929941"><ele>106.0</ele><time>2026-04-28T09:29:00.032Z</time></trkpt><trkpt lat="39.5403441" lon="21.7928996"><ele>106.0</ele><time>2026-04-28T09:29:01.032Z</time></trkpt><trkpt lat="39.5401681" lon="21.7927837"><ele>106.0</ele><time>2026-04-28T09:29:02.032Z</time></trkpt><trkpt lat="39.5399771" lon="21.7926502"><ele>106.0</ele><time>2026-04-28T09:29:03.031Z</time></trkpt><trkpt lat="39.5397785" lon="21.7925077"><ele>106.0</ele><time>2026-04-28T09:29:04.031Z</time></trkpt><trkpt lat="39.5395805" lon="21.7923663"><ele>106.0</ele><time>2026-04-28T09:29:05.031Z</time></trkpt><trkpt lat="39.5393934" lon="21.7922315"><ele>106.0</ele><time>2026-04-28T09:29:06.031Z</time></trkpt><trkpt lat="39.5392083" lon="21.7920975"><ele>106.0</ele><time>2026-04-28T09:29:07.031Z</time></trkpt><trkpt lat="39.5390256" lon="21.791966"><ele>106.33333333333334</ele><time>2026-04-28T09:29:08.031Z</time></trkpt><trkpt lat="39.5388379" lon="21.7918315"><ele>106.66666666666666</ele><time>2026-04-28T09:29:09.032Z</time></trkpt><trkpt lat="39.5386535" lon="21.7916999"><ele>107.0</ele><time>2026-04-28T09:29:10.031Z</time></trkpt><trkpt lat="39.5384652" lon="21.7915659"><ele>106.0</ele><time>2026-04-28T09:29:11.031Z</time></trkpt><trkpt lat="39.5382796" lon="21.7914338"><ele>105.0</ele><time>2026-04-28T09:29:12.031Z</time></trkpt><trkpt lat="39.5380943" lon="21.7912998"><ele>104.0</ele><time>2026-04-28T09:29:13.032Z</time></trkpt><trkpt lat="39.5379161" lon="21.7911735"><ele>104.33333333333333</ele><time>2026-04-28T09:29:14.032Z</time></trkpt><trkpt lat="39.5377329" lon="21.7910488"><ele>104.66666666666666</ele><time>2026-04-28T09:29:15.032Z</time></trkpt><trkpt lat="39.5375432" lon="21.7909209"><ele>105.0</ele><time>2026-04-28T09:29:16.032Z</time></trkpt><trkpt lat="39.5373429" lon="21.7907829"><ele>105.0</ele><time>2026-04-28T09:29:17.031Z</time></trkpt><trkpt lat="39.5371438" lon="21.7906435"><ele>105.0</ele><time>2026-04-28T09:29:18.032Z</time></trkpt><trkpt lat="39.5369427" lon="21.7905012"><ele>105.0</ele><time>2026-04-28T09:29:19.032Z</time></trkpt><trkpt lat="39.5367504" lon="21.7903632"><ele>105.0</ele><time>2026-04-28T09:29:20.032Z</time></trkpt><trkpt lat="39.5365658" lon="21.7902299"><ele>105.0</ele><time>2026-04-28T09:29:21.032Z</time></trkpt><trkpt lat="39.5363972" lon="21.7901105"><ele>105.33333333333334</ele><time>2026-04-28T09:29:22.032Z</time></trkpt><trkpt lat="39.5362362" lon="21.7899967"><ele>105.66666666666667</ele><time>2026-04-28T09:29:23.031Z</time></trkpt><trkpt lat="39.536092" lon="21.7898915"><ele>106.0</ele><time>2026-04-28T09:29:24.032Z</time></trkpt><trkpt lat="39.5359621" lon="21.7897915"><ele>106.0</ele><time>2026-04-28T09:29:25.032Z</time></trkpt><trkpt lat="39.5358494" lon="21.7896934"><ele>106.0</ele><time>2026-04-28T09:29:26.031Z</time></trkpt><trkpt lat="39.53575" lon="21.7895771"><ele>106.0</ele><time>2026-04-28T09:29:27.031Z</time></trkpt><trkpt lat="39.5356694" lon="21.7894581"><ele>106.0</ele><time>2026-04-28T09:29:28.032Z</time></trkpt><trkpt lat="39.5356003" lon="21.7893578"><ele>106.16666666666667</ele><time>2026-04-28T09:29:29.032Z</time></trkpt><trkpt lat="39.5355365" lon="21.7892934"><ele>106.33333333333334</ele><time>2026-04-28T09:29:30.032Z</time></trkpt><trkpt lat="39.5354704" lon="21.7892581"><ele>106.5</ele><time>2026-04-28T09:29:31.031Z</time></trkpt><trkpt lat="39.5354064" lon="21.7892605"><ele>106.66666666666666</ele><time>2026-04-28T09:29:32.032Z</time></trkpt><trkpt lat="39.5353114" lon="21.7893623"><ele>106.83333333333333</ele><time>2026-04-28T09:29:34.031Z</time></trkpt><trkpt lat="39.535281" lon="21.7894457"><ele>107.0</ele><time>2026-04-28T09:29:35.032Z</time></trkpt><trkpt lat="39.5352547" lon="21.7895502"><ele>106.39999999999999</ele><time>2026-04-28T09:29:36.032Z</time></trkpt><trkpt lat="39.5352222" lon="21.789665"><ele>105.79999999999998</ele><time>2026-04-28T09:29:37.032Z</time></trkpt><trkpt lat="39.5351709" lon="21.7897882"><ele>105.2</ele><time>2026-04-28T09:29:38.032Z</time></trkpt><trkpt lat="39.5351078" lon="21.7899124"><ele>104.6</ele><time>2026-04-28T09:29:39.031Z</time></trkpt><trkpt lat="39.5350322" lon="21.7900443"><ele>104.0</ele><time>2026-04-28T09:29:40.031Z</time></trkpt><trkpt lat="39.53495" lon="21.7901886"><ele>104.0</ele><time>2026-04-28T09:29:41.032Z</time></trkpt><trkpt lat="39.5348645" lon="21.7903401"><ele>104.0</ele><time>2026-04-28T09:29:42.031Z</time></trkpt><trkpt lat="39.5347752" lon="21.7904978"><ele>104.0</ele><time>2026-04-28T09:29:43.032Z</time></trkpt><trkpt lat="39.5346809" lon="21.7906645"><ele>104.0</ele><time>2026-04-28T09:29:44.032Z</time></trkpt><trkpt lat="39.5345807" lon="21.7908381"><ele>104.0</ele><time>2026-04-28T09:29:45.031Z</time></trkpt><trkpt lat="39.5344804" lon="21.7910089"><ele>104.0</ele><time>2026-04-28T09:29:46.032Z</time></trkpt><trkpt lat="39.5343739" lon="21.7911882"><ele>104.66666666666666</ele><time>2026-04-28T09:29:47.032Z</time></trkpt><trkpt lat="39.5342633" lon="21.7913698"><ele>105.33333333333334</ele><time>2026-04-28T09:29:48.032Z</time></trkpt><trkpt lat="39.5341498" lon="21.7915558"><ele>106.0</ele><time>2026-04-28T09:29:49.032Z</time></trkpt><trkpt lat="39.5340406" lon="21.791734"><ele>105.66666666666667</ele><time>2026-04-28T09:29:50.032Z</time></trkpt><trkpt lat="39.5339292" lon="21.7919176"><ele>105.33333333333334</ele><time>2026-04-28T09:29:51.031Z</time></trkpt><trkpt lat="39.5338162" lon="21.7921065"><ele>105.0</ele><time>2026-04-28T09:29:52.032Z</time></trkpt><trkpt lat="39.5336974" lon="21.7923032"><ele>104.66666666666666</ele><time>2026-04-28T09:29:53.032Z</time></trkpt><trkpt lat="39.5335777" lon="21.7924978"><ele>104.33333333333333</ele><time>2026-04-28T09:29:54.032Z</time></trkpt><trkpt lat="39.5334534" lon="21.7926999"><ele>104.0</ele><time>2026-04-28T09:29:55.031Z</time></trkpt><trkpt lat="39.5333302" lon="21.7928985"><ele>104.0</ele><time>2026-04-28T09:29:56.031Z</time></trkpt><trkpt lat="39.5332098" lon="21.7930938"><ele>104.0</ele><time>2026-04-28T09:29:57.031Z</time></trkpt><trkpt lat="39.5330898" lon="21.7932916"><ele>104.0</ele><time>2026-04-28T09:29:58.032Z</time></trkpt><trkpt lat="39.5329705" lon="21.7934883"><ele>104.33333333333333</ele><time>2026-04-28T09:29:59.032Z</time></trkpt><trkpt lat="39.532845" lon="21.7936924"><ele>104.66666666666666</ele><time>2026-04-28T09:30:00.031Z</time></trkpt><trkpt lat="39.5327202" lon="21.7938966"><ele>105.0</ele><time>2026-04-28T09:30:01.031Z</time></trkpt><trkpt lat="39.5325947" lon="21.7941022"><ele>105.0</ele><time>2026-04-28T09:30:02.032Z</time></trkpt><trkpt lat="39.5324691" lon="21.7943051"><ele>105.0</ele><time>2026-04-28T09:30:03.031Z</time></trkpt><trkpt lat="39.5323381" lon="21.7945162"><ele>105.0</ele><time>2026-04-28T09:30:04.031Z</time></trkpt><trkpt lat="39.5322079" lon="21.7947272"><ele>105.0</ele><time>2026-04-28T09:30:05.031Z</time></trkpt><trkpt lat="39.532077" lon="21.7949411"><ele>105.0</ele><time>2026-04-28T09:30:06.032Z</time></trkpt><trkpt lat="39.5319488" lon="21.7951531"><ele>105.0</ele><time>2026-04-28T09:30:07.031Z</time></trkpt><trkpt lat="39.5318162" lon="21.7953731"><ele>105.0</ele><time>2026-04-28T09:30:08.032Z</time></trkpt><trkpt lat="39.5316839" lon="21.7955886"><ele>105.0</ele><time>2026-04-28T09:30:09.032Z</time></trkpt><trkpt lat="39.5315504" lon="21.795803"><ele>105.0</ele><time>2026-04-28T09:30:10.031Z</time></trkpt><trkpt lat="39.5314201" lon="21.7960148"><ele>105.33333333333334</ele><time>2026-04-28T09:30:11.032Z</time></trkpt><trkpt lat="39.5312878" lon="21.7962334"><ele>105.66666666666667</ele><time>2026-04-28T09:30:12.031Z</time></trkpt><trkpt lat="39.5311557" lon="21.7964546"><ele>106.0</ele><time>2026-04-28T09:30:13.032Z</time></trkpt><trkpt lat="39.5310264" lon="21.7966689"><ele>105.66666666666667</ele><time>2026-04-28T09:30:14.032Z</time></trkpt><trkpt lat="39.5308937" lon="21.796886"><ele>105.33333333333334</ele><time>2026-04-28T09:30:15.031Z</time></trkpt><trkpt lat="39.5307591" lon="21.7971037"><ele>105.0</ele><time>2026-04-28T09:30:16.031Z</time></trkpt><trkpt lat="39.5306208" lon="21.7973266"><ele>105.0</ele><time>2026-04-28T09:30:17.031Z</time></trkpt><trkpt lat="39.5304866" lon="21.7975459"><ele>105.0</ele><time>2026-04-28T09:30:18.032Z</time></trkpt><trkpt lat="39.5303484" lon="21.7977703"><ele>105.0</ele><time>2026-04-28T09:30:19.032Z</time></trkpt><trkpt lat="39.5302101" lon="21.7979966"><ele>104.0</ele><time>2026-04-28T09:30:20.031Z</time></trkpt><trkpt lat="39.5300686" lon="21.7982289"><ele>103.0</ele><time>2026-04-28T09:30:21.032Z</time></trkpt><trkpt lat="39.5299312" lon="21.7984547"><ele>103.5</ele><time>2026-04-28T09:30:22.031Z</time></trkpt><trkpt lat="39.5297904" lon="21.7986853"><ele>104.0</ele><time>2026-04-28T09:30:23.032Z</time></trkpt><trkpt lat="39.5296483" lon="21.7989178"><ele>104.0</ele><time>2026-04-28T09:30:24.032Z</time></trkpt><trkpt lat="39.5295025" lon="21.7991571"><ele>104.0</ele><time>2026-04-28T09:30:25.031Z</time></trkpt><trkpt lat="39.5293599" lon="21.7993909"><ele>104.5</ele><time>2026-04-28T09:30:26.032Z</time></trkpt><trkpt lat="39.5292129" lon="21.7996293"><ele>105.0</ele><time>2026-04-28T09:30:27.031Z</time></trkpt><trkpt lat="39.5290628" lon="21.7998707"><ele>105.0</ele><time>2026-04-28T09:30:28.032Z</time></trkpt><trkpt lat="39.5289138" lon="21.8001111"><ele>105.0</ele><time>2026-04-28T09:30:29.032Z</time></trkpt><trkpt lat="39.5287652" lon="21.8003533"><ele>105.5</ele><time>2026-04-28T09:30:30.032Z</time></trkpt><trkpt lat="39.5286182" lon="21.800594"><ele>106.0</ele><time>2026-04-28T09:30:31.031Z</time></trkpt><trkpt lat="39.5284652" lon="21.8008425"><ele>105.0</ele><time>2026-04-28T09:30:32.032Z</time></trkpt><trkpt lat="39.528314" lon="21.8010874"><ele>104.0</ele><time>2026-04-28T09:30:33.031Z</time></trkpt><trkpt lat="39.5281622" lon="21.8013328"><ele>104.0</ele><time>2026-04-28T09:30:34.032Z</time></trkpt><trkpt lat="39.5280132" lon="21.8015754"><ele>104.0</ele><time>2026-04-28T09:30:35.032Z</time></trkpt><trkpt lat="39.5278595" lon="21.8018269"><ele>103.0</ele><time>2026-04-28T09:30:36.032Z</time></trkpt><trkpt lat="39.5277073" lon="21.8020757"><ele>102.0</ele><time>2026-04-28T09:30:37.032Z</time></trkpt><trkpt lat="39.5275552" lon="21.8023251"><ele>102.0</ele><time>2026-04-28T09:30:38.032Z</time></trkpt><trkpt lat="39.5274057" lon="21.8025718"><ele>102.0</ele><time>2026-04-28T09:30:39.032Z</time></trkpt><trkpt lat="39.5272508" lon="21.8028266"><ele>102.5</ele><time>2026-04-28T09:30:40.031Z</time></trkpt><trkpt lat="39.5270983" lon="21.8030776"><ele>103.0</ele><time>2026-04-28T09:30:41.031Z</time></trkpt><trkpt lat="39.5269456" lon="21.8033283"><ele>104.0</ele><time>2026-04-28T09:30:42.032Z</time></trkpt><trkpt lat="39.526794" lon="21.803577"><ele>105.0</ele><time>2026-04-28T09:30:43.032Z</time></trkpt><trkpt lat="39.5266395" lon="21.8038316"><ele>105.0</ele><time>2026-04-28T09:30:44.031Z</time></trkpt><trkpt lat="39.5264863" lon="21.8040832"><ele>105.0</ele><time>2026-04-28T09:30:45.032Z</time></trkpt><trkpt lat="39.5263329" lon="21.8043345"><ele>104.5</ele><time>2026-04-28T09:30:46.032Z</time></trkpt><trkpt lat="39.5261808" lon="21.8045814"><ele>104.0</ele><time>2026-04-28T09:30:47.032Z</time></trkpt><trkpt lat="39.5260239" lon="21.8048362"><ele>104.0</ele><time>2026-04-28T09:30:48.031Z</time></trkpt><trkpt lat="39.5258708" lon="21.8050888"><ele>104.0</ele><time>2026-04-28T09:30:49.031Z</time></trkpt><trkpt lat="39.5257171" lon="21.805341"><ele>104.0</ele><time>2026-04-28T09:30:50.031Z</time></trkpt><trkpt lat="39.5255655" lon="21.8055895"><ele>104.0</ele><time>2026-04-28T09:30:51.032Z</time></trkpt><trkpt lat="39.5254083" lon="21.8058458"><ele>103.5</ele><time>2026-04-28T09:30:52.031Z</time></trkpt><trkpt lat="39.5252529" lon="21.8060983"><ele>103.0</ele><time>2026-04-28T09:30:53.032Z</time></trkpt><trkpt lat="39.5250996" lon="21.8063479"><ele>103.0</ele><time>2026-04-28T09:30:54.031Z</time></trkpt><trkpt lat="39.5249522" lon="21.8065895"><ele>103.0</ele><time>2026-04-28T09:30:55.031Z</time></trkpt><trkpt lat="39.5248015" lon="21.8068359"><ele>101.5</ele><time>2026-04-28T09:30:56.032Z</time></trkpt><trkpt lat="39.5246539" lon="21.8070779"><ele>100.0</ele><time>2026-04-28T09:30:57.032Z</time></trkpt><trkpt lat="39.5245058" lon="21.8073189"><ele>100.0</ele><time>2026-04-28T09:30:58.032Z</time></trkpt><trkpt lat="39.5243605" lon="21.8075559"><ele>100.0</ele><time>2026-04-28T09:30:59.032Z</time></trkpt><trkpt lat="39.5242115" lon="21.807799"><ele>102.5</ele><time>2026-04-28T09:31:00.032Z</time></trkpt><trkpt lat="39.5240666" lon="21.8080342"><ele>105.0</ele><time>2026-04-28T09:31:01.032Z</time></trkpt><trkpt lat="39.5239242" lon="21.8082646"><ele>105.0</ele><time>2026-04-28T09:31:02.031Z</time></trkpt><trkpt lat="39.5237871" lon="21.808487"><ele>105.0</ele><time>2026-04-28T09:31:03.031Z</time></trkpt><trkpt lat="39.5236493" lon="21.8087118"><ele>105.0</ele><time>2026-04-28T09:31:04.032Z</time></trkpt><trkpt lat="39.5235156" lon="21.8089293"><ele>104.33333333333334</ele><time>2026-04-28T09:31:05.032Z</time></trkpt><trkpt lat="39.5233841" lon="21.8091423"><ele>103.66666666666667</ele><time>2026-04-28T09:31:06.032Z</time></trkpt><trkpt lat="39.523257" lon="21.8093475"><ele>103.0</ele><time>2026-04-28T09:31:07.031Z</time></trkpt><trkpt lat="39.5231283" lon="21.8095535"><ele>103.0</ele><time>2026-04-28T09:31:08.031Z</time></trkpt><trkpt lat="39.5230076" lon="21.8097483"><ele>103.0</ele><time>2026-04-28T09:31:09.032Z</time></trkpt><trkpt lat="39.522892" lon="21.8099364"><ele>103.0</ele><time>2026-04-28T09:31:10.032Z</time></trkpt><trkpt lat="39.5227808" lon="21.8101194"><ele>102.33333333333334</ele><time>2026-04-28T09:31:11.032Z</time></trkpt><trkpt lat="39.522667" lon="21.810306"><ele>101.66666666666666</ele><time>2026-04-28T09:31:12.031Z</time></trkpt><trkpt lat="39.522553" lon="21.8104913"><ele>101.0</ele><time>2026-04-28T09:31:13.031Z</time></trkpt><trkpt lat="39.5224433" lon="21.8106711"><ele>101.0</ele><time>2026-04-28T09:31:14.031Z</time></trkpt><trkpt lat="39.522338" lon="21.8108443"><ele>101.0</ele><time>2026-04-28T09:31:15.031Z</time></trkpt><trkpt lat="39.5222309" lon="21.81102"><ele>101.0</ele><time>2026-04-28T09:31:16.031Z</time></trkpt><trkpt lat="39.5221283" lon="21.8111858"><ele>101.66666666666666</ele><time>2026-04-28T09:31:17.032Z</time></trkpt><trkpt lat="39.5220305" lon="21.8113435"><ele>102.33333333333334</ele><time>2026-04-28T09:31:18.032Z</time></trkpt><trkpt lat="39.5219376" lon="21.8114932"><ele>103.0</ele><time>2026-04-28T09:31:19.032Z</time></trkpt><trkpt lat="39.5218467" lon="21.8116404"><ele>103.0</ele><time>2026-04-28T09:31:20.032Z</time></trkpt><trkpt lat="39.5217603" lon="21.8117792"><ele>103.0</ele><time>2026-04-28T09:31:21.031Z</time></trkpt><trkpt lat="39.5216772" lon="21.8119137"><ele>103.0</ele><time>2026-04-28T09:31:22.032Z</time></trkpt><trkpt lat="39.5215975" lon="21.8120437"><ele>103.0</ele><time>2026-04-28T09:31:23.032Z</time></trkpt><trkpt lat="39.5215186" lon="21.8121753"><ele>103.0</ele><time>2026-04-28T09:31:24.031Z</time></trkpt><trkpt lat="39.5214423" lon="21.8123031"><ele>103.0</ele><time>2026-04-28T09:31:25.032Z</time></trkpt><trkpt lat="39.5213616" lon="21.8124343"><ele>103.0</ele><time>2026-04-28T09:31:26.031Z</time></trkpt><trkpt lat="39.5212781" lon="21.8125682"><ele>103.0</ele><time>2026-04-28T09:31:27.031Z</time></trkpt><trkpt lat="39.5211909" lon="21.8127135"><ele>102.5</ele><time>2026-04-28T09:31:28.032Z</time></trkpt><trkpt lat="39.5211019" lon="21.8128598"><ele>102.0</ele><time>2026-04-28T09:31:29.031Z</time></trkpt><trkpt lat="39.5210096" lon="21.813009"><ele>101.5</ele><time>2026-04-28T09:31:30.031Z</time></trkpt><trkpt lat="39.520916" lon="21.8131591"><ele>101.0</ele><time>2026-04-28T09:31:31.031Z</time></trkpt><trkpt lat="39.5208192" lon="21.8133144"><ele>101.0</ele><time>2026-04-28T09:31:32.031Z</time></trkpt><trkpt lat="39.5207267" lon="21.8134637"><ele>101.0</ele><time>2026-04-28T09:31:33.031Z</time></trkpt><trkpt lat="39.5206364" lon="21.8136121"><ele>101.0</ele><time>2026-04-28T09:31:34.031Z</time></trkpt><trkpt lat="39.5205462" lon="21.8137608"><ele>101.0</ele><time>2026-04-28T09:31:35.032Z</time></trkpt><trkpt lat="39.5204505" lon="21.8139152"><ele>100.66666666666666</ele><time>2026-04-28T09:31:36.032Z</time></trkpt><trkpt lat="39.5203554" lon="21.8140686"><ele>100.33333333333334</ele><time>2026-04-28T09:31:37.031Z</time></trkpt><trkpt lat="39.5202604" lon="21.814223"><ele>100.0</ele><time>2026-04-28T09:31:38.032Z</time></trkpt><trkpt lat="39.5201667" lon="21.8143766"><ele>99.66666666666667</ele><time>2026-04-28T09:31:39.032Z</time></trkpt><trkpt lat="39.5200688" lon="21.8145348"><ele>99.33333333333334</ele><time>2026-04-28T09:31:40.032Z</time></trkpt><trkpt lat="39.5199693" lon="21.8146959"><ele>99.0</ele><time>2026-04-28T09:31:41.031Z</time></trkpt><trkpt lat="39.5198706" lon="21.8148576"><ele>99.0</ele><time>2026-04-28T09:31:42.032Z</time></trkpt><trkpt lat="39.5197728" lon="21.815019"><ele>99.0</ele><time>2026-04-28T09:31:43.032Z</time></trkpt><trkpt lat="39.5196706" lon="21.8151867"><ele>99.0</ele><time>2026-04-28T09:31:44.032Z</time></trkpt><trkpt lat="39.5195676" lon="21.8153519"><ele>99.33333333333334</ele><time>2026-04-28T09:31:45.031Z</time></trkpt><trkpt lat="39.5194631" lon="21.8155171"><ele>99.66666666666667</ele><time>2026-04-28T09:31:46.032Z</time></trkpt><trkpt lat="39.5193607" lon="21.8156831"><ele>100.0</ele><time>2026-04-28T09:31:47.032Z</time></trkpt><trkpt lat="39.5192553" lon="21.8158567"><ele>100.33333333333334</ele><time>2026-04-28T09:31:48.031Z</time></trkpt><trkpt lat="39.5191505" lon="21.8160294"><ele>100.66666666666666</ele><time>2026-04-28T09:31:49.031Z</time></trkpt><trkpt lat="39.519045" lon="21.8162033"><ele>101.0</ele><time>2026-04-28T09:31:50.031Z</time></trkpt><trkpt lat="39.5189407" lon="21.8163747"><ele>101.0</ele><time>2026-04-28T09:31:51.031Z</time></trkpt><trkpt lat="39.5188336" lon="21.8165498"><ele>101.0</ele><time>2026-04-28T09:31:52.032Z</time></trkpt><trkpt lat="39.5187285" lon="21.8167221"><ele>101.0</ele><time>2026-04-28T09:31:53.031Z</time></trkpt><trkpt lat="39.5186238" lon="21.8168936"><ele>101.33333333333333</ele><time>2026-04-28T09:31:54.031Z</time></trkpt><trkpt lat="39.5185217" lon="21.8170623"><ele>101.66666666666666</ele><time>2026-04-28T09:31:55.032Z</time></trkpt><trkpt lat="39.5184166" lon="21.817236"><ele>102.0</ele><time>2026-04-28T09:31:56.032Z</time></trkpt><trkpt lat="39.5183132" lon="21.8174059"><ele>102.0</ele><time>2026-04-28T09:31:57.032Z</time></trkpt><trkpt lat="39.5182099" lon="21.8175746"><ele>102.0</ele><time>2026-04-28T09:31:58.032Z</time></trkpt><trkpt lat="39.5181091" lon="21.8177403"><ele>102.0</ele><time>2026-04-28T09:31:59.032Z</time></trkpt><trkpt lat="39.5180052" lon="21.8179108"><ele>101.33333333333334</ele><time>2026-04-28T09:32:00.031Z</time></trkpt><trkpt lat="39.5179026" lon="21.8180789"><ele>100.66666666666667</ele><time>2026-04-28T09:32:01.032Z</time></trkpt><trkpt lat="39.5178001" lon="21.8182452"><ele>100.0</ele><time>2026-04-28T09:32:02.032Z</time></trkpt><trkpt lat="39.5176995" lon="21.8184101"><ele>100.33333333333334</ele><time>2026-04-28T09:32:03.031Z</time></trkpt><trkpt lat="39.5175961" lon="21.8185811"><ele>100.66666666666666</ele><time>2026-04-28T09:32:04.032Z</time></trkpt><trkpt lat="39.5174934" lon="21.8187482"><ele>101.0</ele><time>2026-04-28T09:32:05.031Z</time></trkpt><trkpt lat="39.517389" lon="21.8189146"><ele>101.0</ele><time>2026-04-28T09:32:06.032Z</time></trkpt><trkpt lat="39.5172865" lon="21.8190784"><ele>101.0</ele><time>2026-04-28T09:32:07.032Z</time></trkpt><trkpt lat="39.5171815" lon="21.8192483"><ele>101.0</ele><time>2026-04-28T09:32:08.032Z</time></trkpt><trkpt lat="39.5170791" lon="21.8194169"><ele>101.0</ele><time>2026-04-28T09:32:09.031Z</time></trkpt><trkpt lat="39.5169757" lon="21.8195852"><ele>101.0</ele><time>2026-04-28T09:32:10.031Z</time></trkpt><trkpt lat="39.5168742" lon="21.8197499"><ele>101.0</ele><time>2026-04-28T09:32:11.031Z</time></trkpt><trkpt lat="39.5167692" lon="21.8199188"><ele>101.0</ele><time>2026-04-28T09:32:12.032Z</time></trkpt><trkpt lat="39.5166663" lon="21.8200846"><ele>101.0</ele><time>2026-04-28T09:32:13.031Z</time></trkpt><trkpt lat="39.5165648" lon="21.8202505"><ele>101.0</ele><time>2026-04-28T09:32:14.032Z</time></trkpt><trkpt lat="39.5164667" lon="21.8204152"><ele>100.66666666666666</ele><time>2026-04-28T09:32:15.031Z</time></trkpt><trkpt lat="39.5163639" lon="21.8205828"><ele>100.33333333333334</ele><time>2026-04-28T09:32:16.032Z</time></trkpt><trkpt lat="39.5162618" lon="21.8207473"><ele>100.0</ele><time>2026-04-28T09:32:17.032Z</time></trkpt><trkpt lat="39.5161601" lon="21.8209111"><ele>100.33333333333334</ele><time>2026-04-28T09:32:18.032Z</time></trkpt><trkpt lat="39.5160594" lon="21.8210736"><ele>100.66666666666666</ele><time>2026-04-28T09:32:19.031Z</time></trkpt><trkpt lat="39.5159537" lon="21.8212434"><ele>101.0</ele><time>2026-04-28T09:32:20.031Z</time></trkpt><trkpt lat="39.5158483" lon="21.8214115"><ele>101.0</ele><time>2026-04-28T09:32:21.032Z</time></trkpt><trkpt lat="39.5157427" lon="21.8215825"><ele>101.0</ele><time>2026-04-28T09:32:22.032Z</time></trkpt><trkpt lat="39.5156385" lon="21.8217543"><ele>101.0</ele><time>2026-04-28T09:32:23.031Z</time></trkpt><trkpt lat="39.5155268" lon="21.8219386"><ele>101.0</ele><time>2026-04-28T09:32:24.032Z</time></trkpt><trkpt lat="39.5154109" lon="21.8221278"><ele>101.0</ele><time>2026-04-28T09:32:25.032Z</time></trkpt><trkpt lat="39.5152952" lon="21.8223158"><ele>101.0</ele><time>2026-04-28T09:32:26.032Z</time></trkpt><trkpt lat="39.5151803" lon="21.8225026"><ele>101.33333333333333</ele><time>2026-04-28T09:32:27.031Z</time></trkpt><trkpt lat="39.515061" lon="21.8226997"><ele>101.66666666666666</ele><time>2026-04-28T09:32:28.032Z</time></trkpt><trkpt lat="39.5149422" lon="21.8228963"><ele>102.0</ele><time>2026-04-28T09:32:29.031Z</time></trkpt><trkpt lat="39.5148214" lon="21.8230934"><ele>102.0</ele><time>2026-04-28T09:32:30.032Z</time></trkpt><trkpt lat="39.5147009" lon="21.8232881"><ele>102.0</ele><time>2026-04-28T09:32:31.031Z</time></trkpt><trkpt lat="39.5145754" lon="21.823491"><ele>102.0</ele><time>2026-04-28T09:32:32.032Z</time></trkpt><trkpt lat="39.5144507" lon="21.8236931"><ele>101.66666666666666</ele><time>2026-04-28T09:32:33.032Z</time></trkpt><trkpt lat="39.5143261" lon="21.8238984"><ele>101.33333333333333</ele><time>2026-04-28T09:32:34.031Z</time></trkpt><trkpt lat="39.5142035" lon="21.8241009"><ele>101.0</ele><time>2026-04-28T09:32:35.031Z</time></trkpt><trkpt lat="39.5140758" lon="21.82431"><ele>100.66666666666666</ele><time>2026-04-28T09:32:36.032Z</time></trkpt><trkpt lat="39.5139505" lon="21.8245161"><ele>100.33333333333334</ele><time>2026-04-28T09:32:37.031Z</time></trkpt><trkpt lat="39.5138249" lon="21.8247235"><ele>100.0</ele><time>2026-04-28T09:32:38.031Z</time></trkpt><trkpt lat="39.5136986" lon="21.8249269"><ele>100.0</ele><time>2026-04-28T09:32:39.031Z</time></trkpt><trkpt lat="39.5135673" lon="21.8251362"><ele>100.0</ele><time>2026-04-28T09:32:40.032Z</time></trkpt><trkpt lat="39.5134386" lon="21.825344"><ele>100.0</ele><time>2026-04-28T09:32:41.032Z</time></trkpt><trkpt lat="39.5133107" lon="21.8255533"><ele>100.0</ele><time>2026-04-28T09:32:42.032Z</time></trkpt><trkpt lat="39.5131843" lon="21.8257592"><ele>100.0</ele><time>2026-04-28T09:32:43.032Z</time></trkpt><trkpt lat="39.5130532" lon="21.8259713"><ele>100.0</ele><time>2026-04-28T09:32:44.032Z</time></trkpt><trkpt lat="39.5129245" lon="21.8261795"><ele>101.0</ele><time>2026-04-28T09:32:45.032Z</time></trkpt><trkpt lat="39.512795" lon="21.8263877"><ele>102.0</ele><time>2026-04-28T09:32:46.032Z</time></trkpt><trkpt lat="39.5126684" lon="21.8265934"><ele>103.0</ele><time>2026-04-28T09:32:47.032Z</time></trkpt><trkpt lat="39.5125388" lon="21.8268063"><ele>102.33333333333334</ele><time>2026-04-28T09:32:48.032Z</time></trkpt><trkpt lat="39.5124114" lon="21.8270161"><ele>101.66666666666666</ele><time>2026-04-28T09:32:49.031Z</time></trkpt><trkpt lat="39.5122839" lon="21.8272254"><ele>101.0</ele><time>2026-04-28T09:32:50.032Z</time></trkpt><trkpt lat="39.5121595" lon="21.8274309"><ele>101.0</ele><time>2026-04-28T09:32:51.031Z</time></trkpt><trkpt lat="39.5120309" lon="21.8276409"><ele>101.0</ele><time>2026-04-28T09:32:52.031Z</time></trkpt><trkpt lat="39.5119048" lon="21.8278476"><ele>101.0</ele><time>2026-04-28T09:32:53.032Z</time></trkpt><trkpt lat="39.5117791" lon="21.8280529"><ele>101.0</ele><time>2026-04-28T09:32:54.031Z</time></trkpt><trkpt lat="39.5116562" lon="21.8282553"><ele>101.0</ele><time>2026-04-28T09:32:55.031Z</time></trkpt><trkpt lat="39.5115292" lon="21.8284637"><ele>101.0</ele><time>2026-04-28T09:32:56.031Z</time></trkpt><trkpt lat="39.5114034" lon="21.8286672"><ele>101.0</ele><time>2026-04-28T09:32:57.032Z</time></trkpt><trkpt lat="39.5112779" lon="21.8288704"><ele>101.0</ele><time>2026-04-28T09:32:58.031Z</time></trkpt><trkpt lat="39.5111544" lon="21.8290694"><ele>101.0</ele><time>2026-04-28T09:32:59.031Z</time></trkpt><trkpt lat="39.5110273" lon="21.8292751"><ele>101.0</ele><time>2026-04-28T09:33:00.031Z</time></trkpt><trkpt lat="39.5109025" lon="21.8294791"><ele>101.0</ele><time>2026-04-28T09:33:01.032Z</time></trkpt><trkpt lat="39.5107766" lon="21.8296829"><ele>101.0</ele><time>2026-04-28T09:33:02.032Z</time></trkpt><trkpt lat="39.5106517" lon="21.8298835"><ele>101.0</ele><time>2026-04-28T09:33:03.031Z</time></trkpt><trkpt lat="39.5105225" lon="21.8300912"><ele>101.0</ele><time>2026-04-28T09:33:04.031Z</time></trkpt><trkpt lat="39.5103956" lon="21.8302972"><ele>101.0</ele><time>2026-04-28T09:33:05.032Z</time></trkpt><trkpt lat="39.5102688" lon="21.8305043"><ele>101.0</ele><time>2026-04-28T09:33:06.031Z</time></trkpt><trkpt lat="39.5101436" lon="21.8307088"><ele>101.0</ele><time>2026-04-28T09:33:07.031Z</time></trkpt><trkpt lat="39.5100135" lon="21.8309196"><ele>101.0</ele><time>2026-04-28T09:33:08.032Z</time></trkpt><trkpt lat="39.5098848" lon="21.8311267"><ele>100.0</ele><time>2026-04-28T09:33:09.032Z</time></trkpt><trkpt lat="39.5097566" lon="21.831334"><ele>99.0</ele><time>2026-04-28T09:33:10.031Z</time></trkpt><trkpt lat="39.5096309" lon="21.8315389"><ele>98.0</ele><time>2026-04-28T09:33:11.031Z</time></trkpt><trkpt lat="39.5095014" lon="21.8317513"><ele>99.33333333333333</ele><time>2026-04-28T09:33:12.032Z</time></trkpt><trkpt lat="39.509374" lon="21.8319602"><ele>100.66666666666666</ele><time>2026-04-28T09:33:13.031Z</time></trkpt><trkpt lat="39.5092457" lon="21.8321693"><ele>102.0</ele><time>2026-04-28T09:33:14.032Z</time></trkpt><trkpt lat="39.5091196" lon="21.8323763"><ele>102.0</ele><time>2026-04-28T09:33:15.031Z</time></trkpt><trkpt lat="39.5089894" lon="21.832591"><ele>102.0</ele><time>2026-04-28T09:33:16.031Z</time></trkpt><trkpt lat="39.5088613" lon="21.8328031"><ele>102.0</ele><time>2026-04-28T09:33:17.031Z</time></trkpt><trkpt lat="39.5087323" lon="21.8330152"><ele>100.33333333333334</ele><time>2026-04-28T09:33:18.032Z</time></trkpt><trkpt lat="39.5086041" lon="21.8332237"><ele>98.66666666666667</ele><time>2026-04-28T09:33:19.031Z</time></trkpt><trkpt lat="39.5084705" lon="21.8334389"><ele>97.0</ele><time>2026-04-28T09:33:20.031Z</time></trkpt><trkpt lat="39.508339" lon="21.8336518"><ele>96.66666666666667</ele><time>2026-04-28T09:33:21.031Z</time></trkpt><trkpt lat="39.5082076" lon="21.8338662"><ele>96.33333333333334</ele><time>2026-04-28T09:33:22.032Z</time></trkpt><trkpt lat="39.5080786" lon="21.8340775"><ele>96.0</ele><time>2026-04-28T09:33:23.031Z</time></trkpt><trkpt lat="39.5079448" lon="21.8342953"><ele>97.33333333333334</ele><time>2026-04-28T09:33:24.031Z</time></trkpt><trkpt lat="39.5078129" lon="21.8345093"><ele>98.66666666666667</ele><time>2026-04-28T09:33:25.031Z</time></trkpt><trkpt lat="39.5076812" lon="21.8347238"><ele>100.0</ele><time>2026-04-28T09:33:26.031Z</time></trkpt><trkpt lat="39.5075526" lon="21.8349364"><ele>100.33333333333334</ele><time>2026-04-28T09:33:27.031Z</time></trkpt><trkpt lat="39.5074199" lon="21.8351549"><ele>100.66666666666666</ele><time>2026-04-28T09:33:28.032Z</time></trkpt><trkpt lat="39.5072892" lon="21.8353687"><ele>101.0</ele><time>2026-04-28T09:33:29.031Z</time></trkpt><trkpt lat="39.507158" lon="21.8355804"><ele>101.0</ele><time>2026-04-28T09:33:30.032Z</time></trkpt><trkpt lat="39.5070299" lon="21.8357888"><ele>101.0</ele><time>2026-04-28T09:33:31.032Z</time></trkpt><trkpt lat="39.5068981" lon="21.8360034"><ele>101.0</ele><time>2026-04-28T09:33:32.032Z</time></trkpt><trkpt lat="39.5067692" lon="21.8362149"><ele>101.0</ele><time>2026-04-28T09:33:33.031Z</time></trkpt><trkpt lat="39.5066399" lon="21.8364242"><ele>101.0</ele><time>2026-04-28T09:33:34.032Z</time></trkpt><trkpt lat="39.5065135" lon="21.8366284"><ele>101.0</ele><time>2026-04-28T09:33:35.031Z</time></trkpt><trkpt lat="39.5063853" lon="21.8368385"><ele>100.66666666666666</ele><time>2026-04-28T09:33:36.031Z</time></trkpt><trkpt lat="39.5062618" lon="21.8370466"><ele>100.33333333333334</ele><time>2026-04-28T09:33:37.031Z</time></trkpt><trkpt lat="39.506138" lon="21.8372527"><ele>100.0</ele><time>2026-04-28T09:33:38.031Z</time></trkpt><trkpt lat="39.5060159" lon="21.8374536"><ele>100.33333333333334</ele><time>2026-04-28T09:33:39.032Z</time></trkpt><trkpt lat="39.5058886" lon="21.8376609"><ele>100.66666666666666</ele><time>2026-04-28T09:33:40.031Z</time></trkpt><trkpt lat="39.5057618" lon="21.8378657"><ele>101.0</ele><time>2026-04-28T09:33:41.031Z</time></trkpt><trkpt lat="39.5056341" lon="21.8380698"><ele>101.0</ele><time>2026-04-28T09:33:42.031Z</time></trkpt><trkpt lat="39.5055088" lon="21.8382719"><ele>101.0</ele><time>2026-04-28T09:33:43.032Z</time></trkpt><trkpt lat="39.5053815" lon="21.8384788"><ele>101.0</ele><time>2026-04-28T09:33:44.032Z</time></trkpt><trkpt lat="39.5052563" lon="21.838684"><ele>100.66666666666666</ele><time>2026-04-28T09:33:45.032Z</time></trkpt><trkpt lat="39.5051302" lon="21.8388855"><ele>100.33333333333334</ele><time>2026-04-28T09:33:46.032Z</time></trkpt><trkpt lat="39.5050031" lon="21.8390812"><ele>100.0</ele><time>2026-04-28T09:33:47.031Z</time></trkpt><trkpt lat="39.5048683" lon="21.8392735"><ele>100.33333333333334</ele><time>2026-04-28T09:33:48.032Z</time></trkpt><trkpt lat="39.5047275" lon="21.8394479"><ele>100.66666666666666</ele><time>2026-04-28T09:33:49.032Z</time></trkpt><trkpt lat="39.5045746" lon="21.8396034"><ele>101.0</ele><time>2026-04-28T09:33:50.031Z</time></trkpt><trkpt lat="39.5044125" lon="21.8397334"><ele>101.33333333333333</ele><time>2026-04-28T09:33:51.031Z</time></trkpt><trkpt lat="39.504232" lon="21.8398368"><ele>101.66666666666666</ele><time>2026-04-28T09:33:52.031Z</time></trkpt><trkpt lat="39.5040449" lon="21.8399122"><ele>102.0</ele><time>2026-04-28T09:33:53.031Z</time></trkpt><trkpt lat="39.5038509" lon="21.8399671"><ele>102.0</ele><time>2026-04-28T09:33:54.032Z</time></trkpt><trkpt lat="39.5036574" lon="21.8399958"><ele>102.0</ele><time>2026-04-28T09:33:55.032Z</time></trkpt><trkpt lat="39.5034565" lon="21.8399998"><ele>102.0</ele><time>2026-04-28T09:33:56.032Z</time></trkpt><trkpt lat="39.503259" lon="21.8399764"><ele>102.0</ele><time>2026-04-28T09:33:57.031Z</time></trkpt><trkpt lat="39.5030635" lon="21.8399332"><ele>102.0</ele><time>2026-04-28T09:33:58.031Z</time></trkpt><trkpt lat="39.5028706" lon="21.8398814"><ele>102.0</ele><time>2026-04-28T09:33:59.032Z</time></trkpt><trkpt lat="39.5026696" lon="21.8398269"><ele>101.0</ele><time>2026-04-28T09:34:00.031Z</time></trkpt><trkpt lat="39.5024708" lon="21.8397729"><ele>100.0</ele><time>2026-04-28T09:34:01.032Z</time></trkpt><trkpt lat="39.5022703" lon="21.8397183"><ele>99.0</ele><time>2026-04-28T09:34:02.031Z</time></trkpt><trkpt lat="39.502069" lon="21.8396638"><ele>99.0</ele><time>2026-04-28T09:34:03.032Z</time></trkpt><trkpt lat="39.5018629" lon="21.8396068"><ele>99.0</ele><time>2026-04-28T09:34:04.031Z</time></trkpt><trkpt lat="39.5016574" lon="21.8395508"><ele>99.0</ele><time>2026-04-28T09:34:05.031Z</time></trkpt><trkpt lat="39.501452" lon="21.8394966"><ele>99.0</ele><time>2026-04-28T09:34:06.031Z</time></trkpt><trkpt lat="39.5012451" lon="21.8394406"><ele>99.0</ele><time>2026-04-28T09:34:07.032Z</time></trkpt><trkpt lat="39.5010378" lon="21.8393863"><ele>99.0</ele><time>2026-04-28T09:34:08.031Z</time></trkpt><trkpt lat="39.5008299" lon="21.8393333"><ele>99.0</ele><time>2026-04-28T09:34:09.032Z</time></trkpt><trkpt lat="39.500622" lon="21.8392808"><ele>99.0</ele><time>2026-04-28T09:34:10.031Z</time></trkpt><trkpt lat="39.5004146" lon="21.8392264"><ele>99.0</ele><time>2026-04-28T09:34:11.032Z</time></trkpt><trkpt lat="39.5002075" lon="21.8391708"><ele>99.0</ele><time>2026-04-28T09:34:12.032Z</time></trkpt><trkpt lat="39.4999987" lon="21.8391149"><ele>99.0</ele><time>2026-04-28T09:34:13.032Z</time></trkpt><trkpt lat="39.4997911" lon="21.8390579"><ele>99.0</ele><time>2026-04-28T09:34:14.032Z</time></trkpt><trkpt lat="39.4995873" lon="21.8390021"><ele>99.0</ele><time>2026-04-28T09:34:15.031Z</time></trkpt><trkpt lat="39.4993766" lon="21.8389445"><ele>99.0</ele><time>2026-04-28T09:34:16.032Z</time></trkpt><trkpt lat="39.49917" lon="21.8388882"><ele>99.0</ele><time>2026-04-28T09:34:17.031Z</time></trkpt><trkpt lat="39.4989631" lon="21.8388324"><ele>99.0</ele><time>2026-04-28T09:34:18.032Z</time></trkpt><trkpt lat="39.4987602" lon="21.8387763"><ele>99.0</ele><time>2026-04-28T09:34:19.031Z</time></trkpt><trkpt lat="39.4985492" lon="21.8387225"><ele>99.0</ele><time>2026-04-28T09:34:20.031Z</time></trkpt><trkpt lat="39.4983413" lon="21.8386745"><ele>99.0</ele><time>2026-04-28T09:34:21.032Z</time></trkpt><trkpt lat="39.4981328" lon="21.8386328"><ele>99.0</ele><time>2026-04-28T09:34:22.031Z</time></trkpt><trkpt lat="39.4979267" lon="21.8386012"><ele>99.0</ele><time>2026-04-28T09:34:23.032Z</time></trkpt><trkpt lat="39.4977126" lon="21.8385811"><ele>99.0</ele><time>2026-04-28T09:34:24.032Z</time></trkpt><trkpt lat="39.4975014" lon="21.8385687"><ele>99.0</ele><time>2026-04-28T09:34:25.032Z</time></trkpt><trkpt lat="39.497289" lon="21.8385593"><ele>99.0</ele><time>2026-04-28T09:34:26.031Z</time></trkpt><trkpt lat="39.497079" lon="21.8385537"><ele>98.66666666666666</ele><time>2026-04-28T09:34:27.031Z</time></trkpt><trkpt lat="39.4968629" lon="21.8385468"><ele>98.33333333333333</ele><time>2026-04-28T09:34:28.031Z</time></trkpt><trkpt lat="39.4966504" lon="21.8385396"><ele>98.0</ele><time>2026-04-28T09:34:29.031Z</time></trkpt><trkpt lat="39.4964384" lon="21.838532"><ele>98.33333333333333</ele><time>2026-04-28T09:34:30.031Z</time></trkpt><trkpt lat="39.4962298" lon="21.8385265"><ele>98.66666666666666</ele><time>2026-04-28T09:34:31.031Z</time></trkpt><trkpt lat="39.4960163" lon="21.8385202"><ele>99.0</ele><time>2026-04-28T09:34:32.032Z</time></trkpt><trkpt lat="39.4958055" lon="21.8385131"><ele>99.0</ele><time>2026-04-28T09:34:33.032Z</time></trkpt><trkpt lat="39.4955951" lon="21.8385065"><ele>99.0</ele><time>2026-04-28T09:34:34.032Z</time></trkpt><trkpt lat="39.4953887" lon="21.8385003"><ele>99.0</ele><time>2026-04-28T09:34:35.031Z</time></trkpt><trkpt lat="39.4951759" lon="21.838494"><ele>99.0</ele><time>2026-04-28T09:34:36.032Z</time></trkpt><trkpt lat="39.4949673" lon="21.8384849"><ele>99.0</ele><time>2026-04-28T09:34:37.031Z</time></trkpt><trkpt lat="39.4947583" lon="21.838477"><ele>99.0</ele><time>2026-04-28T09:34:38.031Z</time></trkpt><trkpt lat="39.4945523" lon="21.83847"><ele>98.0</ele><time>2026-04-28T09:34:39.031Z</time></trkpt><trkpt lat="39.4943419" lon="21.8384638"><ele>97.0</ele><time>2026-04-28T09:34:40.032Z</time></trkpt><trkpt lat="39.4941353" lon="21.8384573"><ele>96.0</ele><time>2026-04-28T09:34:41.031Z</time></trkpt><trkpt lat="39.4939292" lon="21.8384518"><ele>96.33333333333334</ele><time>2026-04-28T09:34:42.031Z</time></trkpt><trkpt lat="39.4937267" lon="21.8384457"><ele>96.66666666666667</ele><time>2026-04-28T09:34:43.032Z</time></trkpt><trkpt lat="39.493519" lon="21.8384376"><ele>97.0</ele><time>2026-04-28T09:34:44.032Z</time></trkpt><trkpt lat="39.4933125" lon="21.8384291"><ele>97.0</ele><time>2026-04-28T09:34:45.031Z</time></trkpt><trkpt lat="39.4931046" lon="21.8384213"><ele>97.0</ele><time>2026-04-28T09:34:46.032Z</time></trkpt><trkpt lat="39.4928991" lon="21.8384144"><ele>97.0</ele><time>2026-04-28T09:34:47.032Z</time></trkpt><trkpt lat="39.492686" lon="21.8384074"><ele>96.66666666666667</ele><time>2026-04-28T09:34:48.032Z</time></trkpt><trkpt lat="39.4924746" lon="21.8384005"><ele>96.33333333333334</ele><time>2026-04-28T09:34:49.031Z</time></trkpt><trkpt lat="39.4922633" lon="21.8383948"><ele>96.0</ele><time>2026-04-28T09:34:50.032Z</time></trkpt><trkpt lat="39.4920529" lon="21.8383889"><ele>96.0</ele><time>2026-04-28T09:34:51.031Z</time></trkpt><trkpt lat="39.4918348" lon="21.8383828"><ele>96.0</ele><time>2026-04-28T09:34:52.031Z</time></trkpt><trkpt lat="39.4916201" lon="21.8383764"><ele>96.0</ele><time>2026-04-28T09:34:53.032Z</time></trkpt><trkpt lat="39.4914057" lon="21.8383695"><ele>96.33333333333334</ele><time>2026-04-28T09:34:54.032Z</time></trkpt><trkpt lat="39.4911946" lon="21.8383635"><ele>96.66666666666667</ele><time>2026-04-28T09:34:55.032Z</time></trkpt><trkpt lat="39.4909765" lon="21.8383563"><ele>97.0</ele><time>2026-04-28T09:34:56.032Z</time></trkpt><trkpt lat="39.490762" lon="21.8383481"><ele>97.0</ele><time>2026-04-28T09:34:57.032Z</time></trkpt><trkpt lat="39.490548" lon="21.8383401"><ele>97.0</ele><time>2026-04-28T09:34:58.032Z</time></trkpt><trkpt lat="39.4903383" lon="21.8383324"><ele>97.0</ele><time>2026-04-28T09:34:59.032Z</time></trkpt><trkpt lat="39.4901227" lon="21.8383244"><ele>97.0</ele><time>2026-04-28T09:35:00.031Z</time></trkpt><trkpt lat="39.4899109" lon="21.8383179"><ele>97.0</ele><time>2026-04-28T09:35:01.032Z</time></trkpt><trkpt lat="39.4896991" lon="21.8383109"><ele>97.0</ele><time>2026-04-28T09:35:02.032Z</time></trkpt><trkpt lat="39.4894902" lon="21.8383048"><ele>97.0</ele><time>2026-04-28T09:35:03.032Z</time></trkpt><trkpt lat="39.4892744" lon="21.8382952"><ele>97.0</ele><time>2026-04-28T09:35:04.032Z</time></trkpt><trkpt lat="39.4890593" lon="21.8382879"><ele>97.0</ele><time>2026-04-28T09:35:05.031Z</time></trkpt><trkpt lat="39.4888452" lon="21.838281"><ele>96.0</ele><time>2026-04-28T09:35:06.031Z</time></trkpt><trkpt lat="39.4886346" lon="21.8382759"><ele>95.0</ele><time>2026-04-28T09:35:07.031Z</time></trkpt><trkpt lat="39.4884187" lon="21.8382686"><ele>94.0</ele><time>2026-04-28T09:35:08.031Z</time></trkpt><trkpt lat="39.4882075" lon="21.8382614"><ele>94.0</ele><time>2026-04-28T09:35:09.032Z</time></trkpt><trkpt lat="39.4879971" lon="21.8382542"><ele>94.0</ele><time>2026-04-28T09:35:10.031Z</time></trkpt><trkpt lat="39.4877887" lon="21.8382467"><ele>94.0</ele><time>2026-04-28T09:35:11.031Z</time></trkpt><trkpt lat="39.4875745" lon="21.8382412"><ele>94.0</ele><time>2026-04-28T09:35:12.032Z</time></trkpt><trkpt lat="39.4873637" lon="21.8382351"><ele>94.0</ele><time>2026-04-28T09:35:13.031Z</time></trkpt><trkpt lat="39.4871528" lon="21.8382275"><ele>94.0</ele><time>2026-04-28T09:35:14.032Z</time></trkpt><trkpt lat="39.4869456" lon="21.8382197"><ele>94.0</ele><time>2026-04-28T09:35:15.032Z</time></trkpt><trkpt lat="39.4867318" lon="21.8382119"><ele>94.0</ele><time>2026-04-28T09:35:16.031Z</time></trkpt><trkpt lat="39.4865217" lon="21.8382038"><ele>94.0</ele><time>2026-04-28T09:35:17.032Z</time></trkpt><trkpt lat="39.4863127" lon="21.8381952"><ele>94.66666666666666</ele><time>2026-04-28T09:35:18.032Z</time></trkpt><trkpt lat="39.4861068" lon="21.8381879"><ele>95.33333333333333</ele><time>2026-04-28T09:35:19.032Z</time></trkpt><trkpt lat="39.4858947" lon="21.8381808"><ele>96.0</ele><time>2026-04-28T09:35:20.031Z</time></trkpt><trkpt lat="39.485686" lon="21.8381743"><ele>96.0</ele><time>2026-04-28T09:35:21.031Z</time></trkpt><trkpt lat="39.4854768" lon="21.8381685"><ele>96.0</ele><time>2026-04-28T09:35:22.031Z</time></trkpt><trkpt lat="39.4852719" lon="21.8381624"><ele>96.0</ele><time>2026-04-28T09:35:23.032Z</time></trkpt><trkpt lat="39.48506" lon="21.8381539"><ele>96.0</ele><time>2026-04-28T09:35:24.031Z</time></trkpt><trkpt lat="39.4848515" lon="21.8381452"><ele>96.0</ele><time>2026-04-28T09:35:25.031Z</time></trkpt><trkpt lat="39.4846433" lon="21.8381374"><ele>96.0</ele><time>2026-04-28T09:35:26.031Z</time></trkpt><trkpt lat="39.4844396" lon="21.8381304"><ele>96.66666666666666</ele><time>2026-04-28T09:35:27.032Z</time></trkpt><trkpt lat="39.4842317" lon="21.8381234"><ele>97.33333333333333</ele><time>2026-04-28T09:35:28.032Z</time></trkpt><trkpt lat="39.4840289" lon="21.8381205"><ele>98.0</ele><time>2026-04-28T09:35:29.031Z</time></trkpt><trkpt lat="39.4838267" lon="21.8381311"><ele>97.66666666666666</ele><time>2026-04-28T09:35:30.032Z</time></trkpt><trkpt lat="39.4836286" lon="21.8381633"><ele>97.33333333333334</ele><time>2026-04-28T09:35:31.031Z</time></trkpt><trkpt lat="39.4834295" lon="21.8382247"><ele>97.0</ele><time>2026-04-28T09:35:32.032Z</time></trkpt><trkpt lat="39.4832395" lon="21.8383142"><ele>97.0</ele><time>2026-04-28T09:35:33.032Z</time></trkpt><trkpt lat="39.4830575" lon="21.8384289"><ele>97.0</ele><time>2026-04-28T09:35:34.032Z</time></trkpt><trkpt lat="39.4828886" lon="21.8385672"><ele>97.0</ele><time>2026-04-28T09:35:35.031Z</time></trkpt><trkpt lat="39.4827246" lon="21.8387292"><ele>96.66666666666667</ele><time>2026-04-28T09:35:36.031Z</time></trkpt><trkpt lat="39.4825699" lon="21.8389051"><ele>96.33333333333334</ele><time>2026-04-28T09:35:37.032Z</time></trkpt><trkpt lat="39.4824172" lon="21.8390882"><ele>96.0</ele><time>2026-04-28T09:35:38.032Z</time></trkpt><trkpt lat="39.4822654" lon="21.8392697"><ele>95.66666666666667</ele><time>2026-04-28T09:35:39.032Z</time></trkpt><trkpt lat="39.4821073" lon="21.8394568"><ele>95.33333333333334</ele><time>2026-04-28T09:35:40.031Z</time></trkpt><trkpt lat="39.4819521" lon="21.8396419"><ele>95.0</ele><time>2026-04-28T09:35:41.032Z</time></trkpt><trkpt lat="39.481798" lon="21.8398279"><ele>95.33333333333334</ele><time>2026-04-28T09:35:42.031Z</time></trkpt><trkpt lat="39.4816451" lon="21.8400105"><ele>95.66666666666667</ele><time>2026-04-28T09:35:43.031Z</time></trkpt><trkpt lat="39.4814864" lon="21.8401981"><ele>96.0</ele><time>2026-04-28T09:35:44.031Z</time></trkpt><trkpt lat="39.4813298" lon="21.8403839"><ele>95.66666666666667</ele><time>2026-04-28T09:35:45.031Z</time></trkpt><trkpt lat="39.4811732" lon="21.8405696"><ele>95.33333333333334</ele><time>2026-04-28T09:35:46.031Z</time></trkpt><trkpt lat="39.4810189" lon="21.8407526"><ele>95.0</ele><time>2026-04-28T09:35:47.032Z</time></trkpt><trkpt lat="39.4808594" lon="21.8409402"><ele>95.33333333333334</ele><time>2026-04-28T09:35:48.032Z</time></trkpt><trkpt lat="39.4807027" lon="21.8411247"><ele>95.66666666666667</ele><time>2026-04-28T09:35:49.032Z</time></trkpt><trkpt lat="39.4805467" lon="21.8413095"><ele>96.0</ele><time>2026-04-28T09:35:50.031Z</time></trkpt><trkpt lat="39.4803935" lon="21.8414927"><ele>96.0</ele><time>2026-04-28T09:35:51.031Z</time></trkpt><trkpt lat="39.4802361" lon="21.8416817"><ele>96.0</ele><time>2026-04-28T09:35:52.031Z</time></trkpt><trkpt lat="39.4800816" lon="21.8418674"><ele>96.0</ele><time>2026-04-28T09:35:53.031Z</time></trkpt><trkpt lat="39.4799274" lon="21.8420512"><ele>96.33333333333334</ele><time>2026-04-28T09:35:54.032Z</time></trkpt><trkpt lat="39.4797758" lon="21.842232"><ele>96.66666666666667</ele><time>2026-04-28T09:35:55.031Z</time></trkpt><trkpt lat="39.47962" lon="21.8424185"><ele>97.0</ele><time>2026-04-28T09:35:56.031Z</time></trkpt><trkpt lat="39.4794664" lon="21.8426016"><ele>96.33333333333334</ele><time>2026-04-28T09:35:57.032Z</time></trkpt><trkpt lat="39.4793126" lon="21.8427825"><ele>95.66666666666667</ele><time>2026-04-28T09:35:58.031Z</time></trkpt><trkpt lat="39.4791604" lon="21.8429615"><ele>95.0</ele><time>2026-04-28T09:35:59.032Z</time></trkpt><trkpt lat="39.4790039" lon="21.843145"><ele>95.0</ele><time>2026-04-28T09:36:00.032Z</time></trkpt><trkpt lat="39.4788498" lon="21.8433255"><ele>95.0</ele><time>2026-04-28T09:36:01.032Z</time></trkpt><trkpt lat="39.4786964" lon="21.843507"><ele>95.0</ele><time>2026-04-28T09:36:02.032Z</time></trkpt><trkpt lat="39.4785463" lon="21.8436873"><ele>93.66666666666667</ele><time>2026-04-28T09:36:03.032Z</time></trkpt><trkpt lat="39.4783914" lon="21.8438732"><ele>92.33333333333333</ele><time>2026-04-28T09:36:04.032Z</time></trkpt><trkpt lat="39.4782385" lon="21.8440565"><ele>91.0</ele><time>2026-04-28T09:36:05.031Z</time></trkpt><trkpt lat="39.4780844" lon="21.8442403"><ele>92.0</ele><time>2026-04-28T09:36:06.032Z</time></trkpt><trkpt lat="39.4779309" lon="21.8444209"><ele>93.0</ele><time>2026-04-28T09:36:07.031Z</time></trkpt><trkpt lat="39.477772" lon="21.8446077"><ele>94.0</ele><time>2026-04-28T09:36:08.032Z</time></trkpt><trkpt lat="39.4776161" lon="21.8447932"><ele>94.0</ele><time>2026-04-28T09:36:09.032Z</time></trkpt><trkpt lat="39.4774614" lon="21.8449794"><ele>94.0</ele><time>2026-04-28T09:36:10.032Z</time></trkpt><trkpt lat="39.4773084" lon="21.8451598"><ele>94.0</ele><time>2026-04-28T09:36:11.031Z</time></trkpt><trkpt lat="39.4771468" lon="21.8453386"><ele>94.66666666666666</ele><time>2026-04-28T09:36:12.031Z</time></trkpt><trkpt lat="39.4769796" lon="21.8454987"><ele>95.33333333333333</ele><time>2026-04-28T09:36:13.031Z</time></trkpt><trkpt lat="39.4768011" lon="21.8456383"><ele>96.0</ele><time>2026-04-28T09:36:14.032Z</time></trkpt><trkpt lat="39.4766172" lon="21.8457571"><ele>96.0</ele><time>2026-04-28T09:36:15.031Z</time></trkpt><trkpt lat="39.4764208" lon="21.8458709"><ele>96.0</ele><time>2026-04-28T09:36:16.031Z</time></trkpt><trkpt lat="39.476226" lon="21.845982"><ele>96.0</ele><time>2026-04-28T09:36:17.031Z</time></trkpt><trkpt lat="39.4760302" lon="21.8460936"><ele>96.0</ele><time>2026-04-28T09:36:18.031Z</time></trkpt><trkpt lat="39.4758367" lon="21.8462026"><ele>96.0</ele><time>2026-04-28T09:36:19.032Z</time></trkpt><trkpt lat="39.4756365" lon="21.8463123"><ele>96.0</ele><time>2026-04-28T09:36:20.031Z</time></trkpt><trkpt lat="39.47544" lon="21.8464214"><ele>95.33333333333333</ele><time>2026-04-28T09:36:21.032Z</time></trkpt><trkpt lat="39.4752449" lon="21.8465323"><ele>94.66666666666666</ele><time>2026-04-28T09:36:22.031Z</time></trkpt><trkpt lat="39.4750532" lon="21.8466407"><ele>94.0</ele><time>2026-04-28T09:36:23.031Z</time></trkpt><trkpt lat="39.4748554" lon="21.8467524"><ele>93.66666666666666</ele><time>2026-04-28T09:36:24.032Z</time></trkpt><trkpt lat="39.4746611" lon="21.846863"><ele>93.33333333333333</ele><time>2026-04-28T09:36:25.032Z</time></trkpt><trkpt lat="39.4744663" lon="21.846973"><ele>93.0</ele><time>2026-04-28T09:36:26.031Z</time></trkpt><trkpt lat="39.474274" lon="21.8470785"><ele>93.66666666666667</ele><time>2026-04-28T09:36:27.031Z</time></trkpt><trkpt lat="39.4740754" lon="21.8471866"><ele>94.33333333333334</ele><time>2026-04-28T09:36:28.032Z</time></trkpt><trkpt lat="39.4738807" lon="21.8472946"><ele>95.0</ele><time>2026-04-28T09:36:29.032Z</time></trkpt><trkpt lat="39.4736866" lon="21.8474028"><ele>95.0</ele><time>2026-04-28T09:36:30.031Z</time></trkpt><trkpt lat="39.4734956" lon="21.8475104"><ele>95.0</ele><time>2026-04-28T09:36:31.031Z</time></trkpt><trkpt lat="39.4732991" lon="21.8476209"><ele>95.0</ele><time>2026-04-28T09:36:32.032Z</time></trkpt><trkpt lat="39.4731058" lon="21.8477291"><ele>95.0</ele><time>2026-04-28T09:36:33.032Z</time></trkpt><trkpt lat="39.4729129" lon="21.8478363"><ele>95.0</ele><time>2026-04-28T09:36:34.031Z</time></trkpt><trkpt lat="39.4727231" lon="21.8479421"><ele>95.0</ele><time>2026-04-28T09:36:35.032Z</time></trkpt><trkpt lat="39.4725274" lon="21.8480506"><ele>95.0</ele><time>2026-04-28T09:36:36.032Z</time></trkpt><trkpt lat="39.472335" lon="21.8481569"><ele>95.0</ele><time>2026-04-28T09:36:37.031Z</time></trkpt><trkpt lat="39.4721486" lon="21.8482592"><ele>95.0</ele><time>2026-04-28T09:36:38.031Z</time></trkpt><trkpt lat="39.4719732" lon="21.8483566"><ele>95.0</ele><time>2026-04-28T09:36:39.032Z</time></trkpt><trkpt lat="39.4718006" lon="21.8484522"><ele>95.0</ele><time>2026-04-28T09:36:40.031Z</time></trkpt><trkpt lat="39.471635" lon="21.8485446"><ele>95.0</ele><time>2026-04-28T09:36:41.032Z</time></trkpt><trkpt lat="39.4714769" lon="21.8486335"><ele>95.0</ele><time>2026-04-28T09:36:42.032Z</time></trkpt><trkpt lat="39.47133" lon="21.8487154"><ele>95.0</ele><time>2026-04-28T09:36:43.031Z</time></trkpt><trkpt lat="39.4711879" lon="21.848796"><ele>95.0</ele><time>2026-04-28T09:36:44.032Z</time></trkpt><trkpt lat="39.4710576" lon="21.8488723"><ele>95.75</ele><time>2026-04-28T09:36:45.032Z</time></trkpt><trkpt lat="39.470932" lon="21.8489469"><ele>96.5</ele><time>2026-04-28T09:36:46.031Z</time></trkpt><trkpt lat="39.470819" lon="21.8490134"><ele>97.25</ele><time>2026-04-28T09:36:47.031Z</time></trkpt><trkpt lat="39.4707184" lon="21.849071"><ele>98.0</ele><time>2026-04-28T09:36:48.032Z</time></trkpt><trkpt lat="39.4706343" lon="21.8491197"><ele>98.0</ele><time>2026-04-28T09:36:49.031Z</time></trkpt><trkpt lat="39.4705595" lon="21.8491635"><ele>98.0</ele><time>2026-04-28T09:36:50.032Z</time></trkpt><trkpt lat="39.470487" lon="21.8492045"><ele>98.0</ele><time>2026-04-28T09:36:51.031Z</time></trkpt><trkpt lat="39.4704064" lon="21.8492485"><ele>98.0</ele><time>2026-04-28T09:36:52.032Z</time></trkpt><trkpt lat="39.4703154" lon="21.8493012"><ele>98.0</ele><time>2026-04-28T09:36:53.032Z</time></trkpt><trkpt lat="39.4702009" lon="21.849374"><ele>97.66666666666666</ele><time>2026-04-28T09:36:54.031Z</time></trkpt><trkpt lat="39.4700558" lon="21.8494635"><ele>97.33333333333334</ele><time>2026-04-28T09:36:55.031Z</time></trkpt><trkpt lat="39.4698815" lon="21.849564"><ele>97.0</ele><time>2026-04-28T09:36:56.031Z</time></trkpt><trkpt lat="39.4696876" lon="21.8496738"><ele>97.0</ele><time>2026-04-28T09:36:57.032Z</time></trkpt><trkpt lat="39.469471" lon="21.8497951"><ele>97.0</ele><time>2026-04-28T09:36:58.031Z</time></trkpt><trkpt lat="39.4692503" lon="21.8499197"><ele>97.0</ele><time>2026-04-28T09:36:59.032Z</time></trkpt><trkpt lat="39.4690087" lon="21.8500575"><ele>97.0</ele><time>2026-04-28T09:37:00.031Z</time></trkpt><trkpt lat="39.4687717" lon="21.8501894"><ele>96.5</ele><time>2026-04-28T09:37:01.032Z</time></trkpt><trkpt lat="39.4685347" lon="21.8503176"><ele>96.0</ele><time>2026-04-28T09:37:02.031Z</time></trkpt><trkpt lat="39.4683052" lon="21.8504373"><ele>96.0</ele><time>2026-04-28T09:37:03.031Z</time></trkpt><trkpt lat="39.4680782" lon="21.8505537"><ele>96.0</ele><time>2026-04-28T09:37:04.032Z</time></trkpt><trkpt lat="39.4678582" lon="21.850669"><ele>96.0</ele><time>2026-04-28T09:37:05.031Z</time></trkpt><trkpt lat="39.4676389" lon="21.85079"><ele>96.0</ele><time>2026-04-28T09:37:06.032Z</time></trkpt><trkpt lat="39.4674197" lon="21.8509154"><ele>96.0</ele><time>2026-04-28T09:37:07.032Z</time></trkpt><trkpt lat="39.4671875" lon="21.8510556"><ele>96.0</ele><time>2026-04-28T09:37:08.032Z</time></trkpt><trkpt lat="39.4669493" lon="21.8511951"><ele>96.0</ele><time>2026-04-28T09:37:09.032Z</time></trkpt><trkpt lat="39.4667125" lon="21.851325"><ele>96.0</ele><time>2026-04-28T09:37:10.032Z</time></trkpt><trkpt lat="39.4664819" lon="21.8514479"><ele>96.0</ele><time>2026-04-28T09:37:11.031Z</time></trkpt><trkpt lat="39.4662482" lon="21.851571"><ele>96.0</ele><time>2026-04-28T09:37:12.032Z</time></trkpt><trkpt lat="39.4660233" lon="21.8516895"><ele>95.0</ele><time>2026-04-28T09:37:13.032Z</time></trkpt><trkpt lat="39.4658055" lon="21.8518083"><ele>94.0</ele><time>2026-04-28T09:37:14.032Z</time></trkpt><trkpt lat="39.4655973" lon="21.8519246"><ele>94.33333333333333</ele><time>2026-04-28T09:37:15.031Z</time></trkpt><trkpt lat="39.4653879" lon="21.8520408"><ele>94.66666666666667</ele><time>2026-04-28T09:37:16.031Z</time></trkpt><trkpt lat="39.4651869" lon="21.852153"><ele>95.0</ele><time>2026-04-28T09:37:17.032Z</time></trkpt><trkpt lat="39.46499" lon="21.8522647"><ele>95.0</ele><time>2026-04-28T09:37:18.031Z</time></trkpt><trkpt lat="39.4647979" lon="21.8523725"><ele>95.0</ele><time>2026-04-28T09:37:19.031Z</time></trkpt><trkpt lat="39.4646008" lon="21.8524819"><ele>95.0</ele><time>2026-04-28T09:37:20.031Z</time></trkpt><trkpt lat="39.4644075" lon="21.8525882"><ele>95.66666666666667</ele><time>2026-04-28T09:37:21.032Z</time></trkpt><trkpt lat="39.4642148" lon="21.8526936"><ele>96.33333333333334</ele><time>2026-04-28T09:37:22.032Z</time></trkpt><trkpt lat="39.4640253" lon="21.8527972"><ele>97.0</ele><time>2026-04-28T09:37:23.032Z</time></trkpt><trkpt lat="39.4638297" lon="21.8529052"><ele>97.33333333333334</ele><time>2026-04-28T09:37:24.031Z</time></trkpt><trkpt lat="39.4636368" lon="21.8530117"><ele>97.66666666666666</ele><time>2026-04-28T09:37:25.032Z</time></trkpt><trkpt lat="39.4634441" lon="21.8531195"><ele>98.0</ele><time>2026-04-28T09:37:26.032Z</time></trkpt><trkpt lat="39.4632546" lon="21.8532263"><ele>98.0</ele><time>2026-04-28T09:37:27.032Z</time></trkpt><trkpt lat="39.4630586" lon="21.8533371"><ele>98.0</ele><time>2026-04-28T09:37:28.032Z</time></trkpt><trkpt lat="39.4628648" lon="21.853446"><ele>98.0</ele><time>2026-04-28T09:37:29.032Z</time></trkpt><trkpt lat="39.4626705" lon="21.853555"><ele>97.66666666666666</ele><time>2026-04-28T09:37:30.031Z</time></trkpt><trkpt lat="39.4624789" lon="21.8536618"><ele>97.33333333333334</ele><time>2026-04-28T09:37:31.032Z</time></trkpt><trkpt lat="39.4622802" lon="21.853773"><ele>97.0</ele><time>2026-04-28T09:37:32.031Z</time></trkpt><trkpt lat="39.4620845" lon="21.8538816"><ele>97.0</ele><time>2026-04-28T09:37:33.032Z</time></trkpt><trkpt lat="39.4618882" lon="21.8539911"><ele>97.0</ele><time>2026-04-28T09:37:34.031Z</time></trkpt><trkpt lat="39.4616946" lon="21.8540996"><ele>97.0</ele><time>2026-04-28T09:37:35.032Z</time></trkpt><trkpt lat="39.4614945" lon="21.8542119"><ele>96.33333333333334</ele><time>2026-04-28T09:37:36.032Z</time></trkpt><trkpt lat="39.4612971" lon="21.8543221"><ele>95.66666666666667</ele><time>2026-04-28T09:37:37.031Z</time></trkpt><trkpt lat="39.4610996" lon="21.8544315"><ele>95.0</ele><time>2026-04-28T09:37:38.032Z</time></trkpt><trkpt lat="39.4609051" lon="21.8545378"><ele>95.0</ele><time>2026-04-28T09:37:39.031Z</time></trkpt><trkpt lat="39.4607047" lon="21.8546476"><ele>95.0</ele><time>2026-04-28T09:37:40.032Z</time></trkpt><trkpt lat="39.4605088" lon="21.8547571"><ele>95.0</ele><time>2026-04-28T09:37:41.032Z</time></trkpt><trkpt lat="39.4603128" lon="21.8548668"><ele>95.0</ele><time>2026-04-28T09:37:42.032Z</time></trkpt><trkpt lat="39.4601196" lon="21.8549744"><ele>95.0</ele><time>2026-04-28T09:37:43.031Z</time></trkpt><trkpt lat="39.4599223" lon="21.8550858"><ele>95.0</ele><time>2026-04-28T09:37:44.032Z</time></trkpt><trkpt lat="39.4597248" lon="21.8551976"><ele>95.33333333333334</ele><time>2026-04-28T09:37:45.032Z</time></trkpt><trkpt lat="39.4595328" lon="21.8553053"><ele>95.66666666666667</ele><time>2026-04-28T09:37:46.032Z</time></trkpt><trkpt lat="39.4593429" lon="21.8554119"><ele>96.0</ele><time>2026-04-28T09:37:47.032Z</time></trkpt><trkpt lat="39.4591473" lon="21.8555213"><ele>96.0</ele><time>2026-04-28T09:37:48.031Z</time></trkpt><trkpt lat="39.4589553" lon="21.8556277"><ele>96.0</ele><time>2026-04-28T09:37:49.032Z</time></trkpt><trkpt lat="39.458763" lon="21.8557336"><ele>96.0</ele><time>2026-04-28T09:37:50.032Z</time></trkpt><trkpt lat="39.4585747" lon="21.8558376"><ele>96.0</ele><time>2026-04-28T09:37:51.032Z</time></trkpt><trkpt lat="39.4583805" lon="21.8559466"><ele>96.0</ele><time>2026-04-28T09:37:52.031Z</time></trkpt><trkpt lat="39.4581898" lon="21.8560565"><ele>96.0</ele><time>2026-04-28T09:37:53.032Z</time></trkpt><trkpt lat="39.4579987" lon="21.8561654"><ele>97.33333333333334</ele><time>2026-04-28T09:37:54.032Z</time></trkpt><trkpt lat="39.4578096" lon="21.8562719"><ele>98.66666666666667</ele><time>2026-04-28T09:37:55.032Z</time></trkpt><trkpt lat="39.457613" lon="21.8563805"><ele>100.0</ele><time>2026-04-28T09:37:56.032Z</time></trkpt><trkpt lat="39.457418" lon="21.8564867"><ele>100.0</ele><time>2026-04-28T09:37:57.032Z</time></trkpt><trkpt lat="39.4572225" lon="21.8565925"><ele>100.0</ele><time>2026-04-28T09:37:58.032Z</time></trkpt><trkpt lat="39.4570299" lon="21.8566978"><ele>100.0</ele><time>2026-04-28T09:37:59.031Z</time></trkpt><trkpt lat="39.4568311" lon="21.8568068"><ele>99.66666666666667</ele><time>2026-04-28T09:38:00.032Z</time></trkpt><trkpt lat="39.4566353" lon="21.8569142"><ele>99.33333333333334</ele><time>2026-04-28T09:38:01.032Z</time></trkpt><trkpt lat="39.4564397" lon="21.8570226"><ele>99.0</ele><time>2026-04-28T09:38:02.032Z</time></trkpt><trkpt lat="39.4562469" lon="21.8571287"><ele>98.33333333333334</ele><time>2026-04-28T09:38:03.032Z</time></trkpt><trkpt lat="39.4560483" lon="21.8572373"><ele>97.66666666666667</ele><time>2026-04-28T09:38:04.032Z</time></trkpt><trkpt lat="39.4558506" lon="21.857346"><ele>97.0</ele><time>2026-04-28T09:38:05.032Z</time></trkpt><trkpt lat="39.4556542" lon="21.8574565"><ele>97.0</ele><time>2026-04-28T09:38:06.032Z</time></trkpt><trkpt lat="39.4554564" lon="21.8575697"><ele>97.0</ele><time>2026-04-28T09:38:07.032Z</time></trkpt><trkpt lat="39.455249" lon="21.8576893"><ele>97.0</ele><time>2026-04-28T09:38:08.032Z</time></trkpt><trkpt lat="39.4550357" lon="21.8578109"><ele>97.0</ele><time>2026-04-28T09:38:09.031Z</time></trkpt><trkpt lat="39.4548143" lon="21.8579352"><ele>97.0</ele><time>2026-04-28T09:38:10.032Z</time></trkpt><trkpt lat="39.4545902" lon="21.8580599"><ele>96.5</ele><time>2026-04-28T09:38:11.031Z</time></trkpt><trkpt lat="39.4543559" lon="21.8581896"><ele>96.0</ele><time>2026-04-28T09:38:12.031Z</time></trkpt><trkpt lat="39.4541216" lon="21.8583212"><ele>96.0</ele><time>2026-04-28T09:38:13.032Z</time></trkpt><trkpt lat="39.4538841" lon="21.8584528"><ele>96.0</ele><time>2026-04-28T09:38:14.031Z</time></trkpt><trkpt lat="39.4536482" lon="21.8585835"><ele>96.0</ele><time>2026-04-28T09:38:15.032Z</time></trkpt><trkpt lat="39.4534025" lon="21.85872"><ele>96.0</ele><time>2026-04-28T09:38:16.031Z</time></trkpt><trkpt lat="39.4531593" lon="21.8588556"><ele>96.0</ele><time>2026-04-28T09:38:17.032Z</time></trkpt><trkpt lat="39.4529153" lon="21.8589904"><ele>96.0</ele><time>2026-04-28T09:38:18.031Z</time></trkpt><trkpt lat="39.4526754" lon="21.8591244"><ele>96.0</ele><time>2026-04-28T09:38:19.032Z</time></trkpt><trkpt lat="39.4524281" lon="21.8592641"><ele>96.0</ele><time>2026-04-28T09:38:20.032Z</time></trkpt><trkpt lat="39.4521871" lon="21.859401"><ele>94.5</ele><time>2026-04-28T09:38:21.031Z</time></trkpt><trkpt lat="39.4519458" lon="21.8595357"><ele>93.0</ele><time>2026-04-28T09:38:22.032Z</time></trkpt><trkpt lat="39.4517085" lon="21.8596679"><ele>93.0</ele><time>2026-04-28T09:38:23.032Z</time></trkpt><trkpt lat="39.4514637" lon="21.8598038"><ele>93.0</ele><time>2026-04-28T09:38:24.032Z</time></trkpt><trkpt lat="39.4512214" lon="21.8599385"><ele>94.0</ele><time>2026-04-28T09:38:25.031Z</time></trkpt><trkpt lat="39.4509785" lon="21.8600748"><ele>95.0</ele><time>2026-04-28T09:38:26.031Z</time></trkpt><trkpt lat="39.4507396" lon="21.8602083"><ele>95.0</ele><time>2026-04-28T09:38:27.032Z</time></trkpt><trkpt lat="39.4504931" lon="21.8603462"><ele>95.0</ele><time>2026-04-28T09:38:28.031Z</time></trkpt><trkpt lat="39.4502506" lon="21.8604823"><ele>95.5</ele><time>2026-04-28T09:38:29.031Z</time></trkpt><trkpt lat="39.4500155" lon="21.860613"><ele>96.0</ele><time>2026-04-28T09:38:30.031Z</time></trkpt><trkpt lat="39.4497841" lon="21.860742"><ele>95.5</ele><time>2026-04-28T09:38:31.032Z</time></trkpt><trkpt lat="39.4495497" lon="21.8608704"><ele>95.0</ele><time>2026-04-28T09:38:32.032Z</time></trkpt><trkpt lat="39.4493234" lon="21.8609935"><ele>95.0</ele><time>2026-04-28T09:38:33.031Z</time></trkpt><trkpt lat="39.4490989" lon="21.8611154"><ele>95.0</ele><time>2026-04-28T09:38:34.031Z</time></trkpt><trkpt lat="39.4488798" lon="21.8612312"><ele>95.0</ele><time>2026-04-28T09:38:35.031Z</time></trkpt><trkpt lat="39.4486519" lon="21.8613422"><ele>95.0</ele><time>2026-04-28T09:38:36.031Z</time></trkpt><trkpt lat="39.4484228" lon="21.861441"><ele>95.0</ele><time>2026-04-28T09:38:37.031Z</time></trkpt><trkpt lat="39.4481885" lon="21.8615302"><ele>95.0</ele><time>2026-04-28T09:38:38.032Z</time></trkpt><trkpt lat="39.4479558" lon="21.8616095"><ele>95.5</ele><time>2026-04-28T09:38:39.032Z</time></trkpt><trkpt lat="39.4477142" lon="21.8616827"><ele>96.0</ele><time>2026-04-28T09:38:40.031Z</time></trkpt><trkpt lat="39.4474754" lon="21.8617435"><ele>95.5</ele><time>2026-04-28T09:38:41.032Z</time></trkpt><trkpt lat="39.4472357" lon="21.8617917"><ele>95.0</ele><time>2026-04-28T09:38:42.032Z</time></trkpt><trkpt lat="39.4469994" lon="21.8618254"><ele>94.5</ele><time>2026-04-28T09:38:43.032Z</time></trkpt><trkpt lat="39.4467546" lon="21.861846"><ele>94.0</ele><time>2026-04-28T09:38:44.032Z</time></trkpt><trkpt lat="39.446513" lon="21.8618517"><ele>93.5</ele><time>2026-04-28T09:38:45.032Z</time></trkpt><trkpt lat="39.4462739" lon="21.8618466"><ele>93.0</ele><time>2026-04-28T09:38:46.032Z</time></trkpt><trkpt lat="39.4460351" lon="21.8618321"><ele>93.0</ele><time>2026-04-28T09:38:47.032Z</time></trkpt><trkpt lat="39.4457993" lon="21.861811"><ele>93.0</ele><time>2026-04-28T09:38:48.031Z</time></trkpt><trkpt lat="39.4455648" lon="21.8617846"><ele>92.0</ele><time>2026-04-28T09:38:49.031Z</time></trkpt><trkpt lat="39.4453397" lon="21.8617566"><ele>91.0</ele><time>2026-04-28T09:38:50.032Z</time></trkpt><trkpt lat="39.4451169" lon="21.8617289"><ele>91.0</ele><time>2026-04-28T09:38:51.031Z</time></trkpt><trkpt lat="39.4449022" lon="21.861701"><ele>91.0</ele><time>2026-04-28T09:38:52.032Z</time></trkpt><trkpt lat="39.4446959" lon="21.8616751"><ele>91.0</ele><time>2026-04-28T09:38:53.031Z</time></trkpt><trkpt lat="39.4444955" lon="21.8616518"><ele>91.33333333333333</ele><time>2026-04-28T09:38:54.031Z</time></trkpt><trkpt lat="39.4443023" lon="21.8616288"><ele>91.66666666666667</ele><time>2026-04-28T09:38:55.032Z</time></trkpt><trkpt lat="39.4441039" lon="21.8616048"><ele>92.0</ele><time>2026-04-28T09:38:56.031Z</time></trkpt><trkpt lat="39.4439046" lon="21.8615827"><ele>92.66666666666667</ele><time>2026-04-28T09:38:57.032Z</time></trkpt><trkpt lat="39.4436961" lon="21.8615583"><ele>93.33333333333333</ele><time>2026-04-28T09:38:58.031Z</time></trkpt><trkpt lat="39.4434819" lon="21.861533"><ele>94.0</ele><time>2026-04-28T09:38:59.032Z</time></trkpt><trkpt lat="39.4432616" lon="21.8615049"><ele>94.0</ele><time>2026-04-28T09:39:00.031Z</time></trkpt><trkpt lat="39.4430461" lon="21.8614756"><ele>94.0</ele><time>2026-04-28T09:39:01.032Z</time></trkpt><trkpt lat="39.4428325" lon="21.8614429"><ele>94.0</ele><time>2026-04-28T09:39:02.032Z</time></trkpt><trkpt lat="39.4426218" lon="21.8614108"><ele>94.33333333333333</ele><time>2026-04-28T09:39:03.032Z</time></trkpt><trkpt lat="39.4424011" lon="21.861382"><ele>94.66666666666667</ele><time>2026-04-28T09:39:04.031Z</time></trkpt><trkpt lat="39.4421777" lon="21.8613564"><ele>95.0</ele><time>2026-04-28T09:39:05.031Z</time></trkpt><trkpt lat="39.4419459" lon="21.8613333"><ele>95.0</ele><time>2026-04-28T09:39:06.032Z</time></trkpt><trkpt lat="39.4417126" lon="21.8613067"><ele>95.0</ele><time>2026-04-28T09:39:07.031Z</time></trkpt><trkpt lat="39.4414782" lon="21.861277"><ele>94.5</ele><time>2026-04-28T09:39:08.031Z</time></trkpt><trkpt lat="39.4412391" lon="21.861251"><ele>94.0</ele><time>2026-04-28T09:39:09.031Z</time></trkpt><trkpt lat="39.441006" lon="21.8612345"><ele>94.0</ele><time>2026-04-28T09:39:10.031Z</time></trkpt><trkpt lat="39.4407659" lon="21.8612302"><ele>94.0</ele><time>2026-04-28T09:39:11.031Z</time></trkpt><trkpt lat="39.4405234" lon="21.8612391"><ele>94.0</ele><time>2026-04-28T09:39:12.031Z</time></trkpt><trkpt lat="39.4402748" lon="21.8612619"><ele>94.0</ele><time>2026-04-28T09:39:13.032Z</time></trkpt><trkpt lat="39.4400295" lon="21.8612987"><ele>94.0</ele><time>2026-04-28T09:39:14.031Z</time></trkpt><trkpt lat="39.439777" lon="21.8613477"><ele>94.0</ele><time>2026-04-28T09:39:15.032Z</time></trkpt><trkpt lat="39.4395115" lon="21.861407"><ele>95.0</ele><time>2026-04-28T09:39:16.031Z</time></trkpt><trkpt lat="39.4392458" lon="21.8614765"><ele>96.0</ele><time>2026-04-28T09:39:17.031Z</time></trkpt><trkpt lat="39.4389742" lon="21.8615654"><ele>95.0</ele><time>2026-04-28T09:39:18.032Z</time></trkpt><trkpt lat="39.438702" lon="21.8616744"><ele>94.0</ele><time>2026-04-28T09:39:19.032Z</time></trkpt><trkpt lat="39.4384173" lon="21.8618085"><ele>94.0</ele><time>2026-04-28T09:39:20.031Z</time></trkpt><trkpt lat="39.4381362" lon="21.8619598"><ele>94.0</ele><time>2026-04-28T09:39:21.032Z</time></trkpt><trkpt lat="39.4378579" lon="21.8621326"><ele>93.0</ele><time>2026-04-28T09:39:22.032Z</time></trkpt><trkpt lat="39.4375866" lon="21.8623225"><ele>92.0</ele><time>2026-04-28T09:39:23.031Z</time></trkpt><trkpt lat="39.4373099" lon="21.8625387"><ele>93.0</ele><time>2026-04-28T09:39:24.032Z</time></trkpt><trkpt lat="39.4370419" lon="21.8627716"><ele>94.0</ele><time>2026-04-28T09:39:25.031Z</time></trkpt><trkpt lat="39.4367798" lon="21.863023"><ele>94.0</ele><time>2026-04-28T09:39:26.032Z</time></trkpt><trkpt lat="39.436531" lon="21.8632895"><ele>94.0</ele><time>2026-04-28T09:39:27.031Z</time></trkpt><trkpt lat="39.4362847" lon="21.8635815"><ele>93.0</ele><time>2026-04-28T09:39:28.031Z</time></trkpt><trkpt lat="39.4360533" lon="21.8638887"><ele>92.0</ele><time>2026-04-28T09:39:29.031Z</time></trkpt><trkpt lat="39.4358406" lon="21.8642024"><ele>92.0</ele><time>2026-04-28T09:39:30.031Z</time></trkpt><trkpt lat="39.4356372" lon="21.8645347"><ele>92.0</ele><time>2026-04-28T09:39:31.032Z</time></trkpt><trkpt lat="39.4354477" lon="21.8648785"><ele>93.0</ele><time>2026-04-28T09:39:32.031Z</time></trkpt><trkpt lat="39.4352691" lon="21.8652405"><ele>94.0</ele><time>2026-04-28T09:39:33.031Z</time></trkpt><trkpt lat="39.4351104" lon="21.8656023"><ele>93.0</ele><time>2026-04-28T09:39:34.031Z</time></trkpt><trkpt lat="39.4349655" lon="21.8659787"><ele>92.0</ele><time>2026-04-28T09:39:35.031Z</time></trkpt><trkpt lat="39.4348374" lon="21.866363"><ele>92.0</ele><time>2026-04-28T09:39:36.032Z</time></trkpt><trkpt lat="39.4347257" lon="21.8667483"><ele>92.0</ele><time>2026-04-28T09:39:37.031Z</time></trkpt><trkpt lat="39.4346303" lon="21.8671337"><ele>91.5</ele><time>2026-04-28T09:39:38.031Z</time></trkpt><trkpt lat="39.434547" lon="21.8675093"><ele>91.0</ele><time>2026-04-28T09:39:39.031Z</time></trkpt><trkpt lat="39.434464" lon="21.8678896"><ele>91.0</ele><time>2026-04-28T09:39:40.031Z</time></trkpt><trkpt lat="39.4343823" lon="21.8682552"><ele>91.0</ele><time>2026-04-28T09:39:41.032Z</time></trkpt><trkpt lat="39.4343009" lon="21.8686156"><ele>91.0</ele><time>2026-04-28T09:39:42.031Z</time></trkpt><trkpt lat="39.4342223" lon="21.8689684"><ele>91.0</ele><time>2026-04-28T09:39:43.032Z</time></trkpt><trkpt lat="39.4341419" lon="21.8693248"><ele>91.5</ele><time>2026-04-28T09:39:44.031Z</time></trkpt><trkpt lat="39.4340586" lon="21.8696787"><ele>92.0</ele><time>2026-04-28T09:39:45.031Z</time></trkpt><trkpt lat="39.4339716" lon="21.8700134"><ele>93.0</ele><time>2026-04-28T09:39:46.032Z</time></trkpt><trkpt lat="39.4338707" lon="21.870348"><ele>94.0</ele><time>2026-04-28T09:39:47.032Z</time></trkpt><trkpt lat="39.433755" lon="21.8706791"><ele>95.0</ele><time>2026-04-28T09:39:48.032Z</time></trkpt><trkpt lat="39.4336214" lon="21.8710114"><ele>96.0</ele><time>2026-04-28T09:39:49.031Z</time></trkpt><trkpt lat="39.4334796" lon="21.8713265"><ele>96.0</ele><time>2026-04-28T09:39:50.031Z</time></trkpt><trkpt lat="39.4333258" lon="21.8716389"><ele>96.0</ele><time>2026-04-28T09:39:51.032Z</time></trkpt><trkpt lat="39.4331639" lon="21.8719404"><ele>96.0</ele><time>2026-04-28T09:39:52.032Z</time></trkpt><trkpt lat="39.4329916" lon="21.872233"><ele>96.0</ele><time>2026-04-28T09:39:53.031Z</time></trkpt><trkpt lat="39.4328161" lon="21.872502"><ele>95.0</ele><time>2026-04-28T09:39:54.031Z</time></trkpt><trkpt lat="39.4326309" lon="21.8727553"><ele>94.0</ele><time>2026-04-28T09:39:55.032Z</time></trkpt><trkpt lat="39.4324388" lon="21.8729924"><ele>94.0</ele><time>2026-04-28T09:39:56.032Z</time></trkpt><trkpt lat="39.4322366" lon="21.8732154"><ele>94.0</ele><time>2026-04-28T09:39:57.031Z</time></trkpt><trkpt lat="39.432033" lon="21.8734207"><ele>93.0</ele><time>2026-04-28T09:39:58.031Z</time></trkpt><trkpt lat="39.4318203" lon="21.8736207"><ele>92.0</ele><time>2026-04-28T09:39:59.032Z</time></trkpt><trkpt lat="39.431601" lon="21.8738132"><ele>92.0</ele><time>2026-04-28T09:40:00.031Z</time></trkpt><trkpt lat="39.4313705" lon="21.8740011"><ele>92.0</ele><time>2026-04-28T09:40:01.031Z</time></trkpt><trkpt lat="39.4311454" lon="21.8741707"><ele>93.0</ele><time>2026-04-28T09:40:02.031Z</time></trkpt><trkpt lat="39.430916" lon="21.8743334"><ele>94.0</ele><time>2026-04-28T09:40:03.031Z</time></trkpt><trkpt lat="39.4306884" lon="21.8744869"><ele>92.5</ele><time>2026-04-28T09:40:04.031Z</time></trkpt><trkpt lat="39.4304612" lon="21.8746358"><ele>91.0</ele><time>2026-04-28T09:40:05.032Z</time></trkpt><trkpt lat="39.4302464" lon="21.8747772"><ele>91.0</ele><time>2026-04-28T09:40:06.032Z</time></trkpt><trkpt lat="39.4300321" lon="21.8749182"><ele>91.0</ele><time>2026-04-28T09:40:07.032Z</time></trkpt><trkpt lat="39.4298202" lon="21.8750567"><ele>92.0</ele><time>2026-04-28T09:40:08.032Z</time></trkpt><trkpt lat="39.4296057" lon="21.8751967"><ele>93.0</ele><time>2026-04-28T09:40:09.032Z</time></trkpt><trkpt lat="39.4293969" lon="21.8753334"><ele>93.0</ele><time>2026-04-28T09:40:10.031Z</time></trkpt><trkpt lat="39.4291813" lon="21.8754738"><ele>93.0</ele><time>2026-04-28T09:40:11.032Z</time></trkpt><trkpt lat="39.4289628" lon="21.8756154"><ele>92.5</ele><time>2026-04-28T09:40:12.032Z</time></trkpt><trkpt lat="39.4287399" lon="21.8757584"><ele>92.0</ele><time>2026-04-28T09:40:13.032Z</time></trkpt><trkpt lat="39.4285245" lon="21.8758926"><ele>92.5</ele><time>2026-04-28T09:40:14.031Z</time></trkpt><trkpt lat="39.4283054" lon="21.8760271"><ele>93.0</ele><time>2026-04-28T09:40:15.032Z</time></trkpt><trkpt lat="39.4280858" lon="21.8761597"><ele>93.5</ele><time>2026-04-28T09:40:16.031Z</time></trkpt><trkpt lat="39.4278619" lon="21.8762929"><ele>94.0</ele><time>2026-04-28T09:40:17.031Z</time></trkpt><trkpt lat="39.4276444" lon="21.8764208"><ele>94.0</ele><time>2026-04-28T09:40:18.031Z</time></trkpt><trkpt lat="39.4274219" lon="21.876549"><ele>94.0</ele><time>2026-04-28T09:40:19.031Z</time></trkpt><trkpt lat="39.4271988" lon="21.8766784"><ele>93.5</ele><time>2026-04-28T09:40:20.032Z</time></trkpt><trkpt lat="39.4269704" lon="21.8768117"><ele>93.0</ele><time>2026-04-28T09:40:21.032Z</time></trkpt><trkpt lat="39.4267486" lon="21.8769432"><ele>93.0</ele><time>2026-04-28T09:40:22.032Z</time></trkpt><trkpt lat="39.4265228" lon="21.8770783"><ele>93.0</ele><time>2026-04-28T09:40:23.032Z</time></trkpt><trkpt lat="39.4262976" lon="21.8772136"><ele>94.5</ele><time>2026-04-28T09:40:24.032Z</time></trkpt><trkpt lat="39.4260701" lon="21.8773538"><ele>96.0</ele><time>2026-04-28T09:40:25.032Z</time></trkpt><trkpt lat="39.4258519" lon="21.8774898"><ele>94.0</ele><time>2026-04-28T09:40:26.032Z</time></trkpt><trkpt lat="39.4256304" lon="21.8776291"><ele>92.0</ele><time>2026-04-28T09:40:27.032Z</time></trkpt><trkpt lat="39.4254081" lon="21.8777698"><ele>91.5</ele><time>2026-04-28T09:40:28.031Z</time></trkpt><trkpt lat="39.4251818" lon="21.8779122"><ele>91.0</ele><time>2026-04-28T09:40:29.031Z</time></trkpt><trkpt lat="39.4249611" lon="21.8780517"><ele>91.0</ele><time>2026-04-28T09:40:30.032Z</time></trkpt><trkpt lat="39.4247368" lon="21.8781936"><ele>91.0</ele><time>2026-04-28T09:40:31.032Z</time></trkpt><trkpt lat="39.4245121" lon="21.8783352"><ele>91.5</ele><time>2026-04-28T09:40:32.032Z</time></trkpt><trkpt lat="39.4242826" lon="21.8784798"><ele>92.0</ele><time>2026-04-28T09:40:33.031Z</time></trkpt><trkpt lat="39.424059" lon="21.8786219"><ele>92.0</ele><time>2026-04-28T09:40:34.032Z</time></trkpt><trkpt lat="39.4238318" lon="21.8787676"><ele>92.0</ele><time>2026-04-28T09:40:35.032Z</time></trkpt><trkpt lat="39.4236036" lon="21.8789114"><ele>91.5</ele><time>2026-04-28T09:40:36.031Z</time></trkpt><trkpt lat="39.4233734" lon="21.8790567"><ele>91.0</ele><time>2026-04-28T09:40:37.032Z</time></trkpt><trkpt lat="39.4231509" lon="21.8791995"><ele>91.5</ele><time>2026-04-28T09:40:38.032Z</time></trkpt><trkpt lat="39.4229251" lon="21.8793424"><ele>92.0</ele><time>2026-04-28T09:40:39.032Z</time></trkpt><trkpt lat="39.4227" lon="21.879486"><ele>92.0</ele><time>2026-04-28T09:40:40.032Z</time></trkpt><trkpt lat="39.4224708" lon="21.8796311"><ele>92.0</ele><time>2026-04-28T09:40:41.032Z</time></trkpt><trkpt lat="39.4222488" lon="21.8797719"><ele>92.0</ele><time>2026-04-28T09:40:42.032Z</time></trkpt><trkpt lat="39.4220226" lon="21.8799168"><ele>92.0</ele><time>2026-04-28T09:40:43.032Z</time></trkpt><trkpt lat="39.4217953" lon="21.8800607"><ele>93.0</ele><time>2026-04-28T09:40:44.032Z</time></trkpt><trkpt lat="39.4215645" lon="21.8802091"><ele>94.0</ele><time>2026-04-28T09:40:45.031Z</time></trkpt><trkpt lat="39.4213404" lon="21.880352"><ele>94.0</ele><time>2026-04-28T09:40:46.032Z</time></trkpt><trkpt lat="39.421112" lon="21.8804978"><ele>94.0</ele><time>2026-04-28T09:40:47.031Z</time></trkpt><trkpt lat="39.4208829" lon="21.8806425"><ele>94.0</ele><time>2026-04-28T09:40:48.032Z</time></trkpt><trkpt lat="39.4206504" lon="21.8807895"><ele>94.0</ele><time>2026-04-28T09:40:49.031Z</time></trkpt><trkpt lat="39.4204251" lon="21.8809314"><ele>93.0</ele><time>2026-04-28T09:40:50.031Z</time></trkpt><trkpt lat="39.4201968" lon="21.8810752"><ele>92.0</ele><time>2026-04-28T09:40:51.032Z</time></trkpt><trkpt lat="39.4199695" lon="21.8812187"><ele>92.0</ele><time>2026-04-28T09:40:52.032Z</time></trkpt><trkpt lat="39.4197382" lon="21.8813645"><ele>92.0</ele><time>2026-04-28T09:40:53.032Z</time></trkpt><trkpt lat="39.4195147" lon="21.8815058"><ele>92.0</ele><time>2026-04-28T09:40:54.031Z</time></trkpt><trkpt lat="39.419288" lon="21.8816473"><ele>92.0</ele><time>2026-04-28T09:40:55.032Z</time></trkpt><trkpt lat="39.4190617" lon="21.8817911"><ele>92.5</ele><time>2026-04-28T09:40:56.031Z</time></trkpt><trkpt lat="39.4188322" lon="21.8819384"><ele>93.0</ele><time>2026-04-28T09:40:57.032Z</time></trkpt><trkpt lat="39.4186103" lon="21.8820807"><ele>93.5</ele><time>2026-04-28T09:40:58.031Z</time></trkpt><trkpt lat="39.4183854" lon="21.8822256"><ele>94.0</ele><time>2026-04-28T09:40:59.031Z</time></trkpt><trkpt lat="39.4181604" lon="21.8823679"><ele>94.0</ele><time>2026-04-28T09:41:00.031Z</time></trkpt><trkpt lat="39.4179311" lon="21.8825122"><ele>94.0</ele><time>2026-04-28T09:41:01.031Z</time></trkpt><trkpt lat="39.4177098" lon="21.8826526"><ele>93.0</ele><time>2026-04-28T09:41:02.031Z</time></trkpt><trkpt lat="39.4174847" lon="21.8827953"><ele>92.0</ele><time>2026-04-28T09:41:03.032Z</time></trkpt><trkpt lat="39.41726" lon="21.8829371"><ele>91.5</ele><time>2026-04-28T09:41:04.032Z</time></trkpt><trkpt lat="39.4170311" lon="21.8830814"><ele>91.0</ele><time>2026-04-28T09:41:05.031Z</time></trkpt><trkpt lat="39.4168074" lon="21.8832214"><ele>91.0</ele><time>2026-04-28T09:41:06.031Z</time></trkpt><trkpt lat="39.4165781" lon="21.8833653"><ele>91.0</ele><time>2026-04-28T09:41:07.031Z</time></trkpt><trkpt lat="39.4163471" lon="21.8835109"><ele>93.0</ele><time>2026-04-28T09:41:08.032Z</time></trkpt><trkpt lat="39.4161119" lon="21.8836606"><ele>95.0</ele><time>2026-04-28T09:41:09.032Z</time></trkpt><trkpt lat="39.4158837" lon="21.8838061"><ele>95.0</ele><time>2026-04-28T09:41:10.031Z</time></trkpt><trkpt lat="39.4156516" lon="21.8839542"><ele>95.0</ele><time>2026-04-28T09:41:11.032Z</time></trkpt><trkpt lat="39.4154195" lon="21.8841017"><ele>94.5</ele><time>2026-04-28T09:41:12.031Z</time></trkpt><trkpt lat="39.4151843" lon="21.8842513"><ele>94.0</ele><time>2026-04-28T09:41:13.031Z</time></trkpt><trkpt lat="39.4149574" lon="21.8843967"><ele>94.0</ele><time>2026-04-28T09:41:14.031Z</time></trkpt><trkpt lat="39.4147265" lon="21.8845425"><ele>94.0</ele><time>2026-04-28T09:41:15.032Z</time></trkpt><trkpt lat="39.4144956" lon="21.8846871"><ele>94.5</ele><time>2026-04-28T09:41:16.032Z</time></trkpt><trkpt lat="39.4142612" lon="21.884834"><ele>95.0</ele><time>2026-04-28T09:41:17.032Z</time></trkpt><trkpt lat="39.4140345" lon="21.8849759"><ele>93.5</ele><time>2026-04-28T09:41:18.032Z</time></trkpt><trkpt lat="39.4138045" lon="21.8851209"><ele>92.0</ele><time>2026-04-28T09:41:19.032Z</time></trkpt><trkpt lat="39.4135746" lon="21.8852665"><ele>92.0</ele><time>2026-04-28T09:41:20.032Z</time></trkpt><trkpt lat="39.4133395" lon="21.885415"><ele>92.0</ele><time>2026-04-28T09:41:21.032Z</time></trkpt><trkpt lat="39.4131109" lon="21.8855597"><ele>92.5</ele><time>2026-04-28T09:41:22.031Z</time></trkpt><trkpt lat="39.4128754" lon="21.8857102"><ele>93.0</ele><time>2026-04-28T09:41:23.031Z</time></trkpt><trkpt lat="39.4126368" lon="21.885863"><ele>93.0</ele><time>2026-04-28T09:41:24.031Z</time></trkpt><trkpt lat="39.4123901" lon="21.8860204"><ele>93.0</ele><time>2026-04-28T09:41:25.031Z</time></trkpt><trkpt lat="39.4121476" lon="21.8861732"><ele>93.0</ele><time>2026-04-28T09:41:26.032Z</time></trkpt><trkpt lat="39.4118991" lon="21.8863296"><ele>93.0</ele><time>2026-04-28T09:41:27.031Z</time></trkpt><trkpt lat="39.4116494" lon="21.8864871"><ele>93.0</ele><time>2026-04-28T09:41:28.031Z</time></trkpt><trkpt lat="39.4113952" lon="21.8866483"><ele>93.0</ele><time>2026-04-28T09:41:29.031Z</time></trkpt><trkpt lat="39.4111486" lon="21.8868047"><ele>93.5</ele><time>2026-04-28T09:41:30.032Z</time></trkpt><trkpt lat="39.4108988" lon="21.8869643"><ele>94.0</ele><time>2026-04-28T09:41:31.032Z</time></trkpt><trkpt lat="39.4106436" lon="21.8871261"><ele>94.5</ele><time>2026-04-28T09:41:32.032Z</time></trkpt><trkpt lat="39.410376" lon="21.8872963"><ele>95.0</ele><time>2026-04-28T09:41:33.032Z</time></trkpt><trkpt lat="39.4101088" lon="21.8874678"><ele>95.0</ele><time>2026-04-28T09:41:34.031Z</time></trkpt><trkpt lat="39.4098307" lon="21.887646"><ele>95.0</ele><time>2026-04-28T09:41:35.032Z</time></trkpt><trkpt lat="39.4095528" lon="21.8878226"><ele>95.0</ele><time>2026-04-28T09:41:36.031Z</time></trkpt><trkpt lat="39.4092741" lon="21.8879999"><ele>95.0</ele><time>2026-04-28T09:41:37.032Z</time></trkpt><trkpt lat="39.4090113" lon="21.8881669"><ele>95.0</ele><time>2026-04-28T09:41:38.031Z</time></trkpt><trkpt lat="39.408752" lon="21.888331"><ele>95.0</ele><time>2026-04-28T09:41:39.031Z</time></trkpt><trkpt lat="39.4084962" lon="21.8884872"><ele>95.0</ele><time>2026-04-28T09:41:40.031Z</time></trkpt><trkpt lat="39.4082383" lon="21.8886362"><ele>95.0</ele><time>2026-04-28T09:41:41.031Z</time></trkpt><trkpt lat="39.407985" lon="21.8887735"><ele>95.5</ele><time>2026-04-28T09:41:42.031Z</time></trkpt><trkpt lat="39.4077282" lon="21.8889072"><ele>96.0</ele><time>2026-04-28T09:41:43.032Z</time></trkpt><trkpt lat="39.4074785" lon="21.889035"><ele>96.0</ele><time>2026-04-28T09:41:44.032Z</time></trkpt><trkpt lat="39.4072382" lon="21.889163"><ele>96.0</ele><time>2026-04-28T09:41:45.031Z</time></trkpt><trkpt lat="39.4070242" lon="21.889278"><ele>95.66666666666667</ele><time>2026-04-28T09:41:46.032Z</time></trkpt><trkpt lat="39.4068174" lon="21.8893851"><ele>95.33333333333334</ele><time>2026-04-28T09:41:47.032Z</time></trkpt><trkpt lat="39.4066184" lon="21.8894784"><ele>95.0</ele><time>2026-04-28T09:41:48.031Z</time></trkpt><trkpt lat="39.4064262" lon="21.8895603"><ele>95.0</ele><time>2026-04-28T09:41:49.032Z</time></trkpt><trkpt lat="39.4062508" lon="21.8896279"><ele>95.0</ele><time>2026-04-28T09:41:50.031Z</time></trkpt><trkpt lat="39.4060819" lon="21.8896901"><ele>95.0</ele><time>2026-04-28T09:41:51.032Z</time></trkpt><trkpt lat="39.4059217" lon="21.8897464"><ele>95.0</ele><time>2026-04-28T09:41:52.032Z</time></trkpt><trkpt lat="39.4057713" lon="21.8897974"><ele>95.0</ele><time>2026-04-28T09:41:53.032Z</time></trkpt><trkpt lat="39.4056351" lon="21.8898415"><ele>95.0</ele><time>2026-04-28T09:41:54.031Z</time></trkpt><trkpt lat="39.4055145" lon="21.8898782"><ele>95.0</ele><time>2026-04-28T09:41:55.032Z</time></trkpt><trkpt lat="39.4054029" lon="21.8899115"><ele>94.8</ele><time>2026-04-28T09:41:56.032Z</time></trkpt><trkpt lat="39.4053058" lon="21.889938"><ele>94.6</ele><time>2026-04-28T09:41:57.031Z</time></trkpt><trkpt lat="39.4052169" lon="21.8899612"><ele>94.4</ele><time>2026-04-28T09:41:58.031Z</time></trkpt><trkpt lat="39.4051136" lon="21.8899907"><ele>94.2</ele><time>2026-04-28T09:41:59.032Z</time></trkpt><trkpt lat="39.4049785" lon="21.8900202"><ele>94.0</ele><time>2026-04-28T09:42:00.032Z</time></trkpt><trkpt lat="39.404807" lon="21.8900477"><ele>94.0</ele><time>2026-04-28T09:42:01.031Z</time></trkpt><trkpt lat="39.4046071" lon="21.8900897"><ele>94.0</ele><time>2026-04-28T09:42:02.031Z</time></trkpt><trkpt lat="39.404377" lon="21.8901432"><ele>94.0</ele><time>2026-04-28T09:42:03.032Z</time></trkpt><trkpt lat="39.4041194" lon="21.8902085"><ele>94.0</ele><time>2026-04-28T09:42:04.031Z</time></trkpt><trkpt lat="39.403832" lon="21.890284"><ele>94.0</ele><time>2026-04-28T09:42:05.032Z</time></trkpt><trkpt lat="39.4035369" lon="21.8903603"><ele>94.0</ele><time>2026-04-28T09:42:06.032Z</time></trkpt><trkpt lat="39.4032427" lon="21.8904317"><ele>94.0</ele><time>2026-04-28T09:42:07.032Z</time></trkpt><trkpt lat="39.402952" lon="21.8905005"><ele>93.5</ele><time>2026-04-28T09:42:08.031Z</time></trkpt><trkpt lat="39.4026582" lon="21.8905695"><ele>93.0</ele><time>2026-04-28T09:42:09.032Z</time></trkpt><trkpt lat="39.4023775" lon="21.8906346"><ele>94.0</ele><time>2026-04-28T09:42:10.031Z</time></trkpt><trkpt lat="39.4020857" lon="21.8906992"><ele>95.0</ele><time>2026-04-28T09:42:11.032Z</time></trkpt><trkpt lat="39.4017923" lon="21.8907586"><ele>95.0</ele><time>2026-04-28T09:42:12.032Z</time></trkpt><trkpt lat="39.4014991" lon="21.8908204"><ele>95.0</ele><time>2026-04-28T09:42:13.031Z</time></trkpt><trkpt lat="39.4012249" lon="21.890881"><ele>93.0</ele><time>2026-04-28T09:42:14.032Z</time></trkpt><trkpt lat="39.4009521" lon="21.8909436"><ele>91.0</ele><time>2026-04-28T09:42:15.032Z</time></trkpt><trkpt lat="39.4006748" lon="21.8910071"><ele>92.5</ele><time>2026-04-28T09:42:16.032Z</time></trkpt><trkpt lat="39.4004017" lon="21.8910692"><ele>94.0</ele><time>2026-04-28T09:42:17.031Z</time></trkpt><trkpt lat="39.4001288" lon="21.8911331"><ele>94.0</ele><time>2026-04-28T09:42:18.032Z</time></trkpt><trkpt lat="39.3998506" lon="21.891199"><ele>94.0</ele><time>2026-04-28T09:42:19.032Z</time></trkpt><trkpt lat="39.3995734" lon="21.8912652"><ele>95.0</ele><time>2026-04-28T09:42:20.031Z</time></trkpt><trkpt lat="39.3992969" lon="21.8913365"><ele>96.0</ele><time>2026-04-28T09:42:21.031Z</time></trkpt><trkpt lat="39.399031" lon="21.8914153"><ele>94.5</ele><time>2026-04-28T09:42:22.032Z</time></trkpt><trkpt lat="39.3987638" lon="21.8915062"><ele>93.0</ele><time>2026-04-28T09:42:23.031Z</time></trkpt><trkpt lat="39.3985002" lon="21.8916115"><ele>93.0</ele><time>2026-04-28T09:42:24.031Z</time></trkpt><trkpt lat="39.3982347" lon="21.8917345"><ele>93.0</ele><time>2026-04-28T09:42:25.031Z</time></trkpt><trkpt lat="39.3979793" lon="21.8918671"><ele>94.0</ele><time>2026-04-28T09:42:26.031Z</time></trkpt><trkpt lat="39.3977213" lon="21.8920157"><ele>95.0</ele><time>2026-04-28T09:42:27.032Z</time></trkpt><trkpt lat="39.3974659" lon="21.8921812"><ele>95.0</ele><time>2026-04-28T09:42:28.032Z</time></trkpt><trkpt lat="39.3972092" lon="21.8923672"><ele>95.0</ele><time>2026-04-28T09:42:29.032Z</time></trkpt><trkpt lat="39.3969647" lon="21.8925632"><ele>96.0</ele><time>2026-04-28T09:42:30.032Z</time></trkpt><trkpt lat="39.3967253" lon="21.8927781"><ele>97.0</ele><time>2026-04-28T09:42:31.032Z</time></trkpt><trkpt lat="39.3964954" lon="21.8930039"><ele>96.5</ele><time>2026-04-28T09:42:32.032Z</time></trkpt><trkpt lat="39.3962723" lon="21.893246"><ele>96.0</ele><time>2026-04-28T09:42:33.031Z</time></trkpt><trkpt lat="39.396062" lon="21.8934967"><ele>96.0</ele><time>2026-04-28T09:42:34.032Z</time></trkpt><trkpt lat="39.3958589" lon="21.8937609"><ele>96.0</ele><time>2026-04-28T09:42:35.032Z</time></trkpt><trkpt lat="39.3956667" lon="21.8940334"><ele>95.5</ele><time>2026-04-28T09:42:36.031Z</time></trkpt><trkpt lat="39.3954894" lon="21.8943093"><ele>95.0</ele><time>2026-04-28T09:42:37.031Z</time></trkpt><trkpt lat="39.3953255" lon="21.8945898"><ele>95.0</ele><time>2026-04-28T09:42:38.032Z</time></trkpt><trkpt lat="39.3951708" lon="21.8948796"><ele>95.0</ele><time>2026-04-28T09:42:39.032Z</time></trkpt><trkpt lat="39.3950263" lon="21.8951732"><ele>96.5</ele><time>2026-04-28T09:42:40.031Z</time></trkpt><trkpt lat="39.3948905" lon="21.8954768"><ele>98.0</ele><time>2026-04-28T09:42:41.032Z</time></trkpt><trkpt lat="39.3947693" lon="21.8957762"><ele>97.0</ele><time>2026-04-28T09:42:42.031Z</time></trkpt><trkpt lat="39.394657" lon="21.8960851"><ele>96.0</ele><time>2026-04-28T09:42:43.032Z</time></trkpt><trkpt lat="39.3945551" lon="21.896393"><ele>96.0</ele><time>2026-04-28T09:42:44.032Z</time></trkpt><trkpt lat="39.3944603" lon="21.8966932"><ele>96.0</ele><time>2026-04-28T09:42:45.032Z</time></trkpt><trkpt lat="39.3943726" lon="21.8969787"><ele>96.0</ele><time>2026-04-28T09:42:46.031Z</time></trkpt><trkpt lat="39.3942914" lon="21.8972479"><ele>96.0</ele><time>2026-04-28T09:42:47.031Z</time></trkpt><trkpt lat="39.3942121" lon="21.8975132"><ele>96.0</ele><time>2026-04-28T09:42:48.031Z</time></trkpt><trkpt lat="39.39414" lon="21.8977532"><ele>96.66666666666666</ele><time>2026-04-28T09:42:49.031Z</time></trkpt><trkpt lat="39.394075" lon="21.8979721"><ele>97.33333333333333</ele><time>2026-04-28T09:42:50.032Z</time></trkpt><trkpt lat="39.3940157" lon="21.89817"><ele>98.0</ele><time>2026-04-28T09:42:51.031Z</time></trkpt><trkpt lat="39.3939585" lon="21.8983612"><ele>98.25</ele><time>2026-04-28T09:42:52.032Z</time></trkpt><trkpt lat="39.3939046" lon="21.8985384"><ele>98.5</ele><time>2026-04-28T09:42:53.032Z</time></trkpt><trkpt lat="39.3938516" lon="21.8987047"><ele>98.75</ele><time>2026-04-28T09:42:54.032Z</time></trkpt><trkpt lat="39.3938017" lon="21.8988586"><ele>99.0</ele><time>2026-04-28T09:42:55.032Z</time></trkpt><trkpt lat="39.3937516" lon="21.8990073"><ele>99.0</ele><time>2026-04-28T09:42:56.032Z</time></trkpt><trkpt lat="39.3937027" lon="21.8991478"><ele>99.0</ele><time>2026-04-28T09:42:57.032Z</time></trkpt><trkpt lat="39.3936549" lon="21.8992808"><ele>99.0</ele><time>2026-04-28T09:42:58.031Z</time></trkpt><trkpt lat="39.3936089" lon="21.8994055"><ele>99.0</ele><time>2026-04-28T09:42:59.032Z</time></trkpt><trkpt lat="39.3935663" lon="21.8995164"><ele>99.0</ele><time>2026-04-28T09:43:00.031Z</time></trkpt><trkpt lat="39.3935269" lon="21.8996206"><ele>98.83333333333333</ele><time>2026-04-28T09:43:01.032Z</time></trkpt><trkpt lat="39.3934934" lon="21.8997107"><ele>98.66666666666666</ele><time>2026-04-28T09:43:02.032Z</time></trkpt><trkpt lat="39.393461" lon="21.8997969"><ele>98.5</ele><time>2026-04-28T09:43:03.032Z</time></trkpt><trkpt lat="39.3934295" lon="21.8998806"><ele>98.33333333333333</ele><time>2026-04-28T09:43:04.032Z</time></trkpt><trkpt lat="39.393397" lon="21.8999633"><ele>98.16666666666666</ele><time>2026-04-28T09:43:05.032Z</time></trkpt><trkpt lat="39.3933611" lon="21.9000502"><ele>98.0</ele><time>2026-04-28T09:43:06.031Z</time></trkpt><trkpt lat="39.3933188" lon="21.90015"><ele>98.0</ele><time>2026-04-28T09:43:07.032Z</time></trkpt><trkpt lat="39.3932635" lon="21.9002737"><ele>98.0</ele><time>2026-04-28T09:43:08.032Z</time></trkpt><trkpt lat="39.3931909" lon="21.9004257"><ele>98.0</ele><time>2026-04-28T09:43:09.031Z</time></trkpt><trkpt lat="39.3930942" lon="21.9006084"><ele>98.0</ele><time>2026-04-28T09:43:10.031Z</time></trkpt><trkpt lat="39.3929877" lon="21.9007982"><ele>98.33333333333333</ele><time>2026-04-28T09:43:11.031Z</time></trkpt><trkpt lat="39.3928698" lon="21.9010049"><ele>98.66666666666666</ele><time>2026-04-28T09:43:12.031Z</time></trkpt><trkpt lat="39.3927387" lon="21.9012266"><ele>99.0</ele><time>2026-04-28T09:43:13.031Z</time></trkpt><trkpt lat="39.3925886" lon="21.9014607"><ele>99.0</ele><time>2026-04-28T09:43:14.031Z</time></trkpt><trkpt lat="39.3924219" lon="21.9016918"><ele>99.0</ele><time>2026-04-28T09:43:15.032Z</time></trkpt><trkpt lat="39.3922387" lon="21.9019183"><ele>98.66666666666666</ele><time>2026-04-28T09:43:16.031Z</time></trkpt><trkpt lat="39.3920706" lon="21.9021098"><ele>98.33333333333333</ele><time>2026-04-28T09:43:17.032Z</time></trkpt><trkpt lat="39.3919021" lon="21.9022821"><ele>98.0</ele><time>2026-04-28T09:43:18.031Z</time></trkpt><trkpt lat="39.3917246" lon="21.9024467"><ele>98.66666666666666</ele><time>2026-04-28T09:43:19.032Z</time></trkpt><trkpt lat="39.391544" lon="21.9026039"><ele>99.33333333333334</ele><time>2026-04-28T09:43:20.031Z</time></trkpt><trkpt lat="39.3913605" lon="21.9027595"><ele>100.0</ele><time>2026-04-28T09:43:21.032Z</time></trkpt><trkpt lat="39.391185" lon="21.9029048"><ele>100.33333333333334</ele><time>2026-04-28T09:43:22.032Z</time></trkpt><trkpt lat="39.391007" lon="21.9030442"><ele>100.66666666666666</ele><time>2026-04-28T09:43:23.032Z</time></trkpt><trkpt lat="39.3908284" lon="21.9031828"><ele>101.0</ele><time>2026-04-28T09:43:24.031Z</time></trkpt><trkpt lat="39.3906471" lon="21.9033233"><ele>100.66666666666666</ele><time>2026-04-28T09:43:25.032Z</time></trkpt><trkpt lat="39.3904655" lon="21.903464"><ele>100.33333333333334</ele><time>2026-04-28T09:43:26.031Z</time></trkpt><trkpt lat="39.3902839" lon="21.9036058"><ele>100.0</ele><time>2026-04-28T09:43:27.032Z</time></trkpt><trkpt lat="39.3900918" lon="21.9037554"><ele>100.0</ele><time>2026-04-28T09:43:28.031Z</time></trkpt><trkpt lat="39.3899013" lon="21.9039037"><ele>100.0</ele><time>2026-04-28T09:43:29.031Z</time></trkpt><trkpt lat="39.3897106" lon="21.9040504"><ele>100.0</ele><time>2026-04-28T09:43:30.032Z</time></trkpt><trkpt lat="39.389523" lon="21.9041934"><ele>99.66666666666667</ele><time>2026-04-28T09:43:31.031Z</time></trkpt><trkpt lat="39.3893302" lon="21.904342"><ele>99.33333333333334</ele><time>2026-04-28T09:43:32.031Z</time></trkpt><trkpt lat="39.3891425" lon="21.9044879"><ele>99.0</ele><time>2026-04-28T09:43:33.032Z</time></trkpt><trkpt lat="39.3889562" lon="21.9046325"><ele>99.33333333333334</ele><time>2026-04-28T09:43:34.032Z</time></trkpt><trkpt lat="39.388775" lon="21.9047753"><ele>99.66666666666667</ele><time>2026-04-28T09:43:35.031Z</time></trkpt><trkpt lat="39.3885879" lon="21.9049229"><ele>100.0</ele><time>2026-04-28T09:43:36.031Z</time></trkpt><trkpt lat="39.3884038" lon="21.9050668"><ele>100.33333333333334</ele><time>2026-04-28T09:43:37.032Z</time></trkpt><trkpt lat="39.3882211" lon="21.9052062"><ele>100.66666666666666</ele><time>2026-04-28T09:43:38.032Z</time></trkpt><trkpt lat="39.3880359" lon="21.9053442"><ele>101.0</ele><time>2026-04-28T09:43:39.031Z</time></trkpt><trkpt lat="39.387851" lon="21.9054804"><ele>101.0</ele><time>2026-04-28T09:43:40.031Z</time></trkpt><trkpt lat="39.3876628" lon="21.9056158"><ele>101.0</ele><time>2026-04-28T09:43:41.031Z</time></trkpt><trkpt lat="39.3874798" lon="21.9057431"><ele>101.0</ele><time>2026-04-28T09:43:42.032Z</time></trkpt><trkpt lat="39.3872941" lon="21.9058684"><ele>101.0</ele><time>2026-04-28T09:43:43.031Z</time></trkpt><trkpt lat="39.3871069" lon="21.905991"><ele>101.0</ele><time>2026-04-28T09:43:44.032Z</time></trkpt><trkpt lat="39.3869231" lon="21.9061095"><ele>101.0</ele><time>2026-04-28T09:43:45.031Z</time></trkpt><trkpt lat="39.3867407" lon="21.9062256"><ele>101.0</ele><time>2026-04-28T09:43:46.031Z</time></trkpt><trkpt lat="39.3865611" lon="21.9063398"><ele>101.0</ele><time>2026-04-28T09:43:47.032Z</time></trkpt><trkpt lat="39.3863768" lon="21.9064553"><ele>101.0</ele><time>2026-04-28T09:43:48.032Z</time></trkpt><trkpt lat="39.3862021" lon="21.9065621"><ele>100.33333333333333</ele><time>2026-04-28T09:43:49.032Z</time></trkpt><trkpt lat="39.386033" lon="21.906664"><ele>99.66666666666666</ele><time>2026-04-28T09:43:50.032Z</time></trkpt><trkpt lat="39.3858713" lon="21.9067629"><ele>99.0</ele><time>2026-04-28T09:43:51.031Z</time></trkpt><trkpt lat="39.3857108" lon="21.9068626"><ele>99.33333333333334</ele><time>2026-04-28T09:43:52.032Z</time></trkpt><trkpt lat="39.3855628" lon="21.9069563"><ele>99.66666666666667</ele><time>2026-04-28T09:43:53.032Z</time></trkpt><trkpt lat="39.3854203" lon="21.9070488"><ele>100.0</ele><time>2026-04-28T09:43:54.031Z</time></trkpt><trkpt lat="39.3852882" lon="21.9071369"><ele>100.0</ele><time>2026-04-28T09:43:55.032Z</time></trkpt><trkpt lat="39.3851623" lon="21.9072234"><ele>100.0</ele><time>2026-04-28T09:43:56.031Z</time></trkpt><trkpt lat="39.3850512" lon="21.9073037"><ele>100.0</ele><time>2026-04-28T09:43:57.031Z</time></trkpt><trkpt lat="39.3849518" lon="21.9073792"><ele>100.0</ele><time>2026-04-28T09:43:58.031Z</time></trkpt><trkpt lat="39.3848546" lon="21.9074539"><ele>100.00000000000001</ele><time>2026-04-28T09:43:59.031Z</time></trkpt><trkpt lat="39.3847662" lon="21.9075165"><ele>100.0</ele><time>2026-04-28T09:44:00.032Z</time></trkpt><trkpt lat="39.3846935" lon="21.9075657"><ele>100.0</ele><time>2026-04-28T09:44:01.032Z</time></trkpt><trkpt lat="39.3846056" lon="21.9076211"><ele>100.0</ele><time>2026-04-28T09:44:03.032Z</time></trkpt><trkpt lat="39.3845317" lon="21.90767"><ele>100.00000000000001</ele><time>2026-04-28T09:44:07.032Z</time></trkpt><trkpt lat="39.3844644" lon="21.9077124"><ele>100.0</ele><time>2026-04-28T09:44:09.031Z</time></trkpt><trkpt lat="39.38438" lon="21.907762"><ele>100.16666666666667</ele><time>2026-04-28T09:44:11.032Z</time></trkpt><trkpt lat="39.3842792" lon="21.907845"><ele>100.33333333333334</ele><time>2026-04-28T09:44:13.031Z</time></trkpt><trkpt lat="39.3842325" lon="21.9079019"><ele>100.5</ele><time>2026-04-28T09:44:14.031Z</time></trkpt><trkpt lat="39.3841921" lon="21.9079725"><ele>100.66666666666666</ele><time>2026-04-28T09:44:15.032Z</time></trkpt><trkpt lat="39.3841659" lon="21.9080612"><ele>100.83333333333333</ele><time>2026-04-28T09:44:16.032Z</time></trkpt><trkpt lat="39.3841561" lon="21.9081668"><ele>101.0</ele><time>2026-04-28T09:44:17.032Z</time></trkpt><trkpt lat="39.3841571" lon="21.9082861"><ele>101.0</ele><time>2026-04-28T09:44:18.031Z</time></trkpt><trkpt lat="39.3841606" lon="21.9084244"><ele>101.0</ele><time>2026-04-28T09:44:19.031Z</time></trkpt><trkpt lat="39.3841625" lon="21.9085866"><ele>101.0</ele><time>2026-04-28T09:44:20.032Z</time></trkpt><trkpt lat="39.384162" lon="21.9087597"><ele>101.0</ele><time>2026-04-28T09:44:21.031Z</time></trkpt><trkpt lat="39.3841598" lon="21.9089375"><ele>101.0</ele><time>2026-04-28T09:44:22.031Z</time></trkpt><trkpt lat="39.3841572" lon="21.9091275"><ele>101.0</ele><time>2026-04-28T09:44:23.032Z</time></trkpt><trkpt lat="39.3841554" lon="21.9093317"><ele>101.0</ele><time>2026-04-28T09:44:24.031Z</time></trkpt><trkpt lat="39.3841548" lon="21.9095451"><ele>100.33333333333333</ele><time>2026-04-28T09:44:25.032Z</time></trkpt><trkpt lat="39.3841557" lon="21.9097642"><ele>99.66666666666666</ele><time>2026-04-28T09:44:26.031Z</time></trkpt><trkpt lat="39.3841568" lon="21.9099913"><ele>99.0</ele><time>2026-04-28T09:44:27.032Z</time></trkpt><trkpt lat="39.3841569" lon="21.9102197"><ele>99.0</ele><time>2026-04-28T09:44:28.032Z</time></trkpt><trkpt lat="39.3841563" lon="21.9104445"><ele>99.0</ele><time>2026-04-28T09:44:29.031Z</time></trkpt><trkpt lat="39.384156" lon="21.9106752"><ele>99.0</ele><time>2026-04-28T09:44:30.032Z</time></trkpt><trkpt lat="39.384155" lon="21.910924"><ele>98.0</ele><time>2026-04-28T09:44:31.032Z</time></trkpt><trkpt lat="39.3841526" lon="21.9111821"><ele>97.0</ele><time>2026-04-28T09:44:32.032Z</time></trkpt><trkpt lat="39.3841508" lon="21.9114384"><ele>96.0</ele><time>2026-04-28T09:44:33.031Z</time></trkpt><trkpt lat="39.3841483" lon="21.9116915"><ele>96.66666666666666</ele><time>2026-04-28T09:44:34.032Z</time></trkpt><trkpt lat="39.3841438" lon="21.9119384"><ele>97.33333333333333</ele><time>2026-04-28T09:44:35.031Z</time></trkpt><trkpt lat="39.3841395" lon="21.9121917"><ele>98.0</ele><time>2026-04-28T09:44:36.031Z</time></trkpt><trkpt lat="39.3841353" lon="21.9124377"><ele>99.0</ele><time>2026-04-28T09:44:37.032Z</time></trkpt><trkpt lat="39.384132" lon="21.9126798"><ele>100.0</ele><time>2026-04-28T09:44:38.032Z</time></trkpt><trkpt lat="39.3841299" lon="21.9129141"><ele>101.0</ele><time>2026-04-28T09:44:39.031Z</time></trkpt><trkpt lat="39.3841282" lon="21.9131519"><ele>101.0</ele><time>2026-04-28T09:44:40.032Z</time></trkpt><trkpt lat="39.3841257" lon="21.9133818"><ele>101.0</ele><time>2026-04-28T09:44:41.031Z</time></trkpt><trkpt lat="39.384123" lon="21.9136076"><ele>101.0</ele><time>2026-04-28T09:44:42.031Z</time></trkpt><trkpt lat="39.3841209" lon="21.9138258"><ele>101.0</ele><time>2026-04-28T09:44:43.031Z</time></trkpt><trkpt lat="39.3841176" lon="21.9140484"><ele>101.0</ele><time>2026-04-28T09:44:44.032Z</time></trkpt><trkpt lat="39.3841152" lon="21.9142673"><ele>101.0</ele><time>2026-04-28T09:44:45.031Z</time></trkpt><trkpt lat="39.3841136" lon="21.9144863"><ele>101.0</ele><time>2026-04-28T09:44:46.032Z</time></trkpt><trkpt lat="39.3841116" lon="21.9147011"><ele>101.0</ele><time>2026-04-28T09:44:47.032Z</time></trkpt><trkpt lat="39.3841109" lon="21.9149248"><ele>101.0</ele><time>2026-04-28T09:44:48.031Z</time></trkpt><trkpt lat="39.3841089" lon="21.9151436"><ele>100.33333333333333</ele><time>2026-04-28T09:44:49.032Z</time></trkpt><trkpt lat="39.3841058" lon="21.9153615"><ele>99.66666666666666</ele><time>2026-04-28T09:44:50.031Z</time></trkpt><trkpt lat="39.3841022" lon="21.9155743"><ele>99.0</ele><time>2026-04-28T09:44:51.031Z</time></trkpt><trkpt lat="39.3840981" lon="21.9157933"><ele>99.33333333333334</ele><time>2026-04-28T09:44:52.032Z</time></trkpt><trkpt lat="39.3840938" lon="21.9160084"><ele>99.66666666666667</ele><time>2026-04-28T09:44:53.032Z</time></trkpt><trkpt lat="39.3840894" lon="21.9162288"><ele>100.0</ele><time>2026-04-28T09:44:54.031Z</time></trkpt><trkpt lat="39.3840844" lon="21.9164612"><ele>100.0</ele><time>2026-04-28T09:44:55.031Z</time></trkpt><trkpt lat="39.3840785" lon="21.916728"><ele>100.0</ele><time>2026-04-28T09:44:56.031Z</time></trkpt><trkpt lat="39.3840751" lon="21.9170129"><ele>100.0</ele><time>2026-04-28T09:44:57.032Z</time></trkpt><trkpt lat="39.3840726" lon="21.9173081"><ele>100.33333333333334</ele><time>2026-04-28T09:44:58.032Z</time></trkpt><trkpt lat="39.3840692" lon="21.9176035"><ele>100.66666666666666</ele><time>2026-04-28T09:44:59.032Z</time></trkpt><trkpt lat="39.384066" lon="21.917884"><ele>101.0</ele><time>2026-04-28T09:45:00.031Z</time></trkpt><trkpt lat="39.3840624" lon="21.918145"><ele>101.0</ele><time>2026-04-28T09:45:01.032Z</time></trkpt><trkpt lat="39.3840595" lon="21.9183686"><ele>101.0</ele><time>2026-04-28T09:45:02.032Z</time></trkpt><trkpt lat="39.3840566" lon="21.9185742"><ele>101.0</ele><time>2026-04-28T09:45:03.031Z</time></trkpt><trkpt lat="39.3840545" lon="21.9187679"><ele>101.19999999999999</ele><time>2026-04-28T09:45:04.032Z</time></trkpt><trkpt lat="39.3840542" lon="21.9189406"><ele>101.39999999999999</ele><time>2026-04-28T09:45:05.031Z</time></trkpt><trkpt lat="39.3840551" lon="21.9190913"><ele>101.6</ele><time>2026-04-28T09:45:06.032Z</time></trkpt><trkpt lat="39.384055" lon="21.9192153"><ele>101.8</ele><time>2026-04-28T09:45:07.031Z</time></trkpt><trkpt lat="39.3840539" lon="21.9193204"><ele>102.0</ele><time>2026-04-28T09:45:08.031Z</time></trkpt><trkpt lat="39.3840518" lon="21.9194389"><ele>102.0</ele><time>2026-04-28T09:45:10.031Z</time></trkpt><trkpt lat="39.3840467" lon="21.9195842"><ele>102.0</ele><time>2026-04-28T09:45:28.032Z</time></trkpt><trkpt lat="39.3840427" lon="21.9196858"><ele>102.0</ele><time>2026-04-28T09:45:29.031Z</time></trkpt><trkpt lat="39.3840375" lon="21.9198046"><ele>102.0</ele><time>2026-04-28T09:45:30.032Z</time></trkpt><trkpt lat="39.3840311" lon="21.91994"><ele>102.0</ele><time>2026-04-28T09:45:31.032Z</time></trkpt><trkpt lat="39.3840235" lon="21.9201178"><ele>102.0</ele><time>2026-04-28T09:45:32.032Z</time></trkpt><trkpt lat="39.3840175" lon="21.92035"><ele>102.0</ele><time>2026-04-28T09:45:33.031Z</time></trkpt><trkpt lat="39.3840142" lon="21.9206423"><ele>102.0</ele><time>2026-04-28T09:45:34.032Z</time></trkpt><trkpt lat="39.3840116" lon="21.9209789"><ele>102.0</ele><time>2026-04-28T09:45:35.032Z</time></trkpt><trkpt lat="39.3840091" lon="21.9213556"><ele>102.0</ele><time>2026-04-28T09:45:36.032Z</time></trkpt><trkpt lat="39.3840049" lon="21.9217209"><ele>102.5</ele><time>2026-04-28T09:45:37.032Z</time></trkpt><trkpt lat="39.3840009" lon="21.9220571"><ele>103.0</ele><time>2026-04-28T09:45:38.032Z</time></trkpt><trkpt lat="39.3839973" lon="21.9223724"><ele>103.5</ele><time>2026-04-28T09:45:39.031Z</time></trkpt><trkpt lat="39.3839963" lon="21.9226745"><ele>104.0</ele><time>2026-04-28T09:45:40.031Z</time></trkpt><trkpt lat="39.3839943" lon="21.9229594"><ele>104.0</ele><time>2026-04-28T09:45:41.032Z</time></trkpt><trkpt lat="39.3839907" lon="21.9232221"><ele>104.0</ele><time>2026-04-28T09:45:42.032Z</time></trkpt><trkpt lat="39.3839861" lon="21.9234731"><ele>104.0</ele><time>2026-04-28T09:45:43.032Z</time></trkpt><trkpt lat="39.3839817" lon="21.9237257"><ele>103.33333333333333</ele><time>2026-04-28T09:45:44.031Z</time></trkpt><trkpt lat="39.3839786" lon="21.9239714"><ele>102.66666666666666</ele><time>2026-04-28T09:45:45.031Z</time></trkpt><trkpt lat="39.3839761" lon="21.9242171"><ele>102.0</ele><time>2026-04-28T09:45:46.032Z</time></trkpt><trkpt lat="39.3839726" lon="21.9244614"><ele>102.0</ele><time>2026-04-28T09:45:47.032Z</time></trkpt><trkpt lat="39.3839678" lon="21.9247172"><ele>102.0</ele><time>2026-04-28T09:45:48.031Z</time></trkpt><trkpt lat="39.3839624" lon="21.9249728"><ele>102.0</ele><time>2026-04-28T09:45:49.031Z</time></trkpt><trkpt lat="39.3839584" lon="21.9252305"><ele>101.66666666666666</ele><time>2026-04-28T09:45:50.032Z</time></trkpt><trkpt lat="39.3839568" lon="21.9254864"><ele>101.33333333333333</ele><time>2026-04-28T09:45:51.031Z</time></trkpt><trkpt lat="39.3839556" lon="21.9257496"><ele>101.0</ele><time>2026-04-28T09:45:52.031Z</time></trkpt><trkpt lat="39.3839495" lon="21.9260064"><ele>101.0</ele><time>2026-04-28T09:45:53.032Z</time></trkpt><trkpt lat="39.3839394" lon="21.9262596"><ele>101.0</ele><time>2026-04-28T09:45:54.031Z</time></trkpt><trkpt lat="39.3839304" lon="21.9265048"><ele>101.0</ele><time>2026-04-28T09:45:55.031Z</time></trkpt><trkpt lat="39.3839237" lon="21.9267526"><ele>101.0</ele><time>2026-04-28T09:45:56.031Z</time></trkpt><trkpt lat="39.3839153" lon="21.9269911"><ele>101.0</ele><time>2026-04-28T09:45:57.032Z</time></trkpt><trkpt lat="39.3839093" lon="21.9272253"><ele>101.0</ele><time>2026-04-28T09:45:58.031Z</time></trkpt><trkpt lat="39.3839063" lon="21.9274527"><ele>100.66666666666666</ele><time>2026-04-28T09:45:59.031Z</time></trkpt><trkpt lat="39.3839036" lon="21.9276831"><ele>100.33333333333334</ele><time>2026-04-28T09:46:00.031Z</time></trkpt><trkpt lat="39.3839008" lon="21.9279088"><ele>100.0</ele><time>2026-04-28T09:46:01.032Z</time></trkpt><trkpt lat="39.3838981" lon="21.9281271"><ele>100.0</ele><time>2026-04-28T09:46:02.032Z</time></trkpt><trkpt lat="39.3838944" lon="21.9283427"><ele>100.0</ele><time>2026-04-28T09:46:03.031Z</time></trkpt><trkpt lat="39.38389" lon="21.9285569"><ele>100.0</ele><time>2026-04-28T09:46:04.031Z</time></trkpt><trkpt lat="39.3838869" lon="21.9287716"><ele>100.0</ele><time>2026-04-28T09:46:05.032Z</time></trkpt><trkpt lat="39.3838844" lon="21.9289771"><ele>100.0</ele><time>2026-04-28T09:46:06.031Z</time></trkpt><trkpt lat="39.3838817" lon="21.929176"><ele>100.0</ele><time>2026-04-28T09:46:07.031Z</time></trkpt><trkpt lat="39.3838788" lon="21.9293592"><ele>100.25</ele><time>2026-04-28T09:46:08.032Z</time></trkpt><trkpt lat="39.3838764" lon="21.9295353"><ele>100.5</ele><time>2026-04-28T09:46:09.031Z</time></trkpt><trkpt lat="39.3838746" lon="21.9297006"><ele>100.75</ele><time>2026-04-28T09:46:10.032Z</time></trkpt><trkpt lat="39.3838735" lon="21.9298609"><ele>101.0</ele><time>2026-04-28T09:46:11.032Z</time></trkpt><trkpt lat="39.383873" lon="21.9300092"><ele>101.49999999999999</ele><time>2026-04-28T09:46:12.032Z</time></trkpt><trkpt lat="39.3838713" lon="21.9301462"><ele>102.0</ele><time>2026-04-28T09:46:13.032Z</time></trkpt><trkpt lat="39.3838698" lon="21.9302652"><ele>102.5</ele><time>2026-04-28T09:46:14.032Z</time></trkpt><trkpt lat="39.3838684" lon="21.9303744"><ele>103.0</ele><time>2026-04-28T09:46:15.032Z</time></trkpt><trkpt lat="39.3838674" lon="21.9304719"><ele>103.49999999999999</ele><time>2026-04-28T09:46:16.032Z</time></trkpt><trkpt lat="39.3838661" lon="21.9305618"><ele>104.0</ele><time>2026-04-28T09:46:17.031Z</time></trkpt><trkpt lat="39.3838619" lon="21.9307021"><ele>104.0</ele><time>2026-04-28T09:46:19.032Z</time></trkpt><trkpt lat="39.3838583" lon="21.9308428"><ele>104.0</ele><time>2026-04-28T09:46:21.032Z</time></trkpt><trkpt lat="39.3838557" lon="21.9309298"><ele>104.0</ele><time>2026-04-28T09:46:22.032Z</time></trkpt><trkpt lat="39.3838526" lon="21.9310335"><ele>104.0</ele><time>2026-04-28T09:46:23.032Z</time></trkpt><trkpt lat="39.3838504" lon="21.9311534"><ele>104.0</ele><time>2026-04-28T09:46:24.031Z</time></trkpt><trkpt lat="39.3838464" lon="21.9312836"><ele>103.25</ele><time>2026-04-28T09:46:25.031Z</time></trkpt><trkpt lat="39.3838426" lon="21.9314244"><ele>102.5</ele><time>2026-04-28T09:46:26.031Z</time></trkpt><trkpt lat="39.3838331" lon="21.9315808"><ele>101.75</ele><time>2026-04-28T09:46:27.032Z</time></trkpt><trkpt lat="39.3838132" lon="21.9317443"><ele>101.0</ele><time>2026-04-28T09:46:28.031Z</time></trkpt><trkpt lat="39.3837859" lon="21.9319152"><ele>101.0</ele><time>2026-04-28T09:46:29.031Z</time></trkpt><trkpt lat="39.3837564" lon="21.9320762"><ele>101.0</ele><time>2026-04-28T09:46:30.031Z</time></trkpt><trkpt lat="39.383723" lon="21.9322313"><ele>101.0</ele><time>2026-04-28T09:46:31.031Z</time></trkpt><trkpt lat="39.3836847" lon="21.9323771"><ele>101.0</ele><time>2026-04-28T09:46:32.031Z</time></trkpt><trkpt lat="39.3836416" lon="21.9325156"><ele>101.0</ele><time>2026-04-28T09:46:33.032Z</time></trkpt><trkpt lat="39.383599" lon="21.9326468"><ele>101.0</ele><time>2026-04-28T09:46:34.031Z</time></trkpt><trkpt lat="39.3835543" lon="21.9327766"><ele>101.0</ele><time>2026-04-28T09:46:35.032Z</time></trkpt><trkpt lat="39.3835077" lon="21.9329003"><ele>101.0</ele><time>2026-04-28T09:46:36.032Z</time></trkpt><trkpt lat="39.3834601" lon="21.9330134"><ele>101.0</ele><time>2026-04-28T09:46:37.031Z</time></trkpt><trkpt lat="39.3834132" lon="21.9331108"><ele>101.0</ele><time>2026-04-28T09:46:38.032Z</time></trkpt><trkpt lat="39.3833634" lon="21.933202"><ele>101.0</ele><time>2026-04-28T09:46:39.032Z</time></trkpt><trkpt lat="39.3833091" lon="21.9332929"><ele>101.0</ele><time>2026-04-28T09:46:40.032Z</time></trkpt><trkpt lat="39.3832481" lon="21.9333886"><ele>101.0</ele><time>2026-04-28T09:46:41.031Z</time></trkpt><trkpt lat="39.3831836" lon="21.9334868"><ele>101.0</ele><time>2026-04-28T09:46:42.031Z</time></trkpt><trkpt lat="39.3831149" lon="21.9335882"><ele>101.25</ele><time>2026-04-28T09:46:43.031Z</time></trkpt><trkpt lat="39.3830433" lon="21.9336863"><ele>101.5</ele><time>2026-04-28T09:46:44.031Z</time></trkpt><trkpt lat="39.3829625" lon="21.9337884"><ele>101.75</ele><time>2026-04-28T09:46:45.031Z</time></trkpt><trkpt lat="39.3828753" lon="21.9338939"><ele>102.0</ele><time>2026-04-28T09:46:46.031Z</time></trkpt><trkpt lat="39.3827777" lon="21.9340089"><ele>102.33333333333334</ele><time>2026-04-28T09:46:47.032Z</time></trkpt><trkpt lat="39.3826621" lon="21.9341379"><ele>102.66666666666667</ele><time>2026-04-28T09:46:48.032Z</time></trkpt><trkpt lat="39.3825205" lon="21.9342913"><ele>103.0</ele><time>2026-04-28T09:46:49.031Z</time></trkpt><trkpt lat="39.3823574" lon="21.9344662"><ele>102.5</ele><time>2026-04-28T09:46:50.031Z</time></trkpt><trkpt lat="39.382171" lon="21.9346553"><ele>102.0</ele><time>2026-04-28T09:46:51.031Z</time></trkpt><trkpt lat="39.3819723" lon="21.9348458"><ele>102.0</ele><time>2026-04-28T09:46:52.032Z</time></trkpt><trkpt lat="39.3817736" lon="21.9350263"><ele>102.0</ele><time>2026-04-28T09:46:53.031Z</time></trkpt><trkpt lat="39.3815835" lon="21.9351988"><ele>102.5</ele><time>2026-04-28T09:46:54.031Z</time></trkpt><trkpt lat="39.3813942" lon="21.9353742"><ele>103.0</ele><time>2026-04-28T09:46:55.032Z</time></trkpt><trkpt lat="39.381208" lon="21.9355501"><ele>103.0</ele><time>2026-04-28T09:46:56.032Z</time></trkpt><trkpt lat="39.3810215" lon="21.9357297"><ele>103.0</ele><time>2026-04-28T09:46:57.032Z</time></trkpt><trkpt lat="39.3808422" lon="21.9359046"><ele>103.0</ele><time>2026-04-28T09:46:58.032Z</time></trkpt><trkpt lat="39.3806607" lon="21.9360793"><ele>103.0</ele><time>2026-04-28T09:46:59.031Z</time></trkpt><trkpt lat="39.38048" lon="21.9362525"><ele>102.66666666666667</ele><time>2026-04-28T09:47:00.031Z</time></trkpt><trkpt lat="39.3802982" lon="21.9364295"><ele>102.33333333333334</ele><time>2026-04-28T09:47:01.031Z</time></trkpt><trkpt lat="39.3801226" lon="21.9366008"><ele>102.0</ele><time>2026-04-28T09:47:02.031Z</time></trkpt><trkpt lat="39.3799441" lon="21.9367755"><ele>102.0</ele><time>2026-04-28T09:47:03.032Z</time></trkpt><trkpt lat="39.3797651" lon="21.936951"><ele>102.0</ele><time>2026-04-28T09:47:04.031Z</time></trkpt><trkpt lat="39.3795833" lon="21.9371303"><ele>102.0</ele><time>2026-04-28T09:47:05.031Z</time></trkpt><trkpt lat="39.3794083" lon="21.9373027"><ele>102.0</ele><time>2026-04-28T09:47:06.032Z</time></trkpt><trkpt lat="39.3792317" lon="21.9374775"><ele>102.0</ele><time>2026-04-28T09:47:07.031Z</time></trkpt><trkpt lat="39.3790568" lon="21.9376511"><ele>102.33333333333334</ele><time>2026-04-28T09:47:08.032Z</time></trkpt><trkpt lat="39.378882" lon="21.937827"><ele>102.66666666666667</ele><time>2026-04-28T09:47:09.031Z</time></trkpt><trkpt lat="39.3787121" lon="21.9379974"><ele>103.0</ele><time>2026-04-28T09:47:10.032Z</time></trkpt><trkpt lat="39.3785337" lon="21.9381752"><ele>103.0</ele><time>2026-04-28T09:47:11.031Z</time></trkpt><trkpt lat="39.37835" lon="21.9383596"><ele>103.0</ele><time>2026-04-28T09:47:12.031Z</time></trkpt><trkpt lat="39.378158" lon="21.9385483"><ele>103.0</ele><time>2026-04-28T09:47:13.032Z</time></trkpt><trkpt lat="39.3779662" lon="21.9387208"><ele>103.0</ele><time>2026-04-28T09:47:14.031Z</time></trkpt><trkpt lat="39.3777674" lon="21.9388795"><ele>103.0</ele><time>2026-04-28T09:47:15.032Z</time></trkpt><trkpt lat="39.377565" lon="21.9390175"><ele>103.0</ele><time>2026-04-28T09:47:16.031Z</time></trkpt><trkpt lat="39.3773573" lon="21.9391393"><ele>103.0</ele><time>2026-04-28T09:47:17.032Z</time></trkpt><trkpt lat="39.3771556" lon="21.9392434"><ele>103.0</ele><time>2026-04-28T09:47:18.032Z</time></trkpt><trkpt lat="39.3769496" lon="21.9393369"><ele>103.0</ele><time>2026-04-28T09:47:19.032Z</time></trkpt><trkpt lat="39.3767411" lon="21.9394195"><ele>103.0</ele><time>2026-04-28T09:47:20.032Z</time></trkpt><trkpt lat="39.3765235" lon="21.9394948"><ele>103.0</ele><time>2026-04-28T09:47:21.031Z</time></trkpt><trkpt lat="39.3763043" lon="21.9395585"><ele>103.0</ele><time>2026-04-28T09:47:22.032Z</time></trkpt><trkpt lat="39.376075" lon="21.9396155"><ele>103.0</ele><time>2026-04-28T09:47:23.032Z</time></trkpt><trkpt lat="39.3758433" lon="21.939667"><ele>103.0</ele><time>2026-04-28T09:47:24.032Z</time></trkpt><trkpt lat="39.3756082" lon="21.9397134"><ele>103.0</ele><time>2026-04-28T09:47:25.031Z</time></trkpt><trkpt lat="39.3753836" lon="21.9397604"><ele>103.5</ele><time>2026-04-28T09:47:26.032Z</time></trkpt><trkpt lat="39.375159" lon="21.9398091"><ele>104.0</ele><time>2026-04-28T09:47:27.032Z</time></trkpt><trkpt lat="39.3749375" lon="21.9398585"><ele>104.0</ele><time>2026-04-28T09:47:28.032Z</time></trkpt><trkpt lat="39.3747148" lon="21.9399079"><ele>104.0</ele><time>2026-04-28T09:47:29.032Z</time></trkpt><trkpt lat="39.3745002" lon="21.9399545"><ele>104.0</ele><time>2026-04-28T09:47:30.031Z</time></trkpt><trkpt lat="39.374281" lon="21.9400037"><ele>104.5</ele><time>2026-04-28T09:47:31.031Z</time></trkpt><trkpt lat="39.3740547" lon="21.9400584"><ele>105.0</ele><time>2026-04-28T09:47:32.031Z</time></trkpt><trkpt lat="39.3738161" lon="21.9401169"><ele>105.0</ele><time>2026-04-28T09:47:33.032Z</time></trkpt><trkpt lat="39.3735768" lon="21.9401736"><ele>105.0</ele><time>2026-04-28T09:47:34.031Z</time></trkpt><trkpt lat="39.3733265" lon="21.9402316"><ele>105.0</ele><time>2026-04-28T09:47:35.031Z</time></trkpt><trkpt lat="39.3730716" lon="21.9402871"><ele>105.0</ele><time>2026-04-28T09:47:36.032Z</time></trkpt><trkpt lat="39.3728115" lon="21.9403396"><ele>104.0</ele><time>2026-04-28T09:47:37.031Z</time></trkpt><trkpt lat="39.3725617" lon="21.9403862"><ele>103.0</ele><time>2026-04-28T09:47:38.031Z</time></trkpt><trkpt lat="39.3723126" lon="21.9404308"><ele>102.5</ele><time>2026-04-28T09:47:39.031Z</time></trkpt><trkpt lat="39.3720693" lon="21.9404747"><ele>102.0</ele><time>2026-04-28T09:47:40.031Z</time></trkpt><trkpt lat="39.3718287" lon="21.9405193"><ele>102.0</ele><time>2026-04-28T09:47:41.031Z</time></trkpt><trkpt lat="39.3716012" lon="21.9405622"><ele>102.0</ele><time>2026-04-28T09:47:42.031Z</time></trkpt><trkpt lat="39.3713744" lon="21.9406026"><ele>102.0</ele><time>2026-04-28T09:47:43.031Z</time></trkpt><trkpt lat="39.3711507" lon="21.9406391"><ele>102.0</ele><time>2026-04-28T09:47:44.031Z</time></trkpt><trkpt lat="39.3709247" lon="21.9406692"><ele>102.0</ele><time>2026-04-28T09:47:45.031Z</time></trkpt><trkpt lat="39.3707048" lon="21.9406858"><ele>102.0</ele><time>2026-04-28T09:47:46.032Z</time></trkpt><trkpt lat="39.3704814" lon="21.9406878"><ele>102.0</ele><time>2026-04-28T09:47:47.032Z</time></trkpt><trkpt lat="39.3702563" lon="21.9406744"><ele>104.5</ele><time>2026-04-28T09:47:48.031Z</time></trkpt><trkpt lat="39.3700252" lon="21.9406468"><ele>107.0</ele><time>2026-04-28T09:47:49.032Z</time></trkpt><trkpt lat="39.3697978" lon="21.9406103"><ele>106.0</ele><time>2026-04-28T09:47:50.031Z</time></trkpt><trkpt lat="39.369564" lon="21.9405692"><ele>105.0</ele><time>2026-04-28T09:47:51.032Z</time></trkpt><trkpt lat="39.3693281" lon="21.9405267"><ele>105.0</ele><time>2026-04-28T09:47:52.031Z</time></trkpt><trkpt lat="39.3690883" lon="21.9404817"><ele>105.0</ele><time>2026-04-28T09:47:53.031Z</time></trkpt><trkpt lat="39.368858" lon="21.9404384"><ele>106.0</ele><time>2026-04-28T09:47:54.031Z</time></trkpt><trkpt lat="39.3686265" lon="21.9403942"><ele>107.0</ele><time>2026-04-28T09:47:55.031Z</time></trkpt><trkpt lat="39.3683988" lon="21.940351"><ele>107.0</ele><time>2026-04-28T09:47:56.032Z</time></trkpt><trkpt lat="39.3681721" lon="21.940309"><ele>107.0</ele><time>2026-04-28T09:47:57.031Z</time></trkpt><trkpt lat="39.3679563" lon="21.9402698"><ele>107.0</ele><time>2026-04-28T09:47:58.031Z</time></trkpt><trkpt lat="39.3677407" lon="21.9402326"><ele>106.66666666666666</ele><time>2026-04-28T09:47:59.032Z</time></trkpt><trkpt lat="39.3675246" lon="21.9401982"><ele>106.33333333333334</ele><time>2026-04-28T09:48:00.032Z</time></trkpt><trkpt lat="39.3673109" lon="21.9401699"><ele>106.0</ele><time>2026-04-28T09:48:01.032Z</time></trkpt><trkpt lat="39.3670969" lon="21.9401541"><ele>106.0</ele><time>2026-04-28T09:48:02.031Z</time></trkpt><trkpt lat="39.3668856" lon="21.9401543"><ele>106.0</ele><time>2026-04-28T09:48:03.032Z</time></trkpt><trkpt lat="39.366668" lon="21.9401741"><ele>106.0</ele><time>2026-04-28T09:48:04.032Z</time></trkpt><trkpt lat="39.366457" lon="21.9402108"><ele>106.33333333333334</ele><time>2026-04-28T09:48:05.031Z</time></trkpt><trkpt lat="39.3662585" lon="21.9402601"><ele>106.66666666666666</ele><time>2026-04-28T09:48:06.032Z</time></trkpt><trkpt lat="39.3660677" lon="21.9403203"><ele>107.0</ele><time>2026-04-28T09:48:07.031Z</time></trkpt><trkpt lat="39.3658877" lon="21.9403874"><ele>107.0</ele><time>2026-04-28T09:48:08.032Z</time></trkpt><trkpt lat="39.3657211" lon="21.9404599"><ele>107.0</ele><time>2026-04-28T09:48:09.032Z</time></trkpt><trkpt lat="39.3655757" lon="21.9405291"><ele>107.0</ele><time>2026-04-28T09:48:10.032Z</time></trkpt><trkpt lat="39.3654417" lon="21.940595"><ele>107.0</ele><time>2026-04-28T09:48:11.031Z</time></trkpt><trkpt lat="39.3653204" lon="21.9406536"><ele>106.99999999999999</ele><time>2026-04-28T09:48:12.031Z</time></trkpt><trkpt lat="39.3652126" lon="21.9407056"><ele>106.99999999999999</ele><time>2026-04-28T09:48:13.032Z</time></trkpt><trkpt lat="39.3651247" lon="21.9407459"><ele>107.0</ele><time>2026-04-28T09:48:14.031Z</time></trkpt><trkpt lat="39.3650542" lon="21.9407779"><ele>107.0</ele><time>2026-04-28T09:48:15.032Z</time></trkpt><trkpt lat="39.3649675" lon="21.9408214"><ele>106.99999999999999</ele><time>2026-04-28T09:48:17.032Z</time></trkpt><trkpt lat="39.3649045" lon="21.9408522"><ele>107.0</ele><time>2026-04-28T09:48:32.032Z</time></trkpt><trkpt lat="39.3648311" lon="21.9408851"><ele>107.0</ele><time>2026-04-28T09:48:34.032Z</time></trkpt><trkpt lat="39.3647559" lon="21.9409138"><ele>107.0</ele><time>2026-04-28T09:48:36.031Z</time></trkpt><trkpt lat="39.3646666" lon="21.9409566"><ele>106.99999999999999</ele><time>2026-04-28T09:48:38.032Z</time></trkpt><trkpt lat="39.3645712" lon="21.9410348"><ele>107.0</ele><time>2026-04-28T09:48:40.031Z</time></trkpt><trkpt lat="39.3645192" lon="21.9411675"><ele>106.83333333333333</ele><time>2026-04-28T09:48:42.031Z</time></trkpt><trkpt lat="39.3645167" lon="21.9412495"><ele>106.66666666666666</ele><time>2026-04-28T09:48:43.032Z</time></trkpt><trkpt lat="39.3645209" lon="21.9413405"><ele>106.5</ele><time>2026-04-28T09:48:44.032Z</time></trkpt><trkpt lat="39.3645264" lon="21.9414403"><ele>106.33333333333334</ele><time>2026-04-28T09:48:45.031Z</time></trkpt><trkpt lat="39.3645299" lon="21.9415474"><ele>106.16666666666667</ele><time>2026-04-28T09:48:46.031Z</time></trkpt><trkpt lat="39.3645329" lon="21.9416674"><ele>106.0</ele><time>2026-04-28T09:48:47.032Z</time></trkpt><trkpt lat="39.3645367" lon="21.9417866"><ele>106.4</ele><time>2026-04-28T09:48:48.031Z</time></trkpt><trkpt lat="39.3645399" lon="21.9419051"><ele>106.8</ele><time>2026-04-28T09:48:49.032Z</time></trkpt><trkpt lat="39.3645421" lon="21.9420188"><ele>107.20000000000002</ele><time>2026-04-28T09:48:50.032Z</time></trkpt><trkpt lat="39.3645429" lon="21.9421379"><ele>107.60000000000001</ele><time>2026-04-28T09:48:51.031Z</time></trkpt><trkpt lat="39.3645416" lon="21.9422566"><ele>108.0</ele><time>2026-04-28T09:48:52.031Z</time></trkpt><trkpt lat="39.3645382" lon="21.9423751"><ele>108.0</ele><time>2026-04-28T09:48:53.032Z</time></trkpt><trkpt lat="39.3645317" lon="21.9424888"><ele>108.00000000000001</ele><time>2026-04-28T09:48:54.031Z</time></trkpt><trkpt lat="39.3645241" lon="21.9426054"><ele>108.00000000000001</ele><time>2026-04-28T09:48:55.031Z</time></trkpt><trkpt lat="39.3645173" lon="21.9427339"><ele>108.0</ele><time>2026-04-28T09:48:56.032Z</time></trkpt><trkpt lat="39.3645092" lon="21.9428889"><ele>108.0</ele><time>2026-04-28T09:48:57.031Z</time></trkpt><trkpt lat="39.3645" lon="21.9430712"><ele>107.75</ele><time>2026-04-28T09:48:58.032Z</time></trkpt><trkpt lat="39.3644906" lon="21.9432562"><ele>107.5</ele><time>2026-04-28T09:48:59.031Z</time></trkpt><trkpt lat="39.3644834" lon="21.9434472"><ele>107.25</ele><time>2026-04-28T09:49:00.032Z</time></trkpt><trkpt lat="39.3644822" lon="21.9436421"><ele>107.0</ele><time>2026-04-28T09:49:01.032Z</time></trkpt><trkpt lat="39.3644839" lon="21.9438387"><ele>107.0</ele><time>2026-04-28T09:49:02.031Z</time></trkpt><trkpt lat="39.3644844" lon="21.9440376"><ele>107.0</ele><time>2026-04-28T09:49:03.031Z</time></trkpt><trkpt lat="39.3644839" lon="21.9442345"><ele>107.0</ele><time>2026-04-28T09:49:04.032Z</time></trkpt><trkpt lat="39.3644842" lon="21.9444327"><ele>107.0</ele><time>2026-04-28T09:49:05.032Z</time></trkpt><trkpt lat="39.3644846" lon="21.9446244"><ele>107.0</ele><time>2026-04-28T09:49:06.032Z</time></trkpt><trkpt lat="39.3644842" lon="21.944823"><ele>107.0</ele><time>2026-04-28T09:49:07.032Z</time></trkpt><trkpt lat="39.3644852" lon="21.945031"><ele>107.0</ele><time>2026-04-28T09:49:08.031Z</time></trkpt><trkpt lat="39.3644887" lon="21.9452513"><ele>107.0</ele><time>2026-04-28T09:49:09.032Z</time></trkpt><trkpt lat="39.3644937" lon="21.9454639"><ele>107.0</ele><time>2026-04-28T09:49:10.032Z</time></trkpt><trkpt lat="39.364501" lon="21.9456848"><ele>107.0</ele><time>2026-04-28T09:49:11.031Z</time></trkpt><trkpt lat="39.3645102" lon="21.9459225"><ele>107.0</ele><time>2026-04-28T09:49:12.032Z</time></trkpt><trkpt lat="39.3645197" lon="21.9461665"><ele>107.0</ele><time>2026-04-28T09:49:13.032Z</time></trkpt><trkpt lat="39.3645298" lon="21.9464191"><ele>107.0</ele><time>2026-04-28T09:49:14.032Z</time></trkpt><trkpt lat="39.3645397" lon="21.9466752"><ele>107.0</ele><time>2026-04-28T09:49:15.032Z</time></trkpt><trkpt lat="39.3645493" lon="21.9469473"><ele>107.0</ele><time>2026-04-28T09:49:16.032Z</time></trkpt><trkpt lat="39.3645589" lon="21.9472218"><ele>106.33333333333333</ele><time>2026-04-28T09:49:17.031Z</time></trkpt><trkpt lat="39.3645697" lon="21.9474994"><ele>105.66666666666666</ele><time>2026-04-28T09:49:18.032Z</time></trkpt><trkpt lat="39.3645827" lon="21.947772"><ele>105.0</ele><time>2026-04-28T09:49:19.032Z</time></trkpt><trkpt lat="39.3646002" lon="21.9480572"><ele>104.5</ele><time>2026-04-28T09:49:20.031Z</time></trkpt><trkpt lat="39.3646242" lon="21.9483452"><ele>104.0</ele><time>2026-04-28T09:49:21.031Z</time></trkpt><trkpt lat="39.3646567" lon="21.9486401"><ele>104.5</ele><time>2026-04-28T09:49:22.031Z</time></trkpt><trkpt lat="39.3646973" lon="21.9489382"><ele>105.0</ele><time>2026-04-28T09:49:23.031Z</time></trkpt><trkpt lat="39.364747" lon="21.9492445"><ele>105.5</ele><time>2026-04-28T09:49:24.031Z</time></trkpt><trkpt lat="39.3648027" lon="21.9495503"><ele>106.0</ele><time>2026-04-28T09:49:25.032Z</time></trkpt><trkpt lat="39.3648607" lon="21.9498465"><ele>105.5</ele><time>2026-04-28T09:49:26.032Z</time></trkpt><trkpt lat="39.3649242" lon="21.9501479"><ele>105.0</ele><time>2026-04-28T09:49:27.031Z</time></trkpt><trkpt lat="39.3649919" lon="21.9504525"><ele>105.0</ele><time>2026-04-28T09:49:28.031Z</time></trkpt><trkpt lat="39.3650607" lon="21.9507534"><ele>105.0</ele><time>2026-04-28T09:49:29.032Z</time></trkpt><trkpt lat="39.3651278" lon="21.951049"><ele>104.5</ele><time>2026-04-28T09:49:30.032Z</time></trkpt><trkpt lat="39.3651947" lon="21.9513432"><ele>104.0</ele><time>2026-04-28T09:49:31.032Z</time></trkpt><trkpt lat="39.3652608" lon="21.9516325"><ele>104.33333333333333</ele><time>2026-04-28T09:49:32.032Z</time></trkpt><trkpt lat="39.3653259" lon="21.9519215"><ele>104.66666666666666</ele><time>2026-04-28T09:49:33.031Z</time></trkpt><trkpt lat="39.3653857" lon="21.952189"><ele>105.0</ele><time>2026-04-28T09:49:34.032Z</time></trkpt><trkpt lat="39.3654454" lon="21.9524565"><ele>105.33333333333334</ele><time>2026-04-28T09:49:35.032Z</time></trkpt><trkpt lat="39.3655047" lon="21.9527234"><ele>105.66666666666667</ele><time>2026-04-28T09:49:36.031Z</time></trkpt><trkpt lat="39.3655647" lon="21.9529932"><ele>106.0</ele><time>2026-04-28T09:49:37.032Z</time></trkpt><trkpt lat="39.3656207" lon="21.9532512"><ele>105.66666666666667</ele><time>2026-04-28T09:49:38.032Z</time></trkpt><trkpt lat="39.3656756" lon="21.9535134"><ele>105.33333333333334</ele><time>2026-04-28T09:49:39.032Z</time></trkpt><trkpt lat="39.3657301" lon="21.9537808"><ele>105.0</ele><time>2026-04-28T09:49:40.032Z</time></trkpt><trkpt lat="39.3657816" lon="21.9540546"><ele>104.66666666666666</ele><time>2026-04-28T09:49:41.032Z</time></trkpt><trkpt lat="39.3658292" lon="21.9543292"><ele>104.33333333333333</ele><time>2026-04-28T09:49:42.032Z</time></trkpt><trkpt lat="39.3658737" lon="21.9545953"><ele>104.0</ele><time>2026-04-28T09:49:43.032Z</time></trkpt><trkpt lat="39.3659207" lon="21.9548738"><ele>104.0</ele><time>2026-04-28T09:49:44.031Z</time></trkpt><trkpt lat="39.3659695" lon="21.9551545"><ele>104.0</ele><time>2026-04-28T09:49:45.031Z</time></trkpt><trkpt lat="39.3660203" lon="21.9554431"><ele>104.0</ele><time>2026-04-28T09:49:46.032Z</time></trkpt><trkpt lat="39.3660706" lon="21.9557319"><ele>104.0</ele><time>2026-04-28T09:49:47.031Z</time></trkpt><trkpt lat="39.3661223" lon="21.9560345"><ele>104.0</ele><time>2026-04-28T09:49:48.032Z</time></trkpt><trkpt lat="39.3661724" lon="21.9563371"><ele>104.0</ele><time>2026-04-28T09:49:49.031Z</time></trkpt><trkpt lat="39.366223" lon="21.9566448"><ele>104.5</ele><time>2026-04-28T09:49:50.031Z</time></trkpt><trkpt lat="39.3662727" lon="21.9569517"><ele>105.0</ele><time>2026-04-28T09:49:51.032Z</time></trkpt><trkpt lat="39.3663245" lon="21.9572692"><ele>104.0</ele><time>2026-04-28T09:49:52.032Z</time></trkpt><trkpt lat="39.3663767" lon="21.9575806"><ele>103.0</ele><time>2026-04-28T09:49:53.031Z</time></trkpt><trkpt lat="39.3664299" lon="21.9578919"><ele>103.0</ele><time>2026-04-28T09:49:54.032Z</time></trkpt><trkpt lat="39.3664829" lon="21.9582"><ele>103.0</ele><time>2026-04-28T09:49:55.031Z</time></trkpt><trkpt lat="39.3665378" lon="21.9585235"><ele>103.5</ele><time>2026-04-28T09:49:56.032Z</time></trkpt><trkpt lat="39.3665929" lon="21.9588489"><ele>104.0</ele><time>2026-04-28T09:49:57.031Z</time></trkpt><trkpt lat="39.366649" lon="21.9591803"><ele>104.0</ele><time>2026-04-28T09:49:58.031Z</time></trkpt><trkpt lat="39.3667039" lon="21.9595102"><ele>104.0</ele><time>2026-04-28T09:49:59.032Z</time></trkpt><trkpt lat="39.3667611" lon="21.9598524"><ele>104.5</ele><time>2026-04-28T09:50:00.032Z</time></trkpt><trkpt lat="39.3668157" lon="21.9601883"><ele>105.0</ele><time>2026-04-28T09:50:01.031Z</time></trkpt><trkpt lat="39.3668694" lon="21.960522"><ele>105.0</ele><time>2026-04-28T09:50:02.032Z</time></trkpt><trkpt lat="39.3669202" lon="21.9608472"><ele>105.0</ele><time>2026-04-28T09:50:03.031Z</time></trkpt><trkpt lat="39.3669723" lon="21.9611817"><ele>104.0</ele><time>2026-04-28T09:50:04.032Z</time></trkpt><trkpt lat="39.367022" lon="21.9615098"><ele>103.0</ele><time>2026-04-28T09:50:05.031Z</time></trkpt><trkpt lat="39.3670709" lon="21.9618371"><ele>102.5</ele><time>2026-04-28T09:50:06.032Z</time></trkpt><trkpt lat="39.3671204" lon="21.9621582"><ele>102.0</ele><time>2026-04-28T09:50:07.032Z</time></trkpt><trkpt lat="39.3671733" lon="21.9624874"><ele>102.5</ele><time>2026-04-28T09:50:08.031Z</time></trkpt><trkpt lat="39.3672252" lon="21.9628072"><ele>103.0</ele><time>2026-04-28T09:50:09.031Z</time></trkpt><trkpt lat="39.3672759" lon="21.9631218"><ele>103.5</ele><time>2026-04-28T09:50:10.032Z</time></trkpt><trkpt lat="39.3673259" lon="21.9634262"><ele>104.0</ele><time>2026-04-28T09:50:11.032Z</time></trkpt><trkpt lat="39.3673779" lon="21.9637375"><ele>104.0</ele><time>2026-04-28T09:50:12.032Z</time></trkpt><trkpt lat="39.3674292" lon="21.9640412"><ele>104.0</ele><time>2026-04-28T09:50:13.032Z</time></trkpt><trkpt lat="39.3674801" lon="21.9643432"><ele>103.0</ele><time>2026-04-28T09:50:14.032Z</time></trkpt><trkpt lat="39.3675295" lon="21.96464"><ele>102.0</ele><time>2026-04-28T09:50:15.031Z</time></trkpt><trkpt lat="39.3675811" lon="21.9649456"><ele>102.0</ele><time>2026-04-28T09:50:16.032Z</time></trkpt><trkpt lat="39.367632" lon="21.9652444"><ele>102.0</ele><time>2026-04-28T09:50:17.031Z</time></trkpt><trkpt lat="39.3676828" lon="21.9655408"><ele>102.0</ele><time>2026-04-28T09:50:18.031Z</time></trkpt><trkpt lat="39.3677307" lon="21.9658303"><ele>102.0</ele><time>2026-04-28T09:50:19.032Z</time></trkpt><trkpt lat="39.3677792" lon="21.9661266"><ele>101.5</ele><time>2026-04-28T09:50:20.031Z</time></trkpt><trkpt lat="39.3678254" lon="21.9664186"><ele>101.0</ele><time>2026-04-28T09:50:21.032Z</time></trkpt><trkpt lat="39.3678709" lon="21.9667114"><ele>102.5</ele><time>2026-04-28T09:50:22.031Z</time></trkpt><trkpt lat="39.3679157" lon="21.967001"><ele>104.0</ele><time>2026-04-28T09:50:23.031Z</time></trkpt><trkpt lat="39.3679633" lon="21.9673036"><ele>103.5</ele><time>2026-04-28T09:50:24.032Z</time></trkpt><trkpt lat="39.3680124" lon="21.9676028"><ele>103.0</ele><time>2026-04-28T09:50:25.032Z</time></trkpt><trkpt lat="39.3680612" lon="21.9678947"><ele>103.0</ele><time>2026-04-28T09:50:26.031Z</time></trkpt><trkpt lat="39.3681074" lon="21.9681694"><ele>103.0</ele><time>2026-04-28T09:50:27.032Z</time></trkpt><trkpt lat="39.368152" lon="21.9684417"><ele>103.0</ele><time>2026-04-28T09:50:28.031Z</time></trkpt><trkpt lat="39.3681954" lon="21.9687007"><ele>103.0</ele><time>2026-04-28T09:50:29.032Z</time></trkpt><trkpt lat="39.3682393" lon="21.9689586"><ele>103.0</ele><time>2026-04-28T09:50:30.032Z</time></trkpt><trkpt lat="39.3682818" lon="21.969215"><ele>103.0</ele><time>2026-04-28T09:50:31.032Z</time></trkpt><trkpt lat="39.3683264" lon="21.969489"><ele>103.0</ele><time>2026-04-28T09:50:32.032Z</time></trkpt><trkpt lat="39.3683737" lon="21.9697704"><ele>103.0</ele><time>2026-04-28T09:50:33.031Z</time></trkpt><trkpt lat="39.3684194" lon="21.9700602"><ele>103.0</ele><time>2026-04-28T09:50:34.032Z</time></trkpt><trkpt lat="39.368461" lon="21.9703469"><ele>103.0</ele><time>2026-04-28T09:50:35.032Z</time></trkpt><trkpt lat="39.368502" lon="21.9706382"><ele>103.33333333333334</ele><time>2026-04-28T09:50:36.032Z</time></trkpt><trkpt lat="39.3685413" lon="21.9709086"><ele>103.66666666666666</ele><time>2026-04-28T09:50:37.032Z</time></trkpt><trkpt lat="39.3685715" lon="21.971122"><ele>104.0</ele><time>2026-04-28T09:50:38.031Z</time></trkpt><trkpt lat="39.3685936" lon="21.9712755"><ele>104.0</ele><time>2026-04-28T09:50:39.031Z</time></trkpt><trkpt lat="39.3686062" lon="21.9713638"><ele>104.0</ele><time>2026-04-28T09:50:40.031Z</time></trkpt><trkpt lat="39.3686121" lon="21.9714502"><ele>104.0</ele><time>2026-04-28T09:51:17.032Z</time></trkpt><trkpt lat="39.3686419" lon="21.9716373"><ele>104.0</ele><time>2026-04-28T09:51:19.032Z</time></trkpt><trkpt lat="39.3686608" lon="21.9717693"><ele>104.0</ele><time>2026-04-28T09:51:20.032Z</time></trkpt><trkpt lat="39.3686838" lon="21.9719235"><ele>103.5</ele><time>2026-04-28T09:51:21.031Z</time></trkpt><trkpt lat="39.3687096" lon="21.9720906"><ele>103.0</ele><time>2026-04-28T09:51:22.032Z</time></trkpt><trkpt lat="39.3687382" lon="21.9722715"><ele>102.5</ele><time>2026-04-28T09:51:23.031Z</time></trkpt><trkpt lat="39.3687696" lon="21.972461"><ele>102.0</ele><time>2026-04-28T09:51:24.032Z</time></trkpt><trkpt lat="39.3688024" lon="21.9726632"><ele>102.0</ele><time>2026-04-28T09:51:25.031Z</time></trkpt><trkpt lat="39.3688358" lon="21.972869"><ele>102.0</ele><time>2026-04-28T09:51:26.032Z</time></trkpt><trkpt lat="39.3688701" lon="21.9730896"><ele>102.0</ele><time>2026-04-28T09:51:27.031Z</time></trkpt><trkpt lat="39.3689048" lon="21.9733212"><ele>101.66666666666666</ele><time>2026-04-28T09:51:28.031Z</time></trkpt><trkpt lat="39.3689409" lon="21.9735597"><ele>101.33333333333333</ele><time>2026-04-28T09:51:29.032Z</time></trkpt><trkpt lat="39.3689755" lon="21.9737931"><ele>101.0</ele><time>2026-04-28T09:51:30.031Z</time></trkpt><trkpt lat="39.3690109" lon="21.9740308"><ele>101.33333333333333</ele><time>2026-04-28T09:51:31.032Z</time></trkpt><trkpt lat="39.3690467" lon="21.9742697"><ele>101.66666666666666</ele><time>2026-04-28T09:51:32.031Z</time></trkpt><trkpt lat="39.369084" lon="21.9745126"><ele>102.0</ele><time>2026-04-28T09:51:33.032Z</time></trkpt><trkpt lat="39.3691205" lon="21.9747487"><ele>102.0</ele><time>2026-04-28T09:51:34.031Z</time></trkpt><trkpt lat="39.3691576" lon="21.9749893"><ele>102.0</ele><time>2026-04-28T09:51:35.031Z</time></trkpt><trkpt lat="39.3691947" lon="21.975233"><ele>102.0</ele><time>2026-04-28T09:51:36.032Z</time></trkpt><trkpt lat="39.3692333" lon="21.9754855"><ele>102.0</ele><time>2026-04-28T09:51:37.031Z</time></trkpt><trkpt lat="39.3692738" lon="21.9757358"><ele>102.0</ele><time>2026-04-28T09:51:38.032Z</time></trkpt><trkpt lat="39.3693185" lon="21.9759984"><ele>102.0</ele><time>2026-04-28T09:51:39.032Z</time></trkpt><trkpt lat="39.369366" lon="21.9762693"><ele>102.0</ele><time>2026-04-28T09:51:40.032Z</time></trkpt><trkpt lat="39.3694124" lon="21.9765438"><ele>102.0</ele><time>2026-04-28T09:51:41.032Z</time></trkpt><trkpt lat="39.3694562" lon="21.9768131"><ele>102.0</ele><time>2026-04-28T09:51:42.031Z</time></trkpt><trkpt lat="39.3695005" lon="21.9770921"><ele>102.5</ele><time>2026-04-28T09:51:43.031Z</time></trkpt><trkpt lat="39.369545" lon="21.9773757"><ele>103.0</ele><time>2026-04-28T09:51:44.031Z</time></trkpt><trkpt lat="39.3695904" lon="21.9776688"><ele>102.0</ele><time>2026-04-28T09:51:45.031Z</time></trkpt><trkpt lat="39.3696353" lon="21.9779569"><ele>101.0</ele><time>2026-04-28T09:51:46.032Z</time></trkpt><trkpt lat="39.3696811" lon="21.978253"><ele>100.5</ele><time>2026-04-28T09:51:47.031Z</time></trkpt><trkpt lat="39.3697259" lon="21.9785516"><ele>100.0</ele><time>2026-04-28T09:51:48.031Z</time></trkpt><trkpt lat="39.369773" lon="21.9788569"><ele>100.0</ele><time>2026-04-28T09:51:49.032Z</time></trkpt><trkpt lat="39.3698207" lon="21.9791553"><ele>100.0</ele><time>2026-04-28T09:51:50.031Z</time></trkpt><trkpt lat="39.3698677" lon="21.9794516"><ele>100.0</ele><time>2026-04-28T09:51:51.032Z</time></trkpt><trkpt lat="39.3699162" lon="21.9797577"><ele>100.0</ele><time>2026-04-28T09:51:52.032Z</time></trkpt><trkpt lat="39.3699633" lon="21.9800604"><ele>99.5</ele><time>2026-04-28T09:51:53.032Z</time></trkpt><trkpt lat="39.3700094" lon="21.980366"><ele>99.0</ele><time>2026-04-28T09:51:54.032Z</time></trkpt><trkpt lat="39.3700568" lon="21.9806748"><ele>100.5</ele><time>2026-04-28T09:51:55.032Z</time></trkpt><trkpt lat="39.3701087" lon="21.9810032"><ele>102.0</ele><time>2026-04-28T09:51:56.031Z</time></trkpt><trkpt lat="39.3701619" lon="21.981337"><ele>102.0</ele><time>2026-04-28T09:51:57.031Z</time></trkpt><trkpt lat="39.370214" lon="21.9816801"><ele>102.0</ele><time>2026-04-28T09:51:58.032Z</time></trkpt><trkpt lat="39.3702654" lon="21.9820249"><ele>102.0</ele><time>2026-04-28T09:51:59.031Z</time></trkpt><trkpt lat="39.3703192" lon="21.982383"><ele>102.0</ele><time>2026-04-28T09:52:00.031Z</time></trkpt><trkpt lat="39.3703729" lon="21.9827341"><ele>102.0</ele><time>2026-04-28T09:52:01.032Z</time></trkpt><trkpt lat="39.3704269" lon="21.9830836"><ele>102.0</ele><time>2026-04-28T09:52:02.032Z</time></trkpt><trkpt lat="39.3704805" lon="21.9834267"><ele>101.5</ele><time>2026-04-28T09:52:03.031Z</time></trkpt><trkpt lat="39.3705354" lon="21.9837821"><ele>101.0</ele><time>2026-04-28T09:52:04.032Z</time></trkpt><trkpt lat="39.3705888" lon="21.9841334"><ele>101.5</ele><time>2026-04-28T09:52:05.031Z</time></trkpt><trkpt lat="39.3706426" lon="21.9844856"><ele>102.0</ele><time>2026-04-28T09:52:06.031Z</time></trkpt><trkpt lat="39.3706953" lon="21.9848335"><ele>102.0</ele><time>2026-04-28T09:52:07.031Z</time></trkpt><trkpt lat="39.3707494" lon="21.9851929"><ele>102.0</ele><time>2026-04-28T09:52:08.032Z</time></trkpt><trkpt lat="39.3708028" lon="21.9855474"><ele>101.5</ele><time>2026-04-28T09:52:09.031Z</time></trkpt><trkpt lat="39.3708576" lon="21.9859032"><ele>101.0</ele><time>2026-04-28T09:52:10.031Z</time></trkpt><trkpt lat="39.3709132" lon="21.9862559"><ele>101.0</ele><time>2026-04-28T09:52:11.032Z</time></trkpt><trkpt lat="39.3709705" lon="21.9866223"><ele>101.0</ele><time>2026-04-28T09:52:12.031Z</time></trkpt><trkpt lat="39.3710266" lon="21.9869855"><ele>101.0</ele><time>2026-04-28T09:52:13.032Z</time></trkpt><trkpt lat="39.3710823" lon="21.9873523"><ele>101.0</ele><time>2026-04-28T09:52:14.031Z</time></trkpt><trkpt lat="39.3711377" lon="21.9877168"><ele>100.5</ele><time>2026-04-28T09:52:15.031Z</time></trkpt><trkpt lat="39.3711964" lon="21.988095"><ele>100.0</ele><time>2026-04-28T09:52:16.032Z</time></trkpt><trkpt lat="39.3712551" lon="21.9884668"><ele>100.5</ele><time>2026-04-28T09:52:17.031Z</time></trkpt><trkpt lat="39.3713163" lon="21.9888346"><ele>101.0</ele><time>2026-04-28T09:52:18.032Z</time></trkpt><trkpt lat="39.3713788" lon="21.9891925"><ele>101.0</ele><time>2026-04-28T09:52:19.031Z</time></trkpt><trkpt lat="39.371445" lon="21.9895644"><ele>101.0</ele><time>2026-04-28T09:52:20.032Z</time></trkpt><trkpt lat="39.3715105" lon="21.9899415"><ele>101.0</ele><time>2026-04-28T09:52:21.031Z</time></trkpt><trkpt lat="39.3715754" lon="21.9903317"><ele>101.0</ele><time>2026-04-28T09:52:22.032Z</time></trkpt><trkpt lat="39.3716372" lon="21.9907258"><ele>101.0</ele><time>2026-04-28T09:52:23.031Z</time></trkpt><trkpt lat="39.3716986" lon="21.9911368"><ele>101.0</ele><time>2026-04-28T09:52:24.032Z</time></trkpt><trkpt lat="39.3717577" lon="21.9915369"><ele>101.5</ele><time>2026-04-28T09:52:25.031Z</time></trkpt><trkpt lat="39.3718168" lon="21.9919271"><ele>102.0</ele><time>2026-04-28T09:52:26.032Z</time></trkpt><trkpt lat="39.371874" lon="21.9923005"><ele>101.0</ele><time>2026-04-28T09:52:27.032Z</time></trkpt><trkpt lat="39.3719306" lon="21.9926737"><ele>100.0</ele><time>2026-04-28T09:52:28.032Z</time></trkpt><trkpt lat="39.3719835" lon="21.9930315"><ele>100.5</ele><time>2026-04-28T09:52:29.032Z</time></trkpt><trkpt lat="39.3720339" lon="21.993385"><ele>101.0</ele><time>2026-04-28T09:52:30.032Z</time></trkpt><trkpt lat="39.3720823" lon="21.9937312"><ele>101.0</ele><time>2026-04-28T09:52:31.032Z</time></trkpt><trkpt lat="39.3721303" lon="21.9940876"><ele>101.0</ele><time>2026-04-28T09:52:32.031Z</time></trkpt><trkpt lat="39.3721778" lon="21.9944353"><ele>101.0</ele><time>2026-04-28T09:52:33.032Z</time></trkpt><trkpt lat="39.3722229" lon="21.9947794"><ele>101.0</ele><time>2026-04-28T09:52:34.032Z</time></trkpt><trkpt lat="39.3722649" lon="21.9951129"><ele>101.5</ele><time>2026-04-28T09:52:35.031Z</time></trkpt><trkpt lat="39.3723036" lon="21.9954514"><ele>102.0</ele><time>2026-04-28T09:52:36.031Z</time></trkpt><trkpt lat="39.3723429" lon="21.9957792"><ele>102.0</ele><time>2026-04-28T09:52:37.032Z</time></trkpt><trkpt lat="39.3723837" lon="21.9961038"><ele>102.0</ele><time>2026-04-28T09:52:38.032Z</time></trkpt><trkpt lat="39.3724243" lon="21.9964236"><ele>101.5</ele><time>2026-04-28T09:52:39.031Z</time></trkpt><trkpt lat="39.372466" lon="21.9967568"><ele>101.0</ele><time>2026-04-28T09:52:40.031Z</time></trkpt><trkpt lat="39.372509" lon="21.997095"><ele>101.0</ele><time>2026-04-28T09:52:41.032Z</time></trkpt><trkpt lat="39.3725545" lon="21.9974452"><ele>101.0</ele><time>2026-04-28T09:52:42.032Z</time></trkpt><trkpt lat="39.3725967" lon="21.9977886"><ele>101.0</ele><time>2026-04-28T09:52:43.031Z</time></trkpt><trkpt lat="39.3726346" lon="21.9981313"><ele>101.0</ele><time>2026-04-28T09:52:44.032Z</time></trkpt><trkpt lat="39.3726679" lon="21.9984565"><ele>100.5</ele><time>2026-04-28T09:52:45.032Z</time></trkpt><trkpt lat="39.3726988" lon="21.9987671"><ele>100.0</ele><time>2026-04-28T09:52:46.032Z</time></trkpt><trkpt lat="39.3727292" lon="21.9990622"><ele>99.5</ele><time>2026-04-28T09:52:47.032Z</time></trkpt><trkpt lat="39.3727626" lon="21.9993581"><ele>99.0</ele><time>2026-04-28T09:52:48.032Z</time></trkpt><trkpt lat="39.372796" lon="21.9996401"><ele>99.0</ele><time>2026-04-28T09:52:49.031Z</time></trkpt><trkpt lat="39.3728275" lon="21.9999112"><ele>99.0</ele><time>2026-04-28T09:52:50.031Z</time></trkpt><trkpt lat="39.3728569" lon="22.0001661"><ele>99.0</ele><time>2026-04-28T09:52:51.031Z</time></trkpt><trkpt lat="39.3728864" lon="22.0004216"><ele>99.0</ele><time>2026-04-28T09:52:52.032Z</time></trkpt><trkpt lat="39.3729151" lon="22.000665"><ele>99.0</ele><time>2026-04-28T09:52:53.031Z</time></trkpt><trkpt lat="39.3729423" lon="22.0008982"><ele>99.0</ele><time>2026-04-28T09:52:54.032Z</time></trkpt><trkpt lat="39.3729683" lon="22.0011185"><ele>98.66666666666666</ele><time>2026-04-28T09:52:55.032Z</time></trkpt><trkpt lat="39.3729956" lon="22.0013425"><ele>98.33333333333333</ele><time>2026-04-28T09:52:56.031Z</time></trkpt><trkpt lat="39.3730219" lon="22.0015657"><ele>98.0</ele><time>2026-04-28T09:52:57.032Z</time></trkpt><trkpt lat="39.3730487" lon="22.0017905"><ele>99.0</ele><time>2026-04-28T09:52:58.032Z</time></trkpt><trkpt lat="39.3730764" lon="22.00201"><ele>100.0</ele><time>2026-04-28T09:52:59.031Z</time></trkpt><trkpt lat="39.3731069" lon="22.0022323"><ele>101.0</ele><time>2026-04-28T09:53:00.032Z</time></trkpt><trkpt lat="39.3731382" lon="22.0024444"><ele>101.33333333333333</ele><time>2026-04-28T09:53:01.032Z</time></trkpt><trkpt lat="39.3731677" lon="22.0026561"><ele>101.66666666666666</ele><time>2026-04-28T09:53:02.032Z</time></trkpt><trkpt lat="39.3731925" lon="22.0028692"><ele>102.0</ele><time>2026-04-28T09:53:03.032Z</time></trkpt><trkpt lat="39.3732147" lon="22.0030987"><ele>101.0</ele><time>2026-04-28T09:53:04.032Z</time></trkpt><trkpt lat="39.3732338" lon="22.0033327"><ele>100.0</ele><time>2026-04-28T09:53:05.032Z</time></trkpt><trkpt lat="39.3732537" lon="22.0035587"><ele>99.0</ele><time>2026-04-28T09:53:06.032Z</time></trkpt><trkpt lat="39.3732776" lon="22.0037703"><ele>99.0</ele><time>2026-04-28T09:53:07.031Z</time></trkpt><trkpt lat="39.3733086" lon="22.0039684"><ele>99.0</ele><time>2026-04-28T09:53:08.031Z</time></trkpt><trkpt lat="39.3733378" lon="22.0041374"><ele>99.0</ele><time>2026-04-28T09:53:09.032Z</time></trkpt><trkpt lat="39.373355" lon="22.0042901"><ele>99.0</ele><time>2026-04-28T09:53:10.031Z</time></trkpt><trkpt lat="39.3733515" lon="22.0044319"><ele>99.0</ele><time>2026-04-28T09:53:11.031Z</time></trkpt><trkpt lat="39.3733343" lon="22.0045696"><ele>99.0</ele><time>2026-04-28T09:53:12.032Z</time></trkpt><trkpt lat="39.3733222" lon="22.0046993"><ele>99.0</ele><time>2026-04-28T09:53:13.032Z</time></trkpt><trkpt lat="39.373333" lon="22.0048311"><ele>99.0</ele><time>2026-04-28T09:53:14.032Z</time></trkpt><trkpt lat="39.3733721" lon="22.0049674"><ele>99.0</ele><time>2026-04-28T09:53:15.032Z</time></trkpt><trkpt lat="39.3734294" lon="22.0051273"><ele>99.33333333333334</ele><time>2026-04-28T09:53:16.031Z</time></trkpt><trkpt lat="39.3734788" lon="22.0053042"><ele>99.66666666666667</ele><time>2026-04-28T09:53:17.031Z</time></trkpt><trkpt lat="39.3735189" lon="22.0055174"><ele>100.0</ele><time>2026-04-28T09:53:18.031Z</time></trkpt><trkpt lat="39.3735508" lon="22.0057705"><ele>100.0</ele><time>2026-04-28T09:53:19.031Z</time></trkpt><trkpt lat="39.3735827" lon="22.0060554"><ele>100.0</ele><time>2026-04-28T09:53:20.032Z</time></trkpt><trkpt lat="39.3736129" lon="22.0063357"><ele>100.0</ele><time>2026-04-28T09:53:21.031Z</time></trkpt><trkpt lat="39.3736415" lon="22.0066097"><ele>99.0</ele><time>2026-04-28T09:53:22.031Z</time></trkpt><trkpt lat="39.3736679" lon="22.006872"><ele>98.0</ele><time>2026-04-28T09:53:23.031Z</time></trkpt><trkpt lat="39.3736937" lon="22.0071382"><ele>97.0</ele><time>2026-04-28T09:53:24.032Z</time></trkpt><trkpt lat="39.3737175" lon="22.0073998"><ele>97.0</ele><time>2026-04-28T09:53:25.031Z</time></trkpt><trkpt lat="39.3737414" lon="22.0076628"><ele>97.0</ele><time>2026-04-28T09:53:26.031Z</time></trkpt><trkpt lat="39.3737661" lon="22.0079211"><ele>97.0</ele><time>2026-04-28T09:53:27.031Z</time></trkpt><trkpt lat="39.3737927" lon="22.0081847"><ele>97.66666666666667</ele><time>2026-04-28T09:53:28.031Z</time></trkpt><trkpt lat="39.3738197" lon="22.0084409"><ele>98.33333333333334</ele><time>2026-04-28T09:53:29.031Z</time></trkpt><trkpt lat="39.3738461" lon="22.0086988"><ele>99.0</ele><time>2026-04-28T09:53:30.031Z</time></trkpt><trkpt lat="39.3738709" lon="22.0089498"><ele>99.33333333333334</ele><time>2026-04-28T09:53:31.032Z</time></trkpt><trkpt lat="39.3738979" lon="22.0092042"><ele>99.66666666666667</ele><time>2026-04-28T09:53:32.031Z</time></trkpt><trkpt lat="39.3739251" lon="22.0094497"><ele>100.0</ele><time>2026-04-28T09:53:33.032Z</time></trkpt><trkpt lat="39.3739527" lon="22.00969"><ele>100.0</ele><time>2026-04-28T09:53:34.032Z</time></trkpt><trkpt lat="39.3739821" lon="22.0099207"><ele>100.0</ele><time>2026-04-28T09:53:35.032Z</time></trkpt><trkpt lat="39.3740121" lon="22.0101509"><ele>100.0</ele><time>2026-04-28T09:53:36.031Z</time></trkpt><trkpt lat="39.3740415" lon="22.0103664"><ele>99.66666666666667</ele><time>2026-04-28T09:53:37.031Z</time></trkpt><trkpt lat="39.3740716" lon="22.0105711"><ele>99.33333333333334</ele><time>2026-04-28T09:53:38.032Z</time></trkpt><trkpt lat="39.3741017" lon="22.010762"><ele>99.0</ele><time>2026-04-28T09:53:39.032Z</time></trkpt><trkpt lat="39.3741311" lon="22.0109458"><ele>99.4</ele><time>2026-04-28T09:53:40.032Z</time></trkpt><trkpt lat="39.374156" lon="22.0111115"><ele>99.80000000000001</ele><time>2026-04-28T09:53:41.032Z</time></trkpt><trkpt lat="39.374176" lon="22.0112608"><ele>100.19999999999999</ele><time>2026-04-28T09:53:42.032Z</time></trkpt><trkpt lat="39.3741924" lon="22.011391"><ele>100.6</ele><time>2026-04-28T09:53:43.031Z</time></trkpt><trkpt lat="39.3742055" lon="22.0115016"><ele>101.0</ele><time>2026-04-28T09:53:44.031Z</time></trkpt><trkpt lat="39.3742151" lon="22.0115918"><ele>101.19999999999999</ele><time>2026-04-28T09:53:45.032Z</time></trkpt><trkpt lat="39.3742204" lon="22.0117348"><ele>101.39999999999999</ele><time>2026-04-28T09:53:47.032Z</time></trkpt><trkpt lat="39.3742099" lon="22.0118556"><ele>101.6</ele><time>2026-04-28T09:53:49.031Z</time></trkpt><trkpt lat="39.3741839" lon="22.0119555"><ele>101.8</ele><time>2026-04-28T09:53:51.031Z</time></trkpt><trkpt lat="39.3741858" lon="22.0120659"><ele>102.0</ele><time>2026-04-28T09:53:53.031Z</time></trkpt><trkpt lat="39.3742336" lon="22.0121728"><ele>102.0</ele><time>2026-04-28T09:53:55.031Z</time></trkpt><trkpt lat="39.3743213" lon="22.0122972"><ele>102.0</ele><time>2026-04-28T09:53:57.032Z</time></trkpt><trkpt lat="39.3743605" lon="22.0123839"><ele>102.0</ele><time>2026-04-28T09:53:58.032Z</time></trkpt><trkpt lat="39.3743906" lon="22.0124865"><ele>102.0</ele><time>2026-04-28T09:53:59.031Z</time></trkpt><trkpt lat="39.3744152" lon="22.0126137"><ele>102.0</ele><time>2026-04-28T09:54:00.031Z</time></trkpt><trkpt lat="39.3744394" lon="22.0127634"><ele>102.33333333333334</ele><time>2026-04-28T09:54:01.031Z</time></trkpt><trkpt lat="39.3744683" lon="22.0129434"><ele>102.66666666666667</ele><time>2026-04-28T09:54:02.032Z</time></trkpt><trkpt lat="39.374504" lon="22.013149"><ele>103.0</ele><time>2026-04-28T09:54:03.031Z</time></trkpt><trkpt lat="39.3745432" lon="22.0133713"><ele>102.33333333333334</ele><time>2026-04-28T09:54:04.031Z</time></trkpt><trkpt lat="39.3745819" lon="22.0135959"><ele>101.66666666666666</ele><time>2026-04-28T09:54:05.031Z</time></trkpt><trkpt lat="39.3746138" lon="22.0138216"><ele>101.0</ele><time>2026-04-28T09:54:06.031Z</time></trkpt><trkpt lat="39.3746423" lon="22.0140413"><ele>101.0</ele><time>2026-04-28T09:54:07.032Z</time></trkpt><trkpt lat="39.3746722" lon="22.0142604"><ele>101.0</ele><time>2026-04-28T09:54:08.032Z</time></trkpt><trkpt lat="39.3747039" lon="22.0144717"><ele>101.0</ele><time>2026-04-28T09:54:09.032Z</time></trkpt><trkpt lat="39.3747381" lon="22.0146842"><ele>101.0</ele><time>2026-04-28T09:54:10.031Z</time></trkpt><trkpt lat="39.3747743" lon="22.0148993"><ele>101.0</ele><time>2026-04-28T09:54:11.032Z</time></trkpt><trkpt lat="39.3748134" lon="22.0151276"><ele>101.0</ele><time>2026-04-28T09:54:12.031Z</time></trkpt><trkpt lat="39.374853" lon="22.0153549"><ele>101.0</ele><time>2026-04-28T09:54:13.032Z</time></trkpt><trkpt lat="39.3748932" lon="22.0155812"><ele>101.0</ele><time>2026-04-28T09:54:14.032Z</time></trkpt><trkpt lat="39.3749308" lon="22.0157957"><ele>101.0</ele><time>2026-04-28T09:54:15.031Z</time></trkpt><trkpt lat="39.3749672" lon="22.0160059"><ele>101.25</ele><time>2026-04-28T09:54:16.031Z</time></trkpt><trkpt lat="39.3749954" lon="22.0161923"><ele>101.5</ele><time>2026-04-28T09:54:17.032Z</time></trkpt><trkpt lat="39.3750093" lon="22.0163635"><ele>101.75</ele><time>2026-04-28T09:54:18.032Z</time></trkpt><trkpt lat="39.3750033" lon="22.0165161"><ele>102.0</ele><time>2026-04-28T09:54:19.031Z</time></trkpt><trkpt lat="39.374993" lon="22.0166526"><ele>101.8</ele><time>2026-04-28T09:54:20.031Z</time></trkpt><trkpt lat="39.3750001" lon="22.0167711"><ele>101.6</ele><time>2026-04-28T09:54:21.031Z</time></trkpt><trkpt lat="39.375037" lon="22.0168762"><ele>101.39999999999999</ele><time>2026-04-28T09:54:22.032Z</time></trkpt><trkpt lat="39.3751004" lon="22.0169653"><ele>101.19999999999999</ele><time>2026-04-28T09:54:23.032Z</time></trkpt><trkpt lat="39.375177" lon="22.017053"><ele>101.0</ele><time>2026-04-28T09:54:24.031Z</time></trkpt><trkpt lat="39.3752474" lon="22.0171731"><ele>101.0</ele><time>2026-04-28T09:54:25.032Z</time></trkpt><trkpt lat="39.3753071" lon="22.0173159"><ele>101.0</ele><time>2026-04-28T09:54:26.031Z</time></trkpt><trkpt lat="39.3753522" lon="22.0174541"><ele>101.0</ele><time>2026-04-28T09:54:27.032Z</time></trkpt><trkpt lat="39.3753957" lon="22.0175924"><ele>101.0</ele><time>2026-04-28T09:54:28.032Z</time></trkpt><trkpt lat="39.3754307" lon="22.0177047"><ele>101.0</ele><time>2026-04-28T09:54:29.032Z</time></trkpt><trkpt lat="39.3754619" lon="22.0178034"><ele>101.0</ele><time>2026-04-28T09:54:30.032Z</time></trkpt><trkpt lat="39.3755055" lon="22.0179294"><ele>101.0</ele><time>2026-04-28T09:54:32.031Z</time></trkpt><trkpt lat="39.3755259" lon="22.0180279"><ele>101.0</ele><time>2026-04-28T09:54:34.032Z</time></trkpt><trkpt lat="39.3755155" lon="22.0181332"><ele>101.0</ele><time>2026-04-28T09:54:36.032Z</time></trkpt><trkpt lat="39.3754717" lon="22.018275"><ele>101.0</ele><time>2026-04-28T09:54:38.031Z</time></trkpt><trkpt lat="39.3754391" lon="22.0184235"><ele>101.0</ele><time>2026-04-28T09:54:40.031Z</time></trkpt><trkpt lat="39.3754387" lon="22.018572"><ele>101.0</ele><time>2026-04-28T09:54:42.031Z</time></trkpt><trkpt lat="39.3754277" lon="22.0187195"><ele>101.0</ele><time>2026-04-28T09:54:44.032Z</time></trkpt><trkpt lat="39.3753897" lon="22.0187984"><ele>101.0</ele><time>2026-04-28T09:54:45.031Z</time></trkpt><trkpt lat="39.3753225" lon="22.0188825"><ele>101.0</ele><time>2026-04-28T09:54:46.032Z</time></trkpt><trkpt lat="39.3752276" lon="22.0189735"><ele>101.0</ele><time>2026-04-28T09:54:47.032Z</time></trkpt><trkpt lat="39.3751006" lon="22.0190795"><ele>101.0</ele><time>2026-04-28T09:54:48.031Z</time></trkpt><trkpt lat="39.3749483" lon="22.0192024"><ele>101.0</ele><time>2026-04-28T09:54:49.031Z</time></trkpt><trkpt lat="39.374769" lon="22.0193455"><ele>101.5</ele><time>2026-04-28T09:54:50.031Z</time></trkpt><trkpt lat="39.374572" lon="22.0194986"><ele>102.0</ele><time>2026-04-28T09:54:51.032Z</time></trkpt><trkpt lat="39.3743478" lon="22.019672"><ele>102.0</ele><time>2026-04-28T09:54:52.032Z</time></trkpt><trkpt lat="39.3741151" lon="22.0198511"><ele>102.0</ele><time>2026-04-28T09:54:53.032Z</time></trkpt><trkpt lat="39.3738882" lon="22.0200142"><ele>102.5</ele><time>2026-04-28T09:54:54.032Z</time></trkpt><trkpt lat="39.3736687" lon="22.0201514"><ele>103.0</ele><time>2026-04-28T09:54:55.031Z</time></trkpt><trkpt lat="39.3734412" lon="22.0202595"><ele>103.0</ele><time>2026-04-28T09:54:56.032Z</time></trkpt><trkpt lat="39.3732133" lon="22.0203305"><ele>103.0</ele><time>2026-04-28T09:54:57.032Z</time></trkpt><trkpt lat="39.3729811" lon="22.0203691"><ele>103.5</ele><time>2026-04-28T09:54:58.032Z</time></trkpt><trkpt lat="39.3727477" lon="22.0203765"><ele>104.0</ele><time>2026-04-28T09:54:59.032Z</time></trkpt><trkpt lat="39.3725028" lon="22.0203616"><ele>104.0</ele><time>2026-04-28T09:55:00.031Z</time></trkpt><trkpt lat="39.3722591" lon="22.0203367"><ele>104.0</ele><time>2026-04-28T09:55:01.032Z</time></trkpt><trkpt lat="39.3720181" lon="22.0203121"><ele>103.0</ele><time>2026-04-28T09:55:02.031Z</time></trkpt><trkpt lat="39.3717829" lon="22.0202922"><ele>102.0</ele><time>2026-04-28T09:55:03.032Z</time></trkpt><trkpt lat="39.3715415" lon="22.0202855"><ele>102.5</ele><time>2026-04-28T09:55:04.032Z</time></trkpt><trkpt lat="39.3713052" lon="22.020302"><ele>103.0</ele><time>2026-04-28T09:55:05.031Z</time></trkpt><trkpt lat="39.3710704" lon="22.0203451"><ele>103.0</ele><time>2026-04-28T09:55:06.031Z</time></trkpt><trkpt lat="39.3708379" lon="22.0204133"><ele>103.0</ele><time>2026-04-28T09:55:07.031Z</time></trkpt><trkpt lat="39.3706039" lon="22.0205098"><ele>103.5</ele><time>2026-04-28T09:55:08.032Z</time></trkpt><trkpt lat="39.3703798" lon="22.0206352"><ele>104.0</ele><time>2026-04-28T09:55:09.031Z</time></trkpt><trkpt lat="39.3701635" lon="22.02079"><ele>103.5</ele><time>2026-04-28T09:55:10.031Z</time></trkpt><trkpt lat="39.3699625" lon="22.0209692"><ele>103.0</ele><time>2026-04-28T09:55:11.032Z</time></trkpt><trkpt lat="39.3697698" lon="22.0211812"><ele>103.0</ele><time>2026-04-28T09:55:12.032Z</time></trkpt><trkpt lat="39.369595" lon="22.0214172"><ele>103.0</ele><time>2026-04-28T09:55:13.032Z</time></trkpt><trkpt lat="39.3694321" lon="22.0216794"><ele>103.0</ele><time>2026-04-28T09:55:14.032Z</time></trkpt><trkpt lat="39.3692804" lon="22.0219615"><ele>103.0</ele><time>2026-04-28T09:55:15.032Z</time></trkpt><trkpt lat="39.3691309" lon="22.0222698"><ele>102.5</ele><time>2026-04-28T09:55:16.031Z</time></trkpt><trkpt lat="39.3689864" lon="22.0225842"><ele>102.0</ele><time>2026-04-28T09:55:17.031Z</time></trkpt><trkpt lat="39.3688424" lon="22.0229057"><ele>102.0</ele><time>2026-04-28T09:55:18.032Z</time></trkpt><trkpt lat="39.3687007" lon="22.0232286"><ele>102.0</ele><time>2026-04-28T09:55:19.032Z</time></trkpt><trkpt lat="39.3685537" lon="22.0235633"><ele>102.0</ele><time>2026-04-28T09:55:20.031Z</time></trkpt><trkpt lat="39.3684091" lon="22.0238872"><ele>102.0</ele><time>2026-04-28T09:55:21.031Z</time></trkpt><trkpt lat="39.3682638" lon="22.0242098"><ele>102.0</ele><time>2026-04-28T09:55:22.031Z</time></trkpt><trkpt lat="39.3681215" lon="22.0245235"><ele>102.0</ele><time>2026-04-28T09:55:23.032Z</time></trkpt><trkpt lat="39.3679742" lon="22.0248451"><ele>101.0</ele><time>2026-04-28T09:55:24.032Z</time></trkpt><trkpt lat="39.3678286" lon="22.0251592"><ele>100.0</ele><time>2026-04-28T09:55:25.032Z</time></trkpt><trkpt lat="39.3676827" lon="22.0254717"><ele>100.0</ele><time>2026-04-28T09:55:26.031Z</time></trkpt><trkpt lat="39.3675366" lon="22.0257832"><ele>100.0</ele><time>2026-04-28T09:55:27.031Z</time></trkpt><trkpt lat="39.3673871" lon="22.0261036"><ele>100.0</ele><time>2026-04-28T09:55:28.032Z</time></trkpt><trkpt lat="39.3672348" lon="22.0264301"><ele>100.0</ele><time>2026-04-28T09:55:29.032Z</time></trkpt><trkpt lat="39.3670825" lon="22.0267541"><ele>101.0</ele><time>2026-04-28T09:55:30.031Z</time></trkpt><trkpt lat="39.3669282" lon="22.0270839"><ele>102.0</ele><time>2026-04-28T09:55:31.031Z</time></trkpt><trkpt lat="39.3667724" lon="22.0274193"><ele>102.5</ele><time>2026-04-28T09:55:32.031Z</time></trkpt><trkpt lat="39.3666151" lon="22.0277601"><ele>103.0</ele><time>2026-04-28T09:55:33.032Z</time></trkpt><trkpt lat="39.3664568" lon="22.0281008"><ele>101.5</ele><time>2026-04-28T09:55:34.031Z</time></trkpt><trkpt lat="39.3663001" lon="22.0284367"><ele>100.0</ele><time>2026-04-28T09:55:35.032Z</time></trkpt><trkpt lat="39.3661387" lon="22.0287845"><ele>100.0</ele><time>2026-04-28T09:55:36.032Z</time></trkpt><trkpt lat="39.3659807" lon="22.0291248"><ele>100.0</ele><time>2026-04-28T09:55:37.031Z</time></trkpt><trkpt lat="39.3658238" lon="22.0294615"><ele>100.5</ele><time>2026-04-28T09:55:38.031Z</time></trkpt><trkpt lat="39.3656707" lon="22.0297904"><ele>101.0</ele><time>2026-04-28T09:55:39.032Z</time></trkpt><trkpt lat="39.3655128" lon="22.0301294"><ele>101.0</ele><time>2026-04-28T09:55:40.032Z</time></trkpt><trkpt lat="39.3653565" lon="22.0304656"><ele>101.0</ele><time>2026-04-28T09:55:41.032Z</time></trkpt><trkpt lat="39.3651982" lon="22.0308051"><ele>100.5</ele><time>2026-04-28T09:55:42.031Z</time></trkpt><trkpt lat="39.3650417" lon="22.0311418"><ele>100.0</ele><time>2026-04-28T09:55:43.031Z</time></trkpt><trkpt lat="39.3648799" lon="22.0314882"><ele>99.5</ele><time>2026-04-28T09:55:44.032Z</time></trkpt><trkpt lat="39.3647168" lon="22.0318363"><ele>99.0</ele><time>2026-04-28T09:55:45.032Z</time></trkpt><trkpt lat="39.3645607" lon="22.0321702"><ele>100.5</ele><time>2026-04-28T09:55:46.031Z</time></trkpt><trkpt lat="39.3644053" lon="22.0325069"><ele>102.0</ele><time>2026-04-28T09:55:47.031Z</time></trkpt><trkpt lat="39.3642512" lon="22.0328396"><ele>102.0</ele><time>2026-04-28T09:55:48.031Z</time></trkpt><trkpt lat="39.3640958" lon="22.0331732"><ele>102.0</ele><time>2026-04-28T09:55:49.032Z</time></trkpt><trkpt lat="39.3639464" lon="22.033491"><ele>102.0</ele><time>2026-04-28T09:55:50.031Z</time></trkpt><trkpt lat="39.3637965" lon="22.0338082"><ele>102.0</ele><time>2026-04-28T09:55:51.032Z</time></trkpt><trkpt lat="39.3636485" lon="22.0341207"><ele>102.5</ele><time>2026-04-28T09:55:52.032Z</time></trkpt><trkpt lat="39.3634997" lon="22.0344336"><ele>103.0</ele><time>2026-04-28T09:55:53.032Z</time></trkpt><trkpt lat="39.3633566" lon="22.0347323"><ele>102.5</ele><time>2026-04-28T09:55:54.032Z</time></trkpt><trkpt lat="39.3632125" lon="22.0350301"><ele>102.0</ele><time>2026-04-28T09:55:55.032Z</time></trkpt><trkpt lat="39.3630709" lon="22.0353219"><ele>101.5</ele><time>2026-04-28T09:55:56.032Z</time></trkpt><trkpt lat="39.3629312" lon="22.0356125"><ele>101.0</ele><time>2026-04-28T09:55:57.032Z</time></trkpt><trkpt lat="39.3627931" lon="22.0359024"><ele>101.0</ele><time>2026-04-28T09:55:58.032Z</time></trkpt><trkpt lat="39.3626578" lon="22.0361875"><ele>101.0</ele><time>2026-04-28T09:55:59.032Z</time></trkpt><trkpt lat="39.3625204" lon="22.036477"><ele>101.0</ele><time>2026-04-28T09:56:00.032Z</time></trkpt><trkpt lat="39.3623862" lon="22.0367607"><ele>101.0</ele><time>2026-04-28T09:56:01.031Z</time></trkpt><trkpt lat="39.3622587" lon="22.0370343"><ele>101.5</ele><time>2026-04-28T09:56:02.032Z</time></trkpt><trkpt lat="39.362132" lon="22.0373107"><ele>102.0</ele><time>2026-04-28T09:56:03.031Z</time></trkpt><trkpt lat="39.3620003" lon="22.0375952"><ele>102.0</ele><time>2026-04-28T09:56:04.031Z</time></trkpt><trkpt lat="39.3618688" lon="22.0378766"><ele>102.0</ele><time>2026-04-28T09:56:05.032Z</time></trkpt><trkpt lat="39.3617355" lon="22.038159"><ele>102.5</ele><time>2026-04-28T09:56:06.032Z</time></trkpt><trkpt lat="39.3616026" lon="22.0384415"><ele>103.0</ele><time>2026-04-28T09:56:07.031Z</time></trkpt><trkpt lat="39.3614674" lon="22.0387301"><ele>103.0</ele><time>2026-04-28T09:56:08.031Z</time></trkpt><trkpt lat="39.3613281" lon="22.0390269"><ele>103.0</ele><time>2026-04-28T09:56:09.031Z</time></trkpt><trkpt lat="39.3611917" lon="22.0393183"><ele>103.0</ele><time>2026-04-28T09:56:10.031Z</time></trkpt><trkpt lat="39.3610528" lon="22.0396204"><ele>103.0</ele><time>2026-04-28T09:56:11.032Z</time></trkpt><trkpt lat="39.3609126" lon="22.0399269"><ele>103.5</ele><time>2026-04-28T09:56:12.031Z</time></trkpt><trkpt lat="39.3607675" lon="22.0402384"><ele>104.0</ele><time>2026-04-28T09:56:13.032Z</time></trkpt><trkpt lat="39.3606257" lon="22.0405406"><ele>103.5</ele><time>2026-04-28T09:56:14.031Z</time></trkpt><trkpt lat="39.3604817" lon="22.0408477"><ele>103.0</ele><time>2026-04-28T09:56:15.032Z</time></trkpt><trkpt lat="39.3603387" lon="22.0411541"><ele>103.0</ele><time>2026-04-28T09:56:16.032Z</time></trkpt><trkpt lat="39.3601943" lon="22.0414647"><ele>103.0</ele><time>2026-04-28T09:56:17.031Z</time></trkpt><trkpt lat="39.3600546" lon="22.0417636"><ele>103.0</ele><time>2026-04-28T09:56:18.032Z</time></trkpt><trkpt lat="39.3599124" lon="22.0420659"><ele>103.0</ele><time>2026-04-28T09:56:19.031Z</time></trkpt><trkpt lat="39.3597694" lon="22.0423681"><ele>103.0</ele><time>2026-04-28T09:56:20.032Z</time></trkpt><trkpt lat="39.3596284" lon="22.0426676"><ele>103.0</ele><time>2026-04-28T09:56:21.031Z</time></trkpt><trkpt lat="39.3594884" lon="22.0429662"><ele>103.0</ele><time>2026-04-28T09:56:22.031Z</time></trkpt><trkpt lat="39.3593514" lon="22.043258"><ele>103.0</ele><time>2026-04-28T09:56:23.032Z</time></trkpt><trkpt lat="39.3592125" lon="22.0435564"><ele>103.0</ele><time>2026-04-28T09:56:24.031Z</time></trkpt><trkpt lat="39.3590735" lon="22.043856"><ele>103.0</ele><time>2026-04-28T09:56:25.032Z</time></trkpt><trkpt lat="39.3589373" lon="22.0441473"><ele>103.0</ele><time>2026-04-28T09:56:26.031Z</time></trkpt><trkpt lat="39.358801" lon="22.0444365"><ele>103.0</ele><time>2026-04-28T09:56:27.031Z</time></trkpt><trkpt lat="39.3586607" lon="22.0447366"><ele>102.5</ele><time>2026-04-28T09:56:28.031Z</time></trkpt><trkpt lat="39.358522" lon="22.0450383"><ele>102.0</ele><time>2026-04-28T09:56:29.032Z</time></trkpt><trkpt lat="39.3583868" lon="22.0453313"><ele>102.0</ele><time>2026-04-28T09:56:30.031Z</time></trkpt><trkpt lat="39.3582503" lon="22.0456314"><ele>102.0</ele><time>2026-04-28T09:56:31.031Z</time></trkpt><trkpt lat="39.3581144" lon="22.0459298"><ele>102.5</ele><time>2026-04-28T09:56:32.032Z</time></trkpt><trkpt lat="39.3579758" lon="22.0462307"><ele>103.0</ele><time>2026-04-28T09:56:33.032Z</time></trkpt><trkpt lat="39.3578393" lon="22.0465184"><ele>104.0</ele><time>2026-04-28T09:56:34.032Z</time></trkpt><trkpt lat="39.3577023" lon="22.0468098"><ele>105.0</ele><time>2026-04-28T09:56:35.032Z</time></trkpt><trkpt lat="39.3575662" lon="22.0471005"><ele>105.0</ele><time>2026-04-28T09:56:36.032Z</time></trkpt><trkpt lat="39.357428" lon="22.0473974"><ele>105.0</ele><time>2026-04-28T09:56:37.031Z</time></trkpt><trkpt lat="39.3572942" lon="22.0476844"><ele>104.5</ele><time>2026-04-28T09:56:38.032Z</time></trkpt><trkpt lat="39.3571593" lon="22.0479755"><ele>104.0</ele><time>2026-04-28T09:56:39.032Z</time></trkpt><trkpt lat="39.3570271" lon="22.0482681"><ele>104.0</ele><time>2026-04-28T09:56:40.031Z</time></trkpt><trkpt lat="39.3568964" lon="22.048568"><ele>104.0</ele><time>2026-04-28T09:56:41.031Z</time></trkpt><trkpt lat="39.3567746" lon="22.0488639"><ele>105.0</ele><time>2026-04-28T09:56:42.032Z</time></trkpt><trkpt lat="39.3566592" lon="22.0491609"><ele>106.0</ele><time>2026-04-28T09:56:43.032Z</time></trkpt><trkpt lat="39.3565467" lon="22.0494676"><ele>106.0</ele><time>2026-04-28T09:56:44.031Z</time></trkpt><trkpt lat="39.3564378" lon="22.0497791"><ele>106.0</ele><time>2026-04-28T09:56:45.031Z</time></trkpt><trkpt lat="39.3563359" lon="22.0500811"><ele>106.0</ele><time>2026-04-28T09:56:46.031Z</time></trkpt><trkpt lat="39.356234" lon="22.0503901"><ele>106.0</ele><time>2026-04-28T09:56:47.031Z</time></trkpt><trkpt lat="39.356132" lon="22.0507003"><ele>105.5</ele><time>2026-04-28T09:56:48.031Z</time></trkpt><trkpt lat="39.3560278" lon="22.0510189"><ele>105.0</ele><time>2026-04-28T09:56:49.031Z</time></trkpt><trkpt lat="39.3559271" lon="22.0513302"><ele>105.0</ele><time>2026-04-28T09:56:50.032Z</time></trkpt><trkpt lat="39.3558236" lon="22.051649"><ele>105.0</ele><time>2026-04-28T09:56:51.032Z</time></trkpt><trkpt lat="39.3557209" lon="22.0519668"><ele>105.0</ele><time>2026-04-28T09:56:52.032Z</time></trkpt><trkpt lat="39.3556174" lon="22.0522882"><ele>105.0</ele><time>2026-04-28T09:56:53.032Z</time></trkpt><trkpt lat="39.3555171" lon="22.0525979"><ele>104.5</ele><time>2026-04-28T09:56:54.032Z</time></trkpt><trkpt lat="39.3554152" lon="22.0529132"><ele>104.0</ele><time>2026-04-28T09:56:55.031Z</time></trkpt><trkpt lat="39.3553124" lon="22.0532304"><ele>103.5</ele><time>2026-04-28T09:56:56.032Z</time></trkpt><trkpt lat="39.3552066" lon="22.0535555"><ele>103.0</ele><time>2026-04-28T09:56:57.031Z</time></trkpt><trkpt lat="39.3551041" lon="22.0538732"><ele>104.0</ele><time>2026-04-28T09:56:58.032Z</time></trkpt><trkpt lat="39.3550012" lon="22.0541977"><ele>105.0</ele><time>2026-04-28T09:56:59.032Z</time></trkpt><trkpt lat="39.3548991" lon="22.0545221"><ele>105.0</ele><time>2026-04-28T09:57:00.031Z</time></trkpt><trkpt lat="39.3547944" lon="22.0548508"><ele>105.0</ele><time>2026-04-28T09:57:01.032Z</time></trkpt><trkpt lat="39.3546922" lon="22.0551678"><ele>105.5</ele><time>2026-04-28T09:57:02.031Z</time></trkpt><trkpt lat="39.3545887" lon="22.0554887"><ele>106.0</ele><time>2026-04-28T09:57:03.031Z</time></trkpt><trkpt lat="39.3544861" lon="22.055809"><ele>105.0</ele><time>2026-04-28T09:57:04.031Z</time></trkpt><trkpt lat="39.3543812" lon="22.0561346"><ele>104.0</ele><time>2026-04-28T09:57:05.032Z</time></trkpt><trkpt lat="39.3542775" lon="22.0564515"><ele>104.0</ele><time>2026-04-28T09:57:06.032Z</time></trkpt><trkpt lat="39.3541692" lon="22.0567735"><ele>104.0</ele><time>2026-04-28T09:57:07.032Z</time></trkpt><trkpt lat="39.3540571" lon="22.0570936"><ele>104.0</ele><time>2026-04-28T09:57:08.032Z</time></trkpt><trkpt lat="39.3539358" lon="22.0574131"><ele>104.0</ele><time>2026-04-28T09:57:09.031Z</time></trkpt><trkpt lat="39.353811" lon="22.0577167"><ele>105.0</ele><time>2026-04-28T09:57:10.031Z</time></trkpt><trkpt lat="39.353679" lon="22.058022"><ele>106.0</ele><time>2026-04-28T09:57:11.031Z</time></trkpt><trkpt lat="39.3535449" lon="22.0583256"><ele>106.0</ele><time>2026-04-28T09:57:12.031Z</time></trkpt><trkpt lat="39.3534079" lon="22.0586324"><ele>106.0</ele><time>2026-04-28T09:57:13.032Z</time></trkpt><trkpt lat="39.3532743" lon="22.0589276"><ele>106.5</ele><time>2026-04-28T09:57:14.031Z</time></trkpt><trkpt lat="39.3531392" lon="22.0592265"><ele>107.0</ele><time>2026-04-28T09:57:15.031Z</time></trkpt><trkpt lat="39.3530037" lon="22.0595237"><ele>107.0</ele><time>2026-04-28T09:57:16.032Z</time></trkpt><trkpt lat="39.3528665" lon="22.0598259"><ele>107.0</ele><time>2026-04-28T09:57:17.032Z</time></trkpt><trkpt lat="39.352734" lon="22.0601194"><ele>106.5</ele><time>2026-04-28T09:57:18.032Z</time></trkpt><trkpt lat="39.3525987" lon="22.0604189"><ele>106.0</ele><time>2026-04-28T09:57:19.031Z</time></trkpt><trkpt lat="39.3524607" lon="22.0607219"><ele>106.5</ele><time>2026-04-28T09:57:20.032Z</time></trkpt><trkpt lat="39.3523179" lon="22.0610329"><ele>107.0</ele><time>2026-04-28T09:57:21.031Z</time></trkpt><trkpt lat="39.352178" lon="22.0613383"><ele>106.5</ele><time>2026-04-28T09:57:22.031Z</time></trkpt><trkpt lat="39.3520345" lon="22.0616528"><ele>106.0</ele><time>2026-04-28T09:57:23.031Z</time></trkpt><trkpt lat="39.3518896" lon="22.0619733"><ele>106.0</ele><time>2026-04-28T09:57:24.031Z</time></trkpt><trkpt lat="39.3517422" lon="22.0623034"><ele>106.0</ele><time>2026-04-28T09:57:25.031Z</time></trkpt><trkpt lat="39.3515997" lon="22.0626256"><ele>106.0</ele><time>2026-04-28T09:57:26.032Z</time></trkpt><trkpt lat="39.3514557" lon="22.0629536"><ele>106.0</ele><time>2026-04-28T09:57:27.032Z</time></trkpt><trkpt lat="39.3513125" lon="22.0632811"><ele>106.0</ele><time>2026-04-28T09:57:28.031Z</time></trkpt><trkpt lat="39.3511666" lon="22.0636106"><ele>106.0</ele><time>2026-04-28T09:57:29.031Z</time></trkpt><trkpt lat="39.3510256" lon="22.0639265"><ele>106.0</ele><time>2026-04-28T09:57:30.031Z</time></trkpt><trkpt lat="39.3508837" lon="22.0642467"><ele>106.0</ele><time>2026-04-28T09:57:31.032Z</time></trkpt><trkpt lat="39.350742" lon="22.0645631"><ele>106.0</ele><time>2026-04-28T09:57:32.032Z</time></trkpt><trkpt lat="39.3505995" lon="22.0648827"><ele>106.0</ele><time>2026-04-28T09:57:33.031Z</time></trkpt><trkpt lat="39.3504625" lon="22.0651906"><ele>106.0</ele><time>2026-04-28T09:57:34.032Z</time></trkpt><trkpt lat="39.3503232" lon="22.065501"><ele>106.0</ele><time>2026-04-28T09:57:35.031Z</time></trkpt><trkpt lat="39.3501831" lon="22.0658115"><ele>106.5</ele><time>2026-04-28T09:57:36.032Z</time></trkpt><trkpt lat="39.3500398" lon="22.0661274"><ele>107.0</ele><time>2026-04-28T09:57:37.031Z</time></trkpt><trkpt lat="39.3499003" lon="22.066433"><ele>107.0</ele><time>2026-04-28T09:57:38.031Z</time></trkpt><trkpt lat="39.3497585" lon="22.0667438"><ele>107.0</ele><time>2026-04-28T09:57:39.032Z</time></trkpt><trkpt lat="39.3496176" lon="22.0670548"><ele>106.0</ele><time>2026-04-28T09:57:40.032Z</time></trkpt><trkpt lat="39.3494754" lon="22.0673703"><ele>105.0</ele><time>2026-04-28T09:57:41.032Z</time></trkpt><trkpt lat="39.3493375" lon="22.0676747"><ele>105.0</ele><time>2026-04-28T09:57:42.032Z</time></trkpt><trkpt lat="39.3491978" lon="22.067983"><ele>105.0</ele><time>2026-04-28T09:57:43.032Z</time></trkpt><trkpt lat="39.3490584" lon="22.0682897"><ele>105.0</ele><time>2026-04-28T09:57:44.032Z</time></trkpt><trkpt lat="39.348917" lon="22.0685997"><ele>105.0</ele><time>2026-04-28T09:57:45.032Z</time></trkpt><trkpt lat="39.34878" lon="22.0688981"><ele>105.0</ele><time>2026-04-28T09:57:46.031Z</time></trkpt><trkpt lat="39.3486406" lon="22.0692001"><ele>105.0</ele><time>2026-04-28T09:57:47.032Z</time></trkpt><trkpt lat="39.3485024" lon="22.0695021"><ele>105.0</ele><time>2026-04-28T09:57:48.031Z</time></trkpt><trkpt lat="39.3483624" lon="22.0698088"><ele>105.0</ele><time>2026-04-28T09:57:49.031Z</time></trkpt><trkpt lat="39.348227" lon="22.0701078"><ele>105.0</ele><time>2026-04-28T09:57:50.031Z</time></trkpt><trkpt lat="39.3480885" lon="22.070414"><ele>105.0</ele><time>2026-04-28T09:57:51.032Z</time></trkpt><trkpt lat="39.347949" lon="22.0707216"><ele>105.5</ele><time>2026-04-28T09:57:52.031Z</time></trkpt><trkpt lat="39.3478062" lon="22.0710355"><ele>106.0</ele><time>2026-04-28T09:57:53.031Z</time></trkpt><trkpt lat="39.3476674" lon="22.0713394"><ele>106.5</ele><time>2026-04-28T09:57:54.032Z</time></trkpt><trkpt lat="39.3475257" lon="22.0716481"><ele>107.0</ele><time>2026-04-28T09:57:55.032Z</time></trkpt><trkpt lat="39.3473845" lon="22.0719556"><ele>107.0</ele><time>2026-04-28T09:57:56.032Z</time></trkpt><trkpt lat="39.3472428" lon="22.0722674"><ele>107.0</ele><time>2026-04-28T09:57:57.031Z</time></trkpt><trkpt lat="39.3471068" lon="22.0725681"><ele>106.5</ele><time>2026-04-28T09:57:58.032Z</time></trkpt><trkpt lat="39.3469693" lon="22.0728726"><ele>106.0</ele><time>2026-04-28T09:57:59.031Z</time></trkpt><trkpt lat="39.346832" lon="22.0731757"><ele>106.0</ele><time>2026-04-28T09:58:00.031Z</time></trkpt><trkpt lat="39.3466934" lon="22.0734822"><ele>106.0</ele><time>2026-04-28T09:58:01.032Z</time></trkpt><trkpt lat="39.3465599" lon="22.0737774"><ele>106.0</ele><time>2026-04-28T09:58:02.032Z</time></trkpt><trkpt lat="39.3464245" lon="22.074076"><ele>106.0</ele><time>2026-04-28T09:58:03.032Z</time></trkpt><trkpt lat="39.346289" lon="22.0743754"><ele>106.0</ele><time>2026-04-28T09:58:04.032Z</time></trkpt><trkpt lat="39.3461513" lon="22.0746804"><ele>106.0</ele><time>2026-04-28T09:58:05.032Z</time></trkpt><trkpt lat="39.3460179" lon="22.0749769"><ele>106.0</ele><time>2026-04-28T09:58:06.031Z</time></trkpt><trkpt lat="39.3458821" lon="22.075279"><ele>106.0</ele><time>2026-04-28T09:58:07.032Z</time></trkpt><trkpt lat="39.3457457" lon="22.0755807"><ele>105.5</ele><time>2026-04-28T09:58:08.032Z</time></trkpt><trkpt lat="39.3456075" lon="22.0758835"><ele>105.0</ele><time>2026-04-28T09:58:09.031Z</time></trkpt><trkpt lat="39.3454743" lon="22.0761714"><ele>105.0</ele><time>2026-04-28T09:58:10.032Z</time></trkpt><trkpt lat="39.3453424" lon="22.0764557"><ele>105.0</ele><time>2026-04-28T09:58:11.031Z</time></trkpt><trkpt lat="39.3452156" lon="22.0767341"><ele>105.0</ele><time>2026-04-28T09:58:12.032Z</time></trkpt><trkpt lat="39.3450886" lon="22.0770136"><ele>105.0</ele><time>2026-04-28T09:58:13.031Z</time></trkpt><trkpt lat="39.3449655" lon="22.0772823"><ele>105.5</ele><time>2026-04-28T09:58:14.032Z</time></trkpt><trkpt lat="39.3448389" lon="22.0775568"><ele>106.0</ele><time>2026-04-28T09:58:15.032Z</time></trkpt><trkpt lat="39.3447095" lon="22.0778349"><ele>106.0</ele><time>2026-04-28T09:58:16.031Z</time></trkpt><trkpt lat="39.3445742" lon="22.0781214"><ele>106.0</ele><time>2026-04-28T09:58:17.031Z</time></trkpt><trkpt lat="39.3444409" lon="22.0784019"><ele>106.5</ele><time>2026-04-28T09:58:18.032Z</time></trkpt><trkpt lat="39.3443053" lon="22.07869"><ele>107.0</ele><time>2026-04-28T09:58:19.031Z</time></trkpt><trkpt lat="39.3441706" lon="22.0789781"><ele>107.5</ele><time>2026-04-28T09:58:20.032Z</time></trkpt><trkpt lat="39.3440328" lon="22.0792678"><ele>108.0</ele><time>2026-04-28T09:58:21.031Z</time></trkpt><trkpt lat="39.3438971" lon="22.0795464"><ele>108.0</ele><time>2026-04-28T09:58:22.031Z</time></trkpt><trkpt lat="39.3437547" lon="22.0798229"><ele>108.0</ele><time>2026-04-28T09:58:23.032Z</time></trkpt><trkpt lat="39.3435996" lon="22.080083"><ele>108.0</ele><time>2026-04-28T09:58:24.032Z</time></trkpt><trkpt lat="39.3434258" lon="22.080324"><ele>108.0</ele><time>2026-04-28T09:58:25.032Z</time></trkpt><trkpt lat="39.3432399" lon="22.0805343"><ele>106.5</ele><time>2026-04-28T09:58:26.032Z</time></trkpt><trkpt lat="39.3430376" lon="22.0807248"><ele>105.0</ele><time>2026-04-28T09:58:27.032Z</time></trkpt><trkpt lat="39.342825" lon="22.0808915"><ele>105.0</ele><time>2026-04-28T09:58:28.031Z</time></trkpt><trkpt lat="39.3426" lon="22.0810407"><ele>105.0</ele><time>2026-04-28T09:58:29.031Z</time></trkpt><trkpt lat="39.3423748" lon="22.0811729"><ele>105.5</ele><time>2026-04-28T09:58:30.031Z</time></trkpt><trkpt lat="39.3421429" lon="22.0813027"><ele>106.0</ele><time>2026-04-28T09:58:31.032Z</time></trkpt><trkpt lat="39.3419117" lon="22.0814313"><ele>106.0</ele><time>2026-04-28T09:58:32.032Z</time></trkpt><trkpt lat="39.3416801" lon="22.0815632"><ele>106.0</ele><time>2026-04-28T09:58:33.031Z</time></trkpt><trkpt lat="39.341459" lon="22.0816901"><ele>106.0</ele><time>2026-04-28T09:58:34.032Z</time></trkpt><trkpt lat="39.341236" lon="22.081815"><ele>106.0</ele><time>2026-04-28T09:58:35.031Z</time></trkpt><trkpt lat="39.34101" lon="22.0819388"><ele>106.0</ele><time>2026-04-28T09:58:36.032Z</time></trkpt><trkpt lat="39.340777" lon="22.0820657"><ele>106.0</ele><time>2026-04-28T09:58:37.031Z</time></trkpt><trkpt lat="39.3405493" lon="22.08219"><ele>106.5</ele><time>2026-04-28T09:58:38.032Z</time></trkpt><trkpt lat="39.3403163" lon="22.0823169"><ele>107.0</ele><time>2026-04-28T09:58:39.032Z</time></trkpt><trkpt lat="39.3400829" lon="22.082444"><ele>107.5</ele><time>2026-04-28T09:58:40.031Z</time></trkpt><trkpt lat="39.3398468" lon="22.0825741"><ele>108.0</ele><time>2026-04-28T09:58:41.031Z</time></trkpt><trkpt lat="39.3396198" lon="22.0827008"><ele>108.0</ele><time>2026-04-28T09:58:42.032Z</time></trkpt><trkpt lat="39.3393907" lon="22.0828314"><ele>108.0</ele><time>2026-04-28T09:58:43.031Z</time></trkpt><trkpt lat="39.3391625" lon="22.0829618"><ele>108.0</ele><time>2026-04-28T09:58:44.032Z</time></trkpt><trkpt lat="39.3389316" lon="22.0830939"><ele>108.0</ele><time>2026-04-28T09:58:45.032Z</time></trkpt><trkpt lat="39.3387099" lon="22.0832215"><ele>107.5</ele><time>2026-04-28T09:58:46.032Z</time></trkpt><trkpt lat="39.338487" lon="22.0833491"><ele>107.0</ele><time>2026-04-28T09:58:47.032Z</time></trkpt><trkpt lat="39.3382655" lon="22.0834741"><ele>107.0</ele><time>2026-04-28T09:58:48.031Z</time></trkpt><trkpt lat="39.3380407" lon="22.0836011"><ele>107.0</ele><time>2026-04-28T09:58:49.032Z</time></trkpt><trkpt lat="39.3378218" lon="22.0837254"><ele>107.0</ele><time>2026-04-28T09:58:50.032Z</time></trkpt><trkpt lat="39.337597" lon="22.0838519"><ele>107.0</ele><time>2026-04-28T09:58:51.031Z</time></trkpt><trkpt lat="39.3373699" lon="22.0839774"><ele>107.5</ele><time>2026-04-28T09:58:52.031Z</time></trkpt><trkpt lat="39.3371381" lon="22.0841028"><ele>108.0</ele><time>2026-04-28T09:58:53.032Z</time></trkpt><trkpt lat="39.3369131" lon="22.0842244"><ele>108.0</ele><time>2026-04-28T09:58:54.031Z</time></trkpt><trkpt lat="39.3366847" lon="22.084349"><ele>108.0</ele><time>2026-04-28T09:58:55.032Z</time></trkpt><trkpt lat="39.336456" lon="22.0844743"><ele>108.0</ele><time>2026-04-28T09:58:56.032Z</time></trkpt><trkpt lat="39.3362238" lon="22.0846018"><ele>108.0</ele><time>2026-04-28T09:58:57.031Z</time></trkpt><trkpt lat="39.3359989" lon="22.0847254"><ele>108.0</ele><time>2026-04-28T09:58:58.032Z</time></trkpt><trkpt lat="39.3357702" lon="22.08485"><ele>108.0</ele><time>2026-04-28T09:58:59.031Z</time></trkpt><trkpt lat="39.335542" lon="22.0849747"><ele>108.0</ele><time>2026-04-28T09:59:00.032Z</time></trkpt><trkpt lat="39.3353105" lon="22.0851014"><ele>108.0</ele><time>2026-04-28T09:59:01.031Z</time></trkpt><trkpt lat="39.3350872" lon="22.0852254"><ele>108.0</ele><time>2026-04-28T09:59:02.031Z</time></trkpt><trkpt lat="39.3348613" lon="22.0853523"><ele>108.0</ele><time>2026-04-28T09:59:03.032Z</time></trkpt><trkpt lat="39.334636" lon="22.0854769"><ele>107.0</ele><time>2026-04-28T09:59:04.031Z</time></trkpt><trkpt lat="39.3344083" lon="22.0856013"><ele>106.0</ele><time>2026-04-28T09:59:05.032Z</time></trkpt><trkpt lat="39.334188" lon="22.0857193"><ele>106.0</ele><time>2026-04-28T09:59:06.031Z</time></trkpt><trkpt lat="39.3339654" lon="22.0858388"><ele>106.0</ele><time>2026-04-28T09:59:07.031Z</time></trkpt><trkpt lat="39.3337447" lon="22.0859602"><ele>107.0</ele><time>2026-04-28T09:59:08.032Z</time></trkpt><trkpt lat="39.3335234" lon="22.086083"><ele>108.0</ele><time>2026-04-28T09:59:09.031Z</time></trkpt><trkpt lat="39.3333186" lon="22.0861959"><ele>108.0</ele><time>2026-04-28T09:59:10.031Z</time></trkpt><trkpt lat="39.333127" lon="22.086301"><ele>108.0</ele><time>2026-04-28T09:59:11.032Z</time></trkpt><trkpt lat="39.3329427" lon="22.0864013"><ele>108.0</ele><time>2026-04-28T09:59:12.032Z</time></trkpt><trkpt lat="39.332751" lon="22.0865079"><ele>108.33333333333334</ele><time>2026-04-28T09:59:13.031Z</time></trkpt><trkpt lat="39.3325562" lon="22.0866167"><ele>108.66666666666667</ele><time>2026-04-28T09:59:14.031Z</time></trkpt><trkpt lat="39.3323476" lon="22.0867335"><ele>109.0</ele><time>2026-04-28T09:59:15.032Z</time></trkpt><trkpt lat="39.3321323" lon="22.0868541"><ele>108.0</ele><time>2026-04-28T09:59:16.032Z</time></trkpt><trkpt lat="39.331911" lon="22.086978"><ele>107.0</ele><time>2026-04-28T09:59:17.032Z</time></trkpt><trkpt lat="39.331696" lon="22.0871"><ele>107.0</ele><time>2026-04-28T09:59:18.032Z</time></trkpt><trkpt lat="39.3314745" lon="22.0872285"><ele>107.0</ele><time>2026-04-28T09:59:19.032Z</time></trkpt><trkpt lat="39.3312496" lon="22.0873584"><ele>107.0</ele><time>2026-04-28T09:59:20.031Z</time></trkpt><trkpt lat="39.3310184" lon="22.0874841"><ele>107.0</ele><time>2026-04-28T09:59:21.031Z</time></trkpt><trkpt lat="39.3307962" lon="22.0875977"><ele>107.0</ele><time>2026-04-28T09:59:22.031Z</time></trkpt><trkpt lat="39.3305746" lon="22.0877088"><ele>107.0</ele><time>2026-04-28T09:59:23.032Z</time></trkpt><trkpt lat="39.3303574" lon="22.0878218"><ele>108.0</ele><time>2026-04-28T09:59:24.031Z</time></trkpt><trkpt lat="39.3301411" lon="22.0879391"><ele>109.0</ele><time>2026-04-28T09:59:25.032Z</time></trkpt><trkpt lat="39.3299343" lon="22.0880548"><ele>109.0</ele><time>2026-04-28T09:59:26.032Z</time></trkpt><trkpt lat="39.3297268" lon="22.088178"><ele>109.0</ele><time>2026-04-28T09:59:27.032Z</time></trkpt><trkpt lat="39.3295236" lon="22.0883096"><ele>109.66666666666667</ele><time>2026-04-28T09:59:28.031Z</time></trkpt><trkpt lat="39.3293255" lon="22.0884553"><ele>110.33333333333334</ele><time>2026-04-28T09:59:29.032Z</time></trkpt><trkpt lat="39.3291477" lon="22.0886117"><ele>111.0</ele><time>2026-04-28T09:59:30.031Z</time></trkpt><trkpt lat="39.3289866" lon="22.0887897"><ele>110.33333333333334</ele><time>2026-04-28T09:59:31.032Z</time></trkpt><trkpt lat="39.3288463" lon="22.0889901"><ele>109.66666666666667</ele><time>2026-04-28T09:59:32.032Z</time></trkpt><trkpt lat="39.3287188" lon="22.0892142"><ele>109.0</ele><time>2026-04-28T09:59:33.031Z</time></trkpt><trkpt lat="39.3286049" lon="22.0894471"><ele>108.66666666666667</ele><time>2026-04-28T09:59:34.032Z</time></trkpt><trkpt lat="39.3284968" lon="22.0896932"><ele>108.33333333333334</ele><time>2026-04-28T09:59:35.032Z</time></trkpt><trkpt lat="39.3283943" lon="22.0899454"><ele>108.0</ele><time>2026-04-28T09:59:36.032Z</time></trkpt><trkpt lat="39.3282932" lon="22.0902071"><ele>108.0</ele><time>2026-04-28T09:59:37.032Z</time></trkpt><trkpt lat="39.3281979" lon="22.0904652"><ele>108.0</ele><time>2026-04-28T09:59:38.032Z</time></trkpt><trkpt lat="39.3281027" lon="22.0907324"><ele>108.0</ele><time>2026-04-28T09:59:39.031Z</time></trkpt><trkpt lat="39.3280082" lon="22.091001"><ele>108.5</ele><time>2026-04-28T09:59:40.032Z</time></trkpt><trkpt lat="39.3279117" lon="22.0912738"><ele>109.0</ele><time>2026-04-28T09:59:41.032Z</time></trkpt><trkpt lat="39.3278198" lon="22.0915387"><ele>110.0</ele><time>2026-04-28T09:59:42.031Z</time></trkpt><trkpt lat="39.3277276" lon="22.0918081"><ele>111.0</ele><time>2026-04-28T09:59:43.032Z</time></trkpt><trkpt lat="39.3276373" lon="22.0920743"><ele>111.0</ele><time>2026-04-28T09:59:44.032Z</time></trkpt><trkpt lat="39.3275452" lon="22.0923448"><ele>111.0</ele><time>2026-04-28T09:59:45.032Z</time></trkpt><trkpt lat="39.3274568" lon="22.0926046"><ele>111.0</ele><time>2026-04-28T09:59:46.031Z</time></trkpt><trkpt lat="39.3273673" lon="22.0928684"><ele>111.0</ele><time>2026-04-28T09:59:47.032Z</time></trkpt><trkpt lat="39.3272787" lon="22.0931281"><ele>111.0</ele><time>2026-04-28T09:59:48.031Z</time></trkpt><trkpt lat="39.3271885" lon="22.0933865"><ele>111.0</ele><time>2026-04-28T09:59:49.032Z</time></trkpt><trkpt lat="39.3271039" lon="22.0936331"><ele>110.33333333333334</ele><time>2026-04-28T09:59:50.031Z</time></trkpt><trkpt lat="39.3270189" lon="22.0938787"><ele>109.66666666666667</ele><time>2026-04-28T09:59:51.032Z</time></trkpt><trkpt lat="39.3269348" lon="22.0941195"><ele>109.0</ele><time>2026-04-28T09:59:52.031Z</time></trkpt><trkpt lat="39.3268491" lon="22.094363"><ele>109.0</ele><time>2026-04-28T09:59:53.031Z</time></trkpt><trkpt lat="39.3267653" lon="22.0945997"><ele>109.0</ele><time>2026-04-28T09:59:54.032Z</time></trkpt><trkpt lat="39.3266804" lon="22.0948447"><ele>109.0</ele><time>2026-04-28T09:59:55.031Z</time></trkpt><trkpt lat="39.3265955" lon="22.0950917"><ele>108.66666666666667</ele><time>2026-04-28T09:59:56.032Z</time></trkpt><trkpt lat="39.3265096" lon="22.095345"><ele>108.33333333333334</ele><time>2026-04-28T09:59:57.031Z</time></trkpt><trkpt lat="39.3264255" lon="22.0955905"><ele>108.0</ele><time>2026-04-28T09:59:58.032Z</time></trkpt><trkpt lat="39.3263397" lon="22.0958388"><ele>108.0</ele><time>2026-04-28T09:59:59.031Z</time></trkpt><trkpt lat="39.3262542" lon="22.0960846"><ele>108.0</ele><time>2026-04-28T10:00:00.032Z</time></trkpt><trkpt lat="39.3261683" lon="22.0963312"><ele>108.0</ele><time>2026-04-28T10:00:01.031Z</time></trkpt><trkpt lat="39.3260904" lon="22.0965592"><ele>108.66666666666666</ele><time>2026-04-28T10:00:02.032Z</time></trkpt><trkpt lat="39.3260148" lon="22.0967777"><ele>109.33333333333333</ele><time>2026-04-28T10:00:03.032Z</time></trkpt><trkpt lat="39.3259434" lon="22.0969841"><ele>110.0</ele><time>2026-04-28T10:00:04.031Z</time></trkpt><trkpt lat="39.3258748" lon="22.0971836"><ele>110.0</ele><time>2026-04-28T10:00:05.031Z</time></trkpt><trkpt lat="39.3258107" lon="22.0973709"><ele>110.0</ele><time>2026-04-28T10:00:06.032Z</time></trkpt><trkpt lat="39.325746" lon="22.0975588"><ele>110.0</ele><time>2026-04-28T10:00:07.031Z</time></trkpt><trkpt lat="39.3256784" lon="22.097752"><ele>109.66666666666666</ele><time>2026-04-28T10:00:08.032Z</time></trkpt><trkpt lat="39.3256075" lon="22.0979563"><ele>109.33333333333334</ele><time>2026-04-28T10:00:09.031Z</time></trkpt><trkpt lat="39.3255353" lon="22.0981649"><ele>109.0</ele><time>2026-04-28T10:00:10.031Z</time></trkpt><trkpt lat="39.3254594" lon="22.0983849"><ele>109.0</ele><time>2026-04-28T10:00:11.032Z</time></trkpt><trkpt lat="39.3253836" lon="22.0986064"><ele>109.0</ele><time>2026-04-28T10:00:12.032Z</time></trkpt><trkpt lat="39.3253076" lon="22.0988305"><ele>109.0</ele><time>2026-04-28T10:00:13.032Z</time></trkpt><trkpt lat="39.3252349" lon="22.0990451"><ele>109.0</ele><time>2026-04-28T10:00:14.032Z</time></trkpt><trkpt lat="39.3251604" lon="22.0992597"><ele>109.0</ele><time>2026-04-28T10:00:15.031Z</time></trkpt><trkpt lat="39.3250867" lon="22.0994715"><ele>109.0</ele><time>2026-04-28T10:00:16.031Z</time></trkpt><trkpt lat="39.3250158" lon="22.0996856"><ele>109.0</ele><time>2026-04-28T10:00:17.031Z</time></trkpt><trkpt lat="39.3249496" lon="22.0998969"><ele>109.0</ele><time>2026-04-28T10:00:18.031Z</time></trkpt><trkpt lat="39.3248821" lon="22.1001218"><ele>109.0</ele><time>2026-04-28T10:00:19.031Z</time></trkpt><trkpt lat="39.3248157" lon="22.1003552"><ele>109.33333333333334</ele><time>2026-04-28T10:00:20.032Z</time></trkpt><trkpt lat="39.3247512" lon="22.1005991"><ele>109.66666666666666</ele><time>2026-04-28T10:00:21.031Z</time></trkpt><trkpt lat="39.3246905" lon="22.100835"><ele>110.0</ele><time>2026-04-28T10:00:22.031Z</time></trkpt><trkpt lat="39.3246309" lon="22.1010714"><ele>110.0</ele><time>2026-04-28T10:00:23.032Z</time></trkpt><trkpt lat="39.3245713" lon="22.1013102"><ele>110.0</ele><time>2026-04-28T10:00:24.032Z</time></trkpt><trkpt lat="39.3245111" lon="22.1015523"><ele>110.0</ele><time>2026-04-28T10:00:25.031Z</time></trkpt><trkpt lat="39.3244507" lon="22.1017898"><ele>110.0</ele><time>2026-04-28T10:00:26.032Z</time></trkpt><trkpt lat="39.3243889" lon="22.1020316"><ele>110.0</ele><time>2026-04-28T10:00:27.031Z</time></trkpt><trkpt lat="39.324327" lon="22.1022737"><ele>110.0</ele><time>2026-04-28T10:00:28.031Z</time></trkpt><trkpt lat="39.3242648" lon="22.1025197"><ele>110.0</ele><time>2026-04-28T10:00:29.031Z</time></trkpt><trkpt lat="39.3242043" lon="22.1027589"><ele>110.0</ele><time>2026-04-28T10:00:30.031Z</time></trkpt><trkpt lat="39.3241428" lon="22.1030085"><ele>110.0</ele><time>2026-04-28T10:00:31.032Z</time></trkpt><trkpt lat="39.3240808" lon="22.1032671"><ele>110.0</ele><time>2026-04-28T10:00:32.032Z</time></trkpt><trkpt lat="39.324016" lon="22.1035325"><ele>110.0</ele><time>2026-04-28T10:00:33.031Z</time></trkpt><trkpt lat="39.3239501" lon="22.1037848"><ele>110.0</ele><time>2026-04-28T10:00:34.032Z</time></trkpt><trkpt lat="39.3238833" lon="22.1040412"><ele>109.66666666666666</ele><time>2026-04-28T10:00:35.032Z</time></trkpt><trkpt lat="39.3238197" lon="22.1042949"><ele>109.33333333333334</ele><time>2026-04-28T10:00:36.032Z</time></trkpt><trkpt lat="39.3237589" lon="22.1045509"><ele>109.0</ele><time>2026-04-28T10:00:37.031Z</time></trkpt><trkpt lat="39.3236998" lon="22.1048004"><ele>108.33333333333334</ele><time>2026-04-28T10:00:38.031Z</time></trkpt><trkpt lat="39.3236386" lon="22.1050593"><ele>107.66666666666666</ele><time>2026-04-28T10:00:39.032Z</time></trkpt><trkpt lat="39.3235759" lon="22.1053259"><ele>107.0</ele><time>2026-04-28T10:00:40.032Z</time></trkpt><trkpt lat="39.3235094" lon="22.1056054"><ele>107.33333333333333</ele><time>2026-04-28T10:00:41.032Z</time></trkpt><trkpt lat="39.323441" lon="22.1058779"><ele>107.66666666666666</ele><time>2026-04-28T10:00:42.032Z</time></trkpt><trkpt lat="39.3233688" lon="22.1061513"><ele>108.0</ele><time>2026-04-28T10:00:43.032Z</time></trkpt><trkpt lat="39.3232943" lon="22.1064222"><ele>109.33333333333334</ele><time>2026-04-28T10:00:44.032Z</time></trkpt><trkpt lat="39.3232176" lon="22.1066927"><ele>110.66666666666667</ele><time>2026-04-28T10:00:45.031Z</time></trkpt><trkpt lat="39.3231435" lon="22.1069503"><ele>112.0</ele><time>2026-04-28T10:00:46.032Z</time></trkpt><trkpt lat="39.3230706" lon="22.1072082"><ele>111.0</ele><time>2026-04-28T10:00:47.032Z</time></trkpt><trkpt lat="39.3230018" lon="22.1074604"><ele>110.0</ele><time>2026-04-28T10:00:48.032Z</time></trkpt><trkpt lat="39.3229342" lon="22.1077146"><ele>109.0</ele><time>2026-04-28T10:00:49.032Z</time></trkpt><trkpt lat="39.3228687" lon="22.1079579"><ele>109.0</ele><time>2026-04-28T10:00:50.031Z</time></trkpt><trkpt lat="39.3227972" lon="22.1082056"><ele>109.0</ele><time>2026-04-28T10:00:51.032Z</time></trkpt><trkpt lat="39.3227188" lon="22.1084509"><ele>109.0</ele><time>2026-04-28T10:00:52.032Z</time></trkpt><trkpt lat="39.322631" lon="22.1087008"><ele>109.66666666666667</ele><time>2026-04-28T10:00:53.031Z</time></trkpt><trkpt lat="39.3225345" lon="22.10894"><ele>110.33333333333334</ele><time>2026-04-28T10:00:54.032Z</time></trkpt><trkpt lat="39.3224227" lon="22.1091727"><ele>111.0</ele><time>2026-04-28T10:00:55.032Z</time></trkpt><trkpt lat="39.3222975" lon="22.1093961"><ele>110.66666666666666</ele><time>2026-04-28T10:00:56.032Z</time></trkpt><trkpt lat="39.3221594" lon="22.1096141"><ele>110.33333333333333</ele><time>2026-04-28T10:00:57.032Z</time></trkpt><trkpt lat="39.3220158" lon="22.1098186"><ele>110.0</ele><time>2026-04-28T10:00:58.032Z</time></trkpt><trkpt lat="39.3218604" lon="22.110018"><ele>109.66666666666666</ele><time>2026-04-28T10:00:59.031Z</time></trkpt><trkpt lat="39.3216966" lon="22.1102081"><ele>109.33333333333334</ele><time>2026-04-28T10:01:00.032Z</time></trkpt><trkpt lat="39.3215216" lon="22.1103905"><ele>109.0</ele><time>2026-04-28T10:01:01.032Z</time></trkpt><trkpt lat="39.3213457" lon="22.1105593"><ele>109.0</ele><time>2026-04-28T10:01:02.032Z</time></trkpt><trkpt lat="39.3211622" lon="22.1107282"><ele>109.0</ele><time>2026-04-28T10:01:03.031Z</time></trkpt><trkpt lat="39.3209753" lon="22.1108964"><ele>109.5</ele><time>2026-04-28T10:01:04.031Z</time></trkpt><trkpt lat="39.320778" lon="22.1110635"><ele>110.0</ele><time>2026-04-28T10:01:05.031Z</time></trkpt><trkpt lat="39.320575" lon="22.1112192"><ele>109.5</ele><time>2026-04-28T10:01:06.031Z</time></trkpt><trkpt lat="39.3203616" lon="22.1113798"><ele>109.0</ele><time>2026-04-28T10:01:07.032Z</time></trkpt><trkpt lat="39.3201445" lon="22.1115561"><ele>108.5</ele><time>2026-04-28T10:01:08.032Z</time></trkpt><trkpt lat="39.3199209" lon="22.1117517"><ele>108.0</ele><time>2026-04-28T10:01:09.032Z</time></trkpt><trkpt lat="39.3196997" lon="22.1119565"><ele>109.0</ele><time>2026-04-28T10:01:10.032Z</time></trkpt><trkpt lat="39.3194721" lon="22.1121723"><ele>110.0</ele><time>2026-04-28T10:01:11.032Z</time></trkpt><trkpt lat="39.3192401" lon="22.112393"><ele>110.0</ele><time>2026-04-28T10:01:12.031Z</time></trkpt><trkpt lat="39.3190019" lon="22.1126199"><ele>110.0</ele><time>2026-04-28T10:01:13.032Z</time></trkpt><trkpt lat="39.3187664" lon="22.1128414"><ele>109.5</ele><time>2026-04-28T10:01:14.031Z</time></trkpt><trkpt lat="39.3185245" lon="22.113068"><ele>109.0</ele><time>2026-04-28T10:01:15.032Z</time></trkpt><trkpt lat="39.3182794" lon="22.1132972"><ele>110.0</ele><time>2026-04-28T10:01:16.032Z</time></trkpt><trkpt lat="39.3180302" lon="22.1135301"><ele>111.0</ele><time>2026-04-28T10:01:17.031Z</time></trkpt><trkpt lat="39.3177884" lon="22.1137555"><ele>111.0</ele><time>2026-04-28T10:01:18.031Z</time></trkpt><trkpt lat="39.31754" lon="22.1139861"><ele>111.0</ele><time>2026-04-28T10:01:19.032Z</time></trkpt><trkpt lat="39.3172898" lon="22.1142191"><ele>111.0</ele><time>2026-04-28T10:01:20.031Z</time></trkpt><trkpt lat="39.3170332" lon="22.1144589"><ele>111.0</ele><time>2026-04-28T10:01:21.031Z</time></trkpt><trkpt lat="39.3167823" lon="22.1146937"><ele>111.0</ele><time>2026-04-28T10:01:22.032Z</time></trkpt><trkpt lat="39.3165255" lon="22.1149332"><ele>111.0</ele><time>2026-04-28T10:01:23.031Z</time></trkpt><trkpt lat="39.3162675" lon="22.1151749"><ele>111.0</ele><time>2026-04-28T10:01:24.032Z</time></trkpt><trkpt lat="39.3160025" lon="22.1154241"><ele>111.0</ele><time>2026-04-28T10:01:25.031Z</time></trkpt><trkpt lat="39.3157411" lon="22.1156685"><ele>111.0</ele><time>2026-04-28T10:01:26.032Z</time></trkpt><trkpt lat="39.3154712" lon="22.1159208"><ele>111.0</ele><time>2026-04-28T10:01:27.031Z</time></trkpt><trkpt lat="39.3151976" lon="22.116176"><ele>111.0</ele><time>2026-04-28T10:01:28.031Z</time></trkpt><trkpt lat="39.3149163" lon="22.1164377"><ele>111.0</ele><time>2026-04-28T10:01:29.031Z</time></trkpt><trkpt lat="39.3146413" lon="22.1166928"><ele>110.5</ele><time>2026-04-28T10:01:30.032Z</time></trkpt><trkpt lat="39.3143583" lon="22.116955"><ele>110.0</ele><time>2026-04-28T10:01:31.032Z</time></trkpt><trkpt lat="39.3140766" lon="22.1172166"><ele>109.5</ele><time>2026-04-28T10:01:32.031Z</time></trkpt><trkpt lat="39.3137896" lon="22.1174845"><ele>109.0</ele><time>2026-04-28T10:01:33.031Z</time></trkpt><trkpt lat="39.3135111" lon="22.1177449"><ele>109.0</ele><time>2026-04-28T10:01:34.032Z</time></trkpt><trkpt lat="39.3132232" lon="22.118014"><ele>109.0</ele><time>2026-04-28T10:01:35.032Z</time></trkpt><trkpt lat="39.3129311" lon="22.1182869"><ele>109.5</ele><time>2026-04-28T10:01:36.031Z</time></trkpt><trkpt lat="39.3126368" lon="22.1185616"><ele>110.0</ele><time>2026-04-28T10:01:37.032Z</time></trkpt><trkpt lat="39.3123535" lon="22.1188264"><ele>110.5</ele><time>2026-04-28T10:01:38.032Z</time></trkpt><trkpt lat="39.3120691" lon="22.1190912"><ele>111.0</ele><time>2026-04-28T10:01:39.032Z</time></trkpt><trkpt lat="39.311785" lon="22.1193557"><ele>111.0</ele><time>2026-04-28T10:01:40.032Z</time></trkpt><trkpt lat="39.3114987" lon="22.1196217"><ele>111.0</ele><time>2026-04-28T10:01:41.032Z</time></trkpt><trkpt lat="39.3112243" lon="22.1198774"><ele>111.0</ele><time>2026-04-28T10:01:42.032Z</time></trkpt><trkpt lat="39.3109508" lon="22.120132"><ele>111.0</ele><time>2026-04-28T10:01:43.031Z</time></trkpt><trkpt lat="39.3106843" lon="22.1203804"><ele>111.0</ele><time>2026-04-28T10:01:44.031Z</time></trkpt><trkpt lat="39.3104228" lon="22.1206238"><ele>111.0</ele><time>2026-04-28T10:01:45.031Z</time></trkpt><trkpt lat="39.3101816" lon="22.1208477"><ele>111.0</ele><time>2026-04-28T10:01:46.032Z</time></trkpt><trkpt lat="39.3099466" lon="22.1210666"><ele>111.0</ele><time>2026-04-28T10:01:47.032Z</time></trkpt><trkpt lat="39.3097211" lon="22.1212769"><ele>110.0</ele><time>2026-04-28T10:01:48.032Z</time></trkpt><trkpt lat="39.3094972" lon="22.1214853"><ele>109.0</ele><time>2026-04-28T10:01:49.031Z</time></trkpt><trkpt lat="39.3092816" lon="22.1216852"><ele>109.0</ele><time>2026-04-28T10:01:50.032Z</time></trkpt><trkpt lat="39.3090607" lon="22.1218893"><ele>109.0</ele><time>2026-04-28T10:01:51.031Z</time></trkpt><trkpt lat="39.3088367" lon="22.1220948"><ele>109.5</ele><time>2026-04-28T10:01:52.032Z</time></trkpt><trkpt lat="39.3086048" lon="22.1223086"><ele>110.0</ele><time>2026-04-28T10:01:53.032Z</time></trkpt><trkpt lat="39.3083772" lon="22.1225191"><ele>110.0</ele><time>2026-04-28T10:01:54.031Z</time></trkpt><trkpt lat="39.3081466" lon="22.1227329"><ele>110.0</ele><time>2026-04-28T10:01:55.032Z</time></trkpt><trkpt lat="39.3079187" lon="22.1229449"><ele>110.0</ele><time>2026-04-28T10:01:56.032Z</time></trkpt><trkpt lat="39.3076888" lon="22.1231596"><ele>110.0</ele><time>2026-04-28T10:01:57.031Z</time></trkpt><trkpt lat="39.3074657" lon="22.1233681"><ele>110.5</ele><time>2026-04-28T10:01:58.031Z</time></trkpt><trkpt lat="39.3072395" lon="22.1235792"><ele>111.0</ele><time>2026-04-28T10:01:59.032Z</time></trkpt><trkpt lat="39.3070138" lon="22.1237905"><ele>111.0</ele><time>2026-04-28T10:02:00.032Z</time></trkpt><trkpt lat="39.3067848" lon="22.1240079"><ele>111.0</ele><time>2026-04-28T10:02:01.032Z</time></trkpt><trkpt lat="39.3065627" lon="22.1242234"><ele>111.5</ele><time>2026-04-28T10:02:02.031Z</time></trkpt><trkpt lat="39.3063337" lon="22.124444"><ele>112.0</ele><time>2026-04-28T10:02:03.032Z</time></trkpt><trkpt lat="39.3061029" lon="22.1246628"><ele>112.0</ele><time>2026-04-28T10:02:04.032Z</time></trkpt><trkpt lat="39.3058695" lon="22.1248799"><ele>112.0</ele><time>2026-04-28T10:02:05.032Z</time></trkpt><trkpt lat="39.3056487" lon="22.1250856"><ele>111.5</ele><time>2026-04-28T10:02:06.032Z</time></trkpt><trkpt lat="39.30543" lon="22.1252891"><ele>111.0</ele><time>2026-04-28T10:02:07.032Z</time></trkpt><trkpt lat="39.3052175" lon="22.1254877"><ele>111.0</ele><time>2026-04-28T10:02:08.032Z</time></trkpt><trkpt lat="39.3050044" lon="22.1256844"><ele>111.0</ele><time>2026-04-28T10:02:09.032Z</time></trkpt><trkpt lat="39.3047995" lon="22.1258746"><ele>111.0</ele><time>2026-04-28T10:02:10.031Z</time></trkpt><trkpt lat="39.3045893" lon="22.1260705"><ele>111.0</ele><time>2026-04-28T10:02:11.032Z</time></trkpt><trkpt lat="39.3043799" lon="22.1262686"><ele>111.0</ele><time>2026-04-28T10:02:12.032Z</time></trkpt><trkpt lat="39.3041682" lon="22.1264698"><ele>111.0</ele><time>2026-04-28T10:02:13.031Z</time></trkpt><trkpt lat="39.3039633" lon="22.1266629"><ele>112.5</ele><time>2026-04-28T10:02:14.032Z</time></trkpt><trkpt lat="39.3037555" lon="22.1268588"><ele>114.0</ele><time>2026-04-28T10:02:15.032Z</time></trkpt><trkpt lat="39.3035486" lon="22.1270557"><ele>114.0</ele><time>2026-04-28T10:02:16.031Z</time></trkpt><trkpt lat="39.3033418" lon="22.1272605"><ele>114.0</ele><time>2026-04-28T10:02:17.031Z</time></trkpt><trkpt lat="39.3031458" lon="22.1274657"><ele>114.5</ele><time>2026-04-28T10:02:18.032Z</time></trkpt><trkpt lat="39.3029502" lon="22.1276835"><ele>115.0</ele><time>2026-04-28T10:02:19.031Z</time></trkpt><trkpt lat="39.3027576" lon="22.1279139"><ele>115.0</ele><time>2026-04-28T10:02:20.031Z</time></trkpt><trkpt lat="39.3025645" lon="22.1281604"><ele>115.0</ele><time>2026-04-28T10:02:21.032Z</time></trkpt><trkpt lat="39.3023825" lon="22.1284031"><ele>114.5</ele><time>2026-04-28T10:02:22.032Z</time></trkpt><trkpt lat="39.3022062" lon="22.1286449"><ele>114.0</ele><time>2026-04-28T10:02:23.031Z</time></trkpt><trkpt lat="39.3020385" lon="22.128887"><ele>114.0</ele><time>2026-04-28T10:02:24.032Z</time></trkpt><trkpt lat="39.3018791" lon="22.1291442"><ele>114.0</ele><time>2026-04-28T10:02:25.032Z</time></trkpt><trkpt lat="39.3017352" lon="22.1294104"><ele>114.0</ele><time>2026-04-28T10:02:26.031Z</time></trkpt><trkpt lat="39.3015995" lon="22.1296956"><ele>114.0</ele><time>2026-04-28T10:02:27.031Z</time></trkpt><trkpt lat="39.3014755" lon="22.1299929"><ele>113.0</ele><time>2026-04-28T10:02:28.031Z</time></trkpt><trkpt lat="39.3013637" lon="22.1303062"><ele>112.0</ele><time>2026-04-28T10:02:29.032Z</time></trkpt><trkpt lat="39.3012695" lon="22.1306236"><ele>112.0</ele><time>2026-04-28T10:02:30.032Z</time></trkpt><trkpt lat="39.301185" lon="22.1309611"><ele>112.0</ele><time>2026-04-28T10:02:31.031Z</time></trkpt><trkpt lat="39.3011066" lon="22.1313065"><ele>112.5</ele><time>2026-04-28T10:02:32.031Z</time></trkpt><trkpt lat="39.3010266" lon="22.1316596"><ele>113.0</ele><time>2026-04-28T10:02:33.032Z</time></trkpt><trkpt lat="39.3009482" lon="22.1320094"><ele>113.0</ele><time>2026-04-28T10:02:34.031Z</time></trkpt><trkpt lat="39.3008714" lon="22.1323745"><ele>113.0</ele><time>2026-04-28T10:02:35.032Z</time></trkpt><trkpt lat="39.3007988" lon="22.1327463"><ele>112.5</ele><time>2026-04-28T10:02:36.032Z</time></trkpt><trkpt lat="39.3007251" lon="22.1331265"><ele>112.0</ele><time>2026-04-28T10:02:37.031Z</time></trkpt><trkpt lat="39.3006526" lon="22.1334953"><ele>112.0</ele><time>2026-04-28T10:02:38.031Z</time></trkpt><trkpt lat="39.3005789" lon="22.1338711"><ele>112.0</ele><time>2026-04-28T10:02:39.031Z</time></trkpt><trkpt lat="39.3005059" lon="22.1342503"><ele>112.0</ele><time>2026-04-28T10:02:40.032Z</time></trkpt><trkpt lat="39.3004315" lon="22.1346333"><ele>112.0</ele><time>2026-04-28T10:02:41.031Z</time></trkpt><trkpt lat="39.3003586" lon="22.1350017"><ele>112.5</ele><time>2026-04-28T10:02:42.031Z</time></trkpt><trkpt lat="39.3002842" lon="22.1353767"><ele>113.0</ele><time>2026-04-28T10:02:43.032Z</time></trkpt><trkpt lat="39.3002122" lon="22.1357551"><ele>113.0</ele><time>2026-04-28T10:02:44.032Z</time></trkpt><trkpt lat="39.3001409" lon="22.1361448"><ele>113.0</ele><time>2026-04-28T10:02:45.031Z</time></trkpt><trkpt lat="39.3000713" lon="22.1365266"><ele>113.0</ele><time>2026-04-28T10:02:46.032Z</time></trkpt><trkpt lat="39.2999981" lon="22.1369197"><ele>113.0</ele><time>2026-04-28T10:02:47.031Z</time></trkpt><trkpt lat="39.2999246" lon="22.1373229"><ele>113.0</ele><time>2026-04-28T10:02:48.032Z</time></trkpt><trkpt lat="39.2998498" lon="22.1377329"><ele>113.0</ele><time>2026-04-28T10:02:49.032Z</time></trkpt><trkpt lat="39.2997747" lon="22.1381398"><ele>112.5</ele><time>2026-04-28T10:02:50.032Z</time></trkpt><trkpt lat="39.2996941" lon="22.1385651"><ele>112.0</ele><time>2026-04-28T10:02:51.032Z</time></trkpt><trkpt lat="39.2996109" lon="22.1390072"><ele>112.0</ele><time>2026-04-28T10:02:52.032Z</time></trkpt><trkpt lat="39.2995239" lon="22.1394713"><ele>112.0</ele><time>2026-04-28T10:02:53.031Z</time></trkpt><trkpt lat="39.2994358" lon="22.1399336"><ele>112.0</ele><time>2026-04-28T10:02:54.032Z</time></trkpt><trkpt lat="39.2993435" lon="22.1404162"><ele>112.0</ele><time>2026-04-28T10:02:55.032Z</time></trkpt><trkpt lat="39.2992481" lon="22.1409099"><ele>111.5</ele><time>2026-04-28T10:02:56.031Z</time></trkpt><trkpt lat="39.2991498" lon="22.1414224"><ele>111.0</ele><time>2026-04-28T10:02:57.032Z</time></trkpt><trkpt lat="39.2990539" lon="22.1419272"><ele>111.5</ele><time>2026-04-28T10:02:58.031Z</time></trkpt><trkpt lat="39.2989554" lon="22.1424473"><ele>112.0</ele><time>2026-04-28T10:02:59.031Z</time></trkpt><trkpt lat="39.2988561" lon="22.1429731"><ele>112.0</ele><time>2026-04-28T10:03:00.031Z</time></trkpt><trkpt lat="39.2987556" lon="22.1435067"><ele>112.0</ele><time>2026-04-28T10:03:01.031Z</time></trkpt><trkpt lat="39.2986583" lon="22.1440228"><ele>111.5</ele><time>2026-04-28T10:03:02.031Z</time></trkpt><trkpt lat="39.2985599" lon="22.1445439"><ele>111.0</ele><time>2026-04-28T10:03:03.031Z</time></trkpt><trkpt lat="39.2984642" lon="22.1450467"><ele>111.0</ele><time>2026-04-28T10:03:04.031Z</time></trkpt><trkpt lat="39.2983711" lon="22.1455221"><ele>111.0</ele><time>2026-04-28T10:03:05.032Z</time></trkpt><trkpt lat="39.2982907" lon="22.1459318"><ele>111.0</ele><time>2026-04-28T10:03:06.031Z</time></trkpt><trkpt lat="39.2982165" lon="22.146303"><ele>111.0</ele><time>2026-04-28T10:03:07.032Z</time></trkpt><trkpt lat="39.2981504" lon="22.1466337"><ele>111.33333333333334</ele><time>2026-04-28T10:03:08.032Z</time></trkpt><trkpt lat="39.2980912" lon="22.1469342"><ele>111.66666666666667</ele><time>2026-04-28T10:03:09.032Z</time></trkpt><trkpt lat="39.2980407" lon="22.1471906"><ele>112.0</ele><time>2026-04-28T10:03:10.031Z</time></trkpt><trkpt lat="39.2979943" lon="22.1474264"><ele>112.0</ele><time>2026-04-28T10:03:11.031Z</time></trkpt><trkpt lat="39.2979503" lon="22.147651"><ele>112.0</ele><time>2026-04-28T10:03:12.032Z</time></trkpt><trkpt lat="39.2979078" lon="22.1478687"><ele>112.0</ele><time>2026-04-28T10:03:13.031Z</time></trkpt><trkpt lat="39.2978684" lon="22.1480743"><ele>112.0</ele><time>2026-04-28T10:03:14.032Z</time></trkpt><trkpt lat="39.2978288" lon="22.1482808"><ele>112.0</ele><time>2026-04-28T10:03:15.031Z</time></trkpt><trkpt lat="39.2977884" lon="22.148487"><ele>112.0</ele><time>2026-04-28T10:03:16.031Z</time></trkpt><trkpt lat="39.2977471" lon="22.1486984"><ele>112.0</ele><time>2026-04-28T10:03:17.031Z</time></trkpt><trkpt lat="39.2977079" lon="22.1489042"><ele>112.0</ele><time>2026-04-28T10:03:18.032Z</time></trkpt><trkpt lat="39.2976685" lon="22.1491198"><ele>112.0</ele><time>2026-04-28T10:03:19.031Z</time></trkpt><trkpt lat="39.2976273" lon="22.149351"><ele>111.66666666666667</ele><time>2026-04-28T10:03:20.031Z</time></trkpt><trkpt lat="39.2975795" lon="22.149603"><ele>111.33333333333334</ele><time>2026-04-28T10:03:21.032Z</time></trkpt><trkpt lat="39.2975279" lon="22.1498714"><ele>111.0</ele><time>2026-04-28T10:03:22.032Z</time></trkpt><trkpt lat="39.2974692" lon="22.150171"><ele>112.0</ele><time>2026-04-28T10:03:23.031Z</time></trkpt><trkpt lat="39.2974088" lon="22.1504882"><ele>113.0</ele><time>2026-04-28T10:03:24.031Z</time></trkpt><trkpt lat="39.2973462" lon="22.1508218"><ele>113.5</ele><time>2026-04-28T10:03:25.031Z</time></trkpt><trkpt lat="39.297284" lon="22.15115"><ele>114.0</ele><time>2026-04-28T10:03:26.031Z</time></trkpt><trkpt lat="39.29722" lon="22.1514837"><ele>113.5</ele><time>2026-04-28T10:03:27.031Z</time></trkpt><trkpt lat="39.2971568" lon="22.1518166"><ele>113.0</ele><time>2026-04-28T10:03:28.032Z</time></trkpt><trkpt lat="39.2970927" lon="22.1521571"><ele>112.0</ele><time>2026-04-28T10:03:29.032Z</time></trkpt><trkpt lat="39.2970302" lon="22.1524897"><ele>111.0</ele><time>2026-04-28T10:03:30.031Z</time></trkpt><trkpt lat="39.296966" lon="22.1528307"><ele>111.0</ele><time>2026-04-28T10:03:31.032Z</time></trkpt><trkpt lat="39.296901" lon="22.1531746"><ele>111.0</ele><time>2026-04-28T10:03:32.032Z</time></trkpt><trkpt lat="39.2968344" lon="22.1535271"><ele>111.0</ele><time>2026-04-28T10:03:33.031Z</time></trkpt><trkpt lat="39.2967688" lon="22.1538707"><ele>111.0</ele><time>2026-04-28T10:03:34.032Z</time></trkpt><trkpt lat="39.2967021" lon="22.1542234"><ele>111.0</ele><time>2026-04-28T10:03:35.032Z</time></trkpt><trkpt lat="39.2966337" lon="22.1545785"><ele>111.0</ele><time>2026-04-28T10:03:36.031Z</time></trkpt><trkpt lat="39.2965635" lon="22.1549446"><ele>111.0</ele><time>2026-04-28T10:03:37.032Z</time></trkpt><trkpt lat="39.2964951" lon="22.155305"><ele>111.0</ele><time>2026-04-28T10:03:38.032Z</time></trkpt><trkpt lat="39.2964247" lon="22.1556763"><ele>111.0</ele><time>2026-04-28T10:03:39.031Z</time></trkpt><trkpt lat="39.2963527" lon="22.1560529"><ele>111.0</ele><time>2026-04-28T10:03:40.031Z</time></trkpt><trkpt lat="39.296279" lon="22.1564405"><ele>111.5</ele><time>2026-04-28T10:03:41.031Z</time></trkpt><trkpt lat="39.2962066" lon="22.1568198"><ele>112.0</ele><time>2026-04-28T10:03:42.032Z</time></trkpt><trkpt lat="39.2961323" lon="22.1572099"><ele>112.5</ele><time>2026-04-28T10:03:43.032Z</time></trkpt><trkpt lat="39.2960572" lon="22.1576063"><ele>113.0</ele><time>2026-04-28T10:03:44.031Z</time></trkpt><trkpt lat="39.2959801" lon="22.158016"><ele>112.0</ele><time>2026-04-28T10:03:45.031Z</time></trkpt><trkpt lat="39.2959044" lon="22.1584206"><ele>111.0</ele><time>2026-04-28T10:03:46.032Z</time></trkpt><trkpt lat="39.295826" lon="22.158841"><ele>111.0</ele><time>2026-04-28T10:03:47.031Z</time></trkpt><trkpt lat="39.2957443" lon="22.1592703"><ele>111.0</ele><time>2026-04-28T10:03:48.031Z</time></trkpt><trkpt lat="39.2956589" lon="22.1597153"><ele>111.0</ele><time>2026-04-28T10:03:49.031Z</time></trkpt><trkpt lat="39.2955748" lon="22.1601543"><ele>111.0</ele><time>2026-04-28T10:03:50.032Z</time></trkpt><trkpt lat="39.2954893" lon="22.1606023"><ele>110.5</ele><time>2026-04-28T10:03:51.031Z</time></trkpt><trkpt lat="39.2954" lon="22.1610722"><ele>110.0</ele><time>2026-04-28T10:03:52.031Z</time></trkpt><trkpt lat="39.2953105" lon="22.1615417"><ele>110.0</ele><time>2026-04-28T10:03:53.031Z</time></trkpt><trkpt lat="39.2952201" lon="22.1620171"><ele>110.0</ele><time>2026-04-28T10:03:54.032Z</time></trkpt><trkpt lat="39.2951302" lon="22.1624915"><ele>110.0</ele><time>2026-04-28T10:03:55.032Z</time></trkpt><trkpt lat="39.2950358" lon="22.1629845"><ele>110.0</ele><time>2026-04-28T10:03:56.031Z</time></trkpt><trkpt lat="39.2949426" lon="22.1634746"><ele>110.0</ele><time>2026-04-28T10:03:57.031Z</time></trkpt><trkpt lat="39.2948491" lon="22.1639689"><ele>110.0</ele><time>2026-04-28T10:03:58.031Z</time></trkpt><trkpt lat="39.2947561" lon="22.1644574"><ele>109.0</ele><time>2026-04-28T10:03:59.032Z</time></trkpt><trkpt lat="39.2946608" lon="22.1649667"><ele>108.0</ele><time>2026-04-28T10:04:00.032Z</time></trkpt><trkpt lat="39.2945654" lon="22.1654721"><ele>109.0</ele><time>2026-04-28T10:04:01.032Z</time></trkpt><trkpt lat="39.2944696" lon="22.1659797"><ele>110.0</ele><time>2026-04-28T10:04:02.032Z</time></trkpt><trkpt lat="39.294374" lon="22.1664813"><ele>110.0</ele><time>2026-04-28T10:04:03.031Z</time></trkpt><trkpt lat="39.294274" lon="22.1670013"><ele>110.0</ele><time>2026-04-28T10:04:04.032Z</time></trkpt><trkpt lat="39.2941777" lon="22.1675001"><ele>109.5</ele><time>2026-04-28T10:04:05.032Z</time></trkpt><trkpt lat="39.294087" lon="22.1679729"><ele>109.0</ele><time>2026-04-28T10:04:06.032Z</time></trkpt><trkpt lat="39.2940006" lon="22.1684203"><ele>108.5</ele><time>2026-04-28T10:04:07.031Z</time></trkpt><trkpt lat="39.2939123" lon="22.1688731"><ele>108.0</ele><time>2026-04-28T10:04:08.032Z</time></trkpt><trkpt lat="39.2938275" lon="22.1693138"><ele>109.0</ele><time>2026-04-28T10:04:09.031Z</time></trkpt><trkpt lat="39.2937445" lon="22.1697515"><ele>110.0</ele><time>2026-04-28T10:04:10.031Z</time></trkpt><trkpt lat="39.2936642" lon="22.1701791"><ele>110.5</ele><time>2026-04-28T10:04:11.032Z</time></trkpt><trkpt lat="39.2935831" lon="22.1706174"><ele>111.0</ele><time>2026-04-28T10:04:12.031Z</time></trkpt><trkpt lat="39.293504" lon="22.1710452"><ele>111.0</ele><time>2026-04-28T10:04:13.031Z</time></trkpt><trkpt lat="39.2934241" lon="22.1714691"><ele>111.0</ele><time>2026-04-28T10:04:14.031Z</time></trkpt><trkpt lat="39.2933451" lon="22.1718829"><ele>111.0</ele><time>2026-04-28T10:04:15.032Z</time></trkpt><trkpt lat="39.2932636" lon="22.1723074"><ele>111.0</ele><time>2026-04-28T10:04:16.031Z</time></trkpt><trkpt lat="39.2931838" lon="22.1727181"><ele>111.0</ele><time>2026-04-28T10:04:17.032Z</time></trkpt><trkpt lat="39.2931062" lon="22.1731228"><ele>111.0</ele><time>2026-04-28T10:04:18.032Z</time></trkpt><trkpt lat="39.2930318" lon="22.1735154"><ele>111.5</ele><time>2026-04-28T10:04:19.031Z</time></trkpt><trkpt lat="39.2929559" lon="22.1739152"><ele>112.0</ele><time>2026-04-28T10:04:20.031Z</time></trkpt><trkpt lat="39.2928823" lon="22.1743071"><ele>112.5</ele><time>2026-04-28T10:04:21.031Z</time></trkpt><trkpt lat="39.2928089" lon="22.1746982"><ele>113.0</ele><time>2026-04-28T10:04:22.031Z</time></trkpt><trkpt lat="39.2927364" lon="22.1750827"><ele>113.5</ele><time>2026-04-28T10:04:23.031Z</time></trkpt><trkpt lat="39.2926603" lon="22.1754785"><ele>114.0</ele><time>2026-04-28T10:04:24.031Z</time></trkpt><trkpt lat="39.2925856" lon="22.1758676"><ele>113.0</ele><time>2026-04-28T10:04:25.032Z</time></trkpt><trkpt lat="39.2925109" lon="22.1762549"><ele>112.0</ele><time>2026-04-28T10:04:26.032Z</time></trkpt><trkpt lat="39.2924362" lon="22.1766343"><ele>111.5</ele><time>2026-04-28T10:04:27.032Z</time></trkpt><trkpt lat="39.2923558" lon="22.1770227"><ele>111.0</ele><time>2026-04-28T10:04:28.031Z</time></trkpt><trkpt lat="39.2922686" lon="22.1773995"><ele>111.0</ele><time>2026-04-28T10:04:29.032Z</time></trkpt><trkpt lat="39.2921698" lon="22.1777677"><ele>111.0</ele><time>2026-04-28T10:04:30.032Z</time></trkpt><trkpt lat="39.2920605" lon="22.1781197"><ele>111.0</ele><time>2026-04-28T10:04:31.031Z</time></trkpt><trkpt lat="39.2919359" lon="22.178475"><ele>111.0</ele><time>2026-04-28T10:04:32.032Z</time></trkpt><trkpt lat="39.2918013" lon="22.1788153"><ele>111.0</ele><time>2026-04-28T10:04:33.031Z</time></trkpt><trkpt lat="39.2916543" lon="22.1791466"><ele>111.0</ele><time>2026-04-28T10:04:34.031Z</time></trkpt><trkpt lat="39.2914999" lon="22.179466"><ele>111.5</ele><time>2026-04-28T10:04:35.032Z</time></trkpt><trkpt lat="39.2913328" lon="22.1797896"><ele>112.0</ele><time>2026-04-28T10:04:36.032Z</time></trkpt><trkpt lat="39.291168" lon="22.1801049"><ele>111.0</ele><time>2026-04-28T10:04:37.031Z</time></trkpt><trkpt lat="39.2910034" lon="22.1804165"><ele>110.0</ele><time>2026-04-28T10:04:38.032Z</time></trkpt><trkpt lat="39.2908419" lon="22.1807191"><ele>109.5</ele><time>2026-04-28T10:04:39.031Z</time></trkpt><trkpt lat="39.2906759" lon="22.1810285"><ele>109.0</ele><time>2026-04-28T10:04:40.031Z</time></trkpt><trkpt lat="39.2905125" lon="22.1813345"><ele>109.5</ele><time>2026-04-28T10:04:41.032Z</time></trkpt><trkpt lat="39.2903489" lon="22.1816407"><ele>110.0</ele><time>2026-04-28T10:04:42.032Z</time></trkpt><trkpt lat="39.2901885" lon="22.1819423"><ele>110.0</ele><time>2026-04-28T10:04:43.031Z</time></trkpt><trkpt lat="39.2900247" lon="22.1822518"><ele>110.0</ele><time>2026-04-28T10:04:44.031Z</time></trkpt><trkpt lat="39.2898596" lon="22.1825627"><ele>109.5</ele><time>2026-04-28T10:04:45.031Z</time></trkpt><trkpt lat="39.2897001" lon="22.1828629"><ele>109.0</ele><time>2026-04-28T10:04:46.032Z</time></trkpt><trkpt lat="39.2895382" lon="22.1831674"><ele>109.5</ele><time>2026-04-28T10:04:47.032Z</time></trkpt><trkpt lat="39.2893755" lon="22.1834739"><ele>110.0</ele><time>2026-04-28T10:04:48.032Z</time></trkpt><trkpt lat="39.2892141" lon="22.1837773"><ele>110.0</ele><time>2026-04-28T10:04:49.031Z</time></trkpt><trkpt lat="39.2890529" lon="22.1840805"><ele>110.0</ele><time>2026-04-28T10:04:50.032Z</time></trkpt><trkpt lat="39.2888942" lon="22.1843784"><ele>110.0</ele><time>2026-04-28T10:04:51.032Z</time></trkpt><trkpt lat="39.2887308" lon="22.1846853"><ele>110.0</ele><time>2026-04-28T10:04:52.032Z</time></trkpt><trkpt lat="39.2885707" lon="22.1849876"><ele>109.5</ele><time>2026-04-28T10:04:53.031Z</time></trkpt><trkpt lat="39.2884112" lon="22.1852906"><ele>109.0</ele><time>2026-04-28T10:04:54.031Z</time></trkpt><trkpt lat="39.288254" lon="22.1855882"><ele>109.5</ele><time>2026-04-28T10:04:55.032Z</time></trkpt><trkpt lat="39.2880901" lon="22.1858958"><ele>110.0</ele><time>2026-04-28T10:04:56.031Z</time></trkpt><trkpt lat="39.287926" lon="22.1862019"><ele>110.0</ele><time>2026-04-28T10:04:57.031Z</time></trkpt><trkpt lat="39.2877587" lon="22.1865109"><ele>110.0</ele><time>2026-04-28T10:04:58.032Z</time></trkpt><trkpt lat="39.287591" lon="22.186822"><ele>110.5</ele><time>2026-04-28T10:04:59.032Z</time></trkpt><trkpt lat="39.2874222" lon="22.1871383"><ele>111.0</ele><time>2026-04-28T10:05:00.031Z</time></trkpt><trkpt lat="39.2872512" lon="22.1874626"><ele>110.0</ele><time>2026-04-28T10:05:01.031Z</time></trkpt><trkpt lat="39.2870862" lon="22.1877753"><ele>109.0</ele><time>2026-04-28T10:05:02.031Z</time></trkpt><trkpt lat="39.2869198" lon="22.1880905"><ele>109.5</ele><time>2026-04-28T10:05:03.031Z</time></trkpt><trkpt lat="39.2867564" lon="22.1884007"><ele>110.0</ele><time>2026-04-28T10:05:04.031Z</time></trkpt><trkpt lat="39.2865934" lon="22.1887082"><ele>110.0</ele><time>2026-04-28T10:05:05.032Z</time></trkpt><trkpt lat="39.2864372" lon="22.1890006"><ele>110.0</ele><time>2026-04-28T10:05:06.032Z</time></trkpt><trkpt lat="39.2862843" lon="22.189288"><ele>110.0</ele><time>2026-04-28T10:05:07.031Z</time></trkpt><trkpt lat="39.2861279" lon="22.1895813"><ele>110.0</ele><time>2026-04-28T10:05:08.032Z</time></trkpt><trkpt lat="39.2859764" lon="22.189865"><ele>110.5</ele><time>2026-04-28T10:05:09.032Z</time></trkpt><trkpt lat="39.2858289" lon="22.1901433"><ele>111.0</ele><time>2026-04-28T10:05:10.031Z</time></trkpt><trkpt lat="39.2856874" lon="22.1904097"><ele>111.0</ele><time>2026-04-28T10:05:11.031Z</time></trkpt><trkpt lat="39.285547" lon="22.190671"><ele>111.0</ele><time>2026-04-28T10:05:12.031Z</time></trkpt><trkpt lat="39.285413" lon="22.1909166"><ele>111.0</ele><time>2026-04-28T10:05:13.031Z</time></trkpt><trkpt lat="39.2852833" lon="22.1911568"><ele>111.0</ele><time>2026-04-28T10:05:14.031Z</time></trkpt><trkpt lat="39.2851562" lon="22.1913903"><ele>111.0</ele><time>2026-04-28T10:05:15.032Z</time></trkpt><trkpt lat="39.2850246" lon="22.1916337"><ele>110.5</ele><time>2026-04-28T10:05:16.031Z</time></trkpt><trkpt lat="39.2848926" lon="22.191878"><ele>110.0</ele><time>2026-04-28T10:05:17.032Z</time></trkpt><trkpt lat="39.2847587" lon="22.1921268"><ele>110.0</ele><time>2026-04-28T10:05:18.032Z</time></trkpt><trkpt lat="39.2846218" lon="22.192383"><ele>110.0</ele><time>2026-04-28T10:05:19.031Z</time></trkpt><trkpt lat="39.2844826" lon="22.1926463"><ele>110.0</ele><time>2026-04-28T10:05:20.031Z</time></trkpt><trkpt lat="39.2843381" lon="22.1929198"><ele>110.0</ele><time>2026-04-28T10:05:21.032Z</time></trkpt><trkpt lat="39.2841961" lon="22.1931888"><ele>110.0</ele><time>2026-04-28T10:05:22.032Z</time></trkpt><trkpt lat="39.2840508" lon="22.1934645"><ele>110.0</ele><time>2026-04-28T10:05:23.032Z</time></trkpt><trkpt lat="39.2839048" lon="22.1937427"><ele>110.5</ele><time>2026-04-28T10:05:24.031Z</time></trkpt><trkpt lat="39.2837575" lon="22.1940253"><ele>111.0</ele><time>2026-04-28T10:05:25.031Z</time></trkpt><trkpt lat="39.2836081" lon="22.1943092"><ele>111.0</ele><time>2026-04-28T10:05:26.031Z</time></trkpt><trkpt lat="39.283459" lon="22.1945914"><ele>111.0</ele><time>2026-04-28T10:05:27.032Z</time></trkpt><trkpt lat="39.2833024" lon="22.1948851"><ele>111.0</ele><time>2026-04-28T10:05:28.032Z</time></trkpt><trkpt lat="39.2831463" lon="22.1951768"><ele>111.0</ele><time>2026-04-28T10:05:29.031Z</time></trkpt><trkpt lat="39.2829887" lon="22.195471"><ele>110.5</ele><time>2026-04-28T10:05:30.031Z</time></trkpt><trkpt lat="39.2828325" lon="22.1957628"><ele>110.0</ele><time>2026-04-28T10:05:31.032Z</time></trkpt><trkpt lat="39.2826711" lon="22.1960667"><ele>110.0</ele><time>2026-04-28T10:05:32.032Z</time></trkpt><trkpt lat="39.2825125" lon="22.1963681"><ele>110.0</ele><time>2026-04-28T10:05:33.031Z</time></trkpt><trkpt lat="39.2823542" lon="22.1966711"><ele>110.0</ele><time>2026-04-28T10:05:34.032Z</time></trkpt><trkpt lat="39.2821972" lon="22.1969699"><ele>110.0</ele><time>2026-04-28T10:05:35.032Z</time></trkpt><trkpt lat="39.2820341" lon="22.1972763"><ele>109.5</ele><time>2026-04-28T10:05:36.032Z</time></trkpt><trkpt lat="39.2818699" lon="22.1975868"><ele>109.0</ele><time>2026-04-28T10:05:37.032Z</time></trkpt><trkpt lat="39.2817087" lon="22.197891"><ele>109.5</ele><time>2026-04-28T10:05:38.032Z</time></trkpt><trkpt lat="39.2815419" lon="22.1982027"><ele>110.0</ele><time>2026-04-28T10:05:39.031Z</time></trkpt><trkpt lat="39.2813721" lon="22.1985164"><ele>110.0</ele><time>2026-04-28T10:05:40.032Z</time></trkpt><trkpt lat="39.2811979" lon="22.1988389"><ele>110.0</ele><time>2026-04-28T10:05:41.031Z</time></trkpt><trkpt lat="39.2810289" lon="22.199156"><ele>110.0</ele><time>2026-04-28T10:05:42.031Z</time></trkpt><trkpt lat="39.2808585" lon="22.1994775"><ele>110.0</ele><time>2026-04-28T10:05:43.032Z</time></trkpt><trkpt lat="39.2806834" lon="22.1998089"><ele>109.0</ele><time>2026-04-28T10:05:44.032Z</time></trkpt><trkpt lat="39.2805086" lon="22.200139"><ele>108.0</ele><time>2026-04-28T10:05:45.032Z</time></trkpt><trkpt lat="39.280338" lon="22.2004606"><ele>108.5</ele><time>2026-04-28T10:05:46.031Z</time></trkpt><trkpt lat="39.2801648" lon="22.2007868"><ele>109.0</ele><time>2026-04-28T10:05:47.031Z</time></trkpt><trkpt lat="39.2799923" lon="22.2011128"><ele>109.0</ele><time>2026-04-28T10:05:48.032Z</time></trkpt><trkpt lat="39.279818" lon="22.201444"><ele>109.0</ele><time>2026-04-28T10:05:49.031Z</time></trkpt><trkpt lat="39.2796476" lon="22.2017648"><ele>109.5</ele><time>2026-04-28T10:05:50.032Z</time></trkpt><trkpt lat="39.279472" lon="22.2020918"><ele>110.0</ele><time>2026-04-28T10:05:51.032Z</time></trkpt><trkpt lat="39.2792949" lon="22.2024216"><ele>110.0</ele><time>2026-04-28T10:05:52.031Z</time></trkpt><trkpt lat="39.2791146" lon="22.2027589"><ele>110.0</ele><time>2026-04-28T10:05:53.032Z</time></trkpt><trkpt lat="39.2789403" lon="22.2030869"><ele>109.5</ele><time>2026-04-28T10:05:54.032Z</time></trkpt><trkpt lat="39.2787629" lon="22.2034205"><ele>109.0</ele><time>2026-04-28T10:05:55.032Z</time></trkpt><trkpt lat="39.2785854" lon="22.2037534"><ele>109.5</ele><time>2026-04-28T10:05:56.031Z</time></trkpt><trkpt lat="39.2784055" lon="22.2040899"><ele>110.0</ele><time>2026-04-28T10:05:57.031Z</time></trkpt><trkpt lat="39.2782322" lon="22.204414"><ele>109.5</ele><time>2026-04-28T10:05:58.031Z</time></trkpt><trkpt lat="39.2780571" lon="22.2047419"><ele>109.0</ele><time>2026-04-28T10:05:59.031Z</time></trkpt><trkpt lat="39.2778835" lon="22.2050687"><ele>109.0</ele><time>2026-04-28T10:06:00.031Z</time></trkpt><trkpt lat="39.2777092" lon="22.2053961"><ele>109.0</ele><time>2026-04-28T10:06:01.031Z</time></trkpt><trkpt lat="39.2775366" lon="22.2057204"><ele>109.0</ele><time>2026-04-28T10:06:02.031Z</time></trkpt><trkpt lat="39.2773657" lon="22.2060412"><ele>109.0</ele><time>2026-04-28T10:06:03.031Z</time></trkpt><trkpt lat="39.2771949" lon="22.2063616"><ele>109.0</ele><time>2026-04-28T10:06:04.031Z</time></trkpt><trkpt lat="39.2770227" lon="22.2066845"><ele>109.0</ele><time>2026-04-28T10:06:05.032Z</time></trkpt><trkpt lat="39.2768568" lon="22.2069958"><ele>109.0</ele><time>2026-04-28T10:06:06.031Z</time></trkpt><trkpt lat="39.2766886" lon="22.2073119"><ele>109.0</ele><time>2026-04-28T10:06:07.032Z</time></trkpt><trkpt lat="39.2765217" lon="22.207628"><ele>109.0</ele><time>2026-04-28T10:06:08.032Z</time></trkpt><trkpt lat="39.2763523" lon="22.2079493"><ele>109.0</ele><time>2026-04-28T10:06:09.032Z</time></trkpt><trkpt lat="39.2761876" lon="22.2082592"><ele>109.0</ele><time>2026-04-28T10:06:10.032Z</time></trkpt><trkpt lat="39.2760183" lon="22.2085747"><ele>109.0</ele><time>2026-04-28T10:06:11.031Z</time></trkpt><trkpt lat="39.27585" lon="22.208889"><ele>109.0</ele><time>2026-04-28T10:06:12.031Z</time></trkpt><trkpt lat="39.2756795" lon="22.209206"><ele>109.0</ele><time>2026-04-28T10:06:13.032Z</time></trkpt><trkpt lat="39.2755151" lon="22.2095112"><ele>109.0</ele><time>2026-04-28T10:06:14.032Z</time></trkpt><trkpt lat="39.2753495" lon="22.2098198"><ele>109.0</ele><time>2026-04-28T10:06:15.032Z</time></trkpt><trkpt lat="39.2751858" lon="22.2101263"><ele>109.0</ele><time>2026-04-28T10:06:16.032Z</time></trkpt><trkpt lat="39.2750208" lon="22.2104383"><ele>109.0</ele><time>2026-04-28T10:06:17.032Z</time></trkpt><trkpt lat="39.2748622" lon="22.2107391"><ele>109.0</ele><time>2026-04-28T10:06:18.031Z</time></trkpt><trkpt lat="39.2747016" lon="22.2110435"><ele>109.0</ele><time>2026-04-28T10:06:19.032Z</time></trkpt><trkpt lat="39.2745403" lon="22.2113472"><ele>109.0</ele><time>2026-04-28T10:06:20.032Z</time></trkpt><trkpt lat="39.2743821" lon="22.2116449"><ele>109.0</ele><time>2026-04-28T10:06:21.031Z</time></trkpt><trkpt lat="39.2742346" lon="22.2119241"><ele>109.0</ele><time>2026-04-28T10:06:22.032Z</time></trkpt><trkpt lat="39.2740942" lon="22.2121907"><ele>109.0</ele><time>2026-04-28T10:06:23.032Z</time></trkpt><trkpt lat="39.2739622" lon="22.2124407"><ele>108.66666666666667</ele><time>2026-04-28T10:06:24.032Z</time></trkpt><trkpt lat="39.2738359" lon="22.2126805"><ele>108.33333333333334</ele><time>2026-04-28T10:06:25.031Z</time></trkpt><trkpt lat="39.27372" lon="22.2128993"><ele>108.0</ele><time>2026-04-28T10:06:26.031Z</time></trkpt><trkpt lat="39.2736048" lon="22.2131143"><ele>108.33333333333334</ele><time>2026-04-28T10:06:27.032Z</time></trkpt><trkpt lat="39.2734909" lon="22.2133256"><ele>108.66666666666667</ele><time>2026-04-28T10:06:28.032Z</time></trkpt><trkpt lat="39.273376" lon="22.2135378"><ele>109.0</ele><time>2026-04-28T10:06:29.031Z</time></trkpt><trkpt lat="39.2732682" lon="22.2137329"><ele>109.0</ele><time>2026-04-28T10:06:30.032Z</time></trkpt><trkpt lat="39.2731624" lon="22.2139212"><ele>109.0</ele><time>2026-04-28T10:06:31.032Z</time></trkpt><trkpt lat="39.2730605" lon="22.2141008"><ele>109.0</ele><time>2026-04-28T10:06:32.032Z</time></trkpt><trkpt lat="39.272959" lon="22.2142778"><ele>109.33333333333334</ele><time>2026-04-28T10:06:33.032Z</time></trkpt><trkpt lat="39.2728631" lon="22.2144437"><ele>109.66666666666666</ele><time>2026-04-28T10:06:34.032Z</time></trkpt><trkpt lat="39.2727693" lon="22.2145987"><ele>110.0</ele><time>2026-04-28T10:06:35.032Z</time></trkpt><trkpt lat="39.2726802" lon="22.2147389"><ele>110.0</ele><time>2026-04-28T10:06:36.032Z</time></trkpt><trkpt lat="39.2725977" lon="22.2148637"><ele>110.0</ele><time>2026-04-28T10:06:37.032Z</time></trkpt><trkpt lat="39.2725293" lon="22.2149638"><ele>110.0</ele><time>2026-04-28T10:06:38.031Z</time></trkpt><trkpt lat="39.2724742" lon="22.2150426"><ele>110.0</ele><time>2026-04-28T10:06:39.031Z</time></trkpt><trkpt lat="39.2724122" lon="22.2151247"><ele>110.0</ele><time>2026-04-28T10:06:41.032Z</time></trkpt><trkpt lat="39.2723654" lon="22.2151863"><ele>110.0</ele><time>2026-04-28T10:07:12.032Z</time></trkpt><trkpt lat="39.2722904" lon="22.215281"><ele>110.0</ele><time>2026-04-28T10:07:14.032Z</time></trkpt><trkpt lat="39.2722358" lon="22.2153511"><ele>110.0</ele><time>2026-04-28T10:07:15.032Z</time></trkpt><trkpt lat="39.2721686" lon="22.2154367"><ele>110.0</ele><time>2026-04-28T10:07:16.031Z</time></trkpt><trkpt lat="39.2720921" lon="22.2155307"><ele>110.0</ele><time>2026-04-28T10:07:17.031Z</time></trkpt><trkpt lat="39.2720054" lon="22.2156319"><ele>110.0</ele><time>2026-04-28T10:07:18.032Z</time></trkpt><trkpt lat="39.2719096" lon="22.2157386"><ele>110.0</ele><time>2026-04-28T10:07:19.031Z</time></trkpt><trkpt lat="39.2718016" lon="22.2158544"><ele>110.0</ele><time>2026-04-28T10:07:20.031Z</time></trkpt><trkpt lat="39.2716891" lon="22.2159713"><ele>110.0</ele><time>2026-04-28T10:07:21.032Z</time></trkpt><trkpt lat="39.2715758" lon="22.2160877"><ele>110.0</ele><time>2026-04-28T10:07:22.032Z</time></trkpt><trkpt lat="39.2714531" lon="22.2162085"><ele>110.0</ele><time>2026-04-28T10:07:23.031Z</time></trkpt><trkpt lat="39.2713015" lon="22.2163526"><ele>110.0</ele><time>2026-04-28T10:07:24.031Z</time></trkpt><trkpt lat="39.2711228" lon="22.2165158"><ele>108.0</ele><time>2026-04-28T10:07:25.032Z</time></trkpt><trkpt lat="39.2709168" lon="22.2167039"><ele>106.0</ele><time>2026-04-28T10:07:26.031Z</time></trkpt><trkpt lat="39.2706894" lon="22.2169158"><ele>107.0</ele><time>2026-04-28T10:07:27.031Z</time></trkpt><trkpt lat="39.2704307" lon="22.2171561"><ele>108.0</ele><time>2026-04-28T10:07:28.032Z</time></trkpt><trkpt lat="39.2701561" lon="22.2174062"><ele>108.0</ele><time>2026-04-28T10:07:29.032Z</time></trkpt><trkpt lat="39.2698647" lon="22.2176656"><ele>108.0</ele><time>2026-04-28T10:07:30.032Z</time></trkpt><trkpt lat="39.269565" lon="22.2179306"><ele>108.5</ele><time>2026-04-28T10:07:31.032Z</time></trkpt><trkpt lat="39.2692423" lon="22.2182145"><ele>109.0</ele><time>2026-04-28T10:07:32.032Z</time></trkpt><trkpt lat="39.2689131" lon="22.2185037"><ele>109.0</ele><time>2026-04-28T10:07:33.031Z</time></trkpt><trkpt lat="39.2685741" lon="22.2188021"><ele>109.0</ele><time>2026-04-28T10:07:34.032Z</time></trkpt><trkpt lat="39.2682336" lon="22.2191018"><ele>109.0</ele><time>2026-04-28T10:07:35.032Z</time></trkpt><trkpt lat="39.2678776" lon="22.2194157"><ele>109.0</ele><time>2026-04-28T10:07:36.031Z</time></trkpt><trkpt lat="39.2675241" lon="22.2197275"><ele>109.0</ele><time>2026-04-28T10:07:37.031Z</time></trkpt><trkpt lat="39.2671675" lon="22.2200399"><ele>109.0</ele><time>2026-04-28T10:07:38.032Z</time></trkpt><trkpt lat="39.2668143" lon="22.2203483"><ele>109.0</ele><time>2026-04-28T10:07:39.032Z</time></trkpt><trkpt lat="39.2664615" lon="22.2206543"><ele>109.0</ele><time>2026-04-28T10:07:40.031Z</time></trkpt><trkpt lat="39.2661352" lon="22.2209334"><ele>108.0</ele><time>2026-04-28T10:07:41.032Z</time></trkpt><trkpt lat="39.2658247" lon="22.2211947"><ele>107.0</ele><time>2026-04-28T10:07:42.031Z</time></trkpt><trkpt lat="39.2655316" lon="22.2214458"><ele>107.0</ele><time>2026-04-28T10:07:43.031Z</time></trkpt><trkpt lat="39.2652415" lon="22.2216967"><ele>107.0</ele><time>2026-04-28T10:07:44.031Z</time></trkpt><trkpt lat="39.2649702" lon="22.2219327"><ele>107.0</ele><time>2026-04-28T10:07:45.032Z</time></trkpt><trkpt lat="39.2647129" lon="22.2221581"><ele>107.0</ele><time>2026-04-28T10:07:46.031Z</time></trkpt><trkpt lat="39.2644609" lon="22.2223796"><ele>107.0</ele><time>2026-04-28T10:07:47.031Z</time></trkpt><trkpt lat="39.264213" lon="22.2225965"><ele>107.0</ele><time>2026-04-28T10:07:48.031Z</time></trkpt><trkpt lat="39.2639636" lon="22.2228156"><ele>107.5</ele><time>2026-04-28T10:07:49.032Z</time></trkpt><trkpt lat="39.2637235" lon="22.2230265"><ele>108.0</ele><time>2026-04-28T10:07:50.032Z</time></trkpt><trkpt lat="39.2634845" lon="22.2232372"><ele>108.0</ele><time>2026-04-28T10:07:51.031Z</time></trkpt><trkpt lat="39.2632518" lon="22.2234427"><ele>108.0</ele><time>2026-04-28T10:07:52.031Z</time></trkpt><trkpt lat="39.2630221" lon="22.223645"><ele>108.0</ele><time>2026-04-28T10:07:53.032Z</time></trkpt><trkpt lat="39.2628043" lon="22.2238359"><ele>108.0</ele><time>2026-04-28T10:07:54.032Z</time></trkpt><trkpt lat="39.2625853" lon="22.224029"><ele>108.0</ele><time>2026-04-28T10:07:55.032Z</time></trkpt><trkpt lat="39.2623697" lon="22.2242195"><ele>108.0</ele><time>2026-04-28T10:07:56.031Z</time></trkpt><trkpt lat="39.2621541" lon="22.2244084"><ele>108.0</ele><time>2026-04-28T10:07:57.031Z</time></trkpt><trkpt lat="39.2619477" lon="22.224587"><ele>108.0</ele><time>2026-04-28T10:07:58.032Z</time></trkpt><trkpt lat="39.2617393" lon="22.2247653"><ele>108.0</ele><time>2026-04-28T10:07:59.032Z</time></trkpt><trkpt lat="39.2615325" lon="22.2249415"><ele>108.0</ele><time>2026-04-28T10:08:00.032Z</time></trkpt><trkpt lat="39.2613231" lon="22.2251209"><ele>109.0</ele><time>2026-04-28T10:08:01.031Z</time></trkpt><trkpt lat="39.2611215" lon="22.2252947"><ele>110.0</ele><time>2026-04-28T10:08:02.031Z</time></trkpt><trkpt lat="39.2609182" lon="22.2254722"><ele>109.5</ele><time>2026-04-28T10:08:03.031Z</time></trkpt><trkpt lat="39.2607164" lon="22.225651"><ele>109.0</ele><time>2026-04-28T10:08:04.032Z</time></trkpt><trkpt lat="39.2605126" lon="22.2258336"><ele>109.0</ele><time>2026-04-28T10:08:05.031Z</time></trkpt><trkpt lat="39.260314" lon="22.2260126"><ele>109.0</ele><time>2026-04-28T10:08:06.031Z</time></trkpt><trkpt lat="39.2601106" lon="22.2261969"><ele>109.0</ele><time>2026-04-28T10:08:07.031Z</time></trkpt><trkpt lat="39.2599048" lon="22.2263827"><ele>109.0</ele><time>2026-04-28T10:08:08.031Z</time></trkpt><trkpt lat="39.2596935" lon="22.2265716"><ele>109.0</ele><time>2026-04-28T10:08:09.031Z</time></trkpt><trkpt lat="39.2594881" lon="22.2267547"><ele>109.0</ele><time>2026-04-28T10:08:10.032Z</time></trkpt><trkpt lat="39.2592794" lon="22.2269395"><ele>109.0</ele><time>2026-04-28T10:08:11.031Z</time></trkpt><trkpt lat="39.2590704" lon="22.2271228"><ele>109.0</ele><time>2026-04-28T10:08:12.032Z</time></trkpt><trkpt lat="39.2588583" lon="22.2273073"><ele>108.5</ele><time>2026-04-28T10:08:13.032Z</time></trkpt><trkpt lat="39.2586539" lon="22.2274855"><ele>108.0</ele><time>2026-04-28T10:08:14.032Z</time></trkpt><trkpt lat="39.2584483" lon="22.2276668"><ele>108.0</ele><time>2026-04-28T10:08:15.032Z</time></trkpt><trkpt lat="39.2582441" lon="22.2278488"><ele>108.0</ele><time>2026-04-28T10:08:16.031Z</time></trkpt><trkpt lat="39.2580371" lon="22.2280315"><ele>108.0</ele><time>2026-04-28T10:08:17.031Z</time></trkpt><trkpt lat="39.2578368" lon="22.2282073"><ele>108.0</ele><time>2026-04-28T10:08:18.032Z</time></trkpt><trkpt lat="39.2576339" lon="22.2283854"><ele>108.0</ele><time>2026-04-28T10:08:19.031Z</time></trkpt><trkpt lat="39.2574311" lon="22.2285644"><ele>108.0</ele><time>2026-04-28T10:08:20.032Z</time></trkpt><trkpt lat="39.2572253" lon="22.2287471"><ele>108.5</ele><time>2026-04-28T10:08:21.032Z</time></trkpt><trkpt lat="39.2570245" lon="22.228925"><ele>109.0</ele><time>2026-04-28T10:08:22.031Z</time></trkpt><trkpt lat="39.2568185" lon="22.2291065"><ele>109.0</ele><time>2026-04-28T10:08:23.032Z</time></trkpt><trkpt lat="39.2566115" lon="22.22929"><ele>109.0</ele><time>2026-04-28T10:08:24.032Z</time></trkpt><trkpt lat="39.256399" lon="22.2294781"><ele>109.0</ele><time>2026-04-28T10:08:25.031Z</time></trkpt><trkpt lat="39.256192" lon="22.2296599"><ele>109.0</ele><time>2026-04-28T10:08:26.031Z</time></trkpt><trkpt lat="39.2559807" lon="22.2298464"><ele>108.5</ele><time>2026-04-28T10:08:27.032Z</time></trkpt><trkpt lat="39.2557699" lon="22.2300325"><ele>108.0</ele><time>2026-04-28T10:08:28.031Z</time></trkpt><trkpt lat="39.255554" lon="22.2302222"><ele>108.0</ele><time>2026-04-28T10:08:29.031Z</time></trkpt><trkpt lat="39.2553442" lon="22.230406"><ele>108.0</ele><time>2026-04-28T10:08:30.031Z</time></trkpt><trkpt lat="39.2551317" lon="22.2305922"><ele>108.5</ele><time>2026-04-28T10:08:31.031Z</time></trkpt><trkpt lat="39.2549204" lon="22.2307773"><ele>109.0</ele><time>2026-04-28T10:08:32.031Z</time></trkpt><trkpt lat="39.2547054" lon="22.2309649"><ele>109.0</ele><time>2026-04-28T10:08:33.031Z</time></trkpt><trkpt lat="39.2544964" lon="22.2311466"><ele>109.0</ele><time>2026-04-28T10:08:34.032Z</time></trkpt><trkpt lat="39.2542838" lon="22.2313318"><ele>109.0</ele><time>2026-04-28T10:08:35.032Z</time></trkpt><trkpt lat="39.2540714" lon="22.2315176"><ele>109.0</ele><time>2026-04-28T10:08:36.032Z</time></trkpt><trkpt lat="39.2538565" lon="22.2317069"><ele>108.5</ele><time>2026-04-28T10:08:37.032Z</time></trkpt><trkpt lat="39.2536492" lon="22.2318904"><ele>108.0</ele><time>2026-04-28T10:08:38.031Z</time></trkpt><trkpt lat="39.2534398" lon="22.2320773"><ele>108.0</ele><time>2026-04-28T10:08:39.032Z</time></trkpt><trkpt lat="39.2532311" lon="22.232263"><ele>108.0</ele><time>2026-04-28T10:08:40.032Z</time></trkpt><trkpt lat="39.2530206" lon="22.2324507"><ele>109.0</ele><time>2026-04-28T10:08:41.031Z</time></trkpt><trkpt lat="39.2528193" lon="22.232634"><ele>110.0</ele><time>2026-04-28T10:08:42.032Z</time></trkpt><trkpt lat="39.2526166" lon="22.2328248"><ele>110.0</ele><time>2026-04-28T10:08:43.031Z</time></trkpt><trkpt lat="39.2524176" lon="22.2330242"><ele>110.0</ele><time>2026-04-28T10:08:44.031Z</time></trkpt><trkpt lat="39.2522199" lon="22.2332402"><ele>109.5</ele><time>2026-04-28T10:08:45.032Z</time></trkpt><trkpt lat="39.2520366" lon="22.2334622"><ele>109.0</ele><time>2026-04-28T10:08:46.032Z</time></trkpt><trkpt lat="39.2518579" lon="22.2337018"><ele>109.0</ele><time>2026-04-28T10:08:47.031Z</time></trkpt><trkpt lat="39.2516874" lon="22.2339571"><ele>109.0</ele><time>2026-04-28T10:08:48.032Z</time></trkpt><trkpt lat="39.2515197" lon="22.2342294"><ele>109.0</ele><time>2026-04-28T10:08:49.031Z</time></trkpt><trkpt lat="39.2513612" lon="22.234502"><ele>109.0</ele><time>2026-04-28T10:08:50.032Z</time></trkpt><trkpt lat="39.2512039" lon="22.2347841"><ele>110.0</ele><time>2026-04-28T10:08:51.031Z</time></trkpt><trkpt lat="39.2510504" lon="22.2350671"><ele>111.0</ele><time>2026-04-28T10:08:52.032Z</time></trkpt><trkpt lat="39.250898" lon="22.2353553"><ele>111.0</ele><time>2026-04-28T10:08:53.032Z</time></trkpt><trkpt lat="39.2507529" lon="22.2356362"><ele>111.0</ele><time>2026-04-28T10:08:54.031Z</time></trkpt><trkpt lat="39.2506058" lon="22.2359224"><ele>110.5</ele><time>2026-04-28T10:08:55.031Z</time></trkpt><trkpt lat="39.250459" lon="22.2362097"><ele>110.0</ele><time>2026-04-28T10:08:56.031Z</time></trkpt><trkpt lat="39.2503092" lon="22.2365035"><ele>110.0</ele><time>2026-04-28T10:08:57.031Z</time></trkpt><trkpt lat="39.250163" lon="22.2367888"><ele>110.0</ele><time>2026-04-28T10:08:58.031Z</time></trkpt><trkpt lat="39.2500145" lon="22.2370789"><ele>110.5</ele><time>2026-04-28T10:08:59.032Z</time></trkpt><trkpt lat="39.2498661" lon="22.2373693"><ele>111.0</ele><time>2026-04-28T10:09:00.031Z</time></trkpt><trkpt lat="39.2497164" lon="22.2376629"><ele>111.0</ele><time>2026-04-28T10:09:01.032Z</time></trkpt><trkpt lat="39.2495721" lon="22.2379438"><ele>111.0</ele><time>2026-04-28T10:09:02.031Z</time></trkpt><trkpt lat="39.249427" lon="22.2382262"><ele>110.5</ele><time>2026-04-28T10:09:03.031Z</time></trkpt><trkpt lat="39.2492841" lon="22.2385066"><ele>110.0</ele><time>2026-04-28T10:09:04.031Z</time></trkpt><trkpt lat="39.2491438" lon="22.2387941"><ele>110.0</ele><time>2026-04-28T10:09:05.031Z</time></trkpt><trkpt lat="39.2490154" lon="22.2390827"><ele>110.0</ele><time>2026-04-28T10:09:06.032Z</time></trkpt><trkpt lat="39.2488936" lon="22.2393883"><ele>110.0</ele><time>2026-04-28T10:09:07.032Z</time></trkpt><trkpt lat="39.2487801" lon="22.2397036"><ele>110.0</ele><time>2026-04-28T10:09:08.031Z</time></trkpt><trkpt lat="39.2486746" lon="22.2400323"><ele>110.0</ele><time>2026-04-28T10:09:09.031Z</time></trkpt><trkpt lat="39.2485842" lon="22.2403583"><ele>110.0</ele><time>2026-04-28T10:09:10.032Z</time></trkpt><trkpt lat="39.2485037" lon="22.240697"><ele>109.5</ele><time>2026-04-28T10:09:11.032Z</time></trkpt><trkpt lat="39.2484343" lon="22.2410394"><ele>109.0</ele><time>2026-04-28T10:09:12.031Z</time></trkpt><trkpt lat="39.2483717" lon="22.2413882"><ele>109.0</ele><time>2026-04-28T10:09:13.032Z</time></trkpt><trkpt lat="39.2483161" lon="22.241726"><ele>109.0</ele><time>2026-04-28T10:09:14.032Z</time></trkpt><trkpt lat="39.2482623" lon="22.2420683"><ele>109.0</ele><time>2026-04-28T10:09:15.032Z</time></trkpt><trkpt lat="39.2482105" lon="22.2424099"><ele>109.0</ele><time>2026-04-28T10:09:16.031Z</time></trkpt><trkpt lat="39.2481592" lon="22.2427557"><ele>109.0</ele><time>2026-04-28T10:09:17.032Z</time></trkpt><trkpt lat="39.2481102" lon="22.2430898"><ele>109.0</ele><time>2026-04-28T10:09:18.031Z</time></trkpt><trkpt lat="39.2480605" lon="22.2434273"><ele>109.0</ele><time>2026-04-28T10:09:19.031Z</time></trkpt><trkpt lat="39.2480101" lon="22.2437638"><ele>109.0</ele><time>2026-04-28T10:09:20.032Z</time></trkpt><trkpt lat="39.2479579" lon="22.2441056"><ele>109.0</ele><time>2026-04-28T10:09:21.031Z</time></trkpt><trkpt lat="39.2479069" lon="22.2444353"><ele>109.0</ele><time>2026-04-28T10:09:22.032Z</time></trkpt><trkpt lat="39.2478555" lon="22.2447729"><ele>109.5</ele><time>2026-04-28T10:09:23.032Z</time></trkpt><trkpt lat="39.247806" lon="22.2451085"><ele>110.0</ele><time>2026-04-28T10:09:24.031Z</time></trkpt><trkpt lat="39.2477568" lon="22.2454469"><ele>109.5</ele><time>2026-04-28T10:09:25.032Z</time></trkpt><trkpt lat="39.2477085" lon="22.2457716"><ele>109.0</ele><time>2026-04-28T10:09:26.032Z</time></trkpt><trkpt lat="39.2476597" lon="22.2460981"><ele>109.0</ele><time>2026-04-28T10:09:27.031Z</time></trkpt><trkpt lat="39.2476111" lon="22.2464248"><ele>109.0</ele><time>2026-04-28T10:09:28.031Z</time></trkpt><trkpt lat="39.247562" lon="22.2467577"><ele>109.0</ele><time>2026-04-28T10:09:29.032Z</time></trkpt><trkpt lat="39.2475141" lon="22.2470796"><ele>109.0</ele><time>2026-04-28T10:09:30.031Z</time></trkpt><trkpt lat="39.2474655" lon="22.2474089"><ele>109.0</ele><time>2026-04-28T10:09:31.031Z</time></trkpt><trkpt lat="39.2474169" lon="22.2477393"><ele>109.0</ele><time>2026-04-28T10:09:32.032Z</time></trkpt><trkpt lat="39.2473666" lon="22.2480735"><ele>109.5</ele><time>2026-04-28T10:09:33.032Z</time></trkpt><trkpt lat="39.247318" lon="22.2483971"><ele>110.0</ele><time>2026-04-28T10:09:34.032Z</time></trkpt><trkpt lat="39.2472686" lon="22.2487256"><ele>110.0</ele><time>2026-04-28T10:09:35.031Z</time></trkpt><trkpt lat="39.2472197" lon="22.2490531"><ele>110.0</ele><time>2026-04-28T10:09:36.031Z</time></trkpt><trkpt lat="39.2471695" lon="22.2493836"><ele>110.0</ele><time>2026-04-28T10:09:37.031Z</time></trkpt><trkpt lat="39.2471216" lon="22.2497037"><ele>110.0</ele><time>2026-04-28T10:09:38.031Z</time></trkpt><trkpt lat="39.2470724" lon="22.250031"><ele>110.5</ele><time>2026-04-28T10:09:39.031Z</time></trkpt><trkpt lat="39.2470221" lon="22.250361"><ele>111.0</ele><time>2026-04-28T10:09:40.032Z</time></trkpt><trkpt lat="39.2469709" lon="22.2506995"><ele>110.0</ele><time>2026-04-28T10:09:41.031Z</time></trkpt><trkpt lat="39.2469215" lon="22.2510321"><ele>109.0</ele><time>2026-04-28T10:09:42.031Z</time></trkpt><trkpt lat="39.2468709" lon="22.2513734"><ele>109.5</ele><time>2026-04-28T10:09:43.031Z</time></trkpt><trkpt lat="39.2468204" lon="22.2517172"><ele>110.0</ele><time>2026-04-28T10:09:44.032Z</time></trkpt><trkpt lat="39.2467688" lon="22.2520681"><ele>109.5</ele><time>2026-04-28T10:09:45.032Z</time></trkpt><trkpt lat="39.2467179" lon="22.2524099"><ele>109.0</ele><time>2026-04-28T10:09:46.031Z</time></trkpt><trkpt lat="39.2466662" lon="22.252757"><ele>109.0</ele><time>2026-04-28T10:09:47.031Z</time></trkpt><trkpt lat="39.2466142" lon="22.2531057"><ele>109.0</ele><time>2026-04-28T10:09:48.032Z</time></trkpt><trkpt lat="39.2465615" lon="22.25346"><ele>109.0</ele><time>2026-04-28T10:09:49.032Z</time></trkpt><trkpt lat="39.2465112" lon="22.2538026"><ele>109.0</ele><time>2026-04-28T10:09:50.032Z</time></trkpt><trkpt lat="39.2464604" lon="22.2541515"><ele>109.5</ele><time>2026-04-28T10:09:51.031Z</time></trkpt><trkpt lat="39.2464088" lon="22.2545031"><ele>110.0</ele><time>2026-04-28T10:09:52.032Z</time></trkpt><trkpt lat="39.2463553" lon="22.2548615"><ele>110.0</ele><time>2026-04-28T10:09:53.031Z</time></trkpt><trkpt lat="39.2463009" lon="22.2552091"><ele>110.0</ele><time>2026-04-28T10:09:54.032Z</time></trkpt><trkpt lat="39.2462415" lon="22.2555602"><ele>109.5</ele><time>2026-04-28T10:09:55.032Z</time></trkpt><trkpt lat="39.2461754" lon="22.2559082"><ele>109.0</ele><time>2026-04-28T10:09:56.032Z</time></trkpt><trkpt lat="39.246098" lon="22.2562572"><ele>109.0</ele><time>2026-04-28T10:09:57.031Z</time></trkpt><trkpt lat="39.2460119" lon="22.2565916"><ele>109.0</ele><time>2026-04-28T10:09:58.032Z</time></trkpt><trkpt lat="39.2459135" lon="22.2569275"><ele>109.0</ele><time>2026-04-28T10:09:59.031Z</time></trkpt><trkpt lat="39.2458014" lon="22.2572602"><ele>109.0</ele><time>2026-04-28T10:10:00.032Z</time></trkpt><trkpt lat="39.2456749" lon="22.2576008"><ele>109.5</ele><time>2026-04-28T10:10:01.032Z</time></trkpt><trkpt lat="39.2455382" lon="22.2579313"><ele>110.0</ele><time>2026-04-28T10:10:02.032Z</time></trkpt><trkpt lat="39.2453812" lon="22.2582652"><ele>110.5</ele><time>2026-04-28T10:10:03.032Z</time></trkpt><trkpt lat="39.2452133" lon="22.2586"><ele>111.0</ele><time>2026-04-28T10:10:04.031Z</time></trkpt><trkpt lat="39.2450412" lon="22.2589402"><ele>111.0</ele><time>2026-04-28T10:10:05.032Z</time></trkpt><trkpt lat="39.2448752" lon="22.2592661"><ele>111.0</ele><time>2026-04-28T10:10:06.032Z</time></trkpt><trkpt lat="39.2447078" lon="22.259591"><ele>110.5</ele><time>2026-04-28T10:10:07.031Z</time></trkpt><trkpt lat="39.2445433" lon="22.2599115"><ele>110.0</ele><time>2026-04-28T10:10:08.032Z</time></trkpt><trkpt lat="39.2443796" lon="22.2602344"><ele>110.0</ele><time>2026-04-28T10:10:09.031Z</time></trkpt><trkpt lat="39.2442233" lon="22.2605427"><ele>110.0</ele><time>2026-04-28T10:10:10.031Z</time></trkpt><trkpt lat="39.2440662" lon="22.2608526"><ele>110.0</ele><time>2026-04-28T10:10:11.031Z</time></trkpt><trkpt lat="39.2439112" lon="22.261159"><ele>110.0</ele><time>2026-04-28T10:10:12.032Z</time></trkpt><trkpt lat="39.2437568" lon="22.2614634"><ele>110.0</ele><time>2026-04-28T10:10:13.032Z</time></trkpt><trkpt lat="39.2436136" lon="22.261746"><ele>110.0</ele><time>2026-04-28T10:10:14.032Z</time></trkpt><trkpt lat="39.2434744" lon="22.2620182"><ele>110.0</ele><time>2026-04-28T10:10:15.032Z</time></trkpt><trkpt lat="39.2433411" lon="22.2622801"><ele>110.0</ele><time>2026-04-28T10:10:16.032Z</time></trkpt><trkpt lat="39.2432081" lon="22.2625476"><ele>110.0</ele><time>2026-04-28T10:10:17.032Z</time></trkpt><trkpt lat="39.2430806" lon="22.2628096"><ele>110.0</ele><time>2026-04-28T10:10:18.032Z</time></trkpt><trkpt lat="39.2429534" lon="22.2630725"><ele>111.0</ele><time>2026-04-28T10:10:19.032Z</time></trkpt><trkpt lat="39.2428263" lon="22.263333"><ele>112.0</ele><time>2026-04-28T10:10:20.032Z</time></trkpt><trkpt lat="39.2426956" lon="22.2635972"><ele>112.0</ele><time>2026-04-28T10:10:21.032Z</time></trkpt><trkpt lat="39.2425659" lon="22.2638539"><ele>112.0</ele><time>2026-04-28T10:10:22.031Z</time></trkpt><trkpt lat="39.2424324" lon="22.2641174"><ele>111.5</ele><time>2026-04-28T10:10:23.031Z</time></trkpt><trkpt lat="39.242298" lon="22.2643824"><ele>111.0</ele><time>2026-04-28T10:10:24.031Z</time></trkpt><trkpt lat="39.2421599" lon="22.2646498"><ele>110.5</ele><time>2026-04-28T10:10:25.032Z</time></trkpt><trkpt lat="39.2420233" lon="22.2649021"><ele>110.0</ele><time>2026-04-28T10:10:26.032Z</time></trkpt><trkpt lat="39.2418843" lon="22.2651534"><ele>110.0</ele><time>2026-04-28T10:10:27.031Z</time></trkpt><trkpt lat="39.2417466" lon="22.2654024"><ele>110.0</ele><time>2026-04-28T10:10:28.031Z</time></trkpt><trkpt lat="39.2416096" lon="22.2656561"><ele>111.5</ele><time>2026-04-28T10:10:29.031Z</time></trkpt><trkpt lat="39.2414804" lon="22.2659023"><ele>113.0</ele><time>2026-04-28T10:10:30.031Z</time></trkpt><trkpt lat="39.2413505" lon="22.2661517"><ele>113.0</ele><time>2026-04-28T10:10:31.032Z</time></trkpt><trkpt lat="39.2412238" lon="22.2663977"><ele>113.0</ele><time>2026-04-28T10:10:32.032Z</time></trkpt><trkpt lat="39.2410981" lon="22.2666443"><ele>113.0</ele><time>2026-04-28T10:10:33.032Z</time></trkpt><trkpt lat="39.2409781" lon="22.2668828"><ele>113.0</ele><time>2026-04-28T10:10:34.031Z</time></trkpt><trkpt lat="39.2408561" lon="22.2671232"><ele>113.0</ele><time>2026-04-28T10:10:35.031Z</time></trkpt><trkpt lat="39.2407351" lon="22.2673644"><ele>113.0</ele><time>2026-04-28T10:10:36.031Z</time></trkpt><trkpt lat="39.2406124" lon="22.267613"><ele>113.0</ele><time>2026-04-28T10:10:37.031Z</time></trkpt><trkpt lat="39.2404934" lon="22.2678565"><ele>113.0</ele><time>2026-04-28T10:10:38.032Z</time></trkpt><trkpt lat="39.2403732" lon="22.2681071"><ele>113.0</ele><time>2026-04-28T10:10:39.031Z</time></trkpt><trkpt lat="39.2402537" lon="22.2683596"><ele>113.0</ele><time>2026-04-28T10:10:40.032Z</time></trkpt><trkpt lat="39.2401306" lon="22.2686181"><ele>113.0</ele><time>2026-04-28T10:10:41.031Z</time></trkpt><trkpt lat="39.2400077" lon="22.2688679"><ele>112.5</ele><time>2026-04-28T10:10:42.031Z</time></trkpt><trkpt lat="39.2398806" lon="22.2691227"><ele>112.0</ele><time>2026-04-28T10:10:43.031Z</time></trkpt><trkpt lat="39.2397503" lon="22.2693814"><ele>111.5</ele><time>2026-04-28T10:10:44.031Z</time></trkpt><trkpt lat="39.2396184" lon="22.2696413"><ele>111.0</ele><time>2026-04-28T10:10:45.031Z</time></trkpt><trkpt lat="39.2394833" lon="22.2699074"><ele>112.0</ele><time>2026-04-28T10:10:46.032Z</time></trkpt><trkpt lat="39.2393504" lon="22.2701692"><ele>113.0</ele><time>2026-04-28T10:10:47.032Z</time></trkpt><trkpt lat="39.2392147" lon="22.2704371"><ele>113.0</ele><time>2026-04-28T10:10:48.032Z</time></trkpt><trkpt lat="39.2390783" lon="22.2707078"><ele>113.0</ele><time>2026-04-28T10:10:49.031Z</time></trkpt><trkpt lat="39.2389475" lon="22.2709682"><ele>113.0</ele><time>2026-04-28T10:10:50.032Z</time></trkpt><trkpt lat="39.2388151" lon="22.2712318"><ele>113.0</ele><time>2026-04-28T10:10:51.032Z</time></trkpt><trkpt lat="39.2386826" lon="22.2714934"><ele>113.5</ele><time>2026-04-28T10:10:52.032Z</time></trkpt><trkpt lat="39.2385476" lon="22.2717558"><ele>114.0</ele><time>2026-04-28T10:10:53.031Z</time></trkpt><trkpt lat="39.238417" lon="22.2720063"><ele>114.0</ele><time>2026-04-28T10:10:54.031Z</time></trkpt><trkpt lat="39.2382838" lon="22.2722567"><ele>114.0</ele><time>2026-04-28T10:10:55.032Z</time></trkpt><trkpt lat="39.2381526" lon="22.2725003"><ele>114.33333333333334</ele><time>2026-04-28T10:10:56.031Z</time></trkpt><trkpt lat="39.2380243" lon="22.2727404"><ele>114.66666666666667</ele><time>2026-04-28T10:10:57.031Z</time></trkpt><trkpt lat="39.2379051" lon="22.2729666"><ele>115.0</ele><time>2026-04-28T10:10:58.031Z</time></trkpt><trkpt lat="39.2377886" lon="22.2731912"><ele>115.0</ele><time>2026-04-28T10:10:59.032Z</time></trkpt><trkpt lat="39.2376768" lon="22.273408"><ele>115.0</ele><time>2026-04-28T10:11:00.032Z</time></trkpt><trkpt lat="39.2375685" lon="22.2736173"><ele>115.0</ele><time>2026-04-28T10:11:01.032Z</time></trkpt><trkpt lat="39.2374621" lon="22.2738187"><ele>115.33333333333334</ele><time>2026-04-28T10:11:02.031Z</time></trkpt><trkpt lat="39.2373546" lon="22.2740112"><ele>115.66666666666666</ele><time>2026-04-28T10:11:03.032Z</time></trkpt><trkpt lat="39.2372393" lon="22.2742024"><ele>116.0</ele><time>2026-04-28T10:11:04.031Z</time></trkpt><trkpt lat="39.2371211" lon="22.2743796"><ele>116.0</ele><time>2026-04-28T10:11:05.031Z</time></trkpt><trkpt lat="39.2369958" lon="22.2745473"><ele>116.0</ele><time>2026-04-28T10:11:06.032Z</time></trkpt><trkpt lat="39.2368565" lon="22.2747095"><ele>116.0</ele><time>2026-04-28T10:11:07.031Z</time></trkpt><trkpt lat="39.2367072" lon="22.2748677"><ele>116.0</ele><time>2026-04-28T10:11:08.031Z</time></trkpt><trkpt lat="39.2365492" lon="22.2750214"><ele>116.0</ele><time>2026-04-28T10:11:09.031Z</time></trkpt><trkpt lat="39.2363927" lon="22.2751653"><ele>116.0</ele><time>2026-04-28T10:11:10.031Z</time></trkpt><trkpt lat="39.2362307" lon="22.2753089"><ele>116.0</ele><time>2026-04-28T10:11:11.032Z</time></trkpt><trkpt lat="39.2360673" lon="22.2754538"><ele>116.0</ele><time>2026-04-28T10:11:12.031Z</time></trkpt><trkpt lat="39.2359012" lon="22.2756062"><ele>116.0</ele><time>2026-04-28T10:11:13.031Z</time></trkpt><trkpt lat="39.2357407" lon="22.2757608"><ele>116.0</ele><time>2026-04-28T10:11:14.031Z</time></trkpt><trkpt lat="39.2355796" lon="22.2759261"><ele>116.0</ele><time>2026-04-28T10:11:15.032Z</time></trkpt><trkpt lat="39.2354207" lon="22.2760984"><ele>116.0</ele><time>2026-04-28T10:11:16.032Z</time></trkpt><trkpt lat="39.2352613" lon="22.2762789"><ele>116.0</ele><time>2026-04-28T10:11:17.031Z</time></trkpt><trkpt lat="39.2351055" lon="22.2764576"><ele>116.0</ele><time>2026-04-28T10:11:18.032Z</time></trkpt><trkpt lat="39.2349483" lon="22.276635"><ele>116.0</ele><time>2026-04-28T10:11:19.032Z</time></trkpt><trkpt lat="39.2347843" lon="22.2768091"><ele>115.66666666666666</ele><time>2026-04-28T10:11:20.032Z</time></trkpt><trkpt lat="39.234615" lon="22.2769659"><ele>115.33333333333334</ele><time>2026-04-28T10:11:21.031Z</time></trkpt><trkpt lat="39.2344399" lon="22.277097"><ele>115.0</ele><time>2026-04-28T10:11:22.031Z</time></trkpt><trkpt lat="39.2342653" lon="22.2772053"><ele>115.0</ele><time>2026-04-28T10:11:23.032Z</time></trkpt><trkpt lat="39.2340892" lon="22.2773075"><ele>115.0</ele><time>2026-04-28T10:11:24.032Z</time></trkpt><trkpt lat="39.2339124" lon="22.2774102"><ele>115.0</ele><time>2026-04-28T10:11:25.032Z</time></trkpt><trkpt lat="39.2337407" lon="22.2775122"><ele>115.0</ele><time>2026-04-28T10:11:26.031Z</time></trkpt><trkpt lat="39.2335596" lon="22.2776166"><ele>115.0</ele><time>2026-04-28T10:11:27.031Z</time></trkpt><trkpt lat="39.2333699" lon="22.2777225"><ele>115.0</ele><time>2026-04-28T10:11:28.032Z</time></trkpt><trkpt lat="39.2331735" lon="22.2778315"><ele>114.66666666666667</ele><time>2026-04-28T10:11:29.032Z</time></trkpt><trkpt lat="39.2329847" lon="22.2779374"><ele>114.33333333333334</ele><time>2026-04-28T10:11:30.032Z</time></trkpt><trkpt lat="39.232794" lon="22.2780475"><ele>114.0</ele><time>2026-04-28T10:11:31.032Z</time></trkpt><trkpt lat="39.2326034" lon="22.2781609"><ele>114.66666666666666</ele><time>2026-04-28T10:11:32.032Z</time></trkpt><trkpt lat="39.2324104" lon="22.2782847"><ele>115.33333333333333</ele><time>2026-04-28T10:11:33.032Z</time></trkpt><trkpt lat="39.2322258" lon="22.2784163"><ele>116.0</ele><time>2026-04-28T10:11:34.031Z</time></trkpt><trkpt lat="39.2320425" lon="22.2785638"><ele>116.0</ele><time>2026-04-28T10:11:35.032Z</time></trkpt><trkpt lat="39.2318623" lon="22.278725"><ele>116.0</ele><time>2026-04-28T10:11:36.032Z</time></trkpt><trkpt lat="39.231682" lon="22.2788978"><ele>116.0</ele><time>2026-04-28T10:11:37.032Z</time></trkpt><trkpt lat="39.2315061" lon="22.2790703"><ele>116.5</ele><time>2026-04-28T10:11:38.031Z</time></trkpt><trkpt lat="39.2313307" lon="22.2792443"><ele>117.0</ele><time>2026-04-28T10:11:39.032Z</time></trkpt><trkpt lat="39.231148" lon="22.2794273"><ele>117.0</ele><time>2026-04-28T10:11:40.031Z</time></trkpt><trkpt lat="39.2309679" lon="22.2796083"><ele>117.0</ele><time>2026-04-28T10:11:41.032Z</time></trkpt><trkpt lat="39.2307896" lon="22.2797885"><ele>118.0</ele><time>2026-04-28T10:11:42.032Z</time></trkpt><trkpt lat="39.2306095" lon="22.2799716"><ele>119.0</ele><time>2026-04-28T10:11:43.031Z</time></trkpt><trkpt lat="39.2304292" lon="22.2801532"><ele>119.0</ele><time>2026-04-28T10:11:44.032Z</time></trkpt><trkpt lat="39.2302458" lon="22.2803336"><ele>119.0</ele><time>2026-04-28T10:11:45.032Z</time></trkpt><trkpt lat="39.2300627" lon="22.2804994"><ele>119.0</ele><time>2026-04-28T10:11:46.031Z</time></trkpt><trkpt lat="39.2298717" lon="22.2806488"><ele>119.0</ele><time>2026-04-28T10:11:47.031Z</time></trkpt><trkpt lat="39.229665" lon="22.2807849"><ele>118.5</ele><time>2026-04-28T10:11:48.031Z</time></trkpt><trkpt lat="39.2294545" lon="22.280903"><ele>118.0</ele><time>2026-04-28T10:11:49.032Z</time></trkpt><trkpt lat="39.2292391" lon="22.2810079"><ele>118.0</ele><time>2026-04-28T10:11:50.032Z</time></trkpt><trkpt lat="39.2290238" lon="22.2811043"><ele>118.0</ele><time>2026-04-28T10:11:51.032Z</time></trkpt><trkpt lat="39.2287988" lon="22.2812035"><ele>118.5</ele><time>2026-04-28T10:11:52.031Z</time></trkpt><trkpt lat="39.2285752" lon="22.2813029"><ele>119.0</ele><time>2026-04-28T10:11:53.032Z</time></trkpt><trkpt lat="39.2283512" lon="22.2814055"><ele>117.5</ele><time>2026-04-28T10:11:54.032Z</time></trkpt><trkpt lat="39.2281309" lon="22.2815082"><ele>116.0</ele><time>2026-04-28T10:11:55.032Z</time></trkpt><trkpt lat="39.2279037" lon="22.2816132"><ele>116.0</ele><time>2026-04-28T10:11:56.031Z</time></trkpt><trkpt lat="39.2276806" lon="22.2817155"><ele>116.0</ele><time>2026-04-28T10:11:57.032Z</time></trkpt><trkpt lat="39.2274568" lon="22.2818178"><ele>116.5</ele><time>2026-04-28T10:11:58.032Z</time></trkpt><trkpt lat="39.2272334" lon="22.2819205"><ele>117.0</ele><time>2026-04-28T10:11:59.031Z</time></trkpt><trkpt lat="39.2270047" lon="22.2820263"><ele>117.0</ele><time>2026-04-28T10:12:00.032Z</time></trkpt><trkpt lat="39.2267687" lon="22.2821353"><ele>117.0</ele><time>2026-04-28T10:12:01.032Z</time></trkpt><trkpt lat="39.2265362" lon="22.2822427"><ele>117.0</ele><time>2026-04-28T10:12:02.031Z</time></trkpt><trkpt lat="39.2262983" lon="22.2823535"><ele>117.0</ele><time>2026-04-28T10:12:03.032Z</time></trkpt><trkpt lat="39.2260529" lon="22.2824665"><ele>117.0</ele><time>2026-04-28T10:12:04.032Z</time></trkpt><trkpt lat="39.2258107" lon="22.282578"><ele>117.0</ele><time>2026-04-28T10:12:05.031Z</time></trkpt><trkpt lat="39.2255671" lon="22.2826899"><ele>118.0</ele><time>2026-04-28T10:12:06.031Z</time></trkpt><trkpt lat="39.2253259" lon="22.2828012"><ele>119.0</ele><time>2026-04-28T10:12:07.031Z</time></trkpt><trkpt lat="39.2250766" lon="22.2829159"><ele>119.0</ele><time>2026-04-28T10:12:08.032Z</time></trkpt><trkpt lat="39.224831" lon="22.2830297"><ele>119.0</ele><time>2026-04-28T10:12:09.032Z</time></trkpt><trkpt lat="39.2245848" lon="22.2831437"><ele>118.5</ele><time>2026-04-28T10:12:10.032Z</time></trkpt><trkpt lat="39.2243417" lon="22.2832558"><ele>118.0</ele><time>2026-04-28T10:12:11.032Z</time></trkpt><trkpt lat="39.2240905" lon="22.2833715"><ele>118.0</ele><time>2026-04-28T10:12:12.032Z</time></trkpt><trkpt lat="39.2238431" lon="22.2834869"><ele>118.0</ele><time>2026-04-28T10:12:13.032Z</time></trkpt><trkpt lat="39.2235995" lon="22.2836006"><ele>118.0</ele><time>2026-04-28T10:12:14.032Z</time></trkpt><trkpt lat="39.2233696" lon="22.2837053"><ele>118.0</ele><time>2026-04-28T10:12:15.031Z</time></trkpt><trkpt lat="39.223141" lon="22.2838096"><ele>118.0</ele><time>2026-04-28T10:12:16.032Z</time></trkpt><trkpt lat="39.2229176" lon="22.2839123"><ele>118.0</ele><time>2026-04-28T10:12:17.031Z</time></trkpt><trkpt lat="39.2226989" lon="22.2840136"><ele>117.5</ele><time>2026-04-28T10:12:18.031Z</time></trkpt><trkpt lat="39.2224752" lon="22.2841178"><ele>117.0</ele><time>2026-04-28T10:12:19.032Z</time></trkpt><trkpt lat="39.2222502" lon="22.2842222"><ele>118.0</ele><time>2026-04-28T10:12:20.032Z</time></trkpt><trkpt lat="39.2220258" lon="22.2843266"><ele>119.0</ele><time>2026-04-28T10:12:21.031Z</time></trkpt><trkpt lat="39.2218096" lon="22.2844267"><ele>119.0</ele><time>2026-04-28T10:12:22.032Z</time></trkpt><trkpt lat="39.2216044" lon="22.2845225"><ele>119.0</ele><time>2026-04-28T10:12:23.031Z</time></trkpt><trkpt lat="39.2213979" lon="22.2846192"><ele>119.0</ele><time>2026-04-28T10:12:24.032Z</time></trkpt><trkpt lat="39.2211968" lon="22.2847136"><ele>119.0</ele><time>2026-04-28T10:12:25.031Z</time></trkpt><trkpt lat="39.2209951" lon="22.2848087"><ele>119.0</ele><time>2026-04-28T10:12:26.031Z</time></trkpt><trkpt lat="39.2207928" lon="22.2849032"><ele>119.0</ele><time>2026-04-28T10:12:27.032Z</time></trkpt><trkpt lat="39.2205817" lon="22.2850023"><ele>119.0</ele><time>2026-04-28T10:12:28.031Z</time></trkpt><trkpt lat="39.2203723" lon="22.2850999"><ele>119.0</ele><time>2026-04-28T10:12:29.031Z</time></trkpt><trkpt lat="39.2201629" lon="22.2851968"><ele>119.0</ele><time>2026-04-28T10:12:30.031Z</time></trkpt><trkpt lat="39.2199568" lon="22.2852923"><ele>119.0</ele><time>2026-04-28T10:12:31.031Z</time></trkpt><trkpt lat="39.2197443" lon="22.2853912"><ele>119.0</ele><time>2026-04-28T10:12:32.032Z</time></trkpt><trkpt lat="39.2195345" lon="22.2854893"><ele>119.0</ele><time>2026-04-28T10:12:33.032Z</time></trkpt><trkpt lat="39.2193231" lon="22.2855885"><ele>119.5</ele><time>2026-04-28T10:12:34.032Z</time></trkpt><trkpt lat="39.2191118" lon="22.2856884"><ele>120.0</ele><time>2026-04-28T10:12:35.032Z</time></trkpt><trkpt lat="39.2188947" lon="22.28579"><ele>120.5</ele><time>2026-04-28T10:12:36.031Z</time></trkpt><trkpt lat="39.2186698" lon="22.2858956"><ele>121.0</ele><time>2026-04-28T10:12:37.031Z</time></trkpt><trkpt lat="39.2184478" lon="22.2860002"><ele>121.0</ele><time>2026-04-28T10:12:38.031Z</time></trkpt><trkpt lat="39.2182205" lon="22.2861064"><ele>121.0</ele><time>2026-04-28T10:12:39.032Z</time></trkpt><trkpt lat="39.2179863" lon="22.2862175"><ele>120.5</ele><time>2026-04-28T10:12:40.032Z</time></trkpt><trkpt lat="39.2177529" lon="22.2863271"><ele>120.0</ele><time>2026-04-28T10:12:41.031Z</time></trkpt><trkpt lat="39.2175172" lon="22.2864352"><ele>120.5</ele><time>2026-04-28T10:12:42.032Z</time></trkpt><trkpt lat="39.2172838" lon="22.2865414"><ele>121.0</ele><time>2026-04-28T10:12:43.031Z</time></trkpt><trkpt lat="39.2170423" lon="22.286653"><ele>121.0</ele><time>2026-04-28T10:12:44.031Z</time></trkpt><trkpt lat="39.2168044" lon="22.2867626"><ele>121.0</ele><time>2026-04-28T10:12:45.031Z</time></trkpt><trkpt lat="39.2165662" lon="22.2868727"><ele>120.5</ele><time>2026-04-28T10:12:46.031Z</time></trkpt><trkpt lat="39.2163327" lon="22.2869823"><ele>120.0</ele><time>2026-04-28T10:12:47.031Z</time></trkpt><trkpt lat="39.2160904" lon="22.2870954"><ele>120.0</ele><time>2026-04-28T10:12:48.031Z</time></trkpt><trkpt lat="39.2158511" lon="22.287207"><ele>120.0</ele><time>2026-04-28T10:12:49.031Z</time></trkpt><trkpt lat="39.2156116" lon="22.287318"><ele>121.0</ele><time>2026-04-28T10:12:50.031Z</time></trkpt><trkpt lat="39.2153753" lon="22.287427"><ele>122.0</ele><time>2026-04-28T10:12:51.031Z</time></trkpt><trkpt lat="39.2151309" lon="22.2875398"><ele>122.0</ele><time>2026-04-28T10:12:52.032Z</time></trkpt><trkpt lat="39.2148912" lon="22.2876501"><ele>122.0</ele><time>2026-04-28T10:12:53.032Z</time></trkpt><trkpt lat="39.2146519" lon="22.2877612"><ele>122.0</ele><time>2026-04-28T10:12:54.032Z</time></trkpt><trkpt lat="39.2144172" lon="22.2878701"><ele>122.0</ele><time>2026-04-28T10:12:55.031Z</time></trkpt><trkpt lat="39.2141757" lon="22.2879818"><ele>122.0</ele><time>2026-04-28T10:12:56.032Z</time></trkpt><trkpt lat="39.2139389" lon="22.2880905"><ele>122.0</ele><time>2026-04-28T10:12:57.031Z</time></trkpt><trkpt lat="39.213704" lon="22.2881968"><ele>122.5</ele><time>2026-04-28T10:12:58.032Z</time></trkpt><trkpt lat="39.2134747" lon="22.2882988"><ele>123.0</ele><time>2026-04-28T10:12:59.031Z</time></trkpt><trkpt lat="39.2132401" lon="22.2883982"><ele>124.5</ele><time>2026-04-28T10:13:00.032Z</time></trkpt><trkpt lat="39.213014" lon="22.2884783"><ele>126.0</ele><time>2026-04-28T10:13:01.031Z</time></trkpt><trkpt lat="39.2127858" lon="22.288531"><ele>126.0</ele><time>2026-04-28T10:13:02.031Z</time></trkpt><trkpt lat="39.2125694" lon="22.2885474"><ele>126.0</ele><time>2026-04-28T10:13:03.032Z</time></trkpt><trkpt lat="39.2123533" lon="22.2885551"><ele>126.0</ele><time>2026-04-28T10:13:04.032Z</time></trkpt><trkpt lat="39.2121426" lon="22.2885694"><ele>125.66666666666666</ele><time>2026-04-28T10:13:05.032Z</time></trkpt><trkpt lat="39.2119296" lon="22.2886046"><ele>125.33333333333333</ele><time>2026-04-28T10:13:06.032Z</time></trkpt><trkpt lat="39.2117124" lon="22.2886654"><ele>125.0</ele><time>2026-04-28T10:13:07.032Z</time></trkpt><trkpt lat="39.211475" lon="22.2887483"><ele>125.0</ele><time>2026-04-28T10:13:08.032Z</time></trkpt><trkpt lat="39.21123" lon="22.2888357"><ele>125.0</ele><time>2026-04-28T10:13:09.031Z</time></trkpt><trkpt lat="39.2109838" lon="22.2889166"><ele>126.0</ele><time>2026-04-28T10:13:10.032Z</time></trkpt><trkpt lat="39.2107414" lon="22.2889874"><ele>127.0</ele><time>2026-04-28T10:13:11.032Z</time></trkpt><trkpt lat="39.2104902" lon="22.2890537"><ele>127.5</ele><time>2026-04-28T10:13:12.032Z</time></trkpt><trkpt lat="39.2102427" lon="22.2891157"><ele>128.0</ele><time>2026-04-28T10:13:13.031Z</time></trkpt><trkpt lat="39.2099954" lon="22.2891767"><ele>128.0</ele><time>2026-04-28T10:13:14.032Z</time></trkpt><trkpt lat="39.2097516" lon="22.2892374"><ele>128.0</ele><time>2026-04-28T10:13:15.032Z</time></trkpt><trkpt lat="39.2094984" lon="22.2892996"><ele>128.0</ele><time>2026-04-28T10:13:16.031Z</time></trkpt><trkpt lat="39.2092491" lon="22.2893589"><ele>128.0</ele><time>2026-04-28T10:13:17.031Z</time></trkpt><trkpt lat="39.2089998" lon="22.2894163"><ele>128.0</ele><time>2026-04-28T10:13:18.032Z</time></trkpt><trkpt lat="39.2087551" lon="22.2894738"><ele>128.0</ele><time>2026-04-28T10:13:19.032Z</time></trkpt><trkpt lat="39.2085032" lon="22.2895353"><ele>128.0</ele><time>2026-04-28T10:13:20.031Z</time></trkpt><trkpt lat="39.208256" lon="22.2895959"><ele>128.0</ele><time>2026-04-28T10:13:21.031Z</time></trkpt><trkpt lat="39.2080096" lon="22.2896558"><ele>128.0</ele><time>2026-04-28T10:13:22.032Z</time></trkpt><trkpt lat="39.2077646" lon="22.2897147"><ele>128.0</ele><time>2026-04-28T10:13:23.031Z</time></trkpt><trkpt lat="39.2075073" lon="22.2897761"><ele>127.5</ele><time>2026-04-28T10:13:24.032Z</time></trkpt><trkpt lat="39.2072492" lon="22.2898373"><ele>127.0</ele><time>2026-04-28T10:13:25.031Z</time></trkpt><trkpt lat="39.2069836" lon="22.2899005"><ele>127.0</ele><time>2026-04-28T10:13:26.031Z</time></trkpt><trkpt lat="39.2067153" lon="22.2899646"><ele>127.0</ele><time>2026-04-28T10:13:27.031Z</time></trkpt><trkpt lat="39.206434" lon="22.2900317"><ele>128.5</ele><time>2026-04-28T10:13:28.031Z</time></trkpt><trkpt lat="39.2061574" lon="22.2900981"><ele>130.0</ele><time>2026-04-28T10:13:29.031Z</time></trkpt><trkpt lat="39.2058831" lon="22.2901632"><ele>130.5</ele><time>2026-04-28T10:13:30.032Z</time></trkpt><trkpt lat="39.2056165" lon="22.2902246"><ele>131.0</ele><time>2026-04-28T10:13:31.031Z</time></trkpt><trkpt lat="39.2053456" lon="22.290289"><ele>131.0</ele><time>2026-04-28T10:13:32.032Z</time></trkpt><trkpt lat="39.2050832" lon="22.2903527"><ele>131.0</ele><time>2026-04-28T10:13:33.032Z</time></trkpt><trkpt lat="39.2048234" lon="22.2904157"><ele>129.5</ele><time>2026-04-28T10:13:34.031Z</time></trkpt><trkpt lat="39.2045695" lon="22.2904775"><ele>128.0</ele><time>2026-04-28T10:13:35.032Z</time></trkpt><trkpt lat="39.2043085" lon="22.2905397"><ele>128.5</ele><time>2026-04-28T10:13:36.032Z</time></trkpt><trkpt lat="39.2040515" lon="22.2905978"><ele>129.0</ele><time>2026-04-28T10:13:37.032Z</time></trkpt><trkpt lat="39.2037951" lon="22.2906548"><ele>130.0</ele><time>2026-04-28T10:13:38.031Z</time></trkpt><trkpt lat="39.2035438" lon="22.2907128"><ele>131.0</ele><time>2026-04-28T10:13:39.031Z</time></trkpt><trkpt lat="39.2032838" lon="22.2907741"><ele>130.5</ele><time>2026-04-28T10:13:40.031Z</time></trkpt><trkpt lat="39.2030264" lon="22.2908354"><ele>130.0</ele><time>2026-04-28T10:13:41.031Z</time></trkpt><trkpt lat="39.2027678" lon="22.2908968"><ele>130.0</ele><time>2026-04-28T10:13:42.032Z</time></trkpt><trkpt lat="39.2025132" lon="22.2909563"><ele>130.0</ele><time>2026-04-28T10:13:43.031Z</time></trkpt><trkpt lat="39.2022509" lon="22.2910169"><ele>130.5</ele><time>2026-04-28T10:13:44.031Z</time></trkpt><trkpt lat="39.2019922" lon="22.2910757"><ele>131.0</ele><time>2026-04-28T10:13:45.031Z</time></trkpt><trkpt lat="39.2017332" lon="22.2911334"><ele>131.0</ele><time>2026-04-28T10:13:46.032Z</time></trkpt><trkpt lat="39.2014773" lon="22.2911888"><ele>131.0</ele><time>2026-04-28T10:13:47.032Z</time></trkpt><trkpt lat="39.2012135" lon="22.291251"><ele>131.0</ele><time>2026-04-28T10:13:48.031Z</time></trkpt><trkpt lat="39.2009551" lon="22.291315"><ele>131.0</ele><time>2026-04-28T10:13:49.031Z</time></trkpt><trkpt lat="39.2006968" lon="22.2913807"><ele>131.5</ele><time>2026-04-28T10:13:50.032Z</time></trkpt><trkpt lat="39.2004425" lon="22.291446"><ele>132.0</ele><time>2026-04-28T10:13:51.032Z</time></trkpt><trkpt lat="39.2001804" lon="22.2915131"><ele>132.0</ele><time>2026-04-28T10:13:52.032Z</time></trkpt><trkpt lat="39.1999218" lon="22.2915762"><ele>132.0</ele><time>2026-04-28T10:13:53.032Z</time></trkpt><trkpt lat="39.1996626" lon="22.2916383"><ele>131.5</ele><time>2026-04-28T10:13:54.031Z</time></trkpt><trkpt lat="39.1994062" lon="22.2916997"><ele>131.0</ele><time>2026-04-28T10:13:55.032Z</time></trkpt><trkpt lat="39.1991415" lon="22.291763"><ele>131.0</ele><time>2026-04-28T10:13:56.032Z</time></trkpt><trkpt lat="39.1988822" lon="22.2918268"><ele>131.0</ele><time>2026-04-28T10:13:57.031Z</time></trkpt><trkpt lat="39.1986213" lon="22.2918899"><ele>131.0</ele><time>2026-04-28T10:13:58.031Z</time></trkpt><trkpt lat="39.1983615" lon="22.2919501"><ele>131.0</ele><time>2026-04-28T10:13:59.031Z</time></trkpt><trkpt lat="39.1980912" lon="22.2920116"><ele>131.5</ele><time>2026-04-28T10:14:00.031Z</time></trkpt><trkpt lat="39.1978249" lon="22.2920739"><ele>132.0</ele><time>2026-04-28T10:14:01.031Z</time></trkpt><trkpt lat="39.1975604" lon="22.2921367"><ele>132.0</ele><time>2026-04-28T10:14:02.032Z</time></trkpt><trkpt lat="39.1973015" lon="22.2921989"><ele>132.0</ele><time>2026-04-28T10:14:03.031Z</time></trkpt><trkpt lat="39.19704" lon="22.2922627"><ele>132.0</ele><time>2026-04-28T10:14:04.031Z</time></trkpt><trkpt lat="39.1967971" lon="22.2923226"><ele>132.0</ele><time>2026-04-28T10:14:05.032Z</time></trkpt><trkpt lat="39.1965751" lon="22.2923774"><ele>132.0</ele><time>2026-04-28T10:14:06.032Z</time></trkpt><trkpt lat="39.1963731" lon="22.2924277"><ele>132.0</ele><time>2026-04-28T10:14:07.032Z</time></trkpt><trkpt lat="39.196177" lon="22.292475"><ele>132.0</ele><time>2026-04-28T10:14:08.031Z</time></trkpt><trkpt lat="39.1959833" lon="22.2925208"><ele>132.0</ele><time>2026-04-28T10:14:09.032Z</time></trkpt><trkpt lat="39.1957731" lon="22.2925706"><ele>132.0</ele><time>2026-04-28T10:14:10.031Z</time></trkpt><trkpt lat="39.1955505" lon="22.2926246"><ele>132.0</ele><time>2026-04-28T10:14:11.031Z</time></trkpt><trkpt lat="39.195312" lon="22.2926828"><ele>132.5</ele><time>2026-04-28T10:14:12.031Z</time></trkpt><trkpt lat="39.1950646" lon="22.2927428"><ele>133.0</ele><time>2026-04-28T10:14:13.032Z</time></trkpt><trkpt lat="39.1948088" lon="22.2928037"><ele>133.0</ele><time>2026-04-28T10:14:14.031Z</time></trkpt><trkpt lat="39.1945582" lon="22.292863"><ele>133.0</ele><time>2026-04-28T10:14:15.031Z</time></trkpt><trkpt lat="39.1943001" lon="22.2929239"><ele>133.0</ele><time>2026-04-28T10:14:16.032Z</time></trkpt><trkpt lat="39.1940451" lon="22.2929846"><ele>133.0</ele><time>2026-04-28T10:14:17.032Z</time></trkpt><trkpt lat="39.1937909" lon="22.2930465"><ele>133.5</ele><time>2026-04-28T10:14:18.031Z</time></trkpt><trkpt lat="39.1935408" lon="22.2931072"><ele>134.0</ele><time>2026-04-28T10:14:19.032Z</time></trkpt><trkpt lat="39.1932826" lon="22.2931704"><ele>133.5</ele><time>2026-04-28T10:14:20.031Z</time></trkpt><trkpt lat="39.1930291" lon="22.2932324"><ele>133.0</ele><time>2026-04-28T10:14:21.032Z</time></trkpt><trkpt lat="39.1927758" lon="22.2932935"><ele>133.0</ele><time>2026-04-28T10:14:22.031Z</time></trkpt><trkpt lat="39.1925262" lon="22.2933519"><ele>133.0</ele><time>2026-04-28T10:14:23.031Z</time></trkpt><trkpt lat="39.1922634" lon="22.2934128"><ele>133.5</ele><time>2026-04-28T10:14:24.032Z</time></trkpt><trkpt lat="39.1920002" lon="22.2934759"><ele>134.0</ele><time>2026-04-28T10:14:25.031Z</time></trkpt><trkpt lat="39.1917339" lon="22.2935397"><ele>134.0</ele><time>2026-04-28T10:14:26.031Z</time></trkpt><trkpt lat="39.1914715" lon="22.2936026"><ele>134.0</ele><time>2026-04-28T10:14:27.031Z</time></trkpt><trkpt lat="39.1912014" lon="22.2936685"><ele>134.0</ele><time>2026-04-28T10:14:28.031Z</time></trkpt><trkpt lat="39.1909367" lon="22.2937337"><ele>134.0</ele><time>2026-04-28T10:14:29.032Z</time></trkpt><trkpt lat="39.1906733" lon="22.2937971"><ele>134.0</ele><time>2026-04-28T10:14:30.031Z</time></trkpt><trkpt lat="39.1904153" lon="22.2938578"><ele>134.0</ele><time>2026-04-28T10:14:31.032Z</time></trkpt><trkpt lat="39.1901504" lon="22.2939213"><ele>134.5</ele><time>2026-04-28T10:14:32.032Z</time></trkpt><trkpt lat="39.1898912" lon="22.2939845"><ele>135.0</ele><time>2026-04-28T10:14:33.032Z</time></trkpt><trkpt lat="39.1896332" lon="22.2940474"><ele>135.0</ele><time>2026-04-28T10:14:34.032Z</time></trkpt><trkpt lat="39.1893795" lon="22.2941083"><ele>135.0</ele><time>2026-04-28T10:14:35.031Z</time></trkpt><trkpt lat="39.1891191" lon="22.2941726"><ele>135.0</ele><time>2026-04-28T10:14:36.032Z</time></trkpt><trkpt lat="39.1888654" lon="22.2942349"><ele>135.0</ele><time>2026-04-28T10:14:37.032Z</time></trkpt><trkpt lat="39.1886139" lon="22.2942967"><ele>135.0</ele><time>2026-04-28T10:14:38.032Z</time></trkpt><trkpt lat="39.1883674" lon="22.2943558"><ele>135.0</ele><time>2026-04-28T10:14:39.032Z</time></trkpt><trkpt lat="39.1881121" lon="22.2944168"><ele>134.5</ele><time>2026-04-28T10:14:40.031Z</time></trkpt><trkpt lat="39.1878592" lon="22.2944772"><ele>134.0</ele><time>2026-04-28T10:14:41.031Z</time></trkpt><trkpt lat="39.1876036" lon="22.2945386"><ele>134.0</ele><time>2026-04-28T10:14:42.032Z</time></trkpt><trkpt lat="39.1873495" lon="22.2946008"><ele>134.0</ele><time>2026-04-28T10:14:43.032Z</time></trkpt><trkpt lat="39.1870853" lon="22.2946658"><ele>133.5</ele><time>2026-04-28T10:14:44.031Z</time></trkpt><trkpt lat="39.1868261" lon="22.2947298"><ele>133.0</ele><time>2026-04-28T10:14:45.032Z</time></trkpt><trkpt lat="39.1865691" lon="22.2947927"><ele>133.0</ele><time>2026-04-28T10:14:46.032Z</time></trkpt><trkpt lat="39.1863176" lon="22.294852"><ele>133.0</ele><time>2026-04-28T10:14:47.032Z</time></trkpt><trkpt lat="39.1860591" lon="22.2949119"><ele>133.0</ele><time>2026-04-28T10:14:48.032Z</time></trkpt><trkpt lat="39.1858052" lon="22.2949713"><ele>133.0</ele><time>2026-04-28T10:14:49.032Z</time></trkpt><trkpt lat="39.1855518" lon="22.2950308"><ele>134.5</ele><time>2026-04-28T10:14:50.032Z</time></trkpt><trkpt lat="39.1853037" lon="22.2950901"><ele>136.0</ele><time>2026-04-28T10:14:51.031Z</time></trkpt><trkpt lat="39.1850491" lon="22.2951516"><ele>136.0</ele><time>2026-04-28T10:14:52.031Z</time></trkpt><trkpt lat="39.1847997" lon="22.2952108"><ele>136.0</ele><time>2026-04-28T10:14:53.031Z</time></trkpt><trkpt lat="39.1845507" lon="22.2952684"><ele>136.0</ele><time>2026-04-28T10:14:54.031Z</time></trkpt><trkpt lat="39.1843066" lon="22.2953275"><ele>136.0</ele><time>2026-04-28T10:14:55.032Z</time></trkpt><trkpt lat="39.184056" lon="22.2953914"><ele>136.5</ele><time>2026-04-28T10:14:56.031Z</time></trkpt><trkpt lat="39.1838104" lon="22.2954542"><ele>137.0</ele><time>2026-04-28T10:14:57.032Z</time></trkpt><trkpt lat="39.1835657" lon="22.295515"><ele>137.0</ele><time>2026-04-28T10:14:58.032Z</time></trkpt><trkpt lat="39.1833255" lon="22.2955729"><ele>137.0</ele><time>2026-04-28T10:14:59.031Z</time></trkpt><trkpt lat="39.1830784" lon="22.2956334"><ele>137.0</ele><time>2026-04-28T10:15:00.032Z</time></trkpt><trkpt lat="39.1828362" lon="22.2956941"><ele>137.0</ele><time>2026-04-28T10:15:01.032Z</time></trkpt><trkpt lat="39.1825948" lon="22.2957535"><ele>137.0</ele><time>2026-04-28T10:15:02.032Z</time></trkpt><trkpt lat="39.1823563" lon="22.2958097"><ele>137.0</ele><time>2026-04-28T10:15:03.031Z</time></trkpt><trkpt lat="39.1821076" lon="22.2958621"><ele>137.0</ele><time>2026-04-28T10:15:04.031Z</time></trkpt><trkpt lat="39.1818592" lon="22.2959017"><ele>137.0</ele><time>2026-04-28T10:15:05.031Z</time></trkpt><trkpt lat="39.1816079" lon="22.2959289"><ele>137.5</ele><time>2026-04-28T10:15:06.032Z</time></trkpt><trkpt lat="39.1813591" lon="22.2959471"><ele>138.0</ele><time>2026-04-28T10:15:07.032Z</time></trkpt><trkpt lat="39.1810983" lon="22.2959618"><ele>138.0</ele><time>2026-04-28T10:15:08.032Z</time></trkpt><trkpt lat="39.1808385" lon="22.2959757"><ele>138.0</ele><time>2026-04-28T10:15:09.031Z</time></trkpt><trkpt lat="39.1805785" lon="22.2959895"><ele>138.5</ele><time>2026-04-28T10:15:10.032Z</time></trkpt><trkpt lat="39.1803241" lon="22.2960033"><ele>139.0</ele><time>2026-04-28T10:15:11.031Z</time></trkpt><trkpt lat="39.1800629" lon="22.2960176"><ele>139.0</ele><time>2026-04-28T10:15:12.032Z</time></trkpt><trkpt lat="39.1798052" lon="22.2960313"><ele>139.0</ele><time>2026-04-28T10:15:13.032Z</time></trkpt><trkpt lat="39.1795476" lon="22.2960444"><ele>139.0</ele><time>2026-04-28T10:15:14.032Z</time></trkpt><trkpt lat="39.1792947" lon="22.296056"><ele>139.0</ele><time>2026-04-28T10:15:15.031Z</time></trkpt><trkpt lat="39.1790342" lon="22.2960685"><ele>139.5</ele><time>2026-04-28T10:15:16.032Z</time></trkpt><trkpt lat="39.1787784" lon="22.2960823"><ele>140.0</ele><time>2026-04-28T10:15:17.032Z</time></trkpt><trkpt lat="39.1785216" lon="22.2960978"><ele>140.0</ele><time>2026-04-28T10:15:18.032Z</time></trkpt><trkpt lat="39.1782675" lon="22.2961103"><ele>140.0</ele><time>2026-04-28T10:15:19.031Z</time></trkpt><trkpt lat="39.1780052" lon="22.2961216"><ele>140.5</ele><time>2026-04-28T10:15:20.032Z</time></trkpt><trkpt lat="39.1777472" lon="22.2961322"><ele>141.0</ele><time>2026-04-28T10:15:21.032Z</time></trkpt><trkpt lat="39.1774903" lon="22.2961405"><ele>141.0</ele><time>2026-04-28T10:15:22.031Z</time></trkpt><trkpt lat="39.17724" lon="22.2961426"><ele>141.0</ele><time>2026-04-28T10:15:23.031Z</time></trkpt><trkpt lat="39.1769864" lon="22.2961385"><ele>141.0</ele><time>2026-04-28T10:15:24.031Z</time></trkpt><trkpt lat="39.1767416" lon="22.2961255"><ele>141.0</ele><time>2026-04-28T10:15:25.032Z</time></trkpt><trkpt lat="39.1764983" lon="22.2960998"><ele>141.0</ele><time>2026-04-28T10:15:26.031Z</time></trkpt><trkpt lat="39.1762579" lon="22.2960648"><ele>141.0</ele><time>2026-04-28T10:15:27.031Z</time></trkpt><trkpt lat="39.1760084" lon="22.2960253"><ele>141.0</ele><time>2026-04-28T10:15:28.031Z</time></trkpt><trkpt lat="39.1757641" lon="22.2959848"><ele>141.0</ele><time>2026-04-28T10:15:29.031Z</time></trkpt><trkpt lat="39.1755224" lon="22.2959418"><ele>142.0</ele><time>2026-04-28T10:15:30.031Z</time></trkpt><trkpt lat="39.1752874" lon="22.2959001"><ele>143.0</ele><time>2026-04-28T10:15:31.032Z</time></trkpt><trkpt lat="39.1750468" lon="22.2958597"><ele>143.0</ele><time>2026-04-28T10:15:32.032Z</time></trkpt><trkpt lat="39.1748107" lon="22.2958207"><ele>143.0</ele><time>2026-04-28T10:15:33.032Z</time></trkpt><trkpt lat="39.1745755" lon="22.2957811"><ele>143.0</ele><time>2026-04-28T10:15:34.031Z</time></trkpt><trkpt lat="39.1743437" lon="22.2957428"><ele>143.0</ele><time>2026-04-28T10:15:35.031Z</time></trkpt><trkpt lat="39.1741031" lon="22.2957039"><ele>143.5</ele><time>2026-04-28T10:15:36.032Z</time></trkpt><trkpt lat="39.1738631" lon="22.2956663"><ele>144.0</ele><time>2026-04-28T10:15:37.032Z</time></trkpt><trkpt lat="39.1736218" lon="22.2956271"><ele>144.0</ele><time>2026-04-28T10:15:38.031Z</time></trkpt><trkpt lat="39.1733845" lon="22.2955873"><ele>144.0</ele><time>2026-04-28T10:15:39.032Z</time></trkpt><trkpt lat="39.1731403" lon="22.2955452"><ele>144.0</ele><time>2026-04-28T10:15:40.032Z</time></trkpt><trkpt lat="39.1729007" lon="22.2955023"><ele>144.0</ele><time>2026-04-28T10:15:41.032Z</time></trkpt><trkpt lat="39.172659" lon="22.2954588"><ele>144.0</ele><time>2026-04-28T10:15:42.031Z</time></trkpt><trkpt lat="39.1724182" lon="22.2954166"><ele>144.0</ele><time>2026-04-28T10:15:43.032Z</time></trkpt><trkpt lat="39.1721668" lon="22.2953741"><ele>143.5</ele><time>2026-04-28T10:15:44.032Z</time></trkpt><trkpt lat="39.1719167" lon="22.2953311"><ele>143.0</ele><time>2026-04-28T10:15:45.032Z</time></trkpt><trkpt lat="39.1716648" lon="22.2952874"><ele>142.5</ele><time>2026-04-28T10:15:46.031Z</time></trkpt><trkpt lat="39.171416" lon="22.2952438"><ele>142.0</ele><time>2026-04-28T10:15:47.032Z</time></trkpt><trkpt lat="39.1711585" lon="22.2951986"><ele>142.0</ele><time>2026-04-28T10:15:48.031Z</time></trkpt><trkpt lat="39.1709043" lon="22.295156"><ele>142.0</ele><time>2026-04-28T10:15:49.032Z</time></trkpt><trkpt lat="39.1706501" lon="22.2951139"><ele>144.0</ele><time>2026-04-28T10:15:50.031Z</time></trkpt><trkpt lat="39.170401" lon="22.2950733"><ele>146.0</ele><time>2026-04-28T10:15:51.031Z</time></trkpt><trkpt lat="39.1701422" lon="22.2950312"><ele>146.0</ele><time>2026-04-28T10:15:52.031Z</time></trkpt><trkpt lat="39.1698872" lon="22.2949892"><ele>146.0</ele><time>2026-04-28T10:15:53.032Z</time></trkpt><trkpt lat="39.1696326" lon="22.2949465"><ele>146.0</ele><time>2026-04-28T10:15:54.032Z</time></trkpt><trkpt lat="39.1693822" lon="22.2949061"><ele>146.0</ele><time>2026-04-28T10:15:55.031Z</time></trkpt><trkpt lat="39.1691255" lon="22.2948663"><ele>145.5</ele><time>2026-04-28T10:15:56.031Z</time></trkpt><trkpt lat="39.1688751" lon="22.2948277"><ele>145.0</ele><time>2026-04-28T10:15:57.032Z</time></trkpt><trkpt lat="39.1686242" lon="22.2947891"><ele>145.0</ele><time>2026-04-28T10:15:58.032Z</time></trkpt><trkpt lat="39.1683799" lon="22.294751"><ele>145.0</ele><time>2026-04-28T10:15:59.031Z</time></trkpt><trkpt lat="39.1681274" lon="22.2947103"><ele>146.5</ele><time>2026-04-28T10:16:00.032Z</time></trkpt><trkpt lat="39.1678806" lon="22.2946703"><ele>148.0</ele><time>2026-04-28T10:16:01.032Z</time></trkpt><trkpt lat="39.1676345" lon="22.2946298"><ele>148.0</ele><time>2026-04-28T10:16:02.032Z</time></trkpt><trkpt lat="39.1673936" lon="22.29459"><ele>148.0</ele><time>2026-04-28T10:16:03.031Z</time></trkpt><trkpt lat="39.167146" lon="22.2945497"><ele>148.0</ele><time>2026-04-28T10:16:04.032Z</time></trkpt><trkpt lat="39.1669026" lon="22.294509"><ele>148.0</ele><time>2026-04-28T10:16:05.032Z</time></trkpt><trkpt lat="39.1666592" lon="22.2944693"><ele>148.5</ele><time>2026-04-28T10:16:06.032Z</time></trkpt><trkpt lat="39.1664191" lon="22.2944321"><ele>149.0</ele><time>2026-04-28T10:16:07.032Z</time></trkpt><trkpt lat="39.1661716" lon="22.2943945"><ele>149.0</ele><time>2026-04-28T10:16:08.032Z</time></trkpt><trkpt lat="39.1659244" lon="22.2943552"><ele>149.0</ele><time>2026-04-28T10:16:09.031Z</time></trkpt><trkpt lat="39.1656715" lon="22.294314"><ele>150.5</ele><time>2026-04-28T10:16:10.031Z</time></trkpt><trkpt lat="39.1654161" lon="22.2942729"><ele>152.0</ele><time>2026-04-28T10:16:11.031Z</time></trkpt><trkpt lat="39.1651465" lon="22.2942295"><ele>152.0</ele><time>2026-04-28T10:16:12.031Z</time></trkpt><trkpt lat="39.1648779" lon="22.2941857"><ele>152.0</ele><time>2026-04-28T10:16:13.032Z</time></trkpt><trkpt lat="39.1646075" lon="22.294142"><ele>153.0</ele><time>2026-04-28T10:16:14.031Z</time></trkpt><trkpt lat="39.1643389" lon="22.2940992"><ele>154.0</ele><time>2026-04-28T10:16:15.031Z</time></trkpt><trkpt lat="39.1640612" lon="22.294055"><ele>154.5</ele><time>2026-04-28T10:16:16.031Z</time></trkpt><trkpt lat="39.1637834" lon="22.2940099"><ele>155.0</ele><time>2026-04-28T10:16:17.032Z</time></trkpt><trkpt lat="39.1634995" lon="22.2939633"><ele>155.5</ele><time>2026-04-28T10:16:18.031Z</time></trkpt><trkpt lat="39.1632135" lon="22.2939176"><ele>156.0</ele><time>2026-04-28T10:16:19.032Z</time></trkpt><trkpt lat="39.1629146" lon="22.2938702"><ele>157.0</ele><time>2026-04-28T10:16:20.031Z</time></trkpt><trkpt lat="39.162619" lon="22.2938238"><ele>158.0</ele><time>2026-04-28T10:16:21.032Z</time></trkpt><trkpt lat="39.1623238" lon="22.2937772"><ele>159.5</ele><time>2026-04-28T10:16:22.031Z</time></trkpt><trkpt lat="39.1620333" lon="22.2937313"><ele>161.0</ele><time>2026-04-28T10:16:23.032Z</time></trkpt><trkpt lat="39.1617348" lon="22.2936828"><ele>162.0</ele><time>2026-04-28T10:16:24.031Z</time></trkpt><trkpt lat="39.1614422" lon="22.293635"><ele>163.0</ele><time>2026-04-28T10:16:25.031Z</time></trkpt><trkpt lat="39.1611531" lon="22.2935881"><ele>163.0</ele><time>2026-04-28T10:16:26.032Z</time></trkpt><trkpt lat="39.16087" lon="22.2935432"><ele>163.0</ele><time>2026-04-28T10:16:27.031Z</time></trkpt><trkpt lat="39.1605835" lon="22.2934979"><ele>164.5</ele><time>2026-04-28T10:16:28.031Z</time></trkpt><trkpt lat="39.1603075" lon="22.2934533"><ele>166.0</ele><time>2026-04-28T10:16:29.031Z</time></trkpt><trkpt lat="39.1600403" lon="22.2934095"><ele>167.5</ele><time>2026-04-28T10:16:30.031Z</time></trkpt><trkpt lat="39.1597882" lon="22.2933688"><ele>169.0</ele><time>2026-04-28T10:16:31.032Z</time></trkpt><trkpt lat="39.1595411" lon="22.2933284"><ele>169.0</ele><time>2026-04-28T10:16:32.032Z</time></trkpt><trkpt lat="39.1593039" lon="22.293289"><ele>169.0</ele><time>2026-04-28T10:16:33.032Z</time></trkpt><trkpt lat="39.1590685" lon="22.2932499"><ele>170.0</ele><time>2026-04-28T10:16:34.032Z</time></trkpt><trkpt lat="39.15884" lon="22.2932129"><ele>171.0</ele><time>2026-04-28T10:16:35.032Z</time></trkpt><trkpt lat="39.1586157" lon="22.2931775"><ele>171.0</ele><time>2026-04-28T10:16:36.032Z</time></trkpt><trkpt lat="39.1584083" lon="22.293145"><ele>171.0</ele><time>2026-04-28T10:16:37.031Z</time></trkpt><trkpt lat="39.1582142" lon="22.2931124"><ele>171.0</ele><time>2026-04-28T10:16:38.032Z</time></trkpt><trkpt lat="39.1580361" lon="22.2930838"><ele>172.66666666666666</ele><time>2026-04-28T10:16:39.031Z</time></trkpt><trkpt lat="39.1578643" lon="22.2930567"><ele>174.33333333333331</ele><time>2026-04-28T10:16:40.031Z</time></trkpt><trkpt lat="39.157712" lon="22.293033"><ele>176.0</ele><time>2026-04-28T10:16:41.031Z</time></trkpt><trkpt lat="39.1575673" lon="22.2930117"><ele>176.0</ele><time>2026-04-28T10:16:42.032Z</time></trkpt><trkpt lat="39.157433" lon="22.2929949"><ele>176.0</ele><time>2026-04-28T10:16:43.032Z</time></trkpt><trkpt lat="39.157299" lon="22.2929875"><ele>176.0</ele><time>2026-04-28T10:16:44.032Z</time></trkpt><trkpt lat="39.1571735" lon="22.2929918"><ele>176.0</ele><time>2026-04-28T10:16:45.032Z</time></trkpt><trkpt lat="39.1570564" lon="22.2930107"><ele>176.60000000000002</ele><time>2026-04-28T10:16:46.031Z</time></trkpt><trkpt lat="39.1569513" lon="22.2930494"><ele>177.2</ele><time>2026-04-28T10:16:47.032Z</time></trkpt><trkpt lat="39.1568561" lon="22.2931148"><ele>177.8</ele><time>2026-04-28T10:16:48.031Z</time></trkpt><trkpt lat="39.1567771" lon="22.2932053"><ele>178.39999999999998</ele><time>2026-04-28T10:16:49.031Z</time></trkpt><trkpt lat="39.1567165" lon="22.2933186"><ele>179.0</ele><time>2026-04-28T10:16:50.032Z</time></trkpt><trkpt lat="39.1566745" lon="22.2934541"><ele>179.75</ele><time>2026-04-28T10:16:51.032Z</time></trkpt><trkpt lat="39.1566579" lon="22.2936138"><ele>180.5</ele><time>2026-04-28T10:16:52.032Z</time></trkpt><trkpt lat="39.1566747" lon="22.2937906"><ele>181.25</ele><time>2026-04-28T10:16:53.032Z</time></trkpt><trkpt lat="39.1567272" lon="22.293989"><ele>182.0</ele><time>2026-04-28T10:16:54.032Z</time></trkpt><trkpt lat="39.1568046" lon="22.2942132"><ele>182.5</ele><time>2026-04-28T10:16:55.032Z</time></trkpt><trkpt lat="39.1569025" lon="22.2944827"><ele>183.0</ele><time>2026-04-28T10:16:56.032Z</time></trkpt><trkpt lat="39.1570054" lon="22.2947717"><ele>187.5</ele><time>2026-04-28T10:16:57.031Z</time></trkpt><trkpt lat="39.1571185" lon="22.2950884"><ele>192.0</ele><time>2026-04-28T10:16:58.031Z</time></trkpt><trkpt lat="39.1572248" lon="22.2953848"><ele>191.0</ele><time>2026-04-28T10:16:59.032Z</time></trkpt><trkpt lat="39.1573168" lon="22.2956506"><ele>190.0</ele><time>2026-04-28T10:17:00.031Z</time></trkpt><trkpt lat="39.157394" lon="22.2958956"><ele>189.0</ele><time>2026-04-28T10:17:01.032Z</time></trkpt><trkpt lat="39.1574517" lon="22.2961455"><ele>189.0</ele><time>2026-04-28T10:17:02.032Z</time></trkpt><trkpt lat="39.1574852" lon="22.2963923"><ele>189.0</ele><time>2026-04-28T10:17:03.032Z</time></trkpt><trkpt lat="39.1575054" lon="22.2966287"><ele>189.0</ele><time>2026-04-28T10:17:04.032Z</time></trkpt><trkpt lat="39.157511" lon="22.2968178"><ele>189.79999999999998</ele><time>2026-04-28T10:17:05.032Z</time></trkpt><trkpt lat="39.1574999" lon="22.2969693"><ele>190.6</ele><time>2026-04-28T10:17:06.031Z</time></trkpt><trkpt lat="39.157462" lon="22.2970828"><ele>191.4</ele><time>2026-04-28T10:17:07.032Z</time></trkpt><trkpt lat="39.1573963" lon="22.2971561"><ele>192.2</ele><time>2026-04-28T10:17:08.032Z</time></trkpt><trkpt lat="39.1573174" lon="22.2971712"><ele>193.0</ele><time>2026-04-28T10:17:09.032Z</time></trkpt><trkpt lat="39.1572452" lon="22.2971308"><ele>196.25</ele><time>2026-04-28T10:17:10.031Z</time></trkpt><trkpt lat="39.1571921" lon="22.2970398"><ele>199.5</ele><time>2026-04-28T10:17:11.032Z</time></trkpt><trkpt lat="39.15713" lon="22.2969049"><ele>202.75</ele><time>2026-04-28T10:17:12.031Z</time></trkpt><trkpt lat="39.157129" lon="22.2966286"><ele>206.0</ele><time>2026-04-28T10:17:13.031Z</time></trkpt><trkpt lat="39.1570814" lon="22.2964364"><ele>203.33333333333334</ele><time>2026-04-28T10:17:14.031Z</time></trkpt><trkpt lat="39.157002" lon="22.2962594"><ele>200.66666666666669</ele><time>2026-04-28T10:17:15.032Z</time></trkpt><trkpt lat="39.15688" lon="22.2960818"><ele>198.0</ele><time>2026-04-28T10:17:16.032Z</time></trkpt><trkpt lat="39.1567147" lon="22.2959194"><ele>199.66666666666669</ele><time>2026-04-28T10:17:17.032Z</time></trkpt><trkpt lat="39.156526" lon="22.2957727"><ele>201.33333333333334</ele><time>2026-04-28T10:17:18.031Z</time></trkpt><trkpt lat="39.1563327" lon="22.2956358"><ele>203.0</ele><time>2026-04-28T10:17:19.031Z</time></trkpt><trkpt lat="39.1561388" lon="22.2954911"><ele>203.0</ele><time>2026-04-28T10:17:20.032Z</time></trkpt><trkpt lat="39.1559529" lon="22.2953481"><ele>203.0</ele><time>2026-04-28T10:17:21.032Z</time></trkpt><trkpt lat="39.155774" lon="22.2952153"><ele>203.0</ele><time>2026-04-28T10:17:22.031Z</time></trkpt><trkpt lat="39.1556031" lon="22.29511"><ele>206.66666666666669</ele><time>2026-04-28T10:17:23.031Z</time></trkpt><trkpt lat="39.1554213" lon="22.2950292"><ele>210.33333333333331</ele><time>2026-04-28T10:17:24.031Z</time></trkpt><trkpt lat="39.1552323" lon="22.294974"><ele>214.0</ele><time>2026-04-28T10:17:25.031Z</time></trkpt><trkpt lat="39.1550375" lon="22.294945"><ele>214.33333333333331</ele><time>2026-04-28T10:17:26.031Z</time></trkpt><trkpt lat="39.1548468" lon="22.2949473"><ele>214.66666666666669</ele><time>2026-04-28T10:17:27.031Z</time></trkpt><trkpt lat="39.1546602" lon="22.2949801"><ele>215.0</ele><time>2026-04-28T10:17:28.032Z</time></trkpt><trkpt lat="39.1544941" lon="22.2950273"><ele>215.0</ele><time>2026-04-28T10:17:29.031Z</time></trkpt><trkpt lat="39.1542686" lon="22.2951079"><ele>215.0</ele><time>2026-04-28T10:17:30.802Z</time></trkpt><trkpt lat="39.1541409" lon="22.2951556"><ele>215.0</ele><time>2026-04-28T10:17:32.048Z</time></trkpt><trkpt lat="39.1540507" lon="22.2951942"><ele>215.8</ele><time>2026-04-28T10:17:33.047Z</time></trkpt><trkpt lat="39.1539667" lon="22.295241"><ele>216.6</ele><time>2026-04-28T10:17:34.047Z</time></trkpt><trkpt lat="39.1538942" lon="22.2952995"><ele>217.39999999999998</ele><time>2026-04-28T10:17:35.048Z</time></trkpt><trkpt lat="39.1538284" lon="22.295377"><ele>218.2</ele><time>2026-04-28T10:17:36.048Z</time></trkpt><trkpt lat="39.1537788" lon="22.2954833"><ele>219.0</ele><time>2026-04-28T10:17:37.048Z</time></trkpt><trkpt lat="39.1537513" lon="22.295601"><ele>219.0</ele><time>2026-04-28T10:17:38.047Z</time></trkpt><trkpt lat="39.1537597" lon="22.2957574"><ele>219.0</ele><time>2026-04-28T10:17:39.047Z</time></trkpt><trkpt lat="39.1537944" lon="22.2959546"><ele>219.0</ele><time>2026-04-28T10:17:40.047Z</time></trkpt><trkpt lat="39.1538311" lon="22.296176"><ele>219.0</ele><time>2026-04-28T10:17:41.047Z</time></trkpt><trkpt lat="39.153855" lon="22.2963988"><ele>219.0</ele><time>2026-04-28T10:17:42.048Z</time></trkpt><trkpt lat="39.1538746" lon="22.2966076"><ele>219.0</ele><time>2026-04-28T10:17:43.047Z</time></trkpt><trkpt lat="39.1538807" lon="22.2968069"><ele>221.75</ele><time>2026-04-28T10:17:44.047Z</time></trkpt><trkpt lat="39.1538756" lon="22.2969914"><ele>224.5</ele><time>2026-04-28T10:17:45.047Z</time></trkpt><trkpt lat="39.1538326" lon="22.2971489"><ele>227.25</ele><time>2026-04-28T10:17:46.047Z</time></trkpt><trkpt lat="39.1537575" lon="22.2972708"><ele>230.0</ele><time>2026-04-28T10:17:47.048Z</time></trkpt><trkpt lat="39.1536582" lon="22.2973562"><ele>231.5</ele><time>2026-04-28T10:17:48.047Z</time></trkpt><trkpt lat="39.1535438" lon="22.297405"><ele>233.0</ele><time>2026-04-28T10:17:49.047Z</time></trkpt><trkpt lat="39.1534119" lon="22.2973979"><ele>234.5</ele><time>2026-04-28T10:17:50.047Z</time></trkpt><trkpt lat="39.1532824" lon="22.2973527"><ele>236.0</ele><time>2026-04-28T10:17:51.047Z</time></trkpt><trkpt lat="39.1531534" lon="22.2973103"><ele>236.0</ele><time>2026-04-28T10:17:52.048Z</time></trkpt><trkpt lat="39.1530238" lon="22.2973169"><ele>236.0</ele><time>2026-04-28T10:17:53.047Z</time></trkpt><trkpt lat="39.1528954" lon="22.2973876"><ele>236.0</ele><time>2026-04-28T10:17:54.048Z</time></trkpt><trkpt lat="39.15277" lon="22.2975134"><ele>236.0</ele><time>2026-04-28T10:17:55.048Z</time></trkpt><trkpt lat="39.1526445" lon="22.2976588"><ele>236.0</ele><time>2026-04-28T10:17:56.048Z</time></trkpt><trkpt lat="39.152519" lon="22.2977815"><ele>236.0</ele><time>2026-04-28T10:17:57.047Z</time></trkpt><trkpt lat="39.1523892" lon="22.2978721"><ele>236.0</ele><time>2026-04-28T10:17:58.047Z</time></trkpt><trkpt lat="39.1522638" lon="22.2979"><ele>236.0</ele><time>2026-04-28T10:17:59.048Z</time></trkpt><trkpt lat="39.1521446" lon="22.2979372"><ele>240.0</ele><time>2026-04-28T10:18:00.048Z</time></trkpt><trkpt lat="39.1519977" lon="22.2977741"><ele>244.0</ele><time>2026-04-28T10:18:01.048Z</time></trkpt><trkpt lat="39.15188" lon="22.2975616"><ele>248.0</ele><time>2026-04-28T10:18:02.047Z</time></trkpt><trkpt lat="39.1517388" lon="22.2974062"><ele>248.0</ele><time>2026-04-28T10:18:03.048Z</time></trkpt><trkpt lat="39.1516062" lon="22.2972661"><ele>248.0</ele><time>2026-04-28T10:18:04.048Z</time></trkpt><trkpt lat="39.1514822" lon="22.2971397"><ele>248.0</ele><time>2026-04-28T10:18:05.047Z</time></trkpt><trkpt lat="39.1513634" lon="22.2970481"><ele>244.5</ele><time>2026-04-28T10:18:06.048Z</time></trkpt><trkpt lat="39.151239" lon="22.2970006"><ele>241.0</ele><time>2026-04-28T10:18:07.048Z</time></trkpt><trkpt lat="39.1511244" lon="22.2970042"><ele>237.5</ele><time>2026-04-28T10:18:08.047Z</time></trkpt><trkpt lat="39.1510131" lon="22.2970773"><ele>234.0</ele><time>2026-04-28T10:18:09.048Z</time></trkpt><trkpt lat="39.1509293" lon="22.2972008"><ele>237.5</ele><time>2026-04-28T10:18:10.047Z</time></trkpt><trkpt lat="39.1508778" lon="22.2973606"><ele>241.0</ele><time>2026-04-28T10:18:11.048Z</time></trkpt><trkpt lat="39.1508698" lon="22.2975459"><ele>244.5</ele><time>2026-04-28T10:18:12.047Z</time></trkpt><trkpt lat="39.150904" lon="22.2977496"><ele>248.0</ele><time>2026-04-28T10:18:13.047Z</time></trkpt><trkpt lat="39.1509778" lon="22.2979662"><ele>248.0</ele><time>2026-04-28T10:18:14.048Z</time></trkpt><trkpt lat="39.1510659" lon="22.298186"><ele>248.0</ele><time>2026-04-28T10:18:15.047Z</time></trkpt><trkpt lat="39.1511527" lon="22.298412"><ele>248.0</ele><time>2026-04-28T10:18:16.047Z</time></trkpt><trkpt lat="39.1512388" lon="22.2986528"><ele>248.0</ele><time>2026-04-28T10:18:17.047Z</time></trkpt><trkpt lat="39.1513091" lon="22.2989053"><ele>248.0</ele><time>2026-04-28T10:18:18.048Z</time></trkpt><trkpt lat="39.1513609" lon="22.2991659"><ele>248.0</ele><time>2026-04-28T10:18:19.048Z</time></trkpt><trkpt lat="39.1514059" lon="22.2994303"><ele>249.0</ele><time>2026-04-28T10:18:20.047Z</time></trkpt><trkpt lat="39.1514442" lon="22.2996752"><ele>250.0</ele><time>2026-04-28T10:18:21.047Z</time></trkpt><trkpt lat="39.1514815" lon="22.2999158"><ele>251.0</ele><time>2026-04-28T10:18:22.048Z</time></trkpt><trkpt lat="39.151516" lon="22.3001368"><ele>254.33333333333334</ele><time>2026-04-28T10:18:23.047Z</time></trkpt><trkpt lat="39.151517" lon="22.3003465"><ele>257.6666666666667</ele><time>2026-04-28T10:18:24.048Z</time></trkpt><trkpt lat="39.1514963" lon="22.3005374"><ele>261.0</ele><time>2026-04-28T10:18:25.047Z</time></trkpt><trkpt lat="39.1514428" lon="22.3007009"><ele>264.25</ele><time>2026-04-28T10:18:26.047Z</time></trkpt><trkpt lat="39.1513631" lon="22.3008423"><ele>267.5</ele><time>2026-04-28T10:18:27.047Z</time></trkpt><trkpt lat="39.1512541" lon="22.3009154"><ele>270.75</ele><time>2026-04-28T10:18:28.047Z</time></trkpt><trkpt lat="39.1511394" lon="22.3009624"><ele>274.0</ele><time>2026-04-28T10:18:29.048Z</time></trkpt><trkpt lat="39.1510132" lon="22.3009724"><ele>274.0</ele><time>2026-04-28T10:18:30.047Z</time></trkpt><trkpt lat="39.1508721" lon="22.3008012"><ele>274.0</ele><time>2026-04-28T10:18:31.047Z</time></trkpt><trkpt lat="39.1506246" lon="22.3006154"><ele>272.66666666666663</ele><time>2026-04-28T10:18:32.047Z</time></trkpt><trkpt lat="39.1504918" lon="22.300441"><ele>271.3333333333333</ele><time>2026-04-28T10:18:33.048Z</time></trkpt><trkpt lat="39.1503351" lon="22.3003276"><ele>270.0</ele><time>2026-04-28T10:18:34.047Z</time></trkpt><trkpt lat="39.1502048" lon="22.3002527"><ele>270.0</ele><time>2026-04-28T10:18:35.047Z</time></trkpt><trkpt lat="39.1500749" lon="22.3002238"><ele>270.0</ele><time>2026-04-28T10:18:36.048Z</time></trkpt><trkpt lat="39.1499568" lon="22.3002548"><ele>270.0</ele><time>2026-04-28T10:18:37.048Z</time></trkpt><trkpt lat="39.1498573" lon="22.3003392"><ele>270.0</ele><time>2026-04-28T10:18:38.048Z</time></trkpt><trkpt lat="39.1497853" lon="22.3004816"><ele>268.6666666666667</ele><time>2026-04-28T10:18:39.047Z</time></trkpt><trkpt lat="39.1497394" lon="22.3006858"><ele>267.33333333333337</ele><time>2026-04-28T10:18:40.048Z</time></trkpt><trkpt lat="39.1497133" lon="22.3009486"><ele>266.0</ele><time>2026-04-28T10:18:41.047Z</time></trkpt><trkpt lat="39.1496971" lon="22.3012439"><ele>268.0</ele><time>2026-04-28T10:18:42.048Z</time></trkpt><trkpt lat="39.1496951" lon="22.3015501"><ele>270.0</ele><time>2026-04-28T10:18:43.048Z</time></trkpt><trkpt lat="39.1497271" lon="22.301851"><ele>270.0</ele><time>2026-04-28T10:18:44.047Z</time></trkpt><trkpt lat="39.1497887" lon="22.3021402"><ele>270.0</ele><time>2026-04-28T10:18:45.047Z</time></trkpt><trkpt lat="39.1498642" lon="22.3024083"><ele>277.0</ele><time>2026-04-28T10:18:46.047Z</time></trkpt><trkpt lat="39.1499274" lon="22.302668"><ele>284.0</ele><time>2026-04-28T10:18:47.047Z</time></trkpt><trkpt lat="39.1499564" lon="22.3029685"><ele>291.0</ele><time>2026-04-28T10:18:48.048Z</time></trkpt><trkpt lat="39.1499677" lon="22.3032444"><ele>291.6666666666667</ele><time>2026-04-28T10:18:49.047Z</time></trkpt><trkpt lat="39.1499752" lon="22.3035061"><ele>292.33333333333337</ele><time>2026-04-28T10:18:50.047Z</time></trkpt><trkpt lat="39.1499747" lon="22.3037372"><ele>293.0</ele><time>2026-04-28T10:18:51.048Z</time></trkpt><trkpt lat="39.1499558" lon="22.3039329"><ele>292.0</ele><time>2026-04-28T10:18:52.048Z</time></trkpt><trkpt lat="39.1499091" lon="22.3041046"><ele>291.0</ele><time>2026-04-28T10:18:53.047Z</time></trkpt><trkpt lat="39.1498303" lon="22.3042486"><ele>290.0</ele><time>2026-04-28T10:18:54.047Z</time></trkpt><trkpt lat="39.1497046" lon="22.3043101"><ele>289.0</ele><time>2026-04-28T10:18:55.048Z</time></trkpt><trkpt lat="39.1495671" lon="22.3043687"><ele>289.0</ele><time>2026-04-28T10:18:56.048Z</time></trkpt><trkpt lat="39.1494411" lon="22.3044305"><ele>289.0</ele><time>2026-04-28T10:18:57.047Z</time></trkpt><trkpt lat="39.149335" lon="22.304525"><ele>289.0</ele><time>2026-04-28T10:18:58.047Z</time></trkpt><trkpt lat="39.1492652" lon="22.3046619"><ele>289.0</ele><time>2026-04-28T10:18:59.047Z</time></trkpt><trkpt lat="39.1492275" lon="22.3048527"><ele>293.0</ele><time>2026-04-28T10:19:00.048Z</time></trkpt><trkpt lat="39.1492319" lon="22.3050687"><ele>297.0</ele><time>2026-04-28T10:19:01.047Z</time></trkpt><trkpt lat="39.1492405" lon="22.3052711"><ele>301.0</ele><time>2026-04-28T10:19:02.048Z</time></trkpt><trkpt lat="39.1492116" lon="22.3054619"><ele>299.75</ele><time>2026-04-28T10:19:03.048Z</time></trkpt><trkpt lat="39.149159" lon="22.3056373"><ele>298.5</ele><time>2026-04-28T10:19:04.047Z</time></trkpt><trkpt lat="39.1490462" lon="22.3057609"><ele>297.25</ele><time>2026-04-28T10:19:05.048Z</time></trkpt><trkpt lat="39.1489624" lon="22.3059098"><ele>296.0</ele><time>2026-04-28T10:19:06.048Z</time></trkpt><trkpt lat="39.1489007" lon="22.3060929"><ele>296.0</ele><time>2026-04-28T10:19:07.048Z</time></trkpt><trkpt lat="39.1488564" lon="22.3062892"><ele>296.0</ele><time>2026-04-28T10:19:08.048Z</time></trkpt><trkpt lat="39.148806" lon="22.3064888"><ele>296.0</ele><time>2026-04-28T10:19:09.048Z</time></trkpt><trkpt lat="39.1487119" lon="22.306672"><ele>299.6666666666667</ele><time>2026-04-28T10:19:10.048Z</time></trkpt><trkpt lat="39.1486059" lon="22.3068444"><ele>303.3333333333333</ele><time>2026-04-28T10:19:11.047Z</time></trkpt><trkpt lat="39.1484201" lon="22.3069899"><ele>307.0</ele><time>2026-04-28T10:19:12.048Z</time></trkpt><trkpt lat="39.1482507" lon="22.3071618"><ele>310.0</ele><time>2026-04-28T10:19:13.047Z</time></trkpt><trkpt lat="39.1480967" lon="22.3073441"><ele>313.0</ele><time>2026-04-28T10:19:14.047Z</time></trkpt><trkpt lat="39.1479618" lon="22.3075358"><ele>316.0</ele><time>2026-04-28T10:19:15.048Z</time></trkpt><trkpt lat="39.1478501" lon="22.3077216"><ele>316.0</ele><time>2026-04-28T10:19:16.048Z</time></trkpt><trkpt lat="39.1477415" lon="22.3079006"><ele>316.0</ele><time>2026-04-28T10:19:17.048Z</time></trkpt><trkpt lat="39.1476356" lon="22.3080593"><ele>316.0</ele><time>2026-04-28T10:19:18.048Z</time></trkpt><trkpt lat="39.14754" lon="22.3081915"><ele>318.75</ele><time>2026-04-28T10:19:19.047Z</time></trkpt><trkpt lat="39.1474438" lon="22.3082993"><ele>321.5</ele><time>2026-04-28T10:19:20.047Z</time></trkpt><trkpt lat="39.1473365" lon="22.3083777"><ele>324.25</ele><time>2026-04-28T10:19:21.047Z</time></trkpt><trkpt lat="39.1472147" lon="22.3084063"><ele>327.0</ele><time>2026-04-28T10:19:22.047Z</time></trkpt><trkpt lat="39.1470857" lon="22.3083886"><ele>328.0</ele><time>2026-04-28T10:19:23.047Z</time></trkpt><trkpt lat="39.1469815" lon="22.3083066"><ele>329.0</ele><time>2026-04-28T10:19:24.047Z</time></trkpt><trkpt lat="39.1468746" lon="22.3081892"><ele>330.0</ele><time>2026-04-28T10:19:25.048Z</time></trkpt><trkpt lat="39.1468212" lon="22.3080157"><ele>331.0</ele><time>2026-04-28T10:19:26.047Z</time></trkpt><trkpt lat="39.1467691" lon="22.3078181"><ele>331.0</ele><time>2026-04-28T10:19:27.047Z</time></trkpt><trkpt lat="39.1467159" lon="22.3076108"><ele>331.0</ele><time>2026-04-28T10:19:28.048Z</time></trkpt><trkpt lat="39.1466531" lon="22.3074004"><ele>331.0</ele><time>2026-04-28T10:19:29.047Z</time></trkpt><trkpt lat="39.1465615" lon="22.3071988"><ele>335.66666666666663</ele><time>2026-04-28T10:19:30.048Z</time></trkpt><trkpt lat="39.1464381" lon="22.307"><ele>340.3333333333333</ele><time>2026-04-28T10:19:31.048Z</time></trkpt><trkpt lat="39.1463069" lon="22.306819"><ele>345.0</ele><time>2026-04-28T10:19:32.047Z</time></trkpt><trkpt lat="39.1461808" lon="22.3066509"><ele>345.0</ele><time>2026-04-28T10:19:33.048Z</time></trkpt><trkpt lat="39.1460666" lon="22.3064777"><ele>345.0</ele><time>2026-04-28T10:19:34.048Z</time></trkpt><trkpt lat="39.1459697" lon="22.3062689"><ele>345.0</ele><time>2026-04-28T10:19:35.048Z</time></trkpt><trkpt lat="39.1458896" lon="22.3060238"><ele>343.3333333333333</ele><time>2026-04-28T10:19:36.047Z</time></trkpt><trkpt lat="39.1458132" lon="22.3057613"><ele>341.66666666666663</ele><time>2026-04-28T10:19:37.047Z</time></trkpt><trkpt lat="39.1457433" lon="22.3055112"><ele>340.0</ele><time>2026-04-28T10:19:38.048Z</time></trkpt><trkpt lat="39.1456765" lon="22.3052654"><ele>340.66666666666663</ele><time>2026-04-28T10:19:39.048Z</time></trkpt><trkpt lat="39.1456143" lon="22.3050387"><ele>341.3333333333333</ele><time>2026-04-28T10:19:40.047Z</time></trkpt><trkpt lat="39.1455555" lon="22.3048291"><ele>342.0</ele><time>2026-04-28T10:19:41.047Z</time></trkpt><trkpt lat="39.1455006" lon="22.3046324"><ele>342.0</ele><time>2026-04-28T10:19:42.048Z</time></trkpt><trkpt lat="39.1454529" lon="22.3044574"><ele>342.0</ele><time>2026-04-28T10:19:43.048Z</time></trkpt><trkpt lat="39.1454051" lon="22.3043048"><ele>342.0</ele><time>2026-04-28T10:19:44.047Z</time></trkpt><trkpt lat="39.1453526" lon="22.3041718"><ele>342.0</ele><time>2026-04-28T10:19:45.047Z</time></trkpt><trkpt lat="39.1452821" lon="22.3040525"><ele>342.0</ele><time>2026-04-28T10:19:46.048Z</time></trkpt><trkpt lat="39.1451948" lon="22.3039635"><ele>342.0</ele><time>2026-04-28T10:19:47.048Z</time></trkpt><trkpt lat="39.145092" lon="22.3039177"><ele>342.0</ele><time>2026-04-28T10:19:48.048Z</time></trkpt><trkpt lat="39.1449797" lon="22.3039211"><ele>342.0</ele><time>2026-04-28T10:19:49.048Z</time></trkpt><trkpt lat="39.1448765" lon="22.3039815"><ele>342.0</ele><time>2026-04-28T10:19:50.047Z</time></trkpt><trkpt lat="39.1447972" lon="22.3040917"><ele>342.75</ele><time>2026-04-28T10:19:51.047Z</time></trkpt><trkpt lat="39.1447531" lon="22.3042304"><ele>343.5</ele><time>2026-04-28T10:19:52.047Z</time></trkpt><trkpt lat="39.1447472" lon="22.3043961"><ele>344.25</ele><time>2026-04-28T10:19:53.048Z</time></trkpt><trkpt lat="39.1447843" lon="22.304579"><ele>345.0</ele><time>2026-04-28T10:19:54.047Z</time></trkpt><trkpt lat="39.1448602" lon="22.3047713"><ele>346.6666666666667</ele><time>2026-04-28T10:19:55.048Z</time></trkpt><trkpt lat="39.1449553" lon="22.3049652"><ele>348.33333333333337</ele><time>2026-04-28T10:19:56.048Z</time></trkpt><trkpt lat="39.1450491" lon="22.3051507"><ele>350.0</ele><time>2026-04-28T10:19:57.047Z</time></trkpt><trkpt lat="39.1451296" lon="22.3053463"><ele>350.0</ele><time>2026-04-28T10:19:58.048Z</time></trkpt><trkpt lat="39.1451955" lon="22.3055542"><ele>350.0</ele><time>2026-04-28T10:19:59.047Z</time></trkpt><trkpt lat="39.1452303" lon="22.3057707"><ele>350.0</ele><time>2026-04-28T10:20:00.047Z</time></trkpt><trkpt lat="39.1452569" lon="22.3059889"><ele>352.33333333333337</ele><time>2026-04-28T10:20:01.048Z</time></trkpt><trkpt lat="39.1452603" lon="22.3062071"><ele>354.6666666666667</ele><time>2026-04-28T10:20:02.048Z</time></trkpt><trkpt lat="39.1452543" lon="22.3064409"><ele>357.0</ele><time>2026-04-28T10:20:03.048Z</time></trkpt><trkpt lat="39.1452561" lon="22.3067081"><ele>360.5</ele><time>2026-04-28T10:20:04.048Z</time></trkpt><trkpt lat="39.14529" lon="22.307006"><ele>364.0</ele><time>2026-04-28T10:20:05.047Z</time></trkpt><trkpt lat="39.1453382" lon="22.3073288"><ele>365.5</ele><time>2026-04-28T10:20:06.047Z</time></trkpt><trkpt lat="39.1453948" lon="22.3076761"><ele>367.0</ele><time>2026-04-28T10:20:07.047Z</time></trkpt><trkpt lat="39.1454539" lon="22.3080272"><ele>370.5</ele><time>2026-04-28T10:20:08.047Z</time></trkpt><trkpt lat="39.1455152" lon="22.3083619"><ele>374.0</ele><time>2026-04-28T10:20:09.048Z</time></trkpt><trkpt lat="39.1455703" lon="22.3086705"><ele>377.33333333333337</ele><time>2026-04-28T10:20:10.048Z</time></trkpt><trkpt lat="39.1456236" lon="22.3089555"><ele>380.6666666666667</ele><time>2026-04-28T10:20:11.047Z</time></trkpt><trkpt lat="39.1456804" lon="22.3092273"><ele>384.0</ele><time>2026-04-28T10:20:12.048Z</time></trkpt><trkpt lat="39.1457535" lon="22.3094611"><ele>380.3333333333333</ele><time>2026-04-28T10:20:13.048Z</time></trkpt><trkpt lat="39.1458519" lon="22.3096696"><ele>376.66666666666663</ele><time>2026-04-28T10:20:14.047Z</time></trkpt><trkpt lat="39.1459675" lon="22.3098635"><ele>373.0</ele><time>2026-04-28T10:20:15.048Z</time></trkpt><trkpt lat="39.146074" lon="22.3100525"><ele>373.0</ele><time>2026-04-28T10:20:16.047Z</time></trkpt><trkpt lat="39.1461271" lon="22.3102474"><ele>373.0</ele><time>2026-04-28T10:20:17.047Z</time></trkpt><trkpt lat="39.1461838" lon="22.3104652"><ele>373.0</ele><time>2026-04-28T10:20:18.048Z</time></trkpt><trkpt lat="39.1461693" lon="22.3106818"><ele>377.66666666666663</ele><time>2026-04-28T10:20:19.047Z</time></trkpt><trkpt lat="39.1461993" lon="22.3109114"><ele>382.3333333333333</ele><time>2026-04-28T10:20:20.048Z</time></trkpt><trkpt lat="39.1462568" lon="22.3111439"><ele>387.0</ele><time>2026-04-28T10:20:21.048Z</time></trkpt><trkpt lat="39.1463196" lon="22.3113492"><ele>388.66666666666663</ele><time>2026-04-28T10:20:22.048Z</time></trkpt><trkpt lat="39.1463742" lon="22.3115632"><ele>390.3333333333333</ele><time>2026-04-28T10:20:23.048Z</time></trkpt><trkpt lat="39.146409" lon="22.3117742"><ele>392.0</ele><time>2026-04-28T10:20:24.047Z</time></trkpt><trkpt lat="39.1464218" lon="22.3119863"><ele>392.0</ele><time>2026-04-28T10:20:25.048Z</time></trkpt><trkpt lat="39.1464058" lon="22.3122125"><ele>392.0</ele><time>2026-04-28T10:20:26.048Z</time></trkpt><trkpt lat="39.1463443" lon="22.3124873"><ele>392.0</ele><time>2026-04-28T10:20:27.048Z</time></trkpt><trkpt lat="39.1462929" lon="22.3127458"><ele>392.3333333333333</ele><time>2026-04-28T10:20:28.048Z</time></trkpt><trkpt lat="39.1462438" lon="22.3129803"><ele>392.66666666666663</ele><time>2026-04-28T10:20:29.047Z</time></trkpt><trkpt lat="39.1461938" lon="22.3131968"><ele>393.0</ele><time>2026-04-28T10:20:30.047Z</time></trkpt><trkpt lat="39.1461401" lon="22.3133923"><ele>393.0</ele><time>2026-04-28T10:20:31.047Z</time></trkpt><trkpt lat="39.1460705" lon="22.3135648"><ele>393.0</ele><time>2026-04-28T10:20:32.047Z</time></trkpt><trkpt lat="39.1459813" lon="22.3136703"><ele>393.0</ele><time>2026-04-28T10:20:33.047Z</time></trkpt><trkpt lat="39.1458679" lon="22.3137592"><ele>393.0</ele><time>2026-04-28T10:20:34.047Z</time></trkpt><trkpt lat="39.1457433" lon="22.3138033"><ele>393.0</ele><time>2026-04-28T10:20:35.048Z</time></trkpt><trkpt lat="39.1456178" lon="22.3138076"><ele>393.0</ele><time>2026-04-28T10:20:36.047Z</time></trkpt><trkpt lat="39.1454874" lon="22.3137746"><ele>393.0</ele><time>2026-04-28T10:20:37.047Z</time></trkpt><trkpt lat="39.145351" lon="22.3136942"><ele>393.0</ele><time>2026-04-28T10:20:38.048Z</time></trkpt><trkpt lat="39.1452109" lon="22.3135594"><ele>393.0</ele><time>2026-04-28T10:20:39.047Z</time></trkpt><trkpt lat="39.1450873" lon="22.3133921"><ele>393.0</ele><time>2026-04-28T10:20:40.048Z</time></trkpt><trkpt lat="39.1449889" lon="22.3132094"><ele>393.0</ele><time>2026-04-28T10:20:41.048Z</time></trkpt><trkpt lat="39.14492" lon="22.3130127"><ele>401.0</ele><time>2026-04-28T10:20:42.047Z</time></trkpt><trkpt lat="39.1448778" lon="22.3128104"><ele>409.0</ele><time>2026-04-28T10:20:43.047Z</time></trkpt><trkpt lat="39.144857" lon="22.312589"><ele>417.0</ele><time>2026-04-28T10:20:44.048Z</time></trkpt><trkpt lat="39.1448561" lon="22.3123472"><ele>419.0</ele><time>2026-04-28T10:20:45.047Z</time></trkpt><trkpt lat="39.1448672" lon="22.3120868"><ele>421.0</ele><time>2026-04-28T10:20:46.047Z</time></trkpt><trkpt lat="39.1448741" lon="22.3118232"><ele>423.0</ele><time>2026-04-28T10:20:47.048Z</time></trkpt><trkpt lat="39.1448692" lon="22.3115809"><ele>421.33333333333337</ele><time>2026-04-28T10:20:48.048Z</time></trkpt><trkpt lat="39.1448401" lon="22.3113494"><ele>419.6666666666667</ele><time>2026-04-28T10:20:49.048Z</time></trkpt><trkpt lat="39.1447765" lon="22.3111253"><ele>418.0</ele><time>2026-04-28T10:20:50.047Z</time></trkpt><trkpt lat="39.1446844" lon="22.3108998"><ele>418.0</ele><time>2026-04-28T10:20:51.048Z</time></trkpt><trkpt lat="39.1445798" lon="22.3106872"><ele>418.0</ele><time>2026-04-28T10:20:52.047Z</time></trkpt><trkpt lat="39.144463" lon="22.3104858"><ele>418.0</ele><time>2026-04-28T10:20:53.047Z</time></trkpt><trkpt lat="39.1443274" lon="22.3102989"><ele>415.0</ele><time>2026-04-28T10:20:54.048Z</time></trkpt><trkpt lat="39.1441772" lon="22.3101314"><ele>412.0</ele><time>2026-04-28T10:20:55.047Z</time></trkpt><trkpt lat="39.1440292" lon="22.3099885"><ele>409.0</ele><time>2026-04-28T10:20:56.047Z</time></trkpt><trkpt lat="39.143889" lon="22.3098583"><ele>413.0</ele><time>2026-04-28T10:20:57.047Z</time></trkpt><trkpt lat="39.1437588" lon="22.3097316"><ele>417.0</ele><time>2026-04-28T10:20:58.048Z</time></trkpt><trkpt lat="39.1436407" lon="22.3095976"><ele>421.0</ele><time>2026-04-28T10:20:59.047Z</time></trkpt><trkpt lat="39.1435458" lon="22.3094427"><ele>421.0</ele><time>2026-04-28T10:21:00.047Z</time></trkpt><trkpt lat="39.143472" lon="22.3092715"><ele>421.0</ele><time>2026-04-28T10:21:01.048Z</time></trkpt><trkpt lat="39.1434102" lon="22.3090982"><ele>421.0</ele><time>2026-04-28T10:21:02.048Z</time></trkpt><trkpt lat="39.1433384" lon="22.30894"><ele>421.0</ele><time>2026-04-28T10:21:03.048Z</time></trkpt><trkpt lat="39.1432469" lon="22.3087972"><ele>422.6666666666667</ele><time>2026-04-28T10:21:04.048Z</time></trkpt><trkpt lat="39.1431354" lon="22.3086806"><ele>424.33333333333337</ele><time>2026-04-28T10:21:05.047Z</time></trkpt><trkpt lat="39.1429866" lon="22.3085915"><ele>426.0</ele><time>2026-04-28T10:21:06.047Z</time></trkpt><trkpt lat="39.1428133" lon="22.308506"><ele>426.0</ele><time>2026-04-28T10:21:07.048Z</time></trkpt><trkpt lat="39.142643" lon="22.3083763"><ele>426.0</ele><time>2026-04-28T10:21:08.048Z</time></trkpt><trkpt lat="39.1424914" lon="22.3082383"><ele>426.0</ele><time>2026-04-28T10:21:09.048Z</time></trkpt><trkpt lat="39.1423708" lon="22.3080796"><ele>422.75</ele><time>2026-04-28T10:21:10.048Z</time></trkpt><trkpt lat="39.1422444" lon="22.3079637"><ele>419.5</ele><time>2026-04-28T10:21:11.048Z</time></trkpt><trkpt lat="39.1421139" lon="22.3078856"><ele>416.25</ele><time>2026-04-28T10:21:12.047Z</time></trkpt><trkpt lat="39.141983" lon="22.3078651"><ele>413.0</ele><time>2026-04-28T10:21:13.048Z</time></trkpt><trkpt lat="39.1418683" lon="22.3078961"><ele>413.0</ele><time>2026-04-28T10:21:14.047Z</time></trkpt><trkpt lat="39.1417737" lon="22.3079852"><ele>413.0</ele><time>2026-04-28T10:21:15.047Z</time></trkpt><trkpt lat="39.1416912" lon="22.3081244"><ele>413.0</ele><time>2026-04-28T10:21:16.047Z</time></trkpt><trkpt lat="39.1416236" lon="22.3083071"><ele>413.0</ele><time>2026-04-28T10:21:17.047Z</time></trkpt><trkpt lat="39.1415641" lon="22.3085276"><ele>412.0</ele><time>2026-04-28T10:21:18.048Z</time></trkpt><trkpt lat="39.1415105" lon="22.3087584"><ele>411.0</ele><time>2026-04-28T10:21:19.047Z</time></trkpt><trkpt lat="39.1414629" lon="22.3089827"><ele>410.0</ele><time>2026-04-28T10:21:20.048Z</time></trkpt><trkpt lat="39.1414153" lon="22.3091884"><ele>415.66666666666663</ele><time>2026-04-28T10:21:21.048Z</time></trkpt><trkpt lat="39.1413614" lon="22.3093814"><ele>421.33333333333337</ele><time>2026-04-28T10:21:22.048Z</time></trkpt><trkpt lat="39.1412966" lon="22.3095579"><ele>427.0</ele><time>2026-04-28T10:21:23.047Z</time></trkpt><trkpt lat="39.1412079" lon="22.3097059"><ele>431.33333333333337</ele><time>2026-04-28T10:21:24.047Z</time></trkpt><trkpt lat="39.1410893" lon="22.3098223"><ele>435.66666666666663</ele><time>2026-04-28T10:21:25.048Z</time></trkpt><trkpt lat="39.1409303" lon="22.3098885"><ele>440.0</ele><time>2026-04-28T10:21:26.048Z</time></trkpt><trkpt lat="39.1407425" lon="22.3099331"><ele>440.0</ele><time>2026-04-28T10:21:27.047Z</time></trkpt><trkpt lat="39.1405396" lon="22.3099674"><ele>440.0</ele><time>2026-04-28T10:21:28.047Z</time></trkpt><trkpt lat="39.1403451" lon="22.310004"><ele>440.0</ele><time>2026-04-28T10:21:29.047Z</time></trkpt><trkpt lat="39.140157" lon="22.310038"><ele>440.0</ele><time>2026-04-28T10:21:30.047Z</time></trkpt><trkpt lat="39.1399702" lon="22.3100519"><ele>440.0</ele><time>2026-04-28T10:21:31.048Z</time></trkpt><trkpt lat="39.1397773" lon="22.3100316"><ele>440.0</ele><time>2026-04-28T10:21:32.048Z</time></trkpt><trkpt lat="39.1395689" lon="22.3099798"><ele>440.3333333333333</ele><time>2026-04-28T10:21:33.047Z</time></trkpt><trkpt lat="39.1393635" lon="22.3099287"><ele>440.66666666666663</ele><time>2026-04-28T10:21:34.048Z</time></trkpt><trkpt lat="39.1391633" lon="22.3098932"><ele>441.0</ele><time>2026-04-28T10:21:35.048Z</time></trkpt><trkpt lat="39.138969" lon="22.3098868"><ele>442.66666666666663</ele><time>2026-04-28T10:21:36.047Z</time></trkpt><trkpt lat="39.1387799" lon="22.3099177"><ele>444.3333333333333</ele><time>2026-04-28T10:21:37.047Z</time></trkpt><trkpt lat="39.1386051" lon="22.3099839"><ele>446.0</ele><time>2026-04-28T10:21:38.047Z</time></trkpt><trkpt lat="39.1384362" lon="22.3100705"><ele>446.0</ele><time>2026-04-28T10:21:39.048Z</time></trkpt><trkpt lat="39.1382684" lon="22.3101528"><ele>446.0</ele><time>2026-04-28T10:21:40.048Z</time></trkpt><trkpt lat="39.138103" lon="22.3102126"><ele>446.0</ele><time>2026-04-28T10:21:41.048Z</time></trkpt><trkpt lat="39.1379394" lon="22.3102466"><ele>449.0</ele><time>2026-04-28T10:21:42.047Z</time></trkpt><trkpt lat="39.1377663" lon="22.3102225"><ele>452.0</ele><time>2026-04-28T10:21:43.048Z</time></trkpt><trkpt lat="39.1375891" lon="22.3101667"><ele>455.0</ele><time>2026-04-28T10:21:44.048Z</time></trkpt><trkpt lat="39.1374007" lon="22.3100815"><ele>461.0</ele><time>2026-04-28T10:21:45.047Z</time></trkpt><trkpt lat="39.1372117" lon="22.3099992"><ele>467.0</ele><time>2026-04-28T10:21:46.048Z</time></trkpt><trkpt lat="39.1370215" lon="22.3099192"><ele>473.0</ele><time>2026-04-28T10:21:47.047Z</time></trkpt><trkpt lat="39.1368413" lon="22.3098437"><ele>473.0</ele><time>2026-04-28T10:21:48.048Z</time></trkpt><trkpt lat="39.1366814" lon="22.3097453"><ele>473.0</ele><time>2026-04-28T10:21:49.047Z</time></trkpt><trkpt lat="39.136545" lon="22.3096107"><ele>473.0</ele><time>2026-04-28T10:21:50.047Z</time></trkpt><trkpt lat="39.136431" lon="22.3094343"><ele>472.66666666666663</ele><time>2026-04-28T10:21:51.047Z</time></trkpt><trkpt lat="39.1363325" lon="22.3092289"><ele>472.33333333333337</ele><time>2026-04-28T10:21:52.048Z</time></trkpt><trkpt lat="39.1362522" lon="22.3090012"><ele>472.0</ele><time>2026-04-28T10:21:53.047Z</time></trkpt><trkpt lat="39.1361851" lon="22.3087728"><ele>472.0</ele><time>2026-04-28T10:21:54.047Z</time></trkpt><trkpt lat="39.1361135" lon="22.3085495"><ele>472.0</ele><time>2026-04-28T10:21:55.048Z</time></trkpt><trkpt lat="39.1360366" lon="22.3083379"><ele>472.0</ele><time>2026-04-28T10:21:56.048Z</time></trkpt><trkpt lat="39.1359472" lon="22.3081425"><ele>471.0</ele><time>2026-04-28T10:21:57.047Z</time></trkpt><trkpt lat="39.1358541" lon="22.3079615"><ele>470.0</ele><time>2026-04-28T10:21:58.047Z</time></trkpt><trkpt lat="39.1357645" lon="22.3077974"><ele>469.0</ele><time>2026-04-28T10:21:59.047Z</time></trkpt><trkpt lat="39.135674" lon="22.3076558"><ele>469.0</ele><time>2026-04-28T10:22:00.048Z</time></trkpt><trkpt lat="39.135577" lon="22.307552"><ele>469.0</ele><time>2026-04-28T10:22:01.047Z</time></trkpt><trkpt lat="39.135462" lon="22.3074914"><ele>469.0</ele><time>2026-04-28T10:22:02.047Z</time></trkpt><trkpt lat="39.135341" lon="22.3074689"><ele>469.0</ele><time>2026-04-28T10:22:03.047Z</time></trkpt><trkpt lat="39.1352167" lon="22.3074821"><ele>469.0</ele><time>2026-04-28T10:22:04.047Z</time></trkpt><trkpt lat="39.1350935" lon="22.3075271"><ele>469.0</ele><time>2026-04-28T10:22:05.048Z</time></trkpt><trkpt lat="39.1349744" lon="22.3076081"><ele>469.0</ele><time>2026-04-28T10:22:06.047Z</time></trkpt><trkpt lat="39.13487" lon="22.3077119"><ele>469.0</ele><time>2026-04-28T10:22:07.048Z</time></trkpt><trkpt lat="39.1347728" lon="22.3078294"><ele>467.0</ele><time>2026-04-28T10:22:08.048Z</time></trkpt><trkpt lat="39.1346759" lon="22.3079571"><ele>465.0</ele><time>2026-04-28T10:22:09.047Z</time></trkpt><trkpt lat="39.1345715" lon="22.3080966"><ele>463.0</ele><time>2026-04-28T10:22:10.048Z</time></trkpt><trkpt lat="39.1344632" lon="22.3082367"><ele>461.0</ele><time>2026-04-28T10:22:11.048Z</time></trkpt><trkpt lat="39.1343518" lon="22.308373"><ele>465.25</ele><time>2026-04-28T10:22:12.047Z</time></trkpt><trkpt lat="39.1342374" lon="22.3085012"><ele>469.5</ele><time>2026-04-28T10:22:13.047Z</time></trkpt><trkpt lat="39.1341141" lon="22.3086071"><ele>473.75</ele><time>2026-04-28T10:22:14.048Z</time></trkpt><trkpt lat="39.1339825" lon="22.3086802"><ele>478.0</ele><time>2026-04-28T10:22:15.048Z</time></trkpt><trkpt lat="39.133844" lon="22.3087205"><ele>478.0</ele><time>2026-04-28T10:22:16.047Z</time></trkpt><trkpt lat="39.1337016" lon="22.3087408"><ele>478.0</ele><time>2026-04-28T10:22:17.047Z</time></trkpt><trkpt lat="39.1335564" lon="22.3087518"><ele>478.0</ele><time>2026-04-28T10:22:18.048Z</time></trkpt><trkpt lat="39.1334143" lon="22.3087587"><ele>478.0</ele><time>2026-04-28T10:22:19.047Z</time></trkpt><trkpt lat="39.1332706" lon="22.3087639"><ele>480.0</ele><time>2026-04-28T10:22:20.048Z</time></trkpt><trkpt lat="39.1331256" lon="22.3087668"><ele>482.0</ele><time>2026-04-28T10:22:21.048Z</time></trkpt><trkpt lat="39.1329765" lon="22.3087673"><ele>484.0</ele><time>2026-04-28T10:22:22.047Z</time></trkpt><trkpt lat="39.1328281" lon="22.3087604"><ele>486.0</ele><time>2026-04-28T10:22:23.047Z</time></trkpt><trkpt lat="39.1326868" lon="22.3087202"><ele>486.0</ele><time>2026-04-28T10:22:24.047Z</time></trkpt><trkpt lat="39.1325625" lon="22.3086346"><ele>486.0</ele><time>2026-04-28T10:22:25.048Z</time></trkpt><trkpt lat="39.1324443" lon="22.3085348"><ele>486.0</ele><time>2026-04-28T10:22:26.047Z</time></trkpt><trkpt lat="39.1323241" lon="22.3084203"><ele>486.0</ele><time>2026-04-28T10:22:27.047Z</time></trkpt><trkpt lat="39.1322006" lon="22.3083052"><ele>484.0</ele><time>2026-04-28T10:22:28.048Z</time></trkpt><trkpt lat="39.1320827" lon="22.3081964"><ele>482.0</ele><time>2026-04-28T10:22:29.047Z</time></trkpt><trkpt lat="39.131972" lon="22.3081"><ele>480.0</ele><time>2026-04-28T10:22:30.047Z</time></trkpt><trkpt lat="39.1318561" lon="22.3080147"><ele>478.0</ele><time>2026-04-28T10:22:31.047Z</time></trkpt><trkpt lat="39.1317287" lon="22.3079495"><ele>478.0</ele><time>2026-04-28T10:22:32.048Z</time></trkpt><trkpt lat="39.1315953" lon="22.3079195"><ele>478.0</ele><time>2026-04-28T10:22:33.048Z</time></trkpt><trkpt lat="39.1314531" lon="22.307916"><ele>478.0</ele><time>2026-04-28T10:22:34.048Z</time></trkpt><trkpt lat="39.1313084" lon="22.3079465"><ele>478.0</ele><time>2026-04-28T10:22:35.048Z</time></trkpt><trkpt lat="39.1311713" lon="22.3079968"><ele>479.75</ele><time>2026-04-28T10:22:36.048Z</time></trkpt><trkpt lat="39.1310379" lon="22.3080566"><ele>481.5</ele><time>2026-04-28T10:22:37.047Z</time></trkpt><trkpt lat="39.1309091" lon="22.3081184"><ele>483.25</ele><time>2026-04-28T10:22:38.048Z</time></trkpt><trkpt lat="39.1307863" lon="22.3081826"><ele>485.0</ele><time>2026-04-28T10:22:39.048Z</time></trkpt><trkpt lat="39.1306559" lon="22.3082437"><ele>490.0</ele><time>2026-04-28T10:22:40.048Z</time></trkpt><trkpt lat="39.1305255" lon="22.3082926"><ele>495.0</ele><time>2026-04-28T10:22:41.047Z</time></trkpt><trkpt lat="39.1303864" lon="22.3083329"><ele>500.0</ele><time>2026-04-28T10:22:42.048Z</time></trkpt><trkpt lat="39.1302441" lon="22.3083613"><ele>505.0</ele><time>2026-04-28T10:22:43.047Z</time></trkpt><trkpt lat="39.1301088" lon="22.308375"><ele>505.0</ele><time>2026-04-28T10:22:44.047Z</time></trkpt><trkpt lat="39.1299873" lon="22.3083738"><ele>505.0</ele><time>2026-04-28T10:22:45.048Z</time></trkpt><trkpt lat="39.129874" lon="22.3083568"><ele>505.0</ele><time>2026-04-28T10:22:46.047Z</time></trkpt><trkpt lat="39.1297604" lon="22.3083359"><ele>505.0</ele><time>2026-04-28T10:22:47.048Z</time></trkpt><trkpt lat="39.1296368" lon="22.3082899"><ele>505.6</ele><time>2026-04-28T10:22:48.048Z</time></trkpt><trkpt lat="39.1295156" lon="22.3082417"><ele>506.2</ele><time>2026-04-28T10:22:49.048Z</time></trkpt><trkpt lat="39.129415" lon="22.3081925"><ele>506.79999999999995</ele><time>2026-04-28T10:22:50.048Z</time></trkpt><trkpt lat="39.1293395" lon="22.3081413"><ele>507.4</ele><time>2026-04-28T10:22:51.047Z</time></trkpt><trkpt lat="39.1292831" lon="22.3080955"><ele>508.0</ele><time>2026-04-28T10:22:52.047Z</time></trkpt><trkpt lat="39.1291977" lon="22.3080432"><ele>508.4</ele><time>2026-04-28T10:22:54.047Z</time></trkpt><trkpt lat="39.1290825" lon="22.3079956"><ele>508.79999999999995</ele><time>2026-04-28T10:22:56.048Z</time></trkpt><trkpt lat="39.1289977" lon="22.307978"><ele>509.2</ele><time>2026-04-28T10:22:57.048Z</time></trkpt><trkpt lat="39.1289128" lon="22.3079751"><ele>509.6</ele><time>2026-04-28T10:22:58.047Z</time></trkpt><trkpt lat="39.1288226" lon="22.3079908"><ele>510.0</ele><time>2026-04-28T10:22:59.048Z</time></trkpt><trkpt lat="39.1287346" lon="22.3080243"><ele>510.8333333333333</ele><time>2026-04-28T10:23:00.047Z</time></trkpt><trkpt lat="39.1286511" lon="22.3080737"><ele>511.66666666666663</ele><time>2026-04-28T10:23:01.048Z</time></trkpt><trkpt lat="39.1285745" lon="22.308127"><ele>512.5</ele><time>2026-04-28T10:23:02.048Z</time></trkpt><trkpt lat="39.1285001" lon="22.3081873"><ele>513.3333333333333</ele><time>2026-04-28T10:23:03.048Z</time></trkpt><trkpt lat="39.1284268" lon="22.3082563"><ele>514.1666666666666</ele><time>2026-04-28T10:23:04.047Z</time></trkpt><trkpt lat="39.1283525" lon="22.3083261"><ele>515.0</ele><time>2026-04-28T10:23:05.048Z</time></trkpt><trkpt lat="39.128283" lon="22.3084065"><ele>516.8</ele><time>2026-04-28T10:23:06.048Z</time></trkpt><trkpt lat="39.128221" lon="22.308486"><ele>518.6</ele><time>2026-04-28T10:23:07.048Z</time></trkpt><trkpt lat="39.1281547" lon="22.3085634"><ele>520.4</ele><time>2026-04-28T10:23:08.047Z</time></trkpt><trkpt lat="39.1280846" lon="22.3086421"><ele>522.2</ele><time>2026-04-28T10:23:09.047Z</time></trkpt><trkpt lat="39.1280107" lon="22.3087243"><ele>524.0</ele><time>2026-04-28T10:23:10.047Z</time></trkpt><trkpt lat="39.1279399" lon="22.3088169"><ele>522.4</ele><time>2026-04-28T10:23:11.047Z</time></trkpt><trkpt lat="39.1278626" lon="22.3089161"><ele>520.8</ele><time>2026-04-28T10:23:12.047Z</time></trkpt><trkpt lat="39.1277836" lon="22.3090167"><ele>519.2</ele><time>2026-04-28T10:23:13.047Z</time></trkpt><trkpt lat="39.1277052" lon="22.3091153"><ele>517.6</ele><time>2026-04-28T10:23:14.047Z</time></trkpt><trkpt lat="39.1276268" lon="22.3092173"><ele>516.0</ele><time>2026-04-28T10:23:15.048Z</time></trkpt><trkpt lat="39.1275464" lon="22.3093183"><ele>516.0</ele><time>2026-04-28T10:23:16.047Z</time></trkpt><trkpt lat="39.1274631" lon="22.309419"><ele>516.0</ele><time>2026-04-28T10:23:17.047Z</time></trkpt><trkpt lat="39.1273759" lon="22.3095175"><ele>516.0</ele><time>2026-04-28T10:23:18.048Z</time></trkpt><trkpt lat="39.1272893" lon="22.3096076"><ele>516.0</ele><time>2026-04-28T10:23:19.048Z</time></trkpt><trkpt lat="39.1271987" lon="22.3096831"><ele>516.0</ele><time>2026-04-28T10:23:20.048Z</time></trkpt><trkpt lat="39.127107" lon="22.3097542"><ele>516.2</ele><time>2026-04-28T10:23:21.048Z</time></trkpt><trkpt lat="39.1270147" lon="22.3098133"><ele>516.4000000000001</ele><time>2026-04-28T10:23:22.048Z</time></trkpt><trkpt lat="39.1269224" lon="22.3098673"><ele>516.6</ele><time>2026-04-28T10:23:23.047Z</time></trkpt><trkpt lat="39.1268298" lon="22.3099155"><ele>516.8000000000001</ele><time>2026-04-28T10:23:24.048Z</time></trkpt><trkpt lat="39.1267398" lon="22.3099665"><ele>517.0</ele><time>2026-04-28T10:23:25.047Z</time></trkpt><trkpt lat="39.1266469" lon="22.3100165"><ele>518.0</ele><time>2026-04-28T10:23:26.048Z</time></trkpt><trkpt lat="39.1265563" lon="22.3100677"><ele>519.0</ele><time>2026-04-28T10:23:27.048Z</time></trkpt><trkpt lat="39.126473" lon="22.3101036"><ele>520.0</ele><time>2026-04-28T10:23:28.048Z</time></trkpt><trkpt lat="39.1264037" lon="22.3101424"><ele>521.0</ele><time>2026-04-28T10:23:29.048Z</time></trkpt><trkpt lat="39.1263408" lon="22.31017"><ele>522.0</ele><time>2026-04-28T10:23:30.048Z</time></trkpt><trkpt lat="39.1262797" lon="22.3101946"><ele>523.0</ele><time>2026-04-28T10:23:31.047Z</time></trkpt><trkpt lat="39.1262195" lon="22.310219"><ele>523.0</ele><time>2026-04-28T10:23:32.048Z</time></trkpt><trkpt lat="39.1261215" lon="22.3102642"><ele>523.0</ele><time>2026-04-28T10:23:34.048Z</time></trkpt><trkpt lat="39.1260295" lon="22.3103052"><ele>523.0</ele><time>2026-04-28T10:23:36.047Z</time></trkpt><trkpt lat="39.1259203" lon="22.3103546"><ele>523.0</ele><time>2026-04-28T10:23:38.048Z</time></trkpt><trkpt lat="39.125859" lon="22.3103842"><ele>523.0</ele><time>2026-04-28T10:23:39.048Z</time></trkpt><trkpt lat="39.125797" lon="22.3104141"><ele>523.0</ele><time>2026-04-28T10:23:40.048Z</time></trkpt><trkpt lat="39.1257379" lon="22.3104432"><ele>522.5</ele><time>2026-04-28T10:23:41.047Z</time></trkpt><trkpt lat="39.1256768" lon="22.3104765"><ele>522.0</ele><time>2026-04-28T10:23:42.048Z</time></trkpt><trkpt lat="39.1256132" lon="22.3105107"><ele>521.5</ele><time>2026-04-28T10:23:43.048Z</time></trkpt><trkpt lat="39.1255414" lon="22.3105471"><ele>521.0</ele><time>2026-04-28T10:23:44.047Z</time></trkpt><trkpt lat="39.1254669" lon="22.3105854"><ele>520.5</ele><time>2026-04-28T10:23:45.047Z</time></trkpt><trkpt lat="39.1253918" lon="22.3106251"><ele>520.0</ele><time>2026-04-28T10:23:46.048Z</time></trkpt><trkpt lat="39.1253163" lon="22.3106619"><ele>520.0</ele><time>2026-04-28T10:23:47.048Z</time></trkpt><trkpt lat="39.125242" lon="22.3107035"><ele>520.0</ele><time>2026-04-28T10:23:48.047Z</time></trkpt><trkpt lat="39.1251689" lon="22.310747"><ele>520.0</ele><time>2026-04-28T10:23:49.048Z</time></trkpt><trkpt lat="39.1250928" lon="22.3107917"><ele>520.0</ele><time>2026-04-28T10:23:50.048Z</time></trkpt><trkpt lat="39.1250159" lon="22.3108391"><ele>520.0</ele><time>2026-04-28T10:23:51.048Z</time></trkpt><trkpt lat="39.1249274" lon="22.3108937"><ele>520.0</ele><time>2026-04-28T10:23:52.047Z</time></trkpt><trkpt lat="39.1248294" lon="22.3109493"><ele>520.8</ele><time>2026-04-28T10:23:53.047Z</time></trkpt><trkpt lat="39.1247294" lon="22.3110077"><ele>521.6</ele><time>2026-04-28T10:23:54.048Z</time></trkpt><trkpt lat="39.1246316" lon="22.3110638"><ele>522.4</ele><time>2026-04-28T10:23:55.048Z</time></trkpt><trkpt lat="39.1245353" lon="22.3111194"><ele>523.2</ele><time>2026-04-28T10:23:56.048Z</time></trkpt><trkpt lat="39.1244402" lon="22.311175"><ele>524.0</ele><time>2026-04-28T10:23:57.047Z</time></trkpt><trkpt lat="39.1243463" lon="22.3112277"><ele>524.0</ele><time>2026-04-28T10:23:58.048Z</time></trkpt><trkpt lat="39.1242516" lon="22.3112739"><ele>524.0</ele><time>2026-04-28T10:23:59.047Z</time></trkpt><trkpt lat="39.1241592" lon="22.3113124"><ele>524.0</ele><time>2026-04-28T10:24:00.048Z</time></trkpt><trkpt lat="39.1240659" lon="22.3113494"><ele>524.0</ele><time>2026-04-28T10:24:01.048Z</time></trkpt><trkpt lat="39.1239745" lon="22.3113804"><ele>524.0</ele><time>2026-04-28T10:24:02.047Z</time></trkpt><trkpt lat="39.1238837" lon="22.3114036"><ele>523.1666666666666</ele><time>2026-04-28T10:24:03.048Z</time></trkpt><trkpt lat="39.1237958" lon="22.3114299"><ele>522.3333333333333</ele><time>2026-04-28T10:24:04.048Z</time></trkpt><trkpt lat="39.1237069" lon="22.3114424"><ele>521.5</ele><time>2026-04-28T10:24:05.047Z</time></trkpt><trkpt lat="39.1236236" lon="22.3114706"><ele>520.6666666666666</ele><time>2026-04-28T10:24:06.047Z</time></trkpt><trkpt lat="39.1235346" lon="22.3114752"><ele>519.8333333333334</ele><time>2026-04-28T10:24:07.048Z</time></trkpt><trkpt lat="39.1234461" lon="22.3114766"><ele>519.0</ele><time>2026-04-28T10:24:08.048Z</time></trkpt><trkpt lat="39.1233565" lon="22.3114757"><ele>519.0</ele><time>2026-04-28T10:24:09.048Z</time></trkpt><trkpt lat="39.1232681" lon="22.3114734"><ele>519.0</ele><time>2026-04-28T10:24:10.048Z</time></trkpt><trkpt lat="39.1231776" lon="22.3114691"><ele>519.0</ele><time>2026-04-28T10:24:11.047Z</time></trkpt><trkpt lat="39.1230844" lon="22.3114643"><ele>519.0</ele><time>2026-04-28T10:24:12.048Z</time></trkpt><trkpt lat="39.1229929" lon="22.3114514"><ele>519.0</ele><time>2026-04-28T10:24:13.047Z</time></trkpt><trkpt lat="39.1229006" lon="22.311427"><ele>520.1666666666666</ele><time>2026-04-28T10:24:14.048Z</time></trkpt><trkpt lat="39.1228131" lon="22.3113945"><ele>521.3333333333334</ele><time>2026-04-28T10:24:15.047Z</time></trkpt><trkpt lat="39.1227332" lon="22.3113611"><ele>522.5</ele><time>2026-04-28T10:24:16.047Z</time></trkpt><trkpt lat="39.1226619" lon="22.3113318"><ele>523.6666666666667</ele><time>2026-04-28T10:24:17.048Z</time></trkpt><trkpt lat="39.1225606" lon="22.3113086"><ele>524.8333333333334</ele><time>2026-04-28T10:24:19.048Z</time></trkpt><trkpt lat="39.1224863" lon="22.3112846"><ele>526.0</ele><time>2026-04-28T10:24:21.047Z</time></trkpt><trkpt lat="39.1224253" lon="22.3112317"><ele>526.0</ele><time>2026-04-28T10:24:24.047Z</time></trkpt><trkpt lat="39.1224231" lon="22.3111423"><ele>526.0</ele><time>2026-04-28T10:24:26.048Z</time></trkpt><trkpt lat="39.1224872" lon="22.3110585"><ele>526.0</ele><time>2026-04-28T10:24:28.048Z</time></trkpt><trkpt lat="39.1226103" lon="22.311003"><ele>526.0</ele><time>2026-04-28T10:24:30.048Z</time></trkpt><trkpt lat="39.1226774" lon="22.3109769"><ele>526.0</ele><time>2026-04-28T10:24:31.047Z</time></trkpt><trkpt lat="39.122751" lon="22.3109518"><ele>526.0</ele><time>2026-04-28T10:24:32.047Z</time></trkpt><trkpt lat="39.1228564" lon="22.3109169"><ele>526.0</ele><time>2026-04-28T10:24:33.048Z</time></trkpt><trkpt lat="39.122957" lon="22.310884"><ele>526.0</ele><time>2026-04-28T10:24:34.048Z</time></trkpt><trkpt lat="39.1230614" lon="22.3108475"><ele>526.0</ele><time>2026-04-28T10:24:35.048Z</time></trkpt><trkpt lat="39.1231645" lon="22.3108164"><ele>526.0</ele><time>2026-04-28T10:24:36.047Z</time></trkpt><trkpt lat="39.1232682" lon="22.3107854"><ele>526.0</ele><time>2026-04-28T10:24:37.048Z</time></trkpt><trkpt lat="39.1233739" lon="22.3107516"><ele>526.25</ele><time>2026-04-28T10:24:38.047Z</time></trkpt><trkpt lat="39.1234802" lon="22.310715"><ele>526.5</ele><time>2026-04-28T10:24:39.048Z</time></trkpt><trkpt lat="39.1235906" lon="22.3106775"><ele>526.75</ele><time>2026-04-28T10:24:40.048Z</time></trkpt><trkpt lat="39.1237038" lon="22.3106406"><ele>527.0</ele><time>2026-04-28T10:24:41.048Z</time></trkpt><trkpt lat="39.123816" lon="22.3105934"><ele>529.25</ele><time>2026-04-28T10:24:42.048Z</time></trkpt><trkpt lat="39.1239253" lon="22.3105396"><ele>531.5</ele><time>2026-04-28T10:24:43.047Z</time></trkpt><trkpt lat="39.1240331" lon="22.3104871"><ele>533.75</ele><time>2026-04-28T10:24:44.048Z</time></trkpt><trkpt lat="39.1241431" lon="22.3104351"><ele>536.0</ele><time>2026-04-28T10:24:45.047Z</time></trkpt><trkpt lat="39.1242514" lon="22.3103753"><ele>536.0</ele><time>2026-04-28T10:24:46.047Z</time></trkpt><trkpt lat="39.1243615" lon="22.3103124"><ele>536.0</ele><time>2026-04-28T10:24:47.048Z</time></trkpt><trkpt lat="39.124475" lon="22.3102469"><ele>536.0</ele><time>2026-04-28T10:24:48.048Z</time></trkpt><trkpt lat="39.1245882" lon="22.3101807"><ele>536.0</ele><time>2026-04-28T10:24:49.048Z</time></trkpt><trkpt lat="39.124704" lon="22.3101091"><ele>536.0</ele><time>2026-04-28T10:24:50.048Z</time></trkpt><trkpt lat="39.1248218" lon="22.3100366"><ele>536.0</ele><time>2026-04-28T10:24:51.048Z</time></trkpt><trkpt lat="39.1249384" lon="22.3099568"><ele>536.0</ele><time>2026-04-28T10:24:52.047Z</time></trkpt><trkpt lat="39.1250535" lon="22.3098731"><ele>536.0</ele><time>2026-04-28T10:24:53.047Z</time></trkpt><trkpt lat="39.1251661" lon="22.3097794"><ele>538.0</ele><time>2026-04-28T10:24:54.048Z</time></trkpt><trkpt lat="39.125272" lon="22.3096767"><ele>540.0</ele><time>2026-04-28T10:24:55.047Z</time></trkpt><trkpt lat="39.1253686" lon="22.3095624"><ele>542.0</ele><time>2026-04-28T10:24:56.048Z</time></trkpt><trkpt lat="39.1254583" lon="22.3094342"><ele>544.0</ele><time>2026-04-28T10:24:57.047Z</time></trkpt><trkpt lat="39.125544" lon="22.309309"><ele>544.0</ele><time>2026-04-28T10:24:58.047Z</time></trkpt><trkpt lat="39.1256317" lon="22.309191"><ele>544.0</ele><time>2026-04-28T10:24:59.048Z</time></trkpt><trkpt lat="39.1257355" lon="22.3090934"><ele>544.0</ele><time>2026-04-28T10:25:00.048Z</time></trkpt><trkpt lat="39.1258498" lon="22.3090056"><ele>544.0</ele><time>2026-04-28T10:25:01.048Z</time></trkpt><trkpt lat="39.1259695" lon="22.3089315"><ele>544.5</ele><time>2026-04-28T10:25:02.048Z</time></trkpt><trkpt lat="39.1260942" lon="22.3088582"><ele>545.0</ele><time>2026-04-28T10:25:03.047Z</time></trkpt><trkpt lat="39.1262139" lon="22.3087814"><ele>545.5</ele><time>2026-04-28T10:25:04.048Z</time></trkpt><trkpt lat="39.126331" lon="22.3087085"><ele>546.0</ele><time>2026-04-28T10:25:05.047Z</time></trkpt><trkpt lat="39.1264477" lon="22.3086423"><ele>546.0</ele><time>2026-04-28T10:25:06.047Z</time></trkpt><trkpt lat="39.1265586" lon="22.3085649"><ele>546.0</ele><time>2026-04-28T10:25:07.047Z</time></trkpt><trkpt lat="39.1266616" lon="22.3084752"><ele>546.0</ele><time>2026-04-28T10:25:08.047Z</time></trkpt><trkpt lat="39.1267541" lon="22.3083674"><ele>546.0</ele><time>2026-04-28T10:25:09.048Z</time></trkpt><trkpt lat="39.1268353" lon="22.3082471"><ele>546.0</ele><time>2026-04-28T10:25:10.048Z</time></trkpt><trkpt lat="39.1269056" lon="22.3081139"><ele>546.0</ele><time>2026-04-28T10:25:11.048Z</time></trkpt><trkpt lat="39.1269682" lon="22.3079826"><ele>546.0</ele><time>2026-04-28T10:25:12.048Z</time></trkpt><trkpt lat="39.1270315" lon="22.3078453"><ele>546.0</ele><time>2026-04-28T10:25:13.047Z</time></trkpt><trkpt lat="39.1270881" lon="22.3077098"><ele>546.0</ele><time>2026-04-28T10:25:14.047Z</time></trkpt><trkpt lat="39.1271403" lon="22.3075732"><ele>546.0</ele><time>2026-04-28T10:25:15.048Z</time></trkpt><trkpt lat="39.1271926" lon="22.3074373"><ele>546.0</ele><time>2026-04-28T10:25:16.047Z</time></trkpt><trkpt lat="39.1272448" lon="22.3073013"><ele>546.0</ele><time>2026-04-28T10:25:17.047Z</time></trkpt><trkpt lat="39.1272955" lon="22.3071654"><ele>545.5</ele><time>2026-04-28T10:25:18.048Z</time></trkpt><trkpt lat="39.1273432" lon="22.3070292"><ele>545.0</ele><time>2026-04-28T10:25:19.048Z</time></trkpt><trkpt lat="39.1273855" lon="22.3068926"><ele>544.5</ele><time>2026-04-28T10:25:20.048Z</time></trkpt><trkpt lat="39.1274196" lon="22.3067541"><ele>544.0</ele><time>2026-04-28T10:25:21.048Z</time></trkpt><trkpt lat="39.1274353" lon="22.3066135"><ele>544.0</ele><time>2026-04-28T10:25:22.047Z</time></trkpt><trkpt lat="39.1274333" lon="22.3064755"><ele>544.0</ele><time>2026-04-28T10:25:23.048Z</time></trkpt><trkpt lat="39.1274241" lon="22.3063428"><ele>544.0</ele><time>2026-04-28T10:25:24.048Z</time></trkpt><trkpt lat="39.1274145" lon="22.3062067"><ele>544.0</ele><time>2026-04-28T10:25:25.045Z</time></trkpt><trkpt lat="39.127408" lon="22.3060679"><ele>544.0</ele><time>2026-04-28T10:25:26.048Z</time></trkpt><trkpt lat="39.1274015" lon="22.3059301"><ele>544.6</ele><time>2026-04-28T10:25:27.047Z</time></trkpt><trkpt lat="39.1273945" lon="22.3057913"><ele>545.2</ele><time>2026-04-28T10:25:28.047Z</time></trkpt><trkpt lat="39.1273992" lon="22.3056504"><ele>545.8000000000001</ele><time>2026-04-28T10:25:29.048Z</time></trkpt><trkpt lat="39.1274152" lon="22.3055139"><ele>546.4</ele><time>2026-04-28T10:25:30.048Z</time></trkpt><trkpt lat="39.1274487" lon="22.3053819"><ele>547.0</ele><time>2026-04-28T10:25:31.048Z</time></trkpt><trkpt lat="39.1274891" lon="22.3052522"><ele>549.0</ele><time>2026-04-28T10:25:32.048Z</time></trkpt><trkpt lat="39.1275292" lon="22.3051202"><ele>551.0</ele><time>2026-04-28T10:25:33.047Z</time></trkpt><trkpt lat="39.1275685" lon="22.3049886"><ele>553.0</ele><time>2026-04-28T10:25:34.048Z</time></trkpt><trkpt lat="39.1276058" lon="22.3048484"><ele>555.0</ele><time>2026-04-28T10:25:35.047Z</time></trkpt><trkpt lat="39.1276424" lon="22.304708"><ele>557.0</ele><time>2026-04-28T10:25:36.047Z</time></trkpt><trkpt lat="39.1276711" lon="22.3045662"><ele>558.5</ele><time>2026-04-28T10:25:37.047Z</time></trkpt><trkpt lat="39.1276972" lon="22.3044203"><ele>560.0</ele><time>2026-04-28T10:25:38.048Z</time></trkpt><trkpt lat="39.1277129" lon="22.3042729"><ele>561.5</ele><time>2026-04-28T10:25:39.047Z</time></trkpt><trkpt lat="39.1277245" lon="22.3041276"><ele>563.0</ele><time>2026-04-28T10:25:40.048Z</time></trkpt><trkpt lat="39.1277338" lon="22.3039905"><ele>562.6</ele><time>2026-04-28T10:25:41.047Z</time></trkpt><trkpt lat="39.1277439" lon="22.3038593"><ele>562.1999999999999</ele><time>2026-04-28T10:25:42.048Z</time></trkpt><trkpt lat="39.1277551" lon="22.3037398"><ele>561.8</ele><time>2026-04-28T10:25:43.047Z</time></trkpt><trkpt lat="39.1277593" lon="22.3036396"><ele>561.4</ele><time>2026-04-28T10:25:44.047Z</time></trkpt><trkpt lat="39.1277584" lon="22.3035522"><ele>561.0</ele><time>2026-04-28T10:25:45.048Z</time></trkpt><trkpt lat="39.1277576" lon="22.3034038"><ele>561.0</ele><time>2026-04-28T10:25:47.047Z</time></trkpt><trkpt lat="39.1277462" lon="22.3032744"><ele>561.0</ele><time>2026-04-28T10:25:49.048Z</time></trkpt><trkpt lat="39.1277384" lon="22.3031734"><ele>561.0</ele><time>2026-04-28T10:25:51.047Z</time></trkpt><trkpt lat="39.1277278" lon="22.3030577"><ele>561.0</ele><time>2026-04-28T10:25:53.047Z</time></trkpt><trkpt lat="39.1277169" lon="22.3029187"><ele>561.0</ele><time>2026-04-28T10:25:55.048Z</time></trkpt><trkpt lat="39.1277042" lon="22.3027817"><ele>561.0</ele><time>2026-04-28T10:25:57.048Z</time></trkpt><trkpt lat="39.1276996" lon="22.3026968"><ele>561.0</ele><time>2026-04-28T10:25:58.048Z</time></trkpt><trkpt lat="39.1276919" lon="22.3026124"><ele>561.0</ele><time>2026-04-28T10:25:59.048Z</time></trkpt><trkpt lat="39.1276902" lon="22.3025281"><ele>561.0</ele><time>2026-04-28T10:26:00.047Z</time></trkpt><trkpt lat="39.127684" lon="22.3023705"><ele>561.0</ele><time>2026-04-28T10:26:02.048Z</time></trkpt><trkpt lat="39.1276803" lon="22.3022072"><ele>561.0</ele><time>2026-04-28T10:26:04.048Z</time></trkpt><trkpt lat="39.1276801" lon="22.3021245"><ele>560.7142857142857</ele><time>2026-04-28T10:26:05.047Z</time></trkpt><trkpt lat="39.1276865" lon="22.3020436"><ele>560.4285714285713</ele><time>2026-04-28T10:26:06.047Z</time></trkpt><trkpt lat="39.1276952" lon="22.3019466"><ele>560.1428571428571</ele><time>2026-04-28T10:26:07.047Z</time></trkpt><trkpt lat="39.1277177" lon="22.3018594"><ele>559.8571428571429</ele><time>2026-04-28T10:26:08.047Z</time></trkpt><trkpt lat="39.1277391" lon="22.3017678"><ele>559.5714285714287</ele><time>2026-04-28T10:26:09.048Z</time></trkpt><trkpt lat="39.1277631" lon="22.3016783"><ele>559.2857142857143</ele><time>2026-04-28T10:26:10.048Z</time></trkpt><trkpt lat="39.1277823" lon="22.301591"><ele>559.0</ele><time>2026-04-28T10:26:11.048Z</time></trkpt><trkpt lat="39.1277989" lon="22.3015056"><ele>559.0</ele><time>2026-04-28T10:26:12.048Z</time></trkpt><trkpt lat="39.1278187" lon="22.3014233"><ele>559.0</ele><time>2026-04-28T10:26:13.048Z</time></trkpt><trkpt lat="39.1278401" lon="22.3013419"><ele>559.0</ele><time>2026-04-28T10:26:14.047Z</time></trkpt><trkpt lat="39.127858" lon="22.3012623"><ele>559.0</ele><time>2026-04-28T10:26:15.048Z</time></trkpt><trkpt lat="39.1278846" lon="22.3011851"><ele>559.0</ele><time>2026-04-28T10:26:16.047Z</time></trkpt><trkpt lat="39.127926" lon="22.3010431"><ele>559.0</ele><time>2026-04-28T10:26:18.047Z</time></trkpt><trkpt lat="39.1279467" lon="22.3008924"><ele>560.2</ele><time>2026-04-28T10:26:20.047Z</time></trkpt><trkpt lat="39.1279428" lon="22.3007387"><ele>561.4</ele><time>2026-04-28T10:26:22.047Z</time></trkpt><trkpt lat="39.1279325" lon="22.3005907"><ele>562.6</ele><time>2026-04-28T10:26:24.047Z</time></trkpt><trkpt lat="39.1279155" lon="22.3004552"><ele>563.8</ele><time>2026-04-28T10:26:26.047Z</time></trkpt><trkpt lat="39.1279112" lon="22.3003423"><ele>565.0</ele><time>2026-04-28T10:26:28.048Z</time></trkpt><trkpt lat="39.1279185" lon="22.3002329"><ele>566.5714285714286</ele><time>2026-04-28T10:26:30.048Z</time></trkpt><trkpt lat="39.1279384" lon="22.3001427"><ele>568.1428571428571</ele><time>2026-04-28T10:26:32.048Z</time></trkpt><trkpt lat="39.127965" lon="22.3000655"><ele>569.7142857142858</ele><time>2026-04-28T10:26:34.047Z</time></trkpt><trkpt lat="39.1279883" lon="22.2999878"><ele>571.2857142857142</ele><time>2026-04-28T10:26:36.047Z</time></trkpt><trkpt lat="39.1280156" lon="22.2999127"><ele>572.8571428571429</ele><time>2026-04-28T10:26:40.048Z</time></trkpt><trkpt lat="39.1280319" lon="22.2998158"><ele>574.4285714285714</ele><time>2026-04-28T10:26:45.048Z</time></trkpt><trkpt lat="39.1280719" lon="22.2997197"><ele>576.0</ele><time>2026-04-28T10:26:49.048Z</time></trkpt><trkpt lat="39.1280948" lon="22.2996301"><ele>578.0</ele><time>2026-04-28T10:26:59.047Z</time></trkpt><trkpt lat="39.1281384" lon="22.299542"><ele>580.0</ele><time>2026-04-28T10:28:42.049Z</time></trkpt><trkpt lat="39.1281881" lon="22.2994065"><ele>582.0</ele><time>2026-04-28T10:28:44.048Z</time></trkpt><trkpt lat="39.1282175" lon="22.2993293"><ele>584.0</ele><time>2026-04-28T10:28:45.049Z</time></trkpt><trkpt lat="39.1282451" lon="22.2992561"><ele>586.0</ele><time>2026-04-28T10:28:46.048Z</time></trkpt><trkpt lat="39.1282766" lon="22.2991757"><ele>588.0</ele><time>2026-04-28T10:28:47.049Z</time></trkpt><trkpt lat="39.128311" lon="22.2991025"><ele>583.8</ele><time>2026-04-28T10:28:48.049Z</time></trkpt><trkpt lat="39.1283418" lon="22.2990248"><ele>579.5999999999999</ele><time>2026-04-28T10:28:49.049Z</time></trkpt><trkpt lat="39.1283813" lon="22.2989573"><ele>575.4000000000001</ele><time>2026-04-28T10:28:50.048Z</time></trkpt><trkpt lat="39.1284465" lon="22.298821"><ele>571.2</ele><time>2026-04-28T10:28:52.049Z</time></trkpt><trkpt lat="39.1284967" lon="22.2986958"><ele>567.0</ele><time>2026-04-28T10:28:54.048Z</time></trkpt><trkpt lat="39.1285205" lon="22.2985758"><ele>567.0</ele><time>2026-04-28T10:28:56.048Z</time></trkpt><trkpt lat="39.1285469" lon="22.2984867"><ele>567.0</ele><time>2026-04-28T10:28:58.048Z</time></trkpt><trkpt lat="39.1285678" lon="22.2984056"><ele>567.0</ele><time>2026-04-28T10:29:00.049Z</time></trkpt><trkpt lat="39.1285945" lon="22.2982964"><ele>567.0</ele><time>2026-04-28T10:29:02.048Z</time></trkpt><trkpt lat="39.1286382" lon="22.2981709"><ele>567.0</ele><time>2026-04-28T10:29:04.048Z</time></trkpt><trkpt lat="39.1286849" lon="22.2980314"><ele>568.0</ele><time>2026-04-28T10:29:06.049Z</time></trkpt><trkpt lat="39.1287409" lon="22.2979213"><ele>569.0</ele><time>2026-04-28T10:29:08.049Z</time></trkpt><trkpt lat="39.1287925" lon="22.297858"><ele>570.0</ele><time>2026-04-28T10:29:11.049Z</time></trkpt><trkpt lat="39.1287774" lon="22.2977702"><ele>571.0</ele><time>2026-04-28T10:29:48.042Z</time></trkpt><trkpt lat="39.1287178" lon="22.2977375"><ele>572.0</ele><time>2026-04-28T10:30:51.041Z</time></trkpt><trkpt lat="39.1287686" lon="22.2977965"><ele>573.0</ele><time>2026-04-28T10:32:25.042Z</time></trkpt><trkpt lat="39.128768" lon="22.297899"><ele>573.0</ele><time>2026-04-28T10:33:21.042Z</time></trkpt><trkpt lat="39.1287917" lon="22.2978205"><ele>573.0</ele><time>2026-04-28T10:40:57.041Z</time></trkpt><trkpt lat="39.1287469" lon="22.2977514"><ele>573.0</ele><time>2026-04-28T10:42:34.042Z</time></trkpt><trkpt lat="39.1286831" lon="22.2977274"><ele>573.0</ele><time>2026-04-28T10:42:41.042Z</time></trkpt><trkpt lat="39.1287355" lon="22.2977822"><ele>573.0</ele><time>2026-04-28T10:44:30.017Z</time></trkpt><trkpt lat="39.1287382" lon="22.2978659"><ele>573.0</ele><time>2026-04-28T10:44:40.041Z</time></trkpt><trkpt lat="39.1288032" lon="22.2978592"><ele>573.0</ele><time>2026-04-28T10:45:39.043Z</time></trkpt><trkpt lat="39.1287902" lon="22.2977776"><ele>573.0</ele><time>2026-04-28T10:46:14.044Z</time></trkpt><trkpt lat="39.1287401" lon="22.2977228"><ele>573.0</ele><time>2026-04-28T10:46:20.044Z</time></trkpt><trkpt lat="39.1286784" lon="22.2976921"><ele>573.0</ele><time>2026-04-28T10:46:26.044Z</time></trkpt><trkpt lat="39.1287407" lon="22.297737"><ele>573.0</ele><time>2026-04-28T10:46:47.044Z</time></trkpt><trkpt lat="39.1287312" lon="22.2978321"><ele>573.0</ele><time>2026-04-28T10:46:53.032Z</time></trkpt><trkpt lat="39.1287484" lon="22.2979137"><ele>573.0</ele><time>2026-04-28T10:46:59.043Z</time></trkpt><trkpt lat="39.128777" lon="22.2978318"><ele>573.0</ele><time>2026-04-28T10:49:05.043Z</time></trkpt><trkpt lat="39.12876" lon="22.2977344"><ele>573.0</ele><time>2026-04-28T10:49:33.043Z</time></trkpt><trkpt lat="39.1286892" lon="22.2977101"><ele>573.0</ele><time>2026-04-28T10:49:38.042Z</time></trkpt><trkpt lat="39.1287385" lon="22.2977608"><ele>573.0</ele><time>2026-04-28T10:49:54.043Z</time></trkpt><trkpt lat="39.1287468" lon="22.2978543"><ele>573.0</ele><time>2026-04-28T10:49:59.042Z</time></trkpt><trkpt lat="39.128778" lon="22.2979255"><ele>573.0</ele><time>2026-04-28T10:50:05.044Z</time></trkpt><trkpt lat="39.1287692" lon="22.2978303"><ele>573.0</ele><time>2026-04-28T11:43:10.023Z</time></trkpt><trkpt lat="39.1287721" lon="22.2977492"><ele>573.0</ele><time>2026-04-28T11:43:14.035Z</time></trkpt><trkpt lat="39.128712" lon="22.2977086"><ele>573.0</ele><time>2026-04-28T11:43:19.035Z</time></trkpt><trkpt lat="39.1287618" lon="22.2977601"><ele>573.0</ele><time>2026-04-28T11:43:55.035Z</time></trkpt><trkpt lat="39.1288294" lon="22.2977381"><ele>573.0</ele><time>2026-04-28T11:44:00.036Z</time></trkpt><trkpt lat="39.1287506" lon="22.2977744"><ele>573.0</ele><time>2026-04-28T11:45:01.036Z</time></trkpt><trkpt lat="39.1287896" lon="22.2978385"><ele>573.0</ele><time>2026-04-28T11:45:08.035Z</time></trkpt><trkpt lat="39.1288224" lon="22.297918"><ele>573.0</ele><time>2026-04-28T11:45:16.034Z</time></trkpt><trkpt lat="39.1288021" lon="22.2978346"><ele>573.0</ele><time>2026-04-28T11:45:46.035Z</time></trkpt><trkpt lat="39.1287862" lon="22.2979134"><ele>573.0</ele><time>2026-04-28T11:46:27.033Z</time></trkpt><trkpt lat="39.1287882" lon="22.2978222"><ele>573.0</ele><time>2026-04-28T11:52:47.034Z</time></trkpt><trkpt lat="39.1288034" lon="22.2977223"><ele>573.0</ele><time>2026-04-28T11:54:41.034Z</time></trkpt><trkpt lat="39.1288366" lon="22.2976133"><ele>573.0</ele><time>2026-04-28T11:54:43.034Z</time></trkpt><trkpt lat="39.1288906" lon="22.2974926"><ele>573.0</ele><time>2026-04-28T11:54:45.034Z</time></trkpt><trkpt lat="39.1289299" lon="22.29735"><ele>572.6</ele><time>2026-04-28T11:54:47.034Z</time></trkpt><trkpt lat="39.1289878" lon="22.297219"><ele>572.1999999999999</ele><time>2026-04-28T11:54:49.034Z</time></trkpt><trkpt lat="39.1290336" lon="22.2970909"><ele>571.8</ele><time>2026-04-28T11:54:51.034Z</time></trkpt><trkpt lat="39.1290465" lon="22.2969949"><ele>571.4</ele><time>2026-04-28T11:54:53.033Z</time></trkpt><trkpt lat="39.129018" lon="22.2969147"><ele>571.0</ele><time>2026-04-28T11:54:56.034Z</time></trkpt><trkpt lat="39.1289214" lon="22.2969172"><ele>571.0</ele><time>2026-04-28T11:55:02.034Z</time></trkpt><trkpt lat="39.1288134" lon="22.2969329"><ele>571.0</ele><time>2026-04-28T11:55:04.035Z</time></trkpt><trkpt lat="39.1286939" lon="22.2969834"><ele>571.0</ele><time>2026-04-28T11:55:06.035Z</time></trkpt><trkpt lat="39.1285803" lon="22.2970335"><ele>571.0</ele><time>2026-04-28T11:55:08.035Z</time></trkpt><trkpt lat="39.1284835" lon="22.2971048"><ele>571.0</ele><time>2026-04-28T11:55:10.033Z</time></trkpt><trkpt lat="39.1284082" lon="22.2972113"><ele>571.0</ele><time>2026-04-28T11:55:12.033Z</time></trkpt><trkpt lat="39.1283304" lon="22.2973258"><ele>571.0</ele><time>2026-04-28T11:55:14.033Z</time></trkpt><trkpt lat="39.1282748" lon="22.2973786"><ele>571.0</ele><time>2026-04-28T11:55:15.034Z</time></trkpt><trkpt lat="39.1282173" lon="22.2974222"><ele>571.0</ele><time>2026-04-28T11:55:16.035Z</time></trkpt><trkpt lat="39.1281701" lon="22.2974762"><ele>571.0</ele><time>2026-04-28T11:55:17.035Z</time></trkpt><trkpt lat="39.1281464" lon="22.2976257"><ele>573.3333333333334</ele><time>2026-04-28T11:55:19.033Z</time></trkpt><trkpt lat="39.1281617" lon="22.2977213"><ele>575.6666666666667</ele><time>2026-04-28T11:55:20.033Z</time></trkpt><trkpt lat="39.1281874" lon="22.2978109"><ele>578.0</ele><time>2026-04-28T11:55:21.034Z</time></trkpt><trkpt lat="39.128208" lon="22.2979219"><ele>580.3333333333334</ele><time>2026-04-28T11:55:22.035Z</time></trkpt><trkpt lat="39.1282119" lon="22.2980255"><ele>582.6666666666666</ele><time>2026-04-28T11:55:23.035Z</time></trkpt><trkpt lat="39.1281727" lon="22.298141"><ele>585.0</ele><time>2026-04-28T11:55:24.034Z</time></trkpt><trkpt lat="39.1281279" lon="22.2982409"><ele>587.0</ele><time>2026-04-28T11:55:25.033Z</time></trkpt><trkpt lat="39.1280875" lon="22.29834"><ele>589.0</ele><time>2026-04-28T11:55:26.034Z</time></trkpt><trkpt lat="39.1280416" lon="22.2984526"><ele>591.0</ele><time>2026-04-28T11:55:27.035Z</time></trkpt><trkpt lat="39.1279959" lon="22.2985644"><ele>593.0</ele><time>2026-04-28T11:55:28.035Z</time></trkpt><trkpt lat="39.1279493" lon="22.298675"><ele>595.0</ele><time>2026-04-28T11:55:29.035Z</time></trkpt><trkpt lat="39.1278987" lon="22.2987878"><ele>595.0</ele><time>2026-04-28T11:55:30.033Z</time></trkpt><trkpt lat="39.1278501" lon="22.2989075"><ele>595.0</ele><time>2026-04-28T11:55:31.033Z</time></trkpt><trkpt lat="39.1278041" lon="22.29903"><ele>595.0</ele><time>2026-04-28T11:55:32.034Z</time></trkpt><trkpt lat="39.1277642" lon="22.2991572"><ele>595.0</ele><time>2026-04-28T11:55:33.034Z</time></trkpt><trkpt lat="39.1277227" lon="22.2992815"><ele>595.0</ele><time>2026-04-28T11:55:34.034Z</time></trkpt><trkpt lat="39.1276885" lon="22.2994019"><ele>593.6</ele><time>2026-04-28T11:55:35.035Z</time></trkpt><trkpt lat="39.1276482" lon="22.2995253"><ele>592.2</ele><time>2026-04-28T11:55:36.034Z</time></trkpt><trkpt lat="39.1276071" lon="22.2996538"><ele>590.8</ele><time>2026-04-28T11:55:37.035Z</time></trkpt><trkpt lat="39.1275692" lon="22.2997841"><ele>589.4</ele><time>2026-04-28T11:55:38.035Z</time></trkpt><trkpt lat="39.1275395" lon="22.2999236"><ele>588.0</ele><time>2026-04-28T11:55:39.035Z</time></trkpt><trkpt lat="39.1275018" lon="22.3000559"><ele>587.8</ele><time>2026-04-28T11:55:40.033Z</time></trkpt><trkpt lat="39.1274564" lon="22.3001887"><ele>587.5999999999999</ele><time>2026-04-28T11:55:41.033Z</time></trkpt><trkpt lat="39.1274043" lon="22.3003162"><ele>587.4000000000001</ele><time>2026-04-28T11:55:42.033Z</time></trkpt><trkpt lat="39.1273419" lon="22.3004271"><ele>587.2</ele><time>2026-04-28T11:55:43.034Z</time></trkpt><trkpt lat="39.1272615" lon="22.3005256"><ele>587.0</ele><time>2026-04-28T11:55:44.034Z</time></trkpt><trkpt lat="39.1271724" lon="22.3006142"><ele>587.0</ele><time>2026-04-28T11:55:45.034Z</time></trkpt><trkpt lat="39.1270829" lon="22.300702"><ele>587.0</ele><time>2026-04-28T11:55:46.034Z</time></trkpt><trkpt lat="39.1269943" lon="22.3007831"><ele>587.0</ele><time>2026-04-28T11:55:47.034Z</time></trkpt><trkpt lat="39.1269016" lon="22.3008709"><ele>587.0</ele><time>2026-04-28T11:55:48.034Z</time></trkpt><trkpt lat="39.1268184" lon="22.3009624"><ele>587.0</ele><time>2026-04-28T11:55:49.033Z</time></trkpt><trkpt lat="39.1267465" lon="22.3010626"><ele>587.0</ele><time>2026-04-28T11:55:50.033Z</time></trkpt><trkpt lat="39.1266854" lon="22.301173"><ele>587.0</ele><time>2026-04-28T11:55:51.034Z</time></trkpt><trkpt lat="39.1266384" lon="22.3012828"><ele>587.0</ele><time>2026-04-28T11:55:52.034Z</time></trkpt><trkpt lat="39.1266021" lon="22.3013997"><ele>587.0</ele><time>2026-04-28T11:55:53.035Z</time></trkpt><trkpt lat="39.1265804" lon="22.301527"><ele>587.0</ele><time>2026-04-28T11:55:54.035Z</time></trkpt><trkpt lat="39.1265665" lon="22.301661"><ele>590.2</ele><time>2026-04-28T11:55:55.034Z</time></trkpt><trkpt lat="39.1265541" lon="22.3017978"><ele>593.4000000000001</ele><time>2026-04-28T11:55:56.034Z</time></trkpt><trkpt lat="39.1265385" lon="22.3019318"><ele>596.5999999999999</ele><time>2026-04-28T11:55:57.035Z</time></trkpt><trkpt lat="39.126527" lon="22.3020681"><ele>599.8</ele><time>2026-04-28T11:55:58.035Z</time></trkpt><trkpt lat="39.1265188" lon="22.3022138"><ele>603.0</ele><time>2026-04-28T11:55:59.035Z</time></trkpt><trkpt lat="39.126516" lon="22.3023501"><ele>603.0</ele><time>2026-04-28T11:56:00.034Z</time></trkpt><trkpt lat="39.1265259" lon="22.3024862"><ele>603.0</ele><time>2026-04-28T11:56:01.034Z</time></trkpt><trkpt lat="39.1265418" lon="22.3026155"><ele>603.0</ele><time>2026-04-28T11:56:02.034Z</time></trkpt><trkpt lat="39.1265688" lon="22.3027349"><ele>603.0</ele><time>2026-04-28T11:56:03.034Z</time></trkpt><trkpt lat="39.1266019" lon="22.3028491"><ele>603.0</ele><time>2026-04-28T11:56:04.033Z</time></trkpt><trkpt lat="39.1266437" lon="22.3029624"><ele>598.0</ele><time>2026-04-28T11:56:05.034Z</time></trkpt><trkpt lat="39.1266791" lon="22.3030834"><ele>593.0</ele><time>2026-04-28T11:56:06.034Z</time></trkpt><trkpt lat="39.1267063" lon="22.3032056"><ele>588.0</ele><time>2026-04-28T11:56:07.033Z</time></trkpt><trkpt lat="39.1267324" lon="22.3033329"><ele>583.0</ele><time>2026-04-28T11:56:08.035Z</time></trkpt><trkpt lat="39.1267445" lon="22.3034753"><ele>578.0</ele><time>2026-04-28T11:56:09.034Z</time></trkpt><trkpt lat="39.1267478" lon="22.3036231"><ele>578.0</ele><time>2026-04-28T11:56:10.034Z</time></trkpt><trkpt lat="39.1267406" lon="22.3037646"><ele>578.0</ele><time>2026-04-28T11:56:11.034Z</time></trkpt><trkpt lat="39.1267446" lon="22.3039119"><ele>578.0</ele><time>2026-04-28T11:56:12.035Z</time></trkpt><trkpt lat="39.1267406" lon="22.3040524"><ele>578.0</ele><time>2026-04-28T11:56:13.034Z</time></trkpt><trkpt lat="39.1267465" lon="22.3041956"><ele>578.0</ele><time>2026-04-28T11:56:14.034Z</time></trkpt><trkpt lat="39.1267551" lon="22.3043386"><ele>578.0</ele><time>2026-04-28T11:56:15.035Z</time></trkpt><trkpt lat="39.126769" lon="22.3044764"><ele>578.0</ele><time>2026-04-28T11:56:16.035Z</time></trkpt><trkpt lat="39.1267848" lon="22.3046138"><ele>578.0</ele><time>2026-04-28T11:56:17.034Z</time></trkpt><trkpt lat="39.126801" lon="22.3047532"><ele>578.0</ele><time>2026-04-28T11:56:18.033Z</time></trkpt><trkpt lat="39.1268005" lon="22.3048859"><ele>578.0</ele><time>2026-04-28T11:56:19.034Z</time></trkpt><trkpt lat="39.1267923" lon="22.3050095"><ele>578.5</ele><time>2026-04-28T11:56:20.034Z</time></trkpt><trkpt lat="39.1267677" lon="22.3051422"><ele>579.0</ele><time>2026-04-28T11:56:21.033Z</time></trkpt><trkpt lat="39.1267403" lon="22.3052824"><ele>579.5</ele><time>2026-04-28T11:56:22.033Z</time></trkpt><trkpt lat="39.1267105" lon="22.3054288"><ele>580.0</ele><time>2026-04-28T11:56:23.034Z</time></trkpt><trkpt lat="39.1266878" lon="22.3055808"><ele>579.0</ele><time>2026-04-28T11:56:24.035Z</time></trkpt><trkpt lat="39.1266691" lon="22.3057351"><ele>578.0</ele><time>2026-04-28T11:56:25.034Z</time></trkpt><trkpt lat="39.1266518" lon="22.3058925"><ele>577.0</ele><time>2026-04-28T11:56:26.034Z</time></trkpt><trkpt lat="39.1266354" lon="22.3060407"><ele>576.0</ele><time>2026-04-28T11:56:27.035Z</time></trkpt><trkpt lat="39.1266109" lon="22.3061867"><ele>576.0</ele><time>2026-04-28T11:56:28.035Z</time></trkpt><trkpt lat="39.1265855" lon="22.3063372"><ele>576.0</ele><time>2026-04-28T11:56:29.034Z</time></trkpt><trkpt lat="39.1265484" lon="22.3064747"><ele>576.0</ele><time>2026-04-28T11:56:30.034Z</time></trkpt><trkpt lat="39.1265011" lon="22.306619"><ele>576.0</ele><time>2026-04-28T11:56:31.035Z</time></trkpt><trkpt lat="39.1264476" lon="22.3067542"><ele>579.5</ele><time>2026-04-28T11:56:32.034Z</time></trkpt><trkpt lat="39.1263906" lon="22.3068857"><ele>583.0</ele><time>2026-04-28T11:56:33.034Z</time></trkpt><trkpt lat="39.1263229" lon="22.3070152"><ele>586.5</ele><time>2026-04-28T11:56:34.034Z</time></trkpt><trkpt lat="39.1262531" lon="22.3071345"><ele>590.0</ele><time>2026-04-28T11:56:35.034Z</time></trkpt><trkpt lat="39.1261769" lon="22.3072522"><ele>583.0</ele><time>2026-04-28T11:56:36.035Z</time></trkpt><trkpt lat="39.126098" lon="22.3073692"><ele>576.0</ele><time>2026-04-28T11:56:37.035Z</time></trkpt><trkpt lat="39.1260094" lon="22.3074808"><ele>569.0</ele><time>2026-04-28T11:56:38.034Z</time></trkpt><trkpt lat="39.1259127" lon="22.3075857"><ele>562.0</ele><time>2026-04-28T11:56:39.034Z</time></trkpt><trkpt lat="39.1258119" lon="22.3076934"><ele>562.25</ele><time>2026-04-28T11:56:40.034Z</time></trkpt><trkpt lat="39.1257073" lon="22.3078137"><ele>562.5</ele><time>2026-04-28T11:56:41.035Z</time></trkpt><trkpt lat="39.125605" lon="22.3079317"><ele>562.75</ele><time>2026-04-28T11:56:42.033Z</time></trkpt><trkpt lat="39.1255047" lon="22.3080548"><ele>563.0</ele><time>2026-04-28T11:56:43.034Z</time></trkpt><trkpt lat="39.1254018" lon="22.3081862"><ele>563.0</ele><time>2026-04-28T11:56:44.034Z</time></trkpt><trkpt lat="39.1252995" lon="22.3083272"><ele>563.0</ele><time>2026-04-28T11:56:45.033Z</time></trkpt><trkpt lat="39.1251968" lon="22.3084843"><ele>563.0</ele><time>2026-04-28T11:56:46.034Z</time></trkpt><trkpt lat="39.1250966" lon="22.3086519"><ele>563.0</ele><time>2026-04-28T11:56:47.033Z</time></trkpt><trkpt lat="39.1249919" lon="22.3088292"><ele>563.0</ele><time>2026-04-28T11:56:48.033Z</time></trkpt><trkpt lat="39.1248864" lon="22.3090064"><ele>563.0</ele><time>2026-04-28T11:56:49.033Z</time></trkpt><trkpt lat="39.1247777" lon="22.3091665"><ele>562.0</ele><time>2026-04-28T11:56:50.033Z</time></trkpt><trkpt lat="39.1246526" lon="22.3093117"><ele>561.0</ele><time>2026-04-28T11:56:51.034Z</time></trkpt><trkpt lat="39.1245167" lon="22.3094356"><ele>560.0</ele><time>2026-04-28T11:56:52.033Z</time></trkpt><trkpt lat="39.1243735" lon="22.3095414"><ele>560.0</ele><time>2026-04-28T11:56:53.033Z</time></trkpt><trkpt lat="39.1242202" lon="22.3096397"><ele>560.0</ele><time>2026-04-28T11:56:54.033Z</time></trkpt><trkpt lat="39.1240689" lon="22.3097317"><ele>560.0</ele><time>2026-04-28T11:56:55.033Z</time></trkpt><trkpt lat="39.1239253" lon="22.3098146"><ele>553.3333333333333</ele><time>2026-04-28T11:56:56.032Z</time></trkpt><trkpt lat="39.1237849" lon="22.3099054"><ele>546.6666666666666</ele><time>2026-04-28T11:56:57.032Z</time></trkpt><trkpt lat="39.1236526" lon="22.310009"><ele>540.0</ele><time>2026-04-28T11:56:58.033Z</time></trkpt><trkpt lat="39.1235278" lon="22.3101206"><ele>540.0</ele><time>2026-04-28T11:56:59.032Z</time></trkpt><trkpt lat="39.1234087" lon="22.3102419"><ele>540.0</ele><time>2026-04-28T11:57:00.034Z</time></trkpt><trkpt lat="39.1232944" lon="22.3103603"><ele>540.0</ele><time>2026-04-28T11:57:01.032Z</time></trkpt><trkpt lat="39.1231792" lon="22.3104727"><ele>540.0</ele><time>2026-04-28T11:57:02.034Z</time></trkpt><trkpt lat="39.1230771" lon="22.3105727"><ele>537.6666666666666</ele><time>2026-04-28T11:57:03.034Z</time></trkpt><trkpt lat="39.1229862" lon="22.3106544"><ele>535.3333333333334</ele><time>2026-04-28T11:57:04.033Z</time></trkpt><trkpt lat="39.1229131" lon="22.3107161"><ele>533.0</ele><time>2026-04-28T11:57:05.033Z</time></trkpt><trkpt lat="39.1228441" lon="22.3107686"><ele>530.6666666666667</ele><time>2026-04-28T11:57:06.032Z</time></trkpt><trkpt lat="39.122782" lon="22.3108161"><ele>528.3333333333334</ele><time>2026-04-28T11:57:07.033Z</time></trkpt><trkpt lat="39.1227257" lon="22.3108584"><ele>526.0</ele><time>2026-04-28T11:57:08.034Z</time></trkpt><trkpt lat="39.1226506" lon="22.3108937"><ele>526.0</ele><time>2026-04-28T11:57:09.034Z</time></trkpt><trkpt lat="39.1225718" lon="22.3109301"><ele>526.0</ele><time>2026-04-28T11:57:10.034Z</time></trkpt><trkpt lat="39.122485" lon="22.3109677"><ele>526.0</ele><time>2026-04-28T11:57:11.034Z</time></trkpt><trkpt lat="39.1223942" lon="22.3110093"><ele>526.0</ele><time>2026-04-28T11:57:12.034Z</time></trkpt><trkpt lat="39.1223016" lon="22.3110539"><ele>526.0</ele><time>2026-04-28T11:57:13.033Z</time></trkpt><trkpt lat="39.1222097" lon="22.3110961"><ele>525.6</ele><time>2026-04-28T11:57:14.032Z</time></trkpt><trkpt lat="39.1221244" lon="22.3111294"><ele>525.2</ele><time>2026-04-28T11:57:15.034Z</time></trkpt><trkpt lat="39.1220367" lon="22.3111521"><ele>524.8</ele><time>2026-04-28T11:57:16.033Z</time></trkpt><trkpt lat="39.1219544" lon="22.3111868"><ele>524.4</ele><time>2026-04-28T11:57:17.032Z</time></trkpt><trkpt lat="39.1218543" lon="22.3112126"><ele>524.0</ele><time>2026-04-28T11:57:18.032Z</time></trkpt><trkpt lat="39.1217414" lon="22.3112425"><ele>524.0</ele><time>2026-04-28T11:57:19.034Z</time></trkpt><trkpt lat="39.1216156" lon="22.3112777"><ele>524.0</ele><time>2026-04-28T11:57:20.033Z</time></trkpt><trkpt lat="39.121484" lon="22.3113102"><ele>524.0</ele><time>2026-04-28T11:57:21.033Z</time></trkpt><trkpt lat="39.1213455" lon="22.3113472"><ele>524.0</ele><time>2026-04-28T11:57:22.034Z</time></trkpt><trkpt lat="39.1212011" lon="22.3113843"><ele>521.5</ele><time>2026-04-28T11:57:23.034Z</time></trkpt><trkpt lat="39.1210557" lon="22.3114186"><ele>519.0</ele><time>2026-04-28T11:57:24.033Z</time></trkpt><trkpt lat="39.1209114" lon="22.3114497"><ele>516.5</ele><time>2026-04-28T11:57:25.032Z</time></trkpt><trkpt lat="39.1207633" lon="22.3114801"><ele>514.0</ele><time>2026-04-28T11:57:26.033Z</time></trkpt><trkpt lat="39.1206139" lon="22.3115024"><ele>513.6666666666667</ele><time>2026-04-28T11:57:27.034Z</time></trkpt><trkpt lat="39.1204572" lon="22.3115235"><ele>513.3333333333334</ele><time>2026-04-28T11:57:28.034Z</time></trkpt><trkpt lat="39.1202964" lon="22.3115376"><ele>513.0</ele><time>2026-04-28T11:57:29.033Z</time></trkpt><trkpt lat="39.120134" lon="22.3115348"><ele>513.0</ele><time>2026-04-28T11:57:30.034Z</time></trkpt><trkpt lat="39.1199705" lon="22.3115045"><ele>513.0</ele><time>2026-04-28T11:57:31.034Z</time></trkpt><trkpt lat="39.1198143" lon="22.3114597"><ele>513.0</ele><time>2026-04-28T11:57:32.034Z</time></trkpt><trkpt lat="39.1196575" lon="22.311398"><ele>514.3333333333334</ele><time>2026-04-28T11:57:33.033Z</time></trkpt><trkpt lat="39.119506" lon="22.3113312"><ele>515.6666666666667</ele><time>2026-04-28T11:57:34.032Z</time></trkpt><trkpt lat="39.1193532" lon="22.3112647"><ele>517.0</ele><time>2026-04-28T11:57:35.032Z</time></trkpt><trkpt lat="39.119202" lon="22.3112128"><ele>516.6666666666667</ele><time>2026-04-28T11:57:36.033Z</time></trkpt><trkpt lat="39.1190485" lon="22.3111478"><ele>516.3333333333334</ele><time>2026-04-28T11:57:37.033Z</time></trkpt><trkpt lat="39.1188915" lon="22.3110783"><ele>516.0</ele><time>2026-04-28T11:57:38.033Z</time></trkpt><trkpt lat="39.1187314" lon="22.3110067"><ele>516.0</ele><time>2026-04-28T11:57:39.032Z</time></trkpt><trkpt lat="39.1185683" lon="22.310935"><ele>516.0</ele><time>2026-04-28T11:57:40.032Z</time></trkpt><trkpt lat="39.1184051" lon="22.3108644"><ele>516.0</ele><time>2026-04-28T11:57:41.032Z</time></trkpt><trkpt lat="39.1182397" lon="22.3107984"><ele>516.6666666666666</ele><time>2026-04-28T11:57:42.032Z</time></trkpt><trkpt lat="39.1180746" lon="22.3107388"><ele>517.3333333333333</ele><time>2026-04-28T11:57:43.033Z</time></trkpt><trkpt lat="39.1179086" lon="22.3106791"><ele>518.0</ele><time>2026-04-28T11:57:44.033Z</time></trkpt><trkpt lat="39.1177468" lon="22.31062"><ele>518.0</ele><time>2026-04-28T11:57:45.033Z</time></trkpt><trkpt lat="39.1175632" lon="22.3105954"><ele>518.0</ele><time>2026-04-28T11:57:46.032Z</time></trkpt><trkpt lat="39.1173733" lon="22.3105788"><ele>518.0</ele><time>2026-04-28T11:57:47.033Z</time></trkpt><trkpt lat="39.1171819" lon="22.3105637"><ele>519.6666666666666</ele><time>2026-04-28T11:57:48.034Z</time></trkpt><trkpt lat="39.1169933" lon="22.3105485"><ele>521.3333333333334</ele><time>2026-04-28T11:57:49.032Z</time></trkpt><trkpt lat="39.116799" lon="22.310529"><ele>523.0</ele><time>2026-04-28T11:57:50.032Z</time></trkpt><trkpt lat="39.1165968" lon="22.3105108"><ele>523.3333333333334</ele><time>2026-04-28T11:57:51.033Z</time></trkpt><trkpt lat="39.1163864" lon="22.3104936"><ele>523.6666666666666</ele><time>2026-04-28T11:57:52.033Z</time></trkpt><trkpt lat="39.1161743" lon="22.3104796"><ele>524.0</ele><time>2026-04-28T11:57:53.033Z</time></trkpt><trkpt lat="39.1159578" lon="22.3104658"><ele>524.0</ele><time>2026-04-28T11:57:54.033Z</time></trkpt><trkpt lat="39.1157395" lon="22.3104482"><ele>524.0</ele><time>2026-04-28T11:57:55.033Z</time></trkpt><trkpt lat="39.1155188" lon="22.3104282"><ele>524.0</ele><time>2026-04-28T11:57:56.034Z</time></trkpt><trkpt lat="39.115298" lon="22.3104066"><ele>525.0</ele><time>2026-04-28T11:57:57.034Z</time></trkpt><trkpt lat="39.1150767" lon="22.3103809"><ele>526.0</ele><time>2026-04-28T11:57:58.033Z</time></trkpt><trkpt lat="39.1148565" lon="22.3103465"><ele>527.0</ele><time>2026-04-28T11:57:59.034Z</time></trkpt><trkpt lat="39.1146412" lon="22.3103028"><ele>527.6666666666666</ele><time>2026-04-28T11:58:00.034Z</time></trkpt><trkpt lat="39.1144434" lon="22.3102486"><ele>528.3333333333334</ele><time>2026-04-28T11:58:01.033Z</time></trkpt><trkpt lat="39.114244" lon="22.3101763"><ele>529.0</ele><time>2026-04-28T11:58:02.033Z</time></trkpt><trkpt lat="39.1140702" lon="22.3100916"><ele>529.0</ele><time>2026-04-28T11:58:03.033Z</time></trkpt><trkpt lat="39.1139017" lon="22.3099701"><ele>529.0</ele><time>2026-04-28T11:58:04.033Z</time></trkpt><trkpt lat="39.1137243" lon="22.3098244"><ele>529.0</ele><time>2026-04-28T11:58:05.032Z</time></trkpt><trkpt lat="39.1135457" lon="22.3096487"><ele>529.0</ele><time>2026-04-28T11:58:06.033Z</time></trkpt><trkpt lat="39.1133688" lon="22.3094584"><ele>529.0</ele><time>2026-04-28T11:58:07.033Z</time></trkpt><trkpt lat="39.1131953" lon="22.3092644"><ele>528.0</ele><time>2026-04-28T11:58:08.034Z</time></trkpt><trkpt lat="39.1130147" lon="22.3090771"><ele>527.0</ele><time>2026-04-28T11:58:09.034Z</time></trkpt><trkpt lat="39.1128313" lon="22.3088931"><ele>527.0</ele><time>2026-04-28T11:58:10.033Z</time></trkpt><trkpt lat="39.1126472" lon="22.3087156"><ele>527.0</ele><time>2026-04-28T11:58:11.034Z</time></trkpt><trkpt lat="39.1124611" lon="22.3085516"><ele>526.0</ele><time>2026-04-28T11:58:12.033Z</time></trkpt><trkpt lat="39.1122655" lon="22.3083951"><ele>525.0</ele><time>2026-04-28T11:58:13.032Z</time></trkpt><trkpt lat="39.1120544" lon="22.3082594"><ele>525.0</ele><time>2026-04-28T11:58:14.034Z</time></trkpt><trkpt lat="39.1118298" lon="22.3081417"><ele>525.0</ele><time>2026-04-28T11:58:15.032Z</time></trkpt><trkpt lat="39.1115944" lon="22.3080486"><ele>527.0</ele><time>2026-04-28T11:58:16.034Z</time></trkpt><trkpt lat="39.1113487" lon="22.3079691"><ele>529.0</ele><time>2026-04-28T11:58:17.034Z</time></trkpt><trkpt lat="39.1110989" lon="22.3079008"><ele>529.0</ele><time>2026-04-28T11:58:18.034Z</time></trkpt><trkpt lat="39.110849" lon="22.30784"><ele>529.0</ele><time>2026-04-28T11:58:19.033Z</time></trkpt><trkpt lat="39.1105939" lon="22.3077855"><ele>528.5</ele><time>2026-04-28T11:58:20.032Z</time></trkpt><trkpt lat="39.110336" lon="22.3077346"><ele>528.0</ele><time>2026-04-28T11:58:21.033Z</time></trkpt><trkpt lat="39.1100774" lon="22.3076843"><ele>527.5</ele><time>2026-04-28T11:58:22.034Z</time></trkpt><trkpt lat="39.1098186" lon="22.3076326"><ele>527.0</ele><time>2026-04-28T11:58:23.033Z</time></trkpt><trkpt lat="39.1095601" lon="22.3075797"><ele>527.0</ele><time>2026-04-28T11:58:24.033Z</time></trkpt><trkpt lat="39.1092994" lon="22.307527"><ele>527.0</ele><time>2026-04-28T11:58:25.032Z</time></trkpt><trkpt lat="39.1090347" lon="22.3074737"><ele>527.5</ele><time>2026-04-28T11:58:26.034Z</time></trkpt><trkpt lat="39.1087668" lon="22.3074183"><ele>528.0</ele><time>2026-04-28T11:58:27.033Z</time></trkpt><trkpt lat="39.1084971" lon="22.3073619"><ele>530.5</ele><time>2026-04-28T11:58:28.034Z</time></trkpt><trkpt lat="39.1082247" lon="22.3073049"><ele>533.0</ele><time>2026-04-28T11:58:29.034Z</time></trkpt><trkpt lat="39.1079495" lon="22.3072488"><ele>533.5</ele><time>2026-04-28T11:58:30.032Z</time></trkpt><trkpt lat="39.1076703" lon="22.3071887"><ele>534.0</ele><time>2026-04-28T11:58:31.032Z</time></trkpt><trkpt lat="39.107391" lon="22.3071358"><ele>537.5</ele><time>2026-04-28T11:58:32.032Z</time></trkpt><trkpt lat="39.1071109" lon="22.3070783"><ele>541.0</ele><time>2026-04-28T11:58:33.033Z</time></trkpt><trkpt lat="39.1068264" lon="22.307015"><ele>546.5</ele><time>2026-04-28T11:58:34.033Z</time></trkpt><trkpt lat="39.1065469" lon="22.3069593"><ele>552.0</ele><time>2026-04-28T11:58:35.033Z</time></trkpt><trkpt lat="39.1062634" lon="22.3068995"><ele>552.0</ele><time>2026-04-28T11:58:36.032Z</time></trkpt><trkpt lat="39.1059824" lon="22.3068418"><ele>552.0</ele><time>2026-04-28T11:58:37.034Z</time></trkpt><trkpt lat="39.1056995" lon="22.3067824"><ele>555.5</ele><time>2026-04-28T11:58:38.033Z</time></trkpt><trkpt lat="39.1054211" lon="22.3067257"><ele>559.0</ele><time>2026-04-28T11:58:39.033Z</time></trkpt><trkpt lat="39.1051468" lon="22.3066684"><ele>563.5</ele><time>2026-04-28T11:58:40.032Z</time></trkpt><trkpt lat="39.1048738" lon="22.3066116"><ele>568.0</ele><time>2026-04-28T11:58:41.033Z</time></trkpt><trkpt lat="39.1046018" lon="22.3065514"><ele>568.0</ele><time>2026-04-28T11:58:42.034Z</time></trkpt><trkpt lat="39.1043324" lon="22.3064901"><ele>568.0</ele><time>2026-04-28T11:58:43.034Z</time></trkpt><trkpt lat="39.1040646" lon="22.3064287"><ele>566.5</ele><time>2026-04-28T11:58:44.034Z</time></trkpt><trkpt lat="39.1037969" lon="22.3063708"><ele>565.0</ele><time>2026-04-28T11:58:45.034Z</time></trkpt><trkpt lat="39.1035299" lon="22.3063149"><ele>565.0</ele><time>2026-04-28T11:58:46.033Z</time></trkpt><trkpt lat="39.1032634" lon="22.3062556"><ele>565.0</ele><time>2026-04-28T11:58:47.033Z</time></trkpt><trkpt lat="39.1029962" lon="22.3061945"><ele>562.0</ele><time>2026-04-28T11:58:48.034Z</time></trkpt><trkpt lat="39.1027287" lon="22.3061339"><ele>559.0</ele><time>2026-04-28T11:58:49.033Z</time></trkpt><trkpt lat="39.1024625" lon="22.3060725"><ele>558.5</ele><time>2026-04-28T11:58:50.032Z</time></trkpt><trkpt lat="39.1021956" lon="22.306009"><ele>558.0</ele><time>2026-04-28T11:58:51.033Z</time></trkpt><trkpt lat="39.1019281" lon="22.3059492"><ele>558.0</ele><time>2026-04-28T11:58:52.033Z</time></trkpt><trkpt lat="39.1016595" lon="22.3058888"><ele>558.0</ele><time>2026-04-28T11:58:53.034Z</time></trkpt><trkpt lat="39.1013913" lon="22.3058266"><ele>556.5</ele><time>2026-04-28T11:58:54.033Z</time></trkpt><trkpt lat="39.1011194" lon="22.3057641"><ele>555.0</ele><time>2026-04-28T11:58:55.034Z</time></trkpt><trkpt lat="39.100845" lon="22.3057015"><ele>554.0</ele><time>2026-04-28T11:58:56.033Z</time></trkpt><trkpt lat="39.1005709" lon="22.305639"><ele>553.0</ele><time>2026-04-28T11:58:57.032Z</time></trkpt><trkpt lat="39.100295" lon="22.3055722"><ele>551.0</ele><time>2026-04-28T11:58:58.033Z</time></trkpt><trkpt lat="39.1000169" lon="22.3055088"><ele>549.0</ele><time>2026-04-28T11:58:59.032Z</time></trkpt><trkpt lat="39.0997373" lon="22.3054464"><ele>548.0</ele><time>2026-04-28T11:59:00.032Z</time></trkpt><trkpt lat="39.0994561" lon="22.3053818"><ele>547.0</ele><time>2026-04-28T11:59:01.034Z</time></trkpt><trkpt lat="39.099173" lon="22.3053181"><ele>546.0</ele><time>2026-04-28T11:59:02.032Z</time></trkpt><trkpt lat="39.0988914" lon="22.3052552"><ele>545.0</ele><time>2026-04-28T11:59:03.033Z</time></trkpt><trkpt lat="39.0986128" lon="22.3051914"><ele>545.0</ele><time>2026-04-28T11:59:04.033Z</time></trkpt><trkpt lat="39.0983349" lon="22.3051285"><ele>545.0</ele><time>2026-04-28T11:59:05.033Z</time></trkpt><trkpt lat="39.0980605" lon="22.3050638"><ele>543.0</ele><time>2026-04-28T11:59:06.032Z</time></trkpt><trkpt lat="39.0977868" lon="22.3050021"><ele>541.0</ele><time>2026-04-28T11:59:07.032Z</time></trkpt><trkpt lat="39.0975191" lon="22.3049397"><ele>541.0</ele><time>2026-04-28T11:59:08.034Z</time></trkpt><trkpt lat="39.0972537" lon="22.3048774"><ele>541.0</ele><time>2026-04-28T11:59:09.034Z</time></trkpt><trkpt lat="39.0969895" lon="22.3048182"><ele>541.0</ele><time>2026-04-28T11:59:10.033Z</time></trkpt><trkpt lat="39.0967257" lon="22.3047576"><ele>541.0</ele><time>2026-04-28T11:59:11.033Z</time></trkpt><trkpt lat="39.096462" lon="22.3046991"><ele>536.5</ele><time>2026-04-28T11:59:12.034Z</time></trkpt><trkpt lat="39.0961974" lon="22.304642"><ele>532.0</ele><time>2026-04-28T11:59:13.033Z</time></trkpt><trkpt lat="39.0959329" lon="22.3045936"><ele>529.5</ele><time>2026-04-28T11:59:14.034Z</time></trkpt><trkpt lat="39.0956653" lon="22.3045602"><ele>527.0</ele><time>2026-04-28T11:59:15.033Z</time></trkpt><trkpt lat="39.0953951" lon="22.3045393"><ele>527.0</ele><time>2026-04-28T11:59:16.034Z</time></trkpt><trkpt lat="39.0951241" lon="22.3045297"><ele>527.0</ele><time>2026-04-28T11:59:17.034Z</time></trkpt><trkpt lat="39.0948515" lon="22.3045314"><ele>523.0</ele><time>2026-04-28T11:59:18.034Z</time></trkpt><trkpt lat="39.0945797" lon="22.3045435"><ele>519.0</ele><time>2026-04-28T11:59:19.033Z</time></trkpt><trkpt lat="39.0943103" lon="22.3045703"><ele>518.0</ele><time>2026-04-28T11:59:20.034Z</time></trkpt><trkpt lat="39.0940419" lon="22.3046145"><ele>517.0</ele><time>2026-04-28T11:59:21.034Z</time></trkpt><trkpt lat="39.093779" lon="22.3046694"><ele>517.0</ele><time>2026-04-28T11:59:22.032Z</time></trkpt><trkpt lat="39.0935166" lon="22.3047376"><ele>517.0</ele><time>2026-04-28T11:59:23.033Z</time></trkpt><trkpt lat="39.0932579" lon="22.3048144"><ele>517.5</ele><time>2026-04-28T11:59:24.033Z</time></trkpt><trkpt lat="39.0930037" lon="22.3049005"><ele>518.0</ele><time>2026-04-28T11:59:25.033Z</time></trkpt><trkpt lat="39.0927537" lon="22.3049976"><ele>518.0</ele><time>2026-04-28T11:59:26.033Z</time></trkpt><trkpt lat="39.0925037" lon="22.3050954"><ele>518.0</ele><time>2026-04-28T11:59:27.034Z</time></trkpt><trkpt lat="39.0922566" lon="22.3051982"><ele>516.5</ele><time>2026-04-28T11:59:28.032Z</time></trkpt><trkpt lat="39.0920103" lon="22.3053022"><ele>515.0</ele><time>2026-04-28T11:59:29.034Z</time></trkpt><trkpt lat="39.0917649" lon="22.3054071"><ele>514.5</ele><time>2026-04-28T11:59:30.033Z</time></trkpt><trkpt lat="39.0915184" lon="22.3055106"><ele>514.0</ele><time>2026-04-28T11:59:31.033Z</time></trkpt><trkpt lat="39.0912749" lon="22.3056107"><ele>514.0</ele><time>2026-04-28T11:59:32.034Z</time></trkpt><trkpt lat="39.0910343" lon="22.3057109"><ele>514.0</ele><time>2026-04-28T11:59:33.033Z</time></trkpt><trkpt lat="39.0907943" lon="22.3058133"><ele>511.0</ele><time>2026-04-28T11:59:34.033Z</time></trkpt><trkpt lat="39.0905537" lon="22.3059153"><ele>508.0</ele><time>2026-04-28T11:59:35.034Z</time></trkpt><trkpt lat="39.0903157" lon="22.3060182"><ele>508.0</ele><time>2026-04-28T11:59:36.033Z</time></trkpt><trkpt lat="39.0900793" lon="22.3061203"><ele>508.0</ele><time>2026-04-28T11:59:37.033Z</time></trkpt><trkpt lat="39.0898414" lon="22.3062232"><ele>508.0</ele><time>2026-04-28T11:59:38.034Z</time></trkpt><trkpt lat="39.0896044" lon="22.3063246"><ele>508.0</ele><time>2026-04-28T11:59:39.033Z</time></trkpt><trkpt lat="39.0893669" lon="22.3064216"><ele>508.0</ele><time>2026-04-28T11:59:40.032Z</time></trkpt><trkpt lat="39.089128" lon="22.3065185"><ele>508.0</ele><time>2026-04-28T11:59:41.033Z</time></trkpt><trkpt lat="39.0888883" lon="22.3066173"><ele>505.5</ele><time>2026-04-28T11:59:42.032Z</time></trkpt><trkpt lat="39.0886456" lon="22.3067199"><ele>503.0</ele><time>2026-04-28T11:59:43.034Z</time></trkpt><trkpt lat="39.0884014" lon="22.3068227"><ele>501.0</ele><time>2026-04-28T11:59:44.033Z</time></trkpt><trkpt lat="39.088155" lon="22.3069288"><ele>499.0</ele><time>2026-04-28T11:59:45.033Z</time></trkpt><trkpt lat="39.0879083" lon="22.3070338"><ele>499.0</ele><time>2026-04-28T11:59:46.033Z</time></trkpt><trkpt lat="39.0876602" lon="22.3071371"><ele>499.0</ele><time>2026-04-28T11:59:47.032Z</time></trkpt><trkpt lat="39.0874104" lon="22.3072402"><ele>498.5</ele><time>2026-04-28T11:59:48.032Z</time></trkpt><trkpt lat="39.0871586" lon="22.3073443"><ele>498.0</ele><time>2026-04-28T11:59:49.033Z</time></trkpt><trkpt lat="39.0869076" lon="22.3074521"><ele>498.0</ele><time>2026-04-28T11:59:50.032Z</time></trkpt><trkpt lat="39.0866551" lon="22.3075588"><ele>498.0</ele><time>2026-04-28T11:59:51.033Z</time></trkpt><trkpt lat="39.0864022" lon="22.3076656"><ele>496.0</ele><time>2026-04-28T11:59:52.032Z</time></trkpt><trkpt lat="39.0861509" lon="22.3077713"><ele>494.0</ele><time>2026-04-28T11:59:53.032Z</time></trkpt><trkpt lat="39.0859001" lon="22.3078759"><ele>493.0</ele><time>2026-04-28T11:59:54.033Z</time></trkpt><trkpt lat="39.0856506" lon="22.307986"><ele>492.0</ele><time>2026-04-28T11:59:55.034Z</time></trkpt><trkpt lat="39.0854038" lon="22.3081047"><ele>492.0</ele><time>2026-04-28T11:59:56.033Z</time></trkpt><trkpt lat="39.0851584" lon="22.3082351"><ele>492.0</ele><time>2026-04-28T11:59:57.033Z</time></trkpt><trkpt lat="39.0849134" lon="22.308371"><ele>489.5</ele><time>2026-04-28T11:59:58.033Z</time></trkpt><trkpt lat="39.0846691" lon="22.3085149"><ele>487.0</ele><time>2026-04-28T11:59:59.034Z</time></trkpt><trkpt lat="39.0844278" lon="22.3086697"><ele>487.0</ele><time>2026-04-28T12:00:00.033Z</time></trkpt><trkpt lat="39.0841902" lon="22.3088412"><ele>487.0</ele><time>2026-04-28T12:00:01.033Z</time></trkpt><trkpt lat="39.0839626" lon="22.3090192"><ele>484.5</ele><time>2026-04-28T12:00:02.033Z</time></trkpt><trkpt lat="39.0837317" lon="22.3092098"><ele>482.0</ele><time>2026-04-28T12:00:03.034Z</time></trkpt><trkpt lat="39.0835035" lon="22.3094083"><ele>482.0</ele><time>2026-04-28T12:00:04.033Z</time></trkpt><trkpt lat="39.0832788" lon="22.3096163"><ele>482.0</ele><time>2026-04-28T12:00:05.033Z</time></trkpt><trkpt lat="39.0830587" lon="22.3098306"><ele>480.0</ele><time>2026-04-28T12:00:06.033Z</time></trkpt><trkpt lat="39.0828404" lon="22.3100402"><ele>478.0</ele><time>2026-04-28T12:00:07.033Z</time></trkpt><trkpt lat="39.0826205" lon="22.3102524"><ele>477.0</ele><time>2026-04-28T12:00:08.032Z</time></trkpt><trkpt lat="39.0823994" lon="22.3104604"><ele>476.0</ele><time>2026-04-28T12:00:09.033Z</time></trkpt><trkpt lat="39.0821805" lon="22.3106666"><ele>476.0</ele><time>2026-04-28T12:00:10.033Z</time></trkpt><trkpt lat="39.081963" lon="22.31087"><ele>476.0</ele><time>2026-04-28T12:00:11.032Z</time></trkpt><trkpt lat="39.0817468" lon="22.3110729"><ele>475.0</ele><time>2026-04-28T12:00:12.032Z</time></trkpt><trkpt lat="39.0815333" lon="22.3112741"><ele>474.0</ele><time>2026-04-28T12:00:13.033Z</time></trkpt><trkpt lat="39.0813235" lon="22.3114735"><ele>473.5</ele><time>2026-04-28T12:00:14.032Z</time></trkpt><trkpt lat="39.0811165" lon="22.3116708"><ele>473.0</ele><time>2026-04-28T12:00:15.034Z</time></trkpt><trkpt lat="39.0809114" lon="22.3118659"><ele>472.5</ele><time>2026-04-28T12:00:16.033Z</time></trkpt><trkpt lat="39.0807039" lon="22.3120605"><ele>472.0</ele><time>2026-04-28T12:00:17.033Z</time></trkpt><trkpt lat="39.0804987" lon="22.3122533"><ele>472.0</ele><time>2026-04-28T12:00:18.033Z</time></trkpt><trkpt lat="39.0802962" lon="22.3124456"><ele>472.0</ele><time>2026-04-28T12:00:19.032Z</time></trkpt><trkpt lat="39.080094" lon="22.3126357"><ele>470.5</ele><time>2026-04-28T12:00:20.034Z</time></trkpt><trkpt lat="39.0798932" lon="22.312824"><ele>469.0</ele><time>2026-04-28T12:00:21.034Z</time></trkpt><trkpt lat="39.0796974" lon="22.3130109"><ele>470.0</ele><time>2026-04-28T12:00:22.033Z</time></trkpt><trkpt lat="39.0795011" lon="22.3131974"><ele>471.0</ele><time>2026-04-28T12:00:23.033Z</time></trkpt><trkpt lat="39.0793037" lon="22.3133879"><ele>471.0</ele><time>2026-04-28T12:00:24.034Z</time></trkpt><trkpt lat="39.079107" lon="22.3135812"><ele>471.0</ele><time>2026-04-28T12:00:25.033Z</time></trkpt><trkpt lat="39.0789113" lon="22.3137734"><ele>472.0</ele><time>2026-04-28T12:00:26.034Z</time></trkpt><trkpt lat="39.0787172" lon="22.3139662"><ele>473.0</ele><time>2026-04-28T12:00:27.034Z</time></trkpt><trkpt lat="39.078524" lon="22.3141595"><ele>473.0</ele><time>2026-04-28T12:00:28.033Z</time></trkpt><trkpt lat="39.0783323" lon="22.3143519"><ele>473.0</ele><time>2026-04-28T12:00:29.032Z</time></trkpt><trkpt lat="39.0781475" lon="22.3145349"><ele>473.0</ele><time>2026-04-28T12:00:30.034Z</time></trkpt><trkpt lat="39.0779728" lon="22.3147082"><ele>473.0</ele><time>2026-04-28T12:00:31.033Z</time></trkpt><trkpt lat="39.077803" lon="22.3148723"><ele>473.0</ele><time>2026-04-28T12:00:32.033Z</time></trkpt><trkpt lat="39.0776389" lon="22.3150253"><ele>472.66666666666663</ele><time>2026-04-28T12:00:33.033Z</time></trkpt><trkpt lat="39.0774825" lon="22.3151747"><ele>472.33333333333337</ele><time>2026-04-28T12:00:34.033Z</time></trkpt><trkpt lat="39.0773329" lon="22.3153189"><ele>472.0</ele><time>2026-04-28T12:00:35.033Z</time></trkpt><trkpt lat="39.077189" lon="22.3154532"><ele>472.33333333333337</ele><time>2026-04-28T12:00:36.033Z</time></trkpt><trkpt lat="39.0770532" lon="22.3155818"><ele>472.66666666666663</ele><time>2026-04-28T12:00:37.033Z</time></trkpt><trkpt lat="39.0769207" lon="22.3157029"><ele>473.0</ele><time>2026-04-28T12:00:38.033Z</time></trkpt><trkpt lat="39.07679" lon="22.3158251"><ele>473.0</ele><time>2026-04-28T12:00:39.034Z</time></trkpt><trkpt lat="39.0766554" lon="22.3159528"><ele>473.0</ele><time>2026-04-28T12:00:40.033Z</time></trkpt><trkpt lat="39.0765184" lon="22.3160837"><ele>473.0</ele><time>2026-04-28T12:00:41.032Z</time></trkpt><trkpt lat="39.0763787" lon="22.3162191"><ele>472.3333333333333</ele><time>2026-04-28T12:00:42.033Z</time></trkpt><trkpt lat="39.0762352" lon="22.316359"><ele>471.66666666666663</ele><time>2026-04-28T12:00:43.034Z</time></trkpt><trkpt lat="39.0760864" lon="22.3165012"><ele>471.0</ele><time>2026-04-28T12:00:44.034Z</time></trkpt><trkpt lat="39.0759366" lon="22.316645"><ele>471.0</ele><time>2026-04-28T12:00:45.032Z</time></trkpt><trkpt lat="39.0757904" lon="22.3167876"><ele>471.0</ele><time>2026-04-28T12:00:46.033Z</time></trkpt><trkpt lat="39.0756435" lon="22.3169265"><ele>471.0</ele><time>2026-04-28T12:00:47.033Z</time></trkpt><trkpt lat="39.0754968" lon="22.3170664"><ele>470.66666666666663</ele><time>2026-04-28T12:00:48.032Z</time></trkpt><trkpt lat="39.0753493" lon="22.3172017"><ele>470.3333333333333</ele><time>2026-04-28T12:00:49.033Z</time></trkpt><trkpt lat="39.0752056" lon="22.3173374"><ele>470.0</ele><time>2026-04-28T12:00:50.033Z</time></trkpt><trkpt lat="39.0750622" lon="22.3174715"><ele>469.66666666666663</ele><time>2026-04-28T12:00:51.033Z</time></trkpt><trkpt lat="39.0749214" lon="22.3176088"><ele>469.33333333333337</ele><time>2026-04-28T12:00:52.033Z</time></trkpt><trkpt lat="39.074778" lon="22.3177517"><ele>469.0</ele><time>2026-04-28T12:00:53.034Z</time></trkpt><trkpt lat="39.0746317" lon="22.3178967"><ele>469.0</ele><time>2026-04-28T12:00:54.034Z</time></trkpt><trkpt lat="39.074474" lon="22.3180479"><ele>469.0</ele><time>2026-04-28T12:00:55.032Z</time></trkpt><trkpt lat="39.0743111" lon="22.3182046"><ele>469.0</ele><time>2026-04-28T12:00:56.034Z</time></trkpt><trkpt lat="39.0741398" lon="22.3183702"><ele>469.5</ele><time>2026-04-28T12:00:57.033Z</time></trkpt><trkpt lat="39.0739588" lon="22.3185451"><ele>470.0</ele><time>2026-04-28T12:00:58.033Z</time></trkpt><trkpt lat="39.0737706" lon="22.3187263"><ele>470.0</ele><time>2026-04-28T12:00:59.032Z</time></trkpt><trkpt lat="39.0735841" lon="22.3189056"><ele>470.0</ele><time>2026-04-28T12:01:00.034Z</time></trkpt><trkpt lat="39.0733907" lon="22.31909"><ele>469.5</ele><time>2026-04-28T12:01:01.034Z</time></trkpt><trkpt lat="39.0731914" lon="22.3192811"><ele>469.0</ele><time>2026-04-28T12:01:02.034Z</time></trkpt><trkpt lat="39.0729879" lon="22.3194773"><ele>469.0</ele><time>2026-04-28T12:01:03.032Z</time></trkpt><trkpt lat="39.0727806" lon="22.3196773"><ele>469.0</ele><time>2026-04-28T12:01:04.033Z</time></trkpt><trkpt lat="39.0725685" lon="22.3198807"><ele>468.0</ele><time>2026-04-28T12:01:05.033Z</time></trkpt><trkpt lat="39.0723558" lon="22.3200802"><ele>467.0</ele><time>2026-04-28T12:01:06.034Z</time></trkpt><trkpt lat="39.0721434" lon="22.3202888"><ele>467.0</ele><time>2026-04-28T12:01:07.034Z</time></trkpt><trkpt lat="39.0719304" lon="22.3204948"><ele>467.0</ele><time>2026-04-28T12:01:08.034Z</time></trkpt><trkpt lat="39.071715" lon="22.3207023"><ele>466.5</ele><time>2026-04-28T12:01:09.034Z</time></trkpt><trkpt lat="39.0715006" lon="22.3209083"><ele>466.0</ele><time>2026-04-28T12:01:10.032Z</time></trkpt><trkpt lat="39.0712849" lon="22.3211088"><ele>466.0</ele><time>2026-04-28T12:01:11.033Z</time></trkpt><trkpt lat="39.0710673" lon="22.3213088"><ele>466.0</ele><time>2026-04-28T12:01:12.033Z</time></trkpt><trkpt lat="39.0708513" lon="22.3215151"><ele>467.0</ele><time>2026-04-28T12:01:13.033Z</time></trkpt><trkpt lat="39.0706359" lon="22.3217176"><ele>468.0</ele><time>2026-04-28T12:01:14.033Z</time></trkpt><trkpt lat="39.0704196" lon="22.3219197"><ele>468.0</ele><time>2026-04-28T12:01:15.034Z</time></trkpt><trkpt lat="39.0702044" lon="22.3221276"><ele>468.0</ele><time>2026-04-28T12:01:16.034Z</time></trkpt><trkpt lat="39.0699871" lon="22.3223307"><ele>469.0</ele><time>2026-04-28T12:01:17.033Z</time></trkpt><trkpt lat="39.0697704" lon="22.322531"><ele>470.0</ele><time>2026-04-28T12:01:18.034Z</time></trkpt><trkpt lat="39.0695543" lon="22.3227308"><ele>470.0</ele><time>2026-04-28T12:01:19.033Z</time></trkpt><trkpt lat="39.0693413" lon="22.3229337"><ele>470.0</ele><time>2026-04-28T12:01:20.032Z</time></trkpt><trkpt lat="39.0691293" lon="22.323132"><ele>470.0</ele><time>2026-04-28T12:01:21.032Z</time></trkpt><trkpt lat="39.0689181" lon="22.3233291"><ele>470.0</ele><time>2026-04-28T12:01:22.033Z</time></trkpt><trkpt lat="39.0687101" lon="22.323528"><ele>470.0</ele><time>2026-04-28T12:01:23.032Z</time></trkpt><trkpt lat="39.0685021" lon="22.323725"><ele>470.0</ele><time>2026-04-28T12:01:24.033Z</time></trkpt><trkpt lat="39.0682959" lon="22.3239222"><ele>470.0</ele><time>2026-04-28T12:01:25.034Z</time></trkpt><trkpt lat="39.0680891" lon="22.3241184"><ele>470.0</ele><time>2026-04-28T12:01:26.034Z</time></trkpt><trkpt lat="39.0678796" lon="22.3243124"><ele>470.0</ele><time>2026-04-28T12:01:27.034Z</time></trkpt><trkpt lat="39.0676705" lon="22.3245103"><ele>470.0</ele><time>2026-04-28T12:01:28.034Z</time></trkpt><trkpt lat="39.0674621" lon="22.3247105"><ele>469.5</ele><time>2026-04-28T12:01:29.033Z</time></trkpt><trkpt lat="39.067252" lon="22.3249091"><ele>469.0</ele><time>2026-04-28T12:01:30.034Z</time></trkpt><trkpt lat="39.0670436" lon="22.3251068"><ele>469.0</ele><time>2026-04-28T12:01:31.033Z</time></trkpt><trkpt lat="39.0668369" lon="22.3253053"><ele>469.0</ele><time>2026-04-28T12:01:32.032Z</time></trkpt><trkpt lat="39.0666312" lon="22.3254982"><ele>469.5</ele><time>2026-04-28T12:01:33.034Z</time></trkpt><trkpt lat="39.0664232" lon="22.325693"><ele>470.0</ele><time>2026-04-28T12:01:34.033Z</time></trkpt><trkpt lat="39.0662153" lon="22.3258886"><ele>470.0</ele><time>2026-04-28T12:01:35.033Z</time></trkpt><trkpt lat="39.0660057" lon="22.3260842"><ele>470.0</ele><time>2026-04-28T12:01:36.033Z</time></trkpt><trkpt lat="39.0657985" lon="22.3262808"><ele>470.0</ele><time>2026-04-28T12:01:37.033Z</time></trkpt><trkpt lat="39.0655923" lon="22.3264765"><ele>470.0</ele><time>2026-04-28T12:01:38.034Z</time></trkpt><trkpt lat="39.0653873" lon="22.3266715"><ele>470.0</ele><time>2026-04-28T12:01:39.033Z</time></trkpt><trkpt lat="39.0651818" lon="22.3268643"><ele>470.0</ele><time>2026-04-28T12:01:40.033Z</time></trkpt><trkpt lat="39.0649792" lon="22.3270565"><ele>470.5</ele><time>2026-04-28T12:01:41.034Z</time></trkpt><trkpt lat="39.0647794" lon="22.3272437"><ele>471.0</ele><time>2026-04-28T12:01:42.034Z</time></trkpt><trkpt lat="39.0645801" lon="22.3274366"><ele>471.0</ele><time>2026-04-28T12:01:43.034Z</time></trkpt><trkpt lat="39.0643834" lon="22.327627"><ele>471.0</ele><time>2026-04-28T12:01:44.033Z</time></trkpt><trkpt lat="39.0641856" lon="22.3278191"><ele>471.0</ele><time>2026-04-28T12:01:45.033Z</time></trkpt><trkpt lat="39.0639891" lon="22.3280068"><ele>471.0</ele><time>2026-04-28T12:01:46.033Z</time></trkpt><trkpt lat="39.0637949" lon="22.3281944"><ele>471.0</ele><time>2026-04-28T12:01:47.034Z</time></trkpt><trkpt lat="39.063603" lon="22.3283771"><ele>471.0</ele><time>2026-04-28T12:01:48.033Z</time></trkpt><trkpt lat="39.0634144" lon="22.3285564"><ele>470.5</ele><time>2026-04-28T12:01:49.034Z</time></trkpt><trkpt lat="39.0632251" lon="22.3287329"><ele>470.0</ele><time>2026-04-28T12:01:50.033Z</time></trkpt><trkpt lat="39.0630374" lon="22.3289078"><ele>472.0</ele><time>2026-04-28T12:01:51.033Z</time></trkpt><trkpt lat="39.0628492" lon="22.3290846"><ele>474.0</ele><time>2026-04-28T12:01:52.033Z</time></trkpt><trkpt lat="39.0626615" lon="22.3292623"><ele>474.0</ele><time>2026-04-28T12:01:53.034Z</time></trkpt><trkpt lat="39.0624713" lon="22.3294422"><ele>474.0</ele><time>2026-04-28T12:01:54.034Z</time></trkpt><trkpt lat="39.0622759" lon="22.3296247"><ele>475.0</ele><time>2026-04-28T12:01:55.033Z</time></trkpt><trkpt lat="39.0620807" lon="22.3298093"><ele>476.0</ele><time>2026-04-28T12:01:56.033Z</time></trkpt><trkpt lat="39.061883" lon="22.3299932"><ele>476.0</ele><time>2026-04-28T12:01:57.033Z</time></trkpt><trkpt lat="39.0616839" lon="22.3301761"><ele>476.0</ele><time>2026-04-28T12:01:58.034Z</time></trkpt><trkpt lat="39.0614844" lon="22.3303613"><ele>476.5</ele><time>2026-04-28T12:01:59.032Z</time></trkpt><trkpt lat="39.0612855" lon="22.3305505"><ele>477.0</ele><time>2026-04-28T12:02:00.033Z</time></trkpt><trkpt lat="39.061084" lon="22.3307432"><ele>477.5</ele><time>2026-04-28T12:02:01.034Z</time></trkpt><trkpt lat="39.0608815" lon="22.3309386"><ele>478.0</ele><time>2026-04-28T12:02:02.033Z</time></trkpt><trkpt lat="39.0606807" lon="22.3311362"><ele>475.5</ele><time>2026-04-28T12:02:03.032Z</time></trkpt><trkpt lat="39.0604794" lon="22.3313327"><ele>473.0</ele><time>2026-04-28T12:02:04.032Z</time></trkpt><trkpt lat="39.0602758" lon="22.3315265"><ele>473.0</ele><time>2026-04-28T12:02:05.033Z</time></trkpt><trkpt lat="39.0600729" lon="22.3317192"><ele>473.0</ele><time>2026-04-28T12:02:06.033Z</time></trkpt><trkpt lat="39.0598691" lon="22.3319122"><ele>473.0</ele><time>2026-04-28T12:02:07.033Z</time></trkpt><trkpt lat="39.059666" lon="22.3321032"><ele>473.0</ele><time>2026-04-28T12:02:08.033Z</time></trkpt><trkpt lat="39.0594623" lon="22.3322954"><ele>474.0</ele><time>2026-04-28T12:02:09.034Z</time></trkpt><trkpt lat="39.0592616" lon="22.3324895"><ele>475.0</ele><time>2026-04-28T12:02:10.032Z</time></trkpt><trkpt lat="39.0590657" lon="22.3326898"><ele>475.0</ele><time>2026-04-28T12:02:11.033Z</time></trkpt><trkpt lat="39.0588754" lon="22.3328987"><ele>475.0</ele><time>2026-04-28T12:02:12.032Z</time></trkpt><trkpt lat="39.0586897" lon="22.3331147"><ele>476.0</ele><time>2026-04-28T12:02:13.034Z</time></trkpt><trkpt lat="39.05851" lon="22.3333364"><ele>477.0</ele><time>2026-04-28T12:02:14.034Z</time></trkpt><trkpt lat="39.0583351" lon="22.333561"><ele>477.5</ele><time>2026-04-28T12:02:15.033Z</time></trkpt><trkpt lat="39.0581672" lon="22.3337932"><ele>478.0</ele><time>2026-04-28T12:02:16.033Z</time></trkpt><trkpt lat="39.0579983" lon="22.3340258"><ele>476.0</ele><time>2026-04-28T12:02:17.033Z</time></trkpt><trkpt lat="39.0578298" lon="22.334254"><ele>474.0</ele><time>2026-04-28T12:02:18.034Z</time></trkpt><trkpt lat="39.0576632" lon="22.3344839"><ele>474.0</ele><time>2026-04-28T12:02:19.034Z</time></trkpt><trkpt lat="39.0574938" lon="22.3347091"><ele>474.0</ele><time>2026-04-28T12:02:20.033Z</time></trkpt><trkpt lat="39.0573243" lon="22.334934"><ele>476.0</ele><time>2026-04-28T12:02:21.034Z</time></trkpt><trkpt lat="39.0571575" lon="22.3351653"><ele>478.0</ele><time>2026-04-28T12:02:22.033Z</time></trkpt><trkpt lat="39.0569913" lon="22.335394"><ele>477.5</ele><time>2026-04-28T12:02:23.032Z</time></trkpt><trkpt lat="39.0568255" lon="22.3356256"><ele>477.0</ele><time>2026-04-28T12:02:24.033Z</time></trkpt><trkpt lat="39.0566618" lon="22.3358519"><ele>477.33333333333337</ele><time>2026-04-28T12:02:25.032Z</time></trkpt><trkpt lat="39.056505" lon="22.3360646"><ele>477.6666666666667</ele><time>2026-04-28T12:02:26.032Z</time></trkpt><trkpt lat="39.0563546" lon="22.3362675"><ele>478.0</ele><time>2026-04-28T12:02:27.032Z</time></trkpt><trkpt lat="39.0562077" lon="22.3364612"><ele>478.33333333333337</ele><time>2026-04-28T12:02:28.032Z</time></trkpt><trkpt lat="39.0560532" lon="22.3366478"><ele>478.66666666666663</ele><time>2026-04-28T12:02:29.034Z</time></trkpt><trkpt lat="39.055897" lon="22.336825"><ele>479.0</ele><time>2026-04-28T12:02:30.033Z</time></trkpt><trkpt lat="39.0557516" lon="22.3369953"><ele>479.3333333333333</ele><time>2026-04-28T12:02:31.034Z</time></trkpt><trkpt lat="39.0556251" lon="22.3371612"><ele>479.66666666666663</ele><time>2026-04-28T12:02:32.033Z</time></trkpt><trkpt lat="39.055526" lon="22.3373151"><ele>480.0</ele><time>2026-04-28T12:02:33.032Z</time></trkpt><trkpt lat="39.055452" lon="22.3374371"><ele>480.1666666666667</ele><time>2026-04-28T12:02:34.034Z</time></trkpt><trkpt lat="39.055395" lon="22.3375346"><ele>480.33333333333337</ele><time>2026-04-28T12:02:35.032Z</time></trkpt><trkpt lat="39.0553434" lon="22.3376029"><ele>480.5</ele><time>2026-04-28T12:02:36.032Z</time></trkpt><trkpt lat="39.0552899" lon="22.3376504"><ele>480.6666666666667</ele><time>2026-04-28T12:02:37.033Z</time></trkpt><trkpt lat="39.0552249" lon="22.3376774"><ele>480.83333333333337</ele><time>2026-04-28T12:02:38.033Z</time></trkpt><trkpt lat="39.0551507" lon="22.3376999"><ele>481.0</ele><time>2026-04-28T12:02:39.033Z</time></trkpt><trkpt lat="39.0550713" lon="22.3377526"><ele>481.0</ele><time>2026-04-28T12:02:40.034Z</time></trkpt><trkpt lat="39.0550147" lon="22.3378362"><ele>481.0</ele><time>2026-04-28T12:02:41.032Z</time></trkpt><trkpt lat="39.0549879" lon="22.3379727"><ele>481.0</ele><time>2026-04-28T12:02:42.032Z</time></trkpt><trkpt lat="39.05495" lon="22.338123"><ele>481.0</ele><time>2026-04-28T12:02:43.032Z</time></trkpt><trkpt lat="39.0548908" lon="22.3382738"><ele>481.0</ele><time>2026-04-28T12:02:44.033Z</time></trkpt><trkpt lat="39.0547576" lon="22.3384783"><ele>480.5</ele><time>2026-04-28T12:02:45.033Z</time></trkpt><trkpt lat="39.0546076" lon="22.3386933"><ele>480.0</ele><time>2026-04-28T12:02:46.033Z</time></trkpt><trkpt lat="39.0544348" lon="22.3389335"><ele>481.0</ele><time>2026-04-28T12:02:47.034Z</time></trkpt><trkpt lat="39.0542415" lon="22.339193"><ele>482.0</ele><time>2026-04-28T12:02:48.032Z</time></trkpt><trkpt lat="39.0540292" lon="22.3394814"><ele>482.0</ele><time>2026-04-28T12:02:49.032Z</time></trkpt><trkpt lat="39.0538005" lon="22.3397909"><ele>482.0</ele><time>2026-04-28T12:02:50.032Z</time></trkpt><trkpt lat="39.0535623" lon="22.3401002"><ele>482.0</ele><time>2026-04-28T12:02:51.033Z</time></trkpt><trkpt lat="39.0533297" lon="22.3403781"><ele>482.0</ele><time>2026-04-28T12:02:52.034Z</time></trkpt><trkpt lat="39.053107" lon="22.3406337"><ele>483.5</ele><time>2026-04-28T12:02:53.034Z</time></trkpt><trkpt lat="39.0528851" lon="22.340879"><ele>485.0</ele><time>2026-04-28T12:02:54.034Z</time></trkpt><trkpt lat="39.0526578" lon="22.3411227"><ele>484.5</ele><time>2026-04-28T12:02:55.034Z</time></trkpt><trkpt lat="39.0524325" lon="22.3413667"><ele>484.0</ele><time>2026-04-28T12:02:56.032Z</time></trkpt><trkpt lat="39.0522117" lon="22.3416068"><ele>484.0</ele><time>2026-04-28T12:02:57.032Z</time></trkpt><trkpt lat="39.051996" lon="22.3418419"><ele>484.0</ele><time>2026-04-28T12:02:58.033Z</time></trkpt><trkpt lat="39.051788" lon="22.3420662"><ele>484.5</ele><time>2026-04-28T12:02:59.033Z</time></trkpt><trkpt lat="39.0515839" lon="22.3422892"><ele>485.0</ele><time>2026-04-28T12:03:00.033Z</time></trkpt><trkpt lat="39.0513826" lon="22.3425105"><ele>485.0</ele><time>2026-04-28T12:03:01.032Z</time></trkpt><trkpt lat="39.051185" lon="22.3427279"><ele>485.0</ele><time>2026-04-28T12:03:02.033Z</time></trkpt><trkpt lat="39.0509881" lon="22.3429446"><ele>487.0</ele><time>2026-04-28T12:03:03.033Z</time></trkpt><trkpt lat="39.0507917" lon="22.343158"><ele>489.0</ele><time>2026-04-28T12:03:04.032Z</time></trkpt><trkpt lat="39.0505954" lon="22.3433702"><ele>489.0</ele><time>2026-04-28T12:03:05.032Z</time></trkpt><trkpt lat="39.0504031" lon="22.3435798"><ele>489.0</ele><time>2026-04-28T12:03:06.032Z</time></trkpt><trkpt lat="39.0502069" lon="22.3437921"><ele>488.5</ele><time>2026-04-28T12:03:07.031Z</time></trkpt><trkpt lat="39.0500125" lon="22.3440038"><ele>488.0</ele><time>2026-04-28T12:03:08.033Z</time></trkpt><trkpt lat="39.0498186" lon="22.3442157"><ele>488.0</ele><time>2026-04-28T12:03:09.033Z</time></trkpt><trkpt lat="39.0496239" lon="22.3444278"><ele>488.0</ele><time>2026-04-28T12:03:10.033Z</time></trkpt><trkpt lat="39.0494298" lon="22.3446387"><ele>488.5</ele><time>2026-04-28T12:03:11.033Z</time></trkpt><trkpt lat="39.0492343" lon="22.3448502"><ele>489.0</ele><time>2026-04-28T12:03:12.032Z</time></trkpt><trkpt lat="39.0490399" lon="22.3450641"><ele>489.5</ele><time>2026-04-28T12:03:13.032Z</time></trkpt><trkpt lat="39.0488429" lon="22.3452741"><ele>490.0</ele><time>2026-04-28T12:03:14.033Z</time></trkpt><trkpt lat="39.0486462" lon="22.3454863"><ele>490.5</ele><time>2026-04-28T12:03:15.033Z</time></trkpt><trkpt lat="39.0484504" lon="22.3456989"><ele>491.0</ele><time>2026-04-28T12:03:16.032Z</time></trkpt><trkpt lat="39.0482531" lon="22.3459119"><ele>492.0</ele><time>2026-04-28T12:03:17.032Z</time></trkpt><trkpt lat="39.0480574" lon="22.3461257"><ele>493.0</ele><time>2026-04-28T12:03:18.031Z</time></trkpt><trkpt lat="39.0478618" lon="22.3463385"><ele>493.5</ele><time>2026-04-28T12:03:19.032Z</time></trkpt><trkpt lat="39.0476676" lon="22.3465511"><ele>494.0</ele><time>2026-04-28T12:03:20.033Z</time></trkpt><trkpt lat="39.0474758" lon="22.3467663"><ele>494.0</ele><time>2026-04-28T12:03:21.032Z</time></trkpt><trkpt lat="39.0472814" lon="22.3469777"><ele>494.0</ele><time>2026-04-28T12:03:22.031Z</time></trkpt><trkpt lat="39.0470856" lon="22.3471898"><ele>494.0</ele><time>2026-04-28T12:03:23.032Z</time></trkpt><trkpt lat="39.0468876" lon="22.3474045"><ele>494.0</ele><time>2026-04-28T12:03:24.033Z</time></trkpt><trkpt lat="39.0466859" lon="22.3476225"><ele>494.0</ele><time>2026-04-28T12:03:25.031Z</time></trkpt><trkpt lat="39.0464851" lon="22.347843"><ele>494.0</ele><time>2026-04-28T12:03:26.031Z</time></trkpt><trkpt lat="39.0462836" lon="22.3480676"><ele>494.0</ele><time>2026-04-28T12:03:27.032Z</time></trkpt><trkpt lat="39.0460797" lon="22.3482914"><ele>494.0</ele><time>2026-04-28T12:03:28.033Z</time></trkpt><trkpt lat="39.045876" lon="22.3485174"><ele>494.0</ele><time>2026-04-28T12:03:29.032Z</time></trkpt><trkpt lat="39.0456708" lon="22.348746"><ele>494.0</ele><time>2026-04-28T12:03:30.033Z</time></trkpt><trkpt lat="39.0454623" lon="22.3489726"><ele>495.0</ele><time>2026-04-28T12:03:31.033Z</time></trkpt><trkpt lat="39.0452533" lon="22.3491983"><ele>496.0</ele><time>2026-04-28T12:03:32.032Z</time></trkpt><trkpt lat="39.0450434" lon="22.3494271"><ele>497.5</ele><time>2026-04-28T12:03:33.032Z</time></trkpt><trkpt lat="39.0448332" lon="22.3496527"><ele>499.0</ele><time>2026-04-28T12:03:34.033Z</time></trkpt><trkpt lat="39.0446257" lon="22.3498793"><ele>499.0</ele><time>2026-04-28T12:03:35.032Z</time></trkpt><trkpt lat="39.0444186" lon="22.3501056"><ele>499.0</ele><time>2026-04-28T12:03:36.031Z</time></trkpt><trkpt lat="39.0442133" lon="22.3503272"><ele>500.0</ele><time>2026-04-28T12:03:37.031Z</time></trkpt><trkpt lat="39.0440099" lon="22.3505454"><ele>501.0</ele><time>2026-04-28T12:03:38.033Z</time></trkpt><trkpt lat="39.0438098" lon="22.3507647"><ele>501.0</ele><time>2026-04-28T12:03:39.032Z</time></trkpt><trkpt lat="39.0436081" lon="22.3509818"><ele>501.0</ele><time>2026-04-28T12:03:40.031Z</time></trkpt><trkpt lat="39.0434035" lon="22.3511974"><ele>502.0</ele><time>2026-04-28T12:03:41.032Z</time></trkpt><trkpt lat="39.0431987" lon="22.3514153"><ele>503.0</ele><time>2026-04-28T12:03:42.032Z</time></trkpt><trkpt lat="39.0429922" lon="22.351632"><ele>503.0</ele><time>2026-04-28T12:03:43.033Z</time></trkpt><trkpt lat="39.0427865" lon="22.3518472"><ele>503.0</ele><time>2026-04-28T12:03:44.031Z</time></trkpt><trkpt lat="39.0425826" lon="22.3520632"><ele>503.0</ele><time>2026-04-28T12:03:45.032Z</time></trkpt><trkpt lat="39.0423837" lon="22.3522777"><ele>503.0</ele><time>2026-04-28T12:03:46.032Z</time></trkpt><trkpt lat="39.0421843" lon="22.3524933"><ele>503.0</ele><time>2026-04-28T12:03:47.033Z</time></trkpt><trkpt lat="39.0419875" lon="22.3527111"><ele>503.0</ele><time>2026-04-28T12:03:48.032Z</time></trkpt><trkpt lat="39.0417913" lon="22.3529287"><ele>504.5</ele><time>2026-04-28T12:03:49.032Z</time></trkpt><trkpt lat="39.0415965" lon="22.3531471"><ele>506.0</ele><time>2026-04-28T12:03:50.032Z</time></trkpt><trkpt lat="39.041402" lon="22.3533674"><ele>506.0</ele><time>2026-04-28T12:03:51.033Z</time></trkpt><trkpt lat="39.0412094" lon="22.3535889"><ele>506.0</ele><time>2026-04-28T12:03:52.033Z</time></trkpt><trkpt lat="39.0410162" lon="22.3538085"><ele>506.0</ele><time>2026-04-28T12:03:53.032Z</time></trkpt><trkpt lat="39.0408239" lon="22.3540238"><ele>506.0</ele><time>2026-04-28T12:03:54.032Z</time></trkpt><trkpt lat="39.0406323" lon="22.3542379"><ele>506.5</ele><time>2026-04-28T12:03:55.032Z</time></trkpt><trkpt lat="39.0404411" lon="22.3544486"><ele>507.0</ele><time>2026-04-28T12:03:56.032Z</time></trkpt><trkpt lat="39.0402518" lon="22.3546581"><ele>507.5</ele><time>2026-04-28T12:03:57.032Z</time></trkpt><trkpt lat="39.0400616" lon="22.3548653"><ele>508.0</ele><time>2026-04-28T12:03:58.031Z</time></trkpt><trkpt lat="39.0398768" lon="22.3550794"><ele>508.0</ele><time>2026-04-28T12:03:59.031Z</time></trkpt><trkpt lat="39.0396841" lon="22.3552905"><ele>508.0</ele><time>2026-04-28T12:04:00.033Z</time></trkpt><trkpt lat="39.0394872" lon="22.35551"><ele>509.0</ele><time>2026-04-28T12:04:01.033Z</time></trkpt><trkpt lat="39.0392861" lon="22.3557399"><ele>510.0</ele><time>2026-04-28T12:04:02.033Z</time></trkpt><trkpt lat="39.0390792" lon="22.3559789"><ele>510.0</ele><time>2026-04-28T12:04:03.031Z</time></trkpt><trkpt lat="39.038866" lon="22.3562208"><ele>510.0</ele><time>2026-04-28T12:04:04.033Z</time></trkpt><trkpt lat="39.0386479" lon="22.3564653"><ele>510.0</ele><time>2026-04-28T12:04:05.032Z</time></trkpt><trkpt lat="39.0384258" lon="22.3567123"><ele>510.0</ele><time>2026-04-28T12:04:06.033Z</time></trkpt><trkpt lat="39.0382015" lon="22.3569604"><ele>509.5</ele><time>2026-04-28T12:04:07.033Z</time></trkpt><trkpt lat="39.0379786" lon="22.3572073"><ele>509.0</ele><time>2026-04-28T12:04:08.031Z</time></trkpt><trkpt lat="39.0377555" lon="22.3574517"><ele>509.0</ele><time>2026-04-28T12:04:09.032Z</time></trkpt><trkpt lat="39.0375329" lon="22.3576902"><ele>509.0</ele><time>2026-04-28T12:04:10.033Z</time></trkpt><trkpt lat="39.0373115" lon="22.3579211"><ele>510.5</ele><time>2026-04-28T12:04:11.033Z</time></trkpt><trkpt lat="39.0370934" lon="22.3581463"><ele>512.0</ele><time>2026-04-28T12:04:12.032Z</time></trkpt><trkpt lat="39.0368796" lon="22.3583722"><ele>512.0</ele><time>2026-04-28T12:04:13.031Z</time></trkpt><trkpt lat="39.0366691" lon="22.3585969"><ele>512.0</ele><time>2026-04-28T12:04:14.032Z</time></trkpt><trkpt lat="39.0364633" lon="22.3588165"><ele>513.0</ele><time>2026-04-28T12:04:15.033Z</time></trkpt><trkpt lat="39.0362596" lon="22.3590385"><ele>514.0</ele><time>2026-04-28T12:04:16.031Z</time></trkpt><trkpt lat="39.036059" lon="22.3592561"><ele>514.0</ele><time>2026-04-28T12:04:17.032Z</time></trkpt><trkpt lat="39.0358627" lon="22.3594747"><ele>514.0</ele><time>2026-04-28T12:04:18.033Z</time></trkpt><trkpt lat="39.035665" lon="22.3596873"><ele>515.0</ele><time>2026-04-28T12:04:19.032Z</time></trkpt><trkpt lat="39.0354709" lon="22.3598974"><ele>516.0</ele><time>2026-04-28T12:04:20.031Z</time></trkpt><trkpt lat="39.0352783" lon="22.3601076"><ele>516.0</ele><time>2026-04-28T12:04:21.032Z</time></trkpt><trkpt lat="39.035087" lon="22.3603158"><ele>516.0</ele><time>2026-04-28T12:04:22.032Z</time></trkpt><trkpt lat="39.0348968" lon="22.3605212"><ele>516.5</ele><time>2026-04-28T12:04:23.032Z</time></trkpt><trkpt lat="39.0347057" lon="22.3607273"><ele>517.0</ele><time>2026-04-28T12:04:24.033Z</time></trkpt><trkpt lat="39.0345157" lon="22.3609314"><ele>517.0</ele><time>2026-04-28T12:04:25.033Z</time></trkpt><trkpt lat="39.034326" lon="22.3611376"><ele>517.0</ele><time>2026-04-28T12:04:26.033Z</time></trkpt><trkpt lat="39.034133" lon="22.3613432"><ele>518.5</ele><time>2026-04-28T12:04:27.033Z</time></trkpt><trkpt lat="39.0339392" lon="22.3615509"><ele>520.0</ele><time>2026-04-28T12:04:28.033Z</time></trkpt><trkpt lat="39.0337494" lon="22.3617549"><ele>520.0</ele><time>2026-04-28T12:04:29.033Z</time></trkpt><trkpt lat="39.0335581" lon="22.3619613"><ele>520.0</ele><time>2026-04-28T12:04:30.032Z</time></trkpt><trkpt lat="39.0333683" lon="22.3621681"><ele>521.0</ele><time>2026-04-28T12:04:31.031Z</time></trkpt><trkpt lat="39.0331776" lon="22.3623697"><ele>522.0</ele><time>2026-04-28T12:04:32.031Z</time></trkpt><trkpt lat="39.0329886" lon="22.3625723"><ele>522.0</ele><time>2026-04-28T12:04:33.033Z</time></trkpt><trkpt lat="39.0328" lon="22.3627736"><ele>522.0</ele><time>2026-04-28T12:04:34.032Z</time></trkpt><trkpt lat="39.0326101" lon="22.3629748"><ele>523.0</ele><time>2026-04-28T12:04:35.032Z</time></trkpt><trkpt lat="39.0324221" lon="22.3631753"><ele>524.0</ele><time>2026-04-28T12:04:36.031Z</time></trkpt><trkpt lat="39.0322346" lon="22.3633767"><ele>524.0</ele><time>2026-04-28T12:04:37.032Z</time></trkpt><trkpt lat="39.0320458" lon="22.3635764"><ele>524.0</ele><time>2026-04-28T12:04:38.032Z</time></trkpt><trkpt lat="39.0318582" lon="22.3637759"><ele>524.5</ele><time>2026-04-28T12:04:39.031Z</time></trkpt><trkpt lat="39.0316717" lon="22.3639764"><ele>525.0</ele><time>2026-04-28T12:04:40.032Z</time></trkpt><trkpt lat="39.0314891" lon="22.3641767"><ele>525.5</ele><time>2026-04-28T12:04:41.033Z</time></trkpt><trkpt lat="39.0313046" lon="22.364378"><ele>526.0</ele><time>2026-04-28T12:04:42.031Z</time></trkpt><trkpt lat="39.0311233" lon="22.364578"><ele>527.0</ele><time>2026-04-28T12:04:43.032Z</time></trkpt><trkpt lat="39.0309429" lon="22.3647757"><ele>528.0</ele><time>2026-04-28T12:04:44.031Z</time></trkpt><trkpt lat="39.0307638" lon="22.3649702"><ele>529.0</ele><time>2026-04-28T12:04:45.033Z</time></trkpt><trkpt lat="39.030587" lon="22.3651633"><ele>530.0</ele><time>2026-04-28T12:04:46.033Z</time></trkpt><trkpt lat="39.0304139" lon="22.365354"><ele>530.5</ele><time>2026-04-28T12:04:47.031Z</time></trkpt><trkpt lat="39.030241" lon="22.365544"><ele>531.0</ele><time>2026-04-28T12:04:48.032Z</time></trkpt><trkpt lat="39.0300711" lon="22.365731"><ele>532.3333333333334</ele><time>2026-04-28T12:04:49.033Z</time></trkpt><trkpt lat="39.0299033" lon="22.3659142"><ele>533.6666666666667</ele><time>2026-04-28T12:04:50.032Z</time></trkpt><trkpt lat="39.0297357" lon="22.366095"><ele>535.0</ele><time>2026-04-28T12:04:51.032Z</time></trkpt><trkpt lat="39.0295768" lon="22.3662623"><ele>535.6666666666667</ele><time>2026-04-28T12:04:52.032Z</time></trkpt><trkpt lat="39.0294268" lon="22.3664141"><ele>536.3333333333334</ele><time>2026-04-28T12:04:53.032Z</time></trkpt><trkpt lat="39.0292856" lon="22.3665528"><ele>537.0</ele><time>2026-04-28T12:04:54.031Z</time></trkpt><trkpt lat="39.0291547" lon="22.3666798"><ele>537.5</ele><time>2026-04-28T12:04:55.033Z</time></trkpt><trkpt lat="39.0290299" lon="22.3667972"><ele>538.0</ele><time>2026-04-28T12:04:56.032Z</time></trkpt><trkpt lat="39.0289089" lon="22.3669025"><ele>538.5</ele><time>2026-04-28T12:04:57.033Z</time></trkpt><trkpt lat="39.0287868" lon="22.3669943"><ele>539.0</ele><time>2026-04-28T12:04:58.033Z</time></trkpt><trkpt lat="39.0286631" lon="22.3670793"><ele>539.0</ele><time>2026-04-28T12:04:59.032Z</time></trkpt><trkpt lat="39.0285353" lon="22.367153"><ele>539.0</ele><time>2026-04-28T12:05:00.032Z</time></trkpt><trkpt lat="39.0284004" lon="22.3672206"><ele>539.0</ele><time>2026-04-28T12:05:01.031Z</time></trkpt><trkpt lat="39.028261" lon="22.3672879"><ele>539.0</ele><time>2026-04-28T12:05:02.032Z</time></trkpt><trkpt lat="39.0281137" lon="22.3673585"><ele>540.6666666666666</ele><time>2026-04-28T12:05:03.032Z</time></trkpt><trkpt lat="39.0279627" lon="22.3674314"><ele>542.3333333333334</ele><time>2026-04-28T12:05:04.033Z</time></trkpt><trkpt lat="39.027815" lon="22.3674994"><ele>544.0</ele><time>2026-04-28T12:05:05.031Z</time></trkpt><trkpt lat="39.0276639" lon="22.367563"><ele>544.0</ele><time>2026-04-28T12:05:06.032Z</time></trkpt><trkpt lat="39.027507" lon="22.3676242"><ele>544.0</ele><time>2026-04-28T12:05:07.031Z</time></trkpt><trkpt lat="39.027345" lon="22.3676911"><ele>544.0</ele><time>2026-04-28T12:05:08.031Z</time></trkpt><trkpt lat="39.0271826" lon="22.3677606"><ele>544.0</ele><time>2026-04-28T12:05:09.032Z</time></trkpt><trkpt lat="39.0270083" lon="22.3678412"><ele>544.0</ele><time>2026-04-28T12:05:10.032Z</time></trkpt><trkpt lat="39.0268314" lon="22.3679329"><ele>544.0</ele><time>2026-04-28T12:05:11.031Z</time></trkpt><trkpt lat="39.0266474" lon="22.3680477"><ele>546.3333333333334</ele><time>2026-04-28T12:05:12.031Z</time></trkpt><trkpt lat="39.0264559" lon="22.3681828"><ele>548.6666666666666</ele><time>2026-04-28T12:05:13.033Z</time></trkpt><trkpt lat="39.0262615" lon="22.3683404"><ele>551.0</ele><time>2026-04-28T12:05:14.032Z</time></trkpt><trkpt lat="39.0260677" lon="22.3685186"><ele>551.0</ele><time>2026-04-28T12:05:15.032Z</time></trkpt><trkpt lat="39.0258786" lon="22.368716"><ele>551.0</ele><time>2026-04-28T12:05:16.032Z</time></trkpt><trkpt lat="39.0256899" lon="22.3689478"><ele>553.5</ele><time>2026-04-28T12:05:17.033Z</time></trkpt><trkpt lat="39.0255039" lon="22.3692021"><ele>556.0</ele><time>2026-04-28T12:05:18.032Z</time></trkpt><trkpt lat="39.0253316" lon="22.3694756"><ele>558.5</ele><time>2026-04-28T12:05:19.031Z</time></trkpt><trkpt lat="39.0251708" lon="22.3697737"><ele>561.0</ele><time>2026-04-28T12:05:20.033Z</time></trkpt><trkpt lat="39.025023" lon="22.3700959"><ele>562.5</ele><time>2026-04-28T12:05:21.032Z</time></trkpt><trkpt lat="39.0248868" lon="22.3704281"><ele>564.0</ele><time>2026-04-28T12:05:22.032Z</time></trkpt><trkpt lat="39.0247556" lon="22.3707675"><ele>568.5</ele><time>2026-04-28T12:05:23.032Z</time></trkpt><trkpt lat="39.0246195" lon="22.3710977"><ele>573.0</ele><time>2026-04-28T12:05:24.031Z</time></trkpt><trkpt lat="39.0244784" lon="22.3714204"><ele>574.0</ele><time>2026-04-28T12:05:25.031Z</time></trkpt><trkpt lat="39.0243353" lon="22.3717258"><ele>575.0</ele><time>2026-04-28T12:05:26.033Z</time></trkpt><trkpt lat="39.0241701" lon="22.3720176"><ele>579.5</ele><time>2026-04-28T12:05:27.032Z</time></trkpt><trkpt lat="39.0240006" lon="22.3722989"><ele>584.0</ele><time>2026-04-28T12:05:28.033Z</time></trkpt><trkpt lat="39.023817" lon="22.3725667"><ele>584.0</ele><time>2026-04-28T12:05:29.033Z</time></trkpt><trkpt lat="39.0236243" lon="22.3728191"><ele>584.0</ele><time>2026-04-28T12:05:30.032Z</time></trkpt><trkpt lat="39.0234199" lon="22.3730505"><ele>584.5</ele><time>2026-04-28T12:05:31.031Z</time></trkpt><trkpt lat="39.0232069" lon="22.3732663"><ele>585.0</ele><time>2026-04-28T12:05:32.032Z</time></trkpt><trkpt lat="39.0229887" lon="22.3734695"><ele>585.0</ele><time>2026-04-28T12:05:33.032Z</time></trkpt><trkpt lat="39.0227654" lon="22.3736522"><ele>585.0</ele><time>2026-04-28T12:05:34.032Z</time></trkpt><trkpt lat="39.0225332" lon="22.3738171"><ele>587.5</ele><time>2026-04-28T12:05:35.033Z</time></trkpt><trkpt lat="39.0223011" lon="22.3739755"><ele>590.0</ele><time>2026-04-28T12:05:36.031Z</time></trkpt><trkpt lat="39.0220704" lon="22.3741335"><ele>590.0</ele><time>2026-04-28T12:05:37.031Z</time></trkpt><trkpt lat="39.0218401" lon="22.3742928"><ele>590.0</ele><time>2026-04-28T12:05:38.031Z</time></trkpt><trkpt lat="39.0216139" lon="22.3744505"><ele>591.0</ele><time>2026-04-28T12:05:39.032Z</time></trkpt><trkpt lat="39.0213883" lon="22.3746093"><ele>592.0</ele><time>2026-04-28T12:05:40.033Z</time></trkpt><trkpt lat="39.0211617" lon="22.3747681"><ele>592.0</ele><time>2026-04-28T12:05:41.033Z</time></trkpt><trkpt lat="39.0209324" lon="22.3749254"><ele>592.0</ele><time>2026-04-28T12:05:42.031Z</time></trkpt><trkpt lat="39.0207004" lon="22.3750858"><ele>595.5</ele><time>2026-04-28T12:05:43.032Z</time></trkpt><trkpt lat="39.0204642" lon="22.3752476"><ele>599.0</ele><time>2026-04-28T12:05:44.031Z</time></trkpt><trkpt lat="39.0202247" lon="22.3754102"><ele>594.5</ele><time>2026-04-28T12:05:45.031Z</time></trkpt><trkpt lat="39.019984" lon="22.3755727"><ele>590.0</ele><time>2026-04-28T12:05:46.032Z</time></trkpt><trkpt lat="39.0197437" lon="22.3757289"><ele>590.0</ele><time>2026-04-28T12:05:47.033Z</time></trkpt><trkpt lat="39.019504" lon="22.3758721"><ele>590.0</ele><time>2026-04-28T12:05:48.032Z</time></trkpt><trkpt lat="39.0192613" lon="22.3759979"><ele>595.5</ele><time>2026-04-28T12:05:49.032Z</time></trkpt><trkpt lat="39.0190156" lon="22.3761087"><ele>601.0</ele><time>2026-04-28T12:05:50.033Z</time></trkpt><trkpt lat="39.0187673" lon="22.3761987"><ele>601.0</ele><time>2026-04-28T12:05:51.033Z</time></trkpt><trkpt lat="39.0185158" lon="22.376262"><ele>601.0</ele><time>2026-04-28T12:05:52.031Z</time></trkpt><trkpt lat="39.0182692" lon="22.3762989"><ele>602.5</ele><time>2026-04-28T12:05:53.031Z</time></trkpt><trkpt lat="39.0180237" lon="22.3763192"><ele>604.0</ele><time>2026-04-28T12:05:54.031Z</time></trkpt><trkpt lat="39.0177769" lon="22.3763253"><ele>604.0</ele><time>2026-04-28T12:05:55.032Z</time></trkpt><trkpt lat="39.017533" lon="22.3763279"><ele>604.0</ele><time>2026-04-28T12:05:56.031Z</time></trkpt><trkpt lat="39.0172835" lon="22.3763324"><ele>601.5</ele><time>2026-04-28T12:05:57.032Z</time></trkpt><trkpt lat="39.01703" lon="22.376336"><ele>599.0</ele><time>2026-04-28T12:05:58.033Z</time></trkpt><trkpt lat="39.0167714" lon="22.3763551"><ele>594.5</ele><time>2026-04-28T12:05:59.032Z</time></trkpt><trkpt lat="39.0165037" lon="22.3763896"><ele>590.0</ele><time>2026-04-28T12:06:00.033Z</time></trkpt><trkpt lat="39.0162239" lon="22.3764483"><ele>590.0</ele><time>2026-04-28T12:06:01.032Z</time></trkpt><trkpt lat="39.0159421" lon="22.3765306"><ele>590.0</ele><time>2026-04-28T12:06:02.032Z</time></trkpt><trkpt lat="39.0156593" lon="22.376633"><ele>590.0</ele><time>2026-04-28T12:06:03.032Z</time></trkpt><trkpt lat="39.0153793" lon="22.3767453"><ele>590.0</ele><time>2026-04-28T12:06:04.032Z</time></trkpt><trkpt lat="39.0151021" lon="22.3768572"><ele>592.0</ele><time>2026-04-28T12:06:05.033Z</time></trkpt><trkpt lat="39.0148271" lon="22.3769677"><ele>594.0</ele><time>2026-04-28T12:06:06.032Z</time></trkpt><trkpt lat="39.0145555" lon="22.3770762"><ele>594.0</ele><time>2026-04-28T12:06:07.032Z</time></trkpt><trkpt lat="39.0142863" lon="22.377183"><ele>594.0</ele><time>2026-04-28T12:06:08.033Z</time></trkpt><trkpt lat="39.0140181" lon="22.3772894"><ele>595.0</ele><time>2026-04-28T12:06:09.032Z</time></trkpt><trkpt lat="39.0137524" lon="22.3773908"><ele>596.0</ele><time>2026-04-28T12:06:10.032Z</time></trkpt><trkpt lat="39.0134854" lon="22.3774792"><ele>596.5</ele><time>2026-04-28T12:06:11.033Z</time></trkpt><trkpt lat="39.0132157" lon="22.3775425"><ele>597.0</ele><time>2026-04-28T12:06:12.031Z</time></trkpt><trkpt lat="39.0129422" lon="22.3775873"><ele>597.0</ele><time>2026-04-28T12:06:13.032Z</time></trkpt><trkpt lat="39.0126708" lon="22.3776065"><ele>597.0</ele><time>2026-04-28T12:06:14.032Z</time></trkpt><trkpt lat="39.0123979" lon="22.3775997"><ele>601.0</ele><time>2026-04-28T12:06:15.031Z</time></trkpt><trkpt lat="39.0121276" lon="22.3775708"><ele>605.0</ele><time>2026-04-28T12:06:16.033Z</time></trkpt><trkpt lat="39.0118619" lon="22.3775166"><ele>607.5</ele><time>2026-04-28T12:06:17.032Z</time></trkpt><trkpt lat="39.0115988" lon="22.3774345"><ele>610.0</ele><time>2026-04-28T12:06:18.031Z</time></trkpt><trkpt lat="39.0113323" lon="22.3773396"><ele>610.0</ele><time>2026-04-28T12:06:19.031Z</time></trkpt><trkpt lat="39.011075" lon="22.3772469"><ele>610.0</ele><time>2026-04-28T12:06:20.032Z</time></trkpt><trkpt lat="39.0108185" lon="22.3771433"><ele>618.5</ele><time>2026-04-28T12:06:21.032Z</time></trkpt><trkpt lat="39.0105647" lon="22.3770348"><ele>627.0</ele><time>2026-04-28T12:06:22.032Z</time></trkpt><trkpt lat="39.0103116" lon="22.3769314"><ele>627.0</ele><time>2026-04-28T12:06:23.033Z</time></trkpt><trkpt lat="39.0100606" lon="22.3768374"><ele>627.0</ele><time>2026-04-28T12:06:24.033Z</time></trkpt><trkpt lat="39.0098119" lon="22.3767562"><ele>625.5</ele><time>2026-04-28T12:06:25.032Z</time></trkpt><trkpt lat="39.0095705" lon="22.3766822"><ele>624.0</ele><time>2026-04-28T12:06:26.033Z</time></trkpt><trkpt lat="39.0093314" lon="22.3766134"><ele>622.0</ele><time>2026-04-28T12:06:27.032Z</time></trkpt><trkpt lat="39.0090945" lon="22.3765419"><ele>620.0</ele><time>2026-04-28T12:06:28.032Z</time></trkpt><trkpt lat="39.0088631" lon="22.3764553"><ele>620.0</ele><time>2026-04-28T12:06:29.032Z</time></trkpt><trkpt lat="39.008627" lon="22.3763532"><ele>620.0</ele><time>2026-04-28T12:06:30.032Z</time></trkpt><trkpt lat="39.0083882" lon="22.3762331"><ele>622.5</ele><time>2026-04-28T12:06:31.032Z</time></trkpt><trkpt lat="39.0081469" lon="22.3761142"><ele>625.0</ele><time>2026-04-28T12:06:32.033Z</time></trkpt><trkpt lat="39.0079017" lon="22.375999"><ele>625.0</ele><time>2026-04-28T12:06:33.032Z</time></trkpt><trkpt lat="39.0076567" lon="22.3758809"><ele>625.0</ele><time>2026-04-28T12:06:34.032Z</time></trkpt><trkpt lat="39.0074108" lon="22.3757618"><ele>624.5</ele><time>2026-04-28T12:06:35.033Z</time></trkpt><trkpt lat="39.0071644" lon="22.3756436"><ele>624.0</ele><time>2026-04-28T12:06:36.031Z</time></trkpt><trkpt lat="39.006919" lon="22.375523"><ele>629.0</ele><time>2026-04-28T12:06:37.031Z</time></trkpt><trkpt lat="39.0066737" lon="22.3754047"><ele>634.0</ele><time>2026-04-28T12:06:38.032Z</time></trkpt><trkpt lat="39.0064275" lon="22.375286"><ele>634.0</ele><time>2026-04-28T12:06:39.031Z</time></trkpt><trkpt lat="39.006181" lon="22.3751809"><ele>634.0</ele><time>2026-04-28T12:06:40.033Z</time></trkpt><trkpt lat="39.0059269" lon="22.3750961"><ele>636.0</ele><time>2026-04-28T12:06:41.032Z</time></trkpt><trkpt lat="39.0056629" lon="22.3750471"><ele>638.0</ele><time>2026-04-28T12:06:42.031Z</time></trkpt><trkpt lat="39.005396" lon="22.3750275"><ele>638.0</ele><time>2026-04-28T12:06:43.031Z</time></trkpt><trkpt lat="39.0051294" lon="22.3750282"><ele>638.0</ele><time>2026-04-28T12:06:44.031Z</time></trkpt><trkpt lat="39.004862" lon="22.3750155"><ele>633.5</ele><time>2026-04-28T12:06:45.032Z</time></trkpt><trkpt lat="39.0046057" lon="22.3749808"><ele>629.0</ele><time>2026-04-28T12:06:46.032Z</time></trkpt><trkpt lat="39.0043546" lon="22.3749172"><ele>631.5</ele><time>2026-04-28T12:06:47.033Z</time></trkpt><trkpt lat="39.0041122" lon="22.3748199"><ele>634.0</ele><time>2026-04-28T12:06:48.032Z</time></trkpt><trkpt lat="39.0038719" lon="22.3747085"><ele>637.0</ele><time>2026-04-28T12:06:49.033Z</time></trkpt><trkpt lat="39.0036349" lon="22.3745978"><ele>640.0</ele><time>2026-04-28T12:06:50.033Z</time></trkpt><trkpt lat="39.0033946" lon="22.3744778"><ele>638.5</ele><time>2026-04-28T12:06:51.031Z</time></trkpt><trkpt lat="39.0031582" lon="22.3743584"><ele>637.0</ele><time>2026-04-28T12:06:52.033Z</time></trkpt><trkpt lat="39.0029254" lon="22.3742429"><ele>637.0</ele><time>2026-04-28T12:06:53.032Z</time></trkpt><trkpt lat="39.0027009" lon="22.3741282"><ele>637.0</ele><time>2026-04-28T12:06:54.033Z</time></trkpt><trkpt lat="39.0024882" lon="22.3740117"><ele>639.5</ele><time>2026-04-28T12:06:55.032Z</time></trkpt><trkpt lat="39.0022835" lon="22.3738854"><ele>642.0</ele><time>2026-04-28T12:06:56.032Z</time></trkpt><trkpt lat="39.0020939" lon="22.3737257"><ele>643.5</ele><time>2026-04-28T12:06:57.033Z</time></trkpt><trkpt lat="39.0019201" lon="22.3735366"><ele>645.0</ele><time>2026-04-28T12:06:58.032Z</time></trkpt><trkpt lat="39.0017695" lon="22.3733197"><ele>646.0</ele><time>2026-04-28T12:06:59.031Z</time></trkpt><trkpt lat="39.0016332" lon="22.3730902"><ele>647.0</ele><time>2026-04-28T12:07:00.033Z</time></trkpt><trkpt lat="39.0015182" lon="22.3728428"><ele>648.0</ele><time>2026-04-28T12:07:01.033Z</time></trkpt><trkpt lat="39.0014365" lon="22.3725681"><ele>649.5</ele><time>2026-04-28T12:07:02.031Z</time></trkpt><trkpt lat="39.0013718" lon="22.3722707"><ele>651.0</ele><time>2026-04-28T12:07:03.033Z</time></trkpt><trkpt lat="39.0013245" lon="22.3719525"><ele>651.0</ele><time>2026-04-28T12:07:04.031Z</time></trkpt><trkpt lat="39.0012863" lon="22.3716212"><ele>651.0</ele><time>2026-04-28T12:07:05.031Z</time></trkpt><trkpt lat="39.0012462" lon="22.3712973"><ele>651.5</ele><time>2026-04-28T12:07:06.032Z</time></trkpt><trkpt lat="39.0012047" lon="22.3709703"><ele>652.0</ele><time>2026-04-28T12:07:07.033Z</time></trkpt><trkpt lat="39.0011597" lon="22.3706399"><ele>655.0</ele><time>2026-04-28T12:07:08.031Z</time></trkpt><trkpt lat="39.0011134" lon="22.370309"><ele>658.0</ele><time>2026-04-28T12:07:09.031Z</time></trkpt><trkpt lat="39.0010661" lon="22.3699783"><ele>659.5</ele><time>2026-04-28T12:07:10.033Z</time></trkpt><trkpt lat="39.0010192" lon="22.369653"><ele>661.0</ele><time>2026-04-28T12:07:11.033Z</time></trkpt><trkpt lat="39.0009755" lon="22.3693513"><ele>661.0</ele><time>2026-04-28T12:07:12.033Z</time></trkpt><trkpt lat="39.0009333" lon="22.3690758"><ele>661.0</ele><time>2026-04-28T12:07:13.031Z</time></trkpt><trkpt lat="39.0008728" lon="22.3688268"><ele>661.0</ele><time>2026-04-28T12:07:14.032Z</time></trkpt><trkpt lat="39.0007843" lon="22.3686096"><ele>663.6666666666667</ele><time>2026-04-28T12:07:15.031Z</time></trkpt><trkpt lat="39.0006652" lon="22.3684186"><ele>666.3333333333334</ele><time>2026-04-28T12:07:16.033Z</time></trkpt><trkpt lat="39.0005171" lon="22.3682636"><ele>669.0</ele><time>2026-04-28T12:07:17.033Z</time></trkpt><trkpt lat="39.0003438" lon="22.3681547"><ele>669.0</ele><time>2026-04-28T12:07:18.032Z</time></trkpt><trkpt lat="39.0001618" lon="22.3680958"><ele>669.0</ele><time>2026-04-28T12:07:19.032Z</time></trkpt><trkpt lat="38.9999783" lon="22.3680919"><ele>669.0</ele><time>2026-04-28T12:07:20.032Z</time></trkpt><trkpt lat="38.9998087" lon="22.368135"><ele>669.0</ele><time>2026-04-28T12:07:21.033Z</time></trkpt><trkpt lat="38.9996567" lon="22.3682264"><ele>669.0</ele><time>2026-04-28T12:07:22.032Z</time></trkpt><trkpt lat="38.9995147" lon="22.3683635"><ele>669.0</ele><time>2026-04-28T12:07:23.032Z</time></trkpt><trkpt lat="38.9993973" lon="22.3685357"><ele>669.0</ele><time>2026-04-28T12:07:24.031Z</time></trkpt><trkpt lat="38.9993041" lon="22.3687508"><ele>669.0</ele><time>2026-04-28T12:07:25.031Z</time></trkpt><trkpt lat="38.9992381" lon="22.3690073"><ele>669.0</ele><time>2026-04-28T12:07:26.032Z</time></trkpt><trkpt lat="38.9992038" lon="22.3692949"><ele>668.6666666666666</ele><time>2026-04-28T12:07:27.031Z</time></trkpt><trkpt lat="38.9991914" lon="22.3695763"><ele>668.3333333333333</ele><time>2026-04-28T12:07:28.032Z</time></trkpt><trkpt lat="38.999183" lon="22.3698545"><ele>668.0</ele><time>2026-04-28T12:07:29.032Z</time></trkpt><trkpt lat="38.9991799" lon="22.3701252"><ele>677.3333333333333</ele><time>2026-04-28T12:07:30.031Z</time></trkpt><trkpt lat="38.9991564" lon="22.3703653"><ele>686.6666666666666</ele><time>2026-04-28T12:07:31.032Z</time></trkpt><trkpt lat="38.9991305" lon="22.3705977"><ele>696.0</ele><time>2026-04-28T12:07:32.032Z</time></trkpt><trkpt lat="38.9990717" lon="22.370806"><ele>696.0</ele><time>2026-04-28T12:07:33.032Z</time></trkpt><trkpt lat="38.9989864" lon="22.3710022"><ele>696.0</ele><time>2026-04-28T12:07:34.032Z</time></trkpt><trkpt lat="38.9988803" lon="22.3711709"><ele>696.0</ele><time>2026-04-28T12:07:35.032Z</time></trkpt><trkpt lat="38.9987063" lon="22.3712902"><ele>696.0</ele><time>2026-04-28T12:07:36.033Z</time></trkpt><trkpt lat="38.9985426" lon="22.3713941"><ele>696.0</ele><time>2026-04-28T12:07:37.031Z</time></trkpt><trkpt lat="38.9983622" lon="22.3714543"><ele>696.0</ele><time>2026-04-28T12:07:38.032Z</time></trkpt><trkpt lat="38.9981487" lon="22.3714749"><ele>696.0</ele><time>2026-04-28T12:07:39.032Z</time></trkpt><trkpt lat="38.9979189" lon="22.3714772"><ele>696.0</ele><time>2026-04-28T12:07:40.032Z</time></trkpt><trkpt lat="38.997682" lon="22.3714979"><ele>696.0</ele><time>2026-04-28T12:07:41.031Z</time></trkpt><trkpt lat="38.9974383" lon="22.3715236"><ele>696.0</ele><time>2026-04-28T12:07:42.032Z</time></trkpt><trkpt lat="38.9971817" lon="22.3715418"><ele>696.0</ele><time>2026-04-28T12:07:43.032Z</time></trkpt><trkpt lat="38.9969183" lon="22.3715635"><ele>696.0</ele><time>2026-04-28T12:07:44.032Z</time></trkpt><trkpt lat="38.9966434" lon="22.3715863"><ele>700.0</ele><time>2026-04-28T12:07:45.032Z</time></trkpt><trkpt lat="38.9963706" lon="22.3716073"><ele>704.0</ele><time>2026-04-28T12:07:46.033Z</time></trkpt><trkpt lat="38.9960924" lon="22.3716273"><ele>708.0</ele><time>2026-04-28T12:07:47.032Z</time></trkpt><trkpt lat="38.9958123" lon="22.3716461"><ele>712.0</ele><time>2026-04-28T12:07:48.033Z</time></trkpt><trkpt lat="38.9955338" lon="22.371668"><ele>712.0</ele><time>2026-04-28T12:07:49.033Z</time></trkpt><trkpt lat="38.9952623" lon="22.371688"><ele>712.0</ele><time>2026-04-28T12:07:50.032Z</time></trkpt><trkpt lat="38.9949986" lon="22.3717187"><ele>715.5</ele><time>2026-04-28T12:07:51.032Z</time></trkpt><trkpt lat="38.9947535" lon="22.3717451"><ele>719.0</ele><time>2026-04-28T12:07:52.032Z</time></trkpt><trkpt lat="38.9945197" lon="22.3717611"><ele>719.0</ele><time>2026-04-28T12:07:53.033Z</time></trkpt><trkpt lat="38.9943004" lon="22.3717885"><ele>719.0</ele><time>2026-04-28T12:07:54.033Z</time></trkpt><trkpt lat="38.9940878" lon="22.3718303"><ele>719.0</ele><time>2026-04-28T12:07:55.031Z</time></trkpt><trkpt lat="38.9938882" lon="22.3718946"><ele>718.0</ele><time>2026-04-28T12:07:56.032Z</time></trkpt><trkpt lat="38.9937088" lon="22.3719955"><ele>717.0</ele><time>2026-04-28T12:07:57.032Z</time></trkpt><trkpt lat="38.9935445" lon="22.3721288"><ele>716.0</ele><time>2026-04-28T12:07:58.033Z</time></trkpt><trkpt lat="38.9933906" lon="22.3722923"><ele>720.3333333333333</ele><time>2026-04-28T12:07:59.033Z</time></trkpt><trkpt lat="38.993234" lon="22.3724676"><ele>724.6666666666666</ele><time>2026-04-28T12:08:00.032Z</time></trkpt><trkpt lat="38.9930671" lon="22.3726363"><ele>729.0</ele><time>2026-04-28T12:08:01.032Z</time></trkpt><trkpt lat="38.9928862" lon="22.3727745"><ele>729.0</ele><time>2026-04-28T12:08:02.031Z</time></trkpt><trkpt lat="38.9927042" lon="22.3728989"><ele>729.0</ele><time>2026-04-28T12:08:03.033Z</time></trkpt><trkpt lat="38.9924959" lon="22.3729228"><ele>729.0</ele><time>2026-04-28T12:08:04.032Z</time></trkpt><trkpt lat="38.9922908" lon="22.3729423"><ele>733.6666666666666</ele><time>2026-04-28T12:08:05.032Z</time></trkpt><trkpt lat="38.992088" lon="22.3729085"><ele>738.3333333333333</ele><time>2026-04-28T12:08:06.031Z</time></trkpt><trkpt lat="38.9918863" lon="22.3728451"><ele>743.0</ele><time>2026-04-28T12:08:07.032Z</time></trkpt><trkpt lat="38.9916748" lon="22.3727766"><ele>745.0</ele><time>2026-04-28T12:08:08.032Z</time></trkpt><trkpt lat="38.991462" lon="22.3727136"><ele>747.0</ele><time>2026-04-28T12:08:09.033Z</time></trkpt><trkpt lat="38.9912468" lon="22.3726499"><ele>749.0</ele><time>2026-04-28T12:08:10.031Z</time></trkpt><trkpt lat="38.9910272" lon="22.3725925"><ele>753.6666666666666</ele><time>2026-04-28T12:08:11.031Z</time></trkpt><trkpt lat="38.9908061" lon="22.3725501"><ele>758.3333333333334</ele><time>2026-04-28T12:08:12.032Z</time></trkpt><trkpt lat="38.9905844" lon="22.3725388"><ele>763.0</ele><time>2026-04-28T12:08:13.032Z</time></trkpt><trkpt lat="38.9903658" lon="22.3725648"><ele>763.0</ele><time>2026-04-28T12:08:14.031Z</time></trkpt><trkpt lat="38.9901493" lon="22.3726126"><ele>763.0</ele><time>2026-04-28T12:08:15.031Z</time></trkpt><trkpt lat="38.9899368" lon="22.3726966"><ele>763.0</ele><time>2026-04-28T12:08:16.032Z</time></trkpt><trkpt lat="38.9897335" lon="22.3728095"><ele>765.6666666666667</ele><time>2026-04-28T12:08:17.031Z</time></trkpt><trkpt lat="38.9895418" lon="22.3729529"><ele>768.3333333333334</ele><time>2026-04-28T12:08:18.031Z</time></trkpt><trkpt lat="38.9893724" lon="22.3731283"><ele>771.0</ele><time>2026-04-28T12:08:19.031Z</time></trkpt><trkpt lat="38.9892211" lon="22.3733206"><ele>771.6666666666667</ele><time>2026-04-28T12:08:20.031Z</time></trkpt><trkpt lat="38.9890902" lon="22.3735379"><ele>772.3333333333334</ele><time>2026-04-28T12:08:21.031Z</time></trkpt><trkpt lat="38.9889698" lon="22.373774"><ele>773.0</ele><time>2026-04-28T12:08:22.033Z</time></trkpt><trkpt lat="38.9888585" lon="22.3740316"><ele>773.0</ele><time>2026-04-28T12:08:23.033Z</time></trkpt><trkpt lat="38.9887515" lon="22.3742981"><ele>773.0</ele><time>2026-04-28T12:08:24.031Z</time></trkpt><trkpt lat="38.9886463" lon="22.3745739"><ele>774.5</ele><time>2026-04-28T12:08:25.031Z</time></trkpt><trkpt lat="38.9885437" lon="22.3748515"><ele>776.0</ele><time>2026-04-28T12:08:26.031Z</time></trkpt><trkpt lat="38.9884439" lon="22.375128"><ele>776.0</ele><time>2026-04-28T12:08:27.033Z</time></trkpt><trkpt lat="38.9883494" lon="22.375402"><ele>776.0</ele><time>2026-04-28T12:08:28.031Z</time></trkpt><trkpt lat="38.9882522" lon="22.3756701"><ele>776.3333333333334</ele><time>2026-04-28T12:08:29.032Z</time></trkpt><trkpt lat="38.9881578" lon="22.3759348"><ele>776.6666666666667</ele><time>2026-04-28T12:08:30.032Z</time></trkpt><trkpt lat="38.9880622" lon="22.3761932"><ele>777.0</ele><time>2026-04-28T12:08:31.032Z</time></trkpt><trkpt lat="38.9879674" lon="22.3764408"><ele>777.0</ele><time>2026-04-28T12:08:32.033Z</time></trkpt><trkpt lat="38.9878736" lon="22.37668"><ele>777.0</ele><time>2026-04-28T12:08:33.032Z</time></trkpt><trkpt lat="38.9877727" lon="22.3769227"><ele>777.0</ele><time>2026-04-28T12:08:34.032Z</time></trkpt><trkpt lat="38.9876618" lon="22.3771513"><ele>779.6666666666667</ele><time>2026-04-28T12:08:35.031Z</time></trkpt><trkpt lat="38.9875323" lon="22.3773734"><ele>782.3333333333334</ele><time>2026-04-28T12:08:36.032Z</time></trkpt><trkpt lat="38.9873911" lon="22.3775806"><ele>785.0</ele><time>2026-04-28T12:08:37.032Z</time></trkpt><trkpt lat="38.9872331" lon="22.3777791"><ele>779.3333333333334</ele><time>2026-04-28T12:08:38.033Z</time></trkpt><trkpt lat="38.9870699" lon="22.3779656"><ele>773.6666666666667</ele><time>2026-04-28T12:08:39.032Z</time></trkpt><trkpt lat="38.9869073" lon="22.3781398"><ele>768.0</ele><time>2026-04-28T12:08:40.031Z</time></trkpt><trkpt lat="38.9867503" lon="22.3783016"><ele>766.0</ele><time>2026-04-28T12:08:41.032Z</time></trkpt><trkpt lat="38.9865922" lon="22.3784562"><ele>764.0</ele><time>2026-04-28T12:08:42.033Z</time></trkpt><trkpt lat="38.9864353" lon="22.3786108"><ele>762.0</ele><time>2026-04-28T12:08:43.031Z</time></trkpt><trkpt lat="38.9862754" lon="22.3787636"><ele>758.6666666666666</ele><time>2026-04-28T12:08:44.032Z</time></trkpt><trkpt lat="38.9861124" lon="22.3789121"><ele>755.3333333333333</ele><time>2026-04-28T12:08:45.033Z</time></trkpt><trkpt lat="38.9859514" lon="22.379056"><ele>752.0</ele><time>2026-04-28T12:08:46.031Z</time></trkpt><trkpt lat="38.9857972" lon="22.3791938"><ele>751.3333333333333</ele><time>2026-04-28T12:08:47.032Z</time></trkpt><trkpt lat="38.9856459" lon="22.3793265"><ele>750.6666666666666</ele><time>2026-04-28T12:08:48.032Z</time></trkpt><trkpt lat="38.9854985" lon="22.3794471"><ele>750.0</ele><time>2026-04-28T12:08:49.033Z</time></trkpt><trkpt lat="38.9853434" lon="22.3795568"><ele>750.0</ele><time>2026-04-28T12:08:50.033Z</time></trkpt><trkpt lat="38.9851862" lon="22.3796384"><ele>750.0</ele><time>2026-04-28T12:08:51.033Z</time></trkpt><trkpt lat="38.9850116" lon="22.3796902"><ele>750.0</ele><time>2026-04-28T12:08:52.032Z</time></trkpt><trkpt lat="38.9848434" lon="22.3797142"><ele>745.6666666666666</ele><time>2026-04-28T12:08:53.032Z</time></trkpt><trkpt lat="38.9846737" lon="22.3796941"><ele>741.3333333333333</ele><time>2026-04-28T12:08:54.032Z</time></trkpt><trkpt lat="38.9845047" lon="22.3796434"><ele>737.0</ele><time>2026-04-28T12:08:55.032Z</time></trkpt><trkpt lat="38.9843409" lon="22.3795578"><ele>740.6666666666666</ele><time>2026-04-28T12:08:56.031Z</time></trkpt><trkpt lat="38.9841804" lon="22.3794458"><ele>744.3333333333334</ele><time>2026-04-28T12:08:57.032Z</time></trkpt><trkpt lat="38.9840237" lon="22.3793197"><ele>748.0</ele><time>2026-04-28T12:08:58.032Z</time></trkpt><trkpt lat="38.9838661" lon="22.379204"><ele>748.0</ele><time>2026-04-28T12:08:59.031Z</time></trkpt><trkpt lat="38.9836934" lon="22.3791089"><ele>748.0</ele><time>2026-04-28T12:09:00.032Z</time></trkpt><trkpt lat="38.9835042" lon="22.3790451"><ele>748.0</ele><time>2026-04-28T12:09:01.033Z</time></trkpt><trkpt lat="38.9833102" lon="22.3790239"><ele>740.3333333333334</ele><time>2026-04-28T12:09:02.033Z</time></trkpt><trkpt lat="38.9831116" lon="22.3790496"><ele>732.6666666666666</ele><time>2026-04-28T12:09:03.033Z</time></trkpt><trkpt lat="38.9829156" lon="22.3791181"><ele>725.0</ele><time>2026-04-28T12:09:04.031Z</time></trkpt><trkpt lat="38.9827345" lon="22.3792301"><ele>725.0</ele><time>2026-04-28T12:09:05.032Z</time></trkpt><trkpt lat="38.9825614" lon="22.3793565"><ele>725.0</ele><time>2026-04-28T12:09:06.032Z</time></trkpt><trkpt lat="38.9824141" lon="22.3795296"><ele>725.0</ele><time>2026-04-28T12:09:07.032Z</time></trkpt><trkpt lat="38.982269" lon="22.3797095"><ele>722.0</ele><time>2026-04-28T12:09:08.031Z</time></trkpt><trkpt lat="38.9821146" lon="22.3798688"><ele>719.0</ele><time>2026-04-28T12:09:09.032Z</time></trkpt><trkpt lat="38.9819425" lon="22.3800006"><ele>716.0</ele><time>2026-04-28T12:09:10.033Z</time></trkpt><trkpt lat="38.9817541" lon="22.380106"><ele>720.0</ele><time>2026-04-28T12:09:11.032Z</time></trkpt><trkpt lat="38.9815589" lon="22.380184"><ele>724.0</ele><time>2026-04-28T12:09:12.032Z</time></trkpt><trkpt lat="38.981367" lon="22.3802442"><ele>728.0</ele><time>2026-04-28T12:09:13.031Z</time></trkpt><trkpt lat="38.9811778" lon="22.3802911"><ele>728.0</ele><time>2026-04-28T12:09:14.032Z</time></trkpt><trkpt lat="38.980993" lon="22.380311"><ele>728.0</ele><time>2026-04-28T12:09:15.033Z</time></trkpt><trkpt lat="38.9808093" lon="22.3802931"><ele>728.0</ele><time>2026-04-28T12:09:16.033Z</time></trkpt><trkpt lat="38.9806292" lon="22.380224"><ele>725.6666666666666</ele><time>2026-04-28T12:09:17.033Z</time></trkpt><trkpt lat="38.9804633" lon="22.3801101"><ele>723.3333333333334</ele><time>2026-04-28T12:09:18.033Z</time></trkpt><trkpt lat="38.9803037" lon="22.3799622"><ele>721.0</ele><time>2026-04-28T12:09:19.032Z</time></trkpt><trkpt lat="38.9801439" lon="22.3798013"><ele>718.3333333333334</ele><time>2026-04-28T12:09:20.032Z</time></trkpt><trkpt lat="38.9799771" lon="22.379653"><ele>715.6666666666666</ele><time>2026-04-28T12:09:21.032Z</time></trkpt><trkpt lat="38.9798041" lon="22.3795381"><ele>713.0</ele><time>2026-04-28T12:09:22.032Z</time></trkpt><trkpt lat="38.9796155" lon="22.3794662"><ele>713.0</ele><time>2026-04-28T12:09:23.033Z</time></trkpt><trkpt lat="38.9794144" lon="22.3794462"><ele>713.0</ele><time>2026-04-28T12:09:24.032Z</time></trkpt><trkpt lat="38.9792074" lon="22.3794646"><ele>713.0</ele><time>2026-04-28T12:09:25.033Z</time></trkpt><trkpt lat="38.978991" lon="22.37951"><ele>714.3333333333333</ele><time>2026-04-28T12:09:26.032Z</time></trkpt><trkpt lat="38.9787709" lon="22.3795748"><ele>715.6666666666666</ele><time>2026-04-28T12:09:27.033Z</time></trkpt><trkpt lat="38.9785617" lon="22.3796397"><ele>717.0</ele><time>2026-04-28T12:09:28.032Z</time></trkpt><trkpt lat="38.9783602" lon="22.3797019"><ele>711.0</ele><time>2026-04-28T12:09:29.032Z</time></trkpt><trkpt lat="38.9781734" lon="22.3797769"><ele>705.0</ele><time>2026-04-28T12:09:30.032Z</time></trkpt><trkpt lat="38.9780034" lon="22.3798898"><ele>699.0</ele><time>2026-04-28T12:09:31.033Z</time></trkpt><trkpt lat="38.9778458" lon="22.3800532"><ele>699.0</ele><time>2026-04-28T12:09:32.033Z</time></trkpt><trkpt lat="38.9777144" lon="22.3802612"><ele>699.0</ele><time>2026-04-28T12:09:33.031Z</time></trkpt><trkpt lat="38.9776137" lon="22.3804976"><ele>699.0</ele><time>2026-04-28T12:09:34.03Z</time></trkpt><trkpt lat="38.9775306" lon="22.3807457"><ele>698.3333333333334</ele><time>2026-04-28T12:09:35.031Z</time></trkpt><trkpt lat="38.9774513" lon="22.3809964"><ele>697.6666666666667</ele><time>2026-04-28T12:09:36.032Z</time></trkpt><trkpt lat="38.9773445" lon="22.3812206"><ele>697.0</ele><time>2026-04-28T12:09:37.032Z</time></trkpt><trkpt lat="38.9772119" lon="22.3814309"><ele>692.3333333333334</ele><time>2026-04-28T12:09:38.032Z</time></trkpt><trkpt lat="38.9770881" lon="22.3816311"><ele>687.6666666666666</ele><time>2026-04-28T12:09:39.032Z</time></trkpt><trkpt lat="38.9769317" lon="22.38183"><ele>683.0</ele><time>2026-04-28T12:09:40.031Z</time></trkpt><trkpt lat="38.976695" lon="22.3818546"><ele>686.3333333333333</ele><time>2026-04-28T12:09:41.031Z</time></trkpt><trkpt lat="38.9764962" lon="22.3819367"><ele>689.6666666666666</ele><time>2026-04-28T12:09:42.032Z</time></trkpt><trkpt lat="38.9762891" lon="22.3819796"><ele>693.0</ele><time>2026-04-28T12:09:43.031Z</time></trkpt><trkpt lat="38.9760897" lon="22.3820036"><ele>693.0</ele><time>2026-04-28T12:09:44.03Z</time></trkpt><trkpt lat="38.9758678" lon="22.3819234"><ele>693.0</ele><time>2026-04-28T12:09:45.03Z</time></trkpt><trkpt lat="38.9756499" lon="22.381819"><ele>694.0</ele><time>2026-04-28T12:09:46.031Z</time></trkpt><trkpt lat="38.9754366" lon="22.3817108"><ele>695.0</ele><time>2026-04-28T12:09:47.03Z</time></trkpt><trkpt lat="38.9752374" lon="22.3816042"><ele>696.0</ele><time>2026-04-28T12:09:48.032Z</time></trkpt><trkpt lat="38.975043" lon="22.3815116"><ele>692.6666666666666</ele><time>2026-04-28T12:09:49.031Z</time></trkpt><trkpt lat="38.9748632" lon="22.3814399"><ele>689.3333333333333</ele><time>2026-04-28T12:09:50.031Z</time></trkpt><trkpt lat="38.9746913" lon="22.3814106"><ele>686.0</ele><time>2026-04-28T12:09:51.031Z</time></trkpt><trkpt lat="38.9745241" lon="22.3814268"><ele>686.0</ele><time>2026-04-28T12:09:52.031Z</time></trkpt><trkpt lat="38.9743703" lon="22.381487"><ele>686.0</ele><time>2026-04-28T12:09:53.03Z</time></trkpt><trkpt lat="38.9742317" lon="22.381603"><ele>686.0</ele><time>2026-04-28T12:09:54.031Z</time></trkpt><trkpt lat="38.9741241" lon="22.3817676"><ele>684.6666666666666</ele><time>2026-04-28T12:09:55.031Z</time></trkpt><trkpt lat="38.9740484" lon="22.3819719"><ele>683.3333333333334</ele><time>2026-04-28T12:09:56.03Z</time></trkpt><trkpt lat="38.9740089" lon="22.382206"><ele>682.0</ele><time>2026-04-28T12:09:57.031Z</time></trkpt><trkpt lat="38.9739922" lon="22.3824588"><ele>679.3333333333334</ele><time>2026-04-28T12:09:58.031Z</time></trkpt><trkpt lat="38.9739887" lon="22.382717"><ele>676.6666666666666</ele><time>2026-04-28T12:09:59.031Z</time></trkpt><trkpt lat="38.9739736" lon="22.3829791"><ele>674.0</ele><time>2026-04-28T12:10:00.03Z</time></trkpt><trkpt lat="38.9739348" lon="22.3832249"><ele>673.0</ele><time>2026-04-28T12:10:01.031Z</time></trkpt><trkpt lat="38.9738923" lon="22.3834632"><ele>672.0</ele><time>2026-04-28T12:10:02.031Z</time></trkpt><trkpt lat="38.9737728" lon="22.3836859"><ele>671.0</ele><time>2026-04-28T12:10:03.032Z</time></trkpt><trkpt lat="38.9736631" lon="22.3838965"><ele>670.0</ele><time>2026-04-28T12:10:04.03Z</time></trkpt><trkpt lat="38.9735382" lon="22.3841028"><ele>669.0</ele><time>2026-04-28T12:10:05.032Z</time></trkpt><trkpt lat="38.973393" lon="22.3843134"><ele>668.0</ele><time>2026-04-28T12:10:06.032Z</time></trkpt><trkpt lat="38.9732053" lon="22.3844517"><ele>666.5</ele><time>2026-04-28T12:10:07.031Z</time></trkpt><trkpt lat="38.9730028" lon="22.3845512"><ele>665.0</ele><time>2026-04-28T12:10:08.032Z</time></trkpt><trkpt lat="38.972755" lon="22.384499"><ele>665.0</ele><time>2026-04-28T12:10:09.03Z</time></trkpt><trkpt lat="38.9725331" lon="22.3845084"><ele>665.0</ele><time>2026-04-28T12:10:10.031Z</time></trkpt><trkpt lat="38.9723093" lon="22.3844716"><ele>665.0</ele><time>2026-04-28T12:10:11.031Z</time></trkpt><trkpt lat="38.9720935" lon="22.3844092"><ele>662.0</ele><time>2026-04-28T12:10:12.031Z</time></trkpt><trkpt lat="38.9718766" lon="22.3843371"><ele>659.0</ele><time>2026-04-28T12:10:13.031Z</time></trkpt><trkpt lat="38.9716607" lon="22.3842822"><ele>656.0</ele><time>2026-04-28T12:10:14.031Z</time></trkpt><trkpt lat="38.9714444" lon="22.3842515"><ele>654.6666666666666</ele><time>2026-04-28T12:10:15.03Z</time></trkpt><trkpt lat="38.9712279" lon="22.3842589"><ele>653.3333333333334</ele><time>2026-04-28T12:10:16.032Z</time></trkpt><trkpt lat="38.971015" lon="22.3843085"><ele>652.0</ele><time>2026-04-28T12:10:17.032Z</time></trkpt><trkpt lat="38.970809" lon="22.3843941"><ele>650.3333333333334</ele><time>2026-04-28T12:10:18.032Z</time></trkpt><trkpt lat="38.9706179" lon="22.384522"><ele>648.6666666666666</ele><time>2026-04-28T12:10:19.031Z</time></trkpt><trkpt lat="38.9704407" lon="22.384678"><ele>647.0</ele><time>2026-04-28T12:10:20.032Z</time></trkpt><trkpt lat="38.9702901" lon="22.3848719"><ele>646.3333333333333</ele><time>2026-04-28T12:10:21.032Z</time></trkpt><trkpt lat="38.9701679" lon="22.3850929"><ele>645.6666666666666</ele><time>2026-04-28T12:10:22.031Z</time></trkpt><trkpt lat="38.9700705" lon="22.3853374"><ele>645.0</ele><time>2026-04-28T12:10:23.031Z</time></trkpt><trkpt lat="38.9699927" lon="22.385593"><ele>643.3333333333334</ele><time>2026-04-28T12:10:24.031Z</time></trkpt><trkpt lat="38.9699218" lon="22.3858515"><ele>641.6666666666667</ele><time>2026-04-28T12:10:25.031Z</time></trkpt><trkpt lat="38.9698409" lon="22.3861054"><ele>640.0</ele><time>2026-04-28T12:10:26.032Z</time></trkpt><trkpt lat="38.9697363" lon="22.3863353"><ele>637.6666666666667</ele><time>2026-04-28T12:10:27.03Z</time></trkpt><trkpt lat="38.9696028" lon="22.386539"><ele>635.3333333333334</ele><time>2026-04-28T12:10:28.031Z</time></trkpt><trkpt lat="38.9694446" lon="22.3867074"><ele>633.0</ele><time>2026-04-28T12:10:29.032Z</time></trkpt><trkpt lat="38.9692664" lon="22.3868368"><ele>633.3333333333334</ele><time>2026-04-28T12:10:30.032Z</time></trkpt><trkpt lat="38.9690713" lon="22.386918"><ele>633.6666666666667</ele><time>2026-04-28T12:10:31.032Z</time></trkpt><trkpt lat="38.9688699" lon="22.3869635"><ele>634.0</ele><time>2026-04-28T12:10:32.031Z</time></trkpt><trkpt lat="38.9686642" lon="22.3869924"><ele>634.0</ele><time>2026-04-28T12:10:33.032Z</time></trkpt><trkpt lat="38.9684466" lon="22.3869738"><ele>634.0</ele><time>2026-04-28T12:10:34.032Z</time></trkpt><trkpt lat="38.9682604" lon="22.3868321"><ele>634.0</ele><time>2026-04-28T12:10:35.032Z</time></trkpt><trkpt lat="38.9680583" lon="22.3867467"><ele>632.3333333333334</ele><time>2026-04-28T12:10:36.031Z</time></trkpt><trkpt lat="38.967861" lon="22.3867066"><ele>630.6666666666666</ele><time>2026-04-28T12:10:37.032Z</time></trkpt><trkpt lat="38.9676691" lon="22.3867061"><ele>629.0</ele><time>2026-04-28T12:10:38.032Z</time></trkpt><trkpt lat="38.9674792" lon="22.3867493"><ele>626.0</ele><time>2026-04-28T12:10:39.032Z</time></trkpt><trkpt lat="38.967287" lon="22.3868347"><ele>623.0</ele><time>2026-04-28T12:10:40.031Z</time></trkpt><trkpt lat="38.9671006" lon="22.3869715"><ele>620.0</ele><time>2026-04-28T12:10:41.03Z</time></trkpt><trkpt lat="38.9669214" lon="22.3871408"><ele>617.5</ele><time>2026-04-28T12:10:42.031Z</time></trkpt><trkpt lat="38.9667539" lon="22.3873411"><ele>615.0</ele><time>2026-04-28T12:10:43.032Z</time></trkpt><trkpt lat="38.9665853" lon="22.3875385"><ele>615.0</ele><time>2026-04-28T12:10:44.031Z</time></trkpt><trkpt lat="38.9664088" lon="22.3877154"><ele>615.0</ele><time>2026-04-28T12:10:45.03Z</time></trkpt><trkpt lat="38.9662162" lon="22.3878509"><ele>615.0</ele><time>2026-04-28T12:10:46.031Z</time></trkpt><trkpt lat="38.9660046" lon="22.387956"><ele>616.5</ele><time>2026-04-28T12:10:47.03Z</time></trkpt><trkpt lat="38.9657949" lon="22.3880502"><ele>618.0</ele><time>2026-04-28T12:10:48.032Z</time></trkpt><trkpt lat="38.9655723" lon="22.3881127"><ele>618.0</ele><time>2026-04-28T12:10:49.032Z</time></trkpt><trkpt lat="38.9653451" lon="22.3881879"><ele>618.0</ele><time>2026-04-28T12:10:50.032Z</time></trkpt><trkpt lat="38.965114" lon="22.3882562"><ele>614.5</ele><time>2026-04-28T12:10:51.031Z</time></trkpt><trkpt lat="38.9648836" lon="22.388325"><ele>611.0</ele><time>2026-04-28T12:10:52.031Z</time></trkpt><trkpt lat="38.9646519" lon="22.3883963"><ele>611.0</ele><time>2026-04-28T12:10:53.031Z</time></trkpt><trkpt lat="38.9644212" lon="22.3884576"><ele>611.0</ele><time>2026-04-28T12:10:54.031Z</time></trkpt><trkpt lat="38.9641894" lon="22.388497"><ele>606.5</ele><time>2026-04-28T12:10:55.031Z</time></trkpt><trkpt lat="38.9639635" lon="22.3885019"><ele>602.0</ele><time>2026-04-28T12:10:56.032Z</time></trkpt><trkpt lat="38.9637405" lon="22.3884722"><ele>602.0</ele><time>2026-04-28T12:10:57.031Z</time></trkpt><trkpt lat="38.9635143" lon="22.3884155"><ele>602.0</ele><time>2026-04-28T12:10:58.031Z</time></trkpt><trkpt lat="38.963299" lon="22.3883549"><ele>601.3333333333333</ele><time>2026-04-28T12:10:59.032Z</time></trkpt><trkpt lat="38.9630965" lon="22.388311"><ele>600.6666666666666</ele><time>2026-04-28T12:11:00.031Z</time></trkpt><trkpt lat="38.9628985" lon="22.3882977"><ele>600.0</ele><time>2026-04-28T12:11:01.03Z</time></trkpt><trkpt lat="38.9627106" lon="22.3883196"><ele>598.6666666666666</ele><time>2026-04-28T12:11:02.03Z</time></trkpt><trkpt lat="38.9625255" lon="22.3883919"><ele>597.3333333333333</ele><time>2026-04-28T12:11:03.031Z</time></trkpt><trkpt lat="38.9623374" lon="22.3885163"><ele>596.0</ele><time>2026-04-28T12:11:04.032Z</time></trkpt><trkpt lat="38.9621504" lon="22.3886759"><ele>602.5</ele><time>2026-04-28T12:11:05.03Z</time></trkpt><trkpt lat="38.9619766" lon="22.3888595"><ele>609.0</ele><time>2026-04-28T12:11:06.031Z</time></trkpt><trkpt lat="38.9617991" lon="22.3890399"><ele>599.0</ele><time>2026-04-28T12:11:07.031Z</time></trkpt><trkpt lat="38.9616114" lon="22.3891989"><ele>589.0</ele><time>2026-04-28T12:11:08.031Z</time></trkpt><trkpt lat="38.9614052" lon="22.3893182"><ele>589.0</ele><time>2026-04-28T12:11:09.03Z</time></trkpt><trkpt lat="38.9611939" lon="22.3894194"><ele>589.0</ele><time>2026-04-28T12:11:10.032Z</time></trkpt><trkpt lat="38.9609672" lon="22.3894813"><ele>583.0</ele><time>2026-04-28T12:11:11.031Z</time></trkpt><trkpt lat="38.9607426" lon="22.3895528"><ele>577.0</ele><time>2026-04-28T12:11:12.03Z</time></trkpt><trkpt lat="38.9605199" lon="22.389624"><ele>577.0</ele><time>2026-04-28T12:11:13.031Z</time></trkpt><trkpt lat="38.9603062" lon="22.389693"><ele>577.0</ele><time>2026-04-28T12:11:14.031Z</time></trkpt><trkpt lat="38.9601021" lon="22.389758"><ele>577.0</ele><time>2026-04-28T12:11:15.031Z</time></trkpt><trkpt lat="38.9599077" lon="22.3898224"><ele>577.0</ele><time>2026-04-28T12:11:16.03Z</time></trkpt><trkpt lat="38.95972" lon="22.3898991"><ele>577.0</ele><time>2026-04-28T12:11:17.031Z</time></trkpt><trkpt lat="38.959545" lon="22.3900027"><ele>577.0</ele><time>2026-04-28T12:11:18.031Z</time></trkpt><trkpt lat="38.9593858" lon="22.390146"><ele>577.0</ele><time>2026-04-28T12:11:19.031Z</time></trkpt><trkpt lat="38.9592429" lon="22.3903243"><ele>577.0</ele><time>2026-04-28T12:11:20.031Z</time></trkpt><trkpt lat="38.9591153" lon="22.3905367"><ele>577.0</ele><time>2026-04-28T12:11:21.031Z</time></trkpt><trkpt lat="38.9590066" lon="22.3907831"><ele>572.5</ele><time>2026-04-28T12:11:22.03Z</time></trkpt><trkpt lat="38.9589094" lon="22.3910529"><ele>568.0</ele><time>2026-04-28T12:11:23.03Z</time></trkpt><trkpt lat="38.9588167" lon="22.3913274"><ele>563.0</ele><time>2026-04-28T12:11:24.031Z</time></trkpt><trkpt lat="38.9587229" lon="22.3916007"><ele>558.0</ele><time>2026-04-28T12:11:25.032Z</time></trkpt><trkpt lat="38.9586303" lon="22.3918624"><ele>558.0</ele><time>2026-04-28T12:11:26.031Z</time></trkpt><trkpt lat="38.9585417" lon="22.3921229"><ele>558.0</ele><time>2026-04-28T12:11:27.031Z</time></trkpt><trkpt lat="38.9584521" lon="22.3923667"><ele>558.0</ele><time>2026-04-28T12:11:28.032Z</time></trkpt><trkpt lat="38.9583524" lon="22.3925939"><ele>558.6666666666666</ele><time>2026-04-28T12:11:29.032Z</time></trkpt><trkpt lat="38.9582288" lon="22.3927876"><ele>559.3333333333333</ele><time>2026-04-28T12:11:30.03Z</time></trkpt><trkpt lat="38.9580889" lon="22.3929534"><ele>560.0</ele><time>2026-04-28T12:11:31.032Z</time></trkpt><trkpt lat="38.9579249" lon="22.3930937"><ele>558.3333333333333</ele><time>2026-04-28T12:11:32.03Z</time></trkpt><trkpt lat="38.9577577" lon="22.3931875"><ele>556.6666666666666</ele><time>2026-04-28T12:11:33.031Z</time></trkpt><trkpt lat="38.9575885" lon="22.3932526"><ele>555.0</ele><time>2026-04-28T12:11:34.03Z</time></trkpt><trkpt lat="38.9574021" lon="22.3932307"><ele>555.0</ele><time>2026-04-28T12:11:35.031Z</time></trkpt><trkpt lat="38.9572103" lon="22.3931899"><ele>555.0</ele><time>2026-04-28T12:11:36.031Z</time></trkpt><trkpt lat="38.9570095" lon="22.3931205"><ele>555.0</ele><time>2026-04-28T12:11:37.03Z</time></trkpt><trkpt lat="38.9568066" lon="22.393036"><ele>556.3333333333334</ele><time>2026-04-28T12:11:38.03Z</time></trkpt><trkpt lat="38.9566163" lon="22.3929303"><ele>557.6666666666667</ele><time>2026-04-28T12:11:39.031Z</time></trkpt><trkpt lat="38.9564453" lon="22.3928109"><ele>559.0</ele><time>2026-04-28T12:11:40.03Z</time></trkpt><trkpt lat="38.9562916" lon="22.3926685"><ele>559.0</ele><time>2026-04-28T12:11:41.03Z</time></trkpt><trkpt lat="38.9561749" lon="22.3925259"><ele>559.0</ele><time>2026-04-28T12:11:42.03Z</time></trkpt><trkpt lat="38.9560986" lon="22.3923668"><ele>559.0</ele><time>2026-04-28T12:11:43.03Z</time></trkpt><trkpt lat="38.9560558" lon="22.3921864"><ele>561.0</ele><time>2026-04-28T12:11:44.031Z</time></trkpt><trkpt lat="38.9560382" lon="22.3919795"><ele>563.0</ele><time>2026-04-28T12:11:45.031Z</time></trkpt><trkpt lat="38.9560494" lon="22.3917448"><ele>565.0</ele><time>2026-04-28T12:11:46.031Z</time></trkpt><trkpt lat="38.9560796" lon="22.3915094"><ele>564.0</ele><time>2026-04-28T12:11:47.031Z</time></trkpt><trkpt lat="38.9561371" lon="22.3912553"><ele>563.0</ele><time>2026-04-28T12:11:48.03Z</time></trkpt><trkpt lat="38.9562126" lon="22.3910049"><ele>562.0</ele><time>2026-04-28T12:11:49.031Z</time></trkpt><trkpt lat="38.9563168" lon="22.3907722"><ele>562.0</ele><time>2026-04-28T12:11:50.032Z</time></trkpt><trkpt lat="38.9564435" lon="22.3905575"><ele>562.0</ele><time>2026-04-28T12:11:51.032Z</time></trkpt><trkpt lat="38.9565919" lon="22.3903572"><ele>562.0</ele><time>2026-04-28T12:11:52.031Z</time></trkpt><trkpt lat="38.9567422" lon="22.390173"><ele>562.6666666666667</ele><time>2026-04-28T12:11:53.032Z</time></trkpt><trkpt lat="38.956881" lon="22.3899907"><ele>563.3333333333334</ele><time>2026-04-28T12:11:54.032Z</time></trkpt><trkpt lat="38.9570086" lon="22.3898094"><ele>564.0</ele><time>2026-04-28T12:11:55.03Z</time></trkpt><trkpt lat="38.9571104" lon="22.3896178"><ele>559.0</ele><time>2026-04-28T12:11:56.031Z</time></trkpt><trkpt lat="38.9571831" lon="22.3894109"><ele>554.0</ele><time>2026-04-28T12:11:57.032Z</time></trkpt><trkpt lat="38.9572165" lon="22.389194"><ele>549.0</ele><time>2026-04-28T12:11:58.032Z</time></trkpt><trkpt lat="38.9572134" lon="22.3889683"><ele>547.6666666666666</ele><time>2026-04-28T12:11:59.031Z</time></trkpt><trkpt lat="38.9571852" lon="22.3887353"><ele>546.3333333333333</ele><time>2026-04-28T12:12:00.032Z</time></trkpt><trkpt lat="38.9571443" lon="22.3885099"><ele>545.0</ele><time>2026-04-28T12:12:01.031Z</time></trkpt><trkpt lat="38.9571077" lon="22.3882917"><ele>545.0</ele><time>2026-04-28T12:12:02.032Z</time></trkpt><trkpt lat="38.9571006" lon="22.3880798"><ele>545.0</ele><time>2026-04-28T12:12:03.032Z</time></trkpt><trkpt lat="38.9571337" lon="22.3878908"><ele>545.0</ele><time>2026-04-28T12:12:04.03Z</time></trkpt><trkpt lat="38.957159" lon="22.3877073"><ele>542.3333333333333</ele><time>2026-04-28T12:12:05.031Z</time></trkpt><trkpt lat="38.9571878" lon="22.3875652"><ele>539.6666666666666</ele><time>2026-04-28T12:12:06.031Z</time></trkpt><trkpt lat="38.9574383" lon="22.3875642"><ele>537.0</ele><time>2026-04-28T12:12:07.032Z</time></trkpt><trkpt lat="38.9575826" lon="22.3875216"><ele>537.0</ele><time>2026-04-28T12:12:08.032Z</time></trkpt><trkpt lat="38.9577517" lon="22.3875298"><ele>537.0</ele><time>2026-04-28T12:12:09.032Z</time></trkpt><trkpt lat="38.957918" lon="22.3875532"><ele>537.0</ele><time>2026-04-28T12:12:10.031Z</time></trkpt><trkpt lat="38.958085" lon="22.3875768"><ele>537.0</ele><time>2026-04-28T12:12:11.03Z</time></trkpt><trkpt lat="38.9582433" lon="22.3875845"><ele>537.0</ele><time>2026-04-28T12:12:12.031Z</time></trkpt><trkpt lat="38.9583934" lon="22.3875671"><ele>537.0</ele><time>2026-04-28T12:12:13.032Z</time></trkpt><trkpt lat="38.9585375" lon="22.3875226"><ele>538.0</ele><time>2026-04-28T12:12:14.031Z</time></trkpt><trkpt lat="38.958661" lon="22.3874039"><ele>539.0</ele><time>2026-04-28T12:12:15.032Z</time></trkpt><trkpt lat="38.9587593" lon="22.387258"><ele>540.0</ele><time>2026-04-28T12:12:16.031Z</time></trkpt><trkpt lat="38.9588281" lon="22.3870838"><ele>536.5</ele><time>2026-04-28T12:12:17.031Z</time></trkpt><trkpt lat="38.9588641" lon="22.386899"><ele>533.0</ele><time>2026-04-28T12:12:18.03Z</time></trkpt><trkpt lat="38.9588636" lon="22.3867141"><ele>529.5</ele><time>2026-04-28T12:12:19.031Z</time></trkpt><trkpt lat="38.9588238" lon="22.3865438"><ele>526.0</ele><time>2026-04-28T12:12:20.031Z</time></trkpt><trkpt lat="38.9587569" lon="22.3863968"><ele>521.75</ele><time>2026-04-28T12:12:21.031Z</time></trkpt><trkpt lat="38.9586579" lon="22.3862732"><ele>517.5</ele><time>2026-04-28T12:12:22.031Z</time></trkpt><trkpt lat="38.9585484" lon="22.386178"><ele>513.25</ele><time>2026-04-28T12:12:23.03Z</time></trkpt><trkpt lat="38.9584251" lon="22.3861175"><ele>509.0</ele><time>2026-04-28T12:12:24.032Z</time></trkpt><trkpt lat="38.9582898" lon="22.386096"><ele>509.0</ele><time>2026-04-28T12:12:25.032Z</time></trkpt><trkpt lat="38.9581445" lon="22.3861123"><ele>509.0</ele><time>2026-04-28T12:12:26.032Z</time></trkpt><trkpt lat="38.9579995" lon="22.3861702"><ele>509.0</ele><time>2026-04-28T12:12:27.031Z</time></trkpt><trkpt lat="38.957866" lon="22.3862567"><ele>509.0</ele><time>2026-04-28T12:12:28.031Z</time></trkpt><trkpt lat="38.9577435" lon="22.3863548"><ele>511.0</ele><time>2026-04-28T12:12:29.031Z</time></trkpt><trkpt lat="38.957633" lon="22.3864485"><ele>513.0</ele><time>2026-04-28T12:12:30.031Z</time></trkpt><trkpt lat="38.9575286" lon="22.3865193"><ele>515.0</ele><time>2026-04-28T12:12:31.032Z</time></trkpt><trkpt lat="38.9574253" lon="22.3865715"><ele>517.0</ele><time>2026-04-28T12:12:32.031Z</time></trkpt><trkpt lat="38.9573158" lon="22.3866072"><ele>517.0</ele><time>2026-04-28T12:12:33.03Z</time></trkpt><trkpt lat="38.9572054" lon="22.3866255"><ele>517.0</ele><time>2026-04-28T12:12:34.032Z</time></trkpt><trkpt lat="38.9570959" lon="22.3866254"><ele>517.0</ele><time>2026-04-28T12:12:35.031Z</time></trkpt><trkpt lat="38.9569773" lon="22.3866145"><ele>517.0</ele><time>2026-04-28T12:12:36.031Z</time></trkpt><trkpt lat="38.9568629" lon="22.3865906"><ele>517.0</ele><time>2026-04-28T12:12:37.031Z</time></trkpt><trkpt lat="38.9567565" lon="22.3865514"><ele>517.0</ele><time>2026-04-28T12:12:38.032Z</time></trkpt><trkpt lat="38.9566589" lon="22.3865065"><ele>517.0</ele><time>2026-04-28T12:12:39.03Z</time></trkpt><trkpt lat="38.9565654" lon="22.386466"><ele>517.0</ele><time>2026-04-28T12:12:40.031Z</time></trkpt><trkpt lat="38.9564728" lon="22.3864323"><ele>517.0</ele><time>2026-04-28T12:12:41.03Z</time></trkpt><trkpt lat="38.9563789" lon="22.3863949"><ele>516.4</ele><time>2026-04-28T12:12:42.03Z</time></trkpt><trkpt lat="38.9562838" lon="22.3863574"><ele>515.8000000000001</ele><time>2026-04-28T12:12:43.03Z</time></trkpt><trkpt lat="38.9561844" lon="22.3863251"><ele>515.2</ele><time>2026-04-28T12:12:44.032Z</time></trkpt><trkpt lat="38.9560828" lon="22.3863081"><ele>514.6</ele><time>2026-04-28T12:12:45.031Z</time></trkpt><trkpt lat="38.9559825" lon="22.3863038"><ele>514.0</ele><time>2026-04-28T12:12:46.031Z</time></trkpt><trkpt lat="38.9558878" lon="22.3863155"><ele>513.0</ele><time>2026-04-28T12:12:47.032Z</time></trkpt><trkpt lat="38.9557919" lon="22.3863394"><ele>512.0</ele><time>2026-04-28T12:12:48.032Z</time></trkpt><trkpt lat="38.9556973" lon="22.3863809"><ele>511.0</ele><time>2026-04-28T12:12:49.03Z</time></trkpt><trkpt lat="38.9556012" lon="22.3864421"><ele>510.0</ele><time>2026-04-28T12:12:50.032Z</time></trkpt><trkpt lat="38.9555091" lon="22.3865137"><ele>509.0</ele><time>2026-04-28T12:12:51.031Z</time></trkpt><trkpt lat="38.9554172" lon="22.3865988"><ele>509.0</ele><time>2026-04-28T12:12:52.031Z</time></trkpt><trkpt lat="38.9553306" lon="22.3866967"><ele>509.0</ele><time>2026-04-28T12:12:53.03Z</time></trkpt><trkpt lat="38.9552543" lon="22.3868131"><ele>509.0</ele><time>2026-04-28T12:12:54.031Z</time></trkpt><trkpt lat="38.9551947" lon="22.3869504"><ele>509.0</ele><time>2026-04-28T12:12:55.031Z</time></trkpt><trkpt lat="38.9551439" lon="22.3871004"><ele>511.25</ele><time>2026-04-28T12:12:56.031Z</time></trkpt><trkpt lat="38.9551086" lon="22.3872648"><ele>513.5</ele><time>2026-04-28T12:12:57.032Z</time></trkpt><trkpt lat="38.9550891" lon="22.3874344"><ele>515.75</ele><time>2026-04-28T12:12:58.032Z</time></trkpt><trkpt lat="38.9550934" lon="22.3876371"><ele>518.0</ele><time>2026-04-28T12:12:59.031Z</time></trkpt><trkpt lat="38.9551237" lon="22.3878802"><ele>516.5</ele><time>2026-04-28T12:13:00.031Z</time></trkpt><trkpt lat="38.9551642" lon="22.3881531"><ele>515.0</ele><time>2026-04-28T12:13:01.032Z</time></trkpt><trkpt lat="38.9552168" lon="22.3884473"><ele>515.0</ele><time>2026-04-28T12:13:02.03Z</time></trkpt><trkpt lat="38.9552568" lon="22.388721"><ele>515.0</ele><time>2026-04-28T12:13:03.031Z</time></trkpt><trkpt lat="38.9552716" lon="22.3889876"><ele>515.0</ele><time>2026-04-28T12:13:04.032Z</time></trkpt><trkpt lat="38.9552722" lon="22.3892338"><ele>514.0</ele><time>2026-04-28T12:13:05.032Z</time></trkpt><trkpt lat="38.9552545" lon="22.3894675"><ele>513.0</ele><time>2026-04-28T12:13:06.03Z</time></trkpt><trkpt lat="38.9552242" lon="22.3896888"><ele>512.0</ele><time>2026-04-28T12:13:07.032Z</time></trkpt><trkpt lat="38.9551771" lon="22.3899061"><ele>514.6666666666666</ele><time>2026-04-28T12:13:08.032Z</time></trkpt><trkpt lat="38.9551028" lon="22.3901199"><ele>517.3333333333334</ele><time>2026-04-28T12:13:09.03Z</time></trkpt><trkpt lat="38.9549995" lon="22.3903067"><ele>520.0</ele><time>2026-04-28T12:13:10.031Z</time></trkpt><trkpt lat="38.9548871" lon="22.3904727"><ele>514.3333333333334</ele><time>2026-04-28T12:13:11.03Z</time></trkpt><trkpt lat="38.9547241" lon="22.390594"><ele>508.66666666666663</ele><time>2026-04-28T12:13:12.031Z</time></trkpt><trkpt lat="38.9545561" lon="22.3907005"><ele>503.0</ele><time>2026-04-28T12:13:13.031Z</time></trkpt><trkpt lat="38.9543521" lon="22.3907891"><ele>493.5</ele><time>2026-04-28T12:13:14.031Z</time></trkpt><trkpt lat="38.9541375" lon="22.3908529"><ele>484.0</ele><time>2026-04-28T12:13:15.032Z</time></trkpt><trkpt lat="38.9538042" lon="22.3908814"><ele>484.0</ele><time>2026-04-28T12:13:16.032Z</time></trkpt><trkpt lat="38.9535234" lon="22.3909111"><ele>484.0</ele><time>2026-04-28T12:13:17.031Z</time></trkpt><trkpt lat="38.9532614" lon="22.3909336"><ele>479.0</ele><time>2026-04-28T12:13:18.032Z</time></trkpt><trkpt lat="38.9530101" lon="22.3909599"><ele>474.0</ele><time>2026-04-28T12:13:19.031Z</time></trkpt><trkpt lat="38.9527663" lon="22.3909872"><ele>471.0</ele><time>2026-04-28T12:13:20.031Z</time></trkpt><trkpt lat="38.9525299" lon="22.3910186"><ele>468.0</ele><time>2026-04-28T12:13:21.031Z</time></trkpt><trkpt lat="38.9523017" lon="22.3910546"><ele>468.0</ele><time>2026-04-28T12:13:22.031Z</time></trkpt><trkpt lat="38.952075" lon="22.3911029"><ele>468.0</ele><time>2026-04-28T12:13:23.031Z</time></trkpt><trkpt lat="38.9518486" lon="22.3911708"><ele>464.5</ele><time>2026-04-28T12:13:24.03Z</time></trkpt><trkpt lat="38.9516285" lon="22.3912632"><ele>461.0</ele><time>2026-04-28T12:13:25.03Z</time></trkpt><trkpt lat="38.9514191" lon="22.3913751"><ele>463.0</ele><time>2026-04-28T12:13:26.03Z</time></trkpt><trkpt lat="38.9512182" lon="22.3915073"><ele>465.0</ele><time>2026-04-28T12:13:27.03Z</time></trkpt><trkpt lat="38.9510278" lon="22.3916579"><ele>467.0</ele><time>2026-04-28T12:13:28.031Z</time></trkpt><trkpt lat="38.9508511" lon="22.3918285"><ele>467.0</ele><time>2026-04-28T12:13:29.031Z</time></trkpt><trkpt lat="38.9506811" lon="22.3920178"><ele>467.0</ele><time>2026-04-28T12:13:30.03Z</time></trkpt><trkpt lat="38.9505185" lon="22.3922112"><ele>467.0</ele><time>2026-04-28T12:13:31.032Z</time></trkpt><trkpt lat="38.9503675" lon="22.3924001"><ele>470.3333333333333</ele><time>2026-04-28T12:13:32.031Z</time></trkpt><trkpt lat="38.9502243" lon="22.3925791"><ele>473.66666666666663</ele><time>2026-04-28T12:13:33.032Z</time></trkpt><trkpt lat="38.9500921" lon="22.3927485"><ele>477.0</ele><time>2026-04-28T12:13:34.032Z</time></trkpt><trkpt lat="38.9499798" lon="22.3929163"><ele>473.0</ele><time>2026-04-28T12:13:35.031Z</time></trkpt><trkpt lat="38.9498861" lon="22.3931083"><ele>469.0</ele><time>2026-04-28T12:13:36.031Z</time></trkpt><trkpt lat="38.9498232" lon="22.3933187"><ele>465.0</ele><time>2026-04-28T12:13:37.032Z</time></trkpt><trkpt lat="38.9497965" lon="22.3935449"><ele>465.0</ele><time>2026-04-28T12:13:38.031Z</time></trkpt><trkpt lat="38.9498076" lon="22.3937785"><ele>465.0</ele><time>2026-04-28T12:13:39.032Z</time></trkpt><trkpt lat="38.9498619" lon="22.3940143"><ele>465.0</ele><time>2026-04-28T12:13:40.032Z</time></trkpt><trkpt lat="38.9499403" lon="22.3942438"><ele>463.33333333333337</ele><time>2026-04-28T12:13:41.031Z</time></trkpt><trkpt lat="38.9500206" lon="22.3944592"><ele>461.6666666666667</ele><time>2026-04-28T12:13:42.03Z</time></trkpt><trkpt lat="38.9500874" lon="22.3946648"><ele>460.0</ele><time>2026-04-28T12:13:43.031Z</time></trkpt><trkpt lat="38.950125" lon="22.3948747"><ele>463.6666666666667</ele><time>2026-04-28T12:13:44.03Z</time></trkpt><trkpt lat="38.9501348" lon="22.3950915"><ele>467.33333333333337</ele><time>2026-04-28T12:13:45.03Z</time></trkpt><trkpt lat="38.9500983" lon="22.3952823"><ele>471.0</ele><time>2026-04-28T12:13:46.031Z</time></trkpt><trkpt lat="38.9499874" lon="22.3954493"><ele>465.0</ele><time>2026-04-28T12:13:47.031Z</time></trkpt><trkpt lat="38.9498615" lon="22.3956087"><ele>459.0</ele><time>2026-04-28T12:13:48.031Z</time></trkpt><trkpt lat="38.9497222" lon="22.3957691"><ele>453.0</ele><time>2026-04-28T12:13:49.031Z</time></trkpt><trkpt lat="38.949595" lon="22.3959538"><ele>453.0</ele><time>2026-04-28T12:13:50.032Z</time></trkpt><trkpt lat="38.9494934" lon="22.3961769"><ele>453.0</ele><time>2026-04-28T12:13:51.03Z</time></trkpt><trkpt lat="38.9494138" lon="22.3964207"><ele>453.0</ele><time>2026-04-28T12:13:52.03Z</time></trkpt><trkpt lat="38.9493466" lon="22.3966652"><ele>452.0</ele><time>2026-04-28T12:13:53.031Z</time></trkpt><trkpt lat="38.9492761" lon="22.3969071"><ele>451.0</ele><time>2026-04-28T12:13:54.031Z</time></trkpt><trkpt lat="38.9491868" lon="22.3971376"><ele>450.0</ele><time>2026-04-28T12:13:55.031Z</time></trkpt><trkpt lat="38.9490714" lon="22.3973467"><ele>450.0</ele><time>2026-04-28T12:13:56.032Z</time></trkpt><trkpt lat="38.9489243" lon="22.3975219"><ele>450.0</ele><time>2026-04-28T12:13:57.031Z</time></trkpt><trkpt lat="38.9487482" lon="22.3976543"><ele>450.0</ele><time>2026-04-28T12:13:58.032Z</time></trkpt><trkpt lat="38.9485533" lon="22.3977534"><ele>437.33333333333337</ele><time>2026-04-28T12:13:59.03Z</time></trkpt><trkpt lat="38.9483515" lon="22.3978322"><ele>424.6666666666667</ele><time>2026-04-28T12:14:00.032Z</time></trkpt><trkpt lat="38.948163" lon="22.3978994"><ele>412.0</ele><time>2026-04-28T12:14:01.03Z</time></trkpt><trkpt lat="38.9479824" lon="22.3979718"><ele>423.0</ele><time>2026-04-28T12:14:02.031Z</time></trkpt><trkpt lat="38.9478196" lon="22.3980642"><ele>434.0</ele><time>2026-04-28T12:14:03.031Z</time></trkpt><trkpt lat="38.9476737" lon="22.3981915"><ele>445.0</ele><time>2026-04-28T12:14:04.03Z</time></trkpt><trkpt lat="38.9475441" lon="22.3983555"><ele>440.0</ele><time>2026-04-28T12:14:05.031Z</time></trkpt><trkpt lat="38.9474407" lon="22.3985547"><ele>435.0</ele><time>2026-04-28T12:14:06.032Z</time></trkpt><trkpt lat="38.9473656" lon="22.3987721"><ele>430.0</ele><time>2026-04-28T12:14:07.031Z</time></trkpt><trkpt lat="38.9473242" lon="22.3990028"><ele>430.0</ele><time>2026-04-28T12:14:08.031Z</time></trkpt><trkpt lat="38.9473197" lon="22.399247"><ele>430.0</ele><time>2026-04-28T12:14:09.031Z</time></trkpt><trkpt lat="38.9473546" lon="22.3994946"><ele>430.0</ele><time>2026-04-28T12:14:10.03Z</time></trkpt><trkpt lat="38.9474165" lon="22.3997484"><ele>426.6666666666667</ele><time>2026-04-28T12:14:11.031Z</time></trkpt><trkpt lat="38.9474812" lon="22.4000162"><ele>423.33333333333337</ele><time>2026-04-28T12:14:12.032Z</time></trkpt><trkpt lat="38.9475404" lon="22.4002913"><ele>420.0</ele><time>2026-04-28T12:14:13.031Z</time></trkpt><trkpt lat="38.9475856" lon="22.4005689"><ele>430.5</ele><time>2026-04-28T12:14:14.031Z</time></trkpt><trkpt lat="38.9476086" lon="22.400853"><ele>441.0</ele><time>2026-04-28T12:14:15.031Z</time></trkpt><trkpt lat="38.9476107" lon="22.4011576"><ele>440.0</ele><time>2026-04-28T12:14:16.031Z</time></trkpt><trkpt lat="38.9475985" lon="22.4014583"><ele>439.0</ele><time>2026-04-28T12:14:17.032Z</time></trkpt><trkpt lat="38.9475764" lon="22.4017541"><ele>439.0</ele><time>2026-04-28T12:14:18.031Z</time></trkpt><trkpt lat="38.9475535" lon="22.4020526"><ele>439.0</ele><time>2026-04-28T12:14:19.03Z</time></trkpt><trkpt lat="38.9475271" lon="22.4023552"><ele>424.5</ele><time>2026-04-28T12:14:20.032Z</time></trkpt><trkpt lat="38.9475031" lon="22.4026502"><ele>410.0</ele><time>2026-04-28T12:14:21.032Z</time></trkpt><trkpt lat="38.947482" lon="22.4029309"><ele>409.66666666666663</ele><time>2026-04-28T12:14:22.031Z</time></trkpt><trkpt lat="38.9474601" lon="22.4032088"><ele>409.33333333333337</ele><time>2026-04-28T12:14:23.031Z</time></trkpt><trkpt lat="38.9474428" lon="22.4034825"><ele>409.0</ele><time>2026-04-28T12:14:24.031Z</time></trkpt><trkpt lat="38.9474222" lon="22.4037569"><ele>408.0</ele><time>2026-04-28T12:14:25.032Z</time></trkpt><trkpt lat="38.9474009" lon="22.4040288"><ele>407.0</ele><time>2026-04-28T12:14:26.031Z</time></trkpt><trkpt lat="38.9473574" lon="22.4042972"><ele>406.0</ele><time>2026-04-28T12:14:27.031Z</time></trkpt><trkpt lat="38.9472972" lon="22.4045568"><ele>404.0</ele><time>2026-04-28T12:14:28.03Z</time></trkpt><trkpt lat="38.9472232" lon="22.4048094"><ele>402.0</ele><time>2026-04-28T12:14:29.031Z</time></trkpt><trkpt lat="38.9471467" lon="22.4050488"><ele>400.0</ele><time>2026-04-28T12:14:30.031Z</time></trkpt><trkpt lat="38.9470821" lon="22.4052892"><ele>398.6666666666667</ele><time>2026-04-28T12:14:31.031Z</time></trkpt><trkpt lat="38.9470368" lon="22.4055383"><ele>397.33333333333337</ele><time>2026-04-28T12:14:32.032Z</time></trkpt><trkpt lat="38.9470154" lon="22.4057939"><ele>396.0</ele><time>2026-04-28T12:14:33.032Z</time></trkpt><trkpt lat="38.9470134" lon="22.406055"><ele>396.0</ele><time>2026-04-28T12:14:34.03Z</time></trkpt><trkpt lat="38.9470185" lon="22.4063045"><ele>396.0</ele><time>2026-04-28T12:14:35.03Z</time></trkpt><trkpt lat="38.9470385" lon="22.4065379"><ele>396.0</ele><time>2026-04-28T12:14:36.031Z</time></trkpt><trkpt lat="38.9470552" lon="22.4067653"><ele>393.66666666666663</ele><time>2026-04-28T12:14:37.031Z</time></trkpt><trkpt lat="38.9470641" lon="22.406987"><ele>391.3333333333333</ele><time>2026-04-28T12:14:38.032Z</time></trkpt><trkpt lat="38.9470498" lon="22.4071984"><ele>389.0</ele><time>2026-04-28T12:14:39.031Z</time></trkpt><trkpt lat="38.9470073" lon="22.407398"><ele>389.66666666666663</ele><time>2026-04-28T12:14:40.031Z</time></trkpt><trkpt lat="38.9469256" lon="22.4075715"><ele>390.33333333333337</ele><time>2026-04-28T12:14:41.03Z</time></trkpt><trkpt lat="38.9468128" lon="22.4077118"><ele>391.0</ele><time>2026-04-28T12:14:42.031Z</time></trkpt><trkpt lat="38.946681" lon="22.4078333"><ele>391.0</ele><time>2026-04-28T12:14:43.031Z</time></trkpt><trkpt lat="38.9465245" lon="22.4078715"><ele>391.0</ele><time>2026-04-28T12:14:44.031Z</time></trkpt><trkpt lat="38.9463663" lon="22.4078681"><ele>391.0</ele><time>2026-04-28T12:14:45.032Z</time></trkpt><trkpt lat="38.9462104" lon="22.4078076"><ele>391.0</ele><time>2026-04-28T12:14:46.032Z</time></trkpt><trkpt lat="38.9460711" lon="22.4076947"><ele>391.0</ele><time>2026-04-28T12:14:47.03Z</time></trkpt><trkpt lat="38.9459505" lon="22.4075373"><ele>391.0</ele><time>2026-04-28T12:14:48.032Z</time></trkpt><trkpt lat="38.9458606" lon="22.4073528"><ele>388.33333333333337</ele><time>2026-04-28T12:14:49.032Z</time></trkpt><trkpt lat="38.9457866" lon="22.4071623"><ele>385.6666666666667</ele><time>2026-04-28T12:14:50.032Z</time></trkpt><trkpt lat="38.9456995" lon="22.4069946"><ele>383.0</ele><time>2026-04-28T12:14:51.03Z</time></trkpt><trkpt lat="38.9455876" lon="22.4068599"><ele>383.0</ele><time>2026-04-28T12:14:52.03Z</time></trkpt><trkpt lat="38.9454523" lon="22.4067607"><ele>383.0</ele><time>2026-04-28T12:14:53.031Z</time></trkpt><trkpt lat="38.9452946" lon="22.406704"><ele>383.0</ele><time>2026-04-28T12:14:54.032Z</time></trkpt><trkpt lat="38.9451257" lon="22.4066975"><ele>381.6666666666667</ele><time>2026-04-28T12:14:55.031Z</time></trkpt><trkpt lat="38.9449559" lon="22.4067246"><ele>380.3333333333333</ele><time>2026-04-28T12:14:56.032Z</time></trkpt><trkpt lat="38.9447828" lon="22.4067746"><ele>379.0</ele><time>2026-04-28T12:14:57.031Z</time></trkpt><trkpt lat="38.9446027" lon="22.4068146"><ele>379.0</ele><time>2026-04-28T12:14:58.031Z</time></trkpt><trkpt lat="38.9444115" lon="22.4068167"><ele>379.0</ele><time>2026-04-28T12:14:59.032Z</time></trkpt><trkpt lat="38.9442103" lon="22.4067727"><ele>379.0</ele><time>2026-04-28T12:15:00.032Z</time></trkpt><trkpt lat="38.9440211" lon="22.4067058"><ele>376.3333333333333</ele><time>2026-04-28T12:15:01.03Z</time></trkpt><trkpt lat="38.9438356" lon="22.4066333"><ele>373.6666666666667</ele><time>2026-04-28T12:15:02.031Z</time></trkpt><trkpt lat="38.9436528" lon="22.4065651"><ele>371.0</ele><time>2026-04-28T12:15:03.031Z</time></trkpt><trkpt lat="38.9434739" lon="22.4064951"><ele>368.33333333333337</ele><time>2026-04-28T12:15:04.03Z</time></trkpt><trkpt lat="38.9432967" lon="22.4064087"><ele>365.6666666666667</ele><time>2026-04-28T12:15:05.03Z</time></trkpt><trkpt lat="38.9431281" lon="22.406299"><ele>363.0</ele><time>2026-04-28T12:15:06.031Z</time></trkpt><trkpt lat="38.9429736" lon="22.4061729"><ele>368.3333333333333</ele><time>2026-04-28T12:15:07.031Z</time></trkpt><trkpt lat="38.9428237" lon="22.4060197"><ele>373.66666666666663</ele><time>2026-04-28T12:15:08.032Z</time></trkpt><trkpt lat="38.9426828" lon="22.4058538"><ele>379.0</ele><time>2026-04-28T12:15:09.032Z</time></trkpt><trkpt lat="38.9425528" lon="22.4056869"><ele>373.0</ele><time>2026-04-28T12:15:10.031Z</time></trkpt><trkpt lat="38.9424271" lon="22.4055264"><ele>367.0</ele><time>2026-04-28T12:15:11.032Z</time></trkpt><trkpt lat="38.9422894" lon="22.4054008"><ele>361.0</ele><time>2026-04-28T12:15:12.031Z</time></trkpt><trkpt lat="38.9421385" lon="22.4053064"><ele>361.0</ele><time>2026-04-28T12:15:13.032Z</time></trkpt><trkpt lat="38.941975" lon="22.4052587"><ele>361.0</ele><time>2026-04-28T12:15:14.031Z</time></trkpt><trkpt lat="38.9418101" lon="22.4052437"><ele>361.0</ele><time>2026-04-28T12:15:15.031Z</time></trkpt><trkpt lat="38.9416478" lon="22.4052705"><ele>358.66666666666663</ele><time>2026-04-28T12:15:16.032Z</time></trkpt><trkpt lat="38.9414886" lon="22.4053383"><ele>356.3333333333333</ele><time>2026-04-28T12:15:17.032Z</time></trkpt><trkpt lat="38.941336" lon="22.4054589"><ele>354.0</ele><time>2026-04-28T12:15:18.032Z</time></trkpt><trkpt lat="38.9411837" lon="22.4056172"><ele>353.3333333333333</ele><time>2026-04-28T12:15:19.03Z</time></trkpt><trkpt lat="38.9410262" lon="22.4058061"><ele>352.66666666666663</ele><time>2026-04-28T12:15:20.03Z</time></trkpt><trkpt lat="38.9408676" lon="22.4060046"><ele>352.0</ele><time>2026-04-28T12:15:21.032Z</time></trkpt><trkpt lat="38.9407017" lon="22.4062066"><ele>348.0</ele><time>2026-04-28T12:15:22.032Z</time></trkpt><trkpt lat="38.9405274" lon="22.406419"><ele>344.0</ele><time>2026-04-28T12:15:23.032Z</time></trkpt><trkpt lat="38.9403558" lon="22.4066294"><ele>344.0</ele><time>2026-04-28T12:15:24.032Z</time></trkpt><trkpt lat="38.9401868" lon="22.4068386"><ele>344.0</ele><time>2026-04-28T12:15:25.032Z</time></trkpt><trkpt lat="38.9400188" lon="22.4070412"><ele>343.33333333333337</ele><time>2026-04-28T12:15:26.031Z</time></trkpt><trkpt lat="38.9398595" lon="22.407236"><ele>342.6666666666667</ele><time>2026-04-28T12:15:27.031Z</time></trkpt><trkpt lat="38.9397085" lon="22.4074236"><ele>342.0</ele><time>2026-04-28T12:15:28.031Z</time></trkpt><trkpt lat="38.9395675" lon="22.4076025"><ele>342.0</ele><time>2026-04-28T12:15:29.031Z</time></trkpt><trkpt lat="38.9394412" lon="22.4077742"><ele>342.0</ele><time>2026-04-28T12:15:30.031Z</time></trkpt><trkpt lat="38.9393373" lon="22.4079524"><ele>342.0</ele><time>2026-04-28T12:15:31.031Z</time></trkpt><trkpt lat="38.9392594" lon="22.4081355"><ele>340.0</ele><time>2026-04-28T12:15:32.03Z</time></trkpt><trkpt lat="38.9392085" lon="22.408336"><ele>338.0</ele><time>2026-04-28T12:15:33.031Z</time></trkpt><trkpt lat="38.9391823" lon="22.4085553"><ele>336.0</ele><time>2026-04-28T12:15:34.031Z</time></trkpt><trkpt lat="38.9391873" lon="22.4087825"><ele>339.3333333333333</ele><time>2026-04-28T12:15:35.032Z</time></trkpt><trkpt lat="38.9392281" lon="22.4090063"><ele>342.66666666666663</ele><time>2026-04-28T12:15:36.031Z</time></trkpt><trkpt lat="38.939304" lon="22.4092187"><ele>346.0</ele><time>2026-04-28T12:15:37.031Z</time></trkpt><trkpt lat="38.9394092" lon="22.4094181"><ele>346.0</ele><time>2026-04-28T12:15:38.032Z</time></trkpt><trkpt lat="38.9395344" lon="22.4096073"><ele>346.0</ele><time>2026-04-28T12:15:39.031Z</time></trkpt><trkpt lat="38.9396646" lon="22.4097949"><ele>346.0</ele><time>2026-04-28T12:15:40.031Z</time></trkpt><trkpt lat="38.9397901" lon="22.4099834"><ele>344.0</ele><time>2026-04-28T12:15:41.03Z</time></trkpt><trkpt lat="38.9398944" lon="22.4101704"><ele>342.0</ele><time>2026-04-28T12:15:42.03Z</time></trkpt><trkpt lat="38.9399838" lon="22.4103647"><ele>340.0</ele><time>2026-04-28T12:15:43.032Z</time></trkpt><trkpt lat="38.9400355" lon="22.4105656"><ele>337.66666666666663</ele><time>2026-04-28T12:15:44.031Z</time></trkpt><trkpt lat="38.9400345" lon="22.410782"><ele>335.3333333333333</ele><time>2026-04-28T12:15:45.031Z</time></trkpt><trkpt lat="38.9399927" lon="22.4109895"><ele>333.0</ele><time>2026-04-28T12:15:46.031Z</time></trkpt><trkpt lat="38.9399282" lon="22.4111862"><ele>333.3333333333333</ele><time>2026-04-28T12:15:47.031Z</time></trkpt><trkpt lat="38.9398243" lon="22.4113424"><ele>333.66666666666663</ele><time>2026-04-28T12:15:48.03Z</time></trkpt><trkpt lat="38.939649" lon="22.4114186"><ele>334.0</ele><time>2026-04-28T12:15:49.03Z</time></trkpt><trkpt lat="38.9394748" lon="22.4114768"><ele>334.0</ele><time>2026-04-28T12:15:50.031Z</time></trkpt><trkpt lat="38.9392819" lon="22.4115058"><ele>334.0</ele><time>2026-04-28T12:15:51.032Z</time></trkpt><trkpt lat="38.939059" lon="22.4115239"><ele>334.0</ele><time>2026-04-28T12:15:52.03Z</time></trkpt><trkpt lat="38.9388281" lon="22.4115505"><ele>333.5</ele><time>2026-04-28T12:15:53.03Z</time></trkpt><trkpt lat="38.9385807" lon="22.411582"><ele>333.0</ele><time>2026-04-28T12:15:54.03Z</time></trkpt><trkpt lat="38.9383399" lon="22.4116125"><ele>331.0</ele><time>2026-04-28T12:15:55.031Z</time></trkpt><trkpt lat="38.9381207" lon="22.4116397"><ele>329.0</ele><time>2026-04-28T12:15:56.031Z</time></trkpt><trkpt lat="38.9379087" lon="22.4116677"><ele>327.0</ele><time>2026-04-28T12:15:57.031Z</time></trkpt><trkpt lat="38.9377019" lon="22.4116943"><ele>322.6666666666667</ele><time>2026-04-28T12:15:58.032Z</time></trkpt><trkpt lat="38.9375056" lon="22.4117222"><ele>318.33333333333337</ele><time>2026-04-28T12:15:59.032Z</time></trkpt><trkpt lat="38.9373146" lon="22.4117511"><ele>314.0</ele><time>2026-04-28T12:16:00.03Z</time></trkpt><trkpt lat="38.9371226" lon="22.41179"><ele>314.0</ele><time>2026-04-28T12:16:01.031Z</time></trkpt><trkpt lat="38.9369336" lon="22.4118538"><ele>314.0</ele><time>2026-04-28T12:16:02.03Z</time></trkpt><trkpt lat="38.9367509" lon="22.411942"><ele>314.0</ele><time>2026-04-28T12:16:03.031Z</time></trkpt><trkpt lat="38.9365727" lon="22.4120519"><ele>311.6666666666667</ele><time>2026-04-28T12:16:04.03Z</time></trkpt><trkpt lat="38.9364061" lon="22.4121864"><ele>309.3333333333333</ele><time>2026-04-28T12:16:05.031Z</time></trkpt><trkpt lat="38.9362475" lon="22.4123435"><ele>307.0</ele><time>2026-04-28T12:16:06.031Z</time></trkpt><trkpt lat="38.9360963" lon="22.4125146"><ele>307.0</ele><time>2026-04-28T12:16:07.031Z</time></trkpt><trkpt lat="38.9359524" lon="22.4126931"><ele>307.0</ele><time>2026-04-28T12:16:08.031Z</time></trkpt><trkpt lat="38.9358168" lon="22.4128674"><ele>307.0</ele><time>2026-04-28T12:16:09.03Z</time></trkpt><trkpt lat="38.9356964" lon="22.4130174"><ele>305.5</ele><time>2026-04-28T12:16:10.031Z</time></trkpt><trkpt lat="38.9355867" lon="22.4131551"><ele>304.0</ele><time>2026-04-28T12:16:11.031Z</time></trkpt><trkpt lat="38.9354853" lon="22.4132748"><ele>302.5</ele><time>2026-04-28T12:16:12.031Z</time></trkpt><trkpt lat="38.935402" lon="22.4133791"><ele>301.0</ele><time>2026-04-28T12:16:13.032Z</time></trkpt><trkpt lat="38.9353214" lon="22.4134779"><ele>301.0</ele><time>2026-04-28T12:16:14.031Z</time></trkpt><trkpt lat="38.93524" lon="22.4135799"><ele>301.0</ele><time>2026-04-28T12:16:15.03Z</time></trkpt><trkpt lat="38.9351592" lon="22.4136814"><ele>301.0</ele><time>2026-04-28T12:16:16.032Z</time></trkpt><trkpt lat="38.9350753" lon="22.4137871"><ele>301.0</ele><time>2026-04-28T12:16:17.031Z</time></trkpt><trkpt lat="38.9349834" lon="22.4139004"><ele>300.5</ele><time>2026-04-28T12:16:18.031Z</time></trkpt><trkpt lat="38.9348816" lon="22.4140251"><ele>300.0</ele><time>2026-04-28T12:16:19.03Z</time></trkpt><trkpt lat="38.9347731" lon="22.414158"><ele>299.5</ele><time>2026-04-28T12:16:20.03Z</time></trkpt><trkpt lat="38.9346605" lon="22.4142944"><ele>299.0</ele><time>2026-04-28T12:16:21.03Z</time></trkpt><trkpt lat="38.9345467" lon="22.4144372"><ele>299.0</ele><time>2026-04-28T12:16:22.031Z</time></trkpt><trkpt lat="38.9344352" lon="22.4145763"><ele>299.0</ele><time>2026-04-28T12:16:23.031Z</time></trkpt><trkpt lat="38.9343281" lon="22.4147108"><ele>299.0</ele><time>2026-04-28T12:16:24.031Z</time></trkpt><trkpt lat="38.9342252" lon="22.4148376"><ele>299.0</ele><time>2026-04-28T12:16:25.03Z</time></trkpt><trkpt lat="38.9341246" lon="22.4149673"><ele>297.25</ele><time>2026-04-28T12:16:26.03Z</time></trkpt><trkpt lat="38.9340216" lon="22.4151025"><ele>295.5</ele><time>2026-04-28T12:16:27.031Z</time></trkpt><trkpt lat="38.933919" lon="22.4152352"><ele>293.75</ele><time>2026-04-28T12:16:28.031Z</time></trkpt><trkpt lat="38.9338118" lon="22.4153718"><ele>292.0</ele><time>2026-04-28T12:16:29.03Z</time></trkpt><trkpt lat="38.9336986" lon="22.4155035"><ele>290.3333333333333</ele><time>2026-04-28T12:16:30.031Z</time></trkpt><trkpt lat="38.9335741" lon="22.4156285"><ele>288.6666666666667</ele><time>2026-04-28T12:16:31.031Z</time></trkpt><trkpt lat="38.9334321" lon="22.4157471"><ele>287.0</ele><time>2026-04-28T12:16:32.03Z</time></trkpt><trkpt lat="38.9332718" lon="22.4158489"><ele>286.33333333333337</ele><time>2026-04-28T12:16:33.031Z</time></trkpt><trkpt lat="38.9331037" lon="22.415925"><ele>285.6666666666667</ele><time>2026-04-28T12:16:34.03Z</time></trkpt><trkpt lat="38.9329184" lon="22.4159599"><ele>285.0</ele><time>2026-04-28T12:16:35.029Z</time></trkpt><trkpt lat="38.9327107" lon="22.4159675"><ele>284.0</ele><time>2026-04-28T12:16:36.03Z</time></trkpt><trkpt lat="38.9325202" lon="22.4159428"><ele>283.0</ele><time>2026-04-28T12:16:37.029Z</time></trkpt><trkpt lat="38.932336" lon="22.4158933"><ele>282.0</ele><time>2026-04-28T12:16:38.029Z</time></trkpt><trkpt lat="38.9321572" lon="22.415821"><ele>282.0</ele><time>2026-04-28T12:16:39.03Z</time></trkpt><trkpt lat="38.9319933" lon="22.4157078"><ele>282.0</ele><time>2026-04-28T12:16:40.03Z</time></trkpt><trkpt lat="38.931829" lon="22.4155503"><ele>282.0</ele><time>2026-04-28T12:16:41.03Z</time></trkpt><trkpt lat="38.9316814" lon="22.4153672"><ele>281.6666666666667</ele><time>2026-04-28T12:16:42.029Z</time></trkpt><trkpt lat="38.9315565" lon="22.4151634"><ele>281.33333333333337</ele><time>2026-04-28T12:16:43.03Z</time></trkpt><trkpt lat="38.9314611" lon="22.4149337"><ele>281.0</ele><time>2026-04-28T12:16:44.031Z</time></trkpt><trkpt lat="38.9313851" lon="22.4146897"><ele>281.6666666666667</ele><time>2026-04-28T12:16:45.031Z</time></trkpt><trkpt lat="38.9313371" lon="22.4144422"><ele>282.3333333333333</ele><time>2026-04-28T12:16:46.031Z</time></trkpt><trkpt lat="38.9313244" lon="22.4141862"><ele>283.0</ele><time>2026-04-28T12:16:47.031Z</time></trkpt><trkpt lat="38.9313359" lon="22.4139295"><ele>281.0</ele><time>2026-04-28T12:16:48.03Z</time></trkpt><trkpt lat="38.9313767" lon="22.4136598"><ele>279.0</ele><time>2026-04-28T12:16:49.03Z</time></trkpt><trkpt lat="38.9314385" lon="22.4133802"><ele>277.0</ele><time>2026-04-28T12:16:50.031Z</time></trkpt><trkpt lat="38.9315056" lon="22.4130984"><ele>273.0</ele><time>2026-04-28T12:16:51.031Z</time></trkpt><trkpt lat="38.9315632" lon="22.4128076"><ele>269.0</ele><time>2026-04-28T12:16:52.03Z</time></trkpt><trkpt lat="38.9316235" lon="22.4125208"><ele>269.0</ele><time>2026-04-28T12:16:53.031Z</time></trkpt><trkpt lat="38.9316807" lon="22.4122437"><ele>269.0</ele><time>2026-04-28T12:16:54.031Z</time></trkpt><trkpt lat="38.931735" lon="22.4119853"><ele>269.0</ele><time>2026-04-28T12:16:55.031Z</time></trkpt><trkpt lat="38.931789" lon="22.4117388"><ele>269.0</ele><time>2026-04-28T12:16:56.03Z</time></trkpt><trkpt lat="38.9318452" lon="22.4115074"><ele>269.0</ele><time>2026-04-28T12:16:57.03Z</time></trkpt><trkpt lat="38.9319044" lon="22.4112917"><ele>269.0</ele><time>2026-04-28T12:16:58.029Z</time></trkpt><trkpt lat="38.931977" lon="22.4110929"><ele>269.0</ele><time>2026-04-28T12:16:59.031Z</time></trkpt><trkpt lat="38.9320758" lon="22.4108965"><ele>269.0</ele><time>2026-04-28T12:17:00.031Z</time></trkpt><trkpt lat="38.9321961" lon="22.4107071"><ele>269.0</ele><time>2026-04-28T12:17:01.031Z</time></trkpt><trkpt lat="38.9323392" lon="22.4105386"><ele>265.0</ele><time>2026-04-28T12:17:02.03Z</time></trkpt><trkpt lat="38.932499" lon="22.4103719"><ele>261.0</ele><time>2026-04-28T12:17:03.029Z</time></trkpt><trkpt lat="38.9326533" lon="22.4102165"><ele>257.0</ele><time>2026-04-28T12:17:04.03Z</time></trkpt><trkpt lat="38.9328001" lon="22.4100704"><ele>257.0</ele><time>2026-04-28T12:17:05.031Z</time></trkpt><trkpt lat="38.9329375" lon="22.4099281"><ele>257.0</ele><time>2026-04-28T12:17:06.03Z</time></trkpt><trkpt lat="38.933059" lon="22.4097873"><ele>257.0</ele><time>2026-04-28T12:17:07.031Z</time></trkpt><trkpt lat="38.9331558" lon="22.4096323"><ele>254.33333333333334</ele><time>2026-04-28T12:17:08.031Z</time></trkpt><trkpt lat="38.9332187" lon="22.4094543"><ele>251.66666666666669</ele><time>2026-04-28T12:17:09.031Z</time></trkpt><trkpt lat="38.9332455" lon="22.4092627"><ele>249.0</ele><time>2026-04-28T12:17:10.029Z</time></trkpt><trkpt lat="38.933231" lon="22.409071"><ele>249.0</ele><time>2026-04-28T12:17:11.029Z</time></trkpt><trkpt lat="38.9331809" lon="22.4088905"><ele>249.0</ele><time>2026-04-28T12:17:12.03Z</time></trkpt><trkpt lat="38.9330955" lon="22.4087321"><ele>249.0</ele><time>2026-04-28T12:17:13.029Z</time></trkpt><trkpt lat="38.932979" lon="22.4086056"><ele>246.66666666666669</ele><time>2026-04-28T12:17:14.03Z</time></trkpt><trkpt lat="38.93284" lon="22.4085202"><ele>244.33333333333334</ele><time>2026-04-28T12:17:15.029Z</time></trkpt><trkpt lat="38.9326865" lon="22.4084803"><ele>242.0</ele><time>2026-04-28T12:17:16.029Z</time></trkpt><trkpt lat="38.9325264" lon="22.4085021"><ele>242.0</ele><time>2026-04-28T12:17:17.03Z</time></trkpt><trkpt lat="38.9323665" lon="22.4085739"><ele>242.0</ele><time>2026-04-28T12:17:18.03Z</time></trkpt><trkpt lat="38.9322113" lon="22.4087035"><ele>242.0</ele><time>2026-04-28T12:17:19.031Z</time></trkpt><trkpt lat="38.9320563" lon="22.4088754"><ele>238.5</ele><time>2026-04-28T12:17:20.031Z</time></trkpt><trkpt lat="38.9318767" lon="22.4090837"><ele>235.0</ele><time>2026-04-28T12:17:21.03Z</time></trkpt><trkpt lat="38.9316926" lon="22.4092951"><ele>235.0</ele><time>2026-04-28T12:17:22.031Z</time></trkpt><trkpt lat="38.9315182" lon="22.4094874"><ele>235.0</ele><time>2026-04-28T12:17:23.03Z</time></trkpt><trkpt lat="38.9313518" lon="22.4096666"><ele>235.0</ele><time>2026-04-28T12:17:24.03Z</time></trkpt><trkpt lat="38.9311943" lon="22.4098406"><ele>234.66666666666666</ele><time>2026-04-28T12:17:25.031Z</time></trkpt><trkpt lat="38.9310513" lon="22.409999"><ele>234.33333333333331</ele><time>2026-04-28T12:17:26.03Z</time></trkpt><trkpt lat="38.9309279" lon="22.4101436"><ele>234.0</ele><time>2026-04-28T12:17:27.029Z</time></trkpt><trkpt lat="38.9308186" lon="22.4102917"><ele>234.0</ele><time>2026-04-28T12:17:28.031Z</time></trkpt><trkpt lat="38.9307204" lon="22.4104599"><ele>234.0</ele><time>2026-04-28T12:17:29.031Z</time></trkpt><trkpt lat="38.9306347" lon="22.4106543"><ele>234.0</ele><time>2026-04-28T12:17:30.029Z</time></trkpt><trkpt lat="38.9305685" lon="22.4108791"><ele>235.0</ele><time>2026-04-28T12:17:31.031Z</time></trkpt><trkpt lat="38.9305321" lon="22.4111001"><ele>236.0</ele><time>2026-04-28T12:17:32.03Z</time></trkpt><trkpt lat="38.9305142" lon="22.4113253"><ele>237.0</ele><time>2026-04-28T12:17:33.031Z</time></trkpt><trkpt lat="38.9305014" lon="22.4115569"><ele>238.0</ele><time>2026-04-28T12:17:34.029Z</time></trkpt><trkpt lat="38.9304843" lon="22.4117908"><ele>239.0</ele><time>2026-04-28T12:17:35.031Z</time></trkpt><trkpt lat="38.930456" lon="22.4120268"><ele>240.0</ele><time>2026-04-28T12:17:36.031Z</time></trkpt><trkpt lat="38.930409" lon="22.4122656"><ele>241.33333333333331</ele><time>2026-04-28T12:17:37.031Z</time></trkpt><trkpt lat="38.9303373" lon="22.4124982"><ele>242.66666666666666</ele><time>2026-04-28T12:17:38.03Z</time></trkpt><trkpt lat="38.9302464" lon="22.412732"><ele>244.0</ele><time>2026-04-28T12:17:39.029Z</time></trkpt><trkpt lat="38.9301341" lon="22.4129674"><ele>236.66666666666666</ele><time>2026-04-28T12:17:40.03Z</time></trkpt><trkpt lat="38.9300151" lon="22.4132103"><ele>229.33333333333331</ele><time>2026-04-28T12:17:41.031Z</time></trkpt><trkpt lat="38.9298941" lon="22.4134516"><ele>222.0</ele><time>2026-04-28T12:17:42.03Z</time></trkpt><trkpt lat="38.9297825" lon="22.4136911"><ele>226.33333333333331</ele><time>2026-04-28T12:17:43.03Z</time></trkpt><trkpt lat="38.9296752" lon="22.4139227"><ele>230.66666666666666</ele><time>2026-04-28T12:17:44.03Z</time></trkpt><trkpt lat="38.9295729" lon="22.4141587"><ele>235.0</ele><time>2026-04-28T12:17:45.03Z</time></trkpt><trkpt lat="38.9294748" lon="22.4143966"><ele>235.0</ele><time>2026-04-28T12:17:46.03Z</time></trkpt><trkpt lat="38.9293769" lon="22.4146462"><ele>235.0</ele><time>2026-04-28T12:17:47.03Z</time></trkpt><trkpt lat="38.9292782" lon="22.414907"><ele>235.0</ele><time>2026-04-28T12:17:48.029Z</time></trkpt><trkpt lat="38.92918" lon="22.4151803"><ele>226.0</ele><time>2026-04-28T12:17:49.03Z</time></trkpt><trkpt lat="38.9290819" lon="22.4154589"><ele>217.0</ele><time>2026-04-28T12:17:50.03Z</time></trkpt><trkpt lat="38.9289871" lon="22.4157392"><ele>217.0</ele><time>2026-04-28T12:17:51.029Z</time></trkpt><trkpt lat="38.9289036" lon="22.4160093"><ele>217.0</ele><time>2026-04-28T12:17:52.03Z</time></trkpt><trkpt lat="38.9288323" lon="22.4162702"><ele>217.0</ele><time>2026-04-28T12:17:53.031Z</time></trkpt><trkpt lat="38.928773" lon="22.4165318"><ele>217.33333333333331</ele><time>2026-04-28T12:17:54.031Z</time></trkpt><trkpt lat="38.9287243" lon="22.4168006"><ele>217.66666666666669</ele><time>2026-04-28T12:17:55.029Z</time></trkpt><trkpt lat="38.9286913" lon="22.4170834"><ele>218.0</ele><time>2026-04-28T12:17:56.03Z</time></trkpt><trkpt lat="38.9286693" lon="22.4173784"><ele>218.0</ele><time>2026-04-28T12:17:57.03Z</time></trkpt><trkpt lat="38.9286595" lon="22.4176712"><ele>218.0</ele><time>2026-04-28T12:17:58.031Z</time></trkpt><trkpt lat="38.9286565" lon="22.4179602"><ele>217.0</ele><time>2026-04-28T12:17:59.031Z</time></trkpt><trkpt lat="38.9286655" lon="22.4182389"><ele>216.0</ele><time>2026-04-28T12:18:00.03Z</time></trkpt><trkpt lat="38.9286818" lon="22.4185292"><ele>215.0</ele><time>2026-04-28T12:18:01.03Z</time></trkpt><trkpt lat="38.9287183" lon="22.4188461"><ele>214.0</ele><time>2026-04-28T12:18:02.031Z</time></trkpt><trkpt lat="38.9287726" lon="22.4191543"><ele>213.0</ele><time>2026-04-28T12:18:03.03Z</time></trkpt><trkpt lat="38.928831" lon="22.4194573"><ele>209.0</ele><time>2026-04-28T12:18:04.03Z</time></trkpt><trkpt lat="38.9288964" lon="22.4197429"><ele>205.0</ele><time>2026-04-28T12:18:05.03Z</time></trkpt><trkpt lat="38.928968" lon="22.4200094"><ele>205.0</ele><time>2026-04-28T12:18:06.031Z</time></trkpt><trkpt lat="38.9290435" lon="22.4202524"><ele>205.0</ele><time>2026-04-28T12:18:07.029Z</time></trkpt><trkpt lat="38.9291271" lon="22.4204826"><ele>205.0</ele><time>2026-04-28T12:18:08.031Z</time></trkpt><trkpt lat="38.929218" lon="22.4207101"><ele>203.66666666666666</ele><time>2026-04-28T12:18:09.031Z</time></trkpt><trkpt lat="38.9293174" lon="22.4209443"><ele>202.33333333333331</ele><time>2026-04-28T12:18:10.03Z</time></trkpt><trkpt lat="38.9294225" lon="22.4211838"><ele>201.0</ele><time>2026-04-28T12:18:11.029Z</time></trkpt><trkpt lat="38.9295258" lon="22.4214226"><ele>201.0</ele><time>2026-04-28T12:18:12.03Z</time></trkpt><trkpt lat="38.9296265" lon="22.4216488"><ele>201.0</ele><time>2026-04-28T12:18:13.03Z</time></trkpt><trkpt lat="38.9297249" lon="22.4218788"><ele>201.0</ele><time>2026-04-28T12:18:14.03Z</time></trkpt><trkpt lat="38.9298174" lon="22.4221187"><ele>197.0</ele><time>2026-04-28T12:18:15.03Z</time></trkpt><trkpt lat="38.9299004" lon="22.4223713"><ele>193.0</ele><time>2026-04-28T12:18:16.029Z</time></trkpt><trkpt lat="38.9299668" lon="22.422645"><ele>189.0</ele><time>2026-04-28T12:18:17.029Z</time></trkpt><trkpt lat="38.9300057" lon="22.4229187"><ele>186.33333333333334</ele><time>2026-04-28T12:18:18.03Z</time></trkpt><trkpt lat="38.9300144" lon="22.4232093"><ele>183.66666666666669</ele><time>2026-04-28T12:18:19.03Z</time></trkpt><trkpt lat="38.9300025" lon="22.4234839"><ele>181.0</ele><time>2026-04-28T12:18:20.03Z</time></trkpt><trkpt lat="38.9299639" lon="22.4237499"><ele>182.66666666666669</ele><time>2026-04-28T12:18:21.03Z</time></trkpt><trkpt lat="38.9299116" lon="22.4240134"><ele>184.33333333333334</ele><time>2026-04-28T12:18:22.031Z</time></trkpt><trkpt lat="38.9298338" lon="22.4242706"><ele>186.0</ele><time>2026-04-28T12:18:23.029Z</time></trkpt><trkpt lat="38.9297283" lon="22.4245256"><ele>190.5</ele><time>2026-04-28T12:18:24.03Z</time></trkpt><trkpt lat="38.9296008" lon="22.4247821"><ele>195.0</ele><time>2026-04-28T12:18:25.031Z</time></trkpt><trkpt lat="38.9294594" lon="22.4250372"><ele>195.0</ele><time>2026-04-28T12:18:26.03Z</time></trkpt><trkpt lat="38.9293136" lon="22.425293"><ele>195.0</ele><time>2026-04-28T12:18:27.029Z</time></trkpt><trkpt lat="38.9291667" lon="22.4255497"><ele>186.5</ele><time>2026-04-28T12:18:28.029Z</time></trkpt><trkpt lat="38.9290206" lon="22.4258104"><ele>178.0</ele><time>2026-04-28T12:18:29.03Z</time></trkpt><trkpt lat="38.9288751" lon="22.4260647"><ele>178.5</ele><time>2026-04-28T12:18:30.031Z</time></trkpt><trkpt lat="38.9287337" lon="22.4263206"><ele>179.0</ele><time>2026-04-28T12:18:31.031Z</time></trkpt><trkpt lat="38.9285926" lon="22.4265798"><ele>179.0</ele><time>2026-04-28T12:18:32.03Z</time></trkpt><trkpt lat="38.9284475" lon="22.4268363"><ele>179.0</ele><time>2026-04-28T12:18:33.031Z</time></trkpt><trkpt lat="38.9283007" lon="22.4270964"><ele>180.0</ele><time>2026-04-28T12:18:34.031Z</time></trkpt><trkpt lat="38.9281453" lon="22.4273654"><ele>181.0</ele><time>2026-04-28T12:18:35.03Z</time></trkpt><trkpt lat="38.9279859" lon="22.4276509"><ele>181.0</ele><time>2026-04-28T12:18:36.031Z</time></trkpt><trkpt lat="38.9278318" lon="22.427926"><ele>181.0</ele><time>2026-04-28T12:18:37.03Z</time></trkpt><trkpt lat="38.9276767" lon="22.4282102"><ele>177.5</ele><time>2026-04-28T12:18:38.03Z</time></trkpt><trkpt lat="38.9275229" lon="22.4284902"><ele>174.0</ele><time>2026-04-28T12:18:39.031Z</time></trkpt><trkpt lat="38.9273644" lon="22.4287707"><ele>170.0</ele><time>2026-04-28T12:18:40.03Z</time></trkpt><trkpt lat="38.9272065" lon="22.4290538"><ele>166.0</ele><time>2026-04-28T12:18:41.03Z</time></trkpt><trkpt lat="38.9270499" lon="22.4293296"><ele>166.0</ele><time>2026-04-28T12:18:42.03Z</time></trkpt><trkpt lat="38.9268927" lon="22.4296055"><ele>166.0</ele><time>2026-04-28T12:18:43.029Z</time></trkpt><trkpt lat="38.9267339" lon="22.4298858"><ele>160.5</ele><time>2026-04-28T12:18:44.031Z</time></trkpt><trkpt lat="38.9265754" lon="22.4301684"><ele>155.0</ele><time>2026-04-28T12:18:45.03Z</time></trkpt><trkpt lat="38.9264165" lon="22.4304548"><ele>152.5</ele><time>2026-04-28T12:18:46.03Z</time></trkpt><trkpt lat="38.9262559" lon="22.4307401"><ele>150.0</ele><time>2026-04-28T12:18:47.031Z</time></trkpt><trkpt lat="38.9260947" lon="22.4310288"><ele>149.5</ele><time>2026-04-28T12:18:48.029Z</time></trkpt><trkpt lat="38.9259353" lon="22.4313142"><ele>149.0</ele><time>2026-04-28T12:18:49.03Z</time></trkpt><trkpt lat="38.9257745" lon="22.4316038"><ele>147.5</ele><time>2026-04-28T12:18:50.029Z</time></trkpt><trkpt lat="38.9256117" lon="22.4318968"><ele>146.0</ele><time>2026-04-28T12:18:51.03Z</time></trkpt><trkpt lat="38.9254475" lon="22.4321901"><ele>145.0</ele><time>2026-04-28T12:18:52.03Z</time></trkpt><trkpt lat="38.9252852" lon="22.4324777"><ele>144.0</ele><time>2026-04-28T12:18:53.031Z</time></trkpt><trkpt lat="38.925122" lon="22.4327699"><ele>141.0</ele><time>2026-04-28T12:18:54.03Z</time></trkpt><trkpt lat="38.9249588" lon="22.4330602"><ele>138.0</ele><time>2026-04-28T12:18:55.03Z</time></trkpt><trkpt lat="38.9247954" lon="22.4333526"><ele>138.0</ele><time>2026-04-28T12:18:56.029Z</time></trkpt><trkpt lat="38.9246289" lon="22.4336415"><ele>138.0</ele><time>2026-04-28T12:18:57.031Z</time></trkpt><trkpt lat="38.9244687" lon="22.4339246"><ele>138.5</ele><time>2026-04-28T12:18:58.031Z</time></trkpt><trkpt lat="38.9243137" lon="22.4342079"><ele>139.0</ele><time>2026-04-28T12:18:59.03Z</time></trkpt><trkpt lat="38.9241626" lon="22.4344831"><ele>138.5</ele><time>2026-04-28T12:19:00.03Z</time></trkpt><trkpt lat="38.9240126" lon="22.4347536"><ele>138.0</ele><time>2026-04-28T12:19:01.03Z</time></trkpt><trkpt lat="38.9238638" lon="22.4350164"><ele>138.0</ele><time>2026-04-28T12:19:02.03Z</time></trkpt><trkpt lat="38.9237183" lon="22.4352739"><ele>138.0</ele><time>2026-04-28T12:19:03.029Z</time></trkpt><trkpt lat="38.9235741" lon="22.4355301"><ele>135.5</ele><time>2026-04-28T12:19:04.03Z</time></trkpt><trkpt lat="38.923433" lon="22.4357787"><ele>133.0</ele><time>2026-04-28T12:19:05.03Z</time></trkpt><trkpt lat="38.9232866" lon="22.4360243"><ele>133.0</ele><time>2026-04-28T12:19:06.029Z</time></trkpt><trkpt lat="38.9231361" lon="22.4362651"><ele>133.0</ele><time>2026-04-28T12:19:07.029Z</time></trkpt><trkpt lat="38.9229797" lon="22.4365017"><ele>131.5</ele><time>2026-04-28T12:19:08.03Z</time></trkpt><trkpt lat="38.9228182" lon="22.4367343"><ele>130.0</ele><time>2026-04-28T12:19:09.031Z</time></trkpt><trkpt lat="38.9226457" lon="22.4369616"><ele>128.5</ele><time>2026-04-28T12:19:10.029Z</time></trkpt><trkpt lat="38.9224669" lon="22.4371857"><ele>127.0</ele><time>2026-04-28T12:19:11.03Z</time></trkpt><trkpt lat="38.9222825" lon="22.4374056"><ele>127.0</ele><time>2026-04-28T12:19:12.03Z</time></trkpt><trkpt lat="38.9220911" lon="22.4376214"><ele>127.0</ele><time>2026-04-28T12:19:13.03Z</time></trkpt><trkpt lat="38.9218944" lon="22.4378303"><ele>127.5</ele><time>2026-04-28T12:19:14.03Z</time></trkpt><trkpt lat="38.9216894" lon="22.4380293"><ele>128.0</ele><time>2026-04-28T12:19:15.031Z</time></trkpt><trkpt lat="38.9214793" lon="22.4382203"><ele>128.0</ele><time>2026-04-28T12:19:16.03Z</time></trkpt><trkpt lat="38.9212666" lon="22.438404"><ele>128.0</ele><time>2026-04-28T12:19:17.03Z</time></trkpt><trkpt lat="38.9210521" lon="22.4385793"><ele>125.0</ele><time>2026-04-28T12:19:18.03Z</time></trkpt><trkpt lat="38.9208311" lon="22.4387431"><ele>122.0</ele><time>2026-04-28T12:19:19.03Z</time></trkpt><trkpt lat="38.9206079" lon="22.4388981"><ele>122.0</ele><time>2026-04-28T12:19:20.03Z</time></trkpt><trkpt lat="38.9203839" lon="22.4390485"><ele>122.0</ele><time>2026-04-28T12:19:21.03Z</time></trkpt><trkpt lat="38.9201581" lon="22.4391951"><ele>126.5</ele><time>2026-04-28T12:19:22.029Z</time></trkpt><trkpt lat="38.9199347" lon="22.4393402"><ele>131.0</ele><time>2026-04-28T12:19:23.031Z</time></trkpt><trkpt lat="38.9197114" lon="22.4394826"><ele>131.0</ele><time>2026-04-28T12:19:24.03Z</time></trkpt><trkpt lat="38.9194911" lon="22.4396256"><ele>131.0</ele><time>2026-04-28T12:19:25.03Z</time></trkpt><trkpt lat="38.9192768" lon="22.4397622"><ele>126.0</ele><time>2026-04-28T12:19:26.03Z</time></trkpt><trkpt lat="38.9190666" lon="22.4399006"><ele>121.0</ele><time>2026-04-28T12:19:27.03Z</time></trkpt><trkpt lat="38.9188606" lon="22.4400419"><ele>121.0</ele><time>2026-04-28T12:19:28.031Z</time></trkpt><trkpt lat="38.9186605" lon="22.4401851"><ele>121.0</ele><time>2026-04-28T12:19:29.031Z</time></trkpt><trkpt lat="38.9184685" lon="22.44034"><ele>119.0</ele><time>2026-04-28T12:19:30.03Z</time></trkpt><trkpt lat="38.9182873" lon="22.4405056"><ele>117.0</ele><time>2026-04-28T12:19:31.031Z</time></trkpt><trkpt lat="38.9181163" lon="22.4406839"><ele>115.0</ele><time>2026-04-28T12:19:32.029Z</time></trkpt><trkpt lat="38.917963" lon="22.4408638"><ele>115.0</ele><time>2026-04-28T12:19:33.029Z</time></trkpt><trkpt lat="38.9178206" lon="22.4410574"><ele>115.0</ele><time>2026-04-28T12:19:34.03Z</time></trkpt><trkpt lat="38.9176848" lon="22.4412668"><ele>115.0</ele><time>2026-04-28T12:19:35.031Z</time></trkpt><trkpt lat="38.9175567" lon="22.4414925"><ele>112.66666666666667</ele><time>2026-04-28T12:19:36.031Z</time></trkpt><trkpt lat="38.9174386" lon="22.4417249"><ele>110.33333333333334</ele><time>2026-04-28T12:19:37.031Z</time></trkpt><trkpt lat="38.9173318" lon="22.4419643"><ele>108.0</ele><time>2026-04-28T12:19:38.031Z</time></trkpt><trkpt lat="38.9172394" lon="22.4422082"><ele>107.33333333333334</ele><time>2026-04-28T12:19:39.031Z</time></trkpt><trkpt lat="38.9171643" lon="22.4424606"><ele>106.66666666666667</ele><time>2026-04-28T12:19:40.031Z</time></trkpt><trkpt lat="38.9170963" lon="22.4427009"><ele>106.0</ele><time>2026-04-28T12:19:41.03Z</time></trkpt><trkpt lat="38.9170281" lon="22.4429462"><ele>105.66666666666667</ele><time>2026-04-28T12:19:42.03Z</time></trkpt><trkpt lat="38.9169672" lon="22.4432066"><ele>105.33333333333334</ele><time>2026-04-28T12:19:43.031Z</time></trkpt><trkpt lat="38.9168986" lon="22.443463"><ele>105.0</ele><time>2026-04-28T12:19:44.029Z</time></trkpt><trkpt lat="38.9168252" lon="22.4437229"><ele>104.66666666666666</ele><time>2026-04-28T12:19:45.031Z</time></trkpt><trkpt lat="38.916739" lon="22.4439783"><ele>104.33333333333333</ele><time>2026-04-28T12:19:46.031Z</time></trkpt><trkpt lat="38.9166413" lon="22.4442304"><ele>104.0</ele><time>2026-04-28T12:19:47.031Z</time></trkpt><trkpt lat="38.916538" lon="22.4444717"><ele>106.66666666666666</ele><time>2026-04-28T12:19:48.029Z</time></trkpt><trkpt lat="38.9164217" lon="22.4447016"><ele>109.33333333333334</ele><time>2026-04-28T12:19:49.03Z</time></trkpt><trkpt lat="38.9162922" lon="22.4449266"><ele>112.0</ele><time>2026-04-28T12:19:50.029Z</time></trkpt><trkpt lat="38.9161545" lon="22.4451437"><ele>112.0</ele><time>2026-04-28T12:19:51.03Z</time></trkpt><trkpt lat="38.9160034" lon="22.4453487"><ele>112.0</ele><time>2026-04-28T12:19:52.029Z</time></trkpt><trkpt lat="38.9158481" lon="22.4455415"><ele>112.0</ele><time>2026-04-28T12:19:53.03Z</time></trkpt><trkpt lat="38.9156797" lon="22.4457235"><ele>110.0</ele><time>2026-04-28T12:19:54.03Z</time></trkpt><trkpt lat="38.9154995" lon="22.4458966"><ele>108.0</ele><time>2026-04-28T12:19:55.03Z</time></trkpt><trkpt lat="38.9153088" lon="22.446064"><ele>108.0</ele><time>2026-04-28T12:19:56.029Z</time></trkpt><trkpt lat="38.9151072" lon="22.4462346"><ele>108.0</ele><time>2026-04-28T12:19:57.03Z</time></trkpt><trkpt lat="38.9148968" lon="22.4464152"><ele>102.0</ele><time>2026-04-28T12:19:58.03Z</time></trkpt><trkpt lat="38.9146748" lon="22.4466101"><ele>96.0</ele><time>2026-04-28T12:19:59.03Z</time></trkpt><trkpt lat="38.9144373" lon="22.4468129"><ele>95.0</ele><time>2026-04-28T12:20:00.03Z</time></trkpt><trkpt lat="38.9142042" lon="22.4470094"><ele>94.0</ele><time>2026-04-28T12:20:01.03Z</time></trkpt><trkpt lat="38.9139808" lon="22.447191"><ele>93.0</ele><time>2026-04-28T12:20:02.03Z</time></trkpt><trkpt lat="38.9137677" lon="22.4473611"><ele>92.0</ele><time>2026-04-28T12:20:03.03Z</time></trkpt><trkpt lat="38.9135621" lon="22.4475246"><ele>97.5</ele><time>2026-04-28T12:20:04.029Z</time></trkpt><trkpt lat="38.9133622" lon="22.4476837"><ele>103.0</ele><time>2026-04-28T12:20:05.03Z</time></trkpt><trkpt lat="38.9131674" lon="22.4478437"><ele>98.0</ele><time>2026-04-28T12:20:06.031Z</time></trkpt><trkpt lat="38.9129736" lon="22.4480008"><ele>93.0</ele><time>2026-04-28T12:20:07.031Z</time></trkpt><trkpt lat="38.9127823" lon="22.44815"><ele>93.0</ele><time>2026-04-28T12:20:08.031Z</time></trkpt><trkpt lat="38.9125926" lon="22.4482951"><ele>93.0</ele><time>2026-04-28T12:20:09.03Z</time></trkpt><trkpt lat="38.912401" lon="22.4484321"><ele>93.0</ele><time>2026-04-28T12:20:10.03Z</time></trkpt><trkpt lat="38.9122071" lon="22.4485635"><ele>93.33333333333333</ele><time>2026-04-28T12:20:11.03Z</time></trkpt><trkpt lat="38.9120085" lon="22.4486914"><ele>93.66666666666666</ele><time>2026-04-28T12:20:12.03Z</time></trkpt><trkpt lat="38.9118035" lon="22.4488117"><ele>94.0</ele><time>2026-04-28T12:20:13.03Z</time></trkpt><trkpt lat="38.9115956" lon="22.4489228"><ele>94.0</ele><time>2026-04-28T12:20:14.031Z</time></trkpt><trkpt lat="38.9113792" lon="22.4490252"><ele>94.0</ele><time>2026-04-28T12:20:15.031Z</time></trkpt><trkpt lat="38.9111554" lon="22.4491184"><ele>94.0</ele><time>2026-04-28T12:20:16.031Z</time></trkpt><trkpt lat="38.910923" lon="22.4492068"><ele>94.0</ele><time>2026-04-28T12:20:17.03Z</time></trkpt><trkpt lat="38.9106883" lon="22.4492984"><ele>95.5</ele><time>2026-04-28T12:20:18.03Z</time></trkpt><trkpt lat="38.9104462" lon="22.4493915"><ele>97.0</ele><time>2026-04-28T12:20:19.03Z</time></trkpt><trkpt lat="38.9102069" lon="22.4494809"><ele>95.5</ele><time>2026-04-28T12:20:20.031Z</time></trkpt><trkpt lat="38.9099671" lon="22.449565"><ele>94.0</ele><time>2026-04-28T12:20:21.03Z</time></trkpt><trkpt lat="38.9097242" lon="22.449646"><ele>91.0</ele><time>2026-04-28T12:20:22.031Z</time></trkpt><trkpt lat="38.9094776" lon="22.4497279"><ele>88.0</ele><time>2026-04-28T12:20:23.03Z</time></trkpt><trkpt lat="38.9092303" lon="22.4498121"><ele>88.0</ele><time>2026-04-28T12:20:24.03Z</time></trkpt><trkpt lat="38.9089803" lon="22.4498937"><ele>88.0</ele><time>2026-04-28T12:20:25.029Z</time></trkpt><trkpt lat="38.908732" lon="22.449973"><ele>88.0</ele><time>2026-04-28T12:20:26.03Z</time></trkpt><trkpt lat="38.908492" lon="22.4500516"><ele>88.0</ele><time>2026-04-28T12:20:27.031Z</time></trkpt><trkpt lat="38.9082548" lon="22.4501259"><ele>90.0</ele><time>2026-04-28T12:20:28.031Z</time></trkpt><trkpt lat="38.9080252" lon="22.4501969"><ele>92.0</ele><time>2026-04-28T12:20:29.029Z</time></trkpt><trkpt lat="38.9078004" lon="22.4502658"><ele>93.5</ele><time>2026-04-28T12:20:30.03Z</time></trkpt><trkpt lat="38.9075723" lon="22.4503358"><ele>95.0</ele><time>2026-04-28T12:20:31.03Z</time></trkpt><trkpt lat="38.9073332" lon="22.4504018"><ele>86.5</ele><time>2026-04-28T12:20:32.03Z</time></trkpt><trkpt lat="38.907093" lon="22.4504598"><ele>78.0</ele><time>2026-04-28T12:20:33.03Z</time></trkpt><trkpt lat="38.9068523" lon="22.4505145"><ele>75.5</ele><time>2026-04-28T12:20:34.031Z</time></trkpt><trkpt lat="38.9066122" lon="22.4505662"><ele>73.0</ele><time>2026-04-28T12:20:35.03Z</time></trkpt><trkpt lat="38.9063731" lon="22.4506194"><ele>73.0</ele><time>2026-04-28T12:20:36.031Z</time></trkpt><trkpt lat="38.906138" lon="22.4506658"><ele>73.0</ele><time>2026-04-28T12:20:37.031Z</time></trkpt><trkpt lat="38.905897" lon="22.4507123"><ele>76.0</ele><time>2026-04-28T12:20:38.029Z</time></trkpt><trkpt lat="38.9056563" lon="22.4507583"><ele>79.0</ele><time>2026-04-28T12:20:39.029Z</time></trkpt><trkpt lat="38.9054145" lon="22.4508035"><ele>79.0</ele><time>2026-04-28T12:20:40.03Z</time></trkpt><trkpt lat="38.9051706" lon="22.4508455"><ele>79.0</ele><time>2026-04-28T12:20:41.031Z</time></trkpt><trkpt lat="38.9049226" lon="22.4508888"><ele>79.0</ele><time>2026-04-28T12:20:42.031Z</time></trkpt><trkpt lat="38.9046662" lon="22.4509355"><ele>79.0</ele><time>2026-04-28T12:20:43.031Z</time></trkpt><trkpt lat="38.9044051" lon="22.450979"><ele>76.5</ele><time>2026-04-28T12:20:44.03Z</time></trkpt><trkpt lat="38.9041462" lon="22.4510229"><ele>74.0</ele><time>2026-04-28T12:20:45.03Z</time></trkpt><trkpt lat="38.9038974" lon="22.4510561"><ele>74.0</ele><time>2026-04-28T12:20:46.029Z</time></trkpt><trkpt lat="38.9036611" lon="22.4510912"><ele>74.0</ele><time>2026-04-28T12:20:47.03Z</time></trkpt><trkpt lat="38.9034271" lon="22.451117"><ele>74.0</ele><time>2026-04-28T12:20:48.03Z</time></trkpt><trkpt lat="38.9031945" lon="22.4511462"><ele>74.0</ele><time>2026-04-28T12:20:49.03Z</time></trkpt><trkpt lat="38.9029569" lon="22.4511639"><ele>74.0</ele><time>2026-04-28T12:20:50.031Z</time></trkpt><trkpt lat="38.9027197" lon="22.4511802"><ele>74.0</ele><time>2026-04-28T12:20:51.031Z</time></trkpt><trkpt lat="38.9024773" lon="22.4511948"><ele>73.0</ele><time>2026-04-28T12:20:52.029Z</time></trkpt><trkpt lat="38.9022361" lon="22.451202"><ele>72.0</ele><time>2026-04-28T12:20:53.029Z</time></trkpt><trkpt lat="38.9019884" lon="22.4512124"><ele>70.5</ele><time>2026-04-28T12:20:54.03Z</time></trkpt><trkpt lat="38.901741" lon="22.451225"><ele>69.0</ele><time>2026-04-28T12:20:55.03Z</time></trkpt><trkpt lat="38.9014901" lon="22.4512348"><ele>69.0</ele><time>2026-04-28T12:20:56.031Z</time></trkpt><trkpt lat="38.9012402" lon="22.4512426"><ele>69.0</ele><time>2026-04-28T12:20:57.031Z</time></trkpt><trkpt lat="38.9009887" lon="22.4512481"><ele>65.5</ele><time>2026-04-28T12:20:58.03Z</time></trkpt><trkpt lat="38.9007386" lon="22.4512547"><ele>62.0</ele><time>2026-04-28T12:20:59.03Z</time></trkpt><trkpt lat="38.9004866" lon="22.451263"><ele>62.0</ele><time>2026-04-28T12:21:00.03Z</time></trkpt><trkpt lat="38.9002397" lon="22.4512698"><ele>62.0</ele><time>2026-04-28T12:21:01.03Z</time></trkpt><trkpt lat="38.899981" lon="22.4512679"><ele>61.5</ele><time>2026-04-28T12:21:02.03Z</time></trkpt><trkpt lat="38.899728" lon="22.4512723"><ele>61.0</ele><time>2026-04-28T12:21:03.03Z</time></trkpt><trkpt lat="38.8994765" lon="22.4512768"><ele>59.0</ele><time>2026-04-28T12:21:04.03Z</time></trkpt><trkpt lat="38.8992228" lon="22.4512809"><ele>57.0</ele><time>2026-04-28T12:21:05.031Z</time></trkpt><trkpt lat="38.8989678" lon="22.4512843"><ele>57.0</ele><time>2026-04-28T12:21:06.031Z</time></trkpt><trkpt lat="38.8987119" lon="22.4512884"><ele>57.0</ele><time>2026-04-28T12:21:07.031Z</time></trkpt><trkpt lat="38.8984577" lon="22.4512912"><ele>57.0</ele><time>2026-04-28T12:21:08.031Z</time></trkpt><trkpt lat="38.8982054" lon="22.451291"><ele>57.0</ele><time>2026-04-28T12:21:09.029Z</time></trkpt><trkpt lat="38.897953" lon="22.4512911"><ele>57.0</ele><time>2026-04-28T12:21:10.03Z</time></trkpt><trkpt lat="38.8977019" lon="22.4512929"><ele>57.0</ele><time>2026-04-28T12:21:11.03Z</time></trkpt><trkpt lat="38.8974551" lon="22.4512962"><ele>58.0</ele><time>2026-04-28T12:21:12.029Z</time></trkpt><trkpt lat="38.8972093" lon="22.4512945"><ele>59.0</ele><time>2026-04-28T12:21:13.03Z</time></trkpt><trkpt lat="38.8969642" lon="22.4512941"><ele>57.0</ele><time>2026-04-28T12:21:14.03Z</time></trkpt><trkpt lat="38.8967202" lon="22.4512917"><ele>55.0</ele><time>2026-04-28T12:21:15.031Z</time></trkpt><trkpt lat="38.89648" lon="22.4512914"><ele>55.0</ele><time>2026-04-28T12:21:16.03Z</time></trkpt><trkpt lat="38.896238" lon="22.451296"><ele>55.0</ele><time>2026-04-28T12:21:17.031Z</time></trkpt><trkpt lat="38.8959929" lon="22.4513051"><ele>55.0</ele><time>2026-04-28T12:21:18.03Z</time></trkpt><trkpt lat="38.8957503" lon="22.4513193"><ele>55.0</ele><time>2026-04-28T12:21:19.031Z</time></trkpt><trkpt lat="38.8955129" lon="22.4513209"><ele>55.0</ele><time>2026-04-28T12:21:20.031Z</time></trkpt><trkpt lat="38.8952942" lon="22.4513296"><ele>55.0</ele><time>2026-04-28T12:21:21.029Z</time></trkpt><trkpt lat="38.89507" lon="22.4513335"><ele>55.0</ele><time>2026-04-28T12:21:22.03Z</time></trkpt><trkpt lat="38.894856" lon="22.4513466"><ele>53.0</ele><time>2026-04-28T12:21:23.029Z</time></trkpt><trkpt lat="38.8946436" lon="22.4513538"><ele>51.0</ele><time>2026-04-28T12:21:24.029Z</time></trkpt><trkpt lat="38.894444" lon="22.4513602"><ele>49.0</ele><time>2026-04-28T12:21:25.031Z</time></trkpt><trkpt lat="38.8942507" lon="22.4513676"><ele>48.0</ele><time>2026-04-28T12:21:26.029Z</time></trkpt><trkpt lat="38.894072" lon="22.4513733"><ele>47.0</ele><time>2026-04-28T12:21:27.029Z</time></trkpt><trkpt lat="38.8939072" lon="22.451378"><ele>46.0</ele><time>2026-04-28T12:21:28.031Z</time></trkpt><trkpt lat="38.8937599" lon="22.4513808"><ele>46.0</ele><time>2026-04-28T12:21:29.03Z</time></trkpt><trkpt lat="38.8936204" lon="22.4513807"><ele>46.0</ele><time>2026-04-28T12:21:30.03Z</time></trkpt><trkpt lat="38.8934857" lon="22.4513806"><ele>46.0</ele><time>2026-04-28T12:21:31.03Z</time></trkpt><trkpt lat="38.8933586" lon="22.4513821"><ele>46.0</ele><time>2026-04-28T12:21:32.03Z</time></trkpt><trkpt lat="38.8932376" lon="22.4513828"><ele>45.599999999999994</ele><time>2026-04-28T12:21:33.03Z</time></trkpt><trkpt lat="38.8931274" lon="22.4513846"><ele>45.2</ele><time>2026-04-28T12:21:34.03Z</time></trkpt><trkpt lat="38.8930191" lon="22.4513859"><ele>44.8</ele><time>2026-04-28T12:21:35.029Z</time></trkpt><trkpt lat="38.8929097" lon="22.4513886"><ele>44.400000000000006</ele><time>2026-04-28T12:21:36.03Z</time></trkpt><trkpt lat="38.8927944" lon="22.4513944"><ele>44.0</ele><time>2026-04-28T12:21:37.031Z</time></trkpt><trkpt lat="38.8926766" lon="22.4513973"><ele>43.0</ele><time>2026-04-28T12:21:38.029Z</time></trkpt><trkpt lat="38.8925561" lon="22.4513993"><ele>42.0</ele><time>2026-04-28T12:21:39.03Z</time></trkpt><trkpt lat="38.8924328" lon="22.4514008"><ele>41.0</ele><time>2026-04-28T12:21:40.03Z</time></trkpt><trkpt lat="38.8923043" lon="22.4514032"><ele>40.0</ele><time>2026-04-28T12:21:41.029Z</time></trkpt><trkpt lat="38.8921686" lon="22.4514054"><ele>40.0</ele><time>2026-04-28T12:21:42.03Z</time></trkpt><trkpt lat="38.8920267" lon="22.451407"><ele>40.0</ele><time>2026-04-28T12:21:43.029Z</time></trkpt><trkpt lat="38.8918758" lon="22.4514089"><ele>40.0</ele><time>2026-04-28T12:21:44.031Z</time></trkpt><trkpt lat="38.8917185" lon="22.451411"><ele>41.0</ele><time>2026-04-28T12:21:45.029Z</time></trkpt><trkpt lat="38.8915562" lon="22.4514128"><ele>42.0</ele><time>2026-04-28T12:21:46.029Z</time></trkpt><trkpt lat="38.8913969" lon="22.4514199"><ele>43.0</ele><time>2026-04-28T12:21:47.029Z</time></trkpt><trkpt lat="38.8912168" lon="22.4514345"><ele>43.0</ele><time>2026-04-28T12:21:48.031Z</time></trkpt><trkpt lat="38.8910129" lon="22.451442"><ele>43.0</ele><time>2026-04-28T12:21:49.031Z</time></trkpt><trkpt lat="38.8907909" lon="22.4514568"><ele>43.0</ele><time>2026-04-28T12:21:50.03Z</time></trkpt><trkpt lat="38.8905521" lon="22.4514713"><ele>40.0</ele><time>2026-04-28T12:21:51.029Z</time></trkpt><trkpt lat="38.8903108" lon="22.4514797"><ele>37.0</ele><time>2026-04-28T12:21:52.03Z</time></trkpt><trkpt lat="38.8900619" lon="22.4514878"><ele>36.5</ele><time>2026-04-28T12:21:53.031Z</time></trkpt><trkpt lat="38.8898214" lon="22.4514919"><ele>36.0</ele><time>2026-04-28T12:21:54.03Z</time></trkpt><trkpt lat="38.8895849" lon="22.4514963"><ele>36.0</ele><time>2026-04-28T12:21:55.031Z</time></trkpt><trkpt lat="38.8893549" lon="22.4515005"><ele>36.0</ele><time>2026-04-28T12:21:56.03Z</time></trkpt><trkpt lat="38.8891249" lon="22.4515043"><ele>37.0</ele><time>2026-04-28T12:21:57.03Z</time></trkpt><trkpt lat="38.8888963" lon="22.4515034"><ele>38.0</ele><time>2026-04-28T12:21:58.03Z</time></trkpt><trkpt lat="38.8886699" lon="22.4515005"><ele>38.0</ele><time>2026-04-28T12:21:59.031Z</time></trkpt><trkpt lat="38.8884404" lon="22.4514997"><ele>38.0</ele><time>2026-04-28T12:22:00.03Z</time></trkpt><trkpt lat="38.8882149" lon="22.451501"><ele>38.0</ele><time>2026-04-28T12:22:01.03Z</time></trkpt><trkpt lat="38.8879888" lon="22.4515064"><ele>38.0</ele><time>2026-04-28T12:22:02.03Z</time></trkpt><trkpt lat="38.8877596" lon="22.4515129"><ele>36.0</ele><time>2026-04-28T12:22:03.03Z</time></trkpt><trkpt lat="38.8875246" lon="22.4515187"><ele>34.0</ele><time>2026-04-28T12:22:04.03Z</time></trkpt><trkpt lat="38.8872791" lon="22.4515249"><ele>34.0</ele><time>2026-04-28T12:22:05.03Z</time></trkpt><trkpt lat="38.8870287" lon="22.4515312"><ele>34.0</ele><time>2026-04-28T12:22:06.029Z</time></trkpt><trkpt lat="38.8867823" lon="22.4515403"><ele>32.5</ele><time>2026-04-28T12:22:07.031Z</time></trkpt><trkpt lat="38.8865272" lon="22.451546"><ele>31.0</ele><time>2026-04-28T12:22:08.029Z</time></trkpt><trkpt lat="38.886256" lon="22.4515515"><ele>31.0</ele><time>2026-04-28T12:22:09.03Z</time></trkpt><trkpt lat="38.8859725" lon="22.4515632"><ele>31.0</ele><time>2026-04-28T12:22:10.029Z</time></trkpt><trkpt lat="38.8856731" lon="22.4515714"><ele>29.5</ele><time>2026-04-28T12:22:11.03Z</time></trkpt><trkpt lat="38.8853749" lon="22.4515807"><ele>28.0</ele><time>2026-04-28T12:22:12.03Z</time></trkpt><trkpt lat="38.8850751" lon="22.4515919"><ele>26.0</ele><time>2026-04-28T12:22:13.03Z</time></trkpt><trkpt lat="38.8847705" lon="22.4515988"><ele>24.0</ele><time>2026-04-28T12:22:14.03Z</time></trkpt><trkpt lat="38.8844692" lon="22.4516086"><ele>26.5</ele><time>2026-04-28T12:22:15.031Z</time></trkpt><trkpt lat="38.884172" lon="22.4516231"><ele>29.0</ele><time>2026-04-28T12:22:16.03Z</time></trkpt><trkpt lat="38.8838869" lon="22.4516327"><ele>29.0</ele><time>2026-04-28T12:22:17.03Z</time></trkpt><trkpt lat="38.8836138" lon="22.4516393"><ele>29.0</ele><time>2026-04-28T12:22:18.029Z</time></trkpt><trkpt lat="38.8833492" lon="22.4516505"><ele>27.5</ele><time>2026-04-28T12:22:19.03Z</time></trkpt><trkpt lat="38.8830911" lon="22.4516671"><ele>26.0</ele><time>2026-04-28T12:22:20.031Z</time></trkpt><trkpt lat="38.8828354" lon="22.4516921"><ele>26.0</ele><time>2026-04-28T12:22:21.031Z</time></trkpt><trkpt lat="38.8825846" lon="22.4517238"><ele>26.0</ele><time>2026-04-28T12:22:22.031Z</time></trkpt><trkpt lat="38.8823391" lon="22.4517617"><ele>26.0</ele><time>2026-04-28T12:22:23.029Z</time></trkpt><trkpt lat="38.8820952" lon="22.4518095"><ele>26.0</ele><time>2026-04-28T12:22:24.03Z</time></trkpt><trkpt lat="38.8818515" lon="22.451865"><ele>24.0</ele><time>2026-04-28T12:22:25.031Z</time></trkpt><trkpt lat="38.8816254" lon="22.4519266"><ele>22.0</ele><time>2026-04-28T12:22:26.03Z</time></trkpt><trkpt lat="38.8814149" lon="22.4519934"><ele>20.0</ele><time>2026-04-28T12:22:27.029Z</time></trkpt><trkpt lat="38.88121" lon="22.4520745"><ele>20.0</ele><time>2026-04-28T12:22:28.031Z</time></trkpt><trkpt lat="38.8810206" lon="22.4521564"><ele>20.0</ele><time>2026-04-28T12:22:29.03Z</time></trkpt><trkpt lat="38.8808449" lon="22.452239"><ele>20.0</ele><time>2026-04-28T12:22:30.03Z</time></trkpt><trkpt lat="38.8806917" lon="22.4523206"><ele>20.0</ele><time>2026-04-28T12:22:31.031Z</time></trkpt><trkpt lat="38.8805529" lon="22.4523889"><ele>20.0</ele><time>2026-04-28T12:22:32.03Z</time></trkpt><trkpt lat="38.880427" lon="22.4524496"><ele>20.0</ele><time>2026-04-28T12:22:33.029Z</time></trkpt><trkpt lat="38.8803172" lon="22.4525042"><ele>20.0</ele><time>2026-04-28T12:22:34.029Z</time></trkpt><trkpt lat="38.8802191" lon="22.452553"><ele>20.0</ele><time>2026-04-28T12:22:35.031Z</time></trkpt><trkpt lat="38.8801324" lon="22.4525971"><ele>20.0</ele><time>2026-04-28T12:22:36.031Z</time></trkpt><trkpt lat="38.8800549" lon="22.4526349"><ele>20.0</ele><time>2026-04-28T12:22:37.031Z</time></trkpt><trkpt lat="38.8799872" lon="22.4526649"><ele>20.0</ele><time>2026-04-28T12:22:38.03Z</time></trkpt><trkpt lat="38.8799269" lon="22.4526937"><ele>20.0</ele><time>2026-04-28T12:22:39.031Z</time></trkpt><trkpt lat="38.8798186" lon="22.4527452"><ele>20.0</ele><time>2026-04-28T12:22:41.03Z</time></trkpt><trkpt lat="38.879707" lon="22.4528009"><ele>20.0</ele><time>2026-04-28T12:22:43.03Z</time></trkpt><trkpt lat="38.8796478" lon="22.4528285"><ele>20.0</ele><time>2026-04-28T12:22:44.03Z</time></trkpt><trkpt lat="38.8795863" lon="22.4528584"><ele>20.0</ele><time>2026-04-28T12:22:45.03Z</time></trkpt><trkpt lat="38.879508" lon="22.4528976"><ele>20.0</ele><time>2026-04-28T12:22:46.031Z</time></trkpt><trkpt lat="38.8794138" lon="22.4529439"><ele>20.0</ele><time>2026-04-28T12:22:47.029Z</time></trkpt><trkpt lat="38.87931" lon="22.4529977"><ele>20.0</ele><time>2026-04-28T12:22:48.029Z</time></trkpt><trkpt lat="38.8792053" lon="22.4530513"><ele>20.5</ele><time>2026-04-28T12:22:49.03Z</time></trkpt><trkpt lat="38.8790907" lon="22.4531092"><ele>21.0</ele><time>2026-04-28T12:22:50.03Z</time></trkpt><trkpt lat="38.8789653" lon="22.4531738"><ele>21.5</ele><time>2026-04-28T12:22:51.03Z</time></trkpt><trkpt lat="38.8788291" lon="22.4532446"><ele>22.0</ele><time>2026-04-28T12:22:52.029Z</time></trkpt><trkpt lat="38.8786835" lon="22.453316"><ele>22.0</ele><time>2026-04-28T12:22:53.029Z</time></trkpt><trkpt lat="38.878527" lon="22.4533954"><ele>22.0</ele><time>2026-04-28T12:22:54.03Z</time></trkpt><trkpt lat="38.8783635" lon="22.4534785"><ele>22.0</ele><time>2026-04-28T12:22:55.03Z</time></trkpt><trkpt lat="38.8781977" lon="22.4535636"><ele>21.666666666666664</ele><time>2026-04-28T12:22:56.029Z</time></trkpt><trkpt lat="38.8780307" lon="22.4536531"><ele>21.333333333333332</ele><time>2026-04-28T12:22:57.029Z</time></trkpt><trkpt lat="38.877868" lon="22.4537396"><ele>21.0</ele><time>2026-04-28T12:22:58.03Z</time></trkpt><trkpt lat="38.8777189" lon="22.4538312"><ele>21.0</ele><time>2026-04-28T12:22:59.029Z</time></trkpt><trkpt lat="38.8775863" lon="22.4539261"><ele>21.0</ele><time>2026-04-28T12:23:00.03Z</time></trkpt><trkpt lat="38.8774717" lon="22.4540104"><ele>21.0</ele><time>2026-04-28T12:23:01.029Z</time></trkpt><trkpt lat="38.8773721" lon="22.4540891"><ele>21.0</ele><time>2026-04-28T12:23:02.029Z</time></trkpt><trkpt lat="38.8772779" lon="22.4541611"><ele>21.0</ele><time>2026-04-28T12:23:03.03Z</time></trkpt><trkpt lat="38.877177" lon="22.4542131"><ele>21.0</ele><time>2026-04-28T12:23:04.03Z</time></trkpt><trkpt lat="38.8770825" lon="22.4542598"><ele>21.0</ele><time>2026-04-28T12:23:05.03Z</time></trkpt><trkpt lat="38.8769852" lon="22.454269"><ele>21.0</ele><time>2026-04-28T12:23:06.029Z</time></trkpt><trkpt lat="38.876894" lon="22.4542923"><ele>21.0</ele><time>2026-04-28T12:23:07.03Z</time></trkpt><trkpt lat="38.8768144" lon="22.4543405"><ele>20.0</ele><time>2026-04-28T12:23:08.029Z</time></trkpt><trkpt lat="38.8767447" lon="22.4544133"><ele>19.0</ele><time>2026-04-28T12:23:09.028Z</time></trkpt><trkpt lat="38.8766932" lon="22.4545033"><ele>18.0</ele><time>2026-04-28T12:23:10.029Z</time></trkpt><trkpt lat="38.8766671" lon="22.4546246"><ele>17.0</ele><time>2026-04-28T12:23:11.029Z</time></trkpt><trkpt lat="38.8766693" lon="22.454736"><ele>16.0</ele><time>2026-04-28T12:23:12.028Z</time></trkpt><trkpt lat="38.8766925" lon="22.454843"><ele>15.0</ele><time>2026-04-28T12:23:13.029Z</time></trkpt><trkpt lat="38.876749" lon="22.454939"><ele>15.2</ele><time>2026-04-28T12:23:14.028Z</time></trkpt><trkpt lat="38.8768241" lon="22.4550096"><ele>15.4</ele><time>2026-04-28T12:23:15.03Z</time></trkpt><trkpt lat="38.8769057" lon="22.4550606"><ele>15.600000000000001</ele><time>2026-04-28T12:23:16.029Z</time></trkpt><trkpt lat="38.8769896" lon="22.4551172"><ele>15.8</ele><time>2026-04-28T12:23:17.028Z</time></trkpt><trkpt lat="38.8770647" lon="22.4551928"><ele>16.0</ele><time>2026-04-28T12:23:18.029Z</time></trkpt><trkpt lat="38.8771095" lon="22.4552946"><ele>16.0</ele><time>2026-04-28T12:23:19.028Z</time></trkpt><trkpt lat="38.8771275" lon="22.4554142"><ele>16.0</ele><time>2026-04-28T12:23:20.029Z</time></trkpt><trkpt lat="38.877117" lon="22.4555605"><ele>16.0</ele><time>2026-04-28T12:23:21.03Z</time></trkpt><trkpt lat="38.8770633" lon="22.4557225"><ele>16.0</ele><time>2026-04-28T12:23:22.029Z</time></trkpt><trkpt lat="38.8769919" lon="22.455893"><ele>15.333333333333332</ele><time>2026-04-28T12:23:23.028Z</time></trkpt><trkpt lat="38.8769195" lon="22.4561052"><ele>14.666666666666668</ele><time>2026-04-28T12:23:24.028Z</time></trkpt><trkpt lat="38.8768791" lon="22.4563252"><ele>14.0</ele><time>2026-04-28T12:23:25.029Z</time></trkpt><trkpt lat="38.8768534" lon="22.4565684"><ele>14.0</ele><time>2026-04-28T12:23:26.029Z</time></trkpt><trkpt lat="38.8768145" lon="22.4568371"><ele>14.0</ele><time>2026-04-28T12:23:27.029Z</time></trkpt><trkpt lat="38.8767718" lon="22.4571209"><ele>14.0</ele><time>2026-04-28T12:23:28.029Z</time></trkpt><trkpt lat="38.8767327" lon="22.4574063"><ele>12.0</ele><time>2026-04-28T12:23:29.029Z</time></trkpt><trkpt lat="38.876689" lon="22.4577027"><ele>10.0</ele><time>2026-04-28T12:23:30.03Z</time></trkpt><trkpt lat="38.8766459" lon="22.4579978"><ele>10.0</ele><time>2026-04-28T12:23:31.029Z</time></trkpt><trkpt lat="38.8766044" lon="22.4582873"><ele>10.0</ele><time>2026-04-28T12:23:32.029Z</time></trkpt><trkpt lat="38.8765655" lon="22.4585673"><ele>11.0</ele><time>2026-04-28T12:23:33.028Z</time></trkpt><trkpt lat="38.8765252" lon="22.4588344"><ele>12.0</ele><time>2026-04-28T12:23:34.029Z</time></trkpt><trkpt lat="38.8764838" lon="22.4590932"><ele>13.0</ele><time>2026-04-28T12:23:35.028Z</time></trkpt><trkpt lat="38.8764473" lon="22.4593494"><ele>13.0</ele><time>2026-04-28T12:23:36.03Z</time></trkpt><trkpt lat="38.8764124" lon="22.4596006"><ele>13.0</ele><time>2026-04-28T12:23:37.029Z</time></trkpt><trkpt lat="38.8763831" lon="22.4598511"><ele>13.0</ele><time>2026-04-28T12:23:38.028Z</time></trkpt><trkpt lat="38.8763522" lon="22.4600915"><ele>12.666666666666666</ele><time>2026-04-28T12:23:39.03Z</time></trkpt><trkpt lat="38.8763219" lon="22.460322"><ele>12.333333333333332</ele><time>2026-04-28T12:23:40.028Z</time></trkpt><trkpt lat="38.8762966" lon="22.4605402"><ele>12.0</ele><time>2026-04-28T12:23:41.028Z</time></trkpt><trkpt lat="38.8762699" lon="22.4607427"><ele>12.0</ele><time>2026-04-28T12:23:42.029Z</time></trkpt><trkpt lat="38.876238" lon="22.4609205"><ele>12.0</ele><time>2026-04-28T12:23:43.029Z</time></trkpt><trkpt lat="38.876209" lon="22.4610726"><ele>12.0</ele><time>2026-04-28T12:23:44.029Z</time></trkpt><trkpt lat="38.8761769" lon="22.461198"><ele>12.0</ele><time>2026-04-28T12:23:45.03Z</time></trkpt><trkpt lat="38.8761302" lon="22.4613149"><ele>12.0</ele><time>2026-04-28T12:23:46.029Z</time></trkpt><trkpt lat="38.8760744" lon="22.4614324"><ele>12.0</ele><time>2026-04-28T12:23:47.03Z</time></trkpt><trkpt lat="38.8760006" lon="22.4615572"><ele>12.0</ele><time>2026-04-28T12:23:48.029Z</time></trkpt><trkpt lat="38.8759197" lon="22.4617024"><ele>12.0</ele><time>2026-04-28T12:23:49.03Z</time></trkpt><trkpt lat="38.8758283" lon="22.4618488"><ele>11.75</ele><time>2026-04-28T12:23:50.028Z</time></trkpt><trkpt lat="38.8757359" lon="22.4619972"><ele>11.5</ele><time>2026-04-28T12:23:51.029Z</time></trkpt><trkpt lat="38.8756432" lon="22.462141"><ele>11.25</ele><time>2026-04-28T12:23:52.029Z</time></trkpt><trkpt lat="38.8755603" lon="22.4622571"><ele>11.0</ele><time>2026-04-28T12:23:53.03Z</time></trkpt><trkpt lat="38.8754862" lon="22.462361"><ele>10.8</ele><time>2026-04-28T12:23:54.03Z</time></trkpt><trkpt lat="38.8754264" lon="22.4624387"><ele>10.600000000000001</ele><time>2026-04-28T12:23:55.028Z</time></trkpt><trkpt lat="38.8753655" lon="22.4625"><ele>10.4</ele><time>2026-04-28T12:23:56.028Z</time></trkpt><trkpt lat="38.8752406" lon="22.4624778"><ele>10.2</ele><time>2026-04-28T12:23:58.029Z</time></trkpt><trkpt lat="38.8751598" lon="22.4624033"><ele>10.0</ele><time>2026-04-28T12:23:59.028Z</time></trkpt><trkpt lat="38.875062" lon="22.462288"><ele>10.0</ele><time>2026-04-28T12:24:00.028Z</time></trkpt><trkpt lat="38.8749356" lon="22.4621452"><ele>10.0</ele><time>2026-04-28T12:24:01.03Z</time></trkpt><trkpt lat="38.8748045" lon="22.4619917"><ele>10.0</ele><time>2026-04-28T12:24:02.03Z</time></trkpt><trkpt lat="38.8746658" lon="22.4618344"><ele>10.666666666666668</ele><time>2026-04-28T12:24:03.03Z</time></trkpt><trkpt lat="38.8745165" lon="22.4616705"><ele>11.333333333333334</ele><time>2026-04-28T12:24:04.028Z</time></trkpt><trkpt lat="38.8743527" lon="22.4614894"><ele>12.0</ele><time>2026-04-28T12:24:05.029Z</time></trkpt><trkpt lat="38.8741872" lon="22.4613153"><ele>11.0</ele><time>2026-04-28T12:24:06.029Z</time></trkpt><trkpt lat="38.8740208" lon="22.4611412"><ele>10.0</ele><time>2026-04-28T12:24:07.028Z</time></trkpt><trkpt lat="38.8738441" lon="22.4609741"><ele>9.0</ele><time>2026-04-28T12:24:08.029Z</time></trkpt><trkpt lat="38.8736483" lon="22.4608274"><ele>9.0</ele><time>2026-04-28T12:24:09.029Z</time></trkpt><trkpt lat="38.8734452" lon="22.4606929"><ele>9.0</ele><time>2026-04-28T12:24:10.029Z</time></trkpt><trkpt lat="38.8732387" lon="22.4605804"><ele>8.5</ele><time>2026-04-28T12:24:11.028Z</time></trkpt><trkpt lat="38.8730285" lon="22.4604741"><ele>8.0</ele><time>2026-04-28T12:24:12.028Z</time></trkpt><trkpt lat="38.8728168" lon="22.4603737"><ele>9.0</ele><time>2026-04-28T12:24:13.03Z</time></trkpt><trkpt lat="38.8726078" lon="22.4602786"><ele>10.0</ele><time>2026-04-28T12:24:14.029Z</time></trkpt><trkpt lat="38.8724046" lon="22.4602042"><ele>11.0</ele><time>2026-04-28T12:24:15.03Z</time></trkpt><trkpt lat="38.8721969" lon="22.4601643"><ele>11.0</ele><time>2026-04-28T12:24:16.03Z</time></trkpt><trkpt lat="38.8719856" lon="22.4601706"><ele>11.0</ele><time>2026-04-28T12:24:17.029Z</time></trkpt><trkpt lat="38.8717704" lon="22.4602261"><ele>11.0</ele><time>2026-04-28T12:24:18.029Z</time></trkpt><trkpt lat="38.8715501" lon="22.4603161"><ele>10.5</ele><time>2026-04-28T12:24:19.028Z</time></trkpt><trkpt lat="38.8713268" lon="22.4604024"><ele>10.0</ele><time>2026-04-28T12:24:20.028Z</time></trkpt><trkpt lat="38.871118" lon="22.4604909"><ele>9.666666666666668</ele><time>2026-04-28T12:24:21.028Z</time></trkpt><trkpt lat="38.8709205" lon="22.4605611"><ele>9.333333333333334</ele><time>2026-04-28T12:24:22.029Z</time></trkpt><trkpt lat="38.8707332" lon="22.4606079"><ele>9.0</ele><time>2026-04-28T12:24:23.029Z</time></trkpt><trkpt lat="38.8705433" lon="22.4606311"><ele>9.0</ele><time>2026-04-28T12:24:24.029Z</time></trkpt><trkpt lat="38.8703643" lon="22.4606122"><ele>9.0</ele><time>2026-04-28T12:24:25.029Z</time></trkpt><trkpt lat="38.8701935" lon="22.4605582"><ele>9.0</ele><time>2026-04-28T12:24:26.028Z</time></trkpt><trkpt lat="38.8700282" lon="22.4604686"><ele>8.333333333333334</ele><time>2026-04-28T12:24:27.028Z</time></trkpt><trkpt lat="38.8698589" lon="22.4603429"><ele>7.666666666666667</ele><time>2026-04-28T12:24:28.029Z</time></trkpt><trkpt lat="38.8696905" lon="22.4601935"><ele>7.0</ele><time>2026-04-28T12:24:29.03Z</time></trkpt><trkpt lat="38.8695267" lon="22.4600445"><ele>7.0</ele><time>2026-04-28T12:24:30.029Z</time></trkpt><trkpt lat="38.8693591" lon="22.4599009"><ele>7.0</ele><time>2026-04-28T12:24:31.03Z</time></trkpt><trkpt lat="38.8691889" lon="22.4597665"><ele>7.0</ele><time>2026-04-28T12:24:32.03Z</time></trkpt><trkpt lat="38.8690125" lon="22.4596473"><ele>6.666666666666667</ele><time>2026-04-28T12:24:33.03Z</time></trkpt><trkpt lat="38.8688206" lon="22.4595504"><ele>6.333333333333334</ele><time>2026-04-28T12:24:34.03Z</time></trkpt><trkpt lat="38.8686266" lon="22.4594746"><ele>6.0</ele><time>2026-04-28T12:24:35.03Z</time></trkpt><trkpt lat="38.8684229" lon="22.4594331"><ele>7.0</ele><time>2026-04-28T12:24:36.029Z</time></trkpt><trkpt lat="38.868214" lon="22.4594261"><ele>8.0</ele><time>2026-04-28T12:24:37.029Z</time></trkpt><trkpt lat="38.8680017" lon="22.4594454"><ele>9.0</ele><time>2026-04-28T12:24:38.028Z</time></trkpt><trkpt lat="38.867784" lon="22.4594916"><ele>8.0</ele><time>2026-04-28T12:24:39.029Z</time></trkpt><trkpt lat="38.8675597" lon="22.4595541"><ele>7.0</ele><time>2026-04-28T12:24:40.03Z</time></trkpt><trkpt lat="38.8673369" lon="22.4596234"><ele>7.0</ele><time>2026-04-28T12:24:41.029Z</time></trkpt><trkpt lat="38.8671182" lon="22.4597018"><ele>7.0</ele><time>2026-04-28T12:24:42.028Z</time></trkpt><trkpt lat="38.8668988" lon="22.4597867"><ele>6.5</ele><time>2026-04-28T12:24:43.029Z</time></trkpt><trkpt lat="38.866679" lon="22.4598784"><ele>6.0</ele><time>2026-04-28T12:24:44.03Z</time></trkpt><trkpt lat="38.8664608" lon="22.459978"><ele>6.0</ele><time>2026-04-28T12:24:45.03Z</time></trkpt><trkpt lat="38.8662423" lon="22.4600814"><ele>6.0</ele><time>2026-04-28T12:24:46.028Z</time></trkpt><trkpt lat="38.8660236" lon="22.460187"><ele>6.5</ele><time>2026-04-28T12:24:47.028Z</time></trkpt><trkpt lat="38.8658024" lon="22.4602963"><ele>7.0</ele><time>2026-04-28T12:24:48.028Z</time></trkpt><trkpt lat="38.8655767" lon="22.4604089"><ele>7.5</ele><time>2026-04-28T12:24:49.029Z</time></trkpt><trkpt lat="38.8653492" lon="22.4605245"><ele>8.0</ele><time>2026-04-28T12:24:50.03Z</time></trkpt><trkpt lat="38.8651172" lon="22.4606402"><ele>8.5</ele><time>2026-04-28T12:24:51.029Z</time></trkpt><trkpt lat="38.8648893" lon="22.4607524"><ele>9.0</ele><time>2026-04-28T12:24:52.029Z</time></trkpt><trkpt lat="38.8646622" lon="22.4608648"><ele>9.0</ele><time>2026-04-28T12:24:53.029Z</time></trkpt><trkpt lat="38.8644367" lon="22.4609758"><ele>9.0</ele><time>2026-04-28T12:24:54.03Z</time></trkpt><trkpt lat="38.8642084" lon="22.4610854"><ele>9.5</ele><time>2026-04-28T12:24:55.03Z</time></trkpt><trkpt lat="38.8639808" lon="22.4611933"><ele>10.0</ele><time>2026-04-28T12:24:56.03Z</time></trkpt><trkpt lat="38.8637554" lon="22.461298"><ele>10.0</ele><time>2026-04-28T12:24:57.029Z</time></trkpt><trkpt lat="38.8635333" lon="22.4614022"><ele>10.0</ele><time>2026-04-28T12:24:58.029Z</time></trkpt><trkpt lat="38.8633194" lon="22.4615023"><ele>10.0</ele><time>2026-04-28T12:24:59.03Z</time></trkpt><trkpt lat="38.8631128" lon="22.4616015"><ele>10.0</ele><time>2026-04-28T12:25:00.029Z</time></trkpt><trkpt lat="38.8629119" lon="22.4617041"><ele>10.0</ele><time>2026-04-28T12:25:01.028Z</time></trkpt><trkpt lat="38.8627161" lon="22.4618269"><ele>10.666666666666668</ele><time>2026-04-28T12:25:02.028Z</time></trkpt><trkpt lat="38.8625336" lon="22.4619745"><ele>11.333333333333334</ele><time>2026-04-28T12:25:03.03Z</time></trkpt><trkpt lat="38.8623649" lon="22.4621552"><ele>12.0</ele><time>2026-04-28T12:25:04.029Z</time></trkpt><trkpt lat="38.862204" lon="22.4623603"><ele>10.666666666666666</ele><time>2026-04-28T12:25:05.03Z</time></trkpt><trkpt lat="38.8620492" lon="22.4625691"><ele>9.333333333333332</ele><time>2026-04-28T12:25:06.03Z</time></trkpt><trkpt lat="38.8618957" lon="22.4627718"><ele>8.0</ele><time>2026-04-28T12:25:07.029Z</time></trkpt><trkpt lat="38.8617473" lon="22.4629621"><ele>7.666666666666666</ele><time>2026-04-28T12:25:08.029Z</time></trkpt><trkpt lat="38.8615999" lon="22.4631353"><ele>7.333333333333334</ele><time>2026-04-28T12:25:09.03Z</time></trkpt><trkpt lat="38.8614465" lon="22.4632866"><ele>7.0</ele><time>2026-04-28T12:25:10.03Z</time></trkpt><trkpt lat="38.861278" lon="22.4634075"><ele>7.0</ele><time>2026-04-28T12:25:11.029Z</time></trkpt><trkpt lat="38.8610973" lon="22.4634935"><ele>7.0</ele><time>2026-04-28T12:25:12.029Z</time></trkpt><trkpt lat="38.8609004" lon="22.4635241"><ele>7.0</ele><time>2026-04-28T12:25:13.03Z</time></trkpt><trkpt lat="38.8606946" lon="22.4635123"><ele>6.666666666666667</ele><time>2026-04-28T12:25:14.029Z</time></trkpt><trkpt lat="38.8604881" lon="22.4634821"><ele>6.333333333333334</ele><time>2026-04-28T12:25:15.029Z</time></trkpt><trkpt lat="38.8602806" lon="22.4634333"><ele>6.0</ele><time>2026-04-28T12:25:16.03Z</time></trkpt><trkpt lat="38.8600814" lon="22.4633958"><ele>6.666666666666666</ele><time>2026-04-28T12:25:17.029Z</time></trkpt><trkpt lat="38.8598846" lon="22.4634051"><ele>7.333333333333333</ele><time>2026-04-28T12:25:18.03Z</time></trkpt><trkpt lat="38.8596886" lon="22.4634601"><ele>8.0</ele><time>2026-04-28T12:25:19.028Z</time></trkpt><trkpt lat="38.8594922" lon="22.4635547"><ele>8.0</ele><time>2026-04-28T12:25:20.029Z</time></trkpt><trkpt lat="38.8592967" lon="22.4636769"><ele>8.0</ele><time>2026-04-28T12:25:21.029Z</time></trkpt><trkpt lat="38.8590978" lon="22.4638096"><ele>8.0</ele><time>2026-04-28T12:25:22.029Z</time></trkpt><trkpt lat="38.8588946" lon="22.4639397"><ele>7.5</ele><time>2026-04-28T12:25:23.029Z</time></trkpt><trkpt lat="38.8586904" lon="22.4640766"><ele>7.0</ele><time>2026-04-28T12:25:24.029Z</time></trkpt><trkpt lat="38.8584852" lon="22.4642174"><ele>5.5</ele><time>2026-04-28T12:25:25.03Z</time></trkpt><trkpt lat="38.8582811" lon="22.4643683"><ele>4.0</ele><time>2026-04-28T12:25:26.029Z</time></trkpt><trkpt lat="38.8580822" lon="22.4645293"><ele>4.5</ele><time>2026-04-28T12:25:27.028Z</time></trkpt><trkpt lat="38.8578913" lon="22.4647154"><ele>5.0</ele><time>2026-04-28T12:25:28.03Z</time></trkpt><trkpt lat="38.8577111" lon="22.4649321"><ele>7.0</ele><time>2026-04-28T12:25:29.03Z</time></trkpt><trkpt lat="38.8575434" lon="22.4651764"><ele>9.0</ele><time>2026-04-28T12:25:30.028Z</time></trkpt><trkpt lat="38.8573872" lon="22.4654278"><ele>8.5</ele><time>2026-04-28T12:25:31.029Z</time></trkpt><trkpt lat="38.8572342" lon="22.4656831"><ele>8.0</ele><time>2026-04-28T12:25:32.03Z</time></trkpt><trkpt lat="38.8570763" lon="22.4659207"><ele>8.0</ele><time>2026-04-28T12:25:33.03Z</time></trkpt><trkpt lat="38.8569091" lon="22.4661343"><ele>8.0</ele><time>2026-04-28T12:25:34.029Z</time></trkpt><trkpt lat="38.856731" lon="22.4663199"><ele>6.666666666666666</ele><time>2026-04-28T12:25:35.028Z</time></trkpt><trkpt lat="38.856545" lon="22.4664772"><ele>5.333333333333333</ele><time>2026-04-28T12:25:36.029Z</time></trkpt><trkpt lat="38.8563539" lon="22.4666179"><ele>4.0</ele><time>2026-04-28T12:25:37.028Z</time></trkpt><trkpt lat="38.8561597" lon="22.4667526"><ele>4.0</ele><time>2026-04-28T12:25:38.029Z</time></trkpt><trkpt lat="38.8559666" lon="22.4668849"><ele>4.0</ele><time>2026-04-28T12:25:39.029Z</time></trkpt><trkpt lat="38.8557794" lon="22.4670092"><ele>4.0</ele><time>2026-04-28T12:25:40.028Z</time></trkpt><trkpt lat="38.8555947" lon="22.4671207"><ele>5.0</ele><time>2026-04-28T12:25:41.029Z</time></trkpt><trkpt lat="38.8554051" lon="22.4672081"><ele>6.0</ele><time>2026-04-28T12:25:42.029Z</time></trkpt><trkpt lat="38.8552083" lon="22.4672729"><ele>7.0</ele><time>2026-04-28T12:25:43.03Z</time></trkpt><trkpt lat="38.8550001" lon="22.4673114"><ele>7.0</ele><time>2026-04-28T12:25:44.029Z</time></trkpt><trkpt lat="38.8547975" lon="22.4673431"><ele>7.0</ele><time>2026-04-28T12:25:45.029Z</time></trkpt><trkpt lat="38.8546064" lon="22.4673581"><ele>7.0</ele><time>2026-04-28T12:25:46.029Z</time></trkpt><trkpt lat="38.8544323" lon="22.4673626"><ele>6.0</ele><time>2026-04-28T12:25:47.029Z</time></trkpt><trkpt lat="38.8542689" lon="22.4673476"><ele>5.0</ele><time>2026-04-28T12:25:48.029Z</time></trkpt><trkpt lat="38.8541148" lon="22.467332"><ele>4.0</ele><time>2026-04-28T12:25:49.029Z</time></trkpt><trkpt lat="38.8539567" lon="22.4673477"><ele>4.0</ele><time>2026-04-28T12:25:50.028Z</time></trkpt><trkpt lat="38.8537914" lon="22.4674283"><ele>4.0</ele><time>2026-04-28T12:25:51.028Z</time></trkpt><trkpt lat="38.853605" lon="22.4675455"><ele>4.0</ele><time>2026-04-28T12:25:52.03Z</time></trkpt><trkpt lat="38.8533908" lon="22.4676759"><ele>5.0</ele><time>2026-04-28T12:25:53.03Z</time></trkpt><trkpt lat="38.8531694" lon="22.4678236"><ele>6.0</ele><time>2026-04-28T12:25:54.029Z</time></trkpt><trkpt lat="38.8529437" lon="22.4679677"><ele>6.0</ele><time>2026-04-28T12:25:55.028Z</time></trkpt><trkpt lat="38.8527276" lon="22.4681039"><ele>6.0</ele><time>2026-04-28T12:25:56.029Z</time></trkpt><trkpt lat="38.8525104" lon="22.468242"><ele>6.0</ele><time>2026-04-28T12:25:57.03Z</time></trkpt><trkpt lat="38.8523045" lon="22.4683732"><ele>6.0</ele><time>2026-04-28T12:25:58.028Z</time></trkpt><trkpt lat="38.8521067" lon="22.4685"><ele>6.0</ele><time>2026-04-28T12:25:59.03Z</time></trkpt><trkpt lat="38.8519206" lon="22.4686232"><ele>6.0</ele><time>2026-04-28T12:26:00.028Z</time></trkpt><trkpt lat="38.8517379" lon="22.4687494"><ele>6.0</ele><time>2026-04-28T12:26:01.029Z</time></trkpt><trkpt lat="38.8515573" lon="22.4688791"><ele>6.0</ele><time>2026-04-28T12:26:02.029Z</time></trkpt><trkpt lat="38.8513799" lon="22.469016"><ele>6.0</ele><time>2026-04-28T12:26:03.029Z</time></trkpt><trkpt lat="38.8512092" lon="22.4691584"><ele>6.0</ele><time>2026-04-28T12:26:04.03Z</time></trkpt><trkpt lat="38.8510431" lon="22.4692973"><ele>6.0</ele><time>2026-04-28T12:26:05.029Z</time></trkpt><trkpt lat="38.8508888" lon="22.4694409"><ele>6.0</ele><time>2026-04-28T12:26:06.03Z</time></trkpt><trkpt lat="38.8507449" lon="22.4695698"><ele>6.0</ele><time>2026-04-28T12:26:07.028Z</time></trkpt><trkpt lat="38.8506172" lon="22.4696838"><ele>6.199999999999999</ele><time>2026-04-28T12:26:08.029Z</time></trkpt><trkpt lat="38.8504992" lon="22.4697939"><ele>6.3999999999999995</ele><time>2026-04-28T12:26:09.028Z</time></trkpt><trkpt lat="38.8504015" lon="22.4698838"><ele>6.6</ele><time>2026-04-28T12:26:10.029Z</time></trkpt><trkpt lat="38.850321" lon="22.4699545"><ele>6.8</ele><time>2026-04-28T12:26:11.03Z</time></trkpt><trkpt lat="38.8502492" lon="22.4699972"><ele>7.0</ele><time>2026-04-28T12:26:12.03Z</time></trkpt><trkpt lat="38.8501871" lon="22.4700116"><ele>6.8</ele><time>2026-04-28T12:26:13.03Z</time></trkpt><trkpt lat="38.8500894" lon="22.4699232"><ele>6.6</ele><time>2026-04-28T12:26:15.028Z</time></trkpt><trkpt lat="38.8500446" lon="22.46982"><ele>6.3999999999999995</ele><time>2026-04-28T12:26:16.029Z</time></trkpt><trkpt lat="38.8500018" lon="22.4697256"><ele>6.199999999999999</ele><time>2026-04-28T12:26:17.029Z</time></trkpt><trkpt lat="38.8499574" lon="22.4696181"><ele>6.0</ele><time>2026-04-28T12:26:18.029Z</time></trkpt><trkpt lat="38.8499075" lon="22.4695302"><ele>6.0</ele><time>2026-04-28T12:26:19.029Z</time></trkpt><trkpt lat="38.8498831" lon="22.4694512"><ele>6.0</ele><time>2026-04-28T12:26:20.03Z</time></trkpt><trkpt lat="38.849853" lon="22.4693655"><ele>6.0</ele><time>2026-04-28T12:26:22.03Z</time></trkpt><trkpt lat="38.8498218" lon="22.4692827"><ele>6.0</ele><time>2026-04-28T12:26:25.029Z</time></trkpt><trkpt lat="38.8497054" lon="22.4692842"><ele>6.0</ele><time>2026-04-28T12:26:27.029Z</time></trkpt><trkpt lat="38.8496319" lon="22.4693409"><ele>6.0</ele><time>2026-04-28T12:26:28.028Z</time></trkpt><trkpt lat="38.8495571" lon="22.469415"><ele>6.0</ele><time>2026-04-28T12:26:29.028Z</time></trkpt><trkpt lat="38.8494791" lon="22.4694916"><ele>6.0</ele><time>2026-04-28T12:26:30.028Z</time></trkpt><trkpt lat="38.8493886" lon="22.4695734"><ele>6.0</ele><time>2026-04-28T12:26:31.029Z</time></trkpt><trkpt lat="38.8492857" lon="22.4696704"><ele>6.0</ele><time>2026-04-28T12:26:32.029Z</time></trkpt><trkpt lat="38.8491719" lon="22.4697827"><ele>6.333333333333334</ele><time>2026-04-28T12:26:33.028Z</time></trkpt><trkpt lat="38.8490559" lon="22.4698918"><ele>6.666666666666667</ele><time>2026-04-28T12:26:34.029Z</time></trkpt><trkpt lat="38.8489235" lon="22.4700038"><ele>7.0</ele><time>2026-04-28T12:26:35.029Z</time></trkpt><trkpt lat="38.8487709" lon="22.470121"><ele>7.0</ele><time>2026-04-28T12:26:36.029Z</time></trkpt><trkpt lat="38.8486156" lon="22.4702288"><ele>7.0</ele><time>2026-04-28T12:26:37.03Z</time></trkpt><trkpt lat="38.8484489" lon="22.4703368"><ele>7.0</ele><time>2026-04-28T12:26:38.03Z</time></trkpt><trkpt lat="38.8482751" lon="22.470452"><ele>6.333333333333334</ele><time>2026-04-28T12:26:39.029Z</time></trkpt><trkpt lat="38.8481036" lon="22.4705761"><ele>5.666666666666667</ele><time>2026-04-28T12:26:40.029Z</time></trkpt><trkpt lat="38.8479292" lon="22.4706977"><ele>5.0</ele><time>2026-04-28T12:26:41.029Z</time></trkpt><trkpt lat="38.8477539" lon="22.4708195"><ele>5.666666666666667</ele><time>2026-04-28T12:26:42.03Z</time></trkpt><trkpt lat="38.8475751" lon="22.4709398"><ele>6.333333333333334</ele><time>2026-04-28T12:26:43.03Z</time></trkpt><trkpt lat="38.8473942" lon="22.4710597"><ele>7.0</ele><time>2026-04-28T12:26:44.028Z</time></trkpt><trkpt lat="38.8472089" lon="22.4711844"><ele>7.0</ele><time>2026-04-28T12:26:45.029Z</time></trkpt><trkpt lat="38.8470201" lon="22.4713111"><ele>7.0</ele><time>2026-04-28T12:26:46.03Z</time></trkpt><trkpt lat="38.846831" lon="22.4714453"><ele>7.0</ele><time>2026-04-28T12:26:47.028Z</time></trkpt><trkpt lat="38.8466442" lon="22.4715749"><ele>7.333333333333334</ele><time>2026-04-28T12:26:48.029Z</time></trkpt><trkpt lat="38.8464582" lon="22.4717005"><ele>7.666666666666666</ele><time>2026-04-28T12:26:49.029Z</time></trkpt><trkpt lat="38.8462738" lon="22.4718257"><ele>8.0</ele><time>2026-04-28T12:26:50.03Z</time></trkpt><trkpt lat="38.8460908" lon="22.471955"><ele>8.0</ele><time>2026-04-28T12:26:51.029Z</time></trkpt><trkpt lat="38.8459109" lon="22.4720789"><ele>8.0</ele><time>2026-04-28T12:26:52.028Z</time></trkpt><trkpt lat="38.8457326" lon="22.472202"><ele>8.0</ele><time>2026-04-28T12:26:53.029Z</time></trkpt><trkpt lat="38.8455541" lon="22.472324"><ele>8.0</ele><time>2026-04-28T12:26:54.028Z</time></trkpt><trkpt lat="38.8453753" lon="22.4724461"><ele>8.0</ele><time>2026-04-28T12:26:55.029Z</time></trkpt><trkpt lat="38.8451955" lon="22.4725721"><ele>8.0</ele><time>2026-04-28T12:26:56.03Z</time></trkpt><trkpt lat="38.8450223" lon="22.4726961"><ele>8.0</ele><time>2026-04-28T12:26:57.03Z</time></trkpt><trkpt lat="38.8448499" lon="22.4728137"><ele>8.0</ele><time>2026-04-28T12:26:58.03Z</time></trkpt><trkpt lat="38.8446762" lon="22.472928"><ele>8.0</ele><time>2026-04-28T12:26:59.03Z</time></trkpt><trkpt lat="38.8445015" lon="22.4730435"><ele>8.0</ele><time>2026-04-28T12:27:00.029Z</time></trkpt><trkpt lat="38.8443256" lon="22.473162"><ele>8.0</ele><time>2026-04-28T12:27:01.029Z</time></trkpt><trkpt lat="38.8441483" lon="22.4732834"><ele>8.0</ele><time>2026-04-28T12:27:02.03Z</time></trkpt><trkpt lat="38.8439686" lon="22.4734069"><ele>8.0</ele><time>2026-04-28T12:27:03.029Z</time></trkpt><trkpt lat="38.8437854" lon="22.4735283"><ele>8.0</ele><time>2026-04-28T12:27:04.03Z</time></trkpt><trkpt lat="38.8436017" lon="22.4736538"><ele>8.0</ele><time>2026-04-28T12:27:05.028Z</time></trkpt><trkpt lat="38.8434135" lon="22.4737841"><ele>8.0</ele><time>2026-04-28T12:27:06.028Z</time></trkpt><trkpt lat="38.8432243" lon="22.4739126"><ele>8.0</ele><time>2026-04-28T12:27:07.028Z</time></trkpt><trkpt lat="38.8430333" lon="22.4740381"><ele>8.0</ele><time>2026-04-28T12:27:08.028Z</time></trkpt><trkpt lat="38.842842" lon="22.4741676"><ele>8.0</ele><time>2026-04-28T12:27:09.029Z</time></trkpt><trkpt lat="38.842652" lon="22.4742998"><ele>8.0</ele><time>2026-04-28T12:27:10.029Z</time></trkpt><trkpt lat="38.8424619" lon="22.4744328"><ele>8.0</ele><time>2026-04-28T12:27:11.028Z</time></trkpt><trkpt lat="38.8422703" lon="22.4745636"><ele>8.0</ele><time>2026-04-28T12:27:12.029Z</time></trkpt><trkpt lat="38.8420796" lon="22.4746907"><ele>8.0</ele><time>2026-04-28T12:27:13.029Z</time></trkpt><trkpt lat="38.8418908" lon="22.4748188"><ele>8.0</ele><time>2026-04-28T12:27:14.03Z</time></trkpt><trkpt lat="38.841702" lon="22.4749458"><ele>8.0</ele><time>2026-04-28T12:27:15.028Z</time></trkpt><trkpt lat="38.8415144" lon="22.4750754"><ele>8.0</ele><time>2026-04-28T12:27:16.028Z</time></trkpt><trkpt lat="38.8413259" lon="22.4752034"><ele>8.0</ele><time>2026-04-28T12:27:17.029Z</time></trkpt><trkpt lat="38.841137" lon="22.4753316"><ele>7.666666666666666</ele><time>2026-04-28T12:27:18.03Z</time></trkpt><trkpt lat="38.8409494" lon="22.4754587"><ele>7.333333333333334</ele><time>2026-04-28T12:27:19.029Z</time></trkpt><trkpt lat="38.8407614" lon="22.4755886"><ele>7.0</ele><time>2026-04-28T12:27:20.028Z</time></trkpt><trkpt lat="38.8405731" lon="22.4757166"><ele>7.0</ele><time>2026-04-28T12:27:21.028Z</time></trkpt><trkpt lat="38.8403831" lon="22.4758418"><ele>7.0</ele><time>2026-04-28T12:27:22.029Z</time></trkpt><trkpt lat="38.8401931" lon="22.4759643"><ele>7.0</ele><time>2026-04-28T12:27:23.029Z</time></trkpt><trkpt lat="38.8400045" lon="22.4760932"><ele>7.0</ele><time>2026-04-28T12:27:24.029Z</time></trkpt><trkpt lat="38.8398181" lon="22.4762218"><ele>7.0</ele><time>2026-04-28T12:27:25.029Z</time></trkpt><trkpt lat="38.8396328" lon="22.476351"><ele>7.0</ele><time>2026-04-28T12:27:26.029Z</time></trkpt><trkpt lat="38.8394484" lon="22.4764797"><ele>7.333333333333334</ele><time>2026-04-28T12:27:27.028Z</time></trkpt><trkpt lat="38.8392632" lon="22.4766045"><ele>7.666666666666666</ele><time>2026-04-28T12:27:28.03Z</time></trkpt><trkpt lat="38.8390791" lon="22.4767289"><ele>8.0</ele><time>2026-04-28T12:27:29.029Z</time></trkpt><trkpt lat="38.8388945" lon="22.4768534"><ele>8.0</ele><time>2026-04-28T12:27:30.029Z</time></trkpt><trkpt lat="38.8387099" lon="22.4769783"><ele>8.0</ele><time>2026-04-28T12:27:31.03Z</time></trkpt><trkpt lat="38.8385293" lon="22.477103"><ele>8.0</ele><time>2026-04-28T12:27:32.03Z</time></trkpt><trkpt lat="38.8383461" lon="22.4772283"><ele>7.666666666666666</ele><time>2026-04-28T12:27:33.03Z</time></trkpt><trkpt lat="38.8381629" lon="22.4773524"><ele>7.333333333333334</ele><time>2026-04-28T12:27:34.03Z</time></trkpt><trkpt lat="38.8379823" lon="22.4774763"><ele>7.0</ele><time>2026-04-28T12:27:35.029Z</time></trkpt><trkpt lat="38.8378039" lon="22.4775999"><ele>7.333333333333334</ele><time>2026-04-28T12:27:36.029Z</time></trkpt><trkpt lat="38.8376264" lon="22.4777236"><ele>7.666666666666666</ele><time>2026-04-28T12:27:37.029Z</time></trkpt><trkpt lat="38.8374515" lon="22.4778416"><ele>8.0</ele><time>2026-04-28T12:27:38.029Z</time></trkpt><trkpt lat="38.8372772" lon="22.4779544"><ele>8.0</ele><time>2026-04-28T12:27:39.03Z</time></trkpt><trkpt lat="38.8371013" lon="22.4780602"><ele>8.0</ele><time>2026-04-28T12:27:40.029Z</time></trkpt><trkpt lat="38.8369209" lon="22.4781607"><ele>8.0</ele><time>2026-04-28T12:27:41.029Z</time></trkpt><trkpt lat="38.8367367" lon="22.4782576"><ele>6.333333333333333</ele><time>2026-04-28T12:27:42.029Z</time></trkpt><trkpt lat="38.8365478" lon="22.4783524"><ele>4.666666666666666</ele><time>2026-04-28T12:27:43.029Z</time></trkpt><trkpt lat="38.8363584" lon="22.4784593"><ele>3.0</ele><time>2026-04-28T12:27:44.029Z</time></trkpt><trkpt lat="38.8361729" lon="22.4785826"><ele>3.0</ele><time>2026-04-28T12:27:45.029Z</time></trkpt><trkpt lat="38.8359876" lon="22.4787242"><ele>3.0</ele><time>2026-04-28T12:27:46.03Z</time></trkpt><trkpt lat="38.8358044" lon="22.4788758"><ele>3.0</ele><time>2026-04-28T12:27:47.029Z</time></trkpt><trkpt lat="38.8356211" lon="22.4790308"><ele>3.333333333333333</ele><time>2026-04-28T12:27:48.03Z</time></trkpt><trkpt lat="38.8354342" lon="22.4791793"><ele>3.6666666666666665</ele><time>2026-04-28T12:27:49.029Z</time></trkpt><trkpt lat="38.8352424" lon="22.4793175"><ele>4.0</ele><time>2026-04-28T12:27:50.03Z</time></trkpt><trkpt lat="38.8350479" lon="22.4794529"><ele>4.0</ele><time>2026-04-28T12:27:51.029Z</time></trkpt><trkpt lat="38.8348519" lon="22.4795864"><ele>4.0</ele><time>2026-04-28T12:27:52.03Z</time></trkpt><trkpt lat="38.8346555" lon="22.4797201"><ele>4.0</ele><time>2026-04-28T12:27:53.03Z</time></trkpt><trkpt lat="38.8344593" lon="22.4798553"><ele>4.666666666666666</ele><time>2026-04-28T12:27:54.03Z</time></trkpt><trkpt lat="38.8342622" lon="22.4799865"><ele>5.333333333333333</ele><time>2026-04-28T12:27:55.029Z</time></trkpt><trkpt lat="38.8340651" lon="22.4801149"><ele>6.0</ele><time>2026-04-28T12:27:56.028Z</time></trkpt><trkpt lat="38.8338649" lon="22.480242"><ele>6.0</ele><time>2026-04-28T12:27:57.028Z</time></trkpt><trkpt lat="38.8336672" lon="22.4803686"><ele>6.0</ele><time>2026-04-28T12:27:58.029Z</time></trkpt><trkpt lat="38.8334655" lon="22.4804965"><ele>6.0</ele><time>2026-04-28T12:27:59.03Z</time></trkpt><trkpt lat="38.8332653" lon="22.4806281"><ele>8.0</ele><time>2026-04-28T12:28:00.028Z</time></trkpt><trkpt lat="38.8330628" lon="22.4807581"><ele>10.0</ele><time>2026-04-28T12:28:01.028Z</time></trkpt><trkpt lat="38.8328609" lon="22.480888"><ele>10.0</ele><time>2026-04-28T12:28:02.028Z</time></trkpt><trkpt lat="38.8326587" lon="22.4810155"><ele>10.0</ele><time>2026-04-28T12:28:03.029Z</time></trkpt><trkpt lat="38.8324577" lon="22.4811434"><ele>10.333333333333334</ele><time>2026-04-28T12:28:04.029Z</time></trkpt><trkpt lat="38.8322583" lon="22.4812707"><ele>10.666666666666666</ele><time>2026-04-28T12:28:05.03Z</time></trkpt><trkpt lat="38.8320587" lon="22.4813985"><ele>11.0</ele><time>2026-04-28T12:28:06.029Z</time></trkpt><trkpt lat="38.8318676" lon="22.4815185"><ele>10.0</ele><time>2026-04-28T12:28:07.029Z</time></trkpt><trkpt lat="38.8316859" lon="22.4816347"><ele>9.0</ele><time>2026-04-28T12:28:08.029Z</time></trkpt><trkpt lat="38.8315135" lon="22.4817454"><ele>8.0</ele><time>2026-04-28T12:28:09.029Z</time></trkpt><trkpt lat="38.8313498" lon="22.4818518"><ele>8.0</ele><time>2026-04-28T12:28:10.03Z</time></trkpt><trkpt lat="38.8311957" lon="22.4819472"><ele>8.0</ele><time>2026-04-28T12:28:11.03Z</time></trkpt><trkpt lat="38.8310459" lon="22.4820411"><ele>8.0</ele><time>2026-04-28T12:28:12.03Z</time></trkpt><trkpt lat="38.8309013" lon="22.4821337"><ele>7.0</ele><time>2026-04-28T12:28:13.029Z</time></trkpt><trkpt lat="38.8307651" lon="22.4822204"><ele>6.0</ele><time>2026-04-28T12:28:14.028Z</time></trkpt><trkpt lat="38.8306384" lon="22.4823106"><ele>5.0</ele><time>2026-04-28T12:28:15.03Z</time></trkpt><trkpt lat="38.8305279" lon="22.4824002"><ele>4.0</ele><time>2026-04-28T12:28:16.03Z</time></trkpt><trkpt lat="38.8304296" lon="22.4825117"><ele>4.0</ele><time>2026-04-28T12:28:17.029Z</time></trkpt><trkpt lat="38.8303501" lon="22.4826456"><ele>4.0</ele><time>2026-04-28T12:28:18.03Z</time></trkpt><trkpt lat="38.8303031" lon="22.482795"><ele>4.0</ele><time>2026-04-28T12:28:19.03Z</time></trkpt><trkpt lat="38.8302837" lon="22.4829432"><ele>4.0</ele><time>2026-04-28T12:28:20.029Z</time></trkpt><trkpt lat="38.830282" lon="22.4830709"><ele>4.5</ele><time>2026-04-28T12:28:21.028Z</time></trkpt><trkpt lat="38.8303095" lon="22.4832098"><ele>5.0</ele><time>2026-04-28T12:28:22.028Z</time></trkpt><trkpt lat="38.8303365" lon="22.4833204"><ele>5.5</ele><time>2026-04-28T12:28:23.029Z</time></trkpt><trkpt lat="38.8303494" lon="22.483428"><ele>6.0</ele><time>2026-04-28T12:28:24.03Z</time></trkpt><trkpt lat="38.8303089" lon="22.4834946"><ele>6.500000000000001</ele><time>2026-04-28T12:28:25.03Z</time></trkpt><trkpt lat="38.8303026" lon="22.4835753"><ele>7.0</ele><time>2026-04-28T12:28:26.029Z</time></trkpt><trkpt lat="38.8301522" lon="22.4836472"><ele>5.666666666666667</ele><time>2026-04-28T12:28:27.03Z</time></trkpt><trkpt lat="38.8300197" lon="22.4837576"><ele>4.333333333333334</ele><time>2026-04-28T12:28:28.03Z</time></trkpt><trkpt lat="38.8298533" lon="22.4838916"><ele>3.0</ele><time>2026-04-28T12:28:29.029Z</time></trkpt><trkpt lat="38.8297013" lon="22.4840304"><ele>3.0</ele><time>2026-04-28T12:28:30.029Z</time></trkpt><trkpt lat="38.8295472" lon="22.4842051"><ele>3.0</ele><time>2026-04-28T12:28:31.029Z</time></trkpt><trkpt lat="38.8294004" lon="22.4843977"><ele>3.0</ele><time>2026-04-28T12:28:32.028Z</time></trkpt><trkpt lat="38.8292674" lon="22.4846239"><ele>3.0</ele><time>2026-04-28T12:28:33.029Z</time></trkpt><trkpt lat="38.8291526" lon="22.484874"><ele>3.0</ele><time>2026-04-28T12:28:34.029Z</time></trkpt><trkpt lat="38.8290466" lon="22.4851538"><ele>3.5</ele><time>2026-04-28T12:28:35.03Z</time></trkpt><trkpt lat="38.8289433" lon="22.4854456"><ele>4.0</ele><time>2026-04-28T12:28:36.029Z</time></trkpt><trkpt lat="38.8288404" lon="22.4857299"><ele>4.0</ele><time>2026-04-28T12:28:37.029Z</time></trkpt><trkpt lat="38.8287282" lon="22.4859837"><ele>4.0</ele><time>2026-04-28T12:28:38.029Z</time></trkpt><trkpt lat="38.8286058" lon="22.486216"><ele>4.0</ele><time>2026-04-28T12:28:39.03Z</time></trkpt><trkpt lat="38.8284703" lon="22.4864236"><ele>4.0</ele><time>2026-04-28T12:28:40.028Z</time></trkpt><trkpt lat="38.8283178" lon="22.4865989"><ele>4.0</ele><time>2026-04-28T12:28:41.029Z</time></trkpt><trkpt lat="38.8281603" lon="22.4867669"><ele>4.0</ele><time>2026-04-28T12:28:42.029Z</time></trkpt><trkpt lat="38.8279901" lon="22.4869134"><ele>4.0</ele><time>2026-04-28T12:28:43.03Z</time></trkpt><trkpt lat="38.8278104" lon="22.4870289"><ele>4.0</ele><time>2026-04-28T12:28:44.028Z</time></trkpt><trkpt lat="38.8276291" lon="22.4871249"><ele>4.0</ele><time>2026-04-28T12:28:45.028Z</time></trkpt><trkpt lat="38.8274367" lon="22.4871924"><ele>4.666666666666666</ele><time>2026-04-28T12:28:46.03Z</time></trkpt><trkpt lat="38.8272338" lon="22.4872418"><ele>5.333333333333333</ele><time>2026-04-28T12:28:47.029Z</time></trkpt><trkpt lat="38.8270205" lon="22.4872724"><ele>6.0</ele><time>2026-04-28T12:28:48.029Z</time></trkpt><trkpt lat="38.8268141" lon="22.4872961"><ele>5.666666666666667</ele><time>2026-04-28T12:28:49.028Z</time></trkpt><trkpt lat="38.8266024" lon="22.4873156"><ele>5.333333333333334</ele><time>2026-04-28T12:28:50.03Z</time></trkpt><trkpt lat="38.8263891" lon="22.4873383"><ele>5.0</ele><time>2026-04-28T12:28:51.03Z</time></trkpt><trkpt lat="38.8261683" lon="22.4873681"><ele>5.0</ele><time>2026-04-28T12:28:52.028Z</time></trkpt><trkpt lat="38.8259388" lon="22.4874051"><ele>5.0</ele><time>2026-04-28T12:28:53.029Z</time></trkpt><trkpt lat="38.8257097" lon="22.4874484"><ele>5.0</ele><time>2026-04-28T12:28:54.029Z</time></trkpt><trkpt lat="38.8254808" lon="22.4875019"><ele>5.0</ele><time>2026-04-28T12:28:55.03Z</time></trkpt><trkpt lat="38.8252403" lon="22.48756"><ele>4.5</ele><time>2026-04-28T12:28:56.028Z</time></trkpt><trkpt lat="38.8250052" lon="22.4876272"><ele>4.0</ele><time>2026-04-28T12:28:57.028Z</time></trkpt><trkpt lat="38.8247684" lon="22.4877081"><ele>4.0</ele><time>2026-04-28T12:28:58.029Z</time></trkpt><trkpt lat="38.8245285" lon="22.4877952"><ele>4.0</ele><time>2026-04-28T12:28:59.03Z</time></trkpt><trkpt lat="38.8242873" lon="22.4878934"><ele>3.5</ele><time>2026-04-28T12:29:00.029Z</time></trkpt><trkpt lat="38.8240449" lon="22.4880037"><ele>3.0</ele><time>2026-04-28T12:29:01.029Z</time></trkpt><trkpt lat="38.8237993" lon="22.4881243"><ele>3.0</ele><time>2026-04-28T12:29:02.029Z</time></trkpt><trkpt lat="38.8235529" lon="22.4882567"><ele>3.0</ele><time>2026-04-28T12:29:03.029Z</time></trkpt><trkpt lat="38.823307" lon="22.4883984"><ele>4.5</ele><time>2026-04-28T12:29:04.029Z</time></trkpt><trkpt lat="38.8230638" lon="22.4885492"><ele>6.0</ele><time>2026-04-28T12:29:05.03Z</time></trkpt><trkpt lat="38.8228214" lon="22.4887076"><ele>5.0</ele><time>2026-04-28T12:29:06.029Z</time></trkpt><trkpt lat="38.8225813" lon="22.4888663"><ele>4.0</ele><time>2026-04-28T12:29:07.029Z</time></trkpt><trkpt lat="38.8223433" lon="22.4890257"><ele>4.0</ele><time>2026-04-28T12:29:08.029Z</time></trkpt><trkpt lat="38.8221052" lon="22.4891862"><ele>4.0</ele><time>2026-04-28T12:29:09.028Z</time></trkpt><trkpt lat="38.8218712" lon="22.4893454"><ele>4.5</ele><time>2026-04-28T12:29:10.029Z</time></trkpt><trkpt lat="38.8216376" lon="22.4895045"><ele>5.0</ele><time>2026-04-28T12:29:11.03Z</time></trkpt><trkpt lat="38.8214074" lon="22.4896687"><ele>5.0</ele><time>2026-04-28T12:29:12.028Z</time></trkpt><trkpt lat="38.8211805" lon="22.4898391"><ele>5.0</ele><time>2026-04-28T12:29:13.028Z</time></trkpt><trkpt lat="38.8209582" lon="22.4900146"><ele>4.5</ele><time>2026-04-28T12:29:14.028Z</time></trkpt><trkpt lat="38.8207378" lon="22.4901898"><ele>4.0</ele><time>2026-04-28T12:29:15.03Z</time></trkpt><trkpt lat="38.8205148" lon="22.4903578"><ele>4.0</ele><time>2026-04-28T12:29:16.03Z</time></trkpt><trkpt lat="38.820289" lon="22.4905207"><ele>4.0</ele><time>2026-04-28T12:29:17.029Z</time></trkpt><trkpt lat="38.8200594" lon="22.4906766"><ele>5.0</ele><time>2026-04-28T12:29:18.029Z</time></trkpt><trkpt lat="38.8198277" lon="22.4908334"><ele>6.0</ele><time>2026-04-28T12:29:19.028Z</time></trkpt><trkpt lat="38.8195918" lon="22.4909941"><ele>6.0</ele><time>2026-04-28T12:29:20.03Z</time></trkpt><trkpt lat="38.8193538" lon="22.4911581"><ele>6.0</ele><time>2026-04-28T12:29:21.03Z</time></trkpt><trkpt lat="38.8191121" lon="22.4913226"><ele>5.5</ele><time>2026-04-28T12:29:22.03Z</time></trkpt><trkpt lat="38.8188698" lon="22.4914861"><ele>5.0</ele><time>2026-04-28T12:29:23.029Z</time></trkpt><trkpt lat="38.8186274" lon="22.4916501"><ele>6.0</ele><time>2026-04-28T12:29:24.03Z</time></trkpt><trkpt lat="38.8183854" lon="22.4918143"><ele>7.0</ele><time>2026-04-28T12:29:25.028Z</time></trkpt><trkpt lat="38.8181424" lon="22.4919776"><ele>6.5</ele><time>2026-04-28T12:29:26.029Z</time></trkpt><trkpt lat="38.8179002" lon="22.492141"><ele>6.0</ele><time>2026-04-28T12:29:27.03Z</time></trkpt><trkpt lat="38.8176588" lon="22.4923069"><ele>4.0</ele><time>2026-04-28T12:29:28.03Z</time></trkpt><trkpt lat="38.8174179" lon="22.4924732"><ele>2.0</ele><time>2026-04-28T12:29:29.028Z</time></trkpt><trkpt lat="38.8171768" lon="22.4926377"><ele>2.0</ele><time>2026-04-28T12:29:30.029Z</time></trkpt><trkpt lat="38.8169363" lon="22.4928022"><ele>2.0</ele><time>2026-04-28T12:29:31.029Z</time></trkpt><trkpt lat="38.8166957" lon="22.4929663"><ele>3.5</ele><time>2026-04-28T12:29:32.029Z</time></trkpt><trkpt lat="38.8164556" lon="22.4931309"><ele>5.0</ele><time>2026-04-28T12:29:33.03Z</time></trkpt><trkpt lat="38.8162162" lon="22.4932933"><ele>5.0</ele><time>2026-04-28T12:29:34.029Z</time></trkpt><trkpt lat="38.8159773" lon="22.4934564"><ele>5.0</ele><time>2026-04-28T12:29:35.03Z</time></trkpt><trkpt lat="38.8157396" lon="22.4936198"><ele>4.5</ele><time>2026-04-28T12:29:36.029Z</time></trkpt><trkpt lat="38.8155024" lon="22.4937812"><ele>4.0</ele><time>2026-04-28T12:29:37.028Z</time></trkpt><trkpt lat="38.8152654" lon="22.4939414"><ele>5.5</ele><time>2026-04-28T12:29:38.029Z</time></trkpt><trkpt lat="38.8150295" lon="22.4941026"><ele>7.0</ele><time>2026-04-28T12:29:39.029Z</time></trkpt><trkpt lat="38.8147941" lon="22.4942622"><ele>7.0</ele><time>2026-04-28T12:29:40.029Z</time></trkpt><trkpt lat="38.8145597" lon="22.4944194"><ele>7.0</ele><time>2026-04-28T12:29:41.028Z</time></trkpt><trkpt lat="38.814328" lon="22.4945733"><ele>6.0</ele><time>2026-04-28T12:29:42.028Z</time></trkpt><trkpt lat="38.8141001" lon="22.4947191"><ele>5.0</ele><time>2026-04-28T12:29:43.029Z</time></trkpt><trkpt lat="38.8138808" lon="22.4948512"><ele>5.0</ele><time>2026-04-28T12:29:44.028Z</time></trkpt><trkpt lat="38.8136716" lon="22.4949745"><ele>5.0</ele><time>2026-04-28T12:29:45.027Z</time></trkpt><trkpt lat="38.8134701" lon="22.4950946"><ele>6.666666666666667</ele><time>2026-04-28T12:29:46.028Z</time></trkpt><trkpt lat="38.8132734" lon="22.4952168"><ele>8.333333333333334</ele><time>2026-04-28T12:29:47.028Z</time></trkpt><trkpt lat="38.8130827" lon="22.4953429"><ele>10.0</ele><time>2026-04-28T12:29:48.028Z</time></trkpt><trkpt lat="38.8128946" lon="22.4954723"><ele>11.0</ele><time>2026-04-28T12:29:49.028Z</time></trkpt><trkpt lat="38.8127031" lon="22.4956046"><ele>12.0</ele><time>2026-04-28T12:29:50.027Z</time></trkpt><trkpt lat="38.8125124" lon="22.4957519"><ele>13.0</ele><time>2026-04-28T12:29:51.029Z</time></trkpt><trkpt lat="38.812304" lon="22.4958733"><ele>15.5</ele><time>2026-04-28T12:29:52.027Z</time></trkpt><trkpt lat="38.8121035" lon="22.4960115"><ele>18.0</ele><time>2026-04-28T12:29:53.029Z</time></trkpt><trkpt lat="38.8119078" lon="22.4961463"><ele>13.666666666666666</ele><time>2026-04-28T12:29:54.029Z</time></trkpt><trkpt lat="38.8117156" lon="22.4962867"><ele>9.333333333333334</ele><time>2026-04-28T12:29:55.029Z</time></trkpt><trkpt lat="38.8115225" lon="22.4964309"><ele>5.0</ele><time>2026-04-28T12:29:56.029Z</time></trkpt><trkpt lat="38.8113287" lon="22.4965774"><ele>5.0</ele><time>2026-04-28T12:29:57.028Z</time></trkpt><trkpt lat="38.8111326" lon="22.4967245"><ele>5.0</ele><time>2026-04-28T12:29:58.028Z</time></trkpt><trkpt lat="38.8109376" lon="22.4968618"><ele>4.666666666666667</ele><time>2026-04-28T12:29:59.029Z</time></trkpt><trkpt lat="38.81074" lon="22.4969901"><ele>4.333333333333333</ele><time>2026-04-28T12:30:00.029Z</time></trkpt><trkpt lat="38.8105436" lon="22.4971077"><ele>4.0</ele><time>2026-04-28T12:30:01.028Z</time></trkpt><trkpt lat="38.8103457" lon="22.4972188"><ele>5.0</ele><time>2026-04-28T12:30:02.029Z</time></trkpt><trkpt lat="38.810147" lon="22.4973306"><ele>6.0</ele><time>2026-04-28T12:30:03.027Z</time></trkpt><trkpt lat="38.8099466" lon="22.4974491"><ele>7.0</ele><time>2026-04-28T12:30:04.029Z</time></trkpt><trkpt lat="38.8097434" lon="22.497576"><ele>7.0</ele><time>2026-04-28T12:30:05.028Z</time></trkpt><trkpt lat="38.809538" lon="22.497713"><ele>7.0</ele><time>2026-04-28T12:30:06.028Z</time></trkpt><trkpt lat="38.8093345" lon="22.497853"><ele>6.0</ele><time>2026-04-28T12:30:07.029Z</time></trkpt><trkpt lat="38.8091329" lon="22.4979909"><ele>5.0</ele><time>2026-04-28T12:30:08.027Z</time></trkpt><trkpt lat="38.8089345" lon="22.4981275"><ele>5.0</ele><time>2026-04-28T12:30:09.028Z</time></trkpt><trkpt lat="38.808739" lon="22.4982601"><ele>5.0</ele><time>2026-04-28T12:30:10.028Z</time></trkpt><trkpt lat="38.8085479" lon="22.498391"><ele>5.0</ele><time>2026-04-28T12:30:11.029Z</time></trkpt><trkpt lat="38.8083606" lon="22.4985181"><ele>5.0</ele><time>2026-04-28T12:30:12.029Z</time></trkpt><trkpt lat="38.8081743" lon="22.4986451"><ele>5.0</ele><time>2026-04-28T12:30:13.028Z</time></trkpt><trkpt lat="38.8079951" lon="22.498768"><ele>5.0</ele><time>2026-04-28T12:30:14.029Z</time></trkpt><trkpt lat="38.8078116" lon="22.4988952"><ele>6.0</ele><time>2026-04-28T12:30:15.028Z</time></trkpt><trkpt lat="38.8076265" lon="22.4990214"><ele>7.0</ele><time>2026-04-28T12:30:16.028Z</time></trkpt><trkpt lat="38.8074391" lon="22.4991513"><ele>8.0</ele><time>2026-04-28T12:30:17.027Z</time></trkpt><trkpt lat="38.8072494" lon="22.4992814"><ele>8.0</ele><time>2026-04-28T12:30:18.027Z</time></trkpt><trkpt lat="38.8070594" lon="22.4994102"><ele>8.0</ele><time>2026-04-28T12:30:19.028Z</time></trkpt><trkpt lat="38.8068694" lon="22.4995372"><ele>8.0</ele><time>2026-04-28T12:30:20.027Z</time></trkpt><trkpt lat="38.8066814" lon="22.4996627"><ele>7.333333333333333</ele><time>2026-04-28T12:30:21.029Z</time></trkpt><trkpt lat="38.8064949" lon="22.4997886"><ele>6.666666666666666</ele><time>2026-04-28T12:30:22.029Z</time></trkpt><trkpt lat="38.8063107" lon="22.4999151"><ele>6.0</ele><time>2026-04-28T12:30:23.028Z</time></trkpt><trkpt lat="38.8061301" lon="22.5000378"><ele>6.333333333333334</ele><time>2026-04-28T12:30:24.028Z</time></trkpt><trkpt lat="38.8059513" lon="22.5001643"><ele>6.666666666666667</ele><time>2026-04-28T12:30:25.027Z</time></trkpt><trkpt lat="38.8057759" lon="22.5002895"><ele>7.0</ele><time>2026-04-28T12:30:26.028Z</time></trkpt><trkpt lat="38.8056036" lon="22.5004158"><ele>6.666666666666667</ele><time>2026-04-28T12:30:27.029Z</time></trkpt><trkpt lat="38.805435" lon="22.5005449"><ele>6.333333333333334</ele><time>2026-04-28T12:30:28.028Z</time></trkpt><trkpt lat="38.8052703" lon="22.5006789"><ele>6.0</ele><time>2026-04-28T12:30:29.028Z</time></trkpt><trkpt lat="38.8051066" lon="22.5008178"><ele>6.0</ele><time>2026-04-28T12:30:30.029Z</time></trkpt><trkpt lat="38.8049405" lon="22.5009604"><ele>6.0</ele><time>2026-04-28T12:30:31.029Z</time></trkpt><trkpt lat="38.804772" lon="22.5011074"><ele>6.0</ele><time>2026-04-28T12:30:32.028Z</time></trkpt><trkpt lat="38.8046059" lon="22.5012615"><ele>5.666666666666667</ele><time>2026-04-28T12:30:33.027Z</time></trkpt><trkpt lat="38.8044455" lon="22.5014086"><ele>5.333333333333334</ele><time>2026-04-28T12:30:34.028Z</time></trkpt><trkpt lat="38.8042949" lon="22.5015575"><ele>5.0</ele><time>2026-04-28T12:30:35.029Z</time></trkpt><trkpt lat="38.8041517" lon="22.5016974"><ele>6.0</ele><time>2026-04-28T12:30:36.029Z</time></trkpt><trkpt lat="38.8040155" lon="22.5018409"><ele>7.0</ele><time>2026-04-28T12:30:37.028Z</time></trkpt><trkpt lat="38.8038928" lon="22.5019808"><ele>8.0</ele><time>2026-04-28T12:30:38.028Z</time></trkpt><trkpt lat="38.8037769" lon="22.502109"><ele>8.0</ele><time>2026-04-28T12:30:39.028Z</time></trkpt><trkpt lat="38.8036684" lon="22.5022314"><ele>8.0</ele><time>2026-04-28T12:30:40.028Z</time></trkpt><trkpt lat="38.803563" lon="22.5023424"><ele>8.0</ele><time>2026-04-28T12:30:41.029Z</time></trkpt><trkpt lat="38.8034668" lon="22.5024578"><ele>8.0</ele><time>2026-04-28T12:30:42.028Z</time></trkpt><trkpt lat="38.803383" lon="22.5025686"><ele>7.833333333333333</ele><time>2026-04-28T12:30:43.027Z</time></trkpt><trkpt lat="38.8033231" lon="22.5026542"><ele>7.666666666666666</ele><time>2026-04-28T12:30:44.027Z</time></trkpt><trkpt lat="38.8032762" lon="22.5027312"><ele>7.5</ele><time>2026-04-28T12:30:45.029Z</time></trkpt><trkpt lat="38.8032314" lon="22.5028021"><ele>7.333333333333334</ele><time>2026-04-28T12:30:47.029Z</time></trkpt><trkpt lat="38.8031894" lon="22.5028963"><ele>7.166666666666667</ele><time>2026-04-28T12:30:57.028Z</time></trkpt><trkpt lat="38.803158" lon="22.5029681"><ele>7.0</ele><time>2026-04-28T12:30:58.028Z</time></trkpt><trkpt lat="38.8031332" lon="22.5030524"><ele>7.0</ele><time>2026-04-28T12:30:59.027Z</time></trkpt><trkpt lat="38.8031105" lon="22.5031315"><ele>7.0</ele><time>2026-04-28T12:31:00.029Z</time></trkpt><trkpt lat="38.8030868" lon="22.5032085"><ele>7.0</ele><time>2026-04-28T12:31:01.027Z</time></trkpt><trkpt lat="38.8030724" lon="22.5032899"><ele>7.0</ele><time>2026-04-28T12:31:02.028Z</time></trkpt><trkpt lat="38.8030597" lon="22.5033751"><ele>7.0</ele><time>2026-04-28T12:31:03.028Z</time></trkpt><trkpt lat="38.8030475" lon="22.5034663"><ele>7.0</ele><time>2026-04-28T12:31:04.028Z</time></trkpt><trkpt lat="38.8030342" lon="22.5035641"><ele>7.0</ele><time>2026-04-28T12:31:05.028Z</time></trkpt><trkpt lat="38.8030196" lon="22.5036654"><ele>7.500000000000001</ele><time>2026-04-28T12:31:06.027Z</time></trkpt><trkpt lat="38.8029964" lon="22.5037666"><ele>8.0</ele><time>2026-04-28T12:31:07.027Z</time></trkpt><trkpt lat="38.8029635" lon="22.5038644"><ele>8.5</ele><time>2026-04-28T12:31:08.029Z</time></trkpt><trkpt lat="38.8029162" lon="22.503957"><ele>9.0</ele><time>2026-04-28T12:31:09.028Z</time></trkpt><trkpt lat="38.8028497" lon="22.5040246"><ele>9.5</ele><time>2026-04-28T12:31:10.027Z</time></trkpt><trkpt lat="38.8027746" lon="22.5040726"><ele>10.0</ele><time>2026-04-28T12:31:11.028Z</time></trkpt><trkpt lat="38.8026977" lon="22.504093"><ele>9.5</ele><time>2026-04-28T12:31:12.028Z</time></trkpt><trkpt lat="38.802633" lon="22.5040937"><ele>9.0</ele><time>2026-04-28T12:31:13.028Z</time></trkpt><trkpt lat="38.8025704" lon="22.5040827"><ele>8.5</ele><time>2026-04-28T12:31:14.028Z</time></trkpt><trkpt lat="38.8024851" lon="22.5040594"><ele>8.0</ele><time>2026-04-28T12:31:16.028Z</time></trkpt><trkpt lat="38.8024155" lon="22.5040521"><ele>7.500000000000001</ele><time>2026-04-28T12:31:18.029Z</time></trkpt><trkpt lat="38.8023455" lon="22.504156"><ele>7.0</ele><time>2026-04-28T12:31:20.029Z</time></trkpt><trkpt lat="38.802315" lon="22.5042669"><ele>7.0</ele><time>2026-04-28T12:31:21.027Z</time></trkpt><trkpt lat="38.8022897" lon="22.5043862"><ele>6.999999999999999</ele><time>2026-04-28T12:31:22.029Z</time></trkpt><trkpt lat="38.8022631" lon="22.5045177"><ele>6.999999999999999</ele><time>2026-04-28T12:31:23.027Z</time></trkpt><trkpt lat="38.802231" lon="22.5046576"><ele>7.0</ele><time>2026-04-28T12:31:24.027Z</time></trkpt><trkpt lat="38.802188" lon="22.5047911"><ele>7.0</ele><time>2026-04-28T12:31:25.028Z</time></trkpt><trkpt lat="38.802142" lon="22.504922"><ele>6.75</ele><time>2026-04-28T12:31:26.027Z</time></trkpt><trkpt lat="38.8020948" lon="22.5050516"><ele>6.5</ele><time>2026-04-28T12:31:27.027Z</time></trkpt><trkpt lat="38.802045" lon="22.5051823"><ele>6.25</ele><time>2026-04-28T12:31:28.028Z</time></trkpt><trkpt lat="38.8019804" lon="22.5053199"><ele>6.0</ele><time>2026-04-28T12:31:29.027Z</time></trkpt><trkpt lat="38.8019027" lon="22.5054611"><ele>6.0</ele><time>2026-04-28T12:31:30.029Z</time></trkpt><trkpt lat="38.8018184" lon="22.5055987"><ele>6.0</ele><time>2026-04-28T12:31:31.029Z</time></trkpt><trkpt lat="38.8017273" lon="22.5057378"><ele>6.0</ele><time>2026-04-28T12:31:32.028Z</time></trkpt><trkpt lat="38.801634" lon="22.5058851"><ele>6.0</ele><time>2026-04-28T12:31:33.028Z</time></trkpt><trkpt lat="38.801542" lon="22.5060429"><ele>6.0</ele><time>2026-04-28T12:31:34.027Z</time></trkpt><trkpt lat="38.8014404" lon="22.5061983"><ele>6.0</ele><time>2026-04-28T12:31:35.028Z</time></trkpt><trkpt lat="38.8013392" lon="22.5063507"><ele>6.0</ele><time>2026-04-28T12:31:36.028Z</time></trkpt><trkpt lat="38.8012371" lon="22.5065075"><ele>6.333333333333334</ele><time>2026-04-28T12:31:37.029Z</time></trkpt><trkpt lat="38.8011332" lon="22.5066624"><ele>6.666666666666667</ele><time>2026-04-28T12:31:38.028Z</time></trkpt><trkpt lat="38.8010288" lon="22.5068235"><ele>7.0</ele><time>2026-04-28T12:31:39.027Z</time></trkpt><trkpt lat="38.8009232" lon="22.5069894"><ele>8.666666666666668</ele><time>2026-04-28T12:31:40.028Z</time></trkpt><trkpt lat="38.8008184" lon="22.5071635"><ele>10.333333333333334</ele><time>2026-04-28T12:31:41.029Z</time></trkpt><trkpt lat="38.8007141" lon="22.5073408"><ele>12.0</ele><time>2026-04-28T12:31:42.029Z</time></trkpt><trkpt lat="38.8006147" lon="22.5075272"><ele>12.0</ele><time>2026-04-28T12:31:43.029Z</time></trkpt><trkpt lat="38.8005143" lon="22.5077226"><ele>12.0</ele><time>2026-04-28T12:31:44.027Z</time></trkpt><trkpt lat="38.8004218" lon="22.5079367"><ele>12.0</ele><time>2026-04-28T12:31:45.028Z</time></trkpt><trkpt lat="38.8003317" lon="22.5081585"><ele>10.666666666666666</ele><time>2026-04-28T12:31:46.028Z</time></trkpt><trkpt lat="38.8002519" lon="22.5083818"><ele>9.333333333333332</ele><time>2026-04-28T12:31:47.029Z</time></trkpt><trkpt lat="38.8001811" lon="22.5086114"><ele>8.0</ele><time>2026-04-28T12:31:48.028Z</time></trkpt><trkpt lat="38.8001162" lon="22.5088534"><ele>10.666666666666666</ele><time>2026-04-28T12:31:49.027Z</time></trkpt><trkpt lat="38.8000586" lon="22.5091007"><ele>13.333333333333332</ele><time>2026-04-28T12:31:50.027Z</time></trkpt><trkpt lat="38.8000079" lon="22.5093589"><ele>16.0</ele><time>2026-04-28T12:31:51.028Z</time></trkpt><trkpt lat="38.7999657" lon="22.5096232"><ele>17.333333333333332</ele><time>2026-04-28T12:31:52.027Z</time></trkpt><trkpt lat="38.7999331" lon="22.5098884"><ele>18.666666666666668</ele><time>2026-04-28T12:31:53.029Z</time></trkpt><trkpt lat="38.7999127" lon="22.5101537"><ele>20.0</ele><time>2026-04-28T12:31:54.028Z</time></trkpt><trkpt lat="38.7999037" lon="22.5104156"><ele>20.0</ele><time>2026-04-28T12:31:55.028Z</time></trkpt><trkpt lat="38.7999074" lon="22.5106738"><ele>20.0</ele><time>2026-04-28T12:31:56.027Z</time></trkpt><trkpt lat="38.7999187" lon="22.5109243"><ele>20.0</ele><time>2026-04-28T12:31:57.028Z</time></trkpt><trkpt lat="38.7999333" lon="22.511163"><ele>20.666666666666668</ele><time>2026-04-28T12:31:58.028Z</time></trkpt><trkpt lat="38.7999538" lon="22.5113823"><ele>21.333333333333332</ele><time>2026-04-28T12:31:59.027Z</time></trkpt><trkpt lat="38.799969" lon="22.5115863"><ele>22.0</ele><time>2026-04-28T12:32:00.029Z</time></trkpt><trkpt lat="38.7999799" lon="22.51178"><ele>22.0</ele><time>2026-04-28T12:32:01.027Z</time></trkpt><trkpt lat="38.7999858" lon="22.5119508"><ele>22.0</ele><time>2026-04-28T12:32:02.027Z</time></trkpt><trkpt lat="38.7999834" lon="22.5120859"><ele>22.0</ele><time>2026-04-28T12:32:03.028Z</time></trkpt><trkpt lat="38.799965" lon="22.512191"><ele>22.0</ele><time>2026-04-28T12:32:04.027Z</time></trkpt><trkpt lat="38.7999295" lon="22.5122886"><ele>22.0</ele><time>2026-04-28T12:32:05.027Z</time></trkpt><trkpt lat="38.7998865" lon="22.5123623"><ele>22.5</ele><time>2026-04-28T12:32:06.029Z</time></trkpt><trkpt lat="38.7997299" lon="22.5123674"><ele>23.0</ele><time>2026-04-28T12:32:08.029Z</time></trkpt><trkpt lat="38.7996399" lon="22.5123429"><ele>23.5</ele><time>2026-04-28T12:32:09.027Z</time></trkpt><trkpt lat="38.7995142" lon="22.51231"><ele>24.0</ele><time>2026-04-28T12:32:10.027Z</time></trkpt><trkpt lat="38.7993559" lon="22.512266"><ele>26.0</ele><time>2026-04-28T12:32:11.029Z</time></trkpt><trkpt lat="38.7991873" lon="22.5122226"><ele>28.0</ele><time>2026-04-28T12:32:12.028Z</time></trkpt><trkpt lat="38.7990348" lon="22.5121823"><ele>30.0</ele><time>2026-04-28T12:32:13.029Z</time></trkpt><trkpt lat="38.7988697" lon="22.5121342"><ele>30.0</ele><time>2026-04-28T12:32:14.028Z</time></trkpt><trkpt lat="38.7987129" lon="22.5120843"><ele>30.0</ele><time>2026-04-28T12:32:15.027Z</time></trkpt><trkpt lat="38.7985806" lon="22.5120482"><ele>30.0</ele><time>2026-04-28T12:32:16.027Z</time></trkpt><trkpt lat="38.7984381" lon="22.5120041"><ele>30.0</ele><time>2026-04-28T12:32:17.029Z</time></trkpt><trkpt lat="38.7982921" lon="22.5119443"><ele>31.333333333333336</ele><time>2026-04-28T12:32:18.027Z</time></trkpt><trkpt lat="38.7981535" lon="22.51187"><ele>32.66666666666667</ele><time>2026-04-28T12:32:19.027Z</time></trkpt><trkpt lat="38.798022" lon="22.511754"><ele>34.0</ele><time>2026-04-28T12:32:20.029Z</time></trkpt><trkpt lat="38.7979051" lon="22.5116066"><ele>34.0</ele><time>2026-04-28T12:32:21.029Z</time></trkpt><trkpt lat="38.7978117" lon="22.5114343"><ele>34.0</ele><time>2026-04-28T12:32:22.028Z</time></trkpt><trkpt lat="38.7977416" lon="22.5112402"><ele>34.0</ele><time>2026-04-28T12:32:23.027Z</time></trkpt><trkpt lat="38.7976938" lon="22.5110244"><ele>33.333333333333336</ele><time>2026-04-28T12:32:24.028Z</time></trkpt><trkpt lat="38.7976933" lon="22.5107541"><ele>32.666666666666664</ele><time>2026-04-28T12:32:25.028Z</time></trkpt><trkpt lat="38.7977054" lon="22.5104515"><ele>32.0</ele><time>2026-04-28T12:32:26.028Z</time></trkpt><trkpt lat="38.7977201" lon="22.5101597"><ele>30.5</ele><time>2026-04-28T12:32:27.028Z</time></trkpt><trkpt lat="38.7977379" lon="22.5098618"><ele>29.0</ele><time>2026-04-28T12:32:28.027Z</time></trkpt><trkpt lat="38.7977564" lon="22.5095621"><ele>29.0</ele><time>2026-04-28T12:32:29.029Z</time></trkpt><trkpt lat="38.7977783" lon="22.5092635"><ele>29.0</ele><time>2026-04-28T12:32:30.029Z</time></trkpt><trkpt lat="38.7978105" lon="22.5089642"><ele>30.666666666666664</ele><time>2026-04-28T12:32:31.029Z</time></trkpt><trkpt lat="38.7978582" lon="22.5086852"><ele>32.333333333333336</ele><time>2026-04-28T12:32:32.028Z</time></trkpt><trkpt lat="38.797937" lon="22.5084238"><ele>34.0</ele><time>2026-04-28T12:32:33.028Z</time></trkpt><trkpt lat="38.7980433" lon="22.5081761"><ele>34.0</ele><time>2026-04-28T12:32:34.028Z</time></trkpt><trkpt lat="38.7981722" lon="22.507936"><ele>34.0</ele><time>2026-04-28T12:32:35.028Z</time></trkpt><trkpt lat="38.7983136" lon="22.5076898"><ele>35.0</ele><time>2026-04-28T12:32:36.028Z</time></trkpt><trkpt lat="38.7984767" lon="22.5074407"><ele>36.0</ele><time>2026-04-28T12:32:37.029Z</time></trkpt><trkpt lat="38.7986566" lon="22.5071736"><ele>36.5</ele><time>2026-04-28T12:32:38.028Z</time></trkpt><trkpt lat="38.7988439" lon="22.5068886"><ele>37.0</ele><time>2026-04-28T12:32:39.028Z</time></trkpt><trkpt lat="38.7990384" lon="22.5065856"><ele>37.0</ele><time>2026-04-28T12:32:40.028Z</time></trkpt><trkpt lat="38.7992303" lon="22.506289"><ele>37.0</ele><time>2026-04-28T12:32:41.028Z</time></trkpt><trkpt lat="38.7994219" lon="22.5059974"><ele>40.0</ele><time>2026-04-28T12:32:42.028Z</time></trkpt><trkpt lat="38.7996141" lon="22.5057025"><ele>43.0</ele><time>2026-04-28T12:32:43.029Z</time></trkpt><trkpt lat="38.7998027" lon="22.5054123"><ele>48.0</ele><time>2026-04-28T12:32:44.029Z</time></trkpt><trkpt lat="38.7999899" lon="22.5051208"><ele>53.0</ele><time>2026-04-28T12:32:45.028Z</time></trkpt><trkpt lat="38.8001689" lon="22.504836"><ele>49.5</ele><time>2026-04-28T12:32:46.028Z</time></trkpt><trkpt lat="38.8003366" lon="22.5045653"><ele>46.0</ele><time>2026-04-28T12:32:47.028Z</time></trkpt><trkpt lat="38.8004823" lon="22.5042983"><ele>46.0</ele><time>2026-04-28T12:32:48.028Z</time></trkpt><trkpt lat="38.8006083" lon="22.5040237"><ele>46.0</ele><time>2026-04-28T12:32:49.027Z</time></trkpt><trkpt lat="38.8007126" lon="22.5037351"><ele>52.0</ele><time>2026-04-28T12:32:50.028Z</time></trkpt><trkpt lat="38.800795" lon="22.5034296"><ele>58.0</ele><time>2026-04-28T12:32:51.027Z</time></trkpt><trkpt lat="38.8008571" lon="22.503111"><ele>64.0</ele><time>2026-04-28T12:32:52.028Z</time></trkpt><trkpt lat="38.8008966" lon="22.5027794"><ele>70.0</ele><time>2026-04-28T12:32:53.027Z</time></trkpt><trkpt lat="38.8009177" lon="22.5024268"><ele>69.0</ele><time>2026-04-28T12:32:54.028Z</time></trkpt><trkpt lat="38.8009269" lon="22.5020593"><ele>68.0</ele><time>2026-04-28T12:32:55.028Z</time></trkpt><trkpt lat="38.8009301" lon="22.5016981"><ele>68.0</ele><time>2026-04-28T12:32:56.028Z</time></trkpt><trkpt lat="38.8009295" lon="22.5013334"><ele>68.0</ele><time>2026-04-28T12:32:57.028Z</time></trkpt><trkpt lat="38.8009265" lon="22.5009753"><ele>74.0</ele><time>2026-04-28T12:32:58.028Z</time></trkpt><trkpt lat="38.8009224" lon="22.500626"><ele>80.0</ele><time>2026-04-28T12:32:59.028Z</time></trkpt><trkpt lat="38.8009178" lon="22.5002756"><ele>85.0</ele><time>2026-04-28T12:33:00.028Z</time></trkpt><trkpt lat="38.8009158" lon="22.4999263"><ele>90.0</ele><time>2026-04-28T12:33:01.028Z</time></trkpt><trkpt lat="38.8009099" lon="22.4995911"><ele>89.0</ele><time>2026-04-28T12:33:02.029Z</time></trkpt><trkpt lat="38.8009053" lon="22.4992862"><ele>88.0</ele><time>2026-04-28T12:33:03.027Z</time></trkpt><trkpt lat="38.8009114" lon="22.4990001"><ele>87.5</ele><time>2026-04-28T12:33:04.029Z</time></trkpt><trkpt lat="38.800933" lon="22.4987098"><ele>87.0</ele><time>2026-04-28T12:33:05.028Z</time></trkpt><trkpt lat="38.8009776" lon="22.4984018"><ele>80.0</ele><time>2026-04-28T12:33:06.028Z</time></trkpt><trkpt lat="38.8010612" lon="22.4980861"><ele>73.0</ele><time>2026-04-28T12:33:07.029Z</time></trkpt><trkpt lat="38.8011703" lon="22.4977792"><ele>73.0</ele><time>2026-04-28T12:33:08.027Z</time></trkpt><trkpt lat="38.8013171" lon="22.4974829"><ele>73.0</ele><time>2026-04-28T12:33:09.028Z</time></trkpt><trkpt lat="38.8014719" lon="22.4972098"><ele>85.5</ele><time>2026-04-28T12:33:10.028Z</time></trkpt><trkpt lat="38.8016323" lon="22.4969531"><ele>98.0</ele><time>2026-04-28T12:33:11.027Z</time></trkpt><trkpt lat="38.8017862" lon="22.4966977"><ele>91.5</ele><time>2026-04-28T12:33:12.029Z</time></trkpt><trkpt lat="38.8019298" lon="22.4964388"><ele>85.0</ele><time>2026-04-28T12:33:13.028Z</time></trkpt><trkpt lat="38.8020505" lon="22.4961751"><ele>85.0</ele><time>2026-04-28T12:33:14.028Z</time></trkpt><trkpt lat="38.8021425" lon="22.4959013"><ele>85.0</ele><time>2026-04-28T12:33:15.028Z</time></trkpt><trkpt lat="38.802208" lon="22.4956181"><ele>87.0</ele><time>2026-04-28T12:33:16.029Z</time></trkpt><trkpt lat="38.8022407" lon="22.4953384"><ele>89.0</ele><time>2026-04-28T12:33:17.029Z</time></trkpt><trkpt lat="38.8022483" lon="22.4950545"><ele>91.0</ele><time>2026-04-28T12:33:18.028Z</time></trkpt><trkpt lat="38.8022312" lon="22.4947583"><ele>91.5</ele><time>2026-04-28T12:33:19.027Z</time></trkpt><trkpt lat="38.8021869" lon="22.4944478"><ele>92.0</ele><time>2026-04-28T12:33:20.028Z</time></trkpt><trkpt lat="38.8021193" lon="22.4941224"><ele>92.0</ele><time>2026-04-28T12:33:21.027Z</time></trkpt><trkpt lat="38.8020424" lon="22.4938022"><ele>92.0</ele><time>2026-04-28T12:33:22.028Z</time></trkpt><trkpt lat="38.801961" lon="22.4934748"><ele>88.5</ele><time>2026-04-28T12:33:23.028Z</time></trkpt><trkpt lat="38.8018735" lon="22.4931481"><ele>85.0</ele><time>2026-04-28T12:33:24.028Z</time></trkpt><trkpt lat="38.8017841" lon="22.4928239"><ele>93.5</ele><time>2026-04-28T12:33:25.029Z</time></trkpt><trkpt lat="38.8017013" lon="22.4924993"><ele>102.0</ele><time>2026-04-28T12:33:26.027Z</time></trkpt><trkpt lat="38.8016201" lon="22.4921811"><ele>98.0</ele><time>2026-04-28T12:33:27.028Z</time></trkpt><trkpt lat="38.8015367" lon="22.4918615"><ele>94.0</ele><time>2026-04-28T12:33:28.029Z</time></trkpt><trkpt lat="38.8014553" lon="22.4915462"><ele>92.0</ele><time>2026-04-28T12:33:29.028Z</time></trkpt><trkpt lat="38.8013748" lon="22.4912375"><ele>90.0</ele><time>2026-04-28T12:33:30.028Z</time></trkpt><trkpt lat="38.801295" lon="22.4909368"><ele>90.0</ele><time>2026-04-28T12:33:31.028Z</time></trkpt><trkpt lat="38.8012209" lon="22.4906534"><ele>90.0</ele><time>2026-04-28T12:33:32.027Z</time></trkpt><trkpt lat="38.8011482" lon="22.4903861"><ele>90.5</ele><time>2026-04-28T12:33:33.028Z</time></trkpt><trkpt lat="38.8010654" lon="22.4901195"><ele>91.0</ele><time>2026-04-28T12:33:34.027Z</time></trkpt><trkpt lat="38.8009715" lon="22.489855"><ele>104.0</ele><time>2026-04-28T12:33:35.028Z</time></trkpt><trkpt lat="38.8008596" lon="22.4896039"><ele>117.0</ele><time>2026-04-28T12:33:36.029Z</time></trkpt><trkpt lat="38.8007262" lon="22.4893609"><ele>117.0</ele><time>2026-04-28T12:33:37.029Z</time></trkpt><trkpt lat="38.8005778" lon="22.4891373"><ele>117.0</ele><time>2026-04-28T12:33:38.028Z</time></trkpt><trkpt lat="38.8004074" lon="22.4889285"><ele>114.5</ele><time>2026-04-28T12:33:39.027Z</time></trkpt><trkpt lat="38.8002109" lon="22.4887479"><ele>112.0</ele><time>2026-04-28T12:33:40.028Z</time></trkpt><trkpt lat="38.7999982" lon="22.488587"><ele>112.0</ele><time>2026-04-28T12:33:41.028Z</time></trkpt><trkpt lat="38.7997816" lon="22.4884425"><ele>112.0</ele><time>2026-04-28T12:33:42.028Z</time></trkpt><trkpt lat="38.7995442" lon="22.4883046"><ele>117.0</ele><time>2026-04-28T12:33:43.027Z</time></trkpt><trkpt lat="38.7993074" lon="22.4881704"><ele>122.0</ele><time>2026-04-28T12:33:44.028Z</time></trkpt><trkpt lat="38.7990776" lon="22.4880394"><ele>117.5</ele><time>2026-04-28T12:33:45.029Z</time></trkpt><trkpt lat="38.7988474" lon="22.4879074"><ele>113.0</ele><time>2026-04-28T12:33:46.028Z</time></trkpt><trkpt lat="38.7986092" lon="22.4877705"><ele>121.0</ele><time>2026-04-28T12:33:47.029Z</time></trkpt><trkpt lat="38.7983616" lon="22.4876314"><ele>129.0</ele><time>2026-04-28T12:33:48.029Z</time></trkpt><trkpt lat="38.7981082" lon="22.4874803"><ele>129.0</ele><time>2026-04-28T12:33:49.029Z</time></trkpt><trkpt lat="38.7978513" lon="22.4873339"><ele>129.0</ele><time>2026-04-28T12:33:50.028Z</time></trkpt><trkpt lat="38.7976013" lon="22.4871865"><ele>126.5</ele><time>2026-04-28T12:33:51.028Z</time></trkpt><trkpt lat="38.7973516" lon="22.4870309"><ele>124.0</ele><time>2026-04-28T12:33:52.028Z</time></trkpt><trkpt lat="38.7971156" lon="22.4868581"><ele>124.0</ele><time>2026-04-28T12:33:53.027Z</time></trkpt><trkpt lat="38.7968797" lon="22.4866716"><ele>124.0</ele><time>2026-04-28T12:33:54.028Z</time></trkpt><trkpt lat="38.7966482" lon="22.4864621"><ele>127.5</ele><time>2026-04-28T12:33:55.028Z</time></trkpt><trkpt lat="38.7964179" lon="22.4862458"><ele>131.0</ele><time>2026-04-28T12:33:56.027Z</time></trkpt><trkpt lat="38.7961838" lon="22.4860332"><ele>136.0</ele><time>2026-04-28T12:33:57.028Z</time></trkpt><trkpt lat="38.7959582" lon="22.4858247"><ele>141.0</ele><time>2026-04-28T12:33:58.029Z</time></trkpt><trkpt lat="38.7957277" lon="22.4856127"><ele>135.5</ele><time>2026-04-28T12:33:59.029Z</time></trkpt><trkpt lat="38.7955002" lon="22.4854107"><ele>130.0</ele><time>2026-04-28T12:34:00.027Z</time></trkpt><trkpt lat="38.7952758" lon="22.4852147"><ele>138.0</ele><time>2026-04-28T12:34:01.027Z</time></trkpt><trkpt lat="38.7950555" lon="22.4850223"><ele>146.0</ele><time>2026-04-28T12:34:02.028Z</time></trkpt><trkpt lat="38.794836" lon="22.4848277"><ele>146.0</ele><time>2026-04-28T12:34:03.028Z</time></trkpt><trkpt lat="38.7946201" lon="22.4846375"><ele>146.0</ele><time>2026-04-28T12:34:04.027Z</time></trkpt><trkpt lat="38.7944119" lon="22.4844435"><ele>147.5</ele><time>2026-04-28T12:34:05.029Z</time></trkpt><trkpt lat="38.7942045" lon="22.4842493"><ele>149.0</ele><time>2026-04-28T12:34:06.029Z</time></trkpt><trkpt lat="38.7940055" lon="22.4840483"><ele>149.0</ele><time>2026-04-28T12:34:07.027Z</time></trkpt><trkpt lat="38.7938121" lon="22.4838406"><ele>149.0</ele><time>2026-04-28T12:34:08.028Z</time></trkpt><trkpt lat="38.7936412" lon="22.4836078"><ele>152.5</ele><time>2026-04-28T12:34:09.028Z</time></trkpt><trkpt lat="38.7934953" lon="22.4833526"><ele>156.0</ele><time>2026-04-28T12:34:10.029Z</time></trkpt><trkpt lat="38.7933668" lon="22.4830759"><ele>154.5</ele><time>2026-04-28T12:34:11.029Z</time></trkpt><trkpt lat="38.7932583" lon="22.4827858"><ele>153.0</ele><time>2026-04-28T12:34:12.029Z</time></trkpt><trkpt lat="38.7931614" lon="22.4824855"><ele>153.0</ele><time>2026-04-28T12:34:13.029Z</time></trkpt><trkpt lat="38.7930799" lon="22.4821791"><ele>153.0</ele><time>2026-04-28T12:34:14.028Z</time></trkpt><trkpt lat="38.7930205" lon="22.481857"><ele>153.5</ele><time>2026-04-28T12:34:15.028Z</time></trkpt><trkpt lat="38.7929956" lon="22.4815284"><ele>154.0</ele><time>2026-04-28T12:34:16.028Z</time></trkpt><trkpt lat="38.7929968" lon="22.4811857"><ele>154.0</ele><time>2026-04-28T12:34:17.028Z</time></trkpt><trkpt lat="38.7930153" lon="22.4808337"><ele>154.0</ele><time>2026-04-28T12:34:18.028Z</time></trkpt><trkpt lat="38.7930551" lon="22.4804837"><ele>159.5</ele><time>2026-04-28T12:34:19.028Z</time></trkpt><trkpt lat="38.7931622" lon="22.4801422"><ele>165.0</ele><time>2026-04-28T12:34:20.029Z</time></trkpt><trkpt lat="38.7932774" lon="22.4798071"><ele>172.5</ele><time>2026-04-28T12:34:21.028Z</time></trkpt><trkpt lat="38.7934043" lon="22.4794715"><ele>180.0</ele><time>2026-04-28T12:34:22.028Z</time></trkpt><trkpt lat="38.7935402" lon="22.4791358"><ele>169.0</ele><time>2026-04-28T12:34:23.028Z</time></trkpt><trkpt lat="38.7936767" lon="22.4787988"><ele>158.0</ele><time>2026-04-28T12:34:24.028Z</time></trkpt><trkpt lat="38.7938101" lon="22.4784672"><ele>158.0</ele><time>2026-04-28T12:34:25.028Z</time></trkpt><trkpt lat="38.7939399" lon="22.4781424"><ele>158.0</ele><time>2026-04-28T12:34:26.028Z</time></trkpt><trkpt lat="38.7940603" lon="22.4778356"><ele>166.0</ele><time>2026-04-28T12:34:27.028Z</time></trkpt><trkpt lat="38.7941737" lon="22.4775516"><ele>174.0</ele><time>2026-04-28T12:34:28.028Z</time></trkpt><trkpt lat="38.7942794" lon="22.4772766"><ele>161.5</ele><time>2026-04-28T12:34:29.028Z</time></trkpt><trkpt lat="38.7943719" lon="22.4769965"><ele>149.0</ele><time>2026-04-28T12:34:30.028Z</time></trkpt><trkpt lat="38.7944371" lon="22.4767117"><ele>149.0</ele><time>2026-04-28T12:34:31.028Z</time></trkpt><trkpt lat="38.7944787" lon="22.4764158"><ele>149.0</ele><time>2026-04-28T12:34:32.029Z</time></trkpt><trkpt lat="38.794493" lon="22.476121"><ele>154.0</ele><time>2026-04-28T12:34:33.028Z</time></trkpt><trkpt lat="38.7944732" lon="22.4758266"><ele>159.0</ele><time>2026-04-28T12:34:34.028Z</time></trkpt><trkpt lat="38.7944256" lon="22.4755417"><ele>160.33333333333334</ele><time>2026-04-28T12:34:35.029Z</time></trkpt><trkpt lat="38.794351" lon="22.4752714"><ele>161.66666666666669</ele><time>2026-04-28T12:34:36.028Z</time></trkpt><trkpt lat="38.7942517" lon="22.475018"><ele>163.0</ele><time>2026-04-28T12:34:37.028Z</time></trkpt><trkpt lat="38.794129" lon="22.4747729"><ele>172.5</ele><time>2026-04-28T12:34:38.028Z</time></trkpt><trkpt lat="38.7939825" lon="22.4745512"><ele>182.0</ele><time>2026-04-28T12:34:39.029Z</time></trkpt><trkpt lat="38.7938185" lon="22.4743565"><ele>182.0</ele><time>2026-04-28T12:34:40.028Z</time></trkpt><trkpt lat="38.7936417" lon="22.4741849"><ele>182.0</ele><time>2026-04-28T12:34:41.028Z</time></trkpt><trkpt lat="38.7934455" lon="22.4740493"><ele>182.0</ele><time>2026-04-28T12:34:42.029Z</time></trkpt><trkpt lat="38.7932371" lon="22.473944"><ele>187.33333333333331</ele><time>2026-04-28T12:34:43.028Z</time></trkpt><trkpt lat="38.7930304" lon="22.4738705"><ele>192.66666666666666</ele><time>2026-04-28T12:34:44.029Z</time></trkpt><trkpt lat="38.7928112" lon="22.4738334"><ele>198.0</ele><time>2026-04-28T12:34:45.027Z</time></trkpt><trkpt lat="38.7925814" lon="22.4738297"><ele>203.5</ele><time>2026-04-28T12:34:46.029Z</time></trkpt><trkpt lat="38.7923505" lon="22.4738555"><ele>209.0</ele><time>2026-04-28T12:34:47.029Z</time></trkpt><trkpt lat="38.7921235" lon="22.4739136"><ele>209.0</ele><time>2026-04-28T12:34:48.029Z</time></trkpt><trkpt lat="38.7919074" lon="22.4740108"><ele>209.0</ele><time>2026-04-28T12:34:49.028Z</time></trkpt><trkpt lat="38.791699" lon="22.4741413"><ele>209.0</ele><time>2026-04-28T12:34:50.027Z</time></trkpt><trkpt lat="38.7915066" lon="22.4743066"><ele>209.0</ele><time>2026-04-28T12:34:51.029Z</time></trkpt><trkpt lat="38.7913202" lon="22.4745053"><ele>208.0</ele><time>2026-04-28T12:34:52.027Z</time></trkpt><trkpt lat="38.7911387" lon="22.4747134"><ele>207.0</ele><time>2026-04-28T12:34:53.029Z</time></trkpt><trkpt lat="38.7909637" lon="22.4749252"><ele>207.0</ele><time>2026-04-28T12:34:54.027Z</time></trkpt><trkpt lat="38.7907906" lon="22.4751313"><ele>207.0</ele><time>2026-04-28T12:34:55.027Z</time></trkpt><trkpt lat="38.7906218" lon="22.4753304"><ele>214.66666666666669</ele><time>2026-04-28T12:34:56.027Z</time></trkpt><trkpt lat="38.7904629" lon="22.475533"><ele>222.33333333333334</ele><time>2026-04-28T12:34:57.028Z</time></trkpt><trkpt lat="38.7903196" lon="22.4757517"><ele>230.0</ele><time>2026-04-28T12:34:58.027Z</time></trkpt><trkpt lat="38.7901963" lon="22.4759894"><ele>230.33333333333334</ele><time>2026-04-28T12:34:59.028Z</time></trkpt><trkpt lat="38.7900981" lon="22.4762421"><ele>230.66666666666669</ele><time>2026-04-28T12:35:00.028Z</time></trkpt><trkpt lat="38.7900247" lon="22.4765083"><ele>231.0</ele><time>2026-04-28T12:35:01.029Z</time></trkpt><trkpt lat="38.7899738" lon="22.4767813"><ele>231.0</ele><time>2026-04-28T12:35:02.029Z</time></trkpt><trkpt lat="38.7899579" lon="22.4770633"><ele>231.0</ele><time>2026-04-28T12:35:03.027Z</time></trkpt><trkpt lat="38.7899617" lon="22.4773571"><ele>231.0</ele><time>2026-04-28T12:35:04.028Z</time></trkpt><trkpt lat="38.7899893" lon="22.4776597"><ele>231.5</ele><time>2026-04-28T12:35:05.029Z</time></trkpt><trkpt lat="38.7900325" lon="22.4779639"><ele>232.0</ele><time>2026-04-28T12:35:06.029Z</time></trkpt><trkpt lat="38.7900807" lon="22.4782572"><ele>232.0</ele><time>2026-04-28T12:35:07.028Z</time></trkpt><trkpt lat="38.7901238" lon="22.478546"><ele>232.0</ele><time>2026-04-28T12:35:08.028Z</time></trkpt><trkpt lat="38.7901636" lon="22.4788234"><ele>232.0</ele><time>2026-04-28T12:35:09.028Z</time></trkpt><trkpt lat="38.7901854" lon="22.4791027"><ele>232.33333333333331</ele><time>2026-04-28T12:35:10.028Z</time></trkpt><trkpt lat="38.7901714" lon="22.4793852"><ele>232.66666666666669</ele><time>2026-04-28T12:35:11.028Z</time></trkpt><trkpt lat="38.7901358" lon="22.4796728"><ele>233.0</ele><time>2026-04-28T12:35:12.027Z</time></trkpt><trkpt lat="38.7900685" lon="22.4799549"><ele>233.0</ele><time>2026-04-28T12:35:13.028Z</time></trkpt><trkpt lat="38.7899731" lon="22.4802195"><ele>233.0</ele><time>2026-04-28T12:35:14.027Z</time></trkpt><trkpt lat="38.78985" lon="22.4804659"><ele>230.5</ele><time>2026-04-28T12:35:15.028Z</time></trkpt><trkpt lat="38.7897101" lon="22.480705"><ele>228.0</ele><time>2026-04-28T12:35:16.027Z</time></trkpt><trkpt lat="38.7895331" lon="22.4809316"><ele>228.0</ele><time>2026-04-28T12:35:17.028Z</time></trkpt><trkpt lat="38.7893493" lon="22.4811654"><ele>228.0</ele><time>2026-04-28T12:35:18.029Z</time></trkpt><trkpt lat="38.7891699" lon="22.4813891"><ele>232.0</ele><time>2026-04-28T12:35:19.028Z</time></trkpt><trkpt lat="38.788997" lon="22.4816102"><ele>236.0</ele><time>2026-04-28T12:35:20.028Z</time></trkpt><trkpt lat="38.7888299" lon="22.4818458"><ele>235.0</ele><time>2026-04-28T12:35:21.029Z</time></trkpt><trkpt lat="38.788678" lon="22.4820992"><ele>234.0</ele><time>2026-04-28T12:35:22.027Z</time></trkpt><trkpt lat="38.7885446" lon="22.4823731"><ele>248.0</ele><time>2026-04-28T12:35:23.027Z</time></trkpt><trkpt lat="38.7884322" lon="22.4826584"><ele>262.0</ele><time>2026-04-28T12:35:24.028Z</time></trkpt><trkpt lat="38.7883401" lon="22.4829536"><ele>262.0</ele><time>2026-04-28T12:35:25.028Z</time></trkpt><trkpt lat="38.7882682" lon="22.4832524"><ele>262.0</ele><time>2026-04-28T12:35:26.027Z</time></trkpt><trkpt lat="38.788227" lon="22.4835576"><ele>259.5</ele><time>2026-04-28T12:35:27.028Z</time></trkpt><trkpt lat="38.7882087" lon="22.4838736"><ele>257.0</ele><time>2026-04-28T12:35:28.028Z</time></trkpt><trkpt lat="38.7882199" lon="22.4842044"><ele>257.0</ele><time>2026-04-28T12:35:29.029Z</time></trkpt><trkpt lat="38.7882461" lon="22.4845406"><ele>257.0</ele><time>2026-04-28T12:35:30.029Z</time></trkpt><trkpt lat="38.7882948" lon="22.4848781"><ele>256.0</ele><time>2026-04-28T12:35:31.028Z</time></trkpt><trkpt lat="38.788376" lon="22.4852154"><ele>255.0</ele><time>2026-04-28T12:35:32.028Z</time></trkpt><trkpt lat="38.7884762" lon="22.4855335"><ele>253.5</ele><time>2026-04-28T12:35:33.027Z</time></trkpt><trkpt lat="38.7885985" lon="22.4858327"><ele>252.0</ele><time>2026-04-28T12:35:34.028Z</time></trkpt><trkpt lat="38.7887416" lon="22.486109"><ele>261.0</ele><time>2026-04-28T12:35:35.028Z</time></trkpt><trkpt lat="38.7889055" lon="22.4863624"><ele>270.0</ele><time>2026-04-28T12:35:36.027Z</time></trkpt><trkpt lat="38.7890879" lon="22.4866048"><ele>270.0</ele><time>2026-04-28T12:35:37.029Z</time></trkpt><trkpt lat="38.7892827" lon="22.4868249"><ele>270.0</ele><time>2026-04-28T12:35:38.028Z</time></trkpt><trkpt lat="38.7894902" lon="22.4870359"><ele>267.5</ele><time>2026-04-28T12:35:39.028Z</time></trkpt><trkpt lat="38.7897002" lon="22.4872438"><ele>265.0</ele><time>2026-04-28T12:35:40.028Z</time></trkpt><trkpt lat="38.7899156" lon="22.4874463"><ele>265.0</ele><time>2026-04-28T12:35:41.029Z</time></trkpt><trkpt lat="38.7901359" lon="22.4876508"><ele>265.0</ele><time>2026-04-28T12:35:42.028Z</time></trkpt><trkpt lat="38.7903541" lon="22.4878566"><ele>264.5</ele><time>2026-04-28T12:35:43.028Z</time></trkpt><trkpt lat="38.7905675" lon="22.4880651"><ele>264.0</ele><time>2026-04-28T12:35:44.027Z</time></trkpt><trkpt lat="38.7907712" lon="22.4882836"><ele>264.0</ele><time>2026-04-28T12:35:45.029Z</time></trkpt><trkpt lat="38.7909605" lon="22.4885172"><ele>264.0</ele><time>2026-04-28T12:35:46.028Z</time></trkpt><trkpt lat="38.7911345" lon="22.4887625"><ele>264.5</ele><time>2026-04-28T12:35:47.028Z</time></trkpt><trkpt lat="38.7912708" lon="22.489037"><ele>265.0</ele><time>2026-04-28T12:35:48.029Z</time></trkpt><trkpt lat="38.7913924" lon="22.4893304"><ele>266.5</ele><time>2026-04-28T12:35:49.029Z</time></trkpt><trkpt lat="38.791494" lon="22.4896358"><ele>268.0</ele><time>2026-04-28T12:35:50.028Z</time></trkpt><trkpt lat="38.7915705" lon="22.4899446"><ele>268.0</ele><time>2026-04-28T12:35:51.029Z</time></trkpt><trkpt lat="38.7916323" lon="22.490253"><ele>268.0</ele><time>2026-04-28T12:35:52.028Z</time></trkpt><trkpt lat="38.7916589" lon="22.4905645"><ele>268.0</ele><time>2026-04-28T12:35:53.028Z</time></trkpt><trkpt lat="38.7916709" lon="22.4908826"><ele>268.0</ele><time>2026-04-28T12:35:54.028Z</time></trkpt><trkpt lat="38.7916608" lon="22.4911957"><ele>270.0</ele><time>2026-04-28T12:35:55.028Z</time></trkpt><trkpt lat="38.7916234" lon="22.4915188"><ele>272.0</ele><time>2026-04-28T12:35:56.028Z</time></trkpt><trkpt lat="38.7915644" lon="22.4918403"><ele>271.0</ele><time>2026-04-28T12:35:57.028Z</time></trkpt><trkpt lat="38.7914816" lon="22.4921528"><ele>270.0</ele><time>2026-04-28T12:35:58.029Z</time></trkpt><trkpt lat="38.7913773" lon="22.4924554"><ele>270.0</ele><time>2026-04-28T12:35:59.028Z</time></trkpt><trkpt lat="38.7912512" lon="22.4927375"><ele>270.0</ele><time>2026-04-28T12:36:00.029Z</time></trkpt><trkpt lat="38.7911009" lon="22.4929964"><ele>274.5</ele><time>2026-04-28T12:36:01.029Z</time></trkpt><trkpt lat="38.7909416" lon="22.4932353"><ele>279.0</ele><time>2026-04-28T12:36:02.028Z</time></trkpt><trkpt lat="38.7907599" lon="22.493447"><ele>279.0</ele><time>2026-04-28T12:36:03.028Z</time></trkpt><trkpt lat="38.7905675" lon="22.4936407"><ele>279.0</ele><time>2026-04-28T12:36:04.027Z</time></trkpt><trkpt lat="38.7903709" lon="22.4938178"><ele>280.5</ele><time>2026-04-28T12:36:05.027Z</time></trkpt><trkpt lat="38.7901585" lon="22.4939649"><ele>282.0</ele><time>2026-04-28T12:36:06.027Z</time></trkpt><trkpt lat="38.7899376" lon="22.4940804"><ele>282.0</ele><time>2026-04-28T12:36:07.028Z</time></trkpt><trkpt lat="38.789716" lon="22.4941699"><ele>282.0</ele><time>2026-04-28T12:36:08.028Z</time></trkpt><trkpt lat="38.7894925" lon="22.4942315"><ele>285.6666666666667</ele><time>2026-04-28T12:36:09.027Z</time></trkpt><trkpt lat="38.7892688" lon="22.4942722"><ele>289.33333333333337</ele><time>2026-04-28T12:36:10.028Z</time></trkpt><trkpt lat="38.7890497" lon="22.4942913"><ele>293.0</ele><time>2026-04-28T12:36:11.028Z</time></trkpt><trkpt lat="38.7888186" lon="22.4942851"><ele>293.0</ele><time>2026-04-28T12:36:12.028Z</time></trkpt><trkpt lat="38.7885874" lon="22.4942559"><ele>293.0</ele><time>2026-04-28T12:36:13.027Z</time></trkpt><trkpt lat="38.7883497" lon="22.4941958"><ele>298.5</ele><time>2026-04-28T12:36:14.026Z</time></trkpt><trkpt lat="38.7881144" lon="22.4941115"><ele>304.0</ele><time>2026-04-28T12:36:15.028Z</time></trkpt><trkpt lat="38.7878772" lon="22.4939973"><ele>308.0</ele><time>2026-04-28T12:36:16.027Z</time></trkpt><trkpt lat="38.7876447" lon="22.4938446"><ele>312.0</ele><time>2026-04-28T12:36:17.028Z</time></trkpt><trkpt lat="38.7874165" lon="22.4936476"><ele>312.0</ele><time>2026-04-28T12:36:18.027Z</time></trkpt><trkpt lat="38.7872109" lon="22.4934072"><ele>312.0</ele><time>2026-04-28T12:36:19.027Z</time></trkpt><trkpt lat="38.787005" lon="22.4931499"><ele>313.0</ele><time>2026-04-28T12:36:20.027Z</time></trkpt><trkpt lat="38.7868182" lon="22.4928465"><ele>314.0</ele><time>2026-04-28T12:36:21.026Z</time></trkpt><trkpt lat="38.7866322" lon="22.4925521"><ele>314.0</ele><time>2026-04-28T12:36:22.027Z</time></trkpt><trkpt lat="38.7864552" lon="22.4922587"><ele>314.0</ele><time>2026-04-28T12:36:23.028Z</time></trkpt><trkpt lat="38.7862695" lon="22.4919772"><ele>313.5</ele><time>2026-04-28T12:36:24.028Z</time></trkpt><trkpt lat="38.7860838" lon="22.4916886"><ele>313.0</ele><time>2026-04-28T12:36:25.028Z</time></trkpt><trkpt lat="38.7859024" lon="22.4914187"><ele>316.5</ele><time>2026-04-28T12:36:26.028Z</time></trkpt><trkpt lat="38.785729" lon="22.4911446"><ele>320.0</ele><time>2026-04-28T12:36:27.027Z</time></trkpt><trkpt lat="38.7855553" lon="22.4908916"><ele>320.0</ele><time>2026-04-28T12:36:28.028Z</time></trkpt><trkpt lat="38.7853859" lon="22.4906465"><ele>320.0</ele><time>2026-04-28T12:36:29.027Z</time></trkpt><trkpt lat="38.7852258" lon="22.4903991"><ele>321.5</ele><time>2026-04-28T12:36:30.027Z</time></trkpt><trkpt lat="38.7850707" lon="22.4901536"><ele>323.0</ele><time>2026-04-28T12:36:31.027Z</time></trkpt><trkpt lat="38.7849273" lon="22.4898921"><ele>323.0</ele><time>2026-04-28T12:36:32.026Z</time></trkpt><trkpt lat="38.784801" lon="22.4896101"><ele>323.0</ele><time>2026-04-28T12:36:33.026Z</time></trkpt><trkpt lat="38.7847025" lon="22.4893069"><ele>325.5</ele><time>2026-04-28T12:36:34.026Z</time></trkpt><trkpt lat="38.7846217" lon="22.4889866"><ele>328.0</ele><time>2026-04-28T12:36:35.026Z</time></trkpt><trkpt lat="38.7845902" lon="22.4886554"><ele>330.5</ele><time>2026-04-28T12:36:36.027Z</time></trkpt><trkpt lat="38.7845687" lon="22.4883187"><ele>333.0</ele><time>2026-04-28T12:36:37.027Z</time></trkpt><trkpt lat="38.7845906" lon="22.4879803"><ele>332.0</ele><time>2026-04-28T12:36:38.028Z</time></trkpt><trkpt lat="38.784648" lon="22.4876418"><ele>331.0</ele><time>2026-04-28T12:36:39.027Z</time></trkpt><trkpt lat="38.7847307" lon="22.4873163"><ele>335.5</ele><time>2026-04-28T12:36:40.027Z</time></trkpt><trkpt lat="38.7848291" lon="22.4869908"><ele>340.0</ele><time>2026-04-28T12:36:41.027Z</time></trkpt><trkpt lat="38.7849355" lon="22.4866735"><ele>340.0</ele><time>2026-04-28T12:36:42.028Z</time></trkpt><trkpt lat="38.7850356" lon="22.4863612"><ele>340.0</ele><time>2026-04-28T12:36:43.026Z</time></trkpt><trkpt lat="38.7851253" lon="22.4860444"><ele>339.5</ele><time>2026-04-28T12:36:44.027Z</time></trkpt><trkpt lat="38.7851988" lon="22.4857189"><ele>339.0</ele><time>2026-04-28T12:36:45.026Z</time></trkpt><trkpt lat="38.7852399" lon="22.4853907"><ele>339.0</ele><time>2026-04-28T12:36:46.028Z</time></trkpt><trkpt lat="38.7852574" lon="22.4850588"><ele>339.0</ele><time>2026-04-28T12:36:47.027Z</time></trkpt><trkpt lat="38.7852518" lon="22.4847323"><ele>339.0</ele><time>2026-04-28T12:36:48.026Z</time></trkpt><trkpt lat="38.7852199" lon="22.4844052"><ele>339.0</ele><time>2026-04-28T12:36:49.027Z</time></trkpt><trkpt lat="38.7851592" lon="22.4840826"><ele>346.5</ele><time>2026-04-28T12:36:50.027Z</time></trkpt><trkpt lat="38.7850795" lon="22.4837683"><ele>354.0</ele><time>2026-04-28T12:36:51.027Z</time></trkpt><trkpt lat="38.7849805" lon="22.4834642"><ele>354.0</ele><time>2026-04-28T12:36:52.027Z</time></trkpt><trkpt lat="38.7848603" lon="22.4831752"><ele>354.0</ele><time>2026-04-28T12:36:53.026Z</time></trkpt><trkpt lat="38.7847194" lon="22.4829041"><ele>352.5</ele><time>2026-04-28T12:36:54.027Z</time></trkpt><trkpt lat="38.7845663" lon="22.4826524"><ele>351.0</ele><time>2026-04-28T12:36:55.028Z</time></trkpt><trkpt lat="38.7843966" lon="22.4824234"><ele>355.5</ele><time>2026-04-28T12:36:56.027Z</time></trkpt><trkpt lat="38.7842145" lon="22.4822184"><ele>360.0</ele><time>2026-04-28T12:36:57.027Z</time></trkpt><trkpt lat="38.78402" lon="22.4820346"><ele>360.0</ele><time>2026-04-28T12:36:58.026Z</time></trkpt><trkpt lat="38.7838154" lon="22.4818743"><ele>360.0</ele><time>2026-04-28T12:36:59.028Z</time></trkpt><trkpt lat="38.7835976" lon="22.4817427"><ele>362.5</ele><time>2026-04-28T12:37:00.027Z</time></trkpt><trkpt lat="38.7833749" lon="22.4816348"><ele>365.0</ele><time>2026-04-28T12:37:01.027Z</time></trkpt><trkpt lat="38.7831446" lon="22.481541"><ele>365.0</ele><time>2026-04-28T12:37:02.027Z</time></trkpt><trkpt lat="38.7828948" lon="22.4814764"><ele>365.0</ele><time>2026-04-28T12:37:03.028Z</time></trkpt><trkpt lat="38.7826344" lon="22.4814302"><ele>371.5</ele><time>2026-04-28T12:37:04.027Z</time></trkpt><trkpt lat="38.7823698" lon="22.4813889"><ele>378.0</ele><time>2026-04-28T12:37:05.028Z</time></trkpt><trkpt lat="38.7821184" lon="22.4813359"><ele>375.5</ele><time>2026-04-28T12:37:06.027Z</time></trkpt><trkpt lat="38.7818707" lon="22.4812518"><ele>373.0</ele><time>2026-04-28T12:37:07.027Z</time></trkpt><trkpt lat="38.7816346" lon="22.481149"><ele>373.0</ele><time>2026-04-28T12:37:08.028Z</time></trkpt><trkpt lat="38.7814199" lon="22.4810146"><ele>373.0</ele><time>2026-04-28T12:37:09.027Z</time></trkpt><trkpt lat="38.7812211" lon="22.4808445"><ele>373.0</ele><time>2026-04-28T12:37:10.028Z</time></trkpt><trkpt lat="38.7810346" lon="22.4806413"><ele>373.0</ele><time>2026-04-28T12:37:11.027Z</time></trkpt><trkpt lat="38.7808716" lon="22.4804009"><ele>379.0</ele><time>2026-04-28T12:37:12.027Z</time></trkpt><trkpt lat="38.7807272" lon="22.4801205"><ele>385.0</ele><time>2026-04-28T12:37:13.027Z</time></trkpt><trkpt lat="38.780589" lon="22.479818"><ele>379.0</ele><time>2026-04-28T12:37:14.026Z</time></trkpt><trkpt lat="38.7804503" lon="22.4795031"><ele>373.0</ele><time>2026-04-28T12:37:15.027Z</time></trkpt><trkpt lat="38.7803116" lon="22.4791764"><ele>385.5</ele><time>2026-04-28T12:37:16.026Z</time></trkpt><trkpt lat="38.780174" lon="22.478842"><ele>398.0</ele><time>2026-04-28T12:37:17.026Z</time></trkpt><trkpt lat="38.7800439" lon="22.478504"><ele>398.0</ele><time>2026-04-28T12:37:18.027Z</time></trkpt><trkpt lat="38.7799154" lon="22.4781707"><ele>398.0</ele><time>2026-04-28T12:37:19.028Z</time></trkpt><trkpt lat="38.7797845" lon="22.4778455"><ele>391.5</ele><time>2026-04-28T12:37:20.027Z</time></trkpt><trkpt lat="38.7796523" lon="22.4775304"><ele>385.0</ele><time>2026-04-28T12:37:21.027Z</time></trkpt><trkpt lat="38.7795219" lon="22.4772315"><ele>384.5</ele><time>2026-04-28T12:37:22.027Z</time></trkpt><trkpt lat="38.7793868" lon="22.4769559"><ele>384.0</ele><time>2026-04-28T12:37:23.028Z</time></trkpt><trkpt lat="38.7792338" lon="22.4766996"><ele>396.0</ele><time>2026-04-28T12:37:24.027Z</time></trkpt><trkpt lat="38.7790599" lon="22.4764666"><ele>408.0</ele><time>2026-04-28T12:37:25.026Z</time></trkpt><trkpt lat="38.7788642" lon="22.4762725"><ele>410.0</ele><time>2026-04-28T12:37:26.026Z</time></trkpt><trkpt lat="38.7786518" lon="22.4761123"><ele>412.0</ele><time>2026-04-28T12:37:27.027Z</time></trkpt><trkpt lat="38.7784211" lon="22.4759906"><ele>412.0</ele><time>2026-04-28T12:37:28.027Z</time></trkpt><trkpt lat="38.7781793" lon="22.4759102"><ele>412.0</ele><time>2026-04-28T12:37:29.026Z</time></trkpt><trkpt lat="38.7779246" lon="22.4758556"><ele>413.5</ele><time>2026-04-28T12:37:30.027Z</time></trkpt><trkpt lat="38.7776684" lon="22.4758237"><ele>415.0</ele><time>2026-04-28T12:37:31.027Z</time></trkpt><trkpt lat="38.7774125" lon="22.475801"><ele>415.0</ele><time>2026-04-28T12:37:32.027Z</time></trkpt><trkpt lat="38.7771727" lon="22.4757641"><ele>415.0</ele><time>2026-04-28T12:37:33.027Z</time></trkpt><trkpt lat="38.7769447" lon="22.475724"><ele>415.0</ele><time>2026-04-28T12:37:34.027Z</time></trkpt><trkpt lat="38.7767302" lon="22.4756532"><ele>415.0</ele><time>2026-04-28T12:37:35.027Z</time></trkpt><trkpt lat="38.7765198" lon="22.4755517"><ele>415.0</ele><time>2026-04-28T12:37:36.026Z</time></trkpt><trkpt lat="38.7763205" lon="22.4754249"><ele>415.0</ele><time>2026-04-28T12:37:37.027Z</time></trkpt><trkpt lat="38.7761313" lon="22.4752608"><ele>415.0</ele><time>2026-04-28T12:37:38.027Z</time></trkpt><trkpt lat="38.7759623" lon="22.4750787"><ele>415.0</ele><time>2026-04-28T12:37:39.026Z</time></trkpt><trkpt lat="38.7758101" lon="22.4748796"><ele>417.0</ele><time>2026-04-28T12:37:40.027Z</time></trkpt><trkpt lat="38.7756829" lon="22.4746519"><ele>419.0</ele><time>2026-04-28T12:37:41.026Z</time></trkpt><trkpt lat="38.7755771" lon="22.4743962"><ele>421.0</ele><time>2026-04-28T12:37:42.028Z</time></trkpt><trkpt lat="38.7754896" lon="22.4741258"><ele>421.0</ele><time>2026-04-28T12:37:43.026Z</time></trkpt><trkpt lat="38.7754471" lon="22.4738119"><ele>421.0</ele><time>2026-04-28T12:37:44.027Z</time></trkpt><trkpt lat="38.7754281" lon="22.4734894"><ele>422.0</ele><time>2026-04-28T12:37:45.026Z</time></trkpt><trkpt lat="38.7754364" lon="22.473159"><ele>423.0</ele><time>2026-04-28T12:37:46.026Z</time></trkpt><trkpt lat="38.7754692" lon="22.4728215"><ele>425.5</ele><time>2026-04-28T12:37:47.027Z</time></trkpt><trkpt lat="38.7755174" lon="22.4724881"><ele>428.0</ele><time>2026-04-28T12:37:48.027Z</time></trkpt><trkpt lat="38.7755887" lon="22.4721549"><ele>429.0</ele><time>2026-04-28T12:37:49.028Z</time></trkpt><trkpt lat="38.7756499" lon="22.4718252"><ele>430.0</ele><time>2026-04-28T12:37:50.027Z</time></trkpt><trkpt lat="38.7756977" lon="22.4714897"><ele>439.0</ele><time>2026-04-28T12:37:51.027Z</time></trkpt><trkpt lat="38.7757305" lon="22.4711555"><ele>448.0</ele><time>2026-04-28T12:37:52.026Z</time></trkpt><trkpt lat="38.7757588" lon="22.4708247"><ele>448.0</ele><time>2026-04-28T12:37:53.028Z</time></trkpt><trkpt lat="38.7757817" lon="22.4704994"><ele>448.0</ele><time>2026-04-28T12:37:54.027Z</time></trkpt><trkpt lat="38.7758014" lon="22.4701801"><ele>447.0</ele><time>2026-04-28T12:37:55.028Z</time></trkpt><trkpt lat="38.7758128" lon="22.4698671"><ele>446.0</ele><time>2026-04-28T12:37:56.027Z</time></trkpt><trkpt lat="38.7758009" lon="22.4695658"><ele>444.0</ele><time>2026-04-28T12:37:57.028Z</time></trkpt><trkpt lat="38.7757617" lon="22.469272"><ele>442.0</ele><time>2026-04-28T12:37:58.028Z</time></trkpt><trkpt lat="38.775692" lon="22.4689941"><ele>439.5</ele><time>2026-04-28T12:37:59.027Z</time></trkpt><trkpt lat="38.7755932" lon="22.4687345"><ele>437.0</ele><time>2026-04-28T12:38:00.026Z</time></trkpt><trkpt lat="38.7754669" lon="22.4684935"><ele>437.0</ele><time>2026-04-28T12:38:01.028Z</time></trkpt><trkpt lat="38.7753134" lon="22.4682701"><ele>437.0</ele><time>2026-04-28T12:38:02.028Z</time></trkpt><trkpt lat="38.7751343" lon="22.4680703"><ele>444.0</ele><time>2026-04-28T12:38:03.027Z</time></trkpt><trkpt lat="38.7749342" lon="22.4679059"><ele>451.0</ele><time>2026-04-28T12:38:04.027Z</time></trkpt><trkpt lat="38.7747115" lon="22.4677735"><ele>451.0</ele><time>2026-04-28T12:38:05.028Z</time></trkpt><trkpt lat="38.7744822" lon="22.4676493"><ele>451.0</ele><time>2026-04-28T12:38:06.026Z</time></trkpt><trkpt lat="38.7742648" lon="22.4675276"><ele>453.0</ele><time>2026-04-28T12:38:07.028Z</time></trkpt><trkpt lat="38.7740666" lon="22.4673954"><ele>455.0</ele><time>2026-04-28T12:38:08.028Z</time></trkpt><trkpt lat="38.7738739" lon="22.4672566"><ele>457.0</ele><time>2026-04-28T12:38:09.028Z</time></trkpt><trkpt lat="38.7737259" lon="22.4670331"><ele>457.0</ele><time>2026-04-28T12:38:10.028Z</time></trkpt><trkpt lat="38.7735957" lon="22.4668061"><ele>457.0</ele><time>2026-04-28T12:38:11.026Z</time></trkpt><trkpt lat="38.7734987" lon="22.4665558"><ele>457.0</ele><time>2026-04-28T12:38:12.028Z</time></trkpt><trkpt lat="38.7734349" lon="22.4662827"><ele>463.33333333333337</ele><time>2026-04-28T12:38:13.028Z</time></trkpt><trkpt lat="38.7733792" lon="22.4660136"><ele>469.66666666666663</ele><time>2026-04-28T12:38:14.028Z</time></trkpt><trkpt lat="38.7733545" lon="22.4657495"><ele>476.0</ele><time>2026-04-28T12:38:15.027Z</time></trkpt><trkpt lat="38.7734624" lon="22.4654177"><ele>473.5</ele><time>2026-04-28T12:38:16.028Z</time></trkpt><trkpt lat="38.7735165" lon="22.4651172"><ele>471.0</ele><time>2026-04-28T12:38:17.027Z</time></trkpt><trkpt lat="38.7736067" lon="22.4648054"><ele>474.5</ele><time>2026-04-28T12:38:18.027Z</time></trkpt><trkpt lat="38.7736925" lon="22.4644939"><ele>478.0</ele><time>2026-04-28T12:38:19.028Z</time></trkpt><trkpt lat="38.7737769" lon="22.4641721"><ele>478.0</ele><time>2026-04-28T12:38:20.028Z</time></trkpt><trkpt lat="38.7738662" lon="22.4638447"><ele>478.0</ele><time>2026-04-28T12:38:21.027Z</time></trkpt><trkpt lat="38.7739444" lon="22.4635369"><ele>480.5</ele><time>2026-04-28T12:38:22.026Z</time></trkpt><trkpt lat="38.7740304" lon="22.4632338"><ele>483.0</ele><time>2026-04-28T12:38:23.028Z</time></trkpt><trkpt lat="38.77413" lon="22.4629351"><ele>479.0</ele><time>2026-04-28T12:38:24.027Z</time></trkpt><trkpt lat="38.7742578" lon="22.4626446"><ele>475.0</ele><time>2026-04-28T12:38:25.027Z</time></trkpt><trkpt lat="38.774402" lon="22.4623747"><ele>475.0</ele><time>2026-04-28T12:38:26.027Z</time></trkpt><trkpt lat="38.7745754" lon="22.4621289"><ele>475.0</ele><time>2026-04-28T12:38:27.026Z</time></trkpt><trkpt lat="38.7747876" lon="22.4619192"><ele>477.0</ele><time>2026-04-28T12:38:28.028Z</time></trkpt><trkpt lat="38.7750221" lon="22.4617246"><ele>479.0</ele><time>2026-04-28T12:38:29.027Z</time></trkpt><trkpt lat="38.7752749" lon="22.4615378"><ele>479.0</ele><time>2026-04-28T12:38:30.027Z</time></trkpt><trkpt lat="38.7755318" lon="22.46135"><ele>479.0</ele><time>2026-04-28T12:38:31.027Z</time></trkpt><trkpt lat="38.7757823" lon="22.4611662"><ele>486.0</ele><time>2026-04-28T12:38:32.027Z</time></trkpt><trkpt lat="38.7760352" lon="22.4609826"><ele>493.0</ele><time>2026-04-28T12:38:33.027Z</time></trkpt><trkpt lat="38.7762804" lon="22.4608018"><ele>493.0</ele><time>2026-04-28T12:38:34.028Z</time></trkpt><trkpt lat="38.7765187" lon="22.4606221"><ele>493.0</ele><time>2026-04-28T12:38:35.028Z</time></trkpt><trkpt lat="38.7767523" lon="22.4604453"><ele>502.0</ele><time>2026-04-28T12:38:36.027Z</time></trkpt><trkpt lat="38.7769868" lon="22.4602711"><ele>511.0</ele><time>2026-04-28T12:38:37.026Z</time></trkpt><trkpt lat="38.777221" lon="22.4600985"><ele>511.0</ele><time>2026-04-28T12:38:38.026Z</time></trkpt><trkpt lat="38.7774518" lon="22.4599305"><ele>511.0</ele><time>2026-04-28T12:38:39.027Z</time></trkpt><trkpt lat="38.7776706" lon="22.4597713"><ele>515.5</ele><time>2026-04-28T12:38:40.028Z</time></trkpt><trkpt lat="38.7778915" lon="22.4596178"><ele>520.0</ele><time>2026-04-28T12:38:41.027Z</time></trkpt><trkpt lat="38.7780994" lon="22.4594633"><ele>520.0</ele><time>2026-04-28T12:38:42.027Z</time></trkpt><trkpt lat="38.7782987" lon="22.4593067"><ele>520.0</ele><time>2026-04-28T12:38:43.028Z</time></trkpt><trkpt lat="38.7784864" lon="22.4591438"><ele>515.6666666666667</ele><time>2026-04-28T12:38:44.026Z</time></trkpt><trkpt lat="38.7786543" lon="22.4589658"><ele>511.33333333333337</ele><time>2026-04-28T12:38:45.028Z</time></trkpt><trkpt lat="38.7787973" lon="22.4587707"><ele>507.0</ele><time>2026-04-28T12:38:46.027Z</time></trkpt><trkpt lat="38.7789153" lon="22.4585487"><ele>507.0</ele><time>2026-04-28T12:38:47.026Z</time></trkpt><trkpt lat="38.7790106" lon="22.4583015"><ele>507.0</ele><time>2026-04-28T12:38:48.028Z</time></trkpt><trkpt lat="38.7790787" lon="22.4580328"><ele>507.0</ele><time>2026-04-28T12:38:49.028Z</time></trkpt><trkpt lat="38.7791139" lon="22.4577515"><ele>514.6666666666666</ele><time>2026-04-28T12:38:50.028Z</time></trkpt><trkpt lat="38.7791162" lon="22.457462"><ele>522.3333333333333</ele><time>2026-04-28T12:38:51.027Z</time></trkpt><trkpt lat="38.7790796" lon="22.4571868"><ele>530.0</ele><time>2026-04-28T12:38:52.028Z</time></trkpt><trkpt lat="38.7790083" lon="22.4569242"><ele>532.3333333333333</ele><time>2026-04-28T12:38:53.027Z</time></trkpt><trkpt lat="38.7789011" lon="22.4566766"><ele>534.6666666666666</ele><time>2026-04-28T12:38:54.028Z</time></trkpt><trkpt lat="38.7787623" lon="22.4564558"><ele>537.0</ele><time>2026-04-28T12:38:55.028Z</time></trkpt><trkpt lat="38.7786" lon="22.4562639"><ele>535.5</ele><time>2026-04-28T12:38:56.026Z</time></trkpt><trkpt lat="38.7783996" lon="22.4561015"><ele>534.0</ele><time>2026-04-28T12:38:57.027Z</time></trkpt><trkpt lat="38.7781707" lon="22.4559744"><ele>534.0</ele><time>2026-04-28T12:38:58.027Z</time></trkpt><trkpt lat="38.7779269" lon="22.4558678"><ele>534.0</ele><time>2026-04-28T12:38:59.028Z</time></trkpt><trkpt lat="38.7776723" lon="22.4557748"><ele>539.0</ele><time>2026-04-28T12:39:00.028Z</time></trkpt><trkpt lat="38.7774127" lon="22.4556865"><ele>544.0</ele><time>2026-04-28T12:39:01.026Z</time></trkpt><trkpt lat="38.7771445" lon="22.4555998"><ele>544.0</ele><time>2026-04-28T12:39:02.027Z</time></trkpt><trkpt lat="38.7768793" lon="22.4555109"><ele>544.0</ele><time>2026-04-28T12:39:03.027Z</time></trkpt><trkpt lat="38.7766117" lon="22.45542"><ele>539.5</ele><time>2026-04-28T12:39:04.026Z</time></trkpt><trkpt lat="38.7763384" lon="22.4553315"><ele>535.0</ele><time>2026-04-28T12:39:05.027Z</time></trkpt><trkpt lat="38.7760585" lon="22.4552477"><ele>548.0</ele><time>2026-04-28T12:39:06.026Z</time></trkpt><trkpt lat="38.7757696" lon="22.4551707"><ele>561.0</ele><time>2026-04-28T12:39:07.027Z</time></trkpt><trkpt lat="38.7754783" lon="22.4550826"><ele>561.0</ele><time>2026-04-28T12:39:08.027Z</time></trkpt><trkpt lat="38.7751913" lon="22.4549927"><ele>561.0</ele><time>2026-04-28T12:39:09.026Z</time></trkpt><trkpt lat="38.7749046" lon="22.4548995"><ele>568.5</ele><time>2026-04-28T12:39:10.027Z</time></trkpt><trkpt lat="38.7746202" lon="22.4548039"><ele>576.0</ele><time>2026-04-28T12:39:11.026Z</time></trkpt><trkpt lat="38.7743445" lon="22.4546849"><ele>567.5</ele><time>2026-04-28T12:39:12.028Z</time></trkpt><trkpt lat="38.7740671" lon="22.4545319"><ele>559.0</ele><time>2026-04-28T12:39:13.028Z</time></trkpt><trkpt lat="38.7737946" lon="22.4543491"><ele>566.5</ele><time>2026-04-28T12:39:14.028Z</time></trkpt><trkpt lat="38.7735158" lon="22.4541373"><ele>574.0</ele><time>2026-04-28T12:39:15.028Z</time></trkpt><trkpt lat="38.7732248" lon="22.4539194"><ele>572.0</ele><time>2026-04-28T12:39:16.027Z</time></trkpt><trkpt lat="38.7729247" lon="22.4536941"><ele>570.0</ele><time>2026-04-28T12:39:17.027Z</time></trkpt><trkpt lat="38.7726138" lon="22.4534594"><ele>574.0</ele><time>2026-04-28T12:39:18.028Z</time></trkpt><trkpt lat="38.7722966" lon="22.453217"><ele>578.0</ele><time>2026-04-28T12:39:19.028Z</time></trkpt><trkpt lat="38.7719749" lon="22.4529703"><ele>579.5</ele><time>2026-04-28T12:39:20.028Z</time></trkpt><trkpt lat="38.7716635" lon="22.4527357"><ele>581.0</ele><time>2026-04-28T12:39:21.027Z</time></trkpt><trkpt lat="38.7713607" lon="22.4525043"><ele>581.0</ele><time>2026-04-28T12:39:22.027Z</time></trkpt><trkpt lat="38.7710699" lon="22.4522811"><ele>581.0</ele><time>2026-04-28T12:39:23.027Z</time></trkpt><trkpt lat="38.7707848" lon="22.4520628"><ele>581.0</ele><time>2026-04-28T12:39:24.026Z</time></trkpt><trkpt lat="38.7705065" lon="22.4518491"><ele>581.0</ele><time>2026-04-28T12:39:25.028Z</time></trkpt><trkpt lat="38.7702344" lon="22.451647"><ele>589.0</ele><time>2026-04-28T12:39:26.026Z</time></trkpt><trkpt lat="38.7699648" lon="22.4514579"><ele>597.0</ele><time>2026-04-28T12:39:27.026Z</time></trkpt><trkpt lat="38.7696914" lon="22.4512912"><ele>597.0</ele><time>2026-04-28T12:39:28.027Z</time></trkpt><trkpt lat="38.7694134" lon="22.4511566"><ele>597.0</ele><time>2026-04-28T12:39:29.028Z</time></trkpt><trkpt lat="38.7691164" lon="22.4510472"><ele>597.0</ele><time>2026-04-28T12:39:30.028Z</time></trkpt><trkpt lat="38.7688142" lon="22.4509559"><ele>597.0</ele><time>2026-04-28T12:39:31.027Z</time></trkpt><trkpt lat="38.768513" lon="22.4508815"><ele>601.0</ele><time>2026-04-28T12:39:32.026Z</time></trkpt><trkpt lat="38.7682123" lon="22.4508136"><ele>605.0</ele><time>2026-04-28T12:39:33.026Z</time></trkpt><trkpt lat="38.7679168" lon="22.4507393"><ele>609.5</ele><time>2026-04-28T12:39:34.026Z</time></trkpt><trkpt lat="38.7676237" lon="22.4506583"><ele>614.0</ele><time>2026-04-28T12:39:35.028Z</time></trkpt><trkpt lat="38.7673334" lon="22.4505518"><ele>612.5</ele><time>2026-04-28T12:39:36.028Z</time></trkpt><trkpt lat="38.7670487" lon="22.4504227"><ele>611.0</ele><time>2026-04-28T12:39:37.026Z</time></trkpt><trkpt lat="38.766777" lon="22.4502627"><ele>611.0</ele><time>2026-04-28T12:39:38.026Z</time></trkpt><trkpt lat="38.7665106" lon="22.4500605"><ele>611.0</ele><time>2026-04-28T12:39:39.027Z</time></trkpt><trkpt lat="38.7662512" lon="22.4498381"><ele>616.0</ele><time>2026-04-28T12:39:40.026Z</time></trkpt><trkpt lat="38.7659846" lon="22.4496055"><ele>621.0</ele><time>2026-04-28T12:39:41.027Z</time></trkpt><trkpt lat="38.7657205" lon="22.449377"><ele>621.0</ele><time>2026-04-28T12:39:42.027Z</time></trkpt><trkpt lat="38.7654549" lon="22.4491541"><ele>621.0</ele><time>2026-04-28T12:39:43.027Z</time></trkpt><trkpt lat="38.7651929" lon="22.4489247"><ele>625.5</ele><time>2026-04-28T12:39:44.027Z</time></trkpt><trkpt lat="38.7649358" lon="22.4486995"><ele>630.0</ele><time>2026-04-28T12:39:45.027Z</time></trkpt><trkpt lat="38.764679" lon="22.44848"><ele>630.0</ele><time>2026-04-28T12:39:46.027Z</time></trkpt><trkpt lat="38.7644196" lon="22.4482672"><ele>630.0</ele><time>2026-04-28T12:39:47.028Z</time></trkpt><trkpt lat="38.7641585" lon="22.4480498"><ele>631.0</ele><time>2026-04-28T12:39:48.028Z</time></trkpt><trkpt lat="38.7638859" lon="22.4478402"><ele>632.0</ele><time>2026-04-28T12:39:49.026Z</time></trkpt><trkpt lat="38.7635976" lon="22.4476417"><ele>635.0</ele><time>2026-04-28T12:39:50.027Z</time></trkpt><trkpt lat="38.763299" lon="22.4474466"><ele>638.0</ele><time>2026-04-28T12:39:51.026Z</time></trkpt><trkpt lat="38.7629933" lon="22.44726"><ele>640.5</ele><time>2026-04-28T12:39:52.027Z</time></trkpt><trkpt lat="38.7626921" lon="22.4470769"><ele>643.0</ele><time>2026-04-28T12:39:53.028Z</time></trkpt><trkpt lat="38.7624001" lon="22.4468986"><ele>643.0</ele><time>2026-04-28T12:39:54.027Z</time></trkpt><trkpt lat="38.7621061" lon="22.446722"><ele>643.0</ele><time>2026-04-28T12:39:55.027Z</time></trkpt><trkpt lat="38.7618344" lon="22.446554"><ele>645.0</ele><time>2026-04-28T12:39:56.028Z</time></trkpt><trkpt lat="38.7615779" lon="22.4464008"><ele>647.0</ele><time>2026-04-28T12:39:57.027Z</time></trkpt><trkpt lat="38.7613291" lon="22.4462702"><ele>645.5</ele><time>2026-04-28T12:39:58.027Z</time></trkpt><trkpt lat="38.761081" lon="22.4461627"><ele>644.0</ele><time>2026-04-28T12:39:59.027Z</time></trkpt><trkpt lat="38.7608314" lon="22.4460791"><ele>644.0</ele><time>2026-04-28T12:40:00.027Z</time></trkpt><trkpt lat="38.7605784" lon="22.4460177"><ele>644.0</ele><time>2026-04-28T12:40:01.028Z</time></trkpt><trkpt lat="38.7603261" lon="22.4459865"><ele>644.5</ele><time>2026-04-28T12:40:02.028Z</time></trkpt><trkpt lat="38.7600733" lon="22.4459898"><ele>645.0</ele><time>2026-04-28T12:40:03.026Z</time></trkpt><trkpt lat="38.7598269" lon="22.4460279"><ele>645.0</ele><time>2026-04-28T12:40:04.028Z</time></trkpt><trkpt lat="38.7595841" lon="22.4460951"><ele>645.0</ele><time>2026-04-28T12:40:05.027Z</time></trkpt><trkpt lat="38.7593402" lon="22.4461906"><ele>656.0</ele><time>2026-04-28T12:40:06.028Z</time></trkpt><trkpt lat="38.7590968" lon="22.4463114"><ele>667.0</ele><time>2026-04-28T12:40:07.027Z</time></trkpt><trkpt lat="38.7588598" lon="22.4464596"><ele>667.0</ele><time>2026-04-28T12:40:08.027Z</time></trkpt><trkpt lat="38.7586243" lon="22.4466336"><ele>667.0</ele><time>2026-04-28T12:40:09.027Z</time></trkpt><trkpt lat="38.7583924" lon="22.4468271"><ele>666.0</ele><time>2026-04-28T12:40:10.027Z</time></trkpt><trkpt lat="38.7581616" lon="22.4470384"><ele>665.0</ele><time>2026-04-28T12:40:11.026Z</time></trkpt><trkpt lat="38.7579328" lon="22.4472572"><ele>665.0</ele><time>2026-04-28T12:40:12.027Z</time></trkpt><trkpt lat="38.7577047" lon="22.4474774"><ele>665.0</ele><time>2026-04-28T12:40:13.026Z</time></trkpt><trkpt lat="38.7574816" lon="22.4476907"><ele>662.5</ele><time>2026-04-28T12:40:14.027Z</time></trkpt><trkpt lat="38.7572695" lon="22.4478944"><ele>660.0</ele><time>2026-04-28T12:40:15.027Z</time></trkpt><trkpt lat="38.7570603" lon="22.4480927"><ele>646.0</ele><time>2026-04-28T12:40:16.026Z</time></trkpt><trkpt lat="38.756859" lon="22.4482789"><ele>632.0</ele><time>2026-04-28T12:40:17.026Z</time></trkpt><trkpt lat="38.7566661" lon="22.4484598"><ele>632.0</ele><time>2026-04-28T12:40:18.028Z</time></trkpt><trkpt lat="38.7564827" lon="22.4486323"><ele>632.0</ele><time>2026-04-28T12:40:19.028Z</time></trkpt><trkpt lat="38.7562983" lon="22.4488073"><ele>636.3333333333333</ele><time>2026-04-28T12:40:20.028Z</time></trkpt><trkpt lat="38.7561196" lon="22.4489754"><ele>640.6666666666666</ele><time>2026-04-28T12:40:21.027Z</time></trkpt><trkpt lat="38.7559489" lon="22.4491365"><ele>645.0</ele><time>2026-04-28T12:40:22.027Z</time></trkpt><trkpt lat="38.7557805" lon="22.4492944"><ele>645.0</ele><time>2026-04-28T12:40:23.028Z</time></trkpt><trkpt lat="38.7556199" lon="22.4494484"><ele>645.0</ele><time>2026-04-28T12:40:24.028Z</time></trkpt><trkpt lat="38.7554686" lon="22.4495928"><ele>645.0</ele><time>2026-04-28T12:40:25.026Z</time></trkpt><trkpt lat="38.7553196" lon="22.4497395"><ele>641.0</ele><time>2026-04-28T12:40:26.027Z</time></trkpt><trkpt lat="38.7551733" lon="22.4498819"><ele>637.0</ele><time>2026-04-28T12:40:27.027Z</time></trkpt><trkpt lat="38.7550317" lon="22.4500191"><ele>633.0</ele><time>2026-04-28T12:40:28.028Z</time></trkpt><trkpt lat="38.7548913" lon="22.4501592"><ele>633.0</ele><time>2026-04-28T12:40:29.028Z</time></trkpt><trkpt lat="38.7547537" lon="22.4502963"><ele>633.0</ele><time>2026-04-28T12:40:30.027Z</time></trkpt><trkpt lat="38.75462" lon="22.4504407"><ele>633.0</ele><time>2026-04-28T12:40:31.026Z</time></trkpt><trkpt lat="38.7544936" lon="22.4505928"><ele>632.0</ele><time>2026-04-28T12:40:32.027Z</time></trkpt><trkpt lat="38.7543691" lon="22.4507491"><ele>631.0</ele><time>2026-04-28T12:40:33.027Z</time></trkpt><trkpt lat="38.7542503" lon="22.4509045"><ele>630.0</ele><time>2026-04-28T12:40:34.027Z</time></trkpt><trkpt lat="38.7541374" lon="22.4510631"><ele>630.0</ele><time>2026-04-28T12:40:35.028Z</time></trkpt><trkpt lat="38.75403" lon="22.4512287"><ele>630.0</ele><time>2026-04-28T12:40:36.027Z</time></trkpt><trkpt lat="38.7539284" lon="22.4513954"><ele>630.0</ele><time>2026-04-28T12:40:37.026Z</time></trkpt><trkpt lat="38.7538307" lon="22.4515681"><ele>636.6666666666666</ele><time>2026-04-28T12:40:38.026Z</time></trkpt><trkpt lat="38.753738" lon="22.4517404"><ele>643.3333333333333</ele><time>2026-04-28T12:40:39.028Z</time></trkpt><trkpt lat="38.7536448" lon="22.4519167"><ele>650.0</ele><time>2026-04-28T12:40:40.027Z</time></trkpt><trkpt lat="38.75355" lon="22.4520925"><ele>642.0</ele><time>2026-04-28T12:40:41.027Z</time></trkpt><trkpt lat="38.7534587" lon="22.4522639"><ele>634.0</ele><time>2026-04-28T12:40:42.027Z</time></trkpt><trkpt lat="38.7533769" lon="22.4524483"><ele>626.0</ele><time>2026-04-28T12:40:43.027Z</time></trkpt><trkpt lat="38.7532824" lon="22.452632"><ele>626.0</ele><time>2026-04-28T12:40:44.026Z</time></trkpt><trkpt lat="38.75318" lon="22.4528314"><ele>626.0</ele><time>2026-04-28T12:40:45.027Z</time></trkpt><trkpt lat="38.7530713" lon="22.4530567"><ele>626.0</ele><time>2026-04-28T12:40:46.027Z</time></trkpt><trkpt lat="38.7529572" lon="22.4532803"><ele>623.0</ele><time>2026-04-28T12:40:47.026Z</time></trkpt><trkpt lat="38.7528458" lon="22.4534982"><ele>620.0</ele><time>2026-04-28T12:40:48.027Z</time></trkpt><trkpt lat="38.7527415" lon="22.4537108"><ele>617.0</ele><time>2026-04-28T12:40:49.026Z</time></trkpt><trkpt lat="38.7526374" lon="22.4539159"><ele>617.0</ele><time>2026-04-28T12:40:50.027Z</time></trkpt><trkpt lat="38.7525361" lon="22.4541157"><ele>617.0</ele><time>2026-04-28T12:40:51.028Z</time></trkpt><trkpt lat="38.7524373" lon="22.4543099"><ele>617.0</ele><time>2026-04-28T12:40:52.028Z</time></trkpt><trkpt lat="38.7523393" lon="22.4545087"><ele>624.3333333333333</ele><time>2026-04-28T12:40:53.028Z</time></trkpt><trkpt lat="38.752235" lon="22.454717"><ele>631.6666666666666</ele><time>2026-04-28T12:40:54.027Z</time></trkpt><trkpt lat="38.7521246" lon="22.4549383"><ele>639.0</ele><time>2026-04-28T12:40:55.028Z</time></trkpt><trkpt lat="38.7520136" lon="22.4551652"><ele>639.0</ele><time>2026-04-28T12:40:56.026Z</time></trkpt><trkpt lat="38.7519011" lon="22.4553941"><ele>639.0</ele><time>2026-04-28T12:40:57.026Z</time></trkpt><trkpt lat="38.7517909" lon="22.4556135"><ele>639.0</ele><time>2026-04-28T12:40:58.027Z</time></trkpt><trkpt lat="38.751686" lon="22.4558309"><ele>638.3333333333334</ele><time>2026-04-28T12:40:59.027Z</time></trkpt><trkpt lat="38.7515825" lon="22.4560394"><ele>637.6666666666667</ele><time>2026-04-28T12:41:00.027Z</time></trkpt><trkpt lat="38.7514846" lon="22.4562352"><ele>637.0</ele><time>2026-04-28T12:41:01.027Z</time></trkpt><trkpt lat="38.7513913" lon="22.4564121"><ele>637.0</ele><time>2026-04-28T12:41:02.028Z</time></trkpt><trkpt lat="38.7513013" lon="22.4565733"><ele>637.0</ele><time>2026-04-28T12:41:03.028Z</time></trkpt><trkpt lat="38.7512154" lon="22.4567214"><ele>637.0</ele><time>2026-04-28T12:41:04.027Z</time></trkpt><trkpt lat="38.7511261" lon="22.4568518"><ele>637.0</ele><time>2026-04-28T12:41:05.027Z</time></trkpt><trkpt lat="38.7510288" lon="22.4569746"><ele>630.75</ele><time>2026-04-28T12:41:06.027Z</time></trkpt><trkpt lat="38.7509238" lon="22.4570864"><ele>624.5</ele><time>2026-04-28T12:41:07.027Z</time></trkpt><trkpt lat="38.7508084" lon="22.4571827"><ele>618.25</ele><time>2026-04-28T12:41:08.027Z</time></trkpt><trkpt lat="38.7506845" lon="22.4572611"><ele>612.0</ele><time>2026-04-28T12:41:09.027Z</time></trkpt><trkpt lat="38.7505589" lon="22.457326"><ele>612.0</ele><time>2026-04-28T12:41:10.026Z</time></trkpt><trkpt lat="38.7504307" lon="22.4573755"><ele>612.0</ele><time>2026-04-28T12:41:11.028Z</time></trkpt><trkpt lat="38.7502962" lon="22.4574072"><ele>612.0</ele><time>2026-04-28T12:41:12.027Z</time></trkpt><trkpt lat="38.7501624" lon="22.4574207"><ele>612.0</ele><time>2026-04-28T12:41:13.027Z</time></trkpt><trkpt lat="38.7500238" lon="22.4574185"><ele>614.0</ele><time>2026-04-28T12:41:14.028Z</time></trkpt><trkpt lat="38.7498792" lon="22.4573875"><ele>616.0</ele><time>2026-04-28T12:41:15.028Z</time></trkpt><trkpt lat="38.7497335" lon="22.4573421"><ele>618.0</ele><time>2026-04-28T12:41:16.028Z</time></trkpt><trkpt lat="38.7495881" lon="22.4572789"><ele>618.0</ele><time>2026-04-28T12:41:17.027Z</time></trkpt><trkpt lat="38.749444" lon="22.4571908"><ele>618.0</ele><time>2026-04-28T12:41:18.027Z</time></trkpt><trkpt lat="38.7493187" lon="22.4570827"><ele>618.0</ele><time>2026-04-28T12:41:19.027Z</time></trkpt><trkpt lat="38.7492031" lon="22.4569641"><ele>618.25</ele><time>2026-04-28T12:41:20.028Z</time></trkpt><trkpt lat="38.7490915" lon="22.456837"><ele>618.5</ele><time>2026-04-28T12:41:21.027Z</time></trkpt><trkpt lat="38.7489847" lon="22.4567118"><ele>618.75</ele><time>2026-04-28T12:41:22.028Z</time></trkpt><trkpt lat="38.7488781" lon="22.4565804"><ele>619.0</ele><time>2026-04-28T12:41:23.027Z</time></trkpt><trkpt lat="38.7487679" lon="22.4564477"><ele>619.0</ele><time>2026-04-28T12:41:24.028Z</time></trkpt><trkpt lat="38.7486586" lon="22.4563162"><ele>619.0</ele><time>2026-04-28T12:41:25.027Z</time></trkpt><trkpt lat="38.7485459" lon="22.4561786"><ele>619.0</ele><time>2026-04-28T12:41:26.028Z</time></trkpt><trkpt lat="38.7484182" lon="22.4560266"><ele>617.6666666666667</ele><time>2026-04-28T12:41:27.027Z</time></trkpt><trkpt lat="38.7482783" lon="22.455864"><ele>616.3333333333334</ele><time>2026-04-28T12:41:28.027Z</time></trkpt><trkpt lat="38.748127" lon="22.4556923"><ele>615.0</ele><time>2026-04-28T12:41:29.027Z</time></trkpt><trkpt lat="38.7479639" lon="22.4555044"><ele>619.0</ele><time>2026-04-28T12:41:30.028Z</time></trkpt><trkpt lat="38.747785" lon="22.4553027"><ele>623.0</ele><time>2026-04-28T12:41:31.027Z</time></trkpt><trkpt lat="38.7475905" lon="22.4550746"><ele>623.0</ele><time>2026-04-28T12:41:32.028Z</time></trkpt><trkpt lat="38.7473741" lon="22.4548163"><ele>623.0</ele><time>2026-04-28T12:41:33.027Z</time></trkpt><trkpt lat="38.7471386" lon="22.4545354"><ele>626.5</ele><time>2026-04-28T12:41:34.027Z</time></trkpt><trkpt lat="38.7468987" lon="22.4542358"><ele>630.0</ele><time>2026-04-28T12:41:35.027Z</time></trkpt><trkpt lat="38.7466459" lon="22.4539177"><ele>623.0</ele><time>2026-04-28T12:41:36.028Z</time></trkpt><trkpt lat="38.7463843" lon="22.4535898"><ele>616.0</ele><time>2026-04-28T12:41:37.028Z</time></trkpt><trkpt lat="38.746134" lon="22.4532623"><ele>615.0</ele><time>2026-04-28T12:41:38.027Z</time></trkpt><trkpt lat="38.7459098" lon="22.4529529"><ele>614.0</ele><time>2026-04-28T12:41:39.028Z</time></trkpt><trkpt lat="38.7457044" lon="22.4526632"><ele>614.0</ele><time>2026-04-28T12:41:40.028Z</time></trkpt><trkpt lat="38.7455181" lon="22.4523871"><ele>614.0</ele><time>2026-04-28T12:41:41.028Z</time></trkpt><trkpt lat="38.7453422" lon="22.4521246"><ele>620.5</ele><time>2026-04-28T12:41:42.027Z</time></trkpt><trkpt lat="38.7451701" lon="22.451863"><ele>627.0</ele><time>2026-04-28T12:41:43.028Z</time></trkpt><trkpt lat="38.7449983" lon="22.451595"><ele>627.0</ele><time>2026-04-28T12:41:44.027Z</time></trkpt><trkpt lat="38.7448291" lon="22.4513252"><ele>627.0</ele><time>2026-04-28T12:41:45.026Z</time></trkpt><trkpt lat="38.7446577" lon="22.4510583"><ele>634.5</ele><time>2026-04-28T12:41:46.027Z</time></trkpt><trkpt lat="38.7444979" lon="22.4507994"><ele>642.0</ele><time>2026-04-28T12:41:47.027Z</time></trkpt><trkpt lat="38.744342" lon="22.4505507"><ele>630.0</ele><time>2026-04-28T12:41:48.028Z</time></trkpt><trkpt lat="38.7441921" lon="22.4503107"><ele>618.0</ele><time>2026-04-28T12:41:49.028Z</time></trkpt><trkpt lat="38.7440349" lon="22.4500726"><ele>618.0</ele><time>2026-04-28T12:41:50.027Z</time></trkpt><trkpt lat="38.7438795" lon="22.4498318"><ele>618.0</ele><time>2026-04-28T12:41:51.028Z</time></trkpt><trkpt lat="38.7437243" lon="22.4495878"><ele>624.5</ele><time>2026-04-28T12:41:52.027Z</time></trkpt><trkpt lat="38.7435683" lon="22.4493465"><ele>631.0</ele><time>2026-04-28T12:41:53.026Z</time></trkpt><trkpt lat="38.7434157" lon="22.4491052"><ele>631.0</ele><time>2026-04-28T12:41:54.027Z</time></trkpt><trkpt lat="38.7432684" lon="22.4488684"><ele>631.0</ele><time>2026-04-28T12:41:55.027Z</time></trkpt><trkpt lat="38.7431198" lon="22.4486274"><ele>621.0</ele><time>2026-04-28T12:41:56.027Z</time></trkpt><trkpt lat="38.7429657" lon="22.4483894"><ele>611.0</ele><time>2026-04-28T12:41:57.028Z</time></trkpt><trkpt lat="38.7428192" lon="22.4481683"><ele>613.6666666666666</ele><time>2026-04-28T12:41:58.028Z</time></trkpt><trkpt lat="38.7426708" lon="22.4479524"><ele>616.3333333333334</ele><time>2026-04-28T12:41:59.027Z</time></trkpt><trkpt lat="38.7425167" lon="22.4477509"><ele>619.0</ele><time>2026-04-28T12:42:00.028Z</time></trkpt><trkpt lat="38.742348" lon="22.4475818"><ele>619.0</ele><time>2026-04-28T12:42:01.028Z</time></trkpt><trkpt lat="38.7421689" lon="22.447446"><ele>619.0</ele><time>2026-04-28T12:42:02.028Z</time></trkpt><trkpt lat="38.7419715" lon="22.4473453"><ele>619.0</ele><time>2026-04-28T12:42:03.027Z</time></trkpt><trkpt lat="38.7417703" lon="22.4472866"><ele>620.6666666666667</ele><time>2026-04-28T12:42:04.028Z</time></trkpt><trkpt lat="38.7415649" lon="22.4472726"><ele>622.3333333333334</ele><time>2026-04-28T12:42:05.027Z</time></trkpt><trkpt lat="38.7413574" lon="22.4473026"><ele>624.0</ele><time>2026-04-28T12:42:06.027Z</time></trkpt><trkpt lat="38.7411491" lon="22.447374"><ele>616.0</ele><time>2026-04-28T12:42:07.028Z</time></trkpt><trkpt lat="38.7409423" lon="22.4474883"><ele>608.0</ele><time>2026-04-28T12:42:08.027Z</time></trkpt><trkpt lat="38.7407381" lon="22.4476368"><ele>608.0</ele><time>2026-04-28T12:42:09.027Z</time></trkpt><trkpt lat="38.7405339" lon="22.4478109"><ele>608.0</ele><time>2026-04-28T12:42:10.028Z</time></trkpt><trkpt lat="38.7403252" lon="22.4479972"><ele>609.5</ele><time>2026-04-28T12:42:11.028Z</time></trkpt><trkpt lat="38.7401158" lon="22.4481825"><ele>611.0</ele><time>2026-04-28T12:42:12.027Z</time></trkpt><trkpt lat="38.7399042" lon="22.4483696"><ele>611.0</ele><time>2026-04-28T12:42:13.027Z</time></trkpt><trkpt lat="38.7396905" lon="22.4485576"><ele>611.0</ele><time>2026-04-28T12:42:14.027Z</time></trkpt><trkpt lat="38.7394844" lon="22.4487466"><ele>615.5</ele><time>2026-04-28T12:42:15.027Z</time></trkpt><trkpt lat="38.7392802" lon="22.4489362"><ele>620.0</ele><time>2026-04-28T12:42:16.026Z</time></trkpt><trkpt lat="38.7390792" lon="22.4491221"><ele>620.0</ele><time>2026-04-28T12:42:17.027Z</time></trkpt><trkpt lat="38.7388822" lon="22.4493088"><ele>620.0</ele><time>2026-04-28T12:42:18.027Z</time></trkpt><trkpt lat="38.738688" lon="22.4495016"><ele>619.5</ele><time>2026-04-28T12:42:19.028Z</time></trkpt><trkpt lat="38.7384986" lon="22.449704"><ele>619.0</ele><time>2026-04-28T12:42:20.028Z</time></trkpt><trkpt lat="38.7383151" lon="22.4499119"><ele>619.0</ele><time>2026-04-28T12:42:21.027Z</time></trkpt><trkpt lat="38.7381358" lon="22.4501219"><ele>619.0</ele><time>2026-04-28T12:42:22.026Z</time></trkpt><trkpt lat="38.7379587" lon="22.4503356"><ele>617.0</ele><time>2026-04-28T12:42:23.026Z</time></trkpt><trkpt lat="38.7377819" lon="22.4505526"><ele>615.0</ele><time>2026-04-28T12:42:24.027Z</time></trkpt><trkpt lat="38.7376044" lon="22.4507663"><ele>615.0</ele><time>2026-04-28T12:42:25.027Z</time></trkpt><trkpt lat="38.7374202" lon="22.450977"><ele>615.0</ele><time>2026-04-28T12:42:26.028Z</time></trkpt><trkpt lat="38.7372335" lon="22.4511781"><ele>612.5</ele><time>2026-04-28T12:42:27.028Z</time></trkpt><trkpt lat="38.7370459" lon="22.4513682"><ele>610.0</ele><time>2026-04-28T12:42:28.028Z</time></trkpt><trkpt lat="38.7368509" lon="22.4515498"><ele>610.0</ele><time>2026-04-28T12:42:29.028Z</time></trkpt><trkpt lat="38.7366503" lon="22.4517176"><ele>610.0</ele><time>2026-04-28T12:42:30.026Z</time></trkpt><trkpt lat="38.7364446" lon="22.4518704"><ele>610.0</ele><time>2026-04-28T12:42:31.028Z</time></trkpt><trkpt lat="38.7362369" lon="22.4520139"><ele>610.0</ele><time>2026-04-28T12:42:32.027Z</time></trkpt><trkpt lat="38.7360308" lon="22.4521488"><ele>615.5</ele><time>2026-04-28T12:42:33.028Z</time></trkpt><trkpt lat="38.7358212" lon="22.4522833"><ele>621.0</ele><time>2026-04-28T12:42:34.027Z</time></trkpt><trkpt lat="38.7356072" lon="22.4524179"><ele>621.0</ele><time>2026-04-28T12:42:35.028Z</time></trkpt><trkpt lat="38.7353895" lon="22.4525493"><ele>621.0</ele><time>2026-04-28T12:42:36.027Z</time></trkpt><trkpt lat="38.7351725" lon="22.4526772"><ele>618.0</ele><time>2026-04-28T12:42:37.027Z</time></trkpt><trkpt lat="38.7349605" lon="22.4528028"><ele>615.0</ele><time>2026-04-28T12:42:38.028Z</time></trkpt><trkpt lat="38.7347544" lon="22.4529251"><ele>616.0</ele><time>2026-04-28T12:42:39.027Z</time></trkpt><trkpt lat="38.734551" lon="22.453044"><ele>617.0</ele><time>2026-04-28T12:42:40.027Z</time></trkpt><trkpt lat="38.7343506" lon="22.4531615"><ele>618.0</ele><time>2026-04-28T12:42:41.028Z</time></trkpt><trkpt lat="38.7341527" lon="22.4532808"><ele>614.0</ele><time>2026-04-28T12:42:42.028Z</time></trkpt><trkpt lat="38.7339577" lon="22.4533999"><ele>610.0</ele><time>2026-04-28T12:42:43.028Z</time></trkpt><trkpt lat="38.7337629" lon="22.4535166"><ele>606.0</ele><time>2026-04-28T12:42:44.027Z</time></trkpt><trkpt lat="38.7335721" lon="22.4536324"><ele>609.0</ele><time>2026-04-28T12:42:45.027Z</time></trkpt><trkpt lat="38.7333849" lon="22.4537521"><ele>612.0</ele><time>2026-04-28T12:42:46.028Z</time></trkpt><trkpt lat="38.7332032" lon="22.4538774"><ele>615.0</ele><time>2026-04-28T12:42:47.028Z</time></trkpt><trkpt lat="38.7330261" lon="22.4540137"><ele>615.0</ele><time>2026-04-28T12:42:48.027Z</time></trkpt><trkpt lat="38.7328546" lon="22.4541663"><ele>615.0</ele><time>2026-04-28T12:42:49.026Z</time></trkpt><trkpt lat="38.7326909" lon="22.4543287"><ele>615.0</ele><time>2026-04-28T12:42:50.027Z</time></trkpt><trkpt lat="38.7325389" lon="22.4545054"><ele>612.3333333333334</ele><time>2026-04-28T12:42:51.027Z</time></trkpt><trkpt lat="38.7323981" lon="22.4547017"><ele>609.6666666666667</ele><time>2026-04-28T12:42:52.027Z</time></trkpt><trkpt lat="38.7322657" lon="22.4549106"><ele>607.0</ele><time>2026-04-28T12:42:53.028Z</time></trkpt><trkpt lat="38.7321414" lon="22.4551292"><ele>607.0</ele><time>2026-04-28T12:42:54.027Z</time></trkpt><trkpt lat="38.7320189" lon="22.4553578"><ele>607.0</ele><time>2026-04-28T12:42:55.026Z</time></trkpt><trkpt lat="38.7318995" lon="22.455607"><ele>607.0</ele><time>2026-04-28T12:42:56.027Z</time></trkpt><trkpt lat="38.7317687" lon="22.4558463"><ele>601.5</ele><time>2026-04-28T12:42:57.028Z</time></trkpt><trkpt lat="38.7316429" lon="22.4560957"><ele>596.0</ele><time>2026-04-28T12:42:58.028Z</time></trkpt><trkpt lat="38.7315223" lon="22.4563438"><ele>593.0</ele><time>2026-04-28T12:42:59.027Z</time></trkpt><trkpt lat="38.7313987" lon="22.4565987"><ele>590.0</ele><time>2026-04-28T12:43:00.027Z</time></trkpt><trkpt lat="38.7312684" lon="22.4568527"><ele>590.0</ele><time>2026-04-28T12:43:01.027Z</time></trkpt><trkpt lat="38.7311381" lon="22.4571068"><ele>590.0</ele><time>2026-04-28T12:43:02.026Z</time></trkpt><trkpt lat="38.7310073" lon="22.4573731"><ele>586.5</ele><time>2026-04-28T12:43:03.027Z</time></trkpt><trkpt lat="38.7308686" lon="22.4576335"><ele>583.0</ele><time>2026-04-28T12:43:04.028Z</time></trkpt><trkpt lat="38.7307271" lon="22.4579052"><ele>588.0</ele><time>2026-04-28T12:43:05.027Z</time></trkpt><trkpt lat="38.7305811" lon="22.4581788"><ele>593.0</ele><time>2026-04-28T12:43:06.026Z</time></trkpt><trkpt lat="38.7304346" lon="22.4584648"><ele>593.0</ele><time>2026-04-28T12:43:07.028Z</time></trkpt><trkpt lat="38.7302836" lon="22.4587558"><ele>593.0</ele><time>2026-04-28T12:43:08.027Z</time></trkpt><trkpt lat="38.7301294" lon="22.4590501"><ele>584.5</ele><time>2026-04-28T12:43:09.026Z</time></trkpt><trkpt lat="38.7299787" lon="22.4593501"><ele>576.0</ele><time>2026-04-28T12:43:10.026Z</time></trkpt><trkpt lat="38.7298253" lon="22.4596573"><ele>576.0</ele><time>2026-04-28T12:43:11.026Z</time></trkpt><trkpt lat="38.7296624" lon="22.4599692"><ele>576.0</ele><time>2026-04-28T12:43:12.026Z</time></trkpt><trkpt lat="38.7295032" lon="22.4602804"><ele>571.0</ele><time>2026-04-28T12:43:13.026Z</time></trkpt><trkpt lat="38.7293459" lon="22.4605926"><ele>566.0</ele><time>2026-04-28T12:43:14.025Z</time></trkpt><trkpt lat="38.7291848" lon="22.4609051"><ele>566.0</ele><time>2026-04-28T12:43:15.026Z</time></trkpt><trkpt lat="38.7290291" lon="22.4612137"><ele>566.0</ele><time>2026-04-28T12:43:16.026Z</time></trkpt><trkpt lat="38.7288744" lon="22.4615154"><ele>566.0</ele><time>2026-04-28T12:43:17.026Z</time></trkpt><trkpt lat="38.7287201" lon="22.4618093"><ele>566.0</ele><time>2026-04-28T12:43:18.026Z</time></trkpt><trkpt lat="38.7285683" lon="22.4621035"><ele>560.5</ele><time>2026-04-28T12:43:19.026Z</time></trkpt><trkpt lat="38.728415" lon="22.4623914"><ele>555.0</ele><time>2026-04-28T12:43:20.026Z</time></trkpt><trkpt lat="38.728271" lon="22.4626783"><ele>556.5</ele><time>2026-04-28T12:43:21.026Z</time></trkpt><trkpt lat="38.7281299" lon="22.4629641"><ele>558.0</ele><time>2026-04-28T12:43:22.026Z</time></trkpt><trkpt lat="38.7279879" lon="22.4632485"><ele>558.0</ele><time>2026-04-28T12:43:23.026Z</time></trkpt><trkpt lat="38.7278465" lon="22.4635318"><ele>558.0</ele><time>2026-04-28T12:43:24.026Z</time></trkpt><trkpt lat="38.727707" lon="22.4638084"><ele>553.5</ele><time>2026-04-28T12:43:25.026Z</time></trkpt><trkpt lat="38.7275631" lon="22.4640862"><ele>549.0</ele><time>2026-04-28T12:43:26.027Z</time></trkpt><trkpt lat="38.7274163" lon="22.4643575"><ele>552.0</ele><time>2026-04-28T12:43:27.026Z</time></trkpt><trkpt lat="38.7272617" lon="22.4646234"><ele>555.0</ele><time>2026-04-28T12:43:28.026Z</time></trkpt><trkpt lat="38.7271023" lon="22.4648881"><ele>555.0</ele><time>2026-04-28T12:43:29.025Z</time></trkpt><trkpt lat="38.7269346" lon="22.4651407"><ele>555.0</ele><time>2026-04-28T12:43:30.026Z</time></trkpt><trkpt lat="38.7267623" lon="22.4653961"><ele>550.5</ele><time>2026-04-28T12:43:31.026Z</time></trkpt><trkpt lat="38.7265804" lon="22.4656417"><ele>546.0</ele><time>2026-04-28T12:43:32.026Z</time></trkpt><trkpt lat="38.7263891" lon="22.4658767"><ele>546.0</ele><time>2026-04-28T12:43:33.025Z</time></trkpt><trkpt lat="38.7262011" lon="22.4661115"><ele>546.0</ele><time>2026-04-28T12:43:34.025Z</time></trkpt><trkpt lat="38.7260132" lon="22.4663459"><ele>542.5</ele><time>2026-04-28T12:43:35.026Z</time></trkpt><trkpt lat="38.7258283" lon="22.4665777"><ele>539.0</ele><time>2026-04-28T12:43:36.025Z</time></trkpt><trkpt lat="38.7256473" lon="22.4668068"><ele>539.0</ele><time>2026-04-28T12:43:37.025Z</time></trkpt><trkpt lat="38.7254681" lon="22.4670334"><ele>539.0</ele><time>2026-04-28T12:43:38.025Z</time></trkpt><trkpt lat="38.7252922" lon="22.4672504"><ele>536.0</ele><time>2026-04-28T12:43:39.025Z</time></trkpt><trkpt lat="38.7251191" lon="22.4674664"><ele>533.0</ele><time>2026-04-28T12:43:40.026Z</time></trkpt><trkpt lat="38.7249481" lon="22.4676776"><ele>533.0</ele><time>2026-04-28T12:43:41.026Z</time></trkpt><trkpt lat="38.7247949" lon="22.467872"><ele>533.0</ele><time>2026-04-28T12:43:42.026Z</time></trkpt><trkpt lat="38.7246447" lon="22.4680502"><ele>533.0</ele><time>2026-04-28T12:43:43.027Z</time></trkpt><trkpt lat="38.724492" lon="22.4682191"><ele>529.3333333333333</ele><time>2026-04-28T12:43:44.025Z</time></trkpt><trkpt lat="38.7243342" lon="22.4683648"><ele>525.6666666666666</ele><time>2026-04-28T12:43:45.026Z</time></trkpt><trkpt lat="38.7241646" lon="22.4684779"><ele>522.0</ele><time>2026-04-28T12:43:46.026Z</time></trkpt><trkpt lat="38.7239807" lon="22.4685504"><ele>522.0</ele><time>2026-04-28T12:43:47.026Z</time></trkpt><trkpt lat="38.7237869" lon="22.4685861"><ele>522.0</ele><time>2026-04-28T12:43:48.026Z</time></trkpt><trkpt lat="38.7235956" lon="22.4685725"><ele>522.0</ele><time>2026-04-28T12:43:49.027Z</time></trkpt><trkpt lat="38.7234041" lon="22.4685409"><ele>520.0</ele><time>2026-04-28T12:43:50.026Z</time></trkpt><trkpt lat="38.7232194" lon="22.4685055"><ele>518.0</ele><time>2026-04-28T12:43:51.026Z</time></trkpt><trkpt lat="38.7230366" lon="22.4684694"><ele>516.0</ele><time>2026-04-28T12:43:52.026Z</time></trkpt><trkpt lat="38.7228683" lon="22.4684241"><ele>512.6666666666666</ele><time>2026-04-28T12:43:53.026Z</time></trkpt><trkpt lat="38.7227145" lon="22.4683465"><ele>509.3333333333333</ele><time>2026-04-28T12:43:54.026Z</time></trkpt><trkpt lat="38.722575" lon="22.4682283"><ele>506.0</ele><time>2026-04-28T12:43:55.026Z</time></trkpt><trkpt lat="38.7224537" lon="22.4680744"><ele>506.66666666666663</ele><time>2026-04-28T12:43:56.027Z</time></trkpt><trkpt lat="38.7223584" lon="22.4679033"><ele>507.33333333333337</ele><time>2026-04-28T12:43:57.026Z</time></trkpt><trkpt lat="38.7222944" lon="22.4677038"><ele>508.0</ele><time>2026-04-28T12:43:58.027Z</time></trkpt><trkpt lat="38.722255" lon="22.4674993"><ele>508.0</ele><time>2026-04-28T12:43:59.025Z</time></trkpt><trkpt lat="38.7222235" lon="22.4672866"><ele>508.0</ele><time>2026-04-28T12:44:00.026Z</time></trkpt><trkpt lat="38.7222058" lon="22.4670559"><ele>508.0</ele><time>2026-04-28T12:44:01.026Z</time></trkpt><trkpt lat="38.7221878" lon="22.4668189"><ele>508.33333333333337</ele><time>2026-04-28T12:44:02.026Z</time></trkpt><trkpt lat="38.7222355" lon="22.4665869"><ele>508.66666666666663</ele><time>2026-04-28T12:44:03.026Z</time></trkpt><trkpt lat="38.7222736" lon="22.4663555"><ele>509.0</ele><time>2026-04-28T12:44:04.025Z</time></trkpt><trkpt lat="38.722325" lon="22.4661267"><ele>506.0</ele><time>2026-04-28T12:44:05.027Z</time></trkpt><trkpt lat="38.7224322" lon="22.4658867"><ele>503.0</ele><time>2026-04-28T12:44:06.027Z</time></trkpt><trkpt lat="38.7225103" lon="22.4656582"><ele>500.0</ele><time>2026-04-28T12:44:07.026Z</time></trkpt><trkpt lat="38.7225919" lon="22.4654201"><ele>499.66666666666663</ele><time>2026-04-28T12:44:08.026Z</time></trkpt><trkpt lat="38.7226681" lon="22.4651893"><ele>499.33333333333337</ele><time>2026-04-28T12:44:09.026Z</time></trkpt><trkpt lat="38.7227291" lon="22.4649441"><ele>499.0</ele><time>2026-04-28T12:44:10.027Z</time></trkpt><trkpt lat="38.7227715" lon="22.464691"><ele>501.0</ele><time>2026-04-28T12:44:11.027Z</time></trkpt><trkpt lat="38.7227851" lon="22.4644313"><ele>503.0</ele><time>2026-04-28T12:44:12.027Z</time></trkpt><trkpt lat="38.7227667" lon="22.4641689"><ele>505.0</ele><time>2026-04-28T12:44:13.026Z</time></trkpt><trkpt lat="38.7227145" lon="22.4639119"><ele>500.0</ele><time>2026-04-28T12:44:14.026Z</time></trkpt><trkpt lat="38.7226341" lon="22.4636643"><ele>495.0</ele><time>2026-04-28T12:44:15.026Z</time></trkpt><trkpt lat="38.7225241" lon="22.463432"><ele>490.0</ele><time>2026-04-28T12:44:16.026Z</time></trkpt><trkpt lat="38.722396" lon="22.4632377"><ele>490.0</ele><time>2026-04-28T12:44:17.027Z</time></trkpt><trkpt lat="38.722242" lon="22.4630658"><ele>490.0</ele><time>2026-04-28T12:44:18.026Z</time></trkpt><trkpt lat="38.7220645" lon="22.4629265"><ele>490.0</ele><time>2026-04-28T12:44:19.025Z</time></trkpt><trkpt lat="38.7218727" lon="22.4628221"><ele>489.6666666666667</ele><time>2026-04-28T12:44:20.025Z</time></trkpt><trkpt lat="38.7216706" lon="22.4627588"><ele>489.33333333333337</ele><time>2026-04-28T12:44:21.026Z</time></trkpt><trkpt lat="38.7214546" lon="22.4627325"><ele>489.0</ele><time>2026-04-28T12:44:22.026Z</time></trkpt><trkpt lat="38.7212282" lon="22.4627398"><ele>486.0</ele><time>2026-04-28T12:44:23.025Z</time></trkpt><trkpt lat="38.7209988" lon="22.4627672"><ele>483.0</ele><time>2026-04-28T12:44:24.027Z</time></trkpt><trkpt lat="38.7207647" lon="22.4628048"><ele>483.0</ele><time>2026-04-28T12:44:25.026Z</time></trkpt><trkpt lat="38.7205262" lon="22.4628454"><ele>483.0</ele><time>2026-04-28T12:44:26.026Z</time></trkpt><trkpt lat="38.7202839" lon="22.4628853"><ele>480.5</ele><time>2026-04-28T12:44:27.026Z</time></trkpt><trkpt lat="38.72004" lon="22.4629237"><ele>478.0</ele><time>2026-04-28T12:44:28.025Z</time></trkpt><trkpt lat="38.7197939" lon="22.4629618"><ele>473.5</ele><time>2026-04-28T12:44:29.026Z</time></trkpt><trkpt lat="38.7195555" lon="22.4629996"><ele>469.0</ele><time>2026-04-28T12:44:30.026Z</time></trkpt><trkpt lat="38.7193227" lon="22.4630377"><ele>465.5</ele><time>2026-04-28T12:44:31.025Z</time></trkpt><trkpt lat="38.7190928" lon="22.4630775"><ele>462.0</ele><time>2026-04-28T12:44:32.026Z</time></trkpt><trkpt lat="38.7188691" lon="22.4631167"><ele>462.0</ele><time>2026-04-28T12:44:33.026Z</time></trkpt><trkpt lat="38.7186716" lon="22.4631481"><ele>462.0</ele><time>2026-04-28T12:44:34.027Z</time></trkpt><trkpt lat="38.7185104" lon="22.4631702"><ele>462.0</ele><time>2026-04-28T12:44:35.027Z</time></trkpt><trkpt lat="38.7183514" lon="22.4631903"><ele>460.0</ele><time>2026-04-28T12:44:36.025Z</time></trkpt><trkpt lat="38.7181915" lon="22.4632091"><ele>458.0</ele><time>2026-04-28T12:44:37.026Z</time></trkpt><trkpt lat="38.7180323" lon="22.4632319"><ele>456.0</ele><time>2026-04-28T12:44:38.026Z</time></trkpt><trkpt lat="38.7178676" lon="22.4632513"><ele>454.66666666666663</ele><time>2026-04-28T12:44:39.025Z</time></trkpt><trkpt lat="38.7176957" lon="22.4632683"><ele>453.3333333333333</ele><time>2026-04-28T12:44:40.026Z</time></trkpt><trkpt lat="38.7175172" lon="22.4632751"><ele>452.0</ele><time>2026-04-28T12:44:41.026Z</time></trkpt><trkpt lat="38.7173376" lon="22.4632759"><ele>452.0</ele><time>2026-04-28T12:44:42.026Z</time></trkpt><trkpt lat="38.7171564" lon="22.463272"><ele>452.0</ele><time>2026-04-28T12:44:43.027Z</time></trkpt><trkpt lat="38.7169752" lon="22.4632696"><ele>452.0</ele><time>2026-04-28T12:44:44.026Z</time></trkpt><trkpt lat="38.7167946" lon="22.4632632"><ele>449.66666666666663</ele><time>2026-04-28T12:44:45.026Z</time></trkpt><trkpt lat="38.7166184" lon="22.4632543"><ele>447.33333333333337</ele><time>2026-04-28T12:44:46.025Z</time></trkpt><trkpt lat="38.7164462" lon="22.4632446"><ele>445.0</ele><time>2026-04-28T12:44:47.026Z</time></trkpt><trkpt lat="38.7162743" lon="22.4632353"><ele>445.0</ele><time>2026-04-28T12:44:48.026Z</time></trkpt><trkpt lat="38.7160996" lon="22.4632224"><ele>445.0</ele><time>2026-04-28T12:44:49.025Z</time></trkpt><trkpt lat="38.7159179" lon="22.4632094"><ele>445.0</ele><time>2026-04-28T12:44:50.026Z</time></trkpt><trkpt lat="38.7157386" lon="22.4631981"><ele>441.6666666666667</ele><time>2026-04-28T12:44:51.027Z</time></trkpt><trkpt lat="38.7155614" lon="22.4631718"><ele>438.33333333333337</ele><time>2026-04-28T12:44:52.026Z</time></trkpt><trkpt lat="38.7154008" lon="22.4631359"><ele>435.0</ele><time>2026-04-28T12:44:53.026Z</time></trkpt><trkpt lat="38.7152358" lon="22.4630772"><ele>433.33333333333337</ele><time>2026-04-28T12:44:54.027Z</time></trkpt><trkpt lat="38.71508" lon="22.4629992"><ele>431.6666666666667</ele><time>2026-04-28T12:44:55.025Z</time></trkpt><trkpt lat="38.7149374" lon="22.4629021"><ele>430.0</ele><time>2026-04-28T12:44:56.026Z</time></trkpt><trkpt lat="38.7148153" lon="22.4627873"><ele>430.0</ele><time>2026-04-28T12:44:57.026Z</time></trkpt><trkpt lat="38.7147078" lon="22.4626529"><ele>430.0</ele><time>2026-04-28T12:44:58.026Z</time></trkpt><trkpt lat="38.7146079" lon="22.4625019"><ele>430.0</ele><time>2026-04-28T12:44:59.026Z</time></trkpt><trkpt lat="38.714521" lon="22.4623398"><ele>430.0</ele><time>2026-04-28T12:45:00.026Z</time></trkpt><trkpt lat="38.7144474" lon="22.4621759"><ele>430.0</ele><time>2026-04-28T12:45:01.026Z</time></trkpt><trkpt lat="38.7143866" lon="22.462005"><ele>430.0</ele><time>2026-04-28T12:45:02.026Z</time></trkpt><trkpt lat="38.7143353" lon="22.461818"><ele>430.0</ele><time>2026-04-28T12:45:03.025Z</time></trkpt><trkpt lat="38.7142886" lon="22.4616248"><ele>426.6666666666667</ele><time>2026-04-28T12:45:04.026Z</time></trkpt><trkpt lat="38.7142398" lon="22.461425"><ele>423.33333333333337</ele><time>2026-04-28T12:45:05.026Z</time></trkpt><trkpt lat="38.7141882" lon="22.461219"><ele>420.0</ele><time>2026-04-28T12:45:06.026Z</time></trkpt><trkpt lat="38.7141368" lon="22.4610111"><ele>419.66666666666663</ele><time>2026-04-28T12:45:07.025Z</time></trkpt><trkpt lat="38.714085" lon="22.460803"><ele>419.3333333333333</ele><time>2026-04-28T12:45:08.025Z</time></trkpt><trkpt lat="38.714029" lon="22.4605945"><ele>419.0</ele><time>2026-04-28T12:45:09.026Z</time></trkpt><trkpt lat="38.7139722" lon="22.4603879"><ele>421.66666666666663</ele><time>2026-04-28T12:45:10.026Z</time></trkpt><trkpt lat="38.7139127" lon="22.4601828"><ele>424.33333333333337</ele><time>2026-04-28T12:45:11.026Z</time></trkpt><trkpt lat="38.7138469" lon="22.4599814"><ele>427.0</ele><time>2026-04-28T12:45:12.026Z</time></trkpt><trkpt lat="38.713774" lon="22.4597838"><ele>428.33333333333337</ele><time>2026-04-28T12:45:13.026Z</time></trkpt><trkpt lat="38.7136898" lon="22.4595891"><ele>429.66666666666663</ele><time>2026-04-28T12:45:14.025Z</time></trkpt><trkpt lat="38.713592" lon="22.4594033"><ele>431.0</ele><time>2026-04-28T12:45:15.026Z</time></trkpt><trkpt lat="38.7134748" lon="22.459217"><ele>427.66666666666663</ele><time>2026-04-28T12:45:16.026Z</time></trkpt><trkpt lat="38.7133538" lon="22.4590412"><ele>424.33333333333337</ele><time>2026-04-28T12:45:17.025Z</time></trkpt><trkpt lat="38.713223" lon="22.4588676"><ele>421.0</ele><time>2026-04-28T12:45:18.026Z</time></trkpt><trkpt lat="38.7130799" lon="22.4586997"><ele>421.0</ele><time>2026-04-28T12:45:19.026Z</time></trkpt><trkpt lat="38.7129226" lon="22.4585496"><ele>421.0</ele><time>2026-04-28T12:45:20.026Z</time></trkpt><trkpt lat="38.7127561" lon="22.4584069"><ele>421.0</ele><time>2026-04-28T12:45:21.025Z</time></trkpt><trkpt lat="38.7125763" lon="22.4582769"><ele>419.0</ele><time>2026-04-28T12:45:22.026Z</time></trkpt><trkpt lat="38.7123865" lon="22.4581591"><ele>417.0</ele><time>2026-04-28T12:45:23.026Z</time></trkpt><trkpt lat="38.7121893" lon="22.4580501"><ele>415.0</ele><time>2026-04-28T12:45:24.025Z</time></trkpt><trkpt lat="38.7119871" lon="22.4579449"><ele>413.33333333333337</ele><time>2026-04-28T12:45:25.025Z</time></trkpt><trkpt lat="38.7117846" lon="22.4578384"><ele>411.66666666666663</ele><time>2026-04-28T12:45:26.027Z</time></trkpt><trkpt lat="38.7115824" lon="22.457728"><ele>410.0</ele><time>2026-04-28T12:45:27.027Z</time></trkpt><trkpt lat="38.7113852" lon="22.4576175"><ele>410.0</ele><time>2026-04-28T12:45:28.027Z</time></trkpt><trkpt lat="38.7111883" lon="22.4575106"><ele>410.0</ele><time>2026-04-28T12:45:29.027Z</time></trkpt><trkpt lat="38.7109945" lon="22.4574023"><ele>410.0</ele><time>2026-04-28T12:45:30.026Z</time></trkpt><trkpt lat="38.7108035" lon="22.4573004"><ele>408.3333333333333</ele><time>2026-04-28T12:45:31.025Z</time></trkpt><trkpt lat="38.7106103" lon="22.4571956"><ele>406.66666666666663</ele><time>2026-04-28T12:45:32.026Z</time></trkpt><trkpt lat="38.7104174" lon="22.4570907"><ele>405.0</ele><time>2026-04-28T12:45:33.027Z</time></trkpt><trkpt lat="38.7102205" lon="22.4569812"><ele>403.33333333333337</ele><time>2026-04-28T12:45:34.027Z</time></trkpt><trkpt lat="38.7100204" lon="22.4568689"><ele>401.6666666666667</ele><time>2026-04-28T12:45:35.027Z</time></trkpt><trkpt lat="38.7098193" lon="22.4567563"><ele>400.0</ele><time>2026-04-28T12:45:36.026Z</time></trkpt><trkpt lat="38.7096184" lon="22.4566445"><ele>397.5</ele><time>2026-04-28T12:45:37.026Z</time></trkpt><trkpt lat="38.7094076" lon="22.4565324"><ele>395.0</ele><time>2026-04-28T12:45:38.026Z</time></trkpt><trkpt lat="38.7091956" lon="22.456413"><ele>394.0</ele><time>2026-04-28T12:45:39.025Z</time></trkpt><trkpt lat="38.7089758" lon="22.4562848"><ele>393.0</ele><time>2026-04-28T12:45:40.026Z</time></trkpt><trkpt lat="38.7087451" lon="22.456151"><ele>391.0</ele><time>2026-04-28T12:45:41.026Z</time></trkpt><trkpt lat="38.7085132" lon="22.4560213"><ele>389.0</ele><time>2026-04-28T12:45:42.027Z</time></trkpt><trkpt lat="38.7082795" lon="22.455892"><ele>389.0</ele><time>2026-04-28T12:45:43.026Z</time></trkpt><trkpt lat="38.708045" lon="22.4557639"><ele>389.0</ele><time>2026-04-28T12:45:44.027Z</time></trkpt><trkpt lat="38.7078084" lon="22.455634"><ele>387.0</ele><time>2026-04-28T12:45:45.026Z</time></trkpt><trkpt lat="38.7075663" lon="22.4555075"><ele>385.0</ele><time>2026-04-28T12:45:46.026Z</time></trkpt><trkpt lat="38.7073259" lon="22.4553848"><ele>383.5</ele><time>2026-04-28T12:45:47.026Z</time></trkpt><trkpt lat="38.70708" lon="22.4552694"><ele>382.0</ele><time>2026-04-28T12:45:48.026Z</time></trkpt><trkpt lat="38.7068257" lon="22.4551665"><ele>380.5</ele><time>2026-04-28T12:45:49.027Z</time></trkpt><trkpt lat="38.7065686" lon="22.4550789"><ele>379.0</ele><time>2026-04-28T12:45:50.027Z</time></trkpt><trkpt lat="38.7063104" lon="22.4550027"><ele>379.0</ele><time>2026-04-28T12:45:51.027Z</time></trkpt><trkpt lat="38.7060614" lon="22.4549347"><ele>379.0</ele><time>2026-04-28T12:45:52.026Z</time></trkpt><trkpt lat="38.7058174" lon="22.4548672"><ele>379.0</ele><time>2026-04-28T12:45:53.026Z</time></trkpt><trkpt lat="38.7055908" lon="22.4547767"><ele>379.0</ele><time>2026-04-28T12:45:54.026Z</time></trkpt><trkpt lat="38.7053801" lon="22.4546678"><ele>375.3333333333333</ele><time>2026-04-28T12:45:55.026Z</time></trkpt><trkpt lat="38.7051817" lon="22.454533"><ele>371.6666666666667</ele><time>2026-04-28T12:45:56.025Z</time></trkpt><trkpt lat="38.7050029" lon="22.4543803"><ele>368.0</ele><time>2026-04-28T12:45:57.026Z</time></trkpt><trkpt lat="38.704837" lon="22.454201"><ele>368.0</ele><time>2026-04-28T12:45:58.025Z</time></trkpt><trkpt lat="38.7046775" lon="22.4540145"><ele>368.0</ele><time>2026-04-28T12:45:59.025Z</time></trkpt><trkpt lat="38.7045279" lon="22.4538162"><ele>368.0</ele><time>2026-04-28T12:46:00.026Z</time></trkpt><trkpt lat="38.7043759" lon="22.453624"><ele>368.33333333333337</ele><time>2026-04-28T12:46:01.026Z</time></trkpt><trkpt lat="38.7042283" lon="22.453432"><ele>368.6666666666667</ele><time>2026-04-28T12:46:02.026Z</time></trkpt><trkpt lat="38.7040824" lon="22.453244"><ele>369.0</ele><time>2026-04-28T12:46:03.027Z</time></trkpt><trkpt lat="38.7039376" lon="22.453064"><ele>370.6666666666667</ele><time>2026-04-28T12:46:04.026Z</time></trkpt><trkpt lat="38.703799" lon="22.4528896"><ele>372.33333333333337</ele><time>2026-04-28T12:46:05.027Z</time></trkpt><trkpt lat="38.7036716" lon="22.4527274"><ele>374.0</ele><time>2026-04-28T12:46:06.026Z</time></trkpt><trkpt lat="38.7035585" lon="22.45258"><ele>374.0</ele><time>2026-04-28T12:46:07.025Z</time></trkpt><trkpt lat="38.7034518" lon="22.4524415"><ele>374.0</ele><time>2026-04-28T12:46:08.025Z</time></trkpt><trkpt lat="38.7033463" lon="22.4523079"><ele>374.0</ele><time>2026-04-28T12:46:09.027Z</time></trkpt><trkpt lat="38.7032457" lon="22.4521848"><ele>374.0</ele><time>2026-04-28T12:46:10.026Z</time></trkpt><trkpt lat="38.7031529" lon="22.4520662"><ele>375.0</ele><time>2026-04-28T12:46:11.025Z</time></trkpt><trkpt lat="38.7030591" lon="22.4519558"><ele>376.0</ele><time>2026-04-28T12:46:12.025Z</time></trkpt><trkpt lat="38.7029759" lon="22.4518473"><ele>377.0</ele><time>2026-04-28T12:46:13.026Z</time></trkpt><trkpt lat="38.7028927" lon="22.4517476"><ele>378.0</ele><time>2026-04-28T12:46:14.026Z</time></trkpt><trkpt lat="38.7028116" lon="22.451644"><ele>375.25</ele><time>2026-04-28T12:46:15.026Z</time></trkpt><trkpt lat="38.7027314" lon="22.4515391"><ele>372.5</ele><time>2026-04-28T12:46:16.025Z</time></trkpt><trkpt lat="38.702649" lon="22.4514314"><ele>369.75</ele><time>2026-04-28T12:46:17.026Z</time></trkpt><trkpt lat="38.7025676" lon="22.4513171"><ele>367.0</ele><time>2026-04-28T12:46:18.026Z</time></trkpt><trkpt lat="38.7024789" lon="22.4512066"><ele>367.0</ele><time>2026-04-28T12:46:19.026Z</time></trkpt><trkpt lat="38.7023817" lon="22.4510875"><ele>367.0</ele><time>2026-04-28T12:46:20.026Z</time></trkpt><trkpt lat="38.7022755" lon="22.4509563"><ele>367.0</ele><time>2026-04-28T12:46:21.026Z</time></trkpt><trkpt lat="38.7021652" lon="22.4508182"><ele>367.0</ele><time>2026-04-28T12:46:22.026Z</time></trkpt><trkpt lat="38.7020536" lon="22.4506751"><ele>367.0</ele><time>2026-04-28T12:46:23.025Z</time></trkpt><trkpt lat="38.701938" lon="22.4505299"><ele>367.0</ele><time>2026-04-28T12:46:24.027Z</time></trkpt><trkpt lat="38.7018253" lon="22.4503832"><ele>367.0</ele><time>2026-04-28T12:46:25.027Z</time></trkpt><trkpt lat="38.7017036" lon="22.4502437"><ele>365.66666666666663</ele><time>2026-04-28T12:46:26.026Z</time></trkpt><trkpt lat="38.7015771" lon="22.4501104"><ele>364.3333333333333</ele><time>2026-04-28T12:46:27.025Z</time></trkpt><trkpt lat="38.7014378" lon="22.4500046"><ele>363.0</ele><time>2026-04-28T12:46:28.026Z</time></trkpt><trkpt lat="38.7012922" lon="22.4499334"><ele>363.0</ele><time>2026-04-28T12:46:29.026Z</time></trkpt><trkpt lat="38.7011344" lon="22.4498922"><ele>363.0</ele><time>2026-04-28T12:46:30.027Z</time></trkpt><trkpt lat="38.7009677" lon="22.4498809"><ele>363.0</ele><time>2026-04-28T12:46:31.026Z</time></trkpt><trkpt lat="38.7007902" lon="22.4498998"><ele>362.0</ele><time>2026-04-28T12:46:32.027Z</time></trkpt><trkpt lat="38.7006056" lon="22.4499359"><ele>361.0</ele><time>2026-04-28T12:46:33.026Z</time></trkpt><trkpt lat="38.7004166" lon="22.4499799"><ele>360.0</ele><time>2026-04-28T12:46:34.026Z</time></trkpt><trkpt lat="38.7002224" lon="22.4500246"><ele>360.0</ele><time>2026-04-28T12:46:35.026Z</time></trkpt><trkpt lat="38.7000235" lon="22.4500685"><ele>360.0</ele><time>2026-04-28T12:46:36.025Z</time></trkpt><trkpt lat="38.6998188" lon="22.4500936"><ele>360.0</ele><time>2026-04-28T12:46:37.025Z</time></trkpt><trkpt lat="38.699607" lon="22.4500916"><ele>360.3333333333333</ele><time>2026-04-28T12:46:38.026Z</time></trkpt><trkpt lat="38.6993919" lon="22.4500646"><ele>360.66666666666663</ele><time>2026-04-28T12:46:39.026Z</time></trkpt><trkpt lat="38.6991867" lon="22.4500048"><ele>361.0</ele><time>2026-04-28T12:46:40.027Z</time></trkpt><trkpt lat="38.6989913" lon="22.4499228"><ele>361.0</ele><time>2026-04-28T12:46:41.027Z</time></trkpt><trkpt lat="38.6988103" lon="22.4498209"><ele>361.0</ele><time>2026-04-28T12:46:42.027Z</time></trkpt><trkpt lat="38.6986438" lon="22.4496814"><ele>361.0</ele><time>2026-04-28T12:46:43.026Z</time></trkpt><trkpt lat="38.6984869" lon="22.4495112"><ele>363.0</ele><time>2026-04-28T12:46:44.025Z</time></trkpt><trkpt lat="38.6983309" lon="22.4493174"><ele>365.0</ele><time>2026-04-28T12:46:45.026Z</time></trkpt><trkpt lat="38.698182" lon="22.4491023"><ele>367.0</ele><time>2026-04-28T12:46:46.026Z</time></trkpt><trkpt lat="38.6980373" lon="22.4488738"><ele>368.5</ele><time>2026-04-28T12:46:47.026Z</time></trkpt><trkpt lat="38.697892" lon="22.4486298"><ele>370.0</ele><time>2026-04-28T12:46:48.027Z</time></trkpt><trkpt lat="38.6977512" lon="22.4483915"><ele>372.5</ele><time>2026-04-28T12:46:49.025Z</time></trkpt><trkpt lat="38.6976076" lon="22.4481506"><ele>375.0</ele><time>2026-04-28T12:46:50.027Z</time></trkpt><trkpt lat="38.6974689" lon="22.4479184"><ele>375.0</ele><time>2026-04-28T12:46:51.026Z</time></trkpt><trkpt lat="38.6973354" lon="22.4476871"><ele>375.0</ele><time>2026-04-28T12:46:52.027Z</time></trkpt><trkpt lat="38.6971936" lon="22.4474621"><ele>375.0</ele><time>2026-04-28T12:46:53.025Z</time></trkpt><trkpt lat="38.6970571" lon="22.4472411"><ele>375.0</ele><time>2026-04-28T12:46:54.025Z</time></trkpt><trkpt lat="38.6969277" lon="22.4470221"><ele>375.0</ele><time>2026-04-28T12:46:55.026Z</time></trkpt><trkpt lat="38.6967989" lon="22.4468059"><ele>377.6666666666667</ele><time>2026-04-28T12:46:56.025Z</time></trkpt><trkpt lat="38.6966663" lon="22.4465918"><ele>380.33333333333337</ele><time>2026-04-28T12:46:57.025Z</time></trkpt><trkpt lat="38.696536" lon="22.446378"><ele>383.0</ele><time>2026-04-28T12:46:58.027Z</time></trkpt><trkpt lat="38.6964046" lon="22.4461692"><ele>384.0</ele><time>2026-04-28T12:46:59.027Z</time></trkpt><trkpt lat="38.6962777" lon="22.4459566"><ele>385.0</ele><time>2026-04-28T12:47:00.026Z</time></trkpt><trkpt lat="38.6961566" lon="22.4457385"><ele>386.0</ele><time>2026-04-28T12:47:01.026Z</time></trkpt><trkpt lat="38.696036" lon="22.4455208"><ele>387.66666666666663</ele><time>2026-04-28T12:47:02.026Z</time></trkpt><trkpt lat="38.6959217" lon="22.4453047"><ele>389.33333333333337</ele><time>2026-04-28T12:47:03.025Z</time></trkpt><trkpt lat="38.6958039" lon="22.4450899"><ele>391.0</ele><time>2026-04-28T12:47:04.026Z</time></trkpt><trkpt lat="38.6956924" lon="22.4448805"><ele>391.0</ele><time>2026-04-28T12:47:05.025Z</time></trkpt><trkpt lat="38.6955842" lon="22.4446721"><ele>391.0</ele><time>2026-04-28T12:47:06.025Z</time></trkpt><trkpt lat="38.6954794" lon="22.4444635"><ele>391.0</ele><time>2026-04-28T12:47:07.026Z</time></trkpt><trkpt lat="38.695371" lon="22.4442539"><ele>391.0</ele><time>2026-04-28T12:47:08.026Z</time></trkpt><trkpt lat="38.6952583" lon="22.444041"><ele>391.0</ele><time>2026-04-28T12:47:09.025Z</time></trkpt><trkpt lat="38.6951448" lon="22.4438265"><ele>391.0</ele><time>2026-04-28T12:47:10.026Z</time></trkpt><trkpt lat="38.6950294" lon="22.4436097"><ele>391.0</ele><time>2026-04-28T12:47:11.026Z</time></trkpt><trkpt lat="38.694913" lon="22.4433915"><ele>391.0</ele><time>2026-04-28T12:47:12.026Z</time></trkpt><trkpt lat="38.6947881" lon="22.4431727"><ele>391.0</ele><time>2026-04-28T12:47:13.025Z</time></trkpt><trkpt lat="38.6946511" lon="22.4429571"><ele>391.6666666666667</ele><time>2026-04-28T12:47:14.025Z</time></trkpt><trkpt lat="38.6945011" lon="22.4427475"><ele>392.33333333333337</ele><time>2026-04-28T12:47:15.026Z</time></trkpt><trkpt lat="38.6943389" lon="22.4425585"><ele>393.0</ele><time>2026-04-28T12:47:16.025Z</time></trkpt><trkpt lat="38.694158" lon="22.4423843"><ele>393.0</ele><time>2026-04-28T12:47:17.025Z</time></trkpt><trkpt lat="38.6939677" lon="22.4422241"><ele>393.0</ele><time>2026-04-28T12:47:18.026Z</time></trkpt><trkpt lat="38.6937723" lon="22.4420689"><ele>391.0</ele><time>2026-04-28T12:47:19.027Z</time></trkpt><trkpt lat="38.6935734" lon="22.4419134"><ele>389.0</ele><time>2026-04-28T12:47:20.025Z</time></trkpt><trkpt lat="38.6933661" lon="22.4417685"><ele>389.0</ele><time>2026-04-28T12:47:21.027Z</time></trkpt><trkpt lat="38.6931511" lon="22.4416238"><ele>389.0</ele><time>2026-04-28T12:47:22.027Z</time></trkpt><trkpt lat="38.69294" lon="22.4414718"><ele>389.5</ele><time>2026-04-28T12:47:23.025Z</time></trkpt><trkpt lat="38.6927245" lon="22.4413196"><ele>390.0</ele><time>2026-04-28T12:47:24.027Z</time></trkpt><trkpt lat="38.692507" lon="22.4411691"><ele>391.5</ele><time>2026-04-28T12:47:25.027Z</time></trkpt><trkpt lat="38.6922918" lon="22.4410173"><ele>393.0</ele><time>2026-04-28T12:47:26.027Z</time></trkpt><trkpt lat="38.692075" lon="22.4408657"><ele>393.0</ele><time>2026-04-28T12:47:27.027Z</time></trkpt><trkpt lat="38.6918586" lon="22.4407122"><ele>393.0</ele><time>2026-04-28T12:47:28.027Z</time></trkpt><trkpt lat="38.6916417" lon="22.4405607"><ele>393.0</ele><time>2026-04-28T12:47:29.026Z</time></trkpt><trkpt lat="38.6914237" lon="22.44041"><ele>393.0</ele><time>2026-04-28T12:47:30.026Z</time></trkpt><trkpt lat="38.6912047" lon="22.4402597"><ele>393.5</ele><time>2026-04-28T12:47:31.026Z</time></trkpt><trkpt lat="38.6909874" lon="22.4401061"><ele>394.0</ele><time>2026-04-28T12:47:32.026Z</time></trkpt><trkpt lat="38.690771" lon="22.4399507"><ele>394.0</ele><time>2026-04-28T12:47:33.027Z</time></trkpt><trkpt lat="38.6905539" lon="22.4397952"><ele>394.0</ele><time>2026-04-28T12:47:34.026Z</time></trkpt><trkpt lat="38.6903395" lon="22.4396424"><ele>396.0</ele><time>2026-04-28T12:47:35.026Z</time></trkpt><trkpt lat="38.6901279" lon="22.4394905"><ele>398.0</ele><time>2026-04-28T12:47:36.026Z</time></trkpt><trkpt lat="38.6899153" lon="22.4393425"><ele>398.0</ele><time>2026-04-28T12:47:37.025Z</time></trkpt><trkpt lat="38.689702" lon="22.4391951"><ele>398.0</ele><time>2026-04-28T12:47:38.027Z</time></trkpt><trkpt lat="38.6894876" lon="22.439049"><ele>397.5</ele><time>2026-04-28T12:47:39.026Z</time></trkpt><trkpt lat="38.6892748" lon="22.4389016"><ele>397.0</ele><time>2026-04-28T12:47:40.026Z</time></trkpt><trkpt lat="38.6890642" lon="22.4387513"><ele>397.0</ele><time>2026-04-28T12:47:41.027Z</time></trkpt><trkpt lat="38.6888559" lon="22.4386044"><ele>397.0</ele><time>2026-04-28T12:47:42.026Z</time></trkpt><trkpt lat="38.6886542" lon="22.4384539"><ele>396.5</ele><time>2026-04-28T12:47:43.027Z</time></trkpt><trkpt lat="38.6884663" lon="22.4382883"><ele>396.0</ele><time>2026-04-28T12:47:44.027Z</time></trkpt><trkpt lat="38.6882902" lon="22.4381033"><ele>396.0</ele><time>2026-04-28T12:47:45.027Z</time></trkpt><trkpt lat="38.6881193" lon="22.4379124"><ele>396.0</ele><time>2026-04-28T12:47:46.026Z</time></trkpt><trkpt lat="38.6879528" lon="22.4376988"><ele>396.0</ele><time>2026-04-28T12:47:47.026Z</time></trkpt><trkpt lat="38.6877911" lon="22.4374727"><ele>396.0</ele><time>2026-04-28T12:47:48.026Z</time></trkpt><trkpt lat="38.6876332" lon="22.4372302"><ele>394.0</ele><time>2026-04-28T12:47:49.026Z</time></trkpt><trkpt lat="38.687474" lon="22.4369868"><ele>392.0</ele><time>2026-04-28T12:47:50.026Z</time></trkpt><trkpt lat="38.6873144" lon="22.4367428"><ele>392.0</ele><time>2026-04-28T12:47:51.026Z</time></trkpt><trkpt lat="38.6871611" lon="22.4364982"><ele>392.0</ele><time>2026-04-28T12:47:52.026Z</time></trkpt><trkpt lat="38.6870058" lon="22.4362576"><ele>389.5</ele><time>2026-04-28T12:47:53.027Z</time></trkpt><trkpt lat="38.6868548" lon="22.4360225"><ele>387.0</ele><time>2026-04-28T12:47:54.027Z</time></trkpt><trkpt lat="38.6867041" lon="22.4357886"><ele>387.0</ele><time>2026-04-28T12:47:55.025Z</time></trkpt><trkpt lat="38.6865586" lon="22.4355562"><ele>387.0</ele><time>2026-04-28T12:47:56.026Z</time></trkpt><trkpt lat="38.6864132" lon="22.4353313"><ele>386.66666666666663</ele><time>2026-04-28T12:47:57.026Z</time></trkpt><trkpt lat="38.6862735" lon="22.4351069"><ele>386.3333333333333</ele><time>2026-04-28T12:47:58.025Z</time></trkpt><trkpt lat="38.6861427" lon="22.434878"><ele>386.0</ele><time>2026-04-28T12:47:59.026Z</time></trkpt><trkpt lat="38.686022" lon="22.4346448"><ele>385.66666666666663</ele><time>2026-04-28T12:48:00.026Z</time></trkpt><trkpt lat="38.6859169" lon="22.4344024"><ele>385.33333333333337</ele><time>2026-04-28T12:48:01.026Z</time></trkpt><trkpt lat="38.6858257" lon="22.4341481"><ele>385.0</ele><time>2026-04-28T12:48:02.026Z</time></trkpt><trkpt lat="38.6857455" lon="22.4338855"><ele>385.6666666666667</ele><time>2026-04-28T12:48:03.027Z</time></trkpt><trkpt lat="38.6856819" lon="22.4336142"><ele>386.33333333333337</ele><time>2026-04-28T12:48:04.026Z</time></trkpt><trkpt lat="38.6856369" lon="22.4333373"><ele>387.0</ele><time>2026-04-28T12:48:05.026Z</time></trkpt><trkpt lat="38.6856103" lon="22.4330515"><ele>385.5</ele><time>2026-04-28T12:48:06.026Z</time></trkpt><trkpt lat="38.6856114" lon="22.4327461"><ele>384.0</ele><time>2026-04-28T12:48:07.027Z</time></trkpt><trkpt lat="38.6856103" lon="22.4324382"><ele>381.0</ele><time>2026-04-28T12:48:08.026Z</time></trkpt><trkpt lat="38.6856192" lon="22.4321225"><ele>378.0</ele><time>2026-04-28T12:48:09.025Z</time></trkpt><trkpt lat="38.6856178" lon="22.4318096"><ele>378.0</ele><time>2026-04-28T12:48:10.027Z</time></trkpt><trkpt lat="38.6856275" lon="22.4314815"><ele>378.0</ele><time>2026-04-28T12:48:11.026Z</time></trkpt><trkpt lat="38.6856257" lon="22.4311622"><ele>378.5</ele><time>2026-04-28T12:48:12.026Z</time></trkpt><trkpt lat="38.6856275" lon="22.4308452"><ele>379.0</ele><time>2026-04-28T12:48:13.026Z</time></trkpt><trkpt lat="38.6856254" lon="22.4305273"><ele>380.0</ele><time>2026-04-28T12:48:14.027Z</time></trkpt><trkpt lat="38.6856266" lon="22.4302125"><ele>381.0</ele><time>2026-04-28T12:48:15.027Z</time></trkpt><trkpt lat="38.6856353" lon="22.4298973"><ele>382.5</ele><time>2026-04-28T12:48:16.026Z</time></trkpt><trkpt lat="38.6856318" lon="22.4295865"><ele>384.0</ele><time>2026-04-28T12:48:17.026Z</time></trkpt><trkpt lat="38.6856195" lon="22.4292773"><ele>384.0</ele><time>2026-04-28T12:48:18.026Z</time></trkpt><trkpt lat="38.6855971" lon="22.4289743"><ele>384.0</ele><time>2026-04-28T12:48:19.026Z</time></trkpt><trkpt lat="38.6855663" lon="22.4286875"><ele>384.0</ele><time>2026-04-28T12:48:20.026Z</time></trkpt><trkpt lat="38.6855254" lon="22.4284047"><ele>384.0</ele><time>2026-04-28T12:48:21.026Z</time></trkpt><trkpt lat="38.6854744" lon="22.4281131"><ele>386.0</ele><time>2026-04-28T12:48:22.027Z</time></trkpt><trkpt lat="38.6854141" lon="22.4278158"><ele>388.0</ele><time>2026-04-28T12:48:23.025Z</time></trkpt><trkpt lat="38.6853505" lon="22.4275126"><ele>388.0</ele><time>2026-04-28T12:48:24.026Z</time></trkpt><trkpt lat="38.6852882" lon="22.4272051"><ele>388.0</ele><time>2026-04-28T12:48:25.026Z</time></trkpt><trkpt lat="38.6852251" lon="22.4268936"><ele>390.0</ele><time>2026-04-28T12:48:26.026Z</time></trkpt><trkpt lat="38.6851617" lon="22.4265798"><ele>392.0</ele><time>2026-04-28T12:48:27.025Z</time></trkpt><trkpt lat="38.6850978" lon="22.426269"><ele>392.0</ele><time>2026-04-28T12:48:28.026Z</time></trkpt><trkpt lat="38.6850342" lon="22.4259561"><ele>392.0</ele><time>2026-04-28T12:48:29.026Z</time></trkpt><trkpt lat="38.6849691" lon="22.4256518"><ele>392.0</ele><time>2026-04-28T12:48:30.026Z</time></trkpt><trkpt lat="38.6849065" lon="22.4253527"><ele>392.0</ele><time>2026-04-28T12:48:31.026Z</time></trkpt><trkpt lat="38.6848451" lon="22.4250528"><ele>392.0</ele><time>2026-04-28T12:48:32.026Z</time></trkpt><trkpt lat="38.6847814" lon="22.4247408"><ele>392.0</ele><time>2026-04-28T12:48:33.027Z</time></trkpt><trkpt lat="38.684715" lon="22.4244192"><ele>391.5</ele><time>2026-04-28T12:48:34.027Z</time></trkpt><trkpt lat="38.684646" lon="22.424088"><ele>391.0</ele><time>2026-04-28T12:48:35.026Z</time></trkpt><trkpt lat="38.6845741" lon="22.4237542"><ele>392.5</ele><time>2026-04-28T12:48:36.026Z</time></trkpt><trkpt lat="38.6844945" lon="22.4234241"><ele>394.0</ele><time>2026-04-28T12:48:37.026Z</time></trkpt><trkpt lat="38.6843967" lon="22.4230989"><ele>397.5</ele><time>2026-04-28T12:48:38.027Z</time></trkpt><trkpt lat="38.6842822" lon="22.4227811"><ele>401.0</ele><time>2026-04-28T12:48:39.026Z</time></trkpt><trkpt lat="38.6841325" lon="22.422464"><ele>401.0</ele><time>2026-04-28T12:48:40.027Z</time></trkpt><trkpt lat="38.6839639" lon="22.4221538"><ele>401.0</ele><time>2026-04-28T12:48:41.027Z</time></trkpt><trkpt lat="38.6837857" lon="22.421862"><ele>401.0</ele><time>2026-04-28T12:48:42.026Z</time></trkpt><trkpt lat="38.6835658" lon="22.4216018"><ele>401.0</ele><time>2026-04-28T12:48:43.027Z</time></trkpt><trkpt lat="38.6833311" lon="22.4213654"><ele>400.5</ele><time>2026-04-28T12:48:44.027Z</time></trkpt><trkpt lat="38.6830792" lon="22.4211522"><ele>400.0</ele><time>2026-04-28T12:48:45.027Z</time></trkpt><trkpt lat="38.6828122" lon="22.4209758"><ele>402.5</ele><time>2026-04-28T12:48:46.026Z</time></trkpt><trkpt lat="38.6825358" lon="22.4208365"><ele>405.0</ele><time>2026-04-28T12:48:47.027Z</time></trkpt><trkpt lat="38.6822488" lon="22.4207281"><ele>405.0</ele><time>2026-04-28T12:48:48.026Z</time></trkpt><trkpt lat="38.6819563" lon="22.4206518"><ele>405.0</ele><time>2026-04-28T12:48:49.026Z</time></trkpt><trkpt lat="38.6816606" lon="22.4206114"><ele>407.5</ele><time>2026-04-28T12:48:50.025Z</time></trkpt><trkpt lat="38.6813723" lon="22.420609"><ele>410.0</ele><time>2026-04-28T12:48:51.025Z</time></trkpt><trkpt lat="38.6810824" lon="22.4206394"><ele>413.5</ele><time>2026-04-28T12:48:52.025Z</time></trkpt><trkpt lat="38.6807998" lon="22.4206924"><ele>417.0</ele><time>2026-04-28T12:48:53.025Z</time></trkpt><trkpt lat="38.6805283" lon="22.4207594"><ele>419.5</ele><time>2026-04-28T12:48:54.026Z</time></trkpt><trkpt lat="38.6802664" lon="22.4208413"><ele>422.0</ele><time>2026-04-28T12:48:55.026Z</time></trkpt><trkpt lat="38.6800069" lon="22.420919"><ele>422.0</ele><time>2026-04-28T12:48:56.027Z</time></trkpt><trkpt lat="38.6797564" lon="22.4209948"><ele>422.0</ele><time>2026-04-28T12:48:57.026Z</time></trkpt><trkpt lat="38.6795078" lon="22.4210653"><ele>425.5</ele><time>2026-04-28T12:48:58.027Z</time></trkpt><trkpt lat="38.6792683" lon="22.4211337"><ele>429.0</ele><time>2026-04-28T12:48:59.027Z</time></trkpt><trkpt lat="38.6790254" lon="22.4212023"><ele>429.0</ele><time>2026-04-28T12:49:00.026Z</time></trkpt><trkpt lat="38.6787855" lon="22.4212713"><ele>429.0</ele><time>2026-04-28T12:49:01.026Z</time></trkpt><trkpt lat="38.6785448" lon="22.4213447"><ele>423.0</ele><time>2026-04-28T12:49:02.026Z</time></trkpt><trkpt lat="38.6783024" lon="22.4214119"><ele>417.0</ele><time>2026-04-28T12:49:03.027Z</time></trkpt><trkpt lat="38.6780627" lon="22.421479"><ele>417.0</ele><time>2026-04-28T12:49:04.025Z</time></trkpt><trkpt lat="38.6778226" lon="22.4215484"><ele>417.0</ele><time>2026-04-28T12:49:05.025Z</time></trkpt><trkpt lat="38.6775844" lon="22.4216198"><ele>420.0</ele><time>2026-04-28T12:49:06.026Z</time></trkpt><trkpt lat="38.6773456" lon="22.4216931"><ele>423.0</ele><time>2026-04-28T12:49:07.027Z</time></trkpt><trkpt lat="38.6771099" lon="22.4217745"><ele>425.5</ele><time>2026-04-28T12:49:08.027Z</time></trkpt><trkpt lat="38.6768778" lon="22.4218729"><ele>428.0</ele><time>2026-04-28T12:49:09.026Z</time></trkpt><trkpt lat="38.6766493" lon="22.4219896"><ele>428.0</ele><time>2026-04-28T12:49:10.027Z</time></trkpt><trkpt lat="38.6764235" lon="22.4221216"><ele>428.0</ele><time>2026-04-28T12:49:11.027Z</time></trkpt><trkpt lat="38.6761972" lon="22.4222639"><ele>425.5</ele><time>2026-04-28T12:49:12.025Z</time></trkpt><trkpt lat="38.6759702" lon="22.4224092"><ele>423.0</ele><time>2026-04-28T12:49:13.026Z</time></trkpt><trkpt lat="38.6757423" lon="22.4225763"><ele>423.0</ele><time>2026-04-28T12:49:14.026Z</time></trkpt><trkpt lat="38.67551" lon="22.4227278"><ele>423.0</ele><time>2026-04-28T12:49:15.027Z</time></trkpt><trkpt lat="38.6752744" lon="22.4228697"><ele>421.5</ele><time>2026-04-28T12:49:16.025Z</time></trkpt><trkpt lat="38.6750392" lon="22.4230145"><ele>420.0</ele><time>2026-04-28T12:49:17.026Z</time></trkpt><trkpt lat="38.6748074" lon="22.4231445"><ele>420.0</ele><time>2026-04-28T12:49:18.025Z</time></trkpt><trkpt lat="38.6745777" lon="22.4232827"><ele>420.0</ele><time>2026-04-28T12:49:19.027Z</time></trkpt><trkpt lat="38.6743506" lon="22.4234277"><ele>426.0</ele><time>2026-04-28T12:49:20.025Z</time></trkpt><trkpt lat="38.6741219" lon="22.4235691"><ele>432.0</ele><time>2026-04-28T12:49:21.026Z</time></trkpt><trkpt lat="38.6738945" lon="22.4237125"><ele>430.5</ele><time>2026-04-28T12:49:22.026Z</time></trkpt><trkpt lat="38.6736707" lon="22.4238545"><ele>429.0</ele><time>2026-04-28T12:49:23.026Z</time></trkpt><trkpt lat="38.6734448" lon="22.423994"><ele>429.0</ele><time>2026-04-28T12:49:24.025Z</time></trkpt><trkpt lat="38.6732261" lon="22.4241245"><ele>429.0</ele><time>2026-04-28T12:49:25.025Z</time></trkpt><trkpt lat="38.6730113" lon="22.4242408"><ele>429.0</ele><time>2026-04-28T12:49:26.026Z</time></trkpt><trkpt lat="38.6728007" lon="22.4243507"><ele>429.0</ele><time>2026-04-28T12:49:27.026Z</time></trkpt><trkpt lat="38.6725943" lon="22.4244527"><ele>429.0</ele><time>2026-04-28T12:49:28.026Z</time></trkpt><trkpt lat="38.6723877" lon="22.4245359"><ele>431.33333333333337</ele><time>2026-04-28T12:49:29.027Z</time></trkpt><trkpt lat="38.6721837" lon="22.4246213"><ele>433.6666666666667</ele><time>2026-04-28T12:49:30.026Z</time></trkpt><trkpt lat="38.6719704" lon="22.4246999"><ele>436.0</ele><time>2026-04-28T12:49:31.026Z</time></trkpt><trkpt lat="38.6717606" lon="22.424787"><ele>436.0</ele><time>2026-04-28T12:49:32.027Z</time></trkpt><trkpt lat="38.6715609" lon="22.4248642"><ele>436.0</ele><time>2026-04-28T12:49:33.025Z</time></trkpt><trkpt lat="38.6713564" lon="22.4249262"><ele>436.0</ele><time>2026-04-28T12:49:34.025Z</time></trkpt><trkpt lat="38.6711546" lon="22.4249625"><ele>439.0</ele><time>2026-04-28T12:49:35.025Z</time></trkpt><trkpt lat="38.6709504" lon="22.4249726"><ele>442.0</ele><time>2026-04-28T12:49:36.027Z</time></trkpt><trkpt lat="38.6707612" lon="22.4249747"><ele>445.0</ele><time>2026-04-28T12:49:37.026Z</time></trkpt><trkpt lat="38.6705789" lon="22.4250049"><ele>445.0</ele><time>2026-04-28T12:49:38.027Z</time></trkpt><trkpt lat="38.6703888" lon="22.425081"><ele>445.0</ele><time>2026-04-28T12:49:39.026Z</time></trkpt><trkpt lat="38.6701996" lon="22.4251925"><ele>445.0</ele><time>2026-04-28T12:49:40.027Z</time></trkpt><trkpt lat="38.6700168" lon="22.4253215"><ele>441.0</ele><time>2026-04-28T12:49:41.026Z</time></trkpt><trkpt lat="38.6698324" lon="22.4254382"><ele>437.0</ele><time>2026-04-28T12:49:42.026Z</time></trkpt><trkpt lat="38.6696443" lon="22.4255384"><ele>433.0</ele><time>2026-04-28T12:49:43.027Z</time></trkpt><trkpt lat="38.6694435" lon="22.425606"><ele>438.0</ele><time>2026-04-28T12:49:44.026Z</time></trkpt><trkpt lat="38.6692337" lon="22.4256529"><ele>443.0</ele><time>2026-04-28T12:49:45.026Z</time></trkpt><trkpt lat="38.669017" lon="22.4256637"><ele>448.0</ele><time>2026-04-28T12:49:46.026Z</time></trkpt><trkpt lat="38.6687893" lon="22.4256436"><ele>450.0</ele><time>2026-04-28T12:49:47.026Z</time></trkpt><trkpt lat="38.6685591" lon="22.425594"><ele>452.0</ele><time>2026-04-28T12:49:48.026Z</time></trkpt><trkpt lat="38.6683261" lon="22.4255251"><ele>466.0</ele><time>2026-04-28T12:49:49.027Z</time></trkpt><trkpt lat="38.6680944" lon="22.4254523"><ele>480.0</ele><time>2026-04-28T12:49:50.025Z</time></trkpt><trkpt lat="38.6678778" lon="22.4253839"><ele>480.33333333333337</ele><time>2026-04-28T12:49:51.025Z</time></trkpt><trkpt lat="38.6676686" lon="22.425335"><ele>480.6666666666667</ele><time>2026-04-28T12:49:52.026Z</time></trkpt><trkpt lat="38.6674643" lon="22.4253156"><ele>481.0</ele><time>2026-04-28T12:49:53.025Z</time></trkpt><trkpt lat="38.6672626" lon="22.4253343"><ele>481.0</ele><time>2026-04-28T12:49:54.025Z</time></trkpt><trkpt lat="38.6670631" lon="22.4253942"><ele>481.0</ele><time>2026-04-28T12:49:55.026Z</time></trkpt><trkpt lat="38.6668611" lon="22.4254816"><ele>481.0</ele><time>2026-04-28T12:49:56.026Z</time></trkpt><trkpt lat="38.6666593" lon="22.4255779"><ele>476.33333333333337</ele><time>2026-04-28T12:49:57.026Z</time></trkpt><trkpt lat="38.666476" lon="22.4256641"><ele>471.66666666666663</ele><time>2026-04-28T12:49:58.025Z</time></trkpt><trkpt lat="38.6662853" lon="22.425705"><ele>467.0</ele><time>2026-04-28T12:49:59.027Z</time></trkpt><trkpt lat="38.6660898" lon="22.4257164"><ele>467.0</ele><time>2026-04-28T12:50:00.026Z</time></trkpt><trkpt lat="38.6658954" lon="22.4257204"><ele>467.0</ele><time>2026-04-28T12:50:01.027Z</time></trkpt><trkpt lat="38.6656804" lon="22.4256233"><ele>467.0</ele><time>2026-04-28T12:50:02.026Z</time></trkpt><trkpt lat="38.665454" lon="22.4255547"><ele>466.0</ele><time>2026-04-28T12:50:03.027Z</time></trkpt><trkpt lat="38.6652426" lon="22.4254863"><ele>465.0</ele><time>2026-04-28T12:50:04.026Z</time></trkpt><trkpt lat="38.6650324" lon="22.4254216"><ele>464.0</ele><time>2026-04-28T12:50:05.026Z</time></trkpt><trkpt lat="38.6648232" lon="22.4253765"><ele>474.3333333333333</ele><time>2026-04-28T12:50:06.025Z</time></trkpt><trkpt lat="38.6646204" lon="22.4253619"><ele>484.66666666666663</ele><time>2026-04-28T12:50:07.026Z</time></trkpt><trkpt lat="38.664418" lon="22.4253817"><ele>495.0</ele><time>2026-04-28T12:50:08.026Z</time></trkpt><trkpt lat="38.6642124" lon="22.4254296"><ele>486.66666666666663</ele><time>2026-04-28T12:50:09.025Z</time></trkpt><trkpt lat="38.6640071" lon="22.425509"><ele>478.3333333333333</ele><time>2026-04-28T12:50:10.026Z</time></trkpt><trkpt lat="38.6638098" lon="22.4256174"><ele>470.0</ele><time>2026-04-28T12:50:11.025Z</time></trkpt><trkpt lat="38.6636143" lon="22.4257423"><ele>477.66666666666663</ele><time>2026-04-28T12:50:12.026Z</time></trkpt><trkpt lat="38.6634273" lon="22.4258853"><ele>485.33333333333337</ele><time>2026-04-28T12:50:13.026Z</time></trkpt><trkpt lat="38.6632419" lon="22.4260333"><ele>493.0</ele><time>2026-04-28T12:50:14.027Z</time></trkpt><trkpt lat="38.6630505" lon="22.4261527"><ele>493.0</ele><time>2026-04-28T12:50:15.026Z</time></trkpt><trkpt lat="38.6628667" lon="22.4262627"><ele>493.0</ele><time>2026-04-28T12:50:16.025Z</time></trkpt><trkpt lat="38.6626762" lon="22.4263645"><ele>493.0</ele><time>2026-04-28T12:50:17.024Z</time></trkpt><trkpt lat="38.6624891" lon="22.4264533"><ele>494.0</ele><time>2026-04-28T12:50:18.025Z</time></trkpt><trkpt lat="38.6623008" lon="22.4265272"><ele>495.0</ele><time>2026-04-28T12:50:19.025Z</time></trkpt><trkpt lat="38.6621115" lon="22.4266094"><ele>496.0</ele><time>2026-04-28T12:50:20.026Z</time></trkpt><trkpt lat="38.6619275" lon="22.4266785"><ele>496.0</ele><time>2026-04-28T12:50:21.026Z</time></trkpt><trkpt lat="38.6617595" lon="22.4267205"><ele>496.0</ele><time>2026-04-28T12:50:22.025Z</time></trkpt><trkpt lat="38.6615963" lon="22.4267318"><ele>496.0</ele><time>2026-04-28T12:50:23.025Z</time></trkpt><trkpt lat="38.6614313" lon="22.4267043"><ele>496.0</ele><time>2026-04-28T12:50:24.025Z</time></trkpt><trkpt lat="38.6612673" lon="22.426634"><ele>496.0</ele><time>2026-04-28T12:50:25.026Z</time></trkpt><trkpt lat="38.6610995" lon="22.4265227"><ele>496.0</ele><time>2026-04-28T12:50:26.025Z</time></trkpt><trkpt lat="38.6609405" lon="22.4263911"><ele>503.6666666666667</ele><time>2026-04-28T12:50:27.025Z</time></trkpt><trkpt lat="38.6607713" lon="22.4262677"><ele>511.33333333333337</ele><time>2026-04-28T12:50:28.025Z</time></trkpt><trkpt lat="38.6605963" lon="22.4261818"><ele>519.0</ele><time>2026-04-28T12:50:29.025Z</time></trkpt><trkpt lat="38.6604144" lon="22.4261275"><ele>521.3333333333334</ele><time>2026-04-28T12:50:30.026Z</time></trkpt><trkpt lat="38.6602207" lon="22.4261048"><ele>523.6666666666667</ele><time>2026-04-28T12:50:31.026Z</time></trkpt><trkpt lat="38.6600205" lon="22.4260992"><ele>526.0</ele><time>2026-04-28T12:50:32.025Z</time></trkpt><trkpt lat="38.6598133" lon="22.4260915"><ele>526.0</ele><time>2026-04-28T12:50:33.026Z</time></trkpt><trkpt lat="38.6596018" lon="22.4260649"><ele>526.0</ele><time>2026-04-28T12:50:34.024Z</time></trkpt><trkpt lat="38.659389" lon="22.4260351"><ele>526.0</ele><time>2026-04-28T12:50:35.025Z</time></trkpt><trkpt lat="38.6591805" lon="22.4259726"><ele>523.3333333333334</ele><time>2026-04-28T12:50:36.026Z</time></trkpt><trkpt lat="38.6589793" lon="22.4258882"><ele>520.6666666666666</ele><time>2026-04-28T12:50:37.026Z</time></trkpt><trkpt lat="38.6587849" lon="22.4257857"><ele>518.0</ele><time>2026-04-28T12:50:38.025Z</time></trkpt><trkpt lat="38.6585868" lon="22.4256659"><ele>513.0</ele><time>2026-04-28T12:50:39.024Z</time></trkpt><trkpt lat="38.6583864" lon="22.4255145"><ele>508.0</ele><time>2026-04-28T12:50:40.025Z</time></trkpt><trkpt lat="38.6581828" lon="22.4253282"><ele>504.0</ele><time>2026-04-28T12:50:41.025Z</time></trkpt><trkpt lat="38.6579794" lon="22.4251096"><ele>500.0</ele><time>2026-04-28T12:50:42.026Z</time></trkpt><trkpt lat="38.6577725" lon="22.4248613"><ele>500.0</ele><time>2026-04-28T12:50:43.025Z</time></trkpt><trkpt lat="38.6575618" lon="22.4245947"><ele>500.0</ele><time>2026-04-28T12:50:44.025Z</time></trkpt><trkpt lat="38.6573522" lon="22.4243289"><ele>500.0</ele><time>2026-04-28T12:50:45.025Z</time></trkpt><trkpt lat="38.6571489" lon="22.4240716"><ele>500.0</ele><time>2026-04-28T12:50:46.025Z</time></trkpt><trkpt lat="38.6569553" lon="22.4238235"><ele>500.0</ele><time>2026-04-28T12:50:47.025Z</time></trkpt><trkpt lat="38.6567666" lon="22.4235987"><ele>500.0</ele><time>2026-04-28T12:50:48.025Z</time></trkpt><trkpt lat="38.6565689" lon="22.4233993"><ele>500.0</ele><time>2026-04-28T12:50:49.024Z</time></trkpt><trkpt lat="38.6563608" lon="22.4232234"><ele>500.0</ele><time>2026-04-28T12:50:50.025Z</time></trkpt><trkpt lat="38.6561457" lon="22.4230663"><ele>517.5</ele><time>2026-04-28T12:50:51.025Z</time></trkpt><trkpt lat="38.6559262" lon="22.4229043"><ele>535.0</ele><time>2026-04-28T12:50:52.024Z</time></trkpt><trkpt lat="38.6557073" lon="22.422704"><ele>535.0</ele><time>2026-04-28T12:50:53.026Z</time></trkpt><trkpt lat="38.6554856" lon="22.4224693"><ele>535.0</ele><time>2026-04-28T12:50:54.025Z</time></trkpt><trkpt lat="38.6552614" lon="22.4222107"><ele>539.0</ele><time>2026-04-28T12:50:55.025Z</time></trkpt><trkpt lat="38.6550511" lon="22.4219518"><ele>543.0</ele><time>2026-04-28T12:50:56.025Z</time></trkpt><trkpt lat="38.6548528" lon="22.4217115"><ele>543.0</ele><time>2026-04-28T12:50:57.026Z</time></trkpt><trkpt lat="38.6546696" lon="22.421485"><ele>543.0</ele><time>2026-04-28T12:50:58.024Z</time></trkpt><trkpt lat="38.6544951" lon="22.4212787"><ele>545.0</ele><time>2026-04-28T12:50:59.024Z</time></trkpt><trkpt lat="38.6543279" lon="22.4211122"><ele>547.0</ele><time>2026-04-28T12:51:00.026Z</time></trkpt><trkpt lat="38.6541647" lon="22.420975"><ele>549.0</ele><time>2026-04-28T12:51:01.026Z</time></trkpt><trkpt lat="38.6539955" lon="22.4208671"><ele>549.0</ele><time>2026-04-28T12:51:02.026Z</time></trkpt><trkpt lat="38.6538303" lon="22.4207756"><ele>549.0</ele><time>2026-04-28T12:51:03.026Z</time></trkpt><trkpt lat="38.6536845" lon="22.4206865"><ele>549.0</ele><time>2026-04-28T12:51:04.025Z</time></trkpt><trkpt lat="38.6535504" lon="22.4205867"><ele>553.25</ele><time>2026-04-28T12:51:05.026Z</time></trkpt><trkpt lat="38.6534306" lon="22.42047"><ele>557.5</ele><time>2026-04-28T12:51:06.026Z</time></trkpt><trkpt lat="38.6533174" lon="22.4203429"><ele>561.75</ele><time>2026-04-28T12:51:07.026Z</time></trkpt><trkpt lat="38.6532182" lon="22.4202093"><ele>566.0</ele><time>2026-04-28T12:51:08.026Z</time></trkpt><trkpt lat="38.6531266" lon="22.4200701"><ele>566.0</ele><time>2026-04-28T12:51:09.025Z</time></trkpt><trkpt lat="38.653031" lon="22.419936"><ele>566.0</ele><time>2026-04-28T12:51:10.024Z</time></trkpt><trkpt lat="38.6529354" lon="22.4198114"><ele>566.0</ele><time>2026-04-28T12:51:11.026Z</time></trkpt><trkpt lat="38.6528369" lon="22.4197007"><ele>566.0</ele><time>2026-04-28T12:51:12.026Z</time></trkpt><trkpt lat="38.6527291" lon="22.4196021"><ele>564.0</ele><time>2026-04-28T12:51:13.025Z</time></trkpt><trkpt lat="38.6525895" lon="22.4195074"><ele>562.0</ele><time>2026-04-28T12:51:14.025Z</time></trkpt><trkpt lat="38.6524091" lon="22.4194222"><ele>560.0</ele><time>2026-04-28T12:51:15.024Z</time></trkpt><trkpt lat="38.652202" lon="22.4193384"><ele>560.0</ele><time>2026-04-28T12:51:16.025Z</time></trkpt><trkpt lat="38.6519634" lon="22.4192408"><ele>560.0</ele><time>2026-04-28T12:51:17.026Z</time></trkpt><trkpt lat="38.6517213" lon="22.4191405"><ele>557.5</ele><time>2026-04-28T12:51:18.025Z</time></trkpt><trkpt lat="38.6514967" lon="22.4190425"><ele>555.0</ele><time>2026-04-28T12:51:19.025Z</time></trkpt><trkpt lat="38.6513008" lon="22.41893"><ele>560.3333333333334</ele><time>2026-04-28T12:51:20.025Z</time></trkpt><trkpt lat="38.6511198" lon="22.4188004"><ele>565.6666666666667</ele><time>2026-04-28T12:51:21.026Z</time></trkpt><trkpt lat="38.6509456" lon="22.4186493"><ele>571.0</ele><time>2026-04-28T12:51:22.025Z</time></trkpt><trkpt lat="38.6507802" lon="22.4184768"><ele>571.0</ele><time>2026-04-28T12:51:23.025Z</time></trkpt><trkpt lat="38.6506277" lon="22.4182973"><ele>571.0</ele><time>2026-04-28T12:51:24.026Z</time></trkpt><trkpt lat="38.6504838" lon="22.4181162"><ele>571.0</ele><time>2026-04-28T12:51:25.026Z</time></trkpt><trkpt lat="38.6503477" lon="22.4179305"><ele>571.6666666666667</ele><time>2026-04-28T12:51:26.026Z</time></trkpt><trkpt lat="38.6502302" lon="22.4177331"><ele>572.3333333333334</ele><time>2026-04-28T12:51:27.025Z</time></trkpt><trkpt lat="38.6501291" lon="22.4175256"><ele>573.0</ele><time>2026-04-28T12:51:28.026Z</time></trkpt><trkpt lat="38.6500507" lon="22.4173127"><ele>572.0</ele><time>2026-04-28T12:51:29.024Z</time></trkpt><trkpt lat="38.6499904" lon="22.417104"><ele>571.0</ele><time>2026-04-28T12:51:30.025Z</time></trkpt><trkpt lat="38.6499413" lon="22.4168919"><ele>570.0</ele><time>2026-04-28T12:51:31.025Z</time></trkpt><trkpt lat="38.649901" lon="22.416678"><ele>570.0</ele><time>2026-04-28T12:51:32.024Z</time></trkpt><trkpt lat="38.6498609" lon="22.416465"><ele>570.0</ele><time>2026-04-28T12:51:33.025Z</time></trkpt><trkpt lat="38.6498084" lon="22.4162523"><ele>570.0</ele><time>2026-04-28T12:51:34.025Z</time></trkpt><trkpt lat="38.6497329" lon="22.4160529"><ele>571.0</ele><time>2026-04-28T12:51:35.026Z</time></trkpt><trkpt lat="38.6496355" lon="22.4158775"><ele>572.0</ele><time>2026-04-28T12:51:36.024Z</time></trkpt><trkpt lat="38.6495092" lon="22.4157275"><ele>573.0</ele><time>2026-04-28T12:51:37.024Z</time></trkpt><trkpt lat="38.6493575" lon="22.415613"><ele>574.0</ele><time>2026-04-28T12:51:38.024Z</time></trkpt><trkpt lat="38.6491919" lon="22.4155399"><ele>575.0</ele><time>2026-04-28T12:51:39.026Z</time></trkpt><trkpt lat="38.6490152" lon="22.4154966"><ele>576.0</ele><time>2026-04-28T12:51:40.026Z</time></trkpt><trkpt lat="38.6488282" lon="22.4154842"><ele>576.0</ele><time>2026-04-28T12:51:41.025Z</time></trkpt><trkpt lat="38.6486347" lon="22.4154811"><ele>576.0</ele><time>2026-04-28T12:51:42.025Z</time></trkpt><trkpt lat="38.6484527" lon="22.4154844"><ele>576.0</ele><time>2026-04-28T12:51:43.024Z</time></trkpt><trkpt lat="38.6482774" lon="22.4154761"><ele>576.6666666666666</ele><time>2026-04-28T12:51:44.025Z</time></trkpt><trkpt lat="38.6481079" lon="22.4154541"><ele>577.3333333333333</ele><time>2026-04-28T12:51:45.025Z</time></trkpt><trkpt lat="38.647946" lon="22.415401"><ele>578.0</ele><time>2026-04-28T12:51:46.026Z</time></trkpt><trkpt lat="38.6477799" lon="22.4153256"><ele>578.0</ele><time>2026-04-28T12:51:47.025Z</time></trkpt><trkpt lat="38.647611" lon="22.4152127"><ele>578.0</ele><time>2026-04-28T12:51:48.024Z</time></trkpt><trkpt lat="38.6474369" lon="22.4150766"><ele>578.0</ele><time>2026-04-28T12:51:49.025Z</time></trkpt><trkpt lat="38.6472683" lon="22.414927"><ele>578.0</ele><time>2026-04-28T12:51:50.026Z</time></trkpt><trkpt lat="38.6471091" lon="22.4147825"><ele>578.0</ele><time>2026-04-28T12:51:51.026Z</time></trkpt><trkpt lat="38.6469608" lon="22.4146508"><ele>578.0</ele><time>2026-04-28T12:51:52.025Z</time></trkpt><trkpt lat="38.6468198" lon="22.4145263"><ele>579.3333333333333</ele><time>2026-04-28T12:51:53.025Z</time></trkpt><trkpt lat="38.6466789" lon="22.4144032"><ele>580.6666666666666</ele><time>2026-04-28T12:51:54.024Z</time></trkpt><trkpt lat="38.6465393" lon="22.4142733"><ele>582.0</ele><time>2026-04-28T12:51:55.025Z</time></trkpt><trkpt lat="38.6464056" lon="22.4141277"><ele>582.0</ele><time>2026-04-28T12:51:56.026Z</time></trkpt><trkpt lat="38.6462859" lon="22.41397"><ele>582.0</ele><time>2026-04-28T12:51:57.025Z</time></trkpt><trkpt lat="38.6461791" lon="22.4137975"><ele>582.0</ele><time>2026-04-28T12:51:58.025Z</time></trkpt><trkpt lat="38.6460909" lon="22.4136264"><ele>582.0</ele><time>2026-04-28T12:51:59.026Z</time></trkpt><trkpt lat="38.6460014" lon="22.4134601"><ele>582.0</ele><time>2026-04-28T12:52:00.025Z</time></trkpt><trkpt lat="38.6459148" lon="22.4133007"><ele>582.0</ele><time>2026-04-28T12:52:01.025Z</time></trkpt><trkpt lat="38.645817" lon="22.4131608"><ele>582.0</ele><time>2026-04-28T12:52:02.025Z</time></trkpt><trkpt lat="38.6457066" lon="22.4130357"><ele>582.0</ele><time>2026-04-28T12:52:03.025Z</time></trkpt><trkpt lat="38.6455874" lon="22.4129199"><ele>582.0</ele><time>2026-04-28T12:52:04.026Z</time></trkpt><trkpt lat="38.6454639" lon="22.4128082"><ele>582.0</ele><time>2026-04-28T12:52:05.024Z</time></trkpt><trkpt lat="38.6453365" lon="22.4126983"><ele>582.25</ele><time>2026-04-28T12:52:06.025Z</time></trkpt><trkpt lat="38.6452109" lon="22.4125968"><ele>582.5</ele><time>2026-04-28T12:52:07.025Z</time></trkpt><trkpt lat="38.6450793" lon="22.4125008"><ele>582.75</ele><time>2026-04-28T12:52:08.025Z</time></trkpt><trkpt lat="38.6449534" lon="22.4124119"><ele>583.0</ele><time>2026-04-28T12:52:09.024Z</time></trkpt><trkpt lat="38.6448295" lon="22.412325"><ele>583.0</ele><time>2026-04-28T12:52:10.025Z</time></trkpt><trkpt lat="38.6447094" lon="22.4122405"><ele>583.0</ele><time>2026-04-28T12:52:11.025Z</time></trkpt><trkpt lat="38.6445985" lon="22.4121393"><ele>583.0</ele><time>2026-04-28T12:52:12.025Z</time></trkpt><trkpt lat="38.6444895" lon="22.4120423"><ele>583.0</ele><time>2026-04-28T12:52:13.025Z</time></trkpt><trkpt lat="38.6443874" lon="22.411924"><ele>582.5</ele><time>2026-04-28T12:52:14.025Z</time></trkpt><trkpt lat="38.644294" lon="22.4117848"><ele>582.0</ele><time>2026-04-28T12:52:15.025Z</time></trkpt><trkpt lat="38.6442142" lon="22.4116327"><ele>581.5</ele><time>2026-04-28T12:52:16.025Z</time></trkpt><trkpt lat="38.6441358" lon="22.4114763"><ele>581.0</ele><time>2026-04-28T12:52:17.026Z</time></trkpt><trkpt lat="38.6440621" lon="22.4113198"><ele>584.0</ele><time>2026-04-28T12:52:18.026Z</time></trkpt><trkpt lat="38.6439804" lon="22.4111742"><ele>587.0</ele><time>2026-04-28T12:52:19.025Z</time></trkpt><trkpt lat="38.643897" lon="22.4110342"><ele>590.0</ele><time>2026-04-28T12:52:20.025Z</time></trkpt><trkpt lat="38.6437987" lon="22.4109135"><ele>593.0</ele><time>2026-04-28T12:52:21.024Z</time></trkpt><trkpt lat="38.6436862" lon="22.4108084"><ele>590.0</ele><time>2026-04-28T12:52:22.024Z</time></trkpt><trkpt lat="38.6435529" lon="22.4106993"><ele>587.0</ele><time>2026-04-28T12:52:23.024Z</time></trkpt><trkpt lat="38.6434115" lon="22.4105923"><ele>584.0</ele><time>2026-04-28T12:52:24.026Z</time></trkpt><trkpt lat="38.6432631" lon="22.4104828"><ele>591.0</ele><time>2026-04-28T12:52:25.025Z</time></trkpt><trkpt lat="38.6431123" lon="22.4103775"><ele>598.0</ele><time>2026-04-28T12:52:26.025Z</time></trkpt><trkpt lat="38.6429587" lon="22.4102729"><ele>605.0</ele><time>2026-04-28T12:52:27.026Z</time></trkpt><trkpt lat="38.6428091" lon="22.4101755"><ele>601.25</ele><time>2026-04-28T12:52:28.024Z</time></trkpt><trkpt lat="38.6426756" lon="22.4100814"><ele>597.5</ele><time>2026-04-28T12:52:29.025Z</time></trkpt><trkpt lat="38.6425417" lon="22.4099879"><ele>593.75</ele><time>2026-04-28T12:52:30.025Z</time></trkpt><trkpt lat="38.6424766" lon="22.4098781"><ele>590.0</ele><time>2026-04-28T12:52:31.024Z</time></trkpt><trkpt lat="38.6424207" lon="22.4097642"><ele>592.5</ele><time>2026-04-28T12:52:32.025Z</time></trkpt><trkpt lat="38.6423634" lon="22.4096576"><ele>595.0</ele><time>2026-04-28T12:52:33.025Z</time></trkpt><trkpt lat="38.6423547" lon="22.4094502"><ele>597.5</ele><time>2026-04-28T12:52:34.025Z</time></trkpt><trkpt lat="38.64234" lon="22.4092631"><ele>600.0</ele><time>2026-04-28T12:52:35.025Z</time></trkpt><trkpt lat="38.64233" lon="22.4090582"><ele>600.0</ele><time>2026-04-28T12:52:36.024Z</time></trkpt><trkpt lat="38.6423152" lon="22.40885"><ele>600.0</ele><time>2026-04-28T12:52:37.026Z</time></trkpt><trkpt lat="38.6422997" lon="22.4086374"><ele>600.0</ele><time>2026-04-28T12:52:38.025Z</time></trkpt><trkpt lat="38.6422765" lon="22.4084281"><ele>602.3333333333334</ele><time>2026-04-28T12:52:39.024Z</time></trkpt><trkpt lat="38.6422499" lon="22.408226"><ele>604.6666666666667</ele><time>2026-04-28T12:52:40.026Z</time></trkpt><trkpt lat="38.6422126" lon="22.4080332"><ele>607.0</ele><time>2026-04-28T12:52:41.025Z</time></trkpt><trkpt lat="38.6421548" lon="22.4078448"><ele>609.3333333333334</ele><time>2026-04-28T12:52:42.025Z</time></trkpt><trkpt lat="38.64207" lon="22.4076617"><ele>611.6666666666666</ele><time>2026-04-28T12:52:43.024Z</time></trkpt><trkpt lat="38.6419679" lon="22.4074854"><ele>614.0</ele><time>2026-04-28T12:52:44.024Z</time></trkpt><trkpt lat="38.6418663" lon="22.4073105"><ele>609.6666666666666</ele><time>2026-04-28T12:52:45.024Z</time></trkpt><trkpt lat="38.6417801" lon="22.4071264"><ele>605.3333333333334</ele><time>2026-04-28T12:52:46.024Z</time></trkpt><trkpt lat="38.6417276" lon="22.406928"><ele>601.0</ele><time>2026-04-28T12:52:47.025Z</time></trkpt><trkpt lat="38.6416937" lon="22.4067127"><ele>601.0</ele><time>2026-04-28T12:52:48.025Z</time></trkpt><trkpt lat="38.6416587" lon="22.4064931"><ele>601.0</ele><time>2026-04-28T12:52:49.025Z</time></trkpt><trkpt lat="38.6416849" lon="22.4062635"><ele>601.0</ele><time>2026-04-28T12:52:50.025Z</time></trkpt><trkpt lat="38.641681" lon="22.4060359"><ele>602.3333333333334</ele><time>2026-04-28T12:52:51.026Z</time></trkpt><trkpt lat="38.6416799" lon="22.4058181"><ele>603.6666666666666</ele><time>2026-04-28T12:52:52.025Z</time></trkpt><trkpt lat="38.6416798" lon="22.4056012"><ele>605.0</ele><time>2026-04-28T12:52:53.026Z</time></trkpt><trkpt lat="38.6416821" lon="22.4053825"><ele>607.3333333333333</ele><time>2026-04-28T12:52:54.026Z</time></trkpt><trkpt lat="38.6416771" lon="22.4051568"><ele>609.6666666666666</ele><time>2026-04-28T12:52:55.024Z</time></trkpt><trkpt lat="38.6416763" lon="22.4049296"><ele>612.0</ele><time>2026-04-28T12:52:56.025Z</time></trkpt><trkpt lat="38.6416774" lon="22.4046977"><ele>613.0</ele><time>2026-04-28T12:52:57.026Z</time></trkpt><trkpt lat="38.6416771" lon="22.4044692"><ele>614.0</ele><time>2026-04-28T12:52:58.026Z</time></trkpt><trkpt lat="38.6416773" lon="22.4042388"><ele>615.0</ele><time>2026-04-28T12:52:59.026Z</time></trkpt><trkpt lat="38.6416754" lon="22.4040104"><ele>617.0</ele><time>2026-04-28T12:53:00.025Z</time></trkpt><trkpt lat="38.6416781" lon="22.4037821"><ele>619.0</ele><time>2026-04-28T12:53:01.024Z</time></trkpt><trkpt lat="38.6416924" lon="22.4035592"><ele>621.0</ele><time>2026-04-28T12:53:02.024Z</time></trkpt><trkpt lat="38.6417246" lon="22.4033517"><ele>621.0</ele><time>2026-04-28T12:53:03.026Z</time></trkpt><trkpt lat="38.6417767" lon="22.4031493"><ele>621.0</ele><time>2026-04-28T12:53:04.025Z</time></trkpt><trkpt lat="38.6418874" lon="22.4029456"><ele>621.0</ele><time>2026-04-28T12:53:05.025Z</time></trkpt><trkpt lat="38.6420069" lon="22.4027655"><ele>625.0</ele><time>2026-04-28T12:53:06.025Z</time></trkpt><trkpt lat="38.6421439" lon="22.402614"><ele>629.0</ele><time>2026-04-28T12:53:07.024Z</time></trkpt><trkpt lat="38.6422879" lon="22.402477"><ele>633.0</ele><time>2026-04-28T12:53:08.025Z</time></trkpt><trkpt lat="38.6424901" lon="22.4023887"><ele>633.0</ele><time>2026-04-28T12:53:09.025Z</time></trkpt><trkpt lat="38.6426798" lon="22.4023355"><ele>633.0</ele><time>2026-04-28T12:53:10.025Z</time></trkpt><trkpt lat="38.6428696" lon="22.4023045"><ele>633.0</ele><time>2026-04-28T12:53:11.025Z</time></trkpt><trkpt lat="38.6430695" lon="22.4023542"><ele>633.6666666666666</ele><time>2026-04-28T12:53:12.025Z</time></trkpt><trkpt lat="38.6432511" lon="22.4024281"><ele>634.3333333333333</ele><time>2026-04-28T12:53:13.025Z</time></trkpt><trkpt lat="38.6434335" lon="22.4025701"><ele>635.0</ele><time>2026-04-28T12:53:14.025Z</time></trkpt><trkpt lat="38.6436082" lon="22.4027454"><ele>635.3333333333333</ele><time>2026-04-28T12:53:15.025Z</time></trkpt><trkpt lat="38.6437695" lon="22.4029286"><ele>635.6666666666666</ele><time>2026-04-28T12:53:16.025Z</time></trkpt><trkpt lat="38.643924" lon="22.4031141"><ele>636.0</ele><time>2026-04-28T12:53:17.024Z</time></trkpt><trkpt lat="38.644069" lon="22.40329"><ele>636.6666666666666</ele><time>2026-04-28T12:53:18.024Z</time></trkpt><trkpt lat="38.6442093" lon="22.4034449"><ele>637.3333333333333</ele><time>2026-04-28T12:53:19.024Z</time></trkpt><trkpt lat="38.6443524" lon="22.4035724"><ele>638.0</ele><time>2026-04-28T12:53:20.026Z</time></trkpt><trkpt lat="38.6445117" lon="22.4036785"><ele>639.0</ele><time>2026-04-28T12:53:21.025Z</time></trkpt><trkpt lat="38.6446932" lon="22.4037671"><ele>640.0</ele><time>2026-04-28T12:53:22.025Z</time></trkpt><trkpt lat="38.6448831" lon="22.4038443"><ele>641.0</ele><time>2026-04-28T12:53:23.024Z</time></trkpt><trkpt lat="38.6450772" lon="22.4039211"><ele>641.0</ele><time>2026-04-28T12:53:24.025Z</time></trkpt><trkpt lat="38.6452579" lon="22.4039962"><ele>641.0</ele><time>2026-04-28T12:53:25.025Z</time></trkpt><trkpt lat="38.6454269" lon="22.4040591"><ele>641.0</ele><time>2026-04-28T12:53:26.025Z</time></trkpt><trkpt lat="38.6455947" lon="22.4040986"><ele>642.3333333333333</ele><time>2026-04-28T12:53:27.026Z</time></trkpt><trkpt lat="38.6457603" lon="22.4041053"><ele>643.6666666666666</ele><time>2026-04-28T12:53:28.026Z</time></trkpt><trkpt lat="38.6459295" lon="22.4040734"><ele>645.0</ele><time>2026-04-28T12:53:29.024Z</time></trkpt><trkpt lat="38.6460976" lon="22.4040046"><ele>647.6666666666666</ele><time>2026-04-28T12:53:30.024Z</time></trkpt><trkpt lat="38.6462609" lon="22.4039253"><ele>650.3333333333333</ele><time>2026-04-28T12:53:31.026Z</time></trkpt><trkpt lat="38.64641" lon="22.4038433"><ele>653.0</ele><time>2026-04-28T12:53:32.026Z</time></trkpt><trkpt lat="38.6465447" lon="22.4037438"><ele>653.5</ele><time>2026-04-28T12:53:33.025Z</time></trkpt><trkpt lat="38.6466487" lon="22.403618"><ele>654.0</ele><time>2026-04-28T12:53:34.025Z</time></trkpt><trkpt lat="38.6467243" lon="22.4034589"><ele>654.5</ele><time>2026-04-28T12:53:35.025Z</time></trkpt><trkpt lat="38.6467651" lon="22.4032693"><ele>655.0</ele><time>2026-04-28T12:53:36.024Z</time></trkpt><trkpt lat="38.646769" lon="22.4030476"><ele>656.6666666666667</ele><time>2026-04-28T12:53:37.024Z</time></trkpt><trkpt lat="38.6467474" lon="22.4027951"><ele>658.3333333333334</ele><time>2026-04-28T12:53:38.024Z</time></trkpt><trkpt lat="38.6467112" lon="22.4025357"><ele>660.0</ele><time>2026-04-28T12:53:39.025Z</time></trkpt><trkpt lat="38.6466721" lon="22.4022839"><ele>663.3333333333334</ele><time>2026-04-28T12:53:40.025Z</time></trkpt><trkpt lat="38.6466271" lon="22.4020426"><ele>666.6666666666667</ele><time>2026-04-28T12:53:41.026Z</time></trkpt><trkpt lat="38.6465651" lon="22.4018218"><ele>670.0</ele><time>2026-04-28T12:53:42.025Z</time></trkpt><trkpt lat="38.646471" lon="22.4016152"><ele>670.0</ele><time>2026-04-28T12:53:43.025Z</time></trkpt><trkpt lat="38.6463588" lon="22.4014133"><ele>670.0</ele><time>2026-04-28T12:53:44.026Z</time></trkpt><trkpt lat="38.6462437" lon="22.4012233"><ele>670.0</ele><time>2026-04-28T12:53:45.026Z</time></trkpt><trkpt lat="38.6461179" lon="22.4010305"><ele>670.6666666666667</ele><time>2026-04-28T12:53:46.025Z</time></trkpt><trkpt lat="38.6459927" lon="22.4008335"><ele>671.3333333333334</ele><time>2026-04-28T12:53:47.025Z</time></trkpt><trkpt lat="38.6458625" lon="22.4006359"><ele>672.0</ele><time>2026-04-28T12:53:48.025Z</time></trkpt><trkpt lat="38.645738" lon="22.4004368"><ele>676.3333333333334</ele><time>2026-04-28T12:53:49.025Z</time></trkpt><trkpt lat="38.6456139" lon="22.4002471"><ele>680.6666666666667</ele><time>2026-04-28T12:53:50.026Z</time></trkpt><trkpt lat="38.6454942" lon="22.4000521"><ele>685.0</ele><time>2026-04-28T12:53:51.024Z</time></trkpt><trkpt lat="38.6453736" lon="22.3998618"><ele>685.6666666666667</ele><time>2026-04-28T12:53:52.024Z</time></trkpt><trkpt lat="38.645258" lon="22.3996709"><ele>686.3333333333334</ele><time>2026-04-28T12:53:53.024Z</time></trkpt><trkpt lat="38.6451458" lon="22.3994931"><ele>687.0</ele><time>2026-04-28T12:53:54.025Z</time></trkpt><trkpt lat="38.6450461" lon="22.3993278"><ele>687.0</ele><time>2026-04-28T12:53:55.025Z</time></trkpt><trkpt lat="38.6449556" lon="22.3991802"><ele>687.0</ele><time>2026-04-28T12:53:56.025Z</time></trkpt><trkpt lat="38.6448701" lon="22.3990574"><ele>687.0</ele><time>2026-04-28T12:53:57.024Z</time></trkpt><trkpt lat="38.64479" lon="22.3989446"><ele>687.0</ele><time>2026-04-28T12:53:58.025Z</time></trkpt><trkpt lat="38.6447141" lon="22.3988458"><ele>688.6</ele><time>2026-04-28T12:53:59.026Z</time></trkpt><trkpt lat="38.6446346" lon="22.3987563"><ele>690.2</ele><time>2026-04-28T12:54:00.026Z</time></trkpt><trkpt lat="38.6445534" lon="22.3986817"><ele>691.8</ele><time>2026-04-28T12:54:01.025Z</time></trkpt><trkpt lat="38.6444689" lon="22.3986206"><ele>693.4</ele><time>2026-04-28T12:54:02.025Z</time></trkpt><trkpt lat="38.6443705" lon="22.398564"><ele>695.0</ele><time>2026-04-28T12:54:03.024Z</time></trkpt><trkpt lat="38.6442345" lon="22.3984908"><ele>695.0</ele><time>2026-04-28T12:54:04.026Z</time></trkpt><trkpt lat="38.6440949" lon="22.3984235"><ele>695.0</ele><time>2026-04-28T12:54:05.025Z</time></trkpt><trkpt lat="38.6438814" lon="22.3982707"><ele>695.0</ele><time>2026-04-28T12:54:06.025Z</time></trkpt><trkpt lat="38.6436636" lon="22.3981046"><ele>702.0</ele><time>2026-04-28T12:54:07.024Z</time></trkpt><trkpt lat="38.6434266" lon="22.397929"><ele>709.0</ele><time>2026-04-28T12:54:08.025Z</time></trkpt><trkpt lat="38.6431745" lon="22.397738"><ele>709.0</ele><time>2026-04-28T12:54:09.024Z</time></trkpt><trkpt lat="38.6429169" lon="22.3975243"><ele>709.0</ele><time>2026-04-28T12:54:10.024Z</time></trkpt><trkpt lat="38.6426737" lon="22.3973263"><ele>714.5</ele><time>2026-04-28T12:54:11.025Z</time></trkpt><trkpt lat="38.6424188" lon="22.3971433"><ele>720.0</ele><time>2026-04-28T12:54:12.024Z</time></trkpt><trkpt lat="38.6421512" lon="22.3969728"><ele>717.0</ele><time>2026-04-28T12:54:13.025Z</time></trkpt><trkpt lat="38.6418859" lon="22.3968136"><ele>714.0</ele><time>2026-04-28T12:54:14.025Z</time></trkpt><trkpt lat="38.6416216" lon="22.396667"><ele>714.0</ele><time>2026-04-28T12:54:15.025Z</time></trkpt><trkpt lat="38.6413589" lon="22.3965198"><ele>714.0</ele><time>2026-04-28T12:54:16.026Z</time></trkpt><trkpt lat="38.6411056" lon="22.3963683"><ele>715.6666666666666</ele><time>2026-04-28T12:54:17.025Z</time></trkpt><trkpt lat="38.6409206" lon="22.3962816"><ele>717.3333333333333</ele><time>2026-04-28T12:54:18.025Z</time></trkpt><trkpt lat="38.6407296" lon="22.3961909"><ele>719.0</ele><time>2026-04-28T12:54:19.026Z</time></trkpt><trkpt lat="38.6405581" lon="22.3960973"><ele>719.0</ele><time>2026-04-28T12:54:20.025Z</time></trkpt><trkpt lat="38.6404251" lon="22.3960248"><ele>719.0</ele><time>2026-04-28T12:54:21.025Z</time></trkpt><trkpt lat="38.6403068" lon="22.3959614"><ele>719.0</ele><time>2026-04-28T12:54:22.026Z</time></trkpt><trkpt lat="38.6402011" lon="22.3958655"><ele>719.0</ele><time>2026-04-28T12:54:23.026Z</time></trkpt><trkpt lat="38.6401217" lon="22.3957605"><ele>718.6</ele><time>2026-04-28T12:54:24.025Z</time></trkpt><trkpt lat="38.6400795" lon="22.3956364"><ele>718.2</ele><time>2026-04-28T12:54:25.025Z</time></trkpt><trkpt lat="38.6400872" lon="22.3955114"><ele>717.8000000000001</ele><time>2026-04-28T12:54:26.025Z</time></trkpt><trkpt lat="38.6401348" lon="22.3953866"><ele>717.4000000000001</ele><time>2026-04-28T12:54:27.025Z</time></trkpt><trkpt lat="38.6402265" lon="22.395311"><ele>717.0</ele><time>2026-04-28T12:54:28.025Z</time></trkpt><trkpt lat="38.6403465" lon="22.3952898"><ele>717.6666666666666</ele><time>2026-04-28T12:54:29.026Z</time></trkpt><trkpt lat="38.6404723" lon="22.3952798"><ele>718.3333333333333</ele><time>2026-04-28T12:54:30.025Z</time></trkpt><trkpt lat="38.6406209" lon="22.3952863"><ele>719.0</ele><time>2026-04-28T12:54:31.026Z</time></trkpt><trkpt lat="38.6408035" lon="22.3955708"><ele>719.0</ele><time>2026-04-28T12:54:32.026Z</time></trkpt><trkpt lat="38.6409667" lon="22.3957544"><ele>719.0</ele><time>2026-04-28T12:54:33.026Z</time></trkpt><trkpt lat="38.6411467" lon="22.3959239"><ele>719.0</ele><time>2026-04-28T12:54:34.026Z</time></trkpt><trkpt lat="38.6413023" lon="22.396074"><ele>724.0</ele><time>2026-04-28T12:54:35.025Z</time></trkpt><trkpt lat="38.6414817" lon="22.3962026"><ele>729.0</ele><time>2026-04-28T12:54:36.026Z</time></trkpt><trkpt lat="38.6416803" lon="22.396289"><ele>734.0</ele><time>2026-04-28T12:54:37.026Z</time></trkpt><trkpt lat="38.64188" lon="22.3963155"><ele>739.0</ele><time>2026-04-28T12:54:38.025Z</time></trkpt><trkpt lat="38.6420937" lon="22.3963014"><ele>744.0</ele><time>2026-04-28T12:54:39.024Z</time></trkpt><trkpt lat="38.6423375" lon="22.3962517"><ele>744.0</ele><time>2026-04-28T12:54:40.025Z</time></trkpt><trkpt lat="38.6425751" lon="22.3962081"><ele>744.0</ele><time>2026-04-28T12:54:41.025Z</time></trkpt><trkpt lat="38.6427948" lon="22.3961662"><ele>744.3333333333334</ele><time>2026-04-28T12:54:42.024Z</time></trkpt><trkpt lat="38.6429985" lon="22.3961383"><ele>744.6666666666667</ele><time>2026-04-28T12:54:43.025Z</time></trkpt><trkpt lat="38.6431851" lon="22.3961345"><ele>745.0</ele><time>2026-04-28T12:54:44.024Z</time></trkpt><trkpt lat="38.6433734" lon="22.3961573"><ele>745.0</ele><time>2026-04-28T12:54:45.024Z</time></trkpt><trkpt lat="38.6435223" lon="22.3962746"><ele>745.0</ele><time>2026-04-28T12:54:46.024Z</time></trkpt><trkpt lat="38.6436679" lon="22.3963793"><ele>745.0</ele><time>2026-04-28T12:54:47.025Z</time></trkpt><trkpt lat="38.6437911" lon="22.3965099"><ele>743.25</ele><time>2026-04-28T12:54:48.025Z</time></trkpt><trkpt lat="38.6439008" lon="22.3966224"><ele>741.5</ele><time>2026-04-28T12:54:49.026Z</time></trkpt><trkpt lat="38.6440095" lon="22.3966958"><ele>739.75</ele><time>2026-04-28T12:54:50.026Z</time></trkpt><trkpt lat="38.6441243" lon="22.396716"><ele>738.0</ele><time>2026-04-28T12:54:51.025Z</time></trkpt><trkpt lat="38.64422" lon="22.3966856"><ele>738.0</ele><time>2026-04-28T12:54:52.026Z</time></trkpt><trkpt lat="38.6443001" lon="22.3966035"><ele>738.0</ele><time>2026-04-28T12:54:53.025Z</time></trkpt><trkpt lat="38.6443419" lon="22.3964948"><ele>738.0</ele><time>2026-04-28T12:54:54.025Z</time></trkpt><trkpt lat="38.6443372" lon="22.3963685"><ele>738.0</ele><time>2026-04-28T12:54:55.025Z</time></trkpt><trkpt lat="38.6442836" lon="22.3962442"><ele>738.0</ele><time>2026-04-28T12:54:56.026Z</time></trkpt><trkpt lat="38.6441778" lon="22.3961309"><ele>743.3333333333334</ele><time>2026-04-28T12:54:57.025Z</time></trkpt><trkpt lat="38.6440315" lon="22.3960328"><ele>748.6666666666667</ele><time>2026-04-28T12:54:58.026Z</time></trkpt><trkpt lat="38.6438524" lon="22.3959401"><ele>754.0</ele><time>2026-04-28T12:54:59.026Z</time></trkpt><trkpt lat="38.6436595" lon="22.3958412"><ele>751.0</ele><time>2026-04-28T12:55:00.025Z</time></trkpt><trkpt lat="38.6434565" lon="22.3957558"><ele>748.0</ele><time>2026-04-28T12:55:01.025Z</time></trkpt><trkpt lat="38.6432733" lon="22.3956684"><ele>745.0</ele><time>2026-04-28T12:55:02.025Z</time></trkpt><trkpt lat="38.6430867" lon="22.3955536"><ele>751.0</ele><time>2026-04-28T12:55:03.026Z</time></trkpt><trkpt lat="38.6429062" lon="22.3954224"><ele>757.0</ele><time>2026-04-28T12:55:04.024Z</time></trkpt><trkpt lat="38.6427215" lon="22.3952751"><ele>763.0</ele><time>2026-04-28T12:55:05.024Z</time></trkpt><trkpt lat="38.6425437" lon="22.3951171"><ele>763.0</ele><time>2026-04-28T12:55:06.025Z</time></trkpt><trkpt lat="38.6423648" lon="22.3949569"><ele>763.0</ele><time>2026-04-28T12:55:07.025Z</time></trkpt><trkpt lat="38.6421935" lon="22.3948008"><ele>763.0</ele><time>2026-04-28T12:55:08.024Z</time></trkpt><trkpt lat="38.6420314" lon="22.3946531"><ele>764.6666666666667</ele><time>2026-04-28T12:55:09.026Z</time></trkpt><trkpt lat="38.6418694" lon="22.3945136"><ele>766.3333333333334</ele><time>2026-04-28T12:55:10.025Z</time></trkpt><trkpt lat="38.6417138" lon="22.3943711"><ele>768.0</ele><time>2026-04-28T12:55:11.024Z</time></trkpt><trkpt lat="38.6415649" lon="22.394234"><ele>768.0</ele><time>2026-04-28T12:55:12.025Z</time></trkpt><trkpt lat="38.6414188" lon="22.3941008"><ele>768.0</ele><time>2026-04-28T12:55:13.025Z</time></trkpt><trkpt lat="38.6412781" lon="22.393959"><ele>768.0</ele><time>2026-04-28T12:55:14.025Z</time></trkpt><trkpt lat="38.6411485" lon="22.3938143"><ele>768.3333333333333</ele><time>2026-04-28T12:55:15.025Z</time></trkpt><trkpt lat="38.6410338" lon="22.3936404"><ele>768.6666666666666</ele><time>2026-04-28T12:55:16.026Z</time></trkpt><trkpt lat="38.6409275" lon="22.3934292"><ele>769.0</ele><time>2026-04-28T12:55:17.026Z</time></trkpt><trkpt lat="38.6408171" lon="22.3931944"><ele>777.5</ele><time>2026-04-28T12:55:18.024Z</time></trkpt><trkpt lat="38.6407026" lon="22.3929448"><ele>786.0</ele><time>2026-04-28T12:55:19.025Z</time></trkpt><trkpt lat="38.6405888" lon="22.3926784"><ele>786.0</ele><time>2026-04-28T12:55:20.025Z</time></trkpt><trkpt lat="38.6404681" lon="22.3924025"><ele>786.0</ele><time>2026-04-28T12:55:21.025Z</time></trkpt><trkpt lat="38.6403367" lon="22.3921137"><ele>782.5</ele><time>2026-04-28T12:55:22.025Z</time></trkpt><trkpt lat="38.6401987" lon="22.3918131"><ele>779.0</ele><time>2026-04-28T12:55:23.025Z</time></trkpt><trkpt lat="38.6400626" lon="22.3915116"><ele>786.0</ele><time>2026-04-28T12:55:24.025Z</time></trkpt><trkpt lat="38.6399256" lon="22.3912181"><ele>793.0</ele><time>2026-04-28T12:55:25.025Z</time></trkpt><trkpt lat="38.6397883" lon="22.3909364"><ele>793.0</ele><time>2026-04-28T12:55:26.025Z</time></trkpt><trkpt lat="38.6396481" lon="22.3906741"><ele>793.0</ele><time>2026-04-28T12:55:27.024Z</time></trkpt><trkpt lat="38.6395131" lon="22.3904251"><ele>792.6666666666666</ele><time>2026-04-28T12:55:28.025Z</time></trkpt><trkpt lat="38.6393801" lon="22.3901863"><ele>792.3333333333333</ele><time>2026-04-28T12:55:29.024Z</time></trkpt><trkpt lat="38.6392562" lon="22.3899534"><ele>792.0</ele><time>2026-04-28T12:55:30.025Z</time></trkpt><trkpt lat="38.6391362" lon="22.3897281"><ele>796.3333333333333</ele><time>2026-04-28T12:55:31.025Z</time></trkpt><trkpt lat="38.6390211" lon="22.3895071"><ele>800.6666666666666</ele><time>2026-04-28T12:55:32.025Z</time></trkpt><trkpt lat="38.6389204" lon="22.3892891"><ele>805.0</ele><time>2026-04-28T12:55:33.025Z</time></trkpt><trkpt lat="38.6388236" lon="22.3890585"><ele>808.0</ele><time>2026-04-28T12:55:34.024Z</time></trkpt><trkpt lat="38.6387452" lon="22.3888208"><ele>811.0</ele><time>2026-04-28T12:55:35.024Z</time></trkpt><trkpt lat="38.6386771" lon="22.3885739"><ele>814.0</ele><time>2026-04-28T12:55:36.025Z</time></trkpt><trkpt lat="38.6386349" lon="22.3883206"><ele>807.0</ele><time>2026-04-28T12:55:37.026Z</time></trkpt><trkpt lat="38.6386036" lon="22.3880566"><ele>800.0</ele><time>2026-04-28T12:55:38.024Z</time></trkpt><trkpt lat="38.6385797" lon="22.3877852"><ele>793.0</ele><time>2026-04-28T12:55:39.024Z</time></trkpt><trkpt lat="38.6385688" lon="22.387512"><ele>793.0</ele><time>2026-04-28T12:55:40.024Z</time></trkpt><trkpt lat="38.6385634" lon="22.3872701"><ele>793.0</ele><time>2026-04-28T12:55:41.025Z</time></trkpt><trkpt lat="38.6385634" lon="22.3870397"><ele>793.0</ele><time>2026-04-28T12:55:42.024Z</time></trkpt><trkpt lat="38.6385608" lon="22.3868232"><ele>795.0</ele><time>2026-04-28T12:55:43.025Z</time></trkpt><trkpt lat="38.6385443" lon="22.3866267"><ele>797.0</ele><time>2026-04-28T12:55:44.025Z</time></trkpt><trkpt lat="38.6384992" lon="22.3864454"><ele>799.0</ele><time>2026-04-28T12:55:45.026Z</time></trkpt><trkpt lat="38.6384194" lon="22.3862932"><ele>801.0</ele><time>2026-04-28T12:55:46.026Z</time></trkpt><trkpt lat="38.6383106" lon="22.3861664"><ele>806.3333333333333</ele><time>2026-04-28T12:55:47.025Z</time></trkpt><trkpt lat="38.6381625" lon="22.3860746"><ele>811.6666666666666</ele><time>2026-04-28T12:55:48.026Z</time></trkpt><trkpt lat="38.6379943" lon="22.3859867"><ele>817.0</ele><time>2026-04-28T12:55:49.026Z</time></trkpt><trkpt lat="38.6377992" lon="22.385908"><ele>817.0</ele><time>2026-04-28T12:55:50.025Z</time></trkpt><trkpt lat="38.6376151" lon="22.3858233"><ele>817.0</ele><time>2026-04-28T12:55:51.026Z</time></trkpt><trkpt lat="38.6374514" lon="22.3857379"><ele>817.0</ele><time>2026-04-28T12:55:52.025Z</time></trkpt><trkpt lat="38.6372951" lon="22.3856334"><ele>818.3333333333333</ele><time>2026-04-28T12:55:53.026Z</time></trkpt><trkpt lat="38.6371388" lon="22.3854742"><ele>819.6666666666667</ele><time>2026-04-28T12:55:54.026Z</time></trkpt><trkpt lat="38.6369901" lon="22.3852673"><ele>821.0</ele><time>2026-04-28T12:55:55.025Z</time></trkpt><trkpt lat="38.636834" lon="22.3850318"><ele>821.0</ele><time>2026-04-28T12:55:56.026Z</time></trkpt><trkpt lat="38.6366698" lon="22.3847726"><ele>821.0</ele><time>2026-04-28T12:55:57.025Z</time></trkpt><trkpt lat="38.6365046" lon="22.384515"><ele>829.0</ele><time>2026-04-28T12:55:58.025Z</time></trkpt><trkpt lat="38.6363478" lon="22.3842684"><ele>837.0</ele><time>2026-04-28T12:55:59.024Z</time></trkpt><trkpt lat="38.6362032" lon="22.3840278"><ele>833.5</ele><time>2026-04-28T12:56:00.025Z</time></trkpt><trkpt lat="38.6360697" lon="22.3837716"><ele>830.0</ele><time>2026-04-28T12:56:01.026Z</time></trkpt><trkpt lat="38.635952" lon="22.3835123"><ele>830.0</ele><time>2026-04-28T12:56:02.025Z</time></trkpt><trkpt lat="38.6358474" lon="22.3832293"><ele>830.0</ele><time>2026-04-28T12:56:03.025Z</time></trkpt><trkpt lat="38.6357552" lon="22.3829323"><ele>836.0</ele><time>2026-04-28T12:56:04.025Z</time></trkpt><trkpt lat="38.6356676" lon="22.3826357"><ele>842.0</ele><time>2026-04-28T12:56:05.025Z</time></trkpt><trkpt lat="38.6355832" lon="22.3823483"><ele>846.0</ele><time>2026-04-28T12:56:06.026Z</time></trkpt><trkpt lat="38.6354965" lon="22.3820753"><ele>850.0</ele><time>2026-04-28T12:56:07.024Z</time></trkpt><trkpt lat="38.6353905" lon="22.3818105"><ele>851.5</ele><time>2026-04-28T12:56:08.024Z</time></trkpt><trkpt lat="38.6352543" lon="22.3815519"><ele>853.0</ele><time>2026-04-28T12:56:09.025Z</time></trkpt><trkpt lat="38.6350903" lon="22.3813008"><ele>853.0</ele><time>2026-04-28T12:56:10.024Z</time></trkpt><trkpt lat="38.6349254" lon="22.3810619"><ele>853.0</ele><time>2026-04-28T12:56:11.025Z</time></trkpt><trkpt lat="38.63477" lon="22.380842"><ele>853.0</ele><time>2026-04-28T12:56:12.025Z</time></trkpt><trkpt lat="38.6346203" lon="22.380626"><ele>853.0</ele><time>2026-04-28T12:56:13.026Z</time></trkpt><trkpt lat="38.6344955" lon="22.3804187"><ele>853.0</ele><time>2026-04-28T12:56:14.025Z</time></trkpt><trkpt lat="38.6343942" lon="22.3802289"><ele>852.0</ele><time>2026-04-28T12:56:15.025Z</time></trkpt><trkpt lat="38.6343218" lon="22.3800278"><ele>851.0</ele><time>2026-04-28T12:56:16.026Z</time></trkpt><trkpt lat="38.6342955" lon="22.3798135"><ele>850.0</ele><time>2026-04-28T12:56:17.024Z</time></trkpt><trkpt lat="38.6342762" lon="22.3795938"><ele>850.0</ele><time>2026-04-28T12:56:18.025Z</time></trkpt><trkpt lat="38.6342828" lon="22.3793205"><ele>850.0</ele><time>2026-04-28T12:56:19.024Z</time></trkpt><trkpt lat="38.6342762" lon="22.3790803"><ele>850.0</ele><time>2026-04-28T12:56:20.024Z</time></trkpt><trkpt lat="38.6342665" lon="22.3788626"><ele>852.3333333333333</ele><time>2026-04-28T12:56:21.026Z</time></trkpt><trkpt lat="38.6342555" lon="22.3786508"><ele>854.6666666666667</ele><time>2026-04-28T12:56:22.026Z</time></trkpt><trkpt lat="38.6342425" lon="22.3784444"><ele>857.0</ele><time>2026-04-28T12:56:23.024Z</time></trkpt><trkpt lat="38.6342413" lon="22.3782526"><ele>857.0</ele><time>2026-04-28T12:56:24.025Z</time></trkpt><trkpt lat="38.6342523" lon="22.3780593"><ele>857.0</ele><time>2026-04-28T12:56:25.025Z</time></trkpt><trkpt lat="38.6342839" lon="22.3778487"><ele>857.0</ele><time>2026-04-28T12:56:26.025Z</time></trkpt><trkpt lat="38.6344281" lon="22.3776527"><ele>865.6666666666667</ele><time>2026-04-28T12:56:27.026Z</time></trkpt><trkpt lat="38.6345236" lon="22.3774636"><ele>874.3333333333333</ele><time>2026-04-28T12:56:28.026Z</time></trkpt><trkpt lat="38.6346268" lon="22.3772906"><ele>883.0</ele><time>2026-04-28T12:56:29.025Z</time></trkpt><trkpt lat="38.6347241" lon="22.3771399"><ele>883.0</ele><time>2026-04-28T12:56:30.026Z</time></trkpt><trkpt lat="38.6347998" lon="22.3770002"><ele>883.0</ele><time>2026-04-28T12:56:31.025Z</time></trkpt><trkpt lat="38.6348482" lon="22.3768663"><ele>883.0</ele><time>2026-04-28T12:56:32.025Z</time></trkpt><trkpt lat="38.6348636" lon="22.3767301"><ele>883.0</ele><time>2026-04-28T12:56:33.025Z</time></trkpt><trkpt lat="38.6348376" lon="22.3765947"><ele>883.0</ele><time>2026-04-28T12:56:34.025Z</time></trkpt><trkpt lat="38.6347745" lon="22.3764739"><ele>883.0</ele><time>2026-04-28T12:56:35.026Z</time></trkpt><trkpt lat="38.6346727" lon="22.376381"><ele>883.0</ele><time>2026-04-28T12:56:36.024Z</time></trkpt><trkpt lat="38.6345488" lon="22.3763342"><ele>883.0</ele><time>2026-04-28T12:56:37.024Z</time></trkpt><trkpt lat="38.6343988" lon="22.3763448"><ele>877.6666666666666</ele><time>2026-04-28T12:56:38.025Z</time></trkpt><trkpt lat="38.6342213" lon="22.3764046"><ele>872.3333333333333</ele><time>2026-04-28T12:56:39.026Z</time></trkpt><trkpt lat="38.634019" lon="22.3765067"><ele>867.0</ele><time>2026-04-28T12:56:40.026Z</time></trkpt><trkpt lat="38.633818" lon="22.376596"><ele>867.0</ele><time>2026-04-28T12:56:41.025Z</time></trkpt><trkpt lat="38.6336423" lon="22.3766706"><ele>867.0</ele><time>2026-04-28T12:56:42.026Z</time></trkpt><trkpt lat="38.63347" lon="22.3767289"><ele>867.0</ele><time>2026-04-28T12:56:43.026Z</time></trkpt><trkpt lat="38.6333268" lon="22.376759"><ele>868.5</ele><time>2026-04-28T12:56:44.025Z</time></trkpt><trkpt lat="38.6331837" lon="22.3767558"><ele>870.0</ele><time>2026-04-28T12:56:45.025Z</time></trkpt><trkpt lat="38.6330553" lon="22.3767106"><ele>871.5</ele><time>2026-04-28T12:56:46.026Z</time></trkpt><trkpt lat="38.6329222" lon="22.3766054"><ele>873.0</ele><time>2026-04-28T12:56:47.026Z</time></trkpt><trkpt lat="38.6328177" lon="22.3764722"><ele>874.0</ele><time>2026-04-28T12:56:48.026Z</time></trkpt><trkpt lat="38.6327288" lon="22.3763298"><ele>875.0</ele><time>2026-04-28T12:56:49.025Z</time></trkpt><trkpt lat="38.6326352" lon="22.3761839"><ele>876.0</ele><time>2026-04-28T12:56:50.025Z</time></trkpt><trkpt lat="38.6325235" lon="22.3760568"><ele>877.0</ele><time>2026-04-28T12:56:51.025Z</time></trkpt><trkpt lat="38.6323966" lon="22.3759668"><ele>877.0</ele><time>2026-04-28T12:56:52.025Z</time></trkpt><trkpt lat="38.6322572" lon="22.3759088"><ele>877.0</ele><time>2026-04-28T12:56:53.025Z</time></trkpt><trkpt lat="38.6321119" lon="22.3758841"><ele>877.0</ele><time>2026-04-28T12:56:54.026Z</time></trkpt><trkpt lat="38.6319489" lon="22.3758808"><ele>875.3333333333333</ele><time>2026-04-28T12:56:55.025Z</time></trkpt><trkpt lat="38.6317864" lon="22.3758973"><ele>873.6666666666667</ele><time>2026-04-28T12:56:56.026Z</time></trkpt><trkpt lat="38.6316344" lon="22.3759139"><ele>872.0</ele><time>2026-04-28T12:56:57.025Z</time></trkpt><trkpt lat="38.6314907" lon="22.3759211"><ele>872.0</ele><time>2026-04-28T12:56:58.025Z</time></trkpt><trkpt lat="38.6313473" lon="22.3759176"><ele>872.0</ele><time>2026-04-28T12:56:59.025Z</time></trkpt><trkpt lat="38.6312003" lon="22.3758794"><ele>872.0</ele><time>2026-04-28T12:57:00.025Z</time></trkpt><trkpt lat="38.6310611" lon="22.3758057"><ele>872.0</ele><time>2026-04-28T12:57:01.025Z</time></trkpt><trkpt lat="38.6309336" lon="22.3756894"><ele>873.5</ele><time>2026-04-28T12:57:02.025Z</time></trkpt><trkpt lat="38.6308195" lon="22.375556"><ele>875.0</ele><time>2026-04-28T12:57:03.026Z</time></trkpt><trkpt lat="38.6307067" lon="22.3754406"><ele>876.5</ele><time>2026-04-28T12:57:04.025Z</time></trkpt><trkpt lat="38.6305796" lon="22.3753574"><ele>878.0</ele><time>2026-04-28T12:57:05.026Z</time></trkpt><trkpt lat="38.6304292" lon="22.3753103"><ele>871.0</ele><time>2026-04-28T12:57:06.026Z</time></trkpt><trkpt lat="38.6302656" lon="22.3753045"><ele>864.0</ele><time>2026-04-28T12:57:07.026Z</time></trkpt><trkpt lat="38.6301006" lon="22.3753084"><ele>857.0</ele><time>2026-04-28T12:57:08.025Z</time></trkpt><trkpt lat="38.6299291" lon="22.3752962"><ele>857.0</ele><time>2026-04-28T12:57:09.026Z</time></trkpt><trkpt lat="38.6297569" lon="22.3752424"><ele>857.0</ele><time>2026-04-28T12:57:10.025Z</time></trkpt><trkpt lat="38.6295725" lon="22.3751754"><ele>857.0</ele><time>2026-04-28T12:57:11.025Z</time></trkpt><trkpt lat="38.629388" lon="22.3751258"><ele>855.0</ele><time>2026-04-28T12:57:12.024Z</time></trkpt><trkpt lat="38.6292023" lon="22.3750939"><ele>853.0</ele><time>2026-04-28T12:57:13.025Z</time></trkpt><trkpt lat="38.629025" lon="22.3750753"><ele>851.0</ele><time>2026-04-28T12:57:14.025Z</time></trkpt><trkpt lat="38.6288558" lon="22.3750656"><ele>851.0</ele><time>2026-04-28T12:57:15.025Z</time></trkpt><trkpt lat="38.6286929" lon="22.3750495"><ele>851.0</ele><time>2026-04-28T12:57:16.025Z</time></trkpt><trkpt lat="38.628545" lon="22.3750092"><ele>851.0</ele><time>2026-04-28T12:57:17.025Z</time></trkpt><trkpt lat="38.6283994" lon="22.3749387"><ele>850.5</ele><time>2026-04-28T12:57:18.026Z</time></trkpt><trkpt lat="38.6283134" lon="22.3748035"><ele>850.0</ele><time>2026-04-28T12:57:19.025Z</time></trkpt><trkpt lat="38.6282219" lon="22.3746448"><ele>849.5</ele><time>2026-04-28T12:57:20.026Z</time></trkpt><trkpt lat="38.6281429" lon="22.3744822"><ele>849.0</ele><time>2026-04-28T12:57:21.026Z</time></trkpt><trkpt lat="38.6280595" lon="22.3743279"><ele>849.0</ele><time>2026-04-28T12:57:22.025Z</time></trkpt><trkpt lat="38.6279529" lon="22.3741918"><ele>849.0</ele><time>2026-04-28T12:57:23.025Z</time></trkpt><trkpt lat="38.6278117" lon="22.3740796"><ele>849.0</ele><time>2026-04-28T12:57:24.024Z</time></trkpt><trkpt lat="38.6276498" lon="22.3740088"><ele>846.0</ele><time>2026-04-28T12:57:25.024Z</time></trkpt><trkpt lat="38.6274756" lon="22.3739473"><ele>843.0</ele><time>2026-04-28T12:57:26.024Z</time></trkpt><trkpt lat="38.6272928" lon="22.3739028"><ele>840.0</ele><time>2026-04-28T12:57:27.026Z</time></trkpt><trkpt lat="38.6271083" lon="22.3738486"><ele>839.0</ele><time>2026-04-28T12:57:28.025Z</time></trkpt><trkpt lat="38.6269124" lon="22.3737955"><ele>838.0</ele><time>2026-04-28T12:57:29.026Z</time></trkpt><trkpt lat="38.6267148" lon="22.3737434"><ele>837.0</ele><time>2026-04-28T12:57:30.026Z</time></trkpt><trkpt lat="38.6265081" lon="22.3736886"><ele>837.0</ele><time>2026-04-28T12:57:31.026Z</time></trkpt><trkpt lat="38.6263019" lon="22.3736345"><ele>837.0</ele><time>2026-04-28T12:57:32.025Z</time></trkpt><trkpt lat="38.6260987" lon="22.3735794"><ele>837.0</ele><time>2026-04-28T12:57:33.026Z</time></trkpt><trkpt lat="38.6259078" lon="22.3735204"><ele>841.0</ele><time>2026-04-28T12:57:34.026Z</time></trkpt><trkpt lat="38.6257173" lon="22.3734293"><ele>845.0</ele><time>2026-04-28T12:57:35.025Z</time></trkpt><trkpt lat="38.6255415" lon="22.3733066"><ele>849.0</ele><time>2026-04-28T12:57:36.024Z</time></trkpt><trkpt lat="38.625379" lon="22.3731379"><ele>847.0</ele><time>2026-04-28T12:57:37.025Z</time></trkpt><trkpt lat="38.6252377" lon="22.3729552"><ele>845.0</ele><time>2026-04-28T12:57:38.024Z</time></trkpt><trkpt lat="38.6251019" lon="22.3727669"><ele>843.0</ele><time>2026-04-28T12:57:39.026Z</time></trkpt><trkpt lat="38.624954" lon="22.3725849"><ele>843.0</ele><time>2026-04-28T12:57:40.025Z</time></trkpt><trkpt lat="38.6247995" lon="22.372417"><ele>843.0</ele><time>2026-04-28T12:57:41.026Z</time></trkpt><trkpt lat="38.6246323" lon="22.3722657"><ele>843.0</ele><time>2026-04-28T12:57:42.025Z</time></trkpt><trkpt lat="38.6244514" lon="22.3721312"><ele>837.3333333333333</ele><time>2026-04-28T12:57:43.025Z</time></trkpt><trkpt lat="38.6242569" lon="22.372023"><ele>831.6666666666666</ele><time>2026-04-28T12:57:44.026Z</time></trkpt><trkpt lat="38.6240519" lon="22.371925"><ele>826.0</ele><time>2026-04-28T12:57:45.024Z</time></trkpt><trkpt lat="38.6238482" lon="22.3718283"><ele>826.0</ele><time>2026-04-28T12:57:46.023Z</time></trkpt><trkpt lat="38.6236538" lon="22.3717411"><ele>826.0</ele><time>2026-04-28T12:57:47.023Z</time></trkpt><trkpt lat="38.6234587" lon="22.3716562"><ele>826.0</ele><time>2026-04-28T12:57:48.024Z</time></trkpt><trkpt lat="38.6232549" lon="22.3715852"><ele>829.3333333333333</ele><time>2026-04-28T12:57:49.024Z</time></trkpt><trkpt lat="38.6230355" lon="22.3715388"><ele>832.6666666666667</ele><time>2026-04-28T12:57:50.025Z</time></trkpt><trkpt lat="38.6228107" lon="22.3715024"><ele>836.0</ele><time>2026-04-28T12:57:51.024Z</time></trkpt><trkpt lat="38.622569" lon="22.3714655"><ele>836.0</ele><time>2026-04-28T12:57:52.024Z</time></trkpt><trkpt lat="38.6223307" lon="22.371431"><ele>836.0</ele><time>2026-04-28T12:57:53.023Z</time></trkpt><trkpt lat="38.6220851" lon="22.3714055"><ele>839.0</ele><time>2026-04-28T12:57:54.024Z</time></trkpt><trkpt lat="38.6218358" lon="22.3713791"><ele>842.0</ele><time>2026-04-28T12:57:55.024Z</time></trkpt><trkpt lat="38.6216036" lon="22.371355"><ele>825.5</ele><time>2026-04-28T12:57:56.023Z</time></trkpt><trkpt lat="38.621378" lon="22.3713342"><ele>809.0</ele><time>2026-04-28T12:57:57.024Z</time></trkpt><trkpt lat="38.6211533" lon="22.3713065"><ele>811.3333333333334</ele><time>2026-04-28T12:57:58.023Z</time></trkpt><trkpt lat="38.6209301" lon="22.3712833"><ele>813.6666666666667</ele><time>2026-04-28T12:57:59.024Z</time></trkpt><trkpt lat="38.6207061" lon="22.3712818"><ele>816.0</ele><time>2026-04-28T12:58:00.023Z</time></trkpt><trkpt lat="38.6204856" lon="22.3713014"><ele>811.6666666666667</ele><time>2026-04-28T12:58:01.024Z</time></trkpt><trkpt lat="38.6202675" lon="22.3713357"><ele>807.3333333333334</ele><time>2026-04-28T12:58:02.023Z</time></trkpt><trkpt lat="38.6200551" lon="22.3713751"><ele>803.0</ele><time>2026-04-28T12:58:03.023Z</time></trkpt><trkpt lat="38.6198397" lon="22.3714125"><ele>812.6666666666667</ele><time>2026-04-28T12:58:04.023Z</time></trkpt><trkpt lat="38.6196286" lon="22.3714368"><ele>822.3333333333333</ele><time>2026-04-28T12:58:05.024Z</time></trkpt><trkpt lat="38.6194162" lon="22.3714402"><ele>832.0</ele><time>2026-04-28T12:58:06.025Z</time></trkpt><trkpt lat="38.6192067" lon="22.3714507"><ele>832.0</ele><time>2026-04-28T12:58:07.024Z</time></trkpt><trkpt lat="38.6189903" lon="22.3714908"><ele>832.0</ele><time>2026-04-28T12:58:08.024Z</time></trkpt><trkpt lat="38.6187666" lon="22.3715525"><ele>832.0</ele><time>2026-04-28T12:58:09.024Z</time></trkpt><trkpt lat="38.6185421" lon="22.3716282"><ele>822.5</ele><time>2026-04-28T12:58:10.024Z</time></trkpt><trkpt lat="38.6183164" lon="22.3717139"><ele>813.0</ele><time>2026-04-28T12:58:11.025Z</time></trkpt><trkpt lat="38.6180969" lon="22.3717956"><ele>813.0</ele><time>2026-04-28T12:58:12.023Z</time></trkpt><trkpt lat="38.6178856" lon="22.3718719"><ele>813.0</ele><time>2026-04-28T12:58:13.024Z</time></trkpt><trkpt lat="38.617684" lon="22.3719456"><ele>813.0</ele><time>2026-04-28T12:58:14.024Z</time></trkpt><trkpt lat="38.6175012" lon="22.3720104"><ele>817.0</ele><time>2026-04-28T12:58:15.024Z</time></trkpt><trkpt lat="38.6173399" lon="22.3720694"><ele>821.0</ele><time>2026-04-28T12:58:16.025Z</time></trkpt><trkpt lat="38.6171907" lon="22.3721355"><ele>825.0</ele><time>2026-04-28T12:58:17.024Z</time></trkpt><trkpt lat="38.6170575" lon="22.3722362"><ele>816.0</ele><time>2026-04-28T12:58:18.024Z</time></trkpt><trkpt lat="38.616945" lon="22.3723692"><ele>807.0</ele><time>2026-04-28T12:58:19.023Z</time></trkpt><trkpt lat="38.6168513" lon="22.3725206"><ele>798.0</ele><time>2026-04-28T12:58:20.025Z</time></trkpt><trkpt lat="38.6167698" lon="22.3726886"><ele>798.0</ele><time>2026-04-28T12:58:21.025Z</time></trkpt><trkpt lat="38.6166807" lon="22.3728441"><ele>798.0</ele><time>2026-04-28T12:58:22.025Z</time></trkpt><trkpt lat="38.6165788" lon="22.3729996"><ele>798.0</ele><time>2026-04-28T12:58:23.025Z</time></trkpt><trkpt lat="38.6164593" lon="22.3731433"><ele>798.0</ele><time>2026-04-28T12:58:24.024Z</time></trkpt><trkpt lat="38.6161917" lon="22.3732399"><ele>798.0</ele><time>2026-04-28T12:58:25.024Z</time></trkpt><trkpt lat="38.615999" lon="22.3733797"><ele>798.0</ele><time>2026-04-28T12:58:26.025Z</time></trkpt><trkpt lat="38.6157754" lon="22.3735491"><ele>798.0</ele><time>2026-04-28T12:58:27.024Z</time></trkpt><trkpt lat="38.6155621" lon="22.3737047"><ele>799.0</ele><time>2026-04-28T12:58:28.025Z</time></trkpt><trkpt lat="38.6153468" lon="22.373866"><ele>800.0</ele><time>2026-04-28T12:58:29.025Z</time></trkpt><trkpt lat="38.6151349" lon="22.3740224"><ele>800.0</ele><time>2026-04-28T12:58:30.025Z</time></trkpt><trkpt lat="38.614917" lon="22.3741614"><ele>800.0</ele><time>2026-04-28T12:58:31.024Z</time></trkpt><trkpt lat="38.6146933" lon="22.3742852"><ele>788.5</ele><time>2026-04-28T12:58:32.024Z</time></trkpt><trkpt lat="38.6144721" lon="22.3744032"><ele>777.0</ele><time>2026-04-28T12:58:33.025Z</time></trkpt><trkpt lat="38.6142559" lon="22.3745173"><ele>777.0</ele><time>2026-04-28T12:58:34.023Z</time></trkpt><trkpt lat="38.6140425" lon="22.3746312"><ele>777.0</ele><time>2026-04-28T12:58:35.023Z</time></trkpt><trkpt lat="38.6138326" lon="22.3747412"><ele>781.0</ele><time>2026-04-28T12:58:36.024Z</time></trkpt><trkpt lat="38.6136277" lon="22.3748486"><ele>785.0</ele><time>2026-04-28T12:58:37.023Z</time></trkpt><trkpt lat="38.6134262" lon="22.3749668"><ele>789.0</ele><time>2026-04-28T12:58:38.024Z</time></trkpt><trkpt lat="38.613224" lon="22.375075"><ele>789.0</ele><time>2026-04-28T12:58:39.024Z</time></trkpt><trkpt lat="38.613022" lon="22.3751853"><ele>789.0</ele><time>2026-04-28T12:58:40.024Z</time></trkpt><trkpt lat="38.6128217" lon="22.375291"><ele>789.0</ele><time>2026-04-28T12:58:41.025Z</time></trkpt><trkpt lat="38.612621" lon="22.3753973"><ele>792.0</ele><time>2026-04-28T12:58:42.024Z</time></trkpt><trkpt lat="38.6124261" lon="22.375501"><ele>795.0</ele><time>2026-04-28T12:58:43.024Z</time></trkpt><trkpt lat="38.6122397" lon="22.3755991"><ele>798.0</ele><time>2026-04-28T12:58:44.024Z</time></trkpt><trkpt lat="38.6120576" lon="22.3756966"><ele>791.3333333333333</ele><time>2026-04-28T12:58:45.023Z</time></trkpt><trkpt lat="38.6118777" lon="22.3758115"><ele>784.6666666666666</ele><time>2026-04-28T12:58:46.024Z</time></trkpt><trkpt lat="38.6117052" lon="22.3759535"><ele>778.0</ele><time>2026-04-28T12:58:47.024Z</time></trkpt><trkpt lat="38.611534" lon="22.3761197"><ele>778.0</ele><time>2026-04-28T12:58:48.025Z</time></trkpt><trkpt lat="38.6113563" lon="22.3763002"><ele>778.0</ele><time>2026-04-28T12:58:49.025Z</time></trkpt><trkpt lat="38.6111632" lon="22.3764958"><ele>775.5</ele><time>2026-04-28T12:58:50.023Z</time></trkpt><trkpt lat="38.6109645" lon="22.3766949"><ele>773.0</ele><time>2026-04-28T12:58:51.024Z</time></trkpt><trkpt lat="38.6107701" lon="22.3768832"><ele>773.0</ele><time>2026-04-28T12:58:52.024Z</time></trkpt><trkpt lat="38.6105798" lon="22.3770554"><ele>773.0</ele><time>2026-04-28T12:58:53.025Z</time></trkpt><trkpt lat="38.6103966" lon="22.3772149"><ele>776.0</ele><time>2026-04-28T12:58:54.024Z</time></trkpt><trkpt lat="38.6102246" lon="22.3773679"><ele>779.0</ele><time>2026-04-28T12:58:55.024Z</time></trkpt><trkpt lat="38.6100662" lon="22.3775124"><ele>782.0</ele><time>2026-04-28T12:58:56.023Z</time></trkpt><trkpt lat="38.609924" lon="22.3776396"><ele>782.0</ele><time>2026-04-28T12:58:57.025Z</time></trkpt><trkpt lat="38.6097919" lon="22.3777344"><ele>782.0</ele><time>2026-04-28T12:58:58.025Z</time></trkpt><trkpt lat="38.6096621" lon="22.3777842"><ele>782.0</ele><time>2026-04-28T12:58:59.024Z</time></trkpt><trkpt lat="38.6095318" lon="22.3777926"><ele>782.0</ele><time>2026-04-28T12:59:00.023Z</time></trkpt><trkpt lat="38.6094188" lon="22.3777492"><ele>783.6666666666667</ele><time>2026-04-28T12:59:01.024Z</time></trkpt><trkpt lat="38.6093222" lon="22.3776879"><ele>785.3333333333333</ele><time>2026-04-28T12:59:02.023Z</time></trkpt><trkpt lat="38.6092304" lon="22.3774759"><ele>787.0</ele><time>2026-04-28T12:59:03.025Z</time></trkpt><trkpt lat="38.6091967" lon="22.377216"><ele>785.0</ele><time>2026-04-28T12:59:04.025Z</time></trkpt><trkpt lat="38.6091616" lon="22.3769832"><ele>783.0</ele><time>2026-04-28T12:59:05.025Z</time></trkpt><trkpt lat="38.6091301" lon="22.3767448"><ele>781.0</ele><time>2026-04-28T12:59:06.024Z</time></trkpt><trkpt lat="38.6091101" lon="22.3765133"><ele>779.3333333333333</ele><time>2026-04-28T12:59:07.023Z</time></trkpt><trkpt lat="38.6090849" lon="22.3762838"><ele>777.6666666666667</ele><time>2026-04-28T12:59:08.023Z</time></trkpt><trkpt lat="38.6090528" lon="22.3760594"><ele>776.0</ele><time>2026-04-28T12:59:09.024Z</time></trkpt><trkpt lat="38.6090093" lon="22.3758341"><ele>776.0</ele><time>2026-04-28T12:59:10.023Z</time></trkpt><trkpt lat="38.6089612" lon="22.3756087"><ele>776.0</ele><time>2026-04-28T12:59:11.025Z</time></trkpt><trkpt lat="38.6088985" lon="22.3753824"><ele>776.0</ele><time>2026-04-28T12:59:12.024Z</time></trkpt><trkpt lat="38.6088234" lon="22.3751579"><ele>774.6666666666667</ele><time>2026-04-28T12:59:13.025Z</time></trkpt><trkpt lat="38.6087456" lon="22.374947"><ele>773.3333333333333</ele><time>2026-04-28T12:59:14.024Z</time></trkpt><trkpt lat="38.6086655" lon="22.3747509"><ele>772.0</ele><time>2026-04-28T12:59:15.025Z</time></trkpt><trkpt lat="38.6085883" lon="22.3745654"><ele>772.0</ele><time>2026-04-28T12:59:16.024Z</time></trkpt><trkpt lat="38.6085066" lon="22.3744025"><ele>772.0</ele><time>2026-04-28T12:59:17.024Z</time></trkpt><trkpt lat="38.6084105" lon="22.3742569"><ele>772.0</ele><time>2026-04-28T12:59:18.024Z</time></trkpt><trkpt lat="38.608292" lon="22.3741291"><ele>772.0</ele><time>2026-04-28T12:59:19.023Z</time></trkpt><trkpt lat="38.6081526" lon="22.3740148"><ele>772.0</ele><time>2026-04-28T12:59:20.024Z</time></trkpt><trkpt lat="38.6079883" lon="22.3739191"><ele>772.0</ele><time>2026-04-28T12:59:21.024Z</time></trkpt><trkpt lat="38.6078005" lon="22.3738347"><ele>766.0</ele><time>2026-04-28T12:59:22.024Z</time></trkpt><trkpt lat="38.6076027" lon="22.3737564"><ele>760.0</ele><time>2026-04-28T12:59:23.024Z</time></trkpt><trkpt lat="38.6074007" lon="22.3736748"><ele>754.0</ele><time>2026-04-28T12:59:24.025Z</time></trkpt><trkpt lat="38.6071942" lon="22.3735878"><ele>759.0</ele><time>2026-04-28T12:59:25.023Z</time></trkpt><trkpt lat="38.60699" lon="22.3734919"><ele>764.0</ele><time>2026-04-28T12:59:26.025Z</time></trkpt><trkpt lat="38.6067913" lon="22.3733924"><ele>769.0</ele><time>2026-04-28T12:59:27.024Z</time></trkpt><trkpt lat="38.6065926" lon="22.373293"><ele>769.0</ele><time>2026-04-28T12:59:28.025Z</time></trkpt><trkpt lat="38.6064068" lon="22.3731935"><ele>769.0</ele><time>2026-04-28T12:59:29.025Z</time></trkpt><trkpt lat="38.606224" lon="22.3730945"><ele>769.0</ele><time>2026-04-28T12:59:30.025Z</time></trkpt><trkpt lat="38.6060443" lon="22.3729978"><ele>764.6666666666666</ele><time>2026-04-28T12:59:31.024Z</time></trkpt><trkpt lat="38.6058711" lon="22.3729039"><ele>760.3333333333333</ele><time>2026-04-28T12:59:32.023Z</time></trkpt><trkpt lat="38.6057067" lon="22.3728187"><ele>756.0</ele><time>2026-04-28T12:59:33.024Z</time></trkpt><trkpt lat="38.6055453" lon="22.3727601"><ele>756.0</ele><time>2026-04-28T12:59:34.024Z</time></trkpt><trkpt lat="38.6053842" lon="22.3727378"><ele>756.0</ele><time>2026-04-28T12:59:35.024Z</time></trkpt><trkpt lat="38.6052225" lon="22.3727495"><ele>756.0</ele><time>2026-04-28T12:59:36.024Z</time></trkpt><trkpt lat="38.6050552" lon="22.3727999"><ele>752.6666666666666</ele><time>2026-04-28T12:59:37.024Z</time></trkpt><trkpt lat="38.6048924" lon="22.3728971"><ele>749.3333333333333</ele><time>2026-04-28T12:59:38.024Z</time></trkpt><trkpt lat="38.6047118" lon="22.3730079"><ele>746.0</ele><time>2026-04-28T12:59:39.023Z</time></trkpt><trkpt lat="38.6045359" lon="22.373131"><ele>747.6666666666666</ele><time>2026-04-28T12:59:40.023Z</time></trkpt><trkpt lat="38.6043537" lon="22.3732529"><ele>749.3333333333334</ele><time>2026-04-28T12:59:41.024Z</time></trkpt><trkpt lat="38.6041681" lon="22.3733842"><ele>751.0</ele><time>2026-04-28T12:59:42.024Z</time></trkpt><trkpt lat="38.6039873" lon="22.3735118"><ele>751.0</ele><time>2026-04-28T12:59:43.025Z</time></trkpt><trkpt lat="38.6038147" lon="22.3736333"><ele>751.0</ele><time>2026-04-28T12:59:44.025Z</time></trkpt><trkpt lat="38.6036492" lon="22.3737515"><ele>751.0</ele><time>2026-04-28T12:59:45.025Z</time></trkpt><trkpt lat="38.6034925" lon="22.3738725"><ele>751.0</ele><time>2026-04-28T12:59:46.025Z</time></trkpt><trkpt lat="38.6033477" lon="22.3740114"><ele>751.0</ele><time>2026-04-28T12:59:47.024Z</time></trkpt><trkpt lat="38.6032127" lon="22.3741779"><ele>751.0</ele><time>2026-04-28T12:59:48.023Z</time></trkpt><trkpt lat="38.6030882" lon="22.374367"><ele>751.0</ele><time>2026-04-28T12:59:49.025Z</time></trkpt><trkpt lat="38.6029666" lon="22.3745509"><ele>751.0</ele><time>2026-04-28T12:59:50.024Z</time></trkpt><trkpt lat="38.6028487" lon="22.3747506"><ele>751.0</ele><time>2026-04-28T12:59:51.025Z</time></trkpt><trkpt lat="38.6027421" lon="22.3749564"><ele>751.3333333333334</ele><time>2026-04-28T12:59:52.024Z</time></trkpt><trkpt lat="38.6026467" lon="22.3751759"><ele>751.6666666666666</ele><time>2026-04-28T12:59:53.023Z</time></trkpt><trkpt lat="38.6025658" lon="22.3754092"><ele>752.0</ele><time>2026-04-28T12:59:54.025Z</time></trkpt><trkpt lat="38.6024949" lon="22.3756548"><ele>752.0</ele><time>2026-04-28T12:59:55.024Z</time></trkpt><trkpt lat="38.6024265" lon="22.3758988"><ele>752.0</ele><time>2026-04-28T12:59:56.025Z</time></trkpt><trkpt lat="38.6023592" lon="22.3761346"><ele>752.0</ele><time>2026-04-28T12:59:57.024Z</time></trkpt><trkpt lat="38.6022935" lon="22.3763631"><ele>754.6666666666666</ele><time>2026-04-28T12:59:58.024Z</time></trkpt><trkpt lat="38.6022188" lon="22.3765854"><ele>757.3333333333334</ele><time>2026-04-28T12:59:59.024Z</time></trkpt><trkpt lat="38.602145" lon="22.3768"><ele>760.0</ele><time>2026-04-28T13:00:00.025Z</time></trkpt><trkpt lat="38.6020685" lon="22.3770194"><ele>754.0</ele><time>2026-04-28T13:00:01.025Z</time></trkpt><trkpt lat="38.6019931" lon="22.3772322"><ele>748.0</ele><time>2026-04-28T13:00:02.025Z</time></trkpt><trkpt lat="38.6019236" lon="22.3774393"><ele>742.0</ele><time>2026-04-28T13:00:03.025Z</time></trkpt><trkpt lat="38.6018562" lon="22.377641"><ele>742.0</ele><time>2026-04-28T13:00:04.024Z</time></trkpt><trkpt lat="38.6017854" lon="22.3778367"><ele>742.0</ele><time>2026-04-28T13:00:05.024Z</time></trkpt><trkpt lat="38.6016963" lon="22.378019"><ele>742.0</ele><time>2026-04-28T13:00:06.024Z</time></trkpt><trkpt lat="38.6015853" lon="22.3781771"><ele>741.6666666666667</ele><time>2026-04-28T13:00:07.024Z</time></trkpt><trkpt lat="38.6014632" lon="22.378308"><ele>741.3333333333334</ele><time>2026-04-28T13:00:08.024Z</time></trkpt><trkpt lat="38.6012872" lon="22.378391"><ele>741.0</ele><time>2026-04-28T13:00:09.024Z</time></trkpt><trkpt lat="38.6011" lon="22.3784614"><ele>741.0</ele><time>2026-04-28T13:00:10.023Z</time></trkpt><trkpt lat="38.6009032" lon="22.3785253"><ele>741.0</ele><time>2026-04-28T13:00:11.024Z</time></trkpt><trkpt lat="38.6006946" lon="22.3785792"><ele>741.0</ele><time>2026-04-28T13:00:12.024Z</time></trkpt><trkpt lat="38.600482" lon="22.37861"><ele>738.0</ele><time>2026-04-28T13:00:13.024Z</time></trkpt><trkpt lat="38.6002643" lon="22.3786371"><ele>735.0</ele><time>2026-04-28T13:00:14.024Z</time></trkpt><trkpt lat="38.6000467" lon="22.378651"><ele>732.0</ele><time>2026-04-28T13:00:15.024Z</time></trkpt><trkpt lat="38.599833" lon="22.3786548"><ele>732.0</ele><time>2026-04-28T13:00:16.025Z</time></trkpt><trkpt lat="38.599629" lon="22.3786575"><ele>732.0</ele><time>2026-04-28T13:00:17.025Z</time></trkpt><trkpt lat="38.5994327" lon="22.3786569"><ele>732.0</ele><time>2026-04-28T13:00:18.025Z</time></trkpt><trkpt lat="38.599252" lon="22.3786537"><ele>731.6666666666666</ele><time>2026-04-28T13:00:19.024Z</time></trkpt><trkpt lat="38.5990776" lon="22.3786585"><ele>731.3333333333333</ele><time>2026-04-28T13:00:20.024Z</time></trkpt><trkpt lat="38.5989142" lon="22.3786774"><ele>731.0</ele><time>2026-04-28T13:00:21.024Z</time></trkpt><trkpt lat="38.5987513" lon="22.3787297"><ele>732.3333333333333</ele><time>2026-04-28T13:00:22.025Z</time></trkpt><trkpt lat="38.5985896" lon="22.3788208"><ele>733.6666666666666</ele><time>2026-04-28T13:00:23.024Z</time></trkpt><trkpt lat="38.5984343" lon="22.3789536"><ele>735.0</ele><time>2026-04-28T13:00:24.025Z</time></trkpt><trkpt lat="38.5982872" lon="22.379117"><ele>735.0</ele><time>2026-04-28T13:00:25.025Z</time></trkpt><trkpt lat="38.5981393" lon="22.3793025"><ele>735.0</ele><time>2026-04-28T13:00:26.025Z</time></trkpt><trkpt lat="38.5979945" lon="22.3794852"><ele>735.0</ele><time>2026-04-28T13:00:27.024Z</time></trkpt><trkpt lat="38.5978545" lon="22.3796518"><ele>737.0</ele><time>2026-04-28T13:00:28.025Z</time></trkpt><trkpt lat="38.5977073" lon="22.3797909"><ele>739.0</ele><time>2026-04-28T13:00:29.024Z</time></trkpt><trkpt lat="38.597541" lon="22.3798966"><ele>741.0</ele><time>2026-04-28T13:00:30.024Z</time></trkpt><trkpt lat="38.5973686" lon="22.3799609"><ele>741.0</ele><time>2026-04-28T13:00:31.023Z</time></trkpt><trkpt lat="38.5971933" lon="22.3799902"><ele>741.0</ele><time>2026-04-28T13:00:32.024Z</time></trkpt><trkpt lat="38.5970323" lon="22.3800418"><ele>741.0</ele><time>2026-04-28T13:00:33.023Z</time></trkpt><trkpt lat="38.5968761" lon="22.3801445"><ele>741.3333333333334</ele><time>2026-04-28T13:00:34.024Z</time></trkpt><trkpt lat="38.596727" lon="22.3802824"><ele>741.6666666666667</ele><time>2026-04-28T13:00:35.023Z</time></trkpt><trkpt lat="38.5965864" lon="22.3804432"><ele>742.0</ele><time>2026-04-28T13:00:36.024Z</time></trkpt><trkpt lat="38.596463" lon="22.3806358"><ele>742.0</ele><time>2026-04-28T13:00:37.023Z</time></trkpt><trkpt lat="38.5963549" lon="22.3808416"><ele>742.0</ele><time>2026-04-28T13:00:38.024Z</time></trkpt><trkpt lat="38.5962638" lon="22.3810574"><ele>742.0</ele><time>2026-04-28T13:00:39.024Z</time></trkpt><trkpt lat="38.5961741" lon="22.3812722"><ele>736.3333333333334</ele><time>2026-04-28T13:00:40.024Z</time></trkpt><trkpt lat="38.5960796" lon="22.3814824"><ele>730.6666666666666</ele><time>2026-04-28T13:00:41.025Z</time></trkpt><trkpt lat="38.5959612" lon="22.3816557"><ele>725.0</ele><time>2026-04-28T13:00:42.024Z</time></trkpt><trkpt lat="38.59582" lon="22.3818244"><ele>725.0</ele><time>2026-04-28T13:00:43.024Z</time></trkpt><trkpt lat="38.5956464" lon="22.3819644"><ele>725.0</ele><time>2026-04-28T13:00:44.024Z</time></trkpt><trkpt lat="38.5954775" lon="22.3821018"><ele>725.0</ele><time>2026-04-28T13:00:45.023Z</time></trkpt><trkpt lat="38.5953176" lon="22.3822249"><ele>726.0</ele><time>2026-04-28T13:00:46.025Z</time></trkpt><trkpt lat="38.5951522" lon="22.3823235"><ele>727.0</ele><time>2026-04-28T13:00:47.024Z</time></trkpt><trkpt lat="38.5949878" lon="22.3823822"><ele>728.0</ele><time>2026-04-28T13:00:48.024Z</time></trkpt><trkpt lat="38.5948116" lon="22.382344"><ele>728.0</ele><time>2026-04-28T13:00:49.024Z</time></trkpt><trkpt lat="38.5946125" lon="22.3823067"><ele>728.0</ele><time>2026-04-28T13:00:50.025Z</time></trkpt><trkpt lat="38.5943987" lon="22.3822199"><ele>728.0</ele><time>2026-04-28T13:00:51.025Z</time></trkpt><trkpt lat="38.5942077" lon="22.3821635"><ele>722.3333333333333</ele><time>2026-04-28T13:00:52.024Z</time></trkpt><trkpt lat="38.5940189" lon="22.3821063"><ele>716.6666666666666</ele><time>2026-04-28T13:00:53.024Z</time></trkpt><trkpt lat="38.5938318" lon="22.3820667"><ele>711.0</ele><time>2026-04-28T13:00:54.025Z</time></trkpt><trkpt lat="38.5936413" lon="22.3820597"><ele>709.6666666666666</ele><time>2026-04-28T13:00:55.025Z</time></trkpt><trkpt lat="38.5934494" lon="22.3820847"><ele>708.3333333333333</ele><time>2026-04-28T13:00:56.024Z</time></trkpt><trkpt lat="38.5932554" lon="22.3821296"><ele>707.0</ele><time>2026-04-28T13:00:57.024Z</time></trkpt><trkpt lat="38.5930654" lon="22.382203"><ele>709.6666666666666</ele><time>2026-04-28T13:00:58.023Z</time></trkpt><trkpt lat="38.5928924" lon="22.3822974"><ele>712.3333333333334</ele><time>2026-04-28T13:00:59.025Z</time></trkpt><trkpt lat="38.5927399" lon="22.3824078"><ele>715.0</ele><time>2026-04-28T13:01:00.023Z</time></trkpt><trkpt lat="38.5926052" lon="22.3825472"><ele>715.0</ele><time>2026-04-28T13:01:01.024Z</time></trkpt><trkpt lat="38.592501" lon="22.3827136"><ele>715.0</ele><time>2026-04-28T13:01:02.023Z</time></trkpt><trkpt lat="38.5924275" lon="22.3829051"><ele>715.0</ele><time>2026-04-28T13:01:03.024Z</time></trkpt><trkpt lat="38.5923708" lon="22.3831236"><ele>719.6666666666667</ele><time>2026-04-28T13:01:04.023Z</time></trkpt><trkpt lat="38.5922863" lon="22.3833324"><ele>724.3333333333334</ele><time>2026-04-28T13:01:05.024Z</time></trkpt><trkpt lat="38.5921805" lon="22.3835146"><ele>729.0</ele><time>2026-04-28T13:01:06.024Z</time></trkpt><trkpt lat="38.5920632" lon="22.3837163"><ele>730.5</ele><time>2026-04-28T13:01:07.024Z</time></trkpt><trkpt lat="38.5919284" lon="22.3839074"><ele>732.0</ele><time>2026-04-28T13:01:08.024Z</time></trkpt><trkpt lat="38.5916239" lon="22.384123"><ele>732.0</ele><time>2026-04-28T13:01:09.024Z</time></trkpt><trkpt lat="38.5913832" lon="22.3843452"><ele>732.0</ele><time>2026-04-28T13:01:10.024Z</time></trkpt><trkpt lat="38.5911477" lon="22.384571"><ele>732.5</ele><time>2026-04-28T13:01:11.024Z</time></trkpt><trkpt lat="38.590917" lon="22.3847792"><ele>733.0</ele><time>2026-04-28T13:01:12.023Z</time></trkpt><trkpt lat="38.5907017" lon="22.3849796"><ele>733.0</ele><time>2026-04-28T13:01:13.023Z</time></trkpt><trkpt lat="38.5904991" lon="22.3851628"><ele>733.0</ele><time>2026-04-28T13:01:14.023Z</time></trkpt><trkpt lat="38.5903145" lon="22.3853295"><ele>733.3333333333334</ele><time>2026-04-28T13:01:15.023Z</time></trkpt><trkpt lat="38.5901353" lon="22.385494"><ele>733.6666666666666</ele><time>2026-04-28T13:01:16.025Z</time></trkpt><trkpt lat="38.589975" lon="22.3856619"><ele>734.0</ele><time>2026-04-28T13:01:17.025Z</time></trkpt><trkpt lat="38.5898367" lon="22.3858414"><ele>734.0</ele><time>2026-04-28T13:01:18.024Z</time></trkpt><trkpt lat="38.5897043" lon="22.3860264"><ele>734.0</ele><time>2026-04-28T13:01:19.025Z</time></trkpt><trkpt lat="38.589581" lon="22.3862147"><ele>734.0</ele><time>2026-04-28T13:01:20.024Z</time></trkpt><trkpt lat="38.5894642" lon="22.3864302"><ele>731.6666666666666</ele><time>2026-04-28T13:01:21.024Z</time></trkpt><trkpt lat="38.5893451" lon="22.3866731"><ele>729.3333333333334</ele><time>2026-04-28T13:01:22.024Z</time></trkpt><trkpt lat="38.5892321" lon="22.3869142"><ele>727.0</ele><time>2026-04-28T13:01:23.024Z</time></trkpt><trkpt lat="38.5891298" lon="22.387142"><ele>732.0</ele><time>2026-04-28T13:01:24.024Z</time></trkpt><trkpt lat="38.5890236" lon="22.3873606"><ele>737.0</ele><time>2026-04-28T13:01:25.023Z</time></trkpt><trkpt lat="38.5888943" lon="22.3875554"><ele>742.0</ele><time>2026-04-28T13:01:26.024Z</time></trkpt><trkpt lat="38.5887674" lon="22.3877568"><ele>740.5</ele><time>2026-04-28T13:01:27.024Z</time></trkpt><trkpt lat="38.5885506" lon="22.3879004"><ele>739.0</ele><time>2026-04-28T13:01:28.024Z</time></trkpt><trkpt lat="38.5884028" lon="22.3880953"><ele>739.0</ele><time>2026-04-28T13:01:29.024Z</time></trkpt><trkpt lat="38.5882735" lon="22.3883155"><ele>739.0</ele><time>2026-04-28T13:01:30.024Z</time></trkpt><trkpt lat="38.5881382" lon="22.3885397"><ele>739.0</ele><time>2026-04-28T13:01:31.025Z</time></trkpt><trkpt lat="38.587974" lon="22.3887402"><ele>738.5</ele><time>2026-04-28T13:01:32.025Z</time></trkpt><trkpt lat="38.5878187" lon="22.3889516"><ele>738.0</ele><time>2026-04-28T13:01:33.025Z</time></trkpt><trkpt lat="38.5876033" lon="22.3890921"><ele>738.0</ele><time>2026-04-28T13:01:34.024Z</time></trkpt><trkpt lat="38.5874207" lon="22.3892368"><ele>738.0</ele><time>2026-04-28T13:01:35.025Z</time></trkpt><trkpt lat="38.5872448" lon="22.3893747"><ele>738.0</ele><time>2026-04-28T13:01:36.023Z</time></trkpt><trkpt lat="38.5870823" lon="22.389532"><ele>738.0</ele><time>2026-04-28T13:01:37.023Z</time></trkpt><trkpt lat="38.5869397" lon="22.3897242"><ele>738.0</ele><time>2026-04-28T13:01:38.023Z</time></trkpt><trkpt lat="38.5868261" lon="22.3899245"><ele>738.0</ele><time>2026-04-28T13:01:39.024Z</time></trkpt><trkpt lat="38.5867253" lon="22.3901144"><ele>738.0</ele><time>2026-04-28T13:01:40.023Z</time></trkpt><trkpt lat="38.5866061" lon="22.390249"><ele>738.0</ele><time>2026-04-28T13:01:41.024Z</time></trkpt><trkpt lat="38.5864499" lon="22.3903624"><ele>738.0</ele><time>2026-04-28T13:01:42.024Z</time></trkpt><trkpt lat="38.5862341" lon="22.3904554"><ele>743.5</ele><time>2026-04-28T13:01:43.024Z</time></trkpt><trkpt lat="38.5860007" lon="22.3905294"><ele>749.0</ele><time>2026-04-28T13:01:44.024Z</time></trkpt><trkpt lat="38.5857463" lon="22.3906081"><ele>749.0</ele><time>2026-04-28T13:01:45.024Z</time></trkpt><trkpt lat="38.585493" lon="22.3906893"><ele>749.0</ele><time>2026-04-28T13:01:46.024Z</time></trkpt><trkpt lat="38.5852517" lon="22.3907613"><ele>746.0</ele><time>2026-04-28T13:01:47.024Z</time></trkpt><trkpt lat="38.5850257" lon="22.3908277"><ele>743.0</ele><time>2026-04-28T13:01:48.024Z</time></trkpt><trkpt lat="38.5848136" lon="22.3908903"><ele>743.0</ele><time>2026-04-28T13:01:49.024Z</time></trkpt><trkpt lat="38.5846082" lon="22.3909546"><ele>743.0</ele><time>2026-04-28T13:01:50.024Z</time></trkpt><trkpt lat="38.584417" lon="22.3910148"><ele>743.0</ele><time>2026-04-28T13:01:51.023Z</time></trkpt><trkpt lat="38.5842377" lon="22.3910709"><ele>740.3333333333333</ele><time>2026-04-28T13:01:52.024Z</time></trkpt><trkpt lat="38.584066" lon="22.3911288"><ele>737.6666666666666</ele><time>2026-04-28T13:01:53.024Z</time></trkpt><trkpt lat="38.5839001" lon="22.3912088"><ele>735.0</ele><time>2026-04-28T13:01:54.024Z</time></trkpt><trkpt lat="38.5837445" lon="22.3913198"><ele>736.6666666666666</ele><time>2026-04-28T13:01:55.025Z</time></trkpt><trkpt lat="38.5835987" lon="22.3914662"><ele>738.3333333333333</ele><time>2026-04-28T13:01:56.024Z</time></trkpt><trkpt lat="38.5834675" lon="22.3916335"><ele>740.0</ele><time>2026-04-28T13:01:57.024Z</time></trkpt><trkpt lat="38.5833602" lon="22.3918213"><ele>740.0</ele><time>2026-04-28T13:01:58.025Z</time></trkpt><trkpt lat="38.5832685" lon="22.3920095"><ele>740.0</ele><time>2026-04-28T13:01:59.025Z</time></trkpt><trkpt lat="38.5831866" lon="22.3921875"><ele>740.0</ele><time>2026-04-28T13:02:00.024Z</time></trkpt><trkpt lat="38.5831128" lon="22.3923503"><ele>739.0</ele><time>2026-04-28T13:02:01.023Z</time></trkpt><trkpt lat="38.5830324" lon="22.3924923"><ele>738.0</ele><time>2026-04-28T13:02:02.024Z</time></trkpt><trkpt lat="38.5829395" lon="22.3926075"><ele>737.0</ele><time>2026-04-28T13:02:03.023Z</time></trkpt><trkpt lat="38.5828378" lon="22.3927028"><ele>736.0</ele><time>2026-04-28T13:02:04.023Z</time></trkpt><trkpt lat="38.5827366" lon="22.3927851"><ele>736.0</ele><time>2026-04-28T13:02:05.025Z</time></trkpt><trkpt lat="38.5826348" lon="22.3928656"><ele>736.0</ele><time>2026-04-28T13:02:06.023Z</time></trkpt><trkpt lat="38.5825329" lon="22.3929464"><ele>736.0</ele><time>2026-04-28T13:02:07.023Z</time></trkpt><trkpt lat="38.582429" lon="22.3930275"><ele>736.0</ele><time>2026-04-28T13:02:08.024Z</time></trkpt><trkpt lat="38.5823255" lon="22.3930935"><ele>735.0</ele><time>2026-04-28T13:02:09.023Z</time></trkpt><trkpt lat="38.5822207" lon="22.3931243"><ele>734.0</ele><time>2026-04-28T13:02:10.024Z</time></trkpt><trkpt lat="38.5821147" lon="22.3931122"><ele>733.0</ele><time>2026-04-28T13:02:11.024Z</time></trkpt><trkpt lat="38.5820238" lon="22.3930283"><ele>732.0</ele><time>2026-04-28T13:02:12.025Z</time></trkpt><trkpt lat="38.5819318" lon="22.3929119"><ele>732.0</ele><time>2026-04-28T13:02:13.025Z</time></trkpt><trkpt lat="38.5818472" lon="22.3927785"><ele>732.0</ele><time>2026-04-28T13:02:14.024Z</time></trkpt><trkpt lat="38.5817403" lon="22.3926543"><ele>732.0</ele><time>2026-04-28T13:02:15.024Z</time></trkpt><trkpt lat="38.5816249" lon="22.3925586"><ele>732.0</ele><time>2026-04-28T13:02:16.025Z</time></trkpt><trkpt lat="38.5814981" lon="22.3924785"><ele>732.0</ele><time>2026-04-28T13:02:17.025Z</time></trkpt><trkpt lat="38.581366" lon="22.3924238"><ele>732.0</ele><time>2026-04-28T13:02:18.023Z</time></trkpt><trkpt lat="38.5812085" lon="22.3923963"><ele>732.0</ele><time>2026-04-28T13:02:19.024Z</time></trkpt><trkpt lat="38.5810503" lon="22.3923961"><ele>733.0</ele><time>2026-04-28T13:02:20.023Z</time></trkpt><trkpt lat="38.5808811" lon="22.3924342"><ele>734.0</ele><time>2026-04-28T13:02:21.024Z</time></trkpt><trkpt lat="38.5807011" lon="22.3925039"><ele>735.0</ele><time>2026-04-28T13:02:22.023Z</time></trkpt><trkpt lat="38.5805125" lon="22.3925948"><ele>731.3333333333334</ele><time>2026-04-28T13:02:23.025Z</time></trkpt><trkpt lat="38.580326" lon="22.3926946"><ele>727.6666666666667</ele><time>2026-04-28T13:02:24.025Z</time></trkpt><trkpt lat="38.5801323" lon="22.3927618"><ele>724.0</ele><time>2026-04-28T13:02:25.025Z</time></trkpt><trkpt lat="38.5799444" lon="22.3927973"><ele>724.0</ele><time>2026-04-28T13:02:26.025Z</time></trkpt><trkpt lat="38.5797676" lon="22.3928092"><ele>724.0</ele><time>2026-04-28T13:02:27.025Z</time></trkpt><trkpt lat="38.5795941" lon="22.392817"><ele>724.0</ele><time>2026-04-28T13:02:28.024Z</time></trkpt><trkpt lat="38.579424" lon="22.3928338"><ele>721.3333333333334</ele><time>2026-04-28T13:02:29.024Z</time></trkpt><trkpt lat="38.5792543" lon="22.3928675"><ele>718.6666666666666</ele><time>2026-04-28T13:02:30.024Z</time></trkpt><trkpt lat="38.5790845" lon="22.3929338"><ele>716.0</ele><time>2026-04-28T13:02:31.025Z</time></trkpt><trkpt lat="38.5789174" lon="22.393023"><ele>719.3333333333333</ele><time>2026-04-28T13:02:32.025Z</time></trkpt><trkpt lat="38.5787467" lon="22.3931355"><ele>722.6666666666666</ele><time>2026-04-28T13:02:33.025Z</time></trkpt><trkpt lat="38.5785718" lon="22.3932545"><ele>726.0</ele><time>2026-04-28T13:02:34.024Z</time></trkpt><trkpt lat="38.5784054" lon="22.393369"><ele>726.0</ele><time>2026-04-28T13:02:35.025Z</time></trkpt><trkpt lat="38.5782476" lon="22.3934743"><ele>726.0</ele><time>2026-04-28T13:02:36.024Z</time></trkpt><trkpt lat="38.5780918" lon="22.393555"><ele>726.0</ele><time>2026-04-28T13:02:37.024Z</time></trkpt><trkpt lat="38.5779269" lon="22.3935961"><ele>724.0</ele><time>2026-04-28T13:02:38.025Z</time></trkpt><trkpt lat="38.5777638" lon="22.3936006"><ele>722.0</ele><time>2026-04-28T13:02:39.025Z</time></trkpt><trkpt lat="38.5776059" lon="22.3936031"><ele>720.0</ele><time>2026-04-28T13:02:40.024Z</time></trkpt><trkpt lat="38.577426" lon="22.3936331"><ele>720.0</ele><time>2026-04-28T13:02:41.024Z</time></trkpt><trkpt lat="38.5772199" lon="22.3937012"><ele>720.0</ele><time>2026-04-28T13:02:42.024Z</time></trkpt><trkpt lat="38.577012" lon="22.3937796"><ele>720.0</ele><time>2026-04-28T13:02:43.025Z</time></trkpt><trkpt lat="38.5768004" lon="22.3938782"><ele>721.0</ele><time>2026-04-28T13:02:44.025Z</time></trkpt><trkpt lat="38.5765995" lon="22.3939705"><ele>722.0</ele><time>2026-04-28T13:02:45.025Z</time></trkpt><trkpt lat="38.5764035" lon="22.3940569"><ele>723.0</ele><time>2026-04-28T13:02:46.024Z</time></trkpt><trkpt lat="38.5762123" lon="22.3941406"><ele>720.6666666666666</ele><time>2026-04-28T13:02:47.024Z</time></trkpt><trkpt lat="38.5760312" lon="22.3942132"><ele>718.3333333333333</ele><time>2026-04-28T13:02:48.024Z</time></trkpt><trkpt lat="38.5758547" lon="22.3942456"><ele>716.0</ele><time>2026-04-28T13:02:49.024Z</time></trkpt><trkpt lat="38.5756749" lon="22.3942387"><ele>716.0</ele><time>2026-04-28T13:02:50.025Z</time></trkpt><trkpt lat="38.5755085" lon="22.3941798"><ele>716.0</ele><time>2026-04-28T13:02:51.024Z</time></trkpt><trkpt lat="38.5753601" lon="22.3940951"><ele>716.0</ele><time>2026-04-28T13:02:52.024Z</time></trkpt><trkpt lat="38.5752201" lon="22.3940173"><ele>715.5</ele><time>2026-04-28T13:02:53.024Z</time></trkpt><trkpt lat="38.5750862" lon="22.3939651"><ele>715.0</ele><time>2026-04-28T13:02:54.024Z</time></trkpt><trkpt lat="38.5749412" lon="22.3939552"><ele>714.5</ele><time>2026-04-28T13:02:55.025Z</time></trkpt><trkpt lat="38.5747992" lon="22.3939868"><ele>714.0</ele><time>2026-04-28T13:02:56.023Z</time></trkpt><trkpt lat="38.5746675" lon="22.394065"><ele>714.0</ele><time>2026-04-28T13:02:57.024Z</time></trkpt><trkpt lat="38.5745378" lon="22.3942189"><ele>714.0</ele><time>2026-04-28T13:02:58.024Z</time></trkpt><trkpt lat="38.5744104" lon="22.3944323"><ele>714.0</ele><time>2026-04-28T13:02:59.023Z</time></trkpt><trkpt lat="38.5742869" lon="22.3946963"><ele>709.0</ele><time>2026-04-28T13:03:00.024Z</time></trkpt><trkpt lat="38.5741602" lon="22.3949751"><ele>704.0</ele><time>2026-04-28T13:03:01.025Z</time></trkpt><trkpt lat="38.5740452" lon="22.3952414"><ele>704.0</ele><time>2026-04-28T13:03:02.025Z</time></trkpt><trkpt lat="38.5739389" lon="22.395498"><ele>704.0</ele><time>2026-04-28T13:03:03.024Z</time></trkpt><trkpt lat="38.5738351" lon="22.3957285"><ele>704.0</ele><time>2026-04-28T13:03:04.024Z</time></trkpt><trkpt lat="38.5737239" lon="22.3959271"><ele>703.6666666666666</ele><time>2026-04-28T13:03:05.024Z</time></trkpt><trkpt lat="38.5735893" lon="22.3960964"><ele>703.3333333333334</ele><time>2026-04-28T13:03:06.023Z</time></trkpt><trkpt lat="38.5734403" lon="22.396271"><ele>703.0</ele><time>2026-04-28T13:03:07.024Z</time></trkpt><trkpt lat="38.5732098" lon="22.3963978"><ele>703.0</ele><time>2026-04-28T13:03:08.025Z</time></trkpt><trkpt lat="38.5730133" lon="22.3965439"><ele>703.0</ele><time>2026-04-28T13:03:09.023Z</time></trkpt><trkpt lat="38.5728207" lon="22.3966719"><ele>703.0</ele><time>2026-04-28T13:03:10.025Z</time></trkpt><trkpt lat="38.5726239" lon="22.3967696"><ele>699.0</ele><time>2026-04-28T13:03:11.023Z</time></trkpt><trkpt lat="38.5724106" lon="22.3968231"><ele>695.0</ele><time>2026-04-28T13:03:12.024Z</time></trkpt><trkpt lat="38.5721991" lon="22.3968467"><ele>691.0</ele><time>2026-04-28T13:03:13.025Z</time></trkpt><trkpt lat="38.5720041" lon="22.3968635"><ele>691.0</ele><time>2026-04-28T13:03:14.023Z</time></trkpt><trkpt lat="38.5718166" lon="22.3968781"><ele>691.0</ele><time>2026-04-28T13:03:15.025Z</time></trkpt><trkpt lat="38.5716383" lon="22.3968888"><ele>691.0</ele><time>2026-04-28T13:03:16.024Z</time></trkpt><trkpt lat="38.571469" lon="22.3969096"><ele>691.0</ele><time>2026-04-28T13:03:17.023Z</time></trkpt><trkpt lat="38.5713014" lon="22.3969302"><ele>691.0</ele><time>2026-04-28T13:03:18.024Z</time></trkpt><trkpt lat="38.5711416" lon="22.3969327"><ele>691.0</ele><time>2026-04-28T13:03:19.024Z</time></trkpt><trkpt lat="38.570986" lon="22.3969098"><ele>689.0</ele><time>2026-04-28T13:03:20.024Z</time></trkpt><trkpt lat="38.5708433" lon="22.3968563"><ele>687.0</ele><time>2026-04-28T13:03:21.025Z</time></trkpt><trkpt lat="38.5706952" lon="22.3968043"><ele>685.0</ele><time>2026-04-28T13:03:22.025Z</time></trkpt><trkpt lat="38.5705386" lon="22.3967649"><ele>685.0</ele><time>2026-04-28T13:03:23.025Z</time></trkpt><trkpt lat="38.570385" lon="22.3967428"><ele>685.0</ele><time>2026-04-28T13:03:24.023Z</time></trkpt><trkpt lat="38.5702301" lon="22.3967269"><ele>685.0</ele><time>2026-04-28T13:03:25.024Z</time></trkpt><trkpt lat="38.5700806" lon="22.3967233"><ele>683.0</ele><time>2026-04-28T13:03:26.024Z</time></trkpt><trkpt lat="38.569944" lon="22.3967391"><ele>681.0</ele><time>2026-04-28T13:03:27.024Z</time></trkpt><trkpt lat="38.5698133" lon="22.3967919"><ele>679.0</ele><time>2026-04-28T13:03:28.024Z</time></trkpt><trkpt lat="38.5696897" lon="22.3968928"><ele>677.0</ele><time>2026-04-28T13:03:29.023Z</time></trkpt><trkpt lat="38.5695758" lon="22.3970374"><ele>676.0</ele><time>2026-04-28T13:03:30.024Z</time></trkpt><trkpt lat="38.5694733" lon="22.3972036"><ele>675.0</ele><time>2026-04-28T13:03:31.024Z</time></trkpt><trkpt lat="38.5693742" lon="22.397387"><ele>674.0</ele><time>2026-04-28T13:03:32.024Z</time></trkpt><trkpt lat="38.5692673" lon="22.3975691"><ele>674.0</ele><time>2026-04-28T13:03:33.025Z</time></trkpt><trkpt lat="38.5691354" lon="22.3977311"><ele>674.0</ele><time>2026-04-28T13:03:34.024Z</time></trkpt><trkpt lat="38.5689846" lon="22.397878"><ele>674.0</ele><time>2026-04-28T13:03:35.024Z</time></trkpt><trkpt lat="38.5688025" lon="22.3980177"><ele>670.5</ele><time>2026-04-28T13:03:36.025Z</time></trkpt><trkpt lat="38.5686061" lon="22.3981469"><ele>667.0</ele><time>2026-04-28T13:03:37.025Z</time></trkpt><trkpt lat="38.5684038" lon="22.3982839"><ele>667.0</ele><time>2026-04-28T13:03:38.025Z</time></trkpt><trkpt lat="38.5681995" lon="22.3984251"><ele>667.0</ele><time>2026-04-28T13:03:39.024Z</time></trkpt><trkpt lat="38.5679956" lon="22.398562"><ele>658.5</ele><time>2026-04-28T13:03:40.025Z</time></trkpt><trkpt lat="38.5677886" lon="22.398694"><ele>650.0</ele><time>2026-04-28T13:03:41.023Z</time></trkpt><trkpt lat="38.5675878" lon="22.3988097"><ele>649.0</ele><time>2026-04-28T13:03:42.025Z</time></trkpt><trkpt lat="38.5673884" lon="22.3989175"><ele>648.0</ele><time>2026-04-28T13:03:43.024Z</time></trkpt><trkpt lat="38.5671952" lon="22.3990145"><ele>647.0</ele><time>2026-04-28T13:03:44.024Z</time></trkpt><trkpt lat="38.5670042" lon="22.3991041"><ele>647.0</ele><time>2026-04-28T13:03:45.025Z</time></trkpt><trkpt lat="38.5668286" lon="22.3992006"><ele>647.0</ele><time>2026-04-28T13:03:46.024Z</time></trkpt><trkpt lat="38.5666701" lon="22.3992959"><ele>647.0</ele><time>2026-04-28T13:03:47.025Z</time></trkpt><trkpt lat="38.5665211" lon="22.3993949"><ele>647.0</ele><time>2026-04-28T13:03:48.025Z</time></trkpt><trkpt lat="38.566389" lon="22.3995159"><ele>647.0</ele><time>2026-04-28T13:03:49.024Z</time></trkpt><trkpt lat="38.5662672" lon="22.3996639"><ele>647.0</ele><time>2026-04-28T13:03:50.024Z</time></trkpt><trkpt lat="38.5661653" lon="22.3998215"><ele>644.6666666666666</ele><time>2026-04-28T13:03:51.024Z</time></trkpt><trkpt lat="38.5660831" lon="22.4000039"><ele>642.3333333333334</ele><time>2026-04-28T13:03:52.024Z</time></trkpt><trkpt lat="38.5660209" lon="22.4002018"><ele>640.0</ele><time>2026-04-28T13:03:53.025Z</time></trkpt><trkpt lat="38.5659732" lon="22.4004057"><ele>642.6666666666667</ele><time>2026-04-28T13:03:54.024Z</time></trkpt><trkpt lat="38.5659221" lon="22.4006166"><ele>645.3333333333334</ele><time>2026-04-28T13:03:55.024Z</time></trkpt><trkpt lat="38.5658487" lon="22.4008094"><ele>648.0</ele><time>2026-04-28T13:03:56.024Z</time></trkpt><trkpt lat="38.5657488" lon="22.4009838"><ele>648.0</ele><time>2026-04-28T13:03:57.024Z</time></trkpt><trkpt lat="38.5656199" lon="22.4011465"><ele>648.0</ele><time>2026-04-28T13:03:58.024Z</time></trkpt><trkpt lat="38.5654788" lon="22.4013116"><ele>648.0</ele><time>2026-04-28T13:03:59.025Z</time></trkpt><trkpt lat="38.565295" lon="22.401428"><ele>644.6666666666666</ele><time>2026-04-28T13:04:00.025Z</time></trkpt><trkpt lat="38.5651261" lon="22.4015759"><ele>641.3333333333333</ele><time>2026-04-28T13:04:01.024Z</time></trkpt><trkpt lat="38.5649537" lon="22.4017204"><ele>638.0</ele><time>2026-04-28T13:04:02.025Z</time></trkpt><trkpt lat="38.564773" lon="22.4018659"><ele>638.0</ele><time>2026-04-28T13:04:03.024Z</time></trkpt><trkpt lat="38.5645922" lon="22.402011"><ele>638.0</ele><time>2026-04-28T13:04:04.025Z</time></trkpt><trkpt lat="38.564414" lon="22.4021597"><ele>638.0</ele><time>2026-04-28T13:04:05.025Z</time></trkpt><trkpt lat="38.5642379" lon="22.4023099"><ele>637.0</ele><time>2026-04-28T13:04:06.024Z</time></trkpt><trkpt lat="38.5640638" lon="22.4024558"><ele>636.0</ele><time>2026-04-28T13:04:07.024Z</time></trkpt><trkpt lat="38.563896" lon="22.4025932"><ele>635.0</ele><time>2026-04-28T13:04:08.025Z</time></trkpt><trkpt lat="38.5637287" lon="22.4027141"><ele>637.3333333333333</ele><time>2026-04-28T13:04:09.025Z</time></trkpt><trkpt lat="38.5635554" lon="22.4028169"><ele>639.6666666666666</ele><time>2026-04-28T13:04:10.024Z</time></trkpt><trkpt lat="38.5633843" lon="22.402905"><ele>642.0</ele><time>2026-04-28T13:04:11.024Z</time></trkpt><trkpt lat="38.5632169" lon="22.4029976"><ele>642.0</ele><time>2026-04-28T13:04:12.024Z</time></trkpt><trkpt lat="38.5630575" lon="22.4031086"><ele>642.0</ele><time>2026-04-28T13:04:13.025Z</time></trkpt><trkpt lat="38.562898" lon="22.4032513"><ele>642.0</ele><time>2026-04-28T13:04:14.023Z</time></trkpt><trkpt lat="38.5627431" lon="22.4034146"><ele>642.3333333333334</ele><time>2026-04-28T13:04:15.024Z</time></trkpt><trkpt lat="38.5625906" lon="22.4035893"><ele>642.6666666666667</ele><time>2026-04-28T13:04:16.024Z</time></trkpt><trkpt lat="38.5624339" lon="22.4037701"><ele>643.0</ele><time>2026-04-28T13:04:17.024Z</time></trkpt><trkpt lat="38.5622735" lon="22.4039434"><ele>643.0</ele><time>2026-04-28T13:04:18.024Z</time></trkpt><trkpt lat="38.5621143" lon="22.4041028"><ele>643.0</ele><time>2026-04-28T13:04:19.024Z</time></trkpt><trkpt lat="38.5619515" lon="22.4042405"><ele>643.0</ele><time>2026-04-28T13:04:20.025Z</time></trkpt><trkpt lat="38.5617721" lon="22.404356"><ele>642.0</ele><time>2026-04-28T13:04:21.024Z</time></trkpt><trkpt lat="38.5615883" lon="22.4044683"><ele>641.0</ele><time>2026-04-28T13:04:22.024Z</time></trkpt><trkpt lat="38.5613986" lon="22.4045899"><ele>640.0</ele><time>2026-04-28T13:04:23.023Z</time></trkpt><trkpt lat="38.5612035" lon="22.4047263"><ele>626.0</ele><time>2026-04-28T13:04:24.024Z</time></trkpt><trkpt lat="38.5610097" lon="22.4048847"><ele>612.0</ele><time>2026-04-28T13:04:25.025Z</time></trkpt><trkpt lat="38.5608172" lon="22.4050622"><ele>612.0</ele><time>2026-04-28T13:04:26.025Z</time></trkpt><trkpt lat="38.5606347" lon="22.4052384"><ele>612.0</ele><time>2026-04-28T13:04:27.024Z</time></trkpt><trkpt lat="38.5604563" lon="22.4054021"><ele>612.0</ele><time>2026-04-28T13:04:28.024Z</time></trkpt><trkpt lat="38.5602922" lon="22.4055476"><ele>614.3333333333334</ele><time>2026-04-28T13:04:29.023Z</time></trkpt><trkpt lat="38.5601428" lon="22.4056787"><ele>616.6666666666667</ele><time>2026-04-28T13:04:30.024Z</time></trkpt><trkpt lat="38.5600143" lon="22.4057831"><ele>619.0</ele><time>2026-04-28T13:04:31.024Z</time></trkpt><trkpt lat="38.5599017" lon="22.4058661"><ele>619.0</ele><time>2026-04-28T13:04:32.024Z</time></trkpt><trkpt lat="38.5598039" lon="22.4059308"><ele>619.0</ele><time>2026-04-28T13:04:33.024Z</time></trkpt><trkpt lat="38.5597056" lon="22.4059619"><ele>619.0</ele><time>2026-04-28T13:04:34.024Z</time></trkpt><trkpt lat="38.5596216" lon="22.4059739"><ele>619.0</ele><time>2026-04-28T13:04:35.023Z</time></trkpt><trkpt lat="38.5595477" lon="22.4059266"><ele>619.0</ele><time>2026-04-28T13:04:36.023Z</time></trkpt><trkpt lat="38.5595082" lon="22.4058272"><ele>619.0</ele><time>2026-04-28T13:04:37.024Z</time></trkpt><trkpt lat="38.559524" lon="22.4057054"><ele>619.0</ele><time>2026-04-28T13:04:38.025Z</time></trkpt><trkpt lat="38.5595819" lon="22.4055907"><ele>619.0</ele><time>2026-04-28T13:04:39.024Z</time></trkpt><trkpt lat="38.5596465" lon="22.405477"><ele>619.0</ele><time>2026-04-28T13:04:40.024Z</time></trkpt><trkpt lat="38.559786" lon="22.4053915"><ele>608.3333333333334</ele><time>2026-04-28T13:04:41.024Z</time></trkpt><trkpt lat="38.5599822" lon="22.405336"><ele>597.6666666666666</ele><time>2026-04-28T13:04:42.023Z</time></trkpt><trkpt lat="38.5601366" lon="22.4052492"><ele>587.0</ele><time>2026-04-28T13:04:43.024Z</time></trkpt><trkpt lat="38.5602878" lon="22.4051442"><ele>595.3333333333333</ele><time>2026-04-28T13:04:44.024Z</time></trkpt><trkpt lat="38.560423" lon="22.4050156"><ele>603.6666666666666</ele><time>2026-04-28T13:04:45.023Z</time></trkpt><trkpt lat="38.5605437" lon="22.4048675"><ele>612.0</ele><time>2026-04-28T13:04:46.025Z</time></trkpt><trkpt lat="38.5606586" lon="22.4047067"><ele>603.3333333333334</ele><time>2026-04-28T13:04:47.024Z</time></trkpt><trkpt lat="38.5607672" lon="22.4045456"><ele>594.6666666666667</ele><time>2026-04-28T13:04:48.023Z</time></trkpt><trkpt lat="38.5608797" lon="22.4044014"><ele>586.0</ele><time>2026-04-28T13:04:49.024Z</time></trkpt><trkpt lat="38.5609887" lon="22.404257"><ele>586.0</ele><time>2026-04-28T13:04:50.024Z</time></trkpt><trkpt lat="38.5611105" lon="22.4041269"><ele>586.0</ele><time>2026-04-28T13:04:51.025Z</time></trkpt><trkpt lat="38.561248" lon="22.4040071"><ele>586.0</ele><time>2026-04-28T13:04:52.025Z</time></trkpt><trkpt lat="38.5613892" lon="22.4038974"><ele>585.0</ele><time>2026-04-28T13:04:53.024Z</time></trkpt><trkpt lat="38.5615347" lon="22.4037852"><ele>584.0</ele><time>2026-04-28T13:04:54.024Z</time></trkpt><trkpt lat="38.5616688" lon="22.4036822"><ele>583.0</ele><time>2026-04-28T13:04:55.024Z</time></trkpt><trkpt lat="38.5617952" lon="22.403571"><ele>583.0</ele><time>2026-04-28T13:04:56.024Z</time></trkpt><trkpt lat="38.5619057" lon="22.4034438"><ele>583.0</ele><time>2026-04-28T13:04:57.023Z</time></trkpt><trkpt lat="38.5619997" lon="22.4032924"><ele>583.0</ele><time>2026-04-28T13:04:58.023Z</time></trkpt><trkpt lat="38.5620783" lon="22.4031302"><ele>583.0</ele><time>2026-04-28T13:04:59.023Z</time></trkpt><trkpt lat="38.5621565" lon="22.4029568"><ele>584.0</ele><time>2026-04-28T13:05:00.025Z</time></trkpt><trkpt lat="38.5622304" lon="22.4027875"><ele>585.0</ele><time>2026-04-28T13:05:01.024Z</time></trkpt><trkpt lat="38.5623063" lon="22.4026315"><ele>586.0</ele><time>2026-04-28T13:05:02.024Z</time></trkpt><trkpt lat="38.5623853" lon="22.4024841"><ele>587.0</ele><time>2026-04-28T13:05:03.025Z</time></trkpt><trkpt lat="38.5624709" lon="22.4023538"><ele>587.0</ele><time>2026-04-28T13:05:04.025Z</time></trkpt><trkpt lat="38.5625571" lon="22.4022461"><ele>587.0</ele><time>2026-04-28T13:05:05.024Z</time></trkpt><trkpt lat="38.5626645" lon="22.4021439"><ele>587.0</ele><time>2026-04-28T13:05:06.025Z</time></trkpt><trkpt lat="38.5627678" lon="22.4020537"><ele>587.0</ele><time>2026-04-28T13:05:07.024Z</time></trkpt><trkpt lat="38.5628577" lon="22.4019828"><ele>587.1666666666666</ele><time>2026-04-28T13:05:08.024Z</time></trkpt><trkpt lat="38.56294" lon="22.4019244"><ele>587.3333333333333</ele><time>2026-04-28T13:05:09.024Z</time></trkpt><trkpt lat="38.5630209" lon="22.4018634"><ele>587.5</ele><time>2026-04-28T13:05:10.025Z</time></trkpt><trkpt lat="38.5630969" lon="22.4018085"><ele>587.6666666666666</ele><time>2026-04-28T13:05:11.024Z</time></trkpt><trkpt lat="38.5631629" lon="22.4017525"><ele>587.8333333333334</ele><time>2026-04-28T13:05:12.025Z</time></trkpt><trkpt lat="38.5632307" lon="22.4017034"><ele>588.0</ele><time>2026-04-28T13:05:13.023Z</time></trkpt><trkpt lat="38.563283" lon="22.401651"><ele>588.0</ele><time>2026-04-28T13:05:14.023Z</time></trkpt><trkpt lat="38.5633522" lon="22.4015483"><ele>588.0</ele><time>2026-04-28T13:05:16.025Z</time></trkpt><trkpt lat="38.5633863" lon="22.4014313"><ele>588.0</ele><time>2026-04-28T13:05:18.025Z</time></trkpt><trkpt lat="38.5633767" lon="22.4013084"><ele>588.0</ele><time>2026-04-28T13:05:20.024Z</time></trkpt><trkpt lat="38.5633107" lon="22.4012043"><ele>588.0</ele><time>2026-04-28T13:05:22.024Z</time></trkpt><trkpt lat="38.5631823" lon="22.4011574"><ele>588.0</ele><time>2026-04-28T13:05:24.023Z</time></trkpt><trkpt lat="38.5630974" lon="22.4011932"><ele>588.0</ele><time>2026-04-28T13:05:25.025Z</time></trkpt><trkpt lat="38.5629992" lon="22.4012686"><ele>588.0</ele><time>2026-04-28T13:05:26.024Z</time></trkpt><trkpt lat="38.5628868" lon="22.4013883"><ele>588.0</ele><time>2026-04-28T13:05:27.024Z</time></trkpt><trkpt lat="38.5627638" lon="22.401529"><ele>580.6666666666666</ele><time>2026-04-28T13:05:28.023Z</time></trkpt><trkpt lat="38.5626313" lon="22.401667"><ele>573.3333333333333</ele><time>2026-04-28T13:05:29.024Z</time></trkpt><trkpt lat="38.5624877" lon="22.4018081"><ele>566.0</ele><time>2026-04-28T13:05:30.023Z</time></trkpt><trkpt lat="38.5623383" lon="22.4019569"><ele>566.0</ele><time>2026-04-28T13:05:31.024Z</time></trkpt><trkpt lat="38.5621997" lon="22.4021137"><ele>566.0</ele><time>2026-04-28T13:05:32.023Z</time></trkpt><trkpt lat="38.5620619" lon="22.4022793"><ele>566.0</ele><time>2026-04-28T13:05:33.024Z</time></trkpt><trkpt lat="38.5619234" lon="22.4024438"><ele>562.6666666666666</ele><time>2026-04-28T13:05:34.023Z</time></trkpt><trkpt lat="38.5617855" lon="22.4026061"><ele>559.3333333333334</ele><time>2026-04-28T13:05:35.024Z</time></trkpt><trkpt lat="38.5616425" lon="22.402758"><ele>556.0</ele><time>2026-04-28T13:05:36.023Z</time></trkpt><trkpt lat="38.561489" lon="22.4028944"><ele>556.3333333333334</ele><time>2026-04-28T13:05:37.023Z</time></trkpt><trkpt lat="38.5613227" lon="22.4030223"><ele>556.6666666666666</ele><time>2026-04-28T13:05:38.024Z</time></trkpt><trkpt lat="38.5611462" lon="22.4031477"><ele>557.0</ele><time>2026-04-28T13:05:39.024Z</time></trkpt><trkpt lat="38.5609662" lon="22.4032708"><ele>557.0</ele><time>2026-04-28T13:05:40.022Z</time></trkpt><trkpt lat="38.5607845" lon="22.4033947"><ele>557.0</ele><time>2026-04-28T13:05:41.024Z</time></trkpt><trkpt lat="38.5605934" lon="22.4035195"><ele>557.0</ele><time>2026-04-28T13:05:42.024Z</time></trkpt><trkpt lat="38.560388" lon="22.4036505"><ele>558.5</ele><time>2026-04-28T13:05:43.024Z</time></trkpt><trkpt lat="38.5601713" lon="22.403813"><ele>560.0</ele><time>2026-04-28T13:05:44.023Z</time></trkpt><trkpt lat="38.559934" lon="22.4040073"><ele>560.0</ele><time>2026-04-28T13:05:45.024Z</time></trkpt><trkpt lat="38.5596839" lon="22.4042194"><ele>560.0</ele><time>2026-04-28T13:05:46.023Z</time></trkpt><trkpt lat="38.5594229" lon="22.4044376"><ele>558.0</ele><time>2026-04-28T13:05:47.024Z</time></trkpt><trkpt lat="38.5591691" lon="22.4046467"><ele>556.0</ele><time>2026-04-28T13:05:48.023Z</time></trkpt><trkpt lat="38.5589267" lon="22.4048422"><ele>542.0</ele><time>2026-04-28T13:05:49.022Z</time></trkpt><trkpt lat="38.5586952" lon="22.405027"><ele>528.0</ele><time>2026-04-28T13:05:50.022Z</time></trkpt><trkpt lat="38.5584763" lon="22.4051988"><ele>528.0</ele><time>2026-04-28T13:05:51.023Z</time></trkpt><trkpt lat="38.5582794" lon="22.4053694"><ele>528.0</ele><time>2026-04-28T13:05:52.023Z</time></trkpt><trkpt lat="38.5580982" lon="22.4055252"><ele>529.3333333333334</ele><time>2026-04-28T13:05:53.024Z</time></trkpt><trkpt lat="38.5579286" lon="22.4056723"><ele>530.6666666666667</ele><time>2026-04-28T13:05:54.023Z</time></trkpt><trkpt lat="38.5577684" lon="22.4058103"><ele>532.0</ele><time>2026-04-28T13:05:55.022Z</time></trkpt><trkpt lat="38.5576301" lon="22.4059463"><ele>532.0</ele><time>2026-04-28T13:05:56.022Z</time></trkpt><trkpt lat="38.5575191" lon="22.4060828"><ele>532.0</ele><time>2026-04-28T13:05:57.022Z</time></trkpt><trkpt lat="38.5574222" lon="22.4061985"><ele>532.0</ele><time>2026-04-28T13:05:58.022Z</time></trkpt><trkpt lat="38.5573407" lon="22.406309"><ele>532.0</ele><time>2026-04-28T13:05:59.024Z</time></trkpt><trkpt lat="38.557266" lon="22.4063918"><ele>533.0</ele><time>2026-04-28T13:06:00.023Z</time></trkpt><trkpt lat="38.5571868" lon="22.4064395"><ele>534.0</ele><time>2026-04-28T13:06:01.022Z</time></trkpt><trkpt lat="38.5571134" lon="22.406469"><ele>535.0</ele><time>2026-04-28T13:06:02.023Z</time></trkpt><trkpt lat="38.5570054" lon="22.4063724"><ele>536.0</ele><time>2026-04-28T13:06:04.022Z</time></trkpt><trkpt lat="38.5569895" lon="22.4062705"><ele>537.0</ele><time>2026-04-28T13:06:05.022Z</time></trkpt><trkpt lat="38.5569998" lon="22.406161"><ele>535.3333333333334</ele><time>2026-04-28T13:06:06.024Z</time></trkpt><trkpt lat="38.5572046" lon="22.4059426"><ele>533.6666666666667</ele><time>2026-04-28T13:06:07.023Z</time></trkpt><trkpt lat="38.5573111" lon="22.405771"><ele>532.0</ele><time>2026-04-28T13:06:08.022Z</time></trkpt><trkpt lat="38.5574226" lon="22.4055919"><ele>527.3333333333334</ele><time>2026-04-28T13:06:09.023Z</time></trkpt><trkpt lat="38.5575257" lon="22.4054285"><ele>522.6666666666666</ele><time>2026-04-28T13:06:10.023Z</time></trkpt><trkpt lat="38.5576371" lon="22.4052609"><ele>518.0</ele><time>2026-04-28T13:06:11.023Z</time></trkpt><trkpt lat="38.5577511" lon="22.4050996"><ele>518.0</ele><time>2026-04-28T13:06:12.022Z</time></trkpt><trkpt lat="38.5578647" lon="22.4049599"><ele>518.0</ele><time>2026-04-28T13:06:13.023Z</time></trkpt><trkpt lat="38.5579882" lon="22.4048391"><ele>518.0</ele><time>2026-04-28T13:06:14.023Z</time></trkpt><trkpt lat="38.558115" lon="22.4047514"><ele>516.0</ele><time>2026-04-28T13:06:15.023Z</time></trkpt><trkpt lat="38.558244" lon="22.4046821"><ele>514.0</ele><time>2026-04-28T13:06:16.024Z</time></trkpt><trkpt lat="38.5583631" lon="22.4046208"><ele>512.0</ele><time>2026-04-28T13:06:17.023Z</time></trkpt><trkpt lat="38.5584583" lon="22.4045175"><ele>510.0</ele><time>2026-04-28T13:06:18.022Z</time></trkpt><trkpt lat="38.5585427" lon="22.4043976"><ele>510.0</ele><time>2026-04-28T13:06:19.022Z</time></trkpt><trkpt lat="38.5585988" lon="22.4042408"><ele>510.0</ele><time>2026-04-28T13:06:20.022Z</time></trkpt><trkpt lat="38.5586624" lon="22.4040843"><ele>510.0</ele><time>2026-04-28T13:06:21.023Z</time></trkpt><trkpt lat="38.5587273" lon="22.4039272"><ele>510.0</ele><time>2026-04-28T13:06:22.023Z</time></trkpt><trkpt lat="38.5587983" lon="22.40377"><ele>511.0</ele><time>2026-04-28T13:06:23.023Z</time></trkpt><trkpt lat="38.5589879" lon="22.4036631"><ele>512.0</ele><time>2026-04-28T13:06:24.023Z</time></trkpt><trkpt lat="38.5591459" lon="22.4035571"><ele>513.0</ele><time>2026-04-28T13:06:25.022Z</time></trkpt><trkpt lat="38.5593024" lon="22.4034344"><ele>513.0</ele><time>2026-04-28T13:06:26.023Z</time></trkpt><trkpt lat="38.5594603" lon="22.4032892"><ele>513.0</ele><time>2026-04-28T13:06:27.022Z</time></trkpt><trkpt lat="38.559609" lon="22.4031506"><ele>513.0</ele><time>2026-04-28T13:06:28.023Z</time></trkpt><trkpt lat="38.5597451" lon="22.4030125"><ele>511.25</ele><time>2026-04-28T13:06:29.023Z</time></trkpt><trkpt lat="38.5598853" lon="22.4029074"><ele>509.5</ele><time>2026-04-28T13:06:30.022Z</time></trkpt><trkpt lat="38.560012" lon="22.4028184"><ele>507.75</ele><time>2026-04-28T13:06:31.023Z</time></trkpt><trkpt lat="38.560125" lon="22.4027254"><ele>506.0</ele><time>2026-04-28T13:06:32.024Z</time></trkpt><trkpt lat="38.5602345" lon="22.4026441"><ele>506.0</ele><time>2026-04-28T13:06:33.023Z</time></trkpt><trkpt lat="38.5603293" lon="22.4025557"><ele>506.0</ele><time>2026-04-28T13:06:34.024Z</time></trkpt><trkpt lat="38.5603988" lon="22.4024622"><ele>506.0</ele><time>2026-04-28T13:06:35.023Z</time></trkpt><trkpt lat="38.5604321" lon="22.4023599"><ele>506.0</ele><time>2026-04-28T13:06:36.024Z</time></trkpt><trkpt lat="38.5604287" lon="22.4022584"><ele>506.0</ele><time>2026-04-28T13:06:37.024Z</time></trkpt><trkpt lat="38.56039" lon="22.4021635"><ele>506.0</ele><time>2026-04-28T13:06:38.023Z</time></trkpt><trkpt lat="38.5603105" lon="22.4021019"><ele>506.0</ele><time>2026-04-28T13:06:39.024Z</time></trkpt><trkpt lat="38.56021" lon="22.4020813"><ele>506.0</ele><time>2026-04-28T13:06:40.024Z</time></trkpt><trkpt lat="38.5601068" lon="22.402129"><ele>506.0</ele><time>2026-04-28T13:06:41.022Z</time></trkpt><trkpt lat="38.5599992" lon="22.4022319"><ele>506.0</ele><time>2026-04-28T13:06:42.022Z</time></trkpt><trkpt lat="38.5598862" lon="22.4023744"><ele>506.0</ele><time>2026-04-28T13:06:43.022Z</time></trkpt><trkpt lat="38.5597706" lon="22.4025224"><ele>506.0</ele><time>2026-04-28T13:06:44.022Z</time></trkpt><trkpt lat="38.5596451" lon="22.4026776"><ele>506.0</ele><time>2026-04-28T13:06:45.024Z</time></trkpt><trkpt lat="38.5595178" lon="22.4028347"><ele>508.3333333333333</ele><time>2026-04-28T13:06:46.023Z</time></trkpt><trkpt lat="38.5593862" lon="22.4029774"><ele>510.66666666666663</ele><time>2026-04-28T13:06:47.024Z</time></trkpt><trkpt lat="38.5592485" lon="22.4031043"><ele>513.0</ele><time>2026-04-28T13:06:48.022Z</time></trkpt><trkpt lat="38.5591056" lon="22.4032124"><ele>513.0</ele><time>2026-04-28T13:06:49.024Z</time></trkpt><trkpt lat="38.558953" lon="22.4032939"><ele>513.0</ele><time>2026-04-28T13:06:50.023Z</time></trkpt><trkpt lat="38.5587972" lon="22.4033882"><ele>513.0</ele><time>2026-04-28T13:06:51.023Z</time></trkpt><trkpt lat="38.5586432" lon="22.4034784"><ele>512.0</ele><time>2026-04-28T13:06:52.023Z</time></trkpt><trkpt lat="38.5585089" lon="22.4035983"><ele>511.0</ele><time>2026-04-28T13:06:53.024Z</time></trkpt><trkpt lat="38.558401" lon="22.4037444"><ele>510.0</ele><time>2026-04-28T13:06:54.024Z</time></trkpt><trkpt lat="38.5582928" lon="22.4038845"><ele>510.0</ele><time>2026-04-28T13:06:55.022Z</time></trkpt><trkpt lat="38.5581901" lon="22.4040193"><ele>510.0</ele><time>2026-04-28T13:06:56.023Z</time></trkpt><trkpt lat="38.5580835" lon="22.4040997"><ele>510.0</ele><time>2026-04-28T13:06:57.022Z</time></trkpt><trkpt lat="38.5579022" lon="22.4040621"><ele>505.0</ele><time>2026-04-28T13:06:58.023Z</time></trkpt><trkpt lat="38.5577469" lon="22.4040882"><ele>500.0</ele><time>2026-04-28T13:06:59.023Z</time></trkpt><trkpt lat="38.5575759" lon="22.4041499"><ele>495.0</ele><time>2026-04-28T13:07:00.023Z</time></trkpt><trkpt lat="38.5574071" lon="22.4042381"><ele>495.0</ele><time>2026-04-28T13:07:01.024Z</time></trkpt><trkpt lat="38.5572422" lon="22.404337"><ele>495.0</ele><time>2026-04-28T13:07:02.023Z</time></trkpt><trkpt lat="38.5570883" lon="22.4044546"><ele>495.0</ele><time>2026-04-28T13:07:03.023Z</time></trkpt><trkpt lat="38.5569366" lon="22.4045802"><ele>492.66666666666663</ele><time>2026-04-28T13:07:04.024Z</time></trkpt><trkpt lat="38.5567907" lon="22.4047067"><ele>490.3333333333333</ele><time>2026-04-28T13:07:05.024Z</time></trkpt><trkpt lat="38.5566525" lon="22.4048356"><ele>488.0</ele><time>2026-04-28T13:07:06.024Z</time></trkpt><trkpt lat="38.5565155" lon="22.4049643"><ele>488.0</ele><time>2026-04-28T13:07:07.023Z</time></trkpt><trkpt lat="38.556379" lon="22.4050946"><ele>488.0</ele><time>2026-04-28T13:07:08.023Z</time></trkpt><trkpt lat="38.5562381" lon="22.4052286"><ele>488.0</ele><time>2026-04-28T13:07:09.024Z</time></trkpt><trkpt lat="38.5560942" lon="22.4053622"><ele>487.0</ele><time>2026-04-28T13:07:10.024Z</time></trkpt><trkpt lat="38.5559575" lon="22.4055217"><ele>486.0</ele><time>2026-04-28T13:07:11.022Z</time></trkpt><trkpt lat="38.5558232" lon="22.4056979"><ele>485.0</ele><time>2026-04-28T13:07:12.024Z</time></trkpt><trkpt lat="38.5556885" lon="22.4058851"><ele>485.0</ele><time>2026-04-28T13:07:13.023Z</time></trkpt><trkpt lat="38.5555587" lon="22.4060743"><ele>485.0</ele><time>2026-04-28T13:07:14.023Z</time></trkpt><trkpt lat="38.5554242" lon="22.406262"><ele>485.0</ele><time>2026-04-28T13:07:15.023Z</time></trkpt><trkpt lat="38.555291" lon="22.4064508"><ele>481.66666666666663</ele><time>2026-04-28T13:07:16.023Z</time></trkpt><trkpt lat="38.5551615" lon="22.40663"><ele>478.33333333333337</ele><time>2026-04-28T13:07:17.024Z</time></trkpt><trkpt lat="38.5550312" lon="22.4068046"><ele>475.0</ele><time>2026-04-28T13:07:18.022Z</time></trkpt><trkpt lat="38.5549043" lon="22.4069769"><ele>475.0</ele><time>2026-04-28T13:07:19.022Z</time></trkpt><trkpt lat="38.554763" lon="22.4071154"><ele>475.0</ele><time>2026-04-28T13:07:20.022Z</time></trkpt><trkpt lat="38.5546228" lon="22.4072512"><ele>475.0</ele><time>2026-04-28T13:07:21.022Z</time></trkpt><trkpt lat="38.5544822" lon="22.4073717"><ele>471.33333333333337</ele><time>2026-04-28T13:07:22.022Z</time></trkpt><trkpt lat="38.554357" lon="22.4075067"><ele>467.66666666666663</ele><time>2026-04-28T13:07:23.023Z</time></trkpt><trkpt lat="38.5542463" lon="22.4076636"><ele>464.0</ele><time>2026-04-28T13:07:24.024Z</time></trkpt><trkpt lat="38.5541383" lon="22.4078409"><ele>468.66666666666663</ele><time>2026-04-28T13:07:25.023Z</time></trkpt><trkpt lat="38.5540334" lon="22.4080269"><ele>473.33333333333337</ele><time>2026-04-28T13:07:26.022Z</time></trkpt><trkpt lat="38.5539339" lon="22.4082218"><ele>478.0</ele><time>2026-04-28T13:07:27.023Z</time></trkpt><trkpt lat="38.5538347" lon="22.4084046"><ele>478.0</ele><time>2026-04-28T13:07:28.023Z</time></trkpt><trkpt lat="38.5537361" lon="22.4085858"><ele>478.0</ele><time>2026-04-28T13:07:29.024Z</time></trkpt><trkpt lat="38.5536399" lon="22.4087668"><ele>478.0</ele><time>2026-04-28T13:07:30.024Z</time></trkpt><trkpt lat="38.5535437" lon="22.4089595"><ele>471.0</ele><time>2026-04-28T13:07:31.023Z</time></trkpt><trkpt lat="38.5534592" lon="22.4091628"><ele>464.0</ele><time>2026-04-28T13:07:32.022Z</time></trkpt><trkpt lat="38.5533745" lon="22.4093804"><ele>457.0</ele><time>2026-04-28T13:07:33.022Z</time></trkpt><trkpt lat="38.5532869" lon="22.4096015"><ele>460.33333333333337</ele><time>2026-04-28T13:07:34.024Z</time></trkpt><trkpt lat="38.5531969" lon="22.4098261"><ele>463.66666666666663</ele><time>2026-04-28T13:07:35.023Z</time></trkpt><trkpt lat="38.5531107" lon="22.4100531"><ele>467.0</ele><time>2026-04-28T13:07:36.023Z</time></trkpt><trkpt lat="38.5530266" lon="22.4102632"><ele>467.0</ele><time>2026-04-28T13:07:37.023Z</time></trkpt><trkpt lat="38.5529466" lon="22.4104711"><ele>467.0</ele><time>2026-04-28T13:07:38.023Z</time></trkpt><trkpt lat="38.5528699" lon="22.4106612"><ele>467.0</ele><time>2026-04-28T13:07:39.023Z</time></trkpt><trkpt lat="38.5527935" lon="22.4108553"><ele>458.66666666666663</ele><time>2026-04-28T13:07:40.023Z</time></trkpt><trkpt lat="38.5527272" lon="22.4110423"><ele>450.33333333333337</ele><time>2026-04-28T13:07:41.022Z</time></trkpt><trkpt lat="38.5526865" lon="22.4112581"><ele>442.0</ele><time>2026-04-28T13:07:42.023Z</time></trkpt><trkpt lat="38.5526676" lon="22.4114868"><ele>442.0</ele><time>2026-04-28T13:07:43.023Z</time></trkpt><trkpt lat="38.5526681" lon="22.4117312"><ele>442.0</ele><time>2026-04-28T13:07:44.024Z</time></trkpt><trkpt lat="38.5526819" lon="22.4119799"><ele>442.0</ele><time>2026-04-28T13:07:45.022Z</time></trkpt><trkpt lat="38.5527044" lon="22.4122337"><ele>438.0</ele><time>2026-04-28T13:07:46.023Z</time></trkpt><trkpt lat="38.5527345" lon="22.4124802"><ele>434.0</ele><time>2026-04-28T13:07:47.022Z</time></trkpt><trkpt lat="38.552775" lon="22.4127133"><ele>430.0</ele><time>2026-04-28T13:07:48.023Z</time></trkpt><trkpt lat="38.5528243" lon="22.4129331"><ele>426.33333333333337</ele><time>2026-04-28T13:07:49.023Z</time></trkpt><trkpt lat="38.5528697" lon="22.4131455"><ele>422.66666666666663</ele><time>2026-04-28T13:07:50.023Z</time></trkpt><trkpt lat="38.5528905" lon="22.4133616"><ele>419.0</ele><time>2026-04-28T13:07:51.022Z</time></trkpt><trkpt lat="38.5528793" lon="22.4135793"><ele>419.0</ele><time>2026-04-28T13:07:52.023Z</time></trkpt><trkpt lat="38.5528455" lon="22.4138077"><ele>419.0</ele><time>2026-04-28T13:07:53.023Z</time></trkpt><trkpt lat="38.5527871" lon="22.4140482"><ele>419.0</ele><time>2026-04-28T13:07:54.023Z</time></trkpt><trkpt lat="38.5527246" lon="22.4142904"><ele>419.3333333333333</ele><time>2026-04-28T13:07:55.023Z</time></trkpt><trkpt lat="38.5526648" lon="22.4145158"><ele>419.66666666666663</ele><time>2026-04-28T13:07:56.023Z</time></trkpt><trkpt lat="38.5526022" lon="22.41474"><ele>420.0</ele><time>2026-04-28T13:07:57.023Z</time></trkpt><trkpt lat="38.5525254" lon="22.4149524"><ele>423.66666666666663</ele><time>2026-04-28T13:07:58.023Z</time></trkpt><trkpt lat="38.5524352" lon="22.4151263"><ele>427.3333333333333</ele><time>2026-04-28T13:07:59.022Z</time></trkpt><trkpt lat="38.55232" lon="22.4152693"><ele>431.0</ele><time>2026-04-28T13:08:00.023Z</time></trkpt><trkpt lat="38.5521644" lon="22.4153932"><ele>429.3333333333333</ele><time>2026-04-28T13:08:01.023Z</time></trkpt><trkpt lat="38.5519906" lon="22.4155053"><ele>427.66666666666663</ele><time>2026-04-28T13:08:02.023Z</time></trkpt><trkpt lat="38.5518195" lon="22.4156029"><ele>426.0</ele><time>2026-04-28T13:08:03.023Z</time></trkpt><trkpt lat="38.5516521" lon="22.4156927"><ele>426.0</ele><time>2026-04-28T13:08:04.023Z</time></trkpt><trkpt lat="38.5514925" lon="22.4157841"><ele>426.0</ele><time>2026-04-28T13:08:05.024Z</time></trkpt><trkpt lat="38.5513403" lon="22.4158677"><ele>426.0</ele><time>2026-04-28T13:08:06.024Z</time></trkpt><trkpt lat="38.5511939" lon="22.4159678"><ele>425.25</ele><time>2026-04-28T13:08:07.023Z</time></trkpt><trkpt lat="38.5510693" lon="22.4160881"><ele>424.5</ele><time>2026-04-28T13:08:08.023Z</time></trkpt><trkpt lat="38.5509657" lon="22.416217"><ele>423.75</ele><time>2026-04-28T13:08:09.023Z</time></trkpt><trkpt lat="38.5508732" lon="22.4163474"><ele>423.0</ele><time>2026-04-28T13:08:10.022Z</time></trkpt><trkpt lat="38.5507939" lon="22.4164761"><ele>423.0</ele><time>2026-04-28T13:08:11.023Z</time></trkpt><trkpt lat="38.5507274" lon="22.4165876"><ele>423.0</ele><time>2026-04-28T13:08:12.023Z</time></trkpt><trkpt lat="38.5506764" lon="22.4166897"><ele>423.0</ele><time>2026-04-28T13:08:13.023Z</time></trkpt><trkpt lat="38.5506274" lon="22.4167807"><ele>423.0</ele><time>2026-04-28T13:08:14.023Z</time></trkpt><trkpt lat="38.5505752" lon="22.4168403"><ele>423.0</ele><time>2026-04-28T13:08:15.024Z</time></trkpt><trkpt lat="38.5504675" lon="22.4168651"><ele>423.0</ele><time>2026-04-28T13:08:17.024Z</time></trkpt><trkpt lat="38.5504016" lon="22.4167709"><ele>423.0</ele><time>2026-04-28T13:08:19.023Z</time></trkpt><trkpt lat="38.5503712" lon="22.4166666"><ele>423.0</ele><time>2026-04-28T13:08:21.024Z</time></trkpt><trkpt lat="38.5503739" lon="22.4165791"><ele>423.0</ele><time>2026-04-28T13:08:22.023Z</time></trkpt><trkpt lat="38.5504009" lon="22.4164687"><ele>423.0</ele><time>2026-04-28T13:08:23.022Z</time></trkpt><trkpt lat="38.5504893" lon="22.4163546"><ele>418.75</ele><time>2026-04-28T13:08:24.022Z</time></trkpt><trkpt lat="38.5505844" lon="22.4162215"><ele>414.5</ele><time>2026-04-28T13:08:25.023Z</time></trkpt><trkpt lat="38.5506749" lon="22.4161136"><ele>410.25</ele><time>2026-04-28T13:08:26.023Z</time></trkpt><trkpt lat="38.5507724" lon="22.4160195"><ele>406.0</ele><time>2026-04-28T13:08:27.024Z</time></trkpt><trkpt lat="38.5508621" lon="22.4159327"><ele>406.0</ele><time>2026-04-28T13:08:28.023Z</time></trkpt><trkpt lat="38.5509536" lon="22.415862"><ele>406.0</ele><time>2026-04-28T13:08:29.023Z</time></trkpt><trkpt lat="38.5510407" lon="22.4157923"><ele>406.0</ele><time>2026-04-28T13:08:30.024Z</time></trkpt><trkpt lat="38.5511301" lon="22.4157218"><ele>406.0</ele><time>2026-04-28T13:08:31.023Z</time></trkpt><trkpt lat="38.5512192" lon="22.4156515"><ele>406.0</ele><time>2026-04-28T13:08:32.024Z</time></trkpt><trkpt lat="38.551315" lon="22.4155777"><ele>404.20000000000005</ele><time>2026-04-28T13:08:33.023Z</time></trkpt><trkpt lat="38.5514142" lon="22.4155034"><ele>402.40000000000003</ele><time>2026-04-28T13:08:34.024Z</time></trkpt><trkpt lat="38.5515066" lon="22.415427"><ele>400.6</ele><time>2026-04-28T13:08:35.023Z</time></trkpt><trkpt lat="38.5515946" lon="22.4153493"><ele>398.8</ele><time>2026-04-28T13:08:36.023Z</time></trkpt><trkpt lat="38.5516818" lon="22.4152805"><ele>397.0</ele><time>2026-04-28T13:08:37.023Z</time></trkpt><trkpt lat="38.551765" lon="22.4152115"><ele>397.0</ele><time>2026-04-28T13:08:38.023Z</time></trkpt><trkpt lat="38.5518436" lon="22.4151403"><ele>397.0</ele><time>2026-04-28T13:08:39.023Z</time></trkpt><trkpt lat="38.551908" lon="22.4150625"><ele>397.0</ele><time>2026-04-28T13:08:40.024Z</time></trkpt><trkpt lat="38.5519606" lon="22.4149752"><ele>397.0</ele><time>2026-04-28T13:08:41.023Z</time></trkpt><trkpt lat="38.5519999" lon="22.4148702"><ele>397.0</ele><time>2026-04-28T13:08:42.023Z</time></trkpt><trkpt lat="38.55203" lon="22.4147518"><ele>401.6</ele><time>2026-04-28T13:08:43.023Z</time></trkpt><trkpt lat="38.5520522" lon="22.4146233"><ele>406.20000000000005</ele><time>2026-04-28T13:08:44.024Z</time></trkpt><trkpt lat="38.5520684" lon="22.4145042"><ele>410.8</ele><time>2026-04-28T13:08:45.022Z</time></trkpt><trkpt lat="38.5520841" lon="22.4143826"><ele>415.4</ele><time>2026-04-28T13:08:46.023Z</time></trkpt><trkpt lat="38.5520993" lon="22.4142607"><ele>420.0</ele><time>2026-04-28T13:08:47.023Z</time></trkpt><trkpt lat="38.5521168" lon="22.4141388"><ele>420.0</ele><time>2026-04-28T13:08:48.023Z</time></trkpt><trkpt lat="38.5521241" lon="22.4140175"><ele>420.0</ele><time>2026-04-28T13:08:49.022Z</time></trkpt><trkpt lat="38.5521219" lon="22.4138965"><ele>420.0</ele><time>2026-04-28T13:08:50.023Z</time></trkpt><trkpt lat="38.5521092" lon="22.4137709"><ele>420.0</ele><time>2026-04-28T13:08:51.024Z</time></trkpt><trkpt lat="38.5520845" lon="22.4136461"><ele>420.0</ele><time>2026-04-28T13:08:52.022Z</time></trkpt><trkpt lat="38.5520541" lon="22.4135241"><ele>416.0</ele><time>2026-04-28T13:08:53.024Z</time></trkpt><trkpt lat="38.552021" lon="22.4134054"><ele>412.0</ele><time>2026-04-28T13:08:54.024Z</time></trkpt><trkpt lat="38.551983" lon="22.4132886"><ele>408.0</ele><time>2026-04-28T13:08:55.023Z</time></trkpt><trkpt lat="38.5519449" lon="22.4131774"><ele>404.0</ele><time>2026-04-28T13:08:56.023Z</time></trkpt><trkpt lat="38.5519023" lon="22.4130688"><ele>400.0</ele><time>2026-04-28T13:08:57.024Z</time></trkpt><trkpt lat="38.5518374" lon="22.4129601"><ele>400.0</ele><time>2026-04-28T13:08:58.024Z</time></trkpt><trkpt lat="38.5517483" lon="22.4128556"><ele>400.0</ele><time>2026-04-28T13:08:59.024Z</time></trkpt><trkpt lat="38.5516612" lon="22.4127688"><ele>400.0</ele><time>2026-04-28T13:09:00.023Z</time></trkpt><trkpt lat="38.551569" lon="22.4126906"><ele>400.0</ele><time>2026-04-28T13:09:01.024Z</time></trkpt><trkpt lat="38.5514807" lon="22.4126174"><ele>400.0</ele><time>2026-04-28T13:09:02.023Z</time></trkpt><trkpt lat="38.5513767" lon="22.4125534"><ele>400.0</ele><time>2026-04-28T13:09:03.023Z</time></trkpt><trkpt lat="38.5512865" lon="22.4124853"><ele>400.0</ele><time>2026-04-28T13:09:04.023Z</time></trkpt><trkpt lat="38.5512065" lon="22.4124154"><ele>400.0</ele><time>2026-04-28T13:09:05.023Z</time></trkpt><trkpt lat="38.5511355" lon="22.4123419"><ele>400.0</ele><time>2026-04-28T13:09:06.023Z</time></trkpt><trkpt lat="38.5510643" lon="22.4122759"><ele>400.0</ele><time>2026-04-28T13:09:07.023Z</time></trkpt><trkpt lat="38.5509846" lon="22.412204"><ele>397.83333333333337</ele><time>2026-04-28T13:09:08.024Z</time></trkpt><trkpt lat="38.5509055" lon="22.4121355"><ele>395.6666666666667</ele><time>2026-04-28T13:09:09.022Z</time></trkpt><trkpt lat="38.5508361" lon="22.4120713"><ele>393.5</ele><time>2026-04-28T13:09:10.023Z</time></trkpt><trkpt lat="38.5507681" lon="22.4120004"><ele>391.33333333333337</ele><time>2026-04-28T13:09:11.022Z</time></trkpt><trkpt lat="38.5507016" lon="22.4119299"><ele>389.1666666666667</ele><time>2026-04-28T13:09:12.023Z</time></trkpt><trkpt lat="38.5506419" lon="22.4118556"><ele>387.0</ele><time>2026-04-28T13:09:13.022Z</time></trkpt><trkpt lat="38.5505857" lon="22.4117625"><ele>387.0</ele><time>2026-04-28T13:09:14.024Z</time></trkpt><trkpt lat="38.5505345" lon="22.4116654"><ele>387.0</ele><time>2026-04-28T13:09:15.023Z</time></trkpt><trkpt lat="38.5505018" lon="22.4115572"><ele>387.0</ele><time>2026-04-28T13:09:16.024Z</time></trkpt><trkpt lat="38.5504849" lon="22.4114339"><ele>387.0</ele><time>2026-04-28T13:09:17.024Z</time></trkpt><trkpt lat="38.5505057" lon="22.4113092"><ele>387.0</ele><time>2026-04-28T13:09:18.023Z</time></trkpt><trkpt lat="38.5505375" lon="22.4111855"><ele>385.75</ele><time>2026-04-28T13:09:19.023Z</time></trkpt><trkpt lat="38.5505798" lon="22.411062"><ele>384.5</ele><time>2026-04-28T13:09:20.023Z</time></trkpt><trkpt lat="38.5506307" lon="22.4109386"><ele>383.25</ele><time>2026-04-28T13:09:21.024Z</time></trkpt><trkpt lat="38.5507016" lon="22.4108187"><ele>382.0</ele><time>2026-04-28T13:09:22.024Z</time></trkpt><trkpt lat="38.5507952" lon="22.4107133"><ele>382.0</ele><time>2026-04-28T13:09:23.023Z</time></trkpt><trkpt lat="38.5509056" lon="22.4106141"><ele>382.0</ele><time>2026-04-28T13:09:24.022Z</time></trkpt><trkpt lat="38.5510215" lon="22.4104934"><ele>382.0</ele><time>2026-04-28T13:09:25.023Z</time></trkpt><trkpt lat="38.5511476" lon="22.4103377"><ele>383.0</ele><time>2026-04-28T13:09:26.024Z</time></trkpt><trkpt lat="38.5512639" lon="22.4101693"><ele>384.0</ele><time>2026-04-28T13:09:27.024Z</time></trkpt><trkpt lat="38.5513569" lon="22.4100002"><ele>385.0</ele><time>2026-04-28T13:09:28.024Z</time></trkpt><trkpt lat="38.551423" lon="22.4098296"><ele>383.0</ele><time>2026-04-28T13:09:29.024Z</time></trkpt><trkpt lat="38.5514401" lon="22.4096583"><ele>381.0</ele><time>2026-04-28T13:09:30.023Z</time></trkpt><trkpt lat="38.5514291" lon="22.4094592"><ele>379.0</ele><time>2026-04-28T13:09:31.022Z</time></trkpt><trkpt lat="38.5513999" lon="22.4092608"><ele>377.0</ele><time>2026-04-28T13:09:32.022Z</time></trkpt><trkpt lat="38.5513548" lon="22.4090684"><ele>377.0</ele><time>2026-04-28T13:09:33.022Z</time></trkpt><trkpt lat="38.5513084" lon="22.4088837"><ele>377.0</ele><time>2026-04-28T13:09:34.023Z</time></trkpt><trkpt lat="38.5512667" lon="22.4087085"><ele>377.0</ele><time>2026-04-28T13:09:35.022Z</time></trkpt><trkpt lat="38.5512259" lon="22.4085287"><ele>377.0</ele><time>2026-04-28T13:09:36.023Z</time></trkpt><trkpt lat="38.5511995" lon="22.4083375"><ele>375.6666666666667</ele><time>2026-04-28T13:09:37.023Z</time></trkpt><trkpt lat="38.5511844" lon="22.4081319"><ele>374.3333333333333</ele><time>2026-04-28T13:09:38.022Z</time></trkpt><trkpt lat="38.5511898" lon="22.4079243"><ele>373.0</ele><time>2026-04-28T13:09:39.022Z</time></trkpt><trkpt lat="38.5512323" lon="22.4077287"><ele>373.0</ele><time>2026-04-28T13:09:40.022Z</time></trkpt><trkpt lat="38.5512906" lon="22.4075554"><ele>373.0</ele><time>2026-04-28T13:09:41.022Z</time></trkpt><trkpt lat="38.5513448" lon="22.4073959"><ele>373.0</ele><time>2026-04-28T13:09:42.023Z</time></trkpt><trkpt lat="38.5513892" lon="22.4072456"><ele>373.0</ele><time>2026-04-28T13:09:43.024Z</time></trkpt><trkpt lat="38.551421" lon="22.4070863"><ele>371.5</ele><time>2026-04-28T13:09:44.024Z</time></trkpt><trkpt lat="38.5514099" lon="22.4069299"><ele>370.0</ele><time>2026-04-28T13:09:45.023Z</time></trkpt><trkpt lat="38.5513681" lon="22.406771"><ele>368.5</ele><time>2026-04-28T13:09:46.023Z</time></trkpt><trkpt lat="38.5513016" lon="22.4066391"><ele>367.0</ele><time>2026-04-28T13:09:47.023Z</time></trkpt><trkpt lat="38.5512016" lon="22.4065482"><ele>364.5</ele><time>2026-04-28T13:09:48.023Z</time></trkpt><trkpt lat="38.5510829" lon="22.4064955"><ele>362.0</ele><time>2026-04-28T13:09:49.024Z</time></trkpt><trkpt lat="38.5509484" lon="22.4064813"><ele>359.5</ele><time>2026-04-28T13:09:50.024Z</time></trkpt><trkpt lat="38.5508044" lon="22.4064929"><ele>357.0</ele><time>2026-04-28T13:09:51.024Z</time></trkpt><trkpt lat="38.5506369" lon="22.406543"><ele>357.0</ele><time>2026-04-28T13:09:52.024Z</time></trkpt><trkpt lat="38.5504506" lon="22.4066161"><ele>357.0</ele><time>2026-04-28T13:09:53.023Z</time></trkpt><trkpt lat="38.5501753" lon="22.4067283"><ele>357.5</ele><time>2026-04-28T13:09:54.023Z</time></trkpt><trkpt lat="38.5497991" lon="22.4068582"><ele>358.0</ele><time>2026-04-28T13:09:55.023Z</time></trkpt><trkpt lat="38.5494714" lon="22.4069855"><ele>360.5</ele><time>2026-04-28T13:09:56.024Z</time></trkpt><trkpt lat="38.5491441" lon="22.4071225"><ele>363.0</ele><time>2026-04-28T13:09:57.022Z</time></trkpt><trkpt lat="38.5488017" lon="22.4072495"><ele>349.5</ele><time>2026-04-28T13:09:58.024Z</time></trkpt><trkpt lat="38.5484628" lon="22.4073346"><ele>336.0</ele><time>2026-04-28T13:09:59.024Z</time></trkpt><trkpt lat="38.5481365" lon="22.4074102"><ele>334.5</ele><time>2026-04-28T13:10:00.023Z</time></trkpt><trkpt lat="38.5478274" lon="22.4074755"><ele>333.0</ele><time>2026-04-28T13:10:01.024Z</time></trkpt><trkpt lat="38.5475338" lon="22.4075291"><ele>333.0</ele><time>2026-04-28T13:10:02.024Z</time></trkpt><trkpt lat="38.5472558" lon="22.4075807"><ele>333.0</ele><time>2026-04-28T13:10:03.023Z</time></trkpt><trkpt lat="38.5469913" lon="22.4076352"><ele>335.5</ele><time>2026-04-28T13:10:04.023Z</time></trkpt><trkpt lat="38.5467322" lon="22.4076738"><ele>338.0</ele><time>2026-04-28T13:10:05.023Z</time></trkpt><trkpt lat="38.5464763" lon="22.4077082"><ele>338.0</ele><time>2026-04-28T13:10:06.023Z</time></trkpt><trkpt lat="38.5462207" lon="22.4077198"><ele>338.0</ele><time>2026-04-28T13:10:07.024Z</time></trkpt><trkpt lat="38.545983" lon="22.4077086"><ele>334.5</ele><time>2026-04-28T13:10:08.023Z</time></trkpt><trkpt lat="38.5457495" lon="22.4076692"><ele>331.0</ele><time>2026-04-28T13:10:09.023Z</time></trkpt><trkpt lat="38.5455307" lon="22.4076248"><ele>328.0</ele><time>2026-04-28T13:10:10.023Z</time></trkpt><trkpt lat="38.5453235" lon="22.407579"><ele>325.0</ele><time>2026-04-28T13:10:11.022Z</time></trkpt><trkpt lat="38.5451338" lon="22.4075358"><ele>322.0</ele><time>2026-04-28T13:10:12.023Z</time></trkpt><trkpt lat="38.5449481" lon="22.4075142"><ele>322.0</ele><time>2026-04-28T13:10:13.023Z</time></trkpt><trkpt lat="38.5447666" lon="22.4075318"><ele>322.0</ele><time>2026-04-28T13:10:14.023Z</time></trkpt><trkpt lat="38.5445893" lon="22.4075953"><ele>322.0</ele><time>2026-04-28T13:10:15.023Z</time></trkpt><trkpt lat="38.5444207" lon="22.4077004"><ele>324.0</ele><time>2026-04-28T13:10:16.024Z</time></trkpt><trkpt lat="38.5442734" lon="22.4078381"><ele>326.0</ele><time>2026-04-28T13:10:17.023Z</time></trkpt><trkpt lat="38.5441396" lon="22.408012"><ele>328.0</ele><time>2026-04-28T13:10:18.023Z</time></trkpt><trkpt lat="38.5440055" lon="22.4081974"><ele>328.3333333333333</ele><time>2026-04-28T13:10:19.023Z</time></trkpt><trkpt lat="38.5438697" lon="22.4083953"><ele>328.6666666666667</ele><time>2026-04-28T13:10:20.023Z</time></trkpt><trkpt lat="38.5437285" lon="22.4085954"><ele>329.0</ele><time>2026-04-28T13:10:21.024Z</time></trkpt><trkpt lat="38.5435832" lon="22.4088054"><ele>321.0</ele><time>2026-04-28T13:10:22.024Z</time></trkpt><trkpt lat="38.5434398" lon="22.4090193"><ele>313.0</ele><time>2026-04-28T13:10:23.023Z</time></trkpt><trkpt lat="38.5432963" lon="22.4092428"><ele>305.0</ele><time>2026-04-28T13:10:24.023Z</time></trkpt><trkpt lat="38.5431475" lon="22.4094509"><ele>305.0</ele><time>2026-04-28T13:10:25.024Z</time></trkpt><trkpt lat="38.5430048" lon="22.4096525"><ele>305.0</ele><time>2026-04-28T13:10:26.023Z</time></trkpt><trkpt lat="38.542865" lon="22.4098512"><ele>305.0</ele><time>2026-04-28T13:10:27.024Z</time></trkpt><trkpt lat="38.5427236" lon="22.4100437"><ele>306.0</ele><time>2026-04-28T13:10:28.024Z</time></trkpt><trkpt lat="38.5425843" lon="22.4102323"><ele>307.0</ele><time>2026-04-28T13:10:29.024Z</time></trkpt><trkpt lat="38.542455" lon="22.4104251"><ele>308.0</ele><time>2026-04-28T13:10:30.023Z</time></trkpt><trkpt lat="38.5423226" lon="22.4106122"><ele>308.0</ele><time>2026-04-28T13:10:31.024Z</time></trkpt><trkpt lat="38.5421865" lon="22.4107976"><ele>308.0</ele><time>2026-04-28T13:10:32.024Z</time></trkpt><trkpt lat="38.5420554" lon="22.4109858"><ele>308.0</ele><time>2026-04-28T13:10:33.023Z</time></trkpt><trkpt lat="38.5419214" lon="22.4111753"><ele>300.33333333333337</ele><time>2026-04-28T13:10:34.023Z</time></trkpt><trkpt lat="38.5417889" lon="22.4113797"><ele>292.6666666666667</ele><time>2026-04-28T13:10:35.024Z</time></trkpt><trkpt lat="38.5416546" lon="22.4115809"><ele>285.0</ele><time>2026-04-28T13:10:36.024Z</time></trkpt><trkpt lat="38.541519" lon="22.4117919"><ele>285.0</ele><time>2026-04-28T13:10:37.023Z</time></trkpt><trkpt lat="38.5413889" lon="22.4120147"><ele>285.0</ele><time>2026-04-28T13:10:38.024Z</time></trkpt><trkpt lat="38.5412614" lon="22.4122461"><ele>285.0</ele><time>2026-04-28T13:10:39.024Z</time></trkpt><trkpt lat="38.5411437" lon="22.4124785"><ele>286.6666666666667</ele><time>2026-04-28T13:10:40.023Z</time></trkpt><trkpt lat="38.5410275" lon="22.4127143"><ele>288.33333333333337</ele><time>2026-04-28T13:10:41.023Z</time></trkpt><trkpt lat="38.5409142" lon="22.41295"><ele>290.0</ele><time>2026-04-28T13:10:42.023Z</time></trkpt><trkpt lat="38.5408017" lon="22.4131803"><ele>283.6666666666667</ele><time>2026-04-28T13:10:43.023Z</time></trkpt><trkpt lat="38.5406884" lon="22.4134036"><ele>277.3333333333333</ele><time>2026-04-28T13:10:44.023Z</time></trkpt><trkpt lat="38.5405703" lon="22.4136226"><ele>271.0</ele><time>2026-04-28T13:10:45.024Z</time></trkpt><trkpt lat="38.540439" lon="22.4138242"><ele>273.0</ele><time>2026-04-28T13:10:46.023Z</time></trkpt><trkpt lat="38.5402878" lon="22.4140071"><ele>275.0</ele><time>2026-04-28T13:10:47.022Z</time></trkpt><trkpt lat="38.5401193" lon="22.4141788"><ele>277.0</ele><time>2026-04-28T13:10:48.023Z</time></trkpt><trkpt lat="38.5399232" lon="22.4143543"><ele>277.0</ele><time>2026-04-28T13:10:49.023Z</time></trkpt><trkpt lat="38.5397218" lon="22.4145193"><ele>277.0</ele><time>2026-04-28T13:10:50.022Z</time></trkpt><trkpt lat="38.5395206" lon="22.4146877"><ele>273.5</ele><time>2026-04-28T13:10:51.024Z</time></trkpt><trkpt lat="38.5393203" lon="22.4148574"><ele>270.0</ele><time>2026-04-28T13:10:52.024Z</time></trkpt><trkpt lat="38.539122" lon="22.4150275"><ele>270.0</ele><time>2026-04-28T13:10:53.024Z</time></trkpt><trkpt lat="38.5389273" lon="22.4151989"><ele>270.0</ele><time>2026-04-28T13:10:54.023Z</time></trkpt><trkpt lat="38.5387428" lon="22.4153922"><ele>268.0</ele><time>2026-04-28T13:10:55.023Z</time></trkpt><trkpt lat="38.5385662" lon="22.4155958"><ele>266.0</ele><time>2026-04-28T13:10:56.024Z</time></trkpt><trkpt lat="38.5384031" lon="22.4158195"><ele>266.0</ele><time>2026-04-28T13:10:57.024Z</time></trkpt><trkpt lat="38.5382461" lon="22.4160496"><ele>266.0</ele><time>2026-04-28T13:10:58.024Z</time></trkpt><trkpt lat="38.538092" lon="22.4162806"><ele>268.0</ele><time>2026-04-28T13:10:59.023Z</time></trkpt><trkpt lat="38.537939" lon="22.4165151"><ele>270.0</ele><time>2026-04-28T13:11:00.023Z</time></trkpt><trkpt lat="38.5377898" lon="22.4167427"><ele>270.0</ele><time>2026-04-28T13:11:01.024Z</time></trkpt><trkpt lat="38.5376423" lon="22.4169665"><ele>270.0</ele><time>2026-04-28T13:11:02.023Z</time></trkpt><trkpt lat="38.5375029" lon="22.417181"><ele>270.0</ele><time>2026-04-28T13:11:03.024Z</time></trkpt><trkpt lat="38.5373693" lon="22.4173924"><ele>264.3333333333333</ele><time>2026-04-28T13:11:04.024Z</time></trkpt><trkpt lat="38.5372349" lon="22.4175968"><ele>258.66666666666663</ele><time>2026-04-28T13:11:05.023Z</time></trkpt><trkpt lat="38.5371144" lon="22.4177932"><ele>253.0</ele><time>2026-04-28T13:11:06.023Z</time></trkpt><trkpt lat="38.5370061" lon="22.4179982"><ele>253.0</ele><time>2026-04-28T13:11:07.024Z</time></trkpt><trkpt lat="38.5369229" lon="22.4182218"><ele>253.0</ele><time>2026-04-28T13:11:08.023Z</time></trkpt><trkpt lat="38.5368593" lon="22.4184553"><ele>253.0</ele><time>2026-04-28T13:11:09.023Z</time></trkpt><trkpt lat="38.5368134" lon="22.4186987"><ele>249.33333333333331</ele><time>2026-04-28T13:11:10.023Z</time></trkpt><trkpt lat="38.5367749" lon="22.4189554"><ele>245.66666666666669</ele><time>2026-04-28T13:11:11.022Z</time></trkpt><trkpt lat="38.536738" lon="22.4192145"><ele>242.0</ele><time>2026-04-28T13:11:12.024Z</time></trkpt><trkpt lat="38.536701" lon="22.4194755"><ele>239.0</ele><time>2026-04-28T13:11:13.023Z</time></trkpt><trkpt lat="38.536658" lon="22.4197335"><ele>236.0</ele><time>2026-04-28T13:11:14.023Z</time></trkpt><trkpt lat="38.5366081" lon="22.4199759"><ele>233.0</ele><time>2026-04-28T13:11:15.023Z</time></trkpt><trkpt lat="38.536553" lon="22.4201944"><ele>233.0</ele><time>2026-04-28T13:11:16.022Z</time></trkpt><trkpt lat="38.5364695" lon="22.4203766"><ele>233.0</ele><time>2026-04-28T13:11:17.023Z</time></trkpt><trkpt lat="38.5363681" lon="22.420536"><ele>233.0</ele><time>2026-04-28T13:11:18.023Z</time></trkpt><trkpt lat="38.5362632" lon="22.4206745"><ele>231.75</ele><time>2026-04-28T13:11:19.024Z</time></trkpt><trkpt lat="38.5361478" lon="22.4207878"><ele>230.5</ele><time>2026-04-28T13:11:20.022Z</time></trkpt><trkpt lat="38.5360284" lon="22.4208347"><ele>229.25</ele><time>2026-04-28T13:11:21.023Z</time></trkpt><trkpt lat="38.5359165" lon="22.4208634"><ele>228.0</ele><time>2026-04-28T13:11:22.023Z</time></trkpt><trkpt lat="38.5358152" lon="22.4208112"><ele>228.0</ele><time>2026-04-28T13:11:23.023Z</time></trkpt><trkpt lat="38.5356817" lon="22.4207313"><ele>228.0</ele><time>2026-04-28T13:11:24.024Z</time></trkpt><trkpt lat="38.5355835" lon="22.4206224"><ele>228.0</ele><time>2026-04-28T13:11:25.022Z</time></trkpt><trkpt lat="38.5354695" lon="22.4204526"><ele>224.0</ele><time>2026-04-28T13:11:26.023Z</time></trkpt><trkpt lat="38.5353476" lon="22.4201994"><ele>220.0</ele><time>2026-04-28T13:11:27.023Z</time></trkpt><trkpt lat="38.5351993" lon="22.4198855"><ele>220.0</ele><time>2026-04-28T13:11:28.023Z</time></trkpt><trkpt lat="38.5350754" lon="22.4194982"><ele>220.0</ele><time>2026-04-28T13:11:29.023Z</time></trkpt><trkpt lat="38.5349532" lon="22.4191691"><ele>220.0</ele><time>2026-04-28T13:11:30.024Z</time></trkpt><trkpt lat="38.5348573" lon="22.4188489"><ele>220.0</ele><time>2026-04-28T13:11:31.023Z</time></trkpt><trkpt lat="38.5347498" lon="22.4185494"><ele>222.0</ele><time>2026-04-28T13:11:32.024Z</time></trkpt><trkpt lat="38.5346501" lon="22.4182513"><ele>224.0</ele><time>2026-04-28T13:11:33.023Z</time></trkpt><trkpt lat="38.5345503" lon="22.4179771"><ele>217.0</ele><time>2026-04-28T13:11:34.023Z</time></trkpt><trkpt lat="38.534454" lon="22.4176924"><ele>210.0</ele><time>2026-04-28T13:11:35.024Z</time></trkpt><trkpt lat="38.534353" lon="22.4174099"><ele>211.5</ele><time>2026-04-28T13:11:36.023Z</time></trkpt><trkpt lat="38.5342295" lon="22.4171416"><ele>213.0</ele><time>2026-04-28T13:11:37.024Z</time></trkpt><trkpt lat="38.5341181" lon="22.4168593"><ele>213.0</ele><time>2026-04-28T13:11:38.024Z</time></trkpt><trkpt lat="38.5339755" lon="22.4166044"><ele>213.0</ele><time>2026-04-28T13:11:39.023Z</time></trkpt><trkpt lat="38.5338469" lon="22.4163427"><ele>209.5</ele><time>2026-04-28T13:11:40.023Z</time></trkpt><trkpt lat="38.5337222" lon="22.41608"><ele>206.0</ele><time>2026-04-28T13:11:41.022Z</time></trkpt><trkpt lat="38.5335999" lon="22.4158134"><ele>206.0</ele><time>2026-04-28T13:11:42.022Z</time></trkpt><trkpt lat="38.5335204" lon="22.4155302"><ele>206.0</ele><time>2026-04-28T13:11:43.023Z</time></trkpt><trkpt lat="38.5334018" lon="22.4152543"><ele>205.5</ele><time>2026-04-28T13:11:44.023Z</time></trkpt><trkpt lat="38.533295" lon="22.4149746"><ele>205.0</ele><time>2026-04-28T13:11:45.024Z</time></trkpt><trkpt lat="38.5331772" lon="22.4146989"><ele>203.5</ele><time>2026-04-28T13:11:46.023Z</time></trkpt><trkpt lat="38.5330629" lon="22.4144171"><ele>202.0</ele><time>2026-04-28T13:11:47.023Z</time></trkpt><trkpt lat="38.532946" lon="22.4141348"><ele>198.5</ele><time>2026-04-28T13:11:48.024Z</time></trkpt><trkpt lat="38.5328419" lon="22.4138526"><ele>195.0</ele><time>2026-04-28T13:11:49.024Z</time></trkpt><trkpt lat="38.5327309" lon="22.4135701"><ele>195.0</ele><time>2026-04-28T13:11:50.024Z</time></trkpt><trkpt lat="38.532621" lon="22.4132827"><ele>195.0</ele><time>2026-04-28T13:11:51.024Z</time></trkpt><trkpt lat="38.5325092" lon="22.4129971"><ele>193.0</ele><time>2026-04-28T13:11:52.024Z</time></trkpt><trkpt lat="38.532398" lon="22.4127063"><ele>191.0</ele><time>2026-04-28T13:11:53.022Z</time></trkpt><trkpt lat="38.5322855" lon="22.4124124"><ele>193.0</ele><time>2026-04-28T13:11:54.023Z</time></trkpt><trkpt lat="38.5321738" lon="22.4121213"><ele>195.0</ele><time>2026-04-28T13:11:55.022Z</time></trkpt><trkpt lat="38.5320591" lon="22.4118261"><ele>191.5</ele><time>2026-04-28T13:11:56.023Z</time></trkpt><trkpt lat="38.5319474" lon="22.411528"><ele>188.0</ele><time>2026-04-28T13:11:57.023Z</time></trkpt><trkpt lat="38.5318353" lon="22.4112323"><ele>186.0</ele><time>2026-04-28T13:11:58.022Z</time></trkpt><trkpt lat="38.5317242" lon="22.4109376"><ele>184.0</ele><time>2026-04-28T13:11:59.024Z</time></trkpt><trkpt lat="38.5316177" lon="22.4106449"><ele>183.5</ele><time>2026-04-28T13:12:00.023Z</time></trkpt><trkpt lat="38.5315234" lon="22.410358"><ele>183.0</ele><time>2026-04-28T13:12:01.023Z</time></trkpt><trkpt lat="38.5314416" lon="22.4100816"><ele>183.0</ele><time>2026-04-28T13:12:02.023Z</time></trkpt><trkpt lat="38.5313675" lon="22.4098158"><ele>183.0</ele><time>2026-04-28T13:12:03.023Z</time></trkpt><trkpt lat="38.5312991" lon="22.4095497"><ele>183.0</ele><time>2026-04-28T13:12:04.022Z</time></trkpt><trkpt lat="38.5312379" lon="22.4092882"><ele>181.33333333333334</ele><time>2026-04-28T13:12:05.023Z</time></trkpt><trkpt lat="38.5311818" lon="22.4090274"><ele>179.66666666666669</ele><time>2026-04-28T13:12:06.023Z</time></trkpt><trkpt lat="38.5311308" lon="22.4087631"><ele>178.0</ele><time>2026-04-28T13:12:07.022Z</time></trkpt><trkpt lat="38.5310856" lon="22.4084981"><ele>177.0</ele><time>2026-04-28T13:12:08.023Z</time></trkpt><trkpt lat="38.5310456" lon="22.4082287"><ele>176.0</ele><time>2026-04-28T13:12:09.022Z</time></trkpt><trkpt lat="38.5310091" lon="22.4079507"><ele>175.0</ele><time>2026-04-28T13:12:10.022Z</time></trkpt><trkpt lat="38.5309725" lon="22.4076602"><ele>174.5</ele><time>2026-04-28T13:12:11.023Z</time></trkpt><trkpt lat="38.5309415" lon="22.4073612"><ele>174.0</ele><time>2026-04-28T13:12:12.023Z</time></trkpt><trkpt lat="38.5309202" lon="22.4070604"><ele>174.0</ele><time>2026-04-28T13:12:13.024Z</time></trkpt><trkpt lat="38.5309078" lon="22.4067581"><ele>174.0</ele><time>2026-04-28T13:12:14.023Z</time></trkpt><trkpt lat="38.5308952" lon="22.4064679"><ele>176.0</ele><time>2026-04-28T13:12:15.023Z</time></trkpt><trkpt lat="38.5308946" lon="22.4061754"><ele>178.0</ele><time>2026-04-28T13:12:16.022Z</time></trkpt><trkpt lat="38.530895" lon="22.405886"><ele>178.0</ele><time>2026-04-28T13:12:17.023Z</time></trkpt><trkpt lat="38.530894" lon="22.4056059"><ele>178.0</ele><time>2026-04-28T13:12:18.024Z</time></trkpt><trkpt lat="38.5308891" lon="22.4053348"><ele>178.0</ele><time>2026-04-28T13:12:19.024Z</time></trkpt><trkpt lat="38.5308824" lon="22.4050706"><ele>177.33333333333334</ele><time>2026-04-28T13:12:20.024Z</time></trkpt><trkpt lat="38.5308774" lon="22.4048164"><ele>176.66666666666666</ele><time>2026-04-28T13:12:21.023Z</time></trkpt><trkpt lat="38.5308717" lon="22.4045795"><ele>176.0</ele><time>2026-04-28T13:12:22.024Z</time></trkpt><trkpt lat="38.530864" lon="22.4043538"><ele>174.0</ele><time>2026-04-28T13:12:23.023Z</time></trkpt><trkpt lat="38.5308548" lon="22.4041283"><ele>172.0</ele><time>2026-04-28T13:12:24.023Z</time></trkpt><trkpt lat="38.5308423" lon="22.4039127"><ele>170.0</ele><time>2026-04-28T13:12:25.024Z</time></trkpt><trkpt lat="38.5308292" lon="22.4037037"><ele>169.0</ele><time>2026-04-28T13:12:26.023Z</time></trkpt><trkpt lat="38.5308151" lon="22.4034994"><ele>168.0</ele><time>2026-04-28T13:12:27.024Z</time></trkpt><trkpt lat="38.5308007" lon="22.4032947"><ele>167.0</ele><time>2026-04-28T13:12:28.024Z</time></trkpt><trkpt lat="38.5307875" lon="22.4030892"><ele>166.33333333333331</ele><time>2026-04-28T13:12:29.023Z</time></trkpt><trkpt lat="38.5307743" lon="22.4028846"><ele>165.66666666666666</ele><time>2026-04-28T13:12:30.023Z</time></trkpt><trkpt lat="38.5307613" lon="22.4026753"><ele>165.0</ele><time>2026-04-28T13:12:31.023Z</time></trkpt><trkpt lat="38.5307478" lon="22.4024635"><ele>165.0</ele><time>2026-04-28T13:12:32.023Z</time></trkpt><trkpt lat="38.5307318" lon="22.402255"><ele>165.0</ele><time>2026-04-28T13:12:33.023Z</time></trkpt><trkpt lat="38.5307155" lon="22.4020486"><ele>165.0</ele><time>2026-04-28T13:12:34.023Z</time></trkpt><trkpt lat="38.5307" lon="22.4018463"><ele>164.5</ele><time>2026-04-28T13:12:35.023Z</time></trkpt><trkpt lat="38.5306851" lon="22.4016529"><ele>164.0</ele><time>2026-04-28T13:12:36.024Z</time></trkpt><trkpt lat="38.5306695" lon="22.4014644"><ele>163.5</ele><time>2026-04-28T13:12:37.023Z</time></trkpt><trkpt lat="38.5306518" lon="22.4012778"><ele>163.0</ele><time>2026-04-28T13:12:38.023Z</time></trkpt><trkpt lat="38.5306353" lon="22.4010926"><ele>163.0</ele><time>2026-04-28T13:12:39.022Z</time></trkpt><trkpt lat="38.5306176" lon="22.4009085"><ele>163.0</ele><time>2026-04-28T13:12:40.023Z</time></trkpt><trkpt lat="38.530603" lon="22.4007294"><ele>163.0</ele><time>2026-04-28T13:12:41.023Z</time></trkpt><trkpt lat="38.5305895" lon="22.40056"><ele>163.0</ele><time>2026-04-28T13:12:42.023Z</time></trkpt><trkpt lat="38.5305754" lon="22.4003983"><ele>162.75</ele><time>2026-04-28T13:12:43.023Z</time></trkpt><trkpt lat="38.5305618" lon="22.4002435"><ele>162.5</ele><time>2026-04-28T13:12:44.023Z</time></trkpt><trkpt lat="38.5305445" lon="22.4000937"><ele>162.25</ele><time>2026-04-28T13:12:45.023Z</time></trkpt><trkpt lat="38.5305302" lon="22.3999409"><ele>162.0</ele><time>2026-04-28T13:12:46.023Z</time></trkpt><trkpt lat="38.5305149" lon="22.3997846"><ele>161.0</ele><time>2026-04-28T13:12:47.023Z</time></trkpt><trkpt lat="38.5304972" lon="22.3996219"><ele>160.0</ele><time>2026-04-28T13:12:48.022Z</time></trkpt><trkpt lat="38.5304763" lon="22.3994471"><ele>159.0</ele><time>2026-04-28T13:12:49.022Z</time></trkpt><trkpt lat="38.5304554" lon="22.399256"><ele>158.0</ele><time>2026-04-28T13:12:50.023Z</time></trkpt><trkpt lat="38.5304344" lon="22.3990677"><ele>158.0</ele><time>2026-04-28T13:12:51.022Z</time></trkpt><trkpt lat="38.5304122" lon="22.3988822"><ele>158.0</ele><time>2026-04-28T13:12:52.023Z</time></trkpt><trkpt lat="38.5303911" lon="22.3986905"><ele>158.0</ele><time>2026-04-28T13:12:53.024Z</time></trkpt><trkpt lat="38.530373" lon="22.3984966"><ele>157.33333333333331</ele><time>2026-04-28T13:12:54.023Z</time></trkpt><trkpt lat="38.530352" lon="22.3982936"><ele>156.66666666666666</ele><time>2026-04-28T13:12:55.022Z</time></trkpt><trkpt lat="38.5303329" lon="22.3980844"><ele>156.0</ele><time>2026-04-28T13:12:56.021Z</time></trkpt><trkpt lat="38.5303144" lon="22.3978696"><ele>156.0</ele><time>2026-04-28T13:12:57.021Z</time></trkpt><trkpt lat="38.5302949" lon="22.3976527"><ele>156.0</ele><time>2026-04-28T13:12:58.022Z</time></trkpt><trkpt lat="38.5302766" lon="22.3974308"><ele>156.0</ele><time>2026-04-28T13:12:59.023Z</time></trkpt><trkpt lat="38.530258" lon="22.3972055"><ele>157.33333333333334</ele><time>2026-04-28T13:13:00.023Z</time></trkpt><trkpt lat="38.5302392" lon="22.3969837"><ele>158.66666666666669</ele><time>2026-04-28T13:13:01.022Z</time></trkpt><trkpt lat="38.5302186" lon="22.3967573"><ele>160.0</ele><time>2026-04-28T13:13:02.021Z</time></trkpt><trkpt lat="38.5301986" lon="22.3965213"><ele>159.66666666666669</ele><time>2026-04-28T13:13:03.022Z</time></trkpt><trkpt lat="38.5301803" lon="22.3962737"><ele>159.33333333333334</ele><time>2026-04-28T13:13:04.022Z</time></trkpt><trkpt lat="38.5301596" lon="22.396028"><ele>159.0</ele><time>2026-04-28T13:13:05.023Z</time></trkpt><trkpt lat="38.5301405" lon="22.3957896"><ele>159.0</ele><time>2026-04-28T13:13:06.022Z</time></trkpt><trkpt lat="38.5301203" lon="22.3955694"><ele>159.0</ele><time>2026-04-28T13:13:07.022Z</time></trkpt><trkpt lat="38.5300979" lon="22.3953552"><ele>159.0</ele><time>2026-04-28T13:13:08.023Z</time></trkpt><trkpt lat="38.5300785" lon="22.3951395"><ele>158.0</ele><time>2026-04-28T13:13:09.022Z</time></trkpt><trkpt lat="38.5300607" lon="22.3949136"><ele>157.0</ele><time>2026-04-28T13:13:10.021Z</time></trkpt><trkpt lat="38.5300406" lon="22.3946803"><ele>156.0</ele><time>2026-04-28T13:13:11.022Z</time></trkpt><trkpt lat="38.5300204" lon="22.3944417"><ele>156.0</ele><time>2026-04-28T13:13:12.021Z</time></trkpt><trkpt lat="38.5299987" lon="22.3941998"><ele>156.0</ele><time>2026-04-28T13:13:13.021Z</time></trkpt><trkpt lat="38.5299771" lon="22.3939504"><ele>156.0</ele><time>2026-04-28T13:13:14.022Z</time></trkpt><trkpt lat="38.5299541" lon="22.3937005"><ele>157.0</ele><time>2026-04-28T13:13:15.021Z</time></trkpt><trkpt lat="38.5299314" lon="22.3934483"><ele>158.0</ele><time>2026-04-28T13:13:16.021Z</time></trkpt><trkpt lat="38.5299111" lon="22.3932027"><ele>159.0</ele><time>2026-04-28T13:13:17.023Z</time></trkpt><trkpt lat="38.5298896" lon="22.3929551"><ele>159.0</ele><time>2026-04-28T13:13:18.022Z</time></trkpt><trkpt lat="38.5298676" lon="22.3927071"><ele>159.0</ele><time>2026-04-28T13:13:19.022Z</time></trkpt><trkpt lat="38.5298444" lon="22.3924575"><ele>159.0</ele><time>2026-04-28T13:13:20.022Z</time></trkpt><trkpt lat="38.5298185" lon="22.3922082"><ele>158.33333333333334</ele><time>2026-04-28T13:13:21.022Z</time></trkpt><trkpt lat="38.5297935" lon="22.3919625"><ele>157.66666666666669</ele><time>2026-04-28T13:13:22.022Z</time></trkpt><trkpt lat="38.5297686" lon="22.3917196"><ele>157.0</ele><time>2026-04-28T13:13:23.022Z</time></trkpt><trkpt lat="38.5297388" lon="22.3914769"><ele>157.33333333333334</ele><time>2026-04-28T13:13:24.022Z</time></trkpt><trkpt lat="38.5297043" lon="22.3912361"><ele>157.66666666666666</ele><time>2026-04-28T13:13:25.021Z</time></trkpt><trkpt lat="38.5296672" lon="22.3910018"><ele>158.0</ele><time>2026-04-28T13:13:26.022Z</time></trkpt><trkpt lat="38.5296237" lon="22.3907703"><ele>158.0</ele><time>2026-04-28T13:13:27.023Z</time></trkpt><trkpt lat="38.5295732" lon="22.3905405"><ele>158.0</ele><time>2026-04-28T13:13:28.023Z</time></trkpt><trkpt lat="38.5295132" lon="22.3903134"><ele>158.0</ele><time>2026-04-28T13:13:29.022Z</time></trkpt><trkpt lat="38.5294468" lon="22.3900922"><ele>157.66666666666666</ele><time>2026-04-28T13:13:30.022Z</time></trkpt><trkpt lat="38.5293654" lon="22.3898771"><ele>157.33333333333334</ele><time>2026-04-28T13:13:31.022Z</time></trkpt><trkpt lat="38.5292772" lon="22.3896679"><ele>157.0</ele><time>2026-04-28T13:13:32.021Z</time></trkpt><trkpt lat="38.5291824" lon="22.3894652"><ele>158.0</ele><time>2026-04-28T13:13:33.021Z</time></trkpt><trkpt lat="38.5290781" lon="22.3892636"><ele>159.0</ele><time>2026-04-28T13:13:34.023Z</time></trkpt><trkpt lat="38.5289682" lon="22.3890701"><ele>160.0</ele><time>2026-04-28T13:13:35.021Z</time></trkpt><trkpt lat="38.5288515" lon="22.3888899"><ele>160.33333333333334</ele><time>2026-04-28T13:13:36.023Z</time></trkpt><trkpt lat="38.5287315" lon="22.388719"><ele>160.66666666666666</ele><time>2026-04-28T13:13:37.022Z</time></trkpt><trkpt lat="38.5286096" lon="22.3885543"><ele>161.0</ele><time>2026-04-28T13:13:38.022Z</time></trkpt><trkpt lat="38.5284746" lon="22.3883957"><ele>161.0</ele><time>2026-04-28T13:13:39.022Z</time></trkpt><trkpt lat="38.5283384" lon="22.3882482"><ele>161.0</ele><time>2026-04-28T13:13:40.022Z</time></trkpt><trkpt lat="38.5281906" lon="22.3881131"><ele>161.0</ele><time>2026-04-28T13:13:41.022Z</time></trkpt><trkpt lat="38.5280367" lon="22.3879869"><ele>161.0</ele><time>2026-04-28T13:13:42.022Z</time></trkpt><trkpt lat="38.5278753" lon="22.3878698"><ele>161.0</ele><time>2026-04-28T13:13:43.022Z</time></trkpt><trkpt lat="38.5277002" lon="22.3877597"><ele>161.0</ele><time>2026-04-28T13:13:44.022Z</time></trkpt><trkpt lat="38.5275146" lon="22.3876521"><ele>161.0</ele><time>2026-04-28T13:13:45.023Z</time></trkpt><trkpt lat="38.527317" lon="22.387559"><ele>161.0</ele><time>2026-04-28T13:13:46.023Z</time></trkpt><trkpt lat="38.527102" lon="22.3874552"><ele>161.0</ele><time>2026-04-28T13:13:47.021Z</time></trkpt><trkpt lat="38.5268793" lon="22.3873561"><ele>161.0</ele><time>2026-04-28T13:13:48.022Z</time></trkpt><trkpt lat="38.5266491" lon="22.387262"><ele>161.0</ele><time>2026-04-28T13:13:49.023Z</time></trkpt><trkpt lat="38.5264129" lon="22.3871723"><ele>159.0</ele><time>2026-04-28T13:13:50.022Z</time></trkpt><trkpt lat="38.5261685" lon="22.3870832"><ele>157.0</ele><time>2026-04-28T13:13:51.023Z</time></trkpt><trkpt lat="38.525934" lon="22.3869971"><ele>157.0</ele><time>2026-04-28T13:13:52.022Z</time></trkpt><trkpt lat="38.5256957" lon="22.3869071"><ele>157.0</ele><time>2026-04-28T13:13:53.021Z</time></trkpt><trkpt lat="38.5254548" lon="22.3868144"><ele>157.5</ele><time>2026-04-28T13:13:54.021Z</time></trkpt><trkpt lat="38.525207" lon="22.3867241"><ele>158.0</ele><time>2026-04-28T13:13:55.022Z</time></trkpt><trkpt lat="38.5249568" lon="22.3866347"><ele>158.0</ele><time>2026-04-28T13:13:56.023Z</time></trkpt><trkpt lat="38.5247034" lon="22.3865423"><ele>158.0</ele><time>2026-04-28T13:13:57.023Z</time></trkpt><trkpt lat="38.5244431" lon="22.3864364"><ele>157.0</ele><time>2026-04-28T13:13:58.023Z</time></trkpt><trkpt lat="38.52419" lon="22.3863414"><ele>156.0</ele><time>2026-04-28T13:13:59.021Z</time></trkpt><trkpt lat="38.5239448" lon="22.3862547"><ele>155.5</ele><time>2026-04-28T13:14:00.023Z</time></trkpt><trkpt lat="38.5236983" lon="22.3861837"><ele>155.0</ele><time>2026-04-28T13:14:01.022Z</time></trkpt><trkpt lat="38.5234639" lon="22.3861372"><ele>155.0</ele><time>2026-04-28T13:14:02.022Z</time></trkpt><trkpt lat="38.5232344" lon="22.3861049"><ele>155.0</ele><time>2026-04-28T13:14:03.022Z</time></trkpt><trkpt lat="38.523005" lon="22.3860901"><ele>155.0</ele><time>2026-04-28T13:14:04.021Z</time></trkpt><trkpt lat="38.5227842" lon="22.3860919"><ele>155.0</ele><time>2026-04-28T13:14:05.023Z</time></trkpt><trkpt lat="38.5225721" lon="22.3861095"><ele>155.0</ele><time>2026-04-28T13:14:06.022Z</time></trkpt><trkpt lat="38.5223692" lon="22.3861447"><ele>155.0</ele><time>2026-04-28T13:14:07.021Z</time></trkpt><trkpt lat="38.5221711" lon="22.3862006"><ele>155.0</ele><time>2026-04-28T13:14:08.021Z</time></trkpt><trkpt lat="38.5219714" lon="22.3862771"><ele>155.0</ele><time>2026-04-28T13:14:09.023Z</time></trkpt><trkpt lat="38.5217743" lon="22.3863748"><ele>155.0</ele><time>2026-04-28T13:14:10.022Z</time></trkpt><trkpt lat="38.5215802" lon="22.3864882"><ele>155.0</ele><time>2026-04-28T13:14:11.022Z</time></trkpt><trkpt lat="38.5213913" lon="22.3866181"><ele>155.0</ele><time>2026-04-28T13:14:12.022Z</time></trkpt><trkpt lat="38.5212072" lon="22.3867656"><ele>153.33333333333331</ele><time>2026-04-28T13:14:13.023Z</time></trkpt><trkpt lat="38.5210346" lon="22.3869318"><ele>151.66666666666666</ele><time>2026-04-28T13:14:14.022Z</time></trkpt><trkpt lat="38.5208696" lon="22.3871174"><ele>150.0</ele><time>2026-04-28T13:14:15.023Z</time></trkpt><trkpt lat="38.5207089" lon="22.3873175"><ele>149.5</ele><time>2026-04-28T13:14:16.023Z</time></trkpt><trkpt lat="38.5205498" lon="22.3875286"><ele>149.0</ele><time>2026-04-28T13:14:17.023Z</time></trkpt><trkpt lat="38.5203933" lon="22.3877481"><ele>148.5</ele><time>2026-04-28T13:14:18.023Z</time></trkpt><trkpt lat="38.5202384" lon="22.3879671"><ele>148.0</ele><time>2026-04-28T13:14:19.021Z</time></trkpt><trkpt lat="38.5200806" lon="22.3881789"><ele>147.0</ele><time>2026-04-28T13:14:20.022Z</time></trkpt><trkpt lat="38.5199121" lon="22.3883976"><ele>146.0</ele><time>2026-04-28T13:14:21.023Z</time></trkpt><trkpt lat="38.5197325" lon="22.3886204"><ele>138.5</ele><time>2026-04-28T13:14:22.022Z</time></trkpt><trkpt lat="38.5195386" lon="22.3888469"><ele>131.0</ele><time>2026-04-28T13:14:23.022Z</time></trkpt><trkpt lat="38.519335" lon="22.3890748"><ele>131.0</ele><time>2026-04-28T13:14:24.022Z</time></trkpt><trkpt lat="38.5191287" lon="22.3892948"><ele>131.0</ele><time>2026-04-28T13:14:25.022Z</time></trkpt><trkpt lat="38.5189165" lon="22.3894999"><ele>137.0</ele><time>2026-04-28T13:14:26.021Z</time></trkpt><trkpt lat="38.5186916" lon="22.3896965"><ele>143.0</ele><time>2026-04-28T13:14:27.023Z</time></trkpt><trkpt lat="38.5184571" lon="22.3898725"><ele>143.0</ele><time>2026-04-28T13:14:28.022Z</time></trkpt><trkpt lat="38.5182198" lon="22.3900419"><ele>143.0</ele><time>2026-04-28T13:14:29.023Z</time></trkpt><trkpt lat="38.5179837" lon="22.3902042"><ele>142.5</ele><time>2026-04-28T13:14:30.021Z</time></trkpt><trkpt lat="38.5177496" lon="22.3903653"><ele>142.0</ele><time>2026-04-28T13:14:31.023Z</time></trkpt><trkpt lat="38.5175129" lon="22.3905199"><ele>140.5</ele><time>2026-04-28T13:14:32.021Z</time></trkpt><trkpt lat="38.5172779" lon="22.3906736"><ele>139.0</ele><time>2026-04-28T13:14:33.021Z</time></trkpt><trkpt lat="38.5170468" lon="22.3908324"><ele>137.5</ele><time>2026-04-28T13:14:34.021Z</time></trkpt><trkpt lat="38.516821" lon="22.3909995"><ele>136.0</ele><time>2026-04-28T13:14:35.022Z</time></trkpt><trkpt lat="38.5165999" lon="22.3911778"><ele>135.0</ele><time>2026-04-28T13:14:36.022Z</time></trkpt><trkpt lat="38.5163831" lon="22.3913691"><ele>134.0</ele><time>2026-04-28T13:14:37.022Z</time></trkpt><trkpt lat="38.516171" lon="22.391565"><ele>134.0</ele><time>2026-04-28T13:14:38.022Z</time></trkpt><trkpt lat="38.5159622" lon="22.3917669"><ele>134.0</ele><time>2026-04-28T13:14:39.022Z</time></trkpt><trkpt lat="38.5157565" lon="22.3919739"><ele>133.5</ele><time>2026-04-28T13:14:40.022Z</time></trkpt><trkpt lat="38.5155565" lon="22.392188"><ele>133.0</ele><time>2026-04-28T13:14:41.021Z</time></trkpt><trkpt lat="38.5153587" lon="22.392403"><ele>131.5</ele><time>2026-04-28T13:14:42.023Z</time></trkpt><trkpt lat="38.5151704" lon="22.3926171"><ele>130.0</ele><time>2026-04-28T13:14:43.023Z</time></trkpt><trkpt lat="38.5149812" lon="22.3928278"><ele>130.5</ele><time>2026-04-28T13:14:44.023Z</time></trkpt><trkpt lat="38.5147921" lon="22.3930352"><ele>131.0</ele><time>2026-04-28T13:14:45.022Z</time></trkpt><trkpt lat="38.5146022" lon="22.3932392"><ele>130.5</ele><time>2026-04-28T13:14:46.022Z</time></trkpt><trkpt lat="38.5144098" lon="22.393439"><ele>130.0</ele><time>2026-04-28T13:14:47.023Z</time></trkpt><trkpt lat="38.5142153" lon="22.393635"><ele>130.0</ele><time>2026-04-28T13:14:48.023Z</time></trkpt><trkpt lat="38.5140196" lon="22.3938276"><ele>130.0</ele><time>2026-04-28T13:14:49.023Z</time></trkpt><trkpt lat="38.5138202" lon="22.3940254"><ele>129.0</ele><time>2026-04-28T13:14:50.023Z</time></trkpt><trkpt lat="38.513616" lon="22.3942249"><ele>128.0</ele><time>2026-04-28T13:14:51.022Z</time></trkpt><trkpt lat="38.5134132" lon="22.3944261"><ele>128.0</ele><time>2026-04-28T13:14:52.021Z</time></trkpt><trkpt lat="38.5132093" lon="22.394628"><ele>128.0</ele><time>2026-04-28T13:14:53.021Z</time></trkpt><trkpt lat="38.512999" lon="22.39483"><ele>128.0</ele><time>2026-04-28T13:14:54.021Z</time></trkpt><trkpt lat="38.5127885" lon="22.3950354"><ele>128.0</ele><time>2026-04-28T13:14:55.023Z</time></trkpt><trkpt lat="38.5125744" lon="22.3952409"><ele>128.0</ele><time>2026-04-28T13:14:56.022Z</time></trkpt><trkpt lat="38.5123597" lon="22.3954479"><ele>128.0</ele><time>2026-04-28T13:14:57.023Z</time></trkpt><trkpt lat="38.5121443" lon="22.3956543"><ele>127.0</ele><time>2026-04-28T13:14:58.023Z</time></trkpt><trkpt lat="38.5119257" lon="22.3958625"><ele>126.0</ele><time>2026-04-28T13:14:59.023Z</time></trkpt><trkpt lat="38.5117056" lon="22.3960707"><ele>126.0</ele><time>2026-04-28T13:15:00.021Z</time></trkpt><trkpt lat="38.5114873" lon="22.3962809"><ele>126.0</ele><time>2026-04-28T13:15:01.022Z</time></trkpt><trkpt lat="38.5112705" lon="22.3964933"><ele>124.5</ele><time>2026-04-28T13:15:02.022Z</time></trkpt><trkpt lat="38.5110526" lon="22.3967042"><ele>123.0</ele><time>2026-04-28T13:15:03.023Z</time></trkpt><trkpt lat="38.5108328" lon="22.3969136"><ele>123.0</ele><time>2026-04-28T13:15:04.023Z</time></trkpt><trkpt lat="38.5106166" lon="22.397125"><ele>123.0</ele><time>2026-04-28T13:15:05.022Z</time></trkpt><trkpt lat="38.5103997" lon="22.3973356"><ele>121.5</ele><time>2026-04-28T13:15:06.022Z</time></trkpt><trkpt lat="38.5101844" lon="22.397547"><ele>120.0</ele><time>2026-04-28T13:15:07.022Z</time></trkpt><trkpt lat="38.5099727" lon="22.3977539"><ele>120.0</ele><time>2026-04-28T13:15:08.021Z</time></trkpt><trkpt lat="38.5097615" lon="22.3979558"><ele>120.0</ele><time>2026-04-28T13:15:09.022Z</time></trkpt><trkpt lat="38.5095515" lon="22.3981548"><ele>119.0</ele><time>2026-04-28T13:15:10.023Z</time></trkpt><trkpt lat="38.5093437" lon="22.3983552"><ele>118.0</ele><time>2026-04-28T13:15:11.021Z</time></trkpt><trkpt lat="38.5091383" lon="22.3985519"><ele>118.0</ele><time>2026-04-28T13:15:12.022Z</time></trkpt><trkpt lat="38.5089293" lon="22.3987483"><ele>118.0</ele><time>2026-04-28T13:15:13.022Z</time></trkpt><trkpt lat="38.5087229" lon="22.3989451"><ele>117.0</ele><time>2026-04-28T13:15:14.022Z</time></trkpt><trkpt lat="38.5085213" lon="22.3991427"><ele>116.0</ele><time>2026-04-28T13:15:15.022Z</time></trkpt><trkpt lat="38.5083173" lon="22.3993396"><ele>116.0</ele><time>2026-04-28T13:15:16.021Z</time></trkpt><trkpt lat="38.5081101" lon="22.3995333"><ele>116.0</ele><time>2026-04-28T13:15:17.022Z</time></trkpt><trkpt lat="38.5079054" lon="22.3997286"><ele>117.0</ele><time>2026-04-28T13:15:18.021Z</time></trkpt><trkpt lat="38.5077019" lon="22.3999262"><ele>118.0</ele><time>2026-04-28T13:15:19.022Z</time></trkpt><trkpt lat="38.5074954" lon="22.4001258"><ele>118.0</ele><time>2026-04-28T13:15:20.023Z</time></trkpt><trkpt lat="38.5072901" lon="22.4003258"><ele>118.0</ele><time>2026-04-28T13:15:21.023Z</time></trkpt><trkpt lat="38.5070853" lon="22.4005253"><ele>115.5</ele><time>2026-04-28T13:15:22.023Z</time></trkpt><trkpt lat="38.5068783" lon="22.4007224"><ele>113.0</ele><time>2026-04-28T13:15:23.022Z</time></trkpt><trkpt lat="38.5066731" lon="22.4009185"><ele>113.0</ele><time>2026-04-28T13:15:24.023Z</time></trkpt><trkpt lat="38.5064692" lon="22.4011153"><ele>113.0</ele><time>2026-04-28T13:15:25.022Z</time></trkpt><trkpt lat="38.5062655" lon="22.4013114"><ele>112.5</ele><time>2026-04-28T13:15:26.023Z</time></trkpt><trkpt lat="38.5060647" lon="22.4015099"><ele>112.0</ele><time>2026-04-28T13:15:27.022Z</time></trkpt><trkpt lat="38.5058615" lon="22.4017077"><ele>112.0</ele><time>2026-04-28T13:15:28.023Z</time></trkpt><trkpt lat="38.5056579" lon="22.4019018"><ele>112.0</ele><time>2026-04-28T13:15:29.022Z</time></trkpt><trkpt lat="38.5054521" lon="22.4020968"><ele>111.5</ele><time>2026-04-28T13:15:30.021Z</time></trkpt><trkpt lat="38.505246" lon="22.4022941"><ele>111.0</ele><time>2026-04-28T13:15:31.022Z</time></trkpt><trkpt lat="38.5050435" lon="22.4024911"><ele>111.0</ele><time>2026-04-28T13:15:32.021Z</time></trkpt><trkpt lat="38.5048399" lon="22.4026876"><ele>111.0</ele><time>2026-04-28T13:15:33.021Z</time></trkpt><trkpt lat="38.5046369" lon="22.4028852"><ele>111.0</ele><time>2026-04-28T13:15:34.022Z</time></trkpt><trkpt lat="38.5044317" lon="22.4030783"><ele>111.0</ele><time>2026-04-28T13:15:35.023Z</time></trkpt><trkpt lat="38.5042316" lon="22.4032731"><ele>111.0</ele><time>2026-04-28T13:15:36.022Z</time></trkpt><trkpt lat="38.5040312" lon="22.4034689"><ele>111.0</ele><time>2026-04-28T13:15:37.022Z</time></trkpt><trkpt lat="38.503829" lon="22.4036635"><ele>111.0</ele><time>2026-04-28T13:15:38.021Z</time></trkpt><trkpt lat="38.5036277" lon="22.4038545"><ele>111.0</ele><time>2026-04-28T13:15:39.022Z</time></trkpt><trkpt lat="38.5034305" lon="22.4040474"><ele>111.0</ele><time>2026-04-28T13:15:40.022Z</time></trkpt><trkpt lat="38.5032334" lon="22.4042396"><ele>111.0</ele><time>2026-04-28T13:15:41.023Z</time></trkpt><trkpt lat="38.5030327" lon="22.4044313"><ele>108.5</ele><time>2026-04-28T13:15:42.023Z</time></trkpt><trkpt lat="38.5028318" lon="22.4046248"><ele>106.0</ele><time>2026-04-28T13:15:43.022Z</time></trkpt><trkpt lat="38.5026271" lon="22.404819"><ele>106.0</ele><time>2026-04-28T13:15:44.021Z</time></trkpt><trkpt lat="38.502421" lon="22.4050152"><ele>106.0</ele><time>2026-04-28T13:15:45.022Z</time></trkpt><trkpt lat="38.5022127" lon="22.4052142"><ele>105.5</ele><time>2026-04-28T13:15:46.021Z</time></trkpt><trkpt lat="38.5020054" lon="22.4054151"><ele>105.0</ele><time>2026-04-28T13:15:47.022Z</time></trkpt><trkpt lat="38.5017995" lon="22.4056159"><ele>105.0</ele><time>2026-04-28T13:15:48.021Z</time></trkpt><trkpt lat="38.5015922" lon="22.405816"><ele>105.0</ele><time>2026-04-28T13:15:49.022Z</time></trkpt><trkpt lat="38.5013867" lon="22.4060161"><ele>105.0</ele><time>2026-04-28T13:15:50.021Z</time></trkpt><trkpt lat="38.5011761" lon="22.4062152"><ele>105.0</ele><time>2026-04-28T13:15:51.023Z</time></trkpt><trkpt lat="38.5009671" lon="22.4064157"><ele>105.0</ele><time>2026-04-28T13:15:52.021Z</time></trkpt><trkpt lat="38.5007564" lon="22.4066191"><ele>105.0</ele><time>2026-04-28T13:15:53.023Z</time></trkpt><trkpt lat="38.500544" lon="22.4068217"><ele>103.0</ele><time>2026-04-28T13:15:54.023Z</time></trkpt><trkpt lat="38.5003324" lon="22.4070239"><ele>101.0</ele><time>2026-04-28T13:15:55.022Z</time></trkpt><trkpt lat="38.5001195" lon="22.407227"><ele>100.5</ele><time>2026-04-28T13:15:56.023Z</time></trkpt><trkpt lat="38.499906" lon="22.40743"><ele>100.0</ele><time>2026-04-28T13:15:57.023Z</time></trkpt><trkpt lat="38.4996928" lon="22.4076363"><ele>100.0</ele><time>2026-04-28T13:15:58.022Z</time></trkpt><trkpt lat="38.4994799" lon="22.4078412"><ele>100.0</ele><time>2026-04-28T13:15:59.023Z</time></trkpt><trkpt lat="38.4992683" lon="22.4080454"><ele>99.0</ele><time>2026-04-28T13:16:00.023Z</time></trkpt><trkpt lat="38.4990574" lon="22.40825"><ele>98.0</ele><time>2026-04-28T13:16:01.023Z</time></trkpt><trkpt lat="38.4988477" lon="22.4084538"><ele>98.0</ele><time>2026-04-28T13:16:02.023Z</time></trkpt><trkpt lat="38.498639" lon="22.4086576"><ele>98.0</ele><time>2026-04-28T13:16:03.022Z</time></trkpt><trkpt lat="38.4984273" lon="22.4088633"><ele>98.0</ele><time>2026-04-28T13:16:04.023Z</time></trkpt><trkpt lat="38.4982184" lon="22.4090663"><ele>98.0</ele><time>2026-04-28T13:16:05.022Z</time></trkpt><trkpt lat="38.4980083" lon="22.4092695"><ele>97.0</ele><time>2026-04-28T13:16:06.022Z</time></trkpt><trkpt lat="38.4977975" lon="22.4094721"><ele>96.0</ele><time>2026-04-28T13:16:07.023Z</time></trkpt><trkpt lat="38.4975894" lon="22.409672"><ele>96.0</ele><time>2026-04-28T13:16:08.022Z</time></trkpt><trkpt lat="38.4973823" lon="22.4098722"><ele>96.0</ele><time>2026-04-28T13:16:09.021Z</time></trkpt><trkpt lat="38.4971758" lon="22.410072"><ele>95.0</ele><time>2026-04-28T13:16:10.022Z</time></trkpt><trkpt lat="38.4969687" lon="22.4102704"><ele>94.0</ele><time>2026-04-28T13:16:11.022Z</time></trkpt><trkpt lat="38.4967622" lon="22.4104703"><ele>93.5</ele><time>2026-04-28T13:16:12.022Z</time></trkpt><trkpt lat="38.4965542" lon="22.4106685"><ele>93.0</ele><time>2026-04-28T13:16:13.022Z</time></trkpt><trkpt lat="38.49635" lon="22.4108709"><ele>92.5</ele><time>2026-04-28T13:16:14.023Z</time></trkpt><trkpt lat="38.4961426" lon="22.411067"><ele>92.0</ele><time>2026-04-28T13:16:15.022Z</time></trkpt><trkpt lat="38.4959378" lon="22.4112641"><ele>93.5</ele><time>2026-04-28T13:16:16.021Z</time></trkpt><trkpt lat="38.4957351" lon="22.4114604"><ele>95.0</ele><time>2026-04-28T13:16:17.021Z</time></trkpt><trkpt lat="38.4955349" lon="22.4116546"><ele>93.5</ele><time>2026-04-28T13:16:18.022Z</time></trkpt><trkpt lat="38.495345" lon="22.4118417"><ele>92.0</ele><time>2026-04-28T13:16:19.022Z</time></trkpt><trkpt lat="38.4951741" lon="22.4120088"><ele>91.0</ele><time>2026-04-28T13:16:20.022Z</time></trkpt><trkpt lat="38.4950164" lon="22.4121618"><ele>90.0</ele><time>2026-04-28T13:16:21.023Z</time></trkpt><trkpt lat="38.4948656" lon="22.4123092"><ele>89.0</ele><time>2026-04-28T13:16:22.022Z</time></trkpt><trkpt lat="38.4947174" lon="22.4124504"><ele>89.0</ele><time>2026-04-28T13:16:23.022Z</time></trkpt><trkpt lat="38.4945721" lon="22.4125928"><ele>89.0</ele><time>2026-04-28T13:16:24.023Z</time></trkpt><trkpt lat="38.4944294" lon="22.4127344"><ele>89.0</ele><time>2026-04-28T13:16:25.022Z</time></trkpt><trkpt lat="38.4942854" lon="22.4128726"><ele>89.33333333333334</ele><time>2026-04-28T13:16:26.023Z</time></trkpt><trkpt lat="38.4941476" lon="22.4130061"><ele>89.66666666666667</ele><time>2026-04-28T13:16:27.023Z</time></trkpt><trkpt lat="38.4940158" lon="22.4131343"><ele>90.0</ele><time>2026-04-28T13:16:28.023Z</time></trkpt><trkpt lat="38.4938847" lon="22.4132598"><ele>89.66666666666667</ele><time>2026-04-28T13:16:29.022Z</time></trkpt><trkpt lat="38.4937513" lon="22.4133889"><ele>89.33333333333334</ele><time>2026-04-28T13:16:30.022Z</time></trkpt><trkpt lat="38.4936179" lon="22.4135171"><ele>89.0</ele><time>2026-04-28T13:16:31.022Z</time></trkpt><trkpt lat="38.493486" lon="22.413647"><ele>89.0</ele><time>2026-04-28T13:16:32.022Z</time></trkpt><trkpt lat="38.4933525" lon="22.4137754"><ele>89.0</ele><time>2026-04-28T13:16:33.023Z</time></trkpt><trkpt lat="38.493219" lon="22.4139025"><ele>89.0</ele><time>2026-04-28T13:16:34.023Z</time></trkpt><trkpt lat="38.4930869" lon="22.4140301"><ele>88.66666666666667</ele><time>2026-04-28T13:16:35.023Z</time></trkpt><trkpt lat="38.4929527" lon="22.4141563"><ele>88.33333333333333</ele><time>2026-04-28T13:16:36.023Z</time></trkpt><trkpt lat="38.4928186" lon="22.4142803"><ele>88.0</ele><time>2026-04-28T13:16:37.022Z</time></trkpt><trkpt lat="38.492683" lon="22.4144024"><ele>87.66666666666666</ele><time>2026-04-28T13:16:38.022Z</time></trkpt><trkpt lat="38.4925504" lon="22.4145265"><ele>87.33333333333333</ele><time>2026-04-28T13:16:39.023Z</time></trkpt><trkpt lat="38.4924217" lon="22.414652"><ele>87.0</ele><time>2026-04-28T13:16:40.023Z</time></trkpt><trkpt lat="38.4922894" lon="22.4147811"><ele>87.0</ele><time>2026-04-28T13:16:41.023Z</time></trkpt><trkpt lat="38.492158" lon="22.4149096"><ele>87.0</ele><time>2026-04-28T13:16:42.022Z</time></trkpt><trkpt lat="38.4920268" lon="22.4150339"><ele>87.0</ele><time>2026-04-28T13:16:43.021Z</time></trkpt><trkpt lat="38.4918896" lon="22.4151603"><ele>86.0</ele><time>2026-04-28T13:16:44.021Z</time></trkpt><trkpt lat="38.4917462" lon="22.4152943"><ele>85.0</ele><time>2026-04-28T13:16:45.022Z</time></trkpt><trkpt lat="38.4915984" lon="22.4154389"><ele>84.0</ele><time>2026-04-28T13:16:46.022Z</time></trkpt><trkpt lat="38.4914403" lon="22.4155952"><ele>84.0</ele><time>2026-04-28T13:16:47.022Z</time></trkpt><trkpt lat="38.4912728" lon="22.4157588"><ele>84.0</ele><time>2026-04-28T13:16:48.022Z</time></trkpt><trkpt lat="38.4911005" lon="22.4159276"><ele>84.0</ele><time>2026-04-28T13:16:49.023Z</time></trkpt><trkpt lat="38.4909214" lon="22.4160989"><ele>84.0</ele><time>2026-04-28T13:16:50.022Z</time></trkpt><trkpt lat="38.4907367" lon="22.4162731"><ele>84.0</ele><time>2026-04-28T13:16:51.022Z</time></trkpt><trkpt lat="38.4905509" lon="22.4164529"><ele>82.0</ele><time>2026-04-28T13:16:52.022Z</time></trkpt><trkpt lat="38.4903585" lon="22.4166397"><ele>80.0</ele><time>2026-04-28T13:16:53.022Z</time></trkpt><trkpt lat="38.4901665" lon="22.4168297"><ele>80.0</ele><time>2026-04-28T13:16:54.023Z</time></trkpt><trkpt lat="38.4899702" lon="22.4170198"><ele>80.0</ele><time>2026-04-28T13:16:55.023Z</time></trkpt><trkpt lat="38.4897679" lon="22.4172145"><ele>81.0</ele><time>2026-04-28T13:16:56.023Z</time></trkpt><trkpt lat="38.4895616" lon="22.417412"><ele>82.0</ele><time>2026-04-28T13:16:57.022Z</time></trkpt><trkpt lat="38.4893543" lon="22.4176112"><ele>82.0</ele><time>2026-04-28T13:16:58.022Z</time></trkpt><trkpt lat="38.489145" lon="22.4178108"><ele>82.0</ele><time>2026-04-28T13:16:59.021Z</time></trkpt><trkpt lat="38.4889347" lon="22.4180105"><ele>81.5</ele><time>2026-04-28T13:17:00.021Z</time></trkpt><trkpt lat="38.4887298" lon="22.4182129"><ele>81.0</ele><time>2026-04-28T13:17:01.021Z</time></trkpt><trkpt lat="38.4885212" lon="22.4184162"><ele>81.0</ele><time>2026-04-28T13:17:02.022Z</time></trkpt><trkpt lat="38.4883118" lon="22.4186156"><ele>81.0</ele><time>2026-04-28T13:17:03.023Z</time></trkpt><trkpt lat="38.488104" lon="22.4188141"><ele>80.5</ele><time>2026-04-28T13:17:04.021Z</time></trkpt><trkpt lat="38.4878951" lon="22.4190116"><ele>80.0</ele><time>2026-04-28T13:17:05.022Z</time></trkpt><trkpt lat="38.4876892" lon="22.419209"><ele>80.0</ele><time>2026-04-28T13:17:06.022Z</time></trkpt><trkpt lat="38.4874849" lon="22.4194075"><ele>80.0</ele><time>2026-04-28T13:17:07.023Z</time></trkpt><trkpt lat="38.4872814" lon="22.4196068"><ele>78.5</ele><time>2026-04-28T13:17:08.021Z</time></trkpt><trkpt lat="38.4870799" lon="22.4198035"><ele>77.0</ele><time>2026-04-28T13:17:09.022Z</time></trkpt><trkpt lat="38.4868788" lon="22.4199986"><ele>77.0</ele><time>2026-04-28T13:17:10.022Z</time></trkpt><trkpt lat="38.4866783" lon="22.4201892"><ele>77.0</ele><time>2026-04-28T13:17:11.023Z</time></trkpt><trkpt lat="38.486476" lon="22.420378"><ele>76.5</ele><time>2026-04-28T13:17:12.021Z</time></trkpt><trkpt lat="38.4862725" lon="22.4205686"><ele>76.0</ele><time>2026-04-28T13:17:13.021Z</time></trkpt><trkpt lat="38.4860704" lon="22.4207642"><ele>75.5</ele><time>2026-04-28T13:17:14.022Z</time></trkpt><trkpt lat="38.4858653" lon="22.4209642"><ele>75.0</ele><time>2026-04-28T13:17:15.021Z</time></trkpt><trkpt lat="38.4856557" lon="22.4211643"><ele>74.5</ele><time>2026-04-28T13:17:16.021Z</time></trkpt><trkpt lat="38.485449" lon="22.4213649"><ele>74.0</ele><time>2026-04-28T13:17:17.022Z</time></trkpt><trkpt lat="38.4852478" lon="22.4215669"><ele>74.0</ele><time>2026-04-28T13:17:18.021Z</time></trkpt><trkpt lat="38.4850452" lon="22.4217642"><ele>74.0</ele><time>2026-04-28T13:17:19.022Z</time></trkpt><trkpt lat="38.4848523" lon="22.4219677"><ele>74.0</ele><time>2026-04-28T13:17:20.023Z</time></trkpt><trkpt lat="38.4846761" lon="22.422186"><ele>74.0</ele><time>2026-04-28T13:17:21.023Z</time></trkpt><trkpt lat="38.4845188" lon="22.4224266"><ele>72.5</ele><time>2026-04-28T13:17:22.022Z</time></trkpt><trkpt lat="38.4843831" lon="22.4226893"><ele>71.0</ele><time>2026-04-28T13:17:23.022Z</time></trkpt><trkpt lat="38.4842701" lon="22.4229741"><ele>71.5</ele><time>2026-04-28T13:17:24.022Z</time></trkpt><trkpt lat="38.4841634" lon="22.4232777"><ele>72.0</ele><time>2026-04-28T13:17:25.022Z</time></trkpt><trkpt lat="38.4840625" lon="22.4235889"><ele>72.5</ele><time>2026-04-28T13:17:26.022Z</time></trkpt><trkpt lat="38.4839641" lon="22.4239032"><ele>73.0</ele><time>2026-04-28T13:17:27.021Z</time></trkpt><trkpt lat="38.4838636" lon="22.4242181"><ele>73.0</ele><time>2026-04-28T13:17:28.021Z</time></trkpt><trkpt lat="38.483764" lon="22.4245327"><ele>73.0</ele><time>2026-04-28T13:17:29.023Z</time></trkpt><trkpt lat="38.4836644" lon="22.4248488"><ele>71.5</ele><time>2026-04-28T13:17:30.022Z</time></trkpt><trkpt lat="38.4835649" lon="22.4251655"><ele>70.0</ele><time>2026-04-28T13:17:31.022Z</time></trkpt><trkpt lat="38.4834621" lon="22.4254836"><ele>68.5</ele><time>2026-04-28T13:17:32.022Z</time></trkpt><trkpt lat="38.4833605" lon="22.4258004"><ele>67.0</ele><time>2026-04-28T13:17:33.022Z</time></trkpt><trkpt lat="38.4832587" lon="22.4261199"><ele>70.0</ele><time>2026-04-28T13:17:34.023Z</time></trkpt><trkpt lat="38.4831599" lon="22.4264382"><ele>73.0</ele><time>2026-04-28T13:17:35.023Z</time></trkpt><trkpt lat="38.4830591" lon="22.4267576"><ele>73.0</ele><time>2026-04-28T13:17:36.021Z</time></trkpt><trkpt lat="38.4829582" lon="22.4270776"><ele>73.0</ele><time>2026-04-28T13:17:37.022Z</time></trkpt><trkpt lat="38.4828549" lon="22.4273982"><ele>69.5</ele><time>2026-04-28T13:17:38.022Z</time></trkpt><trkpt lat="38.4827515" lon="22.427721"><ele>66.0</ele><time>2026-04-28T13:17:39.023Z</time></trkpt><trkpt lat="38.4826456" lon="22.4280406"><ele>66.0</ele><time>2026-04-28T13:17:40.023Z</time></trkpt><trkpt lat="38.4825416" lon="22.4283642"><ele>66.0</ele><time>2026-04-28T13:17:41.022Z</time></trkpt><trkpt lat="38.4824392" lon="22.4286908"><ele>67.5</ele><time>2026-04-28T13:17:42.022Z</time></trkpt><trkpt lat="38.4823386" lon="22.4290173"><ele>69.0</ele><time>2026-04-28T13:17:43.023Z</time></trkpt><trkpt lat="38.4822354" lon="22.4293429"><ele>68.0</ele><time>2026-04-28T13:17:44.022Z</time></trkpt><trkpt lat="38.4821325" lon="22.4296651"><ele>67.0</ele><time>2026-04-28T13:17:45.022Z</time></trkpt><trkpt lat="38.4820328" lon="22.4299825"><ele>67.0</ele><time>2026-04-28T13:17:46.022Z</time></trkpt><trkpt lat="38.4819388" lon="22.4302801"><ele>67.0</ele><time>2026-04-28T13:17:47.023Z</time></trkpt><trkpt lat="38.4818463" lon="22.4305723"><ele>65.5</ele><time>2026-04-28T13:17:48.023Z</time></trkpt><trkpt lat="38.4817611" lon="22.4308595"><ele>64.0</ele><time>2026-04-28T13:17:49.021Z</time></trkpt><trkpt lat="38.4816723" lon="22.4311455"><ele>64.0</ele><time>2026-04-28T13:17:50.022Z</time></trkpt><trkpt lat="38.4815861" lon="22.4314288"><ele>64.0</ele><time>2026-04-28T13:17:51.021Z</time></trkpt><trkpt lat="38.4814924" lon="22.4317038"><ele>64.0</ele><time>2026-04-28T13:17:52.022Z</time></trkpt><trkpt lat="38.4814106" lon="22.4319665"><ele>64.0</ele><time>2026-04-28T13:17:53.022Z</time></trkpt><trkpt lat="38.4813303" lon="22.4322251"><ele>64.0</ele><time>2026-04-28T13:17:54.022Z</time></trkpt><trkpt lat="38.4812482" lon="22.4324674"><ele>65.0</ele><time>2026-04-28T13:17:55.023Z</time></trkpt><trkpt lat="38.4811857" lon="22.4327158"><ele>66.0</ele><time>2026-04-28T13:17:56.022Z</time></trkpt><trkpt lat="38.4811174" lon="22.4329468"><ele>67.0</ele><time>2026-04-28T13:17:57.022Z</time></trkpt><trkpt lat="38.4810532" lon="22.433164"><ele>67.0</ele><time>2026-04-28T13:17:58.022Z</time></trkpt><trkpt lat="38.4809826" lon="22.4333567"><ele>67.0</ele><time>2026-04-28T13:17:59.023Z</time></trkpt><trkpt lat="38.4809037" lon="22.4335294"><ele>67.0</ele><time>2026-04-28T13:18:00.022Z</time></trkpt><trkpt lat="38.4807997" lon="22.4336643"><ele>67.0</ele><time>2026-04-28T13:18:01.022Z</time></trkpt><trkpt lat="38.4806808" lon="22.4337738"><ele>67.0</ele><time>2026-04-28T13:18:02.022Z</time></trkpt><trkpt lat="38.4805243" lon="22.4338399"><ele>67.0</ele><time>2026-04-28T13:18:03.022Z</time></trkpt><trkpt lat="38.4803618" lon="22.4338698"><ele>65.0</ele><time>2026-04-28T13:18:04.022Z</time></trkpt><trkpt lat="38.4801915" lon="22.4338703"><ele>63.0</ele><time>2026-04-28T13:18:05.022Z</time></trkpt><trkpt lat="38.4800086" lon="22.4338689"><ele>61.0</ele><time>2026-04-28T13:18:06.022Z</time></trkpt><trkpt lat="38.4798274" lon="22.4338592"><ele>61.0</ele><time>2026-04-28T13:18:07.023Z</time></trkpt><trkpt lat="38.4796449" lon="22.4338519"><ele>61.0</ele><time>2026-04-28T13:18:08.023Z</time></trkpt><trkpt lat="38.479468" lon="22.4338453"><ele>61.0</ele><time>2026-04-28T13:18:09.022Z</time></trkpt><trkpt lat="38.47929" lon="22.43384"><ele>61.0</ele><time>2026-04-28T13:18:10.022Z</time></trkpt><trkpt lat="38.4791142" lon="22.4338319"><ele>61.0</ele><time>2026-04-28T13:18:11.023Z</time></trkpt><trkpt lat="38.4789342" lon="22.4338237"><ele>61.0</ele><time>2026-04-28T13:18:12.022Z</time></trkpt><trkpt lat="38.478748" lon="22.4338135"><ele>60.0</ele><time>2026-04-28T13:18:13.023Z</time></trkpt><trkpt lat="38.4785623" lon="22.4337998"><ele>59.0</ele><time>2026-04-28T13:18:14.022Z</time></trkpt><trkpt lat="38.478377" lon="22.4337857"><ele>58.0</ele><time>2026-04-28T13:18:15.023Z</time></trkpt><trkpt lat="38.4781918" lon="22.4337612"><ele>58.0</ele><time>2026-04-28T13:18:16.022Z</time></trkpt><trkpt lat="38.478008" lon="22.4337643"><ele>58.0</ele><time>2026-04-28T13:18:17.022Z</time></trkpt><trkpt lat="38.4778209" lon="22.4337579"><ele>58.0</ele><time>2026-04-28T13:18:18.023Z</time></trkpt><trkpt lat="38.4776303" lon="22.4337465"><ele>57.666666666666664</ele><time>2026-04-28T13:18:19.023Z</time></trkpt><trkpt lat="38.4774417" lon="22.4337347"><ele>57.33333333333333</ele><time>2026-04-28T13:18:20.022Z</time></trkpt><trkpt lat="38.4772557" lon="22.4337201"><ele>57.0</ele><time>2026-04-28T13:18:21.022Z</time></trkpt><trkpt lat="38.4770708" lon="22.4337104"><ele>56.33333333333333</ele><time>2026-04-28T13:18:22.022Z</time></trkpt><trkpt lat="38.4768767" lon="22.4336964"><ele>55.666666666666664</ele><time>2026-04-28T13:18:23.021Z</time></trkpt><trkpt lat="38.4766822" lon="22.433684"><ele>55.0</ele><time>2026-04-28T13:18:24.022Z</time></trkpt><trkpt lat="38.4764893" lon="22.4336705"><ele>55.0</ele><time>2026-04-28T13:18:25.021Z</time></trkpt><trkpt lat="38.4762916" lon="22.4336571"><ele>55.0</ele><time>2026-04-28T13:18:26.021Z</time></trkpt><trkpt lat="38.4761" lon="22.433649"><ele>55.0</ele><time>2026-04-28T13:18:27.021Z</time></trkpt><trkpt lat="38.4759065" lon="22.4336399"><ele>55.0</ele><time>2026-04-28T13:18:28.023Z</time></trkpt><trkpt lat="38.4757058" lon="22.4336349"><ele>55.0</ele><time>2026-04-28T13:18:29.022Z</time></trkpt><trkpt lat="38.4754921" lon="22.4336259"><ele>55.0</ele><time>2026-04-28T13:18:30.022Z</time></trkpt><trkpt lat="38.4752611" lon="22.4336126"><ele>55.0</ele><time>2026-04-28T13:18:31.022Z</time></trkpt><trkpt lat="38.4750328" lon="22.4336032"><ele>55.0</ele><time>2026-04-28T13:18:32.022Z</time></trkpt><trkpt lat="38.4747913" lon="22.4335932"><ele>52.0</ele><time>2026-04-28T13:18:33.022Z</time></trkpt><trkpt lat="38.4745399" lon="22.4335808"><ele>49.0</ele><time>2026-04-28T13:18:34.022Z</time></trkpt><trkpt lat="38.4742882" lon="22.4335664"><ele>49.0</ele><time>2026-04-28T13:18:35.022Z</time></trkpt><trkpt lat="38.4740339" lon="22.4335542"><ele>49.0</ele><time>2026-04-28T13:18:36.022Z</time></trkpt><trkpt lat="38.4737787" lon="22.4335395"><ele>50.5</ele><time>2026-04-28T13:18:37.022Z</time></trkpt><trkpt lat="38.4735224" lon="22.4335279"><ele>52.0</ele><time>2026-04-28T13:18:38.021Z</time></trkpt><trkpt lat="38.4732705" lon="22.4335166"><ele>52.0</ele><time>2026-04-28T13:18:39.021Z</time></trkpt><trkpt lat="38.473022" lon="22.433502"><ele>52.0</ele><time>2026-04-28T13:18:40.022Z</time></trkpt><trkpt lat="38.47277" lon="22.4334828"><ele>52.0</ele><time>2026-04-28T13:18:41.021Z</time></trkpt><trkpt lat="38.4725208" lon="22.4334703"><ele>52.0</ele><time>2026-04-28T13:18:42.022Z</time></trkpt><trkpt lat="38.4722735" lon="22.4334548"><ele>52.0</ele><time>2026-04-28T13:18:43.022Z</time></trkpt><trkpt lat="38.4720341" lon="22.433441"><ele>52.0</ele><time>2026-04-28T13:18:44.021Z</time></trkpt><trkpt lat="38.4717806" lon="22.4334223"><ele>52.0</ele><time>2026-04-28T13:18:45.022Z</time></trkpt><trkpt lat="38.4715243" lon="22.433408"><ele>52.0</ele><time>2026-04-28T13:18:46.021Z</time></trkpt><trkpt lat="38.4712669" lon="22.4333938"><ele>51.0</ele><time>2026-04-28T13:18:47.022Z</time></trkpt><trkpt lat="38.4710138" lon="22.4333837"><ele>50.0</ele><time>2026-04-28T13:18:48.022Z</time></trkpt><trkpt lat="38.4707602" lon="22.4333721"><ele>50.0</ele><time>2026-04-28T13:18:49.022Z</time></trkpt><trkpt lat="38.470509" lon="22.4333571"><ele>50.0</ele><time>2026-04-28T13:18:50.022Z</time></trkpt><trkpt lat="38.4702528" lon="22.4333419"><ele>49.0</ele><time>2026-04-28T13:18:51.023Z</time></trkpt><trkpt lat="38.4699984" lon="22.4333291"><ele>48.0</ele><time>2026-04-28T13:18:52.022Z</time></trkpt><trkpt lat="38.4697447" lon="22.4333185"><ele>47.5</ele><time>2026-04-28T13:18:53.023Z</time></trkpt><trkpt lat="38.4694882" lon="22.433303"><ele>47.0</ele><time>2026-04-28T13:18:54.022Z</time></trkpt><trkpt lat="38.4692324" lon="22.4332906"><ele>47.0</ele><time>2026-04-28T13:18:55.023Z</time></trkpt><trkpt lat="38.4689741" lon="22.4332799"><ele>47.0</ele><time>2026-04-28T13:18:56.023Z</time></trkpt><trkpt lat="38.4687188" lon="22.4332704"><ele>46.0</ele><time>2026-04-28T13:18:57.022Z</time></trkpt><trkpt lat="38.4684676" lon="22.4332596"><ele>45.0</ele><time>2026-04-28T13:18:58.021Z</time></trkpt><trkpt lat="38.4682135" lon="22.4332499"><ele>45.0</ele><time>2026-04-28T13:18:59.022Z</time></trkpt><trkpt lat="38.467957" lon="22.4332378"><ele>45.0</ele><time>2026-04-28T13:19:00.021Z</time></trkpt><trkpt lat="38.4676985" lon="22.433226"><ele>45.5</ele><time>2026-04-28T13:19:01.022Z</time></trkpt><trkpt lat="38.4674384" lon="22.4332118"><ele>46.0</ele><time>2026-04-28T13:19:02.023Z</time></trkpt><trkpt lat="38.4671809" lon="22.4331953"><ele>44.5</ele><time>2026-04-28T13:19:03.023Z</time></trkpt><trkpt lat="38.4669203" lon="22.4331817"><ele>43.0</ele><time>2026-04-28T13:19:04.023Z</time></trkpt><trkpt lat="38.466657" lon="22.4331708"><ele>43.0</ele><time>2026-04-28T13:19:05.023Z</time></trkpt><trkpt lat="38.4663916" lon="22.4331562"><ele>43.0</ele><time>2026-04-28T13:19:06.022Z</time></trkpt><trkpt lat="38.4661248" lon="22.4331411"><ele>42.0</ele><time>2026-04-28T13:19:07.022Z</time></trkpt><trkpt lat="38.4658585" lon="22.4331272"><ele>41.0</ele><time>2026-04-28T13:19:08.022Z</time></trkpt><trkpt lat="38.4655904" lon="22.4331117"><ele>40.5</ele><time>2026-04-28T13:19:09.022Z</time></trkpt><trkpt lat="38.4653223" lon="22.4330988"><ele>40.0</ele><time>2026-04-28T13:19:10.022Z</time></trkpt><trkpt lat="38.4650551" lon="22.4330833"><ele>40.0</ele><time>2026-04-28T13:19:11.021Z</time></trkpt><trkpt lat="38.4647887" lon="22.4330779"><ele>40.0</ele><time>2026-04-28T13:19:12.021Z</time></trkpt><trkpt lat="38.4645204" lon="22.4330645"><ele>39.5</ele><time>2026-04-28T13:19:13.022Z</time></trkpt><trkpt lat="38.4642489" lon="22.4330462"><ele>39.0</ele><time>2026-04-28T13:19:14.021Z</time></trkpt><trkpt lat="38.4639835" lon="22.4330306"><ele>39.5</ele><time>2026-04-28T13:19:15.021Z</time></trkpt><trkpt lat="38.4637158" lon="22.4330194"><ele>40.0</ele><time>2026-04-28T13:19:16.021Z</time></trkpt><trkpt lat="38.4634523" lon="22.4330015"><ele>40.0</ele><time>2026-04-28T13:19:17.022Z</time></trkpt><trkpt lat="38.4631888" lon="22.4329884"><ele>40.0</ele><time>2026-04-28T13:19:18.023Z</time></trkpt><trkpt lat="38.4629294" lon="22.4329752"><ele>38.5</ele><time>2026-04-28T13:19:19.022Z</time></trkpt><trkpt lat="38.4626718" lon="22.4329635"><ele>37.0</ele><time>2026-04-28T13:19:20.023Z</time></trkpt><trkpt lat="38.4624139" lon="22.432948"><ele>37.0</ele><time>2026-04-28T13:19:21.023Z</time></trkpt><trkpt lat="38.4621564" lon="22.4329328"><ele>37.0</ele><time>2026-04-28T13:19:22.021Z</time></trkpt><trkpt lat="38.461904" lon="22.4329178"><ele>36.5</ele><time>2026-04-28T13:19:23.022Z</time></trkpt><trkpt lat="38.4616517" lon="22.4329055"><ele>36.0</ele><time>2026-04-28T13:19:24.022Z</time></trkpt><trkpt lat="38.4614007" lon="22.4328928"><ele>36.0</ele><time>2026-04-28T13:19:25.022Z</time></trkpt><trkpt lat="38.4611472" lon="22.432878"><ele>36.0</ele><time>2026-04-28T13:19:26.022Z</time></trkpt><trkpt lat="38.4608996" lon="22.4328687"><ele>36.0</ele><time>2026-04-28T13:19:27.021Z</time></trkpt><trkpt lat="38.4606558" lon="22.4328579"><ele>36.0</ele><time>2026-04-28T13:19:28.022Z</time></trkpt><trkpt lat="38.4604094" lon="22.4328477"><ele>39.0</ele><time>2026-04-28T13:19:29.023Z</time></trkpt><trkpt lat="38.4601711" lon="22.4328407"><ele>42.0</ele><time>2026-04-28T13:19:30.023Z</time></trkpt><trkpt lat="38.4599306" lon="22.432825"><ele>42.0</ele><time>2026-04-28T13:19:31.023Z</time></trkpt><trkpt lat="38.459692" lon="22.4328124"><ele>42.0</ele><time>2026-04-28T13:19:32.023Z</time></trkpt><trkpt lat="38.4594558" lon="22.4327997"><ele>37.0</ele><time>2026-04-28T13:19:33.022Z</time></trkpt><trkpt lat="38.4592215" lon="22.4327857"><ele>32.0</ele><time>2026-04-28T13:19:34.021Z</time></trkpt><trkpt lat="38.4589859" lon="22.4327712"><ele>32.0</ele><time>2026-04-28T13:19:35.023Z</time></trkpt><trkpt lat="38.4587521" lon="22.4327597"><ele>32.0</ele><time>2026-04-28T13:19:36.022Z</time></trkpt><trkpt lat="38.4585232" lon="22.4327503"><ele>32.0</ele><time>2026-04-28T13:19:37.022Z</time></trkpt><trkpt lat="38.4582962" lon="22.4327444"><ele>32.0</ele><time>2026-04-28T13:19:38.021Z</time></trkpt><trkpt lat="38.4580654" lon="22.4327387"><ele>32.5</ele><time>2026-04-28T13:19:39.022Z</time></trkpt><trkpt lat="38.457831" lon="22.4327433"><ele>33.0</ele><time>2026-04-28T13:19:40.021Z</time></trkpt><trkpt lat="38.4575948" lon="22.4327585"><ele>33.0</ele><time>2026-04-28T13:19:41.021Z</time></trkpt><trkpt lat="38.4573618" lon="22.4327846"><ele>33.0</ele><time>2026-04-28T13:19:42.022Z</time></trkpt><trkpt lat="38.4571231" lon="22.432835"><ele>33.0</ele><time>2026-04-28T13:19:43.022Z</time></trkpt><trkpt lat="38.456886" lon="22.4329052"><ele>33.0</ele><time>2026-04-28T13:19:44.023Z</time></trkpt><trkpt lat="38.4566516" lon="22.4329941"><ele>33.0</ele><time>2026-04-28T13:19:45.023Z</time></trkpt><trkpt lat="38.4564194" lon="22.4331018"><ele>33.0</ele><time>2026-04-28T13:19:46.022Z</time></trkpt><trkpt lat="38.4561918" lon="22.4332253"><ele>33.0</ele><time>2026-04-28T13:19:47.022Z</time></trkpt><trkpt lat="38.4559676" lon="22.4333621"><ele>33.0</ele><time>2026-04-28T13:19:48.023Z</time></trkpt><trkpt lat="38.4557521" lon="22.4335077"><ele>33.0</ele><time>2026-04-28T13:19:49.022Z</time></trkpt><trkpt lat="38.4555484" lon="22.433662"><ele>33.0</ele><time>2026-04-28T13:19:50.022Z</time></trkpt><trkpt lat="38.4553538" lon="22.4338215"><ele>33.0</ele><time>2026-04-28T13:19:51.021Z</time></trkpt><trkpt lat="38.4551702" lon="22.4339874"><ele>33.0</ele><time>2026-04-28T13:19:52.023Z</time></trkpt><trkpt lat="38.4550151" lon="22.4341465"><ele>33.0</ele><time>2026-04-28T13:19:53.022Z</time></trkpt><trkpt lat="38.4548756" lon="22.4343086"><ele>33.0</ele><time>2026-04-28T13:19:54.023Z</time></trkpt><trkpt lat="38.4547516" lon="22.4344696"><ele>33.0</ele><time>2026-04-28T13:19:55.023Z</time></trkpt><trkpt lat="38.454641" lon="22.4346242"><ele>33.0</ele><time>2026-04-28T13:19:56.022Z</time></trkpt><trkpt lat="38.4545469" lon="22.4347613"><ele>33.5</ele><time>2026-04-28T13:19:57.023Z</time></trkpt><trkpt lat="38.4544649" lon="22.4348974"><ele>34.0</ele><time>2026-04-28T13:19:58.023Z</time></trkpt><trkpt lat="38.4543936" lon="22.4350387"><ele>34.5</ele><time>2026-04-28T13:19:59.023Z</time></trkpt><trkpt lat="38.4543311" lon="22.4351777"><ele>35.0</ele><time>2026-04-28T13:20:00.022Z</time></trkpt><trkpt lat="38.4542783" lon="22.4353232"><ele>35.0</ele><time>2026-04-28T13:20:01.022Z</time></trkpt><trkpt lat="38.4542261" lon="22.4354632"><ele>35.0</ele><time>2026-04-28T13:20:02.021Z</time></trkpt><trkpt lat="38.4541755" lon="22.4356103"><ele>35.0</ele><time>2026-04-28T13:20:03.022Z</time></trkpt><trkpt lat="38.4541207" lon="22.4357497"><ele>35.0</ele><time>2026-04-28T13:20:04.022Z</time></trkpt><trkpt lat="38.4540623" lon="22.4359014"><ele>34.25</ele><time>2026-04-28T13:20:05.022Z</time></trkpt><trkpt lat="38.4539984" lon="22.4360484"><ele>33.5</ele><time>2026-04-28T13:20:06.022Z</time></trkpt><trkpt lat="38.4539229" lon="22.436187"><ele>32.75</ele><time>2026-04-28T13:20:07.022Z</time></trkpt><trkpt lat="38.4538242" lon="22.4362943"><ele>32.0</ele><time>2026-04-28T13:20:08.022Z</time></trkpt><trkpt lat="38.4537059" lon="22.4363704"><ele>31.0</ele><time>2026-04-28T13:20:09.023Z</time></trkpt><trkpt lat="38.4535758" lon="22.4364281"><ele>30.0</ele><time>2026-04-28T13:20:10.023Z</time></trkpt><trkpt lat="38.453386" lon="22.436407"><ele>29.0</ele><time>2026-04-28T13:20:11.023Z</time></trkpt><trkpt lat="38.4532047" lon="22.4363698"><ele>29.0</ele><time>2026-04-28T13:20:12.023Z</time></trkpt><trkpt lat="38.4530111" lon="22.4363357"><ele>29.0</ele><time>2026-04-28T13:20:13.022Z</time></trkpt><trkpt lat="38.4528128" lon="22.4362948"><ele>29.0</ele><time>2026-04-28T13:20:14.023Z</time></trkpt><trkpt lat="38.4526008" lon="22.436253"><ele>30.0</ele><time>2026-04-28T13:20:15.022Z</time></trkpt><trkpt lat="38.4523783" lon="22.4362106"><ele>31.0</ele><time>2026-04-28T13:20:16.021Z</time></trkpt><trkpt lat="38.4521529" lon="22.4361685"><ele>29.5</ele><time>2026-04-28T13:20:17.022Z</time></trkpt><trkpt lat="38.4519194" lon="22.4361199"><ele>28.0</ele><time>2026-04-28T13:20:18.022Z</time></trkpt><trkpt lat="38.451681" lon="22.4360728"><ele>28.0</ele><time>2026-04-28T13:20:19.023Z</time></trkpt><trkpt lat="38.4514376" lon="22.4360242"><ele>28.0</ele><time>2026-04-28T13:20:20.021Z</time></trkpt><trkpt lat="38.451195" lon="22.4359785"><ele>28.5</ele><time>2026-04-28T13:20:21.022Z</time></trkpt><trkpt lat="38.4509544" lon="22.435935"><ele>29.0</ele><time>2026-04-28T13:20:22.022Z</time></trkpt><trkpt lat="38.4507108" lon="22.4358899"><ele>29.0</ele><time>2026-04-28T13:20:23.021Z</time></trkpt><trkpt lat="38.4504691" lon="22.4358422"><ele>29.0</ele><time>2026-04-28T13:20:24.021Z</time></trkpt><trkpt lat="38.4502254" lon="22.4357937"><ele>27.5</ele><time>2026-04-28T13:20:25.02Z</time></trkpt><trkpt lat="38.449986" lon="22.4357469"><ele>26.0</ele><time>2026-04-28T13:20:26.02Z</time></trkpt><trkpt lat="38.4497441" lon="22.4356998"><ele>25.0</ele><time>2026-04-28T13:20:27.021Z</time></trkpt><trkpt lat="38.4495012" lon="22.4356514"><ele>24.0</ele><time>2026-04-28T13:20:28.02Z</time></trkpt><trkpt lat="38.4492699" lon="22.4356052"><ele>24.0</ele><time>2026-04-28T13:20:29.02Z</time></trkpt><trkpt lat="38.4490436" lon="22.435555"><ele>24.0</ele><time>2026-04-28T13:20:30.021Z</time></trkpt><trkpt lat="38.4488234" lon="22.435496"><ele>23.5</ele><time>2026-04-28T13:20:31.022Z</time></trkpt><trkpt lat="38.4486052" lon="22.4354299"><ele>23.0</ele><time>2026-04-28T13:20:32.022Z</time></trkpt><trkpt lat="38.4483824" lon="22.4353625"><ele>23.0</ele><time>2026-04-28T13:20:33.021Z</time></trkpt><trkpt lat="38.4481641" lon="22.4352844"><ele>23.0</ele><time>2026-04-28T13:20:34.021Z</time></trkpt><trkpt lat="38.4479407" lon="22.4352033"><ele>21.0</ele><time>2026-04-28T13:20:35.022Z</time></trkpt><trkpt lat="38.4477182" lon="22.4351142"><ele>19.0</ele><time>2026-04-28T13:20:36.022Z</time></trkpt><trkpt lat="38.4474912" lon="22.4350307"><ele>19.0</ele><time>2026-04-28T13:20:37.021Z</time></trkpt><trkpt lat="38.4472563" lon="22.4349515"><ele>19.0</ele><time>2026-04-28T13:20:38.021Z</time></trkpt><trkpt lat="38.4470153" lon="22.4348687"><ele>20.5</ele><time>2026-04-28T13:20:39.021Z</time></trkpt><trkpt lat="38.4467763" lon="22.434785"><ele>22.0</ele><time>2026-04-28T13:20:40.022Z</time></trkpt><trkpt lat="38.4465329" lon="22.4346977"><ele>21.0</ele><time>2026-04-28T13:20:41.022Z</time></trkpt><trkpt lat="38.4462865" lon="22.4346154"><ele>20.0</ele><time>2026-04-28T13:20:42.02Z</time></trkpt><trkpt lat="38.446037" lon="22.434529"><ele>20.0</ele><time>2026-04-28T13:20:43.022Z</time></trkpt><trkpt lat="38.4457845" lon="22.4344411"><ele>20.0</ele><time>2026-04-28T13:20:44.022Z</time></trkpt><trkpt lat="38.4455289" lon="22.4343513"><ele>18.5</ele><time>2026-04-28T13:20:45.022Z</time></trkpt><trkpt lat="38.4452717" lon="22.4342622"><ele>17.0</ele><time>2026-04-28T13:20:46.02Z</time></trkpt><trkpt lat="38.4450141" lon="22.434173"><ele>17.0</ele><time>2026-04-28T13:20:47.022Z</time></trkpt><trkpt lat="38.4447571" lon="22.4340785"><ele>17.0</ele><time>2026-04-28T13:20:48.022Z</time></trkpt><trkpt lat="38.4445007" lon="22.4339869"><ele>17.5</ele><time>2026-04-28T13:20:49.022Z</time></trkpt><trkpt lat="38.4442444" lon="22.4338998"><ele>18.0</ele><time>2026-04-28T13:20:50.022Z</time></trkpt><trkpt lat="38.4439881" lon="22.4338121"><ele>18.0</ele><time>2026-04-28T13:20:51.021Z</time></trkpt><trkpt lat="38.4437272" lon="22.4337204"><ele>18.0</ele><time>2026-04-28T13:20:52.022Z</time></trkpt><trkpt lat="38.4434728" lon="22.4336315"><ele>18.0</ele><time>2026-04-28T13:20:53.021Z</time></trkpt><trkpt lat="38.4432172" lon="22.4335454"><ele>18.0</ele><time>2026-04-28T13:20:54.021Z</time></trkpt><trkpt lat="38.4429624" lon="22.4334567"><ele>17.0</ele><time>2026-04-28T13:20:55.021Z</time></trkpt><trkpt lat="38.4427114" lon="22.4333661"><ele>16.0</ele><time>2026-04-28T13:20:56.021Z</time></trkpt><trkpt lat="38.442467" lon="22.433286"><ele>16.0</ele><time>2026-04-28T13:20:57.021Z</time></trkpt><trkpt lat="38.4422182" lon="22.433202"><ele>16.0</ele><time>2026-04-28T13:20:58.021Z</time></trkpt><trkpt lat="38.4419677" lon="22.4331183"><ele>16.5</ele><time>2026-04-28T13:20:59.02Z</time></trkpt><trkpt lat="38.4417181" lon="22.4330306"><ele>17.0</ele><time>2026-04-28T13:21:00.02Z</time></trkpt><trkpt lat="38.4414648" lon="22.4329427"><ele>16.0</ele><time>2026-04-28T13:21:01.021Z</time></trkpt><trkpt lat="38.4412255" lon="22.4328615"><ele>15.0</ele><time>2026-04-28T13:21:02.02Z</time></trkpt><trkpt lat="38.4409829" lon="22.4327775"><ele>15.0</ele><time>2026-04-28T13:21:03.022Z</time></trkpt><trkpt lat="38.4407426" lon="22.4326904"><ele>15.0</ele><time>2026-04-28T13:21:04.021Z</time></trkpt><trkpt lat="38.4405063" lon="22.4326082"><ele>14.5</ele><time>2026-04-28T13:21:05.021Z</time></trkpt><trkpt lat="38.4402709" lon="22.432528"><ele>14.0</ele><time>2026-04-28T13:21:06.021Z</time></trkpt><trkpt lat="38.4400325" lon="22.4324474"><ele>14.0</ele><time>2026-04-28T13:21:07.021Z</time></trkpt><trkpt lat="38.4397991" lon="22.4323626"><ele>14.0</ele><time>2026-04-28T13:21:08.022Z</time></trkpt><trkpt lat="38.4395789" lon="22.432269"><ele>15.0</ele><time>2026-04-28T13:21:09.02Z</time></trkpt><trkpt lat="38.4393735" lon="22.432169"><ele>16.0</ele><time>2026-04-28T13:21:10.021Z</time></trkpt><trkpt lat="38.4391793" lon="22.4320647"><ele>17.0</ele><time>2026-04-28T13:21:11.021Z</time></trkpt><trkpt lat="38.438999" lon="22.431947"><ele>18.0</ele><time>2026-04-28T13:21:12.022Z</time></trkpt><trkpt lat="38.4388278" lon="22.4318226"><ele>19.0</ele><time>2026-04-28T13:21:13.021Z</time></trkpt><trkpt lat="38.4386706" lon="22.4316781"><ele>20.0</ele><time>2026-04-28T13:21:14.021Z</time></trkpt><trkpt lat="38.4385224" lon="22.4315249"><ele>17.333333333333336</ele><time>2026-04-28T13:21:15.021Z</time></trkpt><trkpt lat="38.4383831" lon="22.4313574"><ele>14.666666666666668</ele><time>2026-04-28T13:21:16.022Z</time></trkpt><trkpt lat="38.4382439" lon="22.4311826"><ele>12.0</ele><time>2026-04-28T13:21:17.022Z</time></trkpt><trkpt lat="38.4381189" lon="22.4310002"><ele>12.0</ele><time>2026-04-28T13:21:18.021Z</time></trkpt><trkpt lat="38.4380076" lon="22.4308168"><ele>12.0</ele><time>2026-04-28T13:21:19.02Z</time></trkpt><trkpt lat="38.4379035" lon="22.4306386"><ele>12.0</ele><time>2026-04-28T13:21:20.02Z</time></trkpt><trkpt lat="38.4378004" lon="22.4304714"><ele>11.75</ele><time>2026-04-28T13:21:21.021Z</time></trkpt><trkpt lat="38.4377009" lon="22.4303116"><ele>11.5</ele><time>2026-04-28T13:21:22.021Z</time></trkpt><trkpt lat="38.4376087" lon="22.4301616"><ele>11.25</ele><time>2026-04-28T13:21:23.02Z</time></trkpt><trkpt lat="38.4375222" lon="22.4300215"><ele>11.0</ele><time>2026-04-28T13:21:24.021Z</time></trkpt><trkpt lat="38.4374399" lon="22.4298895"><ele>11.0</ele><time>2026-04-28T13:21:25.021Z</time></trkpt><trkpt lat="38.4373689" lon="22.4297714"><ele>11.0</ele><time>2026-04-28T13:21:26.02Z</time></trkpt><trkpt lat="38.4372963" lon="22.4296368"><ele>11.0</ele><time>2026-04-28T13:21:27.02Z</time></trkpt><trkpt lat="38.4372172" lon="22.4295044"><ele>11.0</ele><time>2026-04-28T13:21:28.02Z</time></trkpt><trkpt lat="38.4371398" lon="22.4293787"><ele>10.25</ele><time>2026-04-28T13:21:29.021Z</time></trkpt><trkpt lat="38.4370531" lon="22.4292432"><ele>9.5</ele><time>2026-04-28T13:21:30.022Z</time></trkpt><trkpt lat="38.4369714" lon="22.4291022"><ele>8.75</ele><time>2026-04-28T13:21:31.022Z</time></trkpt><trkpt lat="38.4368847" lon="22.4289613"><ele>8.0</ele><time>2026-04-28T13:21:32.022Z</time></trkpt><trkpt lat="38.4367989" lon="22.4288146"><ele>8.0</ele><time>2026-04-28T13:21:33.022Z</time></trkpt><trkpt lat="38.4367081" lon="22.4286776"><ele>8.0</ele><time>2026-04-28T13:21:34.021Z</time></trkpt><trkpt lat="38.4366235" lon="22.42854"><ele>8.0</ele><time>2026-04-28T13:21:35.022Z</time></trkpt><trkpt lat="38.4365481" lon="22.4284012"><ele>8.0</ele><time>2026-04-28T13:21:36.02Z</time></trkpt><trkpt lat="38.4364717" lon="22.4282755"><ele>8.0</ele><time>2026-04-28T13:21:37.021Z</time></trkpt><trkpt lat="38.4363946" lon="22.4281545"><ele>8.0</ele><time>2026-04-28T13:21:38.021Z</time></trkpt><trkpt lat="38.4363247" lon="22.4280417"><ele>8.0</ele><time>2026-04-28T13:21:39.021Z</time></trkpt><trkpt lat="38.4362583" lon="22.4279341"><ele>8.0</ele><time>2026-04-28T13:21:40.021Z</time></trkpt><trkpt lat="38.4361895" lon="22.427824"><ele>8.25</ele><time>2026-04-28T13:21:41.021Z</time></trkpt><trkpt lat="38.4361182" lon="22.4277086"><ele>8.5</ele><time>2026-04-28T13:21:42.021Z</time></trkpt><trkpt lat="38.4360461" lon="22.4275939"><ele>8.75</ele><time>2026-04-28T13:21:43.02Z</time></trkpt><trkpt lat="38.4359788" lon="22.4274759"><ele>9.0</ele><time>2026-04-28T13:21:44.021Z</time></trkpt><trkpt lat="38.4359134" lon="22.4273589"><ele>9.0</ele><time>2026-04-28T13:21:45.021Z</time></trkpt><trkpt lat="38.4358556" lon="22.427241"><ele>9.0</ele><time>2026-04-28T13:21:46.022Z</time></trkpt><trkpt lat="38.4357937" lon="22.4271301"><ele>9.0</ele><time>2026-04-28T13:21:47.02Z</time></trkpt><trkpt lat="38.435745" lon="22.4270197"><ele>9.0</ele><time>2026-04-28T13:21:48.021Z</time></trkpt><trkpt lat="38.4357" lon="22.4269146"><ele>9.0</ele><time>2026-04-28T13:21:49.02Z</time></trkpt><trkpt lat="38.4356619" lon="22.4268147"><ele>8.8</ele><time>2026-04-28T13:21:50.021Z</time></trkpt><trkpt lat="38.4356292" lon="22.4267235"><ele>8.600000000000001</ele><time>2026-04-28T13:21:51.022Z</time></trkpt><trkpt lat="38.4356026" lon="22.426647"><ele>8.4</ele><time>2026-04-28T13:21:52.021Z</time></trkpt><trkpt lat="38.4355606" lon="22.4265092"><ele>8.200000000000001</ele><time>2026-04-28T13:21:54.021Z</time></trkpt><trkpt lat="38.4354904" lon="22.4264013"><ele>8.0</ele><time>2026-04-28T13:21:56.022Z</time></trkpt><trkpt lat="38.4353859" lon="22.4263649"><ele>7.833333333333333</ele><time>2026-04-28T13:21:58.022Z</time></trkpt><trkpt lat="38.4352846" lon="22.4263295"><ele>7.666666666666666</ele><time>2026-04-28T13:22:00.021Z</time></trkpt><trkpt lat="38.4352039" lon="22.426293"><ele>7.5</ele><time>2026-04-28T13:22:02.021Z</time></trkpt><trkpt lat="38.4351826" lon="22.4262027"><ele>7.333333333333334</ele><time>2026-04-28T13:22:05.022Z</time></trkpt><trkpt lat="38.4352609" lon="22.426231"><ele>7.166666666666667</ele><time>2026-04-28T13:27:55.02Z</time></trkpt><trkpt lat="38.4352965" lon="22.4263051"><ele>7.0</ele><time>2026-04-28T13:30:46.021Z</time></trkpt><trkpt lat="38.4353878" lon="22.4262114"><ele>7.0</ele><time>2026-04-28T13:33:54.023Z</time></trkpt><trkpt lat="38.4354155" lon="22.4261219"><ele>6.999999999999999</ele><time>2026-04-28T13:33:55.024Z</time></trkpt><trkpt lat="38.4354673" lon="22.4260318"><ele>6.999999999999999</ele><time>2026-04-28T13:33:57.024Z</time></trkpt><trkpt lat="38.4355387" lon="22.4259386"><ele>7.0</ele><time>2026-04-28T13:33:59.023Z</time></trkpt><trkpt lat="38.435579" lon="22.4258759"><ele>7.0</ele><time>2026-04-28T13:34:00.023Z</time></trkpt><trkpt lat="38.4356309" lon="22.4257268"><ele>7.166666666666667</ele><time>2026-04-28T13:34:02.023Z</time></trkpt><trkpt lat="38.4356541" lon="22.4256395"><ele>7.333333333333334</ele><time>2026-04-28T13:34:03.024Z</time></trkpt><trkpt lat="38.4357069" lon="22.4255256"><ele>7.5</ele><time>2026-04-28T13:34:05.023Z</time></trkpt><trkpt lat="38.4357509" lon="22.4254624"><ele>7.666666666666666</ele><time>2026-04-28T13:34:07.024Z</time></trkpt><trkpt lat="38.4357849" lon="22.4253886"><ele>7.833333333333333</ele><time>2026-04-28T13:34:09.023Z</time></trkpt><trkpt lat="38.4358299" lon="22.4253118"><ele>8.0</ele><time>2026-04-28T13:34:12.024Z</time></trkpt><trkpt lat="38.4358999" lon="22.425231"><ele>7.499999999999999</ele><time>2026-04-28T13:34:16.023Z</time></trkpt><trkpt lat="38.4359538" lon="22.4251698"><ele>7.0</ele><time>2026-04-28T13:34:18.023Z</time></trkpt><trkpt lat="38.4360119" lon="22.4251016"><ele>6.5</ele><time>2026-04-28T13:34:20.024Z</time></trkpt><trkpt lat="38.4360689" lon="22.425029"><ele>6.0</ele><time>2026-04-28T13:34:22.023Z</time></trkpt><trkpt lat="38.4361305" lon="22.4249651"><ele>5.5</ele><time>2026-04-28T13:34:24.023Z</time></trkpt><trkpt lat="38.4361915" lon="22.4249041"><ele>5.0</ele><time>2026-04-28T13:34:26.023Z</time></trkpt><trkpt lat="38.4362493" lon="22.4248402"><ele>5.166666666666667</ele><time>2026-04-28T13:34:28.024Z</time></trkpt><trkpt lat="38.4363061" lon="22.4247782"><ele>5.333333333333334</ele><time>2026-04-28T13:34:30.023Z</time></trkpt><trkpt lat="38.4363668" lon="22.4247167"><ele>5.5</ele><time>2026-04-28T13:34:32.023Z</time></trkpt><trkpt lat="38.43646" lon="22.4246287"><ele>5.666666666666667</ele><time>2026-04-28T13:34:34.024Z</time></trkpt><trkpt lat="38.4365146" lon="22.4245686"><ele>5.833333333333333</ele><time>2026-04-28T13:34:35.023Z</time></trkpt><trkpt lat="38.4365677" lon="22.4245153"><ele>6.0</ele><time>2026-04-28T13:34:36.024Z</time></trkpt><trkpt lat="38.4366182" lon="22.4244551"><ele>5.6</ele><time>2026-04-28T13:34:37.023Z</time></trkpt><trkpt lat="38.4367017" lon="22.4243545"><ele>5.199999999999999</ele><time>2026-04-28T13:34:39.024Z</time></trkpt><trkpt lat="38.4367665" lon="22.4242722"><ele>4.800000000000001</ele><time>2026-04-28T13:34:41.024Z</time></trkpt><trkpt lat="38.4368426" lon="22.4241747"><ele>4.4</ele><time>2026-04-28T13:34:43.023Z</time></trkpt><trkpt lat="38.4368964" lon="22.4241182"><ele>4.0</ele><time>2026-04-28T13:34:44.024Z</time></trkpt><trkpt lat="38.4369562" lon="22.4240545"><ele>4.0</ele><time>2026-04-28T13:34:45.023Z</time></trkpt><trkpt lat="38.4370228" lon="22.4239853"><ele>4.0</ele><time>2026-04-28T13:34:46.024Z</time></trkpt><trkpt lat="38.4370966" lon="22.4239135"><ele>4.0</ele><time>2026-04-28T13:34:47.023Z</time></trkpt><trkpt lat="38.437175" lon="22.4238369"><ele>4.0</ele><time>2026-04-28T13:34:48.023Z</time></trkpt><trkpt lat="38.4372492" lon="22.4237599"><ele>4.0</ele><time>2026-04-28T13:34:49.024Z</time></trkpt><trkpt lat="38.4373206" lon="22.423687"><ele>3.9999999999999996</ele><time>2026-04-28T13:34:50.024Z</time></trkpt><trkpt lat="38.4373931" lon="22.4236165"><ele>4.0</ele><time>2026-04-28T13:34:51.023Z</time></trkpt><trkpt lat="38.437462" lon="22.4235464"><ele>4.0</ele><time>2026-04-28T13:34:52.024Z</time></trkpt><trkpt lat="38.43753" lon="22.4234778"><ele>4.0</ele><time>2026-04-28T13:34:53.024Z</time></trkpt><trkpt lat="38.4375977" lon="22.4234088"><ele>3.9999999999999996</ele><time>2026-04-28T13:34:54.023Z</time></trkpt><trkpt lat="38.4376675" lon="22.4233411"><ele>4.0</ele><time>2026-04-28T13:34:55.024Z</time></trkpt><trkpt lat="38.4377389" lon="22.4232678"><ele>4.0</ele><time>2026-04-28T13:34:56.024Z</time></trkpt><trkpt lat="38.4378119" lon="22.4231896"><ele>4.0</ele><time>2026-04-28T13:34:57.024Z</time></trkpt><trkpt lat="38.4378918" lon="22.423108"><ele>4.0</ele><time>2026-04-28T13:34:58.023Z</time></trkpt><trkpt lat="38.4379779" lon="22.4230225"><ele>4.0</ele><time>2026-04-28T13:34:59.023Z</time></trkpt><trkpt lat="38.4380692" lon="22.4229373"><ele>4.0</ele><time>2026-04-28T13:35:00.024Z</time></trkpt><trkpt lat="38.4381633" lon="22.4228433"><ele>3.5</ele><time>2026-04-28T13:35:01.023Z</time></trkpt><trkpt lat="38.4382634" lon="22.4227402"><ele>3.0</ele><time>2026-04-28T13:35:02.023Z</time></trkpt><trkpt lat="38.4383677" lon="22.422631"><ele>2.5</ele><time>2026-04-28T13:35:03.023Z</time></trkpt><trkpt lat="38.4384775" lon="22.4225198"><ele>2.0</ele><time>2026-04-28T13:35:04.024Z</time></trkpt><trkpt lat="38.4385926" lon="22.4224001"><ele>2.0</ele><time>2026-04-28T13:35:05.023Z</time></trkpt><trkpt lat="38.4387099" lon="22.4222793"><ele>2.0</ele><time>2026-04-28T13:35:06.024Z</time></trkpt><trkpt lat="38.4388293" lon="22.4221585"><ele>2.0</ele><time>2026-04-28T13:35:07.023Z</time></trkpt><trkpt lat="38.4389488" lon="22.4220382"><ele>2.25</ele><time>2026-04-28T13:35:08.024Z</time></trkpt><trkpt lat="38.4390664" lon="22.4219156"><ele>2.5</ele><time>2026-04-28T13:35:09.024Z</time></trkpt><trkpt lat="38.4391841" lon="22.4217961"><ele>2.75</ele><time>2026-04-28T13:35:10.023Z</time></trkpt><trkpt lat="38.439295" lon="22.4216792"><ele>3.0</ele><time>2026-04-28T13:35:11.023Z</time></trkpt><trkpt lat="38.4394039" lon="22.4215645"><ele>3.0</ele><time>2026-04-28T13:35:12.023Z</time></trkpt><trkpt lat="38.4395112" lon="22.4214555"><ele>3.0</ele><time>2026-04-28T13:35:13.024Z</time></trkpt><trkpt lat="38.4396173" lon="22.4213489"><ele>3.0</ele><time>2026-04-28T13:35:14.024Z</time></trkpt><trkpt lat="38.439725" lon="22.4212396"><ele>3.0</ele><time>2026-04-28T13:35:15.023Z</time></trkpt><trkpt lat="38.4398366" lon="22.421123"><ele>3.0</ele><time>2026-04-28T13:35:16.024Z</time></trkpt><trkpt lat="38.4399532" lon="22.4210036"><ele>3.0</ele><time>2026-04-28T13:35:17.024Z</time></trkpt><trkpt lat="38.4400599" lon="22.4208831"><ele>3.0</ele><time>2026-04-28T13:35:18.024Z</time></trkpt><trkpt lat="38.440161" lon="22.4207557"><ele>3.0</ele><time>2026-04-28T13:35:19.023Z</time></trkpt><trkpt lat="38.440262" lon="22.4206177"><ele>3.25</ele><time>2026-04-28T13:35:20.024Z</time></trkpt><trkpt lat="38.4403556" lon="22.4204679"><ele>3.5</ele><time>2026-04-28T13:35:21.023Z</time></trkpt><trkpt lat="38.4404536" lon="22.4203229"><ele>3.75</ele><time>2026-04-28T13:35:22.023Z</time></trkpt><trkpt lat="38.4405513" lon="22.4201804"><ele>4.0</ele><time>2026-04-28T13:35:23.024Z</time></trkpt><trkpt lat="38.4406505" lon="22.4200196"><ele>4.666666666666666</ele><time>2026-04-28T13:35:24.023Z</time></trkpt><trkpt lat="38.4407478" lon="22.4198667"><ele>5.333333333333333</ele><time>2026-04-28T13:35:25.024Z</time></trkpt><trkpt lat="38.4408425" lon="22.4197046"><ele>6.0</ele><time>2026-04-28T13:35:26.023Z</time></trkpt><trkpt lat="38.4409399" lon="22.4195441"><ele>4.666666666666667</ele><time>2026-04-28T13:35:27.024Z</time></trkpt><trkpt lat="38.4410387" lon="22.4193853"><ele>3.333333333333333</ele><time>2026-04-28T13:35:28.024Z</time></trkpt><trkpt lat="38.4411412" lon="22.4192237"><ele>2.0</ele><time>2026-04-28T13:35:29.023Z</time></trkpt><trkpt lat="38.4412497" lon="22.4190582"><ele>2.6666666666666665</ele><time>2026-04-28T13:35:30.024Z</time></trkpt><trkpt lat="38.4413761" lon="22.4188962"><ele>3.333333333333333</ele><time>2026-04-28T13:35:31.024Z</time></trkpt><trkpt lat="38.4415253" lon="22.4187354"><ele>4.0</ele><time>2026-04-28T13:35:32.023Z</time></trkpt><trkpt lat="38.4416788" lon="22.4185881"><ele>4.0</ele><time>2026-04-28T13:35:33.024Z</time></trkpt><trkpt lat="38.4418475" lon="22.418463"><ele>4.0</ele><time>2026-04-28T13:35:34.024Z</time></trkpt><trkpt lat="38.4420259" lon="22.4183509"><ele>4.0</ele><time>2026-04-28T13:35:35.023Z</time></trkpt><trkpt lat="38.4422191" lon="22.418233"><ele>2.6666666666666665</ele><time>2026-04-28T13:35:36.023Z</time></trkpt><trkpt lat="38.4423989" lon="22.418127"><ele>1.3333333333333333</ele><time>2026-04-28T13:35:37.023Z</time></trkpt><trkpt lat="38.4425665" lon="22.4180328"><ele>0.0</ele><time>2026-04-28T13:35:38.023Z</time></trkpt><trkpt lat="38.4427264" lon="22.4179451"><ele>0.0</ele><time>2026-04-28T13:35:39.024Z</time></trkpt><trkpt lat="38.4428831" lon="22.417862"><ele>0.0</ele><time>2026-04-28T13:35:40.024Z</time></trkpt><trkpt lat="38.4430385" lon="22.4177847"><ele>0.0</ele><time>2026-04-28T13:35:41.024Z</time></trkpt><trkpt lat="38.4431919" lon="22.4177306"><ele>0.6666666666666666</ele><time>2026-04-28T13:35:42.023Z</time></trkpt><trkpt lat="38.4433502" lon="22.417686"><ele>1.3333333333333333</ele><time>2026-04-28T13:35:43.024Z</time></trkpt><trkpt lat="38.4435017" lon="22.4176795"><ele>2.0</ele><time>2026-04-28T13:35:44.023Z</time></trkpt><trkpt lat="38.4436432" lon="22.4176937"><ele>2.0</ele><time>2026-04-28T13:35:45.023Z</time></trkpt><trkpt lat="38.443779" lon="22.4177336"><ele>2.0</ele><time>2026-04-28T13:35:46.024Z</time></trkpt><trkpt lat="38.4439192" lon="22.4177888"><ele>2.0</ele><time>2026-04-28T13:35:47.024Z</time></trkpt><trkpt lat="38.4440617" lon="22.4178471"><ele>2.0</ele><time>2026-04-28T13:35:48.023Z</time></trkpt><trkpt lat="38.4442068" lon="22.4179048"><ele>2.0</ele><time>2026-04-28T13:35:49.024Z</time></trkpt><trkpt lat="38.4443563" lon="22.4179623"><ele>2.0</ele><time>2026-04-28T13:35:50.023Z</time></trkpt><trkpt lat="38.4445099" lon="22.4180125"><ele>2.0</ele><time>2026-04-28T13:35:51.023Z</time></trkpt><trkpt lat="38.4446682" lon="22.41805"><ele>7.0</ele><time>2026-04-28T13:35:52.024Z</time></trkpt><trkpt lat="38.4448355" lon="22.4180686"><ele>12.0</ele><time>2026-04-28T13:35:53.024Z</time></trkpt><trkpt lat="38.4450125" lon="22.418066"><ele>17.0</ele><time>2026-04-28T13:35:54.024Z</time></trkpt><trkpt lat="38.4451956" lon="22.4180429"><ele>17.0</ele><time>2026-04-28T13:35:55.024Z</time></trkpt><trkpt lat="38.4453846" lon="22.4180075"><ele>17.0</ele><time>2026-04-28T13:35:56.023Z</time></trkpt><trkpt lat="38.4455788" lon="22.417964"><ele>17.0</ele><time>2026-04-28T13:35:57.023Z</time></trkpt><trkpt lat="38.4457742" lon="22.4179144"><ele>14.666666666666668</ele><time>2026-04-28T13:35:58.023Z</time></trkpt><trkpt lat="38.4459701" lon="22.4178659"><ele>12.333333333333334</ele><time>2026-04-28T13:35:59.023Z</time></trkpt><trkpt lat="38.4461618" lon="22.4178207"><ele>10.0</ele><time>2026-04-28T13:36:00.023Z</time></trkpt><trkpt lat="38.4463541" lon="22.4177851"><ele>10.0</ele><time>2026-04-28T13:36:01.023Z</time></trkpt><trkpt lat="38.4465482" lon="22.4177693"><ele>10.0</ele><time>2026-04-28T13:36:02.024Z</time></trkpt><trkpt lat="38.4467431" lon="22.4177737"><ele>10.0</ele><time>2026-04-28T13:36:03.023Z</time></trkpt><trkpt lat="38.4469361" lon="22.4178022"><ele>9.0</ele><time>2026-04-28T13:36:04.023Z</time></trkpt><trkpt lat="38.4471319" lon="22.4178556"><ele>8.0</ele><time>2026-04-28T13:36:05.024Z</time></trkpt><trkpt lat="38.4473239" lon="22.4179389"><ele>7.0</ele><time>2026-04-28T13:36:06.024Z</time></trkpt><trkpt lat="38.4475191" lon="22.4180166"><ele>8.666666666666668</ele><time>2026-04-28T13:36:07.024Z</time></trkpt><trkpt lat="38.4477132" lon="22.4180959"><ele>10.333333333333334</ele><time>2026-04-28T13:36:08.023Z</time></trkpt><trkpt lat="38.4479044" lon="22.4181745"><ele>12.0</ele><time>2026-04-28T13:36:09.023Z</time></trkpt><trkpt lat="38.4480892" lon="22.4182444"><ele>12.0</ele><time>2026-04-28T13:36:10.024Z</time></trkpt><trkpt lat="38.4482684" lon="22.4182999"><ele>12.0</ele><time>2026-04-28T13:36:11.023Z</time></trkpt><trkpt lat="38.4484406" lon="22.4183351"><ele>12.0</ele><time>2026-04-28T13:36:12.024Z</time></trkpt><trkpt lat="38.4486113" lon="22.4183425"><ele>12.0</ele><time>2026-04-28T13:36:13.023Z</time></trkpt><trkpt lat="38.4487747" lon="22.4183191"><ele>12.0</ele><time>2026-04-28T13:36:14.024Z</time></trkpt><trkpt lat="38.4489136" lon="22.4182583"><ele>12.0</ele><time>2026-04-28T13:36:15.023Z</time></trkpt><trkpt lat="38.4490359" lon="22.4181595"><ele>12.0</ele><time>2026-04-28T13:36:16.023Z</time></trkpt><trkpt lat="38.4491484" lon="22.4180234"><ele>12.0</ele><time>2026-04-28T13:36:17.023Z</time></trkpt><trkpt lat="38.4492358" lon="22.4178617"><ele>12.0</ele><time>2026-04-28T13:36:18.023Z</time></trkpt><trkpt lat="38.4493021" lon="22.4176672"><ele>11.666666666666666</ele><time>2026-04-28T13:36:19.024Z</time></trkpt><trkpt lat="38.4493364" lon="22.4174713"><ele>11.333333333333332</ele><time>2026-04-28T13:36:20.024Z</time></trkpt><trkpt lat="38.4493437" lon="22.4172696"><ele>11.0</ele><time>2026-04-28T13:36:21.023Z</time></trkpt><trkpt lat="38.4493173" lon="22.4170675"><ele>14.0</ele><time>2026-04-28T13:36:22.023Z</time></trkpt><trkpt lat="38.449257" lon="22.4168646"><ele>17.0</ele><time>2026-04-28T13:36:23.023Z</time></trkpt><trkpt lat="38.4491626" lon="22.416663"><ele>20.0</ele><time>2026-04-28T13:36:24.023Z</time></trkpt><trkpt lat="38.4490354" lon="22.4164598"><ele>19.333333333333336</ele><time>2026-04-28T13:36:25.023Z</time></trkpt><trkpt lat="38.4489004" lon="22.4162681"><ele>18.666666666666668</ele><time>2026-04-28T13:36:26.024Z</time></trkpt><trkpt lat="38.4487518" lon="22.4160748"><ele>18.0</ele><time>2026-04-28T13:36:27.024Z</time></trkpt><trkpt lat="38.4486002" lon="22.4158833"><ele>18.0</ele><time>2026-04-28T13:36:28.024Z</time></trkpt><trkpt lat="38.448461" lon="22.4157019"><ele>18.0</ele><time>2026-04-28T13:36:29.023Z</time></trkpt><trkpt lat="38.4483167" lon="22.4155159"><ele>18.0</ele><time>2026-04-28T13:36:30.023Z</time></trkpt><trkpt lat="38.4481785" lon="22.415329"><ele>17.333333333333332</ele><time>2026-04-28T13:36:31.024Z</time></trkpt><trkpt lat="38.4480422" lon="22.4151533"><ele>16.666666666666664</ele><time>2026-04-28T13:36:32.024Z</time></trkpt><trkpt lat="38.4479077" lon="22.414968"><ele>16.0</ele><time>2026-04-28T13:36:33.023Z</time></trkpt><trkpt lat="38.4477702" lon="22.4147833"><ele>20.666666666666664</ele><time>2026-04-28T13:36:34.024Z</time></trkpt><trkpt lat="38.447638" lon="22.4146025"><ele>25.333333333333332</ele><time>2026-04-28T13:36:35.023Z</time></trkpt><trkpt lat="38.4475101" lon="22.4144132"><ele>30.0</ele><time>2026-04-28T13:36:36.024Z</time></trkpt><trkpt lat="38.4473812" lon="22.4142237"><ele>30.0</ele><time>2026-04-28T13:36:37.023Z</time></trkpt><trkpt lat="38.4472556" lon="22.4140292"><ele>30.0</ele><time>2026-04-28T13:36:38.023Z</time></trkpt><trkpt lat="38.4471311" lon="22.4138367"><ele>30.0</ele><time>2026-04-28T13:36:39.024Z</time></trkpt><trkpt lat="38.4470086" lon="22.4136423"><ele>29.333333333333336</ele><time>2026-04-28T13:36:40.023Z</time></trkpt><trkpt lat="38.4468841" lon="22.4134483"><ele>28.666666666666668</ele><time>2026-04-28T13:36:41.024Z</time></trkpt><trkpt lat="38.44676" lon="22.4132533"><ele>28.0</ele><time>2026-04-28T13:36:42.023Z</time></trkpt><trkpt lat="38.4466397" lon="22.4130624"><ele>28.333333333333336</ele><time>2026-04-28T13:36:43.023Z</time></trkpt><trkpt lat="38.446524" lon="22.4128764"><ele>28.666666666666664</ele><time>2026-04-28T13:36:44.024Z</time></trkpt><trkpt lat="38.4464068" lon="22.4126881"><ele>29.0</ele><time>2026-04-28T13:36:45.024Z</time></trkpt><trkpt lat="38.4462869" lon="22.4125027"><ele>29.0</ele><time>2026-04-28T13:36:46.024Z</time></trkpt><trkpt lat="38.4461678" lon="22.41232"><ele>29.0</ele><time>2026-04-28T13:36:47.024Z</time></trkpt><trkpt lat="38.4460519" lon="22.4121423"><ele>29.0</ele><time>2026-04-28T13:36:48.023Z</time></trkpt><trkpt lat="38.4459249" lon="22.4119693"><ele>33.0</ele><time>2026-04-28T13:36:49.023Z</time></trkpt><trkpt lat="38.445772" lon="22.4118101"><ele>37.0</ele><time>2026-04-28T13:36:50.023Z</time></trkpt><trkpt lat="38.4456054" lon="22.411678"><ele>41.0</ele><time>2026-04-28T13:36:51.023Z</time></trkpt><trkpt lat="38.4454325" lon="22.4115633"><ele>41.0</ele><time>2026-04-28T13:36:52.024Z</time></trkpt><trkpt lat="38.445254" lon="22.4114694"><ele>41.0</ele><time>2026-04-28T13:36:53.024Z</time></trkpt><trkpt lat="38.4450818" lon="22.4113875"><ele>41.0</ele><time>2026-04-28T13:36:54.024Z</time></trkpt><trkpt lat="38.4449246" lon="22.4113031"><ele>41.0</ele><time>2026-04-28T13:36:55.023Z</time></trkpt><trkpt lat="38.4447771" lon="22.41122"><ele>41.0</ele><time>2026-04-28T13:36:56.023Z</time></trkpt><trkpt lat="38.4446521" lon="22.4111258"><ele>41.0</ele><time>2026-04-28T13:36:57.023Z</time></trkpt><trkpt lat="38.4445264" lon="22.4110023"><ele>41.0</ele><time>2026-04-28T13:36:58.024Z</time></trkpt><trkpt lat="38.4444123" lon="22.4108509"><ele>41.0</ele><time>2026-04-28T13:36:59.024Z</time></trkpt><trkpt lat="38.4443141" lon="22.4106625"><ele>41.0</ele><time>2026-04-28T13:37:00.023Z</time></trkpt><trkpt lat="38.4442234" lon="22.4104401"><ele>44.33333333333333</ele><time>2026-04-28T13:37:01.024Z</time></trkpt><trkpt lat="38.4441432" lon="22.4102018"><ele>47.666666666666664</ele><time>2026-04-28T13:37:02.024Z</time></trkpt><trkpt lat="38.4440751" lon="22.4099665"><ele>51.0</ele><time>2026-04-28T13:37:03.023Z</time></trkpt><trkpt lat="38.4440246" lon="22.4097417"><ele>52.0</ele><time>2026-04-28T13:37:04.023Z</time></trkpt><trkpt lat="38.4439793" lon="22.4095219"><ele>53.0</ele><time>2026-04-28T13:37:05.024Z</time></trkpt><trkpt lat="38.4439391" lon="22.4093094"><ele>54.0</ele><time>2026-04-28T13:37:06.024Z</time></trkpt><trkpt lat="38.4439081" lon="22.4091085"><ele>54.0</ele><time>2026-04-28T13:37:07.024Z</time></trkpt><trkpt lat="38.4438894" lon="22.4089113"><ele>54.0</ele><time>2026-04-28T13:37:08.024Z</time></trkpt><trkpt lat="38.4438847" lon="22.4087151"><ele>54.0</ele><time>2026-04-28T13:37:09.023Z</time></trkpt><trkpt lat="38.4438988" lon="22.4085226"><ele>53.25</ele><time>2026-04-28T13:37:10.023Z</time></trkpt><trkpt lat="38.443928" lon="22.4083354"><ele>52.5</ele><time>2026-04-28T13:37:11.023Z</time></trkpt><trkpt lat="38.4439709" lon="22.408155"><ele>51.75</ele><time>2026-04-28T13:37:12.024Z</time></trkpt><trkpt lat="38.4440377" lon="22.4079807"><ele>51.0</ele><time>2026-04-28T13:37:13.023Z</time></trkpt><trkpt lat="38.4441134" lon="22.4078141"><ele>47.333333333333336</ele><time>2026-04-28T13:37:14.024Z</time></trkpt><trkpt lat="38.4442055" lon="22.4076528"><ele>43.66666666666667</ele><time>2026-04-28T13:37:15.023Z</time></trkpt><trkpt lat="38.4443191" lon="22.4074905"><ele>40.0</ele><time>2026-04-28T13:37:16.024Z</time></trkpt><trkpt lat="38.4444403" lon="22.4073192"><ele>39.66666666666667</ele><time>2026-04-28T13:37:17.023Z</time></trkpt><trkpt lat="38.4445693" lon="22.4071436"><ele>39.333333333333336</ele><time>2026-04-28T13:37:18.024Z</time></trkpt><trkpt lat="38.4446985" lon="22.4069658"><ele>39.0</ele><time>2026-04-28T13:37:19.023Z</time></trkpt><trkpt lat="38.4448278" lon="22.4067872"><ele>39.0</ele><time>2026-04-28T13:37:20.024Z</time></trkpt><trkpt lat="38.4449568" lon="22.4066131"><ele>39.0</ele><time>2026-04-28T13:37:21.023Z</time></trkpt><trkpt lat="38.445089" lon="22.4064442"><ele>39.0</ele><time>2026-04-28T13:37:22.024Z</time></trkpt><trkpt lat="38.4452284" lon="22.4062951"><ele>36.666666666666664</ele><time>2026-04-28T13:37:23.023Z</time></trkpt><trkpt lat="38.4453717" lon="22.4061557"><ele>34.33333333333333</ele><time>2026-04-28T13:37:24.023Z</time></trkpt><trkpt lat="38.4455242" lon="22.4060304"><ele>32.0</ele><time>2026-04-28T13:37:25.024Z</time></trkpt><trkpt lat="38.445691" lon="22.4059235"><ele>32.0</ele><time>2026-04-28T13:37:26.024Z</time></trkpt><trkpt lat="38.4458699" lon="22.4058364"><ele>32.0</ele><time>2026-04-28T13:37:27.024Z</time></trkpt><trkpt lat="38.446064" lon="22.4057602"><ele>32.0</ele><time>2026-04-28T13:37:28.023Z</time></trkpt><trkpt lat="38.4462672" lon="22.4056951"><ele>33.666666666666664</ele><time>2026-04-28T13:37:29.023Z</time></trkpt><trkpt lat="38.4464784" lon="22.4056375"><ele>35.333333333333336</ele><time>2026-04-28T13:37:30.024Z</time></trkpt><trkpt lat="38.4466943" lon="22.4055794"><ele>37.0</ele><time>2026-04-28T13:37:31.024Z</time></trkpt><trkpt lat="38.4469112" lon="22.4055222"><ele>28.666666666666668</ele><time>2026-04-28T13:37:32.024Z</time></trkpt><trkpt lat="38.4471283" lon="22.4054649"><ele>20.333333333333336</ele><time>2026-04-28T13:37:33.023Z</time></trkpt><trkpt lat="38.4473454" lon="22.4054055"><ele>12.0</ele><time>2026-04-28T13:37:34.024Z</time></trkpt><trkpt lat="38.4475647" lon="22.4053524"><ele>12.0</ele><time>2026-04-28T13:37:35.023Z</time></trkpt><trkpt lat="38.4477797" lon="22.405297"><ele>12.0</ele><time>2026-04-28T13:37:36.024Z</time></trkpt><trkpt lat="38.4479926" lon="22.4052421"><ele>12.0</ele><time>2026-04-28T13:37:37.023Z</time></trkpt><trkpt lat="38.448198" lon="22.4051878"><ele>13.0</ele><time>2026-04-28T13:37:38.023Z</time></trkpt><trkpt lat="38.4483972" lon="22.4051364"><ele>14.0</ele><time>2026-04-28T13:37:39.023Z</time></trkpt><trkpt lat="38.4485946" lon="22.4050839"><ele>15.0</ele><time>2026-04-28T13:37:40.024Z</time></trkpt><trkpt lat="38.4487918" lon="22.4050273"><ele>18.666666666666664</ele><time>2026-04-28T13:37:41.024Z</time></trkpt><trkpt lat="38.4489834" lon="22.4049766"><ele>22.333333333333332</ele><time>2026-04-28T13:37:42.023Z</time></trkpt><trkpt lat="38.4491744" lon="22.4049248"><ele>26.0</ele><time>2026-04-28T13:37:43.023Z</time></trkpt><trkpt lat="38.4493618" lon="22.404871"><ele>26.0</ele><time>2026-04-28T13:37:44.024Z</time></trkpt><trkpt lat="38.4495527" lon="22.4048078"><ele>26.0</ele><time>2026-04-28T13:37:45.023Z</time></trkpt><trkpt lat="38.4497374" lon="22.4047309"><ele>26.0</ele><time>2026-04-28T13:37:46.023Z</time></trkpt><trkpt lat="38.4499199" lon="22.4046356"><ele>20.333333333333332</ele><time>2026-04-28T13:37:47.024Z</time></trkpt><trkpt lat="38.450093" lon="22.4045197"><ele>14.666666666666666</ele><time>2026-04-28T13:37:48.024Z</time></trkpt><trkpt lat="38.4502554" lon="22.4043824"><ele>9.0</ele><time>2026-04-28T13:37:49.024Z</time></trkpt><trkpt lat="38.4504062" lon="22.4042202"><ele>8.333333333333334</ele><time>2026-04-28T13:37:50.024Z</time></trkpt><trkpt lat="38.4505469" lon="22.4040381"><ele>7.666666666666667</ele><time>2026-04-28T13:37:51.023Z</time></trkpt><trkpt lat="38.4506709" lon="22.403839"><ele>7.0</ele><time>2026-04-28T13:37:52.023Z</time></trkpt><trkpt lat="38.4507781" lon="22.4036257"><ele>6.333333333333334</ele><time>2026-04-28T13:37:53.023Z</time></trkpt><trkpt lat="38.4508665" lon="22.4033994"><ele>5.666666666666667</ele><time>2026-04-28T13:37:54.023Z</time></trkpt><trkpt lat="38.4509318" lon="22.4031565"><ele>5.0</ele><time>2026-04-28T13:37:55.023Z</time></trkpt><trkpt lat="38.4509756" lon="22.4028966"><ele>5.0</ele><time>2026-04-28T13:37:56.024Z</time></trkpt><trkpt lat="38.4509968" lon="22.4026248"><ele>5.0</ele><time>2026-04-28T13:37:57.024Z</time></trkpt><trkpt lat="38.4509933" lon="22.4023573"><ele>5.0</ele><time>2026-04-28T13:37:58.024Z</time></trkpt><trkpt lat="38.4509634" lon="22.4020904"><ele>5.0</ele><time>2026-04-28T13:37:59.023Z</time></trkpt><trkpt lat="38.4509102" lon="22.401825"><ele>5.0</ele><time>2026-04-28T13:38:00.024Z</time></trkpt><trkpt lat="38.4508385" lon="22.4015602"><ele>5.0</ele><time>2026-04-28T13:38:01.023Z</time></trkpt><trkpt lat="38.4507513" lon="22.4012995"><ele>5.0</ele><time>2026-04-28T13:38:02.023Z</time></trkpt><trkpt lat="38.4506581" lon="22.4010442"><ele>5.0</ele><time>2026-04-28T13:38:03.023Z</time></trkpt><trkpt lat="38.4505616" lon="22.4007875"><ele>5.0</ele><time>2026-04-28T13:38:04.024Z</time></trkpt><trkpt lat="38.4504678" lon="22.4005313"><ele>4.333333333333334</ele><time>2026-04-28T13:38:05.024Z</time></trkpt><trkpt lat="38.450373" lon="22.4002761"><ele>3.666666666666667</ele><time>2026-04-28T13:38:06.024Z</time></trkpt><trkpt lat="38.4502821" lon="22.4000241"><ele>3.0</ele><time>2026-04-28T13:38:07.023Z</time></trkpt><trkpt lat="38.4501924" lon="22.399777"><ele>4.0</ele><time>2026-04-28T13:38:08.023Z</time></trkpt><trkpt lat="38.4501032" lon="22.3995367"><ele>5.0</ele><time>2026-04-28T13:38:09.023Z</time></trkpt><trkpt lat="38.450017" lon="22.399307"><ele>6.0</ele><time>2026-04-28T13:38:10.023Z</time></trkpt><trkpt lat="38.4499235" lon="22.3990886"><ele>6.0</ele><time>2026-04-28T13:38:11.024Z</time></trkpt><trkpt lat="38.4498151" lon="22.3988845"><ele>6.0</ele><time>2026-04-28T13:38:12.023Z</time></trkpt><trkpt lat="38.449688" lon="22.3987039"><ele>6.0</ele><time>2026-04-28T13:38:13.023Z</time></trkpt><trkpt lat="38.4495396" lon="22.3985588"><ele>7.666666666666666</ele><time>2026-04-28T13:38:14.023Z</time></trkpt><trkpt lat="38.4493684" lon="22.3984508"><ele>9.333333333333332</ele><time>2026-04-28T13:38:15.023Z</time></trkpt><trkpt lat="38.4491952" lon="22.3983846"><ele>11.0</ele><time>2026-04-28T13:38:16.023Z</time></trkpt><trkpt lat="38.4489943" lon="22.398364"><ele>9.666666666666666</ele><time>2026-04-28T13:38:17.024Z</time></trkpt><trkpt lat="38.4487799" lon="22.3983692"><ele>8.333333333333334</ele><time>2026-04-28T13:38:18.023Z</time></trkpt><trkpt lat="38.4485471" lon="22.3983923"><ele>7.0</ele><time>2026-04-28T13:38:19.024Z</time></trkpt><trkpt lat="38.4483068" lon="22.398424"><ele>7.0</ele><time>2026-04-28T13:38:20.023Z</time></trkpt><trkpt lat="38.4480701" lon="22.3984525"><ele>7.0</ele><time>2026-04-28T13:38:21.023Z</time></trkpt><trkpt lat="38.4478364" lon="22.3984818"><ele>8.5</ele><time>2026-04-28T13:38:22.024Z</time></trkpt><trkpt lat="38.4476051" lon="22.3985064"><ele>10.0</ele><time>2026-04-28T13:38:23.024Z</time></trkpt><trkpt lat="38.4473744" lon="22.3985316"><ele>10.0</ele><time>2026-04-28T13:38:24.024Z</time></trkpt><trkpt lat="38.4471454" lon="22.3985545"><ele>10.0</ele><time>2026-04-28T13:38:25.024Z</time></trkpt><trkpt lat="38.4469198" lon="22.3985806"><ele>12.0</ele><time>2026-04-28T13:38:26.023Z</time></trkpt><trkpt lat="38.4466954" lon="22.3986067"><ele>14.0</ele><time>2026-04-28T13:38:27.024Z</time></trkpt><trkpt lat="38.4464812" lon="22.3986302"><ele>16.0</ele><time>2026-04-28T13:38:28.023Z</time></trkpt><trkpt lat="38.4462727" lon="22.3986636"><ele>16.0</ele><time>2026-04-28T13:38:29.024Z</time></trkpt><trkpt lat="38.4460758" lon="22.3986737"><ele>16.0</ele><time>2026-04-28T13:38:30.024Z</time></trkpt><trkpt lat="38.4458866" lon="22.3986532"><ele>16.0</ele><time>2026-04-28T13:38:31.024Z</time></trkpt><trkpt lat="38.4457035" lon="22.3986081"><ele>16.0</ele><time>2026-04-28T13:38:32.023Z</time></trkpt><trkpt lat="38.445526" lon="22.3985171"><ele>16.0</ele><time>2026-04-28T13:38:33.024Z</time></trkpt><trkpt lat="38.4453469" lon="22.3984188"><ele>16.0</ele><time>2026-04-28T13:38:34.023Z</time></trkpt><trkpt lat="38.4451744" lon="22.3983099"><ele>13.333333333333332</ele><time>2026-04-28T13:38:35.023Z</time></trkpt><trkpt lat="38.4449985" lon="22.3982059"><ele>10.666666666666666</ele><time>2026-04-28T13:38:36.023Z</time></trkpt><trkpt lat="38.4448284" lon="22.3981154"><ele>8.0</ele><time>2026-04-28T13:38:37.024Z</time></trkpt><trkpt lat="38.444665" lon="22.3980535"><ele>6.666666666666666</ele><time>2026-04-28T13:38:38.024Z</time></trkpt><trkpt lat="38.4445009" lon="22.398031"><ele>5.333333333333333</ele><time>2026-04-28T13:38:39.024Z</time></trkpt><trkpt lat="38.4443447" lon="22.3980464"><ele>4.0</ele><time>2026-04-28T13:38:40.024Z</time></trkpt><trkpt lat="38.4442023" lon="22.3980982"><ele>4.0</ele><time>2026-04-28T13:38:41.023Z</time></trkpt><trkpt lat="38.444067" lon="22.3981874"><ele>4.0</ele><time>2026-04-28T13:38:42.024Z</time></trkpt><trkpt lat="38.4439424" lon="22.3983135"><ele>4.0</ele><time>2026-04-28T13:38:43.024Z</time></trkpt><trkpt lat="38.4438266" lon="22.3984704"><ele>6.666666666666666</ele><time>2026-04-28T13:38:44.023Z</time></trkpt><trkpt lat="38.4437105" lon="22.3986358"><ele>9.333333333333334</ele><time>2026-04-28T13:38:45.023Z</time></trkpt><trkpt lat="38.4436046" lon="22.3988161"><ele>12.0</ele><time>2026-04-28T13:38:46.023Z</time></trkpt><trkpt lat="38.4434992" lon="22.3989906"><ele>12.0</ele><time>2026-04-28T13:38:47.024Z</time></trkpt><trkpt lat="38.443398" lon="22.3991552"><ele>12.0</ele><time>2026-04-28T13:38:48.023Z</time></trkpt><trkpt lat="38.4432864" lon="22.3992929"><ele>12.0</ele><time>2026-04-28T13:38:49.024Z</time></trkpt><trkpt lat="38.4431526" lon="22.3994144"><ele>12.0</ele><time>2026-04-28T13:38:50.024Z</time></trkpt><trkpt lat="38.4429929" lon="22.3995201"><ele>12.0</ele><time>2026-04-28T13:38:51.024Z</time></trkpt><trkpt lat="38.442815" lon="22.3996159"><ele>12.0</ele><time>2026-04-28T13:38:52.024Z</time></trkpt><trkpt lat="38.442632" lon="22.3997019"><ele>12.333333333333332</ele><time>2026-04-28T13:38:53.024Z</time></trkpt><trkpt lat="38.4424462" lon="22.3997796"><ele>12.666666666666666</ele><time>2026-04-28T13:38:54.024Z</time></trkpt><trkpt lat="38.4422609" lon="22.3998518"><ele>13.0</ele><time>2026-04-28T13:38:55.024Z</time></trkpt><trkpt lat="38.4420771" lon="22.3999183"><ele>13.0</ele><time>2026-04-28T13:38:56.023Z</time></trkpt><trkpt lat="38.4418972" lon="22.3999675"><ele>13.0</ele><time>2026-04-28T13:38:57.024Z</time></trkpt><trkpt lat="38.4417169" lon="22.3999922"><ele>13.0</ele><time>2026-04-28T13:38:58.023Z</time></trkpt><trkpt lat="38.4415392" lon="22.3999851"><ele>13.0</ele><time>2026-04-28T13:38:59.024Z</time></trkpt><trkpt lat="38.4413536" lon="22.3999512"><ele>13.0</ele><time>2026-04-28T13:39:00.023Z</time></trkpt><trkpt lat="38.4411641" lon="22.3998921"><ele>13.0</ele><time>2026-04-28T13:39:01.023Z</time></trkpt><trkpt lat="38.4409802" lon="22.3998083"><ele>13.333333333333332</ele><time>2026-04-28T13:39:02.023Z</time></trkpt><trkpt lat="38.4407965" lon="22.3997095"><ele>13.666666666666668</ele><time>2026-04-28T13:39:03.024Z</time></trkpt><trkpt lat="38.4406116" lon="22.3996164"><ele>14.0</ele><time>2026-04-28T13:39:04.023Z</time></trkpt><trkpt lat="38.4404344" lon="22.3995207"><ele>16.666666666666668</ele><time>2026-04-28T13:39:05.024Z</time></trkpt><trkpt lat="38.4402628" lon="22.3994419"><ele>19.333333333333332</ele><time>2026-04-28T13:39:06.023Z</time></trkpt><trkpt lat="38.4400989" lon="22.3993923"><ele>22.0</ele><time>2026-04-28T13:39:07.024Z</time></trkpt><trkpt lat="38.4399203" lon="22.3994006"><ele>22.0</ele><time>2026-04-28T13:39:08.024Z</time></trkpt><trkpt lat="38.4397517" lon="22.3994506"><ele>22.0</ele><time>2026-04-28T13:39:09.024Z</time></trkpt><trkpt lat="38.4395764" lon="22.3995439"><ele>22.0</ele><time>2026-04-28T13:39:10.023Z</time></trkpt><trkpt lat="38.4393925" lon="22.399661"><ele>19.666666666666664</ele><time>2026-04-28T13:39:11.024Z</time></trkpt><trkpt lat="38.4392041" lon="22.3997819"><ele>17.333333333333332</ele><time>2026-04-28T13:39:12.024Z</time></trkpt><trkpt lat="38.4390163" lon="22.3998906"><ele>15.0</ele><time>2026-04-28T13:39:13.024Z</time></trkpt><trkpt lat="38.4388184" lon="22.3999942"><ele>17.333333333333332</ele><time>2026-04-28T13:39:14.024Z</time></trkpt><trkpt lat="38.4386218" lon="22.4000818"><ele>19.666666666666664</ele><time>2026-04-28T13:39:15.023Z</time></trkpt><trkpt lat="38.4384086" lon="22.4001424"><ele>22.0</ele><time>2026-04-28T13:39:16.024Z</time></trkpt><trkpt lat="38.4381966" lon="22.4001829"><ele>22.0</ele><time>2026-04-28T13:39:17.024Z</time></trkpt><trkpt lat="38.4379899" lon="22.4002121"><ele>22.0</ele><time>2026-04-28T13:39:18.023Z</time></trkpt><trkpt lat="38.4377803" lon="22.4002318"><ele>22.0</ele><time>2026-04-28T13:39:19.024Z</time></trkpt><trkpt lat="38.4375725" lon="22.4002515"><ele>24.0</ele><time>2026-04-28T13:39:20.023Z</time></trkpt><trkpt lat="38.4373644" lon="22.4002691"><ele>26.0</ele><time>2026-04-28T13:39:21.024Z</time></trkpt><trkpt lat="38.4371579" lon="22.4002882"><ele>28.0</ele><time>2026-04-28T13:39:22.024Z</time></trkpt><trkpt lat="38.4369587" lon="22.4003063"><ele>30.0</ele><time>2026-04-28T13:39:23.024Z</time></trkpt><trkpt lat="38.4367794" lon="22.4003209"><ele>32.0</ele><time>2026-04-28T13:39:24.024Z</time></trkpt><trkpt lat="38.4365869" lon="22.4003152"><ele>34.0</ele><time>2026-04-28T13:39:25.024Z</time></trkpt><trkpt lat="38.4364046" lon="22.400293"><ele>33.333333333333336</ele><time>2026-04-28T13:39:26.024Z</time></trkpt><trkpt lat="38.4362213" lon="22.4002617"><ele>32.666666666666664</ele><time>2026-04-28T13:39:27.024Z</time></trkpt><trkpt lat="38.4360547" lon="22.4002181"><ele>32.0</ele><time>2026-04-28T13:39:28.023Z</time></trkpt><trkpt lat="38.4358798" lon="22.4001593"><ele>32.0</ele><time>2026-04-28T13:39:29.024Z</time></trkpt><trkpt lat="38.4357054" lon="22.4001028"><ele>32.0</ele><time>2026-04-28T13:39:30.023Z</time></trkpt><trkpt lat="38.4355356" lon="22.4000489"><ele>32.0</ele><time>2026-04-28T13:39:31.023Z</time></trkpt><trkpt lat="38.4353658" lon="22.3999989"><ele>28.666666666666664</ele><time>2026-04-28T13:39:32.023Z</time></trkpt><trkpt lat="38.4351904" lon="22.3999436"><ele>25.333333333333332</ele><time>2026-04-28T13:39:33.024Z</time></trkpt><trkpt lat="38.4349952" lon="22.3998879"><ele>22.0</ele><time>2026-04-28T13:39:34.024Z</time></trkpt><trkpt lat="38.4348237" lon="22.3998281"><ele>22.0</ele><time>2026-04-28T13:39:35.023Z</time></trkpt><trkpt lat="38.4346518" lon="22.399744"><ele>22.0</ele><time>2026-04-28T13:39:36.023Z</time></trkpt><trkpt lat="38.4344903" lon="22.3996639"><ele>22.0</ele><time>2026-04-28T13:39:37.023Z</time></trkpt><trkpt lat="38.4343276" lon="22.3995608"><ele>21.333333333333332</ele><time>2026-04-28T13:39:38.024Z</time></trkpt><trkpt lat="38.4341778" lon="22.3994268"><ele>20.666666666666668</ele><time>2026-04-28T13:39:39.024Z</time></trkpt><trkpt lat="38.4340374" lon="22.3992682"><ele>20.0</ele><time>2026-04-28T13:39:40.023Z</time></trkpt><trkpt lat="38.4339042" lon="22.3990976"><ele>17.333333333333336</ele><time>2026-04-28T13:39:41.024Z</time></trkpt><trkpt lat="38.4337767" lon="22.3989092"><ele>14.666666666666668</ele><time>2026-04-28T13:39:42.024Z</time></trkpt><trkpt lat="38.4336606" lon="22.398721"><ele>12.0</ele><time>2026-04-28T13:39:43.023Z</time></trkpt><trkpt lat="38.4335437" lon="22.3985403"><ele>12.0</ele><time>2026-04-28T13:39:44.024Z</time></trkpt><trkpt lat="38.4334145" lon="22.3983801"><ele>12.0</ele><time>2026-04-28T13:39:45.024Z</time></trkpt><trkpt lat="38.433265" lon="22.3982431"><ele>12.0</ele><time>2026-04-28T13:39:46.023Z</time></trkpt><trkpt lat="38.4330954" lon="22.398131"><ele>13.0</ele><time>2026-04-28T13:39:47.023Z</time></trkpt><trkpt lat="38.4329161" lon="22.398042"><ele>14.0</ele><time>2026-04-28T13:39:48.024Z</time></trkpt><trkpt lat="38.4327365" lon="22.3979755"><ele>15.0</ele><time>2026-04-28T13:39:49.024Z</time></trkpt><trkpt lat="38.4325604" lon="22.3979168"><ele>15.0</ele><time>2026-04-28T13:39:50.023Z</time></trkpt><trkpt lat="38.4323918" lon="22.3978848"><ele>15.0</ele><time>2026-04-28T13:39:51.024Z</time></trkpt><trkpt lat="38.4322235" lon="22.3978859"><ele>15.0</ele><time>2026-04-28T13:39:52.023Z</time></trkpt><trkpt lat="38.4320753" lon="22.3979319"><ele>11.333333333333334</ele><time>2026-04-28T13:39:53.023Z</time></trkpt><trkpt lat="38.4319499" lon="22.3980243"><ele>7.666666666666666</ele><time>2026-04-28T13:39:54.023Z</time></trkpt><trkpt lat="38.4318468" lon="22.3981681"><ele>4.0</ele><time>2026-04-28T13:39:55.023Z</time></trkpt><trkpt lat="38.4317741" lon="22.3983562"><ele>4.0</ele><time>2026-04-28T13:39:56.024Z</time></trkpt><trkpt lat="38.4317362" lon="22.3985827"><ele>4.0</ele><time>2026-04-28T13:39:57.024Z</time></trkpt><trkpt lat="38.4317254" lon="22.3988172"><ele>4.0</ele><time>2026-04-28T13:39:58.024Z</time></trkpt><trkpt lat="38.4317185" lon="22.3990453"><ele>5.0</ele><time>2026-04-28T13:39:59.023Z</time></trkpt><trkpt lat="38.4317142" lon="22.3992596"><ele>6.0</ele><time>2026-04-28T13:40:00.023Z</time></trkpt><trkpt lat="38.4316895" lon="22.3994575"><ele>7.0</ele><time>2026-04-28T13:40:01.023Z</time></trkpt><trkpt lat="38.4316431" lon="22.3996403"><ele>6.75</ele><time>2026-04-28T13:40:02.023Z</time></trkpt><trkpt lat="38.431564" lon="22.3997968"><ele>6.5</ele><time>2026-04-28T13:40:03.023Z</time></trkpt><trkpt lat="38.4314571" lon="22.3999311"><ele>6.25</ele><time>2026-04-28T13:40:04.024Z</time></trkpt><trkpt lat="38.4313376" lon="22.4000369"><ele>6.0</ele><time>2026-04-28T13:40:05.023Z</time></trkpt><trkpt lat="38.4311984" lon="22.40009"><ele>7.666666666666666</ele><time>2026-04-28T13:40:06.024Z</time></trkpt><trkpt lat="38.4310509" lon="22.4001271"><ele>9.333333333333332</ele><time>2026-04-28T13:40:07.023Z</time></trkpt><trkpt lat="38.4309047" lon="22.4001213"><ele>11.0</ele><time>2026-04-28T13:40:08.023Z</time></trkpt><trkpt lat="38.4307416" lon="22.400063"><ele>11.0</ele><time>2026-04-28T13:40:09.023Z</time></trkpt><trkpt lat="38.4305693" lon="22.4000021"><ele>11.0</ele><time>2026-04-28T13:40:10.023Z</time></trkpt><trkpt lat="38.4303921" lon="22.3998486"><ele>11.0</ele><time>2026-04-28T13:40:11.024Z</time></trkpt><trkpt lat="38.4302433" lon="22.399757"><ele>10.75</ele><time>2026-04-28T13:40:12.024Z</time></trkpt><trkpt lat="38.4301011" lon="22.399681"><ele>10.5</ele><time>2026-04-28T13:40:13.024Z</time></trkpt><trkpt lat="38.4299613" lon="22.3996402"><ele>10.25</ele><time>2026-04-28T13:40:14.024Z</time></trkpt><trkpt lat="38.4298132" lon="22.3996188"><ele>10.0</ele><time>2026-04-28T13:40:15.024Z</time></trkpt><trkpt lat="38.4296791" lon="22.3996575"><ele>11.5</ele><time>2026-04-28T13:40:16.024Z</time></trkpt><trkpt lat="38.4295607" lon="22.399731"><ele>13.0</ele><time>2026-04-28T13:40:17.023Z</time></trkpt><trkpt lat="38.4294584" lon="22.3998633"><ele>14.5</ele><time>2026-04-28T13:40:18.024Z</time></trkpt><trkpt lat="38.4293627" lon="22.4000142"><ele>16.0</ele><time>2026-04-28T13:40:19.023Z</time></trkpt><trkpt lat="38.4292685" lon="22.4001892"><ele>16.0</ele><time>2026-04-28T13:40:20.023Z</time></trkpt><trkpt lat="38.4291735" lon="22.4003555"><ele>16.0</ele><time>2026-04-28T13:40:21.024Z</time></trkpt><trkpt lat="38.4290847" lon="22.400521"><ele>16.0</ele><time>2026-04-28T13:40:22.023Z</time></trkpt><trkpt lat="38.4290062" lon="22.400678"><ele>13.25</ele><time>2026-04-28T13:40:23.024Z</time></trkpt><trkpt lat="38.428939" lon="22.400827"><ele>10.5</ele><time>2026-04-28T13:40:24.023Z</time></trkpt><trkpt lat="38.4288963" lon="22.4009616"><ele>7.75</ele><time>2026-04-28T13:40:25.024Z</time></trkpt><trkpt lat="38.4288783" lon="22.4011043"><ele>5.0</ele><time>2026-04-28T13:40:26.023Z</time></trkpt><trkpt lat="38.4288935" lon="22.4012421"><ele>9.0</ele><time>2026-04-28T13:40:27.024Z</time></trkpt><trkpt lat="38.4289603" lon="22.4013605"><ele>13.0</ele><time>2026-04-28T13:40:28.024Z</time></trkpt><trkpt lat="38.4290557" lon="22.4014666"><ele>17.0</ele><time>2026-04-28T13:40:29.023Z</time></trkpt><trkpt lat="38.429198" lon="22.4015276"><ele>21.0</ele><time>2026-04-28T13:40:30.023Z</time></trkpt><trkpt lat="38.42934" lon="22.4015711"><ele>21.0</ele><time>2026-04-28T13:40:31.023Z</time></trkpt><trkpt lat="38.4294871" lon="22.4016015"><ele>21.0</ele><time>2026-04-28T13:40:32.024Z</time></trkpt><trkpt lat="38.4296404" lon="22.4016151"><ele>21.0</ele><time>2026-04-28T13:40:33.024Z</time></trkpt><trkpt lat="38.4297833" lon="22.4016458"><ele>21.0</ele><time>2026-04-28T13:40:34.024Z</time></trkpt><trkpt lat="38.4299149" lon="22.4017071"><ele>22.25</ele><time>2026-04-28T13:40:35.024Z</time></trkpt><trkpt lat="38.4300392" lon="22.4018037"><ele>23.5</ele><time>2026-04-28T13:40:36.024Z</time></trkpt><trkpt lat="38.4301446" lon="22.4019346"><ele>24.75</ele><time>2026-04-28T13:40:37.024Z</time></trkpt><trkpt lat="38.4302305" lon="22.4020996"><ele>26.0</ele><time>2026-04-28T13:40:38.024Z</time></trkpt><trkpt lat="38.4303044" lon="22.4022862"><ele>26.0</ele><time>2026-04-28T13:40:39.023Z</time></trkpt><trkpt lat="38.4303647" lon="22.402475"><ele>26.0</ele><time>2026-04-28T13:40:40.024Z</time></trkpt><trkpt lat="38.4304178" lon="22.4026534"><ele>26.0</ele><time>2026-04-28T13:40:41.024Z</time></trkpt><trkpt lat="38.4304537" lon="22.4028289"><ele>25.75</ele><time>2026-04-28T13:40:42.023Z</time></trkpt><trkpt lat="38.4304766" lon="22.403009"><ele>25.5</ele><time>2026-04-28T13:40:43.023Z</time></trkpt><trkpt lat="38.4304724" lon="22.4031955"><ele>25.25</ele><time>2026-04-28T13:40:44.024Z</time></trkpt><trkpt lat="38.4304414" lon="22.4033803"><ele>25.0</ele><time>2026-04-28T13:40:45.023Z</time></trkpt><trkpt lat="38.4303864" lon="22.4035553"><ele>25.0</ele><time>2026-04-28T13:40:46.024Z</time></trkpt><trkpt lat="38.4302967" lon="22.4037254"><ele>25.0</ele><time>2026-04-28T13:40:47.023Z</time></trkpt><trkpt lat="38.430188" lon="22.4039019"><ele>25.0</ele><time>2026-04-28T13:40:48.024Z</time></trkpt><trkpt lat="38.4300684" lon="22.4040826"><ele>21.666666666666668</ele><time>2026-04-28T13:40:49.024Z</time></trkpt><trkpt lat="38.4299522" lon="22.4042622"><ele>18.333333333333336</ele><time>2026-04-28T13:40:50.024Z</time></trkpt><trkpt lat="38.4298293" lon="22.404451"><ele>15.0</ele><time>2026-04-28T13:40:51.024Z</time></trkpt><trkpt lat="38.4297054" lon="22.4046329"><ele>17.333333333333332</ele><time>2026-04-28T13:40:52.024Z</time></trkpt><trkpt lat="38.4295825" lon="22.4048131"><ele>19.666666666666664</ele><time>2026-04-28T13:40:53.024Z</time></trkpt><trkpt lat="38.4294601" lon="22.4049932"><ele>22.0</ele><time>2026-04-28T13:40:54.023Z</time></trkpt><trkpt lat="38.4293417" lon="22.4051699"><ele>22.0</ele><time>2026-04-28T13:40:55.023Z</time></trkpt><trkpt lat="38.4292229" lon="22.4053393"><ele>22.0</ele><time>2026-04-28T13:40:56.023Z</time></trkpt><trkpt lat="38.4291026" lon="22.4055003"><ele>22.0</ele><time>2026-04-28T13:40:57.023Z</time></trkpt><trkpt lat="38.4289736" lon="22.4056457"><ele>22.0</ele><time>2026-04-28T13:40:58.024Z</time></trkpt><trkpt lat="38.428835" lon="22.4057863"><ele>22.0</ele><time>2026-04-28T13:40:59.023Z</time></trkpt><trkpt lat="38.4286786" lon="22.4059096"><ele>22.0</ele><time>2026-04-28T13:41:00.024Z</time></trkpt><trkpt lat="38.4285082" lon="22.4060155"><ele>22.0</ele><time>2026-04-28T13:41:01.024Z</time></trkpt><trkpt lat="38.428326" lon="22.4061131"><ele>22.0</ele><time>2026-04-28T13:41:02.024Z</time></trkpt><trkpt lat="38.428126" lon="22.4061984"><ele>22.0</ele><time>2026-04-28T13:41:03.024Z</time></trkpt><trkpt lat="38.4279213" lon="22.4062824"><ele>17.0</ele><time>2026-04-28T13:41:04.023Z</time></trkpt><trkpt lat="38.4276947" lon="22.4063585"><ele>12.0</ele><time>2026-04-28T13:41:05.023Z</time></trkpt><trkpt lat="38.4274446" lon="22.406434"><ele>12.0</ele><time>2026-04-28T13:41:06.023Z</time></trkpt><trkpt lat="38.4271795" lon="22.4065191"><ele>12.0</ele><time>2026-04-28T13:41:07.024Z</time></trkpt><trkpt lat="38.4269015" lon="22.4066032"><ele>15.0</ele><time>2026-04-28T13:41:08.024Z</time></trkpt><trkpt lat="38.4266003" lon="22.4066904"><ele>18.0</ele><time>2026-04-28T13:41:09.023Z</time></trkpt><trkpt lat="38.4262727" lon="22.406784"><ele>18.5</ele><time>2026-04-28T13:41:10.023Z</time></trkpt><trkpt lat="38.4259705" lon="22.4068707"><ele>19.0</ele><time>2026-04-28T13:41:11.024Z</time></trkpt><trkpt lat="38.4256833" lon="22.4069555"><ele>22.0</ele><time>2026-04-28T13:41:12.023Z</time></trkpt><trkpt lat="38.4254088" lon="22.4070374"><ele>25.0</ele><time>2026-04-28T13:41:13.024Z</time></trkpt><trkpt lat="38.4251514" lon="22.4071126"><ele>17.0</ele><time>2026-04-28T13:41:14.024Z</time></trkpt><trkpt lat="38.4249088" lon="22.4071817"><ele>9.0</ele><time>2026-04-28T13:41:15.023Z</time></trkpt><trkpt lat="38.4246729" lon="22.4072466"><ele>11.0</ele><time>2026-04-28T13:41:16.024Z</time></trkpt><trkpt lat="38.4244453" lon="22.4073048"><ele>13.0</ele><time>2026-04-28T13:41:17.024Z</time></trkpt><trkpt lat="38.424219" lon="22.4073541"><ele>13.0</ele><time>2026-04-28T13:41:18.023Z</time></trkpt><trkpt lat="38.4239977" lon="22.4073969"><ele>13.0</ele><time>2026-04-28T13:41:19.023Z</time></trkpt><trkpt lat="38.4237758" lon="22.4074331"><ele>13.0</ele><time>2026-04-28T13:41:20.024Z</time></trkpt><trkpt lat="38.423553" lon="22.4074606"><ele>15.333333333333332</ele><time>2026-04-28T13:41:21.024Z</time></trkpt><trkpt lat="38.4233312" lon="22.4074865"><ele>17.666666666666668</ele><time>2026-04-28T13:41:22.024Z</time></trkpt><trkpt lat="38.4231094" lon="22.4075023"><ele>20.0</ele><time>2026-04-28T13:41:23.024Z</time></trkpt><trkpt lat="38.4228954" lon="22.4075126"><ele>20.333333333333336</ele><time>2026-04-28T13:41:24.023Z</time></trkpt><trkpt lat="38.4226853" lon="22.4075179"><ele>20.666666666666668</ele><time>2026-04-28T13:41:25.023Z</time></trkpt><trkpt lat="38.4224762" lon="22.4075272"><ele>21.0</ele><time>2026-04-28T13:41:26.023Z</time></trkpt><trkpt lat="38.4222467" lon="22.4075213"><ele>22.333333333333336</ele><time>2026-04-28T13:41:27.024Z</time></trkpt><trkpt lat="38.42204" lon="22.4075284"><ele>23.666666666666668</ele><time>2026-04-28T13:41:28.024Z</time></trkpt><trkpt lat="38.421829" lon="22.4075305"><ele>25.0</ele><time>2026-04-28T13:41:29.024Z</time></trkpt><trkpt lat="38.421618" lon="22.407536"><ele>25.0</ele><time>2026-04-28T13:41:30.024Z</time></trkpt><trkpt lat="38.4214065" lon="22.4075438"><ele>25.0</ele><time>2026-04-28T13:41:31.023Z</time></trkpt><trkpt lat="38.421198" lon="22.4075527"><ele>25.0</ele><time>2026-04-28T13:41:32.024Z</time></trkpt><trkpt lat="38.4209954" lon="22.4075598"><ele>25.333333333333336</ele><time>2026-04-28T13:41:33.024Z</time></trkpt><trkpt lat="38.4207962" lon="22.4075717"><ele>25.666666666666664</ele><time>2026-04-28T13:41:34.024Z</time></trkpt><trkpt lat="38.4205974" lon="22.4075781"><ele>26.0</ele><time>2026-04-28T13:41:35.024Z</time></trkpt><trkpt lat="38.4203972" lon="22.4075896"><ele>28.0</ele><time>2026-04-28T13:41:36.023Z</time></trkpt><trkpt lat="38.4201962" lon="22.4075997"><ele>30.0</ele><time>2026-04-28T13:41:37.023Z</time></trkpt><trkpt lat="38.4199921" lon="22.4076068"><ele>32.0</ele><time>2026-04-28T13:41:38.023Z</time></trkpt><trkpt lat="38.4197846" lon="22.4076164"><ele>32.5</ele><time>2026-04-28T13:41:39.024Z</time></trkpt><trkpt lat="38.4195768" lon="22.407632"><ele>33.0</ele><time>2026-04-28T13:41:40.024Z</time></trkpt><trkpt lat="38.4193295" lon="22.4076323"><ele>33.0</ele><time>2026-04-28T13:41:41.023Z</time></trkpt><trkpt lat="38.4191169" lon="22.4076421"><ele>33.0</ele><time>2026-04-28T13:41:42.023Z</time></trkpt><trkpt lat="38.4189099" lon="22.4076503"><ele>33.0</ele><time>2026-04-28T13:41:43.024Z</time></trkpt><trkpt lat="38.4187168" lon="22.4076598"><ele>33.0</ele><time>2026-04-28T13:41:44.024Z</time></trkpt><trkpt lat="38.4185153" lon="22.4076706"><ele>33.0</ele><time>2026-04-28T13:41:45.024Z</time></trkpt><trkpt lat="38.4183143" lon="22.4076798"><ele>33.0</ele><time>2026-04-28T13:41:46.024Z</time></trkpt><trkpt lat="38.4181105" lon="22.4076885"><ele>33.666666666666664</ele><time>2026-04-28T13:41:47.024Z</time></trkpt><trkpt lat="38.417895" lon="22.4076922"><ele>34.33333333333333</ele><time>2026-04-28T13:41:48.024Z</time></trkpt><trkpt lat="38.4176814" lon="22.407697"><ele>35.0</ele><time>2026-04-28T13:41:49.023Z</time></trkpt><trkpt lat="38.4174681" lon="22.4076993"><ele>35.0</ele><time>2026-04-28T13:41:50.023Z</time></trkpt><trkpt lat="38.417258" lon="22.4076914"><ele>35.0</ele><time>2026-04-28T13:41:51.024Z</time></trkpt><trkpt lat="38.417047" lon="22.407678"><ele>35.0</ele><time>2026-04-28T13:41:52.023Z</time></trkpt><trkpt lat="38.4168338" lon="22.4076616"><ele>35.666666666666664</ele><time>2026-04-28T13:41:53.023Z</time></trkpt><trkpt lat="38.4166202" lon="22.4076426"><ele>36.333333333333336</ele><time>2026-04-28T13:41:54.024Z</time></trkpt><trkpt lat="38.4164089" lon="22.4076187"><ele>37.0</ele><time>2026-04-28T13:41:55.024Z</time></trkpt><trkpt lat="38.4161986" lon="22.4075909"><ele>37.333333333333336</ele><time>2026-04-28T13:41:56.023Z</time></trkpt><trkpt lat="38.4159894" lon="22.4075657"><ele>37.666666666666664</ele><time>2026-04-28T13:41:57.024Z</time></trkpt><trkpt lat="38.4157834" lon="22.407542"><ele>38.0</ele><time>2026-04-28T13:41:58.024Z</time></trkpt><trkpt lat="38.4155748" lon="22.4075166"><ele>38.33333333333333</ele><time>2026-04-28T13:41:59.023Z</time></trkpt><trkpt lat="38.4153673" lon="22.4074903"><ele>38.666666666666664</ele><time>2026-04-28T13:42:00.024Z</time></trkpt><trkpt lat="38.41516" lon="22.4074651"><ele>39.0</ele><time>2026-04-28T13:42:01.023Z</time></trkpt><trkpt lat="38.4149547" lon="22.4074409"><ele>39.0</ele><time>2026-04-28T13:42:02.023Z</time></trkpt><trkpt lat="38.4147508" lon="22.4074124"><ele>39.0</ele><time>2026-04-28T13:42:03.023Z</time></trkpt><trkpt lat="38.414547" lon="22.4073853"><ele>39.0</ele><time>2026-04-28T13:42:04.024Z</time></trkpt><trkpt lat="38.4143418" lon="22.4073605"><ele>38.333333333333336</ele><time>2026-04-28T13:42:05.024Z</time></trkpt><trkpt lat="38.4141408" lon="22.407337"><ele>37.66666666666667</ele><time>2026-04-28T13:42:06.024Z</time></trkpt><trkpt lat="38.4139364" lon="22.4073128"><ele>37.0</ele><time>2026-04-28T13:42:07.024Z</time></trkpt><trkpt lat="38.4137377" lon="22.4072888"><ele>35.333333333333336</ele><time>2026-04-28T13:42:08.024Z</time></trkpt><trkpt lat="38.4135362" lon="22.4072735"><ele>33.666666666666664</ele><time>2026-04-28T13:42:09.023Z</time></trkpt><trkpt lat="38.4133353" lon="22.4072482"><ele>32.0</ele><time>2026-04-28T13:42:10.023Z</time></trkpt><trkpt lat="38.4131355" lon="22.4072146"><ele>32.33333333333333</ele><time>2026-04-28T13:42:11.024Z</time></trkpt><trkpt lat="38.4129391" lon="22.4071739"><ele>32.666666666666664</ele><time>2026-04-28T13:42:12.024Z</time></trkpt><trkpt lat="38.4127482" lon="22.4071216"><ele>33.0</ele><time>2026-04-28T13:42:13.024Z</time></trkpt><trkpt lat="38.4125621" lon="22.4070487"><ele>32.333333333333336</ele><time>2026-04-28T13:42:14.023Z</time></trkpt><trkpt lat="38.4123851" lon="22.4069454"><ele>31.666666666666668</ele><time>2026-04-28T13:42:15.023Z</time></trkpt><trkpt lat="38.4122171" lon="22.4068292"><ele>31.0</ele><time>2026-04-28T13:42:16.024Z</time></trkpt><trkpt lat="38.4120571" lon="22.406685"><ele>31.0</ele><time>2026-04-28T13:42:17.023Z</time></trkpt><trkpt lat="38.4119063" lon="22.4065171"><ele>31.0</ele><time>2026-04-28T13:42:18.024Z</time></trkpt><trkpt lat="38.4117564" lon="22.4063295"><ele>31.0</ele><time>2026-04-28T13:42:19.023Z</time></trkpt><trkpt lat="38.4116089" lon="22.4061277"><ele>33.0</ele><time>2026-04-28T13:42:20.023Z</time></trkpt><trkpt lat="38.4114608" lon="22.4059272"><ele>35.0</ele><time>2026-04-28T13:42:21.024Z</time></trkpt><trkpt lat="38.4113185" lon="22.4057257"><ele>37.0</ele><time>2026-04-28T13:42:22.024Z</time></trkpt><trkpt lat="38.4111797" lon="22.405525"><ele>36.0</ele><time>2026-04-28T13:42:23.024Z</time></trkpt><trkpt lat="38.4110448" lon="22.4053271"><ele>35.0</ele><time>2026-04-28T13:42:24.023Z</time></trkpt><trkpt lat="38.4109131" lon="22.4051274"><ele>34.0</ele><time>2026-04-28T13:42:25.024Z</time></trkpt><trkpt lat="38.4107904" lon="22.404929"><ele>34.0</ele><time>2026-04-28T13:42:26.023Z</time></trkpt><trkpt lat="38.4106747" lon="22.4047289"><ele>34.0</ele><time>2026-04-28T13:42:27.023Z</time></trkpt><trkpt lat="38.410569" lon="22.4045219"><ele>34.0</ele><time>2026-04-28T13:42:28.023Z</time></trkpt><trkpt lat="38.4104784" lon="22.4043062"><ele>33.333333333333336</ele><time>2026-04-28T13:42:29.024Z</time></trkpt><trkpt lat="38.4103969" lon="22.4040879"><ele>32.666666666666664</ele><time>2026-04-28T13:42:30.023Z</time></trkpt><trkpt lat="38.4103276" lon="22.4038599"><ele>32.0</ele><time>2026-04-28T13:42:31.024Z</time></trkpt><trkpt lat="38.4102727" lon="22.4036156"><ele>32.0</ele><time>2026-04-28T13:42:32.024Z</time></trkpt><trkpt lat="38.4102211" lon="22.4033647"><ele>32.0</ele><time>2026-04-28T13:42:33.024Z</time></trkpt><trkpt lat="38.4101757" lon="22.4031039"><ele>32.0</ele><time>2026-04-28T13:42:34.023Z</time></trkpt><trkpt lat="38.4101381" lon="22.4028448"><ele>32.666666666666664</ele><time>2026-04-28T13:42:35.024Z</time></trkpt><trkpt lat="38.410103" lon="22.4025874"><ele>33.333333333333336</ele><time>2026-04-28T13:42:36.024Z</time></trkpt><trkpt lat="38.410067" lon="22.4023318"><ele>34.0</ele><time>2026-04-28T13:42:37.023Z</time></trkpt><trkpt lat="38.4100321" lon="22.402072"><ele>34.333333333333336</ele><time>2026-04-28T13:42:38.024Z</time></trkpt><trkpt lat="38.4099964" lon="22.4018119"><ele>34.666666666666664</ele><time>2026-04-28T13:42:39.023Z</time></trkpt><trkpt lat="38.409963" lon="22.4015505"><ele>35.0</ele><time>2026-04-28T13:42:40.024Z</time></trkpt><trkpt lat="38.409931" lon="22.4012872"><ele>35.0</ele><time>2026-04-28T13:42:41.024Z</time></trkpt><trkpt lat="38.4099013" lon="22.4010244"><ele>35.0</ele><time>2026-04-28T13:42:42.024Z</time></trkpt><trkpt lat="38.4098707" lon="22.4007665"><ele>35.0</ele><time>2026-04-28T13:42:43.023Z</time></trkpt><trkpt lat="38.4098486" lon="22.4005075"><ele>34.0</ele><time>2026-04-28T13:42:44.023Z</time></trkpt><trkpt lat="38.4098395" lon="22.4002544"><ele>33.0</ele><time>2026-04-28T13:42:45.024Z</time></trkpt><trkpt lat="38.4098386" lon="22.3999993"><ele>32.0</ele><time>2026-04-28T13:42:46.023Z</time></trkpt><trkpt lat="38.4098527" lon="22.3997455"><ele>31.333333333333332</ele><time>2026-04-28T13:42:47.024Z</time></trkpt><trkpt lat="38.4098809" lon="22.3994899"><ele>30.666666666666664</ele><time>2026-04-28T13:42:48.023Z</time></trkpt><trkpt lat="38.4099159" lon="22.3992397"><ele>30.0</ele><time>2026-04-28T13:42:49.024Z</time></trkpt><trkpt lat="38.4099536" lon="22.3989999"><ele>28.333333333333336</ele><time>2026-04-28T13:42:50.024Z</time></trkpt><trkpt lat="38.4099978" lon="22.3987647"><ele>26.666666666666668</ele><time>2026-04-28T13:42:51.023Z</time></trkpt><trkpt lat="38.4100411" lon="22.3985293"><ele>25.0</ele><time>2026-04-28T13:42:52.024Z</time></trkpt><trkpt lat="38.4100855" lon="22.3982929"><ele>25.0</ele><time>2026-04-28T13:42:53.024Z</time></trkpt><trkpt lat="38.4101294" lon="22.3980601"><ele>25.0</ele><time>2026-04-28T13:42:54.024Z</time></trkpt><trkpt lat="38.4101744" lon="22.3978275"><ele>25.0</ele><time>2026-04-28T13:42:55.024Z</time></trkpt><trkpt lat="38.410224" lon="22.3976011"><ele>24.0</ele><time>2026-04-28T13:42:56.024Z</time></trkpt><trkpt lat="38.4102833" lon="22.3973763"><ele>23.0</ele><time>2026-04-28T13:42:57.024Z</time></trkpt><trkpt lat="38.4103562" lon="22.3971527"><ele>22.0</ele><time>2026-04-28T13:42:58.024Z</time></trkpt><trkpt lat="38.4104357" lon="22.3969539"><ele>23.0</ele><time>2026-04-28T13:42:59.024Z</time></trkpt><trkpt lat="38.4105475" lon="22.396771"><ele>24.0</ele><time>2026-04-28T13:43:00.023Z</time></trkpt><trkpt lat="38.4106791" lon="22.3966027"><ele>25.0</ele><time>2026-04-28T13:43:01.023Z</time></trkpt><trkpt lat="38.4108206" lon="22.3964516"><ele>21.666666666666668</ele><time>2026-04-28T13:43:02.024Z</time></trkpt><trkpt lat="38.4109795" lon="22.3963341"><ele>18.333333333333336</ele><time>2026-04-28T13:43:03.023Z</time></trkpt><trkpt lat="38.4111574" lon="22.396241"><ele>15.0</ele><time>2026-04-28T13:43:04.024Z</time></trkpt><trkpt lat="38.411348" lon="22.3961614"><ele>15.0</ele><time>2026-04-28T13:43:05.023Z</time></trkpt><trkpt lat="38.4115437" lon="22.3960887"><ele>15.0</ele><time>2026-04-28T13:43:06.024Z</time></trkpt><trkpt lat="38.4117321" lon="22.3960279"><ele>15.0</ele><time>2026-04-28T13:43:07.024Z</time></trkpt><trkpt lat="38.411917" lon="22.3959665"><ele>15.0</ele><time>2026-04-28T13:43:08.024Z</time></trkpt><trkpt lat="38.4120993" lon="22.3959017"><ele>15.0</ele><time>2026-04-28T13:43:09.023Z</time></trkpt><trkpt lat="38.4122725" lon="22.3958265"><ele>15.0</ele><time>2026-04-28T13:43:10.024Z</time></trkpt><trkpt lat="38.412426" lon="22.3957327"><ele>17.0</ele><time>2026-04-28T13:43:11.024Z</time></trkpt><trkpt lat="38.412562" lon="22.3956135"><ele>19.0</ele><time>2026-04-28T13:43:12.023Z</time></trkpt><trkpt lat="38.4126733" lon="22.3954626"><ele>21.0</ele><time>2026-04-28T13:43:13.023Z</time></trkpt><trkpt lat="38.4127544" lon="22.3952742"><ele>16.666666666666668</ele><time>2026-04-28T13:43:14.023Z</time></trkpt><trkpt lat="38.4128066" lon="22.3950612"><ele>12.333333333333332</ele><time>2026-04-28T13:43:15.024Z</time></trkpt><trkpt lat="38.4128258" lon="22.39484"><ele>8.0</ele><time>2026-04-28T13:43:16.024Z</time></trkpt><trkpt lat="38.4128215" lon="22.394624"><ele>8.0</ele><time>2026-04-28T13:43:17.024Z</time></trkpt><trkpt lat="38.4127977" lon="22.3944195"><ele>8.0</ele><time>2026-04-28T13:43:18.023Z</time></trkpt><trkpt lat="38.4127581" lon="22.3942331"><ele>8.0</ele><time>2026-04-28T13:43:19.024Z</time></trkpt><trkpt lat="38.4126975" lon="22.3940694"><ele>8.0</ele><time>2026-04-28T13:43:20.024Z</time></trkpt><trkpt lat="38.4126072" lon="22.3939367"><ele>8.0</ele><time>2026-04-28T13:43:21.024Z</time></trkpt><trkpt lat="38.4124939" lon="22.3938344"><ele>8.0</ele><time>2026-04-28T13:43:22.024Z</time></trkpt><trkpt lat="38.4123499" lon="22.3937845"><ele>8.0</ele><time>2026-04-28T13:43:23.024Z</time></trkpt><trkpt lat="38.4121875" lon="22.3937533"><ele>7.333333333333333</ele><time>2026-04-28T13:43:24.024Z</time></trkpt><trkpt lat="38.4120037" lon="22.3938154"><ele>6.666666666666666</ele><time>2026-04-28T13:43:25.024Z</time></trkpt><trkpt lat="38.4118185" lon="22.3938718"><ele>6.0</ele><time>2026-04-28T13:43:26.024Z</time></trkpt><trkpt lat="38.4116436" lon="22.3939427"><ele>6.0</ele><time>2026-04-28T13:43:27.024Z</time></trkpt><trkpt lat="38.4114739" lon="22.3939699"><ele>6.0</ele><time>2026-04-28T13:43:28.024Z</time></trkpt><trkpt lat="38.4113166" lon="22.3939756"><ele>6.0</ele><time>2026-04-28T13:43:29.024Z</time></trkpt><trkpt lat="38.4111532" lon="22.393932"><ele>6.0</ele><time>2026-04-28T13:43:30.023Z</time></trkpt><trkpt lat="38.4109898" lon="22.3938992"><ele>6.0</ele><time>2026-04-28T13:43:31.023Z</time></trkpt><trkpt lat="38.410803" lon="22.3936648"><ele>6.0</ele><time>2026-04-28T13:43:32.024Z</time></trkpt><trkpt lat="38.4106172" lon="22.3935138"><ele>6.5</ele><time>2026-04-28T13:43:33.024Z</time></trkpt><trkpt lat="38.4104062" lon="22.3933066"><ele>7.0</ele><time>2026-04-28T13:43:34.023Z</time></trkpt><trkpt lat="38.4102215" lon="22.3931338"><ele>13.5</ele><time>2026-04-28T13:43:35.024Z</time></trkpt><trkpt lat="38.4100248" lon="22.3929584"><ele>20.0</ele><time>2026-04-28T13:43:36.023Z</time></trkpt><trkpt lat="38.4098508" lon="22.3927976"><ele>20.0</ele><time>2026-04-28T13:43:37.024Z</time></trkpt><trkpt lat="38.4096789" lon="22.3926316"><ele>20.0</ele><time>2026-04-28T13:43:38.024Z</time></trkpt><trkpt lat="38.4095051" lon="22.3924728"><ele>20.0</ele><time>2026-04-28T13:43:39.024Z</time></trkpt><trkpt lat="38.4093381" lon="22.3923159"><ele>19.666666666666668</ele><time>2026-04-28T13:43:40.024Z</time></trkpt><trkpt lat="38.4091711" lon="22.3921621"><ele>19.333333333333332</ele><time>2026-04-28T13:43:41.024Z</time></trkpt><trkpt lat="38.4090095" lon="22.3920125"><ele>19.0</ele><time>2026-04-28T13:43:42.023Z</time></trkpt><trkpt lat="38.4088563" lon="22.3918614"><ele>14.0</ele><time>2026-04-28T13:43:43.023Z</time></trkpt><trkpt lat="38.408713" lon="22.391711"><ele>9.0</ele><time>2026-04-28T13:43:44.023Z</time></trkpt><trkpt lat="38.4085832" lon="22.3915454"><ele>4.0</ele><time>2026-04-28T13:43:45.023Z</time></trkpt><trkpt lat="38.4084672" lon="22.3913646"><ele>7.333333333333334</ele><time>2026-04-28T13:43:46.024Z</time></trkpt><trkpt lat="38.4083626" lon="22.39117"><ele>10.666666666666668</ele><time>2026-04-28T13:43:47.024Z</time></trkpt><trkpt lat="38.4082615" lon="22.3909682"><ele>14.0</ele><time>2026-04-28T13:43:48.024Z</time></trkpt><trkpt lat="38.4081687" lon="22.3907783"><ele>14.0</ele><time>2026-04-28T13:43:49.024Z</time></trkpt><trkpt lat="38.4080842" lon="22.3905975"><ele>14.0</ele><time>2026-04-28T13:43:50.024Z</time></trkpt><trkpt lat="38.4080221" lon="22.3904219"><ele>14.0</ele><time>2026-04-28T13:43:51.023Z</time></trkpt><trkpt lat="38.4079671" lon="22.3902424"><ele>10.666666666666668</ele><time>2026-04-28T13:43:52.024Z</time></trkpt><trkpt lat="38.4079461" lon="22.3900523"><ele>7.333333333333334</ele><time>2026-04-28T13:43:53.024Z</time></trkpt><trkpt lat="38.4079385" lon="22.389855"><ele>4.0</ele><time>2026-04-28T13:43:54.024Z</time></trkpt><trkpt lat="38.4079424" lon="22.3896607"><ele>3.75</ele><time>2026-04-28T13:43:55.023Z</time></trkpt><trkpt lat="38.4079546" lon="22.389474"><ele>3.5</ele><time>2026-04-28T13:43:56.023Z</time></trkpt><trkpt lat="38.4079634" lon="22.389298"><ele>3.25</ele><time>2026-04-28T13:43:57.023Z</time></trkpt><trkpt lat="38.407968" lon="22.3891271"><ele>3.0</ele><time>2026-04-28T13:43:58.024Z</time></trkpt><trkpt lat="38.4079659" lon="22.3889543"><ele>4.25</ele><time>2026-04-28T13:43:59.024Z</time></trkpt><trkpt lat="38.4079508" lon="22.3887827"><ele>5.5</ele><time>2026-04-28T13:44:00.023Z</time></trkpt><trkpt lat="38.407914" lon="22.3886131"><ele>6.75</ele><time>2026-04-28T13:44:01.024Z</time></trkpt><trkpt lat="38.4078488" lon="22.3884411"><ele>8.0</ele><time>2026-04-28T13:44:02.023Z</time></trkpt><trkpt lat="38.4077419" lon="22.3882555"><ele>8.0</ele><time>2026-04-28T13:44:03.023Z</time></trkpt><trkpt lat="38.4075953" lon="22.3880549"><ele>8.0</ele><time>2026-04-28T13:44:04.023Z</time></trkpt><trkpt lat="38.4074188" lon="22.3878384"><ele>5.5</ele><time>2026-04-28T13:44:05.024Z</time></trkpt><trkpt lat="38.4072446" lon="22.3876286"><ele>3.0</ele><time>2026-04-28T13:44:06.024Z</time></trkpt><trkpt lat="38.4070909" lon="22.3874186"><ele>3.0</ele><time>2026-04-28T13:44:07.023Z</time></trkpt><trkpt lat="38.4069418" lon="22.3872174"><ele>3.0</ele><time>2026-04-28T13:44:08.023Z</time></trkpt><trkpt lat="38.4067911" lon="22.3870335"><ele>3.0</ele><time>2026-04-28T13:44:09.023Z</time></trkpt><trkpt lat="38.4066528" lon="22.3868553"><ele>2.3333333333333335</ele><time>2026-04-28T13:44:10.024Z</time></trkpt><trkpt lat="38.4065179" lon="22.3866784"><ele>1.6666666666666665</ele><time>2026-04-28T13:44:11.024Z</time></trkpt><trkpt lat="38.4063891" lon="22.3865117"><ele>1.0</ele><time>2026-04-28T13:44:12.023Z</time></trkpt><trkpt lat="38.4062702" lon="22.3863526"><ele>2.0</ele><time>2026-04-28T13:44:13.023Z</time></trkpt><trkpt lat="38.4061579" lon="22.386194"><ele>3.0</ele><time>2026-04-28T13:44:14.024Z</time></trkpt><trkpt lat="38.4060636" lon="22.38602"><ele>4.0</ele><time>2026-04-28T13:44:15.024Z</time></trkpt><trkpt lat="38.4059917" lon="22.3858227"><ele>4.0</ele><time>2026-04-28T13:44:16.023Z</time></trkpt><trkpt lat="38.4059434" lon="22.3855995"><ele>4.0</ele><time>2026-04-28T13:44:17.023Z</time></trkpt><trkpt lat="38.4059176" lon="22.3853614"><ele>4.0</ele><time>2026-04-28T13:44:18.024Z</time></trkpt><trkpt lat="38.4059068" lon="22.3851156"><ele>4.333333333333333</ele><time>2026-04-28T13:44:19.024Z</time></trkpt><trkpt lat="38.4058962" lon="22.3848716"><ele>4.666666666666667</ele><time>2026-04-28T13:44:20.023Z</time></trkpt><trkpt lat="38.4058798" lon="22.3846444"><ele>5.0</ele><time>2026-04-28T13:44:21.023Z</time></trkpt><trkpt lat="38.4058446" lon="22.3844328"><ele>5.0</ele><time>2026-04-28T13:44:22.024Z</time></trkpt><trkpt lat="38.4057853" lon="22.3842274"><ele>5.0</ele><time>2026-04-28T13:44:23.024Z</time></trkpt><trkpt lat="38.4056919" lon="22.3840413"><ele>5.0</ele><time>2026-04-28T13:44:24.024Z</time></trkpt><trkpt lat="38.4055654" lon="22.3838652"><ele>4.333333333333334</ele><time>2026-04-28T13:44:25.023Z</time></trkpt><trkpt lat="38.4054179" lon="22.3837091"><ele>3.666666666666667</ele><time>2026-04-28T13:44:26.023Z</time></trkpt><trkpt lat="38.405257" lon="22.3835674"><ele>3.0</ele><time>2026-04-28T13:44:27.024Z</time></trkpt><trkpt lat="38.4050818" lon="22.3834253"><ele>3.0</ele><time>2026-04-28T13:44:28.023Z</time></trkpt><trkpt lat="38.4049153" lon="22.3832877"><ele>3.0</ele><time>2026-04-28T13:44:29.024Z</time></trkpt><trkpt lat="38.4047443" lon="22.3831451"><ele>3.0</ele><time>2026-04-28T13:44:30.024Z</time></trkpt><trkpt lat="38.4045698" lon="22.3830027"><ele>4.333333333333334</ele><time>2026-04-28T13:44:31.024Z</time></trkpt><trkpt lat="38.4044007" lon="22.3828657"><ele>5.666666666666667</ele><time>2026-04-28T13:44:32.023Z</time></trkpt><trkpt lat="38.4042431" lon="22.38273"><ele>7.0</ele><time>2026-04-28T13:44:33.023Z</time></trkpt><trkpt lat="38.4040828" lon="22.3825981"><ele>7.0</ele><time>2026-04-28T13:44:34.023Z</time></trkpt><trkpt lat="38.4039205" lon="22.3824659"><ele>7.0</ele><time>2026-04-28T13:44:35.024Z</time></trkpt><trkpt lat="38.4037586" lon="22.3823366"><ele>7.0</ele><time>2026-04-28T13:44:36.023Z</time></trkpt><trkpt lat="38.4035969" lon="22.3822053"><ele>6.666666666666667</ele><time>2026-04-28T13:44:37.023Z</time></trkpt><trkpt lat="38.4034341" lon="22.3820674"><ele>6.333333333333334</ele><time>2026-04-28T13:44:38.023Z</time></trkpt><trkpt lat="38.4032779" lon="22.3819337"><ele>6.0</ele><time>2026-04-28T13:44:39.024Z</time></trkpt><trkpt lat="38.4031152" lon="22.3818023"><ele>5.333333333333333</ele><time>2026-04-28T13:44:40.024Z</time></trkpt><trkpt lat="38.4029585" lon="22.3816713"><ele>4.666666666666666</ele><time>2026-04-28T13:44:41.024Z</time></trkpt><trkpt lat="38.4027988" lon="22.3815434"><ele>4.0</ele><time>2026-04-28T13:44:42.024Z</time></trkpt><trkpt lat="38.402641" lon="22.381417"><ele>5.333333333333333</ele><time>2026-04-28T13:44:43.023Z</time></trkpt><trkpt lat="38.4024818" lon="22.3812919"><ele>6.666666666666666</ele><time>2026-04-28T13:44:44.024Z</time></trkpt><trkpt lat="38.4023238" lon="22.381167"><ele>8.0</ele><time>2026-04-28T13:44:45.024Z</time></trkpt><trkpt lat="38.4021674" lon="22.3810419"><ele>7.333333333333333</ele><time>2026-04-28T13:44:46.024Z</time></trkpt><trkpt lat="38.4020112" lon="22.3809134"><ele>6.666666666666666</ele><time>2026-04-28T13:44:47.024Z</time></trkpt><trkpt lat="38.4018518" lon="22.3807848"><ele>6.0</ele><time>2026-04-28T13:44:48.024Z</time></trkpt><trkpt lat="38.4016932" lon="22.380653"><ele>6.0</ele><time>2026-04-28T13:44:49.024Z</time></trkpt><trkpt lat="38.4015323" lon="22.3805218"><ele>6.0</ele><time>2026-04-28T13:44:50.024Z</time></trkpt><trkpt lat="38.4013712" lon="22.3803903"><ele>6.0</ele><time>2026-04-28T13:44:51.023Z</time></trkpt><trkpt lat="38.4012112" lon="22.380261"><ele>5.666666666666667</ele><time>2026-04-28T13:44:52.023Z</time></trkpt><trkpt lat="38.4010586" lon="22.3801361"><ele>5.333333333333334</ele><time>2026-04-28T13:44:53.023Z</time></trkpt><trkpt lat="38.4009092" lon="22.380015"><ele>5.0</ele><time>2026-04-28T13:44:54.023Z</time></trkpt><trkpt lat="38.400755" lon="22.3798998"><ele>5.0</ele><time>2026-04-28T13:44:55.023Z</time></trkpt><trkpt lat="38.4006045" lon="22.3797783"><ele>5.0</ele><time>2026-04-28T13:44:56.023Z</time></trkpt><trkpt lat="38.4004517" lon="22.3796572"><ele>5.0</ele><time>2026-04-28T13:44:57.024Z</time></trkpt><trkpt lat="38.4003002" lon="22.3795341"><ele>5.333333333333334</ele><time>2026-04-28T13:44:58.023Z</time></trkpt><trkpt lat="38.4001448" lon="22.3794128"><ele>5.666666666666667</ele><time>2026-04-28T13:44:59.023Z</time></trkpt><trkpt lat="38.3999906" lon="22.3792933"><ele>6.0</ele><time>2026-04-28T13:45:00.024Z</time></trkpt><trkpt lat="38.399838" lon="22.3791678"><ele>6.0</ele><time>2026-04-28T13:45:01.024Z</time></trkpt><trkpt lat="38.3996841" lon="22.3790488"><ele>6.0</ele><time>2026-04-28T13:45:02.024Z</time></trkpt><trkpt lat="38.3995303" lon="22.378923"><ele>6.0</ele><time>2026-04-28T13:45:03.023Z</time></trkpt><trkpt lat="38.3993768" lon="22.3787933"><ele>6.333333333333334</ele><time>2026-04-28T13:45:04.023Z</time></trkpt><trkpt lat="38.3992211" lon="22.3786673"><ele>6.666666666666667</ele><time>2026-04-28T13:45:05.024Z</time></trkpt><trkpt lat="38.3990705" lon="22.3785391"><ele>7.0</ele><time>2026-04-28T13:45:06.023Z</time></trkpt><trkpt lat="38.3989148" lon="22.3784127"><ele>6.333333333333334</ele><time>2026-04-28T13:45:07.023Z</time></trkpt><trkpt lat="38.3987604" lon="22.3782832"><ele>5.666666666666667</ele><time>2026-04-28T13:45:08.023Z</time></trkpt><trkpt lat="38.3986009" lon="22.3781544"><ele>5.0</ele><time>2026-04-28T13:45:09.023Z</time></trkpt><trkpt lat="38.3984422" lon="22.3780262"><ele>5.333333333333334</ele><time>2026-04-28T13:45:10.024Z</time></trkpt><trkpt lat="38.3982878" lon="22.3778953"><ele>5.666666666666667</ele><time>2026-04-28T13:45:11.023Z</time></trkpt><trkpt lat="38.3981296" lon="22.3777661"><ele>6.0</ele><time>2026-04-28T13:45:12.024Z</time></trkpt><trkpt lat="38.3979734" lon="22.3776324"><ele>6.0</ele><time>2026-04-28T13:45:13.024Z</time></trkpt><trkpt lat="38.3978137" lon="22.3775022"><ele>6.0</ele><time>2026-04-28T13:45:14.024Z</time></trkpt><trkpt lat="38.3976513" lon="22.3773725"><ele>6.0</ele><time>2026-04-28T13:45:15.024Z</time></trkpt><trkpt lat="38.397488" lon="22.3772397"><ele>5.666666666666667</ele><time>2026-04-28T13:45:16.024Z</time></trkpt><trkpt lat="38.3973313" lon="22.3771064"><ele>5.333333333333334</ele><time>2026-04-28T13:45:17.023Z</time></trkpt><trkpt lat="38.3971692" lon="22.3769765"><ele>5.0</ele><time>2026-04-28T13:45:18.024Z</time></trkpt><trkpt lat="38.3970106" lon="22.3768436"><ele>4.333333333333334</ele><time>2026-04-28T13:45:19.023Z</time></trkpt><trkpt lat="38.3968539" lon="22.3767136"><ele>3.666666666666667</ele><time>2026-04-28T13:45:20.023Z</time></trkpt><trkpt lat="38.3966987" lon="22.3765894"><ele>3.0</ele><time>2026-04-28T13:45:21.023Z</time></trkpt><trkpt lat="38.3965509" lon="22.3764673"><ele>3.0</ele><time>2026-04-28T13:45:22.023Z</time></trkpt><trkpt lat="38.3964092" lon="22.3763505"><ele>3.0</ele><time>2026-04-28T13:45:23.023Z</time></trkpt><trkpt lat="38.3962756" lon="22.3762412"><ele>3.0</ele><time>2026-04-28T13:45:24.023Z</time></trkpt><trkpt lat="38.3961448" lon="22.3761392"><ele>3.0</ele><time>2026-04-28T13:45:25.024Z</time></trkpt><trkpt lat="38.3960181" lon="22.3760372"><ele>3.0</ele><time>2026-04-28T13:45:26.024Z</time></trkpt><trkpt lat="38.3959012" lon="22.375936"><ele>3.0</ele><time>2026-04-28T13:45:27.023Z</time></trkpt><trkpt lat="38.3957888" lon="22.3758449"><ele>3.0</ele><time>2026-04-28T13:45:28.023Z</time></trkpt><trkpt lat="38.3956765" lon="22.3757527"><ele>3.0</ele><time>2026-04-28T13:45:29.023Z</time></trkpt><trkpt lat="38.3955668" lon="22.3756602"><ele>3.0</ele><time>2026-04-28T13:45:30.024Z</time></trkpt><trkpt lat="38.395454" lon="22.3755709"><ele>3.0</ele><time>2026-04-28T13:45:31.024Z</time></trkpt><trkpt lat="38.3953422" lon="22.3754797"><ele>3.0</ele><time>2026-04-28T13:45:32.024Z</time></trkpt><trkpt lat="38.3952388" lon="22.375389"><ele>3.0</ele><time>2026-04-28T13:45:33.023Z</time></trkpt><trkpt lat="38.395132" lon="22.3752956"><ele>3.0</ele><time>2026-04-28T13:45:34.024Z</time></trkpt><trkpt lat="38.3950213" lon="22.3752064"><ele>3.0</ele><time>2026-04-28T13:45:35.024Z</time></trkpt><trkpt lat="38.3949126" lon="22.3751158"><ele>3.0</ele><time>2026-04-28T13:45:36.024Z</time></trkpt><trkpt lat="38.3948051" lon="22.3750281"><ele>3.0</ele><time>2026-04-28T13:45:37.024Z</time></trkpt><trkpt lat="38.3947077" lon="22.3749413"><ele>3.0</ele><time>2026-04-28T13:45:38.024Z</time></trkpt><trkpt lat="38.3946075" lon="22.3748587"><ele>3.0</ele><time>2026-04-28T13:45:39.023Z</time></trkpt><trkpt lat="38.3945056" lon="22.374782"><ele>3.0</ele><time>2026-04-28T13:45:40.023Z</time></trkpt><trkpt lat="38.3944055" lon="22.3746994"><ele>3.0</ele><time>2026-04-28T13:45:41.023Z</time></trkpt><trkpt lat="38.394303" lon="22.3746179"><ele>3.0</ele><time>2026-04-28T13:45:42.024Z</time></trkpt><trkpt lat="38.3942014" lon="22.3745333"><ele>3.0</ele><time>2026-04-28T13:45:43.022Z</time></trkpt><trkpt lat="38.3940985" lon="22.374448"><ele>3.0</ele><time>2026-04-28T13:45:44.023Z</time></trkpt><trkpt lat="38.3939989" lon="22.3743612"><ele>3.0</ele><time>2026-04-28T13:45:45.023Z</time></trkpt><trkpt lat="38.3938909" lon="22.3742729"><ele>3.0</ele><time>2026-04-28T13:45:46.023Z</time></trkpt><trkpt lat="38.3937856" lon="22.3741839"><ele>3.0</ele><time>2026-04-28T13:45:47.023Z</time></trkpt><trkpt lat="38.3936732" lon="22.3740947"><ele>3.0</ele><time>2026-04-28T13:45:48.024Z</time></trkpt><trkpt lat="38.3935616" lon="22.3739998"><ele>3.0</ele><time>2026-04-28T13:45:49.024Z</time></trkpt><trkpt lat="38.3934505" lon="22.3739061"><ele>3.0</ele><time>2026-04-28T13:45:50.024Z</time></trkpt><trkpt lat="38.3933423" lon="22.3738115"><ele>3.0</ele><time>2026-04-28T13:45:51.024Z</time></trkpt><trkpt lat="38.3932385" lon="22.3737236"><ele>3.0</ele><time>2026-04-28T13:45:52.023Z</time></trkpt><trkpt lat="38.3931381" lon="22.3736387"><ele>3.0</ele><time>2026-04-28T13:45:53.023Z</time></trkpt><trkpt lat="38.3930364" lon="22.3735562"><ele>3.0</ele><time>2026-04-28T13:45:54.024Z</time></trkpt><trkpt lat="38.3929387" lon="22.3734741"><ele>3.0</ele><time>2026-04-28T13:45:55.023Z</time></trkpt><trkpt lat="38.3928385" lon="22.3733909"><ele>3.0</ele><time>2026-04-28T13:45:56.023Z</time></trkpt><trkpt lat="38.392738" lon="22.3733146"><ele>3.5</ele><time>2026-04-28T13:45:57.023Z</time></trkpt><trkpt lat="38.3926332" lon="22.373234"><ele>4.0</ele><time>2026-04-28T13:45:58.024Z</time></trkpt><trkpt lat="38.3925279" lon="22.3731505"><ele>4.5</ele><time>2026-04-28T13:45:59.023Z</time></trkpt><trkpt lat="38.3924156" lon="22.3730638"><ele>5.0</ele><time>2026-04-28T13:46:00.024Z</time></trkpt><trkpt lat="38.3922942" lon="22.3729768"><ele>5.5</ele><time>2026-04-28T13:46:01.023Z</time></trkpt><trkpt lat="38.3921672" lon="22.3728935"><ele>6.0</ele><time>2026-04-28T13:46:02.023Z</time></trkpt><trkpt lat="38.3920381" lon="22.3728137"><ele>6.5</ele><time>2026-04-28T13:46:03.023Z</time></trkpt><trkpt lat="38.3919032" lon="22.3727362"><ele>7.0</ele><time>2026-04-28T13:46:04.023Z</time></trkpt><trkpt lat="38.3917717" lon="22.3726672"><ele>7.0</ele><time>2026-04-28T13:46:05.023Z</time></trkpt><trkpt lat="38.3916364" lon="22.3726053"><ele>7.0</ele><time>2026-04-28T13:46:06.024Z</time></trkpt><trkpt lat="38.3915005" lon="22.3725481"><ele>7.0</ele><time>2026-04-28T13:46:07.023Z</time></trkpt><trkpt lat="38.3913557" lon="22.3724989"><ele>7.0</ele><time>2026-04-28T13:46:08.024Z</time></trkpt><trkpt lat="38.3912131" lon="22.3724565"><ele>6.0</ele><time>2026-04-28T13:46:09.024Z</time></trkpt><trkpt lat="38.3910658" lon="22.3724233"><ele>5.0</ele><time>2026-04-28T13:46:10.024Z</time></trkpt><trkpt lat="38.3909122" lon="22.3723966"><ele>4.0</ele><time>2026-04-28T13:46:11.024Z</time></trkpt><trkpt lat="38.3907531" lon="22.3723791"><ele>4.0</ele><time>2026-04-28T13:46:12.024Z</time></trkpt><trkpt lat="38.3905988" lon="22.3723681"><ele>4.0</ele><time>2026-04-28T13:46:13.024Z</time></trkpt><trkpt lat="38.3904424" lon="22.3723695"><ele>4.0</ele><time>2026-04-28T13:46:14.024Z</time></trkpt><trkpt lat="38.3902796" lon="22.372386"><ele>3.6666666666666665</ele><time>2026-04-28T13:46:15.023Z</time></trkpt><trkpt lat="38.3901142" lon="22.3724027"><ele>3.333333333333333</ele><time>2026-04-28T13:46:16.024Z</time></trkpt><trkpt lat="38.3899477" lon="22.3724337"><ele>3.0</ele><time>2026-04-28T13:46:17.024Z</time></trkpt><trkpt lat="38.3897794" lon="22.372472"><ele>1.3333333333333335</ele><time>2026-04-28T13:46:18.024Z</time></trkpt><trkpt lat="38.3896093" lon="22.3725135"><ele>-0.33333333333333326</ele><time>2026-04-28T13:46:19.024Z</time></trkpt><trkpt lat="38.3894422" lon="22.3725713"><ele>-2.0</ele><time>2026-04-28T13:46:20.023Z</time></trkpt><trkpt lat="38.3892815" lon="22.372638"><ele>-2.0</ele><time>2026-04-28T13:46:21.023Z</time></trkpt><trkpt lat="38.3891177" lon="22.3727079"><ele>-2.0</ele><time>2026-04-28T13:46:22.024Z</time></trkpt><trkpt lat="38.3889483" lon="22.3727784"><ele>-2.0</ele><time>2026-04-28T13:46:23.024Z</time></trkpt><trkpt lat="38.3887779" lon="22.3728569"><ele>-1.3333333333333333</ele><time>2026-04-28T13:46:24.024Z</time></trkpt><trkpt lat="38.3886107" lon="22.3729432"><ele>-0.6666666666666666</ele><time>2026-04-28T13:46:25.023Z</time></trkpt><trkpt lat="38.388443" lon="22.3730326"><ele>0.0</ele><time>2026-04-28T13:46:26.023Z</time></trkpt><trkpt lat="38.3882749" lon="22.3731233"><ele>0.3333333333333333</ele><time>2026-04-28T13:46:27.023Z</time></trkpt><trkpt lat="38.388108" lon="22.3732147"><ele>0.6666666666666666</ele><time>2026-04-28T13:46:28.023Z</time></trkpt><trkpt lat="38.3879348" lon="22.3733041"><ele>1.0</ele><time>2026-04-28T13:46:29.023Z</time></trkpt><trkpt lat="38.3877663" lon="22.3733928"><ele>1.0</ele><time>2026-04-28T13:46:30.024Z</time></trkpt><trkpt lat="38.3875976" lon="22.3734846"><ele>1.0</ele><time>2026-04-28T13:46:31.023Z</time></trkpt><trkpt lat="38.3874282" lon="22.3735785"><ele>1.0</ele><time>2026-04-28T13:46:32.023Z</time></trkpt><trkpt lat="38.3872559" lon="22.3736698"><ele>2.0</ele><time>2026-04-28T13:46:33.024Z</time></trkpt><trkpt lat="38.3870868" lon="22.3737564"><ele>3.0</ele><time>2026-04-28T13:46:34.023Z</time></trkpt><trkpt lat="38.3869196" lon="22.373846"><ele>4.0</ele><time>2026-04-28T13:46:35.023Z</time></trkpt><trkpt lat="38.3867522" lon="22.3739339"><ele>4.0</ele><time>2026-04-28T13:46:36.024Z</time></trkpt><trkpt lat="38.3865894" lon="22.3740227"><ele>4.0</ele><time>2026-04-28T13:46:37.023Z</time></trkpt><trkpt lat="38.3864303" lon="22.3741151"><ele>4.0</ele><time>2026-04-28T13:46:38.024Z</time></trkpt><trkpt lat="38.386263" lon="22.3742017"><ele>4.666666666666666</ele><time>2026-04-28T13:46:39.023Z</time></trkpt><trkpt lat="38.3860973" lon="22.3742919"><ele>5.333333333333333</ele><time>2026-04-28T13:46:40.023Z</time></trkpt><trkpt lat="38.3859336" lon="22.3743804"><ele>6.0</ele><time>2026-04-28T13:46:41.024Z</time></trkpt><trkpt lat="38.3857677" lon="22.3744686"><ele>6.0</ele><time>2026-04-28T13:46:42.024Z</time></trkpt><trkpt lat="38.3856023" lon="22.3745591"><ele>6.0</ele><time>2026-04-28T13:46:43.024Z</time></trkpt><trkpt lat="38.3854375" lon="22.3746482"><ele>6.0</ele><time>2026-04-28T13:46:44.024Z</time></trkpt><trkpt lat="38.3852706" lon="22.3747366"><ele>6.0</ele><time>2026-04-28T13:46:45.023Z</time></trkpt><trkpt lat="38.3851084" lon="22.3748262"><ele>6.0</ele><time>2026-04-28T13:46:46.024Z</time></trkpt><trkpt lat="38.3849424" lon="22.3749064"><ele>6.0</ele><time>2026-04-28T13:46:47.023Z</time></trkpt><trkpt lat="38.3847755" lon="22.3749911"><ele>7.0</ele><time>2026-04-28T13:46:48.023Z</time></trkpt><trkpt lat="38.3846099" lon="22.375078"><ele>8.0</ele><time>2026-04-28T13:46:49.023Z</time></trkpt><trkpt lat="38.3844445" lon="22.3751646"><ele>9.0</ele><time>2026-04-28T13:46:50.023Z</time></trkpt><trkpt lat="38.3842751" lon="22.3752508"><ele>9.0</ele><time>2026-04-28T13:46:51.024Z</time></trkpt><trkpt lat="38.3841085" lon="22.3753406"><ele>9.0</ele><time>2026-04-28T13:46:52.024Z</time></trkpt><trkpt lat="38.3839393" lon="22.3754328"><ele>9.0</ele><time>2026-04-28T13:46:53.023Z</time></trkpt><trkpt lat="38.3837691" lon="22.3755237"><ele>8.666666666666666</ele><time>2026-04-28T13:46:54.024Z</time></trkpt><trkpt lat="38.3835956" lon="22.3756149"><ele>8.333333333333332</ele><time>2026-04-28T13:46:55.024Z</time></trkpt><trkpt lat="38.3834245" lon="22.3757054"><ele>8.0</ele><time>2026-04-28T13:46:56.023Z</time></trkpt><trkpt lat="38.3832555" lon="22.3757963"><ele>8.0</ele><time>2026-04-28T13:46:57.024Z</time></trkpt><trkpt lat="38.383086" lon="22.3758856"><ele>8.0</ele><time>2026-04-28T13:46:58.023Z</time></trkpt><trkpt lat="38.3829169" lon="22.3759797"><ele>8.0</ele><time>2026-04-28T13:46:59.024Z</time></trkpt><trkpt lat="38.3827439" lon="22.3760728"><ele>8.0</ele><time>2026-04-28T13:47:00.024Z</time></trkpt><trkpt lat="38.3825711" lon="22.3761697"><ele>8.0</ele><time>2026-04-28T13:47:01.023Z</time></trkpt><trkpt lat="38.3823931" lon="22.3762629"><ele>8.0</ele><time>2026-04-28T13:47:02.024Z</time></trkpt><trkpt lat="38.3822085" lon="22.3763613"><ele>8.666666666666666</ele><time>2026-04-28T13:47:03.023Z</time></trkpt><trkpt lat="38.3820242" lon="22.3764635"><ele>9.333333333333334</ele><time>2026-04-28T13:47:04.023Z</time></trkpt><trkpt lat="38.3818371" lon="22.3765674"><ele>10.0</ele><time>2026-04-28T13:47:05.024Z</time></trkpt><trkpt lat="38.381645" lon="22.3766717"><ele>10.0</ele><time>2026-04-28T13:47:06.023Z</time></trkpt><trkpt lat="38.3814519" lon="22.3767699"><ele>10.0</ele><time>2026-04-28T13:47:07.023Z</time></trkpt><trkpt lat="38.3812574" lon="22.3768756"><ele>10.0</ele><time>2026-04-28T13:47:08.024Z</time></trkpt><trkpt lat="38.381068" lon="22.3769814"><ele>10.0</ele><time>2026-04-28T13:47:09.023Z</time></trkpt><trkpt lat="38.3808719" lon="22.3770793"><ele>10.0</ele><time>2026-04-28T13:47:10.023Z</time></trkpt><trkpt lat="38.3806773" lon="22.3771786"><ele>10.0</ele><time>2026-04-28T13:47:11.024Z</time></trkpt><trkpt lat="38.3804867" lon="22.3772783"><ele>10.0</ele><time>2026-04-28T13:47:12.024Z</time></trkpt><trkpt lat="38.3802958" lon="22.3773784"><ele>10.0</ele><time>2026-04-28T13:47:13.024Z</time></trkpt><trkpt lat="38.380109" lon="22.3774822"><ele>10.0</ele><time>2026-04-28T13:47:14.024Z</time></trkpt><trkpt lat="38.379919" lon="22.3775839"><ele>10.0</ele><time>2026-04-28T13:47:15.023Z</time></trkpt><trkpt lat="38.3797321" lon="22.3776862"><ele>10.0</ele><time>2026-04-28T13:47:16.024Z</time></trkpt><trkpt lat="38.3795435" lon="22.3777874"><ele>10.0</ele><time>2026-04-28T13:47:17.024Z</time></trkpt><trkpt lat="38.3793539" lon="22.3778899"><ele>10.0</ele><time>2026-04-28T13:47:18.024Z</time></trkpt><trkpt lat="38.3791628" lon="22.3779889"><ele>10.0</ele><time>2026-04-28T13:47:19.024Z</time></trkpt><trkpt lat="38.3789727" lon="22.3780878"><ele>10.0</ele><time>2026-04-28T13:47:20.024Z</time></trkpt><trkpt lat="38.3787836" lon="22.3781873"><ele>10.333333333333334</ele><time>2026-04-28T13:47:21.023Z</time></trkpt><trkpt lat="38.3785939" lon="22.3782887"><ele>10.666666666666666</ele><time>2026-04-28T13:47:22.023Z</time></trkpt><trkpt lat="38.3784032" lon="22.3783912"><ele>11.0</ele><time>2026-04-28T13:47:23.023Z</time></trkpt><trkpt lat="38.3782146" lon="22.3784924"><ele>11.0</ele><time>2026-04-28T13:47:24.023Z</time></trkpt><trkpt lat="38.3780259" lon="22.3785917"><ele>11.0</ele><time>2026-04-28T13:47:25.024Z</time></trkpt><trkpt lat="38.3778397" lon="22.3786908"><ele>11.0</ele><time>2026-04-28T13:47:26.023Z</time></trkpt><trkpt lat="38.3776545" lon="22.3787943"><ele>11.666666666666666</ele><time>2026-04-28T13:47:27.023Z</time></trkpt><trkpt lat="38.3774743" lon="22.378892"><ele>12.333333333333332</ele><time>2026-04-28T13:47:28.024Z</time></trkpt><trkpt lat="38.3772924" lon="22.3789887"><ele>13.0</ele><time>2026-04-28T13:47:29.023Z</time></trkpt><trkpt lat="38.3771076" lon="22.3790837"><ele>15.0</ele><time>2026-04-28T13:47:30.024Z</time></trkpt><trkpt lat="38.3769239" lon="22.3791779"><ele>17.0</ele><time>2026-04-28T13:47:31.023Z</time></trkpt><trkpt lat="38.3767355" lon="22.3792756"><ele>19.0</ele><time>2026-04-28T13:47:32.023Z</time></trkpt><trkpt lat="38.3765406" lon="22.379381"><ele>20.0</ele><time>2026-04-28T13:47:33.024Z</time></trkpt><trkpt lat="38.3763424" lon="22.3794904"><ele>21.0</ele><time>2026-04-28T13:47:34.024Z</time></trkpt><trkpt lat="38.3761398" lon="22.3795996"><ele>22.0</ele><time>2026-04-28T13:47:35.023Z</time></trkpt><trkpt lat="38.3759349" lon="22.37971"><ele>22.0</ele><time>2026-04-28T13:47:36.024Z</time></trkpt><trkpt lat="38.3757288" lon="22.3798183"><ele>22.0</ele><time>2026-04-28T13:47:37.023Z</time></trkpt><trkpt lat="38.3755269" lon="22.3799256"><ele>22.0</ele><time>2026-04-28T13:47:38.024Z</time></trkpt><trkpt lat="38.3753278" lon="22.3800316"><ele>21.666666666666664</ele><time>2026-04-28T13:47:39.023Z</time></trkpt><trkpt lat="38.3751192" lon="22.3801368"><ele>21.333333333333332</ele><time>2026-04-28T13:47:40.023Z</time></trkpt><trkpt lat="38.3749165" lon="22.3802417"><ele>21.0</ele><time>2026-04-28T13:47:41.023Z</time></trkpt><trkpt lat="38.3747182" lon="22.3803493"><ele>21.0</ele><time>2026-04-28T13:47:42.023Z</time></trkpt><trkpt lat="38.3745218" lon="22.380454"><ele>21.0</ele><time>2026-04-28T13:47:43.023Z</time></trkpt><trkpt lat="38.3743278" lon="22.380558"><ele>21.0</ele><time>2026-04-28T13:47:44.023Z</time></trkpt><trkpt lat="38.3741339" lon="22.380656"><ele>21.333333333333332</ele><time>2026-04-28T13:47:45.024Z</time></trkpt><trkpt lat="38.3739381" lon="22.3807449"><ele>21.666666666666664</ele><time>2026-04-28T13:47:46.024Z</time></trkpt><trkpt lat="38.3737372" lon="22.3808212"><ele>22.0</ele><time>2026-04-28T13:47:47.023Z</time></trkpt><trkpt lat="38.3735345" lon="22.3808872"><ele>24.0</ele><time>2026-04-28T13:47:48.023Z</time></trkpt><trkpt lat="38.3733303" lon="22.3809442"><ele>26.0</ele><time>2026-04-28T13:47:49.024Z</time></trkpt><trkpt lat="38.3731264" lon="22.3809973"><ele>28.0</ele><time>2026-04-28T13:47:50.024Z</time></trkpt><trkpt lat="38.3729198" lon="22.3810436"><ele>32.0</ele><time>2026-04-28T13:47:51.023Z</time></trkpt><trkpt lat="38.3727074" lon="22.3810794"><ele>36.0</ele><time>2026-04-28T13:47:52.024Z</time></trkpt><trkpt lat="38.3724923" lon="22.3810974"><ele>40.0</ele><time>2026-04-28T13:47:53.024Z</time></trkpt><trkpt lat="38.3722757" lon="22.3811143"><ele>40.66666666666667</ele><time>2026-04-28T13:47:54.024Z</time></trkpt><trkpt lat="38.372054" lon="22.3811144"><ele>41.333333333333336</ele><time>2026-04-28T13:47:55.024Z</time></trkpt><trkpt lat="38.3718285" lon="22.3811033"><ele>42.0</ele><time>2026-04-28T13:47:56.024Z</time></trkpt><trkpt lat="38.3715999" lon="22.3810897"><ele>42.0</ele><time>2026-04-28T13:47:57.024Z</time></trkpt><trkpt lat="38.3713686" lon="22.3810736"><ele>42.0</ele><time>2026-04-28T13:47:58.024Z</time></trkpt><trkpt lat="38.3711373" lon="22.3810605"><ele>42.0</ele><time>2026-04-28T13:47:59.024Z</time></trkpt><trkpt lat="38.3709014" lon="22.3810388"><ele>42.0</ele><time>2026-04-28T13:48:00.024Z</time></trkpt><trkpt lat="38.3706621" lon="22.3810187"><ele>39.5</ele><time>2026-04-28T13:48:01.024Z</time></trkpt><trkpt lat="38.3704228" lon="22.381"><ele>37.0</ele><time>2026-04-28T13:48:02.024Z</time></trkpt><trkpt lat="38.370183" lon="22.3809886"><ele>37.0</ele><time>2026-04-28T13:48:03.023Z</time></trkpt><trkpt lat="38.3699392" lon="22.3809683"><ele>37.0</ele><time>2026-04-28T13:48:04.024Z</time></trkpt><trkpt lat="38.3696985" lon="22.3809495"><ele>37.5</ele><time>2026-04-28T13:48:05.024Z</time></trkpt><trkpt lat="38.3694549" lon="22.3809285"><ele>38.0</ele><time>2026-04-28T13:48:06.024Z</time></trkpt><trkpt lat="38.369212" lon="22.3809067"><ele>38.0</ele><time>2026-04-28T13:48:07.024Z</time></trkpt><trkpt lat="38.3689724" lon="22.3808858"><ele>38.0</ele><time>2026-04-28T13:48:08.023Z</time></trkpt><trkpt lat="38.3687321" lon="22.380863"><ele>39.5</ele><time>2026-04-28T13:48:09.023Z</time></trkpt><trkpt lat="38.3685001" lon="22.3808453"><ele>41.0</ele><time>2026-04-28T13:48:10.023Z</time></trkpt><trkpt lat="38.3682623" lon="22.380823"><ele>38.5</ele><time>2026-04-28T13:48:11.023Z</time></trkpt><trkpt lat="38.3680235" lon="22.3808042"><ele>36.0</ele><time>2026-04-28T13:48:12.023Z</time></trkpt><trkpt lat="38.3677885" lon="22.3807869"><ele>36.0</ele><time>2026-04-28T13:48:13.024Z</time></trkpt><trkpt lat="38.3675555" lon="22.3807722"><ele>36.0</ele><time>2026-04-28T13:48:14.023Z</time></trkpt><trkpt lat="38.367324" lon="22.3807605"><ele>36.5</ele><time>2026-04-28T13:48:15.024Z</time></trkpt><trkpt lat="38.3670912" lon="22.3807551"><ele>37.0</ele><time>2026-04-28T13:48:16.023Z</time></trkpt><trkpt lat="38.3668562" lon="22.3807539"><ele>37.0</ele><time>2026-04-28T13:48:17.024Z</time></trkpt><trkpt lat="38.3666184" lon="22.3807638"><ele>37.0</ele><time>2026-04-28T13:48:18.024Z</time></trkpt><trkpt lat="38.3663782" lon="22.3807826"><ele>37.0</ele><time>2026-04-28T13:48:19.024Z</time></trkpt><trkpt lat="38.3661415" lon="22.3808107"><ele>37.0</ele><time>2026-04-28T13:48:20.023Z</time></trkpt><trkpt lat="38.3659056" lon="22.38085"><ele>37.0</ele><time>2026-04-28T13:48:21.023Z</time></trkpt><trkpt lat="38.3656685" lon="22.3808938"><ele>37.0</ele><time>2026-04-28T13:48:22.023Z</time></trkpt><trkpt lat="38.3654296" lon="22.3809473"><ele>37.5</ele><time>2026-04-28T13:48:23.023Z</time></trkpt><trkpt lat="38.3651932" lon="22.3810154"><ele>38.0</ele><time>2026-04-28T13:48:24.023Z</time></trkpt><trkpt lat="38.364961" lon="22.3810911"><ele>38.0</ele><time>2026-04-28T13:48:25.023Z</time></trkpt><trkpt lat="38.3647294" lon="22.3811697"><ele>38.0</ele><time>2026-04-28T13:48:26.023Z</time></trkpt><trkpt lat="38.3644975" lon="22.3812474"><ele>38.5</ele><time>2026-04-28T13:48:27.024Z</time></trkpt><trkpt lat="38.3642693" lon="22.3813304"><ele>39.0</ele><time>2026-04-28T13:48:28.023Z</time></trkpt><trkpt lat="38.3640411" lon="22.3814099"><ele>39.5</ele><time>2026-04-28T13:48:29.023Z</time></trkpt><trkpt lat="38.3638147" lon="22.3814924"><ele>40.0</ele><time>2026-04-28T13:48:30.023Z</time></trkpt><trkpt lat="38.3635916" lon="22.381573"><ele>40.0</ele><time>2026-04-28T13:48:31.024Z</time></trkpt><trkpt lat="38.3633689" lon="22.3816537"><ele>40.0</ele><time>2026-04-28T13:48:32.024Z</time></trkpt><trkpt lat="38.363146" lon="22.3817292"><ele>42.5</ele><time>2026-04-28T13:48:33.024Z</time></trkpt><trkpt lat="38.3629232" lon="22.3818081"><ele>45.0</ele><time>2026-04-28T13:48:34.024Z</time></trkpt><trkpt lat="38.3626998" lon="22.3818815"><ele>45.0</ele><time>2026-04-28T13:48:35.023Z</time></trkpt><trkpt lat="38.3624803" lon="22.3819629"><ele>45.0</ele><time>2026-04-28T13:48:36.023Z</time></trkpt><trkpt lat="38.3622613" lon="22.3820402"><ele>41.666666666666664</ele><time>2026-04-28T13:48:37.024Z</time></trkpt><trkpt lat="38.362045" lon="22.3821165"><ele>38.33333333333333</ele><time>2026-04-28T13:48:38.024Z</time></trkpt><trkpt lat="38.3618302" lon="22.3821921"><ele>35.0</ele><time>2026-04-28T13:48:39.023Z</time></trkpt><trkpt lat="38.3616193" lon="22.382266"><ele>35.0</ele><time>2026-04-28T13:48:40.023Z</time></trkpt><trkpt lat="38.3614088" lon="22.3823307"><ele>35.0</ele><time>2026-04-28T13:48:41.023Z</time></trkpt><trkpt lat="38.3611963" lon="22.3823919"><ele>35.0</ele><time>2026-04-28T13:48:42.023Z</time></trkpt><trkpt lat="38.3609827" lon="22.3824494"><ele>39.33333333333333</ele><time>2026-04-28T13:48:43.024Z</time></trkpt><trkpt lat="38.3607707" lon="22.3825056"><ele>43.666666666666664</ele><time>2026-04-28T13:48:44.023Z</time></trkpt><trkpt lat="38.3605579" lon="22.3825604"><ele>48.0</ele><time>2026-04-28T13:48:45.023Z</time></trkpt><trkpt lat="38.3603477" lon="22.3826149"><ele>50.66666666666667</ele><time>2026-04-28T13:48:46.023Z</time></trkpt><trkpt lat="38.3601361" lon="22.3826643"><ele>53.333333333333336</ele><time>2026-04-28T13:48:47.024Z</time></trkpt><trkpt lat="38.3599278" lon="22.3827064"><ele>56.0</ele><time>2026-04-28T13:48:48.023Z</time></trkpt><trkpt lat="38.3597218" lon="22.3827505"><ele>57.0</ele><time>2026-04-28T13:48:49.023Z</time></trkpt><trkpt lat="38.3595155" lon="22.3827922"><ele>58.0</ele><time>2026-04-28T13:48:50.023Z</time></trkpt><trkpt lat="38.3593128" lon="22.3828331"><ele>59.0</ele><time>2026-04-28T13:48:51.024Z</time></trkpt><trkpt lat="38.359109" lon="22.3828772"><ele>59.0</ele><time>2026-04-28T13:48:52.023Z</time></trkpt><trkpt lat="38.3589065" lon="22.3829223"><ele>59.0</ele><time>2026-04-28T13:48:53.023Z</time></trkpt><trkpt lat="38.3587047" lon="22.3829654"><ele>59.0</ele><time>2026-04-28T13:48:54.024Z</time></trkpt><trkpt lat="38.3585018" lon="22.3830065"><ele>53.66666666666667</ele><time>2026-04-28T13:48:55.023Z</time></trkpt><trkpt lat="38.3583025" lon="22.3830486"><ele>48.333333333333336</ele><time>2026-04-28T13:48:56.024Z</time></trkpt><trkpt lat="38.3581072" lon="22.3830909"><ele>43.0</ele><time>2026-04-28T13:48:57.024Z</time></trkpt><trkpt lat="38.3579141" lon="22.3831291"><ele>43.0</ele><time>2026-04-28T13:48:58.024Z</time></trkpt><trkpt lat="38.3577264" lon="22.3831653"><ele>43.0</ele><time>2026-04-28T13:48:59.023Z</time></trkpt><trkpt lat="38.3575444" lon="22.3831938"><ele>43.0</ele><time>2026-04-28T13:49:00.023Z</time></trkpt><trkpt lat="38.357364" lon="22.3832054"><ele>41.333333333333336</ele><time>2026-04-28T13:49:01.024Z</time></trkpt><trkpt lat="38.3571911" lon="22.3831947"><ele>39.666666666666664</ele><time>2026-04-28T13:49:02.023Z</time></trkpt><trkpt lat="38.357021" lon="22.3831588"><ele>38.0</ele><time>2026-04-28T13:49:03.023Z</time></trkpt><trkpt lat="38.356858" lon="22.3830992"><ele>47.0</ele><time>2026-04-28T13:49:04.023Z</time></trkpt><trkpt lat="38.3567077" lon="22.383014"><ele>56.0</ele><time>2026-04-28T13:49:05.023Z</time></trkpt><trkpt lat="38.3565641" lon="22.3829074"><ele>65.0</ele><time>2026-04-28T13:49:06.024Z</time></trkpt><trkpt lat="38.3564292" lon="22.3827776"><ele>59.0</ele><time>2026-04-28T13:49:07.023Z</time></trkpt><trkpt lat="38.3563099" lon="22.3826237"><ele>53.0</ele><time>2026-04-28T13:49:08.024Z</time></trkpt><trkpt lat="38.3562129" lon="22.3824577"><ele>47.0</ele><time>2026-04-28T13:49:09.024Z</time></trkpt><trkpt lat="38.356129" lon="22.3822741"><ele>48.33333333333333</ele><time>2026-04-28T13:49:10.024Z</time></trkpt><trkpt lat="38.3560626" lon="22.3820743"><ele>49.666666666666664</ele><time>2026-04-28T13:49:11.023Z</time></trkpt><trkpt lat="38.3560132" lon="22.3818737"><ele>51.0</ele><time>2026-04-28T13:49:12.023Z</time></trkpt><trkpt lat="38.3559924" lon="22.3816669"><ele>51.0</ele><time>2026-04-28T13:49:13.023Z</time></trkpt><trkpt lat="38.3559849" lon="22.3814556"><ele>51.0</ele><time>2026-04-28T13:49:14.024Z</time></trkpt><trkpt lat="38.3559871" lon="22.3812439"><ele>51.0</ele><time>2026-04-28T13:49:15.023Z</time></trkpt><trkpt lat="38.3559958" lon="22.3810313"><ele>50.0</ele><time>2026-04-28T13:49:16.023Z</time></trkpt><trkpt lat="38.3560074" lon="22.3808179"><ele>49.0</ele><time>2026-04-28T13:49:17.023Z</time></trkpt><trkpt lat="38.3560145" lon="22.3806045"><ele>48.0</ele><time>2026-04-28T13:49:18.023Z</time></trkpt><trkpt lat="38.3560125" lon="22.3803893"><ele>51.66666666666667</ele><time>2026-04-28T13:49:19.024Z</time></trkpt><trkpt lat="38.3559863" lon="22.3801784"><ele>55.333333333333336</ele><time>2026-04-28T13:49:20.023Z</time></trkpt><trkpt lat="38.3559427" lon="22.3799701"><ele>59.0</ele><time>2026-04-28T13:49:21.024Z</time></trkpt><trkpt lat="38.3558787" lon="22.3797684"><ele>64.0</ele><time>2026-04-28T13:49:22.023Z</time></trkpt><trkpt lat="38.3557967" lon="22.3795766"><ele>69.0</ele><time>2026-04-28T13:49:23.023Z</time></trkpt><trkpt lat="38.3556864" lon="22.3793989"><ele>74.0</ele><time>2026-04-28T13:49:24.023Z</time></trkpt><trkpt lat="38.355559" lon="22.3792235"><ele>71.33333333333334</ele><time>2026-04-28T13:49:25.023Z</time></trkpt><trkpt lat="38.3554221" lon="22.3790606"><ele>68.66666666666667</ele><time>2026-04-28T13:49:26.024Z</time></trkpt><trkpt lat="38.3552721" lon="22.3789066"><ele>66.0</ele><time>2026-04-28T13:49:27.024Z</time></trkpt><trkpt lat="38.3551154" lon="22.3787589"><ele>63.66666666666667</ele><time>2026-04-28T13:49:28.024Z</time></trkpt><trkpt lat="38.3549562" lon="22.3786106"><ele>61.333333333333336</ele><time>2026-04-28T13:49:29.024Z</time></trkpt><trkpt lat="38.3547963" lon="22.3784613"><ele>59.0</ele><time>2026-04-28T13:49:30.024Z</time></trkpt><trkpt lat="38.3546334" lon="22.378312"><ele>59.0</ele><time>2026-04-28T13:49:31.024Z</time></trkpt><trkpt lat="38.3544732" lon="22.3781647"><ele>59.0</ele><time>2026-04-28T13:49:32.024Z</time></trkpt><trkpt lat="38.3543116" lon="22.3780191"><ele>59.0</ele><time>2026-04-28T13:49:33.023Z</time></trkpt><trkpt lat="38.3541529" lon="22.3778714"><ele>60.0</ele><time>2026-04-28T13:49:34.024Z</time></trkpt><trkpt lat="38.3539954" lon="22.3777296"><ele>61.0</ele><time>2026-04-28T13:49:35.024Z</time></trkpt><trkpt lat="38.353838" lon="22.3775872"><ele>62.0</ele><time>2026-04-28T13:49:36.024Z</time></trkpt><trkpt lat="38.3536866" lon="22.3774452"><ele>62.0</ele><time>2026-04-28T13:49:37.024Z</time></trkpt><trkpt lat="38.3535401" lon="22.377305"><ele>62.0</ele><time>2026-04-28T13:49:38.023Z</time></trkpt><trkpt lat="38.3533997" lon="22.3771597"><ele>62.0</ele><time>2026-04-28T13:49:39.023Z</time></trkpt><trkpt lat="38.3532663" lon="22.3770028"><ele>60.333333333333336</ele><time>2026-04-28T13:49:40.023Z</time></trkpt><trkpt lat="38.3531383" lon="22.3768408"><ele>58.66666666666667</ele><time>2026-04-28T13:49:41.024Z</time></trkpt><trkpt lat="38.3530256" lon="22.3766613"><ele>57.0</ele><time>2026-04-28T13:49:42.024Z</time></trkpt><trkpt lat="38.3529223" lon="22.3764561"><ele>63.0</ele><time>2026-04-28T13:49:43.024Z</time></trkpt><trkpt lat="38.3528321" lon="22.3762437"><ele>69.0</ele><time>2026-04-28T13:49:44.024Z</time></trkpt><trkpt lat="38.352749" lon="22.3760233"><ele>75.0</ele><time>2026-04-28T13:49:45.023Z</time></trkpt><trkpt lat="38.3526678" lon="22.3757985"><ele>75.0</ele><time>2026-04-28T13:49:46.023Z</time></trkpt><trkpt lat="38.3525879" lon="22.3755701"><ele>75.0</ele><time>2026-04-28T13:49:47.024Z</time></trkpt><trkpt lat="38.3525068" lon="22.3753435"><ele>75.0</ele><time>2026-04-28T13:49:48.024Z</time></trkpt><trkpt lat="38.3524238" lon="22.375121"><ele>74.33333333333333</ele><time>2026-04-28T13:49:49.024Z</time></trkpt><trkpt lat="38.3523443" lon="22.374901"><ele>73.66666666666666</ele><time>2026-04-28T13:49:50.024Z</time></trkpt><trkpt lat="38.3522654" lon="22.3746795"><ele>73.0</ele><time>2026-04-28T13:49:51.023Z</time></trkpt><trkpt lat="38.3521888" lon="22.3744533"><ele>73.0</ele><time>2026-04-28T13:49:52.023Z</time></trkpt><trkpt lat="38.3521122" lon="22.3742288"><ele>73.0</ele><time>2026-04-28T13:49:53.023Z</time></trkpt><trkpt lat="38.3520389" lon="22.3740081"><ele>73.0</ele><time>2026-04-28T13:49:54.024Z</time></trkpt><trkpt lat="38.3519693" lon="22.3737981"><ele>77.0</ele><time>2026-04-28T13:49:55.024Z</time></trkpt><trkpt lat="38.3519037" lon="22.3736035"><ele>81.0</ele><time>2026-04-28T13:49:56.024Z</time></trkpt><trkpt lat="38.3518444" lon="22.373408"><ele>85.0</ele><time>2026-04-28T13:49:57.024Z</time></trkpt><trkpt lat="38.3517945" lon="22.3732185"><ele>85.0</ele><time>2026-04-28T13:49:58.024Z</time></trkpt><trkpt lat="38.3517559" lon="22.3730235"><ele>85.0</ele><time>2026-04-28T13:49:59.024Z</time></trkpt><trkpt lat="38.3517319" lon="22.3728231"><ele>85.0</ele><time>2026-04-28T13:50:00.023Z</time></trkpt><trkpt lat="38.3517216" lon="22.372622"><ele>84.66666666666666</ele><time>2026-04-28T13:50:01.024Z</time></trkpt><trkpt lat="38.3517255" lon="22.3724183"><ele>84.33333333333333</ele><time>2026-04-28T13:50:02.023Z</time></trkpt><trkpt lat="38.3517403" lon="22.3722129"><ele>84.0</ele><time>2026-04-28T13:50:03.024Z</time></trkpt><trkpt lat="38.3517695" lon="22.3720076"><ele>84.0</ele><time>2026-04-28T13:50:04.023Z</time></trkpt><trkpt lat="38.3518087" lon="22.3718027"><ele>84.0</ele><time>2026-04-28T13:50:05.023Z</time></trkpt><trkpt lat="38.3518469" lon="22.3715975"><ele>84.0</ele><time>2026-04-28T13:50:06.024Z</time></trkpt><trkpt lat="38.3518928" lon="22.3713823"><ele>82.33333333333333</ele><time>2026-04-28T13:50:07.024Z</time></trkpt><trkpt lat="38.3519402" lon="22.3711686"><ele>80.66666666666666</ele><time>2026-04-28T13:50:08.023Z</time></trkpt><trkpt lat="38.3519884" lon="22.3709466"><ele>79.0</ele><time>2026-04-28T13:50:09.024Z</time></trkpt><trkpt lat="38.3520366" lon="22.3707182"><ele>81.33333333333333</ele><time>2026-04-28T13:50:10.024Z</time></trkpt><trkpt lat="38.3520855" lon="22.3704964"><ele>83.66666666666667</ele><time>2026-04-28T13:50:11.024Z</time></trkpt><trkpt lat="38.352136" lon="22.3702734"><ele>86.0</ele><time>2026-04-28T13:50:12.024Z</time></trkpt><trkpt lat="38.3521871" lon="22.3700504"><ele>90.33333333333334</ele><time>2026-04-28T13:50:13.023Z</time></trkpt><trkpt lat="38.3522391" lon="22.3698283"><ele>94.66666666666667</ele><time>2026-04-28T13:50:14.023Z</time></trkpt><trkpt lat="38.3522901" lon="22.3696062"><ele>99.0</ele><time>2026-04-28T13:50:15.023Z</time></trkpt><trkpt lat="38.3523406" lon="22.3693852"><ele>101.33333333333334</ele><time>2026-04-28T13:50:16.024Z</time></trkpt><trkpt lat="38.3523887" lon="22.3691642"><ele>103.66666666666667</ele><time>2026-04-28T13:50:17.024Z</time></trkpt><trkpt lat="38.3524367" lon="22.3689472"><ele>106.0</ele><time>2026-04-28T13:50:18.024Z</time></trkpt><trkpt lat="38.3524823" lon="22.3687348"><ele>106.0</ele><time>2026-04-28T13:50:19.023Z</time></trkpt><trkpt lat="38.3525257" lon="22.3685307"><ele>106.0</ele><time>2026-04-28T13:50:20.024Z</time></trkpt><trkpt lat="38.3525567" lon="22.368324"><ele>106.0</ele><time>2026-04-28T13:50:21.024Z</time></trkpt><trkpt lat="38.3525609" lon="22.3681251"><ele>104.0</ele><time>2026-04-28T13:50:22.023Z</time></trkpt><trkpt lat="38.352542" lon="22.3679198"><ele>102.0</ele><time>2026-04-28T13:50:23.024Z</time></trkpt><trkpt lat="38.3524968" lon="22.3677224"><ele>100.0</ele><time>2026-04-28T13:50:24.023Z</time></trkpt><trkpt lat="38.352422" lon="22.3675368"><ele>100.0</ele><time>2026-04-28T13:50:25.023Z</time></trkpt><trkpt lat="38.3523206" lon="22.3673709"><ele>100.0</ele><time>2026-04-28T13:50:26.024Z</time></trkpt><trkpt lat="38.352198" lon="22.3672287"><ele>100.0</ele><time>2026-04-28T13:50:27.024Z</time></trkpt><trkpt lat="38.3520565" lon="22.3671111"><ele>102.0</ele><time>2026-04-28T13:50:28.023Z</time></trkpt><trkpt lat="38.3518977" lon="22.3670232"><ele>104.0</ele><time>2026-04-28T13:50:29.023Z</time></trkpt><trkpt lat="38.3517282" lon="22.366948"><ele>106.0</ele><time>2026-04-28T13:50:30.024Z</time></trkpt><trkpt lat="38.35154" lon="22.3668962"><ele>106.33333333333334</ele><time>2026-04-28T13:50:31.024Z</time></trkpt><trkpt lat="38.351355" lon="22.3668384"><ele>106.66666666666666</ele><time>2026-04-28T13:50:32.024Z</time></trkpt><trkpt lat="38.3511719" lon="22.3667795"><ele>107.0</ele><time>2026-04-28T13:50:33.024Z</time></trkpt><trkpt lat="38.3509894" lon="22.3667203"><ele>107.0</ele><time>2026-04-28T13:50:34.024Z</time></trkpt><trkpt lat="38.3508174" lon="22.3666616"><ele>107.0</ele><time>2026-04-28T13:50:35.024Z</time></trkpt><trkpt lat="38.3506516" lon="22.3666034"><ele>107.0</ele><time>2026-04-28T13:50:36.024Z</time></trkpt><trkpt lat="38.3504998" lon="22.3665413"><ele>107.33333333333333</ele><time>2026-04-28T13:50:37.024Z</time></trkpt><trkpt lat="38.3503486" lon="22.3664522"><ele>107.66666666666666</ele><time>2026-04-28T13:50:38.023Z</time></trkpt><trkpt lat="38.3501995" lon="22.3663371"><ele>108.0</ele><time>2026-04-28T13:50:39.024Z</time></trkpt><trkpt lat="38.3500639" lon="22.3661979"><ele>108.0</ele><time>2026-04-28T13:50:40.023Z</time></trkpt><trkpt lat="38.3499396" lon="22.3660305"><ele>108.0</ele><time>2026-04-28T13:50:41.023Z</time></trkpt><trkpt lat="38.3498217" lon="22.3658425"><ele>108.0</ele><time>2026-04-28T13:50:42.024Z</time></trkpt><trkpt lat="38.3497064" lon="22.3656352"><ele>105.66666666666666</ele><time>2026-04-28T13:50:43.023Z</time></trkpt><trkpt lat="38.3495912" lon="22.3654274"><ele>103.33333333333333</ele><time>2026-04-28T13:50:44.023Z</time></trkpt><trkpt lat="38.3494767" lon="22.3652175"><ele>101.0</ele><time>2026-04-28T13:50:45.024Z</time></trkpt><trkpt lat="38.3493636" lon="22.3650096"><ele>101.0</ele><time>2026-04-28T13:50:46.024Z</time></trkpt><trkpt lat="38.3492568" lon="22.3648092"><ele>101.0</ele><time>2026-04-28T13:50:47.023Z</time></trkpt><trkpt lat="38.3491602" lon="22.3646183"><ele>101.0</ele><time>2026-04-28T13:50:48.024Z</time></trkpt><trkpt lat="38.3490808" lon="22.3644304"><ele>103.33333333333333</ele><time>2026-04-28T13:50:49.024Z</time></trkpt><trkpt lat="38.3490285" lon="22.3642384"><ele>105.66666666666666</ele><time>2026-04-28T13:50:50.024Z</time></trkpt><trkpt lat="38.3489966" lon="22.3640449"><ele>108.0</ele><time>2026-04-28T13:50:51.024Z</time></trkpt><trkpt lat="38.3489944" lon="22.3638536"><ele>108.25</ele><time>2026-04-28T13:50:52.023Z</time></trkpt><trkpt lat="38.3490164" lon="22.3636664"><ele>108.5</ele><time>2026-04-28T13:50:53.023Z</time></trkpt><trkpt lat="38.3490622" lon="22.3634841"><ele>108.75</ele><time>2026-04-28T13:50:54.024Z</time></trkpt><trkpt lat="38.3491286" lon="22.3633116"><ele>109.0</ele><time>2026-04-28T13:50:55.023Z</time></trkpt><trkpt lat="38.3492139" lon="22.3631516"><ele>105.33333333333334</ele><time>2026-04-28T13:50:56.023Z</time></trkpt><trkpt lat="38.349324" lon="22.3630069"><ele>101.66666666666666</ele><time>2026-04-28T13:50:57.024Z</time></trkpt><trkpt lat="38.3494433" lon="22.3628855"><ele>98.0</ele><time>2026-04-28T13:50:58.024Z</time></trkpt><trkpt lat="38.3495908" lon="22.3628163"><ele>98.0</ele><time>2026-04-28T13:50:59.023Z</time></trkpt><trkpt lat="38.3497479" lon="22.3627583"><ele>98.0</ele><time>2026-04-28T13:51:00.024Z</time></trkpt><trkpt lat="38.3499119" lon="22.3627263"><ele>98.0</ele><time>2026-04-28T13:51:01.024Z</time></trkpt><trkpt lat="38.3500786" lon="22.362702"><ele>98.0</ele><time>2026-04-28T13:51:02.024Z</time></trkpt><trkpt lat="38.3502449" lon="22.3626758"><ele>98.0</ele><time>2026-04-28T13:51:03.024Z</time></trkpt><trkpt lat="38.350412" lon="22.3626487"><ele>98.0</ele><time>2026-04-28T13:51:04.023Z</time></trkpt><trkpt lat="38.3505785" lon="22.3626193"><ele>100.33333333333333</ele><time>2026-04-28T13:51:05.024Z</time></trkpt><trkpt lat="38.3507448" lon="22.3625911"><ele>102.66666666666666</ele><time>2026-04-28T13:51:06.023Z</time></trkpt><trkpt lat="38.350912" lon="22.3625517"><ele>105.0</ele><time>2026-04-28T13:51:07.024Z</time></trkpt><trkpt lat="38.3510602" lon="22.3625072"><ele>105.0</ele><time>2026-04-28T13:51:08.024Z</time></trkpt><trkpt lat="38.3511964" lon="22.3624354"><ele>105.0</ele><time>2026-04-28T13:51:09.024Z</time></trkpt><trkpt lat="38.3513149" lon="22.3623333"><ele>105.0</ele><time>2026-04-28T13:51:10.023Z</time></trkpt><trkpt lat="38.3514159" lon="22.3622048"><ele>105.0</ele><time>2026-04-28T13:51:11.023Z</time></trkpt><trkpt lat="38.351497" lon="22.3620511"><ele>102.66666666666666</ele><time>2026-04-28T13:51:12.023Z</time></trkpt><trkpt lat="38.3515516" lon="22.361871"><ele>100.33333333333333</ele><time>2026-04-28T13:51:13.024Z</time></trkpt><trkpt lat="38.3515809" lon="22.3616744"><ele>98.0</ele><time>2026-04-28T13:51:14.024Z</time></trkpt><trkpt lat="38.3515772" lon="22.3614723"><ele>102.0</ele><time>2026-04-28T13:51:15.023Z</time></trkpt><trkpt lat="38.3515475" lon="22.3612675"><ele>106.0</ele><time>2026-04-28T13:51:16.023Z</time></trkpt><trkpt lat="38.3515033" lon="22.3610687"><ele>110.0</ele><time>2026-04-28T13:51:17.024Z</time></trkpt><trkpt lat="38.3514494" lon="22.3608651"><ele>110.0</ele><time>2026-04-28T13:51:18.023Z</time></trkpt><trkpt lat="38.351393" lon="22.3606619"><ele>110.0</ele><time>2026-04-28T13:51:19.023Z</time></trkpt><trkpt lat="38.3513369" lon="22.3604544"><ele>110.0</ele><time>2026-04-28T13:51:20.024Z</time></trkpt><trkpt lat="38.3512773" lon="22.360244"><ele>100.0</ele><time>2026-04-28T13:51:21.023Z</time></trkpt><trkpt lat="38.3512188" lon="22.3600339"><ele>90.0</ele><time>2026-04-28T13:51:22.024Z</time></trkpt><trkpt lat="38.3511617" lon="22.3598207"><ele>80.0</ele><time>2026-04-28T13:51:23.024Z</time></trkpt><trkpt lat="38.3511034" lon="22.3596109"><ele>80.0</ele><time>2026-04-28T13:51:24.023Z</time></trkpt><trkpt lat="38.3510457" lon="22.3593994"><ele>80.0</ele><time>2026-04-28T13:51:25.024Z</time></trkpt><trkpt lat="38.3509888" lon="22.3591911"><ele>80.0</ele><time>2026-04-28T13:51:26.024Z</time></trkpt><trkpt lat="38.35094" lon="22.3589794"><ele>83.0</ele><time>2026-04-28T13:51:27.023Z</time></trkpt><trkpt lat="38.3508967" lon="22.358767"><ele>86.0</ele><time>2026-04-28T13:51:28.023Z</time></trkpt><trkpt lat="38.3508653" lon="22.3585523"><ele>89.0</ele><time>2026-04-28T13:51:29.023Z</time></trkpt><trkpt lat="38.3508459" lon="22.3583306"><ele>89.0</ele><time>2026-04-28T13:51:30.023Z</time></trkpt><trkpt lat="38.3508402" lon="22.358113"><ele>89.0</ele><time>2026-04-28T13:51:31.024Z</time></trkpt><trkpt lat="38.3508481" lon="22.3578984"><ele>89.0</ele><time>2026-04-28T13:51:32.024Z</time></trkpt><trkpt lat="38.3508728" lon="22.3576867"><ele>87.66666666666667</ele><time>2026-04-28T13:51:33.024Z</time></trkpt><trkpt lat="38.3509267" lon="22.3574744"><ele>86.33333333333333</ele><time>2026-04-28T13:51:34.023Z</time></trkpt><trkpt lat="38.3509805" lon="22.3572696"><ele>85.0</ele><time>2026-04-28T13:51:35.024Z</time></trkpt><trkpt lat="38.3510359" lon="22.3570661"><ele>80.66666666666666</ele><time>2026-04-28T13:51:36.023Z</time></trkpt><trkpt lat="38.3510963" lon="22.3568605"><ele>76.33333333333333</ele><time>2026-04-28T13:51:37.023Z</time></trkpt><trkpt lat="38.3511626" lon="22.3566594"><ele>72.0</ele><time>2026-04-28T13:51:38.024Z</time></trkpt><trkpt lat="38.3512281" lon="22.3564535"><ele>68.66666666666667</ele><time>2026-04-28T13:51:39.024Z</time></trkpt><trkpt lat="38.3512923" lon="22.3562501"><ele>65.33333333333334</ele><time>2026-04-28T13:51:40.024Z</time></trkpt><trkpt lat="38.3513538" lon="22.3560432"><ele>62.0</ele><time>2026-04-28T13:51:41.023Z</time></trkpt><trkpt lat="38.3514146" lon="22.3558341"><ele>66.66666666666667</ele><time>2026-04-28T13:51:42.023Z</time></trkpt><trkpt lat="38.3514716" lon="22.3556184"><ele>71.33333333333333</ele><time>2026-04-28T13:51:43.024Z</time></trkpt><trkpt lat="38.3515155" lon="22.3553937"><ele>76.0</ele><time>2026-04-28T13:51:44.023Z</time></trkpt><trkpt lat="38.3515448" lon="22.3551559"><ele>76.0</ele><time>2026-04-28T13:51:45.024Z</time></trkpt><trkpt lat="38.3515561" lon="22.3549184"><ele>76.0</ele><time>2026-04-28T13:51:46.023Z</time></trkpt><trkpt lat="38.3515503" lon="22.3546775"><ele>76.0</ele><time>2026-04-28T13:51:47.024Z</time></trkpt><trkpt lat="38.3515299" lon="22.3544334"><ele>76.66666666666666</ele><time>2026-04-28T13:51:48.024Z</time></trkpt><trkpt lat="38.3515011" lon="22.3541878"><ele>77.33333333333333</ele><time>2026-04-28T13:51:49.024Z</time></trkpt><trkpt lat="38.3514664" lon="22.3539384"><ele>78.0</ele><time>2026-04-28T13:51:50.024Z</time></trkpt><trkpt lat="38.3514266" lon="22.3536903"><ele>79.33333333333333</ele><time>2026-04-28T13:51:51.024Z</time></trkpt><trkpt lat="38.3513881" lon="22.3534423"><ele>80.66666666666666</ele><time>2026-04-28T13:51:52.023Z</time></trkpt><trkpt lat="38.3513507" lon="22.353198"><ele>82.0</ele><time>2026-04-28T13:51:53.023Z</time></trkpt><trkpt lat="38.3513126" lon="22.3529581"><ele>74.66666666666666</ele><time>2026-04-28T13:51:54.023Z</time></trkpt><trkpt lat="38.3512802" lon="22.3527181"><ele>67.33333333333333</ele><time>2026-04-28T13:51:55.024Z</time></trkpt><trkpt lat="38.3512573" lon="22.3524793"><ele>60.0</ele><time>2026-04-28T13:51:56.023Z</time></trkpt><trkpt lat="38.3512502" lon="22.3522412"><ele>59.33333333333333</ele><time>2026-04-28T13:51:57.024Z</time></trkpt><trkpt lat="38.3512586" lon="22.3520051"><ele>58.666666666666664</ele><time>2026-04-28T13:51:58.023Z</time></trkpt><trkpt lat="38.35128" lon="22.3517747"><ele>58.0</ele><time>2026-04-28T13:51:59.024Z</time></trkpt><trkpt lat="38.3513218" lon="22.3515567"><ele>64.0</ele><time>2026-04-28T13:52:00.024Z</time></trkpt><trkpt lat="38.3513821" lon="22.3513369"><ele>70.0</ele><time>2026-04-28T13:52:01.023Z</time></trkpt><trkpt lat="38.3514641" lon="22.3511165"><ele>76.0</ele><time>2026-04-28T13:52:02.023Z</time></trkpt><trkpt lat="38.3515473" lon="22.3509071"><ele>76.0</ele><time>2026-04-28T13:52:03.024Z</time></trkpt><trkpt lat="38.3516363" lon="22.3506996"><ele>76.0</ele><time>2026-04-28T13:52:04.023Z</time></trkpt><trkpt lat="38.3517302" lon="22.3504898"><ele>76.0</ele><time>2026-04-28T13:52:05.023Z</time></trkpt><trkpt lat="38.3518246" lon="22.3502784"><ele>74.66666666666666</ele><time>2026-04-28T13:52:06.024Z</time></trkpt><trkpt lat="38.3519204" lon="22.3500624"><ele>73.33333333333333</ele><time>2026-04-28T13:52:07.023Z</time></trkpt><trkpt lat="38.3520154" lon="22.3498431"><ele>72.0</ele><time>2026-04-28T13:52:08.024Z</time></trkpt><trkpt lat="38.3521103" lon="22.3496212"><ele>68.66666666666667</ele><time>2026-04-28T13:52:09.024Z</time></trkpt><trkpt lat="38.3522022" lon="22.3493997"><ele>65.33333333333334</ele><time>2026-04-28T13:52:10.023Z</time></trkpt><trkpt lat="38.3522933" lon="22.3491804"><ele>62.0</ele><time>2026-04-28T13:52:11.024Z</time></trkpt><trkpt lat="38.3523805" lon="22.3489572"><ele>65.66666666666667</ele><time>2026-04-28T13:52:12.024Z</time></trkpt><trkpt lat="38.3524577" lon="22.3487249"><ele>69.33333333333333</ele><time>2026-04-28T13:52:13.024Z</time></trkpt><trkpt lat="38.3525188" lon="22.3484806"><ele>73.0</ele><time>2026-04-28T13:52:14.024Z</time></trkpt><trkpt lat="38.352564" lon="22.3482281"><ele>70.33333333333333</ele><time>2026-04-28T13:52:15.024Z</time></trkpt><trkpt lat="38.3525906" lon="22.3479694"><ele>67.66666666666667</ele><time>2026-04-28T13:52:16.024Z</time></trkpt><trkpt lat="38.3525882" lon="22.3477081"><ele>65.0</ele><time>2026-04-28T13:52:17.024Z</time></trkpt><trkpt lat="38.3525634" lon="22.3474445"><ele>69.66666666666667</ele><time>2026-04-28T13:52:18.024Z</time></trkpt><trkpt lat="38.3525143" lon="22.3471796"><ele>74.33333333333333</ele><time>2026-04-28T13:52:19.023Z</time></trkpt><trkpt lat="38.3524407" lon="22.3469254"><ele>79.0</ele><time>2026-04-28T13:52:20.023Z</time></trkpt><trkpt lat="38.3523461" lon="22.3466785"><ele>79.0</ele><time>2026-04-28T13:52:21.024Z</time></trkpt><trkpt lat="38.3522315" lon="22.3464385"><ele>79.0</ele><time>2026-04-28T13:52:22.023Z</time></trkpt><trkpt lat="38.3520976" lon="22.3462064"><ele>79.0</ele><time>2026-04-28T13:52:23.023Z</time></trkpt><trkpt lat="38.3519536" lon="22.3459892"><ele>78.33333333333333</ele><time>2026-04-28T13:52:24.023Z</time></trkpt><trkpt lat="38.3518028" lon="22.3457818"><ele>77.66666666666667</ele><time>2026-04-28T13:52:25.023Z</time></trkpt><trkpt lat="38.3516512" lon="22.3455725"><ele>77.0</ele><time>2026-04-28T13:52:26.024Z</time></trkpt><trkpt lat="38.3515017" lon="22.3453637"><ele>76.33333333333334</ele><time>2026-04-28T13:52:27.024Z</time></trkpt><trkpt lat="38.3513586" lon="22.3451567"><ele>75.66666666666667</ele><time>2026-04-28T13:52:28.023Z</time></trkpt><trkpt lat="38.3512164" lon="22.3449484"><ele>75.0</ele><time>2026-04-28T13:52:29.024Z</time></trkpt><trkpt lat="38.3510771" lon="22.3447378"><ele>77.0</ele><time>2026-04-28T13:52:30.024Z</time></trkpt><trkpt lat="38.3509492" lon="22.3445256"><ele>79.0</ele><time>2026-04-28T13:52:31.024Z</time></trkpt><trkpt lat="38.3508293" lon="22.3443057"><ele>81.0</ele><time>2026-04-28T13:52:32.024Z</time></trkpt><trkpt lat="38.3507214" lon="22.3440793"><ele>84.0</ele><time>2026-04-28T13:52:33.024Z</time></trkpt><trkpt lat="38.3506222" lon="22.3438456"><ele>87.0</ele><time>2026-04-28T13:52:34.023Z</time></trkpt><trkpt lat="38.3505343" lon="22.3436095"><ele>90.0</ele><time>2026-04-28T13:52:35.023Z</time></trkpt><trkpt lat="38.3504611" lon="22.343369"><ele>85.33333333333333</ele><time>2026-04-28T13:52:36.024Z</time></trkpt><trkpt lat="38.3503961" lon="22.3431252"><ele>80.66666666666666</ele><time>2026-04-28T13:52:37.024Z</time></trkpt><trkpt lat="38.350343" lon="22.34288"><ele>76.0</ele><time>2026-04-28T13:52:38.023Z</time></trkpt><trkpt lat="38.350299" lon="22.3426325"><ele>76.0</ele><time>2026-04-28T13:52:39.024Z</time></trkpt><trkpt lat="38.3502633" lon="22.3423815"><ele>76.0</ele><time>2026-04-28T13:52:40.023Z</time></trkpt><trkpt lat="38.3502303" lon="22.3421262"><ele>76.0</ele><time>2026-04-28T13:52:41.023Z</time></trkpt><trkpt lat="38.3501983" lon="22.3418652"><ele>78.33333333333333</ele><time>2026-04-28T13:52:42.023Z</time></trkpt><trkpt lat="38.3501697" lon="22.3415966"><ele>80.66666666666667</ele><time>2026-04-28T13:52:43.024Z</time></trkpt><trkpt lat="38.3501388" lon="22.3413238"><ele>83.0</ele><time>2026-04-28T13:52:44.024Z</time></trkpt><trkpt lat="38.3501025" lon="22.3410525"><ele>84.66666666666667</ele><time>2026-04-28T13:52:45.023Z</time></trkpt><trkpt lat="38.3500612" lon="22.34078"><ele>86.33333333333333</ele><time>2026-04-28T13:52:46.023Z</time></trkpt><trkpt lat="38.350009" lon="22.3405107"><ele>88.0</ele><time>2026-04-28T13:52:47.023Z</time></trkpt><trkpt lat="38.3499424" lon="22.3402454"><ele>86.66666666666666</ele><time>2026-04-28T13:52:48.024Z</time></trkpt><trkpt lat="38.3498571" lon="22.3399857"><ele>85.33333333333333</ele><time>2026-04-28T13:52:49.023Z</time></trkpt><trkpt lat="38.3497514" lon="22.3397274"><ele>84.0</ele><time>2026-04-28T13:52:50.024Z</time></trkpt><trkpt lat="38.3496316" lon="22.3394728"><ele>84.0</ele><time>2026-04-28T13:52:51.023Z</time></trkpt><trkpt lat="38.3494956" lon="22.3392262"><ele>84.0</ele><time>2026-04-28T13:52:52.024Z</time></trkpt><trkpt lat="38.3493536" lon="22.33899"><ele>99.0</ele><time>2026-04-28T13:52:53.023Z</time></trkpt><trkpt lat="38.3492073" lon="22.3387615"><ele>114.0</ele><time>2026-04-28T13:52:54.024Z</time></trkpt><trkpt lat="38.3490586" lon="22.3385379"><ele>114.0</ele><time>2026-04-28T13:52:55.023Z</time></trkpt><trkpt lat="38.3489166" lon="22.3383188"><ele>114.0</ele><time>2026-04-28T13:52:56.024Z</time></trkpt><trkpt lat="38.3487812" lon="22.3381086"><ele>114.0</ele><time>2026-04-28T13:52:57.023Z</time></trkpt><trkpt lat="38.3486621" lon="22.3379092"><ele>105.66666666666667</ele><time>2026-04-28T13:52:58.024Z</time></trkpt><trkpt lat="38.3485467" lon="22.3377129"><ele>97.33333333333334</ele><time>2026-04-28T13:52:59.024Z</time></trkpt><trkpt lat="38.3484375" lon="22.3375062"><ele>89.0</ele><time>2026-04-28T13:53:00.023Z</time></trkpt><trkpt lat="38.3483339" lon="22.3372979"><ele>97.0</ele><time>2026-04-28T13:53:01.023Z</time></trkpt><trkpt lat="38.3482384" lon="22.33709"><ele>105.0</ele><time>2026-04-28T13:53:02.023Z</time></trkpt><trkpt lat="38.3481502" lon="22.3368845"><ele>113.0</ele><time>2026-04-28T13:53:03.023Z</time></trkpt><trkpt lat="38.3480698" lon="22.3366746"><ele>103.0</ele><time>2026-04-28T13:53:04.023Z</time></trkpt><trkpt lat="38.3479967" lon="22.3364615"><ele>93.0</ele><time>2026-04-28T13:53:05.023Z</time></trkpt><trkpt lat="38.3479259" lon="22.3362515"><ele>83.0</ele><time>2026-04-28T13:53:06.024Z</time></trkpt><trkpt lat="38.3478637" lon="22.3360445"><ele>83.0</ele><time>2026-04-28T13:53:07.024Z</time></trkpt><trkpt lat="38.3478043" lon="22.3358457"><ele>83.0</ele><time>2026-04-28T13:53:08.024Z</time></trkpt><trkpt lat="38.3477492" lon="22.3356558"><ele>83.0</ele><time>2026-04-28T13:53:09.024Z</time></trkpt><trkpt lat="38.347693" lon="22.3354737"><ele>88.33333333333334</ele><time>2026-04-28T13:53:10.024Z</time></trkpt><trkpt lat="38.3476359" lon="22.3352889"><ele>93.66666666666667</ele><time>2026-04-28T13:53:11.023Z</time></trkpt><trkpt lat="38.3475802" lon="22.335104"><ele>99.0</ele><time>2026-04-28T13:53:12.023Z</time></trkpt><trkpt lat="38.347526" lon="22.3349246"><ele>99.0</ele><time>2026-04-28T13:53:13.023Z</time></trkpt><trkpt lat="38.3474746" lon="22.334744"><ele>99.0</ele><time>2026-04-28T13:53:14.023Z</time></trkpt><trkpt lat="38.3474255" lon="22.3345632"><ele>99.0</ele><time>2026-04-28T13:53:15.024Z</time></trkpt><trkpt lat="38.3473707" lon="22.3343807"><ele>97.33333333333333</ele><time>2026-04-28T13:53:16.023Z</time></trkpt><trkpt lat="38.34731" lon="22.3342026"><ele>95.66666666666666</ele><time>2026-04-28T13:53:17.023Z</time></trkpt><trkpt lat="38.3472421" lon="22.3340263"><ele>94.0</ele><time>2026-04-28T13:53:18.024Z</time></trkpt><trkpt lat="38.347174" lon="22.3338503"><ele>94.0</ele><time>2026-04-28T13:53:19.023Z</time></trkpt><trkpt lat="38.3471027" lon="22.3336801"><ele>94.0</ele><time>2026-04-28T13:53:20.024Z</time></trkpt><trkpt lat="38.3470341" lon="22.3335175"><ele>94.0</ele><time>2026-04-28T13:53:21.023Z</time></trkpt><trkpt lat="38.3469565" lon="22.333363"><ele>94.0</ele><time>2026-04-28T13:53:22.023Z</time></trkpt><trkpt lat="38.346883" lon="22.3332031"><ele>102.5</ele><time>2026-04-28T13:53:23.023Z</time></trkpt><trkpt lat="38.3468041" lon="22.3330458"><ele>111.0</ele><time>2026-04-28T13:53:24.023Z</time></trkpt><trkpt lat="38.3467211" lon="22.3328926"><ele>119.5</ele><time>2026-04-28T13:53:25.024Z</time></trkpt><trkpt lat="38.3466393" lon="22.3327431"><ele>128.0</ele><time>2026-04-28T13:53:26.023Z</time></trkpt><trkpt lat="38.3465596" lon="22.3325966"><ele>128.0</ele><time>2026-04-28T13:53:27.024Z</time></trkpt><trkpt lat="38.3464874" lon="22.3324511"><ele>128.0</ele><time>2026-04-28T13:53:28.024Z</time></trkpt><trkpt lat="38.346423" lon="22.3323027"><ele>128.0</ele><time>2026-04-28T13:53:29.024Z</time></trkpt><trkpt lat="38.3463712" lon="22.3321502"><ele>128.0</ele><time>2026-04-28T13:53:30.024Z</time></trkpt><trkpt lat="38.3463231" lon="22.3319966"><ele>117.5</ele><time>2026-04-28T13:53:31.023Z</time></trkpt><trkpt lat="38.3462878" lon="22.3318353"><ele>107.0</ele><time>2026-04-28T13:53:32.024Z</time></trkpt><trkpt lat="38.3462678" lon="22.3316827"><ele>96.5</ele><time>2026-04-28T13:53:33.024Z</time></trkpt><trkpt lat="38.3462545" lon="22.3315183"><ele>86.0</ele><time>2026-04-28T13:53:34.024Z</time></trkpt><trkpt lat="38.3462518" lon="22.3313484"><ele>86.0</ele><time>2026-04-28T13:53:35.023Z</time></trkpt><trkpt lat="38.3462572" lon="22.3311768"><ele>86.0</ele><time>2026-04-28T13:53:36.024Z</time></trkpt><trkpt lat="38.3462606" lon="22.3310025"><ele>86.0</ele><time>2026-04-28T13:53:37.024Z</time></trkpt><trkpt lat="38.3462623" lon="22.3308201"><ele>86.0</ele><time>2026-04-28T13:53:38.023Z</time></trkpt><trkpt lat="38.3462636" lon="22.3306349"><ele>89.0</ele><time>2026-04-28T13:53:39.024Z</time></trkpt><trkpt lat="38.346273" lon="22.3304373"><ele>92.0</ele><time>2026-04-28T13:53:40.024Z</time></trkpt><trkpt lat="38.3462792" lon="22.3302222"><ele>95.0</ele><time>2026-04-28T13:53:41.024Z</time></trkpt><trkpt lat="38.346281" lon="22.3300069"><ele>95.0</ele><time>2026-04-28T13:53:42.024Z</time></trkpt><trkpt lat="38.3462831" lon="22.3297972"><ele>95.0</ele><time>2026-04-28T13:53:43.024Z</time></trkpt><trkpt lat="38.3462789" lon="22.3296047"><ele>95.0</ele><time>2026-04-28T13:53:44.023Z</time></trkpt><trkpt lat="38.3462699" lon="22.3294168"><ele>98.75</ele><time>2026-04-28T13:53:45.023Z</time></trkpt><trkpt lat="38.3462532" lon="22.3292292"><ele>102.5</ele><time>2026-04-28T13:53:46.023Z</time></trkpt><trkpt lat="38.3462327" lon="22.329049"><ele>106.25</ele><time>2026-04-28T13:53:47.024Z</time></trkpt><trkpt lat="38.3462006" lon="22.3288694"><ele>110.0</ele><time>2026-04-28T13:53:48.023Z</time></trkpt><trkpt lat="38.3461603" lon="22.3286879"><ele>117.33333333333333</ele><time>2026-04-28T13:53:49.023Z</time></trkpt><trkpt lat="38.3461188" lon="22.328499"><ele>124.66666666666666</ele><time>2026-04-28T13:53:50.023Z</time></trkpt><trkpt lat="38.3460499" lon="22.3283204"><ele>132.0</ele><time>2026-04-28T13:53:51.024Z</time></trkpt><trkpt lat="38.3459865" lon="22.328141"><ele>138.0</ele><time>2026-04-28T13:53:52.024Z</time></trkpt><trkpt lat="38.3459195" lon="22.3279651"><ele>144.0</ele><time>2026-04-28T13:53:53.024Z</time></trkpt><trkpt lat="38.3458472" lon="22.3278055"><ele>150.0</ele><time>2026-04-28T13:53:54.024Z</time></trkpt><trkpt lat="38.3457635" lon="22.3276648"><ele>156.0</ele><time>2026-04-28T13:53:55.024Z</time></trkpt><trkpt lat="38.3456544" lon="22.3275272"><ele>156.0</ele><time>2026-04-28T13:53:56.023Z</time></trkpt><trkpt lat="38.3455738" lon="22.327408"><ele>156.0</ele><time>2026-04-28T13:53:57.024Z</time></trkpt><trkpt lat="38.3454902" lon="22.3272863"><ele>156.0</ele><time>2026-04-28T13:53:58.023Z</time></trkpt><trkpt lat="38.3454291" lon="22.3271603"><ele>156.0</ele><time>2026-04-28T13:53:59.024Z</time></trkpt><trkpt lat="38.3453822" lon="22.3270247"><ele>142.5</ele><time>2026-04-28T13:54:00.023Z</time></trkpt><trkpt lat="38.3453631" lon="22.3268714"><ele>129.0</ele><time>2026-04-28T13:54:01.024Z</time></trkpt><trkpt lat="38.3453546" lon="22.3267157"><ele>115.5</ele><time>2026-04-28T13:54:02.024Z</time></trkpt><trkpt lat="38.3453756" lon="22.3265535"><ele>102.0</ele><time>2026-04-28T13:54:03.024Z</time></trkpt><trkpt lat="38.3454056" lon="22.3263913"><ele>97.66666666666667</ele><time>2026-04-28T13:54:04.024Z</time></trkpt><trkpt lat="38.3454565" lon="22.3262192"><ele>93.33333333333334</ele><time>2026-04-28T13:54:05.023Z</time></trkpt><trkpt lat="38.3455293" lon="22.3260444"><ele>89.0</ele><time>2026-04-28T13:54:06.023Z</time></trkpt><trkpt lat="38.3455983" lon="22.3258718"><ele>107.33333333333334</ele><time>2026-04-28T13:54:07.024Z</time></trkpt><trkpt lat="38.3456673" lon="22.3257"><ele>125.66666666666667</ele><time>2026-04-28T13:54:08.024Z</time></trkpt><trkpt lat="38.3457225" lon="22.3255161"><ele>144.0</ele><time>2026-04-28T13:54:09.024Z</time></trkpt><trkpt lat="38.3457701" lon="22.3253262"><ele>144.0</ele><time>2026-04-28T13:54:10.024Z</time></trkpt><trkpt lat="38.3458091" lon="22.3251391"><ele>144.0</ele><time>2026-04-28T13:54:11.024Z</time></trkpt><trkpt lat="38.3458257" lon="22.3249277"><ele>144.0</ele><time>2026-04-28T13:54:12.023Z</time></trkpt><trkpt lat="38.3458409" lon="22.3247201"><ele>143.0</ele><time>2026-04-28T13:54:13.023Z</time></trkpt><trkpt lat="38.3458511" lon="22.3245167"><ele>142.0</ele><time>2026-04-28T13:54:14.024Z</time></trkpt><trkpt lat="38.3458529" lon="22.3243138"><ele>141.0</ele><time>2026-04-28T13:54:15.023Z</time></trkpt><trkpt lat="38.3458492" lon="22.3241414"><ele>141.0</ele><time>2026-04-28T13:54:16.024Z</time></trkpt><trkpt lat="38.3458466" lon="22.3239453"><ele>141.0</ele><time>2026-04-28T13:54:17.023Z</time></trkpt><trkpt lat="38.3458529" lon="22.3237463"><ele>141.0</ele><time>2026-04-28T13:54:18.024Z</time></trkpt><trkpt lat="38.3458759" lon="22.3234998"><ele>140.0</ele><time>2026-04-28T13:54:19.024Z</time></trkpt><trkpt lat="38.3458277" lon="22.3232681"><ele>139.0</ele><time>2026-04-28T13:54:20.023Z</time></trkpt><trkpt lat="38.3458604" lon="22.3231605"><ele>138.0</ele><time>2026-04-28T13:54:21.023Z</time></trkpt><trkpt lat="38.3458769" lon="22.3229961"><ele>137.0</ele><time>2026-04-28T13:54:22.023Z</time></trkpt><trkpt lat="38.3459121" lon="22.3228069"><ele>133.5</ele><time>2026-04-28T13:54:23.024Z</time></trkpt><trkpt lat="38.3459473" lon="22.3226252"><ele>130.0</ele><time>2026-04-28T13:54:24.024Z</time></trkpt><trkpt lat="38.3459975" lon="22.3224536"><ele>126.5</ele><time>2026-04-28T13:54:25.023Z</time></trkpt><trkpt lat="38.3460461" lon="22.322286"><ele>123.0</ele><time>2026-04-28T13:54:26.024Z</time></trkpt><trkpt lat="38.346114" lon="22.3221197"><ele>128.5</ele><time>2026-04-28T13:54:27.024Z</time></trkpt><trkpt lat="38.3461793" lon="22.3219509"><ele>134.0</ele><time>2026-04-28T13:54:28.023Z</time></trkpt><trkpt lat="38.3462521" lon="22.3217908"><ele>139.5</ele><time>2026-04-28T13:54:29.023Z</time></trkpt><trkpt lat="38.3463232" lon="22.3216346"><ele>145.0</ele><time>2026-04-28T13:54:30.023Z</time></trkpt><trkpt lat="38.3463872" lon="22.3214663"><ele>136.5</ele><time>2026-04-28T13:54:31.023Z</time></trkpt><trkpt lat="38.3464506" lon="22.3213025"><ele>128.0</ele><time>2026-04-28T13:54:32.024Z</time></trkpt><trkpt lat="38.3465179" lon="22.3211439"><ele>119.5</ele><time>2026-04-28T13:54:33.024Z</time></trkpt><trkpt lat="38.3465933" lon="22.3209968"><ele>111.0</ele><time>2026-04-28T13:54:34.024Z</time></trkpt><trkpt lat="38.3466757" lon="22.3208748"><ele>111.0</ele><time>2026-04-28T13:54:35.024Z</time></trkpt><trkpt lat="38.3467641" lon="22.3207692"><ele>111.0</ele><time>2026-04-28T13:54:36.024Z</time></trkpt><trkpt lat="38.3468665" lon="22.3206481"><ele>111.0</ele><time>2026-04-28T13:54:37.024Z</time></trkpt><trkpt lat="38.3469846" lon="22.3205166"><ele>111.0</ele><time>2026-04-28T13:54:38.024Z</time></trkpt><trkpt lat="38.3470954" lon="22.3203873"><ele>111.25</ele><time>2026-04-28T13:54:39.024Z</time></trkpt><trkpt lat="38.3472255" lon="22.3201886"><ele>111.5</ele><time>2026-04-28T13:54:40.024Z</time></trkpt><trkpt lat="38.3473036" lon="22.3200751"><ele>111.75</ele><time>2026-04-28T13:54:41.024Z</time></trkpt><trkpt lat="38.3473482" lon="22.3199268"><ele>112.0</ele><time>2026-04-28T13:54:42.024Z</time></trkpt><trkpt lat="38.3473871" lon="22.3197641"><ele>115.0</ele><time>2026-04-28T13:54:43.023Z</time></trkpt><trkpt lat="38.347407" lon="22.3195941"><ele>118.0</ele><time>2026-04-28T13:54:44.023Z</time></trkpt><trkpt lat="38.3473951" lon="22.3194066"><ele>121.0</ele><time>2026-04-28T13:54:45.024Z</time></trkpt><trkpt lat="38.3473583" lon="22.3192273"><ele>124.0</ele><time>2026-04-28T13:54:46.024Z</time></trkpt><trkpt lat="38.3473084" lon="22.319058"><ele>127.0</ele><time>2026-04-28T13:54:47.024Z</time></trkpt><trkpt lat="38.3472602" lon="22.3188953"><ele>130.0</ele><time>2026-04-28T13:54:48.024Z</time></trkpt><trkpt lat="38.3471824" lon="22.3187351"><ele>133.0</ele><time>2026-04-28T13:54:49.024Z</time></trkpt><trkpt lat="38.3471163" lon="22.3185792"><ele>136.0</ele><time>2026-04-28T13:54:50.024Z</time></trkpt><trkpt lat="38.3470497" lon="22.3184215"><ele>121.0</ele><time>2026-04-28T13:54:51.023Z</time></trkpt><trkpt lat="38.3469879" lon="22.318253"><ele>106.0</ele><time>2026-04-28T13:54:52.023Z</time></trkpt><trkpt lat="38.346925" lon="22.3180861"><ele>91.0</ele><time>2026-04-28T13:54:53.024Z</time></trkpt><trkpt lat="38.3468813" lon="22.3179405"><ele>76.0</ele><time>2026-04-28T13:54:54.024Z</time></trkpt><trkpt lat="38.3468259" lon="22.3177722"><ele>76.0</ele><time>2026-04-28T13:54:55.023Z</time></trkpt><trkpt lat="38.3469864" lon="22.3173977"><ele>76.0</ele><time>2026-04-28T13:54:56.024Z</time></trkpt><trkpt lat="38.3469162" lon="22.3172029"><ele>73.66666666666666</ele><time>2026-04-28T13:54:57.023Z</time></trkpt><trkpt lat="38.3469597" lon="22.3170138"><ele>71.33333333333333</ele><time>2026-04-28T13:54:58.024Z</time></trkpt><trkpt lat="38.346982" lon="22.3168162"><ele>69.0</ele><time>2026-04-28T13:54:59.024Z</time></trkpt><trkpt lat="38.347015" lon="22.3166225"><ele>69.0</ele><time>2026-04-28T13:55:00.023Z</time></trkpt><trkpt lat="38.3470501" lon="22.3164272"><ele>69.0</ele><time>2026-04-28T13:55:01.024Z</time></trkpt><trkpt lat="38.3470826" lon="22.3162246"><ele>69.0</ele><time>2026-04-28T13:55:02.023Z</time></trkpt><trkpt lat="38.3471154" lon="22.3160133"><ele>63.66666666666667</ele><time>2026-04-28T13:55:03.023Z</time></trkpt><trkpt lat="38.3471527" lon="22.3157985"><ele>58.333333333333336</ele><time>2026-04-28T13:55:04.023Z</time></trkpt><trkpt lat="38.3471892" lon="22.3155801"><ele>53.0</ele><time>2026-04-28T13:55:05.023Z</time></trkpt><trkpt lat="38.3472268" lon="22.3153687"><ele>58.333333333333336</ele><time>2026-04-28T13:55:06.023Z</time></trkpt><trkpt lat="38.3472773" lon="22.3151535"><ele>63.66666666666667</ele><time>2026-04-28T13:55:07.024Z</time></trkpt><trkpt lat="38.3473259" lon="22.3149318"><ele>69.0</ele><time>2026-04-28T13:55:08.023Z</time></trkpt><trkpt lat="38.3473765" lon="22.3147077"><ele>69.0</ele><time>2026-04-28T13:55:09.024Z</time></trkpt><trkpt lat="38.3474304" lon="22.3144799"><ele>69.0</ele><time>2026-04-28T13:55:10.023Z</time></trkpt><trkpt lat="38.3474912" lon="22.314257"><ele>69.0</ele><time>2026-04-28T13:55:11.023Z</time></trkpt><trkpt lat="38.3475517" lon="22.3140306"><ele>63.0</ele><time>2026-04-28T13:55:12.024Z</time></trkpt><trkpt lat="38.3476236" lon="22.3138102"><ele>57.0</ele><time>2026-04-28T13:55:13.024Z</time></trkpt><trkpt lat="38.3476963" lon="22.3135931"><ele>51.0</ele><time>2026-04-28T13:55:14.024Z</time></trkpt><trkpt lat="38.3477702" lon="22.3133753"><ele>51.0</ele><time>2026-04-28T13:55:15.023Z</time></trkpt><trkpt lat="38.3478499" lon="22.3131596"><ele>51.0</ele><time>2026-04-28T13:55:16.023Z</time></trkpt><trkpt lat="38.3479336" lon="22.3129523"><ele>51.0</ele><time>2026-04-28T13:55:17.023Z</time></trkpt><trkpt lat="38.3480193" lon="22.3127436"><ele>50.0</ele><time>2026-04-28T13:55:18.023Z</time></trkpt><trkpt lat="38.3481077" lon="22.3125324"><ele>49.0</ele><time>2026-04-28T13:55:19.024Z</time></trkpt><trkpt lat="38.3481947" lon="22.3123323"><ele>48.0</ele><time>2026-04-28T13:55:20.023Z</time></trkpt><trkpt lat="38.3482851" lon="22.3121348"><ele>48.0</ele><time>2026-04-28T13:55:21.024Z</time></trkpt><trkpt lat="38.3483753" lon="22.3119383"><ele>48.0</ele><time>2026-04-28T13:55:22.024Z</time></trkpt><trkpt lat="38.3484662" lon="22.31174"><ele>48.0</ele><time>2026-04-28T13:55:23.024Z</time></trkpt><trkpt lat="38.3485575" lon="22.3115394"><ele>42.666666666666664</ele><time>2026-04-28T13:55:24.024Z</time></trkpt><trkpt lat="38.3486509" lon="22.3113361"><ele>37.33333333333333</ele><time>2026-04-28T13:55:25.023Z</time></trkpt><trkpt lat="38.3487455" lon="22.3111317"><ele>32.0</ele><time>2026-04-28T13:55:26.023Z</time></trkpt><trkpt lat="38.3488397" lon="22.3109294"><ele>36.33333333333333</ele><time>2026-04-28T13:55:27.023Z</time></trkpt><trkpt lat="38.3489378" lon="22.3107213"><ele>40.666666666666664</ele><time>2026-04-28T13:55:28.023Z</time></trkpt><trkpt lat="38.349033" lon="22.3105126"><ele>45.0</ele><time>2026-04-28T13:55:29.023Z</time></trkpt><trkpt lat="38.3491312" lon="22.3103008"><ele>45.0</ele><time>2026-04-28T13:55:30.023Z</time></trkpt><trkpt lat="38.3492278" lon="22.3100867"><ele>45.0</ele><time>2026-04-28T13:55:31.023Z</time></trkpt><trkpt lat="38.3493253" lon="22.3098703"><ele>45.0</ele><time>2026-04-28T13:55:32.023Z</time></trkpt><trkpt lat="38.3494243" lon="22.309653"><ele>47.33333333333333</ele><time>2026-04-28T13:55:33.024Z</time></trkpt><trkpt lat="38.3495205" lon="22.3094403"><ele>49.666666666666664</ele><time>2026-04-28T13:55:34.024Z</time></trkpt><trkpt lat="38.3496179" lon="22.309228"><ele>52.0</ele><time>2026-04-28T13:55:35.024Z</time></trkpt><trkpt lat="38.3497135" lon="22.3090155"><ele>46.0</ele><time>2026-04-28T13:55:36.024Z</time></trkpt><trkpt lat="38.3498053" lon="22.3088029"><ele>40.0</ele><time>2026-04-28T13:55:37.023Z</time></trkpt><trkpt lat="38.3498893" lon="22.3085909"><ele>34.0</ele><time>2026-04-28T13:55:38.023Z</time></trkpt><trkpt lat="38.3499678" lon="22.3083799"><ele>34.0</ele><time>2026-04-28T13:55:39.023Z</time></trkpt><trkpt lat="38.3500429" lon="22.3081681"><ele>34.0</ele><time>2026-04-28T13:55:40.024Z</time></trkpt><trkpt lat="38.3501155" lon="22.3079521"><ele>34.0</ele><time>2026-04-28T13:55:41.024Z</time></trkpt><trkpt lat="38.3501861" lon="22.3077482"><ele>29.666666666666668</ele><time>2026-04-28T13:55:42.024Z</time></trkpt><trkpt lat="38.3502579" lon="22.3075485"><ele>25.333333333333336</ele><time>2026-04-28T13:55:43.024Z</time></trkpt><trkpt lat="38.3503257" lon="22.3073442"><ele>21.0</ele><time>2026-04-28T13:55:44.024Z</time></trkpt><trkpt lat="38.3503895" lon="22.3071418"><ele>18.0</ele><time>2026-04-28T13:55:45.023Z</time></trkpt><trkpt lat="38.3504584" lon="22.306941"><ele>15.0</ele><time>2026-04-28T13:55:46.024Z</time></trkpt><trkpt lat="38.3505224" lon="22.3067417"><ele>12.0</ele><time>2026-04-28T13:55:47.024Z</time></trkpt><trkpt lat="38.3505882" lon="22.3065431"><ele>19.0</ele><time>2026-04-28T13:55:48.023Z</time></trkpt><trkpt lat="38.3506523" lon="22.3063456"><ele>26.0</ele><time>2026-04-28T13:55:49.024Z</time></trkpt><trkpt lat="38.3507172" lon="22.3061496"><ele>33.0</ele><time>2026-04-28T13:55:50.024Z</time></trkpt><trkpt lat="38.3507831" lon="22.3059521"><ele>33.0</ele><time>2026-04-28T13:55:51.024Z</time></trkpt><trkpt lat="38.3508463" lon="22.305758"><ele>33.0</ele><time>2026-04-28T13:55:52.024Z</time></trkpt><trkpt lat="38.3509124" lon="22.3055701"><ele>33.0</ele><time>2026-04-28T13:55:53.023Z</time></trkpt><trkpt lat="38.3509867" lon="22.3053847"><ele>27.0</ele><time>2026-04-28T13:55:54.024Z</time></trkpt><trkpt lat="38.3510648" lon="22.3052062"><ele>21.0</ele><time>2026-04-28T13:55:55.023Z</time></trkpt><trkpt lat="38.3511486" lon="22.3050307"><ele>15.0</ele><time>2026-04-28T13:55:56.023Z</time></trkpt><trkpt lat="38.3512454" lon="22.3048685"><ele>16.666666666666668</ele><time>2026-04-28T13:55:57.023Z</time></trkpt><trkpt lat="38.3513484" lon="22.3047073"><ele>18.333333333333336</ele><time>2026-04-28T13:55:58.024Z</time></trkpt><trkpt lat="38.3514759" lon="22.3045652"><ele>20.0</ele><time>2026-04-28T13:55:59.023Z</time></trkpt><trkpt lat="38.3516059" lon="22.3044228"><ele>20.0</ele><time>2026-04-28T13:56:00.024Z</time></trkpt><trkpt lat="38.3517429" lon="22.3042899"><ele>20.0</ele><time>2026-04-28T13:56:01.024Z</time></trkpt><trkpt lat="38.3518829" lon="22.3041593"><ele>20.0</ele><time>2026-04-28T13:56:02.024Z</time></trkpt><trkpt lat="38.3520222" lon="22.3040264"><ele>18.666666666666668</ele><time>2026-04-28T13:56:03.023Z</time></trkpt><trkpt lat="38.352166" lon="22.3038945"><ele>17.333333333333332</ele><time>2026-04-28T13:56:04.024Z</time></trkpt><trkpt lat="38.3523073" lon="22.3037634"><ele>16.0</ele><time>2026-04-28T13:56:05.024Z</time></trkpt><trkpt lat="38.3524471" lon="22.3036364"><ele>16.0</ele><time>2026-04-28T13:56:06.023Z</time></trkpt><trkpt lat="38.3525854" lon="22.3035103"><ele>16.0</ele><time>2026-04-28T13:56:07.023Z</time></trkpt><trkpt lat="38.352718" lon="22.3033798"><ele>16.0</ele><time>2026-04-28T13:56:08.024Z</time></trkpt><trkpt lat="38.3528527" lon="22.3032471"><ele>16.0</ele><time>2026-04-28T13:56:09.024Z</time></trkpt><trkpt lat="38.3529849" lon="22.3031124"><ele>16.0</ele><time>2026-04-28T13:56:10.024Z</time></trkpt><trkpt lat="38.3531189" lon="22.3029759"><ele>16.0</ele><time>2026-04-28T13:56:11.023Z</time></trkpt><trkpt lat="38.3532477" lon="22.3028331"><ele>17.0</ele><time>2026-04-28T13:56:12.024Z</time></trkpt><trkpt lat="38.3533786" lon="22.3026855"><ele>18.0</ele><time>2026-04-28T13:56:13.023Z</time></trkpt><trkpt lat="38.3535065" lon="22.302531"><ele>19.0</ele><time>2026-04-28T13:56:14.023Z</time></trkpt><trkpt lat="38.3536351" lon="22.3023734"><ele>21.0</ele><time>2026-04-28T13:56:15.023Z</time></trkpt><trkpt lat="38.3537642" lon="22.3022095"><ele>23.0</ele><time>2026-04-28T13:56:16.024Z</time></trkpt><trkpt lat="38.3538949" lon="22.3020406"><ele>25.0</ele><time>2026-04-28T13:56:17.024Z</time></trkpt><trkpt lat="38.3540225" lon="22.3018663"><ele>25.0</ele><time>2026-04-28T13:56:18.023Z</time></trkpt><trkpt lat="38.3541462" lon="22.3016862"><ele>25.0</ele><time>2026-04-28T13:56:19.024Z</time></trkpt><trkpt lat="38.3542651" lon="22.3015052"><ele>25.0</ele><time>2026-04-28T13:56:20.024Z</time></trkpt><trkpt lat="38.354381" lon="22.301326"><ele>18.666666666666668</ele><time>2026-04-28T13:56:21.023Z</time></trkpt><trkpt lat="38.3544908" lon="22.3011485"><ele>12.333333333333334</ele><time>2026-04-28T13:56:22.024Z</time></trkpt><trkpt lat="38.3545961" lon="22.3009731"><ele>6.0</ele><time>2026-04-28T13:56:23.024Z</time></trkpt><trkpt lat="38.3547013" lon="22.3007965"><ele>8.0</ele><time>2026-04-28T13:56:24.023Z</time></trkpt><trkpt lat="38.3548032" lon="22.300623"><ele>10.0</ele><time>2026-04-28T13:56:25.023Z</time></trkpt><trkpt lat="38.3549067" lon="22.3004536"><ele>12.0</ele><time>2026-04-28T13:56:26.024Z</time></trkpt><trkpt lat="38.3550106" lon="22.3002891"><ele>12.0</ele><time>2026-04-28T13:56:27.024Z</time></trkpt><trkpt lat="38.355111" lon="22.3001253"><ele>12.0</ele><time>2026-04-28T13:56:28.023Z</time></trkpt><trkpt lat="38.3552121" lon="22.2999657"><ele>12.0</ele><time>2026-04-28T13:56:29.023Z</time></trkpt><trkpt lat="38.3553202" lon="22.2998119"><ele>12.0</ele><time>2026-04-28T13:56:30.023Z</time></trkpt><trkpt lat="38.3554356" lon="22.2996677"><ele>12.0</ele><time>2026-04-28T13:56:31.024Z</time></trkpt><trkpt lat="38.3555632" lon="22.2995334"><ele>12.0</ele><time>2026-04-28T13:56:32.023Z</time></trkpt><trkpt lat="38.3557021" lon="22.2994109"><ele>12.0</ele><time>2026-04-28T13:56:33.023Z</time></trkpt><trkpt lat="38.355844" lon="22.2992941"><ele>12.0</ele><time>2026-04-28T13:56:34.024Z</time></trkpt><trkpt lat="38.355988" lon="22.299181"><ele>12.0</ele><time>2026-04-28T13:56:35.024Z</time></trkpt><trkpt lat="38.3561314" lon="22.2990635"><ele>12.0</ele><time>2026-04-28T13:56:36.023Z</time></trkpt><trkpt lat="38.3562746" lon="22.2989443"><ele>12.0</ele><time>2026-04-28T13:56:37.024Z</time></trkpt><trkpt lat="38.3564212" lon="22.2988268"><ele>12.0</ele><time>2026-04-28T13:56:38.024Z</time></trkpt><trkpt lat="38.3565727" lon="22.2987097"><ele>11.333333333333334</ele><time>2026-04-28T13:56:39.024Z</time></trkpt><trkpt lat="38.356722" lon="22.2985913"><ele>10.666666666666668</ele><time>2026-04-28T13:56:40.024Z</time></trkpt><trkpt lat="38.3568714" lon="22.298471"><ele>10.0</ele><time>2026-04-28T13:56:41.023Z</time></trkpt><trkpt lat="38.357019" lon="22.2983465"><ele>10.0</ele><time>2026-04-28T13:56:42.024Z</time></trkpt><trkpt lat="38.3571677" lon="22.298217"><ele>10.0</ele><time>2026-04-28T13:56:43.024Z</time></trkpt><trkpt lat="38.3573179" lon="22.2980833"><ele>10.0</ele><time>2026-04-28T13:56:44.024Z</time></trkpt><trkpt lat="38.3574682" lon="22.2979426"><ele>11.0</ele><time>2026-04-28T13:56:45.023Z</time></trkpt><trkpt lat="38.3576155" lon="22.2977976"><ele>12.0</ele><time>2026-04-28T13:56:46.023Z</time></trkpt><trkpt lat="38.3577591" lon="22.2976527"><ele>13.0</ele><time>2026-04-28T13:56:47.024Z</time></trkpt><trkpt lat="38.3578955" lon="22.2975097"><ele>13.0</ele><time>2026-04-28T13:56:48.024Z</time></trkpt><trkpt lat="38.3580332" lon="22.297348"><ele>13.0</ele><time>2026-04-28T13:56:49.023Z</time></trkpt><trkpt lat="38.3581604" lon="22.2972064"><ele>13.0</ele><time>2026-04-28T13:56:50.023Z</time></trkpt><trkpt lat="38.3582841" lon="22.2970645"><ele>13.666666666666666</ele><time>2026-04-28T13:56:51.024Z</time></trkpt><trkpt lat="38.3584026" lon="22.2969207"><ele>14.333333333333332</ele><time>2026-04-28T13:56:52.024Z</time></trkpt><trkpt lat="38.3585177" lon="22.2967764"><ele>15.0</ele><time>2026-04-28T13:56:53.024Z</time></trkpt><trkpt lat="38.3586323" lon="22.2966344"><ele>15.0</ele><time>2026-04-28T13:56:54.024Z</time></trkpt><trkpt lat="38.3587425" lon="22.2964902"><ele>15.0</ele><time>2026-04-28T13:56:55.024Z</time></trkpt><trkpt lat="38.3588425" lon="22.2963409"><ele>15.0</ele><time>2026-04-28T13:56:56.024Z</time></trkpt><trkpt lat="38.358932" lon="22.2961785"><ele>14.333333333333332</ele><time>2026-04-28T13:56:57.023Z</time></trkpt><trkpt lat="38.3590038" lon="22.2960042"><ele>13.666666666666666</ele><time>2026-04-28T13:56:58.024Z</time></trkpt><trkpt lat="38.3590607" lon="22.2958179"><ele>13.0</ele><time>2026-04-28T13:56:59.024Z</time></trkpt><trkpt lat="38.3590976" lon="22.295621"><ele>12.0</ele><time>2026-04-28T13:57:00.023Z</time></trkpt><trkpt lat="38.3591108" lon="22.2954181"><ele>11.0</ele><time>2026-04-28T13:57:01.023Z</time></trkpt><trkpt lat="38.3591042" lon="22.2952121"><ele>10.0</ele><time>2026-04-28T13:57:02.024Z</time></trkpt><trkpt lat="38.3590757" lon="22.2950082"><ele>10.0</ele><time>2026-04-28T13:57:03.024Z</time></trkpt><trkpt lat="38.3590239" lon="22.2947943"><ele>10.0</ele><time>2026-04-28T13:57:04.024Z</time></trkpt><trkpt lat="38.35895" lon="22.2946073"><ele>10.0</ele><time>2026-04-28T13:57:05.024Z</time></trkpt><trkpt lat="38.3588645" lon="22.2944283"><ele>10.333333333333334</ele><time>2026-04-28T13:57:06.023Z</time></trkpt><trkpt lat="38.3587725" lon="22.2942509"><ele>10.666666666666666</ele><time>2026-04-28T13:57:07.024Z</time></trkpt><trkpt lat="38.3586772" lon="22.2940774"><ele>11.0</ele><time>2026-04-28T13:57:08.024Z</time></trkpt><trkpt lat="38.3585789" lon="22.293902"><ele>11.666666666666666</ele><time>2026-04-28T13:57:09.023Z</time></trkpt><trkpt lat="38.3584817" lon="22.2937185"><ele>12.333333333333332</ele><time>2026-04-28T13:57:10.023Z</time></trkpt><trkpt lat="38.3583843" lon="22.2935384"><ele>13.0</ele><time>2026-04-28T13:57:11.024Z</time></trkpt><trkpt lat="38.3582774" lon="22.2933583"><ele>13.0</ele><time>2026-04-28T13:57:12.024Z</time></trkpt><trkpt lat="38.3581568" lon="22.2931923"><ele>13.0</ele><time>2026-04-28T13:57:13.024Z</time></trkpt><trkpt lat="38.3580218" lon="22.2930458"><ele>13.0</ele><time>2026-04-28T13:57:14.024Z</time></trkpt><trkpt lat="38.3578752" lon="22.2929152"><ele>16.333333333333332</ele><time>2026-04-28T13:57:15.023Z</time></trkpt><trkpt lat="38.357715" lon="22.2928098"><ele>19.666666666666668</ele><time>2026-04-28T13:57:16.023Z</time></trkpt><trkpt lat="38.3575455" lon="22.2927231"><ele>23.0</ele><time>2026-04-28T13:57:17.023Z</time></trkpt><trkpt lat="38.3573739" lon="22.2926721"><ele>21.666666666666668</ele><time>2026-04-28T13:57:18.024Z</time></trkpt><trkpt lat="38.3571915" lon="22.2926336"><ele>20.333333333333332</ele><time>2026-04-28T13:57:19.023Z</time></trkpt><trkpt lat="38.3570015" lon="22.2926066"><ele>19.0</ele><time>2026-04-28T13:57:20.023Z</time></trkpt><trkpt lat="38.3568086" lon="22.2925874"><ele>19.0</ele><time>2026-04-28T13:57:21.023Z</time></trkpt><trkpt lat="38.3566149" lon="22.2925727"><ele>19.0</ele><time>2026-04-28T13:57:22.023Z</time></trkpt><trkpt lat="38.3564213" lon="22.2925662"><ele>19.0</ele><time>2026-04-28T13:57:23.024Z</time></trkpt><trkpt lat="38.3562352" lon="22.2925715"><ele>20.666666666666664</ele><time>2026-04-28T13:57:24.024Z</time></trkpt><trkpt lat="38.3560479" lon="22.2925982"><ele>22.333333333333332</ele><time>2026-04-28T13:57:25.024Z</time></trkpt><trkpt lat="38.3558664" lon="22.2926568"><ele>24.0</ele><time>2026-04-28T13:57:26.023Z</time></trkpt><trkpt lat="38.3556934" lon="22.2927415"><ele>24.666666666666664</ele><time>2026-04-28T13:57:27.023Z</time></trkpt><trkpt lat="38.3555315" lon="22.2928628"><ele>25.333333333333332</ele><time>2026-04-28T13:57:28.024Z</time></trkpt><trkpt lat="38.3553715" lon="22.2929957"><ele>26.0</ele><time>2026-04-28T13:57:29.024Z</time></trkpt><trkpt lat="38.3552134" lon="22.2931297"><ele>26.0</ele><time>2026-04-28T13:57:30.024Z</time></trkpt><trkpt lat="38.3550598" lon="22.2932662"><ele>26.0</ele><time>2026-04-28T13:57:31.024Z</time></trkpt><trkpt lat="38.3549061" lon="22.2934033"><ele>26.0</ele><time>2026-04-28T13:57:32.023Z</time></trkpt><trkpt lat="38.3547517" lon="22.2935425"><ele>34.0</ele><time>2026-04-28T13:57:33.024Z</time></trkpt><trkpt lat="38.3545968" lon="22.2936767"><ele>42.0</ele><time>2026-04-28T13:57:34.024Z</time></trkpt><trkpt lat="38.3544344" lon="22.2937933"><ele>50.0</ele><time>2026-04-28T13:57:35.023Z</time></trkpt><trkpt lat="38.3542629" lon="22.2938863"><ele>40.66666666666667</ele><time>2026-04-28T13:57:36.024Z</time></trkpt><trkpt lat="38.3540936" lon="22.2939521"><ele>31.333333333333336</ele><time>2026-04-28T13:57:37.023Z</time></trkpt><trkpt lat="38.3539091" lon="22.2939901"><ele>22.0</ele><time>2026-04-28T13:57:38.023Z</time></trkpt><trkpt lat="38.3537316" lon="22.2939951"><ele>22.0</ele><time>2026-04-28T13:57:39.024Z</time></trkpt><trkpt lat="38.3535583" lon="22.2939629"><ele>22.0</ele><time>2026-04-28T13:57:40.024Z</time></trkpt><trkpt lat="38.3533828" lon="22.2938949"><ele>22.0</ele><time>2026-04-28T13:57:41.024Z</time></trkpt><trkpt lat="38.3532136" lon="22.2938032"><ele>28.0</ele><time>2026-04-28T13:57:42.024Z</time></trkpt><trkpt lat="38.3530476" lon="22.2936894"><ele>34.0</ele><time>2026-04-28T13:57:43.024Z</time></trkpt><trkpt lat="38.3528836" lon="22.2935503"><ele>40.0</ele><time>2026-04-28T13:57:44.023Z</time></trkpt><trkpt lat="38.3527191" lon="22.2933912"><ele>40.0</ele><time>2026-04-28T13:57:45.023Z</time></trkpt><trkpt lat="38.3525535" lon="22.2932144"><ele>40.0</ele><time>2026-04-28T13:57:46.023Z</time></trkpt><trkpt lat="38.3523774" lon="22.2930261"><ele>40.0</ele><time>2026-04-28T13:57:47.024Z</time></trkpt><trkpt lat="38.3522015" lon="22.2928255"><ele>41.0</ele><time>2026-04-28T13:57:48.023Z</time></trkpt><trkpt lat="38.3520295" lon="22.2926384"><ele>42.0</ele><time>2026-04-28T13:57:49.023Z</time></trkpt><trkpt lat="38.3518605" lon="22.2924514"><ele>42.0</ele><time>2026-04-28T13:57:50.023Z</time></trkpt><trkpt lat="38.3516901" lon="22.2922662"><ele>42.0</ele><time>2026-04-28T13:57:51.023Z</time></trkpt><trkpt lat="38.3515169" lon="22.2920775"><ele>44.5</ele><time>2026-04-28T13:57:52.024Z</time></trkpt><trkpt lat="38.3513412" lon="22.2918908"><ele>47.0</ele><time>2026-04-28T13:57:53.023Z</time></trkpt><trkpt lat="38.3511727" lon="22.2917087"><ele>47.0</ele><time>2026-04-28T13:57:54.023Z</time></trkpt><trkpt lat="38.3510056" lon="22.2915216"><ele>47.0</ele><time>2026-04-28T13:57:55.024Z</time></trkpt><trkpt lat="38.350841" lon="22.2913297"><ele>47.0</ele><time>2026-04-28T13:57:56.024Z</time></trkpt><trkpt lat="38.3506777" lon="22.2911416"><ele>49.666666666666664</ele><time>2026-04-28T13:57:57.023Z</time></trkpt><trkpt lat="38.3505183" lon="22.2909648"><ele>52.33333333333333</ele><time>2026-04-28T13:57:58.024Z</time></trkpt><trkpt lat="38.3503581" lon="22.2907883"><ele>55.0</ele><time>2026-04-28T13:57:59.024Z</time></trkpt><trkpt lat="38.3501969" lon="22.2906131"><ele>58.0</ele><time>2026-04-28T13:58:00.023Z</time></trkpt><trkpt lat="38.3500358" lon="22.2904351"><ele>61.0</ele><time>2026-04-28T13:58:01.023Z</time></trkpt><trkpt lat="38.3498743" lon="22.2902568"><ele>64.0</ele><time>2026-04-28T13:58:02.024Z</time></trkpt><trkpt lat="38.349717" lon="22.2900781"><ele>63.0</ele><time>2026-04-28T13:58:03.024Z</time></trkpt><trkpt lat="38.3495592" lon="22.2899066"><ele>62.0</ele><time>2026-04-28T13:58:04.023Z</time></trkpt><trkpt lat="38.3494009" lon="22.2897361"><ele>61.0</ele><time>2026-04-28T13:58:05.024Z</time></trkpt><trkpt lat="38.3492499" lon="22.2895648"><ele>64.0</ele><time>2026-04-28T13:58:06.024Z</time></trkpt><trkpt lat="38.3490941" lon="22.2893959"><ele>67.0</ele><time>2026-04-28T13:58:07.024Z</time></trkpt><trkpt lat="38.3489386" lon="22.2892205"><ele>70.0</ele><time>2026-04-28T13:58:08.023Z</time></trkpt><trkpt lat="38.3487823" lon="22.289049"><ele>72.66666666666666</ele><time>2026-04-28T13:58:09.024Z</time></trkpt><trkpt lat="38.3486279" lon="22.2888784"><ele>75.33333333333333</ele><time>2026-04-28T13:58:10.023Z</time></trkpt><trkpt lat="38.3484758" lon="22.2887115"><ele>78.0</ele><time>2026-04-28T13:58:11.024Z</time></trkpt><trkpt lat="38.3483263" lon="22.2885511"><ele>78.0</ele><time>2026-04-28T13:58:12.024Z</time></trkpt><trkpt lat="38.3481876" lon="22.2884018"><ele>78.0</ele><time>2026-04-28T13:58:13.023Z</time></trkpt><trkpt lat="38.3480583" lon="22.2882601"><ele>78.0</ele><time>2026-04-28T13:58:14.023Z</time></trkpt><trkpt lat="38.3479382" lon="22.2881207"><ele>79.0</ele><time>2026-04-28T13:58:15.023Z</time></trkpt><trkpt lat="38.3478246" lon="22.2879726"><ele>80.0</ele><time>2026-04-28T13:58:16.024Z</time></trkpt><trkpt lat="38.3477189" lon="22.2878135"><ele>81.0</ele><time>2026-04-28T13:58:17.023Z</time></trkpt><trkpt lat="38.3523774" lon="22.2930261"><ele>61.5</ele><time>2026-04-28T13:57:47.024Z</time></trkpt><trkpt lat="38.3522015" lon="22.2928255"><ele>42.0</ele><time>2026-04-28T13:57:48.023Z</time></trkpt><trkpt lat="38.3520295" lon="22.2926384"><ele>42.0</ele><time>2026-04-28T13:57:49.023Z</time></trkpt><trkpt lat="38.3518605" lon="22.2924514"><ele>42.0</ele><time>2026-04-28T13:57:50.023Z</time></trkpt><trkpt lat="38.3516901" lon="22.2922662"><ele>42.0</ele><time>2026-04-28T13:57:51.023Z</time></trkpt><trkpt lat="38.3515169" lon="22.2920775"><ele>44.5</ele><time>2026-04-28T13:57:52.024Z</time></trkpt><trkpt lat="38.3513412" lon="22.2918908"><ele>47.0</ele><time>2026-04-28T13:57:53.023Z</time></trkpt><trkpt lat="38.3511727" lon="22.2917087"><ele>47.0</ele><time>2026-04-28T13:57:54.023Z</time></trkpt><trkpt lat="38.3510056" lon="22.2915216"><ele>47.0</ele><time>2026-04-28T13:57:55.024Z</time></trkpt><trkpt lat="38.350841" lon="22.2913297"><ele>47.0</ele><time>2026-04-28T13:57:56.024Z</time></trkpt><trkpt lat="38.3506777" lon="22.2911416"><ele>49.666666666666664</ele><time>2026-04-28T13:57:57.023Z</time></trkpt><trkpt lat="38.3505183" lon="22.2909648"><ele>52.33333333333333</ele><time>2026-04-28T13:57:58.024Z</time></trkpt><trkpt lat="38.3503581" lon="22.2907883"><ele>55.0</ele><time>2026-04-28T13:57:59.024Z</time></trkpt><trkpt lat="38.3501969" lon="22.2906131"><ele>58.0</ele><time>2026-04-28T13:58:00.023Z</time></trkpt><trkpt lat="38.3500358" lon="22.2904351"><ele>61.0</ele><time>2026-04-28T13:58:01.023Z</time></trkpt><trkpt lat="38.3498743" lon="22.2902568"><ele>64.0</ele><time>2026-04-28T13:58:02.024Z</time></trkpt><trkpt lat="38.349717" lon="22.2900781"><ele>63.0</ele><time>2026-04-28T13:58:03.024Z</time></trkpt><trkpt lat="38.3495592" lon="22.2899066"><ele>62.0</ele><time>2026-04-28T13:58:04.023Z</time></trkpt><trkpt lat="38.3494009" lon="22.2897361"><ele>61.0</ele><time>2026-04-28T13:58:05.024Z</time></trkpt><trkpt lat="38.3492499" lon="22.2895648"><ele>64.0</ele><time>2026-04-28T13:58:06.024Z</time></trkpt><trkpt lat="38.3490941" lon="22.2893959"><ele>67.0</ele><time>2026-04-28T13:58:07.024Z</time></trkpt><trkpt lat="38.3489386" lon="22.2892205"><ele>70.0</ele><time>2026-04-28T13:58:08.023Z</time></trkpt><trkpt lat="38.3487823" lon="22.289049"><ele>72.66666666666666</ele><time>2026-04-28T13:58:09.024Z</time></trkpt><trkpt lat="38.3486279" lon="22.2888784"><ele>75.33333333333333</ele><time>2026-04-28T13:58:10.023Z</time></trkpt><trkpt lat="38.3484758" lon="22.2887115"><ele>78.0</ele><time>2026-04-28T13:58:11.024Z</time></trkpt><trkpt lat="38.3483263" lon="22.2885511"><ele>78.0</ele><time>2026-04-28T13:58:12.024Z</time></trkpt><trkpt lat="38.3481876" lon="22.2884018"><ele>78.0</ele><time>2026-04-28T13:58:13.023Z</time></trkpt><trkpt lat="38.3480583" lon="22.2882601"><ele>78.0</ele><time>2026-04-28T13:58:14.023Z</time></trkpt><trkpt lat="38.3479382" lon="22.2881207"><ele>79.0</ele><time>2026-04-28T13:58:15.023Z</time></trkpt><trkpt lat="38.3478246" lon="22.2879726"><ele>80.0</ele><time>2026-04-28T13:58:16.024Z</time></trkpt><trkpt lat="38.3477189" lon="22.2878135"><ele>81.0</ele><time>2026-04-28T13:58:17.023Z</time></trkpt><trkpt lat="38.3476207" lon="22.2876434"><ele>81.0</ele><time>2026-04-28T13:58:18.024Z</time></trkpt><trkpt lat="38.3475346" lon="22.2874609"><ele>81.0</ele><time>2026-04-28T13:58:19.024Z</time></trkpt><trkpt lat="38.3474621" lon="22.2872672"><ele>81.0</ele><time>2026-04-28T13:58:20.024Z</time></trkpt><trkpt lat="38.3474107" lon="22.2870594"><ele>80.66666666666667</ele><time>2026-04-28T13:58:21.024Z</time></trkpt><trkpt lat="38.3473788" lon="22.2868393"><ele>80.33333333333334</ele><time>2026-04-28T13:58:22.024Z</time></trkpt><trkpt lat="38.3473664" lon="22.286615"><ele>80.0</ele><time>2026-04-28T13:58:23.024Z</time></trkpt><trkpt lat="38.3473705" lon="22.2863891"><ele>80.0</ele><time>2026-04-28T13:58:24.024Z</time></trkpt><trkpt lat="38.3473972" lon="22.2861637"><ele>80.0</ele><time>2026-04-28T13:58:25.023Z</time></trkpt><trkpt lat="38.3474386" lon="22.2859387"><ele>80.0</ele><time>2026-04-28T13:58:26.023Z</time></trkpt><trkpt lat="38.3474845" lon="22.2857145"><ele>78.66666666666667</ele><time>2026-04-28T13:58:27.023Z</time></trkpt><trkpt lat="38.3475343" lon="22.2854889"><ele>77.33333333333333</ele><time>2026-04-28T13:58:28.024Z</time></trkpt><trkpt lat="38.3475865" lon="22.2852593"><ele>76.0</ele><time>2026-04-28T13:58:29.023Z</time></trkpt><trkpt lat="38.3476391" lon="22.2850265"><ele>76.0</ele><time>2026-04-28T13:58:30.024Z</time></trkpt><trkpt lat="38.3476888" lon="22.2847843"><ele>76.0</ele><time>2026-04-28T13:58:31.023Z</time></trkpt><trkpt lat="38.3477342" lon="22.2845342"><ele>76.0</ele><time>2026-04-28T13:58:32.023Z</time></trkpt><trkpt lat="38.3477714" lon="22.2842811"><ele>73.33333333333333</ele><time>2026-04-28T13:58:33.024Z</time></trkpt><trkpt lat="38.3477947" lon="22.2840204"><ele>70.66666666666667</ele><time>2026-04-28T13:58:34.022Z</time></trkpt><trkpt lat="38.3477969" lon="22.2837543"><ele>68.0</ele><time>2026-04-28T13:58:35.024Z</time></trkpt><trkpt lat="38.347774" lon="22.2834884"><ele>67.0</ele><time>2026-04-28T13:58:36.024Z</time></trkpt><trkpt lat="38.3477307" lon="22.2832262"><ele>66.0</ele><time>2026-04-28T13:58:37.024Z</time></trkpt><trkpt lat="38.3476744" lon="22.2829625"><ele>65.0</ele><time>2026-04-28T13:58:38.024Z</time></trkpt><trkpt lat="38.3476057" lon="22.2827064"><ele>65.0</ele><time>2026-04-28T13:58:39.024Z</time></trkpt><trkpt lat="38.3475333" lon="22.2824489"><ele>65.0</ele><time>2026-04-28T13:58:40.024Z</time></trkpt><trkpt lat="38.347459" lon="22.2821908"><ele>65.0</ele><time>2026-04-28T13:58:41.024Z</time></trkpt><trkpt lat="38.3473839" lon="22.2819348"><ele>67.0</ele><time>2026-04-28T13:58:42.023Z</time></trkpt><trkpt lat="38.3473104" lon="22.281687"><ele>69.0</ele><time>2026-04-28T13:58:43.023Z</time></trkpt><trkpt lat="38.3472368" lon="22.2814438"><ele>71.0</ele><time>2026-04-28T13:58:44.023Z</time></trkpt><trkpt lat="38.3471625" lon="22.2811998"><ele>66.0</ele><time>2026-04-28T13:58:45.024Z</time></trkpt><trkpt lat="38.3470907" lon="22.2809608"><ele>61.0</ele><time>2026-04-28T13:58:46.023Z</time></trkpt><trkpt lat="38.3470225" lon="22.2807198"><ele>56.0</ele><time>2026-04-28T13:58:47.024Z</time></trkpt><trkpt lat="38.3469581" lon="22.2804834"><ele>55.66666666666667</ele><time>2026-04-28T13:58:48.024Z</time></trkpt><trkpt lat="38.3469036" lon="22.2802407"><ele>55.33333333333333</ele><time>2026-04-28T13:58:49.024Z</time></trkpt><trkpt lat="38.3468608" lon="22.2799918"><ele>55.0</ele><time>2026-04-28T13:58:50.024Z</time></trkpt><trkpt lat="38.3468315" lon="22.2797432"><ele>54.666666666666664</ele><time>2026-04-28T13:58:51.024Z</time></trkpt><trkpt lat="38.3468189" lon="22.2794937"><ele>54.33333333333333</ele><time>2026-04-28T13:58:52.023Z</time></trkpt><trkpt lat="38.3468307" lon="22.279242"><ele>54.0</ele><time>2026-04-28T13:58:53.024Z</time></trkpt><trkpt lat="38.346858" lon="22.2789859"><ele>52.0</ele><time>2026-04-28T13:58:54.023Z</time></trkpt><trkpt lat="38.3469086" lon="22.2787229"><ele>50.0</ele><time>2026-04-28T13:58:55.024Z</time></trkpt><trkpt lat="38.3469616" lon="22.2784598"><ele>48.0</ele><time>2026-04-28T13:58:56.024Z</time></trkpt><trkpt lat="38.3470213" lon="22.2781966"><ele>46.666666666666664</ele><time>2026-04-28T13:58:57.023Z</time></trkpt><trkpt lat="38.3470808" lon="22.2779333"><ele>45.33333333333333</ele><time>2026-04-28T13:58:58.024Z</time></trkpt><trkpt lat="38.3471409" lon="22.2776694"><ele>44.0</ele><time>2026-04-28T13:58:59.024Z</time></trkpt><trkpt lat="38.3471984" lon="22.2774087"><ele>46.666666666666664</ele><time>2026-04-28T13:59:00.024Z</time></trkpt><trkpt lat="38.3472564" lon="22.277151"><ele>49.33333333333333</ele><time>2026-04-28T13:59:01.024Z</time></trkpt><trkpt lat="38.3473156" lon="22.2768905"><ele>52.0</ele><time>2026-04-28T13:59:02.023Z</time></trkpt><trkpt lat="38.3473754" lon="22.276628"><ele>51.0</ele><time>2026-04-28T13:59:03.023Z</time></trkpt><trkpt lat="38.3474371" lon="22.276368"><ele>50.0</ele><time>2026-04-28T13:59:04.023Z</time></trkpt><trkpt lat="38.3474942" lon="22.2761058"><ele>49.0</ele><time>2026-04-28T13:59:05.023Z</time></trkpt><trkpt lat="38.3475446" lon="22.2758433"><ele>47.666666666666664</ele><time>2026-04-28T13:59:06.023Z</time></trkpt><trkpt lat="38.3475876" lon="22.2755773"><ele>46.33333333333333</ele><time>2026-04-28T13:59:07.024Z</time></trkpt><trkpt lat="38.3476151" lon="22.2753081"><ele>45.0</ele><time>2026-04-28T13:59:08.024Z</time></trkpt><trkpt lat="38.347621" lon="22.2750374"><ele>44.0</ele><time>2026-04-28T13:59:09.024Z</time></trkpt><trkpt lat="38.3476069" lon="22.2747673"><ele>43.0</ele><time>2026-04-28T13:59:10.023Z</time></trkpt><trkpt lat="38.347576" lon="22.2745002"><ele>42.0</ele><time>2026-04-28T13:59:11.023Z</time></trkpt><trkpt lat="38.3475306" lon="22.2742404"><ele>42.0</ele><time>2026-04-28T13:59:12.023Z</time></trkpt><trkpt lat="38.3474779" lon="22.2739844"><ele>42.0</ele><time>2026-04-28T13:59:13.023Z</time></trkpt><trkpt lat="38.3474225" lon="22.2737323"><ele>42.0</ele><time>2026-04-28T13:59:14.023Z</time></trkpt><trkpt lat="38.3473683" lon="22.2734831"><ele>43.666666666666664</ele><time>2026-04-28T13:59:15.023Z</time></trkpt><trkpt lat="38.3473144" lon="22.2732355"><ele>45.33333333333333</ele><time>2026-04-28T13:59:16.024Z</time></trkpt><trkpt lat="38.3472612" lon="22.2729922"><ele>47.0</ele><time>2026-04-28T13:59:17.024Z</time></trkpt><trkpt lat="38.3472097" lon="22.2727506"><ele>40.666666666666664</ele><time>2026-04-28T13:59:18.023Z</time></trkpt><trkpt lat="38.3471575" lon="22.2725094"><ele>34.333333333333336</ele><time>2026-04-28T13:59:19.024Z</time></trkpt><trkpt lat="38.3471068" lon="22.2722685"><ele>28.0</ele><time>2026-04-28T13:59:20.023Z</time></trkpt><trkpt lat="38.3470585" lon="22.2720303"><ele>28.0</ele><time>2026-04-28T13:59:21.023Z</time></trkpt><trkpt lat="38.3470149" lon="22.2717922"><ele>28.0</ele><time>2026-04-28T13:59:22.024Z</time></trkpt><trkpt lat="38.3469779" lon="22.2715521"><ele>28.0</ele><time>2026-04-28T13:59:23.024Z</time></trkpt><trkpt lat="38.3469522" lon="22.2713094"><ele>27.666666666666668</ele><time>2026-04-28T13:59:24.023Z</time></trkpt><trkpt lat="38.3469364" lon="22.2710669"><ele>27.333333333333336</ele><time>2026-04-28T13:59:25.023Z</time></trkpt><trkpt lat="38.3469388" lon="22.2708234"><ele>27.0</ele><time>2026-04-28T13:59:26.024Z</time></trkpt><trkpt lat="38.3469741" lon="22.2705943"><ele>27.0</ele><time>2026-04-28T13:59:27.023Z</time></trkpt><trkpt lat="38.3470299" lon="22.2703615"><ele>27.0</ele><time>2026-04-28T13:59:28.024Z</time></trkpt><trkpt lat="38.3470988" lon="22.2701427"><ele>27.0</ele><time>2026-04-28T13:59:29.024Z</time></trkpt><trkpt lat="38.3471931" lon="22.2699244"><ele>29.666666666666664</ele><time>2026-04-28T13:59:30.023Z</time></trkpt><trkpt lat="38.3472962" lon="22.2697061"><ele>32.33333333333333</ele><time>2026-04-28T13:59:31.024Z</time></trkpt><trkpt lat="38.3474037" lon="22.2695036"><ele>35.0</ele><time>2026-04-28T13:59:32.023Z</time></trkpt><trkpt lat="38.347515" lon="22.2693041"><ele>35.0</ele><time>2026-04-28T13:59:33.023Z</time></trkpt><trkpt lat="38.3476264" lon="22.2691037"><ele>35.0</ele><time>2026-04-28T13:59:34.024Z</time></trkpt><trkpt lat="38.3477401" lon="22.2689042"><ele>35.0</ele><time>2026-04-28T13:59:35.024Z</time></trkpt><trkpt lat="38.3478558" lon="22.2687034"><ele>37.33333333333333</ele><time>2026-04-28T13:59:36.023Z</time></trkpt><trkpt lat="38.3479707" lon="22.2685015"><ele>39.666666666666664</ele><time>2026-04-28T13:59:37.024Z</time></trkpt><trkpt lat="38.3480847" lon="22.2682962"><ele>42.0</ele><time>2026-04-28T13:59:38.023Z</time></trkpt><trkpt lat="38.348201" lon="22.2680955"><ele>42.0</ele><time>2026-04-28T13:59:39.024Z</time></trkpt><trkpt lat="38.3483123" lon="22.2678939"><ele>42.0</ele><time>2026-04-28T13:59:40.023Z</time></trkpt><trkpt lat="38.3484251" lon="22.2676975"><ele>42.0</ele><time>2026-04-28T13:59:41.023Z</time></trkpt><trkpt lat="38.3485377" lon="22.2675083"><ele>42.0</ele><time>2026-04-28T13:59:42.024Z</time></trkpt><trkpt lat="38.3486584" lon="22.2673237"><ele>42.0</ele><time>2026-04-28T13:59:43.023Z</time></trkpt><trkpt lat="38.3487873" lon="22.2671603"><ele>42.0</ele><time>2026-04-28T13:59:44.024Z</time></trkpt><trkpt lat="38.3489233" lon="22.2670269"><ele>43.333333333333336</ele><time>2026-04-28T13:59:45.024Z</time></trkpt><trkpt lat="38.3490779" lon="22.2669559"><ele>44.66666666666667</ele><time>2026-04-28T13:59:46.024Z</time></trkpt><trkpt lat="38.3492435" lon="22.2669036"><ele>46.0</ele><time>2026-04-28T13:59:47.023Z</time></trkpt><trkpt lat="38.3494217" lon="22.2668801"><ele>46.0</ele><time>2026-04-28T13:59:48.024Z</time></trkpt><trkpt lat="38.3496068" lon="22.2668596"><ele>46.0</ele><time>2026-04-28T13:59:49.023Z</time></trkpt><trkpt lat="38.3497863" lon="22.2668359"><ele>46.0</ele><time>2026-04-28T13:59:50.023Z</time></trkpt><trkpt lat="38.3499699" lon="22.2668116"><ele>41.66666666666667</ele><time>2026-04-28T13:59:51.024Z</time></trkpt><trkpt lat="38.3501517" lon="22.2667619"><ele>37.333333333333336</ele><time>2026-04-28T13:59:52.023Z</time></trkpt><trkpt lat="38.3503249" lon="22.2666813"><ele>33.0</ele><time>2026-04-28T13:59:53.024Z</time></trkpt><trkpt lat="38.3504933" lon="22.2665659"><ele>33.0</ele><time>2026-04-28T13:59:54.024Z</time></trkpt><trkpt lat="38.3506502" lon="22.2664207"><ele>33.0</ele><time>2026-04-28T13:59:55.023Z</time></trkpt><trkpt lat="38.3507989" lon="22.2662591"><ele>33.0</ele><time>2026-04-28T13:59:56.023Z</time></trkpt><trkpt lat="38.3509446" lon="22.2660884"><ele>33.0</ele><time>2026-04-28T13:59:57.023Z</time></trkpt><trkpt lat="38.3510908" lon="22.265915"><ele>33.0</ele><time>2026-04-28T13:59:58.023Z</time></trkpt><trkpt lat="38.3512338" lon="22.2657376"><ele>33.0</ele><time>2026-04-28T13:59:59.024Z</time></trkpt><trkpt lat="38.3513687" lon="22.265555"><ele>36.0</ele><time>2026-04-28T14:00:00.023Z</time></trkpt><trkpt lat="38.3514921" lon="22.2653594"><ele>39.0</ele><time>2026-04-28T14:00:01.024Z</time></trkpt><trkpt lat="38.3515992" lon="22.2651496"><ele>42.0</ele><time>2026-04-28T14:00:02.024Z</time></trkpt><trkpt lat="38.3516915" lon="22.264925"><ele>38.0</ele><time>2026-04-28T14:00:03.023Z</time></trkpt><trkpt lat="38.3517669" lon="22.2646924"><ele>34.0</ele><time>2026-04-28T14:00:04.024Z</time></trkpt><trkpt lat="38.3518322" lon="22.2644533"><ele>30.0</ele><time>2026-04-28T14:00:05.024Z</time></trkpt><trkpt lat="38.3518884" lon="22.2642192"><ele>30.0</ele><time>2026-04-28T14:00:06.023Z</time></trkpt><trkpt lat="38.3519376" lon="22.2639913"><ele>30.0</ele><time>2026-04-28T14:00:07.023Z</time></trkpt><trkpt lat="38.3519813" lon="22.2637709"><ele>30.0</ele><time>2026-04-28T14:00:08.023Z</time></trkpt><trkpt lat="38.3520243" lon="22.2635563"><ele>28.666666666666664</ele><time>2026-04-28T14:00:09.023Z</time></trkpt><trkpt lat="38.3520655" lon="22.2633531"><ele>27.333333333333332</ele><time>2026-04-28T14:00:10.023Z</time></trkpt><trkpt lat="38.3521131" lon="22.2631624"><ele>26.0</ele><time>2026-04-28T14:00:11.023Z</time></trkpt><trkpt lat="38.3521793" lon="22.2629909"><ele>27.25</ele><time>2026-04-28T14:00:12.023Z</time></trkpt><trkpt lat="38.3522623" lon="22.2628353"><ele>28.5</ele><time>2026-04-28T14:00:13.024Z</time></trkpt><trkpt lat="38.3523559" lon="22.2627072"><ele>29.75</ele><time>2026-04-28T14:00:14.023Z</time></trkpt><trkpt lat="38.3524658" lon="22.2625989"><ele>31.0</ele><time>2026-04-28T14:00:15.024Z</time></trkpt><trkpt lat="38.3525835" lon="22.2624987"><ele>31.0</ele><time>2026-04-28T14:00:16.023Z</time></trkpt><trkpt lat="38.3527229" lon="22.2624101"><ele>31.0</ele><time>2026-04-28T14:00:17.023Z</time></trkpt><trkpt lat="38.3528712" lon="22.2623277"><ele>31.0</ele><time>2026-04-28T14:00:18.023Z</time></trkpt><trkpt lat="38.3530296" lon="22.2622516"><ele>26.666666666666668</ele><time>2026-04-28T14:00:19.023Z</time></trkpt><trkpt lat="38.3531886" lon="22.2621801"><ele>22.333333333333336</ele><time>2026-04-28T14:00:20.023Z</time></trkpt><trkpt lat="38.3533504" lon="22.2621064"><ele>18.0</ele><time>2026-04-28T14:00:21.024Z</time></trkpt><trkpt lat="38.3535106" lon="22.2620295"><ele>18.0</ele><time>2026-04-28T14:00:22.023Z</time></trkpt><trkpt lat="38.3536751" lon="22.2619493"><ele>18.0</ele><time>2026-04-28T14:00:23.024Z</time></trkpt><trkpt lat="38.3538353" lon="22.2618597"><ele>18.0</ele><time>2026-04-28T14:00:24.023Z</time></trkpt><trkpt lat="38.3539896" lon="22.2617537"><ele>16.0</ele><time>2026-04-28T14:00:25.023Z</time></trkpt><trkpt lat="38.3541344" lon="22.2616277"><ele>14.0</ele><time>2026-04-28T14:00:26.023Z</time></trkpt><trkpt lat="38.3542674" lon="22.261483"><ele>12.0</ele><time>2026-04-28T14:00:27.023Z</time></trkpt><trkpt lat="38.3543872" lon="22.2613278"><ele>12.0</ele><time>2026-04-28T14:00:28.023Z</time></trkpt><trkpt lat="38.3544926" lon="22.2611624"><ele>12.0</ele><time>2026-04-28T14:00:29.024Z</time></trkpt><trkpt lat="38.3545871" lon="22.2609825"><ele>12.0</ele><time>2026-04-28T14:00:30.023Z</time></trkpt><trkpt lat="38.3546723" lon="22.2607954"><ele>15.666666666666668</ele><time>2026-04-28T14:00:31.023Z</time></trkpt><trkpt lat="38.3547534" lon="22.2606026"><ele>19.333333333333336</ele><time>2026-04-28T14:00:32.023Z</time></trkpt><trkpt lat="38.3548353" lon="22.2604156"><ele>23.0</ele><time>2026-04-28T14:00:33.023Z</time></trkpt><trkpt lat="38.3549189" lon="22.2602224"><ele>23.0</ele><time>2026-04-28T14:00:34.023Z</time></trkpt><trkpt lat="38.3550032" lon="22.2600362"><ele>23.0</ele><time>2026-04-28T14:00:35.023Z</time></trkpt><trkpt lat="38.3550923" lon="22.259856"><ele>23.0</ele><time>2026-04-28T14:00:36.023Z</time></trkpt><trkpt lat="38.3551903" lon="22.2596779"><ele>25.0</ele><time>2026-04-28T14:00:37.023Z</time></trkpt><trkpt lat="38.3552985" lon="22.2595029"><ele>27.0</ele><time>2026-04-28T14:00:38.023Z</time></trkpt><trkpt lat="38.3554156" lon="22.2593447"><ele>29.0</ele><time>2026-04-28T14:00:39.023Z</time></trkpt><trkpt lat="38.3555395" lon="22.2592002"><ele>29.0</ele><time>2026-04-28T14:00:40.024Z</time></trkpt><trkpt lat="38.3556724" lon="22.2590683"><ele>29.0</ele><time>2026-04-28T14:00:41.024Z</time></trkpt><trkpt lat="38.3558067" lon="22.2589401"><ele>29.0</ele><time>2026-04-28T14:00:42.024Z</time></trkpt><trkpt lat="38.3559433" lon="22.2588131"><ele>23.0</ele><time>2026-04-28T14:00:43.024Z</time></trkpt><trkpt lat="38.3560792" lon="22.2586861"><ele>17.0</ele><time>2026-04-28T14:00:44.023Z</time></trkpt><trkpt lat="38.3562128" lon="22.258558"><ele>11.0</ele><time>2026-04-28T14:00:45.023Z</time></trkpt><trkpt lat="38.356348" lon="22.258427"><ele>9.333333333333332</ele><time>2026-04-28T14:00:46.024Z</time></trkpt><trkpt lat="38.3564851" lon="22.2582951"><ele>7.666666666666666</ele><time>2026-04-28T14:00:47.024Z</time></trkpt><trkpt lat="38.3566233" lon="22.2581632"><ele>6.0</ele><time>2026-04-28T14:00:48.023Z</time></trkpt><trkpt lat="38.3567615" lon="22.2580283"><ele>6.0</ele><time>2026-04-28T14:00:49.023Z</time></trkpt><trkpt lat="38.3569007" lon="22.2578888"><ele>6.0</ele><time>2026-04-28T14:00:50.023Z</time></trkpt><trkpt lat="38.3570449" lon="22.2577497"><ele>6.0</ele><time>2026-04-28T14:00:51.024Z</time></trkpt><trkpt lat="38.3571861" lon="22.2576147"><ele>7.333333333333334</ele><time>2026-04-28T14:00:52.023Z</time></trkpt><trkpt lat="38.3573309" lon="22.2574774"><ele>8.666666666666668</ele><time>2026-04-28T14:00:53.024Z</time></trkpt><trkpt lat="38.3574787" lon="22.2573368"><ele>10.0</ele><time>2026-04-28T14:00:54.023Z</time></trkpt><trkpt lat="38.357629" lon="22.2571941"><ele>10.0</ele><time>2026-04-28T14:00:55.024Z</time></trkpt><trkpt lat="38.357784" lon="22.257049"><ele>10.0</ele><time>2026-04-28T14:00:56.024Z</time></trkpt><trkpt lat="38.3579395" lon="22.2568978"><ele>10.0</ele><time>2026-04-28T14:00:57.024Z</time></trkpt><trkpt lat="38.3580998" lon="22.2567457"><ele>9.0</ele><time>2026-04-28T14:00:58.023Z</time></trkpt><trkpt lat="38.3582634" lon="22.2565936"><ele>8.0</ele><time>2026-04-28T14:00:59.023Z</time></trkpt><trkpt lat="38.3584242" lon="22.2564394"><ele>7.0</ele><time>2026-04-28T14:01:00.024Z</time></trkpt><trkpt lat="38.3585814" lon="22.2562853"><ele>7.0</ele><time>2026-04-28T14:01:01.023Z</time></trkpt><trkpt lat="38.3587322" lon="22.2561356"><ele>7.0</ele><time>2026-04-28T14:01:02.023Z</time></trkpt><trkpt lat="38.3588778" lon="22.2559897"><ele>7.0</ele><time>2026-04-28T14:01:03.024Z</time></trkpt><trkpt lat="38.3590228" lon="22.2558509"><ele>5.0</ele><time>2026-04-28T14:01:04.024Z</time></trkpt><trkpt lat="38.3591676" lon="22.2557128"><ele>3.0</ele><time>2026-04-28T14:01:05.023Z</time></trkpt><trkpt lat="38.3593119" lon="22.2555801"><ele>1.0</ele><time>2026-04-28T14:01:06.024Z</time></trkpt><trkpt lat="38.3594587" lon="22.2554585"><ele>1.0</ele><time>2026-04-28T14:01:07.023Z</time></trkpt><trkpt lat="38.3596076" lon="22.2553531"><ele>1.0</ele><time>2026-04-28T14:01:08.024Z</time></trkpt><trkpt lat="38.3597601" lon="22.2552649"><ele>1.0</ele><time>2026-04-28T14:01:09.023Z</time></trkpt><trkpt lat="38.3599207" lon="22.2551956"><ele>2.6666666666666665</ele><time>2026-04-28T14:01:10.023Z</time></trkpt><trkpt lat="38.3600911" lon="22.2551478"><ele>4.333333333333333</ele><time>2026-04-28T14:01:11.023Z</time></trkpt><trkpt lat="38.3602723" lon="22.255104"><ele>6.0</ele><time>2026-04-28T14:01:12.023Z</time></trkpt><trkpt lat="38.3604508" lon="22.2550623"><ele>6.666666666666666</ele><time>2026-04-28T14:01:13.024Z</time></trkpt><trkpt lat="38.3606321" lon="22.2550224"><ele>7.333333333333333</ele><time>2026-04-28T14:01:14.024Z</time></trkpt><trkpt lat="38.3608124" lon="22.2549777"><ele>8.0</ele><time>2026-04-28T14:01:15.023Z</time></trkpt><trkpt lat="38.3609913" lon="22.2549348"><ele>8.0</ele><time>2026-04-28T14:01:16.024Z</time></trkpt><trkpt lat="38.3611677" lon="22.2548994"><ele>8.0</ele><time>2026-04-28T14:01:17.023Z</time></trkpt><trkpt lat="38.3613405" lon="22.2548621"><ele>8.0</ele><time>2026-04-28T14:01:18.024Z</time></trkpt><trkpt lat="38.361513" lon="22.2548221"><ele>6.0</ele><time>2026-04-28T14:01:19.024Z</time></trkpt><trkpt lat="38.3616852" lon="22.2547611"><ele>4.0</ele><time>2026-04-28T14:01:20.024Z</time></trkpt><trkpt lat="38.3618562" lon="22.2546878"><ele>2.0</ele><time>2026-04-28T14:01:21.023Z</time></trkpt><trkpt lat="38.3620238" lon="22.2545976"><ele>2.0</ele><time>2026-04-28T14:01:22.024Z</time></trkpt><trkpt lat="38.3621844" lon="22.2544917"><ele>2.0</ele><time>2026-04-28T14:01:23.022Z</time></trkpt><trkpt lat="38.3623376" lon="22.2543677"><ele>2.0</ele><time>2026-04-28T14:01:24.023Z</time></trkpt><trkpt lat="38.3624804" lon="22.2542257"><ele>3.0</ele><time>2026-04-28T14:01:25.023Z</time></trkpt><trkpt lat="38.3626131" lon="22.2540656"><ele>4.0</ele><time>2026-04-28T14:01:26.021Z</time></trkpt><trkpt lat="38.3627367" lon="22.2538877"><ele>5.0</ele><time>2026-04-28T14:01:27.024Z</time></trkpt><trkpt lat="38.3628519" lon="22.2536903"><ele>5.0</ele><time>2026-04-28T14:01:28.023Z</time></trkpt><trkpt lat="38.3629586" lon="22.2534889"><ele>5.0</ele><time>2026-04-28T14:01:29.023Z</time></trkpt><trkpt lat="38.3630612" lon="22.2532859"><ele>5.0</ele><time>2026-04-28T14:01:30.023Z</time></trkpt><trkpt lat="38.3631617" lon="22.2530834"><ele>5.666666666666667</ele><time>2026-04-28T14:01:31.023Z</time></trkpt><trkpt lat="38.3632618" lon="22.2528894"><ele>6.333333333333334</ele><time>2026-04-28T14:01:32.023Z</time></trkpt><trkpt lat="38.3633607" lon="22.2526981"><ele>7.0</ele><time>2026-04-28T14:01:33.024Z</time></trkpt><trkpt lat="38.3634572" lon="22.2525053"><ele>7.0</ele><time>2026-04-28T14:01:34.024Z</time></trkpt><trkpt lat="38.3635544" lon="22.2523128"><ele>7.0</ele><time>2026-04-28T14:01:35.024Z</time></trkpt><trkpt lat="38.3636527" lon="22.2521203"><ele>7.0</ele><time>2026-04-28T14:01:36.024Z</time></trkpt><trkpt lat="38.3637513" lon="22.251928"><ele>7.0</ele><time>2026-04-28T14:01:37.024Z</time></trkpt><trkpt lat="38.3638473" lon="22.2517333"><ele>7.0</ele><time>2026-04-28T14:01:38.024Z</time></trkpt><trkpt lat="38.3639449" lon="22.2515322"><ele>7.0</ele><time>2026-04-28T14:01:39.024Z</time></trkpt><trkpt lat="38.3640458" lon="22.2513305"><ele>7.0</ele><time>2026-04-28T14:01:40.023Z</time></trkpt><trkpt lat="38.3641489" lon="22.2511251"><ele>7.0</ele><time>2026-04-28T14:01:41.023Z</time></trkpt><trkpt lat="38.3642497" lon="22.2509176"><ele>7.0</ele><time>2026-04-28T14:01:42.023Z</time></trkpt><trkpt lat="38.3643507" lon="22.25071"><ele>6.333333333333334</ele><time>2026-04-28T14:01:43.023Z</time></trkpt><trkpt lat="38.3644492" lon="22.2504969"><ele>5.666666666666667</ele><time>2026-04-28T14:01:44.023Z</time></trkpt><trkpt lat="38.3645517" lon="22.2502876"><ele>5.0</ele><time>2026-04-28T14:01:45.023Z</time></trkpt><trkpt lat="38.3646548" lon="22.2500778"><ele>5.333333333333334</ele><time>2026-04-28T14:01:46.024Z</time></trkpt><trkpt lat="38.3647574" lon="22.2498689"><ele>5.666666666666667</ele><time>2026-04-28T14:01:47.023Z</time></trkpt><trkpt lat="38.3648588" lon="22.2496662"><ele>6.0</ele><time>2026-04-28T14:01:48.024Z</time></trkpt><trkpt lat="38.3649573" lon="22.2494637"><ele>6.333333333333334</ele><time>2026-04-28T14:01:49.024Z</time></trkpt><trkpt lat="38.3650548" lon="22.2492653"><ele>6.666666666666667</ele><time>2026-04-28T14:01:50.024Z</time></trkpt><trkpt lat="38.3651516" lon="22.2490711"><ele>7.0</ele><time>2026-04-28T14:01:51.024Z</time></trkpt><trkpt lat="38.365246" lon="22.2488812"><ele>7.0</ele><time>2026-04-28T14:01:52.023Z</time></trkpt><trkpt lat="38.3653395" lon="22.2486933"><ele>7.0</ele><time>2026-04-28T14:01:53.024Z</time></trkpt><trkpt lat="38.3654291" lon="22.2485042"><ele>7.0</ele><time>2026-04-28T14:01:54.023Z</time></trkpt><trkpt lat="38.3655062" lon="22.2483098"><ele>8.666666666666668</ele><time>2026-04-28T14:01:55.024Z</time></trkpt><trkpt lat="38.36557" lon="22.2481194"><ele>10.333333333333334</ele><time>2026-04-28T14:01:56.024Z</time></trkpt><trkpt lat="38.3656211" lon="22.2479228"><ele>12.0</ele><time>2026-04-28T14:01:57.023Z</time></trkpt><trkpt lat="38.3656551" lon="22.2477427"><ele>12.0</ele><time>2026-04-28T14:01:58.024Z</time></trkpt><trkpt lat="38.3656761" lon="22.2475794"><ele>12.0</ele><time>2026-04-28T14:01:59.024Z</time></trkpt><trkpt lat="38.3656835" lon="22.2474139"><ele>12.0</ele><time>2026-04-28T14:02:00.024Z</time></trkpt><trkpt lat="38.3656737" lon="22.2472427"><ele>12.0</ele><time>2026-04-28T14:02:01.023Z</time></trkpt><trkpt lat="38.3656486" lon="22.2470601"><ele>11.333333333333334</ele><time>2026-04-28T14:02:02.024Z</time></trkpt><trkpt lat="38.3656017" lon="22.2468716"><ele>10.666666666666668</ele><time>2026-04-28T14:02:03.024Z</time></trkpt><trkpt lat="38.3655329" lon="22.2466819"><ele>10.0</ele><time>2026-04-28T14:02:04.024Z</time></trkpt><trkpt lat="38.3654458" lon="22.2465018"><ele>11.0</ele><time>2026-04-28T14:02:05.024Z</time></trkpt><trkpt lat="38.3653365" lon="22.246328"><ele>12.0</ele><time>2026-04-28T14:02:06.023Z</time></trkpt><trkpt lat="38.3652059" lon="22.2461722"><ele>13.0</ele><time>2026-04-28T14:02:07.024Z</time></trkpt><trkpt lat="38.3650591" lon="22.2460295"><ele>13.0</ele><time>2026-04-28T14:02:08.024Z</time></trkpt><trkpt lat="38.3649075" lon="22.2459024"><ele>13.0</ele><time>2026-04-28T14:02:09.023Z</time></trkpt><trkpt lat="38.3647542" lon="22.2457845"><ele>13.0</ele><time>2026-04-28T14:02:10.023Z</time></trkpt><trkpt lat="38.3646049" lon="22.2456728"><ele>14.666666666666666</ele><time>2026-04-28T14:02:11.023Z</time></trkpt><trkpt lat="38.364454" lon="22.2455622"><ele>16.333333333333332</ele><time>2026-04-28T14:02:12.023Z</time></trkpt><trkpt lat="38.3643043" lon="22.2454494"><ele>18.0</ele><time>2026-04-28T14:02:13.023Z</time></trkpt><trkpt lat="38.364148" lon="22.245337"><ele>18.0</ele><time>2026-04-28T14:02:14.024Z</time></trkpt><trkpt lat="38.3639929" lon="22.2452229"><ele>18.0</ele><time>2026-04-28T14:02:15.024Z</time></trkpt><trkpt lat="38.3638395" lon="22.2451087"><ele>18.0</ele><time>2026-04-28T14:02:16.024Z</time></trkpt><trkpt lat="38.3636866" lon="22.2449948"><ele>17.666666666666668</ele><time>2026-04-28T14:02:17.023Z</time></trkpt><trkpt lat="38.3635334" lon="22.2448803"><ele>17.333333333333336</ele><time>2026-04-28T14:02:18.024Z</time></trkpt><trkpt lat="38.3633824" lon="22.2447717"><ele>17.0</ele><time>2026-04-28T14:02:19.023Z</time></trkpt><trkpt lat="38.3632279" lon="22.2446551"><ele>20.666666666666668</ele><time>2026-04-28T14:02:20.023Z</time></trkpt><trkpt lat="38.363067" lon="22.2445298"><ele>24.333333333333336</ele><time>2026-04-28T14:02:21.023Z</time></trkpt><trkpt lat="38.3629153" lon="22.2443799"><ele>28.0</ele><time>2026-04-28T14:02:22.024Z</time></trkpt><trkpt lat="38.3627701" lon="22.2441999"><ele>28.0</ele><time>2026-04-28T14:02:23.024Z</time></trkpt><trkpt lat="38.3626234" lon="22.2439901"><ele>28.0</ele><time>2026-04-28T14:02:24.024Z</time></trkpt><trkpt lat="38.3624771" lon="22.2437636"><ele>25.5</ele><time>2026-04-28T14:02:25.023Z</time></trkpt><trkpt lat="38.3623336" lon="22.2435422"><ele>23.0</ele><time>2026-04-28T14:02:26.023Z</time></trkpt><trkpt lat="38.3621886" lon="22.2433199"><ele>27.333333333333336</ele><time>2026-04-28T14:02:27.023Z</time></trkpt><trkpt lat="38.362044" lon="22.2430989"><ele>31.666666666666668</ele><time>2026-04-28T14:02:28.024Z</time></trkpt><trkpt lat="38.361906" lon="22.2428801"><ele>36.0</ele><time>2026-04-28T14:02:29.023Z</time></trkpt><trkpt lat="38.3617658" lon="22.2426715"><ele>36.0</ele><time>2026-04-28T14:02:30.024Z</time></trkpt><trkpt lat="38.3616304" lon="22.2424652"><ele>36.0</ele><time>2026-04-28T14:02:31.024Z</time></trkpt><trkpt lat="38.3614965" lon="22.2422638"><ele>36.0</ele><time>2026-04-28T14:02:32.024Z</time></trkpt><trkpt lat="38.3613697" lon="22.2420687"><ele>37.666666666666664</ele><time>2026-04-28T14:02:33.023Z</time></trkpt><trkpt lat="38.3612464" lon="22.2418794"><ele>39.33333333333333</ele><time>2026-04-28T14:02:34.023Z</time></trkpt><trkpt lat="38.3611257" lon="22.2416979"><ele>41.0</ele><time>2026-04-28T14:02:35.023Z</time></trkpt><trkpt lat="38.3610089" lon="22.2415183"><ele>45.0</ele><time>2026-04-28T14:02:36.024Z</time></trkpt><trkpt lat="38.3608941" lon="22.2413427"><ele>49.0</ele><time>2026-04-28T14:02:37.024Z</time></trkpt><trkpt lat="38.3607731" lon="22.2411744"><ele>53.0</ele><time>2026-04-28T14:02:38.024Z</time></trkpt><trkpt lat="38.3606431" lon="22.2410167"><ele>50.0</ele><time>2026-04-28T14:02:39.024Z</time></trkpt><trkpt lat="38.3605082" lon="22.2408813"><ele>47.0</ele><time>2026-04-28T14:02:40.024Z</time></trkpt><trkpt lat="38.3603521" lon="22.2407688"><ele>44.0</ele><time>2026-04-28T14:02:41.024Z</time></trkpt><trkpt lat="38.3601776" lon="22.2406888"><ele>51.0</ele><time>2026-04-28T14:02:42.024Z</time></trkpt><trkpt lat="38.3599954" lon="22.2406322"><ele>58.0</ele><time>2026-04-28T14:02:43.024Z</time></trkpt><trkpt lat="38.3598081" lon="22.2405897"><ele>65.0</ele><time>2026-04-28T14:02:44.024Z</time></trkpt><trkpt lat="38.3596273" lon="22.2405698"><ele>65.0</ele><time>2026-04-28T14:02:45.024Z</time></trkpt><trkpt lat="38.3594546" lon="22.2405556"><ele>65.0</ele><time>2026-04-28T14:02:46.023Z</time></trkpt><trkpt lat="38.3592958" lon="22.2405471"><ele>65.0</ele><time>2026-04-28T14:02:47.023Z</time></trkpt><trkpt lat="38.3591354" lon="22.2405265"><ele>65.0</ele><time>2026-04-28T14:02:48.023Z</time></trkpt><trkpt lat="38.3589853" lon="22.2404987"><ele>65.0</ele><time>2026-04-28T14:02:49.023Z</time></trkpt><trkpt lat="38.3588454" lon="22.2404477"><ele>65.0</ele><time>2026-04-28T14:02:50.023Z</time></trkpt><trkpt lat="38.3587206" lon="22.2403681"><ele>65.0</ele><time>2026-04-28T14:02:51.023Z</time></trkpt><trkpt lat="38.3586133" lon="22.2402611"><ele>64.33333333333334</ele><time>2026-04-28T14:02:52.023Z</time></trkpt><trkpt lat="38.3585636" lon="22.2400999"><ele>63.66666666666667</ele><time>2026-04-28T14:02:53.024Z</time></trkpt><trkpt lat="38.3585201" lon="22.2399194"><ele>63.0</ele><time>2026-04-28T14:02:54.024Z</time></trkpt><trkpt lat="38.3585266" lon="22.239706"><ele>63.0</ele><time>2026-04-28T14:02:55.023Z</time></trkpt><trkpt lat="38.3585671" lon="22.2394955"><ele>63.0</ele><time>2026-04-28T14:02:56.023Z</time></trkpt><trkpt lat="38.3585998" lon="22.2392892"><ele>63.0</ele><time>2026-04-28T14:02:57.023Z</time></trkpt><trkpt lat="38.3586346" lon="22.2390818"><ele>57.333333333333336</ele><time>2026-04-28T14:02:58.023Z</time></trkpt><trkpt lat="38.3586701" lon="22.2388766"><ele>51.66666666666667</ele><time>2026-04-28T14:02:59.024Z</time></trkpt><trkpt lat="38.3587144" lon="22.2386704"><ele>46.0</ele><time>2026-04-28T14:03:00.022Z</time></trkpt><trkpt lat="38.3587689" lon="22.238469"><ele>46.0</ele><time>2026-04-28T14:03:01.023Z</time></trkpt><trkpt lat="38.3588408" lon="22.2382768"><ele>46.0</ele><time>2026-04-28T14:03:02.023Z</time></trkpt><trkpt lat="38.3589346" lon="22.2380935"><ele>46.0</ele><time>2026-04-28T14:03:03.023Z</time></trkpt><trkpt lat="38.3590504" lon="22.2379377"><ele>45.333333333333336</ele><time>2026-04-28T14:03:04.024Z</time></trkpt><trkpt lat="38.3591921" lon="22.2378076"><ele>44.666666666666664</ele><time>2026-04-28T14:03:05.023Z</time></trkpt><trkpt lat="38.3593329" lon="22.2376917"><ele>44.0</ele><time>2026-04-28T14:03:06.024Z</time></trkpt><trkpt lat="38.3594752" lon="22.2375923"><ele>44.0</ele><time>2026-04-28T14:03:07.023Z</time></trkpt><trkpt lat="38.359613" lon="22.2375046"><ele>44.0</ele><time>2026-04-28T14:03:08.023Z</time></trkpt><trkpt lat="38.3597471" lon="22.2374207"><ele>44.0</ele><time>2026-04-28T14:03:09.024Z</time></trkpt><trkpt lat="38.3598795" lon="22.2373323"><ele>41.75</ele><time>2026-04-28T14:03:10.024Z</time></trkpt><trkpt lat="38.3600095" lon="22.2372423"><ele>39.5</ele><time>2026-04-28T14:03:11.023Z</time></trkpt><trkpt lat="38.3601339" lon="22.2371592"><ele>37.25</ele><time>2026-04-28T14:03:12.023Z</time></trkpt><trkpt lat="38.3602562" lon="22.2370826"><ele>35.0</ele><time>2026-04-28T14:03:13.023Z</time></trkpt><trkpt lat="38.3603741" lon="22.2370055"><ele>35.0</ele><time>2026-04-28T14:03:14.024Z</time></trkpt><trkpt lat="38.3604887" lon="22.2369304"><ele>35.0</ele><time>2026-04-28T14:03:15.024Z</time></trkpt><trkpt lat="38.3606006" lon="22.2368549"><ele>35.0</ele><time>2026-04-28T14:03:16.023Z</time></trkpt><trkpt lat="38.3607018" lon="22.2367711"><ele>35.0</ele><time>2026-04-28T14:03:17.024Z</time></trkpt><trkpt lat="38.3607929" lon="22.2366756"><ele>35.0</ele><time>2026-04-28T14:03:18.023Z</time></trkpt><trkpt lat="38.3608719" lon="22.2365624"><ele>35.0</ele><time>2026-04-28T14:03:19.023Z</time></trkpt><trkpt lat="38.3609384" lon="22.2364266"><ele>35.0</ele><time>2026-04-28T14:03:20.023Z</time></trkpt><trkpt lat="38.3609911" lon="22.2362827"><ele>35.0</ele><time>2026-04-28T14:03:21.024Z</time></trkpt><trkpt lat="38.361035" lon="22.2361204"><ele>35.0</ele><time>2026-04-28T14:03:22.024Z</time></trkpt><trkpt lat="38.3610686" lon="22.235951"><ele>35.0</ele><time>2026-04-28T14:03:23.024Z</time></trkpt><trkpt lat="38.3610814" lon="22.2357845"><ele>35.0</ele><time>2026-04-28T14:03:24.023Z</time></trkpt><trkpt lat="38.3610755" lon="22.2356156"><ele>35.0</ele><time>2026-04-28T14:03:25.023Z</time></trkpt><trkpt lat="38.3610513" lon="22.2354616"><ele>36.0</ele><time>2026-04-28T14:03:26.023Z</time></trkpt><trkpt lat="38.3610131" lon="22.2353174"><ele>37.0</ele><time>2026-04-28T14:03:27.024Z</time></trkpt><trkpt lat="38.3609674" lon="22.2351777"><ele>38.0</ele><time>2026-04-28T14:03:28.023Z</time></trkpt><trkpt lat="38.3609213" lon="22.2350291"><ele>39.0</ele><time>2026-04-28T14:03:29.024Z</time></trkpt><trkpt lat="38.3608761" lon="22.2348731"><ele>41.5</ele><time>2026-04-28T14:03:30.024Z</time></trkpt><trkpt lat="38.3608371" lon="22.2347035"><ele>44.0</ele><time>2026-04-28T14:03:31.023Z</time></trkpt><trkpt lat="38.3608004" lon="22.2345275"><ele>46.5</ele><time>2026-04-28T14:03:32.024Z</time></trkpt><trkpt lat="38.3607731" lon="22.2343535"><ele>49.0</ele><time>2026-04-28T14:03:33.023Z</time></trkpt><trkpt lat="38.3607602" lon="22.2341679"><ele>49.0</ele><time>2026-04-28T14:03:34.021Z</time></trkpt><trkpt lat="38.360761" lon="22.2339811"><ele>49.0</ele><time>2026-04-28T14:03:35.023Z</time></trkpt><trkpt lat="38.3607703" lon="22.2338047"><ele>49.0</ele><time>2026-04-28T14:03:36.023Z</time></trkpt><trkpt lat="38.3607821" lon="22.2336286"><ele>49.0</ele><time>2026-04-28T14:03:37.023Z</time></trkpt><trkpt lat="38.3607871" lon="22.233452"><ele>49.75</ele><time>2026-04-28T14:03:38.023Z</time></trkpt><trkpt lat="38.3607914" lon="22.2332762"><ele>50.5</ele><time>2026-04-28T14:03:39.023Z</time></trkpt><trkpt lat="38.3608033" lon="22.2331032"><ele>51.25</ele><time>2026-04-28T14:03:40.022Z</time></trkpt><trkpt lat="38.3608206" lon="22.2329338"><ele>52.0</ele><time>2026-04-28T14:03:41.022Z</time></trkpt><trkpt lat="38.360832" lon="22.2327715"><ele>48.0</ele><time>2026-04-28T14:03:42.023Z</time></trkpt><trkpt lat="38.3608429" lon="22.2326066"><ele>44.0</ele><time>2026-04-28T14:03:43.023Z</time></trkpt><trkpt lat="38.3608504" lon="22.2324416"><ele>40.0</ele><time>2026-04-28T14:03:44.023Z</time></trkpt><trkpt lat="38.3608556" lon="22.2322714"><ele>36.0</ele><time>2026-04-28T14:03:45.024Z</time></trkpt><trkpt lat="38.3608629" lon="22.2320945"><ele>33.75</ele><time>2026-04-28T14:03:46.023Z</time></trkpt><trkpt lat="38.3608717" lon="22.2319185"><ele>31.5</ele><time>2026-04-28T14:03:47.024Z</time></trkpt><trkpt lat="38.3608803" lon="22.2317396"><ele>29.25</ele><time>2026-04-28T14:03:48.024Z</time></trkpt><trkpt lat="38.3608898" lon="22.2315599"><ele>27.0</ele><time>2026-04-28T14:03:49.023Z</time></trkpt><trkpt lat="38.360899" lon="22.231389"><ele>27.0</ele><time>2026-04-28T14:03:50.024Z</time></trkpt><trkpt lat="38.3609068" lon="22.2312228"><ele>27.0</ele><time>2026-04-28T14:03:51.023Z</time></trkpt><trkpt lat="38.3609132" lon="22.2310585"><ele>27.0</ele><time>2026-04-28T14:03:52.024Z</time></trkpt><trkpt lat="38.3609249" lon="22.2308966"><ele>27.0</ele><time>2026-04-28T14:03:53.023Z</time></trkpt><trkpt lat="38.3609557" lon="22.2307377"><ele>27.25</ele><time>2026-04-28T14:03:54.023Z</time></trkpt><trkpt lat="38.3609962" lon="22.2305792"><ele>27.5</ele><time>2026-04-28T14:03:55.023Z</time></trkpt><trkpt lat="38.3610646" lon="22.2304242"><ele>27.75</ele><time>2026-04-28T14:03:56.023Z</time></trkpt><trkpt lat="38.3611457" lon="22.2302792"><ele>28.0</ele><time>2026-04-28T14:03:57.023Z</time></trkpt><trkpt lat="38.3612462" lon="22.2301548"><ele>28.0</ele><time>2026-04-28T14:03:58.022Z</time></trkpt><trkpt lat="38.3613512" lon="22.230047"><ele>28.0</ele><time>2026-04-28T14:03:59.024Z</time></trkpt><trkpt lat="38.3614816" lon="22.229968"><ele>28.0</ele><time>2026-04-28T14:04:00.024Z</time></trkpt><trkpt lat="38.3616262" lon="22.2299098"><ele>28.0</ele><time>2026-04-28T14:04:01.024Z</time></trkpt><trkpt lat="38.3617853" lon="22.2298707"><ele>30.666666666666668</ele><time>2026-04-28T14:04:02.023Z</time></trkpt><trkpt lat="38.3619413" lon="22.2298502"><ele>33.333333333333336</ele><time>2026-04-28T14:04:03.023Z</time></trkpt><trkpt lat="38.3621124" lon="22.2298356"><ele>36.0</ele><time>2026-04-28T14:04:04.023Z</time></trkpt><trkpt lat="38.3622943" lon="22.2298224"><ele>30.333333333333332</ele><time>2026-04-28T14:04:05.023Z</time></trkpt><trkpt lat="38.3624939" lon="22.2297979"><ele>24.666666666666664</ele><time>2026-04-28T14:04:06.023Z</time></trkpt><trkpt lat="38.3627081" lon="22.2297707"><ele>19.0</ele><time>2026-04-28T14:04:07.022Z</time></trkpt><trkpt lat="38.362914" lon="22.2297535"><ele>18.333333333333332</ele><time>2026-04-28T14:04:08.024Z</time></trkpt><trkpt lat="38.3631236" lon="22.2297303"><ele>17.666666666666668</ele><time>2026-04-28T14:04:09.024Z</time></trkpt><trkpt lat="38.3633347" lon="22.2297142"><ele>17.0</ele><time>2026-04-28T14:04:10.024Z</time></trkpt><trkpt lat="38.3635423" lon="22.2297027"><ele>17.0</ele><time>2026-04-28T14:04:11.023Z</time></trkpt><trkpt lat="38.3637461" lon="22.2296906"><ele>17.0</ele><time>2026-04-28T14:04:12.023Z</time></trkpt><trkpt lat="38.3639486" lon="22.2296795"><ele>17.0</ele><time>2026-04-28T14:04:13.024Z</time></trkpt><trkpt lat="38.3641483" lon="22.2296669"><ele>18.333333333333336</ele><time>2026-04-28T14:04:14.023Z</time></trkpt><trkpt lat="38.36435" lon="22.2296468"><ele>19.666666666666668</ele><time>2026-04-28T14:04:15.024Z</time></trkpt><trkpt lat="38.3645459" lon="22.2296403"><ele>21.0</ele><time>2026-04-28T14:04:16.023Z</time></trkpt><trkpt lat="38.3647388" lon="22.229626"><ele>22.0</ele><time>2026-04-28T14:04:17.023Z</time></trkpt><trkpt lat="38.3649319" lon="22.2295939"><ele>23.0</ele><time>2026-04-28T14:04:18.023Z</time></trkpt><trkpt lat="38.3651192" lon="22.2295464"><ele>24.0</ele><time>2026-04-28T14:04:19.024Z</time></trkpt><trkpt lat="38.3653004" lon="22.2294745"><ele>24.0</ele><time>2026-04-28T14:04:20.024Z</time></trkpt><trkpt lat="38.3654792" lon="22.229374"><ele>24.0</ele><time>2026-04-28T14:04:21.024Z</time></trkpt><trkpt lat="38.365636" lon="22.2292425"><ele>24.0</ele><time>2026-04-28T14:04:22.024Z</time></trkpt><trkpt lat="38.3657747" lon="22.2290763"><ele>22.0</ele><time>2026-04-28T14:04:23.024Z</time></trkpt><trkpt lat="38.3658959" lon="22.2288849"><ele>20.0</ele><time>2026-04-28T14:04:24.023Z</time></trkpt><trkpt lat="38.3659993" lon="22.2286736"><ele>18.0</ele><time>2026-04-28T14:04:25.023Z</time></trkpt><trkpt lat="38.3660817" lon="22.2284427"><ele>18.0</ele><time>2026-04-28T14:04:26.023Z</time></trkpt><trkpt lat="38.3661442" lon="22.2282002"><ele>18.0</ele><time>2026-04-28T14:04:27.023Z</time></trkpt><trkpt lat="38.3661902" lon="22.2279518"><ele>18.0</ele><time>2026-04-28T14:04:28.023Z</time></trkpt><trkpt lat="38.3662308" lon="22.227701"><ele>18.0</ele><time>2026-04-28T14:04:29.024Z</time></trkpt><trkpt lat="38.3662662" lon="22.227451"><ele>18.0</ele><time>2026-04-28T14:04:30.023Z</time></trkpt><trkpt lat="38.3663005" lon="22.2272037"><ele>18.0</ele><time>2026-04-28T14:04:31.022Z</time></trkpt><trkpt lat="38.3663353" lon="22.2269597"><ele>18.0</ele><time>2026-04-28T14:04:32.024Z</time></trkpt><trkpt lat="38.3663695" lon="22.2267177"><ele>18.0</ele><time>2026-04-28T14:04:33.023Z</time></trkpt><trkpt lat="38.3663985" lon="22.2264823"><ele>18.0</ele><time>2026-04-28T14:04:34.024Z</time></trkpt><trkpt lat="38.3664152" lon="22.2262461"><ele>18.0</ele><time>2026-04-28T14:04:35.024Z</time></trkpt><trkpt lat="38.3664104" lon="22.2260063"><ele>18.0</ele><time>2026-04-28T14:04:36.023Z</time></trkpt><trkpt lat="38.3663825" lon="22.2257671"><ele>18.0</ele><time>2026-04-28T14:04:37.023Z</time></trkpt><trkpt lat="38.3663348" lon="22.2255258"><ele>16.333333333333332</ele><time>2026-04-28T14:04:38.023Z</time></trkpt><trkpt lat="38.36627" lon="22.2252949"><ele>14.666666666666666</ele><time>2026-04-28T14:04:39.023Z</time></trkpt><trkpt lat="38.3661885" lon="22.2250688"><ele>13.0</ele><time>2026-04-28T14:04:40.023Z</time></trkpt><trkpt lat="38.3660907" lon="22.2248516"><ele>12.666666666666666</ele><time>2026-04-28T14:04:41.022Z</time></trkpt><trkpt lat="38.3659746" lon="22.2246516"><ele>12.333333333333332</ele><time>2026-04-28T14:04:42.024Z</time></trkpt><trkpt lat="38.3658449" lon="22.2244677"><ele>12.0</ele><time>2026-04-28T14:04:43.023Z</time></trkpt><trkpt lat="38.3656956" lon="22.2242881"><ele>12.0</ele><time>2026-04-28T14:04:44.023Z</time></trkpt><trkpt lat="38.3655362" lon="22.224115"><ele>12.0</ele><time>2026-04-28T14:04:45.023Z</time></trkpt><trkpt lat="38.3653734" lon="22.2239413"><ele>12.0</ele><time>2026-04-28T14:04:46.023Z</time></trkpt><trkpt lat="38.3652065" lon="22.2237683"><ele>11.333333333333334</ele><time>2026-04-28T14:04:47.024Z</time></trkpt><trkpt lat="38.3650375" lon="22.2235883"><ele>10.666666666666668</ele><time>2026-04-28T14:04:48.024Z</time></trkpt><trkpt lat="38.3648694" lon="22.2234062"><ele>10.0</ele><time>2026-04-28T14:04:49.023Z</time></trkpt><trkpt lat="38.3647013" lon="22.2232272"><ele>9.0</ele><time>2026-04-28T14:04:50.024Z</time></trkpt><trkpt lat="38.3645335" lon="22.2230444"><ele>8.0</ele><time>2026-04-28T14:04:51.022Z</time></trkpt><trkpt lat="38.3643656" lon="22.2228592"><ele>7.0</ele><time>2026-04-28T14:04:52.023Z</time></trkpt><trkpt lat="38.3641954" lon="22.2226793"><ele>7.0</ele><time>2026-04-28T14:04:53.024Z</time></trkpt><trkpt lat="38.3640296" lon="22.2224994"><ele>7.0</ele><time>2026-04-28T14:04:54.024Z</time></trkpt><trkpt lat="38.3638639" lon="22.2223212"><ele>7.0</ele><time>2026-04-28T14:04:55.023Z</time></trkpt><trkpt lat="38.3636979" lon="22.2221407"><ele>6.333333333333334</ele><time>2026-04-28T14:04:56.023Z</time></trkpt><trkpt lat="38.3635343" lon="22.2219586"><ele>5.666666666666667</ele><time>2026-04-28T14:04:57.023Z</time></trkpt><trkpt lat="38.3633705" lon="22.2217761"><ele>5.0</ele><time>2026-04-28T14:04:58.024Z</time></trkpt><trkpt lat="38.3632073" lon="22.2215947"><ele>6.0</ele><time>2026-04-28T14:04:59.023Z</time></trkpt><trkpt lat="38.3630467" lon="22.2214086"><ele>7.0</ele><time>2026-04-28T14:05:00.024Z</time></trkpt><trkpt lat="38.3628876" lon="22.2212234"><ele>8.0</ele><time>2026-04-28T14:05:01.022Z</time></trkpt><trkpt lat="38.3627316" lon="22.221034"><ele>8.0</ele><time>2026-04-28T14:05:02.023Z</time></trkpt><trkpt lat="38.3625782" lon="22.2208462"><ele>8.0</ele><time>2026-04-28T14:05:03.024Z</time></trkpt><trkpt lat="38.3624209" lon="22.220659"><ele>8.0</ele><time>2026-04-28T14:05:04.024Z</time></trkpt><trkpt lat="38.3622659" lon="22.2204721"><ele>8.0</ele><time>2026-04-28T14:05:05.024Z</time></trkpt><trkpt lat="38.3621092" lon="22.2202861"><ele>8.0</ele><time>2026-04-28T14:05:06.024Z</time></trkpt><trkpt lat="38.3619555" lon="22.2201007"><ele>8.0</ele><time>2026-04-28T14:05:07.024Z</time></trkpt><trkpt lat="38.3617999" lon="22.2199141"><ele>9.0</ele><time>2026-04-28T14:05:08.024Z</time></trkpt><trkpt lat="38.361639" lon="22.2197251"><ele>10.0</ele><time>2026-04-28T14:05:09.024Z</time></trkpt><trkpt lat="38.3614806" lon="22.2195317"><ele>11.0</ele><time>2026-04-28T14:05:10.024Z</time></trkpt><trkpt lat="38.3613235" lon="22.2193411"><ele>12.0</ele><time>2026-04-28T14:05:11.023Z</time></trkpt><trkpt lat="38.3611625" lon="22.2191473"><ele>13.0</ele><time>2026-04-28T14:05:12.024Z</time></trkpt><trkpt lat="38.3609998" lon="22.2189554"><ele>14.0</ele><time>2026-04-28T14:05:13.024Z</time></trkpt><trkpt lat="38.3608399" lon="22.2187624"><ele>14.0</ele><time>2026-04-28T14:05:14.023Z</time></trkpt><trkpt lat="38.3606784" lon="22.2185699"><ele>14.0</ele><time>2026-04-28T14:05:15.024Z</time></trkpt><trkpt lat="38.3605209" lon="22.2183792"><ele>14.0</ele><time>2026-04-28T14:05:16.024Z</time></trkpt><trkpt lat="38.3603616" lon="22.2181868"><ele>13.0</ele><time>2026-04-28T14:05:17.023Z</time></trkpt><trkpt lat="38.3602039" lon="22.2179983"><ele>12.0</ele><time>2026-04-28T14:05:18.024Z</time></trkpt><trkpt lat="38.3600445" lon="22.217807"><ele>11.0</ele><time>2026-04-28T14:05:19.024Z</time></trkpt><trkpt lat="38.3598862" lon="22.2176221"><ele>11.0</ele><time>2026-04-28T14:05:20.024Z</time></trkpt><trkpt lat="38.3597295" lon="22.2174374"><ele>11.0</ele><time>2026-04-28T14:05:21.023Z</time></trkpt><trkpt lat="38.3595708" lon="22.2172477"><ele>11.0</ele><time>2026-04-28T14:05:22.024Z</time></trkpt><trkpt lat="38.3594122" lon="22.2170592"><ele>11.333333333333332</ele><time>2026-04-28T14:05:23.024Z</time></trkpt><trkpt lat="38.359256" lon="22.2168695"><ele>11.666666666666666</ele><time>2026-04-28T14:05:24.024Z</time></trkpt><trkpt lat="38.3590998" lon="22.2166803"><ele>12.0</ele><time>2026-04-28T14:05:25.023Z</time></trkpt><trkpt lat="38.3589421" lon="22.2164905"><ele>11.666666666666666</ele><time>2026-04-28T14:05:26.024Z</time></trkpt><trkpt lat="38.3587858" lon="22.2163025"><ele>11.333333333333332</ele><time>2026-04-28T14:05:27.024Z</time></trkpt><trkpt lat="38.3586279" lon="22.2161169"><ele>11.0</ele><time>2026-04-28T14:05:28.024Z</time></trkpt><trkpt lat="38.3584725" lon="22.2159303"><ele>11.0</ele><time>2026-04-28T14:05:29.023Z</time></trkpt><trkpt lat="38.3583176" lon="22.2157458"><ele>11.0</ele><time>2026-04-28T14:05:30.024Z</time></trkpt><trkpt lat="38.3581644" lon="22.215558"><ele>11.0</ele><time>2026-04-28T14:05:31.023Z</time></trkpt><trkpt lat="38.3580116" lon="22.2153721"><ele>10.666666666666666</ele><time>2026-04-28T14:05:32.024Z</time></trkpt><trkpt lat="38.3578578" lon="22.2151895"><ele>10.333333333333334</ele><time>2026-04-28T14:05:33.024Z</time></trkpt><trkpt lat="38.3577036" lon="22.2150065"><ele>10.0</ele><time>2026-04-28T14:05:34.023Z</time></trkpt><trkpt lat="38.3575497" lon="22.2148262"><ele>10.333333333333334</ele><time>2026-04-28T14:05:35.024Z</time></trkpt><trkpt lat="38.3573991" lon="22.2146353"><ele>10.666666666666666</ele><time>2026-04-28T14:05:36.023Z</time></trkpt><trkpt lat="38.3572459" lon="22.2144484"><ele>11.0</ele><time>2026-04-28T14:05:37.024Z</time></trkpt><trkpt lat="38.3570949" lon="22.2142632"><ele>11.0</ele><time>2026-04-28T14:05:38.023Z</time></trkpt><trkpt lat="38.3569425" lon="22.2140785"><ele>11.0</ele><time>2026-04-28T14:05:39.023Z</time></trkpt><trkpt lat="38.35679" lon="22.2138896"><ele>11.0</ele><time>2026-04-28T14:05:40.024Z</time></trkpt><trkpt lat="38.3566375" lon="22.2137048"><ele>11.0</ele><time>2026-04-28T14:05:41.023Z</time></trkpt><trkpt lat="38.356483" lon="22.2135222"><ele>11.0</ele><time>2026-04-28T14:05:42.023Z</time></trkpt><trkpt lat="38.3563255" lon="22.2133359"><ele>11.0</ele><time>2026-04-28T14:05:43.024Z</time></trkpt><trkpt lat="38.3561752" lon="22.2131449"><ele>10.333333333333332</ele><time>2026-04-28T14:05:44.022Z</time></trkpt><trkpt lat="38.3560203" lon="22.2129642"><ele>9.666666666666666</ele><time>2026-04-28T14:05:45.023Z</time></trkpt><trkpt lat="38.3558661" lon="22.2127723"><ele>9.0</ele><time>2026-04-28T14:05:46.024Z</time></trkpt><trkpt lat="38.3557107" lon="22.2125841"><ele>9.0</ele><time>2026-04-28T14:05:47.024Z</time></trkpt><trkpt lat="38.3555541" lon="22.2123978"><ele>9.0</ele><time>2026-04-28T14:05:48.023Z</time></trkpt><trkpt lat="38.3553977" lon="22.2122087"><ele>9.0</ele><time>2026-04-28T14:05:49.023Z</time></trkpt><trkpt lat="38.3552383" lon="22.2120158"><ele>9.333333333333334</ele><time>2026-04-28T14:05:50.024Z</time></trkpt><trkpt lat="38.3550801" lon="22.2118259"><ele>9.666666666666668</ele><time>2026-04-28T14:05:51.022Z</time></trkpt><trkpt lat="38.3549189" lon="22.2116353"><ele>10.0</ele><time>2026-04-28T14:05:52.023Z</time></trkpt><trkpt lat="38.3547602" lon="22.211449"><ele>10.0</ele><time>2026-04-28T14:05:53.024Z</time></trkpt><trkpt lat="38.3546004" lon="22.2112599"><ele>10.0</ele><time>2026-04-28T14:05:54.024Z</time></trkpt><trkpt lat="38.3544418" lon="22.2110692"><ele>10.0</ele><time>2026-04-28T14:05:55.024Z</time></trkpt><trkpt lat="38.3542834" lon="22.2108714"><ele>10.0</ele><time>2026-04-28T14:05:56.024Z</time></trkpt><trkpt lat="38.3541198" lon="22.2106778"><ele>10.0</ele><time>2026-04-28T14:05:57.024Z</time></trkpt><trkpt lat="38.3539611" lon="22.2104863"><ele>10.0</ele><time>2026-04-28T14:05:58.024Z</time></trkpt><trkpt lat="38.3538006" lon="22.210294"><ele>9.666666666666668</ele><time>2026-04-28T14:05:59.024Z</time></trkpt><trkpt lat="38.3536389" lon="22.2101039"><ele>9.333333333333334</ele><time>2026-04-28T14:06:00.024Z</time></trkpt><trkpt lat="38.353479" lon="22.2099155"><ele>9.0</ele><time>2026-04-28T14:06:01.024Z</time></trkpt><trkpt lat="38.3533178" lon="22.2097235"><ele>9.0</ele><time>2026-04-28T14:06:02.024Z</time></trkpt><trkpt lat="38.3531588" lon="22.2095302"><ele>9.0</ele><time>2026-04-28T14:06:03.024Z</time></trkpt><trkpt lat="38.3530018" lon="22.2093379"><ele>9.0</ele><time>2026-04-28T14:06:04.023Z</time></trkpt><trkpt lat="38.3528443" lon="22.2091427"><ele>9.0</ele><time>2026-04-28T14:06:05.024Z</time></trkpt><trkpt lat="38.352687" lon="22.20895"><ele>9.0</ele><time>2026-04-28T14:06:06.024Z</time></trkpt><trkpt lat="38.3525284" lon="22.2087543"><ele>9.0</ele><time>2026-04-28T14:06:07.024Z</time></trkpt><trkpt lat="38.3523696" lon="22.2085637"><ele>9.0</ele><time>2026-04-28T14:06:08.024Z</time></trkpt><trkpt lat="38.3522093" lon="22.2083758"><ele>9.0</ele><time>2026-04-28T14:06:09.024Z</time></trkpt><trkpt lat="38.3520499" lon="22.2081861"><ele>9.0</ele><time>2026-04-28T14:06:10.023Z</time></trkpt><trkpt lat="38.351887" lon="22.2079918"><ele>8.666666666666666</ele><time>2026-04-28T14:06:11.024Z</time></trkpt><trkpt lat="38.3517278" lon="22.2078005"><ele>8.333333333333332</ele><time>2026-04-28T14:06:12.024Z</time></trkpt><trkpt lat="38.3515691" lon="22.2076078"><ele>8.0</ele><time>2026-04-28T14:06:13.024Z</time></trkpt><trkpt lat="38.3514075" lon="22.2074145"><ele>7.666666666666666</ele><time>2026-04-28T14:06:14.023Z</time></trkpt><trkpt lat="38.3512456" lon="22.2072217"><ele>7.333333333333334</ele><time>2026-04-28T14:06:15.024Z</time></trkpt><trkpt lat="38.3510858" lon="22.2070336"><ele>7.0</ele><time>2026-04-28T14:06:16.024Z</time></trkpt><trkpt lat="38.3509248" lon="22.2068431"><ele>7.0</ele><time>2026-04-28T14:06:17.024Z</time></trkpt><trkpt lat="38.3507682" lon="22.2066523"><ele>7.0</ele><time>2026-04-28T14:06:18.024Z</time></trkpt><trkpt lat="38.3506089" lon="22.2064619"><ele>7.0</ele><time>2026-04-28T14:06:19.023Z</time></trkpt><trkpt lat="38.3504519" lon="22.206276"><ele>7.0</ele><time>2026-04-28T14:06:20.024Z</time></trkpt><trkpt lat="38.3502959" lon="22.2060863"><ele>7.0</ele><time>2026-04-28T14:06:21.023Z</time></trkpt><trkpt lat="38.3501388" lon="22.2058996"><ele>7.0</ele><time>2026-04-28T14:06:22.023Z</time></trkpt><trkpt lat="38.3499814" lon="22.205713"><ele>6.666666666666667</ele><time>2026-04-28T14:06:23.024Z</time></trkpt><trkpt lat="38.3498315" lon="22.2055298"><ele>6.333333333333334</ele><time>2026-04-28T14:06:24.024Z</time></trkpt><trkpt lat="38.3496743" lon="22.2053394"><ele>6.0</ele><time>2026-04-28T14:06:25.024Z</time></trkpt><trkpt lat="38.3495175" lon="22.2051539"><ele>6.333333333333334</ele><time>2026-04-28T14:06:26.023Z</time></trkpt><trkpt lat="38.3493604" lon="22.2049689"><ele>6.666666666666667</ele><time>2026-04-28T14:06:27.023Z</time></trkpt><trkpt lat="38.3492038" lon="22.2047851"><ele>7.0</ele><time>2026-04-28T14:06:28.023Z</time></trkpt><trkpt lat="38.3490535" lon="22.2045983"><ele>7.0</ele><time>2026-04-28T14:06:29.024Z</time></trkpt><trkpt lat="38.3488978" lon="22.2044125"><ele>7.0</ele><time>2026-04-28T14:06:30.024Z</time></trkpt><trkpt lat="38.3487388" lon="22.2042321"><ele>7.0</ele><time>2026-04-28T14:06:31.024Z</time></trkpt><trkpt lat="38.3485803" lon="22.2040542"><ele>7.0</ele><time>2026-04-28T14:06:32.024Z</time></trkpt><trkpt lat="38.3484131" lon="22.2038825"><ele>7.0</ele><time>2026-04-28T14:06:33.023Z</time></trkpt><trkpt lat="38.3482341" lon="22.2037332"><ele>7.0</ele><time>2026-04-28T14:06:34.023Z</time></trkpt><trkpt lat="38.3480503" lon="22.2036109"><ele>6.666666666666667</ele><time>2026-04-28T14:06:35.023Z</time></trkpt><trkpt lat="38.3478527" lon="22.2035074"><ele>6.333333333333334</ele><time>2026-04-28T14:06:36.023Z</time></trkpt><trkpt lat="38.3476502" lon="22.2034274"><ele>6.0</ele><time>2026-04-28T14:06:37.023Z</time></trkpt><trkpt lat="38.3474439" lon="22.2033621"><ele>6.0</ele><time>2026-04-28T14:06:38.024Z</time></trkpt><trkpt lat="38.3472341" lon="22.2032982"><ele>6.0</ele><time>2026-04-28T14:06:39.023Z</time></trkpt><trkpt lat="38.3470243" lon="22.2032347"><ele>6.0</ele><time>2026-04-28T14:06:40.023Z</time></trkpt><trkpt lat="38.3468141" lon="22.2031748"><ele>6.666666666666666</ele><time>2026-04-28T14:06:41.024Z</time></trkpt><trkpt lat="38.3466091" lon="22.2031131"><ele>7.333333333333333</ele><time>2026-04-28T14:06:42.024Z</time></trkpt><trkpt lat="38.3464008" lon="22.2030521"><ele>8.0</ele><time>2026-04-28T14:06:43.023Z</time></trkpt><trkpt lat="38.3461913" lon="22.202991"><ele>8.333333333333332</ele><time>2026-04-28T14:06:44.023Z</time></trkpt><trkpt lat="38.3459818" lon="22.2029309"><ele>8.666666666666666</ele><time>2026-04-28T14:06:45.022Z</time></trkpt><trkpt lat="38.3457722" lon="22.2028731"><ele>9.0</ele><time>2026-04-28T14:06:46.024Z</time></trkpt><trkpt lat="38.3455652" lon="22.2028138"><ele>9.0</ele><time>2026-04-28T14:06:47.024Z</time></trkpt><trkpt lat="38.3453556" lon="22.2027535"><ele>9.0</ele><time>2026-04-28T14:06:48.024Z</time></trkpt><trkpt lat="38.3451471" lon="22.2026914"><ele>9.0</ele><time>2026-04-28T14:06:49.024Z</time></trkpt><trkpt lat="38.3449374" lon="22.2026317"><ele>9.0</ele><time>2026-04-28T14:06:50.024Z</time></trkpt><trkpt lat="38.3447296" lon="22.2025741"><ele>9.0</ele><time>2026-04-28T14:06:51.023Z</time></trkpt><trkpt lat="38.3445152" lon="22.2025111"><ele>9.0</ele><time>2026-04-28T14:06:52.024Z</time></trkpt><trkpt lat="38.3443053" lon="22.2024438"><ele>10.333333333333332</ele><time>2026-04-28T14:06:53.024Z</time></trkpt><trkpt lat="38.3441006" lon="22.2023726"><ele>11.666666666666666</ele><time>2026-04-28T14:06:54.024Z</time></trkpt><trkpt lat="38.3439036" lon="22.202282"><ele>13.0</ele><time>2026-04-28T14:06:55.024Z</time></trkpt><trkpt lat="38.3437154" lon="22.2021684"><ele>14.333333333333332</ele><time>2026-04-28T14:06:56.024Z</time></trkpt><trkpt lat="38.3435405" lon="22.2020308"><ele>15.666666666666668</ele><time>2026-04-28T14:06:57.024Z</time></trkpt><trkpt lat="38.3433813" lon="22.2018763"><ele>17.0</ele><time>2026-04-28T14:06:58.024Z</time></trkpt><trkpt lat="38.3432409" lon="22.2017076"><ele>17.0</ele><time>2026-04-28T14:06:59.024Z</time></trkpt><trkpt lat="38.3431131" lon="22.2015143"><ele>17.0</ele><time>2026-04-28T14:07:00.024Z</time></trkpt><trkpt lat="38.3429964" lon="22.2013004"><ele>17.0</ele><time>2026-04-28T14:07:01.024Z</time></trkpt><trkpt lat="38.3428922" lon="22.2010769"><ele>15.666666666666668</ele><time>2026-04-28T14:07:02.024Z</time></trkpt><trkpt lat="38.3428019" lon="22.2008443"><ele>14.333333333333332</ele><time>2026-04-28T14:07:03.023Z</time></trkpt><trkpt lat="38.3427255" lon="22.2005988"><ele>13.0</ele><time>2026-04-28T14:07:04.022Z</time></trkpt><trkpt lat="38.3426461" lon="22.2003536"><ele>13.0</ele><time>2026-04-28T14:07:05.023Z</time></trkpt><trkpt lat="38.3425603" lon="22.2001131"><ele>13.0</ele><time>2026-04-28T14:07:06.023Z</time></trkpt><trkpt lat="38.3424656" lon="22.1998707"><ele>13.0</ele><time>2026-04-28T14:07:07.023Z</time></trkpt><trkpt lat="38.3423625" lon="22.1996324"><ele>14.0</ele><time>2026-04-28T14:07:08.024Z</time></trkpt><trkpt lat="38.3422462" lon="22.1994046"><ele>15.0</ele><time>2026-04-28T14:07:09.024Z</time></trkpt><trkpt lat="38.3421115" lon="22.1991903"><ele>16.0</ele><time>2026-04-28T14:07:10.023Z</time></trkpt><trkpt lat="38.3419614" lon="22.1989913"><ele>16.0</ele><time>2026-04-28T14:07:11.024Z</time></trkpt><trkpt lat="38.3417909" lon="22.1988121"><ele>16.0</ele><time>2026-04-28T14:07:12.024Z</time></trkpt><trkpt lat="38.3416133" lon="22.1986427"><ele>16.0</ele><time>2026-04-28T14:07:13.023Z</time></trkpt><trkpt lat="38.341432" lon="22.1984852"><ele>19.0</ele><time>2026-04-28T14:07:14.024Z</time></trkpt><trkpt lat="38.3412456" lon="22.198333"><ele>22.0</ele><time>2026-04-28T14:07:15.023Z</time></trkpt><trkpt lat="38.3410663" lon="22.1981857"><ele>25.0</ele><time>2026-04-28T14:07:16.023Z</time></trkpt><trkpt lat="38.3408933" lon="22.1980324"><ele>25.0</ele><time>2026-04-28T14:07:17.023Z</time></trkpt><trkpt lat="38.3407272" lon="22.1978788"><ele>25.0</ele><time>2026-04-28T14:07:18.023Z</time></trkpt><trkpt lat="38.3405738" lon="22.1977172"><ele>25.0</ele><time>2026-04-28T14:07:19.023Z</time></trkpt><trkpt lat="38.3404253" lon="22.1975386"><ele>24.0</ele><time>2026-04-28T14:07:20.024Z</time></trkpt><trkpt lat="38.3402891" lon="22.1973465"><ele>23.0</ele><time>2026-04-28T14:07:21.024Z</time></trkpt><trkpt lat="38.3401665" lon="22.1971388"><ele>22.0</ele><time>2026-04-28T14:07:22.024Z</time></trkpt><trkpt lat="38.3400416" lon="22.1969263"><ele>22.0</ele><time>2026-04-28T14:07:23.024Z</time></trkpt><trkpt lat="38.3399176" lon="22.1967096"><ele>22.0</ele><time>2026-04-28T14:07:24.024Z</time></trkpt><trkpt lat="38.3397919" lon="22.1964927"><ele>22.0</ele><time>2026-04-28T14:07:25.023Z</time></trkpt><trkpt lat="38.3396614" lon="22.1962709"><ele>21.666666666666664</ele><time>2026-04-28T14:07:26.024Z</time></trkpt><trkpt lat="38.3395297" lon="22.1960542"><ele>21.333333333333332</ele><time>2026-04-28T14:07:27.024Z</time></trkpt><trkpt lat="38.3393977" lon="22.1958366"><ele>21.0</ele><time>2026-04-28T14:07:28.023Z</time></trkpt><trkpt lat="38.3392684" lon="22.1956174"><ele>21.0</ele><time>2026-04-28T14:07:29.023Z</time></trkpt><trkpt lat="38.3391475" lon="22.1953955"><ele>21.0</ele><time>2026-04-28T14:07:30.022Z</time></trkpt><trkpt lat="38.339022" lon="22.1951762"><ele>21.0</ele><time>2026-04-28T14:07:31.023Z</time></trkpt><trkpt lat="38.3389012" lon="22.1949591"><ele>16.333333333333332</ele><time>2026-04-28T14:07:32.024Z</time></trkpt><trkpt lat="38.3387922" lon="22.194739"><ele>11.666666666666668</ele><time>2026-04-28T14:07:33.022Z</time></trkpt><trkpt lat="38.3386983" lon="22.1945108"><ele>7.0</ele><time>2026-04-28T14:07:34.023Z</time></trkpt><trkpt lat="38.3386248" lon="22.1942729"><ele>7.0</ele><time>2026-04-28T14:07:35.023Z</time></trkpt><trkpt lat="38.3385647" lon="22.194022"><ele>7.0</ele><time>2026-04-28T14:07:36.022Z</time></trkpt><trkpt lat="38.3385179" lon="22.1937646"><ele>7.0</ele><time>2026-04-28T14:07:37.022Z</time></trkpt><trkpt lat="38.3384829" lon="22.193504"><ele>7.333333333333334</ele><time>2026-04-28T14:07:38.023Z</time></trkpt><trkpt lat="38.3384545" lon="22.1932464"><ele>7.666666666666666</ele><time>2026-04-28T14:07:39.023Z</time></trkpt><trkpt lat="38.3384237" lon="22.1929853"><ele>8.0</ele><time>2026-04-28T14:07:40.023Z</time></trkpt><trkpt lat="38.338388" lon="22.1927166"><ele>8.0</ele><time>2026-04-28T14:07:41.024Z</time></trkpt><trkpt lat="38.3383496" lon="22.1924484"><ele>8.0</ele><time>2026-04-28T14:07:42.023Z</time></trkpt><trkpt lat="38.3383" lon="22.1921885"><ele>8.0</ele><time>2026-04-28T14:07:43.023Z</time></trkpt><trkpt lat="38.3382302" lon="22.191938"><ele>8.0</ele><time>2026-04-28T14:07:44.023Z</time></trkpt><trkpt lat="38.3381427" lon="22.1916921"><ele>8.0</ele><time>2026-04-28T14:07:45.024Z</time></trkpt><trkpt lat="38.3380347" lon="22.1914584"><ele>8.0</ele><time>2026-04-28T14:07:46.023Z</time></trkpt><trkpt lat="38.337908" lon="22.1912353"><ele>8.0</ele><time>2026-04-28T14:07:47.023Z</time></trkpt><trkpt lat="38.3377615" lon="22.1910201"><ele>8.0</ele><time>2026-04-28T14:07:48.024Z</time></trkpt><trkpt lat="38.3376165" lon="22.1908131"><ele>8.0</ele><time>2026-04-28T14:07:49.023Z</time></trkpt><trkpt lat="38.3374661" lon="22.1906094"><ele>8.666666666666666</ele><time>2026-04-28T14:07:50.024Z</time></trkpt><trkpt lat="38.3373204" lon="22.1904116"><ele>9.333333333333334</ele><time>2026-04-28T14:07:51.022Z</time></trkpt><trkpt lat="38.3371823" lon="22.1902214"><ele>10.0</ele><time>2026-04-28T14:07:52.024Z</time></trkpt><trkpt lat="38.3370484" lon="22.1900426"><ele>10.0</ele><time>2026-04-28T14:07:53.024Z</time></trkpt><trkpt lat="38.3369202" lon="22.189874"><ele>10.0</ele><time>2026-04-28T14:07:54.024Z</time></trkpt><trkpt lat="38.3368043" lon="22.1897202"><ele>10.0</ele><time>2026-04-28T14:07:55.024Z</time></trkpt><trkpt lat="38.3366906" lon="22.1895821"><ele>13.5</ele><time>2026-04-28T14:07:56.024Z</time></trkpt><trkpt lat="38.336575" lon="22.1894817"><ele>17.0</ele><time>2026-04-28T14:07:57.024Z</time></trkpt><trkpt lat="38.3364471" lon="22.1894247"><ele>20.5</ele><time>2026-04-28T14:07:58.023Z</time></trkpt><trkpt lat="38.3363143" lon="22.1894143"><ele>24.0</ele><time>2026-04-28T14:07:59.024Z</time></trkpt><trkpt lat="38.3361785" lon="22.1894543"><ele>22.0</ele><time>2026-04-28T14:08:00.023Z</time></trkpt><trkpt lat="38.3360487" lon="22.1895468"><ele>20.0</ele><time>2026-04-28T14:08:01.024Z</time></trkpt><trkpt lat="38.3359339" lon="22.1896871"><ele>18.0</ele><time>2026-04-28T14:08:02.023Z</time></trkpt><trkpt lat="38.3358379" lon="22.1898582"><ele>18.0</ele><time>2026-04-28T14:08:03.024Z</time></trkpt><trkpt lat="38.3357441" lon="22.1900351"><ele>18.0</ele><time>2026-04-28T14:08:04.023Z</time></trkpt><trkpt lat="38.3356517" lon="22.1901956"><ele>18.0</ele><time>2026-04-28T14:08:05.024Z</time></trkpt><trkpt lat="38.3355427" lon="22.1903178"><ele>28.0</ele><time>2026-04-28T14:08:06.024Z</time></trkpt><trkpt lat="38.3354157" lon="22.1904118"><ele>38.0</ele><time>2026-04-28T14:08:07.024Z</time></trkpt><trkpt lat="38.3352642" lon="22.1904864"><ele>48.0</ele><time>2026-04-28T14:08:08.022Z</time></trkpt><trkpt lat="38.3351027" lon="22.190565"><ele>48.0</ele><time>2026-04-28T14:08:09.023Z</time></trkpt><trkpt lat="38.3349379" lon="22.1906169"><ele>48.0</ele><time>2026-04-28T14:08:10.023Z</time></trkpt><trkpt lat="38.3347706" lon="22.1906655"><ele>48.0</ele><time>2026-04-28T14:08:11.024Z</time></trkpt><trkpt lat="38.3346037" lon="22.1907223"><ele>41.666666666666664</ele><time>2026-04-28T14:08:12.023Z</time></trkpt><trkpt lat="38.3344378" lon="22.1907798"><ele>35.33333333333333</ele><time>2026-04-28T14:08:13.023Z</time></trkpt><trkpt lat="38.334272" lon="22.1908356"><ele>29.0</ele><time>2026-04-28T14:08:14.024Z</time></trkpt><trkpt lat="38.334105" lon="22.1908871"><ele>29.0</ele><time>2026-04-28T14:08:15.024Z</time></trkpt><trkpt lat="38.3339361" lon="22.1909385"><ele>29.0</ele><time>2026-04-28T14:08:16.023Z</time></trkpt><trkpt lat="38.3337673" lon="22.1909827"><ele>29.0</ele><time>2026-04-28T14:08:17.023Z</time></trkpt><trkpt lat="38.3335945" lon="22.1910143"><ele>32.666666666666664</ele><time>2026-04-28T14:08:18.023Z</time></trkpt><trkpt lat="38.3334131" lon="22.1910306"><ele>36.333333333333336</ele><time>2026-04-28T14:08:19.023Z</time></trkpt><trkpt lat="38.3332272" lon="22.1910476"><ele>40.0</ele><time>2026-04-28T14:08:20.023Z</time></trkpt><trkpt lat="38.3330438" lon="22.1910604"><ele>41.66666666666667</ele><time>2026-04-28T14:08:21.023Z</time></trkpt><trkpt lat="38.3328629" lon="22.1910678"><ele>43.333333333333336</ele><time>2026-04-28T14:08:22.024Z</time></trkpt><trkpt lat="38.3326843" lon="22.1910592"><ele>45.0</ele><time>2026-04-28T14:08:23.023Z</time></trkpt><trkpt lat="38.3325133" lon="22.1910534"><ele>45.0</ele><time>2026-04-28T14:08:24.024Z</time></trkpt><trkpt lat="38.3323445" lon="22.1910379"><ele>45.0</ele><time>2026-04-28T14:08:25.023Z</time></trkpt><trkpt lat="38.3321829" lon="22.1910106"><ele>45.0</ele><time>2026-04-28T14:08:26.023Z</time></trkpt><trkpt lat="38.3320274" lon="22.1909488"><ele>43.333333333333336</ele><time>2026-04-28T14:08:27.023Z</time></trkpt><trkpt lat="38.3318728" lon="22.1908755"><ele>41.66666666666667</ele><time>2026-04-28T14:08:28.023Z</time></trkpt><trkpt lat="38.3317322" lon="22.1907841"><ele>40.0</ele><time>2026-04-28T14:08:29.024Z</time></trkpt><trkpt lat="38.3316117" lon="22.1906843"><ele>41.5</ele><time>2026-04-28T14:08:30.024Z</time></trkpt><trkpt lat="38.3315121" lon="22.1905732"><ele>43.0</ele><time>2026-04-28T14:08:31.023Z</time></trkpt><trkpt lat="38.3314369" lon="22.1904467"><ele>44.5</ele><time>2026-04-28T14:08:32.024Z</time></trkpt><trkpt lat="38.331389" lon="22.1902935"><ele>46.0</ele><time>2026-04-28T14:08:33.023Z</time></trkpt><trkpt lat="38.3313715" lon="22.1901085"><ele>49.333333333333336</ele><time>2026-04-28T14:08:34.023Z</time></trkpt><trkpt lat="38.3314276" lon="22.1898862"><ele>52.66666666666667</ele><time>2026-04-28T14:08:35.023Z</time></trkpt><trkpt lat="38.331468" lon="22.1896805"><ele>56.0</ele><time>2026-04-28T14:08:36.024Z</time></trkpt><trkpt lat="38.3315128" lon="22.1894414"><ele>57.0</ele><time>2026-04-28T14:08:37.024Z</time></trkpt><trkpt lat="38.3315605" lon="22.1891692"><ele>58.0</ele><time>2026-04-28T14:08:38.024Z</time></trkpt><trkpt lat="38.3316202" lon="22.18888"><ele>58.5</ele><time>2026-04-28T14:08:39.024Z</time></trkpt><trkpt lat="38.331682" lon="22.1885856"><ele>59.0</ele><time>2026-04-28T14:08:40.023Z</time></trkpt><trkpt lat="38.3317345" lon="22.1882967"><ele>59.66666666666667</ele><time>2026-04-28T14:08:41.024Z</time></trkpt><trkpt lat="38.3317862" lon="22.1880137"><ele>60.33333333333333</ele><time>2026-04-28T14:08:42.024Z</time></trkpt><trkpt lat="38.3318431" lon="22.1877459"><ele>61.0</ele><time>2026-04-28T14:08:43.024Z</time></trkpt><trkpt lat="38.3319123" lon="22.1874798"><ele>61.0</ele><time>2026-04-28T14:08:44.024Z</time></trkpt><trkpt lat="38.3320073" lon="22.1872179"><ele>61.0</ele><time>2026-04-28T14:08:45.024Z</time></trkpt><trkpt lat="38.3321319" lon="22.186951"><ele>62.5</ele><time>2026-04-28T14:08:46.024Z</time></trkpt><trkpt lat="38.3322653" lon="22.1866943"><ele>64.0</ele><time>2026-04-28T14:08:47.024Z</time></trkpt><trkpt lat="38.3324118" lon="22.186428"><ele>64.0</ele><time>2026-04-28T14:08:48.023Z</time></trkpt><trkpt lat="38.3325581" lon="22.1861618"><ele>64.0</ele><time>2026-04-28T14:08:49.024Z</time></trkpt><trkpt lat="38.3327051" lon="22.1858941"><ele>64.0</ele><time>2026-04-28T14:08:50.024Z</time></trkpt><trkpt lat="38.3328508" lon="22.1856261"><ele>64.0</ele><time>2026-04-28T14:08:51.024Z</time></trkpt><trkpt lat="38.332995" lon="22.1853606"><ele>69.5</ele><time>2026-04-28T14:08:52.024Z</time></trkpt><trkpt lat="38.333139" lon="22.1850943"><ele>75.0</ele><time>2026-04-28T14:08:53.024Z</time></trkpt><trkpt lat="38.3332831" lon="22.1848363"><ele>75.0</ele><time>2026-04-28T14:08:54.023Z</time></trkpt><trkpt lat="38.3334217" lon="22.1845862"><ele>75.0</ele><time>2026-04-28T14:08:55.024Z</time></trkpt><trkpt lat="38.3335605" lon="22.1843395"><ele>75.0</ele><time>2026-04-28T14:08:56.023Z</time></trkpt><trkpt lat="38.3336975" lon="22.1840951"><ele>75.0</ele><time>2026-04-28T14:08:57.024Z</time></trkpt><trkpt lat="38.3338262" lon="22.1838526"><ele>77.0</ele><time>2026-04-28T14:08:58.024Z</time></trkpt><trkpt lat="38.3339639" lon="22.1836164"><ele>79.0</ele><time>2026-04-28T14:08:59.024Z</time></trkpt><trkpt lat="38.3340904" lon="22.1833855"><ele>81.66666666666666</ele><time>2026-04-28T14:09:00.024Z</time></trkpt><trkpt lat="38.3342138" lon="22.1831566"><ele>84.33333333333333</ele><time>2026-04-28T14:09:01.023Z</time></trkpt><trkpt lat="38.3343363" lon="22.1829322"><ele>87.0</ele><time>2026-04-28T14:09:02.023Z</time></trkpt><trkpt lat="38.3344581" lon="22.1827099"><ele>87.0</ele><time>2026-04-28T14:09:03.022Z</time></trkpt><trkpt lat="38.3345777" lon="22.1824894"><ele>87.0</ele><time>2026-04-28T14:09:04.024Z</time></trkpt><trkpt lat="38.334695" lon="22.1822674"><ele>87.0</ele><time>2026-04-28T14:09:05.023Z</time></trkpt><trkpt lat="38.3348099" lon="22.1820504"><ele>85.33333333333333</ele><time>2026-04-28T14:09:06.023Z</time></trkpt><trkpt lat="38.3349169" lon="22.1818318"><ele>83.66666666666666</ele><time>2026-04-28T14:09:07.024Z</time></trkpt><trkpt lat="38.3350133" lon="22.1816018"><ele>82.0</ele><time>2026-04-28T14:09:08.023Z</time></trkpt><trkpt lat="38.3350998" lon="22.1813598"><ele>82.0</ele><time>2026-04-28T14:09:09.023Z</time></trkpt><trkpt lat="38.3351749" lon="22.1811093"><ele>82.0</ele><time>2026-04-28T14:09:10.024Z</time></trkpt><trkpt lat="38.3352389" lon="22.1808578"><ele>82.0</ele><time>2026-04-28T14:09:11.023Z</time></trkpt><trkpt lat="38.3352963" lon="22.1806145"><ele>80.33333333333333</ele><time>2026-04-28T14:09:12.022Z</time></trkpt><trkpt lat="38.3353484" lon="22.1803797"><ele>78.66666666666667</ele><time>2026-04-28T14:09:13.023Z</time></trkpt><trkpt lat="38.3353995" lon="22.1801499"><ele>77.0</ele><time>2026-04-28T14:09:14.024Z</time></trkpt><trkpt lat="38.3354476" lon="22.1799293"><ele>76.33333333333334</ele><time>2026-04-28T14:09:15.024Z</time></trkpt><trkpt lat="38.3354939" lon="22.1797106"><ele>75.66666666666667</ele><time>2026-04-28T14:09:16.022Z</time></trkpt><trkpt lat="38.3355412" lon="22.1794902"><ele>75.0</ele><time>2026-04-28T14:09:17.023Z</time></trkpt><trkpt lat="38.3355884" lon="22.179267"><ele>75.0</ele><time>2026-04-28T14:09:18.023Z</time></trkpt><trkpt lat="38.3356356" lon="22.1790477"><ele>75.0</ele><time>2026-04-28T14:09:19.022Z</time></trkpt><trkpt lat="38.3356863" lon="22.1788391"><ele>75.0</ele><time>2026-04-28T14:09:20.024Z</time></trkpt><trkpt lat="38.3357317" lon="22.1786336"><ele>73.33333333333333</ele><time>2026-04-28T14:09:21.024Z</time></trkpt><trkpt lat="38.335782" lon="22.1784429"><ele>71.66666666666666</ele><time>2026-04-28T14:09:22.023Z</time></trkpt><trkpt lat="38.3358263" lon="22.1782533"><ele>70.0</ele><time>2026-04-28T14:09:23.021Z</time></trkpt><trkpt lat="38.3358697" lon="22.1780672"><ele>69.0</ele><time>2026-04-28T14:09:24.023Z</time></trkpt><trkpt lat="38.3359224" lon="22.1778793"><ele>68.0</ele><time>2026-04-28T14:09:25.022Z</time></trkpt><trkpt lat="38.3359937" lon="22.1776969"><ele>67.0</ele><time>2026-04-28T14:09:26.023Z</time></trkpt><trkpt lat="38.3360843" lon="22.1775315"><ele>67.0</ele><time>2026-04-28T14:09:27.024Z</time></trkpt><trkpt lat="38.3361816" lon="22.1773718"><ele>67.0</ele><time>2026-04-28T14:09:28.023Z</time></trkpt><trkpt lat="38.3362924" lon="22.1772146"><ele>67.0</ele><time>2026-04-28T14:09:29.023Z</time></trkpt><trkpt lat="38.3363992" lon="22.1770551"><ele>65.33333333333333</ele><time>2026-04-28T14:09:30.024Z</time></trkpt><trkpt lat="38.3365064" lon="22.1768875"><ele>63.66666666666667</ele><time>2026-04-28T14:09:31.024Z</time></trkpt><trkpt lat="38.3366119" lon="22.1767203"><ele>62.0</ele><time>2026-04-28T14:09:32.024Z</time></trkpt><trkpt lat="38.3367133" lon="22.1765598"><ele>59.0</ele><time>2026-04-28T14:09:33.023Z</time></trkpt><trkpt lat="38.3368132" lon="22.1764087"><ele>56.0</ele><time>2026-04-28T14:09:34.023Z</time></trkpt><trkpt lat="38.3369249" lon="22.1762701"><ele>53.0</ele><time>2026-04-28T14:09:35.023Z</time></trkpt><trkpt lat="38.3370585" lon="22.1761558"><ele>53.0</ele><time>2026-04-28T14:09:36.024Z</time></trkpt><trkpt lat="38.3372059" lon="22.1760893"><ele>53.0</ele><time>2026-04-28T14:09:37.022Z</time></trkpt><trkpt lat="38.3373618" lon="22.1760638"><ele>53.0</ele><time>2026-04-28T14:09:38.024Z</time></trkpt><trkpt lat="38.3375129" lon="22.1760505"><ele>52.75</ele><time>2026-04-28T14:09:39.022Z</time></trkpt><trkpt lat="38.3376545" lon="22.1760097"><ele>52.5</ele><time>2026-04-28T14:09:40.02Z</time></trkpt><trkpt lat="38.3377923" lon="22.1759365"><ele>52.25</ele><time>2026-04-28T14:09:41.023Z</time></trkpt><trkpt lat="38.3379141" lon="22.1758349"><ele>52.0</ele><time>2026-04-28T14:09:42.023Z</time></trkpt><trkpt lat="38.3379999" lon="22.1756987"><ele>53.666666666666664</ele><time>2026-04-28T14:09:43.024Z</time></trkpt><trkpt lat="38.3380519" lon="22.1755301"><ele>55.33333333333333</ele><time>2026-04-28T14:09:44.024Z</time></trkpt><trkpt lat="38.3380658" lon="22.1753347"><ele>57.0</ele><time>2026-04-28T14:09:45.022Z</time></trkpt><trkpt lat="38.3380513" lon="22.1751244"><ele>51.666666666666664</ele><time>2026-04-28T14:09:46.024Z</time></trkpt><trkpt lat="38.3379961" lon="22.1749109"><ele>46.33333333333333</ele><time>2026-04-28T14:09:47.023Z</time></trkpt><trkpt lat="38.3379225" lon="22.1747058"><ele>41.0</ele><time>2026-04-28T14:09:48.023Z</time></trkpt><trkpt lat="38.3378472" lon="22.1745006"><ele>41.0</ele><time>2026-04-28T14:09:49.023Z</time></trkpt><trkpt lat="38.337773" lon="22.1743004"><ele>41.0</ele><time>2026-04-28T14:09:50.024Z</time></trkpt><trkpt lat="38.3377059" lon="22.1741115"><ele>41.0</ele><time>2026-04-28T14:09:51.024Z</time></trkpt><trkpt lat="38.3376463" lon="22.1739284"><ele>41.75</ele><time>2026-04-28T14:09:52.023Z</time></trkpt><trkpt lat="38.3376125" lon="22.1737494"><ele>42.5</ele><time>2026-04-28T14:09:53.024Z</time></trkpt><trkpt lat="38.3375959" lon="22.173577"><ele>43.25</ele><time>2026-04-28T14:09:54.024Z</time></trkpt><trkpt lat="38.3376107" lon="22.1734123"><ele>44.0</ele><time>2026-04-28T14:09:55.023Z</time></trkpt><trkpt lat="38.3376676" lon="22.1732671"><ele>40.33333333333333</ele><time>2026-04-28T14:09:56.024Z</time></trkpt><trkpt lat="38.3377866" lon="22.1731201"><ele>36.666666666666664</ele><time>2026-04-28T14:09:57.024Z</time></trkpt><trkpt lat="38.3379403" lon="22.1729944"><ele>33.0</ele><time>2026-04-28T14:09:58.021Z</time></trkpt><trkpt lat="38.3381546" lon="22.1729422"><ele>33.0</ele><time>2026-04-28T14:09:59.024Z</time></trkpt><trkpt lat="38.3383457" lon="22.1728346"><ele>33.0</ele><time>2026-04-28T14:10:00.024Z</time></trkpt><trkpt lat="38.338533" lon="22.1727222"><ele>33.0</ele><time>2026-04-28T14:10:01.023Z</time></trkpt><trkpt lat="38.3387309" lon="22.1726206"><ele>34.666666666666664</ele><time>2026-04-28T14:10:02.024Z</time></trkpt><trkpt lat="38.3389158" lon="22.1725186"><ele>36.33333333333333</ele><time>2026-04-28T14:10:03.024Z</time></trkpt><trkpt lat="38.3390969" lon="22.1724203"><ele>38.0</ele><time>2026-04-28T14:10:04.024Z</time></trkpt><trkpt lat="38.3392715" lon="22.1723256"><ele>36.33333333333333</ele><time>2026-04-28T14:10:05.024Z</time></trkpt><trkpt lat="38.3394428" lon="22.1722345"><ele>34.666666666666664</ele><time>2026-04-28T14:10:06.023Z</time></trkpt><trkpt lat="38.3396018" lon="22.1721328"><ele>33.0</ele><time>2026-04-28T14:10:07.024Z</time></trkpt><trkpt lat="38.3397414" lon="22.1720104"><ele>33.0</ele><time>2026-04-28T14:10:08.024Z</time></trkpt><trkpt lat="38.3398666" lon="22.1718542"><ele>33.0</ele><time>2026-04-28T14:10:09.024Z</time></trkpt><trkpt lat="38.3399669" lon="22.1716554"><ele>33.0</ele><time>2026-04-28T14:10:10.024Z</time></trkpt><trkpt lat="38.3400381" lon="22.1714329"><ele>30.666666666666664</ele><time>2026-04-28T14:10:11.021Z</time></trkpt><trkpt lat="38.3400883" lon="22.1711993"><ele>28.333333333333332</ele><time>2026-04-28T14:10:12.024Z</time></trkpt><trkpt lat="38.3401343" lon="22.1709564"><ele>26.0</ele><time>2026-04-28T14:10:13.023Z</time></trkpt><trkpt lat="38.340179" lon="22.1707102"><ele>25.0</ele><time>2026-04-28T14:10:14.024Z</time></trkpt><trkpt lat="38.3402244" lon="22.1704641"><ele>24.0</ele><time>2026-04-28T14:10:15.023Z</time></trkpt><trkpt lat="38.3402679" lon="22.1702266"><ele>23.0</ele><time>2026-04-28T14:10:16.024Z</time></trkpt><trkpt lat="38.340311" lon="22.1700055"><ele>24.0</ele><time>2026-04-28T14:10:17.024Z</time></trkpt><trkpt lat="38.340363" lon="22.1697977"><ele>25.0</ele><time>2026-04-28T14:10:18.023Z</time></trkpt><trkpt lat="38.3404374" lon="22.1695929"><ele>26.0</ele><time>2026-04-28T14:10:19.024Z</time></trkpt><trkpt lat="38.340532" lon="22.16941"><ele>26.0</ele><time>2026-04-28T14:10:20.023Z</time></trkpt><trkpt lat="38.3406823" lon="22.1692548"><ele>26.0</ele><time>2026-04-28T14:10:21.022Z</time></trkpt><trkpt lat="38.3408654" lon="22.1691138"><ele>26.0</ele><time>2026-04-28T14:10:22.023Z</time></trkpt><trkpt lat="38.3410638" lon="22.1689858"><ele>18.0</ele><time>2026-04-28T14:10:23.023Z</time></trkpt><trkpt lat="38.341291" lon="22.168883"><ele>10.0</ele><time>2026-04-28T14:10:24.023Z</time></trkpt><trkpt lat="38.3415101" lon="22.1687794"><ele>9.5</ele><time>2026-04-28T14:10:25.021Z</time></trkpt><trkpt lat="38.3417279" lon="22.1686746"><ele>9.0</ele><time>2026-04-28T14:10:26.022Z</time></trkpt><trkpt lat="38.3419484" lon="22.1685662"><ele>9.0</ele><time>2026-04-28T14:10:27.023Z</time></trkpt><trkpt lat="38.3421715" lon="22.1684555"><ele>9.0</ele><time>2026-04-28T14:10:28.023Z</time></trkpt><trkpt lat="38.3423906" lon="22.1683321"><ele>5.0</ele><time>2026-04-28T14:10:29.023Z</time></trkpt><trkpt lat="38.3426037" lon="22.1681928"><ele>1.0</ele><time>2026-04-28T14:10:30.023Z</time></trkpt><trkpt lat="38.3428117" lon="22.1680589"><ele>1.0</ele><time>2026-04-28T14:10:31.021Z</time></trkpt><trkpt lat="38.3430124" lon="22.1679232"><ele>1.0</ele><time>2026-04-28T14:10:32.023Z</time></trkpt><trkpt lat="38.3432065" lon="22.1677917"><ele>1.0</ele><time>2026-04-28T14:10:33.024Z</time></trkpt><trkpt lat="38.343398" lon="22.1676622"><ele>4.333333333333333</ele><time>2026-04-28T14:10:34.023Z</time></trkpt><trkpt lat="38.3435801" lon="22.1675345"><ele>7.666666666666666</ele><time>2026-04-28T14:10:35.024Z</time></trkpt><trkpt lat="38.3437501" lon="22.1674119"><ele>11.0</ele><time>2026-04-28T14:10:36.022Z</time></trkpt><trkpt lat="38.3439099" lon="22.1672793"><ele>11.0</ele><time>2026-04-28T14:10:37.024Z</time></trkpt><trkpt lat="38.3440505" lon="22.1671154"><ele>11.0</ele><time>2026-04-28T14:10:38.024Z</time></trkpt><trkpt lat="38.3441724" lon="22.166923"><ele>11.0</ele><time>2026-04-28T14:10:39.024Z</time></trkpt><trkpt lat="38.3442739" lon="22.1667017"><ele>9.666666666666666</ele><time>2026-04-28T14:10:40.023Z</time></trkpt><trkpt lat="38.344357" lon="22.1664554"><ele>8.333333333333334</ele><time>2026-04-28T14:10:41.024Z</time></trkpt><trkpt lat="38.3444244" lon="22.1661958"><ele>7.0</ele><time>2026-04-28T14:10:42.023Z</time></trkpt><trkpt lat="38.344483" lon="22.1659425"><ele>7.0</ele><time>2026-04-28T14:10:43.024Z</time></trkpt><trkpt lat="38.3445233" lon="22.1657015"><ele>7.0</ele><time>2026-04-28T14:10:44.023Z</time></trkpt><trkpt lat="38.344539" lon="22.1654578"><ele>7.0</ele><time>2026-04-28T14:10:45.023Z</time></trkpt><trkpt lat="38.3445224" lon="22.1652131"><ele>7.666666666666667</ele><time>2026-04-28T14:10:46.023Z</time></trkpt><trkpt lat="38.3444761" lon="22.1649663"><ele>8.333333333333334</ele><time>2026-04-28T14:10:47.023Z</time></trkpt><trkpt lat="38.3444085" lon="22.164726"><ele>9.0</ele><time>2026-04-28T14:10:48.023Z</time></trkpt><trkpt lat="38.3443312" lon="22.1644877"><ele>10.666666666666668</ele><time>2026-04-28T14:10:49.023Z</time></trkpt><trkpt lat="38.3442547" lon="22.1642585"><ele>12.333333333333334</ele><time>2026-04-28T14:10:50.024Z</time></trkpt><trkpt lat="38.3441992" lon="22.1640318"><ele>14.0</ele><time>2026-04-28T14:10:51.024Z</time></trkpt><trkpt lat="38.3441727" lon="22.1638097"><ele>15.333333333333334</ele><time>2026-04-28T14:10:52.023Z</time></trkpt><trkpt lat="38.3441855" lon="22.1635771"><ele>16.666666666666668</ele><time>2026-04-28T14:10:53.024Z</time></trkpt><trkpt lat="38.3442259" lon="22.1633631"><ele>18.0</ele><time>2026-04-28T14:10:54.024Z</time></trkpt><trkpt lat="38.3442778" lon="22.1631533"><ele>18.0</ele><time>2026-04-28T14:10:55.023Z</time></trkpt><trkpt lat="38.3444107" lon="22.1629491"><ele>18.0</ele><time>2026-04-28T14:10:56.022Z</time></trkpt><trkpt lat="38.3445397" lon="22.1627408"><ele>18.0</ele><time>2026-04-28T14:10:57.022Z</time></trkpt><trkpt lat="38.3447019" lon="22.162579"><ele>18.666666666666668</ele><time>2026-04-28T14:10:58.024Z</time></trkpt><trkpt lat="38.344865" lon="22.1624109"><ele>19.333333333333336</ele><time>2026-04-28T14:10:59.024Z</time></trkpt><trkpt lat="38.3450291" lon="22.1622452"><ele>20.0</ele><time>2026-04-28T14:11:00.023Z</time></trkpt><trkpt lat="38.3451927" lon="22.1620827"><ele>21.666666666666668</ele><time>2026-04-28T14:11:01.022Z</time></trkpt><trkpt lat="38.3453443" lon="22.1619292"><ele>23.333333333333336</ele><time>2026-04-28T14:11:02.024Z</time></trkpt><trkpt lat="38.3454913" lon="22.1617863"><ele>25.0</ele><time>2026-04-28T14:11:03.023Z</time></trkpt><trkpt lat="38.3456377" lon="22.1616417"><ele>18.666666666666668</ele><time>2026-04-28T14:11:04.024Z</time></trkpt><trkpt lat="38.3457837" lon="22.1615025"><ele>12.333333333333334</ele><time>2026-04-28T14:11:05.024Z</time></trkpt><trkpt lat="38.3459295" lon="22.1613805"><ele>6.0</ele><time>2026-04-28T14:11:06.023Z</time></trkpt><trkpt lat="38.3460736" lon="22.1612734"><ele>6.0</ele><time>2026-04-28T14:11:07.023Z</time></trkpt><trkpt lat="38.3462294" lon="22.1611832"><ele>6.0</ele><time>2026-04-28T14:11:08.023Z</time></trkpt><trkpt lat="38.3464009" lon="22.1611111"><ele>6.0</ele><time>2026-04-28T14:11:09.023Z</time></trkpt><trkpt lat="38.3465814" lon="22.161084"><ele>7.333333333333334</ele><time>2026-04-28T14:11:10.024Z</time></trkpt><trkpt lat="38.3467663" lon="22.1610855"><ele>8.666666666666668</ele><time>2026-04-28T14:11:11.022Z</time></trkpt><trkpt lat="38.3469439" lon="22.1611285"><ele>10.0</ele><time>2026-04-28T14:11:12.023Z</time></trkpt><trkpt lat="38.3471222" lon="22.1611835"><ele>8.666666666666668</ele><time>2026-04-28T14:11:13.022Z</time></trkpt><trkpt lat="38.3472931" lon="22.1612532"><ele>7.333333333333334</ele><time>2026-04-28T14:11:14.024Z</time></trkpt><trkpt lat="38.3474527" lon="22.1613265"><ele>6.0</ele><time>2026-04-28T14:11:15.024Z</time></trkpt><trkpt lat="38.3476143" lon="22.1613985"><ele>6.0</ele><time>2026-04-28T14:11:16.024Z</time></trkpt><trkpt lat="38.3477766" lon="22.1614451"><ele>6.0</ele><time>2026-04-28T14:11:17.024Z</time></trkpt><trkpt lat="38.3479402" lon="22.1614651"><ele>6.0</ele><time>2026-04-28T14:11:18.024Z</time></trkpt><trkpt lat="38.3481064" lon="22.1614579"><ele>7.333333333333334</ele><time>2026-04-28T14:11:19.023Z</time></trkpt><trkpt lat="38.348272" lon="22.1614242"><ele>8.666666666666668</ele><time>2026-04-28T14:11:20.023Z</time></trkpt><trkpt lat="38.3484359" lon="22.1613685"><ele>10.0</ele><time>2026-04-28T14:11:21.024Z</time></trkpt><trkpt lat="38.3485939" lon="22.1612902"><ele>10.0</ele><time>2026-04-28T14:11:22.023Z</time></trkpt><trkpt lat="38.3487474" lon="22.1611859"><ele>10.0</ele><time>2026-04-28T14:11:23.023Z</time></trkpt><trkpt lat="38.3488949" lon="22.161055"><ele>10.0</ele><time>2026-04-28T14:11:24.024Z</time></trkpt><trkpt lat="38.3490337" lon="22.1608927"><ele>10.0</ele><time>2026-04-28T14:11:25.024Z</time></trkpt><trkpt lat="38.3491739" lon="22.1607296"><ele>10.0</ele><time>2026-04-28T14:11:26.023Z</time></trkpt><trkpt lat="38.349311" lon="22.1605673"><ele>10.0</ele><time>2026-04-28T14:11:27.021Z</time></trkpt><trkpt lat="38.3494478" lon="22.1604102"><ele>10.0</ele><time>2026-04-28T14:11:28.023Z</time></trkpt><trkpt lat="38.3495816" lon="22.160259"><ele>10.0</ele><time>2026-04-28T14:11:29.023Z</time></trkpt><trkpt lat="38.3497104" lon="22.1601104"><ele>10.0</ele><time>2026-04-28T14:11:30.022Z</time></trkpt><trkpt lat="38.3498357" lon="22.159961"><ele>12.0</ele><time>2026-04-28T14:11:31.023Z</time></trkpt><trkpt lat="38.3499522" lon="22.1598161"><ele>14.0</ele><time>2026-04-28T14:11:32.023Z</time></trkpt><trkpt lat="38.3500608" lon="22.1596656"><ele>16.0</ele><time>2026-04-28T14:11:33.021Z</time></trkpt><trkpt lat="38.3501537" lon="22.1595069"><ele>16.0</ele><time>2026-04-28T14:11:34.023Z</time></trkpt><trkpt lat="38.350235" lon="22.1593559"><ele>16.0</ele><time>2026-04-28T14:11:35.024Z</time></trkpt><trkpt lat="38.350306" lon="22.1592087"><ele>16.0</ele><time>2026-04-28T14:11:36.022Z</time></trkpt><trkpt lat="38.3503806" lon="22.15906"><ele>16.0</ele><time>2026-04-28T14:11:37.024Z</time></trkpt><trkpt lat="38.3504494" lon="22.1589227"><ele>14.5</ele><time>2026-04-28T14:11:38.024Z</time></trkpt><trkpt lat="38.3505095" lon="22.158792"><ele>13.0</ele><time>2026-04-28T14:11:39.023Z</time></trkpt><trkpt lat="38.3505594" lon="22.1586585"><ele>11.5</ele><time>2026-04-28T14:11:40.024Z</time></trkpt><trkpt lat="38.3505945" lon="22.1585187"><ele>10.0</ele><time>2026-04-28T14:11:41.024Z</time></trkpt><trkpt lat="38.3506116" lon="22.1583683"><ele>10.75</ele><time>2026-04-28T14:11:42.023Z</time></trkpt><trkpt lat="38.3506085" lon="22.1582115"><ele>11.5</ele><time>2026-04-28T14:11:43.024Z</time></trkpt><trkpt lat="38.350585" lon="22.158048"><ele>12.25</ele><time>2026-04-28T14:11:44.024Z</time></trkpt><trkpt lat="38.3505451" lon="22.157888"><ele>13.0</ele><time>2026-04-28T14:11:45.024Z</time></trkpt><trkpt lat="38.3504933" lon="22.1577336"><ele>13.0</ele><time>2026-04-28T14:11:46.023Z</time></trkpt><trkpt lat="38.350432" lon="22.1575808"><ele>13.0</ele><time>2026-04-28T14:11:47.024Z</time></trkpt><trkpt lat="38.350373" lon="22.1574287"><ele>13.0</ele><time>2026-04-28T14:11:48.024Z</time></trkpt><trkpt lat="38.3503138" lon="22.1572726"><ele>13.0</ele><time>2026-04-28T14:11:49.024Z</time></trkpt><trkpt lat="38.3502574" lon="22.157114"><ele>13.25</ele><time>2026-04-28T14:11:50.023Z</time></trkpt><trkpt lat="38.350206" lon="22.1569534"><ele>13.5</ele><time>2026-04-28T14:11:51.024Z</time></trkpt><trkpt lat="38.3501603" lon="22.1567893"><ele>13.75</ele><time>2026-04-28T14:11:52.024Z</time></trkpt><trkpt lat="38.3501299" lon="22.1566157"><ele>14.0</ele><time>2026-04-28T14:11:53.024Z</time></trkpt><trkpt lat="38.3501144" lon="22.1564435"><ele>14.0</ele><time>2026-04-28T14:11:54.023Z</time></trkpt><trkpt lat="38.3501157" lon="22.1562634"><ele>14.0</ele><time>2026-04-28T14:11:55.023Z</time></trkpt><trkpt lat="38.3501359" lon="22.1560854"><ele>14.0</ele><time>2026-04-28T14:11:56.023Z</time></trkpt><trkpt lat="38.350179" lon="22.1559263"><ele>14.0</ele><time>2026-04-28T14:11:57.024Z</time></trkpt><trkpt lat="38.3502688" lon="22.1557527"><ele>11.333333333333334</ele><time>2026-04-28T14:11:58.023Z</time></trkpt><trkpt lat="38.3503654" lon="22.1555827"><ele>8.666666666666668</ele><time>2026-04-28T14:11:59.023Z</time></trkpt><trkpt lat="38.3504637" lon="22.1554096"><ele>6.0</ele><time>2026-04-28T14:12:00.023Z</time></trkpt><trkpt lat="38.3505634" lon="22.1552203"><ele>8.0</ele><time>2026-04-28T14:12:01.023Z</time></trkpt><trkpt lat="38.3506701" lon="22.1550323"><ele>10.0</ele><time>2026-04-28T14:12:02.024Z</time></trkpt><trkpt lat="38.3507726" lon="22.1548637"><ele>12.0</ele><time>2026-04-28T14:12:03.024Z</time></trkpt><trkpt lat="38.3508598" lon="22.1547143"><ele>12.0</ele><time>2026-04-28T14:12:04.024Z</time></trkpt><trkpt lat="38.3509332" lon="22.1545884"><ele>12.0</ele><time>2026-04-28T14:12:05.023Z</time></trkpt><trkpt lat="38.3509981" lon="22.1544662"><ele>12.0</ele><time>2026-04-28T14:12:06.024Z</time></trkpt><trkpt lat="38.3510606" lon="22.1543177"><ele>12.0</ele><time>2026-04-28T14:12:07.024Z</time></trkpt><trkpt lat="38.3511128" lon="22.1541542"><ele>12.0</ele><time>2026-04-28T14:12:08.023Z</time></trkpt><trkpt lat="38.3511388" lon="22.1539917"><ele>12.0</ele><time>2026-04-28T14:12:09.024Z</time></trkpt><trkpt lat="38.3511391" lon="22.1538283"><ele>12.0</ele><time>2026-04-28T14:12:10.024Z</time></trkpt><trkpt lat="38.3511158" lon="22.153668"><ele>12.0</ele><time>2026-04-28T14:12:11.023Z</time></trkpt><trkpt lat="38.3510728" lon="22.1535132"><ele>12.0</ele><time>2026-04-28T14:12:12.024Z</time></trkpt><trkpt lat="38.3510037" lon="22.1533657"><ele>12.0</ele><time>2026-04-28T14:12:13.024Z</time></trkpt><trkpt lat="38.350891" lon="22.1532101"><ele>12.0</ele><time>2026-04-28T14:12:14.023Z</time></trkpt><trkpt lat="38.350755" lon="22.1530489"><ele>10.0</ele><time>2026-04-28T14:12:15.024Z</time></trkpt><trkpt lat="38.3505794" lon="22.1528482"><ele>8.0</ele><time>2026-04-28T14:12:16.023Z</time></trkpt><trkpt lat="38.3503945" lon="22.1526429"><ele>8.0</ele><time>2026-04-28T14:12:17.024Z</time></trkpt><trkpt lat="38.3502114" lon="22.1524576"><ele>8.0</ele><time>2026-04-28T14:12:18.023Z</time></trkpt><trkpt lat="38.3499972" lon="22.1522886"><ele>14.0</ele><time>2026-04-28T14:12:19.023Z</time></trkpt><trkpt lat="38.3497681" lon="22.1521449"><ele>20.0</ele><time>2026-04-28T14:12:20.024Z</time></trkpt><trkpt lat="38.3495512" lon="22.152033"><ele>20.0</ele><time>2026-04-28T14:12:21.024Z</time></trkpt><trkpt lat="38.3493417" lon="22.1519313"><ele>20.0</ele><time>2026-04-28T14:12:22.024Z</time></trkpt><trkpt lat="38.349145" lon="22.1518434"><ele>20.0</ele><time>2026-04-28T14:12:23.022Z</time></trkpt><trkpt lat="38.3489608" lon="22.1517645"><ele>18.0</ele><time>2026-04-28T14:12:24.024Z</time></trkpt><trkpt lat="38.3487995" lon="22.1516981"><ele>16.0</ele><time>2026-04-28T14:12:25.023Z</time></trkpt><trkpt lat="38.3486459" lon="22.151652"><ele>14.0</ele><time>2026-04-28T14:12:26.024Z</time></trkpt><trkpt lat="38.3484944" lon="22.1516293"><ele>14.0</ele><time>2026-04-28T14:12:27.021Z</time></trkpt><trkpt lat="38.3483505" lon="22.1516539"><ele>14.0</ele><time>2026-04-28T14:12:28.024Z</time></trkpt><trkpt lat="38.3482182" lon="22.1517227"><ele>14.0</ele><time>2026-04-28T14:12:29.023Z</time></trkpt><trkpt lat="38.3481081" lon="22.1518348"><ele>14.0</ele><time>2026-04-28T14:12:30.023Z</time></trkpt><trkpt lat="38.3480103" lon="22.1519878"><ele>14.666666666666668</ele><time>2026-04-28T14:12:31.024Z</time></trkpt><trkpt lat="38.3479247" lon="22.152172"><ele>15.333333333333332</ele><time>2026-04-28T14:12:32.024Z</time></trkpt><trkpt lat="38.3478386" lon="22.1523663"><ele>16.0</ele><time>2026-04-28T14:12:33.024Z</time></trkpt><trkpt lat="38.347752" lon="22.1525512"><ele>16.0</ele><time>2026-04-28T14:12:34.023Z</time></trkpt><trkpt lat="38.3476503" lon="22.1527142"><ele>16.0</ele><time>2026-04-28T14:12:35.023Z</time></trkpt><trkpt lat="38.3475342" lon="22.1528516"><ele>16.0</ele><time>2026-04-28T14:12:36.024Z</time></trkpt><trkpt lat="38.3474062" lon="22.1529363"><ele>16.0</ele><time>2026-04-28T14:12:37.024Z</time></trkpt><trkpt lat="38.3472707" lon="22.1529762"><ele>16.0</ele><time>2026-04-28T14:12:38.024Z</time></trkpt><trkpt lat="38.3471331" lon="22.152953"><ele>16.0</ele><time>2026-04-28T14:12:39.023Z</time></trkpt><trkpt lat="38.3469949" lon="22.1529164"><ele>16.0</ele><time>2026-04-28T14:12:40.024Z</time></trkpt><trkpt lat="38.3468307" lon="22.152839"><ele>16.0</ele><time>2026-04-28T14:12:41.022Z</time></trkpt><trkpt lat="38.3466654" lon="22.1526775"><ele>16.0</ele><time>2026-04-28T14:12:42.023Z</time></trkpt><trkpt lat="38.3465012" lon="22.1524423"><ele>18.0</ele><time>2026-04-28T14:12:43.024Z</time></trkpt><trkpt lat="38.3463396" lon="22.1521997"><ele>20.0</ele><time>2026-04-28T14:12:44.023Z</time></trkpt><trkpt lat="38.3461698" lon="22.1519865"><ele>20.0</ele><time>2026-04-28T14:12:45.024Z</time></trkpt><trkpt lat="38.3459993" lon="22.1517877"><ele>20.0</ele><time>2026-04-28T14:12:46.023Z</time></trkpt><trkpt lat="38.3458378" lon="22.1515961"><ele>24.333333333333336</ele><time>2026-04-28T14:12:47.023Z</time></trkpt><trkpt lat="38.3456816" lon="22.1514207"><ele>28.666666666666668</ele><time>2026-04-28T14:12:48.024Z</time></trkpt><trkpt lat="38.3455112" lon="22.1512838"><ele>33.0</ele><time>2026-04-28T14:12:49.024Z</time></trkpt><trkpt lat="38.3453254" lon="22.151183"><ele>33.0</ele><time>2026-04-28T14:12:50.024Z</time></trkpt><trkpt lat="38.3451263" lon="22.1511185"><ele>33.0</ele><time>2026-04-28T14:12:51.024Z</time></trkpt><trkpt lat="38.344926" lon="22.1510809"><ele>33.0</ele><time>2026-04-28T14:12:52.024Z</time></trkpt><trkpt lat="38.3447099" lon="22.1510536"><ele>30.666666666666664</ele><time>2026-04-28T14:12:53.023Z</time></trkpt><trkpt lat="38.3445138" lon="22.1510263"><ele>28.333333333333332</ele><time>2026-04-28T14:12:54.023Z</time></trkpt><trkpt lat="38.344327" lon="22.1510008"><ele>26.0</ele><time>2026-04-28T14:12:55.023Z</time></trkpt><trkpt lat="38.3441436" lon="22.1509712"><ele>26.0</ele><time>2026-04-28T14:12:56.023Z</time></trkpt><trkpt lat="38.3439736" lon="22.1509358"><ele>26.0</ele><time>2026-04-28T14:12:57.024Z</time></trkpt><trkpt lat="38.3438193" lon="22.1508738"><ele>26.0</ele><time>2026-04-28T14:12:58.024Z</time></trkpt><trkpt lat="38.343686" lon="22.1507812"><ele>23.333333333333332</ele><time>2026-04-28T14:12:59.023Z</time></trkpt><trkpt lat="38.3435638" lon="22.1506742"><ele>20.666666666666664</ele><time>2026-04-28T14:13:00.024Z</time></trkpt><trkpt lat="38.3435161" lon="22.1504983"><ele>18.0</ele><time>2026-04-28T14:13:01.024Z</time></trkpt><trkpt lat="38.3434768" lon="22.1503057"><ele>18.0</ele><time>2026-04-28T14:13:02.024Z</time></trkpt><trkpt lat="38.343464" lon="22.1501051"><ele>18.0</ele><time>2026-04-28T14:13:03.023Z</time></trkpt><trkpt lat="38.3435089" lon="22.1498452"><ele>18.0</ele><time>2026-04-28T14:13:04.023Z</time></trkpt><trkpt lat="38.3435651" lon="22.1495549"><ele>14.5</ele><time>2026-04-28T14:13:05.024Z</time></trkpt><trkpt lat="38.343644" lon="22.1492415"><ele>11.0</ele><time>2026-04-28T14:13:06.022Z</time></trkpt><trkpt lat="38.3437009" lon="22.1488288"><ele>9.0</ele><time>2026-04-28T14:13:07.024Z</time></trkpt><trkpt lat="38.3437503" lon="22.1484677"><ele>7.0</ele><time>2026-04-28T14:13:08.023Z</time></trkpt><trkpt lat="38.3437827" lon="22.1481092"><ele>7.0</ele><time>2026-04-28T14:13:09.024Z</time></trkpt><trkpt lat="38.343814" lon="22.1477725"><ele>7.0</ele><time>2026-04-28T14:13:10.023Z</time></trkpt><trkpt lat="38.3438406" lon="22.1474335"><ele>5.5</ele><time>2026-04-28T14:13:11.023Z</time></trkpt><trkpt lat="38.3438676" lon="22.147091"><ele>4.0</ele><time>2026-04-28T14:13:12.024Z</time></trkpt><trkpt lat="38.3438949" lon="22.1467564"><ele>17.5</ele><time>2026-04-28T14:13:13.024Z</time></trkpt><trkpt lat="38.3439205" lon="22.1464333"><ele>31.0</ele><time>2026-04-28T14:13:14.024Z</time></trkpt><trkpt lat="38.3439444" lon="22.1461338"><ele>31.0</ele><time>2026-04-28T14:13:15.024Z</time></trkpt><trkpt lat="38.3439678" lon="22.1458446"><ele>31.0</ele><time>2026-04-28T14:13:16.023Z</time></trkpt><trkpt lat="38.3439984" lon="22.1455603"><ele>28.5</ele><time>2026-04-28T14:13:17.023Z</time></trkpt><trkpt lat="38.3440466" lon="22.1452744"><ele>26.0</ele><time>2026-04-28T14:13:18.023Z</time></trkpt><trkpt lat="38.3441034" lon="22.1449872"><ele>19.0</ele><time>2026-04-28T14:13:19.02Z</time></trkpt><trkpt lat="38.3441909" lon="22.1447131"><ele>12.0</ele><time>2026-04-28T14:13:20.023Z</time></trkpt><trkpt lat="38.3442792" lon="22.1444414"><ele>12.0</ele><time>2026-04-28T14:13:21.024Z</time></trkpt><trkpt lat="38.3443684" lon="22.1441897"><ele>12.0</ele><time>2026-04-28T14:13:22.023Z</time></trkpt><trkpt lat="38.3444553" lon="22.1439439"><ele>12.0</ele><time>2026-04-28T14:13:23.023Z</time></trkpt><trkpt lat="38.3445484" lon="22.1437078"><ele>11.333333333333334</ele><time>2026-04-28T14:13:24.024Z</time></trkpt><trkpt lat="38.3446539" lon="22.1434819"><ele>10.666666666666668</ele><time>2026-04-28T14:13:25.024Z</time></trkpt><trkpt lat="38.344769" lon="22.1432629"><ele>10.0</ele><time>2026-04-28T14:13:26.023Z</time></trkpt><trkpt lat="38.3448887" lon="22.1430471"><ele>10.0</ele><time>2026-04-28T14:13:27.023Z</time></trkpt><trkpt lat="38.3450098" lon="22.1428294"><ele>10.0</ele><time>2026-04-28T14:13:28.024Z</time></trkpt><trkpt lat="38.3451413" lon="22.142608"><ele>10.0</ele><time>2026-04-28T14:13:29.023Z</time></trkpt><trkpt lat="38.3452694" lon="22.1423837"><ele>7.0</ele><time>2026-04-28T14:13:30.024Z</time></trkpt><trkpt lat="38.3453991" lon="22.1421551"><ele>4.0</ele><time>2026-04-28T14:13:31.023Z</time></trkpt><trkpt lat="38.3455311" lon="22.1419228"><ele>1.0</ele><time>2026-04-28T14:13:32.021Z</time></trkpt><trkpt lat="38.3456755" lon="22.1416824"><ele>3.5</ele><time>2026-04-28T14:13:33.024Z</time></trkpt><trkpt lat="38.3458225" lon="22.1414498"><ele>6.0</ele><time>2026-04-28T14:13:34.024Z</time></trkpt><trkpt lat="38.345975" lon="22.1412155"><ele>6.0</ele><time>2026-04-28T14:13:35.024Z</time></trkpt><trkpt lat="38.3461275" lon="22.1409862"><ele>6.0</ele><time>2026-04-28T14:13:36.024Z</time></trkpt><trkpt lat="38.3462742" lon="22.1407524"><ele>15.0</ele><time>2026-04-28T14:13:37.023Z</time></trkpt><trkpt lat="38.3464044" lon="22.1405098"><ele>24.0</ele><time>2026-04-28T14:13:38.021Z</time></trkpt><trkpt lat="38.3465135" lon="22.1402462"><ele>24.0</ele><time>2026-04-28T14:13:39.023Z</time></trkpt><trkpt lat="38.3466167" lon="22.139973"><ele>24.0</ele><time>2026-04-28T14:13:40.021Z</time></trkpt><trkpt lat="38.3467242" lon="22.1396967"><ele>16.0</ele><time>2026-04-28T14:13:41.024Z</time></trkpt><trkpt lat="38.346828" lon="22.1394242"><ele>8.0</ele><time>2026-04-28T14:13:42.022Z</time></trkpt><trkpt lat="38.3469309" lon="22.1391571"><ele>5.0</ele><time>2026-04-28T14:13:43.023Z</time></trkpt><trkpt lat="38.3470323" lon="22.1388901"><ele>2.0</ele><time>2026-04-28T14:13:44.022Z</time></trkpt><trkpt lat="38.3471388" lon="22.1386258"><ele>4.666666666666667</ele><time>2026-04-28T14:13:45.024Z</time></trkpt><trkpt lat="38.34725" lon="22.138383"><ele>7.333333333333334</ele><time>2026-04-28T14:13:46.023Z</time></trkpt><trkpt lat="38.3473624" lon="22.1381623"><ele>10.0</ele><time>2026-04-28T14:13:47.023Z</time></trkpt><trkpt lat="38.3474729" lon="22.1379622"><ele>10.0</ele><time>2026-04-28T14:13:48.023Z</time></trkpt><trkpt lat="38.3475845" lon="22.1377885"><ele>10.0</ele><time>2026-04-28T14:13:49.024Z</time></trkpt><trkpt lat="38.3477057" lon="22.1376405"><ele>10.0</ele><time>2026-04-28T14:13:50.023Z</time></trkpt><trkpt lat="38.3478378" lon="22.1375619"><ele>10.0</ele><time>2026-04-28T14:13:51.023Z</time></trkpt><trkpt lat="38.3479671" lon="22.1375138"><ele>10.0</ele><time>2026-04-28T14:13:52.024Z</time></trkpt><trkpt lat="38.348095" lon="22.1374993"><ele>10.0</ele><time>2026-04-28T14:13:53.024Z</time></trkpt><trkpt lat="38.3482227" lon="22.1375341"><ele>10.0</ele><time>2026-04-28T14:13:54.023Z</time></trkpt><trkpt lat="38.3483077" lon="22.1376739"><ele>11.333333333333334</ele><time>2026-04-28T14:13:55.023Z</time></trkpt><trkpt lat="38.3483684" lon="22.1378339"><ele>12.666666666666668</ele><time>2026-04-28T14:13:56.023Z</time></trkpt><trkpt lat="38.3484079" lon="22.1380367"><ele>14.0</ele><time>2026-04-28T14:13:57.024Z</time></trkpt><trkpt lat="38.3484219" lon="22.138281"><ele>14.0</ele><time>2026-04-28T14:13:58.024Z</time></trkpt><trkpt lat="38.3484217" lon="22.1385399"><ele>14.0</ele><time>2026-04-28T14:13:59.023Z</time></trkpt><trkpt lat="38.3484405" lon="22.1387986"><ele>14.0</ele><time>2026-04-28T14:14:00.024Z</time></trkpt><trkpt lat="38.3484367" lon="22.1390648"><ele>15.666666666666668</ele><time>2026-04-28T14:14:01.024Z</time></trkpt><trkpt lat="38.3484484" lon="22.1393376"><ele>17.333333333333332</ele><time>2026-04-28T14:14:02.024Z</time></trkpt><trkpt lat="38.3484665" lon="22.1396119"><ele>19.0</ele><time>2026-04-28T14:14:03.024Z</time></trkpt><trkpt lat="38.3484924" lon="22.1398984"><ele>20.666666666666664</ele><time>2026-04-28T14:14:04.024Z</time></trkpt><trkpt lat="38.3485194" lon="22.1401754"><ele>22.333333333333332</ele><time>2026-04-28T14:14:05.024Z</time></trkpt><trkpt lat="38.3485468" lon="22.1404364"><ele>24.0</ele><time>2026-04-28T14:14:06.023Z</time></trkpt><trkpt lat="38.3485734" lon="22.1406869"><ele>25.666666666666664</ele><time>2026-04-28T14:14:07.024Z</time></trkpt><trkpt lat="38.3485996" lon="22.1409232"><ele>27.333333333333332</ele><time>2026-04-28T14:14:08.024Z</time></trkpt><trkpt lat="38.348622" lon="22.141148"><ele>29.0</ele><time>2026-04-28T14:14:09.023Z</time></trkpt><trkpt lat="38.3486471" lon="22.1413568"><ele>31.25</ele><time>2026-04-28T14:14:10.023Z</time></trkpt><trkpt lat="38.348674" lon="22.1415555"><ele>33.5</ele><time>2026-04-28T14:14:11.023Z</time></trkpt><trkpt lat="38.3487087" lon="22.1417399"><ele>35.75</ele><time>2026-04-28T14:14:12.024Z</time></trkpt><trkpt lat="38.3487641" lon="22.141899"><ele>38.0</ele><time>2026-04-28T14:14:13.024Z</time></trkpt><trkpt lat="38.3488443" lon="22.1420287"><ele>30.25</ele><time>2026-04-28T14:14:14.024Z</time></trkpt><trkpt lat="38.3489459" lon="22.1421288"><ele>22.5</ele><time>2026-04-28T14:14:15.023Z</time></trkpt><trkpt lat="38.3490646" lon="22.1421817"><ele>14.75</ele><time>2026-04-28T14:14:16.023Z</time></trkpt><trkpt lat="38.3491946" lon="22.1421892"><ele>7.0</ele><time>2026-04-28T14:14:17.023Z</time></trkpt><trkpt lat="38.3493331" lon="22.1421532"><ele>7.0</ele><time>2026-04-28T14:14:18.024Z</time></trkpt><trkpt lat="38.349475" lon="22.1420871"><ele>7.0</ele><time>2026-04-28T14:14:19.022Z</time></trkpt><trkpt lat="38.3496165" lon="22.142011"><ele>7.0</ele><time>2026-04-28T14:14:20.024Z</time></trkpt><trkpt lat="38.3497548" lon="22.1419272"><ele>9.333333333333334</ele><time>2026-04-28T14:14:21.023Z</time></trkpt><trkpt lat="38.3498975" lon="22.1418424"><ele>11.666666666666668</ele><time>2026-04-28T14:14:22.023Z</time></trkpt><trkpt lat="38.3500441" lon="22.141754"><ele>14.0</ele><time>2026-04-28T14:14:23.023Z</time></trkpt><trkpt lat="38.3501883" lon="22.1416654"><ele>14.0</ele><time>2026-04-28T14:14:24.023Z</time></trkpt><trkpt lat="38.3503322" lon="22.1415731"><ele>14.0</ele><time>2026-04-28T14:14:25.023Z</time></trkpt><trkpt lat="38.350466" lon="22.1414761"><ele>14.0</ele><time>2026-04-28T14:14:26.023Z</time></trkpt><trkpt lat="38.3505944" lon="22.141374"><ele>14.75</ele><time>2026-04-28T14:14:27.024Z</time></trkpt><trkpt lat="38.3507188" lon="22.1412705"><ele>15.5</ele><time>2026-04-28T14:14:28.022Z</time></trkpt><trkpt lat="38.3508397" lon="22.1411643"><ele>16.25</ele><time>2026-04-28T14:14:29.024Z</time></trkpt><trkpt lat="38.3509584" lon="22.1410581"><ele>17.0</ele><time>2026-04-28T14:14:30.023Z</time></trkpt><trkpt lat="38.3510783" lon="22.1409561"><ele>17.0</ele><time>2026-04-28T14:14:31.024Z</time></trkpt><trkpt lat="38.3511972" lon="22.1408534"><ele>17.0</ele><time>2026-04-28T14:14:32.023Z</time></trkpt><trkpt lat="38.3513118" lon="22.1407519"><ele>17.0</ele><time>2026-04-28T14:14:33.024Z</time></trkpt><trkpt lat="38.3514278" lon="22.1406527"><ele>17.0</ele><time>2026-04-28T14:14:34.023Z</time></trkpt><trkpt lat="38.3515477" lon="22.1405541"><ele>13.333333333333334</ele><time>2026-04-28T14:14:35.024Z</time></trkpt><trkpt lat="38.3516778" lon="22.1404633"><ele>9.666666666666668</ele><time>2026-04-28T14:14:36.024Z</time></trkpt><trkpt lat="38.3518184" lon="22.1403979"><ele>6.0</ele><time>2026-04-28T14:14:37.024Z</time></trkpt><trkpt lat="38.3519667" lon="22.1403573"><ele>6.0</ele><time>2026-04-28T14:14:38.023Z</time></trkpt><trkpt lat="38.3521124" lon="22.1403352"><ele>6.0</ele><time>2026-04-28T14:14:39.024Z</time></trkpt><trkpt lat="38.3522645" lon="22.1403183"><ele>6.0</ele><time>2026-04-28T14:14:40.023Z</time></trkpt><trkpt lat="38.3524244" lon="22.1403004"><ele>5.666666666666667</ele><time>2026-04-28T14:14:41.023Z</time></trkpt><trkpt lat="38.3525857" lon="22.1402818"><ele>5.333333333333334</ele><time>2026-04-28T14:14:42.024Z</time></trkpt><trkpt lat="38.3527499" lon="22.1402587"><ele>5.0</ele><time>2026-04-28T14:14:43.024Z</time></trkpt><trkpt lat="38.3529171" lon="22.1402359"><ele>4.666666666666667</ele><time>2026-04-28T14:14:44.023Z</time></trkpt><trkpt lat="38.3530876" lon="22.140215"><ele>4.333333333333333</ele><time>2026-04-28T14:14:45.023Z</time></trkpt><trkpt lat="38.3532599" lon="22.1401938"><ele>4.0</ele><time>2026-04-28T14:14:46.023Z</time></trkpt><trkpt lat="38.3534347" lon="22.1401729"><ele>4.0</ele><time>2026-04-28T14:14:47.024Z</time></trkpt><trkpt lat="38.3536125" lon="22.1401488"><ele>4.0</ele><time>2026-04-28T14:14:48.023Z</time></trkpt><trkpt lat="38.3537983" lon="22.1401266"><ele>4.0</ele><time>2026-04-28T14:14:49.023Z</time></trkpt><trkpt lat="38.353993" lon="22.1400998"><ele>3.6666666666666665</ele><time>2026-04-28T14:14:50.024Z</time></trkpt><trkpt lat="38.3541946" lon="22.1400744"><ele>3.333333333333333</ele><time>2026-04-28T14:14:51.024Z</time></trkpt><trkpt lat="38.3543922" lon="22.140048"><ele>3.0</ele><time>2026-04-28T14:14:52.023Z</time></trkpt><trkpt lat="38.3545895" lon="22.1400228"><ele>3.333333333333333</ele><time>2026-04-28T14:14:53.022Z</time></trkpt><trkpt lat="38.3547878" lon="22.1399988"><ele>3.6666666666666665</ele><time>2026-04-28T14:14:54.023Z</time></trkpt><trkpt lat="38.3549836" lon="22.1399734"><ele>4.0</ele><time>2026-04-28T14:14:55.024Z</time></trkpt><trkpt lat="38.3551767" lon="22.1399451"><ele>4.0</ele><time>2026-04-28T14:14:56.024Z</time></trkpt><trkpt lat="38.3553646" lon="22.139923"><ele>4.0</ele><time>2026-04-28T14:14:57.024Z</time></trkpt><trkpt lat="38.3555505" lon="22.1398968"><ele>4.0</ele><time>2026-04-28T14:14:58.024Z</time></trkpt><trkpt lat="38.3557323" lon="22.1398724"><ele>4.333333333333333</ele><time>2026-04-28T14:14:59.024Z</time></trkpt><trkpt lat="38.355918" lon="22.1398479"><ele>4.666666666666667</ele><time>2026-04-28T14:15:00.024Z</time></trkpt><trkpt lat="38.356105" lon="22.1398232"><ele>5.0</ele><time>2026-04-28T14:15:01.023Z</time></trkpt><trkpt lat="38.3562919" lon="22.1397993"><ele>5.0</ele><time>2026-04-28T14:15:02.022Z</time></trkpt><trkpt lat="38.3564798" lon="22.1397811"><ele>5.0</ele><time>2026-04-28T14:15:03.023Z</time></trkpt><trkpt lat="38.3566695" lon="22.1397557"><ele>5.0</ele><time>2026-04-28T14:15:04.024Z</time></trkpt><trkpt lat="38.35686" lon="22.1397301"><ele>5.0</ele><time>2026-04-28T14:15:05.024Z</time></trkpt><trkpt lat="38.3570536" lon="22.1397043"><ele>5.0</ele><time>2026-04-28T14:15:06.024Z</time></trkpt><trkpt lat="38.3572468" lon="22.1396781"><ele>5.0</ele><time>2026-04-28T14:15:07.024Z</time></trkpt><trkpt lat="38.357439" lon="22.1396519"><ele>5.666666666666667</ele><time>2026-04-28T14:15:08.023Z</time></trkpt><trkpt lat="38.3576264" lon="22.1396269"><ele>6.333333333333334</ele><time>2026-04-28T14:15:09.024Z</time></trkpt><trkpt lat="38.3578044" lon="22.1396023"><ele>7.0</ele><time>2026-04-28T14:15:10.021Z</time></trkpt><trkpt lat="38.3579796" lon="22.1395796"><ele>8.0</ele><time>2026-04-28T14:15:11.023Z</time></trkpt><trkpt lat="38.3581484" lon="22.1395585"><ele>9.0</ele><time>2026-04-28T14:15:12.022Z</time></trkpt><trkpt lat="38.3583155" lon="22.1395301"><ele>10.0</ele><time>2026-04-28T14:15:13.022Z</time></trkpt><trkpt lat="38.3584728" lon="22.1394781"><ele>10.0</ele><time>2026-04-28T14:15:14.023Z</time></trkpt><trkpt lat="38.3586209" lon="22.1393979"><ele>10.0</ele><time>2026-04-28T14:15:15.022Z</time></trkpt><trkpt lat="38.3587538" lon="22.1392849"><ele>10.0</ele><time>2026-04-28T14:15:16.023Z</time></trkpt><trkpt lat="38.3588671" lon="22.1391363"><ele>15.0</ele><time>2026-04-28T14:15:17.023Z</time></trkpt><trkpt lat="38.3589584" lon="22.1389592"><ele>20.0</ele><time>2026-04-28T14:15:18.024Z</time></trkpt><trkpt lat="38.3590284" lon="22.1387619"><ele>25.0</ele><time>2026-04-28T14:15:19.023Z</time></trkpt><trkpt lat="38.3590767" lon="22.1385156"><ele>25.0</ele><time>2026-04-28T14:15:20.023Z</time></trkpt><trkpt lat="38.3591219" lon="22.138253"><ele>25.0</ele><time>2026-04-28T14:15:21.024Z</time></trkpt><trkpt lat="38.3591702" lon="22.1379811"><ele>25.0</ele><time>2026-04-28T14:15:22.023Z</time></trkpt><trkpt lat="38.3592152" lon="22.1377119"><ele>21.5</ele><time>2026-04-28T14:15:23.024Z</time></trkpt><trkpt lat="38.3592614" lon="22.1374276"><ele>18.0</ele><time>2026-04-28T14:15:24.024Z</time></trkpt><trkpt lat="38.3593123" lon="22.1371435"><ele>17.0</ele><time>2026-04-28T14:15:25.023Z</time></trkpt><trkpt lat="38.3593641" lon="22.1368605"><ele>16.0</ele><time>2026-04-28T14:15:26.023Z</time></trkpt><trkpt lat="38.3594094" lon="22.1365753"><ele>15.5</ele><time>2026-04-28T14:15:27.023Z</time></trkpt><trkpt lat="38.3594417" lon="22.1362826"><ele>15.0</ele><time>2026-04-28T14:15:28.023Z</time></trkpt><trkpt lat="38.3594561" lon="22.1359857"><ele>16.0</ele><time>2026-04-28T14:15:29.023Z</time></trkpt><trkpt lat="38.3594495" lon="22.1356844"><ele>17.0</ele><time>2026-04-28T14:15:30.024Z</time></trkpt><trkpt lat="38.3594339" lon="22.1353785"><ele>17.0</ele><time>2026-04-28T14:15:31.023Z</time></trkpt><trkpt lat="38.3594153" lon="22.1350725"><ele>17.0</ele><time>2026-04-28T14:15:32.023Z</time></trkpt><trkpt lat="38.359395" lon="22.1347614"><ele>20.0</ele><time>2026-04-28T14:15:33.023Z</time></trkpt><trkpt lat="38.3593872" lon="22.1344442"><ele>23.0</ele><time>2026-04-28T14:15:34.022Z</time></trkpt><trkpt lat="38.3593822" lon="22.1341208"><ele>24.0</ele><time>2026-04-28T14:15:35.024Z</time></trkpt><trkpt lat="38.3593858" lon="22.1337855"><ele>25.0</ele><time>2026-04-28T14:15:36.023Z</time></trkpt><trkpt lat="38.3594092" lon="22.1334626"><ele>22.5</ele><time>2026-04-28T14:15:37.023Z</time></trkpt><trkpt lat="38.3594438" lon="22.1331549"><ele>20.0</ele><time>2026-04-28T14:15:38.024Z</time></trkpt><trkpt lat="38.3594892" lon="22.1328515"><ele>20.0</ele><time>2026-04-28T14:15:39.023Z</time></trkpt><trkpt lat="38.3595415" lon="22.1325481"><ele>20.0</ele><time>2026-04-28T14:15:40.024Z</time></trkpt><trkpt lat="38.3596109" lon="22.132253"><ele>15.5</ele><time>2026-04-28T14:15:41.024Z</time></trkpt><trkpt lat="38.3596909" lon="22.1319541"><ele>11.0</ele><time>2026-04-28T14:15:42.023Z</time></trkpt><trkpt lat="38.3597638" lon="22.1316487"><ele>29.0</ele><time>2026-04-28T14:15:43.023Z</time></trkpt><trkpt lat="38.3598239" lon="22.1313406"><ele>47.0</ele><time>2026-04-28T14:15:44.024Z</time></trkpt><trkpt lat="38.3598587" lon="22.1310334"><ele>47.0</ele><time>2026-04-28T14:15:45.023Z</time></trkpt><trkpt lat="38.3598669" lon="22.1307234"><ele>47.0</ele><time>2026-04-28T14:15:46.023Z</time></trkpt><trkpt lat="38.3598589" lon="22.1304189"><ele>47.0</ele><time>2026-04-28T14:15:47.022Z</time></trkpt><trkpt lat="38.3598389" lon="22.130133"><ele>47.0</ele><time>2026-04-28T14:15:48.024Z</time></trkpt><trkpt lat="38.3598152" lon="22.129867"><ele>47.0</ele><time>2026-04-28T14:15:49.022Z</time></trkpt><trkpt lat="38.3597976" lon="22.1296089"><ele>45.33333333333333</ele><time>2026-04-28T14:15:50.024Z</time></trkpt><trkpt lat="38.359779" lon="22.129372"><ele>43.666666666666664</ele><time>2026-04-28T14:15:51.023Z</time></trkpt><trkpt lat="38.3597693" lon="22.1291461"><ele>42.0</ele><time>2026-04-28T14:15:52.024Z</time></trkpt><trkpt lat="38.3597813" lon="22.1289318"><ele>33.666666666666664</ele><time>2026-04-28T14:15:53.023Z</time></trkpt><trkpt lat="38.3598135" lon="22.1287323"><ele>25.333333333333336</ele><time>2026-04-28T14:15:54.023Z</time></trkpt><trkpt lat="38.3598743" lon="22.1285528"><ele>17.0</ele><time>2026-04-28T14:15:55.023Z</time></trkpt><trkpt lat="38.3599942" lon="22.1283917"><ele>17.0</ele><time>2026-04-28T14:15:56.022Z</time></trkpt><trkpt lat="38.3601326" lon="22.1282738"><ele>17.0</ele><time>2026-04-28T14:15:57.024Z</time></trkpt><trkpt lat="38.3602944" lon="22.1282048"><ele>17.0</ele><time>2026-04-28T14:15:58.021Z</time></trkpt><trkpt lat="38.3604562" lon="22.1281502"><ele>13.0</ele><time>2026-04-28T14:15:59.023Z</time></trkpt><trkpt lat="38.3606472" lon="22.1281317"><ele>9.0</ele><time>2026-04-28T14:16:00.023Z</time></trkpt><trkpt lat="38.3608708" lon="22.1281123"><ele>5.0</ele><time>2026-04-28T14:16:01.022Z</time></trkpt><trkpt lat="38.3611483" lon="22.128245"><ele>4.666666666666667</ele><time>2026-04-28T14:16:02.023Z</time></trkpt><trkpt lat="38.3613699" lon="22.1282443"><ele>4.333333333333333</ele><time>2026-04-28T14:16:03.023Z</time></trkpt><trkpt lat="38.3615939" lon="22.1282297"><ele>4.0</ele><time>2026-04-28T14:16:04.024Z</time></trkpt><trkpt lat="38.3618045" lon="22.1281893"><ele>4.0</ele><time>2026-04-28T14:16:05.024Z</time></trkpt><trkpt lat="38.3620057" lon="22.128143"><ele>4.0</ele><time>2026-04-28T14:16:06.023Z</time></trkpt><trkpt lat="38.362197" lon="22.1280977"><ele>4.0</ele><time>2026-04-28T14:16:07.023Z</time></trkpt><trkpt lat="38.3623797" lon="22.1280601"><ele>4.0</ele><time>2026-04-28T14:16:08.023Z</time></trkpt><trkpt lat="38.362559" lon="22.128065"><ele>4.0</ele><time>2026-04-28T14:16:09.022Z</time></trkpt><trkpt lat="38.3627315" lon="22.128105"><ele>4.0</ele><time>2026-04-28T14:16:10.023Z</time></trkpt><trkpt lat="38.3628827" lon="22.1282068"><ele>5.0</ele><time>2026-04-28T14:16:11.023Z</time></trkpt><trkpt lat="38.3630359" lon="22.1283481"><ele>6.0</ele><time>2026-04-28T14:16:12.024Z</time></trkpt><trkpt lat="38.3631816" lon="22.1285702"><ele>7.0</ele><time>2026-04-28T14:16:13.023Z</time></trkpt><trkpt lat="38.363319" lon="22.128789"><ele>7.0</ele><time>2026-04-28T14:16:14.023Z</time></trkpt><trkpt lat="38.3634481" lon="22.1290014"><ele>7.0</ele><time>2026-04-28T14:16:15.023Z</time></trkpt><trkpt lat="38.363575" lon="22.1291959"><ele>7.0</ele><time>2026-04-28T14:16:16.023Z</time></trkpt><trkpt lat="38.3637014" lon="22.1293733"><ele>5.666666666666667</ele><time>2026-04-28T14:16:17.023Z</time></trkpt><trkpt lat="38.3638329" lon="22.1295245"><ele>4.333333333333334</ele><time>2026-04-28T14:16:18.023Z</time></trkpt><trkpt lat="38.3639793" lon="22.1296424"><ele>3.0</ele><time>2026-04-28T14:16:19.023Z</time></trkpt><trkpt lat="38.3641367" lon="22.1297324"><ele>3.0</ele><time>2026-04-28T14:16:20.023Z</time></trkpt><trkpt lat="38.3643079" lon="22.1297845"><ele>3.0</ele><time>2026-04-28T14:16:21.024Z</time></trkpt><trkpt lat="38.3644967" lon="22.1297868"><ele>3.0</ele><time>2026-04-28T14:16:22.024Z</time></trkpt><trkpt lat="38.3646973" lon="22.1297479"><ele>2.6666666666666665</ele><time>2026-04-28T14:16:23.024Z</time></trkpt><trkpt lat="38.3648888" lon="22.1296915"><ele>2.333333333333333</ele><time>2026-04-28T14:16:24.024Z</time></trkpt><trkpt lat="38.365077" lon="22.1296239"><ele>2.0</ele><time>2026-04-28T14:16:25.024Z</time></trkpt><trkpt lat="38.365261" lon="22.1295501"><ele>2.0</ele><time>2026-04-28T14:16:26.024Z</time></trkpt><trkpt lat="38.3654472" lon="22.1294745"><ele>2.0</ele><time>2026-04-28T14:16:27.023Z</time></trkpt><trkpt lat="38.3656323" lon="22.1293986"><ele>2.0</ele><time>2026-04-28T14:16:28.024Z</time></trkpt><trkpt lat="38.3658191" lon="22.1293223"><ele>2.6666666666666665</ele><time>2026-04-28T14:16:29.022Z</time></trkpt><trkpt lat="38.3660059" lon="22.1292457"><ele>3.333333333333333</ele><time>2026-04-28T14:16:30.022Z</time></trkpt><trkpt lat="38.3661921" lon="22.1291697"><ele>4.0</ele><time>2026-04-28T14:16:31.022Z</time></trkpt><trkpt lat="38.3663792" lon="22.1290919"><ele>4.0</ele><time>2026-04-28T14:16:32.024Z</time></trkpt><trkpt lat="38.3665698" lon="22.1290128"><ele>4.0</ele><time>2026-04-28T14:16:33.023Z</time></trkpt><trkpt lat="38.3667625" lon="22.1289331"><ele>4.0</ele><time>2026-04-28T14:16:34.024Z</time></trkpt><trkpt lat="38.3669507" lon="22.1288554"><ele>4.0</ele><time>2026-04-28T14:16:35.023Z</time></trkpt><trkpt lat="38.3671331" lon="22.1287806"><ele>4.0</ele><time>2026-04-28T14:16:36.024Z</time></trkpt><trkpt lat="38.3673125" lon="22.1287079"><ele>4.0</ele><time>2026-04-28T14:16:37.024Z</time></trkpt><trkpt lat="38.3674909" lon="22.1286346"><ele>7.333333333333334</ele><time>2026-04-28T14:16:38.023Z</time></trkpt><trkpt lat="38.3676667" lon="22.1285623"><ele>10.666666666666668</ele><time>2026-04-28T14:16:39.024Z</time></trkpt><trkpt lat="38.3678451" lon="22.1284881"><ele>14.0</ele><time>2026-04-28T14:16:40.022Z</time></trkpt><trkpt lat="38.3680222" lon="22.1284178"><ele>14.666666666666668</ele><time>2026-04-28T14:16:41.024Z</time></trkpt><trkpt lat="38.3681938" lon="22.1283348"><ele>15.333333333333332</ele><time>2026-04-28T14:16:42.024Z</time></trkpt><trkpt lat="38.3683615" lon="22.1282271"><ele>16.0</ele><time>2026-04-28T14:16:43.022Z</time></trkpt><trkpt lat="38.368526" lon="22.1281085"><ele>16.0</ele><time>2026-04-28T14:16:44.022Z</time></trkpt><trkpt lat="38.368681" lon="22.1279733"><ele>16.0</ele><time>2026-04-28T14:16:45.023Z</time></trkpt><trkpt lat="38.3688249" lon="22.1278084"><ele>16.0</ele><time>2026-04-28T14:16:46.024Z</time></trkpt><trkpt lat="38.3689578" lon="22.1276226"><ele>16.0</ele><time>2026-04-28T14:16:47.022Z</time></trkpt><trkpt lat="38.3690745" lon="22.1274166"><ele>16.0</ele><time>2026-04-28T14:16:48.023Z</time></trkpt><trkpt lat="38.3691754" lon="22.1271873"><ele>16.0</ele><time>2026-04-28T14:16:49.023Z</time></trkpt><trkpt lat="38.3692751" lon="22.1269518"><ele>16.0</ele><time>2026-04-28T14:16:50.023Z</time></trkpt><trkpt lat="38.3693705" lon="22.1267152"><ele>16.0</ele><time>2026-04-28T14:16:51.022Z</time></trkpt><trkpt lat="38.3694655" lon="22.1264769"><ele>16.0</ele><time>2026-04-28T14:16:52.023Z</time></trkpt><trkpt lat="38.3695588" lon="22.1262358"><ele>16.333333333333332</ele><time>2026-04-28T14:16:53.023Z</time></trkpt><trkpt lat="38.3696527" lon="22.1259948"><ele>16.666666666666668</ele><time>2026-04-28T14:16:54.022Z</time></trkpt><trkpt lat="38.3697418" lon="22.1257548"><ele>17.0</ele><time>2026-04-28T14:16:55.024Z</time></trkpt><trkpt lat="38.3698221" lon="22.125507"><ele>15.333333333333334</ele><time>2026-04-28T14:16:56.02Z</time></trkpt><trkpt lat="38.3698918" lon="22.1252504"><ele>13.666666666666668</ele><time>2026-04-28T14:16:57.023Z</time></trkpt><trkpt lat="38.3699471" lon="22.124991"><ele>12.0</ele><time>2026-04-28T14:16:58.024Z</time></trkpt><trkpt lat="38.3699897" lon="22.1247253"><ele>11.666666666666666</ele><time>2026-04-28T14:16:59.022Z</time></trkpt><trkpt lat="38.3700184" lon="22.1244538"><ele>11.333333333333332</ele><time>2026-04-28T14:17:00.022Z</time></trkpt><trkpt lat="38.370033" lon="22.1241824"><ele>11.0</ele><time>2026-04-28T14:17:01.022Z</time></trkpt><trkpt lat="38.3700386" lon="22.1239115"><ele>10.333333333333332</ele><time>2026-04-28T14:17:02.024Z</time></trkpt><trkpt lat="38.3700396" lon="22.123635"><ele>9.666666666666666</ele><time>2026-04-28T14:17:03.023Z</time></trkpt><trkpt lat="38.3700409" lon="22.1233609"><ele>9.0</ele><time>2026-04-28T14:17:04.024Z</time></trkpt><trkpt lat="38.3700417" lon="22.1230917"><ele>9.0</ele><time>2026-04-28T14:17:05.023Z</time></trkpt><trkpt lat="38.3700424" lon="22.1228257"><ele>9.0</ele><time>2026-04-28T14:17:06.024Z</time></trkpt><trkpt lat="38.370041" lon="22.1225636"><ele>9.0</ele><time>2026-04-28T14:17:07.022Z</time></trkpt><trkpt lat="38.3700385" lon="22.1223017"><ele>8.666666666666666</ele><time>2026-04-28T14:17:08.021Z</time></trkpt><trkpt lat="38.3700301" lon="22.1220442"><ele>8.333333333333332</ele><time>2026-04-28T14:17:09.023Z</time></trkpt><trkpt lat="38.3700064" lon="22.1217905"><ele>8.0</ele><time>2026-04-28T14:17:10.024Z</time></trkpt><trkpt lat="38.3699708" lon="22.1215391"><ele>8.666666666666666</ele><time>2026-04-28T14:17:11.024Z</time></trkpt><trkpt lat="38.3699207" lon="22.1212889"><ele>9.333333333333334</ele><time>2026-04-28T14:17:12.023Z</time></trkpt><trkpt lat="38.3698544" lon="22.1210406"><ele>10.0</ele><time>2026-04-28T14:17:13.023Z</time></trkpt><trkpt lat="38.3697713" lon="22.1207994"><ele>8.666666666666668</ele><time>2026-04-28T14:17:14.021Z</time></trkpt><trkpt lat="38.3696767" lon="22.1205601"><ele>7.333333333333334</ele><time>2026-04-28T14:17:15.023Z</time></trkpt><trkpt lat="38.3695657" lon="22.1203182"><ele>6.0</ele><time>2026-04-28T14:17:16.022Z</time></trkpt><trkpt lat="38.3694406" lon="22.1200896"><ele>6.333333333333334</ele><time>2026-04-28T14:17:17.022Z</time></trkpt><trkpt lat="38.3693134" lon="22.119862"><ele>6.666666666666667</ele><time>2026-04-28T14:17:18.023Z</time></trkpt><trkpt lat="38.3691697" lon="22.1196447"><ele>7.0</ele><time>2026-04-28T14:17:19.024Z</time></trkpt><trkpt lat="38.369033" lon="22.1194241"><ele>7.0</ele><time>2026-04-28T14:17:20.024Z</time></trkpt><trkpt lat="38.3688987" lon="22.1192053"><ele>7.0</ele><time>2026-04-28T14:17:21.024Z</time></trkpt><trkpt lat="38.3687631" lon="22.1189896"><ele>7.0</ele><time>2026-04-28T14:17:22.024Z</time></trkpt><trkpt lat="38.3686269" lon="22.118779"><ele>7.333333333333334</ele><time>2026-04-28T14:17:23.023Z</time></trkpt><trkpt lat="38.3684968" lon="22.1185674"><ele>7.666666666666666</ele><time>2026-04-28T14:17:24.023Z</time></trkpt><trkpt lat="38.3683685" lon="22.1183601"><ele>8.0</ele><time>2026-04-28T14:17:25.021Z</time></trkpt><trkpt lat="38.368244" lon="22.1181569"><ele>9.333333333333332</ele><time>2026-04-28T14:17:26.024Z</time></trkpt><trkpt lat="38.3681228" lon="22.1179615"><ele>10.666666666666666</ele><time>2026-04-28T14:17:27.024Z</time></trkpt><trkpt lat="38.3680091" lon="22.1177754"><ele>12.0</ele><time>2026-04-28T14:17:28.024Z</time></trkpt><trkpt lat="38.3679034" lon="22.1176006"><ele>12.0</ele><time>2026-04-28T14:17:29.021Z</time></trkpt><trkpt lat="38.3678108" lon="22.117416"><ele>12.0</ele><time>2026-04-28T14:17:30.022Z</time></trkpt><trkpt lat="38.3677429" lon="22.1172142"><ele>12.0</ele><time>2026-04-28T14:17:31.023Z</time></trkpt><trkpt lat="38.3676968" lon="22.1170112"><ele>13.333333333333332</ele><time>2026-04-28T14:17:32.021Z</time></trkpt><trkpt lat="38.3676988" lon="22.1167973"><ele>14.666666666666666</ele><time>2026-04-28T14:17:33.022Z</time></trkpt><trkpt lat="38.3677122" lon="22.1165716"><ele>16.0</ele><time>2026-04-28T14:17:34.024Z</time></trkpt><trkpt lat="38.3677698" lon="22.1163409"><ele>13.0</ele><time>2026-04-28T14:17:35.022Z</time></trkpt><trkpt lat="38.3678322" lon="22.1161024"><ele>10.0</ele><time>2026-04-28T14:17:36.022Z</time></trkpt><trkpt lat="38.3679033" lon="22.1158563"><ele>7.0</ele><time>2026-04-28T14:17:37.023Z</time></trkpt><trkpt lat="38.3679743" lon="22.1155998"><ele>12.333333333333334</ele><time>2026-04-28T14:17:38.021Z</time></trkpt><trkpt lat="38.3680398" lon="22.1153415"><ele>17.666666666666668</ele><time>2026-04-28T14:17:39.024Z</time></trkpt><trkpt lat="38.3680981" lon="22.1150796"><ele>23.0</ele><time>2026-04-28T14:17:40.024Z</time></trkpt><trkpt lat="38.3681562" lon="22.1148144"><ele>23.0</ele><time>2026-04-28T14:17:41.022Z</time></trkpt><trkpt lat="38.3682144" lon="22.1145477"><ele>23.0</ele><time>2026-04-28T14:17:42.021Z</time></trkpt><trkpt lat="38.3682718" lon="22.1142777"><ele>23.0</ele><time>2026-04-28T14:17:43.022Z</time></trkpt><trkpt lat="38.3683285" lon="22.1140065"><ele>23.333333333333336</ele><time>2026-04-28T14:17:44.022Z</time></trkpt><trkpt lat="38.3683878" lon="22.1137334"><ele>23.666666666666668</ele><time>2026-04-28T14:17:45.022Z</time></trkpt><trkpt lat="38.3684463" lon="22.1134631"><ele>24.0</ele><time>2026-04-28T14:17:46.024Z</time></trkpt><trkpt lat="38.3685048" lon="22.1131932"><ele>24.666666666666664</ele><time>2026-04-28T14:17:47.023Z</time></trkpt><trkpt lat="38.3685621" lon="22.1129273"><ele>25.333333333333332</ele><time>2026-04-28T14:17:48.024Z</time></trkpt><trkpt lat="38.3686172" lon="22.1126696"><ele>26.0</ele><time>2026-04-28T14:17:49.024Z</time></trkpt><trkpt lat="38.3686739" lon="22.1124165"><ele>25.333333333333332</ele><time>2026-04-28T14:17:50.024Z</time></trkpt><trkpt lat="38.3687319" lon="22.1121652"><ele>24.666666666666664</ele><time>2026-04-28T14:17:51.021Z</time></trkpt><trkpt lat="38.368809" lon="22.111915"><ele>24.0</ele><time>2026-04-28T14:17:52.019Z</time></trkpt><trkpt lat="38.3688841" lon="22.1116686"><ele>26.0</ele><time>2026-04-28T14:17:53.024Z</time></trkpt><trkpt lat="38.3689806" lon="22.1114365"><ele>28.0</ele><time>2026-04-28T14:17:54.024Z</time></trkpt><trkpt lat="38.3690925" lon="22.1112167"><ele>30.0</ele><time>2026-04-28T14:17:55.022Z</time></trkpt><trkpt lat="38.3692209" lon="22.1110046"><ele>30.0</ele><time>2026-04-28T14:17:56.024Z</time></trkpt><trkpt lat="38.36936" lon="22.1108027"><ele>30.0</ele><time>2026-04-28T14:17:57.022Z</time></trkpt><trkpt lat="38.3695034" lon="22.1106037"><ele>30.0</ele><time>2026-04-28T14:17:58.022Z</time></trkpt><trkpt lat="38.3696551" lon="22.1104033"><ele>27.666666666666668</ele><time>2026-04-28T14:17:59.022Z</time></trkpt><trkpt lat="38.3698069" lon="22.1102017"><ele>25.333333333333336</ele><time>2026-04-28T14:18:00.024Z</time></trkpt><trkpt lat="38.3699575" lon="22.1099992"><ele>23.0</ele><time>2026-04-28T14:18:01.023Z</time></trkpt><trkpt lat="38.3701042" lon="22.1098014"><ele>23.0</ele><time>2026-04-28T14:18:02.023Z</time></trkpt><trkpt lat="38.3702539" lon="22.1096123"><ele>23.0</ele><time>2026-04-28T14:18:03.024Z</time></trkpt><trkpt lat="38.3703971" lon="22.109426"><ele>23.0</ele><time>2026-04-28T14:18:04.02Z</time></trkpt><trkpt lat="38.3705328" lon="22.1092413"><ele>26.333333333333336</ele><time>2026-04-28T14:18:05.023Z</time></trkpt><trkpt lat="38.3706622" lon="22.1090646"><ele>29.666666666666668</ele><time>2026-04-28T14:18:06.022Z</time></trkpt><trkpt lat="38.3707762" lon="22.1088845"><ele>33.0</ele><time>2026-04-28T14:18:07.022Z</time></trkpt><trkpt lat="38.3708832" lon="22.1086962"><ele>33.0</ele><time>2026-04-28T14:18:08.023Z</time></trkpt><trkpt lat="38.3709748" lon="22.1084967"><ele>33.0</ele><time>2026-04-28T14:18:09.022Z</time></trkpt><trkpt lat="38.3710433" lon="22.1082815"><ele>33.0</ele><time>2026-04-28T14:18:10.022Z</time></trkpt><trkpt lat="38.37109" lon="22.1080569"><ele>33.333333333333336</ele><time>2026-04-28T14:18:11.024Z</time></trkpt><trkpt lat="38.3711107" lon="22.1078245"><ele>33.66666666666667</ele><time>2026-04-28T14:18:12.022Z</time></trkpt><trkpt lat="38.3711027" lon="22.1075858"><ele>34.0</ele><time>2026-04-28T14:18:13.023Z</time></trkpt><trkpt lat="38.3710775" lon="22.1073444"><ele>37.333333333333336</ele><time>2026-04-28T14:18:14.024Z</time></trkpt><trkpt lat="38.3710361" lon="22.1071057"><ele>40.666666666666664</ele><time>2026-04-28T14:18:15.022Z</time></trkpt><trkpt lat="38.3709819" lon="22.1068685"><ele>44.0</ele><time>2026-04-28T14:18:16.024Z</time></trkpt><trkpt lat="38.3709256" lon="22.1066386"><ele>46.33333333333333</ele><time>2026-04-28T14:18:17.024Z</time></trkpt><trkpt lat="38.3708735" lon="22.1064269"><ele>48.666666666666664</ele><time>2026-04-28T14:18:18.024Z</time></trkpt><trkpt lat="38.3708215" lon="22.1062228"><ele>51.0</ele><time>2026-04-28T14:18:19.023Z</time></trkpt><trkpt lat="38.3707728" lon="22.1060239"><ele>51.0</ele><time>2026-04-28T14:18:20.021Z</time></trkpt><trkpt lat="38.3707282" lon="22.1058287"><ele>51.0</ele><time>2026-04-28T14:18:21.023Z</time></trkpt><trkpt lat="38.370709" lon="22.1056316"><ele>51.0</ele><time>2026-04-28T14:18:22.021Z</time></trkpt><trkpt lat="38.3707014" lon="22.1054446"><ele>50.66666666666667</ele><time>2026-04-28T14:18:23.021Z</time></trkpt><trkpt lat="38.3707224" lon="22.1052374"><ele>50.333333333333336</ele><time>2026-04-28T14:18:24.023Z</time></trkpt><trkpt lat="38.3707795" lon="22.1050437"><ele>50.0</ele><time>2026-04-28T14:18:25.023Z</time></trkpt><trkpt lat="38.3708505" lon="22.1048656"><ele>45.333333333333336</ele><time>2026-04-28T14:18:26.023Z</time></trkpt><trkpt lat="38.3709503" lon="22.1047064"><ele>40.66666666666667</ele><time>2026-04-28T14:18:27.023Z</time></trkpt><trkpt lat="38.3710653" lon="22.1045662"><ele>36.0</ele><time>2026-04-28T14:18:28.022Z</time></trkpt><trkpt lat="38.3711946" lon="22.1044373"><ele>36.0</ele><time>2026-04-28T14:18:29.02Z</time></trkpt><trkpt lat="38.3713286" lon="22.104313"><ele>36.0</ele><time>2026-04-28T14:18:30.024Z</time></trkpt><trkpt lat="38.3714603" lon="22.1041862"><ele>36.0</ele><time>2026-04-28T14:18:31.024Z</time></trkpt><trkpt lat="38.3715807" lon="22.104046"><ele>35.333333333333336</ele><time>2026-04-28T14:18:32.024Z</time></trkpt><trkpt lat="38.3716879" lon="22.1038906"><ele>34.66666666666667</ele><time>2026-04-28T14:18:33.023Z</time></trkpt><trkpt lat="38.3717742" lon="22.1037214"><ele>34.0</ele><time>2026-04-28T14:18:34.023Z</time></trkpt><trkpt lat="38.3718325" lon="22.1035329"><ele>34.0</ele><time>2026-04-28T14:18:35.021Z</time></trkpt><trkpt lat="38.3718615" lon="22.103324"><ele>34.0</ele><time>2026-04-28T14:18:36.024Z</time></trkpt><trkpt lat="38.3718604" lon="22.1030906"><ele>34.0</ele><time>2026-04-28T14:18:37.022Z</time></trkpt><trkpt lat="38.371835" lon="22.1028276"><ele>34.5</ele><time>2026-04-28T14:18:38.02Z</time></trkpt><trkpt lat="38.3717875" lon="22.1025294"><ele>35.0</ele><time>2026-04-28T14:18:39.024Z</time></trkpt><trkpt lat="38.3717368" lon="22.1022098"><ele>36.5</ele><time>2026-04-28T14:18:40.024Z</time></trkpt><trkpt lat="38.3716983" lon="22.1018968"><ele>38.0</ele><time>2026-04-28T14:18:41.023Z</time></trkpt><trkpt lat="38.3716583" lon="22.1015981"><ele>39.33333333333333</ele><time>2026-04-28T14:18:42.023Z</time></trkpt><trkpt lat="38.3716123" lon="22.101316"><ele>40.666666666666664</ele><time>2026-04-28T14:18:43.023Z</time></trkpt><trkpt lat="38.3715476" lon="22.1010587"><ele>42.0</ele><time>2026-04-28T14:18:44.024Z</time></trkpt><trkpt lat="38.3714591" lon="22.1008208"><ele>35.666666666666664</ele><time>2026-04-28T14:18:45.024Z</time></trkpt><trkpt lat="38.3713522" lon="22.1006108"><ele>29.333333333333336</ele><time>2026-04-28T14:18:46.022Z</time></trkpt><trkpt lat="38.371243" lon="22.100415"><ele>23.0</ele><time>2026-04-28T14:18:47.022Z</time></trkpt><trkpt lat="38.3711433" lon="22.1002306"><ele>23.0</ele><time>2026-04-28T14:18:48.023Z</time></trkpt><trkpt lat="38.3710423" lon="22.1000348"><ele>23.0</ele><time>2026-04-28T14:18:49.023Z</time></trkpt><trkpt lat="38.3709721" lon="22.0998134"><ele>23.0</ele><time>2026-04-28T14:18:50.023Z</time></trkpt><trkpt lat="38.3709411" lon="22.0995719"><ele>23.333333333333336</ele><time>2026-04-28T14:18:51.023Z</time></trkpt><trkpt lat="38.3709028" lon="22.0993432"><ele>23.666666666666668</ele><time>2026-04-28T14:18:52.022Z</time></trkpt><trkpt lat="38.3708987" lon="22.0991038"><ele>24.0</ele><time>2026-04-28T14:18:53.024Z</time></trkpt><trkpt lat="38.3708824" lon="22.0988712"><ele>24.0</ele><time>2026-04-28T14:18:54.024Z</time></trkpt><trkpt lat="38.3709344" lon="22.0986037"><ele>24.0</ele><time>2026-04-28T14:18:55.022Z</time></trkpt><trkpt lat="38.3709705" lon="22.0983602"><ele>24.0</ele><time>2026-04-28T14:18:56.022Z</time></trkpt><trkpt lat="38.3710071" lon="22.0981424"><ele>19.666666666666668</ele><time>2026-04-28T14:18:57.023Z</time></trkpt><trkpt lat="38.371057" lon="22.0979394"><ele>15.333333333333332</ele><time>2026-04-28T14:18:58.023Z</time></trkpt><trkpt lat="38.3711167" lon="22.0977481"><ele>11.0</ele><time>2026-04-28T14:18:59.023Z</time></trkpt><trkpt lat="38.3712013" lon="22.0975783"><ele>11.0</ele><time>2026-04-28T14:19:00.023Z</time></trkpt><trkpt lat="38.3713171" lon="22.0974391"><ele>11.0</ele><time>2026-04-28T14:19:01.024Z</time></trkpt><trkpt lat="38.3714451" lon="22.0973278"><ele>11.0</ele><time>2026-04-28T14:19:02.021Z</time></trkpt><trkpt lat="38.3715963" lon="22.0972615"><ele>10.0</ele><time>2026-04-28T14:19:03.024Z</time></trkpt><trkpt lat="38.3717669" lon="22.0972271"><ele>9.0</ele><time>2026-04-28T14:19:04.023Z</time></trkpt><trkpt lat="38.371935" lon="22.097209"><ele>8.0</ele><time>2026-04-28T14:19:05.023Z</time></trkpt><trkpt lat="38.3721563" lon="22.0972325"><ele>7.666666666666666</ele><time>2026-04-28T14:19:06.022Z</time></trkpt><trkpt lat="38.3723694" lon="22.0972616"><ele>7.333333333333334</ele><time>2026-04-28T14:19:07.023Z</time></trkpt><trkpt lat="38.3725825" lon="22.097278"><ele>7.0</ele><time>2026-04-28T14:19:08.023Z</time></trkpt><trkpt lat="38.3727866" lon="22.0973011"><ele>7.0</ele><time>2026-04-28T14:19:09.024Z</time></trkpt><trkpt lat="38.3729829" lon="22.097333"><ele>7.0</ele><time>2026-04-28T14:19:10.024Z</time></trkpt><trkpt lat="38.3731729" lon="22.0973612"><ele>7.0</ele><time>2026-04-28T14:19:11.022Z</time></trkpt><trkpt lat="38.3733586" lon="22.0974076"><ele>9.0</ele><time>2026-04-28T14:19:12.022Z</time></trkpt><trkpt lat="38.3735381" lon="22.09748"><ele>11.0</ele><time>2026-04-28T14:19:13.023Z</time></trkpt><trkpt lat="38.3737167" lon="22.0975688"><ele>13.0</ele><time>2026-04-28T14:19:14.024Z</time></trkpt><trkpt lat="38.3738909" lon="22.0976648"><ele>13.0</ele><time>2026-04-28T14:19:15.024Z</time></trkpt><trkpt lat="38.3740618" lon="22.0977554"><ele>13.0</ele><time>2026-04-28T14:19:16.023Z</time></trkpt><trkpt lat="38.3742361" lon="22.0978397"><ele>13.0</ele><time>2026-04-28T14:19:17.024Z</time></trkpt><trkpt lat="38.3744083" lon="22.0978988"><ele>13.0</ele><time>2026-04-28T14:19:18.024Z</time></trkpt><trkpt lat="38.3745824" lon="22.0979307"><ele>13.0</ele><time>2026-04-28T14:19:19.023Z</time></trkpt><trkpt lat="38.3747547" lon="22.0979281"><ele>13.0</ele><time>2026-04-28T14:19:20.023Z</time></trkpt><trkpt lat="38.3749272" lon="22.0979051"><ele>12.0</ele><time>2026-04-28T14:19:21.024Z</time></trkpt><trkpt lat="38.3750995" lon="22.0978523"><ele>11.0</ele><time>2026-04-28T14:19:22.021Z</time></trkpt><trkpt lat="38.3752677" lon="22.0977683"><ele>10.0</ele><time>2026-04-28T14:19:23.024Z</time></trkpt><trkpt lat="38.3754348" lon="22.0976509"><ele>11.0</ele><time>2026-04-28T14:19:24.023Z</time></trkpt><trkpt lat="38.3755934" lon="22.0974911"><ele>12.0</ele><time>2026-04-28T14:19:25.02Z</time></trkpt><trkpt lat="38.3757466" lon="22.0972964"><ele>13.0</ele><time>2026-04-28T14:19:26.022Z</time></trkpt><trkpt lat="38.3758933" lon="22.0970785"><ele>13.0</ele><time>2026-04-28T14:19:27.024Z</time></trkpt><trkpt lat="38.376037" lon="22.0968273"><ele>13.0</ele><time>2026-04-28T14:19:28.021Z</time></trkpt><trkpt lat="38.3761964" lon="22.0965772"><ele>17.5</ele><time>2026-04-28T14:19:29.024Z</time></trkpt><trkpt lat="38.3763605" lon="22.0963326"><ele>22.0</ele><time>2026-04-28T14:19:30.024Z</time></trkpt><trkpt lat="38.3765235" lon="22.0960905"><ele>22.0</ele><time>2026-04-28T14:19:31.023Z</time></trkpt><trkpt lat="38.3766903" lon="22.0958471"><ele>22.0</ele><time>2026-04-28T14:19:32.024Z</time></trkpt><trkpt lat="38.3768503" lon="22.0955989"><ele>19.5</ele><time>2026-04-28T14:19:33.023Z</time></trkpt><trkpt lat="38.3770037" lon="22.0953578"><ele>17.0</ele><time>2026-04-28T14:19:34.023Z</time></trkpt><trkpt lat="38.3771577" lon="22.0951216"><ele>21.0</ele><time>2026-04-28T14:19:35.023Z</time></trkpt><trkpt lat="38.3773038" lon="22.0949023"><ele>25.0</ele><time>2026-04-28T14:19:36.023Z</time></trkpt><trkpt lat="38.3774469" lon="22.0946949"><ele>29.0</ele><time>2026-04-28T14:19:37.023Z</time></trkpt><trkpt lat="38.3775941" lon="22.094518"><ele>29.0</ele><time>2026-04-28T14:19:38.02Z</time></trkpt><trkpt lat="38.3777555" lon="22.0943628"><ele>29.0</ele><time>2026-04-28T14:19:39.024Z</time></trkpt><trkpt lat="38.3779295" lon="22.094244"><ele>29.0</ele><time>2026-04-28T14:19:40.022Z</time></trkpt><trkpt lat="38.3781168" lon="22.0941476"><ele>29.0</ele><time>2026-04-28T14:19:41.024Z</time></trkpt><trkpt lat="38.378321" lon="22.0940641"><ele>29.0</ele><time>2026-04-28T14:19:42.021Z</time></trkpt><trkpt lat="38.3785386" lon="22.0939993"><ele>29.0</ele><time>2026-04-28T14:19:43.024Z</time></trkpt><trkpt lat="38.3787636" lon="22.0939392"><ele>31.5</ele><time>2026-04-28T14:19:44.024Z</time></trkpt><trkpt lat="38.3789967" lon="22.093874"><ele>34.0</ele><time>2026-04-28T14:19:45.024Z</time></trkpt><trkpt lat="38.3792337" lon="22.0938074"><ele>34.0</ele><time>2026-04-28T14:19:46.024Z</time></trkpt><trkpt lat="38.3794754" lon="22.0937406"><ele>34.0</ele><time>2026-04-28T14:19:47.023Z</time></trkpt><trkpt lat="38.3797164" lon="22.0936748"><ele>37.0</ele><time>2026-04-28T14:19:48.024Z</time></trkpt><trkpt lat="38.3799502" lon="22.093597"><ele>40.0</ele><time>2026-04-28T14:19:49.024Z</time></trkpt><trkpt lat="38.3801798" lon="22.0935009"><ele>40.0</ele><time>2026-04-28T14:19:50.024Z</time></trkpt><trkpt lat="38.3804073" lon="22.0933806"><ele>40.0</ele><time>2026-04-28T14:19:51.022Z</time></trkpt><trkpt lat="38.3806307" lon="22.0932364"><ele>41.0</ele><time>2026-04-28T14:19:52.024Z</time></trkpt><trkpt lat="38.3808467" lon="22.0930715"><ele>42.0</ele><time>2026-04-28T14:19:53.024Z</time></trkpt><trkpt lat="38.3810492" lon="22.0928858"><ele>42.0</ele><time>2026-04-28T14:19:54.024Z</time></trkpt><trkpt lat="38.3812316" lon="22.0926781"><ele>42.0</ele><time>2026-04-28T14:19:55.024Z</time></trkpt><trkpt lat="38.3814038" lon="22.0924496"><ele>45.0</ele><time>2026-04-28T14:19:56.022Z</time></trkpt><trkpt lat="38.381568" lon="22.0922138"><ele>48.0</ele><time>2026-04-28T14:19:57.023Z</time></trkpt><trkpt lat="38.3817315" lon="22.091976"><ele>48.0</ele><time>2026-04-28T14:19:58.023Z</time></trkpt><trkpt lat="38.3818916" lon="22.0917319"><ele>48.0</ele><time>2026-04-28T14:19:59.024Z</time></trkpt><trkpt lat="38.3820506" lon="22.0914889"><ele>49.0</ele><time>2026-04-28T14:20:00.024Z</time></trkpt><trkpt lat="38.3822091" lon="22.0912544"><ele>50.0</ele><time>2026-04-28T14:20:01.024Z</time></trkpt><trkpt lat="38.3823643" lon="22.0910161"><ele>50.0</ele><time>2026-04-28T14:20:02.023Z</time></trkpt><trkpt lat="38.3825199" lon="22.0907824"><ele>50.0</ele><time>2026-04-28T14:20:03.024Z</time></trkpt><trkpt lat="38.3826731" lon="22.0905531"><ele>48.5</ele><time>2026-04-28T14:20:04.023Z</time></trkpt><trkpt lat="38.3828313" lon="22.090317"><ele>47.0</ele><time>2026-04-28T14:20:05.023Z</time></trkpt><trkpt lat="38.3829855" lon="22.09008"><ele>48.0</ele><time>2026-04-28T14:20:06.022Z</time></trkpt><trkpt lat="38.3831419" lon="22.0898441"><ele>49.0</ele><time>2026-04-28T14:20:07.023Z</time></trkpt><trkpt lat="38.3832989" lon="22.0896103"><ele>49.0</ele><time>2026-04-28T14:20:08.024Z</time></trkpt><trkpt lat="38.3834569" lon="22.0893706"><ele>49.0</ele><time>2026-04-28T14:20:09.023Z</time></trkpt><trkpt lat="38.3836148" lon="22.0891371"><ele>48.0</ele><time>2026-04-28T14:20:10.023Z</time></trkpt><trkpt lat="38.3837721" lon="22.0888965"><ele>47.0</ele><time>2026-04-28T14:20:11.023Z</time></trkpt><trkpt lat="38.3839277" lon="22.0886526"><ele>48.0</ele><time>2026-04-28T14:20:12.023Z</time></trkpt><trkpt lat="38.3840835" lon="22.0884047"><ele>49.0</ele><time>2026-04-28T14:20:13.023Z</time></trkpt><trkpt lat="38.3842379" lon="22.0881541"><ele>49.0</ele><time>2026-04-28T14:20:14.024Z</time></trkpt><trkpt lat="38.3843864" lon="22.0878912"><ele>49.0</ele><time>2026-04-28T14:20:15.023Z</time></trkpt><trkpt lat="38.3845428" lon="22.0876119"><ele>48.0</ele><time>2026-04-28T14:20:16.024Z</time></trkpt><trkpt lat="38.3847016" lon="22.0873223"><ele>47.0</ele><time>2026-04-28T14:20:17.023Z</time></trkpt><trkpt lat="38.3848582" lon="22.0870272"><ele>47.0</ele><time>2026-04-28T14:20:18.024Z</time></trkpt><trkpt lat="38.3850098" lon="22.0867324"><ele>47.0</ele><time>2026-04-28T14:20:19.024Z</time></trkpt><trkpt lat="38.3851562" lon="22.0864385"><ele>45.0</ele><time>2026-04-28T14:20:20.022Z</time></trkpt><trkpt lat="38.3852983" lon="22.0861478"><ele>43.0</ele><time>2026-04-28T14:20:21.024Z</time></trkpt><trkpt lat="38.3854335" lon="22.0858584"><ele>44.5</ele><time>2026-04-28T14:20:22.024Z</time></trkpt><trkpt lat="38.3855638" lon="22.0855665"><ele>46.0</ele><time>2026-04-28T14:20:23.024Z</time></trkpt><trkpt lat="38.3856914" lon="22.0852679"><ele>46.0</ele><time>2026-04-28T14:20:24.024Z</time></trkpt><trkpt lat="38.3858152" lon="22.0849712"><ele>46.0</ele><time>2026-04-28T14:20:25.023Z</time></trkpt><trkpt lat="38.385939" lon="22.0846691"><ele>44.0</ele><time>2026-04-28T14:20:26.024Z</time></trkpt><trkpt lat="38.3860616" lon="22.0843518"><ele>42.0</ele><time>2026-04-28T14:20:27.021Z</time></trkpt><trkpt lat="38.3861817" lon="22.0840304"><ele>38.5</ele><time>2026-04-28T14:20:28.022Z</time></trkpt><trkpt lat="38.3863025" lon="22.0837087"><ele>35.0</ele><time>2026-04-28T14:20:29.023Z</time></trkpt><trkpt lat="38.3864241" lon="22.0833828"><ele>42.0</ele><time>2026-04-28T14:20:30.024Z</time></trkpt><trkpt lat="38.3865456" lon="22.0830598"><ele>49.0</ele><time>2026-04-28T14:20:31.022Z</time></trkpt><trkpt lat="38.3866689" lon="22.0827412"><ele>46.5</ele><time>2026-04-28T14:20:32.021Z</time></trkpt><trkpt lat="38.3867901" lon="22.0824273"><ele>44.0</ele><time>2026-04-28T14:20:33.021Z</time></trkpt><trkpt lat="38.3869273" lon="22.0821056"><ele>44.0</ele><time>2026-04-28T14:20:34.02Z</time></trkpt><trkpt lat="38.3870534" lon="22.0817995"><ele>44.0</ele><time>2026-04-28T14:20:35.022Z</time></trkpt><trkpt lat="38.387177" lon="22.0815009"><ele>59.5</ele><time>2026-04-28T14:20:36.022Z</time></trkpt><trkpt lat="38.3872886" lon="22.0812006"><ele>75.0</ele><time>2026-04-28T14:20:37.022Z</time></trkpt><trkpt lat="38.3874069" lon="22.0809083"><ele>72.5</ele><time>2026-04-28T14:20:38.022Z</time></trkpt><trkpt lat="38.3875262" lon="22.0806215"><ele>70.0</ele><time>2026-04-28T14:20:39.024Z</time></trkpt><trkpt lat="38.3876444" lon="22.0803279"><ele>70.0</ele><time>2026-04-28T14:20:40.023Z</time></trkpt><trkpt lat="38.3877651" lon="22.0800276"><ele>70.0</ele><time>2026-04-28T14:20:41.024Z</time></trkpt><trkpt lat="38.3878849" lon="22.0797246"><ele>84.0</ele><time>2026-04-28T14:20:42.023Z</time></trkpt><trkpt lat="38.3880109" lon="22.0794174"><ele>98.0</ele><time>2026-04-28T14:20:43.023Z</time></trkpt><trkpt lat="38.3881337" lon="22.0791129"><ele>94.5</ele><time>2026-04-28T14:20:44.022Z</time></trkpt><trkpt lat="38.3882509" lon="22.0788067"><ele>91.0</ele><time>2026-04-28T14:20:45.023Z</time></trkpt><trkpt lat="38.388368" lon="22.0785024"><ele>88.5</ele><time>2026-04-28T14:20:46.022Z</time></trkpt><trkpt lat="38.3884876" lon="22.0782017"><ele>86.0</ele><time>2026-04-28T14:20:47.021Z</time></trkpt><trkpt lat="38.3886006" lon="22.077901"><ele>86.0</ele><time>2026-04-28T14:20:48.019Z</time></trkpt><trkpt lat="38.3887177" lon="22.077607"><ele>86.0</ele><time>2026-04-28T14:20:49.023Z</time></trkpt><trkpt lat="38.38884" lon="22.0773227"><ele>96.0</ele><time>2026-04-28T14:20:50.02Z</time></trkpt><trkpt lat="38.3889618" lon="22.0770436"><ele>106.0</ele><time>2026-04-28T14:20:51.023Z</time></trkpt><trkpt lat="38.3890942" lon="22.0767761"><ele>110.0</ele><time>2026-04-28T14:20:52.024Z</time></trkpt><trkpt lat="38.3892333" lon="22.0765142"><ele>114.0</ele><time>2026-04-28T14:20:53.024Z</time></trkpt><trkpt lat="38.3893708" lon="22.0762564"><ele>114.0</ele><time>2026-04-28T14:20:54.024Z</time></trkpt><trkpt lat="38.3895103" lon="22.0760035"><ele>114.0</ele><time>2026-04-28T14:20:55.023Z</time></trkpt><trkpt lat="38.3896573" lon="22.0757603"><ele>113.0</ele><time>2026-04-28T14:20:56.023Z</time></trkpt><trkpt lat="38.3898018" lon="22.0755123"><ele>112.0</ele><time>2026-04-28T14:20:57.023Z</time></trkpt><trkpt lat="38.3899525" lon="22.0752693"><ele>112.0</ele><time>2026-04-28T14:20:58.021Z</time></trkpt><trkpt lat="38.3901077" lon="22.0750327"><ele>112.0</ele><time>2026-04-28T14:20:59.024Z</time></trkpt><trkpt lat="38.3902746" lon="22.0748072"><ele>111.0</ele><time>2026-04-28T14:21:00.024Z</time></trkpt><trkpt lat="38.3904455" lon="22.0745795"><ele>110.0</ele><time>2026-04-28T14:21:01.024Z</time></trkpt><trkpt lat="38.3906244" lon="22.0743543"><ele>107.0</ele><time>2026-04-28T14:21:02.021Z</time></trkpt><trkpt lat="38.3908003" lon="22.0741371"><ele>104.0</ele><time>2026-04-28T14:21:03.023Z</time></trkpt><trkpt lat="38.3909827" lon="22.0739226"><ele>103.0</ele><time>2026-04-28T14:21:04.023Z</time></trkpt><trkpt lat="38.3911668" lon="22.0737128"><ele>102.0</ele><time>2026-04-28T14:21:05.024Z</time></trkpt><trkpt lat="38.3913525" lon="22.0735042"><ele>102.0</ele><time>2026-04-28T14:21:06.023Z</time></trkpt><trkpt lat="38.3915408" lon="22.0733014"><ele>102.0</ele><time>2026-04-28T14:21:07.024Z</time></trkpt><trkpt lat="38.3917278" lon="22.0731038"><ele>95.5</ele><time>2026-04-28T14:21:08.023Z</time></trkpt><trkpt lat="38.3919141" lon="22.0729026"><ele>89.0</ele><time>2026-04-28T14:21:09.023Z</time></trkpt><trkpt lat="38.3920996" lon="22.072703"><ele>87.5</ele><time>2026-04-28T14:21:10.023Z</time></trkpt><trkpt lat="38.3922809" lon="22.0724968"><ele>86.0</ele><time>2026-04-28T14:21:11.023Z</time></trkpt><trkpt lat="38.3924566" lon="22.0722761"><ele>86.0</ele><time>2026-04-28T14:21:12.02Z</time></trkpt><trkpt lat="38.3926205" lon="22.072043"><ele>86.0</ele><time>2026-04-28T14:21:13.024Z</time></trkpt><trkpt lat="38.3927719" lon="22.0717906"><ele>78.0</ele><time>2026-04-28T14:21:14.022Z</time></trkpt><trkpt lat="38.3929058" lon="22.0715235"><ele>70.0</ele><time>2026-04-28T14:21:15.024Z</time></trkpt><trkpt lat="38.3930205" lon="22.0712415"><ele>79.5</ele><time>2026-04-28T14:21:16.023Z</time></trkpt><trkpt lat="38.3931128" lon="22.0709426"><ele>89.0</ele><time>2026-04-28T14:21:17.024Z</time></trkpt><trkpt lat="38.39318" lon="22.070632"><ele>89.0</ele><time>2026-04-28T14:21:18.024Z</time></trkpt><trkpt lat="38.3932259" lon="22.0703072"><ele>89.0</ele><time>2026-04-28T14:21:19.024Z</time></trkpt><trkpt lat="38.3932526" lon="22.069977"><ele>84.5</ele><time>2026-04-28T14:21:20.023Z</time></trkpt><trkpt lat="38.3932623" lon="22.069646"><ele>80.0</ele><time>2026-04-28T14:21:21.023Z</time></trkpt><trkpt lat="38.3932624" lon="22.0693136"><ele>79.5</ele><time>2026-04-28T14:21:22.024Z</time></trkpt><trkpt lat="38.3932581" lon="22.0689818"><ele>79.0</ele><time>2026-04-28T14:21:23.024Z</time></trkpt><trkpt lat="38.3932513" lon="22.0686545"><ele>79.0</ele><time>2026-04-28T14:21:24.024Z</time></trkpt><trkpt lat="38.3932428" lon="22.0683316"><ele>79.0</ele><time>2026-04-28T14:21:25.021Z</time></trkpt><trkpt lat="38.3932356" lon="22.0680175"><ele>78.0</ele><time>2026-04-28T14:21:26.024Z</time></trkpt><trkpt lat="38.3932316" lon="22.0677119"><ele>77.0</ele><time>2026-04-28T14:21:27.024Z</time></trkpt><trkpt lat="38.3932283" lon="22.0674164"><ele>74.0</ele><time>2026-04-28T14:21:28.024Z</time></trkpt><trkpt lat="38.3932282" lon="22.0671248"><ele>71.0</ele><time>2026-04-28T14:21:29.024Z</time></trkpt><trkpt lat="38.3932332" lon="22.0668336"><ele>69.0</ele><time>2026-04-28T14:21:30.021Z</time></trkpt><trkpt lat="38.3932447" lon="22.0665461"><ele>67.0</ele><time>2026-04-28T14:21:31.024Z</time></trkpt><trkpt lat="38.3932683" lon="22.066261"><ele>67.0</ele><time>2026-04-28T14:21:32.022Z</time></trkpt><trkpt lat="38.3933006" lon="22.0659796"><ele>67.0</ele><time>2026-04-28T14:21:33.022Z</time></trkpt><trkpt lat="38.393342" lon="22.0657009"><ele>67.0</ele><time>2026-04-28T14:21:34.021Z</time></trkpt><trkpt lat="38.393393" lon="22.0654249"><ele>65.33333333333333</ele><time>2026-04-28T14:21:35.024Z</time></trkpt><trkpt lat="38.3934539" lon="22.0651495"><ele>63.66666666666667</ele><time>2026-04-28T14:21:36.023Z</time></trkpt><trkpt lat="38.3935179" lon="22.0648795"><ele>62.0</ele><time>2026-04-28T14:21:37.023Z</time></trkpt><trkpt lat="38.3935902" lon="22.0646162"><ele>57.5</ele><time>2026-04-28T14:21:38.024Z</time></trkpt><trkpt lat="38.3936761" lon="22.0643536"><ele>53.0</ele><time>2026-04-28T14:21:39.023Z</time></trkpt><trkpt lat="38.3937804" lon="22.0640817"><ele>55.0</ele><time>2026-04-28T14:21:40.023Z</time></trkpt><trkpt lat="38.3939104" lon="22.0638089"><ele>57.0</ele><time>2026-04-28T14:21:41.024Z</time></trkpt><trkpt lat="38.3940608" lon="22.0635301"><ele>52.0</ele><time>2026-04-28T14:21:42.019Z</time></trkpt><trkpt lat="38.3942256" lon="22.0632566"><ele>47.0</ele><time>2026-04-28T14:21:43.024Z</time></trkpt><trkpt lat="38.3943876" lon="22.0629908"><ele>47.0</ele><time>2026-04-28T14:21:44.023Z</time></trkpt><trkpt lat="38.3945447" lon="22.0627327"><ele>47.0</ele><time>2026-04-28T14:21:45.022Z</time></trkpt><trkpt lat="38.3946969" lon="22.0624762"><ele>45.0</ele><time>2026-04-28T14:21:46.024Z</time></trkpt><trkpt lat="38.3948461" lon="22.062221"><ele>43.0</ele><time>2026-04-28T14:21:47.022Z</time></trkpt><trkpt lat="38.3949904" lon="22.0619631"><ele>43.0</ele><time>2026-04-28T14:21:48.024Z</time></trkpt><trkpt lat="38.3951232" lon="22.061698"><ele>43.0</ele><time>2026-04-28T14:21:49.024Z</time></trkpt><trkpt lat="38.3952414" lon="22.0614186"><ele>39.0</ele><time>2026-04-28T14:21:50.023Z</time></trkpt><trkpt lat="38.3953449" lon="22.0611223"><ele>35.0</ele><time>2026-04-28T14:21:51.024Z</time></trkpt><trkpt lat="38.3954263" lon="22.060813"><ele>34.5</ele><time>2026-04-28T14:21:52.023Z</time></trkpt><trkpt lat="38.395486" lon="22.0604927"><ele>34.0</ele><time>2026-04-28T14:21:53.024Z</time></trkpt><trkpt lat="38.3955188" lon="22.0601623"><ele>35.0</ele><time>2026-04-28T14:21:54.024Z</time></trkpt><trkpt lat="38.3955253" lon="22.0598277"><ele>36.0</ele><time>2026-04-28T14:21:55.024Z</time></trkpt><trkpt lat="38.3955157" lon="22.0594895"><ele>33.0</ele><time>2026-04-28T14:21:56.021Z</time></trkpt><trkpt lat="38.3954992" lon="22.0591504"><ele>30.0</ele><time>2026-04-28T14:21:57.024Z</time></trkpt><trkpt lat="38.3954806" lon="22.0588132"><ele>27.0</ele><time>2026-04-28T14:21:58.022Z</time></trkpt><trkpt lat="38.3954596" lon="22.0584766"><ele>24.0</ele><time>2026-04-28T14:21:59.023Z</time></trkpt><trkpt lat="38.3954378" lon="22.0581403"><ele>22.5</ele><time>2026-04-28T14:22:00.021Z</time></trkpt><trkpt lat="38.3954167" lon="22.0578045"><ele>21.0</ele><time>2026-04-28T14:22:01.023Z</time></trkpt><trkpt lat="38.3953957" lon="22.0574686"><ele>20.0</ele><time>2026-04-28T14:22:02.023Z</time></trkpt><trkpt lat="38.3953749" lon="22.0571354"><ele>19.0</ele><time>2026-04-28T14:22:03.023Z</time></trkpt><trkpt lat="38.3953534" lon="22.0568013"><ele>20.0</ele><time>2026-04-28T14:22:04.022Z</time></trkpt><trkpt lat="38.395331" lon="22.0564643"><ele>21.0</ele><time>2026-04-28T14:22:05.024Z</time></trkpt><trkpt lat="38.395306" lon="22.0561257"><ele>21.0</ele><time>2026-04-28T14:22:06.024Z</time></trkpt><trkpt lat="38.3952809" lon="22.0557837"><ele>21.0</ele><time>2026-04-28T14:22:07.022Z</time></trkpt><trkpt lat="38.3952568" lon="22.055437"><ele>21.0</ele><time>2026-04-28T14:22:08.024Z</time></trkpt><trkpt lat="38.3952354" lon="22.0550847"><ele>21.0</ele><time>2026-04-28T14:22:09.023Z</time></trkpt><trkpt lat="38.3952197" lon="22.0547363"><ele>20.0</ele><time>2026-04-28T14:22:10.022Z</time></trkpt><trkpt lat="38.3952179" lon="22.0543883"><ele>19.0</ele><time>2026-04-28T14:22:11.021Z</time></trkpt><trkpt lat="38.3952334" lon="22.0540373"><ele>15.5</ele><time>2026-04-28T14:22:12.023Z</time></trkpt><trkpt lat="38.3952528" lon="22.0536932"><ele>12.0</ele><time>2026-04-28T14:22:13.022Z</time></trkpt><trkpt lat="38.3952729" lon="22.0533489"><ele>11.5</ele><time>2026-04-28T14:22:14.022Z</time></trkpt><trkpt lat="38.3952955" lon="22.053003"><ele>11.0</ele><time>2026-04-28T14:22:15.024Z</time></trkpt><trkpt lat="38.395318" lon="22.0526572"><ele>11.0</ele><time>2026-04-28T14:22:16.023Z</time></trkpt><trkpt lat="38.3953399" lon="22.0523106"><ele>11.0</ele><time>2026-04-28T14:22:17.023Z</time></trkpt><trkpt lat="38.3953589" lon="22.0519665"><ele>11.0</ele><time>2026-04-28T14:22:18.024Z</time></trkpt><trkpt lat="38.3953695" lon="22.0516252"><ele>11.0</ele><time>2026-04-28T14:22:19.023Z</time></trkpt><trkpt lat="38.3953712" lon="22.0512843"><ele>10.5</ele><time>2026-04-28T14:22:20.023Z</time></trkpt><trkpt lat="38.395358" lon="22.0509421"><ele>10.0</ele><time>2026-04-28T14:22:21.023Z</time></trkpt><trkpt lat="38.3953339" lon="22.0506026"><ele>12.5</ele><time>2026-04-28T14:22:22.024Z</time></trkpt><trkpt lat="38.3953016" lon="22.0502686"><ele>15.0</ele><time>2026-04-28T14:22:23.021Z</time></trkpt><trkpt lat="38.3952657" lon="22.0499364"><ele>16.5</ele><time>2026-04-28T14:22:24.024Z</time></trkpt><trkpt lat="38.3952281" lon="22.0496006"><ele>18.0</ele><time>2026-04-28T14:22:25.024Z</time></trkpt><trkpt lat="38.3951907" lon="22.0492677"><ele>21.0</ele><time>2026-04-28T14:22:26.022Z</time></trkpt><trkpt lat="38.3951662" lon="22.0489364"><ele>24.0</ele><time>2026-04-28T14:22:27.023Z</time></trkpt><trkpt lat="38.3951315" lon="22.0486137"><ele>24.0</ele><time>2026-04-28T14:22:28.024Z</time></trkpt><trkpt lat="38.3950974" lon="22.0483003"><ele>24.0</ele><time>2026-04-28T14:22:29.023Z</time></trkpt><trkpt lat="38.3950749" lon="22.0479981"><ele>26.0</ele><time>2026-04-28T14:22:30.024Z</time></trkpt><trkpt lat="38.3950695" lon="22.0477043"><ele>28.0</ele><time>2026-04-28T14:22:31.024Z</time></trkpt><trkpt lat="38.3950743" lon="22.0474032"><ele>29.5</ele><time>2026-04-28T14:22:32.021Z</time></trkpt><trkpt lat="38.3950862" lon="22.0470997"><ele>31.0</ele><time>2026-04-28T14:22:33.024Z</time></trkpt><trkpt lat="38.3951105" lon="22.0467989"><ele>30.5</ele><time>2026-04-28T14:22:34.022Z</time></trkpt><trkpt lat="38.3951295" lon="22.046495"><ele>30.0</ele><time>2026-04-28T14:22:35.023Z</time></trkpt><trkpt lat="38.39515" lon="22.0461939"><ele>30.0</ele><time>2026-04-28T14:22:36.024Z</time></trkpt><trkpt lat="38.3951725" lon="22.0458921"><ele>30.0</ele><time>2026-04-28T14:22:37.024Z</time></trkpt><trkpt lat="38.3951946" lon="22.0455965"><ele>30.0</ele><time>2026-04-28T14:22:38.024Z</time></trkpt><trkpt lat="38.3952095" lon="22.0453135"><ele>30.0</ele><time>2026-04-28T14:22:39.023Z</time></trkpt><trkpt lat="38.39521" lon="22.0450475"><ele>30.0</ele><time>2026-04-28T14:22:40.023Z</time></trkpt><trkpt lat="38.3951865" lon="22.0447875"><ele>32.666666666666664</ele><time>2026-04-28T14:22:41.023Z</time></trkpt><trkpt lat="38.3951312" lon="22.0445474"><ele>35.33333333333333</ele><time>2026-04-28T14:22:42.02Z</time></trkpt><trkpt lat="38.395051" lon="22.0443306"><ele>38.0</ele><time>2026-04-28T14:22:43.022Z</time></trkpt><trkpt lat="38.3949679" lon="22.0441198"><ele>41.666666666666664</ele><time>2026-04-28T14:22:44.023Z</time></trkpt><trkpt lat="38.3948804" lon="22.0439231"><ele>45.33333333333333</ele><time>2026-04-28T14:22:45.023Z</time></trkpt><trkpt lat="38.3948246" lon="22.0437118"><ele>49.0</ele><time>2026-04-28T14:22:46.022Z</time></trkpt><trkpt lat="38.3947881" lon="22.043504"><ele>48.0</ele><time>2026-04-28T14:22:47.024Z</time></trkpt><trkpt lat="38.3947595" lon="22.0432837"><ele>47.0</ele><time>2026-04-28T14:22:48.023Z</time></trkpt><trkpt lat="38.3947717" lon="22.0430511"><ele>46.0</ele><time>2026-04-28T14:22:49.023Z</time></trkpt><trkpt lat="38.3948834" lon="22.042787"><ele>46.0</ele><time>2026-04-28T14:22:50.023Z</time></trkpt><trkpt lat="38.3949326" lon="22.0425403"><ele>46.0</ele><time>2026-04-28T14:22:51.024Z</time></trkpt><trkpt lat="38.3949686" lon="22.0422631"><ele>46.0</ele><time>2026-04-28T14:22:52.022Z</time></trkpt><trkpt lat="38.3949668" lon="22.0419703"><ele>45.0</ele><time>2026-04-28T14:22:53.022Z</time></trkpt><trkpt lat="38.3949511" lon="22.0416644"><ele>44.0</ele><time>2026-04-28T14:22:54.023Z</time></trkpt><trkpt lat="38.3948766" lon="22.041343"><ele>47.0</ele><time>2026-04-28T14:22:55.023Z</time></trkpt><trkpt lat="38.3947935" lon="22.0410062"><ele>50.0</ele><time>2026-04-28T14:22:56.023Z</time></trkpt><trkpt lat="38.3947126" lon="22.0406786"><ele>36.5</ele><time>2026-04-28T14:22:57.024Z</time></trkpt><trkpt lat="38.3946219" lon="22.0403582"><ele>23.0</ele><time>2026-04-28T14:22:58.024Z</time></trkpt><trkpt lat="38.3945256" lon="22.0400532"><ele>30.5</ele><time>2026-04-28T14:22:59.024Z</time></trkpt><trkpt lat="38.3944321" lon="22.0397743"><ele>38.0</ele><time>2026-04-28T14:23:00.022Z</time></trkpt><trkpt lat="38.39434" lon="22.039513"><ele>38.0</ele><time>2026-04-28T14:23:01.022Z</time></trkpt><trkpt lat="38.3942565" lon="22.0392708"><ele>38.0</ele><time>2026-04-28T14:23:02.021Z</time></trkpt><trkpt lat="38.3941741" lon="22.0390537"><ele>38.0</ele><time>2026-04-28T14:23:03.024Z</time></trkpt><trkpt lat="38.3940976" lon="22.0388445"><ele>40.0</ele><time>2026-04-28T14:23:04.023Z</time></trkpt><trkpt lat="38.3940469" lon="22.0386277"><ele>42.0</ele><time>2026-04-28T14:23:05.023Z</time></trkpt><trkpt lat="38.3940129" lon="22.0384097"><ele>44.0</ele><time>2026-04-28T14:23:06.023Z</time></trkpt><trkpt lat="38.3940201" lon="22.0381831"><ele>44.0</ele><time>2026-04-28T14:23:07.023Z</time></trkpt><trkpt lat="38.3940613" lon="22.0379374"><ele>44.0</ele><time>2026-04-28T14:23:08.02Z</time></trkpt><trkpt lat="38.3941303" lon="22.0376878"><ele>44.0</ele><time>2026-04-28T14:23:09.023Z</time></trkpt><trkpt lat="38.3941992" lon="22.037454"><ele>44.33333333333333</ele><time>2026-04-28T14:23:10.023Z</time></trkpt><trkpt lat="38.3942507" lon="22.0372006"><ele>44.666666666666664</ele><time>2026-04-28T14:23:11.023Z</time></trkpt><trkpt lat="38.394281" lon="22.0369012"><ele>45.0</ele><time>2026-04-28T14:23:12.021Z</time></trkpt><trkpt lat="38.3942987" lon="22.0365593"><ele>45.0</ele><time>2026-04-28T14:23:13.024Z</time></trkpt><trkpt lat="38.3942981" lon="22.0362096"><ele>45.0</ele><time>2026-04-28T14:23:14.023Z</time></trkpt><trkpt lat="38.3942789" lon="22.0358219"><ele>46.5</ele><time>2026-04-28T14:23:15.02Z</time></trkpt><trkpt lat="38.3942589" lon="22.0354425"><ele>48.0</ele><time>2026-04-28T14:23:16.021Z</time></trkpt><trkpt lat="38.3942305" lon="22.035074"><ele>49.0</ele><time>2026-04-28T14:23:17.024Z</time></trkpt><trkpt lat="38.3941872" lon="22.0347188"><ele>50.0</ele><time>2026-04-28T14:23:18.023Z</time></trkpt><trkpt lat="38.3941404" lon="22.0343783"><ele>51.0</ele><time>2026-04-28T14:23:19.023Z</time></trkpt><trkpt lat="38.3940973" lon="22.0340462"><ele>52.0</ele><time>2026-04-28T14:23:20.024Z</time></trkpt><trkpt lat="38.3940519" lon="22.0337218"><ele>52.0</ele><time>2026-04-28T14:23:21.022Z</time></trkpt><trkpt lat="38.3940039" lon="22.0334006"><ele>52.0</ele><time>2026-04-28T14:23:22.02Z</time></trkpt><trkpt lat="38.3939552" lon="22.0330787"><ele>53.0</ele><time>2026-04-28T14:23:23.024Z</time></trkpt><trkpt lat="38.3939061" lon="22.0327591"><ele>54.0</ele><time>2026-04-28T14:23:24.023Z</time></trkpt><trkpt lat="38.3938578" lon="22.0324388"><ele>35.5</ele><time>2026-04-28T14:23:25.023Z</time></trkpt><trkpt lat="38.3938104" lon="22.0321199"><ele>17.0</ele><time>2026-04-28T14:23:26.023Z</time></trkpt><trkpt lat="38.3937704" lon="22.0318054"><ele>17.5</ele><time>2026-04-28T14:23:27.022Z</time></trkpt><trkpt lat="38.3937341" lon="22.0314937"><ele>18.0</ele><time>2026-04-28T14:23:28.024Z</time></trkpt><trkpt lat="38.3936961" lon="22.031184"><ele>18.0</ele><time>2026-04-28T14:23:29.023Z</time></trkpt><trkpt lat="38.3936625" lon="22.0308717"><ele>18.0</ele><time>2026-04-28T14:23:30.021Z</time></trkpt><trkpt lat="38.3936345" lon="22.0305563"><ele>18.0</ele><time>2026-04-28T14:23:31.022Z</time></trkpt><trkpt lat="38.3936164" lon="22.0302346"><ele>18.0</ele><time>2026-04-28T14:23:32.024Z</time></trkpt><trkpt lat="38.393599" lon="22.0299092"><ele>17.5</ele><time>2026-04-28T14:23:33.024Z</time></trkpt><trkpt lat="38.3935996" lon="22.0295823"><ele>17.0</ele><time>2026-04-28T14:23:34.024Z</time></trkpt><trkpt lat="38.3936168" lon="22.0292532"><ele>17.5</ele><time>2026-04-28T14:23:35.024Z</time></trkpt><trkpt lat="38.3936455" lon="22.0289182"><ele>18.0</ele><time>2026-04-28T14:23:36.023Z</time></trkpt><trkpt lat="38.3936886" lon="22.0285705"><ele>14.0</ele><time>2026-04-28T14:23:37.023Z</time></trkpt><trkpt lat="38.3937407" lon="22.028217"><ele>10.0</ele><time>2026-04-28T14:23:38.024Z</time></trkpt><trkpt lat="38.3938011" lon="22.0278621"><ele>21.5</ele><time>2026-04-28T14:23:39.023Z</time></trkpt><trkpt lat="38.3938637" lon="22.027512"><ele>33.0</ele><time>2026-04-28T14:23:40.023Z</time></trkpt><trkpt lat="38.3939268" lon="22.0271721"><ele>33.0</ele><time>2026-04-28T14:23:41.024Z</time></trkpt><trkpt lat="38.3939887" lon="22.0268532"><ele>33.0</ele><time>2026-04-28T14:23:42.024Z</time></trkpt><trkpt lat="38.3940514" lon="22.0265336"><ele>28.5</ele><time>2026-04-28T14:23:43.021Z</time></trkpt><trkpt lat="38.3941012" lon="22.0262537"><ele>24.0</ele><time>2026-04-28T14:23:44.023Z</time></trkpt><trkpt lat="38.3941547" lon="22.0259735"><ele>20.333333333333332</ele><time>2026-04-28T14:23:45.024Z</time></trkpt><trkpt lat="38.3942071" lon="22.025705"><ele>16.666666666666664</ele><time>2026-04-28T14:23:46.023Z</time></trkpt><trkpt lat="38.3942581" lon="22.0254453"><ele>13.0</ele><time>2026-04-28T14:23:47.023Z</time></trkpt><trkpt lat="38.3943153" lon="22.0251953"><ele>9.666666666666666</ele><time>2026-04-28T14:23:48.023Z</time></trkpt><trkpt lat="38.3943819" lon="22.0249549"><ele>6.333333333333333</ele><time>2026-04-28T14:23:49.023Z</time></trkpt><trkpt lat="38.3944971" lon="22.0247245"><ele>3.0</ele><time>2026-04-28T14:23:50.024Z</time></trkpt><trkpt lat="38.3946398" lon="22.0245193"><ele>7.333333333333333</ele><time>2026-04-28T14:23:51.022Z</time></trkpt><trkpt lat="38.3947783" lon="22.0243074"><ele>11.666666666666666</ele><time>2026-04-28T14:23:52.021Z</time></trkpt><trkpt lat="38.3948979" lon="22.024068"><ele>16.0</ele><time>2026-04-28T14:23:53.024Z</time></trkpt><trkpt lat="38.3949951" lon="22.0237888"><ele>16.0</ele><time>2026-04-28T14:23:54.024Z</time></trkpt><trkpt lat="38.3950859" lon="22.0234889"><ele>16.0</ele><time>2026-04-28T14:23:55.023Z</time></trkpt><trkpt lat="38.3951793" lon="22.023171"><ele>13.0</ele><time>2026-04-28T14:23:56.023Z</time></trkpt><trkpt lat="38.395269" lon="22.022848"><ele>10.0</ele><time>2026-04-28T14:23:57.022Z</time></trkpt><trkpt lat="38.3953569" lon="22.0225235"><ele>10.5</ele><time>2026-04-28T14:23:58.024Z</time></trkpt><trkpt lat="38.3954404" lon="22.0222069"><ele>11.0</ele><time>2026-04-28T14:23:59.021Z</time></trkpt><trkpt lat="38.3955149" lon="22.021883"><ele>19.5</ele><time>2026-04-28T14:24:00.022Z</time></trkpt><trkpt lat="38.3955813" lon="22.0215513"><ele>28.0</ele><time>2026-04-28T14:24:01.021Z</time></trkpt><trkpt lat="38.3956363" lon="22.0212178"><ele>28.0</ele><time>2026-04-28T14:24:02.021Z</time></trkpt><trkpt lat="38.3956819" lon="22.0208858"><ele>28.0</ele><time>2026-04-28T14:24:03.024Z</time></trkpt><trkpt lat="38.3957186" lon="22.0205557"><ele>29.0</ele><time>2026-04-28T14:24:04.024Z</time></trkpt><trkpt lat="38.3957478" lon="22.0202298"><ele>30.0</ele><time>2026-04-28T14:24:05.023Z</time></trkpt><trkpt lat="38.3957714" lon="22.0199121"><ele>30.0</ele><time>2026-04-28T14:24:06.024Z</time></trkpt><trkpt lat="38.3957946" lon="22.019604"><ele>30.0</ele><time>2026-04-28T14:24:07.021Z</time></trkpt><trkpt lat="38.3958174" lon="22.0193049"><ele>30.666666666666664</ele><time>2026-04-28T14:24:08.024Z</time></trkpt><trkpt lat="38.3958397" lon="22.019022"><ele>31.333333333333332</ele><time>2026-04-28T14:24:09.023Z</time></trkpt><trkpt lat="38.3958615" lon="22.0187488"><ele>32.0</ele><time>2026-04-28T14:24:10.024Z</time></trkpt><trkpt lat="38.3958829" lon="22.0184772"><ele>31.333333333333332</ele><time>2026-04-28T14:24:11.024Z</time></trkpt><trkpt lat="38.3959069" lon="22.0182048"><ele>30.666666666666664</ele><time>2026-04-28T14:24:12.02Z</time></trkpt><trkpt lat="38.3959293" lon="22.0179372"><ele>30.0</ele><time>2026-04-28T14:24:13.024Z</time></trkpt><trkpt lat="38.3959551" lon="22.0176722"><ele>29.333333333333336</ele><time>2026-04-28T14:24:14.024Z</time></trkpt><trkpt lat="38.3959904" lon="22.017406"><ele>28.666666666666668</ele><time>2026-04-28T14:24:15.024Z</time></trkpt><trkpt lat="38.3960404" lon="22.0171339"><ele>28.0</ele><time>2026-04-28T14:24:16.022Z</time></trkpt><trkpt lat="38.3961061" lon="22.016853"><ele>25.5</ele><time>2026-04-28T14:24:17.022Z</time></trkpt><trkpt lat="38.3961796" lon="22.0165716"><ele>23.0</ele><time>2026-04-28T14:24:18.023Z</time></trkpt><trkpt lat="38.3962506" lon="22.0162844"><ele>23.0</ele><time>2026-04-28T14:24:19.024Z</time></trkpt><trkpt lat="38.396326" lon="22.0159931"><ele>23.0</ele><time>2026-04-28T14:24:20.022Z</time></trkpt><trkpt lat="38.3964037" lon="22.015695"><ele>23.0</ele><time>2026-04-28T14:24:21.024Z</time></trkpt><trkpt lat="38.3964838" lon="22.0153931"><ele>23.0</ele><time>2026-04-28T14:24:22.022Z</time></trkpt><trkpt lat="38.3965667" lon="22.0150867"><ele>22.0</ele><time>2026-04-28T14:24:23.021Z</time></trkpt><trkpt lat="38.3966503" lon="22.0147791"><ele>21.0</ele><time>2026-04-28T14:24:24.022Z</time></trkpt><trkpt lat="38.3967339" lon="22.0144738"><ele>21.0</ele><time>2026-04-28T14:24:25.024Z</time></trkpt><trkpt lat="38.3968168" lon="22.0141708"><ele>21.0</ele><time>2026-04-28T14:24:26.02Z</time></trkpt><trkpt lat="38.3968993" lon="22.013864"><ele>21.0</ele><time>2026-04-28T14:24:27.02Z</time></trkpt><trkpt lat="38.3969826" lon="22.0135521"><ele>21.0</ele><time>2026-04-28T14:24:28.023Z</time></trkpt><trkpt lat="38.3970661" lon="22.0132422"><ele>21.5</ele><time>2026-04-28T14:24:29.022Z</time></trkpt><trkpt lat="38.3971437" lon="22.0129413"><ele>22.0</ele><time>2026-04-28T14:24:30.022Z</time></trkpt><trkpt lat="38.3972167" lon="22.0126403"><ele>25.5</ele><time>2026-04-28T14:24:31.02Z</time></trkpt><trkpt lat="38.3972749" lon="22.0123326"><ele>29.0</ele><time>2026-04-28T14:24:32.022Z</time></trkpt><trkpt lat="38.3973089" lon="22.0120185"><ele>29.0</ele><time>2026-04-28T14:24:33.022Z</time></trkpt><trkpt lat="38.3973247" lon="22.0116982"><ele>29.0</ele><time>2026-04-28T14:24:34.024Z</time></trkpt><trkpt lat="38.3973328" lon="22.0113777"><ele>31.0</ele><time>2026-04-28T14:24:35.024Z</time></trkpt><trkpt lat="38.3973408" lon="22.0110578"><ele>33.0</ele><time>2026-04-28T14:24:36.024Z</time></trkpt><trkpt lat="38.397347" lon="22.0107453"><ele>34.5</ele><time>2026-04-28T14:24:37.023Z</time></trkpt><trkpt lat="38.3973503" lon="22.0104359"><ele>36.0</ele><time>2026-04-28T14:24:38.023Z</time></trkpt><trkpt lat="38.3973527" lon="22.0101329"><ele>35.5</ele><time>2026-04-28T14:24:39.023Z</time></trkpt><trkpt lat="38.3973554" lon="22.009838"><ele>35.0</ele><time>2026-04-28T14:24:40.023Z</time></trkpt><trkpt lat="38.3973591" lon="22.0095572"><ele>35.0</ele><time>2026-04-28T14:24:41.023Z</time></trkpt><trkpt lat="38.3973634" lon="22.00929"><ele>35.0</ele><time>2026-04-28T14:24:42.024Z</time></trkpt><trkpt lat="38.3973698" lon="22.0090389"><ele>35.0</ele><time>2026-04-28T14:24:43.023Z</time></trkpt><trkpt lat="38.3973751" lon="22.0088075"><ele>35.0</ele><time>2026-04-28T14:24:44.024Z</time></trkpt><trkpt lat="38.3973796" lon="22.0085959"><ele>35.0</ele><time>2026-04-28T14:24:45.023Z</time></trkpt><trkpt lat="38.3973808" lon="22.0083985"><ele>35.0</ele><time>2026-04-28T14:24:46.023Z</time></trkpt><trkpt lat="38.397382" lon="22.0082114"><ele>35.0</ele><time>2026-04-28T14:24:47.021Z</time></trkpt><trkpt lat="38.397385" lon="22.0080276"><ele>35.0</ele><time>2026-04-28T14:24:48.022Z</time></trkpt><trkpt lat="38.3973884" lon="22.007836"><ele>35.0</ele><time>2026-04-28T14:24:49.023Z</time></trkpt><trkpt lat="38.3973897" lon="22.0076489"><ele>35.0</ele><time>2026-04-28T14:24:50.022Z</time></trkpt><trkpt lat="38.3973922" lon="22.0074583"><ele>34.666666666666664</ele><time>2026-04-28T14:24:51.023Z</time></trkpt><trkpt lat="38.3973965" lon="22.007264"><ele>34.333333333333336</ele><time>2026-04-28T14:24:52.021Z</time></trkpt><trkpt lat="38.3974062" lon="22.0070631"><ele>34.0</ele><time>2026-04-28T14:24:53.024Z</time></trkpt><trkpt lat="38.3974268" lon="22.006852"><ele>34.333333333333336</ele><time>2026-04-28T14:24:54.022Z</time></trkpt><trkpt lat="38.3974569" lon="22.0066364"><ele>34.666666666666664</ele><time>2026-04-28T14:24:55.022Z</time></trkpt><trkpt lat="38.3974984" lon="22.0064185"><ele>35.0</ele><time>2026-04-28T14:24:56.023Z</time></trkpt><trkpt lat="38.397541" lon="22.0061963"><ele>35.0</ele><time>2026-04-28T14:24:57.021Z</time></trkpt><trkpt lat="38.3975965" lon="22.0059676"><ele>35.0</ele><time>2026-04-28T14:24:58.023Z</time></trkpt><trkpt lat="38.3976735" lon="22.0057435"><ele>35.0</ele><time>2026-04-28T14:24:59.023Z</time></trkpt><trkpt lat="38.3977517" lon="22.0055211"><ele>35.0</ele><time>2026-04-28T14:25:00.022Z</time></trkpt><trkpt lat="38.3978324" lon="22.0052951"><ele>35.0</ele><time>2026-04-28T14:25:01.024Z</time></trkpt><trkpt lat="38.3979181" lon="22.0050679"><ele>35.0</ele><time>2026-04-28T14:25:02.024Z</time></trkpt><trkpt lat="38.3980096" lon="22.0048396"><ele>35.0</ele><time>2026-04-28T14:25:03.02Z</time></trkpt><trkpt lat="38.3980967" lon="22.0046131"><ele>35.0</ele><time>2026-04-28T14:25:04.023Z</time></trkpt><trkpt lat="38.3981847" lon="22.0043824"><ele>35.0</ele><time>2026-04-28T14:25:05.022Z</time></trkpt><trkpt lat="38.3982757" lon="22.0041441"><ele>35.33333333333333</ele><time>2026-04-28T14:25:06.022Z</time></trkpt><trkpt lat="38.3983685" lon="22.0039008"><ele>35.666666666666664</ele><time>2026-04-28T14:25:07.023Z</time></trkpt><trkpt lat="38.3984623" lon="22.0036506"><ele>36.0</ele><time>2026-04-28T14:25:08.023Z</time></trkpt><trkpt lat="38.3985607" lon="22.0033969"><ele>35.0</ele><time>2026-04-28T14:25:09.023Z</time></trkpt><trkpt lat="38.3986593" lon="22.0031385"><ele>34.0</ele><time>2026-04-28T14:25:10.023Z</time></trkpt><trkpt lat="38.3987592" lon="22.0028777"><ele>36.5</ele><time>2026-04-28T14:25:11.023Z</time></trkpt><trkpt lat="38.3988587" lon="22.0026142"><ele>39.0</ele><time>2026-04-28T14:25:12.02Z</time></trkpt><trkpt lat="38.3989609" lon="22.0023507"><ele>39.0</ele><time>2026-04-28T14:25:13.021Z</time></trkpt><trkpt lat="38.3990628" lon="22.002086"><ele>39.0</ele><time>2026-04-28T14:25:14.023Z</time></trkpt><trkpt lat="38.3991646" lon="22.0018178"><ele>32.0</ele><time>2026-04-28T14:25:15.024Z</time></trkpt><trkpt lat="38.3992684" lon="22.0015456"><ele>25.0</ele><time>2026-04-28T14:25:16.024Z</time></trkpt><trkpt lat="38.399373" lon="22.0012673"><ele>25.0</ele><time>2026-04-28T14:25:17.024Z</time></trkpt><trkpt lat="38.3994762" lon="22.0009859"><ele>25.0</ele><time>2026-04-28T14:25:18.023Z</time></trkpt><trkpt lat="38.3995768" lon="22.0007"><ele>36.5</ele><time>2026-04-28T14:25:19.021Z</time></trkpt><trkpt lat="38.3996723" lon="22.0004092"><ele>48.0</ele><time>2026-04-28T14:25:20.019Z</time></trkpt><trkpt lat="38.399759" lon="22.0001097"><ele>48.0</ele><time>2026-04-28T14:25:21.022Z</time></trkpt><trkpt lat="38.3998377" lon="21.9998098"><ele>48.0</ele><time>2026-04-28T14:25:22.024Z</time></trkpt><trkpt lat="38.3999122" lon="21.9995096"><ele>48.0</ele><time>2026-04-28T14:25:23.024Z</time></trkpt><trkpt lat="38.3999857" lon="21.9992081"><ele>48.0</ele><time>2026-04-28T14:25:24.021Z</time></trkpt><trkpt lat="38.4000477" lon="21.9989069"><ele>42.5</ele><time>2026-04-28T14:25:25.021Z</time></trkpt><trkpt lat="38.4000924" lon="21.998608"><ele>37.0</ele><time>2026-04-28T14:25:26.024Z</time></trkpt><trkpt lat="38.4001194" lon="21.9983109"><ele>34.5</ele><time>2026-04-28T14:25:27.02Z</time></trkpt><trkpt lat="38.4001397" lon="21.9980194"><ele>32.0</ele><time>2026-04-28T14:25:28.023Z</time></trkpt><trkpt lat="38.4001531" lon="21.9977375"><ele>32.666666666666664</ele><time>2026-04-28T14:25:29.023Z</time></trkpt><trkpt lat="38.4001768" lon="21.9974727"><ele>33.333333333333336</ele><time>2026-04-28T14:25:30.023Z</time></trkpt><trkpt lat="38.4002058" lon="21.9972257"><ele>34.0</ele><time>2026-04-28T14:25:31.023Z</time></trkpt><trkpt lat="38.4002537" lon="21.9969946"><ele>34.0</ele><time>2026-04-28T14:25:32.02Z</time></trkpt><trkpt lat="38.4003474" lon="21.996779"><ele>34.0</ele><time>2026-04-28T14:25:33.02Z</time></trkpt><trkpt lat="38.400461" lon="21.9965842"><ele>34.0</ele><time>2026-04-28T14:25:34.021Z</time></trkpt><trkpt lat="38.4005751" lon="21.9963766"><ele>37.66666666666667</ele><time>2026-04-28T14:25:35.019Z</time></trkpt><trkpt lat="38.4007036" lon="21.9961749"><ele>41.333333333333336</ele><time>2026-04-28T14:25:36.022Z</time></trkpt><trkpt lat="38.4008143" lon="21.995966"><ele>45.0</ele><time>2026-04-28T14:25:37.023Z</time></trkpt><trkpt lat="38.4009086" lon="21.9957484"><ele>45.0</ele><time>2026-04-28T14:25:38.021Z</time></trkpt><trkpt lat="38.4009774" lon="21.9955239"><ele>45.0</ele><time>2026-04-28T14:25:39.024Z</time></trkpt><trkpt lat="38.4009998" lon="21.9952741"><ele>45.0</ele><time>2026-04-28T14:25:40.021Z</time></trkpt><trkpt lat="38.4009935" lon="21.9950184"><ele>43.0</ele><time>2026-04-28T14:25:41.022Z</time></trkpt><trkpt lat="38.4009681" lon="21.994755"><ele>41.0</ele><time>2026-04-28T14:25:42.021Z</time></trkpt><trkpt lat="38.4009149" lon="21.9944854"><ele>39.0</ele><time>2026-04-28T14:25:43.023Z</time></trkpt><trkpt lat="38.4008642" lon="21.9942192"><ele>40.666666666666664</ele><time>2026-04-28T14:25:44.022Z</time></trkpt><trkpt lat="38.4008322" lon="21.9939442"><ele>42.33333333333333</ele><time>2026-04-28T14:25:45.021Z</time></trkpt><trkpt lat="38.4007967" lon="21.9936592"><ele>44.0</ele><time>2026-04-28T14:25:46.022Z</time></trkpt><trkpt lat="38.4007781" lon="21.9933401"><ele>44.0</ele><time>2026-04-28T14:25:47.022Z</time></trkpt><trkpt lat="38.4007923" lon="21.9930257"><ele>44.0</ele><time>2026-04-28T14:25:48.021Z</time></trkpt><trkpt lat="38.4008358" lon="21.9927259"><ele>42.5</ele><time>2026-04-28T14:25:49.021Z</time></trkpt><trkpt lat="38.4008537" lon="21.9924187"><ele>41.0</ele><time>2026-04-28T14:25:50.022Z</time></trkpt><trkpt lat="38.4008617" lon="21.9921196"><ele>41.0</ele><time>2026-04-28T14:25:51.021Z</time></trkpt><trkpt lat="38.4008981" lon="21.9918322"><ele>41.0</ele><time>2026-04-28T14:25:52.021Z</time></trkpt><trkpt lat="38.400935" lon="21.9915505"><ele>42.666666666666664</ele><time>2026-04-28T14:25:53.023Z</time></trkpt><trkpt lat="38.4009709" lon="21.9912764"><ele>44.333333333333336</ele><time>2026-04-28T14:25:54.022Z</time></trkpt><trkpt lat="38.4010308" lon="21.9910149"><ele>46.0</ele><time>2026-04-28T14:25:55.02Z</time></trkpt><trkpt lat="38.4011226" lon="21.9907465"><ele>46.333333333333336</ele><time>2026-04-28T14:25:56.022Z</time></trkpt><trkpt lat="38.40122" lon="21.9904841"><ele>46.666666666666664</ele><time>2026-04-28T14:25:57.021Z</time></trkpt><trkpt lat="38.4013209" lon="21.9902401"><ele>47.0</ele><time>2026-04-28T14:25:58.024Z</time></trkpt><trkpt lat="38.4014178" lon="21.9900042"><ele>51.33333333333333</ele><time>2026-04-28T14:25:59.021Z</time></trkpt><trkpt lat="38.401514" lon="21.9897906"><ele>55.666666666666664</ele><time>2026-04-28T14:26:00.021Z</time></trkpt><trkpt lat="38.4016243" lon="21.989586"><ele>60.0</ele><time>2026-04-28T14:26:01.022Z</time></trkpt><trkpt lat="38.4017641" lon="21.9893933"><ele>60.0</ele><time>2026-04-28T14:26:02.019Z</time></trkpt><trkpt lat="38.4019206" lon="21.9892078"><ele>60.0</ele><time>2026-04-28T14:26:03.022Z</time></trkpt><trkpt lat="38.4021014" lon="21.989041"><ele>60.0</ele><time>2026-04-28T14:26:04.022Z</time></trkpt><trkpt lat="38.4022679" lon="21.9888788"><ele>60.66666666666667</ele><time>2026-04-28T14:26:05.024Z</time></trkpt><trkpt lat="38.4024274" lon="21.9887105"><ele>61.333333333333336</ele><time>2026-04-28T14:26:06.023Z</time></trkpt><trkpt lat="38.4025635" lon="21.9885156"><ele>62.0</ele><time>2026-04-28T14:26:07.02Z</time></trkpt><trkpt lat="38.402682" lon="21.988276"><ele>62.0</ele><time>2026-04-28T14:26:08.023Z</time></trkpt><trkpt lat="38.4027832" lon="21.9880003"><ele>62.0</ele><time>2026-04-28T14:26:09.024Z</time></trkpt><trkpt lat="38.4028878" lon="21.9877005"><ele>70.5</ele><time>2026-04-28T14:26:10.023Z</time></trkpt><trkpt lat="38.402999" lon="21.9873919"><ele>79.0</ele><time>2026-04-28T14:26:11.024Z</time></trkpt><trkpt lat="38.4031134" lon="21.9870894"><ele>79.0</ele><time>2026-04-28T14:26:12.021Z</time></trkpt><trkpt lat="38.4032301" lon="21.9867943"><ele>79.0</ele><time>2026-04-28T14:26:13.022Z</time></trkpt><trkpt lat="38.4033393" lon="21.9865038"><ele>77.5</ele><time>2026-04-28T14:26:14.02Z</time></trkpt><trkpt lat="38.4034493" lon="21.9862204"><ele>76.0</ele><time>2026-04-28T14:26:15.02Z</time></trkpt><trkpt lat="38.4035937" lon="21.9859498"><ele>74.0</ele><time>2026-04-28T14:26:16.02Z</time></trkpt><trkpt lat="38.4037506" lon="21.9856811"><ele>72.0</ele><time>2026-04-28T14:26:17.02Z</time></trkpt><trkpt lat="38.4039213" lon="21.9854236"><ele>77.5</ele><time>2026-04-28T14:26:18.022Z</time></trkpt><trkpt lat="38.4040909" lon="21.9851734"><ele>83.0</ele><time>2026-04-28T14:26:19.021Z</time></trkpt><trkpt lat="38.4042588" lon="21.98493"><ele>83.0</ele><time>2026-04-28T14:26:20.022Z</time></trkpt><trkpt lat="38.4044214" lon="21.9846906"><ele>83.0</ele><time>2026-04-28T14:26:21.023Z</time></trkpt><trkpt lat="38.4045816" lon="21.9844552"><ele>85.5</ele><time>2026-04-28T14:26:22.019Z</time></trkpt><trkpt lat="38.4047299" lon="21.9842346"><ele>88.0</ele><time>2026-04-28T14:26:23.023Z</time></trkpt><trkpt lat="38.4048752" lon="21.9840154"><ele>88.0</ele><time>2026-04-28T14:26:24.021Z</time></trkpt><trkpt lat="38.4050197" lon="21.9838125"><ele>88.0</ele><time>2026-04-28T14:26:25.024Z</time></trkpt><trkpt lat="38.4051612" lon="21.9836101"><ele>88.0</ele><time>2026-04-28T14:26:26.02Z</time></trkpt><trkpt lat="38.4052942" lon="21.9834139"><ele>87.33333333333333</ele><time>2026-04-28T14:26:27.02Z</time></trkpt><trkpt lat="38.4054238" lon="21.9832266"><ele>86.66666666666667</ele><time>2026-04-28T14:26:28.02Z</time></trkpt><trkpt lat="38.4055397" lon="21.9830358"><ele>86.0</ele><time>2026-04-28T14:26:29.021Z</time></trkpt><trkpt lat="38.4056293" lon="21.9828328"><ele>87.66666666666667</ele><time>2026-04-28T14:26:30.021Z</time></trkpt><trkpt lat="38.4056929" lon="21.9826127"><ele>89.33333333333333</ele><time>2026-04-28T14:26:31.022Z</time></trkpt><trkpt lat="38.4057252" lon="21.9823852"><ele>91.0</ele><time>2026-04-28T14:26:32.02Z</time></trkpt><trkpt lat="38.4057239" lon="21.9821574"><ele>91.0</ele><time>2026-04-28T14:26:33.022Z</time></trkpt><trkpt lat="38.4056873" lon="21.9819284"><ele>91.0</ele><time>2026-04-28T14:26:34.02Z</time></trkpt><trkpt lat="38.4056225" lon="21.9817097"><ele>91.0</ele><time>2026-04-28T14:26:35.018Z</time></trkpt><trkpt lat="38.4055141" lon="21.9815012"><ele>88.66666666666666</ele><time>2026-04-28T14:26:36.022Z</time></trkpt><trkpt lat="38.4053996" lon="21.9813012"><ele>86.33333333333333</ele><time>2026-04-28T14:26:37.021Z</time></trkpt><trkpt lat="38.4052807" lon="21.9811087"><ele>84.0</ele><time>2026-04-28T14:26:38.022Z</time></trkpt><trkpt lat="38.4051764" lon="21.9809122"><ele>86.33333333333333</ele><time>2026-04-28T14:26:39.022Z</time></trkpt><trkpt lat="38.4051046" lon="21.9806822"><ele>88.66666666666666</ele><time>2026-04-28T14:26:40.024Z</time></trkpt><trkpt lat="38.4050401" lon="21.9804388"><ele>91.0</ele><time>2026-04-28T14:26:41.021Z</time></trkpt><trkpt lat="38.4049859" lon="21.9801594"><ele>88.0</ele><time>2026-04-28T14:26:42.019Z</time></trkpt><trkpt lat="38.4049476" lon="21.9798503"><ele>85.0</ele><time>2026-04-28T14:26:43.021Z</time></trkpt><trkpt lat="38.4048956" lon="21.9795377"><ele>85.0</ele><time>2026-04-28T14:26:44.021Z</time></trkpt><trkpt lat="38.4048374" lon="21.9792211"><ele>85.0</ele><time>2026-04-28T14:26:45.021Z</time></trkpt><trkpt lat="38.4047804" lon="21.978905"><ele>84.5</ele><time>2026-04-28T14:26:46.021Z</time></trkpt><trkpt lat="38.4047239" lon="21.9785908"><ele>84.0</ele><time>2026-04-28T14:26:47.02Z</time></trkpt><trkpt lat="38.4046686" lon="21.9782899"><ele>81.33333333333333</ele><time>2026-04-28T14:26:48.021Z</time></trkpt><trkpt lat="38.4046158" lon="21.9780043"><ele>78.66666666666666</ele><time>2026-04-28T14:26:49.022Z</time></trkpt><trkpt lat="38.4045664" lon="21.9777315"><ele>76.0</ele><time>2026-04-28T14:26:50.023Z</time></trkpt><trkpt lat="38.4045199" lon="21.9774625"><ele>74.66666666666666</ele><time>2026-04-28T14:26:51.024Z</time></trkpt><trkpt lat="38.4044729" lon="21.9772011"><ele>73.33333333333333</ele><time>2026-04-28T14:26:52.021Z</time></trkpt><trkpt lat="38.4044282" lon="21.9769452"><ele>72.0</ele><time>2026-04-28T14:26:53.02Z</time></trkpt><trkpt lat="38.4043833" lon="21.9766931"><ele>71.66666666666667</ele><time>2026-04-28T14:26:54.02Z</time></trkpt><trkpt lat="38.4043509" lon="21.9764435"><ele>71.33333333333334</ele><time>2026-04-28T14:26:55.022Z</time></trkpt><trkpt lat="38.4043296" lon="21.9761863"><ele>71.0</ele><time>2026-04-28T14:26:56.021Z</time></trkpt><trkpt lat="38.4043283" lon="21.9759055"><ele>74.5</ele><time>2026-04-28T14:26:57.023Z</time></trkpt><trkpt lat="38.4043429" lon="21.9755984"><ele>78.0</ele><time>2026-04-28T14:26:58.021Z</time></trkpt><trkpt lat="38.4043647" lon="21.9752862"><ele>75.0</ele><time>2026-04-28T14:26:59.024Z</time></trkpt><trkpt lat="38.4043908" lon="21.9749764"><ele>72.0</ele><time>2026-04-28T14:27:00.023Z</time></trkpt><trkpt lat="38.4044173" lon="21.974663"><ele>72.0</ele><time>2026-04-28T14:27:01.023Z</time></trkpt><trkpt lat="38.4044444" lon="21.9743511"><ele>72.0</ele><time>2026-04-28T14:27:02.02Z</time></trkpt><trkpt lat="38.4044703" lon="21.9740533"><ele>69.0</ele><time>2026-04-28T14:27:03.021Z</time></trkpt><trkpt lat="38.404496" lon="21.9737665"><ele>66.0</ele><time>2026-04-28T14:27:04.024Z</time></trkpt><trkpt lat="38.4045222" lon="21.9734774"><ele>63.66666666666667</ele><time>2026-04-28T14:27:05.023Z</time></trkpt><trkpt lat="38.4045489" lon="21.9731912"><ele>61.333333333333336</ele><time>2026-04-28T14:27:06.023Z</time></trkpt><trkpt lat="38.4045753" lon="21.9729146"><ele>59.0</ele><time>2026-04-28T14:27:07.023Z</time></trkpt><trkpt lat="38.4046027" lon="21.9726491"><ele>57.0</ele><time>2026-04-28T14:27:08.023Z</time></trkpt><trkpt lat="38.4046311" lon="21.9723892"><ele>55.0</ele><time>2026-04-28T14:27:09.024Z</time></trkpt><trkpt lat="38.4046569" lon="21.9721382"><ele>53.0</ele><time>2026-04-28T14:27:10.023Z</time></trkpt><trkpt lat="38.4046908" lon="21.9718849"><ele>67.0</ele><time>2026-04-28T14:27:11.023Z</time></trkpt><trkpt lat="38.4047326" lon="21.9716273"><ele>81.0</ele><time>2026-04-28T14:27:12.021Z</time></trkpt><trkpt lat="38.4047928" lon="21.9713681"><ele>95.0</ele><time>2026-04-28T14:27:13.023Z</time></trkpt><trkpt lat="38.4048635" lon="21.9711005"><ele>83.5</ele><time>2026-04-28T14:27:14.024Z</time></trkpt><trkpt lat="38.4049522" lon="21.9708338"><ele>72.0</ele><time>2026-04-28T14:27:15.023Z</time></trkpt><trkpt lat="38.4050428" lon="21.9705574"><ele>72.0</ele><time>2026-04-28T14:27:16.021Z</time></trkpt><trkpt lat="38.4051282" lon="21.9702862"><ele>72.0</ele><time>2026-04-28T14:27:17.021Z</time></trkpt><trkpt lat="38.4052048" lon="21.9700154"><ele>67.0</ele><time>2026-04-28T14:27:18.02Z</time></trkpt><trkpt lat="38.405272" lon="21.9697411"><ele>62.0</ele><time>2026-04-28T14:27:19.023Z</time></trkpt><trkpt lat="38.4053211" lon="21.9694665"><ele>57.0</ele><time>2026-04-28T14:27:20.022Z</time></trkpt><trkpt lat="38.4053576" lon="21.9691919"><ele>55.0</ele><time>2026-04-28T14:27:21.021Z</time></trkpt><trkpt lat="38.4053851" lon="21.968919"><ele>53.0</ele><time>2026-04-28T14:27:22.02Z</time></trkpt><trkpt lat="38.4054106" lon="21.9686401"><ele>51.0</ele><time>2026-04-28T14:27:23.021Z</time></trkpt><trkpt lat="38.4054333" lon="21.9683617"><ele>51.66666666666667</ele><time>2026-04-28T14:27:24.022Z</time></trkpt><trkpt lat="38.4054442" lon="21.9680879"><ele>52.333333333333336</ele><time>2026-04-28T14:27:25.024Z</time></trkpt><trkpt lat="38.4054419" lon="21.9678256"><ele>53.0</ele><time>2026-04-28T14:27:26.022Z</time></trkpt><trkpt lat="38.4054277" lon="21.9675809"><ele>54.0</ele><time>2026-04-28T14:27:27.021Z</time></trkpt><trkpt lat="38.4054026" lon="21.9673415"><ele>55.0</ele><time>2026-04-28T14:27:28.023Z</time></trkpt><trkpt lat="38.4053754" lon="21.9671073"><ele>56.0</ele><time>2026-04-28T14:27:29.022Z</time></trkpt><trkpt lat="38.4053542" lon="21.9668801"><ele>56.333333333333336</ele><time>2026-04-28T14:27:30.023Z</time></trkpt><trkpt lat="38.4053375" lon="21.9666589"><ele>56.66666666666667</ele><time>2026-04-28T14:27:31.021Z</time></trkpt><trkpt lat="38.4053343" lon="21.9664488"><ele>57.0</ele><time>2026-04-28T14:27:32.019Z</time></trkpt><trkpt lat="38.4053399" lon="21.96623"><ele>57.0</ele><time>2026-04-28T14:27:33.02Z</time></trkpt><trkpt lat="38.4053622" lon="21.9659963"><ele>57.0</ele><time>2026-04-28T14:27:34.021Z</time></trkpt><trkpt lat="38.4054093" lon="21.9657628"><ele>57.0</ele><time>2026-04-28T14:27:35.021Z</time></trkpt><trkpt lat="38.4054632" lon="21.9655335"><ele>67.33333333333333</ele><time>2026-04-28T14:27:36.022Z</time></trkpt><trkpt lat="38.4055213" lon="21.9653175"><ele>77.66666666666666</ele><time>2026-04-28T14:27:37.021Z</time></trkpt><trkpt lat="38.4055733" lon="21.9651071"><ele>88.0</ele><time>2026-04-28T14:27:38.023Z</time></trkpt><trkpt lat="38.4056202" lon="21.9648927"><ele>88.0</ele><time>2026-04-28T14:27:39.02Z</time></trkpt><trkpt lat="38.4056574" lon="21.9646739"><ele>88.0</ele><time>2026-04-28T14:27:40.021Z</time></trkpt><trkpt lat="38.4056806" lon="21.9644507"><ele>88.0</ele><time>2026-04-28T14:27:41.023Z</time></trkpt><trkpt lat="38.4056873" lon="21.9642187"><ele>85.66666666666666</ele><time>2026-04-28T14:27:42.019Z</time></trkpt><trkpt lat="38.4056816" lon="21.9639846"><ele>83.33333333333333</ele><time>2026-04-28T14:27:43.022Z</time></trkpt><trkpt lat="38.4056739" lon="21.9637522"><ele>81.0</ele><time>2026-04-28T14:27:44.022Z</time></trkpt><trkpt lat="38.4056671" lon="21.9635243"><ele>81.66666666666667</ele><time>2026-04-28T14:27:45.023Z</time></trkpt><trkpt lat="38.4056642" lon="21.9633036"><ele>82.33333333333334</ele><time>2026-04-28T14:27:46.022Z</time></trkpt><trkpt lat="38.4056614" lon="21.9630815"><ele>83.0</ele><time>2026-04-28T14:27:47.023Z</time></trkpt><trkpt lat="38.4056684" lon="21.962857"><ele>83.0</ele><time>2026-04-28T14:27:48.022Z</time></trkpt><trkpt lat="38.4056775" lon="21.9626317"><ele>83.0</ele><time>2026-04-28T14:27:49.023Z</time></trkpt><trkpt lat="38.4056969" lon="21.9624064"><ele>83.0</ele><time>2026-04-28T14:27:50.02Z</time></trkpt><trkpt lat="38.40573" lon="21.9621957"><ele>83.33333333333334</ele><time>2026-04-28T14:27:51.021Z</time></trkpt><trkpt lat="38.405762" lon="21.9619865"><ele>83.66666666666667</ele><time>2026-04-28T14:27:52.021Z</time></trkpt><trkpt lat="38.4057928" lon="21.9617789"><ele>84.0</ele><time>2026-04-28T14:27:53.02Z</time></trkpt><trkpt lat="38.405823" lon="21.9615749"><ele>83.33333333333333</ele><time>2026-04-28T14:27:54.02Z</time></trkpt><trkpt lat="38.4058531" lon="21.9613736"><ele>82.66666666666666</ele><time>2026-04-28T14:27:55.021Z</time></trkpt><trkpt lat="38.4058833" lon="21.9611715"><ele>82.0</ele><time>2026-04-28T14:27:56.022Z</time></trkpt><trkpt lat="38.4059137" lon="21.9609759"><ele>79.0</ele><time>2026-04-28T14:27:57.022Z</time></trkpt><trkpt lat="38.4059437" lon="21.9607777"><ele>76.0</ele><time>2026-04-28T14:27:58.022Z</time></trkpt><trkpt lat="38.4059717" lon="21.9605798"><ele>73.0</ele><time>2026-04-28T14:27:59.024Z</time></trkpt><trkpt lat="38.4059982" lon="21.9603839"><ele>73.0</ele><time>2026-04-28T14:28:00.019Z</time></trkpt><trkpt lat="38.4060205" lon="21.9601887"><ele>73.0</ele><time>2026-04-28T14:28:01.02Z</time></trkpt><trkpt lat="38.4060399" lon="21.9599935"><ele>73.0</ele><time>2026-04-28T14:28:02.02Z</time></trkpt><trkpt lat="38.4060511" lon="21.9597998"><ele>70.33333333333333</ele><time>2026-04-28T14:28:03.023Z</time></trkpt><trkpt lat="38.4060506" lon="21.9596026"><ele>67.66666666666667</ele><time>2026-04-28T14:28:04.021Z</time></trkpt><trkpt lat="38.4060525" lon="21.9593999"><ele>65.0</ele><time>2026-04-28T14:28:05.021Z</time></trkpt><trkpt lat="38.4060469" lon="21.9591931"><ele>61.66666666666667</ele><time>2026-04-28T14:28:06.02Z</time></trkpt><trkpt lat="38.4060431" lon="21.9589829"><ele>58.33333333333333</ele><time>2026-04-28T14:28:07.021Z</time></trkpt><trkpt lat="38.4060341" lon="21.958771"><ele>55.0</ele><time>2026-04-28T14:28:08.021Z</time></trkpt><trkpt lat="38.4060276" lon="21.9585579"><ele>56.33333333333333</ele><time>2026-04-28T14:28:09.02Z</time></trkpt><trkpt lat="38.4060209" lon="21.9583412"><ele>57.66666666666667</ele><time>2026-04-28T14:28:10.02Z</time></trkpt><trkpt lat="38.4060102" lon="21.9581269"><ele>59.0</ele><time>2026-04-28T14:28:11.023Z</time></trkpt><trkpt lat="38.4060017" lon="21.9579107"><ele>59.0</ele><time>2026-04-28T14:28:12.019Z</time></trkpt><trkpt lat="38.4059978" lon="21.9576868"><ele>59.0</ele><time>2026-04-28T14:28:13.023Z</time></trkpt><trkpt lat="38.4059928" lon="21.957472"><ele>59.0</ele><time>2026-04-28T14:28:14.021Z</time></trkpt><trkpt lat="38.40599" lon="21.9572588"><ele>59.333333333333336</ele><time>2026-04-28T14:28:15.02Z</time></trkpt><trkpt lat="38.4059882" lon="21.9570458"><ele>59.66666666666667</ele><time>2026-04-28T14:28:16.021Z</time></trkpt><trkpt lat="38.4059912" lon="21.9568367"><ele>60.0</ele><time>2026-04-28T14:28:17.022Z</time></trkpt><trkpt lat="38.4060059" lon="21.9566274"><ele>61.33333333333333</ele><time>2026-04-28T14:28:18.022Z</time></trkpt><trkpt lat="38.406036" lon="21.9564254"><ele>62.666666666666664</ele><time>2026-04-28T14:28:19.022Z</time></trkpt><trkpt lat="38.40609" lon="21.9562344"><ele>64.0</ele><time>2026-04-28T14:28:20.02Z</time></trkpt><trkpt lat="38.4061448" lon="21.9560378"><ele>58.33333333333333</ele><time>2026-04-28T14:28:21.022Z</time></trkpt><trkpt lat="38.4061993" lon="21.9558448"><ele>52.666666666666664</ele><time>2026-04-28T14:28:22.022Z</time></trkpt><trkpt lat="38.4062684" lon="21.9556532"><ele>47.0</ele><time>2026-04-28T14:28:23.021Z</time></trkpt><trkpt lat="38.4063225" lon="21.9554625"><ele>62.33333333333333</ele><time>2026-04-28T14:28:24.019Z</time></trkpt><trkpt lat="38.4063745" lon="21.9552634"><ele>77.66666666666667</ele><time>2026-04-28T14:28:25.021Z</time></trkpt><trkpt lat="38.4064263" lon="21.9550645"><ele>93.0</ele><time>2026-04-28T14:28:26.021Z</time></trkpt><trkpt lat="38.4064844" lon="21.9548722"><ele>93.0</ele><time>2026-04-28T14:28:27.022Z</time></trkpt><trkpt lat="38.4065399" lon="21.9546828"><ele>93.0</ele><time>2026-04-28T14:28:28.02Z</time></trkpt><trkpt lat="38.4065905" lon="21.9544697"><ele>93.0</ele><time>2026-04-28T14:28:29.024Z</time></trkpt><trkpt lat="38.4066429" lon="21.954226"><ele>85.5</ele><time>2026-04-28T14:28:30.022Z</time></trkpt><trkpt lat="38.4066995" lon="21.9539489"><ele>78.0</ele><time>2026-04-28T14:28:31.023Z</time></trkpt><trkpt lat="38.4067485" lon="21.9536345"><ele>72.0</ele><time>2026-04-28T14:28:32.022Z</time></trkpt><trkpt lat="38.4067938" lon="21.9532911"><ele>66.0</ele><time>2026-04-28T14:28:33.022Z</time></trkpt><trkpt lat="38.4068411" lon="21.9529139"><ele>66.0</ele><time>2026-04-28T14:28:34.024Z</time></trkpt><trkpt lat="38.4068957" lon="21.9525407"><ele>66.0</ele><time>2026-04-28T14:28:35.02Z</time></trkpt><trkpt lat="38.4069435" lon="21.9521906"><ele>63.0</ele><time>2026-04-28T14:28:36.022Z</time></trkpt><trkpt lat="38.4069931" lon="21.9518665"><ele>60.0</ele><time>2026-04-28T14:28:37.024Z</time></trkpt><trkpt lat="38.4070425" lon="21.951562"><ele>58.5</ele><time>2026-04-28T14:28:38.022Z</time></trkpt><trkpt lat="38.4070961" lon="21.9512694"><ele>57.0</ele><time>2026-04-28T14:28:39.02Z</time></trkpt><trkpt lat="38.4071586" lon="21.9509865"><ele>67.5</ele><time>2026-04-28T14:28:40.023Z</time></trkpt><trkpt lat="38.4072277" lon="21.950714"><ele>78.0</ele><time>2026-04-28T14:28:41.023Z</time></trkpt><trkpt lat="38.4073052" lon="21.9504443"><ele>78.0</ele><time>2026-04-28T14:28:42.023Z</time></trkpt><trkpt lat="38.4073887" lon="21.9501817"><ele>78.0</ele><time>2026-04-28T14:28:43.022Z</time></trkpt><trkpt lat="38.4074741" lon="21.9499259"><ele>78.0</ele><time>2026-04-28T14:28:44.023Z</time></trkpt><trkpt lat="38.4075564" lon="21.9496735"><ele>74.66666666666667</ele><time>2026-04-28T14:28:45.021Z</time></trkpt><trkpt lat="38.4076338" lon="21.9494184"><ele>71.33333333333334</ele><time>2026-04-28T14:28:46.024Z</time></trkpt><trkpt lat="38.4077149" lon="21.949162"><ele>68.0</ele><time>2026-04-28T14:28:47.02Z</time></trkpt><trkpt lat="38.4077871" lon="21.9489062"><ele>63.333333333333336</ele><time>2026-04-28T14:28:48.024Z</time></trkpt><trkpt lat="38.4078566" lon="21.9486503"><ele>58.66666666666667</ele><time>2026-04-28T14:28:49.023Z</time></trkpt><trkpt lat="38.4079231" lon="21.9484015"><ele>54.0</ele><time>2026-04-28T14:28:50.022Z</time></trkpt><trkpt lat="38.4079836" lon="21.9481699"><ele>60.66666666666667</ele><time>2026-04-28T14:28:51.023Z</time></trkpt><trkpt lat="38.4080399" lon="21.9479486"><ele>67.33333333333334</ele><time>2026-04-28T14:28:52.023Z</time></trkpt><trkpt lat="38.4080935" lon="21.9477439"><ele>74.0</ele><time>2026-04-28T14:28:53.021Z</time></trkpt><trkpt lat="38.4081361" lon="21.9475569"><ele>72.0</ele><time>2026-04-28T14:28:54.022Z</time></trkpt><trkpt lat="38.408177" lon="21.9473847"><ele>70.0</ele><time>2026-04-28T14:28:55.02Z</time></trkpt><trkpt lat="38.4082102" lon="21.9472129"><ele>68.0</ele><time>2026-04-28T14:28:56.021Z</time></trkpt><trkpt lat="38.4082466" lon="21.9470428"><ele>66.0</ele><time>2026-04-28T14:28:57.02Z</time></trkpt><trkpt lat="38.4082768" lon="21.9468742"><ele>64.25</ele><time>2026-04-28T14:28:58.022Z</time></trkpt><trkpt lat="38.4083026" lon="21.9467037"><ele>62.5</ele><time>2026-04-28T14:28:59.023Z</time></trkpt><trkpt lat="38.4083238" lon="21.9465283"><ele>60.75</ele><time>2026-04-28T14:29:00.019Z</time></trkpt><trkpt lat="38.4083397" lon="21.9463543"><ele>59.0</ele><time>2026-04-28T14:29:01.022Z</time></trkpt><trkpt lat="38.4083529" lon="21.9461847"><ele>59.0</ele><time>2026-04-28T14:29:02.021Z</time></trkpt><trkpt lat="38.4083653" lon="21.9460113"><ele>59.0</ele><time>2026-04-28T14:29:03.023Z</time></trkpt><trkpt lat="38.4083731" lon="21.9458359"><ele>59.0</ele><time>2026-04-28T14:29:04.024Z</time></trkpt><trkpt lat="38.4083799" lon="21.9456533"><ele>59.0</ele><time>2026-04-28T14:29:05.02Z</time></trkpt><trkpt lat="38.4083869" lon="21.945464"><ele>58.66666666666667</ele><time>2026-04-28T14:29:06.021Z</time></trkpt><trkpt lat="38.408387" lon="21.945271"><ele>58.33333333333333</ele><time>2026-04-28T14:29:07.023Z</time></trkpt><trkpt lat="38.4083875" lon="21.9450704"><ele>58.0</ele><time>2026-04-28T14:29:08.022Z</time></trkpt><trkpt lat="38.408385" lon="21.9448706"><ele>59.0</ele><time>2026-04-28T14:29:09.024Z</time></trkpt><trkpt lat="38.4083819" lon="21.9446684"><ele>60.0</ele><time>2026-04-28T14:29:10.021Z</time></trkpt><trkpt lat="38.4083758" lon="21.9444589"><ele>61.0</ele><time>2026-04-28T14:29:11.022Z</time></trkpt><trkpt lat="38.4083685" lon="21.944245"><ele>60.666666666666664</ele><time>2026-04-28T14:29:12.023Z</time></trkpt><trkpt lat="38.4083593" lon="21.9440293"><ele>60.33333333333333</ele><time>2026-04-28T14:29:13.023Z</time></trkpt><trkpt lat="38.4083475" lon="21.9438103"><ele>60.0</ele><time>2026-04-28T14:29:14.024Z</time></trkpt><trkpt lat="38.4083356" lon="21.9435912"><ele>60.0</ele><time>2026-04-28T14:29:15.022Z</time></trkpt><trkpt lat="38.4083205" lon="21.9433694"><ele>60.0</ele><time>2026-04-28T14:29:16.022Z</time></trkpt><trkpt lat="38.4082993" lon="21.943151"><ele>60.0</ele><time>2026-04-28T14:29:17.024Z</time></trkpt><trkpt lat="38.4082781" lon="21.9429307"><ele>60.0</ele><time>2026-04-28T14:29:18.022Z</time></trkpt><trkpt lat="38.4082591" lon="21.9427078"><ele>60.0</ele><time>2026-04-28T14:29:19.023Z</time></trkpt><trkpt lat="38.4082393" lon="21.9424838"><ele>60.0</ele><time>2026-04-28T14:29:20.024Z</time></trkpt><trkpt lat="38.40822" lon="21.94226"><ele>62.66666666666667</ele><time>2026-04-28T14:29:21.021Z</time></trkpt><trkpt lat="38.4082043" lon="21.9420311"><ele>65.33333333333334</ele><time>2026-04-28T14:29:22.024Z</time></trkpt><trkpt lat="38.4081932" lon="21.9418031"><ele>68.0</ele><time>2026-04-28T14:29:23.024Z</time></trkpt><trkpt lat="38.4081885" lon="21.941578"><ele>70.33333333333334</ele><time>2026-04-28T14:29:24.023Z</time></trkpt><trkpt lat="38.4081865" lon="21.94135"><ele>72.66666666666667</ele><time>2026-04-28T14:29:25.023Z</time></trkpt><trkpt lat="38.4082006" lon="21.9411244"><ele>75.0</ele><time>2026-04-28T14:29:26.023Z</time></trkpt><trkpt lat="38.4082078" lon="21.9409101"><ele>75.33333333333333</ele><time>2026-04-28T14:29:27.02Z</time></trkpt><trkpt lat="38.4082229" lon="21.9407034"><ele>75.66666666666666</ele><time>2026-04-28T14:29:28.023Z</time></trkpt><trkpt lat="38.4082326" lon="21.9404906"><ele>76.0</ele><time>2026-04-28T14:29:29.023Z</time></trkpt><trkpt lat="38.4082422" lon="21.9402802"><ele>76.0</ele><time>2026-04-28T14:29:30.02Z</time></trkpt><trkpt lat="38.4082403" lon="21.9400709"><ele>76.0</ele><time>2026-04-28T14:29:31.024Z</time></trkpt><trkpt lat="38.4082162" lon="21.9398566"><ele>76.0</ele><time>2026-04-28T14:29:32.021Z</time></trkpt><trkpt lat="38.4081689" lon="21.9396442"><ele>75.33333333333333</ele><time>2026-04-28T14:29:33.023Z</time></trkpt><trkpt lat="38.4081124" lon="21.9394293"><ele>74.66666666666667</ele><time>2026-04-28T14:29:34.024Z</time></trkpt><trkpt lat="38.4080471" lon="21.9392164"><ele>74.0</ele><time>2026-04-28T14:29:35.023Z</time></trkpt><trkpt lat="38.4079782" lon="21.9390022"><ele>64.66666666666667</ele><time>2026-04-28T14:29:36.023Z</time></trkpt><trkpt lat="38.4079172" lon="21.9388018"><ele>55.333333333333336</ele><time>2026-04-28T14:29:37.024Z</time></trkpt><trkpt lat="38.4078568" lon="21.9385976"><ele>46.0</ele><time>2026-04-28T14:29:38.024Z</time></trkpt><trkpt lat="38.4078072" lon="21.9383916"><ele>45.333333333333336</ele><time>2026-04-28T14:29:39.023Z</time></trkpt><trkpt lat="38.4077682" lon="21.9381791"><ele>44.666666666666664</ele><time>2026-04-28T14:29:40.023Z</time></trkpt><trkpt lat="38.4077415" lon="21.9379671"><ele>44.0</ele><time>2026-04-28T14:29:41.023Z</time></trkpt><trkpt lat="38.4077296" lon="21.9377467"><ele>43.33333333333333</ele><time>2026-04-28T14:29:42.02Z</time></trkpt><trkpt lat="38.407731" lon="21.9375202"><ele>42.666666666666664</ele><time>2026-04-28T14:29:43.021Z</time></trkpt><trkpt lat="38.407739" lon="21.9372894"><ele>42.0</ele><time>2026-04-28T14:29:44.021Z</time></trkpt><trkpt lat="38.407754" lon="21.9370645"><ele>42.0</ele><time>2026-04-28T14:29:45.021Z</time></trkpt><trkpt lat="38.4077826" lon="21.9368425"><ele>42.0</ele><time>2026-04-28T14:29:46.021Z</time></trkpt><trkpt lat="38.407821" lon="21.9366252"><ele>42.0</ele><time>2026-04-28T14:29:47.023Z</time></trkpt><trkpt lat="38.4078571" lon="21.9364094"><ele>41.0</ele><time>2026-04-28T14:29:48.023Z</time></trkpt><trkpt lat="38.4078855" lon="21.9361904"><ele>40.0</ele><time>2026-04-28T14:29:49.024Z</time></trkpt><trkpt lat="38.4079038" lon="21.9359647"><ele>39.0</ele><time>2026-04-28T14:29:50.022Z</time></trkpt><trkpt lat="38.4079126" lon="21.9357283"><ele>36.666666666666664</ele><time>2026-04-28T14:29:51.022Z</time></trkpt><trkpt lat="38.407903" lon="21.935466"><ele>34.33333333333333</ele><time>2026-04-28T14:29:52.02Z</time></trkpt><trkpt lat="38.4078885" lon="21.9351891"><ele>32.0</ele><time>2026-04-28T14:29:53.02Z</time></trkpt><trkpt lat="38.4078662" lon="21.9349071"><ele>32.0</ele><time>2026-04-28T14:29:54.02Z</time></trkpt><trkpt lat="38.407844" lon="21.9346127"><ele>32.0</ele><time>2026-04-28T14:29:55.023Z</time></trkpt><trkpt lat="38.4078216" lon="21.9343153"><ele>33.5</ele><time>2026-04-28T14:29:56.022Z</time></trkpt><trkpt lat="38.407798" lon="21.9340207"><ele>35.0</ele><time>2026-04-28T14:29:57.022Z</time></trkpt><trkpt lat="38.4077726" lon="21.9337291"><ele>35.0</ele><time>2026-04-28T14:29:58.024Z</time></trkpt><trkpt lat="38.4077426" lon="21.9334368"><ele>35.0</ele><time>2026-04-28T14:29:59.024Z</time></trkpt><trkpt lat="38.4077125" lon="21.933151"><ele>35.666666666666664</ele><time>2026-04-28T14:30:00.021Z</time></trkpt><trkpt lat="38.4076797" lon="21.9328664"><ele>36.333333333333336</ele><time>2026-04-28T14:30:01.022Z</time></trkpt><trkpt lat="38.4076385" lon="21.9325879"><ele>37.0</ele><time>2026-04-28T14:30:02.024Z</time></trkpt><trkpt lat="38.4075835" lon="21.9323103"><ele>37.333333333333336</ele><time>2026-04-28T14:30:03.021Z</time></trkpt><trkpt lat="38.4075157" lon="21.9320402"><ele>37.666666666666664</ele><time>2026-04-28T14:30:04.024Z</time></trkpt><trkpt lat="38.4074374" lon="21.9317757"><ele>38.0</ele><time>2026-04-28T14:30:05.023Z</time></trkpt><trkpt lat="38.4073305" lon="21.9315219"><ele>38.0</ele><time>2026-04-28T14:30:06.023Z</time></trkpt><trkpt lat="38.4072178" lon="21.9312704"><ele>38.0</ele><time>2026-04-28T14:30:07.021Z</time></trkpt><trkpt lat="38.4071034" lon="21.9310193"><ele>33.0</ele><time>2026-04-28T14:30:08.022Z</time></trkpt><trkpt lat="38.4069816" lon="21.9307732"><ele>28.0</ele><time>2026-04-28T14:30:09.022Z</time></trkpt><trkpt lat="38.4068598" lon="21.9305306"><ele>28.0</ele><time>2026-04-28T14:30:10.024Z</time></trkpt><trkpt lat="38.4067369" lon="21.9302846"><ele>28.0</ele><time>2026-04-28T14:30:11.024Z</time></trkpt><trkpt lat="38.4066147" lon="21.9300415"><ele>37.5</ele><time>2026-04-28T14:30:12.022Z</time></trkpt><trkpt lat="38.4064928" lon="21.9297866"><ele>47.0</ele><time>2026-04-28T14:30:13.02Z</time></trkpt><trkpt lat="38.4063834" lon="21.9295395"><ele>44.0</ele><time>2026-04-28T14:30:14.024Z</time></trkpt><trkpt lat="38.406253" lon="21.9292951"><ele>41.0</ele><time>2026-04-28T14:30:15.019Z</time></trkpt><trkpt lat="38.4061376" lon="21.9290392"><ele>41.0</ele><time>2026-04-28T14:30:16.024Z</time></trkpt><trkpt lat="38.4060393" lon="21.9287749"><ele>41.0</ele><time>2026-04-28T14:30:17.022Z</time></trkpt><trkpt lat="38.405944" lon="21.9284995"><ele>43.0</ele><time>2026-04-28T14:30:18.023Z</time></trkpt><trkpt lat="38.4058563" lon="21.9282143"><ele>45.0</ele><time>2026-04-28T14:30:19.022Z</time></trkpt><trkpt lat="38.4057751" lon="21.9279207"><ele>45.0</ele><time>2026-04-28T14:30:20.024Z</time></trkpt><trkpt lat="38.4057034" lon="21.9276199"><ele>45.0</ele><time>2026-04-28T14:30:21.023Z</time></trkpt><trkpt lat="38.4056466" lon="21.9273128"><ele>43.0</ele><time>2026-04-28T14:30:22.023Z</time></trkpt><trkpt lat="38.4055863" lon="21.9270153"><ele>41.0</ele><time>2026-04-28T14:30:23.022Z</time></trkpt><trkpt lat="38.4055274" lon="21.9267253"><ele>44.5</ele><time>2026-04-28T14:30:24.021Z</time></trkpt><trkpt lat="38.4054689" lon="21.9264214"><ele>48.0</ele><time>2026-04-28T14:30:25.021Z</time></trkpt><trkpt lat="38.4054109" lon="21.9261277"><ele>39.5</ele><time>2026-04-28T14:30:26.023Z</time></trkpt><trkpt lat="38.4053536" lon="21.9258355"><ele>31.0</ele><time>2026-04-28T14:30:27.021Z</time></trkpt><trkpt lat="38.4052974" lon="21.9255479"><ele>31.0</ele><time>2026-04-28T14:30:28.019Z</time></trkpt><trkpt lat="38.4052387" lon="21.9252583"><ele>31.0</ele><time>2026-04-28T14:30:29.021Z</time></trkpt><trkpt lat="38.4051806" lon="21.9249668"><ele>24.5</ele><time>2026-04-28T14:30:30.02Z</time></trkpt><trkpt lat="38.4051238" lon="21.9246779"><ele>18.0</ele><time>2026-04-28T14:30:31.021Z</time></trkpt><trkpt lat="38.4050675" lon="21.9243884"><ele>12.0</ele><time>2026-04-28T14:30:32.023Z</time></trkpt><trkpt lat="38.4050102" lon="21.9240989"><ele>6.0</ele><time>2026-04-28T14:30:33.021Z</time></trkpt><trkpt lat="38.4049534" lon="21.9238105"><ele>6.0</ele><time>2026-04-28T14:30:34.022Z</time></trkpt><trkpt lat="38.4048985" lon="21.9235206"><ele>6.0</ele><time>2026-04-28T14:30:35.024Z</time></trkpt><trkpt lat="38.4048429" lon="21.9232336"><ele>3.5</ele><time>2026-04-28T14:30:36.022Z</time></trkpt><trkpt lat="38.4047847" lon="21.9229471"><ele>1.0</ele><time>2026-04-28T14:30:37.022Z</time></trkpt><trkpt lat="38.4047253" lon="21.9226611"><ele>0.5</ele><time>2026-04-28T14:30:38.023Z</time></trkpt><trkpt lat="38.4046667" lon="21.9223754"><ele>0.0</ele><time>2026-04-28T14:30:39.021Z</time></trkpt><trkpt lat="38.4046105" lon="21.9220913"><ele>0.0</ele><time>2026-04-28T14:30:40.022Z</time></trkpt><trkpt lat="38.404554" lon="21.9218112"><ele>0.0</ele><time>2026-04-28T14:30:41.022Z</time></trkpt><trkpt lat="38.4044974" lon="21.9215403"><ele>0.0</ele><time>2026-04-28T14:30:42.021Z</time></trkpt><trkpt lat="38.4044446" lon="21.9212794"><ele>0.3333333333333333</ele><time>2026-04-28T14:30:43.021Z</time></trkpt><trkpt lat="38.4043956" lon="21.9210371"><ele>0.6666666666666666</ele><time>2026-04-28T14:30:44.022Z</time></trkpt><trkpt lat="38.4043499" lon="21.9208111"><ele>1.0</ele><time>2026-04-28T14:30:45.023Z</time></trkpt><trkpt lat="38.4043069" lon="21.9205933"><ele>1.0</ele><time>2026-04-28T14:30:46.022Z</time></trkpt><trkpt lat="38.4042655" lon="21.9203897"><ele>1.0</ele><time>2026-04-28T14:30:47.024Z</time></trkpt><trkpt lat="38.4042253" lon="21.9201946"><ele>1.0</ele><time>2026-04-28T14:30:48.021Z</time></trkpt><trkpt lat="38.4041903" lon="21.9200147"><ele>1.25</ele><time>2026-04-28T14:30:49.024Z</time></trkpt><trkpt lat="38.4041576" lon="21.9198486"><ele>1.5</ele><time>2026-04-28T14:30:50.023Z</time></trkpt><trkpt lat="38.4041272" lon="21.9196924"><ele>1.75</ele><time>2026-04-28T14:30:51.019Z</time></trkpt><trkpt lat="38.404091" lon="21.9195041"><ele>2.0</ele><time>2026-04-28T14:30:52.021Z</time></trkpt><trkpt lat="38.4040343" lon="21.9192581"><ele>1.5</ele><time>2026-04-28T14:30:53.022Z</time></trkpt><trkpt lat="38.4039711" lon="21.9189562"><ele>1.0</ele><time>2026-04-28T14:30:54.023Z</time></trkpt><trkpt lat="38.4038986" lon="21.9186421"><ele>1.0</ele><time>2026-04-28T14:30:55.022Z</time></trkpt><trkpt lat="38.4038347" lon="21.9183055"><ele>1.0</ele><time>2026-04-28T14:30:56.022Z</time></trkpt><trkpt lat="38.4037716" lon="21.9180041"><ele>1.0</ele><time>2026-04-28T14:30:57.022Z</time></trkpt><trkpt lat="38.4037164" lon="21.9177336"><ele>1.0</ele><time>2026-04-28T14:30:58.023Z</time></trkpt><trkpt lat="38.4036715" lon="21.9175032"><ele>1.0</ele><time>2026-04-28T14:30:59.023Z</time></trkpt><trkpt lat="38.4036318" lon="21.9172913"><ele>1.0</ele><time>2026-04-28T14:31:00.02Z</time></trkpt><trkpt lat="38.4035992" lon="21.9170877"><ele>1.0</ele><time>2026-04-28T14:31:01.021Z</time></trkpt><trkpt lat="38.4035794" lon="21.9168893"><ele>1.0</ele><time>2026-04-28T14:31:02.022Z</time></trkpt><trkpt lat="38.4035719" lon="21.9166877"><ele>2.3333333333333335</ele><time>2026-04-28T14:31:03.023Z</time></trkpt><trkpt lat="38.4035671" lon="21.9164842"><ele>3.666666666666667</ele><time>2026-04-28T14:31:04.024Z</time></trkpt><trkpt lat="38.4035732" lon="21.9162768"><ele>5.0</ele><time>2026-04-28T14:31:05.022Z</time></trkpt><trkpt lat="38.4035932" lon="21.9160491"><ele>5.333333333333334</ele><time>2026-04-28T14:31:06.02Z</time></trkpt><trkpt lat="38.40362" lon="21.9158224"><ele>5.666666666666667</ele><time>2026-04-28T14:31:07.019Z</time></trkpt><trkpt lat="38.4036504" lon="21.9156003"><ele>6.0</ele><time>2026-04-28T14:31:08.023Z</time></trkpt><trkpt lat="38.4037" lon="21.9153764"><ele>6.0</ele><time>2026-04-28T14:31:09.024Z</time></trkpt><trkpt lat="38.4037692" lon="21.9151485"><ele>6.0</ele><time>2026-04-28T14:31:10.022Z</time></trkpt><trkpt lat="38.4038498" lon="21.9149194"><ele>6.0</ele><time>2026-04-28T14:31:11.02Z</time></trkpt><trkpt lat="38.4039471" lon="21.9146902"><ele>7.0</ele><time>2026-04-28T14:31:12.022Z</time></trkpt><trkpt lat="38.4040634" lon="21.9144625"><ele>8.0</ele><time>2026-04-28T14:31:13.022Z</time></trkpt><trkpt lat="38.4041801" lon="21.914239"><ele>9.0</ele><time>2026-04-28T14:31:14.022Z</time></trkpt><trkpt lat="38.4043187" lon="21.9140201"><ele>9.0</ele><time>2026-04-28T14:31:15.022Z</time></trkpt><trkpt lat="38.4044673" lon="21.9138002"><ele>9.0</ele><time>2026-04-28T14:31:16.022Z</time></trkpt><trkpt lat="38.4046226" lon="21.9135723"><ele>13.5</ele><time>2026-04-28T14:31:17.02Z</time></trkpt><trkpt lat="38.4047819" lon="21.9133318"><ele>18.0</ele><time>2026-04-28T14:31:18.023Z</time></trkpt><trkpt lat="38.4049494" lon="21.9130721"><ele>18.0</ele><time>2026-04-28T14:31:19.023Z</time></trkpt><trkpt lat="38.4051347" lon="21.9128038"><ele>18.0</ele><time>2026-04-28T14:31:20.021Z</time></trkpt><trkpt lat="38.4053254" lon="21.912525"><ele>22.5</ele><time>2026-04-28T14:31:21.021Z</time></trkpt><trkpt lat="38.4055223" lon="21.912239"><ele>27.0</ele><time>2026-04-28T14:31:22.024Z</time></trkpt><trkpt lat="38.4057267" lon="21.9119539"><ele>19.0</ele><time>2026-04-28T14:31:23.023Z</time></trkpt><trkpt lat="38.4059217" lon="21.9116728"><ele>11.0</ele><time>2026-04-28T14:31:24.021Z</time></trkpt><trkpt lat="38.4061136" lon="21.9113953"><ele>11.0</ele><time>2026-04-28T14:31:25.024Z</time></trkpt><trkpt lat="38.4062981" lon="21.9111205"><ele>11.0</ele><time>2026-04-28T14:31:26.024Z</time></trkpt><trkpt lat="38.40647" lon="21.9108578"><ele>14.5</ele><time>2026-04-28T14:31:27.024Z</time></trkpt><trkpt lat="38.4066348" lon="21.9106007"><ele>18.0</ele><time>2026-04-28T14:31:28.021Z</time></trkpt><trkpt lat="38.4067943" lon="21.9103462"><ele>18.0</ele><time>2026-04-28T14:31:29.024Z</time></trkpt><trkpt lat="38.406939" lon="21.9100753"><ele>18.0</ele><time>2026-04-28T14:31:30.022Z</time></trkpt><trkpt lat="38.4070725" lon="21.9097931"><ele>22.0</ele><time>2026-04-28T14:31:31.02Z</time></trkpt><trkpt lat="38.4071759" lon="21.9094976"><ele>26.0</ele><time>2026-04-28T14:31:32.023Z</time></trkpt><trkpt lat="38.4072626" lon="21.9091795"><ele>26.0</ele><time>2026-04-28T14:31:33.02Z</time></trkpt><trkpt lat="38.4073245" lon="21.9088372"><ele>26.0</ele><time>2026-04-28T14:31:34.022Z</time></trkpt><trkpt lat="38.4073736" lon="21.908481"><ele>24.5</ele><time>2026-04-28T14:31:35.023Z</time></trkpt><trkpt lat="38.4074149" lon="21.9081228"><ele>23.0</ele><time>2026-04-28T14:31:36.022Z</time></trkpt><trkpt lat="38.4074518" lon="21.9077703"><ele>21.5</ele><time>2026-04-28T14:31:37.024Z</time></trkpt><trkpt lat="38.4074847" lon="21.9074264"><ele>20.0</ele><time>2026-04-28T14:31:38.021Z</time></trkpt><trkpt lat="38.4075179" lon="21.9070949"><ele>20.0</ele><time>2026-04-28T14:31:39.02Z</time></trkpt><trkpt lat="38.4075545" lon="21.9067796"><ele>20.0</ele><time>2026-04-28T14:31:40.021Z</time></trkpt><trkpt lat="38.4075943" lon="21.9064814"><ele>19.5</ele><time>2026-04-28T14:31:41.021Z</time></trkpt><trkpt lat="38.4076405" lon="21.9061823"><ele>19.0</ele><time>2026-04-28T14:31:42.023Z</time></trkpt><trkpt lat="38.4076918" lon="21.9058713"><ele>16.5</ele><time>2026-04-28T14:31:43.02Z</time></trkpt><trkpt lat="38.4077525" lon="21.9055621"><ele>14.0</ele><time>2026-04-28T14:31:44.022Z</time></trkpt><trkpt lat="38.4078141" lon="21.9052498"><ele>12.5</ele><time>2026-04-28T14:31:45.024Z</time></trkpt><trkpt lat="38.407874" lon="21.9049397"><ele>11.0</ele><time>2026-04-28T14:31:46.024Z</time></trkpt><trkpt lat="38.4079319" lon="21.9046372"><ele>11.0</ele><time>2026-04-28T14:31:47.024Z</time></trkpt><trkpt lat="38.4079908" lon="21.9043352"><ele>11.0</ele><time>2026-04-28T14:31:48.023Z</time></trkpt><trkpt lat="38.4080491" lon="21.9040309"><ele>19.5</ele><time>2026-04-28T14:31:49.021Z</time></trkpt><trkpt lat="38.408107" lon="21.9037241"><ele>28.0</ele><time>2026-04-28T14:31:50.024Z</time></trkpt><trkpt lat="38.408165" lon="21.9034159"><ele>20.0</ele><time>2026-04-28T14:31:51.022Z</time></trkpt><trkpt lat="38.4082236" lon="21.9031099"><ele>12.0</ele><time>2026-04-28T14:31:52.024Z</time></trkpt><trkpt lat="38.408286" lon="21.9028037"><ele>11.0</ele><time>2026-04-28T14:31:53.021Z</time></trkpt><trkpt lat="38.408346" lon="21.9025019"><ele>10.0</ele><time>2026-04-28T14:31:54.023Z</time></trkpt><trkpt lat="38.4084059" lon="21.9022085"><ele>10.0</ele><time>2026-04-28T14:31:55.023Z</time></trkpt><trkpt lat="38.4084665" lon="21.9019243"><ele>10.0</ele><time>2026-04-28T14:31:56.024Z</time></trkpt><trkpt lat="38.4085284" lon="21.901647"><ele>11.5</ele><time>2026-04-28T14:31:57.021Z</time></trkpt><trkpt lat="38.4085974" lon="21.90137"><ele>13.0</ele><time>2026-04-28T14:31:58.021Z</time></trkpt><trkpt lat="38.4086747" lon="21.9010933"><ele>13.0</ele><time>2026-04-28T14:31:59.022Z</time></trkpt><trkpt lat="38.4087562" lon="21.9008198"><ele>13.0</ele><time>2026-04-28T14:32:00.024Z</time></trkpt><trkpt lat="38.4088438" lon="21.9005506"><ele>15.0</ele><time>2026-04-28T14:32:01.019Z</time></trkpt><trkpt lat="38.4089297" lon="21.9002832"><ele>17.0</ele><time>2026-04-28T14:32:02.02Z</time></trkpt><trkpt lat="38.4090245" lon="21.9000142"><ele>17.0</ele><time>2026-04-28T14:32:03.023Z</time></trkpt><trkpt lat="38.409114" lon="21.8997317"><ele>17.0</ele><time>2026-04-28T14:32:04.021Z</time></trkpt><trkpt lat="38.4092083" lon="21.899452"><ele>15.0</ele><time>2026-04-28T14:32:05.022Z</time></trkpt><trkpt lat="38.4093032" lon="21.8991634"><ele>13.0</ele><time>2026-04-28T14:32:06.019Z</time></trkpt><trkpt lat="38.4094056" lon="21.8988733"><ele>13.0</ele><time>2026-04-28T14:32:07.023Z</time></trkpt><trkpt lat="38.4095073" lon="21.8985822"><ele>13.0</ele><time>2026-04-28T14:32:08.021Z</time></trkpt><trkpt lat="38.4096078" lon="21.8982924"><ele>14.0</ele><time>2026-04-28T14:32:09.019Z</time></trkpt><trkpt lat="38.4097076" lon="21.8980056"><ele>15.0</ele><time>2026-04-28T14:32:10.023Z</time></trkpt><trkpt lat="38.4098051" lon="21.8977188"><ele>14.0</ele><time>2026-04-28T14:32:11.023Z</time></trkpt><trkpt lat="38.4099024" lon="21.897432"><ele>13.0</ele><time>2026-04-28T14:32:12.024Z</time></trkpt><trkpt lat="38.4099979" lon="21.8971404"><ele>13.0</ele><time>2026-04-28T14:32:13.024Z</time></trkpt><trkpt lat="38.4100866" lon="21.8968401"><ele>13.0</ele><time>2026-04-28T14:32:14.024Z</time></trkpt><trkpt lat="38.4101682" lon="21.8965357"><ele>13.5</ele><time>2026-04-28T14:32:15.022Z</time></trkpt><trkpt lat="38.4102464" lon="21.8962271"><ele>14.0</ele><time>2026-04-28T14:32:16.022Z</time></trkpt><trkpt lat="38.4103185" lon="21.8959181"><ele>15.0</ele><time>2026-04-28T14:32:17.023Z</time></trkpt><trkpt lat="38.4103839" lon="21.8956093"><ele>16.0</ele><time>2026-04-28T14:32:18.022Z</time></trkpt><trkpt lat="38.4104414" lon="21.8952988"><ele>15.5</ele><time>2026-04-28T14:32:19.02Z</time></trkpt><trkpt lat="38.4104932" lon="21.8949839"><ele>15.0</ele><time>2026-04-28T14:32:20.023Z</time></trkpt><trkpt lat="38.4105354" lon="21.8946727"><ele>15.0</ele><time>2026-04-28T14:32:21.023Z</time></trkpt><trkpt lat="38.4105732" lon="21.8943557"><ele>15.0</ele><time>2026-04-28T14:32:22.021Z</time></trkpt><trkpt lat="38.4106044" lon="21.8940303"><ele>15.5</ele><time>2026-04-28T14:32:23.023Z</time></trkpt><trkpt lat="38.4106294" lon="21.8936996"><ele>16.0</ele><time>2026-04-28T14:32:24.022Z</time></trkpt><trkpt lat="38.4106449" lon="21.8933655"><ele>17.5</ele><time>2026-04-28T14:32:25.023Z</time></trkpt><trkpt lat="38.4106529" lon="21.8930324"><ele>19.0</ele><time>2026-04-28T14:32:26.022Z</time></trkpt><trkpt lat="38.4106541" lon="21.8926979"><ele>19.0</ele><time>2026-04-28T14:32:27.024Z</time></trkpt><trkpt lat="38.4106471" lon="21.8923647"><ele>19.0</ele><time>2026-04-28T14:32:28.023Z</time></trkpt><trkpt lat="38.4106355" lon="21.8920339"><ele>18.5</ele><time>2026-04-28T14:32:29.02Z</time></trkpt><trkpt lat="38.4106134" lon="21.8917054"><ele>18.0</ele><time>2026-04-28T14:32:30.023Z</time></trkpt><trkpt lat="38.4105849" lon="21.8913808"><ele>18.0</ele><time>2026-04-28T14:32:31.019Z</time></trkpt><trkpt lat="38.4105488" lon="21.8910616"><ele>18.0</ele><time>2026-04-28T14:32:32.023Z</time></trkpt><trkpt lat="38.4105059" lon="21.8907464"><ele>18.0</ele><time>2026-04-28T14:32:33.023Z</time></trkpt><trkpt lat="38.4104577" lon="21.8904347"><ele>18.0</ele><time>2026-04-28T14:32:34.022Z</time></trkpt><trkpt lat="38.4104025" lon="21.8901285"><ele>17.0</ele><time>2026-04-28T14:32:35.024Z</time></trkpt><trkpt lat="38.4103399" lon="21.8898254"><ele>16.0</ele><time>2026-04-28T14:32:36.022Z</time></trkpt><trkpt lat="38.4102723" lon="21.8895238"><ele>16.0</ele><time>2026-04-28T14:32:37.023Z</time></trkpt><trkpt lat="38.4102012" lon="21.8892229"><ele>16.0</ele><time>2026-04-28T14:32:38.023Z</time></trkpt><trkpt lat="38.4101269" lon="21.8889144"><ele>16.0</ele><time>2026-04-28T14:32:39.024Z</time></trkpt><trkpt lat="38.4100492" lon="21.8885949"><ele>16.0</ele><time>2026-04-28T14:32:40.022Z</time></trkpt><trkpt lat="38.409972" lon="21.8882657"><ele>17.5</ele><time>2026-04-28T14:32:41.022Z</time></trkpt><trkpt lat="38.4098936" lon="21.8879307"><ele>19.0</ele><time>2026-04-28T14:32:42.02Z</time></trkpt><trkpt lat="38.4098131" lon="21.8875917"><ele>19.5</ele><time>2026-04-28T14:32:43.024Z</time></trkpt><trkpt lat="38.4097313" lon="21.8872525"><ele>20.0</ele><time>2026-04-28T14:32:44.02Z</time></trkpt><trkpt lat="38.4096489" lon="21.8869134"><ele>19.0</ele><time>2026-04-28T14:32:45.022Z</time></trkpt><trkpt lat="38.4095674" lon="21.8865677"><ele>18.0</ele><time>2026-04-28T14:32:46.021Z</time></trkpt><trkpt lat="38.4094848" lon="21.886209"><ele>17.5</ele><time>2026-04-28T14:32:47.021Z</time></trkpt><trkpt lat="38.4094002" lon="21.8858485"><ele>17.0</ele><time>2026-04-28T14:32:48.02Z</time></trkpt><trkpt lat="38.4093163" lon="21.8854905"><ele>17.0</ele><time>2026-04-28T14:32:49.022Z</time></trkpt><trkpt lat="38.4092285" lon="21.885134"><ele>17.0</ele><time>2026-04-28T14:32:50.023Z</time></trkpt><trkpt lat="38.4091446" lon="21.8847823"><ele>17.5</ele><time>2026-04-28T14:32:51.023Z</time></trkpt><trkpt lat="38.4090604" lon="21.8844335"><ele>18.0</ele><time>2026-04-28T14:32:52.02Z</time></trkpt><trkpt lat="38.4089764" lon="21.8840892"><ele>18.5</ele><time>2026-04-28T14:32:53.021Z</time></trkpt><trkpt lat="38.4088933" lon="21.8837495"><ele>19.0</ele><time>2026-04-28T14:32:54.022Z</time></trkpt><trkpt lat="38.4088123" lon="21.8834151"><ele>18.0</ele><time>2026-04-28T14:32:55.019Z</time></trkpt><trkpt lat="38.4087315" lon="21.883084"><ele>17.0</ele><time>2026-04-28T14:32:56.024Z</time></trkpt><trkpt lat="38.4086539" lon="21.8827557"><ele>18.0</ele><time>2026-04-28T14:32:57.02Z</time></trkpt><trkpt lat="38.4085764" lon="21.882431"><ele>19.0</ele><time>2026-04-28T14:32:58.023Z</time></trkpt><trkpt lat="38.4084996" lon="21.8821094"><ele>19.0</ele><time>2026-04-28T14:32:59.023Z</time></trkpt><trkpt lat="38.4084252" lon="21.8817902"><ele>19.0</ele><time>2026-04-28T14:33:00.021Z</time></trkpt><trkpt lat="38.4083491" lon="21.8814735"><ele>19.0</ele><time>2026-04-28T14:33:01.021Z</time></trkpt><trkpt lat="38.4082733" lon="21.8811594"><ele>19.0</ele><time>2026-04-28T14:33:02.021Z</time></trkpt><trkpt lat="38.4081974" lon="21.880848"><ele>19.0</ele><time>2026-04-28T14:33:03.02Z</time></trkpt><trkpt lat="38.4081253" lon="21.880545"><ele>19.0</ele><time>2026-04-28T14:33:04.022Z</time></trkpt><trkpt lat="38.4080533" lon="21.8802466"><ele>17.5</ele><time>2026-04-28T14:33:05.021Z</time></trkpt><trkpt lat="38.4079787" lon="21.8799484"><ele>16.0</ele><time>2026-04-28T14:33:06.022Z</time></trkpt><trkpt lat="38.407905" lon="21.8796467"><ele>16.0</ele><time>2026-04-28T14:33:07.02Z</time></trkpt><trkpt lat="38.4078444" lon="21.8793382"><ele>16.0</ele><time>2026-04-28T14:33:08.018Z</time></trkpt><trkpt lat="38.4077704" lon="21.8790302"><ele>16.0</ele><time>2026-04-28T14:33:09.022Z</time></trkpt><trkpt lat="38.4076963" lon="21.878721"><ele>16.0</ele><time>2026-04-28T14:33:10.019Z</time></trkpt><trkpt lat="38.4076219" lon="21.8784117"><ele>16.0</ele><time>2026-04-28T14:33:11.022Z</time></trkpt><trkpt lat="38.4075466" lon="21.8781019"><ele>16.0</ele><time>2026-04-28T14:33:12.02Z</time></trkpt><trkpt lat="38.4074698" lon="21.8777909"><ele>15.5</ele><time>2026-04-28T14:33:13.019Z</time></trkpt><trkpt lat="38.407394" lon="21.8774842"><ele>15.0</ele><time>2026-04-28T14:33:14.021Z</time></trkpt><trkpt lat="38.4073211" lon="21.8771807"><ele>15.0</ele><time>2026-04-28T14:33:15.02Z</time></trkpt><trkpt lat="38.407249" lon="21.8768798"><ele>15.0</ele><time>2026-04-28T14:33:16.019Z</time></trkpt><trkpt lat="38.4071764" lon="21.8765804"><ele>14.5</ele><time>2026-04-28T14:33:17.022Z</time></trkpt><trkpt lat="38.4071047" lon="21.8762836"><ele>14.0</ele><time>2026-04-28T14:33:18.021Z</time></trkpt><trkpt lat="38.407032" lon="21.8759823"><ele>14.5</ele><time>2026-04-28T14:33:19.021Z</time></trkpt><trkpt lat="38.4069584" lon="21.875681"><ele>15.0</ele><time>2026-04-28T14:33:20.022Z</time></trkpt><trkpt lat="38.4068878" lon="21.8753957"><ele>15.0</ele><time>2026-04-28T14:33:21.023Z</time></trkpt><trkpt lat="38.4068227" lon="21.87512"><ele>15.0</ele><time>2026-04-28T14:33:22.023Z</time></trkpt><trkpt lat="38.4067584" lon="21.8748554"><ele>15.0</ele><time>2026-04-28T14:33:23.02Z</time></trkpt><trkpt lat="38.4066973" lon="21.8745954"><ele>15.0</ele><time>2026-04-28T14:33:24.021Z</time></trkpt><trkpt lat="38.4066389" lon="21.8743454"><ele>15.0</ele><time>2026-04-28T14:33:25.021Z</time></trkpt><trkpt lat="38.4065786" lon="21.8741003"><ele>15.0</ele><time>2026-04-28T14:33:26.02Z</time></trkpt><trkpt lat="38.4065223" lon="21.8738628"><ele>14.666666666666668</ele><time>2026-04-28T14:33:27.021Z</time></trkpt><trkpt lat="38.4064672" lon="21.8736257"><ele>14.333333333333334</ele><time>2026-04-28T14:33:28.021Z</time></trkpt><trkpt lat="38.4064158" lon="21.8733869"><ele>14.0</ele><time>2026-04-28T14:33:29.022Z</time></trkpt><trkpt lat="38.4063698" lon="21.8731485"><ele>13.666666666666668</ele><time>2026-04-28T14:33:30.021Z</time></trkpt><trkpt lat="38.4063294" lon="21.8729083"><ele>13.333333333333332</ele><time>2026-04-28T14:33:31.02Z</time></trkpt><trkpt lat="38.4062955" lon="21.8726727"><ele>13.0</ele><time>2026-04-28T14:33:32.021Z</time></trkpt><trkpt lat="38.4062643" lon="21.8724467"><ele>13.0</ele><time>2026-04-28T14:33:33.024Z</time></trkpt><trkpt lat="38.4062392" lon="21.8722186"><ele>13.0</ele><time>2026-04-28T14:33:34.02Z</time></trkpt><trkpt lat="38.4062174" lon="21.8719953"><ele>13.0</ele><time>2026-04-28T14:33:35.02Z</time></trkpt><trkpt lat="38.4062013" lon="21.8717705"><ele>12.666666666666666</ele><time>2026-04-28T14:33:36.02Z</time></trkpt><trkpt lat="38.4061897" lon="21.8715562"><ele>12.333333333333332</ele><time>2026-04-28T14:33:37.019Z</time></trkpt><trkpt lat="38.4061861" lon="21.8713525"><ele>12.0</ele><time>2026-04-28T14:33:38.021Z</time></trkpt><trkpt lat="38.4061913" lon="21.871152"><ele>12.0</ele><time>2026-04-28T14:33:39.021Z</time></trkpt><trkpt lat="38.4061999" lon="21.8709502"><ele>12.0</ele><time>2026-04-28T14:33:40.019Z</time></trkpt><trkpt lat="38.4062125" lon="21.8707449"><ele>12.0</ele><time>2026-04-28T14:33:41.019Z</time></trkpt><trkpt lat="38.406229" lon="21.8705444"><ele>12.0</ele><time>2026-04-28T14:33:42.021Z</time></trkpt><trkpt lat="38.4062474" lon="21.8703561"><ele>12.0</ele><time>2026-04-28T14:33:43.021Z</time></trkpt><trkpt lat="38.406269" lon="21.8701792"><ele>12.0</ele><time>2026-04-28T14:33:44.022Z</time></trkpt><trkpt lat="38.4062923" lon="21.870015"><ele>12.0</ele><time>2026-04-28T14:33:45.02Z</time></trkpt><trkpt lat="38.4063183" lon="21.8698664"><ele>12.6</ele><time>2026-04-28T14:33:46.022Z</time></trkpt><trkpt lat="38.4063487" lon="21.8697386"><ele>13.2</ele><time>2026-04-28T14:33:47.021Z</time></trkpt><trkpt lat="38.4063882" lon="21.8696283"><ele>13.8</ele><time>2026-04-28T14:33:48.022Z</time></trkpt><trkpt lat="38.4064426" lon="21.8695301"><ele>14.4</ele><time>2026-04-28T14:33:49.02Z</time></trkpt><trkpt lat="38.4065226" lon="21.8694939"><ele>15.0</ele><time>2026-04-28T14:33:50.019Z</time></trkpt><trkpt lat="38.4066174" lon="21.8694739"><ele>15.0</ele><time>2026-04-28T14:33:51.021Z</time></trkpt><trkpt lat="38.4067259" lon="21.8694704"><ele>15.0</ele><time>2026-04-28T14:33:52.021Z</time></trkpt><trkpt lat="38.4068376" lon="21.8694748"><ele>15.0</ele><time>2026-04-28T14:33:53.021Z</time></trkpt><trkpt lat="38.4069459" lon="21.8694763"><ele>15.0</ele><time>2026-04-28T14:33:54.021Z</time></trkpt><trkpt lat="38.4070514" lon="21.8694674"><ele>15.0</ele><time>2026-04-28T14:33:55.021Z</time></trkpt><trkpt lat="38.4071579" lon="21.8694509"><ele>15.25</ele><time>2026-04-28T14:33:56.021Z</time></trkpt><trkpt lat="38.4072697" lon="21.8694193"><ele>15.5</ele><time>2026-04-28T14:33:57.021Z</time></trkpt><trkpt lat="38.4073845" lon="21.8693807"><ele>15.75</ele><time>2026-04-28T14:33:58.024Z</time></trkpt><trkpt lat="38.4075024" lon="21.869323"><ele>16.0</ele><time>2026-04-28T14:33:59.019Z</time></trkpt><trkpt lat="38.407616" lon="21.8692468"><ele>16.0</ele><time>2026-04-28T14:34:00.021Z</time></trkpt><trkpt lat="38.4077234" lon="21.8691569"><ele>16.0</ele><time>2026-04-28T14:34:01.023Z</time></trkpt><trkpt lat="38.4078264" lon="21.8690611"><ele>16.0</ele><time>2026-04-28T14:34:02.021Z</time></trkpt><trkpt lat="38.4079276" lon="21.8689677"><ele>16.0</ele><time>2026-04-28T14:34:03.023Z</time></trkpt><trkpt lat="38.4080272" lon="21.8688738"><ele>17.5</ele><time>2026-04-28T14:34:04.02Z</time></trkpt><trkpt lat="38.4081251" lon="21.8687794"><ele>19.0</ele><time>2026-04-28T14:34:05.02Z</time></trkpt><trkpt lat="38.4082207" lon="21.8686846"><ele>20.5</ele><time>2026-04-28T14:34:06.019Z</time></trkpt><trkpt lat="38.4083127" lon="21.8685888"><ele>22.0</ele><time>2026-04-28T14:34:07.02Z</time></trkpt><trkpt lat="38.4084049" lon="21.8684957"><ele>21.8</ele><time>2026-04-28T14:34:08.02Z</time></trkpt><trkpt lat="38.4084976" lon="21.8684053"><ele>21.6</ele><time>2026-04-28T14:34:09.02Z</time></trkpt><trkpt lat="38.4085904" lon="21.868318"><ele>21.400000000000002</ele><time>2026-04-28T14:34:10.02Z</time></trkpt><trkpt lat="38.4086761" lon="21.8682384"><ele>21.200000000000003</ele><time>2026-04-28T14:34:11.023Z</time></trkpt><trkpt lat="38.4087532" lon="21.8681678"><ele>21.0</ele><time>2026-04-28T14:34:12.023Z</time></trkpt><trkpt lat="38.4088203" lon="21.868112"><ele>21.0</ele><time>2026-04-28T14:34:13.021Z</time></trkpt><trkpt lat="38.4088866" lon="21.8680479"><ele>21.0</ele><time>2026-04-28T14:34:15.021Z</time></trkpt><trkpt lat="38.4089289" lon="21.8679712"><ele>21.0</ele><time>2026-04-28T14:34:19.02Z</time></trkpt><trkpt lat="38.408925" lon="21.8678697"><ele>21.0</ele><time>2026-04-28T14:34:21.022Z</time></trkpt><trkpt lat="38.4088875" lon="21.8677885"><ele>21.0</ele><time>2026-04-28T14:34:22.019Z</time></trkpt><trkpt lat="38.4088074" lon="21.8676824"><ele>21.0</ele><time>2026-04-28T14:34:23.02Z</time></trkpt><trkpt lat="38.4087058" lon="21.867571"><ele>22.333333333333336</ele><time>2026-04-28T14:34:24.02Z</time></trkpt><trkpt lat="38.4085774" lon="21.8674621"><ele>23.666666666666668</ele><time>2026-04-28T14:34:25.019Z</time></trkpt><trkpt lat="38.4084255" lon="21.8673384"><ele>25.0</ele><time>2026-04-28T14:34:26.021Z</time></trkpt><trkpt lat="38.4082729" lon="21.8671941"><ele>25.0</ele><time>2026-04-28T14:34:27.02Z</time></trkpt><trkpt lat="38.4081221" lon="21.8670234"><ele>25.0</ele><time>2026-04-28T14:34:28.023Z</time></trkpt><trkpt lat="38.4079732" lon="21.8668618"><ele>25.0</ele><time>2026-04-28T14:34:29.024Z</time></trkpt><trkpt lat="38.4078411" lon="21.8666852"><ele>25.666666666666668</ele><time>2026-04-28T14:34:30.023Z</time></trkpt><trkpt lat="38.4077117" lon="21.8665218"><ele>26.333333333333336</ele><time>2026-04-28T14:34:31.024Z</time></trkpt><trkpt lat="38.4075922" lon="21.8663622"><ele>27.0</ele><time>2026-04-28T14:34:32.023Z</time></trkpt><trkpt lat="38.4074804" lon="21.8662067"><ele>27.0</ele><time>2026-04-28T14:34:33.023Z</time></trkpt><trkpt lat="38.4073724" lon="21.8660503"><ele>27.0</ele><time>2026-04-28T14:34:34.023Z</time></trkpt><trkpt lat="38.4072683" lon="21.8658907"><ele>27.0</ele><time>2026-04-28T14:34:35.02Z</time></trkpt><trkpt lat="38.4071599" lon="21.8657324"><ele>25.0</ele><time>2026-04-28T14:34:36.021Z</time></trkpt><trkpt lat="38.4070541" lon="21.8655781"><ele>23.0</ele><time>2026-04-28T14:34:37.024Z</time></trkpt><trkpt lat="38.4069454" lon="21.8654264"><ele>21.0</ele><time>2026-04-28T14:34:38.021Z</time></trkpt><trkpt lat="38.406836" lon="21.8652692"><ele>21.0</ele><time>2026-04-28T14:34:39.02Z</time></trkpt><trkpt lat="38.4067338" lon="21.8651067"><ele>21.0</ele><time>2026-04-28T14:34:40.021Z</time></trkpt><trkpt lat="38.4066256" lon="21.8649425"><ele>21.0</ele><time>2026-04-28T14:34:41.021Z</time></trkpt><trkpt lat="38.4065131" lon="21.8647851"><ele>21.0</ele><time>2026-04-28T14:34:42.021Z</time></trkpt><trkpt lat="38.4064128" lon="21.8646312"><ele>21.0</ele><time>2026-04-28T14:34:43.022Z</time></trkpt><trkpt lat="38.4063112" lon="21.8644812"><ele>21.0</ele><time>2026-04-28T14:34:44.023Z</time></trkpt><trkpt lat="38.4062086" lon="21.8643334"><ele>20.333333333333332</ele><time>2026-04-28T14:34:45.02Z</time></trkpt><trkpt lat="38.4061043" lon="21.8641848"><ele>19.666666666666664</ele><time>2026-04-28T14:34:46.023Z</time></trkpt><trkpt lat="38.4060009" lon="21.864031"><ele>19.0</ele><time>2026-04-28T14:34:47.019Z</time></trkpt><trkpt lat="38.4058969" lon="21.8638829"><ele>19.0</ele><time>2026-04-28T14:34:48.023Z</time></trkpt><trkpt lat="38.4057965" lon="21.86373"><ele>19.0</ele><time>2026-04-28T14:34:49.022Z</time></trkpt><trkpt lat="38.4056981" lon="21.8635792"><ele>19.0</ele><time>2026-04-28T14:34:50.022Z</time></trkpt><trkpt lat="38.4055959" lon="21.8634247"><ele>17.0</ele><time>2026-04-28T14:34:51.022Z</time></trkpt><trkpt lat="38.4054944" lon="21.8632715"><ele>15.0</ele><time>2026-04-28T14:34:52.021Z</time></trkpt><trkpt lat="38.4053933" lon="21.8631169"><ele>13.0</ele><time>2026-04-28T14:34:53.02Z</time></trkpt><trkpt lat="38.4052888" lon="21.8629643"><ele>13.0</ele><time>2026-04-28T14:34:54.019Z</time></trkpt><trkpt lat="38.4051845" lon="21.8628143"><ele>13.0</ele><time>2026-04-28T14:34:55.024Z</time></trkpt><trkpt lat="38.4050779" lon="21.8626633"><ele>13.0</ele><time>2026-04-28T14:34:56.021Z</time></trkpt><trkpt lat="38.4049727" lon="21.8625102"><ele>13.333333333333332</ele><time>2026-04-28T14:34:57.022Z</time></trkpt><trkpt lat="38.4048694" lon="21.8623547"><ele>13.666666666666668</ele><time>2026-04-28T14:34:58.021Z</time></trkpt><trkpt lat="38.4047663" lon="21.8621972"><ele>14.0</ele><time>2026-04-28T14:34:59.021Z</time></trkpt><trkpt lat="38.4046606" lon="21.8620402"><ele>14.0</ele><time>2026-04-28T14:35:00.021Z</time></trkpt><trkpt lat="38.4045535" lon="21.8618801"><ele>14.0</ele><time>2026-04-28T14:35:01.021Z</time></trkpt><trkpt lat="38.4044432" lon="21.8617193"><ele>14.0</ele><time>2026-04-28T14:35:02.024Z</time></trkpt><trkpt lat="38.4043323" lon="21.8615581"><ele>14.0</ele><time>2026-04-28T14:35:03.021Z</time></trkpt><trkpt lat="38.4042203" lon="21.8613948"><ele>14.0</ele><time>2026-04-28T14:35:04.021Z</time></trkpt><trkpt lat="38.4041149" lon="21.8612317"><ele>14.0</ele><time>2026-04-28T14:35:05.019Z</time></trkpt><trkpt lat="38.4040031" lon="21.861069"><ele>14.666666666666668</ele><time>2026-04-28T14:35:06.022Z</time></trkpt><trkpt lat="38.4038961" lon="21.8609128"><ele>15.333333333333332</ele><time>2026-04-28T14:35:07.022Z</time></trkpt><trkpt lat="38.4037957" lon="21.8607662"><ele>16.0</ele><time>2026-04-28T14:35:08.023Z</time></trkpt><trkpt lat="38.4036977" lon="21.8606243"><ele>16.25</ele><time>2026-04-28T14:35:09.023Z</time></trkpt><trkpt lat="38.4036032" lon="21.8604812"><ele>16.5</ele><time>2026-04-28T14:35:10.024Z</time></trkpt><trkpt lat="38.4035127" lon="21.8603375"><ele>16.75</ele><time>2026-04-28T14:35:11.019Z</time></trkpt><trkpt lat="38.4034244" lon="21.8601936"><ele>17.0</ele><time>2026-04-28T14:35:12.022Z</time></trkpt><trkpt lat="38.4033403" lon="21.8600469"><ele>18.25</ele><time>2026-04-28T14:35:13.023Z</time></trkpt><trkpt lat="38.4032547" lon="21.8599202"><ele>19.5</ele><time>2026-04-28T14:35:14.018Z</time></trkpt><trkpt lat="38.4031811" lon="21.8597941"><ele>20.75</ele><time>2026-04-28T14:35:15.024Z</time></trkpt><trkpt lat="38.4031065" lon="21.8596801"><ele>22.0</ele><time>2026-04-28T14:35:16.02Z</time></trkpt><trkpt lat="38.4030484" lon="21.8595574"><ele>22.0</ele><time>2026-04-28T14:35:17.024Z</time></trkpt><trkpt lat="38.4029776" lon="21.8594313"><ele>22.0</ele><time>2026-04-28T14:35:18.021Z</time></trkpt><trkpt lat="38.4029122" lon="21.8592867"><ele>22.0</ele><time>2026-04-28T14:35:19.021Z</time></trkpt><trkpt lat="38.4028456" lon="21.8591357"><ele>22.0</ele><time>2026-04-28T14:35:20.023Z</time></trkpt><trkpt lat="38.4027813" lon="21.8589878"><ele>22.0</ele><time>2026-04-28T14:35:21.021Z</time></trkpt><trkpt lat="38.4027278" lon="21.858848"><ele>22.0</ele><time>2026-04-28T14:35:22.02Z</time></trkpt><trkpt lat="38.4026745" lon="21.8587099"><ele>22.0</ele><time>2026-04-28T14:35:23.022Z</time></trkpt><trkpt lat="38.4026215" lon="21.8585734"><ele>22.0</ele><time>2026-04-28T14:35:24.021Z</time></trkpt><trkpt lat="38.4025689" lon="21.8584389"><ele>22.5</ele><time>2026-04-28T14:35:25.022Z</time></trkpt><trkpt lat="38.4025155" lon="21.8583069"><ele>23.0</ele><time>2026-04-28T14:35:26.023Z</time></trkpt><trkpt lat="38.4024632" lon="21.8581775"><ele>23.5</ele><time>2026-04-28T14:35:27.02Z</time></trkpt><trkpt lat="38.402411" lon="21.8580496"><ele>24.0</ele><time>2026-04-28T14:35:28.021Z</time></trkpt><trkpt lat="38.4023595" lon="21.8579208"><ele>24.0</ele><time>2026-04-28T14:35:29.021Z</time></trkpt><trkpt lat="38.4023147" lon="21.8577898"><ele>24.0</ele><time>2026-04-28T14:35:30.021Z</time></trkpt><trkpt lat="38.4022676" lon="21.8576596"><ele>24.0</ele><time>2026-04-28T14:35:31.023Z</time></trkpt><trkpt lat="38.4022174" lon="21.8575329"><ele>24.0</ele><time>2026-04-28T14:35:32.023Z</time></trkpt><trkpt lat="38.4021667" lon="21.8574073"><ele>24.0</ele><time>2026-04-28T14:35:33.023Z</time></trkpt><trkpt lat="38.4021179" lon="21.8572824"><ele>23.799999999999997</ele><time>2026-04-28T14:35:34.02Z</time></trkpt><trkpt lat="38.4020706" lon="21.8571642"><ele>23.599999999999998</ele><time>2026-04-28T14:35:35.024Z</time></trkpt><trkpt lat="38.4020248" lon="21.8570555"><ele>23.4</ele><time>2026-04-28T14:35:36.021Z</time></trkpt><trkpt lat="38.4019819" lon="21.8569478"><ele>23.2</ele><time>2026-04-28T14:35:37.022Z</time></trkpt><trkpt lat="38.401938" lon="21.8568406"><ele>23.0</ele><time>2026-04-28T14:35:38.02Z</time></trkpt><trkpt lat="38.4019013" lon="21.856738"><ele>23.333333333333336</ele><time>2026-04-28T14:35:39.023Z</time></trkpt><trkpt lat="38.4018605" lon="21.8566435"><ele>23.666666666666668</ele><time>2026-04-28T14:35:40.022Z</time></trkpt><trkpt lat="38.4018215" lon="21.8565555"><ele>24.0</ele><time>2026-04-28T14:35:41.024Z</time></trkpt><trkpt lat="38.4017888" lon="21.8564667"><ele>24.333333333333336</ele><time>2026-04-28T14:35:42.024Z</time></trkpt><trkpt lat="38.4017562" lon="21.8563797"><ele>24.666666666666668</ele><time>2026-04-28T14:35:43.021Z</time></trkpt><trkpt lat="38.4017214" lon="21.8563"><ele>25.0</ele><time>2026-04-28T14:35:44.018Z</time></trkpt><trkpt lat="38.4016888" lon="21.8562176"><ele>25.000000000000004</ele><time>2026-04-28T14:35:45.024Z</time></trkpt><trkpt lat="38.401654" lon="21.8561339"><ele>25.0</ele><time>2026-04-28T14:35:46.023Z</time></trkpt><trkpt lat="38.4016185" lon="21.8560488"><ele>25.0</ele><time>2026-04-28T14:35:47.023Z</time></trkpt><trkpt lat="38.4015867" lon="21.8559614"><ele>25.0</ele><time>2026-04-28T14:35:48.02Z</time></trkpt><trkpt lat="38.4015571" lon="21.8558887"><ele>25.0</ele><time>2026-04-28T14:35:49.021Z</time></trkpt><trkpt lat="38.4015317" lon="21.855814"><ele>25.000000000000004</ele><time>2026-04-28T14:35:50.019Z</time></trkpt><trkpt lat="38.4015009" lon="21.8557435"><ele>25.0</ele><time>2026-04-28T14:35:51.021Z</time></trkpt><trkpt lat="38.4014628" lon="21.8556254"><ele>25.166666666666668</ele><time>2026-04-28T14:35:53.023Z</time></trkpt><trkpt lat="38.4014442" lon="21.855538"><ele>25.333333333333336</ele><time>2026-04-28T14:35:56.021Z</time></trkpt><trkpt lat="38.4014071" lon="21.8554497"><ele>25.5</ele><time>2026-04-28T14:36:00.02Z</time></trkpt><trkpt lat="38.4013787" lon="21.8553678"><ele>25.666666666666664</ele><time>2026-04-28T14:36:02.018Z</time></trkpt><trkpt lat="38.401349" lon="21.8552844"><ele>25.833333333333332</ele><time>2026-04-28T14:36:03.018Z</time></trkpt><trkpt lat="38.4012926" lon="21.8551682"><ele>26.0</ele><time>2026-04-28T14:36:04.02Z</time></trkpt><trkpt lat="38.4012319" lon="21.8550298"><ele>25.25</ele><time>2026-04-28T14:36:05.02Z</time></trkpt><trkpt lat="38.4011776" lon="21.8548734"><ele>24.5</ele><time>2026-04-28T14:36:06.021Z</time></trkpt><trkpt lat="38.401125" lon="21.8547247"><ele>23.75</ele><time>2026-04-28T14:36:07.02Z</time></trkpt><trkpt lat="38.401078" lon="21.8545862"><ele>23.0</ele><time>2026-04-28T14:36:08.021Z</time></trkpt><trkpt lat="38.4010302" lon="21.8544628"><ele>23.0</ele><time>2026-04-28T14:36:09.023Z</time></trkpt><trkpt lat="38.4009789" lon="21.8543341"><ele>23.0</ele><time>2026-04-28T14:36:10.022Z</time></trkpt><trkpt lat="38.4009311" lon="21.8542006"><ele>23.0</ele><time>2026-04-28T14:36:11.022Z</time></trkpt><trkpt lat="38.4008825" lon="21.8540677"><ele>23.0</ele><time>2026-04-28T14:36:12.021Z</time></trkpt><trkpt lat="38.400832" lon="21.8539371"><ele>23.25</ele><time>2026-04-28T14:36:13.018Z</time></trkpt><trkpt lat="38.4007835" lon="21.8538104"><ele>23.5</ele><time>2026-04-28T14:36:14.022Z</time></trkpt><trkpt lat="38.400733" lon="21.8536774"><ele>23.75</ele><time>2026-04-28T14:36:15.019Z</time></trkpt><trkpt lat="38.4006778" lon="21.853541"><ele>24.0</ele><time>2026-04-28T14:36:16.021Z</time></trkpt><trkpt lat="38.4006211" lon="21.8533956"><ele>24.25</ele><time>2026-04-28T14:36:17.019Z</time></trkpt><trkpt lat="38.4005645" lon="21.8532416"><ele>24.5</ele><time>2026-04-28T14:36:18.019Z</time></trkpt><trkpt lat="38.4005088" lon="21.8530857"><ele>24.75</ele><time>2026-04-28T14:36:19.019Z</time></trkpt><trkpt lat="38.4004552" lon="21.8529295"><ele>25.0</ele><time>2026-04-28T14:36:20.02Z</time></trkpt><trkpt lat="38.4003992" lon="21.8527775"><ele>25.0</ele><time>2026-04-28T14:36:21.021Z</time></trkpt><trkpt lat="38.4003457" lon="21.8526232"><ele>25.0</ele><time>2026-04-28T14:36:22.022Z</time></trkpt><trkpt lat="38.4002944" lon="21.8524769"><ele>25.0</ele><time>2026-04-28T14:36:23.02Z</time></trkpt><trkpt lat="38.4002425" lon="21.8523333"><ele>25.0</ele><time>2026-04-28T14:36:24.021Z</time></trkpt><trkpt lat="38.4001936" lon="21.8521882"><ele>25.0</ele><time>2026-04-28T14:36:25.021Z</time></trkpt><trkpt lat="38.4001434" lon="21.8520509"><ele>25.0</ele><time>2026-04-28T14:36:26.02Z</time></trkpt><trkpt lat="38.400093" lon="21.8519154"><ele>25.0</ele><time>2026-04-28T14:36:27.022Z</time></trkpt><trkpt lat="38.4000413" lon="21.8517824"><ele>25.0</ele><time>2026-04-28T14:36:28.024Z</time></trkpt><trkpt lat="38.3999908" lon="21.8516522"><ele>25.25</ele><time>2026-04-28T14:36:29.023Z</time></trkpt><trkpt lat="38.3999425" lon="21.8515217"><ele>25.5</ele><time>2026-04-28T14:36:30.021Z</time></trkpt><trkpt lat="38.3998958" lon="21.8513901"><ele>25.75</ele><time>2026-04-28T14:36:31.02Z</time></trkpt><trkpt lat="38.3998454" lon="21.8512598"><ele>26.0</ele><time>2026-04-28T14:36:32.02Z</time></trkpt><trkpt lat="38.3997806" lon="21.8511339"><ele>26.0</ele><time>2026-04-28T14:36:33.022Z</time></trkpt><trkpt lat="38.3997226" lon="21.8510085"><ele>26.0</ele><time>2026-04-28T14:36:34.021Z</time></trkpt><trkpt lat="38.3996678" lon="21.8508752"><ele>26.0</ele><time>2026-04-28T14:36:35.021Z</time></trkpt><trkpt lat="38.3996164" lon="21.8507366"><ele>26.0</ele><time>2026-04-28T14:36:36.018Z</time></trkpt><trkpt lat="38.39956" lon="21.8506006"><ele>25.5</ele><time>2026-04-28T14:36:37.019Z</time></trkpt><trkpt lat="38.3995014" lon="21.850467"><ele>25.0</ele><time>2026-04-28T14:36:38.019Z</time></trkpt><trkpt lat="38.3994413" lon="21.8503317"><ele>24.5</ele><time>2026-04-28T14:36:39.018Z</time></trkpt><trkpt lat="38.3993793" lon="21.8501957"><ele>24.0</ele><time>2026-04-28T14:36:40.019Z</time></trkpt><trkpt lat="38.3993096" lon="21.8500597"><ele>24.0</ele><time>2026-04-28T14:36:41.018Z</time></trkpt><trkpt lat="38.3992346" lon="21.849925"><ele>24.0</ele><time>2026-04-28T14:36:42.021Z</time></trkpt><trkpt lat="38.3991603" lon="21.8497837"><ele>24.0</ele><time>2026-04-28T14:36:43.022Z</time></trkpt><trkpt lat="38.3990796" lon="21.8496418"><ele>24.0</ele><time>2026-04-28T14:36:44.021Z</time></trkpt><trkpt lat="38.3989989" lon="21.8495091"><ele>24.0</ele><time>2026-04-28T14:36:45.021Z</time></trkpt><trkpt lat="38.3989225" lon="21.8493619"><ele>24.0</ele><time>2026-04-28T14:36:46.021Z</time></trkpt><trkpt lat="38.3988429" lon="21.8492139"><ele>24.0</ele><time>2026-04-28T14:36:47.021Z</time></trkpt><trkpt lat="38.3987624" lon="21.8490621"><ele>24.0</ele><time>2026-04-28T14:36:48.023Z</time></trkpt><trkpt lat="38.3986785" lon="21.8489114"><ele>23.75</ele><time>2026-04-28T14:36:49.022Z</time></trkpt><trkpt lat="38.3985935" lon="21.8487655"><ele>23.5</ele><time>2026-04-28T14:36:50.022Z</time></trkpt><trkpt lat="38.3985111" lon="21.8486129"><ele>23.25</ele><time>2026-04-28T14:36:51.023Z</time></trkpt><trkpt lat="38.3984279" lon="21.8484603"><ele>23.0</ele><time>2026-04-28T14:36:52.022Z</time></trkpt><trkpt lat="38.3983462" lon="21.8483042"><ele>23.75</ele><time>2026-04-28T14:36:53.022Z</time></trkpt><trkpt lat="38.3982591" lon="21.8481582"><ele>24.5</ele><time>2026-04-28T14:36:54.024Z</time></trkpt><trkpt lat="38.3981742" lon="21.8480124"><ele>25.25</ele><time>2026-04-28T14:36:55.023Z</time></trkpt><trkpt lat="38.3980945" lon="21.8478717"><ele>26.0</ele><time>2026-04-28T14:36:56.02Z</time></trkpt><trkpt lat="38.3980114" lon="21.8477277"><ele>26.0</ele><time>2026-04-28T14:36:57.021Z</time></trkpt><trkpt lat="38.397933" lon="21.8475873"><ele>26.0</ele><time>2026-04-28T14:36:58.022Z</time></trkpt><trkpt lat="38.3978629" lon="21.8474516"><ele>26.0</ele><time>2026-04-28T14:36:59.02Z</time></trkpt><trkpt lat="38.397799" lon="21.8473289"><ele>26.0</ele><time>2026-04-28T14:37:00.022Z</time></trkpt><trkpt lat="38.3977418" lon="21.8472145"><ele>26.0</ele><time>2026-04-28T14:37:01.022Z</time></trkpt><trkpt lat="38.3976828" lon="21.8470984"><ele>26.0</ele><time>2026-04-28T14:37:02.02Z</time></trkpt><trkpt lat="38.3976199" lon="21.8469756"><ele>26.0</ele><time>2026-04-28T14:37:03.018Z</time></trkpt><trkpt lat="38.3975536" lon="21.8468589"><ele>26.0</ele><time>2026-04-28T14:37:04.021Z</time></trkpt><trkpt lat="38.3974888" lon="21.8467439"><ele>26.0</ele><time>2026-04-28T14:37:05.02Z</time></trkpt><trkpt lat="38.3974274" lon="21.8466258"><ele>25.75</ele><time>2026-04-28T14:37:06.02Z</time></trkpt><trkpt lat="38.3973651" lon="21.8465139"><ele>25.5</ele><time>2026-04-28T14:37:07.023Z</time></trkpt><trkpt lat="38.3973037" lon="21.8463982"><ele>25.25</ele><time>2026-04-28T14:37:08.021Z</time></trkpt><trkpt lat="38.3972371" lon="21.8462735"><ele>25.0</ele><time>2026-04-28T14:37:09.021Z</time></trkpt><trkpt lat="38.397168" lon="21.8461526"><ele>24.5</ele><time>2026-04-28T14:37:10.02Z</time></trkpt><trkpt lat="38.3970988" lon="21.8460251"><ele>24.0</ele><time>2026-04-28T14:37:11.023Z</time></trkpt><trkpt lat="38.3970244" lon="21.8458946"><ele>23.5</ele><time>2026-04-28T14:37:12.021Z</time></trkpt><trkpt lat="38.3969525" lon="21.8457634"><ele>23.0</ele><time>2026-04-28T14:37:13.02Z</time></trkpt><trkpt lat="38.3968795" lon="21.8456279"><ele>23.0</ele><time>2026-04-28T14:37:14.022Z</time></trkpt><trkpt lat="38.3968078" lon="21.8454961"><ele>23.0</ele><time>2026-04-28T14:37:15.022Z</time></trkpt><trkpt lat="38.3967339" lon="21.8453609"><ele>23.0</ele><time>2026-04-28T14:37:16.02Z</time></trkpt><trkpt lat="38.3966628" lon="21.8452294"><ele>23.0</ele><time>2026-04-28T14:37:17.018Z</time></trkpt><trkpt lat="38.3965964" lon="21.8451031"><ele>23.0</ele><time>2026-04-28T14:37:18.02Z</time></trkpt><trkpt lat="38.3965264" lon="21.8449738"><ele>23.0</ele><time>2026-04-28T14:37:19.021Z</time></trkpt><trkpt lat="38.3964564" lon="21.8448449"><ele>23.0</ele><time>2026-04-28T14:37:20.02Z</time></trkpt><trkpt lat="38.396387" lon="21.8447173"><ele>23.0</ele><time>2026-04-28T14:37:21.02Z</time></trkpt><trkpt lat="38.3963168" lon="21.8445951"><ele>23.0</ele><time>2026-04-28T14:37:22.022Z</time></trkpt><trkpt lat="38.3962454" lon="21.8444757"><ele>23.0</ele><time>2026-04-28T14:37:23.022Z</time></trkpt><trkpt lat="38.3961724" lon="21.8443495"><ele>23.0</ele><time>2026-04-28T14:37:24.023Z</time></trkpt><trkpt lat="38.3961077" lon="21.8442102"><ele>23.0</ele><time>2026-04-28T14:37:25.019Z</time></trkpt><trkpt lat="38.3960488" lon="21.8440675"><ele>23.25</ele><time>2026-04-28T14:37:26.019Z</time></trkpt><trkpt lat="38.3959882" lon="21.8439262"><ele>23.5</ele><time>2026-04-28T14:37:27.019Z</time></trkpt><trkpt lat="38.3959248" lon="21.8437918"><ele>23.75</ele><time>2026-04-28T14:37:28.023Z</time></trkpt><trkpt lat="38.3958729" lon="21.8436579"><ele>24.0</ele><time>2026-04-28T14:37:29.021Z</time></trkpt><trkpt lat="38.3958153" lon="21.8435323"><ele>24.0</ele><time>2026-04-28T14:37:30.021Z</time></trkpt><trkpt lat="38.3957569" lon="21.8434074"><ele>24.0</ele><time>2026-04-28T14:37:31.02Z</time></trkpt><trkpt lat="38.3956958" lon="21.8432841"><ele>24.0</ele><time>2026-04-28T14:37:32.019Z</time></trkpt><trkpt lat="38.3956332" lon="21.8431681"><ele>24.0</ele><time>2026-04-28T14:37:33.019Z</time></trkpt><trkpt lat="38.3955773" lon="21.8430503"><ele>24.0</ele><time>2026-04-28T14:37:34.018Z</time></trkpt><trkpt lat="38.3955243" lon="21.8429383"><ele>23.333333333333332</ele><time>2026-04-28T14:37:35.022Z</time></trkpt><trkpt lat="38.3954741" lon="21.8428335"><ele>22.666666666666668</ele><time>2026-04-28T14:37:36.023Z</time></trkpt><trkpt lat="38.3954238" lon="21.8427315"><ele>22.0</ele><time>2026-04-28T14:37:37.023Z</time></trkpt><trkpt lat="38.3953773" lon="21.8426366"><ele>21.333333333333336</ele><time>2026-04-28T14:37:38.023Z</time></trkpt><trkpt lat="38.3953367" lon="21.8425413"><ele>20.666666666666668</ele><time>2026-04-28T14:37:39.023Z</time></trkpt><trkpt lat="38.3952969" lon="21.8424528"><ele>20.0</ele><time>2026-04-28T14:37:40.022Z</time></trkpt><trkpt lat="38.395259" lon="21.8423698"><ele>20.0</ele><time>2026-04-28T14:37:41.023Z</time></trkpt><trkpt lat="38.3952227" lon="21.8422894"><ele>20.0</ele><time>2026-04-28T14:37:42.021Z</time></trkpt><trkpt lat="38.3951896" lon="21.8422097"><ele>20.0</ele><time>2026-04-28T14:37:43.022Z</time></trkpt><trkpt lat="38.3951579" lon="21.8421243"><ele>20.0</ele><time>2026-04-28T14:37:44.021Z</time></trkpt><trkpt lat="38.3951171" lon="21.8420337"><ele>20.0</ele><time>2026-04-28T14:37:45.023Z</time></trkpt><trkpt lat="38.3950717" lon="21.8419372"><ele>20.0</ele><time>2026-04-28T14:37:46.024Z</time></trkpt><trkpt lat="38.3950257" lon="21.8418389"><ele>20.6</ele><time>2026-04-28T14:37:47.024Z</time></trkpt><trkpt lat="38.3949742" lon="21.8417339"><ele>21.2</ele><time>2026-04-28T14:37:48.024Z</time></trkpt><trkpt lat="38.3949135" lon="21.8416275"><ele>21.799999999999997</ele><time>2026-04-28T14:37:49.022Z</time></trkpt><trkpt lat="38.3948673" lon="21.8415126"><ele>22.4</ele><time>2026-04-28T14:37:50.022Z</time></trkpt><trkpt lat="38.3948195" lon="21.8414075"><ele>23.0</ele><time>2026-04-28T14:37:51.023Z</time></trkpt><trkpt lat="38.394775" lon="21.8413077"><ele>23.0</ele><time>2026-04-28T14:37:52.024Z</time></trkpt><trkpt lat="38.394733" lon="21.8412139"><ele>23.0</ele><time>2026-04-28T14:37:53.021Z</time></trkpt><trkpt lat="38.3946928" lon="21.8411182"><ele>23.0</ele><time>2026-04-28T14:37:54.022Z</time></trkpt><trkpt lat="38.394648" lon="21.8410257"><ele>23.0</ele><time>2026-04-28T14:37:55.021Z</time></trkpt><trkpt lat="38.3946085" lon="21.8409267"><ele>23.0</ele><time>2026-04-28T14:37:56.021Z</time></trkpt><trkpt lat="38.3945633" lon="21.8408234"><ele>23.0</ele><time>2026-04-28T14:37:57.02Z</time></trkpt><trkpt lat="38.3945197" lon="21.8407198"><ele>22.2</ele><time>2026-04-28T14:37:58.021Z</time></trkpt><trkpt lat="38.3944768" lon="21.8406149"><ele>21.4</ele><time>2026-04-28T14:37:59.023Z</time></trkpt><trkpt lat="38.3944379" lon="21.8405055"><ele>20.599999999999998</ele><time>2026-04-28T14:38:00.02Z</time></trkpt><trkpt lat="38.394407" lon="21.8403926"><ele>19.799999999999997</ele><time>2026-04-28T14:38:01.021Z</time></trkpt><trkpt lat="38.3943803" lon="21.8402869"><ele>19.0</ele><time>2026-04-28T14:38:02.02Z</time></trkpt><trkpt lat="38.3943572" lon="21.8401854"><ele>18.5</ele><time>2026-04-28T14:38:03.021Z</time></trkpt><trkpt lat="38.3943375" lon="21.840085"><ele>18.0</ele><time>2026-04-28T14:38:04.022Z</time></trkpt><trkpt lat="38.3943171" lon="21.8399841"><ele>17.5</ele><time>2026-04-28T14:38:05.02Z</time></trkpt><trkpt lat="38.3943008" lon="21.8398845"><ele>17.0</ele><time>2026-04-28T14:38:06.021Z</time></trkpt><trkpt lat="38.3942851" lon="21.8397829"><ele>16.5</ele><time>2026-04-28T14:38:07.022Z</time></trkpt><trkpt lat="38.3942836" lon="21.8396832"><ele>16.0</ele><time>2026-04-28T14:38:08.02Z</time></trkpt><trkpt lat="38.3942719" lon="21.8395854"><ele>16.0</ele><time>2026-04-28T14:38:09.023Z</time></trkpt><trkpt lat="38.3942618" lon="21.8394862"><ele>15.999999999999998</ele><time>2026-04-28T14:38:10.019Z</time></trkpt><trkpt lat="38.3942479" lon="21.8393922"><ele>16.0</ele><time>2026-04-28T14:38:11.021Z</time></trkpt><trkpt lat="38.3942356" lon="21.8393015"><ele>16.0</ele><time>2026-04-28T14:38:12.021Z</time></trkpt><trkpt lat="38.3942267" lon="21.8392119"><ele>15.999999999999998</ele><time>2026-04-28T14:38:13.024Z</time></trkpt><trkpt lat="38.3942205" lon="21.8391223"><ele>16.0</ele><time>2026-04-28T14:38:14.018Z</time></trkpt><trkpt lat="38.3942091" lon="21.8390381"><ele>16.0</ele><time>2026-04-28T14:38:15.019Z</time></trkpt><trkpt lat="38.3941944" lon="21.8389554"><ele>16.166666666666664</ele><time>2026-04-28T14:38:16.023Z</time></trkpt><trkpt lat="38.394178" lon="21.8388757"><ele>16.333333333333332</ele><time>2026-04-28T14:38:17.022Z</time></trkpt><trkpt lat="38.3941602" lon="21.8387222"><ele>16.5</ele><time>2026-04-28T14:38:19.023Z</time></trkpt><trkpt lat="38.3941492" lon="21.8386405"><ele>16.666666666666668</ele><time>2026-04-28T14:38:20.02Z</time></trkpt><trkpt lat="38.3941355" lon="21.8385542"><ele>16.833333333333336</ele><time>2026-04-28T14:38:21.022Z</time></trkpt><trkpt lat="38.3941193" lon="21.8384678"><ele>17.0</ele><time>2026-04-28T14:38:22.021Z</time></trkpt><trkpt lat="38.3941032" lon="21.8383832"><ele>17.0</ele><time>2026-04-28T14:38:23.021Z</time></trkpt><trkpt lat="38.3940876" lon="21.8383007"><ele>17.0</ele><time>2026-04-28T14:38:24.021Z</time></trkpt><trkpt lat="38.3940757" lon="21.8382213"><ele>17.0</ele><time>2026-04-28T14:38:25.021Z</time></trkpt><trkpt lat="38.3940551" lon="21.8380668"><ele>17.0</ele><time>2026-04-28T14:38:27.022Z</time></trkpt><trkpt lat="38.3940282" lon="21.8379211"><ele>17.0</ele><time>2026-04-28T14:38:29.021Z</time></trkpt><trkpt lat="38.3939926" lon="21.8377891"><ele>17.0</ele><time>2026-04-28T14:38:31.022Z</time></trkpt><trkpt lat="38.3939679" lon="21.8376399"><ele>17.0</ele><time>2026-04-28T14:38:33.02Z</time></trkpt><trkpt lat="38.3939526" lon="21.8374845"><ele>17.0</ele><time>2026-04-28T14:38:35.022Z</time></trkpt><trkpt lat="38.3939315" lon="21.8373311"><ele>17.0</ele><time>2026-04-28T14:38:37.021Z</time></trkpt><trkpt lat="38.3939248" lon="21.8371825"><ele>17.4</ele><time>2026-04-28T14:38:39.021Z</time></trkpt><trkpt lat="38.3939033" lon="21.8370629"><ele>17.799999999999997</ele><time>2026-04-28T14:38:41.024Z</time></trkpt><trkpt lat="38.3938864" lon="21.8369402"><ele>18.2</ele><time>2026-04-28T14:38:43.022Z</time></trkpt><trkpt lat="38.3938736" lon="21.8368003"><ele>18.599999999999998</ele><time>2026-04-28T14:38:45.022Z</time></trkpt><trkpt lat="38.3938776" lon="21.8366323"><ele>19.0</ele><time>2026-04-28T14:38:47.02Z</time></trkpt><trkpt lat="38.3938977" lon="21.8364822"><ele>19.0</ele><time>2026-04-28T14:38:49.021Z</time></trkpt><trkpt lat="38.3939344" lon="21.8363467"><ele>19.0</ele><time>2026-04-28T14:38:51.021Z</time></trkpt><trkpt lat="38.3939769" lon="21.836208"><ele>19.0</ele><time>2026-04-28T14:38:53.023Z</time></trkpt><trkpt lat="38.3940338" lon="21.8360676"><ele>19.0</ele><time>2026-04-28T14:38:55.021Z</time></trkpt><trkpt lat="38.3940677" lon="21.8359891"><ele>19.0</ele><time>2026-04-28T14:38:56.021Z</time></trkpt><trkpt lat="38.3941233" lon="21.8358537"><ele>18.0</ele><time>2026-04-28T14:38:58.021Z</time></trkpt><trkpt lat="38.3941847" lon="21.8357184"><ele>17.0</ele><time>2026-04-28T14:39:00.019Z</time></trkpt><trkpt lat="38.3942366" lon="21.8355821"><ele>16.0</ele><time>2026-04-28T14:39:02.02Z</time></trkpt><trkpt lat="38.394282" lon="21.8354462"><ele>15.0</ele><time>2026-04-28T14:39:04.023Z</time></trkpt><trkpt lat="38.3943158" lon="21.8353134"><ele>15.0</ele><time>2026-04-28T14:39:06.019Z</time></trkpt><trkpt lat="38.394357" lon="21.8351695"><ele>15.0</ele><time>2026-04-28T14:39:08.02Z</time></trkpt><trkpt lat="38.3943945" lon="21.8350246"><ele>15.0</ele><time>2026-04-28T14:39:10.023Z</time></trkpt><trkpt lat="38.3944338" lon="21.8348943"><ele>15.0</ele><time>2026-04-28T14:39:12.02Z</time></trkpt><trkpt lat="38.3944664" lon="21.8347687"><ele>14.0</ele><time>2026-04-28T14:39:14.02Z</time></trkpt><trkpt lat="38.3945097" lon="21.8346509"><ele>13.0</ele><time>2026-04-28T14:39:16.022Z</time></trkpt><trkpt lat="38.3945463" lon="21.8345683"><ele>12.0</ele><time>2026-04-28T14:39:18.02Z</time></trkpt><trkpt lat="38.3945873" lon="21.8344603"><ele>11.0</ele><time>2026-04-28T14:39:21.022Z</time></trkpt><trkpt lat="38.3946169" lon="21.8343774"><ele>10.0</ele><time>2026-04-28T14:39:23.019Z</time></trkpt><trkpt lat="38.3946408" lon="21.8342795"><ele>9.0</ele><time>2026-04-28T14:39:25.021Z</time></trkpt><trkpt lat="38.394663" lon="21.8341789"><ele>9.166666666666666</ele><time>2026-04-28T14:39:27.02Z</time></trkpt><trkpt lat="38.3946734" lon="21.8340739"><ele>9.333333333333334</ele><time>2026-04-28T14:39:29.021Z</time></trkpt><trkpt lat="38.3946774" lon="21.8339831"><ele>9.5</ele><time>2026-04-28T14:39:31.021Z</time></trkpt><trkpt lat="38.3946816" lon="21.833897"><ele>9.666666666666668</ele><time>2026-04-28T14:39:33.022Z</time></trkpt><trkpt lat="38.3946844" lon="21.8337978"><ele>9.833333333333334</ele><time>2026-04-28T14:39:35.02Z</time></trkpt><trkpt lat="38.3947079" lon="21.8336612"><ele>10.0</ele><time>2026-04-28T14:39:37.019Z</time></trkpt><trkpt lat="38.3947315" lon="21.8335055"><ele>9.714285714285714</ele><time>2026-04-28T14:39:39.02Z</time></trkpt><trkpt lat="38.3947329" lon="21.8334185"><ele>9.428571428571429</ele><time>2026-04-28T14:39:40.022Z</time></trkpt><trkpt lat="38.3947245" lon="21.8333314"><ele>9.142857142857142</ele><time>2026-04-28T14:39:41.02Z</time></trkpt><trkpt lat="38.3947097" lon="21.8332416"><ele>8.857142857142858</ele><time>2026-04-28T14:39:42.02Z</time></trkpt><trkpt lat="38.3946846" lon="21.8331519"><ele>8.571428571428571</ele><time>2026-04-28T14:39:43.021Z</time></trkpt><trkpt lat="38.3946591" lon="21.833065"><ele>8.285714285714285</ele><time>2026-04-28T14:39:44.021Z</time></trkpt><trkpt lat="38.3946272" lon="21.8329779"><ele>8.0</ele><time>2026-04-28T14:39:45.02Z</time></trkpt><trkpt lat="38.3946013" lon="21.8328944"><ele>7.999999999999999</ele><time>2026-04-28T14:39:46.023Z</time></trkpt><trkpt lat="38.3945789" lon="21.8328104"><ele>8.0</ele><time>2026-04-28T14:39:47.021Z</time></trkpt><trkpt lat="38.3945528" lon="21.8327277"><ele>8.0</ele><time>2026-04-28T14:39:48.021Z</time></trkpt><trkpt lat="38.3945295" lon="21.8326507"><ele>8.0</ele><time>2026-04-28T14:39:49.022Z</time></trkpt><trkpt lat="38.3945078" lon="21.8325744"><ele>7.999999999999999</ele><time>2026-04-28T14:39:50.022Z</time></trkpt><trkpt lat="38.394456" lon="21.8324256"><ele>8.0</ele><time>2026-04-28T14:39:52.02Z</time></trkpt><trkpt lat="38.3944243" lon="21.8323521"><ele>8.0</ele><time>2026-04-28T14:39:53.022Z</time></trkpt><trkpt lat="38.394399" lon="21.8322677"><ele>7.999999999999999</ele><time>2026-04-28T14:39:54.021Z</time></trkpt><trkpt lat="38.3943731" lon="21.8321857"><ele>8.0</ele><time>2026-04-28T14:39:55.024Z</time></trkpt><trkpt lat="38.3943534" lon="21.8321035"><ele>8.0</ele><time>2026-04-28T14:39:56.021Z</time></trkpt><trkpt lat="38.3943263" lon="21.8320191"><ele>7.999999999999999</ele><time>2026-04-28T14:39:57.02Z</time></trkpt><trkpt lat="38.3942979" lon="21.831929"><ele>8.0</ele><time>2026-04-28T14:39:58.021Z</time></trkpt><trkpt lat="38.3942695" lon="21.8318415"><ele>8.0</ele><time>2026-04-28T14:39:59.018Z</time></trkpt><trkpt lat="38.3942452" lon="21.8317523"><ele>7.571428571428571</ele><time>2026-04-28T14:40:00.018Z</time></trkpt><trkpt lat="38.3942147" lon="21.8316689"><ele>7.142857142857142</ele><time>2026-04-28T14:40:01.019Z</time></trkpt><trkpt lat="38.3941829" lon="21.8315869"><ele>6.7142857142857135</ele><time>2026-04-28T14:40:02.021Z</time></trkpt><trkpt lat="38.3941559" lon="21.8315024"><ele>6.285714285714286</ele><time>2026-04-28T14:40:03.02Z</time></trkpt><trkpt lat="38.3941245" lon="21.8314296"><ele>5.857142857142858</ele><time>2026-04-28T14:40:04.02Z</time></trkpt><trkpt lat="38.3940937" lon="21.8313403"><ele>5.428571428571429</ele><time>2026-04-28T14:40:05.021Z</time></trkpt><trkpt lat="38.3940684" lon="21.8312474"><ele>5.0</ele><time>2026-04-28T14:40:06.021Z</time></trkpt><trkpt lat="38.3940378" lon="21.8311527"><ele>5.0</ele><time>2026-04-28T14:40:07.02Z</time></trkpt><trkpt lat="38.3940047" lon="21.8310536"><ele>5.0</ele><time>2026-04-28T14:40:08.019Z</time></trkpt><trkpt lat="38.3939763" lon="21.8309523"><ele>5.0</ele><time>2026-04-28T14:40:09.018Z</time></trkpt><trkpt lat="38.3939444" lon="21.8308509"><ele>5.0</ele><time>2026-04-28T14:40:10.019Z</time></trkpt><trkpt lat="38.3939141" lon="21.8307525"><ele>5.0</ele><time>2026-04-28T14:40:11.019Z</time></trkpt><trkpt lat="38.3938888" lon="21.8306521"><ele>5.0</ele><time>2026-04-28T14:40:12.02Z</time></trkpt><trkpt lat="38.3938593" lon="21.8305498"><ele>5.285714285714286</ele><time>2026-04-28T14:40:13.02Z</time></trkpt><trkpt lat="38.3938287" lon="21.8304505"><ele>5.571428571428571</ele><time>2026-04-28T14:40:14.02Z</time></trkpt><trkpt lat="38.3937976" lon="21.8303655"><ele>5.857142857142858</ele><time>2026-04-28T14:40:15.02Z</time></trkpt><trkpt lat="38.3937685" lon="21.8302751"><ele>6.142857142857142</ele><time>2026-04-28T14:40:16.022Z</time></trkpt><trkpt lat="38.39374" lon="21.8301903"><ele>6.428571428571429</ele><time>2026-04-28T14:40:17.02Z</time></trkpt><trkpt lat="38.3937145" lon="21.8301077"><ele>6.714285714285714</ele><time>2026-04-28T14:40:18.021Z</time></trkpt><trkpt lat="38.393687" lon="21.8300227"><ele>7.0</ele><time>2026-04-28T14:40:19.022Z</time></trkpt><trkpt lat="38.3936637" lon="21.8299354"><ele>7.166666666666667</ele><time>2026-04-28T14:40:20.023Z</time></trkpt><trkpt lat="38.3936397" lon="21.8298462"><ele>7.333333333333334</ele><time>2026-04-28T14:40:21.021Z</time></trkpt><trkpt lat="38.3936103" lon="21.8297508"><ele>7.5</ele><time>2026-04-28T14:40:22.022Z</time></trkpt><trkpt lat="38.3935791" lon="21.8296552"><ele>7.666666666666666</ele><time>2026-04-28T14:40:23.023Z</time></trkpt><trkpt lat="38.3935526" lon="21.8295516"><ele>7.833333333333333</ele><time>2026-04-28T14:40:24.02Z</time></trkpt><trkpt lat="38.3935187" lon="21.8294494"><ele>8.0</ele><time>2026-04-28T14:40:25.019Z</time></trkpt><trkpt lat="38.393486" lon="21.8293501"><ele>8.333333333333332</ele><time>2026-04-28T14:40:26.02Z</time></trkpt><trkpt lat="38.3934543" lon="21.8292516"><ele>8.666666666666666</ele><time>2026-04-28T14:40:27.019Z</time></trkpt><trkpt lat="38.3934227" lon="21.829158"><ele>9.0</ele><time>2026-04-28T14:40:28.02Z</time></trkpt><trkpt lat="38.3933933" lon="21.8290706"><ele>9.333333333333334</ele><time>2026-04-28T14:40:29.019Z</time></trkpt><trkpt lat="38.3933635" lon="21.8289882"><ele>9.666666666666668</ele><time>2026-04-28T14:40:30.021Z</time></trkpt><trkpt lat="38.3933298" lon="21.828852"><ele>10.0</ele><time>2026-04-28T14:40:32.019Z</time></trkpt><trkpt lat="38.3932984" lon="21.8287486"><ele>10.0</ele><time>2026-04-28T14:40:34.019Z</time></trkpt><trkpt lat="38.393274" lon="21.8286603"><ele>10.0</ele><time>2026-04-28T14:40:36.019Z</time></trkpt><trkpt lat="38.3932558" lon="21.8285765"><ele>10.0</ele><time>2026-04-28T14:40:38.022Z</time></trkpt><trkpt lat="38.3932664" lon="21.828479"><ele>10.0</ele><time>2026-04-28T14:40:41.018Z</time></trkpt><trkpt lat="38.3932604" lon="21.8283752"><ele>10.0</ele><time>2026-04-28T14:40:44.018Z</time></trkpt><trkpt lat="38.3932499" lon="21.8282897"><ele>10.0</ele><time>2026-04-28T14:40:46.02Z</time></trkpt><trkpt lat="38.3932284" lon="21.8282022"><ele>10.0</ele><time>2026-04-28T14:40:48.019Z</time></trkpt><trkpt lat="38.3932071" lon="21.8281051"><ele>10.333333333333334</ele><time>2026-04-28T14:40:51.02Z</time></trkpt><trkpt lat="38.3932009" lon="21.8280069"><ele>10.666666666666668</ele><time>2026-04-28T14:41:13.02Z</time></trkpt><trkpt lat="38.3931731" lon="21.8279172"><ele>11.0</ele><time>2026-04-28T14:41:15.019Z</time></trkpt><trkpt lat="38.3931448" lon="21.8278308"><ele>11.333333333333334</ele><time>2026-04-28T14:41:18.023Z</time></trkpt><trkpt lat="38.3931156" lon="21.8277295"><ele>11.666666666666666</ele><time>2026-04-28T14:42:01.019Z</time></trkpt><trkpt lat="38.3930924" lon="21.8276406"><ele>12.0</ele><time>2026-04-28T14:42:04.02Z</time></trkpt><trkpt lat="38.3931338" lon="21.827575"><ele>11.999999999999998</ele><time>2026-04-28T14:42:08.02Z</time></trkpt><trkpt lat="38.3932042" lon="21.8275914"><ele>12.0</ele><time>2026-04-28T14:42:10.021Z</time></trkpt><trkpt lat="38.3932746" lon="21.8276028"><ele>12.0</ele><time>2026-04-28T14:42:12.017Z</time></trkpt><trkpt lat="38.3933488" lon="21.8276229"><ele>12.0</ele><time>2026-04-28T14:42:14.017Z</time></trkpt><trkpt lat="38.3934107" lon="21.8276476"><ele>12.0</ele><time>2026-04-28T14:42:16.019Z</time></trkpt><trkpt lat="38.3934728" lon="21.8276791"><ele>11.999999999999998</ele><time>2026-04-28T14:42:18.018Z</time></trkpt><trkpt lat="38.3935386" lon="21.827678"><ele>12.0</ele><time>2026-04-28T14:42:20.02Z</time></trkpt><trkpt lat="38.3935873" lon="21.8276093"><ele>13.0</ele><time>2026-04-28T14:42:24.019Z</time></trkpt><trkpt lat="38.3935807" lon="21.8274919"><ele>14.0</ele><time>2026-04-28T14:42:28.018Z</time></trkpt><trkpt lat="38.3935774" lon="21.8273922"><ele>15.0</ele><time>2026-04-28T14:42:30.02Z</time></trkpt><trkpt lat="38.3935795" lon="21.8272862"><ele>16.0</ele><time>2026-04-28T14:42:32.021Z</time></trkpt><trkpt lat="38.3935703" lon="21.8271802"><ele>17.0</ele><time>2026-04-28T14:42:35.018Z</time></trkpt><trkpt lat="38.3935432" lon="21.8270802"><ele>18.0</ele><time>2026-04-28T14:42:38.02Z</time></trkpt><trkpt lat="38.3934899" lon="21.8270135"><ele>18.0</ele><time>2026-04-28T14:42:40.019Z</time></trkpt><trkpt lat="38.3934518" lon="21.8269402"><ele>18.0</ele><time>2026-04-28T14:42:42.019Z</time></trkpt><trkpt lat="38.3934099" lon="21.8268729"><ele>18.0</ele><time>2026-04-28T14:42:44.017Z</time></trkpt><trkpt lat="38.3933563" lon="21.8268213"><ele>18.0</ele><time>2026-04-28T14:42:55.02Z</time></trkpt><trkpt lat="38.3934233" lon="21.8267561"><ele>23.0</ele><time>2026-04-28T14:43:06.02Z</time></trkpt><trkpt lat="38.3934622" lon="21.82669"><ele>23.0</ele><time>2026-04-28T14:43:08.018Z</time></trkpt><trkpt lat="38.3934207" lon="21.8266213"><ele>23.0</ele><time>2026-04-28T14:43:11.02Z</time></trkpt></trkseg><trkseg><trkpt lat="38.393363" lon="21.8266887"><ele>23.0</ele><time>2026-04-29T06:44:14.998Z</time></trkpt><trkpt lat="38.3932913" lon="21.8266305"><ele>23.0</ele><time>2026-04-29T06:44:20.998Z</time></trkpt><trkpt lat="38.393299" lon="21.8267726"><ele>23.0</ele><time>2026-04-29T06:44:21.998Z</time></trkpt><trkpt lat="38.3932995" lon="21.826854"><ele>23.0</ele><time>2026-04-29T06:44:22.998Z</time></trkpt><trkpt lat="38.3932914" lon="21.8269556"><ele>23.0</ele><time>2026-04-29T06:45:34.998Z</time></trkpt><trkpt lat="38.3932655" lon="21.8270677"><ele>23.0</ele><time>2026-04-29T06:45:37.997Z</time></trkpt><trkpt lat="38.3932338" lon="21.8271431"><ele>22.28571428571429</ele><time>2026-04-29T06:45:39.998Z</time></trkpt><trkpt lat="38.3932023" lon="21.8272173"><ele>21.57142857142857</ele><time>2026-04-29T06:45:41.998Z</time></trkpt><trkpt lat="38.3931589" lon="21.8272818"><ele>20.857142857142858</ele><time>2026-04-29T06:45:43.997Z</time></trkpt><trkpt lat="38.3931172" lon="21.8273457"><ele>20.142857142857146</ele><time>2026-04-29T06:45:45.998Z</time></trkpt><trkpt lat="38.393076" lon="21.8274149"><ele>19.42857142857143</ele><time>2026-04-29T06:45:47.997Z</time></trkpt><trkpt lat="38.3930356" lon="21.8274811"><ele>18.714285714285715</ele><time>2026-04-29T06:45:49.997Z</time></trkpt><trkpt lat="38.3929921" lon="21.8275421"><ele>18.0</ele><time>2026-04-29T06:45:51.997Z</time></trkpt><trkpt lat="38.3929295" lon="21.8275651"><ele>16.571428571428573</ele><time>2026-04-29T06:45:53.998Z</time></trkpt><trkpt lat="38.3928537" lon="21.8275753"><ele>15.142857142857142</ele><time>2026-04-29T06:45:56.997Z</time></trkpt><trkpt lat="38.3927731" lon="21.8275917"><ele>13.714285714285715</ele><time>2026-04-29T06:46:00.998Z</time></trkpt><trkpt lat="38.3926945" lon="21.8276218"><ele>12.285714285714286</ele><time>2026-04-29T06:46:03.998Z</time></trkpt><trkpt lat="38.3926325" lon="21.8276362"><ele>10.857142857142858</ele><time>2026-04-29T06:46:06.997Z</time></trkpt><trkpt lat="38.3925678" lon="21.8276627"><ele>9.428571428571429</ele><time>2026-04-29T06:46:12.997Z</time></trkpt><trkpt lat="38.3925235" lon="21.827588"><ele>8.0</ele><time>2026-04-29T06:46:16.997Z</time></trkpt><trkpt lat="38.3924748" lon="21.8274309"><ele>7.999999999999999</ele><time>2026-04-29T06:46:18.998Z</time></trkpt><trkpt lat="38.392453" lon="21.8273535"><ele>8.0</ele><time>2026-04-29T06:46:19.997Z</time></trkpt><trkpt lat="38.3924258" lon="21.8272698"><ele>8.0</ele><time>2026-04-29T06:46:20.997Z</time></trkpt><trkpt lat="38.3923947" lon="21.8271843"><ele>8.0</ele><time>2026-04-29T06:46:21.997Z</time></trkpt><trkpt lat="38.3923591" lon="21.8270846"><ele>7.999999999999999</ele><time>2026-04-29T06:46:22.997Z</time></trkpt><trkpt lat="38.3923279" lon="21.8269874"><ele>8.0</ele><time>2026-04-29T06:46:23.998Z</time></trkpt><trkpt lat="38.3922973" lon="21.82689"><ele>8.166666666666666</ele><time>2026-04-29T06:46:24.997Z</time></trkpt><trkpt lat="38.3922698" lon="21.8267917"><ele>8.333333333333332</ele><time>2026-04-29T06:46:25.997Z</time></trkpt><trkpt lat="38.3922408" lon="21.8267061"><ele>8.5</ele><time>2026-04-29T06:46:26.998Z</time></trkpt><trkpt lat="38.3922036" lon="21.8266113"><ele>8.666666666666666</ele><time>2026-04-29T06:46:27.997Z</time></trkpt><trkpt lat="38.3921743" lon="21.8265296"><ele>8.833333333333334</ele><time>2026-04-29T06:46:28.998Z</time></trkpt><trkpt lat="38.3921465" lon="21.8264511"><ele>9.0</ele><time>2026-04-29T06:46:29.997Z</time></trkpt><trkpt lat="38.3921168" lon="21.8263561"><ele>8.166666666666666</ele><time>2026-04-29T06:46:30.997Z</time></trkpt><trkpt lat="38.3920806" lon="21.8262652"><ele>7.333333333333333</ele><time>2026-04-29T06:46:31.997Z</time></trkpt><trkpt lat="38.3920398" lon="21.8261759"><ele>6.5</ele><time>2026-04-29T06:46:32.998Z</time></trkpt><trkpt lat="38.3920161" lon="21.8260762"><ele>5.666666666666666</ele><time>2026-04-29T06:46:33.998Z</time></trkpt><trkpt lat="38.391984" lon="21.8259831"><ele>4.833333333333333</ele><time>2026-04-29T06:46:34.998Z</time></trkpt><trkpt lat="38.3919495" lon="21.8258925"><ele>4.0</ele><time>2026-04-29T06:46:35.997Z</time></trkpt><trkpt lat="38.3919165" lon="21.825806"><ele>3.9999999999999996</ele><time>2026-04-29T06:46:36.998Z</time></trkpt><trkpt lat="38.3918839" lon="21.8257175"><ele>4.0</ele><time>2026-04-29T06:46:37.998Z</time></trkpt><trkpt lat="38.3918523" lon="21.8256256"><ele>4.0</ele><time>2026-04-29T06:46:38.998Z</time></trkpt><trkpt lat="38.3918217" lon="21.8255362"><ele>4.0</ele><time>2026-04-29T06:46:39.997Z</time></trkpt><trkpt lat="38.3917948" lon="21.82544"><ele>3.9999999999999996</ele><time>2026-04-29T06:46:40.997Z</time></trkpt><trkpt lat="38.3917632" lon="21.8253634"><ele>4.0</ele><time>2026-04-29T06:46:41.998Z</time></trkpt><trkpt lat="38.3917311" lon="21.8252751"><ele>3.9999999999999996</ele><time>2026-04-29T06:46:42.997Z</time></trkpt><trkpt lat="38.3916946" lon="21.8251752"><ele>4.0</ele><time>2026-04-29T06:46:43.998Z</time></trkpt><trkpt lat="38.3916622" lon="21.8250835"><ele>4.0</ele><time>2026-04-29T06:46:44.997Z</time></trkpt><trkpt lat="38.3916322" lon="21.8249966"><ele>4.0</ele><time>2026-04-29T06:46:45.998Z</time></trkpt><trkpt lat="38.391602" lon="21.8249117"><ele>3.9999999999999996</ele><time>2026-04-29T06:46:46.997Z</time></trkpt><trkpt lat="38.3915683" lon="21.8248292"><ele>4.0</ele><time>2026-04-29T06:46:47.997Z</time></trkpt><trkpt lat="38.3915418" lon="21.8247484"><ele>4.0</ele><time>2026-04-29T06:46:48.998Z</time></trkpt><trkpt lat="38.3915162" lon="21.824666"><ele>3.9999999999999996</ele><time>2026-04-29T06:46:49.998Z</time></trkpt><trkpt lat="38.391487" lon="21.8245821"><ele>4.0</ele><time>2026-04-29T06:46:50.997Z</time></trkpt><trkpt lat="38.3914603" lon="21.8245033"><ele>4.0</ele><time>2026-04-29T06:46:51.997Z</time></trkpt><trkpt lat="38.3914314" lon="21.8244195"><ele>3.9999999999999996</ele><time>2026-04-29T06:46:52.997Z</time></trkpt><trkpt lat="38.3914051" lon="21.8243341"><ele>4.0</ele><time>2026-04-29T06:46:53.997Z</time></trkpt><trkpt lat="38.3913772" lon="21.8242464"><ele>4.0</ele><time>2026-04-29T06:46:54.997Z</time></trkpt><trkpt lat="38.3913465" lon="21.8241492"><ele>3.9999999999999996</ele><time>2026-04-29T06:46:55.998Z</time></trkpt><trkpt lat="38.3913158" lon="21.8240585"><ele>4.0</ele><time>2026-04-29T06:46:56.998Z</time></trkpt><trkpt lat="38.3912829" lon="21.8239698"><ele>4.0</ele><time>2026-04-29T06:46:57.997Z</time></trkpt><trkpt lat="38.3912488" lon="21.8238831"><ele>4.0</ele><time>2026-04-29T06:46:58.998Z</time></trkpt><trkpt lat="38.3912229" lon="21.8237886"><ele>3.9999999999999996</ele><time>2026-04-29T06:46:59.998Z</time></trkpt><trkpt lat="38.3911898" lon="21.8236928"><ele>4.0</ele><time>2026-04-29T06:47:00.997Z</time></trkpt><trkpt lat="38.3911537" lon="21.8235942"><ele>4.0</ele><time>2026-04-29T06:47:01.998Z</time></trkpt><trkpt lat="38.3911178" lon="21.8234892"><ele>4.0</ele><time>2026-04-29T06:47:02.998Z</time></trkpt><trkpt lat="38.3910806" lon="21.8233824"><ele>4.0</ele><time>2026-04-29T06:47:03.997Z</time></trkpt><trkpt lat="38.391036" lon="21.8232631"><ele>4.0</ele><time>2026-04-29T06:47:04.997Z</time></trkpt><trkpt lat="38.3909888" lon="21.8231305"><ele>4.0</ele><time>2026-04-29T06:47:05.998Z</time></trkpt><trkpt lat="38.3909354" lon="21.8229918"><ele>4.0</ele><time>2026-04-29T06:47:06.998Z</time></trkpt><trkpt lat="38.3908775" lon="21.8228418"><ele>4.0</ele><time>2026-04-29T06:47:07.998Z</time></trkpt><trkpt lat="38.3908264" lon="21.8226892"><ele>4.0</ele><time>2026-04-29T06:47:08.997Z</time></trkpt><trkpt lat="38.3907839" lon="21.8225494"><ele>4.0</ele><time>2026-04-29T06:47:09.998Z</time></trkpt><trkpt lat="38.3907433" lon="21.8224236"><ele>4.6</ele><time>2026-04-29T06:47:10.997Z</time></trkpt><trkpt lat="38.3907046" lon="21.8223057"><ele>5.2</ele><time>2026-04-29T06:47:11.997Z</time></trkpt><trkpt lat="38.3906657" lon="21.8221868"><ele>5.799999999999999</ele><time>2026-04-29T06:47:12.997Z</time></trkpt><trkpt lat="38.3906296" lon="21.8220705"><ele>6.3999999999999995</ele><time>2026-04-29T06:47:13.997Z</time></trkpt><trkpt lat="38.3905886" lon="21.8219544"><ele>7.0</ele><time>2026-04-29T06:47:14.998Z</time></trkpt><trkpt lat="38.3905534" lon="21.8218329"><ele>7.199999999999999</ele><time>2026-04-29T06:47:15.997Z</time></trkpt><trkpt lat="38.3905133" lon="21.8217198"><ele>7.3999999999999995</ele><time>2026-04-29T06:47:16.997Z</time></trkpt><trkpt lat="38.3904716" lon="21.8216032"><ele>7.6000000000000005</ele><time>2026-04-29T06:47:17.998Z</time></trkpt><trkpt lat="38.3904288" lon="21.8214784"><ele>7.800000000000001</ele><time>2026-04-29T06:47:18.998Z</time></trkpt><trkpt lat="38.3903861" lon="21.8213573"><ele>8.0</ele><time>2026-04-29T06:47:19.998Z</time></trkpt><trkpt lat="38.3903432" lon="21.8212364"><ele>8.200000000000001</ele><time>2026-04-29T06:47:20.998Z</time></trkpt><trkpt lat="38.3902942" lon="21.8211119"><ele>8.4</ele><time>2026-04-29T06:47:21.998Z</time></trkpt><trkpt lat="38.3902494" lon="21.8209845"><ele>8.600000000000001</ele><time>2026-04-29T06:47:22.998Z</time></trkpt><trkpt lat="38.3902104" lon="21.8208637"><ele>8.8</ele><time>2026-04-29T06:47:23.997Z</time></trkpt><trkpt lat="38.3901698" lon="21.8207388"><ele>9.0</ele><time>2026-04-29T06:47:24.998Z</time></trkpt><trkpt lat="38.3901252" lon="21.8206003"><ele>9.0</ele><time>2026-04-29T06:47:25.997Z</time></trkpt><trkpt lat="38.3900839" lon="21.8204825"><ele>9.0</ele><time>2026-04-29T06:47:26.998Z</time></trkpt><trkpt lat="38.3900427" lon="21.8203708"><ele>9.0</ele><time>2026-04-29T06:47:27.998Z</time></trkpt><trkpt lat="38.3900072" lon="21.8202646"><ele>9.0</ele><time>2026-04-29T06:47:28.998Z</time></trkpt><trkpt lat="38.3899722" lon="21.8201644"><ele>9.0</ele><time>2026-04-29T06:47:29.997Z</time></trkpt><trkpt lat="38.3899379" lon="21.8200554"><ele>8.8</ele><time>2026-04-29T06:47:30.997Z</time></trkpt><trkpt lat="38.3898998" lon="21.8199416"><ele>8.600000000000001</ele><time>2026-04-29T06:47:31.997Z</time></trkpt><trkpt lat="38.3898606" lon="21.8198145"><ele>8.4</ele><time>2026-04-29T06:47:32.997Z</time></trkpt><trkpt lat="38.3898195" lon="21.8196997"><ele>8.200000000000001</ele><time>2026-04-29T06:47:33.998Z</time></trkpt><trkpt lat="38.3897795" lon="21.8195907"><ele>8.0</ele><time>2026-04-29T06:47:34.997Z</time></trkpt><trkpt lat="38.3897462" lon="21.81949"><ele>8.0</ele><time>2026-04-29T06:47:35.997Z</time></trkpt><trkpt lat="38.3897119" lon="21.8194006"><ele>7.999999999999999</ele><time>2026-04-29T06:47:36.998Z</time></trkpt><trkpt lat="38.3896831" lon="21.8193113"><ele>8.0</ele><time>2026-04-29T06:47:37.998Z</time></trkpt><trkpt lat="38.3896574" lon="21.8192284"><ele>8.0</ele><time>2026-04-29T06:47:38.997Z</time></trkpt><trkpt lat="38.3896292" lon="21.8191529"><ele>7.999999999999999</ele><time>2026-04-29T06:47:39.998Z</time></trkpt><trkpt lat="38.3896046" lon="21.8190737"><ele>8.0</ele><time>2026-04-29T06:47:40.997Z</time></trkpt><trkpt lat="38.3895786" lon="21.8189979"><ele>8.0</ele><time>2026-04-29T06:47:41.998Z</time></trkpt><trkpt lat="38.3895594" lon="21.8189095"><ele>7.833333333333333</ele><time>2026-04-29T06:47:42.997Z</time></trkpt><trkpt lat="38.3895278" lon="21.8187879"><ele>7.666666666666666</ele><time>2026-04-29T06:47:44.997Z</time></trkpt><trkpt lat="38.3895017" lon="21.8186879"><ele>7.5</ele><time>2026-04-29T06:47:47.997Z</time></trkpt><trkpt lat="38.3894793" lon="21.8186032"><ele>7.333333333333334</ele><time>2026-04-29T06:47:50.998Z</time></trkpt><trkpt lat="38.3894345" lon="21.8184935"><ele>7.166666666666667</ele><time>2026-04-29T06:48:18.997Z</time></trkpt><trkpt lat="38.3894018" lon="21.8184234"><ele>7.0</ele><time>2026-04-29T06:48:19.997Z</time></trkpt><trkpt lat="38.3893653" lon="21.8183415"><ele>6.666666666666667</ele><time>2026-04-29T06:48:20.997Z</time></trkpt><trkpt lat="38.389335" lon="21.8182564"><ele>6.333333333333334</ele><time>2026-04-29T06:48:21.997Z</time></trkpt><trkpt lat="38.3893046" lon="21.8181625"><ele>6.0</ele><time>2026-04-29T06:48:22.998Z</time></trkpt><trkpt lat="38.3892701" lon="21.8180607"><ele>5.666666666666667</ele><time>2026-04-29T06:48:23.997Z</time></trkpt><trkpt lat="38.3892348" lon="21.8179459"><ele>5.333333333333334</ele><time>2026-04-29T06:48:24.997Z</time></trkpt><trkpt lat="38.3891854" lon="21.817824"><ele>5.0</ele><time>2026-04-29T06:48:25.998Z</time></trkpt><trkpt lat="38.3891448" lon="21.8177008"><ele>4.8</ele><time>2026-04-29T06:48:26.998Z</time></trkpt><trkpt lat="38.3890937" lon="21.8175794"><ele>4.6</ele><time>2026-04-29T06:48:27.998Z</time></trkpt><trkpt lat="38.389049" lon="21.8174649"><ele>4.4</ele><time>2026-04-29T06:48:28.998Z</time></trkpt><trkpt lat="38.3889993" lon="21.8173514"><ele>4.2</ele><time>2026-04-29T06:48:29.998Z</time></trkpt><trkpt lat="38.3889399" lon="21.8172298"><ele>4.0</ele><time>2026-04-29T06:48:30.998Z</time></trkpt><trkpt lat="38.3888837" lon="21.8171163"><ele>3.75</ele><time>2026-04-29T06:48:31.998Z</time></trkpt><trkpt lat="38.3888263" lon="21.8169912"><ele>3.5</ele><time>2026-04-29T06:48:32.998Z</time></trkpt><trkpt lat="38.3887622" lon="21.8168662"><ele>3.25</ele><time>2026-04-29T06:48:33.997Z</time></trkpt><trkpt lat="38.3887015" lon="21.8167389"><ele>3.0</ele><time>2026-04-29T06:48:34.998Z</time></trkpt><trkpt lat="38.3886396" lon="21.8166057"><ele>3.75</ele><time>2026-04-29T06:48:35.998Z</time></trkpt><trkpt lat="38.3885725" lon="21.8164709"><ele>4.5</ele><time>2026-04-29T06:48:36.998Z</time></trkpt><trkpt lat="38.3885013" lon="21.8163349"><ele>5.25</ele><time>2026-04-29T06:48:37.997Z</time></trkpt><trkpt lat="38.3884305" lon="21.8161909"><ele>6.0</ele><time>2026-04-29T06:48:38.997Z</time></trkpt><trkpt lat="38.3883623" lon="21.8160517"><ele>5.75</ele><time>2026-04-29T06:48:39.997Z</time></trkpt><trkpt lat="38.3882911" lon="21.815912"><ele>5.5</ele><time>2026-04-29T06:48:40.998Z</time></trkpt><trkpt lat="38.3882233" lon="21.8157746"><ele>5.25</ele><time>2026-04-29T06:48:41.998Z</time></trkpt><trkpt lat="38.3881607" lon="21.8156456"><ele>5.0</ele><time>2026-04-29T06:48:42.997Z</time></trkpt><trkpt lat="38.3880988" lon="21.8155223"><ele>5.0</ele><time>2026-04-29T06:48:43.998Z</time></trkpt><trkpt lat="38.3880464" lon="21.8154105"><ele>5.0</ele><time>2026-04-29T06:48:44.998Z</time></trkpt><trkpt lat="38.3879992" lon="21.8153138"><ele>5.0</ele><time>2026-04-29T06:48:45.998Z</time></trkpt><trkpt lat="38.3879536" lon="21.8152208"><ele>5.0</ele><time>2026-04-29T06:48:46.998Z</time></trkpt><trkpt lat="38.3879111" lon="21.815132"><ele>5.0</ele><time>2026-04-29T06:48:47.998Z</time></trkpt><trkpt lat="38.3878684" lon="21.8150371"><ele>5.0</ele><time>2026-04-29T06:48:48.998Z</time></trkpt><trkpt lat="38.3878124" lon="21.8149355"><ele>5.25</ele><time>2026-04-29T06:48:49.998Z</time></trkpt><trkpt lat="38.3877565" lon="21.8148252"><ele>5.5</ele><time>2026-04-29T06:48:50.998Z</time></trkpt><trkpt lat="38.3877082" lon="21.8146992"><ele>5.75</ele><time>2026-04-29T06:48:51.997Z</time></trkpt><trkpt lat="38.3876593" lon="21.8145605"><ele>6.0</ele><time>2026-04-29T06:48:52.998Z</time></trkpt><trkpt lat="38.3876155" lon="21.8144144"><ele>6.5</ele><time>2026-04-29T06:48:53.997Z</time></trkpt><trkpt lat="38.3875766" lon="21.8142612"><ele>7.0</ele><time>2026-04-29T06:48:54.997Z</time></trkpt><trkpt lat="38.3875429" lon="21.8141092"><ele>7.5</ele><time>2026-04-29T06:48:55.997Z</time></trkpt><trkpt lat="38.3875106" lon="21.8139493"><ele>8.0</ele><time>2026-04-29T06:48:56.998Z</time></trkpt><trkpt lat="38.387518" lon="21.8137979"><ele>8.0</ele><time>2026-04-29T06:48:57.997Z</time></trkpt><trkpt lat="38.3874942" lon="21.8136508"><ele>8.0</ele><time>2026-04-29T06:48:58.997Z</time></trkpt><trkpt lat="38.3874769" lon="21.8135021"><ele>8.0</ele><time>2026-04-29T06:48:59.997Z</time></trkpt><trkpt lat="38.3874576" lon="21.8133435"><ele>8.0</ele><time>2026-04-29T06:49:00.997Z</time></trkpt><trkpt lat="38.3874378" lon="21.8131984"><ele>8.25</ele><time>2026-04-29T06:49:01.998Z</time></trkpt><trkpt lat="38.3874204" lon="21.813038"><ele>8.5</ele><time>2026-04-29T06:49:02.997Z</time></trkpt><trkpt lat="38.3873993" lon="21.812869"><ele>8.75</ele><time>2026-04-29T06:49:03.997Z</time></trkpt><trkpt lat="38.3873792" lon="21.8126993"><ele>9.0</ele><time>2026-04-29T06:49:04.998Z</time></trkpt><trkpt lat="38.3873563" lon="21.8125301"><ele>9.0</ele><time>2026-04-29T06:49:05.998Z</time></trkpt><trkpt lat="38.3873374" lon="21.8123557"><ele>9.0</ele><time>2026-04-29T06:49:06.998Z</time></trkpt><trkpt lat="38.3873128" lon="21.8121823"><ele>9.0</ele><time>2026-04-29T06:49:07.998Z</time></trkpt><trkpt lat="38.3872929" lon="21.8120092"><ele>9.0</ele><time>2026-04-29T06:49:08.998Z</time></trkpt><trkpt lat="38.3872712" lon="21.8118342"><ele>9.0</ele><time>2026-04-29T06:49:09.998Z</time></trkpt><trkpt lat="38.3872453" lon="21.8116571"><ele>9.0</ele><time>2026-04-29T06:49:10.997Z</time></trkpt><trkpt lat="38.3872173" lon="21.8114793"><ele>9.0</ele><time>2026-04-29T06:49:11.997Z</time></trkpt><trkpt lat="38.3871945" lon="21.8113007"><ele>9.0</ele><time>2026-04-29T06:49:12.997Z</time></trkpt><trkpt lat="38.387163" lon="21.811119"><ele>8.5</ele><time>2026-04-29T06:49:13.997Z</time></trkpt><trkpt lat="38.3871237" lon="21.8109402"><ele>8.0</ele><time>2026-04-29T06:49:14.998Z</time></trkpt><trkpt lat="38.3870751" lon="21.8107635"><ele>7.5</ele><time>2026-04-29T06:49:15.997Z</time></trkpt><trkpt lat="38.3870166" lon="21.8105861"><ele>7.0</ele><time>2026-04-29T06:49:16.998Z</time></trkpt><trkpt lat="38.3869472" lon="21.8104128"><ele>7.0</ele><time>2026-04-29T06:49:17.998Z</time></trkpt><trkpt lat="38.3868591" lon="21.8102385"><ele>7.0</ele><time>2026-04-29T06:49:18.998Z</time></trkpt><trkpt lat="38.3867683" lon="21.8100733"><ele>7.0</ele><time>2026-04-29T06:49:19.998Z</time></trkpt><trkpt lat="38.3866541" lon="21.8099158"><ele>7.333333333333334</ele><time>2026-04-29T06:49:20.997Z</time></trkpt><trkpt lat="38.3865549" lon="21.8097596"><ele>7.666666666666666</ele><time>2026-04-29T06:49:21.997Z</time></trkpt><trkpt lat="38.3864578" lon="21.8096016"><ele>8.0</ele><time>2026-04-29T06:49:22.998Z</time></trkpt><trkpt lat="38.386347" lon="21.8094477"><ele>8.0</ele><time>2026-04-29T06:49:23.998Z</time></trkpt><trkpt lat="38.3862431" lon="21.809299"><ele>8.0</ele><time>2026-04-29T06:49:24.998Z</time></trkpt><trkpt lat="38.3861474" lon="21.8091472"><ele>8.0</ele><time>2026-04-29T06:49:25.998Z</time></trkpt><trkpt lat="38.3860381" lon="21.8089999"><ele>8.0</ele><time>2026-04-29T06:49:26.998Z</time></trkpt><trkpt lat="38.3859473" lon="21.808853"><ele>8.0</ele><time>2026-04-29T06:49:27.997Z</time></trkpt><trkpt lat="38.3858511" lon="21.8087131"><ele>8.0</ele><time>2026-04-29T06:49:28.998Z</time></trkpt><trkpt lat="38.3857561" lon="21.8085745"><ele>8.0</ele><time>2026-04-29T06:49:29.998Z</time></trkpt><trkpt lat="38.385659" lon="21.8084355"><ele>7.75</ele><time>2026-04-29T06:49:30.998Z</time></trkpt><trkpt lat="38.3855601" lon="21.8082986"><ele>7.5</ele><time>2026-04-29T06:49:31.997Z</time></trkpt><trkpt lat="38.3854581" lon="21.8081648"><ele>7.25</ele><time>2026-04-29T06:49:32.998Z</time></trkpt><trkpt lat="38.3853569" lon="21.8080291"><ele>7.0</ele><time>2026-04-29T06:49:33.998Z</time></trkpt><trkpt lat="38.3852585" lon="21.8079027"><ele>7.5</ele><time>2026-04-29T06:49:34.998Z</time></trkpt><trkpt lat="38.3851596" lon="21.8077782"><ele>8.0</ele><time>2026-04-29T06:49:35.998Z</time></trkpt><trkpt lat="38.3850662" lon="21.8076591"><ele>8.5</ele><time>2026-04-29T06:49:36.998Z</time></trkpt><trkpt lat="38.3849724" lon="21.8075407"><ele>9.0</ele><time>2026-04-29T06:49:37.997Z</time></trkpt><trkpt lat="38.3848809" lon="21.8074253"><ele>9.25</ele><time>2026-04-29T06:49:38.998Z</time></trkpt><trkpt lat="38.3847867" lon="21.8073078"><ele>9.5</ele><time>2026-04-29T06:49:39.998Z</time></trkpt><trkpt lat="38.3846888" lon="21.8071913"><ele>9.75</ele><time>2026-04-29T06:49:40.997Z</time></trkpt><trkpt lat="38.3845924" lon="21.8070717"><ele>10.0</ele><time>2026-04-29T06:49:41.997Z</time></trkpt><trkpt lat="38.3844975" lon="21.8069501"><ele>9.75</ele><time>2026-04-29T06:49:42.997Z</time></trkpt><trkpt lat="38.3844101" lon="21.8068248"><ele>9.5</ele><time>2026-04-29T06:49:43.998Z</time></trkpt><trkpt lat="38.3843164" lon="21.8067015"><ele>9.25</ele><time>2026-04-29T06:49:44.998Z</time></trkpt><trkpt lat="38.3842173" lon="21.8065775"><ele>9.0</ele><time>2026-04-29T06:49:45.998Z</time></trkpt><trkpt lat="38.3841201" lon="21.8064512"><ele>9.0</ele><time>2026-04-29T06:49:46.998Z</time></trkpt><trkpt lat="38.3840202" lon="21.8063216"><ele>9.0</ele><time>2026-04-29T06:49:47.998Z</time></trkpt><trkpt lat="38.383916" lon="21.8061873"><ele>9.0</ele><time>2026-04-29T06:49:48.997Z</time></trkpt><trkpt lat="38.3838131" lon="21.8060595"><ele>9.0</ele><time>2026-04-29T06:49:49.998Z</time></trkpt><trkpt lat="38.3837173" lon="21.8059219"><ele>8.75</ele><time>2026-04-29T06:49:50.997Z</time></trkpt><trkpt lat="38.3836113" lon="21.8057907"><ele>8.5</ele><time>2026-04-29T06:49:51.998Z</time></trkpt><trkpt lat="38.3835081" lon="21.8056594"><ele>8.25</ele><time>2026-04-29T06:49:52.997Z</time></trkpt><trkpt lat="38.3834032" lon="21.8055267"><ele>8.0</ele><time>2026-04-29T06:49:53.998Z</time></trkpt><trkpt lat="38.3832999" lon="21.8053946"><ele>8.0</ele><time>2026-04-29T06:49:54.998Z</time></trkpt><trkpt lat="38.3831953" lon="21.8052605"><ele>8.0</ele><time>2026-04-29T06:49:55.997Z</time></trkpt><trkpt lat="38.3830944" lon="21.8051253"><ele>8.0</ele><time>2026-04-29T06:49:56.997Z</time></trkpt><trkpt lat="38.3829912" lon="21.8049879"><ele>8.0</ele><time>2026-04-29T06:49:57.998Z</time></trkpt><trkpt lat="38.3828945" lon="21.8048372"><ele>8.0</ele><time>2026-04-29T06:49:58.997Z</time></trkpt><trkpt lat="38.3828032" lon="21.8046771"><ele>8.0</ele><time>2026-04-29T06:49:59.998Z</time></trkpt><trkpt lat="38.3827122" lon="21.8045107"><ele>8.0</ele><time>2026-04-29T06:50:00.998Z</time></trkpt><trkpt lat="38.3826357" lon="21.8043406"><ele>8.333333333333332</ele><time>2026-04-29T06:50:01.998Z</time></trkpt><trkpt lat="38.3825613" lon="21.8041657"><ele>8.666666666666666</ele><time>2026-04-29T06:50:02.998Z</time></trkpt><trkpt lat="38.3824864" lon="21.8039909"><ele>9.0</ele><time>2026-04-29T06:50:03.998Z</time></trkpt><trkpt lat="38.3824132" lon="21.8038146"><ele>9.0</ele><time>2026-04-29T06:50:04.998Z</time></trkpt><trkpt lat="38.3823386" lon="21.8036383"><ele>9.0</ele><time>2026-04-29T06:50:05.998Z</time></trkpt><trkpt lat="38.3822619" lon="21.8034568"><ele>9.0</ele><time>2026-04-29T06:50:06.998Z</time></trkpt><trkpt lat="38.3821838" lon="21.8032783"><ele>8.333333333333334</ele><time>2026-04-29T06:50:07.998Z</time></trkpt><trkpt lat="38.3821118" lon="21.8031017"><ele>7.666666666666667</ele><time>2026-04-29T06:50:08.997Z</time></trkpt><trkpt lat="38.3820351" lon="21.8029202"><ele>7.0</ele><time>2026-04-29T06:50:09.998Z</time></trkpt><trkpt lat="38.3819663" lon="21.8027366"><ele>8.0</ele><time>2026-04-29T06:50:10.997Z</time></trkpt><trkpt lat="38.3818963" lon="21.8025618"><ele>9.0</ele><time>2026-04-29T06:50:11.998Z</time></trkpt><trkpt lat="38.3818279" lon="21.8023828"><ele>10.0</ele><time>2026-04-29T06:50:12.997Z</time></trkpt><trkpt lat="38.3817646" lon="21.8022068"><ele>10.0</ele><time>2026-04-29T06:50:13.998Z</time></trkpt><trkpt lat="38.3816977" lon="21.8020311"><ele>10.0</ele><time>2026-04-29T06:50:14.997Z</time></trkpt><trkpt lat="38.3816341" lon="21.8018556"><ele>10.0</ele><time>2026-04-29T06:50:15.997Z</time></trkpt><trkpt lat="38.3815703" lon="21.8016746"><ele>10.0</ele><time>2026-04-29T06:50:16.998Z</time></trkpt><trkpt lat="38.3815134" lon="21.8015054"><ele>10.0</ele><time>2026-04-29T06:50:17.997Z</time></trkpt><trkpt lat="38.38145" lon="21.8013374"><ele>10.0</ele><time>2026-04-29T06:50:18.998Z</time></trkpt><trkpt lat="38.3813851" lon="21.8011656"><ele>10.0</ele><time>2026-04-29T06:50:19.997Z</time></trkpt><trkpt lat="38.3813166" lon="21.8009928"><ele>10.0</ele><time>2026-04-29T06:50:20.998Z</time></trkpt><trkpt lat="38.3812474" lon="21.8008295"><ele>10.0</ele><time>2026-04-29T06:50:21.998Z</time></trkpt><trkpt lat="38.3811758" lon="21.8006662"><ele>10.0</ele><time>2026-04-29T06:50:22.997Z</time></trkpt><trkpt lat="38.3810994" lon="21.8005097"><ele>10.0</ele><time>2026-04-29T06:50:23.998Z</time></trkpt><trkpt lat="38.3810237" lon="21.8003463"><ele>10.0</ele><time>2026-04-29T06:50:24.997Z</time></trkpt><trkpt lat="38.380934" lon="21.8001768"><ele>10.0</ele><time>2026-04-29T06:50:25.997Z</time></trkpt><trkpt lat="38.3808537" lon="21.8000177"><ele>10.0</ele><time>2026-04-29T06:50:26.998Z</time></trkpt><trkpt lat="38.3807754" lon="21.7998568"><ele>9.75</ele><time>2026-04-29T06:50:27.998Z</time></trkpt><trkpt lat="38.3806954" lon="21.7996986"><ele>9.5</ele><time>2026-04-29T06:50:28.997Z</time></trkpt><trkpt lat="38.3806154" lon="21.7995417"><ele>9.25</ele><time>2026-04-29T06:50:29.997Z</time></trkpt><trkpt lat="38.3805384" lon="21.7993821"><ele>9.0</ele><time>2026-04-29T06:50:30.997Z</time></trkpt><trkpt lat="38.3804628" lon="21.7992222"><ele>9.0</ele><time>2026-04-29T06:50:31.997Z</time></trkpt><trkpt lat="38.3803861" lon="21.7990681"><ele>9.0</ele><time>2026-04-29T06:50:32.998Z</time></trkpt><trkpt lat="38.3803056" lon="21.7989122"><ele>9.0</ele><time>2026-04-29T06:50:33.998Z</time></trkpt><trkpt lat="38.3802279" lon="21.7987563"><ele>9.0</ele><time>2026-04-29T06:50:34.998Z</time></trkpt><trkpt lat="38.3801621" lon="21.7985991"><ele>9.25</ele><time>2026-04-29T06:50:35.998Z</time></trkpt><trkpt lat="38.3800949" lon="21.7984529"><ele>9.5</ele><time>2026-04-29T06:50:36.997Z</time></trkpt><trkpt lat="38.3800231" lon="21.798304"><ele>9.75</ele><time>2026-04-29T06:50:37.998Z</time></trkpt><trkpt lat="38.3799547" lon="21.7981561"><ele>10.0</ele><time>2026-04-29T06:50:38.997Z</time></trkpt><trkpt lat="38.3798863" lon="21.797996"><ele>10.0</ele><time>2026-04-29T06:50:39.998Z</time></trkpt><trkpt lat="38.3798294" lon="21.7978336"><ele>10.0</ele><time>2026-04-29T06:50:40.997Z</time></trkpt><trkpt lat="38.3797693" lon="21.7976759"><ele>10.0</ele><time>2026-04-29T06:50:41.998Z</time></trkpt><trkpt lat="38.3797121" lon="21.7975151"><ele>10.0</ele><time>2026-04-29T06:50:42.998Z</time></trkpt><trkpt lat="38.3796462" lon="21.7973562"><ele>9.5</ele><time>2026-04-29T06:50:43.997Z</time></trkpt><trkpt lat="38.3795763" lon="21.7972"><ele>9.0</ele><time>2026-04-29T06:50:44.998Z</time></trkpt><trkpt lat="38.3795121" lon="21.7970428"><ele>8.5</ele><time>2026-04-29T06:50:45.997Z</time></trkpt><trkpt lat="38.3794519" lon="21.7968912"><ele>8.0</ele><time>2026-04-29T06:50:46.997Z</time></trkpt><trkpt lat="38.379394" lon="21.7967476"><ele>8.0</ele><time>2026-04-29T06:50:47.998Z</time></trkpt><trkpt lat="38.3793327" lon="21.7966041"><ele>8.0</ele><time>2026-04-29T06:50:48.998Z</time></trkpt><trkpt lat="38.3792754" lon="21.796465"><ele>8.0</ele><time>2026-04-29T06:50:49.998Z</time></trkpt><trkpt lat="38.3792216" lon="21.7963197"><ele>8.0</ele><time>2026-04-29T06:50:50.998Z</time></trkpt><trkpt lat="38.3791609" lon="21.7961806"><ele>8.0</ele><time>2026-04-29T06:50:51.998Z</time></trkpt><trkpt lat="38.3791041" lon="21.7960408"><ele>8.0</ele><time>2026-04-29T06:50:52.997Z</time></trkpt><trkpt lat="38.3790466" lon="21.7959035"><ele>8.0</ele><time>2026-04-29T06:50:53.998Z</time></trkpt><trkpt lat="38.3789874" lon="21.7957598"><ele>8.0</ele><time>2026-04-29T06:50:54.997Z</time></trkpt><trkpt lat="38.3789286" lon="21.7956121"><ele>8.0</ele><time>2026-04-29T06:50:55.998Z</time></trkpt><trkpt lat="38.3788667" lon="21.7954654"><ele>8.0</ele><time>2026-04-29T06:50:56.997Z</time></trkpt><trkpt lat="38.3788023" lon="21.7953141"><ele>8.0</ele><time>2026-04-29T06:50:57.997Z</time></trkpt><trkpt lat="38.3787402" lon="21.7951649"><ele>8.0</ele><time>2026-04-29T06:50:58.998Z</time></trkpt><trkpt lat="38.3786793" lon="21.795017"><ele>6.5</ele><time>2026-04-29T06:50:59.998Z</time></trkpt><trkpt lat="38.3786185" lon="21.7948682"><ele>5.0</ele><time>2026-04-29T06:51:00.997Z</time></trkpt><trkpt lat="38.3785573" lon="21.7947189"><ele>3.5</ele><time>2026-04-29T06:51:01.998Z</time></trkpt><trkpt lat="38.3784942" lon="21.794571"><ele>2.0</ele><time>2026-04-29T06:51:02.997Z</time></trkpt><trkpt lat="38.3784329" lon="21.7944198"><ele>2.0</ele><time>2026-04-29T06:51:03.998Z</time></trkpt><trkpt lat="38.3783743" lon="21.7942728"><ele>2.0</ele><time>2026-04-29T06:51:04.998Z</time></trkpt><trkpt lat="38.3783148" lon="21.794123"><ele>2.0</ele><time>2026-04-29T06:51:05.998Z</time></trkpt><trkpt lat="38.3782561" lon="21.7939777"><ele>2.0</ele><time>2026-04-29T06:51:06.998Z</time></trkpt><trkpt lat="38.378194" lon="21.7938231"><ele>2.0</ele><time>2026-04-29T06:51:07.997Z</time></trkpt><trkpt lat="38.3781314" lon="21.7936689"><ele>2.0</ele><time>2026-04-29T06:51:08.998Z</time></trkpt><trkpt lat="38.378067" lon="21.7935154"><ele>2.0</ele><time>2026-04-29T06:51:09.997Z</time></trkpt><trkpt lat="38.3779998" lon="21.7933575"><ele>2.0</ele><time>2026-04-29T06:51:10.998Z</time></trkpt><trkpt lat="38.3779296" lon="21.7931965"><ele>2.0</ele><time>2026-04-29T06:51:11.997Z</time></trkpt><trkpt lat="38.3778655" lon="21.7930289"><ele>2.0</ele><time>2026-04-29T06:51:12.997Z</time></trkpt><trkpt lat="38.3777978" lon="21.792868"><ele>2.0</ele><time>2026-04-29T06:51:13.998Z</time></trkpt><trkpt lat="38.3777316" lon="21.7927031"><ele>2.0</ele><time>2026-04-29T06:51:14.997Z</time></trkpt><trkpt lat="38.3776605" lon="21.7925352"><ele>2.0</ele><time>2026-04-29T06:51:15.997Z</time></trkpt><trkpt lat="38.3775913" lon="21.7923662"><ele>2.0</ele><time>2026-04-29T06:51:16.998Z</time></trkpt><trkpt lat="38.3775218" lon="21.7921926"><ele>2.0</ele><time>2026-04-29T06:51:17.998Z</time></trkpt><trkpt lat="38.3774462" lon="21.7920161"><ele>1.3333333333333333</ele><time>2026-04-29T06:51:18.998Z</time></trkpt><trkpt lat="38.3773748" lon="21.7918366"><ele>0.6666666666666666</ele><time>2026-04-29T06:51:19.997Z</time></trkpt><trkpt lat="38.3773016" lon="21.7916593"><ele>0.0</ele><time>2026-04-29T06:51:20.998Z</time></trkpt><trkpt lat="38.3772274" lon="21.7914774"><ele>0.0</ele><time>2026-04-29T06:51:21.998Z</time></trkpt><trkpt lat="38.3771504" lon="21.791297"><ele>0.0</ele><time>2026-04-29T06:51:22.997Z</time></trkpt><trkpt lat="38.3770769" lon="21.7911201"><ele>0.0</ele><time>2026-04-29T06:51:23.998Z</time></trkpt><trkpt lat="38.3770024" lon="21.7909367"><ele>0.0</ele><time>2026-04-29T06:51:24.997Z</time></trkpt><trkpt lat="38.3769287" lon="21.790765"><ele>0.0</ele><time>2026-04-29T06:51:25.998Z</time></trkpt><trkpt lat="38.3768572" lon="21.7905885"><ele>0.0</ele><time>2026-04-29T06:51:26.998Z</time></trkpt><trkpt lat="38.3767868" lon="21.7904176"><ele>0.0</ele><time>2026-04-29T06:51:27.998Z</time></trkpt><trkpt lat="38.3767126" lon="21.7902413"><ele>0.0</ele><time>2026-04-29T06:51:28.998Z</time></trkpt><trkpt lat="38.376638" lon="21.7900643"><ele>0.0</ele><time>2026-04-29T06:51:29.998Z</time></trkpt><trkpt lat="38.3765618" lon="21.7898901"><ele>0.3333333333333333</ele><time>2026-04-29T06:51:30.998Z</time></trkpt><trkpt lat="38.3764806" lon="21.7897201"><ele>0.6666666666666666</ele><time>2026-04-29T06:51:31.998Z</time></trkpt><trkpt lat="38.3763903" lon="21.7895542"><ele>1.0</ele><time>2026-04-29T06:51:32.998Z</time></trkpt><trkpt lat="38.3762882" lon="21.7893915"><ele>0.6666666666666666</ele><time>2026-04-29T06:51:33.998Z</time></trkpt><trkpt lat="38.3761872" lon="21.7892309"><ele>0.3333333333333333</ele><time>2026-04-29T06:51:34.998Z</time></trkpt><trkpt lat="38.3760795" lon="21.7890656"><ele>0.0</ele><time>2026-04-29T06:51:35.997Z</time></trkpt><trkpt lat="38.3759673" lon="21.7889007"><ele>0.0</ele><time>2026-04-29T06:51:36.998Z</time></trkpt><trkpt lat="38.3758613" lon="21.7887408"><ele>0.0</ele><time>2026-04-29T06:51:37.997Z</time></trkpt><trkpt lat="38.3757505" lon="21.7885825"><ele>0.0</ele><time>2026-04-29T06:51:38.998Z</time></trkpt><trkpt lat="38.3756469" lon="21.788424"><ele>0.3333333333333333</ele><time>2026-04-29T06:51:39.997Z</time></trkpt><trkpt lat="38.3755467" lon="21.7882626"><ele>0.6666666666666666</ele><time>2026-04-29T06:51:40.997Z</time></trkpt><trkpt lat="38.3754454" lon="21.7881012"><ele>1.0</ele><time>2026-04-29T06:51:41.997Z</time></trkpt><trkpt lat="38.3753455" lon="21.78794"><ele>1.0</ele><time>2026-04-29T06:51:42.997Z</time></trkpt><trkpt lat="38.375247" lon="21.7877808"><ele>1.0</ele><time>2026-04-29T06:51:43.997Z</time></trkpt><trkpt lat="38.3751479" lon="21.7876296"><ele>1.0</ele><time>2026-04-29T06:51:44.998Z</time></trkpt><trkpt lat="38.3750541" lon="21.7874843"><ele>1.0</ele><time>2026-04-29T06:51:45.997Z</time></trkpt><trkpt lat="38.3749646" lon="21.7873361"><ele>1.0</ele><time>2026-04-29T06:51:46.998Z</time></trkpt><trkpt lat="38.374874" lon="21.7871914"><ele>1.0</ele><time>2026-04-29T06:51:47.997Z</time></trkpt><trkpt lat="38.3747796" lon="21.7870469"><ele>1.0</ele><time>2026-04-29T06:51:48.998Z</time></trkpt><trkpt lat="38.3746904" lon="21.7869054"><ele>0.75</ele><time>2026-04-29T06:51:49.998Z</time></trkpt><trkpt lat="38.3745981" lon="21.7867563"><ele>0.5</ele><time>2026-04-29T06:51:50.998Z</time></trkpt><trkpt lat="38.374511" lon="21.7866133"><ele>0.25</ele><time>2026-04-29T06:51:51.997Z</time></trkpt><trkpt lat="38.3744219" lon="21.7864731"><ele>0.0</ele><time>2026-04-29T06:51:52.997Z</time></trkpt><trkpt lat="38.3743347" lon="21.7863325"><ele>0.0</ele><time>2026-04-29T06:51:53.998Z</time></trkpt><trkpt lat="38.3742501" lon="21.7861884"><ele>0.0</ele><time>2026-04-29T06:51:54.997Z</time></trkpt><trkpt lat="38.3741567" lon="21.7860444"><ele>0.0</ele><time>2026-04-29T06:51:55.998Z</time></trkpt><trkpt lat="38.3740666" lon="21.7858972"><ele>0.0</ele><time>2026-04-29T06:51:56.997Z</time></trkpt><trkpt lat="38.3739717" lon="21.7857495"><ele>0.3333333333333333</ele><time>2026-04-29T06:51:57.998Z</time></trkpt><trkpt lat="38.3738715" lon="21.7856055"><ele>0.6666666666666666</ele><time>2026-04-29T06:51:58.998Z</time></trkpt><trkpt lat="38.3737658" lon="21.785467"><ele>1.0</ele><time>2026-04-29T06:51:59.997Z</time></trkpt><trkpt lat="38.3736517" lon="21.7853346"><ele>1.0</ele><time>2026-04-29T06:52:00.997Z</time></trkpt><trkpt lat="38.3735353" lon="21.7852033"><ele>1.0</ele><time>2026-04-29T06:52:01.998Z</time></trkpt><trkpt lat="38.3734152" lon="21.7850718"><ele>1.0</ele><time>2026-04-29T06:52:02.997Z</time></trkpt><trkpt lat="38.3732914" lon="21.7849372"><ele>1.0</ele><time>2026-04-29T06:52:03.997Z</time></trkpt><trkpt lat="38.3731618" lon="21.7847988"><ele>1.0</ele><time>2026-04-29T06:52:04.997Z</time></trkpt><trkpt lat="38.3730352" lon="21.7846602"><ele>1.0</ele><time>2026-04-29T06:52:05.997Z</time></trkpt><trkpt lat="38.3729112" lon="21.7845179"><ele>1.0</ele><time>2026-04-29T06:52:06.998Z</time></trkpt><trkpt lat="38.3727899" lon="21.78438"><ele>1.0</ele><time>2026-04-29T06:52:07.997Z</time></trkpt><trkpt lat="38.3726647" lon="21.78425"><ele>1.0</ele><time>2026-04-29T06:52:08.998Z</time></trkpt><trkpt lat="38.3725408" lon="21.78412"><ele>1.0</ele><time>2026-04-29T06:52:09.997Z</time></trkpt><trkpt lat="38.3724172" lon="21.7839869"><ele>1.0</ele><time>2026-04-29T06:52:10.997Z</time></trkpt><trkpt lat="38.3722977" lon="21.7838513"><ele>1.0</ele><time>2026-04-29T06:52:11.997Z</time></trkpt><trkpt lat="38.3721783" lon="21.7837204"><ele>1.0</ele><time>2026-04-29T06:52:12.998Z</time></trkpt><trkpt lat="38.3720613" lon="21.7835878"><ele>1.0</ele><time>2026-04-29T06:52:13.997Z</time></trkpt><trkpt lat="38.3719501" lon="21.7834536"><ele>1.0</ele><time>2026-04-29T06:52:14.997Z</time></trkpt><trkpt lat="38.3718254" lon="21.7833271"><ele>1.25</ele><time>2026-04-29T06:52:15.998Z</time></trkpt><trkpt lat="38.3717161" lon="21.7832028"><ele>1.5</ele><time>2026-04-29T06:52:16.998Z</time></trkpt><trkpt lat="38.3716111" lon="21.7830807"><ele>1.75</ele><time>2026-04-29T06:52:17.997Z</time></trkpt><trkpt lat="38.371505" lon="21.7829601"><ele>2.0</ele><time>2026-04-29T06:52:18.998Z</time></trkpt><trkpt lat="38.3713934" lon="21.7828367"><ele>2.0</ele><time>2026-04-29T06:52:19.997Z</time></trkpt><trkpt lat="38.3712915" lon="21.7827118"><ele>2.0</ele><time>2026-04-29T06:52:20.997Z</time></trkpt><trkpt lat="38.3711771" lon="21.7825878"><ele>2.0</ele><time>2026-04-29T06:52:21.998Z</time></trkpt><trkpt lat="38.3710702" lon="21.7824661"><ele>2.0</ele><time>2026-04-29T06:52:22.997Z</time></trkpt><trkpt lat="38.3709627" lon="21.7823469"><ele>2.5</ele><time>2026-04-29T06:52:23.998Z</time></trkpt><trkpt lat="38.3708533" lon="21.7822319"><ele>3.0</ele><time>2026-04-29T06:52:24.997Z</time></trkpt><trkpt lat="38.3707544" lon="21.782122"><ele>3.5</ele><time>2026-04-29T06:52:25.998Z</time></trkpt><trkpt lat="38.3706665" lon="21.7820206"><ele>4.0</ele><time>2026-04-29T06:52:26.998Z</time></trkpt><trkpt lat="38.370585" lon="21.7819284"><ele>4.0</ele><time>2026-04-29T06:52:27.997Z</time></trkpt><trkpt lat="38.3705077" lon="21.7818348"><ele>4.0</ele><time>2026-04-29T06:52:28.997Z</time></trkpt><trkpt lat="38.3704418" lon="21.7817328"><ele>4.0</ele><time>2026-04-29T06:52:29.998Z</time></trkpt><trkpt lat="38.3703877" lon="21.7816231"><ele>4.0</ele><time>2026-04-29T06:52:30.998Z</time></trkpt><trkpt lat="38.3703531" lon="21.78151"><ele>4.0</ele><time>2026-04-29T06:52:31.998Z</time></trkpt><trkpt lat="38.3703263" lon="21.7814091"><ele>3.9999999999999996</ele><time>2026-04-29T06:52:32.998Z</time></trkpt><trkpt lat="38.3703035" lon="21.7813237"><ele>4.0</ele><time>2026-04-29T06:52:33.997Z</time></trkpt><trkpt lat="38.3702844" lon="21.7812065"><ele>4.0</ele><time>2026-04-29T06:52:35.997Z</time></trkpt><trkpt lat="38.3702755" lon="21.7811266"><ele>4.0</ele><time>2026-04-29T06:53:21.997Z</time></trkpt><trkpt lat="38.3702927" lon="21.7810243"><ele>3.9999999999999996</ele><time>2026-04-29T06:53:23.997Z</time></trkpt><trkpt lat="38.3703" lon="21.780874"><ele>4.0</ele><time>2026-04-29T06:53:25.998Z</time></trkpt><trkpt lat="38.3702701" lon="21.7808031"><ele>4.0</ele><time>2026-04-29T06:53:26.998Z</time></trkpt><trkpt lat="38.3702147" lon="21.7807413"><ele>4.0</ele><time>2026-04-29T06:53:27.997Z</time></trkpt><trkpt lat="38.3701394" lon="21.7807006"><ele>4.0</ele><time>2026-04-29T06:53:28.998Z</time></trkpt><trkpt lat="38.3700481" lon="21.7806645"><ele>4.0</ele><time>2026-04-29T06:53:29.998Z</time></trkpt><trkpt lat="38.3699272" lon="21.780638"><ele>4.0</ele><time>2026-04-29T06:53:30.997Z</time></trkpt><trkpt lat="38.369809" lon="21.7806014"><ele>3.5</ele><time>2026-04-29T06:53:31.997Z</time></trkpt><trkpt lat="38.3696779" lon="21.7805587"><ele>3.0</ele><time>2026-04-29T06:53:32.997Z</time></trkpt><trkpt lat="38.3695424" lon="21.7805227"><ele>2.5</ele><time>2026-04-29T06:53:33.998Z</time></trkpt><trkpt lat="38.3693949" lon="21.780482"><ele>2.0</ele><time>2026-04-29T06:53:34.998Z</time></trkpt><trkpt lat="38.3692505" lon="21.7804316"><ele>2.0</ele><time>2026-04-29T06:53:35.997Z</time></trkpt><trkpt lat="38.3691043" lon="21.7803771"><ele>2.0</ele><time>2026-04-29T06:53:36.998Z</time></trkpt><trkpt lat="38.3689621" lon="21.7803102"><ele>2.0</ele><time>2026-04-29T06:53:37.997Z</time></trkpt><trkpt lat="38.368813" lon="21.7802424"><ele>2.0</ele><time>2026-04-29T06:53:38.997Z</time></trkpt><trkpt lat="38.3686686" lon="21.7801693"><ele>2.0</ele><time>2026-04-29T06:53:39.997Z</time></trkpt><trkpt lat="38.368525" lon="21.7800888"><ele>2.0</ele><time>2026-04-29T06:53:40.998Z</time></trkpt><trkpt lat="38.368376" lon="21.7800037"><ele>2.0</ele><time>2026-04-29T06:53:41.998Z</time></trkpt><trkpt lat="38.3682289" lon="21.7799161"><ele>2.0</ele><time>2026-04-29T06:53:42.998Z</time></trkpt><trkpt lat="38.3680828" lon="21.7798224"><ele>2.0</ele><time>2026-04-29T06:53:43.997Z</time></trkpt><trkpt lat="38.3679337" lon="21.7797327"><ele>2.0</ele><time>2026-04-29T06:53:44.998Z</time></trkpt><trkpt lat="38.3677837" lon="21.7796478"><ele>2.0</ele><time>2026-04-29T06:53:45.998Z</time></trkpt><trkpt lat="38.3676318" lon="21.7795721"><ele>2.0</ele><time>2026-04-29T06:53:46.997Z</time></trkpt><trkpt lat="38.3674811" lon="21.7794934"><ele>2.0</ele><time>2026-04-29T06:53:47.998Z</time></trkpt><trkpt lat="38.3673287" lon="21.7794183"><ele>2.0</ele><time>2026-04-29T06:53:48.998Z</time></trkpt><trkpt lat="38.3671745" lon="21.7793386"><ele>2.0</ele><time>2026-04-29T06:53:49.997Z</time></trkpt><trkpt lat="38.3670138" lon="21.7792671"><ele>1.6666666666666665</ele><time>2026-04-29T06:53:50.998Z</time></trkpt><trkpt lat="38.366853" lon="21.7791921"><ele>1.3333333333333333</ele><time>2026-04-29T06:53:51.998Z</time></trkpt><trkpt lat="38.3666903" lon="21.7791235"><ele>1.0</ele><time>2026-04-29T06:53:52.998Z</time></trkpt><trkpt lat="38.366526" lon="21.7790575"><ele>1.3333333333333333</ele><time>2026-04-29T06:53:53.998Z</time></trkpt><trkpt lat="38.3663611" lon="21.7789911"><ele>1.6666666666666665</ele><time>2026-04-29T06:53:54.997Z</time></trkpt><trkpt lat="38.3661984" lon="21.7789286"><ele>2.0</ele><time>2026-04-29T06:53:55.997Z</time></trkpt><trkpt lat="38.3660316" lon="21.7788669"><ele>2.0</ele><time>2026-04-29T06:53:56.998Z</time></trkpt><trkpt lat="38.3658702" lon="21.7788012"><ele>2.0</ele><time>2026-04-29T06:53:57.997Z</time></trkpt><trkpt lat="38.3657043" lon="21.7787369"><ele>2.0</ele><time>2026-04-29T06:53:58.998Z</time></trkpt><trkpt lat="38.3655322" lon="21.7786723"><ele>2.0</ele><time>2026-04-29T06:53:59.997Z</time></trkpt><trkpt lat="38.3653643" lon="21.7786131"><ele>2.0</ele><time>2026-04-29T06:54:00.998Z</time></trkpt><trkpt lat="38.3651972" lon="21.778538"><ele>2.0</ele><time>2026-04-29T06:54:01.998Z</time></trkpt><trkpt lat="38.3650266" lon="21.7784667"><ele>2.0</ele><time>2026-04-29T06:54:02.997Z</time></trkpt><trkpt lat="38.3648586" lon="21.7783983"><ele>2.0</ele><time>2026-04-29T06:54:03.997Z</time></trkpt><trkpt lat="38.3646888" lon="21.7783314"><ele>2.0</ele><time>2026-04-29T06:54:04.998Z</time></trkpt><trkpt lat="38.3645193" lon="21.7782691"><ele>2.0</ele><time>2026-04-29T06:54:05.998Z</time></trkpt><trkpt lat="38.3643518" lon="21.7781951"><ele>2.0</ele><time>2026-04-29T06:54:06.997Z</time></trkpt><trkpt lat="38.3641884" lon="21.7781343"><ele>2.0</ele><time>2026-04-29T06:54:07.998Z</time></trkpt><trkpt lat="38.3640247" lon="21.7780711"><ele>2.0</ele><time>2026-04-29T06:54:08.997Z</time></trkpt><trkpt lat="38.3638639" lon="21.7780088"><ele>2.0</ele><time>2026-04-29T06:54:09.998Z</time></trkpt><trkpt lat="38.3636957" lon="21.7779408"><ele>2.0</ele><time>2026-04-29T06:54:10.997Z</time></trkpt><trkpt lat="38.3635312" lon="21.7778775"><ele>2.0</ele><time>2026-04-29T06:54:11.998Z</time></trkpt><trkpt lat="38.363374" lon="21.7778149"><ele>2.0</ele><time>2026-04-29T06:54:12.997Z</time></trkpt><trkpt lat="38.3632131" lon="21.7777503"><ele>2.0</ele><time>2026-04-29T06:54:13.997Z</time></trkpt><trkpt lat="38.3630508" lon="21.777687"><ele>2.0</ele><time>2026-04-29T06:54:14.998Z</time></trkpt><trkpt lat="38.3628928" lon="21.7776193"><ele>2.0</ele><time>2026-04-29T06:54:15.997Z</time></trkpt><trkpt lat="38.362726" lon="21.7775577"><ele>2.0</ele><time>2026-04-29T06:54:16.997Z</time></trkpt><trkpt lat="38.3625579" lon="21.7774932"><ele>2.0</ele><time>2026-04-29T06:54:17.997Z</time></trkpt><trkpt lat="38.3623949" lon="21.7774325"><ele>2.0</ele><time>2026-04-29T06:54:18.998Z</time></trkpt><trkpt lat="38.3622348" lon="21.7773708"><ele>2.0</ele><time>2026-04-29T06:54:19.998Z</time></trkpt><trkpt lat="38.3620787" lon="21.7773163"><ele>1.6666666666666665</ele><time>2026-04-29T06:54:20.998Z</time></trkpt><trkpt lat="38.3619273" lon="21.7772551"><ele>1.3333333333333333</ele><time>2026-04-29T06:54:21.998Z</time></trkpt><trkpt lat="38.3617804" lon="21.7771953"><ele>1.0</ele><time>2026-04-29T06:54:22.998Z</time></trkpt><trkpt lat="38.3616322" lon="21.777135"><ele>1.0</ele><time>2026-04-29T06:54:23.998Z</time></trkpt><trkpt lat="38.3614879" lon="21.7770628"><ele>1.0</ele><time>2026-04-29T06:54:24.998Z</time></trkpt><trkpt lat="38.36134" lon="21.7770025"><ele>1.0</ele><time>2026-04-29T06:54:25.998Z</time></trkpt><trkpt lat="38.3611841" lon="21.7769473"><ele>0.6666666666666666</ele><time>2026-04-29T06:54:26.998Z</time></trkpt><trkpt lat="38.3610312" lon="21.7768968"><ele>0.3333333333333333</ele><time>2026-04-29T06:54:27.998Z</time></trkpt><trkpt lat="38.3608754" lon="21.7768359"><ele>0.0</ele><time>2026-04-29T06:54:28.998Z</time></trkpt><trkpt lat="38.3607157" lon="21.7767835"><ele>1.0</ele><time>2026-04-29T06:54:29.998Z</time></trkpt><trkpt lat="38.3605482" lon="21.7767281"><ele>2.0</ele><time>2026-04-29T06:54:30.997Z</time></trkpt><trkpt lat="38.3603827" lon="21.7766667"><ele>3.0</ele><time>2026-04-29T06:54:31.997Z</time></trkpt><trkpt lat="38.3602218" lon="21.7766037"><ele>3.333333333333333</ele><time>2026-04-29T06:54:32.997Z</time></trkpt><trkpt lat="38.360064" lon="21.7765313"><ele>3.6666666666666665</ele><time>2026-04-29T06:54:33.997Z</time></trkpt><trkpt lat="38.3599047" lon="21.7764671"><ele>4.0</ele><time>2026-04-29T06:54:34.997Z</time></trkpt><trkpt lat="38.3597488" lon="21.7764029"><ele>3.0</ele><time>2026-04-29T06:54:35.997Z</time></trkpt><trkpt lat="38.3595939" lon="21.7763439"><ele>2.0</ele><time>2026-04-29T06:54:36.998Z</time></trkpt><trkpt lat="38.3594408" lon="21.7762843"><ele>1.0</ele><time>2026-04-29T06:54:37.997Z</time></trkpt><trkpt lat="38.3592904" lon="21.7762271"><ele>1.0</ele><time>2026-04-29T06:54:38.998Z</time></trkpt><trkpt lat="38.3591412" lon="21.7761636"><ele>1.0</ele><time>2026-04-29T06:54:39.997Z</time></trkpt><trkpt lat="38.3589815" lon="21.776098"><ele>1.0</ele><time>2026-04-29T06:54:40.997Z</time></trkpt><trkpt lat="38.3588176" lon="21.7760261"><ele>2.0</ele><time>2026-04-29T06:54:41.997Z</time></trkpt><trkpt lat="38.3586575" lon="21.7759559"><ele>3.0</ele><time>2026-04-29T06:54:42.997Z</time></trkpt><trkpt lat="38.3584953" lon="21.7758855"><ele>4.0</ele><time>2026-04-29T06:54:43.998Z</time></trkpt><trkpt lat="38.3583347" lon="21.7758178"><ele>4.0</ele><time>2026-04-29T06:54:44.997Z</time></trkpt><trkpt lat="38.3581737" lon="21.7757511"><ele>4.0</ele><time>2026-04-29T06:54:45.998Z</time></trkpt><trkpt lat="38.3580159" lon="21.7756848"><ele>4.0</ele><time>2026-04-29T06:54:46.997Z</time></trkpt><trkpt lat="38.357857" lon="21.7756194"><ele>3.6666666666666665</ele><time>2026-04-29T06:54:47.997Z</time></trkpt><trkpt lat="38.3576951" lon="21.775558"><ele>3.333333333333333</ele><time>2026-04-29T06:54:48.998Z</time></trkpt><trkpt lat="38.3575378" lon="21.7754946"><ele>3.0</ele><time>2026-04-29T06:54:49.997Z</time></trkpt><trkpt lat="38.357377" lon="21.7754229"><ele>3.0</ele><time>2026-04-29T06:54:50.997Z</time></trkpt><trkpt lat="38.35723" lon="21.775358"><ele>3.0</ele><time>2026-04-29T06:54:51.998Z</time></trkpt><trkpt lat="38.3570779" lon="21.7752909"><ele>3.0</ele><time>2026-04-29T06:54:52.998Z</time></trkpt><trkpt lat="38.3569292" lon="21.7752268"><ele>4.0</ele><time>2026-04-29T06:54:53.997Z</time></trkpt><trkpt lat="38.3567716" lon="21.7751558"><ele>5.0</ele><time>2026-04-29T06:54:54.997Z</time></trkpt><trkpt lat="38.3566117" lon="21.7750868"><ele>6.0</ele><time>2026-04-29T06:54:55.997Z</time></trkpt><trkpt lat="38.3564557" lon="21.7750175"><ele>5.333333333333333</ele><time>2026-04-29T06:54:56.998Z</time></trkpt><trkpt lat="38.3562919" lon="21.7749462"><ele>4.666666666666666</ele><time>2026-04-29T06:54:57.998Z</time></trkpt><trkpt lat="38.3561201" lon="21.7748752"><ele>4.0</ele><time>2026-04-29T06:54:58.998Z</time></trkpt><trkpt lat="38.3559527" lon="21.774807"><ele>4.0</ele><time>2026-04-29T06:54:59.997Z</time></trkpt><trkpt lat="38.3557889" lon="21.7747397"><ele>4.0</ele><time>2026-04-29T06:55:00.997Z</time></trkpt><trkpt lat="38.3556284" lon="21.7746593"><ele>4.0</ele><time>2026-04-29T06:55:01.997Z</time></trkpt><trkpt lat="38.3554695" lon="21.7745885"><ele>3.6666666666666665</ele><time>2026-04-29T06:55:02.998Z</time></trkpt><trkpt lat="38.3553124" lon="21.7745167"><ele>3.333333333333333</ele><time>2026-04-29T06:55:03.998Z</time></trkpt><trkpt lat="38.355155" lon="21.7744387"><ele>3.0</ele><time>2026-04-29T06:55:04.997Z</time></trkpt><trkpt lat="38.3549912" lon="21.7743739"><ele>3.0</ele><time>2026-04-29T06:55:05.997Z</time></trkpt><trkpt lat="38.3548264" lon="21.7743054"><ele>3.0</ele><time>2026-04-29T06:55:06.997Z</time></trkpt><trkpt lat="38.3546646" lon="21.7742395"><ele>3.0</ele><time>2026-04-29T06:55:07.997Z</time></trkpt><trkpt lat="38.3545035" lon="21.7741719"><ele>3.0</ele><time>2026-04-29T06:55:08.998Z</time></trkpt><trkpt lat="38.3543476" lon="21.7741062"><ele>3.0</ele><time>2026-04-29T06:55:09.998Z</time></trkpt><trkpt lat="38.3541899" lon="21.7740323"><ele>3.0</ele><time>2026-04-29T06:55:10.998Z</time></trkpt><trkpt lat="38.3540267" lon="21.7739678"><ele>2.6666666666666665</ele><time>2026-04-29T06:55:11.998Z</time></trkpt><trkpt lat="38.3538654" lon="21.7738996"><ele>2.333333333333333</ele><time>2026-04-29T06:55:12.997Z</time></trkpt><trkpt lat="38.3537028" lon="21.773828"><ele>2.0</ele><time>2026-04-29T06:55:13.998Z</time></trkpt><trkpt lat="38.3535365" lon="21.7737563"><ele>2.0</ele><time>2026-04-29T06:55:14.998Z</time></trkpt><trkpt lat="38.3533717" lon="21.7736875"><ele>2.0</ele><time>2026-04-29T06:55:15.997Z</time></trkpt><trkpt lat="38.3532005" lon="21.7736159"><ele>2.0</ele><time>2026-04-29T06:55:16.998Z</time></trkpt><trkpt lat="38.3530216" lon="21.7735404"><ele>3.333333333333333</ele><time>2026-04-29T06:55:17.997Z</time></trkpt><trkpt lat="38.3528376" lon="21.7734635"><ele>4.666666666666667</ele><time>2026-04-29T06:55:18.998Z</time></trkpt><trkpt lat="38.3526382" lon="21.773379"><ele>6.0</ele><time>2026-04-29T06:55:19.998Z</time></trkpt><trkpt lat="38.3524379" lon="21.7733004"><ele>6.0</ele><time>2026-04-29T06:55:20.998Z</time></trkpt><trkpt lat="38.3522519" lon="21.7732176"><ele>6.0</ele><time>2026-04-29T06:55:21.997Z</time></trkpt><trkpt lat="38.3520735" lon="21.7731338"><ele>6.0</ele><time>2026-04-29T06:55:22.998Z</time></trkpt><trkpt lat="38.3519045" lon="21.7730544"><ele>5.333333333333333</ele><time>2026-04-29T06:55:23.997Z</time></trkpt><trkpt lat="38.3517396" lon="21.7729746"><ele>4.666666666666666</ele><time>2026-04-29T06:55:24.998Z</time></trkpt><trkpt lat="38.3515797" lon="21.7729013"><ele>4.0</ele><time>2026-04-29T06:55:25.997Z</time></trkpt><trkpt lat="38.3514247" lon="21.7728301"><ele>4.0</ele><time>2026-04-29T06:55:26.997Z</time></trkpt><trkpt lat="38.3512703" lon="21.7727596"><ele>4.0</ele><time>2026-04-29T06:55:27.998Z</time></trkpt><trkpt lat="38.3511158" lon="21.7726992"><ele>4.0</ele><time>2026-04-29T06:55:28.997Z</time></trkpt><trkpt lat="38.3509674" lon="21.7726277"><ele>3.6666666666666665</ele><time>2026-04-29T06:55:29.998Z</time></trkpt><trkpt lat="38.3508116" lon="21.7725574"><ele>3.333333333333333</ele><time>2026-04-29T06:55:30.998Z</time></trkpt><trkpt lat="38.3506542" lon="21.7724941"><ele>3.0</ele><time>2026-04-29T06:55:31.997Z</time></trkpt><trkpt lat="38.3504981" lon="21.772428"><ele>3.0</ele><time>2026-04-29T06:55:32.998Z</time></trkpt><trkpt lat="38.3503319" lon="21.7723607"><ele>3.0</ele><time>2026-04-29T06:55:33.998Z</time></trkpt><trkpt lat="38.3501718" lon="21.7722921"><ele>3.0</ele><time>2026-04-29T06:55:34.998Z</time></trkpt><trkpt lat="38.3500172" lon="21.7722234"><ele>3.0</ele><time>2026-04-29T06:55:35.997Z</time></trkpt><trkpt lat="38.3498701" lon="21.7721472"><ele>3.0</ele><time>2026-04-29T06:55:36.997Z</time></trkpt><trkpt lat="38.3497165" lon="21.772081"><ele>3.0</ele><time>2026-04-29T06:55:37.998Z</time></trkpt><trkpt lat="38.3495538" lon="21.772009"><ele>2.6666666666666665</ele><time>2026-04-29T06:55:38.998Z</time></trkpt><trkpt lat="38.3493942" lon="21.7719304"><ele>2.333333333333333</ele><time>2026-04-29T06:55:39.997Z</time></trkpt><trkpt lat="38.3492379" lon="21.7718624"><ele>2.0</ele><time>2026-04-29T06:55:40.998Z</time></trkpt><trkpt lat="38.3490794" lon="21.7717996"><ele>2.6666666666666665</ele><time>2026-04-29T06:55:41.997Z</time></trkpt><trkpt lat="38.3489289" lon="21.7717376"><ele>3.333333333333333</ele><time>2026-04-29T06:55:42.997Z</time></trkpt><trkpt lat="38.348771" lon="21.7716796"><ele>4.0</ele><time>2026-04-29T06:55:43.997Z</time></trkpt><trkpt lat="38.3486135" lon="21.7716128"><ele>4.0</ele><time>2026-04-29T06:55:44.998Z</time></trkpt><trkpt lat="38.3484577" lon="21.7715366"><ele>4.0</ele><time>2026-04-29T06:55:45.998Z</time></trkpt><trkpt lat="38.348289" lon="21.7714645"><ele>4.0</ele><time>2026-04-29T06:55:46.998Z</time></trkpt><trkpt lat="38.34812" lon="21.7713914"><ele>3.0</ele><time>2026-04-29T06:55:47.998Z</time></trkpt><trkpt lat="38.3479459" lon="21.7713174"><ele>2.0</ele><time>2026-04-29T06:55:48.998Z</time></trkpt><trkpt lat="38.3477567" lon="21.7712408"><ele>1.0</ele><time>2026-04-29T06:55:49.998Z</time></trkpt><trkpt lat="38.3475728" lon="21.7711671"><ele>1.0</ele><time>2026-04-29T06:55:50.997Z</time></trkpt><trkpt lat="38.3473862" lon="21.7710883"><ele>1.0</ele><time>2026-04-29T06:55:51.998Z</time></trkpt><trkpt lat="38.3472048" lon="21.7710033"><ele>1.0</ele><time>2026-04-29T06:55:52.997Z</time></trkpt><trkpt lat="38.3470229" lon="21.7709222"><ele>2.3333333333333335</ele><time>2026-04-29T06:55:53.998Z</time></trkpt><trkpt lat="38.3468489" lon="21.7708442"><ele>3.666666666666667</ele><time>2026-04-29T06:55:54.998Z</time></trkpt><trkpt lat="38.3466765" lon="21.7707641"><ele>5.0</ele><time>2026-04-29T06:55:55.998Z</time></trkpt><trkpt lat="38.3465029" lon="21.7706929"><ele>4.0</ele><time>2026-04-29T06:55:56.998Z</time></trkpt><trkpt lat="38.3463368" lon="21.7706167"><ele>3.0</ele><time>2026-04-29T06:55:57.998Z</time></trkpt><trkpt lat="38.3461671" lon="21.7705406"><ele>2.0</ele><time>2026-04-29T06:55:58.997Z</time></trkpt><trkpt lat="38.3459982" lon="21.7704646"><ele>2.0</ele><time>2026-04-29T06:55:59.997Z</time></trkpt><trkpt lat="38.3458333" lon="21.7703841"><ele>2.0</ele><time>2026-04-29T06:56:00.998Z</time></trkpt><trkpt lat="38.3456572" lon="21.7703076"><ele>2.0</ele><time>2026-04-29T06:56:01.998Z</time></trkpt><trkpt lat="38.3454815" lon="21.7702375"><ele>3.666666666666667</ele><time>2026-04-29T06:56:02.997Z</time></trkpt><trkpt lat="38.3453123" lon="21.77016"><ele>5.333333333333334</ele><time>2026-04-29T06:56:03.998Z</time></trkpt><trkpt lat="38.3451392" lon="21.7700777"><ele>7.0</ele><time>2026-04-29T06:56:04.998Z</time></trkpt><trkpt lat="38.3449614" lon="21.7699987"><ele>7.0</ele><time>2026-04-29T06:56:05.997Z</time></trkpt><trkpt lat="38.3447856" lon="21.7699182"><ele>7.0</ele><time>2026-04-29T06:56:06.998Z</time></trkpt><trkpt lat="38.344613" lon="21.7698317"><ele>7.0</ele><time>2026-04-29T06:56:07.998Z</time></trkpt><trkpt lat="38.3444453" lon="21.7697365"><ele>5.666666666666667</ele><time>2026-04-29T06:56:08.998Z</time></trkpt><trkpt lat="38.3442955" lon="21.769625"><ele>4.333333333333334</ele><time>2026-04-29T06:56:09.998Z</time></trkpt><trkpt lat="38.3441403" lon="21.7694808"><ele>3.0</ele><time>2026-04-29T06:56:10.997Z</time></trkpt><trkpt lat="38.344006" lon="21.7693243"><ele>3.333333333333333</ele><time>2026-04-29T06:56:11.998Z</time></trkpt><trkpt lat="38.3438756" lon="21.7691546"><ele>3.6666666666666665</ele><time>2026-04-29T06:56:12.998Z</time></trkpt><trkpt lat="38.3437457" lon="21.7689778"><ele>4.0</ele><time>2026-04-29T06:56:13.997Z</time></trkpt><trkpt lat="38.3436144" lon="21.7687938"><ele>4.0</ele><time>2026-04-29T06:56:14.997Z</time></trkpt><trkpt lat="38.3434851" lon="21.7686171"><ele>4.0</ele><time>2026-04-29T06:56:15.998Z</time></trkpt><trkpt lat="38.3433581" lon="21.7684319"><ele>4.0</ele><time>2026-04-29T06:56:16.997Z</time></trkpt><trkpt lat="38.3432395" lon="21.7682551"><ele>3.6666666666666665</ele><time>2026-04-29T06:56:17.997Z</time></trkpt><trkpt lat="38.3431131" lon="21.7680804"><ele>3.333333333333333</ele><time>2026-04-29T06:56:18.997Z</time></trkpt><trkpt lat="38.3429895" lon="21.7679097"><ele>3.0</ele><time>2026-04-29T06:56:19.998Z</time></trkpt><trkpt lat="38.3428667" lon="21.7677437"><ele>3.666666666666667</ele><time>2026-04-29T06:56:20.997Z</time></trkpt><trkpt lat="38.3427464" lon="21.7675821"><ele>4.333333333333334</ele><time>2026-04-29T06:56:21.998Z</time></trkpt><trkpt lat="38.3426278" lon="21.7674254"><ele>5.0</ele><time>2026-04-29T06:56:22.998Z</time></trkpt><trkpt lat="38.342513" lon="21.7672676"><ele>5.0</ele><time>2026-04-29T06:56:23.997Z</time></trkpt><trkpt lat="38.3424051" lon="21.7671165"><ele>5.0</ele><time>2026-04-29T06:56:24.998Z</time></trkpt><trkpt lat="38.3423008" lon="21.7669654"><ele>5.0</ele><time>2026-04-29T06:56:25.997Z</time></trkpt><trkpt lat="38.3422012" lon="21.7668086"><ele>6.333333333333334</ele><time>2026-04-29T06:56:26.998Z</time></trkpt><trkpt lat="38.3420935" lon="21.76665"><ele>7.666666666666667</ele><time>2026-04-29T06:56:27.998Z</time></trkpt><trkpt lat="38.3419967" lon="21.7664879"><ele>9.0</ele><time>2026-04-29T06:56:28.997Z</time></trkpt><trkpt lat="38.3419008" lon="21.7663137"><ele>9.0</ele><time>2026-04-29T06:56:29.998Z</time></trkpt><trkpt lat="38.3418142" lon="21.7661326"><ele>9.0</ele><time>2026-04-29T06:56:30.997Z</time></trkpt><trkpt lat="38.3417312" lon="21.7659425"><ele>9.0</ele><time>2026-04-29T06:56:31.998Z</time></trkpt><trkpt lat="38.3416618" lon="21.7657536"><ele>8.666666666666666</ele><time>2026-04-29T06:56:32.997Z</time></trkpt><trkpt lat="38.3415908" lon="21.7655477"><ele>8.333333333333332</ele><time>2026-04-29T06:56:33.998Z</time></trkpt><trkpt lat="38.3415285" lon="21.7653522"><ele>8.0</ele><time>2026-04-29T06:56:34.997Z</time></trkpt><trkpt lat="38.341457" lon="21.7651524"><ele>8.0</ele><time>2026-04-29T06:56:35.998Z</time></trkpt><trkpt lat="38.341386" lon="21.7649484"><ele>8.0</ele><time>2026-04-29T06:56:36.998Z</time></trkpt><trkpt lat="38.3413201" lon="21.7647581"><ele>8.0</ele><time>2026-04-29T06:56:37.998Z</time></trkpt><trkpt lat="38.3412588" lon="21.7645724"><ele>8.0</ele><time>2026-04-29T06:56:38.998Z</time></trkpt><trkpt lat="38.3412034" lon="21.7644001"><ele>8.0</ele><time>2026-04-29T06:56:39.997Z</time></trkpt><trkpt lat="38.3411458" lon="21.7642349"><ele>8.0</ele><time>2026-04-29T06:56:40.997Z</time></trkpt><trkpt lat="38.3410932" lon="21.7640798"><ele>8.0</ele><time>2026-04-29T06:56:41.998Z</time></trkpt><trkpt lat="38.341048" lon="21.7639324"><ele>7.6000000000000005</ele><time>2026-04-29T06:56:42.997Z</time></trkpt><trkpt lat="38.3409981" lon="21.7637936"><ele>7.200000000000001</ele><time>2026-04-29T06:56:43.997Z</time></trkpt><trkpt lat="38.3409555" lon="21.7636645"><ele>6.8</ele><time>2026-04-29T06:56:44.998Z</time></trkpt><trkpt lat="38.3409165" lon="21.7635456"><ele>6.4</ele><time>2026-04-29T06:56:45.997Z</time></trkpt><trkpt lat="38.3408765" lon="21.7634371"><ele>6.0</ele><time>2026-04-29T06:56:46.998Z</time></trkpt><trkpt lat="38.3408383" lon="21.7633364"><ele>5.833333333333333</ele><time>2026-04-29T06:56:47.997Z</time></trkpt><trkpt lat="38.340804" lon="21.7632482"><ele>5.666666666666667</ele><time>2026-04-29T06:56:48.998Z</time></trkpt><trkpt lat="38.340767" lon="21.7631244"><ele>5.5</ele><time>2026-04-29T06:56:50.998Z</time></trkpt><trkpt lat="38.3407272" lon="21.7630384"><ele>5.333333333333334</ele><time>2026-04-29T06:56:52.997Z</time></trkpt><trkpt lat="38.3406723" lon="21.7629668"><ele>5.166666666666667</ele><time>2026-04-29T06:56:54.997Z</time></trkpt><trkpt lat="38.3406368" lon="21.7628908"><ele>5.0</ele><time>2026-04-29T06:56:56.998Z</time></trkpt><trkpt lat="38.340598" lon="21.7627974"><ele>5.0</ele><time>2026-04-29T06:56:59.998Z</time></trkpt><trkpt lat="38.3405526" lon="21.7627184"><ele>5.0</ele><time>2026-04-29T06:57:01.998Z</time></trkpt><trkpt lat="38.3405426" lon="21.7625868"><ele>5.0</ele><time>2026-04-29T06:57:03.997Z</time></trkpt><trkpt lat="38.3405543" lon="21.7624858"><ele>5.0</ele><time>2026-04-29T06:57:05.997Z</time></trkpt><trkpt lat="38.3405563" lon="21.7623733"><ele>5.0</ele><time>2026-04-29T06:57:08.997Z</time></trkpt><trkpt lat="38.3405248" lon="21.7622757"><ele>5.0</ele><time>2026-04-29T06:57:11.998Z</time></trkpt><trkpt lat="38.3404843" lon="21.7622125"><ele>4.8</ele><time>2026-04-29T06:57:13.997Z</time></trkpt><trkpt lat="38.3404226" lon="21.76215"><ele>4.6</ele><time>2026-04-29T06:57:15.998Z</time></trkpt><trkpt lat="38.3403566" lon="21.7620845"><ele>4.4</ele><time>2026-04-29T06:57:17.998Z</time></trkpt><trkpt lat="38.3403102" lon="21.7620019"><ele>4.2</ele><time>2026-04-29T06:57:19.998Z</time></trkpt><trkpt lat="38.340265" lon="21.7618648"><ele>4.0</ele><time>2026-04-29T06:57:21.998Z</time></trkpt><trkpt lat="38.3402111" lon="21.7617351"><ele>4.4</ele><time>2026-04-29T06:57:23.997Z</time></trkpt><trkpt lat="38.3401579" lon="21.7615901"><ele>4.800000000000001</ele><time>2026-04-29T06:57:25.998Z</time></trkpt><trkpt lat="38.3401345" lon="21.761508"><ele>5.199999999999999</ele><time>2026-04-29T06:57:26.997Z</time></trkpt><trkpt lat="38.3400978" lon="21.7613986"><ele>5.6</ele><time>2026-04-29T06:57:28.997Z</time></trkpt><trkpt lat="38.3400723" lon="21.7612943"><ele>6.0</ele><time>2026-04-29T06:57:31.998Z</time></trkpt><trkpt lat="38.3400456" lon="21.7611997"><ele>6.0</ele><time>2026-04-29T06:57:34.998Z</time></trkpt><trkpt lat="38.340023" lon="21.7611215"><ele>6.0</ele><time>2026-04-29T06:57:36.998Z</time></trkpt><trkpt lat="38.3399992" lon="21.7610457"><ele>6.0</ele><time>2026-04-29T06:57:38.997Z</time></trkpt><trkpt lat="38.3399696" lon="21.7609369"><ele>6.0</ele><time>2026-04-29T06:57:40.998Z</time></trkpt><trkpt lat="38.3399458" lon="21.7608395"><ele>6.0</ele><time>2026-04-29T06:57:43.997Z</time></trkpt><trkpt lat="38.3399582" lon="21.7607442"><ele>6.0</ele><time>2026-04-29T06:57:46.997Z</time></trkpt><trkpt lat="38.3400156" lon="21.7606136"><ele>6.333333333333333</ele><time>2026-04-29T06:57:48.997Z</time></trkpt><trkpt lat="38.3400358" lon="21.7604639"><ele>6.666666666666666</ele><time>2026-04-29T06:57:50.997Z</time></trkpt><trkpt lat="38.3399991" lon="21.7603411"><ele>7.0</ele><time>2026-04-29T06:57:52.997Z</time></trkpt><trkpt lat="38.339946" lon="21.7602878"><ele>7.333333333333333</ele><time>2026-04-29T06:57:53.998Z</time></trkpt><trkpt lat="38.3398844" lon="21.7602566"><ele>7.666666666666666</ele><time>2026-04-29T06:57:54.998Z</time></trkpt><trkpt lat="38.3398195" lon="21.7602542"><ele>8.0</ele><time>2026-04-29T06:57:55.997Z</time></trkpt><trkpt lat="38.3397524" lon="21.7602813"><ele>7.666666666666666</ele><time>2026-04-29T06:57:56.997Z</time></trkpt><trkpt lat="38.3396943" lon="21.7603362"><ele>7.333333333333333</ele><time>2026-04-29T06:57:57.998Z</time></trkpt><trkpt lat="38.3396502" lon="21.7604049"><ele>7.0</ele><time>2026-04-29T06:57:58.998Z</time></trkpt><trkpt lat="38.3396195" lon="21.7604925"><ele>6.666666666666666</ele><time>2026-04-29T06:57:59.998Z</time></trkpt><trkpt lat="38.3395784" lon="21.7605833"><ele>6.333333333333333</ele><time>2026-04-29T06:58:00.998Z</time></trkpt><trkpt lat="38.3395113" lon="21.7606686"><ele>6.0</ele><time>2026-04-29T06:58:01.997Z</time></trkpt><trkpt lat="38.3394267" lon="21.7607482"><ele>6.0</ele><time>2026-04-29T06:58:02.997Z</time></trkpt><trkpt lat="38.339338" lon="21.7608242"><ele>6.0</ele><time>2026-04-29T06:58:03.997Z</time></trkpt><trkpt lat="38.339254" lon="21.7609034"><ele>6.0</ele><time>2026-04-29T06:58:04.997Z</time></trkpt><trkpt lat="38.3391708" lon="21.7609957"><ele>6.0</ele><time>2026-04-29T06:58:05.998Z</time></trkpt><trkpt lat="38.3390925" lon="21.7610927"><ele>6.0</ele><time>2026-04-29T06:58:06.997Z</time></trkpt><trkpt lat="38.3390229" lon="21.7611916"><ele>5.8</ele><time>2026-04-29T06:58:07.997Z</time></trkpt><trkpt lat="38.3389535" lon="21.7613049"><ele>5.6</ele><time>2026-04-29T06:58:08.998Z</time></trkpt><trkpt lat="38.3389012" lon="21.7614162"><ele>5.4</ele><time>2026-04-29T06:58:09.997Z</time></trkpt><trkpt lat="38.3388463" lon="21.7615365"><ele>5.2</ele><time>2026-04-29T06:58:10.997Z</time></trkpt><trkpt lat="38.3388009" lon="21.7616408"><ele>5.0</ele><time>2026-04-29T06:58:11.998Z</time></trkpt><trkpt lat="38.338771" lon="21.7617644"><ele>4.6</ele><time>2026-04-29T06:58:12.997Z</time></trkpt><trkpt lat="38.3387313" lon="21.7618814"><ele>4.2</ele><time>2026-04-29T06:58:13.998Z</time></trkpt><trkpt lat="38.3386883" lon="21.7620047"><ele>3.8</ele><time>2026-04-29T06:58:14.998Z</time></trkpt><trkpt lat="38.3386406" lon="21.7621334"><ele>3.4</ele><time>2026-04-29T06:58:15.998Z</time></trkpt><trkpt lat="38.3385999" lon="21.7622673"><ele>3.0</ele><time>2026-04-29T06:58:16.998Z</time></trkpt><trkpt lat="38.3385498" lon="21.7623807"><ele>3.0</ele><time>2026-04-29T06:58:17.998Z</time></trkpt><trkpt lat="38.3384863" lon="21.7624843"><ele>3.0</ele><time>2026-04-29T06:58:18.997Z</time></trkpt><trkpt lat="38.3384328" lon="21.7625921"><ele>3.0</ele><time>2026-04-29T06:58:19.997Z</time></trkpt><trkpt lat="38.3383847" lon="21.7626965"><ele>3.0</ele><time>2026-04-29T06:58:20.997Z</time></trkpt><trkpt lat="38.3383257" lon="21.7627992"><ele>3.0</ele><time>2026-04-29T06:58:21.997Z</time></trkpt><trkpt lat="38.3382651" lon="21.7628982"><ele>3.2</ele><time>2026-04-29T06:58:22.998Z</time></trkpt><trkpt lat="38.3382013" lon="21.7629995"><ele>3.4</ele><time>2026-04-29T06:58:23.997Z</time></trkpt><trkpt lat="38.3381333" lon="21.7630937"><ele>3.6000000000000005</ele><time>2026-04-29T06:58:24.997Z</time></trkpt><trkpt lat="38.3380481" lon="21.7631917"><ele>3.8000000000000003</ele><time>2026-04-29T06:58:25.998Z</time></trkpt><trkpt lat="38.3379702" lon="21.7632789"><ele>4.0</ele><time>2026-04-29T06:58:26.997Z</time></trkpt><trkpt lat="38.3378879" lon="21.7633602"><ele>3.6</ele><time>2026-04-29T06:58:27.997Z</time></trkpt><trkpt lat="38.3377995" lon="21.7634386"><ele>3.2</ele><time>2026-04-29T06:58:28.997Z</time></trkpt><trkpt lat="38.3377124" lon="21.7635076"><ele>2.8000000000000003</ele><time>2026-04-29T06:58:29.997Z</time></trkpt><trkpt lat="38.3376255" lon="21.7635764"><ele>2.4000000000000004</ele><time>2026-04-29T06:58:30.998Z</time></trkpt><trkpt lat="38.3375394" lon="21.7636415"><ele>2.0</ele><time>2026-04-29T06:58:31.998Z</time></trkpt><trkpt lat="38.3374482" lon="21.7637019"><ele>2.0</ele><time>2026-04-29T06:58:32.997Z</time></trkpt><trkpt lat="38.337358" lon="21.7637597"><ele>2.0</ele><time>2026-04-29T06:58:33.997Z</time></trkpt><trkpt lat="38.3372678" lon="21.7638198"><ele>2.0</ele><time>2026-04-29T06:58:34.998Z</time></trkpt><trkpt lat="38.3371772" lon="21.7638813"><ele>2.0</ele><time>2026-04-29T06:58:35.997Z</time></trkpt><trkpt lat="38.3370799" lon="21.7639467"><ele>2.0</ele><time>2026-04-29T06:58:36.997Z</time></trkpt><trkpt lat="38.3369798" lon="21.7640089"><ele>2.0</ele><time>2026-04-29T06:58:37.997Z</time></trkpt><trkpt lat="38.3368773" lon="21.7640815"><ele>2.0</ele><time>2026-04-29T06:58:38.997Z</time></trkpt><trkpt lat="38.3367689" lon="21.7641483"><ele>2.0</ele><time>2026-04-29T06:58:39.997Z</time></trkpt><trkpt lat="38.3366554" lon="21.7642237"><ele>2.0</ele><time>2026-04-29T06:58:40.998Z</time></trkpt><trkpt lat="38.3365375" lon="21.7643032"><ele>2.0</ele><time>2026-04-29T06:58:41.997Z</time></trkpt><trkpt lat="38.3364203" lon="21.7643732"><ele>2.0</ele><time>2026-04-29T06:58:42.997Z</time></trkpt><trkpt lat="38.3363014" lon="21.7644502"><ele>2.0</ele><time>2026-04-29T06:58:43.998Z</time></trkpt><trkpt lat="38.336183" lon="21.764517"><ele>2.0</ele><time>2026-04-29T06:58:44.998Z</time></trkpt><trkpt lat="38.3360608" lon="21.7645865"><ele>2.0</ele><time>2026-04-29T06:58:45.997Z</time></trkpt><trkpt lat="38.335938" lon="21.7646499"><ele>2.0</ele><time>2026-04-29T06:58:46.997Z</time></trkpt><trkpt lat="38.3358163" lon="21.7647189"><ele>2.0</ele><time>2026-04-29T06:58:47.997Z</time></trkpt><trkpt lat="38.3356942" lon="21.7647906"><ele>2.0</ele><time>2026-04-29T06:58:48.998Z</time></trkpt><trkpt lat="38.3355741" lon="21.7648536"><ele>1.6</ele><time>2026-04-29T06:58:49.997Z</time></trkpt><trkpt lat="38.3354613" lon="21.7649172"><ele>1.2000000000000002</ele><time>2026-04-29T06:58:50.998Z</time></trkpt><trkpt lat="38.3353479" lon="21.7649731"><ele>0.8</ele><time>2026-04-29T06:58:51.997Z</time></trkpt><trkpt lat="38.3352581" lon="21.7650186"><ele>0.4</ele><time>2026-04-29T06:58:52.998Z</time></trkpt><trkpt lat="38.3351844" lon="21.7650516"><ele>0.0</ele><time>2026-04-29T06:58:53.998Z</time></trkpt><trkpt lat="38.335113" lon="21.7650797"><ele>0.0</ele><time>2026-04-29T06:58:54.998Z</time></trkpt><trkpt lat="38.3350378" lon="21.7651107"><ele>0.0</ele><time>2026-04-29T06:58:55.998Z</time></trkpt><trkpt lat="38.3349691" lon="21.7651392"><ele>0.0</ele><time>2026-04-29T06:58:56.997Z</time></trkpt><trkpt lat="38.3349009" lon="21.7651639"><ele>0.0</ele><time>2026-04-29T06:58:57.997Z</time></trkpt><trkpt lat="38.3348307" lon="21.7651955"><ele>0.0</ele><time>2026-04-29T06:58:58.998Z</time></trkpt><trkpt lat="38.334757" lon="21.7652257"><ele>0.0</ele><time>2026-04-29T06:58:59.997Z</time></trkpt><trkpt lat="38.334683" lon="21.765255"><ele>0.16666666666666666</ele><time>2026-04-29T06:59:00.997Z</time></trkpt><trkpt lat="38.334606" lon="21.7652885"><ele>0.3333333333333333</ele><time>2026-04-29T06:59:01.998Z</time></trkpt><trkpt lat="38.3345286" lon="21.765321"><ele>0.5</ele><time>2026-04-29T06:59:02.997Z</time></trkpt><trkpt lat="38.3344464" lon="21.7653564"><ele>0.6666666666666666</ele><time>2026-04-29T06:59:03.998Z</time></trkpt><trkpt lat="38.3343788" lon="21.7653866"><ele>0.8333333333333333</ele><time>2026-04-29T06:59:04.997Z</time></trkpt><trkpt lat="38.3343155" lon="21.7654124"><ele>1.0</ele><time>2026-04-29T06:59:05.998Z</time></trkpt><trkpt lat="38.3342551" lon="21.7654424"><ele>0.9999999999999999</ele><time>2026-04-29T06:59:06.998Z</time></trkpt><trkpt lat="38.334194" lon="21.7654653"><ele>1.0</ele><time>2026-04-29T06:59:07.998Z</time></trkpt><trkpt lat="38.3341003" lon="21.7655047"><ele>1.0</ele><time>2026-04-29T06:59:09.998Z</time></trkpt><trkpt lat="38.3340218" lon="21.7655443"><ele>1.0</ele><time>2026-04-29T06:59:11.998Z</time></trkpt><trkpt lat="38.3339444" lon="21.7655804"><ele>0.9999999999999999</ele><time>2026-04-29T06:59:13.998Z</time></trkpt><trkpt lat="38.3338608" lon="21.7656156"><ele>1.0</ele><time>2026-04-29T06:59:16.998Z</time></trkpt><trkpt lat="38.333789" lon="21.7656362"><ele>1.1666666666666665</ele><time>2026-04-29T06:59:19.997Z</time></trkpt><trkpt lat="38.3337194" lon="21.7656549"><ele>1.3333333333333333</ele><time>2026-04-29T07:00:00.997Z</time></trkpt><trkpt lat="38.3336354" lon="21.7657132"><ele>1.5</ele><time>2026-04-29T07:00:03.998Z</time></trkpt><trkpt lat="38.3335822" lon="21.7657591"><ele>1.6666666666666665</ele><time>2026-04-29T07:00:07.997Z</time></trkpt><trkpt lat="38.333512" lon="21.7658305"><ele>1.8333333333333333</ele><time>2026-04-29T07:00:40.997Z</time></trkpt><trkpt lat="38.3334178" lon="21.7658822"><ele>2.0</ele><time>2026-04-29T07:00:42.998Z</time></trkpt><trkpt lat="38.3333129" lon="21.7659533"><ele>2.0</ele><time>2026-04-29T07:00:44.998Z</time></trkpt><trkpt lat="38.3331962" lon="21.7660306"><ele>2.0</ele><time>2026-04-29T07:00:46.998Z</time></trkpt><trkpt lat="38.3331323" lon="21.7660796"><ele>2.0</ele><time>2026-04-29T07:00:47.997Z</time></trkpt><trkpt lat="38.3330577" lon="21.7661328"><ele>2.0</ele><time>2026-04-29T07:00:48.998Z</time></trkpt><trkpt lat="38.3329776" lon="21.7661872"><ele>2.0</ele><time>2026-04-29T07:00:49.998Z</time></trkpt><trkpt lat="38.3328966" lon="21.7662428"><ele>1.8</ele><time>2026-04-29T07:00:50.998Z</time></trkpt><trkpt lat="38.3328134" lon="21.7662986"><ele>1.6</ele><time>2026-04-29T07:00:51.998Z</time></trkpt><trkpt lat="38.3327235" lon="21.7663532"><ele>1.4000000000000001</ele><time>2026-04-29T07:00:52.997Z</time></trkpt><trkpt lat="38.3326356" lon="21.7664109"><ele>1.2000000000000002</ele><time>2026-04-29T07:00:53.998Z</time></trkpt><trkpt lat="38.3325416" lon="21.7664676"><ele>1.0</ele><time>2026-04-29T07:00:54.997Z</time></trkpt><trkpt lat="38.3324486" lon="21.7665273"><ele>1.0</ele><time>2026-04-29T07:00:55.997Z</time></trkpt><trkpt lat="38.3323545" lon="21.7665891"><ele>1.0</ele><time>2026-04-29T07:00:56.997Z</time></trkpt><trkpt lat="38.3322525" lon="21.766651"><ele>1.0</ele><time>2026-04-29T07:00:57.998Z</time></trkpt><trkpt lat="38.3321428" lon="21.766723"><ele>1.0</ele><time>2026-04-29T07:00:58.997Z</time></trkpt><trkpt lat="38.3320276" lon="21.7667922"><ele>0.0</ele><time>2026-04-29T07:00:59.997Z</time></trkpt><trkpt lat="38.3319039" lon="21.7668685"><ele>-1.0</ele><time>2026-04-29T07:01:00.998Z</time></trkpt><trkpt lat="38.3317768" lon="21.7669511"><ele>-2.0</ele><time>2026-04-29T07:01:01.998Z</time></trkpt><trkpt lat="38.33164" lon="21.7670416"><ele>-3.0</ele><time>2026-04-29T07:01:02.998Z</time></trkpt><trkpt lat="38.331495" lon="21.7671296"><ele>-2.3333333333333335</ele><time>2026-04-29T07:01:03.998Z</time></trkpt><trkpt lat="38.3313476" lon="21.7672165"><ele>-1.6666666666666665</ele><time>2026-04-29T07:01:04.997Z</time></trkpt><trkpt lat="38.3311974" lon="21.7672983"><ele>-1.0</ele><time>2026-04-29T07:01:05.998Z</time></trkpt><trkpt lat="38.3310486" lon="21.7673817"><ele>-1.0</ele><time>2026-04-29T07:01:06.998Z</time></trkpt><trkpt lat="38.3308975" lon="21.7674658"><ele>-1.0</ele><time>2026-04-29T07:01:07.998Z</time></trkpt><trkpt lat="38.330744" lon="21.7675557"><ele>-1.0</ele><time>2026-04-29T07:01:08.998Z</time></trkpt><trkpt lat="38.3305887" lon="21.7676399"><ele>-0.3333333333333333</ele><time>2026-04-29T07:01:09.997Z</time></trkpt><trkpt lat="38.3304316" lon="21.7677289"><ele>0.3333333333333333</ele><time>2026-04-29T07:01:10.998Z</time></trkpt><trkpt lat="38.3302778" lon="21.7678122"><ele>1.0</ele><time>2026-04-29T07:01:11.997Z</time></trkpt><trkpt lat="38.3301172" lon="21.767897"><ele>1.0</ele><time>2026-04-29T07:01:12.997Z</time></trkpt><trkpt lat="38.3299522" lon="21.7679712"><ele>1.0</ele><time>2026-04-29T07:01:13.998Z</time></trkpt><trkpt lat="38.3297896" lon="21.7680614"><ele>1.0</ele><time>2026-04-29T07:01:14.997Z</time></trkpt><trkpt lat="38.3296218" lon="21.7681404"><ele>0.6666666666666666</ele><time>2026-04-29T07:01:15.997Z</time></trkpt><trkpt lat="38.329454" lon="21.7682337"><ele>0.3333333333333333</ele><time>2026-04-29T07:01:16.998Z</time></trkpt><trkpt lat="38.3292833" lon="21.7683273"><ele>0.0</ele><time>2026-04-29T07:01:17.998Z</time></trkpt><trkpt lat="38.3291127" lon="21.7684196"><ele>0.0</ele><time>2026-04-29T07:01:18.998Z</time></trkpt><trkpt lat="38.3289392" lon="21.768521"><ele>0.0</ele><time>2026-04-29T07:01:19.998Z</time></trkpt><trkpt lat="38.3287596" lon="21.7686269"><ele>0.0</ele><time>2026-04-29T07:01:20.998Z</time></trkpt><trkpt lat="38.3285795" lon="21.768729"><ele>0.0</ele><time>2026-04-29T07:01:21.998Z</time></trkpt><trkpt lat="38.3283998" lon="21.7688306"><ele>0.0</ele><time>2026-04-29T07:01:22.997Z</time></trkpt><trkpt lat="38.3282206" lon="21.7689297"><ele>0.0</ele><time>2026-04-29T07:01:23.997Z</time></trkpt><trkpt lat="38.3280482" lon="21.7690288"><ele>0.0</ele><time>2026-04-29T07:01:24.997Z</time></trkpt><trkpt lat="38.3278754" lon="21.7691236"><ele>0.0</ele><time>2026-04-29T07:01:25.998Z</time></trkpt><trkpt lat="38.3277146" lon="21.7692169"><ele>0.0</ele><time>2026-04-29T07:01:26.997Z</time></trkpt><trkpt lat="38.3275534" lon="21.7693115"><ele>0.0</ele><time>2026-04-29T07:01:27.998Z</time></trkpt><trkpt lat="38.3273972" lon="21.7693979"><ele>0.0</ele><time>2026-04-29T07:01:28.997Z</time></trkpt><trkpt lat="38.3272391" lon="21.7694885"><ele>0.0</ele><time>2026-04-29T07:01:29.997Z</time></trkpt><trkpt lat="38.327081" lon="21.769559"><ele>0.0</ele><time>2026-04-29T07:01:30.998Z</time></trkpt><trkpt lat="38.326928" lon="21.7696505"><ele>0.0</ele><time>2026-04-29T07:01:31.997Z</time></trkpt><trkpt lat="38.3267778" lon="21.7697358"><ele>0.0</ele><time>2026-04-29T07:01:32.997Z</time></trkpt><trkpt lat="38.3266242" lon="21.7698185"><ele>0.0</ele><time>2026-04-29T07:01:33.998Z</time></trkpt><trkpt lat="38.3264697" lon="21.7698825"><ele>0.0</ele><time>2026-04-29T07:01:34.998Z</time></trkpt><trkpt lat="38.3263196" lon="21.7699635"><ele>0.0</ele><time>2026-04-29T07:01:35.997Z</time></trkpt><trkpt lat="38.326168" lon="21.7700464"><ele>0.0</ele><time>2026-04-29T07:01:36.998Z</time></trkpt><trkpt lat="38.3260159" lon="21.7701289"><ele>0.0</ele><time>2026-04-29T07:01:37.997Z</time></trkpt><trkpt lat="38.3258673" lon="21.7702104"><ele>0.0</ele><time>2026-04-29T07:01:38.998Z</time></trkpt><trkpt lat="38.3257155" lon="21.7702935"><ele>0.0</ele><time>2026-04-29T07:01:39.997Z</time></trkpt><trkpt lat="38.3255681" lon="21.7703713"><ele>0.0</ele><time>2026-04-29T07:01:40.997Z</time></trkpt><trkpt lat="38.3254266" lon="21.7704554"><ele>0.0</ele><time>2026-04-29T07:01:41.998Z</time></trkpt><trkpt lat="38.325279" lon="21.7705385"><ele>0.0</ele><time>2026-04-29T07:01:42.998Z</time></trkpt><trkpt lat="38.3251296" lon="21.7706285"><ele>0.0</ele><time>2026-04-29T07:01:43.997Z</time></trkpt><trkpt lat="38.3249843" lon="21.770708"><ele>0.0</ele><time>2026-04-29T07:01:44.997Z</time></trkpt><trkpt lat="38.3248424" lon="21.7707955"><ele>0.0</ele><time>2026-04-29T07:01:45.997Z</time></trkpt><trkpt lat="38.3246975" lon="21.7708737"><ele>0.0</ele><time>2026-04-29T07:01:46.998Z</time></trkpt><trkpt lat="38.3245564" lon="21.7709542"><ele>0.0</ele><time>2026-04-29T07:01:47.998Z</time></trkpt><trkpt lat="38.3244203" lon="21.7710515"><ele>0.0</ele><time>2026-04-29T07:01:48.998Z</time></trkpt><trkpt lat="38.3242838" lon="21.7711264"><ele>0.0</ele><time>2026-04-29T07:01:49.998Z</time></trkpt><trkpt lat="38.3241515" lon="21.7711992"><ele>0.0</ele><time>2026-04-29T07:01:50.998Z</time></trkpt><trkpt lat="38.3240186" lon="21.7712703"><ele>0.0</ele><time>2026-04-29T07:01:51.998Z</time></trkpt><trkpt lat="38.3238903" lon="21.7713418"><ele>0.0</ele><time>2026-04-29T07:01:52.998Z</time></trkpt><trkpt lat="38.323765" lon="21.7714135"><ele>0.0</ele><time>2026-04-29T07:01:53.997Z</time></trkpt><trkpt lat="38.3236423" lon="21.7714818"><ele>0.0</ele><time>2026-04-29T07:01:54.998Z</time></trkpt><trkpt lat="38.3235171" lon="21.77152"><ele>0.0</ele><time>2026-04-29T07:01:55.998Z</time></trkpt><trkpt lat="38.3233992" lon="21.7715899"><ele>0.0</ele><time>2026-04-29T07:01:56.998Z</time></trkpt><trkpt lat="38.3232819" lon="21.7716487"><ele>0.0</ele><time>2026-04-29T07:01:57.998Z</time></trkpt><trkpt lat="38.3231609" lon="21.7717077"><ele>0.0</ele><time>2026-04-29T07:01:58.997Z</time></trkpt><trkpt lat="38.3230432" lon="21.7717719"><ele>0.0</ele><time>2026-04-29T07:01:59.997Z</time></trkpt><trkpt lat="38.3229258" lon="21.7718388"><ele>0.0</ele><time>2026-04-29T07:02:00.998Z</time></trkpt><trkpt lat="38.3228071" lon="21.7718936"><ele>0.0</ele><time>2026-04-29T07:02:01.997Z</time></trkpt><trkpt lat="38.322692" lon="21.7719541"><ele>0.0</ele><time>2026-04-29T07:02:02.998Z</time></trkpt><trkpt lat="38.3225801" lon="21.7720194"><ele>0.0</ele><time>2026-04-29T07:02:03.998Z</time></trkpt><trkpt lat="38.3224683" lon="21.7720835"><ele>0.0</ele><time>2026-04-29T07:02:04.998Z</time></trkpt><trkpt lat="38.3223538" lon="21.7721482"><ele>0.0</ele><time>2026-04-29T07:02:05.998Z</time></trkpt><trkpt lat="38.3222363" lon="21.7722078"><ele>0.0</ele><time>2026-04-29T07:02:06.998Z</time></trkpt><trkpt lat="38.322105" lon="21.772282"><ele>0.0</ele><time>2026-04-29T07:02:07.998Z</time></trkpt><trkpt lat="38.3219615" lon="21.772353"><ele>0.0</ele><time>2026-04-29T07:02:08.998Z</time></trkpt><trkpt lat="38.3218135" lon="21.7724339"><ele>0.0</ele><time>2026-04-29T07:02:09.998Z</time></trkpt><trkpt lat="38.3216612" lon="21.7725164"><ele>0.0</ele><time>2026-04-29T07:02:10.997Z</time></trkpt><trkpt lat="38.3215135" lon="21.7725998"><ele>0.0</ele><time>2026-04-29T07:02:11.998Z</time></trkpt><trkpt lat="38.3213701" lon="21.7726891"><ele>0.0</ele><time>2026-04-29T07:02:12.997Z</time></trkpt><trkpt lat="38.321231" lon="21.7727687"><ele>0.0</ele><time>2026-04-29T07:02:13.997Z</time></trkpt><trkpt lat="38.3210919" lon="21.7728533"><ele>0.0</ele><time>2026-04-29T07:02:14.997Z</time></trkpt><trkpt lat="38.3209491" lon="21.7729326"><ele>0.0</ele><time>2026-04-29T07:02:15.998Z</time></trkpt><trkpt lat="38.3208139" lon="21.7730083"><ele>0.0</ele><time>2026-04-29T07:02:16.998Z</time></trkpt><trkpt lat="38.3206752" lon="21.773086"><ele>0.0</ele><time>2026-04-29T07:02:17.997Z</time></trkpt><trkpt lat="38.3205302" lon="21.7731564"><ele>0.0</ele><time>2026-04-29T07:02:18.997Z</time></trkpt><trkpt lat="38.3203891" lon="21.7732419"><ele>0.0</ele><time>2026-04-29T07:02:19.997Z</time></trkpt><trkpt lat="38.3202529" lon="21.7733184"><ele>0.0</ele><time>2026-04-29T07:02:20.998Z</time></trkpt><trkpt lat="38.3201095" lon="21.7734021"><ele>0.0</ele><time>2026-04-29T07:02:21.997Z</time></trkpt><trkpt lat="38.3199629" lon="21.7734776"><ele>0.0</ele><time>2026-04-29T07:02:22.997Z</time></trkpt><trkpt lat="38.3198155" lon="21.7735629"><ele>0.0</ele><time>2026-04-29T07:02:23.998Z</time></trkpt><trkpt lat="38.3196636" lon="21.7736383"><ele>0.0</ele><time>2026-04-29T07:02:24.997Z</time></trkpt><trkpt lat="38.3195168" lon="21.7737188"><ele>0.0</ele><time>2026-04-29T07:02:25.998Z</time></trkpt><trkpt lat="38.3193633" lon="21.7738016"><ele>0.0</ele><time>2026-04-29T07:02:26.998Z</time></trkpt><trkpt lat="38.319198" lon="21.773888"><ele>0.0</ele><time>2026-04-29T07:02:27.997Z</time></trkpt><trkpt lat="38.3190451" lon="21.7739706"><ele>0.0</ele><time>2026-04-29T07:02:28.998Z</time></trkpt><trkpt lat="38.3188838" lon="21.7740579"><ele>0.0</ele><time>2026-04-29T07:02:29.998Z</time></trkpt><trkpt lat="38.3187197" lon="21.7741491"><ele>0.0</ele><time>2026-04-29T07:02:30.997Z</time></trkpt><trkpt lat="38.3185585" lon="21.77423"><ele>0.0</ele><time>2026-04-29T07:02:31.997Z</time></trkpt><trkpt lat="38.318404" lon="21.7743143"><ele>0.0</ele><time>2026-04-29T07:02:32.997Z</time></trkpt><trkpt lat="38.3182489" lon="21.7744003"><ele>0.0</ele><time>2026-04-29T07:02:33.997Z</time></trkpt><trkpt lat="38.3180925" lon="21.774485"><ele>0.0</ele><time>2026-04-29T07:02:34.997Z</time></trkpt><trkpt lat="38.3179316" lon="21.7745606"><ele>0.0</ele><time>2026-04-29T07:02:35.998Z</time></trkpt><trkpt lat="38.3177564" lon="21.774669"><ele>0.0</ele><time>2026-04-29T07:02:36.998Z</time></trkpt><trkpt lat="38.3175903" lon="21.7747631"><ele>0.0</ele><time>2026-04-29T07:02:37.997Z</time></trkpt><trkpt lat="38.3174231" lon="21.7748567"><ele>0.0</ele><time>2026-04-29T07:02:38.998Z</time></trkpt><trkpt lat="38.3172514" lon="21.7749547"><ele>0.0</ele><time>2026-04-29T07:02:39.997Z</time></trkpt><trkpt lat="38.317079" lon="21.7750516"><ele>0.0</ele><time>2026-04-29T07:02:40.998Z</time></trkpt><trkpt lat="38.3169017" lon="21.7751546"><ele>0.0</ele><time>2026-04-29T07:02:41.998Z</time></trkpt><trkpt lat="38.3167236" lon="21.7752564"><ele>0.0</ele><time>2026-04-29T07:02:42.998Z</time></trkpt><trkpt lat="38.3165419" lon="21.7753585"><ele>0.0</ele><time>2026-04-29T07:02:43.998Z</time></trkpt><trkpt lat="38.3163623" lon="21.775452"><ele>0.0</ele><time>2026-04-29T07:02:44.998Z</time></trkpt><trkpt lat="38.3161646" lon="21.7755573"><ele>0.0</ele><time>2026-04-29T07:02:45.997Z</time></trkpt><trkpt lat="38.315982" lon="21.7756513"><ele>0.0</ele><time>2026-04-29T07:02:46.997Z</time></trkpt><trkpt lat="38.3157641" lon="21.7757417"><ele>0.0</ele><time>2026-04-29T07:02:47.998Z</time></trkpt><trkpt lat="38.3155725" lon="21.7758445"><ele>0.0</ele><time>2026-04-29T07:02:48.997Z</time></trkpt><trkpt lat="38.3153823" lon="21.7759464"><ele>0.0</ele><time>2026-04-29T07:02:49.998Z</time></trkpt><trkpt lat="38.3151865" lon="21.7760452"><ele>0.0</ele><time>2026-04-29T07:02:50.997Z</time></trkpt><trkpt lat="38.3149966" lon="21.7761477"><ele>0.0</ele><time>2026-04-29T07:02:51.998Z</time></trkpt><trkpt lat="38.3147983" lon="21.7762478"><ele>0.0</ele><time>2026-04-29T07:02:52.997Z</time></trkpt><trkpt lat="38.3146058" lon="21.7763509"><ele>0.0</ele><time>2026-04-29T07:02:53.998Z</time></trkpt><trkpt lat="38.3144186" lon="21.7764533"><ele>0.0</ele><time>2026-04-29T07:02:54.997Z</time></trkpt><trkpt lat="38.3142324" lon="21.7765538"><ele>0.0</ele><time>2026-04-29T07:02:55.997Z</time></trkpt><trkpt lat="38.3140452" lon="21.7766544"><ele>0.0</ele><time>2026-04-29T07:02:56.998Z</time></trkpt><trkpt lat="38.3138599" lon="21.7767522"><ele>0.0</ele><time>2026-04-29T07:02:57.997Z</time></trkpt><trkpt lat="38.3136761" lon="21.7768481"><ele>0.0</ele><time>2026-04-29T07:02:58.998Z</time></trkpt><trkpt lat="38.3134911" lon="21.7769508"><ele>0.0</ele><time>2026-04-29T07:02:59.997Z</time></trkpt><trkpt lat="38.3133078" lon="21.7770499"><ele>0.0</ele><time>2026-04-29T07:03:00.997Z</time></trkpt><trkpt lat="38.3131351" lon="21.7771588"><ele>0.0</ele><time>2026-04-29T07:03:01.997Z</time></trkpt><trkpt lat="38.3129552" lon="21.7772552"><ele>0.0</ele><time>2026-04-29T07:03:02.998Z</time></trkpt><trkpt lat="38.3127707" lon="21.7773544"><ele>0.0</ele><time>2026-04-29T07:03:03.998Z</time></trkpt><trkpt lat="38.3125925" lon="21.7774585"><ele>0.0</ele><time>2026-04-29T07:03:04.998Z</time></trkpt><trkpt lat="38.3124133" lon="21.7775601"><ele>0.0</ele><time>2026-04-29T07:03:05.998Z</time></trkpt><trkpt lat="38.3122373" lon="21.7776532"><ele>0.0</ele><time>2026-04-29T07:03:06.998Z</time></trkpt><trkpt lat="38.3120577" lon="21.7777504"><ele>0.0</ele><time>2026-04-29T07:03:07.997Z</time></trkpt><trkpt lat="38.3118849" lon="21.7778451"><ele>0.0</ele><time>2026-04-29T07:03:08.997Z</time></trkpt><trkpt lat="38.3117095" lon="21.7779371"><ele>0.0</ele><time>2026-04-29T07:03:09.997Z</time></trkpt><trkpt lat="38.3115349" lon="21.7780348"><ele>0.0</ele><time>2026-04-29T07:03:10.998Z</time></trkpt><trkpt lat="38.3113652" lon="21.7781317"><ele>0.0</ele><time>2026-04-29T07:03:11.997Z</time></trkpt><trkpt lat="38.3111966" lon="21.7782228"><ele>0.0</ele><time>2026-04-29T07:03:12.997Z</time></trkpt><trkpt lat="38.3110217" lon="21.7783097"><ele>0.0</ele><time>2026-04-29T07:03:13.998Z</time></trkpt><trkpt lat="38.3108492" lon="21.7784055"><ele>0.0</ele><time>2026-04-29T07:03:14.998Z</time></trkpt><trkpt lat="38.3106791" lon="21.7785002"><ele>0.0</ele><time>2026-04-29T07:03:15.997Z</time></trkpt><trkpt lat="38.3105085" lon="21.7785974"><ele>0.0</ele><time>2026-04-29T07:03:16.998Z</time></trkpt><trkpt lat="38.310338" lon="21.7786927"><ele>-0.3333333333333333</ele><time>2026-04-29T07:03:17.997Z</time></trkpt><trkpt lat="38.3101642" lon="21.7787883"><ele>-0.6666666666666666</ele><time>2026-04-29T07:03:18.997Z</time></trkpt><trkpt lat="38.3099914" lon="21.7788827"><ele>-1.0</ele><time>2026-04-29T07:03:19.998Z</time></trkpt><trkpt lat="38.3098252" lon="21.7789695"><ele>-1.3333333333333333</ele><time>2026-04-29T07:03:20.997Z</time></trkpt><trkpt lat="38.3096549" lon="21.7790626"><ele>-1.6666666666666665</ele><time>2026-04-29T07:03:21.996Z</time></trkpt><trkpt lat="38.309484" lon="21.7791518"><ele>-2.0</ele><time>2026-04-29T07:03:22.998Z</time></trkpt><trkpt lat="38.3093195" lon="21.7792393"><ele>-2.0</ele><time>2026-04-29T07:03:23.997Z</time></trkpt><trkpt lat="38.3091474" lon="21.7793325"><ele>-2.0</ele><time>2026-04-29T07:03:24.998Z</time></trkpt><trkpt lat="38.3089903" lon="21.7794162"><ele>-2.0</ele><time>2026-04-29T07:03:25.997Z</time></trkpt><trkpt lat="38.3088335" lon="21.7794919"><ele>-0.6666666666666666</ele><time>2026-04-29T07:03:26.997Z</time></trkpt><trkpt lat="38.3086916" lon="21.7795711"><ele>0.6666666666666666</ele><time>2026-04-29T07:03:27.997Z</time></trkpt><trkpt lat="38.3085532" lon="21.7796491"><ele>2.0</ele><time>2026-04-29T07:03:28.997Z</time></trkpt><trkpt lat="38.3084194" lon="21.7797199"><ele>2.0</ele><time>2026-04-29T07:03:29.998Z</time></trkpt><trkpt lat="38.3082888" lon="21.779792"><ele>2.0</ele><time>2026-04-29T07:03:30.998Z</time></trkpt><trkpt lat="38.3081673" lon="21.7798616"><ele>2.0</ele><time>2026-04-29T07:03:31.998Z</time></trkpt><trkpt lat="38.3080463" lon="21.7799314"><ele>2.0</ele><time>2026-04-29T07:03:32.998Z</time></trkpt><trkpt lat="38.3079315" lon="21.7800041"><ele>2.0</ele><time>2026-04-29T07:03:33.998Z</time></trkpt><trkpt lat="38.3078204" lon="21.7800815"><ele>2.0</ele><time>2026-04-29T07:03:34.998Z</time></trkpt><trkpt lat="38.3077058" lon="21.7801549"><ele>2.0</ele><time>2026-04-29T07:03:35.997Z</time></trkpt><trkpt lat="38.3075939" lon="21.7802381"><ele>2.0</ele><time>2026-04-29T07:03:36.998Z</time></trkpt><trkpt lat="38.3074801" lon="21.7803306"><ele>2.0</ele><time>2026-04-29T07:03:37.998Z</time></trkpt><trkpt lat="38.307369" lon="21.7804141"><ele>2.0</ele><time>2026-04-29T07:03:38.998Z</time></trkpt><trkpt lat="38.3072568" lon="21.7805015"><ele>2.0</ele><time>2026-04-29T07:03:39.997Z</time></trkpt><trkpt lat="38.3071495" lon="21.7805843"><ele>2.0</ele><time>2026-04-29T07:03:40.998Z</time></trkpt><trkpt lat="38.3070409" lon="21.7806607"><ele>1.75</ele><time>2026-04-29T07:03:41.998Z</time></trkpt><trkpt lat="38.3069361" lon="21.7807456"><ele>1.5</ele><time>2026-04-29T07:03:42.997Z</time></trkpt><trkpt lat="38.3068267" lon="21.7808031"><ele>1.25</ele><time>2026-04-29T07:03:43.997Z</time></trkpt><trkpt lat="38.3067256" lon="21.780849"><ele>1.0</ele><time>2026-04-29T07:03:44.997Z</time></trkpt><trkpt lat="38.3066242" lon="21.7808941"><ele>1.0</ele><time>2026-04-29T07:03:45.997Z</time></trkpt><trkpt lat="38.3065264" lon="21.7809425"><ele>1.0</ele><time>2026-04-29T07:03:46.998Z</time></trkpt><trkpt lat="38.3064379" lon="21.7810011"><ele>1.0</ele><time>2026-04-29T07:03:47.998Z</time></trkpt><trkpt lat="38.3063479" lon="21.7810644"><ele>1.0</ele><time>2026-04-29T07:03:48.997Z</time></trkpt><trkpt lat="38.3062583" lon="21.781128"><ele>1.0</ele><time>2026-04-29T07:03:49.998Z</time></trkpt><trkpt lat="38.3061731" lon="21.7811927"><ele>1.1666666666666665</ele><time>2026-04-29T07:03:50.998Z</time></trkpt><trkpt lat="38.3060885" lon="21.7812583"><ele>1.3333333333333333</ele><time>2026-04-29T07:03:51.997Z</time></trkpt><trkpt lat="38.3060071" lon="21.7813171"><ele>1.5</ele><time>2026-04-29T07:03:52.997Z</time></trkpt><trkpt lat="38.3059362" lon="21.7813699"><ele>1.6666666666666665</ele><time>2026-04-29T07:03:53.998Z</time></trkpt><trkpt lat="38.3058644" lon="21.7814244"><ele>1.8333333333333333</ele><time>2026-04-29T07:03:54.998Z</time></trkpt><trkpt lat="38.3057946" lon="21.7814768"><ele>2.0</ele><time>2026-04-29T07:03:55.997Z</time></trkpt><trkpt lat="38.3057391" lon="21.7815332"><ele>1.9999999999999998</ele><time>2026-04-29T07:03:56.998Z</time></trkpt><trkpt lat="38.3057024" lon="21.7816136"><ele>2.0</ele><time>2026-04-29T07:03:57.998Z</time></trkpt><trkpt lat="38.305665" lon="21.7816886"><ele>2.0</ele><time>2026-04-29T07:03:58.998Z</time></trkpt><trkpt lat="38.305646" lon="21.7817981"><ele>2.0</ele><time>2026-04-29T07:04:00.998Z</time></trkpt><trkpt lat="38.305595" lon="21.7819097"><ele>1.9999999999999998</ele><time>2026-04-29T07:04:03.997Z</time></trkpt><trkpt lat="38.3055016" lon="21.7819781"><ele>2.0</ele><time>2026-04-29T07:04:05.997Z</time></trkpt><trkpt lat="38.3054312" lon="21.7819832"><ele>2.833333333333333</ele><time>2026-04-29T07:04:06.998Z</time></trkpt><trkpt lat="38.3053655" lon="21.7820152"><ele>3.666666666666667</ele><time>2026-04-29T07:04:07.998Z</time></trkpt><trkpt lat="38.3053035" lon="21.7820454"><ele>4.5</ele><time>2026-04-29T07:04:08.998Z</time></trkpt><trkpt lat="38.3052296" lon="21.782077"><ele>5.333333333333334</ele><time>2026-04-29T07:04:09.998Z</time></trkpt><trkpt lat="38.3051533" lon="21.782115"><ele>6.166666666666667</ele><time>2026-04-29T07:04:10.998Z</time></trkpt><trkpt lat="38.3050712" lon="21.7821549"><ele>7.0</ele><time>2026-04-29T07:04:11.998Z</time></trkpt><trkpt lat="38.3049929" lon="21.7821898"><ele>7.000000000000001</ele><time>2026-04-29T07:04:12.997Z</time></trkpt><trkpt lat="38.3049137" lon="21.7822232"><ele>7.0</ele><time>2026-04-29T07:04:13.998Z</time></trkpt><trkpt lat="38.3048312" lon="21.7822579"><ele>7.0</ele><time>2026-04-29T07:04:14.997Z</time></trkpt><trkpt lat="38.3047551" lon="21.7822829"><ele>7.0</ele><time>2026-04-29T07:04:15.997Z</time></trkpt><trkpt lat="38.3046877" lon="21.7822998"><ele>7.000000000000001</ele><time>2026-04-29T07:04:16.997Z</time></trkpt><trkpt lat="38.3046265" lon="21.782323"><ele>7.0</ele><time>2026-04-29T07:04:17.998Z</time></trkpt><trkpt lat="38.3045555" lon="21.7823669"><ele>7.500000000000001</ele><time>2026-04-29T07:04:19.997Z</time></trkpt><trkpt lat="38.3045467" lon="21.7824597"><ele>8.0</ele><time>2026-04-29T07:04:22.998Z</time></trkpt><trkpt lat="38.304578" lon="21.7825468"><ele>8.5</ele><time>2026-04-29T07:04:24.998Z</time></trkpt><trkpt lat="38.3045915" lon="21.7826575"><ele>9.0</ele><time>2026-04-29T07:04:26.998Z</time></trkpt><trkpt lat="38.3046126" lon="21.7827751"><ele>9.5</ele><time>2026-04-29T07:04:28.997Z</time></trkpt><trkpt lat="38.30463" lon="21.7828738"><ele>10.0</ele><time>2026-04-29T07:04:30.998Z</time></trkpt><trkpt lat="38.3046518" lon="21.7829801"><ele>10.0</ele><time>2026-04-29T07:04:40.998Z</time></trkpt><trkpt lat="38.3046649" lon="21.7830704"><ele>10.0</ele><time>2026-04-29T07:04:43.998Z</time></trkpt><trkpt lat="38.3047232" lon="21.783172"><ele>10.0</ele><time>2026-04-29T07:06:06.997Z</time></trkpt><trkpt lat="38.3047669" lon="21.783337"><ele>10.0</ele><time>2026-04-29T07:06:08.998Z</time></trkpt><trkpt lat="38.3047809" lon="21.7834963"><ele>10.0</ele><time>2026-04-29T07:06:10.998Z</time></trkpt><trkpt lat="38.3047933" lon="21.7835894"><ele>9.5</ele><time>2026-04-29T07:06:11.997Z</time></trkpt><trkpt lat="38.3048014" lon="21.7836857"><ele>9.0</ele><time>2026-04-29T07:06:12.998Z</time></trkpt><trkpt lat="38.3048049" lon="21.7837824"><ele>8.5</ele><time>2026-04-29T07:06:13.998Z</time></trkpt><trkpt lat="38.3048175" lon="21.7838832"><ele>8.0</ele><time>2026-04-29T07:06:14.997Z</time></trkpt><trkpt lat="38.304835" lon="21.7839926"><ele>7.500000000000001</ele><time>2026-04-29T07:06:15.998Z</time></trkpt><trkpt lat="38.3048484" lon="21.7841047"><ele>7.0</ele><time>2026-04-29T07:06:16.997Z</time></trkpt><trkpt lat="38.3048475" lon="21.7842143"><ele>7.0</ele><time>2026-04-29T07:06:17.997Z</time></trkpt><trkpt lat="38.3048501" lon="21.7843292"><ele>6.999999999999999</ele><time>2026-04-29T07:06:18.997Z</time></trkpt><trkpt lat="38.3048612" lon="21.7844573"><ele>6.999999999999999</ele><time>2026-04-29T07:06:19.998Z</time></trkpt><trkpt lat="38.3048826" lon="21.7846006"><ele>7.0</ele><time>2026-04-29T07:06:20.997Z</time></trkpt><trkpt lat="38.3048942" lon="21.7847325"><ele>7.0</ele><time>2026-04-29T07:06:21.997Z</time></trkpt><trkpt lat="38.3049055" lon="21.7848691"><ele>7.0</ele><time>2026-04-29T07:06:22.998Z</time></trkpt><trkpt lat="38.3049178" lon="21.7850269"><ele>7.0</ele><time>2026-04-29T07:06:23.997Z</time></trkpt><trkpt lat="38.3049353" lon="21.785176"><ele>7.0</ele><time>2026-04-29T07:06:24.998Z</time></trkpt><trkpt lat="38.3049644" lon="21.785343"><ele>7.0</ele><time>2026-04-29T07:06:25.998Z</time></trkpt><trkpt lat="38.3049839" lon="21.7854858"><ele>7.0</ele><time>2026-04-29T07:06:26.997Z</time></trkpt><trkpt lat="38.305004" lon="21.7856325"><ele>7.0</ele><time>2026-04-29T07:06:27.998Z</time></trkpt><trkpt lat="38.3050262" lon="21.7857804"><ele>7.0</ele><time>2026-04-29T07:06:28.998Z</time></trkpt><trkpt lat="38.3050488" lon="21.7859254"><ele>7.0</ele><time>2026-04-29T07:06:29.997Z</time></trkpt><trkpt lat="38.3050747" lon="21.7860717"><ele>7.25</ele><time>2026-04-29T07:06:30.997Z</time></trkpt><trkpt lat="38.3050989" lon="21.7862151"><ele>7.5</ele><time>2026-04-29T07:06:31.997Z</time></trkpt><trkpt lat="38.3051207" lon="21.7863589"><ele>7.75</ele><time>2026-04-29T07:06:32.998Z</time></trkpt><trkpt lat="38.305139" lon="21.7865484"><ele>8.0</ele><time>2026-04-29T07:06:34.997Z</time></trkpt><trkpt lat="38.3051502" lon="21.7866663"><ele>8.0</ele><time>2026-04-29T07:06:35.998Z</time></trkpt><trkpt lat="38.3051714" lon="21.7867797"><ele>8.0</ele><time>2026-04-29T07:06:36.998Z</time></trkpt><trkpt lat="38.3052065" lon="21.786893"><ele>8.0</ele><time>2026-04-29T07:06:37.998Z</time></trkpt><trkpt lat="38.3052304" lon="21.7869995"><ele>8.0</ele><time>2026-04-29T07:06:38.998Z</time></trkpt><trkpt lat="38.3052612" lon="21.7871031"><ele>8.0</ele><time>2026-04-29T07:06:39.997Z</time></trkpt><trkpt lat="38.3052918" lon="21.7872155"><ele>8.200000000000001</ele><time>2026-04-29T07:06:40.998Z</time></trkpt><trkpt lat="38.3053195" lon="21.7873329"><ele>8.4</ele><time>2026-04-29T07:06:41.997Z</time></trkpt><trkpt lat="38.3053472" lon="21.7874457"><ele>8.600000000000001</ele><time>2026-04-29T07:06:42.997Z</time></trkpt><trkpt lat="38.3053776" lon="21.7875522"><ele>8.8</ele><time>2026-04-29T07:06:43.997Z</time></trkpt><trkpt lat="38.3054031" lon="21.7876759"><ele>9.0</ele><time>2026-04-29T07:06:44.997Z</time></trkpt><trkpt lat="38.3054254" lon="21.7877757"><ele>9.0</ele><time>2026-04-29T07:06:45.997Z</time></trkpt><trkpt lat="38.3054475" lon="21.7878773"><ele>9.0</ele><time>2026-04-29T07:06:46.997Z</time></trkpt><trkpt lat="38.3054682" lon="21.7879839"><ele>9.0</ele><time>2026-04-29T07:06:47.997Z</time></trkpt><trkpt lat="38.3054927" lon="21.7880862"><ele>9.0</ele><time>2026-04-29T07:06:48.998Z</time></trkpt><trkpt lat="38.3055214" lon="21.788192"><ele>9.0</ele><time>2026-04-29T07:06:49.997Z</time></trkpt><trkpt lat="38.3055512" lon="21.7883028"><ele>9.0</ele><time>2026-04-29T07:06:50.997Z</time></trkpt><trkpt lat="38.3055884" lon="21.7884133"><ele>8.6</ele><time>2026-04-29T07:06:51.998Z</time></trkpt><trkpt lat="38.3056245" lon="21.7885311"><ele>8.2</ele><time>2026-04-29T07:06:52.997Z</time></trkpt><trkpt lat="38.3056603" lon="21.7886448"><ele>7.799999999999999</ele><time>2026-04-29T07:06:53.998Z</time></trkpt><trkpt lat="38.3056991" lon="21.7887699"><ele>7.3999999999999995</ele><time>2026-04-29T07:06:54.996Z</time></trkpt><trkpt lat="38.3057285" lon="21.7888783"><ele>7.0</ele><time>2026-04-29T07:06:55.998Z</time></trkpt><trkpt lat="38.305753" lon="21.7889795"><ele>7.000000000000001</ele><time>2026-04-29T07:06:56.997Z</time></trkpt><trkpt lat="38.3057771" lon="21.7890625"><ele>7.0</ele><time>2026-04-29T07:06:57.998Z</time></trkpt><trkpt lat="38.3058135" lon="21.789173"><ele>7.0</ele><time>2026-04-29T07:06:59.998Z</time></trkpt><trkpt lat="38.3058385" lon="21.7892491"><ele>7.0</ele><time>2026-04-29T07:07:01.998Z</time></trkpt><trkpt lat="38.3058261" lon="21.7893449"><ele>7.000000000000001</ele><time>2026-04-29T07:07:03.997Z</time></trkpt><trkpt lat="38.3057197" lon="21.7894616"><ele>7.0</ele><time>2026-04-29T07:07:05.996Z</time></trkpt><trkpt lat="38.3056498" lon="21.7895311"><ele>7.199999999999999</ele><time>2026-04-29T07:07:06.998Z</time></trkpt><trkpt lat="38.3055816" lon="21.7896"><ele>7.3999999999999995</ele><time>2026-04-29T07:07:07.998Z</time></trkpt><trkpt lat="38.305507" lon="21.7896905"><ele>7.6000000000000005</ele><time>2026-04-29T07:07:08.997Z</time></trkpt><trkpt lat="38.3054204" lon="21.78977"><ele>7.800000000000001</ele><time>2026-04-29T07:07:09.998Z</time></trkpt><trkpt lat="38.3053375" lon="21.7898652"><ele>8.0</ele><time>2026-04-29T07:07:10.998Z</time></trkpt><trkpt lat="38.3052478" lon="21.7899684"><ele>8.25</ele><time>2026-04-29T07:07:11.998Z</time></trkpt><trkpt lat="38.30515" lon="21.7900689"><ele>8.5</ele><time>2026-04-29T07:07:12.997Z</time></trkpt><trkpt lat="38.3050513" lon="21.7901777"><ele>8.75</ele><time>2026-04-29T07:07:13.997Z</time></trkpt><trkpt lat="38.3049499" lon="21.7902865"><ele>9.0</ele><time>2026-04-29T07:07:14.998Z</time></trkpt><trkpt lat="38.3048391" lon="21.7904127"><ele>10.0</ele><time>2026-04-29T07:07:15.998Z</time></trkpt><trkpt lat="38.3047238" lon="21.7905333"><ele>11.0</ele><time>2026-04-29T07:07:16.998Z</time></trkpt><trkpt lat="38.30461" lon="21.7906507"><ele>12.0</ele><time>2026-04-29T07:07:17.998Z</time></trkpt><trkpt lat="38.3044908" lon="21.7907783"><ele>12.0</ele><time>2026-04-29T07:07:18.998Z</time></trkpt><trkpt lat="38.3043708" lon="21.7909031"><ele>12.0</ele><time>2026-04-29T07:07:19.997Z</time></trkpt><trkpt lat="38.3042519" lon="21.7910331"><ele>12.0</ele><time>2026-04-29T07:07:20.998Z</time></trkpt><trkpt lat="38.3041257" lon="21.791163"><ele>12.0</ele><time>2026-04-29T07:07:21.998Z</time></trkpt><trkpt lat="38.3040058" lon="21.7913111"><ele>12.0</ele><time>2026-04-29T07:07:22.997Z</time></trkpt><trkpt lat="38.3038754" lon="21.7914452"><ele>12.0</ele><time>2026-04-29T07:07:23.997Z</time></trkpt><trkpt lat="38.3037382" lon="21.7915888"><ele>14.333333333333332</ele><time>2026-04-29T07:07:24.997Z</time></trkpt><trkpt lat="38.3036074" lon="21.7917347"><ele>16.666666666666664</ele><time>2026-04-29T07:07:25.998Z</time></trkpt><trkpt lat="38.3034764" lon="21.7918817"><ele>19.0</ele><time>2026-04-29T07:07:26.997Z</time></trkpt><trkpt lat="38.3033425" lon="21.792016"><ele>19.0</ele><time>2026-04-29T07:07:27.998Z</time></trkpt><trkpt lat="38.3032153" lon="21.7921572"><ele>19.0</ele><time>2026-04-29T07:07:28.998Z</time></trkpt><trkpt lat="38.3030798" lon="21.7923063"><ele>19.0</ele><time>2026-04-29T07:07:29.997Z</time></trkpt><trkpt lat="38.3029454" lon="21.7924345"><ele>20.666666666666664</ele><time>2026-04-29T07:07:30.998Z</time></trkpt><trkpt lat="38.302814" lon="21.7925936"><ele>22.333333333333332</ele><time>2026-04-29T07:07:31.997Z</time></trkpt><trkpt lat="38.3026804" lon="21.7927336"><ele>24.0</ele><time>2026-04-29T07:07:32.997Z</time></trkpt><trkpt lat="38.3025496" lon="21.7928782"><ele>24.333333333333336</ele><time>2026-04-29T07:07:33.997Z</time></trkpt><trkpt lat="38.3024152" lon="21.7930229"><ele>24.666666666666668</ele><time>2026-04-29T07:07:34.997Z</time></trkpt><trkpt lat="38.3022872" lon="21.793146"><ele>25.0</ele><time>2026-04-29T07:07:35.998Z</time></trkpt><trkpt lat="38.302159" lon="21.7932915"><ele>26.0</ele><time>2026-04-29T07:07:36.998Z</time></trkpt><trkpt lat="38.3020318" lon="21.7934271"><ele>27.0</ele><time>2026-04-29T07:07:37.997Z</time></trkpt><trkpt lat="38.3019074" lon="21.7935505"><ele>28.0</ele><time>2026-04-29T07:07:38.998Z</time></trkpt><trkpt lat="38.3017834" lon="21.7936754"><ele>28.25</ele><time>2026-04-29T07:07:39.997Z</time></trkpt><trkpt lat="38.3016539" lon="21.7937428"><ele>28.5</ele><time>2026-04-29T07:07:40.997Z</time></trkpt><trkpt lat="38.301539" lon="21.7938615"><ele>28.75</ele><time>2026-04-29T07:07:41.998Z</time></trkpt><trkpt lat="38.3014229" lon="21.7939772"><ele>29.0</ele><time>2026-04-29T07:07:42.998Z</time></trkpt><trkpt lat="38.3013105" lon="21.7940989"><ele>29.25</ele><time>2026-04-29T07:07:43.997Z</time></trkpt><trkpt lat="38.3012002" lon="21.7942147"><ele>29.5</ele><time>2026-04-29T07:07:44.997Z</time></trkpt><trkpt lat="38.301081" lon="21.7943373"><ele>29.75</ele><time>2026-04-29T07:07:45.998Z</time></trkpt><trkpt lat="38.3009633" lon="21.7944548"><ele>30.0</ele><time>2026-04-29T07:07:46.998Z</time></trkpt><trkpt lat="38.3008508" lon="21.7945628"><ele>30.0</ele><time>2026-04-29T07:07:47.998Z</time></trkpt><trkpt lat="38.3007436" lon="21.7946656"><ele>30.0</ele><time>2026-04-29T07:07:48.998Z</time></trkpt><trkpt lat="38.3006464" lon="21.7947706"><ele>30.0</ele><time>2026-04-29T07:07:49.997Z</time></trkpt><trkpt lat="38.3005528" lon="21.7948686"><ele>30.0</ele><time>2026-04-29T07:07:50.997Z</time></trkpt><trkpt lat="38.3004525" lon="21.7949809"><ele>31.25</ele><time>2026-04-29T07:07:51.998Z</time></trkpt><trkpt lat="38.3003521" lon="21.7950245"><ele>32.5</ele><time>2026-04-29T07:07:52.998Z</time></trkpt><trkpt lat="38.300251" lon="21.7951665"><ele>33.75</ele><time>2026-04-29T07:07:53.997Z</time></trkpt><trkpt lat="38.3001532" lon="21.7952862"><ele>35.0</ele><time>2026-04-29T07:07:54.997Z</time></trkpt><trkpt lat="38.300053" lon="21.7953971"><ele>35.0</ele><time>2026-04-29T07:07:55.997Z</time></trkpt><trkpt lat="38.299954" lon="21.7955083"><ele>35.0</ele><time>2026-04-29T07:07:56.997Z</time></trkpt><trkpt lat="38.2998556" lon="21.7956197"><ele>35.0</ele><time>2026-04-29T07:07:57.998Z</time></trkpt><trkpt lat="38.2997285" lon="21.7957157"><ele>35.0</ele><time>2026-04-29T07:07:58.997Z</time></trkpt><trkpt lat="38.2996069" lon="21.795811"><ele>35.75</ele><time>2026-04-29T07:07:59.997Z</time></trkpt><trkpt lat="38.2994975" lon="21.7959138"><ele>36.5</ele><time>2026-04-29T07:08:00.998Z</time></trkpt><trkpt lat="38.2993877" lon="21.7960073"><ele>37.25</ele><time>2026-04-29T07:08:01.997Z</time></trkpt><trkpt lat="38.2992667" lon="21.7960733"><ele>38.0</ele><time>2026-04-29T07:08:02.998Z</time></trkpt><trkpt lat="38.2991604" lon="21.7961392"><ele>38.0</ele><time>2026-04-29T07:08:03.998Z</time></trkpt><trkpt lat="38.2990593" lon="21.7962027"><ele>38.0</ele><time>2026-04-29T07:08:04.998Z</time></trkpt><trkpt lat="38.29898" lon="21.7962551"><ele>38.0</ele><time>2026-04-29T07:08:05.998Z</time></trkpt><trkpt lat="38.2989152" lon="21.7962984"><ele>38.0</ele><time>2026-04-29T07:08:06.998Z</time></trkpt><trkpt lat="38.29886" lon="21.7963377"><ele>38.0</ele><time>2026-04-29T07:08:07.998Z</time></trkpt><trkpt lat="38.298791" lon="21.7963835"><ele>38.0</ele><time>2026-04-29T07:08:09.997Z</time></trkpt><trkpt lat="38.2986987" lon="21.7964152"><ele>38.83333333333333</ele><time>2026-04-29T07:08:12.998Z</time></trkpt><trkpt lat="38.2986247" lon="21.7964423"><ele>39.666666666666664</ele><time>2026-04-29T07:08:14.997Z</time></trkpt><trkpt lat="38.2985382" lon="21.7964302"><ele>40.5</ele><time>2026-04-29T07:08:16.998Z</time></trkpt><trkpt lat="38.2984385" lon="21.7964362"><ele>41.333333333333336</ele><time>2026-04-29T07:08:18.997Z</time></trkpt><trkpt lat="38.2983569" lon="21.796462"><ele>42.16666666666667</ele><time>2026-04-29T07:08:19.998Z</time></trkpt><trkpt lat="38.2983019" lon="21.7965147"><ele>43.0</ele><time>2026-04-29T07:08:20.997Z</time></trkpt><trkpt lat="38.2982637" lon="21.7965892"><ele>43.0</ele><time>2026-04-29T07:08:21.998Z</time></trkpt><trkpt lat="38.2982457" lon="21.7966786"><ele>43.0</ele><time>2026-04-29T07:08:22.997Z</time></trkpt><trkpt lat="38.2982575" lon="21.7967768"><ele>43.0</ele><time>2026-04-29T07:08:23.997Z</time></trkpt><trkpt lat="38.2982989" lon="21.7968534"><ele>43.0</ele><time>2026-04-29T07:08:24.998Z</time></trkpt><trkpt lat="38.2983623" lon="21.7969089"><ele>43.0</ele><time>2026-04-29T07:08:25.998Z</time></trkpt><trkpt lat="38.2984487" lon="21.7969428"><ele>43.0</ele><time>2026-04-29T07:08:26.997Z</time></trkpt><trkpt lat="38.2985478" lon="21.7969743"><ele>43.25</ele><time>2026-04-29T07:08:27.998Z</time></trkpt><trkpt lat="38.2986592" lon="21.7970257"><ele>43.5</ele><time>2026-04-29T07:08:28.998Z</time></trkpt><trkpt lat="38.298777" lon="21.7971099"><ele>43.75</ele><time>2026-04-29T07:08:29.998Z</time></trkpt><trkpt lat="38.2988971" lon="21.7971981"><ele>44.0</ele><time>2026-04-29T07:08:30.998Z</time></trkpt><trkpt lat="38.2990228" lon="21.7972885"><ele>42.0</ele><time>2026-04-29T07:08:31.998Z</time></trkpt><trkpt lat="38.2991504" lon="21.7973793"><ele>40.0</ele><time>2026-04-29T07:08:32.997Z</time></trkpt><trkpt lat="38.2992888" lon="21.7974639"><ele>38.0</ele><time>2026-04-29T07:08:33.998Z</time></trkpt><trkpt lat="38.2994335" lon="21.7975336"><ele>38.0</ele><time>2026-04-29T07:08:34.998Z</time></trkpt><trkpt lat="38.2995819" lon="21.7975807"><ele>38.0</ele><time>2026-04-29T07:08:35.998Z</time></trkpt><trkpt lat="38.2997328" lon="21.7976076"><ele>38.0</ele><time>2026-04-29T07:08:36.998Z</time></trkpt><trkpt lat="38.2998776" lon="21.7976047"><ele>37.0</ele><time>2026-04-29T07:08:37.998Z</time></trkpt><trkpt lat="38.300023" lon="21.7975764"><ele>36.0</ele><time>2026-04-29T07:08:38.997Z</time></trkpt><trkpt lat="38.3001582" lon="21.7975305"><ele>35.0</ele><time>2026-04-29T07:08:39.998Z</time></trkpt><trkpt lat="38.300278" lon="21.7974545"><ele>34.0</ele><time>2026-04-29T07:08:40.998Z</time></trkpt><trkpt lat="38.3003898" lon="21.7973651"><ele>34.0</ele><time>2026-04-29T07:08:41.998Z</time></trkpt><trkpt lat="38.3004904" lon="21.7972824"><ele>34.0</ele><time>2026-04-29T07:08:42.998Z</time></trkpt><trkpt lat="38.3005899" lon="21.7971929"><ele>34.0</ele><time>2026-04-29T07:08:43.997Z</time></trkpt><trkpt lat="38.3006834" lon="21.7971085"><ele>34.0</ele><time>2026-04-29T07:08:44.997Z</time></trkpt><trkpt lat="38.3007759" lon="21.7970228"><ele>33.66666666666667</ele><time>2026-04-29T07:08:45.997Z</time></trkpt><trkpt lat="38.3010572" lon="21.7968638"><ele>33.333333333333336</ele><time>2026-04-29T07:08:49.998Z</time></trkpt><trkpt lat="38.3011712" lon="21.7969096"><ele>33.0</ele><time>2026-04-29T07:08:50.998Z</time></trkpt><trkpt lat="38.3012464" lon="21.7969708"><ele>33.0</ele><time>2026-04-29T07:08:51.998Z</time></trkpt><trkpt lat="38.3013067" lon="21.7970734"><ele>33.0</ele><time>2026-04-29T07:08:52.997Z</time></trkpt><trkpt lat="38.3013553" lon="21.797198"><ele>33.0</ele><time>2026-04-29T07:08:53.996Z</time></trkpt><trkpt lat="38.3014104" lon="21.7973596"><ele>33.0</ele><time>2026-04-29T07:08:54.998Z</time></trkpt><trkpt lat="38.3014678" lon="21.7975333"><ele>33.0</ele><time>2026-04-29T07:08:55.997Z</time></trkpt><trkpt lat="38.3015263" lon="21.7977054"><ele>33.0</ele><time>2026-04-29T07:08:56.997Z</time></trkpt><trkpt lat="38.3015844" lon="21.7978756"><ele>33.0</ele><time>2026-04-29T07:08:57.997Z</time></trkpt><trkpt lat="38.3016459" lon="21.7980459"><ele>33.0</ele><time>2026-04-29T07:08:58.998Z</time></trkpt><trkpt lat="38.3017132" lon="21.7982211"><ele>33.0</ele><time>2026-04-29T07:08:59.998Z</time></trkpt><trkpt lat="38.3017886" lon="21.7983938"><ele>33.0</ele><time>2026-04-29T07:09:00.998Z</time></trkpt><trkpt lat="38.3018692" lon="21.7985699"><ele>33.0</ele><time>2026-04-29T07:09:01.998Z</time></trkpt><trkpt lat="38.3019632" lon="21.7987459"><ele>32.666666666666664</ele><time>2026-04-29T07:09:02.998Z</time></trkpt><trkpt lat="38.302064" lon="21.7989164"><ele>32.33333333333333</ele><time>2026-04-29T07:09:03.997Z</time></trkpt><trkpt lat="38.3021716" lon="21.7990844"><ele>32.0</ele><time>2026-04-29T07:09:04.998Z</time></trkpt><trkpt lat="38.3022949" lon="21.7992384"><ele>32.33333333333333</ele><time>2026-04-29T07:09:05.998Z</time></trkpt><trkpt lat="38.3024267" lon="21.7993845"><ele>32.666666666666664</ele><time>2026-04-29T07:09:06.998Z</time></trkpt><trkpt lat="38.3025665" lon="21.7995144"><ele>33.0</ele><time>2026-04-29T07:09:07.997Z</time></trkpt><trkpt lat="38.3027094" lon="21.7996317"><ele>33.0</ele><time>2026-04-29T07:09:08.997Z</time></trkpt><trkpt lat="38.30285" lon="21.7997496"><ele>33.0</ele><time>2026-04-29T07:09:09.998Z</time></trkpt><trkpt lat="38.3029921" lon="21.7998607"><ele>33.0</ele><time>2026-04-29T07:09:10.998Z</time></trkpt><trkpt lat="38.3031366" lon="21.7999664"><ele>32.666666666666664</ele><time>2026-04-29T07:09:11.998Z</time></trkpt><trkpt lat="38.3032833" lon="21.8000742"><ele>32.33333333333333</ele><time>2026-04-29T07:09:12.997Z</time></trkpt><trkpt lat="38.3034289" lon="21.8001792"><ele>32.0</ele><time>2026-04-29T07:09:13.997Z</time></trkpt><trkpt lat="38.303571" lon="21.8002888"><ele>32.0</ele><time>2026-04-29T07:09:14.997Z</time></trkpt><trkpt lat="38.3037091" lon="21.8003977"><ele>32.0</ele><time>2026-04-29T07:09:15.997Z</time></trkpt><trkpt lat="38.3038434" lon="21.8005097"><ele>32.0</ele><time>2026-04-29T07:09:16.997Z</time></trkpt><trkpt lat="38.303976" lon="21.8006344"><ele>31.666666666666664</ele><time>2026-04-29T07:09:17.998Z</time></trkpt><trkpt lat="38.3040936" lon="21.8007718"><ele>31.333333333333336</ele><time>2026-04-29T07:09:18.997Z</time></trkpt><trkpt lat="38.3041997" lon="21.8009294"><ele>31.0</ele><time>2026-04-29T07:09:19.997Z</time></trkpt><trkpt lat="38.3042946" lon="21.801095"><ele>31.0</ele><time>2026-04-29T07:09:20.998Z</time></trkpt><trkpt lat="38.3043867" lon="21.8012662"><ele>31.0</ele><time>2026-04-29T07:09:21.997Z</time></trkpt><trkpt lat="38.3044766" lon="21.8014349"><ele>31.0</ele><time>2026-04-29T07:09:22.997Z</time></trkpt><trkpt lat="38.3045621" lon="21.8016023"><ele>31.0</ele><time>2026-04-29T07:09:23.998Z</time></trkpt><trkpt lat="38.3046523" lon="21.8017723"><ele>31.0</ele><time>2026-04-29T07:09:24.997Z</time></trkpt><trkpt lat="38.3047415" lon="21.8019376"><ele>31.0</ele><time>2026-04-29T07:09:25.998Z</time></trkpt><trkpt lat="38.3048349" lon="21.8020998"><ele>31.333333333333336</ele><time>2026-04-29T07:09:26.998Z</time></trkpt><trkpt lat="38.3049182" lon="21.8022641"><ele>31.666666666666664</ele><time>2026-04-29T07:09:27.998Z</time></trkpt><trkpt lat="38.3049971" lon="21.8024314"><ele>32.0</ele><time>2026-04-29T07:09:28.997Z</time></trkpt><trkpt lat="38.305087" lon="21.8026153"><ele>32.25</ele><time>2026-04-29T07:09:29.998Z</time></trkpt><trkpt lat="38.3051682" lon="21.8027799"><ele>32.5</ele><time>2026-04-29T07:09:30.997Z</time></trkpt><trkpt lat="38.3052432" lon="21.8029507"><ele>32.75</ele><time>2026-04-29T07:09:31.998Z</time></trkpt><trkpt lat="38.3053" lon="21.8031071"><ele>33.0</ele><time>2026-04-29T07:09:32.998Z</time></trkpt><trkpt lat="38.3053688" lon="21.8032954"><ele>33.0</ele><time>2026-04-29T07:09:33.998Z</time></trkpt><trkpt lat="38.3054309" lon="21.8034857"><ele>33.0</ele><time>2026-04-29T07:09:34.997Z</time></trkpt><trkpt lat="38.3054966" lon="21.8036769"><ele>33.0</ele><time>2026-04-29T07:09:35.998Z</time></trkpt><trkpt lat="38.3055648" lon="21.8038655"><ele>33.0</ele><time>2026-04-29T07:09:36.997Z</time></trkpt><trkpt lat="38.3056348" lon="21.8040587"><ele>33.0</ele><time>2026-04-29T07:09:37.998Z</time></trkpt><trkpt lat="38.3057011" lon="21.8042511"><ele>33.0</ele><time>2026-04-29T07:09:38.997Z</time></trkpt><trkpt lat="38.3057667" lon="21.8044411"><ele>34.666666666666664</ele><time>2026-04-29T07:09:39.997Z</time></trkpt><trkpt lat="38.3058284" lon="21.8046299"><ele>36.33333333333333</ele><time>2026-04-29T07:09:40.998Z</time></trkpt><trkpt lat="38.3058919" lon="21.8048182"><ele>38.0</ele><time>2026-04-29T07:09:41.997Z</time></trkpt><trkpt lat="38.3059533" lon="21.8049996"><ele>38.75</ele><time>2026-04-29T07:09:42.997Z</time></trkpt><trkpt lat="38.306006" lon="21.8051749"><ele>39.5</ele><time>2026-04-29T07:09:43.998Z</time></trkpt><trkpt lat="38.3060558" lon="21.8053502"><ele>40.25</ele><time>2026-04-29T07:09:44.998Z</time></trkpt><trkpt lat="38.30611" lon="21.8055278"><ele>41.0</ele><time>2026-04-29T07:09:45.997Z</time></trkpt><trkpt lat="38.3061652" lon="21.8057086"><ele>41.0</ele><time>2026-04-29T07:09:46.998Z</time></trkpt><trkpt lat="38.3062216" lon="21.8058961"><ele>41.0</ele><time>2026-04-29T07:09:47.998Z</time></trkpt><trkpt lat="38.3062757" lon="21.8060782"><ele>41.0</ele><time>2026-04-29T07:09:48.998Z</time></trkpt><trkpt lat="38.306333" lon="21.8062731"><ele>41.33333333333333</ele><time>2026-04-29T07:09:49.997Z</time></trkpt><trkpt lat="38.3063988" lon="21.8064737"><ele>41.666666666666664</ele><time>2026-04-29T07:09:50.998Z</time></trkpt><trkpt lat="38.3064766" lon="21.8066699"><ele>42.0</ele><time>2026-04-29T07:09:51.997Z</time></trkpt><trkpt lat="38.3065525" lon="21.8068717"><ele>42.0</ele><time>2026-04-29T07:09:52.998Z</time></trkpt><trkpt lat="38.3066474" lon="21.8070615"><ele>42.0</ele><time>2026-04-29T07:09:53.997Z</time></trkpt><trkpt lat="38.3067338" lon="21.8072592"><ele>42.0</ele><time>2026-04-29T07:09:54.998Z</time></trkpt><trkpt lat="38.3068182" lon="21.8074433"><ele>42.0</ele><time>2026-04-29T07:09:55.997Z</time></trkpt><trkpt lat="38.3069089" lon="21.8076241"><ele>42.0</ele><time>2026-04-29T07:09:56.998Z</time></trkpt><trkpt lat="38.3070004" lon="21.807802"><ele>42.0</ele><time>2026-04-29T07:09:57.998Z</time></trkpt><trkpt lat="38.3070948" lon="21.8079757"><ele>42.0</ele><time>2026-04-29T07:09:58.997Z</time></trkpt><trkpt lat="38.307187" lon="21.8081518"><ele>42.0</ele><time>2026-04-29T07:09:59.998Z</time></trkpt><trkpt lat="38.307293" lon="21.8083179"><ele>42.0</ele><time>2026-04-29T07:10:00.997Z</time></trkpt><trkpt lat="38.3073873" lon="21.8084862"><ele>42.333333333333336</ele><time>2026-04-29T07:10:01.997Z</time></trkpt><trkpt lat="38.3074884" lon="21.8086496"><ele>42.66666666666667</ele><time>2026-04-29T07:10:02.997Z</time></trkpt><trkpt lat="38.3075817" lon="21.8088115"><ele>43.0</ele><time>2026-04-29T07:10:03.997Z</time></trkpt><trkpt lat="38.3076696" lon="21.8089695"><ele>43.0</ele><time>2026-04-29T07:10:04.997Z</time></trkpt><trkpt lat="38.3077624" lon="21.8091276"><ele>43.0</ele><time>2026-04-29T07:10:05.997Z</time></trkpt><trkpt lat="38.3078511" lon="21.8092871"><ele>43.0</ele><time>2026-04-29T07:10:06.997Z</time></trkpt><trkpt lat="38.3079433" lon="21.8094436"><ele>44.0</ele><time>2026-04-29T07:10:07.997Z</time></trkpt><trkpt lat="38.3080313" lon="21.8096037"><ele>45.0</ele><time>2026-04-29T07:10:08.998Z</time></trkpt><trkpt lat="38.3081243" lon="21.8097655"><ele>46.0</ele><time>2026-04-29T07:10:09.997Z</time></trkpt><trkpt lat="38.308217" lon="21.8099287"><ele>44.333333333333336</ele><time>2026-04-29T07:10:10.998Z</time></trkpt><trkpt lat="38.3083097" lon="21.8100909"><ele>42.666666666666664</ele><time>2026-04-29T07:10:11.997Z</time></trkpt><trkpt lat="38.3084033" lon="21.8102566"><ele>41.0</ele><time>2026-04-29T07:10:12.998Z</time></trkpt><trkpt lat="38.308498" lon="21.8104182"><ele>41.0</ele><time>2026-04-29T07:10:13.997Z</time></trkpt><trkpt lat="38.30859" lon="21.8105795"><ele>41.0</ele><time>2026-04-29T07:10:14.998Z</time></trkpt><trkpt lat="38.3086806" lon="21.8107431"><ele>41.0</ele><time>2026-04-29T07:10:15.997Z</time></trkpt><trkpt lat="38.3087699" lon="21.810908"><ele>42.0</ele><time>2026-04-29T07:10:16.998Z</time></trkpt><trkpt lat="38.3088602" lon="21.8110667"><ele>43.0</ele><time>2026-04-29T07:10:17.996Z</time></trkpt><trkpt lat="38.3089492" lon="21.811228"><ele>44.0</ele><time>2026-04-29T07:10:18.997Z</time></trkpt><trkpt lat="38.3090404" lon="21.8113876"><ele>43.0</ele><time>2026-04-29T07:10:19.997Z</time></trkpt><trkpt lat="38.3091238" lon="21.81154"><ele>42.0</ele><time>2026-04-29T07:10:20.997Z</time></trkpt><trkpt lat="38.3092079" lon="21.8117032"><ele>41.0</ele><time>2026-04-29T07:10:21.998Z</time></trkpt><trkpt lat="38.3092985" lon="21.8118687"><ele>41.0</ele><time>2026-04-29T07:10:22.997Z</time></trkpt><trkpt lat="38.3093919" lon="21.8120292"><ele>41.0</ele><time>2026-04-29T07:10:23.998Z</time></trkpt><trkpt lat="38.3094812" lon="21.8121857"><ele>41.0</ele><time>2026-04-29T07:10:24.998Z</time></trkpt><trkpt lat="38.3095645" lon="21.8123452"><ele>41.0</ele><time>2026-04-29T07:10:25.997Z</time></trkpt><trkpt lat="38.3096538" lon="21.8125039"><ele>41.0</ele><time>2026-04-29T07:10:26.998Z</time></trkpt><trkpt lat="38.309736" lon="21.8126623"><ele>41.0</ele><time>2026-04-29T07:10:27.997Z</time></trkpt><trkpt lat="38.3098211" lon="21.8128263"><ele>39.33333333333333</ele><time>2026-04-29T07:10:28.997Z</time></trkpt><trkpt lat="38.3099019" lon="21.8129978"><ele>37.666666666666664</ele><time>2026-04-29T07:10:29.997Z</time></trkpt><trkpt lat="38.3099901" lon="21.8131614"><ele>36.0</ele><time>2026-04-29T07:10:30.997Z</time></trkpt><trkpt lat="38.3100746" lon="21.8133234"><ele>36.5</ele><time>2026-04-29T07:10:31.997Z</time></trkpt><trkpt lat="38.3101503" lon="21.8134977"><ele>37.0</ele><time>2026-04-29T07:10:32.997Z</time></trkpt><trkpt lat="38.3102299" lon="21.8136506"><ele>37.5</ele><time>2026-04-29T07:10:33.998Z</time></trkpt><trkpt lat="38.3103094" lon="21.8138071"><ele>38.0</ele><time>2026-04-29T07:10:34.997Z</time></trkpt><trkpt lat="38.3103908" lon="21.8139536"><ele>38.0</ele><time>2026-04-29T07:10:35.998Z</time></trkpt><trkpt lat="38.3104705" lon="21.8141013"><ele>38.0</ele><time>2026-04-29T07:10:36.997Z</time></trkpt><trkpt lat="38.3105469" lon="21.8142467"><ele>38.0</ele><time>2026-04-29T07:10:37.998Z</time></trkpt><trkpt lat="38.3106247" lon="21.8143979"><ele>38.0</ele><time>2026-04-29T07:10:38.997Z</time></trkpt><trkpt lat="38.3107042" lon="21.814542"><ele>37.25</ele><time>2026-04-29T07:10:39.997Z</time></trkpt><trkpt lat="38.310772" lon="21.8146936"><ele>36.5</ele><time>2026-04-29T07:10:40.997Z</time></trkpt><trkpt lat="38.3108415" lon="21.8148457"><ele>35.75</ele><time>2026-04-29T07:10:41.997Z</time></trkpt><trkpt lat="38.3109171" lon="21.814997"><ele>35.0</ele><time>2026-04-29T07:10:42.998Z</time></trkpt><trkpt lat="38.3109922" lon="21.8151486"><ele>35.0</ele><time>2026-04-29T07:10:43.997Z</time></trkpt><trkpt lat="38.3110753" lon="21.8152981"><ele>35.0</ele><time>2026-04-29T07:10:44.998Z</time></trkpt><trkpt lat="38.3111445" lon="21.8154381"><ele>35.0</ele><time>2026-04-29T07:10:45.998Z</time></trkpt><trkpt lat="38.3112197" lon="21.8155847"><ele>35.0</ele><time>2026-04-29T07:10:46.998Z</time></trkpt><trkpt lat="38.3112675" lon="21.8157332"><ele>35.0</ele><time>2026-04-29T07:10:47.997Z</time></trkpt><trkpt lat="38.3113403" lon="21.815878"><ele>35.0</ele><time>2026-04-29T07:10:48.998Z</time></trkpt><trkpt lat="38.3114073" lon="21.8160179"><ele>35.0</ele><time>2026-04-29T07:10:49.998Z</time></trkpt><trkpt lat="38.3114803" lon="21.816155"><ele>35.0</ele><time>2026-04-29T07:10:50.997Z</time></trkpt><trkpt lat="38.311551" lon="21.8162847"><ele>34.4</ele><time>2026-04-29T07:10:51.997Z</time></trkpt><trkpt lat="38.3116086" lon="21.8164001"><ele>33.8</ele><time>2026-04-29T07:10:52.997Z</time></trkpt><trkpt lat="38.311664" lon="21.8165032"><ele>33.2</ele><time>2026-04-29T07:10:53.997Z</time></trkpt><trkpt lat="38.3117126" lon="21.816596"><ele>32.6</ele><time>2026-04-29T07:10:54.997Z</time></trkpt><trkpt lat="38.3117586" lon="21.8166781"><ele>32.0</ele><time>2026-04-29T07:10:55.998Z</time></trkpt><trkpt lat="38.3118192" lon="21.8168072"><ele>31.999999999999996</ele><time>2026-04-29T07:10:57.997Z</time></trkpt><trkpt lat="38.3118699" lon="21.8168881"><ele>32.0</ele><time>2026-04-29T07:10:59.998Z</time></trkpt><trkpt lat="38.3119112" lon="21.8169487"><ele>32.0</ele><time>2026-04-29T07:11:01.997Z</time></trkpt><trkpt lat="38.3119561" lon="21.8170417"><ele>32.0</ele><time>2026-04-29T07:11:03.997Z</time></trkpt><trkpt lat="38.3119874" lon="21.8171278"><ele>31.999999999999996</ele><time>2026-04-29T07:11:04.997Z</time></trkpt><trkpt lat="38.3120183" lon="21.8172177"><ele>32.0</ele><time>2026-04-29T07:11:05.998Z</time></trkpt><trkpt lat="38.3120461" lon="21.8173189"><ele>32.0</ele><time>2026-04-29T07:11:06.997Z</time></trkpt><trkpt lat="38.3120688" lon="21.8174222"><ele>32.0</ele><time>2026-04-29T07:11:07.997Z</time></trkpt><trkpt lat="38.3120907" lon="21.8175661"><ele>32.0</ele><time>2026-04-29T07:11:08.998Z</time></trkpt><trkpt lat="38.3121131" lon="21.8177171"><ele>32.0</ele><time>2026-04-29T07:11:09.996Z</time></trkpt><trkpt lat="38.31214" lon="21.8178725"><ele>32.0</ele><time>2026-04-29T07:11:10.998Z</time></trkpt><trkpt lat="38.3121652" lon="21.8180463"><ele>32.5</ele><time>2026-04-29T07:11:11.998Z</time></trkpt><trkpt lat="38.3121879" lon="21.8182176"><ele>33.0</ele><time>2026-04-29T07:11:12.998Z</time></trkpt><trkpt lat="38.312216" lon="21.8183891"><ele>33.5</ele><time>2026-04-29T07:11:13.998Z</time></trkpt><trkpt lat="38.3122465" lon="21.8185801"><ele>34.0</ele><time>2026-04-29T07:11:14.998Z</time></trkpt><trkpt lat="38.3122781" lon="21.8187735"><ele>32.5</ele><time>2026-04-29T07:11:15.997Z</time></trkpt><trkpt lat="38.312309" lon="21.8189577"><ele>31.0</ele><time>2026-04-29T07:11:16.998Z</time></trkpt><trkpt lat="38.3123377" lon="21.8191357"><ele>29.5</ele><time>2026-04-29T07:11:17.997Z</time></trkpt><trkpt lat="38.3123639" lon="21.8193102"><ele>28.0</ele><time>2026-04-29T07:11:18.996Z</time></trkpt><trkpt lat="38.3123867" lon="21.819486"><ele>27.75</ele><time>2026-04-29T07:11:19.998Z</time></trkpt><trkpt lat="38.312409" lon="21.8196524"><ele>27.5</ele><time>2026-04-29T07:11:20.998Z</time></trkpt><trkpt lat="38.3124406" lon="21.8198236"><ele>27.25</ele><time>2026-04-29T07:11:21.997Z</time></trkpt><trkpt lat="38.3124682" lon="21.8199956"><ele>27.0</ele><time>2026-04-29T07:11:22.997Z</time></trkpt><trkpt lat="38.3125013" lon="21.8201607"><ele>27.0</ele><time>2026-04-29T07:11:23.997Z</time></trkpt><trkpt lat="38.3125297" lon="21.8203345"><ele>27.0</ele><time>2026-04-29T07:11:24.997Z</time></trkpt><trkpt lat="38.3125593" lon="21.8205166"><ele>27.0</ele><time>2026-04-29T07:11:25.995Z</time></trkpt><trkpt lat="38.3125864" lon="21.8207016"><ele>27.0</ele><time>2026-04-29T07:11:26.998Z</time></trkpt><trkpt lat="38.3126109" lon="21.8208929"><ele>27.333333333333336</ele><time>2026-04-29T07:11:27.998Z</time></trkpt><trkpt lat="38.3126362" lon="21.8210865"><ele>27.666666666666668</ele><time>2026-04-29T07:11:28.997Z</time></trkpt><trkpt lat="38.3126674" lon="21.8212776"><ele>28.0</ele><time>2026-04-29T07:11:29.997Z</time></trkpt><trkpt lat="38.3126949" lon="21.8214679"><ele>28.0</ele><time>2026-04-29T07:11:30.998Z</time></trkpt><trkpt lat="38.3127272" lon="21.8216518"><ele>28.0</ele><time>2026-04-29T07:11:31.998Z</time></trkpt><trkpt lat="38.3127646" lon="21.8218309"><ele>28.0</ele><time>2026-04-29T07:11:32.997Z</time></trkpt><trkpt lat="38.3127929" lon="21.822016"><ele>28.0</ele><time>2026-04-29T07:11:33.997Z</time></trkpt><trkpt lat="38.3128271" lon="21.8222018"><ele>29.0</ele><time>2026-04-29T07:11:34.998Z</time></trkpt><trkpt lat="38.3128576" lon="21.8223794"><ele>30.0</ele><time>2026-04-29T07:11:35.997Z</time></trkpt><trkpt lat="38.3128873" lon="21.8225584"><ele>31.0</ele><time>2026-04-29T07:11:36.997Z</time></trkpt><trkpt lat="38.3129201" lon="21.8227494"><ele>32.0</ele><time>2026-04-29T07:11:37.997Z</time></trkpt><trkpt lat="38.3129652" lon="21.8229478"><ele>32.5</ele><time>2026-04-29T07:11:38.997Z</time></trkpt><trkpt lat="38.3130042" lon="21.8231172"><ele>33.0</ele><time>2026-04-29T07:11:39.998Z</time></trkpt><trkpt lat="38.3130417" lon="21.8232727"><ele>33.5</ele><time>2026-04-29T07:11:40.998Z</time></trkpt><trkpt lat="38.3130775" lon="21.8234097"><ele>34.0</ele><time>2026-04-29T07:11:41.998Z</time></trkpt><trkpt lat="38.3131079" lon="21.8235356"><ele>32.0</ele><time>2026-04-29T07:11:42.998Z</time></trkpt><trkpt lat="38.3131371" lon="21.8236626"><ele>30.0</ele><time>2026-04-29T07:11:43.997Z</time></trkpt><trkpt lat="38.3131644" lon="21.8237919"><ele>28.0</ele><time>2026-04-29T07:11:44.996Z</time></trkpt><trkpt lat="38.3131883" lon="21.8239296"><ele>26.0</ele><time>2026-04-29T07:11:45.997Z</time></trkpt><trkpt lat="38.3132234" lon="21.8240776"><ele>24.0</ele><time>2026-04-29T07:11:46.998Z</time></trkpt><trkpt lat="38.3132653" lon="21.8242329"><ele>24.5</ele><time>2026-04-29T07:11:47.998Z</time></trkpt><trkpt lat="38.3133043" lon="21.824397"><ele>25.0</ele><time>2026-04-29T07:11:48.998Z</time></trkpt><trkpt lat="38.3133494" lon="21.8245694"><ele>25.5</ele><time>2026-04-29T07:11:49.998Z</time></trkpt><trkpt lat="38.3133895" lon="21.8247379"><ele>26.0</ele><time>2026-04-29T07:11:50.997Z</time></trkpt><trkpt lat="38.3134447" lon="21.8249174"><ele>26.0</ele><time>2026-04-29T07:11:51.998Z</time></trkpt><trkpt lat="38.3134873" lon="21.8250939"><ele>26.0</ele><time>2026-04-29T07:11:52.998Z</time></trkpt><trkpt lat="38.3135331" lon="21.8252685"><ele>26.0</ele><time>2026-04-29T07:11:53.998Z</time></trkpt><trkpt lat="38.3135893" lon="21.8254467"><ele>26.0</ele><time>2026-04-29T07:11:54.998Z</time></trkpt><trkpt lat="38.3136472" lon="21.8256226"><ele>26.333333333333332</ele><time>2026-04-29T07:11:55.997Z</time></trkpt><trkpt lat="38.313701" lon="21.8257992"><ele>26.666666666666664</ele><time>2026-04-29T07:11:56.998Z</time></trkpt><trkpt lat="38.3137645" lon="21.825987"><ele>27.0</ele><time>2026-04-29T07:11:57.995Z</time></trkpt><trkpt lat="38.3138204" lon="21.8261656"><ele>27.25</ele><time>2026-04-29T07:11:58.998Z</time></trkpt><trkpt lat="38.3138757" lon="21.8263383"><ele>27.5</ele><time>2026-04-29T07:11:59.997Z</time></trkpt><trkpt lat="38.313928" lon="21.82651"><ele>27.75</ele><time>2026-04-29T07:12:00.997Z</time></trkpt><trkpt lat="38.3139841" lon="21.8266681"><ele>28.0</ele><time>2026-04-29T07:12:01.997Z</time></trkpt><trkpt lat="38.3140482" lon="21.8268202"><ele>27.25</ele><time>2026-04-29T07:12:02.998Z</time></trkpt><trkpt lat="38.3141134" lon="21.8269544"><ele>26.5</ele><time>2026-04-29T07:12:03.997Z</time></trkpt><trkpt lat="38.3142005" lon="21.8270714"><ele>25.75</ele><time>2026-04-29T07:12:04.997Z</time></trkpt><trkpt lat="38.3142914" lon="21.8271767"><ele>25.0</ele><time>2026-04-29T07:12:05.997Z</time></trkpt><trkpt lat="38.3143982" lon="21.8272417"><ele>25.0</ele><time>2026-04-29T07:12:06.995Z</time></trkpt><trkpt lat="38.3145254" lon="21.8273001"><ele>25.0</ele><time>2026-04-29T07:12:07.997Z</time></trkpt><trkpt lat="38.314658" lon="21.8273469"><ele>25.0</ele><time>2026-04-29T07:12:08.997Z</time></trkpt><trkpt lat="38.3148062" lon="21.8273804"><ele>25.0</ele><time>2026-04-29T07:12:09.998Z</time></trkpt><trkpt lat="38.314951" lon="21.8274206"><ele>23.0</ele><time>2026-04-29T07:12:10.997Z</time></trkpt><trkpt lat="38.3150996" lon="21.8274665"><ele>21.0</ele><time>2026-04-29T07:12:11.997Z</time></trkpt><trkpt lat="38.3152329" lon="21.8275106"><ele>19.0</ele><time>2026-04-29T07:12:12.998Z</time></trkpt><trkpt lat="38.315361" lon="21.827551"><ele>17.0</ele><time>2026-04-29T07:12:13.998Z</time></trkpt><trkpt lat="38.3154914" lon="21.8276014"><ele>17.8</ele><time>2026-04-29T07:12:14.996Z</time></trkpt><trkpt lat="38.3156062" lon="21.8276558"><ele>18.6</ele><time>2026-04-29T07:12:15.998Z</time></trkpt><trkpt lat="38.3157089" lon="21.8276943"><ele>19.400000000000002</ele><time>2026-04-29T07:12:16.998Z</time></trkpt><trkpt lat="38.3158125" lon="21.8277107"><ele>20.2</ele><time>2026-04-29T07:12:17.997Z</time></trkpt><trkpt lat="38.3159139" lon="21.8277038"><ele>21.0</ele><time>2026-04-29T07:12:18.998Z</time></trkpt><trkpt lat="38.3160182" lon="21.8276979"><ele>21.0</ele><time>2026-04-29T07:12:19.997Z</time></trkpt><trkpt lat="38.3161224" lon="21.8277085"><ele>21.0</ele><time>2026-04-29T07:12:20.998Z</time></trkpt><trkpt lat="38.3162426" lon="21.8277355"><ele>21.0</ele><time>2026-04-29T07:12:21.998Z</time></trkpt><trkpt lat="38.3163657" lon="21.8277756"><ele>21.0</ele><time>2026-04-29T07:12:22.996Z</time></trkpt><trkpt lat="38.3164861" lon="21.8278246"><ele>20.0</ele><time>2026-04-29T07:12:23.998Z</time></trkpt><trkpt lat="38.3166046" lon="21.8278735"><ele>19.0</ele><time>2026-04-29T07:12:24.997Z</time></trkpt><trkpt lat="38.3167265" lon="21.827925"><ele>18.0</ele><time>2026-04-29T07:12:25.997Z</time></trkpt><trkpt lat="38.3168459" lon="21.8279723"><ele>17.0</ele><time>2026-04-29T07:12:26.997Z</time></trkpt><trkpt lat="38.316962" lon="21.8280237"><ele>17.0</ele><time>2026-04-29T07:12:27.997Z</time></trkpt><trkpt lat="38.3170774" lon="21.8280699"><ele>17.0</ele><time>2026-04-29T07:12:28.997Z</time></trkpt><trkpt lat="38.3171922" lon="21.828123"><ele>17.0</ele><time>2026-04-29T07:12:29.998Z</time></trkpt><trkpt lat="38.3173095" lon="21.8281808"><ele>17.0</ele><time>2026-04-29T07:12:30.998Z</time></trkpt><trkpt lat="38.3174313" lon="21.8282479"><ele>17.5</ele><time>2026-04-29T07:12:31.997Z</time></trkpt><trkpt lat="38.3175383" lon="21.8283211"><ele>18.0</ele><time>2026-04-29T07:12:32.998Z</time></trkpt><trkpt lat="38.3176456" lon="21.8283955"><ele>18.5</ele><time>2026-04-29T07:12:33.998Z</time></trkpt><trkpt lat="38.3177557" lon="21.8284685"><ele>19.0</ele><time>2026-04-29T07:12:34.997Z</time></trkpt><trkpt lat="38.3178749" lon="21.8285436"><ele>19.0</ele><time>2026-04-29T07:12:35.998Z</time></trkpt><trkpt lat="38.3179949" lon="21.8286255"><ele>19.0</ele><time>2026-04-29T07:12:36.997Z</time></trkpt><trkpt lat="38.3181114" lon="21.8287037"><ele>19.0</ele><time>2026-04-29T07:12:37.998Z</time></trkpt><trkpt lat="38.3182247" lon="21.8287797"><ele>19.0</ele><time>2026-04-29T07:12:38.998Z</time></trkpt><trkpt lat="38.3183376" lon="21.8288551"><ele>17.75</ele><time>2026-04-29T07:12:39.997Z</time></trkpt><trkpt lat="38.3184572" lon="21.8289353"><ele>16.5</ele><time>2026-04-29T07:12:40.997Z</time></trkpt><trkpt lat="38.3185796" lon="21.8290176"><ele>15.25</ele><time>2026-04-29T07:12:41.997Z</time></trkpt><trkpt lat="38.3187031" lon="21.8291087"><ele>14.0</ele><time>2026-04-29T07:12:42.997Z</time></trkpt><trkpt lat="38.3188226" lon="21.8292113"><ele>14.25</ele><time>2026-04-29T07:12:43.998Z</time></trkpt><trkpt lat="38.3189379" lon="21.8293079"><ele>14.5</ele><time>2026-04-29T07:12:44.998Z</time></trkpt><trkpt lat="38.3190525" lon="21.8294017"><ele>14.75</ele><time>2026-04-29T07:12:45.997Z</time></trkpt><trkpt lat="38.3191683" lon="21.8295037"><ele>15.0</ele><time>2026-04-29T07:12:46.997Z</time></trkpt><trkpt lat="38.3192828" lon="21.8296131"><ele>15.0</ele><time>2026-04-29T07:12:47.997Z</time></trkpt><trkpt lat="38.3194006" lon="21.8297171"><ele>15.0</ele><time>2026-04-29T07:12:48.997Z</time></trkpt><trkpt lat="38.3195179" lon="21.8298197"><ele>15.0</ele><time>2026-04-29T07:12:49.998Z</time></trkpt><trkpt lat="38.319632" lon="21.8299132"><ele>15.0</ele><time>2026-04-29T07:12:50.998Z</time></trkpt><trkpt lat="38.3197482" lon="21.830019"><ele>14.75</ele><time>2026-04-29T07:12:51.997Z</time></trkpt><trkpt lat="38.3198624" lon="21.830113"><ele>14.5</ele><time>2026-04-29T07:12:52.998Z</time></trkpt><trkpt lat="38.3199685" lon="21.8302197"><ele>14.25</ele><time>2026-04-29T07:12:53.997Z</time></trkpt><trkpt lat="38.3200687" lon="21.8303334"><ele>14.0</ele><time>2026-04-29T07:12:54.998Z</time></trkpt><trkpt lat="38.3201596" lon="21.8304712"><ele>14.0</ele><time>2026-04-29T07:12:55.997Z</time></trkpt><trkpt lat="38.3202501" lon="21.8306194"><ele>14.0</ele><time>2026-04-29T07:12:56.998Z</time></trkpt><trkpt lat="38.3203368" lon="21.8307741"><ele>14.0</ele><time>2026-04-29T07:12:57.997Z</time></trkpt><trkpt lat="38.3204203" lon="21.8309183"><ele>14.0</ele><time>2026-04-29T07:12:58.997Z</time></trkpt><trkpt lat="38.3204926" lon="21.8310696"><ele>13.5</ele><time>2026-04-29T07:12:59.997Z</time></trkpt><trkpt lat="38.3205622" lon="21.831233"><ele>13.0</ele><time>2026-04-29T07:13:00.998Z</time></trkpt><trkpt lat="38.320629" lon="21.8313969"><ele>12.5</ele><time>2026-04-29T07:13:01.998Z</time></trkpt><trkpt lat="38.3206915" lon="21.8315727"><ele>12.0</ele><time>2026-04-29T07:13:02.996Z</time></trkpt><trkpt lat="38.3207556" lon="21.8317488"><ele>12.0</ele><time>2026-04-29T07:13:03.997Z</time></trkpt><trkpt lat="38.3208155" lon="21.8319266"><ele>12.0</ele><time>2026-04-29T07:13:04.997Z</time></trkpt><trkpt lat="38.320878" lon="21.8321134"><ele>12.0</ele><time>2026-04-29T07:13:05.997Z</time></trkpt><trkpt lat="38.3209314" lon="21.8322832"><ele>12.0</ele><time>2026-04-29T07:13:06.998Z</time></trkpt><trkpt lat="38.3209887" lon="21.8324557"><ele>12.0</ele><time>2026-04-29T07:13:07.997Z</time></trkpt><trkpt lat="38.321047" lon="21.8326249"><ele>12.0</ele><time>2026-04-29T07:13:08.998Z</time></trkpt><trkpt lat="38.3211029" lon="21.8327911"><ele>12.0</ele><time>2026-04-29T07:13:09.997Z</time></trkpt><trkpt lat="38.3211637" lon="21.8329573"><ele>12.0</ele><time>2026-04-29T07:13:10.998Z</time></trkpt><trkpt lat="38.321221" lon="21.8331242"><ele>12.0</ele><time>2026-04-29T07:13:11.996Z</time></trkpt><trkpt lat="38.3212774" lon="21.8332909"><ele>12.0</ele><time>2026-04-29T07:13:12.998Z</time></trkpt><trkpt lat="38.3213431" lon="21.8334594"><ele>12.0</ele><time>2026-04-29T07:13:13.998Z</time></trkpt><trkpt lat="38.3214226" lon="21.8336274"><ele>11.666666666666666</ele><time>2026-04-29T07:13:14.997Z</time></trkpt><trkpt lat="38.3215261" lon="21.8338052"><ele>11.333333333333332</ele><time>2026-04-29T07:13:15.997Z</time></trkpt><trkpt lat="38.3216249" lon="21.8339648"><ele>11.0</ele><time>2026-04-29T07:13:16.997Z</time></trkpt><trkpt lat="38.3217307" lon="21.8341215"><ele>11.0</ele><time>2026-04-29T07:13:17.997Z</time></trkpt><trkpt lat="38.321838" lon="21.8342707"><ele>11.0</ele><time>2026-04-29T07:13:18.997Z</time></trkpt><trkpt lat="38.3219476" lon="21.834416"><ele>11.0</ele><time>2026-04-29T07:13:19.996Z</time></trkpt><trkpt lat="38.3220507" lon="21.8345576"><ele>11.25</ele><time>2026-04-29T07:13:20.998Z</time></trkpt><trkpt lat="38.3221509" lon="21.8347039"><ele>11.5</ele><time>2026-04-29T07:13:21.997Z</time></trkpt><trkpt lat="38.3222443" lon="21.8348456"><ele>11.75</ele><time>2026-04-29T07:13:22.998Z</time></trkpt><trkpt lat="38.322327" lon="21.8349823"><ele>12.0</ele><time>2026-04-29T07:13:23.997Z</time></trkpt><trkpt lat="38.3224091" lon="21.8351225"><ele>12.666666666666668</ele><time>2026-04-29T07:13:24.997Z</time></trkpt><trkpt lat="38.3224979" lon="21.8352627"><ele>13.333333333333334</ele><time>2026-04-29T07:13:25.997Z</time></trkpt><trkpt lat="38.3225912" lon="21.8354193"><ele>14.0</ele><time>2026-04-29T07:13:26.998Z</time></trkpt><trkpt lat="38.3226797" lon="21.8355879"><ele>14.0</ele><time>2026-04-29T07:13:27.997Z</time></trkpt><trkpt lat="38.3227752" lon="21.8357639"><ele>14.0</ele><time>2026-04-29T07:13:28.996Z</time></trkpt><trkpt lat="38.3228683" lon="21.8359403"><ele>14.0</ele><time>2026-04-29T07:13:29.997Z</time></trkpt><trkpt lat="38.3229652" lon="21.8361253"><ele>14.333333333333334</ele><time>2026-04-29T07:13:30.998Z</time></trkpt><trkpt lat="38.3230628" lon="21.8363084"><ele>14.666666666666668</ele><time>2026-04-29T07:13:31.998Z</time></trkpt><trkpt lat="38.3231623" lon="21.8365038"><ele>15.0</ele><time>2026-04-29T07:13:32.997Z</time></trkpt><trkpt lat="38.3232687" lon="21.8367019"><ele>14.0</ele><time>2026-04-29T07:13:33.997Z</time></trkpt><trkpt lat="38.3233675" lon="21.8369023"><ele>13.0</ele><time>2026-04-29T07:13:34.998Z</time></trkpt><trkpt lat="38.3234701" lon="21.8371098"><ele>12.0</ele><time>2026-04-29T07:13:35.998Z</time></trkpt><trkpt lat="38.323573" lon="21.8373143"><ele>12.0</ele><time>2026-04-29T07:13:36.998Z</time></trkpt><trkpt lat="38.3236737" lon="21.8375108"><ele>12.0</ele><time>2026-04-29T07:13:37.997Z</time></trkpt><trkpt lat="38.3237691" lon="21.8377028"><ele>12.0</ele><time>2026-04-29T07:13:38.997Z</time></trkpt><trkpt lat="38.3238615" lon="21.8378897"><ele>12.0</ele><time>2026-04-29T07:13:39.998Z</time></trkpt><trkpt lat="38.3239513" lon="21.8380713"><ele>12.0</ele><time>2026-04-29T07:13:40.997Z</time></trkpt><trkpt lat="38.3240333" lon="21.8382648"><ele>12.0</ele><time>2026-04-29T07:13:41.998Z</time></trkpt><trkpt lat="38.3241168" lon="21.8384688"><ele>12.0</ele><time>2026-04-29T07:13:42.997Z</time></trkpt><trkpt lat="38.3241966" lon="21.8386789"><ele>12.0</ele><time>2026-04-29T07:13:43.998Z</time></trkpt><trkpt lat="38.3242705" lon="21.8388916"><ele>12.0</ele><time>2026-04-29T07:13:44.998Z</time></trkpt><trkpt lat="38.3243415" lon="21.83911"><ele>12.333333333333332</ele><time>2026-04-29T07:13:45.997Z</time></trkpt><trkpt lat="38.3244128" lon="21.8393333"><ele>12.666666666666666</ele><time>2026-04-29T07:13:46.997Z</time></trkpt><trkpt lat="38.3244775" lon="21.8395506"><ele>13.0</ele><time>2026-04-29T07:13:47.997Z</time></trkpt><trkpt lat="38.3245494" lon="21.8397729"><ele>13.0</ele><time>2026-04-29T07:13:48.998Z</time></trkpt><trkpt lat="38.3246265" lon="21.8399883"><ele>13.0</ele><time>2026-04-29T07:13:49.998Z</time></trkpt><trkpt lat="38.3247048" lon="21.8401996"><ele>13.0</ele><time>2026-04-29T07:13:50.998Z</time></trkpt><trkpt lat="38.3247856" lon="21.8404026"><ele>12.666666666666666</ele><time>2026-04-29T07:13:51.997Z</time></trkpt><trkpt lat="38.3248673" lon="21.8405992"><ele>12.333333333333332</ele><time>2026-04-29T07:13:52.998Z</time></trkpt><trkpt lat="38.3249415" lon="21.840785"><ele>12.0</ele><time>2026-04-29T07:13:53.998Z</time></trkpt><trkpt lat="38.3250176" lon="21.8409618"><ele>12.6</ele><time>2026-04-29T07:13:54.997Z</time></trkpt><trkpt lat="38.3250769" lon="21.8411169"><ele>13.2</ele><time>2026-04-29T07:13:55.998Z</time></trkpt><trkpt lat="38.3251292" lon="21.8412538"><ele>13.8</ele><time>2026-04-29T07:13:56.998Z</time></trkpt><trkpt lat="38.32517" lon="21.8413715"><ele>14.4</ele><time>2026-04-29T07:13:57.998Z</time></trkpt><trkpt lat="38.3252094" lon="21.8414712"><ele>15.0</ele><time>2026-04-29T07:13:58.998Z</time></trkpt><trkpt lat="38.3252445" lon="21.8415625"><ele>15.0</ele><time>2026-04-29T07:13:59.997Z</time></trkpt><trkpt lat="38.3252663" lon="21.8416479"><ele>15.0</ele><time>2026-04-29T07:14:00.998Z</time></trkpt><trkpt lat="38.3252716" lon="21.8417291"><ele>15.0</ele><time>2026-04-29T07:14:01.998Z</time></trkpt><trkpt lat="38.3252572" lon="21.841899"><ele>15.0</ele><time>2026-04-29T07:14:03.998Z</time></trkpt><trkpt lat="38.3252396" lon="21.8419999"><ele>15.0</ele><time>2026-04-29T07:14:04.997Z</time></trkpt><trkpt lat="38.325233" lon="21.842113"><ele>15.0</ele><time>2026-04-29T07:14:05.997Z</time></trkpt><trkpt lat="38.3252299" lon="21.8422335"><ele>15.666666666666666</ele><time>2026-04-29T07:14:06.996Z</time></trkpt><trkpt lat="38.3252368" lon="21.8423534"><ele>16.333333333333332</ele><time>2026-04-29T07:14:07.996Z</time></trkpt><trkpt lat="38.3252446" lon="21.84246"><ele>17.0</ele><time>2026-04-29T07:14:08.997Z</time></trkpt><trkpt lat="38.3252544" lon="21.8425609"><ele>17.666666666666664</ele><time>2026-04-29T07:14:09.996Z</time></trkpt><trkpt lat="38.3252583" lon="21.8426582"><ele>18.333333333333332</ele><time>2026-04-29T07:14:10.997Z</time></trkpt><trkpt lat="38.3252685" lon="21.8427592"><ele>19.0</ele><time>2026-04-29T07:14:11.997Z</time></trkpt><trkpt lat="38.3252818" lon="21.8428589"><ele>19.6</ele><time>2026-04-29T07:14:12.997Z</time></trkpt><trkpt lat="38.325294" lon="21.842968"><ele>20.2</ele><time>2026-04-29T07:14:13.998Z</time></trkpt><trkpt lat="38.3253069" lon="21.8430791"><ele>20.8</ele><time>2026-04-29T07:14:14.995Z</time></trkpt><trkpt lat="38.3253177" lon="21.8431915"><ele>21.400000000000002</ele><time>2026-04-29T07:14:15.997Z</time></trkpt><trkpt lat="38.3253299" lon="21.8433145"><ele>22.0</ele><time>2026-04-29T07:14:16.998Z</time></trkpt><trkpt lat="38.3253418" lon="21.8434346"><ele>22.200000000000003</ele><time>2026-04-29T07:14:17.997Z</time></trkpt><trkpt lat="38.3253563" lon="21.8435537"><ele>22.4</ele><time>2026-04-29T07:14:18.998Z</time></trkpt><trkpt lat="38.3253681" lon="21.8436785"><ele>22.6</ele><time>2026-04-29T07:14:19.998Z</time></trkpt><trkpt lat="38.3253795" lon="21.8437964"><ele>22.799999999999997</ele><time>2026-04-29T07:14:20.997Z</time></trkpt><trkpt lat="38.3253858" lon="21.8439283"><ele>23.0</ele><time>2026-04-29T07:14:21.997Z</time></trkpt><trkpt lat="38.3253912" lon="21.8440637"><ele>23.0</ele><time>2026-04-29T07:14:22.997Z</time></trkpt><trkpt lat="38.3253973" lon="21.8441932"><ele>23.0</ele><time>2026-04-29T07:14:23.997Z</time></trkpt><trkpt lat="38.3254043" lon="21.8443193"><ele>23.0</ele><time>2026-04-29T07:14:24.998Z</time></trkpt><trkpt lat="38.3254059" lon="21.8444449"><ele>23.0</ele><time>2026-04-29T07:14:25.998Z</time></trkpt><trkpt lat="38.3254133" lon="21.8445766"><ele>23.0</ele><time>2026-04-29T07:14:26.997Z</time></trkpt><trkpt lat="38.3254145" lon="21.8447024"><ele>23.599999999999998</ele><time>2026-04-29T07:14:27.997Z</time></trkpt><trkpt lat="38.3254187" lon="21.8448304"><ele>24.2</ele><time>2026-04-29T07:14:28.997Z</time></trkpt><trkpt lat="38.3254222" lon="21.8449594"><ele>24.8</ele><time>2026-04-29T07:14:29.998Z</time></trkpt><trkpt lat="38.3254247" lon="21.8450802"><ele>25.4</ele><time>2026-04-29T07:14:30.998Z</time></trkpt><trkpt lat="38.3254326" lon="21.8452036"><ele>26.0</ele><time>2026-04-29T07:14:31.998Z</time></trkpt><trkpt lat="38.325434" lon="21.8453333"><ele>26.4</ele><time>2026-04-29T07:14:32.998Z</time></trkpt><trkpt lat="38.3254425" lon="21.8454663"><ele>26.8</ele><time>2026-04-29T07:14:33.998Z</time></trkpt><trkpt lat="38.3254452" lon="21.8456019"><ele>27.199999999999996</ele><time>2026-04-29T07:14:34.995Z</time></trkpt><trkpt lat="38.325452" lon="21.8457361"><ele>27.599999999999998</ele><time>2026-04-29T07:14:35.997Z</time></trkpt><trkpt lat="38.3254607" lon="21.8458662"><ele>28.0</ele><time>2026-04-29T07:14:36.998Z</time></trkpt><trkpt lat="38.3254662" lon="21.8460066"><ele>28.4</ele><time>2026-04-29T07:14:37.997Z</time></trkpt><trkpt lat="38.3254706" lon="21.8461409"><ele>28.799999999999997</ele><time>2026-04-29T07:14:38.996Z</time></trkpt><trkpt lat="38.3254716" lon="21.8462729"><ele>29.2</ele><time>2026-04-29T07:14:39.998Z</time></trkpt><trkpt lat="38.325475" lon="21.8464129"><ele>29.6</ele><time>2026-04-29T07:14:40.997Z</time></trkpt><trkpt lat="38.3254805" lon="21.8465441"><ele>30.0</ele><time>2026-04-29T07:14:41.998Z</time></trkpt><trkpt lat="38.3254789" lon="21.8466942"><ele>30.5</ele><time>2026-04-29T07:14:42.998Z</time></trkpt><trkpt lat="38.325483" lon="21.8468373"><ele>31.0</ele><time>2026-04-29T07:14:43.998Z</time></trkpt><trkpt lat="38.3254923" lon="21.8469849"><ele>31.5</ele><time>2026-04-29T07:14:44.998Z</time></trkpt><trkpt lat="38.3254954" lon="21.8471247"><ele>32.0</ele><time>2026-04-29T07:14:45.998Z</time></trkpt><trkpt lat="38.3254994" lon="21.8472674"><ele>32.0</ele><time>2026-04-29T07:14:46.998Z</time></trkpt><trkpt lat="38.325501" lon="21.8474003"><ele>32.0</ele><time>2026-04-29T07:14:47.997Z</time></trkpt><trkpt lat="38.3255061" lon="21.8475306"><ele>32.0</ele><time>2026-04-29T07:14:48.996Z</time></trkpt><trkpt lat="38.3255166" lon="21.8476643"><ele>32.0</ele><time>2026-04-29T07:14:49.996Z</time></trkpt><trkpt lat="38.3255242" lon="21.8477997"><ele>32.0</ele><time>2026-04-29T07:14:50.998Z</time></trkpt><trkpt lat="38.3255417" lon="21.8479342"><ele>31.8</ele><time>2026-04-29T07:14:51.997Z</time></trkpt><trkpt lat="38.325566" lon="21.8480557"><ele>31.6</ele><time>2026-04-29T07:14:52.998Z</time></trkpt><trkpt lat="38.3255904" lon="21.8481696"><ele>31.400000000000002</ele><time>2026-04-29T07:14:53.997Z</time></trkpt><trkpt lat="38.3256125" lon="21.8482745"><ele>31.200000000000003</ele><time>2026-04-29T07:14:54.997Z</time></trkpt><trkpt lat="38.3256407" lon="21.8483877"><ele>31.0</ele><time>2026-04-29T07:14:55.998Z</time></trkpt><trkpt lat="38.3256654" lon="21.8485026"><ele>31.0</ele><time>2026-04-29T07:14:56.997Z</time></trkpt><trkpt lat="38.3256797" lon="21.8486275"><ele>31.0</ele><time>2026-04-29T07:14:57.998Z</time></trkpt><trkpt lat="38.3256798" lon="21.8487703"><ele>31.0</ele><time>2026-04-29T07:14:58.997Z</time></trkpt><trkpt lat="38.3256664" lon="21.8489285"><ele>31.0</ele><time>2026-04-29T07:14:59.998Z</time></trkpt><trkpt lat="38.3256447" lon="21.8491127"><ele>31.0</ele><time>2026-04-29T07:15:00.996Z</time></trkpt><trkpt lat="38.325627" lon="21.8493249"><ele>31.0</ele><time>2026-04-29T07:15:01.998Z</time></trkpt><trkpt lat="38.3255953" lon="21.8495684"><ele>31.0</ele><time>2026-04-29T07:15:02.997Z</time></trkpt><trkpt lat="38.3255593" lon="21.8498169"><ele>33.0</ele><time>2026-04-29T07:15:03.998Z</time></trkpt><trkpt lat="38.3255129" lon="21.8501186"><ele>35.0</ele><time>2026-04-29T07:15:04.997Z</time></trkpt><trkpt lat="38.32546" lon="21.8503801"><ele>35.666666666666664</ele><time>2026-04-29T07:15:05.998Z</time></trkpt><trkpt lat="38.3254095" lon="21.850632"><ele>36.333333333333336</ele><time>2026-04-29T07:15:06.997Z</time></trkpt><trkpt lat="38.325363" lon="21.8508749"><ele>37.0</ele><time>2026-04-29T07:15:07.998Z</time></trkpt><trkpt lat="38.3253215" lon="21.8511053"><ele>38.333333333333336</ele><time>2026-04-29T07:15:08.998Z</time></trkpt><trkpt lat="38.3252865" lon="21.8513267"><ele>39.666666666666664</ele><time>2026-04-29T07:15:09.997Z</time></trkpt><trkpt lat="38.3252434" lon="21.8515248"><ele>41.0</ele><time>2026-04-29T07:15:10.997Z</time></trkpt><trkpt lat="38.3252132" lon="21.8517271"><ele>41.33333333333333</ele><time>2026-04-29T07:15:11.997Z</time></trkpt><trkpt lat="38.3251831" lon="21.851925"><ele>41.666666666666664</ele><time>2026-04-29T07:15:12.997Z</time></trkpt><trkpt lat="38.325154" lon="21.8521133"><ele>42.0</ele><time>2026-04-29T07:15:13.997Z</time></trkpt><trkpt lat="38.3251234" lon="21.8522993"><ele>42.0</ele><time>2026-04-29T07:15:14.998Z</time></trkpt><trkpt lat="38.325083" lon="21.852478"><ele>42.0</ele><time>2026-04-29T07:15:15.997Z</time></trkpt><trkpt lat="38.3250332" lon="21.8526427"><ele>42.0</ele><time>2026-04-29T07:15:16.997Z</time></trkpt><trkpt lat="38.3249827" lon="21.8527942"><ele>42.0</ele><time>2026-04-29T07:15:17.998Z</time></trkpt><trkpt lat="38.3249187" lon="21.852947"><ele>42.25</ele><time>2026-04-29T07:15:18.996Z</time></trkpt><trkpt lat="38.3248468" lon="21.8530855"><ele>42.5</ele><time>2026-04-29T07:15:19.998Z</time></trkpt><trkpt lat="38.3247869" lon="21.8532274"><ele>42.75</ele><time>2026-04-29T07:15:20.998Z</time></trkpt><trkpt lat="38.324732" lon="21.8533833"><ele>43.0</ele><time>2026-04-29T07:15:21.998Z</time></trkpt><trkpt lat="38.3246984" lon="21.8535627"><ele>44.25</ele><time>2026-04-29T07:15:22.997Z</time></trkpt><trkpt lat="38.3246641" lon="21.8537316"><ele>45.5</ele><time>2026-04-29T07:15:23.997Z</time></trkpt><trkpt lat="38.3246433" lon="21.8539105"><ele>46.75</ele><time>2026-04-29T07:15:24.998Z</time></trkpt><trkpt lat="38.3246448" lon="21.8540917"><ele>48.0</ele><time>2026-04-29T07:15:25.998Z</time></trkpt><trkpt lat="38.3246529" lon="21.8542725"><ele>47.5</ele><time>2026-04-29T07:15:26.998Z</time></trkpt><trkpt lat="38.3246635" lon="21.8544535"><ele>47.0</ele><time>2026-04-29T07:15:27.997Z</time></trkpt><trkpt lat="38.324685" lon="21.8546382"><ele>46.5</ele><time>2026-04-29T07:15:28.998Z</time></trkpt><trkpt lat="38.324711" lon="21.8548144"><ele>46.0</ele><time>2026-04-29T07:15:29.997Z</time></trkpt><trkpt lat="38.3247353" lon="21.854987"><ele>46.5</ele><time>2026-04-29T07:15:30.997Z</time></trkpt><trkpt lat="38.3247533" lon="21.8551543"><ele>47.0</ele><time>2026-04-29T07:15:31.997Z</time></trkpt><trkpt lat="38.3247661" lon="21.855317"><ele>47.5</ele><time>2026-04-29T07:15:32.997Z</time></trkpt><trkpt lat="38.3247706" lon="21.8554736"><ele>48.0</ele><time>2026-04-29T07:15:33.996Z</time></trkpt><trkpt lat="38.3247788" lon="21.8556233"><ele>48.0</ele><time>2026-04-29T07:15:34.998Z</time></trkpt><trkpt lat="38.3247727" lon="21.8557826"><ele>48.0</ele><time>2026-04-29T07:15:35.997Z</time></trkpt><trkpt lat="38.3247664" lon="21.8559437"><ele>48.0</ele><time>2026-04-29T07:15:36.997Z</time></trkpt><trkpt lat="38.3247616" lon="21.856102"><ele>48.0</ele><time>2026-04-29T07:15:37.998Z</time></trkpt><trkpt lat="38.3247501" lon="21.8562734"><ele>48.0</ele><time>2026-04-29T07:15:38.997Z</time></trkpt><trkpt lat="38.3247323" lon="21.8564504"><ele>48.0</ele><time>2026-04-29T07:15:39.997Z</time></trkpt><trkpt lat="38.3247006" lon="21.8566492"><ele>48.0</ele><time>2026-04-29T07:15:40.997Z</time></trkpt><trkpt lat="38.3246578" lon="21.8568495"><ele>48.33333333333333</ele><time>2026-04-29T07:15:41.997Z</time></trkpt><trkpt lat="38.3245813" lon="21.8570593"><ele>48.666666666666664</ele><time>2026-04-29T07:15:42.996Z</time></trkpt><trkpt lat="38.324516" lon="21.8572713"><ele>49.0</ele><time>2026-04-29T07:15:43.997Z</time></trkpt><trkpt lat="38.3244381" lon="21.8574678"><ele>49.33333333333333</ele><time>2026-04-29T07:15:44.998Z</time></trkpt><trkpt lat="38.3243816" lon="21.8576593"><ele>49.66666666666667</ele><time>2026-04-29T07:15:45.997Z</time></trkpt><trkpt lat="38.3243233" lon="21.8578422"><ele>50.0</ele><time>2026-04-29T07:15:46.998Z</time></trkpt><trkpt lat="38.3242793" lon="21.858036"><ele>50.0</ele><time>2026-04-29T07:15:47.998Z</time></trkpt><trkpt lat="38.3242521" lon="21.8582455"><ele>50.0</ele><time>2026-04-29T07:15:48.996Z</time></trkpt><trkpt lat="38.3242214" lon="21.8584485"><ele>50.0</ele><time>2026-04-29T07:15:49.996Z</time></trkpt><trkpt lat="38.3242008" lon="21.8586525"><ele>49.66666666666667</ele><time>2026-04-29T07:15:50.996Z</time></trkpt><trkpt lat="38.3241844" lon="21.8588632"><ele>49.33333333333333</ele><time>2026-04-29T07:15:51.998Z</time></trkpt><trkpt lat="38.3241623" lon="21.8590594"><ele>49.0</ele><time>2026-04-29T07:15:52.997Z</time></trkpt><trkpt lat="38.3241419" lon="21.8592584"><ele>48.33333333333333</ele><time>2026-04-29T07:15:53.997Z</time></trkpt><trkpt lat="38.3241196" lon="21.8594591"><ele>47.666666666666664</ele><time>2026-04-29T07:15:54.997Z</time></trkpt><trkpt lat="38.3241029" lon="21.859667"><ele>47.0</ele><time>2026-04-29T07:15:55.997Z</time></trkpt><trkpt lat="38.3240827" lon="21.8598884"><ele>46.33333333333333</ele><time>2026-04-29T07:15:56.998Z</time></trkpt><trkpt lat="38.3240636" lon="21.8601187"><ele>45.666666666666664</ele><time>2026-04-29T07:15:57.998Z</time></trkpt><trkpt lat="38.3240455" lon="21.8603518"><ele>45.0</ele><time>2026-04-29T07:15:58.997Z</time></trkpt><trkpt lat="38.3240201" lon="21.8605721"><ele>45.0</ele><time>2026-04-29T07:15:59.998Z</time></trkpt><trkpt lat="38.3240087" lon="21.8608105"><ele>45.0</ele><time>2026-04-29T07:16:00.998Z</time></trkpt><trkpt lat="38.3240029" lon="21.861049"><ele>45.0</ele><time>2026-04-29T07:16:01.997Z</time></trkpt><trkpt lat="38.3240101" lon="21.8613001"><ele>45.0</ele><time>2026-04-29T07:16:02.997Z</time></trkpt><trkpt lat="38.3240213" lon="21.8615496"><ele>45.0</ele><time>2026-04-29T07:16:03.997Z</time></trkpt><trkpt lat="38.3240455" lon="21.8618077"><ele>45.0</ele><time>2026-04-29T07:16:04.998Z</time></trkpt><trkpt lat="38.3240851" lon="21.8620656"><ele>46.66666666666667</ele><time>2026-04-29T07:16:05.997Z</time></trkpt><trkpt lat="38.3241333" lon="21.8623254"><ele>48.333333333333336</ele><time>2026-04-29T07:16:06.998Z</time></trkpt><trkpt lat="38.3241819" lon="21.8625841"><ele>50.0</ele><time>2026-04-29T07:16:07.997Z</time></trkpt><trkpt lat="38.3242352" lon="21.8628431"><ele>50.333333333333336</ele><time>2026-04-29T07:16:08.997Z</time></trkpt><trkpt lat="38.3242879" lon="21.863105"><ele>50.66666666666667</ele><time>2026-04-29T07:16:09.997Z</time></trkpt><trkpt lat="38.3243463" lon="21.8633638"><ele>51.0</ele><time>2026-04-29T07:16:10.997Z</time></trkpt><trkpt lat="38.3244052" lon="21.8636243"><ele>52.33333333333333</ele><time>2026-04-29T07:16:11.997Z</time></trkpt><trkpt lat="38.3244627" lon="21.8638709"><ele>53.666666666666664</ele><time>2026-04-29T07:16:12.998Z</time></trkpt><trkpt lat="38.3245153" lon="21.8641056"><ele>55.0</ele><time>2026-04-29T07:16:13.997Z</time></trkpt><trkpt lat="38.3245731" lon="21.8643362"><ele>55.0</ele><time>2026-04-29T07:16:14.997Z</time></trkpt><trkpt lat="38.3246492" lon="21.86456"><ele>55.0</ele><time>2026-04-29T07:16:15.997Z</time></trkpt><trkpt lat="38.3247432" lon="21.8647826"><ele>55.0</ele><time>2026-04-29T07:16:16.997Z</time></trkpt><trkpt lat="38.3248436" lon="21.8649999"><ele>51.0</ele><time>2026-04-29T07:16:17.997Z</time></trkpt><trkpt lat="38.3249429" lon="21.8652151"><ele>47.0</ele><time>2026-04-29T07:16:18.998Z</time></trkpt><trkpt lat="38.3250563" lon="21.8654355"><ele>43.0</ele><time>2026-04-29T07:16:19.998Z</time></trkpt><trkpt lat="38.3251569" lon="21.8656642"><ele>43.0</ele><time>2026-04-29T07:16:20.997Z</time></trkpt><trkpt lat="38.3252505" lon="21.8658925"><ele>43.0</ele><time>2026-04-29T07:16:21.998Z</time></trkpt><trkpt lat="38.3253412" lon="21.8661186"><ele>43.0</ele><time>2026-04-29T07:16:22.997Z</time></trkpt><trkpt lat="38.3254298" lon="21.8663419"><ele>44.0</ele><time>2026-04-29T07:16:23.996Z</time></trkpt><trkpt lat="38.3255159" lon="21.8665576"><ele>45.0</ele><time>2026-04-29T07:16:24.998Z</time></trkpt><trkpt lat="38.3255936" lon="21.8667643"><ele>46.0</ele><time>2026-04-29T07:16:25.997Z</time></trkpt><trkpt lat="38.3256586" lon="21.8669682"><ele>42.333333333333336</ele><time>2026-04-29T07:16:26.996Z</time></trkpt><trkpt lat="38.3256971" lon="21.8671737"><ele>38.666666666666664</ele><time>2026-04-29T07:16:27.997Z</time></trkpt><trkpt lat="38.3257154" lon="21.8673907"><ele>35.0</ele><time>2026-04-29T07:16:28.997Z</time></trkpt><trkpt lat="38.3257134" lon="21.8676071"><ele>34.0</ele><time>2026-04-29T07:16:29.998Z</time></trkpt><trkpt lat="38.3256951" lon="21.8678289"><ele>33.0</ele><time>2026-04-29T07:16:30.997Z</time></trkpt><trkpt lat="38.3256592" lon="21.8680572"><ele>32.0</ele><time>2026-04-29T07:16:31.997Z</time></trkpt><trkpt lat="38.3256223" lon="21.868293"><ele>31.333333333333332</ele><time>2026-04-29T07:16:32.998Z</time></trkpt><trkpt lat="38.325581" lon="21.8685229"><ele>30.666666666666664</ele><time>2026-04-29T07:16:33.997Z</time></trkpt><trkpt lat="38.3255305" lon="21.8687703"><ele>30.0</ele><time>2026-04-29T07:16:34.998Z</time></trkpt><trkpt lat="38.3254754" lon="21.8690057"><ele>30.333333333333336</ele><time>2026-04-29T07:16:35.998Z</time></trkpt><trkpt lat="38.3254275" lon="21.8692412"><ele>30.666666666666668</ele><time>2026-04-29T07:16:36.998Z</time></trkpt><trkpt lat="38.325378" lon="21.8694717"><ele>31.0</ele><time>2026-04-29T07:16:37.997Z</time></trkpt><trkpt lat="38.3253197" lon="21.8697003"><ele>31.0</ele><time>2026-04-29T07:16:38.997Z</time></trkpt><trkpt lat="38.3252619" lon="21.8699241"><ele>31.0</ele><time>2026-04-29T07:16:39.997Z</time></trkpt><trkpt lat="38.3252103" lon="21.870147"><ele>31.0</ele><time>2026-04-29T07:16:40.997Z</time></trkpt><trkpt lat="38.3251741" lon="21.8703711"><ele>29.333333333333336</ele><time>2026-04-29T07:16:41.997Z</time></trkpt><trkpt lat="38.325144" lon="21.87061"><ele>27.666666666666664</ele><time>2026-04-29T07:16:42.995Z</time></trkpt><trkpt lat="38.3251162" lon="21.8708479"><ele>26.0</ele><time>2026-04-29T07:16:43.997Z</time></trkpt><trkpt lat="38.3250978" lon="21.8710853"><ele>25.666666666666664</ele><time>2026-04-29T07:16:44.998Z</time></trkpt><trkpt lat="38.325085" lon="21.8713221"><ele>25.333333333333336</ele><time>2026-04-29T07:16:45.997Z</time></trkpt><trkpt lat="38.3250705" lon="21.871553"><ele>25.0</ele><time>2026-04-29T07:16:46.998Z</time></trkpt><trkpt lat="38.3250671" lon="21.8717796"><ele>24.0</ele><time>2026-04-29T07:16:47.995Z</time></trkpt><trkpt lat="38.3250532" lon="21.8719911"><ele>23.0</ele><time>2026-04-29T07:16:48.995Z</time></trkpt><trkpt lat="38.3250412" lon="21.8722032"><ele>22.0</ele><time>2026-04-29T07:16:49.997Z</time></trkpt><trkpt lat="38.3250287" lon="21.8724019"><ele>21.0</ele><time>2026-04-29T07:16:50.996Z</time></trkpt><trkpt lat="38.3250129" lon="21.8726081"><ele>20.0</ele><time>2026-04-29T07:16:51.997Z</time></trkpt><trkpt lat="38.3249896" lon="21.8728145"><ele>19.0</ele><time>2026-04-29T07:16:52.998Z</time></trkpt><trkpt lat="38.324957" lon="21.8730216"><ele>19.0</ele><time>2026-04-29T07:16:53.997Z</time></trkpt><trkpt lat="38.3249125" lon="21.87323"><ele>19.0</ele><time>2026-04-29T07:16:54.996Z</time></trkpt><trkpt lat="38.3248589" lon="21.8734492"><ele>19.0</ele><time>2026-04-29T07:16:55.997Z</time></trkpt><trkpt lat="38.324796" lon="21.8736653"><ele>20.0</ele><time>2026-04-29T07:16:56.996Z</time></trkpt><trkpt lat="38.3247356" lon="21.8738984"><ele>21.0</ele><time>2026-04-29T07:16:57.996Z</time></trkpt><trkpt lat="38.3246703" lon="21.8741163"><ele>22.0</ele><time>2026-04-29T07:16:58.998Z</time></trkpt><trkpt lat="38.3246079" lon="21.8743338"><ele>22.0</ele><time>2026-04-29T07:16:59.997Z</time></trkpt><trkpt lat="38.3245539" lon="21.8745682"><ele>22.0</ele><time>2026-04-29T07:17:00.997Z</time></trkpt><trkpt lat="38.3244981" lon="21.8748002"><ele>22.0</ele><time>2026-04-29T07:17:01.997Z</time></trkpt><trkpt lat="38.3244442" lon="21.8750262"><ele>21.0</ele><time>2026-04-29T07:17:02.997Z</time></trkpt><trkpt lat="38.3243832" lon="21.8752594"><ele>20.0</ele><time>2026-04-29T07:17:03.998Z</time></trkpt><trkpt lat="38.3243307" lon="21.8754972"><ele>19.0</ele><time>2026-04-29T07:17:04.998Z</time></trkpt><trkpt lat="38.3242647" lon="21.87574"><ele>17.333333333333332</ele><time>2026-04-29T07:17:05.997Z</time></trkpt><trkpt lat="38.324205" lon="21.8759822"><ele>15.666666666666668</ele><time>2026-04-29T07:17:06.997Z</time></trkpt><trkpt lat="38.3241532" lon="21.8762321"><ele>14.0</ele><time>2026-04-29T07:17:07.997Z</time></trkpt><trkpt lat="38.3241031" lon="21.8764867"><ele>14.0</ele><time>2026-04-29T07:17:08.996Z</time></trkpt><trkpt lat="38.3240561" lon="21.8767499"><ele>14.0</ele><time>2026-04-29T07:17:09.998Z</time></trkpt><trkpt lat="38.3240043" lon="21.8770151"><ele>14.0</ele><time>2026-04-29T07:17:10.996Z</time></trkpt><trkpt lat="38.3239581" lon="21.877282"><ele>13.333333333333334</ele><time>2026-04-29T07:17:11.995Z</time></trkpt><trkpt lat="38.3239158" lon="21.8775514"><ele>12.666666666666668</ele><time>2026-04-29T07:17:12.998Z</time></trkpt><trkpt lat="38.3238782" lon="21.8778276"><ele>12.0</ele><time>2026-04-29T07:17:13.997Z</time></trkpt><trkpt lat="38.3238432" lon="21.878092"><ele>23.5</ele><time>2026-04-29T07:17:14.998Z</time></trkpt><trkpt lat="38.3238163" lon="21.8783813"><ele>35.0</ele><time>2026-04-29T07:17:15.998Z</time></trkpt><trkpt lat="38.323802" lon="21.8786626"><ele>35.0</ele><time>2026-04-29T07:17:16.997Z</time></trkpt><trkpt lat="38.323778" lon="21.8789413"><ele>35.0</ele><time>2026-04-29T07:17:17.998Z</time></trkpt><trkpt lat="38.3237545" lon="21.8792149"><ele>35.0</ele><time>2026-04-29T07:17:18.998Z</time></trkpt><trkpt lat="38.3237432" lon="21.8794864"><ele>34.666666666666664</ele><time>2026-04-29T07:17:19.998Z</time></trkpt><trkpt lat="38.3237313" lon="21.8797437"><ele>34.333333333333336</ele><time>2026-04-29T07:17:20.997Z</time></trkpt><trkpt lat="38.3237194" lon="21.8800045"><ele>34.0</ele><time>2026-04-29T07:17:21.997Z</time></trkpt><trkpt lat="38.3237073" lon="21.8802678"><ele>30.666666666666668</ele><time>2026-04-29T07:17:22.997Z</time></trkpt><trkpt lat="38.3236946" lon="21.8805312"><ele>27.333333333333336</ele><time>2026-04-29T07:17:23.998Z</time></trkpt><trkpt lat="38.323684" lon="21.8807924"><ele>24.0</ele><time>2026-04-29T07:17:24.998Z</time></trkpt><trkpt lat="38.3236739" lon="21.8810512"><ele>22.666666666666668</ele><time>2026-04-29T07:17:25.998Z</time></trkpt><trkpt lat="38.3236599" lon="21.8813107"><ele>21.333333333333336</ele><time>2026-04-29T07:17:26.995Z</time></trkpt><trkpt lat="38.323642" lon="21.8815778"><ele>20.0</ele><time>2026-04-29T07:17:27.997Z</time></trkpt><trkpt lat="38.3236287" lon="21.8818262"><ele>20.0</ele><time>2026-04-29T07:17:28.997Z</time></trkpt><trkpt lat="38.3236126" lon="21.8820791"><ele>20.0</ele><time>2026-04-29T07:17:29.998Z</time></trkpt><trkpt lat="38.3236006" lon="21.8823122"><ele>20.0</ele><time>2026-04-29T07:17:30.998Z</time></trkpt><trkpt lat="38.3235819" lon="21.8825295"><ele>20.333333333333336</ele><time>2026-04-29T07:17:31.998Z</time></trkpt><trkpt lat="38.3235684" lon="21.8827423"><ele>20.666666666666668</ele><time>2026-04-29T07:17:32.997Z</time></trkpt><trkpt lat="38.3235559" lon="21.8829531"><ele>21.0</ele><time>2026-04-29T07:17:33.997Z</time></trkpt><trkpt lat="38.3235456" lon="21.8831673"><ele>21.0</ele><time>2026-04-29T07:17:34.997Z</time></trkpt><trkpt lat="38.323535" lon="21.8833861"><ele>21.0</ele><time>2026-04-29T07:17:35.997Z</time></trkpt><trkpt lat="38.3235209" lon="21.8836101"><ele>21.0</ele><time>2026-04-29T07:17:36.996Z</time></trkpt><trkpt lat="38.3235065" lon="21.883845"><ele>21.0</ele><time>2026-04-29T07:17:37.997Z</time></trkpt><trkpt lat="38.3234943" lon="21.884084"><ele>21.0</ele><time>2026-04-29T07:17:38.997Z</time></trkpt><trkpt lat="38.3234802" lon="21.8843211"><ele>21.0</ele><time>2026-04-29T07:17:39.997Z</time></trkpt><trkpt lat="38.3234685" lon="21.8845659"><ele>21.0</ele><time>2026-04-29T07:17:40.997Z</time></trkpt><trkpt lat="38.3234607" lon="21.8848264"><ele>21.0</ele><time>2026-04-29T07:17:41.997Z</time></trkpt><trkpt lat="38.3234449" lon="21.885076"><ele>21.0</ele><time>2026-04-29T07:17:42.996Z</time></trkpt><trkpt lat="38.323435" lon="21.8853356"><ele>21.0</ele><time>2026-04-29T07:17:43.996Z</time></trkpt><trkpt lat="38.3234263" lon="21.8855981"><ele>21.0</ele><time>2026-04-29T07:17:44.998Z</time></trkpt><trkpt lat="38.3234171" lon="21.885866"><ele>21.0</ele><time>2026-04-29T07:17:45.998Z</time></trkpt><trkpt lat="38.3234042" lon="21.8861369"><ele>19.666666666666668</ele><time>2026-04-29T07:17:46.998Z</time></trkpt><trkpt lat="38.3233956" lon="21.8864043"><ele>18.333333333333336</ele><time>2026-04-29T07:17:47.997Z</time></trkpt><trkpt lat="38.3233877" lon="21.8866769"><ele>17.0</ele><time>2026-04-29T07:17:48.997Z</time></trkpt><trkpt lat="38.3233785" lon="21.8869475"><ele>16.0</ele><time>2026-04-29T07:17:49.997Z</time></trkpt><trkpt lat="38.3233709" lon="21.8872196"><ele>15.0</ele><time>2026-04-29T07:17:50.997Z</time></trkpt><trkpt lat="38.323377" lon="21.887495"><ele>14.0</ele><time>2026-04-29T07:17:51.998Z</time></trkpt><trkpt lat="38.3233923" lon="21.8877755"><ele>13.5</ele><time>2026-04-29T07:17:52.998Z</time></trkpt><trkpt lat="38.3234203" lon="21.8880588"><ele>13.0</ele><time>2026-04-29T07:17:53.997Z</time></trkpt><trkpt lat="38.323458" lon="21.8883475"><ele>15.0</ele><time>2026-04-29T07:17:54.997Z</time></trkpt><trkpt lat="38.3235077" lon="21.8886325"><ele>17.0</ele><time>2026-04-29T07:17:55.998Z</time></trkpt><trkpt lat="38.3235715" lon="21.888919"><ele>17.0</ele><time>2026-04-29T07:17:56.996Z</time></trkpt><trkpt lat="38.3236482" lon="21.8892193"><ele>17.0</ele><time>2026-04-29T07:17:57.998Z</time></trkpt><trkpt lat="38.3237412" lon="21.8895053"><ele>19.0</ele><time>2026-04-29T07:17:58.998Z</time></trkpt><trkpt lat="38.3238335" lon="21.8897861"><ele>21.0</ele><time>2026-04-29T07:17:59.997Z</time></trkpt><trkpt lat="38.323923" lon="21.8900672"><ele>17.0</ele><time>2026-04-29T07:18:00.997Z</time></trkpt><trkpt lat="38.3240091" lon="21.8903424"><ele>13.0</ele><time>2026-04-29T07:18:01.998Z</time></trkpt><trkpt lat="38.3240905" lon="21.8906169"><ele>13.0</ele><time>2026-04-29T07:18:02.997Z</time></trkpt><trkpt lat="38.3241696" lon="21.8908738"><ele>13.0</ele><time>2026-04-29T07:18:03.996Z</time></trkpt><trkpt lat="38.3242445" lon="21.8911291"><ele>13.0</ele><time>2026-04-29T07:18:04.997Z</time></trkpt><trkpt lat="38.3243205" lon="21.8913758"><ele>15.0</ele><time>2026-04-29T07:18:05.997Z</time></trkpt><trkpt lat="38.3243928" lon="21.8916123"><ele>17.0</ele><time>2026-04-29T07:18:06.997Z</time></trkpt><trkpt lat="38.324464" lon="21.8918553"><ele>19.0</ele><time>2026-04-29T07:18:07.998Z</time></trkpt><trkpt lat="38.3245337" lon="21.8921044"><ele>18.666666666666664</ele><time>2026-04-29T07:18:08.997Z</time></trkpt><trkpt lat="38.3246057" lon="21.892349"><ele>18.333333333333332</ele><time>2026-04-29T07:18:09.997Z</time></trkpt><trkpt lat="38.3246756" lon="21.8925812"><ele>18.0</ele><time>2026-04-29T07:18:10.998Z</time></trkpt><trkpt lat="38.324742" lon="21.8928129"><ele>18.0</ele><time>2026-04-29T07:18:11.995Z</time></trkpt><trkpt lat="38.3248044" lon="21.8930469"><ele>18.0</ele><time>2026-04-29T07:18:12.997Z</time></trkpt><trkpt lat="38.3248604" lon="21.8932813"><ele>18.0</ele><time>2026-04-29T07:18:13.998Z</time></trkpt><trkpt lat="38.3249072" lon="21.8935154"><ele>19.333333333333332</ele><time>2026-04-29T07:18:14.997Z</time></trkpt><trkpt lat="38.3249405" lon="21.8937511"><ele>20.666666666666664</ele><time>2026-04-29T07:18:15.997Z</time></trkpt><trkpt lat="38.3249787" lon="21.893993"><ele>22.0</ele><time>2026-04-29T07:18:16.997Z</time></trkpt><trkpt lat="38.3250085" lon="21.8942466"><ele>22.0</ele><time>2026-04-29T07:18:17.997Z</time></trkpt><trkpt lat="38.3250262" lon="21.8944982"><ele>22.0</ele><time>2026-04-29T07:18:18.996Z</time></trkpt><trkpt lat="38.3250356" lon="21.8947526"><ele>22.0</ele><time>2026-04-29T07:18:19.997Z</time></trkpt><trkpt lat="38.3250251" lon="21.8950161"><ele>22.333333333333332</ele><time>2026-04-29T07:18:20.997Z</time></trkpt><trkpt lat="38.3250096" lon="21.895277"><ele>22.666666666666668</ele><time>2026-04-29T07:18:21.995Z</time></trkpt><trkpt lat="38.3249929" lon="21.8955397"><ele>23.0</ele><time>2026-04-29T07:18:22.996Z</time></trkpt><trkpt lat="38.3249759" lon="21.8958027"><ele>22.333333333333336</ele><time>2026-04-29T07:18:23.998Z</time></trkpt><trkpt lat="38.3249592" lon="21.8960635"><ele>21.666666666666668</ele><time>2026-04-29T07:18:24.998Z</time></trkpt><trkpt lat="38.3249422" lon="21.8963258"><ele>21.0</ele><time>2026-04-29T07:18:25.998Z</time></trkpt><trkpt lat="38.3249206" lon="21.8965876"><ele>21.333333333333332</ele><time>2026-04-29T07:18:26.998Z</time></trkpt><trkpt lat="38.3249053" lon="21.8968481"><ele>21.666666666666664</ele><time>2026-04-29T07:18:27.996Z</time></trkpt><trkpt lat="38.3248866" lon="21.8971042"><ele>22.0</ele><time>2026-04-29T07:18:28.998Z</time></trkpt><trkpt lat="38.3248696" lon="21.8973617"><ele>22.333333333333332</ele><time>2026-04-29T07:18:29.998Z</time></trkpt><trkpt lat="38.3248515" lon="21.8976087"><ele>22.666666666666668</ele><time>2026-04-29T07:18:30.995Z</time></trkpt><trkpt lat="38.32483" lon="21.8978466"><ele>23.0</ele><time>2026-04-29T07:18:31.996Z</time></trkpt><trkpt lat="38.3248035" lon="21.8980653"><ele>23.0</ele><time>2026-04-29T07:18:32.998Z</time></trkpt><trkpt lat="38.324772" lon="21.8982895"><ele>23.0</ele><time>2026-04-29T07:18:33.997Z</time></trkpt><trkpt lat="38.3247146" lon="21.8985028"><ele>23.0</ele><time>2026-04-29T07:18:34.998Z</time></trkpt><trkpt lat="38.3246394" lon="21.8987205"><ele>24.333333333333336</ele><time>2026-04-29T07:18:35.997Z</time></trkpt><trkpt lat="38.3245472" lon="21.8989316"><ele>25.666666666666668</ele><time>2026-04-29T07:18:36.997Z</time></trkpt><trkpt lat="38.3244507" lon="21.8991471"><ele>27.0</ele><time>2026-04-29T07:18:37.997Z</time></trkpt><trkpt lat="38.3243599" lon="21.8993734"><ele>27.0</ele><time>2026-04-29T07:18:38.997Z</time></trkpt><trkpt lat="38.3242801" lon="21.8996215"><ele>27.0</ele><time>2026-04-29T07:18:39.998Z</time></trkpt><trkpt lat="38.3242058" lon="21.899896"><ele>27.0</ele><time>2026-04-29T07:18:40.997Z</time></trkpt><trkpt lat="38.3241345" lon="21.9001777"><ele>24.0</ele><time>2026-04-29T07:18:41.998Z</time></trkpt><trkpt lat="38.3240638" lon="21.9004697"><ele>21.0</ele><time>2026-04-29T07:18:42.998Z</time></trkpt><trkpt lat="38.324001" lon="21.9007681"><ele>19.0</ele><time>2026-04-29T07:18:43.998Z</time></trkpt><trkpt lat="38.3239416" lon="21.9010868"><ele>17.0</ele><time>2026-04-29T07:18:44.997Z</time></trkpt><trkpt lat="38.3238863" lon="21.9014079"><ele>28.5</ele><time>2026-04-29T07:18:45.997Z</time></trkpt><trkpt lat="38.3238328" lon="21.9017278"><ele>40.0</ele><time>2026-04-29T07:18:46.998Z</time></trkpt><trkpt lat="38.3237862" lon="21.9020432"><ele>40.0</ele><time>2026-04-29T07:18:47.997Z</time></trkpt><trkpt lat="38.3237322" lon="21.9023611"><ele>40.0</ele><time>2026-04-29T07:18:48.997Z</time></trkpt><trkpt lat="38.3236699" lon="21.9026741"><ele>39.0</ele><time>2026-04-29T07:18:49.996Z</time></trkpt><trkpt lat="38.3236045" lon="21.9029825"><ele>38.0</ele><time>2026-04-29T07:18:50.998Z</time></trkpt><trkpt lat="38.3235467" lon="21.9032783"><ele>32.5</ele><time>2026-04-29T07:18:51.995Z</time></trkpt><trkpt lat="38.323477" lon="21.9035653"><ele>27.0</ele><time>2026-04-29T07:18:52.997Z</time></trkpt><trkpt lat="38.323413" lon="21.9038537"><ele>27.0</ele><time>2026-04-29T07:18:53.998Z</time></trkpt><trkpt lat="38.323359" lon="21.9041344"><ele>27.0</ele><time>2026-04-29T07:18:54.996Z</time></trkpt><trkpt lat="38.3233045" lon="21.9044066"><ele>27.0</ele><time>2026-04-29T07:18:55.997Z</time></trkpt><trkpt lat="38.3232589" lon="21.9046749"><ele>25.333333333333332</ele><time>2026-04-29T07:18:56.997Z</time></trkpt><trkpt lat="38.3232197" lon="21.9049484"><ele>23.666666666666664</ele><time>2026-04-29T07:18:57.998Z</time></trkpt><trkpt lat="38.3231906" lon="21.9052227"><ele>22.0</ele><time>2026-04-29T07:18:58.995Z</time></trkpt><trkpt lat="38.3231796" lon="21.9055042"><ele>22.0</ele><time>2026-04-29T07:18:59.998Z</time></trkpt><trkpt lat="38.32318" lon="21.905798"><ele>22.0</ele><time>2026-04-29T07:19:00.997Z</time></trkpt><trkpt lat="38.3231923" lon="21.906091"><ele>22.0</ele><time>2026-04-29T07:19:01.997Z</time></trkpt><trkpt lat="38.3232204" lon="21.9063794"><ele>22.0</ele><time>2026-04-29T07:19:02.997Z</time></trkpt><trkpt lat="38.3232623" lon="21.9066664"><ele>25.333333333333332</ele><time>2026-04-29T07:19:03.996Z</time></trkpt><trkpt lat="38.3233174" lon="21.9069417"><ele>28.666666666666664</ele><time>2026-04-29T07:19:04.998Z</time></trkpt><trkpt lat="38.3233869" lon="21.9072161"><ele>32.0</ele><time>2026-04-29T07:19:05.997Z</time></trkpt><trkpt lat="38.3234642" lon="21.9074977"><ele>38.5</ele><time>2026-04-29T07:19:06.997Z</time></trkpt><trkpt lat="38.3235548" lon="21.9077968"><ele>45.0</ele><time>2026-04-29T07:19:07.997Z</time></trkpt><trkpt lat="38.3236367" lon="21.9080913"><ele>45.0</ele><time>2026-04-29T07:19:08.998Z</time></trkpt><trkpt lat="38.3237356" lon="21.9083975"><ele>45.0</ele><time>2026-04-29T07:19:09.995Z</time></trkpt><trkpt lat="38.3238269" lon="21.9086887"><ele>35.5</ele><time>2026-04-29T07:19:10.998Z</time></trkpt><trkpt lat="38.3239192" lon="21.9089819"><ele>26.0</ele><time>2026-04-29T07:19:11.996Z</time></trkpt><trkpt lat="38.3240051" lon="21.9092699"><ele>26.0</ele><time>2026-04-29T07:19:12.997Z</time></trkpt><trkpt lat="38.3240917" lon="21.909553"><ele>26.0</ele><time>2026-04-29T07:19:13.997Z</time></trkpt><trkpt lat="38.3241786" lon="21.9098361"><ele>28.0</ele><time>2026-04-29T07:19:14.998Z</time></trkpt><trkpt lat="38.3242625" lon="21.9101172"><ele>30.0</ele><time>2026-04-29T07:19:15.997Z</time></trkpt><trkpt lat="38.3243466" lon="21.9103911"><ele>30.0</ele><time>2026-04-29T07:19:16.998Z</time></trkpt><trkpt lat="38.3244233" lon="21.9106542"><ele>30.0</ele><time>2026-04-29T07:19:17.997Z</time></trkpt><trkpt lat="38.3244902" lon="21.9109172"><ele>30.0</ele><time>2026-04-29T07:19:18.996Z</time></trkpt><trkpt lat="38.324548" lon="21.9111785"><ele>30.333333333333336</ele><time>2026-04-29T07:19:19.997Z</time></trkpt><trkpt lat="38.3245916" lon="21.9114412"><ele>30.666666666666668</ele><time>2026-04-29T07:19:20.997Z</time></trkpt><trkpt lat="38.3246265" lon="21.9117097"><ele>31.0</ele><time>2026-04-29T07:19:21.996Z</time></trkpt><trkpt lat="38.3246465" lon="21.9119844"><ele>31.0</ele><time>2026-04-29T07:19:22.998Z</time></trkpt><trkpt lat="38.3246545" lon="21.9122568"><ele>31.0</ele><time>2026-04-29T07:19:23.997Z</time></trkpt><trkpt lat="38.324645" lon="21.9125276"><ele>31.0</ele><time>2026-04-29T07:19:24.998Z</time></trkpt><trkpt lat="38.3246295" lon="21.9127971"><ele>33.333333333333336</ele><time>2026-04-29T07:19:25.997Z</time></trkpt><trkpt lat="38.3245978" lon="21.9130673"><ele>35.666666666666664</ele><time>2026-04-29T07:19:26.998Z</time></trkpt><trkpt lat="38.324548" lon="21.9133472"><ele>38.0</ele><time>2026-04-29T07:19:27.997Z</time></trkpt><trkpt lat="38.3244913" lon="21.9136228"><ele>38.0</ele><time>2026-04-29T07:19:28.998Z</time></trkpt><trkpt lat="38.3244287" lon="21.9138995"><ele>38.0</ele><time>2026-04-29T07:19:29.997Z</time></trkpt><trkpt lat="38.3243649" lon="21.9141838"><ele>32.5</ele><time>2026-04-29T07:19:30.998Z</time></trkpt><trkpt lat="38.3242979" lon="21.9144713"><ele>27.0</ele><time>2026-04-29T07:19:31.997Z</time></trkpt><trkpt lat="38.3242369" lon="21.9147459"><ele>27.0</ele><time>2026-04-29T07:19:32.997Z</time></trkpt><trkpt lat="38.3241789" lon="21.9150229"><ele>27.0</ele><time>2026-04-29T07:19:33.997Z</time></trkpt><trkpt lat="38.324133" lon="21.9153049"><ele>20.0</ele><time>2026-04-29T07:19:34.997Z</time></trkpt><trkpt lat="38.3240895" lon="21.9155861"><ele>13.0</ele><time>2026-04-29T07:19:35.998Z</time></trkpt><trkpt lat="38.3240526" lon="21.9158729"><ele>14.5</ele><time>2026-04-29T07:19:36.997Z</time></trkpt><trkpt lat="38.3240217" lon="21.9161541"><ele>16.0</ele><time>2026-04-29T07:19:37.998Z</time></trkpt><trkpt lat="38.3240012" lon="21.9164452"><ele>16.0</ele><time>2026-04-29T07:19:38.997Z</time></trkpt><trkpt lat="38.323972" lon="21.9167266"><ele>16.0</ele><time>2026-04-29T07:19:39.997Z</time></trkpt><trkpt lat="38.3239445" lon="21.9170069"><ele>16.0</ele><time>2026-04-29T07:19:40.997Z</time></trkpt><trkpt lat="38.3239147" lon="21.9172759"><ele>32.0</ele><time>2026-04-29T07:19:41.998Z</time></trkpt><trkpt lat="38.3238901" lon="21.9175527"><ele>48.0</ele><time>2026-04-29T07:19:42.998Z</time></trkpt><trkpt lat="38.3238729" lon="21.9178393"><ele>64.0</ele><time>2026-04-29T07:19:43.997Z</time></trkpt><trkpt lat="38.3238536" lon="21.9181192"><ele>55.5</ele><time>2026-04-29T07:19:44.997Z</time></trkpt><trkpt lat="38.3238253" lon="21.9184053"><ele>47.0</ele><time>2026-04-29T07:19:45.996Z</time></trkpt><trkpt lat="38.3237941" lon="21.9186946"><ele>47.0</ele><time>2026-04-29T07:19:46.998Z</time></trkpt><trkpt lat="38.3237656" lon="21.9189897"><ele>47.0</ele><time>2026-04-29T07:19:47.997Z</time></trkpt><trkpt lat="38.3237319" lon="21.9192783"><ele>45.0</ele><time>2026-04-29T07:19:48.998Z</time></trkpt><trkpt lat="38.3237116" lon="21.919556"><ele>43.0</ele><time>2026-04-29T07:19:49.997Z</time></trkpt><trkpt lat="38.3236778" lon="21.9198402"><ele>41.0</ele><time>2026-04-29T07:19:50.998Z</time></trkpt><trkpt lat="38.3236418" lon="21.9201084"><ele>40.33333333333333</ele><time>2026-04-29T07:19:51.998Z</time></trkpt><trkpt lat="38.3236163" lon="21.9203785"><ele>39.666666666666664</ele><time>2026-04-29T07:19:52.998Z</time></trkpt><trkpt lat="38.3235901" lon="21.9206469"><ele>39.0</ele><time>2026-04-29T07:19:53.998Z</time></trkpt><trkpt lat="38.3235652" lon="21.9209173"><ele>36.666666666666664</ele><time>2026-04-29T07:19:54.997Z</time></trkpt><trkpt lat="38.3235516" lon="21.9211888"><ele>34.33333333333333</ele><time>2026-04-29T07:19:55.997Z</time></trkpt><trkpt lat="38.3235471" lon="21.921462"><ele>32.0</ele><time>2026-04-29T07:19:56.997Z</time></trkpt><trkpt lat="38.3235566" lon="21.9217261"><ele>33.666666666666664</ele><time>2026-04-29T07:19:57.998Z</time></trkpt><trkpt lat="38.32358" lon="21.9219964"><ele>35.333333333333336</ele><time>2026-04-29T07:19:58.997Z</time></trkpt><trkpt lat="38.323612" lon="21.9222629"><ele>37.0</ele><time>2026-04-29T07:19:59.998Z</time></trkpt><trkpt lat="38.3236557" lon="21.922529"><ele>40.333333333333336</ele><time>2026-04-29T07:20:00.998Z</time></trkpt><trkpt lat="38.323718" lon="21.9227863"><ele>43.666666666666664</ele><time>2026-04-29T07:20:01.997Z</time></trkpt><trkpt lat="38.323786" lon="21.9230404"><ele>47.0</ele><time>2026-04-29T07:20:02.997Z</time></trkpt><trkpt lat="38.32387" lon="21.9232933"><ele>40.0</ele><time>2026-04-29T07:20:03.998Z</time></trkpt><trkpt lat="38.3239695" lon="21.9235428"><ele>33.0</ele><time>2026-04-29T07:20:04.997Z</time></trkpt><trkpt lat="38.3240771" lon="21.923782"><ele>26.0</ele><time>2026-04-29T07:20:05.998Z</time></trkpt><trkpt lat="38.3241975" lon="21.9240221"><ele>28.5</ele><time>2026-04-29T07:20:06.998Z</time></trkpt><trkpt lat="38.3243318" lon="21.9242567"><ele>31.0</ele><time>2026-04-29T07:20:07.998Z</time></trkpt><trkpt lat="38.3244744" lon="21.924482"><ele>31.0</ele><time>2026-04-29T07:20:08.998Z</time></trkpt><trkpt lat="38.3246308" lon="21.9247086"><ele>31.0</ele><time>2026-04-29T07:20:09.998Z</time></trkpt><trkpt lat="38.3247819" lon="21.9249274"><ele>30.0</ele><time>2026-04-29T07:20:10.997Z</time></trkpt><trkpt lat="38.3249314" lon="21.925147"><ele>29.0</ele><time>2026-04-29T07:20:11.998Z</time></trkpt><trkpt lat="38.3250647" lon="21.9253734"><ele>29.0</ele><time>2026-04-29T07:20:12.997Z</time></trkpt><trkpt lat="38.3251967" lon="21.9255992"><ele>29.0</ele><time>2026-04-29T07:20:13.998Z</time></trkpt><trkpt lat="38.3253166" lon="21.9258216"><ele>29.0</ele><time>2026-04-29T07:20:14.995Z</time></trkpt><trkpt lat="38.325428" lon="21.9260378"><ele>28.0</ele><time>2026-04-29T07:20:15.997Z</time></trkpt><trkpt lat="38.3255488" lon="21.9262555"><ele>27.0</ele><time>2026-04-29T07:20:16.997Z</time></trkpt><trkpt lat="38.3256653" lon="21.9264663"><ele>26.0</ele><time>2026-04-29T07:20:17.997Z</time></trkpt><trkpt lat="38.3257853" lon="21.926685"><ele>28.0</ele><time>2026-04-29T07:20:18.998Z</time></trkpt><trkpt lat="38.3259012" lon="21.9269022"><ele>30.0</ele><time>2026-04-29T07:20:19.998Z</time></trkpt><trkpt lat="38.3260146" lon="21.9271164"><ele>32.0</ele><time>2026-04-29T07:20:20.997Z</time></trkpt><trkpt lat="38.3261274" lon="21.9273262"><ele>32.0</ele><time>2026-04-29T07:20:21.998Z</time></trkpt><trkpt lat="38.3262376" lon="21.9275357"><ele>32.0</ele><time>2026-04-29T07:20:22.997Z</time></trkpt><trkpt lat="38.3263354" lon="21.9277449"><ele>32.0</ele><time>2026-04-29T07:20:23.998Z</time></trkpt><trkpt lat="38.326426" lon="21.9279583"><ele>30.0</ele><time>2026-04-29T07:20:24.997Z</time></trkpt><trkpt lat="38.3265095" lon="21.9281764"><ele>28.0</ele><time>2026-04-29T07:20:25.997Z</time></trkpt><trkpt lat="38.3265791" lon="21.9283995"><ele>26.0</ele><time>2026-04-29T07:20:26.996Z</time></trkpt><trkpt lat="38.3266412" lon="21.9286288"><ele>26.0</ele><time>2026-04-29T07:20:27.998Z</time></trkpt><trkpt lat="38.3266922" lon="21.9288576"><ele>26.0</ele><time>2026-04-29T07:20:28.996Z</time></trkpt><trkpt lat="38.3267358" lon="21.9290821"><ele>26.0</ele><time>2026-04-29T07:20:29.997Z</time></trkpt><trkpt lat="38.3267678" lon="21.92931"><ele>25.666666666666664</ele><time>2026-04-29T07:20:30.997Z</time></trkpt><trkpt lat="38.3267897" lon="21.9295412"><ele>25.333333333333336</ele><time>2026-04-29T07:20:31.998Z</time></trkpt><trkpt lat="38.3267997" lon="21.9297848"><ele>25.0</ele><time>2026-04-29T07:20:32.997Z</time></trkpt><trkpt lat="38.3268019" lon="21.9300348"><ele>25.333333333333336</ele><time>2026-04-29T07:20:33.998Z</time></trkpt><trkpt lat="38.3267902" lon="21.9303055"><ele>25.666666666666664</ele><time>2026-04-29T07:20:34.997Z</time></trkpt><trkpt lat="38.3267697" lon="21.9305964"><ele>26.0</ele><time>2026-04-29T07:20:35.998Z</time></trkpt><trkpt lat="38.326744" lon="21.9308956"><ele>24.5</ele><time>2026-04-29T07:20:36.997Z</time></trkpt><trkpt lat="38.326708" lon="21.931199"><ele>23.0</ele><time>2026-04-29T07:20:37.998Z</time></trkpt><trkpt lat="38.326671" lon="21.9315099"><ele>22.0</ele><time>2026-04-29T07:20:38.998Z</time></trkpt><trkpt lat="38.3266332" lon="21.9318324"><ele>21.0</ele><time>2026-04-29T07:20:39.997Z</time></trkpt><trkpt lat="38.3265963" lon="21.9321494"><ele>21.0</ele><time>2026-04-29T07:20:40.997Z</time></trkpt><trkpt lat="38.3265632" lon="21.932457"><ele>21.0</ele><time>2026-04-29T07:20:41.997Z</time></trkpt><trkpt lat="38.3265363" lon="21.9327672"><ele>19.5</ele><time>2026-04-29T07:20:42.998Z</time></trkpt><trkpt lat="38.3265138" lon="21.9330669"><ele>18.0</ele><time>2026-04-29T07:20:43.997Z</time></trkpt><trkpt lat="38.3265005" lon="21.9333741"><ele>16.0</ele><time>2026-04-29T07:20:44.998Z</time></trkpt><trkpt lat="38.3264773" lon="21.9336736"><ele>14.0</ele><time>2026-04-29T07:20:45.997Z</time></trkpt><trkpt lat="38.3264531" lon="21.9339665"><ele>13.0</ele><time>2026-04-29T07:20:46.997Z</time></trkpt><trkpt lat="38.3264308" lon="21.9342657"><ele>12.0</ele><time>2026-04-29T07:20:47.998Z</time></trkpt><trkpt lat="38.3264049" lon="21.9345726"><ele>35.5</ele><time>2026-04-29T07:20:48.998Z</time></trkpt><trkpt lat="38.3263864" lon="21.934868"><ele>59.0</ele><time>2026-04-29T07:20:49.997Z</time></trkpt><trkpt lat="38.3263683" lon="21.9351654"><ele>59.0</ele><time>2026-04-29T07:20:50.997Z</time></trkpt><trkpt lat="38.3263557" lon="21.9354548"><ele>59.0</ele><time>2026-04-29T07:20:51.997Z</time></trkpt><trkpt lat="38.3263417" lon="21.93574"><ele>53.5</ele><time>2026-04-29T07:20:52.997Z</time></trkpt><trkpt lat="38.326326" lon="21.9360387"><ele>48.0</ele><time>2026-04-29T07:20:53.996Z</time></trkpt><trkpt lat="38.3263075" lon="21.9363203"><ele>48.0</ele><time>2026-04-29T07:20:54.997Z</time></trkpt><trkpt lat="38.3263017" lon="21.9365979"><ele>48.0</ele><time>2026-04-29T07:20:55.997Z</time></trkpt><trkpt lat="38.3262883" lon="21.9368705"><ele>48.0</ele><time>2026-04-29T07:20:56.998Z</time></trkpt><trkpt lat="38.32628" lon="21.9371429"><ele>44.333333333333336</ele><time>2026-04-29T07:20:57.997Z</time></trkpt><trkpt lat="38.3262805" lon="21.9374197"><ele>40.66666666666667</ele><time>2026-04-29T07:20:58.997Z</time></trkpt><trkpt lat="38.3262959" lon="21.9376952"><ele>37.0</ele><time>2026-04-29T07:20:59.998Z</time></trkpt><trkpt lat="38.3263281" lon="21.9379712"><ele>36.66666666666667</ele><time>2026-04-29T07:21:00.998Z</time></trkpt><trkpt lat="38.3263703" lon="21.9382449"><ele>36.333333333333336</ele><time>2026-04-29T07:21:01.997Z</time></trkpt><trkpt lat="38.3264386" lon="21.9385114"><ele>36.0</ele><time>2026-04-29T07:21:02.997Z</time></trkpt><trkpt lat="38.3265146" lon="21.9387715"><ele>31.666666666666668</ele><time>2026-04-29T07:21:03.997Z</time></trkpt><trkpt lat="38.3266004" lon="21.9390304"><ele>27.333333333333336</ele><time>2026-04-29T07:21:04.997Z</time></trkpt><trkpt lat="38.3266866" lon="21.9392864"><ele>23.0</ele><time>2026-04-29T07:21:05.998Z</time></trkpt><trkpt lat="38.3267721" lon="21.9395412"><ele>23.0</ele><time>2026-04-29T07:21:06.996Z</time></trkpt><trkpt lat="38.3268563" lon="21.9398014"><ele>23.0</ele><time>2026-04-29T07:21:07.996Z</time></trkpt><trkpt lat="38.3269515" lon="21.9400768"><ele>25.0</ele><time>2026-04-29T07:21:08.997Z</time></trkpt><trkpt lat="38.3270449" lon="21.9403546"><ele>27.0</ele><time>2026-04-29T07:21:09.996Z</time></trkpt><trkpt lat="38.3271372" lon="21.940635"><ele>22.5</ele><time>2026-04-29T07:21:10.996Z</time></trkpt><trkpt lat="38.3272288" lon="21.9409236"><ele>18.0</ele><time>2026-04-29T07:21:11.997Z</time></trkpt><trkpt lat="38.327321" lon="21.9412018"><ele>18.0</ele><time>2026-04-29T07:21:12.997Z</time></trkpt><trkpt lat="38.3274107" lon="21.9414787"><ele>18.0</ele><time>2026-04-29T07:21:13.998Z</time></trkpt><trkpt lat="38.3275016" lon="21.9417524"><ele>21.666666666666664</ele><time>2026-04-29T07:21:14.997Z</time></trkpt><trkpt lat="38.3275875" lon="21.9420168"><ele>25.333333333333332</ele><time>2026-04-29T07:21:15.997Z</time></trkpt><trkpt lat="38.3276692" lon="21.9422767"><ele>29.0</ele><time>2026-04-29T07:21:16.998Z</time></trkpt><trkpt lat="38.3277272" lon="21.9425302"><ele>32.33333333333333</ele><time>2026-04-29T07:21:17.998Z</time></trkpt><trkpt lat="38.3277719" lon="21.9427878"><ele>35.666666666666664</ele><time>2026-04-29T07:21:18.994Z</time></trkpt><trkpt lat="38.3277981" lon="21.9430429"><ele>39.0</ele><time>2026-04-29T07:21:19.998Z</time></trkpt><trkpt lat="38.3278204" lon="21.9433132"><ele>38.333333333333336</ele><time>2026-04-29T07:21:20.998Z</time></trkpt><trkpt lat="38.32783" lon="21.9435834"><ele>37.66666666666667</ele><time>2026-04-29T07:21:21.998Z</time></trkpt><trkpt lat="38.3278347" lon="21.9438563"><ele>37.0</ele><time>2026-04-29T07:21:22.998Z</time></trkpt><trkpt lat="38.3278352" lon="21.9441307"><ele>35.66666666666667</ele><time>2026-04-29T07:21:23.997Z</time></trkpt><trkpt lat="38.3278197" lon="21.9444078"><ele>34.333333333333336</ele><time>2026-04-29T07:21:24.997Z</time></trkpt><trkpt lat="38.3277847" lon="21.944688"><ele>33.0</ele><time>2026-04-29T07:21:25.997Z</time></trkpt><trkpt lat="38.3277597" lon="21.9449659"><ele>32.0</ele><time>2026-04-29T07:21:26.996Z</time></trkpt><trkpt lat="38.3277252" lon="21.9452613"><ele>31.0</ele><time>2026-04-29T07:21:27.997Z</time></trkpt><trkpt lat="38.3276979" lon="21.9455669"><ele>31.0</ele><time>2026-04-29T07:21:28.995Z</time></trkpt><trkpt lat="38.3276743" lon="21.9458779"><ele>31.0</ele><time>2026-04-29T07:21:29.997Z</time></trkpt><trkpt lat="38.3276515" lon="21.9461863"><ele>30.0</ele><time>2026-04-29T07:21:30.995Z</time></trkpt><trkpt lat="38.3276344" lon="21.9464907"><ele>29.0</ele><time>2026-04-29T07:21:31.996Z</time></trkpt><trkpt lat="38.3276189" lon="21.9467853"><ele>29.0</ele><time>2026-04-29T07:21:32.997Z</time></trkpt><trkpt lat="38.3276019" lon="21.9470744"><ele>29.0</ele><time>2026-04-29T07:21:33.998Z</time></trkpt><trkpt lat="38.327583" lon="21.9473708"><ele>27.0</ele><time>2026-04-29T07:21:34.996Z</time></trkpt><trkpt lat="38.3275633" lon="21.9476677"><ele>25.0</ele><time>2026-04-29T07:21:35.998Z</time></trkpt><trkpt lat="38.3275422" lon="21.9479658"><ele>25.0</ele><time>2026-04-29T07:21:36.997Z</time></trkpt><trkpt lat="38.3275188" lon="21.94826"><ele>25.0</ele><time>2026-04-29T07:21:37.997Z</time></trkpt><trkpt lat="38.3274978" lon="21.9485521"><ele>25.0</ele><time>2026-04-29T07:21:38.997Z</time></trkpt><trkpt lat="38.3274736" lon="21.9488473"><ele>25.0</ele><time>2026-04-29T07:21:39.998Z</time></trkpt><trkpt lat="38.3274523" lon="21.9491412"><ele>22.333333333333336</ele><time>2026-04-29T07:21:40.997Z</time></trkpt><trkpt lat="38.3274165" lon="21.9494251"><ele>19.666666666666668</ele><time>2026-04-29T07:21:41.998Z</time></trkpt><trkpt lat="38.3273719" lon="21.949704"><ele>17.0</ele><time>2026-04-29T07:21:42.998Z</time></trkpt><trkpt lat="38.3273253" lon="21.9499818"><ele>15.666666666666668</ele><time>2026-04-29T07:21:43.997Z</time></trkpt><trkpt lat="38.3272627" lon="21.950251"><ele>14.333333333333332</ele><time>2026-04-29T07:21:44.997Z</time></trkpt><trkpt lat="38.3271903" lon="21.950527"><ele>13.0</ele><time>2026-04-29T07:21:45.995Z</time></trkpt><trkpt lat="38.3271037" lon="21.9508127"><ele>22.5</ele><time>2026-04-29T07:21:46.997Z</time></trkpt><trkpt lat="38.3270131" lon="21.9510977"><ele>32.0</ele><time>2026-04-29T07:21:47.998Z</time></trkpt><trkpt lat="38.3269099" lon="21.9513892"><ele>32.0</ele><time>2026-04-29T07:21:48.998Z</time></trkpt><trkpt lat="38.3268171" lon="21.9516826"><ele>32.0</ele><time>2026-04-29T07:21:49.998Z</time></trkpt><trkpt lat="38.326716" lon="21.9519674"><ele>24.5</ele><time>2026-04-29T07:21:50.996Z</time></trkpt><trkpt lat="38.3266232" lon="21.9522537"><ele>17.0</ele><time>2026-04-29T07:21:51.997Z</time></trkpt><trkpt lat="38.3265284" lon="21.9525269"><ele>14.5</ele><time>2026-04-29T07:21:52.997Z</time></trkpt><trkpt lat="38.3264498" lon="21.9528047"><ele>12.0</ele><time>2026-04-29T07:21:53.997Z</time></trkpt><trkpt lat="38.3263788" lon="21.9530882"><ele>28.5</ele><time>2026-04-29T07:21:54.998Z</time></trkpt><trkpt lat="38.3263234" lon="21.953365"><ele>45.0</ele><time>2026-04-29T07:21:55.994Z</time></trkpt><trkpt lat="38.326273" lon="21.9536527"><ele>45.0</ele><time>2026-04-29T07:21:56.998Z</time></trkpt><trkpt lat="38.3262353" lon="21.9539607"><ele>45.0</ele><time>2026-04-29T07:21:57.998Z</time></trkpt><trkpt lat="38.3262011" lon="21.9542565"><ele>46.0</ele><time>2026-04-29T07:21:58.998Z</time></trkpt><trkpt lat="38.3261806" lon="21.954559"><ele>47.0</ele><time>2026-04-29T07:21:59.998Z</time></trkpt><trkpt lat="38.3261725" lon="21.9548674"><ele>45.5</ele><time>2026-04-29T07:22:00.997Z</time></trkpt><trkpt lat="38.3261599" lon="21.9551635"><ele>44.0</ele><time>2026-04-29T07:22:01.997Z</time></trkpt><trkpt lat="38.3261487" lon="21.9554588"><ele>44.0</ele><time>2026-04-29T07:22:02.997Z</time></trkpt><trkpt lat="38.3261351" lon="21.9557422"><ele>44.0</ele><time>2026-04-29T07:22:03.997Z</time></trkpt><trkpt lat="38.3261196" lon="21.9560259"><ele>44.0</ele><time>2026-04-29T07:22:04.998Z</time></trkpt><trkpt lat="38.3261025" lon="21.9563079"><ele>41.5</ele><time>2026-04-29T07:22:05.997Z</time></trkpt><trkpt lat="38.3260793" lon="21.9565903"><ele>39.0</ele><time>2026-04-29T07:22:06.998Z</time></trkpt><trkpt lat="38.3260446" lon="21.9568768"><ele>34.5</ele><time>2026-04-29T07:22:07.998Z</time></trkpt><trkpt lat="38.3260087" lon="21.9571687"><ele>30.0</ele><time>2026-04-29T07:22:08.997Z</time></trkpt><trkpt lat="38.3259622" lon="21.9574562"><ele>24.5</ele><time>2026-04-29T07:22:09.996Z</time></trkpt><trkpt lat="38.3259103" lon="21.957739"><ele>19.0</ele><time>2026-04-29T07:22:10.994Z</time></trkpt><trkpt lat="38.3258453" lon="21.9580178"><ele>19.0</ele><time>2026-04-29T07:22:11.995Z</time></trkpt><trkpt lat="38.3257785" lon="21.9582868"><ele>19.0</ele><time>2026-04-29T07:22:12.995Z</time></trkpt><trkpt lat="38.3257078" lon="21.9585496"><ele>19.0</ele><time>2026-04-29T07:22:13.998Z</time></trkpt><trkpt lat="38.3256143" lon="21.9588212"><ele>22.0</ele><time>2026-04-29T07:22:14.997Z</time></trkpt><trkpt lat="38.3255282" lon="21.959086"><ele>25.0</ele><time>2026-04-29T07:22:15.998Z</time></trkpt><trkpt lat="38.3254329" lon="21.9593301"><ele>28.0</ele><time>2026-04-29T07:22:16.997Z</time></trkpt><trkpt lat="38.325343" lon="21.9595642"><ele>28.0</ele><time>2026-04-29T07:22:17.997Z</time></trkpt><trkpt lat="38.3252557" lon="21.9597644"><ele>28.0</ele><time>2026-04-29T07:22:18.998Z</time></trkpt><trkpt lat="38.325183" lon="21.959954"><ele>28.0</ele><time>2026-04-29T07:22:19.997Z</time></trkpt><trkpt lat="38.325118" lon="21.9601312"><ele>26.25</ele><time>2026-04-29T07:22:20.997Z</time></trkpt><trkpt lat="38.3250797" lon="21.960303"><ele>24.5</ele><time>2026-04-29T07:22:21.998Z</time></trkpt><trkpt lat="38.3250727" lon="21.9604754"><ele>22.75</ele><time>2026-04-29T07:22:22.997Z</time></trkpt><trkpt lat="38.3250982" lon="21.9606483"><ele>21.0</ele><time>2026-04-29T07:22:23.998Z</time></trkpt><trkpt lat="38.3251427" lon="21.9608183"><ele>17.5</ele><time>2026-04-29T07:22:24.998Z</time></trkpt><trkpt lat="38.325136" lon="21.9610013"><ele>14.0</ele><time>2026-04-29T07:22:25.997Z</time></trkpt><trkpt lat="38.3251169" lon="21.9611648"><ele>10.5</ele><time>2026-04-29T07:22:26.997Z</time></trkpt><trkpt lat="38.3250628" lon="21.9613346"><ele>7.0</ele><time>2026-04-29T07:22:27.998Z</time></trkpt><trkpt lat="38.3249578" lon="21.9615087"><ele>7.0</ele><time>2026-04-29T07:22:28.998Z</time></trkpt><trkpt lat="38.3248389" lon="21.9616726"><ele>7.0</ele><time>2026-04-29T07:22:29.997Z</time></trkpt><trkpt lat="38.3246956" lon="21.9618484"><ele>7.0</ele><time>2026-04-29T07:22:30.996Z</time></trkpt><trkpt lat="38.3245466" lon="21.962058"><ele>6.666666666666667</ele><time>2026-04-29T07:22:31.997Z</time></trkpt><trkpt lat="38.3244159" lon="21.9622749"><ele>6.333333333333334</ele><time>2026-04-29T07:22:32.997Z</time></trkpt><trkpt lat="38.3242861" lon="21.9625079"><ele>6.0</ele><time>2026-04-29T07:22:33.997Z</time></trkpt><trkpt lat="38.3241793" lon="21.9627526"><ele>6.0</ele><time>2026-04-29T07:22:34.997Z</time></trkpt><trkpt lat="38.3240862" lon="21.9630234"><ele>6.0</ele><time>2026-04-29T07:22:35.997Z</time></trkpt><trkpt lat="38.3239897" lon="21.9633008"><ele>6.5</ele><time>2026-04-29T07:22:36.997Z</time></trkpt><trkpt lat="38.3238997" lon="21.9635841"><ele>7.0</ele><time>2026-04-29T07:22:37.996Z</time></trkpt><trkpt lat="38.3238221" lon="21.963861"><ele>11.0</ele><time>2026-04-29T07:22:38.997Z</time></trkpt><trkpt lat="38.3237584" lon="21.9641257"><ele>15.0</ele><time>2026-04-29T07:22:39.997Z</time></trkpt><trkpt lat="38.3236995" lon="21.9643877"><ele>19.0</ele><time>2026-04-29T07:22:40.997Z</time></trkpt><trkpt lat="38.3236329" lon="21.9646433"><ele>19.0</ele><time>2026-04-29T07:22:41.996Z</time></trkpt><trkpt lat="38.3235637" lon="21.9648825"><ele>19.0</ele><time>2026-04-29T07:22:42.997Z</time></trkpt><trkpt lat="38.3234816" lon="21.9651148"><ele>19.0</ele><time>2026-04-29T07:22:43.998Z</time></trkpt><trkpt lat="38.3233966" lon="21.9653421"><ele>21.0</ele><time>2026-04-29T07:22:44.998Z</time></trkpt><trkpt lat="38.3232965" lon="21.9655736"><ele>23.0</ele><time>2026-04-29T07:22:45.997Z</time></trkpt><trkpt lat="38.3231785" lon="21.9658089"><ele>25.0</ele><time>2026-04-29T07:22:46.997Z</time></trkpt><trkpt lat="38.3230627" lon="21.9660608"><ele>25.0</ele><time>2026-04-29T07:22:47.995Z</time></trkpt><trkpt lat="38.3229411" lon="21.966317"><ele>25.0</ele><time>2026-04-29T07:22:48.997Z</time></trkpt><trkpt lat="38.322832" lon="21.9665722"><ele>22.0</ele><time>2026-04-29T07:22:49.997Z</time></trkpt><trkpt lat="38.3227327" lon="21.9668169"><ele>19.0</ele><time>2026-04-29T07:22:50.997Z</time></trkpt><trkpt lat="38.3226366" lon="21.9670462"><ele>16.0</ele><time>2026-04-29T07:22:51.997Z</time></trkpt><trkpt lat="38.3225431" lon="21.9672619"><ele>16.0</ele><time>2026-04-29T07:22:52.997Z</time></trkpt><trkpt lat="38.3224351" lon="21.9674878"><ele>16.0</ele><time>2026-04-29T07:22:53.998Z</time></trkpt><trkpt lat="38.322317" lon="21.9677245"><ele>16.0</ele><time>2026-04-29T07:22:54.998Z</time></trkpt><trkpt lat="38.3222002" lon="21.9679554"><ele>14.666666666666666</ele><time>2026-04-29T07:22:55.997Z</time></trkpt><trkpt lat="38.3220801" lon="21.9681861"><ele>13.333333333333332</ele><time>2026-04-29T07:22:56.998Z</time></trkpt><trkpt lat="38.3219553" lon="21.9684195"><ele>12.0</ele><time>2026-04-29T07:22:57.998Z</time></trkpt><trkpt lat="38.3218308" lon="21.9686548"><ele>12.0</ele><time>2026-04-29T07:22:58.997Z</time></trkpt><trkpt lat="38.3217139" lon="21.9688988"><ele>12.0</ele><time>2026-04-29T07:22:59.997Z</time></trkpt><trkpt lat="38.3216076" lon="21.9691401"><ele>12.0</ele><time>2026-04-29T07:23:00.997Z</time></trkpt><trkpt lat="38.3215071" lon="21.969394"><ele>10.0</ele><time>2026-04-29T07:23:01.998Z</time></trkpt><trkpt lat="38.3214057" lon="21.9696506"><ele>8.0</ele><time>2026-04-29T07:23:02.998Z</time></trkpt><trkpt lat="38.3213064" lon="21.9699021"><ele>6.0</ele><time>2026-04-29T07:23:03.998Z</time></trkpt><trkpt lat="38.3212085" lon="21.9701489"><ele>7.333333333333334</ele><time>2026-04-29T07:23:04.998Z</time></trkpt><trkpt lat="38.3211071" lon="21.9703954"><ele>8.666666666666668</ele><time>2026-04-29T07:23:05.997Z</time></trkpt><trkpt lat="38.3210027" lon="21.9706439"><ele>10.0</ele><time>2026-04-29T07:23:06.998Z</time></trkpt><trkpt lat="38.3209055" lon="21.970884"><ele>10.0</ele><time>2026-04-29T07:23:07.998Z</time></trkpt><trkpt lat="38.3208115" lon="21.9711241"><ele>10.0</ele><time>2026-04-29T07:23:08.998Z</time></trkpt><trkpt lat="38.3207274" lon="21.9713684"><ele>10.0</ele><time>2026-04-29T07:23:09.997Z</time></trkpt><trkpt lat="38.3206543" lon="21.9716021"><ele>9.0</ele><time>2026-04-29T07:23:10.998Z</time></trkpt><trkpt lat="38.3205921" lon="21.9718435"><ele>8.0</ele><time>2026-04-29T07:23:11.998Z</time></trkpt><trkpt lat="38.3205331" lon="21.9720588"><ele>7.0</ele><time>2026-04-29T07:23:12.998Z</time></trkpt><trkpt lat="38.3204612" lon="21.9722664"><ele>10.666666666666668</ele><time>2026-04-29T07:23:13.997Z</time></trkpt><trkpt lat="38.3203641" lon="21.9724764"><ele>14.333333333333334</ele><time>2026-04-29T07:23:14.998Z</time></trkpt><trkpt lat="38.3202552" lon="21.9726891"><ele>18.0</ele><time>2026-04-29T07:23:15.997Z</time></trkpt><trkpt lat="38.3201218" lon="21.9728982"><ele>18.0</ele><time>2026-04-29T07:23:16.997Z</time></trkpt><trkpt lat="38.3199911" lon="21.973098"><ele>18.0</ele><time>2026-04-29T07:23:17.997Z</time></trkpt><trkpt lat="38.3198673" lon="21.9732941"><ele>18.0</ele><time>2026-04-29T07:23:18.997Z</time></trkpt><trkpt lat="38.3197414" lon="21.9734887"><ele>17.666666666666668</ele><time>2026-04-29T07:23:19.997Z</time></trkpt><trkpt lat="38.3196188" lon="21.9736824"><ele>17.333333333333336</ele><time>2026-04-29T07:23:20.998Z</time></trkpt><trkpt lat="38.3194945" lon="21.973872"><ele>17.0</ele><time>2026-04-29T07:23:21.998Z</time></trkpt><trkpt lat="38.3193645" lon="21.9740671"><ele>14.0</ele><time>2026-04-29T07:23:22.997Z</time></trkpt><trkpt lat="38.3192301" lon="21.974272"><ele>11.0</ele><time>2026-04-29T07:23:23.997Z</time></trkpt><trkpt lat="38.3190944" lon="21.9744773"><ele>8.0</ele><time>2026-04-29T07:23:24.997Z</time></trkpt><trkpt lat="38.3189581" lon="21.9746877"><ele>10.0</ele><time>2026-04-29T07:23:25.997Z</time></trkpt><trkpt lat="38.318833" lon="21.9749007"><ele>12.0</ele><time>2026-04-29T07:23:26.995Z</time></trkpt><trkpt lat="38.3187176" lon="21.9751228"><ele>14.0</ele><time>2026-04-29T07:23:27.998Z</time></trkpt><trkpt lat="38.3186144" lon="21.9753566"><ele>14.0</ele><time>2026-04-29T07:23:28.998Z</time></trkpt><trkpt lat="38.3185128" lon="21.9756011"><ele>14.0</ele><time>2026-04-29T07:23:29.998Z</time></trkpt><trkpt lat="38.3184352" lon="21.9758732"><ele>14.0</ele><time>2026-04-29T07:23:30.997Z</time></trkpt><trkpt lat="38.3183644" lon="21.976143"><ele>12.0</ele><time>2026-04-29T07:23:31.998Z</time></trkpt><trkpt lat="38.3183107" lon="21.9764173"><ele>10.0</ele><time>2026-04-29T07:23:32.997Z</time></trkpt><trkpt lat="38.3182542" lon="21.9766666"><ele>8.0</ele><time>2026-04-29T07:23:33.998Z</time></trkpt><trkpt lat="38.3182005" lon="21.9768968"><ele>7.333333333333333</ele><time>2026-04-29T07:23:34.998Z</time></trkpt><trkpt lat="38.3181483" lon="21.9771222"><ele>6.666666666666666</ele><time>2026-04-29T07:23:35.997Z</time></trkpt><trkpt lat="38.3180954" lon="21.9773372"><ele>6.0</ele><time>2026-04-29T07:23:36.998Z</time></trkpt><trkpt lat="38.318022" lon="21.9775486"><ele>8.333333333333332</ele><time>2026-04-29T07:23:37.997Z</time></trkpt><trkpt lat="38.3179411" lon="21.9777584"><ele>10.666666666666666</ele><time>2026-04-29T07:23:38.997Z</time></trkpt><trkpt lat="38.31784" lon="21.9779764"><ele>13.0</ele><time>2026-04-29T07:23:39.997Z</time></trkpt><trkpt lat="38.3177367" lon="21.9781827"><ele>10.666666666666666</ele><time>2026-04-29T07:23:40.998Z</time></trkpt><trkpt lat="38.3176276" lon="21.9783798"><ele>8.333333333333332</ele><time>2026-04-29T07:23:41.998Z</time></trkpt><trkpt lat="38.3175072" lon="21.9785687"><ele>6.0</ele><time>2026-04-29T07:23:42.997Z</time></trkpt><trkpt lat="38.3173727" lon="21.9787462"><ele>8.0</ele><time>2026-04-29T07:23:43.998Z</time></trkpt><trkpt lat="38.317228" lon="21.978915"><ele>10.0</ele><time>2026-04-29T07:23:44.997Z</time></trkpt><trkpt lat="38.3170689" lon="21.9790891"><ele>12.0</ele><time>2026-04-29T07:23:45.998Z</time></trkpt><trkpt lat="38.3169122" lon="21.9792622"><ele>12.0</ele><time>2026-04-29T07:23:46.997Z</time></trkpt><trkpt lat="38.3167529" lon="21.9794343"><ele>12.0</ele><time>2026-04-29T07:23:47.996Z</time></trkpt><trkpt lat="38.3165924" lon="21.9796013"><ele>12.0</ele><time>2026-04-29T07:23:48.998Z</time></trkpt><trkpt lat="38.3164298" lon="21.9797741"><ele>13.333333333333332</ele><time>2026-04-29T07:23:49.998Z</time></trkpt><trkpt lat="38.3162723" lon="21.9799527"><ele>14.666666666666666</ele><time>2026-04-29T07:23:50.998Z</time></trkpt><trkpt lat="38.3161268" lon="21.9801404"><ele>16.0</ele><time>2026-04-29T07:23:51.998Z</time></trkpt><trkpt lat="38.3159885" lon="21.9803332"><ele>16.0</ele><time>2026-04-29T07:23:52.995Z</time></trkpt><trkpt lat="38.3158599" lon="21.9805311"><ele>16.0</ele><time>2026-04-29T07:23:53.998Z</time></trkpt><trkpt lat="38.3157452" lon="21.9807427"><ele>16.0</ele><time>2026-04-29T07:23:54.997Z</time></trkpt><trkpt lat="38.3156322" lon="21.9809658"><ele>17.666666666666664</ele><time>2026-04-29T07:23:55.997Z</time></trkpt><trkpt lat="38.3155305" lon="21.9811979"><ele>19.333333333333332</ele><time>2026-04-29T07:23:56.998Z</time></trkpt><trkpt lat="38.3154355" lon="21.9814353"><ele>21.0</ele><time>2026-04-29T07:23:57.998Z</time></trkpt><trkpt lat="38.3153391" lon="21.9816631"><ele>19.666666666666668</ele><time>2026-04-29T07:23:58.996Z</time></trkpt><trkpt lat="38.3152366" lon="21.9818738"><ele>18.333333333333336</ele><time>2026-04-29T07:23:59.997Z</time></trkpt><trkpt lat="38.3151335" lon="21.9820578"><ele>17.0</ele><time>2026-04-29T07:24:00.997Z</time></trkpt><trkpt lat="38.3150231" lon="21.9822152"><ele>17.0</ele><time>2026-04-29T07:24:01.997Z</time></trkpt><trkpt lat="38.3148956" lon="21.9823504"><ele>17.0</ele><time>2026-04-29T07:24:02.998Z</time></trkpt><trkpt lat="38.3147676" lon="21.9824752"><ele>17.0</ele><time>2026-04-29T07:24:03.997Z</time></trkpt><trkpt lat="38.3146272" lon="21.9825849"><ele>15.333333333333334</ele><time>2026-04-29T07:24:04.997Z</time></trkpt><trkpt lat="38.3144737" lon="21.9826845"><ele>13.666666666666668</ele><time>2026-04-29T07:24:05.998Z</time></trkpt><trkpt lat="38.3143161" lon="21.982773"><ele>12.0</ele><time>2026-04-29T07:24:06.997Z</time></trkpt><trkpt lat="38.3141536" lon="21.9828467"><ele>12.0</ele><time>2026-04-29T07:24:07.998Z</time></trkpt><trkpt lat="38.3139826" lon="21.9829102"><ele>12.0</ele><time>2026-04-29T07:24:08.998Z</time></trkpt><trkpt lat="38.3138099" lon="21.982968"><ele>12.0</ele><time>2026-04-29T07:24:09.998Z</time></trkpt><trkpt lat="38.3136395" lon="21.9830253"><ele>13.333333333333332</ele><time>2026-04-29T07:24:10.998Z</time></trkpt><trkpt lat="38.3134795" lon="21.9830942"><ele>14.666666666666666</ele><time>2026-04-29T07:24:11.997Z</time></trkpt><trkpt lat="38.3133157" lon="21.9831705"><ele>16.0</ele><time>2026-04-29T07:24:12.997Z</time></trkpt><trkpt lat="38.3131678" lon="21.9832796"><ele>17.0</ele><time>2026-04-29T07:24:13.998Z</time></trkpt><trkpt lat="38.3130207" lon="21.9834201"><ele>18.0</ele><time>2026-04-29T07:24:14.996Z</time></trkpt><trkpt lat="38.3128607" lon="21.9836073"><ele>19.0</ele><time>2026-04-29T07:24:15.997Z</time></trkpt><trkpt lat="38.3126971" lon="21.9838176"><ele>19.0</ele><time>2026-04-29T07:24:16.998Z</time></trkpt><trkpt lat="38.312534" lon="21.9840367"><ele>19.0</ele><time>2026-04-29T07:24:17.998Z</time></trkpt><trkpt lat="38.3123843" lon="21.9842683"><ele>12.5</ele><time>2026-04-29T07:24:18.996Z</time></trkpt><trkpt lat="38.312251" lon="21.9845027"><ele>6.0</ele><time>2026-04-29T07:24:19.996Z</time></trkpt><trkpt lat="38.3121105" lon="21.9847276"><ele>10.333333333333332</ele><time>2026-04-29T07:24:20.997Z</time></trkpt><trkpt lat="38.3119977" lon="21.9849451"><ele>14.666666666666666</ele><time>2026-04-29T07:24:21.996Z</time></trkpt><trkpt lat="38.3118982" lon="21.9851646"><ele>19.0</ele><time>2026-04-29T07:24:22.997Z</time></trkpt><trkpt lat="38.3118123" lon="21.9853973"><ele>19.0</ele><time>2026-04-29T07:24:23.998Z</time></trkpt><trkpt lat="38.3117422" lon="21.9856343"><ele>19.0</ele><time>2026-04-29T07:24:24.997Z</time></trkpt><trkpt lat="38.3116888" lon="21.9858716"><ele>19.0</ele><time>2026-04-29T07:24:25.998Z</time></trkpt><trkpt lat="38.3116455" lon="21.9861299"><ele>17.0</ele><time>2026-04-29T07:24:26.996Z</time></trkpt><trkpt lat="38.3116285" lon="21.986412"><ele>15.0</ele><time>2026-04-29T07:24:27.998Z</time></trkpt><trkpt lat="38.3116233" lon="21.9866888"><ele>13.0</ele><time>2026-04-29T07:24:28.998Z</time></trkpt><trkpt lat="38.3116214" lon="21.9869536"><ele>11.666666666666666</ele><time>2026-04-29T07:24:29.997Z</time></trkpt><trkpt lat="38.3116107" lon="21.9872112"><ele>10.333333333333332</ele><time>2026-04-29T07:24:30.997Z</time></trkpt><trkpt lat="38.3115971" lon="21.9874503"><ele>9.0</ele><time>2026-04-29T07:24:31.996Z</time></trkpt><trkpt lat="38.311582" lon="21.9876853"><ele>9.0</ele><time>2026-04-29T07:24:32.995Z</time></trkpt><trkpt lat="38.3115426" lon="21.9879203"><ele>9.0</ele><time>2026-04-29T07:24:33.996Z</time></trkpt><trkpt lat="38.3114971" lon="21.9881583"><ele>9.0</ele><time>2026-04-29T07:24:34.996Z</time></trkpt><trkpt lat="38.3114557" lon="21.9883817"><ele>8.333333333333334</ele><time>2026-04-29T07:24:35.996Z</time></trkpt><trkpt lat="38.3114225" lon="21.9885989"><ele>7.666666666666667</ele><time>2026-04-29T07:24:36.996Z</time></trkpt><trkpt lat="38.3113998" lon="21.9888022"><ele>7.0</ele><time>2026-04-29T07:24:37.995Z</time></trkpt><trkpt lat="38.3113842" lon="21.9889947"><ele>9.0</ele><time>2026-04-29T07:24:38.997Z</time></trkpt><trkpt lat="38.3113662" lon="21.9891801"><ele>11.0</ele><time>2026-04-29T07:24:39.995Z</time></trkpt><trkpt lat="38.3113331" lon="21.9893525"><ele>13.0</ele><time>2026-04-29T07:24:40.995Z</time></trkpt><trkpt lat="38.3112133" lon="21.9896845"><ele>13.0</ele><time>2026-04-29T07:24:43.13Z</time></trkpt><trkpt lat="38.3110763" lon="21.9899653"><ele>13.0</ele><time>2026-04-29T07:24:44.994Z</time></trkpt><trkpt lat="38.310986" lon="21.9901143"><ele>13.0</ele><time>2026-04-29T07:24:45.994Z</time></trkpt><trkpt lat="38.3108992" lon="21.9902615"><ele>11.333333333333332</ele><time>2026-04-29T07:24:46.993Z</time></trkpt><trkpt lat="38.3108001" lon="21.990405"><ele>9.666666666666666</ele><time>2026-04-29T07:24:47.994Z</time></trkpt><trkpt lat="38.3106945" lon="21.9905552"><ele>8.0</ele><time>2026-04-29T07:24:48.994Z</time></trkpt><trkpt lat="38.3105833" lon="21.9907092"><ele>8.666666666666666</ele><time>2026-04-29T07:24:49.994Z</time></trkpt><trkpt lat="38.3104797" lon="21.990873"><ele>9.333333333333334</ele><time>2026-04-29T07:24:50.993Z</time></trkpt><trkpt lat="38.3103822" lon="21.9910457"><ele>10.0</ele><time>2026-04-29T07:24:51.994Z</time></trkpt><trkpt lat="38.3102875" lon="21.991218"><ele>10.0</ele><time>2026-04-29T07:24:52.994Z</time></trkpt><trkpt lat="38.3101968" lon="21.9913876"><ele>10.0</ele><time>2026-04-29T07:24:53.993Z</time></trkpt><trkpt lat="38.3101065" lon="21.9915541"><ele>10.0</ele><time>2026-04-29T07:24:54.994Z</time></trkpt><trkpt lat="38.3100128" lon="21.9917157"><ele>10.666666666666668</ele><time>2026-04-29T07:24:55.994Z</time></trkpt><trkpt lat="38.3099117" lon="21.9918764"><ele>11.333333333333334</ele><time>2026-04-29T07:24:56.994Z</time></trkpt><trkpt lat="38.3098005" lon="21.9920385"><ele>12.0</ele><time>2026-04-29T07:24:57.994Z</time></trkpt><trkpt lat="38.3096845" lon="21.9922032"><ele>12.0</ele><time>2026-04-29T07:24:58.993Z</time></trkpt><trkpt lat="38.3095661" lon="21.9923758"><ele>12.0</ele><time>2026-04-29T07:24:59.994Z</time></trkpt><trkpt lat="38.3094408" lon="21.9925485"><ele>12.0</ele><time>2026-04-29T07:25:00.994Z</time></trkpt><trkpt lat="38.3093099" lon="21.9927247"><ele>13.0</ele><time>2026-04-29T07:25:01.993Z</time></trkpt><trkpt lat="38.3091699" lon="21.9928843"><ele>14.0</ele><time>2026-04-29T07:25:02.993Z</time></trkpt><trkpt lat="38.3090248" lon="21.9930381"><ele>15.0</ele><time>2026-04-29T07:25:03.994Z</time></trkpt><trkpt lat="38.3088811" lon="21.9931824"><ele>15.0</ele><time>2026-04-29T07:25:04.994Z</time></trkpt><trkpt lat="38.3087389" lon="21.9933281"><ele>15.0</ele><time>2026-04-29T07:25:05.994Z</time></trkpt><trkpt lat="38.3085921" lon="21.9934632"><ele>15.0</ele><time>2026-04-29T07:25:06.994Z</time></trkpt><trkpt lat="38.3084429" lon="21.9935974"><ele>14.0</ele><time>2026-04-29T07:25:07.994Z</time></trkpt><trkpt lat="38.3082908" lon="21.9937194"><ele>13.0</ele><time>2026-04-29T07:25:08.993Z</time></trkpt><trkpt lat="38.3081295" lon="21.9938349"><ele>12.0</ele><time>2026-04-29T07:25:09.994Z</time></trkpt><trkpt lat="38.307961" lon="21.9939511"><ele>12.0</ele><time>2026-04-29T07:25:10.993Z</time></trkpt><trkpt lat="38.3077889" lon="21.9940611"><ele>12.0</ele><time>2026-04-29T07:25:11.994Z</time></trkpt><trkpt lat="38.3076165" lon="21.9941809"><ele>12.0</ele><time>2026-04-29T07:25:12.994Z</time></trkpt><trkpt lat="38.3074415" lon="21.9942995"><ele>12.0</ele><time>2026-04-29T07:25:13.993Z</time></trkpt><trkpt lat="38.3072662" lon="21.9944159"><ele>12.0</ele><time>2026-04-29T07:25:14.994Z</time></trkpt><trkpt lat="38.3070922" lon="21.9945295"><ele>12.0</ele><time>2026-04-29T07:25:15.994Z</time></trkpt><trkpt lat="38.306918" lon="21.9946395"><ele>12.0</ele><time>2026-04-29T07:25:16.994Z</time></trkpt><trkpt lat="38.306746" lon="21.994751"><ele>12.0</ele><time>2026-04-29T07:25:17.994Z</time></trkpt><trkpt lat="38.3065763" lon="21.9948598"><ele>12.0</ele><time>2026-04-29T07:25:18.994Z</time></trkpt><trkpt lat="38.3064073" lon="21.9949653"><ele>13.0</ele><time>2026-04-29T07:25:19.994Z</time></trkpt><trkpt lat="38.3062371" lon="21.9950681"><ele>14.0</ele><time>2026-04-29T07:25:20.993Z</time></trkpt><trkpt lat="38.3060642" lon="21.9951646"><ele>15.0</ele><time>2026-04-29T07:25:21.994Z</time></trkpt><trkpt lat="38.3058904" lon="21.995257"><ele>15.0</ele><time>2026-04-29T07:25:22.994Z</time></trkpt><trkpt lat="38.3057091" lon="21.9953415"><ele>15.0</ele><time>2026-04-29T07:25:23.994Z</time></trkpt><trkpt lat="38.3055233" lon="21.9954233"><ele>15.0</ele><time>2026-04-29T07:25:24.994Z</time></trkpt><trkpt lat="38.3053352" lon="21.995508"><ele>15.666666666666668</ele><time>2026-04-29T07:25:25.994Z</time></trkpt><trkpt lat="38.305147" lon="21.9955926"><ele>16.333333333333336</ele><time>2026-04-29T07:25:26.994Z</time></trkpt><trkpt lat="38.3049605" lon="21.9956775"><ele>17.0</ele><time>2026-04-29T07:25:27.993Z</time></trkpt><trkpt lat="38.304777" lon="21.9957574"><ele>17.333333333333336</ele><time>2026-04-29T07:25:28.993Z</time></trkpt><trkpt lat="38.3045941" lon="21.9958389"><ele>17.666666666666668</ele><time>2026-04-29T07:25:29.994Z</time></trkpt><trkpt lat="38.3044091" lon="21.9959211"><ele>18.0</ele><time>2026-04-29T07:25:30.994Z</time></trkpt><trkpt lat="38.3042251" lon="21.9960097"><ele>18.0</ele><time>2026-04-29T07:25:31.994Z</time></trkpt><trkpt lat="38.3040384" lon="21.9960885"><ele>18.0</ele><time>2026-04-29T07:25:32.993Z</time></trkpt><trkpt lat="38.3038528" lon="21.9961696"><ele>18.0</ele><time>2026-04-29T07:25:33.994Z</time></trkpt><trkpt lat="38.3036672" lon="21.9962507"><ele>18.666666666666668</ele><time>2026-04-29T07:25:34.994Z</time></trkpt><trkpt lat="38.3034828" lon="21.9963317"><ele>19.333333333333336</ele><time>2026-04-29T07:25:35.993Z</time></trkpt><trkpt lat="38.3032921" lon="21.9964166"><ele>20.0</ele><time>2026-04-29T07:25:36.993Z</time></trkpt><trkpt lat="38.3031092" lon="21.9964985"><ele>21.0</ele><time>2026-04-29T07:25:37.993Z</time></trkpt><trkpt lat="38.3029207" lon="21.9965725"><ele>22.0</ele><time>2026-04-29T07:25:38.993Z</time></trkpt><trkpt lat="38.3027302" lon="21.996667"><ele>23.0</ele><time>2026-04-29T07:25:39.993Z</time></trkpt><trkpt lat="38.3025389" lon="21.9967691"><ele>23.0</ele><time>2026-04-29T07:25:40.993Z</time></trkpt><trkpt lat="38.3023443" lon="21.9968507"><ele>23.0</ele><time>2026-04-29T07:25:41.994Z</time></trkpt><trkpt lat="38.3021544" lon="21.9969567"><ele>23.0</ele><time>2026-04-29T07:25:42.994Z</time></trkpt><trkpt lat="38.3019713" lon="21.9970652"><ele>23.666666666666668</ele><time>2026-04-29T07:25:43.994Z</time></trkpt><trkpt lat="38.3018055" lon="21.9971755"><ele>24.333333333333336</ele><time>2026-04-29T07:25:44.993Z</time></trkpt><trkpt lat="38.3016558" lon="21.9973002"><ele>25.0</ele><time>2026-04-29T07:25:45.994Z</time></trkpt><trkpt lat="38.3015216" lon="21.9974536"><ele>26.0</ele><time>2026-04-29T07:25:46.993Z</time></trkpt><trkpt lat="38.3013986" lon="21.9976306"><ele>27.0</ele><time>2026-04-29T07:25:47.993Z</time></trkpt><trkpt lat="38.3012846" lon="21.9977613"><ele>28.0</ele><time>2026-04-29T07:25:48.993Z</time></trkpt><trkpt lat="38.3011921" lon="21.9979352"><ele>28.0</ele><time>2026-04-29T07:25:49.993Z</time></trkpt><trkpt lat="38.3010955" lon="21.9981077"><ele>28.0</ele><time>2026-04-29T07:25:50.994Z</time></trkpt><trkpt lat="38.3009905" lon="21.9982787"><ele>28.0</ele><time>2026-04-29T07:25:51.993Z</time></trkpt><trkpt lat="38.3008791" lon="21.9984437"><ele>28.0</ele><time>2026-04-29T07:25:52.994Z</time></trkpt><trkpt lat="38.3007573" lon="21.9985961"><ele>28.0</ele><time>2026-04-29T07:25:53.994Z</time></trkpt><trkpt lat="38.3006194" lon="21.998749"><ele>28.0</ele><time>2026-04-29T07:25:54.994Z</time></trkpt><trkpt lat="38.3004796" lon="21.9988953"><ele>29.0</ele><time>2026-04-29T07:25:55.993Z</time></trkpt><trkpt lat="38.3003486" lon="21.9990384"><ele>30.0</ele><time>2026-04-29T07:25:56.994Z</time></trkpt><trkpt lat="38.3002243" lon="21.9991776"><ele>31.0</ele><time>2026-04-29T07:25:57.994Z</time></trkpt><trkpt lat="38.3001089" lon="21.9993038"><ele>31.25</ele><time>2026-04-29T07:25:58.994Z</time></trkpt><trkpt lat="38.3000021" lon="21.9994194"><ele>31.5</ele><time>2026-04-29T07:25:59.993Z</time></trkpt><trkpt lat="38.2999031" lon="21.9995288"><ele>31.75</ele><time>2026-04-29T07:26:00.993Z</time></trkpt><trkpt lat="38.2998143" lon="21.9996242"><ele>32.0</ele><time>2026-04-29T07:26:01.993Z</time></trkpt><trkpt lat="38.2997355" lon="21.99971"><ele>32.33333333333333</ele><time>2026-04-29T07:26:02.993Z</time></trkpt><trkpt lat="38.299658" lon="21.9997933"><ele>32.666666666666664</ele><time>2026-04-29T07:26:03.994Z</time></trkpt><trkpt lat="38.2995951" lon="21.9998622"><ele>33.0</ele><time>2026-04-29T07:26:04.994Z</time></trkpt><trkpt lat="38.29954" lon="21.9999157"><ele>33.333333333333336</ele><time>2026-04-29T07:26:05.993Z</time></trkpt><trkpt lat="38.2994487" lon="22.0000108"><ele>33.66666666666667</ele><time>2026-04-29T07:26:07.993Z</time></trkpt><trkpt lat="38.2993931" lon="22.0000733"><ele>34.0</ele><time>2026-04-29T07:26:09.994Z</time></trkpt><trkpt lat="38.2993182" lon="22.0001578"><ele>34.0</ele><time>2026-04-29T07:26:15.993Z</time></trkpt><trkpt lat="38.299216" lon="22.0002586"><ele>34.0</ele><time>2026-04-29T07:26:17.993Z</time></trkpt><trkpt lat="38.2991598" lon="22.0003331"><ele>34.0</ele><time>2026-04-29T07:26:18.993Z</time></trkpt><trkpt lat="38.2990995" lon="22.0003978"><ele>34.0</ele><time>2026-04-29T07:26:19.993Z</time></trkpt><trkpt lat="38.2990351" lon="22.0004615"><ele>34.0</ele><time>2026-04-29T07:26:20.994Z</time></trkpt><trkpt lat="38.298971" lon="22.0005291"><ele>34.833333333333336</ele><time>2026-04-29T07:26:21.993Z</time></trkpt><trkpt lat="38.2989094" lon="22.0005867"><ele>35.66666666666667</ele><time>2026-04-29T07:26:22.994Z</time></trkpt><trkpt lat="38.2988511" lon="22.0006401"><ele>36.5</ele><time>2026-04-29T07:26:23.993Z</time></trkpt><trkpt lat="38.2987775" lon="22.0006427"><ele>37.333333333333336</ele><time>2026-04-29T07:26:24.993Z</time></trkpt><trkpt lat="38.2986727" lon="22.0006678"><ele>38.166666666666664</ele><time>2026-04-29T07:26:26.994Z</time></trkpt><trkpt lat="38.2986053" lon="22.0006801"><ele>39.0</ele><time>2026-04-29T07:26:27.993Z</time></trkpt><trkpt lat="38.2985255" lon="22.0007709"><ele>38.6</ele><time>2026-04-29T07:26:28.994Z</time></trkpt><trkpt lat="38.2984778" lon="22.000849"><ele>38.2</ele><time>2026-04-29T07:26:29.993Z</time></trkpt><trkpt lat="38.2984193" lon="22.0009383"><ele>37.800000000000004</ele><time>2026-04-29T07:26:30.994Z</time></trkpt><trkpt lat="38.2983458" lon="22.0010122"><ele>37.4</ele><time>2026-04-29T07:26:31.994Z</time></trkpt><trkpt lat="38.2982396" lon="22.0010891"><ele>37.0</ele><time>2026-04-29T07:26:32.994Z</time></trkpt><trkpt lat="38.2981062" lon="22.0011741"><ele>39.25</ele><time>2026-04-29T07:26:33.993Z</time></trkpt><trkpt lat="38.2980052" lon="22.0012538"><ele>41.5</ele><time>2026-04-29T07:26:34.994Z</time></trkpt><trkpt lat="38.2978976" lon="22.0013334"><ele>43.75</ele><time>2026-04-29T07:26:35.993Z</time></trkpt><trkpt lat="38.297796" lon="22.0014212"><ele>46.0</ele><time>2026-04-29T07:26:36.994Z</time></trkpt><trkpt lat="38.2976953" lon="22.001508"><ele>46.0</ele><time>2026-04-29T07:26:37.993Z</time></trkpt><trkpt lat="38.2975962" lon="22.0015935"><ele>46.0</ele><time>2026-04-29T07:26:38.993Z</time></trkpt><trkpt lat="38.2974997" lon="22.0016921"><ele>46.0</ele><time>2026-04-29T07:26:39.993Z</time></trkpt><trkpt lat="38.2974023" lon="22.0017907"><ele>46.0</ele><time>2026-04-29T07:26:40.993Z</time></trkpt><trkpt lat="38.2973078" lon="22.0018909"><ele>47.0</ele><time>2026-04-29T07:26:41.994Z</time></trkpt><trkpt lat="38.2972175" lon="22.001996"><ele>48.0</ele><time>2026-04-29T07:26:42.994Z</time></trkpt><trkpt lat="38.2971311" lon="22.0021052"><ele>49.0</ele><time>2026-04-29T07:26:43.994Z</time></trkpt><trkpt lat="38.297052" lon="22.0022235"><ele>50.0</ele><time>2026-04-29T07:26:44.994Z</time></trkpt><trkpt lat="38.2969811" lon="22.0023635"><ele>50.0</ele><time>2026-04-29T07:26:45.993Z</time></trkpt><trkpt lat="38.2968931" lon="22.0024796"><ele>50.0</ele><time>2026-04-29T07:26:46.994Z</time></trkpt><trkpt lat="38.2967948" lon="22.0026022"><ele>50.0</ele><time>2026-04-29T07:26:47.993Z</time></trkpt><trkpt lat="38.2966966" lon="22.0027286"><ele>50.0</ele><time>2026-04-29T07:26:48.994Z</time></trkpt><trkpt lat="38.2965966" lon="22.0028548"><ele>49.0</ele><time>2026-04-29T07:26:49.993Z</time></trkpt><trkpt lat="38.2964948" lon="22.0029779"><ele>48.0</ele><time>2026-04-29T07:26:50.994Z</time></trkpt><trkpt lat="38.2963958" lon="22.0030984"><ele>47.0</ele><time>2026-04-29T07:26:51.993Z</time></trkpt><trkpt lat="38.2963048" lon="22.003215"><ele>46.0</ele><time>2026-04-29T07:26:52.993Z</time></trkpt><trkpt lat="38.2962178" lon="22.0033331"><ele>46.0</ele><time>2026-04-29T07:26:53.993Z</time></trkpt><trkpt lat="38.2961379" lon="22.0034588"><ele>46.0</ele><time>2026-04-29T07:26:54.993Z</time></trkpt><trkpt lat="38.2960693" lon="22.0036031"><ele>46.0</ele><time>2026-04-29T07:26:55.993Z</time></trkpt><trkpt lat="38.2959922" lon="22.0037485"><ele>46.0</ele><time>2026-04-29T07:26:56.993Z</time></trkpt><trkpt lat="38.2959041" lon="22.0038978"><ele>46.0</ele><time>2026-04-29T07:26:57.993Z</time></trkpt><trkpt lat="38.2958061" lon="22.0040383"><ele>46.0</ele><time>2026-04-29T07:26:58.994Z</time></trkpt><trkpt lat="38.2957057" lon="22.0041689"><ele>46.0</ele><time>2026-04-29T07:26:59.993Z</time></trkpt><trkpt lat="38.2955983" lon="22.0042873"><ele>46.0</ele><time>2026-04-29T07:27:00.993Z</time></trkpt><trkpt lat="38.2955039" lon="22.0044133"><ele>45.75</ele><time>2026-04-29T07:27:01.993Z</time></trkpt><trkpt lat="38.2954224" lon="22.0045566"><ele>45.5</ele><time>2026-04-29T07:27:02.993Z</time></trkpt><trkpt lat="38.2953658" lon="22.0047167"><ele>45.25</ele><time>2026-04-29T07:27:03.994Z</time></trkpt><trkpt lat="38.2953326" lon="22.0049034"><ele>45.0</ele><time>2026-04-29T07:27:04.993Z</time></trkpt><trkpt lat="38.2953014" lon="22.0050942"><ele>44.75</ele><time>2026-04-29T07:27:05.993Z</time></trkpt><trkpt lat="38.2952721" lon="22.0052774"><ele>44.5</ele><time>2026-04-29T07:27:06.994Z</time></trkpt><trkpt lat="38.2952409" lon="22.0054568"><ele>44.25</ele><time>2026-04-29T07:27:07.994Z</time></trkpt><trkpt lat="38.2952069" lon="22.005632"><ele>44.0</ele><time>2026-04-29T07:27:08.994Z</time></trkpt><trkpt lat="38.2951763" lon="22.0058056"><ele>43.25</ele><time>2026-04-29T07:27:09.993Z</time></trkpt><trkpt lat="38.2951462" lon="22.0059728"><ele>42.5</ele><time>2026-04-29T07:27:10.993Z</time></trkpt><trkpt lat="38.2951261" lon="22.0061354"><ele>41.75</ele><time>2026-04-29T07:27:11.993Z</time></trkpt><trkpt lat="38.2950954" lon="22.0062979"><ele>41.0</ele><time>2026-04-29T07:27:12.993Z</time></trkpt><trkpt lat="38.2950603" lon="22.0064518"><ele>41.0</ele><time>2026-04-29T07:27:13.994Z</time></trkpt><trkpt lat="38.295012" lon="22.0066125"><ele>41.0</ele><time>2026-04-29T07:27:14.994Z</time></trkpt><trkpt lat="38.2949436" lon="22.0067786"><ele>41.0</ele><time>2026-04-29T07:27:15.994Z</time></trkpt><trkpt lat="38.2948462" lon="22.0069737"><ele>40.0</ele><time>2026-04-29T07:27:16.994Z</time></trkpt><trkpt lat="38.2947195" lon="22.007196"><ele>39.0</ele><time>2026-04-29T07:27:17.994Z</time></trkpt><trkpt lat="38.2945826" lon="22.0074382"><ele>37.5</ele><time>2026-04-29T07:27:18.994Z</time></trkpt><trkpt lat="38.2944333" lon="22.0076999"><ele>36.0</ele><time>2026-04-29T07:27:19.994Z</time></trkpt><trkpt lat="38.2942918" lon="22.0079536"><ele>36.0</ele><time>2026-04-29T07:27:20.993Z</time></trkpt><trkpt lat="38.2941566" lon="22.0081928"><ele>36.0</ele><time>2026-04-29T07:27:21.994Z</time></trkpt><trkpt lat="38.294027" lon="22.0084233"><ele>35.0</ele><time>2026-04-29T07:27:22.993Z</time></trkpt><trkpt lat="38.2939047" lon="22.0086367"><ele>34.0</ele><time>2026-04-29T07:27:23.994Z</time></trkpt><trkpt lat="38.2937942" lon="22.0088268"><ele>33.0</ele><time>2026-04-29T07:27:24.993Z</time></trkpt><trkpt lat="38.2936965" lon="22.0090004"><ele>33.0</ele><time>2026-04-29T07:27:25.994Z</time></trkpt><trkpt lat="38.2935915" lon="22.0091989"><ele>33.0</ele><time>2026-04-29T07:27:26.994Z</time></trkpt><trkpt lat="38.2934595" lon="22.0094068"><ele>33.0</ele><time>2026-04-29T07:27:27.993Z</time></trkpt><trkpt lat="38.2933245" lon="22.0096267"><ele>33.0</ele><time>2026-04-29T07:27:28.994Z</time></trkpt><trkpt lat="38.2931963" lon="22.0098473"><ele>33.0</ele><time>2026-04-29T07:27:29.993Z</time></trkpt><trkpt lat="38.2930719" lon="22.0100635"><ele>33.0</ele><time>2026-04-29T07:27:30.994Z</time></trkpt><trkpt lat="38.2929366" lon="22.0102518"><ele>33.0</ele><time>2026-04-29T07:27:31.993Z</time></trkpt><trkpt lat="38.2928121" lon="22.0104657"><ele>33.0</ele><time>2026-04-29T07:27:32.994Z</time></trkpt><trkpt lat="38.2926857" lon="22.0106818"><ele>33.0</ele><time>2026-04-29T07:27:33.994Z</time></trkpt><trkpt lat="38.2925578" lon="22.0108984"><ele>31.666666666666664</ele><time>2026-04-29T07:27:34.993Z</time></trkpt><trkpt lat="38.2924292" lon="22.0111077"><ele>30.333333333333332</ele><time>2026-04-29T07:27:35.994Z</time></trkpt><trkpt lat="38.2923081" lon="22.0113206"><ele>29.0</ele><time>2026-04-29T07:27:36.993Z</time></trkpt><trkpt lat="38.2921847" lon="22.0115367"><ele>28.666666666666664</ele><time>2026-04-29T07:27:37.993Z</time></trkpt><trkpt lat="38.2920592" lon="22.0117555"><ele>28.333333333333336</ele><time>2026-04-29T07:27:38.993Z</time></trkpt><trkpt lat="38.291932" lon="22.0119726"><ele>28.0</ele><time>2026-04-29T07:27:39.993Z</time></trkpt><trkpt lat="38.2918055" lon="22.0121942"><ele>28.0</ele><time>2026-04-29T07:27:40.994Z</time></trkpt><trkpt lat="38.2916347" lon="22.012323"><ele>28.0</ele><time>2026-04-29T07:27:41.993Z</time></trkpt><trkpt lat="38.2915073" lon="22.0125534"><ele>28.0</ele><time>2026-04-29T07:27:42.994Z</time></trkpt><trkpt lat="38.2913732" lon="22.0127908"><ele>30.0</ele><time>2026-04-29T07:27:43.993Z</time></trkpt><trkpt lat="38.2912346" lon="22.0130452"><ele>32.0</ele><time>2026-04-29T07:27:44.994Z</time></trkpt><trkpt lat="38.2911267" lon="22.0133125"><ele>29.0</ele><time>2026-04-29T07:27:45.993Z</time></trkpt><trkpt lat="38.2909959" lon="22.0135537"><ele>26.0</ele><time>2026-04-29T07:27:46.994Z</time></trkpt><trkpt lat="38.2908582" lon="22.0137859"><ele>26.0</ele><time>2026-04-29T07:27:47.994Z</time></trkpt><trkpt lat="38.2907275" lon="22.014015"><ele>26.0</ele><time>2026-04-29T07:27:48.993Z</time></trkpt><trkpt lat="38.2906018" lon="22.0142386"><ele>26.0</ele><time>2026-04-29T07:27:49.993Z</time></trkpt><trkpt lat="38.2904757" lon="22.0144772"><ele>26.666666666666664</ele><time>2026-04-29T07:27:50.994Z</time></trkpt><trkpt lat="38.2903506" lon="22.0146984"><ele>27.333333333333336</ele><time>2026-04-29T07:27:51.993Z</time></trkpt><trkpt lat="38.2902263" lon="22.014924"><ele>28.0</ele><time>2026-04-29T07:27:52.994Z</time></trkpt><trkpt lat="38.2900959" lon="22.0151438"><ele>26.666666666666668</ele><time>2026-04-29T07:27:53.993Z</time></trkpt><trkpt lat="38.2899745" lon="22.0153781"><ele>25.333333333333336</ele><time>2026-04-29T07:27:54.993Z</time></trkpt><trkpt lat="38.2898455" lon="22.0156085"><ele>24.0</ele><time>2026-04-29T07:27:55.994Z</time></trkpt><trkpt lat="38.2897193" lon="22.0158349"><ele>24.0</ele><time>2026-04-29T07:27:56.994Z</time></trkpt><trkpt lat="38.2895971" lon="22.0160733"><ele>24.0</ele><time>2026-04-29T07:27:57.994Z</time></trkpt><trkpt lat="38.2894659" lon="22.0163033"><ele>24.0</ele><time>2026-04-29T07:27:58.994Z</time></trkpt><trkpt lat="38.2893388" lon="22.016521"><ele>23.0</ele><time>2026-04-29T07:27:59.994Z</time></trkpt><trkpt lat="38.2892085" lon="22.0167307"><ele>22.0</ele><time>2026-04-29T07:28:00.993Z</time></trkpt><trkpt lat="38.2890696" lon="22.0169332"><ele>21.0</ele><time>2026-04-29T07:28:01.993Z</time></trkpt><trkpt lat="38.2889132" lon="22.0171325"><ele>20.333333333333332</ele><time>2026-04-29T07:28:02.994Z</time></trkpt><trkpt lat="38.2887533" lon="22.0173115"><ele>19.666666666666664</ele><time>2026-04-29T07:28:03.994Z</time></trkpt><trkpt lat="38.2885931" lon="22.0174689"><ele>19.0</ele><time>2026-04-29T07:28:04.993Z</time></trkpt><trkpt lat="38.2884459" lon="22.0176185"><ele>19.0</ele><time>2026-04-29T07:28:05.993Z</time></trkpt><trkpt lat="38.2883059" lon="22.0177587"><ele>19.0</ele><time>2026-04-29T07:28:06.993Z</time></trkpt><trkpt lat="38.2881763" lon="22.0178963"><ele>19.0</ele><time>2026-04-29T07:28:07.993Z</time></trkpt><trkpt lat="38.2880706" lon="22.0180227"><ele>18.4</ele><time>2026-04-29T07:28:08.994Z</time></trkpt><trkpt lat="38.287969" lon="22.0181395"><ele>17.799999999999997</ele><time>2026-04-29T07:28:09.993Z</time></trkpt><trkpt lat="38.2878794" lon="22.0182318"><ele>17.200000000000003</ele><time>2026-04-29T07:28:10.994Z</time></trkpt><trkpt lat="38.2877955" lon="22.0182942"><ele>16.6</ele><time>2026-04-29T07:28:11.993Z</time></trkpt><trkpt lat="38.2877096" lon="22.0183273"><ele>16.0</ele><time>2026-04-29T07:28:12.993Z</time></trkpt><trkpt lat="38.2876355" lon="22.0183791"><ele>16.0</ele><time>2026-04-29T07:28:13.994Z</time></trkpt><trkpt lat="38.2875775" lon="22.0184622"><ele>16.0</ele><time>2026-04-29T07:28:14.994Z</time></trkpt><trkpt lat="38.2875408" lon="22.0185786"><ele>16.0</ele><time>2026-04-29T07:28:15.993Z</time></trkpt><trkpt lat="38.2874994" lon="22.0187217"><ele>16.0</ele><time>2026-04-29T07:28:16.994Z</time></trkpt><trkpt lat="38.2874317" lon="22.0188628"><ele>16.0</ele><time>2026-04-29T07:28:17.994Z</time></trkpt><trkpt lat="38.2873308" lon="22.0190422"><ele>18.0</ele><time>2026-04-29T07:28:18.993Z</time></trkpt><trkpt lat="38.2872306" lon="22.0192257"><ele>20.0</ele><time>2026-04-29T07:28:19.994Z</time></trkpt><trkpt lat="38.2871236" lon="22.0194333"><ele>22.0</ele><time>2026-04-29T07:28:20.994Z</time></trkpt><trkpt lat="38.287019" lon="22.0196583"><ele>22.0</ele><time>2026-04-29T07:28:21.994Z</time></trkpt><trkpt lat="38.2869228" lon="22.0198739"><ele>22.0</ele><time>2026-04-29T07:28:22.993Z</time></trkpt><trkpt lat="38.2868357" lon="22.0200992"><ele>22.0</ele><time>2026-04-29T07:28:23.993Z</time></trkpt><trkpt lat="38.2867519" lon="22.0203316"><ele>20.333333333333332</ele><time>2026-04-29T07:28:24.994Z</time></trkpt><trkpt lat="38.2866719" lon="22.020565"><ele>18.666666666666668</ele><time>2026-04-29T07:28:25.994Z</time></trkpt><trkpt lat="38.2865903" lon="22.0207986"><ele>17.0</ele><time>2026-04-29T07:28:26.994Z</time></trkpt><trkpt lat="38.286508" lon="22.0210318"><ele>18.0</ele><time>2026-04-29T07:28:27.993Z</time></trkpt><trkpt lat="38.2860962" lon="22.0219203"><ele>18.0</ele><time>2026-04-29T07:28:31.993Z</time></trkpt><trkpt lat="38.2859825" lon="22.0221164"><ele>18.0</ele><time>2026-04-29T07:28:32.994Z</time></trkpt><trkpt lat="38.2858837" lon="22.0223255"><ele>18.0</ele><time>2026-04-29T07:28:33.994Z</time></trkpt><trkpt lat="38.285766" lon="22.0225139"><ele>17.0</ele><time>2026-04-29T07:28:34.993Z</time></trkpt><trkpt lat="38.2856582" lon="22.0227061"><ele>16.0</ele><time>2026-04-29T07:28:35.994Z</time></trkpt><trkpt lat="38.2855576" lon="22.0228875"><ele>15.0</ele><time>2026-04-29T07:28:36.994Z</time></trkpt><trkpt lat="38.2854635" lon="22.0230578"><ele>15.5</ele><time>2026-04-29T07:28:37.994Z</time></trkpt><trkpt lat="38.2853727" lon="22.0232195"><ele>16.0</ele><time>2026-04-29T07:28:38.994Z</time></trkpt><trkpt lat="38.2852814" lon="22.0233677"><ele>16.5</ele><time>2026-04-29T07:28:39.993Z</time></trkpt><trkpt lat="38.2852037" lon="22.0234982"><ele>17.0</ele><time>2026-04-29T07:28:40.994Z</time></trkpt><trkpt lat="38.2851309" lon="22.0236068"><ele>17.0</ele><time>2026-04-29T07:28:41.993Z</time></trkpt><trkpt lat="38.2850481" lon="22.0236816"><ele>17.0</ele><time>2026-04-29T07:28:42.993Z</time></trkpt><trkpt lat="38.2849691" lon="22.0237339"><ele>17.0</ele><time>2026-04-29T07:28:43.993Z</time></trkpt><trkpt lat="38.2849003" lon="22.0238139"><ele>17.0</ele><time>2026-04-29T07:28:44.993Z</time></trkpt><trkpt lat="38.2848638" lon="22.0239372"><ele>17.0</ele><time>2026-04-29T07:28:45.994Z</time></trkpt><trkpt lat="38.2848454" lon="22.0240689"><ele>17.0</ele><time>2026-04-29T07:28:46.993Z</time></trkpt><trkpt lat="38.2848001" lon="22.0242081"><ele>17.0</ele><time>2026-04-29T07:28:47.994Z</time></trkpt><trkpt lat="38.2847047" lon="22.0243692"><ele>17.0</ele><time>2026-04-29T07:28:48.994Z</time></trkpt><trkpt lat="38.2846104" lon="22.0245306"><ele>17.0</ele><time>2026-04-29T07:28:49.994Z</time></trkpt><trkpt lat="38.2845047" lon="22.024697"><ele>17.0</ele><time>2026-04-29T07:28:50.993Z</time></trkpt><trkpt lat="38.2844006" lon="22.0248682"><ele>17.0</ele><time>2026-04-29T07:28:51.993Z</time></trkpt><trkpt lat="38.2842942" lon="22.0250361"><ele>17.0</ele><time>2026-04-29T07:28:52.993Z</time></trkpt><trkpt lat="38.2841944" lon="22.0252021"><ele>17.0</ele><time>2026-04-29T07:28:53.994Z</time></trkpt><trkpt lat="38.2841016" lon="22.0253584"><ele>17.0</ele><time>2026-04-29T07:28:54.994Z</time></trkpt><trkpt lat="38.2840144" lon="22.0255045"><ele>17.0</ele><time>2026-04-29T07:28:55.993Z</time></trkpt><trkpt lat="38.2839324" lon="22.0256442"><ele>17.0</ele><time>2026-04-29T07:28:56.993Z</time></trkpt><trkpt lat="38.2838562" lon="22.025768"><ele>16.8</ele><time>2026-04-29T07:28:57.994Z</time></trkpt><trkpt lat="38.2837875" lon="22.0258799"><ele>16.6</ele><time>2026-04-29T07:28:58.993Z</time></trkpt><trkpt lat="38.2837231" lon="22.0259835"><ele>16.400000000000002</ele><time>2026-04-29T07:28:59.993Z</time></trkpt><trkpt lat="38.2836636" lon="22.0260722"><ele>16.2</ele><time>2026-04-29T07:29:00.994Z</time></trkpt><trkpt lat="38.2836117" lon="22.0261508"><ele>16.0</ele><time>2026-04-29T07:29:01.993Z</time></trkpt><trkpt lat="38.2835665" lon="22.0262213"><ele>15.999999999999998</ele><time>2026-04-29T07:29:02.993Z</time></trkpt><trkpt lat="38.2834949" lon="22.0263468"><ele>16.0</ele><time>2026-04-29T07:29:04.993Z</time></trkpt><trkpt lat="38.2834308" lon="22.0264617"><ele>16.0</ele><time>2026-04-29T07:29:06.994Z</time></trkpt><trkpt lat="38.2833938" lon="22.0265303"><ele>16.0</ele><time>2026-04-29T07:29:07.994Z</time></trkpt><trkpt lat="38.283341" lon="22.0265827"><ele>15.999999999999998</ele><time>2026-04-29T07:29:08.994Z</time></trkpt><trkpt lat="38.2832921" lon="22.0266672"><ele>16.0</ele><time>2026-04-29T07:29:09.994Z</time></trkpt><trkpt lat="38.2832402" lon="22.0267567"><ele>15.833333333333332</ele><time>2026-04-29T07:29:10.993Z</time></trkpt><trkpt lat="38.2831892" lon="22.0268533"><ele>15.666666666666666</ele><time>2026-04-29T07:29:11.994Z</time></trkpt><trkpt lat="38.2831395" lon="22.0269538"><ele>15.5</ele><time>2026-04-29T07:29:12.994Z</time></trkpt><trkpt lat="38.2830807" lon="22.027042"><ele>15.333333333333332</ele><time>2026-04-29T07:29:13.994Z</time></trkpt><trkpt lat="38.2830302" lon="22.0271282"><ele>15.166666666666666</ele><time>2026-04-29T07:29:14.994Z</time></trkpt><trkpt lat="38.2829756" lon="22.0272106"><ele>15.0</ele><time>2026-04-29T07:29:15.993Z</time></trkpt><trkpt lat="38.2829234" lon="22.0273"><ele>15.0</ele><time>2026-04-29T07:29:16.994Z</time></trkpt><trkpt lat="38.2828684" lon="22.0273971"><ele>15.0</ele><time>2026-04-29T07:29:17.994Z</time></trkpt><trkpt lat="38.282808" lon="22.0274978"><ele>15.0</ele><time>2026-04-29T07:29:18.993Z</time></trkpt><trkpt lat="38.2827462" lon="22.0275995"><ele>15.0</ele><time>2026-04-29T07:29:19.994Z</time></trkpt><trkpt lat="38.2826851" lon="22.0276767"><ele>15.0</ele><time>2026-04-29T07:29:20.994Z</time></trkpt><trkpt lat="38.2826347" lon="22.0277901"><ele>15.0</ele><time>2026-04-29T07:29:21.993Z</time></trkpt><trkpt lat="38.2825752" lon="22.0278953"><ele>15.0</ele><time>2026-04-29T07:29:22.994Z</time></trkpt><trkpt lat="38.2825126" lon="22.0280032"><ele>15.0</ele><time>2026-04-29T07:29:23.994Z</time></trkpt><trkpt lat="38.2824486" lon="22.0281094"><ele>15.0</ele><time>2026-04-29T07:29:24.993Z</time></trkpt><trkpt lat="38.2823836" lon="22.0282192"><ele>15.0</ele><time>2026-04-29T07:29:25.993Z</time></trkpt><trkpt lat="38.2823164" lon="22.028333"><ele>14.75</ele><time>2026-04-29T07:29:26.994Z</time></trkpt><trkpt lat="38.2822416" lon="22.0284457"><ele>14.5</ele><time>2026-04-29T07:29:27.994Z</time></trkpt><trkpt lat="38.2821704" lon="22.0285752"><ele>14.25</ele><time>2026-04-29T07:29:28.993Z</time></trkpt><trkpt lat="38.2820983" lon="22.0287169"><ele>14.0</ele><time>2026-04-29T07:29:29.994Z</time></trkpt><trkpt lat="38.2820157" lon="22.0288563"><ele>14.0</ele><time>2026-04-29T07:29:30.994Z</time></trkpt><trkpt lat="38.2819311" lon="22.0290146"><ele>14.0</ele><time>2026-04-29T07:29:31.994Z</time></trkpt><trkpt lat="38.2818392" lon="22.0291494"><ele>14.0</ele><time>2026-04-29T07:29:32.994Z</time></trkpt><trkpt lat="38.2817487" lon="22.0292953"><ele>14.0</ele><time>2026-04-29T07:29:33.993Z</time></trkpt><trkpt lat="38.2816667" lon="22.0294462"><ele>14.0</ele><time>2026-04-29T07:29:34.993Z</time></trkpt><trkpt lat="38.2815833" lon="22.0295984"><ele>14.0</ele><time>2026-04-29T07:29:35.994Z</time></trkpt><trkpt lat="38.2814973" lon="22.0297593"><ele>14.0</ele><time>2026-04-29T07:29:36.994Z</time></trkpt><trkpt lat="38.2814095" lon="22.029923"><ele>14.333333333333334</ele><time>2026-04-29T07:29:37.994Z</time></trkpt><trkpt lat="38.2813236" lon="22.0300826"><ele>14.666666666666668</ele><time>2026-04-29T07:29:38.994Z</time></trkpt><trkpt lat="38.2812346" lon="22.0302464"><ele>15.0</ele><time>2026-04-29T07:29:39.993Z</time></trkpt><trkpt lat="38.281143" lon="22.0304215"><ele>15.0</ele><time>2026-04-29T07:29:40.994Z</time></trkpt><trkpt lat="38.2810485" lon="22.0305902"><ele>15.0</ele><time>2026-04-29T07:29:41.994Z</time></trkpt><trkpt lat="38.2809564" lon="22.0307642"><ele>15.0</ele><time>2026-04-29T07:29:42.993Z</time></trkpt><trkpt lat="38.2808589" lon="22.0309302"><ele>15.0</ele><time>2026-04-29T07:29:43.994Z</time></trkpt><trkpt lat="38.2807596" lon="22.0310945"><ele>15.0</ele><time>2026-04-29T07:29:44.994Z</time></trkpt><trkpt lat="38.2806607" lon="22.0312585"><ele>15.0</ele><time>2026-04-29T07:29:45.994Z</time></trkpt><trkpt lat="38.280558" lon="22.0314223"><ele>15.0</ele><time>2026-04-29T07:29:46.993Z</time></trkpt><trkpt lat="38.2804562" lon="22.0315866"><ele>15.0</ele><time>2026-04-29T07:29:47.993Z</time></trkpt><trkpt lat="38.2803577" lon="22.0317496"><ele>15.0</ele><time>2026-04-29T07:29:48.994Z</time></trkpt><trkpt lat="38.280259" lon="22.0319136"><ele>14.333333333333332</ele><time>2026-04-29T07:29:49.993Z</time></trkpt><trkpt lat="38.2801647" lon="22.0320892"><ele>13.666666666666666</ele><time>2026-04-29T07:29:50.993Z</time></trkpt><trkpt lat="38.2800605" lon="22.0322547"><ele>13.0</ele><time>2026-04-29T07:29:51.994Z</time></trkpt><trkpt lat="38.2799586" lon="22.0324233"><ele>12.666666666666666</ele><time>2026-04-29T07:29:52.994Z</time></trkpt><trkpt lat="38.2798545" lon="22.0325909"><ele>12.333333333333332</ele><time>2026-04-29T07:29:53.994Z</time></trkpt><trkpt lat="38.2797532" lon="22.0327596"><ele>12.0</ele><time>2026-04-29T07:29:54.994Z</time></trkpt><trkpt lat="38.2796477" lon="22.0329358"><ele>12.333333333333332</ele><time>2026-04-29T07:29:55.994Z</time></trkpt><trkpt lat="38.2795405" lon="22.033107"><ele>12.666666666666666</ele><time>2026-04-29T07:29:56.994Z</time></trkpt><trkpt lat="38.2794337" lon="22.0332783"><ele>13.0</ele><time>2026-04-29T07:29:57.993Z</time></trkpt><trkpt lat="38.2793295" lon="22.0334427"><ele>13.0</ele><time>2026-04-29T07:29:58.994Z</time></trkpt><trkpt lat="38.2792202" lon="22.0336134"><ele>13.0</ele><time>2026-04-29T07:29:59.993Z</time></trkpt><trkpt lat="38.2791067" lon="22.0337832"><ele>13.0</ele><time>2026-04-29T07:30:00.994Z</time></trkpt><trkpt lat="38.2789927" lon="22.0339522"><ele>14.0</ele><time>2026-04-29T07:30:01.994Z</time></trkpt><trkpt lat="38.2788858" lon="22.0341117"><ele>15.0</ele><time>2026-04-29T07:30:02.994Z</time></trkpt><trkpt lat="38.2787806" lon="22.0342475"><ele>16.0</ele><time>2026-04-29T07:30:03.994Z</time></trkpt><trkpt lat="38.2786771" lon="22.0343736"><ele>16.0</ele><time>2026-04-29T07:30:04.993Z</time></trkpt><trkpt lat="38.2785734" lon="22.0344837"><ele>16.0</ele><time>2026-04-29T07:30:05.993Z</time></trkpt><trkpt lat="38.2784716" lon="22.0346017"><ele>16.0</ele><time>2026-04-29T07:30:06.994Z</time></trkpt><trkpt lat="38.2783721" lon="22.0347215"><ele>16.0</ele><time>2026-04-29T07:30:07.993Z</time></trkpt><trkpt lat="38.2782711" lon="22.0348512"><ele>16.0</ele><time>2026-04-29T07:30:08.994Z</time></trkpt><trkpt lat="38.278157" lon="22.0349622"><ele>16.0</ele><time>2026-04-29T07:30:09.993Z</time></trkpt><trkpt lat="38.2780443" lon="22.0350863"><ele>16.0</ele><time>2026-04-29T07:30:10.993Z</time></trkpt><trkpt lat="38.2779236" lon="22.0352102"><ele>16.0</ele><time>2026-04-29T07:30:11.994Z</time></trkpt><trkpt lat="38.2778019" lon="22.0353334"><ele>15.666666666666666</ele><time>2026-04-29T07:30:12.993Z</time></trkpt><trkpt lat="38.277669" lon="22.0354509"><ele>15.333333333333332</ele><time>2026-04-29T07:30:13.994Z</time></trkpt><trkpt lat="38.2775255" lon="22.0355567"><ele>15.0</ele><time>2026-04-29T07:30:14.993Z</time></trkpt><trkpt lat="38.2773827" lon="22.0356394"><ele>15.333333333333332</ele><time>2026-04-29T07:30:15.994Z</time></trkpt><trkpt lat="38.2772384" lon="22.0357278"><ele>15.666666666666666</ele><time>2026-04-29T07:30:16.994Z</time></trkpt><trkpt lat="38.2770969" lon="22.0358201"><ele>16.0</ele><time>2026-04-29T07:30:17.993Z</time></trkpt><trkpt lat="38.2769515" lon="22.0359258"><ele>15.0</ele><time>2026-04-29T07:30:18.993Z</time></trkpt><trkpt lat="38.2768329" lon="22.0360413"><ele>14.0</ele><time>2026-04-29T07:30:19.994Z</time></trkpt><trkpt lat="38.276707" lon="22.0361781"><ele>13.0</ele><time>2026-04-29T07:30:20.993Z</time></trkpt><trkpt lat="38.2765702" lon="22.0363218"><ele>13.0</ele><time>2026-04-29T07:30:21.994Z</time></trkpt><trkpt lat="38.276415" lon="22.0364894"><ele>13.0</ele><time>2026-04-29T07:30:22.994Z</time></trkpt><trkpt lat="38.2762412" lon="22.0366851"><ele>13.0</ele><time>2026-04-29T07:30:23.994Z</time></trkpt><trkpt lat="38.2760624" lon="22.0369171"><ele>12.5</ele><time>2026-04-29T07:30:24.994Z</time></trkpt><trkpt lat="38.2758643" lon="22.0371262"><ele>12.0</ele><time>2026-04-29T07:30:25.994Z</time></trkpt><trkpt lat="38.2756643" lon="22.0373499"><ele>11.5</ele><time>2026-04-29T07:30:26.993Z</time></trkpt><trkpt lat="38.2754605" lon="22.037569"><ele>11.0</ele><time>2026-04-29T07:30:27.993Z</time></trkpt><trkpt lat="38.2752672" lon="22.0377818"><ele>11.0</ele><time>2026-04-29T07:30:28.994Z</time></trkpt><trkpt lat="38.2750725" lon="22.038002"><ele>11.0</ele><time>2026-04-29T07:30:29.994Z</time></trkpt><trkpt lat="38.2748926" lon="22.0382061"><ele>11.5</ele><time>2026-04-29T07:30:30.994Z</time></trkpt><trkpt lat="38.2747197" lon="22.0384053"><ele>12.0</ele><time>2026-04-29T07:30:31.994Z</time></trkpt><trkpt lat="38.2745412" lon="22.0386071"><ele>12.0</ele><time>2026-04-29T07:30:32.993Z</time></trkpt><trkpt lat="38.2743662" lon="22.0387947"><ele>12.0</ele><time>2026-04-29T07:30:33.993Z</time></trkpt><trkpt lat="38.2741905" lon="22.0389846"><ele>12.0</ele><time>2026-04-29T07:30:34.993Z</time></trkpt><trkpt lat="38.2740207" lon="22.0391717"><ele>12.0</ele><time>2026-04-29T07:30:35.994Z</time></trkpt><trkpt lat="38.273845" lon="22.0393549"><ele>13.0</ele><time>2026-04-29T07:30:36.993Z</time></trkpt><trkpt lat="38.273678" lon="22.0395369"><ele>14.0</ele><time>2026-04-29T07:30:37.994Z</time></trkpt><trkpt lat="38.2735128" lon="22.0397258"><ele>15.0</ele><time>2026-04-29T07:30:38.993Z</time></trkpt><trkpt lat="38.273354" lon="22.0399188"><ele>14.666666666666668</ele><time>2026-04-29T07:30:39.994Z</time></trkpt><trkpt lat="38.2732139" lon="22.0401341"><ele>14.333333333333334</ele><time>2026-04-29T07:30:40.994Z</time></trkpt><trkpt lat="38.2730664" lon="22.040297"><ele>14.0</ele><time>2026-04-29T07:30:41.994Z</time></trkpt><trkpt lat="38.2729337" lon="22.0404425"><ele>14.666666666666668</ele><time>2026-04-29T07:30:42.994Z</time></trkpt><trkpt lat="38.272788" lon="22.0405889"><ele>15.333333333333332</ele><time>2026-04-29T07:30:43.993Z</time></trkpt><trkpt lat="38.272638" lon="22.0407178"><ele>16.0</ele><time>2026-04-29T07:30:44.994Z</time></trkpt><trkpt lat="38.2724831" lon="22.0408647"><ele>16.0</ele><time>2026-04-29T07:30:45.993Z</time></trkpt><trkpt lat="38.2723279" lon="22.0410151"><ele>16.0</ele><time>2026-04-29T07:30:46.993Z</time></trkpt><trkpt lat="38.2721724" lon="22.0411586"><ele>16.0</ele><time>2026-04-29T07:30:47.994Z</time></trkpt><trkpt lat="38.2720165" lon="22.0413019"><ele>16.0</ele><time>2026-04-29T07:30:48.993Z</time></trkpt><trkpt lat="38.2718604" lon="22.0414429"><ele>16.0</ele><time>2026-04-29T07:30:49.993Z</time></trkpt><trkpt lat="38.271704" lon="22.0415813"><ele>16.0</ele><time>2026-04-29T07:30:50.994Z</time></trkpt><trkpt lat="38.2715473" lon="22.0417213"><ele>17.0</ele><time>2026-04-29T07:30:51.994Z</time></trkpt><trkpt lat="38.2713927" lon="22.0418648"><ele>18.0</ele><time>2026-04-29T07:30:52.994Z</time></trkpt><trkpt lat="38.271242" lon="22.0420145"><ele>19.0</ele><time>2026-04-29T07:30:53.994Z</time></trkpt><trkpt lat="38.2710975" lon="22.0421791"><ele>19.0</ele><time>2026-04-29T07:30:54.994Z</time></trkpt><trkpt lat="38.2709694" lon="22.0423626"><ele>19.0</ele><time>2026-04-29T07:30:55.993Z</time></trkpt><trkpt lat="38.2708598" lon="22.0425717"><ele>19.0</ele><time>2026-04-29T07:30:56.993Z</time></trkpt><trkpt lat="38.2707564" lon="22.0428034"><ele>18.333333333333332</ele><time>2026-04-29T07:30:57.993Z</time></trkpt><trkpt lat="38.2706598" lon="22.0430388"><ele>17.666666666666668</ele><time>2026-04-29T07:30:58.994Z</time></trkpt><trkpt lat="38.2705621" lon="22.0432628"><ele>17.0</ele><time>2026-04-29T07:30:59.993Z</time></trkpt><trkpt lat="38.2704651" lon="22.0434871"><ele>18.0</ele><time>2026-04-29T07:31:00.994Z</time></trkpt><trkpt lat="38.2703692" lon="22.0437154"><ele>19.0</ele><time>2026-04-29T07:31:01.994Z</time></trkpt><trkpt lat="38.2702676" lon="22.0439343"><ele>20.0</ele><time>2026-04-29T07:31:02.993Z</time></trkpt><trkpt lat="38.270183" lon="22.0441624"><ele>20.0</ele><time>2026-04-29T07:31:03.993Z</time></trkpt><trkpt lat="38.2700861" lon="22.0443883"><ele>20.0</ele><time>2026-04-29T07:31:04.993Z</time></trkpt><trkpt lat="38.2699839" lon="22.0446196"><ele>20.0</ele><time>2026-04-29T07:31:05.994Z</time></trkpt><trkpt lat="38.2698856" lon="22.0448408"><ele>19.333333333333336</ele><time>2026-04-29T07:31:06.993Z</time></trkpt><trkpt lat="38.2697929" lon="22.0450741"><ele>18.666666666666668</ele><time>2026-04-29T07:31:07.993Z</time></trkpt><trkpt lat="38.2697091" lon="22.0453151"><ele>18.0</ele><time>2026-04-29T07:31:08.994Z</time></trkpt><trkpt lat="38.2696317" lon="22.0455657"><ele>19.666666666666668</ele><time>2026-04-29T07:31:09.994Z</time></trkpt><trkpt lat="38.2695552" lon="22.0458237"><ele>21.333333333333336</ele><time>2026-04-29T07:31:10.993Z</time></trkpt><trkpt lat="38.2694838" lon="22.04608"><ele>23.0</ele><time>2026-04-29T07:31:11.994Z</time></trkpt><trkpt lat="38.2694162" lon="22.0463372"><ele>23.0</ele><time>2026-04-29T07:31:12.994Z</time></trkpt><trkpt lat="38.2693519" lon="22.0465871"><ele>23.0</ele><time>2026-04-29T07:31:13.993Z</time></trkpt><trkpt lat="38.2692949" lon="22.046826"><ele>23.0</ele><time>2026-04-29T07:31:14.993Z</time></trkpt><trkpt lat="38.2692326" lon="22.0470636"><ele>22.333333333333336</ele><time>2026-04-29T07:31:15.994Z</time></trkpt><trkpt lat="38.2691769" lon="22.0472998"><ele>21.666666666666668</ele><time>2026-04-29T07:31:16.994Z</time></trkpt><trkpt lat="38.2691157" lon="22.0475503"><ele>21.0</ele><time>2026-04-29T07:31:17.993Z</time></trkpt><trkpt lat="38.2690555" lon="22.0477756"><ele>21.0</ele><time>2026-04-29T07:31:18.994Z</time></trkpt><trkpt lat="38.2689975" lon="22.0479971"><ele>21.0</ele><time>2026-04-29T07:31:19.993Z</time></trkpt><trkpt lat="38.2689412" lon="22.0482085"><ele>21.0</ele><time>2026-04-29T07:31:20.993Z</time></trkpt><trkpt lat="38.2688954" lon="22.0484122"><ele>23.0</ele><time>2026-04-29T07:31:21.994Z</time></trkpt><trkpt lat="38.2688399" lon="22.0486088"><ele>25.0</ele><time>2026-04-29T07:31:22.994Z</time></trkpt><trkpt lat="38.2687796" lon="22.0487999"><ele>27.0</ele><time>2026-04-29T07:31:23.993Z</time></trkpt><trkpt lat="38.2687177" lon="22.0489851"><ele>27.333333333333336</ele><time>2026-04-29T07:31:24.994Z</time></trkpt><trkpt lat="38.2686577" lon="22.0491773"><ele>27.666666666666668</ele><time>2026-04-29T07:31:25.994Z</time></trkpt><trkpt lat="38.2685919" lon="22.0493502"><ele>28.0</ele><time>2026-04-29T07:31:26.994Z</time></trkpt><trkpt lat="38.2685258" lon="22.0495113"><ele>28.0</ele><time>2026-04-29T07:31:27.994Z</time></trkpt><trkpt lat="38.2684656" lon="22.0496716"><ele>28.0</ele><time>2026-04-29T07:31:28.993Z</time></trkpt><trkpt lat="38.2683971" lon="22.049821"><ele>28.0</ele><time>2026-04-29T07:31:29.994Z</time></trkpt><trkpt lat="38.2683176" lon="22.0499497"><ele>28.0</ele><time>2026-04-29T07:31:30.993Z</time></trkpt><trkpt lat="38.2682211" lon="22.0500623"><ele>27.75</ele><time>2026-04-29T07:31:31.993Z</time></trkpt><trkpt lat="38.2681171" lon="22.0501714"><ele>27.5</ele><time>2026-04-29T07:31:32.993Z</time></trkpt><trkpt lat="38.2680003" lon="22.0502545"><ele>27.25</ele><time>2026-04-29T07:31:33.994Z</time></trkpt><trkpt lat="38.2678889" lon="22.0503651"><ele>27.0</ele><time>2026-04-29T07:31:34.994Z</time></trkpt><trkpt lat="38.2678034" lon="22.050496"><ele>27.25</ele><time>2026-04-29T07:31:35.993Z</time></trkpt><trkpt lat="38.2677205" lon="22.0506381"><ele>27.5</ele><time>2026-04-29T07:31:36.994Z</time></trkpt><trkpt lat="38.2676376" lon="22.0507599"><ele>27.75</ele><time>2026-04-29T07:31:37.994Z</time></trkpt><trkpt lat="38.2675443" lon="22.0508828"><ele>28.0</ele><time>2026-04-29T07:31:38.993Z</time></trkpt><trkpt lat="38.2674595" lon="22.0510126"><ele>28.0</ele><time>2026-04-29T07:31:39.994Z</time></trkpt><trkpt lat="38.2673678" lon="22.0511232"><ele>28.0</ele><time>2026-04-29T07:31:40.993Z</time></trkpt><trkpt lat="38.2672781" lon="22.0512295"><ele>28.0</ele><time>2026-04-29T07:31:41.994Z</time></trkpt><trkpt lat="38.2671782" lon="22.0513334"><ele>28.0</ele><time>2026-04-29T07:31:42.994Z</time></trkpt><trkpt lat="38.2670772" lon="22.0514365"><ele>28.0</ele><time>2026-04-29T07:31:43.993Z</time></trkpt><trkpt lat="38.2669887" lon="22.0515363"><ele>28.0</ele><time>2026-04-29T07:31:44.994Z</time></trkpt><trkpt lat="38.2668927" lon="22.0516298"><ele>28.0</ele><time>2026-04-29T07:31:45.994Z</time></trkpt><trkpt lat="38.2668148" lon="22.0517269"><ele>28.0</ele><time>2026-04-29T07:31:46.993Z</time></trkpt><trkpt lat="38.2667385" lon="22.0518158"><ele>28.000000000000004</ele><time>2026-04-29T07:31:47.994Z</time></trkpt><trkpt lat="38.2666721" lon="22.0518945"><ele>28.0</ele><time>2026-04-29T07:31:48.994Z</time></trkpt><trkpt lat="38.2666132" lon="22.0519663"><ele>28.0</ele><time>2026-04-29T07:31:49.994Z</time></trkpt><trkpt lat="38.266558" lon="22.0520237"><ele>28.0</ele><time>2026-04-29T07:31:50.994Z</time></trkpt><trkpt lat="38.2665124" lon="22.0520846"><ele>28.000000000000004</ele><time>2026-04-29T07:31:51.994Z</time></trkpt><trkpt lat="38.266428" lon="22.0521721"><ele>28.0</ele><time>2026-04-29T07:31:53.994Z</time></trkpt><trkpt lat="38.2663687" lon="22.0522222"><ele>27.75</ele><time>2026-04-29T07:31:54.993Z</time></trkpt><trkpt lat="38.2662957" lon="22.0523172"><ele>27.5</ele><time>2026-04-29T07:31:55.994Z</time></trkpt><trkpt lat="38.2661912" lon="22.0524412"><ele>27.25</ele><time>2026-04-29T07:31:56.994Z</time></trkpt><trkpt lat="38.2660744" lon="22.0525712"><ele>27.0</ele><time>2026-04-29T07:31:57.993Z</time></trkpt><trkpt lat="38.2659548" lon="22.052707"><ele>27.0</ele><time>2026-04-29T07:31:58.994Z</time></trkpt><trkpt lat="38.2658371" lon="22.052836"><ele>27.0</ele><time>2026-04-29T07:31:59.994Z</time></trkpt><trkpt lat="38.2657242" lon="22.0529618"><ele>27.0</ele><time>2026-04-29T07:32:00.993Z</time></trkpt><trkpt lat="38.2656111" lon="22.053088"><ele>27.25</ele><time>2026-04-29T07:32:01.994Z</time></trkpt><trkpt lat="38.2655009" lon="22.0532112"><ele>27.5</ele><time>2026-04-29T07:32:02.994Z</time></trkpt><trkpt lat="38.2653957" lon="22.0533268"><ele>27.75</ele><time>2026-04-29T07:32:03.994Z</time></trkpt><trkpt lat="38.2652923" lon="22.0534476"><ele>28.0</ele><time>2026-04-29T07:32:04.993Z</time></trkpt><trkpt lat="38.2651832" lon="22.0535591"><ele>28.0</ele><time>2026-04-29T07:32:05.993Z</time></trkpt><trkpt lat="38.265076" lon="22.0536787"><ele>28.0</ele><time>2026-04-29T07:32:06.994Z</time></trkpt><trkpt lat="38.264963" lon="22.0537839"><ele>28.0</ele><time>2026-04-29T07:32:07.993Z</time></trkpt><trkpt lat="38.2648491" lon="22.0538818"><ele>28.0</ele><time>2026-04-29T07:32:08.994Z</time></trkpt><trkpt lat="38.2647288" lon="22.0539708"><ele>28.5</ele><time>2026-04-29T07:32:09.994Z</time></trkpt><trkpt lat="38.2646107" lon="22.0540635"><ele>29.0</ele><time>2026-04-29T07:32:10.994Z</time></trkpt><trkpt lat="38.2644957" lon="22.0541549"><ele>29.5</ele><time>2026-04-29T07:32:11.993Z</time></trkpt><trkpt lat="38.2643847" lon="22.0542436"><ele>30.0</ele><time>2026-04-29T07:32:12.994Z</time></trkpt><trkpt lat="38.2642731" lon="22.054327"><ele>30.0</ele><time>2026-04-29T07:32:13.994Z</time></trkpt><trkpt lat="38.264171" lon="22.0544045"><ele>30.0</ele><time>2026-04-29T07:32:14.994Z</time></trkpt><trkpt lat="38.2640637" lon="22.0544725"><ele>30.0</ele><time>2026-04-29T07:32:15.993Z</time></trkpt><trkpt lat="38.2639647" lon="22.0545399"><ele>30.0</ele><time>2026-04-29T07:32:16.993Z</time></trkpt><trkpt lat="38.2638698" lon="22.0546088"><ele>30.5</ele><time>2026-04-29T07:32:17.994Z</time></trkpt><trkpt lat="38.2637655" lon="22.0546611"><ele>31.0</ele><time>2026-04-29T07:32:18.993Z</time></trkpt><trkpt lat="38.2636648" lon="22.054734"><ele>31.5</ele><time>2026-04-29T07:32:19.994Z</time></trkpt><trkpt lat="38.2635622" lon="22.0548019"><ele>32.0</ele><time>2026-04-29T07:32:20.993Z</time></trkpt><trkpt lat="38.2634577" lon="22.0548722"><ele>32.0</ele><time>2026-04-29T07:32:21.993Z</time></trkpt><trkpt lat="38.2633536" lon="22.0549373"><ele>32.0</ele><time>2026-04-29T07:32:22.994Z</time></trkpt><trkpt lat="38.2632519" lon="22.055006"><ele>32.0</ele><time>2026-04-29T07:32:23.993Z</time></trkpt><trkpt lat="38.2631559" lon="22.0550744"><ele>32.0</ele><time>2026-04-29T07:32:24.993Z</time></trkpt><trkpt lat="38.2630581" lon="22.0551439"><ele>32.0</ele><time>2026-04-29T07:32:25.993Z</time></trkpt><trkpt lat="38.2629608" lon="22.0552209"><ele>32.0</ele><time>2026-04-29T07:32:26.993Z</time></trkpt><trkpt lat="38.2628684" lon="22.0552948"><ele>32.0</ele><time>2026-04-29T07:32:27.994Z</time></trkpt><trkpt lat="38.2627635" lon="22.0553859"><ele>32.0</ele><time>2026-04-29T07:32:28.993Z</time></trkpt><trkpt lat="38.2626544" lon="22.0554707"><ele>32.0</ele><time>2026-04-29T07:32:29.994Z</time></trkpt><trkpt lat="38.2625402" lon="22.0555703"><ele>32.0</ele><time>2026-04-29T07:32:30.994Z</time></trkpt><trkpt lat="38.2624105" lon="22.0556753"><ele>32.0</ele><time>2026-04-29T07:32:31.994Z</time></trkpt><trkpt lat="38.2622334" lon="22.0557941"><ele>32.0</ele><time>2026-04-29T07:32:32.994Z</time></trkpt><trkpt lat="38.2620498" lon="22.0559114"><ele>32.0</ele><time>2026-04-29T07:32:33.993Z</time></trkpt><trkpt lat="38.2618623" lon="22.0560207"><ele>32.0</ele><time>2026-04-29T07:32:34.994Z</time></trkpt><trkpt lat="38.2616686" lon="22.0561032"><ele>32.0</ele><time>2026-04-29T07:32:35.994Z</time></trkpt><trkpt lat="38.2614907" lon="22.0561897"><ele>32.0</ele><time>2026-04-29T07:32:36.994Z</time></trkpt><trkpt lat="38.2613258" lon="22.0562621"><ele>32.0</ele><time>2026-04-29T07:32:37.994Z</time></trkpt><trkpt lat="38.2611698" lon="22.0563424"><ele>32.25</ele><time>2026-04-29T07:32:38.994Z</time></trkpt><trkpt lat="38.26103" lon="22.0564194"><ele>32.5</ele><time>2026-04-29T07:32:39.993Z</time></trkpt><trkpt lat="38.2608953" lon="22.056492"><ele>32.75</ele><time>2026-04-29T07:32:40.993Z</time></trkpt><trkpt lat="38.260774" lon="22.0565693"><ele>33.0</ele><time>2026-04-29T07:32:41.993Z</time></trkpt><trkpt lat="38.2606568" lon="22.0566625"><ele>33.5</ele><time>2026-04-29T07:32:42.994Z</time></trkpt><trkpt lat="38.2605538" lon="22.0567802"><ele>34.0</ele><time>2026-04-29T07:32:43.993Z</time></trkpt><trkpt lat="38.2604654" lon="22.0569171"><ele>34.5</ele><time>2026-04-29T07:32:44.993Z</time></trkpt><trkpt lat="38.2603923" lon="22.0570782"><ele>35.0</ele><time>2026-04-29T07:32:45.994Z</time></trkpt><trkpt lat="38.260336" lon="22.0572481"><ele>35.0</ele><time>2026-04-29T07:32:46.993Z</time></trkpt><trkpt lat="38.2602881" lon="22.0574268"><ele>35.0</ele><time>2026-04-29T07:32:47.993Z</time></trkpt><trkpt lat="38.2602447" lon="22.0576102"><ele>35.0</ele><time>2026-04-29T07:32:48.994Z</time></trkpt><trkpt lat="38.260214" lon="22.0577937"><ele>35.0</ele><time>2026-04-29T07:32:49.994Z</time></trkpt><trkpt lat="38.2601906" lon="22.0579859"><ele>34.5</ele><time>2026-04-29T07:32:50.994Z</time></trkpt><trkpt lat="38.2601733" lon="22.0581727"><ele>34.0</ele><time>2026-04-29T07:32:51.993Z</time></trkpt><trkpt lat="38.2601716" lon="22.0583583"><ele>33.5</ele><time>2026-04-29T07:32:52.993Z</time></trkpt><trkpt lat="38.2601634" lon="22.0585413"><ele>33.0</ele><time>2026-04-29T07:32:53.994Z</time></trkpt><trkpt lat="38.2601511" lon="22.0587031"><ele>32.75</ele><time>2026-04-29T07:32:54.994Z</time></trkpt><trkpt lat="38.2601367" lon="22.0588609"><ele>32.5</ele><time>2026-04-29T07:32:55.994Z</time></trkpt><trkpt lat="38.2601229" lon="22.0590168"><ele>32.25</ele><time>2026-04-29T07:32:56.994Z</time></trkpt><trkpt lat="38.2601112" lon="22.0591766"><ele>32.0</ele><time>2026-04-29T07:32:57.994Z</time></trkpt><trkpt lat="38.2600923" lon="22.059324"><ele>31.8</ele><time>2026-04-29T07:32:58.993Z</time></trkpt><trkpt lat="38.2600725" lon="22.0594665"><ele>31.6</ele><time>2026-04-29T07:32:59.993Z</time></trkpt><trkpt lat="38.2600547" lon="22.059606"><ele>31.400000000000002</ele><time>2026-04-29T07:33:00.993Z</time></trkpt><trkpt lat="38.2600325" lon="22.0597391"><ele>31.200000000000003</ele><time>2026-04-29T07:33:01.993Z</time></trkpt><trkpt lat="38.2600017" lon="22.0598821"><ele>31.0</ele><time>2026-04-29T07:33:02.993Z</time></trkpt><trkpt lat="38.2599828" lon="22.0600155"><ele>30.8</ele><time>2026-04-29T07:33:03.993Z</time></trkpt><trkpt lat="38.2599635" lon="22.0601425"><ele>30.6</ele><time>2026-04-29T07:33:04.994Z</time></trkpt><trkpt lat="38.2599319" lon="22.0602558"><ele>30.4</ele><time>2026-04-29T07:33:05.993Z</time></trkpt><trkpt lat="38.2599005" lon="22.0603446"><ele>30.2</ele><time>2026-04-29T07:33:06.994Z</time></trkpt><trkpt lat="38.2598695" lon="22.0604645"><ele>30.0</ele><time>2026-04-29T07:33:07.993Z</time></trkpt><trkpt lat="38.2598427" lon="22.0606013"><ele>30.0</ele><time>2026-04-29T07:33:08.993Z</time></trkpt><trkpt lat="38.2598177" lon="22.0607298"><ele>30.0</ele><time>2026-04-29T07:33:09.994Z</time></trkpt><trkpt lat="38.259797" lon="22.0608626"><ele>30.0</ele><time>2026-04-29T07:33:10.993Z</time></trkpt><trkpt lat="38.2597719" lon="22.0609777"><ele>30.0</ele><time>2026-04-29T07:33:11.994Z</time></trkpt><trkpt lat="38.2597505" lon="22.0610989"><ele>30.0</ele><time>2026-04-29T07:33:12.994Z</time></trkpt><trkpt lat="38.2597322" lon="22.0611989"><ele>29.8</ele><time>2026-04-29T07:33:13.993Z</time></trkpt><trkpt lat="38.2596968" lon="22.061316"><ele>29.6</ele><time>2026-04-29T07:33:14.993Z</time></trkpt><trkpt lat="38.2596888" lon="22.0614768"><ele>29.4</ele><time>2026-04-29T07:33:15.994Z</time></trkpt><trkpt lat="38.2596515" lon="22.0615903"><ele>29.2</ele><time>2026-04-29T07:33:16.993Z</time></trkpt><trkpt lat="38.2595911" lon="22.0616916"><ele>29.0</ele><time>2026-04-29T07:33:17.993Z</time></trkpt><trkpt lat="38.2595102" lon="22.0618034"><ele>28.5</ele><time>2026-04-29T07:33:18.994Z</time></trkpt><trkpt lat="38.2594072" lon="22.0619101"><ele>28.0</ele><time>2026-04-29T07:33:19.994Z</time></trkpt><trkpt lat="38.2592763" lon="22.0620067"><ele>27.5</ele><time>2026-04-29T07:33:20.994Z</time></trkpt><trkpt lat="38.2591434" lon="22.0621027"><ele>27.0</ele><time>2026-04-29T07:33:21.994Z</time></trkpt><trkpt lat="38.2590046" lon="22.0622048"><ele>27.666666666666664</ele><time>2026-04-29T07:33:22.994Z</time></trkpt><trkpt lat="38.2588602" lon="22.0623044"><ele>28.333333333333332</ele><time>2026-04-29T07:33:23.994Z</time></trkpt><trkpt lat="38.2587138" lon="22.0624175"><ele>29.0</ele><time>2026-04-29T07:33:24.994Z</time></trkpt><trkpt lat="38.2585566" lon="22.0625397"><ele>29.0</ele><time>2026-04-29T07:33:25.994Z</time></trkpt><trkpt lat="38.2584027" lon="22.0626484"><ele>29.0</ele><time>2026-04-29T07:33:26.993Z</time></trkpt><trkpt lat="38.2582505" lon="22.0627601"><ele>29.0</ele><time>2026-04-29T07:33:27.994Z</time></trkpt><trkpt lat="38.2581014" lon="22.0628813"><ele>29.666666666666664</ele><time>2026-04-29T07:33:28.993Z</time></trkpt><trkpt lat="38.2579509" lon="22.063019"><ele>30.333333333333336</ele><time>2026-04-29T07:33:29.993Z</time></trkpt><trkpt lat="38.2578106" lon="22.0631641"><ele>31.0</ele><time>2026-04-29T07:33:30.994Z</time></trkpt><trkpt lat="38.2576787" lon="22.0633079"><ele>31.0</ele><time>2026-04-29T07:33:31.993Z</time></trkpt><trkpt lat="38.257557" lon="22.0634487"><ele>31.0</ele><time>2026-04-29T07:33:32.994Z</time></trkpt><trkpt lat="38.2574488" lon="22.0635868"><ele>31.0</ele><time>2026-04-29T07:33:33.994Z</time></trkpt><trkpt lat="38.2573488" lon="22.063713"><ele>33.5</ele><time>2026-04-29T07:33:34.994Z</time></trkpt><trkpt lat="38.2572608" lon="22.0638426"><ele>36.0</ele><time>2026-04-29T07:33:35.993Z</time></trkpt><trkpt lat="38.2571774" lon="22.0639776"><ele>38.5</ele><time>2026-04-29T07:33:36.993Z</time></trkpt><trkpt lat="38.2571022" lon="22.0640978"><ele>41.0</ele><time>2026-04-29T07:33:37.993Z</time></trkpt><trkpt lat="38.2570414" lon="22.0642231"><ele>41.0</ele><time>2026-04-29T07:33:38.993Z</time></trkpt><trkpt lat="38.2569861" lon="22.0643159"><ele>41.0</ele><time>2026-04-29T07:33:39.993Z</time></trkpt><trkpt lat="38.2569382" lon="22.0644006"><ele>41.0</ele><time>2026-04-29T07:33:40.994Z</time></trkpt><trkpt lat="38.2568901" lon="22.0644997"><ele>41.0</ele><time>2026-04-29T07:33:41.994Z</time></trkpt><trkpt lat="38.2568374" lon="22.0646277"><ele>41.0</ele><time>2026-04-29T07:33:42.994Z</time></trkpt><trkpt lat="38.2567697" lon="22.0647803"><ele>38.0</ele><time>2026-04-29T07:33:43.993Z</time></trkpt><trkpt lat="38.2566936" lon="22.0649626"><ele>35.0</ele><time>2026-04-29T07:33:44.993Z</time></trkpt><trkpt lat="38.2566156" lon="22.0651369"><ele>32.0</ele><time>2026-04-29T07:33:45.994Z</time></trkpt><trkpt lat="38.2565307" lon="22.0653355"><ele>40.0</ele><time>2026-04-29T07:33:46.994Z</time></trkpt><trkpt lat="38.2564516" lon="22.0655326"><ele>48.0</ele><time>2026-04-29T07:33:47.994Z</time></trkpt><trkpt lat="38.2563501" lon="22.0657496"><ele>56.0</ele><time>2026-04-29T07:33:48.993Z</time></trkpt><trkpt lat="38.2562441" lon="22.065972"><ele>56.0</ele><time>2026-04-29T07:33:49.993Z</time></trkpt><trkpt lat="38.2561261" lon="22.0662001"><ele>56.0</ele><time>2026-04-29T07:33:50.994Z</time></trkpt><trkpt lat="38.2559948" lon="22.0664324"><ele>56.0</ele><time>2026-04-29T07:33:51.993Z</time></trkpt><trkpt lat="38.2558316" lon="22.0666723"><ele>61.5</ele><time>2026-04-29T07:33:52.994Z</time></trkpt><trkpt lat="38.2556384" lon="22.0669219"><ele>67.0</ele><time>2026-04-29T07:33:53.993Z</time></trkpt><trkpt lat="38.2554451" lon="22.0671828"><ele>67.0</ele><time>2026-04-29T07:33:54.993Z</time></trkpt><trkpt lat="38.2552512" lon="22.0674378"><ele>67.0</ele><time>2026-04-29T07:33:55.993Z</time></trkpt><trkpt lat="38.2550732" lon="22.0676811"><ele>73.0</ele><time>2026-04-29T07:33:56.994Z</time></trkpt><trkpt lat="38.2548968" lon="22.0679149"><ele>79.0</ele><time>2026-04-29T07:33:57.994Z</time></trkpt><trkpt lat="38.2547461" lon="22.0681483"><ele>70.0</ele><time>2026-04-29T07:33:58.993Z</time></trkpt><trkpt lat="38.2546029" lon="22.0683804"><ele>61.0</ele><time>2026-04-29T07:33:59.994Z</time></trkpt><trkpt lat="38.2544729" lon="22.0686226"><ele>61.0</ele><time>2026-04-29T07:34:00.993Z</time></trkpt><trkpt lat="38.2543508" lon="22.0688566"><ele>61.0</ele><time>2026-04-29T07:34:01.993Z</time></trkpt><trkpt lat="38.2542556" lon="22.0691059"><ele>61.0</ele><time>2026-04-29T07:34:02.993Z</time></trkpt><trkpt lat="38.2541749" lon="22.0693645"><ele>58.666666666666664</ele><time>2026-04-29T07:34:03.994Z</time></trkpt><trkpt lat="38.2541051" lon="22.069608"><ele>56.33333333333333</ele><time>2026-04-29T07:34:04.993Z</time></trkpt><trkpt lat="38.2540428" lon="22.0698491"><ele>54.0</ele><time>2026-04-29T07:34:05.994Z</time></trkpt><trkpt lat="38.2539871" lon="22.0700866"><ele>62.0</ele><time>2026-04-29T07:34:06.993Z</time></trkpt><trkpt lat="38.2539357" lon="22.0703287"><ele>70.0</ele><time>2026-04-29T07:34:07.993Z</time></trkpt><trkpt lat="38.2538835" lon="22.0705718"><ele>78.0</ele><time>2026-04-29T07:34:08.994Z</time></trkpt><trkpt lat="38.2538285" lon="22.0708222"><ele>78.0</ele><time>2026-04-29T07:34:09.993Z</time></trkpt><trkpt lat="38.2537771" lon="22.0710722"><ele>78.0</ele><time>2026-04-29T07:34:10.994Z</time></trkpt><trkpt lat="38.2537226" lon="22.0713189"><ele>78.0</ele><time>2026-04-29T07:34:11.993Z</time></trkpt><trkpt lat="38.2536691" lon="22.0715659"><ele>74.0</ele><time>2026-04-29T07:34:12.994Z</time></trkpt><trkpt lat="38.2536227" lon="22.0718099"><ele>70.0</ele><time>2026-04-29T07:34:13.994Z</time></trkpt><trkpt lat="38.2535739" lon="22.0720312"><ele>66.0</ele><time>2026-04-29T07:34:14.994Z</time></trkpt><trkpt lat="38.2535267" lon="22.072267"><ele>65.0</ele><time>2026-04-29T07:34:15.994Z</time></trkpt><trkpt lat="38.2534828" lon="22.0725074"><ele>64.0</ele><time>2026-04-29T07:34:16.994Z</time></trkpt><trkpt lat="38.2534528" lon="22.0727538"><ele>63.0</ele><time>2026-04-29T07:34:17.994Z</time></trkpt><trkpt lat="38.2534159" lon="22.0730014"><ele>63.0</ele><time>2026-04-29T07:34:18.993Z</time></trkpt><trkpt lat="38.2533833" lon="22.0732471"><ele>63.0</ele><time>2026-04-29T07:34:19.993Z</time></trkpt><trkpt lat="38.2533431" lon="22.0734825"><ele>63.0</ele><time>2026-04-29T07:34:20.994Z</time></trkpt><trkpt lat="38.2533219" lon="22.0737232"><ele>61.66666666666667</ele><time>2026-04-29T07:34:21.993Z</time></trkpt><trkpt lat="38.2532983" lon="22.0739632"><ele>60.333333333333336</ele><time>2026-04-29T07:34:22.994Z</time></trkpt><trkpt lat="38.2532748" lon="22.0741993"><ele>59.0</ele><time>2026-04-29T07:34:23.994Z</time></trkpt><trkpt lat="38.2532544" lon="22.0744512"><ele>57.66666666666667</ele><time>2026-04-29T07:34:24.993Z</time></trkpt><trkpt lat="38.2532304" lon="22.0746933"><ele>56.33333333333333</ele><time>2026-04-29T07:34:25.994Z</time></trkpt><trkpt lat="38.253203" lon="22.0749414"><ele>55.0</ele><time>2026-04-29T07:34:26.993Z</time></trkpt><trkpt lat="38.2531836" lon="22.0751927"><ele>50.666666666666664</ele><time>2026-04-29T07:34:27.994Z</time></trkpt><trkpt lat="38.2531626" lon="22.0754435"><ele>46.33333333333333</ele><time>2026-04-29T07:34:28.994Z</time></trkpt><trkpt lat="38.2531364" lon="22.075703"><ele>42.0</ele><time>2026-04-29T07:34:29.993Z</time></trkpt><trkpt lat="38.253116" lon="22.0759601"><ele>57.0</ele><time>2026-04-29T07:34:30.993Z</time></trkpt><trkpt lat="38.2530899" lon="22.0762155"><ele>72.0</ele><time>2026-04-29T07:34:31.993Z</time></trkpt><trkpt lat="38.2530623" lon="22.0764727"><ele>87.0</ele><time>2026-04-29T07:34:32.994Z</time></trkpt><trkpt lat="38.2530297" lon="22.076731"><ele>87.0</ele><time>2026-04-29T07:34:33.994Z</time></trkpt><trkpt lat="38.2529966" lon="22.0769965"><ele>87.0</ele><time>2026-04-29T07:34:34.993Z</time></trkpt><trkpt lat="38.2529692" lon="22.07725"><ele>87.0</ele><time>2026-04-29T07:34:35.993Z</time></trkpt><trkpt lat="38.2529376" lon="22.0775075"><ele>84.33333333333333</ele><time>2026-04-29T07:34:36.994Z</time></trkpt><trkpt lat="38.2528989" lon="22.0777764"><ele>81.66666666666666</ele><time>2026-04-29T07:34:37.994Z</time></trkpt><trkpt lat="38.2528626" lon="22.0780411"><ele>79.0</ele><time>2026-04-29T07:34:38.994Z</time></trkpt><trkpt lat="38.2528315" lon="22.0782958"><ele>79.0</ele><time>2026-04-29T07:34:39.994Z</time></trkpt><trkpt lat="38.2528017" lon="22.0785741"><ele>79.0</ele><time>2026-04-29T07:34:40.993Z</time></trkpt><trkpt lat="38.2527721" lon="22.0788324"><ele>79.0</ele><time>2026-04-29T07:34:41.994Z</time></trkpt><trkpt lat="38.2527432" lon="22.0790853"><ele>77.0</ele><time>2026-04-29T07:34:42.994Z</time></trkpt><trkpt lat="38.2527055" lon="22.07936"><ele>75.0</ele><time>2026-04-29T07:34:43.994Z</time></trkpt><trkpt lat="38.2526727" lon="22.0796185"><ele>73.0</ele><time>2026-04-29T07:34:44.994Z</time></trkpt><trkpt lat="38.2526418" lon="22.079874"><ele>70.66666666666666</ele><time>2026-04-29T07:34:45.994Z</time></trkpt><trkpt lat="38.2526009" lon="22.080111"><ele>68.33333333333333</ele><time>2026-04-29T07:34:46.994Z</time></trkpt><trkpt lat="38.2525631" lon="22.0803189"><ele>66.0</ele><time>2026-04-29T07:34:47.993Z</time></trkpt><trkpt lat="38.2525169" lon="22.0804993"><ele>66.0</ele><time>2026-04-29T07:34:48.994Z</time></trkpt><trkpt lat="38.2524532" lon="22.0806692"><ele>66.0</ele><time>2026-04-29T07:34:49.993Z</time></trkpt><trkpt lat="38.2523706" lon="22.0808283"><ele>66.0</ele><time>2026-04-29T07:34:50.994Z</time></trkpt><trkpt lat="38.2522704" lon="22.0809643"><ele>66.0</ele><time>2026-04-29T07:34:51.993Z</time></trkpt><trkpt lat="38.2521621" lon="22.0810718"><ele>66.75</ele><time>2026-04-29T07:34:52.994Z</time></trkpt><trkpt lat="38.2520402" lon="22.0811668"><ele>67.5</ele><time>2026-04-29T07:34:53.994Z</time></trkpt><trkpt lat="38.2519127" lon="22.0812404"><ele>68.25</ele><time>2026-04-29T07:34:54.994Z</time></trkpt><trkpt lat="38.2517909" lon="22.0812699"><ele>69.0</ele><time>2026-04-29T07:34:55.994Z</time></trkpt><trkpt lat="38.2516646" lon="22.0812822"><ele>69.0</ele><time>2026-04-29T07:34:56.993Z</time></trkpt><trkpt lat="38.2515495" lon="22.0812793"><ele>69.0</ele><time>2026-04-29T07:34:57.993Z</time></trkpt><trkpt lat="38.2514347" lon="22.0812579"><ele>69.0</ele><time>2026-04-29T07:34:58.994Z</time></trkpt><trkpt lat="38.2513313" lon="22.0812345"><ele>69.0</ele><time>2026-04-29T07:34:59.993Z</time></trkpt><trkpt lat="38.2512446" lon="22.0812264"><ele>69.0</ele><time>2026-04-29T07:35:00.994Z</time></trkpt><trkpt lat="38.2511741" lon="22.0812023"><ele>68.8</ele><time>2026-04-29T07:35:01.994Z</time></trkpt><trkpt lat="38.2511105" lon="22.0811769"><ele>68.60000000000001</ele><time>2026-04-29T07:35:02.994Z</time></trkpt><trkpt lat="38.2509967" lon="22.0811299"><ele>68.4</ele><time>2026-04-29T07:35:04.993Z</time></trkpt><trkpt lat="38.2508867" lon="22.0810861"><ele>68.2</ele><time>2026-04-29T07:35:06.994Z</time></trkpt><trkpt lat="38.2508103" lon="22.081047"><ele>68.0</ele><time>2026-04-29T07:35:08.994Z</time></trkpt><trkpt lat="38.2507404" lon="22.0810088"><ele>68.0</ele><time>2026-04-29T07:36:18.994Z</time></trkpt><trkpt lat="38.2506418" lon="22.080984"><ele>68.0</ele><time>2026-04-29T07:36:20.993Z</time></trkpt><trkpt lat="38.2505769" lon="22.0809699"><ele>68.0</ele><time>2026-04-29T07:36:21.994Z</time></trkpt><trkpt lat="38.2505117" lon="22.0809514"><ele>68.0</ele><time>2026-04-29T07:36:22.994Z</time></trkpt><trkpt lat="38.2504492" lon="22.0809357"><ele>68.0</ele><time>2026-04-29T07:36:23.994Z</time></trkpt><trkpt lat="38.2503357" lon="22.080912"><ele>68.0</ele><time>2026-04-29T07:36:25.994Z</time></trkpt><trkpt lat="38.2502122" lon="22.0808808"><ele>68.2</ele><time>2026-04-29T07:36:27.994Z</time></trkpt><trkpt lat="38.2501348" lon="22.0808552"><ele>68.4</ele><time>2026-04-29T07:36:28.964Z</time></trkpt><trkpt lat="38.2500612" lon="22.0808195"><ele>68.60000000000001</ele><time>2026-04-29T07:36:29.966Z</time></trkpt><trkpt lat="38.2499952" lon="22.080793"><ele>68.8</ele><time>2026-04-29T07:36:30.965Z</time></trkpt><trkpt lat="38.2498711" lon="22.080745"><ele>69.0</ele><time>2026-04-29T07:36:32.965Z</time></trkpt><trkpt lat="38.2497404" lon="22.0807108"><ele>70.0</ele><time>2026-04-29T07:36:34.964Z</time></trkpt><trkpt lat="38.2496647" lon="22.0806997"><ele>71.0</ele><time>2026-04-29T07:36:35.965Z</time></trkpt><trkpt lat="38.2495899" lon="22.0806906"><ele>72.0</ele><time>2026-04-29T07:36:36.964Z</time></trkpt><trkpt lat="38.2495146" lon="22.0806743"><ele>73.0</ele><time>2026-04-29T07:36:37.964Z</time></trkpt><trkpt lat="38.2494428" lon="22.0806638"><ele>74.0</ele><time>2026-04-29T07:36:38.965Z</time></trkpt><trkpt lat="38.2493752" lon="22.0806527"><ele>75.0</ele><time>2026-04-29T07:36:39.965Z</time></trkpt><trkpt lat="38.2493018" lon="22.0806364"><ele>76.0</ele><time>2026-04-29T07:36:40.964Z</time></trkpt><trkpt lat="38.2492338" lon="22.0806283"><ele>76.0</ele><time>2026-04-29T07:36:41.965Z</time></trkpt><trkpt lat="38.2491678" lon="22.0806215"><ele>76.0</ele><time>2026-04-29T07:36:42.965Z</time></trkpt><trkpt lat="38.2491019" lon="22.0806129"><ele>76.0</ele><time>2026-04-29T07:36:43.965Z</time></trkpt><trkpt lat="38.2489848" lon="22.0805838"><ele>76.0</ele><time>2026-04-29T07:36:45.965Z</time></trkpt><trkpt lat="38.2489088" lon="22.0805443"><ele>76.0</ele><time>2026-04-29T07:36:47.964Z</time></trkpt><trkpt lat="38.2488752" lon="22.0804612"><ele>76.0</ele><time>2026-04-29T07:36:49.964Z</time></trkpt><trkpt lat="38.2488554" lon="22.0803321"><ele>76.16666666666666</ele><time>2026-04-29T07:36:51.965Z</time></trkpt><trkpt lat="38.2488469" lon="22.0802466"><ele>76.33333333333333</ele><time>2026-04-29T07:36:52.964Z</time></trkpt><trkpt lat="38.2488371" lon="22.0801556"><ele>76.5</ele><time>2026-04-29T07:36:53.965Z</time></trkpt><trkpt lat="38.2488265" lon="22.0800646"><ele>76.66666666666667</ele><time>2026-04-29T07:36:54.965Z</time></trkpt><trkpt lat="38.2488156" lon="22.0799776"><ele>76.83333333333334</ele><time>2026-04-29T07:36:55.965Z</time></trkpt><trkpt lat="38.2488016" lon="22.0798418"><ele>77.0</ele><time>2026-04-29T07:36:57.965Z</time></trkpt><trkpt lat="38.2488033" lon="22.079757"><ele>76.8</ele><time>2026-04-29T07:36:59.964Z</time></trkpt><trkpt lat="38.2488952" lon="22.079706"><ele>76.6</ele><time>2026-04-29T07:37:02.965Z</time></trkpt><trkpt lat="38.2490133" lon="22.0796864"><ele>76.39999999999999</ele><time>2026-04-29T07:37:04.965Z</time></trkpt><trkpt lat="38.2491091" lon="22.0796686"><ele>76.2</ele><time>2026-04-29T07:37:06.965Z</time></trkpt><trkpt lat="38.2491715" lon="22.0796819"><ele>76.0</ele><time>2026-04-29T07:37:12.964Z</time></trkpt><trkpt lat="38.2492477" lon="22.0796594"><ele>76.0</ele><time>2026-04-29T07:37:15.965Z</time></trkpt><trkpt lat="38.2493196" lon="22.0796435"><ele>76.0</ele><time>2026-04-29T07:37:17.964Z</time></trkpt><trkpt lat="38.2493893" lon="22.0796273"><ele>76.0</ele><time>2026-04-29T07:37:19.964Z</time></trkpt><trkpt lat="38.249457" lon="22.0796209"><ele>76.0</ele><time>2026-04-29T07:37:23.965Z</time></trkpt><trkpt lat="38.2495299" lon="22.0796083"><ele>76.0</ele><time>2026-04-29T07:37:26.964Z</time></trkpt><trkpt lat="38.2496236" lon="22.0795791"><ele>76.0</ele><time>2026-04-29T07:37:28.964Z</time></trkpt><trkpt lat="38.2496895" lon="22.0795698"><ele>76.0</ele><time>2026-04-29T07:37:29.965Z</time></trkpt><trkpt lat="38.2497523" lon="22.0795572"><ele>75.6</ele><time>2026-04-29T07:37:30.965Z</time></trkpt><trkpt lat="38.2498637" lon="22.0795345"><ele>75.19999999999999</ele><time>2026-04-29T07:37:32.964Z</time></trkpt><trkpt lat="38.249968" lon="22.0795121"><ele>74.80000000000001</ele><time>2026-04-29T07:37:34.964Z</time></trkpt><trkpt lat="38.2500863" lon="22.0794862"><ele>74.4</ele><time>2026-04-29T07:37:36.965Z</time></trkpt><trkpt lat="38.2501498" lon="22.0794732"><ele>74.0</ele><time>2026-04-29T07:37:37.965Z</time></trkpt><trkpt lat="38.2502331" lon="22.0794559"><ele>74.0</ele><time>2026-04-29T07:37:39.965Z</time></trkpt><trkpt lat="38.2503028" lon="22.0794735"><ele>74.0</ele><time>2026-04-29T07:37:45.965Z</time></trkpt><trkpt lat="38.2503507" lon="22.0795607"><ele>74.0</ele><time>2026-04-29T07:37:47.964Z</time></trkpt><trkpt lat="38.2503665" lon="22.0796494"><ele>74.0</ele><time>2026-04-29T07:37:48.965Z</time></trkpt><trkpt lat="38.2503808" lon="22.0797444"><ele>74.0</ele><time>2026-04-29T07:37:49.965Z</time></trkpt><trkpt lat="38.2503967" lon="22.0798538"><ele>74.0</ele><time>2026-04-29T07:37:50.964Z</time></trkpt><trkpt lat="38.2504093" lon="22.0799592"><ele>73.71428571428572</ele><time>2026-04-29T07:37:51.964Z</time></trkpt><trkpt lat="38.250424" lon="22.0800686"><ele>73.42857142857143</ele><time>2026-04-29T07:37:52.964Z</time></trkpt><trkpt lat="38.2504389" lon="22.0801645"><ele>73.14285714285714</ele><time>2026-04-29T07:37:53.964Z</time></trkpt><trkpt lat="38.2504493" lon="22.0802536"><ele>72.85714285714286</ele><time>2026-04-29T07:37:54.964Z</time></trkpt><trkpt lat="38.250461" lon="22.0803418"><ele>72.57142857142857</ele><time>2026-04-29T07:37:55.964Z</time></trkpt><trkpt lat="38.2504783" lon="22.0804332"><ele>72.28571428571429</ele><time>2026-04-29T07:37:56.965Z</time></trkpt><trkpt lat="38.2504938" lon="22.0805182"><ele>72.0</ele><time>2026-04-29T07:37:57.964Z</time></trkpt><trkpt lat="38.2505043" lon="22.0806484"><ele>72.0</ele><time>2026-04-29T07:37:59.965Z</time></trkpt><trkpt lat="38.2505106" lon="22.080741"><ele>72.0</ele><time>2026-04-29T07:38:08.965Z</time></trkpt><trkpt lat="38.2504979" lon="22.080836"><ele>72.0</ele><time>2026-04-29T07:38:37.993Z</time></trkpt><trkpt lat="38.2504822" lon="22.0809249"><ele>72.0</ele><time>2026-04-29T07:38:39.994Z</time></trkpt><trkpt lat="38.2503987" lon="22.0809699"><ele>72.0</ele><time>2026-04-29T07:38:41.993Z</time></trkpt><trkpt lat="38.2502845" lon="22.080913"><ele>72.0</ele><time>2026-04-29T07:38:42.993Z</time></trkpt><trkpt lat="38.250198" lon="22.0808966"><ele>72.0</ele><time>2026-04-29T07:38:43.994Z</time></trkpt><trkpt lat="38.2500855" lon="22.0808329"><ele>72.0</ele><time>2026-04-29T07:38:44.994Z</time></trkpt><trkpt lat="38.2499646" lon="22.0807748"><ele>72.0</ele><time>2026-04-29T07:38:45.994Z</time></trkpt><trkpt lat="38.2498888" lon="22.080743"><ele>72.0</ele><time>2026-04-29T07:38:46.993Z</time></trkpt><trkpt lat="38.2497969" lon="22.0807282"><ele>72.0</ele><time>2026-04-29T07:38:47.994Z</time></trkpt><trkpt lat="38.2497033" lon="22.0806971"><ele>72.66666666666667</ele><time>2026-04-29T07:38:48.994Z</time></trkpt><trkpt lat="38.2496139" lon="22.0806874"><ele>73.33333333333333</ele><time>2026-04-29T07:38:49.994Z</time></trkpt><trkpt lat="38.249533" lon="22.0806813"><ele>74.0</ele><time>2026-04-29T07:38:50.994Z</time></trkpt><trkpt lat="38.2494517" lon="22.0806633"><ele>74.66666666666666</ele><time>2026-04-29T07:38:51.993Z</time></trkpt><trkpt lat="38.2493645" lon="22.0806387"><ele>75.33333333333333</ele><time>2026-04-29T07:38:52.994Z</time></trkpt><trkpt lat="38.2492756" lon="22.0806298"><ele>76.0</ele><time>2026-04-29T07:38:53.993Z</time></trkpt><trkpt lat="38.2491861" lon="22.0806218"><ele>76.0</ele><time>2026-04-29T07:38:54.994Z</time></trkpt><trkpt lat="38.2491003" lon="22.0806138"><ele>76.0</ele><time>2026-04-29T07:38:55.993Z</time></trkpt><trkpt lat="38.2490202" lon="22.0806096"><ele>76.0</ele><time>2026-04-29T07:38:56.994Z</time></trkpt><trkpt lat="38.2489424" lon="22.0806013"><ele>76.0</ele><time>2026-04-29T07:38:57.993Z</time></trkpt><trkpt lat="38.2488683" lon="22.0805923"><ele>76.0</ele><time>2026-04-29T07:38:58.994Z</time></trkpt><trkpt lat="38.2488017" lon="22.0805876"><ele>76.0</ele><time>2026-04-29T07:38:59.994Z</time></trkpt><trkpt lat="38.2486872" lon="22.0805776"><ele>76.16666666666666</ele><time>2026-04-29T07:39:01.993Z</time></trkpt><trkpt lat="38.2485697" lon="22.080574"><ele>76.33333333333333</ele><time>2026-04-29T07:39:03.993Z</time></trkpt><trkpt lat="38.2484953" lon="22.0805627"><ele>76.5</ele><time>2026-04-29T07:39:04.994Z</time></trkpt><trkpt lat="38.2484232" lon="22.0805507"><ele>76.66666666666667</ele><time>2026-04-29T07:39:05.994Z</time></trkpt><trkpt lat="38.2483502" lon="22.0805339"><ele>76.83333333333334</ele><time>2026-04-29T07:39:06.994Z</time></trkpt><trkpt lat="38.2482811" lon="22.0805233"><ele>77.0</ele><time>2026-04-29T07:39:07.994Z</time></trkpt><trkpt lat="38.2482052" lon="22.0805189"><ele>76.66666666666667</ele><time>2026-04-29T07:39:08.993Z</time></trkpt><trkpt lat="38.2481208" lon="22.0804894"><ele>76.33333333333334</ele><time>2026-04-29T07:39:09.993Z</time></trkpt><trkpt lat="38.2480358" lon="22.0804826"><ele>76.0</ele><time>2026-04-29T07:39:10.994Z</time></trkpt><trkpt lat="38.2479473" lon="22.0804843"><ele>75.66666666666667</ele><time>2026-04-29T07:39:11.994Z</time></trkpt><trkpt lat="38.2478564" lon="22.0804966"><ele>75.33333333333333</ele><time>2026-04-29T07:39:12.993Z</time></trkpt><trkpt lat="38.2477678" lon="22.08054"><ele>75.0</ele><time>2026-04-29T07:39:13.993Z</time></trkpt><trkpt lat="38.2476879" lon="22.0806058"><ele>75.0</ele><time>2026-04-29T07:39:14.993Z</time></trkpt><trkpt lat="38.2476227" lon="22.0806967"><ele>75.0</ele><time>2026-04-29T07:39:15.993Z</time></trkpt><trkpt lat="38.2475795" lon="22.0808049"><ele>75.0</ele><time>2026-04-29T07:39:16.994Z</time></trkpt><trkpt lat="38.2475476" lon="22.0809425"><ele>75.0</ele><time>2026-04-29T07:39:17.993Z</time></trkpt><trkpt lat="38.2475198" lon="22.081083"><ele>75.0</ele><time>2026-04-29T07:39:18.994Z</time></trkpt><trkpt lat="38.2474908" lon="22.0812266"><ele>73.5</ele><time>2026-04-29T07:39:19.994Z</time></trkpt><trkpt lat="38.2474615" lon="22.081375"><ele>72.0</ele><time>2026-04-29T07:39:20.993Z</time></trkpt><trkpt lat="38.247433" lon="22.0815264"><ele>70.5</ele><time>2026-04-29T07:39:21.994Z</time></trkpt><trkpt lat="38.2474126" lon="22.0816761"><ele>69.0</ele><time>2026-04-29T07:39:22.994Z</time></trkpt><trkpt lat="38.2473798" lon="22.0818264"><ele>68.25</ele><time>2026-04-29T07:39:23.994Z</time></trkpt><trkpt lat="38.2473448" lon="22.0819788"><ele>67.5</ele><time>2026-04-29T07:39:24.993Z</time></trkpt><trkpt lat="38.2473043" lon="22.0821326"><ele>66.75</ele><time>2026-04-29T07:39:25.993Z</time></trkpt><trkpt lat="38.247272" lon="22.0822855"><ele>66.0</ele><time>2026-04-29T07:39:26.994Z</time></trkpt><trkpt lat="38.2472447" lon="22.0824302"><ele>64.0</ele><time>2026-04-29T07:39:27.994Z</time></trkpt><trkpt lat="38.2472162" lon="22.0825747"><ele>62.0</ele><time>2026-04-29T07:39:28.994Z</time></trkpt><trkpt lat="38.2471897" lon="22.0827134"><ele>60.0</ele><time>2026-04-29T07:39:29.993Z</time></trkpt><trkpt lat="38.247157" lon="22.0828493"><ele>58.0</ele><time>2026-04-29T07:39:30.994Z</time></trkpt><trkpt lat="38.2471372" lon="22.0829951"><ele>58.0</ele><time>2026-04-29T07:39:31.993Z</time></trkpt><trkpt lat="38.2471125" lon="22.0831234"><ele>58.0</ele><time>2026-04-29T07:39:32.993Z</time></trkpt><trkpt lat="38.2470911" lon="22.0832632"><ele>58.0</ele><time>2026-04-29T07:39:33.993Z</time></trkpt><trkpt lat="38.2470537" lon="22.0833982"><ele>58.0</ele><time>2026-04-29T07:39:34.993Z</time></trkpt><trkpt lat="38.247024" lon="22.0835351"><ele>58.0</ele><time>2026-04-29T07:39:35.994Z</time></trkpt><trkpt lat="38.246995" lon="22.0836724"><ele>57.25</ele><time>2026-04-29T07:39:36.993Z</time></trkpt><trkpt lat="38.2469641" lon="22.0838133"><ele>56.5</ele><time>2026-04-29T07:39:37.994Z</time></trkpt><trkpt lat="38.2469339" lon="22.083952"><ele>55.75</ele><time>2026-04-29T07:39:38.993Z</time></trkpt><trkpt lat="38.2469052" lon="22.084096"><ele>55.0</ele><time>2026-04-29T07:39:39.994Z</time></trkpt><trkpt lat="38.2468836" lon="22.0842381"><ele>55.0</ele><time>2026-04-29T07:39:40.994Z</time></trkpt><trkpt lat="38.2468504" lon="22.0843814"><ele>55.0</ele><time>2026-04-29T07:39:41.994Z</time></trkpt><trkpt lat="38.2468243" lon="22.0845215"><ele>55.0</ele><time>2026-04-29T07:39:42.991Z</time></trkpt><trkpt lat="38.2468051" lon="22.0846721"><ele>55.0</ele><time>2026-04-29T07:39:43.994Z</time></trkpt><trkpt lat="38.2467928" lon="22.0848099"><ele>55.0</ele><time>2026-04-29T07:39:44.994Z</time></trkpt><trkpt lat="38.2468195" lon="22.0849687"><ele>55.0</ele><time>2026-04-29T07:39:45.994Z</time></trkpt><trkpt lat="38.246826" lon="22.0851244"><ele>55.0</ele><time>2026-04-29T07:39:46.993Z</time></trkpt><trkpt lat="38.2468302" lon="22.0852639"><ele>55.0</ele><time>2026-04-29T07:39:47.993Z</time></trkpt><trkpt lat="38.2468425" lon="22.0854092"><ele>55.0</ele><time>2026-04-29T07:39:48.993Z</time></trkpt><trkpt lat="38.2468601" lon="22.0855568"><ele>55.0</ele><time>2026-04-29T07:39:49.993Z</time></trkpt><trkpt lat="38.2468795" lon="22.0857129"><ele>55.0</ele><time>2026-04-29T07:39:50.992Z</time></trkpt><trkpt lat="38.2468918" lon="22.0858692"><ele>55.0</ele><time>2026-04-29T07:39:51.993Z</time></trkpt><trkpt lat="38.2469132" lon="22.0860217"><ele>53.75</ele><time>2026-04-29T07:39:52.994Z</time></trkpt><trkpt lat="38.2469434" lon="22.0861688"><ele>52.5</ele><time>2026-04-29T07:39:53.994Z</time></trkpt><trkpt lat="38.2469628" lon="22.0863258"><ele>51.25</ele><time>2026-04-29T07:39:54.994Z</time></trkpt><trkpt lat="38.2469736" lon="22.0864817"><ele>50.0</ele><time>2026-04-29T07:39:55.994Z</time></trkpt><trkpt lat="38.2469914" lon="22.0866284"><ele>49.2</ele><time>2026-04-29T07:39:56.993Z</time></trkpt><trkpt lat="38.2470113" lon="22.0867769"><ele>48.4</ele><time>2026-04-29T07:39:57.993Z</time></trkpt><trkpt lat="38.2470309" lon="22.0869169"><ele>47.599999999999994</ele><time>2026-04-29T07:39:58.994Z</time></trkpt><trkpt lat="38.2470501" lon="22.087058"><ele>46.8</ele><time>2026-04-29T07:39:59.993Z</time></trkpt><trkpt lat="38.2470618" lon="22.0871935"><ele>46.0</ele><time>2026-04-29T07:40:00.994Z</time></trkpt><trkpt lat="38.2470769" lon="22.0873299"><ele>45.4</ele><time>2026-04-29T07:40:01.993Z</time></trkpt><trkpt lat="38.2470961" lon="22.0874596"><ele>44.8</ele><time>2026-04-29T07:40:02.994Z</time></trkpt><trkpt lat="38.2471119" lon="22.0875892"><ele>44.199999999999996</ele><time>2026-04-29T07:40:03.994Z</time></trkpt><trkpt lat="38.2471176" lon="22.087735"><ele>43.599999999999994</ele><time>2026-04-29T07:40:04.993Z</time></trkpt><trkpt lat="38.2471334" lon="22.0878515"><ele>43.0</ele><time>2026-04-29T07:40:05.994Z</time></trkpt><trkpt lat="38.2471474" lon="22.0879457"><ele>43.0</ele><time>2026-04-29T07:40:06.993Z</time></trkpt><trkpt lat="38.2471588" lon="22.0880306"><ele>43.0</ele><time>2026-04-29T07:40:07.994Z</time></trkpt><trkpt lat="38.2471727" lon="22.0881111"><ele>43.0</ele><time>2026-04-29T07:40:08.994Z</time></trkpt><trkpt lat="38.2471861" lon="22.0882536"><ele>43.0</ele><time>2026-04-29T07:40:10.994Z</time></trkpt><trkpt lat="38.2471971" lon="22.0883499"><ele>43.0</ele><time>2026-04-29T07:40:12.994Z</time></trkpt><trkpt lat="38.2472176" lon="22.0884754"><ele>43.0</ele><time>2026-04-29T07:40:16.994Z</time></trkpt><trkpt lat="38.2472354" lon="22.0886336"><ele>42.5</ele><time>2026-04-29T07:40:18.994Z</time></trkpt><trkpt lat="38.2472386" lon="22.0887158"><ele>42.0</ele><time>2026-04-29T07:40:19.994Z</time></trkpt><trkpt lat="38.2472497" lon="22.0888339"><ele>41.5</ele><time>2026-04-29T07:40:21.993Z</time></trkpt><trkpt lat="38.2472619" lon="22.08894"><ele>41.0</ele><time>2026-04-29T07:40:24.993Z</time></trkpt><trkpt lat="38.2472773" lon="22.0890889"><ele>40.5</ele><time>2026-04-29T07:40:51.993Z</time></trkpt><trkpt lat="38.2472859" lon="22.0891734"><ele>40.0</ele><time>2026-04-29T07:40:52.993Z</time></trkpt><trkpt lat="38.2472976" lon="22.0892699"><ele>40.0</ele><time>2026-04-29T07:40:53.994Z</time></trkpt><trkpt lat="38.2473062" lon="22.0893709"><ele>40.0</ele><time>2026-04-29T07:40:54.993Z</time></trkpt><trkpt lat="38.2473154" lon="22.089455"><ele>40.0</ele><time>2026-04-29T07:40:55.994Z</time></trkpt><trkpt lat="38.24735" lon="22.0896137"><ele>40.0</ele><time>2026-04-29T07:40:57.994Z</time></trkpt><trkpt lat="38.2473606" lon="22.0897134"><ele>40.0</ele><time>2026-04-29T07:40:58.994Z</time></trkpt><trkpt lat="38.247371" lon="22.0898075"><ele>40.0</ele><time>2026-04-29T07:40:59.993Z</time></trkpt><trkpt lat="38.2473946" lon="22.0899057"><ele>39.333333333333336</ele><time>2026-04-29T07:41:00.966Z</time></trkpt><trkpt lat="38.2474067" lon="22.090011"><ele>38.66666666666667</ele><time>2026-04-29T07:41:01.965Z</time></trkpt><trkpt lat="38.2474117" lon="22.0901096"><ele>38.0</ele><time>2026-04-29T07:41:02.965Z</time></trkpt><trkpt lat="38.2474215" lon="22.0902001"><ele>37.333333333333336</ele><time>2026-04-29T07:41:03.966Z</time></trkpt><trkpt lat="38.2474281" lon="22.0902875"><ele>36.666666666666664</ele><time>2026-04-29T07:41:04.964Z</time></trkpt><trkpt lat="38.247408" lon="22.0904365"><ele>36.0</ele><time>2026-04-29T07:41:06.966Z</time></trkpt><trkpt lat="38.2473514" lon="22.0905591"><ele>36.0</ele><time>2026-04-29T07:41:08.967Z</time></trkpt><trkpt lat="38.2473071" lon="22.0906171"><ele>36.0</ele><time>2026-04-29T07:41:10.967Z</time></trkpt><trkpt lat="38.2472393" lon="22.0906725"><ele>36.0</ele><time>2026-04-29T07:41:14.966Z</time></trkpt><trkpt lat="38.2471676" lon="22.0907069"><ele>36.0</ele><time>2026-04-29T07:41:16.967Z</time></trkpt><trkpt lat="38.2470787" lon="22.0907559"><ele>36.0</ele><time>2026-04-29T07:41:18.966Z</time></trkpt><trkpt lat="38.2469677" lon="22.0908053"><ele>36.0</ele><time>2026-04-29T07:41:20.967Z</time></trkpt><trkpt lat="38.2469039" lon="22.0908377"><ele>35.5</ele><time>2026-04-29T07:41:21.967Z</time></trkpt><trkpt lat="38.2468293" lon="22.0908803"><ele>35.0</ele><time>2026-04-29T07:41:22.967Z</time></trkpt><trkpt lat="38.246754" lon="22.0909161"><ele>34.5</ele><time>2026-04-29T07:41:23.967Z</time></trkpt><trkpt lat="38.2466824" lon="22.0909511"><ele>34.0</ele><time>2026-04-29T07:41:24.966Z</time></trkpt><trkpt lat="38.2466146" lon="22.0909824"><ele>33.5</ele><time>2026-04-29T07:41:25.966Z</time></trkpt><trkpt lat="38.246502" lon="22.0910404"><ele>33.0</ele><time>2026-04-29T07:41:27.966Z</time></trkpt><trkpt lat="38.2463888" lon="22.0910938"><ele>33.0</ele><time>2026-04-29T07:41:29.967Z</time></trkpt><trkpt lat="38.2463286" lon="22.0911256"><ele>33.0</ele><time>2026-04-29T07:41:30.966Z</time></trkpt><trkpt lat="38.2462673" lon="22.0911589"><ele>33.0</ele><time>2026-04-29T07:41:31.966Z</time></trkpt><trkpt lat="38.2462072" lon="22.0911905"><ele>33.0</ele><time>2026-04-29T07:41:32.967Z</time></trkpt><trkpt lat="38.246148" lon="22.0912195"><ele>33.0</ele><time>2026-04-29T07:41:33.967Z</time></trkpt><trkpt lat="38.2460879" lon="22.0912513"><ele>33.0</ele><time>2026-04-29T07:41:34.966Z</time></trkpt><trkpt lat="38.2460287" lon="22.0912843"><ele>33.0</ele><time>2026-04-29T07:41:35.967Z</time></trkpt><trkpt lat="38.245927" lon="22.0913435"><ele>33.0</ele><time>2026-04-29T07:41:37.966Z</time></trkpt><trkpt lat="38.245851" lon="22.0913847"><ele>33.0</ele><time>2026-04-29T07:41:39.966Z</time></trkpt><trkpt lat="38.2457771" lon="22.0914283"><ele>33.0</ele><time>2026-04-29T07:41:42.966Z</time></trkpt><trkpt lat="38.2457006" lon="22.0914547"><ele>33.0</ele><time>2026-04-29T07:41:47.967Z</time></trkpt><trkpt lat="38.2456426" lon="22.0914861"><ele>33.0</ele><time>2026-04-29T07:41:49.966Z</time></trkpt><trkpt lat="38.2455635" lon="22.0915109"><ele>33.0</ele><time>2026-04-29T07:41:52.966Z</time></trkpt><trkpt lat="38.2454619" lon="22.0915487"><ele>33.0</ele><time>2026-04-29T07:41:55.966Z</time></trkpt><trkpt lat="38.2453604" lon="22.0915976"><ele>33.0</ele><time>2026-04-29T07:41:57.966Z</time></trkpt><trkpt lat="38.2452583" lon="22.0916451"><ele>33.0</ele><time>2026-04-29T07:41:59.967Z</time></trkpt><trkpt lat="38.2451359" lon="22.0916901"><ele>33.0</ele><time>2026-04-29T07:42:01.967Z</time></trkpt><trkpt lat="38.2450676" lon="22.0917142"><ele>33.0</ele><time>2026-04-29T07:42:02.966Z</time></trkpt><trkpt lat="38.2449992" lon="22.0917336"><ele>33.0</ele><time>2026-04-29T07:42:03.966Z</time></trkpt><trkpt lat="38.244934" lon="22.0917553"><ele>33.0</ele><time>2026-04-29T07:42:04.966Z</time></trkpt><trkpt lat="38.2448634" lon="22.0917804"><ele>33.0</ele><time>2026-04-29T07:42:05.967Z</time></trkpt><trkpt lat="38.2447905" lon="22.0918067"><ele>33.0</ele><time>2026-04-29T07:42:06.966Z</time></trkpt><trkpt lat="38.2447196" lon="22.0918317"><ele>33.0</ele><time>2026-04-29T07:42:07.966Z</time></trkpt><trkpt lat="38.24465" lon="22.0918626"><ele>33.0</ele><time>2026-04-29T07:42:08.966Z</time></trkpt><trkpt lat="38.2445793" lon="22.0918965"><ele>33.0</ele><time>2026-04-29T07:42:09.967Z</time></trkpt><trkpt lat="38.2445013" lon="22.0919539"><ele>33.5</ele><time>2026-04-29T07:42:10.967Z</time></trkpt><trkpt lat="38.2444048" lon="22.0920382"><ele>34.0</ele><time>2026-04-29T07:42:11.966Z</time></trkpt><trkpt lat="38.2443042" lon="22.0921251"><ele>34.5</ele><time>2026-04-29T07:42:12.966Z</time></trkpt><trkpt lat="38.2441757" lon="22.0922452"><ele>35.0</ele><time>2026-04-29T07:42:13.967Z</time></trkpt><trkpt lat="38.2440462" lon="22.0923726"><ele>35.25</ele><time>2026-04-29T07:42:14.967Z</time></trkpt><trkpt lat="38.2439208" lon="22.0924902"><ele>35.5</ele><time>2026-04-29T07:42:15.966Z</time></trkpt><trkpt lat="38.2438003" lon="22.0926002"><ele>35.75</ele><time>2026-04-29T07:42:16.966Z</time></trkpt><trkpt lat="38.2436915" lon="22.0927083"><ele>36.0</ele><time>2026-04-29T07:42:17.967Z</time></trkpt><trkpt lat="38.2435891" lon="22.0928096"><ele>36.0</ele><time>2026-04-29T07:42:18.966Z</time></trkpt><trkpt lat="38.2434888" lon="22.0928945"><ele>36.0</ele><time>2026-04-29T07:42:19.967Z</time></trkpt><trkpt lat="38.2434026" lon="22.0929802"><ele>36.0</ele><time>2026-04-29T07:42:20.966Z</time></trkpt><trkpt lat="38.2433249" lon="22.0930534"><ele>36.0</ele><time>2026-04-29T07:42:21.966Z</time></trkpt><trkpt lat="38.2432438" lon="22.0931209"><ele>36.0</ele><time>2026-04-29T07:42:22.966Z</time></trkpt><trkpt lat="38.2431649" lon="22.0931834"><ele>36.5</ele><time>2026-04-29T07:42:23.966Z</time></trkpt><trkpt lat="38.2430808" lon="22.0932453"><ele>37.0</ele><time>2026-04-29T07:42:24.966Z</time></trkpt><trkpt lat="38.2429839" lon="22.0933075"><ele>37.5</ele><time>2026-04-29T07:42:25.966Z</time></trkpt><trkpt lat="38.2428673" lon="22.0933708"><ele>38.0</ele><time>2026-04-29T07:42:26.967Z</time></trkpt><trkpt lat="38.2427284" lon="22.0934277"><ele>38.0</ele><time>2026-04-29T07:42:27.967Z</time></trkpt><trkpt lat="38.2425798" lon="22.0934684"><ele>38.0</ele><time>2026-04-29T07:42:28.966Z</time></trkpt><trkpt lat="38.2424265" lon="22.0935127"><ele>38.0</ele><time>2026-04-29T07:42:29.966Z</time></trkpt><trkpt lat="38.2422781" lon="22.0935516"><ele>39.0</ele><time>2026-04-29T07:42:30.966Z</time></trkpt><trkpt lat="38.2421284" lon="22.0935968"><ele>40.0</ele><time>2026-04-29T07:42:31.967Z</time></trkpt><trkpt lat="38.2419769" lon="22.0936408"><ele>41.0</ele><time>2026-04-29T07:42:32.967Z</time></trkpt><trkpt lat="38.2418283" lon="22.0936855"><ele>41.0</ele><time>2026-04-29T07:42:33.967Z</time></trkpt><trkpt lat="38.2416782" lon="22.0937324"><ele>41.0</ele><time>2026-04-29T07:42:34.966Z</time></trkpt><trkpt lat="38.2415275" lon="22.0937856"><ele>41.0</ele><time>2026-04-29T07:42:35.966Z</time></trkpt><trkpt lat="38.2413893" lon="22.093835"><ele>40.75</ele><time>2026-04-29T07:42:36.967Z</time></trkpt><trkpt lat="38.2412499" lon="22.0938835"><ele>40.5</ele><time>2026-04-29T07:42:37.967Z</time></trkpt><trkpt lat="38.2411122" lon="22.0939306"><ele>40.25</ele><time>2026-04-29T07:42:38.967Z</time></trkpt><trkpt lat="38.2409782" lon="22.0939753"><ele>40.0</ele><time>2026-04-29T07:42:39.967Z</time></trkpt><trkpt lat="38.2408474" lon="22.0940216"><ele>40.0</ele><time>2026-04-29T07:42:40.966Z</time></trkpt><trkpt lat="38.2407207" lon="22.0940697"><ele>40.0</ele><time>2026-04-29T07:42:41.967Z</time></trkpt><trkpt lat="38.2405985" lon="22.0941152"><ele>40.0</ele><time>2026-04-29T07:42:42.966Z</time></trkpt><trkpt lat="38.2404796" lon="22.0941528"><ele>40.0</ele><time>2026-04-29T07:42:43.967Z</time></trkpt><trkpt lat="38.2403738" lon="22.0941837"><ele>39.6</ele><time>2026-04-29T07:42:44.967Z</time></trkpt><trkpt lat="38.2402668" lon="22.0942172"><ele>39.2</ele><time>2026-04-29T07:42:45.967Z</time></trkpt><trkpt lat="38.2401669" lon="22.0942508"><ele>38.8</ele><time>2026-04-29T07:42:46.966Z</time></trkpt><trkpt lat="38.2400712" lon="22.0942839"><ele>38.4</ele><time>2026-04-29T07:42:47.967Z</time></trkpt><trkpt lat="38.2399727" lon="22.0943198"><ele>38.0</ele><time>2026-04-29T07:42:48.966Z</time></trkpt><trkpt lat="38.2398803" lon="22.0943544"><ele>38.83333333333333</ele><time>2026-04-29T07:42:49.966Z</time></trkpt><trkpt lat="38.2397896" lon="22.0943924"><ele>39.666666666666664</ele><time>2026-04-29T07:42:50.967Z</time></trkpt><trkpt lat="38.2397041" lon="22.0944233"><ele>40.5</ele><time>2026-04-29T07:42:51.967Z</time></trkpt><trkpt lat="38.2396309" lon="22.0944513"><ele>41.333333333333336</ele><time>2026-04-29T07:42:52.966Z</time></trkpt><trkpt lat="38.2395608" lon="22.0944754"><ele>42.16666666666667</ele><time>2026-04-29T07:42:53.966Z</time></trkpt><trkpt lat="38.2394981" lon="22.0945031"><ele>43.0</ele><time>2026-04-29T07:42:54.966Z</time></trkpt><trkpt lat="38.2394011" lon="22.0945505"><ele>43.0</ele><time>2026-04-29T07:42:56.966Z</time></trkpt><trkpt lat="38.2393212" lon="22.0945825"><ele>43.0</ele><time>2026-04-29T07:42:58.966Z</time></trkpt><trkpt lat="38.2392441" lon="22.0946116"><ele>43.0</ele><time>2026-04-29T07:43:00.966Z</time></trkpt><trkpt lat="38.2391676" lon="22.094658"><ele>43.0</ele><time>2026-04-29T07:43:02.967Z</time></trkpt><trkpt lat="38.2390937" lon="22.094698"><ele>43.0</ele><time>2026-04-29T07:43:04.966Z</time></trkpt><trkpt lat="38.2390363" lon="22.0947356"><ele>43.0</ele><time>2026-04-29T07:43:06.966Z</time></trkpt><trkpt lat="38.2389643" lon="22.0947803"><ele>42.833333333333336</ele><time>2026-04-29T07:43:09.966Z</time></trkpt><trkpt lat="38.2388747" lon="22.0948294"><ele>42.66666666666667</ele><time>2026-04-29T07:43:11.967Z</time></trkpt><trkpt lat="38.2388167" lon="22.0948615"><ele>42.5</ele><time>2026-04-29T07:43:12.966Z</time></trkpt><trkpt lat="38.2387528" lon="22.0948927"><ele>42.333333333333336</ele><time>2026-04-29T07:43:13.966Z</time></trkpt><trkpt lat="38.2386883" lon="22.0949266"><ele>42.166666666666664</ele><time>2026-04-29T07:43:14.967Z</time></trkpt><trkpt lat="38.2386177" lon="22.0949628"><ele>42.0</ele><time>2026-04-29T07:43:15.967Z</time></trkpt><trkpt lat="38.2385488" lon="22.0950012"><ele>41.6</ele><time>2026-04-29T07:43:16.967Z</time></trkpt><trkpt lat="38.2384704" lon="22.0950432"><ele>41.2</ele><time>2026-04-29T07:43:17.967Z</time></trkpt><trkpt lat="38.2383864" lon="22.0950908"><ele>40.8</ele><time>2026-04-29T07:43:18.967Z</time></trkpt><trkpt lat="38.2382968" lon="22.0951394"><ele>40.4</ele><time>2026-04-29T07:43:19.966Z</time></trkpt><trkpt lat="38.2382032" lon="22.0951941"><ele>40.0</ele><time>2026-04-29T07:43:20.966Z</time></trkpt><trkpt lat="38.2381046" lon="22.095249"><ele>40.0</ele><time>2026-04-29T07:43:21.967Z</time></trkpt><trkpt lat="38.2379892" lon="22.0953147"><ele>40.0</ele><time>2026-04-29T07:43:22.967Z</time></trkpt><trkpt lat="38.2378424" lon="22.0953998"><ele>40.0</ele><time>2026-04-29T07:43:23.967Z</time></trkpt><trkpt lat="38.2376989" lon="22.0954752"><ele>40.0</ele><time>2026-04-29T07:43:24.967Z</time></trkpt><trkpt lat="38.2375642" lon="22.0955509"><ele>40.0</ele><time>2026-04-29T07:43:25.967Z</time></trkpt><trkpt lat="38.2374474" lon="22.0956191"><ele>40.0</ele><time>2026-04-29T07:43:26.966Z</time></trkpt><trkpt lat="38.2373409" lon="22.0957087"><ele>40.0</ele><time>2026-04-29T07:43:27.966Z</time></trkpt><trkpt lat="38.2372441" lon="22.0958068"><ele>40.0</ele><time>2026-04-29T07:43:28.967Z</time></trkpt><trkpt lat="38.2371609" lon="22.0959009"><ele>39.8</ele><time>2026-04-29T07:43:29.967Z</time></trkpt><trkpt lat="38.2370827" lon="22.0959884"><ele>39.6</ele><time>2026-04-29T07:43:30.966Z</time></trkpt><trkpt lat="38.2369988" lon="22.0960834"><ele>39.4</ele><time>2026-04-29T07:43:31.967Z</time></trkpt><trkpt lat="38.2369134" lon="22.0961891"><ele>39.2</ele><time>2026-04-29T07:43:32.966Z</time></trkpt><trkpt lat="38.2368359" lon="22.0962785"><ele>39.0</ele><time>2026-04-29T07:43:33.967Z</time></trkpt><trkpt lat="38.2367653" lon="22.0963605"><ele>39.0</ele><time>2026-04-29T07:43:34.966Z</time></trkpt><trkpt lat="38.2367032" lon="22.0964405"><ele>39.0</ele><time>2026-04-29T07:43:35.967Z</time></trkpt><trkpt lat="38.2366448" lon="22.0965095"><ele>39.0</ele><time>2026-04-29T07:43:36.967Z</time></trkpt><trkpt lat="38.2365994" lon="22.0965676"><ele>39.0</ele><time>2026-04-29T07:43:37.967Z</time></trkpt><trkpt lat="38.2365341" lon="22.0966479"><ele>39.0</ele><time>2026-04-29T07:43:39.967Z</time></trkpt><trkpt lat="38.236489" lon="22.096707"><ele>39.0</ele><time>2026-04-29T07:43:41.967Z</time></trkpt><trkpt lat="38.2364389" lon="22.0967593"><ele>39.0</ele><time>2026-04-29T07:43:45.966Z</time></trkpt><trkpt lat="38.2363839" lon="22.096823"><ele>39.0</ele><time>2026-04-29T07:43:49.967Z</time></trkpt><trkpt lat="38.2362868" lon="22.0969436"><ele>39.0</ele><time>2026-04-29T07:43:51.966Z</time></trkpt><trkpt lat="38.236206" lon="22.0970493"><ele>39.0</ele><time>2026-04-29T07:43:52.967Z</time></trkpt><trkpt lat="38.2361082" lon="22.0971945"><ele>39.0</ele><time>2026-04-29T07:43:53.966Z</time></trkpt><trkpt lat="38.2359745" lon="22.0973463"><ele>39.0</ele><time>2026-04-29T07:43:54.966Z</time></trkpt><trkpt lat="38.2358229" lon="22.0975207"><ele>39.0</ele><time>2026-04-29T07:43:55.966Z</time></trkpt><trkpt lat="38.2356737" lon="22.0976908"><ele>39.0</ele><time>2026-04-29T07:43:56.966Z</time></trkpt><trkpt lat="38.2355278" lon="22.0978623"><ele>39.0</ele><time>2026-04-29T07:43:57.966Z</time></trkpt><trkpt lat="38.2353796" lon="22.098037"><ele>39.0</ele><time>2026-04-29T07:43:58.966Z</time></trkpt><trkpt lat="38.2352346" lon="22.0982093"><ele>39.0</ele><time>2026-04-29T07:43:59.967Z</time></trkpt><trkpt lat="38.2350864" lon="22.0983894"><ele>39.0</ele><time>2026-04-29T07:44:00.966Z</time></trkpt><trkpt lat="38.2349499" lon="22.0985531"><ele>39.0</ele><time>2026-04-29T07:44:01.967Z</time></trkpt><trkpt lat="38.2348213" lon="22.0987138"><ele>39.0</ele><time>2026-04-29T07:44:02.967Z</time></trkpt><trkpt lat="38.2346964" lon="22.0988691"><ele>39.0</ele><time>2026-04-29T07:44:03.966Z</time></trkpt><trkpt lat="38.2345705" lon="22.0990218"><ele>39.0</ele><time>2026-04-29T07:44:04.966Z</time></trkpt><trkpt lat="38.2344451" lon="22.0991728"><ele>38.666666666666664</ele><time>2026-04-29T07:44:05.967Z</time></trkpt><trkpt lat="38.234313" lon="22.0993258"><ele>38.33333333333333</ele><time>2026-04-29T07:44:06.967Z</time></trkpt><trkpt lat="38.2341868" lon="22.0994766"><ele>38.0</ele><time>2026-04-29T07:44:07.966Z</time></trkpt><trkpt lat="38.2340534" lon="22.0996419"><ele>38.33333333333333</ele><time>2026-04-29T07:44:08.966Z</time></trkpt><trkpt lat="38.2339257" lon="22.0997982"><ele>38.666666666666664</ele><time>2026-04-29T07:44:09.967Z</time></trkpt><trkpt lat="38.2337984" lon="22.0999525"><ele>39.0</ele><time>2026-04-29T07:44:10.966Z</time></trkpt><trkpt lat="38.2336714" lon="22.1001016"><ele>39.333333333333336</ele><time>2026-04-29T07:44:11.967Z</time></trkpt><trkpt lat="38.2335505" lon="22.1002588"><ele>39.66666666666667</ele><time>2026-04-29T07:44:12.966Z</time></trkpt><trkpt lat="38.2334241" lon="22.1004097"><ele>40.0</ele><time>2026-04-29T07:44:13.966Z</time></trkpt><trkpt lat="38.2333032" lon="22.1005552"><ele>40.0</ele><time>2026-04-29T07:44:14.967Z</time></trkpt><trkpt lat="38.2331872" lon="22.1007028"><ele>40.0</ele><time>2026-04-29T07:44:15.967Z</time></trkpt><trkpt lat="38.233068" lon="22.100862"><ele>40.0</ele><time>2026-04-29T07:44:16.966Z</time></trkpt><trkpt lat="38.2329471" lon="22.1009654"><ele>39.333333333333336</ele><time>2026-04-29T07:44:17.967Z</time></trkpt><trkpt lat="38.2328256" lon="22.1011185"><ele>38.666666666666664</ele><time>2026-04-29T07:44:18.967Z</time></trkpt><trkpt lat="38.232695" lon="22.1012672"><ele>38.0</ele><time>2026-04-29T07:44:19.967Z</time></trkpt><trkpt lat="38.2325551" lon="22.1014174"><ele>38.0</ele><time>2026-04-29T07:44:20.967Z</time></trkpt><trkpt lat="38.2324147" lon="22.1015848"><ele>38.0</ele><time>2026-04-29T07:44:21.966Z</time></trkpt><trkpt lat="38.2322714" lon="22.1017588"><ele>38.0</ele><time>2026-04-29T07:44:22.967Z</time></trkpt><trkpt lat="38.2321295" lon="22.1019273"><ele>38.0</ele><time>2026-04-29T07:44:23.966Z</time></trkpt><trkpt lat="38.2319774" lon="22.1021136"><ele>38.0</ele><time>2026-04-29T07:44:24.967Z</time></trkpt><trkpt lat="38.2318288" lon="22.1022897"><ele>38.0</ele><time>2026-04-29T07:44:25.966Z</time></trkpt><trkpt lat="38.2316793" lon="22.1024571"><ele>38.0</ele><time>2026-04-29T07:44:26.967Z</time></trkpt><trkpt lat="38.2315327" lon="22.1026383"><ele>38.0</ele><time>2026-04-29T07:44:27.966Z</time></trkpt><trkpt lat="38.2313822" lon="22.1028205"><ele>38.0</ele><time>2026-04-29T07:44:28.967Z</time></trkpt><trkpt lat="38.2312319" lon="22.1029966"><ele>38.0</ele><time>2026-04-29T07:44:29.966Z</time></trkpt><trkpt lat="38.2310806" lon="22.1031631"><ele>38.0</ele><time>2026-04-29T07:44:30.967Z</time></trkpt><trkpt lat="38.2309314" lon="22.1033077"><ele>38.0</ele><time>2026-04-29T07:44:31.967Z</time></trkpt><trkpt lat="38.2307688" lon="22.1034431"><ele>38.33333333333333</ele><time>2026-04-29T07:44:32.966Z</time></trkpt><trkpt lat="38.2306095" lon="22.1035553"><ele>38.666666666666664</ele><time>2026-04-29T07:44:33.966Z</time></trkpt><trkpt lat="38.2304459" lon="22.1036543"><ele>39.0</ele><time>2026-04-29T07:44:34.967Z</time></trkpt><trkpt lat="38.2302776" lon="22.1037445"><ele>39.0</ele><time>2026-04-29T07:44:35.966Z</time></trkpt><trkpt lat="38.230105" lon="22.1038185"><ele>39.0</ele><time>2026-04-29T07:44:36.967Z</time></trkpt><trkpt lat="38.2299295" lon="22.1038713"><ele>39.0</ele><time>2026-04-29T07:44:37.966Z</time></trkpt><trkpt lat="38.2297529" lon="22.1039102"><ele>39.0</ele><time>2026-04-29T07:44:38.966Z</time></trkpt><trkpt lat="38.2295819" lon="22.1039372"><ele>39.0</ele><time>2026-04-29T07:44:39.966Z</time></trkpt><trkpt lat="38.2293939" lon="22.1039584"><ele>39.0</ele><time>2026-04-29T07:44:40.966Z</time></trkpt><trkpt lat="38.2292129" lon="22.1039785"><ele>39.0</ele><time>2026-04-29T07:44:41.967Z</time></trkpt><trkpt lat="38.2290306" lon="22.103992"><ele>39.0</ele><time>2026-04-29T07:44:42.966Z</time></trkpt><trkpt lat="38.2288409" lon="22.104003"><ele>39.0</ele><time>2026-04-29T07:44:43.966Z</time></trkpt><trkpt lat="38.2286454" lon="22.1040169"><ele>39.0</ele><time>2026-04-29T07:44:44.967Z</time></trkpt><trkpt lat="38.2284417" lon="22.104033"><ele>39.0</ele><time>2026-04-29T07:44:45.967Z</time></trkpt><trkpt lat="38.2282409" lon="22.1040411"><ele>39.0</ele><time>2026-04-29T07:44:46.967Z</time></trkpt><trkpt lat="38.2280441" lon="22.104049"><ele>37.666666666666664</ele><time>2026-04-29T07:44:47.966Z</time></trkpt><trkpt lat="38.2278329" lon="22.1040534"><ele>36.33333333333333</ele><time>2026-04-29T07:44:48.967Z</time></trkpt><trkpt lat="38.2276301" lon="22.1040664"><ele>35.0</ele><time>2026-04-29T07:44:49.967Z</time></trkpt><trkpt lat="38.2274265" lon="22.1040776"><ele>35.33333333333333</ele><time>2026-04-29T07:44:50.966Z</time></trkpt><trkpt lat="38.227228" lon="22.1040878"><ele>35.666666666666664</ele><time>2026-04-29T07:44:51.966Z</time></trkpt><trkpt lat="38.2270393" lon="22.1040965"><ele>36.0</ele><time>2026-04-29T07:44:52.967Z</time></trkpt><trkpt lat="38.2268582" lon="22.1041071"><ele>36.0</ele><time>2026-04-29T07:44:53.966Z</time></trkpt><trkpt lat="38.2266876" lon="22.104115"><ele>36.0</ele><time>2026-04-29T07:44:54.966Z</time></trkpt><trkpt lat="38.2265301" lon="22.1041246"><ele>36.0</ele><time>2026-04-29T07:44:55.966Z</time></trkpt><trkpt lat="38.2263729" lon="22.1041333"><ele>36.25</ele><time>2026-04-29T07:44:56.966Z</time></trkpt><trkpt lat="38.2262442" lon="22.1041382"><ele>36.5</ele><time>2026-04-29T07:44:57.967Z</time></trkpt><trkpt lat="38.2261254" lon="22.1041321"><ele>36.75</ele><time>2026-04-29T07:44:58.966Z</time></trkpt><trkpt lat="38.2260105" lon="22.1041413"><ele>37.0</ele><time>2026-04-29T07:44:59.967Z</time></trkpt><trkpt lat="38.2259096" lon="22.1041212"><ele>37.0</ele><time>2026-04-29T07:45:00.967Z</time></trkpt><trkpt lat="38.2258289" lon="22.1041037"><ele>37.0</ele><time>2026-04-29T07:45:01.967Z</time></trkpt><trkpt lat="38.225762" lon="22.1041071"><ele>37.0</ele><time>2026-04-29T07:45:02.967Z</time></trkpt><trkpt lat="38.2256685" lon="22.1041722"><ele>37.0</ele><time>2026-04-29T07:45:04.966Z</time></trkpt><trkpt lat="38.2256393" lon="22.1043047"><ele>37.0</ele><time>2026-04-29T07:45:06.967Z</time></trkpt><trkpt lat="38.2256677" lon="22.1044644"><ele>37.0</ele><time>2026-04-29T07:45:08.967Z</time></trkpt><trkpt lat="38.2256845" lon="22.1045617"><ele>37.0</ele><time>2026-04-29T07:45:09.966Z</time></trkpt><trkpt lat="38.2256832" lon="22.1046708"><ele>37.0</ele><time>2026-04-29T07:45:10.967Z</time></trkpt><trkpt lat="38.2256654" lon="22.1047834"><ele>37.0</ele><time>2026-04-29T07:45:11.967Z</time></trkpt><trkpt lat="38.225635" lon="22.1049099"><ele>37.0</ele><time>2026-04-29T07:45:12.967Z</time></trkpt><trkpt lat="38.2256025" lon="22.1050313"><ele>36.4</ele><time>2026-04-29T07:45:13.967Z</time></trkpt><trkpt lat="38.2255725" lon="22.1051515"><ele>35.800000000000004</ele><time>2026-04-29T07:45:14.966Z</time></trkpt><trkpt lat="38.2255438" lon="22.1052733"><ele>35.2</ele><time>2026-04-29T07:45:15.967Z</time></trkpt><trkpt lat="38.225519" lon="22.1053864"><ele>34.6</ele><time>2026-04-29T07:45:16.966Z</time></trkpt><trkpt lat="38.225494" lon="22.1054922"><ele>34.0</ele><time>2026-04-29T07:45:17.967Z</time></trkpt><trkpt lat="38.2254707" lon="22.1055865"><ele>34.0</ele><time>2026-04-29T07:45:18.966Z</time></trkpt><trkpt lat="38.2254514" lon="22.1056735"><ele>34.0</ele><time>2026-04-29T07:45:19.966Z</time></trkpt><trkpt lat="38.2254353" lon="22.1057618"><ele>34.0</ele><time>2026-04-29T07:45:20.967Z</time></trkpt><trkpt lat="38.2254155" lon="22.1059053"><ele>34.0</ele><time>2026-04-29T07:45:22.966Z</time></trkpt><trkpt lat="38.225387" lon="22.1060293"><ele>34.0</ele><time>2026-04-29T07:45:24.966Z</time></trkpt><trkpt lat="38.2253408" lon="22.1061409"><ele>34.0</ele><time>2026-04-29T07:45:26.966Z</time></trkpt><trkpt lat="38.2252901" lon="22.1062654"><ele>34.0</ele><time>2026-04-29T07:45:28.967Z</time></trkpt><trkpt lat="38.225275" lon="22.1064214"><ele>34.0</ele><time>2026-04-29T07:45:30.966Z</time></trkpt><trkpt lat="38.2252708" lon="22.1065118"><ele>34.0</ele><time>2026-04-29T07:45:31.967Z</time></trkpt><trkpt lat="38.2252556" lon="22.1066089"><ele>34.0</ele><time>2026-04-29T07:45:32.966Z</time></trkpt><trkpt lat="38.2252235" lon="22.1067144"><ele>34.0</ele><time>2026-04-29T07:45:33.967Z</time></trkpt><trkpt lat="38.2251861" lon="22.1068257"><ele>34.0</ele><time>2026-04-29T07:45:34.966Z</time></trkpt><trkpt lat="38.2251353" lon="22.106942"><ele>34.0</ele><time>2026-04-29T07:45:35.967Z</time></trkpt><trkpt lat="38.2250758" lon="22.1070617"><ele>34.0</ele><time>2026-04-29T07:45:36.967Z</time></trkpt><trkpt lat="38.2250125" lon="22.1071828"><ele>34.0</ele><time>2026-04-29T07:45:37.967Z</time></trkpt><trkpt lat="38.2249442" lon="22.1073056"><ele>33.25</ele><time>2026-04-29T07:45:38.967Z</time></trkpt><trkpt lat="38.2248758" lon="22.1074314"><ele>32.5</ele><time>2026-04-29T07:45:39.966Z</time></trkpt><trkpt lat="38.2248072" lon="22.1075576"><ele>31.75</ele><time>2026-04-29T07:45:40.966Z</time></trkpt><trkpt lat="38.224735" lon="22.1076867"><ele>31.0</ele><time>2026-04-29T07:45:41.967Z</time></trkpt><trkpt lat="38.2246585" lon="22.1078224"><ele>30.75</ele><time>2026-04-29T07:45:42.966Z</time></trkpt><trkpt lat="38.2245812" lon="22.1079525"><ele>30.5</ele><time>2026-04-29T07:45:43.966Z</time></trkpt><trkpt lat="38.2244996" lon="22.1080928"><ele>30.25</ele><time>2026-04-29T07:45:44.966Z</time></trkpt><trkpt lat="38.224421" lon="22.1082327"><ele>30.0</ele><time>2026-04-29T07:45:45.967Z</time></trkpt><trkpt lat="38.2243401" lon="22.1083719"><ele>29.75</ele><time>2026-04-29T07:45:46.967Z</time></trkpt><trkpt lat="38.2242568" lon="22.1085122"><ele>29.5</ele><time>2026-04-29T07:45:47.966Z</time></trkpt><trkpt lat="38.2241704" lon="22.1086565"><ele>29.25</ele><time>2026-04-29T07:45:48.966Z</time></trkpt><trkpt lat="38.2240861" lon="22.1088066"><ele>29.0</ele><time>2026-04-29T07:45:49.967Z</time></trkpt><trkpt lat="38.2240014" lon="22.1089611"><ele>29.0</ele><time>2026-04-29T07:45:50.967Z</time></trkpt><trkpt lat="38.2239192" lon="22.1091074"><ele>29.0</ele><time>2026-04-29T07:45:51.966Z</time></trkpt><trkpt lat="38.2238321" lon="22.1092639"><ele>29.0</ele><time>2026-04-29T07:45:52.967Z</time></trkpt><trkpt lat="38.2237447" lon="22.1094156"><ele>29.0</ele><time>2026-04-29T07:45:53.967Z</time></trkpt><trkpt lat="38.2236577" lon="22.1095684"><ele>29.0</ele><time>2026-04-29T07:45:54.966Z</time></trkpt><trkpt lat="38.2235708" lon="22.1097232"><ele>29.0</ele><time>2026-04-29T07:45:55.967Z</time></trkpt><trkpt lat="38.2234859" lon="22.1098821"><ele>29.0</ele><time>2026-04-29T07:45:56.967Z</time></trkpt><trkpt lat="38.2234078" lon="22.1100385"><ele>29.0</ele><time>2026-04-29T07:45:57.966Z</time></trkpt><trkpt lat="38.2233346" lon="22.1101882"><ele>28.75</ele><time>2026-04-29T07:45:58.967Z</time></trkpt><trkpt lat="38.2232664" lon="22.1103264"><ele>28.5</ele><time>2026-04-29T07:45:59.966Z</time></trkpt><trkpt lat="38.2231965" lon="22.1104693"><ele>28.25</ele><time>2026-04-29T07:46:00.967Z</time></trkpt><trkpt lat="38.2231277" lon="22.1106074"><ele>28.0</ele><time>2026-04-29T07:46:01.967Z</time></trkpt><trkpt lat="38.2230601" lon="22.1107439"><ele>28.0</ele><time>2026-04-29T07:46:02.967Z</time></trkpt><trkpt lat="38.2229866" lon="22.1108932"><ele>28.0</ele><time>2026-04-29T07:46:03.966Z</time></trkpt><trkpt lat="38.2229167" lon="22.1110403"><ele>28.0</ele><time>2026-04-29T07:46:04.966Z</time></trkpt><trkpt lat="38.2228436" lon="22.111187"><ele>28.0</ele><time>2026-04-29T07:46:05.967Z</time></trkpt><trkpt lat="38.2227728" lon="22.1113303"><ele>28.0</ele><time>2026-04-29T07:46:06.967Z</time></trkpt><trkpt lat="38.2226988" lon="22.1114807"><ele>28.0</ele><time>2026-04-29T07:46:07.967Z</time></trkpt><trkpt lat="38.2226238" lon="22.1116428"><ele>28.0</ele><time>2026-04-29T07:46:08.967Z</time></trkpt><trkpt lat="38.2225529" lon="22.1118031"><ele>28.0</ele><time>2026-04-29T07:46:09.967Z</time></trkpt><trkpt lat="38.2224898" lon="22.1119606"><ele>27.75</ele><time>2026-04-29T07:46:10.966Z</time></trkpt><trkpt lat="38.2224302" lon="22.1121316"><ele>27.5</ele><time>2026-04-29T07:46:11.966Z</time></trkpt><trkpt lat="38.2223805" lon="22.112302"><ele>27.25</ele><time>2026-04-29T07:46:12.966Z</time></trkpt><trkpt lat="38.2223356" lon="22.1124653"><ele>27.0</ele><time>2026-04-29T07:46:13.966Z</time></trkpt><trkpt lat="38.2222948" lon="22.1126285"><ele>26.25</ele><time>2026-04-29T07:46:14.966Z</time></trkpt><trkpt lat="38.2222565" lon="22.1127878"><ele>25.5</ele><time>2026-04-29T07:46:15.967Z</time></trkpt><trkpt lat="38.2222214" lon="22.1129636"><ele>24.75</ele><time>2026-04-29T07:46:16.966Z</time></trkpt><trkpt lat="38.2221939" lon="22.1131492"><ele>24.0</ele><time>2026-04-29T07:46:17.967Z</time></trkpt><trkpt lat="38.222175" lon="22.1133624"><ele>23.666666666666668</ele><time>2026-04-29T07:46:18.966Z</time></trkpt><trkpt lat="38.2221659" lon="22.1136054"><ele>23.333333333333336</ele><time>2026-04-29T07:46:19.966Z</time></trkpt><trkpt lat="38.222159" lon="22.1138779"><ele>23.0</ele><time>2026-04-29T07:46:20.967Z</time></trkpt><trkpt lat="38.2221459" lon="22.1141643"><ele>22.666666666666668</ele><time>2026-04-29T07:46:21.966Z</time></trkpt><trkpt lat="38.2221226" lon="22.1144417"><ele>22.333333333333332</ele><time>2026-04-29T07:46:22.966Z</time></trkpt><trkpt lat="38.222099" lon="22.1146942"><ele>22.0</ele><time>2026-04-29T07:46:23.966Z</time></trkpt><trkpt lat="38.222071" lon="22.1149501"><ele>21.666666666666664</ele><time>2026-04-29T07:46:24.966Z</time></trkpt><trkpt lat="38.2220361" lon="22.1151897"><ele>21.333333333333332</ele><time>2026-04-29T07:46:25.967Z</time></trkpt><trkpt lat="38.2219881" lon="22.1154223"><ele>21.0</ele><time>2026-04-29T07:46:26.966Z</time></trkpt><trkpt lat="38.2219275" lon="22.1156556"><ele>21.333333333333332</ele><time>2026-04-29T07:46:27.967Z</time></trkpt><trkpt lat="38.2218607" lon="22.1158844"><ele>21.666666666666664</ele><time>2026-04-29T07:46:28.967Z</time></trkpt><trkpt lat="38.2217903" lon="22.1161118"><ele>22.0</ele><time>2026-04-29T07:46:29.966Z</time></trkpt><trkpt lat="38.2217195" lon="22.1163289"><ele>22.0</ele><time>2026-04-29T07:46:30.967Z</time></trkpt><trkpt lat="38.2216445" lon="22.1165601"><ele>22.0</ele><time>2026-04-29T07:46:31.967Z</time></trkpt><trkpt lat="38.2215656" lon="22.1167975"><ele>22.0</ele><time>2026-04-29T07:46:32.967Z</time></trkpt><trkpt lat="38.2214899" lon="22.1170332"><ele>21.0</ele><time>2026-04-29T07:46:33.967Z</time></trkpt><trkpt lat="38.2214206" lon="22.1172661"><ele>20.0</ele><time>2026-04-29T07:46:34.967Z</time></trkpt><trkpt lat="38.2213499" lon="22.117517"><ele>19.0</ele><time>2026-04-29T07:46:35.967Z</time></trkpt><trkpt lat="38.221282" lon="22.1177604"><ele>19.0</ele><time>2026-04-29T07:46:36.966Z</time></trkpt><trkpt lat="38.2212149" lon="22.1180039"><ele>19.0</ele><time>2026-04-29T07:46:37.967Z</time></trkpt><trkpt lat="38.2211506" lon="22.1182378"><ele>19.0</ele><time>2026-04-29T07:46:38.967Z</time></trkpt><trkpt lat="38.2210852" lon="22.1184786"><ele>19.0</ele><time>2026-04-29T07:46:39.967Z</time></trkpt><trkpt lat="38.2210214" lon="22.1187234"><ele>19.0</ele><time>2026-04-29T07:46:40.967Z</time></trkpt><trkpt lat="38.2209587" lon="22.1189578"><ele>19.0</ele><time>2026-04-29T07:46:41.966Z</time></trkpt><trkpt lat="38.2208969" lon="22.1191807"><ele>18.333333333333332</ele><time>2026-04-29T07:46:42.966Z</time></trkpt><trkpt lat="38.220826" lon="22.1194171"><ele>17.666666666666668</ele><time>2026-04-29T07:46:43.967Z</time></trkpt><trkpt lat="38.22075" lon="22.1196459"><ele>17.0</ele><time>2026-04-29T07:46:44.967Z</time></trkpt><trkpt lat="38.2206685" lon="22.1198814"><ele>17.333333333333336</ele><time>2026-04-29T07:46:45.967Z</time></trkpt><trkpt lat="38.2205809" lon="22.1201067"><ele>17.666666666666668</ele><time>2026-04-29T07:46:46.967Z</time></trkpt><trkpt lat="38.2204932" lon="22.120345"><ele>18.0</ele><time>2026-04-29T07:46:47.966Z</time></trkpt><trkpt lat="38.2204035" lon="22.1205902"><ele>17.666666666666668</ele><time>2026-04-29T07:46:48.966Z</time></trkpt><trkpt lat="38.2203112" lon="22.1208309"><ele>17.333333333333336</ele><time>2026-04-29T07:46:49.967Z</time></trkpt><trkpt lat="38.2202181" lon="22.1210696"><ele>17.0</ele><time>2026-04-29T07:46:50.967Z</time></trkpt><trkpt lat="38.2201263" lon="22.1213138"><ele>17.0</ele><time>2026-04-29T07:46:51.966Z</time></trkpt><trkpt lat="38.2200304" lon="22.1215535"><ele>17.0</ele><time>2026-04-29T07:46:52.966Z</time></trkpt><trkpt lat="38.2199343" lon="22.1217913"><ele>17.0</ele><time>2026-04-29T07:46:53.967Z</time></trkpt><trkpt lat="38.2198394" lon="22.1220255"><ele>17.0</ele><time>2026-04-29T07:46:54.967Z</time></trkpt><trkpt lat="38.2197463" lon="22.122247"><ele>17.0</ele><time>2026-04-29T07:46:55.967Z</time></trkpt><trkpt lat="38.2196461" lon="22.1224803"><ele>17.0</ele><time>2026-04-29T07:46:56.967Z</time></trkpt><trkpt lat="38.2195496" lon="22.1226936"><ele>18.333333333333336</ele><time>2026-04-29T07:46:57.966Z</time></trkpt><trkpt lat="38.2194641" lon="22.1228993"><ele>19.666666666666668</ele><time>2026-04-29T07:46:58.967Z</time></trkpt><trkpt lat="38.2193838" lon="22.1231223"><ele>21.0</ele><time>2026-04-29T07:46:59.967Z</time></trkpt><trkpt lat="38.219315" lon="22.1233429"><ele>21.333333333333332</ele><time>2026-04-29T07:47:00.966Z</time></trkpt><trkpt lat="38.2192541" lon="22.123567"><ele>21.666666666666664</ele><time>2026-04-29T07:47:01.966Z</time></trkpt><trkpt lat="38.2191973" lon="22.1237831"><ele>22.0</ele><time>2026-04-29T07:47:02.966Z</time></trkpt><trkpt lat="38.2191405" lon="22.1239955"><ele>22.333333333333332</ele><time>2026-04-29T07:47:03.966Z</time></trkpt><trkpt lat="38.2190828" lon="22.124205"><ele>22.666666666666668</ele><time>2026-04-29T07:47:04.967Z</time></trkpt><trkpt lat="38.2190217" lon="22.1244103"><ele>23.0</ele><time>2026-04-29T07:47:05.967Z</time></trkpt><trkpt lat="38.2189644" lon="22.1246048"><ele>23.0</ele><time>2026-04-29T07:47:06.967Z</time></trkpt><trkpt lat="38.2188844" lon="22.1248036"><ele>23.0</ele><time>2026-04-29T07:47:07.967Z</time></trkpt><trkpt lat="38.2187987" lon="22.1249917"><ele>23.0</ele><time>2026-04-29T07:47:08.966Z</time></trkpt><trkpt lat="38.2187058" lon="22.1251771"><ele>23.333333333333336</ele><time>2026-04-29T07:47:09.967Z</time></trkpt><trkpt lat="38.2186167" lon="22.1253488"><ele>23.666666666666668</ele><time>2026-04-29T07:47:10.966Z</time></trkpt><trkpt lat="38.218526" lon="22.125512"><ele>24.0</ele><time>2026-04-29T07:47:11.966Z</time></trkpt><trkpt lat="38.2184365" lon="22.1256682"><ele>23.5</ele><time>2026-04-29T07:47:12.966Z</time></trkpt><trkpt lat="38.2183518" lon="22.1258158"><ele>23.0</ele><time>2026-04-29T07:47:13.967Z</time></trkpt><trkpt lat="38.2182792" lon="22.1259563"><ele>22.5</ele><time>2026-04-29T07:47:14.966Z</time></trkpt><trkpt lat="38.2182136" lon="22.1261096"><ele>22.0</ele><time>2026-04-29T07:47:15.967Z</time></trkpt><trkpt lat="38.2181629" lon="22.1262601"><ele>22.75</ele><time>2026-04-29T07:47:16.967Z</time></trkpt><trkpt lat="38.2181205" lon="22.1264122"><ele>23.5</ele><time>2026-04-29T07:47:17.967Z</time></trkpt><trkpt lat="38.2180802" lon="22.1265543"><ele>24.25</ele><time>2026-04-29T07:47:18.966Z</time></trkpt><trkpt lat="38.2180437" lon="22.1267026"><ele>25.0</ele><time>2026-04-29T07:47:19.967Z</time></trkpt><trkpt lat="38.2180029" lon="22.1268541"><ele>25.0</ele><time>2026-04-29T07:47:20.966Z</time></trkpt><trkpt lat="38.2179619" lon="22.1269985"><ele>25.0</ele><time>2026-04-29T07:47:21.967Z</time></trkpt><trkpt lat="38.21792" lon="22.1271439"><ele>25.0</ele><time>2026-04-29T07:47:22.966Z</time></trkpt><trkpt lat="38.2178712" lon="22.1272917"><ele>25.0</ele><time>2026-04-29T07:47:23.966Z</time></trkpt><trkpt lat="38.2178183" lon="22.1274323"><ele>25.0</ele><time>2026-04-29T07:47:24.967Z</time></trkpt><trkpt lat="38.2177604" lon="22.1275652"><ele>25.0</ele><time>2026-04-29T07:47:25.966Z</time></trkpt><trkpt lat="38.2177007" lon="22.1276924"><ele>25.0</ele><time>2026-04-29T07:47:26.967Z</time></trkpt><trkpt lat="38.2176403" lon="22.1278134"><ele>25.0</ele><time>2026-04-29T07:47:27.967Z</time></trkpt><trkpt lat="38.2175723" lon="22.1279373"><ele>25.0</ele><time>2026-04-29T07:47:28.966Z</time></trkpt><trkpt lat="38.2174999" lon="22.1280501"><ele>25.0</ele><time>2026-04-29T07:47:29.966Z</time></trkpt><trkpt lat="38.2174221" lon="22.1281552"><ele>25.0</ele><time>2026-04-29T07:47:30.967Z</time></trkpt><trkpt lat="38.2173322" lon="22.1282682"><ele>25.0</ele><time>2026-04-29T07:47:31.966Z</time></trkpt><trkpt lat="38.2172381" lon="22.1283772"><ele>25.25</ele><time>2026-04-29T07:47:32.966Z</time></trkpt><trkpt lat="38.2171423" lon="22.1284839"><ele>25.5</ele><time>2026-04-29T07:47:33.966Z</time></trkpt><trkpt lat="38.2170489" lon="22.1285845"><ele>25.75</ele><time>2026-04-29T07:47:34.966Z</time></trkpt><trkpt lat="38.2169574" lon="22.128682"><ele>26.0</ele><time>2026-04-29T07:47:35.966Z</time></trkpt><trkpt lat="38.2168627" lon="22.1287789"><ele>26.0</ele><time>2026-04-29T07:47:36.966Z</time></trkpt><trkpt lat="38.2167743" lon="22.1288657"><ele>26.0</ele><time>2026-04-29T07:47:37.967Z</time></trkpt><trkpt lat="38.2166873" lon="22.1289602"><ele>26.0</ele><time>2026-04-29T07:47:38.966Z</time></trkpt><trkpt lat="38.2166058" lon="22.1290729"><ele>26.0</ele><time>2026-04-29T07:47:39.966Z</time></trkpt><trkpt lat="38.2165353" lon="22.12919"><ele>26.5</ele><time>2026-04-29T07:47:40.966Z</time></trkpt><trkpt lat="38.2164702" lon="22.1293147"><ele>27.0</ele><time>2026-04-29T07:47:41.967Z</time></trkpt><trkpt lat="38.2164069" lon="22.1294399"><ele>27.5</ele><time>2026-04-29T07:47:42.967Z</time></trkpt><trkpt lat="38.2163443" lon="22.1295723"><ele>28.0</ele><time>2026-04-29T07:47:43.966Z</time></trkpt><trkpt lat="38.2162733" lon="22.1297121"><ele>28.0</ele><time>2026-04-29T07:47:44.966Z</time></trkpt><trkpt lat="38.216202" lon="22.1298457"><ele>28.0</ele><time>2026-04-29T07:47:45.966Z</time></trkpt><trkpt lat="38.2161246" lon="22.1299747"><ele>28.0</ele><time>2026-04-29T07:47:46.967Z</time></trkpt><trkpt lat="38.2160363" lon="22.1301181"><ele>28.0</ele><time>2026-04-29T07:47:47.967Z</time></trkpt><trkpt lat="38.2159469" lon="22.1302591"><ele>27.25</ele><time>2026-04-29T07:47:48.966Z</time></trkpt><trkpt lat="38.2158576" lon="22.1304004"><ele>26.5</ele><time>2026-04-29T07:47:49.966Z</time></trkpt><trkpt lat="38.2157678" lon="22.1305331"><ele>25.75</ele><time>2026-04-29T07:47:50.967Z</time></trkpt><trkpt lat="38.2156666" lon="22.1306797"><ele>25.0</ele><time>2026-04-29T07:47:51.966Z</time></trkpt><trkpt lat="38.2155374" lon="22.1308537"><ele>24.666666666666668</ele><time>2026-04-29T07:47:52.966Z</time></trkpt><trkpt lat="38.2153804" lon="22.1310261"><ele>24.333333333333336</ele><time>2026-04-29T07:47:53.967Z</time></trkpt><trkpt lat="38.2152103" lon="22.1311772"><ele>24.0</ele><time>2026-04-29T07:47:54.966Z</time></trkpt><trkpt lat="38.2150249" lon="22.1313314"><ele>24.0</ele><time>2026-04-29T07:47:55.967Z</time></trkpt><trkpt lat="38.2148499" lon="22.1314751"><ele>24.0</ele><time>2026-04-29T07:47:56.966Z</time></trkpt><trkpt lat="38.2146846" lon="22.1316174"><ele>24.0</ele><time>2026-04-29T07:47:57.967Z</time></trkpt><trkpt lat="38.21453" lon="22.1317505"><ele>23.666666666666668</ele><time>2026-04-29T07:47:58.966Z</time></trkpt><trkpt lat="38.2143745" lon="22.1318856"><ele>23.333333333333336</ele><time>2026-04-29T07:47:59.967Z</time></trkpt><trkpt lat="38.214214" lon="22.1320248"><ele>23.0</ele><time>2026-04-29T07:48:00.967Z</time></trkpt><trkpt lat="38.2140585" lon="22.1321594"><ele>22.666666666666668</ele><time>2026-04-29T07:48:01.966Z</time></trkpt><trkpt lat="38.2139096" lon="22.1322929"><ele>22.333333333333332</ele><time>2026-04-29T07:48:02.967Z</time></trkpt><trkpt lat="38.2137516" lon="22.1324374"><ele>22.0</ele><time>2026-04-29T07:48:03.966Z</time></trkpt><trkpt lat="38.2135988" lon="22.132573"><ele>21.333333333333332</ele><time>2026-04-29T07:48:04.966Z</time></trkpt><trkpt lat="38.2134471" lon="22.1327091"><ele>20.666666666666668</ele><time>2026-04-29T07:48:05.967Z</time></trkpt><trkpt lat="38.2133006" lon="22.1328391"><ele>20.0</ele><time>2026-04-29T07:48:06.967Z</time></trkpt><trkpt lat="38.2131543" lon="22.1329819"><ele>20.0</ele><time>2026-04-29T07:48:07.966Z</time></trkpt><trkpt lat="38.2130074" lon="22.1331363"><ele>20.0</ele><time>2026-04-29T07:48:08.966Z</time></trkpt><trkpt lat="38.2128661" lon="22.1332884"><ele>20.0</ele><time>2026-04-29T07:48:09.966Z</time></trkpt><trkpt lat="38.2127307" lon="22.1334416"><ele>18.666666666666668</ele><time>2026-04-29T07:48:10.967Z</time></trkpt><trkpt lat="38.2125935" lon="22.1335968"><ele>17.333333333333332</ele><time>2026-04-29T07:48:11.966Z</time></trkpt><trkpt lat="38.2124649" lon="22.1337428"><ele>16.0</ele><time>2026-04-29T07:48:12.967Z</time></trkpt><trkpt lat="38.2123401" lon="22.1338832"><ele>16.0</ele><time>2026-04-29T07:48:13.966Z</time></trkpt><trkpt lat="38.2122202" lon="22.1340187"><ele>16.0</ele><time>2026-04-29T07:48:14.966Z</time></trkpt><trkpt lat="38.2120995" lon="22.1341559"><ele>16.0</ele><time>2026-04-29T07:48:15.967Z</time></trkpt><trkpt lat="38.2119794" lon="22.1342917"><ele>15.5</ele><time>2026-04-29T07:48:16.966Z</time></trkpt><trkpt lat="38.211867" lon="22.1344233"><ele>15.0</ele><time>2026-04-29T07:48:17.967Z</time></trkpt><trkpt lat="38.2117645" lon="22.1345401"><ele>14.5</ele><time>2026-04-29T07:48:18.966Z</time></trkpt><trkpt lat="38.2116572" lon="22.1346711"><ele>14.0</ele><time>2026-04-29T07:48:19.967Z</time></trkpt><trkpt lat="38.2115624" lon="22.1348009"><ele>13.799999999999999</ele><time>2026-04-29T07:48:20.967Z</time></trkpt><trkpt lat="38.211479" lon="22.1349315"><ele>13.599999999999998</ele><time>2026-04-29T07:48:21.967Z</time></trkpt><trkpt lat="38.2114143" lon="22.1350458"><ele>13.4</ele><time>2026-04-29T07:48:22.967Z</time></trkpt><trkpt lat="38.2113541" lon="22.1351552"><ele>13.2</ele><time>2026-04-29T07:48:23.966Z</time></trkpt><trkpt lat="38.2112954" lon="22.1352607"><ele>13.0</ele><time>2026-04-29T07:48:24.967Z</time></trkpt><trkpt lat="38.2112326" lon="22.135362"><ele>13.0</ele><time>2026-04-29T07:48:25.967Z</time></trkpt><trkpt lat="38.2111594" lon="22.1354684"><ele>13.0</ele><time>2026-04-29T07:48:26.967Z</time></trkpt><trkpt lat="38.2110667" lon="22.1355901"><ele>13.0</ele><time>2026-04-29T07:48:27.966Z</time></trkpt><trkpt lat="38.2109673" lon="22.1357181"><ele>13.0</ele><time>2026-04-29T07:48:28.967Z</time></trkpt><trkpt lat="38.2108641" lon="22.1358392"><ele>13.0</ele><time>2026-04-29T07:48:29.967Z</time></trkpt><trkpt lat="38.2107566" lon="22.135961"><ele>13.0</ele><time>2026-04-29T07:48:30.966Z</time></trkpt><trkpt lat="38.2106397" lon="22.1360958"><ele>13.0</ele><time>2026-04-29T07:48:31.966Z</time></trkpt><trkpt lat="38.2105126" lon="22.1362442"><ele>14.0</ele><time>2026-04-29T07:48:32.966Z</time></trkpt><trkpt lat="38.2103932" lon="22.1363906"><ele>15.0</ele><time>2026-04-29T07:48:33.966Z</time></trkpt><trkpt lat="38.2102794" lon="22.1365425"><ele>16.0</ele><time>2026-04-29T07:48:34.966Z</time></trkpt><trkpt lat="38.2101606" lon="22.1367266"><ele>16.0</ele><time>2026-04-29T07:48:35.967Z</time></trkpt><trkpt lat="38.21005" lon="22.1369241"><ele>16.0</ele><time>2026-04-29T07:48:36.967Z</time></trkpt><trkpt lat="38.2099426" lon="22.1371234"><ele>16.0</ele><time>2026-04-29T07:48:37.966Z</time></trkpt><trkpt lat="38.2098452" lon="22.1373173"><ele>17.333333333333332</ele><time>2026-04-29T07:48:38.966Z</time></trkpt><trkpt lat="38.2097505" lon="22.1375172"><ele>18.666666666666668</ele><time>2026-04-29T07:48:39.967Z</time></trkpt><trkpt lat="38.2096567" lon="22.1377178"><ele>20.0</ele><time>2026-04-29T07:48:40.967Z</time></trkpt><trkpt lat="38.2095703" lon="22.137907"><ele>20.0</ele><time>2026-04-29T07:48:41.967Z</time></trkpt><trkpt lat="38.2094879" lon="22.1380863"><ele>20.0</ele><time>2026-04-29T07:48:42.967Z</time></trkpt><trkpt lat="38.209401" lon="22.1382826"><ele>20.0</ele><time>2026-04-29T07:48:43.966Z</time></trkpt><trkpt lat="38.2093258" lon="22.1384875"><ele>20.666666666666668</ele><time>2026-04-29T07:48:44.967Z</time></trkpt><trkpt lat="38.2092622" lon="22.1387029"><ele>21.333333333333332</ele><time>2026-04-29T07:48:45.967Z</time></trkpt><trkpt lat="38.2092088" lon="22.138913"><ele>22.0</ele><time>2026-04-29T07:48:46.967Z</time></trkpt><trkpt lat="38.2091561" lon="22.1391249"><ele>22.333333333333332</ele><time>2026-04-29T07:48:47.967Z</time></trkpt><trkpt lat="38.2090998" lon="22.139336"><ele>22.666666666666668</ele><time>2026-04-29T07:48:48.967Z</time></trkpt><trkpt lat="38.2090396" lon="22.1395273"><ele>23.0</ele><time>2026-04-29T07:48:49.967Z</time></trkpt><trkpt lat="38.2089829" lon="22.1396953"><ele>25.0</ele><time>2026-04-29T07:48:50.966Z</time></trkpt><trkpt lat="38.2089233" lon="22.1398757"><ele>27.0</ele><time>2026-04-29T07:48:51.967Z</time></trkpt><trkpt lat="38.2088652" lon="22.1400548"><ele>29.0</ele><time>2026-04-29T07:48:52.967Z</time></trkpt><trkpt lat="38.2088044" lon="22.1402305"><ele>29.0</ele><time>2026-04-29T07:48:53.967Z</time></trkpt><trkpt lat="38.2087422" lon="22.1404001"><ele>29.0</ele><time>2026-04-29T07:48:54.967Z</time></trkpt><trkpt lat="38.208679" lon="22.1405748"><ele>29.0</ele><time>2026-04-29T07:48:55.967Z</time></trkpt><trkpt lat="38.208614" lon="22.1407556"><ele>28.0</ele><time>2026-04-29T07:48:56.966Z</time></trkpt><trkpt lat="38.2085444" lon="22.140928"><ele>27.0</ele><time>2026-04-29T07:48:57.966Z</time></trkpt><trkpt lat="38.2084703" lon="22.1410955"><ele>26.0</ele><time>2026-04-29T07:48:58.966Z</time></trkpt><trkpt lat="38.2083882" lon="22.1412786"><ele>26.0</ele><time>2026-04-29T07:48:59.966Z</time></trkpt><trkpt lat="38.2083023" lon="22.1414614"><ele>26.0</ele><time>2026-04-29T07:49:00.966Z</time></trkpt><trkpt lat="38.2082157" lon="22.141652"><ele>26.0</ele><time>2026-04-29T07:49:01.967Z</time></trkpt><trkpt lat="38.2081339" lon="22.1418419"><ele>25.666666666666664</ele><time>2026-04-29T07:49:02.967Z</time></trkpt><trkpt lat="38.2080499" lon="22.1420405"><ele>25.333333333333336</ele><time>2026-04-29T07:49:03.967Z</time></trkpt><trkpt lat="38.2079652" lon="22.1422426"><ele>25.0</ele><time>2026-04-29T07:49:04.966Z</time></trkpt><trkpt lat="38.2078882" lon="22.1424276"><ele>25.0</ele><time>2026-04-29T07:49:05.966Z</time></trkpt><trkpt lat="38.207813" lon="22.1426008"><ele>25.0</ele><time>2026-04-29T07:49:06.966Z</time></trkpt><trkpt lat="38.2077335" lon="22.1427683"><ele>25.0</ele><time>2026-04-29T07:49:07.966Z</time></trkpt><trkpt lat="38.2076596" lon="22.142929"><ele>25.0</ele><time>2026-04-29T07:49:08.967Z</time></trkpt><trkpt lat="38.2075699" lon="22.1430766"><ele>25.0</ele><time>2026-04-29T07:49:09.966Z</time></trkpt><trkpt lat="38.2074629" lon="22.1432192"><ele>25.0</ele><time>2026-04-29T07:49:10.967Z</time></trkpt><trkpt lat="38.207333" lon="22.1433595"><ele>25.0</ele><time>2026-04-29T07:49:11.966Z</time></trkpt><trkpt lat="38.2071921" lon="22.143504"><ele>25.0</ele><time>2026-04-29T07:49:12.966Z</time></trkpt><trkpt lat="38.2070575" lon="22.143639"><ele>25.0</ele><time>2026-04-29T07:49:13.967Z</time></trkpt><trkpt lat="38.2069315" lon="22.1437632"><ele>25.0</ele><time>2026-04-29T07:49:14.966Z</time></trkpt><trkpt lat="38.2068008" lon="22.1438869"><ele>25.0</ele><time>2026-04-29T07:49:15.967Z</time></trkpt><trkpt lat="38.206678" lon="22.1439876"><ele>25.0</ele><time>2026-04-29T07:49:16.967Z</time></trkpt><trkpt lat="38.206554" lon="22.144063"><ele>25.0</ele><time>2026-04-29T07:49:17.967Z</time></trkpt><trkpt lat="38.2064208" lon="22.1441068"><ele>25.0</ele><time>2026-04-29T07:49:18.966Z</time></trkpt><trkpt lat="38.2062836" lon="22.1441255"><ele>25.0</ele><time>2026-04-29T07:49:19.966Z</time></trkpt><trkpt lat="38.2061325" lon="22.1441064"><ele>25.0</ele><time>2026-04-29T07:49:20.966Z</time></trkpt><trkpt lat="38.2059734" lon="22.1440665"><ele>26.333333333333336</ele><time>2026-04-29T07:49:21.967Z</time></trkpt><trkpt lat="38.2058139" lon="22.1440108"><ele>27.666666666666664</ele><time>2026-04-29T07:49:22.967Z</time></trkpt><trkpt lat="38.2056446" lon="22.1439603"><ele>29.0</ele><time>2026-04-29T07:49:23.966Z</time></trkpt><trkpt lat="38.2054803" lon="22.1439184"><ele>31.0</ele><time>2026-04-29T07:49:24.967Z</time></trkpt><trkpt lat="38.205315" lon="22.143872"><ele>33.0</ele><time>2026-04-29T07:49:25.967Z</time></trkpt><trkpt lat="38.2051564" lon="22.1438423"><ele>35.0</ele><time>2026-04-29T07:49:26.967Z</time></trkpt><trkpt lat="38.2049934" lon="22.1438361"><ele>42.33333333333333</ele><time>2026-04-29T07:49:27.966Z</time></trkpt><trkpt lat="38.2048251" lon="22.1438615"><ele>49.666666666666664</ele><time>2026-04-29T07:49:28.967Z</time></trkpt><trkpt lat="38.2046651" lon="22.1439279"><ele>57.0</ele><time>2026-04-29T07:49:29.966Z</time></trkpt><trkpt lat="38.2045162" lon="22.144027"><ele>51.333333333333336</ele><time>2026-04-29T07:49:30.967Z</time></trkpt><trkpt lat="38.2043608" lon="22.1441726"><ele>45.66666666666667</ele><time>2026-04-29T07:49:31.966Z</time></trkpt><trkpt lat="38.2042198" lon="22.1443383"><ele>40.0</ele><time>2026-04-29T07:49:32.966Z</time></trkpt><trkpt lat="38.2040699" lon="22.1445402"><ele>43.66666666666667</ele><time>2026-04-29T07:49:33.966Z</time></trkpt><trkpt lat="38.2039281" lon="22.1447389"><ele>47.333333333333336</ele><time>2026-04-29T07:49:34.966Z</time></trkpt><trkpt lat="38.2037917" lon="22.1449323"><ele>51.0</ele><time>2026-04-29T07:49:35.967Z</time></trkpt><trkpt lat="38.2036475" lon="22.1451293"><ele>51.0</ele><time>2026-04-29T07:49:36.966Z</time></trkpt><trkpt lat="38.2035231" lon="22.1453203"><ele>51.0</ele><time>2026-04-29T07:49:37.967Z</time></trkpt><trkpt lat="38.2034118" lon="22.1455114"><ele>51.0</ele><time>2026-04-29T07:49:38.967Z</time></trkpt><trkpt lat="38.2033044" lon="22.1457073"><ele>53.66666666666667</ele><time>2026-04-29T07:49:39.966Z</time></trkpt><trkpt lat="38.2032037" lon="22.1458835"><ele>56.333333333333336</ele><time>2026-04-29T07:49:40.966Z</time></trkpt><trkpt lat="38.2030923" lon="22.1460543"><ele>59.0</ele><time>2026-04-29T07:49:41.967Z</time></trkpt><trkpt lat="38.2029639" lon="22.1462073"><ele>59.0</ele><time>2026-04-29T07:49:42.967Z</time></trkpt><trkpt lat="38.2028164" lon="22.1463547"><ele>59.0</ele><time>2026-04-29T07:49:43.966Z</time></trkpt><trkpt lat="38.2026637" lon="22.1465151"><ele>59.0</ele><time>2026-04-29T07:49:44.966Z</time></trkpt><trkpt lat="38.20252" lon="22.1466833"><ele>60.66666666666667</ele><time>2026-04-29T07:49:45.967Z</time></trkpt><trkpt lat="38.2023835" lon="22.1468455"><ele>62.33333333333333</ele><time>2026-04-29T07:49:46.967Z</time></trkpt><trkpt lat="38.2022348" lon="22.1470129"><ele>64.0</ele><time>2026-04-29T07:49:47.967Z</time></trkpt><trkpt lat="38.2020839" lon="22.1471615"><ele>64.0</ele><time>2026-04-29T07:49:48.966Z</time></trkpt><trkpt lat="38.2019271" lon="22.1472852"><ele>64.0</ele><time>2026-04-29T07:49:49.966Z</time></trkpt><trkpt lat="38.2017768" lon="22.1474068"><ele>64.0</ele><time>2026-04-29T07:49:50.966Z</time></trkpt><trkpt lat="38.2016301" lon="22.1475493"><ele>68.0</ele><time>2026-04-29T07:49:51.966Z</time></trkpt><trkpt lat="38.2014946" lon="22.1477227"><ele>72.0</ele><time>2026-04-29T07:49:52.966Z</time></trkpt><trkpt lat="38.2013682" lon="22.1479227"><ele>76.0</ele><time>2026-04-29T07:49:53.966Z</time></trkpt><trkpt lat="38.2012398" lon="22.1481262"><ele>68.33333333333333</ele><time>2026-04-29T07:49:54.967Z</time></trkpt><trkpt lat="38.2011049" lon="22.1483348"><ele>60.66666666666667</ele><time>2026-04-29T07:49:55.967Z</time></trkpt><trkpt lat="38.2009754" lon="22.1485192"><ele>53.0</ele><time>2026-04-29T07:49:56.967Z</time></trkpt><trkpt lat="38.2008464" lon="22.1486935"><ele>53.0</ele><time>2026-04-29T07:49:57.967Z</time></trkpt><trkpt lat="38.2007185" lon="22.1488572"><ele>53.0</ele><time>2026-04-29T07:49:58.966Z</time></trkpt><trkpt lat="38.2005859" lon="22.1490099"><ele>53.0</ele><time>2026-04-29T07:49:59.967Z</time></trkpt><trkpt lat="38.2004277" lon="22.1491444"><ele>52.66666666666667</ele><time>2026-04-29T07:50:00.966Z</time></trkpt><trkpt lat="38.2002432" lon="22.1492608"><ele>52.33333333333333</ele><time>2026-04-29T07:50:01.966Z</time></trkpt><trkpt lat="38.2000514" lon="22.1493892"><ele>52.0</ele><time>2026-04-29T07:50:02.966Z</time></trkpt><trkpt lat="38.1998513" lon="22.1495271"><ele>64.5</ele><time>2026-04-29T07:50:03.966Z</time></trkpt><trkpt lat="38.1996571" lon="22.1496857"><ele>77.0</ele><time>2026-04-29T07:50:04.967Z</time></trkpt><trkpt lat="38.1994635" lon="22.1498527"><ele>74.66666666666667</ele><time>2026-04-29T07:50:05.966Z</time></trkpt><trkpt lat="38.1992799" lon="22.1499965"><ele>72.33333333333333</ele><time>2026-04-29T07:50:06.967Z</time></trkpt><trkpt lat="38.1990914" lon="22.1501415"><ele>70.0</ele><time>2026-04-29T07:50:07.967Z</time></trkpt><trkpt lat="38.1988998" lon="22.1502713"><ele>70.0</ele><time>2026-04-29T07:50:08.967Z</time></trkpt><trkpt lat="38.1987257" lon="22.15039"><ele>70.0</ele><time>2026-04-29T07:50:09.967Z</time></trkpt><trkpt lat="38.1985471" lon="22.1505142"><ele>70.0</ele><time>2026-04-29T07:50:10.966Z</time></trkpt><trkpt lat="38.1983793" lon="22.150639"><ele>68.66666666666666</ele><time>2026-04-29T07:50:11.966Z</time></trkpt><trkpt lat="38.19823" lon="22.1507674"><ele>67.33333333333333</ele><time>2026-04-29T07:50:12.966Z</time></trkpt><trkpt lat="38.1980897" lon="22.1509031"><ele>66.0</ele><time>2026-04-29T07:50:13.966Z</time></trkpt><trkpt lat="38.1979563" lon="22.1510266"><ele>66.0</ele><time>2026-04-29T07:50:14.967Z</time></trkpt><trkpt lat="38.1978095" lon="22.1511354"><ele>66.0</ele><time>2026-04-29T07:50:15.967Z</time></trkpt><trkpt lat="38.1976353" lon="22.1512159"><ele>66.0</ele><time>2026-04-29T07:50:16.967Z</time></trkpt><trkpt lat="38.1972541" lon="22.1512703"><ele>69.66666666666667</ele><time>2026-04-29T07:50:18.966Z</time></trkpt><trkpt lat="38.1970513" lon="22.1512817"><ele>73.33333333333334</ele><time>2026-04-29T07:50:19.967Z</time></trkpt><trkpt lat="38.1968442" lon="22.151261"><ele>77.0</ele><time>2026-04-29T07:50:20.966Z</time></trkpt><trkpt lat="38.1966517" lon="22.1512829"><ele>75.0</ele><time>2026-04-29T07:50:21.966Z</time></trkpt><trkpt lat="38.1964941" lon="22.1513126"><ele>73.0</ele><time>2026-04-29T07:50:22.966Z</time></trkpt><trkpt lat="38.1963444" lon="22.1513508"><ele>71.0</ele><time>2026-04-29T07:50:23.966Z</time></trkpt><trkpt lat="38.1961973" lon="22.1513592"><ele>71.0</ele><time>2026-04-29T07:50:24.966Z</time></trkpt><trkpt lat="38.1960522" lon="22.1513449"><ele>71.0</ele><time>2026-04-29T07:50:25.966Z</time></trkpt><trkpt lat="38.1959268" lon="22.1512958"><ele>71.0</ele><time>2026-04-29T07:50:26.966Z</time></trkpt><trkpt lat="38.1957867" lon="22.1512321"><ele>71.0</ele><time>2026-04-29T07:50:27.967Z</time></trkpt><trkpt lat="38.195655" lon="22.1511762"><ele>73.5</ele><time>2026-04-29T07:50:28.966Z</time></trkpt><trkpt lat="38.1955143" lon="22.1511436"><ele>76.0</ele><time>2026-04-29T07:50:29.967Z</time></trkpt><trkpt lat="38.1953695" lon="22.1511339"><ele>78.5</ele><time>2026-04-29T07:50:30.966Z</time></trkpt><trkpt lat="38.1952274" lon="22.151139"><ele>81.0</ele><time>2026-04-29T07:50:31.967Z</time></trkpt><trkpt lat="38.1950877" lon="22.15115"><ele>81.0</ele><time>2026-04-29T07:50:32.966Z</time></trkpt><trkpt lat="38.1949688" lon="22.151166"><ele>81.0</ele><time>2026-04-29T07:50:33.966Z</time></trkpt><trkpt lat="38.1948543" lon="22.151164"><ele>81.0</ele><time>2026-04-29T07:50:34.966Z</time></trkpt><trkpt lat="38.1947337" lon="22.1511373"><ele>81.0</ele><time>2026-04-29T07:50:35.966Z</time></trkpt><trkpt lat="38.1946152" lon="22.1510742"><ele>77.33333333333333</ele><time>2026-04-29T07:50:36.966Z</time></trkpt><trkpt lat="38.1944816" lon="22.1509722"><ele>73.66666666666666</ele><time>2026-04-29T07:50:37.967Z</time></trkpt><trkpt lat="38.1943444" lon="22.1508599"><ele>70.0</ele><time>2026-04-29T07:50:38.966Z</time></trkpt><trkpt lat="38.1942021" lon="22.1507384"><ele>73.0</ele><time>2026-04-29T07:50:39.967Z</time></trkpt><trkpt lat="38.1940445" lon="22.1506091"><ele>76.0</ele><time>2026-04-29T07:50:40.966Z</time></trkpt><trkpt lat="38.1938859" lon="22.1504835"><ele>79.0</ele><time>2026-04-29T07:50:41.966Z</time></trkpt><trkpt lat="38.193719" lon="22.1503677"><ele>79.0</ele><time>2026-04-29T07:50:42.966Z</time></trkpt><trkpt lat="38.1935422" lon="22.1502598"><ele>79.0</ele><time>2026-04-29T07:50:43.966Z</time></trkpt><trkpt lat="38.1933672" lon="22.1501672"><ele>79.0</ele><time>2026-04-29T07:50:44.966Z</time></trkpt><trkpt lat="38.1931833" lon="22.150071"><ele>76.66666666666666</ele><time>2026-04-29T07:50:45.967Z</time></trkpt><trkpt lat="38.1930061" lon="22.1499738"><ele>74.33333333333333</ele><time>2026-04-29T07:50:46.966Z</time></trkpt><trkpt lat="38.1928334" lon="22.149872"><ele>72.0</ele><time>2026-04-29T07:50:47.967Z</time></trkpt><trkpt lat="38.1926569" lon="22.14977"><ele>73.33333333333333</ele><time>2026-04-29T07:50:48.966Z</time></trkpt><trkpt lat="38.1924894" lon="22.1496776"><ele>74.66666666666666</ele><time>2026-04-29T07:50:49.967Z</time></trkpt><trkpt lat="38.1923232" lon="22.1495856"><ele>76.0</ele><time>2026-04-29T07:50:50.967Z</time></trkpt><trkpt lat="38.1921465" lon="22.1494935"><ele>76.0</ele><time>2026-04-29T07:50:51.967Z</time></trkpt><trkpt lat="38.1919786" lon="22.1494026"><ele>76.0</ele><time>2026-04-29T07:50:52.967Z</time></trkpt><trkpt lat="38.1918114" lon="22.1493211"><ele>76.0</ele><time>2026-04-29T07:50:53.967Z</time></trkpt><trkpt lat="38.1916326" lon="22.1492397"><ele>75.66666666666666</ele><time>2026-04-29T07:50:54.966Z</time></trkpt><trkpt lat="38.1914581" lon="22.149165"><ele>75.33333333333333</ele><time>2026-04-29T07:50:55.967Z</time></trkpt><trkpt lat="38.1912771" lon="22.149102"><ele>75.0</ele><time>2026-04-29T07:50:56.966Z</time></trkpt><trkpt lat="38.1911024" lon="22.1490501"><ele>81.33333333333333</ele><time>2026-04-29T07:50:57.966Z</time></trkpt><trkpt lat="38.1909337" lon="22.1490081"><ele>87.66666666666666</ele><time>2026-04-29T07:50:58.967Z</time></trkpt><trkpt lat="38.1907606" lon="22.1489614"><ele>94.0</ele><time>2026-04-29T07:50:59.967Z</time></trkpt><trkpt lat="38.1905987" lon="22.14892"><ele>94.0</ele><time>2026-04-29T07:51:00.967Z</time></trkpt><trkpt lat="38.1904355" lon="22.1488775"><ele>94.0</ele><time>2026-04-29T07:51:01.966Z</time></trkpt><trkpt lat="38.1902824" lon="22.1488291"><ele>94.0</ele><time>2026-04-29T07:51:02.967Z</time></trkpt><trkpt lat="38.1901317" lon="22.1487613"><ele>94.0</ele><time>2026-04-29T07:51:03.967Z</time></trkpt><trkpt lat="38.18998" lon="22.148668"><ele>94.0</ele><time>2026-04-29T07:51:04.966Z</time></trkpt><trkpt lat="38.1898362" lon="22.1485604"><ele>94.0</ele><time>2026-04-29T07:51:05.966Z</time></trkpt><trkpt lat="38.1896877" lon="22.1484324"><ele>95.66666666666666</ele><time>2026-04-29T07:51:06.966Z</time></trkpt><trkpt lat="38.1895272" lon="22.1482977"><ele>97.33333333333333</ele><time>2026-04-29T07:51:07.967Z</time></trkpt><trkpt lat="38.1893756" lon="22.1481696"><ele>99.0</ele><time>2026-04-29T07:51:08.966Z</time></trkpt><trkpt lat="38.1892183" lon="22.1480355"><ele>99.0</ele><time>2026-04-29T07:51:09.967Z</time></trkpt><trkpt lat="38.189063" lon="22.1479028"><ele>99.0</ele><time>2026-04-29T07:51:10.966Z</time></trkpt><trkpt lat="38.1889076" lon="22.1477802"><ele>99.0</ele><time>2026-04-29T07:51:11.966Z</time></trkpt><trkpt lat="38.1887493" lon="22.1476699"><ele>95.33333333333333</ele><time>2026-04-29T07:51:12.967Z</time></trkpt><trkpt lat="38.1885996" lon="22.1475846"><ele>91.66666666666666</ele><time>2026-04-29T07:51:13.967Z</time></trkpt><trkpt lat="38.1884475" lon="22.1475167"><ele>88.0</ele><time>2026-04-29T07:51:14.966Z</time></trkpt><trkpt lat="38.1882991" lon="22.1474647"><ele>88.25</ele><time>2026-04-29T07:51:15.967Z</time></trkpt><trkpt lat="38.1881681" lon="22.1474259"><ele>88.5</ele><time>2026-04-29T07:51:16.967Z</time></trkpt><trkpt lat="38.188041" lon="22.1473935"><ele>88.75</ele><time>2026-04-29T07:51:17.966Z</time></trkpt><trkpt lat="38.1879267" lon="22.1473666"><ele>89.0</ele><time>2026-04-29T07:51:18.966Z</time></trkpt><trkpt lat="38.1878277" lon="22.1473458"><ele>91.83333333333334</ele><time>2026-04-29T07:51:19.967Z</time></trkpt><trkpt lat="38.1877382" lon="22.1473292"><ele>94.66666666666667</ele><time>2026-04-29T07:51:20.967Z</time></trkpt><trkpt lat="38.1876647" lon="22.1473166"><ele>97.5</ele><time>2026-04-29T07:51:21.966Z</time></trkpt><trkpt lat="38.1875971" lon="22.1472975"><ele>100.33333333333334</ele><time>2026-04-29T07:51:22.967Z</time></trkpt><trkpt lat="38.1875344" lon="22.1472762"><ele>103.16666666666667</ele><time>2026-04-29T07:51:23.967Z</time></trkpt><trkpt lat="38.1874346" lon="22.147243"><ele>106.0</ele><time>2026-04-29T07:51:25.966Z</time></trkpt><trkpt lat="38.187352" lon="22.1471943"><ele>104.83333333333334</ele><time>2026-04-29T07:51:27.967Z</time></trkpt><trkpt lat="38.1872891" lon="22.1471392"><ele>103.66666666666667</ele><time>2026-04-29T07:51:29.966Z</time></trkpt><trkpt lat="38.1872279" lon="22.1471204"><ele>102.5</ele><time>2026-04-29T07:51:44.966Z</time></trkpt><trkpt lat="38.1871425" lon="22.1470369"><ele>101.33333333333334</ele><time>2026-04-29T08:03:31.981Z</time></trkpt><trkpt lat="38.1870745" lon="22.1469679"><ele>100.16666666666667</ele><time>2026-04-29T08:03:33.981Z</time></trkpt><trkpt lat="38.1871472" lon="22.1469926"><ele>99.0</ele><time>2026-04-29T08:04:36.98Z</time></trkpt><trkpt lat="38.1871962" lon="22.1470442"><ele>99.0</ele><time>2026-04-29T08:04:44.981Z</time></trkpt><trkpt lat="38.1871304" lon="22.1470267"><ele>99.0</ele><time>2026-04-29T08:05:25.981Z</time></trkpt><trkpt lat="38.1870724" lon="22.146985"><ele>99.0</ele><time>2026-04-29T08:05:41.937Z</time></trkpt><trkpt lat="38.1869415" lon="22.1469028"><ele>99.0</ele><time>2026-04-29T08:08:54.98Z</time></trkpt><trkpt lat="38.1868663" lon="22.1468494"><ele>99.0</ele><time>2026-04-29T08:08:55.98Z</time></trkpt><trkpt lat="38.1867952" lon="22.1467995"><ele>99.0</ele><time>2026-04-29T08:08:56.981Z</time></trkpt><trkpt lat="38.1867162" lon="22.1467391"><ele>99.0</ele><time>2026-04-29T08:08:57.98Z</time></trkpt><trkpt lat="38.1866254" lon="22.146677"><ele>99.0</ele><time>2026-04-29T08:08:58.981Z</time></trkpt><trkpt lat="38.186522" lon="22.1466127"><ele>99.0</ele><time>2026-04-29T08:08:59.98Z</time></trkpt><trkpt lat="38.1864132" lon="22.1465452"><ele>99.0</ele><time>2026-04-29T08:09:00.98Z</time></trkpt><trkpt lat="38.186297" lon="22.1464886"><ele>101.5</ele><time>2026-04-29T08:09:01.98Z</time></trkpt><trkpt lat="38.1861764" lon="22.1464266"><ele>104.0</ele><time>2026-04-29T08:09:02.981Z</time></trkpt><trkpt lat="38.1860569" lon="22.1463605"><ele>106.5</ele><time>2026-04-29T08:09:03.98Z</time></trkpt><trkpt lat="38.1859308" lon="22.1462998"><ele>109.0</ele><time>2026-04-29T08:09:04.981Z</time></trkpt><trkpt lat="38.1857999" lon="22.1462389"><ele>107.5</ele><time>2026-04-29T08:09:05.98Z</time></trkpt><trkpt lat="38.1856681" lon="22.1461814"><ele>106.0</ele><time>2026-04-29T08:09:06.98Z</time></trkpt><trkpt lat="38.1855329" lon="22.1461246"><ele>104.5</ele><time>2026-04-29T08:09:07.98Z</time></trkpt><trkpt lat="38.1853999" lon="22.1460655"><ele>103.0</ele><time>2026-04-29T08:09:08.98Z</time></trkpt><trkpt lat="38.1852657" lon="22.1460123"><ele>103.0</ele><time>2026-04-29T08:09:09.981Z</time></trkpt><trkpt lat="38.1851434" lon="22.1459623"><ele>103.0</ele><time>2026-04-29T08:09:10.98Z</time></trkpt><trkpt lat="38.185027" lon="22.1459092"><ele>103.0</ele><time>2026-04-29T08:09:11.98Z</time></trkpt><trkpt lat="38.1849188" lon="22.1458424"><ele>103.0</ele><time>2026-04-29T08:09:12.981Z</time></trkpt><trkpt lat="38.1848186" lon="22.1457487"><ele>103.5</ele><time>2026-04-29T08:09:13.981Z</time></trkpt><trkpt lat="38.184735" lon="22.1456323"><ele>104.0</ele><time>2026-04-29T08:09:14.98Z</time></trkpt><trkpt lat="38.1846637" lon="22.1454926"><ele>104.5</ele><time>2026-04-29T08:09:15.981Z</time></trkpt><trkpt lat="38.1845951" lon="22.1453468"><ele>105.0</ele><time>2026-04-29T08:09:16.98Z</time></trkpt><trkpt lat="38.1845303" lon="22.145203"><ele>105.0</ele><time>2026-04-29T08:09:17.981Z</time></trkpt><trkpt lat="38.1844592" lon="22.1450579"><ele>105.0</ele><time>2026-04-29T08:09:18.98Z</time></trkpt><trkpt lat="38.1843815" lon="22.1449079"><ele>105.0</ele><time>2026-04-29T08:09:19.981Z</time></trkpt><trkpt lat="38.1843016" lon="22.1447551"><ele>105.0</ele><time>2026-04-29T08:09:20.98Z</time></trkpt><trkpt lat="38.1842253" lon="22.1445998"><ele>104.75</ele><time>2026-04-29T08:09:21.98Z</time></trkpt><trkpt lat="38.1841514" lon="22.1444403"><ele>104.5</ele><time>2026-04-29T08:09:22.98Z</time></trkpt><trkpt lat="38.1840721" lon="22.1442882"><ele>104.25</ele><time>2026-04-29T08:09:23.98Z</time></trkpt><trkpt lat="38.1839821" lon="22.1441352"><ele>104.0</ele><time>2026-04-29T08:09:24.981Z</time></trkpt><trkpt lat="38.1838945" lon="22.1439833"><ele>105.25</ele><time>2026-04-29T08:09:25.98Z</time></trkpt><trkpt lat="38.1837992" lon="22.1438425"><ele>106.5</ele><time>2026-04-29T08:09:26.981Z</time></trkpt><trkpt lat="38.1836913" lon="22.1437236"><ele>107.75</ele><time>2026-04-29T08:09:27.98Z</time></trkpt><trkpt lat="38.1835622" lon="22.1436186"><ele>109.0</ele><time>2026-04-29T08:09:28.981Z</time></trkpt><trkpt lat="38.1834253" lon="22.1435276"><ele>109.0</ele><time>2026-04-29T08:09:29.981Z</time></trkpt><trkpt lat="38.1832757" lon="22.143446"><ele>109.0</ele><time>2026-04-29T08:09:30.981Z</time></trkpt><trkpt lat="38.183122" lon="22.143371"><ele>109.0</ele><time>2026-04-29T08:09:31.981Z</time></trkpt><trkpt lat="38.1829697" lon="22.1433103"><ele>109.66666666666667</ele><time>2026-04-29T08:09:32.98Z</time></trkpt><trkpt lat="38.1828119" lon="22.1432395"><ele>110.33333333333334</ele><time>2026-04-29T08:09:33.981Z</time></trkpt><trkpt lat="38.1826592" lon="22.1431752"><ele>111.0</ele><time>2026-04-29T08:09:34.98Z</time></trkpt><trkpt lat="38.1825075" lon="22.143106"><ele>112.0</ele><time>2026-04-29T08:09:35.981Z</time></trkpt><trkpt lat="38.1823498" lon="22.1430387"><ele>113.0</ele><time>2026-04-29T08:09:36.98Z</time></trkpt><trkpt lat="38.182202" lon="22.1429764"><ele>114.0</ele><time>2026-04-29T08:09:37.981Z</time></trkpt><trkpt lat="38.1820603" lon="22.1429117"><ele>114.0</ele><time>2026-04-29T08:09:38.981Z</time></trkpt><trkpt lat="38.1819265" lon="22.1428376"><ele>114.0</ele><time>2026-04-29T08:09:39.981Z</time></trkpt><trkpt lat="38.1818077" lon="22.1427591"><ele>114.0</ele><time>2026-04-29T08:09:40.98Z</time></trkpt><trkpt lat="38.1817067" lon="22.1426604"><ele>114.0</ele><time>2026-04-29T08:09:41.981Z</time></trkpt><trkpt lat="38.181625" lon="22.1425133"><ele>116.33333333333334</ele><time>2026-04-29T08:09:42.98Z</time></trkpt><trkpt lat="38.1815498" lon="22.142341"><ele>118.66666666666667</ele><time>2026-04-29T08:09:43.981Z</time></trkpt><trkpt lat="38.1814797" lon="22.1421753"><ele>121.0</ele><time>2026-04-29T08:09:44.98Z</time></trkpt><trkpt lat="38.1814095" lon="22.1419893"><ele>121.0</ele><time>2026-04-29T08:09:45.981Z</time></trkpt><trkpt lat="38.1813253" lon="22.1418093"><ele>121.0</ele><time>2026-04-29T08:09:46.98Z</time></trkpt><trkpt lat="38.1812258" lon="22.141641"><ele>121.0</ele><time>2026-04-29T08:09:47.98Z</time></trkpt><trkpt lat="38.1811074" lon="22.141483"><ele>122.33333333333334</ele><time>2026-04-29T08:09:48.981Z</time></trkpt><trkpt lat="38.1809895" lon="22.1413187"><ele>123.66666666666666</ele><time>2026-04-29T08:09:49.981Z</time></trkpt><trkpt lat="38.1808585" lon="22.1411816"><ele>125.0</ele><time>2026-04-29T08:09:50.981Z</time></trkpt><trkpt lat="38.1807342" lon="22.1410415"><ele>124.33333333333333</ele><time>2026-04-29T08:09:51.98Z</time></trkpt><trkpt lat="38.1806169" lon="22.1408951"><ele>123.66666666666666</ele><time>2026-04-29T08:09:52.981Z</time></trkpt><trkpt lat="38.1805383" lon="22.1407254"><ele>123.0</ele><time>2026-04-29T08:09:53.981Z</time></trkpt><trkpt lat="38.1804623" lon="22.1405631"><ele>124.33333333333334</ele><time>2026-04-29T08:09:54.981Z</time></trkpt><trkpt lat="38.1803584" lon="22.1404272"><ele>125.66666666666667</ele><time>2026-04-29T08:09:55.981Z</time></trkpt><trkpt lat="38.1802342" lon="22.1403007"><ele>127.0</ele><time>2026-04-29T08:09:56.98Z</time></trkpt><trkpt lat="38.1800939" lon="22.1401742"><ele>127.0</ele><time>2026-04-29T08:09:57.98Z</time></trkpt><trkpt lat="38.1799449" lon="22.1400624"><ele>127.0</ele><time>2026-04-29T08:09:58.98Z</time></trkpt><trkpt lat="38.1797862" lon="22.1399702"><ele>127.0</ele><time>2026-04-29T08:09:59.98Z</time></trkpt><trkpt lat="38.179626" lon="22.1399119"><ele>126.33333333333334</ele><time>2026-04-29T08:10:00.981Z</time></trkpt><trkpt lat="38.1794656" lon="22.1398918"><ele>125.66666666666666</ele><time>2026-04-29T08:10:01.98Z</time></trkpt><trkpt lat="38.1793117" lon="22.1398996"><ele>125.0</ele><time>2026-04-29T08:10:02.981Z</time></trkpt><trkpt lat="38.1791517" lon="22.1398841"><ele>126.66666666666666</ele><time>2026-04-29T08:10:03.981Z</time></trkpt><trkpt lat="38.1789986" lon="22.1398379"><ele>128.33333333333334</ele><time>2026-04-29T08:10:04.98Z</time></trkpt><trkpt lat="38.1788465" lon="22.1397354"><ele>130.0</ele><time>2026-04-29T08:10:05.98Z</time></trkpt><trkpt lat="38.1787068" lon="22.1396088"><ele>130.0</ele><time>2026-04-29T08:10:06.98Z</time></trkpt><trkpt lat="38.1785573" lon="22.1395178"><ele>130.0</ele><time>2026-04-29T08:10:07.981Z</time></trkpt><trkpt lat="38.1783958" lon="22.1394351"><ele>130.0</ele><time>2026-04-29T08:10:08.981Z</time></trkpt><trkpt lat="38.1782464" lon="22.1393404"><ele>130.0</ele><time>2026-04-29T08:10:09.98Z</time></trkpt><trkpt lat="38.1781072" lon="22.1392496"><ele>130.0</ele><time>2026-04-29T08:10:10.981Z</time></trkpt><trkpt lat="38.1779889" lon="22.1391526"><ele>130.0</ele><time>2026-04-29T08:10:11.981Z</time></trkpt><trkpt lat="38.1779023" lon="22.1390372"><ele>130.0</ele><time>2026-04-29T08:10:12.98Z</time></trkpt><trkpt lat="38.1778577" lon="22.1388936"><ele>131.25</ele><time>2026-04-29T08:10:13.98Z</time></trkpt><trkpt lat="38.1778535" lon="22.1387283"><ele>132.5</ele><time>2026-04-29T08:10:14.981Z</time></trkpt><trkpt lat="38.1778713" lon="22.1385491"><ele>133.75</ele><time>2026-04-29T08:10:15.98Z</time></trkpt><trkpt lat="38.1779017" lon="22.1383652"><ele>135.0</ele><time>2026-04-29T08:10:16.981Z</time></trkpt><trkpt lat="38.1779297" lon="22.1381926"><ele>137.25</ele><time>2026-04-29T08:10:17.981Z</time></trkpt><trkpt lat="38.1779427" lon="22.138034"><ele>139.5</ele><time>2026-04-29T08:10:18.981Z</time></trkpt><trkpt lat="38.177922" lon="22.137865"><ele>141.75</ele><time>2026-04-29T08:10:19.981Z</time></trkpt><trkpt lat="38.1778789" lon="22.1376796"><ele>144.0</ele><time>2026-04-29T08:10:20.98Z</time></trkpt><trkpt lat="38.1778303" lon="22.137488"><ele>146.33333333333334</ele><time>2026-04-29T08:10:21.98Z</time></trkpt><trkpt lat="38.1777936" lon="22.1372878"><ele>148.66666666666669</ele><time>2026-04-29T08:10:22.981Z</time></trkpt><trkpt lat="38.1777785" lon="22.1370879"><ele>151.0</ele><time>2026-04-29T08:10:23.981Z</time></trkpt><trkpt lat="38.1777756" lon="22.13688"><ele>151.0</ele><time>2026-04-29T08:10:24.981Z</time></trkpt><trkpt lat="38.1777748" lon="22.1366818"><ele>151.0</ele><time>2026-04-29T08:10:25.98Z</time></trkpt><trkpt lat="38.1777853" lon="22.1365146"><ele>151.0</ele><time>2026-04-29T08:10:26.981Z</time></trkpt><trkpt lat="38.1777849" lon="22.1363759"><ele>151.0</ele><time>2026-04-29T08:10:27.981Z</time></trkpt><trkpt lat="38.177762" lon="22.136262"><ele>153.2</ele><time>2026-04-29T08:10:28.981Z</time></trkpt><trkpt lat="38.1777028" lon="22.1361654"><ele>155.39999999999998</ele><time>2026-04-29T08:10:29.981Z</time></trkpt><trkpt lat="38.1776236" lon="22.1360939"><ele>157.6</ele><time>2026-04-29T08:10:30.981Z</time></trkpt><trkpt lat="38.1775301" lon="22.1360217"><ele>159.79999999999998</ele><time>2026-04-29T08:10:31.98Z</time></trkpt><trkpt lat="38.1774392" lon="22.1359212"><ele>162.0</ele><time>2026-04-29T08:10:32.98Z</time></trkpt><trkpt lat="38.1773811" lon="22.1357932"><ele>163.2</ele><time>2026-04-29T08:10:33.981Z</time></trkpt><trkpt lat="38.1773482" lon="22.1356681"><ele>164.39999999999998</ele><time>2026-04-29T08:10:34.981Z</time></trkpt><trkpt lat="38.1773466" lon="22.1355334"><ele>165.60000000000002</ele><time>2026-04-29T08:10:35.98Z</time></trkpt><trkpt lat="38.1773375" lon="22.1353932"><ele>166.8</ele><time>2026-04-29T08:10:36.981Z</time></trkpt><trkpt lat="38.1773006" lon="22.1352419"><ele>168.0</ele><time>2026-04-29T08:10:37.98Z</time></trkpt><trkpt lat="38.17723" lon="22.1351108"><ele>168.0</ele><time>2026-04-29T08:10:38.981Z</time></trkpt><trkpt lat="38.1771328" lon="22.1349998"><ele>168.0</ele><time>2026-04-29T08:10:39.98Z</time></trkpt><trkpt lat="38.1770166" lon="22.1349194"><ele>168.0</ele><time>2026-04-29T08:10:40.981Z</time></trkpt><trkpt lat="38.1768801" lon="22.1348582"><ele>168.0</ele><time>2026-04-29T08:10:41.981Z</time></trkpt><trkpt lat="38.1767518" lon="22.1348042"><ele>168.25</ele><time>2026-04-29T08:10:42.981Z</time></trkpt><trkpt lat="38.1766329" lon="22.1347502"><ele>168.5</ele><time>2026-04-29T08:10:43.981Z</time></trkpt><trkpt lat="38.1765205" lon="22.1346975"><ele>168.75</ele><time>2026-04-29T08:10:44.981Z</time></trkpt><trkpt lat="38.1764201" lon="22.1346209"><ele>169.0</ele><time>2026-04-29T08:10:45.98Z</time></trkpt><trkpt lat="38.1763342" lon="22.1345265"><ele>169.0</ele><time>2026-04-29T08:10:46.981Z</time></trkpt><trkpt lat="38.176252" lon="22.1344175"><ele>169.0</ele><time>2026-04-29T08:10:47.98Z</time></trkpt><trkpt lat="38.1761802" lon="22.13429"><ele>169.0</ele><time>2026-04-29T08:10:48.98Z</time></trkpt><trkpt lat="38.1761036" lon="22.1341502"><ele>169.0</ele><time>2026-04-29T08:10:49.981Z</time></trkpt><trkpt lat="38.1760282" lon="22.1340001"><ele>171.5</ele><time>2026-04-29T08:10:50.98Z</time></trkpt><trkpt lat="38.175972" lon="22.1338563"><ele>174.0</ele><time>2026-04-29T08:10:51.981Z</time></trkpt><trkpt lat="38.1759289" lon="22.1337012"><ele>176.5</ele><time>2026-04-29T08:10:52.98Z</time></trkpt><trkpt lat="38.1759057" lon="22.1335535"><ele>179.0</ele><time>2026-04-29T08:10:53.981Z</time></trkpt><trkpt lat="38.1759027" lon="22.133423"><ele>179.0</ele><time>2026-04-29T08:10:54.981Z</time></trkpt><trkpt lat="38.1759242" lon="22.1332937"><ele>179.0</ele><time>2026-04-29T08:10:55.98Z</time></trkpt><trkpt lat="38.1759591" lon="22.1331602"><ele>179.0</ele><time>2026-04-29T08:10:56.98Z</time></trkpt><trkpt lat="38.1759814" lon="22.1330151"><ele>179.0</ele><time>2026-04-29T08:10:57.981Z</time></trkpt><trkpt lat="38.1759943" lon="22.1328947"><ele>179.0</ele><time>2026-04-29T08:10:58.981Z</time></trkpt><trkpt lat="38.1759993" lon="22.1328002"><ele>180.16666666666666</ele><time>2026-04-29T08:10:59.98Z</time></trkpt><trkpt lat="38.1759772" lon="22.132708"><ele>181.33333333333331</ele><time>2026-04-29T08:11:00.981Z</time></trkpt><trkpt lat="38.1759298" lon="22.1326191"><ele>182.5</ele><time>2026-04-29T08:11:01.981Z</time></trkpt><trkpt lat="38.1758764" lon="22.1325474"><ele>183.66666666666666</ele><time>2026-04-29T08:11:02.98Z</time></trkpt><trkpt lat="38.1758152" lon="22.1324733"><ele>184.83333333333334</ele><time>2026-04-29T08:11:03.98Z</time></trkpt><trkpt lat="38.175756" lon="22.1324243"><ele>186.0</ele><time>2026-04-29T08:11:04.981Z</time></trkpt><trkpt lat="38.1756898" lon="22.1324069"><ele>184.66666666666666</ele><time>2026-04-29T08:11:05.98Z</time></trkpt><trkpt lat="38.17562" lon="22.1324139"><ele>183.33333333333334</ele><time>2026-04-29T08:11:06.98Z</time></trkpt><trkpt lat="38.1755512" lon="22.1324611"><ele>182.0</ele><time>2026-04-29T08:11:07.98Z</time></trkpt><trkpt lat="38.1754709" lon="22.132501"><ele>180.66666666666669</ele><time>2026-04-29T08:11:08.981Z</time></trkpt><trkpt lat="38.175397" lon="22.1325078"><ele>179.33333333333334</ele><time>2026-04-29T08:11:09.981Z</time></trkpt><trkpt lat="38.1753113" lon="22.1324774"><ele>178.0</ele><time>2026-04-29T08:11:10.98Z</time></trkpt><trkpt lat="38.1752147" lon="22.1324335"><ele>184.0</ele><time>2026-04-29T08:11:11.981Z</time></trkpt><trkpt lat="38.1751309" lon="22.1323231"><ele>190.0</ele><time>2026-04-29T08:11:12.98Z</time></trkpt><trkpt lat="38.175029" lon="22.132199"><ele>196.0</ele><time>2026-04-29T08:11:13.98Z</time></trkpt><trkpt lat="38.174944" lon="22.1320588"><ele>202.0</ele><time>2026-04-29T08:11:14.98Z</time></trkpt><trkpt lat="38.1748684" lon="22.1319224"><ele>198.0</ele><time>2026-04-29T08:11:15.981Z</time></trkpt><trkpt lat="38.1747717" lon="22.1317855"><ele>194.0</ele><time>2026-04-29T08:11:16.98Z</time></trkpt><trkpt lat="38.1746802" lon="22.1316456"><ele>190.0</ele><time>2026-04-29T08:11:17.98Z</time></trkpt><trkpt lat="38.1746054" lon="22.1315037"><ele>186.0</ele><time>2026-04-29T08:11:18.98Z</time></trkpt><trkpt lat="38.1745366" lon="22.1313632"><ele>186.0</ele><time>2026-04-29T08:11:19.981Z</time></trkpt><trkpt lat="38.174486" lon="22.1312201"><ele>186.0</ele><time>2026-04-29T08:11:20.98Z</time></trkpt><trkpt lat="38.1744277" lon="22.1311003"><ele>186.0</ele><time>2026-04-29T08:11:21.98Z</time></trkpt><trkpt lat="38.174343" lon="22.131015"><ele>186.0</ele><time>2026-04-29T08:11:22.981Z</time></trkpt><trkpt lat="38.1742381" lon="22.1309664"><ele>186.0</ele><time>2026-04-29T08:11:23.98Z</time></trkpt><trkpt lat="38.1741351" lon="22.1309144"><ele>186.0</ele><time>2026-04-29T08:11:24.981Z</time></trkpt><trkpt lat="38.1740292" lon="22.1308384"><ele>186.0</ele><time>2026-04-29T08:11:25.981Z</time></trkpt><trkpt lat="38.1739259" lon="22.1307266"><ele>186.0</ele><time>2026-04-29T08:11:26.981Z</time></trkpt><trkpt lat="38.1738318" lon="22.1306092"><ele>185.75</ele><time>2026-04-29T08:11:27.98Z</time></trkpt><trkpt lat="38.1737139" lon="22.1305202"><ele>185.5</ele><time>2026-04-29T08:11:28.981Z</time></trkpt><trkpt lat="38.1736048" lon="22.1304514"><ele>185.25</ele><time>2026-04-29T08:11:29.981Z</time></trkpt><trkpt lat="38.1734989" lon="22.1303856"><ele>185.0</ele><time>2026-04-29T08:11:30.98Z</time></trkpt><trkpt lat="38.1734083" lon="22.1303198"><ele>185.0</ele><time>2026-04-29T08:11:31.981Z</time></trkpt><trkpt lat="38.1733202" lon="22.1302117"><ele>185.0</ele><time>2026-04-29T08:11:32.98Z</time></trkpt><trkpt lat="38.1732274" lon="22.1300801"><ele>185.0</ele><time>2026-04-29T08:11:33.98Z</time></trkpt><trkpt lat="38.17313" lon="22.1299376"><ele>185.0</ele><time>2026-04-29T08:11:34.981Z</time></trkpt><trkpt lat="38.1730111" lon="22.1298002"><ele>182.0</ele><time>2026-04-29T08:11:35.981Z</time></trkpt><trkpt lat="38.1728708" lon="22.1296542"><ele>179.0</ele><time>2026-04-29T08:11:36.981Z</time></trkpt><trkpt lat="38.1727339" lon="22.1295194"><ele>176.0</ele><time>2026-04-29T08:11:37.981Z</time></trkpt><trkpt lat="38.1725982" lon="22.1293916"><ele>176.0</ele><time>2026-04-29T08:11:38.981Z</time></trkpt><trkpt lat="38.1724617" lon="22.1292791"><ele>176.0</ele><time>2026-04-29T08:11:39.981Z</time></trkpt><trkpt lat="38.1723312" lon="22.1291721"><ele>176.0</ele><time>2026-04-29T08:11:40.981Z</time></trkpt><trkpt lat="38.1722071" lon="22.1290695"><ele>175.0</ele><time>2026-04-29T08:11:41.981Z</time></trkpt><trkpt lat="38.1720846" lon="22.12896"><ele>174.0</ele><time>2026-04-29T08:11:42.98Z</time></trkpt><trkpt lat="38.17196" lon="22.1288453"><ele>173.0</ele><time>2026-04-29T08:11:43.981Z</time></trkpt><trkpt lat="38.1718385" lon="22.128719"><ele>173.0</ele><time>2026-04-29T08:11:44.981Z</time></trkpt><trkpt lat="38.1717219" lon="22.1286047"><ele>173.0</ele><time>2026-04-29T08:11:45.98Z</time></trkpt><trkpt lat="38.1716136" lon="22.1284937"><ele>173.0</ele><time>2026-04-29T08:11:46.98Z</time></trkpt><trkpt lat="38.1715212" lon="22.1283777"><ele>173.0</ele><time>2026-04-29T08:11:47.98Z</time></trkpt><trkpt lat="38.171433" lon="22.1282533"><ele>174.0</ele><time>2026-04-29T08:11:48.98Z</time></trkpt><trkpt lat="38.17135" lon="22.1281407"><ele>175.0</ele><time>2026-04-29T08:11:49.981Z</time></trkpt><trkpt lat="38.1712659" lon="22.1280263"><ele>176.0</ele><time>2026-04-29T08:11:50.98Z</time></trkpt><trkpt lat="38.1711823" lon="22.1279318"><ele>177.0</ele><time>2026-04-29T08:11:51.981Z</time></trkpt><trkpt lat="38.171126" lon="22.1278283"><ele>177.0</ele><time>2026-04-29T08:11:52.981Z</time></trkpt><trkpt lat="38.1710771" lon="22.1277025"><ele>177.0</ele><time>2026-04-29T08:11:53.98Z</time></trkpt><trkpt lat="38.1710319" lon="22.1275579"><ele>177.0</ele><time>2026-04-29T08:11:54.98Z</time></trkpt><trkpt lat="38.1709817" lon="22.1273986"><ele>177.0</ele><time>2026-04-29T08:11:55.981Z</time></trkpt><trkpt lat="38.170922" lon="22.1272347"><ele>178.0</ele><time>2026-04-29T08:11:56.98Z</time></trkpt><trkpt lat="38.1708478" lon="22.1270685"><ele>179.0</ele><time>2026-04-29T08:11:57.981Z</time></trkpt><trkpt lat="38.1707807" lon="22.126905"><ele>180.0</ele><time>2026-04-29T08:11:58.98Z</time></trkpt><trkpt lat="38.1707158" lon="22.1267444"><ele>181.0</ele><time>2026-04-29T08:11:59.981Z</time></trkpt><trkpt lat="38.1706577" lon="22.1265899"><ele>180.75</ele><time>2026-04-29T08:12:00.98Z</time></trkpt><trkpt lat="38.1706018" lon="22.1264274"><ele>180.5</ele><time>2026-04-29T08:12:01.98Z</time></trkpt><trkpt lat="38.1705508" lon="22.126273"><ele>180.25</ele><time>2026-04-29T08:12:02.98Z</time></trkpt><trkpt lat="38.1704987" lon="22.1261285"><ele>180.0</ele><time>2026-04-29T08:12:03.98Z</time></trkpt><trkpt lat="38.1704475" lon="22.1259923"><ele>180.0</ele><time>2026-04-29T08:12:04.981Z</time></trkpt><trkpt lat="38.170378" lon="22.1258617"><ele>180.0</ele><time>2026-04-29T08:12:05.981Z</time></trkpt><trkpt lat="38.1702994" lon="22.1257394"><ele>180.0</ele><time>2026-04-29T08:12:06.981Z</time></trkpt><trkpt lat="38.1702152" lon="22.1256373"><ele>180.0</ele><time>2026-04-29T08:12:07.98Z</time></trkpt><trkpt lat="38.1701366" lon="22.1255461"><ele>180.75</ele><time>2026-04-29T08:12:08.981Z</time></trkpt><trkpt lat="38.1700402" lon="22.1254396"><ele>181.5</ele><time>2026-04-29T08:12:09.981Z</time></trkpt><trkpt lat="38.1699491" lon="22.1253406"><ele>182.25</ele><time>2026-04-29T08:12:10.981Z</time></trkpt><trkpt lat="38.1698741" lon="22.125243"><ele>183.0</ele><time>2026-04-29T08:12:11.98Z</time></trkpt><trkpt lat="38.169807" lon="22.125138"><ele>183.0</ele><time>2026-04-29T08:12:12.981Z</time></trkpt><trkpt lat="38.169748" lon="22.125029"><ele>183.0</ele><time>2026-04-29T08:12:13.981Z</time></trkpt><trkpt lat="38.1696812" lon="22.1249083"><ele>183.0</ele><time>2026-04-29T08:12:14.98Z</time></trkpt><trkpt lat="38.1696151" lon="22.1247793"><ele>183.0</ele><time>2026-04-29T08:12:15.981Z</time></trkpt><trkpt lat="38.1695503" lon="22.1246491"><ele>183.75</ele><time>2026-04-29T08:12:16.981Z</time></trkpt><trkpt lat="38.1694943" lon="22.12451"><ele>184.5</ele><time>2026-04-29T08:12:17.98Z</time></trkpt><trkpt lat="38.1694341" lon="22.124364"><ele>185.25</ele><time>2026-04-29T08:12:18.981Z</time></trkpt><trkpt lat="38.1693895" lon="22.1242102"><ele>186.0</ele><time>2026-04-29T08:12:19.98Z</time></trkpt><trkpt lat="38.1693413" lon="22.1240542"><ele>188.0</ele><time>2026-04-29T08:12:20.98Z</time></trkpt><trkpt lat="38.1692986" lon="22.1238917"><ele>190.0</ele><time>2026-04-29T08:12:21.981Z</time></trkpt><trkpt lat="38.169259" lon="22.1237248"><ele>192.0</ele><time>2026-04-29T08:12:22.981Z</time></trkpt><trkpt lat="38.1692202" lon="22.1235468"><ele>194.0</ele><time>2026-04-29T08:12:23.98Z</time></trkpt><trkpt lat="38.1691826" lon="22.1233651"><ele>197.33333333333334</ele><time>2026-04-29T08:12:24.981Z</time></trkpt><trkpt lat="38.1691377" lon="22.1231872"><ele>200.66666666666669</ele><time>2026-04-29T08:12:25.98Z</time></trkpt><trkpt lat="38.1690911" lon="22.1229938"><ele>204.0</ele><time>2026-04-29T08:12:26.981Z</time></trkpt><trkpt lat="38.1690408" lon="22.122807"><ele>203.33333333333331</ele><time>2026-04-29T08:12:27.981Z</time></trkpt><trkpt lat="38.1689835" lon="22.1226251"><ele>202.66666666666666</ele><time>2026-04-29T08:12:28.98Z</time></trkpt><trkpt lat="38.1689323" lon="22.1224417"><ele>202.0</ele><time>2026-04-29T08:12:29.98Z</time></trkpt><trkpt lat="38.1688922" lon="22.1222543"><ele>202.0</ele><time>2026-04-29T08:12:30.98Z</time></trkpt><trkpt lat="38.1688519" lon="22.1220735"><ele>202.0</ele><time>2026-04-29T08:12:31.98Z</time></trkpt><trkpt lat="38.1688166" lon="22.1218837"><ele>202.0</ele><time>2026-04-29T08:12:32.981Z</time></trkpt><trkpt lat="38.1687735" lon="22.1216824"><ele>204.0</ele><time>2026-04-29T08:12:33.98Z</time></trkpt><trkpt lat="38.1687352" lon="22.1214743"><ele>206.0</ele><time>2026-04-29T08:12:34.981Z</time></trkpt><trkpt lat="38.1686945" lon="22.121256"><ele>208.0</ele><time>2026-04-29T08:12:35.98Z</time></trkpt><trkpt lat="38.1686494" lon="22.1210428"><ele>208.0</ele><time>2026-04-29T08:12:36.981Z</time></trkpt><trkpt lat="38.1686063" lon="22.1208149"><ele>208.0</ele><time>2026-04-29T08:12:37.98Z</time></trkpt><trkpt lat="38.1685546" lon="22.120594"><ele>208.0</ele><time>2026-04-29T08:12:38.98Z</time></trkpt><trkpt lat="38.1684841" lon="22.1203766"><ele>215.33333333333331</ele><time>2026-04-29T08:12:39.981Z</time></trkpt><trkpt lat="38.1684195" lon="22.1201399"><ele>222.66666666666669</ele><time>2026-04-29T08:12:40.981Z</time></trkpt><trkpt lat="38.1683327" lon="22.1199411"><ele>230.0</ele><time>2026-04-29T08:12:41.981Z</time></trkpt><trkpt lat="38.1682471" lon="22.1197458"><ele>224.0</ele><time>2026-04-29T08:12:42.98Z</time></trkpt><trkpt lat="38.1681593" lon="22.1195595"><ele>218.0</ele><time>2026-04-29T08:12:43.981Z</time></trkpt><trkpt lat="38.1680843" lon="22.11938"><ele>212.0</ele><time>2026-04-29T08:12:44.981Z</time></trkpt><trkpt lat="38.1680284" lon="22.1191828"><ele>213.25</ele><time>2026-04-29T08:12:45.98Z</time></trkpt><trkpt lat="38.1679915" lon="22.118991"><ele>214.5</ele><time>2026-04-29T08:12:46.98Z</time></trkpt><trkpt lat="38.1679722" lon="22.1188026"><ele>215.75</ele><time>2026-04-29T08:12:47.981Z</time></trkpt><trkpt lat="38.1679648" lon="22.1186216"><ele>217.0</ele><time>2026-04-29T08:12:48.981Z</time></trkpt><trkpt lat="38.1679615" lon="22.1184364"><ele>218.33333333333331</ele><time>2026-04-29T08:12:49.98Z</time></trkpt><trkpt lat="38.1679683" lon="22.1182219"><ele>219.66666666666669</ele><time>2026-04-29T08:12:50.981Z</time></trkpt><trkpt lat="38.1679757" lon="22.1180124"><ele>221.0</ele><time>2026-04-29T08:12:51.981Z</time></trkpt><trkpt lat="38.167928" lon="22.1178132"><ele>221.0</ele><time>2026-04-29T08:12:52.98Z</time></trkpt><trkpt lat="38.1678527" lon="22.1176048"><ele>221.0</ele><time>2026-04-29T08:12:53.981Z</time></trkpt><trkpt lat="38.1677927" lon="22.1173998"><ele>221.0</ele><time>2026-04-29T08:12:54.98Z</time></trkpt><trkpt lat="38.167751" lon="22.1171908"><ele>223.66666666666669</ele><time>2026-04-29T08:12:55.98Z</time></trkpt><trkpt lat="38.1676934" lon="22.1169941"><ele>226.33333333333331</ele><time>2026-04-29T08:12:56.98Z</time></trkpt><trkpt lat="38.1676335" lon="22.116797"><ele>229.0</ele><time>2026-04-29T08:12:57.981Z</time></trkpt><trkpt lat="38.1675375" lon="22.1166229"><ele>227.0</ele><time>2026-04-29T08:12:58.98Z</time></trkpt><trkpt lat="38.1674452" lon="22.1164431"><ele>225.0</ele><time>2026-04-29T08:12:59.981Z</time></trkpt><trkpt lat="38.1673353" lon="22.1162866"><ele>223.0</ele><time>2026-04-29T08:13:00.981Z</time></trkpt><trkpt lat="38.1672331" lon="22.1161225"><ele>223.0</ele><time>2026-04-29T08:13:01.981Z</time></trkpt><trkpt lat="38.1671308" lon="22.1159816"><ele>223.0</ele><time>2026-04-29T08:13:02.98Z</time></trkpt><trkpt lat="38.1670389" lon="22.115825"><ele>223.0</ele><time>2026-04-29T08:13:03.981Z</time></trkpt><trkpt lat="38.1669643" lon="22.1156462"><ele>226.0</ele><time>2026-04-29T08:13:04.98Z</time></trkpt><trkpt lat="38.166897" lon="22.1154594"><ele>229.0</ele><time>2026-04-29T08:13:05.98Z</time></trkpt><trkpt lat="38.1668355" lon="22.1152578"><ele>232.0</ele><time>2026-04-29T08:13:06.981Z</time></trkpt><trkpt lat="38.166784" lon="22.1150527"><ele>232.33333333333331</ele><time>2026-04-29T08:13:07.981Z</time></trkpt><trkpt lat="38.1667567" lon="22.114851"><ele>232.66666666666669</ele><time>2026-04-29T08:13:08.98Z</time></trkpt><trkpt lat="38.1667235" lon="22.1146536"><ele>233.0</ele><time>2026-04-29T08:13:09.981Z</time></trkpt><trkpt lat="38.166707" lon="22.1144758"><ele>233.0</ele><time>2026-04-29T08:13:10.981Z</time></trkpt><trkpt lat="38.1667099" lon="22.1143146"><ele>233.0</ele><time>2026-04-29T08:13:11.981Z</time></trkpt><trkpt lat="38.166728" lon="22.1141703"><ele>233.0</ele><time>2026-04-29T08:13:12.981Z</time></trkpt><trkpt lat="38.1667989" lon="22.1140591"><ele>233.0</ele><time>2026-04-29T08:13:13.98Z</time></trkpt><trkpt lat="38.1669158" lon="22.1139693"><ele>233.0</ele><time>2026-04-29T08:13:14.981Z</time></trkpt><trkpt lat="38.1670199" lon="22.1138533"><ele>233.0</ele><time>2026-04-29T08:13:15.98Z</time></trkpt><trkpt lat="38.1671091" lon="22.1137377"><ele>233.0</ele><time>2026-04-29T08:13:16.98Z</time></trkpt><trkpt lat="38.1671888" lon="22.1135869"><ele>233.0</ele><time>2026-04-29T08:13:17.98Z</time></trkpt><trkpt lat="38.1672529" lon="22.1134349"><ele>233.0</ele><time>2026-04-29T08:13:18.981Z</time></trkpt><trkpt lat="38.1673072" lon="22.1132677"><ele>233.0</ele><time>2026-04-29T08:13:19.98Z</time></trkpt><trkpt lat="38.1673405" lon="22.1130878"><ele>233.0</ele><time>2026-04-29T08:13:20.981Z</time></trkpt><trkpt lat="38.1673676" lon="22.1129086"><ele>233.0</ele><time>2026-04-29T08:13:21.98Z</time></trkpt><trkpt lat="38.1674031" lon="22.1127263"><ele>233.25</ele><time>2026-04-29T08:13:22.98Z</time></trkpt><trkpt lat="38.1674523" lon="22.1125463"><ele>233.5</ele><time>2026-04-29T08:13:23.98Z</time></trkpt><trkpt lat="38.1675054" lon="22.1123775"><ele>233.75</ele><time>2026-04-29T08:13:24.981Z</time></trkpt><trkpt lat="38.1675661" lon="22.1122331"><ele>234.0</ele><time>2026-04-29T08:13:25.98Z</time></trkpt><trkpt lat="38.1676179" lon="22.112091"><ele>234.0</ele><time>2026-04-29T08:13:26.98Z</time></trkpt><trkpt lat="38.1676701" lon="22.111935"><ele>234.0</ele><time>2026-04-29T08:13:27.98Z</time></trkpt><trkpt lat="38.1677296" lon="22.1117773"><ele>234.0</ele><time>2026-04-29T08:13:28.98Z</time></trkpt><trkpt lat="38.1677814" lon="22.1116081"><ele>234.0</ele><time>2026-04-29T08:13:29.98Z</time></trkpt><trkpt lat="38.1678119" lon="22.1114374"><ele>235.0</ele><time>2026-04-29T08:13:30.981Z</time></trkpt><trkpt lat="38.1678173" lon="22.1112529"><ele>236.0</ele><time>2026-04-29T08:13:31.98Z</time></trkpt><trkpt lat="38.1678015" lon="22.1110654"><ele>237.0</ele><time>2026-04-29T08:13:32.981Z</time></trkpt><trkpt lat="38.1677651" lon="22.1108767"><ele>238.0</ele><time>2026-04-29T08:13:33.98Z</time></trkpt><trkpt lat="38.1677199" lon="22.110693"><ele>240.33333333333331</ele><time>2026-04-29T08:13:34.98Z</time></trkpt><trkpt lat="38.1676718" lon="22.1104944"><ele>242.66666666666669</ele><time>2026-04-29T08:13:35.981Z</time></trkpt><trkpt lat="38.1676156" lon="22.1102906"><ele>245.0</ele><time>2026-04-29T08:13:36.98Z</time></trkpt><trkpt lat="38.1675609" lon="22.1100694"><ele>263.6666666666667</ele><time>2026-04-29T08:13:37.981Z</time></trkpt><trkpt lat="38.1675036" lon="22.1098494"><ele>282.3333333333333</ele><time>2026-04-29T08:13:38.98Z</time></trkpt><trkpt lat="38.167448" lon="22.1096222"><ele>301.0</ele><time>2026-04-29T08:13:39.98Z</time></trkpt><trkpt lat="38.1673929" lon="22.1093917"><ele>286.0</ele><time>2026-04-29T08:13:40.981Z</time></trkpt><trkpt lat="38.1673283" lon="22.1091665"><ele>271.0</ele><time>2026-04-29T08:13:41.98Z</time></trkpt><trkpt lat="38.1672512" lon="22.1089321"><ele>256.0</ele><time>2026-04-29T08:13:42.98Z</time></trkpt><trkpt lat="38.1671614" lon="22.1087128"><ele>256.0</ele><time>2026-04-29T08:13:43.98Z</time></trkpt><trkpt lat="38.167069" lon="22.1085045"><ele>256.0</ele><time>2026-04-29T08:13:44.981Z</time></trkpt><trkpt lat="38.1669846" lon="22.1083011"><ele>256.0</ele><time>2026-04-29T08:13:45.981Z</time></trkpt><trkpt lat="38.1668941" lon="22.1081058"><ele>264.0</ele><time>2026-04-29T08:13:46.981Z</time></trkpt><trkpt lat="38.1668246" lon="22.107925"><ele>272.0</ele><time>2026-04-29T08:13:47.981Z</time></trkpt><trkpt lat="38.1667557" lon="22.1077393"><ele>280.0</ele><time>2026-04-29T08:13:48.98Z</time></trkpt><trkpt lat="38.1666821" lon="22.1075814"><ele>280.0</ele><time>2026-04-29T08:13:49.98Z</time></trkpt><trkpt lat="38.1666081" lon="22.1074222"><ele>280.0</ele><time>2026-04-29T08:13:50.981Z</time></trkpt><trkpt lat="38.1665215" lon="22.1072669"><ele>280.0</ele><time>2026-04-29T08:13:51.981Z</time></trkpt><trkpt lat="38.1664264" lon="22.107109"><ele>273.66666666666663</ele><time>2026-04-29T08:13:52.981Z</time></trkpt><trkpt lat="38.1663302" lon="22.106961"><ele>267.3333333333333</ele><time>2026-04-29T08:13:53.98Z</time></trkpt><trkpt lat="38.1662306" lon="22.1068132"><ele>261.0</ele><time>2026-04-29T08:13:54.981Z</time></trkpt><trkpt lat="38.1661415" lon="22.1066644"><ele>262.0</ele><time>2026-04-29T08:13:55.98Z</time></trkpt><trkpt lat="38.1660519" lon="22.1065159"><ele>263.0</ele><time>2026-04-29T08:13:56.98Z</time></trkpt><trkpt lat="38.1659568" lon="22.106376"><ele>264.0</ele><time>2026-04-29T08:13:57.98Z</time></trkpt><trkpt lat="38.1658597" lon="22.1062413"><ele>265.0</ele><time>2026-04-29T08:13:58.98Z</time></trkpt><trkpt lat="38.1657512" lon="22.1061129"><ele>265.0</ele><time>2026-04-29T08:13:59.981Z</time></trkpt><trkpt lat="38.16564" lon="22.1059857"><ele>265.0</ele><time>2026-04-29T08:14:00.981Z</time></trkpt><trkpt lat="38.1655264" lon="22.1058655"><ele>265.0</ele><time>2026-04-29T08:14:01.981Z</time></trkpt><trkpt lat="38.1654107" lon="22.1057469"><ele>265.0</ele><time>2026-04-29T08:14:02.98Z</time></trkpt><trkpt lat="38.165287" lon="22.1056271"><ele>266.66666666666663</ele><time>2026-04-29T08:14:03.981Z</time></trkpt><trkpt lat="38.1651637" lon="22.1055128"><ele>268.3333333333333</ele><time>2026-04-29T08:14:04.98Z</time></trkpt><trkpt lat="38.1650267" lon="22.1054111"><ele>270.0</ele><time>2026-04-29T08:14:05.981Z</time></trkpt><trkpt lat="38.1648809" lon="22.1053375"><ele>271.0</ele><time>2026-04-29T08:14:06.98Z</time></trkpt><trkpt lat="38.1647325" lon="22.1052805"><ele>272.0</ele><time>2026-04-29T08:14:07.981Z</time></trkpt><trkpt lat="38.1645818" lon="22.1052193"><ele>273.0</ele><time>2026-04-29T08:14:08.981Z</time></trkpt><trkpt lat="38.1644263" lon="22.1051291"><ele>273.0</ele><time>2026-04-29T08:14:09.981Z</time></trkpt><trkpt lat="38.1642648" lon="22.1050289"><ele>273.0</ele><time>2026-04-29T08:14:10.98Z</time></trkpt><trkpt lat="38.1641034" lon="22.1048898"><ele>273.0</ele><time>2026-04-29T08:14:11.981Z</time></trkpt><trkpt lat="38.1639421" lon="22.1047677"><ele>274.3333333333333</ele><time>2026-04-29T08:14:12.981Z</time></trkpt><trkpt lat="38.1637763" lon="22.1046455"><ele>275.66666666666663</ele><time>2026-04-29T08:14:13.981Z</time></trkpt><trkpt lat="38.1636142" lon="22.1045336"><ele>277.0</ele><time>2026-04-29T08:14:14.981Z</time></trkpt><trkpt lat="38.1634543" lon="22.1044201"><ele>277.0</ele><time>2026-04-29T08:14:15.98Z</time></trkpt><trkpt lat="38.1632941" lon="22.1043084"><ele>277.0</ele><time>2026-04-29T08:14:16.981Z</time></trkpt><trkpt lat="38.163142" lon="22.1041899"><ele>277.0</ele><time>2026-04-29T08:14:17.98Z</time></trkpt><trkpt lat="38.1629874" lon="22.1040805"><ele>282.66666666666663</ele><time>2026-04-29T08:14:18.981Z</time></trkpt><trkpt lat="38.1628393" lon="22.1039918"><ele>288.3333333333333</ele><time>2026-04-29T08:14:19.98Z</time></trkpt><trkpt lat="38.1627011" lon="22.1039122"><ele>294.0</ele><time>2026-04-29T08:14:20.98Z</time></trkpt><trkpt lat="38.162566" lon="22.1038442"><ele>294.0</ele><time>2026-04-29T08:14:21.98Z</time></trkpt><trkpt lat="38.1624192" lon="22.1037941"><ele>294.0</ele><time>2026-04-29T08:14:22.98Z</time></trkpt><trkpt lat="38.1622731" lon="22.1037599"><ele>294.0</ele><time>2026-04-29T08:14:23.981Z</time></trkpt><trkpt lat="38.1621408" lon="22.1037186"><ele>294.0</ele><time>2026-04-29T08:14:24.98Z</time></trkpt><trkpt lat="38.1620267" lon="22.1036677"><ele>293.8</ele><time>2026-04-29T08:14:25.981Z</time></trkpt><trkpt lat="38.1619314" lon="22.1035882"><ele>293.59999999999997</ele><time>2026-04-29T08:14:26.98Z</time></trkpt><trkpt lat="38.1618778" lon="22.1034832"><ele>293.4</ele><time>2026-04-29T08:14:27.98Z</time></trkpt><trkpt lat="38.1618308" lon="22.1033592"><ele>293.2</ele><time>2026-04-29T08:14:28.981Z</time></trkpt><trkpt lat="38.1617734" lon="22.1032217"><ele>293.0</ele><time>2026-04-29T08:14:29.981Z</time></trkpt><trkpt lat="38.1617009" lon="22.1030732"><ele>294.0</ele><time>2026-04-29T08:14:30.981Z</time></trkpt><trkpt lat="38.1616254" lon="22.1029347"><ele>295.0</ele><time>2026-04-29T08:14:31.981Z</time></trkpt><trkpt lat="38.1615595" lon="22.1027897"><ele>296.0</ele><time>2026-04-29T08:14:32.98Z</time></trkpt><trkpt lat="38.1614979" lon="22.1026642"><ele>297.0</ele><time>2026-04-29T08:14:33.981Z</time></trkpt><trkpt lat="38.1614359" lon="22.1025641"><ele>297.0</ele><time>2026-04-29T08:14:34.981Z</time></trkpt><trkpt lat="38.161376" lon="22.102482"><ele>297.0</ele><time>2026-04-29T08:14:35.98Z</time></trkpt><trkpt lat="38.1613238" lon="22.1023968"><ele>297.0</ele><time>2026-04-29T08:14:36.981Z</time></trkpt><trkpt lat="38.1612908" lon="22.102306"><ele>297.0</ele><time>2026-04-29T08:14:37.98Z</time></trkpt><trkpt lat="38.1612905" lon="22.102225"><ele>297.0</ele><time>2026-04-29T08:14:38.98Z</time></trkpt><trkpt lat="38.1613672" lon="22.1021497"><ele>297.0</ele><time>2026-04-29T08:14:40.98Z</time></trkpt><trkpt lat="38.1614362" lon="22.1021657"><ele>297.1666666666667</ele><time>2026-04-29T08:14:41.98Z</time></trkpt><trkpt lat="38.1615064" lon="22.1022196"><ele>297.3333333333333</ele><time>2026-04-29T08:14:42.98Z</time></trkpt><trkpt lat="38.16157" lon="22.1022946"><ele>297.5</ele><time>2026-04-29T08:14:43.981Z</time></trkpt><trkpt lat="38.1616401" lon="22.1023715"><ele>297.66666666666663</ele><time>2026-04-29T08:14:44.981Z</time></trkpt><trkpt lat="38.1617089" lon="22.102445"><ele>297.8333333333333</ele><time>2026-04-29T08:14:45.981Z</time></trkpt><trkpt lat="38.1617811" lon="22.1025134"><ele>298.0</ele><time>2026-04-29T08:14:46.98Z</time></trkpt><trkpt lat="38.1618564" lon="22.1025816"><ele>298.0</ele><time>2026-04-29T08:14:47.981Z</time></trkpt><trkpt lat="38.1619291" lon="22.1026282"><ele>298.0</ele><time>2026-04-29T08:14:48.981Z</time></trkpt><trkpt lat="38.1619946" lon="22.1026572"><ele>298.0</ele><time>2026-04-29T08:14:49.981Z</time></trkpt><trkpt lat="38.1620937" lon="22.1026216"><ele>298.0</ele><time>2026-04-29T08:14:51.98Z</time></trkpt><trkpt lat="38.162083" lon="22.1024813"><ele>298.0</ele><time>2026-04-29T08:14:53.98Z</time></trkpt><trkpt lat="38.1620387" lon="22.1024"><ele>298.0</ele><time>2026-04-29T08:14:54.981Z</time></trkpt><trkpt lat="38.1619773" lon="22.1023236"><ele>299.66666666666663</ele><time>2026-04-29T08:14:55.981Z</time></trkpt><trkpt lat="38.1619155" lon="22.1022454"><ele>301.3333333333333</ele><time>2026-04-29T08:14:56.981Z</time></trkpt><trkpt lat="38.1618565" lon="22.102152"><ele>303.0</ele><time>2026-04-29T08:14:57.981Z</time></trkpt><trkpt lat="38.1618029" lon="22.1020653"><ele>304.6666666666667</ele><time>2026-04-29T08:14:58.98Z</time></trkpt><trkpt lat="38.1617523" lon="22.101984"><ele>306.33333333333337</ele><time>2026-04-29T08:14:59.98Z</time></trkpt><trkpt lat="38.161718" lon="22.1018907"><ele>308.0</ele><time>2026-04-29T08:15:00.981Z</time></trkpt><trkpt lat="38.161701" lon="22.1017814"><ele>308.0</ele><time>2026-04-29T08:15:01.98Z</time></trkpt><trkpt lat="38.161708" lon="22.1016604"><ele>308.0</ele><time>2026-04-29T08:15:02.98Z</time></trkpt><trkpt lat="38.1617258" lon="22.1015472"><ele>308.0</ele><time>2026-04-29T08:15:03.98Z</time></trkpt><trkpt lat="38.1617636" lon="22.1014411"><ele>308.0</ele><time>2026-04-29T08:15:04.98Z</time></trkpt><trkpt lat="38.1618029" lon="22.1013424"><ele>308.0</ele><time>2026-04-29T08:15:05.981Z</time></trkpt><trkpt lat="38.1618243" lon="22.1012463"><ele>308.0</ele><time>2026-04-29T08:15:06.98Z</time></trkpt><trkpt lat="38.1618217" lon="22.1011534"><ele>308.6666666666667</ele><time>2026-04-29T08:15:07.98Z</time></trkpt><trkpt lat="38.1617815" lon="22.1010808"><ele>309.33333333333337</ele><time>2026-04-29T08:15:08.981Z</time></trkpt><trkpt lat="38.1617245" lon="22.1010149"><ele>310.0</ele><time>2026-04-29T08:15:09.981Z</time></trkpt><trkpt lat="38.1616433" lon="22.1009745"><ele>310.6666666666667</ele><time>2026-04-29T08:15:10.98Z</time></trkpt><trkpt lat="38.1615531" lon="22.1009483"><ele>311.3333333333333</ele><time>2026-04-29T08:15:11.98Z</time></trkpt><trkpt lat="38.1614751" lon="22.1009314"><ele>312.0</ele><time>2026-04-29T08:15:12.98Z</time></trkpt><trkpt lat="38.1614091" lon="22.1009153"><ele>313.2</ele><time>2026-04-29T08:15:13.981Z</time></trkpt><trkpt lat="38.1613463" lon="22.1008815"><ele>314.4</ele><time>2026-04-29T08:15:14.981Z</time></trkpt><trkpt lat="38.1612339" lon="22.1007892"><ele>315.6</ele><time>2026-04-29T08:15:16.98Z</time></trkpt><trkpt lat="38.1611509" lon="22.1007757"><ele>316.8</ele><time>2026-04-29T08:15:17.98Z</time></trkpt><trkpt lat="38.1610589" lon="22.1007806"><ele>318.0</ele><time>2026-04-29T08:15:18.981Z</time></trkpt><trkpt lat="38.1609581" lon="22.1007938"><ele>318.0</ele><time>2026-04-29T08:15:19.981Z</time></trkpt><trkpt lat="38.1608579" lon="22.100794"><ele>318.0</ele><time>2026-04-29T08:15:20.981Z</time></trkpt><trkpt lat="38.1607483" lon="22.1007845"><ele>318.0</ele><time>2026-04-29T08:15:21.98Z</time></trkpt><trkpt lat="38.1606389" lon="22.1007846"><ele>318.0</ele><time>2026-04-29T08:15:22.98Z</time></trkpt><trkpt lat="38.1605283" lon="22.1007934"><ele>318.0</ele><time>2026-04-29T08:15:23.981Z</time></trkpt><trkpt lat="38.1604338" lon="22.1008135"><ele>318.6</ele><time>2026-04-29T08:15:24.98Z</time></trkpt><trkpt lat="38.1603404" lon="22.1008307"><ele>319.20000000000005</ele><time>2026-04-29T08:15:25.981Z</time></trkpt><trkpt lat="38.1602513" lon="22.100833"><ele>319.8</ele><time>2026-04-29T08:15:26.981Z</time></trkpt><trkpt lat="38.1601588" lon="22.1007974"><ele>320.40000000000003</ele><time>2026-04-29T08:15:27.981Z</time></trkpt><trkpt lat="38.1600663" lon="22.1007459"><ele>321.0</ele><time>2026-04-29T08:15:28.981Z</time></trkpt><trkpt lat="38.1599728" lon="22.1006572"><ele>323.20000000000005</ele><time>2026-04-29T08:15:29.98Z</time></trkpt><trkpt lat="38.159888" lon="22.100559"><ele>325.40000000000003</ele><time>2026-04-29T08:15:30.98Z</time></trkpt><trkpt lat="38.1598214" lon="22.1004541"><ele>327.6</ele><time>2026-04-29T08:15:31.981Z</time></trkpt><trkpt lat="38.1597589" lon="22.1003349"><ele>329.8</ele><time>2026-04-29T08:15:32.981Z</time></trkpt><trkpt lat="38.1596743" lon="22.1002589"><ele>332.0</ele><time>2026-04-29T08:15:33.98Z</time></trkpt><trkpt lat="38.1595775" lon="22.1002128"><ele>332.0</ele><time>2026-04-29T08:15:34.98Z</time></trkpt><trkpt lat="38.1594657" lon="22.1001687"><ele>332.0</ele><time>2026-04-29T08:15:35.981Z</time></trkpt><trkpt lat="38.1593501" lon="22.1001242"><ele>332.0</ele><time>2026-04-29T08:15:36.981Z</time></trkpt><trkpt lat="38.1592397" lon="22.1000768"><ele>332.0</ele><time>2026-04-29T08:15:37.98Z</time></trkpt><trkpt lat="38.1591424" lon="22.0999893"><ele>338.25</ele><time>2026-04-29T08:15:38.98Z</time></trkpt><trkpt lat="38.1590294" lon="22.0998824"><ele>344.5</ele><time>2026-04-29T08:15:39.981Z</time></trkpt><trkpt lat="38.1589129" lon="22.0997792"><ele>350.75</ele><time>2026-04-29T08:15:40.981Z</time></trkpt><trkpt lat="38.1587867" lon="22.0996686"><ele>357.0</ele><time>2026-04-29T08:15:41.98Z</time></trkpt><trkpt lat="38.1586547" lon="22.0995731"><ele>357.0</ele><time>2026-04-29T08:15:42.981Z</time></trkpt><trkpt lat="38.1585176" lon="22.0994886"><ele>357.0</ele><time>2026-04-29T08:15:43.98Z</time></trkpt><trkpt lat="38.1583716" lon="22.099407"><ele>357.0</ele><time>2026-04-29T08:15:44.981Z</time></trkpt><trkpt lat="38.1582261" lon="22.0993342"><ele>354.6666666666667</ele><time>2026-04-29T08:15:45.98Z</time></trkpt><trkpt lat="38.1580795" lon="22.0992557"><ele>352.33333333333337</ele><time>2026-04-29T08:15:46.981Z</time></trkpt><trkpt lat="38.1579423" lon="22.0991654"><ele>350.0</ele><time>2026-04-29T08:15:47.981Z</time></trkpt><trkpt lat="38.1578083" lon="22.0990806"><ele>358.5</ele><time>2026-04-29T08:15:48.98Z</time></trkpt><trkpt lat="38.1576848" lon="22.0990048"><ele>367.0</ele><time>2026-04-29T08:15:49.981Z</time></trkpt><trkpt lat="38.1575677" lon="22.0989293"><ele>375.5</ele><time>2026-04-29T08:15:50.98Z</time></trkpt><trkpt lat="38.1574581" lon="22.0988489"><ele>384.0</ele><time>2026-04-29T08:15:51.98Z</time></trkpt><trkpt lat="38.1573868" lon="22.0987718"><ele>382.0</ele><time>2026-04-29T08:15:52.981Z</time></trkpt><trkpt lat="38.1573165" lon="22.0987026"><ele>380.0</ele><time>2026-04-29T08:15:53.981Z</time></trkpt><trkpt lat="38.1572441" lon="22.0986445"><ele>378.0</ele><time>2026-04-29T08:15:54.981Z</time></trkpt><trkpt lat="38.1571747" lon="22.0986103"><ele>376.0</ele><time>2026-04-29T08:15:55.98Z</time></trkpt><trkpt lat="38.1571118" lon="22.0985893"><ele>374.0</ele><time>2026-04-29T08:15:56.98Z</time></trkpt><trkpt lat="38.1569998" lon="22.0985327"><ele>372.0</ele><time>2026-04-29T08:15:58.98Z</time></trkpt><trkpt lat="38.1569418" lon="22.0984759"><ele>372.0</ele><time>2026-04-29T08:15:59.981Z</time></trkpt><trkpt lat="38.1569145" lon="22.098403"><ele>372.0</ele><time>2026-04-29T08:16:00.98Z</time></trkpt><trkpt lat="38.1569419" lon="22.0982777"><ele>372.0</ele><time>2026-04-29T08:16:02.98Z</time></trkpt><trkpt lat="38.1570483" lon="22.0982079"><ele>372.0</ele><time>2026-04-29T08:16:04.98Z</time></trkpt><trkpt lat="38.1571234" lon="22.0982431"><ele>372.0</ele><time>2026-04-29T08:16:05.98Z</time></trkpt><trkpt lat="38.1572016" lon="22.0983"><ele>372.0</ele><time>2026-04-29T08:16:06.981Z</time></trkpt><trkpt lat="38.1572818" lon="22.0983616"><ele>372.0</ele><time>2026-04-29T08:16:07.981Z</time></trkpt><trkpt lat="38.1573688" lon="22.0984214"><ele>372.0</ele><time>2026-04-29T08:16:08.981Z</time></trkpt><trkpt lat="38.1574786" lon="22.0984585"><ele>372.0</ele><time>2026-04-29T08:16:09.98Z</time></trkpt><trkpt lat="38.157601" lon="22.0984833"><ele>372.0</ele><time>2026-04-29T08:16:10.98Z</time></trkpt><trkpt lat="38.1577329" lon="22.0984945"><ele>374.40000000000003</ele><time>2026-04-29T08:16:11.981Z</time></trkpt><trkpt lat="38.1578524" lon="22.0985132"><ele>376.8</ele><time>2026-04-29T08:16:12.98Z</time></trkpt><trkpt lat="38.1579588" lon="22.0985352"><ele>379.2</ele><time>2026-04-29T08:16:13.981Z</time></trkpt><trkpt lat="38.1580556" lon="22.0985572"><ele>381.6</ele><time>2026-04-29T08:16:14.98Z</time></trkpt><trkpt lat="38.1581415" lon="22.0985797"><ele>384.0</ele><time>2026-04-29T08:16:15.98Z</time></trkpt><trkpt lat="38.1582246" lon="22.0985918"><ele>385.8333333333333</ele><time>2026-04-29T08:16:16.98Z</time></trkpt><trkpt lat="38.1583033" lon="22.0986227"><ele>387.66666666666663</ele><time>2026-04-29T08:16:17.981Z</time></trkpt><trkpt lat="38.1583873" lon="22.0986298"><ele>389.5</ele><time>2026-04-29T08:16:18.98Z</time></trkpt><trkpt lat="38.1584731" lon="22.0986239"><ele>391.3333333333333</ele><time>2026-04-29T08:16:19.981Z</time></trkpt><trkpt lat="38.1585645" lon="22.0986057"><ele>393.16666666666663</ele><time>2026-04-29T08:16:20.98Z</time></trkpt><trkpt lat="38.1586626" lon="22.0985834"><ele>395.0</ele><time>2026-04-29T08:16:21.981Z</time></trkpt><trkpt lat="38.158763" lon="22.0985673"><ele>395.0</ele><time>2026-04-29T08:16:22.981Z</time></trkpt><trkpt lat="38.1588702" lon="22.098558"><ele>395.0</ele><time>2026-04-29T08:16:23.98Z</time></trkpt><trkpt lat="38.1589755" lon="22.098548"><ele>395.0</ele><time>2026-04-29T08:16:24.981Z</time></trkpt><trkpt lat="38.1590821" lon="22.0985416"><ele>395.0</ele><time>2026-04-29T08:16:25.981Z</time></trkpt><trkpt lat="38.1591957" lon="22.0985419"><ele>395.0</ele><time>2026-04-29T08:16:26.981Z</time></trkpt><trkpt lat="38.1593125" lon="22.0985375"><ele>396.75</ele><time>2026-04-29T08:16:27.981Z</time></trkpt><trkpt lat="38.1594313" lon="22.0985253"><ele>398.5</ele><time>2026-04-29T08:16:28.981Z</time></trkpt><trkpt lat="38.15955" lon="22.0985245"><ele>400.25</ele><time>2026-04-29T08:16:29.98Z</time></trkpt><trkpt lat="38.1596715" lon="22.098532"><ele>402.0</ele><time>2026-04-29T08:16:30.981Z</time></trkpt><trkpt lat="38.1597709" lon="22.0985323"><ele>401.0</ele><time>2026-04-29T08:16:31.981Z</time></trkpt><trkpt lat="38.1598671" lon="22.0985073"><ele>400.0</ele><time>2026-04-29T08:16:32.981Z</time></trkpt><trkpt lat="38.1599637" lon="22.0984509"><ele>399.0</ele><time>2026-04-29T08:16:33.98Z</time></trkpt><trkpt lat="38.1600624" lon="22.0983654"><ele>398.0</ele><time>2026-04-29T08:16:34.98Z</time></trkpt><trkpt lat="38.1601664" lon="22.0982816"><ele>397.0</ele><time>2026-04-29T08:16:35.98Z</time></trkpt><trkpt lat="38.1602714" lon="22.0981991"><ele>398.6</ele><time>2026-04-29T08:16:36.981Z</time></trkpt><trkpt lat="38.16038" lon="22.0981511"><ele>400.20000000000005</ele><time>2026-04-29T08:16:37.98Z</time></trkpt><trkpt lat="38.1604833" lon="22.0981226"><ele>401.8</ele><time>2026-04-29T08:16:38.981Z</time></trkpt><trkpt lat="38.1605786" lon="22.0981195"><ele>403.4</ele><time>2026-04-29T08:16:39.98Z</time></trkpt><trkpt lat="38.1606595" lon="22.0981481"><ele>405.0</ele><time>2026-04-29T08:16:40.98Z</time></trkpt><trkpt lat="38.1607314" lon="22.0981925"><ele>405.0</ele><time>2026-04-29T08:16:41.981Z</time></trkpt><trkpt lat="38.1607984" lon="22.0982171"><ele>405.0</ele><time>2026-04-29T08:16:42.98Z</time></trkpt><trkpt lat="38.1608661" lon="22.0982078"><ele>405.0</ele><time>2026-04-29T08:16:43.98Z</time></trkpt><trkpt lat="38.1609686" lon="22.0980797"><ele>405.0</ele><time>2026-04-29T08:16:45.981Z</time></trkpt><trkpt lat="38.1609977" lon="22.097963"><ele>405.0</ele><time>2026-04-29T08:16:46.98Z</time></trkpt><trkpt lat="38.1610207" lon="22.0978269"><ele>405.0</ele><time>2026-04-29T08:16:47.98Z</time></trkpt><trkpt lat="38.1610388" lon="22.0976676"><ele>405.0</ele><time>2026-04-29T08:16:48.98Z</time></trkpt><trkpt lat="38.1610573" lon="22.0974992"><ele>405.0</ele><time>2026-04-29T08:16:49.981Z</time></trkpt><trkpt lat="38.1610783" lon="22.0973227"><ele>405.0</ele><time>2026-04-29T08:16:50.98Z</time></trkpt><trkpt lat="38.1611027" lon="22.0971477"><ele>410.0</ele><time>2026-04-29T08:16:51.98Z</time></trkpt><trkpt lat="38.161125" lon="22.0969867"><ele>415.0</ele><time>2026-04-29T08:16:52.981Z</time></trkpt><trkpt lat="38.1611412" lon="22.0968343"><ele>420.0</ele><time>2026-04-29T08:16:53.981Z</time></trkpt><trkpt lat="38.161153" lon="22.0966782"><ele>425.0</ele><time>2026-04-29T08:16:54.981Z</time></trkpt><trkpt lat="38.161158" lon="22.0965404"><ele>427.16666666666663</ele><time>2026-04-29T08:16:55.981Z</time></trkpt><trkpt lat="38.161158" lon="22.09641"><ele>429.3333333333333</ele><time>2026-04-29T08:16:56.981Z</time></trkpt><trkpt lat="38.1611598" lon="22.0962892"><ele>431.5</ele><time>2026-04-29T08:16:57.98Z</time></trkpt><trkpt lat="38.161168" lon="22.0961897"><ele>433.66666666666663</ele><time>2026-04-29T08:16:58.98Z</time></trkpt><trkpt lat="38.1611747" lon="22.0961086"><ele>435.8333333333333</ele><time>2026-04-29T08:16:59.981Z</time></trkpt><trkpt lat="38.1611667" lon="22.0959708"><ele>438.0</ele><time>2026-04-29T08:17:01.981Z</time></trkpt><trkpt lat="38.1610824" lon="22.0959595"><ele>438.0</ele><time>2026-04-29T08:17:03.981Z</time></trkpt><trkpt lat="38.1610313" lon="22.0961032"><ele>438.0</ele><time>2026-04-29T08:17:05.98Z</time></trkpt><trkpt lat="38.1610062" lon="22.0962287"><ele>438.0</ele><time>2026-04-29T08:17:06.98Z</time></trkpt><trkpt lat="38.1609711" lon="22.0963713"><ele>438.0</ele><time>2026-04-29T08:17:07.98Z</time></trkpt><trkpt lat="38.160931" lon="22.0965211"><ele>434.75</ele><time>2026-04-29T08:17:08.981Z</time></trkpt><trkpt lat="38.1608749" lon="22.0966573"><ele>431.5</ele><time>2026-04-29T08:17:09.981Z</time></trkpt><trkpt lat="38.1608286" lon="22.0967928"><ele>428.25</ele><time>2026-04-29T08:17:10.981Z</time></trkpt><trkpt lat="38.1607886" lon="22.0969261"><ele>425.0</ele><time>2026-04-29T08:17:11.981Z</time></trkpt><trkpt lat="38.1607573" lon="22.0970555"><ele>424.99999999999994</ele><time>2026-04-29T08:17:12.981Z</time></trkpt><trkpt lat="38.1607346" lon="22.097168"><ele>425.0</ele><time>2026-04-29T08:17:13.981Z</time></trkpt><trkpt lat="38.1607054" lon="22.0972656"><ele>425.0</ele><time>2026-04-29T08:17:14.98Z</time></trkpt><trkpt lat="38.1606549" lon="22.0973529"><ele>425.0</ele><time>2026-04-29T08:17:15.981Z</time></trkpt><trkpt lat="38.1605922" lon="22.0974149"><ele>424.99999999999994</ele><time>2026-04-29T08:17:16.98Z</time></trkpt><trkpt lat="38.1604888" lon="22.097425"><ele>425.0</ele><time>2026-04-29T08:17:17.981Z</time></trkpt><trkpt lat="38.1603474" lon="22.097394"><ele>433.5</ele><time>2026-04-29T08:17:18.981Z</time></trkpt><trkpt lat="38.1602104" lon="22.0973679"><ele>442.0</ele><time>2026-04-29T08:17:19.98Z</time></trkpt><trkpt lat="38.1600764" lon="22.0973693"><ele>450.5</ele><time>2026-04-29T08:17:20.981Z</time></trkpt><trkpt lat="38.1599543" lon="22.0973791"><ele>459.0</ele><time>2026-04-29T08:17:21.98Z</time></trkpt><trkpt lat="38.1598321" lon="22.0973982"><ele>455.6</ele><time>2026-04-29T08:17:22.981Z</time></trkpt><trkpt lat="38.1597167" lon="22.097445"><ele>452.2</ele><time>2026-04-29T08:17:23.981Z</time></trkpt><trkpt lat="38.1596045" lon="22.0974715"><ele>448.80000000000007</ele><time>2026-04-29T08:17:24.981Z</time></trkpt><trkpt lat="38.1594985" lon="22.0975007"><ele>445.40000000000003</ele><time>2026-04-29T08:17:25.98Z</time></trkpt><trkpt lat="38.159405" lon="22.0975507"><ele>442.0</ele><time>2026-04-29T08:17:26.98Z</time></trkpt><trkpt lat="38.1593075" lon="22.0975991"><ele>442.0</ele><time>2026-04-29T08:17:27.981Z</time></trkpt><trkpt lat="38.1592073" lon="22.097623"><ele>442.00000000000006</ele><time>2026-04-29T08:17:28.981Z</time></trkpt><trkpt lat="38.159101" lon="22.0976185"><ele>442.00000000000006</ele><time>2026-04-29T08:17:29.98Z</time></trkpt><trkpt lat="38.1589884" lon="22.0976039"><ele>442.0</ele><time>2026-04-29T08:17:30.98Z</time></trkpt><trkpt lat="38.1588644" lon="22.0975872"><ele>442.0</ele><time>2026-04-29T08:17:31.981Z</time></trkpt><trkpt lat="38.1587525" lon="22.097586"><ele>442.25</ele><time>2026-04-29T08:17:32.98Z</time></trkpt><trkpt lat="38.158642" lon="22.0975855"><ele>442.5</ele><time>2026-04-29T08:17:33.98Z</time></trkpt><trkpt lat="38.1585226" lon="22.0975734"><ele>442.75</ele><time>2026-04-29T08:17:34.98Z</time></trkpt><trkpt lat="38.158401" lon="22.0975364"><ele>443.0</ele><time>2026-04-29T08:17:35.981Z</time></trkpt><trkpt lat="38.1582894" lon="22.0974796"><ele>451.75</ele><time>2026-04-29T08:17:36.98Z</time></trkpt><trkpt lat="38.1581908" lon="22.0974044"><ele>460.5</ele><time>2026-04-29T08:17:37.981Z</time></trkpt><trkpt lat="38.1581059" lon="22.097318"><ele>469.25</ele><time>2026-04-29T08:17:38.981Z</time></trkpt><trkpt lat="38.1580278" lon="22.0972125"><ele>478.0</ele><time>2026-04-29T08:17:39.98Z</time></trkpt><trkpt lat="38.1579324" lon="22.0971332"><ele>478.0</ele><time>2026-04-29T08:17:40.98Z</time></trkpt><trkpt lat="38.1578303" lon="22.0970778"><ele>478.0</ele><time>2026-04-29T08:17:41.98Z</time></trkpt><trkpt lat="38.1577118" lon="22.0970491"><ele>478.0</ele><time>2026-04-29T08:17:42.98Z</time></trkpt><trkpt lat="38.1575788" lon="22.0970489"><ele>478.0</ele><time>2026-04-29T08:17:43.981Z</time></trkpt><trkpt lat="38.1574475" lon="22.0970482"><ele>480.25</ele><time>2026-04-29T08:17:44.98Z</time></trkpt><trkpt lat="38.1573162" lon="22.0970432"><ele>482.5</ele><time>2026-04-29T08:17:45.98Z</time></trkpt><trkpt lat="38.1571981" lon="22.0970388"><ele>484.75</ele><time>2026-04-29T08:17:46.981Z</time></trkpt><trkpt lat="38.1570853" lon="22.0970343"><ele>487.0</ele><time>2026-04-29T08:17:47.981Z</time></trkpt><trkpt lat="38.1569796" lon="22.0970318"><ele>487.0</ele><time>2026-04-29T08:17:48.98Z</time></trkpt><trkpt lat="38.156886" lon="22.0970459"><ele>487.00000000000006</ele><time>2026-04-29T08:17:49.98Z</time></trkpt><trkpt lat="38.1567971" lon="22.0970787"><ele>487.00000000000006</ele><time>2026-04-29T08:17:50.98Z</time></trkpt><trkpt lat="38.156713" lon="22.0971353"><ele>487.0</ele><time>2026-04-29T08:17:51.98Z</time></trkpt><trkpt lat="38.1566411" lon="22.0972142"><ele>487.0</ele><time>2026-04-29T08:17:52.98Z</time></trkpt><trkpt lat="38.1565806" lon="22.0972973"><ele>490.1666666666667</ele><time>2026-04-29T08:17:53.981Z</time></trkpt><trkpt lat="38.1565278" lon="22.0973714"><ele>493.33333333333337</ele><time>2026-04-29T08:17:54.981Z</time></trkpt><trkpt lat="38.1564682" lon="22.0974144"><ele>496.5</ele><time>2026-04-29T08:17:55.981Z</time></trkpt><trkpt lat="38.1563939" lon="22.0974313"><ele>499.66666666666663</ele><time>2026-04-29T08:17:56.981Z</time></trkpt><trkpt lat="38.1563105" lon="22.097437"><ele>502.8333333333333</ele><time>2026-04-29T08:17:57.981Z</time></trkpt><trkpt lat="38.1562108" lon="22.0974235"><ele>506.0</ele><time>2026-04-29T08:17:58.98Z</time></trkpt><trkpt lat="38.1561113" lon="22.0973967"><ele>506.0</ele><time>2026-04-29T08:17:59.981Z</time></trkpt><trkpt lat="38.1560197" lon="22.0973525"><ele>506.0</ele><time>2026-04-29T08:18:00.981Z</time></trkpt><trkpt lat="38.1559219" lon="22.0973048"><ele>506.0</ele><time>2026-04-29T08:18:01.98Z</time></trkpt><trkpt lat="38.1558202" lon="22.0972829"><ele>506.0</ele><time>2026-04-29T08:18:02.981Z</time></trkpt><trkpt lat="38.1557185" lon="22.0972963"><ele>506.0</ele><time>2026-04-29T08:18:03.98Z</time></trkpt><trkpt lat="38.1556226" lon="22.0973363"><ele>509.4</ele><time>2026-04-29T08:18:04.981Z</time></trkpt><trkpt lat="38.1555245" lon="22.0973942"><ele>512.8</ele><time>2026-04-29T08:18:05.981Z</time></trkpt><trkpt lat="38.1554188" lon="22.0974464"><ele>516.1999999999999</ele><time>2026-04-29T08:18:06.981Z</time></trkpt><trkpt lat="38.1553111" lon="22.0974842"><ele>519.6</ele><time>2026-04-29T08:18:07.981Z</time></trkpt><trkpt lat="38.1551963" lon="22.0974805"><ele>523.0</ele><time>2026-04-29T08:18:08.98Z</time></trkpt><trkpt lat="38.1550541" lon="22.0974676"><ele>511.25</ele><time>2026-04-29T08:18:09.98Z</time></trkpt><trkpt lat="38.1549361" lon="22.0974935"><ele>499.5</ele><time>2026-04-29T08:18:10.98Z</time></trkpt><trkpt lat="38.1548147" lon="22.0975408"><ele>487.75</ele><time>2026-04-29T08:18:11.981Z</time></trkpt><trkpt lat="38.1547055" lon="22.0976147"><ele>476.0</ele><time>2026-04-29T08:18:12.98Z</time></trkpt><trkpt lat="38.1546053" lon="22.0976846"><ele>476.0</ele><time>2026-04-29T08:18:13.981Z</time></trkpt><trkpt lat="38.154518" lon="22.0977328"><ele>476.0</ele><time>2026-04-29T08:18:14.98Z</time></trkpt><trkpt lat="38.1544265" lon="22.0977287"><ele>476.0</ele><time>2026-04-29T08:18:15.98Z</time></trkpt><trkpt lat="38.1543553" lon="22.0976583"><ele>476.0</ele><time>2026-04-29T08:18:16.98Z</time></trkpt><trkpt lat="38.1542774" lon="22.0976123"><ele>476.0</ele><time>2026-04-29T08:18:17.98Z</time></trkpt><trkpt lat="38.1542385" lon="22.0974713"><ele>478.20000000000005</ele><time>2026-04-29T08:18:18.98Z</time></trkpt><trkpt lat="38.1541996" lon="22.0973605"><ele>480.40000000000003</ele><time>2026-04-29T08:18:19.981Z</time></trkpt><trkpt lat="38.1541582" lon="22.0972437"><ele>482.6</ele><time>2026-04-29T08:18:20.981Z</time></trkpt><trkpt lat="38.1541004" lon="22.0971299"><ele>484.8</ele><time>2026-04-29T08:18:21.981Z</time></trkpt><trkpt lat="38.1540252" lon="22.0970275"><ele>487.0</ele><time>2026-04-29T08:18:22.981Z</time></trkpt><trkpt lat="38.1539425" lon="22.0969259"><ele>487.0</ele><time>2026-04-29T08:18:23.981Z</time></trkpt><trkpt lat="38.1538526" lon="22.0968422"><ele>487.00000000000006</ele><time>2026-04-29T08:18:24.981Z</time></trkpt><trkpt lat="38.1537641" lon="22.0967639"><ele>487.00000000000006</ele><time>2026-04-29T08:18:25.981Z</time></trkpt><trkpt lat="38.1536633" lon="22.0967171"><ele>487.0</ele><time>2026-04-29T08:18:26.981Z</time></trkpt><trkpt lat="38.1535652" lon="22.096669"><ele>487.0</ele><time>2026-04-29T08:18:27.98Z</time></trkpt><trkpt lat="38.1534561" lon="22.0966414"><ele>487.0</ele><time>2026-04-29T08:18:28.981Z</time></trkpt><trkpt lat="38.1533465" lon="22.096637"><ele>487.0</ele><time>2026-04-29T08:18:29.98Z</time></trkpt><trkpt lat="38.1532396" lon="22.0966211"><ele>487.0</ele><time>2026-04-29T08:18:30.98Z</time></trkpt><trkpt lat="38.1531326" lon="22.0965827"><ele>487.0</ele><time>2026-04-29T08:18:31.98Z</time></trkpt><trkpt lat="38.1530189" lon="22.0965244"><ele>489.25</ele><time>2026-04-29T08:18:32.981Z</time></trkpt><trkpt lat="38.1528958" lon="22.0964567"><ele>491.5</ele><time>2026-04-29T08:18:33.981Z</time></trkpt><trkpt lat="38.1527683" lon="22.0963768"><ele>493.75</ele><time>2026-04-29T08:18:34.98Z</time></trkpt><trkpt lat="38.1526515" lon="22.0963018"><ele>496.0</ele><time>2026-04-29T08:18:35.98Z</time></trkpt><trkpt lat="38.1525549" lon="22.096222"><ele>496.0</ele><time>2026-04-29T08:18:36.981Z</time></trkpt><trkpt lat="38.1524637" lon="22.0961238"><ele>496.0</ele><time>2026-04-29T08:18:37.981Z</time></trkpt><trkpt lat="38.1524108" lon="22.0959942"><ele>496.0</ele><time>2026-04-29T08:18:38.981Z</time></trkpt><trkpt lat="38.1523467" lon="22.0958942"><ele>496.0</ele><time>2026-04-29T08:18:39.98Z</time></trkpt><trkpt lat="38.1522613" lon="22.0958105"><ele>496.0</ele><time>2026-04-29T08:18:40.981Z</time></trkpt><trkpt lat="38.1521551" lon="22.0957501"><ele>501.0</ele><time>2026-04-29T08:18:41.981Z</time></trkpt><trkpt lat="38.1520273" lon="22.0957116"><ele>506.0</ele><time>2026-04-29T08:18:42.981Z</time></trkpt><trkpt lat="38.1518834" lon="22.0956618"><ele>511.0</ele><time>2026-04-29T08:18:43.981Z</time></trkpt><trkpt lat="38.1517325" lon="22.0955811"><ele>516.0</ele><time>2026-04-29T08:18:44.98Z</time></trkpt><trkpt lat="38.1515615" lon="22.095529"><ele>516.3333333333334</ele><time>2026-04-29T08:18:45.98Z</time></trkpt><trkpt lat="38.1513965" lon="22.0954869"><ele>516.6666666666667</ele><time>2026-04-29T08:18:46.981Z</time></trkpt><trkpt lat="38.1512223" lon="22.0954233"><ele>517.0</ele><time>2026-04-29T08:18:47.98Z</time></trkpt><trkpt lat="38.1510635" lon="22.0953525"><ele>517.0</ele><time>2026-04-29T08:18:48.98Z</time></trkpt><trkpt lat="38.1509311" lon="22.0952867"><ele>517.0</ele><time>2026-04-29T08:18:49.98Z</time></trkpt><trkpt lat="38.1508158" lon="22.0952131"><ele>517.0</ele><time>2026-04-29T08:18:50.981Z</time></trkpt><trkpt lat="38.1507014" lon="22.0951392"><ele>517.0</ele><time>2026-04-29T08:18:51.98Z</time></trkpt><trkpt lat="38.150606" lon="22.0950832"><ele>518.0</ele><time>2026-04-29T08:18:52.981Z</time></trkpt><trkpt lat="38.1505069" lon="22.0950459"><ele>519.0</ele><time>2026-04-29T08:18:53.981Z</time></trkpt><trkpt lat="38.1504026" lon="22.0950009"><ele>520.0</ele><time>2026-04-29T08:18:54.981Z</time></trkpt><trkpt lat="38.1502992" lon="22.094949"><ele>521.0</ele><time>2026-04-29T08:18:55.98Z</time></trkpt><trkpt lat="38.150199" lon="22.0948891"><ele>522.0</ele><time>2026-04-29T08:18:56.981Z</time></trkpt><trkpt lat="38.1500979" lon="22.0948505"><ele>521.6</ele><time>2026-04-29T08:18:57.98Z</time></trkpt><trkpt lat="38.1499953" lon="22.0948493"><ele>521.2</ele><time>2026-04-29T08:18:58.98Z</time></trkpt><trkpt lat="38.149908" lon="22.0948828"><ele>520.8</ele><time>2026-04-29T08:18:59.981Z</time></trkpt><trkpt lat="38.1498173" lon="22.0949341"><ele>520.4</ele><time>2026-04-29T08:19:00.98Z</time></trkpt><trkpt lat="38.1497311" lon="22.0949837"><ele>520.0</ele><time>2026-04-29T08:19:01.98Z</time></trkpt><trkpt lat="38.1496282" lon="22.0949945"><ele>520.0</ele><time>2026-04-29T08:19:02.98Z</time></trkpt><trkpt lat="38.1495305" lon="22.0950104"><ele>520.0</ele><time>2026-04-29T08:19:03.981Z</time></trkpt><trkpt lat="38.1494364" lon="22.0949228"><ele>520.0</ele><time>2026-04-29T08:19:04.98Z</time></trkpt><trkpt lat="38.1493274" lon="22.0948406"><ele>520.0</ele><time>2026-04-29T08:19:05.981Z</time></trkpt><trkpt lat="38.1492301" lon="22.0947572"><ele>520.8</ele><time>2026-04-29T08:19:06.981Z</time></trkpt><trkpt lat="38.1491431" lon="22.0946748"><ele>521.6</ele><time>2026-04-29T08:19:07.981Z</time></trkpt><trkpt lat="38.1490728" lon="22.0946012"><ele>522.4</ele><time>2026-04-29T08:19:08.98Z</time></trkpt><trkpt lat="38.1490045" lon="22.0945139"><ele>523.2</ele><time>2026-04-29T08:19:09.98Z</time></trkpt><trkpt lat="38.1489559" lon="22.0944156"><ele>524.0</ele><time>2026-04-29T08:19:10.981Z</time></trkpt><trkpt lat="38.1489301" lon="22.094277"><ele>524.0</ele><time>2026-04-29T08:19:11.981Z</time></trkpt><trkpt lat="38.1488919" lon="22.0941457"><ele>524.0</ele><time>2026-04-29T08:19:12.981Z</time></trkpt><trkpt lat="38.1488641" lon="22.094016"><ele>524.0</ele><time>2026-04-29T08:19:13.981Z</time></trkpt><trkpt lat="38.1488395" lon="22.0938849"><ele>524.0</ele><time>2026-04-29T08:19:14.98Z</time></trkpt><trkpt lat="38.1488107" lon="22.0937396"><ele>524.0</ele><time>2026-04-29T08:19:15.981Z</time></trkpt><trkpt lat="38.1487882" lon="22.0935923"><ele>521.3333333333333</ele><time>2026-04-29T08:19:16.981Z</time></trkpt><trkpt lat="38.148771" lon="22.0934342"><ele>518.6666666666666</ele><time>2026-04-29T08:19:17.98Z</time></trkpt><trkpt lat="38.1487686" lon="22.0932609"><ele>516.0</ele><time>2026-04-29T08:19:18.981Z</time></trkpt><trkpt lat="38.1515615" lon="22.095529"><ele>516.3333333333334</ele><time>2026-04-29T08:18:45.98Z</time></trkpt><trkpt lat="38.1513965" lon="22.0954869"><ele>516.6666666666667</ele><time>2026-04-29T08:18:46.981Z</time></trkpt><trkpt lat="38.1512223" lon="22.0954233"><ele>517.0</ele><time>2026-04-29T08:18:47.98Z</time></trkpt><trkpt lat="38.1510635" lon="22.0953525"><ele>517.0</ele><time>2026-04-29T08:18:48.98Z</time></trkpt><trkpt lat="38.1509311" lon="22.0952867"><ele>517.0</ele><time>2026-04-29T08:18:49.98Z</time></trkpt><trkpt lat="38.1508158" lon="22.0952131"><ele>517.0</ele><time>2026-04-29T08:18:50.981Z</time></trkpt><trkpt lat="38.1507014" lon="22.0951392"><ele>517.0</ele><time>2026-04-29T08:18:51.98Z</time></trkpt><trkpt lat="38.150606" lon="22.0950832"><ele>518.0</ele><time>2026-04-29T08:18:52.981Z</time></trkpt><trkpt lat="38.1505069" lon="22.0950459"><ele>519.0</ele><time>2026-04-29T08:18:53.981Z</time></trkpt><trkpt lat="38.1504026" lon="22.0950009"><ele>520.0</ele><time>2026-04-29T08:18:54.981Z</time></trkpt><trkpt lat="38.1502992" lon="22.094949"><ele>521.0</ele><time>2026-04-29T08:18:55.98Z</time></trkpt><trkpt lat="38.150199" lon="22.0948891"><ele>522.0</ele><time>2026-04-29T08:18:56.981Z</time></trkpt><trkpt lat="38.1500979" lon="22.0948505"><ele>521.6</ele><time>2026-04-29T08:18:57.98Z</time></trkpt><trkpt lat="38.1499953" lon="22.0948493"><ele>521.2</ele><time>2026-04-29T08:18:58.98Z</time></trkpt><trkpt lat="38.149908" lon="22.0948828"><ele>520.8</ele><time>2026-04-29T08:18:59.981Z</time></trkpt><trkpt lat="38.1498173" lon="22.0949341"><ele>520.4</ele><time>2026-04-29T08:19:00.98Z</time></trkpt><trkpt lat="38.1497311" lon="22.0949837"><ele>520.0</ele><time>2026-04-29T08:19:01.98Z</time></trkpt><trkpt lat="38.1496282" lon="22.0949945"><ele>520.0</ele><time>2026-04-29T08:19:02.98Z</time></trkpt><trkpt lat="38.1495305" lon="22.0950104"><ele>520.0</ele><time>2026-04-29T08:19:03.981Z</time></trkpt><trkpt lat="38.1494364" lon="22.0949228"><ele>520.0</ele><time>2026-04-29T08:19:04.98Z</time></trkpt><trkpt lat="38.1493274" lon="22.0948406"><ele>520.0</ele><time>2026-04-29T08:19:05.981Z</time></trkpt><trkpt lat="38.1492301" lon="22.0947572"><ele>520.8</ele><time>2026-04-29T08:19:06.981Z</time></trkpt><trkpt lat="38.1491431" lon="22.0946748"><ele>521.6</ele><time>2026-04-29T08:19:07.981Z</time></trkpt><trkpt lat="38.1490728" lon="22.0946012"><ele>522.4</ele><time>2026-04-29T08:19:08.98Z</time></trkpt><trkpt lat="38.1490045" lon="22.0945139"><ele>523.2</ele><time>2026-04-29T08:19:09.98Z</time></trkpt><trkpt lat="38.1489559" lon="22.0944156"><ele>524.0</ele><time>2026-04-29T08:19:10.981Z</time></trkpt><trkpt lat="38.1489301" lon="22.094277"><ele>524.0</ele><time>2026-04-29T08:19:11.981Z</time></trkpt><trkpt lat="38.1488919" lon="22.0941457"><ele>524.0</ele><time>2026-04-29T08:19:12.981Z</time></trkpt><trkpt lat="38.1488641" lon="22.094016"><ele>524.0</ele><time>2026-04-29T08:19:13.981Z</time></trkpt><trkpt lat="38.1488395" lon="22.0938849"><ele>524.0</ele><time>2026-04-29T08:19:14.98Z</time></trkpt><trkpt lat="38.1488107" lon="22.0937396"><ele>524.0</ele><time>2026-04-29T08:19:15.981Z</time></trkpt><trkpt lat="38.1487882" lon="22.0935923"><ele>529.0</ele><time>2026-04-29T08:19:16.981Z</time></trkpt><trkpt lat="38.148771" lon="22.0934342"><ele>534.0</ele><time>2026-04-29T08:19:17.98Z</time></trkpt><trkpt lat="38.1487686" lon="22.0932609"><ele>539.0</ele><time>2026-04-29T08:19:18.981Z</time></trkpt><trkpt lat="38.1487377" lon="22.0931109"><ele>544.0</ele><time>2026-04-29T08:19:19.981Z</time></trkpt><trkpt lat="38.148704" lon="22.092982"><ele>545.8</ele><time>2026-04-29T08:19:20.98Z</time></trkpt><trkpt lat="38.1486712" lon="22.0928514"><ele>547.5999999999999</ele><time>2026-04-29T08:19:21.98Z</time></trkpt><trkpt lat="38.1486416" lon="22.0927246"><ele>549.4</ele><time>2026-04-29T08:19:22.981Z</time></trkpt><trkpt lat="38.1486114" lon="22.0926035"><ele>551.1999999999999</ele><time>2026-04-29T08:19:23.98Z</time></trkpt><trkpt lat="38.1485844" lon="22.0924773"><ele>553.0</ele><time>2026-04-29T08:19:24.981Z</time></trkpt><trkpt lat="38.1485569" lon="22.0923578"><ele>555.4</ele><time>2026-04-29T08:19:25.98Z</time></trkpt><trkpt lat="38.148527" lon="22.0922369"><ele>557.8</ele><time>2026-04-29T08:19:26.98Z</time></trkpt><trkpt lat="38.1484876" lon="22.0921144"><ele>560.2</ele><time>2026-04-29T08:19:27.98Z</time></trkpt><trkpt lat="38.1484659" lon="22.0919898"><ele>562.6</ele><time>2026-04-29T08:19:28.981Z</time></trkpt><trkpt lat="38.1484492" lon="22.0918762"><ele>565.0</ele><time>2026-04-29T08:19:29.98Z</time></trkpt><trkpt lat="38.1484378" lon="22.0917709"><ele>565.0</ele><time>2026-04-29T08:19:30.98Z</time></trkpt><trkpt lat="38.1484558" lon="22.0916888"><ele>565.0</ele><time>2026-04-29T08:19:31.98Z</time></trkpt><trkpt lat="38.1484934" lon="22.0916127"><ele>565.0</ele><time>2026-04-29T08:19:32.981Z</time></trkpt><trkpt lat="38.1485347" lon="22.0915159"><ele>565.0</ele><time>2026-04-29T08:19:33.981Z</time></trkpt><trkpt lat="38.1485677" lon="22.0914238"><ele>565.0</ele><time>2026-04-29T08:19:34.981Z</time></trkpt><trkpt lat="38.148562" lon="22.091328"><ele>565.0</ele><time>2026-04-29T08:19:35.98Z</time></trkpt><trkpt lat="38.1485137" lon="22.0912156"><ele>569.25</ele><time>2026-04-29T08:19:36.981Z</time></trkpt><trkpt lat="38.148451" lon="22.0911087"><ele>573.5</ele><time>2026-04-29T08:19:37.98Z</time></trkpt><trkpt lat="38.1483747" lon="22.0909896"><ele>577.75</ele><time>2026-04-29T08:19:38.98Z</time></trkpt><trkpt lat="38.1482892" lon="22.0908702"><ele>582.0</ele><time>2026-04-29T08:19:39.981Z</time></trkpt><trkpt lat="38.1482125" lon="22.0907485"><ele>581.8000000000001</ele><time>2026-04-29T08:19:40.98Z</time></trkpt><trkpt lat="38.1481588" lon="22.0906105"><ele>581.6</ele><time>2026-04-29T08:19:41.98Z</time></trkpt><trkpt lat="38.1481342" lon="22.0904748"><ele>581.4000000000001</ele><time>2026-04-29T08:19:42.981Z</time></trkpt><trkpt lat="38.1481133" lon="22.0903491"><ele>581.2</ele><time>2026-04-29T08:19:43.981Z</time></trkpt><trkpt lat="38.1480689" lon="22.0902391"><ele>581.0</ele><time>2026-04-29T08:19:44.98Z</time></trkpt><trkpt lat="38.148011" lon="22.0901529"><ele>581.0</ele><time>2026-04-29T08:19:45.98Z</time></trkpt><trkpt lat="38.1479247" lon="22.0900812"><ele>581.0</ele><time>2026-04-29T08:19:46.981Z</time></trkpt><trkpt lat="38.1478414" lon="22.089991"><ele>581.0</ele><time>2026-04-29T08:19:47.981Z</time></trkpt><trkpt lat="38.1477627" lon="22.089857"><ele>581.0</ele><time>2026-04-29T08:19:48.98Z</time></trkpt><trkpt lat="38.1477006" lon="22.0897319"><ele>591.75</ele><time>2026-04-29T08:19:49.98Z</time></trkpt><trkpt lat="38.1476259" lon="22.0896164"><ele>602.5</ele><time>2026-04-29T08:19:50.981Z</time></trkpt><trkpt lat="38.147544" lon="22.0895246"><ele>613.25</ele><time>2026-04-29T08:19:51.98Z</time></trkpt><trkpt lat="38.1474353" lon="22.0894708"><ele>624.0</ele><time>2026-04-29T08:19:52.981Z</time></trkpt><trkpt lat="38.1473234" lon="22.0894168"><ele>627.0</ele><time>2026-04-29T08:19:53.98Z</time></trkpt><trkpt lat="38.1471987" lon="22.0893681"><ele>630.0</ele><time>2026-04-29T08:19:54.981Z</time></trkpt><trkpt lat="38.1470645" lon="22.089337"><ele>633.0</ele><time>2026-04-29T08:19:55.981Z</time></trkpt><trkpt lat="38.1469345" lon="22.0893068"><ele>636.0</ele><time>2026-04-29T08:19:56.98Z</time></trkpt><trkpt lat="38.1468025" lon="22.0892728"><ele>636.0</ele><time>2026-04-29T08:19:57.981Z</time></trkpt><trkpt lat="38.1466753" lon="22.08925"><ele>636.0</ele><time>2026-04-29T08:19:58.981Z</time></trkpt><trkpt lat="38.1465575" lon="22.0892649"><ele>636.0</ele><time>2026-04-29T08:19:59.981Z</time></trkpt><trkpt lat="38.1464352" lon="22.0892994"><ele>636.0</ele><time>2026-04-29T08:20:00.98Z</time></trkpt><trkpt lat="38.1463121" lon="22.0893457"><ele>636.25</ele><time>2026-04-29T08:20:01.981Z</time></trkpt><trkpt lat="38.1461996" lon="22.0894225"><ele>636.5</ele><time>2026-04-29T08:20:02.981Z</time></trkpt><trkpt lat="38.1460908" lon="22.0894986"><ele>636.75</ele><time>2026-04-29T08:20:03.981Z</time></trkpt><trkpt lat="38.1459892" lon="22.0895689"><ele>637.0</ele><time>2026-04-29T08:20:04.98Z</time></trkpt><trkpt lat="38.1459042" lon="22.0896358"><ele>637.0</ele><time>2026-04-29T08:20:05.98Z</time></trkpt><trkpt lat="38.1458167" lon="22.0896988"><ele>637.0</ele><time>2026-04-29T08:20:06.98Z</time></trkpt><trkpt lat="38.1457256" lon="22.0897397"><ele>637.0</ele><time>2026-04-29T08:20:07.981Z</time></trkpt><trkpt lat="38.1456293" lon="22.0897516"><ele>637.0</ele><time>2026-04-29T08:20:08.98Z</time></trkpt><trkpt lat="38.1455302" lon="22.0897455"><ele>637.0</ele><time>2026-04-29T08:20:09.981Z</time></trkpt><trkpt lat="38.1454468" lon="22.0897021"><ele>631.5</ele><time>2026-04-29T08:20:10.981Z</time></trkpt><trkpt lat="38.1453599" lon="22.0896425"><ele>626.0</ele><time>2026-04-29T08:20:11.981Z</time></trkpt><trkpt lat="38.1452732" lon="22.0895354"><ele>620.5</ele><time>2026-04-29T08:20:12.98Z</time></trkpt><trkpt lat="38.1451539" lon="22.0894286"><ele>615.0</ele><time>2026-04-29T08:20:13.98Z</time></trkpt><trkpt lat="38.1450354" lon="22.089329"><ele>615.0</ele><time>2026-04-29T08:20:14.98Z</time></trkpt><trkpt lat="38.144927" lon="22.0892231"><ele>615.0</ele><time>2026-04-29T08:20:15.981Z</time></trkpt><trkpt lat="38.1448321" lon="22.0891303"><ele>615.0</ele><time>2026-04-29T08:20:16.981Z</time></trkpt><trkpt lat="38.1447436" lon="22.0890541"><ele>615.0</ele><time>2026-04-29T08:20:17.981Z</time></trkpt><trkpt lat="38.1446483" lon="22.088981"><ele>614.25</ele><time>2026-04-29T08:20:18.981Z</time></trkpt><trkpt lat="38.1445622" lon="22.0888997"><ele>613.5</ele><time>2026-04-29T08:20:19.981Z</time></trkpt><trkpt lat="38.1444657" lon="22.0888272"><ele>612.75</ele><time>2026-04-29T08:20:20.981Z</time></trkpt><trkpt lat="38.144365" lon="22.08875"><ele>612.0</ele><time>2026-04-29T08:20:21.981Z</time></trkpt><trkpt lat="38.1442746" lon="22.0886606"><ele>612.0</ele><time>2026-04-29T08:20:22.981Z</time></trkpt><trkpt lat="38.1441926" lon="22.0885619"><ele>612.0</ele><time>2026-04-29T08:20:23.98Z</time></trkpt><trkpt lat="38.1441087" lon="22.0884428"><ele>612.0</ele><time>2026-04-29T08:20:24.981Z</time></trkpt><trkpt lat="38.1440335" lon="22.088306"><ele>612.0</ele><time>2026-04-29T08:20:25.98Z</time></trkpt><trkpt lat="38.1439628" lon="22.0881673"><ele>610.25</ele><time>2026-04-29T08:20:26.981Z</time></trkpt><trkpt lat="38.1438856" lon="22.088022"><ele>608.5</ele><time>2026-04-29T08:20:27.98Z</time></trkpt><trkpt lat="38.1438223" lon="22.0878732"><ele>606.75</ele><time>2026-04-29T08:20:28.981Z</time></trkpt><trkpt lat="38.1437708" lon="22.0877322"><ele>605.0</ele><time>2026-04-29T08:20:29.981Z</time></trkpt><trkpt lat="38.1437398" lon="22.0875798"><ele>609.25</ele><time>2026-04-29T08:20:30.981Z</time></trkpt><trkpt lat="38.1437265" lon="22.0874232"><ele>613.5</ele><time>2026-04-29T08:20:31.98Z</time></trkpt><trkpt lat="38.1437334" lon="22.0872665"><ele>617.75</ele><time>2026-04-29T08:20:32.981Z</time></trkpt><trkpt lat="38.1437672" lon="22.0871155"><ele>622.0</ele><time>2026-04-29T08:20:33.98Z</time></trkpt><trkpt lat="38.1438175" lon="22.0869788"><ele>622.0</ele><time>2026-04-29T08:20:34.98Z</time></trkpt><trkpt lat="38.1438724" lon="22.0868332"><ele>622.0</ele><time>2026-04-29T08:20:35.98Z</time></trkpt><trkpt lat="38.1439088" lon="22.0866934"><ele>622.0</ele><time>2026-04-29T08:20:36.98Z</time></trkpt><trkpt lat="38.1439293" lon="22.0865791"><ele>622.0</ele><time>2026-04-29T08:20:37.98Z</time></trkpt><trkpt lat="38.1439219" lon="22.0864877"><ele>622.0</ele><time>2026-04-29T08:20:38.981Z</time></trkpt><trkpt lat="38.1438335" lon="22.0863899"><ele>625.8333333333334</ele><time>2026-04-29T08:20:40.98Z</time></trkpt><trkpt lat="38.1437476" lon="22.0863848"><ele>629.6666666666667</ele><time>2026-04-29T08:20:41.98Z</time></trkpt><trkpt lat="38.1436715" lon="22.086388"><ele>633.5</ele><time>2026-04-29T08:20:42.981Z</time></trkpt><trkpt lat="38.1435852" lon="22.0863885"><ele>637.3333333333334</ele><time>2026-04-29T08:20:43.98Z</time></trkpt><trkpt lat="38.1434956" lon="22.0863827"><ele>641.1666666666666</ele><time>2026-04-29T08:20:44.98Z</time></trkpt><trkpt lat="38.1434047" lon="22.0863503"><ele>645.0</ele><time>2026-04-29T08:20:45.98Z</time></trkpt><trkpt lat="38.1433079" lon="22.0863195"><ele>645.4</ele><time>2026-04-29T08:20:46.98Z</time></trkpt><trkpt lat="38.1432054" lon="22.0863"><ele>645.8</ele><time>2026-04-29T08:20:47.981Z</time></trkpt><trkpt lat="38.1430907" lon="22.0862805"><ele>646.2</ele><time>2026-04-29T08:20:48.98Z</time></trkpt><trkpt lat="38.1429738" lon="22.0862632"><ele>646.6</ele><time>2026-04-29T08:20:49.98Z</time></trkpt><trkpt lat="38.1428669" lon="22.0862525"><ele>647.0</ele><time>2026-04-29T08:20:50.981Z</time></trkpt><trkpt lat="38.1427577" lon="22.0862457"><ele>647.0</ele><time>2026-04-29T08:20:51.98Z</time></trkpt><trkpt lat="38.1426468" lon="22.0862423"><ele>647.0</ele><time>2026-04-29T08:20:52.981Z</time></trkpt><trkpt lat="38.1425314" lon="22.0862435"><ele>647.0</ele><time>2026-04-29T08:20:53.981Z</time></trkpt><trkpt lat="38.1424142" lon="22.0862215"><ele>647.0</ele><time>2026-04-29T08:20:54.98Z</time></trkpt><trkpt lat="38.1423017" lon="22.0862111"><ele>647.0</ele><time>2026-04-29T08:20:55.98Z</time></trkpt><trkpt lat="38.1421674" lon="22.0862043"><ele>647.0</ele><time>2026-04-29T08:20:56.981Z</time></trkpt><trkpt lat="38.1420432" lon="22.0861964"><ele>647.0</ele><time>2026-04-29T08:20:57.981Z</time></trkpt><trkpt lat="38.1419217" lon="22.0861925"><ele>647.0</ele><time>2026-04-29T08:20:58.981Z</time></trkpt><trkpt lat="38.1418078" lon="22.0861887"><ele>647.0</ele><time>2026-04-29T08:20:59.981Z</time></trkpt><trkpt lat="38.1416963" lon="22.0861662"><ele>647.0</ele><time>2026-04-29T08:21:00.98Z</time></trkpt><trkpt lat="38.141589" lon="22.0861284"><ele>647.0</ele><time>2026-04-29T08:21:01.98Z</time></trkpt><trkpt lat="38.1414889" lon="22.0860362"><ele>647.0</ele><time>2026-04-29T08:21:02.981Z</time></trkpt><trkpt lat="38.1413896" lon="22.0859349"><ele>644.25</ele><time>2026-04-29T08:21:03.981Z</time></trkpt><trkpt lat="38.1412776" lon="22.0858474"><ele>641.5</ele><time>2026-04-29T08:21:04.981Z</time></trkpt><trkpt lat="38.1411611" lon="22.0857625"><ele>638.75</ele><time>2026-04-29T08:21:05.98Z</time></trkpt><trkpt lat="38.1410389" lon="22.0856785"><ele>636.0</ele><time>2026-04-29T08:21:06.98Z</time></trkpt><trkpt lat="38.1409043" lon="22.0856003"><ele>641.25</ele><time>2026-04-29T08:21:07.98Z</time></trkpt><trkpt lat="38.1407921" lon="22.0855277"><ele>646.5</ele><time>2026-04-29T08:21:08.98Z</time></trkpt><trkpt lat="38.1406862" lon="22.0854476"><ele>651.75</ele><time>2026-04-29T08:21:09.98Z</time></trkpt><trkpt lat="38.1405884" lon="22.0853717"><ele>657.0</ele><time>2026-04-29T08:21:10.981Z</time></trkpt><trkpt lat="38.1404992" lon="22.0852971"><ele>657.0</ele><time>2026-04-29T08:21:11.98Z</time></trkpt><trkpt lat="38.1404086" lon="22.0852615"><ele>657.0</ele><time>2026-04-29T08:21:12.981Z</time></trkpt><trkpt lat="38.1403066" lon="22.0852446"><ele>657.0</ele><time>2026-04-29T08:21:13.98Z</time></trkpt><trkpt lat="38.1402103" lon="22.0852154"><ele>657.0</ele><time>2026-04-29T08:21:14.981Z</time></trkpt><trkpt lat="38.1401218" lon="22.0851508"><ele>657.0</ele><time>2026-04-29T08:21:15.981Z</time></trkpt><trkpt lat="38.140019" lon="22.0850792"><ele>657.0</ele><time>2026-04-29T08:21:16.981Z</time></trkpt><trkpt lat="38.1399195" lon="22.0850064"><ele>657.0</ele><time>2026-04-29T08:21:17.98Z</time></trkpt><trkpt lat="38.139839" lon="22.084905"><ele>657.0</ele><time>2026-04-29T08:21:18.981Z</time></trkpt><trkpt lat="38.1397619" lon="22.0848041"><ele>657.0</ele><time>2026-04-29T08:21:19.981Z</time></trkpt><trkpt lat="38.1396785" lon="22.0847186"><ele>657.0</ele><time>2026-04-29T08:21:20.981Z</time></trkpt><trkpt lat="38.139588" lon="22.084653"><ele>664.25</ele><time>2026-04-29T08:21:21.981Z</time></trkpt><trkpt lat="38.1394774" lon="22.0846216"><ele>671.5</ele><time>2026-04-29T08:21:22.98Z</time></trkpt><trkpt lat="38.1393497" lon="22.0846152"><ele>678.75</ele><time>2026-04-29T08:21:23.981Z</time></trkpt><trkpt lat="38.1392227" lon="22.0845901"><ele>686.0</ele><time>2026-04-29T08:21:24.981Z</time></trkpt><trkpt lat="38.1390962" lon="22.0845628"><ele>682.75</ele><time>2026-04-29T08:21:25.981Z</time></trkpt><trkpt lat="38.1389604" lon="22.0845281"><ele>679.5</ele><time>2026-04-29T08:21:26.981Z</time></trkpt><trkpt lat="38.138823" lon="22.0845064"><ele>676.25</ele><time>2026-04-29T08:21:27.981Z</time></trkpt><trkpt lat="38.1386832" lon="22.0844932"><ele>673.0</ele><time>2026-04-29T08:21:28.98Z</time></trkpt><trkpt lat="38.1385368" lon="22.0844901"><ele>673.0</ele><time>2026-04-29T08:21:29.981Z</time></trkpt><trkpt lat="38.1383985" lon="22.0844913"><ele>673.0</ele><time>2026-04-29T08:21:30.981Z</time></trkpt><trkpt lat="38.1382609" lon="22.0844974"><ele>673.0</ele><time>2026-04-29T08:21:31.981Z</time></trkpt><trkpt lat="38.1381308" lon="22.0844975"><ele>673.0</ele><time>2026-04-29T08:21:32.98Z</time></trkpt><trkpt lat="38.1380036" lon="22.0844905"><ele>667.5999999999999</ele><time>2026-04-29T08:21:33.981Z</time></trkpt><trkpt lat="38.1379032" lon="22.0844906"><ele>662.1999999999999</ele><time>2026-04-29T08:21:34.98Z</time></trkpt><trkpt lat="38.1378108" lon="22.0844762"><ele>656.8</ele><time>2026-04-29T08:21:35.981Z</time></trkpt><trkpt lat="38.1377229" lon="22.0844267"><ele>651.4</ele><time>2026-04-29T08:21:36.98Z</time></trkpt><trkpt lat="38.1376435" lon="22.0843305"><ele>646.0</ele><time>2026-04-29T08:21:37.98Z</time></trkpt><trkpt lat="38.1375731" lon="22.0842184"><ele>646.0</ele><time>2026-04-29T08:21:38.981Z</time></trkpt><trkpt lat="38.1374982" lon="22.0841099"><ele>646.0</ele><time>2026-04-29T08:21:39.98Z</time></trkpt><trkpt lat="38.1374074" lon="22.0840216"><ele>646.0</ele><time>2026-04-29T08:21:40.981Z</time></trkpt><trkpt lat="38.1373089" lon="22.0839439"><ele>646.0</ele><time>2026-04-29T08:21:41.98Z</time></trkpt><trkpt lat="38.1371971" lon="22.0838689"><ele>650.75</ele><time>2026-04-29T08:21:42.981Z</time></trkpt><trkpt lat="38.1370975" lon="22.0837905"><ele>655.5</ele><time>2026-04-29T08:21:43.981Z</time></trkpt><trkpt lat="38.1369805" lon="22.0837312"><ele>660.25</ele><time>2026-04-29T08:21:44.98Z</time></trkpt><trkpt lat="38.1368517" lon="22.0836842"><ele>665.0</ele><time>2026-04-29T08:21:45.981Z</time></trkpt><trkpt lat="38.1367344" lon="22.0836335"><ele>665.0</ele><time>2026-04-29T08:21:46.981Z</time></trkpt><trkpt lat="38.1366191" lon="22.0835832"><ele>665.0</ele><time>2026-04-29T08:21:47.98Z</time></trkpt><trkpt lat="38.1365124" lon="22.0835413"><ele>665.0</ele><time>2026-04-29T08:21:48.98Z</time></trkpt><trkpt lat="38.1363926" lon="22.0835234"><ele>665.0</ele><time>2026-04-29T08:21:49.981Z</time></trkpt><trkpt lat="38.1362737" lon="22.0835267"><ele>658.25</ele><time>2026-04-29T08:21:50.98Z</time></trkpt><trkpt lat="38.1361597" lon="22.0835374"><ele>651.5</ele><time>2026-04-29T08:21:51.98Z</time></trkpt><trkpt lat="38.1360431" lon="22.0835596"><ele>644.75</ele><time>2026-04-29T08:21:52.981Z</time></trkpt><trkpt lat="38.1359253" lon="22.0836022"><ele>638.0</ele><time>2026-04-29T08:21:53.98Z</time></trkpt><trkpt lat="38.1358076" lon="22.083641"><ele>634.0</ele><time>2026-04-29T08:21:54.981Z</time></trkpt><trkpt lat="38.1357024" lon="22.0836432"><ele>630.0</ele><time>2026-04-29T08:21:55.98Z</time></trkpt><trkpt lat="38.1356019" lon="22.0836228"><ele>626.0</ele><time>2026-04-29T08:21:56.98Z</time></trkpt><trkpt lat="38.1355188" lon="22.0835723"><ele>622.0</ele><time>2026-04-29T08:21:57.981Z</time></trkpt><trkpt lat="38.1354606" lon="22.0834236"><ele>618.0</ele><time>2026-04-29T08:21:58.981Z</time></trkpt><trkpt lat="38.1354115" lon="22.0832717"><ele>621.75</ele><time>2026-04-29T08:21:59.98Z</time></trkpt><trkpt lat="38.1353789" lon="22.0831082"><ele>625.5</ele><time>2026-04-29T08:22:00.98Z</time></trkpt><trkpt lat="38.1353529" lon="22.0829491"><ele>629.25</ele><time>2026-04-29T08:22:01.981Z</time></trkpt><trkpt lat="38.1353401" lon="22.0827914"><ele>633.0</ele><time>2026-04-29T08:22:02.981Z</time></trkpt><trkpt lat="38.1353298" lon="22.0826471"><ele>633.0</ele><time>2026-04-29T08:22:03.981Z</time></trkpt><trkpt lat="38.1353083" lon="22.0825281"><ele>633.0</ele><time>2026-04-29T08:22:04.98Z</time></trkpt><trkpt lat="38.1352643" lon="22.0824363"><ele>633.0</ele><time>2026-04-29T08:22:05.981Z</time></trkpt><trkpt lat="38.135205" lon="22.0823737"><ele>633.0</ele><time>2026-04-29T08:22:06.981Z</time></trkpt><trkpt lat="38.1351297" lon="22.0823516"><ele>633.0</ele><time>2026-04-29T08:22:07.981Z</time></trkpt><trkpt lat="38.1350584" lon="22.0823683"><ele>633.0</ele><time>2026-04-29T08:22:08.981Z</time></trkpt><trkpt lat="38.1350065" lon="22.0824274"><ele>633.0</ele><time>2026-04-29T08:22:09.98Z</time></trkpt><trkpt lat="38.1349598" lon="22.0825184"><ele>633.0</ele><time>2026-04-29T08:22:10.98Z</time></trkpt><trkpt lat="38.1349108" lon="22.0826287"><ele>633.0</ele><time>2026-04-29T08:22:11.98Z</time></trkpt><trkpt lat="38.1348672" lon="22.0827518"><ele>633.0</ele><time>2026-04-29T08:22:12.981Z</time></trkpt><trkpt lat="38.1348138" lon="22.0828674"><ele>633.0</ele><time>2026-04-29T08:22:13.98Z</time></trkpt><trkpt lat="38.1347584" lon="22.0829884"><ele>637.5</ele><time>2026-04-29T08:22:14.981Z</time></trkpt><trkpt lat="38.1347199" lon="22.0831229"><ele>642.0</ele><time>2026-04-29T08:22:15.981Z</time></trkpt><trkpt lat="38.1346945" lon="22.0832604"><ele>646.5</ele><time>2026-04-29T08:22:16.981Z</time></trkpt><trkpt lat="38.1346754" lon="22.0833968"><ele>651.0</ele><time>2026-04-29T08:22:17.98Z</time></trkpt><trkpt lat="38.1346607" lon="22.0835468"><ele>651.0</ele><time>2026-04-29T08:22:18.981Z</time></trkpt><trkpt lat="38.1346227" lon="22.0836816"><ele>651.0</ele><time>2026-04-29T08:22:19.981Z</time></trkpt><trkpt lat="38.1345706" lon="22.0838012"><ele>651.0</ele><time>2026-04-29T08:22:20.981Z</time></trkpt><trkpt lat="38.1344989" lon="22.0838864"><ele>651.0</ele><time>2026-04-29T08:22:21.98Z</time></trkpt><trkpt lat="38.1344085" lon="22.0839373"><ele>651.0</ele><time>2026-04-29T08:22:22.981Z</time></trkpt><trkpt lat="38.1343137" lon="22.0839805"><ele>651.0</ele><time>2026-04-29T08:22:23.98Z</time></trkpt><trkpt lat="38.1342141" lon="22.084028"><ele>651.0</ele><time>2026-04-29T08:22:24.981Z</time></trkpt><trkpt lat="38.134123" lon="22.0840925"><ele>651.0</ele><time>2026-04-29T08:22:25.98Z</time></trkpt><trkpt lat="38.1340372" lon="22.0841693"><ele>651.0</ele><time>2026-04-29T08:22:26.981Z</time></trkpt><trkpt lat="38.1339571" lon="22.084266"><ele>651.0</ele><time>2026-04-29T08:22:27.981Z</time></trkpt><trkpt lat="38.1338728" lon="22.0844189"><ele>647.75</ele><time>2026-04-29T08:22:28.981Z</time></trkpt><trkpt lat="38.1338198" lon="22.0845572"><ele>644.5</ele><time>2026-04-29T08:22:29.98Z</time></trkpt><trkpt lat="38.1337811" lon="22.0846968"><ele>641.25</ele><time>2026-04-29T08:22:30.98Z</time></trkpt><trkpt lat="38.1337471" lon="22.0848479"><ele>638.0</ele><time>2026-04-29T08:22:31.981Z</time></trkpt><trkpt lat="38.1336995" lon="22.0849782"><ele>638.0</ele><time>2026-04-29T08:22:32.98Z</time></trkpt><trkpt lat="38.1336325" lon="22.0850825"><ele>638.0</ele><time>2026-04-29T08:22:33.981Z</time></trkpt><trkpt lat="38.1335368" lon="22.0851739"><ele>638.0</ele><time>2026-04-29T08:22:34.981Z</time></trkpt><trkpt lat="38.133428" lon="22.0852707"><ele>638.0</ele><time>2026-04-29T08:22:35.981Z</time></trkpt><trkpt lat="38.1333327" lon="22.0853909"><ele>638.0</ele><time>2026-04-29T08:22:36.98Z</time></trkpt><trkpt lat="38.1332537" lon="22.0855317"><ele>638.0</ele><time>2026-04-29T08:22:37.981Z</time></trkpt><trkpt lat="38.1331806" lon="22.0856736"><ele>638.0</ele><time>2026-04-29T08:22:38.98Z</time></trkpt><trkpt lat="38.1331064" lon="22.0858306"><ele>638.0</ele><time>2026-04-29T08:22:39.981Z</time></trkpt><trkpt lat="38.1330394" lon="22.0859835"><ele>644.25</ele><time>2026-04-29T08:22:40.98Z</time></trkpt><trkpt lat="38.1329667" lon="22.0861328"><ele>650.5</ele><time>2026-04-29T08:22:41.981Z</time></trkpt><trkpt lat="38.1328848" lon="22.0862645"><ele>656.75</ele><time>2026-04-29T08:22:42.981Z</time></trkpt><trkpt lat="38.1328093" lon="22.0863876"><ele>663.0</ele><time>2026-04-29T08:22:43.98Z</time></trkpt><trkpt lat="38.1327364" lon="22.0865164"><ele>660.75</ele><time>2026-04-29T08:22:44.981Z</time></trkpt><trkpt lat="38.1326574" lon="22.0866367"><ele>658.5</ele><time>2026-04-29T08:22:45.981Z</time></trkpt><trkpt lat="38.1325662" lon="22.0867436"><ele>656.25</ele><time>2026-04-29T08:22:46.981Z</time></trkpt><trkpt lat="38.1324746" lon="22.0868343"><ele>654.0</ele><time>2026-04-29T08:22:47.981Z</time></trkpt><trkpt lat="38.1323684" lon="22.0869002"><ele>654.0</ele><time>2026-04-29T08:22:48.98Z</time></trkpt><trkpt lat="38.1322556" lon="22.0869464"><ele>654.0</ele><time>2026-04-29T08:22:49.981Z</time></trkpt><trkpt lat="38.1321396" lon="22.0869788"><ele>654.0</ele><time>2026-04-29T08:22:50.98Z</time></trkpt><trkpt lat="38.1320262" lon="22.0870003"><ele>654.0</ele><time>2026-04-29T08:22:51.98Z</time></trkpt><trkpt lat="38.1319183" lon="22.0870104"><ele>654.0</ele><time>2026-04-29T08:22:52.981Z</time></trkpt><trkpt lat="38.1318164" lon="22.0870099"><ele>654.0</ele><time>2026-04-29T08:22:53.981Z</time></trkpt><trkpt lat="38.1317301" lon="22.0869984"><ele>654.0</ele><time>2026-04-29T08:22:54.981Z</time></trkpt><trkpt lat="38.1316515" lon="22.0869839"><ele>654.0</ele><time>2026-04-29T08:22:55.981Z</time></trkpt><trkpt lat="38.1315634" lon="22.086995"><ele>654.0</ele><time>2026-04-29T08:22:56.981Z</time></trkpt><trkpt lat="38.1314751" lon="22.087018"><ele>654.0</ele><time>2026-04-29T08:22:57.981Z</time></trkpt><trkpt lat="38.1313722" lon="22.0870924"><ele>653.5</ele><time>2026-04-29T08:22:58.98Z</time></trkpt><trkpt lat="38.131277" lon="22.0871587"><ele>653.0</ele><time>2026-04-29T08:22:59.98Z</time></trkpt><trkpt lat="38.1311772" lon="22.0872057"><ele>652.5</ele><time>2026-04-29T08:23:00.98Z</time></trkpt><trkpt lat="38.1310636" lon="22.0872284"><ele>652.0</ele><time>2026-04-29T08:23:01.98Z</time></trkpt><trkpt lat="38.1309409" lon="22.0872273"><ele>652.0</ele><time>2026-04-29T08:23:02.981Z</time></trkpt><trkpt lat="38.1308106" lon="22.0872197"><ele>652.0</ele><time>2026-04-29T08:23:03.98Z</time></trkpt><trkpt lat="38.1306697" lon="22.0872169"><ele>652.0</ele><time>2026-04-29T08:23:04.98Z</time></trkpt><trkpt lat="38.1305148" lon="22.0872256"><ele>652.0</ele><time>2026-04-29T08:23:05.98Z</time></trkpt><trkpt lat="38.1303577" lon="22.0872451"><ele>653.3333333333334</ele><time>2026-04-29T08:23:06.981Z</time></trkpt><trkpt lat="38.1302049" lon="22.0872732"><ele>654.6666666666666</ele><time>2026-04-29T08:23:07.981Z</time></trkpt><trkpt lat="38.1300579" lon="22.0873182"><ele>656.0</ele><time>2026-04-29T08:23:08.981Z</time></trkpt><trkpt lat="38.129917" lon="22.0873921"><ele>655.6666666666666</ele><time>2026-04-29T08:23:09.981Z</time></trkpt><trkpt lat="38.1297796" lon="22.0874911"><ele>655.3333333333334</ele><time>2026-04-29T08:23:10.98Z</time></trkpt><trkpt lat="38.1296427" lon="22.0875755"><ele>655.0</ele><time>2026-04-29T08:23:11.981Z</time></trkpt><trkpt lat="38.1295074" lon="22.087649"><ele>655.0</ele><time>2026-04-29T08:23:12.981Z</time></trkpt><trkpt lat="38.1293805" lon="22.0877217"><ele>655.0</ele><time>2026-04-29T08:23:13.981Z</time></trkpt><trkpt lat="38.1292649" lon="22.0878051"><ele>655.0</ele><time>2026-04-29T08:23:14.981Z</time></trkpt><trkpt lat="38.1291576" lon="22.0878929"><ele>655.0</ele><time>2026-04-29T08:23:15.98Z</time></trkpt><trkpt lat="38.129054" lon="22.0879853"><ele>658.0</ele><time>2026-04-29T08:23:16.981Z</time></trkpt><trkpt lat="38.1289517" lon="22.0880748"><ele>661.0</ele><time>2026-04-29T08:23:17.98Z</time></trkpt><trkpt lat="38.1288537" lon="22.0881665"><ele>664.0</ele><time>2026-04-29T08:23:18.98Z</time></trkpt><trkpt lat="38.1287671" lon="22.088268"><ele>667.0</ele><time>2026-04-29T08:23:19.981Z</time></trkpt><trkpt lat="38.1286994" lon="22.0883747"><ele>667.0</ele><time>2026-04-29T08:23:20.981Z</time></trkpt><trkpt lat="38.1286497" lon="22.0884882"><ele>667.0</ele><time>2026-04-29T08:23:21.981Z</time></trkpt><trkpt lat="38.1286241" lon="22.0886096"><ele>667.0</ele><time>2026-04-29T08:23:22.981Z</time></trkpt><trkpt lat="38.1286173" lon="22.0887287"><ele>667.0</ele><time>2026-04-29T08:23:23.981Z</time></trkpt><trkpt lat="38.1286136" lon="22.0888392"><ele>667.0</ele><time>2026-04-29T08:23:24.98Z</time></trkpt><trkpt lat="38.1286112" lon="22.08894"><ele>667.0</ele><time>2026-04-29T08:23:25.98Z</time></trkpt><trkpt lat="38.1285933" lon="22.0890454"><ele>667.0</ele><time>2026-04-29T08:23:26.981Z</time></trkpt><trkpt lat="38.1285386" lon="22.0891011"><ele>667.0</ele><time>2026-04-29T08:23:27.981Z</time></trkpt><trkpt lat="38.1284792" lon="22.089146"><ele>667.0</ele><time>2026-04-29T08:23:28.981Z</time></trkpt><trkpt lat="38.1283882" lon="22.0891678"><ele>667.0</ele><time>2026-04-29T08:23:29.98Z</time></trkpt><trkpt lat="38.1282679" lon="22.0891674"><ele>667.0</ele><time>2026-04-29T08:23:30.98Z</time></trkpt><trkpt lat="38.1281426" lon="22.0891555"><ele>664.75</ele><time>2026-04-29T08:23:31.981Z</time></trkpt><trkpt lat="38.1280243" lon="22.0891513"><ele>662.5</ele><time>2026-04-29T08:23:32.981Z</time></trkpt><trkpt lat="38.1278982" lon="22.0891361"><ele>660.25</ele><time>2026-04-29T08:23:33.981Z</time></trkpt><trkpt lat="38.1277957" lon="22.0891015"><ele>658.0</ele><time>2026-04-29T08:23:34.981Z</time></trkpt><trkpt lat="38.1276894" lon="22.0890925"><ele>658.0</ele><time>2026-04-29T08:23:35.981Z</time></trkpt><trkpt lat="38.1275845" lon="22.0891051"><ele>658.0</ele><time>2026-04-29T08:23:36.98Z</time></trkpt><trkpt lat="38.1274802" lon="22.0891273"><ele>658.0</ele><time>2026-04-29T08:23:37.981Z</time></trkpt><trkpt lat="38.1273771" lon="22.0892005"><ele>658.0</ele><time>2026-04-29T08:23:38.98Z</time></trkpt><trkpt lat="38.1272779" lon="22.0892792"><ele>658.0</ele><time>2026-04-29T08:23:39.98Z</time></trkpt><trkpt lat="38.1271909" lon="22.0893743"><ele>668.4</ele><time>2026-04-29T08:23:40.981Z</time></trkpt><trkpt lat="38.1271086" lon="22.0894764"><ele>678.8</ele><time>2026-04-29T08:23:41.981Z</time></trkpt><trkpt lat="38.1270386" lon="22.0895768"><ele>689.2</ele><time>2026-04-29T08:23:42.981Z</time></trkpt><trkpt lat="38.1269689" lon="22.0896753"><ele>699.6</ele><time>2026-04-29T08:23:43.98Z</time></trkpt><trkpt lat="38.1268997" lon="22.0897714"><ele>710.0</ele><time>2026-04-29T08:23:44.98Z</time></trkpt><trkpt lat="38.126832" lon="22.0898688"><ele>709.4</ele><time>2026-04-29T08:23:45.98Z</time></trkpt><trkpt lat="38.1267629" lon="22.0899658"><ele>708.8</ele><time>2026-04-29T08:23:46.981Z</time></trkpt><trkpt lat="38.1266818" lon="22.0900509"><ele>708.2</ele><time>2026-04-29T08:23:47.981Z</time></trkpt><trkpt lat="38.1265921" lon="22.0901213"><ele>707.6</ele><time>2026-04-29T08:23:48.98Z</time></trkpt><trkpt lat="38.1264803" lon="22.0901639"><ele>707.0</ele><time>2026-04-29T08:23:49.98Z</time></trkpt><trkpt lat="38.1263604" lon="22.0902107"><ele>707.0</ele><time>2026-04-29T08:23:50.98Z</time></trkpt><trkpt lat="38.1262394" lon="22.0902751"><ele>707.0</ele><time>2026-04-29T08:23:51.98Z</time></trkpt><trkpt lat="38.1261236" lon="22.0903469"><ele>707.0</ele><time>2026-04-29T08:23:52.98Z</time></trkpt><trkpt lat="38.1260145" lon="22.0904191"><ele>707.0</ele><time>2026-04-29T08:23:53.98Z</time></trkpt><trkpt lat="38.125907" lon="22.0904879"><ele>707.0</ele><time>2026-04-29T08:23:54.981Z</time></trkpt><trkpt lat="38.1258044" lon="22.0905664"><ele>707.0</ele><time>2026-04-29T08:23:55.98Z</time></trkpt><trkpt lat="38.1257166" lon="22.0906696"><ele>707.0</ele><time>2026-04-29T08:23:56.981Z</time></trkpt><trkpt lat="38.1256334" lon="22.0907767"><ele>707.0</ele><time>2026-04-29T08:23:57.98Z</time></trkpt><trkpt lat="38.1255403" lon="22.0908763"><ele>706.0</ele><time>2026-04-29T08:23:58.98Z</time></trkpt><trkpt lat="38.1254429" lon="22.0909785"><ele>705.0</ele><time>2026-04-29T08:23:59.981Z</time></trkpt><trkpt lat="38.1253521" lon="22.0910844"><ele>704.0</ele><time>2026-04-29T08:24:00.981Z</time></trkpt><trkpt lat="38.1252775" lon="22.0912016"><ele>703.0</ele><time>2026-04-29T08:24:01.98Z</time></trkpt><trkpt lat="38.1252198" lon="22.0913171"><ele>703.0</ele><time>2026-04-29T08:24:02.98Z</time></trkpt><trkpt lat="38.1251631" lon="22.0914312"><ele>703.0</ele><time>2026-04-29T08:24:03.981Z</time></trkpt><trkpt lat="38.1250848" lon="22.0915345"><ele>703.0</ele><time>2026-04-29T08:24:04.981Z</time></trkpt><trkpt lat="38.1249883" lon="22.0916209"><ele>703.0</ele><time>2026-04-29T08:24:05.98Z</time></trkpt><trkpt lat="38.1248845" lon="22.0916963"><ele>706.75</ele><time>2026-04-29T08:24:06.98Z</time></trkpt><trkpt lat="38.1247726" lon="22.0917763"><ele>710.5</ele><time>2026-04-29T08:24:07.98Z</time></trkpt><trkpt lat="38.1246683" lon="22.0918752"><ele>714.25</ele><time>2026-04-29T08:24:08.98Z</time></trkpt><trkpt lat="38.1245661" lon="22.0919824"><ele>718.0</ele><time>2026-04-29T08:24:09.981Z</time></trkpt><trkpt lat="38.1244641" lon="22.092095"><ele>718.0</ele><time>2026-04-29T08:24:10.98Z</time></trkpt><trkpt lat="38.1243597" lon="22.0921905"><ele>718.0</ele><time>2026-04-29T08:24:11.98Z</time></trkpt><trkpt lat="38.1242493" lon="22.0922776"><ele>718.0</ele><time>2026-04-29T08:24:12.981Z</time></trkpt><trkpt lat="38.1241244" lon="22.0923607"><ele>718.0</ele><time>2026-04-29T08:24:13.98Z</time></trkpt><trkpt lat="38.1239911" lon="22.0924231"><ele>716.0</ele><time>2026-04-29T08:24:14.981Z</time></trkpt><trkpt lat="38.1238482" lon="22.0924894"><ele>714.0</ele><time>2026-04-29T08:24:15.98Z</time></trkpt><trkpt lat="38.1237035" lon="22.0925572"><ele>712.0</ele><time>2026-04-29T08:24:16.981Z</time></trkpt><trkpt lat="38.1235572" lon="22.092633"><ele>712.0</ele><time>2026-04-29T08:24:17.98Z</time></trkpt><trkpt lat="38.1234141" lon="22.0926988"><ele>712.0</ele><time>2026-04-29T08:24:18.98Z</time></trkpt><trkpt lat="38.1232716" lon="22.0927489"><ele>712.0</ele><time>2026-04-29T08:24:19.981Z</time></trkpt><trkpt lat="38.1231178" lon="22.0927863"><ele>712.0</ele><time>2026-04-29T08:24:20.981Z</time></trkpt><trkpt lat="38.1229761" lon="22.0928225"><ele>712.0</ele><time>2026-04-29T08:24:21.981Z</time></trkpt><trkpt lat="38.1228317" lon="22.0928568"><ele>712.0</ele><time>2026-04-29T08:24:22.98Z</time></trkpt><trkpt lat="38.1226913" lon="22.092881"><ele>712.0</ele><time>2026-04-29T08:24:23.981Z</time></trkpt><trkpt lat="38.1225636" lon="22.0928857"><ele>712.0</ele><time>2026-04-29T08:24:24.981Z</time></trkpt><trkpt lat="38.1224345" lon="22.0928656"><ele>712.0</ele><time>2026-04-29T08:24:25.98Z</time></trkpt><trkpt lat="38.1223048" lon="22.0928097"><ele>712.0</ele><time>2026-04-29T08:24:26.98Z</time></trkpt><trkpt lat="38.1221709" lon="22.0927479"><ele>712.0</ele><time>2026-04-29T08:24:27.981Z</time></trkpt><trkpt lat="38.1220386" lon="22.0926885"><ele>709.25</ele><time>2026-04-29T08:24:28.981Z</time></trkpt><trkpt lat="38.1219072" lon="22.092617"><ele>706.5</ele><time>2026-04-29T08:24:29.98Z</time></trkpt><trkpt lat="38.1217884" lon="22.092566"><ele>703.75</ele><time>2026-04-29T08:24:30.981Z</time></trkpt><trkpt lat="38.1216784" lon="22.0924876"><ele>701.0</ele><time>2026-04-29T08:24:31.981Z</time></trkpt><trkpt lat="38.1215658" lon="22.0923908"><ele>701.25</ele><time>2026-04-29T08:24:32.98Z</time></trkpt><trkpt lat="38.1214576" lon="22.0922859"><ele>701.5</ele><time>2026-04-29T08:24:33.981Z</time></trkpt><trkpt lat="38.1213452" lon="22.0921818"><ele>701.75</ele><time>2026-04-29T08:24:34.98Z</time></trkpt><trkpt lat="38.1212276" lon="22.0920709"><ele>702.0</ele><time>2026-04-29T08:24:35.98Z</time></trkpt><trkpt lat="38.1211214" lon="22.0919744"><ele>702.0</ele><time>2026-04-29T08:24:36.98Z</time></trkpt><trkpt lat="38.1210169" lon="22.0918919"><ele>702.0</ele><time>2026-04-29T08:24:37.98Z</time></trkpt><trkpt lat="38.1209188" lon="22.0918125"><ele>702.0</ele><time>2026-04-29T08:24:38.981Z</time></trkpt><trkpt lat="38.1208331" lon="22.0917077"><ele>702.0</ele><time>2026-04-29T08:24:39.981Z</time></trkpt><trkpt lat="38.1207718" lon="22.0915754"><ele>702.2</ele><time>2026-04-29T08:24:40.98Z</time></trkpt><trkpt lat="38.1207312" lon="22.0914436"><ele>702.4000000000001</ele><time>2026-04-29T08:24:41.98Z</time></trkpt><trkpt lat="38.1206944" lon="22.0913232"><ele>702.5999999999999</ele><time>2026-04-29T08:24:42.98Z</time></trkpt><trkpt lat="38.1206209" lon="22.0912371"><ele>702.8</ele><time>2026-04-29T08:24:43.98Z</time></trkpt><trkpt lat="38.1205302" lon="22.0911747"><ele>703.0</ele><time>2026-04-29T08:24:44.981Z</time></trkpt><trkpt lat="38.1204263" lon="22.0911191"><ele>703.0</ele><time>2026-04-29T08:24:45.98Z</time></trkpt><trkpt lat="38.120329" lon="22.0910472"><ele>703.0</ele><time>2026-04-29T08:24:46.981Z</time></trkpt><trkpt lat="38.120232" lon="22.090948"><ele>703.0</ele><time>2026-04-29T08:24:47.98Z</time></trkpt><trkpt lat="38.1201456" lon="22.0908258"><ele>703.0</ele><time>2026-04-29T08:24:48.981Z</time></trkpt><trkpt lat="38.1200631" lon="22.0906901"><ele>703.5</ele><time>2026-04-29T08:24:49.98Z</time></trkpt><trkpt lat="38.11999" lon="22.0905359"><ele>704.0</ele><time>2026-04-29T08:24:50.981Z</time></trkpt><trkpt lat="38.1199196" lon="22.0904022"><ele>704.5</ele><time>2026-04-29T08:24:51.98Z</time></trkpt><trkpt lat="38.1198451" lon="22.0902777"><ele>705.0</ele><time>2026-04-29T08:24:52.981Z</time></trkpt><trkpt lat="38.1197614" lon="22.0901681"><ele>705.0</ele><time>2026-04-29T08:24:53.98Z</time></trkpt><trkpt lat="38.1196613" lon="22.0900735"><ele>705.0</ele><time>2026-04-29T08:24:54.98Z</time></trkpt><trkpt lat="38.1195468" lon="22.0900032"><ele>705.0</ele><time>2026-04-29T08:24:55.981Z</time></trkpt><trkpt lat="38.1194064" lon="22.0899331"><ele>705.0</ele><time>2026-04-29T08:24:56.98Z</time></trkpt><trkpt lat="38.1192635" lon="22.089856"><ele>707.3333333333334</ele><time>2026-04-29T08:24:57.981Z</time></trkpt><trkpt lat="38.1191177" lon="22.0897806"><ele>709.6666666666667</ele><time>2026-04-29T08:24:58.981Z</time></trkpt><trkpt lat="38.1189719" lon="22.0896961"><ele>712.0</ele><time>2026-04-29T08:24:59.981Z</time></trkpt><trkpt lat="38.1188289" lon="22.0896033"><ele>712.0</ele><time>2026-04-29T08:25:00.981Z</time></trkpt><trkpt lat="38.1186901" lon="22.0894994"><ele>712.0</ele><time>2026-04-29T08:25:01.98Z</time></trkpt><trkpt lat="38.1185555" lon="22.0893711"><ele>712.0</ele><time>2026-04-29T08:25:02.981Z</time></trkpt><trkpt lat="38.1184208" lon="22.0892359"><ele>712.0</ele><time>2026-04-29T08:25:03.981Z</time></trkpt><trkpt lat="38.1183023" lon="22.0890935"><ele>712.0</ele><time>2026-04-29T08:25:04.98Z</time></trkpt><trkpt lat="38.1181789" lon="22.0889611"><ele>712.0</ele><time>2026-04-29T08:25:05.981Z</time></trkpt><trkpt lat="38.1180666" lon="22.0888241"><ele>712.3333333333334</ele><time>2026-04-29T08:25:06.98Z</time></trkpt><trkpt lat="38.1179561" lon="22.0886818"><ele>712.6666666666666</ele><time>2026-04-29T08:25:07.981Z</time></trkpt><trkpt lat="38.1178449" lon="22.0885358"><ele>713.0</ele><time>2026-04-29T08:25:08.981Z</time></trkpt><trkpt lat="38.1177411" lon="22.0883823"><ele>714.0</ele><time>2026-04-29T08:25:09.981Z</time></trkpt><trkpt lat="38.1176354" lon="22.0882217"><ele>715.0</ele><time>2026-04-29T08:25:10.98Z</time></trkpt><trkpt lat="38.1175469" lon="22.0880412"><ele>716.0</ele><time>2026-04-29T08:25:11.981Z</time></trkpt><trkpt lat="38.117469" lon="22.0878546"><ele>716.25</ele><time>2026-04-29T08:25:12.981Z</time></trkpt><trkpt lat="38.1173866" lon="22.0876748"><ele>716.5</ele><time>2026-04-29T08:25:13.981Z</time></trkpt><trkpt lat="38.1173098" lon="22.0875153"><ele>716.75</ele><time>2026-04-29T08:25:14.98Z</time></trkpt><trkpt lat="38.1172472" lon="22.0873638"><ele>717.0</ele><time>2026-04-29T08:25:15.98Z</time></trkpt><trkpt lat="38.1171888" lon="22.0872195"><ele>718.2</ele><time>2026-04-29T08:25:16.981Z</time></trkpt><trkpt lat="38.1171332" lon="22.0871087"><ele>719.4000000000001</ele><time>2026-04-29T08:25:17.981Z</time></trkpt><trkpt lat="38.1170796" lon="22.0870335"><ele>720.5999999999999</ele><time>2026-04-29T08:25:18.98Z</time></trkpt><trkpt lat="38.1169965" lon="22.0870077"><ele>721.8</ele><time>2026-04-29T08:25:19.98Z</time></trkpt><trkpt lat="38.1169112" lon="22.0870186"><ele>723.0</ele><time>2026-04-29T08:25:20.98Z</time></trkpt><trkpt lat="38.1168091" lon="22.0870825"><ele>723.0</ele><time>2026-04-29T08:25:21.981Z</time></trkpt><trkpt lat="38.1167103" lon="22.087183"><ele>723.0</ele><time>2026-04-29T08:25:22.981Z</time></trkpt><trkpt lat="38.1166171" lon="22.0872844"><ele>723.0</ele><time>2026-04-29T08:25:23.981Z</time></trkpt><trkpt lat="38.1165066" lon="22.0873143"><ele>723.0</ele><time>2026-04-29T08:25:24.981Z</time></trkpt><trkpt lat="38.1163906" lon="22.0873439"><ele>726.5</ele><time>2026-04-29T08:25:25.981Z</time></trkpt><trkpt lat="38.1162558" lon="22.0873041"><ele>730.0</ele><time>2026-04-29T08:25:26.98Z</time></trkpt><trkpt lat="38.1161251" lon="22.0872659"><ele>733.5</ele><time>2026-04-29T08:25:27.981Z</time></trkpt><trkpt lat="38.1159907" lon="22.0872106"><ele>737.0</ele><time>2026-04-29T08:25:28.981Z</time></trkpt><trkpt lat="38.1158623" lon="22.0871249"><ele>737.75</ele><time>2026-04-29T08:25:29.98Z</time></trkpt><trkpt lat="38.1157329" lon="22.0870153"><ele>738.5</ele><time>2026-04-29T08:25:30.981Z</time></trkpt><trkpt lat="38.1156105" lon="22.0869319"><ele>739.25</ele><time>2026-04-29T08:25:31.981Z</time></trkpt><trkpt lat="38.1154832" lon="22.0868798"><ele>740.0</ele><time>2026-04-29T08:25:32.981Z</time></trkpt><trkpt lat="38.1153476" lon="22.0868536"><ele>740.0</ele><time>2026-04-29T08:25:33.98Z</time></trkpt><trkpt lat="38.1152037" lon="22.0868319"><ele>740.0</ele><time>2026-04-29T08:25:34.981Z</time></trkpt><trkpt lat="38.1150612" lon="22.0867817"><ele>740.0</ele><time>2026-04-29T08:25:35.981Z</time></trkpt><trkpt lat="38.1149128" lon="22.0867072"><ele>739.75</ele><time>2026-04-29T08:25:36.981Z</time></trkpt><trkpt lat="38.1147885" lon="22.0866302"><ele>739.5</ele><time>2026-04-29T08:25:37.98Z</time></trkpt><trkpt lat="38.1146779" lon="22.0865757"><ele>739.25</ele><time>2026-04-29T08:25:38.98Z</time></trkpt><trkpt lat="38.1145663" lon="22.086538"><ele>739.0</ele><time>2026-04-29T08:25:39.98Z</time></trkpt><trkpt lat="38.1144472" lon="22.0865371"><ele>739.0</ele><time>2026-04-29T08:25:40.981Z</time></trkpt><trkpt lat="38.1143151" lon="22.0865668"><ele>739.0</ele><time>2026-04-29T08:25:41.98Z</time></trkpt><trkpt lat="38.1141891" lon="22.08661"><ele>739.0</ele><time>2026-04-29T08:25:42.98Z</time></trkpt><trkpt lat="38.1140642" lon="22.0866538"><ele>739.0</ele><time>2026-04-29T08:25:43.98Z</time></trkpt><trkpt lat="38.1139408" lon="22.0866966"><ele>740.25</ele><time>2026-04-29T08:25:44.98Z</time></trkpt><trkpt lat="38.1138252" lon="22.0867482"><ele>741.5</ele><time>2026-04-29T08:25:45.98Z</time></trkpt><trkpt lat="38.1137178" lon="22.0867966"><ele>742.75</ele><time>2026-04-29T08:25:46.981Z</time></trkpt><trkpt lat="38.1136088" lon="22.0868426"><ele>744.0</ele><time>2026-04-29T08:25:47.981Z</time></trkpt><trkpt lat="38.1134951" lon="22.0868721"><ele>744.0</ele><time>2026-04-29T08:25:48.981Z</time></trkpt><trkpt lat="38.1133773" lon="22.0868952"><ele>744.0</ele><time>2026-04-29T08:25:49.981Z</time></trkpt><trkpt lat="38.113268" lon="22.086883"><ele>744.0</ele><time>2026-04-29T08:25:50.981Z</time></trkpt><trkpt lat="38.1131605" lon="22.0868909"><ele>744.0</ele><time>2026-04-29T08:25:51.98Z</time></trkpt><trkpt lat="38.1130647" lon="22.0868912"><ele>744.0</ele><time>2026-04-29T08:25:52.981Z</time></trkpt><trkpt lat="38.1129765" lon="22.0869075"><ele>744.5</ele><time>2026-04-29T08:25:53.981Z</time></trkpt><trkpt lat="38.112905" lon="22.086911"><ele>745.0</ele><time>2026-04-29T08:25:54.981Z</time></trkpt><trkpt lat="38.1128326" lon="22.0869296"><ele>745.5</ele><time>2026-04-29T08:25:55.98Z</time></trkpt><trkpt lat="38.1127625" lon="22.0869632"><ele>746.0</ele><time>2026-04-29T08:25:56.98Z</time></trkpt><trkpt lat="38.1126977" lon="22.0870165"><ele>746.5</ele><time>2026-04-29T08:25:57.98Z</time></trkpt><trkpt lat="38.1126226" lon="22.0870685"><ele>747.0</ele><time>2026-04-29T08:25:58.981Z</time></trkpt><trkpt lat="38.1125461" lon="22.0871176"><ele>747.0</ele><time>2026-04-29T08:25:59.981Z</time></trkpt><trkpt lat="38.1124771" lon="22.0871524"><ele>747.0</ele><time>2026-04-29T08:26:00.981Z</time></trkpt><trkpt lat="38.1124166" lon="22.0871789"><ele>747.0</ele><time>2026-04-29T08:26:01.98Z</time></trkpt><trkpt lat="38.1123526" lon="22.0871992"><ele>747.0</ele><time>2026-04-29T08:26:02.981Z</time></trkpt><trkpt lat="38.1122353" lon="22.0872418"><ele>747.0</ele><time>2026-04-29T08:26:04.981Z</time></trkpt><trkpt lat="38.1121546" lon="22.0872965"><ele>747.0</ele><time>2026-04-29T08:26:06.98Z</time></trkpt><trkpt lat="38.1121078" lon="22.087381"><ele>748.1666666666666</ele><time>2026-04-29T08:26:08.981Z</time></trkpt><trkpt lat="38.1120558" lon="22.0874492"><ele>749.3333333333334</ele><time>2026-04-29T08:26:10.981Z</time></trkpt><trkpt lat="38.1119835" lon="22.0874445"><ele>750.5</ele><time>2026-04-29T08:26:13.98Z</time></trkpt><trkpt lat="38.1119351" lon="22.0873487"><ele>751.6666666666667</ele><time>2026-04-29T08:26:16.98Z</time></trkpt><trkpt lat="38.1118834" lon="22.0872669"><ele>752.8333333333334</ele><time>2026-04-29T08:26:18.981Z</time></trkpt><trkpt lat="38.1118313" lon="22.0871848"><ele>754.0</ele><time>2026-04-29T08:26:20.98Z</time></trkpt><trkpt lat="38.1117831" lon="22.087115"><ele>754.2857142857142</ele><time>2026-04-29T08:26:22.98Z</time></trkpt><trkpt lat="38.1117095" lon="22.0871224"><ele>754.5714285714286</ele><time>2026-04-29T08:28:14.981Z</time></trkpt><trkpt lat="38.1117536" lon="22.0871801"><ele>754.8571428571429</ele><time>2026-04-29T08:28:23.98Z</time></trkpt><trkpt lat="38.1118131" lon="22.0872111"><ele>755.1428571428571</ele><time>2026-04-29T08:28:30.98Z</time></trkpt><trkpt lat="38.1118671" lon="22.0872525"><ele>755.4285714285714</ele><time>2026-04-29T08:28:39.981Z</time></trkpt><trkpt lat="38.1119279" lon="22.0872904"><ele>755.7142857142857</ele><time>2026-04-29T08:29:11.981Z</time></trkpt><trkpt lat="38.1118721" lon="22.0872371"><ele>756.0</ele><time>2026-04-29T08:29:27.981Z</time></trkpt><trkpt lat="38.1118257" lon="22.0871779"><ele>756.0</ele><time>2026-04-29T08:29:34.913Z</time></trkpt><trkpt lat="38.111761" lon="22.0871297"><ele>756.0</ele><time>2026-04-29T08:29:43.989Z</time></trkpt><trkpt lat="38.1117033" lon="22.0870961"><ele>756.0</ele><time>2026-04-29T08:29:49.981Z</time></trkpt><trkpt lat="38.1116435" lon="22.0870577"><ele>756.0</ele><time>2026-04-29T08:29:55.98Z</time></trkpt><trkpt lat="38.111576" lon="22.0870267"><ele>756.0</ele><time>2026-04-29T08:30:03.98Z</time></trkpt><trkpt lat="38.1116344" lon="22.0869961"><ele>756.0</ele><time>2026-04-29T08:30:40.981Z</time></trkpt><trkpt lat="38.1115588" lon="22.0870184"><ele>756.0</ele><time>2026-04-29T08:31:48.98Z</time></trkpt><trkpt lat="38.1114886" lon="22.0870297"><ele>757.1428571428571</ele><time>2026-04-29T08:31:54.975Z</time></trkpt><trkpt lat="38.1114719" lon="22.0869478"><ele>758.2857142857142</ele><time>2026-04-29T08:32:01.981Z</time></trkpt><trkpt lat="38.1115043" lon="22.0868652"><ele>759.4285714285714</ele><time>2026-04-29T08:32:17.98Z</time></trkpt><trkpt lat="38.1115575" lon="22.0868215"><ele>760.5714285714286</ele><time>2026-04-29T08:32:25.98Z</time></trkpt><trkpt lat="38.1115183" lon="22.0868917"><ele>761.7142857142857</ele><time>2026-04-29T08:32:56.981Z</time></trkpt><trkpt lat="38.1114611" lon="22.086943"><ele>762.8571428571429</ele><time>2026-04-29T08:33:48.98Z</time></trkpt><trkpt lat="38.1114835" lon="22.087023"><ele>764.0</ele><time>2026-04-29T08:33:57.889Z</time></trkpt><trkpt lat="38.1115503" lon="22.0870149"><ele>764.0</ele><time>2026-04-29T08:34:05.981Z</time></trkpt><trkpt lat="38.1116138" lon="22.0869905"><ele>764.0</ele><time>2026-04-29T08:34:40.98Z</time></trkpt><trkpt lat="38.1115374" lon="22.0870008"><ele>764.0</ele><time>2026-04-29T08:43:50.98Z</time></trkpt><trkpt lat="38.1114677" lon="22.0869855"><ele>764.0</ele><time>2026-04-29T08:43:58.98Z</time></trkpt><trkpt lat="38.1114316" lon="22.0869117"><ele>764.0</ele><time>2026-04-29T08:44:06.98Z</time></trkpt><trkpt lat="38.1114413" lon="22.0870005"><ele>764.0</ele><time>2026-04-29T08:44:38.98Z</time></trkpt><trkpt lat="38.1115117" lon="22.0870304"><ele>764.0</ele><time>2026-04-29T08:44:43.874Z</time></trkpt><trkpt lat="38.1115825" lon="22.0870121"><ele>764.0</ele><time>2026-04-29T08:44:48.98Z</time></trkpt><trkpt lat="38.1116529" lon="22.0870541"><ele>764.0</ele><time>2026-04-29T08:46:12.981Z</time></trkpt><trkpt lat="38.1117165" lon="22.0870933"><ele>764.0</ele><time>2026-04-29T08:46:18.981Z</time></trkpt><trkpt lat="38.1117798" lon="22.0871245"><ele>764.0</ele><time>2026-04-29T08:46:36.981Z</time></trkpt><trkpt lat="38.1116654" lon="22.0870914"><ele>764.0</ele><time>2026-04-29T08:49:43.977Z</time></trkpt><trkpt lat="38.1116004" lon="22.0870773"><ele>764.0</ele><time>2026-04-29T08:49:44.977Z</time></trkpt><trkpt lat="38.111521" lon="22.0870273"><ele>764.0</ele><time>2026-04-29T08:49:45.977Z</time></trkpt><trkpt lat="38.1114572" lon="22.0869848"><ele>764.0</ele><time>2026-04-29T08:49:46.977Z</time></trkpt><trkpt lat="38.1113847" lon="22.0869468"><ele>764.0</ele><time>2026-04-29T08:49:47.976Z</time></trkpt><trkpt lat="38.111316" lon="22.0869241"><ele>764.0</ele><time>2026-04-29T08:49:48.976Z</time></trkpt><trkpt lat="38.1112444" lon="22.0869252"><ele>764.0</ele><time>2026-04-29T08:49:49.976Z</time></trkpt><trkpt lat="38.1111678" lon="22.0869555"><ele>764.0</ele><time>2026-04-29T08:49:50.976Z</time></trkpt><trkpt lat="38.1110834" lon="22.0869865"><ele>764.0</ele><time>2026-04-29T08:49:51.977Z</time></trkpt><trkpt lat="38.1109937" lon="22.0870179"><ele>764.0</ele><time>2026-04-29T08:49:52.977Z</time></trkpt><trkpt lat="38.1108956" lon="22.0870422"><ele>764.0</ele><time>2026-04-29T08:49:53.977Z</time></trkpt><trkpt lat="38.1108051" lon="22.0870783"><ele>764.0</ele><time>2026-04-29T08:49:54.976Z</time></trkpt><trkpt lat="38.1107133" lon="22.0871015"><ele>764.0</ele><time>2026-04-29T08:49:55.977Z</time></trkpt><trkpt lat="38.1106326" lon="22.0871356"><ele>766.0</ele><time>2026-04-29T08:49:56.976Z</time></trkpt><trkpt lat="38.110556" lon="22.0871684"><ele>768.0</ele><time>2026-04-29T08:49:57.976Z</time></trkpt><trkpt lat="38.1104783" lon="22.0872057"><ele>770.0</ele><time>2026-04-29T08:49:58.976Z</time></trkpt><trkpt lat="38.1104122" lon="22.087226"><ele>772.0</ele><time>2026-04-29T08:49:59.977Z</time></trkpt><trkpt lat="38.110335" lon="22.0872473"><ele>774.0000000000001</ele><time>2026-04-29T08:50:00.977Z</time></trkpt><trkpt lat="38.110267" lon="22.0872582"><ele>776.0</ele><time>2026-04-29T08:50:01.976Z</time></trkpt><trkpt lat="38.1101901" lon="22.0872656"><ele>776.0000000000001</ele><time>2026-04-29T08:50:03.976Z</time></trkpt><trkpt lat="38.1101471" lon="22.087197"><ele>776.0</ele><time>2026-04-29T08:50:05.977Z</time></trkpt><trkpt lat="38.1101352" lon="22.0870168"><ele>776.0</ele><time>2026-04-29T08:50:07.977Z</time></trkpt><trkpt lat="38.1101349" lon="22.0869276"><ele>776.0</ele><time>2026-04-29T08:50:08.976Z</time></trkpt><trkpt lat="38.1101256" lon="22.0868469"><ele>776.0000000000001</ele><time>2026-04-29T08:50:09.977Z</time></trkpt><trkpt lat="38.1100817" lon="22.0867814"><ele>776.0</ele><time>2026-04-29T08:50:10.976Z</time></trkpt><trkpt lat="38.1100326" lon="22.0867233"><ele>776.0000000000001</ele><time>2026-04-29T08:50:11.976Z</time></trkpt><trkpt lat="38.1099847" lon="22.0866453"><ele>776.0</ele><time>2026-04-29T08:50:12.976Z</time></trkpt><trkpt lat="38.1099501" lon="22.0865442"><ele>776.0</ele><time>2026-04-29T08:50:13.977Z</time></trkpt><trkpt lat="38.1099224" lon="22.0864279"><ele>776.0</ele><time>2026-04-29T08:50:14.976Z</time></trkpt><trkpt lat="38.1099079" lon="22.0863037"><ele>776.0000000000001</ele><time>2026-04-29T08:50:15.977Z</time></trkpt><trkpt lat="38.1098946" lon="22.0861929"><ele>776.0</ele><time>2026-04-29T08:50:16.977Z</time></trkpt><trkpt lat="38.1099011" lon="22.0860905"><ele>776.1666666666667</ele><time>2026-04-29T08:50:17.976Z</time></trkpt><trkpt lat="38.1099193" lon="22.0859145"><ele>776.3333333333334</ele><time>2026-04-29T08:50:19.976Z</time></trkpt><trkpt lat="38.1099321" lon="22.085833"><ele>776.5</ele><time>2026-04-29T08:50:20.976Z</time></trkpt><trkpt lat="38.1099613" lon="22.0857417"><ele>776.6666666666667</ele><time>2026-04-29T08:50:21.977Z</time></trkpt><trkpt lat="38.1099998" lon="22.0856545"><ele>776.8333333333334</ele><time>2026-04-29T08:50:22.977Z</time></trkpt><trkpt lat="38.1100408" lon="22.0855671"><ele>777.0</ele><time>2026-04-29T08:50:23.976Z</time></trkpt><trkpt lat="38.1100889" lon="22.085477"><ele>777.0</ele><time>2026-04-29T08:50:24.976Z</time></trkpt><trkpt lat="38.1101394" lon="22.0853859"><ele>777.0</ele><time>2026-04-29T08:50:25.976Z</time></trkpt><trkpt lat="38.1101968" lon="22.0853024"><ele>777.0</ele><time>2026-04-29T08:50:26.976Z</time></trkpt><trkpt lat="38.1102508" lon="22.0852214"><ele>777.0</ele><time>2026-04-29T08:50:27.977Z</time></trkpt><trkpt lat="38.1103002" lon="22.0851406"><ele>777.0</ele><time>2026-04-29T08:50:28.977Z</time></trkpt><trkpt lat="38.1103445" lon="22.0850585"><ele>777.0</ele><time>2026-04-29T08:50:29.977Z</time></trkpt><trkpt lat="38.1103871" lon="22.0849729"><ele>779.3333333333334</ele><time>2026-04-29T08:50:30.977Z</time></trkpt><trkpt lat="38.1104334" lon="22.084881"><ele>781.6666666666667</ele><time>2026-04-29T08:50:31.977Z</time></trkpt><trkpt lat="38.1104816" lon="22.0847984"><ele>784.0</ele><time>2026-04-29T08:50:32.977Z</time></trkpt><trkpt lat="38.1105424" lon="22.0847136"><ele>786.3333333333334</ele><time>2026-04-29T08:50:33.977Z</time></trkpt><trkpt lat="38.1105998" lon="22.0846388"><ele>788.6666666666667</ele><time>2026-04-29T08:50:34.977Z</time></trkpt><trkpt lat="38.1106518" lon="22.0845714"><ele>791.0</ele><time>2026-04-29T08:50:35.977Z</time></trkpt><trkpt lat="38.1107244" lon="22.0844685"><ele>791.0000000000001</ele><time>2026-04-29T08:50:37.977Z</time></trkpt><trkpt lat="38.1107122" lon="22.0843625"><ele>791.0</ele><time>2026-04-29T08:50:39.977Z</time></trkpt><trkpt lat="38.1106147" lon="22.0843491"><ele>791.0</ele><time>2026-04-29T08:50:41.977Z</time></trkpt><trkpt lat="38.1105188" lon="22.0843613"><ele>791.0</ele><time>2026-04-29T08:50:42.977Z</time></trkpt><trkpt lat="38.1104372" lon="22.084379"><ele>791.0000000000001</ele><time>2026-04-29T08:50:43.976Z</time></trkpt><trkpt lat="38.1103567" lon="22.0843899"><ele>791.0</ele><time>2026-04-29T08:50:44.976Z</time></trkpt><trkpt lat="38.110278" lon="22.0843921"><ele>791.0000000000001</ele><time>2026-04-29T08:50:45.977Z</time></trkpt><trkpt lat="38.1101876" lon="22.084399"><ele>791.0</ele><time>2026-04-29T08:50:46.976Z</time></trkpt><trkpt lat="38.1101123" lon="22.0843969"><ele>791.0</ele><time>2026-04-29T08:50:47.976Z</time></trkpt><trkpt lat="38.1100272" lon="22.0843979"><ele>791.0</ele><time>2026-04-29T08:50:48.977Z</time></trkpt><trkpt lat="38.1099282" lon="22.0844029"><ele>791.0000000000001</ele><time>2026-04-29T08:50:49.976Z</time></trkpt><trkpt lat="38.1098311" lon="22.0844181"><ele>791.0</ele><time>2026-04-29T08:50:50.976Z</time></trkpt><trkpt lat="38.1097454" lon="22.0844416"><ele>792.3333333333334</ele><time>2026-04-29T08:50:51.976Z</time></trkpt><trkpt lat="38.1096562" lon="22.0844575"><ele>793.6666666666667</ele><time>2026-04-29T08:50:52.976Z</time></trkpt><trkpt lat="38.1095705" lon="22.0844727"><ele>795.0</ele><time>2026-04-29T08:50:53.976Z</time></trkpt><trkpt lat="38.109504" lon="22.0844956"><ele>796.3333333333333</ele><time>2026-04-29T08:50:54.977Z</time></trkpt><trkpt lat="38.1094137" lon="22.0845"><ele>797.6666666666666</ele><time>2026-04-29T08:50:55.977Z</time></trkpt><trkpt lat="38.1093397" lon="22.0844954"><ele>799.0</ele><time>2026-04-29T08:50:56.977Z</time></trkpt><trkpt lat="38.1092564" lon="22.0844969"><ele>798.9999999999999</ele><time>2026-04-29T08:50:57.976Z</time></trkpt><trkpt lat="38.1091727" lon="22.0844922"><ele>799.0</ele><time>2026-04-29T08:50:58.976Z</time></trkpt><trkpt lat="38.109102" lon="22.0844982"><ele>799.0</ele><time>2026-04-29T08:50:59.977Z</time></trkpt><trkpt lat="38.1090286" lon="22.0845182"><ele>799.0</ele><time>2026-04-29T08:51:00.977Z</time></trkpt><trkpt lat="38.1089122" lon="22.0845093"><ele>798.9999999999999</ele><time>2026-04-29T08:51:02.977Z</time></trkpt><trkpt lat="38.1088881" lon="22.0843836"><ele>799.0</ele><time>2026-04-29T08:51:04.977Z</time></trkpt><trkpt lat="38.1089686" lon="22.0842377"><ele>798.9999999999999</ele><time>2026-04-29T08:51:06.976Z</time></trkpt><trkpt lat="38.109029" lon="22.0841661"><ele>799.0</ele><time>2026-04-29T08:51:07.977Z</time></trkpt><trkpt lat="38.1090935" lon="22.0840991"><ele>799.0</ele><time>2026-04-29T08:51:08.977Z</time></trkpt><trkpt lat="38.1091479" lon="22.0840159"><ele>799.0</ele><time>2026-04-29T08:51:09.977Z</time></trkpt><trkpt lat="38.1091867" lon="22.0839163"><ele>798.9999999999999</ele><time>2026-04-29T08:51:10.977Z</time></trkpt><trkpt lat="38.1092165" lon="22.083808"><ele>799.0</ele><time>2026-04-29T08:51:11.977Z</time></trkpt><trkpt lat="38.1092428" lon="22.0836831"><ele>801.6</ele><time>2026-04-29T08:51:12.977Z</time></trkpt><trkpt lat="38.1092735" lon="22.0835657"><ele>804.2</ele><time>2026-04-29T08:51:13.977Z</time></trkpt><trkpt lat="38.1093067" lon="22.0834563"><ele>806.8000000000001</ele><time>2026-04-29T08:51:14.977Z</time></trkpt><trkpt lat="38.109344" lon="22.0833481"><ele>809.4000000000001</ele><time>2026-04-29T08:51:15.976Z</time></trkpt><trkpt lat="38.1093893" lon="22.0832518"><ele>812.0</ele><time>2026-04-29T08:51:16.976Z</time></trkpt><trkpt lat="38.1094463" lon="22.0831705"><ele>815.8333333333334</ele><time>2026-04-29T08:51:17.976Z</time></trkpt><trkpt lat="38.1094995" lon="22.0830914"><ele>819.6666666666667</ele><time>2026-04-29T08:51:18.976Z</time></trkpt><trkpt lat="38.1095596" lon="22.0830195"><ele>823.5</ele><time>2026-04-29T08:51:19.977Z</time></trkpt><trkpt lat="38.1096337" lon="22.0829572"><ele>827.3333333333333</ele><time>2026-04-29T08:51:20.977Z</time></trkpt><trkpt lat="38.1097122" lon="22.0829018"><ele>831.1666666666666</ele><time>2026-04-29T08:51:21.977Z</time></trkpt><trkpt lat="38.1097927" lon="22.0828661"><ele>835.0</ele><time>2026-04-29T08:51:22.976Z</time></trkpt><trkpt lat="38.1098804" lon="22.0828198"><ele>833.4</ele><time>2026-04-29T08:51:23.977Z</time></trkpt><trkpt lat="38.1099735" lon="22.0827954"><ele>831.8</ele><time>2026-04-29T08:51:24.977Z</time></trkpt><trkpt lat="38.1100705" lon="22.0827824"><ele>830.2</ele><time>2026-04-29T08:51:25.977Z</time></trkpt><trkpt lat="38.1101647" lon="22.082778"><ele>828.6</ele><time>2026-04-29T08:51:26.977Z</time></trkpt><trkpt lat="38.1102592" lon="22.0827654"><ele>827.0</ele><time>2026-04-29T08:51:27.976Z</time></trkpt><trkpt lat="38.110352" lon="22.0827644"><ele>827.0</ele><time>2026-04-29T08:51:28.976Z</time></trkpt><trkpt lat="38.1104379" lon="22.0827865"><ele>827.0</ele><time>2026-04-29T08:51:29.977Z</time></trkpt><trkpt lat="38.1105168" lon="22.0828516"><ele>827.0</ele><time>2026-04-29T08:51:30.976Z</time></trkpt><trkpt lat="38.1105963" lon="22.082916"><ele>827.0</ele><time>2026-04-29T08:51:31.977Z</time></trkpt><trkpt lat="38.1106862" lon="22.0829692"><ele>827.0</ele><time>2026-04-29T08:51:32.977Z</time></trkpt><trkpt lat="38.1107839" lon="22.0830067"><ele>829.4000000000001</ele><time>2026-04-29T08:51:33.976Z</time></trkpt><trkpt lat="38.1108824" lon="22.0830331"><ele>831.8000000000001</ele><time>2026-04-29T08:51:34.976Z</time></trkpt><trkpt lat="38.1109882" lon="22.0830563"><ele>834.2</ele><time>2026-04-29T08:51:35.976Z</time></trkpt><trkpt lat="38.1110842" lon="22.0830807"><ele>836.6</ele><time>2026-04-29T08:51:36.976Z</time></trkpt><trkpt lat="38.1111705" lon="22.0831134"><ele>839.0</ele><time>2026-04-29T08:51:37.977Z</time></trkpt><trkpt lat="38.1112323" lon="22.08315"><ele>839.0000000000001</ele><time>2026-04-29T08:51:38.977Z</time></trkpt><trkpt lat="38.1113227" lon="22.0832034"><ele>839.0</ele><time>2026-04-29T08:51:40.976Z</time></trkpt><trkpt lat="38.1113894" lon="22.0832008"><ele>839.0</ele><time>2026-04-29T08:51:42.977Z</time></trkpt><trkpt lat="38.1114293" lon="22.0831377"><ele>839.0</ele><time>2026-04-29T08:52:46.977Z</time></trkpt><trkpt lat="38.1113446" lon="22.0831629"><ele>839.0000000000001</ele><time>2026-04-29T08:55:17.976Z</time></trkpt><trkpt lat="38.1112815" lon="22.0831012"><ele>839.0</ele><time>2026-04-29T08:55:18.977Z</time></trkpt><trkpt lat="38.1112174" lon="22.0830775"><ele>839.0000000000001</ele><time>2026-04-29T08:55:19.976Z</time></trkpt><trkpt lat="38.1111432" lon="22.083062"><ele>839.0</ele><time>2026-04-29T08:55:20.976Z</time></trkpt><trkpt lat="38.1110636" lon="22.0830471"><ele>839.0</ele><time>2026-04-29T08:55:21.976Z</time></trkpt><trkpt lat="38.110986" lon="22.0830386"><ele>839.0</ele><time>2026-04-29T08:55:22.977Z</time></trkpt><trkpt lat="38.1109007" lon="22.0830249"><ele>839.0000000000001</ele><time>2026-04-29T08:55:23.977Z</time></trkpt><trkpt lat="38.1108106" lon="22.082995"><ele>839.0</ele><time>2026-04-29T08:55:24.977Z</time></trkpt><trkpt lat="38.1107131" lon="22.0829675"><ele>836.0</ele><time>2026-04-29T08:55:25.976Z</time></trkpt><trkpt lat="38.1106218" lon="22.0829189"><ele>833.0</ele><time>2026-04-29T08:55:26.977Z</time></trkpt><trkpt lat="38.1104634" lon="22.0828451"><ele>830.0</ele><time>2026-04-29T08:55:28.945Z</time></trkpt><trkpt lat="38.1102964" lon="22.0828028"><ele>827.0</ele><time>2026-04-29T08:55:30.972Z</time></trkpt><trkpt lat="38.1101972" lon="22.082811"><ele>827.0</ele><time>2026-04-29T08:55:31.973Z</time></trkpt><trkpt lat="38.1101043" lon="22.0828266"><ele>827.0</ele><time>2026-04-29T08:55:32.973Z</time></trkpt><trkpt lat="38.1100117" lon="22.0828388"><ele>827.0</ele><time>2026-04-29T08:55:33.972Z</time></trkpt><trkpt lat="38.1099174" lon="22.0828463"><ele>827.0</ele><time>2026-04-29T08:55:34.972Z</time></trkpt><trkpt lat="38.1098274" lon="22.0828711"><ele>827.0</ele><time>2026-04-29T08:55:35.972Z</time></trkpt><trkpt lat="38.1097336" lon="22.0829074"><ele>828.6</ele><time>2026-04-29T08:55:36.972Z</time></trkpt><trkpt lat="38.1096457" lon="22.0829569"><ele>830.2</ele><time>2026-04-29T08:55:37.972Z</time></trkpt><trkpt lat="38.1095584" lon="22.0830196"><ele>831.8</ele><time>2026-04-29T08:55:38.973Z</time></trkpt><trkpt lat="38.1094753" lon="22.0831009"><ele>833.4</ele><time>2026-04-29T08:55:39.972Z</time></trkpt><trkpt lat="38.109406" lon="22.0831995"><ele>835.0</ele><time>2026-04-29T08:55:40.972Z</time></trkpt><trkpt lat="38.1093484" lon="22.0833193"><ele>830.4</ele><time>2026-04-29T08:55:41.973Z</time></trkpt><trkpt lat="38.1093014" lon="22.0834377"><ele>825.8</ele><time>2026-04-29T08:55:42.972Z</time></trkpt><trkpt lat="38.1092617" lon="22.0835679"><ele>821.2</ele><time>2026-04-29T08:55:43.972Z</time></trkpt><trkpt lat="38.109228" lon="22.0836991"><ele>816.6</ele><time>2026-04-29T08:55:44.973Z</time></trkpt><trkpt lat="38.1091924" lon="22.0838252"><ele>812.0</ele><time>2026-04-29T08:55:45.972Z</time></trkpt><trkpt lat="38.1091579" lon="22.0839388"><ele>812.0000000000001</ele><time>2026-04-29T08:55:46.973Z</time></trkpt><trkpt lat="38.1091172" lon="22.08403"><ele>812.0</ele><time>2026-04-29T08:55:47.973Z</time></trkpt><trkpt lat="38.1090586" lon="22.0841057"><ele>812.0</ele><time>2026-04-29T08:55:48.973Z</time></trkpt><trkpt lat="38.1089857" lon="22.0841785"><ele>812.0</ele><time>2026-04-29T08:55:49.972Z</time></trkpt><trkpt lat="38.1089212" lon="22.0842572"><ele>812.0000000000001</ele><time>2026-04-29T08:55:50.973Z</time></trkpt><trkpt lat="38.1088691" lon="22.0843348"><ele>812.0</ele><time>2026-04-29T08:55:51.973Z</time></trkpt><trkpt lat="38.1088412" lon="22.084419"><ele>811.8</ele><time>2026-04-29T08:55:52.973Z</time></trkpt><trkpt lat="38.108897" lon="22.0845548"><ele>811.6</ele><time>2026-04-29T08:55:54.972Z</time></trkpt><trkpt lat="38.1089646" lon="22.0845735"><ele>811.4</ele><time>2026-04-29T08:55:55.973Z</time></trkpt><trkpt lat="38.1090488" lon="22.0845621"><ele>811.1999999999999</ele><time>2026-04-29T08:55:56.973Z</time></trkpt><trkpt lat="38.1091435" lon="22.0845349"><ele>811.0</ele><time>2026-04-29T08:55:57.973Z</time></trkpt><trkpt lat="38.1092533" lon="22.0845234"><ele>808.0</ele><time>2026-04-29T08:55:58.973Z</time></trkpt><trkpt lat="38.109363" lon="22.084529"><ele>805.0</ele><time>2026-04-29T08:55:59.973Z</time></trkpt><trkpt lat="38.1094779" lon="22.0845238"><ele>802.0</ele><time>2026-04-29T08:56:00.973Z</time></trkpt><trkpt lat="38.1095995" lon="22.0845035"><ele>799.0</ele><time>2026-04-29T08:56:01.973Z</time></trkpt><trkpt lat="38.1097284" lon="22.0844749"><ele>799.0</ele><time>2026-04-29T08:56:02.973Z</time></trkpt><trkpt lat="38.1098522" lon="22.0844468"><ele>799.0</ele><time>2026-04-29T08:56:03.972Z</time></trkpt><trkpt lat="38.1099731" lon="22.0844274"><ele>799.0</ele><time>2026-04-29T08:56:04.973Z</time></trkpt><trkpt lat="38.1100888" lon="22.084423"><ele>799.0</ele><time>2026-04-29T08:56:05.972Z</time></trkpt><trkpt lat="38.110198" lon="22.0844235"><ele>797.4000000000001</ele><time>2026-04-29T08:56:06.973Z</time></trkpt><trkpt lat="38.1103041" lon="22.084424"><ele>795.8</ele><time>2026-04-29T08:56:07.973Z</time></trkpt><trkpt lat="38.1104043" lon="22.0844138"><ele>794.2</ele><time>2026-04-29T08:56:08.972Z</time></trkpt><trkpt lat="38.1104947" lon="22.0843876"><ele>792.5999999999999</ele><time>2026-04-29T08:56:09.973Z</time></trkpt><trkpt lat="38.1105661" lon="22.0843607"><ele>791.0</ele><time>2026-04-29T08:56:10.972Z</time></trkpt><trkpt lat="38.1106709" lon="22.08437"><ele>791.0</ele><time>2026-04-29T08:56:12.972Z</time></trkpt><trkpt lat="38.1107118" lon="22.0844644"><ele>791.0</ele><time>2026-04-29T08:56:14.973Z</time></trkpt><trkpt lat="38.1105977" lon="22.08458"><ele>791.0</ele><time>2026-04-29T08:56:16.972Z</time></trkpt><trkpt lat="38.1105238" lon="22.084656"><ele>791.0</ele><time>2026-04-29T08:56:17.973Z</time></trkpt><trkpt lat="38.1104516" lon="22.0847471"><ele>791.0</ele><time>2026-04-29T08:56:18.972Z</time></trkpt><trkpt lat="38.1103904" lon="22.0848497"><ele>788.1999999999999</ele><time>2026-04-29T08:56:19.972Z</time></trkpt><trkpt lat="38.1103291" lon="22.084965"><ele>785.4</ele><time>2026-04-29T08:56:20.972Z</time></trkpt><trkpt lat="38.1102709" lon="22.0850761"><ele>782.6</ele><time>2026-04-29T08:56:21.972Z</time></trkpt><trkpt lat="38.1102132" lon="22.0851835"><ele>779.8</ele><time>2026-04-29T08:56:22.973Z</time></trkpt><trkpt lat="38.1101543" lon="22.0852821"><ele>777.0</ele><time>2026-04-29T08:56:23.972Z</time></trkpt><trkpt lat="38.1101008" lon="22.0853698"><ele>777.0</ele><time>2026-04-29T08:56:24.972Z</time></trkpt><trkpt lat="38.1100469" lon="22.0854604"><ele>777.0</ele><time>2026-04-29T08:56:25.972Z</time></trkpt><trkpt lat="38.1099979" lon="22.0855511"><ele>777.0</ele><time>2026-04-29T08:56:26.973Z</time></trkpt><trkpt lat="38.1099514" lon="22.0856352"><ele>777.0</ele><time>2026-04-29T08:56:27.973Z</time></trkpt><trkpt lat="38.1099197" lon="22.0857324"><ele>777.0</ele><time>2026-04-29T08:56:28.972Z</time></trkpt><trkpt lat="38.1098962" lon="22.0858325"><ele>777.0</ele><time>2026-04-29T08:56:29.972Z</time></trkpt><trkpt lat="38.1098826" lon="22.0859326"><ele>777.5</ele><time>2026-04-29T08:56:30.973Z</time></trkpt><trkpt lat="38.1098746" lon="22.0860364"><ele>778.0</ele><time>2026-04-29T08:56:31.973Z</time></trkpt><trkpt lat="38.1098587" lon="22.0861397"><ele>778.5</ele><time>2026-04-29T08:56:32.973Z</time></trkpt><trkpt lat="38.1098572" lon="22.086257"><ele>779.0</ele><time>2026-04-29T08:56:33.972Z</time></trkpt><trkpt lat="38.1098705" lon="22.0863806"><ele>779.5</ele><time>2026-04-29T08:56:34.973Z</time></trkpt><trkpt lat="38.1098826" lon="22.086486"><ele>780.0</ele><time>2026-04-29T08:56:35.972Z</time></trkpt><trkpt lat="38.1099105" lon="22.0865845"><ele>779.2</ele><time>2026-04-29T08:56:36.972Z</time></trkpt><trkpt lat="38.1099446" lon="22.0866813"><ele>778.4</ele><time>2026-04-29T08:56:37.972Z</time></trkpt><trkpt lat="38.1099871" lon="22.0867466"><ele>777.5999999999999</ele><time>2026-04-29T08:56:38.973Z</time></trkpt><trkpt lat="38.1100605" lon="22.0868518"><ele>776.8</ele><time>2026-04-29T08:56:40.972Z</time></trkpt><trkpt lat="38.1100891" lon="22.0869892"><ele>776.0</ele><time>2026-04-29T08:56:42.973Z</time></trkpt><trkpt lat="38.1101001" lon="22.0871244"><ele>776.0</ele><time>2026-04-29T08:56:44.972Z</time></trkpt><trkpt lat="38.1101249" lon="22.0872316"><ele>776.0</ele><time>2026-04-29T08:56:46.973Z</time></trkpt><trkpt lat="38.1102206" lon="22.0872661"><ele>776.0</ele><time>2026-04-29T08:56:48.972Z</time></trkpt><trkpt lat="38.1103479" lon="22.0872256"><ele>776.0</ele><time>2026-04-29T08:56:50.973Z</time></trkpt><trkpt lat="38.1104316" lon="22.0872028"><ele>776.0</ele><time>2026-04-29T08:56:51.973Z</time></trkpt><trkpt lat="38.1105091" lon="22.0871705"><ele>776.0</ele><time>2026-04-29T08:56:52.973Z</time></trkpt><trkpt lat="38.1106051" lon="22.0871388"><ele>776.0</ele><time>2026-04-29T08:56:53.973Z</time></trkpt><trkpt lat="38.110703" lon="22.0871074"><ele>776.0</ele><time>2026-04-29T08:56:54.972Z</time></trkpt><trkpt lat="38.1108037" lon="22.0870741"><ele>776.0</ele><time>2026-04-29T08:56:55.972Z</time></trkpt><trkpt lat="38.1109076" lon="22.0870397"><ele>776.0</ele><time>2026-04-29T08:56:56.972Z</time></trkpt><trkpt lat="38.1109867" lon="22.0870176"><ele>774.0000000000001</ele><time>2026-04-29T08:56:57.973Z</time></trkpt><trkpt lat="38.1110572" lon="22.0869965"><ele>772.0</ele><time>2026-04-29T08:56:58.973Z</time></trkpt><trkpt lat="38.1111664" lon="22.0869781"><ele>770.0</ele><time>2026-04-29T08:57:00.972Z</time></trkpt><trkpt lat="38.1112525" lon="22.086947"><ele>768.0</ele><time>2026-04-29T08:57:02.972Z</time></trkpt><trkpt lat="38.1113232" lon="22.0869596"><ele>766.0</ele><time>2026-04-29T08:57:04.972Z</time></trkpt><trkpt lat="38.1113999" lon="22.0869999"><ele>764.0</ele><time>2026-04-29T08:57:07.973Z</time></trkpt><trkpt lat="38.1114457" lon="22.0870557"><ele>764.0</ele><time>2026-04-29T08:57:12.972Z</time></trkpt><trkpt lat="38.1115182" lon="22.0871048"><ele>764.0</ele><time>2026-04-29T09:02:32.982Z</time></trkpt><trkpt lat="38.1116214" lon="22.0871402"><ele>764.0</ele><time>2026-04-29T09:02:34.982Z</time></trkpt><trkpt lat="38.1116865" lon="22.0871549"><ele>764.0</ele><time>2026-04-29T09:02:35.981Z</time></trkpt><trkpt lat="38.1117489" lon="22.0871818"><ele>764.0</ele><time>2026-04-29T09:02:36.982Z</time></trkpt><trkpt lat="38.1118541" lon="22.0872619"><ele>764.0</ele><time>2026-04-29T09:02:38.982Z</time></trkpt><trkpt lat="38.1118989" lon="22.0873214"><ele>762.6666666666666</ele><time>2026-04-29T09:02:39.982Z</time></trkpt><trkpt lat="38.1119407" lon="22.087382"><ele>761.3333333333333</ele><time>2026-04-29T09:02:40.981Z</time></trkpt><trkpt lat="38.1119752" lon="22.087454"><ele>760.0</ele><time>2026-04-29T09:02:41.981Z</time></trkpt><trkpt lat="38.1120105" lon="22.0876043"><ele>758.6666666666666</ele><time>2026-04-29T09:02:43.982Z</time></trkpt><trkpt lat="38.112004" lon="22.0876912"><ele>757.3333333333334</ele><time>2026-04-29T09:02:44.981Z</time></trkpt><trkpt lat="38.111991" lon="22.0877757"><ele>756.0</ele><time>2026-04-29T09:02:45.982Z</time></trkpt><trkpt lat="38.1119676" lon="22.0878791"><ele>755.6666666666666</ele><time>2026-04-29T09:02:46.981Z</time></trkpt><trkpt lat="38.111944" lon="22.0879658"><ele>755.3333333333334</ele><time>2026-04-29T09:02:47.981Z</time></trkpt><trkpt lat="38.1118753" lon="22.0880414"><ele>755.0</ele><time>2026-04-29T09:02:48.982Z</time></trkpt><trkpt lat="38.111826" lon="22.0880963"><ele>754.6666666666667</ele><time>2026-04-29T09:02:49.982Z</time></trkpt><trkpt lat="38.1117679" lon="22.0881629"><ele>754.3333333333334</ele><time>2026-04-29T09:02:50.981Z</time></trkpt><trkpt lat="38.1117073" lon="22.0882182"><ele>754.0</ele><time>2026-04-29T09:02:51.981Z</time></trkpt><trkpt lat="38.1116519" lon="22.0882725"><ele>752.9999999999999</ele><time>2026-04-29T09:02:52.981Z</time></trkpt><trkpt lat="38.111596" lon="22.0883267"><ele>752.0</ele><time>2026-04-29T09:02:53.982Z</time></trkpt><trkpt lat="38.1115336" lon="22.088377"><ele>751.0</ele><time>2026-04-29T09:02:54.982Z</time></trkpt><trkpt lat="38.1114754" lon="22.0884275"><ele>750.0</ele><time>2026-04-29T09:02:55.981Z</time></trkpt><trkpt lat="38.1114185" lon="22.0884923"><ele>749.0</ele><time>2026-04-29T09:02:56.982Z</time></trkpt><trkpt lat="38.1113784" lon="22.088565"><ele>747.9999999999999</ele><time>2026-04-29T09:02:57.982Z</time></trkpt><trkpt lat="38.1113392" lon="22.0886431"><ele>747.0</ele><time>2026-04-29T09:02:58.982Z</time></trkpt><trkpt lat="38.1112697" lon="22.0887603"><ele>749.8</ele><time>2026-04-29T09:03:00.982Z</time></trkpt><trkpt lat="38.1112332" lon="22.0889021"><ele>752.6</ele><time>2026-04-29T09:03:02.982Z</time></trkpt><trkpt lat="38.1112342" lon="22.0889846"><ele>755.4</ele><time>2026-04-29T09:03:03.981Z</time></trkpt><trkpt lat="38.1112448" lon="22.0891638"><ele>758.1999999999999</ele><time>2026-04-29T09:03:05.981Z</time></trkpt><trkpt lat="38.111248" lon="22.0892649"><ele>761.0</ele><time>2026-04-29T09:03:06.982Z</time></trkpt><trkpt lat="38.111249" lon="22.0893531"><ele>761.3333333333333</ele><time>2026-04-29T09:03:07.982Z</time></trkpt><trkpt lat="38.1112396" lon="22.0894412"><ele>761.6666666666666</ele><time>2026-04-29T09:03:08.981Z</time></trkpt><trkpt lat="38.1111975" lon="22.0895164"><ele>762.0</ele><time>2026-04-29T09:03:09.981Z</time></trkpt><trkpt lat="38.1111637" lon="22.0895965"><ele>762.3333333333334</ele><time>2026-04-29T09:03:10.982Z</time></trkpt><trkpt lat="38.1111364" lon="22.0896856"><ele>762.6666666666667</ele><time>2026-04-29T09:03:11.982Z</time></trkpt><trkpt lat="38.1111293" lon="22.0897832"><ele>763.0</ele><time>2026-04-29T09:03:12.981Z</time></trkpt><trkpt lat="38.1111299" lon="22.0898941"><ele>762.8333333333334</ele><time>2026-04-29T09:03:13.981Z</time></trkpt><trkpt lat="38.1111319" lon="22.0900051"><ele>762.6666666666667</ele><time>2026-04-29T09:03:14.982Z</time></trkpt><trkpt lat="38.1111441" lon="22.0901169"><ele>762.5</ele><time>2026-04-29T09:03:15.982Z</time></trkpt><trkpt lat="38.1111728" lon="22.0902217"><ele>762.3333333333334</ele><time>2026-04-29T09:03:16.982Z</time></trkpt><trkpt lat="38.1112238" lon="22.0903217"><ele>762.1666666666666</ele><time>2026-04-29T09:03:17.982Z</time></trkpt><trkpt lat="38.1112827" lon="22.0904046"><ele>762.0</ele><time>2026-04-29T09:03:18.982Z</time></trkpt><trkpt lat="38.1113528" lon="22.09049"><ele>762.0</ele><time>2026-04-29T09:03:19.982Z</time></trkpt><trkpt lat="38.1114176" lon="22.0905702"><ele>762.0</ele><time>2026-04-29T09:03:20.981Z</time></trkpt><trkpt lat="38.1114841" lon="22.0906473"><ele>762.0</ele><time>2026-04-29T09:03:21.982Z</time></trkpt><trkpt lat="38.1115507" lon="22.0907089"><ele>762.0</ele><time>2026-04-29T09:03:22.981Z</time></trkpt><trkpt lat="38.1116166" lon="22.090794"><ele>762.0</ele><time>2026-04-29T09:03:23.982Z</time></trkpt><trkpt lat="38.1116839" lon="22.0908714"><ele>762.0</ele><time>2026-04-29T09:03:24.981Z</time></trkpt><trkpt lat="38.111741" lon="22.0909535"><ele>761.0</ele><time>2026-04-29T09:03:25.982Z</time></trkpt><trkpt lat="38.1117952" lon="22.0910322"><ele>760.0</ele><time>2026-04-29T09:03:26.982Z</time></trkpt><trkpt lat="38.111838" lon="22.0911101"><ele>759.0</ele><time>2026-04-29T09:03:27.981Z</time></trkpt><trkpt lat="38.1118684" lon="22.0911957"><ele>758.0</ele><time>2026-04-29T09:03:28.981Z</time></trkpt><trkpt lat="38.1118719" lon="22.0912809"><ele>757.0</ele><time>2026-04-29T09:03:29.982Z</time></trkpt><trkpt lat="38.1118512" lon="22.0913613"><ele>756.0</ele><time>2026-04-29T09:03:30.982Z</time></trkpt><trkpt lat="38.1118173" lon="22.0914453"><ele>755.0</ele><time>2026-04-29T09:03:31.982Z</time></trkpt><trkpt lat="38.1117695" lon="22.0915273"><ele>755.2</ele><time>2026-04-29T09:03:32.982Z</time></trkpt><trkpt lat="38.1117021" lon="22.0916057"><ele>755.4</ele><time>2026-04-29T09:03:33.981Z</time></trkpt><trkpt lat="38.1116178" lon="22.0916899"><ele>755.5999999999999</ele><time>2026-04-29T09:03:34.982Z</time></trkpt><trkpt lat="38.111543" lon="22.0917701"><ele>755.8</ele><time>2026-04-29T09:03:35.981Z</time></trkpt><trkpt lat="38.111477" lon="22.0918482"><ele>756.0</ele><time>2026-04-29T09:03:36.981Z</time></trkpt><trkpt lat="38.1114392" lon="22.0919375"><ele>757.8571428571429</ele><time>2026-04-29T09:03:37.981Z</time></trkpt><trkpt lat="38.1114258" lon="22.0920315"><ele>759.7142857142858</ele><time>2026-04-29T09:03:38.982Z</time></trkpt><trkpt lat="38.1114234" lon="22.0921348"><ele>761.5714285714286</ele><time>2026-04-29T09:03:39.982Z</time></trkpt><trkpt lat="38.1114277" lon="22.092231"><ele>763.4285714285714</ele><time>2026-04-29T09:03:40.982Z</time></trkpt><trkpt lat="38.1114319" lon="22.0923215"><ele>765.2857142857143</ele><time>2026-04-29T09:03:41.981Z</time></trkpt><trkpt lat="38.1114568" lon="22.0924126"><ele>767.1428571428571</ele><time>2026-04-29T09:03:42.981Z</time></trkpt><trkpt lat="38.1114957" lon="22.0924788"><ele>769.0</ele><time>2026-04-29T09:03:43.981Z</time></trkpt><trkpt lat="38.1115486" lon="22.092537"><ele>766.6666666666666</ele><time>2026-04-29T09:03:44.982Z</time></trkpt><trkpt lat="38.1116079" lon="22.0925855"><ele>764.3333333333333</ele><time>2026-04-29T09:03:45.982Z</time></trkpt><trkpt lat="38.1116783" lon="22.0926276"><ele>762.0</ele><time>2026-04-29T09:03:46.981Z</time></trkpt><trkpt lat="38.1117526" lon="22.0926807"><ele>759.6666666666666</ele><time>2026-04-29T09:03:47.982Z</time></trkpt><trkpt lat="38.1118126" lon="22.092743"><ele>757.3333333333333</ele><time>2026-04-29T09:03:48.981Z</time></trkpt><trkpt lat="38.111869" lon="22.0928113"><ele>755.0</ele><time>2026-04-29T09:03:49.982Z</time></trkpt><trkpt lat="38.1119363" lon="22.0928497"><ele>755.0</ele><time>2026-04-29T09:03:50.981Z</time></trkpt><trkpt lat="38.1120266" lon="22.092849"><ele>755.0</ele><time>2026-04-29T09:03:52.982Z</time></trkpt><trkpt lat="38.112121" lon="22.0927977"><ele>755.0</ele><time>2026-04-29T09:03:54.982Z</time></trkpt><trkpt lat="38.1122335" lon="22.0928187"><ele>755.0</ele><time>2026-04-29T09:03:56.981Z</time></trkpt><trkpt lat="38.1123097" lon="22.0928735"><ele>755.0</ele><time>2026-04-29T09:03:57.982Z</time></trkpt><trkpt lat="38.1123915" lon="22.0929359"><ele>756.5</ele><time>2026-04-29T09:03:58.981Z</time></trkpt><trkpt lat="38.1124816" lon="22.0930083"><ele>758.0</ele><time>2026-04-29T09:03:59.982Z</time></trkpt><trkpt lat="38.1125798" lon="22.0930901"><ele>759.5</ele><time>2026-04-29T09:04:00.982Z</time></trkpt><trkpt lat="38.1126813" lon="22.0931889"><ele>761.0</ele><time>2026-04-29T09:04:01.982Z</time></trkpt><trkpt lat="38.1127408" lon="22.0933078"><ele>761.0</ele><time>2026-04-29T09:04:02.981Z</time></trkpt><trkpt lat="38.1127883" lon="22.0934221"><ele>761.0</ele><time>2026-04-29T09:04:03.981Z</time></trkpt><trkpt lat="38.1128044" lon="22.0935356"><ele>761.0</ele><time>2026-04-29T09:04:04.981Z</time></trkpt><trkpt lat="38.1127992" lon="22.0936583"><ele>761.0</ele><time>2026-04-29T09:04:05.981Z</time></trkpt><trkpt lat="38.1127787" lon="22.093778"><ele>761.0</ele><time>2026-04-29T09:04:06.981Z</time></trkpt><trkpt lat="38.1127391" lon="22.0938981"><ele>761.0</ele><time>2026-04-29T09:04:07.982Z</time></trkpt><trkpt lat="38.1126909" lon="22.0940286"><ele>761.0</ele><time>2026-04-29T09:04:08.981Z</time></trkpt><trkpt lat="38.1126318" lon="22.0941766"><ele>761.0</ele><time>2026-04-29T09:04:09.981Z</time></trkpt><trkpt lat="38.112582" lon="22.094301"><ele>761.0</ele><time>2026-04-29T09:04:10.982Z</time></trkpt><trkpt lat="38.1125385" lon="22.0944101"><ele>762.0</ele><time>2026-04-29T09:04:11.981Z</time></trkpt><trkpt lat="38.1124993" lon="22.0945046"><ele>763.0</ele><time>2026-04-29T09:04:12.982Z</time></trkpt><trkpt lat="38.1124955" lon="22.094591"><ele>764.0</ele><time>2026-04-29T09:04:13.981Z</time></trkpt><trkpt lat="38.1125283" lon="22.0946609"><ele>765.0</ele><time>2026-04-29T09:04:14.981Z</time></trkpt><trkpt lat="38.1125988" lon="22.0947213"><ele>766.0</ele><time>2026-04-29T09:04:15.982Z</time></trkpt><trkpt lat="38.1127053" lon="22.0947622"><ele>767.0</ele><time>2026-04-29T09:04:16.981Z</time></trkpt><trkpt lat="38.1128223" lon="22.0948035"><ele>767.0</ele><time>2026-04-29T09:04:17.981Z</time></trkpt><trkpt lat="38.1129522" lon="22.0948389"><ele>767.0</ele><time>2026-04-29T09:04:18.981Z</time></trkpt><trkpt lat="38.1130827" lon="22.0948655"><ele>767.0</ele><time>2026-04-29T09:04:19.981Z</time></trkpt><trkpt lat="38.1132138" lon="22.0948717"><ele>767.0</ele><time>2026-04-29T09:04:20.982Z</time></trkpt><trkpt lat="38.1133375" lon="22.0948664"><ele>766.0</ele><time>2026-04-29T09:04:21.982Z</time></trkpt><trkpt lat="38.1134444" lon="22.0948727"><ele>765.0</ele><time>2026-04-29T09:04:22.981Z</time></trkpt><trkpt lat="38.1135463" lon="22.0949012"><ele>764.0</ele><time>2026-04-29T09:04:23.982Z</time></trkpt><trkpt lat="38.1136186" lon="22.0949574"><ele>763.0</ele><time>2026-04-29T09:04:24.982Z</time></trkpt><trkpt lat="38.1136821" lon="22.0950525"><ele>762.0</ele><time>2026-04-29T09:04:25.981Z</time></trkpt><trkpt lat="38.1137376" lon="22.0951684"><ele>762.0</ele><time>2026-04-29T09:04:26.982Z</time></trkpt><trkpt lat="38.1137939" lon="22.0953058"><ele>762.0</ele><time>2026-04-29T09:04:27.981Z</time></trkpt><trkpt lat="38.1138496" lon="22.0954395"><ele>762.0</ele><time>2026-04-29T09:04:28.981Z</time></trkpt><trkpt lat="38.1138951" lon="22.0955742"><ele>762.0</ele><time>2026-04-29T09:04:29.981Z</time></trkpt><trkpt lat="38.1139159" lon="22.0957188"><ele>763.2</ele><time>2026-04-29T09:04:30.982Z</time></trkpt><trkpt lat="38.1139246" lon="22.0958607"><ele>764.4000000000001</ele><time>2026-04-29T09:04:31.981Z</time></trkpt><trkpt lat="38.1139212" lon="22.0959929"><ele>765.5999999999999</ele><time>2026-04-29T09:04:32.981Z</time></trkpt><trkpt lat="38.1139136" lon="22.0961155"><ele>766.8</ele><time>2026-04-29T09:04:33.981Z</time></trkpt><trkpt lat="38.1139041" lon="22.0962236"><ele>768.0</ele><time>2026-04-29T09:04:34.982Z</time></trkpt><trkpt lat="38.1138753" lon="22.0963147"><ele>768.0</ele><time>2026-04-29T09:04:35.981Z</time></trkpt><trkpt lat="38.113822" lon="22.0963713"><ele>768.0</ele><time>2026-04-29T09:04:36.982Z</time></trkpt><trkpt lat="38.1137583" lon="22.0963973"><ele>768.0</ele><time>2026-04-29T09:04:37.982Z</time></trkpt><trkpt lat="38.1136743" lon="22.0964003"><ele>768.0</ele><time>2026-04-29T09:04:38.981Z</time></trkpt><trkpt lat="38.1135865" lon="22.0963989"><ele>768.0</ele><time>2026-04-29T09:04:39.982Z</time></trkpt><trkpt lat="38.1134931" lon="22.0964016"><ele>768.0</ele><time>2026-04-29T09:04:40.982Z</time></trkpt><trkpt lat="38.1133964" lon="22.096392"><ele>768.0</ele><time>2026-04-29T09:04:41.982Z</time></trkpt><trkpt lat="38.1133037" lon="22.0963768"><ele>768.0</ele><time>2026-04-29T09:04:42.982Z</time></trkpt><trkpt lat="38.1132105" lon="22.0963466"><ele>768.0</ele><time>2026-04-29T09:04:43.982Z</time></trkpt><trkpt lat="38.113118" lon="22.0963173"><ele>768.0</ele><time>2026-04-29T09:04:44.981Z</time></trkpt><trkpt lat="38.1130251" lon="22.0962937"><ele>768.0</ele><time>2026-04-29T09:04:45.981Z</time></trkpt><trkpt lat="38.1129376" lon="22.0962744"><ele>768.8333333333334</ele><time>2026-04-29T09:04:46.982Z</time></trkpt><trkpt lat="38.1128547" lon="22.0962537"><ele>769.6666666666667</ele><time>2026-04-29T09:04:47.982Z</time></trkpt><trkpt lat="38.1127783" lon="22.0962336"><ele>770.5</ele><time>2026-04-29T09:04:48.981Z</time></trkpt><trkpt lat="38.1127006" lon="22.0961837"><ele>771.3333333333334</ele><time>2026-04-29T09:04:49.982Z</time></trkpt><trkpt lat="38.1126274" lon="22.0961324"><ele>772.1666666666667</ele><time>2026-04-29T09:04:50.981Z</time></trkpt><trkpt lat="38.1125553" lon="22.0960863"><ele>773.0</ele><time>2026-04-29T09:04:51.981Z</time></trkpt><trkpt lat="38.1124789" lon="22.0960648"><ele>773.0000000000001</ele><time>2026-04-29T09:04:52.982Z</time></trkpt><trkpt lat="38.112408" lon="22.0960667"><ele>773.0</ele><time>2026-04-29T09:04:53.982Z</time></trkpt><trkpt lat="38.1123483" lon="22.096098"><ele>773.0</ele><time>2026-04-29T09:04:54.981Z</time></trkpt><trkpt lat="38.1123073" lon="22.0961655"><ele>773.0</ele><time>2026-04-29T09:04:55.981Z</time></trkpt><trkpt lat="38.1122907" lon="22.0962631"><ele>773.0000000000001</ele><time>2026-04-29T09:04:56.982Z</time></trkpt><trkpt lat="38.1122889" lon="22.0963766"><ele>773.0</ele><time>2026-04-29T09:04:57.981Z</time></trkpt><trkpt lat="38.1122902" lon="22.0964929"><ele>775.5</ele><time>2026-04-29T09:04:58.982Z</time></trkpt><trkpt lat="38.112297" lon="22.0966341"><ele>778.0</ele><time>2026-04-29T09:04:59.981Z</time></trkpt><trkpt lat="38.1123061" lon="22.0967689"><ele>780.5</ele><time>2026-04-29T09:05:00.982Z</time></trkpt><trkpt lat="38.112347" lon="22.096925"><ele>783.0</ele><time>2026-04-29T09:05:01.982Z</time></trkpt><trkpt lat="38.1123995" lon="22.0970764"><ele>781.5999999999999</ele><time>2026-04-29T09:05:02.981Z</time></trkpt><trkpt lat="38.1124353" lon="22.0972307"><ele>780.1999999999999</ele><time>2026-04-29T09:05:03.981Z</time></trkpt><trkpt lat="38.1124525" lon="22.097366"><ele>778.8</ele><time>2026-04-29T09:05:04.981Z</time></trkpt><trkpt lat="38.1124523" lon="22.0975065"><ele>777.4</ele><time>2026-04-29T09:05:05.981Z</time></trkpt><trkpt lat="38.1124302" lon="22.097633"><ele>776.0</ele><time>2026-04-29T09:05:06.982Z</time></trkpt><trkpt lat="38.1123842" lon="22.0977568"><ele>776.0</ele><time>2026-04-29T09:05:07.981Z</time></trkpt><trkpt lat="38.1123047" lon="22.097843"><ele>776.0</ele><time>2026-04-29T09:05:08.982Z</time></trkpt><trkpt lat="38.1122401" lon="22.0979547"><ele>776.0</ele><time>2026-04-29T09:05:09.981Z</time></trkpt><trkpt lat="38.1121799" lon="22.0980799"><ele>776.0</ele><time>2026-04-29T09:05:10.982Z</time></trkpt><trkpt lat="38.1121284" lon="22.0982063"><ele>776.0</ele><time>2026-04-29T09:05:11.982Z</time></trkpt><trkpt lat="38.1120925" lon="22.0983565"><ele>773.25</ele><time>2026-04-29T09:05:12.982Z</time></trkpt><trkpt lat="38.1120644" lon="22.0985047"><ele>770.5</ele><time>2026-04-29T09:05:13.982Z</time></trkpt><trkpt lat="38.1120488" lon="22.098652"><ele>767.75</ele><time>2026-04-29T09:05:14.981Z</time></trkpt><trkpt lat="38.112054" lon="22.0987897"><ele>765.0</ele><time>2026-04-29T09:05:15.982Z</time></trkpt><trkpt lat="38.1120647" lon="22.0989243"><ele>765.0</ele><time>2026-04-29T09:05:16.982Z</time></trkpt><trkpt lat="38.1120859" lon="22.0990549"><ele>765.0</ele><time>2026-04-29T09:05:17.981Z</time></trkpt><trkpt lat="38.1121044" lon="22.0991815"><ele>765.0</ele><time>2026-04-29T09:05:18.981Z</time></trkpt><trkpt lat="38.112114" lon="22.0992861"><ele>765.0</ele><time>2026-04-29T09:05:19.981Z</time></trkpt><trkpt lat="38.1121333" lon="22.0993941"><ele>765.0</ele><time>2026-04-29T09:05:20.982Z</time></trkpt><trkpt lat="38.1121661" lon="22.09949"><ele>764.6</ele><time>2026-04-29T09:05:21.981Z</time></trkpt><trkpt lat="38.1122277" lon="22.0995742"><ele>764.2</ele><time>2026-04-29T09:05:22.982Z</time></trkpt><trkpt lat="38.1123006" lon="22.0996197"><ele>763.8</ele><time>2026-04-29T09:05:23.981Z</time></trkpt><trkpt lat="38.112389" lon="22.0996209"><ele>763.4</ele><time>2026-04-29T09:05:24.982Z</time></trkpt><trkpt lat="38.1124863" lon="22.0995875"><ele>763.0</ele><time>2026-04-29T09:05:25.982Z</time></trkpt><trkpt lat="38.1125776" lon="22.0995411"><ele>761.2</ele><time>2026-04-29T09:05:26.981Z</time></trkpt><trkpt lat="38.1126675" lon="22.0994835"><ele>759.4</ele><time>2026-04-29T09:05:27.981Z</time></trkpt><trkpt lat="38.1127521" lon="22.0994347"><ele>757.6</ele><time>2026-04-29T09:05:28.982Z</time></trkpt><trkpt lat="38.1128425" lon="22.0994185"><ele>755.8000000000001</ele><time>2026-04-29T09:05:29.982Z</time></trkpt><trkpt lat="38.1129402" lon="22.0994397"><ele>754.0</ele><time>2026-04-29T09:05:30.982Z</time></trkpt><trkpt lat="38.1130198" lon="22.0994998"><ele>754.0</ele><time>2026-04-29T09:05:31.982Z</time></trkpt><trkpt lat="38.1131017" lon="22.0995701"><ele>754.0</ele><time>2026-04-29T09:05:32.982Z</time></trkpt><trkpt lat="38.1131898" lon="22.0996634"><ele>754.0</ele><time>2026-04-29T09:05:33.981Z</time></trkpt><trkpt lat="38.113276" lon="22.0997517"><ele>754.0</ele><time>2026-04-29T09:05:34.982Z</time></trkpt><trkpt lat="38.1133665" lon="22.0998359"><ele>754.0</ele><time>2026-04-29T09:05:35.982Z</time></trkpt><trkpt lat="38.1134554" lon="22.0999328"><ele>752.0</ele><time>2026-04-29T09:05:36.981Z</time></trkpt><trkpt lat="38.1135551" lon="22.100023"><ele>750.0</ele><time>2026-04-29T09:05:37.982Z</time></trkpt><trkpt lat="38.1136575" lon="22.1001148"><ele>748.0</ele><time>2026-04-29T09:05:38.982Z</time></trkpt><trkpt lat="38.1137569" lon="22.1002003"><ele>746.0</ele><time>2026-04-29T09:05:39.981Z</time></trkpt><trkpt lat="38.1138567" lon="22.1002768"><ele>746.0</ele><time>2026-04-29T09:05:40.981Z</time></trkpt><trkpt lat="38.1139539" lon="22.1003539"><ele>746.0</ele><time>2026-04-29T09:05:41.981Z</time></trkpt><trkpt lat="38.1140425" lon="22.1004386"><ele>746.0</ele><time>2026-04-29T09:05:42.981Z</time></trkpt><trkpt lat="38.1141159" lon="22.1005406"><ele>746.0</ele><time>2026-04-29T09:05:43.982Z</time></trkpt><trkpt lat="38.1141625" lon="22.1006433"><ele>746.0</ele><time>2026-04-29T09:05:44.981Z</time></trkpt><trkpt lat="38.1141779" lon="22.1007592"><ele>745.5</ele><time>2026-04-29T09:05:45.981Z</time></trkpt><trkpt lat="38.1141479" lon="22.1008675"><ele>745.0</ele><time>2026-04-29T09:05:46.982Z</time></trkpt><trkpt lat="38.1141097" lon="22.100952"><ele>744.5</ele><time>2026-04-29T09:05:47.982Z</time></trkpt><trkpt lat="38.114022" lon="22.100978"><ele>744.0</ele><time>2026-04-29T09:05:48.982Z</time></trkpt><trkpt lat="38.1139265" lon="22.1009672"><ele>743.5</ele><time>2026-04-29T09:05:49.981Z</time></trkpt><trkpt lat="38.1138358" lon="22.1009628"><ele>743.0</ele><time>2026-04-29T09:05:50.981Z</time></trkpt><trkpt lat="38.113773" lon="22.1010162"><ele>743.0</ele><time>2026-04-29T09:05:51.982Z</time></trkpt><trkpt lat="38.113714" lon="22.1011312"><ele>743.0</ele><time>2026-04-29T09:05:53.982Z</time></trkpt><trkpt lat="38.1137101" lon="22.1012112"><ele>743.0</ele><time>2026-04-29T09:05:54.982Z</time></trkpt><trkpt lat="38.1137028" lon="22.1012922"><ele>743.0</ele><time>2026-04-29T09:05:55.982Z</time></trkpt><trkpt lat="38.1136795" lon="22.101408"><ele>743.0</ele><time>2026-04-29T09:05:57.982Z</time></trkpt><trkpt lat="38.1136821" lon="22.1015212"><ele>743.0</ele><time>2026-04-29T09:05:59.981Z</time></trkpt><trkpt lat="38.113746" lon="22.1016183"><ele>742.6666666666666</ele><time>2026-04-29T09:06:01.981Z</time></trkpt><trkpt lat="38.1138079" lon="22.1016588"><ele>742.3333333333333</ele><time>2026-04-29T09:06:02.982Z</time></trkpt><trkpt lat="38.1138788" lon="22.1016872"><ele>742.0</ele><time>2026-04-29T09:06:03.981Z</time></trkpt><trkpt lat="38.1139629" lon="22.1017109"><ele>741.6666666666666</ele><time>2026-04-29T09:06:04.982Z</time></trkpt><trkpt lat="38.1140431" lon="22.1017293"><ele>741.3333333333334</ele><time>2026-04-29T09:06:05.982Z</time></trkpt><trkpt lat="38.1141205" lon="22.1017545"><ele>741.0</ele><time>2026-04-29T09:06:06.981Z</time></trkpt><trkpt lat="38.1141927" lon="22.1017842"><ele>739.3333333333334</ele><time>2026-04-29T09:06:07.981Z</time></trkpt><trkpt lat="38.1142559" lon="22.101823"><ele>737.6666666666666</ele><time>2026-04-29T09:06:08.982Z</time></trkpt><trkpt lat="38.1143155" lon="22.1018684"><ele>736.0</ele><time>2026-04-29T09:06:09.982Z</time></trkpt><trkpt lat="38.114368" lon="22.1019179"><ele>734.3333333333333</ele><time>2026-04-29T09:06:10.981Z</time></trkpt><trkpt lat="38.1144191" lon="22.1019673"><ele>732.6666666666666</ele><time>2026-04-29T09:06:11.981Z</time></trkpt><trkpt lat="38.1144739" lon="22.1020079"><ele>731.0</ele><time>2026-04-29T09:06:12.982Z</time></trkpt><trkpt lat="38.1146035" lon="22.1020204"><ele>731.0</ele><time>2026-04-29T09:06:14.981Z</time></trkpt><trkpt lat="38.1146718" lon="22.1020199"><ele>731.0</ele><time>2026-04-29T09:06:15.981Z</time></trkpt><trkpt lat="38.114746" lon="22.102012"><ele>731.0</ele><time>2026-04-29T09:06:16.982Z</time></trkpt><trkpt lat="38.1148266" lon="22.1020028"><ele>731.0</ele><time>2026-04-29T09:06:17.982Z</time></trkpt><trkpt lat="38.1149135" lon="22.1019904"><ele>731.0</ele><time>2026-04-29T09:06:18.982Z</time></trkpt><trkpt lat="38.1150023" lon="22.1019898"><ele>731.0</ele><time>2026-04-29T09:06:19.982Z</time></trkpt><trkpt lat="38.1150887" lon="22.1019909"><ele>730.3333333333333</ele><time>2026-04-29T09:06:20.981Z</time></trkpt><trkpt lat="38.1151704" lon="22.1019963"><ele>729.6666666666666</ele><time>2026-04-29T09:06:21.981Z</time></trkpt><trkpt lat="38.1152455" lon="22.1020007"><ele>729.0</ele><time>2026-04-29T09:06:22.981Z</time></trkpt><trkpt lat="38.1153195" lon="22.1020038"><ele>728.3333333333334</ele><time>2026-04-29T09:06:23.982Z</time></trkpt><trkpt lat="38.1153973" lon="22.1020041"><ele>727.6666666666667</ele><time>2026-04-29T09:06:24.981Z</time></trkpt><trkpt lat="38.1154774" lon="22.1019987"><ele>727.0</ele><time>2026-04-29T09:06:25.981Z</time></trkpt><trkpt lat="38.1155617" lon="22.1019898"><ele>727.0</ele><time>2026-04-29T09:06:26.981Z</time></trkpt><trkpt lat="38.1156558" lon="22.1019817"><ele>727.0</ele><time>2026-04-29T09:06:27.982Z</time></trkpt><trkpt lat="38.1157408" lon="22.1019807"><ele>727.0</ele><time>2026-04-29T09:06:28.982Z</time></trkpt><trkpt lat="38.1158336" lon="22.1019963"><ele>727.0</ele><time>2026-04-29T09:06:29.982Z</time></trkpt><trkpt lat="38.115921" lon="22.1020212"><ele>727.0</ele><time>2026-04-29T09:06:30.981Z</time></trkpt><trkpt lat="38.1160001" lon="22.102067"><ele>727.0</ele><time>2026-04-29T09:06:31.982Z</time></trkpt><trkpt lat="38.1160618" lon="22.102135"><ele>726.5714285714286</ele><time>2026-04-29T09:06:32.981Z</time></trkpt><trkpt lat="38.116104" lon="22.10221"><ele>726.1428571428572</ele><time>2026-04-29T09:06:33.981Z</time></trkpt><trkpt lat="38.1161564" lon="22.1022731"><ele>725.7142857142858</ele><time>2026-04-29T09:06:34.981Z</time></trkpt><trkpt lat="38.1162279" lon="22.1023009"><ele>725.2857142857142</ele><time>2026-04-29T09:06:35.982Z</time></trkpt><trkpt lat="38.1163051" lon="22.1023102"><ele>724.8571428571429</ele><time>2026-04-29T09:06:36.982Z</time></trkpt><trkpt lat="38.1163773" lon="22.1023047"><ele>724.4285714285714</ele><time>2026-04-29T09:06:37.982Z</time></trkpt><trkpt lat="38.1164556" lon="22.1022902"><ele>724.0</ele><time>2026-04-29T09:06:38.982Z</time></trkpt><trkpt lat="38.1165401" lon="22.1022698"><ele>723.1666666666667</ele><time>2026-04-29T09:06:39.981Z</time></trkpt><trkpt lat="38.1166192" lon="22.1022437"><ele>722.3333333333334</ele><time>2026-04-29T09:06:40.982Z</time></trkpt><trkpt lat="38.1167085" lon="22.1022136"><ele>721.5</ele><time>2026-04-29T09:06:41.982Z</time></trkpt><trkpt lat="38.1167787" lon="22.1021765"><ele>720.6666666666666</ele><time>2026-04-29T09:06:42.981Z</time></trkpt><trkpt lat="38.1168482" lon="22.102125"><ele>719.8333333333333</ele><time>2026-04-29T09:06:43.981Z</time></trkpt><trkpt lat="38.1169225" lon="22.1020814"><ele>719.0</ele><time>2026-04-29T09:06:44.982Z</time></trkpt><trkpt lat="38.1169946" lon="22.102046"><ele>719.0</ele><time>2026-04-29T09:06:45.982Z</time></trkpt><trkpt lat="38.1170724" lon="22.1020156"><ele>719.0</ele><time>2026-04-29T09:06:46.982Z</time></trkpt><trkpt lat="38.1171468" lon="22.1019944"><ele>719.0</ele><time>2026-04-29T09:06:47.982Z</time></trkpt><trkpt lat="38.1172211" lon="22.1019848"><ele>719.0</ele><time>2026-04-29T09:06:48.982Z</time></trkpt><trkpt lat="38.1172954" lon="22.101991"><ele>719.0</ele><time>2026-04-29T09:06:49.982Z</time></trkpt><trkpt lat="38.1173711" lon="22.1020182"><ele>719.0</ele><time>2026-04-29T09:06:50.981Z</time></trkpt><trkpt lat="38.117448" lon="22.1020615"><ele>717.6666666666666</ele><time>2026-04-29T09:06:51.982Z</time></trkpt><trkpt lat="38.1175225" lon="22.1021175"><ele>716.3333333333333</ele><time>2026-04-29T09:06:52.982Z</time></trkpt><trkpt lat="38.1175946" lon="22.1021777"><ele>715.0</ele><time>2026-04-29T09:06:53.982Z</time></trkpt><trkpt lat="38.1176669" lon="22.102247"><ele>713.6666666666666</ele><time>2026-04-29T09:06:54.981Z</time></trkpt><trkpt lat="38.1177374" lon="22.1023212"><ele>712.3333333333334</ele><time>2026-04-29T09:06:55.982Z</time></trkpt><trkpt lat="38.1178106" lon="22.1023961"><ele>711.0</ele><time>2026-04-29T09:06:56.982Z</time></trkpt><trkpt lat="38.1178834" lon="22.1024688"><ele>711.5</ele><time>2026-04-29T09:06:57.981Z</time></trkpt><trkpt lat="38.1179574" lon="22.1025354"><ele>712.0</ele><time>2026-04-29T09:06:58.982Z</time></trkpt><trkpt lat="38.1180274" lon="22.1026007"><ele>712.5</ele><time>2026-04-29T09:06:59.981Z</time></trkpt><trkpt lat="38.1180893" lon="22.102665"><ele>713.0</ele><time>2026-04-29T09:07:00.981Z</time></trkpt><trkpt lat="38.1181538" lon="22.1027287"><ele>713.5</ele><time>2026-04-29T09:07:01.982Z</time></trkpt><trkpt lat="38.1182087" lon="22.1027954"><ele>714.0</ele><time>2026-04-29T09:07:02.981Z</time></trkpt><trkpt lat="38.1182638" lon="22.1028673"><ele>714.0</ele><time>2026-04-29T09:07:03.982Z</time></trkpt><trkpt lat="38.118309" lon="22.1029483"><ele>714.0</ele><time>2026-04-29T09:07:04.981Z</time></trkpt><trkpt lat="38.1183488" lon="22.1030169"><ele>714.0</ele><time>2026-04-29T09:07:05.981Z</time></trkpt><trkpt lat="38.1183892" lon="22.1030876"><ele>714.0</ele><time>2026-04-29T09:07:06.981Z</time></trkpt><trkpt lat="38.1184249" lon="22.1031541"><ele>714.0</ele><time>2026-04-29T09:07:07.982Z</time></trkpt><trkpt lat="38.1184607" lon="22.1032225"><ele>714.0</ele><time>2026-04-29T09:07:08.982Z</time></trkpt><trkpt lat="38.1184958" lon="22.1032948"><ele>714.0</ele><time>2026-04-29T09:07:09.982Z</time></trkpt><trkpt lat="38.118527" lon="22.1033753"><ele>716.0</ele><time>2026-04-29T09:07:10.981Z</time></trkpt><trkpt lat="38.1185493" lon="22.1034623"><ele>718.0</ele><time>2026-04-29T09:07:11.982Z</time></trkpt><trkpt lat="38.1185591" lon="22.1035581"><ele>720.0</ele><time>2026-04-29T09:07:12.981Z</time></trkpt><trkpt lat="38.1185539" lon="22.1036536"><ele>722.0</ele><time>2026-04-29T09:07:13.981Z</time></trkpt><trkpt lat="38.1185311" lon="22.1037435"><ele>724.0</ele><time>2026-04-29T09:07:14.982Z</time></trkpt><trkpt lat="38.1184759" lon="22.1038559"><ele>726.0</ele><time>2026-04-29T09:07:15.981Z</time></trkpt><trkpt lat="38.1184152" lon="22.1039759"><ele>725.25</ele><time>2026-04-29T09:07:16.981Z</time></trkpt><trkpt lat="38.1183642" lon="22.1041211"><ele>724.5</ele><time>2026-04-29T09:07:17.982Z</time></trkpt><trkpt lat="38.1183138" lon="22.1042737"><ele>723.75</ele><time>2026-04-29T09:07:18.981Z</time></trkpt><trkpt lat="38.1182735" lon="22.1044276"><ele>723.0</ele><time>2026-04-29T09:07:19.981Z</time></trkpt><trkpt lat="38.1182393" lon="22.1045661"><ele>722.25</ele><time>2026-04-29T09:07:20.981Z</time></trkpt><trkpt lat="38.1182164" lon="22.1047059"><ele>721.5</ele><time>2026-04-29T09:07:21.982Z</time></trkpt><trkpt lat="38.1182131" lon="22.104855"><ele>720.75</ele><time>2026-04-29T09:07:22.982Z</time></trkpt><trkpt lat="38.1182328" lon="22.1050196"><ele>720.0</ele><time>2026-04-29T09:07:23.982Z</time></trkpt><trkpt lat="38.1182599" lon="22.1051941"><ele>720.0</ele><time>2026-04-29T09:07:24.982Z</time></trkpt><trkpt lat="38.1182909" lon="22.1053816"><ele>720.0</ele><time>2026-04-29T09:07:25.981Z</time></trkpt><trkpt lat="38.1183183" lon="22.1055782"><ele>720.0</ele><time>2026-04-29T09:07:26.981Z</time></trkpt><trkpt lat="38.1183484" lon="22.1057747"><ele>720.3333333333334</ele><time>2026-04-29T09:07:27.982Z</time></trkpt><trkpt lat="38.1183777" lon="22.1059703"><ele>720.6666666666667</ele><time>2026-04-29T09:07:28.981Z</time></trkpt><trkpt lat="38.1184064" lon="22.1061698"><ele>721.0</ele><time>2026-04-29T09:07:29.982Z</time></trkpt><trkpt lat="38.1184251" lon="22.1063608"><ele>721.0</ele><time>2026-04-29T09:07:30.982Z</time></trkpt><trkpt lat="38.1184468" lon="22.1065547"><ele>721.0</ele><time>2026-04-29T09:07:31.981Z</time></trkpt><trkpt lat="38.1184717" lon="22.1067493"><ele>721.0</ele><time>2026-04-29T09:07:32.982Z</time></trkpt><trkpt lat="38.1184919" lon="22.10695"><ele>722.3333333333334</ele><time>2026-04-29T09:07:33.982Z</time></trkpt><trkpt lat="38.118522" lon="22.1071651"><ele>723.6666666666666</ele><time>2026-04-29T09:07:34.982Z</time></trkpt><trkpt lat="38.1185574" lon="22.1074035"><ele>725.0</ele><time>2026-04-29T09:07:35.982Z</time></trkpt><trkpt lat="38.1185979" lon="22.1076215"><ele>726.0</ele><time>2026-04-29T09:07:36.981Z</time></trkpt><trkpt lat="38.118637" lon="22.107825"><ele>727.0</ele><time>2026-04-29T09:07:37.982Z</time></trkpt><trkpt lat="38.1186705" lon="22.1079993"><ele>728.0</ele><time>2026-04-29T09:07:38.982Z</time></trkpt><trkpt lat="38.1187071" lon="22.1081708"><ele>729.0</ele><time>2026-04-29T09:07:39.981Z</time></trkpt><trkpt lat="38.1186773" lon="22.1083031"><ele>729.6666666666666</ele><time>2026-04-29T09:07:40.981Z</time></trkpt><trkpt lat="38.1186977" lon="22.108462"><ele>730.3333333333333</ele><time>2026-04-29T09:07:41.982Z</time></trkpt><trkpt lat="38.1187373" lon="22.1086568"><ele>731.0</ele><time>2026-04-29T09:07:42.981Z</time></trkpt><trkpt lat="38.1187884" lon="22.1088652"><ele>731.0</ele><time>2026-04-29T09:07:43.981Z</time></trkpt><trkpt lat="38.1188422" lon="22.1090589"><ele>731.0</ele><time>2026-04-29T09:07:44.981Z</time></trkpt><trkpt lat="38.118896" lon="22.109245"><ele>731.0</ele><time>2026-04-29T09:07:45.982Z</time></trkpt><trkpt lat="38.1189572" lon="22.1094215"><ele>731.75</ele><time>2026-04-29T09:07:46.981Z</time></trkpt><trkpt lat="38.119018" lon="22.1095666"><ele>732.5</ele><time>2026-04-29T09:07:47.981Z</time></trkpt><trkpt lat="38.1190798" lon="22.1097058"><ele>733.25</ele><time>2026-04-29T09:07:48.98Z</time></trkpt><trkpt lat="38.1190447" lon="22.1097758"><ele>734.0</ele><time>2026-04-29T09:07:49.982Z</time></trkpt><trkpt lat="38.1189633" lon="22.1099142"><ele>735.0</ele><time>2026-04-29T09:07:51.982Z</time></trkpt><trkpt lat="38.1188958" lon="22.1100063"><ele>736.0</ele><time>2026-04-29T09:07:52.98Z</time></trkpt><trkpt lat="38.1188363" lon="22.1101258"><ele>737.0</ele><time>2026-04-29T09:07:53.981Z</time></trkpt><trkpt lat="38.1187973" lon="22.1102397"><ele>738.0</ele><time>2026-04-29T09:07:54.981Z</time></trkpt><trkpt lat="38.1187739" lon="22.1103453"><ele>739.0</ele><time>2026-04-29T09:07:55.981Z</time></trkpt><trkpt lat="38.1187741" lon="22.1104597"><ele>739.0</ele><time>2026-04-29T09:07:56.982Z</time></trkpt><trkpt lat="38.1188069" lon="22.1105508"><ele>739.0</ele><time>2026-04-29T09:07:57.982Z</time></trkpt><trkpt lat="38.1188717" lon="22.1106184"><ele>739.0</ele><time>2026-04-29T09:07:58.982Z</time></trkpt><trkpt lat="38.1189456" lon="22.1106659"><ele>739.0</ele><time>2026-04-29T09:07:59.981Z</time></trkpt><trkpt lat="38.119024" lon="22.1106973"><ele>739.0</ele><time>2026-04-29T09:08:00.982Z</time></trkpt><trkpt lat="38.1191069" lon="22.1106924"><ele>739.0</ele><time>2026-04-29T09:08:01.982Z</time></trkpt><trkpt lat="38.119182" lon="22.110642"><ele>744.25</ele><time>2026-04-29T09:08:02.982Z</time></trkpt><trkpt lat="38.119252" lon="22.1105396"><ele>749.5</ele><time>2026-04-29T09:08:03.981Z</time></trkpt><trkpt lat="38.119327" lon="22.110398"><ele>754.75</ele><time>2026-04-29T09:08:04.981Z</time></trkpt><trkpt lat="38.119394" lon="22.1102461"><ele>760.0</ele><time>2026-04-29T09:08:05.981Z</time></trkpt><trkpt lat="38.1194397" lon="22.1100838"><ele>760.0</ele><time>2026-04-29T09:08:06.982Z</time></trkpt><trkpt lat="38.1194586" lon="22.1099304"><ele>760.0</ele><time>2026-04-29T09:08:07.981Z</time></trkpt><trkpt lat="38.1194573" lon="22.1097624"><ele>760.0</ele><time>2026-04-29T09:08:08.982Z</time></trkpt><trkpt lat="38.1194528" lon="22.1095889"><ele>760.0</ele><time>2026-04-29T09:08:09.982Z</time></trkpt><trkpt lat="38.1194486" lon="22.1094224"><ele>759.8</ele><time>2026-04-29T09:08:10.981Z</time></trkpt><trkpt lat="38.119446" lon="22.1092747"><ele>759.6</ele><time>2026-04-29T09:08:11.981Z</time></trkpt><trkpt lat="38.1194254" lon="22.1091375"><ele>759.4000000000001</ele><time>2026-04-29T09:08:12.981Z</time></trkpt><trkpt lat="38.1193984" lon="22.1090167"><ele>759.2</ele><time>2026-04-29T09:08:13.982Z</time></trkpt><trkpt lat="38.1193813" lon="22.1088999"><ele>759.0</ele><time>2026-04-29T09:08:14.981Z</time></trkpt><trkpt lat="38.1193816" lon="22.1087797"><ele>759.0</ele><time>2026-04-29T09:08:15.982Z</time></trkpt><trkpt lat="38.1194152" lon="22.1086732"><ele>759.0</ele><time>2026-04-29T09:08:16.981Z</time></trkpt><trkpt lat="38.1194746" lon="22.108595"><ele>759.0</ele><time>2026-04-29T09:08:17.982Z</time></trkpt><trkpt lat="38.1195437" lon="22.1085093"><ele>759.0</ele><time>2026-04-29T09:08:18.981Z</time></trkpt><trkpt lat="38.119593" lon="22.1084014"><ele>759.0</ele><time>2026-04-29T09:08:19.982Z</time></trkpt><trkpt lat="38.1196245" lon="22.1082796"><ele>758.0</ele><time>2026-04-29T09:08:20.981Z</time></trkpt><trkpt lat="38.119648" lon="22.1081544"><ele>757.0</ele><time>2026-04-29T09:08:21.981Z</time></trkpt><trkpt lat="38.1196738" lon="22.1080326"><ele>756.0</ele><time>2026-04-29T09:08:22.982Z</time></trkpt><trkpt lat="38.1197162" lon="22.1079182"><ele>755.0</ele><time>2026-04-29T09:08:23.981Z</time></trkpt><trkpt lat="38.1197931" lon="22.107819"><ele>754.0</ele><time>2026-04-29T09:08:24.981Z</time></trkpt><trkpt lat="38.1198829" lon="22.1077235"><ele>760.25</ele><time>2026-04-29T09:08:25.982Z</time></trkpt><trkpt lat="38.1199749" lon="22.1076214"><ele>766.5</ele><time>2026-04-29T09:08:26.982Z</time></trkpt><trkpt lat="38.1200575" lon="22.1075106"><ele>772.75</ele><time>2026-04-29T09:08:27.981Z</time></trkpt><trkpt lat="38.120116" lon="22.1073795"><ele>779.0</ele><time>2026-04-29T09:08:28.981Z</time></trkpt><trkpt lat="38.1201573" lon="22.1072285"><ele>779.0</ele><time>2026-04-29T09:08:29.982Z</time></trkpt><trkpt lat="38.1201915" lon="22.1070775"><ele>779.0</ele><time>2026-04-29T09:08:30.982Z</time></trkpt><trkpt lat="38.1202366" lon="22.1069218"><ele>779.0</ele><time>2026-04-29T09:08:31.982Z</time></trkpt><trkpt lat="38.1202771" lon="22.1067754"><ele>779.0</ele><time>2026-04-29T09:08:32.981Z</time></trkpt><trkpt lat="38.1202984" lon="22.1066323"><ele>780.0</ele><time>2026-04-29T09:08:33.981Z</time></trkpt><trkpt lat="38.1203006" lon="22.1064786"><ele>781.0</ele><time>2026-04-29T09:08:34.981Z</time></trkpt><trkpt lat="38.1202944" lon="22.1063117"><ele>782.0</ele><time>2026-04-29T09:08:35.982Z</time></trkpt><trkpt lat="38.1202774" lon="22.1061329"><ele>783.0</ele><time>2026-04-29T09:08:36.982Z</time></trkpt><trkpt lat="38.1202522" lon="22.1059534"><ele>783.0</ele><time>2026-04-29T09:08:37.982Z</time></trkpt><trkpt lat="38.1202203" lon="22.105771"><ele>783.0</ele><time>2026-04-29T09:08:38.981Z</time></trkpt><trkpt lat="38.1201905" lon="22.1056097"><ele>783.0</ele><time>2026-04-29T09:08:39.981Z</time></trkpt><trkpt lat="38.1201709" lon="22.1054556"><ele>783.0</ele><time>2026-04-29T09:08:40.981Z</time></trkpt><trkpt lat="38.1201515" lon="22.1053061"><ele>782.8</ele><time>2026-04-29T09:08:41.982Z</time></trkpt><trkpt lat="38.1201363" lon="22.1051686"><ele>782.5999999999999</ele><time>2026-04-29T09:08:42.982Z</time></trkpt><trkpt lat="38.1201463" lon="22.1050469"><ele>782.4000000000001</ele><time>2026-04-29T09:08:43.982Z</time></trkpt><trkpt lat="38.1201682" lon="22.1049256"><ele>782.2</ele><time>2026-04-29T09:08:44.981Z</time></trkpt><trkpt lat="38.1202077" lon="22.1048078"><ele>782.0</ele><time>2026-04-29T09:08:45.982Z</time></trkpt><trkpt lat="38.1202622" lon="22.1046857"><ele>782.0</ele><time>2026-04-29T09:08:46.982Z</time></trkpt><trkpt lat="38.1203116" lon="22.1045459"><ele>782.0</ele><time>2026-04-29T09:08:47.982Z</time></trkpt><trkpt lat="38.1203499" lon="22.1043966"><ele>782.0</ele><time>2026-04-29T09:08:48.982Z</time></trkpt><trkpt lat="38.1203696" lon="22.1042252"><ele>782.0</ele><time>2026-04-29T09:08:49.982Z</time></trkpt><trkpt lat="38.120388" lon="22.1040641"><ele>781.4000000000001</ele><time>2026-04-29T09:08:50.982Z</time></trkpt><trkpt lat="38.1204028" lon="22.103897"><ele>780.8000000000001</ele><time>2026-04-29T09:08:51.982Z</time></trkpt><trkpt lat="38.1204173" lon="22.1037436"><ele>780.2</ele><time>2026-04-29T09:08:52.981Z</time></trkpt><trkpt lat="38.1204202" lon="22.1036126"><ele>779.6</ele><time>2026-04-29T09:08:53.982Z</time></trkpt><trkpt lat="38.1204334" lon="22.1035029"><ele>779.0</ele><time>2026-04-29T09:08:54.981Z</time></trkpt><trkpt lat="38.1204431" lon="22.1034107"><ele>779.0</ele><time>2026-04-29T09:08:55.982Z</time></trkpt><trkpt lat="38.1204804" lon="22.1032996"><ele>779.0</ele><time>2026-04-29T09:08:57.981Z</time></trkpt><trkpt lat="38.1205443" lon="22.1033303"><ele>779.0</ele><time>2026-04-29T09:08:59.982Z</time></trkpt><trkpt lat="38.1205484" lon="22.1034663"><ele>779.0</ele><time>2026-04-29T09:09:01.981Z</time></trkpt><trkpt lat="38.1205525" lon="22.1035784"><ele>779.0</ele><time>2026-04-29T09:09:02.981Z</time></trkpt><trkpt lat="38.1205532" lon="22.1037165"><ele>779.0</ele><time>2026-04-29T09:09:03.982Z</time></trkpt><trkpt lat="38.120563" lon="22.1038645"><ele>779.0</ele><time>2026-04-29T09:09:04.981Z</time></trkpt><trkpt lat="38.120583" lon="22.1040223"><ele>779.0</ele><time>2026-04-29T09:09:05.982Z</time></trkpt><trkpt lat="38.1206187" lon="22.1041802"><ele>779.0</ele><time>2026-04-29T09:09:06.982Z</time></trkpt><trkpt lat="38.1206515" lon="22.1043365"><ele>779.75</ele><time>2026-04-29T09:09:07.981Z</time></trkpt><trkpt lat="38.1206841" lon="22.1044914"><ele>780.5</ele><time>2026-04-29T09:09:08.981Z</time></trkpt><trkpt lat="38.1207082" lon="22.1046372"><ele>781.25</ele><time>2026-04-29T09:09:09.982Z</time></trkpt><trkpt lat="38.1207033" lon="22.1047771"><ele>782.0</ele><time>2026-04-29T09:09:10.982Z</time></trkpt><trkpt lat="38.120672" lon="22.1049073"><ele>782.6</ele><time>2026-04-29T09:09:11.982Z</time></trkpt><trkpt lat="38.1206461" lon="22.1050325"><ele>783.2</ele><time>2026-04-29T09:09:12.981Z</time></trkpt><trkpt lat="38.1206287" lon="22.105169"><ele>783.8</ele><time>2026-04-29T09:09:13.982Z</time></trkpt><trkpt lat="38.1206307" lon="22.1053083"><ele>784.4</ele><time>2026-04-29T09:09:14.981Z</time></trkpt><trkpt lat="38.1206479" lon="22.1054405"><ele>785.0</ele><time>2026-04-29T09:09:15.981Z</time></trkpt><trkpt lat="38.1206777" lon="22.1055852"><ele>785.0</ele><time>2026-04-29T09:09:16.982Z</time></trkpt><trkpt lat="38.1207233" lon="22.1057339"><ele>785.0</ele><time>2026-04-29T09:09:17.982Z</time></trkpt><trkpt lat="38.1207804" lon="22.105876"><ele>785.0</ele><time>2026-04-29T09:09:18.981Z</time></trkpt><trkpt lat="38.1208455" lon="22.1060227"><ele>785.0</ele><time>2026-04-29T09:09:19.982Z</time></trkpt><trkpt lat="38.1209105" lon="22.1061763"><ele>792.0</ele><time>2026-04-29T09:09:20.981Z</time></trkpt><trkpt lat="38.120982" lon="22.1063243"><ele>799.0</ele><time>2026-04-29T09:09:21.982Z</time></trkpt><trkpt lat="38.1210537" lon="22.1064667"><ele>806.0</ele><time>2026-04-29T09:09:22.981Z</time></trkpt><trkpt lat="38.1211295" lon="22.1066235"><ele>813.0</ele><time>2026-04-29T09:09:23.982Z</time></trkpt><trkpt lat="38.1212032" lon="22.1067758"><ele>813.0</ele><time>2026-04-29T09:09:24.982Z</time></trkpt><trkpt lat="38.1212652" lon="22.1069126"><ele>813.0</ele><time>2026-04-29T09:09:25.982Z</time></trkpt><trkpt lat="38.1213109" lon="22.1070423"><ele>813.0</ele><time>2026-04-29T09:09:26.982Z</time></trkpt><trkpt lat="38.1213235" lon="22.1071857"><ele>813.0</ele><time>2026-04-29T09:09:27.982Z</time></trkpt><trkpt lat="38.1213193" lon="22.1073449"><ele>813.5</ele><time>2026-04-29T09:09:28.982Z</time></trkpt><trkpt lat="38.1212769" lon="22.1075226"><ele>814.0</ele><time>2026-04-29T09:09:29.982Z</time></trkpt><trkpt lat="38.121234" lon="22.1076928"><ele>814.5</ele><time>2026-04-29T09:09:30.981Z</time></trkpt><trkpt lat="38.1211833" lon="22.1078567"><ele>815.0</ele><time>2026-04-29T09:09:31.982Z</time></trkpt><trkpt lat="38.1211403" lon="22.108011"><ele>815.0</ele><time>2026-04-29T09:09:32.982Z</time></trkpt><trkpt lat="38.1210986" lon="22.1081615"><ele>815.0</ele><time>2026-04-29T09:09:33.982Z</time></trkpt><trkpt lat="38.1210701" lon="22.1082933"><ele>815.0</ele><time>2026-04-29T09:09:34.982Z</time></trkpt><trkpt lat="38.1210562" lon="22.1084323"><ele>815.0</ele><time>2026-04-29T09:09:35.981Z</time></trkpt><trkpt lat="38.1210716" lon="22.108564"><ele>815.0</ele><time>2026-04-29T09:09:36.981Z</time></trkpt><trkpt lat="38.1210943" lon="22.1086917"><ele>817.2</ele><time>2026-04-29T09:09:37.981Z</time></trkpt><trkpt lat="38.1211358" lon="22.1088075"><ele>819.4</ele><time>2026-04-29T09:09:38.982Z</time></trkpt><trkpt lat="38.1211999" lon="22.1089038"><ele>821.5999999999999</ele><time>2026-04-29T09:09:39.982Z</time></trkpt><trkpt lat="38.1212859" lon="22.1089826"><ele>823.8</ele><time>2026-04-29T09:09:40.982Z</time></trkpt><trkpt lat="38.1213896" lon="22.1090515"><ele>826.0</ele><time>2026-04-29T09:09:41.982Z</time></trkpt><trkpt lat="38.1215118" lon="22.1091098"><ele>831.0</ele><time>2026-04-29T09:09:42.981Z</time></trkpt><trkpt lat="38.1216365" lon="22.1091516"><ele>836.0</ele><time>2026-04-29T09:09:43.981Z</time></trkpt><trkpt lat="38.1217575" lon="22.1091909"><ele>841.0</ele><time>2026-04-29T09:09:44.981Z</time></trkpt><trkpt lat="38.1218653" lon="22.1092343"><ele>846.0</ele><time>2026-04-29T09:09:45.982Z</time></trkpt><trkpt lat="38.1219444" lon="22.1093015"><ele>846.0</ele><time>2026-04-29T09:09:46.981Z</time></trkpt><trkpt lat="38.1219982" lon="22.1093965"><ele>846.0</ele><time>2026-04-29T09:09:47.982Z</time></trkpt><trkpt lat="38.1220244" lon="22.1095116"><ele>846.0</ele><time>2026-04-29T09:09:48.982Z</time></trkpt><trkpt lat="38.1220395" lon="22.109627"><ele>846.0</ele><time>2026-04-29T09:09:49.981Z</time></trkpt><trkpt lat="38.1220608" lon="22.1097412"><ele>846.0</ele><time>2026-04-29T09:09:50.982Z</time></trkpt><trkpt lat="38.1220963" lon="22.1098399"><ele>846.0</ele><time>2026-04-29T09:09:51.981Z</time></trkpt><trkpt lat="38.1221443" lon="22.1099195"><ele>846.0</ele><time>2026-04-29T09:09:52.981Z</time></trkpt><trkpt lat="38.1222442" lon="22.1099864"><ele>846.0</ele><time>2026-04-29T09:09:54.982Z</time></trkpt><trkpt lat="38.1223049" lon="22.1098448"><ele>846.0</ele><time>2026-04-29T09:09:56.981Z</time></trkpt><trkpt lat="38.1223098" lon="22.1097533"><ele>846.0</ele><time>2026-04-29T09:09:57.98Z</time></trkpt><trkpt lat="38.1223264" lon="22.1096366"><ele>846.0</ele><time>2026-04-29T09:09:58.981Z</time></trkpt><trkpt lat="38.1223468" lon="22.1095099"><ele>846.0</ele><time>2026-04-29T09:09:59.982Z</time></trkpt><trkpt lat="38.1223691" lon="22.1093651"><ele>846.0</ele><time>2026-04-29T09:10:00.982Z</time></trkpt><trkpt lat="38.1223829" lon="22.1092339"><ele>846.0</ele><time>2026-04-29T09:10:01.982Z</time></trkpt><trkpt lat="38.1223842" lon="22.1091106"><ele>846.0</ele><time>2026-04-29T09:10:02.982Z</time></trkpt><trkpt lat="38.1223799" lon="22.1090014"><ele>846.1666666666666</ele><time>2026-04-29T09:10:03.981Z</time></trkpt><trkpt lat="38.1223735" lon="22.1088901"><ele>846.3333333333333</ele><time>2026-04-29T09:10:04.981Z</time></trkpt><trkpt lat="38.1223712" lon="22.1087847"><ele>846.5</ele><time>2026-04-29T09:10:05.981Z</time></trkpt><trkpt lat="38.1223699" lon="22.1086851"><ele>846.6666666666666</ele><time>2026-04-29T09:10:06.982Z</time></trkpt><trkpt lat="38.1223685" lon="22.10859"><ele>846.8333333333333</ele><time>2026-04-29T09:10:07.981Z</time></trkpt><trkpt lat="38.1223756" lon="22.1085024"><ele>847.0</ele><time>2026-04-29T09:10:08.982Z</time></trkpt><trkpt lat="38.1223899" lon="22.1084204"><ele>849.6666666666666</ele><time>2026-04-29T09:10:09.981Z</time></trkpt><trkpt lat="38.1224591" lon="22.1084351"><ele>852.3333333333333</ele><time>2026-04-29T09:10:10.982Z</time></trkpt><trkpt lat="38.1225497" lon="22.1084927"><ele>855.0</ele><time>2026-04-29T09:10:12.981Z</time></trkpt><trkpt lat="38.1225935" lon="22.1085835"><ele>857.6666666666667</ele><time>2026-04-29T09:10:14.982Z</time></trkpt><trkpt lat="38.1226329" lon="22.1086633"><ele>860.3333333333334</ele><time>2026-04-29T09:10:17.981Z</time></trkpt><trkpt lat="38.122677" lon="22.1087283"><ele>863.0</ele><time>2026-04-29T09:10:32.981Z</time></trkpt><trkpt lat="38.1227368" lon="22.1087714"><ele>863.0000000000001</ele><time>2026-04-29T09:10:33.981Z</time></trkpt><trkpt lat="38.1227933" lon="22.1088294"><ele>863.0</ele><time>2026-04-29T09:10:34.982Z</time></trkpt><trkpt lat="38.1228526" lon="22.1088898"><ele>863.0</ele><time>2026-04-29T09:10:35.982Z</time></trkpt><trkpt lat="38.1229158" lon="22.1089655"><ele>863.0</ele><time>2026-04-29T09:10:36.981Z</time></trkpt><trkpt lat="38.1229762" lon="22.1090379"><ele>863.0000000000001</ele><time>2026-04-29T09:10:37.982Z</time></trkpt><trkpt lat="38.1230368" lon="22.1091145"><ele>863.0</ele><time>2026-04-29T09:10:38.981Z</time></trkpt><trkpt lat="38.1231019" lon="22.1092044"><ele>862.8</ele><time>2026-04-29T09:10:39.981Z</time></trkpt><trkpt lat="38.1231642" lon="22.1092991"><ele>862.5999999999999</ele><time>2026-04-29T09:10:40.981Z</time></trkpt><trkpt lat="38.1232243" lon="22.1094005"><ele>862.4000000000001</ele><time>2026-04-29T09:10:41.981Z</time></trkpt><trkpt lat="38.1232846" lon="22.10951"><ele>862.2</ele><time>2026-04-29T09:10:42.981Z</time></trkpt><trkpt lat="38.1233413" lon="22.1096172"><ele>862.0</ele><time>2026-04-29T09:10:43.982Z</time></trkpt><trkpt lat="38.1233895" lon="22.1097217"><ele>864.1666666666666</ele><time>2026-04-29T09:10:44.982Z</time></trkpt><trkpt lat="38.1234248" lon="22.1098249"><ele>866.3333333333333</ele><time>2026-04-29T09:10:45.981Z</time></trkpt><trkpt lat="38.1234577" lon="22.1099204"><ele>868.5</ele><time>2026-04-29T09:10:46.982Z</time></trkpt><trkpt lat="38.1234916" lon="22.1100134"><ele>870.6666666666667</ele><time>2026-04-29T09:10:47.981Z</time></trkpt><trkpt lat="38.1235181" lon="22.1101042"><ele>872.8333333333334</ele><time>2026-04-29T09:10:48.981Z</time></trkpt><trkpt lat="38.1235416" lon="22.1101841"><ele>875.0</ele><time>2026-04-29T09:10:49.981Z</time></trkpt><trkpt lat="38.1235245" lon="22.1103056"><ele>875.3333333333334</ele><time>2026-04-29T09:10:51.982Z</time></trkpt><trkpt lat="38.1234517" lon="22.11041"><ele>875.6666666666667</ele><time>2026-04-29T09:10:53.981Z</time></trkpt><trkpt lat="38.1234069" lon="22.110473"><ele>876.0</ele><time>2026-04-29T09:10:54.982Z</time></trkpt><trkpt lat="38.1233564" lon="22.1105473"><ele>876.3333333333333</ele><time>2026-04-29T09:10:55.981Z</time></trkpt><trkpt lat="38.1233166" lon="22.1106323"><ele>876.6666666666666</ele><time>2026-04-29T09:10:56.982Z</time></trkpt><trkpt lat="38.1232769" lon="22.1107206"><ele>877.0</ele><time>2026-04-29T09:10:57.981Z</time></trkpt><trkpt lat="38.1232328" lon="22.1108014"><ele>873.6</ele><time>2026-04-29T09:10:58.981Z</time></trkpt><trkpt lat="38.1231823" lon="22.1108771"><ele>870.2</ele><time>2026-04-29T09:10:59.982Z</time></trkpt><trkpt lat="38.1231216" lon="22.1109612"><ele>866.8</ele><time>2026-04-29T09:11:00.982Z</time></trkpt><trkpt lat="38.1230559" lon="22.1110444"><ele>863.4</ele><time>2026-04-29T09:11:01.981Z</time></trkpt><trkpt lat="38.1230068" lon="22.1111204"><ele>860.0</ele><time>2026-04-29T09:11:02.981Z</time></trkpt><trkpt lat="38.1229625" lon="22.1112701"><ele>860.0</ele><time>2026-04-29T09:11:04.982Z</time></trkpt><trkpt lat="38.1229647" lon="22.111351"><ele>860.0</ele><time>2026-04-29T09:11:05.981Z</time></trkpt><trkpt lat="38.1229728" lon="22.1114503"><ele>860.0</ele><time>2026-04-29T09:11:06.982Z</time></trkpt><trkpt lat="38.1229833" lon="22.1115475"><ele>860.0</ele><time>2026-04-29T09:11:07.981Z</time></trkpt><trkpt lat="38.122984" lon="22.111634"><ele>860.0</ele><time>2026-04-29T09:11:08.981Z</time></trkpt><trkpt lat="38.1229858" lon="22.1117303"><ele>860.0</ele><time>2026-04-29T09:11:09.981Z</time></trkpt><trkpt lat="38.1229888" lon="22.1118204"><ele>860.0</ele><time>2026-04-29T09:11:10.982Z</time></trkpt><trkpt lat="38.1229992" lon="22.111913"><ele>860.6666666666667</ele><time>2026-04-29T09:11:11.982Z</time></trkpt><trkpt lat="38.1230271" lon="22.1120028"><ele>861.3333333333334</ele><time>2026-04-29T09:11:12.982Z</time></trkpt><trkpt lat="38.1230652" lon="22.112081"><ele>862.0</ele><time>2026-04-29T09:11:13.981Z</time></trkpt><trkpt lat="38.1231105" lon="22.1121505"><ele>862.6666666666667</ele><time>2026-04-29T09:11:14.982Z</time></trkpt><trkpt lat="38.1231559" lon="22.1122145"><ele>863.3333333333334</ele><time>2026-04-29T09:11:15.982Z</time></trkpt><trkpt lat="38.1232023" lon="22.1122757"><ele>864.0</ele><time>2026-04-29T09:11:16.981Z</time></trkpt><trkpt lat="38.1232904" lon="22.1123826"><ele>866.4000000000001</ele><time>2026-04-29T09:11:18.981Z</time></trkpt><trkpt lat="38.1233795" lon="22.11249"><ele>868.8000000000001</ele><time>2026-04-29T09:11:20.981Z</time></trkpt><trkpt lat="38.1234687" lon="22.1125908"><ele>871.1999999999999</ele><time>2026-04-29T09:11:22.981Z</time></trkpt><trkpt lat="38.1235485" lon="22.1127003"><ele>873.5999999999999</ele><time>2026-04-29T09:11:24.982Z</time></trkpt><trkpt lat="38.1235708" lon="22.1127811"><ele>876.0</ele><time>2026-04-29T09:11:25.981Z</time></trkpt><trkpt lat="38.1235378" lon="22.1129217"><ele>876.0</ele><time>2026-04-29T09:11:27.981Z</time></trkpt><trkpt lat="38.1234784" lon="22.1129848"><ele>875.9999999999999</ele><time>2026-04-29T09:11:28.981Z</time></trkpt><trkpt lat="38.1233918" lon="22.1130292"><ele>875.9999999999999</ele><time>2026-04-29T09:11:29.981Z</time></trkpt><trkpt lat="38.1232965" lon="22.1130753"><ele>876.0</ele><time>2026-04-29T09:11:30.981Z</time></trkpt><trkpt lat="38.1232001" lon="22.1131373"><ele>876.0</ele><time>2026-04-29T09:11:31.982Z</time></trkpt><trkpt lat="38.1230999" lon="22.1132206"><ele>871.0</ele><time>2026-04-29T09:11:32.982Z</time></trkpt><trkpt lat="38.1229987" lon="22.1133399"><ele>866.0</ele><time>2026-04-29T09:11:33.982Z</time></trkpt><trkpt lat="38.1229045" lon="22.1134737"><ele>861.0</ele><time>2026-04-29T09:11:34.982Z</time></trkpt><trkpt lat="38.1228046" lon="22.1136048"><ele>856.0</ele><time>2026-04-29T09:11:35.982Z</time></trkpt><trkpt lat="38.1226949" lon="22.1137243"><ele>856.0</ele><time>2026-04-29T09:11:36.981Z</time></trkpt><trkpt lat="38.1225805" lon="22.1138279"><ele>856.0</ele><time>2026-04-29T09:11:37.981Z</time></trkpt><trkpt lat="38.1224712" lon="22.1139385"><ele>856.0</ele><time>2026-04-29T09:11:38.981Z</time></trkpt><trkpt lat="38.1223681" lon="22.1140543"><ele>856.0</ele><time>2026-04-29T09:11:39.982Z</time></trkpt><trkpt lat="38.1222737" lon="22.1141959"><ele>855.0</ele><time>2026-04-29T09:11:40.981Z</time></trkpt><trkpt lat="38.1221793" lon="22.114331"><ele>854.0</ele><time>2026-04-29T09:11:41.982Z</time></trkpt><trkpt lat="38.1220903" lon="22.1144696"><ele>853.0</ele><time>2026-04-29T09:11:42.981Z</time></trkpt><trkpt lat="38.1220066" lon="22.1146206"><ele>852.0</ele><time>2026-04-29T09:11:43.982Z</time></trkpt><trkpt lat="38.1219179" lon="22.1147725"><ele>855.25</ele><time>2026-04-29T09:11:44.982Z</time></trkpt><trkpt lat="38.1218227" lon="22.1149237"><ele>858.5</ele><time>2026-04-29T09:11:45.982Z</time></trkpt><trkpt lat="38.1217309" lon="22.115071"><ele>861.75</ele><time>2026-04-29T09:11:46.982Z</time></trkpt><trkpt lat="38.1216421" lon="22.1152097"><ele>865.0</ele><time>2026-04-29T09:11:47.981Z</time></trkpt><trkpt lat="38.1215495" lon="22.1153324"><ele>859.5</ele><time>2026-04-29T09:11:48.981Z</time></trkpt><trkpt lat="38.1214484" lon="22.1154351"><ele>854.0</ele><time>2026-04-29T09:11:49.982Z</time></trkpt><trkpt lat="38.1213599" lon="22.1155376"><ele>848.5</ele><time>2026-04-29T09:11:50.982Z</time></trkpt><trkpt lat="38.1212907" lon="22.1156486"><ele>843.0</ele><time>2026-04-29T09:11:51.982Z</time></trkpt><trkpt lat="38.1212343" lon="22.1157676"><ele>843.0</ele><time>2026-04-29T09:11:52.982Z</time></trkpt><trkpt lat="38.1211672" lon="22.1158874"><ele>843.0</ele><time>2026-04-29T09:11:53.981Z</time></trkpt><trkpt lat="38.1210862" lon="22.1159748"><ele>843.0</ele><time>2026-04-29T09:11:54.982Z</time></trkpt><trkpt lat="38.1210153" lon="22.1160446"><ele>843.0</ele><time>2026-04-29T09:11:55.981Z</time></trkpt><trkpt lat="38.1209567" lon="22.1161365"><ele>843.0</ele><time>2026-04-29T09:11:56.982Z</time></trkpt><trkpt lat="38.1209111" lon="22.1162254"><ele>843.0</ele><time>2026-04-29T09:11:57.981Z</time></trkpt><trkpt lat="38.1208739" lon="22.1163147"><ele>843.0</ele><time>2026-04-29T09:11:58.981Z</time></trkpt><trkpt lat="38.1208342" lon="22.1164023"><ele>843.0</ele><time>2026-04-29T09:11:59.981Z</time></trkpt><trkpt lat="38.1207939" lon="22.1164925"><ele>843.0</ele><time>2026-04-29T09:12:00.981Z</time></trkpt><trkpt lat="38.1207575" lon="22.1165881"><ele>843.0</ele><time>2026-04-29T09:12:01.982Z</time></trkpt><trkpt lat="38.1207284" lon="22.1166897"><ele>843.0</ele><time>2026-04-29T09:12:02.982Z</time></trkpt><trkpt lat="38.1207044" lon="22.1167981"><ele>838.0</ele><time>2026-04-29T09:12:03.982Z</time></trkpt><trkpt lat="38.1206823" lon="22.1169178"><ele>833.0</ele><time>2026-04-29T09:12:04.981Z</time></trkpt><trkpt lat="38.1206649" lon="22.1170332"><ele>828.0</ele><time>2026-04-29T09:12:05.982Z</time></trkpt><trkpt lat="38.1206459" lon="22.1171725"><ele>823.0</ele><time>2026-04-29T09:12:06.982Z</time></trkpt><trkpt lat="38.1206183" lon="22.1173121"><ele>818.0</ele><time>2026-04-29T09:12:07.981Z</time></trkpt><trkpt lat="38.1205829" lon="22.1174419"><ele>818.0000000000001</ele><time>2026-04-29T09:12:08.981Z</time></trkpt><trkpt lat="38.1205348" lon="22.1175656"><ele>818.0</ele><time>2026-04-29T09:12:09.982Z</time></trkpt><trkpt lat="38.1204771" lon="22.117658"><ele>818.0</ele><time>2026-04-29T09:12:10.982Z</time></trkpt><trkpt lat="38.1204282" lon="22.1177398"><ele>818.0</ele><time>2026-04-29T09:12:11.982Z</time></trkpt><trkpt lat="38.1204065" lon="22.1178435"><ele>818.0000000000001</ele><time>2026-04-29T09:12:12.982Z</time></trkpt><trkpt lat="38.1204056" lon="22.1179478"><ele>818.0</ele><time>2026-04-29T09:12:13.982Z</time></trkpt><trkpt lat="38.1204313" lon="22.1180477"><ele>818.0</ele><time>2026-04-29T09:12:14.981Z</time></trkpt><trkpt lat="38.1204795" lon="22.118158"><ele>818.0</ele><time>2026-04-29T09:12:15.982Z</time></trkpt><trkpt lat="38.1205458" lon="22.1182585"><ele>818.0</ele><time>2026-04-29T09:12:16.981Z</time></trkpt><trkpt lat="38.1206182" lon="22.1183433"><ele>818.0</ele><time>2026-04-29T09:12:17.982Z</time></trkpt><trkpt lat="38.1206932" lon="22.1184205"><ele>818.0</ele><time>2026-04-29T09:12:18.982Z</time></trkpt><trkpt lat="38.1207657" lon="22.1184821"><ele>822.8571428571428</ele><time>2026-04-29T09:12:19.982Z</time></trkpt><trkpt lat="38.1208396" lon="22.1185286"><ele>827.7142857142858</ele><time>2026-04-29T09:12:20.982Z</time></trkpt><trkpt lat="38.1209128" lon="22.118564"><ele>832.5714285714286</ele><time>2026-04-29T09:12:21.982Z</time></trkpt><trkpt lat="38.1209804" lon="22.1185863"><ele>837.4285714285713</ele><time>2026-04-29T09:12:22.982Z</time></trkpt><trkpt lat="38.1210501" lon="22.118617"><ele>842.2857142857142</ele><time>2026-04-29T09:12:23.982Z</time></trkpt><trkpt lat="38.1211147" lon="22.118656"><ele>847.1428571428571</ele><time>2026-04-29T09:12:24.981Z</time></trkpt><trkpt lat="38.1211711" lon="22.1186989"><ele>852.0</ele><time>2026-04-29T09:12:25.981Z</time></trkpt><trkpt lat="38.1212613" lon="22.11879"><ele>852.0</ele><time>2026-04-29T09:12:27.981Z</time></trkpt><trkpt lat="38.1213209" lon="22.1188912"><ele>852.0</ele><time>2026-04-29T09:12:29.981Z</time></trkpt><trkpt lat="38.1213287" lon="22.1189971"><ele>852.0</ele><time>2026-04-29T09:12:31.982Z</time></trkpt><trkpt lat="38.1212765" lon="22.1190634"><ele>852.0</ele><time>2026-04-29T09:12:33.982Z</time></trkpt><trkpt lat="38.121176" lon="22.1190831"><ele>852.0</ele><time>2026-04-29T09:12:35.981Z</time></trkpt><trkpt lat="38.121111" lon="22.1190807"><ele>852.0</ele><time>2026-04-29T09:12:36.982Z</time></trkpt><trkpt lat="38.1210459" lon="22.1190883"><ele>851.5714285714286</ele><time>2026-04-29T09:12:37.981Z</time></trkpt><trkpt lat="38.1209827" lon="22.1191034"><ele>851.1428571428571</ele><time>2026-04-29T09:12:38.981Z</time></trkpt><trkpt lat="38.1209201" lon="22.1191219"><ele>850.7142857142858</ele><time>2026-04-29T09:12:39.981Z</time></trkpt><trkpt lat="38.120849" lon="22.1191405"><ele>850.2857142857142</ele><time>2026-04-29T09:12:40.981Z</time></trkpt><trkpt lat="38.120775" lon="22.1191609"><ele>849.8571428571429</ele><time>2026-04-29T09:12:41.982Z</time></trkpt><trkpt lat="38.120701" lon="22.1191824"><ele>849.4285714285714</ele><time>2026-04-29T09:12:42.981Z</time></trkpt><trkpt lat="38.1206228" lon="22.1191882"><ele>849.0</ele><time>2026-04-29T09:12:43.982Z</time></trkpt><trkpt lat="38.1205499" lon="22.1191798"><ele>845.3333333333334</ele><time>2026-04-29T09:12:44.982Z</time></trkpt><trkpt lat="38.1204795" lon="22.1191761"><ele>841.6666666666667</ele><time>2026-04-29T09:12:45.982Z</time></trkpt><trkpt lat="38.1204105" lon="22.1191764"><ele>838.0</ele><time>2026-04-29T09:12:46.981Z</time></trkpt><trkpt lat="38.1203125" lon="22.1192274"><ele>834.3333333333334</ele><time>2026-04-29T09:12:48.982Z</time></trkpt><trkpt lat="38.1202682" lon="22.1193591"><ele>830.6666666666667</ele><time>2026-04-29T09:12:50.982Z</time></trkpt><trkpt lat="38.1202697" lon="22.1194542"><ele>827.0</ele><time>2026-04-29T09:12:51.982Z</time></trkpt><trkpt lat="38.1202678" lon="22.1195641"><ele>827.0</ele><time>2026-04-29T09:12:52.982Z</time></trkpt><trkpt lat="38.1202748" lon="22.1196893"><ele>827.0</ele><time>2026-04-29T09:12:53.981Z</time></trkpt><trkpt lat="38.1202897" lon="22.1198209"><ele>827.0</ele><time>2026-04-29T09:12:54.982Z</time></trkpt><trkpt lat="38.1203146" lon="22.1199621"><ele>827.0</ele><time>2026-04-29T09:12:55.981Z</time></trkpt><trkpt lat="38.1203482" lon="22.1201189"><ele>827.0</ele><time>2026-04-29T09:12:56.981Z</time></trkpt><trkpt lat="38.12038" lon="22.1202734"><ele>831.0</ele><time>2026-04-29T09:12:57.982Z</time></trkpt><trkpt lat="38.1204025" lon="22.1204338"><ele>835.0</ele><time>2026-04-29T09:12:58.981Z</time></trkpt><trkpt lat="38.1204165" lon="22.1205882"><ele>839.0</ele><time>2026-04-29T09:12:59.982Z</time></trkpt><trkpt lat="38.1204231" lon="22.1207391"><ele>843.0</ele><time>2026-04-29T09:13:00.982Z</time></trkpt><trkpt lat="38.1204222" lon="22.1208837"><ele>845.0</ele><time>2026-04-29T09:13:01.981Z</time></trkpt><trkpt lat="38.1204172" lon="22.1210244"><ele>847.0</ele><time>2026-04-29T09:13:02.981Z</time></trkpt><trkpt lat="38.1204084" lon="22.1211641"><ele>849.0</ele><time>2026-04-29T09:13:03.982Z</time></trkpt><trkpt lat="38.1203981" lon="22.1212973"><ele>851.0</ele><time>2026-04-29T09:13:04.981Z</time></trkpt><trkpt lat="38.1203799" lon="22.1214347"><ele>853.0</ele><time>2026-04-29T09:13:05.981Z</time></trkpt><trkpt lat="38.1203625" lon="22.1215763"><ele>854.8</ele><time>2026-04-29T09:13:06.981Z</time></trkpt><trkpt lat="38.1203511" lon="22.1217149"><ele>856.5999999999999</ele><time>2026-04-29T09:13:07.981Z</time></trkpt><trkpt lat="38.1203494" lon="22.1218468"><ele>858.4000000000001</ele><time>2026-04-29T09:13:08.982Z</time></trkpt><trkpt lat="38.1203518" lon="22.1219624"><ele>860.2</ele><time>2026-04-29T09:13:09.981Z</time></trkpt><trkpt lat="38.1203507" lon="22.1220806"><ele>862.0</ele><time>2026-04-29T09:13:10.98Z</time></trkpt><trkpt lat="38.120348" lon="22.1221975"><ele>861.9999999999999</ele><time>2026-04-29T09:13:11.982Z</time></trkpt><trkpt lat="38.1203392" lon="22.1223086"><ele>862.0</ele><time>2026-04-29T09:13:12.981Z</time></trkpt><trkpt lat="38.1203292" lon="22.1224147"><ele>862.0</ele><time>2026-04-29T09:13:13.982Z</time></trkpt><trkpt lat="38.1203133" lon="22.1225154"><ele>862.0</ele><time>2026-04-29T09:13:14.981Z</time></trkpt><trkpt lat="38.1202957" lon="22.1226102"><ele>861.9999999999999</ele><time>2026-04-29T09:13:15.982Z</time></trkpt><trkpt lat="38.1202746" lon="22.1227167"><ele>862.0</ele><time>2026-04-29T09:13:16.981Z</time></trkpt><trkpt lat="38.1202402" lon="22.1228234"><ele>864.1666666666666</ele><time>2026-04-29T09:13:17.981Z</time></trkpt><trkpt lat="38.1202009" lon="22.1229274"><ele>866.3333333333333</ele><time>2026-04-29T09:13:18.981Z</time></trkpt><trkpt lat="38.1201615" lon="22.1230314"><ele>868.5</ele><time>2026-04-29T09:13:19.981Z</time></trkpt><trkpt lat="38.1201179" lon="22.1231311"><ele>870.6666666666667</ele><time>2026-04-29T09:13:20.982Z</time></trkpt><trkpt lat="38.1200796" lon="22.1232222"><ele>872.8333333333334</ele><time>2026-04-29T09:13:21.981Z</time></trkpt><trkpt lat="38.1200429" lon="22.1233243"><ele>875.0</ele><time>2026-04-29T09:13:22.981Z</time></trkpt><trkpt lat="38.1200035" lon="22.1234317"><ele>873.6</ele><time>2026-04-29T09:13:23.982Z</time></trkpt><trkpt lat="38.1199543" lon="22.1235435"><ele>872.2</ele><time>2026-04-29T09:13:24.982Z</time></trkpt><trkpt lat="38.1199117" lon="22.1236552"><ele>870.8</ele><time>2026-04-29T09:13:25.982Z</time></trkpt><trkpt lat="38.1198745" lon="22.1237652"><ele>869.4</ele><time>2026-04-29T09:13:26.982Z</time></trkpt><trkpt lat="38.1198359" lon="22.1238755"><ele>868.0</ele><time>2026-04-29T09:13:27.981Z</time></trkpt><trkpt lat="38.1197964" lon="22.1239914"><ele>869.8333333333333</ele><time>2026-04-29T09:13:28.981Z</time></trkpt><trkpt lat="38.1197543" lon="22.1241071"><ele>871.6666666666666</ele><time>2026-04-29T09:13:29.982Z</time></trkpt><trkpt lat="38.1197136" lon="22.1242102"><ele>873.5</ele><time>2026-04-29T09:13:30.982Z</time></trkpt><trkpt lat="38.1196749" lon="22.1243084"><ele>875.3333333333333</ele><time>2026-04-29T09:13:31.982Z</time></trkpt><trkpt lat="38.119638" lon="22.1244056"><ele>877.1666666666666</ele><time>2026-04-29T09:13:32.982Z</time></trkpt><trkpt lat="38.1196065" lon="22.1245022"><ele>879.0</ele><time>2026-04-29T09:13:33.982Z</time></trkpt><trkpt lat="38.1195765" lon="22.1246018"><ele>879.0</ele><time>2026-04-29T09:13:34.981Z</time></trkpt><trkpt lat="38.1195504" lon="22.1246985"><ele>879.0</ele><time>2026-04-29T09:13:35.981Z</time></trkpt><trkpt lat="38.1195369" lon="22.1247977"><ele>879.0</ele><time>2026-04-29T09:13:36.981Z</time></trkpt><trkpt lat="38.1195358" lon="22.1248909"><ele>879.0</ele><time>2026-04-29T09:13:37.981Z</time></trkpt><trkpt lat="38.1195245" lon="22.1249794"><ele>879.0</ele><time>2026-04-29T09:13:38.982Z</time></trkpt><trkpt lat="38.1194977" lon="22.1250701"><ele>879.0</ele><time>2026-04-29T09:13:39.982Z</time></trkpt><trkpt lat="38.1194558" lon="22.1251494"><ele>880.6666666666666</ele><time>2026-04-29T09:13:40.982Z</time></trkpt><trkpt lat="38.1194123" lon="22.1252252"><ele>882.3333333333333</ele><time>2026-04-29T09:13:41.981Z</time></trkpt><trkpt lat="38.1193733" lon="22.1253013"><ele>884.0</ele><time>2026-04-29T09:13:42.982Z</time></trkpt><trkpt lat="38.1193496" lon="22.1253826"><ele>885.6666666666666</ele><time>2026-04-29T09:13:43.981Z</time></trkpt><trkpt lat="38.1193301" lon="22.1255248"><ele>887.3333333333333</ele><time>2026-04-29T09:13:45.981Z</time></trkpt><trkpt lat="38.1193329" lon="22.1256396"><ele>889.0</ele><time>2026-04-29T09:13:47.982Z</time></trkpt><trkpt lat="38.1193476" lon="22.125766"><ele>889.3333333333333</ele><time>2026-04-29T09:13:49.982Z</time></trkpt><trkpt lat="38.1193378" lon="22.1258757"><ele>889.6666666666666</ele><time>2026-04-29T09:13:51.982Z</time></trkpt><trkpt lat="38.1192729" lon="22.125922"><ele>890.0</ele><time>2026-04-29T09:13:53.981Z</time></trkpt><trkpt lat="38.1191746" lon="22.1258585"><ele>890.3333333333333</ele><time>2026-04-29T09:13:55.982Z</time></trkpt><trkpt lat="38.1191237" lon="22.1258072"><ele>890.6666666666666</ele><time>2026-04-29T09:13:56.982Z</time></trkpt><trkpt lat="38.1190583" lon="22.1257601"><ele>891.0</ele><time>2026-04-29T09:13:57.982Z</time></trkpt><trkpt lat="38.1189324" lon="22.1257545"><ele>891.0</ele><time>2026-04-29T09:13:59.982Z</time></trkpt><trkpt lat="38.1188707" lon="22.1257962"><ele>891.0</ele><time>2026-04-29T09:14:00.982Z</time></trkpt><trkpt lat="38.1188104" lon="22.125859"><ele>891.0</ele><time>2026-04-29T09:14:01.981Z</time></trkpt><trkpt lat="38.11875" lon="22.1259352"><ele>891.0</ele><time>2026-04-29T09:14:02.981Z</time></trkpt><trkpt lat="38.1186893" lon="22.126011"><ele>891.0</ele><time>2026-04-29T09:14:03.981Z</time></trkpt><trkpt lat="38.1186296" lon="22.1260869"><ele>891.0</ele><time>2026-04-29T09:14:04.982Z</time></trkpt><trkpt lat="38.1185662" lon="22.1261602"><ele>891.0</ele><time>2026-04-29T09:14:05.981Z</time></trkpt><trkpt lat="38.1184983" lon="22.1262333"><ele>891.0</ele><time>2026-04-29T09:14:06.982Z</time></trkpt><trkpt lat="38.1184329" lon="22.1263081"><ele>891.0</ele><time>2026-04-29T09:14:07.981Z</time></trkpt><trkpt lat="38.1183624" lon="22.1263734"><ele>891.0</ele><time>2026-04-29T09:14:08.982Z</time></trkpt><trkpt lat="38.1182903" lon="22.1264234"><ele>891.0</ele><time>2026-04-29T09:14:09.981Z</time></trkpt><trkpt lat="38.1182222" lon="22.1264578"><ele>891.0</ele><time>2026-04-29T09:14:10.981Z</time></trkpt><trkpt lat="38.1181472" lon="22.1264828"><ele>891.0</ele><time>2026-04-29T09:14:11.982Z</time></trkpt><trkpt lat="38.1180687" lon="22.1264977"><ele>891.0</ele><time>2026-04-29T09:14:12.982Z</time></trkpt><trkpt lat="38.1179897" lon="22.1265067"><ele>891.0</ele><time>2026-04-29T09:14:13.982Z</time></trkpt><trkpt lat="38.1179105" lon="22.1265208"><ele>891.0</ele><time>2026-04-29T09:14:14.982Z</time></trkpt><trkpt lat="38.1178329" lon="22.1265207"><ele>891.0</ele><time>2026-04-29T09:14:15.981Z</time></trkpt><trkpt lat="38.1177626" lon="22.1265271"><ele>891.0</ele><time>2026-04-29T09:14:16.981Z</time></trkpt><trkpt lat="38.1176927" lon="22.1265259"><ele>891.0</ele><time>2026-04-29T09:14:17.982Z</time></trkpt><trkpt lat="38.1176201" lon="22.1265291"><ele>891.0</ele><time>2026-04-29T09:14:18.982Z</time></trkpt><trkpt lat="38.1175583" lon="22.1265449"><ele>891.0</ele><time>2026-04-29T09:14:19.982Z</time></trkpt><trkpt lat="38.1174918" lon="22.1265569"><ele>891.0</ele><time>2026-04-29T09:14:20.981Z</time></trkpt><trkpt lat="38.1174269" lon="22.126567"><ele>891.0</ele><time>2026-04-29T09:14:21.982Z</time></trkpt><trkpt lat="38.117319" lon="22.1266472"><ele>891.0</ele><time>2026-04-29T09:14:23.981Z</time></trkpt><trkpt lat="38.1172576" lon="22.1267666"><ele>893.6666666666666</ele><time>2026-04-29T09:14:25.982Z</time></trkpt><trkpt lat="38.1172536" lon="22.1268674"><ele>896.3333333333333</ele><time>2026-04-29T09:14:27.982Z</time></trkpt><trkpt lat="38.1172705" lon="22.1269706"><ele>899.0</ele><time>2026-04-29T09:14:38.981Z</time></trkpt><trkpt lat="38.1172113" lon="22.1270356"><ele>901.6666666666666</ele><time>2026-04-29T09:14:40.982Z</time></trkpt><trkpt lat="38.1171475" lon="22.1270558"><ele>904.3333333333333</ele><time>2026-04-29T09:14:41.982Z</time></trkpt><trkpt lat="38.117013" lon="22.1270359"><ele>907.0</ele><time>2026-04-29T09:14:43.98Z</time></trkpt><trkpt lat="38.1169399" lon="22.1270145"><ele>907.0000000000001</ele><time>2026-04-29T09:14:44.981Z</time></trkpt><trkpt lat="38.116877" lon="22.1269579"><ele>907.0</ele><time>2026-04-29T09:14:45.981Z</time></trkpt><trkpt lat="38.1168187" lon="22.1269122"><ele>907.0000000000001</ele><time>2026-04-29T09:14:46.982Z</time></trkpt><trkpt lat="38.1167544" lon="22.1268662"><ele>907.0000000000001</ele><time>2026-04-29T09:14:47.981Z</time></trkpt><trkpt lat="38.1166905" lon="22.126823"><ele>907.0</ele><time>2026-04-29T09:14:48.981Z</time></trkpt><trkpt lat="38.1166217" lon="22.1267987"><ele>907.0000000000001</ele><time>2026-04-29T09:14:49.981Z</time></trkpt><trkpt lat="38.1165431" lon="22.1267786"><ele>907.0000000000001</ele><time>2026-04-29T09:14:50.981Z</time></trkpt><trkpt lat="38.1164462" lon="22.1267698"><ele>906.8</ele><time>2026-04-29T09:14:51.982Z</time></trkpt><trkpt lat="38.11635" lon="22.1267583"><ele>906.6</ele><time>2026-04-29T09:14:52.982Z</time></trkpt><trkpt lat="38.1162523" lon="22.1267545"><ele>906.3999999999999</ele><time>2026-04-29T09:14:53.982Z</time></trkpt><trkpt lat="38.1161619" lon="22.1267552"><ele>906.1999999999999</ele><time>2026-04-29T09:14:54.982Z</time></trkpt><trkpt lat="38.1160805" lon="22.1267776"><ele>906.0</ele><time>2026-04-29T09:14:55.981Z</time></trkpt><trkpt lat="38.1160028" lon="22.1268254"><ele>906.0</ele><time>2026-04-29T09:14:56.982Z</time></trkpt><trkpt lat="38.1159387" lon="22.1268973"><ele>905.9999999999999</ele><time>2026-04-29T09:14:57.982Z</time></trkpt><trkpt lat="38.11588" lon="22.126996"><ele>905.9999999999999</ele><time>2026-04-29T09:14:58.982Z</time></trkpt><trkpt lat="38.1158227" lon="22.127102"><ele>906.0</ele><time>2026-04-29T09:14:59.981Z</time></trkpt><trkpt lat="38.1157598" lon="22.1272225"><ele>906.0</ele><time>2026-04-29T09:15:00.982Z</time></trkpt><trkpt lat="38.1156937" lon="22.1273403"><ele>906.8</ele><time>2026-04-29T09:15:01.982Z</time></trkpt><trkpt lat="38.1156353" lon="22.1274579"><ele>907.5999999999999</ele><time>2026-04-29T09:15:02.981Z</time></trkpt><trkpt lat="38.1155799" lon="22.1275745"><ele>908.4</ele><time>2026-04-29T09:15:03.982Z</time></trkpt><trkpt lat="38.1155417" lon="22.1276885"><ele>909.2</ele><time>2026-04-29T09:15:04.981Z</time></trkpt><trkpt lat="38.1155088" lon="22.1277923"><ele>910.0</ele><time>2026-04-29T09:15:05.981Z</time></trkpt><trkpt lat="38.1154621" lon="22.1279085"><ele>910.0</ele><time>2026-04-29T09:15:06.982Z</time></trkpt><trkpt lat="38.1153947" lon="22.1280061"><ele>910.0</ele><time>2026-04-29T09:15:07.981Z</time></trkpt><trkpt lat="38.1153151" lon="22.1280935"><ele>910.0</ele><time>2026-04-29T09:15:08.982Z</time></trkpt><trkpt lat="38.1152262" lon="22.1281692"><ele>910.0</ele><time>2026-04-29T09:15:09.982Z</time></trkpt><trkpt lat="38.1151629" lon="22.1282607"><ele>910.0</ele><time>2026-04-29T09:15:10.982Z</time></trkpt><trkpt lat="38.1151247" lon="22.1283777"><ele>908.2</ele><time>2026-04-29T09:15:11.982Z</time></trkpt><trkpt lat="38.1150966" lon="22.1285076"><ele>906.4</ele><time>2026-04-29T09:15:12.982Z</time></trkpt><trkpt lat="38.115082" lon="22.1286465"><ele>904.5999999999999</ele><time>2026-04-29T09:15:13.982Z</time></trkpt><trkpt lat="38.1150816" lon="22.1287977"><ele>902.8</ele><time>2026-04-29T09:15:14.981Z</time></trkpt><trkpt lat="38.1150738" lon="22.1289297"><ele>901.0</ele><time>2026-04-29T09:15:15.982Z</time></trkpt><trkpt lat="38.1150517" lon="22.1290601"><ele>899.5</ele><time>2026-04-29T09:15:16.982Z</time></trkpt><trkpt lat="38.1149936" lon="22.1291974"><ele>898.0</ele><time>2026-04-29T09:15:17.982Z</time></trkpt><trkpt lat="38.1149254" lon="22.1293252"><ele>896.5</ele><time>2026-04-29T09:15:18.982Z</time></trkpt><trkpt lat="38.1148248" lon="22.1294596"><ele>895.0</ele><time>2026-04-29T09:15:19.981Z</time></trkpt><trkpt lat="38.1147236" lon="22.1295836"><ele>895.75</ele><time>2026-04-29T09:15:20.982Z</time></trkpt><trkpt lat="38.1146171" lon="22.1296902"><ele>896.5</ele><time>2026-04-29T09:15:21.982Z</time></trkpt><trkpt lat="38.1145093" lon="22.1297878"><ele>897.25</ele><time>2026-04-29T09:15:22.981Z</time></trkpt><trkpt lat="38.1144188" lon="22.1299119"><ele>898.0</ele><time>2026-04-29T09:15:23.982Z</time></trkpt><trkpt lat="38.1143398" lon="22.1300509"><ele>898.0</ele><time>2026-04-29T09:15:24.982Z</time></trkpt><trkpt lat="38.1142762" lon="22.1301912"><ele>898.0</ele><time>2026-04-29T09:15:25.982Z</time></trkpt><trkpt lat="38.1142176" lon="22.130323"><ele>898.0</ele><time>2026-04-29T09:15:26.981Z</time></trkpt><trkpt lat="38.1141459" lon="22.1304134"><ele>898.0</ele><time>2026-04-29T09:15:27.981Z</time></trkpt><trkpt lat="38.1140671" lon="22.1304772"><ele>898.0</ele><time>2026-04-29T09:15:28.982Z</time></trkpt><trkpt lat="38.113958" lon="22.1304834"><ele>898.0</ele><time>2026-04-29T09:15:29.982Z</time></trkpt><trkpt lat="38.1138479" lon="22.1304816"><ele>898.0</ele><time>2026-04-29T09:15:30.981Z</time></trkpt><trkpt lat="38.1137227" lon="22.1304657"><ele>898.0</ele><time>2026-04-29T09:15:31.981Z</time></trkpt><trkpt lat="38.1135959" lon="22.130434"><ele>898.0</ele><time>2026-04-29T09:15:32.981Z</time></trkpt><trkpt lat="38.1134578" lon="22.1304095"><ele>898.0</ele><time>2026-04-29T09:15:33.981Z</time></trkpt><trkpt lat="38.1133122" lon="22.1304188"><ele>898.0</ele><time>2026-04-29T09:15:34.982Z</time></trkpt><trkpt lat="38.113178" lon="22.1304352"><ele>898.0</ele><time>2026-04-29T09:15:35.982Z</time></trkpt><trkpt lat="38.1130492" lon="22.1304446"><ele>898.0</ele><time>2026-04-29T09:15:36.982Z</time></trkpt><trkpt lat="38.1129311" lon="22.1303957"><ele>897.2</ele><time>2026-04-29T09:15:37.981Z</time></trkpt><trkpt lat="38.1128286" lon="22.130319"><ele>896.4</ele><time>2026-04-29T09:15:38.981Z</time></trkpt><trkpt lat="38.1127232" lon="22.1302748"><ele>895.6000000000001</ele><time>2026-04-29T09:15:39.981Z</time></trkpt><trkpt lat="38.1126158" lon="22.1302457"><ele>894.8000000000001</ele><time>2026-04-29T09:15:40.981Z</time></trkpt><trkpt lat="38.1125175" lon="22.1302515"><ele>894.0</ele><time>2026-04-29T09:15:41.981Z</time></trkpt><trkpt lat="38.1124254" lon="22.1302865"><ele>895.75</ele><time>2026-04-29T09:15:42.982Z</time></trkpt><trkpt lat="38.112342" lon="22.1303695"><ele>897.5</ele><time>2026-04-29T09:15:43.981Z</time></trkpt><trkpt lat="38.1122665" lon="22.1304799"><ele>899.25</ele><time>2026-04-29T09:15:44.981Z</time></trkpt><trkpt lat="38.1121917" lon="22.1305986"><ele>901.0</ele><time>2026-04-29T09:15:45.981Z</time></trkpt><trkpt lat="38.1121078" lon="22.1306989"><ele>901.0</ele><time>2026-04-29T09:15:46.982Z</time></trkpt><trkpt lat="38.1120137" lon="22.1307538"><ele>901.0</ele><time>2026-04-29T09:15:47.981Z</time></trkpt><trkpt lat="38.1119235" lon="22.1308197"><ele>901.0</ele><time>2026-04-29T09:15:48.982Z</time></trkpt><trkpt lat="38.1118038" lon="22.1307302"><ele>901.0</ele><time>2026-04-29T09:15:49.982Z</time></trkpt><trkpt lat="38.1116818" lon="22.1306849"><ele>901.0</ele><time>2026-04-29T09:15:50.982Z</time></trkpt><trkpt lat="38.1115794" lon="22.1306758"><ele>900.9999999999999</ele><time>2026-04-29T09:15:51.982Z</time></trkpt><trkpt lat="38.1114808" lon="22.1306365"><ele>900.9999999999999</ele><time>2026-04-29T09:15:52.982Z</time></trkpt><trkpt lat="38.1113895" lon="22.130574"><ele>901.0</ele><time>2026-04-29T09:15:53.982Z</time></trkpt><trkpt lat="38.1113128" lon="22.1305343"><ele>901.0</ele><time>2026-04-29T09:15:54.982Z</time></trkpt><trkpt lat="38.1112372" lon="22.1304968"><ele>900.1666666666666</ele><time>2026-04-29T09:15:55.982Z</time></trkpt><trkpt lat="38.1111679" lon="22.1304887"><ele>899.3333333333333</ele><time>2026-04-29T09:15:56.981Z</time></trkpt><trkpt lat="38.1110982" lon="22.1305247"><ele>898.5</ele><time>2026-04-29T09:15:57.981Z</time></trkpt><trkpt lat="38.1110465" lon="22.1305953"><ele>897.6666666666667</ele><time>2026-04-29T09:15:58.982Z</time></trkpt><trkpt lat="38.1110096" lon="22.1307052"><ele>896.8333333333334</ele><time>2026-04-29T09:15:59.981Z</time></trkpt><trkpt lat="38.110991" lon="22.1308419"><ele>896.0</ele><time>2026-04-29T09:16:00.982Z</time></trkpt><trkpt lat="38.1110058" lon="22.1309968"><ele>893.75</ele><time>2026-04-29T09:16:01.981Z</time></trkpt><trkpt lat="38.1110533" lon="22.1311544"><ele>891.5</ele><time>2026-04-29T09:16:02.982Z</time></trkpt><trkpt lat="38.1111151" lon="22.1312806"><ele>889.25</ele><time>2026-04-29T09:16:03.981Z</time></trkpt><trkpt lat="38.1111911" lon="22.1313948"><ele>887.0</ele><time>2026-04-29T09:16:04.982Z</time></trkpt><trkpt lat="38.1112604" lon="22.1315241"><ele>887.25</ele><time>2026-04-29T09:16:05.981Z</time></trkpt><trkpt lat="38.1113195" lon="22.1316686"><ele>887.5</ele><time>2026-04-29T09:16:06.982Z</time></trkpt><trkpt lat="38.1113731" lon="22.1318146"><ele>887.75</ele><time>2026-04-29T09:16:07.982Z</time></trkpt><trkpt lat="38.1114115" lon="22.1319684"><ele>888.0</ele><time>2026-04-29T09:16:08.982Z</time></trkpt><trkpt lat="38.1114412" lon="22.1321248"><ele>888.0</ele><time>2026-04-29T09:16:09.981Z</time></trkpt><trkpt lat="38.1114574" lon="22.1322837"><ele>888.0</ele><time>2026-04-29T09:16:10.982Z</time></trkpt><trkpt lat="38.1114543" lon="22.1324421"><ele>888.0</ele><time>2026-04-29T09:16:11.981Z</time></trkpt><trkpt lat="38.1114461" lon="22.132615"><ele>888.0</ele><time>2026-04-29T09:16:12.982Z</time></trkpt><trkpt lat="38.1114289" lon="22.1327782"><ele>888.5</ele><time>2026-04-29T09:16:13.982Z</time></trkpt><trkpt lat="38.1114204" lon="22.1329377"><ele>889.0</ele><time>2026-04-29T09:16:14.982Z</time></trkpt><trkpt lat="38.11143" lon="22.1330907"><ele>889.5</ele><time>2026-04-29T09:16:15.981Z</time></trkpt><trkpt lat="38.1114703" lon="22.1332263"><ele>890.0</ele><time>2026-04-29T09:16:16.982Z</time></trkpt><trkpt lat="38.1115252" lon="22.1333482"><ele>889.2</ele><time>2026-04-29T09:16:17.982Z</time></trkpt><trkpt lat="38.1115733" lon="22.1334662"><ele>888.4</ele><time>2026-04-29T09:16:18.982Z</time></trkpt><trkpt lat="38.1115898" lon="22.1335974"><ele>887.5999999999999</ele><time>2026-04-29T09:16:19.982Z</time></trkpt><trkpt lat="38.1115682" lon="22.1337278"><ele>886.8</ele><time>2026-04-29T09:16:20.981Z</time></trkpt><trkpt lat="38.1115313" lon="22.1338624"><ele>886.0</ele><time>2026-04-29T09:16:21.982Z</time></trkpt><trkpt lat="38.1114289" lon="22.1339585"><ele>881.0</ele><time>2026-04-29T09:16:22.981Z</time></trkpt><trkpt lat="38.1113182" lon="22.1340558"><ele>876.0</ele><time>2026-04-29T09:16:23.981Z</time></trkpt><trkpt lat="38.1112014" lon="22.1341473"><ele>871.0</ele><time>2026-04-29T09:16:24.982Z</time></trkpt><trkpt lat="38.1110807" lon="22.1342309"><ele>866.0</ele><time>2026-04-29T09:16:25.981Z</time></trkpt><trkpt lat="38.1109607" lon="22.1343019"><ele>866.0</ele><time>2026-04-29T09:16:26.982Z</time></trkpt><trkpt lat="38.1108631" lon="22.1343818"><ele>866.0</ele><time>2026-04-29T09:16:27.982Z</time></trkpt><trkpt lat="38.110779" lon="22.1344959"><ele>866.0</ele><time>2026-04-29T09:16:28.981Z</time></trkpt><trkpt lat="38.1107118" lon="22.1346136"><ele>866.0</ele><time>2026-04-29T09:16:29.982Z</time></trkpt><trkpt lat="38.1106527" lon="22.1347247"><ele>869.4</ele><time>2026-04-29T09:16:30.982Z</time></trkpt><trkpt lat="38.1105615" lon="22.1348314"><ele>872.8</ele><time>2026-04-29T09:16:31.981Z</time></trkpt><trkpt lat="38.1104706" lon="22.1348641"><ele>876.1999999999999</ele><time>2026-04-29T09:16:32.982Z</time></trkpt><trkpt lat="38.1103574" lon="22.1348748"><ele>879.5999999999999</ele><time>2026-04-29T09:16:33.982Z</time></trkpt><trkpt lat="38.1102419" lon="22.1348832"><ele>883.0</ele><time>2026-04-29T09:16:34.981Z</time></trkpt><trkpt lat="38.1101144" lon="22.134877"><ele>881.5999999999999</ele><time>2026-04-29T09:16:35.982Z</time></trkpt><trkpt lat="38.1100037" lon="22.1348896"><ele>880.1999999999999</ele><time>2026-04-29T09:16:36.982Z</time></trkpt><trkpt lat="38.1099058" lon="22.1348776"><ele>878.8</ele><time>2026-04-29T09:16:37.982Z</time></trkpt><trkpt lat="38.1098164" lon="22.1348625"><ele>877.4</ele><time>2026-04-29T09:16:38.982Z</time></trkpt><trkpt lat="38.1097599" lon="22.1349291"><ele>876.0</ele><time>2026-04-29T09:16:39.982Z</time></trkpt><trkpt lat="38.1097127" lon="22.135021"><ele>876.0</ele><time>2026-04-29T09:16:40.981Z</time></trkpt><trkpt lat="38.1096735" lon="22.1351334"><ele>875.9999999999999</ele><time>2026-04-29T09:16:41.982Z</time></trkpt><trkpt lat="38.1096309" lon="22.1352644"><ele>875.9999999999999</ele><time>2026-04-29T09:16:42.982Z</time></trkpt><trkpt lat="38.1095973" lon="22.1354069"><ele>876.0</ele><time>2026-04-29T09:16:43.982Z</time></trkpt><trkpt lat="38.1095848" lon="22.1355631"><ele>876.0</ele><time>2026-04-29T09:16:44.981Z</time></trkpt><trkpt lat="38.1095836" lon="22.1357061"><ele>872.75</ele><time>2026-04-29T09:16:45.982Z</time></trkpt><trkpt lat="38.1095806" lon="22.1358437"><ele>869.5</ele><time>2026-04-29T09:16:46.982Z</time></trkpt><trkpt lat="38.1095714" lon="22.1359983"><ele>866.25</ele><time>2026-04-29T09:16:47.981Z</time></trkpt><trkpt lat="38.1095241" lon="22.1361344"><ele>863.0</ele><time>2026-04-29T09:16:48.981Z</time></trkpt><trkpt lat="38.1094768" lon="22.1362728"><ele>863.0</ele><time>2026-04-29T09:16:49.981Z</time></trkpt><trkpt lat="38.1094371" lon="22.1364215"><ele>863.0</ele><time>2026-04-29T09:16:50.981Z</time></trkpt><trkpt lat="38.1094126" lon="22.1365756"><ele>863.0</ele><time>2026-04-29T09:16:51.982Z</time></trkpt><trkpt lat="38.10939" lon="22.1367318"><ele>863.0</ele><time>2026-04-29T09:16:52.981Z</time></trkpt><trkpt lat="38.109378" lon="22.1368891"><ele>862.2</ele><time>2026-04-29T09:16:53.981Z</time></trkpt><trkpt lat="38.1093816" lon="22.1370383"><ele>861.4</ele><time>2026-04-29T09:16:54.982Z</time></trkpt><trkpt lat="38.1093997" lon="22.1371844"><ele>860.6000000000001</ele><time>2026-04-29T09:16:55.981Z</time></trkpt><trkpt lat="38.1094157" lon="22.1373198"><ele>859.8000000000001</ele><time>2026-04-29T09:16:56.981Z</time></trkpt><trkpt lat="38.1094168" lon="22.1374339"><ele>859.0</ele><time>2026-04-29T09:16:57.981Z</time></trkpt><trkpt lat="38.1093752" lon="22.1375418"><ele>858.4000000000001</ele><time>2026-04-29T09:16:58.982Z</time></trkpt><trkpt lat="38.1093127" lon="22.1376506"><ele>857.8000000000001</ele><time>2026-04-29T09:16:59.982Z</time></trkpt><trkpt lat="38.1092221" lon="22.1377328"><ele>857.1999999999999</ele><time>2026-04-29T09:17:00.982Z</time></trkpt><trkpt lat="38.1091326" lon="22.1378212"><ele>856.5999999999999</ele><time>2026-04-29T09:17:01.982Z</time></trkpt><trkpt lat="38.1090641" lon="22.1379294"><ele>856.0</ele><time>2026-04-29T09:17:02.981Z</time></trkpt><trkpt lat="38.1090239" lon="22.1380544"><ele>856.0</ele><time>2026-04-29T09:17:03.982Z</time></trkpt><trkpt lat="38.108986" lon="22.138176"><ele>855.9999999999999</ele><time>2026-04-29T09:17:04.982Z</time></trkpt><trkpt lat="38.1089396" lon="22.1382787"><ele>855.9999999999999</ele><time>2026-04-29T09:17:05.981Z</time></trkpt><trkpt lat="38.1088756" lon="22.1383804"><ele>856.0</ele><time>2026-04-29T09:17:06.981Z</time></trkpt><trkpt lat="38.1087921" lon="22.1384795"><ele>856.0</ele><time>2026-04-29T09:17:07.982Z</time></trkpt><trkpt lat="38.1086984" lon="22.1385647"><ele>854.4</ele><time>2026-04-29T09:17:08.982Z</time></trkpt><trkpt lat="38.1086138" lon="22.1386548"><ele>852.8</ele><time>2026-04-29T09:17:09.982Z</time></trkpt><trkpt lat="38.1085423" lon="22.1387393"><ele>851.1999999999999</ele><time>2026-04-29T09:17:10.98Z</time></trkpt><trkpt lat="38.1084662" lon="22.1387559"><ele>849.5999999999999</ele><time>2026-04-29T09:17:11.982Z</time></trkpt><trkpt lat="38.1083727" lon="22.1387148"><ele>848.0</ele><time>2026-04-29T09:17:12.982Z</time></trkpt><trkpt lat="38.1082978" lon="22.1386737"><ele>848.0</ele><time>2026-04-29T09:17:13.982Z</time></trkpt><trkpt lat="38.1082199" lon="22.1385894"><ele>848.0</ele><time>2026-04-29T09:17:14.982Z</time></trkpt><trkpt lat="38.1082429" lon="22.1384274"><ele>848.0</ele><time>2026-04-29T09:17:16.981Z</time></trkpt><trkpt lat="38.1082715" lon="22.1383348"><ele>848.0</ele><time>2026-04-29T09:17:17.982Z</time></trkpt><trkpt lat="38.1082894" lon="22.1381912"><ele>848.0</ele><time>2026-04-29T09:17:18.981Z</time></trkpt><trkpt lat="38.1082912" lon="22.1380619"><ele>850.0</ele><time>2026-04-29T09:17:19.981Z</time></trkpt><trkpt lat="38.1082566" lon="22.1379074"><ele>852.0</ele><time>2026-04-29T09:17:20.981Z</time></trkpt><trkpt lat="38.108218" lon="22.1377741"><ele>854.0</ele><time>2026-04-29T09:17:21.981Z</time></trkpt><trkpt lat="38.108176" lon="22.1376326"><ele>856.0</ele><time>2026-04-29T09:17:22.982Z</time></trkpt><trkpt lat="38.108105" lon="22.1374985"><ele>856.0</ele><time>2026-04-29T09:17:23.981Z</time></trkpt><trkpt lat="38.1080476" lon="22.1373769"><ele>855.9999999999999</ele><time>2026-04-29T09:17:24.982Z</time></trkpt><trkpt lat="38.1079817" lon="22.1372692"><ele>855.9999999999999</ele><time>2026-04-29T09:17:25.981Z</time></trkpt><trkpt lat="38.1079059" lon="22.1371883"><ele>856.0</ele><time>2026-04-29T09:17:26.981Z</time></trkpt><trkpt lat="38.1078198" lon="22.1371368"><ele>856.0</ele><time>2026-04-29T09:17:27.982Z</time></trkpt><trkpt lat="38.1077312" lon="22.1371278"><ele>856.0</ele><time>2026-04-29T09:17:28.982Z</time></trkpt><trkpt lat="38.107632" lon="22.1371407"><ele>855.9999999999999</ele><time>2026-04-29T09:17:29.981Z</time></trkpt><trkpt lat="38.1075373" lon="22.1371337"><ele>855.9999999999999</ele><time>2026-04-29T09:17:30.982Z</time></trkpt><trkpt lat="38.1074356" lon="22.1371151"><ele>856.0</ele><time>2026-04-29T09:17:31.981Z</time></trkpt><trkpt lat="38.1073339" lon="22.1370752"><ele>856.0</ele><time>2026-04-29T09:17:32.981Z</time></trkpt><trkpt lat="38.1072393" lon="22.1370307"><ele>852.0</ele><time>2026-04-29T09:17:33.982Z</time></trkpt><trkpt lat="38.1071394" lon="22.1369848"><ele>847.9999999999999</ele><time>2026-04-29T09:17:34.982Z</time></trkpt><trkpt lat="38.107046" lon="22.1369135"><ele>844.0</ele><time>2026-04-29T09:17:35.981Z</time></trkpt><trkpt lat="38.1070054" lon="22.1368167"><ele>840.0</ele><time>2026-04-29T09:17:36.982Z</time></trkpt><trkpt lat="38.1069599" lon="22.1367257"><ele>836.0</ele><time>2026-04-29T09:17:37.981Z</time></trkpt><trkpt lat="38.1069051" lon="22.1366288"><ele>838.4</ele><time>2026-04-29T09:17:38.981Z</time></trkpt><trkpt lat="38.1068434" lon="22.1365299"><ele>840.8</ele><time>2026-04-29T09:17:39.981Z</time></trkpt><trkpt lat="38.1067831" lon="22.1364438"><ele>843.1999999999999</ele><time>2026-04-29T09:17:40.981Z</time></trkpt><trkpt lat="38.1067168" lon="22.1363649"><ele>845.5999999999999</ele><time>2026-04-29T09:17:41.981Z</time></trkpt><trkpt lat="38.1066591" lon="22.1362692"><ele>848.0</ele><time>2026-04-29T09:17:42.982Z</time></trkpt><trkpt lat="38.1066083" lon="22.1361452"><ele>848.0</ele><time>2026-04-29T09:17:43.981Z</time></trkpt><trkpt lat="38.1065909" lon="22.1360199"><ele>848.0</ele><time>2026-04-29T09:17:44.981Z</time></trkpt><trkpt lat="38.1065794" lon="22.1358781"><ele>848.0</ele><time>2026-04-29T09:17:45.982Z</time></trkpt><trkpt lat="38.1065628" lon="22.135736"><ele>848.0</ele><time>2026-04-29T09:17:46.981Z</time></trkpt><trkpt lat="38.1065419" lon="22.1355994"><ele>848.0</ele><time>2026-04-29T09:17:47.981Z</time></trkpt><trkpt lat="38.1065247" lon="22.1354673"><ele>849.1666666666667</ele><time>2026-04-29T09:17:48.982Z</time></trkpt><trkpt lat="38.1065001" lon="22.1353509"><ele>850.3333333333334</ele><time>2026-04-29T09:17:49.982Z</time></trkpt><trkpt lat="38.1064729" lon="22.1352425"><ele>851.5</ele><time>2026-04-29T09:17:50.982Z</time></trkpt><trkpt lat="38.1064314" lon="22.1351633"><ele>852.6666666666667</ele><time>2026-04-29T09:17:51.982Z</time></trkpt><trkpt lat="38.1063755" lon="22.1351195"><ele>853.8333333333334</ele><time>2026-04-29T09:17:52.982Z</time></trkpt><trkpt lat="38.106257" lon="22.1351346"><ele>855.0</ele><time>2026-04-29T09:17:54.982Z</time></trkpt><trkpt lat="38.1061946" lon="22.1351747"><ele>855.0</ele><time>2026-04-29T09:17:55.981Z</time></trkpt><trkpt lat="38.1061393" lon="22.1352464"><ele>855.0</ele><time>2026-04-29T09:17:56.981Z</time></trkpt><trkpt lat="38.1060801" lon="22.1353241"><ele>855.0</ele><time>2026-04-29T09:17:57.982Z</time></trkpt><trkpt lat="38.1060122" lon="22.1353966"><ele>855.0</ele><time>2026-04-29T09:17:58.982Z</time></trkpt><trkpt lat="38.1059488" lon="22.1354769"><ele>855.0</ele><time>2026-04-29T09:17:59.982Z</time></trkpt><trkpt lat="38.1058867" lon="22.1355694"><ele>855.0</ele><time>2026-04-29T09:18:00.981Z</time></trkpt><trkpt lat="38.1058268" lon="22.1356522"><ele>852.8333333333334</ele><time>2026-04-29T09:18:01.981Z</time></trkpt><trkpt lat="38.1057692" lon="22.1357251"><ele>850.6666666666667</ele><time>2026-04-29T09:18:02.982Z</time></trkpt><trkpt lat="38.1057162" lon="22.135792"><ele>848.5</ele><time>2026-04-29T09:18:03.981Z</time></trkpt><trkpt lat="38.1056605" lon="22.1358623"><ele>846.3333333333334</ele><time>2026-04-29T09:18:04.981Z</time></trkpt><trkpt lat="38.1055874" lon="22.1359033"><ele>844.1666666666667</ele><time>2026-04-29T09:18:05.982Z</time></trkpt><trkpt lat="38.1055094" lon="22.1359188"><ele>842.0</ele><time>2026-04-29T09:18:06.981Z</time></trkpt><trkpt lat="38.1054118" lon="22.1358997"><ele>842.0000000000001</ele><time>2026-04-29T09:18:07.982Z</time></trkpt><trkpt lat="38.1053253" lon="22.1358821"><ele>842.0</ele><time>2026-04-29T09:18:08.981Z</time></trkpt><trkpt lat="38.1052358" lon="22.1358288"><ele>842.0</ele><time>2026-04-29T09:18:09.981Z</time></trkpt><trkpt lat="38.1051431" lon="22.1357953"><ele>842.0</ele><time>2026-04-29T09:18:10.982Z</time></trkpt><trkpt lat="38.1050735" lon="22.1357998"><ele>842.0000000000001</ele><time>2026-04-29T09:18:11.981Z</time></trkpt><trkpt lat="38.1050094" lon="22.1358292"><ele>842.0</ele><time>2026-04-29T09:18:12.981Z</time></trkpt><trkpt lat="38.1049626" lon="22.1359121"><ele>842.0</ele><time>2026-04-29T09:18:13.982Z</time></trkpt><trkpt lat="38.1049158" lon="22.1360209"><ele>842.0</ele><time>2026-04-29T09:18:14.982Z</time></trkpt><trkpt lat="38.1048727" lon="22.1361497"><ele>842.0</ele><time>2026-04-29T09:18:15.981Z</time></trkpt><trkpt lat="38.104841" lon="22.136284"><ele>842.0</ele><time>2026-04-29T09:18:16.982Z</time></trkpt><trkpt lat="38.1048208" lon="22.1364252"><ele>842.0</ele><time>2026-04-29T09:18:17.981Z</time></trkpt><trkpt lat="38.1048046" lon="22.1365759"><ele>845.75</ele><time>2026-04-29T09:18:18.981Z</time></trkpt><trkpt lat="38.1047788" lon="22.1367211"><ele>849.5</ele><time>2026-04-29T09:18:19.981Z</time></trkpt><trkpt lat="38.1047517" lon="22.1368699"><ele>853.25</ele><time>2026-04-29T09:18:20.982Z</time></trkpt><trkpt lat="38.1047313" lon="22.1370108"><ele>857.0</ele><time>2026-04-29T09:18:21.982Z</time></trkpt><trkpt lat="38.1047223" lon="22.1371555"><ele>857.0</ele><time>2026-04-29T09:18:22.981Z</time></trkpt><trkpt lat="38.1047119" lon="22.137297"><ele>857.0</ele><time>2026-04-29T09:18:23.981Z</time></trkpt><trkpt lat="38.1046975" lon="22.1374327"><ele>857.0</ele><time>2026-04-29T09:18:24.981Z</time></trkpt><trkpt lat="38.1046888" lon="22.1375514"><ele>857.0</ele><time>2026-04-29T09:18:25.982Z</time></trkpt><trkpt lat="38.1046704" lon="22.1376641"><ele>857.0</ele><time>2026-04-29T09:18:26.982Z</time></trkpt><trkpt lat="38.1046263" lon="22.1377585"><ele>855.3333333333334</ele><time>2026-04-29T09:18:27.982Z</time></trkpt><trkpt lat="38.1045807" lon="22.1378387"><ele>853.6666666666667</ele><time>2026-04-29T09:18:28.982Z</time></trkpt><trkpt lat="38.1045417" lon="22.1379113"><ele>852.0</ele><time>2026-04-29T09:18:29.982Z</time></trkpt><trkpt lat="38.1045203" lon="22.1379963"><ele>850.3333333333333</ele><time>2026-04-29T09:18:30.982Z</time></trkpt><trkpt lat="38.1045415" lon="22.1380798"><ele>848.6666666666666</ele><time>2026-04-29T09:18:31.981Z</time></trkpt><trkpt lat="38.1045878" lon="22.1381572"><ele>847.0</ele><time>2026-04-29T09:18:32.981Z</time></trkpt><trkpt lat="38.1046713" lon="22.1382457"><ele>847.0</ele><time>2026-04-29T09:18:33.981Z</time></trkpt><trkpt lat="38.1047446" lon="22.1383399"><ele>847.0</ele><time>2026-04-29T09:18:34.982Z</time></trkpt><trkpt lat="38.104831" lon="22.1384191"><ele>847.0</ele><time>2026-04-29T09:18:35.982Z</time></trkpt><trkpt lat="38.1049284" lon="22.1384871"><ele>847.0</ele><time>2026-04-29T09:18:36.981Z</time></trkpt><trkpt lat="38.1050275" lon="22.1385367"><ele>847.0</ele><time>2026-04-29T09:18:37.981Z</time></trkpt><trkpt lat="38.1051252" lon="22.1385865"><ele>844.0</ele><time>2026-04-29T09:18:38.98Z</time></trkpt><trkpt lat="38.1052321" lon="22.1386399"><ele>841.0</ele><time>2026-04-29T09:18:39.982Z</time></trkpt><trkpt lat="38.1053437" lon="22.1386935"><ele>838.0</ele><time>2026-04-29T09:18:40.981Z</time></trkpt><trkpt lat="38.1054512" lon="22.1387483"><ele>835.0</ele><time>2026-04-29T09:18:41.981Z</time></trkpt><trkpt lat="38.1055552" lon="22.1387992"><ele>835.0</ele><time>2026-04-29T09:18:42.981Z</time></trkpt><trkpt lat="38.1056422" lon="22.1388297"><ele>835.0</ele><time>2026-04-29T09:18:43.981Z</time></trkpt><trkpt lat="38.1057299" lon="22.1388864"><ele>835.0</ele><time>2026-04-29T09:18:44.982Z</time></trkpt><trkpt lat="38.1057932" lon="22.1389713"><ele>835.0</ele><time>2026-04-29T09:18:45.982Z</time></trkpt><trkpt lat="38.1058512" lon="22.1390688"><ele>835.0</ele><time>2026-04-29T09:18:46.981Z</time></trkpt><trkpt lat="38.1059307" lon="22.1391482"><ele>835.2</ele><time>2026-04-29T09:18:47.982Z</time></trkpt><trkpt lat="38.1060258" lon="22.1392088"><ele>835.4</ele><time>2026-04-29T09:18:48.982Z</time></trkpt><trkpt lat="38.1061154" lon="22.139254"><ele>835.5999999999999</ele><time>2026-04-29T09:18:49.981Z</time></trkpt><trkpt lat="38.1061987" lon="22.1393162"><ele>835.8</ele><time>2026-04-29T09:18:50.981Z</time></trkpt><trkpt lat="38.1062757" lon="22.1394066"><ele>836.0</ele><time>2026-04-29T09:18:51.982Z</time></trkpt><trkpt lat="38.1063285" lon="22.1395214"><ele>836.0</ele><time>2026-04-29T09:18:52.982Z</time></trkpt><trkpt lat="38.1063858" lon="22.1396477"><ele>836.0</ele><time>2026-04-29T09:18:53.982Z</time></trkpt><trkpt lat="38.1064339" lon="22.1397869"><ele>836.0</ele><time>2026-04-29T09:18:54.981Z</time></trkpt><trkpt lat="38.106473" lon="22.139928"><ele>836.0</ele><time>2026-04-29T09:18:55.981Z</time></trkpt><trkpt lat="38.1064805" lon="22.1400673"><ele>840.0</ele><time>2026-04-29T09:18:56.981Z</time></trkpt><trkpt lat="38.1064858" lon="22.1402129"><ele>844.0</ele><time>2026-04-29T09:18:57.982Z</time></trkpt><trkpt lat="38.106487" lon="22.1403745"><ele>848.0</ele><time>2026-04-29T09:18:58.981Z</time></trkpt><trkpt lat="38.1064995" lon="22.1405157"><ele>852.0</ele><time>2026-04-29T09:18:59.981Z</time></trkpt><trkpt lat="38.1065248" lon="22.1406645"><ele>844.5</ele><time>2026-04-29T09:19:00.982Z</time></trkpt><trkpt lat="38.1065905" lon="22.1407792"><ele>837.0</ele><time>2026-04-29T09:19:01.982Z</time></trkpt><trkpt lat="38.1066764" lon="22.1408937"><ele>829.5</ele><time>2026-04-29T09:19:02.981Z</time></trkpt><trkpt lat="38.1067558" lon="22.1410045"><ele>822.0</ele><time>2026-04-29T09:19:03.982Z</time></trkpt><trkpt lat="38.1068269" lon="22.1411108"><ele>822.0</ele><time>2026-04-29T09:19:04.981Z</time></trkpt><trkpt lat="38.1068823" lon="22.1412281"><ele>822.0</ele><time>2026-04-29T09:19:05.982Z</time></trkpt><trkpt lat="38.1069115" lon="22.1413575"><ele>822.0</ele><time>2026-04-29T09:19:06.981Z</time></trkpt><trkpt lat="38.1069341" lon="22.1415015"><ele>822.0</ele><time>2026-04-29T09:19:07.981Z</time></trkpt><trkpt lat="38.106964" lon="22.1416513"><ele>823.75</ele><time>2026-04-29T09:19:08.981Z</time></trkpt><trkpt lat="38.1070126" lon="22.141788"><ele>825.5</ele><time>2026-04-29T09:19:09.981Z</time></trkpt><trkpt lat="38.1070803" lon="22.141918"><ele>827.25</ele><time>2026-04-29T09:19:10.982Z</time></trkpt><trkpt lat="38.1071698" lon="22.1420268"><ele>829.0</ele><time>2026-04-29T09:19:11.982Z</time></trkpt><trkpt lat="38.1072584" lon="22.1421299"><ele>829.0</ele><time>2026-04-29T09:19:12.982Z</time></trkpt><trkpt lat="38.1073426" lon="22.1422242"><ele>829.0</ele><time>2026-04-29T09:19:13.981Z</time></trkpt><trkpt lat="38.107418" lon="22.1423232"><ele>829.0</ele><time>2026-04-29T09:19:14.981Z</time></trkpt><trkpt lat="38.1074941" lon="22.14244"><ele>829.0</ele><time>2026-04-29T09:19:15.981Z</time></trkpt><trkpt lat="38.1075256" lon="22.1425531"><ele>829.0</ele><time>2026-04-29T09:19:16.981Z</time></trkpt><trkpt lat="38.1075263" lon="22.1426524"><ele>827.8333333333333</ele><time>2026-04-29T09:19:17.982Z</time></trkpt><trkpt lat="38.1074862" lon="22.1427314"><ele>826.6666666666666</ele><time>2026-04-29T09:19:18.982Z</time></trkpt><trkpt lat="38.1074212" lon="22.1427717"><ele>825.5</ele><time>2026-04-29T09:19:19.982Z</time></trkpt><trkpt lat="38.1073266" lon="22.1427647"><ele>824.3333333333333</ele><time>2026-04-29T09:19:20.982Z</time></trkpt><trkpt lat="38.1072392" lon="22.1427452"><ele>823.1666666666666</ele><time>2026-04-29T09:19:21.981Z</time></trkpt><trkpt lat="38.1071467" lon="22.1427158"><ele>822.0</ele><time>2026-04-29T09:19:22.982Z</time></trkpt><trkpt lat="38.1070577" lon="22.1427267"><ele>822.0</ele><time>2026-04-29T09:19:23.982Z</time></trkpt><trkpt lat="38.1069992" lon="22.1427801"><ele>822.0</ele><time>2026-04-29T09:19:24.981Z</time></trkpt><trkpt lat="38.1069649" lon="22.1428591"><ele>822.0</ele><time>2026-04-29T09:19:25.982Z</time></trkpt><trkpt lat="38.1069652" lon="22.1429666"><ele>822.0</ele><time>2026-04-29T09:19:26.982Z</time></trkpt><trkpt lat="38.1069734" lon="22.1430856"><ele>822.0</ele><time>2026-04-29T09:19:27.981Z</time></trkpt><trkpt lat="38.1070201" lon="22.1432545"><ele>823.0</ele><time>2026-04-29T09:19:28.982Z</time></trkpt><trkpt lat="38.107046" lon="22.143427"><ele>824.0</ele><time>2026-04-29T09:19:29.981Z</time></trkpt><trkpt lat="38.1070618" lon="22.1436192"><ele>825.0</ele><time>2026-04-29T09:19:30.982Z</time></trkpt><trkpt lat="38.1070825" lon="22.1437828"><ele>826.0</ele><time>2026-04-29T09:19:31.981Z</time></trkpt><trkpt lat="38.107119" lon="22.143926"><ele>826.1999999999999</ele><time>2026-04-29T09:19:32.981Z</time></trkpt><trkpt lat="38.1071428" lon="22.1440698"><ele>826.4</ele><time>2026-04-29T09:19:33.982Z</time></trkpt><trkpt lat="38.1071566" lon="22.144214"><ele>826.6</ele><time>2026-04-29T09:19:34.981Z</time></trkpt><trkpt lat="38.1071514" lon="22.1443577"><ele>826.8</ele><time>2026-04-29T09:19:35.981Z</time></trkpt><trkpt lat="38.107126" lon="22.1444789"><ele>827.0</ele><time>2026-04-29T09:19:36.982Z</time></trkpt><trkpt lat="38.1070887" lon="22.1445952"><ele>827.0</ele><time>2026-04-29T09:19:37.981Z</time></trkpt><trkpt lat="38.107027" lon="22.1447148"><ele>827.0</ele><time>2026-04-29T09:19:38.982Z</time></trkpt><trkpt lat="38.1069667" lon="22.1448372"><ele>827.0</ele><time>2026-04-29T09:19:39.982Z</time></trkpt><trkpt lat="38.1068952" lon="22.1449472"><ele>827.0</ele><time>2026-04-29T09:19:40.982Z</time></trkpt><trkpt lat="38.1068062" lon="22.1450504"><ele>823.5</ele><time>2026-04-29T09:19:41.981Z</time></trkpt><trkpt lat="38.1067102" lon="22.1451615"><ele>820.0</ele><time>2026-04-29T09:19:42.982Z</time></trkpt><trkpt lat="38.1066283" lon="22.1452781"><ele>816.5</ele><time>2026-04-29T09:19:43.982Z</time></trkpt><trkpt lat="38.1065557" lon="22.1454009"><ele>813.0</ele><time>2026-04-29T09:19:44.982Z</time></trkpt><trkpt lat="38.1064865" lon="22.1455263"><ele>817.25</ele><time>2026-04-29T09:19:45.982Z</time></trkpt><trkpt lat="38.1064139" lon="22.1456499"><ele>821.5</ele><time>2026-04-29T09:19:46.981Z</time></trkpt><trkpt lat="38.1063482" lon="22.1457822"><ele>825.75</ele><time>2026-04-29T09:19:47.981Z</time></trkpt><trkpt lat="38.1062983" lon="22.145923"><ele>830.0</ele><time>2026-04-29T09:19:48.981Z</time></trkpt><trkpt lat="38.1062629" lon="22.1460682"><ele>830.0</ele><time>2026-04-29T09:19:49.982Z</time></trkpt><trkpt lat="38.1062253" lon="22.146226"><ele>830.0</ele><time>2026-04-29T09:19:50.982Z</time></trkpt><trkpt lat="38.1061647" lon="22.1463347"><ele>830.0</ele><time>2026-04-29T09:19:51.982Z</time></trkpt><trkpt lat="38.1060939" lon="22.1464465"><ele>830.0</ele><time>2026-04-29T09:19:52.981Z</time></trkpt><trkpt lat="38.106027" lon="22.1465306"><ele>830.0</ele><time>2026-04-29T09:19:53.982Z</time></trkpt><trkpt lat="38.1059767" lon="22.1466174"><ele>828.2</ele><time>2026-04-29T09:19:54.981Z</time></trkpt><trkpt lat="38.1059394" lon="22.1466944"><ele>826.4</ele><time>2026-04-29T09:19:55.982Z</time></trkpt><trkpt lat="38.105983" lon="22.146798"><ele>824.5999999999999</ele><time>2026-04-29T09:19:56.981Z</time></trkpt><trkpt lat="38.1060508" lon="22.1468999"><ele>822.8</ele><time>2026-04-29T09:19:57.981Z</time></trkpt><trkpt lat="38.106126" lon="22.1470121"><ele>821.0</ele><time>2026-04-29T09:19:58.981Z</time></trkpt><trkpt lat="38.1061906" lon="22.1471398"><ele>821.0</ele><time>2026-04-29T09:19:59.982Z</time></trkpt><trkpt lat="38.1062518" lon="22.147283"><ele>821.0</ele><time>2026-04-29T09:20:00.982Z</time></trkpt><trkpt lat="38.1062807" lon="22.1474383"><ele>821.0</ele><time>2026-04-29T09:20:01.982Z</time></trkpt><trkpt lat="38.1063267" lon="22.1475774"><ele>821.0</ele><time>2026-04-29T09:20:02.982Z</time></trkpt><trkpt lat="38.1063535" lon="22.14771"><ele>821.8</ele><time>2026-04-29T09:20:03.981Z</time></trkpt><trkpt lat="38.1063213" lon="22.1478238"><ele>822.5999999999999</ele><time>2026-04-29T09:20:04.982Z</time></trkpt><trkpt lat="38.1062732" lon="22.1479337"><ele>823.4</ele><time>2026-04-29T09:20:05.981Z</time></trkpt><trkpt lat="38.1062031" lon="22.1480439"><ele>824.2</ele><time>2026-04-29T09:20:06.982Z</time></trkpt><trkpt lat="38.1061029" lon="22.1481271"><ele>825.0</ele><time>2026-04-29T09:20:07.981Z</time></trkpt><trkpt lat="38.1060047" lon="22.1482017"><ele>823.8</ele><time>2026-04-29T09:20:08.982Z</time></trkpt><trkpt lat="38.1059029" lon="22.1482798"><ele>822.6</ele><time>2026-04-29T09:20:09.981Z</time></trkpt><trkpt lat="38.1058145" lon="22.1483683"><ele>821.4000000000001</ele><time>2026-04-29T09:20:10.981Z</time></trkpt><trkpt lat="38.1057813" lon="22.1484939"><ele>820.2</ele><time>2026-04-29T09:20:11.981Z</time></trkpt><trkpt lat="38.1057539" lon="22.1486202"><ele>819.0</ele><time>2026-04-29T09:20:12.982Z</time></trkpt><trkpt lat="38.1057292" lon="22.1487519"><ele>826.4000000000001</ele><time>2026-04-29T09:20:13.981Z</time></trkpt><trkpt lat="38.1056993" lon="22.1488924"><ele>833.8</ele><time>2026-04-29T09:20:14.98Z</time></trkpt><trkpt lat="38.1056585" lon="22.1490119"><ele>841.1999999999999</ele><time>2026-04-29T09:20:15.982Z</time></trkpt><trkpt lat="38.1056156" lon="22.1491176"><ele>848.5999999999999</ele><time>2026-04-29T09:20:16.981Z</time></trkpt><trkpt lat="38.1055957" lon="22.1492211"><ele>856.0</ele><time>2026-04-29T09:20:17.982Z</time></trkpt><trkpt lat="38.1055925" lon="22.1493177"><ele>855.9999999999999</ele><time>2026-04-29T09:20:18.981Z</time></trkpt><trkpt lat="38.1056186" lon="22.1494026"><ele>856.0</ele><time>2026-04-29T09:20:19.981Z</time></trkpt><trkpt lat="38.1056773" lon="22.1494759"><ele>856.0</ele><time>2026-04-29T09:20:20.981Z</time></trkpt><trkpt lat="38.1057587" lon="22.1495319"><ele>856.0</ele><time>2026-04-29T09:20:21.981Z</time></trkpt><trkpt lat="38.1058474" lon="22.1495875"><ele>855.9999999999999</ele><time>2026-04-29T09:20:22.982Z</time></trkpt><trkpt lat="38.1059187" lon="22.1496571"><ele>856.0</ele><time>2026-04-29T09:20:23.982Z</time></trkpt><trkpt lat="38.1059522" lon="22.149743"><ele>855.5999999999999</ele><time>2026-04-29T09:20:24.981Z</time></trkpt><trkpt lat="38.1059655" lon="22.1498457"><ele>855.1999999999999</ele><time>2026-04-29T09:20:25.982Z</time></trkpt><trkpt lat="38.1059488" lon="22.1499513"><ele>854.8000000000001</ele><time>2026-04-29T09:20:26.982Z</time></trkpt><trkpt lat="38.1059133" lon="22.1500596"><ele>854.4000000000001</ele><time>2026-04-29T09:20:27.982Z</time></trkpt><trkpt lat="38.1058149" lon="22.1501674"><ele>854.0</ele><time>2026-04-29T09:20:28.982Z</time></trkpt><trkpt lat="38.1057063" lon="22.1502753"><ele>854.0</ele><time>2026-04-29T09:20:29.981Z</time></trkpt><trkpt lat="38.1056096" lon="22.1503904"><ele>854.0</ele><time>2026-04-29T09:20:30.982Z</time></trkpt><trkpt lat="38.10552" lon="22.1505187"><ele>854.0</ele><time>2026-04-29T09:20:31.982Z</time></trkpt><trkpt lat="38.105429" lon="22.1506658"><ele>854.0</ele><time>2026-04-29T09:20:32.981Z</time></trkpt><trkpt lat="38.1053312" lon="22.1508186"><ele>851.0</ele><time>2026-04-29T09:20:33.981Z</time></trkpt><trkpt lat="38.1052268" lon="22.1509706"><ele>848.0</ele><time>2026-04-29T09:20:34.982Z</time></trkpt><trkpt lat="38.1051261" lon="22.1511101"><ele>845.0</ele><time>2026-04-29T09:20:35.982Z</time></trkpt><trkpt lat="38.1050303" lon="22.1512591"><ele>845.0</ele><time>2026-04-29T09:20:36.981Z</time></trkpt><trkpt lat="38.1049425" lon="22.1514161"><ele>845.0</ele><time>2026-04-29T09:20:37.982Z</time></trkpt><trkpt lat="38.1048644" lon="22.1515689"><ele>845.0</ele><time>2026-04-29T09:20:38.981Z</time></trkpt><trkpt lat="38.1047856" lon="22.151716"><ele>845.0</ele><time>2026-04-29T09:20:39.981Z</time></trkpt><trkpt lat="38.1047031" lon="22.1518644"><ele>850.0</ele><time>2026-04-29T09:20:40.982Z</time></trkpt><trkpt lat="38.1046128" lon="22.1520054"><ele>855.0</ele><time>2026-04-29T09:20:41.982Z</time></trkpt><trkpt lat="38.1045314" lon="22.1521465"><ele>860.0</ele><time>2026-04-29T09:20:42.981Z</time></trkpt><trkpt lat="38.1044522" lon="22.1522562"><ele>865.0</ele><time>2026-04-29T09:20:43.982Z</time></trkpt><trkpt lat="38.1043736" lon="22.1523611"><ele>862.75</ele><time>2026-04-29T09:20:44.981Z</time></trkpt><trkpt lat="38.1043109" lon="22.1524812"><ele>860.5</ele><time>2026-04-29T09:20:45.982Z</time></trkpt><trkpt lat="38.1042659" lon="22.1526125"><ele>858.25</ele><time>2026-04-29T09:20:46.98Z</time></trkpt><trkpt lat="38.1042484" lon="22.1527605"><ele>856.0</ele><time>2026-04-29T09:20:47.982Z</time></trkpt><trkpt lat="38.1042483" lon="22.1529255"><ele>856.0</ele><time>2026-04-29T09:20:48.982Z</time></trkpt><trkpt lat="38.1042431" lon="22.1530941"><ele>856.0</ele><time>2026-04-29T09:20:49.982Z</time></trkpt><trkpt lat="38.1042277" lon="22.1532627"><ele>856.0</ele><time>2026-04-29T09:20:50.981Z</time></trkpt><trkpt lat="38.1042044" lon="22.1534388"><ele>856.0</ele><time>2026-04-29T09:20:51.982Z</time></trkpt><trkpt lat="38.104169" lon="22.153621"><ele>855.25</ele><time>2026-04-29T09:20:52.982Z</time></trkpt><trkpt lat="38.104111" lon="22.1537856"><ele>854.5</ele><time>2026-04-29T09:20:53.981Z</time></trkpt><trkpt lat="38.1040444" lon="22.1539513"><ele>853.75</ele><time>2026-04-29T09:20:54.981Z</time></trkpt><trkpt lat="38.1039707" lon="22.154097"><ele>853.0</ele><time>2026-04-29T09:20:55.981Z</time></trkpt><trkpt lat="38.1038736" lon="22.154216"><ele>853.0</ele><time>2026-04-29T09:20:56.981Z</time></trkpt><trkpt lat="38.1037716" lon="22.1543047"><ele>853.0</ele><time>2026-04-29T09:20:57.982Z</time></trkpt><trkpt lat="38.1036526" lon="22.1543397"><ele>853.0</ele><time>2026-04-29T09:20:58.982Z</time></trkpt><trkpt lat="38.1035284" lon="22.1543536"><ele>853.0</ele><time>2026-04-29T09:20:59.981Z</time></trkpt><trkpt lat="38.1034112" lon="22.1543838"><ele>853.0</ele><time>2026-04-29T09:21:00.981Z</time></trkpt><trkpt lat="38.1032936" lon="22.1544112"><ele>853.0</ele><time>2026-04-29T09:21:01.982Z</time></trkpt><trkpt lat="38.1031773" lon="22.1544313"><ele>853.0</ele><time>2026-04-29T09:21:02.981Z</time></trkpt><trkpt lat="38.1030524" lon="22.1544486"><ele>853.0</ele><time>2026-04-29T09:21:03.982Z</time></trkpt><trkpt lat="38.102919" lon="22.1544642"><ele>853.0</ele><time>2026-04-29T09:21:04.981Z</time></trkpt><trkpt lat="38.1027873" lon="22.1544587"><ele>853.0</ele><time>2026-04-29T09:21:05.981Z</time></trkpt><trkpt lat="38.1026525" lon="22.1544516"><ele>853.0</ele><time>2026-04-29T09:21:06.982Z</time></trkpt><trkpt lat="38.1025218" lon="22.1544461"><ele>853.0</ele><time>2026-04-29T09:21:07.981Z</time></trkpt><trkpt lat="38.1023927" lon="22.1544588"><ele>851.25</ele><time>2026-04-29T09:21:08.981Z</time></trkpt><trkpt lat="38.1022701" lon="22.1544832"><ele>849.5</ele><time>2026-04-29T09:21:09.981Z</time></trkpt><trkpt lat="38.1021513" lon="22.1544903"><ele>847.75</ele><time>2026-04-29T09:21:10.982Z</time></trkpt><trkpt lat="38.1020346" lon="22.1544616"><ele>846.0</ele><time>2026-04-29T09:21:11.982Z</time></trkpt><trkpt lat="38.1019096" lon="22.1544234"><ele>846.0</ele><time>2026-04-29T09:21:12.981Z</time></trkpt><trkpt lat="38.1017851" lon="22.1543981"><ele>846.0</ele><time>2026-04-29T09:21:13.982Z</time></trkpt><trkpt lat="38.1016667" lon="22.1543632"><ele>846.0</ele><time>2026-04-29T09:21:14.982Z</time></trkpt><trkpt lat="38.1015507" lon="22.1543214"><ele>846.0</ele><time>2026-04-29T09:21:15.982Z</time></trkpt><trkpt lat="38.1014429" lon="22.1542545"><ele>844.5999999999999</ele><time>2026-04-29T09:21:16.981Z</time></trkpt><trkpt lat="38.1013407" lon="22.1541648"><ele>843.2</ele><time>2026-04-29T09:21:17.982Z</time></trkpt><trkpt lat="38.1012575" lon="22.1540628"><ele>841.8</ele><time>2026-04-29T09:21:18.981Z</time></trkpt><trkpt lat="38.1011803" lon="22.1539699"><ele>840.4000000000001</ele><time>2026-04-29T09:21:19.982Z</time></trkpt><trkpt lat="38.1011034" lon="22.1538992"><ele>839.0</ele><time>2026-04-29T09:21:20.981Z</time></trkpt><trkpt lat="38.1010224" lon="22.1538699"><ele>839.0</ele><time>2026-04-29T09:21:21.982Z</time></trkpt><trkpt lat="38.1009463" lon="22.1538938"><ele>839.0</ele><time>2026-04-29T09:21:22.982Z</time></trkpt><trkpt lat="38.1008832" lon="22.1539613"><ele>839.0</ele><time>2026-04-29T09:21:23.982Z</time></trkpt><trkpt lat="38.1008301" lon="22.1540647"><ele>839.0</ele><time>2026-04-29T09:21:24.981Z</time></trkpt><trkpt lat="38.1007866" lon="22.1541884"><ele>839.0</ele><time>2026-04-29T09:21:25.982Z</time></trkpt><trkpt lat="38.1007362" lon="22.154331"><ele>841.25</ele><time>2026-04-29T09:21:26.982Z</time></trkpt><trkpt lat="38.10068" lon="22.1544689"><ele>843.5</ele><time>2026-04-29T09:21:27.982Z</time></trkpt><trkpt lat="38.100619" lon="22.1546068"><ele>845.75</ele><time>2026-04-29T09:21:28.982Z</time></trkpt><trkpt lat="38.1005515" lon="22.1547311"><ele>848.0</ele><time>2026-04-29T09:21:29.981Z</time></trkpt><trkpt lat="38.100477" lon="22.1548154"><ele>848.0</ele><time>2026-04-29T09:21:30.981Z</time></trkpt><trkpt lat="38.1003923" lon="22.1548812"><ele>848.0</ele><time>2026-04-29T09:21:31.981Z</time></trkpt><trkpt lat="38.1002865" lon="22.1549174"><ele>848.0</ele><time>2026-04-29T09:21:32.981Z</time></trkpt><trkpt lat="38.1001646" lon="22.1548927"><ele>848.0</ele><time>2026-04-29T09:21:33.981Z</time></trkpt><trkpt lat="38.1000447" lon="22.1548427"><ele>845.25</ele><time>2026-04-29T09:21:34.981Z</time></trkpt><trkpt lat="38.0999143" lon="22.1547653"><ele>842.5</ele><time>2026-04-29T09:21:35.982Z</time></trkpt><trkpt lat="38.099774" lon="22.1546894"><ele>839.75</ele><time>2026-04-29T09:21:36.981Z</time></trkpt><trkpt lat="38.0996457" lon="22.1546024"><ele>837.0</ele><time>2026-04-29T09:21:37.981Z</time></trkpt><trkpt lat="38.0995191" lon="22.1545302"><ele>837.0</ele><time>2026-04-29T09:21:38.981Z</time></trkpt><trkpt lat="38.0993882" lon="22.1544817"><ele>837.0</ele><time>2026-04-29T09:21:39.981Z</time></trkpt><trkpt lat="38.099266" lon="22.1544436"><ele>837.0</ele><time>2026-04-29T09:21:40.982Z</time></trkpt><trkpt lat="38.0991485" lon="22.1544072"><ele>837.0</ele><time>2026-04-29T09:21:41.982Z</time></trkpt><trkpt lat="38.0990327" lon="22.1543657"><ele>836.6666666666666</ele><time>2026-04-29T09:21:42.981Z</time></trkpt><trkpt lat="38.0989367" lon="22.1543226"><ele>836.3333333333333</ele><time>2026-04-29T09:21:43.981Z</time></trkpt><trkpt lat="38.0988515" lon="22.1543193"><ele>836.0</ele><time>2026-04-29T09:21:44.982Z</time></trkpt><trkpt lat="38.0987748" lon="22.1543547"><ele>835.6666666666666</ele><time>2026-04-29T09:21:45.981Z</time></trkpt><trkpt lat="38.0987088" lon="22.1544149"><ele>835.3333333333333</ele><time>2026-04-29T09:21:46.982Z</time></trkpt><trkpt lat="38.0986446" lon="22.154497"><ele>835.0</ele><time>2026-04-29T09:21:47.981Z</time></trkpt><trkpt lat="38.0985647" lon="22.1545801"><ele>835.0</ele><time>2026-04-29T09:21:48.982Z</time></trkpt><trkpt lat="38.0984685" lon="22.1546659"><ele>835.0</ele><time>2026-04-29T09:21:49.982Z</time></trkpt><trkpt lat="38.0983747" lon="22.1547628"><ele>835.0</ele><time>2026-04-29T09:21:50.982Z</time></trkpt><trkpt lat="38.0982891" lon="22.1548674"><ele>835.0</ele><time>2026-04-29T09:21:51.981Z</time></trkpt><trkpt lat="38.098214" lon="22.1549745"><ele>831.4</ele><time>2026-04-29T09:21:52.982Z</time></trkpt><trkpt lat="38.0981459" lon="22.1550739"><ele>827.8</ele><time>2026-04-29T09:21:53.981Z</time></trkpt><trkpt lat="38.098069" lon="22.1551553"><ele>824.2</ele><time>2026-04-29T09:21:54.982Z</time></trkpt><trkpt lat="38.0979748" lon="22.1552041"><ele>820.6</ele><time>2026-04-29T09:21:55.982Z</time></trkpt><trkpt lat="38.0978769" lon="22.1552054"><ele>817.0</ele><time>2026-04-29T09:21:56.982Z</time></trkpt><trkpt lat="38.0977701" lon="22.1552004"><ele>817.0</ele><time>2026-04-29T09:21:57.982Z</time></trkpt><trkpt lat="38.0976537" lon="22.1551545"><ele>817.0</ele><time>2026-04-29T09:21:58.981Z</time></trkpt><trkpt lat="38.0975148" lon="22.1551063"><ele>817.0</ele><time>2026-04-29T09:21:59.982Z</time></trkpt><trkpt lat="38.0973787" lon="22.1550472"><ele>817.0</ele><time>2026-04-29T09:22:00.982Z</time></trkpt><trkpt lat="38.0972358" lon="22.154992"><ele>816.75</ele><time>2026-04-29T09:22:01.982Z</time></trkpt><trkpt lat="38.0970956" lon="22.1549597"><ele>816.5</ele><time>2026-04-29T09:22:02.981Z</time></trkpt><trkpt lat="38.0969578" lon="22.1549498"><ele>816.25</ele><time>2026-04-29T09:22:03.981Z</time></trkpt><trkpt lat="38.0968198" lon="22.1549539"><ele>816.0</ele><time>2026-04-29T09:22:04.981Z</time></trkpt><trkpt lat="38.0966962" lon="22.1549919"><ele>816.0</ele><time>2026-04-29T09:22:05.981Z</time></trkpt><trkpt lat="38.096587" lon="22.1550766"><ele>816.0</ele><time>2026-04-29T09:22:06.982Z</time></trkpt><trkpt lat="38.09649" lon="22.1551838"><ele>816.0</ele><time>2026-04-29T09:22:07.981Z</time></trkpt><trkpt lat="38.0963961" lon="22.1552953"><ele>816.0</ele><time>2026-04-29T09:22:08.981Z</time></trkpt><trkpt lat="38.0963075" lon="22.1554019"><ele>820.75</ele><time>2026-04-29T09:22:09.982Z</time></trkpt><trkpt lat="38.0962136" lon="22.1554919"><ele>825.5</ele><time>2026-04-29T09:22:10.982Z</time></trkpt><trkpt lat="38.0961158" lon="22.1555712"><ele>830.25</ele><time>2026-04-29T09:22:11.981Z</time></trkpt><trkpt lat="38.0959898" lon="22.1555411"><ele>835.0</ele><time>2026-04-29T09:22:12.981Z</time></trkpt><trkpt lat="38.095877" lon="22.1555286"><ele>835.8</ele><time>2026-04-29T09:22:13.981Z</time></trkpt><trkpt lat="38.095752" lon="22.1554936"><ele>836.6</ele><time>2026-04-29T09:22:14.982Z</time></trkpt><trkpt lat="38.0956467" lon="22.1554427"><ele>837.4000000000001</ele><time>2026-04-29T09:22:15.982Z</time></trkpt><trkpt lat="38.0955573" lon="22.1553718"><ele>838.2</ele><time>2026-04-29T09:22:16.982Z</time></trkpt><trkpt lat="38.0954913" lon="22.1553098"><ele>839.0</ele><time>2026-04-29T09:22:17.98Z</time></trkpt><trkpt lat="38.0954213" lon="22.1552598"><ele>839.0000000000001</ele><time>2026-04-29T09:22:18.981Z</time></trkpt><trkpt lat="38.095343" lon="22.1552462"><ele>839.0</ele><time>2026-04-29T09:22:19.981Z</time></trkpt><trkpt lat="38.0952832" lon="22.1553082"><ele>839.0</ele><time>2026-04-29T09:22:20.982Z</time></trkpt><trkpt lat="38.0952368" lon="22.1553873"><ele>839.0</ele><time>2026-04-29T09:22:21.982Z</time></trkpt><trkpt lat="38.0952173" lon="22.1555094"><ele>839.0000000000001</ele><time>2026-04-29T09:22:22.982Z</time></trkpt><trkpt lat="38.0951979" lon="22.1556095"><ele>839.0</ele><time>2026-04-29T09:22:23.981Z</time></trkpt><trkpt lat="38.0951448" lon="22.1557326"><ele>843.0</ele><time>2026-04-29T09:22:24.982Z</time></trkpt><trkpt lat="38.0950735" lon="22.1558541"><ele>847.0</ele><time>2026-04-29T09:22:25.98Z</time></trkpt><trkpt lat="38.0949786" lon="22.1559601"><ele>851.0</ele><time>2026-04-29T09:22:26.981Z</time></trkpt><trkpt lat="38.0948878" lon="22.1560559"><ele>855.0</ele><time>2026-04-29T09:22:27.981Z</time></trkpt><trkpt lat="38.094797" lon="22.1561557"><ele>855.0</ele><time>2026-04-29T09:22:28.98Z</time></trkpt><trkpt lat="38.0947034" lon="22.1562443"><ele>855.0</ele><time>2026-04-29T09:22:29.981Z</time></trkpt><trkpt lat="38.0946058" lon="22.1563318"><ele>855.0</ele><time>2026-04-29T09:22:30.98Z</time></trkpt><trkpt lat="38.0945071" lon="22.1564183"><ele>855.0</ele><time>2026-04-29T09:22:31.981Z</time></trkpt><trkpt lat="38.0944102" lon="22.1565075"><ele>849.25</ele><time>2026-04-29T09:22:32.981Z</time></trkpt><trkpt lat="38.0943192" lon="22.1566163"><ele>843.5</ele><time>2026-04-29T09:22:33.982Z</time></trkpt><trkpt lat="38.0942487" lon="22.1567573"><ele>837.75</ele><time>2026-04-29T09:22:34.981Z</time></trkpt><trkpt lat="38.0941951" lon="22.156891"><ele>832.0</ele><time>2026-04-29T09:22:35.981Z</time></trkpt><trkpt lat="38.09415" lon="22.1570279"><ele>832.0</ele><time>2026-04-29T09:22:36.981Z</time></trkpt><trkpt lat="38.0940963" lon="22.1571619"><ele>832.0</ele><time>2026-04-29T09:22:37.982Z</time></trkpt><trkpt lat="38.0940272" lon="22.1572841"><ele>832.0</ele><time>2026-04-29T09:22:38.981Z</time></trkpt><trkpt lat="38.0939456" lon="22.1573947"><ele>832.0</ele><time>2026-04-29T09:22:39.981Z</time></trkpt><trkpt lat="38.0938548" lon="22.1574925"><ele>831.75</ele><time>2026-04-29T09:22:40.98Z</time></trkpt><trkpt lat="38.0937577" lon="22.1575721"><ele>831.5</ele><time>2026-04-29T09:22:41.981Z</time></trkpt><trkpt lat="38.0936591" lon="22.1576256"><ele>831.25</ele><time>2026-04-29T09:22:42.982Z</time></trkpt><trkpt lat="38.0935501" lon="22.1576762"><ele>831.0</ele><time>2026-04-29T09:22:43.982Z</time></trkpt><trkpt lat="38.0934356" lon="22.1577139"><ele>831.0</ele><time>2026-04-29T09:22:44.981Z</time></trkpt><trkpt lat="38.0933225" lon="22.1577512"><ele>831.0</ele><time>2026-04-29T09:22:45.981Z</time></trkpt><trkpt lat="38.0932126" lon="22.1577797"><ele>831.0</ele><time>2026-04-29T09:22:46.982Z</time></trkpt><trkpt lat="38.0931016" lon="22.1577961"><ele>831.0</ele><time>2026-04-29T09:22:47.981Z</time></trkpt><trkpt lat="38.0929928" lon="22.1577987"><ele>832.0</ele><time>2026-04-29T09:22:48.981Z</time></trkpt><trkpt lat="38.0928925" lon="22.1578047"><ele>833.0</ele><time>2026-04-29T09:22:49.982Z</time></trkpt><trkpt lat="38.0927841" lon="22.1578511"><ele>834.0</ele><time>2026-04-29T09:22:50.98Z</time></trkpt><trkpt lat="38.0926691" lon="22.1579201"><ele>835.0</ele><time>2026-04-29T09:22:51.981Z</time></trkpt><trkpt lat="38.092557" lon="22.1579947"><ele>835.0</ele><time>2026-04-29T09:22:52.981Z</time></trkpt><trkpt lat="38.0924359" lon="22.1580751"><ele>835.0</ele><time>2026-04-29T09:22:53.981Z</time></trkpt><trkpt lat="38.0923113" lon="22.158154"><ele>835.0</ele><time>2026-04-29T09:22:54.979Z</time></trkpt><trkpt lat="38.0921843" lon="22.1582334"><ele>835.0</ele><time>2026-04-29T09:22:55.979Z</time></trkpt><trkpt lat="38.0920531" lon="22.1583218"><ele>831.0</ele><time>2026-04-29T09:22:56.982Z</time></trkpt><trkpt lat="38.0919237" lon="22.1584224"><ele>827.0</ele><time>2026-04-29T09:22:57.981Z</time></trkpt><trkpt lat="38.0917954" lon="22.1585318"><ele>823.0</ele><time>2026-04-29T09:22:58.982Z</time></trkpt><trkpt lat="38.09167" lon="22.1586452"><ele>823.5</ele><time>2026-04-29T09:22:59.98Z</time></trkpt><trkpt lat="38.0915479" lon="22.1587656"><ele>824.0</ele><time>2026-04-29T09:23:00.982Z</time></trkpt><trkpt lat="38.0914391" lon="22.1588911"><ele>824.5</ele><time>2026-04-29T09:23:01.981Z</time></trkpt><trkpt lat="38.0913479" lon="22.1590107"><ele>825.0</ele><time>2026-04-29T09:23:02.981Z</time></trkpt><trkpt lat="38.0912708" lon="22.1591318"><ele>825.0</ele><time>2026-04-29T09:23:03.981Z</time></trkpt><trkpt lat="38.0912103" lon="22.1592725"><ele>825.0</ele><time>2026-04-29T09:23:04.982Z</time></trkpt><trkpt lat="38.091188" lon="22.1594294"><ele>825.0</ele><time>2026-04-29T09:23:05.981Z</time></trkpt><trkpt lat="38.0911707" lon="22.1595776"><ele>825.0</ele><time>2026-04-29T09:23:06.982Z</time></trkpt><trkpt lat="38.091168" lon="22.1597407"><ele>824.25</ele><time>2026-04-29T09:23:07.981Z</time></trkpt><trkpt lat="38.0911786" lon="22.1598986"><ele>823.5</ele><time>2026-04-29T09:23:08.982Z</time></trkpt><trkpt lat="38.0911998" lon="22.1600493"><ele>822.75</ele><time>2026-04-29T09:23:09.981Z</time></trkpt><trkpt lat="38.0912235" lon="22.1601922"><ele>822.0</ele><time>2026-04-29T09:23:10.982Z</time></trkpt><trkpt lat="38.091241" lon="22.1603333"><ele>822.0</ele><time>2026-04-29T09:23:11.982Z</time></trkpt><trkpt lat="38.0912369" lon="22.1604633"><ele>822.0</ele><time>2026-04-29T09:23:12.981Z</time></trkpt><trkpt lat="38.0912127" lon="22.1605864"><ele>822.0</ele><time>2026-04-29T09:23:13.981Z</time></trkpt><trkpt lat="38.0911636" lon="22.1607079"><ele>822.0</ele><time>2026-04-29T09:23:14.981Z</time></trkpt><trkpt lat="38.0910952" lon="22.1608055"><ele>822.0</ele><time>2026-04-29T09:23:15.981Z</time></trkpt><trkpt lat="38.091011" lon="22.1608797"><ele>823.4000000000001</ele><time>2026-04-29T09:23:16.982Z</time></trkpt><trkpt lat="38.0909133" lon="22.1609384"><ele>824.8000000000001</ele><time>2026-04-29T09:23:17.982Z</time></trkpt><trkpt lat="38.09081" lon="22.1609609"><ele>826.2</ele><time>2026-04-29T09:23:18.981Z</time></trkpt><trkpt lat="38.090702" lon="22.1609945"><ele>827.6</ele><time>2026-04-29T09:23:19.981Z</time></trkpt><trkpt lat="38.0906055" lon="22.1610549"><ele>829.0</ele><time>2026-04-29T09:23:20.982Z</time></trkpt><trkpt lat="38.0905115" lon="22.161134"><ele>829.0</ele><time>2026-04-29T09:23:21.981Z</time></trkpt><trkpt lat="38.0904143" lon="22.1612164"><ele>829.0</ele><time>2026-04-29T09:23:22.981Z</time></trkpt><trkpt lat="38.0903047" lon="22.1612777"><ele>829.0</ele><time>2026-04-29T09:23:23.981Z</time></trkpt><trkpt lat="38.0901842" lon="22.1613491"><ele>829.0</ele><time>2026-04-29T09:23:24.982Z</time></trkpt><trkpt lat="38.0900724" lon="22.1614552"><ele>826.4000000000001</ele><time>2026-04-29T09:23:25.979Z</time></trkpt><trkpt lat="38.0899626" lon="22.1615407"><ele>823.8</ele><time>2026-04-29T09:23:26.981Z</time></trkpt><trkpt lat="38.0898706" lon="22.16159"><ele>821.2</ele><time>2026-04-29T09:23:27.981Z</time></trkpt><trkpt lat="38.0897917" lon="22.1615845"><ele>818.5999999999999</ele><time>2026-04-29T09:23:28.982Z</time></trkpt><trkpt lat="38.0897163" lon="22.1615808"><ele>816.0</ele><time>2026-04-29T09:23:29.981Z</time></trkpt><trkpt lat="38.0896417" lon="22.1615364"><ele>816.0</ele><time>2026-04-29T09:23:30.981Z</time></trkpt><trkpt lat="38.0895707" lon="22.1614842"><ele>816.0</ele><time>2026-04-29T09:23:31.982Z</time></trkpt><trkpt lat="38.0895022" lon="22.1614548"><ele>816.0</ele><time>2026-04-29T09:23:32.982Z</time></trkpt><trkpt lat="38.0894336" lon="22.1614645"><ele>816.0</ele><time>2026-04-29T09:23:33.982Z</time></trkpt><trkpt lat="38.0893877" lon="22.1615206"><ele>816.0</ele><time>2026-04-29T09:23:34.981Z</time></trkpt><trkpt lat="38.0893507" lon="22.1615925"><ele>816.0</ele><time>2026-04-29T09:23:35.981Z</time></trkpt><trkpt lat="38.089317" lon="22.1616974"><ele>816.0</ele><time>2026-04-29T09:23:36.982Z</time></trkpt><trkpt lat="38.0892812" lon="22.1618155"><ele>816.0</ele><time>2026-04-29T09:23:37.981Z</time></trkpt><trkpt lat="38.0892301" lon="22.161942"><ele>816.0</ele><time>2026-04-29T09:23:38.981Z</time></trkpt><trkpt lat="38.0891725" lon="22.1620668"><ele>816.0</ele><time>2026-04-29T09:23:39.981Z</time></trkpt><trkpt lat="38.0891147" lon="22.1621831"><ele>816.0</ele><time>2026-04-29T09:23:40.982Z</time></trkpt><trkpt lat="38.0890421" lon="22.1622813"><ele>816.0</ele><time>2026-04-29T09:23:41.981Z</time></trkpt><trkpt lat="38.088967" lon="22.1623616"><ele>816.4</ele><time>2026-04-29T09:23:42.982Z</time></trkpt><trkpt lat="38.0888832" lon="22.1624037"><ele>816.8</ele><time>2026-04-29T09:23:43.982Z</time></trkpt><trkpt lat="38.0887732" lon="22.1623963"><ele>817.1999999999999</ele><time>2026-04-29T09:23:44.981Z</time></trkpt><trkpt lat="38.0886765" lon="22.1623654"><ele>817.5999999999999</ele><time>2026-04-29T09:23:45.982Z</time></trkpt><trkpt lat="38.0885721" lon="22.1622999"><ele>818.0</ele><time>2026-04-29T09:23:46.981Z</time></trkpt><trkpt lat="38.0884693" lon="22.1622487"><ele>818.0</ele><time>2026-04-29T09:23:47.982Z</time></trkpt><trkpt lat="38.0883532" lon="22.1622017"><ele>818.0</ele><time>2026-04-29T09:23:48.981Z</time></trkpt><trkpt lat="38.0882254" lon="22.1621741"><ele>818.0</ele><time>2026-04-29T09:23:49.981Z</time></trkpt><trkpt lat="38.088089" lon="22.1621531"><ele>818.0</ele><time>2026-04-29T09:23:50.981Z</time></trkpt><trkpt lat="38.0879516" lon="22.1621415"><ele>816.75</ele><time>2026-04-29T09:23:51.981Z</time></trkpt><trkpt lat="38.0878151" lon="22.1621481"><ele>815.5</ele><time>2026-04-29T09:23:52.982Z</time></trkpt><trkpt lat="38.0876855" lon="22.1621792"><ele>814.25</ele><time>2026-04-29T09:23:53.981Z</time></trkpt><trkpt lat="38.0875582" lon="22.1622126"><ele>813.0</ele><time>2026-04-29T09:23:54.981Z</time></trkpt><trkpt lat="38.0874434" lon="22.1622367"><ele>812.0</ele><time>2026-04-29T09:23:55.981Z</time></trkpt><trkpt lat="38.0873524" lon="22.162236"><ele>811.0</ele><time>2026-04-29T09:23:56.981Z</time></trkpt><trkpt lat="38.0872693" lon="22.1622486"><ele>810.0</ele><time>2026-04-29T09:23:57.981Z</time></trkpt><trkpt lat="38.0871976" lon="22.1622874"><ele>809.0</ele><time>2026-04-29T09:23:58.981Z</time></trkpt><trkpt lat="38.0871348" lon="22.1623613"><ele>808.0</ele><time>2026-04-29T09:23:59.982Z</time></trkpt><trkpt lat="38.0870957" lon="22.1624557"><ele>807.0</ele><time>2026-04-29T09:24:00.981Z</time></trkpt><trkpt lat="38.0870684" lon="22.1625644"><ele>807.0</ele><time>2026-04-29T09:24:01.982Z</time></trkpt><trkpt lat="38.0870518" lon="22.1626867"><ele>807.0</ele><time>2026-04-29T09:24:02.981Z</time></trkpt><trkpt lat="38.0870359" lon="22.1628095"><ele>807.0</ele><time>2026-04-29T09:24:03.979Z</time></trkpt><trkpt lat="38.0870029" lon="22.1629399"><ele>807.0</ele><time>2026-04-29T09:24:04.981Z</time></trkpt><trkpt lat="38.0869612" lon="22.1630743"><ele>807.0</ele><time>2026-04-29T09:24:05.981Z</time></trkpt><trkpt lat="38.0869009" lon="22.1632039"><ele>803.75</ele><time>2026-04-29T09:24:06.981Z</time></trkpt><trkpt lat="38.0868272" lon="22.1633314"><ele>800.5</ele><time>2026-04-29T09:24:07.982Z</time></trkpt><trkpt lat="38.0867476" lon="22.1634411"><ele>797.25</ele><time>2026-04-29T09:24:08.982Z</time></trkpt><trkpt lat="38.0866372" lon="22.1635518"><ele>794.0</ele><time>2026-04-29T09:24:09.98Z</time></trkpt><trkpt lat="38.0865211" lon="22.163617"><ele>794.0</ele><time>2026-04-29T09:24:10.982Z</time></trkpt><trkpt lat="38.0863993" lon="22.1636565"><ele>794.0</ele><time>2026-04-29T09:24:11.982Z</time></trkpt><trkpt lat="38.0862841" lon="22.1636964"><ele>794.0</ele><time>2026-04-29T09:24:12.982Z</time></trkpt><trkpt lat="38.0861757" lon="22.1637416"><ele>794.0</ele><time>2026-04-29T09:24:13.982Z</time></trkpt><trkpt lat="38.0860801" lon="22.163788"><ele>794.0000000000001</ele><time>2026-04-29T09:24:14.982Z</time></trkpt><trkpt lat="38.0859786" lon="22.1638228"><ele>794.0</ele><time>2026-04-29T09:24:15.982Z</time></trkpt><trkpt lat="38.0858915" lon="22.1638673"><ele>794.0</ele><time>2026-04-29T09:24:16.982Z</time></trkpt><trkpt lat="38.085838" lon="22.1639414"><ele>794.0</ele><time>2026-04-29T09:24:17.981Z</time></trkpt><trkpt lat="38.0858074" lon="22.1640355"><ele>794.0000000000001</ele><time>2026-04-29T09:24:18.982Z</time></trkpt><trkpt lat="38.0858208" lon="22.1641374"><ele>794.0</ele><time>2026-04-29T09:24:19.981Z</time></trkpt><trkpt lat="38.0858602" lon="22.1642475"><ele>788.6</ele><time>2026-04-29T09:24:20.981Z</time></trkpt><trkpt lat="38.0859153" lon="22.1643672"><ele>783.2</ele><time>2026-04-29T09:24:21.981Z</time></trkpt><trkpt lat="38.0859711" lon="22.1644892"><ele>777.8000000000001</ele><time>2026-04-29T09:24:22.982Z</time></trkpt><trkpt lat="38.0860293" lon="22.1646067"><ele>772.4000000000001</ele><time>2026-04-29T09:24:23.981Z</time></trkpt><trkpt lat="38.0860878" lon="22.1647133"><ele>767.0</ele><time>2026-04-29T09:24:24.982Z</time></trkpt><trkpt lat="38.0861468" lon="22.1648007"><ele>763.5</ele><time>2026-04-29T09:24:25.982Z</time></trkpt><trkpt lat="38.0861928" lon="22.1648863"><ele>760.0</ele><time>2026-04-29T09:24:26.981Z</time></trkpt><trkpt lat="38.0862202" lon="22.1649832"><ele>756.5</ele><time>2026-04-29T09:24:27.982Z</time></trkpt><trkpt lat="38.0861645" lon="22.1650444"><ele>753.0</ele><time>2026-04-29T09:24:28.981Z</time></trkpt><trkpt lat="38.0860926" lon="22.1650825"><ele>749.5</ele><time>2026-04-29T09:24:29.982Z</time></trkpt><trkpt lat="38.0860121" lon="22.1650893"><ele>746.0</ele><time>2026-04-29T09:24:30.981Z</time></trkpt><trkpt lat="38.0859255" lon="22.165023"><ele>746.0</ele><time>2026-04-29T09:24:31.982Z</time></trkpt><trkpt lat="38.085853" lon="22.1649497"><ele>746.0</ele><time>2026-04-29T09:24:32.982Z</time></trkpt><trkpt lat="38.0857767" lon="22.1648486"><ele>746.0</ele><time>2026-04-29T09:24:33.981Z</time></trkpt><trkpt lat="38.0857062" lon="22.1647516"><ele>746.0</ele><time>2026-04-29T09:24:34.981Z</time></trkpt><trkpt lat="38.0856335" lon="22.1646582"><ele>746.0</ele><time>2026-04-29T09:24:35.982Z</time></trkpt><trkpt lat="38.0855569" lon="22.1645848"><ele>748.8</ele><time>2026-04-29T09:24:36.981Z</time></trkpt><trkpt lat="38.0854839" lon="22.1645188"><ele>751.5999999999999</ele><time>2026-04-29T09:24:37.981Z</time></trkpt><trkpt lat="38.0854127" lon="22.1644632"><ele>754.4</ele><time>2026-04-29T09:24:38.982Z</time></trkpt><trkpt lat="38.0852982" lon="22.1644747"><ele>757.2</ele><time>2026-04-29T09:24:40.982Z</time></trkpt><trkpt lat="38.0853029" lon="22.1646055"><ele>760.0</ele><time>2026-04-29T09:24:42.982Z</time></trkpt><trkpt lat="38.085355" lon="22.1646806"><ele>760.0</ele><time>2026-04-29T09:24:43.981Z</time></trkpt><trkpt lat="38.0854167" lon="22.1647772"><ele>760.0</ele><time>2026-04-29T09:24:44.982Z</time></trkpt><trkpt lat="38.0854768" lon="22.1648871"><ele>760.0</ele><time>2026-04-29T09:24:45.981Z</time></trkpt><trkpt lat="38.0855287" lon="22.164999"><ele>760.0</ele><time>2026-04-29T09:24:46.982Z</time></trkpt><trkpt lat="38.0855752" lon="22.1651056"><ele>760.0</ele><time>2026-04-29T09:24:47.982Z</time></trkpt><trkpt lat="38.0855952" lon="22.1651834"><ele>755.6666666666667</ele><time>2026-04-29T09:24:48.982Z</time></trkpt><trkpt lat="38.085583" lon="22.1652625"><ele>751.3333333333334</ele><time>2026-04-29T09:24:49.982Z</time></trkpt><trkpt lat="38.0854987" lon="22.1653114"><ele>747.0</ele><time>2026-04-29T09:24:51.98Z</time></trkpt><trkpt lat="38.0854478" lon="22.165263"><ele>742.6666666666666</ele><time>2026-04-29T09:24:52.982Z</time></trkpt><trkpt lat="38.0853862" lon="22.1651751"><ele>738.3333333333333</ele><time>2026-04-29T09:24:53.981Z</time></trkpt><trkpt lat="38.0853378" lon="22.1650667"><ele>734.0</ele><time>2026-04-29T09:24:54.982Z</time></trkpt><trkpt lat="38.0852751" lon="22.1649529"><ele>738.3333333333333</ele><time>2026-04-29T09:24:55.981Z</time></trkpt><trkpt lat="38.0852083" lon="22.1648592"><ele>742.6666666666666</ele><time>2026-04-29T09:24:56.982Z</time></trkpt><trkpt lat="38.0851331" lon="22.1647849"><ele>747.0</ele><time>2026-04-29T09:24:57.981Z</time></trkpt><trkpt lat="38.085063" lon="22.1647312"><ele>751.3333333333334</ele><time>2026-04-29T09:24:58.981Z</time></trkpt><trkpt lat="38.0849885" lon="22.1646953"><ele>755.6666666666667</ele><time>2026-04-29T09:24:59.981Z</time></trkpt><trkpt lat="38.0849225" lon="22.1647011"><ele>760.0</ele><time>2026-04-29T09:25:00.982Z</time></trkpt><trkpt lat="38.0848518" lon="22.1647656"><ele>757.6</ele><time>2026-04-29T09:25:01.982Z</time></trkpt><trkpt lat="38.0848053" lon="22.1648586"><ele>755.2</ele><time>2026-04-29T09:25:02.982Z</time></trkpt><trkpt lat="38.0847568" lon="22.1649643"><ele>752.8</ele><time>2026-04-29T09:25:03.981Z</time></trkpt><trkpt lat="38.0846946" lon="22.1650736"><ele>750.4</ele><time>2026-04-29T09:25:04.981Z</time></trkpt><trkpt lat="38.0846089" lon="22.1651724"><ele>748.0</ele><time>2026-04-29T09:25:05.981Z</time></trkpt><trkpt lat="38.0845362" lon="22.1653124"><ele>748.0</ele><time>2026-04-29T09:25:06.981Z</time></trkpt><trkpt lat="38.084473" lon="22.1654256"><ele>748.0</ele><time>2026-04-29T09:25:07.981Z</time></trkpt><trkpt lat="38.0844032" lon="22.1655336"><ele>748.0</ele><time>2026-04-29T09:25:08.981Z</time></trkpt><trkpt lat="38.0843108" lon="22.1656396"><ele>748.0</ele><time>2026-04-29T09:25:09.982Z</time></trkpt><trkpt lat="38.0842071" lon="22.1657241"><ele>748.75</ele><time>2026-04-29T09:25:10.982Z</time></trkpt><trkpt lat="38.0840985" lon="22.1658008"><ele>749.5</ele><time>2026-04-29T09:25:11.981Z</time></trkpt><trkpt lat="38.084002" lon="22.1658949"><ele>750.25</ele><time>2026-04-29T09:25:12.982Z</time></trkpt><trkpt lat="38.083933" lon="22.1660097"><ele>751.0</ele><time>2026-04-29T09:25:13.981Z</time></trkpt><trkpt lat="38.0838778" lon="22.1661218"><ele>751.0</ele><time>2026-04-29T09:25:14.981Z</time></trkpt><trkpt lat="38.0838136" lon="22.1662255"><ele>751.0</ele><time>2026-04-29T09:25:15.982Z</time></trkpt><trkpt lat="38.0837369" lon="22.1663258"><ele>751.0</ele><time>2026-04-29T09:25:16.982Z</time></trkpt><trkpt lat="38.0836519" lon="22.166415"><ele>751.0</ele><time>2026-04-29T09:25:17.982Z</time></trkpt><trkpt lat="38.083552" lon="22.16649"><ele>751.0</ele><time>2026-04-29T09:25:18.981Z</time></trkpt><trkpt lat="38.0834433" lon="22.166551"><ele>744.0</ele><time>2026-04-29T09:25:19.982Z</time></trkpt><trkpt lat="38.0833264" lon="22.1665854"><ele>737.0</ele><time>2026-04-29T09:25:20.98Z</time></trkpt><trkpt lat="38.0832125" lon="22.1665761"><ele>730.0</ele><time>2026-04-29T09:25:21.981Z</time></trkpt><trkpt lat="38.0830779" lon="22.1665504"><ele>723.0</ele><time>2026-04-29T09:25:22.982Z</time></trkpt><trkpt lat="38.082942" lon="22.1665329"><ele>721.75</ele><time>2026-04-29T09:25:23.981Z</time></trkpt><trkpt lat="38.0828081" lon="22.1665308"><ele>720.5</ele><time>2026-04-29T09:25:24.981Z</time></trkpt><trkpt lat="38.0826816" lon="22.1665331"><ele>719.25</ele><time>2026-04-29T09:25:25.981Z</time></trkpt><trkpt lat="38.0825562" lon="22.1665224"><ele>718.0</ele><time>2026-04-29T09:25:26.981Z</time></trkpt><trkpt lat="38.0824279" lon="22.1665035"><ele>727.5</ele><time>2026-04-29T09:25:27.981Z</time></trkpt><trkpt lat="38.0823019" lon="22.1664873"><ele>737.0</ele><time>2026-04-29T09:25:28.982Z</time></trkpt><trkpt lat="38.0821715" lon="22.1664718"><ele>746.5</ele><time>2026-04-29T09:25:29.981Z</time></trkpt><trkpt lat="38.0820354" lon="22.166468"><ele>756.0</ele><time>2026-04-29T09:25:30.981Z</time></trkpt><trkpt lat="38.0818946" lon="22.1664774"><ele>756.0</ele><time>2026-04-29T09:25:31.981Z</time></trkpt><trkpt lat="38.0817506" lon="22.1664813"><ele>756.0</ele><time>2026-04-29T09:25:32.981Z</time></trkpt><trkpt lat="38.0816041" lon="22.1664831"><ele>756.0</ele><time>2026-04-29T09:25:33.981Z</time></trkpt><trkpt lat="38.0814638" lon="22.1664886"><ele>756.0</ele><time>2026-04-29T09:25:34.981Z</time></trkpt><trkpt lat="38.0813279" lon="22.166498"><ele>754.25</ele><time>2026-04-29T09:25:35.981Z</time></trkpt><trkpt lat="38.081196" lon="22.1664795"><ele>752.5</ele><time>2026-04-29T09:25:36.982Z</time></trkpt><trkpt lat="38.0810499" lon="22.1664166"><ele>750.75</ele><time>2026-04-29T09:25:37.981Z</time></trkpt><trkpt lat="38.0809178" lon="22.1663652"><ele>749.0</ele><time>2026-04-29T09:25:38.982Z</time></trkpt><trkpt lat="38.0807813" lon="22.166329"><ele>742.25</ele><time>2026-04-29T09:25:39.981Z</time></trkpt><trkpt lat="38.080649" lon="22.1662884"><ele>735.5</ele><time>2026-04-29T09:25:40.982Z</time></trkpt><trkpt lat="38.0805157" lon="22.1662521"><ele>728.75</ele><time>2026-04-29T09:25:41.981Z</time></trkpt><trkpt lat="38.0803869" lon="22.1662265"><ele>722.0</ele><time>2026-04-29T09:25:42.982Z</time></trkpt><trkpt lat="38.0802706" lon="22.1661886"><ele>722.0</ele><time>2026-04-29T09:25:43.982Z</time></trkpt><trkpt lat="38.0801685" lon="22.1661486"><ele>722.0</ele><time>2026-04-29T09:25:44.981Z</time></trkpt><trkpt lat="38.0800682" lon="22.1661177"><ele>722.0</ele><time>2026-04-29T09:25:45.981Z</time></trkpt><trkpt lat="38.0799651" lon="22.1661251"><ele>722.0</ele><time>2026-04-29T09:25:46.981Z</time></trkpt><trkpt lat="38.0798697" lon="22.1661735"><ele>722.0</ele><time>2026-04-29T09:25:47.98Z</time></trkpt><trkpt lat="38.0797787" lon="22.166217"><ele>716.75</ele><time>2026-04-29T09:25:48.982Z</time></trkpt><trkpt lat="38.0796724" lon="22.1662311"><ele>711.5</ele><time>2026-04-29T09:25:49.982Z</time></trkpt><trkpt lat="38.0795529" lon="22.166222"><ele>706.25</ele><time>2026-04-29T09:25:50.98Z</time></trkpt><trkpt lat="38.0794254" lon="22.1661695"><ele>701.0</ele><time>2026-04-29T09:25:51.982Z</time></trkpt><trkpt lat="38.0792963" lon="22.1661003"><ele>701.0</ele><time>2026-04-29T09:25:52.981Z</time></trkpt><trkpt lat="38.0791707" lon="22.1660218"><ele>701.0</ele><time>2026-04-29T09:25:53.981Z</time></trkpt><trkpt lat="38.0790592" lon="22.1659129"><ele>701.0</ele><time>2026-04-29T09:25:54.982Z</time></trkpt><trkpt lat="38.0789578" lon="22.165795"><ele>701.0</ele><time>2026-04-29T09:25:55.981Z</time></trkpt><trkpt lat="38.0788517" lon="22.1656824"><ele>703.3333333333333</ele><time>2026-04-29T09:25:56.982Z</time></trkpt><trkpt lat="38.07873" lon="22.1655893"><ele>705.6666666666666</ele><time>2026-04-29T09:25:57.982Z</time></trkpt><trkpt lat="38.0785925" lon="22.165506"><ele>708.0</ele><time>2026-04-29T09:25:58.981Z</time></trkpt><trkpt lat="38.0784394" lon="22.1654518"><ele>708.0</ele><time>2026-04-29T09:25:59.98Z</time></trkpt><trkpt lat="38.078284" lon="22.1654086"><ele>708.0</ele><time>2026-04-29T09:26:00.981Z</time></trkpt><trkpt lat="38.0781337" lon="22.1653696"><ele>708.0</ele><time>2026-04-29T09:26:01.98Z</time></trkpt><trkpt lat="38.0779862" lon="22.1653305"><ele>701.0</ele><time>2026-04-29T09:26:02.982Z</time></trkpt><trkpt lat="38.0778472" lon="22.1652777"><ele>694.0</ele><time>2026-04-29T09:26:03.981Z</time></trkpt><trkpt lat="38.0777343" lon="22.16521"><ele>687.0</ele><time>2026-04-29T09:26:04.98Z</time></trkpt><trkpt lat="38.0776156" lon="22.1651088"><ele>680.0</ele><time>2026-04-29T09:26:05.981Z</time></trkpt><trkpt lat="38.0775062" lon="22.1649756"><ele>679.0</ele><time>2026-04-29T09:26:06.982Z</time></trkpt><trkpt lat="38.0773969" lon="22.1648438"><ele>678.0</ele><time>2026-04-29T09:26:07.981Z</time></trkpt><trkpt lat="38.0772789" lon="22.1647232"><ele>677.0</ele><time>2026-04-29T09:26:08.981Z</time></trkpt><trkpt lat="38.0771508" lon="22.1645996"><ele>677.0</ele><time>2026-04-29T09:26:09.981Z</time></trkpt><trkpt lat="38.077028" lon="22.1644738"><ele>677.0</ele><time>2026-04-29T09:26:10.981Z</time></trkpt><trkpt lat="38.0768961" lon="22.1643687"><ele>677.0</ele><time>2026-04-29T09:26:11.981Z</time></trkpt><trkpt lat="38.0767607" lon="22.1642658"><ele>677.0</ele><time>2026-04-29T09:26:12.981Z</time></trkpt><trkpt lat="38.0766183" lon="22.1641693"><ele>677.0</ele><time>2026-04-29T09:26:13.981Z</time></trkpt><trkpt lat="38.0764773" lon="22.164071"><ele>677.0</ele><time>2026-04-29T09:26:14.982Z</time></trkpt><trkpt lat="38.0763412" lon="22.1639773"><ele>676.5</ele><time>2026-04-29T09:26:15.981Z</time></trkpt><trkpt lat="38.0762111" lon="22.1638931"><ele>676.0</ele><time>2026-04-29T09:26:16.981Z</time></trkpt><trkpt lat="38.0760821" lon="22.1638228"><ele>675.5</ele><time>2026-04-29T09:26:17.982Z</time></trkpt><trkpt lat="38.0759543" lon="22.1637608"><ele>675.0</ele><time>2026-04-29T09:26:18.982Z</time></trkpt><trkpt lat="38.0758265" lon="22.1637058"><ele>671.6</ele><time>2026-04-29T09:26:19.982Z</time></trkpt><trkpt lat="38.0757026" lon="22.1636482"><ele>668.2</ele><time>2026-04-29T09:26:20.981Z</time></trkpt><trkpt lat="38.0755952" lon="22.163593"><ele>664.8</ele><time>2026-04-29T09:26:21.982Z</time></trkpt><trkpt lat="38.0754987" lon="22.1635542"><ele>661.4</ele><time>2026-04-29T09:26:22.981Z</time></trkpt><trkpt lat="38.0753998" lon="22.1635405"><ele>658.0</ele><time>2026-04-29T09:26:23.982Z</time></trkpt><trkpt lat="38.075314" lon="22.1635495"><ele>658.0</ele><time>2026-04-29T09:26:24.98Z</time></trkpt><trkpt lat="38.0752419" lon="22.1635799"><ele>658.0</ele><time>2026-04-29T09:26:25.981Z</time></trkpt><trkpt lat="38.0751651" lon="22.163617"><ele>658.0</ele><time>2026-04-29T09:26:26.981Z</time></trkpt><trkpt lat="38.0750927" lon="22.1636476"><ele>658.0</ele><time>2026-04-29T09:26:27.982Z</time></trkpt><trkpt lat="38.0750234" lon="22.1636756"><ele>658.0</ele><time>2026-04-29T09:26:28.982Z</time></trkpt><trkpt lat="38.0749267" lon="22.1637219"><ele>658.0</ele><time>2026-04-29T09:26:30.982Z</time></trkpt><trkpt lat="38.0748626" lon="22.1637624"><ele>658.5</ele><time>2026-04-29T09:26:32.982Z</time></trkpt><trkpt lat="38.0747856" lon="22.163779"><ele>659.0</ele><time>2026-04-29T09:26:34.981Z</time></trkpt><trkpt lat="38.0746853" lon="22.1637283"><ele>659.5</ele><time>2026-04-29T09:26:36.981Z</time></trkpt><trkpt lat="38.0746222" lon="22.163674"><ele>660.0</ele><time>2026-04-29T09:26:37.982Z</time></trkpt><trkpt lat="38.0745631" lon="22.163615"><ele>660.5</ele><time>2026-04-29T09:26:38.982Z</time></trkpt><trkpt lat="38.0744978" lon="22.1635643"><ele>661.0</ele><time>2026-04-29T09:26:39.98Z</time></trkpt><trkpt lat="38.0744395" lon="22.1635136"><ele>661.0</ele><time>2026-04-29T09:26:40.982Z</time></trkpt><trkpt lat="38.0743734" lon="22.1634643"><ele>661.0</ele><time>2026-04-29T09:26:41.982Z</time></trkpt><trkpt lat="38.0743075" lon="22.1634185"><ele>661.0</ele><time>2026-04-29T09:26:42.982Z</time></trkpt><trkpt lat="38.0742298" lon="22.1633746"><ele>661.0</ele><time>2026-04-29T09:26:43.982Z</time></trkpt><trkpt lat="38.0741523" lon="22.1633457"><ele>661.0</ele><time>2026-04-29T09:26:44.981Z</time></trkpt><trkpt lat="38.0740716" lon="22.1633367"><ele>661.0</ele><time>2026-04-29T09:26:45.982Z</time></trkpt><trkpt lat="38.0739819" lon="22.1633333"><ele>660.0</ele><time>2026-04-29T09:26:46.981Z</time></trkpt><trkpt lat="38.0739021" lon="22.1633167"><ele>659.0</ele><time>2026-04-29T09:26:47.982Z</time></trkpt><trkpt lat="38.0738143" lon="22.1632809"><ele>658.0</ele><time>2026-04-29T09:26:48.982Z</time></trkpt><trkpt lat="38.0737226" lon="22.1632329"><ele>657.0</ele><time>2026-04-29T09:26:49.981Z</time></trkpt><trkpt lat="38.0736295" lon="22.1631741"><ele>656.0</ele><time>2026-04-29T09:26:50.982Z</time></trkpt><trkpt lat="38.0735298" lon="22.1631117"><ele>656.0</ele><time>2026-04-29T09:26:51.982Z</time></trkpt><trkpt lat="38.0734277" lon="22.1630559"><ele>656.0</ele><time>2026-04-29T09:26:52.982Z</time></trkpt><trkpt lat="38.0733205" lon="22.1630015"><ele>656.0</ele><time>2026-04-29T09:26:53.981Z</time></trkpt><trkpt lat="38.0732088" lon="22.1629468"><ele>656.0</ele><time>2026-04-29T09:26:54.982Z</time></trkpt><trkpt lat="38.0730942" lon="22.1628987"><ele>657.1999999999999</ele><time>2026-04-29T09:26:55.981Z</time></trkpt><trkpt lat="38.0729847" lon="22.1628508"><ele>658.4</ele><time>2026-04-29T09:26:56.982Z</time></trkpt><trkpt lat="38.0728774" lon="22.1627963"><ele>659.6</ele><time>2026-04-29T09:26:57.98Z</time></trkpt><trkpt lat="38.0727735" lon="22.1627436"><ele>660.8</ele><time>2026-04-29T09:26:58.981Z</time></trkpt><trkpt lat="38.072682" lon="22.1626839"><ele>662.0</ele><time>2026-04-29T09:26:59.981Z</time></trkpt><trkpt lat="38.0725883" lon="22.1626234"><ele>662.0</ele><time>2026-04-29T09:27:00.981Z</time></trkpt><trkpt lat="38.0724863" lon="22.162567"><ele>662.0</ele><time>2026-04-29T09:27:01.979Z</time></trkpt><trkpt lat="38.0723767" lon="22.1625276"><ele>662.0</ele><time>2026-04-29T09:27:02.982Z</time></trkpt><trkpt lat="38.0722815" lon="22.1624947"><ele>662.0</ele><time>2026-04-29T09:27:03.981Z</time></trkpt><trkpt lat="38.0721804" lon="22.1624626"><ele>662.0</ele><time>2026-04-29T09:27:04.982Z</time></trkpt><trkpt lat="38.0720827" lon="22.1624406"><ele>662.0</ele><time>2026-04-29T09:27:05.982Z</time></trkpt><trkpt lat="38.0719709" lon="22.1624103"><ele>662.0</ele><time>2026-04-29T09:27:06.981Z</time></trkpt><trkpt lat="38.0718648" lon="22.1623844"><ele>662.0</ele><time>2026-04-29T09:27:07.982Z</time></trkpt><trkpt lat="38.0717598" lon="22.1623598"><ele>662.0</ele><time>2026-04-29T09:27:08.982Z</time></trkpt><trkpt lat="38.0716572" lon="22.1623305"><ele>662.0</ele><time>2026-04-29T09:27:09.982Z</time></trkpt><trkpt lat="38.0715499" lon="22.1623017"><ele>662.0</ele><time>2026-04-29T09:27:10.982Z</time></trkpt><trkpt lat="38.0714418" lon="22.1622777"><ele>662.0</ele><time>2026-04-29T09:27:11.982Z</time></trkpt><trkpt lat="38.0713309" lon="22.1622543"><ele>662.0</ele><time>2026-04-29T09:27:12.981Z</time></trkpt><trkpt lat="38.0712253" lon="22.1622272"><ele>662.0</ele><time>2026-04-29T09:27:13.981Z</time></trkpt><trkpt lat="38.0711245" lon="22.1621936"><ele>662.0</ele><time>2026-04-29T09:27:14.981Z</time></trkpt><trkpt lat="38.0710197" lon="22.1621553"><ele>662.0</ele><time>2026-04-29T09:27:15.981Z</time></trkpt><trkpt lat="38.070919" lon="22.1621181"><ele>662.0</ele><time>2026-04-29T09:27:16.982Z</time></trkpt><trkpt lat="38.0708211" lon="22.1620663"><ele>662.0</ele><time>2026-04-29T09:27:17.981Z</time></trkpt><trkpt lat="38.0707164" lon="22.1620075"><ele>662.0</ele><time>2026-04-29T09:27:18.98Z</time></trkpt><trkpt lat="38.0706023" lon="22.161953"><ele>662.0</ele><time>2026-04-29T09:27:19.981Z</time></trkpt><trkpt lat="38.0705015" lon="22.1618977"><ele>664.1666666666666</ele><time>2026-04-29T09:27:20.981Z</time></trkpt><trkpt lat="38.070417" lon="22.1618543"><ele>666.3333333333333</ele><time>2026-04-29T09:27:21.982Z</time></trkpt><trkpt lat="38.0703411" lon="22.1618162"><ele>668.5</ele><time>2026-04-29T09:27:22.982Z</time></trkpt><trkpt lat="38.0702754" lon="22.1617823"><ele>670.6666666666666</ele><time>2026-04-29T09:27:23.981Z</time></trkpt><trkpt lat="38.0702113" lon="22.1617609"><ele>672.8333333333334</ele><time>2026-04-29T09:27:24.982Z</time></trkpt><trkpt lat="38.0700942" lon="22.1617067"><ele>675.0</ele><time>2026-04-29T09:27:26.982Z</time></trkpt><trkpt lat="38.070025" lon="22.1616829"><ele>675.0</ele><time>2026-04-29T09:27:27.982Z</time></trkpt><trkpt lat="38.0699453" lon="22.1616404"><ele>675.0</ele><time>2026-04-29T09:27:28.981Z</time></trkpt><trkpt lat="38.0698479" lon="22.1615767"><ele>675.0</ele><time>2026-04-29T09:27:29.982Z</time></trkpt><trkpt lat="38.06973" lon="22.1614928"><ele>675.0</ele><time>2026-04-29T09:27:30.981Z</time></trkpt><trkpt lat="38.069608" lon="22.1613945"><ele>674.6666666666666</ele><time>2026-04-29T09:27:31.981Z</time></trkpt><trkpt lat="38.0694945" lon="22.1612884"><ele>674.3333333333333</ele><time>2026-04-29T09:27:32.981Z</time></trkpt><trkpt lat="38.0693665" lon="22.161174"><ele>674.0</ele><time>2026-04-29T09:27:33.982Z</time></trkpt><trkpt lat="38.0692271" lon="22.1610515"><ele>673.6666666666666</ele><time>2026-04-29T09:27:34.982Z</time></trkpt><trkpt lat="38.0690865" lon="22.1609147"><ele>673.3333333333334</ele><time>2026-04-29T09:27:35.982Z</time></trkpt><trkpt lat="38.0689235" lon="22.1607706"><ele>673.0</ele><time>2026-04-29T09:27:36.981Z</time></trkpt><trkpt lat="38.0687494" lon="22.1606333"><ele>673.0</ele><time>2026-04-29T09:27:37.982Z</time></trkpt><trkpt lat="38.068566" lon="22.1605004"><ele>673.0</ele><time>2026-04-29T09:27:38.982Z</time></trkpt><trkpt lat="38.0683735" lon="22.1603755"><ele>673.0</ele><time>2026-04-29T09:27:39.981Z</time></trkpt><trkpt lat="38.0681869" lon="22.1602613"><ele>674.3333333333334</ele><time>2026-04-29T09:27:40.981Z</time></trkpt><trkpt lat="38.0679936" lon="22.1601481"><ele>675.6666666666666</ele><time>2026-04-29T09:27:41.981Z</time></trkpt><trkpt lat="38.0678115" lon="22.1600388"><ele>677.0</ele><time>2026-04-29T09:27:42.98Z</time></trkpt><trkpt lat="38.0676251" lon="22.1599406"><ele>676.3333333333333</ele><time>2026-04-29T09:27:43.982Z</time></trkpt><trkpt lat="38.0674442" lon="22.1598353"><ele>675.6666666666666</ele><time>2026-04-29T09:27:44.981Z</time></trkpt><trkpt lat="38.0672649" lon="22.1597283"><ele>675.0</ele><time>2026-04-29T09:27:45.982Z</time></trkpt><trkpt lat="38.0670847" lon="22.159623"><ele>675.0</ele><time>2026-04-29T09:27:46.981Z</time></trkpt><trkpt lat="38.0669025" lon="22.1595199"><ele>675.0</ele><time>2026-04-29T09:27:47.981Z</time></trkpt><trkpt lat="38.0667229" lon="22.1594144"><ele>675.0</ele><time>2026-04-29T09:27:48.981Z</time></trkpt><trkpt lat="38.0665432" lon="22.159301"><ele>674.0</ele><time>2026-04-29T09:27:49.981Z</time></trkpt><trkpt lat="38.0663661" lon="22.1591855"><ele>673.0</ele><time>2026-04-29T09:27:50.982Z</time></trkpt><trkpt lat="38.0662013" lon="22.1590671"><ele>672.0</ele><time>2026-04-29T09:27:51.982Z</time></trkpt><trkpt lat="38.0660341" lon="22.1589413"><ele>672.0</ele><time>2026-04-29T09:27:52.982Z</time></trkpt><trkpt lat="38.0658719" lon="22.1588129"><ele>672.0</ele><time>2026-04-29T09:27:53.982Z</time></trkpt><trkpt lat="38.0657156" lon="22.158686"><ele>672.0</ele><time>2026-04-29T09:27:54.982Z</time></trkpt><trkpt lat="38.0655642" lon="22.158542"><ele>672.6666666666666</ele><time>2026-04-29T09:27:55.981Z</time></trkpt><trkpt lat="38.0654231" lon="22.1583975"><ele>673.3333333333333</ele><time>2026-04-29T09:27:56.981Z</time></trkpt><trkpt lat="38.0652785" lon="22.1582568"><ele>674.0</ele><time>2026-04-29T09:27:57.981Z</time></trkpt><trkpt lat="38.0651412" lon="22.1581202"><ele>674.0</ele><time>2026-04-29T09:27:58.982Z</time></trkpt><trkpt lat="38.0649953" lon="22.1579916"><ele>674.0</ele><time>2026-04-29T09:27:59.981Z</time></trkpt><trkpt lat="38.0648408" lon="22.1578697"><ele>674.0</ele><time>2026-04-29T09:28:00.981Z</time></trkpt><trkpt lat="38.0646827" lon="22.1577679"><ele>676.6666666666666</ele><time>2026-04-29T09:28:01.982Z</time></trkpt><trkpt lat="38.0645212" lon="22.1576752"><ele>679.3333333333334</ele><time>2026-04-29T09:28:02.982Z</time></trkpt><trkpt lat="38.0643611" lon="22.1575973"><ele>682.0</ele><time>2026-04-29T09:28:03.981Z</time></trkpt><trkpt lat="38.0641969" lon="22.1575428"><ele>681.0</ele><time>2026-04-29T09:28:04.981Z</time></trkpt><trkpt lat="38.064036" lon="22.1575177"><ele>680.0</ele><time>2026-04-29T09:28:05.982Z</time></trkpt><trkpt lat="38.0638765" lon="22.1575429"><ele>679.0</ele><time>2026-04-29T09:28:06.982Z</time></trkpt><trkpt lat="38.0637192" lon="22.1575919"><ele>679.0</ele><time>2026-04-29T09:28:07.982Z</time></trkpt><trkpt lat="38.0635654" lon="22.1576541"><ele>679.0</ele><time>2026-04-29T09:28:08.981Z</time></trkpt><trkpt lat="38.0634053" lon="22.1577047"><ele>679.0</ele><time>2026-04-29T09:28:09.981Z</time></trkpt><trkpt lat="38.0632349" lon="22.1577026"><ele>679.3333333333334</ele><time>2026-04-29T09:28:10.982Z</time></trkpt><trkpt lat="38.0630725" lon="22.1577101"><ele>679.6666666666666</ele><time>2026-04-29T09:28:11.981Z</time></trkpt><trkpt lat="38.0629064" lon="22.1576835"><ele>680.0</ele><time>2026-04-29T09:28:12.981Z</time></trkpt><trkpt lat="38.0627397" lon="22.1576472"><ele>680.0</ele><time>2026-04-29T09:28:13.98Z</time></trkpt><trkpt lat="38.0625723" lon="22.1576267"><ele>680.0</ele><time>2026-04-29T09:28:14.98Z</time></trkpt><trkpt lat="38.0624053" lon="22.1576181"><ele>680.0</ele><time>2026-04-29T09:28:15.981Z</time></trkpt><trkpt lat="38.0622384" lon="22.1576483"><ele>678.3333333333333</ele><time>2026-04-29T09:28:16.982Z</time></trkpt><trkpt lat="38.0620656" lon="22.1577039"><ele>676.6666666666666</ele><time>2026-04-29T09:28:17.981Z</time></trkpt><trkpt lat="38.0619012" lon="22.1577862"><ele>675.0</ele><time>2026-04-29T09:28:18.982Z</time></trkpt><trkpt lat="38.0617407" lon="22.1578715"><ele>674.3333333333334</ele><time>2026-04-29T09:28:19.982Z</time></trkpt><trkpt lat="38.0615812" lon="22.1579507"><ele>673.6666666666667</ele><time>2026-04-29T09:28:20.982Z</time></trkpt><trkpt lat="38.0614246" lon="22.1579968"><ele>673.0</ele><time>2026-04-29T09:28:21.982Z</time></trkpt><trkpt lat="38.0612584" lon="22.1580178"><ele>673.0</ele><time>2026-04-29T09:28:22.98Z</time></trkpt><trkpt lat="38.0610916" lon="22.1580174"><ele>673.0</ele><time>2026-04-29T09:28:23.981Z</time></trkpt><trkpt lat="38.0609351" lon="22.1579467"><ele>673.0</ele><time>2026-04-29T09:28:24.981Z</time></trkpt><trkpt lat="38.0607866" lon="22.1578465"><ele>678.6666666666667</ele><time>2026-04-29T09:28:25.982Z</time></trkpt><trkpt lat="38.0606517" lon="22.1577032"><ele>684.3333333333334</ele><time>2026-04-29T09:28:26.981Z</time></trkpt><trkpt lat="38.0605174" lon="22.1575418"><ele>690.0</ele><time>2026-04-29T09:28:27.982Z</time></trkpt><trkpt lat="38.060389" lon="22.1573781"><ele>686.3333333333334</ele><time>2026-04-29T09:28:28.982Z</time></trkpt><trkpt lat="38.060264" lon="22.1572048"><ele>682.6666666666667</ele><time>2026-04-29T09:28:29.98Z</time></trkpt><trkpt lat="38.0601401" lon="22.1570319"><ele>679.0</ele><time>2026-04-29T09:28:30.982Z</time></trkpt><trkpt lat="38.0600217" lon="22.1568537"><ele>679.0</ele><time>2026-04-29T09:28:31.981Z</time></trkpt><trkpt lat="38.0598962" lon="22.156682"><ele>679.0</ele><time>2026-04-29T09:28:32.981Z</time></trkpt><trkpt lat="38.0597696" lon="22.1565078"><ele>679.0</ele><time>2026-04-29T09:28:33.978Z</time></trkpt><trkpt lat="38.0596435" lon="22.1563276"><ele>679.0</ele><time>2026-04-29T09:28:34.982Z</time></trkpt><trkpt lat="38.0595136" lon="22.1561482"><ele>679.0</ele><time>2026-04-29T09:28:35.98Z</time></trkpt><trkpt lat="38.0593797" lon="22.1559698"><ele>679.0</ele><time>2026-04-29T09:28:36.978Z</time></trkpt><trkpt lat="38.0592541" lon="22.1557935"><ele>679.3333333333334</ele><time>2026-04-29T09:28:37.98Z</time></trkpt><trkpt lat="38.0591302" lon="22.1556256"><ele>679.6666666666666</ele><time>2026-04-29T09:28:38.98Z</time></trkpt><trkpt lat="38.059009" lon="22.155455"><ele>680.0</ele><time>2026-04-29T09:28:39.982Z</time></trkpt><trkpt lat="38.0588934" lon="22.1552885"><ele>681.6666666666666</ele><time>2026-04-29T09:28:40.981Z</time></trkpt><trkpt lat="38.058769" lon="22.1551203"><ele>683.3333333333334</ele><time>2026-04-29T09:28:41.982Z</time></trkpt><trkpt lat="38.0586528" lon="22.1549519"><ele>685.0</ele><time>2026-04-29T09:28:42.98Z</time></trkpt><trkpt lat="38.0585311" lon="22.1547881"><ele>685.0</ele><time>2026-04-29T09:28:43.982Z</time></trkpt><trkpt lat="38.05841" lon="22.1546325"><ele>685.0</ele><time>2026-04-29T09:28:44.981Z</time></trkpt><trkpt lat="38.058283" lon="22.154479"><ele>685.0</ele><time>2026-04-29T09:28:45.981Z</time></trkpt><trkpt lat="38.0581492" lon="22.154331"><ele>684.6666666666667</ele><time>2026-04-29T09:28:46.981Z</time></trkpt><trkpt lat="38.0580185" lon="22.1541906"><ele>684.3333333333334</ele><time>2026-04-29T09:28:47.981Z</time></trkpt><trkpt lat="38.0578814" lon="22.1540552"><ele>684.0</ele><time>2026-04-29T09:28:48.979Z</time></trkpt><trkpt lat="38.0577503" lon="22.1539224"><ele>684.0</ele><time>2026-04-29T09:28:49.982Z</time></trkpt><trkpt lat="38.0576107" lon="22.1537852"><ele>684.0</ele><time>2026-04-29T09:28:50.982Z</time></trkpt><trkpt lat="38.0574725" lon="22.1536441"><ele>684.0</ele><time>2026-04-29T09:28:51.982Z</time></trkpt><trkpt lat="38.0573286" lon="22.1534987"><ele>682.6666666666666</ele><time>2026-04-29T09:28:52.982Z</time></trkpt><trkpt lat="38.0571838" lon="22.153369"><ele>681.3333333333333</ele><time>2026-04-29T09:28:53.979Z</time></trkpt><trkpt lat="38.0570473" lon="22.1532267"><ele>680.0</ele><time>2026-04-29T09:28:54.981Z</time></trkpt><trkpt lat="38.0569162" lon="22.1530756"><ele>680.0</ele><time>2026-04-29T09:28:55.981Z</time></trkpt><trkpt lat="38.0567758" lon="22.1529307"><ele>680.0</ele><time>2026-04-29T09:28:56.981Z</time></trkpt><trkpt lat="38.0566305" lon="22.1527894"><ele>680.0</ele><time>2026-04-29T09:28:57.98Z</time></trkpt><trkpt lat="38.0564866" lon="22.1526489"><ele>682.0</ele><time>2026-04-29T09:28:58.98Z</time></trkpt><trkpt lat="38.0563407" lon="22.1525149"><ele>684.0</ele><time>2026-04-29T09:28:59.979Z</time></trkpt><trkpt lat="38.0562028" lon="22.1523796"><ele>686.0</ele><time>2026-04-29T09:29:00.981Z</time></trkpt><trkpt lat="38.0560661" lon="22.1522425"><ele>686.0</ele><time>2026-04-29T09:29:01.979Z</time></trkpt><trkpt lat="38.0559336" lon="22.1521074"><ele>686.0</ele><time>2026-04-29T09:29:02.981Z</time></trkpt><trkpt lat="38.0557921" lon="22.151961"><ele>686.0</ele><time>2026-04-29T09:29:03.982Z</time></trkpt><trkpt lat="38.0556675" lon="22.1518076"><ele>691.0</ele><time>2026-04-29T09:29:04.98Z</time></trkpt><trkpt lat="38.0555591" lon="22.151649"><ele>696.0</ele><time>2026-04-29T09:29:05.981Z</time></trkpt><trkpt lat="38.0554585" lon="22.1514769"><ele>701.0</ele><time>2026-04-29T09:29:06.981Z</time></trkpt><trkpt lat="38.0553568" lon="22.151299"><ele>701.0</ele><time>2026-04-29T09:29:07.981Z</time></trkpt><trkpt lat="38.0552552" lon="22.1511233"><ele>701.0</ele><time>2026-04-29T09:29:08.982Z</time></trkpt><trkpt lat="38.0551564" lon="22.1509446"><ele>701.0</ele><time>2026-04-29T09:29:09.982Z</time></trkpt><trkpt lat="38.0550681" lon="22.1507727"><ele>700.0</ele><time>2026-04-29T09:29:10.981Z</time></trkpt><trkpt lat="38.0549818" lon="22.1506057"><ele>699.0</ele><time>2026-04-29T09:29:11.982Z</time></trkpt><trkpt lat="38.0548859" lon="22.1504421"><ele>698.0</ele><time>2026-04-29T09:29:12.981Z</time></trkpt><trkpt lat="38.0547919" lon="22.1502766"><ele>701.3333333333333</ele><time>2026-04-29T09:29:13.979Z</time></trkpt><trkpt lat="38.0547054" lon="22.1500992"><ele>704.6666666666666</ele><time>2026-04-29T09:29:14.978Z</time></trkpt><trkpt lat="38.0546167" lon="22.1499269"><ele>708.0</ele><time>2026-04-29T09:29:15.98Z</time></trkpt><trkpt lat="38.0545155" lon="22.1497609"><ele>708.0</ele><time>2026-04-29T09:29:16.982Z</time></trkpt><trkpt lat="38.0544142" lon="22.1495922"><ele>708.0</ele><time>2026-04-29T09:29:17.98Z</time></trkpt><trkpt lat="38.054308" lon="22.149426"><ele>708.0</ele><time>2026-04-29T09:29:18.98Z</time></trkpt><trkpt lat="38.0542002" lon="22.1492631"><ele>708.0</ele><time>2026-04-29T09:29:19.98Z</time></trkpt><trkpt lat="38.0540929" lon="22.1491066"><ele>708.0</ele><time>2026-04-29T09:29:20.981Z</time></trkpt><trkpt lat="38.0539905" lon="22.1489476"><ele>708.0</ele><time>2026-04-29T09:29:21.981Z</time></trkpt><trkpt lat="38.0538838" lon="22.1488039"><ele>708.0</ele><time>2026-04-29T09:29:22.982Z</time></trkpt><trkpt lat="38.053778" lon="22.1486595"><ele>708.0</ele><time>2026-04-29T09:29:23.982Z</time></trkpt><trkpt lat="38.0536643" lon="22.1485384"><ele>708.0</ele><time>2026-04-29T09:29:24.982Z</time></trkpt><trkpt lat="38.0535285" lon="22.148446"><ele>708.0</ele><time>2026-04-29T09:29:25.98Z</time></trkpt><trkpt lat="38.0533822" lon="22.1483728"><ele>708.0</ele><time>2026-04-29T09:29:26.98Z</time></trkpt><trkpt lat="38.0532224" lon="22.1483141"><ele>708.0</ele><time>2026-04-29T09:29:27.981Z</time></trkpt><trkpt lat="38.0530588" lon="22.1482603"><ele>705.6666666666666</ele><time>2026-04-29T09:29:28.976Z</time></trkpt><trkpt lat="38.0528974" lon="22.1482056"><ele>703.3333333333333</ele><time>2026-04-29T09:29:29.982Z</time></trkpt><trkpt lat="38.0527293" lon="22.1481396"><ele>701.0</ele><time>2026-04-29T09:29:30.981Z</time></trkpt><trkpt lat="38.0525762" lon="22.1480465"><ele>707.6666666666666</ele><time>2026-04-29T09:29:31.981Z</time></trkpt><trkpt lat="38.0524414" lon="22.1479185"><ele>714.3333333333334</ele><time>2026-04-29T09:29:32.98Z</time></trkpt><trkpt lat="38.0523089" lon="22.1477748"><ele>721.0</ele><time>2026-04-29T09:29:33.981Z</time></trkpt><trkpt lat="38.0521751" lon="22.147602"><ele>721.0</ele><time>2026-04-29T09:29:34.981Z</time></trkpt><trkpt lat="38.0520648" lon="22.1474054"><ele>721.0</ele><time>2026-04-29T09:29:35.98Z</time></trkpt><trkpt lat="38.0519636" lon="22.147222"><ele>721.0</ele><time>2026-04-29T09:29:36.981Z</time></trkpt><trkpt lat="38.0518621" lon="22.1470355"><ele>717.3333333333334</ele><time>2026-04-29T09:29:37.981Z</time></trkpt><trkpt lat="38.051764" lon="22.1468636"><ele>713.6666666666666</ele><time>2026-04-29T09:29:38.981Z</time></trkpt><trkpt lat="38.0516807" lon="22.1466994"><ele>710.0</ele><time>2026-04-29T09:29:39.981Z</time></trkpt><trkpt lat="38.0516033" lon="22.1465286"><ele>710.0</ele><time>2026-04-29T09:29:40.981Z</time></trkpt><trkpt lat="38.051576" lon="22.1463521"><ele>710.0</ele><time>2026-04-29T09:29:41.982Z</time></trkpt><trkpt lat="38.0515871" lon="22.1461841"><ele>710.0</ele><time>2026-04-29T09:29:42.981Z</time></trkpt><trkpt lat="38.0516506" lon="22.1460166"><ele>710.0</ele><time>2026-04-29T09:29:43.98Z</time></trkpt><trkpt lat="38.0517444" lon="22.1458589"><ele>708.6666666666666</ele><time>2026-04-29T09:29:44.981Z</time></trkpt><trkpt lat="38.0518658" lon="22.1457324"><ele>707.3333333333334</ele><time>2026-04-29T09:29:45.982Z</time></trkpt><trkpt lat="38.0519995" lon="22.1456145"><ele>706.0</ele><time>2026-04-29T09:29:46.982Z</time></trkpt><trkpt lat="38.0521176" lon="22.1454961"><ele>706.0</ele><time>2026-04-29T09:29:47.981Z</time></trkpt><trkpt lat="38.0522251" lon="22.1453564"><ele>706.0</ele><time>2026-04-29T09:29:48.98Z</time></trkpt><trkpt lat="38.0523082" lon="22.1451993"><ele>706.0</ele><time>2026-04-29T09:29:49.98Z</time></trkpt><trkpt lat="38.0523659" lon="22.1450168"><ele>706.6666666666667</ele><time>2026-04-29T09:29:50.978Z</time></trkpt><trkpt lat="38.0523978" lon="22.1448145"><ele>707.3333333333334</ele><time>2026-04-29T09:29:51.979Z</time></trkpt><trkpt lat="38.0523969" lon="22.1446142"><ele>708.0</ele><time>2026-04-29T09:29:52.981Z</time></trkpt><trkpt lat="38.0523661" lon="22.1444139"><ele>708.0</ele><time>2026-04-29T09:29:53.982Z</time></trkpt><trkpt lat="38.0523058" lon="22.1442172"><ele>708.0</ele><time>2026-04-29T09:29:54.98Z</time></trkpt><trkpt lat="38.0522179" lon="22.1440167"><ele>708.0</ele><time>2026-04-29T09:29:55.981Z</time></trkpt><trkpt lat="38.0521327" lon="22.1438136"><ele>706.0</ele><time>2026-04-29T09:29:56.981Z</time></trkpt><trkpt lat="38.052047" lon="22.143611"><ele>704.0</ele><time>2026-04-29T09:29:57.981Z</time></trkpt><trkpt lat="38.0519644" lon="22.1434058"><ele>702.0</ele><time>2026-04-29T09:29:58.982Z</time></trkpt><trkpt lat="38.0519074" lon="22.1431894"><ele>702.0</ele><time>2026-04-29T09:29:59.981Z</time></trkpt><trkpt lat="38.0518679" lon="22.1429682"><ele>702.0</ele><time>2026-04-29T09:30:00.981Z</time></trkpt><trkpt lat="38.0518516" lon="22.1427473"><ele>702.0</ele><time>2026-04-29T09:30:01.982Z</time></trkpt><trkpt lat="38.0518539" lon="22.1425224"><ele>708.0</ele><time>2026-04-29T09:30:02.981Z</time></trkpt><trkpt lat="38.0518704" lon="22.1423007"><ele>714.0</ele><time>2026-04-29T09:30:03.982Z</time></trkpt><trkpt lat="38.0519067" lon="22.1420797"><ele>720.0</ele><time>2026-04-29T09:30:04.981Z</time></trkpt><trkpt lat="38.0519615" lon="22.1418534"><ele>720.0</ele><time>2026-04-29T09:30:05.981Z</time></trkpt><trkpt lat="38.0520334" lon="22.1416381"><ele>720.0</ele><time>2026-04-29T09:30:06.981Z</time></trkpt><trkpt lat="38.0521021" lon="22.1414194"><ele>720.0</ele><time>2026-04-29T09:30:07.982Z</time></trkpt><trkpt lat="38.0521762" lon="22.1412018"><ele>726.0</ele><time>2026-04-29T09:30:08.982Z</time></trkpt><trkpt lat="38.0522505" lon="22.1409739"><ele>732.0</ele><time>2026-04-29T09:30:09.98Z</time></trkpt><trkpt lat="38.0523115" lon="22.1407403"><ele>738.0</ele><time>2026-04-29T09:30:10.982Z</time></trkpt><trkpt lat="38.0523712" lon="22.1405089"><ele>741.0</ele><time>2026-04-29T09:30:11.981Z</time></trkpt><trkpt lat="38.0524207" lon="22.1402889"><ele>744.0</ele><time>2026-04-29T09:30:12.982Z</time></trkpt><trkpt lat="38.0524571" lon="22.1400744"><ele>747.0</ele><time>2026-04-29T09:30:13.982Z</time></trkpt><trkpt lat="38.0524849" lon="22.1398599"><ele>731.3333333333334</ele><time>2026-04-29T09:30:14.98Z</time></trkpt><trkpt lat="38.0524989" lon="22.1396535"><ele>715.6666666666667</ele><time>2026-04-29T09:30:15.982Z</time></trkpt><trkpt lat="38.0524937" lon="22.1394562"><ele>700.0</ele><time>2026-04-29T09:30:16.981Z</time></trkpt><trkpt lat="38.0524602" lon="22.1392605"><ele>705.3333333333334</ele><time>2026-04-29T09:30:17.981Z</time></trkpt><trkpt lat="38.0524015" lon="22.1390549"><ele>710.6666666666666</ele><time>2026-04-29T09:30:18.981Z</time></trkpt><trkpt lat="38.0523127" lon="22.1388615"><ele>716.0</ele><time>2026-04-29T09:30:19.982Z</time></trkpt><trkpt lat="38.0521931" lon="22.1386835"><ele>716.0</ele><time>2026-04-29T09:30:20.981Z</time></trkpt><trkpt lat="38.0520542" lon="22.1385266"><ele>716.0</ele><time>2026-04-29T09:30:21.981Z</time></trkpt><trkpt lat="38.0519291" lon="22.1383555"><ele>716.0</ele><time>2026-04-29T09:30:22.982Z</time></trkpt><trkpt lat="38.0518251" lon="22.1381564"><ele>720.3333333333333</ele><time>2026-04-29T09:30:23.982Z</time></trkpt><trkpt lat="38.051732" lon="22.1379604"><ele>724.6666666666666</ele><time>2026-04-29T09:30:24.981Z</time></trkpt><trkpt lat="38.0516559" lon="22.1377706"><ele>729.0</ele><time>2026-04-29T09:30:25.982Z</time></trkpt><trkpt lat="38.0515732" lon="22.1375972"><ele>729.0</ele><time>2026-04-29T09:30:26.982Z</time></trkpt><trkpt lat="38.0514782" lon="22.1374487"><ele>729.0</ele><time>2026-04-29T09:30:27.982Z</time></trkpt><trkpt lat="38.0513294" lon="22.1373142"><ele>729.0</ele><time>2026-04-29T09:30:28.98Z</time></trkpt><trkpt lat="38.0511526" lon="22.1372026"><ele>730.6666666666666</ele><time>2026-04-29T09:30:29.982Z</time></trkpt><trkpt lat="38.0509711" lon="22.1371078"><ele>732.3333333333333</ele><time>2026-04-29T09:30:30.978Z</time></trkpt><trkpt lat="38.0508037" lon="22.1369981"><ele>734.0</ele><time>2026-04-29T09:30:31.981Z</time></trkpt><trkpt lat="38.0506494" lon="22.1368618"><ele>734.0</ele><time>2026-04-29T09:30:32.981Z</time></trkpt><trkpt lat="38.0504961" lon="22.1366924"><ele>734.0</ele><time>2026-04-29T09:30:33.981Z</time></trkpt><trkpt lat="38.0503814" lon="22.1364956"><ele>734.0</ele><time>2026-04-29T09:30:34.982Z</time></trkpt><trkpt lat="38.0502585" lon="22.1362955"><ele>740.6666666666666</ele><time>2026-04-29T09:30:35.982Z</time></trkpt><trkpt lat="38.0501505" lon="22.1360954"><ele>747.3333333333334</ele><time>2026-04-29T09:30:36.982Z</time></trkpt><trkpt lat="38.0500502" lon="22.1359041"><ele>754.0</ele><time>2026-04-29T09:30:37.981Z</time></trkpt><trkpt lat="38.0499555" lon="22.1357139"><ele>754.0</ele><time>2026-04-29T09:30:38.98Z</time></trkpt><trkpt lat="38.0498694" lon="22.1355164"><ele>754.0</ele><time>2026-04-29T09:30:39.982Z</time></trkpt><trkpt lat="38.0497873" lon="22.1353101"><ele>754.0</ele><time>2026-04-29T09:30:40.981Z</time></trkpt><trkpt lat="38.0497312" lon="22.1350969"><ele>746.0</ele><time>2026-04-29T09:30:41.981Z</time></trkpt><trkpt lat="38.0496856" lon="22.1348823"><ele>738.0</ele><time>2026-04-29T09:30:42.982Z</time></trkpt><trkpt lat="38.0496391" lon="22.1346801"><ele>730.0</ele><time>2026-04-29T09:30:43.981Z</time></trkpt><trkpt lat="38.049602" lon="22.1344948"><ele>730.0</ele><time>2026-04-29T09:30:44.981Z</time></trkpt><trkpt lat="38.0495684" lon="22.1343163"><ele>730.0</ele><time>2026-04-29T09:30:45.982Z</time></trkpt><trkpt lat="38.0495392" lon="22.1341505"><ele>730.0</ele><time>2026-04-29T09:30:46.981Z</time></trkpt><trkpt lat="38.0495029" lon="22.1339976"><ele>730.0</ele><time>2026-04-29T09:30:47.982Z</time></trkpt><trkpt lat="38.0494631" lon="22.1338551"><ele>723.5</ele><time>2026-04-29T09:30:48.982Z</time></trkpt><trkpt lat="38.0494085" lon="22.1337223"><ele>717.0</ele><time>2026-04-29T09:30:49.981Z</time></trkpt><trkpt lat="38.0493312" lon="22.1335901"><ele>710.5</ele><time>2026-04-29T09:30:50.981Z</time></trkpt><trkpt lat="38.049253" lon="22.1334652"><ele>704.0</ele><time>2026-04-29T09:30:51.981Z</time></trkpt><trkpt lat="38.0491652" lon="22.1333447"><ele>706.5</ele><time>2026-04-29T09:30:52.98Z</time></trkpt><trkpt lat="38.049072" lon="22.1332187"><ele>709.0</ele><time>2026-04-29T09:30:53.982Z</time></trkpt><trkpt lat="38.048963" lon="22.1330942"><ele>711.5</ele><time>2026-04-29T09:30:54.982Z</time></trkpt><trkpt lat="38.0488513" lon="22.1329569"><ele>714.0</ele><time>2026-04-29T09:30:55.981Z</time></trkpt><trkpt lat="38.0487235" lon="22.1328186"><ele>714.0</ele><time>2026-04-29T09:30:56.981Z</time></trkpt><trkpt lat="38.0486094" lon="22.1326735"><ele>714.0</ele><time>2026-04-29T09:30:57.981Z</time></trkpt><trkpt lat="38.0484953" lon="22.1325187"><ele>714.0</ele><time>2026-04-29T09:30:58.98Z</time></trkpt><trkpt lat="38.0483873" lon="22.1323478"><ele>720.3333333333334</ele><time>2026-04-29T09:30:59.981Z</time></trkpt><trkpt lat="38.0482921" lon="22.1321729"><ele>726.6666666666667</ele><time>2026-04-29T09:31:00.982Z</time></trkpt><trkpt lat="38.0481983" lon="22.1319904"><ele>733.0</ele><time>2026-04-29T09:31:01.982Z</time></trkpt><trkpt lat="38.0481127" lon="22.1318056"><ele>733.0</ele><time>2026-04-29T09:31:02.98Z</time></trkpt><trkpt lat="38.0480284" lon="22.1316227"><ele>733.0</ele><time>2026-04-29T09:31:03.982Z</time></trkpt><trkpt lat="38.0479444" lon="22.13144"><ele>733.0</ele><time>2026-04-29T09:31:04.982Z</time></trkpt><trkpt lat="38.0478541" lon="22.1312668"><ele>723.6666666666667</ele><time>2026-04-29T09:31:05.981Z</time></trkpt><trkpt lat="38.0477404" lon="22.1311172"><ele>714.3333333333334</ele><time>2026-04-29T09:31:06.981Z</time></trkpt><trkpt lat="38.0476196" lon="22.1309919"><ele>705.0</ele><time>2026-04-29T09:31:07.982Z</time></trkpt><trkpt lat="38.0474852" lon="22.1309049"><ele>708.3333333333334</ele><time>2026-04-29T09:31:08.981Z</time></trkpt><trkpt lat="38.0473388" lon="22.1308362"><ele>711.6666666666667</ele><time>2026-04-29T09:31:09.979Z</time></trkpt><trkpt lat="38.0471896" lon="22.1307815"><ele>715.0</ele><time>2026-04-29T09:31:10.979Z</time></trkpt><trkpt lat="38.0470266" lon="22.130741"><ele>710.0</ele><time>2026-04-29T09:31:11.982Z</time></trkpt><trkpt lat="38.0468623" lon="22.1307112"><ele>705.0</ele><time>2026-04-29T09:31:12.982Z</time></trkpt><trkpt lat="38.0467069" lon="22.1306846"><ele>700.0</ele><time>2026-04-29T09:31:13.982Z</time></trkpt><trkpt lat="38.0465367" lon="22.1306638"><ele>699.6666666666667</ele><time>2026-04-29T09:31:14.981Z</time></trkpt><trkpt lat="38.0463688" lon="22.1306362"><ele>699.3333333333334</ele><time>2026-04-29T09:31:15.982Z</time></trkpt><trkpt lat="38.0462086" lon="22.1306032"><ele>699.0</ele><time>2026-04-29T09:31:16.981Z</time></trkpt><trkpt lat="38.0460413" lon="22.1305536"><ele>699.0</ele><time>2026-04-29T09:31:17.981Z</time></trkpt><trkpt lat="38.0458812" lon="22.130494"><ele>699.0</ele><time>2026-04-29T09:31:18.98Z</time></trkpt><trkpt lat="38.045724" lon="22.1304086"><ele>699.0</ele><time>2026-04-29T09:31:19.981Z</time></trkpt><trkpt lat="38.0455806" lon="22.1302932"><ele>700.0</ele><time>2026-04-29T09:31:20.981Z</time></trkpt><trkpt lat="38.045443" lon="22.1301422"><ele>701.0</ele><time>2026-04-29T09:31:21.982Z</time></trkpt><trkpt lat="38.0453167" lon="22.1299584"><ele>702.0</ele><time>2026-04-29T09:31:22.981Z</time></trkpt><trkpt lat="38.0451815" lon="22.1297752"><ele>702.0</ele><time>2026-04-29T09:31:23.981Z</time></trkpt><trkpt lat="38.0450515" lon="22.1295814"><ele>702.0</ele><time>2026-04-29T09:31:24.982Z</time></trkpt><trkpt lat="38.0449256" lon="22.1293831"><ele>702.0</ele><time>2026-04-29T09:31:25.982Z</time></trkpt><trkpt lat="38.044803" lon="22.129184"><ele>702.6666666666666</ele><time>2026-04-29T09:31:26.981Z</time></trkpt><trkpt lat="38.0446762" lon="22.1289917"><ele>703.3333333333333</ele><time>2026-04-29T09:31:27.982Z</time></trkpt><trkpt lat="38.0445553" lon="22.1288025"><ele>704.0</ele><time>2026-04-29T09:31:28.981Z</time></trkpt><trkpt lat="38.0444296" lon="22.1286135"><ele>704.0</ele><time>2026-04-29T09:31:29.981Z</time></trkpt><trkpt lat="38.0443079" lon="22.1284302"><ele>704.0</ele><time>2026-04-29T09:31:30.98Z</time></trkpt><trkpt lat="38.0441907" lon="22.1282466"><ele>704.0</ele><time>2026-04-29T09:31:31.981Z</time></trkpt><trkpt lat="38.0440755" lon="22.1280743"><ele>703.3333333333333</ele><time>2026-04-29T09:31:32.981Z</time></trkpt><trkpt lat="38.0439706" lon="22.1279118"><ele>702.6666666666666</ele><time>2026-04-29T09:31:33.981Z</time></trkpt><trkpt lat="38.0438571" lon="22.127769"><ele>702.0</ele><time>2026-04-29T09:31:34.979Z</time></trkpt><trkpt lat="38.0437313" lon="22.1276502"><ele>702.0</ele><time>2026-04-29T09:31:35.977Z</time></trkpt><trkpt lat="38.0435919" lon="22.1275542"><ele>702.0</ele><time>2026-04-29T09:31:36.982Z</time></trkpt><trkpt lat="38.0434373" lon="22.1274816"><ele>702.0</ele><time>2026-04-29T09:31:37.982Z</time></trkpt><trkpt lat="38.04327" lon="22.1274408"><ele>700.6666666666666</ele><time>2026-04-29T09:31:38.981Z</time></trkpt><trkpt lat="38.0430999" lon="22.1274281"><ele>699.3333333333333</ele><time>2026-04-29T09:31:39.981Z</time></trkpt><trkpt lat="38.0429186" lon="22.1274151"><ele>698.0</ele><time>2026-04-29T09:31:40.98Z</time></trkpt><trkpt lat="38.0427484" lon="22.1273824"><ele>698.0</ele><time>2026-04-29T09:31:41.982Z</time></trkpt><trkpt lat="38.0425853" lon="22.127321"><ele>698.0</ele><time>2026-04-29T09:31:42.982Z</time></trkpt><trkpt lat="38.042421" lon="22.127187"><ele>698.0</ele><time>2026-04-29T09:31:43.982Z</time></trkpt><trkpt lat="38.0422748" lon="22.1270151"><ele>699.0</ele><time>2026-04-29T09:31:44.982Z</time></trkpt><trkpt lat="38.0421312" lon="22.1267991"><ele>700.0</ele><time>2026-04-29T09:31:45.982Z</time></trkpt><trkpt lat="38.0420049" lon="22.1265632"><ele>701.0</ele><time>2026-04-29T09:31:46.982Z</time></trkpt><trkpt lat="38.0418801" lon="22.1263302"><ele>701.0</ele><time>2026-04-29T09:31:47.982Z</time></trkpt><trkpt lat="38.0417546" lon="22.1261007"><ele>701.0</ele><time>2026-04-29T09:31:48.979Z</time></trkpt><trkpt lat="38.0416366" lon="22.1258746"><ele>701.0</ele><time>2026-04-29T09:31:49.981Z</time></trkpt><trkpt lat="38.0415058" lon="22.1256501"><ele>703.0</ele><time>2026-04-29T09:31:50.982Z</time></trkpt><trkpt lat="38.041384" lon="22.1254327"><ele>705.0</ele><time>2026-04-29T09:31:51.98Z</time></trkpt><trkpt lat="38.0412735" lon="22.1252264"><ele>707.0</ele><time>2026-04-29T09:31:52.981Z</time></trkpt><trkpt lat="38.0411695" lon="22.12502"><ele>706.3333333333333</ele><time>2026-04-29T09:31:53.981Z</time></trkpt><trkpt lat="38.041073" lon="22.1248191"><ele>705.6666666666666</ele><time>2026-04-29T09:31:54.982Z</time></trkpt><trkpt lat="38.0409922" lon="22.1246118"><ele>705.0</ele><time>2026-04-29T09:31:55.981Z</time></trkpt><trkpt lat="38.0409277" lon="22.1243949"><ele>705.0</ele><time>2026-04-29T09:31:56.981Z</time></trkpt><trkpt lat="38.0408872" lon="22.1241614"><ele>705.0</ele><time>2026-04-29T09:31:57.981Z</time></trkpt><trkpt lat="38.0408583" lon="22.1239235"><ele>705.0</ele><time>2026-04-29T09:31:58.982Z</time></trkpt><trkpt lat="38.0408266" lon="22.1236735"><ele>716.0</ele><time>2026-04-29T09:31:59.981Z</time></trkpt><trkpt lat="38.0407846" lon="22.1234201"><ele>727.0</ele><time>2026-04-29T09:32:00.981Z</time></trkpt><trkpt lat="38.040746" lon="22.1231534"><ele>738.0</ele><time>2026-04-29T09:32:01.982Z</time></trkpt><trkpt lat="38.0407156" lon="22.1228806"><ele>739.6666666666666</ele><time>2026-04-29T09:32:02.981Z</time></trkpt><trkpt lat="38.0406812" lon="22.1226173"><ele>741.3333333333333</ele><time>2026-04-29T09:32:03.981Z</time></trkpt><trkpt lat="38.0406581" lon="22.1223598"><ele>743.0</ele><time>2026-04-29T09:32:04.981Z</time></trkpt><trkpt lat="38.0406492" lon="22.1221144"><ele>744.3333333333333</ele><time>2026-04-29T09:32:05.982Z</time></trkpt><trkpt lat="38.0406487" lon="22.121864"><ele>745.6666666666666</ele><time>2026-04-29T09:32:06.982Z</time></trkpt><trkpt lat="38.0406604" lon="22.1216271"><ele>747.0</ele><time>2026-04-29T09:32:07.981Z</time></trkpt><trkpt lat="38.0406802" lon="22.1213903"><ele>747.0</ele><time>2026-04-29T09:32:08.98Z</time></trkpt><trkpt lat="38.0406993" lon="22.1211587"><ele>747.0</ele><time>2026-04-29T09:32:09.981Z</time></trkpt><trkpt lat="38.0407226" lon="22.1209371"><ele>747.0</ele><time>2026-04-29T09:32:10.981Z</time></trkpt><trkpt lat="38.0407518" lon="22.1207317"><ele>744.0</ele><time>2026-04-29T09:32:11.981Z</time></trkpt><trkpt lat="38.0407893" lon="22.120531"><ele>741.0</ele><time>2026-04-29T09:32:12.98Z</time></trkpt><trkpt lat="38.0408454" lon="22.1203356"><ele>738.0</ele><time>2026-04-29T09:32:13.981Z</time></trkpt><trkpt lat="38.0409009" lon="22.1201445"><ele>729.3333333333334</ele><time>2026-04-29T09:32:14.981Z</time></trkpt><trkpt lat="38.0409522" lon="22.1199453"><ele>720.6666666666667</ele><time>2026-04-29T09:32:15.981Z</time></trkpt><trkpt lat="38.0409892" lon="22.1197375"><ele>712.0</ele><time>2026-04-29T09:32:16.981Z</time></trkpt><trkpt lat="38.0409911" lon="22.1195159"><ele>712.0</ele><time>2026-04-29T09:32:17.981Z</time></trkpt><trkpt lat="38.0409638" lon="22.1193002"><ele>712.0</ele><time>2026-04-29T09:32:18.981Z</time></trkpt><trkpt lat="38.040922" lon="22.1190876"><ele>712.0</ele><time>2026-04-29T09:32:19.979Z</time></trkpt><trkpt lat="38.0408578" lon="22.1188621"><ele>715.0</ele><time>2026-04-29T09:32:20.98Z</time></trkpt><trkpt lat="38.0407841" lon="22.1186321"><ele>718.0</ele><time>2026-04-29T09:32:21.982Z</time></trkpt><trkpt lat="38.0407018" lon="22.1184053"><ele>721.0</ele><time>2026-04-29T09:32:22.979Z</time></trkpt><trkpt lat="38.0405959" lon="22.1181827"><ele>721.0</ele><time>2026-04-29T09:32:23.979Z</time></trkpt><trkpt lat="38.0404807" lon="22.117962"><ele>721.0</ele><time>2026-04-29T09:32:24.982Z</time></trkpt><trkpt lat="38.0403647" lon="22.1177438"><ele>721.0</ele><time>2026-04-29T09:32:25.982Z</time></trkpt><trkpt lat="38.0402497" lon="22.1175328"><ele>716.0</ele><time>2026-04-29T09:32:26.982Z</time></trkpt><trkpt lat="38.0401572" lon="22.1173235"><ele>711.0</ele><time>2026-04-29T09:32:27.981Z</time></trkpt><trkpt lat="38.0400662" lon="22.1171205"><ele>706.0</ele><time>2026-04-29T09:32:28.98Z</time></trkpt><trkpt lat="38.0399738" lon="22.1169283"><ele>705.3333333333334</ele><time>2026-04-29T09:32:29.981Z</time></trkpt><trkpt lat="38.0398766" lon="22.1167634"><ele>704.6666666666666</ele><time>2026-04-29T09:32:30.979Z</time></trkpt><trkpt lat="38.0397545" lon="22.1166295"><ele>704.0</ele><time>2026-04-29T09:32:31.982Z</time></trkpt><trkpt lat="38.0396196" lon="22.1165209"><ele>704.0</ele><time>2026-04-29T09:32:32.98Z</time></trkpt><trkpt lat="38.0394672" lon="22.1164414"><ele>704.0</ele><time>2026-04-29T09:32:33.979Z</time></trkpt><trkpt lat="38.0393091" lon="22.1163729"><ele>704.0</ele><time>2026-04-29T09:32:34.982Z</time></trkpt><trkpt lat="38.0391504" lon="22.1163198"><ele>705.0</ele><time>2026-04-29T09:32:35.978Z</time></trkpt><trkpt lat="38.0389903" lon="22.1162696"><ele>706.0</ele><time>2026-04-29T09:32:36.982Z</time></trkpt><trkpt lat="38.0388358" lon="22.1161969"><ele>707.0</ele><time>2026-04-29T09:32:37.981Z</time></trkpt><trkpt lat="38.038696" lon="22.1160996"><ele>707.0</ele><time>2026-04-29T09:32:38.982Z</time></trkpt><trkpt lat="38.0385664" lon="22.1159732"><ele>707.0</ele><time>2026-04-29T09:32:39.978Z</time></trkpt><trkpt lat="38.0384431" lon="22.1158374"><ele>707.0</ele><time>2026-04-29T09:32:40.982Z</time></trkpt><trkpt lat="38.0383374" lon="22.1156897"><ele>709.3333333333333</ele><time>2026-04-29T09:32:41.982Z</time></trkpt><trkpt lat="38.038222" lon="22.1155521"><ele>711.6666666666666</ele><time>2026-04-29T09:32:42.981Z</time></trkpt><trkpt lat="38.0381109" lon="22.115414"><ele>714.0</ele><time>2026-04-29T09:32:43.98Z</time></trkpt><trkpt lat="38.0379933" lon="22.1152802"><ele>714.0</ele><time>2026-04-29T09:32:44.982Z</time></trkpt><trkpt lat="38.0378718" lon="22.1151539"><ele>714.0</ele><time>2026-04-29T09:32:45.981Z</time></trkpt><trkpt lat="38.0377581" lon="22.1150211"><ele>714.0</ele><time>2026-04-29T09:32:46.982Z</time></trkpt><trkpt lat="38.0376443" lon="22.1148926"><ele>715.0</ele><time>2026-04-29T09:32:47.981Z</time></trkpt><trkpt lat="38.037527" lon="22.1147655"><ele>716.0</ele><time>2026-04-29T09:32:48.98Z</time></trkpt><trkpt lat="38.0374064" lon="22.1146382"><ele>717.0</ele><time>2026-04-29T09:32:49.981Z</time></trkpt><trkpt lat="38.0372932" lon="22.1145151"><ele>717.0</ele><time>2026-04-29T09:32:50.981Z</time></trkpt><trkpt lat="38.0371707" lon="22.1144041"><ele>717.0</ele><time>2026-04-29T09:32:51.981Z</time></trkpt><trkpt lat="38.0370461" lon="22.1142808"><ele>717.0</ele><time>2026-04-29T09:32:52.981Z</time></trkpt><trkpt lat="38.0369198" lon="22.1141636"><ele>717.5</ele><time>2026-04-29T09:32:53.981Z</time></trkpt><trkpt lat="38.0368068" lon="22.1140605"><ele>718.0</ele><time>2026-04-29T09:32:54.981Z</time></trkpt><trkpt lat="38.0366902" lon="22.1139599"><ele>718.5</ele><time>2026-04-29T09:32:55.979Z</time></trkpt><trkpt lat="38.0365849" lon="22.1138711"><ele>719.0</ele><time>2026-04-29T09:32:56.982Z</time></trkpt><trkpt lat="38.0364749" lon="22.113772"><ele>719.0</ele><time>2026-04-29T09:32:57.982Z</time></trkpt><trkpt lat="38.0363651" lon="22.1136726"><ele>719.0</ele><time>2026-04-29T09:32:58.979Z</time></trkpt><trkpt lat="38.036256" lon="22.1135769"><ele>719.0</ele><time>2026-04-29T09:32:59.98Z</time></trkpt><trkpt lat="38.036161" lon="22.1134865"><ele>719.0</ele><time>2026-04-29T09:33:00.982Z</time></trkpt><trkpt lat="38.0360671" lon="22.1134184"><ele>719.0</ele><time>2026-04-29T09:33:01.981Z</time></trkpt><trkpt lat="38.0359858" lon="22.1133523"><ele>719.0</ele><time>2026-04-29T09:33:02.981Z</time></trkpt><trkpt lat="38.0359138" lon="22.1132821"><ele>719.0</ele><time>2026-04-29T09:33:03.981Z</time></trkpt><trkpt lat="38.0358547" lon="22.1132319"><ele>719.0</ele><time>2026-04-29T09:33:04.982Z</time></trkpt><trkpt lat="38.0357797" lon="22.1131607"><ele>719.0</ele><time>2026-04-29T09:33:06.981Z</time></trkpt><trkpt lat="38.0357482" lon="22.113091"><ele>719.0</ele><time>2026-04-29T09:33:08.982Z</time></trkpt><trkpt lat="38.035752" lon="22.1130088"><ele>718.2857142857142</ele><time>2026-04-29T09:33:11.982Z</time></trkpt><trkpt lat="38.0356846" lon="22.1129936"><ele>717.5714285714286</ele><time>2026-04-29T09:35:55.982Z</time></trkpt><trkpt lat="38.035746" lon="22.113035"><ele>716.8571428571429</ele><time>2026-04-29T09:36:04.982Z</time></trkpt><trkpt lat="38.035751" lon="22.1129423"><ele>716.1428571428571</ele><time>2026-04-29T09:36:19.977Z</time></trkpt><trkpt lat="38.0357514" lon="22.1130263"><ele>715.4285714285714</ele><time>2026-04-29T09:41:16.982Z</time></trkpt><trkpt lat="38.0357661" lon="22.1129429"><ele>714.7142857142857</ele><time>2026-04-29T09:42:07.977Z</time></trkpt><trkpt lat="38.0357706" lon="22.1130269"><ele>714.0</ele><time>2026-04-29T09:43:32.981Z</time></trkpt><trkpt lat="38.0358146" lon="22.1128801"><ele>716.3333333333334</ele><time>2026-04-29T09:45:22.965Z</time></trkpt><trkpt lat="38.0357376" lon="22.1128714"><ele>718.6666666666666</ele><time>2026-04-29T09:45:32.964Z</time></trkpt><trkpt lat="38.0356833" lon="22.1127929"><ele>721.0</ele><time>2026-04-29T09:45:34.965Z</time></trkpt><trkpt lat="38.0356241" lon="22.1127326"><ele>723.3333333333333</ele><time>2026-04-29T09:45:36.965Z</time></trkpt><trkpt lat="38.0355559" lon="22.1126735"><ele>725.6666666666666</ele><time>2026-04-29T09:45:39.965Z</time></trkpt><trkpt lat="38.0354704" lon="22.11271"><ele>728.0</ele><time>2026-04-29T09:46:06.964Z</time></trkpt><trkpt lat="38.0353885" lon="22.1126683"><ele>728.0</ele><time>2026-04-29T09:46:08.965Z</time></trkpt><trkpt lat="38.0353379" lon="22.1125855"><ele>728.0</ele><time>2026-04-29T09:46:09.965Z</time></trkpt><trkpt lat="38.0353013" lon="22.1125009"><ele>728.0</ele><time>2026-04-29T09:46:10.964Z</time></trkpt><trkpt lat="38.0352704" lon="22.1124124"><ele>728.0</ele><time>2026-04-29T09:46:11.965Z</time></trkpt><trkpt lat="38.035236" lon="22.1123207"><ele>728.0</ele><time>2026-04-29T09:46:12.964Z</time></trkpt><trkpt lat="38.0352006" lon="22.1122192"><ele>728.0</ele><time>2026-04-29T09:46:13.964Z</time></trkpt><trkpt lat="38.035159" lon="22.1121097"><ele>727.4</ele><time>2026-04-29T09:46:14.965Z</time></trkpt><trkpt lat="38.0351119" lon="22.1119994"><ele>726.8</ele><time>2026-04-29T09:46:15.964Z</time></trkpt><trkpt lat="38.0350597" lon="22.1118805"><ele>726.2</ele><time>2026-04-29T09:46:16.965Z</time></trkpt><trkpt lat="38.0350113" lon="22.1117656"><ele>725.6</ele><time>2026-04-29T09:46:17.964Z</time></trkpt><trkpt lat="38.03496" lon="22.1116566"><ele>725.0</ele><time>2026-04-29T09:46:18.964Z</time></trkpt><trkpt lat="38.0348929" lon="22.1115572"><ele>724.3333333333333</ele><time>2026-04-29T09:46:19.964Z</time></trkpt><trkpt lat="38.0348422" lon="22.1114685"><ele>723.6666666666666</ele><time>2026-04-29T09:46:20.965Z</time></trkpt><trkpt lat="38.0347948" lon="22.1113897"><ele>723.0</ele><time>2026-04-29T09:46:21.964Z</time></trkpt><trkpt lat="38.0347279" lon="22.1113075"><ele>722.3333333333334</ele><time>2026-04-29T09:46:23.965Z</time></trkpt><trkpt lat="38.0346741" lon="22.1112357"><ele>721.6666666666667</ele><time>2026-04-29T09:46:25.965Z</time></trkpt><trkpt lat="38.0346241" lon="22.1111725"><ele>721.0</ele><time>2026-04-29T09:46:27.965Z</time></trkpt><trkpt lat="38.0345644" lon="22.1111079"><ele>721.0</ele><time>2026-04-29T09:46:29.964Z</time></trkpt><trkpt lat="38.0344949" lon="22.1110692"><ele>721.0</ele><time>2026-04-29T09:46:31.965Z</time></trkpt><trkpt lat="38.0344416" lon="22.1110243"><ele>721.0</ele><time>2026-04-29T09:46:33.965Z</time></trkpt><trkpt lat="38.034487" lon="22.1111282"><ele>721.0</ele><time>2026-04-29T09:46:41.965Z</time></trkpt><trkpt lat="38.0345731" lon="22.1111937"><ele>721.0</ele><time>2026-04-29T09:46:43.964Z</time></trkpt><trkpt lat="38.0346084" lon="22.1112973"><ele>721.0</ele><time>2026-04-29T09:46:45.964Z</time></trkpt><trkpt lat="38.03458" lon="22.111389"><ele>721.0</ele><time>2026-04-29T09:46:47.965Z</time></trkpt><trkpt lat="38.0345073" lon="22.1114661"><ele>721.0</ele><time>2026-04-29T09:46:49.965Z</time></trkpt><trkpt lat="38.034412" lon="22.1115706"><ele>721.0</ele><time>2026-04-29T09:46:51.965Z</time></trkpt><trkpt lat="38.0343622" lon="22.1116313"><ele>721.0</ele><time>2026-04-29T09:46:52.964Z</time></trkpt><trkpt lat="38.0343063" lon="22.1116907"><ele>721.0</ele><time>2026-04-29T09:46:53.965Z</time></trkpt><trkpt lat="38.0342502" lon="22.1117359"><ele>721.0</ele><time>2026-04-29T09:46:54.965Z</time></trkpt><trkpt lat="38.0341536" lon="22.1118134"><ele>722.1666666666667</ele><time>2026-04-29T09:46:56.965Z</time></trkpt><trkpt lat="38.0340897" lon="22.1118574"><ele>723.3333333333334</ele><time>2026-04-29T09:46:57.965Z</time></trkpt><trkpt lat="38.0340159" lon="22.1118934"><ele>724.5</ele><time>2026-04-29T09:46:58.965Z</time></trkpt><trkpt lat="38.0339243" lon="22.1119059"><ele>725.6666666666666</ele><time>2026-04-29T09:46:59.964Z</time></trkpt><trkpt lat="38.0338436" lon="22.1119457"><ele>726.8333333333333</ele><time>2026-04-29T09:47:00.964Z</time></trkpt><trkpt lat="38.0337537" lon="22.1119766"><ele>728.0</ele><time>2026-04-29T09:47:01.964Z</time></trkpt><trkpt lat="38.0336615" lon="22.1119989"><ele>728.0</ele><time>2026-04-29T09:47:02.964Z</time></trkpt><trkpt lat="38.0335618" lon="22.1120195"><ele>728.0</ele><time>2026-04-29T09:47:03.965Z</time></trkpt><trkpt lat="38.0334659" lon="22.1120502"><ele>728.0</ele><time>2026-04-29T09:47:04.964Z</time></trkpt><trkpt lat="38.0333727" lon="22.112081"><ele>728.0</ele><time>2026-04-29T09:47:05.964Z</time></trkpt><trkpt lat="38.0332743" lon="22.1120964"><ele>728.0</ele><time>2026-04-29T09:47:06.965Z</time></trkpt><trkpt lat="38.0331825" lon="22.1121193"><ele>728.1666666666666</ele><time>2026-04-29T09:47:07.964Z</time></trkpt><trkpt lat="38.033097" lon="22.1121369"><ele>728.3333333333333</ele><time>2026-04-29T09:47:08.965Z</time></trkpt><trkpt lat="38.0330359" lon="22.1121581"><ele>728.5</ele><time>2026-04-29T09:47:09.965Z</time></trkpt><trkpt lat="38.0329618" lon="22.1122025"><ele>728.6666666666666</ele><time>2026-04-29T09:47:11.964Z</time></trkpt><trkpt lat="38.0329142" lon="22.112309"><ele>728.8333333333334</ele><time>2026-04-29T09:47:13.965Z</time></trkpt><trkpt lat="38.032904" lon="22.1123898"><ele>729.0</ele><time>2026-04-29T09:47:14.964Z</time></trkpt><trkpt lat="38.0329062" lon="22.1124842"><ele>729.6</ele><time>2026-04-29T09:47:15.965Z</time></trkpt><trkpt lat="38.0329231" lon="22.1125941"><ele>730.2</ele><time>2026-04-29T09:47:16.965Z</time></trkpt><trkpt lat="38.0329431" lon="22.112709"><ele>730.8000000000001</ele><time>2026-04-29T09:47:17.965Z</time></trkpt><trkpt lat="38.0329696" lon="22.112838"><ele>731.4000000000001</ele><time>2026-04-29T09:47:18.965Z</time></trkpt><trkpt lat="38.0329919" lon="22.1129762"><ele>732.0</ele><time>2026-04-29T09:47:19.965Z</time></trkpt><trkpt lat="38.0330159" lon="22.1131253"><ele>733.75</ele><time>2026-04-29T09:47:20.964Z</time></trkpt><trkpt lat="38.0330489" lon="22.1132859"><ele>735.5</ele><time>2026-04-29T09:47:21.965Z</time></trkpt><trkpt lat="38.033078" lon="22.113447"><ele>737.25</ele><time>2026-04-29T09:47:22.964Z</time></trkpt><trkpt lat="38.033113" lon="22.1135949"><ele>739.0</ele><time>2026-04-29T09:47:23.964Z</time></trkpt><trkpt lat="38.0331556" lon="22.1137197"><ele>739.0</ele><time>2026-04-29T09:47:24.965Z</time></trkpt><trkpt lat="38.0332161" lon="22.1138148"><ele>739.0</ele><time>2026-04-29T09:47:25.964Z</time></trkpt><trkpt lat="38.0332933" lon="22.1138791"><ele>739.0</ele><time>2026-04-29T09:47:26.965Z</time></trkpt><trkpt lat="38.0333686" lon="22.1139433"><ele>739.0</ele><time>2026-04-29T09:47:27.965Z</time></trkpt><trkpt lat="38.0334307" lon="22.1140178"><ele>739.0</ele><time>2026-04-29T09:47:28.965Z</time></trkpt><trkpt lat="38.0334522" lon="22.1141248"><ele>739.2</ele><time>2026-04-29T09:47:29.965Z</time></trkpt><trkpt lat="38.0334922" lon="22.1142047"><ele>739.4000000000001</ele><time>2026-04-29T09:47:30.965Z</time></trkpt><trkpt lat="38.0336087" lon="22.114252"><ele>739.6</ele><time>2026-04-29T09:47:32.964Z</time></trkpt><trkpt lat="38.0336715" lon="22.1142061"><ele>739.8</ele><time>2026-04-29T09:47:33.965Z</time></trkpt><trkpt lat="38.0337281" lon="22.1141267"><ele>740.0</ele><time>2026-04-29T09:47:34.964Z</time></trkpt><trkpt lat="38.0337905" lon="22.1140095"><ele>740.0</ele><time>2026-04-29T09:47:35.965Z</time></trkpt><trkpt lat="38.0338583" lon="22.1138703"><ele>740.0</ele><time>2026-04-29T09:47:36.965Z</time></trkpt><trkpt lat="38.0339337" lon="22.1137272"><ele>740.0</ele><time>2026-04-29T09:47:37.964Z</time></trkpt><trkpt lat="38.0340092" lon="22.1135976"><ele>740.0</ele><time>2026-04-29T09:47:38.964Z</time></trkpt><trkpt lat="38.0340864" lon="22.113464"><ele>739.2</ele><time>2026-04-29T09:47:39.965Z</time></trkpt><trkpt lat="38.0341396" lon="22.1133577"><ele>738.4</ele><time>2026-04-29T09:47:40.965Z</time></trkpt><trkpt lat="38.0342009" lon="22.1132732"><ele>737.5999999999999</ele><time>2026-04-29T09:47:41.965Z</time></trkpt><trkpt lat="38.0342611" lon="22.1132091"><ele>736.8</ele><time>2026-04-29T09:47:42.965Z</time></trkpt><trkpt lat="38.0343703" lon="22.1132302"><ele>736.0</ele><time>2026-04-29T09:47:44.965Z</time></trkpt><trkpt lat="38.0343511" lon="22.113391"><ele>736.8</ele><time>2026-04-29T09:47:46.964Z</time></trkpt><trkpt lat="38.0342979" lon="22.1134792"><ele>737.5999999999999</ele><time>2026-04-29T09:47:47.965Z</time></trkpt><trkpt lat="38.0342325" lon="22.1136003"><ele>738.4</ele><time>2026-04-29T09:47:48.964Z</time></trkpt><trkpt lat="38.0341842" lon="22.1137376"><ele>739.2</ele><time>2026-04-29T09:47:49.964Z</time></trkpt><trkpt lat="38.0341385" lon="22.1138578"><ele>740.0</ele><time>2026-04-29T09:47:50.965Z</time></trkpt><trkpt lat="38.0341005" lon="22.1139653"><ele>741.8</ele><time>2026-04-29T09:47:51.965Z</time></trkpt><trkpt lat="38.0340796" lon="22.1140838"><ele>743.6</ele><time>2026-04-29T09:47:52.964Z</time></trkpt><trkpt lat="38.0340747" lon="22.1142174"><ele>745.4000000000001</ele><time>2026-04-29T09:47:53.965Z</time></trkpt><trkpt lat="38.0340749" lon="22.1143623"><ele>747.2</ele><time>2026-04-29T09:47:54.964Z</time></trkpt><trkpt lat="38.0340781" lon="22.1145162"><ele>749.0</ele><time>2026-04-29T09:47:55.965Z</time></trkpt><trkpt lat="38.034086" lon="22.114662"><ele>749.0</ele><time>2026-04-29T09:47:56.964Z</time></trkpt><trkpt lat="38.0340942" lon="22.1148116"><ele>749.0</ele><time>2026-04-29T09:47:57.964Z</time></trkpt><trkpt lat="38.0341166" lon="22.1149684"><ele>749.0</ele><time>2026-04-29T09:47:58.964Z</time></trkpt><trkpt lat="38.0341374" lon="22.1151274"><ele>749.0</ele><time>2026-04-29T09:47:59.965Z</time></trkpt><trkpt lat="38.0341668" lon="22.1152909"><ele>756.0</ele><time>2026-04-29T09:48:00.965Z</time></trkpt><trkpt lat="38.0342015" lon="22.1154507"><ele>763.0</ele><time>2026-04-29T09:48:01.964Z</time></trkpt><trkpt lat="38.0342389" lon="22.1156116"><ele>770.0</ele><time>2026-04-29T09:48:02.964Z</time></trkpt><trkpt lat="38.0342632" lon="22.115773"><ele>777.0</ele><time>2026-04-29T09:48:03.964Z</time></trkpt><trkpt lat="38.0342827" lon="22.1159381"><ele>777.5</ele><time>2026-04-29T09:48:04.964Z</time></trkpt><trkpt lat="38.0342947" lon="22.1161105"><ele>778.0</ele><time>2026-04-29T09:48:05.965Z</time></trkpt><trkpt lat="38.0343126" lon="22.1162798"><ele>778.5</ele><time>2026-04-29T09:48:06.964Z</time></trkpt><trkpt lat="38.034334" lon="22.1164495"><ele>779.0</ele><time>2026-04-29T09:48:07.965Z</time></trkpt><trkpt lat="38.0343563" lon="22.1166152"><ele>780.5</ele><time>2026-04-29T09:48:08.964Z</time></trkpt><trkpt lat="38.0343732" lon="22.1167714"><ele>782.0</ele><time>2026-04-29T09:48:09.964Z</time></trkpt><trkpt lat="38.0343693" lon="22.1169203"><ele>783.5</ele><time>2026-04-29T09:48:10.964Z</time></trkpt><trkpt lat="38.034333" lon="22.1170636"><ele>785.0</ele><time>2026-04-29T09:48:11.964Z</time></trkpt><trkpt lat="38.0342659" lon="22.1171736"><ele>785.0</ele><time>2026-04-29T09:48:12.965Z</time></trkpt><trkpt lat="38.0342071" lon="22.1172675"><ele>785.0</ele><time>2026-04-29T09:48:13.965Z</time></trkpt><trkpt lat="38.0341629" lon="22.1173598"><ele>785.0</ele><time>2026-04-29T09:48:14.964Z</time></trkpt><trkpt lat="38.0341369" lon="22.1174523"><ele>785.0</ele><time>2026-04-29T09:48:15.964Z</time></trkpt><trkpt lat="38.0341364" lon="22.1175454"><ele>785.0</ele><time>2026-04-29T09:48:16.965Z</time></trkpt><trkpt lat="38.0342393" lon="22.1176258"><ele>785.0</ele><time>2026-04-29T09:48:18.964Z</time></trkpt><trkpt lat="38.0343198" lon="22.1175971"><ele>785.0</ele><time>2026-04-29T09:48:19.964Z</time></trkpt><trkpt lat="38.0344048" lon="22.1175254"><ele>785.0</ele><time>2026-04-29T09:48:20.964Z</time></trkpt><trkpt lat="38.0344811" lon="22.1174054"><ele>785.0</ele><time>2026-04-29T09:48:21.965Z</time></trkpt><trkpt lat="38.0345409" lon="22.1172484"><ele>785.0</ele><time>2026-04-29T09:48:22.965Z</time></trkpt><trkpt lat="38.034587" lon="22.117052"><ele>785.0</ele><time>2026-04-29T09:48:23.965Z</time></trkpt><trkpt lat="38.0346198" lon="22.1168482"><ele>785.0</ele><time>2026-04-29T09:48:24.964Z</time></trkpt><trkpt lat="38.0346343" lon="22.1166316"><ele>785.0</ele><time>2026-04-29T09:48:25.965Z</time></trkpt><trkpt lat="38.03465" lon="22.116404"><ele>783.0</ele><time>2026-04-29T09:48:26.965Z</time></trkpt><trkpt lat="38.0346616" lon="22.1161841"><ele>781.0</ele><time>2026-04-29T09:48:27.964Z</time></trkpt><trkpt lat="38.034668" lon="22.1159873"><ele>779.0</ele><time>2026-04-29T09:48:28.964Z</time></trkpt><trkpt lat="38.034672" lon="22.1158083"><ele>778.6</ele><time>2026-04-29T09:48:29.965Z</time></trkpt><trkpt lat="38.0346695" lon="22.115666"><ele>778.2</ele><time>2026-04-29T09:48:30.965Z</time></trkpt><trkpt lat="38.034664" lon="22.115541"><ele>777.8000000000001</ele><time>2026-04-29T09:48:31.965Z</time></trkpt><trkpt lat="38.0346753" lon="22.1154371"><ele>777.4000000000001</ele><time>2026-04-29T09:48:32.964Z</time></trkpt><trkpt lat="38.0347052" lon="22.1153596"><ele>777.0</ele><time>2026-04-29T09:48:33.964Z</time></trkpt><trkpt lat="38.0347946" lon="22.1153731"><ele>777.0</ele><time>2026-04-29T09:48:35.965Z</time></trkpt><trkpt lat="38.0348355" lon="22.1155428"><ele>777.0</ele><time>2026-04-29T09:48:37.964Z</time></trkpt><trkpt lat="38.0348282" lon="22.1156792"><ele>777.0</ele><time>2026-04-29T09:48:38.964Z</time></trkpt><trkpt lat="38.0348258" lon="22.1158586"><ele>777.0</ele><time>2026-04-29T09:48:39.965Z</time></trkpt><trkpt lat="38.0348352" lon="22.1160583"><ele>777.6666666666667</ele><time>2026-04-29T09:48:40.964Z</time></trkpt><trkpt lat="38.0348474" lon="22.1162575"><ele>778.3333333333334</ele><time>2026-04-29T09:48:41.965Z</time></trkpt><trkpt lat="38.0348595" lon="22.1164611"><ele>779.0</ele><time>2026-04-29T09:48:42.965Z</time></trkpt><trkpt lat="38.0348691" lon="22.1166663"><ele>781.0</ele><time>2026-04-29T09:48:43.965Z</time></trkpt><trkpt lat="38.0348804" lon="22.1168623"><ele>783.0</ele><time>2026-04-29T09:48:44.965Z</time></trkpt><trkpt lat="38.0349017" lon="22.1170607"><ele>785.0</ele><time>2026-04-29T09:48:45.964Z</time></trkpt><trkpt lat="38.0349157" lon="22.1172511"><ele>787.25</ele><time>2026-04-29T09:48:46.965Z</time></trkpt><trkpt lat="38.0349214" lon="22.1174363"><ele>789.5</ele><time>2026-04-29T09:48:47.965Z</time></trkpt><trkpt lat="38.0349209" lon="22.1176245"><ele>791.75</ele><time>2026-04-29T09:48:48.965Z</time></trkpt><trkpt lat="38.0349181" lon="22.1178191"><ele>794.0</ele><time>2026-04-29T09:48:49.965Z</time></trkpt><trkpt lat="38.034912" lon="22.1179971"><ele>794.0</ele><time>2026-04-29T09:48:50.965Z</time></trkpt><trkpt lat="38.0349053" lon="22.1181748"><ele>794.0</ele><time>2026-04-29T09:48:51.964Z</time></trkpt><trkpt lat="38.0348888" lon="22.1183404"><ele>794.0</ele><time>2026-04-29T09:48:52.965Z</time></trkpt><trkpt lat="38.0348756" lon="22.1184952"><ele>794.0</ele><time>2026-04-29T09:48:53.965Z</time></trkpt><trkpt lat="38.0348565" lon="22.1186322"><ele>796.4000000000001</ele><time>2026-04-29T09:48:54.965Z</time></trkpt><trkpt lat="38.0348138" lon="22.1187396"><ele>798.8</ele><time>2026-04-29T09:48:55.964Z</time></trkpt><trkpt lat="38.0347533" lon="22.118822"><ele>801.2</ele><time>2026-04-29T09:48:56.965Z</time></trkpt><trkpt lat="38.0346561" lon="22.1189017"><ele>803.5999999999999</ele><time>2026-04-29T09:48:57.965Z</time></trkpt><trkpt lat="38.034564" lon="22.1189603"><ele>806.0</ele><time>2026-04-29T09:48:58.964Z</time></trkpt><trkpt lat="38.0344679" lon="22.119015"><ele>809.8</ele><time>2026-04-29T09:48:59.964Z</time></trkpt><trkpt lat="38.0343746" lon="22.1190764"><ele>813.5999999999999</ele><time>2026-04-29T09:49:00.965Z</time></trkpt><trkpt lat="38.0342877" lon="22.1191503"><ele>817.4</ele><time>2026-04-29T09:49:01.964Z</time></trkpt><trkpt lat="38.0342046" lon="22.1192353"><ele>821.2</ele><time>2026-04-29T09:49:02.963Z</time></trkpt><trkpt lat="38.0341216" lon="22.1193284"><ele>825.0</ele><time>2026-04-29T09:49:03.964Z</time></trkpt><trkpt lat="38.0340287" lon="22.1194205"><ele>825.0</ele><time>2026-04-29T09:49:04.965Z</time></trkpt><trkpt lat="38.0339307" lon="22.1195108"><ele>825.0</ele><time>2026-04-29T09:49:05.964Z</time></trkpt><trkpt lat="38.0338231" lon="22.1195968"><ele>825.0</ele><time>2026-04-29T09:49:06.965Z</time></trkpt><trkpt lat="38.0337113" lon="22.1196748"><ele>825.0</ele><time>2026-04-29T09:49:07.965Z</time></trkpt><trkpt lat="38.0336033" lon="22.1197439"><ele>825.0</ele><time>2026-04-29T09:49:08.965Z</time></trkpt><trkpt lat="38.0334917" lon="22.1197994"><ele>825.0</ele><time>2026-04-29T09:49:09.965Z</time></trkpt><trkpt lat="38.0333813" lon="22.1198243"><ele>825.0</ele><time>2026-04-29T09:49:10.965Z</time></trkpt><trkpt lat="38.0332685" lon="22.1198325"><ele>825.0</ele><time>2026-04-29T09:49:11.964Z</time></trkpt><trkpt lat="38.0331672" lon="22.1198526"><ele>825.0</ele><time>2026-04-29T09:49:12.964Z</time></trkpt><trkpt lat="38.0330676" lon="22.1198665"><ele>827.8</ele><time>2026-04-29T09:49:13.964Z</time></trkpt><trkpt lat="38.0329697" lon="22.1198649"><ele>830.6</ele><time>2026-04-29T09:49:14.964Z</time></trkpt><trkpt lat="38.0328771" lon="22.1198205"><ele>833.4000000000001</ele><time>2026-04-29T09:49:15.964Z</time></trkpt><trkpt lat="38.0327793" lon="22.1197349"><ele>836.2</ele><time>2026-04-29T09:49:16.965Z</time></trkpt><trkpt lat="38.0326883" lon="22.1196163"><ele>839.0</ele><time>2026-04-29T09:49:17.964Z</time></trkpt><trkpt lat="38.0326056" lon="22.1194899"><ele>839.0</ele><time>2026-04-29T09:49:18.965Z</time></trkpt><trkpt lat="38.0325299" lon="22.11938"><ele>839.0</ele><time>2026-04-29T09:49:19.965Z</time></trkpt><trkpt lat="38.0324504" lon="22.1192818"><ele>839.0</ele><time>2026-04-29T09:49:20.965Z</time></trkpt><trkpt lat="38.0323583" lon="22.1192128"><ele>839.0</ele><time>2026-04-29T09:49:21.965Z</time></trkpt><trkpt lat="38.0322422" lon="22.11916"><ele>838.0</ele><time>2026-04-29T09:49:22.965Z</time></trkpt><trkpt lat="38.0321233" lon="22.119116"><ele>837.0</ele><time>2026-04-29T09:49:23.964Z</time></trkpt><trkpt lat="38.0320033" lon="22.1190668"><ele>836.0</ele><time>2026-04-29T09:49:24.965Z</time></trkpt><trkpt lat="38.0319212" lon="22.1190281"><ele>835.0</ele><time>2026-04-29T09:49:25.964Z</time></trkpt><trkpt lat="38.0318588" lon="22.1189967"><ele>834.0</ele><time>2026-04-29T09:49:26.964Z</time></trkpt><trkpt lat="38.0317756" lon="22.11905"><ele>839.0</ele><time>2026-04-29T09:49:28.964Z</time></trkpt><trkpt lat="38.0318197" lon="22.1191867"><ele>844.0</ele><time>2026-04-29T09:49:30.964Z</time></trkpt><trkpt lat="38.0318962" lon="22.1192543"><ele>849.0</ele><time>2026-04-29T09:49:31.965Z</time></trkpt><trkpt lat="38.0320071" lon="22.1193456"><ele>854.0</ele><time>2026-04-29T09:49:32.965Z</time></trkpt><trkpt lat="38.0321165" lon="22.1194434"><ele>854.0</ele><time>2026-04-29T09:49:33.964Z</time></trkpt><trkpt lat="38.0322194" lon="22.1195408"><ele>854.0000000000001</ele><time>2026-04-29T09:49:34.964Z</time></trkpt><trkpt lat="38.0323133" lon="22.1196177"><ele>854.0000000000001</ele><time>2026-04-29T09:49:35.965Z</time></trkpt><trkpt lat="38.0323712" lon="22.1196793"><ele>854.0</ele><time>2026-04-29T09:49:36.965Z</time></trkpt><trkpt lat="38.0323673" lon="22.1197915"><ele>854.0</ele><time>2026-04-29T09:49:38.965Z</time></trkpt><trkpt lat="38.0322648" lon="22.1198383"><ele>854.0</ele><time>2026-04-29T09:49:40.964Z</time></trkpt><trkpt lat="38.0321671" lon="22.1197783"><ele>854.0</ele><time>2026-04-29T09:49:41.964Z</time></trkpt><trkpt lat="38.0320338" lon="22.1197433"><ele>854.0</ele><time>2026-04-29T09:49:42.964Z</time></trkpt><trkpt lat="38.0318848" lon="22.1197036"><ele>854.0</ele><time>2026-04-29T09:49:43.964Z</time></trkpt><trkpt lat="38.0317386" lon="22.1196261"><ele>857.5</ele><time>2026-04-29T09:49:44.965Z</time></trkpt><trkpt lat="38.0316031" lon="22.119541"><ele>861.0</ele><time>2026-04-29T09:49:45.965Z</time></trkpt><trkpt lat="38.0314763" lon="22.1194446"><ele>864.5</ele><time>2026-04-29T09:49:46.965Z</time></trkpt><trkpt lat="38.0313449" lon="22.1193579"><ele>868.0</ele><time>2026-04-29T09:49:47.964Z</time></trkpt><trkpt lat="38.0312132" lon="22.1192958"><ele>868.0</ele><time>2026-04-29T09:49:48.965Z</time></trkpt><trkpt lat="38.0310802" lon="22.1192475"><ele>868.0</ele><time>2026-04-29T09:49:49.965Z</time></trkpt><trkpt lat="38.030957" lon="22.1191934"><ele>868.0</ele><time>2026-04-29T09:49:50.964Z</time></trkpt><trkpt lat="38.0308539" lon="22.1191148"><ele>868.0</ele><time>2026-04-29T09:49:51.964Z</time></trkpt><trkpt lat="38.0307638" lon="22.1190488"><ele>867.8</ele><time>2026-04-29T09:49:52.964Z</time></trkpt><trkpt lat="38.0306747" lon="22.1189951"><ele>867.5999999999999</ele><time>2026-04-29T09:49:53.964Z</time></trkpt><trkpt lat="38.0305926" lon="22.1189562"><ele>867.4000000000001</ele><time>2026-04-29T09:49:54.965Z</time></trkpt><trkpt lat="38.0305111" lon="22.1189541"><ele>867.2</ele><time>2026-04-29T09:49:55.965Z</time></trkpt><trkpt lat="38.0304228" lon="22.119005"><ele>867.0</ele><time>2026-04-29T09:49:56.964Z</time></trkpt><trkpt lat="38.0303432" lon="22.1190829"><ele>867.0</ele><time>2026-04-29T09:49:57.965Z</time></trkpt><trkpt lat="38.0302808" lon="22.1192355"><ele>867.0</ele><time>2026-04-29T09:49:58.965Z</time></trkpt><trkpt lat="38.0302141" lon="22.1194002"><ele>867.0</ele><time>2026-04-29T09:49:59.964Z</time></trkpt><trkpt lat="38.0301512" lon="22.1195994"><ele>867.0</ele><time>2026-04-29T09:50:00.964Z</time></trkpt><trkpt lat="38.0301059" lon="22.1197944"><ele>867.0</ele><time>2026-04-29T09:50:01.964Z</time></trkpt><trkpt lat="38.0300688" lon="22.1199852"><ele>867.0</ele><time>2026-04-29T09:50:02.964Z</time></trkpt><trkpt lat="38.0300427" lon="22.1201887"><ele>866.3333333333333</ele><time>2026-04-29T09:50:03.965Z</time></trkpt><trkpt lat="38.0300133" lon="22.1203951"><ele>865.6666666666666</ele><time>2026-04-29T09:50:04.965Z</time></trkpt><trkpt lat="38.0299714" lon="22.1205979"><ele>865.0</ele><time>2026-04-29T09:50:05.965Z</time></trkpt><trkpt lat="38.0299228" lon="22.1207878"><ele>865.0</ele><time>2026-04-29T09:50:06.964Z</time></trkpt><trkpt lat="38.0298723" lon="22.1209687"><ele>865.0</ele><time>2026-04-29T09:50:07.964Z</time></trkpt><trkpt lat="38.0298248" lon="22.1211408"><ele>865.0</ele><time>2026-04-29T09:50:08.964Z</time></trkpt><trkpt lat="38.0297783" lon="22.1213066"><ele>865.0</ele><time>2026-04-29T09:50:09.964Z</time></trkpt><trkpt lat="38.029737" lon="22.1214574"><ele>868.8</ele><time>2026-04-29T09:50:10.964Z</time></trkpt><trkpt lat="38.0296987" lon="22.1215973"><ele>872.6</ele><time>2026-04-29T09:50:11.965Z</time></trkpt><trkpt lat="38.0296672" lon="22.1217224"><ele>876.4000000000001</ele><time>2026-04-29T09:50:12.964Z</time></trkpt><trkpt lat="38.0296409" lon="22.1218245"><ele>880.2</ele><time>2026-04-29T09:50:13.965Z</time></trkpt><trkpt lat="38.029624" lon="22.1219111"><ele>884.0</ele><time>2026-04-29T09:50:14.964Z</time></trkpt><trkpt lat="38.0296588" lon="22.1220199"><ele>884.0</ele><time>2026-04-29T09:50:16.964Z</time></trkpt><trkpt lat="38.0297628" lon="22.1219905"><ele>884.0000000000001</ele><time>2026-04-29T09:50:18.964Z</time></trkpt><trkpt lat="38.0298078" lon="22.1219016"><ele>884.0000000000001</ele><time>2026-04-29T09:50:19.964Z</time></trkpt><trkpt lat="38.029837" lon="22.1217711"><ele>884.0</ele><time>2026-04-29T09:50:20.965Z</time></trkpt><trkpt lat="38.0298692" lon="22.1216144"><ele>884.0</ele><time>2026-04-29T09:50:21.964Z</time></trkpt><trkpt lat="38.0299309" lon="22.121448"><ele>886.25</ele><time>2026-04-29T09:50:22.964Z</time></trkpt><trkpt lat="38.0299937" lon="22.1212788"><ele>888.5</ele><time>2026-04-29T09:50:23.964Z</time></trkpt><trkpt lat="38.0300725" lon="22.1211199"><ele>890.75</ele><time>2026-04-29T09:50:24.965Z</time></trkpt><trkpt lat="38.0301657" lon="22.120974"><ele>893.0</ele><time>2026-04-29T09:50:25.965Z</time></trkpt><trkpt lat="38.030261" lon="22.1208355"><ele>890.0</ele><time>2026-04-29T09:50:26.965Z</time></trkpt><trkpt lat="38.0303504" lon="22.1207155"><ele>887.0</ele><time>2026-04-29T09:50:27.964Z</time></trkpt><trkpt lat="38.0304283" lon="22.1206007"><ele>884.0</ele><time>2026-04-29T09:50:28.964Z</time></trkpt><trkpt lat="38.0304867" lon="22.1205005"><ele>881.0</ele><time>2026-04-29T09:50:29.965Z</time></trkpt><trkpt lat="38.0305361" lon="22.1204297"><ele>878.0</ele><time>2026-04-29T09:50:30.964Z</time></trkpt><trkpt lat="38.0306402" lon="22.1204138"><ele>878.0</ele><time>2026-04-29T09:50:32.965Z</time></trkpt><trkpt lat="38.0306535" lon="22.1205187"><ele>878.0</ele><time>2026-04-29T09:50:34.964Z</time></trkpt><trkpt lat="38.0305903" lon="22.1205727"><ele>878.0</ele><time>2026-04-29T09:50:35.965Z</time></trkpt><trkpt lat="38.030514" lon="22.1206569"><ele>878.0</ele><time>2026-04-29T09:50:36.965Z</time></trkpt><trkpt lat="38.0304279" lon="22.1207805"><ele>878.0</ele><time>2026-04-29T09:50:37.965Z</time></trkpt><trkpt lat="38.0303442" lon="22.1209273"><ele>881.75</ele><time>2026-04-29T09:50:38.964Z</time></trkpt><trkpt lat="38.0302704" lon="22.1210834"><ele>885.5</ele><time>2026-04-29T09:50:39.965Z</time></trkpt><trkpt lat="38.0302026" lon="22.1212503"><ele>889.25</ele><time>2026-04-29T09:50:40.965Z</time></trkpt><trkpt lat="38.0301512" lon="22.1214238"><ele>893.0</ele><time>2026-04-29T09:50:41.964Z</time></trkpt><trkpt lat="38.0301128" lon="22.1215908"><ele>896.25</ele><time>2026-04-29T09:50:42.964Z</time></trkpt><trkpt lat="38.030091" lon="22.1217579"><ele>899.5</ele><time>2026-04-29T09:50:43.965Z</time></trkpt><trkpt lat="38.0300918" lon="22.1219369"><ele>902.75</ele><time>2026-04-29T09:50:44.964Z</time></trkpt><trkpt lat="38.0300922" lon="22.1221049"><ele>906.0</ele><time>2026-04-29T09:50:45.964Z</time></trkpt><trkpt lat="38.0300929" lon="22.1222865"><ele>905.5</ele><time>2026-04-29T09:50:46.964Z</time></trkpt><trkpt lat="38.030072" lon="22.1224474"><ele>905.0</ele><time>2026-04-29T09:50:47.964Z</time></trkpt><trkpt lat="38.0300116" lon="22.1225925"><ele>904.5</ele><time>2026-04-29T09:50:48.964Z</time></trkpt><trkpt lat="38.029951" lon="22.1227504"><ele>904.0</ele><time>2026-04-29T09:50:49.965Z</time></trkpt><trkpt lat="38.0298578" lon="22.1228774"><ele>904.0</ele><time>2026-04-29T09:50:50.964Z</time></trkpt><trkpt lat="38.0297506" lon="22.1229972"><ele>904.0</ele><time>2026-04-29T09:50:51.964Z</time></trkpt><trkpt lat="38.0296393" lon="22.1230947"><ele>904.0</ele><time>2026-04-29T09:50:52.965Z</time></trkpt><trkpt lat="38.0295459" lon="22.1232068"><ele>904.0</ele><time>2026-04-29T09:50:53.964Z</time></trkpt><trkpt lat="38.0294671" lon="22.1233331"><ele>907.75</ele><time>2026-04-29T09:50:54.965Z</time></trkpt><trkpt lat="38.0294093" lon="22.1234766"><ele>911.5</ele><time>2026-04-29T09:50:55.965Z</time></trkpt><trkpt lat="38.0293356" lon="22.1236143"><ele>915.25</ele><time>2026-04-29T09:50:56.965Z</time></trkpt><trkpt lat="38.0292543" lon="22.1237423"><ele>919.0</ele><time>2026-04-29T09:50:57.965Z</time></trkpt><trkpt lat="38.0291644" lon="22.1238335"><ele>919.5</ele><time>2026-04-29T09:50:58.965Z</time></trkpt><trkpt lat="38.0290564" lon="22.1238848"><ele>920.0</ele><time>2026-04-29T09:50:59.965Z</time></trkpt><trkpt lat="38.0289362" lon="22.1238859"><ele>920.5</ele><time>2026-04-29T09:51:00.964Z</time></trkpt><trkpt lat="38.0288043" lon="22.1238804"><ele>921.0</ele><time>2026-04-29T09:51:01.965Z</time></trkpt><trkpt lat="38.0286787" lon="22.123895"><ele>921.0</ele><time>2026-04-29T09:51:02.964Z</time></trkpt><trkpt lat="38.0285645" lon="22.1239351"><ele>920.9999999999999</ele><time>2026-04-29T09:51:03.964Z</time></trkpt><trkpt lat="38.0284684" lon="22.1239944"><ele>920.9999999999999</ele><time>2026-04-29T09:51:04.965Z</time></trkpt><trkpt lat="38.0283905" lon="22.1240843"><ele>921.0</ele><time>2026-04-29T09:51:05.964Z</time></trkpt><trkpt lat="38.0283357" lon="22.1242011"><ele>921.0</ele><time>2026-04-29T09:51:06.964Z</time></trkpt><trkpt lat="38.0282732" lon="22.124342"><ele>920.6666666666667</ele><time>2026-04-29T09:51:07.964Z</time></trkpt><trkpt lat="38.0282006" lon="22.1245365"><ele>920.3333333333334</ele><time>2026-04-29T09:51:08.964Z</time></trkpt><trkpt lat="38.0281148" lon="22.1247397"><ele>920.0</ele><time>2026-04-29T09:51:09.964Z</time></trkpt><trkpt lat="38.028022" lon="22.1249477"><ele>924.0</ele><time>2026-04-29T09:51:10.965Z</time></trkpt><trkpt lat="38.0279316" lon="22.1251434"><ele>928.0</ele><time>2026-04-29T09:51:11.965Z</time></trkpt><trkpt lat="38.0278414" lon="22.1253195"><ele>932.0</ele><time>2026-04-29T09:51:12.964Z</time></trkpt><trkpt lat="38.0277509" lon="22.1254814"><ele>932.0</ele><time>2026-04-29T09:51:13.964Z</time></trkpt><trkpt lat="38.0276763" lon="22.1256432"><ele>932.0</ele><time>2026-04-29T09:51:14.964Z</time></trkpt><trkpt lat="38.0276014" lon="22.1258031"><ele>932.0</ele><time>2026-04-29T09:51:15.964Z</time></trkpt><trkpt lat="38.0275396" lon="22.1259618"><ele>932.0</ele><time>2026-04-29T09:51:16.965Z</time></trkpt><trkpt lat="38.0274935" lon="22.1261233"><ele>932.0</ele><time>2026-04-29T09:51:17.964Z</time></trkpt><trkpt lat="38.0274632" lon="22.1262902"><ele>932.0</ele><time>2026-04-29T09:51:18.965Z</time></trkpt><trkpt lat="38.0274553" lon="22.1264605"><ele>932.0</ele><time>2026-04-29T09:51:19.964Z</time></trkpt><trkpt lat="38.0274688" lon="22.126644"><ele>932.0</ele><time>2026-04-29T09:51:20.965Z</time></trkpt><trkpt lat="38.0274937" lon="22.1268267"><ele>937.25</ele><time>2026-04-29T09:51:21.965Z</time></trkpt><trkpt lat="38.0275211" lon="22.1270109"><ele>942.5</ele><time>2026-04-29T09:51:22.964Z</time></trkpt><trkpt lat="38.0275374" lon="22.1271743"><ele>947.75</ele><time>2026-04-29T09:51:23.964Z</time></trkpt><trkpt lat="38.0275341" lon="22.1273146"><ele>953.0</ele><time>2026-04-29T09:51:24.965Z</time></trkpt><trkpt lat="38.0274938" lon="22.1274206"><ele>952.25</ele><time>2026-04-29T09:51:25.965Z</time></trkpt><trkpt lat="38.0274385" lon="22.1275324"><ele>951.5</ele><time>2026-04-29T09:51:26.965Z</time></trkpt><trkpt lat="38.0273202" lon="22.127591"><ele>950.75</ele><time>2026-04-29T09:51:27.964Z</time></trkpt><trkpt lat="38.0271707" lon="22.1276616"><ele>950.0</ele><time>2026-04-29T09:51:28.964Z</time></trkpt><trkpt lat="38.0270188" lon="22.1277355"><ele>950.0</ele><time>2026-04-29T09:51:29.964Z</time></trkpt><trkpt lat="38.0268686" lon="22.1278046"><ele>950.0</ele><time>2026-04-29T09:51:30.965Z</time></trkpt><trkpt lat="38.0267322" lon="22.1278916"><ele>950.0</ele><time>2026-04-29T09:51:31.964Z</time></trkpt><trkpt lat="38.0266001" lon="22.1279995"><ele>951.6666666666667</ele><time>2026-04-29T09:51:32.965Z</time></trkpt><trkpt lat="38.0264713" lon="22.128147"><ele>953.3333333333333</ele><time>2026-04-29T09:51:33.965Z</time></trkpt><trkpt lat="38.0263377" lon="22.1283493"><ele>955.0</ele><time>2026-04-29T09:51:34.965Z</time></trkpt><trkpt lat="38.0262063" lon="22.128563"><ele>960.3333333333333</ele><time>2026-04-29T09:51:35.964Z</time></trkpt><trkpt lat="38.0260792" lon="22.1287497"><ele>965.6666666666667</ele><time>2026-04-29T09:51:36.964Z</time></trkpt><trkpt lat="38.0259476" lon="22.1289281"><ele>971.0</ele><time>2026-04-29T09:51:37.964Z</time></trkpt><trkpt lat="38.0258175" lon="22.1290738"><ele>972.0</ele><time>2026-04-29T09:51:38.965Z</time></trkpt><trkpt lat="38.0256735" lon="22.12921"><ele>973.0</ele><time>2026-04-29T09:51:39.964Z</time></trkpt><trkpt lat="38.0255157" lon="22.1293384"><ele>974.0</ele><time>2026-04-29T09:51:40.964Z</time></trkpt><trkpt lat="38.0253342" lon="22.1294558"><ele>974.0</ele><time>2026-04-29T09:51:41.965Z</time></trkpt><trkpt lat="38.0251736" lon="22.1295828"><ele>974.0</ele><time>2026-04-29T09:51:42.964Z</time></trkpt><trkpt lat="38.0250284" lon="22.1297053"><ele>974.0</ele><time>2026-04-29T09:51:43.965Z</time></trkpt><trkpt lat="38.0248886" lon="22.1298319"><ele>974.0</ele><time>2026-04-29T09:51:44.965Z</time></trkpt><trkpt lat="38.02475" lon="22.1299774"><ele>974.0</ele><time>2026-04-29T09:51:45.964Z</time></trkpt><trkpt lat="38.0246062" lon="22.1301331"><ele>974.0</ele><time>2026-04-29T09:51:46.965Z</time></trkpt><trkpt lat="38.0244681" lon="22.130305"><ele>974.0</ele><time>2026-04-29T09:51:47.964Z</time></trkpt><trkpt lat="38.0243326" lon="22.1304868"><ele>974.0</ele><time>2026-04-29T09:51:48.964Z</time></trkpt><trkpt lat="38.0241997" lon="22.1306717"><ele>974.0</ele><time>2026-04-29T09:51:49.965Z</time></trkpt><trkpt lat="38.0240729" lon="22.1308571"><ele>976.0</ele><time>2026-04-29T09:51:50.964Z</time></trkpt><trkpt lat="38.0239487" lon="22.1310392"><ele>978.0</ele><time>2026-04-29T09:51:51.965Z</time></trkpt><trkpt lat="38.023824" lon="22.1312189"><ele>980.0</ele><time>2026-04-29T09:51:52.964Z</time></trkpt><trkpt lat="38.023703" lon="22.1313868"><ele>986.0</ele><time>2026-04-29T09:51:53.965Z</time></trkpt><trkpt lat="38.0235867" lon="22.1315663"><ele>992.0</ele><time>2026-04-29T09:51:54.964Z</time></trkpt><trkpt lat="38.0234646" lon="22.1317373"><ele>998.0</ele><time>2026-04-29T09:51:55.964Z</time></trkpt><trkpt lat="38.023342" lon="22.1319113"><ele>997.6666666666667</ele><time>2026-04-29T09:51:56.964Z</time></trkpt><trkpt lat="38.0232255" lon="22.1320917"><ele>997.3333333333333</ele><time>2026-04-29T09:51:57.964Z</time></trkpt><trkpt lat="38.0231008" lon="22.1322589"><ele>997.0</ele><time>2026-04-29T09:51:58.964Z</time></trkpt><trkpt lat="38.0229811" lon="22.1324288"><ele>1001.6666666666666</ele><time>2026-04-29T09:51:59.965Z</time></trkpt><trkpt lat="38.0228606" lon="22.1325925"><ele>1006.3333333333333</ele><time>2026-04-29T09:52:00.965Z</time></trkpt><trkpt lat="38.022749" lon="22.1327662"><ele>1011.0</ele><time>2026-04-29T09:52:01.965Z</time></trkpt><trkpt lat="38.0226326" lon="22.1329283"><ele>1011.0</ele><time>2026-04-29T09:52:02.964Z</time></trkpt><trkpt lat="38.0225146" lon="22.1330923"><ele>1011.0</ele><time>2026-04-29T09:52:03.965Z</time></trkpt><trkpt lat="38.0223905" lon="22.1332545"><ele>1011.0</ele><time>2026-04-29T09:52:04.965Z</time></trkpt><trkpt lat="38.0222692" lon="22.1334143"><ele>1009.3333333333333</ele><time>2026-04-29T09:52:05.964Z</time></trkpt><trkpt lat="38.0221453" lon="22.1335753"><ele>1007.6666666666666</ele><time>2026-04-29T09:52:06.964Z</time></trkpt><trkpt lat="38.0220214" lon="22.1337436"><ele>1006.0</ele><time>2026-04-29T09:52:07.964Z</time></trkpt><trkpt lat="38.0218971" lon="22.1339152"><ele>1004.0</ele><time>2026-04-29T09:52:08.964Z</time></trkpt><trkpt lat="38.0217739" lon="22.1340864"><ele>1002.0</ele><time>2026-04-29T09:52:09.965Z</time></trkpt><trkpt lat="38.0216593" lon="22.1342703"><ele>1000.0</ele><time>2026-04-29T09:52:10.964Z</time></trkpt><trkpt lat="38.0215445" lon="22.1344605"><ele>1000.0</ele><time>2026-04-29T09:52:11.964Z</time></trkpt><trkpt lat="38.0214298" lon="22.1346481"><ele>1000.0</ele><time>2026-04-29T09:52:12.964Z</time></trkpt><trkpt lat="38.0213044" lon="22.1348323"><ele>1000.0</ele><time>2026-04-29T09:52:13.965Z</time></trkpt><trkpt lat="38.0211708" lon="22.1350131"><ele>1003.6666666666666</ele><time>2026-04-29T09:52:14.965Z</time></trkpt><trkpt lat="38.0210353" lon="22.1351804"><ele>1007.3333333333333</ele><time>2026-04-29T09:52:15.965Z</time></trkpt><trkpt lat="38.0208927" lon="22.1353433"><ele>1011.0</ele><time>2026-04-29T09:52:16.964Z</time></trkpt><trkpt lat="38.0207298" lon="22.1354795"><ele>1011.0</ele><time>2026-04-29T09:52:17.965Z</time></trkpt><trkpt lat="38.0205608" lon="22.1356056"><ele>1011.0</ele><time>2026-04-29T09:52:18.964Z</time></trkpt><trkpt lat="38.0203991" lon="22.1357067"><ele>1011.0</ele><time>2026-04-29T09:52:19.964Z</time></trkpt><trkpt lat="38.0202396" lon="22.1358073"><ele>1015.3333333333333</ele><time>2026-04-29T09:52:20.965Z</time></trkpt><trkpt lat="38.0201049" lon="22.1359272"><ele>1019.6666666666666</ele><time>2026-04-29T09:52:21.965Z</time></trkpt><trkpt lat="38.0199824" lon="22.1360768"><ele>1024.0</ele><time>2026-04-29T09:52:22.964Z</time></trkpt><trkpt lat="38.0198835" lon="22.1362585"><ele>1024.0</ele><time>2026-04-29T09:52:23.965Z</time></trkpt><trkpt lat="38.0198013" lon="22.1364688"><ele>1024.0</ele><time>2026-04-29T09:52:24.964Z</time></trkpt><trkpt lat="38.0197392" lon="22.1366775"><ele>1024.0</ele><time>2026-04-29T09:52:25.964Z</time></trkpt><trkpt lat="38.0197025" lon="22.1368964"><ele>1027.0</ele><time>2026-04-29T09:52:26.965Z</time></trkpt><trkpt lat="38.0196877" lon="22.1371284"><ele>1030.0</ele><time>2026-04-29T09:52:27.964Z</time></trkpt><trkpt lat="38.019703" lon="22.1373724"><ele>1033.0</ele><time>2026-04-29T09:52:28.964Z</time></trkpt><trkpt lat="38.0197252" lon="22.1376283"><ele>1035.3333333333333</ele><time>2026-04-29T09:52:29.964Z</time></trkpt><trkpt lat="38.0197483" lon="22.1378776"><ele>1037.6666666666667</ele><time>2026-04-29T09:52:30.964Z</time></trkpt><trkpt lat="38.0197604" lon="22.1381051"><ele>1040.0</ele><time>2026-04-29T09:52:31.965Z</time></trkpt><trkpt lat="38.0197694" lon="22.1383367"><ele>1041.3333333333335</ele><time>2026-04-29T09:52:32.964Z</time></trkpt><trkpt lat="38.0197441" lon="22.1385509"><ele>1042.6666666666667</ele><time>2026-04-29T09:52:33.965Z</time></trkpt><trkpt lat="38.0196854" lon="22.1387577"><ele>1044.0</ele><time>2026-04-29T09:52:34.964Z</time></trkpt><trkpt lat="38.0196059" lon="22.1389602"><ele>1050.3333333333333</ele><time>2026-04-29T09:52:35.965Z</time></trkpt><trkpt lat="38.019533" lon="22.139152"><ele>1056.6666666666665</ele><time>2026-04-29T09:52:36.964Z</time></trkpt><trkpt lat="38.0194717" lon="22.1393452"><ele>1063.0</ele><time>2026-04-29T09:52:37.965Z</time></trkpt><trkpt lat="38.0194338" lon="22.1395456"><ele>1063.0</ele><time>2026-04-29T09:52:38.965Z</time></trkpt><trkpt lat="38.0194106" lon="22.1397516"><ele>1063.0</ele><time>2026-04-29T09:52:39.965Z</time></trkpt><trkpt lat="38.0194008" lon="22.1399598"><ele>1063.0</ele><time>2026-04-29T09:52:40.964Z</time></trkpt><trkpt lat="38.0194168" lon="22.1401714"><ele>1067.0</ele><time>2026-04-29T09:52:41.964Z</time></trkpt><trkpt lat="38.0194486" lon="22.1403808"><ele>1071.0</ele><time>2026-04-29T09:52:42.964Z</time></trkpt><trkpt lat="38.0194887" lon="22.1405992"><ele>1075.0</ele><time>2026-04-29T09:52:43.965Z</time></trkpt><trkpt lat="38.0195196" lon="22.1408139"><ele>1078.6666666666665</ele><time>2026-04-29T09:52:44.965Z</time></trkpt><trkpt lat="38.0195422" lon="22.1410437"><ele>1082.3333333333333</ele><time>2026-04-29T09:52:45.964Z</time></trkpt><trkpt lat="38.0195474" lon="22.1412798"><ele>1086.0</ele><time>2026-04-29T09:52:46.965Z</time></trkpt><trkpt lat="38.0195514" lon="22.1415098"><ele>1090.3333333333333</ele><time>2026-04-29T09:52:47.965Z</time></trkpt><trkpt lat="38.0195431" lon="22.1417487"><ele>1094.6666666666665</ele><time>2026-04-29T09:52:48.965Z</time></trkpt><trkpt lat="38.0195571" lon="22.1419759"><ele>1099.0</ele><time>2026-04-29T09:52:49.964Z</time></trkpt><trkpt lat="38.0195703" lon="22.1421941"><ele>1099.0</ele><time>2026-04-29T09:52:50.964Z</time></trkpt><trkpt lat="38.0195801" lon="22.1424092"><ele>1099.0</ele><time>2026-04-29T09:52:51.964Z</time></trkpt><trkpt lat="38.0195888" lon="22.142619"><ele>1099.0</ele><time>2026-04-29T09:52:52.964Z</time></trkpt><trkpt lat="38.019586" lon="22.1428304"><ele>1099.0</ele><time>2026-04-29T09:52:53.964Z</time></trkpt><trkpt lat="38.0195862" lon="22.1430383"><ele>1099.0</ele><time>2026-04-29T09:52:54.964Z</time></trkpt><trkpt lat="38.0196017" lon="22.14325"><ele>1099.0</ele><time>2026-04-29T09:52:55.964Z</time></trkpt><trkpt lat="38.0196344" lon="22.1434651"><ele>1099.3333333333333</ele><time>2026-04-29T09:52:56.964Z</time></trkpt><trkpt lat="38.0196781" lon="22.1436717"><ele>1099.6666666666667</ele><time>2026-04-29T09:52:57.964Z</time></trkpt><trkpt lat="38.0197496" lon="22.1438732"><ele>1100.0</ele><time>2026-04-29T09:52:58.964Z</time></trkpt><trkpt lat="38.0198202" lon="22.1440498"><ele>1098.5</ele><time>2026-04-29T09:52:59.965Z</time></trkpt><trkpt lat="38.019875" lon="22.1442253"><ele>1097.0</ele><time>2026-04-29T09:53:00.965Z</time></trkpt><trkpt lat="38.0199044" lon="22.1443979"><ele>1095.5</ele><time>2026-04-29T09:53:01.965Z</time></trkpt><trkpt lat="38.0198984" lon="22.1445857"><ele>1094.0</ele><time>2026-04-29T09:53:02.965Z</time></trkpt><trkpt lat="38.0198209" lon="22.1447464"><ele>1097.3333333333335</ele><time>2026-04-29T09:53:03.965Z</time></trkpt><trkpt lat="38.0197333" lon="22.1449203"><ele>1100.6666666666667</ele><time>2026-04-29T09:53:04.965Z</time></trkpt><trkpt lat="38.0196368" lon="22.145067"><ele>1104.0</ele><time>2026-04-29T09:53:05.964Z</time></trkpt><trkpt lat="38.0195219" lon="22.1451989"><ele>1104.0</ele><time>2026-04-29T09:53:06.964Z</time></trkpt><trkpt lat="38.0193804" lon="22.1452938"><ele>1104.0</ele><time>2026-04-29T09:53:07.964Z</time></trkpt><trkpt lat="38.019208" lon="22.1453783"><ele>1104.0</ele><time>2026-04-29T09:53:08.964Z</time></trkpt><trkpt lat="38.0190309" lon="22.145444"><ele>1105.0</ele><time>2026-04-29T09:53:09.964Z</time></trkpt><trkpt lat="38.0188485" lon="22.1455052"><ele>1106.0</ele><time>2026-04-29T09:53:10.965Z</time></trkpt><trkpt lat="38.0186687" lon="22.1455613"><ele>1107.0</ele><time>2026-04-29T09:53:11.964Z</time></trkpt><trkpt lat="38.0184941" lon="22.1456086"><ele>1107.0</ele><time>2026-04-29T09:53:12.964Z</time></trkpt><trkpt lat="38.0183242" lon="22.1456737"><ele>1107.0</ele><time>2026-04-29T09:53:13.965Z</time></trkpt><trkpt lat="38.0181729" lon="22.1457418"><ele>1107.0</ele><time>2026-04-29T09:53:14.965Z</time></trkpt><trkpt lat="38.0180274" lon="22.1458193"><ele>1109.6666666666667</ele><time>2026-04-29T09:53:15.965Z</time></trkpt><trkpt lat="38.0178794" lon="22.1459082"><ele>1112.3333333333335</ele><time>2026-04-29T09:53:16.965Z</time></trkpt><trkpt lat="38.0177417" lon="22.1460173"><ele>1115.0</ele><time>2026-04-29T09:53:17.964Z</time></trkpt><trkpt lat="38.0176114" lon="22.1461332"><ele>1115.0</ele><time>2026-04-29T09:53:18.964Z</time></trkpt><trkpt lat="38.0174896" lon="22.1462644"><ele>1115.0</ele><time>2026-04-29T09:53:19.964Z</time></trkpt><trkpt lat="38.0173696" lon="22.1463948"><ele>1115.0</ele><time>2026-04-29T09:53:20.965Z</time></trkpt><trkpt lat="38.0172545" lon="22.1465302"><ele>1118.0</ele><time>2026-04-29T09:53:21.965Z</time></trkpt><trkpt lat="38.0171504" lon="22.1466819"><ele>1121.0</ele><time>2026-04-29T09:53:22.965Z</time></trkpt><trkpt lat="38.0170542" lon="22.1468295"><ele>1124.0</ele><time>2026-04-29T09:53:23.964Z</time></trkpt><trkpt lat="38.0169499" lon="22.1469629"><ele>1124.0</ele><time>2026-04-29T09:53:24.965Z</time></trkpt><trkpt lat="38.0168341" lon="22.1470658"><ele>1124.0</ele><time>2026-04-29T09:53:25.965Z</time></trkpt><trkpt lat="38.0167092" lon="22.1471403"><ele>1124.0</ele><time>2026-04-29T09:53:26.964Z</time></trkpt><trkpt lat="38.0165935" lon="22.1471965"><ele>1124.0</ele><time>2026-04-29T09:53:27.965Z</time></trkpt><trkpt lat="38.0164816" lon="22.1472948"><ele>1125.3333333333335</ele><time>2026-04-29T09:53:28.964Z</time></trkpt><trkpt lat="38.0163719" lon="22.1474435"><ele>1126.6666666666667</ele><time>2026-04-29T09:53:29.964Z</time></trkpt><trkpt lat="38.0162715" lon="22.1476073"><ele>1128.0</ele><time>2026-04-29T09:53:30.965Z</time></trkpt><trkpt lat="38.0161595" lon="22.1477897"><ele>1128.0</ele><time>2026-04-29T09:53:31.965Z</time></trkpt><trkpt lat="38.0160354" lon="22.1479651"><ele>1128.0</ele><time>2026-04-29T09:53:32.964Z</time></trkpt><trkpt lat="38.0159128" lon="22.1481484"><ele>1128.0</ele><time>2026-04-29T09:53:33.965Z</time></trkpt><trkpt lat="38.0157766" lon="22.1483183"><ele>1127.6666666666667</ele><time>2026-04-29T09:53:34.964Z</time></trkpt><trkpt lat="38.0156308" lon="22.1484697"><ele>1127.3333333333335</ele><time>2026-04-29T09:53:35.965Z</time></trkpt><trkpt lat="38.0154884" lon="22.1486065"><ele>1127.0</ele><time>2026-04-29T09:53:36.965Z</time></trkpt><trkpt lat="38.0153514" lon="22.1487414"><ele>1127.0</ele><time>2026-04-29T09:53:37.965Z</time></trkpt><trkpt lat="38.0152346" lon="22.1488942"><ele>1127.0</ele><time>2026-04-29T09:53:38.964Z</time></trkpt><trkpt lat="38.0151414" lon="22.149048"><ele>1127.0</ele><time>2026-04-29T09:53:39.965Z</time></trkpt><trkpt lat="38.0150695" lon="22.149213"><ele>1129.3333333333335</ele><time>2026-04-29T09:53:40.964Z</time></trkpt><trkpt lat="38.0150228" lon="22.1494051"><ele>1131.6666666666667</ele><time>2026-04-29T09:53:41.964Z</time></trkpt><trkpt lat="38.0149876" lon="22.1496189"><ele>1134.0</ele><time>2026-04-29T09:53:42.965Z</time></trkpt><trkpt lat="38.0149545" lon="22.1498564"><ele>1135.3333333333333</ele><time>2026-04-29T09:53:43.964Z</time></trkpt><trkpt lat="38.0149198" lon="22.1500916"><ele>1136.6666666666665</ele><time>2026-04-29T09:53:44.965Z</time></trkpt><trkpt lat="38.0148903" lon="22.1503289"><ele>1138.0</ele><time>2026-04-29T09:53:45.965Z</time></trkpt><trkpt lat="38.0148612" lon="22.1505737"><ele>1136.6666666666665</ele><time>2026-04-29T09:53:46.964Z</time></trkpt><trkpt lat="38.014834" lon="22.1508165"><ele>1135.3333333333333</ele><time>2026-04-29T09:53:47.965Z</time></trkpt><trkpt lat="38.0148112" lon="22.151061"><ele>1134.0</ele><time>2026-04-29T09:53:48.965Z</time></trkpt><trkpt lat="38.0147852" lon="22.1513"><ele>1134.6666666666667</ele><time>2026-04-29T09:53:49.965Z</time></trkpt><trkpt lat="38.0147596" lon="22.1515463"><ele>1135.3333333333335</ele><time>2026-04-29T09:53:50.964Z</time></trkpt><trkpt lat="38.0147327" lon="22.1517834"><ele>1136.0</ele><time>2026-04-29T09:53:51.965Z</time></trkpt><trkpt lat="38.0147081" lon="22.1520158"><ele>1136.0</ele><time>2026-04-29T09:53:52.964Z</time></trkpt><trkpt lat="38.0146796" lon="22.1522361"><ele>1136.0</ele><time>2026-04-29T09:53:53.965Z</time></trkpt><trkpt lat="38.0146539" lon="22.152457"><ele>1136.0</ele><time>2026-04-29T09:53:54.965Z</time></trkpt><trkpt lat="38.0146256" lon="22.1526699"><ele>1138.3333333333335</ele><time>2026-04-29T09:53:55.964Z</time></trkpt><trkpt lat="38.0145999" lon="22.1528821"><ele>1140.6666666666667</ele><time>2026-04-29T09:53:56.964Z</time></trkpt><trkpt lat="38.0145805" lon="22.1530952"><ele>1143.0</ele><time>2026-04-29T09:53:57.964Z</time></trkpt><trkpt lat="38.0145593" lon="22.15331"><ele>1144.6666666666667</ele><time>2026-04-29T09:53:58.964Z</time></trkpt><trkpt lat="38.0145375" lon="22.1535265"><ele>1146.3333333333335</ele><time>2026-04-29T09:53:59.965Z</time></trkpt><trkpt lat="38.0145134" lon="22.1537378"><ele>1148.0</ele><time>2026-04-29T09:54:00.964Z</time></trkpt><trkpt lat="38.014492" lon="22.1539474"><ele>1149.3333333333335</ele><time>2026-04-29T09:54:01.964Z</time></trkpt><trkpt lat="38.0144666" lon="22.1541653"><ele>1150.6666666666667</ele><time>2026-04-29T09:54:02.964Z</time></trkpt><trkpt lat="38.0144359" lon="22.1543767"><ele>1152.0</ele><time>2026-04-29T09:54:03.965Z</time></trkpt><trkpt lat="38.0144045" lon="22.1545913"><ele>1152.0</ele><time>2026-04-29T09:54:04.965Z</time></trkpt><trkpt lat="38.0143664" lon="22.1547982"><ele>1152.0</ele><time>2026-04-29T09:54:05.964Z</time></trkpt><trkpt lat="38.0143259" lon="22.1549811"><ele>1152.0</ele><time>2026-04-29T09:54:06.965Z</time></trkpt><trkpt lat="38.0142824" lon="22.1551472"><ele>1153.0</ele><time>2026-04-29T09:54:07.965Z</time></trkpt><trkpt lat="38.0142397" lon="22.1552988"><ele>1154.0</ele><time>2026-04-29T09:54:08.964Z</time></trkpt><trkpt lat="38.0141749" lon="22.155439"><ele>1155.0</ele><time>2026-04-29T09:54:09.965Z</time></trkpt><trkpt lat="38.0140798" lon="22.1555617"><ele>1156.0</ele><time>2026-04-29T09:54:10.964Z</time></trkpt><trkpt lat="38.0139588" lon="22.1556631"><ele>1159.0</ele><time>2026-04-29T09:54:11.965Z</time></trkpt><trkpt lat="38.0138204" lon="22.1557334"><ele>1162.0</ele><time>2026-04-29T09:54:12.964Z</time></trkpt><trkpt lat="38.0136881" lon="22.1557943"><ele>1165.0</ele><time>2026-04-29T09:54:13.964Z</time></trkpt><trkpt lat="38.0135434" lon="22.1558325"><ele>1168.0</ele><time>2026-04-29T09:54:14.965Z</time></trkpt><trkpt lat="38.0133916" lon="22.1558455"><ele>1171.5</ele><time>2026-04-29T09:54:15.965Z</time></trkpt><trkpt lat="38.0132502" lon="22.1558365"><ele>1175.0</ele><time>2026-04-29T09:54:16.965Z</time></trkpt><trkpt lat="38.0131148" lon="22.1557958"><ele>1178.5</ele><time>2026-04-29T09:54:17.965Z</time></trkpt><trkpt lat="38.0129996" lon="22.1557177"><ele>1182.0</ele><time>2026-04-29T09:54:18.964Z</time></trkpt><trkpt lat="38.0129192" lon="22.1555603"><ele>1182.0</ele><time>2026-04-29T09:54:19.965Z</time></trkpt><trkpt lat="38.0128626" lon="22.1553972"><ele>1182.0</ele><time>2026-04-29T09:54:20.964Z</time></trkpt><trkpt lat="38.0128186" lon="22.1552268"><ele>1182.0</ele><time>2026-04-29T09:54:21.964Z</time></trkpt><trkpt lat="38.0127651" lon="22.1550564"><ele>1182.0</ele><time>2026-04-29T09:54:22.965Z</time></trkpt><trkpt lat="38.0126897" lon="22.1549162"><ele>1183.5</ele><time>2026-04-29T09:54:23.965Z</time></trkpt><trkpt lat="38.0126184" lon="22.1548083"><ele>1185.0</ele><time>2026-04-29T09:54:24.964Z</time></trkpt><trkpt lat="38.0125149" lon="22.1547413"><ele>1186.5</ele><time>2026-04-29T09:54:25.965Z</time></trkpt><trkpt lat="38.0123853" lon="22.1547021"><ele>1188.0</ele><time>2026-04-29T09:54:26.965Z</time></trkpt><trkpt lat="38.0122479" lon="22.1546816"><ele>1188.0</ele><time>2026-04-29T09:54:27.965Z</time></trkpt><trkpt lat="38.0120982" lon="22.1546391"><ele>1188.0</ele><time>2026-04-29T09:54:28.964Z</time></trkpt><trkpt lat="38.0119485" lon="22.154595"><ele>1188.0</ele><time>2026-04-29T09:54:29.965Z</time></trkpt><trkpt lat="38.0118131" lon="22.154408"><ele>1188.0</ele><time>2026-04-29T09:54:30.964Z</time></trkpt><trkpt lat="38.0116795" lon="22.1542729"><ele>1188.0</ele><time>2026-04-29T09:54:31.965Z</time></trkpt><trkpt lat="38.0115702" lon="22.1541063"><ele>1188.0</ele><time>2026-04-29T09:54:32.965Z</time></trkpt><trkpt lat="38.011448" lon="22.1539491"><ele>1189.3333333333333</ele><time>2026-04-29T09:54:33.965Z</time></trkpt><trkpt lat="38.0113234" lon="22.1538184"><ele>1190.6666666666665</ele><time>2026-04-29T09:54:34.964Z</time></trkpt><trkpt lat="38.0111898" lon="22.1537211"><ele>1192.0</ele><time>2026-04-29T09:54:35.964Z</time></trkpt><trkpt lat="38.0110572" lon="22.1536642"><ele>1192.0</ele><time>2026-04-29T09:54:36.964Z</time></trkpt><trkpt lat="38.0109058" lon="22.1536493"><ele>1192.0</ele><time>2026-04-29T09:54:37.965Z</time></trkpt><trkpt lat="38.0107503" lon="22.1536904"><ele>1192.0</ele><time>2026-04-29T09:54:38.965Z</time></trkpt><trkpt lat="38.0105883" lon="22.1537692"><ele>1197.6666666666665</ele><time>2026-04-29T09:54:39.965Z</time></trkpt><trkpt lat="38.0104239" lon="22.1538628"><ele>1203.3333333333333</ele><time>2026-04-29T09:54:40.965Z</time></trkpt><trkpt lat="38.0102772" lon="22.1539487"><ele>1209.0</ele><time>2026-04-29T09:54:41.965Z</time></trkpt><trkpt lat="38.0101579" lon="22.1540134"><ele>1210.4</ele><time>2026-04-29T09:54:42.964Z</time></trkpt><trkpt lat="38.0100523" lon="22.1540509"><ele>1211.8000000000002</ele><time>2026-04-29T09:54:43.964Z</time></trkpt><trkpt lat="38.0099547" lon="22.1540629"><ele>1213.1999999999998</ele><time>2026-04-29T09:54:44.964Z</time></trkpt><trkpt lat="38.0098761" lon="22.1540037"><ele>1214.6</ele><time>2026-04-29T09:54:45.965Z</time></trkpt><trkpt lat="38.0098221" lon="22.1538895"><ele>1216.0</ele><time>2026-04-29T09:54:46.965Z</time></trkpt><trkpt lat="38.0098018" lon="22.1537411"><ele>1218.3333333333333</ele><time>2026-04-29T09:54:47.964Z</time></trkpt><trkpt lat="38.0097754" lon="22.1535868"><ele>1220.6666666666667</ele><time>2026-04-29T09:54:48.964Z</time></trkpt><trkpt lat="38.0097892" lon="22.1533705"><ele>1223.0</ele><time>2026-04-29T09:54:49.965Z</time></trkpt><trkpt lat="38.0097998" lon="22.1531694"><ele>1223.0</ele><time>2026-04-29T09:54:50.964Z</time></trkpt><trkpt lat="38.0098047" lon="22.1529838"><ele>1223.0</ele><time>2026-04-29T09:54:51.965Z</time></trkpt><trkpt lat="38.009785" lon="22.1528198"><ele>1223.0</ele><time>2026-04-29T09:54:52.964Z</time></trkpt><trkpt lat="38.0097408" lon="22.1526647"><ele>1223.0</ele><time>2026-04-29T09:54:53.965Z</time></trkpt><trkpt lat="38.0096659" lon="22.1525359"><ele>1223.0</ele><time>2026-04-29T09:54:54.965Z</time></trkpt><trkpt lat="38.0095658" lon="22.1524282"><ele>1223.0</ele><time>2026-04-29T09:54:55.964Z</time></trkpt><trkpt lat="38.0094363" lon="22.1523542"><ele>1223.0</ele><time>2026-04-29T09:54:56.964Z</time></trkpt><trkpt lat="38.0092781" lon="22.1523004"><ele>1223.0</ele><time>2026-04-29T09:54:57.965Z</time></trkpt><trkpt lat="38.0091096" lon="22.1522624"><ele>1223.6666666666667</ele><time>2026-04-29T09:54:58.965Z</time></trkpt><trkpt lat="38.0089354" lon="22.1522382"><ele>1224.3333333333333</ele><time>2026-04-29T09:54:59.964Z</time></trkpt><trkpt lat="38.0087548" lon="22.152214"><ele>1225.0</ele><time>2026-04-29T09:55:00.965Z</time></trkpt><trkpt lat="38.0085924" lon="22.1521966"><ele>1225.0</ele><time>2026-04-29T09:55:01.965Z</time></trkpt><trkpt lat="38.0084398" lon="22.1521669"><ele>1225.0</ele><time>2026-04-29T09:55:02.965Z</time></trkpt><trkpt lat="38.0082999" lon="22.1521228"><ele>1225.0</ele><time>2026-04-29T09:55:03.964Z</time></trkpt><trkpt lat="38.0081654" lon="22.1520548"><ele>1225.0</ele><time>2026-04-29T09:55:04.964Z</time></trkpt><trkpt lat="38.0080389" lon="22.1519731"><ele>1230.5</ele><time>2026-04-29T09:55:05.964Z</time></trkpt><trkpt lat="38.007919" lon="22.1518902"><ele>1236.0</ele><time>2026-04-29T09:55:06.965Z</time></trkpt><trkpt lat="38.0078251" lon="22.1517971"><ele>1241.5</ele><time>2026-04-29T09:55:07.965Z</time></trkpt><trkpt lat="38.0077524" lon="22.1516897"><ele>1247.0</ele><time>2026-04-29T09:55:08.965Z</time></trkpt><trkpt lat="38.0077084" lon="22.1515616"><ele>1247.25</ele><time>2026-04-29T09:55:09.965Z</time></trkpt><trkpt lat="38.0076905" lon="22.1514137"><ele>1247.5</ele><time>2026-04-29T09:55:10.964Z</time></trkpt><trkpt lat="38.0076831" lon="22.1512542"><ele>1247.75</ele><time>2026-04-29T09:55:11.964Z</time></trkpt><trkpt lat="38.0076933" lon="22.1510881"><ele>1248.0</ele><time>2026-04-29T09:55:12.964Z</time></trkpt><trkpt lat="38.0077121" lon="22.150925"><ele>1248.0</ele><time>2026-04-29T09:55:13.964Z</time></trkpt><trkpt lat="38.0077347" lon="22.1507665"><ele>1248.0</ele><time>2026-04-29T09:55:14.965Z</time></trkpt><trkpt lat="38.0077557" lon="22.1506118"><ele>1248.0</ele><time>2026-04-29T09:55:15.965Z</time></trkpt><trkpt lat="38.0077805" lon="22.1504525"><ele>1248.0</ele><time>2026-04-29T09:55:16.965Z</time></trkpt><trkpt lat="38.0077926" lon="22.1502971"><ele>1249.5</ele><time>2026-04-29T09:55:17.965Z</time></trkpt><trkpt lat="38.0077993" lon="22.1501417"><ele>1251.0</ele><time>2026-04-29T09:55:18.965Z</time></trkpt><trkpt lat="38.0078077" lon="22.1499927"><ele>1252.5</ele><time>2026-04-29T09:55:19.964Z</time></trkpt><trkpt lat="38.0078209" lon="22.1498477"><ele>1254.0</ele><time>2026-04-29T09:55:20.965Z</time></trkpt><trkpt lat="38.0078358" lon="22.1497165"><ele>1254.0</ele><time>2026-04-29T09:55:21.964Z</time></trkpt><trkpt lat="38.0078543" lon="22.1495871"><ele>1254.0</ele><time>2026-04-29T09:55:22.965Z</time></trkpt><trkpt lat="38.0078637" lon="22.149484"><ele>1254.0</ele><time>2026-04-29T09:55:23.964Z</time></trkpt><trkpt lat="38.007862" lon="22.1493962"><ele>1254.0</ele><time>2026-04-29T09:55:24.965Z</time></trkpt><trkpt lat="38.0078316" lon="22.1492387"><ele>1254.0</ele><time>2026-04-29T09:55:26.964Z</time></trkpt><trkpt lat="38.0078083" lon="22.149148"><ele>1254.0</ele><time>2026-04-29T09:55:27.965Z</time></trkpt><trkpt lat="38.0077788" lon="22.1490465"><ele>1254.0</ele><time>2026-04-29T09:55:28.964Z</time></trkpt><trkpt lat="38.0077464" lon="22.1489271"><ele>1254.0</ele><time>2026-04-29T09:55:29.964Z</time></trkpt><trkpt lat="38.0077125" lon="22.1487918"><ele>1254.0</ele><time>2026-04-29T09:55:30.964Z</time></trkpt><trkpt lat="38.0076743" lon="22.1486547"><ele>1254.0</ele><time>2026-04-29T09:55:31.965Z</time></trkpt><trkpt lat="38.0076368" lon="22.1485082"><ele>1251.75</ele><time>2026-04-29T09:55:32.965Z</time></trkpt><trkpt lat="38.0075936" lon="22.1483532"><ele>1249.5</ele><time>2026-04-29T09:55:33.964Z</time></trkpt><trkpt lat="38.0075389" lon="22.1481896"><ele>1247.25</ele><time>2026-04-29T09:55:34.965Z</time></trkpt><trkpt lat="38.0074907" lon="22.1480253"><ele>1245.0</ele><time>2026-04-29T09:55:35.964Z</time></trkpt><trkpt lat="38.007438" lon="22.1478573"><ele>1245.0</ele><time>2026-04-29T09:55:36.965Z</time></trkpt><trkpt lat="38.0073896" lon="22.1476887"><ele>1245.0</ele><time>2026-04-29T09:55:37.964Z</time></trkpt><trkpt lat="38.0073404" lon="22.1475266"><ele>1245.0</ele><time>2026-04-29T09:55:38.965Z</time></trkpt><trkpt lat="38.0072875" lon="22.1473648"><ele>1245.0</ele><time>2026-04-29T09:55:39.964Z</time></trkpt><trkpt lat="38.0072275" lon="22.1472059"><ele>1240.5</ele><time>2026-04-29T09:55:40.964Z</time></trkpt><trkpt lat="38.0071832" lon="22.1470652"><ele>1236.0</ele><time>2026-04-29T09:55:41.965Z</time></trkpt><trkpt lat="38.0071414" lon="22.1469225"><ele>1231.5</ele><time>2026-04-29T09:55:42.965Z</time></trkpt><trkpt lat="38.0070934" lon="22.1467767"><ele>1227.0</ele><time>2026-04-29T09:55:43.964Z</time></trkpt><trkpt lat="38.0070517" lon="22.146634"><ele>1226.0</ele><time>2026-04-29T09:55:44.965Z</time></trkpt><trkpt lat="38.0070212" lon="22.1464888"><ele>1225.0</ele><time>2026-04-29T09:55:45.964Z</time></trkpt><trkpt lat="38.0069883" lon="22.1463432"><ele>1224.0</ele><time>2026-04-29T09:55:46.964Z</time></trkpt><trkpt lat="38.0069527" lon="22.1461932"><ele>1223.0</ele><time>2026-04-29T09:55:47.965Z</time></trkpt><trkpt lat="38.0069254" lon="22.1460339"><ele>1223.0</ele><time>2026-04-29T09:55:48.965Z</time></trkpt><trkpt lat="38.0068911" lon="22.14586"><ele>1223.0</ele><time>2026-04-29T09:55:49.965Z</time></trkpt><trkpt lat="38.0068691" lon="22.1456937"><ele>1223.0</ele><time>2026-04-29T09:55:50.965Z</time></trkpt><trkpt lat="38.0068684" lon="22.1455222"><ele>1223.0</ele><time>2026-04-29T09:55:51.965Z</time></trkpt><trkpt lat="38.006886" lon="22.145343"><ele>1221.5</ele><time>2026-04-29T09:55:52.965Z</time></trkpt><trkpt lat="38.0069264" lon="22.1451688"><ele>1220.0</ele><time>2026-04-29T09:55:53.965Z</time></trkpt><trkpt lat="38.006985" lon="22.1449933"><ele>1218.5</ele><time>2026-04-29T09:55:54.964Z</time></trkpt><trkpt lat="38.0070503" lon="22.1448136"><ele>1217.0</ele><time>2026-04-29T09:55:55.965Z</time></trkpt><trkpt lat="38.0071157" lon="22.1446272"><ele>1213.0</ele><time>2026-04-29T09:55:56.965Z</time></trkpt><trkpt lat="38.0071707" lon="22.1444449"><ele>1209.0</ele><time>2026-04-29T09:55:57.964Z</time></trkpt><trkpt lat="38.0072298" lon="22.1442644"><ele>1205.0</ele><time>2026-04-29T09:55:58.964Z</time></trkpt><trkpt lat="38.0072839" lon="22.1440804"><ele>1201.0</ele><time>2026-04-29T09:55:59.965Z</time></trkpt><trkpt lat="38.0073282" lon="22.1438878"><ele>1197.0</ele><time>2026-04-29T09:56:00.964Z</time></trkpt><trkpt lat="38.0073374" lon="22.1436891"><ele>1193.0</ele><time>2026-04-29T09:56:01.965Z</time></trkpt><trkpt lat="38.0073217" lon="22.1434869"><ele>1193.0</ele><time>2026-04-29T09:56:02.965Z</time></trkpt><trkpt lat="38.0072807" lon="22.1432817"><ele>1193.0</ele><time>2026-04-29T09:56:03.965Z</time></trkpt><trkpt lat="38.0072409" lon="22.1430798"><ele>1193.0</ele><time>2026-04-29T09:56:04.965Z</time></trkpt><trkpt lat="38.0072027" lon="22.1428694"><ele>1193.6666666666667</ele><time>2026-04-29T09:56:05.964Z</time></trkpt><trkpt lat="38.0071738" lon="22.1426624"><ele>1194.3333333333333</ele><time>2026-04-29T09:56:06.965Z</time></trkpt><trkpt lat="38.0071681" lon="22.1424714"><ele>1195.0</ele><time>2026-04-29T09:56:07.964Z</time></trkpt><trkpt lat="38.007186" lon="22.1422868"><ele>1193.75</ele><time>2026-04-29T09:56:08.965Z</time></trkpt><trkpt lat="38.0072414" lon="22.1421156"><ele>1192.5</ele><time>2026-04-29T09:56:09.964Z</time></trkpt><trkpt lat="38.0073187" lon="22.1419637"><ele>1191.25</ele><time>2026-04-29T09:56:10.964Z</time></trkpt><trkpt lat="38.0073904" lon="22.1418072"><ele>1190.0</ele><time>2026-04-29T09:56:11.965Z</time></trkpt><trkpt lat="38.0074413" lon="22.1416441"><ele>1190.3333333333335</ele><time>2026-04-29T09:56:12.965Z</time></trkpt><trkpt lat="38.0074628" lon="22.1414664"><ele>1190.6666666666667</ele><time>2026-04-29T09:56:13.965Z</time></trkpt><trkpt lat="38.007458" lon="22.1412761"><ele>1191.0</ele><time>2026-04-29T09:56:14.964Z</time></trkpt><trkpt lat="38.0074405" lon="22.1410715"><ele>1191.0</ele><time>2026-04-29T09:56:15.964Z</time></trkpt><trkpt lat="38.0074169" lon="22.1408567"><ele>1191.0</ele><time>2026-04-29T09:56:16.964Z</time></trkpt><trkpt lat="38.0073996" lon="22.1406508"><ele>1191.0</ele><time>2026-04-29T09:56:17.964Z</time></trkpt><trkpt lat="38.0073742" lon="22.1404403"><ele>1194.3333333333333</ele><time>2026-04-29T09:56:18.964Z</time></trkpt><trkpt lat="38.0073348" lon="22.1402318"><ele>1197.6666666666665</ele><time>2026-04-29T09:56:19.965Z</time></trkpt><trkpt lat="38.0072688" lon="22.1400326"><ele>1201.0</ele><time>2026-04-29T09:56:20.965Z</time></trkpt><trkpt lat="38.007185" lon="22.1398538"><ele>1209.0</ele><time>2026-04-29T09:56:21.964Z</time></trkpt><trkpt lat="38.0070879" lon="22.1396927"><ele>1217.0</ele><time>2026-04-29T09:56:22.964Z</time></trkpt><trkpt lat="38.0069539" lon="22.1395692"><ele>1225.0</ele><time>2026-04-29T09:56:23.965Z</time></trkpt><trkpt lat="38.0068158" lon="22.139457"><ele>1225.0</ele><time>2026-04-29T09:56:24.964Z</time></trkpt><trkpt lat="38.0066736" lon="22.1393501"><ele>1225.0</ele><time>2026-04-29T09:56:25.964Z</time></trkpt><trkpt lat="38.0065321" lon="22.1392319"><ele>1225.0</ele><time>2026-04-29T09:56:26.965Z</time></trkpt><trkpt lat="38.0064107" lon="22.1390968"><ele>1220.0</ele><time>2026-04-29T09:56:27.964Z</time></trkpt><trkpt lat="38.0062889" lon="22.1389273"><ele>1215.0</ele><time>2026-04-29T09:56:28.964Z</time></trkpt><trkpt lat="38.0061772" lon="22.1387389"><ele>1210.0</ele><time>2026-04-29T09:56:29.964Z</time></trkpt><trkpt lat="38.0060684" lon="22.1385373"><ele>1210.0</ele><time>2026-04-29T09:56:30.964Z</time></trkpt><trkpt lat="38.0059647" lon="22.1383473"><ele>1210.0</ele><time>2026-04-29T09:56:31.964Z</time></trkpt><trkpt lat="38.0058488" lon="22.1381769"><ele>1210.0</ele><time>2026-04-29T09:56:32.964Z</time></trkpt><trkpt lat="38.0057119" lon="22.1380292"><ele>1204.6666666666665</ele><time>2026-04-29T09:56:33.965Z</time></trkpt><trkpt lat="38.0055589" lon="22.1378873"><ele>1199.3333333333333</ele><time>2026-04-29T09:56:34.965Z</time></trkpt><trkpt lat="38.0054025" lon="22.1377563"><ele>1194.0</ele><time>2026-04-29T09:56:35.965Z</time></trkpt><trkpt lat="38.0052487" lon="22.1376265"><ele>1194.0</ele><time>2026-04-29T09:56:36.964Z</time></trkpt><trkpt lat="38.005117" lon="22.1374528"><ele>1194.0</ele><time>2026-04-29T09:56:37.965Z</time></trkpt><trkpt lat="38.0049829" lon="22.1372864"><ele>1194.0</ele><time>2026-04-29T09:56:38.964Z</time></trkpt><trkpt lat="38.0048686" lon="22.1370957"><ele>1192.3333333333333</ele><time>2026-04-29T09:56:39.965Z</time></trkpt><trkpt lat="38.0047523" lon="22.1369026"><ele>1190.6666666666665</ele><time>2026-04-29T09:56:40.965Z</time></trkpt><trkpt lat="38.0046434" lon="22.1367051"><ele>1189.0</ele><time>2026-04-29T09:56:41.964Z</time></trkpt><trkpt lat="38.0045261" lon="22.1365147"><ele>1189.0</ele><time>2026-04-29T09:56:42.964Z</time></trkpt><trkpt lat="38.0044133" lon="22.1363326"><ele>1189.0</ele><time>2026-04-29T09:56:43.965Z</time></trkpt><trkpt lat="38.0043118" lon="22.1361581"><ele>1189.0</ele><time>2026-04-29T09:56:44.965Z</time></trkpt><trkpt lat="38.0042192" lon="22.1360007"><ele>1182.8</ele><time>2026-04-29T09:56:45.965Z</time></trkpt><trkpt lat="38.004144" lon="22.1358977"><ele>1176.6000000000001</ele><time>2026-04-29T09:56:46.965Z</time></trkpt><trkpt lat="38.0040679" lon="22.1358276"><ele>1170.4</ele><time>2026-04-29T09:56:47.965Z</time></trkpt><trkpt lat="38.003991" lon="22.1357922"><ele>1164.2</ele><time>2026-04-29T09:56:48.964Z</time></trkpt><trkpt lat="38.0039176" lon="22.1358475"><ele>1158.0</ele><time>2026-04-29T09:56:49.964Z</time></trkpt><trkpt lat="38.0038741" lon="22.1359344"><ele>1158.0</ele><time>2026-04-29T09:56:50.965Z</time></trkpt><trkpt lat="38.0038722" lon="22.1360425"><ele>1158.0</ele><time>2026-04-29T09:56:51.964Z</time></trkpt><trkpt lat="38.0039159" lon="22.1361553"><ele>1158.0</ele><time>2026-04-29T09:56:52.965Z</time></trkpt><trkpt lat="38.003968" lon="22.1362685"><ele>1158.0</ele><time>2026-04-29T09:56:53.965Z</time></trkpt><trkpt lat="38.0040288" lon="22.1363914"><ele>1158.0</ele><time>2026-04-29T09:56:54.964Z</time></trkpt><trkpt lat="38.0040911" lon="22.1365173"><ele>1156.0</ele><time>2026-04-29T09:56:55.964Z</time></trkpt><trkpt lat="38.0041577" lon="22.1366537"><ele>1154.0</ele><time>2026-04-29T09:56:56.964Z</time></trkpt><trkpt lat="38.0042254" lon="22.1367793"><ele>1152.0</ele><time>2026-04-29T09:56:57.965Z</time></trkpt><trkpt lat="38.0042895" lon="22.1369009"><ele>1150.0</ele><time>2026-04-29T09:56:58.965Z</time></trkpt><trkpt lat="38.0043402" lon="22.1370206"><ele>1150.0</ele><time>2026-04-29T09:56:59.965Z</time></trkpt><trkpt lat="38.0043659" lon="22.1371343"><ele>1150.0</ele><time>2026-04-29T09:57:00.964Z</time></trkpt><trkpt lat="38.004361" lon="22.1372343"><ele>1150.0</ele><time>2026-04-29T09:57:01.965Z</time></trkpt><trkpt lat="38.0043486" lon="22.1373341"><ele>1150.0</ele><time>2026-04-29T09:57:02.965Z</time></trkpt><trkpt lat="38.0042654" lon="22.1373395"><ele>1150.0</ele><time>2026-04-29T09:57:03.965Z</time></trkpt><trkpt lat="38.0041938" lon="22.1373404"><ele>1150.0</ele><time>2026-04-29T09:57:04.964Z</time></trkpt><trkpt lat="38.0041246" lon="22.1372729"><ele>1150.0</ele><time>2026-04-29T09:57:05.965Z</time></trkpt><trkpt lat="38.0040412" lon="22.1371639"><ele>1150.0</ele><time>2026-04-29T09:57:06.964Z</time></trkpt><trkpt lat="38.0039643" lon="22.1370435"><ele>1150.0</ele><time>2026-04-29T09:57:07.964Z</time></trkpt><trkpt lat="38.0038874" lon="22.1369222"><ele>1150.0</ele><time>2026-04-29T09:57:08.964Z</time></trkpt><trkpt lat="38.0038057" lon="22.1367899"><ele>1150.0</ele><time>2026-04-29T09:57:09.965Z</time></trkpt><trkpt lat="38.0037337" lon="22.136653"><ele>1150.0</ele><time>2026-04-29T09:57:10.965Z</time></trkpt><trkpt lat="38.0036553" lon="22.1364925"><ele>1150.0</ele><time>2026-04-29T09:57:11.965Z</time></trkpt><trkpt lat="38.0035816" lon="22.1363291"><ele>1150.0</ele><time>2026-04-29T09:57:12.965Z</time></trkpt><trkpt lat="38.0035099" lon="22.1361686"><ele>1151.0</ele><time>2026-04-29T09:57:13.965Z</time></trkpt><trkpt lat="38.0034365" lon="22.1360081"><ele>1152.0</ele><time>2026-04-29T09:57:14.964Z</time></trkpt><trkpt lat="38.0033542" lon="22.1358694"><ele>1153.0</ele><time>2026-04-29T09:57:15.965Z</time></trkpt><trkpt lat="38.0032591" lon="22.1357494"><ele>1154.0</ele><time>2026-04-29T09:57:16.965Z</time></trkpt><trkpt lat="38.003153" lon="22.1356514"><ele>1154.0</ele><time>2026-04-29T09:57:17.965Z</time></trkpt><trkpt lat="38.0030256" lon="22.1355782"><ele>1154.0</ele><time>2026-04-29T09:57:18.964Z</time></trkpt><trkpt lat="38.0029043" lon="22.1354974"><ele>1154.0</ele><time>2026-04-29T09:57:19.965Z</time></trkpt><trkpt lat="38.0027868" lon="22.1354159"><ele>1154.0</ele><time>2026-04-29T09:57:20.965Z</time></trkpt><trkpt lat="38.0026657" lon="22.135334"><ele>1154.0</ele><time>2026-04-29T09:57:21.964Z</time></trkpt><trkpt lat="38.0025496" lon="22.1352396"><ele>1154.0</ele><time>2026-04-29T09:57:22.965Z</time></trkpt><trkpt lat="38.0024402" lon="22.1351348"><ele>1154.0</ele><time>2026-04-29T09:57:23.964Z</time></trkpt><trkpt lat="38.0023384" lon="22.1350109"><ele>1154.0</ele><time>2026-04-29T09:57:24.965Z</time></trkpt><trkpt lat="38.0022593" lon="22.1348622"><ele>1147.0</ele><time>2026-04-29T09:57:25.965Z</time></trkpt><trkpt lat="38.0021953" lon="22.1346967"><ele>1140.0</ele><time>2026-04-29T09:57:26.965Z</time></trkpt><trkpt lat="38.0021326" lon="22.1345247"><ele>1133.0</ele><time>2026-04-29T09:57:27.965Z</time></trkpt><trkpt lat="38.002068" lon="22.1343478"><ele>1126.0</ele><time>2026-04-29T09:57:28.965Z</time></trkpt><trkpt lat="38.0020063" lon="22.1341775"><ele>1128.6666666666665</ele><time>2026-04-29T09:57:29.964Z</time></trkpt><trkpt lat="38.0019418" lon="22.1340089"><ele>1131.3333333333333</ele><time>2026-04-29T09:57:30.965Z</time></trkpt><trkpt lat="38.0018782" lon="22.1338359"><ele>1134.0</ele><time>2026-04-29T09:57:31.965Z</time></trkpt><trkpt lat="38.0018127" lon="22.1336585"><ele>1134.0</ele><time>2026-04-29T09:57:32.964Z</time></trkpt><trkpt lat="38.00175" lon="22.1334694"><ele>1134.0</ele><time>2026-04-29T09:57:33.965Z</time></trkpt><trkpt lat="38.001686" lon="22.1332719"><ele>1134.0</ele><time>2026-04-29T09:57:34.965Z</time></trkpt><trkpt lat="38.0016385" lon="22.1330733"><ele>1123.0</ele><time>2026-04-29T09:57:35.964Z</time></trkpt><trkpt lat="38.0016019" lon="22.1328638"><ele>1112.0</ele><time>2026-04-29T09:57:36.965Z</time></trkpt><trkpt lat="38.0015719" lon="22.1326517"><ele>1101.0</ele><time>2026-04-29T09:57:37.964Z</time></trkpt><trkpt lat="38.0015376" lon="22.1324506"><ele>1101.0</ele><time>2026-04-29T09:57:38.965Z</time></trkpt><trkpt lat="38.0014996" lon="22.1322658"><ele>1101.0</ele><time>2026-04-29T09:57:39.964Z</time></trkpt><trkpt lat="38.0014764" lon="22.1320933"><ele>1101.0</ele><time>2026-04-29T09:57:40.964Z</time></trkpt><trkpt lat="38.0014495" lon="22.13192"><ele>1101.0</ele><time>2026-04-29T09:57:41.964Z</time></trkpt><trkpt lat="38.0014247" lon="22.1317599"><ele>1101.0</ele><time>2026-04-29T09:57:42.964Z</time></trkpt><trkpt lat="38.0014068" lon="22.1316165"><ele>1101.0</ele><time>2026-04-29T09:57:43.964Z</time></trkpt><trkpt lat="38.0013898" lon="22.1314883"><ele>1101.0</ele><time>2026-04-29T09:57:44.964Z</time></trkpt><trkpt lat="38.0013637" lon="22.1313788"><ele>1101.0</ele><time>2026-04-29T09:57:45.964Z</time></trkpt><trkpt lat="38.0013295" lon="22.1312884"><ele>1101.0</ele><time>2026-04-29T09:57:46.965Z</time></trkpt><trkpt lat="38.0012753" lon="22.131229"><ele>1101.0</ele><time>2026-04-29T09:57:47.965Z</time></trkpt><trkpt lat="38.0011663" lon="22.1312392"><ele>1101.0</ele><time>2026-04-29T09:57:49.964Z</time></trkpt><trkpt lat="38.0011297" lon="22.1313172"><ele>1101.0</ele><time>2026-04-29T09:57:50.964Z</time></trkpt><trkpt lat="38.0011233" lon="22.1314403"><ele>1101.0</ele><time>2026-04-29T09:57:51.964Z</time></trkpt><trkpt lat="38.0011384" lon="22.1315668"><ele>1101.0</ele><time>2026-04-29T09:57:52.965Z</time></trkpt><trkpt lat="38.00115" lon="22.1317085"><ele>1101.0</ele><time>2026-04-29T09:57:53.965Z</time></trkpt><trkpt lat="38.0011496" lon="22.1318716"><ele>1101.0</ele><time>2026-04-29T09:57:54.965Z</time></trkpt><trkpt lat="38.0011414" lon="22.1320418"><ele>1101.0</ele><time>2026-04-29T09:57:55.964Z</time></trkpt><trkpt lat="38.0011307" lon="22.13222"><ele>1101.0</ele><time>2026-04-29T09:57:56.965Z</time></trkpt><trkpt lat="38.0011074" lon="22.1324081"><ele>1101.0</ele><time>2026-04-29T09:57:57.964Z</time></trkpt><trkpt lat="38.0010748" lon="22.1325979"><ele>1101.0</ele><time>2026-04-29T09:57:58.965Z</time></trkpt><trkpt lat="38.0010365" lon="22.1327864"><ele>1101.0</ele><time>2026-04-29T09:57:59.964Z</time></trkpt><trkpt lat="38.000997" lon="22.132968"><ele>1101.0</ele><time>2026-04-29T09:58:00.964Z</time></trkpt><trkpt lat="38.0009759" lon="22.1331552"><ele>1101.0</ele><time>2026-04-29T09:58:01.964Z</time></trkpt><trkpt lat="38.0009786" lon="22.1333456"><ele>1101.0</ele><time>2026-04-29T09:58:02.965Z</time></trkpt><trkpt lat="38.0010054" lon="22.1335649"><ele>1101.0</ele><time>2026-04-29T09:58:03.964Z</time></trkpt><trkpt lat="38.0010339" lon="22.1337723"><ele>1101.0</ele><time>2026-04-29T09:58:04.964Z</time></trkpt><trkpt lat="38.0010753" lon="22.1339757"><ele>1101.0</ele><time>2026-04-29T09:58:05.965Z</time></trkpt><trkpt lat="38.0011063" lon="22.134185"><ele>1097.3333333333333</ele><time>2026-04-29T09:58:06.965Z</time></trkpt><trkpt lat="38.0011311" lon="22.1343846"><ele>1093.6666666666665</ele><time>2026-04-29T09:58:07.965Z</time></trkpt><trkpt lat="38.0011577" lon="22.134581"><ele>1090.0</ele><time>2026-04-29T09:58:08.965Z</time></trkpt><trkpt lat="38.0011864" lon="22.1347757"><ele>1088.75</ele><time>2026-04-29T09:58:09.965Z</time></trkpt><trkpt lat="38.0012046" lon="22.1349682"><ele>1087.5</ele><time>2026-04-29T09:58:10.964Z</time></trkpt><trkpt lat="38.0012193" lon="22.1351554"><ele>1086.25</ele><time>2026-04-29T09:58:11.964Z</time></trkpt><trkpt lat="38.0012256" lon="22.1353349"><ele>1085.0</ele><time>2026-04-29T09:58:12.965Z</time></trkpt><trkpt lat="38.001232" lon="22.1355097"><ele>1085.0</ele><time>2026-04-29T09:58:13.965Z</time></trkpt><trkpt lat="38.0012258" lon="22.1356684"><ele>1085.0</ele><time>2026-04-29T09:58:14.965Z</time></trkpt><trkpt lat="38.0012192" lon="22.135805"><ele>1085.0</ele><time>2026-04-29T09:58:15.964Z</time></trkpt><trkpt lat="38.0011971" lon="22.1359275"><ele>1085.0</ele><time>2026-04-29T09:58:16.965Z</time></trkpt><trkpt lat="38.0011486" lon="22.1360234"><ele>1085.0</ele><time>2026-04-29T09:58:17.964Z</time></trkpt><trkpt lat="38.0010856" lon="22.1360898"><ele>1086.2</ele><time>2026-04-29T09:58:18.965Z</time></trkpt><trkpt lat="38.0010088" lon="22.1360667"><ele>1087.4</ele><time>2026-04-29T09:58:19.965Z</time></trkpt><trkpt lat="38.0009437" lon="22.1359964"><ele>1088.6</ele><time>2026-04-29T09:58:20.964Z</time></trkpt><trkpt lat="38.0008947" lon="22.1358998"><ele>1089.8</ele><time>2026-04-29T09:58:21.964Z</time></trkpt><trkpt lat="38.000856" lon="22.135781"><ele>1091.0</ele><time>2026-04-29T09:58:22.965Z</time></trkpt><trkpt lat="38.000809" lon="22.1356524"><ele>1087.2</ele><time>2026-04-29T09:58:23.964Z</time></trkpt><trkpt lat="38.000742" lon="22.1355279"><ele>1083.3999999999999</ele><time>2026-04-29T09:58:24.965Z</time></trkpt><trkpt lat="38.0006786" lon="22.1354012"><ele>1079.6</ele><time>2026-04-29T09:58:25.964Z</time></trkpt><trkpt lat="38.0005843" lon="22.1353267"><ele>1075.8</ele><time>2026-04-29T09:58:26.964Z</time></trkpt><trkpt lat="38.0005021" lon="22.13528"><ele>1072.0</ele><time>2026-04-29T09:58:27.965Z</time></trkpt><trkpt lat="38.0004124" lon="22.135276"><ele>1072.0</ele><time>2026-04-29T09:58:28.965Z</time></trkpt><trkpt lat="38.0003405" lon="22.1353151"><ele>1072.0</ele><time>2026-04-29T09:58:29.965Z</time></trkpt><trkpt lat="38.0002822" lon="22.1353969"><ele>1072.0</ele><time>2026-04-29T09:58:30.964Z</time></trkpt><trkpt lat="38.0002554" lon="22.1355029"><ele>1072.0</ele><time>2026-04-29T09:58:31.965Z</time></trkpt><trkpt lat="38.0002459" lon="22.1356308"><ele>1072.0</ele><time>2026-04-29T09:58:32.964Z</time></trkpt><trkpt lat="38.0002493" lon="22.1357738"><ele>1072.75</ele><time>2026-04-29T09:58:33.965Z</time></trkpt><trkpt lat="38.0002358" lon="22.1359346"><ele>1073.5</ele><time>2026-04-29T09:58:34.965Z</time></trkpt><trkpt lat="38.0002116" lon="22.1360935"><ele>1074.25</ele><time>2026-04-29T09:58:35.964Z</time></trkpt><trkpt lat="38.0001872" lon="22.1362426"><ele>1075.0</ele><time>2026-04-29T09:58:36.964Z</time></trkpt><trkpt lat="38.0001729" lon="22.1363786"><ele>1075.0</ele><time>2026-04-29T09:58:37.964Z</time></trkpt><trkpt lat="38.0001654" lon="22.1364955"><ele>1075.0</ele><time>2026-04-29T09:58:38.965Z</time></trkpt><trkpt lat="38.0001586" lon="22.1365756"><ele>1075.0</ele><time>2026-04-29T09:58:39.965Z</time></trkpt><trkpt lat="38.0001069" lon="22.1366559"><ele>1075.0</ele><time>2026-04-29T09:58:41.964Z</time></trkpt><trkpt lat="38.0000404" lon="22.1365776"><ele>1075.0</ele><time>2026-04-29T09:58:43.965Z</time></trkpt><trkpt lat="38.0000313" lon="22.1364864"><ele>1075.0</ele><time>2026-04-29T09:58:44.965Z</time></trkpt><trkpt lat="38.0000098" lon="22.1363661"><ele>1075.0</ele><time>2026-04-29T09:58:45.964Z</time></trkpt><trkpt lat="38.0000085" lon="22.1362266"><ele>1075.0</ele><time>2026-04-29T09:58:46.964Z</time></trkpt><trkpt lat="37.9999908" lon="22.1360837"><ele>1075.0</ele><time>2026-04-29T09:58:47.965Z</time></trkpt><trkpt lat="37.9999576" lon="22.135937"><ele>1075.0</ele><time>2026-04-29T09:58:48.964Z</time></trkpt><trkpt lat="37.9999143" lon="22.1357781"><ele>1074.25</ele><time>2026-04-29T09:58:49.965Z</time></trkpt><trkpt lat="37.9998746" lon="22.1356141"><ele>1073.5</ele><time>2026-04-29T09:58:50.964Z</time></trkpt><trkpt lat="37.9998326" lon="22.1354488"><ele>1072.75</ele><time>2026-04-29T09:58:51.964Z</time></trkpt><trkpt lat="37.9997995" lon="22.1352906"><ele>1072.0</ele><time>2026-04-29T09:58:52.964Z</time></trkpt><trkpt lat="37.999758" lon="22.1351298"><ele>1072.0</ele><time>2026-04-29T09:58:53.965Z</time></trkpt><trkpt lat="37.9997231" lon="22.1349747"><ele>1072.0</ele><time>2026-04-29T09:58:54.965Z</time></trkpt><trkpt lat="37.9996996" lon="22.1348321"><ele>1072.0</ele><time>2026-04-29T09:58:55.964Z</time></trkpt><trkpt lat="37.9996815" lon="22.1346992"><ele>1072.0</ele><time>2026-04-29T09:58:56.965Z</time></trkpt><trkpt lat="37.999671" lon="22.1345918"><ele>1072.0</ele><time>2026-04-29T09:58:57.964Z</time></trkpt><trkpt lat="37.9996451" lon="22.1345006"><ele>1070.5</ele><time>2026-04-29T09:58:58.964Z</time></trkpt><trkpt lat="37.9995437" lon="22.1344197"><ele>1069.0</ele><time>2026-04-29T09:59:00.964Z</time></trkpt><trkpt lat="37.999436" lon="22.1345188"><ele>1067.5</ele><time>2026-04-29T09:59:02.965Z</time></trkpt><trkpt lat="37.9993955" lon="22.1346317"><ele>1066.0</ele><time>2026-04-29T09:59:03.964Z</time></trkpt><trkpt lat="37.9993767" lon="22.134765"><ele>1067.5</ele><time>2026-04-29T09:59:04.964Z</time></trkpt><trkpt lat="37.9993701" lon="22.134916"><ele>1069.0</ele><time>2026-04-29T09:59:05.965Z</time></trkpt><trkpt lat="37.9993849" lon="22.1350728"><ele>1070.5</ele><time>2026-04-29T09:59:06.965Z</time></trkpt><trkpt lat="37.9993988" lon="22.1352139"><ele>1072.0</ele><time>2026-04-29T09:59:07.965Z</time></trkpt><trkpt lat="37.9994149" lon="22.1353462"><ele>1072.0</ele><time>2026-04-29T09:59:08.965Z</time></trkpt><trkpt lat="37.9994245" lon="22.1354769"><ele>1072.0</ele><time>2026-04-29T09:59:09.965Z</time></trkpt><trkpt lat="37.9994296" lon="22.1356146"><ele>1072.0</ele><time>2026-04-29T09:59:10.964Z</time></trkpt><trkpt lat="37.9994245" lon="22.1357497"><ele>1072.0</ele><time>2026-04-29T09:59:11.965Z</time></trkpt><trkpt lat="37.9994261" lon="22.135885"><ele>1072.0</ele><time>2026-04-29T09:59:12.964Z</time></trkpt><trkpt lat="37.9994108" lon="22.1360113"><ele>1072.6</ele><time>2026-04-29T09:59:13.965Z</time></trkpt><trkpt lat="37.9993736" lon="22.1361334"><ele>1073.2</ele><time>2026-04-29T09:59:14.964Z</time></trkpt><trkpt lat="37.9993319" lon="22.1362524"><ele>1073.8</ele><time>2026-04-29T09:59:15.965Z</time></trkpt><trkpt lat="37.9992934" lon="22.1363822"><ele>1074.4</ele><time>2026-04-29T09:59:16.965Z</time></trkpt><trkpt lat="37.9992554" lon="22.1365151"><ele>1075.0</ele><time>2026-04-29T09:59:17.964Z</time></trkpt><trkpt lat="37.9992219" lon="22.1366445"><ele>1075.0</ele><time>2026-04-29T09:59:18.964Z</time></trkpt><trkpt lat="37.9991845" lon="22.1367791"><ele>1075.0</ele><time>2026-04-29T09:59:19.965Z</time></trkpt><trkpt lat="37.9991494" lon="22.1369138"><ele>1075.0</ele><time>2026-04-29T09:59:20.964Z</time></trkpt><trkpt lat="37.9991144" lon="22.1370475"><ele>1075.0</ele><time>2026-04-29T09:59:21.964Z</time></trkpt><trkpt lat="37.9990769" lon="22.1371747"><ele>1075.0</ele><time>2026-04-29T09:59:22.964Z</time></trkpt><trkpt lat="37.9990304" lon="22.1372907"><ele>1069.2</ele><time>2026-04-29T09:59:23.964Z</time></trkpt><trkpt lat="37.9989721" lon="22.1373949"><ele>1063.4</ele><time>2026-04-29T09:59:24.964Z</time></trkpt><trkpt lat="37.9989113" lon="22.1374901"><ele>1057.6</ele><time>2026-04-29T09:59:25.965Z</time></trkpt><trkpt lat="37.9988542" lon="22.1375811"><ele>1051.8</ele><time>2026-04-29T09:59:26.965Z</time></trkpt><trkpt lat="37.9987981" lon="22.1376659"><ele>1046.0</ele><time>2026-04-29T09:59:27.964Z</time></trkpt><trkpt lat="37.9987307" lon="22.1377455"><ele>1046.0</ele><time>2026-04-29T09:59:28.964Z</time></trkpt><trkpt lat="37.9986602" lon="22.1377977"><ele>1046.0</ele><time>2026-04-29T09:59:29.964Z</time></trkpt><trkpt lat="37.9985927" lon="22.1378361"><ele>1046.0</ele><time>2026-04-29T09:59:30.964Z</time></trkpt><trkpt lat="37.9985093" lon="22.1378377"><ele>1046.0</ele><time>2026-04-29T09:59:31.965Z</time></trkpt><trkpt lat="37.9984301" lon="22.1378107"><ele>1046.0</ele><time>2026-04-29T09:59:32.965Z</time></trkpt><trkpt lat="37.9983314" lon="22.1377385"><ele>1046.0</ele><time>2026-04-29T09:59:33.964Z</time></trkpt><trkpt lat="37.9982431" lon="22.1376437"><ele>1044.5</ele><time>2026-04-29T09:59:34.964Z</time></trkpt><trkpt lat="37.9981461" lon="22.1375332"><ele>1043.0</ele><time>2026-04-29T09:59:35.965Z</time></trkpt><trkpt lat="37.9980449" lon="22.1374234"><ele>1041.5</ele><time>2026-04-29T09:59:36.964Z</time></trkpt><trkpt lat="37.9979352" lon="22.1373146"><ele>1040.0</ele><time>2026-04-29T09:59:37.965Z</time></trkpt><trkpt lat="37.9978216" lon="22.1372184"><ele>1039.25</ele><time>2026-04-29T09:59:38.965Z</time></trkpt><trkpt lat="37.9976978" lon="22.1371338"><ele>1038.5</ele><time>2026-04-29T09:59:39.964Z</time></trkpt><trkpt lat="37.9975737" lon="22.1370494"><ele>1037.75</ele><time>2026-04-29T09:59:40.964Z</time></trkpt><trkpt lat="37.9974568" lon="22.1369684"><ele>1037.0</ele><time>2026-04-29T09:59:41.964Z</time></trkpt><trkpt lat="37.9973206" lon="22.1368791"><ele>1036.75</ele><time>2026-04-29T09:59:42.964Z</time></trkpt><trkpt lat="37.9971959" lon="22.1368096"><ele>1036.5</ele><time>2026-04-29T09:59:43.965Z</time></trkpt><trkpt lat="37.9970649" lon="22.1367618"><ele>1036.25</ele><time>2026-04-29T09:59:44.965Z</time></trkpt><trkpt lat="37.9969341" lon="22.1367038"><ele>1036.0</ele><time>2026-04-29T09:59:45.964Z</time></trkpt><trkpt lat="37.996792" lon="22.136629"><ele>1036.3333333333333</ele><time>2026-04-29T09:59:46.964Z</time></trkpt><trkpt lat="37.996663" lon="22.136538"><ele>1036.6666666666667</ele><time>2026-04-29T09:59:47.965Z</time></trkpt><trkpt lat="37.9965268" lon="22.1364404"><ele>1037.0</ele><time>2026-04-29T09:59:48.965Z</time></trkpt><trkpt lat="37.9963891" lon="22.1363419"><ele>1037.0</ele><time>2026-04-29T09:59:49.964Z</time></trkpt><trkpt lat="37.9962589" lon="22.1362471"><ele>1037.0</ele><time>2026-04-29T09:59:50.964Z</time></trkpt><trkpt lat="37.9961232" lon="22.1361717"><ele>1037.0</ele><time>2026-04-29T09:59:51.965Z</time></trkpt><trkpt lat="37.9959947" lon="22.136113"><ele>1037.0</ele><time>2026-04-29T09:59:52.965Z</time></trkpt><trkpt lat="37.99586" lon="22.1360781"><ele>1036.75</ele><time>2026-04-29T09:59:53.964Z</time></trkpt><trkpt lat="37.9957371" lon="22.1360832"><ele>1036.5</ele><time>2026-04-29T09:59:54.964Z</time></trkpt><trkpt lat="37.9956023" lon="22.1361226"><ele>1036.25</ele><time>2026-04-29T09:59:55.964Z</time></trkpt><trkpt lat="37.9954633" lon="22.1361849"><ele>1036.0</ele><time>2026-04-29T09:59:56.964Z</time></trkpt><trkpt lat="37.9953204" lon="22.1362572"><ele>1036.0</ele><time>2026-04-29T09:59:57.964Z</time></trkpt><trkpt lat="37.9951791" lon="22.1363348"><ele>1036.0</ele><time>2026-04-29T09:59:58.965Z</time></trkpt><trkpt lat="37.9950484" lon="22.1364101"><ele>1036.0</ele><time>2026-04-29T09:59:59.965Z</time></trkpt><trkpt lat="37.9949078" lon="22.1364663"><ele>1036.0</ele><time>2026-04-29T10:00:00.964Z</time></trkpt><trkpt lat="37.9947632" lon="22.1364954"><ele>1035.0</ele><time>2026-04-29T10:00:01.965Z</time></trkpt><trkpt lat="37.9946075" lon="22.1365068"><ele>1034.0</ele><time>2026-04-29T10:00:02.965Z</time></trkpt><trkpt lat="37.9944662" lon="22.1365177"><ele>1033.0</ele><time>2026-04-29T10:00:03.965Z</time></trkpt><trkpt lat="37.9943249" lon="22.1365267"><ele>1032.0</ele><time>2026-04-29T10:00:04.965Z</time></trkpt><trkpt lat="37.9941911" lon="22.1365277"><ele>1032.5</ele><time>2026-04-29T10:00:05.964Z</time></trkpt><trkpt lat="37.9940562" lon="22.136513"><ele>1033.0</ele><time>2026-04-29T10:00:06.964Z</time></trkpt><trkpt lat="37.9939287" lon="22.1364781"><ele>1033.5</ele><time>2026-04-29T10:00:07.964Z</time></trkpt><trkpt lat="37.9938085" lon="22.1364294"><ele>1034.0</ele><time>2026-04-29T10:00:08.965Z</time></trkpt><trkpt lat="37.9936922" lon="22.1363968"><ele>1034.0</ele><time>2026-04-29T10:00:09.964Z</time></trkpt><trkpt lat="37.9935659" lon="22.1363756"><ele>1034.0</ele><time>2026-04-29T10:00:10.965Z</time></trkpt><trkpt lat="37.993441" lon="22.1363651"><ele>1034.0</ele><time>2026-04-29T10:00:11.965Z</time></trkpt><trkpt lat="37.9933209" lon="22.1363622"><ele>1034.0</ele><time>2026-04-29T10:00:12.965Z</time></trkpt><trkpt lat="37.9932086" lon="22.136358"><ele>1034.25</ele><time>2026-04-29T10:00:13.965Z</time></trkpt><trkpt lat="37.9930959" lon="22.136326"><ele>1034.5</ele><time>2026-04-29T10:00:14.964Z</time></trkpt><trkpt lat="37.9929866" lon="22.1362996"><ele>1034.75</ele><time>2026-04-29T10:00:15.965Z</time></trkpt><trkpt lat="37.9928721" lon="22.1362539"><ele>1035.0</ele><time>2026-04-29T10:00:16.965Z</time></trkpt><trkpt lat="37.9927539" lon="22.1361963"><ele>1035.0</ele><time>2026-04-29T10:00:17.964Z</time></trkpt><trkpt lat="37.9926374" lon="22.1361381"><ele>1035.0</ele><time>2026-04-29T10:00:18.965Z</time></trkpt><trkpt lat="37.9925182" lon="22.1360813"><ele>1035.0</ele><time>2026-04-29T10:00:19.964Z</time></trkpt><trkpt lat="37.9924024" lon="22.1360267"><ele>1035.0</ele><time>2026-04-29T10:00:20.964Z</time></trkpt><trkpt lat="37.9922899" lon="22.1359616"><ele>1035.5</ele><time>2026-04-29T10:00:21.965Z</time></trkpt><trkpt lat="37.9921859" lon="22.1358982"><ele>1036.0</ele><time>2026-04-29T10:00:22.965Z</time></trkpt><trkpt lat="37.9920829" lon="22.1358347"><ele>1036.5</ele><time>2026-04-29T10:00:23.965Z</time></trkpt><trkpt lat="37.9919826" lon="22.13577"><ele>1037.0</ele><time>2026-04-29T10:00:24.964Z</time></trkpt><trkpt lat="37.9918752" lon="22.1357102"><ele>1035.5</ele><time>2026-04-29T10:00:25.965Z</time></trkpt><trkpt lat="37.9917514" lon="22.1356496"><ele>1034.0</ele><time>2026-04-29T10:00:26.964Z</time></trkpt><trkpt lat="37.9916354" lon="22.1355779"><ele>1032.5</ele><time>2026-04-29T10:00:27.965Z</time></trkpt><trkpt lat="37.9915123" lon="22.1354986"><ele>1031.0</ele><time>2026-04-29T10:00:28.965Z</time></trkpt><trkpt lat="37.9913852" lon="22.1354197"><ele>1030.5</ele><time>2026-04-29T10:00:29.964Z</time></trkpt><trkpt lat="37.9912595" lon="22.1353358"><ele>1030.0</ele><time>2026-04-29T10:00:30.965Z</time></trkpt><trkpt lat="37.9911279" lon="22.1352535"><ele>1029.5</ele><time>2026-04-29T10:00:31.964Z</time></trkpt><trkpt lat="37.9909933" lon="22.1351722"><ele>1029.0</ele><time>2026-04-29T10:00:32.964Z</time></trkpt><trkpt lat="37.990864" lon="22.1350855"><ele>1028.6666666666667</ele><time>2026-04-29T10:00:33.964Z</time></trkpt><trkpt lat="37.9907317" lon="22.1349869"><ele>1028.3333333333335</ele><time>2026-04-29T10:00:34.965Z</time></trkpt><trkpt lat="37.9905962" lon="22.1348802"><ele>1028.0</ele><time>2026-04-29T10:00:35.964Z</time></trkpt><trkpt lat="37.9904589" lon="22.1347671"><ele>1025.3333333333335</ele><time>2026-04-29T10:00:36.964Z</time></trkpt><trkpt lat="37.990333" lon="22.134653"><ele>1022.6666666666667</ele><time>2026-04-29T10:00:37.964Z</time></trkpt><trkpt lat="37.9901934" lon="22.1345357"><ele>1020.0</ele><time>2026-04-29T10:00:38.964Z</time></trkpt><trkpt lat="37.9900486" lon="22.1344174"><ele>1019.0</ele><time>2026-04-29T10:00:39.964Z</time></trkpt><trkpt lat="37.9899064" lon="22.1343019"><ele>1018.0</ele><time>2026-04-29T10:00:40.965Z</time></trkpt><trkpt lat="37.9897599" lon="22.1342047"><ele>1017.0</ele><time>2026-04-29T10:00:41.964Z</time></trkpt><trkpt lat="37.9896117" lon="22.1341408"><ele>1017.0</ele><time>2026-04-29T10:00:42.965Z</time></trkpt><trkpt lat="37.9894575" lon="22.1341046"><ele>1017.0</ele><time>2026-04-29T10:00:43.964Z</time></trkpt><trkpt lat="37.9893114" lon="22.1341126"><ele>1017.0</ele><time>2026-04-29T10:00:44.965Z</time></trkpt><trkpt lat="37.9891602" lon="22.1341589"><ele>1016.3333333333333</ele><time>2026-04-29T10:00:45.965Z</time></trkpt><trkpt lat="37.9890094" lon="22.1342144"><ele>1015.6666666666666</ele><time>2026-04-29T10:00:46.964Z</time></trkpt><trkpt lat="37.9888469" lon="22.1342869"><ele>1015.0</ele><time>2026-04-29T10:00:47.965Z</time></trkpt><trkpt lat="37.9886693" lon="22.1343583"><ele>1015.0</ele><time>2026-04-29T10:00:48.964Z</time></trkpt><trkpt lat="37.9884831" lon="22.1344222"><ele>1015.0</ele><time>2026-04-29T10:00:49.965Z</time></trkpt><trkpt lat="37.988284" lon="22.1345009"><ele>1015.0</ele><time>2026-04-29T10:00:50.965Z</time></trkpt><trkpt lat="37.9880841" lon="22.1345833"><ele>1012.6666666666666</ele><time>2026-04-29T10:00:51.964Z</time></trkpt><trkpt lat="37.9878812" lon="22.1346635"><ele>1010.3333333333333</ele><time>2026-04-29T10:00:52.964Z</time></trkpt><trkpt lat="37.9876796" lon="22.1347377"><ele>1008.0</ele><time>2026-04-29T10:00:53.965Z</time></trkpt><trkpt lat="37.987475" lon="22.1348168"><ele>1009.0</ele><time>2026-04-29T10:00:54.965Z</time></trkpt><trkpt lat="37.9872609" lon="22.134896"><ele>1010.0</ele><time>2026-04-29T10:00:55.965Z</time></trkpt><trkpt lat="37.9870521" lon="22.1349763"><ele>1011.0</ele><time>2026-04-29T10:00:56.965Z</time></trkpt><trkpt lat="37.9868388" lon="22.1350569"><ele>1004.5</ele><time>2026-04-29T10:00:57.965Z</time></trkpt><trkpt lat="37.9866209" lon="22.1351446"><ele>998.0</ele><time>2026-04-29T10:00:58.965Z</time></trkpt><trkpt lat="37.9864043" lon="22.1352306"><ele>998.0</ele><time>2026-04-29T10:00:59.964Z</time></trkpt><trkpt lat="37.9861866" lon="22.1353153"><ele>998.0</ele><time>2026-04-29T10:01:00.965Z</time></trkpt><trkpt lat="37.98597" lon="22.1354003"><ele>994.0</ele><time>2026-04-29T10:01:01.965Z</time></trkpt><trkpt lat="37.9857528" lon="22.1354855"><ele>990.0</ele><time>2026-04-29T10:01:02.965Z</time></trkpt><trkpt lat="37.9855376" lon="22.1355666"><ele>990.0</ele><time>2026-04-29T10:01:03.965Z</time></trkpt><trkpt lat="37.9853265" lon="22.1356475"><ele>990.0</ele><time>2026-04-29T10:01:04.964Z</time></trkpt><trkpt lat="37.9851142" lon="22.1357276"><ele>990.0</ele><time>2026-04-29T10:01:05.965Z</time></trkpt><trkpt lat="37.9848926" lon="22.1358062"><ele>993.0</ele><time>2026-04-29T10:01:06.964Z</time></trkpt><trkpt lat="37.9846754" lon="22.135885"><ele>996.0</ele><time>2026-04-29T10:01:07.965Z</time></trkpt><trkpt lat="37.9844597" lon="22.1359723"><ele>996.0</ele><time>2026-04-29T10:01:08.965Z</time></trkpt><trkpt lat="37.9842454" lon="22.1360612"><ele>996.0</ele><time>2026-04-29T10:01:09.964Z</time></trkpt><trkpt lat="37.9840268" lon="22.1361478"><ele>993.0</ele><time>2026-04-29T10:01:10.965Z</time></trkpt><trkpt lat="37.9838098" lon="22.1362389"><ele>990.0</ele><time>2026-04-29T10:01:11.964Z</time></trkpt><trkpt lat="37.9835938" lon="22.1363403"><ele>990.0</ele><time>2026-04-29T10:01:12.964Z</time></trkpt><trkpt lat="37.983386" lon="22.1364487"><ele>990.0</ele><time>2026-04-29T10:01:13.964Z</time></trkpt><trkpt lat="37.9831798" lon="22.1365742"><ele>988.0</ele><time>2026-04-29T10:01:14.964Z</time></trkpt><trkpt lat="37.9829733" lon="22.1367069"><ele>986.0</ele><time>2026-04-29T10:01:15.965Z</time></trkpt><trkpt lat="37.9827752" lon="22.1368485"><ele>986.0</ele><time>2026-04-29T10:01:16.965Z</time></trkpt><trkpt lat="37.982568" lon="22.1369959"><ele>986.0</ele><time>2026-04-29T10:01:17.965Z</time></trkpt><trkpt lat="37.9823674" lon="22.1371422"><ele>984.0</ele><time>2026-04-29T10:01:18.964Z</time></trkpt><trkpt lat="37.9821669" lon="22.1372812"><ele>982.0</ele><time>2026-04-29T10:01:19.965Z</time></trkpt><trkpt lat="37.9819639" lon="22.1374185"><ele>982.0</ele><time>2026-04-29T10:01:20.965Z</time></trkpt><trkpt lat="37.9817583" lon="22.1375576"><ele>982.0</ele><time>2026-04-29T10:01:21.965Z</time></trkpt><trkpt lat="37.9815536" lon="22.1377082"><ele>979.0</ele><time>2026-04-29T10:01:22.965Z</time></trkpt><trkpt lat="37.9813504" lon="22.1378427"><ele>976.0</ele><time>2026-04-29T10:01:23.964Z</time></trkpt><trkpt lat="37.9811499" lon="22.1379793"><ele>976.0</ele><time>2026-04-29T10:01:24.965Z</time></trkpt><trkpt lat="37.9809515" lon="22.1381208"><ele>976.0</ele><time>2026-04-29T10:01:25.965Z</time></trkpt><trkpt lat="37.9807554" lon="22.1382585"><ele>976.0</ele><time>2026-04-29T10:01:26.965Z</time></trkpt><trkpt lat="37.9805557" lon="22.138395"><ele>976.0</ele><time>2026-04-29T10:01:27.964Z</time></trkpt><trkpt lat="37.9803532" lon="22.1385337"><ele>976.0</ele><time>2026-04-29T10:01:28.965Z</time></trkpt><trkpt lat="37.9801579" lon="22.1386676"><ele>976.0</ele><time>2026-04-29T10:01:29.965Z</time></trkpt><trkpt lat="37.9799617" lon="22.1388002"><ele>976.0</ele><time>2026-04-29T10:01:30.965Z</time></trkpt><trkpt lat="37.9797634" lon="22.1389348"><ele>976.3333333333333</ele><time>2026-04-29T10:01:31.964Z</time></trkpt><trkpt lat="37.9795659" lon="22.1390712"><ele>976.6666666666667</ele><time>2026-04-29T10:01:32.965Z</time></trkpt><trkpt lat="37.9793696" lon="22.1392094"><ele>977.0</ele><time>2026-04-29T10:01:33.965Z</time></trkpt><trkpt lat="37.9791772" lon="22.1393451"><ele>977.0</ele><time>2026-04-29T10:01:34.964Z</time></trkpt><trkpt lat="37.9789867" lon="22.1394799"><ele>977.0</ele><time>2026-04-29T10:01:35.965Z</time></trkpt><trkpt lat="37.9788017" lon="22.1396136"><ele>977.0</ele><time>2026-04-29T10:01:36.964Z</time></trkpt><trkpt lat="37.9786019" lon="22.1397509"><ele>977.0</ele><time>2026-04-29T10:01:37.964Z</time></trkpt><trkpt lat="37.9784045" lon="22.1398821"><ele>977.0</ele><time>2026-04-29T10:01:38.964Z</time></trkpt><trkpt lat="37.9782097" lon="22.140005"><ele>977.0</ele><time>2026-04-29T10:01:39.965Z</time></trkpt><trkpt lat="37.9780025" lon="22.1401358"><ele>977.0</ele><time>2026-04-29T10:01:40.965Z</time></trkpt><trkpt lat="37.9778027" lon="22.1402716"><ele>977.0</ele><time>2026-04-29T10:01:41.964Z</time></trkpt><trkpt lat="37.977602" lon="22.1404138"><ele>977.3333333333334</ele><time>2026-04-29T10:01:42.965Z</time></trkpt><trkpt lat="37.97741" lon="22.1405499"><ele>977.6666666666667</ele><time>2026-04-29T10:01:43.964Z</time></trkpt><trkpt lat="37.9772129" lon="22.1406864"><ele>978.0</ele><time>2026-04-29T10:01:44.965Z</time></trkpt><trkpt lat="37.9770239" lon="22.1408224"><ele>978.0</ele><time>2026-04-29T10:01:45.965Z</time></trkpt><trkpt lat="37.9768351" lon="22.1409534"><ele>978.0</ele><time>2026-04-29T10:01:46.964Z</time></trkpt><trkpt lat="37.9766463" lon="22.1410819"><ele>978.0</ele><time>2026-04-29T10:01:47.965Z</time></trkpt><trkpt lat="37.9764598" lon="22.1412041"><ele>977.3333333333333</ele><time>2026-04-29T10:01:48.964Z</time></trkpt><trkpt lat="37.9762835" lon="22.1413079"><ele>976.6666666666666</ele><time>2026-04-29T10:01:49.965Z</time></trkpt><trkpt lat="37.9761033" lon="22.1414074"><ele>976.0</ele><time>2026-04-29T10:01:50.964Z</time></trkpt><trkpt lat="37.9759178" lon="22.1414964"><ele>977.3333333333333</ele><time>2026-04-29T10:01:51.964Z</time></trkpt><trkpt lat="37.9757251" lon="22.1415667"><ele>978.6666666666667</ele><time>2026-04-29T10:01:52.964Z</time></trkpt><trkpt lat="37.9755244" lon="22.1416208"><ele>980.0</ele><time>2026-04-29T10:01:53.965Z</time></trkpt><trkpt lat="37.975314" lon="22.1416688"><ele>980.0</ele><time>2026-04-29T10:01:54.965Z</time></trkpt><trkpt lat="37.9750978" lon="22.1417164"><ele>980.0</ele><time>2026-04-29T10:01:55.964Z</time></trkpt><trkpt lat="37.9748722" lon="22.1417565"><ele>980.0</ele><time>2026-04-29T10:01:56.964Z</time></trkpt><trkpt lat="37.9746443" lon="22.1418118"><ele>978.6666666666667</ele><time>2026-04-29T10:01:57.964Z</time></trkpt><trkpt lat="37.9744232" lon="22.1418477"><ele>977.3333333333333</ele><time>2026-04-29T10:01:58.965Z</time></trkpt><trkpt lat="37.97421" lon="22.1418828"><ele>976.0</ele><time>2026-04-29T10:01:59.965Z</time></trkpt><trkpt lat="37.9739914" lon="22.1419231"><ele>975.6666666666666</ele><time>2026-04-29T10:02:00.965Z</time></trkpt><trkpt lat="37.9737753" lon="22.1419662"><ele>975.3333333333333</ele><time>2026-04-29T10:02:01.964Z</time></trkpt><trkpt lat="37.9735519" lon="22.1420072"><ele>975.0</ele><time>2026-04-29T10:02:02.964Z</time></trkpt><trkpt lat="37.9733352" lon="22.1420413"><ele>973.6666666666667</ele><time>2026-04-29T10:02:03.965Z</time></trkpt><trkpt lat="37.9731191" lon="22.142068"><ele>972.3333333333334</ele><time>2026-04-29T10:02:04.964Z</time></trkpt><trkpt lat="37.9728997" lon="22.1420947"><ele>971.0</ele><time>2026-04-29T10:02:05.965Z</time></trkpt><trkpt lat="37.9726804" lon="22.1421188"><ele>970.6666666666667</ele><time>2026-04-29T10:02:06.965Z</time></trkpt><trkpt lat="37.9724581" lon="22.1421593"><ele>970.3333333333333</ele><time>2026-04-29T10:02:07.964Z</time></trkpt><trkpt lat="37.9722483" lon="22.1421989"><ele>970.0</ele><time>2026-04-29T10:02:08.965Z</time></trkpt><trkpt lat="37.9720451" lon="22.142233"><ele>970.0</ele><time>2026-04-29T10:02:09.964Z</time></trkpt><trkpt lat="37.9718522" lon="22.1422433"><ele>970.0</ele><time>2026-04-29T10:02:10.964Z</time></trkpt><trkpt lat="37.9716733" lon="22.1422272"><ele>970.0</ele><time>2026-04-29T10:02:11.965Z</time></trkpt><trkpt lat="37.9715028" lon="22.1421608"><ele>969.0</ele><time>2026-04-29T10:02:12.964Z</time></trkpt><trkpt lat="37.971346" lon="22.1420599"><ele>968.0</ele><time>2026-04-29T10:02:13.964Z</time></trkpt><trkpt lat="37.971195" lon="22.1419256"><ele>967.0</ele><time>2026-04-29T10:02:14.964Z</time></trkpt><trkpt lat="37.9710496" lon="22.1417721"><ele>967.0</ele><time>2026-04-29T10:02:15.965Z</time></trkpt><trkpt lat="37.9709014" lon="22.1416226"><ele>967.0</ele><time>2026-04-29T10:02:16.965Z</time></trkpt><trkpt lat="37.9707633" lon="22.141481"><ele>967.0</ele><time>2026-04-29T10:02:17.965Z</time></trkpt><trkpt lat="37.9706471" lon="22.1413569"><ele>964.75</ele><time>2026-04-29T10:02:18.965Z</time></trkpt><trkpt lat="37.9705445" lon="22.1412646"><ele>962.5</ele><time>2026-04-29T10:02:19.965Z</time></trkpt><trkpt lat="37.9704381" lon="22.141205"><ele>960.25</ele><time>2026-04-29T10:02:20.965Z</time></trkpt><trkpt lat="37.9703344" lon="22.1411969"><ele>958.0</ele><time>2026-04-29T10:02:21.965Z</time></trkpt><trkpt lat="37.9702243" lon="22.1412405"><ele>958.0</ele><time>2026-04-29T10:02:22.964Z</time></trkpt><trkpt lat="37.9701219" lon="22.1413375"><ele>958.0</ele><time>2026-04-29T10:02:23.964Z</time></trkpt><trkpt lat="37.9700199" lon="22.1414703"><ele>958.0</ele><time>2026-04-29T10:02:24.965Z</time></trkpt><trkpt lat="37.9699055" lon="22.1416114"><ele>958.0</ele><time>2026-04-29T10:02:25.964Z</time></trkpt><trkpt lat="37.9697599" lon="22.141752"><ele>959.0</ele><time>2026-04-29T10:02:26.964Z</time></trkpt><trkpt lat="37.9696119" lon="22.1418801"><ele>960.0</ele><time>2026-04-29T10:02:27.965Z</time></trkpt><trkpt lat="37.9694552" lon="22.1419927"><ele>961.0</ele><time>2026-04-29T10:02:28.965Z</time></trkpt><trkpt lat="37.9693014" lon="22.1421084"><ele>962.0</ele><time>2026-04-29T10:02:29.965Z</time></trkpt><trkpt lat="37.9691563" lon="22.1422211"><ele>963.0</ele><time>2026-04-29T10:02:30.965Z</time></trkpt><trkpt lat="37.9690075" lon="22.1423141"><ele>964.0</ele><time>2026-04-29T10:02:31.965Z</time></trkpt><trkpt lat="37.968857" lon="22.1423673"><ele>964.0</ele><time>2026-04-29T10:02:32.965Z</time></trkpt><trkpt lat="37.9686953" lon="22.1423786"><ele>964.0</ele><time>2026-04-29T10:02:33.965Z</time></trkpt><trkpt lat="37.9685369" lon="22.1423835"><ele>964.0</ele><time>2026-04-29T10:02:34.965Z</time></trkpt><trkpt lat="37.9683727" lon="22.1423699"><ele>963.0</ele><time>2026-04-29T10:02:35.964Z</time></trkpt><trkpt lat="37.9682223" lon="22.142349"><ele>962.0</ele><time>2026-04-29T10:02:36.964Z</time></trkpt><trkpt lat="37.9680738" lon="22.1422975"><ele>961.0</ele><time>2026-04-29T10:02:37.964Z</time></trkpt><trkpt lat="37.9679338" lon="22.1422168"><ele>961.0</ele><time>2026-04-29T10:02:38.965Z</time></trkpt><trkpt lat="37.9677841" lon="22.142173"><ele>961.0</ele><time>2026-04-29T10:02:39.965Z</time></trkpt><trkpt lat="37.9676338" lon="22.1421578"><ele>961.0</ele><time>2026-04-29T10:02:40.965Z</time></trkpt><trkpt lat="37.9674856" lon="22.1421573"><ele>961.75</ele><time>2026-04-29T10:02:41.965Z</time></trkpt><trkpt lat="37.9673366" lon="22.1421721"><ele>962.5</ele><time>2026-04-29T10:02:42.964Z</time></trkpt><trkpt lat="37.9671919" lon="22.1421837"><ele>963.25</ele><time>2026-04-29T10:02:43.964Z</time></trkpt><trkpt lat="37.9670454" lon="22.1421986"><ele>964.0</ele><time>2026-04-29T10:02:44.964Z</time></trkpt><trkpt lat="37.9669006" lon="22.1422157"><ele>964.0</ele><time>2026-04-29T10:02:45.965Z</time></trkpt><trkpt lat="37.9667532" lon="22.1422265"><ele>964.0</ele><time>2026-04-29T10:02:46.964Z</time></trkpt><trkpt lat="37.9666045" lon="22.1422341"><ele>964.0</ele><time>2026-04-29T10:02:47.965Z</time></trkpt><trkpt lat="37.9664539" lon="22.1422276"><ele>964.0</ele><time>2026-04-29T10:02:48.964Z</time></trkpt><trkpt lat="37.9663038" lon="22.1422076"><ele>962.0</ele><time>2026-04-29T10:02:49.965Z</time></trkpt><trkpt lat="37.9661425" lon="22.1421823"><ele>960.0</ele><time>2026-04-29T10:02:50.964Z</time></trkpt><trkpt lat="37.9659859" lon="22.1421553"><ele>958.0</ele><time>2026-04-29T10:02:51.965Z</time></trkpt><trkpt lat="37.9658207" lon="22.1421423"><ele>956.0</ele><time>2026-04-29T10:02:52.965Z</time></trkpt><trkpt lat="37.9656473" lon="22.1421121"><ele>954.0</ele><time>2026-04-29T10:02:53.964Z</time></trkpt><trkpt lat="37.9654804" lon="22.1420908"><ele>952.0</ele><time>2026-04-29T10:02:54.964Z</time></trkpt><trkpt lat="37.9653094" lon="22.1420692"><ele>952.0</ele><time>2026-04-29T10:02:55.965Z</time></trkpt><trkpt lat="37.965138" lon="22.1420397"><ele>952.0</ele><time>2026-04-29T10:02:56.965Z</time></trkpt><trkpt lat="37.9649727" lon="22.1420118"><ele>952.0</ele><time>2026-04-29T10:02:57.965Z</time></trkpt><trkpt lat="37.9648185" lon="22.1419661"><ele>947.6666666666666</ele><time>2026-04-29T10:02:58.965Z</time></trkpt><trkpt lat="37.9646703" lon="22.1418942"><ele>943.3333333333333</ele><time>2026-04-29T10:02:59.965Z</time></trkpt><trkpt lat="37.9645202" lon="22.1418169"><ele>939.0</ele><time>2026-04-29T10:03:00.964Z</time></trkpt><trkpt lat="37.9643799" lon="22.141736"><ele>939.0</ele><time>2026-04-29T10:03:01.965Z</time></trkpt><trkpt lat="37.9642418" lon="22.1416558"><ele>939.0</ele><time>2026-04-29T10:03:02.964Z</time></trkpt><trkpt lat="37.9640974" lon="22.1415882"><ele>939.0</ele><time>2026-04-29T10:03:03.964Z</time></trkpt><trkpt lat="37.9639584" lon="22.1415194"><ele>942.0</ele><time>2026-04-29T10:03:04.965Z</time></trkpt><trkpt lat="37.9638148" lon="22.1414535"><ele>945.0</ele><time>2026-04-29T10:03:05.964Z</time></trkpt><trkpt lat="37.9636681" lon="22.1413927"><ele>948.0</ele><time>2026-04-29T10:03:06.964Z</time></trkpt><trkpt lat="37.9635177" lon="22.1413274"><ele>939.6666666666667</ele><time>2026-04-29T10:03:07.964Z</time></trkpt><trkpt lat="37.9633618" lon="22.1412481"><ele>931.3333333333334</ele><time>2026-04-29T10:03:08.964Z</time></trkpt><trkpt lat="37.9632126" lon="22.1411634"><ele>923.0</ele><time>2026-04-29T10:03:09.965Z</time></trkpt><trkpt lat="37.9630597" lon="22.1410681"><ele>923.0</ele><time>2026-04-29T10:03:10.964Z</time></trkpt><trkpt lat="37.9629103" lon="22.14095"><ele>923.0</ele><time>2026-04-29T10:03:11.965Z</time></trkpt><trkpt lat="37.9627586" lon="22.1408384"><ele>923.0</ele><time>2026-04-29T10:03:12.964Z</time></trkpt><trkpt lat="37.9626106" lon="22.1407272"><ele>923.0</ele><time>2026-04-29T10:03:13.965Z</time></trkpt><trkpt lat="37.962463" lon="22.1406105"><ele>923.0</ele><time>2026-04-29T10:03:14.965Z</time></trkpt><trkpt lat="37.962318" lon="22.1405031"><ele>923.0</ele><time>2026-04-29T10:03:15.964Z</time></trkpt><trkpt lat="37.9621695" lon="22.140391"><ele>923.0</ele><time>2026-04-29T10:03:16.964Z</time></trkpt><trkpt lat="37.9620213" lon="22.1402791"><ele>923.0</ele><time>2026-04-29T10:03:17.965Z</time></trkpt><trkpt lat="37.9618824" lon="22.140162"><ele>923.0</ele><time>2026-04-29T10:03:18.964Z</time></trkpt><trkpt lat="37.961748" lon="22.1400522"><ele>920.3333333333334</ele><time>2026-04-29T10:03:19.965Z</time></trkpt><trkpt lat="37.9616161" lon="22.1399421"><ele>917.6666666666667</ele><time>2026-04-29T10:03:20.965Z</time></trkpt><trkpt lat="37.9614804" lon="22.1398344"><ele>915.0</ele><time>2026-04-29T10:03:21.964Z</time></trkpt><trkpt lat="37.9613456" lon="22.1397346"><ele>915.0</ele><time>2026-04-29T10:03:22.965Z</time></trkpt><trkpt lat="37.9612089" lon="22.1396407"><ele>915.0</ele><time>2026-04-29T10:03:23.964Z</time></trkpt><trkpt lat="37.9610708" lon="22.1395604"><ele>915.0</ele><time>2026-04-29T10:03:24.964Z</time></trkpt><trkpt lat="37.9609338" lon="22.139498"><ele>908.75</ele><time>2026-04-29T10:03:25.965Z</time></trkpt><trkpt lat="37.9608017" lon="22.1394463"><ele>902.5</ele><time>2026-04-29T10:03:26.964Z</time></trkpt><trkpt lat="37.9606734" lon="22.1394083"><ele>896.25</ele><time>2026-04-29T10:03:27.964Z</time></trkpt><trkpt lat="37.9605628" lon="22.1393724"><ele>890.0</ele><time>2026-04-29T10:03:28.965Z</time></trkpt><trkpt lat="37.9604618" lon="22.1393592"><ele>890.0</ele><time>2026-04-29T10:03:29.964Z</time></trkpt><trkpt lat="37.9603813" lon="22.1393537"><ele>890.0</ele><time>2026-04-29T10:03:30.964Z</time></trkpt><trkpt lat="37.9603145" lon="22.1393818"><ele>890.0</ele><time>2026-04-29T10:03:31.964Z</time></trkpt><trkpt lat="37.9602803" lon="22.1394863"><ele>890.0</ele><time>2026-04-29T10:03:33.965Z</time></trkpt><trkpt lat="37.9603725" lon="22.1395898"><ele>890.0</ele><time>2026-04-29T10:03:35.964Z</time></trkpt><trkpt lat="37.960477" lon="22.1396351"><ele>890.0</ele><time>2026-04-29T10:03:36.964Z</time></trkpt><trkpt lat="37.9605992" lon="22.1396915"><ele>890.0</ele><time>2026-04-29T10:03:37.965Z</time></trkpt><trkpt lat="37.960711" lon="22.1397711"><ele>890.0</ele><time>2026-04-29T10:03:38.964Z</time></trkpt><trkpt lat="37.960839" lon="22.1398803"><ele>890.0</ele><time>2026-04-29T10:03:39.964Z</time></trkpt><trkpt lat="37.9609606" lon="22.140015"><ele>887.3333333333334</ele><time>2026-04-29T10:03:40.965Z</time></trkpt><trkpt lat="37.9610822" lon="22.1401658"><ele>884.6666666666667</ele><time>2026-04-29T10:03:41.965Z</time></trkpt><trkpt lat="37.9611966" lon="22.1403263"><ele>882.0</ele><time>2026-04-29T10:03:42.965Z</time></trkpt><trkpt lat="37.9613076" lon="22.1404906"><ele>882.0</ele><time>2026-04-29T10:03:43.964Z</time></trkpt><trkpt lat="37.9614079" lon="22.1406444"><ele>882.0</ele><time>2026-04-29T10:03:44.964Z</time></trkpt><trkpt lat="37.9615039" lon="22.1407994"><ele>882.0</ele><time>2026-04-29T10:03:45.965Z</time></trkpt><trkpt lat="37.9616022" lon="22.1409442"><ele>883.25</ele><time>2026-04-29T10:03:46.964Z</time></trkpt><trkpt lat="37.9616901" lon="22.1410759"><ele>884.5</ele><time>2026-04-29T10:03:47.965Z</time></trkpt><trkpt lat="37.9617759" lon="22.1412062"><ele>885.75</ele><time>2026-04-29T10:03:48.964Z</time></trkpt><trkpt lat="37.9618494" lon="22.1413305"><ele>887.0</ele><time>2026-04-29T10:03:49.965Z</time></trkpt><trkpt lat="37.961903" lon="22.1414431"><ele>887.0000000000001</ele><time>2026-04-29T10:03:50.965Z</time></trkpt><trkpt lat="37.9619508" lon="22.1415398"><ele>887.0</ele><time>2026-04-29T10:03:51.965Z</time></trkpt><trkpt lat="37.9619837" lon="22.1416337"><ele>887.0</ele><time>2026-04-29T10:03:52.965Z</time></trkpt><trkpt lat="37.9619728" lon="22.141781"><ele>887.0</ele><time>2026-04-29T10:03:54.964Z</time></trkpt><trkpt lat="37.9619142" lon="22.141822"><ele>887.0000000000001</ele><time>2026-04-29T10:03:55.965Z</time></trkpt><trkpt lat="37.961841" lon="22.1418385"><ele>887.0</ele><time>2026-04-29T10:03:56.964Z</time></trkpt><trkpt lat="37.9617125" lon="22.1418093"><ele>876.0</ele><time>2026-04-29T10:03:57.964Z</time></trkpt><trkpt lat="37.9615744" lon="22.1417606"><ele>865.0</ele><time>2026-04-29T10:03:58.965Z</time></trkpt><trkpt lat="37.9614414" lon="22.1417093"><ele>854.0</ele><time>2026-04-29T10:03:59.965Z</time></trkpt><trkpt lat="37.9613174" lon="22.1416575"><ele>843.0</ele><time>2026-04-29T10:04:00.965Z</time></trkpt><trkpt lat="37.9611954" lon="22.1415701"><ele>841.25</ele><time>2026-04-29T10:04:01.965Z</time></trkpt><trkpt lat="37.961074" lon="22.1414644"><ele>839.5</ele><time>2026-04-29T10:04:02.965Z</time></trkpt><trkpt lat="37.9609558" lon="22.141342"><ele>837.75</ele><time>2026-04-29T10:04:03.964Z</time></trkpt><trkpt lat="37.9608651" lon="22.1412003"><ele>836.0</ele><time>2026-04-29T10:04:04.965Z</time></trkpt><trkpt lat="37.9607687" lon="22.141066"><ele>836.0</ele><time>2026-04-29T10:04:05.965Z</time></trkpt><trkpt lat="37.9606654" lon="22.1409334"><ele>836.0</ele><time>2026-04-29T10:04:06.965Z</time></trkpt><trkpt lat="37.9605503" lon="22.1408092"><ele>836.0</ele><time>2026-04-29T10:04:07.964Z</time></trkpt><trkpt lat="37.9604272" lon="22.1407035"><ele>836.0</ele><time>2026-04-29T10:04:08.965Z</time></trkpt><trkpt lat="37.9602809" lon="22.1406054"><ele>838.6666666666667</ele><time>2026-04-29T10:04:09.965Z</time></trkpt><trkpt lat="37.9601246" lon="22.1405235"><ele>841.3333333333333</ele><time>2026-04-29T10:04:10.965Z</time></trkpt><trkpt lat="37.9599749" lon="22.1404519"><ele>844.0</ele><time>2026-04-29T10:04:11.965Z</time></trkpt><trkpt lat="37.9598183" lon="22.1403945"><ele>844.0</ele><time>2026-04-29T10:04:12.964Z</time></trkpt><trkpt lat="37.9596637" lon="22.1403533"><ele>844.0</ele><time>2026-04-29T10:04:13.964Z</time></trkpt><trkpt lat="37.9595065" lon="22.1403274"><ele>844.0</ele><time>2026-04-29T10:04:14.964Z</time></trkpt><trkpt lat="37.9593472" lon="22.1403247"><ele>841.75</ele><time>2026-04-29T10:04:15.965Z</time></trkpt><trkpt lat="37.9591918" lon="22.1403424"><ele>839.5</ele><time>2026-04-29T10:04:16.964Z</time></trkpt><trkpt lat="37.9590443" lon="22.1403721"><ele>837.25</ele><time>2026-04-29T10:04:17.964Z</time></trkpt><trkpt lat="37.9589106" lon="22.1404111"><ele>835.0</ele><time>2026-04-29T10:04:18.965Z</time></trkpt><trkpt lat="37.9588021" lon="22.1404407"><ele>835.0</ele><time>2026-04-29T10:04:19.965Z</time></trkpt><trkpt lat="37.9587073" lon="22.1404528"><ele>835.0</ele><time>2026-04-29T10:04:20.965Z</time></trkpt><trkpt lat="37.9586249" lon="22.1404379"><ele>835.0</ele><time>2026-04-29T10:04:21.964Z</time></trkpt><trkpt lat="37.9585684" lon="22.1403585"><ele>835.0</ele><time>2026-04-29T10:04:22.965Z</time></trkpt><trkpt lat="37.9585182" lon="22.1402323"><ele>835.0</ele><time>2026-04-29T10:04:23.964Z</time></trkpt><trkpt lat="37.9584739" lon="22.1400727"><ele>835.0</ele><time>2026-04-29T10:04:24.964Z</time></trkpt><trkpt lat="37.9584313" lon="22.1398988"><ele>835.0</ele><time>2026-04-29T10:04:25.964Z</time></trkpt><trkpt lat="37.9583834" lon="22.1397245"><ele>835.0</ele><time>2026-04-29T10:04:26.965Z</time></trkpt><trkpt lat="37.9583343" lon="22.139558"><ele>835.0</ele><time>2026-04-29T10:04:27.964Z</time></trkpt><trkpt lat="37.9582869" lon="22.1393922"><ele>833.5</ele><time>2026-04-29T10:04:28.964Z</time></trkpt><trkpt lat="37.9582358" lon="22.1392418"><ele>832.0</ele><time>2026-04-29T10:04:29.965Z</time></trkpt><trkpt lat="37.9581652" lon="22.1391119"><ele>830.5</ele><time>2026-04-29T10:04:30.965Z</time></trkpt><trkpt lat="37.9580688" lon="22.1389977"><ele>829.0</ele><time>2026-04-29T10:04:31.964Z</time></trkpt><trkpt lat="37.9579548" lon="22.1389118"><ele>832.0</ele><time>2026-04-29T10:04:32.965Z</time></trkpt><trkpt lat="37.9578175" lon="22.138825"><ele>835.0</ele><time>2026-04-29T10:04:33.964Z</time></trkpt><trkpt lat="37.9576568" lon="22.1387484"><ele>838.0</ele><time>2026-04-29T10:04:34.965Z</time></trkpt><trkpt lat="37.9574937" lon="22.1386744"><ele>838.0</ele><time>2026-04-29T10:04:35.964Z</time></trkpt><trkpt lat="37.9573263" lon="22.1386048"><ele>838.0</ele><time>2026-04-29T10:04:36.965Z</time></trkpt><trkpt lat="37.9571564" lon="22.138539"><ele>838.0</ele><time>2026-04-29T10:04:37.964Z</time></trkpt><trkpt lat="37.9569942" lon="22.1384853"><ele>838.0</ele><time>2026-04-29T10:04:38.965Z</time></trkpt><trkpt lat="37.9568238" lon="22.138442"><ele>838.0</ele><time>2026-04-29T10:04:39.964Z</time></trkpt><trkpt lat="37.9566591" lon="22.13842"><ele>838.0</ele><time>2026-04-29T10:04:40.965Z</time></trkpt><trkpt lat="37.9565001" lon="22.1384098"><ele>836.3333333333333</ele><time>2026-04-29T10:04:41.964Z</time></trkpt><trkpt lat="37.9563475" lon="22.1384285"><ele>834.6666666666667</ele><time>2026-04-29T10:04:42.965Z</time></trkpt><trkpt lat="37.9562049" lon="22.1384901"><ele>833.0</ele><time>2026-04-29T10:04:43.964Z</time></trkpt><trkpt lat="37.956069" lon="22.13857"><ele>833.0</ele><time>2026-04-29T10:04:44.965Z</time></trkpt><trkpt lat="37.9559483" lon="22.1386671"><ele>833.0</ele><time>2026-04-29T10:04:45.965Z</time></trkpt><trkpt lat="37.9558351" lon="22.1387717"><ele>833.0</ele><time>2026-04-29T10:04:46.965Z</time></trkpt><trkpt lat="37.9557384" lon="22.1388547"><ele>833.0</ele><time>2026-04-29T10:04:47.964Z</time></trkpt><trkpt lat="37.9556408" lon="22.1389101"><ele>832.0</ele><time>2026-04-29T10:04:48.965Z</time></trkpt><trkpt lat="37.9555284" lon="22.1389247"><ele>831.0</ele><time>2026-04-29T10:04:49.965Z</time></trkpt><trkpt lat="37.9554063" lon="22.1389138"><ele>830.0</ele><time>2026-04-29T10:04:50.964Z</time></trkpt><trkpt lat="37.9552786" lon="22.1389107"><ele>829.0</ele><time>2026-04-29T10:04:51.964Z</time></trkpt><trkpt lat="37.9551423" lon="22.1388931"><ele>828.25</ele><time>2026-04-29T10:04:52.965Z</time></trkpt><trkpt lat="37.9550018" lon="22.1388693"><ele>827.5</ele><time>2026-04-29T10:04:53.965Z</time></trkpt><trkpt lat="37.9548646" lon="22.1388405"><ele>826.75</ele><time>2026-04-29T10:04:54.964Z</time></trkpt><trkpt lat="37.9547182" lon="22.1388121"><ele>826.0</ele><time>2026-04-29T10:04:55.965Z</time></trkpt><trkpt lat="37.9545801" lon="22.138804"><ele>826.0</ele><time>2026-04-29T10:04:56.964Z</time></trkpt><trkpt lat="37.95444" lon="22.1387947"><ele>826.0</ele><time>2026-04-29T10:04:57.965Z</time></trkpt><trkpt lat="37.9542939" lon="22.1387881"><ele>826.0</ele><time>2026-04-29T10:04:58.965Z</time></trkpt><trkpt lat="37.9541519" lon="22.13879"><ele>826.0</ele><time>2026-04-29T10:04:59.964Z</time></trkpt><trkpt lat="37.9540154" lon="22.138784"><ele>823.25</ele><time>2026-04-29T10:05:00.965Z</time></trkpt><trkpt lat="37.9538883" lon="22.1387646"><ele>820.5</ele><time>2026-04-29T10:05:01.965Z</time></trkpt><trkpt lat="37.9537766" lon="22.1387448"><ele>817.75</ele><time>2026-04-29T10:05:02.965Z</time></trkpt><trkpt lat="37.9536687" lon="22.1386978"><ele>815.0</ele><time>2026-04-29T10:05:03.964Z</time></trkpt><trkpt lat="37.9535872" lon="22.1386249"><ele>815.0</ele><time>2026-04-29T10:05:04.965Z</time></trkpt><trkpt lat="37.9535131" lon="22.1385248"><ele>815.0</ele><time>2026-04-29T10:05:05.965Z</time></trkpt><trkpt lat="37.9534376" lon="22.1384109"><ele>815.0</ele><time>2026-04-29T10:05:06.964Z</time></trkpt><trkpt lat="37.9533645" lon="22.1382866"><ele>815.0</ele><time>2026-04-29T10:05:07.964Z</time></trkpt><trkpt lat="37.9532771" lon="22.1381629"><ele>814.0</ele><time>2026-04-29T10:05:08.965Z</time></trkpt><trkpt lat="37.9531987" lon="22.1380447"><ele>813.0</ele><time>2026-04-29T10:05:09.964Z</time></trkpt><trkpt lat="37.9531124" lon="22.1379097"><ele>812.0</ele><time>2026-04-29T10:05:10.964Z</time></trkpt><trkpt lat="37.9530307" lon="22.1377753"><ele>811.0</ele><time>2026-04-29T10:05:11.965Z</time></trkpt><trkpt lat="37.9529535" lon="22.1376459"><ele>811.0</ele><time>2026-04-29T10:05:12.965Z</time></trkpt><trkpt lat="37.9528671" lon="22.1375267"><ele>811.0</ele><time>2026-04-29T10:05:13.965Z</time></trkpt><trkpt lat="37.9527788" lon="22.1374083"><ele>811.0</ele><time>2026-04-29T10:05:14.964Z</time></trkpt><trkpt lat="37.9526841" lon="22.1373015"><ele>811.0</ele><time>2026-04-29T10:05:15.965Z</time></trkpt><trkpt lat="37.9525688" lon="22.1372077"><ele>813.5</ele><time>2026-04-29T10:05:16.965Z</time></trkpt><trkpt lat="37.9524402" lon="22.1371567"><ele>816.0</ele><time>2026-04-29T10:05:17.964Z</time></trkpt><trkpt lat="37.9523129" lon="22.1371473"><ele>818.5</ele><time>2026-04-29T10:05:18.964Z</time></trkpt><trkpt lat="37.9521802" lon="22.1371498"><ele>821.0</ele><time>2026-04-29T10:05:19.964Z</time></trkpt><trkpt lat="37.9520455" lon="22.137167"><ele>821.0</ele><time>2026-04-29T10:05:20.964Z</time></trkpt><trkpt lat="37.9519105" lon="22.1371751"><ele>821.0</ele><time>2026-04-29T10:05:21.964Z</time></trkpt><trkpt lat="37.9517775" lon="22.1371609"><ele>821.0</ele><time>2026-04-29T10:05:22.965Z</time></trkpt><trkpt lat="37.9516453" lon="22.1371247"><ele>821.0</ele><time>2026-04-29T10:05:23.964Z</time></trkpt><trkpt lat="37.9515177" lon="22.137062"><ele>819.0</ele><time>2026-04-29T10:05:24.965Z</time></trkpt><trkpt lat="37.9514008" lon="22.1369745"><ele>817.0</ele><time>2026-04-29T10:05:25.964Z</time></trkpt><trkpt lat="37.9513062" lon="22.1368669"><ele>815.0</ele><time>2026-04-29T10:05:26.964Z</time></trkpt><trkpt lat="37.9512278" lon="22.1367608"><ele>813.0</ele><time>2026-04-29T10:05:27.964Z</time></trkpt><trkpt lat="37.951143" lon="22.1366729"><ele>813.0</ele><time>2026-04-29T10:05:28.965Z</time></trkpt><trkpt lat="37.9510424" lon="22.1366164"><ele>813.0</ele><time>2026-04-29T10:05:29.964Z</time></trkpt><trkpt lat="37.9509323" lon="22.1365947"><ele>813.0</ele><time>2026-04-29T10:05:30.964Z</time></trkpt><trkpt lat="37.950815" lon="22.1366151"><ele>813.0</ele><time>2026-04-29T10:05:31.964Z</time></trkpt><trkpt lat="37.9506871" lon="22.1366698"><ele>808.3333333333333</ele><time>2026-04-29T10:05:32.965Z</time></trkpt><trkpt lat="37.9505516" lon="22.1367364"><ele>803.6666666666666</ele><time>2026-04-29T10:05:33.965Z</time></trkpt><trkpt lat="37.9504076" lon="22.1368095"><ele>799.0</ele><time>2026-04-29T10:05:34.964Z</time></trkpt><trkpt lat="37.9502551" lon="22.1368605"><ele>799.0</ele><time>2026-04-29T10:05:35.965Z</time></trkpt><trkpt lat="37.9500901" lon="22.1368824"><ele>799.0</ele><time>2026-04-29T10:05:36.964Z</time></trkpt><trkpt lat="37.9499178" lon="22.136902"><ele>799.0</ele><time>2026-04-29T10:05:37.965Z</time></trkpt><trkpt lat="37.949748" lon="22.1369231"><ele>796.5</ele><time>2026-04-29T10:05:38.965Z</time></trkpt><trkpt lat="37.9495902" lon="22.1369384"><ele>794.0</ele><time>2026-04-29T10:05:39.964Z</time></trkpt><trkpt lat="37.9494565" lon="22.1369478"><ele>791.5</ele><time>2026-04-29T10:05:40.965Z</time></trkpt><trkpt lat="37.9493349" lon="22.1369242"><ele>789.0</ele><time>2026-04-29T10:05:41.965Z</time></trkpt><trkpt lat="37.949223" lon="22.1368785"><ele>789.8000000000001</ele><time>2026-04-29T10:05:42.965Z</time></trkpt><trkpt lat="37.9491348" lon="22.1368005"><ele>790.6</ele><time>2026-04-29T10:05:43.965Z</time></trkpt><trkpt lat="37.9490675" lon="22.1366866"><ele>791.4</ele><time>2026-04-29T10:05:44.965Z</time></trkpt><trkpt lat="37.9490026" lon="22.1365885"><ele>792.2</ele><time>2026-04-29T10:05:45.965Z</time></trkpt><trkpt lat="37.9489217" lon="22.1365363"><ele>793.0</ele><time>2026-04-29T10:05:46.964Z</time></trkpt><trkpt lat="37.9488146" lon="22.1365085"><ele>793.0</ele><time>2026-04-29T10:05:47.965Z</time></trkpt><trkpt lat="37.9486846" lon="22.1365125"><ele>793.0</ele><time>2026-04-29T10:05:48.964Z</time></trkpt><trkpt lat="37.9485379" lon="22.136524"><ele>793.0</ele><time>2026-04-29T10:05:49.964Z</time></trkpt><trkpt lat="37.9483697" lon="22.1365237"><ele>793.0</ele><time>2026-04-29T10:05:50.965Z</time></trkpt><trkpt lat="37.9481961" lon="22.1365153"><ele>791.6666666666666</ele><time>2026-04-29T10:05:51.965Z</time></trkpt><trkpt lat="37.9480173" lon="22.1365018"><ele>790.3333333333333</ele><time>2026-04-29T10:05:52.965Z</time></trkpt><trkpt lat="37.947835" lon="22.1364668"><ele>789.0</ele><time>2026-04-29T10:05:53.965Z</time></trkpt><trkpt lat="37.9476606" lon="22.1363999"><ele>785.0</ele><time>2026-04-29T10:05:54.964Z</time></trkpt><trkpt lat="37.9474861" lon="22.1363504"><ele>781.0</ele><time>2026-04-29T10:05:55.965Z</time></trkpt><trkpt lat="37.9473255" lon="22.1362896"><ele>777.0</ele><time>2026-04-29T10:05:56.964Z</time></trkpt><trkpt lat="37.9471716" lon="22.1362382"><ele>777.0</ele><time>2026-04-29T10:05:57.964Z</time></trkpt><trkpt lat="37.9470265" lon="22.1361997"><ele>777.0</ele><time>2026-04-29T10:05:58.964Z</time></trkpt><trkpt lat="37.9468979" lon="22.1361632"><ele>777.0</ele><time>2026-04-29T10:05:59.965Z</time></trkpt><trkpt lat="37.9467727" lon="22.1361366"><ele>777.0</ele><time>2026-04-29T10:06:00.965Z</time></trkpt><trkpt lat="37.9466544" lon="22.1360959"><ele>773.5</ele><time>2026-04-29T10:06:01.965Z</time></trkpt><trkpt lat="37.9465338" lon="22.1360432"><ele>770.0</ele><time>2026-04-29T10:06:02.965Z</time></trkpt><trkpt lat="37.9464079" lon="22.1359882"><ele>766.5</ele><time>2026-04-29T10:06:03.965Z</time></trkpt><trkpt lat="37.9462821" lon="22.1359426"><ele>763.0</ele><time>2026-04-29T10:06:04.965Z</time></trkpt><trkpt lat="37.9461499" lon="22.1359153"><ele>763.0</ele><time>2026-04-29T10:06:05.965Z</time></trkpt><trkpt lat="37.9460262" lon="22.1358958"><ele>763.0</ele><time>2026-04-29T10:06:06.964Z</time></trkpt><trkpt lat="37.945905" lon="22.1358867"><ele>763.0</ele><time>2026-04-29T10:06:07.965Z</time></trkpt><trkpt lat="37.9457945" lon="22.135878"><ele>763.0</ele><time>2026-04-29T10:06:08.964Z</time></trkpt><trkpt lat="37.9456901" lon="22.1358508"><ele>763.8</ele><time>2026-04-29T10:06:09.965Z</time></trkpt><trkpt lat="37.9455865" lon="22.1358022"><ele>764.5999999999999</ele><time>2026-04-29T10:06:10.964Z</time></trkpt><trkpt lat="37.945484" lon="22.1357375"><ele>765.4000000000001</ele><time>2026-04-29T10:06:11.965Z</time></trkpt><trkpt lat="37.9453826" lon="22.1356894"><ele>766.2</ele><time>2026-04-29T10:06:12.965Z</time></trkpt><trkpt lat="37.9452954" lon="22.1356478"><ele>767.0</ele><time>2026-04-29T10:06:13.965Z</time></trkpt><trkpt lat="37.9452133" lon="22.1356596"><ele>767.0</ele><time>2026-04-29T10:06:14.965Z</time></trkpt><trkpt lat="37.9451426" lon="22.1357047"><ele>767.0</ele><time>2026-04-29T10:06:15.964Z</time></trkpt><trkpt lat="37.9450974" lon="22.1357832"><ele>767.0</ele><time>2026-04-29T10:06:16.965Z</time></trkpt><trkpt lat="37.9450599" lon="22.1358871"><ele>767.0</ele><time>2026-04-29T10:06:17.965Z</time></trkpt><trkpt lat="37.9450145" lon="22.1359914"><ele>767.0</ele><time>2026-04-29T10:06:18.964Z</time></trkpt><trkpt lat="37.9449471" lon="22.1360789"><ele>767.0</ele><time>2026-04-29T10:06:19.965Z</time></trkpt><trkpt lat="37.9448558" lon="22.1361373"><ele>763.0</ele><time>2026-04-29T10:06:20.964Z</time></trkpt><trkpt lat="37.9447499" lon="22.1361983"><ele>759.0</ele><time>2026-04-29T10:06:21.965Z</time></trkpt><trkpt lat="37.9446033" lon="22.1362314"><ele>755.0</ele><time>2026-04-29T10:06:22.964Z</time></trkpt><trkpt lat="37.9444654" lon="22.1362702"><ele>751.0</ele><time>2026-04-29T10:06:23.964Z</time></trkpt><trkpt lat="37.9443201" lon="22.136299"><ele>753.0</ele><time>2026-04-29T10:06:24.965Z</time></trkpt><trkpt lat="37.9441773" lon="22.1363246"><ele>755.0</ele><time>2026-04-29T10:06:25.965Z</time></trkpt><trkpt lat="37.9440265" lon="22.136365"><ele>757.0</ele><time>2026-04-29T10:06:26.964Z</time></trkpt><trkpt lat="37.9438784" lon="22.1364106"><ele>757.0</ele><time>2026-04-29T10:06:27.965Z</time></trkpt><trkpt lat="37.9437338" lon="22.1364961"><ele>757.0</ele><time>2026-04-29T10:06:28.964Z</time></trkpt><trkpt lat="37.9436101" lon="22.1366001"><ele>757.0</ele><time>2026-04-29T10:06:29.964Z</time></trkpt><trkpt lat="37.9434989" lon="22.1367186"><ele>754.5</ele><time>2026-04-29T10:06:30.964Z</time></trkpt><trkpt lat="37.9434122" lon="22.136846"><ele>752.0</ele><time>2026-04-29T10:06:31.965Z</time></trkpt><trkpt lat="37.9433448" lon="22.1369723"><ele>749.5</ele><time>2026-04-29T10:06:32.964Z</time></trkpt><trkpt lat="37.9433109" lon="22.1371236"><ele>747.0</ele><time>2026-04-29T10:06:33.965Z</time></trkpt><trkpt lat="37.9433121" lon="22.1372796"><ele>744.5</ele><time>2026-04-29T10:06:34.964Z</time></trkpt><trkpt lat="37.9433431" lon="22.1374479"><ele>742.0</ele><time>2026-04-29T10:06:35.965Z</time></trkpt><trkpt lat="37.9433899" lon="22.1376253"><ele>739.5</ele><time>2026-04-29T10:06:36.965Z</time></trkpt><trkpt lat="37.9434364" lon="22.1378079"><ele>737.0</ele><time>2026-04-29T10:06:37.964Z</time></trkpt><trkpt lat="37.9434829" lon="22.1379874"><ele>734.75</ele><time>2026-04-29T10:06:38.965Z</time></trkpt><trkpt lat="37.9435298" lon="22.1381638"><ele>732.5</ele><time>2026-04-29T10:06:39.965Z</time></trkpt><trkpt lat="37.943558" lon="22.1383097"><ele>730.25</ele><time>2026-04-29T10:06:40.965Z</time></trkpt><trkpt lat="37.9435539" lon="22.1384743"><ele>728.0</ele><time>2026-04-29T10:06:41.965Z</time></trkpt><trkpt lat="37.9435441" lon="22.1386295"><ele>726.25</ele><time>2026-04-29T10:06:42.964Z</time></trkpt><trkpt lat="37.9435027" lon="22.1387693"><ele>724.5</ele><time>2026-04-29T10:06:43.965Z</time></trkpt><trkpt lat="37.9434347" lon="22.1389102"><ele>722.75</ele><time>2026-04-29T10:06:44.965Z</time></trkpt><trkpt lat="37.943358" lon="22.139055"><ele>721.0</ele><time>2026-04-29T10:06:45.965Z</time></trkpt><trkpt lat="37.9432656" lon="22.1391714"><ele>721.0</ele><time>2026-04-29T10:06:46.965Z</time></trkpt><trkpt lat="37.9431448" lon="22.1392728"><ele>721.0</ele><time>2026-04-29T10:06:47.964Z</time></trkpt><trkpt lat="37.9430156" lon="22.1393629"><ele>721.0</ele><time>2026-04-29T10:06:48.964Z</time></trkpt><trkpt lat="37.9428674" lon="22.1394167"><ele>721.0</ele><time>2026-04-29T10:06:49.965Z</time></trkpt><trkpt lat="37.9427217" lon="22.1394755"><ele>721.0</ele><time>2026-04-29T10:06:50.965Z</time></trkpt><trkpt lat="37.9425811" lon="22.1395386"><ele>721.0</ele><time>2026-04-29T10:06:51.965Z</time></trkpt><trkpt lat="37.9424532" lon="22.1396014"><ele>721.0</ele><time>2026-04-29T10:06:52.965Z</time></trkpt><trkpt lat="37.9423324" lon="22.139667"><ele>721.0</ele><time>2026-04-29T10:06:53.965Z</time></trkpt><trkpt lat="37.9422173" lon="22.1397377"><ele>721.5</ele><time>2026-04-29T10:06:54.965Z</time></trkpt><trkpt lat="37.9421102" lon="22.1398233"><ele>722.0</ele><time>2026-04-29T10:06:55.965Z</time></trkpt><trkpt lat="37.9420043" lon="22.139899"><ele>722.5</ele><time>2026-04-29T10:06:56.965Z</time></trkpt><trkpt lat="37.9419049" lon="22.139992"><ele>723.0</ele><time>2026-04-29T10:06:57.964Z</time></trkpt><trkpt lat="37.941801" lon="22.1400818"><ele>717.25</ele><time>2026-04-29T10:06:58.965Z</time></trkpt><trkpt lat="37.9416785" lon="22.1401495"><ele>711.5</ele><time>2026-04-29T10:06:59.964Z</time></trkpt><trkpt lat="37.941547" lon="22.1401972"><ele>705.75</ele><time>2026-04-29T10:07:00.965Z</time></trkpt><trkpt lat="37.941409" lon="22.1402321"><ele>700.0</ele><time>2026-04-29T10:07:01.965Z</time></trkpt><trkpt lat="37.941273" lon="22.1402591"><ele>700.0</ele><time>2026-04-29T10:07:02.965Z</time></trkpt><trkpt lat="37.9411213" lon="22.1402967"><ele>700.0</ele><time>2026-04-29T10:07:03.964Z</time></trkpt><trkpt lat="37.940981" lon="22.140351"><ele>700.0</ele><time>2026-04-29T10:07:04.965Z</time></trkpt><trkpt lat="37.9408493" lon="22.1404349"><ele>700.0</ele><time>2026-04-29T10:07:05.964Z</time></trkpt><trkpt lat="37.9407261" lon="22.1405349"><ele>699.75</ele><time>2026-04-29T10:07:06.964Z</time></trkpt><trkpt lat="37.9406102" lon="22.1406497"><ele>699.5</ele><time>2026-04-29T10:07:07.965Z</time></trkpt><trkpt lat="37.9404959" lon="22.1407435"><ele>699.25</ele><time>2026-04-29T10:07:08.965Z</time></trkpt><trkpt lat="37.9403774" lon="22.1408318"><ele>699.0</ele><time>2026-04-29T10:07:09.965Z</time></trkpt><trkpt lat="37.9402575" lon="22.1409074"><ele>693.5</ele><time>2026-04-29T10:07:10.964Z</time></trkpt><trkpt lat="37.9401335" lon="22.1409721"><ele>688.0</ele><time>2026-04-29T10:07:11.965Z</time></trkpt><trkpt lat="37.9400041" lon="22.1410213"><ele>682.5</ele><time>2026-04-29T10:07:12.965Z</time></trkpt><trkpt lat="37.9398735" lon="22.1410646"><ele>677.0</ele><time>2026-04-29T10:07:13.965Z</time></trkpt><trkpt lat="37.9397429" lon="22.1410874"><ele>677.0</ele><time>2026-04-29T10:07:14.964Z</time></trkpt><trkpt lat="37.9396106" lon="22.1411076"><ele>677.0</ele><time>2026-04-29T10:07:15.964Z</time></trkpt><trkpt lat="37.9394868" lon="22.1410806"><ele>677.0</ele><time>2026-04-29T10:07:16.965Z</time></trkpt><trkpt lat="37.9393719" lon="22.141065"><ele>677.0</ele><time>2026-04-29T10:07:17.965Z</time></trkpt><trkpt lat="37.939244" lon="22.1410708"><ele>678.0</ele><time>2026-04-29T10:07:18.964Z</time></trkpt><trkpt lat="37.9391192" lon="22.1411018"><ele>679.0</ele><time>2026-04-29T10:07:19.965Z</time></trkpt><trkpt lat="37.9389957" lon="22.1411549"><ele>680.0</ele><time>2026-04-29T10:07:20.965Z</time></trkpt><trkpt lat="37.9388785" lon="22.1412042"><ele>681.0</ele><time>2026-04-29T10:07:21.965Z</time></trkpt><trkpt lat="37.9387596" lon="22.1412486"><ele>681.0</ele><time>2026-04-29T10:07:22.965Z</time></trkpt><trkpt lat="37.9386439" lon="22.1412804"><ele>681.0</ele><time>2026-04-29T10:07:23.964Z</time></trkpt><trkpt lat="37.9385302" lon="22.1413244"><ele>681.0</ele><time>2026-04-29T10:07:24.965Z</time></trkpt><trkpt lat="37.9384235" lon="22.141365"><ele>681.0</ele><time>2026-04-29T10:07:25.964Z</time></trkpt><trkpt lat="37.938326" lon="22.1414315"><ele>682.1999999999999</ele><time>2026-04-29T10:07:26.965Z</time></trkpt><trkpt lat="37.9382589" lon="22.1415331"><ele>683.4</ele><time>2026-04-29T10:07:27.965Z</time></trkpt><trkpt lat="37.9382302" lon="22.1416702"><ele>684.6</ele><time>2026-04-29T10:07:28.964Z</time></trkpt><trkpt lat="37.9382108" lon="22.1418097"><ele>685.8</ele><time>2026-04-29T10:07:29.964Z</time></trkpt><trkpt lat="37.9382046" lon="22.1419397"><ele>687.0</ele><time>2026-04-29T10:07:30.964Z</time></trkpt><trkpt lat="37.938188" lon="22.142083"><ele>682.0</ele><time>2026-04-29T10:07:31.964Z</time></trkpt><trkpt lat="37.9381392" lon="22.1422117"><ele>677.0</ele><time>2026-04-29T10:07:32.965Z</time></trkpt><trkpt lat="37.9380794" lon="22.142317"><ele>672.0</ele><time>2026-04-29T10:07:33.964Z</time></trkpt><trkpt lat="37.9380016" lon="22.1424106"><ele>667.0</ele><time>2026-04-29T10:07:34.965Z</time></trkpt><trkpt lat="37.9379138" lon="22.1424954"><ele>662.0</ele><time>2026-04-29T10:07:35.964Z</time></trkpt><trkpt lat="37.9378257" lon="22.1426069"><ele>662.75</ele><time>2026-04-29T10:07:36.964Z</time></trkpt><trkpt lat="37.9377511" lon="22.1427249"><ele>663.5</ele><time>2026-04-29T10:07:37.965Z</time></trkpt><trkpt lat="37.9376734" lon="22.1428563"><ele>664.25</ele><time>2026-04-29T10:07:38.965Z</time></trkpt><trkpt lat="37.9375943" lon="22.1429854"><ele>665.0</ele><time>2026-04-29T10:07:39.965Z</time></trkpt><trkpt lat="37.9375056" lon="22.1431118"><ele>659.0</ele><time>2026-04-29T10:07:40.964Z</time></trkpt><trkpt lat="37.9374039" lon="22.1432267"><ele>653.0</ele><time>2026-04-29T10:07:41.964Z</time></trkpt><trkpt lat="37.9372975" lon="22.1433296"><ele>647.0</ele><time>2026-04-29T10:07:42.965Z</time></trkpt><trkpt lat="37.9371834" lon="22.1434138"><ele>641.0</ele><time>2026-04-29T10:07:43.964Z</time></trkpt><trkpt lat="37.937065" lon="22.1434719"><ele>641.0</ele><time>2026-04-29T10:07:44.964Z</time></trkpt><trkpt lat="37.9369319" lon="22.143474"><ele>641.0</ele><time>2026-04-29T10:07:45.965Z</time></trkpt><trkpt lat="37.9367956" lon="22.1434597"><ele>641.0</ele><time>2026-04-29T10:07:46.964Z</time></trkpt><trkpt lat="37.936666" lon="22.1434086"><ele>641.0</ele><time>2026-04-29T10:07:47.964Z</time></trkpt><trkpt lat="37.9365425" lon="22.1433363"><ele>640.25</ele><time>2026-04-29T10:07:48.965Z</time></trkpt><trkpt lat="37.9364231" lon="22.1432413"><ele>639.5</ele><time>2026-04-29T10:07:49.965Z</time></trkpt><trkpt lat="37.9363045" lon="22.1431383"><ele>638.75</ele><time>2026-04-29T10:07:50.964Z</time></trkpt><trkpt lat="37.9361761" lon="22.1430271"><ele>638.0</ele><time>2026-04-29T10:07:51.965Z</time></trkpt><trkpt lat="37.936051" lon="22.1429375"><ele>643.6666666666666</ele><time>2026-04-29T10:07:52.965Z</time></trkpt><trkpt lat="37.9359077" lon="22.1428669"><ele>649.3333333333334</ele><time>2026-04-29T10:07:53.965Z</time></trkpt><trkpt lat="37.9357538" lon="22.1428221"><ele>655.0</ele><time>2026-04-29T10:07:54.965Z</time></trkpt><trkpt lat="37.9355959" lon="22.1427907"><ele>655.0</ele><time>2026-04-29T10:07:55.965Z</time></trkpt><trkpt lat="37.9354529" lon="22.1427472"><ele>655.0</ele><time>2026-04-29T10:07:56.964Z</time></trkpt><trkpt lat="37.9353037" lon="22.1427111"><ele>655.0</ele><time>2026-04-29T10:07:57.965Z</time></trkpt><trkpt lat="37.9351559" lon="22.1426852"><ele>655.0</ele><time>2026-04-29T10:07:58.965Z</time></trkpt><trkpt lat="37.9350237" lon="22.1426594"><ele>648.75</ele><time>2026-04-29T10:07:59.965Z</time></trkpt><trkpt lat="37.9348893" lon="22.1426231"><ele>642.5</ele><time>2026-04-29T10:08:00.965Z</time></trkpt><trkpt lat="37.9347546" lon="22.1425962"><ele>636.25</ele><time>2026-04-29T10:08:01.965Z</time></trkpt><trkpt lat="37.9346149" lon="22.1425511"><ele>630.0</ele><time>2026-04-29T10:08:02.964Z</time></trkpt><trkpt lat="37.9344777" lon="22.1425378"><ele>630.0</ele><time>2026-04-29T10:08:03.965Z</time></trkpt><trkpt lat="37.9343406" lon="22.1425261"><ele>630.0</ele><time>2026-04-29T10:08:04.965Z</time></trkpt><trkpt lat="37.9342032" lon="22.1425315"><ele>630.0</ele><time>2026-04-29T10:08:05.964Z</time></trkpt><trkpt lat="37.9340648" lon="22.1425417"><ele>630.0</ele><time>2026-04-29T10:08:06.965Z</time></trkpt><trkpt lat="37.9339358" lon="22.142555"><ele>627.5</ele><time>2026-04-29T10:08:07.965Z</time></trkpt><trkpt lat="37.9338053" lon="22.1425702"><ele>625.0</ele><time>2026-04-29T10:08:08.965Z</time></trkpt><trkpt lat="37.9336771" lon="22.1425692"><ele>622.5</ele><time>2026-04-29T10:08:09.964Z</time></trkpt><trkpt lat="37.9335544" lon="22.1425329"><ele>620.0</ele><time>2026-04-29T10:08:10.964Z</time></trkpt><trkpt lat="37.9334335" lon="22.1424857"><ele>617.5</ele><time>2026-04-29T10:08:11.965Z</time></trkpt><trkpt lat="37.9333176" lon="22.142401"><ele>615.0</ele><time>2026-04-29T10:08:12.964Z</time></trkpt><trkpt lat="37.9332161" lon="22.1423124"><ele>612.5</ele><time>2026-04-29T10:08:13.964Z</time></trkpt><trkpt lat="37.9331118" lon="22.1422189"><ele>610.0</ele><time>2026-04-29T10:08:14.964Z</time></trkpt><trkpt lat="37.9330139" lon="22.1421169"><ele>616.0</ele><time>2026-04-29T10:08:15.964Z</time></trkpt><trkpt lat="37.932917" lon="22.1420185"><ele>622.0</ele><time>2026-04-29T10:08:16.965Z</time></trkpt><trkpt lat="37.9328118" lon="22.1419351"><ele>628.0</ele><time>2026-04-29T10:08:17.965Z</time></trkpt><trkpt lat="37.9326962" lon="22.1418619"><ele>634.0</ele><time>2026-04-29T10:08:18.965Z</time></trkpt><trkpt lat="37.9325726" lon="22.1418134"><ele>627.25</ele><time>2026-04-29T10:08:19.964Z</time></trkpt><trkpt lat="37.9324391" lon="22.1417943"><ele>620.5</ele><time>2026-04-29T10:08:20.964Z</time></trkpt><trkpt lat="37.9322991" lon="22.1417779"><ele>613.75</ele><time>2026-04-29T10:08:21.964Z</time></trkpt><trkpt lat="37.9321538" lon="22.1417776"><ele>607.0</ele><time>2026-04-29T10:08:22.964Z</time></trkpt><trkpt lat="37.9320118" lon="22.1417793"><ele>607.0</ele><time>2026-04-29T10:08:23.964Z</time></trkpt><trkpt lat="37.9318755" lon="22.141798"><ele>607.0</ele><time>2026-04-29T10:08:24.965Z</time></trkpt><trkpt lat="37.931744" lon="22.1418356"><ele>607.0</ele><time>2026-04-29T10:08:25.964Z</time></trkpt><trkpt lat="37.9316323" lon="22.1418858"><ele>607.0</ele><time>2026-04-29T10:08:26.965Z</time></trkpt><trkpt lat="37.931523" lon="22.1419507"><ele>609.0</ele><time>2026-04-29T10:08:27.965Z</time></trkpt><trkpt lat="37.9314213" lon="22.141995"><ele>611.0</ele><time>2026-04-29T10:08:28.965Z</time></trkpt><trkpt lat="37.9313105" lon="22.1420362"><ele>613.0</ele><time>2026-04-29T10:08:29.964Z</time></trkpt><trkpt lat="37.9311892" lon="22.1420462"><ele>615.0</ele><time>2026-04-29T10:08:30.964Z</time></trkpt><trkpt lat="37.931062" lon="22.1420425"><ele>615.0</ele><time>2026-04-29T10:08:31.964Z</time></trkpt><trkpt lat="37.9309274" lon="22.1420332"><ele>615.0</ele><time>2026-04-29T10:08:32.965Z</time></trkpt><trkpt lat="37.9307894" lon="22.1420341"><ele>615.0</ele><time>2026-04-29T10:08:33.964Z</time></trkpt><trkpt lat="37.930652" lon="22.1420616"><ele>615.0</ele><time>2026-04-29T10:08:34.964Z</time></trkpt><trkpt lat="37.9305205" lon="22.1420725"><ele>615.25</ele><time>2026-04-29T10:08:35.964Z</time></trkpt><trkpt lat="37.9303968" lon="22.1421085"><ele>615.5</ele><time>2026-04-29T10:08:36.964Z</time></trkpt><trkpt lat="37.9302728" lon="22.1421447"><ele>615.75</ele><time>2026-04-29T10:08:37.964Z</time></trkpt><trkpt lat="37.9301512" lon="22.1421955"><ele>616.0</ele><time>2026-04-29T10:08:38.965Z</time></trkpt><trkpt lat="37.9300356" lon="22.1422539"><ele>616.0</ele><time>2026-04-29T10:08:39.964Z</time></trkpt><trkpt lat="37.9299175" lon="22.1423254"><ele>616.0</ele><time>2026-04-29T10:08:40.964Z</time></trkpt><trkpt lat="37.9297974" lon="22.142402"><ele>616.0</ele><time>2026-04-29T10:08:41.965Z</time></trkpt><trkpt lat="37.9296694" lon="22.1424684"><ele>616.0</ele><time>2026-04-29T10:08:42.965Z</time></trkpt><trkpt lat="37.9295315" lon="22.1425169"><ele>607.0</ele><time>2026-04-29T10:08:43.964Z</time></trkpt><trkpt lat="37.9293868" lon="22.1425419"><ele>598.0</ele><time>2026-04-29T10:08:44.964Z</time></trkpt><trkpt lat="37.9292381" lon="22.1425698"><ele>589.0</ele><time>2026-04-29T10:08:45.965Z</time></trkpt><trkpt lat="37.9290823" lon="22.1425748"><ele>589.0</ele><time>2026-04-29T10:08:46.965Z</time></trkpt><trkpt lat="37.9289181" lon="22.1426038"><ele>589.0</ele><time>2026-04-29T10:08:47.965Z</time></trkpt><trkpt lat="37.9287527" lon="22.1426329"><ele>589.0</ele><time>2026-04-29T10:08:48.965Z</time></trkpt><trkpt lat="37.9285868" lon="22.1426608"><ele>589.0</ele><time>2026-04-29T10:08:49.965Z</time></trkpt><trkpt lat="37.9284267" lon="22.1426941"><ele>589.0</ele><time>2026-04-29T10:08:50.964Z</time></trkpt><trkpt lat="37.9282665" lon="22.1427144"><ele>589.0</ele><time>2026-04-29T10:08:51.965Z</time></trkpt><trkpt lat="37.928109" lon="22.1427297"><ele>587.0</ele><time>2026-04-29T10:08:52.964Z</time></trkpt><trkpt lat="37.9279546" lon="22.1427292"><ele>585.0</ele><time>2026-04-29T10:08:53.965Z</time></trkpt><trkpt lat="37.9278089" lon="22.1427044"><ele>583.0</ele><time>2026-04-29T10:08:54.964Z</time></trkpt><trkpt lat="37.9276633" lon="22.1426661"><ele>581.0</ele><time>2026-04-29T10:08:55.964Z</time></trkpt><trkpt lat="37.9275069" lon="22.1426166"><ele>579.0</ele><time>2026-04-29T10:08:56.964Z</time></trkpt><trkpt lat="37.9273616" lon="22.142581"><ele>577.0</ele><time>2026-04-29T10:08:57.965Z</time></trkpt><trkpt lat="37.9272152" lon="22.1425808"><ele>577.0</ele><time>2026-04-29T10:08:58.964Z</time></trkpt><trkpt lat="37.9270681" lon="22.1425951"><ele>577.0</ele><time>2026-04-29T10:08:59.965Z</time></trkpt><trkpt lat="37.9269222" lon="22.1426339"><ele>577.0</ele><time>2026-04-29T10:09:00.965Z</time></trkpt><trkpt lat="37.9267733" lon="22.1426872"><ele>577.6666666666667</ele><time>2026-04-29T10:09:01.965Z</time></trkpt><trkpt lat="37.9266198" lon="22.1427495"><ele>578.3333333333334</ele><time>2026-04-29T10:09:02.965Z</time></trkpt><trkpt lat="37.9264596" lon="22.1428147"><ele>579.0</ele><time>2026-04-29T10:09:03.964Z</time></trkpt><trkpt lat="37.9263107" lon="22.1428771"><ele>579.0</ele><time>2026-04-29T10:09:04.964Z</time></trkpt><trkpt lat="37.9261521" lon="22.1429648"><ele>579.0</ele><time>2026-04-29T10:09:05.965Z</time></trkpt><trkpt lat="37.9259979" lon="22.1430482"><ele>579.0</ele><time>2026-04-29T10:09:06.964Z</time></trkpt><trkpt lat="37.9258539" lon="22.1431377"><ele>575.6666666666666</ele><time>2026-04-29T10:09:07.965Z</time></trkpt><trkpt lat="37.9257117" lon="22.1432336"><ele>572.3333333333333</ele><time>2026-04-29T10:09:08.965Z</time></trkpt><trkpt lat="37.9255839" lon="22.1433316"><ele>569.0</ele><time>2026-04-29T10:09:09.965Z</time></trkpt><trkpt lat="37.9254542" lon="22.143409"><ele>569.0</ele><time>2026-04-29T10:09:10.965Z</time></trkpt><trkpt lat="37.9253289" lon="22.1434563"><ele>569.0</ele><time>2026-04-29T10:09:11.965Z</time></trkpt><trkpt lat="37.9251948" lon="22.1434544"><ele>569.0</ele><time>2026-04-29T10:09:12.964Z</time></trkpt><trkpt lat="37.9250494" lon="22.1434239"><ele>569.0</ele><time>2026-04-29T10:09:13.965Z</time></trkpt><trkpt lat="37.9248895" lon="22.1433765"><ele>567.3333333333333</ele><time>2026-04-29T10:09:14.964Z</time></trkpt><trkpt lat="37.9247242" lon="22.1433451"><ele>565.6666666666666</ele><time>2026-04-29T10:09:15.965Z</time></trkpt><trkpt lat="37.9245675" lon="22.1432921"><ele>564.0</ele><time>2026-04-29T10:09:16.965Z</time></trkpt><trkpt lat="37.9244148" lon="22.1432342"><ele>566.6666666666666</ele><time>2026-04-29T10:09:17.965Z</time></trkpt><trkpt lat="37.9242586" lon="22.1431721"><ele>569.3333333333333</ele><time>2026-04-29T10:09:18.965Z</time></trkpt><trkpt lat="37.9240958" lon="22.1431121"><ele>572.0</ele><time>2026-04-29T10:09:19.964Z</time></trkpt><trkpt lat="37.9239236" lon="22.1430568"><ele>574.6666666666666</ele><time>2026-04-29T10:09:20.965Z</time></trkpt><trkpt lat="37.9237611" lon="22.1430274"><ele>577.3333333333334</ele><time>2026-04-29T10:09:21.965Z</time></trkpt><trkpt lat="37.923584" lon="22.1430279"><ele>580.0</ele><time>2026-04-29T10:09:22.965Z</time></trkpt><trkpt lat="37.9234146" lon="22.1430428"><ele>582.6666666666667</ele><time>2026-04-29T10:09:23.964Z</time></trkpt><trkpt lat="37.9232393" lon="22.1430685"><ele>585.3333333333334</ele><time>2026-04-29T10:09:24.964Z</time></trkpt><trkpt lat="37.9230591" lon="22.1430913"><ele>588.0</ele><time>2026-04-29T10:09:25.965Z</time></trkpt><trkpt lat="37.9228772" lon="22.1431159"><ele>588.0</ele><time>2026-04-29T10:09:26.964Z</time></trkpt><trkpt lat="37.9226983" lon="22.1431394"><ele>588.0</ele><time>2026-04-29T10:09:27.965Z</time></trkpt><trkpt lat="37.9225105" lon="22.1431611"><ele>588.0</ele><time>2026-04-29T10:09:28.964Z</time></trkpt><trkpt lat="37.922319" lon="22.1431806"><ele>588.3333333333334</ele><time>2026-04-29T10:09:29.965Z</time></trkpt><trkpt lat="37.9221284" lon="22.1432045"><ele>588.6666666666667</ele><time>2026-04-29T10:09:30.964Z</time></trkpt><trkpt lat="37.9219309" lon="22.1432209"><ele>589.0</ele><time>2026-04-29T10:09:31.965Z</time></trkpt><trkpt lat="37.9217402" lon="22.1432308"><ele>580.0</ele><time>2026-04-29T10:09:32.965Z</time></trkpt><trkpt lat="37.9215492" lon="22.1432387"><ele>571.0</ele><time>2026-04-29T10:09:33.965Z</time></trkpt><trkpt lat="37.9213561" lon="22.1432398"><ele>562.0</ele><time>2026-04-29T10:09:34.964Z</time></trkpt><trkpt lat="37.9211588" lon="22.1432484"><ele>562.0</ele><time>2026-04-29T10:09:35.965Z</time></trkpt><trkpt lat="37.9209642" lon="22.1432449"><ele>562.0</ele><time>2026-04-29T10:09:36.965Z</time></trkpt><trkpt lat="37.9207781" lon="22.1432467"><ele>562.0</ele><time>2026-04-29T10:09:37.965Z</time></trkpt><trkpt lat="37.9205847" lon="22.143243"><ele>563.3333333333334</ele><time>2026-04-29T10:09:38.964Z</time></trkpt><trkpt lat="37.9203932" lon="22.1432339"><ele>564.6666666666666</ele><time>2026-04-29T10:09:39.965Z</time></trkpt><trkpt lat="37.9202041" lon="22.1432282"><ele>566.0</ele><time>2026-04-29T10:09:40.964Z</time></trkpt><trkpt lat="37.9200191" lon="22.1432079"><ele>572.3333333333333</ele><time>2026-04-29T10:09:41.965Z</time></trkpt><trkpt lat="37.9198311" lon="22.1431653"><ele>578.6666666666666</ele><time>2026-04-29T10:09:42.965Z</time></trkpt><trkpt lat="37.9196432" lon="22.1431329"><ele>585.0</ele><time>2026-04-29T10:09:43.965Z</time></trkpt><trkpt lat="37.9194534" lon="22.1431012"><ele>585.0</ele><time>2026-04-29T10:09:44.964Z</time></trkpt><trkpt lat="37.9192571" lon="22.1430844"><ele>585.0</ele><time>2026-04-29T10:09:45.965Z</time></trkpt><trkpt lat="37.9190564" lon="22.143076"><ele>585.0</ele><time>2026-04-29T10:09:46.965Z</time></trkpt><trkpt lat="37.9188524" lon="22.1430726"><ele>583.6666666666666</ele><time>2026-04-29T10:09:47.964Z</time></trkpt><trkpt lat="37.9186317" lon="22.1430937"><ele>582.3333333333333</ele><time>2026-04-29T10:09:48.965Z</time></trkpt><trkpt lat="37.9184145" lon="22.1431251"><ele>581.0</ele><time>2026-04-29T10:09:49.964Z</time></trkpt><trkpt lat="37.918194" lon="22.1431633"><ele>573.0</ele><time>2026-04-29T10:09:50.965Z</time></trkpt><trkpt lat="37.9179725" lon="22.1432023"><ele>565.0</ele><time>2026-04-29T10:09:51.964Z</time></trkpt><trkpt lat="37.9177524" lon="22.1432387"><ele>557.0</ele><time>2026-04-29T10:09:52.965Z</time></trkpt><trkpt lat="37.9175428" lon="22.1432761"><ele>554.0</ele><time>2026-04-29T10:09:53.965Z</time></trkpt><trkpt lat="37.9173349" lon="22.1433146"><ele>551.0</ele><time>2026-04-29T10:09:54.965Z</time></trkpt><trkpt lat="37.9171231" lon="22.1433556"><ele>548.0</ele><time>2026-04-29T10:09:55.964Z</time></trkpt><trkpt lat="37.9169122" lon="22.1433959"><ele>547.0</ele><time>2026-04-29T10:09:56.965Z</time></trkpt><trkpt lat="37.9167029" lon="22.1434361"><ele>546.0</ele><time>2026-04-29T10:09:57.965Z</time></trkpt><trkpt lat="37.9164993" lon="22.1434747"><ele>545.0</ele><time>2026-04-29T10:09:58.965Z</time></trkpt><trkpt lat="37.9163017" lon="22.1434923"><ele>545.0</ele><time>2026-04-29T10:09:59.964Z</time></trkpt><trkpt lat="37.9161053" lon="22.1434935"><ele>545.0</ele><time>2026-04-29T10:10:00.965Z</time></trkpt><trkpt lat="37.9159067" lon="22.1434519"><ele>545.0</ele><time>2026-04-29T10:10:01.965Z</time></trkpt><trkpt lat="37.9157093" lon="22.1433856"><ele>541.6666666666666</ele><time>2026-04-29T10:10:02.965Z</time></trkpt><trkpt lat="37.915514" lon="22.1433012"><ele>538.3333333333334</ele><time>2026-04-29T10:10:03.965Z</time></trkpt><trkpt lat="37.9153265" lon="22.1432348"><ele>535.0</ele><time>2026-04-29T10:10:04.964Z</time></trkpt><trkpt lat="37.9151381" lon="22.143148"><ele>552.0</ele><time>2026-04-29T10:10:05.964Z</time></trkpt><trkpt lat="37.9149554" lon="22.1430637"><ele>569.0</ele><time>2026-04-29T10:10:06.964Z</time></trkpt><trkpt lat="37.9148043" lon="22.1429809"><ele>586.0</ele><time>2026-04-29T10:10:07.965Z</time></trkpt><trkpt lat="37.9146555" lon="22.1428863"><ele>586.0</ele><time>2026-04-29T10:10:08.964Z</time></trkpt><trkpt lat="37.9145151" lon="22.1427344"><ele>586.0</ele><time>2026-04-29T10:10:09.965Z</time></trkpt><trkpt lat="37.9143695" lon="22.1425514"><ele>586.0</ele><time>2026-04-29T10:10:10.964Z</time></trkpt><trkpt lat="37.9142255" lon="22.1423618"><ele>578.6666666666667</ele><time>2026-04-29T10:10:11.965Z</time></trkpt><trkpt lat="37.91409" lon="22.1421602"><ele>571.3333333333334</ele><time>2026-04-29T10:10:12.965Z</time></trkpt><trkpt lat="37.9139567" lon="22.1419561"><ele>564.0</ele><time>2026-04-29T10:10:13.964Z</time></trkpt><trkpt lat="37.9138197" lon="22.1417431"><ele>573.0</ele><time>2026-04-29T10:10:14.964Z</time></trkpt><trkpt lat="37.9136876" lon="22.1415477"><ele>582.0</ele><time>2026-04-29T10:10:15.964Z</time></trkpt><trkpt lat="37.9135636" lon="22.1413542"><ele>591.0</ele><time>2026-04-29T10:10:16.964Z</time></trkpt><trkpt lat="37.9134455" lon="22.1411693"><ele>581.3333333333334</ele><time>2026-04-29T10:10:17.964Z</time></trkpt><trkpt lat="37.9133163" lon="22.1409913"><ele>571.6666666666667</ele><time>2026-04-29T10:10:18.965Z</time></trkpt><trkpt lat="37.913205" lon="22.1408149"><ele>562.0</ele><time>2026-04-29T10:10:19.964Z</time></trkpt><trkpt lat="37.9131022" lon="22.1406438"><ele>562.0</ele><time>2026-04-29T10:10:20.965Z</time></trkpt><trkpt lat="37.9130105" lon="22.1404748"><ele>562.0</ele><time>2026-04-29T10:10:21.965Z</time></trkpt><trkpt lat="37.9129326" lon="22.140301"><ele>562.0</ele><time>2026-04-29T10:10:22.964Z</time></trkpt><trkpt lat="37.9128493" lon="22.1401144"><ele>562.0</ele><time>2026-04-29T10:10:23.965Z</time></trkpt><trkpt lat="37.9127801" lon="22.1399323"><ele>562.0</ele><time>2026-04-29T10:10:24.965Z</time></trkpt><trkpt lat="37.9127024" lon="22.1397437"><ele>562.0</ele><time>2026-04-29T10:10:25.965Z</time></trkpt><trkpt lat="37.9126358" lon="22.1395572"><ele>558.6666666666667</ele><time>2026-04-29T10:10:26.965Z</time></trkpt><trkpt lat="37.9125936" lon="22.1393602"><ele>555.3333333333334</ele><time>2026-04-29T10:10:27.965Z</time></trkpt><trkpt lat="37.9125297" lon="22.1391656"><ele>552.0</ele><time>2026-04-29T10:10:28.965Z</time></trkpt><trkpt lat="37.912474" lon="22.1389861"><ele>552.0</ele><time>2026-04-29T10:10:29.965Z</time></trkpt><trkpt lat="37.9124128" lon="22.1387993"><ele>552.0</ele><time>2026-04-29T10:10:30.964Z</time></trkpt><trkpt lat="37.9123607" lon="22.1386179"><ele>552.0</ele><time>2026-04-29T10:10:31.965Z</time></trkpt><trkpt lat="37.9123043" lon="22.1384472"><ele>552.0</ele><time>2026-04-29T10:10:32.965Z</time></trkpt><trkpt lat="37.9122456" lon="22.1382933"><ele>552.0</ele><time>2026-04-29T10:10:33.964Z</time></trkpt><trkpt lat="37.9121823" lon="22.1381379"><ele>552.0</ele><time>2026-04-29T10:10:34.964Z</time></trkpt><trkpt lat="37.9121359" lon="22.1380011"><ele>552.0</ele><time>2026-04-29T10:10:35.964Z</time></trkpt><trkpt lat="37.9120877" lon="22.1378568"><ele>554.5</ele><time>2026-04-29T10:10:36.964Z</time></trkpt><trkpt lat="37.9120363" lon="22.1377116"><ele>557.0</ele><time>2026-04-29T10:10:37.965Z</time></trkpt><trkpt lat="37.9119878" lon="22.1375604"><ele>559.5</ele><time>2026-04-29T10:10:38.965Z</time></trkpt><trkpt lat="37.9119231" lon="22.1374232"><ele>562.0</ele><time>2026-04-29T10:10:39.964Z</time></trkpt><trkpt lat="37.9118606" lon="22.137284"><ele>563.75</ele><time>2026-04-29T10:10:40.964Z</time></trkpt><trkpt lat="37.9117942" lon="22.1371462"><ele>565.5</ele><time>2026-04-29T10:10:41.965Z</time></trkpt><trkpt lat="37.9117119" lon="22.1370093"><ele>567.25</ele><time>2026-04-29T10:10:42.964Z</time></trkpt><trkpt lat="37.9116199" lon="22.1368726"><ele>569.0</ele><time>2026-04-29T10:10:43.964Z</time></trkpt><trkpt lat="37.9115223" lon="22.1367418"><ele>564.25</ele><time>2026-04-29T10:10:44.965Z</time></trkpt><trkpt lat="37.9114096" lon="22.1366208"><ele>559.5</ele><time>2026-04-29T10:10:45.965Z</time></trkpt><trkpt lat="37.911298" lon="22.1365197"><ele>554.75</ele><time>2026-04-29T10:10:46.965Z</time></trkpt><trkpt lat="37.9111899" lon="22.1364151"><ele>550.0</ele><time>2026-04-29T10:10:47.965Z</time></trkpt><trkpt lat="37.9110804" lon="22.1363124"><ele>550.0</ele><time>2026-04-29T10:10:48.965Z</time></trkpt><trkpt lat="37.9109674" lon="22.1362064"><ele>550.0</ele><time>2026-04-29T10:10:49.965Z</time></trkpt><trkpt lat="37.9108465" lon="22.1361087"><ele>550.0</ele><time>2026-04-29T10:10:50.964Z</time></trkpt><trkpt lat="37.9107214" lon="22.1360271"><ele>550.0</ele><time>2026-04-29T10:10:51.964Z</time></trkpt><trkpt lat="37.9105948" lon="22.1359643"><ele>547.3333333333334</ele><time>2026-04-29T10:10:52.965Z</time></trkpt><trkpt lat="37.910451" lon="22.1359158"><ele>544.6666666666666</ele><time>2026-04-29T10:10:53.964Z</time></trkpt><trkpt lat="37.9102965" lon="22.1358831"><ele>542.0</ele><time>2026-04-29T10:10:54.965Z</time></trkpt><trkpt lat="37.9101333" lon="22.1358501"><ele>542.6666666666666</ele><time>2026-04-29T10:10:55.965Z</time></trkpt><trkpt lat="37.9099658" lon="22.1358197"><ele>543.3333333333334</ele><time>2026-04-29T10:10:56.965Z</time></trkpt><trkpt lat="37.9097953" lon="22.135785"><ele>544.0</ele><time>2026-04-29T10:10:57.964Z</time></trkpt><trkpt lat="37.9096281" lon="22.1357547"><ele>544.0</ele><time>2026-04-29T10:10:58.964Z</time></trkpt><trkpt lat="37.9094622" lon="22.1357266"><ele>544.0</ele><time>2026-04-29T10:10:59.964Z</time></trkpt><trkpt lat="37.9092935" lon="22.1357148"><ele>544.0</ele><time>2026-04-29T10:11:00.965Z</time></trkpt><trkpt lat="37.9091274" lon="22.1356933"><ele>544.6666666666667</ele><time>2026-04-29T10:11:01.964Z</time></trkpt><trkpt lat="37.9089535" lon="22.1356712"><ele>545.3333333333334</ele><time>2026-04-29T10:11:02.964Z</time></trkpt><trkpt lat="37.9087802" lon="22.135643"><ele>546.0</ele><time>2026-04-29T10:11:03.964Z</time></trkpt><trkpt lat="37.9086054" lon="22.1356087"><ele>546.0</ele><time>2026-04-29T10:11:04.965Z</time></trkpt><trkpt lat="37.9084293" lon="22.1355895"><ele>546.0</ele><time>2026-04-29T10:11:05.965Z</time></trkpt><trkpt lat="37.9082564" lon="22.13556"><ele>546.0</ele><time>2026-04-29T10:11:06.964Z</time></trkpt><trkpt lat="37.9080933" lon="22.1355391"><ele>544.3333333333334</ele><time>2026-04-29T10:11:07.965Z</time></trkpt><trkpt lat="37.9079332" lon="22.1355205"><ele>542.6666666666667</ele><time>2026-04-29T10:11:08.964Z</time></trkpt><trkpt lat="37.9077736" lon="22.1354992"><ele>541.0</ele><time>2026-04-29T10:11:09.965Z</time></trkpt><trkpt lat="37.9076219" lon="22.1354867"><ele>541.0</ele><time>2026-04-29T10:11:10.965Z</time></trkpt><trkpt lat="37.9074714" lon="22.1354719"><ele>541.0</ele><time>2026-04-29T10:11:11.965Z</time></trkpt><trkpt lat="37.9073444" lon="22.135462"><ele>541.0</ele><time>2026-04-29T10:11:12.964Z</time></trkpt><trkpt lat="37.9072155" lon="22.1354504"><ele>541.0</ele><time>2026-04-29T10:11:13.964Z</time></trkpt><trkpt lat="37.9071076" lon="22.1354377"><ele>541.0</ele><time>2026-04-29T10:11:14.965Z</time></trkpt><trkpt lat="37.9070211" lon="22.1354391"><ele>541.0</ele><time>2026-04-29T10:11:15.964Z</time></trkpt><trkpt lat="37.9069342" lon="22.1354276"><ele>541.0</ele><time>2026-04-29T10:11:16.964Z</time></trkpt><trkpt lat="37.9068626" lon="22.1354057"><ele>541.0</ele><time>2026-04-29T10:11:17.964Z</time></trkpt><trkpt lat="37.9068009" lon="22.1353539"><ele>541.0</ele><time>2026-04-29T10:11:18.965Z</time></trkpt><trkpt lat="37.9067376" lon="22.1352844"><ele>541.0</ele><time>2026-04-29T10:11:19.964Z</time></trkpt><trkpt lat="37.9066782" lon="22.1351946"><ele>539.75</ele><time>2026-04-29T10:11:20.965Z</time></trkpt><trkpt lat="37.9066036" lon="22.135101"><ele>538.5</ele><time>2026-04-29T10:11:21.965Z</time></trkpt><trkpt lat="37.906498" lon="22.1350467"><ele>537.25</ele><time>2026-04-29T10:11:22.965Z</time></trkpt><trkpt lat="37.9063738" lon="22.1350124"><ele>536.0</ele><time>2026-04-29T10:11:23.964Z</time></trkpt><trkpt lat="37.906251" lon="22.1349857"><ele>536.0</ele><time>2026-04-29T10:11:24.965Z</time></trkpt><trkpt lat="37.9061237" lon="22.1349498"><ele>536.0</ele><time>2026-04-29T10:11:25.964Z</time></trkpt><trkpt lat="37.906004" lon="22.1349096"><ele>536.0</ele><time>2026-04-29T10:11:26.964Z</time></trkpt><trkpt lat="37.9058823" lon="22.1348667"><ele>536.0</ele><time>2026-04-29T10:11:27.964Z</time></trkpt><trkpt lat="37.9057572" lon="22.1348142"><ele>540.5</ele><time>2026-04-29T10:11:28.964Z</time></trkpt><trkpt lat="37.9056423" lon="22.1347783"><ele>545.0</ele><time>2026-04-29T10:11:29.964Z</time></trkpt><trkpt lat="37.9055414" lon="22.1347268"><ele>549.5</ele><time>2026-04-29T10:11:30.964Z</time></trkpt><trkpt lat="37.905435" lon="22.1346686"><ele>554.0</ele><time>2026-04-29T10:11:31.965Z</time></trkpt><trkpt lat="37.9053311" lon="22.1346044"><ele>554.0</ele><time>2026-04-29T10:11:32.965Z</time></trkpt><trkpt lat="37.9052321" lon="22.1345363"><ele>554.0</ele><time>2026-04-29T10:11:33.965Z</time></trkpt><trkpt lat="37.9051433" lon="22.1344663"><ele>554.0</ele><time>2026-04-29T10:11:34.965Z</time></trkpt><trkpt lat="37.9050597" lon="22.1343766"><ele>554.0</ele><time>2026-04-29T10:11:35.964Z</time></trkpt><trkpt lat="37.9049747" lon="22.1342792"><ele>554.0</ele><time>2026-04-29T10:11:36.964Z</time></trkpt><trkpt lat="37.9048994" lon="22.1341764"><ele>555.6</ele><time>2026-04-29T10:11:37.965Z</time></trkpt><trkpt lat="37.9048291" lon="22.1341015"><ele>557.2</ele><time>2026-04-29T10:11:38.965Z</time></trkpt><trkpt lat="37.9047407" lon="22.134008"><ele>558.8000000000001</ele><time>2026-04-29T10:11:39.965Z</time></trkpt><trkpt lat="37.9046413" lon="22.1339318"><ele>560.4</ele><time>2026-04-29T10:11:40.965Z</time></trkpt><trkpt lat="37.9045289" lon="22.1338704"><ele>562.0</ele><time>2026-04-29T10:11:41.964Z</time></trkpt><trkpt lat="37.9044283" lon="22.1338032"><ele>562.0</ele><time>2026-04-29T10:11:42.964Z</time></trkpt><trkpt lat="37.9043216" lon="22.1337609"><ele>562.0</ele><time>2026-04-29T10:11:43.965Z</time></trkpt><trkpt lat="37.9042228" lon="22.1337084"><ele>562.0</ele><time>2026-04-29T10:11:44.965Z</time></trkpt><trkpt lat="37.9041249" lon="22.1336347"><ele>562.0</ele><time>2026-04-29T10:11:45.964Z</time></trkpt><trkpt lat="37.9040281" lon="22.1335522"><ele>562.0</ele><time>2026-04-29T10:11:46.964Z</time></trkpt><trkpt lat="37.9039291" lon="22.1334648"><ele>564.5</ele><time>2026-04-29T10:11:47.964Z</time></trkpt><trkpt lat="37.9038237" lon="22.1333797"><ele>567.0</ele><time>2026-04-29T10:11:48.964Z</time></trkpt><trkpt lat="37.9037127" lon="22.1332941"><ele>569.5</ele><time>2026-04-29T10:11:49.965Z</time></trkpt><trkpt lat="37.9035994" lon="22.1331914"><ele>572.0</ele><time>2026-04-29T10:11:50.964Z</time></trkpt><trkpt lat="37.9034912" lon="22.133065"><ele>562.0</ele><time>2026-04-29T10:11:51.964Z</time></trkpt><trkpt lat="37.9033786" lon="22.1329245"><ele>552.0</ele><time>2026-04-29T10:11:52.965Z</time></trkpt><trkpt lat="37.9032617" lon="22.1327894"><ele>542.0</ele><time>2026-04-29T10:11:53.965Z</time></trkpt><trkpt lat="37.903133" lon="22.1326669"><ele>542.0</ele><time>2026-04-29T10:11:54.965Z</time></trkpt><trkpt lat="37.9029943" lon="22.1325566"><ele>542.0</ele><time>2026-04-29T10:11:55.965Z</time></trkpt><trkpt lat="37.9028657" lon="22.1324392"><ele>542.0</ele><time>2026-04-29T10:11:56.964Z</time></trkpt><trkpt lat="37.9027425" lon="22.1323225"><ele>542.0</ele><time>2026-04-29T10:11:57.964Z</time></trkpt><trkpt lat="37.9026172" lon="22.1321986"><ele>542.0</ele><time>2026-04-29T10:11:58.965Z</time></trkpt><trkpt lat="37.9025021" lon="22.1320728"><ele>542.0</ele><time>2026-04-29T10:11:59.965Z</time></trkpt><trkpt lat="37.9024032" lon="22.1319427"><ele>542.0</ele><time>2026-04-29T10:12:00.964Z</time></trkpt><trkpt lat="37.9023153" lon="22.1318129"><ele>542.0</ele><time>2026-04-29T10:12:01.964Z</time></trkpt><trkpt lat="37.9022431" lon="22.1316587"><ele>542.0</ele><time>2026-04-29T10:12:02.964Z</time></trkpt><trkpt lat="37.9021778" lon="22.1314947"><ele>542.0</ele><time>2026-04-29T10:12:03.965Z</time></trkpt><trkpt lat="37.9021155" lon="22.1313167"><ele>547.0</ele><time>2026-04-29T10:12:04.965Z</time></trkpt><trkpt lat="37.9020726" lon="22.1311221"><ele>552.0</ele><time>2026-04-29T10:12:05.964Z</time></trkpt><trkpt lat="37.9020353" lon="22.1309293"><ele>557.0</ele><time>2026-04-29T10:12:06.964Z</time></trkpt><trkpt lat="37.9020091" lon="22.1307399"><ele>556.25</ele><time>2026-04-29T10:12:07.964Z</time></trkpt><trkpt lat="37.9019883" lon="22.1305469"><ele>555.5</ele><time>2026-04-29T10:12:08.965Z</time></trkpt><trkpt lat="37.9019621" lon="22.1303632"><ele>554.75</ele><time>2026-04-29T10:12:09.965Z</time></trkpt><trkpt lat="37.9019415" lon="22.13018"><ele>554.0</ele><time>2026-04-29T10:12:10.964Z</time></trkpt><trkpt lat="37.9019131" lon="22.1299978"><ele>552.0</ele><time>2026-04-29T10:12:11.964Z</time></trkpt><trkpt lat="37.9018744" lon="22.1298173"><ele>550.0</ele><time>2026-04-29T10:12:12.965Z</time></trkpt><trkpt lat="37.9018408" lon="22.1296257"><ele>548.0</ele><time>2026-04-29T10:12:13.965Z</time></trkpt><trkpt lat="37.9018208" lon="22.1294389"><ele>548.0</ele><time>2026-04-29T10:12:14.965Z</time></trkpt><trkpt lat="37.9018104" lon="22.1292504"><ele>548.0</ele><time>2026-04-29T10:12:15.964Z</time></trkpt><trkpt lat="37.9017922" lon="22.1290543"><ele>548.0</ele><time>2026-04-29T10:12:16.965Z</time></trkpt><trkpt lat="37.9017677" lon="22.1288669"><ele>542.6666666666666</ele><time>2026-04-29T10:12:17.964Z</time></trkpt><trkpt lat="37.9017413" lon="22.1286743"><ele>537.3333333333334</ele><time>2026-04-29T10:12:18.965Z</time></trkpt><trkpt lat="37.90171" lon="22.1284841"><ele>532.0</ele><time>2026-04-29T10:12:19.965Z</time></trkpt><trkpt lat="37.9016656" lon="22.1282967"><ele>534.3333333333334</ele><time>2026-04-29T10:12:20.965Z</time></trkpt><trkpt lat="37.9016107" lon="22.1281128"><ele>536.6666666666666</ele><time>2026-04-29T10:12:21.964Z</time></trkpt><trkpt lat="37.9015522" lon="22.1279272"><ele>539.0</ele><time>2026-04-29T10:12:22.965Z</time></trkpt><trkpt lat="37.9014937" lon="22.127745"><ele>539.0</ele><time>2026-04-29T10:12:23.965Z</time></trkpt><trkpt lat="37.9014365" lon="22.1275642"><ele>539.0</ele><time>2026-04-29T10:12:24.965Z</time></trkpt><trkpt lat="37.9013762" lon="22.1273792"><ele>539.0</ele><time>2026-04-29T10:12:25.965Z</time></trkpt><trkpt lat="37.9013254" lon="22.1271956"><ele>541.25</ele><time>2026-04-29T10:12:26.965Z</time></trkpt><trkpt lat="37.9012685" lon="22.1270347"><ele>543.5</ele><time>2026-04-29T10:12:27.964Z</time></trkpt><trkpt lat="37.9012149" lon="22.1268888"><ele>545.75</ele><time>2026-04-29T10:12:28.965Z</time></trkpt><trkpt lat="37.9011569" lon="22.1267603"><ele>548.0</ele><time>2026-04-29T10:12:29.965Z</time></trkpt><trkpt lat="37.9010768" lon="22.1266376"><ele>546.25</ele><time>2026-04-29T10:12:30.964Z</time></trkpt><trkpt lat="37.9009799" lon="22.1265435"><ele>544.5</ele><time>2026-04-29T10:12:31.965Z</time></trkpt><trkpt lat="37.9008629" lon="22.1264627"><ele>542.75</ele><time>2026-04-29T10:12:32.964Z</time></trkpt><trkpt lat="37.900742" lon="22.1263782"><ele>541.0</ele><time>2026-04-29T10:12:33.965Z</time></trkpt><trkpt lat="37.9006164" lon="22.1262905"><ele>541.0</ele><time>2026-04-29T10:12:34.965Z</time></trkpt><trkpt lat="37.9004829" lon="22.1261949"><ele>541.0</ele><time>2026-04-29T10:12:35.965Z</time></trkpt><trkpt lat="37.9003526" lon="22.1260961"><ele>541.0</ele><time>2026-04-29T10:12:36.965Z</time></trkpt><trkpt lat="37.9002209" lon="22.12599"><ele>541.0</ele><time>2026-04-29T10:12:37.964Z</time></trkpt><trkpt lat="37.9000961" lon="22.1258832"><ele>541.0</ele><time>2026-04-29T10:12:38.964Z</time></trkpt><trkpt lat="37.8999742" lon="22.1257662"><ele>541.0</ele><time>2026-04-29T10:12:39.965Z</time></trkpt><trkpt lat="37.899848" lon="22.1256476"><ele>540.0</ele><time>2026-04-29T10:12:40.964Z</time></trkpt><trkpt lat="37.899724" lon="22.125525"><ele>539.0</ele><time>2026-04-29T10:12:41.965Z</time></trkpt><trkpt lat="37.8996012" lon="22.1253977"><ele>538.0</ele><time>2026-04-29T10:12:42.965Z</time></trkpt><trkpt lat="37.8994888" lon="22.1252675"><ele>538.0</ele><time>2026-04-29T10:12:43.964Z</time></trkpt><trkpt lat="37.8993684" lon="22.1251422"><ele>538.0</ele><time>2026-04-29T10:12:44.964Z</time></trkpt><trkpt lat="37.8992554" lon="22.1250235"><ele>538.0</ele><time>2026-04-29T10:12:45.965Z</time></trkpt><trkpt lat="37.8991309" lon="22.1249015"><ele>537.75</ele><time>2026-04-29T10:12:46.965Z</time></trkpt><trkpt lat="37.8990212" lon="22.1247973"><ele>537.5</ele><time>2026-04-29T10:12:47.964Z</time></trkpt><trkpt lat="37.8989045" lon="22.1247105"><ele>537.25</ele><time>2026-04-29T10:12:48.965Z</time></trkpt><trkpt lat="37.8987806" lon="22.1246453"><ele>537.0</ele><time>2026-04-29T10:12:49.965Z</time></trkpt><trkpt lat="37.8986597" lon="22.1245964"><ele>537.0</ele><time>2026-04-29T10:12:50.964Z</time></trkpt><trkpt lat="37.8985444" lon="22.1245421"><ele>537.0</ele><time>2026-04-29T10:12:51.964Z</time></trkpt><trkpt lat="37.8984379" lon="22.1245123"><ele>537.0</ele><time>2026-04-29T10:12:52.965Z</time></trkpt><trkpt lat="37.8983291" lon="22.1244771"><ele>537.0</ele><time>2026-04-29T10:12:53.965Z</time></trkpt><trkpt lat="37.8982183" lon="22.1244475"><ele>535.8333333333334</ele><time>2026-04-29T10:12:54.965Z</time></trkpt><trkpt lat="37.8981373" lon="22.1244217"><ele>534.6666666666666</ele><time>2026-04-29T10:12:55.965Z</time></trkpt><trkpt lat="37.8980509" lon="22.1243924"><ele>533.5</ele><time>2026-04-29T10:12:56.964Z</time></trkpt><trkpt lat="37.8979596" lon="22.1243477"><ele>532.3333333333333</ele><time>2026-04-29T10:12:57.964Z</time></trkpt><trkpt lat="37.8978737" lon="22.1242967"><ele>531.1666666666666</ele><time>2026-04-29T10:12:58.964Z</time></trkpt><trkpt lat="37.8978151" lon="22.1242293"><ele>530.0</ele><time>2026-04-29T10:12:59.964Z</time></trkpt><trkpt lat="37.897742" lon="22.1241258"><ele>530.2</ele><time>2026-04-29T10:13:00.964Z</time></trkpt><trkpt lat="37.8976696" lon="22.1240195"><ele>530.4</ele><time>2026-04-29T10:13:01.965Z</time></trkpt><trkpt lat="37.897592" lon="22.1239267"><ele>530.6</ele><time>2026-04-29T10:13:02.964Z</time></trkpt><trkpt lat="37.8975226" lon="22.1238377"><ele>530.8</ele><time>2026-04-29T10:13:03.965Z</time></trkpt><trkpt lat="37.8974625" lon="22.1237562"><ele>531.0</ele><time>2026-04-29T10:13:04.964Z</time></trkpt><trkpt lat="37.8974093" lon="22.1236786"><ele>529.5</ele><time>2026-04-29T10:13:05.965Z</time></trkpt><trkpt lat="37.8973515" lon="22.1236303"><ele>528.0</ele><time>2026-04-29T10:13:06.964Z</time></trkpt><trkpt lat="37.8972956" lon="22.1235831"><ele>526.5</ele><time>2026-04-29T10:13:07.965Z</time></trkpt><trkpt lat="37.8972306" lon="22.1235538"><ele>525.0</ele><time>2026-04-29T10:13:08.964Z</time></trkpt><trkpt lat="37.8971354" lon="22.1235113"><ele>523.5</ele><time>2026-04-29T10:13:10.964Z</time></trkpt><trkpt lat="37.8970593" lon="22.1234773"><ele>522.0</ele><time>2026-04-29T10:13:13.964Z</time></trkpt><trkpt lat="37.8969765" lon="22.1234344"><ele>522.0</ele><time>2026-04-29T10:13:16.965Z</time></trkpt><trkpt lat="37.896891" lon="22.1233907"><ele>522.0</ele><time>2026-04-29T10:13:19.965Z</time></trkpt><trkpt lat="37.8968211" lon="22.1233354"><ele>522.0</ele><time>2026-04-29T10:13:22.965Z</time></trkpt><trkpt lat="37.8967537" lon="22.1233326"><ele>522.0</ele><time>2026-04-29T10:13:56.965Z</time></trkpt><trkpt lat="37.8967143" lon="22.1232699"><ele>522.0</ele><time>2026-04-29T10:13:58.965Z</time></trkpt><trkpt lat="37.8966495" lon="22.1232374"><ele>522.0</ele><time>2026-04-29T10:14:00.964Z</time></trkpt><trkpt lat="37.8965792" lon="22.123291"><ele>521.0</ele><time>2026-04-29T10:14:02.965Z</time></trkpt><trkpt lat="37.8965206" lon="22.1233759"><ele>520.0</ele><time>2026-04-29T10:14:04.965Z</time></trkpt><trkpt lat="37.8964484" lon="22.1234067"><ele>519.0</ele><time>2026-04-29T10:14:06.965Z</time></trkpt><trkpt lat="37.8963664" lon="22.1233933"><ele>518.0</ele><time>2026-04-29T10:14:08.964Z</time></trkpt><trkpt lat="37.8962604" lon="22.12333"><ele>517.0</ele><time>2026-04-29T10:14:10.964Z</time></trkpt><trkpt lat="37.8961682" lon="22.123286"><ele>517.0</ele><time>2026-04-29T10:14:12.965Z</time></trkpt><trkpt lat="37.8960707" lon="22.1232634"><ele>517.0</ele><time>2026-04-29T10:14:14.965Z</time></trkpt><trkpt lat="37.8959677" lon="22.1232196"><ele>517.0</ele><time>2026-04-29T10:14:16.965Z</time></trkpt><trkpt lat="37.8958692" lon="22.12319"><ele>517.0</ele><time>2026-04-29T10:14:18.965Z</time></trkpt><trkpt lat="37.8957669" lon="22.1231098"><ele>517.0</ele><time>2026-04-29T10:14:20.964Z</time></trkpt><trkpt lat="37.8957069" lon="22.1230733"><ele>516.8000000000001</ele><time>2026-04-29T10:14:21.965Z</time></trkpt><trkpt lat="37.8956044" lon="22.1230031"><ele>516.6</ele><time>2026-04-29T10:14:23.964Z</time></trkpt><trkpt lat="37.8954845" lon="22.1229607"><ele>516.4000000000001</ele><time>2026-04-29T10:14:25.965Z</time></trkpt><trkpt lat="37.8953658" lon="22.1229281"><ele>516.2</ele><time>2026-04-29T10:14:27.965Z</time></trkpt><trkpt lat="37.8952998" lon="22.1229056"><ele>516.0</ele><time>2026-04-29T10:14:28.964Z</time></trkpt><trkpt lat="37.8952286" lon="22.1228959"><ele>516.0</ele><time>2026-04-29T10:14:29.965Z</time></trkpt><trkpt lat="37.8951526" lon="22.1229117"><ele>516.0</ele><time>2026-04-29T10:14:30.964Z</time></trkpt><trkpt lat="37.8950812" lon="22.122933"><ele>516.0</ele><time>2026-04-29T10:14:31.965Z</time></trkpt><trkpt lat="37.8949998" lon="22.1229705"><ele>516.0</ele><time>2026-04-29T10:14:32.965Z</time></trkpt><trkpt lat="37.8949147" lon="22.1230284"><ele>516.0</ele><time>2026-04-29T10:14:33.965Z</time></trkpt><trkpt lat="37.8948501" lon="22.1230929"><ele>516.0</ele><time>2026-04-29T10:14:34.964Z</time></trkpt><trkpt lat="37.8947754" lon="22.1231866"><ele>517.0</ele><time>2026-04-29T10:14:35.964Z</time></trkpt><trkpt lat="37.8947189" lon="22.1232764"><ele>518.0</ele><time>2026-04-29T10:14:36.964Z</time></trkpt><trkpt lat="37.8946577" lon="22.1233713"><ele>519.0</ele><time>2026-04-29T10:14:37.965Z</time></trkpt><trkpt lat="37.8946004" lon="22.1234579"><ele>520.0</ele><time>2026-04-29T10:14:38.965Z</time></trkpt><trkpt lat="37.8945427" lon="22.1235332"><ele>521.0</ele><time>2026-04-29T10:14:39.965Z</time></trkpt><trkpt lat="37.8944836" lon="22.1236073"><ele>522.0</ele><time>2026-04-29T10:14:40.964Z</time></trkpt><trkpt lat="37.8944222" lon="22.1236882"><ele>522.0</ele><time>2026-04-29T10:14:41.964Z</time></trkpt><trkpt lat="37.8943639" lon="22.1237737"><ele>522.0</ele><time>2026-04-29T10:14:42.964Z</time></trkpt><trkpt lat="37.8943083" lon="22.1238604"><ele>522.0</ele><time>2026-04-29T10:14:43.965Z</time></trkpt><trkpt lat="37.8942548" lon="22.1239547"><ele>522.0</ele><time>2026-04-29T10:14:44.964Z</time></trkpt><trkpt lat="37.8941898" lon="22.1240346"><ele>522.0</ele><time>2026-04-29T10:14:45.965Z</time></trkpt><trkpt lat="37.8941211" lon="22.1241062"><ele>522.0</ele><time>2026-04-29T10:14:46.965Z</time></trkpt><trkpt lat="37.8940548" lon="22.1241731"><ele>522.0</ele><time>2026-04-29T10:14:47.964Z</time></trkpt><trkpt lat="37.8939905" lon="22.1242301"><ele>522.0</ele><time>2026-04-29T10:14:48.964Z</time></trkpt><trkpt lat="37.8939046" lon="22.1242775"><ele>522.0</ele><time>2026-04-29T10:14:49.964Z</time></trkpt><trkpt lat="37.8938232" lon="22.1243142"><ele>522.0</ele><time>2026-04-29T10:14:50.964Z</time></trkpt><trkpt lat="37.8937422" lon="22.124361"><ele>522.0</ele><time>2026-04-29T10:14:51.964Z</time></trkpt><trkpt lat="37.8936608" lon="22.1244096"><ele>522.0</ele><time>2026-04-29T10:14:52.965Z</time></trkpt><trkpt lat="37.8935809" lon="22.1244436"><ele>522.0</ele><time>2026-04-29T10:14:53.964Z</time></trkpt><trkpt lat="37.8934937" lon="22.1244647"><ele>522.0</ele><time>2026-04-29T10:14:54.964Z</time></trkpt><trkpt lat="37.8934117" lon="22.1244859"><ele>522.0</ele><time>2026-04-29T10:14:55.965Z</time></trkpt><trkpt lat="37.8933263" lon="22.1244861"><ele>522.0</ele><time>2026-04-29T10:14:56.964Z</time></trkpt><trkpt lat="37.8932399" lon="22.1244815"><ele>522.0</ele><time>2026-04-29T10:14:57.964Z</time></trkpt><trkpt lat="37.8931533" lon="22.1244818"><ele>522.0</ele><time>2026-04-29T10:14:58.965Z</time></trkpt><trkpt lat="37.8930647" lon="22.12448"><ele>520.6666666666666</ele><time>2026-04-29T10:14:59.964Z</time></trkpt><trkpt lat="37.8929812" lon="22.1244814"><ele>519.3333333333334</ele><time>2026-04-29T10:15:00.964Z</time></trkpt><trkpt lat="37.8928949" lon="22.1244818"><ele>518.0</ele><time>2026-04-29T10:15:01.965Z</time></trkpt><trkpt lat="37.8928044" lon="22.1244919"><ele>516.6666666666667</ele><time>2026-04-29T10:15:02.965Z</time></trkpt><trkpt lat="37.892724" lon="22.124516"><ele>515.3333333333334</ele><time>2026-04-29T10:15:03.964Z</time></trkpt><trkpt lat="37.8926424" lon="22.1245618"><ele>514.0</ele><time>2026-04-29T10:15:04.964Z</time></trkpt><trkpt lat="37.8925551" lon="22.1246214"><ele>513.2</ele><time>2026-04-29T10:15:05.964Z</time></trkpt><trkpt lat="37.892478" lon="22.1246811"><ele>512.4</ele><time>2026-04-29T10:15:06.964Z</time></trkpt><trkpt lat="37.8923898" lon="22.1247518"><ele>511.6</ele><time>2026-04-29T10:15:07.965Z</time></trkpt><trkpt lat="37.8922933" lon="22.1248167"><ele>510.8</ele><time>2026-04-29T10:15:08.964Z</time></trkpt><trkpt lat="37.892194" lon="22.1248838"><ele>510.0</ele><time>2026-04-29T10:15:09.964Z</time></trkpt><trkpt lat="37.8920925" lon="22.1249484"><ele>511.0</ele><time>2026-04-29T10:15:10.965Z</time></trkpt><trkpt lat="37.891988" lon="22.1250267"><ele>512.0</ele><time>2026-04-29T10:15:11.964Z</time></trkpt><trkpt lat="37.891883" lon="22.1251053"><ele>513.0</ele><time>2026-04-29T10:15:12.964Z</time></trkpt><trkpt lat="37.8917782" lon="22.125174"><ele>514.0</ele><time>2026-04-29T10:15:13.965Z</time></trkpt><trkpt lat="37.8916671" lon="22.1252441"><ele>514.0</ele><time>2026-04-29T10:15:14.964Z</time></trkpt><trkpt lat="37.8915666" lon="22.1253151"><ele>514.0</ele><time>2026-04-29T10:15:15.964Z</time></trkpt><trkpt lat="37.8914587" lon="22.1253834"><ele>514.0</ele><time>2026-04-29T10:15:16.965Z</time></trkpt><trkpt lat="37.8913599" lon="22.125452"><ele>514.0</ele><time>2026-04-29T10:15:17.964Z</time></trkpt><trkpt lat="37.8912609" lon="22.1255228"><ele>514.0</ele><time>2026-04-29T10:15:18.965Z</time></trkpt><trkpt lat="37.8911613" lon="22.1255989"><ele>514.0</ele><time>2026-04-29T10:15:19.965Z</time></trkpt><trkpt lat="37.8910618" lon="22.1256767"><ele>514.0</ele><time>2026-04-29T10:15:20.965Z</time></trkpt><trkpt lat="37.8909609" lon="22.1257641"><ele>514.0</ele><time>2026-04-29T10:15:21.965Z</time></trkpt><trkpt lat="37.8908793" lon="22.1258582"><ele>513.6666666666667</ele><time>2026-04-29T10:15:22.964Z</time></trkpt><trkpt lat="37.8908101" lon="22.1259471"><ele>513.3333333333334</ele><time>2026-04-29T10:15:23.965Z</time></trkpt><trkpt lat="37.8907392" lon="22.1260083"><ele>513.0</ele><time>2026-04-29T10:15:24.964Z</time></trkpt><trkpt lat="37.8906698" lon="22.1260329"><ele>512.6666666666666</ele><time>2026-04-29T10:15:25.964Z</time></trkpt><trkpt lat="37.8905918" lon="22.126013"><ele>512.3333333333333</ele><time>2026-04-29T10:15:26.964Z</time></trkpt><trkpt lat="37.8905018" lon="22.1259751"><ele>512.0</ele><time>2026-04-29T10:15:27.965Z</time></trkpt><trkpt lat="37.890405" lon="22.1259253"><ele>512.0</ele><time>2026-04-29T10:15:28.965Z</time></trkpt><trkpt lat="37.8903009" lon="22.1258678"><ele>512.0</ele><time>2026-04-29T10:15:29.964Z</time></trkpt><trkpt lat="37.8901892" lon="22.1258018"><ele>512.0</ele><time>2026-04-29T10:15:30.965Z</time></trkpt><trkpt lat="37.8900766" lon="22.1257446"><ele>512.0</ele><time>2026-04-29T10:15:31.965Z</time></trkpt><trkpt lat="37.8899685" lon="22.1256882"><ele>510.75</ele><time>2026-04-29T10:15:32.965Z</time></trkpt><trkpt lat="37.8898611" lon="22.125638"><ele>509.5</ele><time>2026-04-29T10:15:33.965Z</time></trkpt><trkpt lat="37.8897532" lon="22.1255838"><ele>508.25</ele><time>2026-04-29T10:15:34.965Z</time></trkpt><trkpt lat="37.8896421" lon="22.1255268"><ele>507.0</ele><time>2026-04-29T10:15:35.965Z</time></trkpt><trkpt lat="37.8895365" lon="22.1254661"><ele>507.0</ele><time>2026-04-29T10:15:36.965Z</time></trkpt><trkpt lat="37.8894307" lon="22.1254102"><ele>507.0</ele><time>2026-04-29T10:15:37.965Z</time></trkpt><trkpt lat="37.8893201" lon="22.1253555"><ele>507.0</ele><time>2026-04-29T10:15:38.965Z</time></trkpt><trkpt lat="37.8892087" lon="22.1253156"><ele>507.0</ele><time>2026-04-29T10:15:39.965Z</time></trkpt><trkpt lat="37.8890906" lon="22.1252629"><ele>506.75</ele><time>2026-04-29T10:15:40.964Z</time></trkpt><trkpt lat="37.8889786" lon="22.1252207"><ele>506.5</ele><time>2026-04-29T10:15:41.965Z</time></trkpt><trkpt lat="37.8888674" lon="22.1251958"><ele>506.25</ele><time>2026-04-29T10:15:42.965Z</time></trkpt><trkpt lat="37.8887458" lon="22.1252029"><ele>506.0</ele><time>2026-04-29T10:15:43.964Z</time></trkpt><trkpt lat="37.888638" lon="22.1252407"><ele>506.0</ele><time>2026-04-29T10:15:44.964Z</time></trkpt><trkpt lat="37.8885372" lon="22.1253178"><ele>506.0</ele><time>2026-04-29T10:15:45.964Z</time></trkpt><trkpt lat="37.8884501" lon="22.1254284"><ele>506.0</ele><time>2026-04-29T10:15:46.964Z</time></trkpt><trkpt lat="37.8883755" lon="22.12558"><ele>506.0</ele><time>2026-04-29T10:15:47.964Z</time></trkpt><trkpt lat="37.8883164" lon="22.1257711"><ele>509.3333333333333</ele><time>2026-04-29T10:15:48.965Z</time></trkpt><trkpt lat="37.8882737" lon="22.1259564"><ele>512.6666666666666</ele><time>2026-04-29T10:15:49.965Z</time></trkpt><trkpt lat="37.8882349" lon="22.1261534"><ele>516.0</ele><time>2026-04-29T10:15:50.964Z</time></trkpt><trkpt lat="37.8882211" lon="22.1263594"><ele>515.0</ele><time>2026-04-29T10:15:51.965Z</time></trkpt><trkpt lat="37.8882059" lon="22.1265679"><ele>514.0</ele><time>2026-04-29T10:15:52.965Z</time></trkpt><trkpt lat="37.8881908" lon="22.1267771"><ele>513.0</ele><time>2026-04-29T10:15:53.964Z</time></trkpt><trkpt lat="37.8881815" lon="22.1269928"><ele>513.0</ele><time>2026-04-29T10:15:54.965Z</time></trkpt><trkpt lat="37.8881585" lon="22.1272155"><ele>513.0</ele><time>2026-04-29T10:15:55.964Z</time></trkpt><trkpt lat="37.8881373" lon="22.1274402"><ele>513.0</ele><time>2026-04-29T10:15:56.964Z</time></trkpt><trkpt lat="37.8881107" lon="22.1276583"><ele>512.3333333333334</ele><time>2026-04-29T10:15:57.965Z</time></trkpt><trkpt lat="37.8880781" lon="22.1278719"><ele>511.6666666666667</ele><time>2026-04-29T10:15:58.965Z</time></trkpt><trkpt lat="37.8880424" lon="22.1280853"><ele>511.0</ele><time>2026-04-29T10:15:59.965Z</time></trkpt><trkpt lat="37.8879843" lon="22.1282983"><ele>510.0</ele><time>2026-04-29T10:16:00.964Z</time></trkpt><trkpt lat="37.8879187" lon="22.1284882"><ele>509.0</ele><time>2026-04-29T10:16:01.965Z</time></trkpt><trkpt lat="37.8878485" lon="22.1286717"><ele>508.0</ele><time>2026-04-29T10:16:02.965Z</time></trkpt><trkpt lat="37.8877795" lon="22.128841"><ele>508.0</ele><time>2026-04-29T10:16:03.965Z</time></trkpt><trkpt lat="37.8877124" lon="22.1290001"><ele>508.0</ele><time>2026-04-29T10:16:04.964Z</time></trkpt><trkpt lat="37.8876394" lon="22.1291243"><ele>508.0</ele><time>2026-04-29T10:16:05.965Z</time></trkpt><trkpt lat="37.8875414" lon="22.1292291"><ele>508.0</ele><time>2026-04-29T10:16:06.964Z</time></trkpt><trkpt lat="37.8874222" lon="22.1292792"><ele>510.25</ele><time>2026-04-29T10:16:07.965Z</time></trkpt><trkpt lat="37.8872997" lon="22.1292986"><ele>512.5</ele><time>2026-04-29T10:16:08.965Z</time></trkpt><trkpt lat="37.8871679" lon="22.1292891"><ele>514.75</ele><time>2026-04-29T10:16:09.964Z</time></trkpt><trkpt lat="37.8870233" lon="22.1292262"><ele>517.0</ele><time>2026-04-29T10:16:10.964Z</time></trkpt><trkpt lat="37.8868901" lon="22.129125"><ele>520.3333333333334</ele><time>2026-04-29T10:16:11.964Z</time></trkpt><trkpt lat="37.8867489" lon="22.1290513"><ele>523.6666666666666</ele><time>2026-04-29T10:16:12.965Z</time></trkpt><trkpt lat="37.886571" lon="22.1290192"><ele>527.0</ele><time>2026-04-29T10:16:13.964Z</time></trkpt><trkpt lat="37.8863887" lon="22.1290118"><ele>527.0</ele><time>2026-04-29T10:16:14.965Z</time></trkpt><trkpt lat="37.8862005" lon="22.1290165"><ele>527.0</ele><time>2026-04-29T10:16:15.964Z</time></trkpt><trkpt lat="37.8860212" lon="22.1290199"><ele>527.0</ele><time>2026-04-29T10:16:16.964Z</time></trkpt><trkpt lat="37.8858434" lon="22.1290345"><ele>521.6666666666666</ele><time>2026-04-29T10:16:17.965Z</time></trkpt><trkpt lat="37.885668" lon="22.1290644"><ele>516.3333333333334</ele><time>2026-04-29T10:16:18.965Z</time></trkpt><trkpt lat="37.8854975" lon="22.1290982"><ele>511.0</ele><time>2026-04-29T10:16:19.965Z</time></trkpt><trkpt lat="37.8853298" lon="22.1291316"><ele>511.0</ele><time>2026-04-29T10:16:20.965Z</time></trkpt><trkpt lat="37.88516" lon="22.1291633"><ele>511.0</ele><time>2026-04-29T10:16:21.965Z</time></trkpt><trkpt lat="37.8849863" lon="22.1292079"><ele>511.0</ele><time>2026-04-29T10:16:22.964Z</time></trkpt><trkpt lat="37.8848208" lon="22.1292537"><ele>511.33333333333337</ele><time>2026-04-29T10:16:23.964Z</time></trkpt><trkpt lat="37.8846595" lon="22.1293058"><ele>511.66666666666663</ele><time>2026-04-29T10:16:24.965Z</time></trkpt><trkpt lat="37.8845046" lon="22.1293583"><ele>512.0</ele><time>2026-04-29T10:16:25.965Z</time></trkpt><trkpt lat="37.8843523" lon="22.1294141"><ele>513.75</ele><time>2026-04-29T10:16:26.965Z</time></trkpt><trkpt lat="37.8842063" lon="22.1294864"><ele>515.5</ele><time>2026-04-29T10:16:27.964Z</time></trkpt><trkpt lat="37.8840802" lon="22.1295773"><ele>517.25</ele><time>2026-04-29T10:16:28.965Z</time></trkpt><trkpt lat="37.8839896" lon="22.1297021"><ele>519.0</ele><time>2026-04-29T10:16:29.964Z</time></trkpt><trkpt lat="37.8839131" lon="22.1298585"><ele>515.6666666666666</ele><time>2026-04-29T10:16:30.965Z</time></trkpt><trkpt lat="37.883847" lon="22.1300397"><ele>512.3333333333333</ele><time>2026-04-29T10:16:31.964Z</time></trkpt><trkpt lat="37.8837939" lon="22.1302229"><ele>509.0</ele><time>2026-04-29T10:16:32.964Z</time></trkpt><trkpt lat="37.8837298" lon="22.1304034"><ele>509.0</ele><time>2026-04-29T10:16:33.965Z</time></trkpt><trkpt lat="37.8836426" lon="22.1305746"><ele>509.0</ele><time>2026-04-29T10:16:34.965Z</time></trkpt><trkpt lat="37.8835394" lon="22.1307443"><ele>509.0</ele><time>2026-04-29T10:16:35.965Z</time></trkpt><trkpt lat="37.8834278" lon="22.1309177"><ele>510.0</ele><time>2026-04-29T10:16:36.965Z</time></trkpt><trkpt lat="37.8833208" lon="22.1311034"><ele>511.0</ele><time>2026-04-29T10:16:37.965Z</time></trkpt><trkpt lat="37.8832105" lon="22.1312845"><ele>512.0</ele><time>2026-04-29T10:16:38.965Z</time></trkpt><trkpt lat="37.8830939" lon="22.1314718"><ele>509.0</ele><time>2026-04-29T10:16:39.965Z</time></trkpt><trkpt lat="37.8829785" lon="22.1316552"><ele>506.0</ele><time>2026-04-29T10:16:40.965Z</time></trkpt><trkpt lat="37.8828671" lon="22.1318315"><ele>503.0</ele><time>2026-04-29T10:16:41.964Z</time></trkpt><trkpt lat="37.882753" lon="22.1320176"><ele>503.0</ele><time>2026-04-29T10:16:42.964Z</time></trkpt><trkpt lat="37.8826381" lon="22.1321973"><ele>503.0</ele><time>2026-04-29T10:16:43.965Z</time></trkpt><trkpt lat="37.8825205" lon="22.1323951"><ele>503.0</ele><time>2026-04-29T10:16:44.965Z</time></trkpt><trkpt lat="37.8823932" lon="22.1325744"><ele>503.66666666666663</ele><time>2026-04-29T10:16:45.964Z</time></trkpt><trkpt lat="37.8822573" lon="22.1327302"><ele>504.33333333333337</ele><time>2026-04-29T10:16:46.964Z</time></trkpt><trkpt lat="37.8821083" lon="22.1328717"><ele>505.0</ele><time>2026-04-29T10:16:47.965Z</time></trkpt><trkpt lat="37.8819607" lon="22.132999"><ele>505.0</ele><time>2026-04-29T10:16:48.965Z</time></trkpt><trkpt lat="37.8818186" lon="22.1331169"><ele>505.0</ele><time>2026-04-29T10:16:49.965Z</time></trkpt><trkpt lat="37.8816815" lon="22.1332511"><ele>505.0</ele><time>2026-04-29T10:16:50.964Z</time></trkpt><trkpt lat="37.881563" lon="22.133411"><ele>506.0</ele><time>2026-04-29T10:16:51.964Z</time></trkpt><trkpt lat="37.881451" lon="22.1335676"><ele>507.0</ele><time>2026-04-29T10:16:52.964Z</time></trkpt><trkpt lat="37.8813543" lon="22.1337404"><ele>508.0</ele><time>2026-04-29T10:16:53.964Z</time></trkpt><trkpt lat="37.8812813" lon="22.1339442"><ele>505.0</ele><time>2026-04-29T10:16:54.965Z</time></trkpt><trkpt lat="37.8812245" lon="22.1341509"><ele>502.0</ele><time>2026-04-29T10:16:55.964Z</time></trkpt><trkpt lat="37.8811672" lon="22.1343467"><ele>499.0</ele><time>2026-04-29T10:16:56.964Z</time></trkpt><trkpt lat="37.8811043" lon="22.1345349"><ele>499.0</ele><time>2026-04-29T10:16:57.964Z</time></trkpt><trkpt lat="37.881026" lon="22.1347063"><ele>499.0</ele><time>2026-04-29T10:16:58.964Z</time></trkpt><trkpt lat="37.8809323" lon="22.1348765"><ele>499.0</ele><time>2026-04-29T10:16:59.964Z</time></trkpt><trkpt lat="37.8808229" lon="22.1350348"><ele>502.0</ele><time>2026-04-29T10:17:00.964Z</time></trkpt><trkpt lat="37.8807019" lon="22.1351997"><ele>505.0</ele><time>2026-04-29T10:17:01.964Z</time></trkpt><trkpt lat="37.8805637" lon="22.1353686"><ele>508.0</ele><time>2026-04-29T10:17:02.964Z</time></trkpt><trkpt lat="37.8804286" lon="22.1355122"><ele>508.0</ele><time>2026-04-29T10:17:03.964Z</time></trkpt><trkpt lat="37.880288" lon="22.1356175"><ele>508.0</ele><time>2026-04-29T10:17:04.964Z</time></trkpt><trkpt lat="37.8801268" lon="22.1357173"><ele>508.0</ele><time>2026-04-29T10:17:05.965Z</time></trkpt><trkpt lat="37.8799687" lon="22.1358085"><ele>507.6666666666667</ele><time>2026-04-29T10:17:06.965Z</time></trkpt><trkpt lat="37.8798168" lon="22.1359041"><ele>507.33333333333337</ele><time>2026-04-29T10:17:07.965Z</time></trkpt><trkpt lat="37.8796695" lon="22.1360219"><ele>507.0</ele><time>2026-04-29T10:17:08.964Z</time></trkpt><trkpt lat="37.8795416" lon="22.1361645"><ele>507.0</ele><time>2026-04-29T10:17:09.964Z</time></trkpt><trkpt lat="37.8794284" lon="22.1363355"><ele>507.0</ele><time>2026-04-29T10:17:10.964Z</time></trkpt><trkpt lat="37.8793144" lon="22.1365031"><ele>507.0</ele><time>2026-04-29T10:17:11.964Z</time></trkpt><trkpt lat="37.8792112" lon="22.1366838"><ele>506.33333333333337</ele><time>2026-04-29T10:17:12.965Z</time></trkpt><trkpt lat="37.8791056" lon="22.1368607"><ele>505.6666666666667</ele><time>2026-04-29T10:17:13.965Z</time></trkpt><trkpt lat="37.8789955" lon="22.1370274"><ele>505.0</ele><time>2026-04-29T10:17:14.965Z</time></trkpt><trkpt lat="37.8788749" lon="22.1371786"><ele>505.0</ele><time>2026-04-29T10:17:15.965Z</time></trkpt><trkpt lat="37.8787367" lon="22.1373167"><ele>505.0</ele><time>2026-04-29T10:17:16.965Z</time></trkpt><trkpt lat="37.8785884" lon="22.1374399"><ele>505.0</ele><time>2026-04-29T10:17:17.965Z</time></trkpt><trkpt lat="37.8784298" lon="22.1375406"><ele>504.6666666666667</ele><time>2026-04-29T10:17:18.965Z</time></trkpt><trkpt lat="37.8782605" lon="22.1376172"><ele>504.33333333333337</ele><time>2026-04-29T10:17:19.964Z</time></trkpt><trkpt lat="37.8780739" lon="22.1376783"><ele>504.0</ele><time>2026-04-29T10:17:20.965Z</time></trkpt><trkpt lat="37.8778782" lon="22.1377291"><ele>504.0</ele><time>2026-04-29T10:17:21.964Z</time></trkpt><trkpt lat="37.877672" lon="22.1377829"><ele>504.0</ele><time>2026-04-29T10:17:22.965Z</time></trkpt><trkpt lat="37.8774737" lon="22.1378372"><ele>504.0</ele><time>2026-04-29T10:17:23.965Z</time></trkpt><trkpt lat="37.877275" lon="22.1378841"><ele>505.66666666666663</ele><time>2026-04-29T10:17:24.965Z</time></trkpt><trkpt lat="37.8770762" lon="22.1379191"><ele>507.3333333333333</ele><time>2026-04-29T10:17:25.965Z</time></trkpt><trkpt lat="37.8768894" lon="22.1379554"><ele>509.0</ele><time>2026-04-29T10:17:26.965Z</time></trkpt><trkpt lat="37.876689" lon="22.1379845"><ele>512.3333333333333</ele><time>2026-04-29T10:17:27.965Z</time></trkpt><trkpt lat="37.8764978" lon="22.1379888"><ele>515.6666666666666</ele><time>2026-04-29T10:17:28.964Z</time></trkpt><trkpt lat="37.8763005" lon="22.1380102"><ele>519.0</ele><time>2026-04-29T10:17:29.964Z</time></trkpt><trkpt lat="37.8760994" lon="22.1380524"><ele>523.6666666666666</ele><time>2026-04-29T10:17:30.964Z</time></trkpt><trkpt lat="37.8759125" lon="22.1380773"><ele>528.3333333333333</ele><time>2026-04-29T10:17:31.965Z</time></trkpt><trkpt lat="37.875718" lon="22.1381042"><ele>533.0</ele><time>2026-04-29T10:17:32.965Z</time></trkpt><trkpt lat="37.8755152" lon="22.1381144"><ele>533.0</ele><time>2026-04-29T10:17:33.965Z</time></trkpt><trkpt lat="37.875332" lon="22.1381211"><ele>533.0</ele><time>2026-04-29T10:17:34.965Z</time></trkpt><trkpt lat="37.8751362" lon="22.138124"><ele>533.0</ele><time>2026-04-29T10:17:35.964Z</time></trkpt><trkpt lat="37.8749433" lon="22.1381332"><ele>533.6666666666666</ele><time>2026-04-29T10:17:36.965Z</time></trkpt><trkpt lat="37.8747501" lon="22.1381475"><ele>534.3333333333334</ele><time>2026-04-29T10:17:37.965Z</time></trkpt><trkpt lat="37.8745606" lon="22.1381619"><ele>535.0</ele><time>2026-04-29T10:17:38.965Z</time></trkpt><trkpt lat="37.8743843" lon="22.1381732"><ele>531.6666666666667</ele><time>2026-04-29T10:17:39.964Z</time></trkpt><trkpt lat="37.874213" lon="22.1381864"><ele>528.3333333333334</ele><time>2026-04-29T10:17:40.965Z</time></trkpt><trkpt lat="37.8740482" lon="22.1382084"><ele>525.0</ele><time>2026-04-29T10:17:41.964Z</time></trkpt><trkpt lat="37.8738805" lon="22.1382274"><ele>522.0</ele><time>2026-04-29T10:17:42.965Z</time></trkpt><trkpt lat="37.8737186" lon="22.1382591"><ele>519.0</ele><time>2026-04-29T10:17:43.964Z</time></trkpt><trkpt lat="37.8735456" lon="22.1383105"><ele>516.0</ele><time>2026-04-29T10:17:44.964Z</time></trkpt><trkpt lat="37.8733869" lon="22.1383921"><ele>516.0</ele><time>2026-04-29T10:17:45.965Z</time></trkpt><trkpt lat="37.8732395" lon="22.138508"><ele>516.0</ele><time>2026-04-29T10:17:46.965Z</time></trkpt><trkpt lat="37.873097" lon="22.1386438"><ele>516.0</ele><time>2026-04-29T10:17:47.964Z</time></trkpt><trkpt lat="37.8729588" lon="22.1387746"><ele>516.0</ele><time>2026-04-29T10:17:48.965Z</time></trkpt><trkpt lat="37.8728147" lon="22.1388928"><ele>516.0</ele><time>2026-04-29T10:17:49.965Z</time></trkpt><trkpt lat="37.8726664" lon="22.1389965"><ele>516.0</ele><time>2026-04-29T10:17:50.964Z</time></trkpt><trkpt lat="37.872523" lon="22.1390928"><ele>513.3333333333334</ele><time>2026-04-29T10:17:51.965Z</time></trkpt><trkpt lat="37.8723821" lon="22.1391753"><ele>510.6666666666667</ele><time>2026-04-29T10:17:52.965Z</time></trkpt><trkpt lat="37.8722484" lon="22.1392549"><ele>508.0</ele><time>2026-04-29T10:17:53.964Z</time></trkpt><trkpt lat="37.8720982" lon="22.1393342"><ele>508.0</ele><time>2026-04-29T10:17:54.964Z</time></trkpt><trkpt lat="37.8719537" lon="22.1393856"><ele>508.0</ele><time>2026-04-29T10:17:55.964Z</time></trkpt><trkpt lat="37.8718162" lon="22.1394446"><ele>508.0</ele><time>2026-04-29T10:17:56.964Z</time></trkpt><trkpt lat="37.8716852" lon="22.1395104"><ele>508.0</ele><time>2026-04-29T10:17:57.964Z</time></trkpt><trkpt lat="37.8715622" lon="22.1395947"><ele>510.5</ele><time>2026-04-29T10:17:58.965Z</time></trkpt><trkpt lat="37.8714432" lon="22.1396586"><ele>513.0</ele><time>2026-04-29T10:17:59.964Z</time></trkpt><trkpt lat="37.8713195" lon="22.1397337"><ele>515.5</ele><time>2026-04-29T10:18:00.964Z</time></trkpt><trkpt lat="37.8712093" lon="22.1397984"><ele>518.0</ele><time>2026-04-29T10:18:01.964Z</time></trkpt><trkpt lat="37.871101" lon="22.1398457"><ele>516.0</ele><time>2026-04-29T10:18:02.965Z</time></trkpt><trkpt lat="37.8709888" lon="22.1398946"><ele>514.0</ele><time>2026-04-29T10:18:03.965Z</time></trkpt><trkpt lat="37.870875" lon="22.1399402"><ele>512.0</ele><time>2026-04-29T10:18:04.965Z</time></trkpt><trkpt lat="37.8707716" lon="22.139987"><ele>510.0</ele><time>2026-04-29T10:18:05.965Z</time></trkpt><trkpt lat="37.8706588" lon="22.1400334"><ele>510.0</ele><time>2026-04-29T10:18:06.965Z</time></trkpt><trkpt lat="37.8705534" lon="22.1400833"><ele>510.0</ele><time>2026-04-29T10:18:07.965Z</time></trkpt><trkpt lat="37.8704459" lon="22.1401506"><ele>510.0</ele><time>2026-04-29T10:18:08.964Z</time></trkpt><trkpt lat="37.8703214" lon="22.1402221"><ele>510.0</ele><time>2026-04-29T10:18:09.965Z</time></trkpt><trkpt lat="37.8701816" lon="22.1403048"><ele>511.75</ele><time>2026-04-29T10:18:10.964Z</time></trkpt><trkpt lat="37.8700595" lon="22.1403826"><ele>513.5</ele><time>2026-04-29T10:18:11.965Z</time></trkpt><trkpt lat="37.8699394" lon="22.1404916"><ele>515.25</ele><time>2026-04-29T10:18:12.964Z</time></trkpt><trkpt lat="37.8698176" lon="22.1406063"><ele>517.0</ele><time>2026-04-29T10:18:13.965Z</time></trkpt><trkpt lat="37.8696993" lon="22.1407157"><ele>516.75</ele><time>2026-04-29T10:18:14.965Z</time></trkpt><trkpt lat="37.8695818" lon="22.1408287"><ele>516.5</ele><time>2026-04-29T10:18:15.964Z</time></trkpt><trkpt lat="37.8694688" lon="22.1409342"><ele>516.25</ele><time>2026-04-29T10:18:16.965Z</time></trkpt><trkpt lat="37.8693578" lon="22.141042"><ele>516.0</ele><time>2026-04-29T10:18:17.964Z</time></trkpt><trkpt lat="37.8692577" lon="22.1411882"><ele>516.0</ele><time>2026-04-29T10:18:18.964Z</time></trkpt><trkpt lat="37.8691622" lon="22.1413437"><ele>516.0</ele><time>2026-04-29T10:18:19.965Z</time></trkpt><trkpt lat="37.869084" lon="22.1415138"><ele>516.0</ele><time>2026-04-29T10:18:20.964Z</time></trkpt><trkpt lat="37.8690159" lon="22.1416927"><ele>512.6666666666666</ele><time>2026-04-29T10:18:21.964Z</time></trkpt><trkpt lat="37.8689532" lon="22.1418849"><ele>509.3333333333333</ele><time>2026-04-29T10:18:22.965Z</time></trkpt><trkpt lat="37.86888" lon="22.1420838"><ele>506.0</ele><time>2026-04-29T10:18:23.964Z</time></trkpt><trkpt lat="37.868808" lon="22.1422638"><ele>501.66666666666663</ele><time>2026-04-29T10:18:24.964Z</time></trkpt><trkpt lat="37.8687126" lon="22.142437"><ele>497.33333333333337</ele><time>2026-04-29T10:18:25.965Z</time></trkpt><trkpt lat="37.8686035" lon="22.1426085"><ele>493.0</ele><time>2026-04-29T10:18:26.964Z</time></trkpt><trkpt lat="37.8684813" lon="22.1427816"><ele>493.6666666666667</ele><time>2026-04-29T10:18:27.965Z</time></trkpt><trkpt lat="37.8683591" lon="22.1429441"><ele>494.33333333333337</ele><time>2026-04-29T10:18:28.964Z</time></trkpt><trkpt lat="37.8682319" lon="22.1430946"><ele>495.0</ele><time>2026-04-29T10:18:29.964Z</time></trkpt><trkpt lat="37.8680898" lon="22.143235"><ele>495.0</ele><time>2026-04-29T10:18:30.965Z</time></trkpt><trkpt lat="37.867944" lon="22.1433758"><ele>495.0</ele><time>2026-04-29T10:18:31.965Z</time></trkpt><trkpt lat="37.8677918" lon="22.1435141"><ele>495.0</ele><time>2026-04-29T10:18:32.965Z</time></trkpt><trkpt lat="37.8676454" lon="22.1436541"><ele>501.66666666666663</ele><time>2026-04-29T10:18:33.965Z</time></trkpt><trkpt lat="37.8674903" lon="22.1437796"><ele>508.3333333333333</ele><time>2026-04-29T10:18:34.965Z</time></trkpt><trkpt lat="37.8673218" lon="22.143911"><ele>515.0</ele><time>2026-04-29T10:18:35.964Z</time></trkpt><trkpt lat="37.8671503" lon="22.1440253"><ele>511.66666666666663</ele><time>2026-04-29T10:18:36.964Z</time></trkpt><trkpt lat="37.8669663" lon="22.1441391"><ele>508.33333333333337</ele><time>2026-04-29T10:18:37.964Z</time></trkpt><trkpt lat="37.8667912" lon="22.1442417"><ele>505.0</ele><time>2026-04-29T10:18:38.964Z</time></trkpt><trkpt lat="37.8666201" lon="22.1443482"><ele>505.0</ele><time>2026-04-29T10:18:39.965Z</time></trkpt><trkpt lat="37.866457" lon="22.1444561"><ele>505.0</ele><time>2026-04-29T10:18:40.965Z</time></trkpt><trkpt lat="37.8663045" lon="22.1445735"><ele>505.0</ele><time>2026-04-29T10:18:41.965Z</time></trkpt><trkpt lat="37.8661558" lon="22.1447094"><ele>505.0</ele><time>2026-04-29T10:18:42.964Z</time></trkpt><trkpt lat="37.8660163" lon="22.1448623"><ele>505.0</ele><time>2026-04-29T10:18:43.964Z</time></trkpt><trkpt lat="37.8658866" lon="22.1450264"><ele>505.0</ele><time>2026-04-29T10:18:44.964Z</time></trkpt><trkpt lat="37.86576" lon="22.1451966"><ele>500.6666666666667</ele><time>2026-04-29T10:18:45.965Z</time></trkpt><trkpt lat="37.8656173" lon="22.1453607"><ele>496.33333333333337</ele><time>2026-04-29T10:18:46.964Z</time></trkpt><trkpt lat="37.8654725" lon="22.1455226"><ele>492.0</ele><time>2026-04-29T10:18:47.964Z</time></trkpt><trkpt lat="37.8653286" lon="22.1456936"><ele>490.0</ele><time>2026-04-29T10:18:48.964Z</time></trkpt><trkpt lat="37.8651701" lon="22.1458351"><ele>488.0</ele><time>2026-04-29T10:18:49.965Z</time></trkpt><trkpt lat="37.8649971" lon="22.1459608"><ele>486.0</ele><time>2026-04-29T10:18:50.965Z</time></trkpt><trkpt lat="37.8648192" lon="22.1460936"><ele>486.0</ele><time>2026-04-29T10:18:51.964Z</time></trkpt><trkpt lat="37.8646343" lon="22.1462492"><ele>486.0</ele><time>2026-04-29T10:18:52.965Z</time></trkpt><trkpt lat="37.8644436" lon="22.1464368"><ele>486.0</ele><time>2026-04-29T10:18:53.964Z</time></trkpt><trkpt lat="37.8642563" lon="22.1466662"><ele>486.0</ele><time>2026-04-29T10:18:54.965Z</time></trkpt><trkpt lat="37.8640595" lon="22.1468988"><ele>486.0</ele><time>2026-04-29T10:18:55.965Z</time></trkpt><trkpt lat="37.8638549" lon="22.1471133"><ele>486.0</ele><time>2026-04-29T10:18:56.964Z</time></trkpt><trkpt lat="37.8636487" lon="22.1472889"><ele>486.0</ele><time>2026-04-29T10:18:57.964Z</time></trkpt><trkpt lat="37.8634513" lon="22.1474468"><ele>486.0</ele><time>2026-04-29T10:18:58.964Z</time></trkpt><trkpt lat="37.8632654" lon="22.1476119"><ele>486.0</ele><time>2026-04-29T10:18:59.965Z</time></trkpt><trkpt lat="37.8630964" lon="22.1477993"><ele>486.0</ele><time>2026-04-29T10:19:00.964Z</time></trkpt><trkpt lat="37.8629401" lon="22.1479541"><ele>486.0</ele><time>2026-04-29T10:19:01.964Z</time></trkpt><trkpt lat="37.862794" lon="22.1481223"><ele>486.33333333333337</ele><time>2026-04-29T10:19:02.965Z</time></trkpt><trkpt lat="37.8626501" lon="22.1482766"><ele>486.6666666666667</ele><time>2026-04-29T10:19:03.964Z</time></trkpt><trkpt lat="37.8625222" lon="22.1484303"><ele>487.0</ele><time>2026-04-29T10:19:04.965Z</time></trkpt><trkpt lat="37.8624076" lon="22.1485792"><ele>487.0</ele><time>2026-04-29T10:19:05.965Z</time></trkpt><trkpt lat="37.8623003" lon="22.1487456"><ele>487.0</ele><time>2026-04-29T10:19:06.965Z</time></trkpt><trkpt lat="37.8622203" lon="22.148936"><ele>487.0</ele><time>2026-04-29T10:19:07.964Z</time></trkpt><trkpt lat="37.8621591" lon="22.1491505"><ele>484.6666666666667</ele><time>2026-04-29T10:19:08.965Z</time></trkpt><trkpt lat="37.8620921" lon="22.1493685"><ele>482.33333333333337</ele><time>2026-04-29T10:19:09.964Z</time></trkpt><trkpt lat="37.8620364" lon="22.1495956"><ele>480.0</ele><time>2026-04-29T10:19:10.964Z</time></trkpt><trkpt lat="37.8619838" lon="22.1498245"><ele>480.0</ele><time>2026-04-29T10:19:11.965Z</time></trkpt><trkpt lat="37.8619421" lon="22.1500498"><ele>480.0</ele><time>2026-04-29T10:19:12.964Z</time></trkpt><trkpt lat="37.8619021" lon="22.1502585"><ele>480.0</ele><time>2026-04-29T10:19:13.965Z</time></trkpt><trkpt lat="37.8618606" lon="22.1504587"><ele>480.0</ele><time>2026-04-29T10:19:14.964Z</time></trkpt><trkpt lat="37.8617961" lon="22.1506388"><ele>480.0</ele><time>2026-04-29T10:19:15.965Z</time></trkpt><trkpt lat="37.8617122" lon="22.1507997"><ele>480.0</ele><time>2026-04-29T10:19:16.964Z</time></trkpt><trkpt lat="37.8615969" lon="22.1509491"><ele>482.33333333333337</ele><time>2026-04-29T10:19:17.965Z</time></trkpt><trkpt lat="37.8614555" lon="22.1511012"><ele>484.6666666666667</ele><time>2026-04-29T10:19:18.964Z</time></trkpt><trkpt lat="37.8612969" lon="22.1512595"><ele>487.0</ele><time>2026-04-29T10:19:19.965Z</time></trkpt><trkpt lat="37.8611347" lon="22.1514385"><ele>488.6666666666667</ele><time>2026-04-29T10:19:20.965Z</time></trkpt><trkpt lat="37.8609746" lon="22.15162"><ele>490.33333333333337</ele><time>2026-04-29T10:19:21.965Z</time></trkpt><trkpt lat="37.8608157" lon="22.1518041"><ele>492.0</ele><time>2026-04-29T10:19:22.964Z</time></trkpt><trkpt lat="37.860656" lon="22.1519772"><ele>492.0</ele><time>2026-04-29T10:19:23.964Z</time></trkpt><trkpt lat="37.860499" lon="22.152141"><ele>492.0</ele><time>2026-04-29T10:19:24.965Z</time></trkpt><trkpt lat="37.8603421" lon="22.1523105"><ele>492.0</ele><time>2026-04-29T10:19:25.965Z</time></trkpt><trkpt lat="37.8601863" lon="22.1524788"><ele>491.66666666666663</ele><time>2026-04-29T10:19:26.965Z</time></trkpt><trkpt lat="37.8600213" lon="22.1526445"><ele>491.3333333333333</ele><time>2026-04-29T10:19:27.965Z</time></trkpt><trkpt lat="37.8598604" lon="22.1527884"><ele>491.0</ele><time>2026-04-29T10:19:28.964Z</time></trkpt><trkpt lat="37.8597124" lon="22.152902"><ele>491.0</ele><time>2026-04-29T10:19:29.965Z</time></trkpt><trkpt lat="37.859556" lon="22.152984"><ele>491.0</ele><time>2026-04-29T10:19:30.965Z</time></trkpt><trkpt lat="37.8593932" lon="22.1530323"><ele>491.0</ele><time>2026-04-29T10:19:31.964Z</time></trkpt><trkpt lat="37.8592333" lon="22.1530614"><ele>491.3333333333333</ele><time>2026-04-29T10:19:32.965Z</time></trkpt><trkpt lat="37.8590336" lon="22.153022"><ele>491.66666666666663</ele><time>2026-04-29T10:19:33.965Z</time></trkpt><trkpt lat="37.858828" lon="22.1529718"><ele>492.0</ele><time>2026-04-29T10:19:34.964Z</time></trkpt><trkpt lat="37.8586143" lon="22.1529112"><ele>493.0</ele><time>2026-04-29T10:19:35.965Z</time></trkpt><trkpt lat="37.8584015" lon="22.1528624"><ele>494.0</ele><time>2026-04-29T10:19:36.965Z</time></trkpt><trkpt lat="37.8581854" lon="22.1528195"><ele>495.0</ele><time>2026-04-29T10:19:37.964Z</time></trkpt><trkpt lat="37.8579676" lon="22.1527637"><ele>495.0</ele><time>2026-04-29T10:19:38.965Z</time></trkpt><trkpt lat="37.857753" lon="22.1526991"><ele>495.0</ele><time>2026-04-29T10:19:39.965Z</time></trkpt><trkpt lat="37.8575444" lon="22.1526399"><ele>495.0</ele><time>2026-04-29T10:19:40.965Z</time></trkpt><trkpt lat="37.8573327" lon="22.1525736"><ele>494.33333333333337</ele><time>2026-04-29T10:19:41.964Z</time></trkpt><trkpt lat="37.8571189" lon="22.1524978"><ele>493.6666666666667</ele><time>2026-04-29T10:19:42.964Z</time></trkpt><trkpt lat="37.856915" lon="22.1524251"><ele>493.0</ele><time>2026-04-29T10:19:43.965Z</time></trkpt><trkpt lat="37.8567148" lon="22.1523568"><ele>503.6666666666667</ele><time>2026-04-29T10:19:44.964Z</time></trkpt><trkpt lat="37.8565156" lon="22.1522977"><ele>514.3333333333334</ele><time>2026-04-29T10:19:45.965Z</time></trkpt><trkpt lat="37.8563002" lon="22.1522647"><ele>525.0</ele><time>2026-04-29T10:19:46.964Z</time></trkpt><trkpt lat="37.8560761" lon="22.1522618"><ele>518.0</ele><time>2026-04-29T10:19:47.964Z</time></trkpt><trkpt lat="37.8558417" lon="22.1522823"><ele>511.0</ele><time>2026-04-29T10:19:48.965Z</time></trkpt><trkpt lat="37.8556078" lon="22.1523208"><ele>511.0</ele><time>2026-04-29T10:19:49.965Z</time></trkpt><trkpt lat="37.8553772" lon="22.1523656"><ele>511.0</ele><time>2026-04-29T10:19:50.965Z</time></trkpt><trkpt lat="37.8551552" lon="22.1523996"><ele>505.6666666666667</ele><time>2026-04-29T10:19:51.965Z</time></trkpt><trkpt lat="37.8549332" lon="22.1524355"><ele>500.33333333333337</ele><time>2026-04-29T10:19:52.965Z</time></trkpt><trkpt lat="37.8547143" lon="22.152465"><ele>495.0</ele><time>2026-04-29T10:19:53.965Z</time></trkpt><trkpt lat="37.8544974" lon="22.1524882"><ele>495.0</ele><time>2026-04-29T10:19:54.965Z</time></trkpt><trkpt lat="37.8542905" lon="22.1525056"><ele>495.0</ele><time>2026-04-29T10:19:55.965Z</time></trkpt><trkpt lat="37.8540737" lon="22.1525363"><ele>495.0</ele><time>2026-04-29T10:19:56.964Z</time></trkpt><trkpt lat="37.8538598" lon="22.1525917"><ele>497.0</ele><time>2026-04-29T10:19:57.965Z</time></trkpt><trkpt lat="37.8536382" lon="22.1526593"><ele>499.0</ele><time>2026-04-29T10:19:58.964Z</time></trkpt><trkpt lat="37.8534232" lon="22.1527269"><ele>501.0</ele><time>2026-04-29T10:19:59.965Z</time></trkpt><trkpt lat="37.8532081" lon="22.1528055"><ele>504.33333333333337</ele><time>2026-04-29T10:20:00.965Z</time></trkpt><trkpt lat="37.8529988" lon="22.152889"><ele>507.6666666666667</ele><time>2026-04-29T10:20:01.964Z</time></trkpt><trkpt lat="37.8527829" lon="22.1529723"><ele>511.0</ele><time>2026-04-29T10:20:02.965Z</time></trkpt><trkpt lat="37.8525705" lon="22.1530505"><ele>515.6666666666667</ele><time>2026-04-29T10:20:03.965Z</time></trkpt><trkpt lat="37.8523505" lon="22.1531366"><ele>520.3333333333334</ele><time>2026-04-29T10:20:04.965Z</time></trkpt><trkpt lat="37.8521442" lon="22.1532048"><ele>525.0</ele><time>2026-04-29T10:20:05.965Z</time></trkpt><trkpt lat="37.8519473" lon="22.1532511"><ele>513.0</ele><time>2026-04-29T10:20:06.965Z</time></trkpt><trkpt lat="37.8517565" lon="22.1532997"><ele>501.0</ele><time>2026-04-29T10:20:07.964Z</time></trkpt><trkpt lat="37.8515721" lon="22.1533748"><ele>489.0</ele><time>2026-04-29T10:20:08.964Z</time></trkpt><trkpt lat="37.8513986" lon="22.1534831"><ele>489.0</ele><time>2026-04-29T10:20:09.964Z</time></trkpt><trkpt lat="37.8512289" lon="22.1536271"><ele>489.0</ele><time>2026-04-29T10:20:10.965Z</time></trkpt><trkpt lat="37.8510724" lon="22.1537881"><ele>489.0</ele><time>2026-04-29T10:20:11.965Z</time></trkpt><trkpt lat="37.8509139" lon="22.1539507"><ele>490.0</ele><time>2026-04-29T10:20:12.965Z</time></trkpt><trkpt lat="37.850741" lon="22.1541084"><ele>491.0</ele><time>2026-04-29T10:20:13.964Z</time></trkpt><trkpt lat="37.8505583" lon="22.1542417"><ele>492.0</ele><time>2026-04-29T10:20:14.964Z</time></trkpt><trkpt lat="37.850376" lon="22.154351"><ele>492.0</ele><time>2026-04-29T10:20:15.964Z</time></trkpt><trkpt lat="37.8501814" lon="22.1544393"><ele>492.0</ele><time>2026-04-29T10:20:16.964Z</time></trkpt><trkpt lat="37.8499828" lon="22.154513"><ele>492.0</ele><time>2026-04-29T10:20:17.964Z</time></trkpt><trkpt lat="37.8497828" lon="22.1545828"><ele>494.0</ele><time>2026-04-29T10:20:18.964Z</time></trkpt><trkpt lat="37.849584" lon="22.1546497"><ele>496.0</ele><time>2026-04-29T10:20:19.964Z</time></trkpt><trkpt lat="37.8493874" lon="22.1547166"><ele>498.0</ele><time>2026-04-29T10:20:20.964Z</time></trkpt><trkpt lat="37.8491946" lon="22.1547791"><ele>498.33333333333337</ele><time>2026-04-29T10:20:21.965Z</time></trkpt><trkpt lat="37.8490051" lon="22.1548573"><ele>498.6666666666667</ele><time>2026-04-29T10:20:22.964Z</time></trkpt><trkpt lat="37.8488078" lon="22.1549313"><ele>499.0</ele><time>2026-04-29T10:20:23.964Z</time></trkpt><trkpt lat="37.8486322" lon="22.1549964"><ele>498.0</ele><time>2026-04-29T10:20:24.965Z</time></trkpt><trkpt lat="37.8484576" lon="22.1550593"><ele>497.0</ele><time>2026-04-29T10:20:25.964Z</time></trkpt><trkpt lat="37.8482951" lon="22.1551408"><ele>496.0</ele><time>2026-04-29T10:20:26.964Z</time></trkpt><trkpt lat="37.8481624" lon="22.1552555"><ele>496.0</ele><time>2026-04-29T10:20:27.965Z</time></trkpt><trkpt lat="37.8480396" lon="22.1553918"><ele>496.0</ele><time>2026-04-29T10:20:28.965Z</time></trkpt><trkpt lat="37.8479391" lon="22.1555675"><ele>496.0</ele><time>2026-04-29T10:20:29.964Z</time></trkpt><trkpt lat="37.8478666" lon="22.1557688"><ele>492.33333333333337</ele><time>2026-04-29T10:20:30.965Z</time></trkpt><trkpt lat="37.8478133" lon="22.1559713"><ele>488.66666666666663</ele><time>2026-04-29T10:20:31.964Z</time></trkpt><trkpt lat="37.8477619" lon="22.15616"><ele>485.0</ele><time>2026-04-29T10:20:32.964Z</time></trkpt><trkpt lat="37.8476971" lon="22.1563338"><ele>484.66666666666663</ele><time>2026-04-29T10:20:33.964Z</time></trkpt><trkpt lat="37.8476196" lon="22.1564872"><ele>484.33333333333337</ele><time>2026-04-29T10:20:34.965Z</time></trkpt><trkpt lat="37.8475059" lon="22.1565774"><ele>484.0</ele><time>2026-04-29T10:20:35.964Z</time></trkpt><trkpt lat="37.8473197" lon="22.1566112"><ele>484.0</ele><time>2026-04-29T10:20:36.964Z</time></trkpt><trkpt lat="37.8471149" lon="22.1566403"><ele>484.0</ele><time>2026-04-29T10:20:37.965Z</time></trkpt><trkpt lat="37.8468653" lon="22.1566533"><ele>485.5</ele><time>2026-04-29T10:20:38.965Z</time></trkpt><trkpt lat="37.8465871" lon="22.156658"><ele>487.0</ele><time>2026-04-29T10:20:39.964Z</time></trkpt><trkpt lat="37.8462851" lon="22.1566616"><ele>487.0</ele><time>2026-04-29T10:20:40.964Z</time></trkpt><trkpt lat="37.8459768" lon="22.1566614"><ele>487.0</ele><time>2026-04-29T10:20:41.965Z</time></trkpt><trkpt lat="37.845682" lon="22.156665"><ele>486.5</ele><time>2026-04-29T10:20:42.965Z</time></trkpt><trkpt lat="37.8454001" lon="22.1566645"><ele>486.0</ele><time>2026-04-29T10:20:43.964Z</time></trkpt><trkpt lat="37.8451314" lon="22.1566609"><ele>486.0</ele><time>2026-04-29T10:20:44.965Z</time></trkpt><trkpt lat="37.8448705" lon="22.1566579"><ele>486.0</ele><time>2026-04-29T10:20:45.965Z</time></trkpt><trkpt lat="37.844619" lon="22.1566579"><ele>486.0</ele><time>2026-04-29T10:20:46.965Z</time></trkpt><trkpt lat="37.8443764" lon="22.1566486"><ele>486.0</ele><time>2026-04-29T10:20:47.965Z</time></trkpt><trkpt lat="37.8441347" lon="22.1566223"><ele>482.0</ele><time>2026-04-29T10:20:48.965Z</time></trkpt><trkpt lat="37.8439009" lon="22.1565764"><ele>478.0</ele><time>2026-04-29T10:20:49.965Z</time></trkpt><trkpt lat="37.8436712" lon="22.1565106"><ele>481.6666666666667</ele><time>2026-04-29T10:20:50.965Z</time></trkpt><trkpt lat="37.8434593" lon="22.1564322"><ele>485.33333333333337</ele><time>2026-04-29T10:20:51.965Z</time></trkpt><trkpt lat="37.8432485" lon="22.1563404"><ele>489.0</ele><time>2026-04-29T10:20:52.964Z</time></trkpt><trkpt lat="37.8430569" lon="22.1562299"><ele>489.0</ele><time>2026-04-29T10:20:53.964Z</time></trkpt><trkpt lat="37.8428813" lon="22.156106"><ele>489.0</ele><time>2026-04-29T10:20:54.965Z</time></trkpt><trkpt lat="37.8427203" lon="22.1559826"><ele>489.0</ele><time>2026-04-29T10:20:55.964Z</time></trkpt><trkpt lat="37.8425713" lon="22.1558688"><ele>486.25</ele><time>2026-04-29T10:20:56.964Z</time></trkpt><trkpt lat="37.8424312" lon="22.1557772"><ele>483.5</ele><time>2026-04-29T10:20:57.964Z</time></trkpt><trkpt lat="37.8422955" lon="22.1557385"><ele>480.75</ele><time>2026-04-29T10:20:58.965Z</time></trkpt><trkpt lat="37.8421509" lon="22.1557609"><ele>478.0</ele><time>2026-04-29T10:20:59.965Z</time></trkpt><trkpt lat="37.8419959" lon="22.1558298"><ele>478.0</ele><time>2026-04-29T10:21:00.964Z</time></trkpt><trkpt lat="37.8418481" lon="22.1559315"><ele>478.0</ele><time>2026-04-29T10:21:01.964Z</time></trkpt><trkpt lat="37.8416981" lon="22.1560212"><ele>478.0</ele><time>2026-04-29T10:21:02.965Z</time></trkpt><trkpt lat="37.8415462" lon="22.1560775"><ele>478.6666666666667</ele><time>2026-04-29T10:21:03.965Z</time></trkpt><trkpt lat="37.8413848" lon="22.1561033"><ele>479.33333333333337</ele><time>2026-04-29T10:21:04.965Z</time></trkpt><trkpt lat="37.8412059" lon="22.15607"><ele>480.0</ele><time>2026-04-29T10:21:05.964Z</time></trkpt><trkpt lat="37.8410287" lon="22.1560239"><ele>479.66666666666663</ele><time>2026-04-29T10:21:06.965Z</time></trkpt><trkpt lat="37.8408457" lon="22.1559666"><ele>479.3333333333333</ele><time>2026-04-29T10:21:07.964Z</time></trkpt><trkpt lat="37.8406656" lon="22.1559144"><ele>479.0</ele><time>2026-04-29T10:21:08.965Z</time></trkpt><trkpt lat="37.8404899" lon="22.1558603"><ele>479.0</ele><time>2026-04-29T10:21:09.965Z</time></trkpt><trkpt lat="37.8403045" lon="22.1558241"><ele>479.0</ele><time>2026-04-29T10:21:10.964Z</time></trkpt><trkpt lat="37.840131" lon="22.1558116"><ele>479.0</ele><time>2026-04-29T10:21:11.965Z</time></trkpt><trkpt lat="37.8399402" lon="22.1558337"><ele>477.3333333333333</ele><time>2026-04-29T10:21:12.964Z</time></trkpt><trkpt lat="37.8397477" lon="22.1558861"><ele>475.66666666666663</ele><time>2026-04-29T10:21:13.965Z</time></trkpt><trkpt lat="37.8395569" lon="22.1559524"><ele>474.0</ele><time>2026-04-29T10:21:14.965Z</time></trkpt><trkpt lat="37.839362" lon="22.1560328"><ele>476.33333333333337</ele><time>2026-04-29T10:21:15.965Z</time></trkpt><trkpt lat="37.8391662" lon="22.1561182"><ele>478.6666666666667</ele><time>2026-04-29T10:21:16.964Z</time></trkpt><trkpt lat="37.8389672" lon="22.1562131"><ele>481.0</ele><time>2026-04-29T10:21:17.965Z</time></trkpt><trkpt lat="37.8387683" lon="22.1563027"><ele>481.0</ele><time>2026-04-29T10:21:18.965Z</time></trkpt><trkpt lat="37.8385685" lon="22.1564034"><ele>481.0</ele><time>2026-04-29T10:21:19.965Z</time></trkpt><trkpt lat="37.8383688" lon="22.156532"><ele>481.0</ele><time>2026-04-29T10:21:20.964Z</time></trkpt><trkpt lat="37.8381652" lon="22.156691"><ele>475.0</ele><time>2026-04-29T10:21:21.965Z</time></trkpt><trkpt lat="37.8379689" lon="22.1568791"><ele>469.0</ele><time>2026-04-29T10:21:22.965Z</time></trkpt><trkpt lat="37.8377831" lon="22.157066"><ele>470.0</ele><time>2026-04-29T10:21:23.965Z</time></trkpt><trkpt lat="37.837608" lon="22.1572638"><ele>471.0</ele><time>2026-04-29T10:21:24.964Z</time></trkpt><trkpt lat="37.837443" lon="22.1574638"><ele>471.0</ele><time>2026-04-29T10:21:25.964Z</time></trkpt><trkpt lat="37.8372775" lon="22.1576515"><ele>471.0</ele><time>2026-04-29T10:21:26.965Z</time></trkpt><trkpt lat="37.8371057" lon="22.1578223"><ele>471.0</ele><time>2026-04-29T10:21:27.965Z</time></trkpt><trkpt lat="37.836928" lon="22.1579864"><ele>470.33333333333337</ele><time>2026-04-29T10:21:28.964Z</time></trkpt><trkpt lat="37.8367418" lon="22.1581246"><ele>469.6666666666667</ele><time>2026-04-29T10:21:29.964Z</time></trkpt><trkpt lat="37.8365483" lon="22.1582473"><ele>469.0</ele><time>2026-04-29T10:21:30.964Z</time></trkpt><trkpt lat="37.8363524" lon="22.15835"><ele>469.0</ele><time>2026-04-29T10:21:31.964Z</time></trkpt><trkpt lat="37.8361486" lon="22.1584426"><ele>469.0</ele><time>2026-04-29T10:21:32.965Z</time></trkpt><trkpt lat="37.8359412" lon="22.1585179"><ele>469.0</ele><time>2026-04-29T10:21:33.964Z</time></trkpt><trkpt lat="37.8357408" lon="22.1586062"><ele>471.33333333333337</ele><time>2026-04-29T10:21:34.965Z</time></trkpt><trkpt lat="37.8355367" lon="22.1586761"><ele>473.66666666666663</ele><time>2026-04-29T10:21:35.964Z</time></trkpt><trkpt lat="37.8353418" lon="22.1587631"><ele>476.0</ele><time>2026-04-29T10:21:36.965Z</time></trkpt><trkpt lat="37.8351481" lon="22.158841"><ele>478.0</ele><time>2026-04-29T10:21:37.964Z</time></trkpt><trkpt lat="37.8349669" lon="22.1588948"><ele>480.0</ele><time>2026-04-29T10:21:38.964Z</time></trkpt><trkpt lat="37.8347787" lon="22.1589266"><ele>482.0</ele><time>2026-04-29T10:21:39.965Z</time></trkpt><trkpt lat="37.8345834" lon="22.1589215"><ele>482.0</ele><time>2026-04-29T10:21:40.965Z</time></trkpt><trkpt lat="37.8343874" lon="22.1588922"><ele>482.0</ele><time>2026-04-29T10:21:41.965Z</time></trkpt><trkpt lat="37.8341884" lon="22.1588473"><ele>482.0</ele><time>2026-04-29T10:21:42.965Z</time></trkpt><trkpt lat="37.8339875" lon="22.1588125"><ele>477.3333333333333</ele><time>2026-04-29T10:21:43.965Z</time></trkpt><trkpt lat="37.8337858" lon="22.1587777"><ele>472.66666666666663</ele><time>2026-04-29T10:21:44.964Z</time></trkpt><trkpt lat="37.8335815" lon="22.1587401"><ele>468.0</ele><time>2026-04-29T10:21:45.964Z</time></trkpt><trkpt lat="37.833376" lon="22.1586956"><ele>465.66666666666663</ele><time>2026-04-29T10:21:46.964Z</time></trkpt><trkpt lat="37.8331691" lon="22.1586515"><ele>463.3333333333333</ele><time>2026-04-29T10:21:47.965Z</time></trkpt><trkpt lat="37.8329589" lon="22.1586059"><ele>461.0</ele><time>2026-04-29T10:21:48.964Z</time></trkpt><trkpt lat="37.8327424" lon="22.1585677"><ele>459.66666666666663</ele><time>2026-04-29T10:21:49.964Z</time></trkpt><trkpt lat="37.8325375" lon="22.1585449"><ele>458.33333333333337</ele><time>2026-04-29T10:21:50.965Z</time></trkpt><trkpt lat="37.8323441" lon="22.1585242"><ele>457.0</ele><time>2026-04-29T10:21:51.964Z</time></trkpt><trkpt lat="37.832158" lon="22.1584976"><ele>457.0</ele><time>2026-04-29T10:21:52.965Z</time></trkpt><trkpt lat="37.8319879" lon="22.1584514"><ele>457.0</ele><time>2026-04-29T10:21:53.965Z</time></trkpt><trkpt lat="37.8318151" lon="22.1583665"><ele>457.0</ele><time>2026-04-29T10:21:54.965Z</time></trkpt><trkpt lat="37.831672" lon="22.1582273"><ele>457.0</ele><time>2026-04-29T10:21:55.965Z</time></trkpt><trkpt lat="37.8315476" lon="22.1580513"><ele>457.0</ele><time>2026-04-29T10:21:56.965Z</time></trkpt><trkpt lat="37.8314129" lon="22.157869"><ele>457.0</ele><time>2026-04-29T10:21:57.964Z</time></trkpt><trkpt lat="37.8312787" lon="22.1576766"><ele>457.0</ele><time>2026-04-29T10:21:58.965Z</time></trkpt><trkpt lat="37.8311492" lon="22.1574952"><ele>457.0</ele><time>2026-04-29T10:21:59.965Z</time></trkpt><trkpt lat="37.8310193" lon="22.1573074"><ele>457.0</ele><time>2026-04-29T10:22:00.965Z</time></trkpt><trkpt lat="37.8308911" lon="22.1571127"><ele>456.33333333333337</ele><time>2026-04-29T10:22:01.964Z</time></trkpt><trkpt lat="37.8307598" lon="22.1569179"><ele>455.66666666666663</ele><time>2026-04-29T10:22:02.964Z</time></trkpt><trkpt lat="37.8306259" lon="22.1567237"><ele>455.0</ele><time>2026-04-29T10:22:03.965Z</time></trkpt><trkpt lat="37.8304875" lon="22.1565346"><ele>455.0</ele><time>2026-04-29T10:22:04.965Z</time></trkpt><trkpt lat="37.8303444" lon="22.1563588"><ele>455.0</ele><time>2026-04-29T10:22:05.964Z</time></trkpt><trkpt lat="37.8301785" lon="22.156191"><ele>455.0</ele><time>2026-04-29T10:22:06.964Z</time></trkpt><trkpt lat="37.8300035" lon="22.1560384"><ele>455.0</ele><time>2026-04-29T10:22:07.965Z</time></trkpt><trkpt lat="37.8298193" lon="22.1559038"><ele>455.0</ele><time>2026-04-29T10:22:08.965Z</time></trkpt><trkpt lat="37.8296173" lon="22.1557904"><ele>455.0</ele><time>2026-04-29T10:22:09.964Z</time></trkpt><trkpt lat="37.8294317" lon="22.1557155"><ele>455.0</ele><time>2026-04-29T10:22:10.965Z</time></trkpt><trkpt lat="37.829236" lon="22.1556527"><ele>455.0</ele><time>2026-04-29T10:22:11.965Z</time></trkpt><trkpt lat="37.8290438" lon="22.1555994"><ele>455.0</ele><time>2026-04-29T10:22:12.964Z</time></trkpt><trkpt lat="37.8288562" lon="22.1555428"><ele>455.0</ele><time>2026-04-29T10:22:13.965Z</time></trkpt><trkpt lat="37.8286779" lon="22.155487"><ele>455.0</ele><time>2026-04-29T10:22:14.965Z</time></trkpt><trkpt lat="37.828522" lon="22.1554155"><ele>455.0</ele><time>2026-04-29T10:22:15.964Z</time></trkpt><trkpt lat="37.8283726" lon="22.155364"><ele>455.75</ele><time>2026-04-29T10:22:16.964Z</time></trkpt><trkpt lat="37.8282293" lon="22.1553043"><ele>456.5</ele><time>2026-04-29T10:22:17.964Z</time></trkpt><trkpt lat="37.8280888" lon="22.1552359"><ele>457.25</ele><time>2026-04-29T10:22:18.964Z</time></trkpt><trkpt lat="37.8279678" lon="22.1551474"><ele>458.0</ele><time>2026-04-29T10:22:19.965Z</time></trkpt><trkpt lat="37.8278593" lon="22.155036"><ele>458.0</ele><time>2026-04-29T10:22:20.964Z</time></trkpt><trkpt lat="37.8277799" lon="22.1548811"><ele>458.0</ele><time>2026-04-29T10:22:21.965Z</time></trkpt><trkpt lat="37.8277055" lon="22.1547181"><ele>458.0</ele><time>2026-04-29T10:22:22.965Z</time></trkpt><trkpt lat="37.8276164" lon="22.1545578"><ele>458.0</ele><time>2026-04-29T10:22:23.965Z</time></trkpt><trkpt lat="37.8275274" lon="22.1543855"><ele>458.3333333333333</ele><time>2026-04-29T10:22:24.965Z</time></trkpt><trkpt lat="37.8274318" lon="22.1542061"><ele>458.66666666666663</ele><time>2026-04-29T10:22:25.964Z</time></trkpt><trkpt lat="37.8273573" lon="22.1540094"><ele>459.0</ele><time>2026-04-29T10:22:26.965Z</time></trkpt><trkpt lat="37.8272961" lon="22.1537903"><ele>459.0</ele><time>2026-04-29T10:22:27.965Z</time></trkpt><trkpt lat="37.8272359" lon="22.1535572"><ele>459.0</ele><time>2026-04-29T10:22:28.965Z</time></trkpt><trkpt lat="37.8271845" lon="22.1533303"><ele>459.0</ele><time>2026-04-29T10:22:29.964Z</time></trkpt><trkpt lat="37.827136" lon="22.1531025"><ele>459.33333333333337</ele><time>2026-04-29T10:22:30.965Z</time></trkpt><trkpt lat="37.827088" lon="22.1528773"><ele>459.6666666666667</ele><time>2026-04-29T10:22:31.964Z</time></trkpt><trkpt lat="37.8270275" lon="22.1526514"><ele>460.0</ele><time>2026-04-29T10:22:32.965Z</time></trkpt><trkpt lat="37.8269714" lon="22.1524282"><ele>459.0</ele><time>2026-04-29T10:22:33.965Z</time></trkpt><trkpt lat="37.8269174" lon="22.152197"><ele>458.0</ele><time>2026-04-29T10:22:34.965Z</time></trkpt><trkpt lat="37.8268656" lon="22.1519649"><ele>457.0</ele><time>2026-04-29T10:22:35.964Z</time></trkpt><trkpt lat="37.8268163" lon="22.1517292"><ele>460.6666666666667</ele><time>2026-04-29T10:22:36.964Z</time></trkpt><trkpt lat="37.8267637" lon="22.1514905"><ele>464.33333333333337</ele><time>2026-04-29T10:22:37.964Z</time></trkpt><trkpt lat="37.8267065" lon="22.1512466"><ele>468.0</ele><time>2026-04-29T10:22:38.964Z</time></trkpt><trkpt lat="37.8266553" lon="22.1510005"><ele>468.0</ele><time>2026-04-29T10:22:39.965Z</time></trkpt><trkpt lat="37.8266072" lon="22.1507606"><ele>468.0</ele><time>2026-04-29T10:22:40.965Z</time></trkpt><trkpt lat="37.8265624" lon="22.150531"><ele>468.0</ele><time>2026-04-29T10:22:41.965Z</time></trkpt><trkpt lat="37.8265107" lon="22.1503241"><ele>465.33333333333337</ele><time>2026-04-29T10:22:42.964Z</time></trkpt><trkpt lat="37.8264531" lon="22.150139"><ele>462.6666666666667</ele><time>2026-04-29T10:22:43.965Z</time></trkpt><trkpt lat="37.8263756" lon="22.1499733"><ele>460.0</ele><time>2026-04-29T10:22:44.965Z</time></trkpt><trkpt lat="37.8262743" lon="22.1498438"><ele>458.25</ele><time>2026-04-29T10:22:45.964Z</time></trkpt><trkpt lat="37.8261538" lon="22.1497432"><ele>456.5</ele><time>2026-04-29T10:22:46.964Z</time></trkpt><trkpt lat="37.8260238" lon="22.1496479"><ele>454.75</ele><time>2026-04-29T10:22:47.964Z</time></trkpt><trkpt lat="37.8259111" lon="22.1495292"><ele>453.0</ele><time>2026-04-29T10:22:48.965Z</time></trkpt><trkpt lat="37.8258202" lon="22.1493835"><ele>458.33333333333337</ele><time>2026-04-29T10:22:49.964Z</time></trkpt><trkpt lat="37.8257515" lon="22.1492032"><ele>463.6666666666667</ele><time>2026-04-29T10:22:50.964Z</time></trkpt><trkpt lat="37.8257077" lon="22.1489992"><ele>469.0</ele><time>2026-04-29T10:22:51.965Z</time></trkpt><trkpt lat="37.8256809" lon="22.1487833"><ele>469.0</ele><time>2026-04-29T10:22:52.964Z</time></trkpt><trkpt lat="37.82563" lon="22.1485648"><ele>469.0</ele><time>2026-04-29T10:22:53.964Z</time></trkpt><trkpt lat="37.8255602" lon="22.1483345"><ele>469.0</ele><time>2026-04-29T10:22:54.965Z</time></trkpt><trkpt lat="37.8254608" lon="22.1480865"><ele>465.5</ele><time>2026-04-29T10:22:55.964Z</time></trkpt><trkpt lat="37.8253551" lon="22.1478352"><ele>462.0</ele><time>2026-04-29T10:22:56.965Z</time></trkpt><trkpt lat="37.8252307" lon="22.1475862"><ele>467.66666666666663</ele><time>2026-04-29T10:22:57.965Z</time></trkpt><trkpt lat="37.8251237" lon="22.1473525"><ele>473.3333333333333</ele><time>2026-04-29T10:22:58.965Z</time></trkpt><trkpt lat="37.8250194" lon="22.1471291"><ele>479.0</ele><time>2026-04-29T10:22:59.964Z</time></trkpt><trkpt lat="37.8249113" lon="22.1469272"><ele>479.0</ele><time>2026-04-29T10:23:00.965Z</time></trkpt><trkpt lat="37.8248123" lon="22.1467418"><ele>479.0</ele><time>2026-04-29T10:23:01.965Z</time></trkpt><trkpt lat="37.824697" lon="22.1465881"><ele>479.0</ele><time>2026-04-29T10:23:02.964Z</time></trkpt><trkpt lat="37.82453" lon="22.1464548"><ele>479.3333333333333</ele><time>2026-04-29T10:23:03.965Z</time></trkpt><trkpt lat="37.8243344" lon="22.1463423"><ele>479.66666666666663</ele><time>2026-04-29T10:23:04.964Z</time></trkpt><trkpt lat="37.8241423" lon="22.1462504"><ele>480.0</ele><time>2026-04-29T10:23:05.965Z</time></trkpt><trkpt lat="37.8239781" lon="22.1461502"><ele>482.66666666666663</ele><time>2026-04-29T10:23:06.964Z</time></trkpt><trkpt lat="37.8238422" lon="22.1460191"><ele>485.3333333333333</ele><time>2026-04-29T10:23:07.964Z</time></trkpt><trkpt lat="37.8237532" lon="22.1458638"><ele>488.0</ele><time>2026-04-29T10:23:08.965Z</time></trkpt><trkpt lat="37.8236754" lon="22.1457036"><ele>489.3333333333333</ele><time>2026-04-29T10:23:09.965Z</time></trkpt><trkpt lat="37.823631" lon="22.1455299"><ele>490.66666666666663</ele><time>2026-04-29T10:23:10.965Z</time></trkpt><trkpt lat="37.8235887" lon="22.1453577"><ele>492.0</ele><time>2026-04-29T10:23:11.964Z</time></trkpt><trkpt lat="37.8238901" lon="22.1451639"><ele>492.0</ele><time>2026-04-29T10:23:12.965Z</time></trkpt><trkpt lat="37.8240031" lon="22.1449849"><ele>492.0</ele><time>2026-04-29T10:23:13.964Z</time></trkpt><trkpt lat="37.8241361" lon="22.1448085"><ele>492.0</ele><time>2026-04-29T10:23:14.964Z</time></trkpt><trkpt lat="37.824258" lon="22.1446401"><ele>491.0</ele><time>2026-04-29T10:23:15.964Z</time></trkpt><trkpt lat="37.8243663" lon="22.1444938"><ele>490.0</ele><time>2026-04-29T10:23:16.965Z</time></trkpt><trkpt lat="37.82445" lon="22.1443241"><ele>489.0</ele><time>2026-04-29T10:23:17.964Z</time></trkpt><trkpt lat="37.824511" lon="22.1441516"><ele>492.66666666666663</ele><time>2026-04-29T10:23:18.965Z</time></trkpt><trkpt lat="37.8245523" lon="22.1439731"><ele>496.3333333333333</ele><time>2026-04-29T10:23:19.964Z</time></trkpt><trkpt lat="37.8245694" lon="22.1437692"><ele>500.0</ele><time>2026-04-29T10:23:20.964Z</time></trkpt><trkpt lat="37.8245444" lon="22.1435598"><ele>500.0</ele><time>2026-04-29T10:23:21.965Z</time></trkpt><trkpt lat="37.8244991" lon="22.1433802"><ele>500.0</ele><time>2026-04-29T10:23:22.964Z</time></trkpt><trkpt lat="37.8244261" lon="22.1432184"><ele>500.0</ele><time>2026-04-29T10:23:23.965Z</time></trkpt><trkpt lat="37.824316" lon="22.1430808"><ele>497.66666666666663</ele><time>2026-04-29T10:23:24.964Z</time></trkpt><trkpt lat="37.8241713" lon="22.1429714"><ele>495.33333333333337</ele><time>2026-04-29T10:23:25.965Z</time></trkpt><trkpt lat="37.8240022" lon="22.1428784"><ele>493.0</ele><time>2026-04-29T10:23:26.965Z</time></trkpt><trkpt lat="37.8238235" lon="22.1428042"><ele>493.0</ele><time>2026-04-29T10:23:27.964Z</time></trkpt><trkpt lat="37.8236351" lon="22.1427511"><ele>493.0</ele><time>2026-04-29T10:23:28.964Z</time></trkpt><trkpt lat="37.8234373" lon="22.1427215"><ele>493.0</ele><time>2026-04-29T10:23:29.965Z</time></trkpt><trkpt lat="37.8232353" lon="22.1427039"><ele>492.33333333333337</ele><time>2026-04-29T10:23:30.965Z</time></trkpt><trkpt lat="37.8230402" lon="22.1426945"><ele>491.66666666666663</ele><time>2026-04-29T10:23:31.964Z</time></trkpt><trkpt lat="37.822856" lon="22.1426927"><ele>491.0</ele><time>2026-04-29T10:23:32.965Z</time></trkpt><trkpt lat="37.822673" lon="22.1427163"><ele>489.0</ele><time>2026-04-29T10:23:33.965Z</time></trkpt><trkpt lat="37.8225074" lon="22.1427638"><ele>487.0</ele><time>2026-04-29T10:23:34.965Z</time></trkpt><trkpt lat="37.8223512" lon="22.1428255"><ele>485.0</ele><time>2026-04-29T10:23:35.964Z</time></trkpt><trkpt lat="37.8222087" lon="22.1429046"><ele>485.0</ele><time>2026-04-29T10:23:36.964Z</time></trkpt><trkpt lat="37.8220788" lon="22.142973"><ele>485.0</ele><time>2026-04-29T10:23:37.964Z</time></trkpt><trkpt lat="37.8219573" lon="22.1430262"><ele>485.0</ele><time>2026-04-29T10:23:38.964Z</time></trkpt><trkpt lat="37.8218497" lon="22.143063"><ele>485.0</ele><time>2026-04-29T10:23:39.964Z</time></trkpt><trkpt lat="37.8217575" lon="22.1430598"><ele>484.0</ele><time>2026-04-29T10:23:40.965Z</time></trkpt><trkpt lat="37.8216758" lon="22.1430448"><ele>483.0</ele><time>2026-04-29T10:23:41.964Z</time></trkpt><trkpt lat="37.8216096" lon="22.1430143"><ele>482.0</ele><time>2026-04-29T10:23:42.965Z</time></trkpt><trkpt lat="37.8215312" lon="22.1429746"><ele>481.0</ele><time>2026-04-29T10:23:43.965Z</time></trkpt><trkpt lat="37.821415" lon="22.1428931"><ele>480.0</ele><time>2026-04-29T10:23:44.964Z</time></trkpt><trkpt lat="37.8213013" lon="22.1428292"><ele>480.0</ele><time>2026-04-29T10:23:45.964Z</time></trkpt><trkpt lat="37.8211714" lon="22.1427529"><ele>480.0</ele><time>2026-04-29T10:23:46.964Z</time></trkpt><trkpt lat="37.8210287" lon="22.142672"><ele>480.0</ele><time>2026-04-29T10:23:47.965Z</time></trkpt><trkpt lat="37.820891" lon="22.1425924"><ele>483.0</ele><time>2026-04-29T10:23:48.965Z</time></trkpt><trkpt lat="37.8207618" lon="22.1425273"><ele>486.0</ele><time>2026-04-29T10:23:49.965Z</time></trkpt><trkpt lat="37.8206386" lon="22.1424735"><ele>489.0</ele><time>2026-04-29T10:23:50.964Z</time></trkpt><trkpt lat="37.8205113" lon="22.1424338"><ele>492.0</ele><time>2026-04-29T10:23:51.965Z</time></trkpt><trkpt lat="37.8203812" lon="22.1424263"><ele>492.0</ele><time>2026-04-29T10:23:52.965Z</time></trkpt><trkpt lat="37.8202558" lon="22.1424523"><ele>492.0</ele><time>2026-04-29T10:23:53.964Z</time></trkpt><trkpt lat="37.8201294" lon="22.1425144"><ele>492.0</ele><time>2026-04-29T10:23:54.964Z</time></trkpt><trkpt lat="37.8200149" lon="22.1426089"><ele>492.0</ele><time>2026-04-29T10:23:55.965Z</time></trkpt><trkpt lat="37.8199057" lon="22.1427304"><ele>490.66666666666663</ele><time>2026-04-29T10:23:56.965Z</time></trkpt><trkpt lat="37.8198047" lon="22.1428679"><ele>489.3333333333333</ele><time>2026-04-29T10:23:57.965Z</time></trkpt><trkpt lat="37.819701" lon="22.1430213"><ele>488.0</ele><time>2026-04-29T10:23:58.964Z</time></trkpt><trkpt lat="37.8195904" lon="22.1431763"><ele>486.3333333333333</ele><time>2026-04-29T10:23:59.965Z</time></trkpt><trkpt lat="37.819478" lon="22.1433181"><ele>484.66666666666663</ele><time>2026-04-29T10:24:00.965Z</time></trkpt><trkpt lat="37.8193547" lon="22.1434542"><ele>483.0</ele><time>2026-04-29T10:24:01.965Z</time></trkpt><trkpt lat="37.8192134" lon="22.1435791"><ele>483.0</ele><time>2026-04-29T10:24:02.965Z</time></trkpt><trkpt lat="37.819064" lon="22.14369"><ele>483.0</ele><time>2026-04-29T10:24:03.965Z</time></trkpt><trkpt lat="37.8189097" lon="22.1437891"><ele>483.0</ele><time>2026-04-29T10:24:04.964Z</time></trkpt><trkpt lat="37.818757" lon="22.1438774"><ele>483.0</ele><time>2026-04-29T10:24:05.965Z</time></trkpt><trkpt lat="37.818606" lon="22.1439513"><ele>483.0</ele><time>2026-04-29T10:24:06.964Z</time></trkpt><trkpt lat="37.8184553" lon="22.1440265"><ele>483.0</ele><time>2026-04-29T10:24:07.965Z</time></trkpt><trkpt lat="37.8183076" lon="22.1440938"><ele>485.66666666666663</ele><time>2026-04-29T10:24:08.965Z</time></trkpt><trkpt lat="37.8181594" lon="22.1441453"><ele>488.3333333333333</ele><time>2026-04-29T10:24:09.964Z</time></trkpt><trkpt lat="37.818008" lon="22.1441581"><ele>491.0</ele><time>2026-04-29T10:24:10.964Z</time></trkpt><trkpt lat="37.8178466" lon="22.1441255"><ele>491.0</ele><time>2026-04-29T10:24:11.965Z</time></trkpt><trkpt lat="37.8176806" lon="22.144082"><ele>491.0</ele><time>2026-04-29T10:24:12.965Z</time></trkpt><trkpt lat="37.817519" lon="22.1440364"><ele>491.0</ele><time>2026-04-29T10:24:13.965Z</time></trkpt><trkpt lat="37.8173587" lon="22.1439941"><ele>483.0</ele><time>2026-04-29T10:24:14.964Z</time></trkpt><trkpt lat="37.8171985" lon="22.1439551"><ele>475.0</ele><time>2026-04-29T10:24:15.965Z</time></trkpt><trkpt lat="37.8170373" lon="22.1439198"><ele>467.0</ele><time>2026-04-29T10:24:16.965Z</time></trkpt><trkpt lat="37.8168737" lon="22.1439073"><ele>466.66666666666663</ele><time>2026-04-29T10:24:17.964Z</time></trkpt><trkpt lat="37.8167058" lon="22.1439233"><ele>466.33333333333337</ele><time>2026-04-29T10:24:18.964Z</time></trkpt><trkpt lat="37.8165504" lon="22.1439699"><ele>466.0</ele><time>2026-04-29T10:24:19.964Z</time></trkpt><trkpt lat="37.8163947" lon="22.1440463"><ele>466.6666666666667</ele><time>2026-04-29T10:24:20.964Z</time></trkpt><trkpt lat="37.8162358" lon="22.1441349"><ele>467.33333333333337</ele><time>2026-04-29T10:24:21.964Z</time></trkpt><trkpt lat="37.8160626" lon="22.1442312"><ele>468.0</ele><time>2026-04-29T10:24:22.964Z</time></trkpt><trkpt lat="37.8158762" lon="22.1443259"><ele>468.0</ele><time>2026-04-29T10:24:23.964Z</time></trkpt><trkpt lat="37.8156866" lon="22.1443962"><ele>468.0</ele><time>2026-04-29T10:24:24.965Z</time></trkpt><trkpt lat="37.8154919" lon="22.1444463"><ele>468.0</ele><time>2026-04-29T10:24:25.964Z</time></trkpt><trkpt lat="37.8152951" lon="22.1444796"><ele>467.66666666666663</ele><time>2026-04-29T10:24:26.964Z</time></trkpt><trkpt lat="37.8151054" lon="22.1444917"><ele>467.3333333333333</ele><time>2026-04-29T10:24:27.964Z</time></trkpt><trkpt lat="37.8149264" lon="22.1444925"><ele>467.0</ele><time>2026-04-29T10:24:28.965Z</time></trkpt><trkpt lat="37.8147616" lon="22.1444913"><ele>467.0</ele><time>2026-04-29T10:24:29.965Z</time></trkpt><trkpt lat="37.8146039" lon="22.1445071"><ele>467.0</ele><time>2026-04-29T10:24:30.964Z</time></trkpt><trkpt lat="37.8144681" lon="22.1445562"><ele>467.0</ele><time>2026-04-29T10:24:31.964Z</time></trkpt><trkpt lat="37.8143543" lon="22.1446323"><ele>467.0</ele><time>2026-04-29T10:24:32.965Z</time></trkpt><trkpt lat="37.8142603" lon="22.1447502"><ele>468.66666666666663</ele><time>2026-04-29T10:24:33.965Z</time></trkpt><trkpt lat="37.8141914" lon="22.1449112"><ele>470.33333333333337</ele><time>2026-04-29T10:24:34.964Z</time></trkpt><trkpt lat="37.8141438" lon="22.1450964"><ele>472.0</ele><time>2026-04-29T10:24:35.965Z</time></trkpt><trkpt lat="37.8140947" lon="22.1452948"><ele>472.0</ele><time>2026-04-29T10:24:36.965Z</time></trkpt><trkpt lat="37.8140374" lon="22.1454976"><ele>472.0</ele><time>2026-04-29T10:24:37.964Z</time></trkpt><trkpt lat="37.8139523" lon="22.145702"><ele>472.0</ele><time>2026-04-29T10:24:38.965Z</time></trkpt><trkpt lat="37.8138481" lon="22.1459215"><ele>472.6666666666667</ele><time>2026-04-29T10:24:39.964Z</time></trkpt><trkpt lat="37.8137179" lon="22.1461176"><ele>473.33333333333337</ele><time>2026-04-29T10:24:40.964Z</time></trkpt><trkpt lat="37.8135823" lon="22.146306"><ele>474.0</ele><time>2026-04-29T10:24:41.964Z</time></trkpt><trkpt lat="37.8134411" lon="22.1464814"><ele>474.66666666666663</ele><time>2026-04-29T10:24:42.964Z</time></trkpt><trkpt lat="37.8132925" lon="22.1466469"><ele>475.3333333333333</ele><time>2026-04-29T10:24:43.965Z</time></trkpt><trkpt lat="37.8131318" lon="22.1467891"><ele>476.0</ele><time>2026-04-29T10:24:44.964Z</time></trkpt><trkpt lat="37.8129626" lon="22.1468999"><ele>476.0</ele><time>2026-04-29T10:24:45.964Z</time></trkpt><trkpt lat="37.8127898" lon="22.1469866"><ele>476.0</ele><time>2026-04-29T10:24:46.965Z</time></trkpt><trkpt lat="37.8126079" lon="22.1470642"><ele>476.0</ele><time>2026-04-29T10:24:47.964Z</time></trkpt><trkpt lat="37.8124218" lon="22.1471277"><ele>477.0</ele><time>2026-04-29T10:24:48.964Z</time></trkpt><trkpt lat="37.8122499" lon="22.147201"><ele>478.0</ele><time>2026-04-29T10:24:49.964Z</time></trkpt><trkpt lat="37.8120994" lon="22.1472745"><ele>479.0</ele><time>2026-04-29T10:24:50.965Z</time></trkpt><trkpt lat="37.8119569" lon="22.1473784"><ele>479.0</ele><time>2026-04-29T10:24:51.964Z</time></trkpt><trkpt lat="37.8118473" lon="22.1475256"><ele>479.0</ele><time>2026-04-29T10:24:52.964Z</time></trkpt><trkpt lat="37.8117594" lon="22.1477144"><ele>479.0</ele><time>2026-04-29T10:24:53.964Z</time></trkpt><trkpt lat="37.8117041" lon="22.147928"><ele>479.0</ele><time>2026-04-29T10:24:54.965Z</time></trkpt><trkpt lat="37.8116584" lon="22.1481539"><ele>479.0</ele><time>2026-04-29T10:24:55.964Z</time></trkpt><trkpt lat="37.8115894" lon="22.1483689"><ele>479.0</ele><time>2026-04-29T10:24:56.964Z</time></trkpt><trkpt lat="37.8114926" lon="22.1485549"><ele>480.66666666666663</ele><time>2026-04-29T10:24:57.964Z</time></trkpt><trkpt lat="37.8113712" lon="22.1487159"><ele>482.33333333333337</ele><time>2026-04-29T10:24:58.964Z</time></trkpt><trkpt lat="37.8112441" lon="22.1488685"><ele>484.0</ele><time>2026-04-29T10:24:59.965Z</time></trkpt><trkpt lat="37.8111217" lon="22.1490383"><ele>487.0</ele><time>2026-04-29T10:25:00.964Z</time></trkpt><trkpt lat="37.811019" lon="22.1492363"><ele>490.0</ele><time>2026-04-29T10:25:01.965Z</time></trkpt><trkpt lat="37.810946" lon="22.1494429"><ele>493.0</ele><time>2026-04-29T10:25:02.965Z</time></trkpt><trkpt lat="37.8108801" lon="22.1496345"><ele>486.6666666666667</ele><time>2026-04-29T10:25:03.964Z</time></trkpt><trkpt lat="37.8107985" lon="22.1498073"><ele>480.33333333333337</ele><time>2026-04-29T10:25:04.965Z</time></trkpt><trkpt lat="37.8106811" lon="22.1499456"><ele>474.0</ele><time>2026-04-29T10:25:05.965Z</time></trkpt><trkpt lat="37.8105349" lon="22.1500598"><ele>474.0</ele><time>2026-04-29T10:25:06.964Z</time></trkpt><trkpt lat="37.8103767" lon="22.1501541"><ele>474.0</ele><time>2026-04-29T10:25:07.965Z</time></trkpt><trkpt lat="37.8102266" lon="22.1502325"><ele>474.0</ele><time>2026-04-29T10:25:08.964Z</time></trkpt><trkpt lat="37.8100764" lon="22.1502967"><ele>472.66666666666663</ele><time>2026-04-29T10:25:09.965Z</time></trkpt><trkpt lat="37.8099252" lon="22.1503309"><ele>471.3333333333333</ele><time>2026-04-29T10:25:10.964Z</time></trkpt><trkpt lat="37.8097612" lon="22.1503296"><ele>470.0</ele><time>2026-04-29T10:25:11.965Z</time></trkpt><trkpt lat="37.8096016" lon="22.1502852"><ele>470.0</ele><time>2026-04-29T10:25:12.965Z</time></trkpt><trkpt lat="37.8094412" lon="22.150205"><ele>470.0</ele><time>2026-04-29T10:25:13.965Z</time></trkpt><trkpt lat="37.8092817" lon="22.1500986"><ele>470.0</ele><time>2026-04-29T10:25:14.965Z</time></trkpt><trkpt lat="37.8091212" lon="22.1499785"><ele>469.3333333333333</ele><time>2026-04-29T10:25:15.965Z</time></trkpt><trkpt lat="37.808962" lon="22.1498547"><ele>468.66666666666663</ele><time>2026-04-29T10:25:16.964Z</time></trkpt><trkpt lat="37.8087886" lon="22.149734"><ele>468.0</ele><time>2026-04-29T10:25:17.965Z</time></trkpt><trkpt lat="37.8086228" lon="22.149615"><ele>469.33333333333337</ele><time>2026-04-29T10:25:18.965Z</time></trkpt><trkpt lat="37.8084311" lon="22.1495086"><ele>470.6666666666667</ele><time>2026-04-29T10:25:19.965Z</time></trkpt><trkpt lat="37.8082367" lon="22.149416"><ele>472.0</ele><time>2026-04-29T10:25:20.965Z</time></trkpt><trkpt lat="37.8080359" lon="22.1493446"><ele>472.0</ele><time>2026-04-29T10:25:21.964Z</time></trkpt><trkpt lat="37.8078407" lon="22.1493038"><ele>472.0</ele><time>2026-04-29T10:25:22.964Z</time></trkpt><trkpt lat="37.8076429" lon="22.1492887"><ele>472.0</ele><time>2026-04-29T10:25:23.965Z</time></trkpt><trkpt lat="37.8074435" lon="22.1493053"><ele>473.0</ele><time>2026-04-29T10:25:24.965Z</time></trkpt><trkpt lat="37.8072432" lon="22.1493569"><ele>474.0</ele><time>2026-04-29T10:25:25.964Z</time></trkpt><trkpt lat="37.8070356" lon="22.1494346"><ele>475.0</ele><time>2026-04-29T10:25:26.964Z</time></trkpt><trkpt lat="37.8068333" lon="22.1495325"><ele>473.6666666666667</ele><time>2026-04-29T10:25:27.965Z</time></trkpt><trkpt lat="37.8066563" lon="22.1496407"><ele>472.33333333333337</ele><time>2026-04-29T10:25:28.964Z</time></trkpt><trkpt lat="37.8064907" lon="22.1497727"><ele>471.0</ele><time>2026-04-29T10:25:29.965Z</time></trkpt><trkpt lat="37.8063419" lon="22.1499198"><ele>472.66666666666663</ele><time>2026-04-29T10:25:30.965Z</time></trkpt><trkpt lat="37.8061961" lon="22.150097"><ele>474.3333333333333</ele><time>2026-04-29T10:25:31.965Z</time></trkpt><trkpt lat="37.8060587" lon="22.1502824"><ele>476.0</ele><time>2026-04-29T10:25:32.964Z</time></trkpt><trkpt lat="37.8059231" lon="22.1504695"><ele>476.0</ele><time>2026-04-29T10:25:33.965Z</time></trkpt><trkpt lat="37.805791" lon="22.1506564"><ele>476.0</ele><time>2026-04-29T10:25:34.965Z</time></trkpt><trkpt lat="37.8056588" lon="22.1508476"><ele>476.0</ele><time>2026-04-29T10:25:35.964Z</time></trkpt><trkpt lat="37.805529" lon="22.1510242"><ele>480.66666666666663</ele><time>2026-04-29T10:25:36.965Z</time></trkpt><trkpt lat="37.8054076" lon="22.1512176"><ele>485.33333333333337</ele><time>2026-04-29T10:25:37.965Z</time></trkpt><trkpt lat="37.8053012" lon="22.1514287"><ele>490.0</ele><time>2026-04-29T10:25:38.965Z</time></trkpt><trkpt lat="37.8052126" lon="22.1516481"><ele>486.6666666666667</ele><time>2026-04-29T10:25:39.964Z</time></trkpt><trkpt lat="37.8051345" lon="22.151869"><ele>483.33333333333337</ele><time>2026-04-29T10:25:40.964Z</time></trkpt><trkpt lat="37.8050506" lon="22.1520722"><ele>480.0</ele><time>2026-04-29T10:25:41.965Z</time></trkpt><trkpt lat="37.8049556" lon="22.1522486"><ele>485.33333333333337</ele><time>2026-04-29T10:25:42.965Z</time></trkpt><trkpt lat="37.8048403" lon="22.1524035"><ele>490.6666666666667</ele><time>2026-04-29T10:25:43.965Z</time></trkpt><trkpt lat="37.8047022" lon="22.1525422"><ele>496.0</ele><time>2026-04-29T10:25:44.964Z</time></trkpt><trkpt lat="37.8045459" lon="22.1526728"><ele>496.0</ele><time>2026-04-29T10:25:45.964Z</time></trkpt><trkpt lat="37.8043792" lon="22.152777"><ele>496.0</ele><time>2026-04-29T10:25:46.965Z</time></trkpt><trkpt lat="37.8042204" lon="22.1528799"><ele>496.0</ele><time>2026-04-29T10:25:47.964Z</time></trkpt><trkpt lat="37.804084" lon="22.1530055"><ele>493.6666666666667</ele><time>2026-04-29T10:25:48.965Z</time></trkpt><trkpt lat="37.8039718" lon="22.1531665"><ele>491.33333333333337</ele><time>2026-04-29T10:25:49.965Z</time></trkpt><trkpt lat="37.8038871" lon="22.1533703"><ele>489.0</ele><time>2026-04-29T10:25:50.964Z</time></trkpt><trkpt lat="37.8038231" lon="22.1536121"><ele>489.0</ele><time>2026-04-29T10:25:51.965Z</time></trkpt><trkpt lat="37.8037729" lon="22.153891"><ele>489.0</ele><time>2026-04-29T10:25:52.964Z</time></trkpt><trkpt lat="37.8037159" lon="22.1541599"><ele>489.0</ele><time>2026-04-29T10:25:53.964Z</time></trkpt><trkpt lat="37.8036695" lon="22.154443"><ele>489.66666666666663</ele><time>2026-04-29T10:25:54.965Z</time></trkpt><trkpt lat="37.8036117" lon="22.1547142"><ele>490.3333333333333</ele><time>2026-04-29T10:25:55.965Z</time></trkpt><trkpt lat="37.8035467" lon="22.1549801"><ele>491.0</ele><time>2026-04-29T10:25:56.964Z</time></trkpt><trkpt lat="37.8034723" lon="22.1552384"><ele>491.66666666666663</ele><time>2026-04-29T10:25:57.964Z</time></trkpt><trkpt lat="37.8033849" lon="22.155484"><ele>492.33333333333337</ele><time>2026-04-29T10:25:58.964Z</time></trkpt><trkpt lat="37.8032776" lon="22.1557297"><ele>493.0</ele><time>2026-04-29T10:25:59.965Z</time></trkpt><trkpt lat="37.8031545" lon="22.1559712"><ele>493.0</ele><time>2026-04-29T10:26:00.965Z</time></trkpt><trkpt lat="37.8030154" lon="22.1562157"><ele>493.0</ele><time>2026-04-29T10:26:01.964Z</time></trkpt><trkpt lat="37.8028682" lon="22.1564488"><ele>487.5</ele><time>2026-04-29T10:26:02.965Z</time></trkpt><trkpt lat="37.8027261" lon="22.15669"><ele>482.0</ele><time>2026-04-29T10:26:03.964Z</time></trkpt><trkpt lat="37.802591" lon="22.1569275"><ele>482.0</ele><time>2026-04-29T10:26:04.964Z</time></trkpt><trkpt lat="37.802469" lon="22.1571655"><ele>482.0</ele><time>2026-04-29T10:26:05.965Z</time></trkpt><trkpt lat="37.802359" lon="22.1574062"><ele>482.0</ele><time>2026-04-29T10:26:06.965Z</time></trkpt><trkpt lat="37.8022624" lon="22.1576522"><ele>485.3333333333333</ele><time>2026-04-29T10:26:07.964Z</time></trkpt><trkpt lat="37.8021744" lon="22.1578872"><ele>488.66666666666663</ele><time>2026-04-29T10:26:08.965Z</time></trkpt><trkpt lat="37.8020844" lon="22.1581127"><ele>492.0</ele><time>2026-04-29T10:26:09.965Z</time></trkpt><trkpt lat="37.8019894" lon="22.1583371"><ele>495.0</ele><time>2026-04-29T10:26:10.964Z</time></trkpt><trkpt lat="37.8018915" lon="22.1585552"><ele>498.0</ele><time>2026-04-29T10:26:11.964Z</time></trkpt><trkpt lat="37.8017909" lon="22.1587814"><ele>501.0</ele><time>2026-04-29T10:26:12.965Z</time></trkpt><trkpt lat="37.8016874" lon="22.1589997"><ele>495.33333333333337</ele><time>2026-04-29T10:26:13.965Z</time></trkpt><trkpt lat="37.8015762" lon="22.1592259"><ele>489.6666666666667</ele><time>2026-04-29T10:26:14.965Z</time></trkpt><trkpt lat="37.801456" lon="22.1594522"><ele>484.0</ele><time>2026-04-29T10:26:15.964Z</time></trkpt><trkpt lat="37.801332" lon="22.1596727"><ele>484.6666666666667</ele><time>2026-04-29T10:26:16.964Z</time></trkpt><trkpt lat="37.8012065" lon="22.1598839"><ele>485.33333333333337</ele><time>2026-04-29T10:26:17.964Z</time></trkpt><trkpt lat="37.8010845" lon="22.1600883"><ele>486.0</ele><time>2026-04-29T10:26:18.965Z</time></trkpt><trkpt lat="37.8009659" lon="22.1602935"><ele>485.66666666666663</ele><time>2026-04-29T10:26:19.965Z</time></trkpt><trkpt lat="37.8008592" lon="22.1604921"><ele>485.3333333333333</ele><time>2026-04-29T10:26:20.965Z</time></trkpt><trkpt lat="37.8007631" lon="22.160699"><ele>485.0</ele><time>2026-04-29T10:26:21.964Z</time></trkpt><trkpt lat="37.8006785" lon="22.1609175"><ele>485.0</ele><time>2026-04-29T10:26:22.964Z</time></trkpt><trkpt lat="37.8006128" lon="22.1611549"><ele>485.0</ele><time>2026-04-29T10:26:23.965Z</time></trkpt><trkpt lat="37.8005414" lon="22.1613947"><ele>485.0</ele><time>2026-04-29T10:26:24.965Z</time></trkpt><trkpt lat="37.8004696" lon="22.1616344"><ele>486.3333333333333</ele><time>2026-04-29T10:26:25.965Z</time></trkpt><trkpt lat="37.8003927" lon="22.1618728"><ele>487.66666666666663</ele><time>2026-04-29T10:26:26.964Z</time></trkpt><trkpt lat="37.8003108" lon="22.1621064"><ele>489.0</ele><time>2026-04-29T10:26:27.964Z</time></trkpt><trkpt lat="37.8002198" lon="22.1623277"><ele>486.33333333333337</ele><time>2026-04-29T10:26:28.965Z</time></trkpt><trkpt lat="37.8001238" lon="22.1625315"><ele>483.6666666666667</ele><time>2026-04-29T10:26:29.965Z</time></trkpt><trkpt lat="37.8000116" lon="22.1627215"><ele>481.0</ele><time>2026-04-29T10:26:30.964Z</time></trkpt><trkpt lat="37.7998959" lon="22.1628988"><ele>481.0</ele><time>2026-04-29T10:26:31.965Z</time></trkpt><trkpt lat="37.7997844" lon="22.1630593"><ele>481.0</ele><time>2026-04-29T10:26:32.964Z</time></trkpt><trkpt lat="37.7996743" lon="22.163204"><ele>481.0</ele><time>2026-04-29T10:26:33.965Z</time></trkpt><trkpt lat="37.7995728" lon="22.1633514"><ele>484.33333333333337</ele><time>2026-04-29T10:26:34.965Z</time></trkpt><trkpt lat="37.7994812" lon="22.1634983"><ele>487.66666666666663</ele><time>2026-04-29T10:26:35.964Z</time></trkpt><trkpt lat="37.7994112" lon="22.1636669"><ele>491.0</ele><time>2026-04-29T10:26:36.965Z</time></trkpt><trkpt lat="37.7993638" lon="22.1638576"><ele>489.0</ele><time>2026-04-29T10:26:37.964Z</time></trkpt><trkpt lat="37.7993254" lon="22.1640608"><ele>487.0</ele><time>2026-04-29T10:26:38.965Z</time></trkpt><trkpt lat="37.7992905" lon="22.1642795"><ele>485.0</ele><time>2026-04-29T10:26:39.964Z</time></trkpt><trkpt lat="37.7992527" lon="22.1644965"><ele>485.0</ele><time>2026-04-29T10:26:40.964Z</time></trkpt><trkpt lat="37.799218" lon="22.164718"><ele>485.0</ele><time>2026-04-29T10:26:41.964Z</time></trkpt><trkpt lat="37.7991862" lon="22.1649537"><ele>485.0</ele><time>2026-04-29T10:26:42.965Z</time></trkpt><trkpt lat="37.7991604" lon="22.1651902"><ele>485.0</ele><time>2026-04-29T10:26:43.965Z</time></trkpt><trkpt lat="37.7991287" lon="22.1654268"><ele>485.0</ele><time>2026-04-29T10:26:44.964Z</time></trkpt><trkpt lat="37.7990896" lon="22.165655"><ele>485.0</ele><time>2026-04-29T10:26:45.964Z</time></trkpt><trkpt lat="37.7990421" lon="22.1658758"><ele>485.0</ele><time>2026-04-29T10:26:46.965Z</time></trkpt><trkpt lat="37.7989894" lon="22.1660895"><ele>485.0</ele><time>2026-04-29T10:26:47.964Z</time></trkpt><trkpt lat="37.7989297" lon="22.1663017"><ele>485.0</ele><time>2026-04-29T10:26:48.964Z</time></trkpt><trkpt lat="37.7988595" lon="22.1665143"><ele>487.0</ele><time>2026-04-29T10:26:49.964Z</time></trkpt><trkpt lat="37.7987836" lon="22.1667243"><ele>489.0</ele><time>2026-04-29T10:26:50.965Z</time></trkpt><trkpt lat="37.798701" lon="22.1669361"><ele>491.0</ele><time>2026-04-29T10:26:51.964Z</time></trkpt><trkpt lat="37.7986121" lon="22.1671452"><ele>491.0</ele><time>2026-04-29T10:26:52.964Z</time></trkpt><trkpt lat="37.7985167" lon="22.167351"><ele>491.0</ele><time>2026-04-29T10:26:53.964Z</time></trkpt><trkpt lat="37.7984171" lon="22.1675507"><ele>491.0</ele><time>2026-04-29T10:26:54.964Z</time></trkpt><trkpt lat="37.7983155" lon="22.1677501"><ele>492.0</ele><time>2026-04-29T10:26:55.965Z</time></trkpt><trkpt lat="37.7982214" lon="22.167957"><ele>493.0</ele><time>2026-04-29T10:26:56.964Z</time></trkpt><trkpt lat="37.7981223" lon="22.1681618"><ele>494.0</ele><time>2026-04-29T10:26:57.965Z</time></trkpt><trkpt lat="37.7980204" lon="22.1683598"><ele>494.0</ele><time>2026-04-29T10:26:58.965Z</time></trkpt><trkpt lat="37.7979154" lon="22.1685579"><ele>494.0</ele><time>2026-04-29T10:26:59.964Z</time></trkpt><trkpt lat="37.7978058" lon="22.168761"><ele>494.0</ele><time>2026-04-29T10:27:00.965Z</time></trkpt><trkpt lat="37.7976983" lon="22.1689607"><ele>492.0</ele><time>2026-04-29T10:27:01.965Z</time></trkpt><trkpt lat="37.7975885" lon="22.1691729"><ele>490.0</ele><time>2026-04-29T10:27:02.965Z</time></trkpt><trkpt lat="37.7974861" lon="22.1693926"><ele>488.0</ele><time>2026-04-29T10:27:03.965Z</time></trkpt><trkpt lat="37.7973748" lon="22.1696119"><ele>488.0</ele><time>2026-04-29T10:27:04.964Z</time></trkpt><trkpt lat="37.7972572" lon="22.1698276"><ele>488.0</ele><time>2026-04-29T10:27:05.965Z</time></trkpt><trkpt lat="37.7971439" lon="22.1700476"><ele>488.0</ele><time>2026-04-29T10:27:06.964Z</time></trkpt><trkpt lat="37.797035" lon="22.1702657"><ele>488.0</ele><time>2026-04-29T10:27:07.965Z</time></trkpt><trkpt lat="37.7969263" lon="22.1704824"><ele>488.0</ele><time>2026-04-29T10:27:08.965Z</time></trkpt><trkpt lat="37.7968288" lon="22.1707066"><ele>488.0</ele><time>2026-04-29T10:27:09.964Z</time></trkpt><trkpt lat="37.7967499" lon="22.1709423"><ele>488.0</ele><time>2026-04-29T10:27:10.965Z</time></trkpt><trkpt lat="37.7966829" lon="22.1711913"><ele>488.0</ele><time>2026-04-29T10:27:11.965Z</time></trkpt><trkpt lat="37.796625" lon="22.1714498"><ele>488.0</ele><time>2026-04-29T10:27:12.964Z</time></trkpt><trkpt lat="37.7965737" lon="22.1717148"><ele>489.3333333333333</ele><time>2026-04-29T10:27:13.965Z</time></trkpt><trkpt lat="37.7965296" lon="22.1719827"><ele>490.66666666666663</ele><time>2026-04-29T10:27:14.964Z</time></trkpt><trkpt lat="37.7964856" lon="22.1722548"><ele>492.0</ele><time>2026-04-29T10:27:15.964Z</time></trkpt><trkpt lat="37.7964383" lon="22.1725114"><ele>492.33333333333337</ele><time>2026-04-29T10:27:16.964Z</time></trkpt><trkpt lat="37.7963874" lon="22.1727731"><ele>492.6666666666667</ele><time>2026-04-29T10:27:17.964Z</time></trkpt><trkpt lat="37.7963319" lon="22.1730277"><ele>493.0</ele><time>2026-04-29T10:27:18.964Z</time></trkpt><trkpt lat="37.7962653" lon="22.173269"><ele>494.33333333333337</ele><time>2026-04-29T10:27:19.965Z</time></trkpt><trkpt lat="37.7961824" lon="22.1734995"><ele>495.66666666666663</ele><time>2026-04-29T10:27:20.965Z</time></trkpt><trkpt lat="37.7960837" lon="22.1737197"><ele>497.0</ele><time>2026-04-29T10:27:21.965Z</time></trkpt><trkpt lat="37.7959902" lon="22.1739458"><ele>493.3333333333333</ele><time>2026-04-29T10:27:22.964Z</time></trkpt><trkpt lat="37.7958853" lon="22.1741603"><ele>489.66666666666663</ele><time>2026-04-29T10:27:23.965Z</time></trkpt><trkpt lat="37.7957852" lon="22.1743794"><ele>486.0</ele><time>2026-04-29T10:27:24.964Z</time></trkpt><trkpt lat="37.7956873" lon="22.1746035"><ele>486.0</ele><time>2026-04-29T10:27:25.965Z</time></trkpt><trkpt lat="37.7956052" lon="22.1748467"><ele>486.0</ele><time>2026-04-29T10:27:26.965Z</time></trkpt><trkpt lat="37.7955332" lon="22.1750921"><ele>486.0</ele><time>2026-04-29T10:27:27.964Z</time></trkpt><trkpt lat="37.7954733" lon="22.1753459"><ele>489.0</ele><time>2026-04-29T10:27:28.965Z</time></trkpt><trkpt lat="37.7954288" lon="22.17561"><ele>492.0</ele><time>2026-04-29T10:27:29.965Z</time></trkpt><trkpt lat="37.7953998" lon="22.1758812"><ele>495.0</ele><time>2026-04-29T10:27:30.964Z</time></trkpt><trkpt lat="37.7953932" lon="22.1761804"><ele>496.5</ele><time>2026-04-29T10:27:31.964Z</time></trkpt><trkpt lat="37.7953921" lon="22.1764708"><ele>498.0</ele><time>2026-04-29T10:27:32.964Z</time></trkpt><trkpt lat="37.7953961" lon="22.1767663"><ele>498.0</ele><time>2026-04-29T10:27:33.965Z</time></trkpt><trkpt lat="37.7954" lon="22.1770574"><ele>498.0</ele><time>2026-04-29T10:27:34.964Z</time></trkpt><trkpt lat="37.7954037" lon="22.1773435"><ele>497.66666666666663</ele><time>2026-04-29T10:27:35.965Z</time></trkpt><trkpt lat="37.7954063" lon="22.1776293"><ele>497.3333333333333</ele><time>2026-04-29T10:27:36.965Z</time></trkpt><trkpt lat="37.7954001" lon="22.177904"><ele>497.0</ele><time>2026-04-29T10:27:37.965Z</time></trkpt><trkpt lat="37.7953717" lon="22.1781714"><ele>497.3333333333333</ele><time>2026-04-29T10:27:38.965Z</time></trkpt><trkpt lat="37.79532" lon="22.1784263"><ele>497.66666666666663</ele><time>2026-04-29T10:27:39.964Z</time></trkpt><trkpt lat="37.7952428" lon="22.1786752"><ele>498.0</ele><time>2026-04-29T10:27:40.965Z</time></trkpt><trkpt lat="37.7951426" lon="22.1789164"><ele>496.0</ele><time>2026-04-29T10:27:41.965Z</time></trkpt><trkpt lat="37.7950321" lon="22.1791503"><ele>494.0</ele><time>2026-04-29T10:27:42.964Z</time></trkpt><trkpt lat="37.794922" lon="22.1793704"><ele>492.0</ele><time>2026-04-29T10:27:43.964Z</time></trkpt><trkpt lat="37.7948184" lon="22.1795829"><ele>492.0</ele><time>2026-04-29T10:27:44.965Z</time></trkpt><trkpt lat="37.7947226" lon="22.1797939"><ele>492.0</ele><time>2026-04-29T10:27:45.964Z</time></trkpt><trkpt lat="37.7946357" lon="22.1800165"><ele>492.0</ele><time>2026-04-29T10:27:46.964Z</time></trkpt><trkpt lat="37.7945575" lon="22.1802392"><ele>494.66666666666663</ele><time>2026-04-29T10:27:47.965Z</time></trkpt><trkpt lat="37.7944871" lon="22.1804599"><ele>497.3333333333333</ele><time>2026-04-29T10:27:48.965Z</time></trkpt><trkpt lat="37.7944178" lon="22.1806786"><ele>500.0</ele><time>2026-04-29T10:27:49.965Z</time></trkpt><trkpt lat="37.7943465" lon="22.1808943"><ele>498.3333333333333</ele><time>2026-04-29T10:27:50.965Z</time></trkpt><trkpt lat="37.7942812" lon="22.1811137"><ele>496.66666666666663</ele><time>2026-04-29T10:27:51.965Z</time></trkpt><trkpt lat="37.7942175" lon="22.1813343"><ele>495.0</ele><time>2026-04-29T10:27:52.965Z</time></trkpt><trkpt lat="37.7941521" lon="22.1815511"><ele>495.0</ele><time>2026-04-29T10:27:53.965Z</time></trkpt><trkpt lat="37.794081" lon="22.1817565"><ele>495.0</ele><time>2026-04-29T10:27:54.965Z</time></trkpt><trkpt lat="37.7940113" lon="22.1819651"><ele>495.0</ele><time>2026-04-29T10:27:55.965Z</time></trkpt><trkpt lat="37.7939464" lon="22.1821735"><ele>496.33333333333337</ele><time>2026-04-29T10:27:56.964Z</time></trkpt><trkpt lat="37.7938805" lon="22.1823855"><ele>497.6666666666667</ele><time>2026-04-29T10:27:57.965Z</time></trkpt><trkpt lat="37.7938105" lon="22.1826029"><ele>499.0</ele><time>2026-04-29T10:27:58.964Z</time></trkpt><trkpt lat="37.793732" lon="22.1828196"><ele>499.0</ele><time>2026-04-29T10:27:59.965Z</time></trkpt><trkpt lat="37.7936458" lon="22.1830276"><ele>499.0</ele><time>2026-04-29T10:28:00.964Z</time></trkpt><trkpt lat="37.7935454" lon="22.1832369"><ele>499.0</ele><time>2026-04-29T10:28:01.964Z</time></trkpt><trkpt lat="37.7934446" lon="22.1834547"><ele>498.0</ele><time>2026-04-29T10:28:02.964Z</time></trkpt><trkpt lat="37.7933317" lon="22.1836601"><ele>497.0</ele><time>2026-04-29T10:28:03.965Z</time></trkpt><trkpt lat="37.793207" lon="22.1838622"><ele>496.0</ele><time>2026-04-29T10:28:04.964Z</time></trkpt><trkpt lat="37.7930775" lon="22.1840586"><ele>496.0</ele><time>2026-04-29T10:28:05.965Z</time></trkpt><trkpt lat="37.7929399" lon="22.184247"><ele>496.0</ele><time>2026-04-29T10:28:06.965Z</time></trkpt><trkpt lat="37.7927949" lon="22.1844318"><ele>496.0</ele><time>2026-04-29T10:28:07.964Z</time></trkpt><trkpt lat="37.792649" lon="22.1846037"><ele>495.33333333333337</ele><time>2026-04-29T10:28:08.965Z</time></trkpt><trkpt lat="37.7925102" lon="22.1847723"><ele>494.66666666666663</ele><time>2026-04-29T10:28:09.965Z</time></trkpt><trkpt lat="37.7923784" lon="22.1849477"><ele>494.0</ele><time>2026-04-29T10:28:10.964Z</time></trkpt><trkpt lat="37.7922589" lon="22.185124"><ele>494.0</ele><time>2026-04-29T10:28:11.964Z</time></trkpt><trkpt lat="37.7921728" lon="22.1853129"><ele>494.0</ele><time>2026-04-29T10:28:12.964Z</time></trkpt><trkpt lat="37.7921174" lon="22.1855286"><ele>494.0</ele><time>2026-04-29T10:28:13.964Z</time></trkpt><trkpt lat="37.7920872" lon="22.1857645"><ele>496.66666666666663</ele><time>2026-04-29T10:28:14.964Z</time></trkpt><trkpt lat="37.7920678" lon="22.186021"><ele>499.33333333333337</ele><time>2026-04-29T10:28:15.964Z</time></trkpt><trkpt lat="37.7920612" lon="22.1863027"><ele>502.0</ele><time>2026-04-29T10:28:16.965Z</time></trkpt><trkpt lat="37.7920531" lon="22.1865832"><ele>502.33333333333337</ele><time>2026-04-29T10:28:17.964Z</time></trkpt><trkpt lat="37.7920487" lon="22.1868651"><ele>502.66666666666663</ele><time>2026-04-29T10:28:18.964Z</time></trkpt><trkpt lat="37.7920452" lon="22.1871446"><ele>503.0</ele><time>2026-04-29T10:28:19.965Z</time></trkpt><trkpt lat="37.7920381" lon="22.1874138"><ele>503.0</ele><time>2026-04-29T10:28:20.964Z</time></trkpt><trkpt lat="37.7920167" lon="22.1876679"><ele>503.0</ele><time>2026-04-29T10:28:21.965Z</time></trkpt><trkpt lat="37.7919806" lon="22.1878992"><ele>503.0</ele><time>2026-04-29T10:28:22.964Z</time></trkpt><trkpt lat="37.7919163" lon="22.1881254"><ele>500.3333333333333</ele><time>2026-04-29T10:28:23.964Z</time></trkpt><trkpt lat="37.7918037" lon="22.1883321"><ele>497.66666666666663</ele><time>2026-04-29T10:28:24.965Z</time></trkpt><trkpt lat="37.7916687" lon="22.1885404"><ele>495.0</ele><time>2026-04-29T10:28:25.964Z</time></trkpt><trkpt lat="37.7915255" lon="22.1887411"><ele>495.0</ele><time>2026-04-29T10:28:26.965Z</time></trkpt><trkpt lat="37.7913883" lon="22.1889388"><ele>495.0</ele><time>2026-04-29T10:28:27.965Z</time></trkpt><trkpt lat="37.7912767" lon="22.189165"><ele>495.0</ele><time>2026-04-29T10:28:28.965Z</time></trkpt><trkpt lat="37.791185" lon="22.1894156"><ele>496.0</ele><time>2026-04-29T10:28:29.964Z</time></trkpt><trkpt lat="37.7911121" lon="22.1896878"><ele>497.0</ele><time>2026-04-29T10:28:30.964Z</time></trkpt><trkpt lat="37.791074" lon="22.1899773"><ele>496.3333333333333</ele><time>2026-04-29T10:28:31.964Z</time></trkpt><trkpt lat="37.7910134" lon="22.1902373"><ele>495.66666666666663</ele><time>2026-04-29T10:28:32.965Z</time></trkpt><trkpt lat="37.7909403" lon="22.1904739"><ele>495.0</ele><time>2026-04-29T10:28:33.964Z</time></trkpt><trkpt lat="37.7908389" lon="22.1907097"><ele>495.0</ele><time>2026-04-29T10:28:34.965Z</time></trkpt><trkpt lat="37.7907219" lon="22.1909259"><ele>495.0</ele><time>2026-04-29T10:28:35.964Z</time></trkpt><trkpt lat="37.7905813" lon="22.1911213"><ele>495.0</ele><time>2026-04-29T10:28:36.965Z</time></trkpt><trkpt lat="37.790437" lon="22.1913012"><ele>495.0</ele><time>2026-04-29T10:28:37.965Z</time></trkpt><trkpt lat="37.7902953" lon="22.1914688"><ele>495.0</ele><time>2026-04-29T10:28:38.965Z</time></trkpt><trkpt lat="37.7901581" lon="22.1916456"><ele>495.0</ele><time>2026-04-29T10:28:39.965Z</time></trkpt><trkpt lat="37.7900588" lon="22.191839"><ele>495.0</ele><time>2026-04-29T10:28:40.965Z</time></trkpt><trkpt lat="37.7899966" lon="22.1920435"><ele>495.0</ele><time>2026-04-29T10:28:41.965Z</time></trkpt><trkpt lat="37.7899747" lon="22.1922518"><ele>495.0</ele><time>2026-04-29T10:28:42.965Z</time></trkpt><trkpt lat="37.7899744" lon="22.1924772"><ele>496.33333333333337</ele><time>2026-04-29T10:28:43.964Z</time></trkpt><trkpt lat="37.7900345" lon="22.1927271"><ele>497.6666666666667</ele><time>2026-04-29T10:28:44.964Z</time></trkpt><trkpt lat="37.7900885" lon="22.1929754"><ele>499.0</ele><time>2026-04-29T10:28:45.964Z</time></trkpt><trkpt lat="37.7901427" lon="22.1932139"><ele>501.0</ele><time>2026-04-29T10:28:46.964Z</time></trkpt><trkpt lat="37.7902019" lon="22.1934534"><ele>503.0</ele><time>2026-04-29T10:28:47.964Z</time></trkpt><trkpt lat="37.7902539" lon="22.1936887"><ele>505.0</ele><time>2026-04-29T10:28:48.965Z</time></trkpt><trkpt lat="37.7903056" lon="22.1939171"><ele>505.33333333333337</ele><time>2026-04-29T10:28:49.965Z</time></trkpt><trkpt lat="37.7903588" lon="22.1941536"><ele>505.66666666666663</ele><time>2026-04-29T10:28:50.965Z</time></trkpt><trkpt lat="37.7904113" lon="22.1943917"><ele>506.0</ele><time>2026-04-29T10:28:51.964Z</time></trkpt><trkpt lat="37.7904673" lon="22.1946275"><ele>506.0</ele><time>2026-04-29T10:28:52.964Z</time></trkpt><trkpt lat="37.7905294" lon="22.1948671"><ele>506.0</ele><time>2026-04-29T10:28:53.965Z</time></trkpt><trkpt lat="37.7905826" lon="22.1951049"><ele>506.0</ele><time>2026-04-29T10:28:54.964Z</time></trkpt><trkpt lat="37.7906344" lon="22.195339"><ele>506.0</ele><time>2026-04-29T10:28:55.965Z</time></trkpt><trkpt lat="37.790682" lon="22.1955692"><ele>506.0</ele><time>2026-04-29T10:28:56.964Z</time></trkpt><trkpt lat="37.7907198" lon="22.1957908"><ele>506.0</ele><time>2026-04-29T10:28:57.964Z</time></trkpt><trkpt lat="37.7907451" lon="22.1960022"><ele>506.66666666666663</ele><time>2026-04-29T10:28:58.964Z</time></trkpt><trkpt lat="37.7907649" lon="22.1962149"><ele>507.33333333333337</ele><time>2026-04-29T10:28:59.965Z</time></trkpt><trkpt lat="37.7907737" lon="22.1964219"><ele>508.0</ele><time>2026-04-29T10:29:00.965Z</time></trkpt><trkpt lat="37.7907696" lon="22.1966313"><ele>508.0</ele><time>2026-04-29T10:29:01.964Z</time></trkpt><trkpt lat="37.7907572" lon="22.1968502"><ele>508.0</ele><time>2026-04-29T10:29:02.964Z</time></trkpt><trkpt lat="37.7907354" lon="22.1970635"><ele>508.0</ele><time>2026-04-29T10:29:03.964Z</time></trkpt><trkpt lat="37.7907259" lon="22.1972839"><ele>508.0</ele><time>2026-04-29T10:29:04.965Z</time></trkpt><trkpt lat="37.7907074" lon="22.1975062"><ele>508.0</ele><time>2026-04-29T10:29:05.965Z</time></trkpt><trkpt lat="37.7906844" lon="22.1977271"><ele>508.0</ele><time>2026-04-29T10:29:06.965Z</time></trkpt><trkpt lat="37.7906598" lon="22.1979473"><ele>508.6666666666667</ele><time>2026-04-29T10:29:07.965Z</time></trkpt><trkpt lat="37.7906381" lon="22.198173"><ele>509.33333333333337</ele><time>2026-04-29T10:29:08.964Z</time></trkpt><trkpt lat="37.7906163" lon="22.1984063"><ele>510.0</ele><time>2026-04-29T10:29:09.964Z</time></trkpt><trkpt lat="37.7905919" lon="22.198643"><ele>510.0</ele><time>2026-04-29T10:29:10.964Z</time></trkpt><trkpt lat="37.7905715" lon="22.1988893"><ele>510.0</ele><time>2026-04-29T10:29:11.964Z</time></trkpt><trkpt lat="37.7905662" lon="22.1991472"><ele>510.0</ele><time>2026-04-29T10:29:12.965Z</time></trkpt><trkpt lat="37.7905479" lon="22.1994016"><ele>510.0</ele><time>2026-04-29T10:29:13.965Z</time></trkpt><trkpt lat="37.7905254" lon="22.1996614"><ele>510.0</ele><time>2026-04-29T10:29:14.964Z</time></trkpt><trkpt lat="37.7905003" lon="22.1999252"><ele>510.0</ele><time>2026-04-29T10:29:15.964Z</time></trkpt><trkpt lat="37.7904751" lon="22.2001829"><ele>510.0</ele><time>2026-04-29T10:29:16.964Z</time></trkpt><trkpt lat="37.7904516" lon="22.2004441"><ele>510.0</ele><time>2026-04-29T10:29:17.965Z</time></trkpt><trkpt lat="37.7904309" lon="22.2007076"><ele>510.0</ele><time>2026-04-29T10:29:18.965Z</time></trkpt><trkpt lat="37.790405" lon="22.2009615"><ele>509.66666666666663</ele><time>2026-04-29T10:29:19.965Z</time></trkpt><trkpt lat="37.790379" lon="22.20122"><ele>509.3333333333333</ele><time>2026-04-29T10:29:20.965Z</time></trkpt><trkpt lat="37.7903562" lon="22.2014834"><ele>509.0</ele><time>2026-04-29T10:29:21.964Z</time></trkpt><trkpt lat="37.7903325" lon="22.201745"><ele>509.0</ele><time>2026-04-29T10:29:22.965Z</time></trkpt><trkpt lat="37.7903064" lon="22.2020062"><ele>509.0</ele><time>2026-04-29T10:29:23.965Z</time></trkpt><trkpt lat="37.7902883" lon="22.2022531"><ele>509.0</ele><time>2026-04-29T10:29:24.965Z</time></trkpt><trkpt lat="37.790282" lon="22.2025025"><ele>509.3333333333333</ele><time>2026-04-29T10:29:25.964Z</time></trkpt><trkpt lat="37.7902896" lon="22.2027476"><ele>509.66666666666663</ele><time>2026-04-29T10:29:26.965Z</time></trkpt><trkpt lat="37.7903235" lon="22.2029908"><ele>510.0</ele><time>2026-04-29T10:29:27.965Z</time></trkpt><trkpt lat="37.7903948" lon="22.20323"><ele>510.0</ele><time>2026-04-29T10:29:28.964Z</time></trkpt><trkpt lat="37.7904845" lon="22.2034517"><ele>510.0</ele><time>2026-04-29T10:29:29.965Z</time></trkpt><trkpt lat="37.7905917" lon="22.2036689"><ele>510.0</ele><time>2026-04-29T10:29:30.964Z</time></trkpt><trkpt lat="37.7907209" lon="22.2038954"><ele>507.5</ele><time>2026-04-29T10:29:31.964Z</time></trkpt><trkpt lat="37.7908549" lon="22.2041185"><ele>505.0</ele><time>2026-04-29T10:29:32.965Z</time></trkpt><trkpt lat="37.7909982" lon="22.2043524"><ele>513.0</ele><time>2026-04-29T10:29:33.964Z</time></trkpt><trkpt lat="37.7911369" lon="22.2045812"><ele>521.0</ele><time>2026-04-29T10:29:34.964Z</time></trkpt><trkpt lat="37.7912745" lon="22.2048127"><ele>515.0</ele><time>2026-04-29T10:29:35.965Z</time></trkpt><trkpt lat="37.7914101" lon="22.2050409"><ele>509.0</ele><time>2026-04-29T10:29:36.964Z</time></trkpt><trkpt lat="37.7915579" lon="22.2052781"><ele>509.0</ele><time>2026-04-29T10:29:37.965Z</time></trkpt><trkpt lat="37.7916949" lon="22.2055221"><ele>509.0</ele><time>2026-04-29T10:29:38.965Z</time></trkpt><trkpt lat="37.7918299" lon="22.2057709"><ele>515.0</ele><time>2026-04-29T10:29:39.965Z</time></trkpt><trkpt lat="37.7919623" lon="22.2060307"><ele>521.0</ele><time>2026-04-29T10:29:40.964Z</time></trkpt><trkpt lat="37.7920904" lon="22.2062986"><ele>515.5</ele><time>2026-04-29T10:29:41.964Z</time></trkpt><trkpt lat="37.7922159" lon="22.2065695"><ele>510.0</ele><time>2026-04-29T10:29:42.965Z</time></trkpt><trkpt lat="37.7923308" lon="22.2068251"><ele>510.0</ele><time>2026-04-29T10:29:43.965Z</time></trkpt><trkpt lat="37.7924386" lon="22.2070733"><ele>510.0</ele><time>2026-04-29T10:29:44.964Z</time></trkpt><trkpt lat="37.7925138" lon="22.2073206"><ele>510.0</ele><time>2026-04-29T10:29:45.965Z</time></trkpt><trkpt lat="37.7925548" lon="22.2075735"><ele>506.66666666666663</ele><time>2026-04-29T10:29:46.965Z</time></trkpt><trkpt lat="37.7925501" lon="22.207822"><ele>503.3333333333333</ele><time>2026-04-29T10:29:47.965Z</time></trkpt><trkpt lat="37.7925065" lon="22.2080548"><ele>500.0</ele><time>2026-04-29T10:29:48.965Z</time></trkpt><trkpt lat="37.7924328" lon="22.2082925"><ele>500.0</ele><time>2026-04-29T10:29:49.964Z</time></trkpt><trkpt lat="37.7923472" lon="22.208546"><ele>500.0</ele><time>2026-04-29T10:29:50.965Z</time></trkpt><trkpt lat="37.792269" lon="22.2088056"><ele>500.0</ele><time>2026-04-29T10:29:51.965Z</time></trkpt><trkpt lat="37.7921706" lon="22.2090664"><ele>499.5</ele><time>2026-04-29T10:29:52.965Z</time></trkpt><trkpt lat="37.7920737" lon="22.2093355"><ele>499.0</ele><time>2026-04-29T10:29:53.965Z</time></trkpt><trkpt lat="37.7919719" lon="22.2096061"><ele>499.0</ele><time>2026-04-29T10:29:54.965Z</time></trkpt><trkpt lat="37.7918697" lon="22.2098783"><ele>499.0</ele><time>2026-04-29T10:29:55.965Z</time></trkpt><trkpt lat="37.7917711" lon="22.2101558"><ele>499.5</ele><time>2026-04-29T10:29:56.965Z</time></trkpt><trkpt lat="37.7916663" lon="22.2104442"><ele>500.0</ele><time>2026-04-29T10:29:57.965Z</time></trkpt><trkpt lat="37.7915657" lon="22.2107297"><ele>500.0</ele><time>2026-04-29T10:29:58.964Z</time></trkpt><trkpt lat="37.7914604" lon="22.2110147"><ele>500.0</ele><time>2026-04-29T10:29:59.965Z</time></trkpt><trkpt lat="37.7913546" lon="22.2112958"><ele>500.0</ele><time>2026-04-29T10:30:00.965Z</time></trkpt><trkpt lat="37.7912591" lon="22.2115851"><ele>500.0</ele><time>2026-04-29T10:30:01.965Z</time></trkpt><trkpt lat="37.7911582" lon="22.2118666"><ele>500.0</ele><time>2026-04-29T10:30:02.965Z</time></trkpt><trkpt lat="37.7910566" lon="22.2121444"><ele>500.0</ele><time>2026-04-29T10:30:03.965Z</time></trkpt><trkpt lat="37.7909548" lon="22.2124234"><ele>500.0</ele><time>2026-04-29T10:30:04.964Z</time></trkpt><trkpt lat="37.7908556" lon="22.2126988"><ele>500.0</ele><time>2026-04-29T10:30:05.965Z</time></trkpt><trkpt lat="37.7907617" lon="22.2129672"><ele>500.66666666666663</ele><time>2026-04-29T10:30:06.964Z</time></trkpt><trkpt lat="37.7906686" lon="22.2132199"><ele>501.33333333333337</ele><time>2026-04-29T10:30:07.964Z</time></trkpt><trkpt lat="37.7905781" lon="22.2134564"><ele>502.0</ele><time>2026-04-29T10:30:08.965Z</time></trkpt><trkpt lat="37.7904723" lon="22.2136817"><ele>502.0</ele><time>2026-04-29T10:30:09.964Z</time></trkpt><trkpt lat="37.7903506" lon="22.2138799"><ele>502.0</ele><time>2026-04-29T10:30:10.965Z</time></trkpt><trkpt lat="37.7902163" lon="22.2140622"><ele>502.0</ele><time>2026-04-29T10:30:11.964Z</time></trkpt><trkpt lat="37.7900626" lon="22.2142084"><ele>503.0</ele><time>2026-04-29T10:30:12.965Z</time></trkpt><trkpt lat="37.7898941" lon="22.2143278"><ele>504.0</ele><time>2026-04-29T10:30:13.965Z</time></trkpt><trkpt lat="37.7897162" lon="22.2144416"><ele>505.0</ele><time>2026-04-29T10:30:14.965Z</time></trkpt><trkpt lat="37.7895388" lon="22.2145725"><ele>505.0</ele><time>2026-04-29T10:30:15.965Z</time></trkpt><trkpt lat="37.7893636" lon="22.2147028"><ele>505.0</ele><time>2026-04-29T10:30:16.965Z</time></trkpt><trkpt lat="37.7891907" lon="22.2148423"><ele>505.0</ele><time>2026-04-29T10:30:17.965Z</time></trkpt><trkpt lat="37.7890328" lon="22.2150062"><ele>505.6666666666667</ele><time>2026-04-29T10:30:18.964Z</time></trkpt><trkpt lat="37.7888835" lon="22.2151769"><ele>506.33333333333337</ele><time>2026-04-29T10:30:19.964Z</time></trkpt><trkpt lat="37.7887427" lon="22.2153668"><ele>507.0</ele><time>2026-04-29T10:30:20.965Z</time></trkpt><trkpt lat="37.7885988" lon="22.2155595"><ele>506.66666666666663</ele><time>2026-04-29T10:30:21.964Z</time></trkpt><trkpt lat="37.7884556" lon="22.2157523"><ele>506.3333333333333</ele><time>2026-04-29T10:30:22.964Z</time></trkpt><trkpt lat="37.7883166" lon="22.2159659"><ele>506.0</ele><time>2026-04-29T10:30:23.965Z</time></trkpt><trkpt lat="37.7881753" lon="22.2161272"><ele>506.0</ele><time>2026-04-29T10:30:24.964Z</time></trkpt><trkpt lat="37.7880462" lon="22.2162921"><ele>506.0</ele><time>2026-04-29T10:30:25.965Z</time></trkpt><trkpt lat="37.78792" lon="22.2164274"><ele>506.0</ele><time>2026-04-29T10:30:26.965Z</time></trkpt><trkpt lat="37.7877772" lon="22.2165814"><ele>507.5</ele><time>2026-04-29T10:30:27.965Z</time></trkpt><trkpt lat="37.7876052" lon="22.2167673"><ele>509.0</ele><time>2026-04-29T10:30:28.964Z</time></trkpt><trkpt lat="37.7874113" lon="22.2169707"><ele>509.0</ele><time>2026-04-29T10:30:29.965Z</time></trkpt><trkpt lat="37.7872167" lon="22.2172064"><ele>509.0</ele><time>2026-04-29T10:30:30.964Z</time></trkpt><trkpt lat="37.7869814" lon="22.2174853"><ele>508.0</ele><time>2026-04-29T10:30:31.964Z</time></trkpt><trkpt lat="37.7867511" lon="22.2177709"><ele>507.0</ele><time>2026-04-29T10:30:32.965Z</time></trkpt><trkpt lat="37.7865202" lon="22.2180667"><ele>509.5</ele><time>2026-04-29T10:30:33.965Z</time></trkpt><trkpt lat="37.7863063" lon="22.2183362"><ele>512.0</ele><time>2026-04-29T10:30:34.965Z</time></trkpt><trkpt lat="37.7860963" lon="22.2185853"><ele>511.0</ele><time>2026-04-29T10:30:35.964Z</time></trkpt><trkpt lat="37.7858887" lon="22.2187982"><ele>510.0</ele><time>2026-04-29T10:30:36.965Z</time></trkpt><trkpt lat="37.7856598" lon="22.2190141"><ele>510.0</ele><time>2026-04-29T10:30:37.965Z</time></trkpt><trkpt lat="37.7854111" lon="22.2192086"><ele>510.0</ele><time>2026-04-29T10:30:38.965Z</time></trkpt><trkpt lat="37.7851565" lon="22.2194026"><ele>508.0</ele><time>2026-04-29T10:30:39.965Z</time></trkpt><trkpt lat="37.7849231" lon="22.2196005"><ele>506.0</ele><time>2026-04-29T10:30:40.965Z</time></trkpt><trkpt lat="37.7846976" lon="22.2197681"><ele>506.0</ele><time>2026-04-29T10:30:41.964Z</time></trkpt><trkpt lat="37.7844778" lon="22.2199295"><ele>506.0</ele><time>2026-04-29T10:30:42.964Z</time></trkpt><trkpt lat="37.7842686" lon="22.2200591"><ele>506.0</ele><time>2026-04-29T10:30:43.965Z</time></trkpt><trkpt lat="37.7840609" lon="22.2201508"><ele>506.0</ele><time>2026-04-29T10:30:44.965Z</time></trkpt><trkpt lat="37.78384" lon="22.2201999"><ele>506.0</ele><time>2026-04-29T10:30:45.965Z</time></trkpt><trkpt lat="37.7835953" lon="22.2201983"><ele>505.5</ele><time>2026-04-29T10:30:46.965Z</time></trkpt><trkpt lat="37.7833225" lon="22.220175"><ele>505.0</ele><time>2026-04-29T10:30:47.965Z</time></trkpt><trkpt lat="37.7830635" lon="22.2201575"><ele>505.0</ele><time>2026-04-29T10:30:48.965Z</time></trkpt><trkpt lat="37.7828168" lon="22.2201547"><ele>505.0</ele><time>2026-04-29T10:30:49.964Z</time></trkpt><trkpt lat="37.7825692" lon="22.2201707"><ele>505.0</ele><time>2026-04-29T10:30:50.964Z</time></trkpt><trkpt lat="37.7823084" lon="22.2202138"><ele>505.0</ele><time>2026-04-29T10:30:51.965Z</time></trkpt><trkpt lat="37.782039" lon="22.2202878"><ele>505.0</ele><time>2026-04-29T10:30:52.965Z</time></trkpt><trkpt lat="37.7817497" lon="22.2203775"><ele>505.0</ele><time>2026-04-29T10:30:53.965Z</time></trkpt><trkpt lat="37.7814596" lon="22.2204826"><ele>505.0</ele><time>2026-04-29T10:30:54.965Z</time></trkpt><trkpt lat="37.7811589" lon="22.2205834"><ele>505.0</ele><time>2026-04-29T10:30:55.965Z</time></trkpt><trkpt lat="37.78087" lon="22.2206837"><ele>504.0</ele><time>2026-04-29T10:30:56.964Z</time></trkpt><trkpt lat="37.780604" lon="22.220779"><ele>503.0</ele><time>2026-04-29T10:30:57.964Z</time></trkpt><trkpt lat="37.7803614" lon="22.2208628"><ele>504.0</ele><time>2026-04-29T10:30:58.964Z</time></trkpt><trkpt lat="37.7801369" lon="22.2209495"><ele>505.0</ele><time>2026-04-29T10:30:59.964Z</time></trkpt><trkpt lat="37.7799268" lon="22.2210373"><ele>505.0</ele><time>2026-04-29T10:31:00.965Z</time></trkpt><trkpt lat="37.7797219" lon="22.221104"><ele>505.0</ele><time>2026-04-29T10:31:01.965Z</time></trkpt><trkpt lat="37.7795165" lon="22.2211422"><ele>505.0</ele><time>2026-04-29T10:31:02.965Z</time></trkpt><trkpt lat="37.7793154" lon="22.2211551"><ele>505.33333333333337</ele><time>2026-04-29T10:31:03.965Z</time></trkpt><trkpt lat="37.7791071" lon="22.2211459"><ele>505.66666666666663</ele><time>2026-04-29T10:31:04.964Z</time></trkpt><trkpt lat="37.7788987" lon="22.2211375"><ele>506.0</ele><time>2026-04-29T10:31:05.965Z</time></trkpt><trkpt lat="37.7787012" lon="22.2211141"><ele>505.66666666666663</ele><time>2026-04-29T10:31:06.964Z</time></trkpt><trkpt lat="37.7785172" lon="22.2210798"><ele>505.33333333333337</ele><time>2026-04-29T10:31:07.965Z</time></trkpt><trkpt lat="37.7783372" lon="22.2210491"><ele>505.0</ele><time>2026-04-29T10:31:08.965Z</time></trkpt><trkpt lat="37.7781578" lon="22.2210268"><ele>505.0</ele><time>2026-04-29T10:31:09.964Z</time></trkpt><trkpt lat="37.7779779" lon="22.2210037"><ele>505.0</ele><time>2026-04-29T10:31:10.965Z</time></trkpt><trkpt lat="37.7777976" lon="22.2209886"><ele>505.0</ele><time>2026-04-29T10:31:11.964Z</time></trkpt><trkpt lat="37.7776193" lon="22.220981"><ele>505.6666666666667</ele><time>2026-04-29T10:31:12.965Z</time></trkpt><trkpt lat="37.7774378" lon="22.2209877"><ele>506.33333333333337</ele><time>2026-04-29T10:31:13.964Z</time></trkpt><trkpt lat="37.7772547" lon="22.2210052"><ele>507.0</ele><time>2026-04-29T10:31:14.965Z</time></trkpt><trkpt lat="37.7770784" lon="22.2210141"><ele>507.0</ele><time>2026-04-29T10:31:15.965Z</time></trkpt><trkpt lat="37.7769003" lon="22.2210269"><ele>507.0</ele><time>2026-04-29T10:31:16.964Z</time></trkpt><trkpt lat="37.7767237" lon="22.2210482"><ele>507.0</ele><time>2026-04-29T10:31:17.965Z</time></trkpt><trkpt lat="37.7765482" lon="22.2210756"><ele>507.66666666666663</ele><time>2026-04-29T10:31:18.965Z</time></trkpt><trkpt lat="37.7763927" lon="22.2211415"><ele>508.3333333333333</ele><time>2026-04-29T10:31:19.965Z</time></trkpt><trkpt lat="37.7762209" lon="22.221191"><ele>509.0</ele><time>2026-04-29T10:31:20.965Z</time></trkpt><trkpt lat="37.7760541" lon="22.2212615"><ele>509.0</ele><time>2026-04-29T10:31:21.964Z</time></trkpt><trkpt lat="37.7758749" lon="22.2213335"><ele>509.0</ele><time>2026-04-29T10:31:22.965Z</time></trkpt><trkpt lat="37.7756792" lon="22.2214392"><ele>509.0</ele><time>2026-04-29T10:31:23.965Z</time></trkpt><trkpt lat="37.7754547" lon="22.2215581"><ele>509.5</ele><time>2026-04-29T10:31:24.964Z</time></trkpt><trkpt lat="37.7752003" lon="22.2216648"><ele>510.0</ele><time>2026-04-29T10:31:25.964Z</time></trkpt><trkpt lat="37.7749184" lon="22.221799"><ele>510.0</ele><time>2026-04-29T10:31:26.964Z</time></trkpt><trkpt lat="37.7746493" lon="22.2219289"><ele>510.0</ele><time>2026-04-29T10:31:27.965Z</time></trkpt><trkpt lat="37.7743878" lon="22.2220593"><ele>509.0</ele><time>2026-04-29T10:31:28.964Z</time></trkpt><trkpt lat="37.774144" lon="22.2221839"><ele>508.0</ele><time>2026-04-29T10:31:29.964Z</time></trkpt><trkpt lat="37.7739233" lon="22.2222935"><ele>509.6666666666667</ele><time>2026-04-29T10:31:30.964Z</time></trkpt><trkpt lat="37.7737167" lon="22.2223916"><ele>511.33333333333337</ele><time>2026-04-29T10:31:31.965Z</time></trkpt><trkpt lat="37.7734982" lon="22.2224323"><ele>513.0</ele><time>2026-04-29T10:31:32.965Z</time></trkpt><trkpt lat="37.7732612" lon="22.2224168"><ele>515.0</ele><time>2026-04-29T10:31:33.965Z</time></trkpt><trkpt lat="37.7730148" lon="22.222335"><ele>517.0</ele><time>2026-04-29T10:31:34.965Z</time></trkpt><trkpt lat="37.7727799" lon="22.2222385"><ele>513.5</ele><time>2026-04-29T10:31:35.965Z</time></trkpt><trkpt lat="37.772562" lon="22.2221115"><ele>510.0</ele><time>2026-04-29T10:31:36.964Z</time></trkpt><trkpt lat="37.7723532" lon="22.2219705"><ele>510.0</ele><time>2026-04-29T10:31:37.965Z</time></trkpt><trkpt lat="37.7721606" lon="22.2218657"><ele>510.0</ele><time>2026-04-29T10:31:38.965Z</time></trkpt><trkpt lat="37.7719718" lon="22.2217807"><ele>510.0</ele><time>2026-04-29T10:31:39.965Z</time></trkpt><trkpt lat="37.7717886" lon="22.2217133"><ele>511.0</ele><time>2026-04-29T10:31:40.965Z</time></trkpt><trkpt lat="37.771597" lon="22.2216614"><ele>512.0</ele><time>2026-04-29T10:31:41.965Z</time></trkpt><trkpt lat="37.7713875" lon="22.2216348"><ele>513.0</ele><time>2026-04-29T10:31:42.965Z</time></trkpt><trkpt lat="37.7711569" lon="22.2216261"><ele>513.0</ele><time>2026-04-29T10:31:43.964Z</time></trkpt><trkpt lat="37.7708968" lon="22.2216358"><ele>513.0</ele><time>2026-04-29T10:31:44.965Z</time></trkpt><trkpt lat="37.7706389" lon="22.221656"><ele>513.0</ele><time>2026-04-29T10:31:45.965Z</time></trkpt><trkpt lat="37.7703923" lon="22.2216642"><ele>513.0</ele><time>2026-04-29T10:31:46.964Z</time></trkpt><trkpt lat="37.7701454" lon="22.2216623"><ele>513.6666666666666</ele><time>2026-04-29T10:31:47.965Z</time></trkpt><trkpt lat="37.7699218" lon="22.2216682"><ele>514.3333333333333</ele><time>2026-04-29T10:31:48.964Z</time></trkpt><trkpt lat="37.769701" lon="22.221673"><ele>515.0</ele><time>2026-04-29T10:31:49.965Z</time></trkpt><trkpt lat="37.7694841" lon="22.2216788"><ele>515.3333333333333</ele><time>2026-04-29T10:31:50.964Z</time></trkpt><trkpt lat="37.7692864" lon="22.2216777"><ele>515.6666666666666</ele><time>2026-04-29T10:31:51.964Z</time></trkpt><trkpt lat="37.7690798" lon="22.2216861"><ele>516.0</ele><time>2026-04-29T10:31:52.964Z</time></trkpt><trkpt lat="37.7688652" lon="22.2216902"><ele>516.0</ele><time>2026-04-29T10:31:53.965Z</time></trkpt><trkpt lat="37.7686675" lon="22.221695"><ele>516.0</ele><time>2026-04-29T10:31:54.965Z</time></trkpt><trkpt lat="37.7684784" lon="22.2217064"><ele>516.0</ele><time>2026-04-29T10:31:55.964Z</time></trkpt><trkpt lat="37.7682834" lon="22.2217105"><ele>517.0</ele><time>2026-04-29T10:31:56.965Z</time></trkpt><trkpt lat="37.768093" lon="22.2217119"><ele>518.0</ele><time>2026-04-29T10:31:57.965Z</time></trkpt><trkpt lat="37.7679072" lon="22.2217219"><ele>519.0</ele><time>2026-04-29T10:31:58.965Z</time></trkpt><trkpt lat="37.7677247" lon="22.2217262"><ele>521.6666666666666</ele><time>2026-04-29T10:31:59.964Z</time></trkpt><trkpt lat="37.7675296" lon="22.2217304"><ele>524.3333333333333</ele><time>2026-04-29T10:32:00.964Z</time></trkpt><trkpt lat="37.7673307" lon="22.2217477"><ele>527.0</ele><time>2026-04-29T10:32:01.964Z</time></trkpt><trkpt lat="37.7671291" lon="22.2217754"><ele>527.0</ele><time>2026-04-29T10:32:02.965Z</time></trkpt><trkpt lat="37.7669275" lon="22.2218132"><ele>527.0</ele><time>2026-04-29T10:32:03.964Z</time></trkpt><trkpt lat="37.7667217" lon="22.2218596"><ele>527.0</ele><time>2026-04-29T10:32:04.964Z</time></trkpt><trkpt lat="37.7665181" lon="22.2219047"><ele>527.6666666666666</ele><time>2026-04-29T10:32:05.964Z</time></trkpt><trkpt lat="37.7663126" lon="22.2219412"><ele>528.3333333333334</ele><time>2026-04-29T10:32:06.965Z</time></trkpt><trkpt lat="37.7661087" lon="22.2219882"><ele>529.0</ele><time>2026-04-29T10:32:07.964Z</time></trkpt><trkpt lat="37.7659129" lon="22.2220407"><ele>531.0</ele><time>2026-04-29T10:32:08.965Z</time></trkpt><trkpt lat="37.765707" lon="22.2220898"><ele>533.0</ele><time>2026-04-29T10:32:09.965Z</time></trkpt><trkpt lat="37.7655037" lon="22.2221391"><ele>535.0</ele><time>2026-04-29T10:32:10.964Z</time></trkpt><trkpt lat="37.7652942" lon="22.2221835"><ele>534.6666666666667</ele><time>2026-04-29T10:32:11.964Z</time></trkpt><trkpt lat="37.7650933" lon="22.2222337"><ele>534.3333333333334</ele><time>2026-04-29T10:32:12.965Z</time></trkpt><trkpt lat="37.7648933" lon="22.2222792"><ele>534.0</ele><time>2026-04-29T10:32:13.965Z</time></trkpt><trkpt lat="37.764684" lon="22.2223205"><ele>535.6666666666666</ele><time>2026-04-29T10:32:14.964Z</time></trkpt><trkpt lat="37.764481" lon="22.2223634"><ele>537.3333333333333</ele><time>2026-04-29T10:32:15.964Z</time></trkpt><trkpt lat="37.7642661" lon="22.2223989"><ele>539.0</ele><time>2026-04-29T10:32:16.965Z</time></trkpt><trkpt lat="37.7640392" lon="22.2224289"><ele>539.0</ele><time>2026-04-29T10:32:17.965Z</time></trkpt><trkpt lat="37.7638086" lon="22.2224577"><ele>539.0</ele><time>2026-04-29T10:32:18.965Z</time></trkpt><trkpt lat="37.7635854" lon="22.2224814"><ele>540.0</ele><time>2026-04-29T10:32:19.964Z</time></trkpt><trkpt lat="37.763361" lon="22.2225019"><ele>541.0</ele><time>2026-04-29T10:32:20.965Z</time></trkpt><trkpt lat="37.7631365" lon="22.222523"><ele>541.0</ele><time>2026-04-29T10:32:21.964Z</time></trkpt><trkpt lat="37.7629138" lon="22.2225458"><ele>541.0</ele><time>2026-04-29T10:32:22.965Z</time></trkpt><trkpt lat="37.7626907" lon="22.2225663"><ele>541.0</ele><time>2026-04-29T10:32:23.964Z</time></trkpt><trkpt lat="37.7624643" lon="22.2225874"><ele>541.5</ele><time>2026-04-29T10:32:24.964Z</time></trkpt><trkpt lat="37.7622357" lon="22.2226018"><ele>542.0</ele><time>2026-04-29T10:32:25.965Z</time></trkpt><trkpt lat="37.7620013" lon="22.2226212"><ele>541.5</ele><time>2026-04-29T10:32:26.964Z</time></trkpt><trkpt lat="37.7617624" lon="22.2226387"><ele>541.0</ele><time>2026-04-29T10:32:27.965Z</time></trkpt><trkpt lat="37.7615181" lon="22.2226616"><ele>541.0</ele><time>2026-04-29T10:32:28.964Z</time></trkpt><trkpt lat="37.7612768" lon="22.2226857"><ele>541.0</ele><time>2026-04-29T10:32:29.964Z</time></trkpt><trkpt lat="37.7610361" lon="22.2227146"><ele>540.5</ele><time>2026-04-29T10:32:30.965Z</time></trkpt><trkpt lat="37.7607885" lon="22.222733"><ele>540.0</ele><time>2026-04-29T10:32:31.964Z</time></trkpt><trkpt lat="37.7605431" lon="22.2227549"><ele>540.0</ele><time>2026-04-29T10:32:32.965Z</time></trkpt><trkpt lat="37.7602978" lon="22.2227755"><ele>540.0</ele><time>2026-04-29T10:32:33.965Z</time></trkpt><trkpt lat="37.7600545" lon="22.2227959"><ele>539.5</ele><time>2026-04-29T10:32:34.964Z</time></trkpt><trkpt lat="37.7598091" lon="22.222817"><ele>539.0</ele><time>2026-04-29T10:32:35.965Z</time></trkpt><trkpt lat="37.7595651" lon="22.2228372"><ele>539.5</ele><time>2026-04-29T10:32:36.965Z</time></trkpt><trkpt lat="37.75932" lon="22.2228579"><ele>540.0</ele><time>2026-04-29T10:32:37.965Z</time></trkpt><trkpt lat="37.759072" lon="22.2228839"><ele>540.0</ele><time>2026-04-29T10:32:38.964Z</time></trkpt><trkpt lat="37.7588293" lon="22.222906"><ele>540.0</ele><time>2026-04-29T10:32:39.964Z</time></trkpt><trkpt lat="37.7585847" lon="22.2229236"><ele>539.0</ele><time>2026-04-29T10:32:40.965Z</time></trkpt><trkpt lat="37.7583456" lon="22.222946"><ele>538.0</ele><time>2026-04-29T10:32:41.965Z</time></trkpt><trkpt lat="37.7581062" lon="22.2229725"><ele>538.0</ele><time>2026-04-29T10:32:42.965Z</time></trkpt><trkpt lat="37.757861" lon="22.2229953"><ele>538.0</ele><time>2026-04-29T10:32:43.964Z</time></trkpt><trkpt lat="37.7576107" lon="22.2230103"><ele>538.5</ele><time>2026-04-29T10:32:44.964Z</time></trkpt><trkpt lat="37.757372" lon="22.2230194"><ele>539.0</ele><time>2026-04-29T10:32:45.964Z</time></trkpt><trkpt lat="37.7571307" lon="22.2230103"><ele>539.0</ele><time>2026-04-29T10:32:46.965Z</time></trkpt><trkpt lat="37.7568904" lon="22.2229943"><ele>539.0</ele><time>2026-04-29T10:32:47.965Z</time></trkpt><trkpt lat="37.7566542" lon="22.2229633"><ele>540.0</ele><time>2026-04-29T10:32:48.964Z</time></trkpt><trkpt lat="37.7564213" lon="22.2229102"><ele>541.0</ele><time>2026-04-29T10:32:49.965Z</time></trkpt><trkpt lat="37.7561876" lon="22.2228535"><ele>545.5</ele><time>2026-04-29T10:32:50.964Z</time></trkpt><trkpt lat="37.7559528" lon="22.2227809"><ele>550.0</ele><time>2026-04-29T10:32:51.965Z</time></trkpt><trkpt lat="37.7557142" lon="22.2227092"><ele>550.0</ele><time>2026-04-29T10:32:52.964Z</time></trkpt><trkpt lat="37.7554712" lon="22.2226434"><ele>550.0</ele><time>2026-04-29T10:32:53.965Z</time></trkpt><trkpt lat="37.7552229" lon="22.2225674"><ele>551.5</ele><time>2026-04-29T10:32:54.965Z</time></trkpt><trkpt lat="37.7549774" lon="22.2224952"><ele>553.0</ele><time>2026-04-29T10:32:55.965Z</time></trkpt><trkpt lat="37.7547274" lon="22.2224165"><ele>553.0</ele><time>2026-04-29T10:32:56.965Z</time></trkpt><trkpt lat="37.7544737" lon="22.2223451"><ele>553.0</ele><time>2026-04-29T10:32:57.964Z</time></trkpt><trkpt lat="37.7542221" lon="22.2222731"><ele>559.0</ele><time>2026-04-29T10:32:58.965Z</time></trkpt><trkpt lat="37.7539705" lon="22.2222063"><ele>565.0</ele><time>2026-04-29T10:32:59.965Z</time></trkpt><trkpt lat="37.7537212" lon="22.2221334"><ele>565.0</ele><time>2026-04-29T10:33:00.964Z</time></trkpt><trkpt lat="37.7534674" lon="22.2220604"><ele>565.0</ele><time>2026-04-29T10:33:01.964Z</time></trkpt><trkpt lat="37.7532017" lon="22.2219908"><ele>565.0</ele><time>2026-04-29T10:33:02.964Z</time></trkpt><trkpt lat="37.7529267" lon="22.2219333"><ele>565.0</ele><time>2026-04-29T10:33:03.965Z</time></trkpt><trkpt lat="37.7526421" lon="22.2218909"><ele>564.5</ele><time>2026-04-29T10:33:04.964Z</time></trkpt><trkpt lat="37.7523544" lon="22.2218728"><ele>564.0</ele><time>2026-04-29T10:33:05.965Z</time></trkpt><trkpt lat="37.7520657" lon="22.2218549"><ele>565.5</ele><time>2026-04-29T10:33:06.965Z</time></trkpt><trkpt lat="37.7517784" lon="22.2218427"><ele>567.0</ele><time>2026-04-29T10:33:07.965Z</time></trkpt><trkpt lat="37.7514952" lon="22.2218331"><ele>567.0</ele><time>2026-04-29T10:33:08.964Z</time></trkpt><trkpt lat="37.7512168" lon="22.2218199"><ele>567.0</ele><time>2026-04-29T10:33:09.965Z</time></trkpt><trkpt lat="37.7509421" lon="22.2218083"><ele>571.0</ele><time>2026-04-29T10:33:10.964Z</time></trkpt><trkpt lat="37.7506633" lon="22.2217979"><ele>575.0</ele><time>2026-04-29T10:33:11.965Z</time></trkpt><trkpt lat="37.7503848" lon="22.2217911"><ele>579.0</ele><time>2026-04-29T10:33:12.965Z</time></trkpt><trkpt lat="37.7501108" lon="22.2217825"><ele>583.0</ele><time>2026-04-29T10:33:13.965Z</time></trkpt><trkpt lat="37.7498395" lon="22.2217831"><ele>583.0</ele><time>2026-04-29T10:33:14.964Z</time></trkpt><trkpt lat="37.7495722" lon="22.2217931"><ele>583.0</ele><time>2026-04-29T10:33:15.965Z</time></trkpt><trkpt lat="37.7493136" lon="22.2218221"><ele>584.0</ele><time>2026-04-29T10:33:16.965Z</time></trkpt><trkpt lat="37.7490587" lon="22.2218748"><ele>585.0</ele><time>2026-04-29T10:33:17.964Z</time></trkpt><trkpt lat="37.7488039" lon="22.221922"><ele>585.0</ele><time>2026-04-29T10:33:18.964Z</time></trkpt><trkpt lat="37.7485449" lon="22.2219651"><ele>585.0</ele><time>2026-04-29T10:33:19.965Z</time></trkpt><trkpt lat="37.7482856" lon="22.2220004"><ele>587.5</ele><time>2026-04-29T10:33:20.965Z</time></trkpt><trkpt lat="37.7480266" lon="22.2219854"><ele>590.0</ele><time>2026-04-29T10:33:21.964Z</time></trkpt><trkpt lat="37.7477828" lon="22.2219535"><ele>591.5</ele><time>2026-04-29T10:33:22.965Z</time></trkpt><trkpt lat="37.7475522" lon="22.2219088"><ele>593.0</ele><time>2026-04-29T10:33:23.964Z</time></trkpt><trkpt lat="37.7473317" lon="22.2218442"><ele>593.0</ele><time>2026-04-29T10:33:24.965Z</time></trkpt><trkpt lat="37.7471295" lon="22.2216738"><ele>593.0</ele><time>2026-04-29T10:33:25.964Z</time></trkpt><trkpt lat="37.7469352" lon="22.2215228"><ele>595.0</ele><time>2026-04-29T10:33:26.965Z</time></trkpt><trkpt lat="37.7467377" lon="22.2213445"><ele>597.0</ele><time>2026-04-29T10:33:27.965Z</time></trkpt><trkpt lat="37.7465493" lon="22.2211844"><ele>597.0</ele><time>2026-04-29T10:33:28.965Z</time></trkpt><trkpt lat="37.7463587" lon="22.2210626"><ele>597.0</ele><time>2026-04-29T10:33:29.965Z</time></trkpt><trkpt lat="37.7461557" lon="22.2209899"><ele>597.0</ele><time>2026-04-29T10:33:30.965Z</time></trkpt><trkpt lat="37.7459386" lon="22.2209577"><ele>598.6666666666666</ele><time>2026-04-29T10:33:31.965Z</time></trkpt><trkpt lat="37.7457173" lon="22.2209514"><ele>600.3333333333333</ele><time>2026-04-29T10:33:32.965Z</time></trkpt><trkpt lat="37.7454919" lon="22.2209491"><ele>602.0</ele><time>2026-04-29T10:33:33.965Z</time></trkpt><trkpt lat="37.7452768" lon="22.2209458"><ele>602.3333333333333</ele><time>2026-04-29T10:33:34.964Z</time></trkpt><trkpt lat="37.7450763" lon="22.2208645"><ele>602.6666666666666</ele><time>2026-04-29T10:33:35.965Z</time></trkpt><trkpt lat="37.7448745" lon="22.2207623"><ele>603.0</ele><time>2026-04-29T10:33:36.965Z</time></trkpt><trkpt lat="37.7446839" lon="22.2206127"><ele>606.0</ele><time>2026-04-29T10:33:37.965Z</time></trkpt><trkpt lat="37.7444929" lon="22.2204406"><ele>609.0</ele><time>2026-04-29T10:33:38.965Z</time></trkpt><trkpt lat="37.7442998" lon="22.2202417"><ele>609.0</ele><time>2026-04-29T10:33:39.965Z</time></trkpt><trkpt lat="37.7441168" lon="22.2200466"><ele>609.0</ele><time>2026-04-29T10:33:40.964Z</time></trkpt><trkpt lat="37.7439509" lon="22.2198727"><ele>610.3333333333334</ele><time>2026-04-29T10:33:41.964Z</time></trkpt><trkpt lat="37.7437827" lon="22.2197203"><ele>611.6666666666667</ele><time>2026-04-29T10:33:42.965Z</time></trkpt><trkpt lat="37.7435997" lon="22.2196183"><ele>613.0</ele><time>2026-04-29T10:33:43.965Z</time></trkpt><trkpt lat="37.7434124" lon="22.2195521"><ele>614.0</ele><time>2026-04-29T10:33:44.965Z</time></trkpt><trkpt lat="37.7432261" lon="22.219541"><ele>615.0</ele><time>2026-04-29T10:33:45.965Z</time></trkpt><trkpt lat="37.7430346" lon="22.219581"><ele>616.0</ele><time>2026-04-29T10:33:46.965Z</time></trkpt><trkpt lat="37.7428323" lon="22.2196612"><ele>617.3333333333334</ele><time>2026-04-29T10:33:47.965Z</time></trkpt><trkpt lat="37.7426356" lon="22.2197429"><ele>618.6666666666666</ele><time>2026-04-29T10:33:48.965Z</time></trkpt><trkpt lat="37.7424271" lon="22.2198305"><ele>620.0</ele><time>2026-04-29T10:33:49.965Z</time></trkpt><trkpt lat="37.7422191" lon="22.2199123"><ele>620.0</ele><time>2026-04-29T10:33:50.965Z</time></trkpt><trkpt lat="37.7420146" lon="22.2199929"><ele>620.0</ele><time>2026-04-29T10:33:51.964Z</time></trkpt><trkpt lat="37.7418225" lon="22.2200733"><ele>620.0</ele><time>2026-04-29T10:33:52.964Z</time></trkpt><trkpt lat="37.7416255" lon="22.220134"><ele>622.0</ele><time>2026-04-29T10:33:53.965Z</time></trkpt><trkpt lat="37.74143" lon="22.2201766"><ele>624.0</ele><time>2026-04-29T10:33:54.964Z</time></trkpt><trkpt lat="37.7412341" lon="22.2202054"><ele>626.0</ele><time>2026-04-29T10:33:55.964Z</time></trkpt><trkpt lat="37.7410373" lon="22.2202241"><ele>628.3333333333333</ele><time>2026-04-29T10:33:56.965Z</time></trkpt><trkpt lat="37.7408307" lon="22.2202243"><ele>630.6666666666666</ele><time>2026-04-29T10:33:57.965Z</time></trkpt><trkpt lat="37.7406055" lon="22.2202145"><ele>633.0</ele><time>2026-04-29T10:33:58.964Z</time></trkpt><trkpt lat="37.7403689" lon="22.2202124"><ele>633.5</ele><time>2026-04-29T10:33:59.964Z</time></trkpt><trkpt lat="37.7401374" lon="22.2202042"><ele>634.0</ele><time>2026-04-29T10:34:00.964Z</time></trkpt><trkpt lat="37.7399074" lon="22.2201969"><ele>634.0</ele><time>2026-04-29T10:34:01.965Z</time></trkpt><trkpt lat="37.739674" lon="22.2201882"><ele>634.0</ele><time>2026-04-29T10:34:02.964Z</time></trkpt><trkpt lat="37.739443" lon="22.2201765"><ele>635.5</ele><time>2026-04-29T10:34:03.965Z</time></trkpt><trkpt lat="37.7392117" lon="22.2201557"><ele>637.0</ele><time>2026-04-29T10:34:04.965Z</time></trkpt><trkpt lat="37.7389791" lon="22.2201418"><ele>637.0</ele><time>2026-04-29T10:34:05.965Z</time></trkpt><trkpt lat="37.7387501" lon="22.2201314"><ele>637.0</ele><time>2026-04-29T10:34:06.965Z</time></trkpt><trkpt lat="37.7385266" lon="22.2201187"><ele>638.5</ele><time>2026-04-29T10:34:07.965Z</time></trkpt><trkpt lat="37.7382988" lon="22.220107"><ele>640.0</ele><time>2026-04-29T10:34:08.964Z</time></trkpt><trkpt lat="37.7380701" lon="22.2200978"><ele>640.0</ele><time>2026-04-29T10:34:09.965Z</time></trkpt><trkpt lat="37.7378416" lon="22.2200933"><ele>640.0</ele><time>2026-04-29T10:34:10.965Z</time></trkpt><trkpt lat="37.7376175" lon="22.2200848"><ele>642.5</ele><time>2026-04-29T10:34:11.964Z</time></trkpt><trkpt lat="37.7373731" lon="22.220057"><ele>645.0</ele><time>2026-04-29T10:34:12.964Z</time></trkpt><trkpt lat="37.7371294" lon="22.2200311"><ele>648.0</ele><time>2026-04-29T10:34:13.964Z</time></trkpt><trkpt lat="37.7368834" lon="22.2199923"><ele>651.0</ele><time>2026-04-29T10:34:14.965Z</time></trkpt><trkpt lat="37.7366339" lon="22.2199483"><ele>651.0</ele><time>2026-04-29T10:34:15.964Z</time></trkpt><trkpt lat="37.7363812" lon="22.2198995"><ele>651.0</ele><time>2026-04-29T10:34:16.965Z</time></trkpt><trkpt lat="37.7361238" lon="22.2198472"><ele>651.0</ele><time>2026-04-29T10:34:17.965Z</time></trkpt><trkpt lat="37.7358715" lon="22.2197884"><ele>651.0</ele><time>2026-04-29T10:34:18.964Z</time></trkpt><trkpt lat="37.7356139" lon="22.2197264"><ele>651.0</ele><time>2026-04-29T10:34:19.964Z</time></trkpt><trkpt lat="37.7353609" lon="22.2196709"><ele>651.0</ele><time>2026-04-29T10:34:20.965Z</time></trkpt><trkpt lat="37.7351079" lon="22.2196058"><ele>655.0</ele><time>2026-04-29T10:34:21.965Z</time></trkpt><trkpt lat="37.7348558" lon="22.2195433"><ele>659.0</ele><time>2026-04-29T10:34:22.965Z</time></trkpt><trkpt lat="37.734603" lon="22.2194837"><ele>662.5</ele><time>2026-04-29T10:34:23.965Z</time></trkpt><trkpt lat="37.7343584" lon="22.2194266"><ele>666.0</ele><time>2026-04-29T10:34:24.965Z</time></trkpt><trkpt lat="37.7341112" lon="22.2193724"><ele>666.0</ele><time>2026-04-29T10:34:25.964Z</time></trkpt><trkpt lat="37.7338605" lon="22.2193288"><ele>666.0</ele><time>2026-04-29T10:34:26.965Z</time></trkpt><trkpt lat="37.7336045" lon="22.2192915"><ele>668.0</ele><time>2026-04-29T10:34:27.964Z</time></trkpt><trkpt lat="37.7333524" lon="22.2192916"><ele>670.0</ele><time>2026-04-29T10:34:28.964Z</time></trkpt><trkpt lat="37.7331085" lon="22.2193236"><ele>670.0</ele><time>2026-04-29T10:34:29.965Z</time></trkpt><trkpt lat="37.7328586" lon="22.2193508"><ele>670.0</ele><time>2026-04-29T10:34:30.965Z</time></trkpt><trkpt lat="37.7326218" lon="22.2193791"><ele>672.5</ele><time>2026-04-29T10:34:31.965Z</time></trkpt><trkpt lat="37.7323915" lon="22.2194031"><ele>675.0</ele><time>2026-04-29T10:34:32.964Z</time></trkpt><trkpt lat="37.7321655" lon="22.2194227"><ele>675.0</ele><time>2026-04-29T10:34:33.965Z</time></trkpt><trkpt lat="37.7319572" lon="22.2194331"><ele>675.0</ele><time>2026-04-29T10:34:34.965Z</time></trkpt><trkpt lat="37.7317582" lon="22.2194424"><ele>675.0</ele><time>2026-04-29T10:34:35.965Z</time></trkpt><trkpt lat="37.7315777" lon="22.2194704"><ele>678.0</ele><time>2026-04-29T10:34:36.965Z</time></trkpt><trkpt lat="37.7314012" lon="22.2195407"><ele>681.0</ele><time>2026-04-29T10:34:37.964Z</time></trkpt><trkpt lat="37.7312253" lon="22.2196595"><ele>684.0</ele><time>2026-04-29T10:34:38.965Z</time></trkpt><trkpt lat="37.7310461" lon="22.2198143"><ele>687.0</ele><time>2026-04-29T10:34:39.964Z</time></trkpt><trkpt lat="37.730875" lon="22.2199838"><ele>690.0</ele><time>2026-04-29T10:34:40.965Z</time></trkpt><trkpt lat="37.7307128" lon="22.2201471"><ele>693.0</ele><time>2026-04-29T10:34:41.965Z</time></trkpt><trkpt lat="37.7305513" lon="22.2203039"><ele>693.0</ele><time>2026-04-29T10:34:42.965Z</time></trkpt><trkpt lat="37.7304025" lon="22.2204785"><ele>693.0</ele><time>2026-04-29T10:34:43.965Z</time></trkpt><trkpt lat="37.7302743" lon="22.2206798"><ele>693.0</ele><time>2026-04-29T10:34:44.964Z</time></trkpt><trkpt lat="37.7301632" lon="22.2209187"><ele>695.5</ele><time>2026-04-29T10:34:45.964Z</time></trkpt><trkpt lat="37.7300678" lon="22.2211849"><ele>698.0</ele><time>2026-04-29T10:34:46.965Z</time></trkpt><trkpt lat="37.7299775" lon="22.2214472"><ele>701.5</ele><time>2026-04-29T10:34:47.965Z</time></trkpt><trkpt lat="37.7298782" lon="22.2217055"><ele>705.0</ele><time>2026-04-29T10:34:48.964Z</time></trkpt><trkpt lat="37.7297805" lon="22.2219668"><ele>705.0</ele><time>2026-04-29T10:34:49.965Z</time></trkpt><trkpt lat="37.7296835" lon="22.2222306"><ele>705.0</ele><time>2026-04-29T10:34:50.965Z</time></trkpt><trkpt lat="37.7295894" lon="22.2224901"><ele>709.0</ele><time>2026-04-29T10:34:51.965Z</time></trkpt><trkpt lat="37.7294979" lon="22.222726"><ele>713.0</ele><time>2026-04-29T10:34:52.964Z</time></trkpt><trkpt lat="37.7294045" lon="22.2229511"><ele>717.0</ele><time>2026-04-29T10:34:53.965Z</time></trkpt><trkpt lat="37.7292896" lon="22.2231602"><ele>717.0</ele><time>2026-04-29T10:34:54.964Z</time></trkpt><trkpt lat="37.7291383" lon="22.2233599"><ele>717.0</ele><time>2026-04-29T10:34:55.965Z</time></trkpt><trkpt lat="37.7289674" lon="22.2235434"><ele>717.0</ele><time>2026-04-29T10:34:56.964Z</time></trkpt><trkpt lat="37.7287855" lon="22.223735"><ele>717.0</ele><time>2026-04-29T10:34:57.964Z</time></trkpt><trkpt lat="37.7286156" lon="22.2239332"><ele>717.0</ele><time>2026-04-29T10:34:58.964Z</time></trkpt><trkpt lat="37.7284602" lon="22.2241487"><ele>718.5</ele><time>2026-04-29T10:34:59.964Z</time></trkpt><trkpt lat="37.7283227" lon="22.2243833"><ele>720.0</ele><time>2026-04-29T10:35:00.965Z</time></trkpt><trkpt lat="37.7281873" lon="22.2246191"><ele>723.5</ele><time>2026-04-29T10:35:01.965Z</time></trkpt><trkpt lat="37.7280505" lon="22.2248423"><ele>727.0</ele><time>2026-04-29T10:35:02.964Z</time></trkpt><trkpt lat="37.7279077" lon="22.2250692"><ele>727.0</ele><time>2026-04-29T10:35:03.965Z</time></trkpt><trkpt lat="37.7277692" lon="22.2253106"><ele>727.0</ele><time>2026-04-29T10:35:04.965Z</time></trkpt><trkpt lat="37.7276388" lon="22.2255478"><ele>727.0</ele><time>2026-04-29T10:35:05.965Z</time></trkpt><trkpt lat="37.7275166" lon="22.225795"><ele>727.0</ele><time>2026-04-29T10:35:06.964Z</time></trkpt><trkpt lat="37.7274284" lon="22.2260503"><ele>727.0</ele><time>2026-04-29T10:35:07.965Z</time></trkpt><trkpt lat="37.7273529" lon="22.2263143"><ele>727.0</ele><time>2026-04-29T10:35:08.964Z</time></trkpt><trkpt lat="37.7272894" lon="22.2265911"><ele>731.0</ele><time>2026-04-29T10:35:09.965Z</time></trkpt><trkpt lat="37.7272358" lon="22.2268703"><ele>735.0</ele><time>2026-04-29T10:35:10.964Z</time></trkpt><trkpt lat="37.7271854" lon="22.2271482"><ele>738.0</ele><time>2026-04-29T10:35:11.965Z</time></trkpt><trkpt lat="37.7271383" lon="22.2274235"><ele>741.0</ele><time>2026-04-29T10:35:12.965Z</time></trkpt><trkpt lat="37.7270919" lon="22.227712"><ele>741.0</ele><time>2026-04-29T10:35:13.964Z</time></trkpt><trkpt lat="37.7270482" lon="22.2279973"><ele>741.0</ele><time>2026-04-29T10:35:14.964Z</time></trkpt><trkpt lat="37.7270139" lon="22.2282946"><ele>744.5</ele><time>2026-04-29T10:35:15.964Z</time></trkpt><trkpt lat="37.7269973" lon="22.2286261"><ele>748.0</ele><time>2026-04-29T10:35:16.965Z</time></trkpt><trkpt lat="37.7269771" lon="22.2289321"><ele>749.0</ele><time>2026-04-29T10:35:17.964Z</time></trkpt><trkpt lat="37.7269687" lon="22.2292193"><ele>750.0</ele><time>2026-04-29T10:35:18.964Z</time></trkpt><trkpt lat="37.7269648" lon="22.2294925"><ele>751.0</ele><time>2026-04-29T10:35:19.965Z</time></trkpt><trkpt lat="37.7269623" lon="22.2297317"><ele>752.3333333333334</ele><time>2026-04-29T10:35:20.965Z</time></trkpt><trkpt lat="37.7269478" lon="22.229945"><ele>753.6666666666666</ele><time>2026-04-29T10:35:21.964Z</time></trkpt><trkpt lat="37.7269056" lon="22.2301324"><ele>755.0</ele><time>2026-04-29T10:35:22.965Z</time></trkpt><trkpt lat="37.7268451" lon="22.2302779"><ele>753.6</ele><time>2026-04-29T10:35:23.965Z</time></trkpt><trkpt lat="37.726766" lon="22.2303931"><ele>752.2</ele><time>2026-04-29T10:35:24.965Z</time></trkpt><trkpt lat="37.7266846" lon="22.2304734"><ele>750.8</ele><time>2026-04-29T10:35:25.964Z</time></trkpt><trkpt lat="37.7266144" lon="22.2305425"><ele>749.4</ele><time>2026-04-29T10:35:26.964Z</time></trkpt><trkpt lat="37.7265501" lon="22.2305863"><ele>748.0</ele><time>2026-04-29T10:35:27.964Z</time></trkpt><trkpt lat="37.7264676" lon="22.230658"><ele>748.0</ele><time>2026-04-29T10:35:29.964Z</time></trkpt><trkpt lat="37.7264146" lon="22.2307777"><ele>748.0</ele><time>2026-04-29T10:35:39.965Z</time></trkpt><trkpt lat="37.7264313" lon="22.2309107"><ele>748.0</ele><time>2026-04-29T10:35:40.965Z</time></trkpt><trkpt lat="37.7264655" lon="22.2310982"><ele>748.0</ele><time>2026-04-29T10:35:41.964Z</time></trkpt><trkpt lat="37.7265197" lon="22.2313317"><ele>749.0</ele><time>2026-04-29T10:35:42.964Z</time></trkpt><trkpt lat="37.7265795" lon="22.2315848"><ele>750.0</ele><time>2026-04-29T10:35:43.965Z</time></trkpt><trkpt lat="37.7266354" lon="22.2318245"><ele>751.0</ele><time>2026-04-29T10:35:44.965Z</time></trkpt><trkpt lat="37.7266865" lon="22.2320338"><ele>751.0</ele><time>2026-04-29T10:35:45.964Z</time></trkpt><trkpt lat="37.7267352" lon="22.2322268"><ele>751.0</ele><time>2026-04-29T10:35:46.965Z</time></trkpt><trkpt lat="37.7267815" lon="22.2324038"><ele>751.0</ele><time>2026-04-29T10:35:47.965Z</time></trkpt><trkpt lat="37.7268269" lon="22.2325788"><ele>752.25</ele><time>2026-04-29T10:35:48.964Z</time></trkpt><trkpt lat="37.7268669" lon="22.2327476"><ele>753.5</ele><time>2026-04-29T10:35:49.965Z</time></trkpt><trkpt lat="37.7269045" lon="22.2329121"><ele>754.75</ele><time>2026-04-29T10:35:50.965Z</time></trkpt><trkpt lat="37.7269385" lon="22.2330817"><ele>756.0</ele><time>2026-04-29T10:35:51.965Z</time></trkpt><trkpt lat="37.7269732" lon="22.2332655"><ele>756.75</ele><time>2026-04-29T10:35:52.965Z</time></trkpt><trkpt lat="37.7269972" lon="22.2334526"><ele>757.5</ele><time>2026-04-29T10:35:53.965Z</time></trkpt><trkpt lat="37.7270232" lon="22.2336406"><ele>758.25</ele><time>2026-04-29T10:35:54.965Z</time></trkpt><trkpt lat="37.727038" lon="22.2338166"><ele>759.0</ele><time>2026-04-29T10:35:55.964Z</time></trkpt><trkpt lat="37.7270411" lon="22.2339925"><ele>759.0</ele><time>2026-04-29T10:35:56.965Z</time></trkpt><trkpt lat="37.7270496" lon="22.2341679"><ele>759.0</ele><time>2026-04-29T10:35:57.965Z</time></trkpt><trkpt lat="37.7270587" lon="22.2343421"><ele>759.0</ele><time>2026-04-29T10:35:58.965Z</time></trkpt><trkpt lat="37.7270678" lon="22.2345193"><ele>759.0</ele><time>2026-04-29T10:35:59.964Z</time></trkpt><trkpt lat="37.7270705" lon="22.2346978"><ele>759.75</ele><time>2026-04-29T10:36:00.965Z</time></trkpt><trkpt lat="37.7270711" lon="22.2348767"><ele>760.5</ele><time>2026-04-29T10:36:01.965Z</time></trkpt><trkpt lat="37.7270588" lon="22.235059"><ele>761.25</ele><time>2026-04-29T10:36:02.964Z</time></trkpt><trkpt lat="37.7270298" lon="22.235248"><ele>762.0</ele><time>2026-04-29T10:36:03.964Z</time></trkpt><trkpt lat="37.7269886" lon="22.2354479"><ele>762.0</ele><time>2026-04-29T10:36:04.964Z</time></trkpt><trkpt lat="37.7269362" lon="22.2356486"><ele>762.0</ele><time>2026-04-29T10:36:05.965Z</time></trkpt><trkpt lat="37.7268714" lon="22.235857"><ele>762.0</ele><time>2026-04-29T10:36:06.965Z</time></trkpt><trkpt lat="37.7267985" lon="22.2360757"><ele>762.5</ele><time>2026-04-29T10:36:07.964Z</time></trkpt><trkpt lat="37.7267143" lon="22.2363189"><ele>763.0</ele><time>2026-04-29T10:36:08.965Z</time></trkpt><trkpt lat="37.72661" lon="22.2365937"><ele>762.0</ele><time>2026-04-29T10:36:09.965Z</time></trkpt><trkpt lat="37.7264992" lon="22.236909"><ele>761.0</ele><time>2026-04-29T10:36:10.965Z</time></trkpt><trkpt lat="37.7263749" lon="22.2372378"><ele>762.0</ele><time>2026-04-29T10:36:11.964Z</time></trkpt><trkpt lat="37.7262469" lon="22.2375689"><ele>763.0</ele><time>2026-04-29T10:36:12.965Z</time></trkpt><trkpt lat="37.7261292" lon="22.2378769"><ele>766.5</ele><time>2026-04-29T10:36:13.964Z</time></trkpt><trkpt lat="37.7260213" lon="22.2381856"><ele>770.0</ele><time>2026-04-29T10:36:14.965Z</time></trkpt><trkpt lat="37.7259261" lon="22.2385077"><ele>770.0</ele><time>2026-04-29T10:36:15.965Z</time></trkpt><trkpt lat="37.7258351" lon="22.2388123"><ele>770.0</ele><time>2026-04-29T10:36:16.964Z</time></trkpt><trkpt lat="37.7257732" lon="22.2391106"><ele>769.5</ele><time>2026-04-29T10:36:17.965Z</time></trkpt><trkpt lat="37.7257292" lon="22.2394"><ele>769.0</ele><time>2026-04-29T10:36:18.965Z</time></trkpt><trkpt lat="37.7256895" lon="22.239691"><ele>768.6666666666666</ele><time>2026-04-29T10:36:19.965Z</time></trkpt><trkpt lat="37.7256504" lon="22.2399664"><ele>768.3333333333333</ele><time>2026-04-29T10:36:20.964Z</time></trkpt><trkpt lat="37.7256218" lon="22.2402234"><ele>768.0</ele><time>2026-04-29T10:36:21.964Z</time></trkpt><trkpt lat="37.725587" lon="22.2404563"><ele>768.0</ele><time>2026-04-29T10:36:22.964Z</time></trkpt><trkpt lat="37.7255562" lon="22.2406765"><ele>768.0</ele><time>2026-04-29T10:36:23.964Z</time></trkpt><trkpt lat="37.725526" lon="22.240885"><ele>768.0</ele><time>2026-04-29T10:36:24.964Z</time></trkpt><trkpt lat="37.7254968" lon="22.2410842"><ele>768.0</ele><time>2026-04-29T10:36:25.965Z</time></trkpt><trkpt lat="37.7254725" lon="22.2412802"><ele>768.0</ele><time>2026-04-29T10:36:26.965Z</time></trkpt><trkpt lat="37.7254501" lon="22.2414738"><ele>768.0</ele><time>2026-04-29T10:36:27.964Z</time></trkpt><trkpt lat="37.7254158" lon="22.241664"><ele>768.25</ele><time>2026-04-29T10:36:28.965Z</time></trkpt><trkpt lat="37.7254" lon="22.2418457"><ele>768.5</ele><time>2026-04-29T10:36:29.965Z</time></trkpt><trkpt lat="37.7253768" lon="22.2419964"><ele>768.75</ele><time>2026-04-29T10:36:30.965Z</time></trkpt><trkpt lat="37.7253596" lon="22.2421417"><ele>769.0</ele><time>2026-04-29T10:36:31.965Z</time></trkpt><trkpt lat="37.7253373" lon="22.2422829"><ele>769.0</ele><time>2026-04-29T10:36:32.965Z</time></trkpt><trkpt lat="37.7253116" lon="22.242438"><ele>769.0</ele><time>2026-04-29T10:36:33.965Z</time></trkpt><trkpt lat="37.7252904" lon="22.2426281"><ele>769.0</ele><time>2026-04-29T10:36:34.965Z</time></trkpt><trkpt lat="37.7252754" lon="22.2428454"><ele>769.0</ele><time>2026-04-29T10:36:35.964Z</time></trkpt><trkpt lat="37.7252445" lon="22.243064"><ele>769.0</ele><time>2026-04-29T10:36:36.964Z</time></trkpt><trkpt lat="37.7252138" lon="22.2432735"><ele>769.0</ele><time>2026-04-29T10:36:37.965Z</time></trkpt><trkpt lat="37.725186" lon="22.2434735"><ele>773.0</ele><time>2026-04-29T10:36:38.964Z</time></trkpt><trkpt lat="37.725159" lon="22.2436652"><ele>777.0</ele><time>2026-04-29T10:36:39.964Z</time></trkpt><trkpt lat="37.7251344" lon="22.2438533"><ele>781.0</ele><time>2026-04-29T10:36:40.964Z</time></trkpt><trkpt lat="37.7251078" lon="22.244039"><ele>781.0</ele><time>2026-04-29T10:36:41.964Z</time></trkpt><trkpt lat="37.7250806" lon="22.2442285"><ele>781.0</ele><time>2026-04-29T10:36:42.965Z</time></trkpt><trkpt lat="37.7250506" lon="22.2444235"><ele>781.0</ele><time>2026-04-29T10:36:43.965Z</time></trkpt><trkpt lat="37.7250142" lon="22.2446199"><ele>780.6666666666666</ele><time>2026-04-29T10:36:44.965Z</time></trkpt><trkpt lat="37.7249807" lon="22.2448161"><ele>780.3333333333333</ele><time>2026-04-29T10:36:45.964Z</time></trkpt><trkpt lat="37.7249441" lon="22.2450089"><ele>780.0</ele><time>2026-04-29T10:36:46.964Z</time></trkpt><trkpt lat="37.7249023" lon="22.245194"><ele>780.0</ele><time>2026-04-29T10:36:47.964Z</time></trkpt><trkpt lat="37.7248516" lon="22.2453592"><ele>780.0</ele><time>2026-04-29T10:36:48.965Z</time></trkpt><trkpt lat="37.7248089" lon="22.2455033"><ele>780.0</ele><time>2026-04-29T10:36:49.965Z</time></trkpt><trkpt lat="37.7247791" lon="22.2456366"><ele>780.0</ele><time>2026-04-29T10:36:50.965Z</time></trkpt><trkpt lat="37.7247393" lon="22.2457466"><ele>779.8333333333334</ele><time>2026-04-29T10:36:51.965Z</time></trkpt><trkpt lat="37.7247023" lon="22.2458462"><ele>779.6666666666667</ele><time>2026-04-29T10:36:52.964Z</time></trkpt><trkpt lat="37.7246601" lon="22.2459463"><ele>779.5</ele><time>2026-04-29T10:36:53.965Z</time></trkpt><trkpt lat="37.7246203" lon="22.246045"><ele>779.3333333333334</ele><time>2026-04-29T10:36:54.965Z</time></trkpt><trkpt lat="37.7245826" lon="22.2461389"><ele>779.1666666666667</ele><time>2026-04-29T10:36:55.964Z</time></trkpt><trkpt lat="37.7245469" lon="22.2462352"><ele>779.0</ele><time>2026-04-29T10:36:56.964Z</time></trkpt><trkpt lat="37.7245092" lon="22.2463358"><ele>779.0000000000001</ele><time>2026-04-29T10:36:57.965Z</time></trkpt><trkpt lat="37.724474" lon="22.2464307"><ele>779.0</ele><time>2026-04-29T10:36:58.965Z</time></trkpt><trkpt lat="37.7244384" lon="22.2465297"><ele>779.0</ele><time>2026-04-29T10:36:59.965Z</time></trkpt><trkpt lat="37.7244002" lon="22.2466247"><ele>779.0</ele><time>2026-04-29T10:37:00.965Z</time></trkpt><trkpt lat="37.7243585" lon="22.2467292"><ele>779.0000000000001</ele><time>2026-04-29T10:37:01.965Z</time></trkpt><trkpt lat="37.7243151" lon="22.2468343"><ele>779.0</ele><time>2026-04-29T10:37:02.965Z</time></trkpt><trkpt lat="37.7242747" lon="22.2469389"><ele>779.8333333333334</ele><time>2026-04-29T10:37:03.965Z</time></trkpt><trkpt lat="37.7242337" lon="22.2470405"><ele>780.6666666666667</ele><time>2026-04-29T10:37:04.965Z</time></trkpt><trkpt lat="37.7242006" lon="22.2471423"><ele>781.5</ele><time>2026-04-29T10:37:05.964Z</time></trkpt><trkpt lat="37.7241668" lon="22.2472313"><ele>782.3333333333333</ele><time>2026-04-29T10:37:06.964Z</time></trkpt><trkpt lat="37.7241332" lon="22.2473079"><ele>783.1666666666666</ele><time>2026-04-29T10:37:07.965Z</time></trkpt><trkpt lat="37.7241034" lon="22.2473786"><ele>784.0</ele><time>2026-04-29T10:37:08.964Z</time></trkpt><trkpt lat="37.7240588" lon="22.2474951"><ele>784.0</ele><time>2026-04-29T10:37:10.964Z</time></trkpt><trkpt lat="37.7240143" lon="22.2476092"><ele>784.0</ele><time>2026-04-29T10:37:12.964Z</time></trkpt><trkpt lat="37.7239675" lon="22.2477245"><ele>784.0</ele><time>2026-04-29T10:37:14.964Z</time></trkpt><trkpt lat="37.7239246" lon="22.2478408"><ele>784.0</ele><time>2026-04-29T10:37:16.965Z</time></trkpt><trkpt lat="37.7238837" lon="22.2479551"><ele>784.0</ele><time>2026-04-29T10:37:18.965Z</time></trkpt><trkpt lat="37.7238473" lon="22.2480319"><ele>783.9999999999999</ele><time>2026-04-29T10:37:20.965Z</time></trkpt><trkpt lat="37.7237926" lon="22.2481145"><ele>784.0</ele><time>2026-04-29T10:37:36.965Z</time></trkpt><trkpt lat="37.7237224" lon="22.2481826"><ele>784.0</ele><time>2026-04-29T10:37:39.965Z</time></trkpt><trkpt lat="37.723645" lon="22.2480931"><ele>784.0</ele><time>2026-04-29T10:37:41.964Z</time></trkpt><trkpt lat="37.7235916" lon="22.2480414"><ele>783.9999999999999</ele><time>2026-04-29T10:37:42.964Z</time></trkpt><trkpt lat="37.7235278" lon="22.2479854"><ele>784.0</ele><time>2026-04-29T10:37:43.964Z</time></trkpt><trkpt lat="37.7234643" lon="22.2479489"><ele>785.1666666666666</ele><time>2026-04-29T10:37:44.964Z</time></trkpt><trkpt lat="37.7233671" lon="22.2478807"><ele>786.3333333333333</ele><time>2026-04-29T10:37:46.965Z</time></trkpt><trkpt lat="37.7232851" lon="22.2478387"><ele>787.5</ele><time>2026-04-29T10:37:49.964Z</time></trkpt><trkpt lat="37.7232345" lon="22.2477889"><ele>788.6666666666667</ele><time>2026-04-29T10:37:52.965Z</time></trkpt><trkpt lat="37.7232251" lon="22.2477032"><ele>789.8333333333334</ele><time>2026-04-29T10:38:10.964Z</time></trkpt><trkpt lat="37.7231612" lon="22.2476419"><ele>791.0</ele><time>2026-04-29T10:38:12.965Z</time></trkpt><trkpt lat="37.7230533" lon="22.2476217"><ele>791.0</ele><time>2026-04-29T10:38:14.965Z</time></trkpt><trkpt lat="37.7229897" lon="22.2476272"><ele>791.0</ele><time>2026-04-29T10:38:15.964Z</time></trkpt><trkpt lat="37.7229245" lon="22.247609"><ele>791.0</ele><time>2026-04-29T10:38:16.964Z</time></trkpt><trkpt lat="37.7228617" lon="22.2475853"><ele>791.0</ele><time>2026-04-29T10:38:17.964Z</time></trkpt><trkpt lat="37.7227968" lon="22.2475805"><ele>791.0</ele><time>2026-04-29T10:38:18.964Z</time></trkpt><trkpt lat="37.7227325" lon="22.2475643"><ele>791.0</ele><time>2026-04-29T10:38:19.965Z</time></trkpt><trkpt lat="37.722664" lon="22.2475592"><ele>791.0</ele><time>2026-04-29T10:38:20.965Z</time></trkpt><trkpt lat="37.7225948" lon="22.2475594"><ele>792.3333333333334</ele><time>2026-04-29T10:38:21.964Z</time></trkpt><trkpt lat="37.7225297" lon="22.2475487"><ele>793.6666666666667</ele><time>2026-04-29T10:38:22.965Z</time></trkpt><trkpt lat="37.7224036" lon="22.2475229"><ele>795.0</ele><time>2026-04-29T10:38:24.965Z</time></trkpt><trkpt lat="37.7223401" lon="22.2475051"><ele>796.3333333333333</ele><time>2026-04-29T10:38:25.965Z</time></trkpt><trkpt lat="37.7222723" lon="22.2474917"><ele>797.6666666666666</ele><time>2026-04-29T10:38:26.964Z</time></trkpt><trkpt lat="37.7221977" lon="22.24748"><ele>799.0</ele><time>2026-04-29T10:38:27.964Z</time></trkpt><trkpt lat="37.7221271" lon="22.247471"><ele>798.9999999999999</ele><time>2026-04-29T10:38:28.965Z</time></trkpt><trkpt lat="37.7220616" lon="22.24747"><ele>799.0</ele><time>2026-04-29T10:38:29.964Z</time></trkpt><trkpt lat="37.7219924" lon="22.2474756"><ele>799.0</ele><time>2026-04-29T10:38:30.964Z</time></trkpt><trkpt lat="37.7219271" lon="22.2474912"><ele>799.0</ele><time>2026-04-29T10:38:31.964Z</time></trkpt><trkpt lat="37.7218633" lon="22.2475164"><ele>798.9999999999999</ele><time>2026-04-29T10:38:32.964Z</time></trkpt><trkpt lat="37.7217901" lon="22.2475329"><ele>799.0</ele><time>2026-04-29T10:38:33.965Z</time></trkpt><trkpt lat="37.7216703" lon="22.247576"><ele>800.6666666666666</ele><time>2026-04-29T10:38:35.964Z</time></trkpt><trkpt lat="37.7216009" lon="22.2475894"><ele>802.3333333333333</ele><time>2026-04-29T10:38:36.964Z</time></trkpt><trkpt lat="37.7214814" lon="22.2476127"><ele>804.0</ele><time>2026-04-29T10:38:38.964Z</time></trkpt><trkpt lat="37.7214177" lon="22.2476234"><ele>805.6666666666667</ele><time>2026-04-29T10:38:39.964Z</time></trkpt><trkpt lat="37.7213507" lon="22.2476411"><ele>807.3333333333334</ele><time>2026-04-29T10:38:40.964Z</time></trkpt><trkpt lat="37.7212806" lon="22.247658"><ele>809.0</ele><time>2026-04-29T10:38:41.964Z</time></trkpt><trkpt lat="37.7211934" lon="22.2476764"><ele>809.0000000000001</ele><time>2026-04-29T10:38:42.965Z</time></trkpt><trkpt lat="37.7211157" lon="22.2476998"><ele>809.0</ele><time>2026-04-29T10:38:43.964Z</time></trkpt><trkpt lat="37.7210359" lon="22.2477118"><ele>809.0</ele><time>2026-04-29T10:38:44.964Z</time></trkpt><trkpt lat="37.7209511" lon="22.2477349"><ele>809.0</ele><time>2026-04-29T10:38:45.965Z</time></trkpt><trkpt lat="37.7208698" lon="22.2477647"><ele>809.0000000000001</ele><time>2026-04-29T10:38:46.965Z</time></trkpt><trkpt lat="37.7207915" lon="22.2478015"><ele>809.0</ele><time>2026-04-29T10:38:47.965Z</time></trkpt><trkpt lat="37.7207139" lon="22.2478544"><ele>810.6666666666667</ele><time>2026-04-29T10:38:48.965Z</time></trkpt><trkpt lat="37.7206403" lon="22.2478918"><ele>812.3333333333334</ele><time>2026-04-29T10:38:49.964Z</time></trkpt><trkpt lat="37.7205524" lon="22.2479255"><ele>814.0</ele><time>2026-04-29T10:38:50.965Z</time></trkpt><trkpt lat="37.7204658" lon="22.2479571"><ele>815.6666666666667</ele><time>2026-04-29T10:38:51.965Z</time></trkpt><trkpt lat="37.7203819" lon="22.2479839"><ele>817.3333333333334</ele><time>2026-04-29T10:38:52.965Z</time></trkpt><trkpt lat="37.7202988" lon="22.2479932"><ele>819.0</ele><time>2026-04-29T10:38:53.964Z</time></trkpt><trkpt lat="37.7202239" lon="22.2479983"><ele>820.8333333333334</ele><time>2026-04-29T10:38:54.965Z</time></trkpt><trkpt lat="37.7201457" lon="22.2479997"><ele>822.6666666666667</ele><time>2026-04-29T10:38:55.965Z</time></trkpt><trkpt lat="37.7200733" lon="22.2480038"><ele>824.5</ele><time>2026-04-29T10:38:56.964Z</time></trkpt><trkpt lat="37.7200055" lon="22.2480012"><ele>826.3333333333334</ele><time>2026-04-29T10:38:57.964Z</time></trkpt><trkpt lat="37.7198994" lon="22.2479988"><ele>828.1666666666667</ele><time>2026-04-29T10:38:59.964Z</time></trkpt><trkpt lat="37.719822" lon="22.2480045"><ele>830.0</ele><time>2026-04-29T10:39:01.965Z</time></trkpt><trkpt lat="37.7197887" lon="22.2481074"><ele>830.3333333333334</ele><time>2026-04-29T10:39:03.965Z</time></trkpt><trkpt lat="37.7197878" lon="22.2482521"><ele>830.6666666666667</ele><time>2026-04-29T10:39:05.965Z</time></trkpt><trkpt lat="37.7197829" lon="22.2483328"><ele>831.0</ele><time>2026-04-29T10:39:06.964Z</time></trkpt><trkpt lat="37.7197826" lon="22.2484179"><ele>831.3333333333333</ele><time>2026-04-29T10:39:07.965Z</time></trkpt><trkpt lat="37.7197801" lon="22.2485347"><ele>831.6666666666666</ele><time>2026-04-29T10:39:09.965Z</time></trkpt><trkpt lat="37.719776" lon="22.2486574"><ele>832.0</ele><time>2026-04-29T10:39:11.964Z</time></trkpt><trkpt lat="37.7197693" lon="22.2487987"><ele>832.0</ele><time>2026-04-29T10:39:13.965Z</time></trkpt><trkpt lat="37.7197672" lon="22.2489547"><ele>832.0</ele><time>2026-04-29T10:39:15.964Z</time></trkpt><trkpt lat="37.71976" lon="22.2490965"><ele>832.0</ele><time>2026-04-29T10:39:17.965Z</time></trkpt><trkpt lat="37.7197506" lon="22.2491944"><ele>832.0</ele><time>2026-04-29T10:39:19.964Z</time></trkpt><trkpt lat="37.7197459" lon="22.2493071"><ele>832.0</ele><time>2026-04-29T10:39:21.964Z</time></trkpt><trkpt lat="37.7197427" lon="22.2494125"><ele>832.1428571428571</ele><time>2026-04-29T10:39:23.964Z</time></trkpt><trkpt lat="37.7197553" lon="22.2495048"><ele>832.2857142857143</ele><time>2026-04-29T10:39:26.965Z</time></trkpt><trkpt lat="37.71974" lon="22.2496136"><ele>832.4285714285714</ele><time>2026-04-29T10:39:33.965Z</time></trkpt><trkpt lat="37.719654" lon="22.2496105"><ele>832.5714285714286</ele><time>2026-04-29T10:39:37.965Z</time></trkpt><trkpt lat="37.7195898" lon="22.249603"><ele>832.7142857142858</ele><time>2026-04-29T10:39:39.965Z</time></trkpt><trkpt lat="37.7195343" lon="22.2496477"><ele>832.8571428571429</ele><time>2026-04-29T10:39:42.965Z</time></trkpt><trkpt lat="37.7194881" lon="22.2495843"><ele>833.0</ele><time>2026-04-29T10:41:53.958Z</time></trkpt><trkpt lat="37.7194202" lon="22.2495376"><ele>833.0</ele><time>2026-04-29T10:42:06.957Z</time></trkpt><trkpt lat="37.7194875" lon="22.2495022"><ele>833.0</ele><time>2026-04-29T10:43:05.958Z</time></trkpt><trkpt lat="37.7195377" lon="22.2494522"><ele>833.0</ele><time>2026-04-29T10:43:13.958Z</time></trkpt><trkpt lat="37.719571" lon="22.2493815"><ele>833.0</ele><time>2026-04-29T10:43:21.958Z</time></trkpt><trkpt lat="37.7195047" lon="22.2493908"><ele>833.0</ele><time>2026-04-29T10:43:27.898Z</time></trkpt><trkpt lat="37.7194318" lon="22.2494043"><ele>833.0</ele><time>2026-04-29T10:46:04.957Z</time></trkpt><trkpt lat="37.7194141" lon="22.2494892"><ele>833.0</ele><time>2026-04-29T10:47:34.958Z</time></trkpt><trkpt lat="37.719483" lon="22.2494687"><ele>833.0</ele><time>2026-04-29T10:53:14.957Z</time></trkpt><trkpt lat="37.7195456" lon="22.2494383"><ele>833.0</ele><time>2026-04-29T10:53:24.958Z</time></trkpt><trkpt lat="37.7194884" lon="22.2494731"><ele>833.0</ele><time>2026-04-29T10:53:51.958Z</time></trkpt><trkpt lat="37.7194287" lon="22.249512"><ele>833.0</ele><time>2026-04-29T10:53:55.957Z</time></trkpt><trkpt lat="37.7194362" lon="22.2495958"><ele>833.0</ele><time>2026-04-29T12:01:18.954Z</time></trkpt><trkpt lat="37.7195034" lon="22.2496106"><ele>833.0</ele><time>2026-04-29T12:01:38.955Z</time></trkpt><trkpt lat="37.7195613" lon="22.2496466"><ele>833.0</ele><time>2026-04-29T12:01:45.954Z</time></trkpt><trkpt lat="37.7196495" lon="22.2496705"><ele>833.0000000000001</ele><time>2026-04-29T12:03:46.955Z</time></trkpt><trkpt lat="37.7197354" lon="22.2497042"><ele>833.0</ele><time>2026-04-29T12:03:48.955Z</time></trkpt><trkpt lat="37.7197453" lon="22.2497868"><ele>833.0</ele><time>2026-04-29T12:03:52.954Z</time></trkpt><trkpt lat="37.7197315" lon="22.2498705"><ele>833.0</ele><time>2026-04-29T12:06:43.954Z</time></trkpt><trkpt lat="37.7197166" lon="22.2499849"><ele>833.0000000000001</ele><time>2026-04-29T12:06:45.955Z</time></trkpt><trkpt lat="37.7196995" lon="22.2501094"><ele>833.0</ele><time>2026-04-29T12:06:47.954Z</time></trkpt><trkpt lat="37.7196811" lon="22.2502097"><ele>832.8333333333334</ele><time>2026-04-29T12:06:49.955Z</time></trkpt><trkpt lat="37.7196575" lon="22.2502932"><ele>832.6666666666667</ele><time>2026-04-29T12:06:51.955Z</time></trkpt><trkpt lat="37.7196381" lon="22.2503883"><ele>832.5</ele><time>2026-04-29T12:06:54.955Z</time></trkpt><trkpt lat="37.7196211" lon="22.2504772"><ele>832.3333333333333</ele><time>2026-04-29T12:07:17.955Z</time></trkpt><trkpt lat="37.7196913" lon="22.2505416"><ele>832.1666666666666</ele><time>2026-04-29T12:07:20.955Z</time></trkpt><trkpt lat="37.7197963" lon="22.2505649"><ele>832.0</ele><time>2026-04-29T12:07:22.954Z</time></trkpt><trkpt lat="37.7198795" lon="22.2505797"><ele>832.0</ele><time>2026-04-29T12:07:23.955Z</time></trkpt><trkpt lat="37.7199642" lon="22.2505924"><ele>832.0</ele><time>2026-04-29T12:07:24.955Z</time></trkpt><trkpt lat="37.7200593" lon="22.2506082"><ele>832.0</ele><time>2026-04-29T12:07:25.954Z</time></trkpt><trkpt lat="37.7201515" lon="22.2506175"><ele>832.0</ele><time>2026-04-29T12:07:26.955Z</time></trkpt><trkpt lat="37.720241" lon="22.2506265"><ele>832.0</ele><time>2026-04-29T12:07:27.954Z</time></trkpt><trkpt lat="37.7203305" lon="22.2506332"><ele>829.4000000000001</ele><time>2026-04-29T12:07:28.954Z</time></trkpt><trkpt lat="37.7204339" lon="22.2506509"><ele>826.8000000000001</ele><time>2026-04-29T12:07:29.955Z</time></trkpt><trkpt lat="37.7205431" lon="22.2506687"><ele>824.2</ele><time>2026-04-29T12:07:30.955Z</time></trkpt><trkpt lat="37.7206507" lon="22.250678"><ele>821.6</ele><time>2026-04-29T12:07:31.954Z</time></trkpt><trkpt lat="37.7207566" lon="22.2506812"><ele>819.0</ele><time>2026-04-29T12:07:32.955Z</time></trkpt><trkpt lat="37.7208615" lon="22.250682"><ele>819.0</ele><time>2026-04-29T12:07:33.955Z</time></trkpt><trkpt lat="37.7209659" lon="22.2506797"><ele>819.0</ele><time>2026-04-29T12:07:34.954Z</time></trkpt><trkpt lat="37.7210638" lon="22.2506775"><ele>819.0</ele><time>2026-04-29T12:07:35.955Z</time></trkpt><trkpt lat="37.7211659" lon="22.2506807"><ele>819.0</ele><time>2026-04-29T12:07:36.954Z</time></trkpt><trkpt lat="37.7212671" lon="22.2506825"><ele>819.0</ele><time>2026-04-29T12:07:37.954Z</time></trkpt><trkpt lat="37.7213661" lon="22.2506836"><ele>816.4000000000001</ele><time>2026-04-29T12:07:38.955Z</time></trkpt><trkpt lat="37.7214641" lon="22.2506905"><ele>813.8</ele><time>2026-04-29T12:07:39.955Z</time></trkpt><trkpt lat="37.7215611" lon="22.2506961"><ele>811.2</ele><time>2026-04-29T12:07:40.955Z</time></trkpt><trkpt lat="37.7216572" lon="22.2507048"><ele>808.5999999999999</ele><time>2026-04-29T12:07:41.954Z</time></trkpt><trkpt lat="37.7217523" lon="22.2507109"><ele>806.0</ele><time>2026-04-29T12:07:42.955Z</time></trkpt><trkpt lat="37.721847" lon="22.2507122"><ele>803.8</ele><time>2026-04-29T12:07:43.955Z</time></trkpt><trkpt lat="37.7219388" lon="22.250711"><ele>801.5999999999999</ele><time>2026-04-29T12:07:44.955Z</time></trkpt><trkpt lat="37.7220305" lon="22.2507105"><ele>799.4</ele><time>2026-04-29T12:07:45.955Z</time></trkpt><trkpt lat="37.7221208" lon="22.2507125"><ele>797.2</ele><time>2026-04-29T12:07:46.955Z</time></trkpt><trkpt lat="37.7222101" lon="22.2507149"><ele>795.0</ele><time>2026-04-29T12:07:47.954Z</time></trkpt><trkpt lat="37.7222989" lon="22.2507177"><ele>795.0</ele><time>2026-04-29T12:07:48.954Z</time></trkpt><trkpt lat="37.7223914" lon="22.2507242"><ele>795.0</ele><time>2026-04-29T12:07:49.954Z</time></trkpt><trkpt lat="37.7224814" lon="22.2507263"><ele>795.0</ele><time>2026-04-29T12:07:50.955Z</time></trkpt><trkpt lat="37.7225692" lon="22.2507301"><ele>795.0</ele><time>2026-04-29T12:07:51.954Z</time></trkpt><trkpt lat="37.7226562" lon="22.250736"><ele>795.0</ele><time>2026-04-29T12:07:52.955Z</time></trkpt><trkpt lat="37.7227325" lon="22.2507451"><ele>795.0</ele><time>2026-04-29T12:07:53.954Z</time></trkpt><trkpt lat="37.7228059" lon="22.2507524"><ele>793.3333333333334</ele><time>2026-04-29T12:07:54.954Z</time></trkpt><trkpt lat="37.7228723" lon="22.2507599"><ele>791.6666666666667</ele><time>2026-04-29T12:07:55.954Z</time></trkpt><trkpt lat="37.7229756" lon="22.2507782"><ele>790.0</ele><time>2026-04-29T12:07:57.955Z</time></trkpt><trkpt lat="37.723043" lon="22.2508133"><ele>788.3333333333334</ele><time>2026-04-29T12:08:02.955Z</time></trkpt><trkpt lat="37.7230912" lon="22.2509005"><ele>786.6666666666667</ele><time>2026-04-29T12:08:05.954Z</time></trkpt><trkpt lat="37.7230729" lon="22.2510509"><ele>785.0</ele><time>2026-04-29T12:08:07.955Z</time></trkpt><trkpt lat="37.7230435" lon="22.2511591"><ele>785.0</ele><time>2026-04-29T12:08:08.955Z</time></trkpt><trkpt lat="37.7230156" lon="22.2512733"><ele>785.0</ele><time>2026-04-29T12:08:09.954Z</time></trkpt><trkpt lat="37.7229862" lon="22.2514008"><ele>785.0</ele><time>2026-04-29T12:08:10.954Z</time></trkpt><trkpt lat="37.7229506" lon="22.2515423"><ele>785.0</ele><time>2026-04-29T12:08:11.955Z</time></trkpt><trkpt lat="37.7229182" lon="22.251681"><ele>785.0</ele><time>2026-04-29T12:08:12.954Z</time></trkpt><trkpt lat="37.7228845" lon="22.2518254"><ele>785.25</ele><time>2026-04-29T12:08:13.955Z</time></trkpt><trkpt lat="37.7228493" lon="22.2519712"><ele>785.5</ele><time>2026-04-29T12:08:14.954Z</time></trkpt><trkpt lat="37.7228136" lon="22.2521117"><ele>785.75</ele><time>2026-04-29T12:08:15.954Z</time></trkpt><trkpt lat="37.7227746" lon="22.2522597"><ele>786.0</ele><time>2026-04-29T12:08:16.954Z</time></trkpt><trkpt lat="37.7227349" lon="22.2524061"><ele>787.5</ele><time>2026-04-29T12:08:17.954Z</time></trkpt><trkpt lat="37.7226952" lon="22.2525568"><ele>789.0</ele><time>2026-04-29T12:08:18.954Z</time></trkpt><trkpt lat="37.7226516" lon="22.2527062"><ele>790.5</ele><time>2026-04-29T12:08:19.954Z</time></trkpt><trkpt lat="37.7226019" lon="22.2528542"><ele>792.0</ele><time>2026-04-29T12:08:20.955Z</time></trkpt><trkpt lat="37.7225451" lon="22.2530013"><ele>790.25</ele><time>2026-04-29T12:08:21.954Z</time></trkpt><trkpt lat="37.7224806" lon="22.2531508"><ele>788.5</ele><time>2026-04-29T12:08:22.954Z</time></trkpt><trkpt lat="37.7224044" lon="22.2533041"><ele>786.75</ele><time>2026-04-29T12:08:23.954Z</time></trkpt><trkpt lat="37.7223285" lon="22.2534573"><ele>785.0</ele><time>2026-04-29T12:08:24.955Z</time></trkpt><trkpt lat="37.7222543" lon="22.2536102"><ele>785.0</ele><time>2026-04-29T12:08:25.954Z</time></trkpt><trkpt lat="37.7221779" lon="22.2537614"><ele>785.0</ele><time>2026-04-29T12:08:26.954Z</time></trkpt><trkpt lat="37.7221034" lon="22.2539191"><ele>785.0</ele><time>2026-04-29T12:08:27.954Z</time></trkpt><trkpt lat="37.7220308" lon="22.2540841"><ele>785.0</ele><time>2026-04-29T12:08:28.955Z</time></trkpt><trkpt lat="37.7219639" lon="22.2542608"><ele>786.3333333333334</ele><time>2026-04-29T12:08:29.954Z</time></trkpt><trkpt lat="37.7219064" lon="22.2544548"><ele>787.6666666666667</ele><time>2026-04-29T12:08:30.954Z</time></trkpt><trkpt lat="37.7218586" lon="22.2546627"><ele>789.0</ele><time>2026-04-29T12:08:31.955Z</time></trkpt><trkpt lat="37.7218198" lon="22.2548762"><ele>789.0</ele><time>2026-04-29T12:08:32.954Z</time></trkpt><trkpt lat="37.7217819" lon="22.2550904"><ele>789.0</ele><time>2026-04-29T12:08:33.954Z</time></trkpt><trkpt lat="37.7217484" lon="22.2552992"><ele>789.0</ele><time>2026-04-29T12:08:34.955Z</time></trkpt><trkpt lat="37.7217137" lon="22.2555052"><ele>787.6666666666667</ele><time>2026-04-29T12:08:35.955Z</time></trkpt><trkpt lat="37.7216823" lon="22.255707"><ele>786.3333333333334</ele><time>2026-04-29T12:08:36.955Z</time></trkpt><trkpt lat="37.7216464" lon="22.2559062"><ele>785.0</ele><time>2026-04-29T12:08:37.954Z</time></trkpt><trkpt lat="37.7216175" lon="22.2561064"><ele>785.0</ele><time>2026-04-29T12:08:38.955Z</time></trkpt><trkpt lat="37.7215851" lon="22.2563109"><ele>785.0</ele><time>2026-04-29T12:08:39.955Z</time></trkpt><trkpt lat="37.7215557" lon="22.2565137"><ele>785.0</ele><time>2026-04-29T12:08:40.954Z</time></trkpt><trkpt lat="37.721527" lon="22.2567178"><ele>783.0</ele><time>2026-04-29T12:08:41.954Z</time></trkpt><trkpt lat="37.7215076" lon="22.2569236"><ele>781.0</ele><time>2026-04-29T12:08:42.954Z</time></trkpt><trkpt lat="37.7214994" lon="22.2571291"><ele>779.0</ele><time>2026-04-29T12:08:43.954Z</time></trkpt><trkpt lat="37.7215019" lon="22.2573314"><ele>778.6666666666667</ele><time>2026-04-29T12:08:44.954Z</time></trkpt><trkpt lat="37.7215158" lon="22.2575372"><ele>778.3333333333333</ele><time>2026-04-29T12:08:45.955Z</time></trkpt><trkpt lat="37.7215436" lon="22.2577449"><ele>778.0</ele><time>2026-04-29T12:08:46.955Z</time></trkpt><trkpt lat="37.7215822" lon="22.2579542"><ele>779.6666666666666</ele><time>2026-04-29T12:08:47.954Z</time></trkpt><trkpt lat="37.7216276" lon="22.2581571"><ele>781.3333333333333</ele><time>2026-04-29T12:08:48.954Z</time></trkpt><trkpt lat="37.7216824" lon="22.2583626"><ele>783.0</ele><time>2026-04-29T12:08:49.954Z</time></trkpt><trkpt lat="37.7217376" lon="22.2585664"><ele>783.0</ele><time>2026-04-29T12:08:50.955Z</time></trkpt><trkpt lat="37.721794" lon="22.2587688"><ele>783.0</ele><time>2026-04-29T12:08:51.954Z</time></trkpt><trkpt lat="37.721853" lon="22.2589705"><ele>783.0</ele><time>2026-04-29T12:08:52.955Z</time></trkpt><trkpt lat="37.7219081" lon="22.2591753"><ele>780.0</ele><time>2026-04-29T12:08:53.954Z</time></trkpt><trkpt lat="37.7219648" lon="22.2593783"><ele>777.0</ele><time>2026-04-29T12:08:54.955Z</time></trkpt><trkpt lat="37.7220245" lon="22.2595769"><ele>774.0</ele><time>2026-04-29T12:08:55.955Z</time></trkpt><trkpt lat="37.7220798" lon="22.2597746"><ele>774.6666666666667</ele><time>2026-04-29T12:08:56.954Z</time></trkpt><trkpt lat="37.7221245" lon="22.2599648"><ele>775.3333333333334</ele><time>2026-04-29T12:08:57.954Z</time></trkpt><trkpt lat="37.7221726" lon="22.2601437"><ele>776.0</ele><time>2026-04-29T12:08:58.955Z</time></trkpt><trkpt lat="37.7222139" lon="22.2603239"><ele>776.0</ele><time>2026-04-29T12:08:59.955Z</time></trkpt><trkpt lat="37.7222562" lon="22.2605062"><ele>776.0</ele><time>2026-04-29T12:09:00.955Z</time></trkpt><trkpt lat="37.7222914" lon="22.2606849"><ele>776.0</ele><time>2026-04-29T12:09:01.954Z</time></trkpt><trkpt lat="37.7223146" lon="22.2608674"><ele>776.0</ele><time>2026-04-29T12:09:02.954Z</time></trkpt><trkpt lat="37.7223293" lon="22.2610557"><ele>776.6666666666667</ele><time>2026-04-29T12:09:03.955Z</time></trkpt><trkpt lat="37.7223388" lon="22.2612477"><ele>777.3333333333333</ele><time>2026-04-29T12:09:04.955Z</time></trkpt><trkpt lat="37.7223451" lon="22.2614448"><ele>778.0</ele><time>2026-04-29T12:09:05.954Z</time></trkpt><trkpt lat="37.7223492" lon="22.2616464"><ele>778.0</ele><time>2026-04-29T12:09:06.955Z</time></trkpt><trkpt lat="37.722352" lon="22.2618594"><ele>778.0</ele><time>2026-04-29T12:09:07.955Z</time></trkpt><trkpt lat="37.722351" lon="22.2620696"><ele>778.0</ele><time>2026-04-29T12:09:08.954Z</time></trkpt><trkpt lat="37.7223506" lon="22.262282"><ele>777.6666666666666</ele><time>2026-04-29T12:09:09.954Z</time></trkpt><trkpt lat="37.7223493" lon="22.2624912"><ele>777.3333333333333</ele><time>2026-04-29T12:09:10.954Z</time></trkpt><trkpt lat="37.7223473" lon="22.2626985"><ele>777.0</ele><time>2026-04-29T12:09:11.955Z</time></trkpt><trkpt lat="37.7223486" lon="22.2628991"><ele>777.0</ele><time>2026-04-29T12:09:12.955Z</time></trkpt><trkpt lat="37.7223548" lon="22.2631003"><ele>777.0</ele><time>2026-04-29T12:09:13.954Z</time></trkpt><trkpt lat="37.7223635" lon="22.2633008"><ele>777.0</ele><time>2026-04-29T12:09:14.954Z</time></trkpt><trkpt lat="37.7223751" lon="22.2634993"><ele>777.0</ele><time>2026-04-29T12:09:15.954Z</time></trkpt><trkpt lat="37.7223882" lon="22.2636975"><ele>777.0</ele><time>2026-04-29T12:09:16.955Z</time></trkpt><trkpt lat="37.7224034" lon="22.2638977"><ele>777.0</ele><time>2026-04-29T12:09:17.955Z</time></trkpt><trkpt lat="37.7224228" lon="22.264102"><ele>777.6666666666667</ele><time>2026-04-29T12:09:18.955Z</time></trkpt><trkpt lat="37.7224547" lon="22.2643223"><ele>778.3333333333334</ele><time>2026-04-29T12:09:19.954Z</time></trkpt><trkpt lat="37.7224912" lon="22.2645588"><ele>779.0</ele><time>2026-04-29T12:09:20.955Z</time></trkpt><trkpt lat="37.7225276" lon="22.2648288"><ele>782.0</ele><time>2026-04-29T12:09:21.955Z</time></trkpt><trkpt lat="37.7225649" lon="22.2651296"><ele>785.0</ele><time>2026-04-29T12:09:22.954Z</time></trkpt><trkpt lat="37.722596" lon="22.2654419"><ele>785.0</ele><time>2026-04-29T12:09:23.955Z</time></trkpt><trkpt lat="37.7226228" lon="22.2657516"><ele>785.0</ele><time>2026-04-29T12:09:24.955Z</time></trkpt><trkpt lat="37.7226397" lon="22.2660566"><ele>785.0</ele><time>2026-04-29T12:09:25.955Z</time></trkpt><trkpt lat="37.7226614" lon="22.2663474"><ele>785.0</ele><time>2026-04-29T12:09:26.954Z</time></trkpt><trkpt lat="37.7226857" lon="22.2666301"><ele>784.6666666666667</ele><time>2026-04-29T12:09:27.955Z</time></trkpt><trkpt lat="37.7227056" lon="22.2669"><ele>784.3333333333333</ele><time>2026-04-29T12:09:28.954Z</time></trkpt><trkpt lat="37.7227152" lon="22.2671551"><ele>784.0</ele><time>2026-04-29T12:09:29.954Z</time></trkpt><trkpt lat="37.7227158" lon="22.2674092"><ele>783.6666666666666</ele><time>2026-04-29T12:09:30.954Z</time></trkpt><trkpt lat="37.7227055" lon="22.2676688"><ele>783.3333333333333</ele><time>2026-04-29T12:09:31.955Z</time></trkpt><trkpt lat="37.7226812" lon="22.2679342"><ele>783.0</ele><time>2026-04-29T12:09:32.954Z</time></trkpt><trkpt lat="37.7226323" lon="22.2681962"><ele>783.0</ele><time>2026-04-29T12:09:33.955Z</time></trkpt><trkpt lat="37.7225623" lon="22.2684628"><ele>783.0</ele><time>2026-04-29T12:09:34.955Z</time></trkpt><trkpt lat="37.7224792" lon="22.2687325"><ele>780.5</ele><time>2026-04-29T12:09:35.955Z</time></trkpt><trkpt lat="37.7223869" lon="22.2690018"><ele>778.0</ele><time>2026-04-29T12:09:36.955Z</time></trkpt><trkpt lat="37.7222871" lon="22.2692785"><ele>778.0</ele><time>2026-04-29T12:09:37.954Z</time></trkpt><trkpt lat="37.722184" lon="22.2695547"><ele>778.0</ele><time>2026-04-29T12:09:38.955Z</time></trkpt><trkpt lat="37.7220791" lon="22.2698404"><ele>776.5</ele><time>2026-04-29T12:09:39.955Z</time></trkpt><trkpt lat="37.7219716" lon="22.2701311"><ele>775.0</ele><time>2026-04-29T12:09:40.954Z</time></trkpt><trkpt lat="37.721861" lon="22.2704261"><ele>778.0</ele><time>2026-04-29T12:09:41.954Z</time></trkpt><trkpt lat="37.7217474" lon="22.2707254"><ele>781.0</ele><time>2026-04-29T12:09:42.954Z</time></trkpt><trkpt lat="37.7216329" lon="22.2710251"><ele>781.0</ele><time>2026-04-29T12:09:43.954Z</time></trkpt><trkpt lat="37.7215185" lon="22.2713305"><ele>781.0</ele><time>2026-04-29T12:09:44.954Z</time></trkpt><trkpt lat="37.7214063" lon="22.2716374"><ele>778.5</ele><time>2026-04-29T12:09:45.955Z</time></trkpt><trkpt lat="37.7212905" lon="22.2719454"><ele>776.0</ele><time>2026-04-29T12:09:46.954Z</time></trkpt><trkpt lat="37.7211761" lon="22.2722526"><ele>778.0</ele><time>2026-04-29T12:09:47.954Z</time></trkpt><trkpt lat="37.7210595" lon="22.2725573"><ele>780.0</ele><time>2026-04-29T12:09:48.954Z</time></trkpt><trkpt lat="37.7209428" lon="22.2728609"><ele>778.0</ele><time>2026-04-29T12:09:49.955Z</time></trkpt><trkpt lat="37.7208279" lon="22.2731649"><ele>776.0</ele><time>2026-04-29T12:09:50.954Z</time></trkpt><trkpt lat="37.7207129" lon="22.2734665"><ele>776.0</ele><time>2026-04-29T12:09:51.955Z</time></trkpt><trkpt lat="37.7205977" lon="22.2737691"><ele>776.0</ele><time>2026-04-29T12:09:52.955Z</time></trkpt><trkpt lat="37.7204844" lon="22.2740696"><ele>775.0</ele><time>2026-04-29T12:09:53.955Z</time></trkpt><trkpt lat="37.7203728" lon="22.2743698"><ele>774.0</ele><time>2026-04-29T12:09:54.954Z</time></trkpt><trkpt lat="37.7202643" lon="22.2746643"><ele>773.5</ele><time>2026-04-29T12:09:55.955Z</time></trkpt><trkpt lat="37.7201612" lon="22.2749459"><ele>773.0</ele><time>2026-04-29T12:09:56.954Z</time></trkpt><trkpt lat="37.7200596" lon="22.2752117"><ele>773.0</ele><time>2026-04-29T12:09:57.955Z</time></trkpt><trkpt lat="37.719958" lon="22.2754782"><ele>773.0</ele><time>2026-04-29T12:09:58.955Z</time></trkpt><trkpt lat="37.7198578" lon="22.2757466"><ele>772.0</ele><time>2026-04-29T12:09:59.955Z</time></trkpt><trkpt lat="37.7197574" lon="22.2760167"><ele>771.0</ele><time>2026-04-29T12:10:00.954Z</time></trkpt><trkpt lat="37.7196559" lon="22.2762861"><ele>769.5</ele><time>2026-04-29T12:10:01.955Z</time></trkpt><trkpt lat="37.7195548" lon="22.2765574"><ele>768.0</ele><time>2026-04-29T12:10:02.955Z</time></trkpt><trkpt lat="37.7194527" lon="22.2768296"><ele>767.5</ele><time>2026-04-29T12:10:03.955Z</time></trkpt><trkpt lat="37.7193514" lon="22.2771017"><ele>767.0</ele><time>2026-04-29T12:10:04.955Z</time></trkpt><trkpt lat="37.719251" lon="22.2773713"><ele>767.0</ele><time>2026-04-29T12:10:05.954Z</time></trkpt><trkpt lat="37.7191499" lon="22.2776415"><ele>767.0</ele><time>2026-04-29T12:10:06.954Z</time></trkpt><trkpt lat="37.7190465" lon="22.2779128"><ele>765.5</ele><time>2026-04-29T12:10:07.955Z</time></trkpt><trkpt lat="37.7189427" lon="22.2781828"><ele>764.0</ele><time>2026-04-29T12:10:08.954Z</time></trkpt><trkpt lat="37.7188362" lon="22.2784385"><ele>764.0</ele><time>2026-04-29T12:10:09.954Z</time></trkpt><trkpt lat="37.7187267" lon="22.2786741"><ele>764.0</ele><time>2026-04-29T12:10:10.954Z</time></trkpt><trkpt lat="37.7185959" lon="22.2788834"><ele>764.0</ele><time>2026-04-29T12:10:11.955Z</time></trkpt><trkpt lat="37.718444" lon="22.2790596"><ele>763.6666666666666</ele><time>2026-04-29T12:10:12.955Z</time></trkpt><trkpt lat="37.7182716" lon="22.2792072"><ele>763.3333333333334</ele><time>2026-04-29T12:10:13.955Z</time></trkpt><trkpt lat="37.7180811" lon="22.2793123"><ele>763.0</ele><time>2026-04-29T12:10:14.954Z</time></trkpt><trkpt lat="37.717878" lon="22.2793931"><ele>763.3333333333334</ele><time>2026-04-29T12:10:15.955Z</time></trkpt><trkpt lat="37.7176654" lon="22.2794611"><ele>763.6666666666666</ele><time>2026-04-29T12:10:16.955Z</time></trkpt><trkpt lat="37.7174482" lon="22.2795158"><ele>764.0</ele><time>2026-04-29T12:10:17.954Z</time></trkpt><trkpt lat="37.7172304" lon="22.2795682"><ele>764.0</ele><time>2026-04-29T12:10:18.955Z</time></trkpt><trkpt lat="37.7170111" lon="22.279625"><ele>764.0</ele><time>2026-04-29T12:10:19.954Z</time></trkpt><trkpt lat="37.7167934" lon="22.2796799"><ele>764.0</ele><time>2026-04-29T12:10:20.954Z</time></trkpt><trkpt lat="37.7165787" lon="22.2797347"><ele>762.6666666666666</ele><time>2026-04-29T12:10:21.954Z</time></trkpt><trkpt lat="37.7163697" lon="22.2797887"><ele>761.3333333333334</ele><time>2026-04-29T12:10:22.954Z</time></trkpt><trkpt lat="37.7161671" lon="22.2798357"><ele>760.0</ele><time>2026-04-29T12:10:23.955Z</time></trkpt><trkpt lat="37.7159666" lon="22.2798836"><ele>760.0</ele><time>2026-04-29T12:10:24.955Z</time></trkpt><trkpt lat="37.7157692" lon="22.2799304"><ele>760.0</ele><time>2026-04-29T12:10:25.954Z</time></trkpt><trkpt lat="37.7155727" lon="22.2799806"><ele>760.0</ele><time>2026-04-29T12:10:26.955Z</time></trkpt><trkpt lat="37.7153739" lon="22.2800309"><ele>760.3333333333334</ele><time>2026-04-29T12:10:27.954Z</time></trkpt><trkpt lat="37.715177" lon="22.2800781"><ele>760.6666666666666</ele><time>2026-04-29T12:10:28.955Z</time></trkpt><trkpt lat="37.7149788" lon="22.2801281"><ele>761.0</ele><time>2026-04-29T12:10:29.954Z</time></trkpt><trkpt lat="37.7147813" lon="22.2801816"><ele>761.0</ele><time>2026-04-29T12:10:30.954Z</time></trkpt><trkpt lat="37.7145848" lon="22.280242"><ele>761.0</ele><time>2026-04-29T12:10:31.955Z</time></trkpt><trkpt lat="37.7143922" lon="22.2803135"><ele>761.0</ele><time>2026-04-29T12:10:32.955Z</time></trkpt><trkpt lat="37.7142023" lon="22.2803973"><ele>761.0</ele><time>2026-04-29T12:10:33.955Z</time></trkpt><trkpt lat="37.7140205" lon="22.2804971"><ele>761.0</ele><time>2026-04-29T12:10:34.955Z</time></trkpt><trkpt lat="37.7138442" lon="22.2806117"><ele>761.0</ele><time>2026-04-29T12:10:35.954Z</time></trkpt><trkpt lat="37.7136738" lon="22.2807365"><ele>760.3333333333333</ele><time>2026-04-29T12:10:36.954Z</time></trkpt><trkpt lat="37.7135057" lon="22.2808651"><ele>759.6666666666666</ele><time>2026-04-29T12:10:37.955Z</time></trkpt><trkpt lat="37.7133369" lon="22.2809966"><ele>759.0</ele><time>2026-04-29T12:10:38.954Z</time></trkpt><trkpt lat="37.7131683" lon="22.2811306"><ele>759.0</ele><time>2026-04-29T12:10:39.955Z</time></trkpt><trkpt lat="37.7129992" lon="22.281265"><ele>759.0</ele><time>2026-04-29T12:10:40.955Z</time></trkpt><trkpt lat="37.7128276" lon="22.2814004"><ele>759.0</ele><time>2026-04-29T12:10:41.954Z</time></trkpt><trkpt lat="37.7126537" lon="22.2815334"><ele>758.3333333333334</ele><time>2026-04-29T12:10:42.955Z</time></trkpt><trkpt lat="37.7124741" lon="22.2816659"><ele>757.6666666666667</ele><time>2026-04-29T12:10:43.955Z</time></trkpt><trkpt lat="37.7122902" lon="22.2817963"><ele>757.0</ele><time>2026-04-29T12:10:44.954Z</time></trkpt><trkpt lat="37.7121018" lon="22.2819221"><ele>757.0</ele><time>2026-04-29T12:10:45.955Z</time></trkpt><trkpt lat="37.7119084" lon="22.282045"><ele>757.0</ele><time>2026-04-29T12:10:46.955Z</time></trkpt><trkpt lat="37.7117093" lon="22.2821659"><ele>757.0</ele><time>2026-04-29T12:10:47.955Z</time></trkpt><trkpt lat="37.7115042" lon="22.2822832"><ele>755.5</ele><time>2026-04-29T12:10:48.954Z</time></trkpt><trkpt lat="37.7112977" lon="22.2824018"><ele>754.0</ele><time>2026-04-29T12:10:49.955Z</time></trkpt><trkpt lat="37.711089" lon="22.2825198"><ele>757.3333333333334</ele><time>2026-04-29T12:10:50.954Z</time></trkpt><trkpt lat="37.7108842" lon="22.282638"><ele>760.6666666666666</ele><time>2026-04-29T12:10:51.955Z</time></trkpt><trkpt lat="37.7106817" lon="22.2827536"><ele>764.0</ele><time>2026-04-29T12:10:52.954Z</time></trkpt><trkpt lat="37.710486" lon="22.2828648"><ele>764.0</ele><time>2026-04-29T12:10:53.955Z</time></trkpt><trkpt lat="37.7102946" lon="22.2829753"><ele>764.0</ele><time>2026-04-29T12:10:54.954Z</time></trkpt><trkpt lat="37.7101045" lon="22.2830821"><ele>764.0</ele><time>2026-04-29T12:10:55.954Z</time></trkpt><trkpt lat="37.7099174" lon="22.2831886"><ele>762.6666666666666</ele><time>2026-04-29T12:10:56.954Z</time></trkpt><trkpt lat="37.7097289" lon="22.2832977"><ele>761.3333333333334</ele><time>2026-04-29T12:10:57.954Z</time></trkpt><trkpt lat="37.7095389" lon="22.283408"><ele>760.0</ele><time>2026-04-29T12:10:58.954Z</time></trkpt><trkpt lat="37.7093486" lon="22.2835157"><ele>759.3333333333334</ele><time>2026-04-29T12:10:59.955Z</time></trkpt><trkpt lat="37.7091579" lon="22.2836257"><ele>758.6666666666666</ele><time>2026-04-29T12:11:00.955Z</time></trkpt><trkpt lat="37.7089655" lon="22.2837363"><ele>758.0</ele><time>2026-04-29T12:11:01.955Z</time></trkpt><trkpt lat="37.7087742" lon="22.2838478"><ele>758.0</ele><time>2026-04-29T12:11:02.955Z</time></trkpt><trkpt lat="37.7085832" lon="22.2839585"><ele>758.0</ele><time>2026-04-29T12:11:03.954Z</time></trkpt><trkpt lat="37.7083905" lon="22.2840695"><ele>758.0</ele><time>2026-04-29T12:11:04.955Z</time></trkpt><trkpt lat="37.708196" lon="22.2841777"><ele>758.0</ele><time>2026-04-29T12:11:05.955Z</time></trkpt><trkpt lat="37.7079999" lon="22.2842886"><ele>758.0</ele><time>2026-04-29T12:11:06.955Z</time></trkpt><trkpt lat="37.7077981" lon="22.2843903"><ele>758.0</ele><time>2026-04-29T12:11:07.955Z</time></trkpt><trkpt lat="37.7075965" lon="22.2845034"><ele>758.6666666666666</ele><time>2026-04-29T12:11:08.954Z</time></trkpt><trkpt lat="37.7073972" lon="22.2846126"><ele>759.3333333333334</ele><time>2026-04-29T12:11:09.955Z</time></trkpt><trkpt lat="37.707197" lon="22.2847147"><ele>760.0</ele><time>2026-04-29T12:11:10.955Z</time></trkpt><trkpt lat="37.706999" lon="22.2847994"><ele>762.6666666666667</ele><time>2026-04-29T12:11:11.954Z</time></trkpt><trkpt lat="37.7067972" lon="22.2848635"><ele>765.3333333333334</ele><time>2026-04-29T12:11:12.955Z</time></trkpt><trkpt lat="37.7065863" lon="22.2849037"><ele>768.0</ele><time>2026-04-29T12:11:13.955Z</time></trkpt><trkpt lat="37.7063648" lon="22.2848998"><ele>768.0</ele><time>2026-04-29T12:11:14.954Z</time></trkpt><trkpt lat="37.7061426" lon="22.2848657"><ele>768.0</ele><time>2026-04-29T12:11:15.955Z</time></trkpt><trkpt lat="37.7059276" lon="22.2848117"><ele>768.0</ele><time>2026-04-29T12:11:16.954Z</time></trkpt><trkpt lat="37.7057174" lon="22.2847532"><ele>770.6666666666667</ele><time>2026-04-29T12:11:17.955Z</time></trkpt><trkpt lat="37.7055215" lon="22.2846986"><ele>773.3333333333334</ele><time>2026-04-29T12:11:18.955Z</time></trkpt><trkpt lat="37.7053367" lon="22.2846706"><ele>776.0</ele><time>2026-04-29T12:11:19.954Z</time></trkpt><trkpt lat="37.7051644" lon="22.2846782"><ele>776.0</ele><time>2026-04-29T12:11:20.954Z</time></trkpt><trkpt lat="37.7050115" lon="22.2847327"><ele>776.0</ele><time>2026-04-29T12:11:21.955Z</time></trkpt><trkpt lat="37.7048768" lon="22.2848322"><ele>776.0</ele><time>2026-04-29T12:11:22.954Z</time></trkpt><trkpt lat="37.704767" lon="22.2849736"><ele>773.6666666666667</ele><time>2026-04-29T12:11:23.954Z</time></trkpt><trkpt lat="37.7046852" lon="22.2851518"><ele>771.3333333333333</ele><time>2026-04-29T12:11:24.955Z</time></trkpt><trkpt lat="37.7046172" lon="22.2853555"><ele>769.0</ele><time>2026-04-29T12:11:25.954Z</time></trkpt><trkpt lat="37.7045619" lon="22.2855721"><ele>767.0</ele><time>2026-04-29T12:11:26.955Z</time></trkpt><trkpt lat="37.7045085" lon="22.2857865"><ele>765.0</ele><time>2026-04-29T12:11:27.955Z</time></trkpt><trkpt lat="37.704457" lon="22.2860006"><ele>763.0</ele><time>2026-04-29T12:11:28.955Z</time></trkpt><trkpt lat="37.7044075" lon="22.2862102"><ele>766.6666666666667</ele><time>2026-04-29T12:11:29.955Z</time></trkpt><trkpt lat="37.7043487" lon="22.2864269"><ele>770.3333333333334</ele><time>2026-04-29T12:11:30.954Z</time></trkpt><trkpt lat="37.7042861" lon="22.2866413"><ele>774.0</ele><time>2026-04-29T12:11:31.955Z</time></trkpt><trkpt lat="37.7042094" lon="22.2868482"><ele>774.0</ele><time>2026-04-29T12:11:32.954Z</time></trkpt><trkpt lat="37.7041195" lon="22.2870487"><ele>774.0</ele><time>2026-04-29T12:11:33.954Z</time></trkpt><trkpt lat="37.7040212" lon="22.2872363"><ele>774.0</ele><time>2026-04-29T12:11:34.955Z</time></trkpt><trkpt lat="37.7039002" lon="22.287415"><ele>773.6666666666667</ele><time>2026-04-29T12:11:35.955Z</time></trkpt><trkpt lat="37.7037584" lon="22.2875813"><ele>773.3333333333334</ele><time>2026-04-29T12:11:36.954Z</time></trkpt><trkpt lat="37.7035942" lon="22.2877412"><ele>773.0</ele><time>2026-04-29T12:11:37.955Z</time></trkpt><trkpt lat="37.7034154" lon="22.2878964"><ele>774.0</ele><time>2026-04-29T12:11:38.954Z</time></trkpt><trkpt lat="37.7032292" lon="22.2880481"><ele>775.0</ele><time>2026-04-29T12:11:39.955Z</time></trkpt><trkpt lat="37.7030393" lon="22.2881985"><ele>776.0</ele><time>2026-04-29T12:11:40.954Z</time></trkpt><trkpt lat="37.7028507" lon="22.2883505"><ele>779.3333333333334</ele><time>2026-04-29T12:11:41.954Z</time></trkpt><trkpt lat="37.7026625" lon="22.2884994"><ele>782.6666666666667</ele><time>2026-04-29T12:11:42.954Z</time></trkpt><trkpt lat="37.7024727" lon="22.2886383"><ele>786.0</ele><time>2026-04-29T12:11:43.955Z</time></trkpt><trkpt lat="37.7022759" lon="22.2887626"><ele>786.0</ele><time>2026-04-29T12:11:44.955Z</time></trkpt><trkpt lat="37.7020749" lon="22.2888636"><ele>786.0</ele><time>2026-04-29T12:11:45.954Z</time></trkpt><trkpt lat="37.7018721" lon="22.2889351"><ele>786.0</ele><time>2026-04-29T12:11:46.955Z</time></trkpt><trkpt lat="37.7016531" lon="22.2889636"><ele>782.5</ele><time>2026-04-29T12:11:47.955Z</time></trkpt><trkpt lat="37.7014294" lon="22.2889684"><ele>779.0</ele><time>2026-04-29T12:11:48.954Z</time></trkpt><trkpt lat="37.7012024" lon="22.2889553"><ele>779.5</ele><time>2026-04-29T12:11:49.955Z</time></trkpt><trkpt lat="37.7009675" lon="22.288938"><ele>780.0</ele><time>2026-04-29T12:11:50.955Z</time></trkpt><trkpt lat="37.7007157" lon="22.2889151"><ele>787.5</ele><time>2026-04-29T12:11:51.955Z</time></trkpt><trkpt lat="37.7004683" lon="22.2888909"><ele>795.0</ele><time>2026-04-29T12:11:52.955Z</time></trkpt><trkpt lat="37.7002239" lon="22.2888698"><ele>796.0</ele><time>2026-04-29T12:11:53.954Z</time></trkpt><trkpt lat="37.6999784" lon="22.2888533"><ele>797.0</ele><time>2026-04-29T12:11:54.955Z</time></trkpt><trkpt lat="37.6997322" lon="22.2888351"><ele>797.0</ele><time>2026-04-29T12:11:55.955Z</time></trkpt><trkpt lat="37.6994903" lon="22.2888137"><ele>797.0</ele><time>2026-04-29T12:11:56.955Z</time></trkpt><trkpt lat="37.6992512" lon="22.2887918"><ele>797.0</ele><time>2026-04-29T12:11:57.955Z</time></trkpt><trkpt lat="37.6990126" lon="22.2887717"><ele>797.0</ele><time>2026-04-29T12:11:58.955Z</time></trkpt><trkpt lat="37.6987767" lon="22.2887524"><ele>798.0</ele><time>2026-04-29T12:11:59.954Z</time></trkpt><trkpt lat="37.698544" lon="22.2887326"><ele>799.0</ele><time>2026-04-29T12:12:00.955Z</time></trkpt><trkpt lat="37.6983141" lon="22.2887103"><ele>799.0</ele><time>2026-04-29T12:12:01.955Z</time></trkpt><trkpt lat="37.6980856" lon="22.288687"><ele>799.0</ele><time>2026-04-29T12:12:02.955Z</time></trkpt><trkpt lat="37.6978623" lon="22.2886677"><ele>800.3333333333333</ele><time>2026-04-29T12:12:03.955Z</time></trkpt><trkpt lat="37.6976414" lon="22.2886508"><ele>801.6666666666667</ele><time>2026-04-29T12:12:04.955Z</time></trkpt><trkpt lat="37.697422" lon="22.2886489"><ele>803.0</ele><time>2026-04-29T12:12:05.954Z</time></trkpt><trkpt lat="37.6972052" lon="22.2886674"><ele>803.0</ele><time>2026-04-29T12:12:06.954Z</time></trkpt><trkpt lat="37.6969901" lon="22.288708"><ele>803.0</ele><time>2026-04-29T12:12:07.955Z</time></trkpt><trkpt lat="37.6967795" lon="22.288771"><ele>803.0</ele><time>2026-04-29T12:12:08.955Z</time></trkpt><trkpt lat="37.696574" lon="22.288861"><ele>804.6666666666667</ele><time>2026-04-29T12:12:09.955Z</time></trkpt><trkpt lat="37.6963727" lon="22.2889785"><ele>806.3333333333333</ele><time>2026-04-29T12:12:10.954Z</time></trkpt><trkpt lat="37.6961722" lon="22.2891116"><ele>808.0</ele><time>2026-04-29T12:12:11.955Z</time></trkpt><trkpt lat="37.6959712" lon="22.2892557"><ele>808.0</ele><time>2026-04-29T12:12:12.954Z</time></trkpt><trkpt lat="37.6957689" lon="22.2894012"><ele>808.0</ele><time>2026-04-29T12:12:13.954Z</time></trkpt><trkpt lat="37.695564" lon="22.2895489"><ele>808.0</ele><time>2026-04-29T12:12:14.955Z</time></trkpt><trkpt lat="37.6953582" lon="22.2896972"><ele>808.0</ele><time>2026-04-29T12:12:15.954Z</time></trkpt><trkpt lat="37.6951509" lon="22.2898448"><ele>807.5</ele><time>2026-04-29T12:12:16.954Z</time></trkpt><trkpt lat="37.6949415" lon="22.2899961"><ele>807.0</ele><time>2026-04-29T12:12:17.954Z</time></trkpt><trkpt lat="37.6947267" lon="22.2901553"><ele>807.0</ele><time>2026-04-29T12:12:18.954Z</time></trkpt><trkpt lat="37.6945098" lon="22.2903156"><ele>807.0</ele><time>2026-04-29T12:12:19.954Z</time></trkpt><trkpt lat="37.6942911" lon="22.2904764"><ele>808.0</ele><time>2026-04-29T12:12:20.955Z</time></trkpt><trkpt lat="37.6940744" lon="22.2906359"><ele>809.0</ele><time>2026-04-29T12:12:21.954Z</time></trkpt><trkpt lat="37.6938667" lon="22.2907834"><ele>809.0</ele><time>2026-04-29T12:12:22.955Z</time></trkpt><trkpt lat="37.6936633" lon="22.2909201"><ele>809.0</ele><time>2026-04-29T12:12:23.955Z</time></trkpt><trkpt lat="37.6934584" lon="22.2910436"><ele>815.0</ele><time>2026-04-29T12:12:24.955Z</time></trkpt><trkpt lat="37.6932473" lon="22.2911448"><ele>821.0</ele><time>2026-04-29T12:12:25.955Z</time></trkpt><trkpt lat="37.6930285" lon="22.2912133"><ele>821.0</ele><time>2026-04-29T12:12:26.955Z</time></trkpt><trkpt lat="37.6927993" lon="22.2912519"><ele>821.0</ele><time>2026-04-29T12:12:27.955Z</time></trkpt><trkpt lat="37.6925656" lon="22.2912711"><ele>824.3333333333334</ele><time>2026-04-29T12:12:28.955Z</time></trkpt><trkpt lat="37.6923326" lon="22.2912805"><ele>827.6666666666667</ele><time>2026-04-29T12:12:29.954Z</time></trkpt><trkpt lat="37.6921205" lon="22.2912886"><ele>831.0</ele><time>2026-04-29T12:12:30.955Z</time></trkpt><trkpt lat="37.6919184" lon="22.2912966"><ele>832.0</ele><time>2026-04-29T12:12:31.955Z</time></trkpt><trkpt lat="37.6917275" lon="22.2913071"><ele>833.0</ele><time>2026-04-29T12:12:32.954Z</time></trkpt><trkpt lat="37.691547" lon="22.2913312"><ele>834.0</ele><time>2026-04-29T12:12:33.954Z</time></trkpt><trkpt lat="37.6913823" lon="22.291379"><ele>834.6666666666667</ele><time>2026-04-29T12:12:34.954Z</time></trkpt><trkpt lat="37.6912281" lon="22.2914668"><ele>835.3333333333334</ele><time>2026-04-29T12:12:35.955Z</time></trkpt><trkpt lat="37.69109" lon="22.2915969"><ele>836.0</ele><time>2026-04-29T12:12:36.954Z</time></trkpt><trkpt lat="37.6909712" lon="22.2917679"><ele>836.0</ele><time>2026-04-29T12:12:37.955Z</time></trkpt><trkpt lat="37.690863" lon="22.2919668"><ele>836.0</ele><time>2026-04-29T12:12:38.955Z</time></trkpt><trkpt lat="37.6907484" lon="22.2921914"><ele>836.0</ele><time>2026-04-29T12:12:39.955Z</time></trkpt><trkpt lat="37.6906126" lon="22.2924293"><ele>827.5</ele><time>2026-04-29T12:12:40.954Z</time></trkpt><trkpt lat="37.6904543" lon="22.2926423"><ele>819.0</ele><time>2026-04-29T12:12:41.954Z</time></trkpt><trkpt lat="37.6902842" lon="22.2928521"><ele>825.5</ele><time>2026-04-29T12:12:42.955Z</time></trkpt><trkpt lat="37.6901107" lon="22.2930581"><ele>832.0</ele><time>2026-04-29T12:12:43.955Z</time></trkpt><trkpt lat="37.6899342" lon="22.2932628"><ele>832.0</ele><time>2026-04-29T12:12:44.954Z</time></trkpt><trkpt lat="37.6897528" lon="22.2934621"><ele>832.0</ele><time>2026-04-29T12:12:45.954Z</time></trkpt><trkpt lat="37.6895686" lon="22.2936577"><ele>835.5</ele><time>2026-04-29T12:12:46.954Z</time></trkpt><trkpt lat="37.6893819" lon="22.2938429"><ele>839.0</ele><time>2026-04-29T12:12:47.955Z</time></trkpt><trkpt lat="37.6892006" lon="22.2940258"><ele>839.0</ele><time>2026-04-29T12:12:48.955Z</time></trkpt><trkpt lat="37.689026" lon="22.2942058"><ele>839.0</ele><time>2026-04-29T12:12:49.954Z</time></trkpt><trkpt lat="37.6888535" lon="22.2943834"><ele>839.0</ele><time>2026-04-29T12:12:50.954Z</time></trkpt><trkpt lat="37.6886789" lon="22.2945583"><ele>840.3333333333334</ele><time>2026-04-29T12:12:51.955Z</time></trkpt><trkpt lat="37.6885113" lon="22.2947364"><ele>841.6666666666667</ele><time>2026-04-29T12:12:52.954Z</time></trkpt><trkpt lat="37.6883434" lon="22.294912"><ele>843.0</ele><time>2026-04-29T12:12:53.954Z</time></trkpt><trkpt lat="37.6881815" lon="22.2950813"><ele>843.0</ele><time>2026-04-29T12:12:54.954Z</time></trkpt><trkpt lat="37.6880065" lon="22.2952479"><ele>843.0</ele><time>2026-04-29T12:12:55.954Z</time></trkpt><trkpt lat="37.6878214" lon="22.2954061"><ele>843.0</ele><time>2026-04-29T12:12:56.955Z</time></trkpt><trkpt lat="37.6876265" lon="22.2955593"><ele>843.0</ele><time>2026-04-29T12:12:57.955Z</time></trkpt><trkpt lat="37.6874277" lon="22.2956995"><ele>843.0</ele><time>2026-04-29T12:12:58.954Z</time></trkpt><trkpt lat="37.6872258" lon="22.2958333"><ele>843.0</ele><time>2026-04-29T12:12:59.955Z</time></trkpt><trkpt lat="37.6870267" lon="22.2959535"><ele>843.0</ele><time>2026-04-29T12:13:00.955Z</time></trkpt><trkpt lat="37.6868315" lon="22.2960564"><ele>843.0</ele><time>2026-04-29T12:13:01.954Z</time></trkpt><trkpt lat="37.686651" lon="22.296144"><ele>849.0</ele><time>2026-04-29T12:13:02.955Z</time></trkpt><trkpt lat="37.686473" lon="22.2962214"><ele>855.0</ele><time>2026-04-29T12:13:03.955Z</time></trkpt><trkpt lat="37.6862949" lon="22.2962916"><ele>861.0</ele><time>2026-04-29T12:13:04.955Z</time></trkpt><trkpt lat="37.6861452" lon="22.2963485"><ele>862.0</ele><time>2026-04-29T12:13:05.955Z</time></trkpt><trkpt lat="37.6860017" lon="22.2963928"><ele>863.0</ele><time>2026-04-29T12:13:06.954Z</time></trkpt><trkpt lat="37.6858648" lon="22.2964254"><ele>864.0</ele><time>2026-04-29T12:13:07.954Z</time></trkpt><trkpt lat="37.6857283" lon="22.2964512"><ele>865.0</ele><time>2026-04-29T12:13:08.955Z</time></trkpt><trkpt lat="37.6856162" lon="22.2964706"><ele>859.5</ele><time>2026-04-29T12:13:09.955Z</time></trkpt><trkpt lat="37.6854895" lon="22.2964607"><ele>854.0</ele><time>2026-04-29T12:13:10.955Z</time></trkpt><trkpt lat="37.6853678" lon="22.2964658"><ele>848.5</ele><time>2026-04-29T12:13:11.955Z</time></trkpt><trkpt lat="37.6852526" lon="22.2964703"><ele>843.0</ele><time>2026-04-29T12:13:12.954Z</time></trkpt><trkpt lat="37.6851434" lon="22.2964702"><ele>843.0</ele><time>2026-04-29T12:13:13.955Z</time></trkpt><trkpt lat="37.6850493" lon="22.2964562"><ele>843.0</ele><time>2026-04-29T12:13:14.954Z</time></trkpt><trkpt lat="37.6849698" lon="22.296418"><ele>843.0</ele><time>2026-04-29T12:13:15.954Z</time></trkpt><trkpt lat="37.6849" lon="22.2963709"><ele>843.0</ele><time>2026-04-29T12:13:16.955Z</time></trkpt><trkpt lat="37.6848243" lon="22.2963165"><ele>843.0</ele><time>2026-04-29T12:13:17.954Z</time></trkpt><trkpt lat="37.6847547" lon="22.2962666"><ele>843.0</ele><time>2026-04-29T12:13:18.954Z</time></trkpt><trkpt lat="37.6846878" lon="22.2962101"><ele>844.8571428571429</ele><time>2026-04-29T12:13:19.954Z</time></trkpt><trkpt lat="37.6846269" lon="22.2961463"><ele>846.7142857142857</ele><time>2026-04-29T12:13:20.955Z</time></trkpt><trkpt lat="37.6845692" lon="22.2960768"><ele>848.5714285714287</ele><time>2026-04-29T12:13:21.955Z</time></trkpt><trkpt lat="37.6845432" lon="22.2959959"><ele>850.4285714285714</ele><time>2026-04-29T12:13:22.955Z</time></trkpt><trkpt lat="37.6845323" lon="22.2959087"><ele>852.2857142857143</ele><time>2026-04-29T12:13:23.954Z</time></trkpt><trkpt lat="37.684531" lon="22.295822"><ele>854.1428571428572</ele><time>2026-04-29T12:13:24.955Z</time></trkpt><trkpt lat="37.6845303" lon="22.2957298"><ele>856.0</ele><time>2026-04-29T12:13:25.955Z</time></trkpt><trkpt lat="37.684531" lon="22.2956429"><ele>856.4</ele><time>2026-04-29T12:13:26.955Z</time></trkpt><trkpt lat="37.6844859" lon="22.2955165"><ele>856.8</ele><time>2026-04-29T12:13:28.954Z</time></trkpt><trkpt lat="37.6843708" lon="22.2954761"><ele>857.1999999999999</ele><time>2026-04-29T12:13:30.954Z</time></trkpt><trkpt lat="37.6842966" lon="22.2954879"><ele>857.5999999999999</ele><time>2026-04-29T12:13:31.954Z</time></trkpt><trkpt lat="37.6842282" lon="22.2954984"><ele>858.0</ele><time>2026-04-29T12:13:32.954Z</time></trkpt><trkpt lat="37.6841034" lon="22.2955161"><ele>858.0</ele><time>2026-04-29T12:13:34.955Z</time></trkpt><trkpt lat="37.6839512" lon="22.2955044"><ele>858.0</ele><time>2026-04-29T12:13:36.955Z</time></trkpt><trkpt lat="37.6838662" lon="22.295497"><ele>858.0</ele><time>2026-04-29T12:13:37.954Z</time></trkpt><trkpt lat="37.6837793" lon="22.2955009"><ele>858.0</ele><time>2026-04-29T12:13:38.954Z</time></trkpt><trkpt lat="37.683689" lon="22.2955044"><ele>858.0</ele><time>2026-04-29T12:13:39.954Z</time></trkpt><trkpt lat="37.6835992" lon="22.2955075"><ele>858.4</ele><time>2026-04-29T12:13:40.955Z</time></trkpt><trkpt lat="37.6835079" lon="22.295511"><ele>858.8</ele><time>2026-04-29T12:13:41.954Z</time></trkpt><trkpt lat="37.6834146" lon="22.2955176"><ele>859.2</ele><time>2026-04-29T12:13:42.955Z</time></trkpt><trkpt lat="37.6833177" lon="22.2955189"><ele>859.6</ele><time>2026-04-29T12:13:43.955Z</time></trkpt><trkpt lat="37.6832125" lon="22.2955199"><ele>860.0</ele><time>2026-04-29T12:13:44.954Z</time></trkpt><trkpt lat="37.6831031" lon="22.2955215"><ele>860.0</ele><time>2026-04-29T12:13:45.954Z</time></trkpt><trkpt lat="37.6829977" lon="22.2955225"><ele>860.0</ele><time>2026-04-29T12:13:46.955Z</time></trkpt><trkpt lat="37.6828873" lon="22.2955268"><ele>860.0</ele><time>2026-04-29T12:13:47.954Z</time></trkpt><trkpt lat="37.6827772" lon="22.2955291"><ele>860.0</ele><time>2026-04-29T12:13:48.955Z</time></trkpt><trkpt lat="37.6826627" lon="22.2955338"><ele>860.0</ele><time>2026-04-29T12:13:49.955Z</time></trkpt><trkpt lat="37.6825494" lon="22.295539"><ele>860.75</ele><time>2026-04-29T12:13:50.955Z</time></trkpt><trkpt lat="37.6824315" lon="22.2955406"><ele>861.5</ele><time>2026-04-29T12:13:51.955Z</time></trkpt><trkpt lat="37.6823099" lon="22.2955401"><ele>862.25</ele><time>2026-04-29T12:13:52.955Z</time></trkpt><trkpt lat="37.6821829" lon="22.2955344"><ele>863.0</ele><time>2026-04-29T12:13:53.954Z</time></trkpt><trkpt lat="37.6820556" lon="22.2955191"><ele>863.0</ele><time>2026-04-29T12:13:54.954Z</time></trkpt><trkpt lat="37.6819349" lon="22.2954843"><ele>863.0</ele><time>2026-04-29T12:13:55.954Z</time></trkpt><trkpt lat="37.6818125" lon="22.2954478"><ele>863.0</ele><time>2026-04-29T12:13:56.955Z</time></trkpt><trkpt lat="37.6816865" lon="22.2954166"><ele>863.0</ele><time>2026-04-29T12:13:57.955Z</time></trkpt><trkpt lat="37.6815594" lon="22.2953869"><ele>862.75</ele><time>2026-04-29T12:13:58.954Z</time></trkpt><trkpt lat="37.6814311" lon="22.2953615"><ele>862.5</ele><time>2026-04-29T12:13:59.954Z</time></trkpt><trkpt lat="37.6813001" lon="22.2953441"><ele>862.25</ele><time>2026-04-29T12:14:00.955Z</time></trkpt><trkpt lat="37.6811616" lon="22.2953344"><ele>862.0</ele><time>2026-04-29T12:14:01.955Z</time></trkpt><trkpt lat="37.681018" lon="22.2953281"><ele>860.3333333333333</ele><time>2026-04-29T12:14:02.955Z</time></trkpt><trkpt lat="37.6808672" lon="22.2953247"><ele>858.6666666666667</ele><time>2026-04-29T12:14:03.955Z</time></trkpt><trkpt lat="37.680712" lon="22.2953284"><ele>857.0</ele><time>2026-04-29T12:14:04.954Z</time></trkpt><trkpt lat="37.6805563" lon="22.2953357"><ele>857.0</ele><time>2026-04-29T12:14:05.955Z</time></trkpt><trkpt lat="37.6803993" lon="22.2953503"><ele>857.0</ele><time>2026-04-29T12:14:06.954Z</time></trkpt><trkpt lat="37.6802426" lon="22.2953656"><ele>857.0</ele><time>2026-04-29T12:14:07.955Z</time></trkpt><trkpt lat="37.68008" lon="22.2953723"><ele>857.6666666666667</ele><time>2026-04-29T12:14:08.954Z</time></trkpt><trkpt lat="37.6799224" lon="22.2953852"><ele>858.3333333333333</ele><time>2026-04-29T12:14:09.954Z</time></trkpt><trkpt lat="37.6797662" lon="22.2953981"><ele>859.0</ele><time>2026-04-29T12:14:10.955Z</time></trkpt><trkpt lat="37.6796093" lon="22.2954104"><ele>859.0</ele><time>2026-04-29T12:14:11.955Z</time></trkpt><trkpt lat="37.6794522" lon="22.2954214"><ele>859.0</ele><time>2026-04-29T12:14:12.954Z</time></trkpt><trkpt lat="37.6792959" lon="22.2954333"><ele>859.0</ele><time>2026-04-29T12:14:13.954Z</time></trkpt><trkpt lat="37.6791414" lon="22.2954442"><ele>859.6666666666666</ele><time>2026-04-29T12:14:14.955Z</time></trkpt><trkpt lat="37.6789912" lon="22.2954587"><ele>860.3333333333333</ele><time>2026-04-29T12:14:15.954Z</time></trkpt><trkpt lat="37.6788335" lon="22.2954688"><ele>861.0</ele><time>2026-04-29T12:14:16.955Z</time></trkpt><trkpt lat="37.6786825" lon="22.2954782"><ele>860.3333333333333</ele><time>2026-04-29T12:14:17.955Z</time></trkpt><trkpt lat="37.6785312" lon="22.2954868"><ele>859.6666666666666</ele><time>2026-04-29T12:14:18.954Z</time></trkpt><trkpt lat="37.678377" lon="22.2954977"><ele>859.0</ele><time>2026-04-29T12:14:19.954Z</time></trkpt><trkpt lat="37.6782227" lon="22.2955104"><ele>859.0</ele><time>2026-04-29T12:14:20.955Z</time></trkpt><trkpt lat="37.6780698" lon="22.2955232"><ele>859.0</ele><time>2026-04-29T12:14:21.954Z</time></trkpt><trkpt lat="37.6779158" lon="22.2955352"><ele>859.0</ele><time>2026-04-29T12:14:22.954Z</time></trkpt><trkpt lat="37.6777607" lon="22.2955479"><ele>861.6666666666666</ele><time>2026-04-29T12:14:23.955Z</time></trkpt><trkpt lat="37.6775987" lon="22.2955588"><ele>864.3333333333333</ele><time>2026-04-29T12:14:24.955Z</time></trkpt><trkpt lat="37.6774307" lon="22.2955715"><ele>867.0</ele><time>2026-04-29T12:14:25.955Z</time></trkpt><trkpt lat="37.6772572" lon="22.2955838"><ele>864.3333333333333</ele><time>2026-04-29T12:14:26.954Z</time></trkpt><trkpt lat="37.677082" lon="22.2955984"><ele>861.6666666666666</ele><time>2026-04-29T12:14:27.954Z</time></trkpt><trkpt lat="37.6769049" lon="22.2956129"><ele>859.0</ele><time>2026-04-29T12:14:28.955Z</time></trkpt><trkpt lat="37.6767264" lon="22.2956353"><ele>859.0</ele><time>2026-04-29T12:14:29.955Z</time></trkpt><trkpt lat="37.6765479" lon="22.2956519"><ele>859.0</ele><time>2026-04-29T12:14:30.954Z</time></trkpt><trkpt lat="37.6763592" lon="22.2956737"><ele>859.0</ele><time>2026-04-29T12:14:31.954Z</time></trkpt><trkpt lat="37.6761629" lon="22.2957005"><ele>862.6666666666666</ele><time>2026-04-29T12:14:32.955Z</time></trkpt><trkpt lat="37.6759644" lon="22.2957276"><ele>866.3333333333333</ele><time>2026-04-29T12:14:33.954Z</time></trkpt><trkpt lat="37.6757676" lon="22.2957663"><ele>870.0</ele><time>2026-04-29T12:14:34.954Z</time></trkpt><trkpt lat="37.6755706" lon="22.2958204"><ele>870.0</ele><time>2026-04-29T12:14:35.955Z</time></trkpt><trkpt lat="37.6753747" lon="22.2958927"><ele>870.0</ele><time>2026-04-29T12:14:36.954Z</time></trkpt><trkpt lat="37.6751768" lon="22.2959735"><ele>870.0</ele><time>2026-04-29T12:14:37.954Z</time></trkpt><trkpt lat="37.67498" lon="22.2960601"><ele>873.3333333333333</ele><time>2026-04-29T12:14:38.955Z</time></trkpt><trkpt lat="37.6747848" lon="22.2961524"><ele>876.6666666666666</ele><time>2026-04-29T12:14:39.955Z</time></trkpt><trkpt lat="37.674598" lon="22.2962402"><ele>880.0</ele><time>2026-04-29T12:14:40.955Z</time></trkpt><trkpt lat="37.6744233" lon="22.296323"><ele>879.3333333333333</ele><time>2026-04-29T12:14:41.955Z</time></trkpt><trkpt lat="37.6742475" lon="22.2964045"><ele>878.6666666666667</ele><time>2026-04-29T12:14:42.955Z</time></trkpt><trkpt lat="37.6740708" lon="22.2964858"><ele>878.0</ele><time>2026-04-29T12:14:43.955Z</time></trkpt><trkpt lat="37.6738887" lon="22.296569"><ele>878.0</ele><time>2026-04-29T12:14:44.954Z</time></trkpt><trkpt lat="37.6737046" lon="22.2966551"><ele>878.0</ele><time>2026-04-29T12:14:45.954Z</time></trkpt><trkpt lat="37.6735235" lon="22.296746"><ele>878.0</ele><time>2026-04-29T12:14:46.954Z</time></trkpt><trkpt lat="37.6733473" lon="22.2968426"><ele>879.6666666666667</ele><time>2026-04-29T12:14:47.954Z</time></trkpt><trkpt lat="37.6731721" lon="22.2969513"><ele>881.3333333333333</ele><time>2026-04-29T12:14:48.955Z</time></trkpt><trkpt lat="37.6729968" lon="22.2970747"><ele>883.0</ele><time>2026-04-29T12:14:49.954Z</time></trkpt><trkpt lat="37.6728235" lon="22.2972142"><ele>879.0</ele><time>2026-04-29T12:14:50.955Z</time></trkpt><trkpt lat="37.6726522" lon="22.2973619"><ele>875.0</ele><time>2026-04-29T12:14:51.954Z</time></trkpt><trkpt lat="37.6724821" lon="22.2975102"><ele>871.0</ele><time>2026-04-29T12:14:52.955Z</time></trkpt><trkpt lat="37.6723131" lon="22.2976592"><ele>871.0</ele><time>2026-04-29T12:14:53.954Z</time></trkpt><trkpt lat="37.67214" lon="22.2978082"><ele>871.0</ele><time>2026-04-29T12:14:54.955Z</time></trkpt><trkpt lat="37.671974" lon="22.2979584"><ele>871.0</ele><time>2026-04-29T12:14:55.955Z</time></trkpt><trkpt lat="37.6718068" lon="22.2981138"><ele>868.6666666666666</ele><time>2026-04-29T12:14:56.954Z</time></trkpt><trkpt lat="37.6716372" lon="22.2982689"><ele>866.3333333333333</ele><time>2026-04-29T12:14:57.954Z</time></trkpt><trkpt lat="37.6714602" lon="22.2984148"><ele>864.0</ele><time>2026-04-29T12:14:58.955Z</time></trkpt><trkpt lat="37.6712748" lon="22.2985437"><ele>866.0</ele><time>2026-04-29T12:14:59.955Z</time></trkpt><trkpt lat="37.671081" lon="22.2986565"><ele>868.0</ele><time>2026-04-29T12:15:00.955Z</time></trkpt><trkpt lat="37.67088" lon="22.2987469"><ele>870.0</ele><time>2026-04-29T12:15:01.955Z</time></trkpt><trkpt lat="37.6706771" lon="22.2988125"><ele>870.0</ele><time>2026-04-29T12:15:02.954Z</time></trkpt><trkpt lat="37.6704736" lon="22.2988477"><ele>870.0</ele><time>2026-04-29T12:15:03.954Z</time></trkpt><trkpt lat="37.6702582" lon="22.2988501"><ele>870.0</ele><time>2026-04-29T12:15:04.955Z</time></trkpt><trkpt lat="37.6700358" lon="22.2988331"><ele>870.5</ele><time>2026-04-29T12:15:05.954Z</time></trkpt><trkpt lat="37.6698115" lon="22.298802"><ele>871.0</ele><time>2026-04-29T12:15:06.955Z</time></trkpt><trkpt lat="37.6695874" lon="22.2987718"><ele>869.3333333333333</ele><time>2026-04-29T12:15:07.955Z</time></trkpt><trkpt lat="37.6693621" lon="22.2987404"><ele>867.6666666666667</ele><time>2026-04-29T12:15:08.954Z</time></trkpt><trkpt lat="37.6691449" lon="22.2987118"><ele>866.0</ele><time>2026-04-29T12:15:09.955Z</time></trkpt><trkpt lat="37.6689263" lon="22.2986852"><ele>866.0</ele><time>2026-04-29T12:15:10.954Z</time></trkpt><trkpt lat="37.6687153" lon="22.2986573"><ele>866.0</ele><time>2026-04-29T12:15:11.955Z</time></trkpt><trkpt lat="37.668505" lon="22.2986327"><ele>866.0</ele><time>2026-04-29T12:15:12.954Z</time></trkpt><trkpt lat="37.6682977" lon="22.2986115"><ele>865.3333333333334</ele><time>2026-04-29T12:15:13.954Z</time></trkpt><trkpt lat="37.6680938" lon="22.2985944"><ele>864.6666666666667</ele><time>2026-04-29T12:15:14.954Z</time></trkpt><trkpt lat="37.6678972" lon="22.2985947"><ele>864.0</ele><time>2026-04-29T12:15:15.954Z</time></trkpt><trkpt lat="37.667705" lon="22.2986225"><ele>864.0</ele><time>2026-04-29T12:15:16.954Z</time></trkpt><trkpt lat="37.6675152" lon="22.2986796"><ele>864.0</ele><time>2026-04-29T12:15:17.955Z</time></trkpt><trkpt lat="37.6673278" lon="22.2987666"><ele>864.0</ele><time>2026-04-29T12:15:18.954Z</time></trkpt><trkpt lat="37.6671463" lon="22.2988831"><ele>859.6666666666667</ele><time>2026-04-29T12:15:19.955Z</time></trkpt><trkpt lat="37.6669689" lon="22.2990252"><ele>855.3333333333334</ele><time>2026-04-29T12:15:20.954Z</time></trkpt><trkpt lat="37.6667958" lon="22.2991864"><ele>851.0</ele><time>2026-04-29T12:15:21.955Z</time></trkpt><trkpt lat="37.6666206" lon="22.2993577"><ele>851.0</ele><time>2026-04-29T12:15:22.955Z</time></trkpt><trkpt lat="37.6664431" lon="22.2995286"><ele>851.0</ele><time>2026-04-29T12:15:23.954Z</time></trkpt><trkpt lat="37.6662705" lon="22.2997007"><ele>851.0</ele><time>2026-04-29T12:15:24.954Z</time></trkpt><trkpt lat="37.666093" lon="22.299872"><ele>850.0</ele><time>2026-04-29T12:15:25.954Z</time></trkpt><trkpt lat="37.6659141" lon="22.300042"><ele>849.0</ele><time>2026-04-29T12:15:26.955Z</time></trkpt><trkpt lat="37.6657365" lon="22.3002099"><ele>848.0</ele><time>2026-04-29T12:15:27.955Z</time></trkpt><trkpt lat="37.6655658" lon="22.3003744"><ele>848.0</ele><time>2026-04-29T12:15:28.954Z</time></trkpt><trkpt lat="37.6653996" lon="22.3005497"><ele>848.0</ele><time>2026-04-29T12:15:29.954Z</time></trkpt><trkpt lat="37.6652516" lon="22.3007348"><ele>848.0</ele><time>2026-04-29T12:15:30.955Z</time></trkpt><trkpt lat="37.6651205" lon="22.3009452"><ele>846.6666666666667</ele><time>2026-04-29T12:15:31.954Z</time></trkpt><trkpt lat="37.66501" lon="22.3011757"><ele>845.3333333333333</ele><time>2026-04-29T12:15:32.954Z</time></trkpt><trkpt lat="37.6649153" lon="22.3014234"><ele>844.0</ele><time>2026-04-29T12:15:33.954Z</time></trkpt><trkpt lat="37.664826" lon="22.3016827"><ele>841.0</ele><time>2026-04-29T12:15:34.955Z</time></trkpt><trkpt lat="37.6647393" lon="22.3019482"><ele>838.0</ele><time>2026-04-29T12:15:35.955Z</time></trkpt><trkpt lat="37.6646493" lon="22.3022128"><ele>837.0</ele><time>2026-04-29T12:15:36.955Z</time></trkpt><trkpt lat="37.6645591" lon="22.3024752"><ele>836.0</ele><time>2026-04-29T12:15:37.955Z</time></trkpt><trkpt lat="37.6644691" lon="22.3027396"><ele>838.5</ele><time>2026-04-29T12:15:38.955Z</time></trkpt><trkpt lat="37.6643809" lon="22.3030045"><ele>841.0</ele><time>2026-04-29T12:15:39.955Z</time></trkpt><trkpt lat="37.6642936" lon="22.3032691"><ele>841.0</ele><time>2026-04-29T12:15:40.955Z</time></trkpt><trkpt lat="37.6642042" lon="22.3035327"><ele>841.0</ele><time>2026-04-29T12:15:41.954Z</time></trkpt><trkpt lat="37.6641155" lon="22.3037967"><ele>838.3333333333333</ele><time>2026-04-29T12:15:42.954Z</time></trkpt><trkpt lat="37.6640308" lon="22.3040511"><ele>835.6666666666667</ele><time>2026-04-29T12:15:43.955Z</time></trkpt><trkpt lat="37.6639484" lon="22.3042958"><ele>833.0</ele><time>2026-04-29T12:15:44.955Z</time></trkpt><trkpt lat="37.6638736" lon="22.3045327"><ele>831.3333333333334</ele><time>2026-04-29T12:15:45.955Z</time></trkpt><trkpt lat="37.6637926" lon="22.3047677"><ele>829.6666666666667</ele><time>2026-04-29T12:15:46.955Z</time></trkpt><trkpt lat="37.6637053" lon="22.3050022"><ele>828.0</ele><time>2026-04-29T12:15:47.955Z</time></trkpt><trkpt lat="37.6636108" lon="22.3052344"><ele>829.6666666666667</ele><time>2026-04-29T12:15:48.954Z</time></trkpt><trkpt lat="37.6635028" lon="22.3054644"><ele>831.3333333333334</ele><time>2026-04-29T12:15:49.954Z</time></trkpt><trkpt lat="37.6633816" lon="22.3056854"><ele>833.0</ele><time>2026-04-29T12:15:50.955Z</time></trkpt><trkpt lat="37.663237" lon="22.3058935"><ele>833.0</ele><time>2026-04-29T12:15:51.954Z</time></trkpt><trkpt lat="37.6630718" lon="22.3060902"><ele>833.0</ele><time>2026-04-29T12:15:52.955Z</time></trkpt><trkpt lat="37.6628893" lon="22.3062822"><ele>831.5</ele><time>2026-04-29T12:15:53.955Z</time></trkpt><trkpt lat="37.6626978" lon="22.3064728"><ele>830.0</ele><time>2026-04-29T12:15:54.955Z</time></trkpt><trkpt lat="37.6625034" lon="22.3066577"><ele>830.0</ele><time>2026-04-29T12:15:55.955Z</time></trkpt><trkpt lat="37.662308" lon="22.3068415"><ele>830.0</ele><time>2026-04-29T12:15:56.955Z</time></trkpt><trkpt lat="37.6621101" lon="22.3070269"><ele>831.0</ele><time>2026-04-29T12:15:57.955Z</time></trkpt><trkpt lat="37.6619133" lon="22.3072115"><ele>832.0</ele><time>2026-04-29T12:15:58.955Z</time></trkpt><trkpt lat="37.6617164" lon="22.307395"><ele>827.0</ele><time>2026-04-29T12:15:59.954Z</time></trkpt><trkpt lat="37.6615201" lon="22.3075743"><ele>822.0</ele><time>2026-04-29T12:16:00.955Z</time></trkpt><trkpt lat="37.661327" lon="22.3077516"><ele>822.0</ele><time>2026-04-29T12:16:01.955Z</time></trkpt><trkpt lat="37.6611323" lon="22.3079315"><ele>822.0</ele><time>2026-04-29T12:16:02.954Z</time></trkpt><trkpt lat="37.6609384" lon="22.3081121"><ele>821.0</ele><time>2026-04-29T12:16:03.955Z</time></trkpt><trkpt lat="37.6607426" lon="22.3082937"><ele>820.0</ele><time>2026-04-29T12:16:04.954Z</time></trkpt><trkpt lat="37.6605462" lon="22.308479"><ele>820.0</ele><time>2026-04-29T12:16:05.954Z</time></trkpt><trkpt lat="37.6603429" lon="22.3086638"><ele>820.0</ele><time>2026-04-29T12:16:06.954Z</time></trkpt><trkpt lat="37.6601491" lon="22.3088452"><ele>818.0</ele><time>2026-04-29T12:16:07.954Z</time></trkpt><trkpt lat="37.6599549" lon="22.3090265"><ele>816.0</ele><time>2026-04-29T12:16:08.955Z</time></trkpt><trkpt lat="37.6597586" lon="22.3092059"><ele>816.0</ele><time>2026-04-29T12:16:09.954Z</time></trkpt><trkpt lat="37.6595636" lon="22.3093818"><ele>816.0</ele><time>2026-04-29T12:16:10.954Z</time></trkpt><trkpt lat="37.6593678" lon="22.3095573"><ele>817.5</ele><time>2026-04-29T12:16:11.955Z</time></trkpt><trkpt lat="37.6591738" lon="22.3097363"><ele>819.0</ele><time>2026-04-29T12:16:12.955Z</time></trkpt><trkpt lat="37.6589825" lon="22.3099132"><ele>816.0</ele><time>2026-04-29T12:16:13.955Z</time></trkpt><trkpt lat="37.6587905" lon="22.3100913"><ele>813.0</ele><time>2026-04-29T12:16:14.954Z</time></trkpt><trkpt lat="37.658599" lon="22.3102683"><ele>813.0</ele><time>2026-04-29T12:16:15.954Z</time></trkpt><trkpt lat="37.6584057" lon="22.3104441"><ele>813.0</ele><time>2026-04-29T12:16:16.955Z</time></trkpt><trkpt lat="37.658214" lon="22.3106202"><ele>812.0</ele><time>2026-04-29T12:16:17.955Z</time></trkpt><trkpt lat="37.6580225" lon="22.3107972"><ele>811.0</ele><time>2026-04-29T12:16:18.954Z</time></trkpt><trkpt lat="37.6578333" lon="22.3109758"><ele>809.5</ele><time>2026-04-29T12:16:19.955Z</time></trkpt><trkpt lat="37.6576462" lon="22.3111637"><ele>808.0</ele><time>2026-04-29T12:16:20.954Z</time></trkpt><trkpt lat="37.6574673" lon="22.3113699"><ele>808.5</ele><time>2026-04-29T12:16:21.955Z</time></trkpt><trkpt lat="37.657294" lon="22.3115823"><ele>809.0</ele><time>2026-04-29T12:16:22.954Z</time></trkpt><trkpt lat="37.6571256" lon="22.3118036"><ele>809.0</ele><time>2026-04-29T12:16:23.955Z</time></trkpt><trkpt lat="37.6569613" lon="22.3120332"><ele>809.0</ele><time>2026-04-29T12:16:24.955Z</time></trkpt><trkpt lat="37.6567986" lon="22.3122591"><ele>807.0</ele><time>2026-04-29T12:16:25.955Z</time></trkpt><trkpt lat="37.6566334" lon="22.3124896"><ele>805.0</ele><time>2026-04-29T12:16:26.954Z</time></trkpt><trkpt lat="37.6564678" lon="22.3127163"><ele>805.0</ele><time>2026-04-29T12:16:27.954Z</time></trkpt><trkpt lat="37.656304" lon="22.3129447"><ele>805.0</ele><time>2026-04-29T12:16:28.955Z</time></trkpt><trkpt lat="37.6561386" lon="22.3131732"><ele>804.0</ele><time>2026-04-29T12:16:29.955Z</time></trkpt><trkpt lat="37.6559765" lon="22.3133993"><ele>803.0</ele><time>2026-04-29T12:16:30.954Z</time></trkpt><trkpt lat="37.6558142" lon="22.3136224"><ele>803.0</ele><time>2026-04-29T12:16:31.954Z</time></trkpt><trkpt lat="37.6556549" lon="22.3138497"><ele>803.0</ele><time>2026-04-29T12:16:32.955Z</time></trkpt><trkpt lat="37.6554964" lon="22.3140749"><ele>801.0</ele><time>2026-04-29T12:16:33.954Z</time></trkpt><trkpt lat="37.6553415" lon="22.3142975"><ele>799.0</ele><time>2026-04-29T12:16:34.955Z</time></trkpt><trkpt lat="37.6551803" lon="22.3145219"><ele>802.0</ele><time>2026-04-29T12:16:35.955Z</time></trkpt><trkpt lat="37.6550231" lon="22.3147395"><ele>805.0</ele><time>2026-04-29T12:16:36.955Z</time></trkpt><trkpt lat="37.6548692" lon="22.3149517"><ele>805.0</ele><time>2026-04-29T12:16:37.954Z</time></trkpt><trkpt lat="37.6547197" lon="22.3151575"><ele>805.0</ele><time>2026-04-29T12:16:38.955Z</time></trkpt><trkpt lat="37.6545658" lon="22.3153518"><ele>805.0</ele><time>2026-04-29T12:16:39.955Z</time></trkpt><trkpt lat="37.6544075" lon="22.3155239"><ele>804.3333333333333</ele><time>2026-04-29T12:16:40.954Z</time></trkpt><trkpt lat="37.6542374" lon="22.3156729"><ele>803.6666666666667</ele><time>2026-04-29T12:16:41.954Z</time></trkpt><trkpt lat="37.654054" lon="22.3157848"><ele>803.0</ele><time>2026-04-29T12:16:42.954Z</time></trkpt><trkpt lat="37.6538563" lon="22.3158645"><ele>803.0</ele><time>2026-04-29T12:16:43.955Z</time></trkpt><trkpt lat="37.6536501" lon="22.3159111"><ele>803.0</ele><time>2026-04-29T12:16:44.955Z</time></trkpt><trkpt lat="37.653441" lon="22.3159117"><ele>803.0</ele><time>2026-04-29T12:16:45.954Z</time></trkpt><trkpt lat="37.6532338" lon="22.3158694"><ele>802.0</ele><time>2026-04-29T12:16:46.955Z</time></trkpt><trkpt lat="37.6530259" lon="22.3158016"><ele>801.0</ele><time>2026-04-29T12:16:47.955Z</time></trkpt><trkpt lat="37.6528153" lon="22.3157243"><ele>800.0</ele><time>2026-04-29T12:16:48.954Z</time></trkpt><trkpt lat="37.6526037" lon="22.3156408"><ele>798.6666666666667</ele><time>2026-04-29T12:16:49.954Z</time></trkpt><trkpt lat="37.6523903" lon="22.3155567"><ele>797.3333333333333</ele><time>2026-04-29T12:16:50.955Z</time></trkpt><trkpt lat="37.6521763" lon="22.3154739"><ele>796.0</ele><time>2026-04-29T12:16:51.955Z</time></trkpt><trkpt lat="37.6519591" lon="22.3153927"><ele>797.0</ele><time>2026-04-29T12:16:52.954Z</time></trkpt><trkpt lat="37.6517392" lon="22.3153082"><ele>798.0</ele><time>2026-04-29T12:16:53.955Z</time></trkpt><trkpt lat="37.6515186" lon="22.3152226"><ele>798.0</ele><time>2026-04-29T12:16:54.955Z</time></trkpt><trkpt lat="37.6512969" lon="22.3151378"><ele>798.0</ele><time>2026-04-29T12:16:55.954Z</time></trkpt><trkpt lat="37.6510743" lon="22.3150531"><ele>799.5</ele><time>2026-04-29T12:16:56.955Z</time></trkpt><trkpt lat="37.6508529" lon="22.3149685"><ele>801.0</ele><time>2026-04-29T12:16:57.954Z</time></trkpt><trkpt lat="37.6506317" lon="22.3148836"><ele>801.0</ele><time>2026-04-29T12:16:58.955Z</time></trkpt><trkpt lat="37.6504136" lon="22.3147997"><ele>801.0</ele><time>2026-04-29T12:16:59.954Z</time></trkpt><trkpt lat="37.6501952" lon="22.3147134"><ele>799.3333333333333</ele><time>2026-04-29T12:17:00.954Z</time></trkpt><trkpt lat="37.6499815" lon="22.314628"><ele>797.6666666666666</ele><time>2026-04-29T12:17:01.954Z</time></trkpt><trkpt lat="37.6497702" lon="22.3145422"><ele>796.0</ele><time>2026-04-29T12:17:02.955Z</time></trkpt><trkpt lat="37.6495587" lon="22.3144582"><ele>796.6666666666666</ele><time>2026-04-29T12:17:03.955Z</time></trkpt><trkpt lat="37.6493463" lon="22.3143809"><ele>797.3333333333333</ele><time>2026-04-29T12:17:04.955Z</time></trkpt><trkpt lat="37.6491328" lon="22.3143066"><ele>798.0</ele><time>2026-04-29T12:17:05.954Z</time></trkpt><trkpt lat="37.6489163" lon="22.3142422"><ele>798.0</ele><time>2026-04-29T12:17:06.954Z</time></trkpt><trkpt lat="37.6486943" lon="22.3141854"><ele>798.0</ele><time>2026-04-29T12:17:07.955Z</time></trkpt><trkpt lat="37.6484668" lon="22.3141334"><ele>800.0</ele><time>2026-04-29T12:17:08.954Z</time></trkpt><trkpt lat="37.6482365" lon="22.3140857"><ele>802.0</ele><time>2026-04-29T12:17:09.954Z</time></trkpt><trkpt lat="37.6480053" lon="22.3140489"><ele>803.5</ele><time>2026-04-29T12:17:10.955Z</time></trkpt><trkpt lat="37.6477711" lon="22.3140227"><ele>805.0</ele><time>2026-04-29T12:17:11.955Z</time></trkpt><trkpt lat="37.647539" lon="22.3140082"><ele>805.0</ele><time>2026-04-29T12:17:12.955Z</time></trkpt><trkpt lat="37.6473092" lon="22.3140024"><ele>805.0</ele><time>2026-04-29T12:17:13.954Z</time></trkpt><trkpt lat="37.6470803" lon="22.3139984"><ele>805.0</ele><time>2026-04-29T12:17:14.955Z</time></trkpt><trkpt lat="37.6468482" lon="22.313998"><ele>805.0</ele><time>2026-04-29T12:17:15.955Z</time></trkpt><trkpt lat="37.6466103" lon="22.314004"><ele>805.0</ele><time>2026-04-29T12:17:16.954Z</time></trkpt><trkpt lat="37.6463701" lon="22.3140099"><ele>805.0</ele><time>2026-04-29T12:17:17.954Z</time></trkpt><trkpt lat="37.6461276" lon="22.3140164"><ele>804.5</ele><time>2026-04-29T12:17:18.954Z</time></trkpt><trkpt lat="37.6458859" lon="22.3140227"><ele>804.0</ele><time>2026-04-29T12:17:19.955Z</time></trkpt><trkpt lat="37.6456471" lon="22.3140267"><ele>804.0</ele><time>2026-04-29T12:17:20.954Z</time></trkpt><trkpt lat="37.6454078" lon="22.3140323"><ele>804.0</ele><time>2026-04-29T12:17:21.955Z</time></trkpt><trkpt lat="37.6451704" lon="22.3140402"><ele>806.0</ele><time>2026-04-29T12:17:22.955Z</time></trkpt><trkpt lat="37.6449314" lon="22.314049"><ele>808.0</ele><time>2026-04-29T12:17:23.954Z</time></trkpt><trkpt lat="37.6446937" lon="22.3140574"><ele>808.0</ele><time>2026-04-29T12:17:24.954Z</time></trkpt><trkpt lat="37.6444565" lon="22.3140651"><ele>808.0</ele><time>2026-04-29T12:17:25.955Z</time></trkpt><trkpt lat="37.6442185" lon="22.3140719"><ele>808.0</ele><time>2026-04-29T12:17:26.954Z</time></trkpt><trkpt lat="37.6439823" lon="22.314081"><ele>808.0</ele><time>2026-04-29T12:17:27.955Z</time></trkpt><trkpt lat="37.6437464" lon="22.3140892"><ele>809.0</ele><time>2026-04-29T12:17:28.954Z</time></trkpt><trkpt lat="37.6435106" lon="22.3140975"><ele>810.0</ele><time>2026-04-29T12:17:29.954Z</time></trkpt><trkpt lat="37.6432751" lon="22.3141013"><ele>810.0</ele><time>2026-04-29T12:17:30.954Z</time></trkpt><trkpt lat="37.6430417" lon="22.3141051"><ele>810.0</ele><time>2026-04-29T12:17:31.954Z</time></trkpt><trkpt lat="37.6428093" lon="22.31411"><ele>811.0</ele><time>2026-04-29T12:17:32.954Z</time></trkpt><trkpt lat="37.6425764" lon="22.3141216"><ele>812.0</ele><time>2026-04-29T12:17:33.954Z</time></trkpt><trkpt lat="37.642343" lon="22.3141413"><ele>812.0</ele><time>2026-04-29T12:17:34.955Z</time></trkpt><trkpt lat="37.6421105" lon="22.3141755"><ele>812.0</ele><time>2026-04-29T12:17:35.955Z</time></trkpt><trkpt lat="37.641878" lon="22.3142297"><ele>810.5</ele><time>2026-04-29T12:17:36.954Z</time></trkpt><trkpt lat="37.6416457" lon="22.3143034"><ele>809.0</ele><time>2026-04-29T12:17:37.955Z</time></trkpt><trkpt lat="37.6414155" lon="22.3143947"><ele>809.0</ele><time>2026-04-29T12:17:38.954Z</time></trkpt><trkpt lat="37.6411913" lon="22.3145092"><ele>809.0</ele><time>2026-04-29T12:17:39.955Z</time></trkpt><trkpt lat="37.640975" lon="22.314643"><ele>813.0</ele><time>2026-04-29T12:17:40.955Z</time></trkpt><trkpt lat="37.6407664" lon="22.314794"><ele>817.0</ele><time>2026-04-29T12:17:41.954Z</time></trkpt><trkpt lat="37.6405633" lon="22.31496"><ele>817.0</ele><time>2026-04-29T12:17:42.955Z</time></trkpt><trkpt lat="37.6403672" lon="22.3151401"><ele>817.0</ele><time>2026-04-29T12:17:43.954Z</time></trkpt><trkpt lat="37.6401814" lon="22.3153328"><ele>816.5</ele><time>2026-04-29T12:17:44.955Z</time></trkpt><trkpt lat="37.640006" lon="22.315538"><ele>816.0</ele><time>2026-04-29T12:17:45.955Z</time></trkpt><trkpt lat="37.6398371" lon="22.3157556"><ele>816.0</ele><time>2026-04-29T12:17:46.954Z</time></trkpt><trkpt lat="37.6396758" lon="22.3159707"><ele>816.0</ele><time>2026-04-29T12:17:47.955Z</time></trkpt><trkpt lat="37.6395208" lon="22.3161864"><ele>812.0</ele><time>2026-04-29T12:17:48.955Z</time></trkpt><trkpt lat="37.6393705" lon="22.3164009"><ele>808.0</ele><time>2026-04-29T12:17:49.955Z</time></trkpt><trkpt lat="37.639219" lon="22.3166147"><ele>807.0</ele><time>2026-04-29T12:17:50.954Z</time></trkpt><trkpt lat="37.6390653" lon="22.3168284"><ele>806.0</ele><time>2026-04-29T12:17:51.955Z</time></trkpt><trkpt lat="37.6389065" lon="22.3170398"><ele>806.5</ele><time>2026-04-29T12:17:52.955Z</time></trkpt><trkpt lat="37.6387452" lon="22.3172552"><ele>807.0</ele><time>2026-04-29T12:17:53.954Z</time></trkpt><trkpt lat="37.6385805" lon="22.3174748"><ele>804.5</ele><time>2026-04-29T12:17:54.954Z</time></trkpt><trkpt lat="37.6384138" lon="22.3176945"><ele>802.0</ele><time>2026-04-29T12:17:55.955Z</time></trkpt><trkpt lat="37.6382431" lon="22.3179251"><ele>799.5</ele><time>2026-04-29T12:17:56.954Z</time></trkpt><trkpt lat="37.6380724" lon="22.3181587"><ele>797.0</ele><time>2026-04-29T12:17:57.955Z</time></trkpt><trkpt lat="37.6378988" lon="22.3183938"><ele>798.0</ele><time>2026-04-29T12:17:58.955Z</time></trkpt><trkpt lat="37.6377249" lon="22.3186287"><ele>799.0</ele><time>2026-04-29T12:17:59.954Z</time></trkpt><trkpt lat="37.6375476" lon="22.3188643"><ele>796.0</ele><time>2026-04-29T12:18:00.954Z</time></trkpt><trkpt lat="37.6373723" lon="22.3191009"><ele>793.0</ele><time>2026-04-29T12:18:01.954Z</time></trkpt><trkpt lat="37.6371979" lon="22.319335"><ele>793.0</ele><time>2026-04-29T12:18:02.955Z</time></trkpt><trkpt lat="37.6370183" lon="22.3195696"><ele>793.0</ele><time>2026-04-29T12:18:03.955Z</time></trkpt><trkpt lat="37.6368395" lon="22.3198057"><ele>793.0</ele><time>2026-04-29T12:18:04.955Z</time></trkpt><trkpt lat="37.6366622" lon="22.3200419"><ele>793.0</ele><time>2026-04-29T12:18:05.954Z</time></trkpt><trkpt lat="37.6364857" lon="22.3202779"><ele>793.0</ele><time>2026-04-29T12:18:06.954Z</time></trkpt><trkpt lat="37.636309" lon="22.3205147"><ele>793.0</ele><time>2026-04-29T12:18:07.954Z</time></trkpt><trkpt lat="37.6361315" lon="22.3207531"><ele>790.5</ele><time>2026-04-29T12:18:08.955Z</time></trkpt><trkpt lat="37.6359525" lon="22.3209863"><ele>788.0</ele><time>2026-04-29T12:18:09.954Z</time></trkpt><trkpt lat="37.6357753" lon="22.32122"><ele>785.0</ele><time>2026-04-29T12:18:10.954Z</time></trkpt><trkpt lat="37.635597" lon="22.3214548"><ele>782.0</ele><time>2026-04-29T12:18:11.954Z</time></trkpt><trkpt lat="37.6354217" lon="22.3216908"><ele>781.5</ele><time>2026-04-29T12:18:12.955Z</time></trkpt><trkpt lat="37.6352463" lon="22.3219308"><ele>781.0</ele><time>2026-04-29T12:18:13.955Z</time></trkpt><trkpt lat="37.6350717" lon="22.32217"><ele>777.0</ele><time>2026-04-29T12:18:14.955Z</time></trkpt><trkpt lat="37.6348982" lon="22.3224039"><ele>773.0</ele><time>2026-04-29T12:18:15.954Z</time></trkpt><trkpt lat="37.6347212" lon="22.32264"><ele>773.0</ele><time>2026-04-29T12:18:16.955Z</time></trkpt><trkpt lat="37.6345463" lon="22.3228794"><ele>773.0</ele><time>2026-04-29T12:18:17.955Z</time></trkpt><trkpt lat="37.6343695" lon="22.3231121"><ele>772.5</ele><time>2026-04-29T12:18:18.954Z</time></trkpt><trkpt lat="37.6341935" lon="22.3233467"><ele>772.0</ele><time>2026-04-29T12:18:19.955Z</time></trkpt><trkpt lat="37.6340182" lon="22.3235795"><ele>772.0</ele><time>2026-04-29T12:18:20.955Z</time></trkpt><trkpt lat="37.6338453" lon="22.3238111"><ele>772.0</ele><time>2026-04-29T12:18:21.955Z</time></trkpt><trkpt lat="37.6336814" lon="22.3240372"><ele>771.5</ele><time>2026-04-29T12:18:22.954Z</time></trkpt><trkpt lat="37.6335154" lon="22.3242487"><ele>771.0</ele><time>2026-04-29T12:18:23.955Z</time></trkpt><trkpt lat="37.6333502" lon="22.3244468"><ele>771.0</ele><time>2026-04-29T12:18:24.955Z</time></trkpt><trkpt lat="37.6331782" lon="22.3246403"><ele>771.0</ele><time>2026-04-29T12:18:25.954Z</time></trkpt><trkpt lat="37.6329931" lon="22.3248138"><ele>772.0</ele><time>2026-04-29T12:18:26.954Z</time></trkpt><trkpt lat="37.6327935" lon="22.3249667"><ele>773.0</ele><time>2026-04-29T12:18:27.954Z</time></trkpt><trkpt lat="37.6325856" lon="22.3251029"><ele>773.0</ele><time>2026-04-29T12:18:28.954Z</time></trkpt><trkpt lat="37.6323681" lon="22.3252338"><ele>773.0</ele><time>2026-04-29T12:18:29.955Z</time></trkpt><trkpt lat="37.6321496" lon="22.3253626"><ele>772.0</ele><time>2026-04-29T12:18:30.954Z</time></trkpt><trkpt lat="37.631931" lon="22.3254879"><ele>771.0</ele><time>2026-04-29T12:18:31.955Z</time></trkpt><trkpt lat="37.6317143" lon="22.325611"><ele>774.5</ele><time>2026-04-29T12:18:32.954Z</time></trkpt><trkpt lat="37.6314991" lon="22.325733"><ele>778.0</ele><time>2026-04-29T12:18:33.954Z</time></trkpt><trkpt lat="37.6312848" lon="22.3258555"><ele>774.0</ele><time>2026-04-29T12:18:34.955Z</time></trkpt><trkpt lat="37.6310699" lon="22.3259776"><ele>770.0</ele><time>2026-04-29T12:18:35.955Z</time></trkpt><trkpt lat="37.6308559" lon="22.3260977"><ele>770.0</ele><time>2026-04-29T12:18:36.954Z</time></trkpt><trkpt lat="37.6306427" lon="22.3262165"><ele>770.0</ele><time>2026-04-29T12:18:37.954Z</time></trkpt><trkpt lat="37.6304308" lon="22.3263339"><ele>769.5</ele><time>2026-04-29T12:18:38.955Z</time></trkpt><trkpt lat="37.6302195" lon="22.3264482"><ele>769.0</ele><time>2026-04-29T12:18:39.955Z</time></trkpt><trkpt lat="37.6300051" lon="22.3265644"><ele>769.0</ele><time>2026-04-29T12:18:40.954Z</time></trkpt><trkpt lat="37.6297898" lon="22.3266828"><ele>769.0</ele><time>2026-04-29T12:18:41.955Z</time></trkpt><trkpt lat="37.6295716" lon="22.3268014"><ele>766.0</ele><time>2026-04-29T12:18:42.955Z</time></trkpt><trkpt lat="37.6293514" lon="22.3269181"><ele>763.0</ele><time>2026-04-29T12:18:43.954Z</time></trkpt><trkpt lat="37.6291297" lon="22.3270383"><ele>763.0</ele><time>2026-04-29T12:18:44.954Z</time></trkpt><trkpt lat="37.6289082" lon="22.3271643"><ele>763.0</ele><time>2026-04-29T12:18:45.955Z</time></trkpt><trkpt lat="37.6286951" lon="22.3273053"><ele>763.5</ele><time>2026-04-29T12:18:46.954Z</time></trkpt><trkpt lat="37.6284844" lon="22.3274654"><ele>764.0</ele><time>2026-04-29T12:18:47.954Z</time></trkpt><trkpt lat="37.628279" lon="22.3276336"><ele>764.0</ele><time>2026-04-29T12:18:48.955Z</time></trkpt><trkpt lat="37.6280768" lon="22.3278064"><ele>764.0</ele><time>2026-04-29T12:18:49.954Z</time></trkpt><trkpt lat="37.6278746" lon="22.3279764"><ele>764.0</ele><time>2026-04-29T12:18:50.955Z</time></trkpt><trkpt lat="37.6276687" lon="22.3281442"><ele>764.0</ele><time>2026-04-29T12:18:51.954Z</time></trkpt><trkpt lat="37.6274643" lon="22.328313"><ele>764.0</ele><time>2026-04-29T12:18:52.954Z</time></trkpt><trkpt lat="37.6272599" lon="22.328483"><ele>764.0</ele><time>2026-04-29T12:18:53.955Z</time></trkpt><trkpt lat="37.6270542" lon="22.3286537"><ele>763.0</ele><time>2026-04-29T12:18:54.955Z</time></trkpt><trkpt lat="37.6268484" lon="22.3288245"><ele>762.0</ele><time>2026-04-29T12:18:55.954Z</time></trkpt><trkpt lat="37.6266417" lon="22.328994"><ele>762.0</ele><time>2026-04-29T12:18:56.954Z</time></trkpt><trkpt lat="37.6264329" lon="22.3291682"><ele>762.0</ele><time>2026-04-29T12:18:57.955Z</time></trkpt><trkpt lat="37.6262216" lon="22.3293426"><ele>761.5</ele><time>2026-04-29T12:18:58.955Z</time></trkpt><trkpt lat="37.6260092" lon="22.3295165"><ele>761.0</ele><time>2026-04-29T12:18:59.954Z</time></trkpt><trkpt lat="37.6257965" lon="22.3296877"><ele>758.0</ele><time>2026-04-29T12:19:00.954Z</time></trkpt><trkpt lat="37.6255818" lon="22.3298536"><ele>755.0</ele><time>2026-04-29T12:19:01.955Z</time></trkpt><trkpt lat="37.6253648" lon="22.3300073"><ele>756.5</ele><time>2026-04-29T12:19:02.955Z</time></trkpt><trkpt lat="37.6251415" lon="22.3301529"><ele>758.0</ele><time>2026-04-29T12:19:03.955Z</time></trkpt><trkpt lat="37.6249159" lon="22.3302916"><ele>758.0</ele><time>2026-04-29T12:19:04.954Z</time></trkpt><trkpt lat="37.6246907" lon="22.3304298"><ele>758.0</ele><time>2026-04-29T12:19:05.955Z</time></trkpt><trkpt lat="37.6244716" lon="22.3305658"><ele>754.5</ele><time>2026-04-29T12:19:06.955Z</time></trkpt><trkpt lat="37.624261" lon="22.3306917"><ele>751.0</ele><time>2026-04-29T12:19:07.955Z</time></trkpt><trkpt lat="37.6240575" lon="22.3308091"><ele>751.0</ele><time>2026-04-29T12:19:08.954Z</time></trkpt><trkpt lat="37.6238612" lon="22.3309184"><ele>751.0</ele><time>2026-04-29T12:19:09.954Z</time></trkpt><trkpt lat="37.6236723" lon="22.3310241"><ele>751.0</ele><time>2026-04-29T12:19:10.954Z</time></trkpt><trkpt lat="37.6234813" lon="22.3311273"><ele>752.0</ele><time>2026-04-29T12:19:11.954Z</time></trkpt><trkpt lat="37.623286" lon="22.3312235"><ele>753.0</ele><time>2026-04-29T12:19:12.954Z</time></trkpt><trkpt lat="37.6230898" lon="22.331312"><ele>754.0</ele><time>2026-04-29T12:19:13.954Z</time></trkpt><trkpt lat="37.6228915" lon="22.3313871"><ele>752.0</ele><time>2026-04-29T12:19:14.955Z</time></trkpt><trkpt lat="37.6226851" lon="22.3314474"><ele>750.0</ele><time>2026-04-29T12:19:15.955Z</time></trkpt><trkpt lat="37.6224732" lon="22.3314986"><ele>748.0</ele><time>2026-04-29T12:19:16.955Z</time></trkpt><trkpt lat="37.622257" lon="22.331541"><ele>748.0</ele><time>2026-04-29T12:19:17.955Z</time></trkpt><trkpt lat="37.6220383" lon="22.331577"><ele>748.0</ele><time>2026-04-29T12:19:18.954Z</time></trkpt><trkpt lat="37.6218216" lon="22.3316135"><ele>748.0</ele><time>2026-04-29T12:19:19.955Z</time></trkpt><trkpt lat="37.6216064" lon="22.3316462"><ele>748.3333333333334</ele><time>2026-04-29T12:19:20.955Z</time></trkpt><trkpt lat="37.6213919" lon="22.3316762"><ele>748.6666666666666</ele><time>2026-04-29T12:19:21.954Z</time></trkpt><trkpt lat="37.6211789" lon="22.331705"><ele>749.0</ele><time>2026-04-29T12:19:22.954Z</time></trkpt><trkpt lat="37.6209668" lon="22.3317334"><ele>747.3333333333333</ele><time>2026-04-29T12:19:23.955Z</time></trkpt><trkpt lat="37.6207539" lon="22.3317683"><ele>745.6666666666666</ele><time>2026-04-29T12:19:24.955Z</time></trkpt><trkpt lat="37.6205432" lon="22.3318143"><ele>744.0</ele><time>2026-04-29T12:19:25.955Z</time></trkpt><trkpt lat="37.6203375" lon="22.3318803"><ele>742.6666666666666</ele><time>2026-04-29T12:19:26.954Z</time></trkpt><trkpt lat="37.6201375" lon="22.3319701"><ele>741.3333333333333</ele><time>2026-04-29T12:19:27.955Z</time></trkpt><trkpt lat="37.6199467" lon="22.3320852"><ele>740.0</ele><time>2026-04-29T12:19:28.954Z</time></trkpt><trkpt lat="37.6197723" lon="22.3322257"><ele>741.0</ele><time>2026-04-29T12:19:29.954Z</time></trkpt><trkpt lat="37.6196066" lon="22.3323856"><ele>742.0</ele><time>2026-04-29T12:19:30.954Z</time></trkpt><trkpt lat="37.6194572" lon="22.3325693"><ele>743.0</ele><time>2026-04-29T12:19:31.954Z</time></trkpt><trkpt lat="37.6193221" lon="22.3327723"><ele>743.0</ele><time>2026-04-29T12:19:32.955Z</time></trkpt><trkpt lat="37.6191949" lon="22.332993"><ele>743.0</ele><time>2026-04-29T12:19:33.955Z</time></trkpt><trkpt lat="37.6190723" lon="22.3332151"><ele>743.0</ele><time>2026-04-29T12:19:34.954Z</time></trkpt><trkpt lat="37.6189482" lon="22.3334465"><ele>742.0</ele><time>2026-04-29T12:19:35.954Z</time></trkpt><trkpt lat="37.6188227" lon="22.3336805"><ele>741.0</ele><time>2026-04-29T12:19:36.955Z</time></trkpt><trkpt lat="37.6186941" lon="22.3339144"><ele>740.0</ele><time>2026-04-29T12:19:37.955Z</time></trkpt><trkpt lat="37.6185642" lon="22.3341452"><ele>740.0</ele><time>2026-04-29T12:19:38.954Z</time></trkpt><trkpt lat="37.6184298" lon="22.3343719"><ele>740.0</ele><time>2026-04-29T12:19:39.955Z</time></trkpt><trkpt lat="37.618289" lon="22.3345935"><ele>740.0</ele><time>2026-04-29T12:19:40.954Z</time></trkpt><trkpt lat="37.6181396" lon="22.3348123"><ele>735.5</ele><time>2026-04-29T12:19:41.955Z</time></trkpt><trkpt lat="37.6179939" lon="22.3350401"><ele>731.0</ele><time>2026-04-29T12:19:42.955Z</time></trkpt><trkpt lat="37.6178517" lon="22.3352794"><ele>731.5</ele><time>2026-04-29T12:19:43.955Z</time></trkpt><trkpt lat="37.6177143" lon="22.3355321"><ele>732.0</ele><time>2026-04-29T12:19:44.955Z</time></trkpt><trkpt lat="37.6175886" lon="22.3357958"><ele>732.0</ele><time>2026-04-29T12:19:45.955Z</time></trkpt><trkpt lat="37.6174746" lon="22.3360697"><ele>732.0</ele><time>2026-04-29T12:19:46.954Z</time></trkpt><trkpt lat="37.617366" lon="22.3363475"><ele>728.0</ele><time>2026-04-29T12:19:47.954Z</time></trkpt><trkpt lat="37.6172537" lon="22.3366246"><ele>724.0</ele><time>2026-04-29T12:19:48.954Z</time></trkpt><trkpt lat="37.6171401" lon="22.3368987"><ele>724.0</ele><time>2026-04-29T12:19:49.954Z</time></trkpt><trkpt lat="37.6170309" lon="22.3371665"><ele>724.0</ele><time>2026-04-29T12:19:50.955Z</time></trkpt><trkpt lat="37.6169208" lon="22.3374287"><ele>724.0</ele><time>2026-04-29T12:19:51.954Z</time></trkpt><trkpt lat="37.6168106" lon="22.3376875"><ele>724.0</ele><time>2026-04-29T12:19:52.954Z</time></trkpt><trkpt lat="37.6166987" lon="22.3379465"><ele>720.5</ele><time>2026-04-29T12:19:53.954Z</time></trkpt><trkpt lat="37.6165894" lon="22.3382008"><ele>717.0</ele><time>2026-04-29T12:19:54.954Z</time></trkpt><trkpt lat="37.616478" lon="22.3384583"><ele>717.0</ele><time>2026-04-29T12:19:55.955Z</time></trkpt><trkpt lat="37.616368" lon="22.3387143"><ele>717.0</ele><time>2026-04-29T12:19:56.955Z</time></trkpt><trkpt lat="37.6162561" lon="22.3389699"><ele>716.5</ele><time>2026-04-29T12:19:57.954Z</time></trkpt><trkpt lat="37.6161446" lon="22.3392255"><ele>716.0</ele><time>2026-04-29T12:19:58.955Z</time></trkpt><trkpt lat="37.6160319" lon="22.3394795"><ele>712.0</ele><time>2026-04-29T12:19:59.955Z</time></trkpt><trkpt lat="37.6159227" lon="22.3397333"><ele>708.0</ele><time>2026-04-29T12:20:00.954Z</time></trkpt><trkpt lat="37.6158146" lon="22.339981"><ele>708.0</ele><time>2026-04-29T12:20:01.955Z</time></trkpt><trkpt lat="37.6157078" lon="22.3402215"><ele>708.0</ele><time>2026-04-29T12:20:02.955Z</time></trkpt><trkpt lat="37.6156047" lon="22.3404542"><ele>708.0</ele><time>2026-04-29T12:20:03.954Z</time></trkpt><trkpt lat="37.6155053" lon="22.340681"><ele>708.0</ele><time>2026-04-29T12:20:04.954Z</time></trkpt><trkpt lat="37.6154147" lon="22.3409051"><ele>708.0</ele><time>2026-04-29T12:20:05.954Z</time></trkpt><trkpt lat="37.6153449" lon="22.3411328"><ele>708.0</ele><time>2026-04-29T12:20:06.954Z</time></trkpt><trkpt lat="37.6153129" lon="22.3413608"><ele>707.6666666666666</ele><time>2026-04-29T12:20:07.955Z</time></trkpt><trkpt lat="37.6153164" lon="22.3415881"><ele>707.3333333333333</ele><time>2026-04-29T12:20:08.954Z</time></trkpt><trkpt lat="37.6153399" lon="22.3418105"><ele>707.0</ele><time>2026-04-29T12:20:09.955Z</time></trkpt><trkpt lat="37.615373" lon="22.3420316"><ele>704.3333333333333</ele><time>2026-04-29T12:20:10.954Z</time></trkpt><trkpt lat="37.6154068" lon="22.342251"><ele>701.6666666666666</ele><time>2026-04-29T12:20:11.955Z</time></trkpt><trkpt lat="37.6154376" lon="22.3424696"><ele>699.0</ele><time>2026-04-29T12:20:12.955Z</time></trkpt><trkpt lat="37.615467" lon="22.3426869"><ele>699.0</ele><time>2026-04-29T12:20:13.954Z</time></trkpt><trkpt lat="37.6154965" lon="22.3429054"><ele>699.0</ele><time>2026-04-29T12:20:14.954Z</time></trkpt><trkpt lat="37.6155289" lon="22.3431178"><ele>699.0</ele><time>2026-04-29T12:20:15.954Z</time></trkpt><trkpt lat="37.6155598" lon="22.3433231"><ele>698.6666666666666</ele><time>2026-04-29T12:20:16.954Z</time></trkpt><trkpt lat="37.6155907" lon="22.3435184"><ele>698.3333333333333</ele><time>2026-04-29T12:20:17.954Z</time></trkpt><trkpt lat="37.6156188" lon="22.343714"><ele>698.0</ele><time>2026-04-29T12:20:18.954Z</time></trkpt><trkpt lat="37.6156375" lon="22.3439106"><ele>697.6666666666666</ele><time>2026-04-29T12:20:19.955Z</time></trkpt><trkpt lat="37.6156451" lon="22.3441047"><ele>697.3333333333334</ele><time>2026-04-29T12:20:20.954Z</time></trkpt><trkpt lat="37.6156449" lon="22.3442933"><ele>697.0</ele><time>2026-04-29T12:20:21.955Z</time></trkpt><trkpt lat="37.6156398" lon="22.344478"><ele>697.0</ele><time>2026-04-29T12:20:22.954Z</time></trkpt><trkpt lat="37.6156335" lon="22.3446612"><ele>697.0</ele><time>2026-04-29T12:20:23.954Z</time></trkpt><trkpt lat="37.6156275" lon="22.3448428"><ele>697.0</ele><time>2026-04-29T12:20:24.954Z</time></trkpt><trkpt lat="37.6156198" lon="22.3450156"><ele>697.0</ele><time>2026-04-29T12:20:25.954Z</time></trkpt><trkpt lat="37.6156091" lon="22.3451901"><ele>696.5</ele><time>2026-04-29T12:20:26.955Z</time></trkpt><trkpt lat="37.6156039" lon="22.3453563"><ele>696.0</ele><time>2026-04-29T12:20:27.955Z</time></trkpt><trkpt lat="37.6155946" lon="22.3455166"><ele>695.5</ele><time>2026-04-29T12:20:28.955Z</time></trkpt><trkpt lat="37.6155829" lon="22.3456766"><ele>695.0</ele><time>2026-04-29T12:20:29.955Z</time></trkpt><trkpt lat="37.6155504" lon="22.3458246"><ele>695.0</ele><time>2026-04-29T12:20:30.954Z</time></trkpt><trkpt lat="37.6155042" lon="22.34597"><ele>695.0</ele><time>2026-04-29T12:20:31.954Z</time></trkpt><trkpt lat="37.6154511" lon="22.3461122"><ele>695.0</ele><time>2026-04-29T12:20:32.955Z</time></trkpt><trkpt lat="37.6153962" lon="22.3462576"><ele>695.0</ele><time>2026-04-29T12:20:33.954Z</time></trkpt><trkpt lat="37.6153426" lon="22.3464072"><ele>694.75</ele><time>2026-04-29T12:20:34.955Z</time></trkpt><trkpt lat="37.6152879" lon="22.3465588"><ele>694.5</ele><time>2026-04-29T12:20:35.954Z</time></trkpt><trkpt lat="37.6152345" lon="22.3467129"><ele>694.25</ele><time>2026-04-29T12:20:36.955Z</time></trkpt><trkpt lat="37.6151796" lon="22.3468663"><ele>694.0</ele><time>2026-04-29T12:20:37.954Z</time></trkpt><trkpt lat="37.6151291" lon="22.3470197"><ele>694.0</ele><time>2026-04-29T12:20:38.954Z</time></trkpt><trkpt lat="37.6150703" lon="22.347182"><ele>694.0</ele><time>2026-04-29T12:20:39.954Z</time></trkpt><trkpt lat="37.6150088" lon="22.3473546"><ele>694.0</ele><time>2026-04-29T12:20:40.955Z</time></trkpt><trkpt lat="37.6149443" lon="22.3475321"><ele>694.0</ele><time>2026-04-29T12:20:41.955Z</time></trkpt><trkpt lat="37.614877" lon="22.34771"><ele>693.0</ele><time>2026-04-29T12:20:42.954Z</time></trkpt><trkpt lat="37.6148057" lon="22.3478857"><ele>692.0</ele><time>2026-04-29T12:20:43.954Z</time></trkpt><trkpt lat="37.6147221" lon="22.3480375"><ele>691.0</ele><time>2026-04-29T12:20:44.954Z</time></trkpt><trkpt lat="37.6146274" lon="22.3481689"><ele>690.0</ele><time>2026-04-29T12:20:45.955Z</time></trkpt><trkpt lat="37.6145125" lon="22.3482626"><ele>689.25</ele><time>2026-04-29T12:20:46.955Z</time></trkpt><trkpt lat="37.6143989" lon="22.3483523"><ele>688.5</ele><time>2026-04-29T12:20:47.955Z</time></trkpt><trkpt lat="37.6142802" lon="22.3484399"><ele>687.75</ele><time>2026-04-29T12:20:48.955Z</time></trkpt><trkpt lat="37.6141621" lon="22.3485321"><ele>687.0</ele><time>2026-04-29T12:20:49.955Z</time></trkpt><trkpt lat="37.6140423" lon="22.3486289"><ele>687.0</ele><time>2026-04-29T12:20:50.955Z</time></trkpt><trkpt lat="37.6139209" lon="22.3487279"><ele>687.0</ele><time>2026-04-29T12:20:51.954Z</time></trkpt><trkpt lat="37.613799" lon="22.3488292"><ele>687.0</ele><time>2026-04-29T12:20:52.955Z</time></trkpt><trkpt lat="37.6136773" lon="22.3489376"><ele>687.0</ele><time>2026-04-29T12:20:53.954Z</time></trkpt><trkpt lat="37.6135617" lon="22.3490563"><ele>686.75</ele><time>2026-04-29T12:20:54.954Z</time></trkpt><trkpt lat="37.61346" lon="22.3491663"><ele>686.5</ele><time>2026-04-29T12:20:55.954Z</time></trkpt><trkpt lat="37.6133692" lon="22.3492722"><ele>686.25</ele><time>2026-04-29T12:20:56.954Z</time></trkpt><trkpt lat="37.6132808" lon="22.3493748"><ele>686.0</ele><time>2026-04-29T12:20:57.954Z</time></trkpt><trkpt lat="37.6131949" lon="22.3494756"><ele>686.0</ele><time>2026-04-29T12:20:58.955Z</time></trkpt><trkpt lat="37.6131079" lon="22.3495779"><ele>686.0</ele><time>2026-04-29T12:20:59.954Z</time></trkpt><trkpt lat="37.6130178" lon="22.3496861"><ele>686.0</ele><time>2026-04-29T12:21:00.955Z</time></trkpt><trkpt lat="37.6129214" lon="22.3497959"><ele>686.0</ele><time>2026-04-29T12:21:01.955Z</time></trkpt><trkpt lat="37.6128245" lon="22.3499019"><ele>685.0</ele><time>2026-04-29T12:21:02.954Z</time></trkpt><trkpt lat="37.6127343" lon="22.3500224"><ele>684.0</ele><time>2026-04-29T12:21:03.955Z</time></trkpt><trkpt lat="37.6126476" lon="22.3501387"><ele>683.0</ele><time>2026-04-29T12:21:04.955Z</time></trkpt><trkpt lat="37.6125706" lon="22.3502695"><ele>682.0</ele><time>2026-04-29T12:21:05.954Z</time></trkpt><trkpt lat="37.6125029" lon="22.3504153"><ele>681.0</ele><time>2026-04-29T12:21:06.955Z</time></trkpt><trkpt lat="37.6124526" lon="22.3505629"><ele>680.0</ele><time>2026-04-29T12:21:07.955Z</time></trkpt><trkpt lat="37.6124224" lon="22.3507136"><ele>679.0</ele><time>2026-04-29T12:21:08.955Z</time></trkpt><trkpt lat="37.6124007" lon="22.3508631"><ele>678.0</ele><time>2026-04-29T12:21:09.955Z</time></trkpt><trkpt lat="37.6123857" lon="22.3510023"><ele>678.0</ele><time>2026-04-29T12:21:10.955Z</time></trkpt><trkpt lat="37.6123754" lon="22.3511361"><ele>678.0</ele><time>2026-04-29T12:21:11.955Z</time></trkpt><trkpt lat="37.6123627" lon="22.3512658"><ele>678.0</ele><time>2026-04-29T12:21:12.954Z</time></trkpt><trkpt lat="37.6123525" lon="22.3513896"><ele>678.0</ele><time>2026-04-29T12:21:13.954Z</time></trkpt><trkpt lat="37.6123463" lon="22.3514981"><ele>678.0</ele><time>2026-04-29T12:21:14.955Z</time></trkpt><trkpt lat="37.6123403" lon="22.3516055"><ele>677.2</ele><time>2026-04-29T12:21:15.955Z</time></trkpt><trkpt lat="37.6123338" lon="22.3517193"><ele>676.4</ele><time>2026-04-29T12:21:16.954Z</time></trkpt><trkpt lat="37.6123241" lon="22.3518428"><ele>675.6</ele><time>2026-04-29T12:21:17.955Z</time></trkpt><trkpt lat="37.6123118" lon="22.3519733"><ele>674.8000000000001</ele><time>2026-04-29T12:21:18.955Z</time></trkpt><trkpt lat="37.6122999" lon="22.3521102"><ele>674.0</ele><time>2026-04-29T12:21:19.954Z</time></trkpt><trkpt lat="37.6122918" lon="22.3522531"><ele>673.4000000000001</ele><time>2026-04-29T12:21:20.954Z</time></trkpt><trkpt lat="37.6122823" lon="22.3523863"><ele>672.8</ele><time>2026-04-29T12:21:21.954Z</time></trkpt><trkpt lat="37.6122735" lon="22.3525199"><ele>672.2</ele><time>2026-04-29T12:21:22.954Z</time></trkpt><trkpt lat="37.6122655" lon="22.3526546"><ele>671.5999999999999</ele><time>2026-04-29T12:21:23.954Z</time></trkpt><trkpt lat="37.6122554" lon="22.3527845"><ele>671.0</ele><time>2026-04-29T12:21:24.954Z</time></trkpt><trkpt lat="37.6122421" lon="22.3529143"><ele>671.0</ele><time>2026-04-29T12:21:25.955Z</time></trkpt><trkpt lat="37.6122262" lon="22.3530388"><ele>671.0</ele><time>2026-04-29T12:21:26.955Z</time></trkpt><trkpt lat="37.6122085" lon="22.3531594"><ele>671.0</ele><time>2026-04-29T12:21:27.955Z</time></trkpt><trkpt lat="37.6121857" lon="22.3532861"><ele>671.0</ele><time>2026-04-29T12:21:28.954Z</time></trkpt><trkpt lat="37.6121607" lon="22.3534216"><ele>671.0</ele><time>2026-04-29T12:21:29.954Z</time></trkpt><trkpt lat="37.6121304" lon="22.3535484"><ele>670.0</ele><time>2026-04-29T12:21:30.955Z</time></trkpt><trkpt lat="37.6120931" lon="22.3536791"><ele>669.0</ele><time>2026-04-29T12:21:31.955Z</time></trkpt><trkpt lat="37.6120391" lon="22.3538192"><ele>668.0</ele><time>2026-04-29T12:21:32.954Z</time></trkpt><trkpt lat="37.6119789" lon="22.353967"><ele>667.0</ele><time>2026-04-29T12:21:33.954Z</time></trkpt><trkpt lat="37.6119154" lon="22.3541135"><ele>666.8333333333334</ele><time>2026-04-29T12:21:34.955Z</time></trkpt><trkpt lat="37.6118557" lon="22.3542402"><ele>666.6666666666667</ele><time>2026-04-29T12:21:35.955Z</time></trkpt><trkpt lat="37.6118056" lon="22.3543412"><ele>666.5</ele><time>2026-04-29T12:21:36.954Z</time></trkpt><trkpt lat="37.611764" lon="22.3544252"><ele>666.3333333333334</ele><time>2026-04-29T12:21:37.955Z</time></trkpt><trkpt lat="37.6117189" lon="22.3545238"><ele>666.1666666666666</ele><time>2026-04-29T12:21:39.955Z</time></trkpt><trkpt lat="37.611704" lon="22.3546049"><ele>666.0</ele><time>2026-04-29T12:22:13.955Z</time></trkpt><trkpt lat="37.6116328" lon="22.3547025"><ele>665.1999999999999</ele><time>2026-04-29T12:22:57.955Z</time></trkpt><trkpt lat="37.6115811" lon="22.3548204"><ele>664.4</ele><time>2026-04-29T12:22:59.955Z</time></trkpt><trkpt lat="37.6115427" lon="22.3549039"><ele>663.6</ele><time>2026-04-29T12:23:00.954Z</time></trkpt><trkpt lat="37.6114954" lon="22.3550071"><ele>662.8</ele><time>2026-04-29T12:23:01.955Z</time></trkpt><trkpt lat="37.6114455" lon="22.3551221"><ele>662.0</ele><time>2026-04-29T12:23:02.954Z</time></trkpt><trkpt lat="37.6113881" lon="22.3552499"><ele>662.0</ele><time>2026-04-29T12:23:03.955Z</time></trkpt><trkpt lat="37.6113233" lon="22.3553981"><ele>662.0</ele><time>2026-04-29T12:23:04.954Z</time></trkpt><trkpt lat="37.6112508" lon="22.35556"><ele>662.0</ele><time>2026-04-29T12:23:05.954Z</time></trkpt><trkpt lat="37.6111731" lon="22.3557271"><ele>662.0</ele><time>2026-04-29T12:23:06.955Z</time></trkpt><trkpt lat="37.6110925" lon="22.3559084"><ele>660.0</ele><time>2026-04-29T12:23:07.955Z</time></trkpt><trkpt lat="37.6110056" lon="22.3560954"><ele>658.0</ele><time>2026-04-29T12:23:08.955Z</time></trkpt><trkpt lat="37.6109112" lon="22.3562953"><ele>656.0</ele><time>2026-04-29T12:23:09.955Z</time></trkpt><trkpt lat="37.6108146" lon="22.3564963"><ele>653.6666666666666</ele><time>2026-04-29T12:23:10.954Z</time></trkpt><trkpt lat="37.6107191" lon="22.3566999"><ele>651.3333333333334</ele><time>2026-04-29T12:23:11.955Z</time></trkpt><trkpt lat="37.6106263" lon="22.3568916"><ele>649.0</ele><time>2026-04-29T12:23:12.954Z</time></trkpt><trkpt lat="37.610526" lon="22.3570833"><ele>649.0</ele><time>2026-04-29T12:23:13.955Z</time></trkpt><trkpt lat="37.6104181" lon="22.3572674"><ele>649.0</ele><time>2026-04-29T12:23:14.954Z</time></trkpt><trkpt lat="37.6102993" lon="22.357445"><ele>649.0</ele><time>2026-04-29T12:23:15.954Z</time></trkpt><trkpt lat="37.6101683" lon="22.3576176"><ele>648.0</ele><time>2026-04-29T12:23:16.954Z</time></trkpt><trkpt lat="37.610027" lon="22.3577804"><ele>647.0</ele><time>2026-04-29T12:23:17.954Z</time></trkpt><trkpt lat="37.6098807" lon="22.3579387"><ele>646.0</ele><time>2026-04-29T12:23:18.954Z</time></trkpt><trkpt lat="37.6097364" lon="22.3581039"><ele>646.0</ele><time>2026-04-29T12:23:19.955Z</time></trkpt><trkpt lat="37.6096044" lon="22.3582794"><ele>646.0</ele><time>2026-04-29T12:23:20.954Z</time></trkpt><trkpt lat="37.6094819" lon="22.3584646"><ele>646.0</ele><time>2026-04-29T12:23:21.954Z</time></trkpt><trkpt lat="37.6093706" lon="22.358657"><ele>646.3333333333334</ele><time>2026-04-29T12:23:22.955Z</time></trkpt><trkpt lat="37.6092667" lon="22.358852"><ele>646.6666666666666</ele><time>2026-04-29T12:23:23.955Z</time></trkpt><trkpt lat="37.6091645" lon="22.359049"><ele>647.0</ele><time>2026-04-29T12:23:24.955Z</time></trkpt><trkpt lat="37.6090639" lon="22.3592446"><ele>647.0</ele><time>2026-04-29T12:23:25.954Z</time></trkpt><trkpt lat="37.6089615" lon="22.3594443"><ele>647.0</ele><time>2026-04-29T12:23:26.954Z</time></trkpt><trkpt lat="37.6088564" lon="22.3596453"><ele>647.0</ele><time>2026-04-29T12:23:27.954Z</time></trkpt><trkpt lat="37.6087497" lon="22.359846"><ele>648.0</ele><time>2026-04-29T12:23:28.954Z</time></trkpt><trkpt lat="37.6086437" lon="22.3600398"><ele>649.0</ele><time>2026-04-29T12:23:29.954Z</time></trkpt><trkpt lat="37.6085265" lon="22.3602329"><ele>650.0</ele><time>2026-04-29T12:23:30.954Z</time></trkpt><trkpt lat="37.608406" lon="22.3604095"><ele>646.3333333333333</ele><time>2026-04-29T12:23:31.954Z</time></trkpt><trkpt lat="37.6082682" lon="22.3605779"><ele>642.6666666666666</ele><time>2026-04-29T12:23:32.955Z</time></trkpt><trkpt lat="37.6081312" lon="22.3607298"><ele>639.0</ele><time>2026-04-29T12:23:33.955Z</time></trkpt><trkpt lat="37.6079729" lon="22.3608648"><ele>642.3333333333334</ele><time>2026-04-29T12:23:34.955Z</time></trkpt><trkpt lat="37.6078113" lon="22.3609979"><ele>645.6666666666667</ele><time>2026-04-29T12:23:35.955Z</time></trkpt><trkpt lat="37.6076511" lon="22.3611307"><ele>649.0</ele><time>2026-04-29T12:23:36.955Z</time></trkpt><trkpt lat="37.6074874" lon="22.3612621"><ele>645.0</ele><time>2026-04-29T12:23:37.954Z</time></trkpt><trkpt lat="37.6073248" lon="22.3613912"><ele>641.0</ele><time>2026-04-29T12:23:38.954Z</time></trkpt><trkpt lat="37.6071586" lon="22.3615239"><ele>637.0</ele><time>2026-04-29T12:23:39.955Z</time></trkpt><trkpt lat="37.6069946" lon="22.3616671"><ele>640.6666666666667</ele><time>2026-04-29T12:23:40.955Z</time></trkpt><trkpt lat="37.6068377" lon="22.3618148"><ele>644.3333333333334</ele><time>2026-04-29T12:23:41.954Z</time></trkpt><trkpt lat="37.6066866" lon="22.3619713"><ele>648.0</ele><time>2026-04-29T12:23:42.954Z</time></trkpt><trkpt lat="37.6065432" lon="22.3621405"><ele>644.3333333333334</ele><time>2026-04-29T12:23:43.955Z</time></trkpt><trkpt lat="37.6064098" lon="22.3623246"><ele>640.6666666666667</ele><time>2026-04-29T12:23:44.955Z</time></trkpt><trkpt lat="37.6062892" lon="22.3625241"><ele>637.0</ele><time>2026-04-29T12:23:45.954Z</time></trkpt><trkpt lat="37.6061795" lon="22.3627343"><ele>638.0</ele><time>2026-04-29T12:23:46.955Z</time></trkpt><trkpt lat="37.606076" lon="22.3629529"><ele>639.0</ele><time>2026-04-29T12:23:47.955Z</time></trkpt><trkpt lat="37.6059777" lon="22.3631718"><ele>640.0</ele><time>2026-04-29T12:23:48.955Z</time></trkpt><trkpt lat="37.605882" lon="22.3633844"><ele>640.0</ele><time>2026-04-29T12:23:49.955Z</time></trkpt><trkpt lat="37.6057815" lon="22.3636013"><ele>640.0</ele><time>2026-04-29T12:23:50.955Z</time></trkpt><trkpt lat="37.6056823" lon="22.3638163"><ele>640.0</ele><time>2026-04-29T12:23:51.955Z</time></trkpt><trkpt lat="37.6055826" lon="22.3640195"><ele>641.6666666666667</ele><time>2026-04-29T12:23:52.954Z</time></trkpt><trkpt lat="37.60548" lon="22.3642015"><ele>643.3333333333334</ele><time>2026-04-29T12:23:53.955Z</time></trkpt><trkpt lat="37.6053622" lon="22.364357"><ele>645.0</ele><time>2026-04-29T12:23:54.955Z</time></trkpt><trkpt lat="37.6052268" lon="22.3644828"><ele>645.0</ele><time>2026-04-29T12:23:55.954Z</time></trkpt><trkpt lat="37.6050673" lon="22.3645606"><ele>645.0</ele><time>2026-04-29T12:23:56.955Z</time></trkpt><trkpt lat="37.6048919" lon="22.3645991"><ele>645.0</ele><time>2026-04-29T12:23:57.954Z</time></trkpt><trkpt lat="37.6046992" lon="22.3646088"><ele>646.3333333333334</ele><time>2026-04-29T12:23:58.954Z</time></trkpt><trkpt lat="37.6044954" lon="22.3645985"><ele>647.6666666666667</ele><time>2026-04-29T12:23:59.955Z</time></trkpt><trkpt lat="37.6042877" lon="22.3645832"><ele>649.0</ele><time>2026-04-29T12:24:00.955Z</time></trkpt><trkpt lat="37.604078" lon="22.3645737"><ele>649.0</ele><time>2026-04-29T12:24:01.955Z</time></trkpt><trkpt lat="37.6038695" lon="22.3645871"><ele>649.0</ele><time>2026-04-29T12:24:02.954Z</time></trkpt><trkpt lat="37.6036648" lon="22.3646352"><ele>649.0</ele><time>2026-04-29T12:24:03.955Z</time></trkpt><trkpt lat="37.6034637" lon="22.3647275"><ele>643.6666666666667</ele><time>2026-04-29T12:24:04.954Z</time></trkpt><trkpt lat="37.6032665" lon="22.3648482"><ele>638.3333333333334</ele><time>2026-04-29T12:24:05.955Z</time></trkpt><trkpt lat="37.6030746" lon="22.3649859"><ele>633.0</ele><time>2026-04-29T12:24:06.955Z</time></trkpt><trkpt lat="37.6028855" lon="22.3651192"><ele>636.0</ele><time>2026-04-29T12:24:07.955Z</time></trkpt><trkpt lat="37.6026931" lon="22.3652412"><ele>639.0</ele><time>2026-04-29T12:24:08.955Z</time></trkpt><trkpt lat="37.6024958" lon="22.3653413"><ele>642.0</ele><time>2026-04-29T12:24:09.954Z</time></trkpt><trkpt lat="37.6022935" lon="22.3654117"><ele>642.0</ele><time>2026-04-29T12:24:10.955Z</time></trkpt><trkpt lat="37.6020909" lon="22.3654516"><ele>642.0</ele><time>2026-04-29T12:24:11.954Z</time></trkpt><trkpt lat="37.6018753" lon="22.3654508"><ele>642.0</ele><time>2026-04-29T12:24:12.954Z</time></trkpt><trkpt lat="37.6016605" lon="22.3654409"><ele>644.3333333333334</ele><time>2026-04-29T12:24:13.954Z</time></trkpt><trkpt lat="37.6014436" lon="22.365431"><ele>646.6666666666667</ele><time>2026-04-29T12:24:14.954Z</time></trkpt><trkpt lat="37.6012322" lon="22.3654288"><ele>649.0</ele><time>2026-04-29T12:24:15.954Z</time></trkpt><trkpt lat="37.6010184" lon="22.3654376"><ele>650.6666666666667</ele><time>2026-04-29T12:24:16.955Z</time></trkpt><trkpt lat="37.6008046" lon="22.365467"><ele>652.3333333333334</ele><time>2026-04-29T12:24:17.955Z</time></trkpt><trkpt lat="37.6005944" lon="22.3655289"><ele>654.0</ele><time>2026-04-29T12:24:18.954Z</time></trkpt><trkpt lat="37.6004012" lon="22.3656284"><ele>648.3333333333334</ele><time>2026-04-29T12:24:19.954Z</time></trkpt><trkpt lat="37.6002362" lon="22.3657674"><ele>642.6666666666667</ele><time>2026-04-29T12:24:20.955Z</time></trkpt><trkpt lat="37.6001023" lon="22.3659489"><ele>637.0</ele><time>2026-04-29T12:24:21.954Z</time></trkpt><trkpt lat="37.5999905" lon="22.3661637"><ele>635.6666666666667</ele><time>2026-04-29T12:24:22.955Z</time></trkpt><trkpt lat="37.5998914" lon="22.3664003"><ele>634.3333333333334</ele><time>2026-04-29T12:24:23.955Z</time></trkpt><trkpt lat="37.5997954" lon="22.3666459"><ele>633.0</ele><time>2026-04-29T12:24:24.955Z</time></trkpt><trkpt lat="37.5996992" lon="22.366894"><ele>633.0</ele><time>2026-04-29T12:24:25.954Z</time></trkpt><trkpt lat="37.5996049" lon="22.3671476"><ele>633.0</ele><time>2026-04-29T12:24:26.954Z</time></trkpt><trkpt lat="37.5995097" lon="22.3674043"><ele>633.0</ele><time>2026-04-29T12:24:27.955Z</time></trkpt><trkpt lat="37.5994115" lon="22.3676705"><ele>634.0</ele><time>2026-04-29T12:24:28.955Z</time></trkpt><trkpt lat="37.5993071" lon="22.367948"><ele>635.0</ele><time>2026-04-29T12:24:29.955Z</time></trkpt><trkpt lat="37.5991986" lon="22.3682346"><ele>635.0</ele><time>2026-04-29T12:24:30.954Z</time></trkpt><trkpt lat="37.5990903" lon="22.3685223"><ele>635.0</ele><time>2026-04-29T12:24:31.954Z</time></trkpt><trkpt lat="37.5989843" lon="22.3688096"><ele>634.0</ele><time>2026-04-29T12:24:32.954Z</time></trkpt><trkpt lat="37.5988792" lon="22.3690993"><ele>633.0</ele><time>2026-04-29T12:24:33.954Z</time></trkpt><trkpt lat="37.5987736" lon="22.3693875"><ele>634.5</ele><time>2026-04-29T12:24:34.955Z</time></trkpt><trkpt lat="37.5986652" lon="22.3696695"><ele>636.0</ele><time>2026-04-29T12:24:35.954Z</time></trkpt><trkpt lat="37.5985631" lon="22.3699462"><ele>636.0</ele><time>2026-04-29T12:24:36.954Z</time></trkpt><trkpt lat="37.5984627" lon="22.3702256"><ele>636.0</ele><time>2026-04-29T12:24:37.954Z</time></trkpt><trkpt lat="37.598361" lon="22.3704967"><ele>635.5</ele><time>2026-04-29T12:24:38.954Z</time></trkpt><trkpt lat="37.5982613" lon="22.3707675"><ele>635.0</ele><time>2026-04-29T12:24:39.955Z</time></trkpt><trkpt lat="37.5981611" lon="22.3710402"><ele>635.0</ele><time>2026-04-29T12:24:40.954Z</time></trkpt><trkpt lat="37.5980628" lon="22.3713088"><ele>635.0</ele><time>2026-04-29T12:24:41.954Z</time></trkpt><trkpt lat="37.5979616" lon="22.371577"><ele>635.0</ele><time>2026-04-29T12:24:42.954Z</time></trkpt><trkpt lat="37.5978623" lon="22.3718457"><ele>635.0</ele><time>2026-04-29T12:24:43.954Z</time></trkpt><trkpt lat="37.597763" lon="22.3721142"><ele>635.0</ele><time>2026-04-29T12:24:44.955Z</time></trkpt><trkpt lat="37.5976618" lon="22.3723853"><ele>635.0</ele><time>2026-04-29T12:24:45.954Z</time></trkpt><trkpt lat="37.5975573" lon="22.3726572"><ele>635.0</ele><time>2026-04-29T12:24:46.955Z</time></trkpt><trkpt lat="37.5974445" lon="22.3729245"><ele>635.0</ele><time>2026-04-29T12:24:47.954Z</time></trkpt><trkpt lat="37.5973207" lon="22.3731822"><ele>634.5</ele><time>2026-04-29T12:24:48.954Z</time></trkpt><trkpt lat="37.5971764" lon="22.3734278"><ele>634.0</ele><time>2026-04-29T12:24:49.955Z</time></trkpt><trkpt lat="37.5970159" lon="22.3736584"><ele>634.0</ele><time>2026-04-29T12:24:50.955Z</time></trkpt><trkpt lat="37.5968415" lon="22.3738875"><ele>634.0</ele><time>2026-04-29T12:24:51.955Z</time></trkpt><trkpt lat="37.5966618" lon="22.3741165"><ele>634.0</ele><time>2026-04-29T12:24:52.955Z</time></trkpt><trkpt lat="37.5964828" lon="22.3743433"><ele>634.0</ele><time>2026-04-29T12:24:53.955Z</time></trkpt><trkpt lat="37.596303" lon="22.3745703"><ele>634.0</ele><time>2026-04-29T12:24:54.954Z</time></trkpt><trkpt lat="37.5961229" lon="22.3748002"><ele>634.0</ele><time>2026-04-29T12:24:55.954Z</time></trkpt><trkpt lat="37.5959411" lon="22.3750298"><ele>634.0</ele><time>2026-04-29T12:24:56.955Z</time></trkpt><trkpt lat="37.5957582" lon="22.3752618"><ele>634.0</ele><time>2026-04-29T12:24:57.955Z</time></trkpt><trkpt lat="37.5955755" lon="22.375493"><ele>634.0</ele><time>2026-04-29T12:24:58.955Z</time></trkpt><trkpt lat="37.5953923" lon="22.3757225"><ele>634.0</ele><time>2026-04-29T12:24:59.954Z</time></trkpt><trkpt lat="37.5952082" lon="22.3759483"><ele>634.0</ele><time>2026-04-29T12:25:00.954Z</time></trkpt><trkpt lat="37.5950219" lon="22.3761734"><ele>634.0</ele><time>2026-04-29T12:25:01.955Z</time></trkpt><trkpt lat="37.5948347" lon="22.3763976"><ele>633.5</ele><time>2026-04-29T12:25:02.955Z</time></trkpt><trkpt lat="37.5946449" lon="22.3766201"><ele>633.0</ele><time>2026-04-29T12:25:03.955Z</time></trkpt><trkpt lat="37.5944538" lon="22.3768387"><ele>633.0</ele><time>2026-04-29T12:25:04.955Z</time></trkpt><trkpt lat="37.5942617" lon="22.3770565"><ele>633.0</ele><time>2026-04-29T12:25:05.955Z</time></trkpt><trkpt lat="37.5940707" lon="22.3772711"><ele>632.5</ele><time>2026-04-29T12:25:06.955Z</time></trkpt><trkpt lat="37.5938814" lon="22.3774865"><ele>632.0</ele><time>2026-04-29T12:25:07.955Z</time></trkpt><trkpt lat="37.5936935" lon="22.3776999"><ele>632.5</ele><time>2026-04-29T12:25:08.955Z</time></trkpt><trkpt lat="37.593508" lon="22.3779114"><ele>633.0</ele><time>2026-04-29T12:25:09.954Z</time></trkpt><trkpt lat="37.593322" lon="22.3781211"><ele>633.0</ele><time>2026-04-29T12:25:10.955Z</time></trkpt><trkpt lat="37.5931418" lon="22.378327"><ele>633.0</ele><time>2026-04-29T12:25:11.954Z</time></trkpt><trkpt lat="37.5929643" lon="22.3785339"><ele>633.0</ele><time>2026-04-29T12:25:12.954Z</time></trkpt><trkpt lat="37.592793" lon="22.3787403"><ele>633.0</ele><time>2026-04-29T12:25:13.954Z</time></trkpt><trkpt lat="37.5926337" lon="22.3789503"><ele>633.5</ele><time>2026-04-29T12:25:14.954Z</time></trkpt><trkpt lat="37.5924944" lon="22.3791755"><ele>634.0</ele><time>2026-04-29T12:25:15.954Z</time></trkpt><trkpt lat="37.5923776" lon="22.3794258"><ele>633.0</ele><time>2026-04-29T12:25:16.955Z</time></trkpt><trkpt lat="37.5922842" lon="22.3796942"><ele>632.0</ele><time>2026-04-29T12:25:17.955Z</time></trkpt><trkpt lat="37.5922162" lon="22.3799793"><ele>632.0</ele><time>2026-04-29T12:25:18.955Z</time></trkpt><trkpt lat="37.5921672" lon="22.3802771"><ele>632.0</ele><time>2026-04-29T12:25:19.954Z</time></trkpt><trkpt lat="37.5921291" lon="22.3805783"><ele>632.5</ele><time>2026-04-29T12:25:20.955Z</time></trkpt><trkpt lat="37.5920928" lon="22.3808803"><ele>633.0</ele><time>2026-04-29T12:25:21.954Z</time></trkpt><trkpt lat="37.5920579" lon="22.3811856"><ele>634.0</ele><time>2026-04-29T12:25:22.954Z</time></trkpt><trkpt lat="37.5920259" lon="22.3814954"><ele>635.0</ele><time>2026-04-29T12:25:23.955Z</time></trkpt><trkpt lat="37.591994" lon="22.381805"><ele>635.0</ele><time>2026-04-29T12:25:24.955Z</time></trkpt><trkpt lat="37.5919601" lon="22.382114"><ele>635.0</ele><time>2026-04-29T12:25:25.954Z</time></trkpt><trkpt lat="37.5919263" lon="22.3824246"><ele>635.5</ele><time>2026-04-29T12:25:26.954Z</time></trkpt><trkpt lat="37.5918947" lon="22.3827358"><ele>636.0</ele><time>2026-04-29T12:25:27.954Z</time></trkpt><trkpt lat="37.5918653" lon="22.3830469"><ele>635.0</ele><time>2026-04-29T12:25:28.955Z</time></trkpt><trkpt lat="37.5918335" lon="22.3833559"><ele>634.0</ele><time>2026-04-29T12:25:29.955Z</time></trkpt><trkpt lat="37.5917984" lon="22.3836646"><ele>633.0</ele><time>2026-04-29T12:25:30.954Z</time></trkpt><trkpt lat="37.5917671" lon="22.3839689"><ele>632.0</ele><time>2026-04-29T12:25:31.955Z</time></trkpt><trkpt lat="37.5917342" lon="22.3842754"><ele>632.0</ele><time>2026-04-29T12:25:32.954Z</time></trkpt><trkpt lat="37.5917052" lon="22.3845778"><ele>632.0</ele><time>2026-04-29T12:25:33.955Z</time></trkpt><trkpt lat="37.5916739" lon="22.3848803"><ele>632.5</ele><time>2026-04-29T12:25:34.955Z</time></trkpt><trkpt lat="37.5916437" lon="22.3851803"><ele>633.0</ele><time>2026-04-29T12:25:35.955Z</time></trkpt><trkpt lat="37.591613" lon="22.3854816"><ele>633.5</ele><time>2026-04-29T12:25:36.955Z</time></trkpt><trkpt lat="37.5915807" lon="22.3857843"><ele>634.0</ele><time>2026-04-29T12:25:37.954Z</time></trkpt><trkpt lat="37.5915495" lon="22.3860796"><ele>635.0</ele><time>2026-04-29T12:25:38.954Z</time></trkpt><trkpt lat="37.5915188" lon="22.386374"><ele>636.0</ele><time>2026-04-29T12:25:39.955Z</time></trkpt><trkpt lat="37.5914873" lon="22.3866661"><ele>636.0</ele><time>2026-04-29T12:25:40.954Z</time></trkpt><trkpt lat="37.5914549" lon="22.3869579"><ele>636.0</ele><time>2026-04-29T12:25:41.954Z</time></trkpt><trkpt lat="37.591425" lon="22.3872469"><ele>636.0</ele><time>2026-04-29T12:25:42.955Z</time></trkpt><trkpt lat="37.5913972" lon="22.3875324"><ele>636.0</ele><time>2026-04-29T12:25:43.954Z</time></trkpt><trkpt lat="37.5913673" lon="22.3878157"><ele>636.3333333333334</ele><time>2026-04-29T12:25:44.955Z</time></trkpt><trkpt lat="37.5913382" lon="22.3880952"><ele>636.6666666666667</ele><time>2026-04-29T12:25:45.954Z</time></trkpt><trkpt lat="37.5913089" lon="22.3883732"><ele>637.0</ele><time>2026-04-29T12:25:46.954Z</time></trkpt><trkpt lat="37.5912809" lon="22.3886489"><ele>636.6666666666667</ele><time>2026-04-29T12:25:47.955Z</time></trkpt><trkpt lat="37.5912546" lon="22.3889218"><ele>636.3333333333334</ele><time>2026-04-29T12:25:48.955Z</time></trkpt><trkpt lat="37.5912316" lon="22.389195"><ele>636.0</ele><time>2026-04-29T12:25:49.955Z</time></trkpt><trkpt lat="37.5912046" lon="22.3894649"><ele>636.3333333333334</ele><time>2026-04-29T12:25:50.955Z</time></trkpt><trkpt lat="37.5911778" lon="22.3897209"><ele>636.6666666666667</ele><time>2026-04-29T12:25:51.954Z</time></trkpt><trkpt lat="37.5911493" lon="22.3899652"><ele>637.0</ele><time>2026-04-29T12:25:52.954Z</time></trkpt><trkpt lat="37.5911209" lon="22.3902026"><ele>637.0</ele><time>2026-04-29T12:25:53.954Z</time></trkpt><trkpt lat="37.5910888" lon="22.3904302"><ele>637.0</ele><time>2026-04-29T12:25:54.955Z</time></trkpt><trkpt lat="37.5910522" lon="22.3906426"><ele>637.0</ele><time>2026-04-29T12:25:55.954Z</time></trkpt><trkpt lat="37.5910105" lon="22.3908411"><ele>637.0</ele><time>2026-04-29T12:25:56.955Z</time></trkpt><trkpt lat="37.5909568" lon="22.3910214"><ele>637.0</ele><time>2026-04-29T12:25:57.954Z</time></trkpt><trkpt lat="37.5908851" lon="22.3911722"><ele>637.0</ele><time>2026-04-29T12:25:58.955Z</time></trkpt><trkpt lat="37.5907949" lon="22.3912957"><ele>637.0</ele><time>2026-04-29T12:25:59.954Z</time></trkpt><trkpt lat="37.5906772" lon="22.3914007"><ele>637.0</ele><time>2026-04-29T12:26:00.954Z</time></trkpt><trkpt lat="37.590532" lon="22.3915009"><ele>637.0</ele><time>2026-04-29T12:26:01.954Z</time></trkpt><trkpt lat="37.5903534" lon="22.3916012"><ele>637.0</ele><time>2026-04-29T12:26:02.955Z</time></trkpt><trkpt lat="37.5901583" lon="22.3917017"><ele>636.3333333333334</ele><time>2026-04-29T12:26:03.955Z</time></trkpt><trkpt lat="37.5899677" lon="22.3917917"><ele>635.6666666666666</ele><time>2026-04-29T12:26:04.955Z</time></trkpt><trkpt lat="37.5897689" lon="22.391874"><ele>635.0</ele><time>2026-04-29T12:26:05.955Z</time></trkpt><trkpt lat="37.5895631" lon="22.3919499"><ele>635.0</ele><time>2026-04-29T12:26:06.955Z</time></trkpt><trkpt lat="37.589353" lon="22.3920229"><ele>635.0</ele><time>2026-04-29T12:26:07.954Z</time></trkpt><trkpt lat="37.58914" lon="22.3920985"><ele>635.0</ele><time>2026-04-29T12:26:08.954Z</time></trkpt><trkpt lat="37.5889239" lon="22.3921765"><ele>635.6666666666666</ele><time>2026-04-29T12:26:09.955Z</time></trkpt><trkpt lat="37.588705" lon="22.3922538"><ele>636.3333333333334</ele><time>2026-04-29T12:26:10.954Z</time></trkpt><trkpt lat="37.5884912" lon="22.3923237"><ele>637.0</ele><time>2026-04-29T12:26:11.954Z</time></trkpt><trkpt lat="37.58828" lon="22.392391"><ele>637.0</ele><time>2026-04-29T12:26:12.955Z</time></trkpt><trkpt lat="37.588071" lon="22.3924602"><ele>637.0</ele><time>2026-04-29T12:26:13.954Z</time></trkpt><trkpt lat="37.5878586" lon="22.3925325"><ele>637.0</ele><time>2026-04-29T12:26:14.954Z</time></trkpt><trkpt lat="37.5876414" lon="22.392605"><ele>637.5</ele><time>2026-04-29T12:26:15.955Z</time></trkpt><trkpt lat="37.5874215" lon="22.3926796"><ele>638.0</ele><time>2026-04-29T12:26:16.955Z</time></trkpt><trkpt lat="37.5871997" lon="22.3927545"><ele>637.0</ele><time>2026-04-29T12:26:17.955Z</time></trkpt><trkpt lat="37.5869765" lon="22.3928286"><ele>636.0</ele><time>2026-04-29T12:26:18.954Z</time></trkpt><trkpt lat="37.5867518" lon="22.3929047"><ele>636.0</ele><time>2026-04-29T12:26:19.954Z</time></trkpt><trkpt lat="37.5865269" lon="22.3929851"><ele>636.0</ele><time>2026-04-29T12:26:20.954Z</time></trkpt><trkpt lat="37.5863007" lon="22.3930714"><ele>635.5</ele><time>2026-04-29T12:26:21.954Z</time></trkpt><trkpt lat="37.5860763" lon="22.3931594"><ele>635.0</ele><time>2026-04-29T12:26:22.955Z</time></trkpt><trkpt lat="37.5858486" lon="22.3932508"><ele>635.0</ele><time>2026-04-29T12:26:23.955Z</time></trkpt><trkpt lat="37.5856252" lon="22.3933373"><ele>635.0</ele><time>2026-04-29T12:26:24.954Z</time></trkpt><trkpt lat="37.585398" lon="22.3934264"><ele>634.5</ele><time>2026-04-29T12:26:25.955Z</time></trkpt><trkpt lat="37.5851723" lon="22.3935186"><ele>634.0</ele><time>2026-04-29T12:26:26.954Z</time></trkpt><trkpt lat="37.5849462" lon="22.3936124"><ele>634.0</ele><time>2026-04-29T12:26:27.954Z</time></trkpt><trkpt lat="37.5847179" lon="22.3937064"><ele>634.0</ele><time>2026-04-29T12:26:28.954Z</time></trkpt><trkpt lat="37.584488" lon="22.3938042"><ele>635.0</ele><time>2026-04-29T12:26:29.955Z</time></trkpt><trkpt lat="37.5842547" lon="22.393903"><ele>636.0</ele><time>2026-04-29T12:26:30.955Z</time></trkpt><trkpt lat="37.5840205" lon="22.394006"><ele>636.0</ele><time>2026-04-29T12:26:31.955Z</time></trkpt><trkpt lat="37.5837847" lon="22.39412"><ele>636.0</ele><time>2026-04-29T12:26:32.954Z</time></trkpt><trkpt lat="37.5835513" lon="22.3942419"><ele>636.0</ele><time>2026-04-29T12:26:33.955Z</time></trkpt><trkpt lat="37.5833233" lon="22.3943765"><ele>636.0</ele><time>2026-04-29T12:26:34.955Z</time></trkpt><trkpt lat="37.5830981" lon="22.394515"><ele>636.0</ele><time>2026-04-29T12:26:35.955Z</time></trkpt><trkpt lat="37.5828757" lon="22.3946543"><ele>636.0</ele><time>2026-04-29T12:26:36.954Z</time></trkpt><trkpt lat="37.5826549" lon="22.3947919"><ele>636.0</ele><time>2026-04-29T12:26:37.954Z</time></trkpt><trkpt lat="37.5824349" lon="22.3949285"><ele>636.0</ele><time>2026-04-29T12:26:38.954Z</time></trkpt><trkpt lat="37.5822157" lon="22.3950604"><ele>635.5</ele><time>2026-04-29T12:26:39.954Z</time></trkpt><trkpt lat="37.5819982" lon="22.395195"><ele>635.0</ele><time>2026-04-29T12:26:40.955Z</time></trkpt><trkpt lat="37.5817819" lon="22.3953299"><ele>635.0</ele><time>2026-04-29T12:26:41.955Z</time></trkpt><trkpt lat="37.5815667" lon="22.3954672"><ele>635.0</ele><time>2026-04-29T12:26:42.955Z</time></trkpt><trkpt lat="37.5813511" lon="22.3956054"><ele>634.0</ele><time>2026-04-29T12:26:43.954Z</time></trkpt><trkpt lat="37.581135" lon="22.3957433"><ele>633.0</ele><time>2026-04-29T12:26:44.955Z</time></trkpt><trkpt lat="37.5809169" lon="22.3958761"><ele>633.0</ele><time>2026-04-29T12:26:45.955Z</time></trkpt><trkpt lat="37.5806988" lon="22.3960119"><ele>633.0</ele><time>2026-04-29T12:26:46.955Z</time></trkpt><trkpt lat="37.580486" lon="22.396145"><ele>633.5</ele><time>2026-04-29T12:26:47.954Z</time></trkpt><trkpt lat="37.580269" lon="22.3962824"><ele>634.0</ele><time>2026-04-29T12:26:48.955Z</time></trkpt><trkpt lat="37.5800513" lon="22.3964193"><ele>634.5</ele><time>2026-04-29T12:26:49.954Z</time></trkpt><trkpt lat="37.5798328" lon="22.3965533"><ele>635.0</ele><time>2026-04-29T12:26:50.955Z</time></trkpt><trkpt lat="37.5796144" lon="22.3966822"><ele>635.0</ele><time>2026-04-29T12:26:51.954Z</time></trkpt><trkpt lat="37.5793955" lon="22.3968085"><ele>635.0</ele><time>2026-04-29T12:26:52.954Z</time></trkpt><trkpt lat="37.5791771" lon="22.396931"><ele>635.0</ele><time>2026-04-29T12:26:53.954Z</time></trkpt><trkpt lat="37.5789606" lon="22.3970481"><ele>635.0</ele><time>2026-04-29T12:26:54.955Z</time></trkpt><trkpt lat="37.5787443" lon="22.397164"><ele>635.5</ele><time>2026-04-29T12:26:55.954Z</time></trkpt><trkpt lat="37.5785292" lon="22.3972758"><ele>636.0</ele><time>2026-04-29T12:26:56.955Z</time></trkpt><trkpt lat="37.5783167" lon="22.3973901"><ele>636.0</ele><time>2026-04-29T12:26:57.955Z</time></trkpt><trkpt lat="37.5781106" lon="22.397504"><ele>636.0</ele><time>2026-04-29T12:26:58.954Z</time></trkpt><trkpt lat="37.5779022" lon="22.3976113"><ele>635.6666666666666</ele><time>2026-04-29T12:26:59.955Z</time></trkpt><trkpt lat="37.5776929" lon="22.3977183"><ele>635.3333333333333</ele><time>2026-04-29T12:27:00.955Z</time></trkpt><trkpt lat="37.5774861" lon="22.39782"><ele>635.0</ele><time>2026-04-29T12:27:01.954Z</time></trkpt><trkpt lat="37.5772791" lon="22.3979176"><ele>635.3333333333333</ele><time>2026-04-29T12:27:02.955Z</time></trkpt><trkpt lat="37.5770701" lon="22.398007"><ele>635.6666666666666</ele><time>2026-04-29T12:27:03.955Z</time></trkpt><trkpt lat="37.5768602" lon="22.3980892"><ele>636.0</ele><time>2026-04-29T12:27:04.955Z</time></trkpt><trkpt lat="37.5766473" lon="22.3981664"><ele>636.0</ele><time>2026-04-29T12:27:05.954Z</time></trkpt><trkpt lat="37.5764326" lon="22.3982395"><ele>636.0</ele><time>2026-04-29T12:27:06.954Z</time></trkpt><trkpt lat="37.5762167" lon="22.398312"><ele>636.0</ele><time>2026-04-29T12:27:07.954Z</time></trkpt><trkpt lat="37.5760007" lon="22.3983831"><ele>636.0</ele><time>2026-04-29T12:27:08.954Z</time></trkpt><trkpt lat="37.5757829" lon="22.3984555"><ele>636.0</ele><time>2026-04-29T12:27:09.954Z</time></trkpt><trkpt lat="37.5755644" lon="22.3985279"><ele>636.5</ele><time>2026-04-29T12:27:10.954Z</time></trkpt><trkpt lat="37.5753443" lon="22.3986009"><ele>637.0</ele><time>2026-04-29T12:27:11.954Z</time></trkpt><trkpt lat="37.5751187" lon="22.3986746"><ele>637.0</ele><time>2026-04-29T12:27:12.954Z</time></trkpt><trkpt lat="37.5748864" lon="22.3987519"><ele>637.0</ele><time>2026-04-29T12:27:13.955Z</time></trkpt><trkpt lat="37.5746499" lon="22.3988286"><ele>637.0</ele><time>2026-04-29T12:27:14.955Z</time></trkpt><trkpt lat="37.5744121" lon="22.3989068"><ele>637.0</ele><time>2026-04-29T12:27:15.955Z</time></trkpt><trkpt lat="37.5741724" lon="22.3989874"><ele>637.0</ele><time>2026-04-29T12:27:16.954Z</time></trkpt><trkpt lat="37.5739324" lon="22.3990669"><ele>637.0</ele><time>2026-04-29T12:27:17.954Z</time></trkpt><trkpt lat="37.5736929" lon="22.399142"><ele>636.5</ele><time>2026-04-29T12:27:18.954Z</time></trkpt><trkpt lat="37.5734534" lon="22.3992138"><ele>636.0</ele><time>2026-04-29T12:27:19.955Z</time></trkpt><trkpt lat="37.5732127" lon="22.399282"><ele>636.0</ele><time>2026-04-29T12:27:20.955Z</time></trkpt><trkpt lat="37.5729706" lon="22.3993439"><ele>636.0</ele><time>2026-04-29T12:27:21.954Z</time></trkpt><trkpt lat="37.5727278" lon="22.3993913"><ele>636.0</ele><time>2026-04-29T12:27:22.955Z</time></trkpt><trkpt lat="37.5724849" lon="22.3994338"><ele>636.0</ele><time>2026-04-29T12:27:23.955Z</time></trkpt><trkpt lat="37.5722405" lon="22.3994772"><ele>636.0</ele><time>2026-04-29T12:27:24.955Z</time></trkpt><trkpt lat="37.571996" lon="22.3995213"><ele>636.0</ele><time>2026-04-29T12:27:25.955Z</time></trkpt><trkpt lat="37.5717493" lon="22.3995646"><ele>636.0</ele><time>2026-04-29T12:27:26.955Z</time></trkpt><trkpt lat="37.5715041" lon="22.3996095"><ele>636.0</ele><time>2026-04-29T12:27:27.955Z</time></trkpt><trkpt lat="37.5712601" lon="22.3996543"><ele>637.0</ele><time>2026-04-29T12:27:28.954Z</time></trkpt><trkpt lat="37.5710169" lon="22.3997007"><ele>638.0</ele><time>2026-04-29T12:27:29.955Z</time></trkpt><trkpt lat="37.5707755" lon="22.3997461"><ele>638.0</ele><time>2026-04-29T12:27:30.954Z</time></trkpt><trkpt lat="37.5705362" lon="22.3997893"><ele>638.0</ele><time>2026-04-29T12:27:31.955Z</time></trkpt><trkpt lat="37.5702988" lon="22.3998317"><ele>637.5</ele><time>2026-04-29T12:27:32.954Z</time></trkpt><trkpt lat="37.5700618" lon="22.3998739"><ele>637.0</ele><time>2026-04-29T12:27:33.955Z</time></trkpt><trkpt lat="37.5698261" lon="22.3999183"><ele>637.0</ele><time>2026-04-29T12:27:34.955Z</time></trkpt><trkpt lat="37.5695945" lon="22.3999623"><ele>637.0</ele><time>2026-04-29T12:27:35.955Z</time></trkpt><trkpt lat="37.5693588" lon="22.4000106"><ele>637.5</ele><time>2026-04-29T12:27:36.955Z</time></trkpt><trkpt lat="37.5691253" lon="22.4000623"><ele>638.0</ele><time>2026-04-29T12:27:37.955Z</time></trkpt><trkpt lat="37.5688909" lon="22.4001155"><ele>638.0</ele><time>2026-04-29T12:27:38.954Z</time></trkpt><trkpt lat="37.5686605" lon="22.4001819"><ele>638.0</ele><time>2026-04-29T12:27:39.954Z</time></trkpt><trkpt lat="37.5684273" lon="22.4002511"><ele>638.0</ele><time>2026-04-29T12:27:40.955Z</time></trkpt><trkpt lat="37.5681955" lon="22.4003229"><ele>638.0</ele><time>2026-04-29T12:27:41.955Z</time></trkpt><trkpt lat="37.567965" lon="22.4003944"><ele>638.0</ele><time>2026-04-29T12:27:42.955Z</time></trkpt><trkpt lat="37.5677365" lon="22.4004683"><ele>638.0</ele><time>2026-04-29T12:27:43.954Z</time></trkpt><trkpt lat="37.5675092" lon="22.4005404"><ele>638.0</ele><time>2026-04-29T12:27:44.954Z</time></trkpt><trkpt lat="37.5672827" lon="22.4006132"><ele>638.0</ele><time>2026-04-29T12:27:45.954Z</time></trkpt><trkpt lat="37.5670575" lon="22.4006854"><ele>638.0</ele><time>2026-04-29T12:27:46.955Z</time></trkpt><trkpt lat="37.5668319" lon="22.4007605"><ele>638.0</ele><time>2026-04-29T12:27:47.954Z</time></trkpt><trkpt lat="37.5666068" lon="22.4008346"><ele>638.0</ele><time>2026-04-29T12:27:48.955Z</time></trkpt><trkpt lat="37.566382" lon="22.4009084"><ele>638.0</ele><time>2026-04-29T12:27:49.954Z</time></trkpt><trkpt lat="37.566157" lon="22.4009806"><ele>640.5</ele><time>2026-04-29T12:27:50.955Z</time></trkpt><trkpt lat="37.5659321" lon="22.4010523"><ele>643.0</ele><time>2026-04-29T12:27:51.954Z</time></trkpt><trkpt lat="37.5657075" lon="22.4011249"><ele>643.0</ele><time>2026-04-29T12:27:52.955Z</time></trkpt><trkpt lat="37.5654851" lon="22.4011959"><ele>643.0</ele><time>2026-04-29T12:27:53.955Z</time></trkpt><trkpt lat="37.5652652" lon="22.401269"><ele>643.0</ele><time>2026-04-29T12:27:54.955Z</time></trkpt><trkpt lat="37.5650458" lon="22.4013393"><ele>643.0</ele><time>2026-04-29T12:27:55.955Z</time></trkpt><trkpt lat="37.5648257" lon="22.4014092"><ele>643.0</ele><time>2026-04-29T12:27:56.954Z</time></trkpt><trkpt lat="37.5646059" lon="22.4014806"><ele>643.0</ele><time>2026-04-29T12:27:57.955Z</time></trkpt><trkpt lat="37.5643918" lon="22.4015505"><ele>643.0</ele><time>2026-04-29T12:27:58.955Z</time></trkpt><trkpt lat="37.5641766" lon="22.4016213"><ele>645.0</ele><time>2026-04-29T12:27:59.954Z</time></trkpt><trkpt lat="37.5639597" lon="22.4016908"><ele>647.0</ele><time>2026-04-29T12:28:00.954Z</time></trkpt><trkpt lat="37.5637402" lon="22.4017607"><ele>650.0</ele><time>2026-04-29T12:28:01.954Z</time></trkpt><trkpt lat="37.5635201" lon="22.4018322"><ele>653.0</ele><time>2026-04-29T12:28:02.954Z</time></trkpt><trkpt lat="37.5633001" lon="22.4019078"><ele>653.0</ele><time>2026-04-29T12:28:03.955Z</time></trkpt><trkpt lat="37.56308" lon="22.4019811"><ele>653.0</ele><time>2026-04-29T12:28:04.955Z</time></trkpt><trkpt lat="37.5628605" lon="22.4020545"><ele>650.0</ele><time>2026-04-29T12:28:05.955Z</time></trkpt><trkpt lat="37.5626426" lon="22.4021254"><ele>647.0</ele><time>2026-04-29T12:28:06.954Z</time></trkpt><trkpt lat="37.5624239" lon="22.4021952"><ele>647.0</ele><time>2026-04-29T12:28:07.954Z</time></trkpt><trkpt lat="37.5622058" lon="22.4022657"><ele>647.0</ele><time>2026-04-29T12:28:08.955Z</time></trkpt><trkpt lat="37.5619868" lon="22.4023353"><ele>648.5</ele><time>2026-04-29T12:28:09.955Z</time></trkpt><trkpt lat="37.5617673" lon="22.4023997"><ele>650.0</ele><time>2026-04-29T12:28:10.955Z</time></trkpt><trkpt lat="37.5615478" lon="22.4024572"><ele>650.0</ele><time>2026-04-29T12:28:11.955Z</time></trkpt><trkpt lat="37.5613259" lon="22.4025053"><ele>650.0</ele><time>2026-04-29T12:28:12.955Z</time></trkpt><trkpt lat="37.5611026" lon="22.402545"><ele>651.0</ele><time>2026-04-29T12:28:13.955Z</time></trkpt><trkpt lat="37.5608773" lon="22.4025787"><ele>652.0</ele><time>2026-04-29T12:28:14.955Z</time></trkpt><trkpt lat="37.5606518" lon="22.4026076"><ele>652.0</ele><time>2026-04-29T12:28:15.955Z</time></trkpt><trkpt lat="37.5604264" lon="22.4026307"><ele>652.0</ele><time>2026-04-29T12:28:16.955Z</time></trkpt><trkpt lat="37.5602013" lon="22.4026442"><ele>652.5</ele><time>2026-04-29T12:28:17.955Z</time></trkpt><trkpt lat="37.5599753" lon="22.4026512"><ele>653.0</ele><time>2026-04-29T12:28:18.955Z</time></trkpt><trkpt lat="37.5597491" lon="22.4026474"><ele>651.5</ele><time>2026-04-29T12:28:19.954Z</time></trkpt><trkpt lat="37.5595231" lon="22.4026346"><ele>650.0</ele><time>2026-04-29T12:28:20.955Z</time></trkpt><trkpt lat="37.5592975" lon="22.402615"><ele>650.0</ele><time>2026-04-29T12:28:21.954Z</time></trkpt><trkpt lat="37.5590725" lon="22.4025854"><ele>650.0</ele><time>2026-04-29T12:28:22.954Z</time></trkpt><trkpt lat="37.5588486" lon="22.4025479"><ele>649.0</ele><time>2026-04-29T12:28:23.955Z</time></trkpt><trkpt lat="37.5586239" lon="22.4025068"><ele>648.0</ele><time>2026-04-29T12:28:24.954Z</time></trkpt><trkpt lat="37.5583994" lon="22.402466"><ele>648.0</ele><time>2026-04-29T12:28:25.954Z</time></trkpt><trkpt lat="37.5581749" lon="22.4024205"><ele>648.0</ele><time>2026-04-29T12:28:26.954Z</time></trkpt><trkpt lat="37.5579507" lon="22.4023733"><ele>647.5</ele><time>2026-04-29T12:28:27.955Z</time></trkpt><trkpt lat="37.5577286" lon="22.4023218"><ele>647.0</ele><time>2026-04-29T12:28:28.955Z</time></trkpt><trkpt lat="37.557508" lon="22.4022641"><ele>647.0</ele><time>2026-04-29T12:28:29.955Z</time></trkpt><trkpt lat="37.5572932" lon="22.4021961"><ele>647.0</ele><time>2026-04-29T12:28:30.954Z</time></trkpt><trkpt lat="37.5570835" lon="22.4021228"><ele>647.0</ele><time>2026-04-29T12:28:31.955Z</time></trkpt><trkpt lat="37.5568808" lon="22.4020396"><ele>647.3333333333333</ele><time>2026-04-29T12:28:32.954Z</time></trkpt><trkpt lat="37.5566919" lon="22.4019488"><ele>647.6666666666666</ele><time>2026-04-29T12:28:33.954Z</time></trkpt><trkpt lat="37.5565171" lon="22.4018524"><ele>648.0</ele><time>2026-04-29T12:28:34.955Z</time></trkpt><trkpt lat="37.5563554" lon="22.4017526"><ele>647.3333333333334</ele><time>2026-04-29T12:28:35.954Z</time></trkpt><trkpt lat="37.5562009" lon="22.4016519"><ele>646.6666666666667</ele><time>2026-04-29T12:28:36.954Z</time></trkpt><trkpt lat="37.5560537" lon="22.4015537"><ele>646.0</ele><time>2026-04-29T12:28:37.954Z</time></trkpt><trkpt lat="37.5559071" lon="22.4014537"><ele>646.0</ele><time>2026-04-29T12:28:38.955Z</time></trkpt><trkpt lat="37.5557628" lon="22.4013518"><ele>646.0</ele><time>2026-04-29T12:28:39.955Z</time></trkpt><trkpt lat="37.5556157" lon="22.401252"><ele>646.0</ele><time>2026-04-29T12:28:40.954Z</time></trkpt><trkpt lat="37.5554695" lon="22.4011517"><ele>645.3333333333334</ele><time>2026-04-29T12:28:41.955Z</time></trkpt><trkpt lat="37.5553309" lon="22.401055"><ele>644.6666666666666</ele><time>2026-04-29T12:28:42.954Z</time></trkpt><trkpt lat="37.5551986" lon="22.4009646"><ele>644.0</ele><time>2026-04-29T12:28:43.954Z</time></trkpt><trkpt lat="37.5550715" lon="22.4008816"><ele>644.0</ele><time>2026-04-29T12:28:44.954Z</time></trkpt><trkpt lat="37.5549508" lon="22.4008031"><ele>644.0</ele><time>2026-04-29T12:28:45.954Z</time></trkpt><trkpt lat="37.5548374" lon="22.4007257"><ele>644.0</ele><time>2026-04-29T12:28:46.955Z</time></trkpt><trkpt lat="37.5547271" lon="22.4006518"><ele>644.0</ele><time>2026-04-29T12:28:47.954Z</time></trkpt><trkpt lat="37.554623" lon="22.4005777"><ele>644.0</ele><time>2026-04-29T12:28:48.954Z</time></trkpt><trkpt lat="37.5545138" lon="22.4005111"><ele>644.0</ele><time>2026-04-29T12:28:49.955Z</time></trkpt><trkpt lat="37.5544094" lon="22.4004426"><ele>644.0</ele><time>2026-04-29T12:28:50.954Z</time></trkpt><trkpt lat="37.5543038" lon="22.4003703"><ele>644.0</ele><time>2026-04-29T12:28:51.955Z</time></trkpt><trkpt lat="37.5541958" lon="22.4002969"><ele>644.25</ele><time>2026-04-29T12:28:52.955Z</time></trkpt><trkpt lat="37.5540881" lon="22.4002251"><ele>644.5</ele><time>2026-04-29T12:28:53.955Z</time></trkpt><trkpt lat="37.5539764" lon="22.400149"><ele>644.75</ele><time>2026-04-29T12:28:54.954Z</time></trkpt><trkpt lat="37.5538465" lon="22.4000605"><ele>645.0</ele><time>2026-04-29T12:28:55.955Z</time></trkpt><trkpt lat="37.5537169" lon="22.3999699"><ele>644.6666666666666</ele><time>2026-04-29T12:28:56.954Z</time></trkpt><trkpt lat="37.5535844" lon="22.3998738"><ele>644.3333333333333</ele><time>2026-04-29T12:28:57.955Z</time></trkpt><trkpt lat="37.5534455" lon="22.3997765"><ele>644.0</ele><time>2026-04-29T12:28:58.955Z</time></trkpt><trkpt lat="37.5533059" lon="22.3996795"><ele>644.6666666666666</ele><time>2026-04-29T12:28:59.954Z</time></trkpt><trkpt lat="37.5531661" lon="22.399585"><ele>645.3333333333334</ele><time>2026-04-29T12:29:00.955Z</time></trkpt><trkpt lat="37.5530254" lon="22.3994871"><ele>646.0</ele><time>2026-04-29T12:29:01.954Z</time></trkpt><trkpt lat="37.5528856" lon="22.3993909"><ele>645.6666666666667</ele><time>2026-04-29T12:29:02.955Z</time></trkpt><trkpt lat="37.552745" lon="22.3992947"><ele>645.3333333333334</ele><time>2026-04-29T12:29:03.955Z</time></trkpt><trkpt lat="37.5526045" lon="22.3991998"><ele>645.0</ele><time>2026-04-29T12:29:04.954Z</time></trkpt><trkpt lat="37.5524618" lon="22.3991044"><ele>645.0</ele><time>2026-04-29T12:29:05.955Z</time></trkpt><trkpt lat="37.5523217" lon="22.3990098"><ele>645.0</ele><time>2026-04-29T12:29:06.954Z</time></trkpt><trkpt lat="37.5521806" lon="22.3989145"><ele>645.0</ele><time>2026-04-29T12:29:07.955Z</time></trkpt><trkpt lat="37.5520391" lon="22.3988148"><ele>645.0</ele><time>2026-04-29T12:29:08.955Z</time></trkpt><trkpt lat="37.5518941" lon="22.3987119"><ele>645.0</ele><time>2026-04-29T12:29:09.954Z</time></trkpt><trkpt lat="37.5517446" lon="22.3986097"><ele>645.0</ele><time>2026-04-29T12:29:10.954Z</time></trkpt><trkpt lat="37.5515915" lon="22.3985101"><ele>645.0</ele><time>2026-04-29T12:29:11.955Z</time></trkpt><trkpt lat="37.5514346" lon="22.3984085"><ele>645.0</ele><time>2026-04-29T12:29:12.955Z</time></trkpt><trkpt lat="37.5512792" lon="22.3983016"><ele>645.0</ele><time>2026-04-29T12:29:13.955Z</time></trkpt><trkpt lat="37.5511204" lon="22.3981897"><ele>645.0</ele><time>2026-04-29T12:29:14.955Z</time></trkpt><trkpt lat="37.5509609" lon="22.3980801"><ele>645.0</ele><time>2026-04-29T12:29:15.954Z</time></trkpt><trkpt lat="37.5507963" lon="22.3979701"><ele>645.0</ele><time>2026-04-29T12:29:16.955Z</time></trkpt><trkpt lat="37.5506294" lon="22.3978575"><ele>645.0</ele><time>2026-04-29T12:29:17.955Z</time></trkpt><trkpt lat="37.5504629" lon="22.3977449"><ele>645.0</ele><time>2026-04-29T12:29:18.954Z</time></trkpt><trkpt lat="37.5502955" lon="22.3976313"><ele>645.0</ele><time>2026-04-29T12:29:19.955Z</time></trkpt><trkpt lat="37.5501301" lon="22.3975202"><ele>645.0</ele><time>2026-04-29T12:29:20.954Z</time></trkpt><trkpt lat="37.5499679" lon="22.3974106"><ele>645.0</ele><time>2026-04-29T12:29:21.954Z</time></trkpt><trkpt lat="37.5498081" lon="22.3973019"><ele>645.0</ele><time>2026-04-29T12:29:22.955Z</time></trkpt><trkpt lat="37.5496488" lon="22.3971946"><ele>645.6666666666666</ele><time>2026-04-29T12:29:23.954Z</time></trkpt><trkpt lat="37.5494862" lon="22.3970857"><ele>646.3333333333333</ele><time>2026-04-29T12:29:24.954Z</time></trkpt><trkpt lat="37.5493232" lon="22.3969759"><ele>647.0</ele><time>2026-04-29T12:29:25.955Z</time></trkpt><trkpt lat="37.5491603" lon="22.3968639"><ele>647.0</ele><time>2026-04-29T12:29:26.955Z</time></trkpt><trkpt lat="37.5489839" lon="22.3967534"><ele>647.0</ele><time>2026-04-29T12:29:27.954Z</time></trkpt><trkpt lat="37.5487942" lon="22.3966348"><ele>647.0</ele><time>2026-04-29T12:29:28.955Z</time></trkpt><trkpt lat="37.548596" lon="22.3965013"><ele>647.5</ele><time>2026-04-29T12:29:29.954Z</time></trkpt><trkpt lat="37.5483889" lon="22.3963569"><ele>648.0</ele><time>2026-04-29T12:29:30.954Z</time></trkpt><trkpt lat="37.5481847" lon="22.3962139"><ele>648.0</ele><time>2026-04-29T12:29:31.955Z</time></trkpt><trkpt lat="37.5479857" lon="22.3960729"><ele>648.0</ele><time>2026-04-29T12:29:32.955Z</time></trkpt><trkpt lat="37.547792" lon="22.3959367"><ele>648.0</ele><time>2026-04-29T12:29:33.954Z</time></trkpt><trkpt lat="37.5476033" lon="22.3958037"><ele>648.0</ele><time>2026-04-29T12:29:34.954Z</time></trkpt><trkpt lat="37.5474193" lon="22.3956766"><ele>648.0</ele><time>2026-04-29T12:29:35.955Z</time></trkpt><trkpt lat="37.5472359" lon="22.3955505"><ele>648.0</ele><time>2026-04-29T12:29:36.955Z</time></trkpt><trkpt lat="37.5470522" lon="22.3954253"><ele>648.0</ele><time>2026-04-29T12:29:37.955Z</time></trkpt><trkpt lat="37.5468676" lon="22.3953"><ele>648.0</ele><time>2026-04-29T12:29:38.954Z</time></trkpt><trkpt lat="37.5466779" lon="22.3951721"><ele>648.0</ele><time>2026-04-29T12:29:39.954Z</time></trkpt><trkpt lat="37.5464872" lon="22.3950451"><ele>648.0</ele><time>2026-04-29T12:29:40.955Z</time></trkpt><trkpt lat="37.5462997" lon="22.3949182"><ele>648.0</ele><time>2026-04-29T12:29:41.954Z</time></trkpt><trkpt lat="37.5461122" lon="22.3947904"><ele>647.6666666666666</ele><time>2026-04-29T12:29:42.955Z</time></trkpt><trkpt lat="37.5459298" lon="22.3946657"><ele>647.3333333333333</ele><time>2026-04-29T12:29:43.955Z</time></trkpt><trkpt lat="37.5457476" lon="22.3945423"><ele>647.0</ele><time>2026-04-29T12:29:44.955Z</time></trkpt><trkpt lat="37.545568" lon="22.394421"><ele>647.0</ele><time>2026-04-29T12:29:45.955Z</time></trkpt><trkpt lat="37.5453933" lon="22.3942978"><ele>647.0</ele><time>2026-04-29T12:29:46.954Z</time></trkpt><trkpt lat="37.545218" lon="22.3941746"><ele>647.0</ele><time>2026-04-29T12:29:47.954Z</time></trkpt><trkpt lat="37.5450415" lon="22.3940527"><ele>646.6666666666666</ele><time>2026-04-29T12:29:48.954Z</time></trkpt><trkpt lat="37.5448647" lon="22.3939295"><ele>646.3333333333334</ele><time>2026-04-29T12:29:49.955Z</time></trkpt><trkpt lat="37.544685" lon="22.393807"><ele>646.0</ele><time>2026-04-29T12:29:50.955Z</time></trkpt><trkpt lat="37.5445043" lon="22.393681"><ele>646.0</ele><time>2026-04-29T12:29:51.955Z</time></trkpt><trkpt lat="37.5443257" lon="22.393554"><ele>646.0</ele><time>2026-04-29T12:29:52.955Z</time></trkpt><trkpt lat="37.5441442" lon="22.3934334"><ele>646.0</ele><time>2026-04-29T12:29:53.954Z</time></trkpt><trkpt lat="37.5439648" lon="22.3933134"><ele>646.0</ele><time>2026-04-29T12:29:54.955Z</time></trkpt><trkpt lat="37.5437865" lon="22.3931913"><ele>646.0</ele><time>2026-04-29T12:29:55.955Z</time></trkpt><trkpt lat="37.5436076" lon="22.3930694"><ele>646.0</ele><time>2026-04-29T12:29:56.955Z</time></trkpt><trkpt lat="37.5434292" lon="22.3929461"><ele>646.0</ele><time>2026-04-29T12:29:57.955Z</time></trkpt><trkpt lat="37.5432478" lon="22.3928196"><ele>646.0</ele><time>2026-04-29T12:29:58.954Z</time></trkpt><trkpt lat="37.5430657" lon="22.3926939"><ele>646.0</ele><time>2026-04-29T12:29:59.955Z</time></trkpt><trkpt lat="37.5428799" lon="22.3925681"><ele>646.0</ele><time>2026-04-29T12:30:00.954Z</time></trkpt><trkpt lat="37.5426953" lon="22.3924416"><ele>646.0</ele><time>2026-04-29T12:30:01.955Z</time></trkpt><trkpt lat="37.5425106" lon="22.392315"><ele>646.0</ele><time>2026-04-29T12:30:02.955Z</time></trkpt><trkpt lat="37.5423259" lon="22.3921876"><ele>645.6666666666667</ele><time>2026-04-29T12:30:03.954Z</time></trkpt><trkpt lat="37.5421404" lon="22.3920616"><ele>645.3333333333334</ele><time>2026-04-29T12:30:04.954Z</time></trkpt><trkpt lat="37.5419535" lon="22.3919347"><ele>645.0</ele><time>2026-04-29T12:30:05.955Z</time></trkpt><trkpt lat="37.5417691" lon="22.391805"><ele>645.0</ele><time>2026-04-29T12:30:06.955Z</time></trkpt><trkpt lat="37.5415843" lon="22.3916779"><ele>645.0</ele><time>2026-04-29T12:30:07.955Z</time></trkpt><trkpt lat="37.5413987" lon="22.3915489"><ele>645.0</ele><time>2026-04-29T12:30:08.955Z</time></trkpt><trkpt lat="37.5412126" lon="22.3914212"><ele>644.6666666666666</ele><time>2026-04-29T12:30:09.955Z</time></trkpt><trkpt lat="37.5410265" lon="22.3912944"><ele>644.3333333333333</ele><time>2026-04-29T12:30:10.955Z</time></trkpt><trkpt lat="37.5408395" lon="22.3911683"><ele>644.0</ele><time>2026-04-29T12:30:11.955Z</time></trkpt><trkpt lat="37.5406513" lon="22.3910416"><ele>644.0</ele><time>2026-04-29T12:30:12.954Z</time></trkpt><trkpt lat="37.540465" lon="22.3909139"><ele>644.0</ele><time>2026-04-29T12:30:13.955Z</time></trkpt><trkpt lat="37.5402772" lon="22.3907847"><ele>644.0</ele><time>2026-04-29T12:30:14.954Z</time></trkpt><trkpt lat="37.5400905" lon="22.3906563"><ele>644.0</ele><time>2026-04-29T12:30:15.954Z</time></trkpt><trkpt lat="37.5399011" lon="22.3905266"><ele>644.0</ele><time>2026-04-29T12:30:16.955Z</time></trkpt><trkpt lat="37.5397127" lon="22.3903971"><ele>644.0</ele><time>2026-04-29T12:30:17.954Z</time></trkpt><trkpt lat="37.5395241" lon="22.3902696"><ele>644.3333333333333</ele><time>2026-04-29T12:30:18.955Z</time></trkpt><trkpt lat="37.5393354" lon="22.3901429"><ele>644.6666666666666</ele><time>2026-04-29T12:30:19.955Z</time></trkpt><trkpt lat="37.5391479" lon="22.3900126"><ele>645.0</ele><time>2026-04-29T12:30:20.954Z</time></trkpt><trkpt lat="37.5389583" lon="22.3898838"><ele>645.0</ele><time>2026-04-29T12:30:21.955Z</time></trkpt><trkpt lat="37.5387705" lon="22.3897578"><ele>645.0</ele><time>2026-04-29T12:30:22.954Z</time></trkpt><trkpt lat="37.5385838" lon="22.3896307"><ele>645.0</ele><time>2026-04-29T12:30:23.954Z</time></trkpt><trkpt lat="37.5383955" lon="22.3894986"><ele>645.6666666666666</ele><time>2026-04-29T12:30:24.955Z</time></trkpt><trkpt lat="37.5382054" lon="22.3893651"><ele>646.3333333333333</ele><time>2026-04-29T12:30:25.954Z</time></trkpt><trkpt lat="37.5380138" lon="22.3892314"><ele>647.0</ele><time>2026-04-29T12:30:26.954Z</time></trkpt><trkpt lat="37.5378208" lon="22.3890985"><ele>647.0</ele><time>2026-04-29T12:30:27.954Z</time></trkpt><trkpt lat="37.537629" lon="22.3889703"><ele>647.0</ele><time>2026-04-29T12:30:28.955Z</time></trkpt><trkpt lat="37.5374364" lon="22.3888417"><ele>647.0</ele><time>2026-04-29T12:30:29.954Z</time></trkpt><trkpt lat="37.5372432" lon="22.3887099"><ele>647.3333333333333</ele><time>2026-04-29T12:30:30.955Z</time></trkpt><trkpt lat="37.5370503" lon="22.3885772"><ele>647.6666666666666</ele><time>2026-04-29T12:30:31.954Z</time></trkpt><trkpt lat="37.5368578" lon="22.388443"><ele>648.0</ele><time>2026-04-29T12:30:32.955Z</time></trkpt><trkpt lat="37.5366656" lon="22.3883091"><ele>648.0</ele><time>2026-04-29T12:30:33.954Z</time></trkpt><trkpt lat="37.5364749" lon="22.3881785"><ele>648.0</ele><time>2026-04-29T12:30:34.955Z</time></trkpt><trkpt lat="37.5362837" lon="22.3880475"><ele>648.0</ele><time>2026-04-29T12:30:35.954Z</time></trkpt><trkpt lat="37.5360955" lon="22.3879201"><ele>648.0</ele><time>2026-04-29T12:30:36.955Z</time></trkpt><trkpt lat="37.5359081" lon="22.3877935"><ele>648.0</ele><time>2026-04-29T12:30:37.955Z</time></trkpt><trkpt lat="37.53572" lon="22.3876637"><ele>648.0</ele><time>2026-04-29T12:30:38.954Z</time></trkpt><trkpt lat="37.5355311" lon="22.3875328"><ele>648.0</ele><time>2026-04-29T12:30:39.955Z</time></trkpt><trkpt lat="37.5353399" lon="22.3874005"><ele>648.0</ele><time>2026-04-29T12:30:40.954Z</time></trkpt><trkpt lat="37.5351467" lon="22.3872693"><ele>648.0</ele><time>2026-04-29T12:30:41.955Z</time></trkpt><trkpt lat="37.5349532" lon="22.3871426"><ele>648.0</ele><time>2026-04-29T12:30:42.955Z</time></trkpt><trkpt lat="37.5347583" lon="22.3870111"><ele>648.0</ele><time>2026-04-29T12:30:43.955Z</time></trkpt><trkpt lat="37.534563" lon="22.3868812"><ele>648.0</ele><time>2026-04-29T12:30:44.955Z</time></trkpt><trkpt lat="37.5343688" lon="22.3867519"><ele>648.5</ele><time>2026-04-29T12:30:45.955Z</time></trkpt><trkpt lat="37.5341704" lon="22.3866237"><ele>649.0</ele><time>2026-04-29T12:30:46.954Z</time></trkpt><trkpt lat="37.5339657" lon="22.3864917"><ele>649.0</ele><time>2026-04-29T12:30:47.955Z</time></trkpt><trkpt lat="37.5337599" lon="22.3863565"><ele>649.0</ele><time>2026-04-29T12:30:48.954Z</time></trkpt><trkpt lat="37.5335559" lon="22.3862154"><ele>649.5</ele><time>2026-04-29T12:30:49.955Z</time></trkpt><trkpt lat="37.533356" lon="22.3860708"><ele>650.0</ele><time>2026-04-29T12:30:50.954Z</time></trkpt><trkpt lat="37.5331575" lon="22.3859277"><ele>650.0</ele><time>2026-04-29T12:30:51.954Z</time></trkpt><trkpt lat="37.5329573" lon="22.3857928"><ele>650.0</ele><time>2026-04-29T12:30:52.955Z</time></trkpt><trkpt lat="37.5327631" lon="22.3856596"><ele>650.0</ele><time>2026-04-29T12:30:53.954Z</time></trkpt><trkpt lat="37.532574" lon="22.3855262"><ele>650.0</ele><time>2026-04-29T12:30:54.955Z</time></trkpt><trkpt lat="37.5323882" lon="22.3853926"><ele>650.0</ele><time>2026-04-29T12:30:55.954Z</time></trkpt><trkpt lat="37.5322017" lon="22.3852608"><ele>650.0</ele><time>2026-04-29T12:30:56.955Z</time></trkpt><trkpt lat="37.5320159" lon="22.3851328"><ele>650.0</ele><time>2026-04-29T12:30:57.955Z</time></trkpt><trkpt lat="37.5318303" lon="22.3850037"><ele>650.0</ele><time>2026-04-29T12:30:58.955Z</time></trkpt><trkpt lat="37.5316436" lon="22.3848772"><ele>650.0</ele><time>2026-04-29T12:30:59.955Z</time></trkpt><trkpt lat="37.531455" lon="22.3847511"><ele>651.0</ele><time>2026-04-29T12:31:00.955Z</time></trkpt><trkpt lat="37.5312691" lon="22.3846242"><ele>652.0</ele><time>2026-04-29T12:31:01.955Z</time></trkpt><trkpt lat="37.5310846" lon="22.3844975"><ele>653.0</ele><time>2026-04-29T12:31:02.954Z</time></trkpt><trkpt lat="37.5309004" lon="22.3843717"><ele>653.0</ele><time>2026-04-29T12:31:03.954Z</time></trkpt><trkpt lat="37.5307158" lon="22.3842449"><ele>653.0</ele><time>2026-04-29T12:31:04.955Z</time></trkpt><trkpt lat="37.5305334" lon="22.3841192"><ele>653.0</ele><time>2026-04-29T12:31:05.955Z</time></trkpt><trkpt lat="37.5303492" lon="22.3839922"><ele>653.3333333333333</ele><time>2026-04-29T12:31:06.954Z</time></trkpt><trkpt lat="37.5301644" lon="22.3838688"><ele>653.6666666666666</ele><time>2026-04-29T12:31:07.954Z</time></trkpt><trkpt lat="37.5299793" lon="22.3837411"><ele>654.0</ele><time>2026-04-29T12:31:08.955Z</time></trkpt><trkpt lat="37.5297971" lon="22.3836125"><ele>654.0</ele><time>2026-04-29T12:31:09.955Z</time></trkpt><trkpt lat="37.5296139" lon="22.3834844"><ele>654.0</ele><time>2026-04-29T12:31:10.955Z</time></trkpt><trkpt lat="37.5294297" lon="22.3833593"><ele>654.0</ele><time>2026-04-29T12:31:11.955Z</time></trkpt><trkpt lat="37.5292443" lon="22.3832354"><ele>654.3333333333334</ele><time>2026-04-29T12:31:12.955Z</time></trkpt><trkpt lat="37.5290573" lon="22.3831074"><ele>654.6666666666667</ele><time>2026-04-29T12:31:13.955Z</time></trkpt><trkpt lat="37.5288691" lon="22.3829833"><ele>655.0</ele><time>2026-04-29T12:31:14.954Z</time></trkpt><trkpt lat="37.5286845" lon="22.3828564"><ele>654.0</ele><time>2026-04-29T12:31:15.955Z</time></trkpt><trkpt lat="37.5285012" lon="22.3827267"><ele>653.0</ele><time>2026-04-29T12:31:16.954Z</time></trkpt><trkpt lat="37.5283171" lon="22.3826003"><ele>652.0</ele><time>2026-04-29T12:31:17.954Z</time></trkpt><trkpt lat="37.5281346" lon="22.3824753"><ele>652.0</ele><time>2026-04-29T12:31:18.954Z</time></trkpt><trkpt lat="37.5279533" lon="22.382348"><ele>652.0</ele><time>2026-04-29T12:31:19.955Z</time></trkpt><trkpt lat="37.5277707" lon="22.3822228"><ele>652.0</ele><time>2026-04-29T12:31:20.955Z</time></trkpt><trkpt lat="37.5275896" lon="22.3820981"><ele>652.3333333333334</ele><time>2026-04-29T12:31:21.955Z</time></trkpt><trkpt lat="37.5274096" lon="22.3819752"><ele>652.6666666666666</ele><time>2026-04-29T12:31:22.954Z</time></trkpt><trkpt lat="37.5272282" lon="22.3818529"><ele>653.0</ele><time>2026-04-29T12:31:23.955Z</time></trkpt><trkpt lat="37.527048" lon="22.3817306"><ele>653.0</ele><time>2026-04-29T12:31:24.955Z</time></trkpt><trkpt lat="37.526871" lon="22.3816093"><ele>653.0</ele><time>2026-04-29T12:31:25.954Z</time></trkpt><trkpt lat="37.5266978" lon="22.3814899"><ele>653.0</ele><time>2026-04-29T12:31:26.955Z</time></trkpt><trkpt lat="37.5265223" lon="22.3813738"><ele>653.0</ele><time>2026-04-29T12:31:27.954Z</time></trkpt><trkpt lat="37.5263483" lon="22.381257"><ele>653.0</ele><time>2026-04-29T12:31:28.954Z</time></trkpt><trkpt lat="37.5261729" lon="22.3811389"><ele>653.0</ele><time>2026-04-29T12:31:29.955Z</time></trkpt><trkpt lat="37.525999" lon="22.38102"><ele>653.0</ele><time>2026-04-29T12:31:30.954Z</time></trkpt><trkpt lat="37.5258261" lon="22.3809034"><ele>653.0</ele><time>2026-04-29T12:31:31.955Z</time></trkpt><trkpt lat="37.5256572" lon="22.3807846"><ele>653.0</ele><time>2026-04-29T12:31:32.954Z</time></trkpt><trkpt lat="37.5254894" lon="22.3806681"><ele>653.3333333333333</ele><time>2026-04-29T12:31:33.955Z</time></trkpt><trkpt lat="37.5253227" lon="22.3805538"><ele>653.6666666666666</ele><time>2026-04-29T12:31:34.955Z</time></trkpt><trkpt lat="37.5251645" lon="22.380445"><ele>654.0</ele><time>2026-04-29T12:31:35.954Z</time></trkpt><trkpt lat="37.525008" lon="22.3803384"><ele>655.0</ele><time>2026-04-29T12:31:36.954Z</time></trkpt><trkpt lat="37.5248477" lon="22.3802326"><ele>656.0</ele><time>2026-04-29T12:31:37.954Z</time></trkpt><trkpt lat="37.5246873" lon="22.3801269"><ele>657.0</ele><time>2026-04-29T12:31:38.954Z</time></trkpt><trkpt lat="37.5245282" lon="22.3800231"><ele>657.0</ele><time>2026-04-29T12:31:39.955Z</time></trkpt><trkpt lat="37.52437" lon="22.3799278"><ele>657.0</ele><time>2026-04-29T12:31:40.954Z</time></trkpt><trkpt lat="37.5242116" lon="22.3798355"><ele>657.0</ele><time>2026-04-29T12:31:41.955Z</time></trkpt><trkpt lat="37.524058" lon="22.3797434"><ele>657.0</ele><time>2026-04-29T12:31:42.955Z</time></trkpt><trkpt lat="37.5239029" lon="22.379656"><ele>657.0</ele><time>2026-04-29T12:31:43.954Z</time></trkpt><trkpt lat="37.523756" lon="22.379571"><ele>657.0</ele><time>2026-04-29T12:31:44.955Z</time></trkpt><trkpt lat="37.5236116" lon="22.3794906"><ele>657.0</ele><time>2026-04-29T12:31:45.954Z</time></trkpt><trkpt lat="37.523471" lon="22.3794134"><ele>657.0</ele><time>2026-04-29T12:31:46.954Z</time></trkpt><trkpt lat="37.5233392" lon="22.3793383"><ele>657.0</ele><time>2026-04-29T12:31:47.954Z</time></trkpt><trkpt lat="37.5232118" lon="22.3792651"><ele>657.0</ele><time>2026-04-29T12:31:48.954Z</time></trkpt><trkpt lat="37.523087" lon="22.3791962"><ele>657.0</ele><time>2026-04-29T12:31:49.954Z</time></trkpt><trkpt lat="37.522965" lon="22.3791302"><ele>657.0</ele><time>2026-04-29T12:31:50.955Z</time></trkpt><trkpt lat="37.5228543" lon="22.3790701"><ele>657.0</ele><time>2026-04-29T12:31:51.955Z</time></trkpt><trkpt lat="37.5227534" lon="22.3790143"><ele>657.0</ele><time>2026-04-29T12:31:52.954Z</time></trkpt><trkpt lat="37.5226625" lon="22.3789671"><ele>656.8333333333334</ele><time>2026-04-29T12:31:53.955Z</time></trkpt><trkpt lat="37.5225831" lon="22.3789246"><ele>656.6666666666666</ele><time>2026-04-29T12:31:54.955Z</time></trkpt><trkpt lat="37.5225206" lon="22.3788904"><ele>656.5</ele><time>2026-04-29T12:31:55.954Z</time></trkpt><trkpt lat="37.5224345" lon="22.3788383"><ele>656.3333333333333</ele><time>2026-04-29T12:31:57.955Z</time></trkpt><trkpt lat="37.5223612" lon="22.3787879"><ele>656.1666666666666</ele><time>2026-04-29T12:32:37.954Z</time></trkpt><trkpt lat="37.5222956" lon="22.37875"><ele>656.0</ele><time>2026-04-29T12:32:39.954Z</time></trkpt><trkpt lat="37.5222014" lon="22.3787383"><ele>656.0</ele><time>2026-04-29T12:32:41.954Z</time></trkpt><trkpt lat="37.5221417" lon="22.3787736"><ele>656.0</ele><time>2026-04-29T12:32:42.955Z</time></trkpt><trkpt lat="37.522061" lon="22.3789002"><ele>656.0</ele><time>2026-04-29T12:32:44.955Z</time></trkpt><trkpt lat="37.5220228" lon="22.3790148"><ele>656.0</ele><time>2026-04-29T12:32:45.955Z</time></trkpt><trkpt lat="37.5219779" lon="22.3791434"><ele>656.0</ele><time>2026-04-29T12:32:46.954Z</time></trkpt><trkpt lat="37.5219328" lon="22.379274"><ele>656.0</ele><time>2026-04-29T12:32:47.955Z</time></trkpt><trkpt lat="37.5218849" lon="22.3794066"><ele>656.0</ele><time>2026-04-29T12:32:48.954Z</time></trkpt><trkpt lat="37.5218385" lon="22.379537"><ele>656.0</ele><time>2026-04-29T12:32:49.954Z</time></trkpt><trkpt lat="37.5217927" lon="22.3796735"><ele>656.0</ele><time>2026-04-29T12:32:50.954Z</time></trkpt><trkpt lat="37.5217498" lon="22.379805"><ele>655.25</ele><time>2026-04-29T12:32:51.955Z</time></trkpt><trkpt lat="37.521709" lon="22.3799424"><ele>654.5</ele><time>2026-04-29T12:32:52.955Z</time></trkpt><trkpt lat="37.5216624" lon="22.3800822"><ele>653.75</ele><time>2026-04-29T12:32:53.955Z</time></trkpt><trkpt lat="37.5216126" lon="22.3802304"><ele>653.0</ele><time>2026-04-29T12:32:54.954Z</time></trkpt><trkpt lat="37.5215622" lon="22.3803796"><ele>652.75</ele><time>2026-04-29T12:32:55.954Z</time></trkpt><trkpt lat="37.521515" lon="22.3805249"><ele>652.5</ele><time>2026-04-29T12:32:56.955Z</time></trkpt><trkpt lat="37.5214691" lon="22.3806612"><ele>652.25</ele><time>2026-04-29T12:32:57.955Z</time></trkpt><trkpt lat="37.5214251" lon="22.3807845"><ele>652.0</ele><time>2026-04-29T12:32:58.955Z</time></trkpt><trkpt lat="37.5213822" lon="22.3809075"><ele>652.0</ele><time>2026-04-29T12:32:59.955Z</time></trkpt><trkpt lat="37.5213325" lon="22.381032"><ele>652.0</ele><time>2026-04-29T12:33:00.955Z</time></trkpt><trkpt lat="37.5212816" lon="22.3811609"><ele>652.0</ele><time>2026-04-29T12:33:01.954Z</time></trkpt><trkpt lat="37.5212284" lon="22.3812909"><ele>652.0</ele><time>2026-04-29T12:33:02.954Z</time></trkpt><trkpt lat="37.5211643" lon="22.381422"><ele>652.0</ele><time>2026-04-29T12:33:03.955Z</time></trkpt><trkpt lat="37.521091" lon="22.3815655"><ele>652.0</ele><time>2026-04-29T12:33:04.954Z</time></trkpt><trkpt lat="37.521022" lon="22.381715"><ele>652.0</ele><time>2026-04-29T12:33:05.955Z</time></trkpt><trkpt lat="37.5209491" lon="22.3818696"><ele>652.0</ele><time>2026-04-29T12:33:06.954Z</time></trkpt><trkpt lat="37.5208692" lon="22.3820284"><ele>651.5</ele><time>2026-04-29T12:33:07.955Z</time></trkpt><trkpt lat="37.5207851" lon="22.3821883"><ele>651.0</ele><time>2026-04-29T12:33:08.954Z</time></trkpt><trkpt lat="37.5207005" lon="22.382345"><ele>650.5</ele><time>2026-04-29T12:33:09.955Z</time></trkpt><trkpt lat="37.5206183" lon="22.3824908"><ele>650.0</ele><time>2026-04-29T12:33:10.955Z</time></trkpt><trkpt lat="37.5205389" lon="22.3826256"><ele>650.0</ele><time>2026-04-29T12:33:11.955Z</time></trkpt><trkpt lat="37.5204694" lon="22.3827501"><ele>650.0</ele><time>2026-04-29T12:33:12.954Z</time></trkpt><trkpt lat="37.520403" lon="22.3828621"><ele>650.0</ele><time>2026-04-29T12:33:13.954Z</time></trkpt><trkpt lat="37.5203404" lon="22.3829693"><ele>650.0</ele><time>2026-04-29T12:33:14.954Z</time></trkpt><trkpt lat="37.5202764" lon="22.3830751"><ele>650.0</ele><time>2026-04-29T12:33:15.954Z</time></trkpt><trkpt lat="37.5202169" lon="22.3831811"><ele>650.6</ele><time>2026-04-29T12:33:16.954Z</time></trkpt><trkpt lat="37.5201572" lon="22.3832776"><ele>651.2</ele><time>2026-04-29T12:33:17.954Z</time></trkpt><trkpt lat="37.5201093" lon="22.3833592"><ele>651.8</ele><time>2026-04-29T12:33:18.955Z</time></trkpt><trkpt lat="37.5200489" lon="22.3834576"><ele>652.4</ele><time>2026-04-29T12:33:20.954Z</time></trkpt><trkpt lat="37.5199675" lon="22.38354"><ele>653.0</ele><time>2026-04-29T12:33:44.955Z</time></trkpt><trkpt lat="37.5198821" lon="22.3835992"><ele>653.0</ele><time>2026-04-29T12:33:46.954Z</time></trkpt><trkpt lat="37.5198045" lon="22.3835306"><ele>653.0</ele><time>2026-04-29T12:33:48.955Z</time></trkpt><trkpt lat="37.5197652" lon="22.3834532"><ele>653.0</ele><time>2026-04-29T12:33:49.955Z</time></trkpt><trkpt lat="37.5197225" lon="22.3833549"><ele>653.0</ele><time>2026-04-29T12:33:50.955Z</time></trkpt><trkpt lat="37.5196677" lon="22.3832496"><ele>653.0</ele><time>2026-04-29T12:33:51.955Z</time></trkpt><trkpt lat="37.5196092" lon="22.3831363"><ele>653.25</ele><time>2026-04-29T12:33:52.955Z</time></trkpt><trkpt lat="37.5195481" lon="22.3830266"><ele>653.5</ele><time>2026-04-29T12:33:53.954Z</time></trkpt><trkpt lat="37.5194822" lon="22.3829088"><ele>653.75</ele><time>2026-04-29T12:33:54.955Z</time></trkpt><trkpt lat="37.5194174" lon="22.3827849"><ele>654.0</ele><time>2026-04-29T12:33:55.955Z</time></trkpt><trkpt lat="37.519347" lon="22.3826561"><ele>654.0</ele><time>2026-04-29T12:33:56.955Z</time></trkpt><trkpt lat="37.5192723" lon="22.3825255"><ele>654.0</ele><time>2026-04-29T12:33:57.955Z</time></trkpt><trkpt lat="37.5191885" lon="22.3823963"><ele>654.0</ele><time>2026-04-29T12:33:58.955Z</time></trkpt><trkpt lat="37.5190977" lon="22.3822706"><ele>654.0</ele><time>2026-04-29T12:33:59.955Z</time></trkpt><trkpt lat="37.5190037" lon="22.3821512"><ele>654.25</ele><time>2026-04-29T12:34:00.955Z</time></trkpt><trkpt lat="37.5189134" lon="22.3820385"><ele>654.5</ele><time>2026-04-29T12:34:01.955Z</time></trkpt><trkpt lat="37.5188241" lon="22.3819309"><ele>654.75</ele><time>2026-04-29T12:34:02.954Z</time></trkpt><trkpt lat="37.5187392" lon="22.3818263"><ele>655.0</ele><time>2026-04-29T12:34:03.955Z</time></trkpt><trkpt lat="37.518659" lon="22.3817335"><ele>655.1666666666667</ele><time>2026-04-29T12:34:04.954Z</time></trkpt><trkpt lat="37.518587" lon="22.3816492"><ele>655.3333333333334</ele><time>2026-04-29T12:34:05.955Z</time></trkpt><trkpt lat="37.5185359" lon="22.3815864"><ele>655.5</ele><time>2026-04-29T12:34:06.955Z</time></trkpt><trkpt lat="37.518478" lon="22.3815154"><ele>655.6666666666666</ele><time>2026-04-29T12:34:08.954Z</time></trkpt><trkpt lat="37.5184029" lon="22.3814933"><ele>655.8333333333333</ele><time>2026-04-29T12:34:10.954Z</time></trkpt><trkpt lat="37.5182948" lon="22.3815552"><ele>656.0</ele><time>2026-04-29T12:34:12.955Z</time></trkpt><trkpt lat="37.5182279" lon="22.3816154"><ele>656.0</ele><time>2026-04-29T12:34:13.955Z</time></trkpt><trkpt lat="37.5181407" lon="22.3816985"><ele>656.0</ele><time>2026-04-29T12:34:14.955Z</time></trkpt><trkpt lat="37.5180402" lon="22.3818026"><ele>656.0</ele><time>2026-04-29T12:34:15.954Z</time></trkpt><trkpt lat="37.5179365" lon="22.3819072"><ele>656.0</ele><time>2026-04-29T12:34:16.955Z</time></trkpt><trkpt lat="37.5178258" lon="22.3820124"><ele>656.0</ele><time>2026-04-29T12:34:17.954Z</time></trkpt><trkpt lat="37.5177062" lon="22.3821118"><ele>656.0</ele><time>2026-04-29T12:34:18.954Z</time></trkpt><trkpt lat="37.5175828" lon="22.382205"><ele>656.0</ele><time>2026-04-29T12:34:19.955Z</time></trkpt><trkpt lat="37.5174633" lon="22.3823057"><ele>656.0</ele><time>2026-04-29T12:34:20.955Z</time></trkpt><trkpt lat="37.5173449" lon="22.382411"><ele>656.25</ele><time>2026-04-29T12:34:21.954Z</time></trkpt><trkpt lat="37.5172274" lon="22.3825165"><ele>656.5</ele><time>2026-04-29T12:34:22.954Z</time></trkpt><trkpt lat="37.5171073" lon="22.3826201"><ele>656.75</ele><time>2026-04-29T12:34:23.954Z</time></trkpt><trkpt lat="37.5169773" lon="22.3827233"><ele>657.0</ele><time>2026-04-29T12:34:24.954Z</time></trkpt><trkpt lat="37.5168466" lon="22.3828342"><ele>657.3333333333334</ele><time>2026-04-29T12:34:25.954Z</time></trkpt><trkpt lat="37.5167077" lon="22.3829419"><ele>657.6666666666667</ele><time>2026-04-29T12:34:26.955Z</time></trkpt><trkpt lat="37.5165686" lon="22.38305"><ele>658.0</ele><time>2026-04-29T12:34:27.955Z</time></trkpt><trkpt lat="37.5164343" lon="22.3831476"><ele>658.3333333333334</ele><time>2026-04-29T12:34:28.954Z</time></trkpt><trkpt lat="37.5163002" lon="22.3832417"><ele>658.6666666666666</ele><time>2026-04-29T12:34:29.954Z</time></trkpt><trkpt lat="37.5161622" lon="22.3833385"><ele>659.0</ele><time>2026-04-29T12:34:30.954Z</time></trkpt><trkpt lat="37.5160241" lon="22.3834321"><ele>659.0</ele><time>2026-04-29T12:34:31.954Z</time></trkpt><trkpt lat="37.5158902" lon="22.3835223"><ele>659.0</ele><time>2026-04-29T12:34:32.955Z</time></trkpt><trkpt lat="37.5157636" lon="22.383603"><ele>659.0</ele><time>2026-04-29T12:34:33.955Z</time></trkpt><trkpt lat="37.515641" lon="22.3836582"><ele>659.0</ele><time>2026-04-29T12:34:34.954Z</time></trkpt><trkpt lat="37.5155206" lon="22.3836966"><ele>659.0</ele><time>2026-04-29T12:34:35.954Z</time></trkpt><trkpt lat="37.5154089" lon="22.3837295"><ele>659.0</ele><time>2026-04-29T12:34:36.954Z</time></trkpt><trkpt lat="37.5153075" lon="22.3837546"><ele>659.0</ele><time>2026-04-29T12:34:37.954Z</time></trkpt><trkpt lat="37.5152205" lon="22.3837759"><ele>659.0</ele><time>2026-04-29T12:34:38.954Z</time></trkpt><trkpt lat="37.5151521" lon="22.3837887"><ele>659.0</ele><time>2026-04-29T12:34:39.955Z</time></trkpt><trkpt lat="37.5150737" lon="22.3838112"><ele>659.2</ele><time>2026-04-29T12:34:41.954Z</time></trkpt><trkpt lat="37.5149868" lon="22.3838367"><ele>659.4000000000001</ele><time>2026-04-29T12:34:53.955Z</time></trkpt><trkpt lat="37.5149147" lon="22.3838505"><ele>659.6</ele><time>2026-04-29T12:34:54.955Z</time></trkpt><trkpt lat="37.5148118" lon="22.3838651"><ele>659.8</ele><time>2026-04-29T12:34:55.955Z</time></trkpt><trkpt lat="37.5147036" lon="22.3838778"><ele>660.0</ele><time>2026-04-29T12:34:56.955Z</time></trkpt><trkpt lat="37.5145802" lon="22.3838925"><ele>659.75</ele><time>2026-04-29T12:34:57.954Z</time></trkpt><trkpt lat="37.514453" lon="22.383905"><ele>659.5</ele><time>2026-04-29T12:34:58.955Z</time></trkpt><trkpt lat="37.5143305" lon="22.3839179"><ele>659.25</ele><time>2026-04-29T12:34:59.954Z</time></trkpt><trkpt lat="37.5142083" lon="22.3839205"><ele>659.0</ele><time>2026-04-29T12:35:00.954Z</time></trkpt><trkpt lat="37.5140942" lon="22.3839152"><ele>659.0</ele><time>2026-04-29T12:35:01.954Z</time></trkpt><trkpt lat="37.5139854" lon="22.3839098"><ele>659.0</ele><time>2026-04-29T12:35:02.954Z</time></trkpt><trkpt lat="37.5138752" lon="22.3839129"><ele>659.0</ele><time>2026-04-29T12:35:03.954Z</time></trkpt><trkpt lat="37.5137625" lon="22.3839027"><ele>659.0</ele><time>2026-04-29T12:35:04.954Z</time></trkpt><trkpt lat="37.5136517" lon="22.3838832"><ele>659.0</ele><time>2026-04-29T12:35:05.955Z</time></trkpt><trkpt lat="37.5135342" lon="22.383839"><ele>659.75</ele><time>2026-04-29T12:35:06.954Z</time></trkpt><trkpt lat="37.5134144" lon="22.3837887"><ele>660.5</ele><time>2026-04-29T12:35:07.955Z</time></trkpt><trkpt lat="37.5132928" lon="22.3837421"><ele>661.25</ele><time>2026-04-29T12:35:08.955Z</time></trkpt><trkpt lat="37.5131732" lon="22.383694"><ele>662.0</ele><time>2026-04-29T12:35:09.955Z</time></trkpt><trkpt lat="37.5130574" lon="22.3836425"><ele>662.0</ele><time>2026-04-29T12:35:10.954Z</time></trkpt><trkpt lat="37.5129459" lon="22.3835938"><ele>662.0</ele><time>2026-04-29T12:35:11.954Z</time></trkpt><trkpt lat="37.5128281" lon="22.38354"><ele>662.0</ele><time>2026-04-29T12:35:12.955Z</time></trkpt><trkpt lat="37.5127071" lon="22.3834836"><ele>662.0</ele><time>2026-04-29T12:35:13.954Z</time></trkpt><trkpt lat="37.5125842" lon="22.3834269"><ele>660.75</ele><time>2026-04-29T12:35:14.954Z</time></trkpt><trkpt lat="37.512459" lon="22.3833662"><ele>659.5</ele><time>2026-04-29T12:35:15.954Z</time></trkpt><trkpt lat="37.5123315" lon="22.3833022"><ele>658.25</ele><time>2026-04-29T12:35:16.955Z</time></trkpt><trkpt lat="37.5121984" lon="22.3832421"><ele>657.0</ele><time>2026-04-29T12:35:17.955Z</time></trkpt><trkpt lat="37.5120654" lon="22.3831806"><ele>657.0</ele><time>2026-04-29T12:35:18.955Z</time></trkpt><trkpt lat="37.5119315" lon="22.3831154"><ele>657.0</ele><time>2026-04-29T12:35:19.954Z</time></trkpt><trkpt lat="37.5117961" lon="22.3830537"><ele>657.0</ele><time>2026-04-29T12:35:20.955Z</time></trkpt><trkpt lat="37.5116579" lon="22.3829901"><ele>657.0</ele><time>2026-04-29T12:35:21.955Z</time></trkpt><trkpt lat="37.511522" lon="22.3829266"><ele>657.0</ele><time>2026-04-29T12:35:22.954Z</time></trkpt><trkpt lat="37.5113839" lon="22.3828649"><ele>657.0</ele><time>2026-04-29T12:35:23.954Z</time></trkpt><trkpt lat="37.5112458" lon="22.3828015"><ele>657.0</ele><time>2026-04-29T12:35:24.955Z</time></trkpt><trkpt lat="37.5111066" lon="22.3827413"><ele>657.0</ele><time>2026-04-29T12:35:25.954Z</time></trkpt><trkpt lat="37.5109684" lon="22.3826822"><ele>657.0</ele><time>2026-04-29T12:35:26.955Z</time></trkpt><trkpt lat="37.5108335" lon="22.3826202"><ele>657.0</ele><time>2026-04-29T12:35:27.954Z</time></trkpt><trkpt lat="37.5107057" lon="22.3825606"><ele>657.0</ele><time>2026-04-29T12:35:28.954Z</time></trkpt><trkpt lat="37.5105848" lon="22.3825066"><ele>657.0</ele><time>2026-04-29T12:35:29.955Z</time></trkpt><trkpt lat="37.5104714" lon="22.382455"><ele>657.25</ele><time>2026-04-29T12:35:30.955Z</time></trkpt><trkpt lat="37.5103579" lon="22.3824023"><ele>657.5</ele><time>2026-04-29T12:35:31.955Z</time></trkpt><trkpt lat="37.5102463" lon="22.3823505"><ele>657.75</ele><time>2026-04-29T12:35:32.955Z</time></trkpt><trkpt lat="37.5101333" lon="22.3822974"><ele>658.0</ele><time>2026-04-29T12:35:33.954Z</time></trkpt><trkpt lat="37.5100197" lon="22.3822485"><ele>658.0</ele><time>2026-04-29T12:35:34.954Z</time></trkpt><trkpt lat="37.5099187" lon="22.3822055"><ele>658.0</ele><time>2026-04-29T12:35:35.954Z</time></trkpt><trkpt lat="37.5098315" lon="22.3821722"><ele>658.0</ele><time>2026-04-29T12:35:36.954Z</time></trkpt><trkpt lat="37.5097633" lon="22.3821524"><ele>658.0</ele><time>2026-04-29T12:35:37.954Z</time></trkpt><trkpt lat="37.5096776" lon="22.3821337"><ele>658.0</ele><time>2026-04-29T12:35:39.954Z</time></trkpt><trkpt lat="37.5095886" lon="22.3821185"><ele>658.0</ele><time>2026-04-29T12:35:56.954Z</time></trkpt><trkpt lat="37.5095256" lon="22.3821194"><ele>657.5999999999999</ele><time>2026-04-29T12:35:57.955Z</time></trkpt><trkpt lat="37.5094404" lon="22.382126"><ele>657.1999999999999</ele><time>2026-04-29T12:35:58.955Z</time></trkpt><trkpt lat="37.5093432" lon="22.3821233"><ele>656.8</ele><time>2026-04-29T12:35:59.954Z</time></trkpt><trkpt lat="37.5092468" lon="22.3820955"><ele>656.4</ele><time>2026-04-29T12:36:00.955Z</time></trkpt><trkpt lat="37.5091381" lon="22.3820417"><ele>656.0</ele><time>2026-04-29T12:36:01.955Z</time></trkpt><trkpt lat="37.5090119" lon="22.3819494"><ele>656.0</ele><time>2026-04-29T12:36:02.954Z</time></trkpt><trkpt lat="37.5088959" lon="22.3818403"><ele>656.0</ele><time>2026-04-29T12:36:03.955Z</time></trkpt><trkpt lat="37.5087818" lon="22.3817153"><ele>656.0</ele><time>2026-04-29T12:36:04.954Z</time></trkpt><trkpt lat="37.5086705" lon="22.3815775"><ele>656.0</ele><time>2026-04-29T12:36:05.954Z</time></trkpt><trkpt lat="37.5085505" lon="22.3814346"><ele>656.0</ele><time>2026-04-29T12:36:06.955Z</time></trkpt><trkpt lat="37.508433" lon="22.3812878"><ele>656.0</ele><time>2026-04-29T12:36:07.954Z</time></trkpt><trkpt lat="37.5083227" lon="22.381151"><ele>655.5</ele><time>2026-04-29T12:36:08.955Z</time></trkpt><trkpt lat="37.5082194" lon="22.3810243"><ele>655.0</ele><time>2026-04-29T12:36:09.955Z</time></trkpt><trkpt lat="37.5081221" lon="22.3809066"><ele>654.5</ele><time>2026-04-29T12:36:10.955Z</time></trkpt><trkpt lat="37.5080274" lon="22.3807919"><ele>654.0</ele><time>2026-04-29T12:36:11.954Z</time></trkpt><trkpt lat="37.5079332" lon="22.3806806"><ele>654.25</ele><time>2026-04-29T12:36:12.954Z</time></trkpt><trkpt lat="37.5078391" lon="22.3805658"><ele>654.5</ele><time>2026-04-29T12:36:13.954Z</time></trkpt><trkpt lat="37.5077482" lon="22.3804503"><ele>654.75</ele><time>2026-04-29T12:36:14.955Z</time></trkpt><trkpt lat="37.5076592" lon="22.3803296"><ele>655.0</ele><time>2026-04-29T12:36:15.954Z</time></trkpt><trkpt lat="37.5075765" lon="22.380203"><ele>655.25</ele><time>2026-04-29T12:36:16.954Z</time></trkpt><trkpt lat="37.5075067" lon="22.3800676"><ele>655.5</ele><time>2026-04-29T12:36:17.955Z</time></trkpt><trkpt lat="37.5074409" lon="22.3799293"><ele>655.75</ele><time>2026-04-29T12:36:18.955Z</time></trkpt><trkpt lat="37.5073685" lon="22.3797901"><ele>656.0</ele><time>2026-04-29T12:36:19.955Z</time></trkpt><trkpt lat="37.507284" lon="22.3796556"><ele>656.25</ele><time>2026-04-29T12:36:20.954Z</time></trkpt><trkpt lat="37.5071873" lon="22.379529"><ele>656.5</ele><time>2026-04-29T12:36:21.954Z</time></trkpt><trkpt lat="37.5070922" lon="22.3794061"><ele>656.75</ele><time>2026-04-29T12:36:22.955Z</time></trkpt><trkpt lat="37.5069897" lon="22.3792848"><ele>657.0</ele><time>2026-04-29T12:36:23.955Z</time></trkpt><trkpt lat="37.5068842" lon="22.3791607"><ele>657.0</ele><time>2026-04-29T12:36:24.954Z</time></trkpt><trkpt lat="37.5067721" lon="22.3790331"><ele>657.0</ele><time>2026-04-29T12:36:25.955Z</time></trkpt><trkpt lat="37.5066605" lon="22.3789059"><ele>657.0</ele><time>2026-04-29T12:36:26.954Z</time></trkpt><trkpt lat="37.5065527" lon="22.3787883"><ele>657.0</ele><time>2026-04-29T12:36:27.955Z</time></trkpt><trkpt lat="37.5064492" lon="22.3786735"><ele>657.0</ele><time>2026-04-29T12:36:28.955Z</time></trkpt><trkpt lat="37.5063488" lon="22.3785655"><ele>657.0</ele><time>2026-04-29T12:36:29.954Z</time></trkpt><trkpt lat="37.5062566" lon="22.3784635"><ele>657.0</ele><time>2026-04-29T12:36:30.955Z</time></trkpt><trkpt lat="37.5061717" lon="22.3783706"><ele>657.0</ele><time>2026-04-29T12:36:31.955Z</time></trkpt><trkpt lat="37.5060929" lon="22.3782866"><ele>656.8</ele><time>2026-04-29T12:36:32.954Z</time></trkpt><trkpt lat="37.5060118" lon="22.3782074"><ele>656.6</ele><time>2026-04-29T12:36:33.955Z</time></trkpt><trkpt lat="37.5059241" lon="22.3781333"><ele>656.4</ele><time>2026-04-29T12:36:34.955Z</time></trkpt><trkpt lat="37.5058325" lon="22.3780592"><ele>656.1999999999999</ele><time>2026-04-29T12:36:35.954Z</time></trkpt><trkpt lat="37.5057365" lon="22.377983"><ele>656.0</ele><time>2026-04-29T12:36:36.954Z</time></trkpt><trkpt lat="37.5056394" lon="22.3779072"><ele>656.0</ele><time>2026-04-29T12:36:37.954Z</time></trkpt><trkpt lat="37.5055374" lon="22.3778309"><ele>656.0</ele><time>2026-04-29T12:36:38.955Z</time></trkpt><trkpt lat="37.5054349" lon="22.3777555"><ele>656.0</ele><time>2026-04-29T12:36:39.954Z</time></trkpt><trkpt lat="37.5053399" lon="22.3776801"><ele>656.0</ele><time>2026-04-29T12:36:40.955Z</time></trkpt><trkpt lat="37.5052501" lon="22.3776042"><ele>656.0</ele><time>2026-04-29T12:36:41.954Z</time></trkpt><trkpt lat="37.5051617" lon="22.377522"><ele>656.0</ele><time>2026-04-29T12:36:42.955Z</time></trkpt><trkpt lat="37.5050822" lon="22.3774333"><ele>656.0</ele><time>2026-04-29T12:36:43.955Z</time></trkpt><trkpt lat="37.5050136" lon="22.3773419"><ele>656.0</ele><time>2026-04-29T12:36:44.955Z</time></trkpt><trkpt lat="37.5049582" lon="22.3772508"><ele>656.0</ele><time>2026-04-29T12:36:45.955Z</time></trkpt><trkpt lat="37.5049062" lon="22.3771669"><ele>656.0</ele><time>2026-04-29T12:36:46.954Z</time></trkpt><trkpt lat="37.5048614" lon="22.3770963"><ele>656.0</ele><time>2026-04-29T12:36:47.954Z</time></trkpt><trkpt lat="37.5048069" lon="22.3770055"><ele>656.0</ele><time>2026-04-29T12:36:49.955Z</time></trkpt><trkpt lat="37.5047733" lon="22.3769206"><ele>656.0</ele><time>2026-04-29T12:37:29.954Z</time></trkpt><trkpt lat="37.5047067" lon="22.3767971"><ele>656.0</ele><time>2026-04-29T12:37:31.955Z</time></trkpt><trkpt lat="37.5046727" lon="22.3767223"><ele>656.0</ele><time>2026-04-29T12:37:32.954Z</time></trkpt><trkpt lat="37.504616" lon="22.376597"><ele>655.8333333333333</ele><time>2026-04-29T12:37:34.954Z</time></trkpt><trkpt lat="37.5045148" lon="22.3765405"><ele>655.6666666666666</ele><time>2026-04-29T12:37:36.954Z</time></trkpt><trkpt lat="37.5044" lon="22.3765337"><ele>655.5</ele><time>2026-04-29T12:37:38.932Z</time></trkpt><trkpt lat="37.5043356" lon="22.3765434"><ele>655.3333333333334</ele><time>2026-04-29T12:37:39.929Z</time></trkpt><trkpt lat="37.5042723" lon="22.3765592"><ele>655.1666666666667</ele><time>2026-04-29T12:37:40.93Z</time></trkpt><trkpt lat="37.5042008" lon="22.3765822"><ele>655.0</ele><time>2026-04-29T12:37:41.929Z</time></trkpt><trkpt lat="37.5041232" lon="22.3766121"><ele>655.0</ele><time>2026-04-29T12:37:42.929Z</time></trkpt><trkpt lat="37.5040362" lon="22.3766491"><ele>655.0</ele><time>2026-04-29T12:37:43.928Z</time></trkpt><trkpt lat="37.5039487" lon="22.376688"><ele>655.0</ele><time>2026-04-29T12:37:44.927Z</time></trkpt><trkpt lat="37.5038613" lon="22.3767254"><ele>655.0</ele><time>2026-04-29T12:37:45.927Z</time></trkpt><trkpt lat="37.5037749" lon="22.3767613"><ele>655.0</ele><time>2026-04-29T12:37:46.928Z</time></trkpt><trkpt lat="37.5036896" lon="22.3767989"><ele>655.2</ele><time>2026-04-29T12:37:47.927Z</time></trkpt><trkpt lat="37.5036097" lon="22.376832"><ele>655.4</ele><time>2026-04-29T12:37:48.927Z</time></trkpt><trkpt lat="37.5035257" lon="22.3768677"><ele>655.5999999999999</ele><time>2026-04-29T12:37:49.927Z</time></trkpt><trkpt lat="37.5034394" lon="22.3769035"><ele>655.8</ele><time>2026-04-29T12:37:50.928Z</time></trkpt><trkpt lat="37.5033515" lon="22.37694"><ele>656.0</ele><time>2026-04-29T12:37:51.927Z</time></trkpt><trkpt lat="37.5032602" lon="22.3769731"><ele>656.0</ele><time>2026-04-29T12:37:52.928Z</time></trkpt><trkpt lat="37.5031663" lon="22.377008"><ele>656.0</ele><time>2026-04-29T12:37:53.928Z</time></trkpt><trkpt lat="37.5030704" lon="22.3770458"><ele>656.0</ele><time>2026-04-29T12:37:54.928Z</time></trkpt><trkpt lat="37.5029737" lon="22.3770826"><ele>656.0</ele><time>2026-04-29T12:37:55.928Z</time></trkpt><trkpt lat="37.5028851" lon="22.3771169"><ele>656.0</ele><time>2026-04-29T12:37:56.927Z</time></trkpt><trkpt lat="37.5027877" lon="22.3771561"><ele>655.8</ele><time>2026-04-29T12:37:57.927Z</time></trkpt><trkpt lat="37.5026842" lon="22.3771969"><ele>655.5999999999999</ele><time>2026-04-29T12:37:58.928Z</time></trkpt><trkpt lat="37.5025814" lon="22.3772383"><ele>655.4</ele><time>2026-04-29T12:37:59.927Z</time></trkpt><trkpt lat="37.50248" lon="22.3772749"><ele>655.2</ele><time>2026-04-29T12:38:00.928Z</time></trkpt><trkpt lat="37.5023788" lon="22.3773116"><ele>655.0</ele><time>2026-04-29T12:38:01.927Z</time></trkpt><trkpt lat="37.5022778" lon="22.3773491"><ele>655.0</ele><time>2026-04-29T12:38:02.928Z</time></trkpt><trkpt lat="37.502182" lon="22.3773836"><ele>655.0</ele><time>2026-04-29T12:38:03.928Z</time></trkpt><trkpt lat="37.5021086" lon="22.3774156"><ele>655.0</ele><time>2026-04-29T12:38:04.928Z</time></trkpt><trkpt lat="37.5020151" lon="22.3774495"><ele>655.0</ele><time>2026-04-29T12:38:06.928Z</time></trkpt><trkpt lat="37.5019491" lon="22.3774621"><ele>655.0</ele><time>2026-04-29T12:38:10.928Z</time></trkpt><trkpt lat="37.5018206" lon="22.3774718"><ele>654.8</ele><time>2026-04-29T12:38:43.928Z</time></trkpt><trkpt lat="37.5017415" lon="22.3775095"><ele>654.6</ele><time>2026-04-29T12:38:44.927Z</time></trkpt><trkpt lat="37.5016501" lon="22.3775362"><ele>654.4000000000001</ele><time>2026-04-29T12:38:45.928Z</time></trkpt><trkpt lat="37.5015518" lon="22.3775634"><ele>654.2</ele><time>2026-04-29T12:38:46.927Z</time></trkpt><trkpt lat="37.5014447" lon="22.3775969"><ele>654.0</ele><time>2026-04-29T12:38:47.927Z</time></trkpt><trkpt lat="37.5013284" lon="22.3776362"><ele>654.25</ele><time>2026-04-29T12:38:48.927Z</time></trkpt><trkpt lat="37.5012069" lon="22.377679"><ele>654.5</ele><time>2026-04-29T12:38:49.928Z</time></trkpt><trkpt lat="37.5010799" lon="22.3777212"><ele>654.75</ele><time>2026-04-29T12:38:50.927Z</time></trkpt><trkpt lat="37.5009427" lon="22.3777687"><ele>655.0</ele><time>2026-04-29T12:38:51.928Z</time></trkpt><trkpt lat="37.5008074" lon="22.3778142"><ele>655.0</ele><time>2026-04-29T12:38:52.928Z</time></trkpt><trkpt lat="37.5006619" lon="22.3778634"><ele>655.0</ele><time>2026-04-29T12:38:53.928Z</time></trkpt><trkpt lat="37.5005102" lon="22.3779126"><ele>655.0</ele><time>2026-04-29T12:38:54.927Z</time></trkpt><trkpt lat="37.5003476" lon="22.3779622"><ele>654.6666666666667</ele><time>2026-04-29T12:38:55.927Z</time></trkpt><trkpt lat="37.5001763" lon="22.3780101"><ele>654.3333333333334</ele><time>2026-04-29T12:38:56.928Z</time></trkpt><trkpt lat="37.5" lon="22.3780555"><ele>654.0</ele><time>2026-04-29T12:38:57.927Z</time></trkpt><trkpt lat="37.4998232" lon="22.3781022"><ele>654.3333333333334</ele><time>2026-04-29T12:38:58.927Z</time></trkpt><trkpt lat="37.4996407" lon="22.3781421"><ele>654.6666666666667</ele><time>2026-04-29T12:38:59.928Z</time></trkpt><trkpt lat="37.4994729" lon="22.378181"><ele>655.0</ele><time>2026-04-29T12:39:00.928Z</time></trkpt><trkpt lat="37.4993011" lon="22.3782229"><ele>655.0</ele><time>2026-04-29T12:39:01.927Z</time></trkpt><trkpt lat="37.4991246" lon="22.3782625"><ele>655.0</ele><time>2026-04-29T12:39:02.927Z</time></trkpt><trkpt lat="37.4989449" lon="22.3783048"><ele>655.0</ele><time>2026-04-29T12:39:03.928Z</time></trkpt><trkpt lat="37.4987619" lon="22.3783475"><ele>654.6666666666667</ele><time>2026-04-29T12:39:04.928Z</time></trkpt><trkpt lat="37.4985774" lon="22.3783924"><ele>654.3333333333334</ele><time>2026-04-29T12:39:05.928Z</time></trkpt><trkpt lat="37.4983918" lon="22.378438"><ele>654.0</ele><time>2026-04-29T12:39:06.927Z</time></trkpt><trkpt lat="37.4982013" lon="22.3784855"><ele>654.0</ele><time>2026-04-29T12:39:07.928Z</time></trkpt><trkpt lat="37.4980249" lon="22.3785297"><ele>654.0</ele><time>2026-04-29T12:39:08.927Z</time></trkpt><trkpt lat="37.4978439" lon="22.3785739"><ele>654.0</ele><time>2026-04-29T12:39:09.928Z</time></trkpt><trkpt lat="37.4976625" lon="22.3786162"><ele>653.6666666666666</ele><time>2026-04-29T12:39:10.928Z</time></trkpt><trkpt lat="37.4974811" lon="22.378656"><ele>653.3333333333333</ele><time>2026-04-29T12:39:11.927Z</time></trkpt><trkpt lat="37.4972998" lon="22.3786947"><ele>653.0</ele><time>2026-04-29T12:39:12.927Z</time></trkpt><trkpt lat="37.4971184" lon="22.3787302"><ele>652.6666666666666</ele><time>2026-04-29T12:39:13.928Z</time></trkpt><trkpt lat="37.4969357" lon="22.3787633"><ele>652.3333333333334</ele><time>2026-04-29T12:39:14.927Z</time></trkpt><trkpt lat="37.4967454" lon="22.3787979"><ele>652.0</ele><time>2026-04-29T12:39:15.928Z</time></trkpt><trkpt lat="37.4965648" lon="22.378831"><ele>652.0</ele><time>2026-04-29T12:39:16.928Z</time></trkpt><trkpt lat="37.4963765" lon="22.3788664"><ele>652.0</ele><time>2026-04-29T12:39:17.928Z</time></trkpt><trkpt lat="37.4961856" lon="22.3789017"><ele>652.0</ele><time>2026-04-29T12:39:18.928Z</time></trkpt><trkpt lat="37.4959922" lon="22.3789366"><ele>652.0</ele><time>2026-04-29T12:39:19.928Z</time></trkpt><trkpt lat="37.4957979" lon="22.3789721"><ele>652.0</ele><time>2026-04-29T12:39:20.928Z</time></trkpt><trkpt lat="37.4956056" lon="22.3790074"><ele>652.0</ele><time>2026-04-29T12:39:21.927Z</time></trkpt><trkpt lat="37.4954173" lon="22.3790412"><ele>652.6666666666667</ele><time>2026-04-29T12:39:22.928Z</time></trkpt><trkpt lat="37.4952262" lon="22.3790721"><ele>653.3333333333334</ele><time>2026-04-29T12:39:23.928Z</time></trkpt><trkpt lat="37.4950495" lon="22.3790986"><ele>654.0</ele><time>2026-04-29T12:39:24.928Z</time></trkpt><trkpt lat="37.4948688" lon="22.3791253"><ele>654.0</ele><time>2026-04-29T12:39:25.927Z</time></trkpt><trkpt lat="37.4946909" lon="22.3791542"><ele>654.0</ele><time>2026-04-29T12:39:26.927Z</time></trkpt><trkpt lat="37.4945147" lon="22.3791855"><ele>654.0</ele><time>2026-04-29T12:39:27.927Z</time></trkpt><trkpt lat="37.4943384" lon="22.3792196"><ele>654.3333333333334</ele><time>2026-04-29T12:39:28.928Z</time></trkpt><trkpt lat="37.49416" lon="22.3792573"><ele>654.6666666666667</ele><time>2026-04-29T12:39:29.928Z</time></trkpt><trkpt lat="37.4939802" lon="22.3793019"><ele>655.0</ele><time>2026-04-29T12:39:30.928Z</time></trkpt><trkpt lat="37.4937906" lon="22.3793557"><ele>654.6666666666667</ele><time>2026-04-29T12:39:31.927Z</time></trkpt><trkpt lat="37.493608" lon="22.3794101"><ele>654.3333333333334</ele><time>2026-04-29T12:39:32.927Z</time></trkpt><trkpt lat="37.4934122" lon="22.3794727"><ele>654.0</ele><time>2026-04-29T12:39:33.928Z</time></trkpt><trkpt lat="37.4932092" lon="22.3795415"><ele>654.0</ele><time>2026-04-29T12:39:34.927Z</time></trkpt><trkpt lat="37.4929993" lon="22.379616"><ele>654.0</ele><time>2026-04-29T12:39:35.928Z</time></trkpt><trkpt lat="37.4927859" lon="22.379699"><ele>654.0</ele><time>2026-04-29T12:39:36.928Z</time></trkpt><trkpt lat="37.4925676" lon="22.3797893"><ele>654.5</ele><time>2026-04-29T12:39:37.927Z</time></trkpt><trkpt lat="37.4923527" lon="22.3798889"><ele>655.0</ele><time>2026-04-29T12:39:38.928Z</time></trkpt><trkpt lat="37.4921317" lon="22.3800011"><ele>655.0</ele><time>2026-04-29T12:39:39.928Z</time></trkpt><trkpt lat="37.4919267" lon="22.3801141"><ele>655.0</ele><time>2026-04-29T12:39:40.927Z</time></trkpt><trkpt lat="37.4917193" lon="22.3802395"><ele>655.0</ele><time>2026-04-29T12:39:41.927Z</time></trkpt><trkpt lat="37.4915148" lon="22.3803699"><ele>655.0</ele><time>2026-04-29T12:39:42.928Z</time></trkpt><trkpt lat="37.4913125" lon="22.380505"><ele>656.5</ele><time>2026-04-29T12:39:43.927Z</time></trkpt><trkpt lat="37.4911125" lon="22.3806493"><ele>658.0</ele><time>2026-04-29T12:39:44.928Z</time></trkpt><trkpt lat="37.490912" lon="22.3808037"><ele>658.0</ele><time>2026-04-29T12:39:45.927Z</time></trkpt><trkpt lat="37.4907141" lon="22.3809671"><ele>658.0</ele><time>2026-04-29T12:39:46.927Z</time></trkpt><trkpt lat="37.4905117" lon="22.3811459"><ele>659.5</ele><time>2026-04-29T12:39:47.928Z</time></trkpt><trkpt lat="37.4903231" lon="22.3813251"><ele>661.0</ele><time>2026-04-29T12:39:48.927Z</time></trkpt><trkpt lat="37.4901306" lon="22.3815197"><ele>661.5</ele><time>2026-04-29T12:39:49.927Z</time></trkpt><trkpt lat="37.4899405" lon="22.3817216"><ele>662.0</ele><time>2026-04-29T12:39:50.927Z</time></trkpt><trkpt lat="37.4897509" lon="22.3819252"><ele>665.5</ele><time>2026-04-29T12:39:51.928Z</time></trkpt><trkpt lat="37.4895616" lon="22.3821273"><ele>669.0</ele><time>2026-04-29T12:39:52.928Z</time></trkpt><trkpt lat="37.4893731" lon="22.3823258"><ele>671.0</ele><time>2026-04-29T12:39:53.928Z</time></trkpt><trkpt lat="37.4891872" lon="22.3825225"><ele>673.0</ele><time>2026-04-29T12:39:54.927Z</time></trkpt><trkpt lat="37.4889985" lon="22.3827283"><ele>673.0</ele><time>2026-04-29T12:39:55.928Z</time></trkpt><trkpt lat="37.4888213" lon="22.3829202"><ele>673.0</ele><time>2026-04-29T12:39:56.928Z</time></trkpt><trkpt lat="37.4886398" lon="22.3831162"><ele>673.0</ele><time>2026-04-29T12:39:57.927Z</time></trkpt><trkpt lat="37.4884583" lon="22.3833097"><ele>673.0</ele><time>2026-04-29T12:39:58.927Z</time></trkpt><trkpt lat="37.488279" lon="22.3835033"><ele>673.0</ele><time>2026-04-29T12:39:59.927Z</time></trkpt><trkpt lat="37.4880996" lon="22.3836942"><ele>673.0</ele><time>2026-04-29T12:40:00.927Z</time></trkpt><trkpt lat="37.487918" lon="22.383886"><ele>674.0</ele><time>2026-04-29T12:40:01.928Z</time></trkpt><trkpt lat="37.487736" lon="22.3840789"><ele>675.0</ele><time>2026-04-29T12:40:02.927Z</time></trkpt><trkpt lat="37.4875473" lon="22.3842773"><ele>675.0</ele><time>2026-04-29T12:40:03.927Z</time></trkpt><trkpt lat="37.4873705" lon="22.3844625"><ele>675.0</ele><time>2026-04-29T12:40:04.927Z</time></trkpt><trkpt lat="37.4871872" lon="22.3846539"><ele>678.0</ele><time>2026-04-29T12:40:05.927Z</time></trkpt><trkpt lat="37.4870029" lon="22.3848474"><ele>681.0</ele><time>2026-04-29T12:40:06.928Z</time></trkpt><trkpt lat="37.4868167" lon="22.3850418"><ele>681.0</ele><time>2026-04-29T12:40:07.928Z</time></trkpt><trkpt lat="37.4866312" lon="22.385237"><ele>681.0</ele><time>2026-04-29T12:40:08.927Z</time></trkpt><trkpt lat="37.4864466" lon="22.3854334"><ele>681.0</ele><time>2026-04-29T12:40:09.928Z</time></trkpt><trkpt lat="37.4862611" lon="22.3856294"><ele>681.0</ele><time>2026-04-29T12:40:10.928Z</time></trkpt><trkpt lat="37.4860696" lon="22.3858319"><ele>681.0</ele><time>2026-04-29T12:40:11.928Z</time></trkpt><trkpt lat="37.4858906" lon="22.3860235"><ele>681.0</ele><time>2026-04-29T12:40:12.927Z</time></trkpt><trkpt lat="37.4857062" lon="22.3862221"><ele>680.5</ele><time>2026-04-29T12:40:13.928Z</time></trkpt><trkpt lat="37.4855223" lon="22.3864194"><ele>680.0</ele><time>2026-04-29T12:40:14.927Z</time></trkpt><trkpt lat="37.4853381" lon="22.3866159"><ele>680.0</ele><time>2026-04-29T12:40:15.928Z</time></trkpt><trkpt lat="37.4851519" lon="22.3868098"><ele>680.0</ele><time>2026-04-29T12:40:16.928Z</time></trkpt><trkpt lat="37.4849639" lon="22.3870025"><ele>680.5</ele><time>2026-04-29T12:40:17.927Z</time></trkpt><trkpt lat="37.4847754" lon="22.3871966"><ele>681.0</ele><time>2026-04-29T12:40:18.928Z</time></trkpt><trkpt lat="37.4845813" lon="22.3874"><ele>679.5</ele><time>2026-04-29T12:40:19.927Z</time></trkpt><trkpt lat="37.4844012" lon="22.3875901"><ele>678.0</ele><time>2026-04-29T12:40:20.928Z</time></trkpt><trkpt lat="37.484217" lon="22.3877857"><ele>678.0</ele><time>2026-04-29T12:40:21.928Z</time></trkpt><trkpt lat="37.4840326" lon="22.3879784"><ele>678.0</ele><time>2026-04-29T12:40:22.928Z</time></trkpt><trkpt lat="37.483849" lon="22.3881716"><ele>677.5</ele><time>2026-04-29T12:40:23.928Z</time></trkpt><trkpt lat="37.4836665" lon="22.3883653"><ele>677.0</ele><time>2026-04-29T12:40:24.928Z</time></trkpt><trkpt lat="37.4834848" lon="22.3885589"><ele>677.0</ele><time>2026-04-29T12:40:25.927Z</time></trkpt><trkpt lat="37.4833032" lon="22.3887518"><ele>677.0</ele><time>2026-04-29T12:40:26.928Z</time></trkpt><trkpt lat="37.4831163" lon="22.3889511"><ele>677.5</ele><time>2026-04-29T12:40:27.927Z</time></trkpt><trkpt lat="37.4829415" lon="22.3891388"><ele>678.0</ele><time>2026-04-29T12:40:28.928Z</time></trkpt><trkpt lat="37.4827617" lon="22.3893328"><ele>677.0</ele><time>2026-04-29T12:40:29.928Z</time></trkpt><trkpt lat="37.4825813" lon="22.3895257"><ele>676.0</ele><time>2026-04-29T12:40:30.928Z</time></trkpt><trkpt lat="37.4824" lon="22.389717"><ele>676.0</ele><time>2026-04-29T12:40:31.928Z</time></trkpt><trkpt lat="37.48222" lon="22.3899087"><ele>676.0</ele><time>2026-04-29T12:40:32.928Z</time></trkpt><trkpt lat="37.482041" lon="22.3900995"><ele>676.0</ele><time>2026-04-29T12:40:33.928Z</time></trkpt><trkpt lat="37.4818641" lon="22.3902874"><ele>676.0</ele><time>2026-04-29T12:40:34.928Z</time></trkpt><trkpt lat="37.4816863" lon="22.3904762"><ele>675.6666666666667</ele><time>2026-04-29T12:40:35.927Z</time></trkpt><trkpt lat="37.4815286" lon="22.3906586"><ele>675.3333333333334</ele><time>2026-04-29T12:40:36.927Z</time></trkpt><trkpt lat="37.4813803" lon="22.3908643"><ele>675.0</ele><time>2026-04-29T12:40:37.927Z</time></trkpt><trkpt lat="37.4812491" lon="22.3910888"><ele>675.0</ele><time>2026-04-29T12:40:38.928Z</time></trkpt><trkpt lat="37.4811292" lon="22.3913281"><ele>675.0</ele><time>2026-04-29T12:40:39.928Z</time></trkpt><trkpt lat="37.4810158" lon="22.3915751"><ele>675.0</ele><time>2026-04-29T12:40:40.927Z</time></trkpt><trkpt lat="37.4809065" lon="22.3918244"><ele>675.0</ele><time>2026-04-29T12:40:41.928Z</time></trkpt><trkpt lat="37.4808002" lon="22.3920745"><ele>674.6666666666666</ele><time>2026-04-29T12:40:42.927Z</time></trkpt><trkpt lat="37.4806912" lon="22.3923317"><ele>674.3333333333333</ele><time>2026-04-29T12:40:43.927Z</time></trkpt><trkpt lat="37.4805874" lon="22.3925718"><ele>674.0</ele><time>2026-04-29T12:40:44.928Z</time></trkpt><trkpt lat="37.4804793" lon="22.3928191"><ele>673.3333333333333</ele><time>2026-04-29T12:40:45.928Z</time></trkpt><trkpt lat="37.4803712" lon="22.3930663"><ele>672.6666666666666</ele><time>2026-04-29T12:40:46.927Z</time></trkpt><trkpt lat="37.4802623" lon="22.3933128"><ele>672.0</ele><time>2026-04-29T12:40:47.927Z</time></trkpt><trkpt lat="37.4801523" lon="22.3935574"><ele>672.0</ele><time>2026-04-29T12:40:48.927Z</time></trkpt><trkpt lat="37.4800426" lon="22.3938022"><ele>672.0</ele><time>2026-04-29T12:40:49.928Z</time></trkpt><trkpt lat="37.4799328" lon="22.3940478"><ele>672.0</ele><time>2026-04-29T12:40:50.927Z</time></trkpt><trkpt lat="37.4798198" lon="22.394302"><ele>672.0</ele><time>2026-04-29T12:40:51.928Z</time></trkpt><trkpt lat="37.4797145" lon="22.3945417"><ele>672.0</ele><time>2026-04-29T12:40:52.927Z</time></trkpt><trkpt lat="37.4796053" lon="22.39479"><ele>672.0</ele><time>2026-04-29T12:40:53.928Z</time></trkpt><trkpt lat="37.4794946" lon="22.3950385"><ele>672.0</ele><time>2026-04-29T12:40:54.928Z</time></trkpt><trkpt lat="37.479385" lon="22.3952821"><ele>672.0</ele><time>2026-04-29T12:40:55.927Z</time></trkpt><trkpt lat="37.4792734" lon="22.3955325"><ele>672.0</ele><time>2026-04-29T12:40:56.928Z</time></trkpt><trkpt lat="37.4791682" lon="22.3957704"><ele>672.0</ele><time>2026-04-29T12:40:57.928Z</time></trkpt><trkpt lat="37.4790663" lon="22.3960021"><ele>672.0</ele><time>2026-04-29T12:40:58.928Z</time></trkpt><trkpt lat="37.4789633" lon="22.3962348"><ele>671.6666666666666</ele><time>2026-04-29T12:40:59.928Z</time></trkpt><trkpt lat="37.4788686" lon="22.3964479"><ele>671.3333333333333</ele><time>2026-04-29T12:41:00.927Z</time></trkpt><trkpt lat="37.4787719" lon="22.3966649"><ele>671.0</ele><time>2026-04-29T12:41:01.927Z</time></trkpt><trkpt lat="37.4786796" lon="22.3968734"><ele>671.0</ele><time>2026-04-29T12:41:02.927Z</time></trkpt><trkpt lat="37.4785885" lon="22.3970807"><ele>671.0</ele><time>2026-04-29T12:41:03.928Z</time></trkpt><trkpt lat="37.4784987" lon="22.397284"><ele>671.0</ele><time>2026-04-29T12:41:04.928Z</time></trkpt><trkpt lat="37.478411" lon="22.3974824"><ele>671.0</ele><time>2026-04-29T12:41:05.927Z</time></trkpt><trkpt lat="37.4783264" lon="22.3976741"><ele>671.0</ele><time>2026-04-29T12:41:06.928Z</time></trkpt><trkpt lat="37.4782429" lon="22.397865"><ele>671.0</ele><time>2026-04-29T12:41:07.927Z</time></trkpt><trkpt lat="37.4781606" lon="22.3980507"><ele>670.6666666666666</ele><time>2026-04-29T12:41:08.927Z</time></trkpt><trkpt lat="37.4780775" lon="22.3982372"><ele>670.3333333333334</ele><time>2026-04-29T12:41:09.927Z</time></trkpt><trkpt lat="37.477995" lon="22.3984229"><ele>670.0</ele><time>2026-04-29T12:41:10.927Z</time></trkpt><trkpt lat="37.4779129" lon="22.3986081"><ele>670.3333333333334</ele><time>2026-04-29T12:41:11.928Z</time></trkpt><trkpt lat="37.4778306" lon="22.3987934"><ele>670.6666666666666</ele><time>2026-04-29T12:41:12.928Z</time></trkpt><trkpt lat="37.4777489" lon="22.3989796"><ele>671.0</ele><time>2026-04-29T12:41:13.928Z</time></trkpt><trkpt lat="37.4776671" lon="22.399166"><ele>671.0</ele><time>2026-04-29T12:41:14.928Z</time></trkpt><trkpt lat="37.4775842" lon="22.3993545"><ele>671.0</ele><time>2026-04-29T12:41:15.927Z</time></trkpt><trkpt lat="37.4775016" lon="22.3995395"><ele>671.0</ele><time>2026-04-29T12:41:16.927Z</time></trkpt><trkpt lat="37.4774179" lon="22.3997271"><ele>670.3333333333333</ele><time>2026-04-29T12:41:17.928Z</time></trkpt><trkpt lat="37.4773341" lon="22.3999154"><ele>669.6666666666666</ele><time>2026-04-29T12:41:18.928Z</time></trkpt><trkpt lat="37.4772499" lon="22.4001039"><ele>669.0</ele><time>2026-04-29T12:41:19.928Z</time></trkpt><trkpt lat="37.4771656" lon="22.4002935"><ele>670.3333333333334</ele><time>2026-04-29T12:41:20.928Z</time></trkpt><trkpt lat="37.4770814" lon="22.4004844"><ele>671.6666666666667</ele><time>2026-04-29T12:41:21.927Z</time></trkpt><trkpt lat="37.4769985" lon="22.4006767"><ele>673.0</ele><time>2026-04-29T12:41:22.927Z</time></trkpt><trkpt lat="37.4769156" lon="22.4008711"><ele>673.0</ele><time>2026-04-29T12:41:23.928Z</time></trkpt><trkpt lat="37.4768328" lon="22.4010636"><ele>673.0</ele><time>2026-04-29T12:41:24.928Z</time></trkpt><trkpt lat="37.4767471" lon="22.401256"><ele>673.0</ele><time>2026-04-29T12:41:25.927Z</time></trkpt><trkpt lat="37.4766604" lon="22.4014414"><ele>672.3333333333334</ele><time>2026-04-29T12:41:26.928Z</time></trkpt><trkpt lat="37.476567" lon="22.4016311"><ele>671.6666666666666</ele><time>2026-04-29T12:41:27.927Z</time></trkpt><trkpt lat="37.4764665" lon="22.4018249"><ele>671.0</ele><time>2026-04-29T12:41:28.928Z</time></trkpt><trkpt lat="37.4763648" lon="22.4020114"><ele>671.0</ele><time>2026-04-29T12:41:29.928Z</time></trkpt><trkpt lat="37.4762592" lon="22.4021981"><ele>671.0</ele><time>2026-04-29T12:41:30.927Z</time></trkpt><trkpt lat="37.476151" lon="22.4023867"><ele>671.0</ele><time>2026-04-29T12:41:31.928Z</time></trkpt><trkpt lat="37.4760404" lon="22.4025774"><ele>671.0</ele><time>2026-04-29T12:41:32.927Z</time></trkpt><trkpt lat="37.4759303" lon="22.4027707"><ele>671.0</ele><time>2026-04-29T12:41:33.928Z</time></trkpt><trkpt lat="37.4758239" lon="22.4029604"><ele>671.0</ele><time>2026-04-29T12:41:34.927Z</time></trkpt><trkpt lat="37.4757121" lon="22.403157"><ele>671.3333333333333</ele><time>2026-04-29T12:41:35.927Z</time></trkpt><trkpt lat="37.4755943" lon="22.4033613"><ele>671.6666666666666</ele><time>2026-04-29T12:41:36.928Z</time></trkpt><trkpt lat="37.4754786" lon="22.4035605"><ele>672.0</ele><time>2026-04-29T12:41:37.928Z</time></trkpt><trkpt lat="37.4753618" lon="22.4037614"><ele>672.0</ele><time>2026-04-29T12:41:38.928Z</time></trkpt><trkpt lat="37.4752451" lon="22.403964"><ele>672.0</ele><time>2026-04-29T12:41:39.928Z</time></trkpt><trkpt lat="37.4751292" lon="22.4041682"><ele>672.0</ele><time>2026-04-29T12:41:40.927Z</time></trkpt><trkpt lat="37.475014" lon="22.4043741"><ele>672.0</ele><time>2026-04-29T12:41:41.927Z</time></trkpt><trkpt lat="37.474902" lon="22.4045734"><ele>672.0</ele><time>2026-04-29T12:41:42.927Z</time></trkpt><trkpt lat="37.4747853" lon="22.4047788"><ele>672.0</ele><time>2026-04-29T12:41:43.928Z</time></trkpt><trkpt lat="37.4746643" lon="22.4049904"><ele>671.3333333333334</ele><time>2026-04-29T12:41:44.928Z</time></trkpt><trkpt lat="37.4745474" lon="22.4051948"><ele>670.6666666666667</ele><time>2026-04-29T12:41:45.928Z</time></trkpt><trkpt lat="37.4744304" lon="22.4053994"><ele>670.0</ele><time>2026-04-29T12:41:46.928Z</time></trkpt><trkpt lat="37.4743149" lon="22.4056037"><ele>669.6666666666667</ele><time>2026-04-29T12:41:47.928Z</time></trkpt><trkpt lat="37.474202" lon="22.4058068"><ele>669.3333333333334</ele><time>2026-04-29T12:41:48.927Z</time></trkpt><trkpt lat="37.4740914" lon="22.4060078"><ele>669.0</ele><time>2026-04-29T12:41:49.927Z</time></trkpt><trkpt lat="37.4739861" lon="22.4062006"><ele>668.6666666666666</ele><time>2026-04-29T12:41:50.927Z</time></trkpt><trkpt lat="37.4738776" lon="22.4063988"><ele>668.3333333333333</ele><time>2026-04-29T12:41:51.927Z</time></trkpt><trkpt lat="37.4737673" lon="22.4066053"><ele>668.0</ele><time>2026-04-29T12:41:52.928Z</time></trkpt><trkpt lat="37.4736619" lon="22.4068084"><ele>668.0</ele><time>2026-04-29T12:41:53.928Z</time></trkpt><trkpt lat="37.4735579" lon="22.4070129"><ele>668.0</ele><time>2026-04-29T12:41:54.928Z</time></trkpt><trkpt lat="37.4734541" lon="22.4072167"><ele>668.0</ele><time>2026-04-29T12:41:55.928Z</time></trkpt><trkpt lat="37.4733491" lon="22.4074178"><ele>668.0</ele><time>2026-04-29T12:41:56.928Z</time></trkpt><trkpt lat="37.4732432" lon="22.4076168"><ele>668.0</ele><time>2026-04-29T12:41:57.928Z</time></trkpt><trkpt lat="37.4731407" lon="22.4078073"><ele>668.0</ele><time>2026-04-29T12:41:58.927Z</time></trkpt><trkpt lat="37.4730362" lon="22.4080019"><ele>668.6666666666666</ele><time>2026-04-29T12:41:59.928Z</time></trkpt><trkpt lat="37.4729299" lon="22.4081993"><ele>669.3333333333334</ele><time>2026-04-29T12:42:00.927Z</time></trkpt><trkpt lat="37.4728282" lon="22.4083878"><ele>670.0</ele><time>2026-04-29T12:42:01.927Z</time></trkpt><trkpt lat="37.4727291" lon="22.4085696"><ele>670.0</ele><time>2026-04-29T12:42:02.928Z</time></trkpt><trkpt lat="37.4726315" lon="22.4087413"><ele>670.0</ele><time>2026-04-29T12:42:03.928Z</time></trkpt><trkpt lat="37.4725296" lon="22.4089025"><ele>670.0</ele><time>2026-04-29T12:42:04.927Z</time></trkpt><trkpt lat="37.4724158" lon="22.4090524"><ele>670.6666666666667</ele><time>2026-04-29T12:42:05.928Z</time></trkpt><trkpt lat="37.4722904" lon="22.4091858"><ele>671.3333333333334</ele><time>2026-04-29T12:42:06.927Z</time></trkpt><trkpt lat="37.4721462" lon="22.4093112"><ele>672.0</ele><time>2026-04-29T12:42:07.928Z</time></trkpt><trkpt lat="37.4719827" lon="22.409426"><ele>672.0</ele><time>2026-04-29T12:42:08.927Z</time></trkpt><trkpt lat="37.4718134" lon="22.4095187"><ele>672.0</ele><time>2026-04-29T12:42:09.927Z</time></trkpt><trkpt lat="37.4716368" lon="22.4095947"><ele>672.0</ele><time>2026-04-29T12:42:10.928Z</time></trkpt><trkpt lat="37.4714544" lon="22.4096432"><ele>671.0</ele><time>2026-04-29T12:42:11.928Z</time></trkpt><trkpt lat="37.4712686" lon="22.4096661"><ele>670.0</ele><time>2026-04-29T12:42:12.928Z</time></trkpt><trkpt lat="37.4710814" lon="22.4096666"><ele>669.0</ele><time>2026-04-29T12:42:13.927Z</time></trkpt><trkpt lat="37.4708976" lon="22.4096547"><ele>669.0</ele><time>2026-04-29T12:42:14.927Z</time></trkpt><trkpt lat="37.4707047" lon="22.4096381"><ele>669.0</ele><time>2026-04-29T12:42:15.927Z</time></trkpt><trkpt lat="37.4705033" lon="22.4096233"><ele>669.0</ele><time>2026-04-29T12:42:16.928Z</time></trkpt><trkpt lat="37.470307" lon="22.4096104"><ele>669.0</ele><time>2026-04-29T12:42:17.927Z</time></trkpt><trkpt lat="37.4701105" lon="22.4095987"><ele>669.0</ele><time>2026-04-29T12:42:18.927Z</time></trkpt><trkpt lat="37.4699159" lon="22.4095859"><ele>669.0</ele><time>2026-04-29T12:42:19.928Z</time></trkpt><trkpt lat="37.4697245" lon="22.4095719"><ele>669.0</ele><time>2026-04-29T12:42:20.927Z</time></trkpt><trkpt lat="37.4695336" lon="22.4095576"><ele>669.0</ele><time>2026-04-29T12:42:21.927Z</time></trkpt><trkpt lat="37.4693496" lon="22.4095464"><ele>669.0</ele><time>2026-04-29T12:42:22.928Z</time></trkpt><trkpt lat="37.4691605" lon="22.4095372"><ele>669.0</ele><time>2026-04-29T12:42:23.928Z</time></trkpt><trkpt lat="37.4689663" lon="22.4095282"><ele>669.0</ele><time>2026-04-29T12:42:24.928Z</time></trkpt><trkpt lat="37.4687787" lon="22.4095172"><ele>669.0</ele><time>2026-04-29T12:42:25.927Z</time></trkpt><trkpt lat="37.4685919" lon="22.409506"><ele>669.0</ele><time>2026-04-29T12:42:26.927Z</time></trkpt><trkpt lat="37.4684055" lon="22.4094961"><ele>669.0</ele><time>2026-04-29T12:42:27.928Z</time></trkpt><trkpt lat="37.4682191" lon="22.4094881"><ele>669.0</ele><time>2026-04-29T12:42:28.927Z</time></trkpt><trkpt lat="37.4680298" lon="22.4094778"><ele>669.3333333333334</ele><time>2026-04-29T12:42:29.927Z</time></trkpt><trkpt lat="37.4678425" lon="22.4094672"><ele>669.6666666666667</ele><time>2026-04-29T12:42:30.927Z</time></trkpt><trkpt lat="37.4676468" lon="22.4094573"><ele>670.0</ele><time>2026-04-29T12:42:31.927Z</time></trkpt><trkpt lat="37.4674437" lon="22.4094449"><ele>670.0</ele><time>2026-04-29T12:42:32.927Z</time></trkpt><trkpt lat="37.4672466" lon="22.4094314"><ele>670.0</ele><time>2026-04-29T12:42:33.928Z</time></trkpt><trkpt lat="37.4670501" lon="22.4094193"><ele>670.0</ele><time>2026-04-29T12:42:34.928Z</time></trkpt><trkpt lat="37.4668532" lon="22.4094065"><ele>670.3333333333334</ele><time>2026-04-29T12:42:35.927Z</time></trkpt><trkpt lat="37.4666577" lon="22.4093949"><ele>670.6666666666666</ele><time>2026-04-29T12:42:36.927Z</time></trkpt><trkpt lat="37.4664631" lon="22.4093847"><ele>671.0</ele><time>2026-04-29T12:42:37.928Z</time></trkpt><trkpt lat="37.4662742" lon="22.4093759"><ele>669.6666666666666</ele><time>2026-04-29T12:42:38.928Z</time></trkpt><trkpt lat="37.4660775" lon="22.4093656"><ele>668.3333333333334</ele><time>2026-04-29T12:42:39.927Z</time></trkpt><trkpt lat="37.4658683" lon="22.4093538"><ele>667.0</ele><time>2026-04-29T12:42:40.928Z</time></trkpt><trkpt lat="37.4656592" lon="22.4093417"><ele>665.6666666666667</ele><time>2026-04-29T12:42:41.928Z</time></trkpt><trkpt lat="37.4654435" lon="22.4093294"><ele>664.3333333333334</ele><time>2026-04-29T12:42:42.928Z</time></trkpt><trkpt lat="37.46523" lon="22.4093184"><ele>663.0</ele><time>2026-04-29T12:42:43.927Z</time></trkpt><trkpt lat="37.4650174" lon="22.409309"><ele>663.0</ele><time>2026-04-29T12:42:44.927Z</time></trkpt><trkpt lat="37.4648038" lon="22.4093004"><ele>663.0</ele><time>2026-04-29T12:42:45.927Z</time></trkpt><trkpt lat="37.4645968" lon="22.409291"><ele>663.0</ele><time>2026-04-29T12:42:46.928Z</time></trkpt><trkpt lat="37.4643833" lon="22.4092811"><ele>662.6666666666666</ele><time>2026-04-29T12:42:47.928Z</time></trkpt><trkpt lat="37.464163" lon="22.4092693"><ele>662.3333333333333</ele><time>2026-04-29T12:42:48.927Z</time></trkpt><trkpt lat="37.46395" lon="22.4092572"><ele>662.0</ele><time>2026-04-29T12:42:49.927Z</time></trkpt><trkpt lat="37.463744" lon="22.4092475"><ele>662.6666666666666</ele><time>2026-04-29T12:42:50.928Z</time></trkpt><trkpt lat="37.4635249" lon="22.4092397"><ele>663.3333333333334</ele><time>2026-04-29T12:42:51.928Z</time></trkpt><trkpt lat="37.4633136" lon="22.4092329"><ele>664.0</ele><time>2026-04-29T12:42:52.928Z</time></trkpt><trkpt lat="37.4631026" lon="22.4092244"><ele>664.0</ele><time>2026-04-29T12:42:53.928Z</time></trkpt><trkpt lat="37.4628983" lon="22.4092162"><ele>664.0</ele><time>2026-04-29T12:42:54.928Z</time></trkpt><trkpt lat="37.4626881" lon="22.409209"><ele>664.0</ele><time>2026-04-29T12:42:55.927Z</time></trkpt><trkpt lat="37.4624709" lon="22.4092029"><ele>664.0</ele><time>2026-04-29T12:42:56.927Z</time></trkpt><trkpt lat="37.4622609" lon="22.4091966"><ele>664.0</ele><time>2026-04-29T12:42:57.927Z</time></trkpt><trkpt lat="37.4620581" lon="22.4091903"><ele>664.0</ele><time>2026-04-29T12:42:58.928Z</time></trkpt><trkpt lat="37.4618409" lon="22.4091842"><ele>664.0</ele><time>2026-04-29T12:42:59.927Z</time></trkpt><trkpt lat="37.4616303" lon="22.4091795"><ele>664.0</ele><time>2026-04-29T12:43:00.928Z</time></trkpt><trkpt lat="37.4614193" lon="22.4091746"><ele>664.0</ele><time>2026-04-29T12:43:01.927Z</time></trkpt><trkpt lat="37.4612135" lon="22.4091683"><ele>663.6666666666667</ele><time>2026-04-29T12:43:02.927Z</time></trkpt><trkpt lat="37.4610004" lon="22.4091611"><ele>663.3333333333334</ele><time>2026-04-29T12:43:03.928Z</time></trkpt><trkpt lat="37.4607805" lon="22.4091544"><ele>663.0</ele><time>2026-04-29T12:43:04.928Z</time></trkpt><trkpt lat="37.4605673" lon="22.4091488"><ele>663.0</ele><time>2026-04-29T12:43:05.928Z</time></trkpt><trkpt lat="37.4603609" lon="22.4091439"><ele>663.0</ele><time>2026-04-29T12:43:06.927Z</time></trkpt><trkpt lat="37.4601415" lon="22.4091384"><ele>663.0</ele><time>2026-04-29T12:43:07.928Z</time></trkpt><trkpt lat="37.4599289" lon="22.4091319"><ele>663.0</ele><time>2026-04-29T12:43:08.928Z</time></trkpt><trkpt lat="37.4597154" lon="22.4091257"><ele>663.0</ele><time>2026-04-29T12:43:09.928Z</time></trkpt><trkpt lat="37.4595089" lon="22.4091204"><ele>663.0</ele><time>2026-04-29T12:43:10.927Z</time></trkpt><trkpt lat="37.4592961" lon="22.4091156"><ele>663.3333333333334</ele><time>2026-04-29T12:43:11.927Z</time></trkpt><trkpt lat="37.4590787" lon="22.4091114"><ele>663.6666666666667</ele><time>2026-04-29T12:43:12.928Z</time></trkpt><trkpt lat="37.4588708" lon="22.4091061"><ele>664.0</ele><time>2026-04-29T12:43:13.927Z</time></trkpt><trkpt lat="37.4586715" lon="22.409099"><ele>664.0</ele><time>2026-04-29T12:43:14.927Z</time></trkpt><trkpt lat="37.4584608" lon="22.4090912"><ele>664.0</ele><time>2026-04-29T12:43:15.928Z</time></trkpt><trkpt lat="37.458261" lon="22.4090854"><ele>664.0</ele><time>2026-04-29T12:43:16.928Z</time></trkpt><trkpt lat="37.4580703" lon="22.4090795"><ele>664.0</ele><time>2026-04-29T12:43:17.928Z</time></trkpt><trkpt lat="37.4578996" lon="22.4090752"><ele>664.0</ele><time>2026-04-29T12:43:18.928Z</time></trkpt><trkpt lat="37.4577407" lon="22.4090743"><ele>664.0</ele><time>2026-04-29T12:43:19.928Z</time></trkpt><trkpt lat="37.4575982" lon="22.4090803"><ele>664.0</ele><time>2026-04-29T12:43:20.928Z</time></trkpt><trkpt lat="37.4574802" lon="22.4090892"><ele>664.0</ele><time>2026-04-29T12:43:21.928Z</time></trkpt><trkpt lat="37.4573721" lon="22.4091014"><ele>664.0</ele><time>2026-04-29T12:43:22.927Z</time></trkpt><trkpt lat="37.4572545" lon="22.4091172"><ele>664.0</ele><time>2026-04-29T12:43:23.928Z</time></trkpt><trkpt lat="37.4571373" lon="22.4091367"><ele>664.5</ele><time>2026-04-29T12:43:24.928Z</time></trkpt><trkpt lat="37.4570158" lon="22.4091574"><ele>665.0</ele><time>2026-04-29T12:43:25.928Z</time></trkpt><trkpt lat="37.4568942" lon="22.409177"><ele>665.5</ele><time>2026-04-29T12:43:26.928Z</time></trkpt><trkpt lat="37.4567646" lon="22.4091969"><ele>666.0</ele><time>2026-04-29T12:43:27.927Z</time></trkpt><trkpt lat="37.4566296" lon="22.4092187"><ele>666.0</ele><time>2026-04-29T12:43:28.928Z</time></trkpt><trkpt lat="37.4564993" lon="22.4092396"><ele>666.0</ele><time>2026-04-29T12:43:29.928Z</time></trkpt><trkpt lat="37.4563754" lon="22.4092613"><ele>666.0</ele><time>2026-04-29T12:43:30.927Z</time></trkpt><trkpt lat="37.4562458" lon="22.4092818"><ele>666.0</ele><time>2026-04-29T12:43:31.927Z</time></trkpt><trkpt lat="37.4561206" lon="22.4092973"><ele>665.75</ele><time>2026-04-29T12:43:32.928Z</time></trkpt><trkpt lat="37.4559943" lon="22.409309"><ele>665.5</ele><time>2026-04-29T12:43:33.928Z</time></trkpt><trkpt lat="37.45587" lon="22.4093142"><ele>665.25</ele><time>2026-04-29T12:43:34.927Z</time></trkpt><trkpt lat="37.4557397" lon="22.4093113"><ele>665.0</ele><time>2026-04-29T12:43:35.928Z</time></trkpt><trkpt lat="37.4556027" lon="22.4092982"><ele>665.0</ele><time>2026-04-29T12:43:36.927Z</time></trkpt><trkpt lat="37.4554677" lon="22.4092768"><ele>665.0</ele><time>2026-04-29T12:43:37.928Z</time></trkpt><trkpt lat="37.4553348" lon="22.4092531"><ele>665.0</ele><time>2026-04-29T12:43:38.928Z</time></trkpt><trkpt lat="37.4551911" lon="22.4092294"><ele>665.0</ele><time>2026-04-29T12:43:39.928Z</time></trkpt><trkpt lat="37.45505" lon="22.4092061"><ele>665.0</ele><time>2026-04-29T12:43:40.928Z</time></trkpt><trkpt lat="37.4549077" lon="22.4091824"><ele>665.0</ele><time>2026-04-29T12:43:41.927Z</time></trkpt><trkpt lat="37.4547687" lon="22.4091599"><ele>665.0</ele><time>2026-04-29T12:43:42.927Z</time></trkpt><trkpt lat="37.4546245" lon="22.4091357"><ele>665.0</ele><time>2026-04-29T12:43:43.928Z</time></trkpt><trkpt lat="37.4544739" lon="22.4091108"><ele>664.6666666666666</ele><time>2026-04-29T12:43:44.928Z</time></trkpt><trkpt lat="37.4543254" lon="22.4090866"><ele>664.3333333333334</ele><time>2026-04-29T12:43:45.928Z</time></trkpt><trkpt lat="37.4541785" lon="22.4090612"><ele>664.0</ele><time>2026-04-29T12:43:46.928Z</time></trkpt><trkpt lat="37.4540219" lon="22.4090337"><ele>664.0</ele><time>2026-04-29T12:43:47.927Z</time></trkpt><trkpt lat="37.4538698" lon="22.4090053"><ele>664.0</ele><time>2026-04-29T12:43:48.927Z</time></trkpt><trkpt lat="37.4537184" lon="22.4089781"><ele>664.0</ele><time>2026-04-29T12:43:49.928Z</time></trkpt><trkpt lat="37.4535728" lon="22.4089529"><ele>664.0</ele><time>2026-04-29T12:43:50.928Z</time></trkpt><trkpt lat="37.4534228" lon="22.408927"><ele>664.0</ele><time>2026-04-29T12:43:51.928Z</time></trkpt><trkpt lat="37.4532668" lon="22.4089014"><ele>664.0</ele><time>2026-04-29T12:43:52.927Z</time></trkpt><trkpt lat="37.4531153" lon="22.4088754"><ele>664.0</ele><time>2026-04-29T12:43:53.927Z</time></trkpt><trkpt lat="37.4529689" lon="22.4088517"><ele>664.0</ele><time>2026-04-29T12:43:54.927Z</time></trkpt><trkpt lat="37.4528119" lon="22.408827"><ele>664.0</ele><time>2026-04-29T12:43:55.928Z</time></trkpt><trkpt lat="37.4526605" lon="22.4088008"><ele>664.5</ele><time>2026-04-29T12:43:56.927Z</time></trkpt><trkpt lat="37.4525099" lon="22.4087778"><ele>665.0</ele><time>2026-04-29T12:43:57.927Z</time></trkpt><trkpt lat="37.4523657" lon="22.4087576"><ele>665.5</ele><time>2026-04-29T12:43:58.927Z</time></trkpt><trkpt lat="37.4522182" lon="22.4087373"><ele>666.0</ele><time>2026-04-29T12:43:59.928Z</time></trkpt><trkpt lat="37.4520663" lon="22.4087178"><ele>666.25</ele><time>2026-04-29T12:44:00.927Z</time></trkpt><trkpt lat="37.4519174" lon="22.4087047"><ele>666.5</ele><time>2026-04-29T12:44:01.927Z</time></trkpt><trkpt lat="37.4517763" lon="22.4086945"><ele>666.75</ele><time>2026-04-29T12:44:02.928Z</time></trkpt><trkpt lat="37.4516284" lon="22.4086905"><ele>667.0</ele><time>2026-04-29T12:44:03.927Z</time></trkpt><trkpt lat="37.451488" lon="22.4086929"><ele>667.0</ele><time>2026-04-29T12:44:04.928Z</time></trkpt><trkpt lat="37.4513502" lon="22.4086975"><ele>667.0</ele><time>2026-04-29T12:44:05.928Z</time></trkpt><trkpt lat="37.451215" lon="22.4087039"><ele>667.0</ele><time>2026-04-29T12:44:06.927Z</time></trkpt><trkpt lat="37.4510772" lon="22.4087094"><ele>667.0</ele><time>2026-04-29T12:44:07.928Z</time></trkpt><trkpt lat="37.4509303" lon="22.4087112"><ele>667.0</ele><time>2026-04-29T12:44:08.928Z</time></trkpt><trkpt lat="37.4507867" lon="22.4087141"><ele>667.0</ele><time>2026-04-29T12:44:09.928Z</time></trkpt><trkpt lat="37.4506483" lon="22.4087186"><ele>667.0</ele><time>2026-04-29T12:44:10.927Z</time></trkpt><trkpt lat="37.4504977" lon="22.4087254"><ele>667.0</ele><time>2026-04-29T12:44:11.927Z</time></trkpt><trkpt lat="37.4503504" lon="22.4087313"><ele>667.3333333333334</ele><time>2026-04-29T12:44:12.927Z</time></trkpt><trkpt lat="37.4501988" lon="22.4087393"><ele>667.6666666666666</ele><time>2026-04-29T12:44:13.928Z</time></trkpt><trkpt lat="37.450048" lon="22.4087462"><ele>668.0</ele><time>2026-04-29T12:44:14.927Z</time></trkpt><trkpt lat="37.4498858" lon="22.4087536"><ele>668.0</ele><time>2026-04-29T12:44:15.928Z</time></trkpt><trkpt lat="37.4497042" lon="22.4087626"><ele>668.0</ele><time>2026-04-29T12:44:16.927Z</time></trkpt><trkpt lat="37.4495121" lon="22.4087772"><ele>668.0</ele><time>2026-04-29T12:44:17.928Z</time></trkpt><trkpt lat="37.4493082" lon="22.4087944"><ele>668.0</ele><time>2026-04-29T12:44:18.927Z</time></trkpt><trkpt lat="37.449082" lon="22.4088143"><ele>668.0</ele><time>2026-04-29T12:44:19.928Z</time></trkpt><trkpt lat="37.4488558" lon="22.4088342"><ele>668.0</ele><time>2026-04-29T12:44:20.927Z</time></trkpt><trkpt lat="37.4486253" lon="22.4088546"><ele>668.0</ele><time>2026-04-29T12:44:21.927Z</time></trkpt><trkpt lat="37.4483996" lon="22.4088735"><ele>668.0</ele><time>2026-04-29T12:44:22.928Z</time></trkpt><trkpt lat="37.4481659" lon="22.4088925"><ele>668.0</ele><time>2026-04-29T12:44:23.927Z</time></trkpt><trkpt lat="37.4479254" lon="22.4089123"><ele>668.0</ele><time>2026-04-29T12:44:24.928Z</time></trkpt><trkpt lat="37.4476936" lon="22.4089318"><ele>668.0</ele><time>2026-04-29T12:44:25.927Z</time></trkpt><trkpt lat="37.4474714" lon="22.408953"><ele>668.0</ele><time>2026-04-29T12:44:26.928Z</time></trkpt><trkpt lat="37.4472359" lon="22.4089758"><ele>668.0</ele><time>2026-04-29T12:44:27.927Z</time></trkpt><trkpt lat="37.4470098" lon="22.408998"><ele>667.6666666666666</ele><time>2026-04-29T12:44:28.928Z</time></trkpt><trkpt lat="37.4467848" lon="22.4090207"><ele>667.3333333333334</ele><time>2026-04-29T12:44:29.928Z</time></trkpt><trkpt lat="37.4465682" lon="22.4090417"><ele>667.0</ele><time>2026-04-29T12:44:30.927Z</time></trkpt><trkpt lat="37.4463448" lon="22.4090616"><ele>667.0</ele><time>2026-04-29T12:44:31.928Z</time></trkpt><trkpt lat="37.4461128" lon="22.4090815"><ele>667.0</ele><time>2026-04-29T12:44:32.927Z</time></trkpt><trkpt lat="37.4458855" lon="22.4091011"><ele>667.0</ele><time>2026-04-29T12:44:33.928Z</time></trkpt><trkpt lat="37.4456658" lon="22.4091212"><ele>667.0</ele><time>2026-04-29T12:44:34.928Z</time></trkpt><trkpt lat="37.4454347" lon="22.4091417"><ele>667.0</ele><time>2026-04-29T12:44:35.927Z</time></trkpt><trkpt lat="37.4452121" lon="22.4091603"><ele>667.0</ele><time>2026-04-29T12:44:36.927Z</time></trkpt><trkpt lat="37.4449901" lon="22.4091791"><ele>667.0</ele><time>2026-04-29T12:44:37.928Z</time></trkpt><trkpt lat="37.4447768" lon="22.4091984"><ele>666.6666666666667</ele><time>2026-04-29T12:44:38.927Z</time></trkpt><trkpt lat="37.4445573" lon="22.4092171"><ele>666.3333333333334</ele><time>2026-04-29T12:44:39.927Z</time></trkpt><trkpt lat="37.4443318" lon="22.409235"><ele>666.0</ele><time>2026-04-29T12:44:40.927Z</time></trkpt><trkpt lat="37.4441147" lon="22.4092565"><ele>666.0</ele><time>2026-04-29T12:44:41.927Z</time></trkpt><trkpt lat="37.4439045" lon="22.4092786"><ele>666.0</ele><time>2026-04-29T12:44:42.927Z</time></trkpt><trkpt lat="37.4436809" lon="22.4093013"><ele>666.0</ele><time>2026-04-29T12:44:43.927Z</time></trkpt><trkpt lat="37.4434671" lon="22.4093205"><ele>666.0</ele><time>2026-04-29T12:44:44.928Z</time></trkpt><trkpt lat="37.4432555" lon="22.4093362"><ele>666.0</ele><time>2026-04-29T12:44:45.928Z</time></trkpt><trkpt lat="37.4430505" lon="22.4093432"><ele>666.0</ele><time>2026-04-29T12:44:46.927Z</time></trkpt><trkpt lat="37.4428412" lon="22.4093328"><ele>666.0</ele><time>2026-04-29T12:44:47.928Z</time></trkpt><trkpt lat="37.4426231" lon="22.4092947"><ele>666.0</ele><time>2026-04-29T12:44:48.927Z</time></trkpt><trkpt lat="37.4424152" lon="22.409236"><ele>666.0</ele><time>2026-04-29T12:44:49.927Z</time></trkpt><trkpt lat="37.4421958" lon="22.4091592"><ele>666.5</ele><time>2026-04-29T12:44:50.927Z</time></trkpt><trkpt lat="37.4419669" lon="22.4090718"><ele>667.0</ele><time>2026-04-29T12:44:51.927Z</time></trkpt><trkpt lat="37.441745" lon="22.4089865"><ele>667.0</ele><time>2026-04-29T12:44:52.927Z</time></trkpt><trkpt lat="37.4415303" lon="22.4089053"><ele>667.0</ele><time>2026-04-29T12:44:53.928Z</time></trkpt><trkpt lat="37.4413104" lon="22.4088235"><ele>666.5</ele><time>2026-04-29T12:44:54.927Z</time></trkpt><trkpt lat="37.4410931" lon="22.4087438"><ele>666.0</ele><time>2026-04-29T12:44:55.928Z</time></trkpt><trkpt lat="37.4408718" lon="22.4086601"><ele>666.0</ele><time>2026-04-29T12:44:56.928Z</time></trkpt><trkpt lat="37.4406658" lon="22.4085813"><ele>666.0</ele><time>2026-04-29T12:44:57.928Z</time></trkpt><trkpt lat="37.440453" lon="22.4085005"><ele>666.0</ele><time>2026-04-29T12:44:58.928Z</time></trkpt><trkpt lat="37.4402337" lon="22.4084169"><ele>666.0</ele><time>2026-04-29T12:44:59.928Z</time></trkpt><trkpt lat="37.4400231" lon="22.4083368"><ele>666.0</ele><time>2026-04-29T12:45:00.928Z</time></trkpt><trkpt lat="37.4398109" lon="22.4082561"><ele>666.0</ele><time>2026-04-29T12:45:01.928Z</time></trkpt><trkpt lat="37.4396059" lon="22.4081794"><ele>666.0</ele><time>2026-04-29T12:45:02.928Z</time></trkpt><trkpt lat="37.4393933" lon="22.4081052"><ele>666.0</ele><time>2026-04-29T12:45:03.927Z</time></trkpt><trkpt lat="37.4391731" lon="22.408043"><ele>666.0</ele><time>2026-04-29T12:45:04.927Z</time></trkpt><trkpt lat="37.4389568" lon="22.408006"><ele>666.5</ele><time>2026-04-29T12:45:05.927Z</time></trkpt><trkpt lat="37.4387417" lon="22.4079986"><ele>667.0</ele><time>2026-04-29T12:45:06.927Z</time></trkpt><trkpt lat="37.4385057" lon="22.408013"><ele>667.0</ele><time>2026-04-29T12:45:07.927Z</time></trkpt><trkpt lat="37.4382724" lon="22.4080401"><ele>667.0</ele><time>2026-04-29T12:45:08.928Z</time></trkpt><trkpt lat="37.438037" lon="22.4080757"><ele>667.0</ele><time>2026-04-29T12:45:09.928Z</time></trkpt><trkpt lat="37.4378075" lon="22.4081155"><ele>667.0</ele><time>2026-04-29T12:45:10.927Z</time></trkpt><trkpt lat="37.4375707" lon="22.408161"><ele>667.0</ele><time>2026-04-29T12:45:11.927Z</time></trkpt><trkpt lat="37.4373263" lon="22.4082055"><ele>667.0</ele><time>2026-04-29T12:45:12.927Z</time></trkpt><trkpt lat="37.4370895" lon="22.4082487"><ele>667.0</ele><time>2026-04-29T12:45:13.927Z</time></trkpt><trkpt lat="37.4368598" lon="22.4082908"><ele>667.0</ele><time>2026-04-29T12:45:14.928Z</time></trkpt><trkpt lat="37.4366145" lon="22.4083355"><ele>667.0</ele><time>2026-04-29T12:45:15.928Z</time></trkpt><trkpt lat="37.4363756" lon="22.4083792"><ele>667.0</ele><time>2026-04-29T12:45:16.927Z</time></trkpt><trkpt lat="37.4361368" lon="22.4084232"><ele>666.5</ele><time>2026-04-29T12:45:17.928Z</time></trkpt><trkpt lat="37.4359078" lon="22.4084683"><ele>666.0</ele><time>2026-04-29T12:45:18.927Z</time></trkpt><trkpt lat="37.4356733" lon="22.4085145"><ele>666.5</ele><time>2026-04-29T12:45:19.927Z</time></trkpt><trkpt lat="37.4354325" lon="22.4085609"><ele>667.0</ele><time>2026-04-29T12:45:20.927Z</time></trkpt><trkpt lat="37.4352008" lon="22.4086063"><ele>667.0</ele><time>2026-04-29T12:45:21.927Z</time></trkpt><trkpt lat="37.4349757" lon="22.4086491"><ele>667.0</ele><time>2026-04-29T12:45:22.928Z</time></trkpt><trkpt lat="37.4347332" lon="22.4086954"><ele>666.5</ele><time>2026-04-29T12:45:23.928Z</time></trkpt><trkpt lat="37.434497" lon="22.4087403"><ele>666.0</ele><time>2026-04-29T12:45:24.928Z</time></trkpt><trkpt lat="37.4342594" lon="22.4087852"><ele>666.0</ele><time>2026-04-29T12:45:25.927Z</time></trkpt><trkpt lat="37.4340281" lon="22.4088274"><ele>666.0</ele><time>2026-04-29T12:45:26.927Z</time></trkpt><trkpt lat="37.4337879" lon="22.4088715"><ele>666.0</ele><time>2026-04-29T12:45:27.927Z</time></trkpt><trkpt lat="37.4335382" lon="22.4089178"><ele>666.0</ele><time>2026-04-29T12:45:28.928Z</time></trkpt><trkpt lat="37.4332947" lon="22.4089626"><ele>666.0</ele><time>2026-04-29T12:45:29.928Z</time></trkpt><trkpt lat="37.4330587" lon="22.4090075"><ele>666.0</ele><time>2026-04-29T12:45:30.928Z</time></trkpt><trkpt lat="37.4328045" lon="22.4090567"><ele>667.0</ele><time>2026-04-29T12:45:31.928Z</time></trkpt><trkpt lat="37.4325617" lon="22.4091031"><ele>668.0</ele><time>2026-04-29T12:45:32.927Z</time></trkpt><trkpt lat="37.4323272" lon="22.4091476"><ele>666.0</ele><time>2026-04-29T12:45:33.927Z</time></trkpt><trkpt lat="37.4320848" lon="22.4091938"><ele>664.0</ele><time>2026-04-29T12:45:34.927Z</time></trkpt><trkpt lat="37.4318415" lon="22.4092389"><ele>664.0</ele><time>2026-04-29T12:45:35.928Z</time></trkpt><trkpt lat="37.4315911" lon="22.4092877"><ele>664.0</ele><time>2026-04-29T12:45:36.927Z</time></trkpt><trkpt lat="37.431357" lon="22.4093336"><ele>663.0</ele><time>2026-04-29T12:45:37.928Z</time></trkpt><trkpt lat="37.4311161" lon="22.409381"><ele>662.0</ele><time>2026-04-29T12:45:38.928Z</time></trkpt><trkpt lat="37.4308693" lon="22.4094294"><ele>662.0</ele><time>2026-04-29T12:45:39.928Z</time></trkpt><trkpt lat="37.4306328" lon="22.4094766"><ele>662.0</ele><time>2026-04-29T12:45:40.927Z</time></trkpt><trkpt lat="37.4304054" lon="22.4095219"><ele>662.5</ele><time>2026-04-29T12:45:41.927Z</time></trkpt><trkpt lat="37.4301724" lon="22.4095693"><ele>663.0</ele><time>2026-04-29T12:45:42.927Z</time></trkpt><trkpt lat="37.4299404" lon="22.4096119"><ele>663.0</ele><time>2026-04-29T12:45:43.927Z</time></trkpt><trkpt lat="37.4297024" lon="22.4096541"><ele>663.0</ele><time>2026-04-29T12:45:44.928Z</time></trkpt><trkpt lat="37.4294802" lon="22.4096933"><ele>664.0</ele><time>2026-04-29T12:45:45.928Z</time></trkpt><trkpt lat="37.4292523" lon="22.4097354"><ele>665.0</ele><time>2026-04-29T12:45:46.928Z</time></trkpt><trkpt lat="37.429019" lon="22.4097816"><ele>665.6666666666666</ele><time>2026-04-29T12:45:47.927Z</time></trkpt><trkpt lat="37.4287959" lon="22.4098278"><ele>666.3333333333334</ele><time>2026-04-29T12:45:48.928Z</time></trkpt><trkpt lat="37.4285825" lon="22.409871"><ele>667.0</ele><time>2026-04-29T12:45:49.928Z</time></trkpt><trkpt lat="37.4283629" lon="22.409914"><ele>667.0</ele><time>2026-04-29T12:45:50.928Z</time></trkpt><trkpt lat="37.4281468" lon="22.4099556"><ele>667.0</ele><time>2026-04-29T12:45:51.927Z</time></trkpt><trkpt lat="37.4279289" lon="22.4099988"><ele>667.0</ele><time>2026-04-29T12:45:52.927Z</time></trkpt><trkpt lat="37.4277299" lon="22.4100408"><ele>666.3333333333334</ele><time>2026-04-29T12:45:53.927Z</time></trkpt><trkpt lat="37.4275293" lon="22.410083"><ele>665.6666666666666</ele><time>2026-04-29T12:45:54.928Z</time></trkpt><trkpt lat="37.4273249" lon="22.4101243"><ele>665.0</ele><time>2026-04-29T12:45:55.928Z</time></trkpt><trkpt lat="37.4271257" lon="22.4101634"><ele>665.0</ele><time>2026-04-29T12:45:56.928Z</time></trkpt><trkpt lat="37.4269305" lon="22.4102018"><ele>665.0</ele><time>2026-04-29T12:45:57.927Z</time></trkpt><trkpt lat="37.4267262" lon="22.4102427"><ele>665.0</ele><time>2026-04-29T12:45:58.927Z</time></trkpt><trkpt lat="37.4265185" lon="22.4102837"><ele>664.6666666666666</ele><time>2026-04-29T12:45:59.927Z</time></trkpt><trkpt lat="37.4262973" lon="22.4103284"><ele>664.3333333333334</ele><time>2026-04-29T12:46:00.927Z</time></trkpt><trkpt lat="37.4260825" lon="22.4103733"><ele>664.0</ele><time>2026-04-29T12:46:01.928Z</time></trkpt><trkpt lat="37.4258538" lon="22.4104222"><ele>664.0</ele><time>2026-04-29T12:46:02.928Z</time></trkpt><trkpt lat="37.4256116" lon="22.4104707"><ele>664.0</ele><time>2026-04-29T12:46:03.927Z</time></trkpt><trkpt lat="37.4253719" lon="22.4105141"><ele>667.5</ele><time>2026-04-29T12:46:04.927Z</time></trkpt><trkpt lat="37.4251333" lon="22.4105483"><ele>671.0</ele><time>2026-04-29T12:46:05.927Z</time></trkpt><trkpt lat="37.4248826" lon="22.4105634"><ele>670.5</ele><time>2026-04-29T12:46:06.927Z</time></trkpt><trkpt lat="37.4246308" lon="22.4105446"><ele>670.0</ele><time>2026-04-29T12:46:07.928Z</time></trkpt><trkpt lat="37.4243744" lon="22.4104858"><ele>670.0</ele><time>2026-04-29T12:46:08.927Z</time></trkpt><trkpt lat="37.4241369" lon="22.4104004"><ele>670.0</ele><time>2026-04-29T12:46:09.927Z</time></trkpt><trkpt lat="37.4238936" lon="22.4102944"><ele>673.0</ele><time>2026-04-29T12:46:10.927Z</time></trkpt><trkpt lat="37.4236403" lon="22.4101753"><ele>676.0</ele><time>2026-04-29T12:46:11.927Z</time></trkpt><trkpt lat="37.423392" lon="22.4100562"><ele>676.0</ele><time>2026-04-29T12:46:12.928Z</time></trkpt><trkpt lat="37.4231486" lon="22.4099417"><ele>676.0</ele><time>2026-04-29T12:46:13.927Z</time></trkpt><trkpt lat="37.4228939" lon="22.4098249"><ele>676.0</ele><time>2026-04-29T12:46:14.928Z</time></trkpt><trkpt lat="37.422636" lon="22.4097082"><ele>676.0</ele><time>2026-04-29T12:46:15.927Z</time></trkpt><trkpt lat="37.4223658" lon="22.409586"><ele>678.5</ele><time>2026-04-29T12:46:16.928Z</time></trkpt><trkpt lat="37.4221093" lon="22.4094667"><ele>681.0</ele><time>2026-04-29T12:46:17.928Z</time></trkpt><trkpt lat="37.4218431" lon="22.4093402"><ele>681.0</ele><time>2026-04-29T12:46:18.928Z</time></trkpt><trkpt lat="37.4215672" lon="22.4092083"><ele>681.0</ele><time>2026-04-29T12:46:19.928Z</time></trkpt><trkpt lat="37.4212995" lon="22.4090831"><ele>689.0</ele><time>2026-04-29T12:46:20.928Z</time></trkpt><trkpt lat="37.4210379" lon="22.4089665"><ele>697.0</ele><time>2026-04-29T12:46:21.928Z</time></trkpt><trkpt lat="37.4207618" lon="22.4088526"><ele>693.5</ele><time>2026-04-29T12:46:22.928Z</time></trkpt><trkpt lat="37.4204827" lon="22.4087476"><ele>690.0</ele><time>2026-04-29T12:46:23.927Z</time></trkpt><trkpt lat="37.4201952" lon="22.4086527"><ele>690.0</ele><time>2026-04-29T12:46:24.928Z</time></trkpt><trkpt lat="37.4199343" lon="22.408581"><ele>690.0</ele><time>2026-04-29T12:46:25.927Z</time></trkpt><trkpt lat="37.4196684" lon="22.4085249"><ele>693.5</ele><time>2026-04-29T12:46:26.927Z</time></trkpt><trkpt lat="37.419403" lon="22.4084828"><ele>697.0</ele><time>2026-04-29T12:46:27.927Z</time></trkpt><trkpt lat="37.4191586" lon="22.4084451"><ele>697.0</ele><time>2026-04-29T12:46:28.928Z</time></trkpt><trkpt lat="37.4189366" lon="22.4083919"><ele>697.0</ele><time>2026-04-29T12:46:29.927Z</time></trkpt><trkpt lat="37.4187223" lon="22.4083068"><ele>697.3333333333334</ele><time>2026-04-29T12:46:30.927Z</time></trkpt><trkpt lat="37.4185219" lon="22.4081951"><ele>697.6666666666666</ele><time>2026-04-29T12:46:31.927Z</time></trkpt><trkpt lat="37.4183341" lon="22.4080418"><ele>698.0</ele><time>2026-04-29T12:46:32.927Z</time></trkpt><trkpt lat="37.418166" lon="22.4078631"><ele>698.0</ele><time>2026-04-29T12:46:33.928Z</time></trkpt><trkpt lat="37.4179906" lon="22.4076517"><ele>698.0</ele><time>2026-04-29T12:46:34.928Z</time></trkpt><trkpt lat="37.4178021" lon="22.4074172"><ele>701.0</ele><time>2026-04-29T12:46:35.928Z</time></trkpt><trkpt lat="37.4176003" lon="22.4071871"><ele>704.0</ele><time>2026-04-29T12:46:36.928Z</time></trkpt><trkpt lat="37.4173847" lon="22.4069697"><ele>713.0</ele><time>2026-04-29T12:46:37.927Z</time></trkpt><trkpt lat="37.4171474" lon="22.4067571"><ele>722.0</ele><time>2026-04-29T12:46:38.928Z</time></trkpt><trkpt lat="37.4169137" lon="22.406562"><ele>722.0</ele><time>2026-04-29T12:46:39.927Z</time></trkpt><trkpt lat="37.4166835" lon="22.4063807"><ele>722.0</ele><time>2026-04-29T12:46:40.927Z</time></trkpt><trkpt lat="37.4164723" lon="22.4062184"><ele>721.0</ele><time>2026-04-29T12:46:41.928Z</time></trkpt><trkpt lat="37.4162574" lon="22.4060482"><ele>720.0</ele><time>2026-04-29T12:46:42.927Z</time></trkpt><trkpt lat="37.416037" lon="22.4058616"><ele>720.0</ele><time>2026-04-29T12:46:43.927Z</time></trkpt><trkpt lat="37.4158266" lon="22.405659"><ele>720.0</ele><time>2026-04-29T12:46:44.927Z</time></trkpt><trkpt lat="37.4156259" lon="22.4054426"><ele>724.0</ele><time>2026-04-29T12:46:45.927Z</time></trkpt><trkpt lat="37.4154215" lon="22.4052051"><ele>728.0</ele><time>2026-04-29T12:46:46.928Z</time></trkpt><trkpt lat="37.4152167" lon="22.4049675"><ele>728.0</ele><time>2026-04-29T12:46:47.927Z</time></trkpt><trkpt lat="37.4150105" lon="22.4047353"><ele>728.0</ele><time>2026-04-29T12:46:48.927Z</time></trkpt><trkpt lat="37.4148305" lon="22.4045354"><ele>726.0</ele><time>2026-04-29T12:46:49.927Z</time></trkpt><trkpt lat="37.4146588" lon="22.4043475"><ele>724.0</ele><time>2026-04-29T12:46:50.927Z</time></trkpt><trkpt lat="37.4144969" lon="22.4041715"><ele>722.0</ele><time>2026-04-29T12:46:51.928Z</time></trkpt><trkpt lat="37.4143385" lon="22.4040197"><ele>723.6666666666666</ele><time>2026-04-29T12:46:52.928Z</time></trkpt><trkpt lat="37.4141765" lon="22.4038985"><ele>725.3333333333334</ele><time>2026-04-29T12:46:53.927Z</time></trkpt><trkpt lat="37.4139951" lon="22.4038102"><ele>727.0</ele><time>2026-04-29T12:46:54.927Z</time></trkpt><trkpt lat="37.4137964" lon="22.4037596"><ele>729.3333333333334</ele><time>2026-04-29T12:46:55.928Z</time></trkpt><trkpt lat="37.4135792" lon="22.4037338"><ele>731.6666666666666</ele><time>2026-04-29T12:46:56.928Z</time></trkpt><trkpt lat="37.4133748" lon="22.4037139"><ele>734.0</ele><time>2026-04-29T12:46:57.927Z</time></trkpt><trkpt lat="37.413175" lon="22.4036872"><ele>736.0</ele><time>2026-04-29T12:46:58.928Z</time></trkpt><trkpt lat="37.412989" lon="22.4036389"><ele>738.0</ele><time>2026-04-29T12:46:59.928Z</time></trkpt><trkpt lat="37.4128316" lon="22.403555"><ele>740.0</ele><time>2026-04-29T12:47:00.928Z</time></trkpt><trkpt lat="37.4127018" lon="22.4034309"><ele>740.0</ele><time>2026-04-29T12:47:01.928Z</time></trkpt><trkpt lat="37.412593" lon="22.4032517"><ele>740.0</ele><time>2026-04-29T12:47:02.928Z</time></trkpt><trkpt lat="37.4124932" lon="22.4030338"><ele>740.0</ele><time>2026-04-29T12:47:03.927Z</time></trkpt><trkpt lat="37.4123865" lon="22.4027789"><ele>743.6666666666666</ele><time>2026-04-29T12:47:04.927Z</time></trkpt><trkpt lat="37.4122978" lon="22.4025371"><ele>747.3333333333334</ele><time>2026-04-29T12:47:05.927Z</time></trkpt><trkpt lat="37.4122076" lon="22.4022826"><ele>751.0</ele><time>2026-04-29T12:47:06.928Z</time></trkpt><trkpt lat="37.4121142" lon="22.4020147"><ele>755.0</ele><time>2026-04-29T12:47:07.927Z</time></trkpt><trkpt lat="37.4120221" lon="22.4017465"><ele>759.0</ele><time>2026-04-29T12:47:08.927Z</time></trkpt><trkpt lat="37.4119344" lon="22.4014861"><ele>759.5</ele><time>2026-04-29T12:47:09.927Z</time></trkpt><trkpt lat="37.4118458" lon="22.401221"><ele>760.0</ele><time>2026-04-29T12:47:10.927Z</time></trkpt><trkpt lat="37.4117604" lon="22.4009626"><ele>760.0</ele><time>2026-04-29T12:47:11.927Z</time></trkpt><trkpt lat="37.4116785" lon="22.4007125"><ele>760.0</ele><time>2026-04-29T12:47:12.928Z</time></trkpt><trkpt lat="37.4116078" lon="22.4004944"><ele>760.0</ele><time>2026-04-29T12:47:13.928Z</time></trkpt><trkpt lat="37.411539" lon="22.4002852"><ele>759.3333333333334</ele><time>2026-04-29T12:47:14.928Z</time></trkpt><trkpt lat="37.4114714" lon="22.4000866"><ele>758.6666666666666</ele><time>2026-04-29T12:47:15.927Z</time></trkpt><trkpt lat="37.4114085" lon="22.3999125"><ele>758.0</ele><time>2026-04-29T12:47:16.927Z</time></trkpt><trkpt lat="37.4113415" lon="22.3997746"><ele>758.25</ele><time>2026-04-29T12:47:17.928Z</time></trkpt><trkpt lat="37.4112574" lon="22.3996719"><ele>758.5</ele><time>2026-04-29T12:47:18.927Z</time></trkpt><trkpt lat="37.411144" lon="22.3996047"><ele>758.75</ele><time>2026-04-29T12:47:19.927Z</time></trkpt><trkpt lat="37.4110035" lon="22.3995728"><ele>759.0</ele><time>2026-04-29T12:47:20.928Z</time></trkpt><trkpt lat="37.4108525" lon="22.3995684"><ele>759.0</ele><time>2026-04-29T12:47:21.928Z</time></trkpt><trkpt lat="37.4106796" lon="22.3995712"><ele>759.0</ele><time>2026-04-29T12:47:22.928Z</time></trkpt><trkpt lat="37.4104986" lon="22.3995541"><ele>759.0</ele><time>2026-04-29T12:47:23.927Z</time></trkpt><trkpt lat="37.4103249" lon="22.3995073"><ele>762.0</ele><time>2026-04-29T12:47:24.928Z</time></trkpt><trkpt lat="37.4101585" lon="22.3994432"><ele>765.0</ele><time>2026-04-29T12:47:25.928Z</time></trkpt><trkpt lat="37.4099759" lon="22.3993966"><ele>768.0</ele><time>2026-04-29T12:47:26.927Z</time></trkpt><trkpt lat="37.4097885" lon="22.3993764"><ele>771.0</ele><time>2026-04-29T12:47:27.928Z</time></trkpt><trkpt lat="37.4095966" lon="22.3993639"><ele>774.0</ele><time>2026-04-29T12:47:28.927Z</time></trkpt><trkpt lat="37.4094134" lon="22.3993319"><ele>777.0</ele><time>2026-04-29T12:47:29.928Z</time></trkpt><trkpt lat="37.4092305" lon="22.3992631"><ele>777.0</ele><time>2026-04-29T12:47:30.928Z</time></trkpt><trkpt lat="37.4090519" lon="22.3991629"><ele>777.0</ele><time>2026-04-29T12:47:31.927Z</time></trkpt><trkpt lat="37.408878" lon="22.3990591"><ele>777.0</ele><time>2026-04-29T12:47:32.928Z</time></trkpt><trkpt lat="37.4087042" lon="22.3989712"><ele>776.6666666666667</ele><time>2026-04-29T12:47:33.927Z</time></trkpt><trkpt lat="37.4085204" lon="22.398895"><ele>776.3333333333334</ele><time>2026-04-29T12:47:34.927Z</time></trkpt><trkpt lat="37.4083323" lon="22.3988399"><ele>776.0</ele><time>2026-04-29T12:47:35.928Z</time></trkpt><trkpt lat="37.4081186" lon="22.3988134"><ele>778.5</ele><time>2026-04-29T12:47:36.928Z</time></trkpt><trkpt lat="37.4078971" lon="22.3988152"><ele>781.0</ele><time>2026-04-29T12:47:37.928Z</time></trkpt><trkpt lat="37.4076689" lon="22.3988331"><ele>786.0</ele><time>2026-04-29T12:47:38.928Z</time></trkpt><trkpt lat="37.4074208" lon="22.3988619"><ele>791.0</ele><time>2026-04-29T12:47:39.928Z</time></trkpt><trkpt lat="37.4071935" lon="22.398883"><ele>791.3333333333334</ele><time>2026-04-29T12:47:40.927Z</time></trkpt><trkpt lat="37.4069799" lon="22.3988997"><ele>791.6666666666667</ele><time>2026-04-29T12:47:41.928Z</time></trkpt><trkpt lat="37.4067732" lon="22.3989117"><ele>792.0</ele><time>2026-04-29T12:47:42.928Z</time></trkpt><trkpt lat="37.4065746" lon="22.3989229"><ele>792.0</ele><time>2026-04-29T12:47:43.928Z</time></trkpt><trkpt lat="37.406385" lon="22.3989384"><ele>792.0</ele><time>2026-04-29T12:47:44.927Z</time></trkpt><trkpt lat="37.4062196" lon="22.3989561"><ele>792.0</ele><time>2026-04-29T12:47:45.928Z</time></trkpt><trkpt lat="37.4060592" lon="22.3989786"><ele>792.6666666666667</ele><time>2026-04-29T12:47:46.928Z</time></trkpt><trkpt lat="37.4058984" lon="22.3990086"><ele>793.3333333333334</ele><time>2026-04-29T12:47:47.928Z</time></trkpt><trkpt lat="37.4057422" lon="22.3990525"><ele>794.0</ele><time>2026-04-29T12:47:48.928Z</time></trkpt><trkpt lat="37.4055931" lon="22.399118"><ele>791.6666666666667</ele><time>2026-04-29T12:47:49.928Z</time></trkpt><trkpt lat="37.4054462" lon="22.3992097"><ele>789.3333333333333</ele><time>2026-04-29T12:47:50.927Z</time></trkpt><trkpt lat="37.4053109" lon="22.3993258"><ele>787.0</ele><time>2026-04-29T12:47:51.928Z</time></trkpt><trkpt lat="37.4051826" lon="22.3994765"><ele>787.0</ele><time>2026-04-29T12:47:52.928Z</time></trkpt><trkpt lat="37.4050682" lon="22.3996542"><ele>787.0</ele><time>2026-04-29T12:47:53.927Z</time></trkpt><trkpt lat="37.4049552" lon="22.3998623"><ele>787.0</ele><time>2026-04-29T12:47:54.927Z</time></trkpt><trkpt lat="37.4048446" lon="22.4000911"><ele>790.3333333333333</ele><time>2026-04-29T12:47:55.928Z</time></trkpt><trkpt lat="37.4047299" lon="22.400322"><ele>793.6666666666667</ele><time>2026-04-29T12:47:56.927Z</time></trkpt><trkpt lat="37.4045966" lon="22.4005537"><ele>797.0</ele><time>2026-04-29T12:47:57.927Z</time></trkpt><trkpt lat="37.4044314" lon="22.4008093"><ele>797.5</ele><time>2026-04-29T12:47:58.928Z</time></trkpt><trkpt lat="37.404243" lon="22.4010818"><ele>798.0</ele><time>2026-04-29T12:47:59.927Z</time></trkpt><trkpt lat="37.4040355" lon="22.4013747"><ele>796.5</ele><time>2026-04-29T12:48:00.928Z</time></trkpt><trkpt lat="37.4038468" lon="22.4016388"><ele>795.0</ele><time>2026-04-29T12:48:01.928Z</time></trkpt><trkpt lat="37.4036598" lon="22.4019021"><ele>795.0</ele><time>2026-04-29T12:48:02.928Z</time></trkpt><trkpt lat="37.4034652" lon="22.4021585"><ele>795.0</ele><time>2026-04-29T12:48:03.928Z</time></trkpt><trkpt lat="37.4032698" lon="22.4023894"><ele>799.5</ele><time>2026-04-29T12:48:04.927Z</time></trkpt><trkpt lat="37.4030746" lon="22.4025995"><ele>804.0</ele><time>2026-04-29T12:48:05.928Z</time></trkpt><trkpt lat="37.4028688" lon="22.4028"><ele>804.0</ele><time>2026-04-29T12:48:06.928Z</time></trkpt><trkpt lat="37.4026542" lon="22.4029855"><ele>804.0</ele><time>2026-04-29T12:48:07.927Z</time></trkpt><trkpt lat="37.4024188" lon="22.4031574"><ele>809.0</ele><time>2026-04-29T12:48:08.928Z</time></trkpt><trkpt lat="37.4021864" lon="22.403302"><ele>814.0</ele><time>2026-04-29T12:48:09.927Z</time></trkpt><trkpt lat="37.4019395" lon="22.4034344"><ele>817.0</ele><time>2026-04-29T12:48:10.927Z</time></trkpt><trkpt lat="37.4016796" lon="22.4035568"><ele>820.0</ele><time>2026-04-29T12:48:11.928Z</time></trkpt><trkpt lat="37.4014276" lon="22.4036558"><ele>820.5</ele><time>2026-04-29T12:48:12.927Z</time></trkpt><trkpt lat="37.4011846" lon="22.4037319"><ele>821.0</ele><time>2026-04-29T12:48:13.928Z</time></trkpt><trkpt lat="37.4009344" lon="22.4037934"><ele>825.0</ele><time>2026-04-29T12:48:14.927Z</time></trkpt><trkpt lat="37.4006829" lon="22.4038406"><ele>829.0</ele><time>2026-04-29T12:48:15.927Z</time></trkpt><trkpt lat="37.400429" lon="22.4038664"><ele>829.0</ele><time>2026-04-29T12:48:16.928Z</time></trkpt><trkpt lat="37.4001816" lon="22.4038756"><ele>829.0</ele><time>2026-04-29T12:48:17.927Z</time></trkpt><trkpt lat="37.3999335" lon="22.4038677"><ele>829.0</ele><time>2026-04-29T12:48:18.927Z</time></trkpt><trkpt lat="37.3996818" lon="22.4038381"><ele>829.0</ele><time>2026-04-29T12:48:19.927Z</time></trkpt><trkpt lat="37.39945" lon="22.4037969"><ele>831.5</ele><time>2026-04-29T12:48:20.928Z</time></trkpt><trkpt lat="37.3992115" lon="22.4037358"><ele>834.0</ele><time>2026-04-29T12:48:21.927Z</time></trkpt><trkpt lat="37.3989724" lon="22.4036573"><ele>836.5</ele><time>2026-04-29T12:48:22.927Z</time></trkpt><trkpt lat="37.3987274" lon="22.4035616"><ele>839.0</ele><time>2026-04-29T12:48:23.928Z</time></trkpt><trkpt lat="37.3984762" lon="22.4034504"><ele>839.0</ele><time>2026-04-29T12:48:24.928Z</time></trkpt><trkpt lat="37.3982464" lon="22.4033404"><ele>839.0</ele><time>2026-04-29T12:48:25.927Z</time></trkpt><trkpt lat="37.3980139" lon="22.4032228"><ele>840.0</ele><time>2026-04-29T12:48:26.928Z</time></trkpt><trkpt lat="37.3977823" lon="22.4030969"><ele>841.0</ele><time>2026-04-29T12:48:27.928Z</time></trkpt><trkpt lat="37.3975644" lon="22.4029689"><ele>841.0</ele><time>2026-04-29T12:48:28.928Z</time></trkpt><trkpt lat="37.3973595" lon="22.4028335"><ele>841.0</ele><time>2026-04-29T12:48:29.928Z</time></trkpt><trkpt lat="37.3971593" lon="22.4026755"><ele>843.5</ele><time>2026-04-29T12:48:30.928Z</time></trkpt><trkpt lat="37.3969665" lon="22.4024922"><ele>846.0</ele><time>2026-04-29T12:48:31.928Z</time></trkpt><trkpt lat="37.3967751" lon="22.4022785"><ele>841.0</ele><time>2026-04-29T12:48:32.928Z</time></trkpt><trkpt lat="37.3965964" lon="22.4020661"><ele>836.0</ele><time>2026-04-29T12:48:33.928Z</time></trkpt><trkpt lat="37.3964078" lon="22.4018457"><ele>841.0</ele><time>2026-04-29T12:48:34.928Z</time></trkpt><trkpt lat="37.3962096" lon="22.4016212"><ele>846.0</ele><time>2026-04-29T12:48:35.928Z</time></trkpt><trkpt lat="37.3960156" lon="22.4014082"><ele>841.0</ele><time>2026-04-29T12:48:36.928Z</time></trkpt><trkpt lat="37.3958277" lon="22.4012087"><ele>836.0</ele><time>2026-04-29T12:48:37.927Z</time></trkpt><trkpt lat="37.395637" lon="22.4010105"><ele>842.0</ele><time>2026-04-29T12:48:38.927Z</time></trkpt><trkpt lat="37.3954485" lon="22.4008272"><ele>848.0</ele><time>2026-04-29T12:48:39.927Z</time></trkpt><trkpt lat="37.3952507" lon="22.4006582"><ele>848.0</ele><time>2026-04-29T12:48:40.928Z</time></trkpt><trkpt lat="37.3950539" lon="22.4005266"><ele>848.0</ele><time>2026-04-29T12:48:41.927Z</time></trkpt><trkpt lat="37.3948358" lon="22.4004156"><ele>848.0</ele><time>2026-04-29T12:48:42.928Z</time></trkpt><trkpt lat="37.3945957" lon="22.4003193"><ele>848.0</ele><time>2026-04-29T12:48:43.928Z</time></trkpt><trkpt lat="37.3943538" lon="22.4002287"><ele>848.0</ele><time>2026-04-29T12:48:44.927Z</time></trkpt><trkpt lat="37.3941179" lon="22.4001389"><ele>848.0</ele><time>2026-04-29T12:48:45.928Z</time></trkpt><trkpt lat="37.393877" lon="22.4000462"><ele>849.5</ele><time>2026-04-29T12:48:46.927Z</time></trkpt><trkpt lat="37.3936471" lon="22.3999575"><ele>851.0</ele><time>2026-04-29T12:48:47.927Z</time></trkpt><trkpt lat="37.3934243" lon="22.3998701"><ele>851.0</ele><time>2026-04-29T12:48:48.927Z</time></trkpt><trkpt lat="37.3932243" lon="22.3997921"><ele>851.0</ele><time>2026-04-29T12:48:49.928Z</time></trkpt><trkpt lat="37.3930196" lon="22.3997261"><ele>851.0</ele><time>2026-04-29T12:48:50.928Z</time></trkpt><trkpt lat="37.3928011" lon="22.399691"><ele>852.6666666666667</ele><time>2026-04-29T12:48:51.928Z</time></trkpt><trkpt lat="37.392581" lon="22.3997022"><ele>854.3333333333333</ele><time>2026-04-29T12:48:52.928Z</time></trkpt><trkpt lat="37.392364" lon="22.3997548"><ele>856.0</ele><time>2026-04-29T12:48:53.927Z</time></trkpt><trkpt lat="37.3921348" lon="22.3998315"><ele>856.0</ele><time>2026-04-29T12:48:54.927Z</time></trkpt><trkpt lat="37.3919044" lon="22.3999183"><ele>856.0</ele><time>2026-04-29T12:48:55.928Z</time></trkpt><trkpt lat="37.3916697" lon="22.4000068"><ele>856.0</ele><time>2026-04-29T12:48:56.928Z</time></trkpt><trkpt lat="37.391453" lon="22.400085"><ele>856.0</ele><time>2026-04-29T12:48:57.928Z</time></trkpt><trkpt lat="37.391234" lon="22.4001544"><ele>858.0</ele><time>2026-04-29T12:48:58.928Z</time></trkpt><trkpt lat="37.3910033" lon="22.4002069"><ele>860.0</ele><time>2026-04-29T12:48:59.928Z</time></trkpt><trkpt lat="37.3907721" lon="22.4002365"><ele>860.0</ele><time>2026-04-29T12:49:00.928Z</time></trkpt><trkpt lat="37.3905398" lon="22.4002421"><ele>860.0</ele><time>2026-04-29T12:49:01.927Z</time></trkpt><trkpt lat="37.3902947" lon="22.4002283"><ele>861.5</ele><time>2026-04-29T12:49:02.927Z</time></trkpt><trkpt lat="37.3900489" lon="22.4002059"><ele>863.0</ele><time>2026-04-29T12:49:03.927Z</time></trkpt><trkpt lat="37.3897987" lon="22.4001823"><ele>867.5</ele><time>2026-04-29T12:49:04.928Z</time></trkpt><trkpt lat="37.3895688" lon="22.4001566"><ele>872.0</ele><time>2026-04-29T12:49:05.927Z</time></trkpt><trkpt lat="37.3893378" lon="22.4001204"><ele>872.0</ele><time>2026-04-29T12:49:06.927Z</time></trkpt><trkpt lat="37.389107" lon="22.4000601"><ele>872.0</ele><time>2026-04-29T12:49:07.928Z</time></trkpt><trkpt lat="37.3888905" lon="22.3999712"><ele>873.6666666666667</ele><time>2026-04-29T12:49:08.928Z</time></trkpt><trkpt lat="37.3886869" lon="22.3998637"><ele>875.3333333333333</ele><time>2026-04-29T12:49:09.927Z</time></trkpt><trkpt lat="37.3884798" lon="22.3997473"><ele>877.0</ele><time>2026-04-29T12:49:10.928Z</time></trkpt><trkpt lat="37.3882767" lon="22.3996392"><ele>877.3333333333333</ele><time>2026-04-29T12:49:11.928Z</time></trkpt><trkpt lat="37.3880688" lon="22.3995475"><ele>877.6666666666667</ele><time>2026-04-29T12:49:12.928Z</time></trkpt><trkpt lat="37.3878709" lon="22.3994914"><ele>878.0</ele><time>2026-04-29T12:49:13.928Z</time></trkpt><trkpt lat="37.3876564" lon="22.3994657"><ele>878.0</ele><time>2026-04-29T12:49:14.927Z</time></trkpt><trkpt lat="37.3874233" lon="22.3994678"><ele>878.0</ele><time>2026-04-29T12:49:15.928Z</time></trkpt><trkpt lat="37.3871885" lon="22.3994842"><ele>880.0</ele><time>2026-04-29T12:49:16.927Z</time></trkpt><trkpt lat="37.386956" lon="22.3995091"><ele>882.0</ele><time>2026-04-29T12:49:17.928Z</time></trkpt><trkpt lat="37.3867123" lon="22.3995417"><ele>882.0</ele><time>2026-04-29T12:49:18.927Z</time></trkpt><trkpt lat="37.3864712" lon="22.3995815"><ele>882.0</ele><time>2026-04-29T12:49:19.928Z</time></trkpt><trkpt lat="37.3862315" lon="22.3996317"><ele>878.0</ele><time>2026-04-29T12:49:20.928Z</time></trkpt><trkpt lat="37.3860167" lon="22.3996916"><ele>874.0</ele><time>2026-04-29T12:49:21.927Z</time></trkpt><trkpt lat="37.385806" lon="22.3997751"><ele>870.0</ele><time>2026-04-29T12:49:22.927Z</time></trkpt><trkpt lat="37.3856046" lon="22.3998915"><ele>873.3333333333333</ele><time>2026-04-29T12:49:23.927Z</time></trkpt><trkpt lat="37.3854257" lon="22.40004"><ele>876.6666666666666</ele><time>2026-04-29T12:49:24.928Z</time></trkpt><trkpt lat="37.3852688" lon="22.400216"><ele>880.0</ele><time>2026-04-29T12:49:25.927Z</time></trkpt><trkpt lat="37.3851179" lon="22.4004315"><ele>875.0</ele><time>2026-04-29T12:49:26.927Z</time></trkpt><trkpt lat="37.3849775" lon="22.4006697"><ele>870.0</ele><time>2026-04-29T12:49:27.928Z</time></trkpt><trkpt lat="37.3848458" lon="22.4009107"><ele>870.0</ele><time>2026-04-29T12:49:28.927Z</time></trkpt><trkpt lat="37.3847253" lon="22.4011304"><ele>870.0</ele><time>2026-04-29T12:49:29.928Z</time></trkpt><trkpt lat="37.3846044" lon="22.4013349"><ele>870.0</ele><time>2026-04-29T12:49:30.928Z</time></trkpt><trkpt lat="37.3844748" lon="22.4015202"><ele>871.0</ele><time>2026-04-29T12:49:31.927Z</time></trkpt><trkpt lat="37.3843387" lon="22.401662"><ele>872.0</ele><time>2026-04-29T12:49:32.927Z</time></trkpt><trkpt lat="37.3841768" lon="22.4017671"><ele>873.0</ele><time>2026-04-29T12:49:33.928Z</time></trkpt><trkpt lat="37.3839937" lon="22.4018329"><ele>875.0</ele><time>2026-04-29T12:49:34.927Z</time></trkpt><trkpt lat="37.3837894" lon="22.4018753"><ele>877.0</ele><time>2026-04-29T12:49:35.928Z</time></trkpt><trkpt lat="37.3835795" lon="22.4019225"><ele>879.0</ele><time>2026-04-29T12:49:36.927Z</time></trkpt><trkpt lat="37.3833695" lon="22.4019863"><ele>879.0</ele><time>2026-04-29T12:49:37.927Z</time></trkpt><trkpt lat="37.3831649" lon="22.4020781"><ele>879.0</ele><time>2026-04-29T12:49:38.928Z</time></trkpt><trkpt lat="37.3829594" lon="22.4021994"><ele>879.0</ele><time>2026-04-29T12:49:39.928Z</time></trkpt><trkpt lat="37.3827732" lon="22.4023325"><ele>876.6666666666667</ele><time>2026-04-29T12:49:40.928Z</time></trkpt><trkpt lat="37.3825877" lon="22.402481"><ele>874.3333333333334</ele><time>2026-04-29T12:49:41.928Z</time></trkpt><trkpt lat="37.3824069" lon="22.4026302"><ele>872.0</ele><time>2026-04-29T12:49:42.927Z</time></trkpt><trkpt lat="37.38223" lon="22.4027696"><ele>874.3333333333334</ele><time>2026-04-29T12:49:43.927Z</time></trkpt><trkpt lat="37.3820496" lon="22.4028952"><ele>876.6666666666667</ele><time>2026-04-29T12:49:44.928Z</time></trkpt><trkpt lat="37.3818621" lon="22.4030005"><ele>879.0</ele><time>2026-04-29T12:49:45.928Z</time></trkpt><trkpt lat="37.3816681" lon="22.4030705"><ele>873.3333333333333</ele><time>2026-04-29T12:49:46.927Z</time></trkpt><trkpt lat="37.3814621" lon="22.4030958"><ele>867.6666666666666</ele><time>2026-04-29T12:49:47.927Z</time></trkpt><trkpt lat="37.381261" lon="22.4030714"><ele>862.0</ele><time>2026-04-29T12:49:48.928Z</time></trkpt><trkpt lat="37.381048" lon="22.4030161"><ele>862.6666666666666</ele><time>2026-04-29T12:49:49.928Z</time></trkpt><trkpt lat="37.3808393" lon="22.4029495"><ele>863.3333333333333</ele><time>2026-04-29T12:49:50.927Z</time></trkpt><trkpt lat="37.3806411" lon="22.4028835"><ele>864.0</ele><time>2026-04-29T12:49:51.927Z</time></trkpt><trkpt lat="37.3804524" lon="22.4028197"><ele>864.0</ele><time>2026-04-29T12:49:52.928Z</time></trkpt><trkpt lat="37.3802676" lon="22.4027498"><ele>864.0</ele><time>2026-04-29T12:49:53.927Z</time></trkpt><trkpt lat="37.3800853" lon="22.4026619"><ele>864.0</ele><time>2026-04-29T12:49:54.927Z</time></trkpt><trkpt lat="37.3799003" lon="22.4025483"><ele>864.0</ele><time>2026-04-29T12:49:55.927Z</time></trkpt><trkpt lat="37.3797263" lon="22.4024148"><ele>864.0</ele><time>2026-04-29T12:49:56.928Z</time></trkpt><trkpt lat="37.3795385" lon="22.4022533"><ele>864.0</ele><time>2026-04-29T12:49:57.927Z</time></trkpt><trkpt lat="37.3793373" lon="22.4020716"><ele>864.0</ele><time>2026-04-29T12:49:58.927Z</time></trkpt><trkpt lat="37.3791278" lon="22.4018829"><ele>864.0</ele><time>2026-04-29T12:49:59.927Z</time></trkpt><trkpt lat="37.3789162" lon="22.4016915"><ele>862.0</ele><time>2026-04-29T12:50:00.927Z</time></trkpt><trkpt lat="37.3787037" lon="22.4015017"><ele>860.0</ele><time>2026-04-29T12:50:01.928Z</time></trkpt><trkpt lat="37.3784913" lon="22.4013112"><ele>860.0</ele><time>2026-04-29T12:50:02.928Z</time></trkpt><trkpt lat="37.3782753" lon="22.4011152"><ele>860.0</ele><time>2026-04-29T12:50:03.927Z</time></trkpt><trkpt lat="37.3780766" lon="22.4009344"><ele>860.0</ele><time>2026-04-29T12:50:04.928Z</time></trkpt><trkpt lat="37.3778744" lon="22.4007489"><ele>860.0</ele><time>2026-04-29T12:50:05.928Z</time></trkpt><trkpt lat="37.3776752" lon="22.4005657"><ele>858.0</ele><time>2026-04-29T12:50:06.927Z</time></trkpt><trkpt lat="37.3774769" lon="22.4003843"><ele>856.0</ele><time>2026-04-29T12:50:07.928Z</time></trkpt><trkpt lat="37.377278" lon="22.4002019"><ele>859.5</ele><time>2026-04-29T12:50:08.927Z</time></trkpt><trkpt lat="37.3770761" lon="22.4000177"><ele>863.0</ele><time>2026-04-29T12:50:09.927Z</time></trkpt><trkpt lat="37.3768697" lon="22.399828"><ele>863.5</ele><time>2026-04-29T12:50:10.928Z</time></trkpt><trkpt lat="37.3766517" lon="22.3996261"><ele>864.0</ele><time>2026-04-29T12:50:11.927Z</time></trkpt><trkpt lat="37.3764455" lon="22.3994343"><ele>867.0</ele><time>2026-04-29T12:50:12.927Z</time></trkpt><trkpt lat="37.3762326" lon="22.399237"><ele>870.0</ele><time>2026-04-29T12:50:13.928Z</time></trkpt><trkpt lat="37.3760223" lon="22.3990432"><ele>870.0</ele><time>2026-04-29T12:50:14.928Z</time></trkpt><trkpt lat="37.3758164" lon="22.3988567"><ele>870.0</ele><time>2026-04-29T12:50:15.928Z</time></trkpt><trkpt lat="37.3756218" lon="22.3986821"><ele>876.0</ele><time>2026-04-29T12:50:16.927Z</time></trkpt><trkpt lat="37.3754336" lon="22.3985143"><ele>882.0</ele><time>2026-04-29T12:50:17.928Z</time></trkpt><trkpt lat="37.3752348" lon="22.3983548"><ele>882.0</ele><time>2026-04-29T12:50:18.927Z</time></trkpt><trkpt lat="37.3750173" lon="22.3982033"><ele>882.0</ele><time>2026-04-29T12:50:19.927Z</time></trkpt><trkpt lat="37.3748006" lon="22.3980781"><ele>878.0</ele><time>2026-04-29T12:50:20.927Z</time></trkpt><trkpt lat="37.374567" lon="22.39796"><ele>874.0</ele><time>2026-04-29T12:50:21.928Z</time></trkpt><trkpt lat="37.3743405" lon="22.397857"><ele>874.0</ele><time>2026-04-29T12:50:22.927Z</time></trkpt><trkpt lat="37.3741269" lon="22.397762"><ele>874.0</ele><time>2026-04-29T12:50:23.928Z</time></trkpt><trkpt lat="37.3739257" lon="22.3976753"><ele>874.0</ele><time>2026-04-29T12:50:24.928Z</time></trkpt><trkpt lat="37.3737314" lon="22.3976019"><ele>876.6666666666666</ele><time>2026-04-29T12:50:25.928Z</time></trkpt><trkpt lat="37.3735342" lon="22.3975503"><ele>879.3333333333333</ele><time>2026-04-29T12:50:26.928Z</time></trkpt><trkpt lat="37.37331" lon="22.3975319"><ele>882.0</ele><time>2026-04-29T12:50:27.927Z</time></trkpt><trkpt lat="37.3730816" lon="22.3975419"><ele>883.0</ele><time>2026-04-29T12:50:28.928Z</time></trkpt><trkpt lat="37.3728243" lon="22.3975699"><ele>884.0</ele><time>2026-04-29T12:50:29.927Z</time></trkpt><trkpt lat="37.3725643" lon="22.3976042"><ele>884.0</ele><time>2026-04-29T12:50:30.928Z</time></trkpt><trkpt lat="37.3723069" lon="22.3976454"><ele>884.0</ele><time>2026-04-29T12:50:31.928Z</time></trkpt><trkpt lat="37.3720612" lon="22.3976865"><ele>883.5</ele><time>2026-04-29T12:50:32.928Z</time></trkpt><trkpt lat="37.3718197" lon="22.3977309"><ele>883.0</ele><time>2026-04-29T12:50:33.928Z</time></trkpt><trkpt lat="37.3715758" lon="22.3977838"><ele>885.0</ele><time>2026-04-29T12:50:34.928Z</time></trkpt><trkpt lat="37.3713196" lon="22.3978568"><ele>887.0</ele><time>2026-04-29T12:50:35.928Z</time></trkpt><trkpt lat="37.3710788" lon="22.3979447"><ele>891.5</ele><time>2026-04-29T12:50:36.927Z</time></trkpt><trkpt lat="37.3708335" lon="22.3980456"><ele>896.0</ele><time>2026-04-29T12:50:37.927Z</time></trkpt><trkpt lat="37.370593" lon="22.3981491"><ele>897.0</ele><time>2026-04-29T12:50:38.928Z</time></trkpt><trkpt lat="37.370359" lon="22.3982511"><ele>898.0</ele><time>2026-04-29T12:50:39.928Z</time></trkpt><trkpt lat="37.3701378" lon="22.3983476"><ele>898.0</ele><time>2026-04-29T12:50:40.928Z</time></trkpt><trkpt lat="37.3699312" lon="22.3984383"><ele>898.0</ele><time>2026-04-29T12:50:41.928Z</time></trkpt><trkpt lat="37.3697349" lon="22.3985353"><ele>898.0</ele><time>2026-04-29T12:50:42.927Z</time></trkpt><trkpt lat="37.3695484" lon="22.3986568"><ele>898.3333333333333</ele><time>2026-04-29T12:50:43.928Z</time></trkpt><trkpt lat="37.3693879" lon="22.3988068"><ele>898.6666666666667</ele><time>2026-04-29T12:50:44.928Z</time></trkpt><trkpt lat="37.3692362" lon="22.3989964"><ele>899.0</ele><time>2026-04-29T12:50:45.928Z</time></trkpt><trkpt lat="37.3690961" lon="22.3991992"><ele>900.6666666666667</ele><time>2026-04-29T12:50:46.927Z</time></trkpt><trkpt lat="37.3689588" lon="22.3993996"><ele>902.3333333333333</ele><time>2026-04-29T12:50:47.927Z</time></trkpt><trkpt lat="37.3688133" lon="22.3995907"><ele>904.0</ele><time>2026-04-29T12:50:48.928Z</time></trkpt><trkpt lat="37.3686504" lon="22.3997674"><ele>904.0</ele><time>2026-04-29T12:50:49.928Z</time></trkpt><trkpt lat="37.3684703" lon="22.39993"><ele>904.0</ele><time>2026-04-29T12:50:50.928Z</time></trkpt><trkpt lat="37.3682721" lon="22.4000802"><ele>904.0</ele><time>2026-04-29T12:50:51.928Z</time></trkpt><trkpt lat="37.3680823" lon="22.4002083"><ele>904.0</ele><time>2026-04-29T12:50:52.927Z</time></trkpt><trkpt lat="37.3678832" lon="22.4003328"><ele>904.0</ele><time>2026-04-29T12:50:53.928Z</time></trkpt><trkpt lat="37.3676836" lon="22.4004534"><ele>904.3333333333333</ele><time>2026-04-29T12:50:54.927Z</time></trkpt><trkpt lat="37.3674861" lon="22.4005717"><ele>904.6666666666667</ele><time>2026-04-29T12:50:55.928Z</time></trkpt><trkpt lat="37.3672923" lon="22.4006872"><ele>905.0</ele><time>2026-04-29T12:50:56.927Z</time></trkpt><trkpt lat="37.3671036" lon="22.4008019"><ele>905.6666666666667</ele><time>2026-04-29T12:50:57.927Z</time></trkpt><trkpt lat="37.366918" lon="22.4009165"><ele>906.3333333333333</ele><time>2026-04-29T12:50:58.927Z</time></trkpt><trkpt lat="37.3667263" lon="22.4010374"><ele>907.0</ele><time>2026-04-29T12:50:59.927Z</time></trkpt><trkpt lat="37.3665453" lon="22.4011525"><ele>907.0</ele><time>2026-04-29T12:51:00.928Z</time></trkpt><trkpt lat="37.366357" lon="22.4012696"><ele>907.0</ele><time>2026-04-29T12:51:01.928Z</time></trkpt><trkpt lat="37.3661639" lon="22.4013869"><ele>907.0</ele><time>2026-04-29T12:51:02.927Z</time></trkpt><trkpt lat="37.3659649" lon="22.4015043"><ele>907.0</ele><time>2026-04-29T12:51:03.928Z</time></trkpt><trkpt lat="37.3657628" lon="22.4016212"><ele>907.0</ele><time>2026-04-29T12:51:04.928Z</time></trkpt><trkpt lat="37.3655582" lon="22.4017356"><ele>907.0</ele><time>2026-04-29T12:51:05.928Z</time></trkpt><trkpt lat="37.3653495" lon="22.401845"><ele>908.5</ele><time>2026-04-29T12:51:06.927Z</time></trkpt><trkpt lat="37.3651318" lon="22.4019534"><ele>910.0</ele><time>2026-04-29T12:51:07.928Z</time></trkpt><trkpt lat="37.3649276" lon="22.4020509"><ele>910.0</ele><time>2026-04-29T12:51:08.928Z</time></trkpt><trkpt lat="37.3647188" lon="22.4021466"><ele>910.0</ele><time>2026-04-29T12:51:09.928Z</time></trkpt><trkpt lat="37.3645123" lon="22.4022377"><ele>910.0</ele><time>2026-04-29T12:51:10.928Z</time></trkpt><trkpt lat="37.3643071" lon="22.4023274"><ele>910.3333333333333</ele><time>2026-04-29T12:51:11.927Z</time></trkpt><trkpt lat="37.3641021" lon="22.40242"><ele>910.6666666666667</ele><time>2026-04-29T12:51:12.927Z</time></trkpt><trkpt lat="37.3639006" lon="22.4025168"><ele>911.0</ele><time>2026-04-29T12:51:13.928Z</time></trkpt><trkpt lat="37.3637028" lon="22.40263"><ele>911.0</ele><time>2026-04-29T12:51:14.927Z</time></trkpt><trkpt lat="37.363507" lon="22.4027761"><ele>911.0</ele><time>2026-04-29T12:51:15.928Z</time></trkpt><trkpt lat="37.3633275" lon="22.4029398"><ele>911.0</ele><time>2026-04-29T12:51:16.927Z</time></trkpt><trkpt lat="37.3631449" lon="22.4031236"><ele>911.5</ele><time>2026-04-29T12:51:17.928Z</time></trkpt><trkpt lat="37.3629664" lon="22.4033097"><ele>912.0</ele><time>2026-04-29T12:51:18.927Z</time></trkpt><trkpt lat="37.3627915" lon="22.4034978"><ele>912.0</ele><time>2026-04-29T12:51:19.928Z</time></trkpt><trkpt lat="37.3626177" lon="22.4036861"><ele>912.0</ele><time>2026-04-29T12:51:20.927Z</time></trkpt><trkpt lat="37.3624408" lon="22.4038715"><ele>910.5</ele><time>2026-04-29T12:51:21.928Z</time></trkpt><trkpt lat="37.3622627" lon="22.4040479"><ele>909.0</ele><time>2026-04-29T12:51:22.928Z</time></trkpt><trkpt lat="37.3620759" lon="22.404217"><ele>909.0</ele><time>2026-04-29T12:51:23.928Z</time></trkpt><trkpt lat="37.3618935" lon="22.4043578"><ele>909.0</ele><time>2026-04-29T12:51:24.928Z</time></trkpt><trkpt lat="37.3616946" lon="22.4044775"><ele>909.0</ele><time>2026-04-29T12:51:25.927Z</time></trkpt><trkpt lat="37.3614853" lon="22.4045771"><ele>907.5</ele><time>2026-04-29T12:51:26.927Z</time></trkpt><trkpt lat="37.3612701" lon="22.4046651"><ele>906.0</ele><time>2026-04-29T12:51:27.928Z</time></trkpt><trkpt lat="37.3610531" lon="22.4047517"><ele>906.0</ele><time>2026-04-29T12:51:28.927Z</time></trkpt><trkpt lat="37.3608356" lon="22.4048462"><ele>906.0</ele><time>2026-04-29T12:51:29.927Z</time></trkpt><trkpt lat="37.3606198" lon="22.40496"><ele>909.0</ele><time>2026-04-29T12:51:30.928Z</time></trkpt><trkpt lat="37.3604052" lon="22.4051054"><ele>912.0</ele><time>2026-04-29T12:51:31.928Z</time></trkpt><trkpt lat="37.3602102" lon="22.4052636"><ele>912.0</ele><time>2026-04-29T12:51:32.928Z</time></trkpt><trkpt lat="37.3600124" lon="22.4054374"><ele>912.0</ele><time>2026-04-29T12:51:33.927Z</time></trkpt><trkpt lat="37.3598164" lon="22.4056152"><ele>911.5</ele><time>2026-04-29T12:51:34.928Z</time></trkpt><trkpt lat="37.3596224" lon="22.4057937"><ele>911.0</ele><time>2026-04-29T12:51:35.927Z</time></trkpt><trkpt lat="37.3594305" lon="22.4059702"><ele>911.0</ele><time>2026-04-29T12:51:36.928Z</time></trkpt><trkpt lat="37.35924" lon="22.4061447"><ele>911.0</ele><time>2026-04-29T12:51:37.928Z</time></trkpt><trkpt lat="37.3590483" lon="22.4063194"><ele>905.5</ele><time>2026-04-29T12:51:38.928Z</time></trkpt><trkpt lat="37.3588476" lon="22.4065005"><ele>900.0</ele><time>2026-04-29T12:51:39.927Z</time></trkpt><trkpt lat="37.3586573" lon="22.4066718"><ele>900.0</ele><time>2026-04-29T12:51:40.928Z</time></trkpt><trkpt lat="37.3584639" lon="22.4068455"><ele>900.0</ele><time>2026-04-29T12:51:41.927Z</time></trkpt><trkpt lat="37.3582747" lon="22.4070189"><ele>899.0</ele><time>2026-04-29T12:51:42.928Z</time></trkpt><trkpt lat="37.3580903" lon="22.4071925"><ele>898.0</ele><time>2026-04-29T12:51:43.928Z</time></trkpt><trkpt lat="37.3579093" lon="22.4073678"><ele>900.0</ele><time>2026-04-29T12:51:44.927Z</time></trkpt><trkpt lat="37.3577321" lon="22.4075457"><ele>902.0</ele><time>2026-04-29T12:51:45.927Z</time></trkpt><trkpt lat="37.3575577" lon="22.4077309"><ele>902.0</ele><time>2026-04-29T12:51:46.927Z</time></trkpt><trkpt lat="37.3573808" lon="22.4079308"><ele>902.0</ele><time>2026-04-29T12:51:47.927Z</time></trkpt><trkpt lat="37.3572191" lon="22.4081285"><ele>899.0</ele><time>2026-04-29T12:51:48.927Z</time></trkpt><trkpt lat="37.357057" lon="22.408342"><ele>896.0</ele><time>2026-04-29T12:51:49.928Z</time></trkpt><trkpt lat="37.3569003" lon="22.4085605"><ele>896.0</ele><time>2026-04-29T12:51:50.928Z</time></trkpt><trkpt lat="37.3567447" lon="22.4087794"><ele>896.0</ele><time>2026-04-29T12:51:51.927Z</time></trkpt><trkpt lat="37.3565895" lon="22.4089974"><ele>896.0</ele><time>2026-04-29T12:51:52.928Z</time></trkpt><trkpt lat="37.3564364" lon="22.4092172"><ele>896.0</ele><time>2026-04-29T12:51:53.927Z</time></trkpt><trkpt lat="37.3562857" lon="22.4094363"><ele>893.0</ele><time>2026-04-29T12:51:54.928Z</time></trkpt><trkpt lat="37.3561301" lon="22.4096609"><ele>890.0</ele><time>2026-04-29T12:51:55.927Z</time></trkpt><trkpt lat="37.3559848" lon="22.4098681"><ele>890.0</ele><time>2026-04-29T12:51:56.928Z</time></trkpt><trkpt lat="37.3558354" lon="22.410077"><ele>890.0</ele><time>2026-04-29T12:51:57.927Z</time></trkpt><trkpt lat="37.3556895" lon="22.4102775"><ele>890.0</ele><time>2026-04-29T12:51:58.927Z</time></trkpt><trkpt lat="37.3555495" lon="22.4104711"><ele>888.3333333333334</ele><time>2026-04-29T12:51:59.928Z</time></trkpt><trkpt lat="37.3554118" lon="22.4106656"><ele>886.6666666666667</ele><time>2026-04-29T12:52:00.928Z</time></trkpt><trkpt lat="37.3552759" lon="22.4108638"><ele>885.0</ele><time>2026-04-29T12:52:01.927Z</time></trkpt><trkpt lat="37.3551455" lon="22.4110706"><ele>885.0</ele><time>2026-04-29T12:52:02.927Z</time></trkpt><trkpt lat="37.3550249" lon="22.4113002"><ele>885.0</ele><time>2026-04-29T12:52:03.928Z</time></trkpt><trkpt lat="37.3549264" lon="22.4115353"><ele>885.0</ele><time>2026-04-29T12:52:04.927Z</time></trkpt><trkpt lat="37.3548312" lon="22.4117882"><ele>885.6666666666667</ele><time>2026-04-29T12:52:05.928Z</time></trkpt><trkpt lat="37.3547411" lon="22.4120487"><ele>886.3333333333334</ele><time>2026-04-29T12:52:06.928Z</time></trkpt><trkpt lat="37.3546541" lon="22.4123038"><ele>887.0</ele><time>2026-04-29T12:52:07.927Z</time></trkpt><trkpt lat="37.3545679" lon="22.4125518"><ele>888.0</ele><time>2026-04-29T12:52:08.928Z</time></trkpt><trkpt lat="37.3544782" lon="22.4127881"><ele>889.0</ele><time>2026-04-29T12:52:09.928Z</time></trkpt><trkpt lat="37.3543811" lon="22.4130109"><ele>890.0</ele><time>2026-04-29T12:52:10.928Z</time></trkpt><trkpt lat="37.3542681" lon="22.4132214"><ele>888.0</ele><time>2026-04-29T12:52:11.928Z</time></trkpt><trkpt lat="37.3541441" lon="22.4133956"><ele>886.0</ele><time>2026-04-29T12:52:12.927Z</time></trkpt><trkpt lat="37.3539968" lon="22.4135419"><ele>884.0</ele><time>2026-04-29T12:52:13.927Z</time></trkpt><trkpt lat="37.3538311" lon="22.4136462"><ele>882.6666666666667</ele><time>2026-04-29T12:52:14.928Z</time></trkpt><trkpt lat="37.3536472" lon="22.4137023"><ele>881.3333333333333</ele><time>2026-04-29T12:52:15.927Z</time></trkpt><trkpt lat="37.3534555" lon="22.4137158"><ele>880.0</ele><time>2026-04-29T12:52:16.927Z</time></trkpt><trkpt lat="37.3532551" lon="22.4136877"><ele>880.0</ele><time>2026-04-29T12:52:17.927Z</time></trkpt><trkpt lat="37.3530567" lon="22.413611"><ele>880.0</ele><time>2026-04-29T12:52:18.928Z</time></trkpt><trkpt lat="37.3528669" lon="22.413481"><ele>880.0</ele><time>2026-04-29T12:52:19.928Z</time></trkpt><trkpt lat="37.3527157" lon="22.4133157"><ele>876.6666666666666</ele><time>2026-04-29T12:52:20.927Z</time></trkpt><trkpt lat="37.3525883" lon="22.413118"><ele>873.3333333333333</ele><time>2026-04-29T12:52:21.928Z</time></trkpt><trkpt lat="37.3524949" lon="22.412899"><ele>870.0</ele><time>2026-04-29T12:52:22.927Z</time></trkpt><trkpt lat="37.3524407" lon="22.4126697"><ele>870.0</ele><time>2026-04-29T12:52:23.927Z</time></trkpt><trkpt lat="37.3524176" lon="22.412437"><ele>870.0</ele><time>2026-04-29T12:52:24.928Z</time></trkpt><trkpt lat="37.3524258" lon="22.412195"><ele>870.0</ele><time>2026-04-29T12:52:25.927Z</time></trkpt><trkpt lat="37.3524632" lon="22.4119453"><ele>868.6666666666667</ele><time>2026-04-29T12:52:26.927Z</time></trkpt><trkpt lat="37.3525295" lon="22.4116872"><ele>867.3333333333334</ele><time>2026-04-29T12:52:27.927Z</time></trkpt><trkpt lat="37.352601" lon="22.4114548"><ele>866.0</ele><time>2026-04-29T12:52:28.927Z</time></trkpt><trkpt lat="37.3526649" lon="22.4112294"><ele>864.0</ele><time>2026-04-29T12:52:29.927Z</time></trkpt><trkpt lat="37.3526997" lon="22.4110111"><ele>862.0</ele><time>2026-04-29T12:52:30.927Z</time></trkpt><trkpt lat="37.3526942" lon="22.4108001"><ele>860.0</ele><time>2026-04-29T12:52:31.927Z</time></trkpt><trkpt lat="37.3526477" lon="22.4106172"><ele>860.75</ele><time>2026-04-29T12:52:32.928Z</time></trkpt><trkpt lat="37.3525634" lon="22.4104722"><ele>861.5</ele><time>2026-04-29T12:52:33.928Z</time></trkpt><trkpt lat="37.352448" lon="22.4103632"><ele>862.25</ele><time>2026-04-29T12:52:34.927Z</time></trkpt><trkpt lat="37.3523057" lon="22.4102901"><ele>863.0</ele><time>2026-04-29T12:52:35.928Z</time></trkpt><trkpt lat="37.3521511" lon="22.4102631"><ele>860.0</ele><time>2026-04-29T12:52:36.927Z</time></trkpt><trkpt lat="37.3519725" lon="22.4102736"><ele>857.0</ele><time>2026-04-29T12:52:37.928Z</time></trkpt><trkpt lat="37.3517793" lon="22.4103116"><ele>854.0</ele><time>2026-04-29T12:52:38.927Z</time></trkpt><trkpt lat="37.3515806" lon="22.4103586"><ele>855.3333333333334</ele><time>2026-04-29T12:52:39.927Z</time></trkpt><trkpt lat="37.3513652" lon="22.4104137"><ele>856.6666666666667</ele><time>2026-04-29T12:52:40.927Z</time></trkpt><trkpt lat="37.3511665" lon="22.4104687"><ele>858.0</ele><time>2026-04-29T12:52:41.927Z</time></trkpt><trkpt lat="37.3509791" lon="22.4105226"><ele>858.6666666666667</ele><time>2026-04-29T12:52:42.928Z</time></trkpt><trkpt lat="37.350781" lon="22.4105975"><ele>859.3333333333334</ele><time>2026-04-29T12:52:43.928Z</time></trkpt><trkpt lat="37.3505853" lon="22.4107093"><ele>860.0</ele><time>2026-04-29T12:52:44.927Z</time></trkpt><trkpt lat="37.3503945" lon="22.4108524"><ele>860.0</ele><time>2026-04-29T12:52:45.927Z</time></trkpt><trkpt lat="37.3501988" lon="22.4110219"><ele>860.0</ele><time>2026-04-29T12:52:46.927Z</time></trkpt><trkpt lat="37.3500075" lon="22.4111953"><ele>859.5</ele><time>2026-04-29T12:52:47.928Z</time></trkpt><trkpt lat="37.3498077" lon="22.4113811"><ele>859.0</ele><time>2026-04-29T12:52:48.927Z</time></trkpt><trkpt lat="37.3496186" lon="22.4115552"><ele>859.0</ele><time>2026-04-29T12:52:49.927Z</time></trkpt><trkpt lat="37.3494356" lon="22.4117234"><ele>859.0</ele><time>2026-04-29T12:52:50.927Z</time></trkpt><trkpt lat="37.3492537" lon="22.4118889"><ele>859.0</ele><time>2026-04-29T12:52:51.927Z</time></trkpt><trkpt lat="37.3490857" lon="22.4120356"><ele>859.0</ele><time>2026-04-29T12:52:52.928Z</time></trkpt><trkpt lat="37.3489068" lon="22.4121739"><ele>859.0</ele><time>2026-04-29T12:52:53.928Z</time></trkpt><trkpt lat="37.3487133" lon="22.4122905"><ele>855.5</ele><time>2026-04-29T12:52:54.927Z</time></trkpt><trkpt lat="37.3485008" lon="22.412377"><ele>852.0</ele><time>2026-04-29T12:52:55.928Z</time></trkpt><trkpt lat="37.3482751" lon="22.4124341"><ele>852.0</ele><time>2026-04-29T12:52:56.927Z</time></trkpt><trkpt lat="37.3480501" lon="22.4124794"><ele>852.0</ele><time>2026-04-29T12:52:57.927Z</time></trkpt><trkpt lat="37.347834" lon="22.412534"><ele>852.0</ele><time>2026-04-29T12:52:58.928Z</time></trkpt><trkpt lat="37.3476312" lon="22.4126234"><ele>853.0</ele><time>2026-04-29T12:52:59.928Z</time></trkpt><trkpt lat="37.3474648" lon="22.4127451"><ele>854.0</ele><time>2026-04-29T12:53:00.928Z</time></trkpt><trkpt lat="37.3473147" lon="22.4129134"><ele>855.0</ele><time>2026-04-29T12:53:01.927Z</time></trkpt><trkpt lat="37.3471786" lon="22.413113"><ele>857.3333333333333</ele><time>2026-04-29T12:53:02.927Z</time></trkpt><trkpt lat="37.3470471" lon="22.4133286"><ele>859.6666666666666</ele><time>2026-04-29T12:53:03.927Z</time></trkpt><trkpt lat="37.3469139" lon="22.413552"><ele>862.0</ele><time>2026-04-29T12:53:04.927Z</time></trkpt><trkpt lat="37.3467787" lon="22.4137782"><ele>860.5</ele><time>2026-04-29T12:53:05.928Z</time></trkpt><trkpt lat="37.3466433" lon="22.4140058"><ele>859.0</ele><time>2026-04-29T12:53:06.928Z</time></trkpt><trkpt lat="37.3465056" lon="22.4142362"><ele>859.0</ele><time>2026-04-29T12:53:07.927Z</time></trkpt><trkpt lat="37.3463813" lon="22.4144455"><ele>859.0</ele><time>2026-04-29T12:53:08.928Z</time></trkpt><trkpt lat="37.3462601" lon="22.4146487"><ele>859.0</ele><time>2026-04-29T12:53:09.927Z</time></trkpt><trkpt lat="37.3461395" lon="22.4148386"><ele>860.6666666666666</ele><time>2026-04-29T12:53:10.928Z</time></trkpt><trkpt lat="37.3460155" lon="22.4149902"><ele>862.3333333333333</ele><time>2026-04-29T12:53:11.927Z</time></trkpt><trkpt lat="37.3458673" lon="22.4151058"><ele>864.0</ele><time>2026-04-29T12:53:12.927Z</time></trkpt><trkpt lat="37.345713" lon="22.415162"><ele>864.0</ele><time>2026-04-29T12:53:13.927Z</time></trkpt><trkpt lat="37.3455577" lon="22.415157"><ele>864.0</ele><time>2026-04-29T12:53:14.927Z</time></trkpt><trkpt lat="37.3452116" lon="22.4150251"><ele>865.0</ele><time>2026-04-29T12:53:16.928Z</time></trkpt><trkpt lat="37.3449857" lon="22.4148302"><ele>866.0</ele><time>2026-04-29T12:53:17.927Z</time></trkpt><trkpt lat="37.3447868" lon="22.4146861"><ele>870.5</ele><time>2026-04-29T12:53:18.928Z</time></trkpt><trkpt lat="37.3445941" lon="22.4145531"><ele>875.0</ele><time>2026-04-29T12:53:19.927Z</time></trkpt><trkpt lat="37.3443909" lon="22.4144156"><ele>875.0</ele><time>2026-04-29T12:53:20.927Z</time></trkpt><trkpt lat="37.3442016" lon="22.4142854"><ele>875.0</ele><time>2026-04-29T12:53:21.927Z</time></trkpt><trkpt lat="37.3440156" lon="22.4141551"><ele>875.0</ele><time>2026-04-29T12:53:22.928Z</time></trkpt><trkpt lat="37.3438274" lon="22.4140278"><ele>874.3333333333334</ele><time>2026-04-29T12:53:23.927Z</time></trkpt><trkpt lat="37.3436562" lon="22.4139249"><ele>873.6666666666667</ele><time>2026-04-29T12:53:24.927Z</time></trkpt><trkpt lat="37.3434803" lon="22.4138467"><ele>873.0</ele><time>2026-04-29T12:53:25.928Z</time></trkpt><trkpt lat="37.3433051" lon="22.413801"><ele>875.0</ele><time>2026-04-29T12:53:26.928Z</time></trkpt><trkpt lat="37.343122" lon="22.4138013"><ele>877.0</ele><time>2026-04-29T12:53:27.927Z</time></trkpt><trkpt lat="37.3429326" lon="22.4138445"><ele>879.0</ele><time>2026-04-29T12:53:28.928Z</time></trkpt><trkpt lat="37.3427387" lon="22.4139214"><ele>879.0</ele><time>2026-04-29T12:53:29.927Z</time></trkpt><trkpt lat="37.342545" lon="22.4140175"><ele>879.0</ele><time>2026-04-29T12:53:30.928Z</time></trkpt><trkpt lat="37.342347" lon="22.4141154"><ele>879.0</ele><time>2026-04-29T12:53:31.927Z</time></trkpt><trkpt lat="37.3421494" lon="22.4142007"><ele>879.3333333333333</ele><time>2026-04-29T12:53:32.927Z</time></trkpt><trkpt lat="37.3419518" lon="22.4142726"><ele>879.6666666666666</ele><time>2026-04-29T12:53:33.927Z</time></trkpt><trkpt lat="37.3417535" lon="22.4143352"><ele>880.0</ele><time>2026-04-29T12:53:34.927Z</time></trkpt><trkpt lat="37.3415552" lon="22.4143843"><ele>879.3333333333333</ele><time>2026-04-29T12:53:35.928Z</time></trkpt><trkpt lat="37.3413319" lon="22.4144187"><ele>878.6666666666667</ele><time>2026-04-29T12:53:36.927Z</time></trkpt><trkpt lat="37.3411135" lon="22.4144285"><ele>878.0</ele><time>2026-04-29T12:53:37.928Z</time></trkpt><trkpt lat="37.3409089" lon="22.4144239"><ele>878.0</ele><time>2026-04-29T12:53:38.928Z</time></trkpt><trkpt lat="37.3407079" lon="22.4144231"><ele>878.0</ele><time>2026-04-29T12:53:39.928Z</time></trkpt><trkpt lat="37.3405283" lon="22.4144558"><ele>878.0</ele><time>2026-04-29T12:53:40.928Z</time></trkpt><trkpt lat="37.3403623" lon="22.4145433"><ele>873.3333333333334</ele><time>2026-04-29T12:53:41.927Z</time></trkpt><trkpt lat="37.3402098" lon="22.4146763"><ele>868.6666666666667</ele><time>2026-04-29T12:53:42.927Z</time></trkpt><trkpt lat="37.3400673" lon="22.4148235"><ele>864.0</ele><time>2026-04-29T12:53:43.928Z</time></trkpt><trkpt lat="37.339918" lon="22.4149715"><ele>864.0</ele><time>2026-04-29T12:53:44.928Z</time></trkpt><trkpt lat="37.3397606" lon="22.4150869"><ele>864.0</ele><time>2026-04-29T12:53:45.928Z</time></trkpt><trkpt lat="37.3395895" lon="22.4151604"><ele>864.0</ele><time>2026-04-29T12:53:46.928Z</time></trkpt><trkpt lat="37.339178" lon="22.4152021"><ele>864.3333333333333</ele><time>2026-04-29T12:53:48.927Z</time></trkpt><trkpt lat="37.3389615" lon="22.4151712"><ele>864.6666666666666</ele><time>2026-04-29T12:53:49.928Z</time></trkpt><trkpt lat="37.3387552" lon="22.4151274"><ele>865.0</ele><time>2026-04-29T12:53:50.928Z</time></trkpt><trkpt lat="37.3385623" lon="22.4150881"><ele>865.3333333333333</ele><time>2026-04-29T12:53:51.928Z</time></trkpt><trkpt lat="37.3383572" lon="22.4150747"><ele>865.6666666666667</ele><time>2026-04-29T12:53:52.927Z</time></trkpt><trkpt lat="37.3381593" lon="22.415103"><ele>866.0</ele><time>2026-04-29T12:53:53.927Z</time></trkpt><trkpt lat="37.337973" lon="22.4151754"><ele>867.0</ele><time>2026-04-29T12:53:54.928Z</time></trkpt><trkpt lat="37.3377879" lon="22.4152971"><ele>868.0</ele><time>2026-04-29T12:53:55.927Z</time></trkpt><trkpt lat="37.3376256" lon="22.4154504"><ele>869.0</ele><time>2026-04-29T12:53:56.927Z</time></trkpt><trkpt lat="37.3374777" lon="22.4156277"><ele>869.3333333333334</ele><time>2026-04-29T12:53:57.928Z</time></trkpt><trkpt lat="37.3373399" lon="22.4158197"><ele>869.6666666666667</ele><time>2026-04-29T12:53:58.927Z</time></trkpt><trkpt lat="37.3372145" lon="22.4160128"><ele>870.0</ele><time>2026-04-29T12:53:59.928Z</time></trkpt><trkpt lat="37.3370842" lon="22.4162182"><ele>870.3333333333333</ele><time>2026-04-29T12:54:00.928Z</time></trkpt><trkpt lat="37.3369599" lon="22.4164081"><ele>870.6666666666666</ele><time>2026-04-29T12:54:01.928Z</time></trkpt><trkpt lat="37.3368422" lon="22.4165851"><ele>871.0</ele><time>2026-04-29T12:54:02.928Z</time></trkpt><trkpt lat="37.3367208" lon="22.416772"><ele>871.0</ele><time>2026-04-29T12:54:03.927Z</time></trkpt><trkpt lat="37.3366091" lon="22.4169451"><ele>871.0</ele><time>2026-04-29T12:54:04.927Z</time></trkpt><trkpt lat="37.3364981" lon="22.4171118"><ele>871.0</ele><time>2026-04-29T12:54:05.927Z</time></trkpt><trkpt lat="37.3363845" lon="22.4172725"><ele>871.3333333333333</ele><time>2026-04-29T12:54:06.927Z</time></trkpt><trkpt lat="37.3362697" lon="22.4174239"><ele>871.6666666666667</ele><time>2026-04-29T12:54:07.927Z</time></trkpt><trkpt lat="37.3361386" lon="22.4175747"><ele>872.0</ele><time>2026-04-29T12:54:08.928Z</time></trkpt><trkpt lat="37.3360003" lon="22.4177031"><ele>872.0</ele><time>2026-04-29T12:54:09.927Z</time></trkpt><trkpt lat="37.3358551" lon="22.4178115"><ele>872.0</ele><time>2026-04-29T12:54:10.927Z</time></trkpt><trkpt lat="37.3356889" lon="22.4179075"><ele>872.0</ele><time>2026-04-29T12:54:11.928Z</time></trkpt><trkpt lat="37.3355184" lon="22.4179815"><ele>869.6666666666667</ele><time>2026-04-29T12:54:12.928Z</time></trkpt><trkpt lat="37.335342" lon="22.4180382"><ele>867.3333333333333</ele><time>2026-04-29T12:54:13.928Z</time></trkpt><trkpt lat="37.3351629" lon="22.4180742"><ele>865.0</ele><time>2026-04-29T12:54:14.928Z</time></trkpt><trkpt lat="37.3349867" lon="22.4180867"><ele>865.0</ele><time>2026-04-29T12:54:15.927Z</time></trkpt><trkpt lat="37.3347985" lon="22.4180785"><ele>865.0</ele><time>2026-04-29T12:54:16.928Z</time></trkpt><trkpt lat="37.3346164" lon="22.418052"><ele>865.0</ele><time>2026-04-29T12:54:17.928Z</time></trkpt><trkpt lat="37.3344463" lon="22.4180168"><ele>865.3333333333333</ele><time>2026-04-29T12:54:18.928Z</time></trkpt><trkpt lat="37.3342651" lon="22.4179741"><ele>865.6666666666667</ele><time>2026-04-29T12:54:19.928Z</time></trkpt><trkpt lat="37.3340903" lon="22.4179331"><ele>866.0</ele><time>2026-04-29T12:54:20.927Z</time></trkpt><trkpt lat="37.3339132" lon="22.4178942"><ele>861.6666666666667</ele><time>2026-04-29T12:54:21.928Z</time></trkpt><trkpt lat="37.3337345" lon="22.4178665"><ele>857.3333333333333</ele><time>2026-04-29T12:54:22.927Z</time></trkpt><trkpt lat="37.3335621" lon="22.4178588"><ele>853.0</ele><time>2026-04-29T12:54:23.928Z</time></trkpt><trkpt lat="37.3333814" lon="22.4178793"><ele>853.0</ele><time>2026-04-29T12:54:24.928Z</time></trkpt><trkpt lat="37.333213" lon="22.4179291"><ele>853.0</ele><time>2026-04-29T12:54:25.928Z</time></trkpt><trkpt lat="37.333058" lon="22.4180081"><ele>853.0</ele><time>2026-04-29T12:54:26.927Z</time></trkpt><trkpt lat="37.3329029" lon="22.4181287"><ele>855.3333333333333</ele><time>2026-04-29T12:54:27.927Z</time></trkpt><trkpt lat="37.3327573" lon="22.4182873"><ele>857.6666666666667</ele><time>2026-04-29T12:54:28.928Z</time></trkpt><trkpt lat="37.3326095" lon="22.4184899"><ele>860.0</ele><time>2026-04-29T12:54:29.928Z</time></trkpt><trkpt lat="37.3324546" lon="22.4187276"><ele>858.5</ele><time>2026-04-29T12:54:30.928Z</time></trkpt><trkpt lat="37.3323018" lon="22.4189662"><ele>857.0</ele><time>2026-04-29T12:54:31.927Z</time></trkpt><trkpt lat="37.3321471" lon="22.4192115"><ele>862.0</ele><time>2026-04-29T12:54:32.927Z</time></trkpt><trkpt lat="37.332007" lon="22.4194313"><ele>867.0</ele><time>2026-04-29T12:54:33.928Z</time></trkpt><trkpt lat="37.3318755" lon="22.4196236"><ele>872.0</ele><time>2026-04-29T12:54:34.927Z</time></trkpt><trkpt lat="37.3317303" lon="22.4198162"><ele>872.0</ele><time>2026-04-29T12:54:35.927Z</time></trkpt><trkpt lat="37.3315849" lon="22.4199836"><ele>872.0</ele><time>2026-04-29T12:54:36.928Z</time></trkpt><trkpt lat="37.3314234" lon="22.4201418"><ele>872.0</ele><time>2026-04-29T12:54:37.928Z</time></trkpt><trkpt lat="37.3312405" lon="22.4203104"><ele>873.5</ele><time>2026-04-29T12:54:38.928Z</time></trkpt><trkpt lat="37.3310443" lon="22.4204829"><ele>875.0</ele><time>2026-04-29T12:54:39.927Z</time></trkpt><trkpt lat="37.3308326" lon="22.4206606"><ele>875.0</ele><time>2026-04-29T12:54:40.928Z</time></trkpt><trkpt lat="37.3306333" lon="22.4208249"><ele>875.0</ele><time>2026-04-29T12:54:41.928Z</time></trkpt><trkpt lat="37.3304455" lon="22.4209856"><ele>873.0</ele><time>2026-04-29T12:54:42.928Z</time></trkpt><trkpt lat="37.3302562" lon="22.421165"><ele>871.0</ele><time>2026-04-29T12:54:43.928Z</time></trkpt><trkpt lat="37.3300878" lon="22.4213403"><ele>871.0</ele><time>2026-04-29T12:54:44.928Z</time></trkpt><trkpt lat="37.3299293" lon="22.421511"><ele>871.0</ele><time>2026-04-29T12:54:45.928Z</time></trkpt><trkpt lat="37.3297737" lon="22.4216757"><ele>871.0</ele><time>2026-04-29T12:54:46.927Z</time></trkpt><trkpt lat="37.3296256" lon="22.4218325"><ele>873.0</ele><time>2026-04-29T12:54:47.927Z</time></trkpt><trkpt lat="37.3294703" lon="22.4220011"><ele>875.0</ele><time>2026-04-29T12:54:48.927Z</time></trkpt><trkpt lat="37.329323" lon="22.4221691"><ele>877.0</ele><time>2026-04-29T12:54:49.928Z</time></trkpt><trkpt lat="37.3291793" lon="22.4223352"><ele>877.0</ele><time>2026-04-29T12:54:50.928Z</time></trkpt><trkpt lat="37.3290212" lon="22.4225109"><ele>877.0</ele><time>2026-04-29T12:54:51.928Z</time></trkpt><trkpt lat="37.3288621" lon="22.4226767"><ele>877.0</ele><time>2026-04-29T12:54:52.927Z</time></trkpt><trkpt lat="37.328697" lon="22.4228407"><ele>878.0</ele><time>2026-04-29T12:54:53.927Z</time></trkpt><trkpt lat="37.3285292" lon="22.4230036"><ele>879.0</ele><time>2026-04-29T12:54:54.928Z</time></trkpt><trkpt lat="37.3283648" lon="22.4231594"><ele>880.0</ele><time>2026-04-29T12:54:55.928Z</time></trkpt><trkpt lat="37.3281896" lon="22.4233205"><ele>885.3333333333333</ele><time>2026-04-29T12:54:56.927Z</time></trkpt><trkpt lat="37.3280208" lon="22.4234718"><ele>890.6666666666667</ele><time>2026-04-29T12:54:57.927Z</time></trkpt><trkpt lat="37.3278579" lon="22.4236187"><ele>896.0</ele><time>2026-04-29T12:54:58.927Z</time></trkpt><trkpt lat="37.3276927" lon="22.4237814"><ele>891.3333333333334</ele><time>2026-04-29T12:54:59.927Z</time></trkpt><trkpt lat="37.327549" lon="22.4239449"><ele>886.6666666666667</ele><time>2026-04-29T12:55:00.928Z</time></trkpt><trkpt lat="37.3274236" lon="22.4241112"><ele>882.0</ele><time>2026-04-29T12:55:01.928Z</time></trkpt><trkpt lat="37.3273096" lon="22.4242786"><ele>882.6666666666667</ele><time>2026-04-29T12:55:02.928Z</time></trkpt><trkpt lat="37.3272037" lon="22.424441"><ele>883.3333333333334</ele><time>2026-04-29T12:55:03.928Z</time></trkpt><trkpt lat="37.3270911" lon="22.4246145"><ele>884.0</ele><time>2026-04-29T12:55:04.927Z</time></trkpt><trkpt lat="37.326985" lon="22.4247859"><ele>884.0</ele><time>2026-04-29T12:55:05.928Z</time></trkpt><trkpt lat="37.3268867" lon="22.4249542"><ele>884.0</ele><time>2026-04-29T12:55:06.927Z</time></trkpt><trkpt lat="37.326786" lon="22.4251314"><ele>884.0</ele><time>2026-04-29T12:55:07.928Z</time></trkpt><trkpt lat="37.3266896" lon="22.4252984"><ele>884.0</ele><time>2026-04-29T12:55:08.927Z</time></trkpt><trkpt lat="37.3265947" lon="22.4254643"><ele>884.0</ele><time>2026-04-29T12:55:09.928Z</time></trkpt><trkpt lat="37.3264997" lon="22.4256347"><ele>884.0</ele><time>2026-04-29T12:55:10.928Z</time></trkpt><trkpt lat="37.3264065" lon="22.4258009"><ele>885.6666666666667</ele><time>2026-04-29T12:55:11.928Z</time></trkpt><trkpt lat="37.3263006" lon="22.425975"><ele>887.3333333333333</ele><time>2026-04-29T12:55:12.927Z</time></trkpt><trkpt lat="37.3261897" lon="22.426134"><ele>889.0</ele><time>2026-04-29T12:55:13.927Z</time></trkpt><trkpt lat="37.3260722" lon="22.4262784"><ele>887.6666666666666</ele><time>2026-04-29T12:55:14.928Z</time></trkpt><trkpt lat="37.325938" lon="22.4264186"><ele>886.3333333333333</ele><time>2026-04-29T12:55:15.927Z</time></trkpt><trkpt lat="37.3258008" lon="22.42654"><ele>885.0</ele><time>2026-04-29T12:55:16.928Z</time></trkpt><trkpt lat="37.3256519" lon="22.4266411"><ele>886.0</ele><time>2026-04-29T12:55:17.927Z</time></trkpt><trkpt lat="37.3254824" lon="22.4267167"><ele>887.0</ele><time>2026-04-29T12:55:18.928Z</time></trkpt><trkpt lat="37.3252934" lon="22.4267639"><ele>888.0</ele><time>2026-04-29T12:55:19.928Z</time></trkpt><trkpt lat="37.3250649" lon="22.4267923"><ele>888.0</ele><time>2026-04-29T12:55:20.927Z</time></trkpt><trkpt lat="37.3248254" lon="22.4268025"><ele>888.0</ele><time>2026-04-29T12:55:21.928Z</time></trkpt><trkpt lat="37.3245878" lon="22.4268089"><ele>887.5</ele><time>2026-04-29T12:55:22.928Z</time></trkpt><trkpt lat="37.3243391" lon="22.4268198"><ele>887.0</ele><time>2026-04-29T12:55:23.928Z</time></trkpt><trkpt lat="37.3241103" lon="22.4268264"><ele>888.6666666666667</ele><time>2026-04-29T12:55:24.927Z</time></trkpt><trkpt lat="37.3238951" lon="22.426831"><ele>890.3333333333333</ele><time>2026-04-29T12:55:25.927Z</time></trkpt><trkpt lat="37.3236909" lon="22.4268356"><ele>892.0</ele><time>2026-04-29T12:55:26.927Z</time></trkpt><trkpt lat="37.3235017" lon="22.4268394"><ele>892.0</ele><time>2026-04-29T12:55:27.927Z</time></trkpt><trkpt lat="37.3233059" lon="22.4268425"><ele>892.0</ele><time>2026-04-29T12:55:28.927Z</time></trkpt><trkpt lat="37.3231256" lon="22.4268425"><ele>892.0</ele><time>2026-04-29T12:55:29.928Z</time></trkpt><trkpt lat="37.3229542" lon="22.4268382"><ele>892.3333333333333</ele><time>2026-04-29T12:55:30.928Z</time></trkpt><trkpt lat="37.3227765" lon="22.4268123"><ele>892.6666666666667</ele><time>2026-04-29T12:55:31.927Z</time></trkpt><trkpt lat="37.3226083" lon="22.4267572"><ele>893.0</ele><time>2026-04-29T12:55:32.927Z</time></trkpt><trkpt lat="37.3224363" lon="22.4266659"><ele>893.0</ele><time>2026-04-29T12:55:33.927Z</time></trkpt><trkpt lat="37.3222447" lon="22.4265369"><ele>893.0</ele><time>2026-04-29T12:55:34.928Z</time></trkpt><trkpt lat="37.3220355" lon="22.4263826"><ele>894.5</ele><time>2026-04-29T12:55:35.927Z</time></trkpt><trkpt lat="37.3218029" lon="22.4262063"><ele>896.0</ele><time>2026-04-29T12:55:36.927Z</time></trkpt><trkpt lat="37.3215557" lon="22.4260063"><ele>891.0</ele><time>2026-04-29T12:55:37.928Z</time></trkpt><trkpt lat="37.321295" lon="22.4257916"><ele>886.0</ele><time>2026-04-29T12:55:38.928Z</time></trkpt><trkpt lat="37.3210202" lon="22.4255733"><ele>888.0</ele><time>2026-04-29T12:55:39.927Z</time></trkpt><trkpt lat="37.3207784" lon="22.4253795"><ele>890.0</ele><time>2026-04-29T12:55:40.927Z</time></trkpt><trkpt lat="37.3205405" lon="22.4251876"><ele>890.0</ele><time>2026-04-29T12:55:41.927Z</time></trkpt><trkpt lat="37.3203062" lon="22.4249988"><ele>890.0</ele><time>2026-04-29T12:55:42.927Z</time></trkpt><trkpt lat="37.3200749" lon="22.4248113"><ele>889.0</ele><time>2026-04-29T12:55:43.928Z</time></trkpt><trkpt lat="37.3198484" lon="22.4246281"><ele>888.0</ele><time>2026-04-29T12:55:44.927Z</time></trkpt><trkpt lat="37.3196319" lon="22.4244527"><ele>888.0</ele><time>2026-04-29T12:55:45.928Z</time></trkpt><trkpt lat="37.3194226" lon="22.4242862"><ele>888.0</ele><time>2026-04-29T12:55:46.927Z</time></trkpt><trkpt lat="37.3192165" lon="22.4241227"><ele>888.0</ele><time>2026-04-29T12:55:47.928Z</time></trkpt><trkpt lat="37.3190321" lon="22.4239855"><ele>888.0</ele><time>2026-04-29T12:55:48.928Z</time></trkpt><trkpt lat="37.3188421" lon="22.423868"><ele>888.0</ele><time>2026-04-29T12:55:49.927Z</time></trkpt><trkpt lat="37.3186366" lon="22.4237845"><ele>885.5</ele><time>2026-04-29T12:55:50.928Z</time></trkpt><trkpt lat="37.3184097" lon="22.4237338"><ele>883.0</ele><time>2026-04-29T12:55:51.927Z</time></trkpt><trkpt lat="37.318164" lon="22.4237073"><ele>881.0</ele><time>2026-04-29T12:55:52.927Z</time></trkpt><trkpt lat="37.3179" lon="22.4236947"><ele>879.0</ele><time>2026-04-29T12:55:53.928Z</time></trkpt><trkpt lat="37.317624" lon="22.4236888"><ele>879.0</ele><time>2026-04-29T12:55:54.927Z</time></trkpt><trkpt lat="37.317334" lon="22.4236824"><ele>879.0</ele><time>2026-04-29T12:55:55.927Z</time></trkpt><trkpt lat="37.3170616" lon="22.4236729"><ele>878.0</ele><time>2026-04-29T12:55:56.928Z</time></trkpt><trkpt lat="37.3167828" lon="22.4236625"><ele>877.0</ele><time>2026-04-29T12:55:57.928Z</time></trkpt><trkpt lat="37.3165161" lon="22.4236512"><ele>879.0</ele><time>2026-04-29T12:55:58.928Z</time></trkpt><trkpt lat="37.3162583" lon="22.4236408"><ele>881.0</ele><time>2026-04-29T12:55:59.928Z</time></trkpt><trkpt lat="37.3160116" lon="22.4236302"><ele>881.0</ele><time>2026-04-29T12:56:00.927Z</time></trkpt><trkpt lat="37.31577" lon="22.4236166"><ele>881.0</ele><time>2026-04-29T12:56:01.927Z</time></trkpt><trkpt lat="37.3155258" lon="22.4235993"><ele>880.0</ele><time>2026-04-29T12:56:02.928Z</time></trkpt><trkpt lat="37.3152722" lon="22.4235655"><ele>879.0</ele><time>2026-04-29T12:56:03.927Z</time></trkpt><trkpt lat="37.3150358" lon="22.4235143"><ele>879.0</ele><time>2026-04-29T12:56:04.927Z</time></trkpt><trkpt lat="37.3147975" lon="22.4234297"><ele>879.0</ele><time>2026-04-29T12:56:05.928Z</time></trkpt><trkpt lat="37.3145702" lon="22.4233164"><ele>877.5</ele><time>2026-04-29T12:56:06.927Z</time></trkpt><trkpt lat="37.3143418" lon="22.4231856"><ele>876.0</ele><time>2026-04-29T12:56:07.927Z</time></trkpt><trkpt lat="37.3141086" lon="22.4230497"><ele>875.5</ele><time>2026-04-29T12:56:08.928Z</time></trkpt><trkpt lat="37.313884" lon="22.4229187"><ele>875.0</ele><time>2026-04-29T12:56:09.928Z</time></trkpt><trkpt lat="37.3136639" lon="22.4227989"><ele>875.0</ele><time>2026-04-29T12:56:10.928Z</time></trkpt><trkpt lat="37.3134207" lon="22.4226867"><ele>875.0</ele><time>2026-04-29T12:56:11.927Z</time></trkpt><trkpt lat="37.3131638" lon="22.4226046"><ele>873.5</ele><time>2026-04-29T12:56:12.927Z</time></trkpt><trkpt lat="37.3128842" lon="22.4225544"><ele>872.0</ele><time>2026-04-29T12:56:13.927Z</time></trkpt><trkpt lat="37.3125949" lon="22.4225319"><ele>872.0</ele><time>2026-04-29T12:56:14.927Z</time></trkpt><trkpt lat="37.3122776" lon="22.4225199"><ele>872.0</ele><time>2026-04-29T12:56:15.928Z</time></trkpt><trkpt lat="37.311942" lon="22.4225105"><ele>871.5</ele><time>2026-04-29T12:56:16.927Z</time></trkpt><trkpt lat="37.3116183" lon="22.4225028"><ele>871.0</ele><time>2026-04-29T12:56:17.927Z</time></trkpt><trkpt lat="37.3113041" lon="22.4224947"><ele>872.0</ele><time>2026-04-29T12:56:18.928Z</time></trkpt><trkpt lat="37.3109708" lon="22.4224845"><ele>873.0</ele><time>2026-04-29T12:56:19.927Z</time></trkpt><trkpt lat="37.3106473" lon="22.4224753"><ele>873.5</ele><time>2026-04-29T12:56:20.928Z</time></trkpt><trkpt lat="37.3103288" lon="22.4224694"><ele>874.0</ele><time>2026-04-29T12:56:21.927Z</time></trkpt><trkpt lat="37.3100279" lon="22.4224671"><ele>876.0</ele><time>2026-04-29T12:56:22.928Z</time></trkpt><trkpt lat="37.3097259" lon="22.4224655"><ele>878.0</ele><time>2026-04-29T12:56:23.928Z</time></trkpt><trkpt lat="37.3094205" lon="22.4224631"><ele>878.0</ele><time>2026-04-29T12:56:24.927Z</time></trkpt><trkpt lat="37.3091287" lon="22.4224596"><ele>878.0</ele><time>2026-04-29T12:56:25.928Z</time></trkpt><trkpt lat="37.3088486" lon="22.422454"><ele>879.0</ele><time>2026-04-29T12:56:26.928Z</time></trkpt><trkpt lat="37.3085553" lon="22.4224485"><ele>880.0</ele><time>2026-04-29T12:56:27.927Z</time></trkpt><trkpt lat="37.308278" lon="22.4224441"><ele>881.0</ele><time>2026-04-29T12:56:28.927Z</time></trkpt><trkpt lat="37.3080092" lon="22.4224417"><ele>882.0</ele><time>2026-04-29T12:56:29.927Z</time></trkpt><trkpt lat="37.3077566" lon="22.4224391"><ele>882.0</ele><time>2026-04-29T12:56:30.928Z</time></trkpt><trkpt lat="37.3074991" lon="22.4224348"><ele>882.0</ele><time>2026-04-29T12:56:31.927Z</time></trkpt><trkpt lat="37.3072428" lon="22.4224245"><ele>883.0</ele><time>2026-04-29T12:56:32.927Z</time></trkpt><trkpt lat="37.3070094" lon="22.422407"><ele>884.0</ele><time>2026-04-29T12:56:33.928Z</time></trkpt><trkpt lat="37.3067683" lon="22.4223688"><ele>884.0</ele><time>2026-04-29T12:56:34.928Z</time></trkpt><trkpt lat="37.3065232" lon="22.4222949"><ele>884.0</ele><time>2026-04-29T12:56:35.927Z</time></trkpt><trkpt lat="37.3062817" lon="22.4221929"><ele>888.0</ele><time>2026-04-29T12:56:36.928Z</time></trkpt><trkpt lat="37.3060395" lon="22.422072"><ele>892.0</ele><time>2026-04-29T12:56:37.928Z</time></trkpt><trkpt lat="37.3057932" lon="22.4219426"><ele>892.5</ele><time>2026-04-29T12:56:38.928Z</time></trkpt><trkpt lat="37.3055472" lon="22.4218144"><ele>893.0</ele><time>2026-04-29T12:56:39.928Z</time></trkpt><trkpt lat="37.305297" lon="22.4216843"><ele>893.0</ele><time>2026-04-29T12:56:40.927Z</time></trkpt><trkpt lat="37.3050625" lon="22.4215636"><ele>893.0</ele><time>2026-04-29T12:56:41.928Z</time></trkpt><trkpt lat="37.3048224" lon="22.4214394"><ele>893.0</ele><time>2026-04-29T12:56:42.927Z</time></trkpt><trkpt lat="37.3045733" lon="22.4213109"><ele>893.0</ele><time>2026-04-29T12:56:43.927Z</time></trkpt><trkpt lat="37.3043281" lon="22.4211832"><ele>893.0</ele><time>2026-04-29T12:56:44.927Z</time></trkpt><trkpt lat="37.3040879" lon="22.4210572"><ele>893.0</ele><time>2026-04-29T12:56:45.927Z</time></trkpt><trkpt lat="37.3038397" lon="22.4209238"><ele>893.5</ele><time>2026-04-29T12:56:46.927Z</time></trkpt><trkpt lat="37.303595" lon="22.4207865"><ele>894.0</ele><time>2026-04-29T12:56:47.927Z</time></trkpt><trkpt lat="37.3033469" lon="22.4206405"><ele>894.0</ele><time>2026-04-29T12:56:48.928Z</time></trkpt><trkpt lat="37.3031121" lon="22.4204987"><ele>894.0</ele><time>2026-04-29T12:56:49.928Z</time></trkpt><trkpt lat="37.3028818" lon="22.4203595"><ele>893.0</ele><time>2026-04-29T12:56:50.927Z</time></trkpt><trkpt lat="37.3026365" lon="22.4202097"><ele>892.0</ele><time>2026-04-29T12:56:51.928Z</time></trkpt><trkpt lat="37.3024004" lon="22.4200642"><ele>892.5</ele><time>2026-04-29T12:56:52.927Z</time></trkpt><trkpt lat="37.3021657" lon="22.4199186"><ele>893.0</ele><time>2026-04-29T12:56:53.928Z</time></trkpt><trkpt lat="37.3019395" lon="22.4197782"><ele>893.5</ele><time>2026-04-29T12:56:54.928Z</time></trkpt><trkpt lat="37.3017064" lon="22.4196326"><ele>894.0</ele><time>2026-04-29T12:56:55.928Z</time></trkpt><trkpt lat="37.3014669" lon="22.4194829"><ele>895.0</ele><time>2026-04-29T12:56:56.928Z</time></trkpt><trkpt lat="37.3012343" lon="22.4193399"><ele>896.0</ele><time>2026-04-29T12:56:57.928Z</time></trkpt><trkpt lat="37.3010106" lon="22.4191993"><ele>896.0</ele><time>2026-04-29T12:56:58.928Z</time></trkpt><trkpt lat="37.3007716" lon="22.419048"><ele>896.0</ele><time>2026-04-29T12:56:59.927Z</time></trkpt><trkpt lat="37.3005402" lon="22.4189015"><ele>898.0</ele><time>2026-04-29T12:57:00.927Z</time></trkpt><trkpt lat="37.3003075" lon="22.4187539"><ele>900.0</ele><time>2026-04-29T12:57:01.928Z</time></trkpt><trkpt lat="37.3000828" lon="22.4186143"><ele>900.0</ele><time>2026-04-29T12:57:02.927Z</time></trkpt><trkpt lat="37.2998529" lon="22.4184747"><ele>900.0</ele><time>2026-04-29T12:57:03.927Z</time></trkpt><trkpt lat="37.2996255" lon="22.418342"><ele>901.3333333333333</ele><time>2026-04-29T12:57:04.928Z</time></trkpt><trkpt lat="37.2994215" lon="22.4182338"><ele>902.6666666666666</ele><time>2026-04-29T12:57:05.927Z</time></trkpt><trkpt lat="37.2992059" lon="22.4181448"><ele>904.0</ele><time>2026-04-29T12:57:06.927Z</time></trkpt><trkpt lat="37.2989722" lon="22.4180885"><ele>904.5</ele><time>2026-04-29T12:57:07.928Z</time></trkpt><trkpt lat="37.2987297" lon="22.4180819"><ele>905.0</ele><time>2026-04-29T12:57:08.927Z</time></trkpt><trkpt lat="37.2984806" lon="22.4181156"><ele>905.0</ele><time>2026-04-29T12:57:09.928Z</time></trkpt><trkpt lat="37.2982076" lon="22.4181778"><ele>905.0</ele><time>2026-04-29T12:57:10.928Z</time></trkpt><trkpt lat="37.2979191" lon="22.4182564"><ele>907.0</ele><time>2026-04-29T12:57:11.928Z</time></trkpt><trkpt lat="37.2976023" lon="22.4183403"><ele>909.0</ele><time>2026-04-29T12:57:12.927Z</time></trkpt><trkpt lat="37.2972956" lon="22.418417"><ele>909.5</ele><time>2026-04-29T12:57:13.928Z</time></trkpt><trkpt lat="37.2969738" lon="22.4184838"><ele>910.0</ele><time>2026-04-29T12:57:14.928Z</time></trkpt><trkpt lat="37.2966391" lon="22.4185497"><ele>911.5</ele><time>2026-04-29T12:57:15.927Z</time></trkpt><trkpt lat="37.2963185" lon="22.4186098"><ele>913.0</ele><time>2026-04-29T12:57:16.928Z</time></trkpt><trkpt lat="37.2960161" lon="22.4186639"><ele>913.0</ele><time>2026-04-29T12:57:17.927Z</time></trkpt><trkpt lat="37.2957125" lon="22.4187205"><ele>913.0</ele><time>2026-04-29T12:57:18.928Z</time></trkpt><trkpt lat="37.2954175" lon="22.4187803"><ele>912.5</ele><time>2026-04-29T12:57:19.927Z</time></trkpt><trkpt lat="37.2951222" lon="22.4188441"><ele>912.0</ele><time>2026-04-29T12:57:20.928Z</time></trkpt><trkpt lat="37.2948473" lon="22.4189049"><ele>911.5</ele><time>2026-04-29T12:57:21.927Z</time></trkpt><trkpt lat="37.2945903" lon="22.4189671"><ele>911.0</ele><time>2026-04-29T12:57:22.927Z</time></trkpt><trkpt lat="37.2943273" lon="22.4190365"><ele>911.0</ele><time>2026-04-29T12:57:23.928Z</time></trkpt><trkpt lat="37.2940789" lon="22.4191141"><ele>911.0</ele><time>2026-04-29T12:57:24.927Z</time></trkpt><trkpt lat="37.2938366" lon="22.4192072"><ele>913.0</ele><time>2026-04-29T12:57:25.927Z</time></trkpt><trkpt lat="37.293608" lon="22.4193174"><ele>915.0</ele><time>2026-04-29T12:57:26.927Z</time></trkpt><trkpt lat="37.2933726" lon="22.4194581"><ele>915.0</ele><time>2026-04-29T12:57:27.928Z</time></trkpt><trkpt lat="37.2931323" lon="22.4196394"><ele>915.0</ele><time>2026-04-29T12:57:28.928Z</time></trkpt><trkpt lat="37.2928979" lon="22.4198445"><ele>919.5</ele><time>2026-04-29T12:57:29.928Z</time></trkpt><trkpt lat="37.2926754" lon="22.4200513"><ele>924.0</ele><time>2026-04-29T12:57:30.927Z</time></trkpt><trkpt lat="37.2924356" lon="22.4202781"><ele>929.5</ele><time>2026-04-29T12:57:31.928Z</time></trkpt><trkpt lat="37.2922113" lon="22.42049"><ele>935.0</ele><time>2026-04-29T12:57:32.927Z</time></trkpt><trkpt lat="37.2920028" lon="22.4206858"><ele>935.0</ele><time>2026-04-29T12:57:33.928Z</time></trkpt><trkpt lat="37.2917972" lon="22.4208774"><ele>935.0</ele><time>2026-04-29T12:57:34.928Z</time></trkpt><trkpt lat="37.2916036" lon="22.4210629"><ele>934.0</ele><time>2026-04-29T12:57:35.927Z</time></trkpt><trkpt lat="37.2914153" lon="22.4212454"><ele>933.0</ele><time>2026-04-29T12:57:36.927Z</time></trkpt><trkpt lat="37.2912482" lon="22.4214174"><ele>933.0</ele><time>2026-04-29T12:57:37.927Z</time></trkpt><trkpt lat="37.291079" lon="22.421601"><ele>933.0</ele><time>2026-04-29T12:57:38.927Z</time></trkpt><trkpt lat="37.2909048" lon="22.421801"><ele>933.0</ele><time>2026-04-29T12:57:39.927Z</time></trkpt><trkpt lat="37.2907362" lon="22.4220084"><ele>933.0</ele><time>2026-04-29T12:57:40.928Z</time></trkpt><trkpt lat="37.2905722" lon="22.4222226"><ele>930.5</ele><time>2026-04-29T12:57:41.928Z</time></trkpt><trkpt lat="37.2904019" lon="22.422457"><ele>928.0</ele><time>2026-04-29T12:57:42.927Z</time></trkpt><trkpt lat="37.2902286" lon="22.4226988"><ele>928.0</ele><time>2026-04-29T12:57:43.927Z</time></trkpt><trkpt lat="37.2900464" lon="22.422952"><ele>928.0</ele><time>2026-04-29T12:57:44.928Z</time></trkpt><trkpt lat="37.2898749" lon="22.4231888"><ele>926.5</ele><time>2026-04-29T12:57:45.927Z</time></trkpt><trkpt lat="37.2896987" lon="22.4234331"><ele>925.0</ele><time>2026-04-29T12:57:46.928Z</time></trkpt><trkpt lat="37.2895138" lon="22.4236808"><ele>923.5</ele><time>2026-04-29T12:57:47.927Z</time></trkpt><trkpt lat="37.2893251" lon="22.4239111"><ele>922.0</ele><time>2026-04-29T12:57:48.928Z</time></trkpt><trkpt lat="37.2891334" lon="22.424129"><ele>922.0</ele><time>2026-04-29T12:57:49.927Z</time></trkpt><trkpt lat="37.2889263" lon="22.4243468"><ele>922.0</ele><time>2026-04-29T12:57:50.927Z</time></trkpt><trkpt lat="37.2887147" lon="22.4245618"><ele>920.0</ele><time>2026-04-29T12:57:51.928Z</time></trkpt><trkpt lat="37.2884959" lon="22.4247808"><ele>918.0</ele><time>2026-04-29T12:57:52.927Z</time></trkpt><trkpt lat="37.2882907" lon="22.4249845"><ele>918.5</ele><time>2026-04-29T12:57:53.928Z</time></trkpt><trkpt lat="37.2880802" lon="22.4251946"><ele>919.0</ele><time>2026-04-29T12:57:54.927Z</time></trkpt><trkpt lat="37.2878647" lon="22.425412"><ele>918.0</ele><time>2026-04-29T12:57:55.928Z</time></trkpt><trkpt lat="37.2876557" lon="22.4256228"><ele>917.0</ele><time>2026-04-29T12:57:56.928Z</time></trkpt><trkpt lat="37.2874551" lon="22.4258265"><ele>918.5</ele><time>2026-04-29T12:57:57.928Z</time></trkpt><trkpt lat="37.2872485" lon="22.4260354"><ele>920.0</ele><time>2026-04-29T12:57:58.927Z</time></trkpt><trkpt lat="37.2870464" lon="22.426244"><ele>917.0</ele><time>2026-04-29T12:57:59.928Z</time></trkpt><trkpt lat="37.286845" lon="22.4264513"><ele>914.0</ele><time>2026-04-29T12:58:00.928Z</time></trkpt><trkpt lat="37.2866611" lon="22.4266407"><ele>914.0</ele><time>2026-04-29T12:58:01.928Z</time></trkpt><trkpt lat="37.286473" lon="22.4268297"><ele>914.0</ele><time>2026-04-29T12:58:02.928Z</time></trkpt><trkpt lat="37.2862783" lon="22.427019"><ele>912.0</ele><time>2026-04-29T12:58:03.927Z</time></trkpt><trkpt lat="37.2860867" lon="22.4271965"><ele>910.0</ele><time>2026-04-29T12:58:04.928Z</time></trkpt><trkpt lat="37.2858942" lon="22.4273559"><ele>910.0</ele><time>2026-04-29T12:58:05.927Z</time></trkpt><trkpt lat="37.2856836" lon="22.4275039"><ele>910.0</ele><time>2026-04-29T12:58:06.927Z</time></trkpt><trkpt lat="37.2854595" lon="22.4276291"><ele>907.0</ele><time>2026-04-29T12:58:07.927Z</time></trkpt><trkpt lat="37.2852127" lon="22.4277313"><ele>904.0</ele><time>2026-04-29T12:58:08.928Z</time></trkpt><trkpt lat="37.284972" lon="22.42781"><ele>900.5</ele><time>2026-04-29T12:58:09.927Z</time></trkpt><trkpt lat="37.2847187" lon="22.4278837"><ele>897.0</ele><time>2026-04-29T12:58:10.928Z</time></trkpt><trkpt lat="37.2844541" lon="22.4279553"><ele>899.0</ele><time>2026-04-29T12:58:11.927Z</time></trkpt><trkpt lat="37.2841958" lon="22.4280264"><ele>901.0</ele><time>2026-04-29T12:58:12.927Z</time></trkpt><trkpt lat="37.2839453" lon="22.4280968"><ele>895.0</ele><time>2026-04-29T12:58:13.928Z</time></trkpt><trkpt lat="37.2836873" lon="22.4281693"><ele>889.0</ele><time>2026-04-29T12:58:14.928Z</time></trkpt><trkpt lat="37.2834291" lon="22.4282439"><ele>889.0</ele><time>2026-04-29T12:58:15.928Z</time></trkpt><trkpt lat="37.2831616" lon="22.4283328"><ele>889.0</ele><time>2026-04-29T12:58:16.928Z</time></trkpt><trkpt lat="37.2829098" lon="22.4284303"><ele>888.0</ele><time>2026-04-29T12:58:17.927Z</time></trkpt><trkpt lat="37.2826521" lon="22.4285468"><ele>887.0</ele><time>2026-04-29T12:58:18.928Z</time></trkpt><trkpt lat="37.2823895" lon="22.4286847"><ele>885.0</ele><time>2026-04-29T12:58:19.927Z</time></trkpt><trkpt lat="37.2821374" lon="22.4288274"><ele>883.0</ele><time>2026-04-29T12:58:20.927Z</time></trkpt><trkpt lat="37.2818942" lon="22.4289672"><ele>883.0</ele><time>2026-04-29T12:58:21.927Z</time></trkpt><trkpt lat="37.2816436" lon="22.4291114"><ele>883.0</ele><time>2026-04-29T12:58:22.928Z</time></trkpt><trkpt lat="37.2813926" lon="22.4292541"><ele>882.5</ele><time>2026-04-29T12:58:23.928Z</time></trkpt><trkpt lat="37.2811333" lon="22.4294017"><ele>882.0</ele><time>2026-04-29T12:58:24.927Z</time></trkpt><trkpt lat="37.2808875" lon="22.4295404"><ele>882.5</ele><time>2026-04-29T12:58:25.928Z</time></trkpt><trkpt lat="37.280631" lon="22.4296823"><ele>883.0</ele><time>2026-04-29T12:58:26.927Z</time></trkpt><trkpt lat="37.2803646" lon="22.4298278"><ele>880.5</ele><time>2026-04-29T12:58:27.928Z</time></trkpt><trkpt lat="37.2801064" lon="22.4299675"><ele>878.0</ele><time>2026-04-29T12:58:28.927Z</time></trkpt><trkpt lat="37.2798573" lon="22.4300982"><ele>877.5</ele><time>2026-04-29T12:58:29.928Z</time></trkpt><trkpt lat="37.2796009" lon="22.4302263"><ele>877.0</ele><time>2026-04-29T12:58:30.928Z</time></trkpt><trkpt lat="37.279344" lon="22.4303455"><ele>877.0</ele><time>2026-04-29T12:58:31.928Z</time></trkpt><trkpt lat="37.2790785" lon="22.4304607"><ele>877.0</ele><time>2026-04-29T12:58:32.928Z</time></trkpt><trkpt lat="37.2788304" lon="22.4305628"><ele>876.5</ele><time>2026-04-29T12:58:33.928Z</time></trkpt><trkpt lat="37.2785749" lon="22.4306655"><ele>876.0</ele><time>2026-04-29T12:58:34.927Z</time></trkpt><trkpt lat="37.2783128" lon="22.4307692"><ele>875.0</ele><time>2026-04-29T12:58:35.927Z</time></trkpt><trkpt lat="37.2780593" lon="22.4308686"><ele>874.0</ele><time>2026-04-29T12:58:36.928Z</time></trkpt><trkpt lat="37.2778146" lon="22.4309666"><ele>874.0</ele><time>2026-04-29T12:58:37.927Z</time></trkpt><trkpt lat="37.277563" lon="22.4310717"><ele>874.0</ele><time>2026-04-29T12:58:38.928Z</time></trkpt><trkpt lat="37.2773125" lon="22.4311836"><ele>873.0</ele><time>2026-04-29T12:58:39.927Z</time></trkpt><trkpt lat="37.2770556" lon="22.4313052"><ele>872.0</ele><time>2026-04-29T12:58:40.927Z</time></trkpt><trkpt lat="37.2768192" lon="22.4314288"><ele>872.0</ele><time>2026-04-29T12:58:41.928Z</time></trkpt><trkpt lat="37.2765766" lon="22.4315665"><ele>872.0</ele><time>2026-04-29T12:58:42.928Z</time></trkpt><trkpt lat="37.276326" lon="22.4317223"><ele>872.0</ele><time>2026-04-29T12:58:43.928Z</time></trkpt><trkpt lat="37.2760837" lon="22.431889"><ele>872.0</ele><time>2026-04-29T12:58:44.928Z</time></trkpt><trkpt lat="37.275848" lon="22.4320611"><ele>872.0</ele><time>2026-04-29T12:58:45.928Z</time></trkpt><trkpt lat="37.2756048" lon="22.4322471"><ele>872.0</ele><time>2026-04-29T12:58:46.927Z</time></trkpt><trkpt lat="37.2753616" lon="22.4324353"><ele>872.0</ele><time>2026-04-29T12:58:47.928Z</time></trkpt><trkpt lat="37.275113" lon="22.4326311"><ele>872.0</ele><time>2026-04-29T12:58:48.927Z</time></trkpt><trkpt lat="37.2748817" lon="22.4328125"><ele>872.5</ele><time>2026-04-29T12:58:49.927Z</time></trkpt><trkpt lat="37.2746445" lon="22.4329962"><ele>873.0</ele><time>2026-04-29T12:58:50.928Z</time></trkpt><trkpt lat="37.2744017" lon="22.4331813"><ele>873.0</ele><time>2026-04-29T12:58:51.928Z</time></trkpt><trkpt lat="37.2741663" lon="22.433353"><ele>873.0</ele><time>2026-04-29T12:58:52.927Z</time></trkpt><trkpt lat="37.273937" lon="22.4335072"><ele>874.0</ele><time>2026-04-29T12:58:53.928Z</time></trkpt><trkpt lat="37.2736957" lon="22.4336539"><ele>875.0</ele><time>2026-04-29T12:58:54.927Z</time></trkpt><trkpt lat="37.2734464" lon="22.4337929"><ele>871.5</ele><time>2026-04-29T12:58:55.928Z</time></trkpt><trkpt lat="37.2731795" lon="22.4339357"><ele>868.0</ele><time>2026-04-29T12:58:56.928Z</time></trkpt><trkpt lat="37.2729241" lon="22.4340748"><ele>868.0</ele><time>2026-04-29T12:58:57.928Z</time></trkpt><trkpt lat="37.2726576" lon="22.4342156"><ele>868.0</ele><time>2026-04-29T12:58:58.928Z</time></trkpt><trkpt lat="37.2723848" lon="22.4343516"><ele>868.5</ele><time>2026-04-29T12:58:59.928Z</time></trkpt><trkpt lat="37.2721258" lon="22.4344741"><ele>869.0</ele><time>2026-04-29T12:59:00.928Z</time></trkpt><trkpt lat="37.2718823" lon="22.4345872"><ele>867.5</ele><time>2026-04-29T12:59:01.927Z</time></trkpt><trkpt lat="37.271637" lon="22.4347035"><ele>866.0</ele><time>2026-04-29T12:59:02.927Z</time></trkpt><trkpt lat="37.271396" lon="22.4348228"><ele>866.0</ele><time>2026-04-29T12:59:03.927Z</time></trkpt><trkpt lat="37.2711488" lon="22.4349478"><ele>866.0</ele><time>2026-04-29T12:59:04.928Z</time></trkpt><trkpt lat="37.2709192" lon="22.4350652"><ele>866.0</ele><time>2026-04-29T12:59:05.928Z</time></trkpt><trkpt lat="37.2706841" lon="22.4351868"><ele>866.0</ele><time>2026-04-29T12:59:06.927Z</time></trkpt><trkpt lat="37.2704441" lon="22.4353121"><ele>868.0</ele><time>2026-04-29T12:59:07.927Z</time></trkpt><trkpt lat="37.2702138" lon="22.4354352"><ele>870.0</ele><time>2026-04-29T12:59:08.928Z</time></trkpt><trkpt lat="37.2699932" lon="22.4355545"><ele>868.5</ele><time>2026-04-29T12:59:09.927Z</time></trkpt><trkpt lat="37.2697672" lon="22.4356759"><ele>867.0</ele><time>2026-04-29T12:59:10.928Z</time></trkpt><trkpt lat="37.2695476" lon="22.435793"><ele>867.0</ele><time>2026-04-29T12:59:11.927Z</time></trkpt><trkpt lat="37.2693303" lon="22.4359066"><ele>867.0</ele><time>2026-04-29T12:59:12.927Z</time></trkpt><trkpt lat="37.2691287" lon="22.4360085"><ele>868.6666666666667</ele><time>2026-04-29T12:59:13.928Z</time></trkpt><trkpt lat="37.2689207" lon="22.4361003"><ele>870.3333333333334</ele><time>2026-04-29T12:59:14.927Z</time></trkpt><trkpt lat="37.2686997" lon="22.4361734"><ele>872.0</ele><time>2026-04-29T12:59:15.927Z</time></trkpt><trkpt lat="37.2684739" lon="22.4362142"><ele>872.0</ele><time>2026-04-29T12:59:16.928Z</time></trkpt><trkpt lat="37.2682485" lon="22.4362172"><ele>872.0</ele><time>2026-04-29T12:59:17.927Z</time></trkpt><trkpt lat="37.2680149" lon="22.4361848"><ele>867.0</ele><time>2026-04-29T12:59:18.927Z</time></trkpt><trkpt lat="37.2677787" lon="22.4361088"><ele>862.0</ele><time>2026-04-29T12:59:19.927Z</time></trkpt><trkpt lat="37.2675276" lon="22.4359976"><ele>862.0</ele><time>2026-04-29T12:59:20.927Z</time></trkpt><trkpt lat="37.2672839" lon="22.4358691"><ele>862.0</ele><time>2026-04-29T12:59:21.927Z</time></trkpt><trkpt lat="37.267031" lon="22.4357318"><ele>861.0</ele><time>2026-04-29T12:59:22.928Z</time></trkpt><trkpt lat="37.2667756" lon="22.4355897"><ele>860.0</ele><time>2026-04-29T12:59:23.928Z</time></trkpt><trkpt lat="37.2665359" lon="22.435455"><ele>860.0</ele><time>2026-04-29T12:59:24.927Z</time></trkpt><trkpt lat="37.2663067" lon="22.4353263"><ele>860.0</ele><time>2026-04-29T12:59:25.928Z</time></trkpt><trkpt lat="37.2660708" lon="22.4351997"><ele>860.0</ele><time>2026-04-29T12:59:26.928Z</time></trkpt><trkpt lat="37.2658302" lon="22.4350906"><ele>860.0</ele><time>2026-04-29T12:59:27.927Z</time></trkpt><trkpt lat="37.2655761" lon="22.4350059"><ele>858.5</ele><time>2026-04-29T12:59:28.927Z</time></trkpt><trkpt lat="37.2653392" lon="22.4349585"><ele>857.0</ele><time>2026-04-29T12:59:29.927Z</time></trkpt><trkpt lat="37.2650953" lon="22.4349396"><ele>857.0</ele><time>2026-04-29T12:59:30.928Z</time></trkpt><trkpt lat="37.2648458" lon="22.4349535"><ele>857.0</ele><time>2026-04-29T12:59:31.927Z</time></trkpt><trkpt lat="37.264604" lon="22.4350051"><ele>859.5</ele><time>2026-04-29T12:59:32.927Z</time></trkpt><trkpt lat="37.2643667" lon="22.4350866"><ele>862.0</ele><time>2026-04-29T12:59:33.927Z</time></trkpt><trkpt lat="37.264122" lon="22.4351959"><ele>868.5</ele><time>2026-04-29T12:59:34.928Z</time></trkpt><trkpt lat="37.2638762" lon="22.4353194"><ele>875.0</ele><time>2026-04-29T12:59:35.928Z</time></trkpt><trkpt lat="37.263621" lon="22.4354515"><ele>864.0</ele><time>2026-04-29T12:59:36.927Z</time></trkpt><trkpt lat="37.2633787" lon="22.4355725"><ele>853.0</ele><time>2026-04-29T12:59:37.928Z</time></trkpt><trkpt lat="37.2631263" lon="22.4356914"><ele>853.0</ele><time>2026-04-29T12:59:38.927Z</time></trkpt><trkpt lat="37.2628645" lon="22.4358049"><ele>853.0</ele><time>2026-04-29T12:59:39.927Z</time></trkpt><trkpt lat="37.2626097" lon="22.4359018"><ele>853.0</ele><time>2026-04-29T12:59:40.927Z</time></trkpt><trkpt lat="37.2623608" lon="22.4359775"><ele>853.0</ele><time>2026-04-29T12:59:41.928Z</time></trkpt><trkpt lat="37.2621002" lon="22.4360336"><ele>852.5</ele><time>2026-04-29T12:59:42.928Z</time></trkpt><trkpt lat="37.2618354" lon="22.4360728"><ele>852.0</ele><time>2026-04-29T12:59:43.928Z</time></trkpt><trkpt lat="37.2615625" lon="22.4360992"><ele>848.5</ele><time>2026-04-29T12:59:44.928Z</time></trkpt><trkpt lat="37.2613084" lon="22.4361139"><ele>845.0</ele><time>2026-04-29T12:59:45.927Z</time></trkpt><trkpt lat="37.2610483" lon="22.4361271"><ele>845.0</ele><time>2026-04-29T12:59:46.928Z</time></trkpt><trkpt lat="37.260781" lon="22.436139"><ele>845.0</ele><time>2026-04-29T12:59:47.927Z</time></trkpt><trkpt lat="37.2605216" lon="22.4361492"><ele>841.5</ele><time>2026-04-29T12:59:48.928Z</time></trkpt><trkpt lat="37.2602659" lon="22.4361586"><ele>838.0</ele><time>2026-04-29T12:59:49.927Z</time></trkpt><trkpt lat="37.2599939" lon="22.4361671"><ele>838.0</ele><time>2026-04-29T12:59:50.927Z</time></trkpt><trkpt lat="37.2597134" lon="22.4361732"><ele>838.0</ele><time>2026-04-29T12:59:51.927Z</time></trkpt><trkpt lat="37.2594121" lon="22.4361801"><ele>838.0</ele><time>2026-04-29T12:59:52.927Z</time></trkpt><trkpt lat="37.2591172" lon="22.4361927"><ele>838.0</ele><time>2026-04-29T12:59:53.927Z</time></trkpt><trkpt lat="37.2587953" lon="22.4362109"><ele>835.0</ele><time>2026-04-29T12:59:54.927Z</time></trkpt><trkpt lat="37.2584454" lon="22.43623"><ele>832.0</ele><time>2026-04-29T12:59:55.928Z</time></trkpt><trkpt lat="37.2581092" lon="22.436245"><ele>830.5</ele><time>2026-04-29T12:59:56.927Z</time></trkpt><trkpt lat="37.2577862" lon="22.4362569"><ele>829.0</ele><time>2026-04-29T12:59:57.927Z</time></trkpt><trkpt lat="37.257462" lon="22.4362667"><ele>834.0</ele><time>2026-04-29T12:59:58.928Z</time></trkpt><trkpt lat="37.2571536" lon="22.4362758"><ele>839.0</ele><time>2026-04-29T12:59:59.927Z</time></trkpt><trkpt lat="37.2568583" lon="22.4362808"><ele>839.0</ele><time>2026-04-29T13:00:00.927Z</time></trkpt><trkpt lat="37.2565833" lon="22.4362859"><ele>839.0</ele><time>2026-04-29T13:00:01.927Z</time></trkpt><trkpt lat="37.2563151" lon="22.4362843"><ele>839.5</ele><time>2026-04-29T13:00:02.928Z</time></trkpt><trkpt lat="37.2560487" lon="22.436273"><ele>840.0</ele><time>2026-04-29T13:00:03.928Z</time></trkpt><trkpt lat="37.2557845" lon="22.4362576"><ele>839.5</ele><time>2026-04-29T13:00:04.928Z</time></trkpt><trkpt lat="37.2555299" lon="22.4362371"><ele>839.0</ele><time>2026-04-29T13:00:05.927Z</time></trkpt><trkpt lat="37.255283" lon="22.4362146"><ele>839.0</ele><time>2026-04-29T13:00:06.928Z</time></trkpt><trkpt lat="37.2550437" lon="22.4361918"><ele>839.0</ele><time>2026-04-29T13:00:07.928Z</time></trkpt><trkpt lat="37.2547853" lon="22.4361684"><ele>835.0</ele><time>2026-04-29T13:00:08.928Z</time></trkpt><trkpt lat="37.2545314" lon="22.4361437"><ele>831.0</ele><time>2026-04-29T13:00:09.927Z</time></trkpt><trkpt lat="37.2542752" lon="22.4361218"><ele>831.0</ele><time>2026-04-29T13:00:10.928Z</time></trkpt><trkpt lat="37.2540199" lon="22.4360977"><ele>831.0</ele><time>2026-04-29T13:00:11.928Z</time></trkpt><trkpt lat="37.2537704" lon="22.4360745"><ele>826.5</ele><time>2026-04-29T13:00:12.928Z</time></trkpt><trkpt lat="37.253524" lon="22.4360516"><ele>822.0</ele><time>2026-04-29T13:00:13.928Z</time></trkpt><trkpt lat="37.2532958" lon="22.4360295"><ele>819.5</ele><time>2026-04-29T13:00:14.928Z</time></trkpt><trkpt lat="37.2530714" lon="22.4360099"><ele>817.0</ele><time>2026-04-29T13:00:15.927Z</time></trkpt><trkpt lat="37.2528433" lon="22.4359937"><ele>817.0</ele><time>2026-04-29T13:00:16.928Z</time></trkpt><trkpt lat="37.2526273" lon="22.4359865"><ele>817.0</ele><time>2026-04-29T13:00:17.928Z</time></trkpt><trkpt lat="37.2524276" lon="22.4359884"><ele>817.0</ele><time>2026-04-29T13:00:18.927Z</time></trkpt><trkpt lat="37.252217" lon="22.4360073"><ele>818.3333333333333</ele><time>2026-04-29T13:00:19.927Z</time></trkpt><trkpt lat="37.2520207" lon="22.4360443"><ele>819.6666666666667</ele><time>2026-04-29T13:00:20.927Z</time></trkpt><trkpt lat="37.2518304" lon="22.43611"><ele>821.0</ele><time>2026-04-29T13:00:21.927Z</time></trkpt><trkpt lat="37.2516489" lon="22.4362084"><ele>819.0</ele><time>2026-04-29T13:00:22.928Z</time></trkpt><trkpt lat="37.2514818" lon="22.4363311"><ele>817.0</ele><time>2026-04-29T13:00:23.927Z</time></trkpt><trkpt lat="37.2513107" lon="22.4364841"><ele>815.0</ele><time>2026-04-29T13:00:24.927Z</time></trkpt><trkpt lat="37.2511473" lon="22.4366462"><ele>815.0</ele><time>2026-04-29T13:00:25.927Z</time></trkpt><trkpt lat="37.2509826" lon="22.4368143"><ele>815.0</ele><time>2026-04-29T13:00:26.928Z</time></trkpt><trkpt lat="37.2508178" lon="22.4369856"><ele>815.0</ele><time>2026-04-29T13:00:27.928Z</time></trkpt><trkpt lat="37.2506576" lon="22.4371588"><ele>814.3333333333334</ele><time>2026-04-29T13:00:28.927Z</time></trkpt><trkpt lat="37.2505012" lon="22.4373309"><ele>813.6666666666667</ele><time>2026-04-29T13:00:29.927Z</time></trkpt><trkpt lat="37.2503514" lon="22.4374936"><ele>813.0</ele><time>2026-04-29T13:00:30.927Z</time></trkpt><trkpt lat="37.2502032" lon="22.4376487"><ele>813.0</ele><time>2026-04-29T13:00:31.928Z</time></trkpt><trkpt lat="37.2500521" lon="22.4377937"><ele>813.0</ele><time>2026-04-29T13:00:32.927Z</time></trkpt><trkpt lat="37.2498961" lon="22.4379259"><ele>813.0</ele><time>2026-04-29T13:00:33.927Z</time></trkpt><trkpt lat="37.2497197" lon="22.4380548"><ele>803.0</ele><time>2026-04-29T13:00:34.927Z</time></trkpt><trkpt lat="37.2495194" lon="22.4381897"><ele>793.0</ele><time>2026-04-29T13:00:35.928Z</time></trkpt><trkpt lat="37.2492994" lon="22.4383312"><ele>793.0</ele><time>2026-04-29T13:00:36.928Z</time></trkpt><trkpt lat="37.2490477" lon="22.4384857"><ele>793.0</ele><time>2026-04-29T13:00:37.927Z</time></trkpt><trkpt lat="37.2487703" lon="22.4386427"><ele>789.0</ele><time>2026-04-29T13:00:38.928Z</time></trkpt><trkpt lat="37.248471" lon="22.4388068"><ele>785.0</ele><time>2026-04-29T13:00:39.928Z</time></trkpt><trkpt lat="37.2481465" lon="22.438984"><ele>788.5</ele><time>2026-04-29T13:00:40.927Z</time></trkpt><trkpt lat="37.2478298" lon="22.4391603"><ele>792.0</ele><time>2026-04-29T13:00:41.928Z</time></trkpt><trkpt lat="37.2474967" lon="22.4393488"><ele>796.0</ele><time>2026-04-29T13:00:42.928Z</time></trkpt><trkpt lat="37.2471649" lon="22.4395377"><ele>800.0</ele><time>2026-04-29T13:00:43.928Z</time></trkpt><trkpt lat="37.2468586" lon="22.4397127"><ele>794.0</ele><time>2026-04-29T13:00:44.927Z</time></trkpt><trkpt lat="37.2465728" lon="22.4398744"><ele>788.0</ele><time>2026-04-29T13:00:45.928Z</time></trkpt><trkpt lat="37.2462871" lon="22.4400358"><ele>788.0</ele><time>2026-04-29T13:00:46.928Z</time></trkpt><trkpt lat="37.2460114" lon="22.4401937"><ele>788.0</ele><time>2026-04-29T13:00:47.928Z</time></trkpt><trkpt lat="37.2457475" lon="22.4403454"><ele>779.5</ele><time>2026-04-29T13:00:48.927Z</time></trkpt><trkpt lat="37.2455025" lon="22.4404781"><ele>771.0</ele><time>2026-04-29T13:00:49.927Z</time></trkpt><trkpt lat="37.2452494" lon="22.4405982"><ele>771.0</ele><time>2026-04-29T13:00:50.927Z</time></trkpt><trkpt lat="37.2449853" lon="22.4407026"><ele>771.0</ele><time>2026-04-29T13:00:51.928Z</time></trkpt><trkpt lat="37.2447233" lon="22.4407782"><ele>770.0</ele><time>2026-04-29T13:00:52.927Z</time></trkpt><trkpt lat="37.2444635" lon="22.4408208"><ele>769.0</ele><time>2026-04-29T13:00:53.928Z</time></trkpt><trkpt lat="37.2442031" lon="22.4408318"><ele>767.0</ele><time>2026-04-29T13:00:54.928Z</time></trkpt><trkpt lat="37.2439385" lon="22.44081"><ele>765.0</ele><time>2026-04-29T13:00:55.928Z</time></trkpt><trkpt lat="37.243672" lon="22.4407615"><ele>765.0</ele><time>2026-04-29T13:00:56.927Z</time></trkpt><trkpt lat="37.2433976" lon="22.4406924"><ele>765.0</ele><time>2026-04-29T13:00:57.928Z</time></trkpt><trkpt lat="37.2431123" lon="22.4406115"><ele>766.5</ele><time>2026-04-29T13:00:58.928Z</time></trkpt><trkpt lat="37.2428133" lon="22.4405214"><ele>768.0</ele><time>2026-04-29T13:00:59.927Z</time></trkpt><trkpt lat="37.242531" lon="22.44043"><ele>764.0</ele><time>2026-04-29T13:01:00.927Z</time></trkpt><trkpt lat="37.242249" lon="22.4403339"><ele>760.0</ele><time>2026-04-29T13:01:01.927Z</time></trkpt><trkpt lat="37.2419684" lon="22.4402329"><ele>760.0</ele><time>2026-04-29T13:01:02.928Z</time></trkpt><trkpt lat="37.2416944" lon="22.440134"><ele>760.0</ele><time>2026-04-29T13:01:03.927Z</time></trkpt><trkpt lat="37.2414229" lon="22.4400352"><ele>759.0</ele><time>2026-04-29T13:01:04.927Z</time></trkpt><trkpt lat="37.2411823" lon="22.439945"><ele>758.0</ele><time>2026-04-29T13:01:05.928Z</time></trkpt><trkpt lat="37.2409483" lon="22.4398515"><ele>758.0</ele><time>2026-04-29T13:01:06.928Z</time></trkpt><trkpt lat="37.2407176" lon="22.4397533"><ele>758.0</ele><time>2026-04-29T13:01:07.927Z</time></trkpt><trkpt lat="37.2405031" lon="22.4396461"><ele>759.0</ele><time>2026-04-29T13:01:08.928Z</time></trkpt><trkpt lat="37.2403096" lon="22.4395135"><ele>760.0</ele><time>2026-04-29T13:01:09.927Z</time></trkpt><trkpt lat="37.2401219" lon="22.4393367"><ele>760.0</ele><time>2026-04-29T13:01:10.928Z</time></trkpt><trkpt lat="37.2399395" lon="22.4391302"><ele>760.0</ele><time>2026-04-29T13:01:11.927Z</time></trkpt><trkpt lat="37.2397638" lon="22.4389142"><ele>760.5</ele><time>2026-04-29T13:01:12.927Z</time></trkpt><trkpt lat="37.239592" lon="22.4386944"><ele>761.0</ele><time>2026-04-29T13:01:13.928Z</time></trkpt><trkpt lat="37.2394228" lon="22.4384777"><ele>761.0</ele><time>2026-04-29T13:01:14.928Z</time></trkpt><trkpt lat="37.2392468" lon="22.4382501"><ele>761.0</ele><time>2026-04-29T13:01:15.927Z</time></trkpt><trkpt lat="37.2390887" lon="22.4380399"><ele>763.0</ele><time>2026-04-29T13:01:16.928Z</time></trkpt><trkpt lat="37.2389385" lon="22.4378298"><ele>765.0</ele><time>2026-04-29T13:01:17.927Z</time></trkpt><trkpt lat="37.2388031" lon="22.4376167"><ele>767.0</ele><time>2026-04-29T13:01:18.927Z</time></trkpt><trkpt lat="37.2386895" lon="22.4373936"><ele>767.0</ele><time>2026-04-29T13:01:19.928Z</time></trkpt><trkpt lat="37.2386026" lon="22.4371511"><ele>767.0</ele><time>2026-04-29T13:01:20.928Z</time></trkpt><trkpt lat="37.2385416" lon="22.4368914"><ele>767.0</ele><time>2026-04-29T13:01:21.927Z</time></trkpt><trkpt lat="37.238499" lon="22.4366241"><ele>765.6666666666666</ele><time>2026-04-29T13:01:22.927Z</time></trkpt><trkpt lat="37.238472" lon="22.4363585"><ele>764.3333333333334</ele><time>2026-04-29T13:01:23.927Z</time></trkpt><trkpt lat="37.2384565" lon="22.4361017"><ele>763.0</ele><time>2026-04-29T13:01:24.927Z</time></trkpt><trkpt lat="37.2384561" lon="22.4358534"><ele>763.0</ele><time>2026-04-29T13:01:25.927Z</time></trkpt><trkpt lat="37.2384786" lon="22.4355966"><ele>763.0</ele><time>2026-04-29T13:01:26.927Z</time></trkpt><trkpt lat="37.2385263" lon="22.4353398"><ele>763.0</ele><time>2026-04-29T13:01:27.927Z</time></trkpt><trkpt lat="37.2385953" lon="22.4350749"><ele>763.0</ele><time>2026-04-29T13:01:28.927Z</time></trkpt><trkpt lat="37.2386712" lon="22.4348287"><ele>763.0</ele><time>2026-04-29T13:01:29.927Z</time></trkpt><trkpt lat="37.2387496" lon="22.4345783"><ele>763.0</ele><time>2026-04-29T13:01:30.927Z</time></trkpt><trkpt lat="37.2388299" lon="22.4343221"><ele>764.6666666666667</ele><time>2026-04-29T13:01:31.927Z</time></trkpt><trkpt lat="37.2389064" lon="22.434075"><ele>766.3333333333334</ele><time>2026-04-29T13:01:32.928Z</time></trkpt><trkpt lat="37.2389825" lon="22.433817"><ele>768.0</ele><time>2026-04-29T13:01:33.927Z</time></trkpt><trkpt lat="37.2390568" lon="22.4335586"><ele>764.6666666666666</ele><time>2026-04-29T13:01:34.928Z</time></trkpt><trkpt lat="37.2391344" lon="22.4332998"><ele>761.3333333333333</ele><time>2026-04-29T13:01:35.928Z</time></trkpt><trkpt lat="37.2392157" lon="22.433035"><ele>758.0</ele><time>2026-04-29T13:01:36.927Z</time></trkpt><trkpt lat="37.2393003" lon="22.4327617"><ele>758.0</ele><time>2026-04-29T13:01:37.928Z</time></trkpt><trkpt lat="37.2393862" lon="22.4324804"><ele>758.0</ele><time>2026-04-29T13:01:38.927Z</time></trkpt><trkpt lat="37.2394746" lon="22.4321832"><ele>757.0</ele><time>2026-04-29T13:01:39.928Z</time></trkpt><trkpt lat="37.2395563" lon="22.4319"><ele>756.0</ele><time>2026-04-29T13:01:40.928Z</time></trkpt><trkpt lat="37.2396373" lon="22.4316037"><ele>754.5</ele><time>2026-04-29T13:01:41.928Z</time></trkpt><trkpt lat="37.2397122" lon="22.4313017"><ele>753.0</ele><time>2026-04-29T13:01:42.927Z</time></trkpt><trkpt lat="37.2397799" lon="22.4309952"><ele>750.5</ele><time>2026-04-29T13:01:43.927Z</time></trkpt><trkpt lat="37.2398405" lon="22.4306861"><ele>748.0</ele><time>2026-04-29T13:01:44.927Z</time></trkpt><trkpt lat="37.2398945" lon="22.4303771"><ele>748.0</ele><time>2026-04-29T13:01:45.927Z</time></trkpt><trkpt lat="37.2399432" lon="22.4300705"><ele>748.0</ele><time>2026-04-29T13:01:46.928Z</time></trkpt><trkpt lat="37.2399886" lon="22.4297566"><ele>748.5</ele><time>2026-04-29T13:01:47.928Z</time></trkpt><trkpt lat="37.2400258" lon="22.4294629"><ele>749.0</ele><time>2026-04-29T13:01:48.928Z</time></trkpt><trkpt lat="37.2400607" lon="22.4291604"><ele>749.0</ele><time>2026-04-29T13:01:49.927Z</time></trkpt><trkpt lat="37.2400939" lon="22.4288606"><ele>749.0</ele><time>2026-04-29T13:01:50.928Z</time></trkpt><trkpt lat="37.2401273" lon="22.4285648"><ele>750.0</ele><time>2026-04-29T13:01:51.927Z</time></trkpt><trkpt lat="37.2401586" lon="22.4282732"><ele>751.0</ele><time>2026-04-29T13:01:52.928Z</time></trkpt><trkpt lat="37.240188" lon="22.4279871"><ele>752.5</ele><time>2026-04-29T13:01:53.928Z</time></trkpt><trkpt lat="37.2402153" lon="22.4277045"><ele>754.0</ele><time>2026-04-29T13:01:54.927Z</time></trkpt><trkpt lat="37.2402392" lon="22.427416"><ele>754.0</ele><time>2026-04-29T13:01:55.927Z</time></trkpt><trkpt lat="37.2402533" lon="22.4271441"><ele>754.0</ele><time>2026-04-29T13:01:56.927Z</time></trkpt><trkpt lat="37.2402537" lon="22.4268537"><ele>754.0</ele><time>2026-04-29T13:01:57.927Z</time></trkpt><trkpt lat="37.2402343" lon="22.4265563"><ele>757.0</ele><time>2026-04-29T13:01:58.928Z</time></trkpt><trkpt lat="37.2401919" lon="22.4262659"><ele>760.0</ele><time>2026-04-29T13:01:59.928Z</time></trkpt><trkpt lat="37.2401256" lon="22.4259872"><ele>760.0</ele><time>2026-04-29T13:02:00.927Z</time></trkpt><trkpt lat="37.2400383" lon="22.4257196"><ele>760.0</ele><time>2026-04-29T13:02:01.927Z</time></trkpt><trkpt lat="37.2399257" lon="22.4254595"><ele>765.5</ele><time>2026-04-29T13:02:02.927Z</time></trkpt><trkpt lat="37.2397845" lon="22.4252011"><ele>771.0</ele><time>2026-04-29T13:02:03.927Z</time></trkpt><trkpt lat="37.2396344" lon="22.4249761"><ele>771.0</ele><time>2026-04-29T13:02:04.927Z</time></trkpt><trkpt lat="37.2394617" lon="22.4247657"><ele>771.0</ele><time>2026-04-29T13:02:05.927Z</time></trkpt><trkpt lat="37.239273" lon="22.4245813"><ele>773.0</ele><time>2026-04-29T13:02:06.927Z</time></trkpt><trkpt lat="37.2390702" lon="22.4244249"><ele>775.0</ele><time>2026-04-29T13:02:07.927Z</time></trkpt><trkpt lat="37.2388489" lon="22.424293"><ele>779.5</ele><time>2026-04-29T13:02:08.928Z</time></trkpt><trkpt lat="37.2386222" lon="22.4241938"><ele>784.0</ele><time>2026-04-29T13:02:09.928Z</time></trkpt><trkpt lat="37.2383774" lon="22.4241221"><ele>791.5</ele><time>2026-04-29T13:02:10.927Z</time></trkpt><trkpt lat="37.2381167" lon="22.4240826"><ele>799.0</ele><time>2026-04-29T13:02:11.928Z</time></trkpt><trkpt lat="37.2378677" lon="22.4240803"><ele>799.0</ele><time>2026-04-29T13:02:12.928Z</time></trkpt><trkpt lat="37.2376036" lon="22.4241145"><ele>799.0</ele><time>2026-04-29T13:02:13.928Z</time></trkpt><trkpt lat="37.2373323" lon="22.4241863"><ele>805.5</ele><time>2026-04-29T13:02:14.927Z</time></trkpt><trkpt lat="37.2370547" lon="22.4242865"><ele>812.0</ele><time>2026-04-29T13:02:15.927Z</time></trkpt><trkpt lat="37.2367695" lon="22.4243972"><ele>812.0</ele><time>2026-04-29T13:02:16.927Z</time></trkpt><trkpt lat="37.2364764" lon="22.4245146"><ele>812.0</ele><time>2026-04-29T13:02:17.927Z</time></trkpt><trkpt lat="37.2361751" lon="22.4246331"><ele>810.0</ele><time>2026-04-29T13:02:18.927Z</time></trkpt><trkpt lat="37.2358532" lon="22.4247631"><ele>808.0</ele><time>2026-04-29T13:02:19.927Z</time></trkpt><trkpt lat="37.2355586" lon="22.4248827"><ele>813.5</ele><time>2026-04-29T13:02:20.928Z</time></trkpt><trkpt lat="37.2352673" lon="22.425003"><ele>819.0</ele><time>2026-04-29T13:02:21.928Z</time></trkpt><trkpt lat="37.2349943" lon="22.4251139"><ele>824.5</ele><time>2026-04-29T13:02:22.928Z</time></trkpt><trkpt lat="37.23473" lon="22.4252164"><ele>830.0</ele><time>2026-04-29T13:02:23.928Z</time></trkpt><trkpt lat="37.2344685" lon="22.4253067"><ele>830.0</ele><time>2026-04-29T13:02:24.927Z</time></trkpt><trkpt lat="37.2342087" lon="22.4253801"><ele>830.0</ele><time>2026-04-29T13:02:25.927Z</time></trkpt><trkpt lat="37.2339544" lon="22.4254341"><ele>832.0</ele><time>2026-04-29T13:02:26.928Z</time></trkpt><trkpt lat="37.233694" lon="22.4254627"><ele>834.0</ele><time>2026-04-29T13:02:27.927Z</time></trkpt><trkpt lat="37.2334544" lon="22.4254543"><ele>834.0</ele><time>2026-04-29T13:02:28.928Z</time></trkpt><trkpt lat="37.2332068" lon="22.425417"><ele>834.0</ele><time>2026-04-29T13:02:29.927Z</time></trkpt><trkpt lat="37.2329694" lon="22.4253443"><ele>833.5</ele><time>2026-04-29T13:02:30.928Z</time></trkpt><trkpt lat="37.2327432" lon="22.4252418"><ele>833.0</ele><time>2026-04-29T13:02:31.927Z</time></trkpt><trkpt lat="37.2325254" lon="22.425106"><ele>833.0</ele><time>2026-04-29T13:02:32.928Z</time></trkpt><trkpt lat="37.2323205" lon="22.4249435"><ele>833.0</ele><time>2026-04-29T13:02:33.928Z</time></trkpt><trkpt lat="37.2321287" lon="22.4247494"><ele>836.5</ele><time>2026-04-29T13:02:34.927Z</time></trkpt><trkpt lat="37.2319388" lon="22.4245125"><ele>840.0</ele><time>2026-04-29T13:02:35.927Z</time></trkpt><trkpt lat="37.2317623" lon="22.4242537"><ele>840.0</ele><time>2026-04-29T13:02:36.927Z</time></trkpt><trkpt lat="37.2315843" lon="22.4239727"><ele>840.0</ele><time>2026-04-29T13:02:37.927Z</time></trkpt><trkpt lat="37.2314127" lon="22.4236875"><ele>845.5</ele><time>2026-04-29T13:02:38.927Z</time></trkpt><trkpt lat="37.2312493" lon="22.423407"><ele>851.0</ele><time>2026-04-29T13:02:39.927Z</time></trkpt><trkpt lat="37.2310897" lon="22.4231353"><ele>844.5</ele><time>2026-04-29T13:02:40.927Z</time></trkpt><trkpt lat="37.2309311" lon="22.422882"><ele>838.0</ele><time>2026-04-29T13:02:41.927Z</time></trkpt><trkpt lat="37.2307663" lon="22.4226433"><ele>843.5</ele><time>2026-04-29T13:02:42.928Z</time></trkpt><trkpt lat="37.2305871" lon="22.4224138"><ele>849.0</ele><time>2026-04-29T13:02:43.928Z</time></trkpt><trkpt lat="37.230413" lon="22.4222222"><ele>843.6666666666667</ele><time>2026-04-29T13:02:44.928Z</time></trkpt><trkpt lat="37.2302306" lon="22.4220566"><ele>838.3333333333334</ele><time>2026-04-29T13:02:45.928Z</time></trkpt><trkpt lat="37.2300489" lon="22.4219237"><ele>833.0</ele><time>2026-04-29T13:02:46.928Z</time></trkpt><trkpt lat="37.2298609" lon="22.4218176"><ele>835.3333333333334</ele><time>2026-04-29T13:02:47.927Z</time></trkpt><trkpt lat="37.2296662" lon="22.421738"><ele>837.6666666666667</ele><time>2026-04-29T13:02:48.928Z</time></trkpt><trkpt lat="37.2294674" lon="22.4216788"><ele>840.0</ele><time>2026-04-29T13:02:49.928Z</time></trkpt><trkpt lat="37.2292641" lon="22.4216358"><ele>840.0</ele><time>2026-04-29T13:02:50.927Z</time></trkpt><trkpt lat="37.2290511" lon="22.421609"><ele>840.0</ele><time>2026-04-29T13:02:51.927Z</time></trkpt><trkpt lat="37.228849" lon="22.4215977"><ele>840.0</ele><time>2026-04-29T13:02:52.928Z</time></trkpt><trkpt lat="37.2286349" lon="22.4215942"><ele>840.3333333333333</ele><time>2026-04-29T13:02:53.927Z</time></trkpt><trkpt lat="37.2284149" lon="22.4215963"><ele>840.6666666666666</ele><time>2026-04-29T13:02:54.927Z</time></trkpt><trkpt lat="37.2281896" lon="22.4216018"><ele>841.0</ele><time>2026-04-29T13:02:55.927Z</time></trkpt><trkpt lat="37.2279617" lon="22.4216083"><ele>841.0</ele><time>2026-04-29T13:02:56.928Z</time></trkpt><trkpt lat="37.2277358" lon="22.4216145"><ele>841.0</ele><time>2026-04-29T13:02:57.927Z</time></trkpt><trkpt lat="37.2275083" lon="22.4216202"><ele>838.5</ele><time>2026-04-29T13:02:58.927Z</time></trkpt><trkpt lat="37.2272704" lon="22.4216239"><ele>836.0</ele><time>2026-04-29T13:02:59.928Z</time></trkpt><trkpt lat="37.2270459" lon="22.4216285"><ele>836.0</ele><time>2026-04-29T13:03:00.928Z</time></trkpt><trkpt lat="37.2268119" lon="22.4216342"><ele>836.0</ele><time>2026-04-29T13:03:01.927Z</time></trkpt><trkpt lat="37.2265763" lon="22.421643"><ele>833.5</ele><time>2026-04-29T13:03:02.928Z</time></trkpt><trkpt lat="37.2263384" lon="22.4216608"><ele>831.0</ele><time>2026-04-29T13:03:03.927Z</time></trkpt><trkpt lat="37.2260968" lon="22.4216902"><ele>831.0</ele><time>2026-04-29T13:03:04.927Z</time></trkpt><trkpt lat="37.2258549" lon="22.4217326"><ele>831.0</ele><time>2026-04-29T13:03:05.927Z</time></trkpt><trkpt lat="37.2256104" lon="22.4217903"><ele>827.5</ele><time>2026-04-29T13:03:06.927Z</time></trkpt><trkpt lat="37.225353" lon="22.4218676"><ele>824.0</ele><time>2026-04-29T13:03:07.928Z</time></trkpt><trkpt lat="37.225107" lon="22.4219521"><ele>824.0</ele><time>2026-04-29T13:03:08.928Z</time></trkpt><trkpt lat="37.2248508" lon="22.4220475"><ele>824.0</ele><time>2026-04-29T13:03:09.928Z</time></trkpt><trkpt lat="37.2245887" lon="22.4221479"><ele>826.0</ele><time>2026-04-29T13:03:10.928Z</time></trkpt><trkpt lat="37.2243198" lon="22.4222532"><ele>828.0</ele><time>2026-04-29T13:03:11.927Z</time></trkpt><trkpt lat="37.2240519" lon="22.4223593"><ele>823.0</ele><time>2026-04-29T13:03:12.927Z</time></trkpt><trkpt lat="37.2237867" lon="22.4224632"><ele>818.0</ele><time>2026-04-29T13:03:13.928Z</time></trkpt><trkpt lat="37.2235224" lon="22.4225698"><ele>818.0</ele><time>2026-04-29T13:03:14.928Z</time></trkpt><trkpt lat="37.2232498" lon="22.4226789"><ele>818.0</ele><time>2026-04-29T13:03:15.927Z</time></trkpt><trkpt lat="37.2229942" lon="22.4227799"><ele>820.5</ele><time>2026-04-29T13:03:16.928Z</time></trkpt><trkpt lat="37.2227302" lon="22.422885"><ele>823.0</ele><time>2026-04-29T13:03:17.928Z</time></trkpt><trkpt lat="37.2224654" lon="22.4229921"><ele>819.0</ele><time>2026-04-29T13:03:18.928Z</time></trkpt><trkpt lat="37.2221998" lon="22.4230984"><ele>815.0</ele><time>2026-04-29T13:03:19.927Z</time></trkpt><trkpt lat="37.2219346" lon="22.4232044"><ele>815.0</ele><time>2026-04-29T13:03:20.928Z</time></trkpt><trkpt lat="37.2216713" lon="22.4233084"><ele>815.0</ele><time>2026-04-29T13:03:21.928Z</time></trkpt><trkpt lat="37.2214101" lon="22.4234138"><ele>813.5</ele><time>2026-04-29T13:03:22.927Z</time></trkpt><trkpt lat="37.2211426" lon="22.4235215"><ele>812.0</ele><time>2026-04-29T13:03:23.928Z</time></trkpt><trkpt lat="37.2208935" lon="22.4236207"><ele>812.0</ele><time>2026-04-29T13:03:24.927Z</time></trkpt><trkpt lat="37.2206414" lon="22.4237211"><ele>812.0</ele><time>2026-04-29T13:03:25.928Z</time></trkpt><trkpt lat="37.2203994" lon="22.4238176"><ele>812.0</ele><time>2026-04-29T13:03:26.927Z</time></trkpt><trkpt lat="37.2201651" lon="22.4239087"><ele>812.0</ele><time>2026-04-29T13:03:27.928Z</time></trkpt><trkpt lat="37.2199362" lon="22.4239942"><ele>811.0</ele><time>2026-04-29T13:03:28.928Z</time></trkpt><trkpt lat="37.2197068" lon="22.4240695"><ele>810.0</ele><time>2026-04-29T13:03:29.927Z</time></trkpt><trkpt lat="37.2194762" lon="22.4241338"><ele>810.0</ele><time>2026-04-29T13:03:30.928Z</time></trkpt><trkpt lat="37.2192372" lon="22.4241901"><ele>810.0</ele><time>2026-04-29T13:03:31.927Z</time></trkpt><trkpt lat="37.2190124" lon="22.4242314"><ele>806.0</ele><time>2026-04-29T13:03:32.928Z</time></trkpt><trkpt lat="37.2187779" lon="22.4242575"><ele>802.0</ele><time>2026-04-29T13:03:33.928Z</time></trkpt><trkpt lat="37.2185405" lon="22.4242661"><ele>802.0</ele><time>2026-04-29T13:03:34.927Z</time></trkpt><trkpt lat="37.2182991" lon="22.4242572"><ele>802.0</ele><time>2026-04-29T13:03:35.927Z</time></trkpt><trkpt lat="37.2180534" lon="22.4242326"><ele>800.5</ele><time>2026-04-29T13:03:36.927Z</time></trkpt><trkpt lat="37.2178045" lon="22.4241952"><ele>799.0</ele><time>2026-04-29T13:03:37.928Z</time></trkpt><trkpt lat="37.2175532" lon="22.4241466"><ele>795.0</ele><time>2026-04-29T13:03:38.927Z</time></trkpt><trkpt lat="37.2172891" lon="22.4240879"><ele>791.0</ele><time>2026-04-29T13:03:39.927Z</time></trkpt><trkpt lat="37.2170396" lon="22.4240301"><ele>791.0</ele><time>2026-04-29T13:03:40.928Z</time></trkpt><trkpt lat="37.2167795" lon="22.4239694"><ele>791.0</ele><time>2026-04-29T13:03:41.928Z</time></trkpt><trkpt lat="37.2165166" lon="22.4239074"><ele>798.0</ele><time>2026-04-29T13:03:42.927Z</time></trkpt><trkpt lat="37.2162518" lon="22.4238449"><ele>805.0</ele><time>2026-04-29T13:03:43.928Z</time></trkpt><trkpt lat="37.2159858" lon="22.4237815"><ele>805.0</ele><time>2026-04-29T13:03:44.928Z</time></trkpt><trkpt lat="37.215719" lon="22.4237158"><ele>805.0</ele><time>2026-04-29T13:03:45.928Z</time></trkpt><trkpt lat="37.2154501" lon="22.4236514"><ele>802.0</ele><time>2026-04-29T13:03:46.927Z</time></trkpt><trkpt lat="37.2151696" lon="22.4235913"><ele>799.0</ele><time>2026-04-29T13:03:47.927Z</time></trkpt><trkpt lat="37.2149065" lon="22.4235392"><ele>793.0</ele><time>2026-04-29T13:03:48.927Z</time></trkpt><trkpt lat="37.2146347" lon="22.4234958"><ele>787.0</ele><time>2026-04-29T13:03:49.928Z</time></trkpt><trkpt lat="37.2143668" lon="22.4234579"><ele>787.0</ele><time>2026-04-29T13:03:50.927Z</time></trkpt><trkpt lat="37.2141047" lon="22.4234257"><ele>787.0</ele><time>2026-04-29T13:03:51.927Z</time></trkpt><trkpt lat="37.2138492" lon="22.4233989"><ele>787.5</ele><time>2026-04-29T13:03:52.927Z</time></trkpt><trkpt lat="37.2135982" lon="22.423379"><ele>788.0</ele><time>2026-04-29T13:03:53.927Z</time></trkpt><trkpt lat="37.2133516" lon="22.4233597"><ele>784.0</ele><time>2026-04-29T13:03:54.928Z</time></trkpt><trkpt lat="37.2131002" lon="22.4233412"><ele>780.0</ele><time>2026-04-29T13:03:55.928Z</time></trkpt><trkpt lat="37.2128657" lon="22.423323"><ele>780.0</ele><time>2026-04-29T13:03:56.928Z</time></trkpt><trkpt lat="37.2126224" lon="22.4233044"><ele>780.0</ele><time>2026-04-29T13:03:57.928Z</time></trkpt><trkpt lat="37.2123772" lon="22.4232866"><ele>771.0</ele><time>2026-04-29T13:03:58.928Z</time></trkpt><trkpt lat="37.2121361" lon="22.4232708"><ele>762.0</ele><time>2026-04-29T13:03:59.928Z</time></trkpt><trkpt lat="37.2118961" lon="22.4232615"><ele>762.0</ele><time>2026-04-29T13:04:00.927Z</time></trkpt><trkpt lat="37.2116547" lon="22.423265"><ele>762.0</ele><time>2026-04-29T13:04:01.927Z</time></trkpt><trkpt lat="37.2114099" lon="22.4232897"><ele>767.0</ele><time>2026-04-29T13:04:02.927Z</time></trkpt><trkpt lat="37.2111562" lon="22.4233407"><ele>772.0</ele><time>2026-04-29T13:04:03.928Z</time></trkpt><trkpt lat="37.2109178" lon="22.4234122"><ele>772.0</ele><time>2026-04-29T13:04:04.927Z</time></trkpt><trkpt lat="37.2106722" lon="22.4235115"><ele>772.0</ele><time>2026-04-29T13:04:05.928Z</time></trkpt><trkpt lat="37.210427" lon="22.4236297"><ele>778.0</ele><time>2026-04-29T13:04:06.928Z</time></trkpt><trkpt lat="37.2101883" lon="22.4237797"><ele>784.0</ele><time>2026-04-29T13:04:07.927Z</time></trkpt><trkpt lat="37.2099571" lon="22.4239563"><ele>780.5</ele><time>2026-04-29T13:04:08.927Z</time></trkpt><trkpt lat="37.2097323" lon="22.424153"><ele>777.0</ele><time>2026-04-29T13:04:09.927Z</time></trkpt><trkpt lat="37.2095156" lon="22.4243576"><ele>777.0</ele><time>2026-04-29T13:04:10.928Z</time></trkpt><trkpt lat="37.2093008" lon="22.4245644"><ele>777.0</ele><time>2026-04-29T13:04:11.928Z</time></trkpt><trkpt lat="37.2090993" lon="22.4247494"><ele>776.0</ele><time>2026-04-29T13:04:12.927Z</time></trkpt><trkpt lat="37.2088945" lon="22.424942"><ele>775.0</ele><time>2026-04-29T13:04:13.928Z</time></trkpt><trkpt lat="37.20869" lon="22.4251259"><ele>775.0</ele><time>2026-04-29T13:04:14.928Z</time></trkpt><trkpt lat="37.2084803" lon="22.4252981"><ele>775.0</ele><time>2026-04-29T13:04:15.928Z</time></trkpt><trkpt lat="37.2082636" lon="22.4254547"><ele>761.5</ele><time>2026-04-29T13:04:16.928Z</time></trkpt><trkpt lat="37.2080422" lon="22.4255952"><ele>748.0</ele><time>2026-04-29T13:04:17.928Z</time></trkpt><trkpt lat="37.2078157" lon="22.4257168"><ele>748.0</ele><time>2026-04-29T13:04:18.928Z</time></trkpt><trkpt lat="37.207578" lon="22.4258236"><ele>748.0</ele><time>2026-04-29T13:04:19.927Z</time></trkpt><trkpt lat="37.2073479" lon="22.4259065"><ele>753.5</ele><time>2026-04-29T13:04:20.928Z</time></trkpt><trkpt lat="37.2071049" lon="22.4259759"><ele>759.0</ele><time>2026-04-29T13:04:21.928Z</time></trkpt><trkpt lat="37.2068585" lon="22.4260317"><ele>759.0</ele><time>2026-04-29T13:04:22.927Z</time></trkpt><trkpt lat="37.2066103" lon="22.4260823"><ele>759.0</ele><time>2026-04-29T13:04:23.928Z</time></trkpt><trkpt lat="37.2063609" lon="22.4261297"><ele>759.0</ele><time>2026-04-29T13:04:24.927Z</time></trkpt><trkpt lat="37.2061123" lon="22.4261751"><ele>759.0</ele><time>2026-04-29T13:04:25.928Z</time></trkpt><trkpt lat="37.2058668" lon="22.426219"><ele>755.0</ele><time>2026-04-29T13:04:26.927Z</time></trkpt><trkpt lat="37.2056193" lon="22.4262629"><ele>751.0</ele><time>2026-04-29T13:04:27.927Z</time></trkpt><trkpt lat="37.2053939" lon="22.4262959"><ele>737.5</ele><time>2026-04-29T13:04:28.928Z</time></trkpt><trkpt lat="37.2051616" lon="22.4263158"><ele>724.0</ele><time>2026-04-29T13:04:29.927Z</time></trkpt><trkpt lat="37.20493" lon="22.4263149"><ele>730.0</ele><time>2026-04-29T13:04:30.927Z</time></trkpt><trkpt lat="37.2047005" lon="22.4262921"><ele>736.0</ele><time>2026-04-29T13:04:31.928Z</time></trkpt><trkpt lat="37.2044766" lon="22.4262421"><ele>736.0</ele><time>2026-04-29T13:04:32.927Z</time></trkpt><trkpt lat="37.2042621" lon="22.4261621"><ele>736.0</ele><time>2026-04-29T13:04:33.928Z</time></trkpt><trkpt lat="37.2040541" lon="22.4260519"><ele>725.5</ele><time>2026-04-29T13:04:34.928Z</time></trkpt><trkpt lat="37.2038466" lon="22.4259077"><ele>715.0</ele><time>2026-04-29T13:04:35.927Z</time></trkpt><trkpt lat="37.2036625" lon="22.4257478"><ele>715.0</ele><time>2026-04-29T13:04:36.928Z</time></trkpt><trkpt lat="37.2034857" lon="22.4255596"><ele>715.0</ele><time>2026-04-29T13:04:37.928Z</time></trkpt><trkpt lat="37.2033232" lon="22.4253486"><ele>721.5</ele><time>2026-04-29T13:04:38.927Z</time></trkpt><trkpt lat="37.2031762" lon="22.4251173"><ele>728.0</ele><time>2026-04-29T13:04:39.928Z</time></trkpt><trkpt lat="37.2030379" lon="22.424867"><ele>718.0</ele><time>2026-04-29T13:04:40.928Z</time></trkpt><trkpt lat="37.2029042" lon="22.4246029"><ele>708.0</ele><time>2026-04-29T13:04:41.927Z</time></trkpt><trkpt lat="37.2027717" lon="22.4243316"><ele>708.0</ele><time>2026-04-29T13:04:42.928Z</time></trkpt><trkpt lat="37.2026353" lon="22.4240454"><ele>708.0</ele><time>2026-04-29T13:04:43.928Z</time></trkpt><trkpt lat="37.2025057" lon="22.4237743"><ele>713.5</ele><time>2026-04-29T13:04:44.928Z</time></trkpt><trkpt lat="37.2023726" lon="22.4234978"><ele>719.0</ele><time>2026-04-29T13:04:45.928Z</time></trkpt><trkpt lat="37.2022368" lon="22.4232265"><ele>714.0</ele><time>2026-04-29T13:04:46.928Z</time></trkpt><trkpt lat="37.2020941" lon="22.4229685"><ele>709.0</ele><time>2026-04-29T13:04:47.928Z</time></trkpt><trkpt lat="37.2019369" lon="22.4227249"><ele>709.0</ele><time>2026-04-29T13:04:48.927Z</time></trkpt><trkpt lat="37.201761" lon="22.4225017"><ele>709.0</ele><time>2026-04-29T13:04:49.927Z</time></trkpt><trkpt lat="37.2015668" lon="22.422305"><ele>706.0</ele><time>2026-04-29T13:04:50.927Z</time></trkpt><trkpt lat="37.2013529" lon="22.4221354"><ele>703.0</ele><time>2026-04-29T13:04:51.927Z</time></trkpt><trkpt lat="37.201126" lon="22.421996"><ele>703.0</ele><time>2026-04-29T13:04:52.928Z</time></trkpt><trkpt lat="37.2008882" lon="22.4218877"><ele>703.0</ele><time>2026-04-29T13:04:53.927Z</time></trkpt><trkpt lat="37.2006439" lon="22.4218152"><ele>707.0</ele><time>2026-04-29T13:04:54.928Z</time></trkpt><trkpt lat="37.2003884" lon="22.4217779"><ele>711.0</ele><time>2026-04-29T13:04:55.927Z</time></trkpt><trkpt lat="37.2001281" lon="22.4217777"><ele>711.0</ele><time>2026-04-29T13:04:56.928Z</time></trkpt><trkpt lat="37.1998623" lon="22.4218144"><ele>711.0</ele><time>2026-04-29T13:04:57.928Z</time></trkpt><trkpt lat="37.1995902" lon="22.4218907"><ele>705.5</ele><time>2026-04-29T13:04:58.928Z</time></trkpt><trkpt lat="37.1993092" lon="22.4220126"><ele>700.0</ele><time>2026-04-29T13:04:59.928Z</time></trkpt><trkpt lat="37.1990517" lon="22.4221623"><ele>709.0</ele><time>2026-04-29T13:05:00.927Z</time></trkpt><trkpt lat="37.1987921" lon="22.422349"><ele>718.0</ele><time>2026-04-29T13:05:01.927Z</time></trkpt><trkpt lat="37.1985366" lon="22.4225567"><ele>718.0</ele><time>2026-04-29T13:05:02.928Z</time></trkpt><trkpt lat="37.198283" lon="22.4227734"><ele>718.0</ele><time>2026-04-29T13:05:03.927Z</time></trkpt><trkpt lat="37.1980291" lon="22.4229895"><ele>718.0</ele><time>2026-04-29T13:05:04.928Z</time></trkpt><trkpt lat="37.197777" lon="22.4232015"><ele>718.0</ele><time>2026-04-29T13:05:05.927Z</time></trkpt><trkpt lat="37.1975277" lon="22.4234065"><ele>726.5</ele><time>2026-04-29T13:05:06.927Z</time></trkpt><trkpt lat="37.1972758" lon="22.4236157"><ele>735.0</ele><time>2026-04-29T13:05:07.928Z</time></trkpt><trkpt lat="37.1970454" lon="22.423808"><ele>723.5</ele><time>2026-04-29T13:05:08.928Z</time></trkpt><trkpt lat="37.1968138" lon="22.4240034"><ele>712.0</ele><time>2026-04-29T13:05:09.928Z</time></trkpt><trkpt lat="37.196586" lon="22.4241945"><ele>718.0</ele><time>2026-04-29T13:05:10.928Z</time></trkpt><trkpt lat="37.1963604" lon="22.4243838"><ele>724.0</ele><time>2026-04-29T13:05:11.928Z</time></trkpt><trkpt lat="37.1961345" lon="22.4245723"><ele>716.5</ele><time>2026-04-29T13:05:12.927Z</time></trkpt><trkpt lat="37.1959129" lon="22.4247556"><ele>709.0</ele><time>2026-04-29T13:05:13.927Z</time></trkpt><trkpt lat="37.1956884" lon="22.4249419"><ele>712.0</ele><time>2026-04-29T13:05:14.928Z</time></trkpt><trkpt lat="37.1954593" lon="22.4251325"><ele>715.0</ele><time>2026-04-29T13:05:15.928Z</time></trkpt><trkpt lat="37.1952471" lon="22.425309"><ele>712.0</ele><time>2026-04-29T13:05:16.927Z</time></trkpt><trkpt lat="37.1950235" lon="22.4254869"><ele>709.0</ele><time>2026-04-29T13:05:17.927Z</time></trkpt><trkpt lat="37.1947903" lon="22.4256569"><ele>708.0</ele><time>2026-04-29T13:05:18.928Z</time></trkpt><trkpt lat="37.1945464" lon="22.4258117"><ele>707.0</ele><time>2026-04-29T13:05:19.927Z</time></trkpt><trkpt lat="37.1942929" lon="22.4259477"><ele>707.0</ele><time>2026-04-29T13:05:20.927Z</time></trkpt><trkpt lat="37.1940294" lon="22.4260623"><ele>707.0</ele><time>2026-04-29T13:05:21.927Z</time></trkpt><trkpt lat="37.1937573" lon="22.4261579"><ele>709.5</ele><time>2026-04-29T13:05:22.928Z</time></trkpt><trkpt lat="37.1934685" lon="22.4262421"><ele>712.0</ele><time>2026-04-29T13:05:23.927Z</time></trkpt><trkpt lat="37.1931927" lon="22.4263136"><ele>707.5</ele><time>2026-04-29T13:05:24.928Z</time></trkpt><trkpt lat="37.1929046" lon="22.4263838"><ele>703.0</ele><time>2026-04-29T13:05:25.928Z</time></trkpt><trkpt lat="37.1926158" lon="22.4264508"><ele>698.5</ele><time>2026-04-29T13:05:26.928Z</time></trkpt><trkpt lat="37.1923257" lon="22.4265207"><ele>694.0</ele><time>2026-04-29T13:05:27.927Z</time></trkpt><trkpt lat="37.1920341" lon="22.4265878"><ele>694.0</ele><time>2026-04-29T13:05:28.928Z</time></trkpt><trkpt lat="37.1917435" lon="22.4266553"><ele>694.0</ele><time>2026-04-29T13:05:29.927Z</time></trkpt><trkpt lat="37.191465" lon="22.4267193"><ele>690.0</ele><time>2026-04-29T13:05:30.927Z</time></trkpt><trkpt lat="37.1911824" lon="22.4267833"><ele>686.0</ele><time>2026-04-29T13:05:31.927Z</time></trkpt><trkpt lat="37.1909216" lon="22.4268424"><ele>682.0</ele><time>2026-04-29T13:05:32.927Z</time></trkpt><trkpt lat="37.1906669" lon="22.4269038"><ele>678.0</ele><time>2026-04-29T13:05:33.928Z</time></trkpt><trkpt lat="37.1904174" lon="22.4269743"><ele>678.0</ele><time>2026-04-29T13:05:34.927Z</time></trkpt><trkpt lat="37.1901683" lon="22.427063"><ele>678.0</ele><time>2026-04-29T13:05:35.928Z</time></trkpt><trkpt lat="37.1899309" lon="22.4271777"><ele>679.0</ele><time>2026-04-29T13:05:36.927Z</time></trkpt><trkpt lat="37.1897035" lon="22.427314"><ele>680.0</ele><time>2026-04-29T13:05:37.927Z</time></trkpt><trkpt lat="37.1894826" lon="22.4274725"><ele>680.0</ele><time>2026-04-29T13:05:38.928Z</time></trkpt><trkpt lat="37.1892644" lon="22.4276606"><ele>680.0</ele><time>2026-04-29T13:05:39.927Z</time></trkpt><trkpt lat="37.1890673" lon="22.4278592"><ele>677.5</ele><time>2026-04-29T13:05:40.927Z</time></trkpt><trkpt lat="37.188866" lon="22.4280804"><ele>675.0</ele><time>2026-04-29T13:05:41.928Z</time></trkpt><trkpt lat="37.1886639" lon="22.4283083"><ele>675.0</ele><time>2026-04-29T13:05:42.928Z</time></trkpt><trkpt lat="37.188461" lon="22.4285351"><ele>675.0</ele><time>2026-04-29T13:05:43.928Z</time></trkpt><trkpt lat="37.1882545" lon="22.428759"><ele>672.0</ele><time>2026-04-29T13:05:44.927Z</time></trkpt><trkpt lat="37.1880511" lon="22.4289752"><ele>669.0</ele><time>2026-04-29T13:05:45.927Z</time></trkpt><trkpt lat="37.1878519" lon="22.4291747"><ele>669.0</ele><time>2026-04-29T13:05:46.927Z</time></trkpt><trkpt lat="37.1876355" lon="22.4293661"><ele>669.0</ele><time>2026-04-29T13:05:47.928Z</time></trkpt><trkpt lat="37.1874212" lon="22.4295216"><ele>671.5</ele><time>2026-04-29T13:05:48.927Z</time></trkpt><trkpt lat="37.1871931" lon="22.429647"><ele>674.0</ele><time>2026-04-29T13:05:49.927Z</time></trkpt><trkpt lat="37.1869627" lon="22.4297426"><ele>674.0</ele><time>2026-04-29T13:05:50.927Z</time></trkpt><trkpt lat="37.1867203" lon="22.4298118"><ele>674.0</ele><time>2026-04-29T13:05:51.928Z</time></trkpt><trkpt lat="37.1864654" lon="22.4298483"><ele>671.0</ele><time>2026-04-29T13:05:52.927Z</time></trkpt><trkpt lat="37.1862133" lon="22.4298505"><ele>668.0</ele><time>2026-04-29T13:05:53.928Z</time></trkpt><trkpt lat="37.1859599" lon="22.4298249"><ele>668.0</ele><time>2026-04-29T13:05:54.927Z</time></trkpt><trkpt lat="37.1856924" lon="22.4297726"><ele>668.0</ele><time>2026-04-29T13:05:55.927Z</time></trkpt><trkpt lat="37.1854372" lon="22.4297104"><ele>663.0</ele><time>2026-04-29T13:05:56.927Z</time></trkpt><trkpt lat="37.1851798" lon="22.4296388"><ele>658.0</ele><time>2026-04-29T13:05:57.928Z</time></trkpt><trkpt lat="37.1849261" lon="22.4295661"><ele>657.5</ele><time>2026-04-29T13:05:58.927Z</time></trkpt><trkpt lat="37.1846761" lon="22.4294938"><ele>657.0</ele><time>2026-04-29T13:05:59.928Z</time></trkpt><trkpt lat="37.1844271" lon="22.4294237"><ele>657.0</ele><time>2026-04-29T13:06:00.928Z</time></trkpt><trkpt lat="37.1841794" lon="22.4293548"><ele>657.0</ele><time>2026-04-29T13:06:01.927Z</time></trkpt><trkpt lat="37.1839342" lon="22.4292892"><ele>657.0</ele><time>2026-04-29T13:06:02.927Z</time></trkpt><trkpt lat="37.1836864" lon="22.4292325"><ele>657.0</ele><time>2026-04-29T13:06:03.927Z</time></trkpt><trkpt lat="37.1834405" lon="22.4291938"><ele>657.0</ele><time>2026-04-29T13:06:04.927Z</time></trkpt><trkpt lat="37.1831913" lon="22.4291716"><ele>657.0</ele><time>2026-04-29T13:06:05.927Z</time></trkpt><trkpt lat="37.1829464" lon="22.4291682"><ele>657.0</ele><time>2026-04-29T13:06:06.927Z</time></trkpt><trkpt lat="37.1826903" lon="22.4291857"><ele>657.0</ele><time>2026-04-29T13:06:07.928Z</time></trkpt><trkpt lat="37.1824204" lon="22.4292301"><ele>659.5</ele><time>2026-04-29T13:06:08.928Z</time></trkpt><trkpt lat="37.1821523" lon="22.4292972"><ele>662.0</ele><time>2026-04-29T13:06:09.928Z</time></trkpt><trkpt lat="37.1818909" lon="22.4293766"><ele>662.0</ele><time>2026-04-29T13:06:10.927Z</time></trkpt><trkpt lat="37.1816155" lon="22.4294701"><ele>662.0</ele><time>2026-04-29T13:06:11.927Z</time></trkpt><trkpt lat="37.1813537" lon="22.4295634"><ele>659.5</ele><time>2026-04-29T13:06:12.927Z</time></trkpt><trkpt lat="37.1810978" lon="22.4296522"><ele>657.0</ele><time>2026-04-29T13:06:13.928Z</time></trkpt><trkpt lat="37.1808418" lon="22.4297392"><ele>659.0</ele><time>2026-04-29T13:06:14.928Z</time></trkpt><trkpt lat="37.1805835" lon="22.4298298"><ele>661.0</ele><time>2026-04-29T13:06:15.928Z</time></trkpt><trkpt lat="37.1803219" lon="22.4299228"><ele>661.0</ele><time>2026-04-29T13:06:16.927Z</time></trkpt><trkpt lat="37.1800552" lon="22.4300087"><ele>661.0</ele><time>2026-04-29T13:06:17.928Z</time></trkpt><trkpt lat="37.1797831" lon="22.430082"><ele>661.0</ele><time>2026-04-29T13:06:18.928Z</time></trkpt><trkpt lat="37.1794965" lon="22.4301451"><ele>661.0</ele><time>2026-04-29T13:06:19.928Z</time></trkpt><trkpt lat="37.1792269" lon="22.4301952"><ele>660.5</ele><time>2026-04-29T13:06:20.928Z</time></trkpt><trkpt lat="37.1789515" lon="22.4302344"><ele>660.0</ele><time>2026-04-29T13:06:21.927Z</time></trkpt><trkpt lat="37.178685" lon="22.4302662"><ele>660.0</ele><time>2026-04-29T13:06:22.928Z</time></trkpt><trkpt lat="37.1784156" lon="22.4302932"><ele>660.0</ele><time>2026-04-29T13:06:23.927Z</time></trkpt><trkpt lat="37.1781384" lon="22.4303205"><ele>661.0</ele><time>2026-04-29T13:06:24.928Z</time></trkpt><trkpt lat="37.1778726" lon="22.430345"><ele>662.0</ele><time>2026-04-29T13:06:25.927Z</time></trkpt><trkpt lat="37.1776284" lon="22.4303648"><ele>662.0</ele><time>2026-04-29T13:06:26.928Z</time></trkpt><trkpt lat="37.1773774" lon="22.4303816"><ele>662.0</ele><time>2026-04-29T13:06:27.927Z</time></trkpt><trkpt lat="37.1771426" lon="22.4303957"><ele>665.5</ele><time>2026-04-29T13:06:28.928Z</time></trkpt><trkpt lat="37.1769127" lon="22.43041"><ele>669.0</ele><time>2026-04-29T13:06:29.928Z</time></trkpt><trkpt lat="37.1766924" lon="22.4304268"><ele>666.5</ele><time>2026-04-29T13:06:30.927Z</time></trkpt><trkpt lat="37.1764659" lon="22.4304447"><ele>664.0</ele><time>2026-04-29T13:06:31.927Z</time></trkpt><trkpt lat="37.1762324" lon="22.4304614"><ele>664.0</ele><time>2026-04-29T13:06:32.928Z</time></trkpt><trkpt lat="37.1760049" lon="22.430473"><ele>664.0</ele><time>2026-04-29T13:06:33.928Z</time></trkpt><trkpt lat="37.1757819" lon="22.4304763"><ele>659.0</ele><time>2026-04-29T13:06:34.928Z</time></trkpt><trkpt lat="37.1755401" lon="22.4304691"><ele>654.0</ele><time>2026-04-29T13:06:35.927Z</time></trkpt><trkpt lat="37.1753028" lon="22.4304491"><ele>654.0</ele><time>2026-04-29T13:06:36.928Z</time></trkpt><trkpt lat="37.175064" lon="22.4304133"><ele>654.0</ele><time>2026-04-29T13:06:37.928Z</time></trkpt><trkpt lat="37.1748318" lon="22.4303642"><ele>649.0</ele><time>2026-04-29T13:06:38.927Z</time></trkpt><trkpt lat="37.1745937" lon="22.4302948"><ele>644.0</ele><time>2026-04-29T13:06:39.927Z</time></trkpt><trkpt lat="37.1743491" lon="22.4302025"><ele>644.0</ele><time>2026-04-29T13:06:40.928Z</time></trkpt><trkpt lat="37.1741139" lon="22.4300935"><ele>644.0</ele><time>2026-04-29T13:06:41.927Z</time></trkpt><trkpt lat="37.1738891" lon="22.4299713"><ele>641.5</ele><time>2026-04-29T13:06:42.927Z</time></trkpt><trkpt lat="37.1736555" lon="22.429826"><ele>639.0</ele><time>2026-04-29T13:06:43.928Z</time></trkpt><trkpt lat="37.1734418" lon="22.4296691"><ele>634.5</ele><time>2026-04-29T13:06:44.928Z</time></trkpt><trkpt lat="37.1732414" lon="22.4295009"><ele>630.0</ele><time>2026-04-29T13:06:45.927Z</time></trkpt><trkpt lat="37.1730538" lon="22.4293267"><ele>630.0</ele><time>2026-04-29T13:06:46.927Z</time></trkpt><trkpt lat="37.1728658" lon="22.4291346"><ele>630.0</ele><time>2026-04-29T13:06:47.928Z</time></trkpt><trkpt lat="37.1726759" lon="22.4289235"><ele>628.0</ele><time>2026-04-29T13:06:48.927Z</time></trkpt><trkpt lat="37.1724929" lon="22.4287112"><ele>626.0</ele><time>2026-04-29T13:06:49.927Z</time></trkpt><trkpt lat="37.1723167" lon="22.4285003"><ele>626.0</ele><time>2026-04-29T13:06:50.927Z</time></trkpt><trkpt lat="37.1721286" lon="22.4282718"><ele>626.0</ele><time>2026-04-29T13:06:51.928Z</time></trkpt><trkpt lat="37.1719448" lon="22.4280476"><ele>619.0</ele><time>2026-04-29T13:06:52.928Z</time></trkpt><trkpt lat="37.1717581" lon="22.4278199"><ele>612.0</ele><time>2026-04-29T13:06:53.928Z</time></trkpt><trkpt lat="37.1715763" lon="22.4275962"><ele>615.5</ele><time>2026-04-29T13:06:54.927Z</time></trkpt><trkpt lat="37.1713894" lon="22.4273653"><ele>619.0</ele><time>2026-04-29T13:06:55.927Z</time></trkpt><trkpt lat="37.1711972" lon="22.4271295"><ele>619.0</ele><time>2026-04-29T13:06:56.927Z</time></trkpt><trkpt lat="37.1710143" lon="22.4269075"><ele>619.0</ele><time>2026-04-29T13:06:57.928Z</time></trkpt><trkpt lat="37.1708424" lon="22.4266993"><ele>616.5</ele><time>2026-04-29T13:06:58.927Z</time></trkpt><trkpt lat="37.1706656" lon="22.4264841"><ele>614.0</ele><time>2026-04-29T13:06:59.927Z</time></trkpt><trkpt lat="37.1704995" lon="22.4262831"><ele>614.0</ele><time>2026-04-29T13:07:00.927Z</time></trkpt><trkpt lat="37.1703339" lon="22.4260945"><ele>614.0</ele><time>2026-04-29T13:07:01.928Z</time></trkpt><trkpt lat="37.1701711" lon="22.4259268"><ele>614.0</ele><time>2026-04-29T13:07:02.927Z</time></trkpt><trkpt lat="37.1699946" lon="22.425772"><ele>616.0</ele><time>2026-04-29T13:07:03.928Z</time></trkpt><trkpt lat="37.1698006" lon="22.4256328"><ele>618.0</ele><time>2026-04-29T13:07:04.928Z</time></trkpt><trkpt lat="37.1696004" lon="22.4255201"><ele>620.0</ele><time>2026-04-29T13:07:05.927Z</time></trkpt><trkpt lat="37.1693952" lon="22.4254327"><ele>621.0</ele><time>2026-04-29T13:07:06.928Z</time></trkpt><trkpt lat="37.1691649" lon="22.4253653"><ele>622.0</ele><time>2026-04-29T13:07:07.927Z</time></trkpt><trkpt lat="37.1689336" lon="22.4253279"><ele>618.5</ele><time>2026-04-29T13:07:08.928Z</time></trkpt><trkpt lat="37.1686985" lon="22.4253196"><ele>615.0</ele><time>2026-04-29T13:07:09.928Z</time></trkpt><trkpt lat="37.1684713" lon="22.4253405"><ele>615.0</ele><time>2026-04-29T13:07:10.928Z</time></trkpt><trkpt lat="37.1682375" lon="22.4253935"><ele>615.0</ele><time>2026-04-29T13:07:11.927Z</time></trkpt><trkpt lat="37.1680072" lon="22.4254872"><ele>608.0</ele><time>2026-04-29T13:07:12.928Z</time></trkpt><trkpt lat="37.1677795" lon="22.4256013"><ele>601.0</ele><time>2026-04-29T13:07:13.927Z</time></trkpt><trkpt lat="37.1675618" lon="22.4257275"><ele>599.5</ele><time>2026-04-29T13:07:14.927Z</time></trkpt><trkpt lat="37.1673328" lon="22.4258739"><ele>598.0</ele><time>2026-04-29T13:07:15.927Z</time></trkpt><trkpt lat="37.1671124" lon="22.4260223"><ele>598.0</ele><time>2026-04-29T13:07:16.928Z</time></trkpt><trkpt lat="37.1668912" lon="22.4261724"><ele>598.0</ele><time>2026-04-29T13:07:17.928Z</time></trkpt><trkpt lat="37.1666765" lon="22.4263157"><ele>593.5</ele><time>2026-04-29T13:07:18.928Z</time></trkpt><trkpt lat="37.1664534" lon="22.4264611"><ele>589.0</ele><time>2026-04-29T13:07:19.928Z</time></trkpt><trkpt lat="37.1662228" lon="22.4266098"><ele>589.0</ele><time>2026-04-29T13:07:20.928Z</time></trkpt><trkpt lat="37.1660038" lon="22.4267462"><ele>589.0</ele><time>2026-04-29T13:07:21.927Z</time></trkpt><trkpt lat="37.165793" lon="22.4268622"><ele>588.5</ele><time>2026-04-29T13:07:22.928Z</time></trkpt><trkpt lat="37.1655636" lon="22.4269603"><ele>588.0</ele><time>2026-04-29T13:07:23.927Z</time></trkpt><trkpt lat="37.1653345" lon="22.4270255"><ele>588.0</ele><time>2026-04-29T13:07:24.928Z</time></trkpt><trkpt lat="37.1650985" lon="22.4270622"><ele>588.0</ele><time>2026-04-29T13:07:25.927Z</time></trkpt><trkpt lat="37.1648646" lon="22.4270689"><ele>581.0</ele><time>2026-04-29T13:07:26.927Z</time></trkpt><trkpt lat="37.1646218" lon="22.4270456"><ele>574.0</ele><time>2026-04-29T13:07:27.928Z</time></trkpt><trkpt lat="37.1643704" lon="22.4269891"><ele>574.0</ele><time>2026-04-29T13:07:28.928Z</time></trkpt><trkpt lat="37.1641218" lon="22.4269093"><ele>574.0</ele><time>2026-04-29T13:07:29.928Z</time></trkpt><trkpt lat="37.1638777" lon="22.4268183"><ele>567.0</ele><time>2026-04-29T13:07:30.928Z</time></trkpt><trkpt lat="37.1636146" lon="22.4267141"><ele>560.0</ele><time>2026-04-29T13:07:31.927Z</time></trkpt><trkpt lat="37.1633582" lon="22.4266114"><ele>553.5</ele><time>2026-04-29T13:07:32.928Z</time></trkpt><trkpt lat="37.1631001" lon="22.4265101"><ele>547.0</ele><time>2026-04-29T13:07:33.927Z</time></trkpt><trkpt lat="37.1628497" lon="22.4264113"><ele>549.0</ele><time>2026-04-29T13:07:34.928Z</time></trkpt><trkpt lat="37.162591" lon="22.4263096"><ele>551.0</ele><time>2026-04-29T13:07:35.928Z</time></trkpt><trkpt lat="37.1623249" lon="22.4262037"><ele>551.0</ele><time>2026-04-29T13:07:36.927Z</time></trkpt><trkpt lat="37.1620676" lon="22.426099"><ele>551.0</ele><time>2026-04-29T13:07:37.927Z</time></trkpt><trkpt lat="37.1618207" lon="22.4259988"><ele>551.0</ele><time>2026-04-29T13:07:38.927Z</time></trkpt><trkpt lat="37.1615634" lon="22.4258944"><ele>551.0</ele><time>2026-04-29T13:07:39.928Z</time></trkpt><trkpt lat="37.1613188" lon="22.4257964"><ele>548.5</ele><time>2026-04-29T13:07:40.928Z</time></trkpt><trkpt lat="37.161077" lon="22.4256996"><ele>546.0</ele><time>2026-04-29T13:07:41.927Z</time></trkpt><trkpt lat="37.1608445" lon="22.4256074"><ele>544.5</ele><time>2026-04-29T13:07:42.928Z</time></trkpt><trkpt lat="37.1606086" lon="22.425512"><ele>543.0</ele><time>2026-04-29T13:07:43.928Z</time></trkpt><trkpt lat="37.1603717" lon="22.4254172"><ele>539.5</ele><time>2026-04-29T13:07:44.928Z</time></trkpt><trkpt lat="37.1601488" lon="22.4253277"><ele>536.0</ele><time>2026-04-29T13:07:45.928Z</time></trkpt><trkpt lat="37.1599381" lon="22.4252441"><ele>532.5</ele><time>2026-04-29T13:07:46.928Z</time></trkpt><trkpt lat="37.1597159" lon="22.4251625"><ele>529.0</ele><time>2026-04-29T13:07:47.927Z</time></trkpt><trkpt lat="37.1595021" lon="22.4251009"><ele>529.0</ele><time>2026-04-29T13:07:48.928Z</time></trkpt><trkpt lat="37.1592889" lon="22.4250639"><ele>529.0</ele><time>2026-04-29T13:07:49.928Z</time></trkpt><trkpt lat="37.1590828" lon="22.4250507"><ele>529.0</ele><time>2026-04-29T13:07:50.927Z</time></trkpt><trkpt lat="37.1588719" lon="22.4250645"><ele>527.0</ele><time>2026-04-29T13:07:51.928Z</time></trkpt><trkpt lat="37.1586554" lon="22.425101"><ele>525.0</ele><time>2026-04-29T13:07:52.928Z</time></trkpt><trkpt lat="37.1584504" lon="22.4251595"><ele>523.0</ele><time>2026-04-29T13:07:53.927Z</time></trkpt><trkpt lat="37.1582556" lon="22.4252396"><ele>519.0</ele><time>2026-04-29T13:07:54.927Z</time></trkpt><trkpt lat="37.1580536" lon="22.4253505"><ele>515.0</ele><time>2026-04-29T13:07:55.927Z</time></trkpt><trkpt lat="37.1578665" lon="22.4254865"><ele>511.0</ele><time>2026-04-29T13:07:56.928Z</time></trkpt><trkpt lat="37.1576898" lon="22.4256505"><ele>511.0</ele><time>2026-04-29T13:07:57.928Z</time></trkpt><trkpt lat="37.1575296" lon="22.4258432"><ele>511.0</ele><time>2026-04-29T13:07:58.927Z</time></trkpt><trkpt lat="37.1573707" lon="22.4260443"><ele>511.0</ele><time>2026-04-29T13:07:59.927Z</time></trkpt><trkpt lat="37.1572307" lon="22.4262827"><ele>504.5</ele><time>2026-04-29T13:08:00.928Z</time></trkpt><trkpt lat="37.1571115" lon="22.4265319"><ele>498.0</ele><time>2026-04-29T13:08:01.927Z</time></trkpt><trkpt lat="37.1570166" lon="22.4267898"><ele>498.0</ele><time>2026-04-29T13:08:02.928Z</time></trkpt><trkpt lat="37.1569343" lon="22.4270849"><ele>498.0</ele><time>2026-04-29T13:08:03.927Z</time></trkpt><trkpt lat="37.1568679" lon="22.427386"><ele>504.5</ele><time>2026-04-29T13:08:04.927Z</time></trkpt><trkpt lat="37.1568082" lon="22.4276969"><ele>511.0</ele><time>2026-04-29T13:08:05.927Z</time></trkpt><trkpt lat="37.1567492" lon="22.4280023"><ele>511.0</ele><time>2026-04-29T13:08:06.927Z</time></trkpt><trkpt lat="37.1566863" lon="22.4283202"><ele>511.0</ele><time>2026-04-29T13:08:07.928Z</time></trkpt><trkpt lat="37.1566204" lon="22.4286493"><ele>503.5</ele><time>2026-04-29T13:08:08.928Z</time></trkpt><trkpt lat="37.1565585" lon="22.428967"><ele>496.0</ele><time>2026-04-29T13:08:09.927Z</time></trkpt><trkpt lat="37.1564992" lon="22.4292725"><ele>491.0</ele><time>2026-04-29T13:08:10.927Z</time></trkpt><trkpt lat="37.1564358" lon="22.4295951"><ele>486.0</ele><time>2026-04-29T13:08:11.928Z</time></trkpt><trkpt lat="37.1563684" lon="22.4299"><ele>483.5</ele><time>2026-04-29T13:08:12.927Z</time></trkpt><trkpt lat="37.1562919" lon="22.4301966"><ele>481.0</ele><time>2026-04-29T13:08:13.928Z</time></trkpt><trkpt lat="37.1562053" lon="22.4304761"><ele>481.0</ele><time>2026-04-29T13:08:14.928Z</time></trkpt><trkpt lat="37.1561009" lon="22.4307581"><ele>481.0</ele><time>2026-04-29T13:08:15.928Z</time></trkpt><trkpt lat="37.1559762" lon="22.4310402"><ele>481.0</ele><time>2026-04-29T13:08:16.927Z</time></trkpt><trkpt lat="37.1558395" lon="22.4313058"><ele>481.0</ele><time>2026-04-29T13:08:17.927Z</time></trkpt><trkpt lat="37.1556939" lon="22.4315532"><ele>473.5</ele><time>2026-04-29T13:08:18.928Z</time></trkpt><trkpt lat="37.1555248" lon="22.4318025"><ele>466.0</ele><time>2026-04-29T13:08:19.928Z</time></trkpt><trkpt lat="37.1553479" lon="22.4320301"><ele>468.0</ele><time>2026-04-29T13:08:20.927Z</time></trkpt><trkpt lat="37.1551584" lon="22.4322418"><ele>470.0</ele><time>2026-04-29T13:08:21.928Z</time></trkpt><trkpt lat="37.1549631" lon="22.4324264"><ele>463.0</ele><time>2026-04-29T13:08:22.927Z</time></trkpt><trkpt lat="37.15475" lon="22.4325987"><ele>456.0</ele><time>2026-04-29T13:08:23.928Z</time></trkpt><trkpt lat="37.1545191" lon="22.4327572"><ele>456.0</ele><time>2026-04-29T13:08:24.928Z</time></trkpt><trkpt lat="37.1542889" lon="22.4328935"><ele>456.0</ele><time>2026-04-29T13:08:25.927Z</time></trkpt><trkpt lat="37.1540589" lon="22.4330038"><ele>462.0</ele><time>2026-04-29T13:08:26.927Z</time></trkpt><trkpt lat="37.1538075" lon="22.4331022"><ele>468.0</ele><time>2026-04-29T13:08:27.928Z</time></trkpt><trkpt lat="37.1535582" lon="22.4331871"><ele>468.0</ele><time>2026-04-29T13:08:28.928Z</time></trkpt><trkpt lat="37.1533048" lon="22.4332673"><ele>468.0</ele><time>2026-04-29T13:08:29.928Z</time></trkpt><trkpt lat="37.1530576" lon="22.4333406"><ele>463.0</ele><time>2026-04-29T13:08:30.927Z</time></trkpt><trkpt lat="37.1528003" lon="22.4334109"><ele>458.0</ele><time>2026-04-29T13:08:31.928Z</time></trkpt><trkpt lat="37.1525337" lon="22.4334777"><ele>454.0</ele><time>2026-04-29T13:08:32.927Z</time></trkpt><trkpt lat="37.1522747" lon="22.4335424"><ele>450.0</ele><time>2026-04-29T13:08:33.928Z</time></trkpt><trkpt lat="37.1520254" lon="22.433609"><ele>450.0</ele><time>2026-04-29T13:08:34.928Z</time></trkpt><trkpt lat="37.1517656" lon="22.4336814"><ele>450.0</ele><time>2026-04-29T13:08:35.928Z</time></trkpt><trkpt lat="37.1515193" lon="22.4337465"><ele>441.5</ele><time>2026-04-29T13:08:36.928Z</time></trkpt><trkpt lat="37.1512768" lon="22.4338005"><ele>433.0</ele><time>2026-04-29T13:08:37.928Z</time></trkpt><trkpt lat="37.1510413" lon="22.433838"><ele>426.0</ele><time>2026-04-29T13:08:38.928Z</time></trkpt><trkpt lat="37.1507966" lon="22.4338536"><ele>419.0</ele><time>2026-04-29T13:08:39.927Z</time></trkpt><trkpt lat="37.1505415" lon="22.4338475"><ele>417.5</ele><time>2026-04-29T13:08:40.928Z</time></trkpt><trkpt lat="37.1502951" lon="22.4338132"><ele>416.0</ele><time>2026-04-29T13:08:41.927Z</time></trkpt><trkpt lat="37.1500581" lon="22.4337516"><ele>419.5</ele><time>2026-04-29T13:08:42.927Z</time></trkpt><trkpt lat="37.1498114" lon="22.4336524"><ele>423.0</ele><time>2026-04-29T13:08:43.927Z</time></trkpt><trkpt lat="37.1495794" lon="22.4335265"><ele>423.0</ele><time>2026-04-29T13:08:44.927Z</time></trkpt><trkpt lat="37.1493561" lon="22.433372"><ele>423.0</ele><time>2026-04-29T13:08:45.927Z</time></trkpt><trkpt lat="37.1491474" lon="22.4331956"><ele>428.5</ele><time>2026-04-29T13:08:46.928Z</time></trkpt><trkpt lat="37.1489438" lon="22.4329877"><ele>434.0</ele><time>2026-04-29T13:08:47.927Z</time></trkpt><trkpt lat="37.1487527" lon="22.4327494"><ele>434.0</ele><time>2026-04-29T13:08:48.928Z</time></trkpt><trkpt lat="37.1485869" lon="22.4324935"><ele>434.0</ele><time>2026-04-29T13:08:49.928Z</time></trkpt><trkpt lat="37.1484422" lon="22.4322256"><ele>437.5</ele><time>2026-04-29T13:08:50.928Z</time></trkpt><trkpt lat="37.14831" lon="22.4319241"><ele>441.0</ele><time>2026-04-29T13:08:51.928Z</time></trkpt><trkpt lat="37.1481985" lon="22.4316179"><ele>441.0</ele><time>2026-04-29T13:08:52.927Z</time></trkpt><trkpt lat="37.1480975" lon="22.4313088"><ele>441.0</ele><time>2026-04-29T13:08:53.927Z</time></trkpt><trkpt lat="37.1480085" lon="22.4310118"><ele>434.0</ele><time>2026-04-29T13:08:54.928Z</time></trkpt><trkpt lat="37.1479176" lon="22.430717"><ele>427.0</ele><time>2026-04-29T13:08:55.928Z</time></trkpt><trkpt lat="37.1478266" lon="22.4304239"><ele>425.5</ele><time>2026-04-29T13:08:56.928Z</time></trkpt><trkpt lat="37.1477397" lon="22.4301487"><ele>424.0</ele><time>2026-04-29T13:08:57.928Z</time></trkpt><trkpt lat="37.1476553" lon="22.4298875"><ele>422.0</ele><time>2026-04-29T13:08:58.928Z</time></trkpt><trkpt lat="37.1475635" lon="22.4296132"><ele>420.0</ele><time>2026-04-29T13:08:59.928Z</time></trkpt><trkpt lat="37.1474698" lon="22.4293512"><ele>421.0</ele><time>2026-04-29T13:09:00.927Z</time></trkpt><trkpt lat="37.147366" lon="22.4290982"><ele>422.0</ele><time>2026-04-29T13:09:01.927Z</time></trkpt><trkpt lat="37.1472556" lon="22.4288634"><ele>423.0</ele><time>2026-04-29T13:09:02.928Z</time></trkpt><trkpt lat="37.1471333" lon="22.4286308"><ele>423.0</ele><time>2026-04-29T13:09:03.928Z</time></trkpt><trkpt lat="37.1469958" lon="22.4283974"><ele>423.0</ele><time>2026-04-29T13:09:04.927Z</time></trkpt><trkpt lat="37.14685" lon="22.4281784"><ele>417.5</ele><time>2026-04-29T13:09:05.928Z</time></trkpt><trkpt lat="37.1466916" lon="22.4279762"><ele>412.0</ele><time>2026-04-29T13:09:06.927Z</time></trkpt><trkpt lat="37.1465162" lon="22.427756"><ele>412.0</ele><time>2026-04-29T13:09:07.928Z</time></trkpt><trkpt lat="37.1463333" lon="22.4275614"><ele>412.0</ele><time>2026-04-29T13:09:08.927Z</time></trkpt><trkpt lat="37.1461431" lon="22.4273794"><ele>412.0</ele><time>2026-04-29T13:09:09.928Z</time></trkpt><trkpt lat="37.1459508" lon="22.4272181"><ele>412.0</ele><time>2026-04-29T13:09:10.927Z</time></trkpt><trkpt lat="37.1457451" lon="22.4270677"><ele>406.5</ele><time>2026-04-29T13:09:11.928Z</time></trkpt><trkpt lat="37.1455218" lon="22.4269292"><ele>401.0</ele><time>2026-04-29T13:09:12.927Z</time></trkpt><trkpt lat="37.145301" lon="22.4268085"><ele>401.0</ele><time>2026-04-29T13:09:13.927Z</time></trkpt><trkpt lat="37.1450897" lon="22.4266981"><ele>401.0</ele><time>2026-04-29T13:09:14.928Z</time></trkpt><trkpt lat="37.1448729" lon="22.4265759"><ele>402.0</ele><time>2026-04-29T13:09:15.927Z</time></trkpt><trkpt lat="37.1446755" lon="22.4264406"><ele>403.0</ele><time>2026-04-29T13:09:16.927Z</time></trkpt><trkpt lat="37.1444949" lon="22.4262863"><ele>404.0</ele><time>2026-04-29T13:09:17.927Z</time></trkpt><trkpt lat="37.144335" lon="22.426123"><ele>402.0</ele><time>2026-04-29T13:09:18.928Z</time></trkpt><trkpt lat="37.1441794" lon="22.4259507"><ele>400.0</ele><time>2026-04-29T13:09:19.928Z</time></trkpt><trkpt lat="37.1440229" lon="22.4257777"><ele>398.0</ele><time>2026-04-29T13:09:20.928Z</time></trkpt><trkpt lat="37.14387" lon="22.425621"><ele>398.0</ele><time>2026-04-29T13:09:21.927Z</time></trkpt><trkpt lat="37.1437168" lon="22.4254809"><ele>398.0</ele><time>2026-04-29T13:09:22.928Z</time></trkpt><trkpt lat="37.1435473" lon="22.4253414"><ele>398.0</ele><time>2026-04-29T13:09:23.928Z</time></trkpt><trkpt lat="37.1433773" lon="22.4252174"><ele>394.0</ele><time>2026-04-29T13:09:24.927Z</time></trkpt><trkpt lat="37.1431995" lon="22.4251084"><ele>390.0</ele><time>2026-04-29T13:09:25.927Z</time></trkpt><trkpt lat="37.1430191" lon="22.4250172"><ele>386.0</ele><time>2026-04-29T13:09:26.928Z</time></trkpt><trkpt lat="37.1428245" lon="22.4249381"><ele>386.0</ele><time>2026-04-29T13:09:27.928Z</time></trkpt><trkpt lat="37.1426162" lon="22.4248749"><ele>386.0</ele><time>2026-04-29T13:09:28.928Z</time></trkpt><trkpt lat="37.1424088" lon="22.4248312"><ele>386.0</ele><time>2026-04-29T13:09:29.927Z</time></trkpt><trkpt lat="37.1422062" lon="22.4248025"><ele>380.66666666666663</ele><time>2026-04-29T13:09:30.928Z</time></trkpt><trkpt lat="37.1419913" lon="22.4247829"><ele>375.3333333333333</ele><time>2026-04-29T13:09:31.928Z</time></trkpt><trkpt lat="37.141782" lon="22.424772"><ele>370.0</ele><time>2026-04-29T13:09:32.927Z</time></trkpt><trkpt lat="37.1415708" lon="22.4247661"><ele>366.66666666666663</ele><time>2026-04-29T13:09:33.927Z</time></trkpt><trkpt lat="37.1413641" lon="22.4247646"><ele>363.3333333333333</ele><time>2026-04-29T13:09:34.928Z</time></trkpt><trkpt lat="37.1411459" lon="22.4247653"><ele>360.0</ele><time>2026-04-29T13:09:35.928Z</time></trkpt><trkpt lat="37.1409187" lon="22.4247674"><ele>362.6666666666667</ele><time>2026-04-29T13:09:36.927Z</time></trkpt><trkpt lat="37.140701" lon="22.4247672"><ele>365.33333333333337</ele><time>2026-04-29T13:09:37.927Z</time></trkpt><trkpt lat="37.1404791" lon="22.4247626"><ele>368.0</ele><time>2026-04-29T13:09:38.927Z</time></trkpt><trkpt lat="37.1402463" lon="22.4247595"><ele>368.0</ele><time>2026-04-29T13:09:39.927Z</time></trkpt><trkpt lat="37.1400237" lon="22.4247586"><ele>368.0</ele><time>2026-04-29T13:09:40.927Z</time></trkpt><trkpt lat="37.1398022" lon="22.4247596"><ele>368.0</ele><time>2026-04-29T13:09:41.928Z</time></trkpt><trkpt lat="37.1395824" lon="22.4247623"><ele>368.33333333333337</ele><time>2026-04-29T13:09:42.928Z</time></trkpt><trkpt lat="37.1393605" lon="22.4247651"><ele>368.6666666666667</ele><time>2026-04-29T13:09:43.928Z</time></trkpt><trkpt lat="37.1391452" lon="22.424766"><ele>369.0</ele><time>2026-04-29T13:09:44.927Z</time></trkpt><trkpt lat="37.1389392" lon="22.4247663"><ele>367.6666666666667</ele><time>2026-04-29T13:09:45.927Z</time></trkpt><trkpt lat="37.1387455" lon="22.4247681"><ele>366.33333333333337</ele><time>2026-04-29T13:09:46.928Z</time></trkpt><trkpt lat="37.1385451" lon="22.4247734"><ele>365.0</ele><time>2026-04-29T13:09:47.928Z</time></trkpt><trkpt lat="37.1383602" lon="22.4247834"><ele>362.33333333333337</ele><time>2026-04-29T13:09:48.927Z</time></trkpt><trkpt lat="37.138186" lon="22.424801"><ele>359.6666666666667</ele><time>2026-04-29T13:09:49.928Z</time></trkpt><trkpt lat="37.13801" lon="22.424822"><ele>357.0</ele><time>2026-04-29T13:09:50.928Z</time></trkpt><trkpt lat="37.137831" lon="22.4248446"><ele>357.0</ele><time>2026-04-29T13:09:51.927Z</time></trkpt><trkpt lat="37.1376497" lon="22.4248661"><ele>357.0</ele><time>2026-04-29T13:09:52.927Z</time></trkpt><trkpt lat="37.1374812" lon="22.4248856"><ele>357.0</ele><time>2026-04-29T13:09:53.928Z</time></trkpt><trkpt lat="37.1373069" lon="22.4249041"><ele>355.0</ele><time>2026-04-29T13:09:54.928Z</time></trkpt><trkpt lat="37.1371233" lon="22.424914"><ele>353.0</ele><time>2026-04-29T13:09:55.928Z</time></trkpt><trkpt lat="37.1369447" lon="22.4249054"><ele>351.0</ele><time>2026-04-29T13:09:56.927Z</time></trkpt><trkpt lat="37.1367709" lon="22.424874"><ele>351.0</ele><time>2026-04-29T13:09:57.927Z</time></trkpt><trkpt lat="37.1365968" lon="22.4248222"><ele>351.0</ele><time>2026-04-29T13:09:58.928Z</time></trkpt><trkpt lat="37.1364243" lon="22.4247641"><ele>351.0</ele><time>2026-04-29T13:09:59.927Z</time></trkpt><trkpt lat="37.1362552" lon="22.424702"><ele>344.0</ele><time>2026-04-29T13:10:00.927Z</time></trkpt><trkpt lat="37.1360836" lon="22.4246307"><ele>337.0</ele><time>2026-04-29T13:10:01.928Z</time></trkpt><trkpt lat="37.1359184" lon="22.424555"><ele>330.0</ele><time>2026-04-29T13:10:02.928Z</time></trkpt><trkpt lat="37.1357391" lon="22.4244653"><ele>334.0</ele><time>2026-04-29T13:10:03.927Z</time></trkpt><trkpt lat="37.135568" lon="22.4243747"><ele>338.0</ele><time>2026-04-29T13:10:04.928Z</time></trkpt><trkpt lat="37.1353813" lon="22.4242659"><ele>342.0</ele><time>2026-04-29T13:10:05.928Z</time></trkpt><trkpt lat="37.1351907" lon="22.4241398"><ele>342.0</ele><time>2026-04-29T13:10:06.928Z</time></trkpt><trkpt lat="37.1349812" lon="22.4239789"><ele>342.0</ele><time>2026-04-29T13:10:07.927Z</time></trkpt><trkpt lat="37.1347614" lon="22.4237824"><ele>332.0</ele><time>2026-04-29T13:10:08.928Z</time></trkpt><trkpt lat="37.1345542" lon="22.4235706"><ele>322.0</ele><time>2026-04-29T13:10:09.928Z</time></trkpt><trkpt lat="37.1343578" lon="22.4233493"><ele>322.0</ele><time>2026-04-29T13:10:10.928Z</time></trkpt><trkpt lat="37.1341563" lon="22.4231116"><ele>322.0</ele><time>2026-04-29T13:10:11.927Z</time></trkpt><trkpt lat="37.1339694" lon="22.4228858"><ele>324.0</ele><time>2026-04-29T13:10:12.927Z</time></trkpt><trkpt lat="37.1337916" lon="22.422671"><ele>326.0</ele><time>2026-04-29T13:10:13.928Z</time></trkpt><trkpt lat="37.1336141" lon="22.4224589"><ele>326.0</ele><time>2026-04-29T13:10:14.928Z</time></trkpt><trkpt lat="37.1334338" lon="22.4222498"><ele>326.0</ele><time>2026-04-29T13:10:15.928Z</time></trkpt><trkpt lat="37.1332533" lon="22.422042"><ele>323.0</ele><time>2026-04-29T13:10:16.928Z</time></trkpt><trkpt lat="37.1330789" lon="22.4218398"><ele>320.0</ele><time>2026-04-29T13:10:17.928Z</time></trkpt><trkpt lat="37.1329116" lon="22.4216435"><ele>320.0</ele><time>2026-04-29T13:10:18.928Z</time></trkpt><trkpt lat="37.1327368" lon="22.4214367"><ele>320.0</ele><time>2026-04-29T13:10:19.927Z</time></trkpt><trkpt lat="37.1325712" lon="22.4212449"><ele>317.0</ele><time>2026-04-29T13:10:20.928Z</time></trkpt><trkpt lat="37.1324018" lon="22.4210515"><ele>314.0</ele><time>2026-04-29T13:10:21.928Z</time></trkpt><trkpt lat="37.132235" lon="22.4208605"><ele>314.0</ele><time>2026-04-29T13:10:22.927Z</time></trkpt><trkpt lat="37.1320686" lon="22.4206686"><ele>314.0</ele><time>2026-04-29T13:10:23.928Z</time></trkpt><trkpt lat="37.1318977" lon="22.4204711"><ele>316.0</ele><time>2026-04-29T13:10:24.928Z</time></trkpt><trkpt lat="37.1317243" lon="22.4202759"><ele>318.0</ele><time>2026-04-29T13:10:25.928Z</time></trkpt><trkpt lat="37.1315562" lon="22.4201015"><ele>318.0</ele><time>2026-04-29T13:10:26.927Z</time></trkpt><trkpt lat="37.1313665" lon="22.4199264"><ele>318.0</ele><time>2026-04-29T13:10:27.927Z</time></trkpt><trkpt lat="37.1311731" lon="22.4197746"><ele>308.0</ele><time>2026-04-29T13:10:28.927Z</time></trkpt><trkpt lat="37.1309693" lon="22.419641"><ele>298.0</ele><time>2026-04-29T13:10:29.928Z</time></trkpt><trkpt lat="37.1307626" lon="22.4195288"><ele>298.5</ele><time>2026-04-29T13:10:30.928Z</time></trkpt><trkpt lat="37.1305403" lon="22.4194344"><ele>299.0</ele><time>2026-04-29T13:10:31.927Z</time></trkpt><trkpt lat="37.130312" lon="22.4193666"><ele>299.0</ele><time>2026-04-29T13:10:32.927Z</time></trkpt><trkpt lat="37.1300809" lon="22.4193256"><ele>299.0</ele><time>2026-04-29T13:10:33.927Z</time></trkpt><trkpt lat="37.1298466" lon="22.4193099"><ele>293.5</ele><time>2026-04-29T13:10:34.927Z</time></trkpt><trkpt lat="37.1296042" lon="22.4193153"><ele>288.0</ele><time>2026-04-29T13:10:35.928Z</time></trkpt><trkpt lat="37.1293784" lon="22.4193367"><ele>288.0</ele><time>2026-04-29T13:10:36.928Z</time></trkpt><trkpt lat="37.1291463" lon="22.4193697"><ele>288.0</ele><time>2026-04-29T13:10:37.928Z</time></trkpt><trkpt lat="37.1289149" lon="22.4194102"><ele>289.5</ele><time>2026-04-29T13:10:38.928Z</time></trkpt><trkpt lat="37.1286837" lon="22.4194543"><ele>291.0</ele><time>2026-04-29T13:10:39.928Z</time></trkpt><trkpt lat="37.1284527" lon="22.4194983"><ele>292.5</ele><time>2026-04-29T13:10:40.928Z</time></trkpt><trkpt lat="37.1282208" lon="22.4195403"><ele>294.0</ele><time>2026-04-29T13:10:41.928Z</time></trkpt><trkpt lat="37.1279873" lon="22.4195817"><ele>294.0</ele><time>2026-04-29T13:10:42.928Z</time></trkpt><trkpt lat="37.1277453" lon="22.4196254"><ele>294.0</ele><time>2026-04-29T13:10:43.927Z</time></trkpt><trkpt lat="37.1275176" lon="22.4196657"><ele>291.0</ele><time>2026-04-29T13:10:44.928Z</time></trkpt><trkpt lat="37.1272816" lon="22.4197073"><ele>288.0</ele><time>2026-04-29T13:10:45.928Z</time></trkpt><trkpt lat="37.1270444" lon="22.4197492"><ele>288.0</ele><time>2026-04-29T13:10:46.928Z</time></trkpt><trkpt lat="37.1268055" lon="22.4197912"><ele>288.0</ele><time>2026-04-29T13:10:47.928Z</time></trkpt><trkpt lat="37.1265654" lon="22.4198349"><ele>284.0</ele><time>2026-04-29T13:10:48.927Z</time></trkpt><trkpt lat="37.1263236" lon="22.4198798"><ele>280.0</ele><time>2026-04-29T13:10:49.928Z</time></trkpt><trkpt lat="37.1260805" lon="22.419925"><ele>280.0</ele><time>2026-04-29T13:10:50.928Z</time></trkpt><trkpt lat="37.1258271" lon="22.41997"><ele>280.0</ele><time>2026-04-29T13:10:51.928Z</time></trkpt><trkpt lat="37.1255873" lon="22.420013"><ele>276.5</ele><time>2026-04-29T13:10:52.927Z</time></trkpt><trkpt lat="37.1253373" lon="22.4200572"><ele>273.0</ele><time>2026-04-29T13:10:53.928Z</time></trkpt><trkpt lat="37.1250863" lon="22.4201023"><ele>269.5</ele><time>2026-04-29T13:10:54.927Z</time></trkpt><trkpt lat="37.1248326" lon="22.4201485"><ele>266.0</ele><time>2026-04-29T13:10:55.927Z</time></trkpt><trkpt lat="37.1245783" lon="22.420194"><ele>266.0</ele><time>2026-04-29T13:10:56.928Z</time></trkpt><trkpt lat="37.1243242" lon="22.4202395"><ele>266.0</ele><time>2026-04-29T13:10:57.927Z</time></trkpt><trkpt lat="37.124071" lon="22.4202841"><ele>264.0</ele><time>2026-04-29T13:10:58.928Z</time></trkpt><trkpt lat="37.1238101" lon="22.4203288"><ele>262.0</ele><time>2026-04-29T13:10:59.927Z</time></trkpt><trkpt lat="37.1235662" lon="22.4203717"><ele>262.0</ele><time>2026-04-29T13:11:00.928Z</time></trkpt><trkpt lat="37.1233162" lon="22.4204157"><ele>262.0</ele><time>2026-04-29T13:11:01.928Z</time></trkpt><trkpt lat="37.1230667" lon="22.4204589"><ele>263.5</ele><time>2026-04-29T13:11:02.927Z</time></trkpt><trkpt lat="37.1228172" lon="22.4205018"><ele>265.0</ele><time>2026-04-29T13:11:03.928Z</time></trkpt><trkpt lat="37.1225653" lon="22.420547"><ele>260.5</ele><time>2026-04-29T13:11:04.927Z</time></trkpt><trkpt lat="37.1223125" lon="22.4205935"><ele>256.0</ele><time>2026-04-29T13:11:05.927Z</time></trkpt><trkpt lat="37.1220584" lon="22.4206381"><ele>256.0</ele><time>2026-04-29T13:11:06.927Z</time></trkpt><trkpt lat="37.1217938" lon="22.4206828"><ele>256.0</ele><time>2026-04-29T13:11:07.928Z</time></trkpt><trkpt lat="37.1215443" lon="22.4207283"><ele>253.5</ele><time>2026-04-29T13:11:08.927Z</time></trkpt><trkpt lat="37.1212857" lon="22.420778"><ele>251.0</ele><time>2026-04-29T13:11:09.928Z</time></trkpt><trkpt lat="37.1210251" lon="22.420827"><ele>251.0</ele><time>2026-04-29T13:11:10.927Z</time></trkpt><trkpt lat="37.1207637" lon="22.4208769"><ele>251.0</ele><time>2026-04-29T13:11:11.928Z</time></trkpt><trkpt lat="37.1205037" lon="22.4209247"><ele>248.0</ele><time>2026-04-29T13:11:12.927Z</time></trkpt><trkpt lat="37.1202418" lon="22.4209719"><ele>245.0</ele><time>2026-04-29T13:11:13.927Z</time></trkpt><trkpt lat="37.1199797" lon="22.4210186"><ele>243.0</ele><time>2026-04-29T13:11:14.927Z</time></trkpt><trkpt lat="37.1197101" lon="22.4210771"><ele>241.0</ele><time>2026-04-29T13:11:15.927Z</time></trkpt><trkpt lat="37.1194555" lon="22.421149"><ele>241.0</ele><time>2026-04-29T13:11:16.927Z</time></trkpt><trkpt lat="37.1191934" lon="22.421241"><ele>241.0</ele><time>2026-04-29T13:11:17.927Z</time></trkpt><trkpt lat="37.1189372" lon="22.4213522"><ele>240.5</ele><time>2026-04-29T13:11:18.928Z</time></trkpt><trkpt lat="37.1186877" lon="22.4214842"><ele>240.0</ele><time>2026-04-29T13:11:19.927Z</time></trkpt><trkpt lat="37.1184482" lon="22.421638"><ele>234.5</ele><time>2026-04-29T13:11:20.928Z</time></trkpt><trkpt lat="37.1182185" lon="22.4218087"><ele>229.0</ele><time>2026-04-29T13:11:21.928Z</time></trkpt><trkpt lat="37.1179988" lon="22.4219958"><ele>228.0</ele><time>2026-04-29T13:11:22.928Z</time></trkpt><trkpt lat="37.1177841" lon="22.4222065"><ele>227.0</ele><time>2026-04-29T13:11:23.927Z</time></trkpt><trkpt lat="37.1175957" lon="22.4224224"><ele>227.0</ele><time>2026-04-29T13:11:24.927Z</time></trkpt><trkpt lat="37.1174111" lon="22.4226604"><ele>227.0</ele><time>2026-04-29T13:11:25.928Z</time></trkpt><trkpt lat="37.1172365" lon="22.4229147"><ele>229.5</ele><time>2026-04-29T13:11:26.928Z</time></trkpt><trkpt lat="37.1170711" lon="22.4231791"><ele>232.0</ele><time>2026-04-29T13:11:27.928Z</time></trkpt><trkpt lat="37.1169132" lon="22.4234516"><ele>232.0</ele><time>2026-04-29T13:11:28.928Z</time></trkpt><trkpt lat="37.1167602" lon="22.4237294"><ele>232.0</ele><time>2026-04-29T13:11:29.928Z</time></trkpt><trkpt lat="37.116608" lon="22.4240106"><ele>233.5</ele><time>2026-04-29T13:11:30.928Z</time></trkpt><trkpt lat="37.1164501" lon="22.4243015"><ele>235.0</ele><time>2026-04-29T13:11:31.928Z</time></trkpt><trkpt lat="37.1163015" lon="22.4245738"><ele>233.5</ele><time>2026-04-29T13:11:32.927Z</time></trkpt><trkpt lat="37.1161487" lon="22.4248554"><ele>232.0</ele><time>2026-04-29T13:11:33.927Z</time></trkpt><trkpt lat="37.1159955" lon="22.4251393"><ele>232.0</ele><time>2026-04-29T13:11:34.927Z</time></trkpt><trkpt lat="37.1158431" lon="22.4254266"><ele>232.0</ele><time>2026-04-29T13:11:35.927Z</time></trkpt><trkpt lat="37.1156914" lon="22.4257152"><ele>231.0</ele><time>2026-04-29T13:11:36.928Z</time></trkpt><trkpt lat="37.1155382" lon="22.4260035"><ele>230.0</ele><time>2026-04-29T13:11:37.928Z</time></trkpt><trkpt lat="37.1153845" lon="22.4262903"><ele>232.0</ele><time>2026-04-29T13:11:38.928Z</time></trkpt><trkpt lat="37.115226" lon="22.4265836"><ele>234.0</ele><time>2026-04-29T13:11:39.928Z</time></trkpt><trkpt lat="37.1150796" lon="22.4268583"><ele>234.0</ele><time>2026-04-29T13:11:40.928Z</time></trkpt><trkpt lat="37.1149305" lon="22.4271416"><ele>234.0</ele><time>2026-04-29T13:11:41.928Z</time></trkpt><trkpt lat="37.1147814" lon="22.4274223"><ele>238.0</ele><time>2026-04-29T13:11:42.927Z</time></trkpt><trkpt lat="37.1146316" lon="22.4276999"><ele>242.0</ele><time>2026-04-29T13:11:43.927Z</time></trkpt><trkpt lat="37.1144824" lon="22.4279749"><ele>243.0</ele><time>2026-04-29T13:11:44.928Z</time></trkpt><trkpt lat="37.1143341" lon="22.4282481"><ele>244.0</ele><time>2026-04-29T13:11:45.927Z</time></trkpt><trkpt lat="37.1141885" lon="22.4285177"><ele>244.0</ele><time>2026-04-29T13:11:46.927Z</time></trkpt><trkpt lat="37.1140407" lon="22.4287896"><ele>244.0</ele><time>2026-04-29T13:11:47.927Z</time></trkpt><trkpt lat="37.1139069" lon="22.4290368"><ele>246.5</ele><time>2026-04-29T13:11:48.927Z</time></trkpt><trkpt lat="37.1137724" lon="22.4292865"><ele>249.0</ele><time>2026-04-29T13:11:49.928Z</time></trkpt><trkpt lat="37.1136423" lon="22.4295299"><ele>247.0</ele><time>2026-04-29T13:11:50.928Z</time></trkpt><trkpt lat="37.113517" lon="22.4297665"><ele>245.0</ele><time>2026-04-29T13:11:51.928Z</time></trkpt><trkpt lat="37.1133959" lon="22.4300002"><ele>243.0</ele><time>2026-04-29T13:11:52.928Z</time></trkpt><trkpt lat="37.1132791" lon="22.4302272"><ele>242.33333333333331</ele><time>2026-04-29T13:11:53.927Z</time></trkpt><trkpt lat="37.1131682" lon="22.4304434"><ele>241.66666666666666</ele><time>2026-04-29T13:11:54.928Z</time></trkpt><trkpt lat="37.1130564" lon="22.4306582"><ele>241.0</ele><time>2026-04-29T13:11:55.928Z</time></trkpt><trkpt lat="37.1129528" lon="22.4308561"><ele>240.33333333333331</ele><time>2026-04-29T13:11:56.927Z</time></trkpt><trkpt lat="37.1128461" lon="22.4310561"><ele>239.66666666666669</ele><time>2026-04-29T13:11:57.927Z</time></trkpt><trkpt lat="37.1127433" lon="22.4312465"><ele>239.0</ele><time>2026-04-29T13:11:58.927Z</time></trkpt><trkpt lat="37.1126428" lon="22.4314331"><ele>239.0</ele><time>2026-04-29T13:11:59.927Z</time></trkpt><trkpt lat="37.1125411" lon="22.4316169"><ele>239.0</ele><time>2026-04-29T13:12:00.927Z</time></trkpt><trkpt lat="37.1124351" lon="22.4317962"><ele>239.0</ele><time>2026-04-29T13:12:01.928Z</time></trkpt><trkpt lat="37.112319" lon="22.4319648"><ele>237.66666666666669</ele><time>2026-04-29T13:12:02.928Z</time></trkpt><trkpt lat="37.1121843" lon="22.4321248"><ele>236.33333333333331</ele><time>2026-04-29T13:12:03.928Z</time></trkpt><trkpt lat="37.1120464" lon="22.4322596"><ele>235.0</ele><time>2026-04-29T13:12:04.927Z</time></trkpt><trkpt lat="37.1118942" lon="22.4323894"><ele>235.0</ele><time>2026-04-29T13:12:05.927Z</time></trkpt><trkpt lat="37.1117363" lon="22.4325142"><ele>235.0</ele><time>2026-04-29T13:12:06.928Z</time></trkpt><trkpt lat="37.1115755" lon="22.432637"><ele>235.0</ele><time>2026-04-29T13:12:07.927Z</time></trkpt><trkpt lat="37.1114143" lon="22.432758"><ele>233.66666666666666</ele><time>2026-04-29T13:12:08.928Z</time></trkpt><trkpt lat="37.1112513" lon="22.4328749"><ele>232.33333333333331</ele><time>2026-04-29T13:12:09.927Z</time></trkpt><trkpt lat="37.1110894" lon="22.4329901"><ele>231.0</ele><time>2026-04-29T13:12:10.927Z</time></trkpt><trkpt lat="37.1109263" lon="22.4331054"><ele>231.0</ele><time>2026-04-29T13:12:11.928Z</time></trkpt><trkpt lat="37.1107782" lon="22.4332086"><ele>231.0</ele><time>2026-04-29T13:12:12.927Z</time></trkpt><trkpt lat="37.1106285" lon="22.4333089"><ele>231.0</ele><time>2026-04-29T13:12:13.927Z</time></trkpt><trkpt lat="37.1104815" lon="22.4334018"><ele>230.0</ele><time>2026-04-29T13:12:14.928Z</time></trkpt><trkpt lat="37.1103345" lon="22.4334834"><ele>229.0</ele><time>2026-04-29T13:12:15.927Z</time></trkpt><trkpt lat="37.1101814" lon="22.4335458"><ele>228.0</ele><time>2026-04-29T13:12:16.927Z</time></trkpt><trkpt lat="37.1100211" lon="22.4335821"><ele>226.0</ele><time>2026-04-29T13:12:17.927Z</time></trkpt><trkpt lat="37.1098552" lon="22.4335969"><ele>224.0</ele><time>2026-04-29T13:12:18.928Z</time></trkpt><trkpt lat="37.1096779" lon="22.4335956"><ele>222.0</ele><time>2026-04-29T13:12:19.927Z</time></trkpt><trkpt lat="37.1095083" lon="22.4335839"><ele>222.0</ele><time>2026-04-29T13:12:20.928Z</time></trkpt><trkpt lat="37.1093313" lon="22.4335678"><ele>222.0</ele><time>2026-04-29T13:12:21.928Z</time></trkpt><trkpt lat="37.1091548" lon="22.433549"><ele>222.0</ele><time>2026-04-29T13:12:22.928Z</time></trkpt><trkpt lat="37.1089793" lon="22.4335309"><ele>221.0</ele><time>2026-04-29T13:12:23.927Z</time></trkpt><trkpt lat="37.108805" lon="22.433515"><ele>220.0</ele><time>2026-04-29T13:12:24.928Z</time></trkpt><trkpt lat="37.1086313" lon="22.4335077"><ele>219.0</ele><time>2026-04-29T13:12:25.927Z</time></trkpt><trkpt lat="37.1084551" lon="22.4335213"><ele>219.0</ele><time>2026-04-29T13:12:26.927Z</time></trkpt><trkpt lat="37.1082646" lon="22.4335573"><ele>219.0</ele><time>2026-04-29T13:12:27.928Z</time></trkpt><trkpt lat="37.1080829" lon="22.4336104"><ele>219.0</ele><time>2026-04-29T13:12:28.927Z</time></trkpt><trkpt lat="37.1078957" lon="22.4336826"><ele>217.66666666666669</ele><time>2026-04-29T13:12:29.928Z</time></trkpt><trkpt lat="37.1077081" lon="22.4337641"><ele>216.33333333333334</ele><time>2026-04-29T13:12:30.927Z</time></trkpt><trkpt lat="37.10752" lon="22.4338513"><ele>215.0</ele><time>2026-04-29T13:12:31.928Z</time></trkpt><trkpt lat="37.1073302" lon="22.4339379"><ele>215.0</ele><time>2026-04-29T13:12:32.928Z</time></trkpt><trkpt lat="37.1071403" lon="22.4340219"><ele>215.0</ele><time>2026-04-29T13:12:33.927Z</time></trkpt><trkpt lat="37.1069526" lon="22.4341028"><ele>215.0</ele><time>2026-04-29T13:12:34.928Z</time></trkpt><trkpt lat="37.106758" lon="22.4341733"><ele>215.66666666666669</ele><time>2026-04-29T13:12:35.927Z</time></trkpt><trkpt lat="37.1065709" lon="22.4342211"><ele>216.33333333333331</ele><time>2026-04-29T13:12:36.927Z</time></trkpt><trkpt lat="37.1063761" lon="22.4342507"><ele>217.0</ele><time>2026-04-29T13:12:37.928Z</time></trkpt><trkpt lat="37.1061802" lon="22.4342571"><ele>217.0</ele><time>2026-04-29T13:12:38.927Z</time></trkpt><trkpt lat="37.1059845" lon="22.4342475"><ele>217.0</ele><time>2026-04-29T13:12:39.927Z</time></trkpt><trkpt lat="37.1057889" lon="22.4342271"><ele>217.0</ele><time>2026-04-29T13:12:40.927Z</time></trkpt><trkpt lat="37.1055932" lon="22.4342048"><ele>216.33333333333331</ele><time>2026-04-29T13:12:41.928Z</time></trkpt><trkpt lat="37.105397" lon="22.4341805"><ele>215.66666666666669</ele><time>2026-04-29T13:12:42.928Z</time></trkpt><trkpt lat="37.1051956" lon="22.4341551"><ele>215.0</ele><time>2026-04-29T13:12:43.928Z</time></trkpt><trkpt lat="37.1050082" lon="22.4341302"><ele>214.33333333333334</ele><time>2026-04-29T13:12:44.927Z</time></trkpt><trkpt lat="37.1048156" lon="22.4341046"><ele>213.66666666666669</ele><time>2026-04-29T13:12:45.928Z</time></trkpt><trkpt lat="37.1046249" lon="22.4340786"><ele>213.0</ele><time>2026-04-29T13:12:46.928Z</time></trkpt><trkpt lat="37.1044363" lon="22.4340535"><ele>213.0</ele><time>2026-04-29T13:12:47.927Z</time></trkpt><trkpt lat="37.1042492" lon="22.4340313"><ele>213.0</ele><time>2026-04-29T13:12:48.927Z</time></trkpt><trkpt lat="37.1040633" lon="22.4340114"><ele>213.0</ele><time>2026-04-29T13:12:49.927Z</time></trkpt><trkpt lat="37.1038804" lon="22.4339905"><ele>213.0</ele><time>2026-04-29T13:12:50.927Z</time></trkpt><trkpt lat="37.1037003" lon="22.4339689"><ele>213.0</ele><time>2026-04-29T13:12:51.927Z</time></trkpt><trkpt lat="37.1035371" lon="22.4339495"><ele>213.0</ele><time>2026-04-29T13:12:52.928Z</time></trkpt><trkpt lat="37.1033705" lon="22.4339286"><ele>213.66666666666669</ele><time>2026-04-29T13:12:53.928Z</time></trkpt><trkpt lat="37.1032051" lon="22.4339076"><ele>214.33333333333334</ele><time>2026-04-29T13:12:54.927Z</time></trkpt><trkpt lat="37.1030392" lon="22.4338849"><ele>215.0</ele><time>2026-04-29T13:12:55.928Z</time></trkpt><trkpt lat="37.1028726" lon="22.4338639"><ele>215.0</ele><time>2026-04-29T13:12:56.928Z</time></trkpt><trkpt lat="37.1027065" lon="22.4338442"><ele>215.0</ele><time>2026-04-29T13:12:57.928Z</time></trkpt><trkpt lat="37.102542" lon="22.4338239"><ele>215.0</ele><time>2026-04-29T13:12:58.928Z</time></trkpt><trkpt lat="37.102374" lon="22.4338036"><ele>213.0</ele><time>2026-04-29T13:12:59.928Z</time></trkpt><trkpt lat="37.1022226" lon="22.433785"><ele>211.0</ele><time>2026-04-29T13:13:00.927Z</time></trkpt><trkpt lat="37.1020714" lon="22.4337676"><ele>209.0</ele><time>2026-04-29T13:13:01.927Z</time></trkpt><trkpt lat="37.1019254" lon="22.4337495"><ele>209.0</ele><time>2026-04-29T13:13:02.928Z</time></trkpt><trkpt lat="37.1017847" lon="22.433731"><ele>209.0</ele><time>2026-04-29T13:13:03.927Z</time></trkpt><trkpt lat="37.1016502" lon="22.4337154"><ele>209.0</ele><time>2026-04-29T13:13:04.928Z</time></trkpt><trkpt lat="37.1015168" lon="22.4336976"><ele>209.0</ele><time>2026-04-29T13:13:05.928Z</time></trkpt><trkpt lat="37.1013847" lon="22.4336733"><ele>209.25</ele><time>2026-04-29T13:13:06.927Z</time></trkpt><trkpt lat="37.1012469" lon="22.4336497"><ele>209.5</ele><time>2026-04-29T13:13:07.927Z</time></trkpt><trkpt lat="37.1011164" lon="22.4336199"><ele>209.75</ele><time>2026-04-29T13:13:08.927Z</time></trkpt><trkpt lat="37.1009808" lon="22.4335731"><ele>210.0</ele><time>2026-04-29T13:13:09.928Z</time></trkpt><trkpt lat="37.1008428" lon="22.4335132"><ele>210.66666666666669</ele><time>2026-04-29T13:13:10.928Z</time></trkpt><trkpt lat="37.1007008" lon="22.4334481"><ele>211.33333333333334</ele><time>2026-04-29T13:13:11.928Z</time></trkpt><trkpt lat="37.1005563" lon="22.4333841"><ele>212.0</ele><time>2026-04-29T13:13:12.927Z</time></trkpt><trkpt lat="37.1004076" lon="22.4333196"><ele>212.0</ele><time>2026-04-29T13:13:13.927Z</time></trkpt><trkpt lat="37.1002566" lon="22.4332586"><ele>212.0</ele><time>2026-04-29T13:13:14.927Z</time></trkpt><trkpt lat="37.1000973" lon="22.4331967"><ele>212.0</ele><time>2026-04-29T13:13:15.928Z</time></trkpt><trkpt lat="37.0999423" lon="22.4331405"><ele>211.66666666666669</ele><time>2026-04-29T13:13:16.927Z</time></trkpt><trkpt lat="37.0997764" lon="22.4330843"><ele>211.33333333333331</ele><time>2026-04-29T13:13:17.927Z</time></trkpt><trkpt lat="37.099606" lon="22.433029"><ele>211.0</ele><time>2026-04-29T13:13:18.928Z</time></trkpt><trkpt lat="37.0994332" lon="22.4329738"><ele>210.66666666666666</ele><time>2026-04-29T13:13:19.928Z</time></trkpt><trkpt lat="37.0992585" lon="22.4329226"><ele>210.33333333333331</ele><time>2026-04-29T13:13:20.927Z</time></trkpt><trkpt lat="37.0990825" lon="22.4328773"><ele>210.0</ele><time>2026-04-29T13:13:21.927Z</time></trkpt><trkpt lat="37.098906" lon="22.4328358"><ele>209.33333333333331</ele><time>2026-04-29T13:13:22.927Z</time></trkpt><trkpt lat="37.0987248" lon="22.4327943"><ele>208.66666666666666</ele><time>2026-04-29T13:13:23.928Z</time></trkpt><trkpt lat="37.0985528" lon="22.4327577"><ele>208.0</ele><time>2026-04-29T13:13:24.927Z</time></trkpt><trkpt lat="37.0983752" lon="22.4327197"><ele>207.66666666666666</ele><time>2026-04-29T13:13:25.928Z</time></trkpt><trkpt lat="37.0981981" lon="22.4326821"><ele>207.33333333333331</ele><time>2026-04-29T13:13:26.928Z</time></trkpt><trkpt lat="37.0980203" lon="22.4326449"><ele>207.0</ele><time>2026-04-29T13:13:27.927Z</time></trkpt><trkpt lat="37.0978429" lon="22.432609"><ele>207.0</ele><time>2026-04-29T13:13:28.928Z</time></trkpt><trkpt lat="37.0976637" lon="22.4325732"><ele>207.0</ele><time>2026-04-29T13:13:29.927Z</time></trkpt><trkpt lat="37.0974836" lon="22.4325371"><ele>207.0</ele><time>2026-04-29T13:13:30.927Z</time></trkpt><trkpt lat="37.0972962" lon="22.4324992"><ele>206.66666666666669</ele><time>2026-04-29T13:13:31.928Z</time></trkpt><trkpt lat="37.0971198" lon="22.4324636"><ele>206.33333333333334</ele><time>2026-04-29T13:13:32.928Z</time></trkpt><trkpt lat="37.0969379" lon="22.4324276"><ele>206.0</ele><time>2026-04-29T13:13:33.927Z</time></trkpt><trkpt lat="37.0967539" lon="22.4323927"><ele>204.33333333333334</ele><time>2026-04-29T13:13:34.928Z</time></trkpt><trkpt lat="37.0965786" lon="22.4323602"><ele>202.66666666666669</ele><time>2026-04-29T13:13:35.928Z</time></trkpt><trkpt lat="37.0963933" lon="22.4323221"><ele>201.0</ele><time>2026-04-29T13:13:36.927Z</time></trkpt><trkpt lat="37.0962144" lon="22.4322834"><ele>201.0</ele><time>2026-04-29T13:13:37.928Z</time></trkpt><trkpt lat="37.0960368" lon="22.4322417"><ele>201.0</ele><time>2026-04-29T13:13:38.928Z</time></trkpt><trkpt lat="37.0958581" lon="22.4322024"><ele>201.0</ele><time>2026-04-29T13:13:39.928Z</time></trkpt><trkpt lat="37.0956791" lon="22.4321634"><ele>200.33333333333331</ele><time>2026-04-29T13:13:40.927Z</time></trkpt><trkpt lat="37.0955011" lon="22.4321232"><ele>199.66666666666666</ele><time>2026-04-29T13:13:41.927Z</time></trkpt><trkpt lat="37.0953269" lon="22.4320832"><ele>199.0</ele><time>2026-04-29T13:13:42.927Z</time></trkpt><trkpt lat="37.0951498" lon="22.4320429"><ele>199.0</ele><time>2026-04-29T13:13:43.928Z</time></trkpt><trkpt lat="37.0949706" lon="22.4320024"><ele>199.0</ele><time>2026-04-29T13:13:44.927Z</time></trkpt><trkpt lat="37.0947893" lon="22.4319603"><ele>199.0</ele><time>2026-04-29T13:13:45.928Z</time></trkpt><trkpt lat="37.0946066" lon="22.4319188"><ele>198.66666666666666</ele><time>2026-04-29T13:13:46.928Z</time></trkpt><trkpt lat="37.0944162" lon="22.4318772"><ele>198.33333333333331</ele><time>2026-04-29T13:13:47.927Z</time></trkpt><trkpt lat="37.094237" lon="22.4318393"><ele>198.0</ele><time>2026-04-29T13:13:48.928Z</time></trkpt><trkpt lat="37.094051" lon="22.4318"><ele>197.33333333333331</ele><time>2026-04-29T13:13:49.928Z</time></trkpt><trkpt lat="37.0938654" lon="22.431757"><ele>196.66666666666666</ele><time>2026-04-29T13:13:50.927Z</time></trkpt><trkpt lat="37.0936828" lon="22.4317169"><ele>196.0</ele><time>2026-04-29T13:13:51.928Z</time></trkpt><trkpt lat="37.0935021" lon="22.4316732"><ele>196.0</ele><time>2026-04-29T13:13:52.927Z</time></trkpt><trkpt lat="37.0933248" lon="22.4316297"><ele>196.0</ele><time>2026-04-29T13:13:53.927Z</time></trkpt><trkpt lat="37.0931502" lon="22.4315846"><ele>196.0</ele><time>2026-04-29T13:13:54.928Z</time></trkpt><trkpt lat="37.092972" lon="22.431538"><ele>196.0</ele><time>2026-04-29T13:13:55.927Z</time></trkpt><trkpt lat="37.092807" lon="22.4314966"><ele>196.0</ele><time>2026-04-29T13:13:56.927Z</time></trkpt><trkpt lat="37.0926373" lon="22.4314542"><ele>196.0</ele><time>2026-04-29T13:13:57.927Z</time></trkpt><trkpt lat="37.0924703" lon="22.4314095"><ele>195.66666666666666</ele><time>2026-04-29T13:13:58.928Z</time></trkpt><trkpt lat="37.0923044" lon="22.4313621"><ele>195.33333333333331</ele><time>2026-04-29T13:13:59.928Z</time></trkpt><trkpt lat="37.0921357" lon="22.4313139"><ele>195.0</ele><time>2026-04-29T13:14:00.928Z</time></trkpt><trkpt lat="37.0919683" lon="22.4312654"><ele>194.33333333333331</ele><time>2026-04-29T13:14:01.927Z</time></trkpt><trkpt lat="37.0917909" lon="22.4312165"><ele>193.66666666666666</ele><time>2026-04-29T13:14:02.928Z</time></trkpt><trkpt lat="37.0916061" lon="22.4311718"><ele>193.0</ele><time>2026-04-29T13:14:03.928Z</time></trkpt><trkpt lat="37.0914218" lon="22.4311295"><ele>193.0</ele><time>2026-04-29T13:14:04.928Z</time></trkpt><trkpt lat="37.09124" lon="22.4310884"><ele>193.0</ele><time>2026-04-29T13:14:05.928Z</time></trkpt><trkpt lat="37.0910626" lon="22.4310469"><ele>193.0</ele><time>2026-04-29T13:14:06.927Z</time></trkpt><trkpt lat="37.0908931" lon="22.4310076"><ele>192.66666666666666</ele><time>2026-04-29T13:14:07.928Z</time></trkpt><trkpt lat="37.090714" lon="22.4309669"><ele>192.33333333333331</ele><time>2026-04-29T13:14:08.927Z</time></trkpt><trkpt lat="37.0905403" lon="22.4309282"><ele>192.0</ele><time>2026-04-29T13:14:09.927Z</time></trkpt><trkpt lat="37.0903667" lon="22.430891"><ele>192.0</ele><time>2026-04-29T13:14:10.928Z</time></trkpt><trkpt lat="37.090189" lon="22.4308543"><ele>192.0</ele><time>2026-04-29T13:14:11.927Z</time></trkpt><trkpt lat="37.0900213" lon="22.430818"><ele>192.0</ele><time>2026-04-29T13:14:12.928Z</time></trkpt><trkpt lat="37.0898482" lon="22.4307803"><ele>191.66666666666666</ele><time>2026-04-29T13:14:13.927Z</time></trkpt><trkpt lat="37.0896752" lon="22.4307427"><ele>191.33333333333331</ele><time>2026-04-29T13:14:14.928Z</time></trkpt><trkpt lat="37.0895026" lon="22.4307049"><ele>191.0</ele><time>2026-04-29T13:14:15.928Z</time></trkpt><trkpt lat="37.0893304" lon="22.4306681"><ele>191.0</ele><time>2026-04-29T13:14:16.928Z</time></trkpt><trkpt lat="37.0891584" lon="22.4306316"><ele>191.0</ele><time>2026-04-29T13:14:17.928Z</time></trkpt><trkpt lat="37.0889864" lon="22.4305943"><ele>191.0</ele><time>2026-04-29T13:14:18.928Z</time></trkpt><trkpt lat="37.0888075" lon="22.4305562"><ele>190.66666666666666</ele><time>2026-04-29T13:14:19.928Z</time></trkpt><trkpt lat="37.0886389" lon="22.4305199"><ele>190.33333333333334</ele><time>2026-04-29T13:14:20.928Z</time></trkpt><trkpt lat="37.0884629" lon="22.430482"><ele>190.0</ele><time>2026-04-29T13:14:21.928Z</time></trkpt><trkpt lat="37.0882858" lon="22.4304445"><ele>191.0</ele><time>2026-04-29T13:14:22.927Z</time></trkpt><trkpt lat="37.0881086" lon="22.4304059"><ele>192.0</ele><time>2026-04-29T13:14:23.927Z</time></trkpt><trkpt lat="37.087932" lon="22.4303675"><ele>193.0</ele><time>2026-04-29T13:14:24.928Z</time></trkpt><trkpt lat="37.0877557" lon="22.4303277"><ele>193.0</ele><time>2026-04-29T13:14:25.928Z</time></trkpt><trkpt lat="37.0875795" lon="22.4302883"><ele>193.0</ele><time>2026-04-29T13:14:26.928Z</time></trkpt><trkpt lat="37.0874006" lon="22.4302476"><ele>193.0</ele><time>2026-04-29T13:14:27.928Z</time></trkpt><trkpt lat="37.0872345" lon="22.4302128"><ele>193.0</ele><time>2026-04-29T13:14:28.927Z</time></trkpt><trkpt lat="37.0870666" lon="22.4301814"><ele>193.0</ele><time>2026-04-29T13:14:29.928Z</time></trkpt><trkpt lat="37.0869018" lon="22.4301581"><ele>193.0</ele><time>2026-04-29T13:14:30.927Z</time></trkpt><trkpt lat="37.0867406" lon="22.430146"><ele>193.33333333333331</ele><time>2026-04-29T13:14:31.927Z</time></trkpt><trkpt lat="37.0865826" lon="22.4301456"><ele>193.66666666666669</ele><time>2026-04-29T13:14:32.928Z</time></trkpt><trkpt lat="37.0864262" lon="22.4301596"><ele>194.0</ele><time>2026-04-29T13:14:33.928Z</time></trkpt><trkpt lat="37.0862749" lon="22.4301853"><ele>194.0</ele><time>2026-04-29T13:14:34.927Z</time></trkpt><trkpt lat="37.0861333" lon="22.4302228"><ele>194.0</ele><time>2026-04-29T13:14:35.928Z</time></trkpt><trkpt lat="37.0860022" lon="22.4302678"><ele>194.0</ele><time>2026-04-29T13:14:36.927Z</time></trkpt><trkpt lat="37.0858776" lon="22.4303239"><ele>194.0</ele><time>2026-04-29T13:14:37.927Z</time></trkpt><trkpt lat="37.0857538" lon="22.4303936"><ele>194.75</ele><time>2026-04-29T13:14:38.928Z</time></trkpt><trkpt lat="37.0856352" lon="22.4304743"><ele>195.5</ele><time>2026-04-29T13:14:39.927Z</time></trkpt><trkpt lat="37.0855112" lon="22.4305673"><ele>196.25</ele><time>2026-04-29T13:14:40.928Z</time></trkpt><trkpt lat="37.0853938" lon="22.4306571"><ele>197.0</ele><time>2026-04-29T13:14:41.927Z</time></trkpt><trkpt lat="37.0852777" lon="22.4307481"><ele>197.0</ele><time>2026-04-29T13:14:42.927Z</time></trkpt><trkpt lat="37.0851582" lon="22.4308391"><ele>197.0</ele><time>2026-04-29T13:14:43.927Z</time></trkpt><trkpt lat="37.0850522" lon="22.4309203"><ele>197.0</ele><time>2026-04-29T13:14:44.927Z</time></trkpt><trkpt lat="37.0849485" lon="22.4309969"><ele>197.0</ele><time>2026-04-29T13:14:45.927Z</time></trkpt><trkpt lat="37.0848478" lon="22.4310694"><ele>197.0</ele><time>2026-04-29T13:14:46.927Z</time></trkpt><trkpt lat="37.084749" lon="22.4311422"><ele>197.0</ele><time>2026-04-29T13:14:47.928Z</time></trkpt><trkpt lat="37.0846523" lon="22.4312127"><ele>197.0</ele><time>2026-04-29T13:14:48.927Z</time></trkpt><trkpt lat="37.0845571" lon="22.4312799"><ele>197.0</ele><time>2026-04-29T13:14:49.927Z</time></trkpt><trkpt lat="37.0844623" lon="22.4313486"><ele>197.0</ele><time>2026-04-29T13:14:50.928Z</time></trkpt><trkpt lat="37.0843643" lon="22.4314256"><ele>197.0</ele><time>2026-04-29T13:14:51.928Z</time></trkpt><trkpt lat="37.084269" lon="22.4314999"><ele>197.0</ele><time>2026-04-29T13:14:52.928Z</time></trkpt><trkpt lat="37.0841675" lon="22.4315785"><ele>197.0</ele><time>2026-04-29T13:14:53.927Z</time></trkpt><trkpt lat="37.0840626" lon="22.4316559"><ele>197.0</ele><time>2026-04-29T13:14:54.927Z</time></trkpt><trkpt lat="37.0839606" lon="22.4317308"><ele>197.0</ele><time>2026-04-29T13:14:55.928Z</time></trkpt><trkpt lat="37.0838513" lon="22.4318125"><ele>197.0</ele><time>2026-04-29T13:14:56.927Z</time></trkpt><trkpt lat="37.0837461" lon="22.4318934"><ele>197.0</ele><time>2026-04-29T13:14:57.928Z</time></trkpt><trkpt lat="37.0836402" lon="22.4319718"><ele>197.0</ele><time>2026-04-29T13:14:58.927Z</time></trkpt><trkpt lat="37.0835341" lon="22.4320502"><ele>197.0</ele><time>2026-04-29T13:14:59.927Z</time></trkpt><trkpt lat="37.083428" lon="22.4321302"><ele>197.0</ele><time>2026-04-29T13:15:00.928Z</time></trkpt><trkpt lat="37.0833283" lon="22.4322046"><ele>197.0</ele><time>2026-04-29T13:15:01.927Z</time></trkpt><trkpt lat="37.0832286" lon="22.4322768"><ele>197.0</ele><time>2026-04-29T13:15:02.927Z</time></trkpt><trkpt lat="37.0831279" lon="22.4323491"><ele>198.25</ele><time>2026-04-29T13:15:03.928Z</time></trkpt><trkpt lat="37.0830163" lon="22.4324326"><ele>199.5</ele><time>2026-04-29T13:15:04.928Z</time></trkpt><trkpt lat="37.0829067" lon="22.4325192"><ele>200.75</ele><time>2026-04-29T13:15:05.928Z</time></trkpt><trkpt lat="37.0827953" lon="22.4326056"><ele>202.0</ele><time>2026-04-29T13:15:06.927Z</time></trkpt><trkpt lat="37.0826846" lon="22.4326913"><ele>202.0</ele><time>2026-04-29T13:15:07.928Z</time></trkpt><trkpt lat="37.0825755" lon="22.4327742"><ele>202.0</ele><time>2026-04-29T13:15:08.927Z</time></trkpt><trkpt lat="37.082468" lon="22.4328575"><ele>202.0</ele><time>2026-04-29T13:15:09.927Z</time></trkpt><trkpt lat="37.0823622" lon="22.4329398"><ele>202.0</ele><time>2026-04-29T13:15:10.927Z</time></trkpt><trkpt lat="37.0822607" lon="22.4330182"><ele>202.2</ele><time>2026-04-29T13:15:11.928Z</time></trkpt><trkpt lat="37.0821555" lon="22.4330978"><ele>202.39999999999998</ele><time>2026-04-29T13:15:12.928Z</time></trkpt><trkpt lat="37.0820647" lon="22.4331646"><ele>202.60000000000002</ele><time>2026-04-29T13:15:13.927Z</time></trkpt><trkpt lat="37.0819948" lon="22.4332156"><ele>202.8</ele><time>2026-04-29T13:15:14.927Z</time></trkpt><trkpt lat="37.0819241" lon="22.4332632"><ele>203.0</ele><time>2026-04-29T13:15:15.927Z</time></trkpt><trkpt lat="37.0818531" lon="22.4333102"><ele>203.00000000000003</ele><time>2026-04-29T13:15:16.928Z</time></trkpt><trkpt lat="37.0817726" lon="22.4333623"><ele>203.0</ele><time>2026-04-29T13:15:17.927Z</time></trkpt><trkpt lat="37.0816883" lon="22.4334149"><ele>203.0</ele><time>2026-04-29T13:15:18.928Z</time></trkpt><trkpt lat="37.081604" lon="22.4334595"><ele>203.0</ele><time>2026-04-29T13:15:19.928Z</time></trkpt><trkpt lat="37.0815269" lon="22.433507"><ele>203.00000000000003</ele><time>2026-04-29T13:15:20.928Z</time></trkpt><trkpt lat="37.0814606" lon="22.433545"><ele>203.0</ele><time>2026-04-29T13:15:21.928Z</time></trkpt><trkpt lat="37.0813973" lon="22.4335499"><ele>203.50000000000003</ele><time>2026-04-29T13:15:22.928Z</time></trkpt><trkpt lat="37.0812853" lon="22.433496"><ele>204.0</ele><time>2026-04-29T13:15:24.927Z</time></trkpt><trkpt lat="37.0812252" lon="22.4334468"><ele>204.5</ele><time>2026-04-29T13:15:25.927Z</time></trkpt><trkpt lat="37.0811613" lon="22.4333808"><ele>205.0</ele><time>2026-04-29T13:15:26.928Z</time></trkpt><trkpt lat="37.0810952" lon="22.4333228"><ele>205.50000000000003</ele><time>2026-04-29T13:15:27.928Z</time></trkpt><trkpt lat="37.0810233" lon="22.4332624"><ele>206.0</ele><time>2026-04-29T13:15:28.928Z</time></trkpt><trkpt lat="37.0809516" lon="22.4332001"><ele>206.00000000000003</ele><time>2026-04-29T13:15:29.927Z</time></trkpt><trkpt lat="37.0808779" lon="22.4331353"><ele>206.0</ele><time>2026-04-29T13:15:30.927Z</time></trkpt><trkpt lat="37.0808009" lon="22.4330697"><ele>206.0</ele><time>2026-04-29T13:15:31.928Z</time></trkpt><trkpt lat="37.0807285" lon="22.4330063"><ele>206.0</ele><time>2026-04-29T13:15:32.928Z</time></trkpt><trkpt lat="37.0806618" lon="22.4329448"><ele>206.00000000000003</ele><time>2026-04-29T13:15:33.928Z</time></trkpt><trkpt lat="37.0806035" lon="22.4328815"><ele>206.0</ele><time>2026-04-29T13:15:34.928Z</time></trkpt><trkpt lat="37.0805583" lon="22.4328176"><ele>206.83333333333334</ele><time>2026-04-29T13:15:35.927Z</time></trkpt><trkpt lat="37.0805244" lon="22.4327485"><ele>207.66666666666669</ele><time>2026-04-29T13:15:36.928Z</time></trkpt><trkpt lat="37.0804693" lon="22.4326143"><ele>208.5</ele><time>2026-04-29T13:15:38.928Z</time></trkpt><trkpt lat="37.080439" lon="22.4325393"><ele>209.33333333333331</ele><time>2026-04-29T13:15:39.928Z</time></trkpt><trkpt lat="37.0804091" lon="22.432465"><ele>210.16666666666666</ele><time>2026-04-29T13:15:40.927Z</time></trkpt><trkpt lat="37.0803666" lon="22.4323338"><ele>211.0</ele><time>2026-04-29T13:15:42.928Z</time></trkpt><trkpt lat="37.0803168" lon="22.432226"><ele>210.66666666666666</ele><time>2026-04-29T13:15:44.928Z</time></trkpt><trkpt lat="37.0802588" lon="22.4320999"><ele>210.33333333333331</ele><time>2026-04-29T13:15:46.927Z</time></trkpt><trkpt lat="37.0802204" lon="22.4320163"><ele>210.0</ele><time>2026-04-29T13:15:47.927Z</time></trkpt><trkpt lat="37.0801857" lon="22.4319287"><ele>209.66666666666669</ele><time>2026-04-29T13:15:48.928Z</time></trkpt><trkpt lat="37.0801563" lon="22.4318571"><ele>209.33333333333334</ele><time>2026-04-29T13:15:49.927Z</time></trkpt><trkpt lat="37.0801136" lon="22.4317564"><ele>209.0</ele><time>2026-04-29T13:15:51.928Z</time></trkpt><trkpt lat="37.0800863" lon="22.4316647"><ele>209.00000000000003</ele><time>2026-04-29T13:15:54.928Z</time></trkpt><trkpt lat="37.080038" lon="22.4315431"><ele>209.0</ele><time>2026-04-29T13:15:56.928Z</time></trkpt><trkpt lat="37.0800034" lon="22.4314678"><ele>209.0</ele><time>2026-04-29T13:15:57.928Z</time></trkpt><trkpt lat="37.0799672" lon="22.4313835"><ele>209.0</ele><time>2026-04-29T13:15:58.927Z</time></trkpt><trkpt lat="37.0799289" lon="22.4313008"><ele>209.00000000000003</ele><time>2026-04-29T13:15:59.927Z</time></trkpt><trkpt lat="37.0798869" lon="22.4312162"><ele>209.0</ele><time>2026-04-29T13:16:00.928Z</time></trkpt><trkpt lat="37.0798455" lon="22.4311282"><ele>209.16666666666669</ele><time>2026-04-29T13:16:01.928Z</time></trkpt><trkpt lat="37.0798053" lon="22.4310393"><ele>209.33333333333334</ele><time>2026-04-29T13:16:02.928Z</time></trkpt><trkpt lat="37.0797674" lon="22.4309479"><ele>209.5</ele><time>2026-04-29T13:16:03.927Z</time></trkpt><trkpt lat="37.079731" lon="22.4308614"><ele>209.66666666666669</ele><time>2026-04-29T13:16:04.927Z</time></trkpt><trkpt lat="37.079698" lon="22.4307786"><ele>209.83333333333334</ele><time>2026-04-29T13:16:05.928Z</time></trkpt><trkpt lat="37.0796647" lon="22.4306981"><ele>210.0</ele><time>2026-04-29T13:16:06.927Z</time></trkpt><trkpt lat="37.0796095" lon="22.4305678"><ele>210.0</ele><time>2026-04-29T13:16:08.927Z</time></trkpt><trkpt lat="37.0795789" lon="22.4304898"><ele>210.0</ele><time>2026-04-29T13:16:10.927Z</time></trkpt><trkpt lat="37.0795235" lon="22.4304029"><ele>210.0</ele><time>2026-04-29T13:16:14.928Z</time></trkpt><trkpt lat="37.0794653" lon="22.4303498"><ele>210.0</ele><time>2026-04-29T13:16:16.928Z</time></trkpt><trkpt lat="37.0794276" lon="22.4302425"><ele>210.0</ele><time>2026-04-29T13:16:18.928Z</time></trkpt><trkpt lat="37.0794064" lon="22.4301638"><ele>210.0</ele><time>2026-04-29T13:16:19.927Z</time></trkpt><trkpt lat="37.079384" lon="22.4300725"><ele>210.16666666666666</ele><time>2026-04-29T13:16:20.927Z</time></trkpt><trkpt lat="37.0793662" lon="22.4299721"><ele>210.33333333333331</ele><time>2026-04-29T13:16:21.928Z</time></trkpt><trkpt lat="37.0793431" lon="22.4298692"><ele>210.5</ele><time>2026-04-29T13:16:22.927Z</time></trkpt><trkpt lat="37.0793199" lon="22.4297616"><ele>210.66666666666666</ele><time>2026-04-29T13:16:23.928Z</time></trkpt><trkpt lat="37.0792967" lon="22.429652"><ele>210.83333333333331</ele><time>2026-04-29T13:16:24.927Z</time></trkpt><trkpt lat="37.0792716" lon="22.4295362"><ele>211.0</ele><time>2026-04-29T13:16:25.927Z</time></trkpt><trkpt lat="37.0792462" lon="22.4294172"><ele>210.99999999999997</ele><time>2026-04-29T13:16:26.928Z</time></trkpt><trkpt lat="37.0792191" lon="22.4292916"><ele>211.0</ele><time>2026-04-29T13:16:27.928Z</time></trkpt><trkpt lat="37.0791923" lon="22.4291755"><ele>211.0</ele><time>2026-04-29T13:16:28.928Z</time></trkpt><trkpt lat="37.0791688" lon="22.429072"><ele>211.0</ele><time>2026-04-29T13:16:29.928Z</time></trkpt><trkpt lat="37.0791477" lon="22.4289749"><ele>210.99999999999997</ele><time>2026-04-29T13:16:30.928Z</time></trkpt><trkpt lat="37.0791317" lon="22.4288891"><ele>211.0</ele><time>2026-04-29T13:16:31.927Z</time></trkpt><trkpt lat="37.0791224" lon="22.4287672"><ele>210.71428571428572</ele><time>2026-04-29T13:16:33.927Z</time></trkpt><trkpt lat="37.0791148" lon="22.4286589"><ele>210.42857142857144</ele><time>2026-04-29T13:16:43.927Z</time></trkpt><trkpt lat="37.0791205" lon="22.4285767"><ele>210.14285714285714</ele><time>2026-04-29T13:16:45.928Z</time></trkpt><trkpt lat="37.0791014" lon="22.4286879"><ele>209.85714285714286</ele><time>2026-04-29T13:17:36.954Z</time></trkpt><trkpt lat="37.0790974" lon="22.4286023"><ele>209.57142857142856</ele><time>2026-04-29T13:17:45.954Z</time></trkpt><trkpt lat="37.0790914" lon="22.4285209"><ele>209.28571428571428</ele><time>2026-04-29T13:17:52.954Z</time></trkpt><trkpt lat="37.0791263" lon="22.4285895"><ele>209.0</ele><time>2026-04-29T13:19:05.954Z</time></trkpt><trkpt lat="37.0791123" lon="22.4286786"><ele>209.0</ele><time>2026-04-29T13:19:57.954Z</time></trkpt><trkpt lat="37.0790859" lon="22.4286006"><ele>209.0</ele><time>2026-04-29T13:22:01.952Z</time></trkpt><trkpt lat="37.0791168" lon="22.4285312"><ele>209.0</ele><time>2026-04-29T13:22:07.91Z</time></trkpt><trkpt lat="37.079055" lon="22.4284883"><ele>209.0</ele><time>2026-04-29T13:23:28.955Z</time></trkpt><trkpt lat="37.0790122" lon="22.4284103"><ele>209.0</ele><time>2026-04-29T13:24:27.955Z</time></trkpt><trkpt lat="37.0789404" lon="22.4283758"><ele>209.0</ele><time>2026-04-29T13:24:32.955Z</time></trkpt><trkpt lat="37.0788763" lon="22.4283653"><ele>209.0</ele><time>2026-04-29T13:24:37.952Z</time></trkpt><trkpt lat="37.0788145" lon="22.4283824"><ele>208.85714285714286</ele><time>2026-04-29T13:24:43.951Z</time></trkpt><trkpt lat="37.078803" lon="22.428302"><ele>208.71428571428572</ele><time>2026-04-29T13:24:49.898Z</time></trkpt><trkpt lat="37.0788874" lon="22.4282754"><ele>208.57142857142856</ele><time>2026-04-29T13:29:09.951Z</time></trkpt><trkpt lat="37.0789323" lon="22.4283434"><ele>208.42857142857144</ele><time>2026-04-29T13:31:25.953Z</time></trkpt><trkpt lat="37.0789442" lon="22.4284319"><ele>208.2857142857143</ele><time>2026-04-29T13:31:31.95Z</time></trkpt><trkpt lat="37.0789666" lon="22.4285095"><ele>208.14285714285714</ele><time>2026-04-29T13:31:37.952Z</time></trkpt><trkpt lat="37.0790142" lon="22.4285713"><ele>208.0</ele><time>2026-04-29T13:31:43.952Z</time></trkpt><trkpt lat="37.079066" lon="22.4286268"><ele>208.0</ele><time>2026-04-29T13:31:49.951Z</time></trkpt><trkpt lat="37.0791015" lon="22.428698"><ele>208.0</ele><time>2026-04-29T13:31:55.897Z</time></trkpt><trkpt lat="37.0790485" lon="22.4286531"><ele>208.0</ele><time>2026-04-29T13:33:07.954Z</time></trkpt><trkpt lat="37.0790214" lon="22.428556"><ele>208.0</ele><time>2026-04-29T13:33:23.954Z</time></trkpt><trkpt lat="37.0789558" lon="22.4285727"><ele>208.0</ele><time>2026-04-29T13:33:29.951Z</time></trkpt><trkpt lat="37.0789054" lon="22.428514"><ele>208.0</ele><time>2026-04-29T13:33:36.954Z</time></trkpt><trkpt lat="37.078853" lon="22.4284682"><ele>208.0</ele><time>2026-04-29T13:33:42.954Z</time></trkpt><trkpt lat="37.0788082" lon="22.4284052"><ele>208.0</ele><time>2026-04-29T13:33:48.954Z</time></trkpt><trkpt lat="37.0788177" lon="22.4283219"><ele>208.0</ele><time>2026-04-29T13:34:01.953Z</time></trkpt><trkpt lat="37.0788528" lon="22.4284012"><ele>208.0</ele><time>2026-04-29T13:36:11.953Z</time></trkpt><trkpt lat="37.0788909" lon="22.4284666"><ele>208.0</ele><time>2026-04-29T13:38:09.951Z</time></trkpt><trkpt lat="37.0789486" lon="22.4285048"><ele>208.0</ele><time>2026-04-29T13:38:14.952Z</time></trkpt><trkpt lat="37.0789948" lon="22.4285654"><ele>208.0</ele><time>2026-04-29T13:38:22.954Z</time></trkpt><trkpt lat="37.0790536" lon="22.4285954"><ele>208.0</ele><time>2026-04-29T13:38:27.954Z</time></trkpt><trkpt lat="37.0791036" lon="22.4286618"><ele>208.0</ele><time>2026-04-29T13:38:33.95Z</time></trkpt><trkpt lat="37.0791544" lon="22.4287122"><ele>208.0</ele><time>2026-04-29T13:38:39.952Z</time></trkpt><trkpt lat="37.079011" lon="22.4286295"><ele>208.0</ele><time>2026-04-29T13:40:51.945Z</time></trkpt><trkpt lat="37.0790967" lon="22.4286336"><ele>208.0</ele><time>2026-04-29T13:41:23.945Z</time></trkpt><trkpt lat="37.0789905" lon="22.4283306"><ele>207.99999999999997</ele><time>2026-04-29T13:41:51.946Z</time></trkpt><trkpt lat="37.0789758" lon="22.428229"><ele>208.0</ele><time>2026-04-29T13:41:53.946Z</time></trkpt><trkpt lat="37.0789581" lon="22.4281361"><ele>208.0</ele><time>2026-04-29T13:41:55.945Z</time></trkpt><trkpt lat="37.0789465" lon="22.4280551"><ele>208.0</ele><time>2026-04-29T13:41:57.946Z</time></trkpt><trkpt lat="37.0789199" lon="22.4279397"><ele>207.99999999999997</ele><time>2026-04-29T13:42:00.945Z</time></trkpt><trkpt lat="37.0788968" lon="22.4278593"><ele>208.0</ele><time>2026-04-29T13:42:02.946Z</time></trkpt><trkpt lat="37.0788767" lon="22.4277809"><ele>208.16666666666666</ele><time>2026-04-29T13:42:04.945Z</time></trkpt><trkpt lat="37.0788621" lon="22.4276968"><ele>208.33333333333331</ele><time>2026-04-29T13:42:06.946Z</time></trkpt><trkpt lat="37.0788461" lon="22.4276104"><ele>208.5</ele><time>2026-04-29T13:42:08.945Z</time></trkpt><trkpt lat="37.0788254" lon="22.427522"><ele>208.66666666666669</ele><time>2026-04-29T13:42:10.945Z</time></trkpt><trkpt lat="37.0787999" lon="22.4274292"><ele>208.83333333333334</ele><time>2026-04-29T13:42:12.945Z</time></trkpt><trkpt lat="37.0787657" lon="22.4273425"><ele>209.0</ele><time>2026-04-29T13:42:14.946Z</time></trkpt><trkpt lat="37.0787362" lon="22.4272416"><ele>209.00000000000003</ele><time>2026-04-29T13:42:16.946Z</time></trkpt><trkpt lat="37.0787137" lon="22.4271498"><ele>209.0</ele><time>2026-04-29T13:42:18.946Z</time></trkpt><trkpt lat="37.0786975" lon="22.4270265"><ele>209.0</ele><time>2026-04-29T13:42:20.946Z</time></trkpt><trkpt lat="37.078676" lon="22.4269347"><ele>209.0</ele><time>2026-04-29T13:42:21.946Z</time></trkpt><trkpt lat="37.0786436" lon="22.4268587"><ele>209.00000000000003</ele><time>2026-04-29T13:42:22.945Z</time></trkpt><trkpt lat="37.0786189" lon="22.4267841"><ele>209.0</ele><time>2026-04-29T13:42:23.945Z</time></trkpt><trkpt lat="37.0786071" lon="22.426695"><ele>209.33333333333334</ele><time>2026-04-29T13:42:24.946Z</time></trkpt><trkpt lat="37.0785797" lon="22.4266175"><ele>209.66666666666669</ele><time>2026-04-29T13:42:25.945Z</time></trkpt><trkpt lat="37.0785408" lon="22.4264714"><ele>210.0</ele><time>2026-04-29T13:42:27.946Z</time></trkpt><trkpt lat="37.0785248" lon="22.4263891"><ele>210.33333333333331</ele><time>2026-04-29T13:42:28.945Z</time></trkpt><trkpt lat="37.0784875" lon="22.4262739"><ele>210.66666666666666</ele><time>2026-04-29T13:42:30.945Z</time></trkpt><trkpt lat="37.0784713" lon="22.4261746"><ele>211.0</ele><time>2026-04-29T13:42:32.946Z</time></trkpt><trkpt lat="37.0784635" lon="22.4260747"><ele>211.60000000000002</ele><time>2026-04-29T13:42:35.946Z</time></trkpt><trkpt lat="37.0784469" lon="22.4259598"><ele>212.2</ele><time>2026-04-29T13:42:37.945Z</time></trkpt><trkpt lat="37.0784416" lon="22.4257923"><ele>212.79999999999998</ele><time>2026-04-29T13:42:39.946Z</time></trkpt><trkpt lat="37.0784302" lon="22.4256946"><ele>213.39999999999998</ele><time>2026-04-29T13:42:40.945Z</time></trkpt><trkpt lat="37.0784182" lon="22.4255998"><ele>214.0</ele><time>2026-04-29T13:42:41.946Z</time></trkpt><trkpt lat="37.0784042" lon="22.4255049"><ele>214.49999999999997</ele><time>2026-04-29T13:42:42.946Z</time></trkpt><trkpt lat="37.0783898" lon="22.4254037"><ele>215.0</ele><time>2026-04-29T13:42:43.945Z</time></trkpt><trkpt lat="37.0783829" lon="22.4252998"><ele>215.5</ele><time>2026-04-29T13:42:44.945Z</time></trkpt><trkpt lat="37.0783779" lon="22.4251929"><ele>216.0</ele><time>2026-04-29T13:42:45.946Z</time></trkpt><trkpt lat="37.0783726" lon="22.425099"><ele>216.49999999999997</ele><time>2026-04-29T13:42:46.945Z</time></trkpt><trkpt lat="37.078371" lon="22.4250187"><ele>217.0</ele><time>2026-04-29T13:42:47.946Z</time></trkpt><trkpt lat="37.0783615" lon="22.424905"><ele>216.99999999999997</ele><time>2026-04-29T13:42:49.945Z</time></trkpt><trkpt lat="37.0783531" lon="22.4247879"><ele>217.0</ele><time>2026-04-29T13:42:52.945Z</time></trkpt><trkpt lat="37.0783362" lon="22.4246372"><ele>217.0</ele><time>2026-04-29T13:42:54.945Z</time></trkpt><trkpt lat="37.0783252" lon="22.4245503"><ele>217.0</ele><time>2026-04-29T13:42:55.946Z</time></trkpt><trkpt lat="37.0783161" lon="22.4244574"><ele>216.99999999999997</ele><time>2026-04-29T13:42:56.945Z</time></trkpt><trkpt lat="37.0783031" lon="22.4243589"><ele>217.0</ele><time>2026-04-29T13:42:57.945Z</time></trkpt><trkpt lat="37.0782943" lon="22.4242602"><ele>217.0</ele><time>2026-04-29T13:42:58.945Z</time></trkpt><trkpt lat="37.0782966" lon="22.424164"><ele>217.0</ele><time>2026-04-29T13:42:59.946Z</time></trkpt><trkpt lat="37.0782871" lon="22.4240688"><ele>217.0</ele><time>2026-04-29T13:43:00.945Z</time></trkpt><trkpt lat="37.0782841" lon="22.4239845"><ele>217.0</ele><time>2026-04-29T13:43:01.946Z</time></trkpt><trkpt lat="37.0782866" lon="22.4239021"><ele>217.0</ele><time>2026-04-29T13:43:02.946Z</time></trkpt><trkpt lat="37.0782862" lon="22.4238177"><ele>217.0</ele><time>2026-04-29T13:43:03.946Z</time></trkpt><trkpt lat="37.0782828" lon="22.4237334"><ele>217.0</ele><time>2026-04-29T13:43:04.946Z</time></trkpt><trkpt lat="37.0782559" lon="22.42365"><ele>216.85714285714286</ele><time>2026-04-29T13:43:05.946Z</time></trkpt><trkpt lat="37.0782442" lon="22.4235608"><ele>216.71428571428572</ele><time>2026-04-29T13:43:06.946Z</time></trkpt><trkpt lat="37.0782356" lon="22.4234708"><ele>216.57142857142856</ele><time>2026-04-29T13:43:07.946Z</time></trkpt><trkpt lat="37.078232" lon="22.4233797"><ele>216.42857142857144</ele><time>2026-04-29T13:43:08.946Z</time></trkpt><trkpt lat="37.0782248" lon="22.4232872"><ele>216.28571428571428</ele><time>2026-04-29T13:43:09.945Z</time></trkpt><trkpt lat="37.0782168" lon="22.423193"><ele>216.14285714285714</ele><time>2026-04-29T13:43:10.946Z</time></trkpt><trkpt lat="37.0782086" lon="22.4230945"><ele>216.0</ele><time>2026-04-29T13:43:11.945Z</time></trkpt><trkpt lat="37.0781994" lon="22.4229949"><ele>216.33333333333334</ele><time>2026-04-29T13:43:12.946Z</time></trkpt><trkpt lat="37.0781912" lon="22.422893"><ele>216.66666666666669</ele><time>2026-04-29T13:43:13.945Z</time></trkpt><trkpt lat="37.0781814" lon="22.4227911"><ele>217.0</ele><time>2026-04-29T13:43:14.945Z</time></trkpt><trkpt lat="37.0781703" lon="22.422689"><ele>217.33333333333334</ele><time>2026-04-29T13:43:15.946Z</time></trkpt><trkpt lat="37.0781622" lon="22.4225952"><ele>217.66666666666669</ele><time>2026-04-29T13:43:16.946Z</time></trkpt><trkpt lat="37.0781554" lon="22.4225118"><ele>218.0</ele><time>2026-04-29T13:43:17.946Z</time></trkpt><trkpt lat="37.0781246" lon="22.4223776"><ele>218.00000000000003</ele><time>2026-04-29T13:43:19.946Z</time></trkpt><trkpt lat="37.0781188" lon="22.4222956"><ele>218.0</ele><time>2026-04-29T13:43:21.945Z</time></trkpt><trkpt lat="37.0780506" lon="22.422222"><ele>218.0</ele><time>2026-04-29T13:43:24.945Z</time></trkpt><trkpt lat="37.0779325" lon="22.4222204"><ele>218.0</ele><time>2026-04-29T13:43:26.946Z</time></trkpt><trkpt lat="37.0778503" lon="22.4222331"><ele>218.00000000000003</ele><time>2026-04-29T13:43:27.946Z</time></trkpt><trkpt lat="37.0777777" lon="22.4222407"><ele>218.0</ele><time>2026-04-29T13:43:28.945Z</time></trkpt><trkpt lat="37.0776971" lon="22.4222489"><ele>218.00000000000003</ele><time>2026-04-29T13:43:29.945Z</time></trkpt><trkpt lat="37.0776114" lon="22.4222584"><ele>218.0</ele><time>2026-04-29T13:43:30.945Z</time></trkpt><trkpt lat="37.0775276" lon="22.4222852"><ele>218.0</ele><time>2026-04-29T13:43:31.945Z</time></trkpt><trkpt lat="37.077429" lon="22.4222924"><ele>218.0</ele><time>2026-04-29T13:43:32.946Z</time></trkpt><trkpt lat="37.0773427" lon="22.4223006"><ele>218.00000000000003</ele><time>2026-04-29T13:43:33.946Z</time></trkpt><trkpt lat="37.0772664" lon="22.4223131"><ele>218.0</ele><time>2026-04-29T13:43:34.945Z</time></trkpt><trkpt lat="37.0772024" lon="22.4223146"><ele>218.00000000000003</ele><time>2026-04-29T13:43:35.946Z</time></trkpt><trkpt lat="37.0771219" lon="22.4222745"><ele>218.0</ele><time>2026-04-29T13:43:37.946Z</time></trkpt><trkpt lat="37.0770783" lon="22.422139"><ele>218.0</ele><time>2026-04-29T13:43:39.945Z</time></trkpt><trkpt lat="37.0770767" lon="22.4220384"><ele>218.0</ele><time>2026-04-29T13:43:40.945Z</time></trkpt><trkpt lat="37.0770705" lon="22.4219347"><ele>218.00000000000003</ele><time>2026-04-29T13:43:41.945Z</time></trkpt><trkpt lat="37.0770597" lon="22.4218319"><ele>218.0</ele><time>2026-04-29T13:43:42.945Z</time></trkpt><trkpt lat="37.0770479" lon="22.4217302"><ele>218.00000000000003</ele><time>2026-04-29T13:43:43.946Z</time></trkpt><trkpt lat="37.0770351" lon="22.4216298"><ele>218.0</ele><time>2026-04-29T13:43:44.946Z</time></trkpt><trkpt lat="37.0770288" lon="22.4215286"><ele>218.0</ele><time>2026-04-29T13:43:45.945Z</time></trkpt><trkpt lat="37.0770219" lon="22.4214294"><ele>218.0</ele><time>2026-04-29T13:43:46.945Z</time></trkpt><trkpt lat="37.0770125" lon="22.4213334"><ele>218.00000000000003</ele><time>2026-04-29T13:43:47.946Z</time></trkpt><trkpt lat="37.0770044" lon="22.4212456"><ele>218.0</ele><time>2026-04-29T13:43:48.946Z</time></trkpt><trkpt lat="37.0769955" lon="22.4211351"><ele>218.16666666666669</ele><time>2026-04-29T13:43:50.945Z</time></trkpt><trkpt lat="37.0769834" lon="22.4210438"><ele>218.33333333333334</ele><time>2026-04-29T13:43:52.945Z</time></trkpt><trkpt lat="37.076978" lon="22.4208892"><ele>218.5</ele><time>2026-04-29T13:43:54.945Z</time></trkpt><trkpt lat="37.0769633" lon="22.4207907"><ele>218.66666666666669</ele><time>2026-04-29T13:43:55.946Z</time></trkpt><trkpt lat="37.0769609" lon="22.4206997"><ele>218.83333333333334</ele><time>2026-04-29T13:43:56.945Z</time></trkpt><trkpt lat="37.0769449" lon="22.4206"><ele>219.0</ele><time>2026-04-29T13:43:57.945Z</time></trkpt><trkpt lat="37.0769387" lon="22.420511"><ele>219.0</ele><time>2026-04-29T13:43:58.946Z</time></trkpt><trkpt lat="37.0769387" lon="22.420427"><ele>219.0</ele><time>2026-04-29T13:43:59.945Z</time></trkpt><trkpt lat="37.0769293" lon="22.4203436"><ele>219.0</ele><time>2026-04-29T13:44:00.946Z</time></trkpt><trkpt lat="37.0769256" lon="22.4202543"><ele>219.0</ele><time>2026-04-29T13:44:01.946Z</time></trkpt><trkpt lat="37.0769137" lon="22.4201705"><ele>219.0</ele><time>2026-04-29T13:44:02.945Z</time></trkpt><trkpt lat="37.0768901" lon="22.4200855"><ele>219.0</ele><time>2026-04-29T13:44:03.945Z</time></trkpt><trkpt lat="37.0768621" lon="22.4199997"><ele>219.0</ele><time>2026-04-29T13:44:04.945Z</time></trkpt><trkpt lat="37.0768357" lon="22.4199181"><ele>219.0</ele><time>2026-04-29T13:44:05.946Z</time></trkpt><trkpt lat="37.0768115" lon="22.4198447"><ele>219.0</ele><time>2026-04-29T13:44:06.946Z</time></trkpt><trkpt lat="37.0767952" lon="22.4197496"><ele>219.0</ele><time>2026-04-29T13:44:08.946Z</time></trkpt><trkpt lat="37.0768038" lon="22.4196472"><ele>219.0</ele><time>2026-04-29T13:44:11.945Z</time></trkpt><trkpt lat="37.0769029" lon="22.4195801"><ele>219.0</ele><time>2026-04-29T13:44:13.946Z</time></trkpt><trkpt lat="37.0769795" lon="22.4195396"><ele>219.0</ele><time>2026-04-29T13:44:14.946Z</time></trkpt><trkpt lat="37.0770511" lon="22.4194938"><ele>219.16666666666666</ele><time>2026-04-29T13:44:15.945Z</time></trkpt><trkpt lat="37.0771301" lon="22.419441"><ele>219.33333333333331</ele><time>2026-04-29T13:44:16.946Z</time></trkpt><trkpt lat="37.0772106" lon="22.4193862"><ele>219.5</ele><time>2026-04-29T13:44:17.946Z</time></trkpt><trkpt lat="37.0772795" lon="22.4193295"><ele>219.66666666666666</ele><time>2026-04-29T13:44:18.946Z</time></trkpt><trkpt lat="37.0773247" lon="22.4192396"><ele>219.83333333333331</ele><time>2026-04-29T13:44:19.946Z</time></trkpt><trkpt lat="37.0773591" lon="22.4191413"><ele>220.0</ele><time>2026-04-29T13:44:20.945Z</time></trkpt><trkpt lat="37.0773711" lon="22.4189948"><ele>220.0</ele><time>2026-04-29T13:44:21.945Z</time></trkpt><trkpt lat="37.0773867" lon="22.4188597"><ele>220.0</ele><time>2026-04-29T13:44:22.945Z</time></trkpt><trkpt lat="37.0773982" lon="22.4187281"><ele>220.0</ele><time>2026-04-29T13:44:23.946Z</time></trkpt><trkpt lat="37.0774125" lon="22.4186019"><ele>220.0</ele><time>2026-04-29T13:44:24.945Z</time></trkpt><trkpt lat="37.0774389" lon="22.4184825"><ele>220.0</ele><time>2026-04-29T13:44:25.945Z</time></trkpt><trkpt lat="37.0774769" lon="22.4183676"><ele>220.0</ele><time>2026-04-29T13:44:26.946Z</time></trkpt><trkpt lat="37.0775385" lon="22.41826"><ele>220.0</ele><time>2026-04-29T13:44:27.945Z</time></trkpt><trkpt lat="37.0776162" lon="22.4181353"><ele>220.0</ele><time>2026-04-29T13:44:28.945Z</time></trkpt><trkpt lat="37.0776953" lon="22.4180149"><ele>220.0</ele><time>2026-04-29T13:44:29.946Z</time></trkpt><trkpt lat="37.0777725" lon="22.4178868"><ele>220.25</ele><time>2026-04-29T13:44:30.945Z</time></trkpt><trkpt lat="37.0778521" lon="22.417756"><ele>220.5</ele><time>2026-04-29T13:44:31.945Z</time></trkpt><trkpt lat="37.0779393" lon="22.4176274"><ele>220.75</ele><time>2026-04-29T13:44:32.946Z</time></trkpt><trkpt lat="37.0780164" lon="22.4174946"><ele>221.0</ele><time>2026-04-29T13:44:33.946Z</time></trkpt><trkpt lat="37.0780951" lon="22.4173658"><ele>221.0</ele><time>2026-04-29T13:44:34.946Z</time></trkpt><trkpt lat="37.0781584" lon="22.4172307"><ele>221.0</ele><time>2026-04-29T13:44:35.945Z</time></trkpt><trkpt lat="37.0782158" lon="22.4170829"><ele>221.0</ele><time>2026-04-29T13:44:36.946Z</time></trkpt><trkpt lat="37.078257" lon="22.4169211"><ele>221.0</ele><time>2026-04-29T13:44:37.946Z</time></trkpt><trkpt lat="37.0782911" lon="22.4167488"><ele>221.5</ele><time>2026-04-29T13:44:38.946Z</time></trkpt><trkpt lat="37.0783096" lon="22.4165653"><ele>222.0</ele><time>2026-04-29T13:44:39.946Z</time></trkpt><trkpt lat="37.0783382" lon="22.4163899"><ele>222.5</ele><time>2026-04-29T13:44:40.945Z</time></trkpt><trkpt lat="37.0783573" lon="22.4162362"><ele>223.0</ele><time>2026-04-29T13:44:41.946Z</time></trkpt><trkpt lat="37.0783767" lon="22.4160751"><ele>223.5</ele><time>2026-04-29T13:44:42.946Z</time></trkpt><trkpt lat="37.0784056" lon="22.415923"><ele>224.0</ele><time>2026-04-29T13:44:43.945Z</time></trkpt><trkpt lat="37.0784309" lon="22.4157686"><ele>224.5</ele><time>2026-04-29T13:44:44.946Z</time></trkpt><trkpt lat="37.0784548" lon="22.4156109"><ele>225.0</ele><time>2026-04-29T13:44:45.946Z</time></trkpt><trkpt lat="37.0784808" lon="22.41544"><ele>225.0</ele><time>2026-04-29T13:44:46.945Z</time></trkpt><trkpt lat="37.0785193" lon="22.4152662"><ele>225.0</ele><time>2026-04-29T13:44:47.945Z</time></trkpt><trkpt lat="37.0785804" lon="22.4151012"><ele>225.0</ele><time>2026-04-29T13:44:48.945Z</time></trkpt><trkpt lat="37.0786406" lon="22.4149387"><ele>225.0</ele><time>2026-04-29T13:44:49.946Z</time></trkpt><trkpt lat="37.0786946" lon="22.4147726"><ele>225.75</ele><time>2026-04-29T13:44:50.946Z</time></trkpt><trkpt lat="37.078733" lon="22.4146211"><ele>226.5</ele><time>2026-04-29T13:44:51.946Z</time></trkpt><trkpt lat="37.0787783" lon="22.4144664"><ele>227.25</ele><time>2026-04-29T13:44:52.945Z</time></trkpt><trkpt lat="37.0788261" lon="22.4143112"><ele>228.0</ele><time>2026-04-29T13:44:53.946Z</time></trkpt><trkpt lat="37.0788379" lon="22.4141533"><ele>228.0</ele><time>2026-04-29T13:44:54.946Z</time></trkpt><trkpt lat="37.0788528" lon="22.4139827"><ele>228.0</ele><time>2026-04-29T13:44:55.946Z</time></trkpt><trkpt lat="37.0788555" lon="22.4137997"><ele>228.0</ele><time>2026-04-29T13:44:56.945Z</time></trkpt><trkpt lat="37.0788482" lon="22.4136316"><ele>228.0</ele><time>2026-04-29T13:44:57.945Z</time></trkpt><trkpt lat="37.0788406" lon="22.4134649"><ele>228.0</ele><time>2026-04-29T13:44:58.946Z</time></trkpt><trkpt lat="37.0788331" lon="22.4133021"><ele>228.0</ele><time>2026-04-29T13:44:59.945Z</time></trkpt><trkpt lat="37.0788371" lon="22.4131309"><ele>228.0</ele><time>2026-04-29T13:45:00.946Z</time></trkpt><trkpt lat="37.0788142" lon="22.4129665"><ele>228.0</ele><time>2026-04-29T13:45:01.946Z</time></trkpt><trkpt lat="37.0787875" lon="22.4128095"><ele>228.0</ele><time>2026-04-29T13:45:02.946Z</time></trkpt><trkpt lat="37.078751" lon="22.4126552"><ele>228.0</ele><time>2026-04-29T13:45:03.945Z</time></trkpt><trkpt lat="37.0787124" lon="22.4124977"><ele>228.0</ele><time>2026-04-29T13:45:04.945Z</time></trkpt><trkpt lat="37.0786811" lon="22.4123439"><ele>228.0</ele><time>2026-04-29T13:45:05.946Z</time></trkpt><trkpt lat="37.0786567" lon="22.4121807"><ele>228.75</ele><time>2026-04-29T13:45:06.945Z</time></trkpt><trkpt lat="37.0786329" lon="22.4120183"><ele>229.5</ele><time>2026-04-29T13:45:07.946Z</time></trkpt><trkpt lat="37.0786161" lon="22.4118539"><ele>230.25</ele><time>2026-04-29T13:45:08.945Z</time></trkpt><trkpt lat="37.0786015" lon="22.4116842"><ele>231.0</ele><time>2026-04-29T13:45:09.946Z</time></trkpt><trkpt lat="37.0785997" lon="22.4115142"><ele>231.0</ele><time>2026-04-29T13:45:10.946Z</time></trkpt><trkpt lat="37.0786046" lon="22.4113219"><ele>231.0</ele><time>2026-04-29T13:45:11.945Z</time></trkpt><trkpt lat="37.0786091" lon="22.4111477"><ele>231.0</ele><time>2026-04-29T13:45:12.945Z</time></trkpt><trkpt lat="37.0786121" lon="22.4109733"><ele>231.0</ele><time>2026-04-29T13:45:13.946Z</time></trkpt><trkpt lat="37.0786187" lon="22.410796"><ele>231.0</ele><time>2026-04-29T13:45:14.945Z</time></trkpt><trkpt lat="37.0786197" lon="22.4106233"><ele>231.0</ele><time>2026-04-29T13:45:15.946Z</time></trkpt><trkpt lat="37.0786159" lon="22.4104532"><ele>231.0</ele><time>2026-04-29T13:45:16.945Z</time></trkpt><trkpt lat="37.0786099" lon="22.4102841"><ele>231.0</ele><time>2026-04-29T13:45:17.945Z</time></trkpt><trkpt lat="37.078595" lon="22.4101178"><ele>231.25</ele><time>2026-04-29T13:45:18.946Z</time></trkpt><trkpt lat="37.0785838" lon="22.4099589"><ele>231.5</ele><time>2026-04-29T13:45:19.945Z</time></trkpt><trkpt lat="37.0785745" lon="22.4098067"><ele>231.75</ele><time>2026-04-29T13:45:20.946Z</time></trkpt><trkpt lat="37.0785726" lon="22.4096587"><ele>232.0</ele><time>2026-04-29T13:45:21.945Z</time></trkpt><trkpt lat="37.0785774" lon="22.4095157"><ele>232.5</ele><time>2026-04-29T13:45:22.945Z</time></trkpt><trkpt lat="37.0785959" lon="22.4093739"><ele>233.0</ele><time>2026-04-29T13:45:23.946Z</time></trkpt><trkpt lat="37.0786316" lon="22.4092399"><ele>233.5</ele><time>2026-04-29T13:45:24.945Z</time></trkpt><trkpt lat="37.0786708" lon="22.4090979"><ele>234.0</ele><time>2026-04-29T13:45:25.945Z</time></trkpt><trkpt lat="37.0787104" lon="22.4089434"><ele>234.5</ele><time>2026-04-29T13:45:26.945Z</time></trkpt><trkpt lat="37.0787418" lon="22.4087957"><ele>235.0</ele><time>2026-04-29T13:45:27.945Z</time></trkpt><trkpt lat="37.078765" lon="22.4086399"><ele>235.5</ele><time>2026-04-29T13:45:28.945Z</time></trkpt><trkpt lat="37.0787977" lon="22.4084925"><ele>236.0</ele><time>2026-04-29T13:45:29.946Z</time></trkpt><trkpt lat="37.0788041" lon="22.4083293"><ele>236.0</ele><time>2026-04-29T13:45:30.945Z</time></trkpt><trkpt lat="37.0788175" lon="22.408167"><ele>236.0</ele><time>2026-04-29T13:45:31.945Z</time></trkpt><trkpt lat="37.0788266" lon="22.4079938"><ele>236.0</ele><time>2026-04-29T13:45:32.946Z</time></trkpt><trkpt lat="37.0788418" lon="22.4078253"><ele>236.0</ele><time>2026-04-29T13:45:33.946Z</time></trkpt><trkpt lat="37.0788606" lon="22.4076578"><ele>235.75</ele><time>2026-04-29T13:45:34.945Z</time></trkpt><trkpt lat="37.0788758" lon="22.4074853"><ele>235.5</ele><time>2026-04-29T13:45:35.946Z</time></trkpt><trkpt lat="37.0788997" lon="22.4073201"><ele>235.25</ele><time>2026-04-29T13:45:36.946Z</time></trkpt><trkpt lat="37.0789274" lon="22.4071591"><ele>235.0</ele><time>2026-04-29T13:45:37.946Z</time></trkpt><trkpt lat="37.0789644" lon="22.4070079"><ele>235.0</ele><time>2026-04-29T13:45:38.946Z</time></trkpt><trkpt lat="37.0790151" lon="22.4068393"><ele>235.0</ele><time>2026-04-29T13:45:39.946Z</time></trkpt><trkpt lat="37.079064" lon="22.4066782"><ele>235.0</ele><time>2026-04-29T13:45:40.945Z</time></trkpt><trkpt lat="37.0791158" lon="22.4065179"><ele>235.0</ele><time>2026-04-29T13:45:41.946Z</time></trkpt><trkpt lat="37.079166" lon="22.406363"><ele>235.5</ele><time>2026-04-29T13:45:42.945Z</time></trkpt><trkpt lat="37.0792143" lon="22.4062045"><ele>236.0</ele><time>2026-04-29T13:45:43.945Z</time></trkpt><trkpt lat="37.0792611" lon="22.4060412"><ele>236.5</ele><time>2026-04-29T13:45:44.946Z</time></trkpt><trkpt lat="37.0793032" lon="22.4058788"><ele>237.0</ele><time>2026-04-29T13:45:45.945Z</time></trkpt><trkpt lat="37.07934" lon="22.405721"><ele>237.0</ele><time>2026-04-29T13:45:46.946Z</time></trkpt><trkpt lat="37.0793617" lon="22.4055481"><ele>237.0</ele><time>2026-04-29T13:45:47.945Z</time></trkpt><trkpt lat="37.0794005" lon="22.4053955"><ele>237.0</ele><time>2026-04-29T13:45:48.946Z</time></trkpt><trkpt lat="37.0794349" lon="22.4052371"><ele>237.0</ele><time>2026-04-29T13:45:49.946Z</time></trkpt><trkpt lat="37.0794763" lon="22.4050995"><ele>237.2</ele><time>2026-04-29T13:45:50.946Z</time></trkpt><trkpt lat="37.079532" lon="22.4049713"><ele>237.39999999999998</ele><time>2026-04-29T13:45:51.945Z</time></trkpt><trkpt lat="37.0795915" lon="22.4048642"><ele>237.60000000000002</ele><time>2026-04-29T13:45:52.945Z</time></trkpt><trkpt lat="37.0796595" lon="22.4047759"><ele>237.8</ele><time>2026-04-29T13:45:53.945Z</time></trkpt><trkpt lat="37.0797291" lon="22.4047069"><ele>238.0</ele><time>2026-04-29T13:45:54.945Z</time></trkpt><trkpt lat="37.0797797" lon="22.4046272"><ele>238.0</ele><time>2026-04-29T13:45:55.946Z</time></trkpt><trkpt lat="37.0798173" lon="22.404483"><ele>238.0</ele><time>2026-04-29T13:45:57.946Z</time></trkpt><trkpt lat="37.0797849" lon="22.4043199"><ele>238.0</ele><time>2026-04-29T13:45:59.946Z</time></trkpt><trkpt lat="37.0797653" lon="22.4042326"><ele>238.0</ele><time>2026-04-29T13:46:00.946Z</time></trkpt><trkpt lat="37.0797462" lon="22.4041403"><ele>238.0</ele><time>2026-04-29T13:46:01.945Z</time></trkpt><trkpt lat="37.0797324" lon="22.4040386"><ele>238.0</ele><time>2026-04-29T13:46:02.946Z</time></trkpt><trkpt lat="37.0797349" lon="22.4039225"><ele>238.0</ele><time>2026-04-29T13:46:03.946Z</time></trkpt><trkpt lat="37.0797634" lon="22.4037905"><ele>238.0</ele><time>2026-04-29T13:46:04.946Z</time></trkpt><trkpt lat="37.0797791" lon="22.4036433"><ele>238.0</ele><time>2026-04-29T13:46:05.946Z</time></trkpt><trkpt lat="37.0798118" lon="22.4034932"><ele>238.0</ele><time>2026-04-29T13:46:06.946Z</time></trkpt><trkpt lat="37.0798431" lon="22.4033418"><ele>237.75</ele><time>2026-04-29T13:46:07.945Z</time></trkpt><trkpt lat="37.0798653" lon="22.4031819"><ele>237.5</ele><time>2026-04-29T13:46:08.946Z</time></trkpt><trkpt lat="37.0798922" lon="22.4030244"><ele>237.25</ele><time>2026-04-29T13:46:09.946Z</time></trkpt><trkpt lat="37.0799229" lon="22.4028753"><ele>237.0</ele><time>2026-04-29T13:46:10.946Z</time></trkpt><trkpt lat="37.0799531" lon="22.4027204"><ele>238.25</ele><time>2026-04-29T13:46:11.946Z</time></trkpt><trkpt lat="37.0799493" lon="22.4025419"><ele>239.5</ele><time>2026-04-29T13:46:12.945Z</time></trkpt><trkpt lat="37.0799695" lon="22.40238"><ele>240.75</ele><time>2026-04-29T13:46:13.946Z</time></trkpt><trkpt lat="37.079989" lon="22.402213"><ele>242.0</ele><time>2026-04-29T13:46:14.946Z</time></trkpt><trkpt lat="37.0800056" lon="22.4020477"><ele>242.0</ele><time>2026-04-29T13:46:15.945Z</time></trkpt><trkpt lat="37.0800255" lon="22.4018832"><ele>242.0</ele><time>2026-04-29T13:46:16.946Z</time></trkpt><trkpt lat="37.0800331" lon="22.4017101"><ele>242.0</ele><time>2026-04-29T13:46:17.945Z</time></trkpt><trkpt lat="37.0800501" lon="22.4015401"><ele>242.0</ele><time>2026-04-29T13:46:18.945Z</time></trkpt><trkpt lat="37.0800599" lon="22.4013776"><ele>242.5</ele><time>2026-04-29T13:46:19.946Z</time></trkpt><trkpt lat="37.0800827" lon="22.4012154"><ele>243.0</ele><time>2026-04-29T13:46:20.946Z</time></trkpt><trkpt lat="37.0801054" lon="22.4010656"><ele>243.5</ele><time>2026-04-29T13:46:21.945Z</time></trkpt><trkpt lat="37.0801408" lon="22.4009249"><ele>244.0</ele><time>2026-04-29T13:46:22.945Z</time></trkpt><trkpt lat="37.0801894" lon="22.4007901"><ele>244.0</ele><time>2026-04-29T13:46:23.946Z</time></trkpt><trkpt lat="37.0802596" lon="22.4006706"><ele>244.0</ele><time>2026-04-29T13:46:24.946Z</time></trkpt><trkpt lat="37.0803285" lon="22.4005302"><ele>244.0</ele><time>2026-04-29T13:46:25.946Z</time></trkpt><trkpt lat="37.0803984" lon="22.4003947"><ele>244.0</ele><time>2026-04-29T13:46:26.945Z</time></trkpt><trkpt lat="37.0804659" lon="22.4002534"><ele>244.25</ele><time>2026-04-29T13:46:27.946Z</time></trkpt><trkpt lat="37.0805334" lon="22.4001176"><ele>244.5</ele><time>2026-04-29T13:46:28.946Z</time></trkpt><trkpt lat="37.0806009" lon="22.3999804"><ele>244.75</ele><time>2026-04-29T13:46:29.946Z</time></trkpt><trkpt lat="37.0806674" lon="22.3998464"><ele>245.0</ele><time>2026-04-29T13:46:30.946Z</time></trkpt><trkpt lat="37.0807342" lon="22.399711"><ele>246.0</ele><time>2026-04-29T13:46:31.945Z</time></trkpt><trkpt lat="37.0808052" lon="22.3995768"><ele>247.0</ele><time>2026-04-29T13:46:32.945Z</time></trkpt><trkpt lat="37.080871" lon="22.3994419"><ele>248.0</ele><time>2026-04-29T13:46:33.945Z</time></trkpt><trkpt lat="37.0809292" lon="22.3992903"><ele>249.0</ele><time>2026-04-29T13:46:34.945Z</time></trkpt><trkpt lat="37.0809711" lon="22.3991164"><ele>249.0</ele><time>2026-04-29T13:46:35.946Z</time></trkpt><trkpt lat="37.0810033" lon="22.3989169"><ele>249.0</ele><time>2026-04-29T13:46:36.946Z</time></trkpt><trkpt lat="37.0810274" lon="22.3987201"><ele>249.0</ele><time>2026-04-29T13:46:37.945Z</time></trkpt><trkpt lat="37.0810446" lon="22.3985256"><ele>250.0</ele><time>2026-04-29T13:46:38.945Z</time></trkpt><trkpt lat="37.0810601" lon="22.3983298"><ele>251.0</ele><time>2026-04-29T13:46:39.946Z</time></trkpt><trkpt lat="37.0810795" lon="22.3981329"><ele>252.0</ele><time>2026-04-29T13:46:40.946Z</time></trkpt><trkpt lat="37.0810998" lon="22.3979317"><ele>252.0</ele><time>2026-04-29T13:46:41.946Z</time></trkpt><trkpt lat="37.0811085" lon="22.3977206"><ele>252.0</ele><time>2026-04-29T13:46:42.946Z</time></trkpt><trkpt lat="37.0811223" lon="22.3975229"><ele>252.0</ele><time>2026-04-29T13:46:43.946Z</time></trkpt><trkpt lat="37.08114" lon="22.3973255"><ele>252.0</ele><time>2026-04-29T13:46:44.946Z</time></trkpt><trkpt lat="37.0811596" lon="22.397131"><ele>252.0</ele><time>2026-04-29T13:46:45.946Z</time></trkpt><trkpt lat="37.0811793" lon="22.3969367"><ele>252.0</ele><time>2026-04-29T13:46:46.945Z</time></trkpt><trkpt lat="37.0811961" lon="22.396744"><ele>252.0</ele><time>2026-04-29T13:46:47.946Z</time></trkpt><trkpt lat="37.0812114" lon="22.396558"><ele>252.0</ele><time>2026-04-29T13:46:48.946Z</time></trkpt><trkpt lat="37.0812253" lon="22.3963819"><ele>252.0</ele><time>2026-04-29T13:46:49.946Z</time></trkpt><trkpt lat="37.0812387" lon="22.3962092"><ele>252.0</ele><time>2026-04-29T13:46:50.946Z</time></trkpt><trkpt lat="37.0812546" lon="22.3960319"><ele>252.25</ele><time>2026-04-29T13:46:51.945Z</time></trkpt><trkpt lat="37.0812695" lon="22.3958577"><ele>252.5</ele><time>2026-04-29T13:46:52.945Z</time></trkpt><trkpt lat="37.0812824" lon="22.3956791"><ele>252.75</ele><time>2026-04-29T13:46:53.946Z</time></trkpt><trkpt lat="37.0812948" lon="22.3954966"><ele>253.0</ele><time>2026-04-29T13:46:54.946Z</time></trkpt><trkpt lat="37.0813103" lon="22.395307"><ele>253.25</ele><time>2026-04-29T13:46:55.945Z</time></trkpt><trkpt lat="37.081326" lon="22.3951286"><ele>253.5</ele><time>2026-04-29T13:46:56.946Z</time></trkpt><trkpt lat="37.0813477" lon="22.3949546"><ele>253.75</ele><time>2026-04-29T13:46:57.946Z</time></trkpt><trkpt lat="37.0813821" lon="22.3947921"><ele>254.0</ele><time>2026-04-29T13:46:58.946Z</time></trkpt><trkpt lat="37.0814443" lon="22.3946485"><ele>254.5</ele><time>2026-04-29T13:46:59.946Z</time></trkpt><trkpt lat="37.081526" lon="22.3945271"><ele>255.0</ele><time>2026-04-29T13:47:00.946Z</time></trkpt><trkpt lat="37.0816391" lon="22.3944173"><ele>255.5</ele><time>2026-04-29T13:47:01.945Z</time></trkpt><trkpt lat="37.0817632" lon="22.3943116"><ele>256.0</ele><time>2026-04-29T13:47:02.946Z</time></trkpt><trkpt lat="37.0818935" lon="22.3942096"><ele>256.66666666666663</ele><time>2026-04-29T13:47:03.946Z</time></trkpt><trkpt lat="37.0820287" lon="22.3941159"><ele>257.3333333333333</ele><time>2026-04-29T13:47:04.945Z</time></trkpt><trkpt lat="37.0821666" lon="22.3940192"><ele>258.0</ele><time>2026-04-29T13:47:05.945Z</time></trkpt><trkpt lat="37.082307" lon="22.3939258"><ele>261.3333333333333</ele><time>2026-04-29T13:47:06.946Z</time></trkpt><trkpt lat="37.0824388" lon="22.3938323"><ele>264.66666666666663</ele><time>2026-04-29T13:47:07.946Z</time></trkpt><trkpt lat="37.0825704" lon="22.3937402"><ele>268.0</ele><time>2026-04-29T13:47:08.946Z</time></trkpt><trkpt lat="37.0826989" lon="22.3936455"><ele>268.0</ele><time>2026-04-29T13:47:09.946Z</time></trkpt><trkpt lat="37.0828265" lon="22.3935535"><ele>268.0</ele><time>2026-04-29T13:47:10.946Z</time></trkpt><trkpt lat="37.08296" lon="22.3934565"><ele>268.0</ele><time>2026-04-29T13:47:11.945Z</time></trkpt><trkpt lat="37.0831048" lon="22.3933477"><ele>268.0</ele><time>2026-04-29T13:47:12.946Z</time></trkpt><trkpt lat="37.0832565" lon="22.3932355"><ele>268.0</ele><time>2026-04-29T13:47:13.945Z</time></trkpt><trkpt lat="37.0834243" lon="22.3931216"><ele>268.0</ele><time>2026-04-29T13:47:14.946Z</time></trkpt><trkpt lat="37.0835986" lon="22.3929985"><ele>271.0</ele><time>2026-04-29T13:47:15.946Z</time></trkpt><trkpt lat="37.0837747" lon="22.3928826"><ele>274.0</ele><time>2026-04-29T13:47:16.946Z</time></trkpt><trkpt lat="37.0839462" lon="22.3927614"><ele>277.0</ele><time>2026-04-29T13:47:17.945Z</time></trkpt><trkpt lat="37.0841122" lon="22.3926455"><ele>277.3333333333333</ele><time>2026-04-29T13:47:18.946Z</time></trkpt><trkpt lat="37.0842756" lon="22.3925272"><ele>277.6666666666667</ele><time>2026-04-29T13:47:19.945Z</time></trkpt><trkpt lat="37.0844147" lon="22.3924202"><ele>278.0</ele><time>2026-04-29T13:47:20.945Z</time></trkpt><trkpt lat="37.0845495" lon="22.3923209"><ele>278.0</ele><time>2026-04-29T13:47:21.945Z</time></trkpt><trkpt lat="37.0846663" lon="22.3922144"><ele>278.0</ele><time>2026-04-29T13:47:22.946Z</time></trkpt><trkpt lat="37.0847668" lon="22.3920909"><ele>278.0</ele><time>2026-04-29T13:47:23.946Z</time></trkpt><trkpt lat="37.0848443" lon="22.3919442"><ele>278.0</ele><time>2026-04-29T13:47:24.946Z</time></trkpt><trkpt lat="37.0849071" lon="22.3917775"><ele>279.0</ele><time>2026-04-29T13:47:25.945Z</time></trkpt><trkpt lat="37.0849593" lon="22.3916007"><ele>280.0</ele><time>2026-04-29T13:47:26.946Z</time></trkpt><trkpt lat="37.0849986" lon="22.391419"><ele>281.0</ele><time>2026-04-29T13:47:27.945Z</time></trkpt><trkpt lat="37.0850313" lon="22.3912435"><ele>282.0</ele><time>2026-04-29T13:47:28.946Z</time></trkpt><trkpt lat="37.0850571" lon="22.391072"><ele>283.0</ele><time>2026-04-29T13:47:29.946Z</time></trkpt><trkpt lat="37.0850851" lon="22.3909019"><ele>284.0</ele><time>2026-04-29T13:47:30.946Z</time></trkpt><trkpt lat="37.0851193" lon="22.3907442"><ele>285.0</ele><time>2026-04-29T13:47:31.945Z</time></trkpt><trkpt lat="37.0851679" lon="22.3905974"><ele>286.0</ele><time>2026-04-29T13:47:32.946Z</time></trkpt><trkpt lat="37.0852324" lon="22.3904667"><ele>287.25</ele><time>2026-04-29T13:47:33.946Z</time></trkpt><trkpt lat="37.0853146" lon="22.3903502"><ele>288.5</ele><time>2026-04-29T13:47:34.946Z</time></trkpt><trkpt lat="37.0854095" lon="22.3902349"><ele>289.75</ele><time>2026-04-29T13:47:35.945Z</time></trkpt><trkpt lat="37.0855177" lon="22.3901256"><ele>291.0</ele><time>2026-04-29T13:47:36.946Z</time></trkpt><trkpt lat="37.0856093" lon="22.3900087"><ele>291.0</ele><time>2026-04-29T13:47:37.945Z</time></trkpt><trkpt lat="37.0857148" lon="22.3898915"><ele>291.0</ele><time>2026-04-29T13:47:38.946Z</time></trkpt><trkpt lat="37.0858112" lon="22.3897689"><ele>291.0</ele><time>2026-04-29T13:47:39.945Z</time></trkpt><trkpt lat="37.0859135" lon="22.3896462"><ele>291.0</ele><time>2026-04-29T13:47:40.945Z</time></trkpt><trkpt lat="37.0860129" lon="22.3895198"><ele>292.6666666666667</ele><time>2026-04-29T13:47:41.945Z</time></trkpt><trkpt lat="37.0861157" lon="22.3893729"><ele>294.33333333333337</ele><time>2026-04-29T13:47:42.946Z</time></trkpt><trkpt lat="37.0862099" lon="22.3892261"><ele>296.0</ele><time>2026-04-29T13:47:43.946Z</time></trkpt><trkpt lat="37.0863022" lon="22.3890715"><ele>296.0</ele><time>2026-04-29T13:47:44.945Z</time></trkpt><trkpt lat="37.0863892" lon="22.388921"><ele>296.0</ele><time>2026-04-29T13:47:45.946Z</time></trkpt><trkpt lat="37.0864742" lon="22.3887611"><ele>296.0</ele><time>2026-04-29T13:47:46.945Z</time></trkpt><trkpt lat="37.0865616" lon="22.3886002"><ele>298.0</ele><time>2026-04-29T13:47:47.946Z</time></trkpt><trkpt lat="37.0866532" lon="22.3884383"><ele>300.0</ele><time>2026-04-29T13:47:48.945Z</time></trkpt><trkpt lat="37.0867412" lon="22.3882644"><ele>302.0</ele><time>2026-04-29T13:47:49.946Z</time></trkpt><trkpt lat="37.0868324" lon="22.3880994"><ele>303.6666666666667</ele><time>2026-04-29T13:47:50.946Z</time></trkpt><trkpt lat="37.0869312" lon="22.3879244"><ele>305.3333333333333</ele><time>2026-04-29T13:47:51.946Z</time></trkpt><trkpt lat="37.0870265" lon="22.3877476"><ele>307.0</ele><time>2026-04-29T13:47:52.945Z</time></trkpt><trkpt lat="37.0871278" lon="22.3875718"><ele>307.0</ele><time>2026-04-29T13:47:53.945Z</time></trkpt><trkpt lat="37.0872247" lon="22.3873797"><ele>307.0</ele><time>2026-04-29T13:47:54.946Z</time></trkpt><trkpt lat="37.0873266" lon="22.3871932"><ele>307.0</ele><time>2026-04-29T13:47:55.946Z</time></trkpt><trkpt lat="37.0874296" lon="22.3870051"><ele>307.3333333333333</ele><time>2026-04-29T13:47:56.945Z</time></trkpt><trkpt lat="37.0875301" lon="22.3868135"><ele>307.6666666666667</ele><time>2026-04-29T13:47:57.946Z</time></trkpt><trkpt lat="37.0876305" lon="22.3866219"><ele>308.0</ele><time>2026-04-29T13:47:58.945Z</time></trkpt><trkpt lat="37.087737" lon="22.3864232"><ele>309.0</ele><time>2026-04-29T13:47:59.946Z</time></trkpt><trkpt lat="37.0878367" lon="22.3862256"><ele>310.0</ele><time>2026-04-29T13:48:00.945Z</time></trkpt><trkpt lat="37.0879385" lon="22.3860261"><ele>311.0</ele><time>2026-04-29T13:48:01.945Z</time></trkpt><trkpt lat="37.0880416" lon="22.3858307"><ele>311.0</ele><time>2026-04-29T13:48:02.945Z</time></trkpt><trkpt lat="37.0881437" lon="22.3856391"><ele>311.0</ele><time>2026-04-29T13:48:03.946Z</time></trkpt><trkpt lat="37.0882418" lon="22.3854506"><ele>311.0</ele><time>2026-04-29T13:48:04.946Z</time></trkpt><trkpt lat="37.0883424" lon="22.3852523"><ele>311.0</ele><time>2026-04-29T13:48:05.945Z</time></trkpt><trkpt lat="37.0884354" lon="22.3850608"><ele>311.0</ele><time>2026-04-29T13:48:06.945Z</time></trkpt><trkpt lat="37.0885235" lon="22.3848599"><ele>311.0</ele><time>2026-04-29T13:48:07.945Z</time></trkpt><trkpt lat="37.0886193" lon="22.3846499"><ele>311.0</ele><time>2026-04-29T13:48:08.945Z</time></trkpt><trkpt lat="37.0887095" lon="22.3844409"><ele>311.0</ele><time>2026-04-29T13:48:09.945Z</time></trkpt><trkpt lat="37.088795" lon="22.3842344"><ele>311.0</ele><time>2026-04-29T13:48:10.945Z</time></trkpt><trkpt lat="37.0888714" lon="22.3840271"><ele>312.6666666666667</ele><time>2026-04-29T13:48:11.945Z</time></trkpt><trkpt lat="37.0889218" lon="22.3838131"><ele>314.3333333333333</ele><time>2026-04-29T13:48:12.946Z</time></trkpt><trkpt lat="37.0889484" lon="22.3835879"><ele>316.0</ele><time>2026-04-29T13:48:13.946Z</time></trkpt><trkpt lat="37.0889531" lon="22.3833456"><ele>316.0</ele><time>2026-04-29T13:48:14.946Z</time></trkpt><trkpt lat="37.088952" lon="22.3830987"><ele>316.0</ele><time>2026-04-29T13:48:15.946Z</time></trkpt><trkpt lat="37.0889515" lon="22.3828545"><ele>316.0</ele><time>2026-04-29T13:48:16.945Z</time></trkpt><trkpt lat="37.0889555" lon="22.3826121"><ele>318.0</ele><time>2026-04-29T13:48:17.946Z</time></trkpt><trkpt lat="37.088965" lon="22.3823809"><ele>320.0</ele><time>2026-04-29T13:48:18.946Z</time></trkpt><trkpt lat="37.0889844" lon="22.3821454"><ele>322.0</ele><time>2026-04-29T13:48:19.945Z</time></trkpt><trkpt lat="37.0890111" lon="22.3819249"><ele>322.66666666666663</ele><time>2026-04-29T13:48:20.945Z</time></trkpt><trkpt lat="37.0890366" lon="22.381717"><ele>323.3333333333333</ele><time>2026-04-29T13:48:21.946Z</time></trkpt><trkpt lat="37.0890706" lon="22.3815239"><ele>324.0</ele><time>2026-04-29T13:48:22.946Z</time></trkpt><trkpt lat="37.0891268" lon="22.3813426"><ele>326.3333333333333</ele><time>2026-04-29T13:48:23.945Z</time></trkpt><trkpt lat="37.0892093" lon="22.3811649"><ele>328.66666666666663</ele><time>2026-04-29T13:48:24.945Z</time></trkpt><trkpt lat="37.0893081" lon="22.3809821"><ele>331.0</ele><time>2026-04-29T13:48:25.945Z</time></trkpt><trkpt lat="37.0894078" lon="22.3808024"><ele>331.0</ele><time>2026-04-29T13:48:26.946Z</time></trkpt><trkpt lat="37.0895152" lon="22.3806234"><ele>331.0</ele><time>2026-04-29T13:48:27.945Z</time></trkpt><trkpt lat="37.0896102" lon="22.3804308"><ele>331.0</ele><time>2026-04-29T13:48:28.946Z</time></trkpt><trkpt lat="37.089689" lon="22.3802186"><ele>331.0</ele><time>2026-04-29T13:48:29.946Z</time></trkpt><trkpt lat="37.0897513" lon="22.3800049"><ele>331.0</ele><time>2026-04-29T13:48:30.945Z</time></trkpt><trkpt lat="37.0898047" lon="22.3797896"><ele>331.0</ele><time>2026-04-29T13:48:31.945Z</time></trkpt><trkpt lat="37.0898547" lon="22.3795752"><ele>331.0</ele><time>2026-04-29T13:48:32.946Z</time></trkpt><trkpt lat="37.0899224" lon="22.3793737"><ele>331.0</ele><time>2026-04-29T13:48:33.946Z</time></trkpt><trkpt lat="37.0900065" lon="22.3791744"><ele>331.0</ele><time>2026-04-29T13:48:34.946Z</time></trkpt><trkpt lat="37.0901104" lon="22.3789657"><ele>333.0</ele><time>2026-04-29T13:48:35.946Z</time></trkpt><trkpt lat="37.0902234" lon="22.3787534"><ele>335.0</ele><time>2026-04-29T13:48:36.946Z</time></trkpt><trkpt lat="37.0903258" lon="22.3785378"><ele>337.0</ele><time>2026-04-29T13:48:37.945Z</time></trkpt><trkpt lat="37.0904364" lon="22.3783224"><ele>337.0</ele><time>2026-04-29T13:48:38.946Z</time></trkpt><trkpt lat="37.0905551" lon="22.3781145"><ele>337.0</ele><time>2026-04-29T13:48:39.945Z</time></trkpt><trkpt lat="37.0906782" lon="22.377906"><ele>337.0</ele><time>2026-04-29T13:48:40.946Z</time></trkpt><trkpt lat="37.0907882" lon="22.3776973"><ele>338.3333333333333</ele><time>2026-04-29T13:48:41.946Z</time></trkpt><trkpt lat="37.0908955" lon="22.3774768"><ele>339.6666666666667</ele><time>2026-04-29T13:48:42.946Z</time></trkpt><trkpt lat="37.0909997" lon="22.3772665"><ele>341.0</ele><time>2026-04-29T13:48:43.946Z</time></trkpt><trkpt lat="37.0910992" lon="22.3770649"><ele>342.6666666666667</ele><time>2026-04-29T13:48:44.946Z</time></trkpt><trkpt lat="37.0911815" lon="22.3768782"><ele>344.3333333333333</ele><time>2026-04-29T13:48:45.946Z</time></trkpt><trkpt lat="37.091251" lon="22.3766825"><ele>346.0</ele><time>2026-04-29T13:48:46.946Z</time></trkpt><trkpt lat="37.091303" lon="22.3764705"><ele>347.66666666666663</ele><time>2026-04-29T13:48:47.945Z</time></trkpt><trkpt lat="37.0913332" lon="22.3762439"><ele>349.3333333333333</ele><time>2026-04-29T13:48:48.946Z</time></trkpt><trkpt lat="37.0913411" lon="22.3760015"><ele>351.0</ele><time>2026-04-29T13:48:49.946Z</time></trkpt><trkpt lat="37.0913699" lon="22.3757532"><ele>351.6666666666667</ele><time>2026-04-29T13:48:50.946Z</time></trkpt><trkpt lat="37.091402" lon="22.3754877"><ele>352.33333333333337</ele><time>2026-04-29T13:48:51.946Z</time></trkpt><trkpt lat="37.0914261" lon="22.3752048"><ele>353.0</ele><time>2026-04-29T13:48:52.945Z</time></trkpt><trkpt lat="37.0914569" lon="22.3749364"><ele>353.6666666666667</ele><time>2026-04-29T13:48:53.946Z</time></trkpt><trkpt lat="37.0914912" lon="22.3746587"><ele>354.3333333333333</ele><time>2026-04-29T13:48:54.946Z</time></trkpt><trkpt lat="37.091519" lon="22.3743832"><ele>355.0</ele><time>2026-04-29T13:48:55.946Z</time></trkpt><trkpt lat="37.0915494" lon="22.3741053"><ele>355.3333333333333</ele><time>2026-04-29T13:48:56.946Z</time></trkpt><trkpt lat="37.0915638" lon="22.3738358"><ele>355.6666666666667</ele><time>2026-04-29T13:48:57.945Z</time></trkpt><trkpt lat="37.0915943" lon="22.3735713"><ele>356.0</ele><time>2026-04-29T13:48:58.945Z</time></trkpt><trkpt lat="37.0916195" lon="22.3733345"><ele>356.0</ele><time>2026-04-29T13:48:59.946Z</time></trkpt><trkpt lat="37.0916547" lon="22.3731154"><ele>356.0</ele><time>2026-04-29T13:49:00.946Z</time></trkpt><trkpt lat="37.0917116" lon="22.3729113"><ele>356.0</ele><time>2026-04-29T13:49:01.946Z</time></trkpt><trkpt lat="37.0917979" lon="22.372711"><ele>355.6666666666667</ele><time>2026-04-29T13:49:02.945Z</time></trkpt><trkpt lat="37.0919071" lon="22.3725247"><ele>355.3333333333333</ele><time>2026-04-29T13:49:03.945Z</time></trkpt><trkpt lat="37.0920333" lon="22.3723244"><ele>355.0</ele><time>2026-04-29T13:49:04.945Z</time></trkpt><trkpt lat="37.0921661" lon="22.3721178"><ele>358.0</ele><time>2026-04-29T13:49:05.946Z</time></trkpt><trkpt lat="37.0922983" lon="22.3719158"><ele>361.0</ele><time>2026-04-29T13:49:06.946Z</time></trkpt><trkpt lat="37.0924246" lon="22.3717113"><ele>364.0</ele><time>2026-04-29T13:49:07.945Z</time></trkpt><trkpt lat="37.0925558" lon="22.3715034"><ele>364.66666666666663</ele><time>2026-04-29T13:49:08.945Z</time></trkpt><trkpt lat="37.0926901" lon="22.3712983"><ele>365.3333333333333</ele><time>2026-04-29T13:49:09.945Z</time></trkpt><trkpt lat="37.0928109" lon="22.3711086"><ele>366.0</ele><time>2026-04-29T13:49:10.945Z</time></trkpt><trkpt lat="37.0929354" lon="22.3709252"><ele>366.0</ele><time>2026-04-29T13:49:11.946Z</time></trkpt><trkpt lat="37.0930448" lon="22.3707453"><ele>366.0</ele><time>2026-04-29T13:49:12.945Z</time></trkpt><trkpt lat="37.0931298" lon="22.3705552"><ele>366.0</ele><time>2026-04-29T13:49:13.946Z</time></trkpt><trkpt lat="37.09319" lon="22.3703383"><ele>367.6666666666667</ele><time>2026-04-29T13:49:14.946Z</time></trkpt><trkpt lat="37.0932396" lon="22.3700976"><ele>369.33333333333337</ele><time>2026-04-29T13:49:15.945Z</time></trkpt><trkpt lat="37.093275" lon="22.3698414"><ele>371.0</ele><time>2026-04-29T13:49:16.946Z</time></trkpt><trkpt lat="37.0933103" lon="22.3695747"><ele>372.0</ele><time>2026-04-29T13:49:17.946Z</time></trkpt><trkpt lat="37.0933291" lon="22.3692968"><ele>373.0</ele><time>2026-04-29T13:49:18.945Z</time></trkpt><trkpt lat="37.0933554" lon="22.3690163"><ele>374.0</ele><time>2026-04-29T13:49:19.946Z</time></trkpt><trkpt lat="37.0933917" lon="22.3687349"><ele>375.0</ele><time>2026-04-29T13:49:20.946Z</time></trkpt><trkpt lat="37.0934246" lon="22.3684658"><ele>376.0</ele><time>2026-04-29T13:49:21.945Z</time></trkpt><trkpt lat="37.0934574" lon="22.3681988"><ele>377.0</ele><time>2026-04-29T13:49:22.945Z</time></trkpt><trkpt lat="37.0934913" lon="22.3679311"><ele>378.6666666666667</ele><time>2026-04-29T13:49:23.946Z</time></trkpt><trkpt lat="37.0935198" lon="22.367671"><ele>380.3333333333333</ele><time>2026-04-29T13:49:24.946Z</time></trkpt><trkpt lat="37.0935453" lon="22.3674072"><ele>382.0</ele><time>2026-04-29T13:49:25.945Z</time></trkpt><trkpt lat="37.0935737" lon="22.3671681"><ele>383.66666666666663</ele><time>2026-04-29T13:49:26.945Z</time></trkpt><trkpt lat="37.0935908" lon="22.3669463"><ele>385.3333333333333</ele><time>2026-04-29T13:49:27.946Z</time></trkpt><trkpt lat="37.0936049" lon="22.3667369"><ele>387.0</ele><time>2026-04-29T13:49:28.945Z</time></trkpt><trkpt lat="37.0935962" lon="22.3665571"><ele>387.0</ele><time>2026-04-29T13:49:29.945Z</time></trkpt><trkpt lat="37.0935565" lon="22.3663804"><ele>387.0</ele><time>2026-04-29T13:49:30.946Z</time></trkpt><trkpt lat="37.0934913" lon="22.366194"><ele>387.0</ele><time>2026-04-29T13:49:31.946Z</time></trkpt><trkpt lat="37.0934259" lon="22.36602"><ele>388.66666666666663</ele><time>2026-04-29T13:49:32.945Z</time></trkpt><trkpt lat="37.0933499" lon="22.3658577"><ele>390.3333333333333</ele><time>2026-04-29T13:49:33.946Z</time></trkpt><trkpt lat="37.0932594" lon="22.3657026"><ele>392.0</ele><time>2026-04-29T13:49:34.946Z</time></trkpt><trkpt lat="37.093147" lon="22.3655531"><ele>394.5</ele><time>2026-04-29T13:49:35.945Z</time></trkpt><trkpt lat="37.093042" lon="22.3654242"><ele>397.0</ele><time>2026-04-29T13:49:36.945Z</time></trkpt><trkpt lat="37.092947" lon="22.3653294"><ele>399.5</ele><time>2026-04-29T13:49:37.945Z</time></trkpt><trkpt lat="37.09286" lon="22.3652742"><ele>402.0</ele><time>2026-04-29T13:49:38.945Z</time></trkpt><trkpt lat="37.0927535" lon="22.3652629"><ele>402.0</ele><time>2026-04-29T13:49:39.945Z</time></trkpt><trkpt lat="37.0926657" lon="22.3652871"><ele>402.0</ele><time>2026-04-29T13:49:40.945Z</time></trkpt><trkpt lat="37.0925934" lon="22.3653732"><ele>402.0</ele><time>2026-04-29T13:49:41.945Z</time></trkpt><trkpt lat="37.0925471" lon="22.3654985"><ele>402.0</ele><time>2026-04-29T13:49:42.946Z</time></trkpt><trkpt lat="37.0925293" lon="22.3656634"><ele>402.0</ele><time>2026-04-29T13:49:43.946Z</time></trkpt><trkpt lat="37.0925297" lon="22.3658371"><ele>402.0</ele><time>2026-04-29T13:49:44.946Z</time></trkpt><trkpt lat="37.0925307" lon="22.3660254"><ele>402.0</ele><time>2026-04-29T13:49:45.946Z</time></trkpt><trkpt lat="37.0924131" lon="22.3661965"><ele>402.0</ele><time>2026-04-29T13:49:46.946Z</time></trkpt><trkpt lat="37.0923632" lon="22.3663389"><ele>405.75</ele><time>2026-04-29T13:49:47.945Z</time></trkpt><trkpt lat="37.0922684" lon="22.3664646"><ele>409.5</ele><time>2026-04-29T13:49:48.946Z</time></trkpt><trkpt lat="37.0921772" lon="22.3665563"><ele>413.25</ele><time>2026-04-29T13:49:49.946Z</time></trkpt><trkpt lat="37.0920639" lon="22.3666047"><ele>417.0</ele><time>2026-04-29T13:49:50.946Z</time></trkpt><trkpt lat="37.0919489" lon="22.3666502"><ele>417.0</ele><time>2026-04-29T13:49:51.946Z</time></trkpt><trkpt lat="37.091851" lon="22.3667242"><ele>417.0</ele><time>2026-04-29T13:49:52.946Z</time></trkpt><trkpt lat="37.0917755" lon="22.3668189"><ele>417.0</ele><time>2026-04-29T13:49:53.946Z</time></trkpt><trkpt lat="37.0917093" lon="22.3669131"><ele>417.0</ele><time>2026-04-29T13:49:54.946Z</time></trkpt><trkpt lat="37.091645" lon="22.3670017"><ele>417.0</ele><time>2026-04-29T13:49:55.946Z</time></trkpt><trkpt lat="37.0915669" lon="22.3670339"><ele>420.6</ele><time>2026-04-29T13:49:56.945Z</time></trkpt><trkpt lat="37.0915082" lon="22.3670777"><ele>424.20000000000005</ele><time>2026-04-29T13:49:57.945Z</time></trkpt><trkpt lat="37.0914572" lon="22.366982"><ele>427.8</ele><time>2026-04-29T13:49:58.946Z</time></trkpt><trkpt lat="37.0913893" lon="22.3668952"><ele>431.4</ele><time>2026-04-29T13:49:59.945Z</time></trkpt><trkpt lat="37.09147" lon="22.3667321"><ele>435.0</ele><time>2026-04-29T13:50:00.946Z</time></trkpt><trkpt lat="37.0914892" lon="22.3666342"><ele>435.0</ele><time>2026-04-29T13:50:01.946Z</time></trkpt><trkpt lat="37.0915426" lon="22.3665713"><ele>435.0</ele><time>2026-04-29T13:50:02.946Z</time></trkpt><trkpt lat="37.0917243" lon="22.3664971"><ele>435.0</ele><time>2026-04-29T13:50:03.945Z</time></trkpt><trkpt lat="37.0918153" lon="22.3664186"><ele>435.0</ele><time>2026-04-29T13:50:04.946Z</time></trkpt><trkpt lat="37.0918944" lon="22.3663133"><ele>432.5</ele><time>2026-04-29T13:50:05.946Z</time></trkpt><trkpt lat="37.0919387" lon="22.3661936"><ele>430.0</ele><time>2026-04-29T13:50:06.946Z</time></trkpt><trkpt lat="37.091958" lon="22.366054"><ele>427.5</ele><time>2026-04-29T13:50:07.946Z</time></trkpt><trkpt lat="37.0919471" lon="22.3659033"><ele>425.0</ele><time>2026-04-29T13:50:08.945Z</time></trkpt><trkpt lat="37.0919291" lon="22.3657293"><ele>427.0</ele><time>2026-04-29T13:50:09.946Z</time></trkpt><trkpt lat="37.0918904" lon="22.3654822"><ele>429.0</ele><time>2026-04-29T13:50:10.946Z</time></trkpt><trkpt lat="37.0918816" lon="22.3652629"><ele>431.0</ele><time>2026-04-29T13:50:11.946Z</time></trkpt><trkpt lat="37.0919308" lon="22.3650041"><ele>431.0</ele><time>2026-04-29T13:50:12.945Z</time></trkpt><trkpt lat="37.0918984" lon="22.364731"><ele>431.0</ele><time>2026-04-29T13:50:13.946Z</time></trkpt><trkpt lat="37.0918604" lon="22.3644238"><ele>432.5</ele><time>2026-04-29T13:50:14.945Z</time></trkpt><trkpt lat="37.0918279" lon="22.3641109"><ele>434.0</ele><time>2026-04-29T13:50:15.946Z</time></trkpt><trkpt lat="37.0918157" lon="22.3638034"><ele>435.0</ele><time>2026-04-29T13:50:16.946Z</time></trkpt><trkpt lat="37.0918203" lon="22.3635246"><ele>436.0</ele><time>2026-04-29T13:50:17.946Z</time></trkpt><trkpt lat="37.0918326" lon="22.3632502"><ele>437.0</ele><time>2026-04-29T13:50:18.946Z</time></trkpt><trkpt lat="37.0918375" lon="22.3629928"><ele>439.0</ele><time>2026-04-29T13:50:19.945Z</time></trkpt><trkpt lat="37.0918358" lon="22.3627543"><ele>441.0</ele><time>2026-04-29T13:50:20.945Z</time></trkpt><trkpt lat="37.0918208" lon="22.3625342"><ele>443.0</ele><time>2026-04-29T13:50:21.946Z</time></trkpt><trkpt lat="37.0917851" lon="22.3623285"><ele>444.3333333333333</ele><time>2026-04-29T13:50:22.946Z</time></trkpt><trkpt lat="37.0917354" lon="22.3621463"><ele>445.66666666666663</ele><time>2026-04-29T13:50:23.946Z</time></trkpt><trkpt lat="37.0916832" lon="22.3619652"><ele>447.0</ele><time>2026-04-29T13:50:24.946Z</time></trkpt><trkpt lat="37.0916487" lon="22.3617744"><ele>447.0</ele><time>2026-04-29T13:50:25.946Z</time></trkpt><trkpt lat="37.0916631" lon="22.3615905"><ele>447.0</ele><time>2026-04-29T13:50:26.945Z</time></trkpt><trkpt lat="37.091713" lon="22.3614058"><ele>447.0</ele><time>2026-04-29T13:50:27.945Z</time></trkpt><trkpt lat="37.091787" lon="22.3612224"><ele>449.33333333333337</ele><time>2026-04-29T13:50:28.945Z</time></trkpt><trkpt lat="37.091847" lon="22.3610136"><ele>451.6666666666667</ele><time>2026-04-29T13:50:29.945Z</time></trkpt><trkpt lat="37.091879" lon="22.3607602"><ele>454.0</ele><time>2026-04-29T13:50:30.946Z</time></trkpt><trkpt lat="37.0919012" lon="22.3604853"><ele>459.6666666666667</ele><time>2026-04-29T13:50:31.945Z</time></trkpt><trkpt lat="37.0919115" lon="22.3601989"><ele>465.33333333333337</ele><time>2026-04-29T13:50:32.946Z</time></trkpt><trkpt lat="37.0919409" lon="22.3599323"><ele>471.0</ele><time>2026-04-29T13:50:33.945Z</time></trkpt><trkpt lat="37.0919737" lon="22.3596705"><ele>474.0</ele><time>2026-04-29T13:50:34.946Z</time></trkpt><trkpt lat="37.0920149" lon="22.3594116"><ele>477.0</ele><time>2026-04-29T13:50:35.946Z</time></trkpt><trkpt lat="37.0920563" lon="22.3591807"><ele>480.0</ele><time>2026-04-29T13:50:36.946Z</time></trkpt><trkpt lat="37.0920926" lon="22.3589541"><ele>480.66666666666663</ele><time>2026-04-29T13:50:37.945Z</time></trkpt><trkpt lat="37.0921214" lon="22.3587334"><ele>481.3333333333333</ele><time>2026-04-29T13:50:38.946Z</time></trkpt><trkpt lat="37.09214" lon="22.3585257"><ele>482.0</ele><time>2026-04-29T13:50:39.945Z</time></trkpt><trkpt lat="37.0921493" lon="22.358339"><ele>482.0</ele><time>2026-04-29T13:50:40.945Z</time></trkpt><trkpt lat="37.0921476" lon="22.3581507"><ele>482.0</ele><time>2026-04-29T13:50:41.945Z</time></trkpt><trkpt lat="37.0921262" lon="22.3579724"><ele>482.0</ele><time>2026-04-29T13:50:42.946Z</time></trkpt><trkpt lat="37.0920837" lon="22.3578131"><ele>482.0</ele><time>2026-04-29T13:50:43.946Z</time></trkpt><trkpt lat="37.0919967" lon="22.3576775"><ele>479.0</ele><time>2026-04-29T13:50:44.945Z</time></trkpt><trkpt lat="37.0918646" lon="22.3575398"><ele>476.0</ele><time>2026-04-29T13:50:45.945Z</time></trkpt><trkpt lat="37.0917757" lon="22.3574095"><ele>473.0</ele><time>2026-04-29T13:50:46.945Z</time></trkpt><trkpt lat="37.0916907" lon="22.3572914"><ele>470.0</ele><time>2026-04-29T13:50:47.945Z</time></trkpt><trkpt lat="37.09162" lon="22.357172"><ele>470.0</ele><time>2026-04-29T13:50:48.945Z</time></trkpt><trkpt lat="37.0915703" lon="22.3570575"><ele>470.0</ele><time>2026-04-29T13:50:49.945Z</time></trkpt><trkpt lat="37.0915515" lon="22.3569408"><ele>470.0</ele><time>2026-04-29T13:50:50.946Z</time></trkpt><trkpt lat="37.0916206" lon="22.3568267"><ele>470.0</ele><time>2026-04-29T13:50:51.946Z</time></trkpt><trkpt lat="37.0917034" lon="22.356712"><ele>470.0</ele><time>2026-04-29T13:50:52.946Z</time></trkpt><trkpt lat="37.0918259" lon="22.3565981"><ele>470.0</ele><time>2026-04-29T13:50:53.945Z</time></trkpt><trkpt lat="37.0919324" lon="22.3564941"><ele>470.0</ele><time>2026-04-29T13:50:54.946Z</time></trkpt><trkpt lat="37.0920331" lon="22.3563971"><ele>470.0</ele><time>2026-04-29T13:50:55.946Z</time></trkpt><trkpt lat="37.0921114" lon="22.3563086"><ele>470.0</ele><time>2026-04-29T13:50:56.946Z</time></trkpt><trkpt lat="37.0921709" lon="22.3562106"><ele>473.5</ele><time>2026-04-29T13:50:57.946Z</time></trkpt><trkpt lat="37.0922188" lon="22.3560988"><ele>477.0</ele><time>2026-04-29T13:50:58.946Z</time></trkpt><trkpt lat="37.0922369" lon="22.3559584"><ele>480.5</ele><time>2026-04-29T13:50:59.945Z</time></trkpt><trkpt lat="37.0922294" lon="22.355798"><ele>484.0</ele><time>2026-04-29T13:51:00.946Z</time></trkpt><trkpt lat="37.0922224" lon="22.355621"><ele>485.25</ele><time>2026-04-29T13:51:01.946Z</time></trkpt><trkpt lat="37.0922182" lon="22.3554491"><ele>486.5</ele><time>2026-04-29T13:51:02.945Z</time></trkpt><trkpt lat="37.0922408" lon="22.3552723"><ele>487.75</ele><time>2026-04-29T13:51:03.945Z</time></trkpt><trkpt lat="37.0922858" lon="22.3551118"><ele>489.0</ele><time>2026-04-29T13:51:04.945Z</time></trkpt><trkpt lat="37.0923306" lon="22.3549446"><ele>489.0</ele><time>2026-04-29T13:51:05.946Z</time></trkpt><trkpt lat="37.0923762" lon="22.3547899"><ele>489.0</ele><time>2026-04-29T13:51:06.945Z</time></trkpt><trkpt lat="37.0924152" lon="22.3546277"><ele>489.0</ele><time>2026-04-29T13:51:07.946Z</time></trkpt><trkpt lat="37.0924286" lon="22.3544678"><ele>489.0</ele><time>2026-04-29T13:51:08.946Z</time></trkpt><trkpt lat="37.0924295" lon="22.3543016"><ele>489.0</ele><time>2026-04-29T13:51:09.945Z</time></trkpt><trkpt lat="37.0924107" lon="22.3541239"><ele>489.0</ele><time>2026-04-29T13:51:10.946Z</time></trkpt><trkpt lat="37.0923682" lon="22.3539377"><ele>489.0</ele><time>2026-04-29T13:51:11.945Z</time></trkpt><trkpt lat="37.0923221" lon="22.3537639"><ele>489.0</ele><time>2026-04-29T13:51:12.945Z</time></trkpt><trkpt lat="37.0922759" lon="22.3535932"><ele>489.75</ele><time>2026-04-29T13:51:13.946Z</time></trkpt><trkpt lat="37.0922827" lon="22.3534325"><ele>490.5</ele><time>2026-04-29T13:51:14.946Z</time></trkpt><trkpt lat="37.0923034" lon="22.353283"><ele>491.25</ele><time>2026-04-29T13:51:15.945Z</time></trkpt><trkpt lat="37.0923571" lon="22.353128"><ele>492.0</ele><time>2026-04-29T13:51:16.945Z</time></trkpt><trkpt lat="37.0924162" lon="22.3529488"><ele>487.0</ele><time>2026-04-29T13:51:17.945Z</time></trkpt><trkpt lat="37.0924511" lon="22.3527467"><ele>482.0</ele><time>2026-04-29T13:51:18.946Z</time></trkpt><trkpt lat="37.0924726" lon="22.3525642"><ele>477.0</ele><time>2026-04-29T13:51:19.946Z</time></trkpt><trkpt lat="37.0924964" lon="22.3523863"><ele>477.0</ele><time>2026-04-29T13:51:20.946Z</time></trkpt><trkpt lat="37.092542" lon="22.3522391"><ele>477.00000000000006</ele><time>2026-04-29T13:51:21.946Z</time></trkpt><trkpt lat="37.0926085" lon="22.3521209"><ele>477.00000000000006</ele><time>2026-04-29T13:51:22.945Z</time></trkpt><trkpt lat="37.0926701" lon="22.3520155"><ele>477.0</ele><time>2026-04-29T13:51:23.945Z</time></trkpt><trkpt lat="37.0927114" lon="22.3519093"><ele>477.0</ele><time>2026-04-29T13:51:24.945Z</time></trkpt><trkpt lat="37.0927228" lon="22.3517983"><ele>478.25</ele><time>2026-04-29T13:51:25.946Z</time></trkpt><trkpt lat="37.0926994" lon="22.351692"><ele>479.5</ele><time>2026-04-29T13:51:26.945Z</time></trkpt><trkpt lat="37.0926375" lon="22.3515854"><ele>480.75</ele><time>2026-04-29T13:51:27.945Z</time></trkpt><trkpt lat="37.0925516" lon="22.3514696"><ele>482.0</ele><time>2026-04-29T13:51:28.945Z</time></trkpt><trkpt lat="37.0924494" lon="22.3513447"><ele>490.75</ele><time>2026-04-29T13:51:29.945Z</time></trkpt><trkpt lat="37.0923533" lon="22.3512259"><ele>499.5</ele><time>2026-04-29T13:51:30.945Z</time></trkpt><trkpt lat="37.0922718" lon="22.3511162"><ele>508.25</ele><time>2026-04-29T13:51:31.945Z</time></trkpt><trkpt lat="37.0922092" lon="22.3510108"><ele>517.0</ele><time>2026-04-29T13:51:32.945Z</time></trkpt><trkpt lat="37.0921597" lon="22.3509161"><ele>517.0</ele><time>2026-04-29T13:51:33.945Z</time></trkpt><trkpt lat="37.0921658" lon="22.3508171"><ele>517.0</ele><time>2026-04-29T13:51:34.945Z</time></trkpt><trkpt lat="37.0922317" lon="22.3506844"><ele>517.0</ele><time>2026-04-29T13:51:36.945Z</time></trkpt><trkpt lat="37.0923438" lon="22.3506345"><ele>517.0</ele><time>2026-04-29T13:51:37.946Z</time></trkpt><trkpt lat="37.0924764" lon="22.3506135"><ele>510.75</ele><time>2026-04-29T13:51:38.945Z</time></trkpt><trkpt lat="37.0925896" lon="22.3506668"><ele>504.5</ele><time>2026-04-29T13:51:39.946Z</time></trkpt><trkpt lat="37.0926906" lon="22.3506903"><ele>498.25</ele><time>2026-04-29T13:51:40.945Z</time></trkpt><trkpt lat="37.0928169" lon="22.3506503"><ele>492.0</ele><time>2026-04-29T13:51:41.945Z</time></trkpt><trkpt lat="37.0929138" lon="22.3506052"><ele>494.25</ele><time>2026-04-29T13:51:42.945Z</time></trkpt><trkpt lat="37.0930036" lon="22.3505393"><ele>496.5</ele><time>2026-04-29T13:51:43.945Z</time></trkpt><trkpt lat="37.0931049" lon="22.3504317"><ele>498.75</ele><time>2026-04-29T13:51:44.946Z</time></trkpt><trkpt lat="37.0932061" lon="22.3503416"><ele>501.0</ele><time>2026-04-29T13:51:45.945Z</time></trkpt><trkpt lat="37.0933017" lon="22.3502457"><ele>501.0</ele><time>2026-04-29T13:51:46.946Z</time></trkpt><trkpt lat="37.0933951" lon="22.3501617"><ele>501.0</ele><time>2026-04-29T13:51:47.945Z</time></trkpt><trkpt lat="37.0934793" lon="22.3500608"><ele>501.0</ele><time>2026-04-29T13:51:48.946Z</time></trkpt><trkpt lat="37.0935557" lon="22.3499666"><ele>501.0</ele><time>2026-04-29T13:51:49.946Z</time></trkpt><trkpt lat="37.0936083" lon="22.3498605"><ele>501.0</ele><time>2026-04-29T13:51:50.945Z</time></trkpt><trkpt lat="37.0936412" lon="22.3497459"><ele>502.25</ele><time>2026-04-29T13:51:51.945Z</time></trkpt><trkpt lat="37.0936594" lon="22.3496162"><ele>503.5</ele><time>2026-04-29T13:51:52.945Z</time></trkpt><trkpt lat="37.0936835" lon="22.3494818"><ele>504.75</ele><time>2026-04-29T13:51:53.945Z</time></trkpt><trkpt lat="37.0936642" lon="22.3493229"><ele>506.0</ele><time>2026-04-29T13:51:54.946Z</time></trkpt><trkpt lat="37.0936322" lon="22.3491625"><ele>506.0</ele><time>2026-04-29T13:51:55.946Z</time></trkpt><trkpt lat="37.0935891" lon="22.3490078"><ele>506.0</ele><time>2026-04-29T13:51:56.945Z</time></trkpt><trkpt lat="37.0935494" lon="22.3488648"><ele>506.0</ele><time>2026-04-29T13:51:57.946Z</time></trkpt><trkpt lat="37.0935249" lon="22.34873"><ele>506.0</ele><time>2026-04-29T13:51:58.946Z</time></trkpt><trkpt lat="37.0935622" lon="22.3485934"><ele>508.0</ele><time>2026-04-29T13:51:59.946Z</time></trkpt><trkpt lat="37.093601" lon="22.3484611"><ele>510.0</ele><time>2026-04-29T13:52:00.946Z</time></trkpt><trkpt lat="37.0936382" lon="22.3483174"><ele>512.0</ele><time>2026-04-29T13:52:01.945Z</time></trkpt><trkpt lat="37.0936742" lon="22.3481754"><ele>514.0</ele><time>2026-04-29T13:52:02.945Z</time></trkpt><trkpt lat="37.0937104" lon="22.3480362"><ele>517.5</ele><time>2026-04-29T13:52:03.946Z</time></trkpt><trkpt lat="37.0937422" lon="22.3479022"><ele>521.0</ele><time>2026-04-29T13:52:04.945Z</time></trkpt><trkpt lat="37.093768" lon="22.3477648"><ele>524.5</ele><time>2026-04-29T13:52:05.945Z</time></trkpt><trkpt lat="37.093779" lon="22.3476151"><ele>528.0</ele><time>2026-04-29T13:52:06.946Z</time></trkpt><trkpt lat="37.0937805" lon="22.3474574"><ele>528.0</ele><time>2026-04-29T13:52:07.946Z</time></trkpt><trkpt lat="37.0937753" lon="22.3473026"><ele>528.0</ele><time>2026-04-29T13:52:08.946Z</time></trkpt><trkpt lat="37.0937684" lon="22.3471469"><ele>528.0</ele><time>2026-04-29T13:52:09.945Z</time></trkpt><trkpt lat="37.0937707" lon="22.346998"><ele>528.0</ele><time>2026-04-29T13:52:10.945Z</time></trkpt><trkpt lat="37.0938351" lon="22.3468583"><ele>532.6666666666666</ele><time>2026-04-29T13:52:11.946Z</time></trkpt><trkpt lat="37.0938716" lon="22.3466885"><ele>537.3333333333333</ele><time>2026-04-29T13:52:12.945Z</time></trkpt><trkpt lat="37.0939502" lon="22.3464995"><ele>542.0</ele><time>2026-04-29T13:52:13.946Z</time></trkpt><trkpt lat="37.094017" lon="22.3462775"><ele>548.3333333333333</ele><time>2026-04-29T13:52:14.946Z</time></trkpt><trkpt lat="37.0940824" lon="22.3460641"><ele>554.6666666666666</ele><time>2026-04-29T13:52:15.946Z</time></trkpt><trkpt lat="37.094147" lon="22.3458441"><ele>561.0</ele><time>2026-04-29T13:52:16.946Z</time></trkpt><trkpt lat="37.0942054" lon="22.3456226"><ele>546.0</ele><time>2026-04-29T13:52:17.945Z</time></trkpt><trkpt lat="37.0942566" lon="22.3454058"><ele>531.0</ele><time>2026-04-29T13:52:18.946Z</time></trkpt><trkpt lat="37.094298" lon="22.3451983"><ele>516.0</ele><time>2026-04-29T13:52:19.946Z</time></trkpt><trkpt lat="37.0943494" lon="22.3450105"><ele>516.0</ele><time>2026-04-29T13:52:20.945Z</time></trkpt><trkpt lat="37.0944117" lon="22.34483"><ele>516.0</ele><time>2026-04-29T13:52:21.946Z</time></trkpt><trkpt lat="37.0944672" lon="22.3446633"><ele>516.0</ele><time>2026-04-29T13:52:22.946Z</time></trkpt><trkpt lat="37.0945245" lon="22.3445116"><ele>516.0</ele><time>2026-04-29T13:52:23.945Z</time></trkpt><trkpt lat="37.0945647" lon="22.3443642"><ele>517.25</ele><time>2026-04-29T13:52:24.945Z</time></trkpt><trkpt lat="37.0946072" lon="22.3442211"><ele>518.5</ele><time>2026-04-29T13:52:25.945Z</time></trkpt><trkpt lat="37.0945908" lon="22.3440669"><ele>519.75</ele><time>2026-04-29T13:52:26.945Z</time></trkpt><trkpt lat="37.094522" lon="22.3438999"><ele>521.0</ele><time>2026-04-29T13:52:27.946Z</time></trkpt><trkpt lat="37.0944964" lon="22.3437469"><ele>522.75</ele><time>2026-04-29T13:52:28.945Z</time></trkpt><trkpt lat="37.0944785" lon="22.3436103"><ele>524.5</ele><time>2026-04-29T13:52:29.945Z</time></trkpt><trkpt lat="37.0945269" lon="22.3434459"><ele>526.25</ele><time>2026-04-29T13:52:30.946Z</time></trkpt><trkpt lat="37.0945893" lon="22.3433144"><ele>528.0</ele><time>2026-04-29T13:52:31.946Z</time></trkpt><trkpt lat="37.0946803" lon="22.3432016"><ele>528.0</ele><time>2026-04-29T13:52:32.945Z</time></trkpt><trkpt lat="37.0947644" lon="22.3430985"><ele>528.0</ele><time>2026-04-29T13:52:33.946Z</time></trkpt><trkpt lat="37.0948596" lon="22.3429946"><ele>528.0</ele><time>2026-04-29T13:52:34.946Z</time></trkpt><trkpt lat="37.0949471" lon="22.3428738"><ele>528.0</ele><time>2026-04-29T13:52:35.946Z</time></trkpt><trkpt lat="37.0949899" lon="22.3427274"><ele>527.0</ele><time>2026-04-29T13:52:36.945Z</time></trkpt><trkpt lat="37.0950125" lon="22.3425601"><ele>526.0</ele><time>2026-04-29T13:52:37.945Z</time></trkpt><trkpt lat="37.0949911" lon="22.342376"><ele>525.0</ele><time>2026-04-29T13:52:38.946Z</time></trkpt><trkpt lat="37.0949856" lon="22.3421896"><ele>524.0</ele><time>2026-04-29T13:52:39.945Z</time></trkpt><trkpt lat="37.0949466" lon="22.3420136"><ele>524.0</ele><time>2026-04-29T13:52:40.945Z</time></trkpt><trkpt lat="37.0949266" lon="22.341851"><ele>524.0</ele><time>2026-04-29T13:52:41.946Z</time></trkpt><trkpt lat="37.0949379" lon="22.3417088"><ele>524.0</ele><time>2026-04-29T13:52:42.945Z</time></trkpt><trkpt lat="37.0949839" lon="22.3415851"><ele>524.0</ele><time>2026-04-29T13:52:43.946Z</time></trkpt><trkpt lat="37.095055" lon="22.3414716"><ele>530.5</ele><time>2026-04-29T13:52:44.946Z</time></trkpt><trkpt lat="37.0951249" lon="22.3413598"><ele>537.0</ele><time>2026-04-29T13:52:45.946Z</time></trkpt><trkpt lat="37.0952272" lon="22.3412734"><ele>543.5</ele><time>2026-04-29T13:52:46.945Z</time></trkpt><trkpt lat="37.095422" lon="22.3412535"><ele>550.0</ele><time>2026-04-29T13:52:47.946Z</time></trkpt><trkpt lat="37.0955518" lon="22.3411856"><ele>550.0</ele><time>2026-04-29T13:52:48.946Z</time></trkpt><trkpt lat="37.0956767" lon="22.3411238"><ele>550.0</ele><time>2026-04-29T13:52:49.946Z</time></trkpt><trkpt lat="37.0957983" lon="22.3410431"><ele>550.0</ele><time>2026-04-29T13:52:50.946Z</time></trkpt><trkpt lat="37.095916" lon="22.3409436"><ele>550.0</ele><time>2026-04-29T13:52:51.946Z</time></trkpt><trkpt lat="37.0960074" lon="22.3408298"><ele>544.0</ele><time>2026-04-29T13:52:52.946Z</time></trkpt><trkpt lat="37.0960706" lon="22.3407026"><ele>538.0</ele><time>2026-04-29T13:52:53.946Z</time></trkpt><trkpt lat="37.0961075" lon="22.340569"><ele>532.0</ele><time>2026-04-29T13:52:54.945Z</time></trkpt><trkpt lat="37.0961109" lon="22.3404303"><ele>526.0</ele><time>2026-04-29T13:52:55.945Z</time></trkpt><trkpt lat="37.0960815" lon="22.3402951"><ele>525.5</ele><time>2026-04-29T13:52:56.945Z</time></trkpt><trkpt lat="37.0960277" lon="22.3401666"><ele>525.0</ele><time>2026-04-29T13:52:57.945Z</time></trkpt><trkpt lat="37.0959618" lon="22.3400388"><ele>524.5</ele><time>2026-04-29T13:52:58.945Z</time></trkpt><trkpt lat="37.0958779" lon="22.3398975"><ele>524.0</ele><time>2026-04-29T13:52:59.945Z</time></trkpt><trkpt lat="37.0957821" lon="22.3397337"><ele>532.6666666666666</ele><time>2026-04-29T13:53:00.945Z</time></trkpt><trkpt lat="37.0956797" lon="22.3395704"><ele>541.3333333333334</ele><time>2026-04-29T13:53:01.946Z</time></trkpt><trkpt lat="37.0955677" lon="22.3393948"><ele>550.0</ele><time>2026-04-29T13:53:02.945Z</time></trkpt><trkpt lat="37.0954644" lon="22.3392131"><ele>550.0</ele><time>2026-04-29T13:53:03.946Z</time></trkpt><trkpt lat="37.0953767" lon="22.3390162"><ele>550.0</ele><time>2026-04-29T13:53:04.945Z</time></trkpt><trkpt lat="37.0952984" lon="22.3388149"><ele>550.0</ele><time>2026-04-29T13:53:05.946Z</time></trkpt><trkpt lat="37.0952221" lon="22.3386144"><ele>543.3333333333334</ele><time>2026-04-29T13:53:06.945Z</time></trkpt><trkpt lat="37.0951433" lon="22.3384188"><ele>536.6666666666666</ele><time>2026-04-29T13:53:07.946Z</time></trkpt><trkpt lat="37.0950657" lon="22.3382324"><ele>530.0</ele><time>2026-04-29T13:53:08.945Z</time></trkpt><trkpt lat="37.0949701" lon="22.3380519"><ele>547.75</ele><time>2026-04-29T13:53:09.946Z</time></trkpt><trkpt lat="37.094886" lon="22.3378783"><ele>565.5</ele><time>2026-04-29T13:53:10.946Z</time></trkpt><trkpt lat="37.0948108" lon="22.3377265"><ele>583.25</ele><time>2026-04-29T13:53:11.946Z</time></trkpt><trkpt lat="37.0947508" lon="22.3375925"><ele>601.0</ele><time>2026-04-29T13:53:12.946Z</time></trkpt><trkpt lat="37.0947018" lon="22.3374846"><ele>601.0</ele><time>2026-04-29T13:53:13.945Z</time></trkpt><trkpt lat="37.0946905" lon="22.3373745"><ele>601.0</ele><time>2026-04-29T13:53:14.946Z</time></trkpt><trkpt lat="37.0946944" lon="22.3372816"><ele>601.0</ele><time>2026-04-29T13:53:15.945Z</time></trkpt><trkpt lat="37.094727" lon="22.3372005"><ele>601.0</ele><time>2026-04-29T13:53:16.945Z</time></trkpt><trkpt lat="37.0948017" lon="22.3371686"><ele>601.0</ele><time>2026-04-29T13:53:17.946Z</time></trkpt><trkpt lat="37.0948904" lon="22.3371534"><ele>601.0</ele><time>2026-04-29T13:53:18.946Z</time></trkpt><trkpt lat="37.0949921" lon="22.3371525"><ele>588.2</ele><time>2026-04-29T13:53:19.946Z</time></trkpt><trkpt lat="37.095086" lon="22.3371538"><ele>575.4000000000001</ele><time>2026-04-29T13:53:20.946Z</time></trkpt><trkpt lat="37.0951783" lon="22.3370908"><ele>562.6</ele><time>2026-04-29T13:53:21.945Z</time></trkpt><trkpt lat="37.095253" lon="22.3370248"><ele>549.8000000000001</ele><time>2026-04-29T13:53:22.945Z</time></trkpt><trkpt lat="37.0952757" lon="22.3368793"><ele>537.0</ele><time>2026-04-29T13:53:23.945Z</time></trkpt><trkpt lat="37.0953009" lon="22.3367362"><ele>537.0</ele><time>2026-04-29T13:53:24.946Z</time></trkpt><trkpt lat="37.0953304" lon="22.3365769"><ele>537.0</ele><time>2026-04-29T13:53:25.946Z</time></trkpt><trkpt lat="37.0953706" lon="22.3364201"><ele>537.0</ele><time>2026-04-29T13:53:26.945Z</time></trkpt><trkpt lat="37.0954311" lon="22.3362871"><ele>537.0</ele><time>2026-04-29T13:53:27.945Z</time></trkpt><trkpt lat="37.0955009" lon="22.3361664"><ele>542.1666666666666</ele><time>2026-04-29T13:53:28.945Z</time></trkpt><trkpt lat="37.0955548" lon="22.3360637"><ele>547.3333333333334</ele><time>2026-04-29T13:53:29.946Z</time></trkpt><trkpt lat="37.0956017" lon="22.3359817"><ele>552.5</ele><time>2026-04-29T13:53:30.946Z</time></trkpt><trkpt lat="37.0956155" lon="22.3358886"><ele>557.6666666666667</ele><time>2026-04-29T13:53:31.946Z</time></trkpt><trkpt lat="37.0955962" lon="22.3358076"><ele>562.8333333333334</ele><time>2026-04-29T13:53:32.945Z</time></trkpt><trkpt lat="37.0955197" lon="22.3357816"><ele>568.0</ele><time>2026-04-29T13:53:33.945Z</time></trkpt><trkpt lat="37.0954462" lon="22.3357488"><ele>568.0</ele><time>2026-04-29T13:53:34.945Z</time></trkpt><trkpt lat="37.0953668" lon="22.3357199"><ele>568.0</ele><time>2026-04-29T13:53:35.945Z</time></trkpt><trkpt lat="37.0952371" lon="22.3358238"><ele>568.0</ele><time>2026-04-29T13:53:36.946Z</time></trkpt><trkpt lat="37.0951567" lon="22.3359444"><ele>568.0</ele><time>2026-04-29T13:53:37.945Z</time></trkpt><trkpt lat="37.0952127" lon="22.3362738"><ele>560.25</ele><time>2026-04-29T13:53:38.945Z</time></trkpt><trkpt lat="37.095187" lon="22.336431"><ele>552.5</ele><time>2026-04-29T13:53:39.945Z</time></trkpt><trkpt lat="37.0951765" lon="22.3365918"><ele>544.75</ele><time>2026-04-29T13:53:40.946Z</time></trkpt><trkpt lat="37.0951603" lon="22.3367212"><ele>537.0</ele><time>2026-04-29T13:53:41.946Z</time></trkpt><trkpt lat="37.095139" lon="22.3368325"><ele>537.0</ele><time>2026-04-29T13:53:42.945Z</time></trkpt><trkpt lat="37.0950982" lon="22.3368966"><ele>537.0</ele><time>2026-04-29T13:53:43.946Z</time></trkpt><trkpt lat="37.0950063" lon="22.3369504"><ele>537.0</ele><time>2026-04-29T13:53:45.946Z</time></trkpt><trkpt lat="37.0949727" lon="22.3368516"><ele>537.0</ele><time>2026-04-29T13:53:46.946Z</time></trkpt><trkpt lat="37.0949765" lon="22.336728"><ele>537.0</ele><time>2026-04-29T13:53:47.945Z</time></trkpt><trkpt lat="37.0950207" lon="22.3365723"><ele>547.3333333333334</ele><time>2026-04-29T13:53:48.946Z</time></trkpt><trkpt lat="37.0950735" lon="22.3363654"><ele>557.6666666666667</ele><time>2026-04-29T13:53:49.945Z</time></trkpt><trkpt lat="37.0951288" lon="22.3361529"><ele>568.0</ele><time>2026-04-29T13:53:50.945Z</time></trkpt><trkpt lat="37.0951892" lon="22.3359602"><ele>568.0</ele><time>2026-04-29T13:53:51.946Z</time></trkpt><trkpt lat="37.0952573" lon="22.335793"><ele>568.0</ele><time>2026-04-29T13:53:52.945Z</time></trkpt><trkpt lat="37.0953471" lon="22.3356384"><ele>568.0</ele><time>2026-04-29T13:53:53.946Z</time></trkpt><trkpt lat="37.095436" lon="22.3355127"><ele>568.0</ele><time>2026-04-29T13:53:54.945Z</time></trkpt><trkpt lat="37.095513" lon="22.3353927"><ele>571.1999999999999</ele><time>2026-04-29T13:53:55.946Z</time></trkpt><trkpt lat="37.0955604" lon="22.3352742"><ele>574.4</ele><time>2026-04-29T13:53:56.946Z</time></trkpt><trkpt lat="37.0955797" lon="22.3351624"><ele>577.5999999999999</ele><time>2026-04-29T13:53:57.946Z</time></trkpt><trkpt lat="37.0955637" lon="22.3350537"><ele>580.8</ele><time>2026-04-29T13:53:58.946Z</time></trkpt><trkpt lat="37.0955448" lon="22.3349373"><ele>584.0</ele><time>2026-04-29T13:53:59.945Z</time></trkpt><trkpt lat="37.0954614" lon="22.3348533"><ele>584.0</ele><time>2026-04-29T13:54:00.946Z</time></trkpt><trkpt lat="37.0954215" lon="22.3347385"><ele>584.0</ele><time>2026-04-29T13:54:01.946Z</time></trkpt><trkpt lat="37.0953965" lon="22.3346135"><ele>584.0</ele><time>2026-04-29T13:54:02.945Z</time></trkpt><trkpt lat="37.0954292" lon="22.3344862"><ele>584.0</ele><time>2026-04-29T13:54:03.946Z</time></trkpt><trkpt lat="37.0954183" lon="22.3343658"><ele>584.0</ele><time>2026-04-29T13:54:04.945Z</time></trkpt><trkpt lat="37.0953911" lon="22.334253"><ele>582.8</ele><time>2026-04-29T13:54:05.946Z</time></trkpt><trkpt lat="37.0953548" lon="22.334138"><ele>581.5999999999999</ele><time>2026-04-29T13:54:06.946Z</time></trkpt><trkpt lat="37.095301" lon="22.3340245"><ele>580.4</ele><time>2026-04-29T13:54:07.945Z</time></trkpt><trkpt lat="37.0952411" lon="22.3339067"><ele>579.1999999999999</ele><time>2026-04-29T13:54:08.945Z</time></trkpt><trkpt lat="37.0951816" lon="22.333791"><ele>578.0</ele><time>2026-04-29T13:54:09.946Z</time></trkpt><trkpt lat="37.0951288" lon="22.3336829"><ele>574.0</ele><time>2026-04-29T13:54:10.946Z</time></trkpt><trkpt lat="37.0950852" lon="22.3335693"><ele>570.0</ele><time>2026-04-29T13:54:11.946Z</time></trkpt><trkpt lat="37.0950663" lon="22.3334547"><ele>566.0</ele><time>2026-04-29T13:54:12.946Z</time></trkpt><trkpt lat="37.0950651" lon="22.3333474"><ele>562.0</ele><time>2026-04-29T13:54:13.946Z</time></trkpt><trkpt lat="37.0950744" lon="22.3332373"><ele>558.0</ele><time>2026-04-29T13:54:14.945Z</time></trkpt><trkpt lat="37.0950803" lon="22.3331335"><ele>559.3333333333334</ele><time>2026-04-29T13:54:15.946Z</time></trkpt><trkpt lat="37.0950781" lon="22.3330409"><ele>560.6666666666666</ele><time>2026-04-29T13:54:16.945Z</time></trkpt><trkpt lat="37.0950285" lon="22.3329664"><ele>562.0</ele><time>2026-04-29T13:54:17.945Z</time></trkpt><trkpt lat="37.0949714" lon="22.3329158"><ele>563.3333333333333</ele><time>2026-04-29T13:54:18.946Z</time></trkpt><trkpt lat="37.0948916" lon="22.3329126"><ele>564.6666666666666</ele><time>2026-04-29T13:54:19.945Z</time></trkpt><trkpt lat="37.0947941" lon="22.3329453"><ele>566.0</ele><time>2026-04-29T13:54:20.946Z</time></trkpt><trkpt lat="37.0946712" lon="22.3330141"><ele>570.0</ele><time>2026-04-29T13:54:21.946Z</time></trkpt><trkpt lat="37.0945376" lon="22.3331031"><ele>574.0</ele><time>2026-04-29T13:54:22.946Z</time></trkpt><trkpt lat="37.0944184" lon="22.3331674"><ele>578.0</ele><time>2026-04-29T13:54:23.945Z</time></trkpt><trkpt lat="37.0942937" lon="22.3332265"><ele>582.0</ele><time>2026-04-29T13:54:24.945Z</time></trkpt><trkpt lat="37.0941581" lon="22.3332211"><ele>581.75</ele><time>2026-04-29T13:54:25.945Z</time></trkpt><trkpt lat="37.0940346" lon="22.3332105"><ele>581.5</ele><time>2026-04-29T13:54:26.946Z</time></trkpt><trkpt lat="37.0939352" lon="22.3331536"><ele>581.25</ele><time>2026-04-29T13:54:27.946Z</time></trkpt><trkpt lat="37.0938222" lon="22.3330773"><ele>581.0</ele><time>2026-04-29T13:54:28.945Z</time></trkpt><trkpt lat="37.093757" lon="22.3329558"><ele>581.0</ele><time>2026-04-29T13:54:29.946Z</time></trkpt><trkpt lat="37.093709" lon="22.3328052"><ele>581.0</ele><time>2026-04-29T13:54:30.946Z</time></trkpt><trkpt lat="37.093655" lon="22.332675"><ele>581.0</ele><time>2026-04-29T13:54:31.946Z</time></trkpt><trkpt lat="37.0935793" lon="22.3325655"><ele>581.0</ele><time>2026-04-29T13:54:32.945Z</time></trkpt><trkpt lat="37.0934837" lon="22.3324838"><ele>581.0</ele><time>2026-04-29T13:54:33.945Z</time></trkpt><trkpt lat="37.093375" lon="22.3324279"><ele>581.0</ele><time>2026-04-29T13:54:34.945Z</time></trkpt><trkpt lat="37.0932707" lon="22.3323641"><ele>581.0</ele><time>2026-04-29T13:54:35.943Z</time></trkpt><trkpt lat="37.0931687" lon="22.3323071"><ele>581.0</ele><time>2026-04-29T13:54:36.945Z</time></trkpt><trkpt lat="37.0931527" lon="22.3321127"><ele>591.75</ele><time>2026-04-29T13:54:37.946Z</time></trkpt><trkpt lat="37.0930944" lon="22.3319719"><ele>602.5</ele><time>2026-04-29T13:54:38.945Z</time></trkpt><trkpt lat="37.0930955" lon="22.3318073"><ele>613.25</ele><time>2026-04-29T13:54:39.945Z</time></trkpt><trkpt lat="37.0930998" lon="22.3316752"><ele>624.0</ele><time>2026-04-29T13:54:40.945Z</time></trkpt><trkpt lat="37.0930739" lon="22.3315516"><ele>624.0</ele><time>2026-04-29T13:54:41.945Z</time></trkpt><trkpt lat="37.0930233" lon="22.3314521"><ele>624.0</ele><time>2026-04-29T13:54:42.945Z</time></trkpt><trkpt lat="37.0929185" lon="22.3313785"><ele>624.0</ele><time>2026-04-29T13:54:43.946Z</time></trkpt><trkpt lat="37.0928241" lon="22.3313154"><ele>624.0</ele><time>2026-04-29T13:54:44.946Z</time></trkpt><trkpt lat="37.092725" lon="22.3312327"><ele>624.0</ele><time>2026-04-29T13:54:45.946Z</time></trkpt><trkpt lat="37.0927015" lon="22.331086"><ele>617.75</ele><time>2026-04-29T13:54:46.945Z</time></trkpt><trkpt lat="37.0926602" lon="22.3309374"><ele>611.5</ele><time>2026-04-29T13:54:47.946Z</time></trkpt><trkpt lat="37.0926377" lon="22.3307799"><ele>605.25</ele><time>2026-04-29T13:54:48.946Z</time></trkpt><trkpt lat="37.0926185" lon="22.3306159"><ele>599.0</ele><time>2026-04-29T13:54:49.946Z</time></trkpt><trkpt lat="37.0926019" lon="22.3304517"><ele>598.4</ele><time>2026-04-29T13:54:50.945Z</time></trkpt><trkpt lat="37.0925867" lon="22.3302964"><ele>597.8</ele><time>2026-04-29T13:54:51.945Z</time></trkpt><trkpt lat="37.0925821" lon="22.3301566"><ele>597.2</ele><time>2026-04-29T13:54:52.945Z</time></trkpt><trkpt lat="37.0925844" lon="22.3300313"><ele>596.6</ele><time>2026-04-29T13:54:53.945Z</time></trkpt><trkpt lat="37.0926054" lon="22.3299194"><ele>596.0</ele><time>2026-04-29T13:54:54.946Z</time></trkpt><trkpt lat="37.0926338" lon="22.329805"><ele>595.0</ele><time>2026-04-29T13:54:55.946Z</time></trkpt><trkpt lat="37.0926583" lon="22.3296734"><ele>594.0</ele><time>2026-04-29T13:54:56.946Z</time></trkpt><trkpt lat="37.0926563" lon="22.3295224"><ele>593.0</ele><time>2026-04-29T13:54:57.945Z</time></trkpt><trkpt lat="37.0926505" lon="22.3293719"><ele>592.0</ele><time>2026-04-29T13:54:58.945Z</time></trkpt><trkpt lat="37.092631" lon="22.3292374"><ele>592.0</ele><time>2026-04-29T13:54:59.946Z</time></trkpt><trkpt lat="37.0926557" lon="22.3291029"><ele>592.0</ele><time>2026-04-29T13:55:00.945Z</time></trkpt><trkpt lat="37.0927081" lon="22.3289592"><ele>592.0</ele><time>2026-04-29T13:55:01.946Z</time></trkpt><trkpt lat="37.0927116" lon="22.3288123"><ele>592.0</ele><time>2026-04-29T13:55:02.945Z</time></trkpt><trkpt lat="37.092698" lon="22.3286568"><ele>593.0</ele><time>2026-04-29T13:55:03.946Z</time></trkpt><trkpt lat="37.0926546" lon="22.328503"><ele>594.0</ele><time>2026-04-29T13:55:04.945Z</time></trkpt><trkpt lat="37.0926115" lon="22.3283493"><ele>595.0</ele><time>2026-04-29T13:55:05.946Z</time></trkpt><trkpt lat="37.0925415" lon="22.3282183"><ele>596.0</ele><time>2026-04-29T13:55:06.946Z</time></trkpt><trkpt lat="37.0924951" lon="22.3281016"><ele>598.6666666666666</ele><time>2026-04-29T13:55:07.946Z</time></trkpt><trkpt lat="37.0924478" lon="22.3279991"><ele>601.3333333333333</ele><time>2026-04-29T13:55:08.946Z</time></trkpt><trkpt lat="37.0924096" lon="22.3279124"><ele>604.0</ele><time>2026-04-29T13:55:09.945Z</time></trkpt><trkpt lat="37.092456" lon="22.3278041"><ele>606.6666666666666</ele><time>2026-04-29T13:55:11.945Z</time></trkpt><trkpt lat="37.0925187" lon="22.3277956"><ele>609.3333333333334</ele><time>2026-04-29T13:55:12.946Z</time></trkpt><trkpt lat="37.0925834" lon="22.327804"><ele>612.0</ele><time>2026-04-29T13:55:13.945Z</time></trkpt><trkpt lat="37.0926616" lon="22.3278261"><ele>606.6666666666666</ele><time>2026-04-29T13:55:14.945Z</time></trkpt><trkpt lat="37.0926868" lon="22.3281198"><ele>601.3333333333333</ele><time>2026-04-29T13:55:15.946Z</time></trkpt><trkpt lat="37.092731" lon="22.3283251"><ele>596.0</ele><time>2026-04-29T13:55:16.946Z</time></trkpt><trkpt lat="37.0927902" lon="22.3285245"><ele>596.0</ele><time>2026-04-29T13:55:17.946Z</time></trkpt><trkpt lat="37.0928327" lon="22.3287085"><ele>596.0</ele><time>2026-04-29T13:55:18.945Z</time></trkpt><trkpt lat="37.0928549" lon="22.3289013"><ele>596.0</ele><time>2026-04-29T13:55:19.945Z</time></trkpt><trkpt lat="37.0928544" lon="22.3290964"><ele>596.0</ele><time>2026-04-29T13:55:20.945Z</time></trkpt><trkpt lat="37.0928507" lon="22.3292851"><ele>596.0</ele><time>2026-04-29T13:55:21.946Z</time></trkpt><trkpt lat="37.0928615" lon="22.3294487"><ele>596.0</ele><time>2026-04-29T13:55:22.946Z</time></trkpt><trkpt lat="37.0928531" lon="22.3295949"><ele>596.0</ele><time>2026-04-29T13:55:23.946Z</time></trkpt><trkpt lat="37.0929217" lon="22.3297584"><ele>596.0</ele><time>2026-04-29T13:55:25.945Z</time></trkpt><trkpt lat="37.0929805" lon="22.3297983"><ele>596.0</ele><time>2026-04-29T13:55:26.946Z</time></trkpt><trkpt lat="37.0930456" lon="22.329795"><ele>596.0</ele><time>2026-04-29T13:55:27.946Z</time></trkpt><trkpt lat="37.0931023" lon="22.3297445"><ele>596.0</ele><time>2026-04-29T13:55:28.945Z</time></trkpt><trkpt lat="37.0931389" lon="22.3296643"><ele>596.0</ele><time>2026-04-29T13:55:29.945Z</time></trkpt><trkpt lat="37.0931573" lon="22.3295456"><ele>596.0</ele><time>2026-04-29T13:55:30.946Z</time></trkpt><trkpt lat="37.0931523" lon="22.3293888"><ele>596.0</ele><time>2026-04-29T13:55:31.946Z</time></trkpt><trkpt lat="37.0931401" lon="22.3292001"><ele>596.0</ele><time>2026-04-29T13:55:32.946Z</time></trkpt><trkpt lat="37.0931203" lon="22.3290225"><ele>596.0</ele><time>2026-04-29T13:55:33.945Z</time></trkpt><trkpt lat="37.0930977" lon="22.3288413"><ele>596.0</ele><time>2026-04-29T13:55:34.946Z</time></trkpt><trkpt lat="37.0930732" lon="22.3286618"><ele>596.0</ele><time>2026-04-29T13:55:35.945Z</time></trkpt><trkpt lat="37.093037" lon="22.3284774"><ele>596.0</ele><time>2026-04-29T13:55:36.946Z</time></trkpt><trkpt lat="37.0929788" lon="22.3282947"><ele>596.0</ele><time>2026-04-29T13:55:37.946Z</time></trkpt><trkpt lat="37.0929018" lon="22.3281206"><ele>601.3333333333333</ele><time>2026-04-29T13:55:38.946Z</time></trkpt><trkpt lat="37.0928278" lon="22.3279466"><ele>606.6666666666666</ele><time>2026-04-29T13:55:39.946Z</time></trkpt><trkpt lat="37.0927434" lon="22.3277668"><ele>612.0</ele><time>2026-04-29T13:55:40.946Z</time></trkpt><trkpt lat="37.0926904" lon="22.3275267"><ele>612.0</ele><time>2026-04-29T13:55:41.946Z</time></trkpt><trkpt lat="37.0926255" lon="22.3272762"><ele>612.0</ele><time>2026-04-29T13:55:42.946Z</time></trkpt><trkpt lat="37.0925775" lon="22.3270266"><ele>612.0</ele><time>2026-04-29T13:55:43.945Z</time></trkpt><trkpt lat="37.0925175" lon="22.3267903"><ele>613.3333333333334</ele><time>2026-04-29T13:55:44.946Z</time></trkpt><trkpt lat="37.0924546" lon="22.3265792"><ele>614.6666666666667</ele><time>2026-04-29T13:55:45.946Z</time></trkpt><trkpt lat="37.0923671" lon="22.3263863"><ele>616.0</ele><time>2026-04-29T13:55:46.946Z</time></trkpt><trkpt lat="37.0922495" lon="22.3261994"><ele>616.0</ele><time>2026-04-29T13:55:47.945Z</time></trkpt><trkpt lat="37.0921217" lon="22.3260179"><ele>616.0</ele><time>2026-04-29T13:55:48.945Z</time></trkpt><trkpt lat="37.0920037" lon="22.3258432"><ele>616.0</ele><time>2026-04-29T13:55:49.946Z</time></trkpt><trkpt lat="37.0918878" lon="22.3256549"><ele>625.6666666666667</ele><time>2026-04-29T13:55:50.946Z</time></trkpt><trkpt lat="37.0917767" lon="22.3254644"><ele>635.3333333333334</ele><time>2026-04-29T13:55:51.946Z</time></trkpt><trkpt lat="37.0916943" lon="22.3252145"><ele>645.0</ele><time>2026-04-29T13:55:52.946Z</time></trkpt><trkpt lat="37.091598" lon="22.3249996"><ele>647.3333333333334</ele><time>2026-04-29T13:55:53.945Z</time></trkpt><trkpt lat="37.0914999" lon="22.3247734"><ele>649.6666666666667</ele><time>2026-04-29T13:55:54.945Z</time></trkpt><trkpt lat="37.0913875" lon="22.3245691"><ele>652.0</ele><time>2026-04-29T13:55:55.945Z</time></trkpt><trkpt lat="37.091291" lon="22.3243702"><ele>652.0</ele><time>2026-04-29T13:55:56.946Z</time></trkpt><trkpt lat="37.0911802" lon="22.324259"><ele>652.0</ele><time>2026-04-29T13:55:57.945Z</time></trkpt><trkpt lat="37.0910666" lon="22.3241327"><ele>652.0</ele><time>2026-04-29T13:55:58.945Z</time></trkpt><trkpt lat="37.0909392" lon="22.3240241"><ele>652.0</ele><time>2026-04-29T13:55:59.945Z</time></trkpt><trkpt lat="37.0908155" lon="22.3239276"><ele>656.75</ele><time>2026-04-29T13:56:00.946Z</time></trkpt><trkpt lat="37.090684" lon="22.3238387"><ele>661.5</ele><time>2026-04-29T13:56:01.946Z</time></trkpt><trkpt lat="37.0905615" lon="22.323776"><ele>666.25</ele><time>2026-04-29T13:56:02.946Z</time></trkpt><trkpt lat="37.0904387" lon="22.3237483"><ele>671.0</ele><time>2026-04-29T13:56:03.946Z</time></trkpt><trkpt lat="37.090313" lon="22.3237339"><ele>671.0</ele><time>2026-04-29T13:56:04.946Z</time></trkpt><trkpt lat="37.0901855" lon="22.3237312"><ele>671.0</ele><time>2026-04-29T13:56:05.946Z</time></trkpt><trkpt lat="37.0900701" lon="22.3237099"><ele>671.0</ele><time>2026-04-29T13:56:06.945Z</time></trkpt><trkpt lat="37.0899569" lon="22.323667"><ele>671.0</ele><time>2026-04-29T13:56:07.945Z</time></trkpt><trkpt lat="37.0898451" lon="22.3236183"><ele>671.0</ele><time>2026-04-29T13:56:08.945Z</time></trkpt><trkpt lat="37.0897975" lon="22.3235578"><ele>671.0</ele><time>2026-04-29T13:56:09.945Z</time></trkpt><trkpt lat="37.0898037" lon="22.3234322"><ele>671.0</ele><time>2026-04-29T13:56:11.946Z</time></trkpt><trkpt lat="37.0899141" lon="22.3234215"><ele>671.0</ele><time>2026-04-29T13:56:13.945Z</time></trkpt><trkpt lat="37.0899889" lon="22.3234445"><ele>671.0</ele><time>2026-04-29T13:56:14.946Z</time></trkpt><trkpt lat="37.0900646" lon="22.3235334"><ele>671.0</ele><time>2026-04-29T13:56:15.945Z</time></trkpt><trkpt lat="37.090183" lon="22.3235818"><ele>671.0</ele><time>2026-04-29T13:56:16.945Z</time></trkpt><trkpt lat="37.090297" lon="22.3236342"><ele>671.0</ele><time>2026-04-29T13:56:17.945Z</time></trkpt><trkpt lat="37.0904369" lon="22.3236205"><ele>671.0</ele><time>2026-04-29T13:56:18.946Z</time></trkpt><trkpt lat="37.0905672" lon="22.3236379"><ele>671.0</ele><time>2026-04-29T13:56:19.945Z</time></trkpt><trkpt lat="37.0906909" lon="22.3236536"><ele>671.0</ele><time>2026-04-29T13:56:20.946Z</time></trkpt><trkpt lat="37.0908093" lon="22.3236985"><ele>671.0</ele><time>2026-04-29T13:56:21.945Z</time></trkpt><trkpt lat="37.0909343" lon="22.3237517"><ele>671.0</ele><time>2026-04-29T13:56:22.945Z</time></trkpt><trkpt lat="37.0910609" lon="22.3238085"><ele>666.25</ele><time>2026-04-29T13:56:23.945Z</time></trkpt><trkpt lat="37.0911866" lon="22.3238852"><ele>661.5</ele><time>2026-04-29T13:56:24.945Z</time></trkpt><trkpt lat="37.0913137" lon="22.32398"><ele>656.75</ele><time>2026-04-29T13:56:25.945Z</time></trkpt><trkpt lat="37.0914417" lon="22.3240943"><ele>652.0</ele><time>2026-04-29T13:56:26.945Z</time></trkpt><trkpt lat="37.0915601" lon="22.3242213"><ele>663.0</ele><time>2026-04-29T13:56:27.946Z</time></trkpt><trkpt lat="37.0916713" lon="22.3243636"><ele>674.0</ele><time>2026-04-29T13:56:28.946Z</time></trkpt><trkpt lat="37.0917708" lon="22.324519"><ele>685.0</ele><time>2026-04-29T13:56:29.946Z</time></trkpt><trkpt lat="37.0918572" lon="22.3246727"><ele>675.0</ele><time>2026-04-29T13:56:30.945Z</time></trkpt><trkpt lat="37.0919256" lon="22.3248246"><ele>665.0</ele><time>2026-04-29T13:56:31.946Z</time></trkpt><trkpt lat="37.0919735" lon="22.3249792"><ele>655.0</ele><time>2026-04-29T13:56:32.945Z</time></trkpt><trkpt lat="37.092011" lon="22.3251066"><ele>645.0</ele><time>2026-04-29T13:56:33.945Z</time></trkpt><trkpt lat="37.0920446" lon="22.3252168"><ele>645.0</ele><time>2026-04-29T13:56:34.945Z</time></trkpt><trkpt lat="37.0920853" lon="22.3253111"><ele>645.0</ele><time>2026-04-29T13:56:35.946Z</time></trkpt><trkpt lat="37.0921511" lon="22.325338"><ele>645.0</ele><time>2026-04-29T13:56:36.945Z</time></trkpt><trkpt lat="37.0922214" lon="22.3253292"><ele>645.0</ele><time>2026-04-29T13:56:37.946Z</time></trkpt><trkpt lat="37.0923037" lon="22.3252642"><ele>645.0</ele><time>2026-04-29T13:56:39.945Z</time></trkpt><trkpt lat="37.0922884" lon="22.325089"><ele>645.0</ele><time>2026-04-29T13:56:41.945Z</time></trkpt><trkpt lat="37.0922588" lon="22.3249242"><ele>645.0</ele><time>2026-04-29T13:56:42.946Z</time></trkpt><trkpt lat="37.0922132" lon="22.324746"><ele>645.0</ele><time>2026-04-29T13:56:43.946Z</time></trkpt><trkpt lat="37.0921521" lon="22.324518"><ele>665.0</ele><time>2026-04-29T13:56:44.946Z</time></trkpt><trkpt lat="37.092049" lon="22.3242339"><ele>685.0</ele><time>2026-04-29T13:56:45.945Z</time></trkpt><trkpt lat="37.0918323" lon="22.3239949"><ele>688.3333333333334</ele><time>2026-04-29T13:56:46.944Z</time></trkpt><trkpt lat="37.0916988" lon="22.323761"><ele>691.6666666666666</ele><time>2026-04-29T13:56:47.946Z</time></trkpt><trkpt lat="37.0915726" lon="22.3235888"><ele>695.0</ele><time>2026-04-29T13:56:48.945Z</time></trkpt><trkpt lat="37.0914083" lon="22.3234743"><ele>695.0</ele><time>2026-04-29T13:56:49.946Z</time></trkpt><trkpt lat="37.0912581" lon="22.3233842"><ele>695.0</ele><time>2026-04-29T13:56:50.945Z</time></trkpt><trkpt lat="37.0910958" lon="22.3233255"><ele>695.0</ele><time>2026-04-29T13:56:51.946Z</time></trkpt><trkpt lat="37.0909303" lon="22.3232756"><ele>695.0</ele><time>2026-04-29T13:56:52.946Z</time></trkpt><trkpt lat="37.0907797" lon="22.3232389"><ele>695.0</ele><time>2026-04-29T13:56:53.946Z</time></trkpt><trkpt lat="37.090627" lon="22.3232095"><ele>695.0</ele><time>2026-04-29T13:56:54.945Z</time></trkpt><trkpt lat="37.0904914" lon="22.3231801"><ele>695.0</ele><time>2026-04-29T13:56:55.945Z</time></trkpt><trkpt lat="37.0903554" lon="22.3231487"><ele>697.5</ele><time>2026-04-29T13:56:56.945Z</time></trkpt><trkpt lat="37.0902479" lon="22.3230768"><ele>700.0</ele><time>2026-04-29T13:56:57.945Z</time></trkpt><trkpt lat="37.0901853" lon="22.3229073"><ele>702.5</ele><time>2026-04-29T13:56:58.945Z</time></trkpt><trkpt lat="37.0901283" lon="22.3227605"><ele>705.0</ele><time>2026-04-29T13:56:59.945Z</time></trkpt><trkpt lat="37.0900787" lon="22.3225926"><ele>705.0</ele><time>2026-04-29T13:57:00.945Z</time></trkpt><trkpt lat="37.0900307" lon="22.322454"><ele>705.0</ele><time>2026-04-29T13:57:01.946Z</time></trkpt><trkpt lat="37.0899698" lon="22.3223398"><ele>705.0</ele><time>2026-04-29T13:57:02.946Z</time></trkpt><trkpt lat="37.0898975" lon="22.3222462"><ele>705.0</ele><time>2026-04-29T13:57:03.946Z</time></trkpt><trkpt lat="37.0897916" lon="22.3222155"><ele>705.0</ele><time>2026-04-29T13:57:04.946Z</time></trkpt><trkpt lat="37.0896839" lon="22.3222163"><ele>706.4</ele><time>2026-04-29T13:57:05.946Z</time></trkpt><trkpt lat="37.089577" lon="22.3222295"><ele>707.8</ele><time>2026-04-29T13:57:06.946Z</time></trkpt><trkpt lat="37.0894778" lon="22.3221577"><ele>709.2</ele><time>2026-04-29T13:57:07.946Z</time></trkpt><trkpt lat="37.0893912" lon="22.3221152"><ele>710.6</ele><time>2026-04-29T13:57:08.945Z</time></trkpt><trkpt lat="37.0893067" lon="22.3220615"><ele>712.0</ele><time>2026-04-29T13:57:09.945Z</time></trkpt><trkpt lat="37.0892043" lon="22.3220021"><ele>712.0</ele><time>2026-04-29T13:57:10.946Z</time></trkpt><trkpt lat="37.0891399" lon="22.3218738"><ele>712.0</ele><time>2026-04-29T13:57:11.946Z</time></trkpt><trkpt lat="37.0890464" lon="22.3217809"><ele>712.0</ele><time>2026-04-29T13:57:12.946Z</time></trkpt><trkpt lat="37.0889473" lon="22.3216829"><ele>712.0</ele><time>2026-04-29T13:57:13.945Z</time></trkpt><trkpt lat="37.0888407" lon="22.3215934"><ele>705.75</ele><time>2026-04-29T13:57:14.946Z</time></trkpt><trkpt lat="37.0887298" lon="22.3215222"><ele>699.5</ele><time>2026-04-29T13:57:15.946Z</time></trkpt><trkpt lat="37.0886062" lon="22.3214728"><ele>693.25</ele><time>2026-04-29T13:57:16.945Z</time></trkpt><trkpt lat="37.0884848" lon="22.3214215"><ele>687.0</ele><time>2026-04-29T13:57:17.946Z</time></trkpt><trkpt lat="37.0883655" lon="22.3213679"><ele>691.25</ele><time>2026-04-29T13:57:18.945Z</time></trkpt><trkpt lat="37.088247" lon="22.3213197"><ele>695.5</ele><time>2026-04-29T13:57:19.946Z</time></trkpt><trkpt lat="37.0881367" lon="22.3212745"><ele>699.75</ele><time>2026-04-29T13:57:20.946Z</time></trkpt><trkpt lat="37.0880435" lon="22.321218"><ele>704.0</ele><time>2026-04-29T13:57:21.946Z</time></trkpt><trkpt lat="37.0879569" lon="22.3211367"><ele>704.0</ele><time>2026-04-29T13:57:22.945Z</time></trkpt><trkpt lat="37.0878793" lon="22.3210381"><ele>704.0</ele><time>2026-04-29T13:57:23.946Z</time></trkpt><trkpt lat="37.0878019" lon="22.3209099"><ele>704.0</ele><time>2026-04-29T13:57:24.945Z</time></trkpt><trkpt lat="37.0877104" lon="22.3207872"><ele>704.0</ele><time>2026-04-29T13:57:25.946Z</time></trkpt><trkpt lat="37.0876093" lon="22.3206816"><ele>704.0</ele><time>2026-04-29T13:57:26.945Z</time></trkpt><trkpt lat="37.0874947" lon="22.3205833"><ele>704.0</ele><time>2026-04-29T13:57:27.945Z</time></trkpt><trkpt lat="37.0873805" lon="22.3204937"><ele>704.0</ele><time>2026-04-29T13:57:28.946Z</time></trkpt><trkpt lat="37.0872681" lon="22.3204082"><ele>704.0</ele><time>2026-04-29T13:57:29.946Z</time></trkpt><trkpt lat="37.0871688" lon="22.3203316"><ele>706.1666666666666</ele><time>2026-04-29T13:57:30.945Z</time></trkpt><trkpt lat="37.0870692" lon="22.320255"><ele>708.3333333333333</ele><time>2026-04-29T13:57:31.945Z</time></trkpt><trkpt lat="37.0870488" lon="22.3201729"><ele>710.5</ele><time>2026-04-29T13:57:32.945Z</time></trkpt><trkpt lat="37.0870038" lon="22.3201128"><ele>712.6666666666666</ele><time>2026-04-29T13:57:33.946Z</time></trkpt><trkpt lat="37.0870807" lon="22.3200343"><ele>714.8333333333334</ele><time>2026-04-29T13:57:35.946Z</time></trkpt><trkpt lat="37.0871488" lon="22.3200765"><ele>717.0</ele><time>2026-04-29T13:57:36.946Z</time></trkpt><trkpt lat="37.0872217" lon="22.3201313"><ele>717.0</ele><time>2026-04-29T13:57:37.945Z</time></trkpt><trkpt lat="37.0873296" lon="22.3202906"><ele>717.0</ele><time>2026-04-29T13:57:38.946Z</time></trkpt><trkpt lat="37.0874551" lon="22.3203949"><ele>717.0</ele><time>2026-04-29T13:57:39.945Z</time></trkpt><trkpt lat="37.0875918" lon="22.3204917"><ele>713.75</ele><time>2026-04-29T13:57:40.945Z</time></trkpt><trkpt lat="37.0877121" lon="22.3206036"><ele>710.5</ele><time>2026-04-29T13:57:41.945Z</time></trkpt><trkpt lat="37.0878094" lon="22.3207023"><ele>707.25</ele><time>2026-04-29T13:57:42.945Z</time></trkpt><trkpt lat="37.0878815" lon="22.3208027"><ele>704.0</ele><time>2026-04-29T13:57:43.946Z</time></trkpt><trkpt lat="37.0879475" lon="22.320875"><ele>704.0</ele><time>2026-04-29T13:57:44.945Z</time></trkpt><trkpt lat="37.0880122" lon="22.3208999"><ele>704.0</ele><time>2026-04-29T13:57:45.945Z</time></trkpt><trkpt lat="37.0880979" lon="22.3208099"><ele>704.0</ele><time>2026-04-29T13:57:47.945Z</time></trkpt><trkpt lat="37.0880431" lon="22.3206753"><ele>704.0</ele><time>2026-04-29T13:57:49.946Z</time></trkpt><trkpt lat="37.0879625" lon="22.3205814"><ele>704.0</ele><time>2026-04-29T13:57:50.946Z</time></trkpt><trkpt lat="37.0878716" lon="22.3204808"><ele>721.3333333333333</ele><time>2026-04-29T13:57:51.946Z</time></trkpt><trkpt lat="37.0877457" lon="22.3203483"><ele>738.6666666666666</ele><time>2026-04-29T13:57:52.946Z</time></trkpt><trkpt lat="37.0876035" lon="22.3202056"><ele>756.0</ele><time>2026-04-29T13:57:53.945Z</time></trkpt><trkpt lat="37.087462" lon="22.3200843"><ele>753.0</ele><time>2026-04-29T13:57:54.946Z</time></trkpt><trkpt lat="37.0873424" lon="22.3199196"><ele>750.0</ele><time>2026-04-29T13:57:55.945Z</time></trkpt><trkpt lat="37.0872137" lon="22.3197618"><ele>747.0</ele><time>2026-04-29T13:57:56.945Z</time></trkpt><trkpt lat="37.0870826" lon="22.3196119"><ele>747.0</ele><time>2026-04-29T13:57:57.945Z</time></trkpt><trkpt lat="37.0869551" lon="22.3194674"><ele>747.0</ele><time>2026-04-29T13:57:58.945Z</time></trkpt><trkpt lat="37.0868438" lon="22.3193021"><ele>747.0</ele><time>2026-04-29T13:57:59.945Z</time></trkpt><trkpt lat="37.0867313" lon="22.3191558"><ele>747.0</ele><time>2026-04-29T13:58:00.946Z</time></trkpt><trkpt lat="37.0866388" lon="22.318997"><ele>747.0</ele><time>2026-04-29T13:58:01.945Z</time></trkpt><trkpt lat="37.0865601" lon="22.3188258"><ele>747.0</ele><time>2026-04-29T13:58:02.946Z</time></trkpt><trkpt lat="37.0864853" lon="22.3186543"><ele>746.0</ele><time>2026-04-29T13:58:03.946Z</time></trkpt><trkpt lat="37.0863859" lon="22.318427"><ele>745.0</ele><time>2026-04-29T13:58:04.945Z</time></trkpt><trkpt lat="37.0862586" lon="22.3182111"><ele>744.0</ele><time>2026-04-29T13:58:05.946Z</time></trkpt><trkpt lat="37.0861462" lon="22.3180038"><ele>744.0</ele><time>2026-04-29T13:58:06.946Z</time></trkpt><trkpt lat="37.0860508" lon="22.3178047"><ele>744.0</ele><time>2026-04-29T13:58:07.945Z</time></trkpt><trkpt lat="37.0859882" lon="22.3176034"><ele>744.0</ele><time>2026-04-29T13:58:08.945Z</time></trkpt><trkpt lat="37.085919" lon="22.317421"><ele>744.0</ele><time>2026-04-29T13:58:09.946Z</time></trkpt><trkpt lat="37.0858645" lon="22.3172422"><ele>744.0</ele><time>2026-04-29T13:58:10.946Z</time></trkpt><trkpt lat="37.0858107" lon="22.3170727"><ele>744.0</ele><time>2026-04-29T13:58:11.945Z</time></trkpt><trkpt lat="37.0857544" lon="22.316908"><ele>744.0</ele><time>2026-04-29T13:58:12.946Z</time></trkpt><trkpt lat="37.0857108" lon="22.3167404"><ele>745.5</ele><time>2026-04-29T13:58:13.945Z</time></trkpt><trkpt lat="37.0856677" lon="22.3165703"><ele>747.0</ele><time>2026-04-29T13:58:14.945Z</time></trkpt><trkpt lat="37.0856223" lon="22.3164124"><ele>748.5</ele><time>2026-04-29T13:58:15.945Z</time></trkpt><trkpt lat="37.0855637" lon="22.3162742"><ele>750.0</ele><time>2026-04-29T13:58:16.946Z</time></trkpt><trkpt lat="37.0854929" lon="22.3161422"><ele>750.0</ele><time>2026-04-29T13:58:17.946Z</time></trkpt><trkpt lat="37.0854231" lon="22.31602"><ele>750.0</ele><time>2026-04-29T13:58:18.946Z</time></trkpt><trkpt lat="37.0853617" lon="22.315936"><ele>750.0</ele><time>2026-04-29T13:58:19.945Z</time></trkpt><trkpt lat="37.0852896" lon="22.3158597"><ele>750.0</ele><time>2026-04-29T13:58:20.945Z</time></trkpt><trkpt lat="37.0852317" lon="22.3157861"><ele>750.0</ele><time>2026-04-29T13:58:21.946Z</time></trkpt><trkpt lat="37.0851807" lon="22.3156883"><ele>750.0</ele><time>2026-04-29T13:58:22.946Z</time></trkpt><trkpt lat="37.0851426" lon="22.3156172"><ele>750.0</ele><time>2026-04-29T13:58:23.946Z</time></trkpt><trkpt lat="37.0850961" lon="22.3155199"><ele>750.0</ele><time>2026-04-29T13:58:24.946Z</time></trkpt><trkpt lat="37.0850574" lon="22.3154247"><ele>750.0</ele><time>2026-04-29T13:58:25.946Z</time></trkpt><trkpt lat="37.0847601" lon="22.3149649"><ele>752.1666666666666</ele><time>2026-04-29T13:58:33.945Z</time></trkpt><trkpt lat="37.0846661" lon="22.3149253"><ele>754.3333333333334</ele><time>2026-04-29T13:58:34.946Z</time></trkpt><trkpt lat="37.0846242" lon="22.3148373"><ele>756.5</ele><time>2026-04-29T13:58:35.945Z</time></trkpt><trkpt lat="37.0845469" lon="22.3147841"><ele>758.6666666666667</ele><time>2026-04-29T13:58:36.946Z</time></trkpt><trkpt lat="37.084482" lon="22.3147424"><ele>760.8333333333334</ele><time>2026-04-29T13:58:37.945Z</time></trkpt><trkpt lat="37.0844637" lon="22.3146329"><ele>763.0</ele><time>2026-04-29T13:58:38.946Z</time></trkpt><trkpt lat="37.0844909" lon="22.3145176"><ele>764.8</ele><time>2026-04-29T13:58:39.945Z</time></trkpt><trkpt lat="37.0844934" lon="22.3143775"><ele>766.5999999999999</ele><time>2026-04-29T13:58:40.945Z</time></trkpt><trkpt lat="37.0844316" lon="22.3142939"><ele>768.4000000000001</ele><time>2026-04-29T13:58:41.945Z</time></trkpt><trkpt lat="37.0843626" lon="22.3142138"><ele>770.2</ele><time>2026-04-29T13:58:42.946Z</time></trkpt><trkpt lat="37.0842877" lon="22.3141561"><ele>772.0</ele><time>2026-04-29T13:58:43.946Z</time></trkpt><trkpt lat="37.0841929" lon="22.3140976"><ele>772.0</ele><time>2026-04-29T13:58:44.946Z</time></trkpt><trkpt lat="37.0841289" lon="22.3140367"><ele>772.0</ele><time>2026-04-29T13:58:45.945Z</time></trkpt><trkpt lat="37.0840588" lon="22.3139353"><ele>772.0</ele><time>2026-04-29T13:58:46.945Z</time></trkpt><trkpt lat="37.0839848" lon="22.3137916"><ele>772.0</ele><time>2026-04-29T13:58:47.946Z</time></trkpt><trkpt lat="37.0838979" lon="22.3136505"><ele>771.0</ele><time>2026-04-29T13:58:48.946Z</time></trkpt><trkpt lat="37.083808" lon="22.3134966"><ele>770.0</ele><time>2026-04-29T13:58:49.945Z</time></trkpt><trkpt lat="37.0837156" lon="22.3133516"><ele>769.0</ele><time>2026-04-29T13:58:50.945Z</time></trkpt><trkpt lat="37.0836237" lon="22.3131961"><ele>776.6666666666666</ele><time>2026-04-29T13:58:51.946Z</time></trkpt><trkpt lat="37.0835408" lon="22.313032"><ele>784.3333333333333</ele><time>2026-04-29T13:58:52.946Z</time></trkpt><trkpt lat="37.0834681" lon="22.3128614"><ele>792.0</ele><time>2026-04-29T13:58:53.945Z</time></trkpt><trkpt lat="37.0833953" lon="22.312685"><ele>792.0</ele><time>2026-04-29T13:58:54.945Z</time></trkpt><trkpt lat="37.0833219" lon="22.3125015"><ele>792.0</ele><time>2026-04-29T13:58:55.945Z</time></trkpt><trkpt lat="37.0832459" lon="22.3123223"><ele>792.0</ele><time>2026-04-29T13:58:56.946Z</time></trkpt><trkpt lat="37.0831752" lon="22.312158"><ele>786.0</ele><time>2026-04-29T13:58:57.946Z</time></trkpt><trkpt lat="37.0831121" lon="22.311998"><ele>780.0</ele><time>2026-04-29T13:58:58.945Z</time></trkpt><trkpt lat="37.0830727" lon="22.3118414"><ele>774.0</ele><time>2026-04-29T13:58:59.945Z</time></trkpt><trkpt lat="37.0830472" lon="22.3116821"><ele>768.0</ele><time>2026-04-29T13:59:00.945Z</time></trkpt><trkpt lat="37.0830211" lon="22.3115215"><ele>774.5</ele><time>2026-04-29T13:59:01.945Z</time></trkpt><trkpt lat="37.0829932" lon="22.3113775"><ele>781.0</ele><time>2026-04-29T13:59:02.946Z</time></trkpt><trkpt lat="37.082891" lon="22.3112685"><ele>787.5</ele><time>2026-04-29T13:59:03.946Z</time></trkpt><trkpt lat="37.0828064" lon="22.3111671"><ele>794.0</ele><time>2026-04-29T13:59:04.946Z</time></trkpt><trkpt lat="37.0827115" lon="22.3110795"><ele>794.0</ele><time>2026-04-29T13:59:05.946Z</time></trkpt><trkpt lat="37.0826152" lon="22.3109711"><ele>794.0</ele><time>2026-04-29T13:59:06.946Z</time></trkpt><trkpt lat="37.0825246" lon="22.3108458"><ele>794.0</ele><time>2026-04-29T13:59:07.946Z</time></trkpt><trkpt lat="37.0824426" lon="22.3107083"><ele>794.0</ele><time>2026-04-29T13:59:08.945Z</time></trkpt><trkpt lat="37.0823602" lon="22.3105544"><ele>791.25</ele><time>2026-04-29T13:59:09.946Z</time></trkpt><trkpt lat="37.0822834" lon="22.310404"><ele>788.5</ele><time>2026-04-29T13:59:10.945Z</time></trkpt><trkpt lat="37.0822" lon="22.3102531"><ele>785.75</ele><time>2026-04-29T13:59:11.946Z</time></trkpt><trkpt lat="37.0821199" lon="22.3100989"><ele>783.0</ele><time>2026-04-29T13:59:12.945Z</time></trkpt><trkpt lat="37.0820418" lon="22.3099412"><ele>783.0</ele><time>2026-04-29T13:59:13.946Z</time></trkpt><trkpt lat="37.0819557" lon="22.3097939"><ele>783.0</ele><time>2026-04-29T13:59:14.946Z</time></trkpt><trkpt lat="37.0818533" lon="22.3096541"><ele>783.0</ele><time>2026-04-29T13:59:15.946Z</time></trkpt><trkpt lat="37.0817349" lon="22.3095195"><ele>788.3333333333333</ele><time>2026-04-29T13:59:16.945Z</time></trkpt><trkpt lat="37.0815968" lon="22.3094163"><ele>793.6666666666666</ele><time>2026-04-29T13:59:17.946Z</time></trkpt><trkpt lat="37.0814561" lon="22.309316"><ele>799.0</ele><time>2026-04-29T13:59:18.945Z</time></trkpt><trkpt lat="37.0813158" lon="22.309223"><ele>799.0</ele><time>2026-04-29T13:59:19.946Z</time></trkpt><trkpt lat="37.0811868" lon="22.3091453"><ele>799.0</ele><time>2026-04-29T13:59:20.946Z</time></trkpt><trkpt lat="37.081063" lon="22.3090917"><ele>799.0</ele><time>2026-04-29T13:59:21.945Z</time></trkpt><trkpt lat="37.0809339" lon="22.3090645"><ele>799.0</ele><time>2026-04-29T13:59:22.945Z</time></trkpt><trkpt lat="37.0808019" lon="22.309057"><ele>796.25</ele><time>2026-04-29T13:59:23.945Z</time></trkpt><trkpt lat="37.0806678" lon="22.3090735"><ele>793.5</ele><time>2026-04-29T13:59:24.946Z</time></trkpt><trkpt lat="37.0805336" lon="22.3090835"><ele>790.75</ele><time>2026-04-29T13:59:25.945Z</time></trkpt><trkpt lat="37.0804109" lon="22.3090862"><ele>788.0</ele><time>2026-04-29T13:59:26.945Z</time></trkpt><trkpt lat="37.0802924" lon="22.3090944"><ele>788.0</ele><time>2026-04-29T13:59:27.946Z</time></trkpt><trkpt lat="37.0801691" lon="22.3090966"><ele>788.0</ele><time>2026-04-29T13:59:28.945Z</time></trkpt><trkpt lat="37.0800603" lon="22.3090946"><ele>788.0</ele><time>2026-04-29T13:59:29.946Z</time></trkpt><trkpt lat="37.079946" lon="22.3090772"><ele>788.0</ele><time>2026-04-29T13:59:30.945Z</time></trkpt><trkpt lat="37.0798483" lon="22.3090083"><ele>788.6666666666667</ele><time>2026-04-29T13:59:31.945Z</time></trkpt><trkpt lat="37.0798047" lon="22.3087461"><ele>789.3333333333333</ele><time>2026-04-29T13:59:32.945Z</time></trkpt><trkpt lat="37.0796894" lon="22.3086039"><ele>790.0</ele><time>2026-04-29T13:59:33.946Z</time></trkpt><trkpt lat="37.0795682" lon="22.3084567"><ele>790.0</ele><time>2026-04-29T13:59:34.946Z</time></trkpt><trkpt lat="37.0794658" lon="22.3082697"><ele>790.0</ele><time>2026-04-29T13:59:35.946Z</time></trkpt><trkpt lat="37.0793611" lon="22.3080891"><ele>790.0</ele><time>2026-04-29T13:59:36.946Z</time></trkpt><trkpt lat="37.0792721" lon="22.3079223"><ele>792.25</ele><time>2026-04-29T13:59:37.945Z</time></trkpt><trkpt lat="37.0791821" lon="22.3077709"><ele>794.5</ele><time>2026-04-29T13:59:38.945Z</time></trkpt><trkpt lat="37.0790911" lon="22.30763"><ele>796.75</ele><time>2026-04-29T13:59:39.945Z</time></trkpt><trkpt lat="37.0789979" lon="22.3074933"><ele>799.0</ele><time>2026-04-29T13:59:40.945Z</time></trkpt><trkpt lat="37.0789232" lon="22.3073479"><ele>801.0</ele><time>2026-04-29T13:59:41.945Z</time></trkpt><trkpt lat="37.0788429" lon="22.3072176"><ele>803.0</ele><time>2026-04-29T13:59:42.945Z</time></trkpt><trkpt lat="37.0787716" lon="22.3070914"><ele>805.0</ele><time>2026-04-29T13:59:43.946Z</time></trkpt><trkpt lat="37.078719" lon="22.3069527"><ele>807.0</ele><time>2026-04-29T13:59:44.945Z</time></trkpt><trkpt lat="37.0786932" lon="22.3068009"><ele>807.0</ele><time>2026-04-29T13:59:45.945Z</time></trkpt><trkpt lat="37.0786612" lon="22.3066521"><ele>807.0</ele><time>2026-04-29T13:59:46.946Z</time></trkpt><trkpt lat="37.0785807" lon="22.3065366"><ele>807.0</ele><time>2026-04-29T13:59:47.946Z</time></trkpt><trkpt lat="37.0785131" lon="22.3064095"><ele>807.0</ele><time>2026-04-29T13:59:48.945Z</time></trkpt><trkpt lat="37.0784106" lon="22.3062922"><ele>808.75</ele><time>2026-04-29T13:59:49.945Z</time></trkpt><trkpt lat="37.0782616" lon="22.3062153"><ele>810.5</ele><time>2026-04-29T13:59:50.946Z</time></trkpt><trkpt lat="37.0781448" lon="22.3061054"><ele>812.25</ele><time>2026-04-29T13:59:51.946Z</time></trkpt><trkpt lat="37.0780264" lon="22.3060333"><ele>814.0</ele><time>2026-04-29T13:59:52.945Z</time></trkpt><trkpt lat="37.0779147" lon="22.3059579"><ele>814.0</ele><time>2026-04-29T13:59:53.946Z</time></trkpt><trkpt lat="37.0778076" lon="22.3058904"><ele>814.0</ele><time>2026-04-29T13:59:54.946Z</time></trkpt><trkpt lat="37.0776959" lon="22.3057804"><ele>814.0</ele><time>2026-04-29T13:59:55.945Z</time></trkpt><trkpt lat="37.0775996" lon="22.3056604"><ele>814.0</ele><time>2026-04-29T13:59:56.945Z</time></trkpt><trkpt lat="37.0775012" lon="22.3055324"><ele>814.5</ele><time>2026-04-29T13:59:57.945Z</time></trkpt><trkpt lat="37.0773878" lon="22.3054387"><ele>815.0</ele><time>2026-04-29T13:59:58.946Z</time></trkpt><trkpt lat="37.0772795" lon="22.3053467"><ele>815.5</ele><time>2026-04-29T13:59:59.946Z</time></trkpt><trkpt lat="37.0771827" lon="22.3052542"><ele>816.0</ele><time>2026-04-29T14:00:00.946Z</time></trkpt><trkpt lat="37.0770849" lon="22.3051491"><ele>816.0</ele><time>2026-04-29T14:00:01.946Z</time></trkpt><trkpt lat="37.0770169" lon="22.3050259"><ele>816.0</ele><time>2026-04-29T14:00:02.946Z</time></trkpt><trkpt lat="37.0769585" lon="22.3048946"><ele>816.0</ele><time>2026-04-29T14:00:03.946Z</time></trkpt><trkpt lat="37.0768757" lon="22.3047059"><ele>816.0</ele><time>2026-04-29T14:00:04.945Z</time></trkpt><trkpt lat="37.0768348" lon="22.3045009"><ele>818.3333333333333</ele><time>2026-04-29T14:00:05.946Z</time></trkpt><trkpt lat="37.0767801" lon="22.3043135"><ele>820.6666666666666</ele><time>2026-04-29T14:00:06.946Z</time></trkpt><trkpt lat="37.0767232" lon="22.3041266"><ele>823.0</ele><time>2026-04-29T14:00:07.945Z</time></trkpt><trkpt lat="37.0766751" lon="22.3039413"><ele>827.75</ele><time>2026-04-29T14:00:08.945Z</time></trkpt><trkpt lat="37.0766362" lon="22.3037688"><ele>832.5</ele><time>2026-04-29T14:00:09.946Z</time></trkpt><trkpt lat="37.0766078" lon="22.3036053"><ele>837.25</ele><time>2026-04-29T14:00:10.946Z</time></trkpt><trkpt lat="37.0766168" lon="22.3034395"><ele>842.0</ele><time>2026-04-29T14:00:11.945Z</time></trkpt><trkpt lat="37.0766397" lon="22.3032666"><ele>842.0</ele><time>2026-04-29T14:00:12.946Z</time></trkpt><trkpt lat="37.0766404" lon="22.3030966"><ele>842.0</ele><time>2026-04-29T14:00:13.945Z</time></trkpt><trkpt lat="37.0766509" lon="22.3029292"><ele>842.0</ele><time>2026-04-29T14:00:14.946Z</time></trkpt><trkpt lat="37.0766102" lon="22.3027965"><ele>842.0</ele><time>2026-04-29T14:00:15.945Z</time></trkpt><trkpt lat="37.0765698" lon="22.3026537"><ele>840.0</ele><time>2026-04-29T14:00:16.945Z</time></trkpt><trkpt lat="37.076581" lon="22.3024255"><ele>838.0</ele><time>2026-04-29T14:00:17.945Z</time></trkpt><trkpt lat="37.0765393" lon="22.3022706"><ele>836.0</ele><time>2026-04-29T14:00:18.946Z</time></trkpt><trkpt lat="37.076467" lon="22.3020626"><ele>836.0</ele><time>2026-04-29T14:00:19.945Z</time></trkpt><trkpt lat="37.0762973" lon="22.3018148"><ele>836.0</ele><time>2026-04-29T14:00:20.946Z</time></trkpt><trkpt lat="37.0761683" lon="22.3016519"><ele>836.0</ele><time>2026-04-29T14:00:21.946Z</time></trkpt><trkpt lat="37.0760076" lon="22.3015564"><ele>836.0</ele><time>2026-04-29T14:00:22.946Z</time></trkpt><trkpt lat="37.0759034" lon="22.3013999"><ele>836.0</ele><time>2026-04-29T14:00:23.945Z</time></trkpt><trkpt lat="37.0758117" lon="22.3012476"><ele>836.0</ele><time>2026-04-29T14:00:24.945Z</time></trkpt><trkpt lat="37.075728" lon="22.3011158"><ele>836.0</ele><time>2026-04-29T14:00:25.946Z</time></trkpt><trkpt lat="37.0756485" lon="22.300954"><ele>836.0</ele><time>2026-04-29T14:00:26.945Z</time></trkpt><trkpt lat="37.0755925" lon="22.3007857"><ele>836.0</ele><time>2026-04-29T14:00:27.946Z</time></trkpt><trkpt lat="37.075531" lon="22.3006585"><ele>836.0</ele><time>2026-04-29T14:00:28.945Z</time></trkpt><trkpt lat="37.0754754" lon="22.3005405"><ele>836.0</ele><time>2026-04-29T14:00:29.945Z</time></trkpt><trkpt lat="37.0754218" lon="22.3004156"><ele>838.1999999999999</ele><time>2026-04-29T14:00:30.945Z</time></trkpt><trkpt lat="37.0753903" lon="22.300285"><ele>840.4</ele><time>2026-04-29T14:00:31.944Z</time></trkpt><trkpt lat="37.0753653" lon="22.3001631"><ele>842.6</ele><time>2026-04-29T14:00:32.945Z</time></trkpt><trkpt lat="37.0753715" lon="22.3000397"><ele>844.8</ele><time>2026-04-29T14:00:33.945Z</time></trkpt><trkpt lat="37.0753838" lon="22.2999182"><ele>847.0</ele><time>2026-04-29T14:00:34.946Z</time></trkpt><trkpt lat="37.0753956" lon="22.29978"><ele>849.75</ele><time>2026-04-29T14:00:35.946Z</time></trkpt><trkpt lat="37.0753683" lon="22.2996155"><ele>852.5</ele><time>2026-04-29T14:00:36.945Z</time></trkpt><trkpt lat="37.0753427" lon="22.2994828"><ele>855.25</ele><time>2026-04-29T14:00:37.946Z</time></trkpt><trkpt lat="37.0753042" lon="22.2993551"><ele>858.0</ele><time>2026-04-29T14:00:38.946Z</time></trkpt><trkpt lat="37.0752724" lon="22.2992352"><ele>858.0</ele><time>2026-04-29T14:00:39.945Z</time></trkpt><trkpt lat="37.0752427" lon="22.2991179"><ele>858.0</ele><time>2026-04-29T14:00:40.946Z</time></trkpt><trkpt lat="37.0752107" lon="22.2990358"><ele>858.0</ele><time>2026-04-29T14:00:41.946Z</time></trkpt><trkpt lat="37.0751841" lon="22.2989183"><ele>858.0</ele><time>2026-04-29T14:00:42.946Z</time></trkpt><trkpt lat="37.0751349" lon="22.2988235"><ele>858.0</ele><time>2026-04-29T14:00:43.945Z</time></trkpt><trkpt lat="37.0750626" lon="22.298729"><ele>858.8</ele><time>2026-04-29T14:00:44.946Z</time></trkpt><trkpt lat="37.0749826" lon="22.2986409"><ele>859.5999999999999</ele><time>2026-04-29T14:00:45.946Z</time></trkpt><trkpt lat="37.0749146" lon="22.2985584"><ele>860.4000000000001</ele><time>2026-04-29T14:00:46.945Z</time></trkpt><trkpt lat="37.0748481" lon="22.2984665"><ele>861.2</ele><time>2026-04-29T14:00:47.945Z</time></trkpt><trkpt lat="37.0747893" lon="22.2983742"><ele>862.0</ele><time>2026-04-29T14:00:48.946Z</time></trkpt><trkpt lat="37.0747769" lon="22.2982667"><ele>862.0</ele><time>2026-04-29T14:00:49.946Z</time></trkpt><trkpt lat="37.0747615" lon="22.2981416"><ele>862.0</ele><time>2026-04-29T14:00:50.945Z</time></trkpt><trkpt lat="37.0746948" lon="22.2979807"><ele>862.0</ele><time>2026-04-29T14:00:51.945Z</time></trkpt><trkpt lat="37.0746765" lon="22.2978301"><ele>862.0</ele><time>2026-04-29T14:00:52.946Z</time></trkpt><trkpt lat="37.0746702" lon="22.2976663"><ele>866.6666666666666</ele><time>2026-04-29T14:00:53.946Z</time></trkpt><trkpt lat="37.074664" lon="22.2975029"><ele>871.3333333333333</ele><time>2026-04-29T14:00:54.945Z</time></trkpt><trkpt lat="37.0747148" lon="22.2973188"><ele>876.0</ele><time>2026-04-29T14:00:55.945Z</time></trkpt><trkpt lat="37.0748533" lon="22.2971125"><ele>872.0</ele><time>2026-04-29T14:00:56.945Z</time></trkpt><trkpt lat="37.07489" lon="22.2969186"><ele>868.0</ele><time>2026-04-29T14:00:57.945Z</time></trkpt><trkpt lat="37.0749111" lon="22.2967488"><ele>864.0</ele><time>2026-04-29T14:00:58.946Z</time></trkpt><trkpt lat="37.0749311" lon="22.2965633"><ele>860.0</ele><time>2026-04-29T14:00:59.946Z</time></trkpt><trkpt lat="37.0749723" lon="22.2963752"><ele>860.0</ele><time>2026-04-29T14:01:00.946Z</time></trkpt><trkpt lat="37.0750414" lon="22.2961685"><ele>860.0</ele><time>2026-04-29T14:01:01.946Z</time></trkpt><trkpt lat="37.0750733" lon="22.2959849"><ele>860.0</ele><time>2026-04-29T14:01:02.946Z</time></trkpt><trkpt lat="37.075068" lon="22.2958583"><ele>860.0</ele><time>2026-04-29T14:01:03.945Z</time></trkpt><trkpt lat="37.0751349" lon="22.2957404"><ele>860.0</ele><time>2026-04-29T14:01:04.945Z</time></trkpt><trkpt lat="37.075211" lon="22.2955935"><ele>860.0</ele><time>2026-04-29T14:01:05.946Z</time></trkpt><trkpt lat="37.0753049" lon="22.2954559"><ele>860.0</ele><time>2026-04-29T14:01:06.945Z</time></trkpt><trkpt lat="37.0753916" lon="22.2953298"><ele>860.0</ele><time>2026-04-29T14:01:07.945Z</time></trkpt><trkpt lat="37.0754701" lon="22.2951937"><ele>862.5</ele><time>2026-04-29T14:01:08.946Z</time></trkpt><trkpt lat="37.0755706" lon="22.2950763"><ele>865.0</ele><time>2026-04-29T14:01:09.946Z</time></trkpt><trkpt lat="37.0756726" lon="22.2949542"><ele>867.5</ele><time>2026-04-29T14:01:10.945Z</time></trkpt><trkpt lat="37.0757919" lon="22.2948351"><ele>870.0</ele><time>2026-04-29T14:01:11.946Z</time></trkpt><trkpt lat="37.0759135" lon="22.2947125"><ele>873.75</ele><time>2026-04-29T14:01:12.945Z</time></trkpt><trkpt lat="37.0760047" lon="22.2945862"><ele>877.5</ele><time>2026-04-29T14:01:13.946Z</time></trkpt><trkpt lat="37.07611" lon="22.2944853"><ele>881.25</ele><time>2026-04-29T14:01:14.946Z</time></trkpt><trkpt lat="37.0761923" lon="22.2943766"><ele>885.0</ele><time>2026-04-29T14:01:15.945Z</time></trkpt><trkpt lat="37.0762564" lon="22.2942661"><ele>885.0</ele><time>2026-04-29T14:01:16.946Z</time></trkpt><trkpt lat="37.076297" lon="22.2941451"><ele>885.0</ele><time>2026-04-29T14:01:17.946Z</time></trkpt><trkpt lat="37.0763509" lon="22.2940344"><ele>885.0</ele><time>2026-04-29T14:01:18.946Z</time></trkpt><trkpt lat="37.0764121" lon="22.2939518"><ele>885.0</ele><time>2026-04-29T14:01:19.946Z</time></trkpt><trkpt lat="37.0764875" lon="22.2938615"><ele>885.0</ele><time>2026-04-29T14:01:20.946Z</time></trkpt><trkpt lat="37.076564" lon="22.2937821"><ele>887.0</ele><time>2026-04-29T14:01:21.945Z</time></trkpt><trkpt lat="37.0766371" lon="22.2937083"><ele>889.0</ele><time>2026-04-29T14:01:22.946Z</time></trkpt><trkpt lat="37.0767184" lon="22.2936282"><ele>891.0</ele><time>2026-04-29T14:01:23.945Z</time></trkpt><trkpt lat="37.0767711" lon="22.2935187"><ele>893.0</ele><time>2026-04-29T14:01:24.945Z</time></trkpt><trkpt lat="37.0768243" lon="22.2934045"><ele>895.0</ele><time>2026-04-29T14:01:25.946Z</time></trkpt><trkpt lat="37.0768793" lon="22.2932874"><ele>895.0</ele><time>2026-04-29T14:01:26.946Z</time></trkpt><trkpt lat="37.0769438" lon="22.2931897"><ele>895.0</ele><time>2026-04-29T14:01:27.946Z</time></trkpt><trkpt lat="37.077031" lon="22.2931096"><ele>895.0</ele><time>2026-04-29T14:01:28.946Z</time></trkpt><trkpt lat="37.077139" lon="22.2930567"><ele>895.0</ele><time>2026-04-29T14:01:29.946Z</time></trkpt><trkpt lat="37.0772402" lon="22.2930158"><ele>895.0</ele><time>2026-04-29T14:01:30.945Z</time></trkpt><trkpt lat="37.0773238" lon="22.2929649"><ele>898.2</ele><time>2026-04-29T14:01:31.946Z</time></trkpt><trkpt lat="37.0773777" lon="22.2928784"><ele>901.4</ele><time>2026-04-29T14:01:32.946Z</time></trkpt><trkpt lat="37.0774419" lon="22.2928091"><ele>904.5999999999999</ele><time>2026-04-29T14:01:33.945Z</time></trkpt><trkpt lat="37.0774919" lon="22.2927048"><ele>907.8</ele><time>2026-04-29T14:01:34.946Z</time></trkpt><trkpt lat="37.0774993" lon="22.2925528"><ele>911.0</ele><time>2026-04-29T14:01:35.946Z</time></trkpt><trkpt lat="37.0774836" lon="22.292374"><ele>911.0</ele><time>2026-04-29T14:01:36.945Z</time></trkpt><trkpt lat="37.0774843" lon="22.2922709"><ele>910.9999999999999</ele><time>2026-04-29T14:01:37.946Z</time></trkpt><trkpt lat="37.0775629" lon="22.2921625"><ele>910.9999999999999</ele><time>2026-04-29T14:01:38.946Z</time></trkpt><trkpt lat="37.0775765" lon="22.2920372"><ele>911.0</ele><time>2026-04-29T14:01:39.944Z</time></trkpt><trkpt lat="37.0776601" lon="22.291966"><ele>911.0</ele><time>2026-04-29T14:01:40.946Z</time></trkpt><trkpt lat="37.0777194" lon="22.2918902"><ele>909.8</ele><time>2026-04-29T14:01:41.945Z</time></trkpt><trkpt lat="37.077815" lon="22.2918178"><ele>908.5999999999999</ele><time>2026-04-29T14:01:42.946Z</time></trkpt><trkpt lat="37.0778852" lon="22.2917624"><ele>907.4</ele><time>2026-04-29T14:01:43.945Z</time></trkpt><trkpt lat="37.0779497" lon="22.2916997"><ele>906.2</ele><time>2026-04-29T14:01:44.945Z</time></trkpt><trkpt lat="37.0780186" lon="22.2916272"><ele>905.0</ele><time>2026-04-29T14:01:45.946Z</time></trkpt><trkpt lat="37.0780175" lon="22.2914495"><ele>912.75</ele><time>2026-04-29T14:01:46.946Z</time></trkpt><trkpt lat="37.0780337" lon="22.2912829"><ele>920.5</ele><time>2026-04-29T14:01:47.945Z</time></trkpt><trkpt lat="37.0780358" lon="22.2910936"><ele>928.25</ele><time>2026-04-29T14:01:48.945Z</time></trkpt><trkpt lat="37.0780659" lon="22.2909498"><ele>936.0</ele><time>2026-04-29T14:01:49.945Z</time></trkpt><trkpt lat="37.0780819" lon="22.2907946"><ele>936.0</ele><time>2026-04-29T14:01:50.946Z</time></trkpt><trkpt lat="37.0781564" lon="22.2906128"><ele>936.0</ele><time>2026-04-29T14:01:51.946Z</time></trkpt><trkpt lat="37.0782276" lon="22.2904307"><ele>936.0</ele><time>2026-04-29T14:01:52.945Z</time></trkpt><trkpt lat="37.078297" lon="22.2902676"><ele>934.3333333333333</ele><time>2026-04-29T14:01:53.946Z</time></trkpt><trkpt lat="37.0783405" lon="22.2900353"><ele>932.6666666666666</ele><time>2026-04-29T14:01:54.946Z</time></trkpt><trkpt lat="37.0784033" lon="22.2898441"><ele>931.0</ele><time>2026-04-29T14:01:55.945Z</time></trkpt><trkpt lat="37.0784524" lon="22.2896789"><ele>930.0</ele><time>2026-04-29T14:01:56.945Z</time></trkpt><trkpt lat="37.0784978" lon="22.2894537"><ele>929.0</ele><time>2026-04-29T14:01:57.946Z</time></trkpt><trkpt lat="37.0785356" lon="22.2892855"><ele>928.0</ele><time>2026-04-29T14:01:58.946Z</time></trkpt><trkpt lat="37.0785975" lon="22.2891073"><ele>934.0</ele><time>2026-04-29T14:01:59.945Z</time></trkpt><trkpt lat="37.078646" lon="22.2889167"><ele>940.0</ele><time>2026-04-29T14:02:00.946Z</time></trkpt><trkpt lat="37.0786974" lon="22.2887379"><ele>946.0</ele><time>2026-04-29T14:02:01.945Z</time></trkpt><trkpt lat="37.0787318" lon="22.2885559"><ele>946.0</ele><time>2026-04-29T14:02:02.946Z</time></trkpt><trkpt lat="37.0787799" lon="22.2883914"><ele>946.0</ele><time>2026-04-29T14:02:03.945Z</time></trkpt><trkpt lat="37.0788136" lon="22.2882087"><ele>946.0</ele><time>2026-04-29T14:02:04.945Z</time></trkpt><trkpt lat="37.0788668" lon="22.2880943"><ele>946.0</ele><time>2026-04-29T14:02:05.946Z</time></trkpt><trkpt lat="37.0788938" lon="22.2879686"><ele>947.4</ele><time>2026-04-29T14:02:06.946Z</time></trkpt><trkpt lat="37.078921" lon="22.287846"><ele>948.8</ele><time>2026-04-29T14:02:07.946Z</time></trkpt><trkpt lat="37.0789412" lon="22.2877354"><ele>950.1999999999999</ele><time>2026-04-29T14:02:08.946Z</time></trkpt><trkpt lat="37.0789388" lon="22.2876232"><ele>951.5999999999999</ele><time>2026-04-29T14:02:09.945Z</time></trkpt><trkpt lat="37.0789575" lon="22.2875123"><ele>953.0</ele><time>2026-04-29T14:02:10.946Z</time></trkpt><trkpt lat="37.0789472" lon="22.287387"><ele>957.25</ele><time>2026-04-29T14:02:11.946Z</time></trkpt><trkpt lat="37.078877" lon="22.2872276"><ele>961.5</ele><time>2026-04-29T14:02:12.946Z</time></trkpt><trkpt lat="37.0788455" lon="22.2871032"><ele>965.75</ele><time>2026-04-29T14:02:13.945Z</time></trkpt><trkpt lat="37.0788383" lon="22.2869614"><ele>970.0</ele><time>2026-04-29T14:02:14.945Z</time></trkpt><trkpt lat="37.0788064" lon="22.2868454"><ele>970.0</ele><time>2026-04-29T14:02:15.945Z</time></trkpt><trkpt lat="37.0788004" lon="22.286733"><ele>970.0</ele><time>2026-04-29T14:02:16.945Z</time></trkpt><trkpt lat="37.0788553" lon="22.286612"><ele>970.0</ele><time>2026-04-29T14:02:17.946Z</time></trkpt><trkpt lat="37.0789997" lon="22.2864386"><ele>970.0</ele><time>2026-04-29T14:02:18.946Z</time></trkpt><trkpt lat="37.0791433" lon="22.2862987"><ele>962.75</ele><time>2026-04-29T14:02:19.946Z</time></trkpt><trkpt lat="37.0792699" lon="22.2861636"><ele>955.5</ele><time>2026-04-29T14:02:20.946Z</time></trkpt><trkpt lat="37.0793863" lon="22.2860553"><ele>948.25</ele><time>2026-04-29T14:02:21.945Z</time></trkpt><trkpt lat="37.0794781" lon="22.2859647"><ele>941.0</ele><time>2026-04-29T14:02:22.945Z</time></trkpt><trkpt lat="37.0795532" lon="22.2858703"><ele>941.0</ele><time>2026-04-29T14:02:23.945Z</time></trkpt><trkpt lat="37.079613" lon="22.2857684"><ele>940.9999999999999</ele><time>2026-04-29T14:02:24.945Z</time></trkpt><trkpt lat="37.0796365" lon="22.2856503"><ele>940.9999999999999</ele><time>2026-04-29T14:02:25.946Z</time></trkpt><trkpt lat="37.0796556" lon="22.2855248"><ele>941.0</ele><time>2026-04-29T14:02:26.945Z</time></trkpt><trkpt lat="37.0796108" lon="22.2854238"><ele>941.0</ele><time>2026-04-29T14:02:27.946Z</time></trkpt><trkpt lat="37.0795737" lon="22.2853226"><ele>942.1666666666667</ele><time>2026-04-29T14:02:28.945Z</time></trkpt><trkpt lat="37.0795186" lon="22.2852242"><ele>943.3333333333334</ele><time>2026-04-29T14:02:29.945Z</time></trkpt><trkpt lat="37.0794564" lon="22.2851411"><ele>944.5</ele><time>2026-04-29T14:02:30.946Z</time></trkpt><trkpt lat="37.079414" lon="22.2850509"><ele>945.6666666666667</ele><time>2026-04-29T14:02:31.946Z</time></trkpt><trkpt lat="37.079379" lon="22.2849613"><ele>946.8333333333334</ele><time>2026-04-29T14:02:32.946Z</time></trkpt><trkpt lat="37.0793464" lon="22.2848687"><ele>948.0</ele><time>2026-04-29T14:02:33.945Z</time></trkpt><trkpt lat="37.0793453" lon="22.2847647"><ele>950.0</ele><time>2026-04-29T14:02:34.946Z</time></trkpt><trkpt lat="37.0793492" lon="22.2846614"><ele>952.0</ele><time>2026-04-29T14:02:35.945Z</time></trkpt><trkpt lat="37.0793697" lon="22.2845653"><ele>954.0</ele><time>2026-04-29T14:02:36.946Z</time></trkpt><trkpt lat="37.0793863" lon="22.2844329"><ele>956.0</ele><time>2026-04-29T14:02:37.946Z</time></trkpt><trkpt lat="37.0794215" lon="22.2843003"><ele>958.0</ele><time>2026-04-29T14:02:38.946Z</time></trkpt><trkpt lat="37.0794576" lon="22.2841446"><ele>958.0</ele><time>2026-04-29T14:02:39.945Z</time></trkpt><trkpt lat="37.079501" lon="22.2840018"><ele>958.0</ele><time>2026-04-29T14:02:40.946Z</time></trkpt><trkpt lat="37.0795532" lon="22.2838583"><ele>958.0</ele><time>2026-04-29T14:02:41.946Z</time></trkpt><trkpt lat="37.0796098" lon="22.2837226"><ele>958.0</ele><time>2026-04-29T14:02:42.946Z</time></trkpt><trkpt lat="37.0796565" lon="22.2835722"><ele>961.75</ele><time>2026-04-29T14:02:43.946Z</time></trkpt><trkpt lat="37.0796979" lon="22.2833925"><ele>965.5</ele><time>2026-04-29T14:02:44.945Z</time></trkpt><trkpt lat="37.0797326" lon="22.283231"><ele>969.25</ele><time>2026-04-29T14:02:45.945Z</time></trkpt><trkpt lat="37.0797431" lon="22.2830537"><ele>973.0</ele><time>2026-04-29T14:02:46.945Z</time></trkpt><trkpt lat="37.0797601" lon="22.2828795"><ele>978.5</ele><time>2026-04-29T14:02:47.945Z</time></trkpt><trkpt lat="37.0797872" lon="22.2827003"><ele>984.0</ele><time>2026-04-29T14:02:48.945Z</time></trkpt><trkpt lat="37.0798042" lon="22.2825392"><ele>989.5</ele><time>2026-04-29T14:02:49.945Z</time></trkpt><trkpt lat="37.0798128" lon="22.282362"><ele>995.0</ele><time>2026-04-29T14:02:50.946Z</time></trkpt><trkpt lat="37.0798004" lon="22.2822019"><ele>997.0</ele><time>2026-04-29T14:02:51.945Z</time></trkpt><trkpt lat="37.0797748" lon="22.2820457"><ele>999.0</ele><time>2026-04-29T14:02:52.945Z</time></trkpt><trkpt lat="37.0797469" lon="22.281896"><ele>1001.0</ele><time>2026-04-29T14:02:53.946Z</time></trkpt><trkpt lat="37.0797002" lon="22.2817627"><ele>1003.0</ele><time>2026-04-29T14:02:54.946Z</time></trkpt><trkpt lat="37.0796507" lon="22.2816225"><ele>1002.9999999999999</ele><time>2026-04-29T14:02:55.946Z</time></trkpt><trkpt lat="37.0796232" lon="22.2815198"><ele>1003.0</ele><time>2026-04-29T14:02:56.945Z</time></trkpt><trkpt lat="37.0796074" lon="22.2814157"><ele>1003.0</ele><time>2026-04-29T14:02:57.945Z</time></trkpt><trkpt lat="37.0795989" lon="22.2813281"><ele>1003.0</ele><time>2026-04-29T14:02:58.946Z</time></trkpt><trkpt lat="37.0796025" lon="22.2812437"><ele>1002.9999999999999</ele><time>2026-04-29T14:02:59.946Z</time></trkpt><trkpt lat="37.0796729" lon="22.2811285"><ele>1003.0</ele><time>2026-04-29T14:03:01.946Z</time></trkpt><trkpt lat="37.0798342" lon="22.281166"><ele>1003.8</ele><time>2026-04-29T14:03:04.946Z</time></trkpt><trkpt lat="37.0798906" lon="22.2812375"><ele>1004.5999999999999</ele><time>2026-04-29T14:03:05.945Z</time></trkpt><trkpt lat="37.0799328" lon="22.2813373"><ele>1005.4000000000001</ele><time>2026-04-29T14:03:06.946Z</time></trkpt><trkpt lat="37.0799804" lon="22.2814303"><ele>1006.2</ele><time>2026-04-29T14:03:07.945Z</time></trkpt><trkpt lat="37.0800299" lon="22.2815406"><ele>1007.0</ele><time>2026-04-29T14:03:08.946Z</time></trkpt><trkpt lat="37.0800809" lon="22.2816557"><ele>1001.25</ele><time>2026-04-29T14:03:09.945Z</time></trkpt><trkpt lat="37.0801305" lon="22.2817787"><ele>995.5</ele><time>2026-04-29T14:03:10.945Z</time></trkpt><trkpt lat="37.0801632" lon="22.2818972"><ele>989.75</ele><time>2026-04-29T14:03:11.946Z</time></trkpt><trkpt lat="37.0801827" lon="22.2820518"><ele>984.0</ele><time>2026-04-29T14:03:12.945Z</time></trkpt><trkpt lat="37.0801945" lon="22.2822189"><ele>982.6666666666667</ele><time>2026-04-29T14:03:13.946Z</time></trkpt><trkpt lat="37.0801922" lon="22.2823912"><ele>981.3333333333334</ele><time>2026-04-29T14:03:14.945Z</time></trkpt><trkpt lat="37.0801759" lon="22.2826191"><ele>980.0</ele><time>2026-04-29T14:03:15.945Z</time></trkpt><trkpt lat="37.0801614" lon="22.2828351"><ele>980.0</ele><time>2026-04-29T14:03:16.946Z</time></trkpt><trkpt lat="37.0801508" lon="22.283035"><ele>980.0</ele><time>2026-04-29T14:03:17.946Z</time></trkpt><trkpt lat="37.0801406" lon="22.2832278"><ele>980.0</ele><time>2026-04-29T14:03:18.946Z</time></trkpt><trkpt lat="37.0801302" lon="22.2834223"><ele>981.25</ele><time>2026-04-29T14:03:19.945Z</time></trkpt><trkpt lat="37.0801138" lon="22.2836051"><ele>982.5</ele><time>2026-04-29T14:03:20.945Z</time></trkpt><trkpt lat="37.0801044" lon="22.2837781"><ele>983.75</ele><time>2026-04-29T14:03:21.945Z</time></trkpt><trkpt lat="37.0800911" lon="22.2839317"><ele>985.0</ele><time>2026-04-29T14:03:22.945Z</time></trkpt><trkpt lat="37.0800732" lon="22.284073"><ele>985.6</ele><time>2026-04-29T14:03:23.946Z</time></trkpt><trkpt lat="37.0800784" lon="22.2841838"><ele>986.2</ele><time>2026-04-29T14:03:24.945Z</time></trkpt><trkpt lat="37.0801449" lon="22.2842637"><ele>986.8</ele><time>2026-04-29T14:03:25.946Z</time></trkpt><trkpt lat="37.0802123" lon="22.2843275"><ele>987.4</ele><time>2026-04-29T14:03:26.945Z</time></trkpt><trkpt lat="37.080302" lon="22.2843664"><ele>988.0</ele><time>2026-04-29T14:03:27.946Z</time></trkpt><trkpt lat="37.0804464" lon="22.284285"><ele>988.0</ele><time>2026-04-29T14:03:28.945Z</time></trkpt><trkpt lat="37.0805736" lon="22.2842398"><ele>988.0</ele><time>2026-04-29T14:03:29.943Z</time></trkpt><trkpt lat="37.0806772" lon="22.2841975"><ele>988.0</ele><time>2026-04-29T14:03:30.945Z</time></trkpt><trkpt lat="37.0807954" lon="22.2841156"><ele>988.0</ele><time>2026-04-29T14:03:31.945Z</time></trkpt><trkpt lat="37.0809075" lon="22.284067"><ele>991.0</ele><time>2026-04-29T14:03:32.946Z</time></trkpt><trkpt lat="37.0810229" lon="22.2840023"><ele>994.0</ele><time>2026-04-29T14:03:33.946Z</time></trkpt><trkpt lat="37.0811304" lon="22.2839213"><ele>997.0</ele><time>2026-04-29T14:03:34.946Z</time></trkpt><trkpt lat="37.0812487" lon="22.2838319"><ele>1000.0</ele><time>2026-04-29T14:03:35.946Z</time></trkpt><trkpt lat="37.0813687" lon="22.2837036"><ele>1007.3333333333333</ele><time>2026-04-29T14:03:36.945Z</time></trkpt><trkpt lat="37.0814865" lon="22.28356"><ele>1014.6666666666667</ele><time>2026-04-29T14:03:37.946Z</time></trkpt><trkpt lat="37.0816067" lon="22.2834214"><ele>1022.0</ele><time>2026-04-29T14:03:38.946Z</time></trkpt><trkpt lat="37.0817259" lon="22.2832828"><ele>1022.0</ele><time>2026-04-29T14:03:39.946Z</time></trkpt><trkpt lat="37.0818453" lon="22.2831465"><ele>1022.0</ele><time>2026-04-29T14:03:40.946Z</time></trkpt><trkpt lat="37.0819668" lon="22.2830083"><ele>1022.0</ele><time>2026-04-29T14:03:41.946Z</time></trkpt><trkpt lat="37.0820805" lon="22.2828597"><ele>1029.3333333333335</ele><time>2026-04-29T14:03:42.945Z</time></trkpt><trkpt lat="37.0821874" lon="22.2827118"><ele>1036.6666666666667</ele><time>2026-04-29T14:03:43.945Z</time></trkpt><trkpt lat="37.082297" lon="22.2825475"><ele>1044.0</ele><time>2026-04-29T14:03:44.945Z</time></trkpt><trkpt lat="37.0823907" lon="22.2824226"><ele>1045.75</ele><time>2026-04-29T14:03:45.946Z</time></trkpt><trkpt lat="37.0824961" lon="22.2822879"><ele>1047.5</ele><time>2026-04-29T14:03:46.946Z</time></trkpt><trkpt lat="37.0825932" lon="22.2821644"><ele>1049.25</ele><time>2026-04-29T14:03:47.946Z</time></trkpt><trkpt lat="37.0826898" lon="22.2820367"><ele>1051.0</ele><time>2026-04-29T14:03:48.946Z</time></trkpt><trkpt lat="37.0827989" lon="22.2819044"><ele>1051.0</ele><time>2026-04-29T14:03:49.945Z</time></trkpt><trkpt lat="37.0829089" lon="22.2817799"><ele>1051.0</ele><time>2026-04-29T14:03:50.946Z</time></trkpt><trkpt lat="37.0830162" lon="22.2816567"><ele>1051.0</ele><time>2026-04-29T14:03:51.946Z</time></trkpt><trkpt lat="37.0831315" lon="22.2815416"><ele>1051.0</ele><time>2026-04-29T14:03:52.945Z</time></trkpt><trkpt lat="37.0832582" lon="22.2814333"><ele>1052.25</ele><time>2026-04-29T14:03:53.945Z</time></trkpt><trkpt lat="37.0833678" lon="22.2813254"><ele>1053.5</ele><time>2026-04-29T14:03:54.945Z</time></trkpt><trkpt lat="37.0834795" lon="22.2812169"><ele>1054.75</ele><time>2026-04-29T14:03:55.946Z</time></trkpt><trkpt lat="37.0835665" lon="22.2811239"><ele>1056.0</ele><time>2026-04-29T14:03:56.944Z</time></trkpt><trkpt lat="37.0836393" lon="22.2810235"><ele>1056.0</ele><time>2026-04-29T14:03:57.946Z</time></trkpt><trkpt lat="37.0837044" lon="22.2809195"><ele>1056.0</ele><time>2026-04-29T14:03:58.946Z</time></trkpt><trkpt lat="37.083747" lon="22.2807965"><ele>1056.0</ele><time>2026-04-29T14:03:59.945Z</time></trkpt><trkpt lat="37.0837801" lon="22.2806971"><ele>1056.0</ele><time>2026-04-29T14:04:00.945Z</time></trkpt><trkpt lat="37.0838062" lon="22.2806066"><ele>1056.0</ele><time>2026-04-29T14:04:01.946Z</time></trkpt><trkpt lat="37.0837203" lon="22.2804882"><ele>1056.0</ele><time>2026-04-29T14:04:03.946Z</time></trkpt><trkpt lat="37.0836524" lon="22.2804518"><ele>1056.0</ele><time>2026-04-29T14:04:04.946Z</time></trkpt><trkpt lat="37.0835686" lon="22.2804584"><ele>1056.0</ele><time>2026-04-29T14:04:05.945Z</time></trkpt><trkpt lat="37.0835105" lon="22.2805037"><ele>1056.0</ele><time>2026-04-29T14:04:06.946Z</time></trkpt><trkpt lat="37.0834575" lon="22.2806048"><ele>1056.0</ele><time>2026-04-29T14:04:07.946Z</time></trkpt><trkpt lat="37.0834049" lon="22.2807657"><ele>1056.0</ele><time>2026-04-29T14:04:08.945Z</time></trkpt><trkpt lat="37.0833455" lon="22.280895"><ele>1056.0</ele><time>2026-04-29T14:04:09.945Z</time></trkpt><trkpt lat="37.0832354" lon="22.2810564"><ele>1056.0</ele><time>2026-04-29T14:04:10.946Z</time></trkpt><trkpt lat="37.0831422" lon="22.2812088"><ele>1056.0</ele><time>2026-04-29T14:04:11.946Z</time></trkpt><trkpt lat="37.0829656" lon="22.2812963"><ele>1054.3333333333333</ele><time>2026-04-29T14:04:12.946Z</time></trkpt><trkpt lat="37.0828309" lon="22.2814232"><ele>1052.6666666666665</ele><time>2026-04-29T14:04:13.945Z</time></trkpt><trkpt lat="37.0826598" lon="22.2815716"><ele>1051.0</ele><time>2026-04-29T14:04:14.946Z</time></trkpt><trkpt lat="37.0824769" lon="22.2817195"><ele>1050.3333333333333</ele><time>2026-04-29T14:04:15.946Z</time></trkpt><trkpt lat="37.082334" lon="22.2818709"><ele>1049.6666666666667</ele><time>2026-04-29T14:04:16.946Z</time></trkpt><trkpt lat="37.0821711" lon="22.2819628"><ele>1049.0</ele><time>2026-04-29T14:04:17.945Z</time></trkpt><trkpt lat="37.0820443" lon="22.282013"><ele>1049.0</ele><time>2026-04-29T14:04:18.946Z</time></trkpt><trkpt lat="37.081945" lon="22.2819613"><ele>1049.0</ele><time>2026-04-29T14:04:19.945Z</time></trkpt><trkpt lat="37.0818644" lon="22.281945"><ele>1049.0</ele><time>2026-04-29T14:04:20.945Z</time></trkpt><trkpt lat="37.0817904" lon="22.281862"><ele>1049.0</ele><time>2026-04-29T14:04:21.946Z</time></trkpt><trkpt lat="37.0817392" lon="22.2817616"><ele>1049.0</ele><time>2026-04-29T14:04:22.945Z</time></trkpt><trkpt lat="37.0816835" lon="22.2816205"><ele>1049.0</ele><time>2026-04-29T14:04:23.945Z</time></trkpt><trkpt lat="37.0816704" lon="22.2814391"><ele>1049.0</ele><time>2026-04-29T14:04:24.946Z</time></trkpt><trkpt lat="37.0816269" lon="22.2813104"><ele>1049.0</ele><time>2026-04-29T14:04:25.946Z</time></trkpt><trkpt lat="37.0815843" lon="22.2811873"><ele>1049.0</ele><time>2026-04-29T14:04:26.946Z</time></trkpt><trkpt lat="37.0814883" lon="22.2810734"><ele>1045.0</ele><time>2026-04-29T14:04:27.945Z</time></trkpt><trkpt lat="37.08141" lon="22.2809567"><ele>1041.0</ele><time>2026-04-29T14:04:28.946Z</time></trkpt><trkpt lat="37.0813279" lon="22.2808467"><ele>1037.0</ele><time>2026-04-29T14:04:29.945Z</time></trkpt><trkpt lat="37.0812649" lon="22.2807331"><ele>1033.0</ele><time>2026-04-29T14:04:30.946Z</time></trkpt><trkpt lat="37.0812049" lon="22.2806208"><ele>1035.0</ele><time>2026-04-29T14:04:31.945Z</time></trkpt><trkpt lat="37.0811532" lon="22.2805158"><ele>1037.0</ele><time>2026-04-29T14:04:32.946Z</time></trkpt><trkpt lat="37.0811163" lon="22.2803859"><ele>1039.0</ele><time>2026-04-29T14:04:33.945Z</time></trkpt><trkpt lat="37.0811308" lon="22.2802621"><ele>1041.0</ele><time>2026-04-29T14:04:34.945Z</time></trkpt><trkpt lat="37.0811626" lon="22.2801251"><ele>1043.0</ele><time>2026-04-29T14:04:35.945Z</time></trkpt><trkpt lat="37.0811742" lon="22.280007"><ele>1043.0</ele><time>2026-04-29T14:04:36.946Z</time></trkpt><trkpt lat="37.0811762" lon="22.2799075"><ele>1043.0</ele><time>2026-04-29T14:04:37.946Z</time></trkpt><trkpt lat="37.0811642" lon="22.2797876"><ele>1043.0</ele><time>2026-04-29T14:04:38.946Z</time></trkpt><trkpt lat="37.0811449" lon="22.2796841"><ele>1043.0</ele><time>2026-04-29T14:04:39.946Z</time></trkpt><trkpt lat="37.0811387" lon="22.2795681"><ele>1043.0</ele><time>2026-04-29T14:04:40.946Z</time></trkpt><trkpt lat="37.0811055" lon="22.2794569"><ele>1043.0</ele><time>2026-04-29T14:04:41.946Z</time></trkpt><trkpt lat="37.0810794" lon="22.2793535"><ele>1045.6</ele><time>2026-04-29T14:04:42.946Z</time></trkpt><trkpt lat="37.0810527" lon="22.2792643"><ele>1048.1999999999998</ele><time>2026-04-29T14:04:43.946Z</time></trkpt><trkpt lat="37.0810127" lon="22.2791208"><ele>1050.8</ele><time>2026-04-29T14:04:44.946Z</time></trkpt><trkpt lat="37.0809702" lon="22.2789917"><ele>1053.3999999999999</ele><time>2026-04-29T14:04:45.946Z</time></trkpt><trkpt lat="37.0809153" lon="22.2788772"><ele>1056.0</ele><time>2026-04-29T14:04:46.946Z</time></trkpt><trkpt lat="37.0808455" lon="22.278783"><ele>1059.0</ele><time>2026-04-29T14:04:47.946Z</time></trkpt><trkpt lat="37.080787" lon="22.2786666"><ele>1062.0</ele><time>2026-04-29T14:04:48.945Z</time></trkpt><trkpt lat="37.0807325" lon="22.2785514"><ele>1065.0</ele><time>2026-04-29T14:04:49.945Z</time></trkpt><trkpt lat="37.0806733" lon="22.2784494"><ele>1068.0</ele><time>2026-04-29T14:04:50.946Z</time></trkpt><trkpt lat="37.0806273" lon="22.2783429"><ele>1071.0</ele><time>2026-04-29T14:04:51.946Z</time></trkpt><trkpt lat="37.0805971" lon="22.2782449"><ele>1067.6</ele><time>2026-04-29T14:04:52.945Z</time></trkpt><trkpt lat="37.0805831" lon="22.2781157"><ele>1064.1999999999998</ele><time>2026-04-29T14:04:53.945Z</time></trkpt><trkpt lat="37.0805881" lon="22.2779838"><ele>1060.8000000000002</ele><time>2026-04-29T14:04:54.946Z</time></trkpt><trkpt lat="37.0805922" lon="22.2778834"><ele>1057.4</ele><time>2026-04-29T14:04:55.946Z</time></trkpt><trkpt lat="37.0806105" lon="22.2777557"><ele>1054.0</ele><time>2026-04-29T14:04:56.946Z</time></trkpt><trkpt lat="37.0806473" lon="22.2776543"><ele>1054.0</ele><time>2026-04-29T14:04:57.946Z</time></trkpt><trkpt lat="37.0806945" lon="22.2775557"><ele>1054.0</ele><time>2026-04-29T14:04:58.945Z</time></trkpt><trkpt lat="37.0807663" lon="22.2775496"><ele>1054.0</ele><time>2026-04-29T14:04:59.945Z</time></trkpt><trkpt lat="37.0808441" lon="22.2775867"><ele>1054.0</ele><time>2026-04-29T14:05:00.945Z</time></trkpt><trkpt lat="37.0808947" lon="22.2776384"><ele>1054.0</ele><time>2026-04-29T14:05:01.946Z</time></trkpt><trkpt lat="37.0809236" lon="22.2777122"><ele>1054.0</ele><time>2026-04-29T14:05:02.945Z</time></trkpt><trkpt lat="37.0809036" lon="22.2778263"><ele>1058.25</ele><time>2026-04-29T14:05:03.945Z</time></trkpt><trkpt lat="37.0808858" lon="22.2779493"><ele>1062.5</ele><time>2026-04-29T14:05:04.945Z</time></trkpt><trkpt lat="37.0809141" lon="22.2780917"><ele>1066.75</ele><time>2026-04-29T14:05:05.946Z</time></trkpt><trkpt lat="37.0809833" lon="22.2781988"><ele>1071.0</ele><time>2026-04-29T14:05:06.946Z</time></trkpt><trkpt lat="37.0810778" lon="22.2783035"><ele>1071.0</ele><time>2026-04-29T14:05:07.946Z</time></trkpt><trkpt lat="37.0811853" lon="22.2783912"><ele>1071.0</ele><time>2026-04-29T14:05:08.946Z</time></trkpt><trkpt lat="37.0812844" lon="22.278483"><ele>1071.0</ele><time>2026-04-29T14:05:09.945Z</time></trkpt><trkpt lat="37.0813767" lon="22.2785796"><ele>1071.0</ele><time>2026-04-29T14:05:10.946Z</time></trkpt><trkpt lat="37.0814409" lon="22.2786882"><ele>1071.0</ele><time>2026-04-29T14:05:11.945Z</time></trkpt><trkpt lat="37.0815117" lon="22.2787958"><ele>1071.0</ele><time>2026-04-29T14:05:12.946Z</time></trkpt><trkpt lat="37.0815897" lon="22.2789068"><ele>1071.0</ele><time>2026-04-29T14:05:13.946Z</time></trkpt><trkpt lat="37.0816585" lon="22.2790188"><ele>1071.0</ele><time>2026-04-29T14:05:14.946Z</time></trkpt><trkpt lat="37.0817333" lon="22.2791254"><ele>1074.5</ele><time>2026-04-29T14:05:15.946Z</time></trkpt><trkpt lat="37.0818049" lon="22.2792464"><ele>1078.0</ele><time>2026-04-29T14:05:16.946Z</time></trkpt><trkpt lat="37.0818706" lon="22.2793713"><ele>1081.5</ele><time>2026-04-29T14:05:17.946Z</time></trkpt><trkpt lat="37.0819124" lon="22.2795134"><ele>1085.0</ele><time>2026-04-29T14:05:18.945Z</time></trkpt><trkpt lat="37.0819431" lon="22.2796527"><ele>1083.4</ele><time>2026-04-29T14:05:19.946Z</time></trkpt><trkpt lat="37.081972" lon="22.2797731"><ele>1081.8</ele><time>2026-04-29T14:05:20.946Z</time></trkpt><trkpt lat="37.0820195" lon="22.279881"><ele>1080.2</ele><time>2026-04-29T14:05:21.946Z</time></trkpt><trkpt lat="37.0820907" lon="22.2799522"><ele>1078.6</ele><time>2026-04-29T14:05:22.945Z</time></trkpt><trkpt lat="37.0821544" lon="22.2800145"><ele>1077.0</ele><time>2026-04-29T14:05:23.945Z</time></trkpt><trkpt lat="37.0822526" lon="22.2799358"><ele>1077.0</ele><time>2026-04-29T14:05:24.946Z</time></trkpt><trkpt lat="37.0823396" lon="22.2799"><ele>1077.0</ele><time>2026-04-29T14:05:25.945Z</time></trkpt><trkpt lat="37.0824134" lon="22.2798325"><ele>1077.0</ele><time>2026-04-29T14:05:26.945Z</time></trkpt><trkpt lat="37.0824856" lon="22.2797092"><ele>1077.0</ele><time>2026-04-29T14:05:27.946Z</time></trkpt><trkpt lat="37.0824587" lon="22.2794702"><ele>1079.6666666666667</ele><time>2026-04-29T14:05:28.945Z</time></trkpt><trkpt lat="37.0824104" lon="22.2792836"><ele>1082.3333333333335</ele><time>2026-04-29T14:05:29.945Z</time></trkpt><trkpt lat="37.0823735" lon="22.2791085"><ele>1085.0</ele><time>2026-04-29T14:05:30.945Z</time></trkpt><trkpt lat="37.0823085" lon="22.278912"><ele>1088.6666666666667</ele><time>2026-04-29T14:05:31.946Z</time></trkpt><trkpt lat="37.0822367" lon="22.278721"><ele>1092.3333333333333</ele><time>2026-04-29T14:05:32.944Z</time></trkpt><trkpt lat="37.0821578" lon="22.2785323"><ele>1096.0</ele><time>2026-04-29T14:05:33.945Z</time></trkpt><trkpt lat="37.0820741" lon="22.2783505"><ele>1096.0</ele><time>2026-04-29T14:05:34.945Z</time></trkpt><trkpt lat="37.0819787" lon="22.2781763"><ele>1096.0</ele><time>2026-04-29T14:05:35.945Z</time></trkpt><trkpt lat="37.0818775" lon="22.2780246"><ele>1096.0</ele><time>2026-04-29T14:05:36.945Z</time></trkpt><trkpt lat="37.0817854" lon="22.2778838"><ele>1092.25</ele><time>2026-04-29T14:05:37.946Z</time></trkpt><trkpt lat="37.081688" lon="22.2777571"><ele>1088.5</ele><time>2026-04-29T14:05:38.946Z</time></trkpt><trkpt lat="37.0815953" lon="22.2776275"><ele>1084.75</ele><time>2026-04-29T14:05:39.946Z</time></trkpt><trkpt lat="37.0815254" lon="22.2774761"><ele>1081.0</ele><time>2026-04-29T14:05:40.946Z</time></trkpt><trkpt lat="37.0814943" lon="22.277306"><ele>1084.0</ele><time>2026-04-29T14:05:41.945Z</time></trkpt><trkpt lat="37.0814557" lon="22.2771512"><ele>1087.0</ele><time>2026-04-29T14:05:42.945Z</time></trkpt><trkpt lat="37.0814062" lon="22.2770007"><ele>1090.0</ele><time>2026-04-29T14:05:43.945Z</time></trkpt><trkpt lat="37.0813217" lon="22.2768777"><ele>1093.0</ele><time>2026-04-29T14:05:44.946Z</time></trkpt><trkpt lat="37.0812634" lon="22.2767573"><ele>1093.0</ele><time>2026-04-29T14:05:45.946Z</time></trkpt><trkpt lat="37.0811991" lon="22.2766374"><ele>1093.0</ele><time>2026-04-29T14:05:46.945Z</time></trkpt><trkpt lat="37.0811647" lon="22.2765169"><ele>1093.0</ele><time>2026-04-29T14:05:47.945Z</time></trkpt><trkpt lat="37.081127" lon="22.2763762"><ele>1093.0</ele><time>2026-04-29T14:05:48.945Z</time></trkpt><trkpt lat="37.0811265" lon="22.2762122"><ele>1099.25</ele><time>2026-04-29T14:05:49.945Z</time></trkpt><trkpt lat="37.0810915" lon="22.2760391"><ele>1105.5</ele><time>2026-04-29T14:05:50.945Z</time></trkpt><trkpt lat="37.0810339" lon="22.2759051"><ele>1111.75</ele><time>2026-04-29T14:05:51.946Z</time></trkpt><trkpt lat="37.08098" lon="22.2757617"><ele>1118.0</ele><time>2026-04-29T14:05:52.946Z</time></trkpt><trkpt lat="37.0808971" lon="22.2756601"><ele>1116.5</ele><time>2026-04-29T14:05:53.945Z</time></trkpt><trkpt lat="37.0807957" lon="22.2755655"><ele>1115.0</ele><time>2026-04-29T14:05:54.946Z</time></trkpt><trkpt lat="37.080676" lon="22.2754852"><ele>1113.5</ele><time>2026-04-29T14:05:55.945Z</time></trkpt><trkpt lat="37.0805592" lon="22.2754177"><ele>1112.0</ele><time>2026-04-29T14:05:56.946Z</time></trkpt><trkpt lat="37.080435" lon="22.2753608"><ele>1112.0</ele><time>2026-04-29T14:05:57.945Z</time></trkpt><trkpt lat="37.0803269" lon="22.2753166"><ele>1112.0</ele><time>2026-04-29T14:05:58.945Z</time></trkpt><trkpt lat="37.0802477" lon="22.2752674"><ele>1112.0</ele><time>2026-04-29T14:05:59.946Z</time></trkpt><trkpt lat="37.0801998" lon="22.2751946"><ele>1112.0</ele><time>2026-04-29T14:06:00.945Z</time></trkpt><trkpt lat="37.0801611" lon="22.2750673"><ele>1112.0</ele><time>2026-04-29T14:06:01.945Z</time></trkpt><trkpt lat="37.0801571" lon="22.2749295"><ele>1112.0</ele><time>2026-04-29T14:06:02.946Z</time></trkpt><trkpt lat="37.0801876" lon="22.2747903"><ele>1112.0</ele><time>2026-04-29T14:06:03.945Z</time></trkpt><trkpt lat="37.0802492" lon="22.2746567"><ele>1112.0</ele><time>2026-04-29T14:06:04.945Z</time></trkpt><trkpt lat="37.0803213" lon="22.2744615"><ele>1112.0</ele><time>2026-04-29T14:06:05.946Z</time></trkpt><trkpt lat="37.080385" lon="22.2743156"><ele>1113.75</ele><time>2026-04-29T14:06:06.945Z</time></trkpt><trkpt lat="37.0803936" lon="22.2741884"><ele>1115.5</ele><time>2026-04-29T14:06:07.945Z</time></trkpt><trkpt lat="37.0803835" lon="22.2740292"><ele>1117.25</ele><time>2026-04-29T14:06:08.945Z</time></trkpt><trkpt lat="37.0803792" lon="22.2738793"><ele>1119.0</ele><time>2026-04-29T14:06:09.945Z</time></trkpt><trkpt lat="37.0804034" lon="22.273698"><ele>1119.5</ele><time>2026-04-29T14:06:10.946Z</time></trkpt><trkpt lat="37.0804135" lon="22.2735242"><ele>1120.0</ele><time>2026-04-29T14:06:11.945Z</time></trkpt><trkpt lat="37.0804446" lon="22.2733414"><ele>1120.5</ele><time>2026-04-29T14:06:12.945Z</time></trkpt><trkpt lat="37.0805095" lon="22.2731582"><ele>1121.0</ele><time>2026-04-29T14:06:13.946Z</time></trkpt><trkpt lat="37.0805414" lon="22.2729745"><ele>1123.3333333333335</ele><time>2026-04-29T14:06:14.946Z</time></trkpt><trkpt lat="37.0805746" lon="22.2727815"><ele>1125.6666666666667</ele><time>2026-04-29T14:06:15.945Z</time></trkpt><trkpt lat="37.0805906" lon="22.272557"><ele>1128.0</ele><time>2026-04-29T14:06:16.946Z</time></trkpt><trkpt lat="37.0806009" lon="22.2723714"><ele>1131.25</ele><time>2026-04-29T14:06:17.946Z</time></trkpt><trkpt lat="37.0806303" lon="22.2721963"><ele>1134.5</ele><time>2026-04-29T14:06:18.945Z</time></trkpt><trkpt lat="37.0806477" lon="22.272023"><ele>1137.75</ele><time>2026-04-29T14:06:19.945Z</time></trkpt><trkpt lat="37.0807015" lon="22.2718343"><ele>1141.0</ele><time>2026-04-29T14:06:20.945Z</time></trkpt><trkpt lat="37.0807539" lon="22.2716548"><ele>1144.75</ele><time>2026-04-29T14:06:21.946Z</time></trkpt><trkpt lat="37.0807863" lon="22.2714895"><ele>1148.5</ele><time>2026-04-29T14:06:22.946Z</time></trkpt><trkpt lat="37.0808059" lon="22.2713415"><ele>1152.25</ele><time>2026-04-29T14:06:23.945Z</time></trkpt><trkpt lat="37.0807943" lon="22.2712024"><ele>1156.0</ele><time>2026-04-29T14:06:24.945Z</time></trkpt><trkpt lat="37.0807432" lon="22.2710648"><ele>1156.0</ele><time>2026-04-29T14:06:25.945Z</time></trkpt><trkpt lat="37.0806643" lon="22.2709289"><ele>1156.0</ele><time>2026-04-29T14:06:26.946Z</time></trkpt><trkpt lat="37.0805713" lon="22.2707776"><ele>1156.0</ele><time>2026-04-29T14:06:27.946Z</time></trkpt><trkpt lat="37.0804829" lon="22.2706253"><ele>1156.0</ele><time>2026-04-29T14:06:28.946Z</time></trkpt><trkpt lat="37.0804034" lon="22.2705006"><ele>1158.2</ele><time>2026-04-29T14:06:29.945Z</time></trkpt><trkpt lat="37.0803329" lon="22.2703881"><ele>1160.3999999999999</ele><time>2026-04-29T14:06:30.945Z</time></trkpt><trkpt lat="37.080245" lon="22.270313"><ele>1162.6</ele><time>2026-04-29T14:06:31.945Z</time></trkpt><trkpt lat="37.0801436" lon="22.2702665"><ele>1164.8</ele><time>2026-04-29T14:06:32.945Z</time></trkpt><trkpt lat="37.0800282" lon="22.2702545"><ele>1167.0</ele><time>2026-04-29T14:06:33.946Z</time></trkpt><trkpt lat="37.0799027" lon="22.2702822"><ele>1170.0</ele><time>2026-04-29T14:06:34.945Z</time></trkpt><trkpt lat="37.0797893" lon="22.2703187"><ele>1173.0</ele><time>2026-04-29T14:06:35.946Z</time></trkpt><trkpt lat="37.0796963" lon="22.2703917"><ele>1176.0</ele><time>2026-04-29T14:06:36.946Z</time></trkpt><trkpt lat="37.0796182" lon="22.2704852"><ele>1179.0</ele><time>2026-04-29T14:06:37.946Z</time></trkpt><trkpt lat="37.0795691" lon="22.2706021"><ele>1182.0</ele><time>2026-04-29T14:06:38.946Z</time></trkpt><trkpt lat="37.0795332" lon="22.2707783"><ele>1182.0</ele><time>2026-04-29T14:06:39.946Z</time></trkpt><trkpt lat="37.0794799" lon="22.2709728"><ele>1182.0</ele><time>2026-04-29T14:06:40.946Z</time></trkpt><trkpt lat="37.0794418" lon="22.271138"><ele>1182.0</ele><time>2026-04-29T14:06:41.946Z</time></trkpt><trkpt lat="37.0794041" lon="22.2712911"><ele>1182.0</ele><time>2026-04-29T14:06:42.946Z</time></trkpt><trkpt lat="37.0793256" lon="22.2714029"><ele>1183.5</ele><time>2026-04-29T14:06:43.946Z</time></trkpt><trkpt lat="37.0792081" lon="22.2714778"><ele>1185.0</ele><time>2026-04-29T14:06:44.944Z</time></trkpt><trkpt lat="37.0790999" lon="22.2715675"><ele>1186.5</ele><time>2026-04-29T14:06:45.946Z</time></trkpt><trkpt lat="37.078961" lon="22.2716191"><ele>1188.0</ele><time>2026-04-29T14:06:46.946Z</time></trkpt><trkpt lat="37.0788174" lon="22.2716733"><ele>1188.0</ele><time>2026-04-29T14:06:47.945Z</time></trkpt><trkpt lat="37.0786856" lon="22.2717419"><ele>1188.0</ele><time>2026-04-29T14:06:48.946Z</time></trkpt><trkpt lat="37.0785515" lon="22.2718094"><ele>1188.0</ele><time>2026-04-29T14:06:49.946Z</time></trkpt><trkpt lat="37.0784267" lon="22.2718733"><ele>1188.0</ele><time>2026-04-29T14:06:50.945Z</time></trkpt><trkpt lat="37.078304" lon="22.2719377"><ele>1186.25</ele><time>2026-04-29T14:06:51.945Z</time></trkpt><trkpt lat="37.0781824" lon="22.2720028"><ele>1184.5</ele><time>2026-04-29T14:06:52.946Z</time></trkpt><trkpt lat="37.0780699" lon="22.2720557"><ele>1182.75</ele><time>2026-04-29T14:06:53.946Z</time></trkpt><trkpt lat="37.0779649" lon="22.2720864"><ele>1181.0</ele><time>2026-04-29T14:06:54.945Z</time></trkpt><trkpt lat="37.0778596" lon="22.2720822"><ele>1181.0</ele><time>2026-04-29T14:06:55.943Z</time></trkpt><trkpt lat="37.0777729" lon="22.2720462"><ele>1181.0</ele><time>2026-04-29T14:06:56.946Z</time></trkpt><trkpt lat="37.0776888" lon="22.2719901"><ele>1181.0</ele><time>2026-04-29T14:06:57.945Z</time></trkpt><trkpt lat="37.0775596" lon="22.2718656"><ele>1181.0</ele><time>2026-04-29T14:06:58.945Z</time></trkpt><trkpt lat="37.077431" lon="22.2717223"><ele>1177.6666666666667</ele><time>2026-04-29T14:06:59.946Z</time></trkpt><trkpt lat="37.0772926" lon="22.2715687"><ele>1174.3333333333333</ele><time>2026-04-29T14:07:00.946Z</time></trkpt><trkpt lat="37.0771715" lon="22.2713971"><ele>1171.0</ele><time>2026-04-29T14:07:01.945Z</time></trkpt><trkpt lat="37.0770627" lon="22.2712531"><ele>1176.75</ele><time>2026-04-29T14:07:02.945Z</time></trkpt><trkpt lat="37.0769651" lon="22.2711167"><ele>1182.5</ele><time>2026-04-29T14:07:03.945Z</time></trkpt><trkpt lat="37.0768763" lon="22.2710017"><ele>1188.25</ele><time>2026-04-29T14:07:04.946Z</time></trkpt><trkpt lat="37.0767779" lon="22.2709196"><ele>1194.0</ele><time>2026-04-29T14:07:05.946Z</time></trkpt><trkpt lat="37.0766804" lon="22.2708627"><ele>1195.4</ele><time>2026-04-29T14:07:06.945Z</time></trkpt><trkpt lat="37.0765779" lon="22.2708519"><ele>1196.8000000000002</ele><time>2026-04-29T14:07:07.945Z</time></trkpt><trkpt lat="37.0764742" lon="22.2708781"><ele>1198.1999999999998</ele><time>2026-04-29T14:07:08.946Z</time></trkpt><trkpt lat="37.0763699" lon="22.2709416"><ele>1199.6</ele><time>2026-04-29T14:07:09.946Z</time></trkpt><trkpt lat="37.076254" lon="22.2709985"><ele>1201.0</ele><time>2026-04-29T14:07:10.945Z</time></trkpt><trkpt lat="37.0761641" lon="22.2710675"><ele>1201.0</ele><time>2026-04-29T14:07:11.944Z</time></trkpt><trkpt lat="37.0760616" lon="22.2711008"><ele>1201.0</ele><time>2026-04-29T14:07:12.945Z</time></trkpt><trkpt lat="37.0759818" lon="22.2711446"><ele>1201.0</ele><time>2026-04-29T14:07:13.946Z</time></trkpt><trkpt lat="37.0758697" lon="22.2710922"><ele>1201.0</ele><time>2026-04-29T14:07:14.945Z</time></trkpt><trkpt lat="37.0757638" lon="22.2710651"><ele>1201.0</ele><time>2026-04-29T14:07:15.946Z</time></trkpt><trkpt lat="37.0756547" lon="22.2710245"><ele>1201.6</ele><time>2026-04-29T14:07:16.945Z</time></trkpt><trkpt lat="37.075546" lon="22.2709836"><ele>1202.1999999999998</ele><time>2026-04-29T14:07:17.946Z</time></trkpt><trkpt lat="37.0754377" lon="22.2709513"><ele>1202.8000000000002</ele><time>2026-04-29T14:07:18.942Z</time></trkpt><trkpt lat="37.0753283" lon="22.2709133"><ele>1203.4</ele><time>2026-04-29T14:07:19.944Z</time></trkpt><trkpt lat="37.0752176" lon="22.2709029"><ele>1204.0</ele><time>2026-04-29T14:07:20.945Z</time></trkpt><trkpt lat="37.0750989" lon="22.2709198"><ele>1204.0</ele><time>2026-04-29T14:07:21.944Z</time></trkpt><trkpt lat="37.0749892" lon="22.270955"><ele>1204.0</ele><time>2026-04-29T14:07:22.946Z</time></trkpt><trkpt lat="37.074872" lon="22.2709737"><ele>1204.0</ele><time>2026-04-29T14:07:23.945Z</time></trkpt><trkpt lat="37.0747602" lon="22.2710076"><ele>1204.0</ele><time>2026-04-29T14:07:24.945Z</time></trkpt><trkpt lat="37.0746793" lon="22.271007"><ele>1204.0</ele><time>2026-04-29T14:07:25.945Z</time></trkpt><trkpt lat="37.0745833" lon="22.2709286"><ele>1202.6666666666665</ele><time>2026-04-29T14:07:27.946Z</time></trkpt><trkpt lat="37.0745944" lon="22.2708096"><ele>1201.3333333333333</ele><time>2026-04-29T14:07:29.945Z</time></trkpt><trkpt lat="37.0748446" lon="22.2706324"><ele>1200.0</ele><time>2026-04-29T14:07:31.945Z</time></trkpt><trkpt lat="37.0750094" lon="22.2705536"><ele>1209.3333333333333</ele><time>2026-04-29T14:07:32.945Z</time></trkpt><trkpt lat="37.0752098" lon="22.2705324"><ele>1218.6666666666665</ele><time>2026-04-29T14:07:33.946Z</time></trkpt><trkpt lat="37.0753808" lon="22.2705062"><ele>1228.0</ele><time>2026-04-29T14:07:34.945Z</time></trkpt><trkpt lat="37.0755507" lon="22.2704875"><ele>1228.0</ele><time>2026-04-29T14:07:35.945Z</time></trkpt><trkpt lat="37.075704" lon="22.2704539"><ele>1228.0</ele><time>2026-04-29T14:07:36.946Z</time></trkpt><trkpt lat="37.075843" lon="22.2704174"><ele>1228.0</ele><time>2026-04-29T14:07:37.945Z</time></trkpt><trkpt lat="37.0759964" lon="22.2703603"><ele>1227.3333333333333</ele><time>2026-04-29T14:07:38.944Z</time></trkpt><trkpt lat="37.0761562" lon="22.2703073"><ele>1226.6666666666667</ele><time>2026-04-29T14:07:39.945Z</time></trkpt><trkpt lat="37.0763178" lon="22.2702182"><ele>1226.0</ele><time>2026-04-29T14:07:40.946Z</time></trkpt><trkpt lat="37.0764726" lon="22.270156"><ele>1226.0</ele><time>2026-04-29T14:07:41.945Z</time></trkpt><trkpt lat="37.0766264" lon="22.2700848"><ele>1226.0</ele><time>2026-04-29T14:07:42.946Z</time></trkpt><trkpt lat="37.0767697" lon="22.2700304"><ele>1226.0</ele><time>2026-04-29T14:07:43.946Z</time></trkpt><trkpt lat="37.0769182" lon="22.2699808"><ele>1226.0</ele><time>2026-04-29T14:07:44.945Z</time></trkpt><trkpt lat="37.0770434" lon="22.2699841"><ele>1226.0</ele><time>2026-04-29T14:07:45.946Z</time></trkpt><trkpt lat="37.0771806" lon="22.2699972"><ele>1226.0</ele><time>2026-04-29T14:07:46.946Z</time></trkpt><trkpt lat="37.077311" lon="22.2700614"><ele>1226.0</ele><time>2026-04-29T14:07:47.945Z</time></trkpt><trkpt lat="37.0774134" lon="22.2702317"><ele>1226.3999999999999</ele><time>2026-04-29T14:07:48.945Z</time></trkpt><trkpt lat="37.0775227" lon="22.2703398"><ele>1226.8</ele><time>2026-04-29T14:07:49.946Z</time></trkpt><trkpt lat="37.0776136" lon="22.2704326"><ele>1227.1999999999998</ele><time>2026-04-29T14:07:50.945Z</time></trkpt><trkpt lat="37.0777" lon="22.2705038"><ele>1227.6</ele><time>2026-04-29T14:07:51.945Z</time></trkpt><trkpt lat="37.0777817" lon="22.2705412"><ele>1228.0</ele><time>2026-04-29T14:07:52.946Z</time></trkpt><trkpt lat="37.0778593" lon="22.2704923"><ele>1228.0</ele><time>2026-04-29T14:07:53.943Z</time></trkpt><trkpt lat="37.0779026" lon="22.2704211"><ele>1228.0</ele><time>2026-04-29T14:07:54.945Z</time></trkpt><trkpt lat="37.0779363" lon="22.270346"><ele>1228.0</ele><time>2026-04-29T14:07:55.943Z</time></trkpt><trkpt lat="37.0779435" lon="22.270236"><ele>1228.0</ele><time>2026-04-29T14:07:56.946Z</time></trkpt><trkpt lat="37.0779049" lon="22.2701529"><ele>1228.0</ele><time>2026-04-29T14:07:57.944Z</time></trkpt><trkpt lat="37.0778315" lon="22.2700192"><ele>1228.0</ele><time>2026-04-29T14:07:58.945Z</time></trkpt><trkpt lat="37.0777352" lon="22.269876"><ele>1237.0</ele><time>2026-04-29T14:07:59.945Z</time></trkpt><trkpt lat="37.0775883" lon="22.2697143"><ele>1246.0</ele><time>2026-04-29T14:08:00.945Z</time></trkpt><trkpt lat="37.0774136" lon="22.2695632"><ele>1255.0</ele><time>2026-04-29T14:08:01.944Z</time></trkpt><trkpt lat="37.0772338" lon="22.2694945"><ele>1256.0</ele><time>2026-04-29T14:08:02.944Z</time></trkpt><trkpt lat="37.0770732" lon="22.2694535"><ele>1257.0</ele><time>2026-04-29T14:08:03.945Z</time></trkpt><trkpt lat="37.0768786" lon="22.2694446"><ele>1258.0</ele><time>2026-04-29T14:08:04.945Z</time></trkpt><trkpt lat="37.0766757" lon="22.2695587"><ele>1254.3333333333333</ele><time>2026-04-29T14:08:05.946Z</time></trkpt><trkpt lat="37.0765105" lon="22.269564"><ele>1250.6666666666667</ele><time>2026-04-29T14:08:06.944Z</time></trkpt><trkpt lat="37.076345" lon="22.2695561"><ele>1247.0</ele><time>2026-04-29T14:08:07.944Z</time></trkpt><trkpt lat="37.0761956" lon="22.2695437"><ele>1247.0</ele><time>2026-04-29T14:08:08.945Z</time></trkpt><trkpt lat="37.0760374" lon="22.2694847"><ele>1247.0</ele><time>2026-04-29T14:08:09.945Z</time></trkpt><trkpt lat="37.0758781" lon="22.2694105"><ele>1247.0</ele><time>2026-04-29T14:08:10.946Z</time></trkpt><trkpt lat="37.0757186" lon="22.2693492"><ele>1246.0</ele><time>2026-04-29T14:08:11.943Z</time></trkpt><trkpt lat="37.0755676" lon="22.2692811"><ele>1245.0</ele><time>2026-04-29T14:08:12.943Z</time></trkpt><trkpt lat="37.0754254" lon="22.2691995"><ele>1244.0</ele><time>2026-04-29T14:08:13.944Z</time></trkpt><trkpt lat="37.0752697" lon="22.2691285"><ele>1244.0</ele><time>2026-04-29T14:08:14.946Z</time></trkpt><trkpt lat="37.0751168" lon="22.2690571"><ele>1244.0</ele><time>2026-04-29T14:08:15.945Z</time></trkpt><trkpt lat="37.0749849" lon="22.2689976"><ele>1244.0</ele><time>2026-04-29T14:08:16.946Z</time></trkpt><trkpt lat="37.074859" lon="22.2689246"><ele>1244.0</ele><time>2026-04-29T14:08:17.945Z</time></trkpt><trkpt lat="37.0747228" lon="22.2688552"><ele>1248.5</ele><time>2026-04-29T14:08:18.946Z</time></trkpt><trkpt lat="37.0745842" lon="22.2687812"><ele>1253.0</ele><time>2026-04-29T14:08:19.946Z</time></trkpt><trkpt lat="37.0744661" lon="22.2687053"><ele>1257.5</ele><time>2026-04-29T14:08:20.945Z</time></trkpt><trkpt lat="37.0743334" lon="22.2686495"><ele>1262.0</ele><time>2026-04-29T14:08:21.945Z</time></trkpt><trkpt lat="37.0741921" lon="22.2686048"><ele>1262.6666666666667</ele><time>2026-04-29T14:08:22.946Z</time></trkpt><trkpt lat="37.0740339" lon="22.2685731"><ele>1263.3333333333333</ele><time>2026-04-29T14:08:23.945Z</time></trkpt><trkpt lat="37.0738817" lon="22.2685645"><ele>1264.0</ele><time>2026-04-29T14:08:24.945Z</time></trkpt><trkpt lat="37.0737141" lon="22.2685827"><ele>1264.0</ele><time>2026-04-29T14:08:25.946Z</time></trkpt><trkpt lat="37.0735468" lon="22.2685956"><ele>1264.0</ele><time>2026-04-29T14:08:26.945Z</time></trkpt><trkpt lat="37.0733899" lon="22.2686303"><ele>1264.0</ele><time>2026-04-29T14:08:27.945Z</time></trkpt><trkpt lat="37.0732177" lon="22.2686561"><ele>1268.3333333333333</ele><time>2026-04-29T14:08:28.945Z</time></trkpt><trkpt lat="37.0730608" lon="22.2686758"><ele>1272.6666666666667</ele><time>2026-04-29T14:08:29.946Z</time></trkpt><trkpt lat="37.0729104" lon="22.2687017"><ele>1277.0</ele><time>2026-04-29T14:08:30.946Z</time></trkpt><trkpt lat="37.072769" lon="22.2687674"><ele>1277.0</ele><time>2026-04-29T14:08:31.945Z</time></trkpt><trkpt lat="37.072639" lon="22.2688515"><ele>1277.0</ele><time>2026-04-29T14:08:32.945Z</time></trkpt><trkpt lat="37.0725108" lon="22.268947"><ele>1277.0</ele><time>2026-04-29T14:08:33.945Z</time></trkpt><trkpt lat="37.0723858" lon="22.2690572"><ele>1277.0</ele><time>2026-04-29T14:08:34.946Z</time></trkpt><trkpt lat="37.072261" lon="22.2691781"><ele>1276.3333333333335</ele><time>2026-04-29T14:08:35.945Z</time></trkpt><trkpt lat="37.072132" lon="22.2693097"><ele>1275.6666666666667</ele><time>2026-04-29T14:08:36.946Z</time></trkpt><trkpt lat="37.0720114" lon="22.2694512"><ele>1275.0</ele><time>2026-04-29T14:08:37.946Z</time></trkpt><trkpt lat="37.0718837" lon="22.2695693"><ele>1275.0</ele><time>2026-04-29T14:08:38.945Z</time></trkpt><trkpt lat="37.0717542" lon="22.2696907"><ele>1275.0</ele><time>2026-04-29T14:08:39.946Z</time></trkpt><trkpt lat="37.0716224" lon="22.269803"><ele>1275.0</ele><time>2026-04-29T14:08:40.946Z</time></trkpt><trkpt lat="37.071485" lon="22.2699104"><ele>1278.0</ele><time>2026-04-29T14:08:41.945Z</time></trkpt><trkpt lat="37.0713425" lon="22.2700238"><ele>1281.0</ele><time>2026-04-29T14:08:42.945Z</time></trkpt><trkpt lat="37.071213" lon="22.2701312"><ele>1284.0</ele><time>2026-04-29T14:08:43.945Z</time></trkpt><trkpt lat="37.0710721" lon="22.2702332"><ele>1284.0</ele><time>2026-04-29T14:08:44.943Z</time></trkpt><trkpt lat="37.0709315" lon="22.2703234"><ele>1284.0</ele><time>2026-04-29T14:08:45.946Z</time></trkpt><trkpt lat="37.0707868" lon="22.2703729"><ele>1284.0</ele><time>2026-04-29T14:08:46.946Z</time></trkpt><trkpt lat="37.0706575" lon="22.2704267"><ele>1284.0</ele><time>2026-04-29T14:08:47.944Z</time></trkpt><trkpt lat="37.0705049" lon="22.2704432"><ele>1286.3333333333333</ele><time>2026-04-29T14:08:48.946Z</time></trkpt><trkpt lat="37.070367" lon="22.2704297"><ele>1288.6666666666665</ele><time>2026-04-29T14:08:49.945Z</time></trkpt><trkpt lat="37.0702109" lon="22.2703745"><ele>1291.0</ele><time>2026-04-29T14:08:50.945Z</time></trkpt><trkpt lat="37.0700402" lon="22.2702659"><ele>1286.3333333333333</ele><time>2026-04-29T14:08:51.945Z</time></trkpt><trkpt lat="37.0698666" lon="22.2701495"><ele>1281.6666666666667</ele><time>2026-04-29T14:08:52.946Z</time></trkpt><trkpt lat="37.0697147" lon="22.270024"><ele>1277.0</ele><time>2026-04-29T14:08:53.946Z</time></trkpt><trkpt lat="37.0695757" lon="22.2699235"><ele>1277.0</ele><time>2026-04-29T14:08:54.945Z</time></trkpt><trkpt lat="37.0694481" lon="22.2698266"><ele>1277.0</ele><time>2026-04-29T14:08:55.946Z</time></trkpt><trkpt lat="37.0693467" lon="22.2697107"><ele>1277.0</ele><time>2026-04-29T14:08:56.946Z</time></trkpt><trkpt lat="37.0692734" lon="22.2695527"><ele>1277.0</ele><time>2026-04-29T14:08:57.946Z</time></trkpt><trkpt lat="37.0692292" lon="22.2693797"><ele>1277.25</ele><time>2026-04-29T14:08:58.946Z</time></trkpt><trkpt lat="37.0691394" lon="22.2692409"><ele>1277.5</ele><time>2026-04-29T14:08:59.945Z</time></trkpt><trkpt lat="37.0690635" lon="22.2691173"><ele>1277.75</ele><time>2026-04-29T14:09:00.946Z</time></trkpt><trkpt lat="37.0689587" lon="22.268997"><ele>1278.0</ele><time>2026-04-29T14:09:01.946Z</time></trkpt><trkpt lat="37.0688431" lon="22.2688576"><ele>1288.6666666666667</ele><time>2026-04-29T14:09:02.945Z</time></trkpt><trkpt lat="37.0686845" lon="22.2687524"><ele>1299.3333333333335</ele><time>2026-04-29T14:09:03.946Z</time></trkpt><trkpt lat="37.0684598" lon="22.2686996"><ele>1310.0</ele><time>2026-04-29T14:09:04.945Z</time></trkpt><trkpt lat="37.0683145" lon="22.2685922"><ele>1306.0</ele><time>2026-04-29T14:09:05.946Z</time></trkpt><trkpt lat="37.0681497" lon="22.2685028"><ele>1302.0</ele><time>2026-04-29T14:09:06.945Z</time></trkpt><trkpt lat="37.0679891" lon="22.2684043"><ele>1298.0</ele><time>2026-04-29T14:09:07.946Z</time></trkpt><trkpt lat="37.0678352" lon="22.2683085"><ele>1298.0</ele><time>2026-04-29T14:09:08.946Z</time></trkpt><trkpt lat="37.0676938" lon="22.2681976"><ele>1298.0</ele><time>2026-04-29T14:09:09.945Z</time></trkpt><trkpt lat="37.0675638" lon="22.2681101"><ele>1298.0</ele><time>2026-04-29T14:09:10.945Z</time></trkpt><trkpt lat="37.0674472" lon="22.2680084"><ele>1295.75</ele><time>2026-04-29T14:09:11.946Z</time></trkpt><trkpt lat="37.0673365" lon="22.2679111"><ele>1293.5</ele><time>2026-04-29T14:09:12.945Z</time></trkpt><trkpt lat="37.0672404" lon="22.2677969"><ele>1291.25</ele><time>2026-04-29T14:09:13.945Z</time></trkpt><trkpt lat="37.0671611" lon="22.2676617"><ele>1289.0</ele><time>2026-04-29T14:09:14.945Z</time></trkpt><trkpt lat="37.0670975" lon="22.2675059"><ele>1289.0</ele><time>2026-04-29T14:09:15.945Z</time></trkpt><trkpt lat="37.0670297" lon="22.2673093"><ele>1289.0</ele><time>2026-04-29T14:09:16.945Z</time></trkpt><trkpt lat="37.0669782" lon="22.2670969"><ele>1289.0</ele><time>2026-04-29T14:09:17.945Z</time></trkpt><trkpt lat="37.0669305" lon="22.2668793"><ele>1293.25</ele><time>2026-04-29T14:09:18.945Z</time></trkpt><trkpt lat="37.0668695" lon="22.2666998"><ele>1297.5</ele><time>2026-04-29T14:09:19.946Z</time></trkpt><trkpt lat="37.0668177" lon="22.2665288"><ele>1301.75</ele><time>2026-04-29T14:09:20.946Z</time></trkpt><trkpt lat="37.0667748" lon="22.2663741"><ele>1306.0</ele><time>2026-04-29T14:09:21.946Z</time></trkpt><trkpt lat="37.0667378" lon="22.2662274"><ele>1308.1999999999998</ele><time>2026-04-29T14:09:22.945Z</time></trkpt><trkpt lat="37.0667021" lon="22.2661137"><ele>1310.3999999999999</ele><time>2026-04-29T14:09:23.946Z</time></trkpt><trkpt lat="37.0666762" lon="22.2659994"><ele>1312.6</ele><time>2026-04-29T14:09:24.946Z</time></trkpt><trkpt lat="37.0666697" lon="22.2658931"><ele>1314.8</ele><time>2026-04-29T14:09:25.946Z</time></trkpt><trkpt lat="37.0666962" lon="22.2657937"><ele>1317.0</ele><time>2026-04-29T14:09:26.945Z</time></trkpt><trkpt lat="37.0667386" lon="22.2656837"><ele>1315.3999999999999</ele><time>2026-04-29T14:09:27.945Z</time></trkpt><trkpt lat="37.0667771" lon="22.2655821"><ele>1313.8</ele><time>2026-04-29T14:09:28.946Z</time></trkpt><trkpt lat="37.0668465" lon="22.2654556"><ele>1312.2</ele><time>2026-04-29T14:09:29.945Z</time></trkpt><trkpt lat="37.0669081" lon="22.2653355"><ele>1310.6</ele><time>2026-04-29T14:09:30.945Z</time></trkpt><trkpt lat="37.0669719" lon="22.2652196"><ele>1309.0</ele><time>2026-04-29T14:09:31.944Z</time></trkpt><trkpt lat="37.0670437" lon="22.2651136"><ele>1309.0</ele><time>2026-04-29T14:09:32.945Z</time></trkpt><trkpt lat="37.0670947" lon="22.2650232"><ele>1309.0</ele><time>2026-04-29T14:09:33.945Z</time></trkpt><trkpt lat="37.0671595" lon="22.2649431"><ele>1309.0</ele><time>2026-04-29T14:09:34.945Z</time></trkpt><trkpt lat="37.0672553" lon="22.2648479"><ele>1309.0</ele><time>2026-04-29T14:09:35.946Z</time></trkpt><trkpt lat="37.0673571" lon="22.2647604"><ele>1309.0</ele><time>2026-04-29T14:09:36.945Z</time></trkpt><trkpt lat="37.067458" lon="22.2646815"><ele>1308.0</ele><time>2026-04-29T14:09:37.945Z</time></trkpt><trkpt lat="37.0675455" lon="22.2646046"><ele>1307.0</ele><time>2026-04-29T14:09:38.943Z</time></trkpt><trkpt lat="37.0676242" lon="22.2645233"><ele>1306.0</ele><time>2026-04-29T14:09:39.944Z</time></trkpt><trkpt lat="37.0676887" lon="22.2644246"><ele>1305.0</ele><time>2026-04-29T14:09:40.946Z</time></trkpt><trkpt lat="37.0677372" lon="22.2643164"><ele>1304.0</ele><time>2026-04-29T14:09:41.946Z</time></trkpt><trkpt lat="37.0677867" lon="22.2642014"><ele>1304.0</ele><time>2026-04-29T14:09:42.945Z</time></trkpt><trkpt lat="37.0678252" lon="22.2640846"><ele>1304.0</ele><time>2026-04-29T14:09:43.945Z</time></trkpt><trkpt lat="37.0678716" lon="22.2639638"><ele>1304.0</ele><time>2026-04-29T14:09:44.944Z</time></trkpt><trkpt lat="37.067922" lon="22.2638548"><ele>1304.0</ele><time>2026-04-29T14:09:45.945Z</time></trkpt><trkpt lat="37.0679724" lon="22.2637539"><ele>1304.0</ele><time>2026-04-29T14:09:46.946Z</time></trkpt><trkpt lat="37.0680454" lon="22.2636506"><ele>1305.75</ele><time>2026-04-29T14:09:47.945Z</time></trkpt><trkpt lat="37.068119" lon="22.2635435"><ele>1307.5</ele><time>2026-04-29T14:09:48.945Z</time></trkpt><trkpt lat="37.0682027" lon="22.263436"><ele>1309.25</ele><time>2026-04-29T14:09:49.946Z</time></trkpt><trkpt lat="37.0682816" lon="22.2633378"><ele>1311.0</ele><time>2026-04-29T14:09:50.945Z</time></trkpt><trkpt lat="37.0683567" lon="22.2632312"><ele>1311.0</ele><time>2026-04-29T14:09:51.946Z</time></trkpt><trkpt lat="37.0684476" lon="22.2631277"><ele>1311.0</ele><time>2026-04-29T14:09:52.946Z</time></trkpt><trkpt lat="37.0685462" lon="22.2630138"><ele>1311.0</ele><time>2026-04-29T14:09:53.945Z</time></trkpt><trkpt lat="37.0686275" lon="22.2629077"><ele>1311.0</ele><time>2026-04-29T14:09:54.946Z</time></trkpt><trkpt lat="37.0687157" lon="22.2628056"><ele>1304.25</ele><time>2026-04-29T14:09:55.945Z</time></trkpt><trkpt lat="37.0687978" lon="22.2627017"><ele>1297.5</ele><time>2026-04-29T14:09:56.945Z</time></trkpt><trkpt lat="37.0688746" lon="22.2625862"><ele>1290.75</ele><time>2026-04-29T14:09:57.945Z</time></trkpt><trkpt lat="37.0689562" lon="22.2624797"><ele>1284.0</ele><time>2026-04-29T14:09:58.945Z</time></trkpt><trkpt lat="37.0690406" lon="22.2623679"><ele>1284.5</ele><time>2026-04-29T14:09:59.946Z</time></trkpt><trkpt lat="37.0691255" lon="22.2622479"><ele>1285.0</ele><time>2026-04-29T14:10:00.946Z</time></trkpt><trkpt lat="37.0692269" lon="22.2621146"><ele>1285.5</ele><time>2026-04-29T14:10:01.945Z</time></trkpt><trkpt lat="37.0693303" lon="22.261976"><ele>1286.0</ele><time>2026-04-29T14:10:02.946Z</time></trkpt><trkpt lat="37.0694349" lon="22.2618364"><ele>1286.0</ele><time>2026-04-29T14:10:03.945Z</time></trkpt><trkpt lat="37.0695417" lon="22.2616862"><ele>1286.0</ele><time>2026-04-29T14:10:04.945Z</time></trkpt><trkpt lat="37.0696405" lon="22.2615283"><ele>1286.0</ele><time>2026-04-29T14:10:05.945Z</time></trkpt><trkpt lat="37.0697303" lon="22.2613583"><ele>1289.0</ele><time>2026-04-29T14:10:06.946Z</time></trkpt><trkpt lat="37.0698119" lon="22.2611794"><ele>1292.0</ele><time>2026-04-29T14:10:07.946Z</time></trkpt><trkpt lat="37.069888" lon="22.2609925"><ele>1295.0</ele><time>2026-04-29T14:10:08.945Z</time></trkpt><trkpt lat="37.0699605" lon="22.2608101"><ele>1295.0</ele><time>2026-04-29T14:10:09.945Z</time></trkpt><trkpt lat="37.0700344" lon="22.2606303"><ele>1295.0</ele><time>2026-04-29T14:10:10.945Z</time></trkpt><trkpt lat="37.0701085" lon="22.2604494"><ele>1295.0</ele><time>2026-04-29T14:10:11.946Z</time></trkpt><trkpt lat="37.0701792" lon="22.2602671"><ele>1288.3333333333335</ele><time>2026-04-29T14:10:12.945Z</time></trkpt><trkpt lat="37.0702446" lon="22.2600793"><ele>1281.6666666666667</ele><time>2026-04-29T14:10:13.946Z</time></trkpt><trkpt lat="37.0703065" lon="22.2598883"><ele>1275.0</ele><time>2026-04-29T14:10:14.943Z</time></trkpt><trkpt lat="37.0703687" lon="22.2596878"><ele>1270.0</ele><time>2026-04-29T14:10:15.945Z</time></trkpt><trkpt lat="37.0704312" lon="22.2594899"><ele>1265.0</ele><time>2026-04-29T14:10:16.945Z</time></trkpt><trkpt lat="37.0704983" lon="22.2592827"><ele>1260.0</ele><time>2026-04-29T14:10:17.946Z</time></trkpt><trkpt lat="37.0705721" lon="22.259079"><ele>1255.6666666666667</ele><time>2026-04-29T14:10:18.946Z</time></trkpt><trkpt lat="37.0706517" lon="22.2588714"><ele>1251.3333333333335</ele><time>2026-04-29T14:10:19.946Z</time></trkpt><trkpt lat="37.0707419" lon="22.2586666"><ele>1247.0</ele><time>2026-04-29T14:10:20.944Z</time></trkpt><trkpt lat="37.0708291" lon="22.2584645"><ele>1253.0</ele><time>2026-04-29T14:10:21.943Z</time></trkpt><trkpt lat="37.0709959" lon="22.2580749"><ele>1259.0</ele><time>2026-04-29T14:10:23.944Z</time></trkpt><trkpt lat="37.0710782" lon="22.2578863"><ele>1259.0</ele><time>2026-04-29T14:10:24.944Z</time></trkpt><trkpt lat="37.0711529" lon="22.2577045"><ele>1259.0</ele><time>2026-04-29T14:10:25.946Z</time></trkpt><trkpt lat="37.0712238" lon="22.257535"><ele>1259.0</ele><time>2026-04-29T14:10:26.946Z</time></trkpt><trkpt lat="37.0712926" lon="22.2573886"><ele>1259.5</ele><time>2026-04-29T14:10:27.945Z</time></trkpt><trkpt lat="37.0713688" lon="22.2572509"><ele>1260.0</ele><time>2026-04-29T14:10:28.945Z</time></trkpt><trkpt lat="37.0714615" lon="22.257144"><ele>1260.5</ele><time>2026-04-29T14:10:29.946Z</time></trkpt><trkpt lat="37.0715732" lon="22.257055"><ele>1261.0</ele><time>2026-04-29T14:10:30.946Z</time></trkpt><trkpt lat="37.0716912" lon="22.2569731"><ele>1261.0</ele><time>2026-04-29T14:10:31.946Z</time></trkpt><trkpt lat="37.0718173" lon="22.2568847"><ele>1261.0</ele><time>2026-04-29T14:10:32.946Z</time></trkpt><trkpt lat="37.0719474" lon="22.2567961"><ele>1261.0</ele><time>2026-04-29T14:10:33.945Z</time></trkpt><trkpt lat="37.072072" lon="22.2566984"><ele>1261.0</ele><time>2026-04-29T14:10:34.946Z</time></trkpt><trkpt lat="37.0722002" lon="22.2566093"><ele>1261.0</ele><time>2026-04-29T14:10:35.946Z</time></trkpt><trkpt lat="37.0723281" lon="22.2565228"><ele>1261.0</ele><time>2026-04-29T14:10:36.945Z</time></trkpt><trkpt lat="37.0724618" lon="22.2564265"><ele>1261.0</ele><time>2026-04-29T14:10:37.946Z</time></trkpt><trkpt lat="37.072596" lon="22.2563275"><ele>1257.6666666666665</ele><time>2026-04-29T14:10:38.945Z</time></trkpt><trkpt lat="37.0727398" lon="22.2562247"><ele>1254.3333333333333</ele><time>2026-04-29T14:10:39.945Z</time></trkpt><trkpt lat="37.0728839" lon="22.2561159"><ele>1251.0</ele><time>2026-04-29T14:10:40.945Z</time></trkpt><trkpt lat="37.073021" lon="22.2560108"><ele>1251.0</ele><time>2026-04-29T14:10:41.945Z</time></trkpt><trkpt lat="37.0731544" lon="22.2558954"><ele>1251.0</ele><time>2026-04-29T14:10:42.945Z</time></trkpt><trkpt lat="37.0732723" lon="22.2557656"><ele>1251.0</ele><time>2026-04-29T14:10:43.946Z</time></trkpt><trkpt lat="37.0733729" lon="22.255615"><ele>1248.75</ele><time>2026-04-29T14:10:44.944Z</time></trkpt><trkpt lat="37.0734641" lon="22.255469"><ele>1246.5</ele><time>2026-04-29T14:10:45.946Z</time></trkpt><trkpt lat="37.0735567" lon="22.2553282"><ele>1244.25</ele><time>2026-04-29T14:10:46.946Z</time></trkpt><trkpt lat="37.0736452" lon="22.2551911"><ele>1242.0</ele><time>2026-04-29T14:10:47.945Z</time></trkpt><trkpt lat="37.0737365" lon="22.2550636"><ele>1242.0</ele><time>2026-04-29T14:10:48.945Z</time></trkpt><trkpt lat="37.0738366" lon="22.2549536"><ele>1242.0</ele><time>2026-04-29T14:10:49.946Z</time></trkpt><trkpt lat="37.0739458" lon="22.2548589"><ele>1242.0</ele><time>2026-04-29T14:10:50.945Z</time></trkpt><trkpt lat="37.0740696" lon="22.254785"><ele>1242.0</ele><time>2026-04-29T14:10:51.946Z</time></trkpt><trkpt lat="37.0741943" lon="22.2547358"><ele>1239.8</ele><time>2026-04-29T14:10:52.945Z</time></trkpt><trkpt lat="37.0743108" lon="22.2546962"><ele>1237.6</ele><time>2026-04-29T14:10:53.943Z</time></trkpt><trkpt lat="37.074417" lon="22.254653"><ele>1235.3999999999999</ele><time>2026-04-29T14:10:54.946Z</time></trkpt><trkpt lat="37.0745048" lon="22.2546008"><ele>1233.2</ele><time>2026-04-29T14:10:55.946Z</time></trkpt><trkpt lat="37.0745716" lon="22.2545334"><ele>1231.0</ele><time>2026-04-29T14:10:56.945Z</time></trkpt><trkpt lat="37.0746057" lon="22.2544429"><ele>1231.0</ele><time>2026-04-29T14:10:57.944Z</time></trkpt><trkpt lat="37.0746013" lon="22.254351"><ele>1231.0</ele><time>2026-04-29T14:10:58.943Z</time></trkpt><trkpt lat="37.0745713" lon="22.2542631"><ele>1231.0</ele><time>2026-04-29T14:10:59.946Z</time></trkpt><trkpt lat="37.0744814" lon="22.2542296"><ele>1231.0</ele><time>2026-04-29T14:11:00.944Z</time></trkpt><trkpt lat="37.0743831" lon="22.2542205"><ele>1231.0</ele><time>2026-04-29T14:11:01.945Z</time></trkpt><trkpt lat="37.074277" lon="22.2542303"><ele>1231.0</ele><time>2026-04-29T14:11:02.945Z</time></trkpt><trkpt lat="37.0741415" lon="22.2542459"><ele>1227.0</ele><time>2026-04-29T14:11:03.946Z</time></trkpt><trkpt lat="37.0740003" lon="22.2543303"><ele>1223.0</ele><time>2026-04-29T14:11:04.945Z</time></trkpt><trkpt lat="37.0738552" lon="22.2544057"><ele>1219.0</ele><time>2026-04-29T14:11:05.945Z</time></trkpt><trkpt lat="37.0737053" lon="22.2544868"><ele>1219.0</ele><time>2026-04-29T14:11:06.946Z</time></trkpt><trkpt lat="37.073551" lon="22.2545694"><ele>1219.0</ele><time>2026-04-29T14:11:07.945Z</time></trkpt><trkpt lat="37.0733845" lon="22.2546457"><ele>1219.0</ele><time>2026-04-29T14:11:08.946Z</time></trkpt><trkpt lat="37.0732133" lon="22.2547168"><ele>1223.0</ele><time>2026-04-29T14:11:09.946Z</time></trkpt><trkpt lat="37.0730446" lon="22.254756"><ele>1227.0</ele><time>2026-04-29T14:11:10.946Z</time></trkpt><trkpt lat="37.0728729" lon="22.2547873"><ele>1231.0</ele><time>2026-04-29T14:11:11.945Z</time></trkpt><trkpt lat="37.0727047" lon="22.2548065"><ele>1231.0</ele><time>2026-04-29T14:11:12.945Z</time></trkpt><trkpt lat="37.0725325" lon="22.2548279"><ele>1231.0</ele><time>2026-04-29T14:11:13.945Z</time></trkpt><trkpt lat="37.0723591" lon="22.2548494"><ele>1231.0</ele><time>2026-04-29T14:11:14.946Z</time></trkpt><trkpt lat="37.0721836" lon="22.2548696"><ele>1228.0</ele><time>2026-04-29T14:11:15.945Z</time></trkpt><trkpt lat="37.0720073" lon="22.2548963"><ele>1225.0</ele><time>2026-04-29T14:11:16.945Z</time></trkpt><trkpt lat="37.0718376" lon="22.254922"><ele>1222.0</ele><time>2026-04-29T14:11:17.945Z</time></trkpt><trkpt lat="37.0716722" lon="22.2549226"><ele>1220.3333333333333</ele><time>2026-04-29T14:11:18.946Z</time></trkpt><trkpt lat="37.0715093" lon="22.2549174"><ele>1218.6666666666667</ele><time>2026-04-29T14:11:19.946Z</time></trkpt><trkpt lat="37.0713514" lon="22.2549023"><ele>1217.0</ele><time>2026-04-29T14:11:20.945Z</time></trkpt><trkpt lat="37.0712014" lon="22.2548893"><ele>1217.0</ele><time>2026-04-29T14:11:21.946Z</time></trkpt><trkpt lat="37.0710568" lon="22.2548821"><ele>1217.0</ele><time>2026-04-29T14:11:22.945Z</time></trkpt><trkpt lat="37.0709192" lon="22.2548885"><ele>1217.0</ele><time>2026-04-29T14:11:23.946Z</time></trkpt><trkpt lat="37.0707859" lon="22.2549244"><ele>1217.0</ele><time>2026-04-29T14:11:24.945Z</time></trkpt><trkpt lat="37.070673" lon="22.2549989"><ele>1212.75</ele><time>2026-04-29T14:11:25.946Z</time></trkpt><trkpt lat="37.0705841" lon="22.2551107"><ele>1208.5</ele><time>2026-04-29T14:11:26.945Z</time></trkpt><trkpt lat="37.0705226" lon="22.2552447"><ele>1204.25</ele><time>2026-04-29T14:11:27.946Z</time></trkpt><trkpt lat="37.070474" lon="22.2553924"><ele>1200.0</ele><time>2026-04-29T14:11:28.946Z</time></trkpt><trkpt lat="37.0704243" lon="22.2555524"><ele>1202.25</ele><time>2026-04-29T14:11:29.946Z</time></trkpt><trkpt lat="37.0703691" lon="22.2557046"><ele>1204.5</ele><time>2026-04-29T14:11:30.944Z</time></trkpt><trkpt lat="37.0703086" lon="22.2558376"><ele>1206.75</ele><time>2026-04-29T14:11:31.945Z</time></trkpt><trkpt lat="37.0702461" lon="22.2559702"><ele>1209.0</ele><time>2026-04-29T14:11:32.944Z</time></trkpt><trkpt lat="37.0701691" lon="22.2560496"><ele>1209.0</ele><time>2026-04-29T14:11:33.946Z</time></trkpt><trkpt lat="37.0700786" lon="22.2561072"><ele>1209.0</ele><time>2026-04-29T14:11:34.946Z</time></trkpt><trkpt lat="37.0699862" lon="22.2560968"><ele>1209.0</ele><time>2026-04-29T14:11:35.946Z</time></trkpt><trkpt lat="37.0698882" lon="22.2560592"><ele>1209.0</ele><time>2026-04-29T14:11:36.943Z</time></trkpt><trkpt lat="37.0698184" lon="22.2559935"><ele>1209.0</ele><time>2026-04-29T14:11:37.945Z</time></trkpt><trkpt lat="37.0697525" lon="22.2559021"><ele>1203.0</ele><time>2026-04-29T14:11:38.946Z</time></trkpt><trkpt lat="37.0697408" lon="22.2557779"><ele>1197.0</ele><time>2026-04-29T14:11:39.946Z</time></trkpt><trkpt lat="37.0697573" lon="22.2556292"><ele>1191.0</ele><time>2026-04-29T14:11:40.945Z</time></trkpt><trkpt lat="37.0698181" lon="22.2554799"><ele>1185.0</ele><time>2026-04-29T14:11:41.944Z</time></trkpt><trkpt lat="37.0699025" lon="22.25532"><ele>1190.0</ele><time>2026-04-29T14:11:42.945Z</time></trkpt><trkpt lat="37.069999" lon="22.2551545"><ele>1195.0</ele><time>2026-04-29T14:11:43.946Z</time></trkpt><trkpt lat="37.0700933" lon="22.2549839"><ele>1200.0</ele><time>2026-04-29T14:11:44.944Z</time></trkpt><trkpt lat="37.0701815" lon="22.2548198"><ele>1195.0</ele><time>2026-04-29T14:11:45.945Z</time></trkpt><trkpt lat="37.0702709" lon="22.2546675"><ele>1190.0</ele><time>2026-04-29T14:11:46.946Z</time></trkpt><trkpt lat="37.0703642" lon="22.2545343"><ele>1185.0</ele><time>2026-04-29T14:11:47.946Z</time></trkpt><trkpt lat="37.0704789" lon="22.2544251"><ele>1180.0</ele><time>2026-04-29T14:11:48.945Z</time></trkpt><trkpt lat="37.0706069" lon="22.2543503"><ele>1180.0</ele><time>2026-04-29T14:11:49.946Z</time></trkpt><trkpt lat="37.0707575" lon="22.2543087"><ele>1180.0</ele><time>2026-04-29T14:11:50.945Z</time></trkpt><trkpt lat="37.0709186" lon="22.2542886"><ele>1180.0</ele><time>2026-04-29T14:11:51.946Z</time></trkpt><trkpt lat="37.071078" lon="22.2542822"><ele>1183.0</ele><time>2026-04-29T14:11:52.943Z</time></trkpt><trkpt lat="37.0712352" lon="22.2542805"><ele>1186.0</ele><time>2026-04-29T14:11:53.946Z</time></trkpt><trkpt lat="37.0713841" lon="22.2542664"><ele>1189.0</ele><time>2026-04-29T14:11:54.945Z</time></trkpt><trkpt lat="37.0715319" lon="22.2542274"><ele>1190.6666666666665</ele><time>2026-04-29T14:11:55.946Z</time></trkpt><trkpt lat="37.0716732" lon="22.2541534"><ele>1192.3333333333333</ele><time>2026-04-29T14:11:56.945Z</time></trkpt><trkpt lat="37.07181" lon="22.2540617"><ele>1194.0</ele><time>2026-04-29T14:11:57.945Z</time></trkpt><trkpt lat="37.0719369" lon="22.2539627"><ele>1184.3333333333333</ele><time>2026-04-29T14:11:58.944Z</time></trkpt><trkpt lat="37.0720621" lon="22.2538651"><ele>1174.6666666666665</ele><time>2026-04-29T14:11:59.946Z</time></trkpt><trkpt lat="37.0721818" lon="22.2537498"><ele>1165.0</ele><time>2026-04-29T14:12:00.945Z</time></trkpt><trkpt lat="37.072294" lon="22.2536172"><ele>1165.0</ele><time>2026-04-29T14:12:01.946Z</time></trkpt><trkpt lat="37.0724003" lon="22.2534664"><ele>1165.0</ele><time>2026-04-29T14:12:02.946Z</time></trkpt><trkpt lat="37.0725063" lon="22.2533135"><ele>1165.0</ele><time>2026-04-29T14:12:03.946Z</time></trkpt><trkpt lat="37.0726133" lon="22.253177"><ele>1163.25</ele><time>2026-04-29T14:12:04.946Z</time></trkpt><trkpt lat="37.0727239" lon="22.2530548"><ele>1161.5</ele><time>2026-04-29T14:12:05.946Z</time></trkpt><trkpt lat="37.0728408" lon="22.2529535"><ele>1159.75</ele><time>2026-04-29T14:12:06.946Z</time></trkpt><trkpt lat="37.072967" lon="22.2528856"><ele>1158.0</ele><time>2026-04-29T14:12:07.943Z</time></trkpt><trkpt lat="37.0731218" lon="22.2528268"><ele>1160.6666666666667</ele><time>2026-04-29T14:12:08.946Z</time></trkpt><trkpt lat="37.0733014" lon="22.252785"><ele>1163.3333333333335</ele><time>2026-04-29T14:12:09.946Z</time></trkpt><trkpt lat="37.0734727" lon="22.2527524"><ele>1166.0</ele><time>2026-04-29T14:12:10.946Z</time></trkpt><trkpt lat="37.0736476" lon="22.2527096"><ele>1166.0</ele><time>2026-04-29T14:12:11.944Z</time></trkpt><trkpt lat="37.0738267" lon="22.2526632"><ele>1166.0</ele><time>2026-04-29T14:12:12.945Z</time></trkpt><trkpt lat="37.0740152" lon="22.2526213"><ele>1166.0</ele><time>2026-04-29T14:12:13.945Z</time></trkpt><trkpt lat="37.0742013" lon="22.2525748"><ele>1166.6666666666667</ele><time>2026-04-29T14:12:14.945Z</time></trkpt><trkpt lat="37.0743835" lon="22.2525302"><ele>1167.3333333333333</ele><time>2026-04-29T14:12:15.945Z</time></trkpt><trkpt lat="37.0745614" lon="22.2524873"><ele>1168.0</ele><time>2026-04-29T14:12:16.945Z</time></trkpt><trkpt lat="37.0747388" lon="22.2524421"><ele>1168.0</ele><time>2026-04-29T14:12:17.945Z</time></trkpt><trkpt lat="37.0749142" lon="22.252396"><ele>1168.0</ele><time>2026-04-29T14:12:18.946Z</time></trkpt><trkpt lat="37.0750856" lon="22.252347"><ele>1168.0</ele><time>2026-04-29T14:12:19.946Z</time></trkpt><trkpt lat="37.0752565" lon="22.2522929"><ele>1159.3333333333333</ele><time>2026-04-29T14:12:20.945Z</time></trkpt><trkpt lat="37.0754219" lon="22.2522339"><ele>1150.6666666666667</ele><time>2026-04-29T14:12:21.944Z</time></trkpt><trkpt lat="37.0755799" lon="22.2521634"><ele>1142.0</ele><time>2026-04-29T14:12:22.946Z</time></trkpt><trkpt lat="37.0757396" lon="22.2520801"><ele>1144.3333333333335</ele><time>2026-04-29T14:12:23.945Z</time></trkpt><trkpt lat="37.0758948" lon="22.2519825"><ele>1146.6666666666667</ele><time>2026-04-29T14:12:24.946Z</time></trkpt><trkpt lat="37.0760469" lon="22.2518684"><ele>1149.0</ele><time>2026-04-29T14:12:25.946Z</time></trkpt><trkpt lat="37.0762001" lon="22.2517508"><ele>1149.0</ele><time>2026-04-29T14:12:26.945Z</time></trkpt><trkpt lat="37.0763579" lon="22.251631"><ele>1149.0</ele><time>2026-04-29T14:12:27.945Z</time></trkpt><trkpt lat="37.0765147" lon="22.2515063"><ele>1149.0</ele><time>2026-04-29T14:12:28.946Z</time></trkpt><trkpt lat="37.0766671" lon="22.2513874"><ele>1151.0</ele><time>2026-04-29T14:12:29.946Z</time></trkpt><trkpt lat="37.0768156" lon="22.2512689"><ele>1153.0</ele><time>2026-04-29T14:12:30.946Z</time></trkpt><trkpt lat="37.0769638" lon="22.2511495"><ele>1155.0</ele><time>2026-04-29T14:12:31.946Z</time></trkpt><trkpt lat="37.0771076" lon="22.2510357"><ele>1155.0</ele><time>2026-04-29T14:12:32.946Z</time></trkpt><trkpt lat="37.077243" lon="22.2509335"><ele>1155.0</ele><time>2026-04-29T14:12:33.945Z</time></trkpt><trkpt lat="37.0773734" lon="22.250832"><ele>1155.0</ele><time>2026-04-29T14:12:34.946Z</time></trkpt><trkpt lat="37.077494" lon="22.250757"><ele>1155.0</ele><time>2026-04-29T14:12:35.946Z</time></trkpt><trkpt lat="37.0776281" lon="22.2507091"><ele>1151.75</ele><time>2026-04-29T14:12:36.946Z</time></trkpt><trkpt lat="37.0777653" lon="22.2506859"><ele>1148.5</ele><time>2026-04-29T14:12:37.945Z</time></trkpt><trkpt lat="37.0779048" lon="22.2506893"><ele>1145.25</ele><time>2026-04-29T14:12:38.946Z</time></trkpt><trkpt lat="37.0780451" lon="22.2506891"><ele>1142.0</ele><time>2026-04-29T14:12:39.945Z</time></trkpt><trkpt lat="37.0781848" lon="22.2506626"><ele>1144.25</ele><time>2026-04-29T14:12:40.945Z</time></trkpt><trkpt lat="37.078315" lon="22.2506168"><ele>1146.5</ele><time>2026-04-29T14:12:41.945Z</time></trkpt><trkpt lat="37.0784304" lon="22.2505346"><ele>1148.75</ele><time>2026-04-29T14:12:42.944Z</time></trkpt><trkpt lat="37.0785301" lon="22.2504169"><ele>1151.0</ele><time>2026-04-29T14:12:43.945Z</time></trkpt><trkpt lat="37.0786061" lon="22.2502561"><ele>1151.0</ele><time>2026-04-29T14:12:44.946Z</time></trkpt><trkpt lat="37.0786738" lon="22.2500697"><ele>1151.0</ele><time>2026-04-29T14:12:45.945Z</time></trkpt><trkpt lat="37.0787376" lon="22.2498863"><ele>1151.0</ele><time>2026-04-29T14:12:46.946Z</time></trkpt><trkpt lat="37.078805" lon="22.2496996"><ele>1151.3333333333335</ele><time>2026-04-29T14:12:47.945Z</time></trkpt><trkpt lat="37.0788878" lon="22.2495285"><ele>1151.6666666666667</ele><time>2026-04-29T14:12:48.945Z</time></trkpt><trkpt lat="37.0789871" lon="22.2493778"><ele>1152.0</ele><time>2026-04-29T14:12:49.946Z</time></trkpt><trkpt lat="37.0791058" lon="22.2492407"><ele>1149.0</ele><time>2026-04-29T14:12:50.945Z</time></trkpt><trkpt lat="37.0792214" lon="22.2491291"><ele>1146.0</ele><time>2026-04-29T14:12:51.943Z</time></trkpt><trkpt lat="37.079331" lon="22.2490314"><ele>1143.0</ele><time>2026-04-29T14:12:52.945Z</time></trkpt><trkpt lat="37.0794114" lon="22.2489072"><ele>1140.0</ele><time>2026-04-29T14:12:53.945Z</time></trkpt><trkpt lat="37.0794745" lon="22.2487441"><ele>1140.0</ele><time>2026-04-29T14:12:54.946Z</time></trkpt><trkpt lat="37.0795413" lon="22.2485611"><ele>1140.0</ele><time>2026-04-29T14:12:55.946Z</time></trkpt><trkpt lat="37.0796025" lon="22.2483606"><ele>1140.0</ele><time>2026-04-29T14:12:56.946Z</time></trkpt><trkpt lat="37.079662" lon="22.248164"><ele>1138.3333333333333</ele><time>2026-04-29T14:12:57.946Z</time></trkpt><trkpt lat="37.0797248" lon="22.2479754"><ele>1136.6666666666665</ele><time>2026-04-29T14:12:58.946Z</time></trkpt><trkpt lat="37.0797916" lon="22.2477921"><ele>1135.0</ele><time>2026-04-29T14:12:59.946Z</time></trkpt><trkpt lat="37.0798301" lon="22.2476224"><ele>1135.0</ele><time>2026-04-29T14:13:00.945Z</time></trkpt><trkpt lat="37.0798865" lon="22.247465"><ele>1135.0</ele><time>2026-04-29T14:13:01.945Z</time></trkpt><trkpt lat="37.0799325" lon="22.2473205"><ele>1135.0</ele><time>2026-04-29T14:13:02.946Z</time></trkpt><trkpt lat="37.0800124" lon="22.2472096"><ele>1135.0</ele><time>2026-04-29T14:13:03.946Z</time></trkpt><trkpt lat="37.0801211" lon="22.2471345"><ele>1132.25</ele><time>2026-04-29T14:13:04.945Z</time></trkpt><trkpt lat="37.0802215" lon="22.2470823"><ele>1129.5</ele><time>2026-04-29T14:13:05.946Z</time></trkpt><trkpt lat="37.0803506" lon="22.2471041"><ele>1126.75</ele><time>2026-04-29T14:13:06.946Z</time></trkpt><trkpt lat="37.080489" lon="22.2471087"><ele>1124.0</ele><time>2026-04-29T14:13:07.946Z</time></trkpt><trkpt lat="37.0806101" lon="22.2471153"><ele>1124.0</ele><time>2026-04-29T14:13:08.945Z</time></trkpt><trkpt lat="37.08073" lon="22.2470709"><ele>1124.0</ele><time>2026-04-29T14:13:09.946Z</time></trkpt><trkpt lat="37.0808451" lon="22.2469974"><ele>1124.0</ele><time>2026-04-29T14:13:10.946Z</time></trkpt><trkpt lat="37.0809358" lon="22.2468977"><ele>1124.0</ele><time>2026-04-29T14:13:11.946Z</time></trkpt><trkpt lat="37.0810104" lon="22.2467419"><ele>1123.3333333333335</ele><time>2026-04-29T14:13:12.945Z</time></trkpt><trkpt lat="37.0810897" lon="22.2465672"><ele>1122.6666666666667</ele><time>2026-04-29T14:13:13.946Z</time></trkpt><trkpt lat="37.0811717" lon="22.2463804"><ele>1122.0</ele><time>2026-04-29T14:13:14.946Z</time></trkpt><trkpt lat="37.0812498" lon="22.2461951"><ele>1122.0</ele><time>2026-04-29T14:13:15.945Z</time></trkpt><trkpt lat="37.0813284" lon="22.2460083"><ele>1122.0</ele><time>2026-04-29T14:13:16.945Z</time></trkpt><trkpt lat="37.0814126" lon="22.2458206"><ele>1122.0</ele><time>2026-04-29T14:13:17.946Z</time></trkpt><trkpt lat="37.0814972" lon="22.2456269"><ele>1121.0</ele><time>2026-04-29T14:13:18.945Z</time></trkpt><trkpt lat="37.0815729" lon="22.245432"><ele>1120.0</ele><time>2026-04-29T14:13:19.946Z</time></trkpt><trkpt lat="37.0816556" lon="22.2452423"><ele>1119.0</ele><time>2026-04-29T14:13:20.945Z</time></trkpt><trkpt lat="37.081737" lon="22.2450512"><ele>1113.0</ele><time>2026-04-29T14:13:21.945Z</time></trkpt><trkpt lat="37.0818199" lon="22.2448581"><ele>1107.0</ele><time>2026-04-29T14:13:22.946Z</time></trkpt><trkpt lat="37.081912" lon="22.244666"><ele>1101.0</ele><time>2026-04-29T14:13:23.945Z</time></trkpt><trkpt lat="37.0819973" lon="22.2444675"><ele>1101.0</ele><time>2026-04-29T14:13:24.946Z</time></trkpt><trkpt lat="37.0820841" lon="22.2442685"><ele>1101.0</ele><time>2026-04-29T14:13:25.945Z</time></trkpt><trkpt lat="37.0821646" lon="22.2440664"><ele>1101.0</ele><time>2026-04-29T14:13:26.943Z</time></trkpt><trkpt lat="37.0822518" lon="22.2438641"><ele>1102.0</ele><time>2026-04-29T14:13:27.946Z</time></trkpt><trkpt lat="37.0823434" lon="22.2436621"><ele>1103.0</ele><time>2026-04-29T14:13:28.944Z</time></trkpt><trkpt lat="37.082432" lon="22.2434653"><ele>1104.0</ele><time>2026-04-29T14:13:29.945Z</time></trkpt><trkpt lat="37.0825162" lon="22.2432735"><ele>1100.3333333333333</ele><time>2026-04-29T14:13:30.945Z</time></trkpt><trkpt lat="37.0825866" lon="22.2430844"><ele>1096.6666666666665</ele><time>2026-04-29T14:13:31.945Z</time></trkpt><trkpt lat="37.0826682" lon="22.2429083"><ele>1093.0</ele><time>2026-04-29T14:13:32.946Z</time></trkpt><trkpt lat="37.0827346" lon="22.2427371"><ele>1093.0</ele><time>2026-04-29T14:13:33.945Z</time></trkpt><trkpt lat="37.0827871" lon="22.2425965"><ele>1093.0</ele><time>2026-04-29T14:13:34.945Z</time></trkpt><trkpt lat="37.0828413" lon="22.2424939"><ele>1093.0</ele><time>2026-04-29T14:13:35.942Z</time></trkpt><trkpt lat="37.0828934" lon="22.242423"><ele>1093.0</ele><time>2026-04-29T14:13:36.945Z</time></trkpt><trkpt lat="37.0829554" lon="22.2423837"><ele>1093.0</ele><time>2026-04-29T14:13:37.945Z</time></trkpt><trkpt lat="37.0830205" lon="22.2423904"><ele>1093.0</ele><time>2026-04-29T14:13:38.943Z</time></trkpt><trkpt lat="37.0830578" lon="22.2425231"><ele>1093.0</ele><time>2026-04-29T14:13:40.946Z</time></trkpt><trkpt lat="37.0830414" lon="22.2426272"><ele>1093.0</ele><time>2026-04-29T14:13:41.946Z</time></trkpt><trkpt lat="37.0830223" lon="22.2427434"><ele>1093.0</ele><time>2026-04-29T14:13:42.946Z</time></trkpt><trkpt lat="37.0829551" lon="22.2428817"><ele>1093.0</ele><time>2026-04-29T14:13:43.945Z</time></trkpt><trkpt lat="37.0828997" lon="22.2430061"><ele>1093.0</ele><time>2026-04-29T14:13:44.946Z</time></trkpt><trkpt lat="37.0828494" lon="22.2431149"><ele>1091.75</ele><time>2026-04-29T14:13:45.945Z</time></trkpt><trkpt lat="37.0827833" lon="22.2432661"><ele>1090.5</ele><time>2026-04-29T14:13:46.945Z</time></trkpt><trkpt lat="37.0827331" lon="22.243422"><ele>1089.25</ele><time>2026-04-29T14:13:47.945Z</time></trkpt><trkpt lat="37.0827047" lon="22.2435768"><ele>1088.0</ele><time>2026-04-29T14:13:48.946Z</time></trkpt><trkpt lat="37.0826716" lon="22.243721"><ele>1088.0</ele><time>2026-04-29T14:13:49.945Z</time></trkpt><trkpt lat="37.0826471" lon="22.2438774"><ele>1088.0</ele><time>2026-04-29T14:13:50.945Z</time></trkpt><trkpt lat="37.0826155" lon="22.244037"><ele>1088.0</ele><time>2026-04-29T14:13:51.945Z</time></trkpt><trkpt lat="37.0825899" lon="22.2441856"><ele>1088.0</ele><time>2026-04-29T14:13:52.946Z</time></trkpt><trkpt lat="37.0825603" lon="22.2443304"><ele>1085.5</ele><time>2026-04-29T14:13:53.945Z</time></trkpt><trkpt lat="37.082534" lon="22.2444704"><ele>1083.0</ele><time>2026-04-29T14:13:54.946Z</time></trkpt><trkpt lat="37.0825103" lon="22.2446137"><ele>1080.5</ele><time>2026-04-29T14:13:55.945Z</time></trkpt><trkpt lat="37.0824541" lon="22.24476"><ele>1078.0</ele><time>2026-04-29T14:13:56.946Z</time></trkpt><trkpt lat="37.0823875" lon="22.2448919"><ele>1083.5</ele><time>2026-04-29T14:13:57.945Z</time></trkpt><trkpt lat="37.0823099" lon="22.2450291"><ele>1089.0</ele><time>2026-04-29T14:13:58.946Z</time></trkpt><trkpt lat="37.08222" lon="22.2451677"><ele>1094.5</ele><time>2026-04-29T14:13:59.945Z</time></trkpt><trkpt lat="37.0821369" lon="22.2453112"><ele>1100.0</ele><time>2026-04-29T14:14:00.946Z</time></trkpt><trkpt lat="37.0820644" lon="22.2454515"><ele>1100.0</ele><time>2026-04-29T14:14:01.946Z</time></trkpt><trkpt lat="37.0819866" lon="22.2455829"><ele>1100.0</ele><time>2026-04-29T14:14:02.945Z</time></trkpt><trkpt lat="37.081919" lon="22.2457165"><ele>1100.0</ele><time>2026-04-29T14:14:03.946Z</time></trkpt><trkpt lat="37.0818514" lon="22.2458417"><ele>1100.0</ele><time>2026-04-29T14:14:04.946Z</time></trkpt><trkpt lat="37.0817952" lon="22.2459659"><ele>1098.2</ele><time>2026-04-29T14:14:05.945Z</time></trkpt><trkpt lat="37.0817447" lon="22.2461032"><ele>1096.4</ele><time>2026-04-29T14:14:06.946Z</time></trkpt><trkpt lat="37.081719" lon="22.2462404"><ele>1094.6</ele><time>2026-04-29T14:14:07.943Z</time></trkpt><trkpt lat="37.0817081" lon="22.2463607"><ele>1092.8</ele><time>2026-04-29T14:14:08.945Z</time></trkpt><trkpt lat="37.0817102" lon="22.2464667"><ele>1091.0</ele><time>2026-04-29T14:14:09.945Z</time></trkpt><trkpt lat="37.0817375" lon="22.2465616"><ele>1091.0</ele><time>2026-04-29T14:14:10.946Z</time></trkpt><trkpt lat="37.0817951" lon="22.2466262"><ele>1091.0</ele><time>2026-04-29T14:14:11.943Z</time></trkpt><trkpt lat="37.0818698" lon="22.2466434"><ele>1091.0</ele><time>2026-04-29T14:14:12.945Z</time></trkpt><trkpt lat="37.0819395" lon="22.2466072"><ele>1091.0</ele><time>2026-04-29T14:14:13.945Z</time></trkpt><trkpt lat="37.0819995" lon="22.2465681"><ele>1091.0</ele><time>2026-04-29T14:14:14.946Z</time></trkpt><trkpt lat="37.0820413" lon="22.2464754"><ele>1091.0</ele><time>2026-04-29T14:14:15.945Z</time></trkpt><trkpt lat="37.0820917" lon="22.246349"><ele>1091.0</ele><time>2026-04-29T14:14:16.946Z</time></trkpt><trkpt lat="37.0821155" lon="22.2462246"><ele>1091.0</ele><time>2026-04-29T14:14:17.946Z</time></trkpt><trkpt lat="37.0821554" lon="22.2460514"><ele>1091.0</ele><time>2026-04-29T14:14:18.946Z</time></trkpt><trkpt lat="37.0822201" lon="22.2458873"><ele>1091.0</ele><time>2026-04-29T14:14:19.945Z</time></trkpt><trkpt lat="37.082295" lon="22.2457403"><ele>1094.0</ele><time>2026-04-29T14:14:20.945Z</time></trkpt><trkpt lat="37.0823834" lon="22.245594"><ele>1097.0</ele><time>2026-04-29T14:14:21.943Z</time></trkpt><trkpt lat="37.0824833" lon="22.2454453"><ele>1100.0</ele><time>2026-04-29T14:14:22.945Z</time></trkpt><trkpt lat="37.0826122" lon="22.2453144"><ele>1091.0</ele><time>2026-04-29T14:14:23.945Z</time></trkpt><trkpt lat="37.0827297" lon="22.2451904"><ele>1082.0</ele><time>2026-04-29T14:14:24.945Z</time></trkpt><trkpt lat="37.0828604" lon="22.2450722"><ele>1073.0</ele><time>2026-04-29T14:14:25.946Z</time></trkpt><trkpt lat="37.0829593" lon="22.2450039"><ele>1064.0</ele><time>2026-04-29T14:14:26.945Z</time></trkpt><trkpt lat="37.0830617" lon="22.2449476"><ele>1064.0</ele><time>2026-04-29T14:14:27.946Z</time></trkpt><trkpt lat="37.0831388" lon="22.24487"><ele>1064.0</ele><time>2026-04-29T14:14:28.945Z</time></trkpt><trkpt lat="37.0831899" lon="22.2447318"><ele>1064.0</ele><time>2026-04-29T14:14:29.946Z</time></trkpt><trkpt lat="37.0832221" lon="22.244577"><ele>1064.0</ele><time>2026-04-29T14:14:30.945Z</time></trkpt><trkpt lat="37.0832513" lon="22.2444047"><ele>1062.0</ele><time>2026-04-29T14:14:31.945Z</time></trkpt><trkpt lat="37.0832772" lon="22.2442295"><ele>1060.0</ele><time>2026-04-29T14:14:32.945Z</time></trkpt><trkpt lat="37.0833087" lon="22.2440645"><ele>1058.0</ele><time>2026-04-29T14:14:33.945Z</time></trkpt><trkpt lat="37.0833664" lon="22.2439176"><ele>1056.0</ele><time>2026-04-29T14:14:34.946Z</time></trkpt><trkpt lat="37.08343" lon="22.2437825"><ele>1056.0</ele><time>2026-04-29T14:14:35.946Z</time></trkpt><trkpt lat="37.0835303" lon="22.2436535"><ele>1056.0</ele><time>2026-04-29T14:14:36.946Z</time></trkpt><trkpt lat="37.083645" lon="22.2435466"><ele>1056.0</ele><time>2026-04-29T14:14:37.946Z</time></trkpt><trkpt lat="37.0837658" lon="22.2434605"><ele>1056.0</ele><time>2026-04-29T14:14:38.945Z</time></trkpt><trkpt lat="37.0838939" lon="22.2433822"><ele>1056.0</ele><time>2026-04-29T14:14:39.946Z</time></trkpt><trkpt lat="37.084024" lon="22.2433361"><ele>1056.0</ele><time>2026-04-29T14:14:40.945Z</time></trkpt><trkpt lat="37.0841558" lon="22.243333"><ele>1056.0</ele><time>2026-04-29T14:14:41.945Z</time></trkpt><trkpt lat="37.0842857" lon="22.2433338"><ele>1056.0</ele><time>2026-04-29T14:14:42.946Z</time></trkpt><trkpt lat="37.084402" lon="22.243345"><ele>1053.6666666666667</ele><time>2026-04-29T14:14:43.946Z</time></trkpt><trkpt lat="37.0844933" lon="22.2433221"><ele>1051.3333333333333</ele><time>2026-04-29T14:14:44.945Z</time></trkpt><trkpt lat="37.0845758" lon="22.2432687"><ele>1049.0</ele><time>2026-04-29T14:14:45.945Z</time></trkpt><trkpt lat="37.0846253" lon="22.2431837"><ele>1046.6666666666665</ele><time>2026-04-29T14:14:46.946Z</time></trkpt><trkpt lat="37.0846422" lon="22.243076"><ele>1044.3333333333333</ele><time>2026-04-29T14:14:47.945Z</time></trkpt><trkpt lat="37.0846499" lon="22.2429614"><ele>1042.0</ele><time>2026-04-29T14:14:48.946Z</time></trkpt><trkpt lat="37.084587" lon="22.2428487"><ele>1042.0</ele><time>2026-04-29T14:14:49.944Z</time></trkpt><trkpt lat="37.0844878" lon="22.2427577"><ele>1042.0</ele><time>2026-04-29T14:14:50.946Z</time></trkpt><trkpt lat="37.0844251" lon="22.2426273"><ele>1042.0</ele><time>2026-04-29T14:14:51.946Z</time></trkpt><trkpt lat="37.0843809" lon="22.2424805"><ele>1042.0</ele><time>2026-04-29T14:14:52.945Z</time></trkpt><trkpt lat="37.0843655" lon="22.2423236"><ele>1044.75</ele><time>2026-04-29T14:14:53.946Z</time></trkpt><trkpt lat="37.084364" lon="22.2421558"><ele>1047.5</ele><time>2026-04-29T14:14:54.945Z</time></trkpt><trkpt lat="37.084384" lon="22.2419726"><ele>1050.25</ele><time>2026-04-29T14:14:55.946Z</time></trkpt><trkpt lat="37.0844244" lon="22.2417936"><ele>1053.0</ele><time>2026-04-29T14:14:56.946Z</time></trkpt><trkpt lat="37.0844814" lon="22.2416196"><ele>1053.0</ele><time>2026-04-29T14:14:57.946Z</time></trkpt><trkpt lat="37.0845482" lon="22.2414658"><ele>1053.0</ele><time>2026-04-29T14:14:58.945Z</time></trkpt><trkpt lat="37.0846179" lon="22.2413317"><ele>1053.0</ele><time>2026-04-29T14:14:59.945Z</time></trkpt><trkpt lat="37.084724" lon="22.2412178"><ele>1053.0</ele><time>2026-04-29T14:15:00.945Z</time></trkpt><trkpt lat="37.0848361" lon="22.2410977"><ele>1058.6666666666667</ele><time>2026-04-29T14:15:01.943Z</time></trkpt><trkpt lat="37.0849282" lon="22.2409617"><ele>1064.3333333333335</ele><time>2026-04-29T14:15:02.945Z</time></trkpt><trkpt lat="37.0850319" lon="22.2408178"><ele>1070.0</ele><time>2026-04-29T14:15:03.945Z</time></trkpt><trkpt lat="37.0851407" lon="22.2406723"><ele>1063.5</ele><time>2026-04-29T14:15:04.945Z</time></trkpt><trkpt lat="37.0852499" lon="22.2405377"><ele>1057.0</ele><time>2026-04-29T14:15:05.945Z</time></trkpt><trkpt lat="37.0853679" lon="22.2404187"><ele>1050.5</ele><time>2026-04-29T14:15:06.946Z</time></trkpt><trkpt lat="37.0854817" lon="22.2403235"><ele>1044.0</ele><time>2026-04-29T14:15:07.946Z</time></trkpt><trkpt lat="37.0855862" lon="22.2402102"><ele>1044.0</ele><time>2026-04-29T14:15:08.945Z</time></trkpt><trkpt lat="37.0856661" lon="22.2400727"><ele>1044.0</ele><time>2026-04-29T14:15:09.944Z</time></trkpt><trkpt lat="37.0857308" lon="22.2399114"><ele>1044.0</ele><time>2026-04-29T14:15:10.946Z</time></trkpt><trkpt lat="37.0857723" lon="22.2397332"><ele>1044.0</ele><time>2026-04-29T14:15:11.943Z</time></trkpt><trkpt lat="37.0858159" lon="22.2395457"><ele>1031.0</ele><time>2026-04-29T14:15:12.946Z</time></trkpt><trkpt lat="37.0858288" lon="22.239329"><ele>1018.0</ele><time>2026-04-29T14:15:13.945Z</time></trkpt><trkpt lat="37.0858387" lon="22.2391235"><ele>1005.0</ele><time>2026-04-29T14:15:14.946Z</time></trkpt><trkpt lat="37.0858458" lon="22.238929"><ele>1004.75</ele><time>2026-04-29T14:15:15.946Z</time></trkpt><trkpt lat="37.0858577" lon="22.2387414"><ele>1004.5</ele><time>2026-04-29T14:15:16.945Z</time></trkpt><trkpt lat="37.0858936" lon="22.238566"><ele>1004.25</ele><time>2026-04-29T14:15:17.945Z</time></trkpt><trkpt lat="37.0859477" lon="22.2384008"><ele>1004.0</ele><time>2026-04-29T14:15:18.945Z</time></trkpt><trkpt lat="37.0860167" lon="22.2382447"><ele>1001.6</ele><time>2026-04-29T14:15:19.946Z</time></trkpt><trkpt lat="37.0860678" lon="22.2381237"><ele>999.2</ele><time>2026-04-29T14:15:20.945Z</time></trkpt><trkpt lat="37.0860941" lon="22.2380017"><ele>996.8000000000001</ele><time>2026-04-29T14:15:21.946Z</time></trkpt><trkpt lat="37.0860783" lon="22.2378653"><ele>994.4000000000001</ele><time>2026-04-29T14:15:22.945Z</time></trkpt><trkpt lat="37.086061" lon="22.2377166"><ele>992.0</ele><time>2026-04-29T14:15:23.946Z</time></trkpt><trkpt lat="37.0859678" lon="22.2375786"><ele>992.0</ele><time>2026-04-29T14:15:24.945Z</time></trkpt><trkpt lat="37.0858887" lon="22.2374013"><ele>992.0</ele><time>2026-04-29T14:15:25.945Z</time></trkpt><trkpt lat="37.0858238" lon="22.2372098"><ele>992.0</ele><time>2026-04-29T14:15:26.945Z</time></trkpt><trkpt lat="37.0857652" lon="22.237006"><ele>989.6666666666667</ele><time>2026-04-29T14:15:27.946Z</time></trkpt><trkpt lat="37.0857101" lon="22.2368056"><ele>987.3333333333333</ele><time>2026-04-29T14:15:28.945Z</time></trkpt><trkpt lat="37.0856578" lon="22.2366108"><ele>985.0</ele><time>2026-04-29T14:15:29.946Z</time></trkpt><trkpt lat="37.0856013" lon="22.2364284"><ele>985.0</ele><time>2026-04-29T14:15:30.944Z</time></trkpt><trkpt lat="37.085529" lon="22.2362504"><ele>985.0</ele><time>2026-04-29T14:15:31.944Z</time></trkpt><trkpt lat="37.085444" lon="22.2360845"><ele>985.0</ele><time>2026-04-29T14:15:32.945Z</time></trkpt><trkpt lat="37.0853446" lon="22.2359521"><ele>985.0</ele><time>2026-04-29T14:15:33.945Z</time></trkpt><trkpt lat="37.0852256" lon="22.2358504"><ele>985.0</ele><time>2026-04-29T14:15:34.945Z</time></trkpt><trkpt lat="37.0851253" lon="22.2357556"><ele>985.0</ele><time>2026-04-29T14:15:35.945Z</time></trkpt><trkpt lat="37.0850394" lon="22.2356641"><ele>985.0</ele><time>2026-04-29T14:15:36.945Z</time></trkpt><trkpt lat="37.0849848" lon="22.2355698"><ele>981.6666666666666</ele><time>2026-04-29T14:15:37.945Z</time></trkpt><trkpt lat="37.0849709" lon="22.2354596"><ele>978.3333333333333</ele><time>2026-04-29T14:15:38.946Z</time></trkpt><trkpt lat="37.0849768" lon="22.2353727"><ele>975.0</ele><time>2026-04-29T14:15:39.943Z</time></trkpt><trkpt lat="37.0850177" lon="22.2353056"><ele>971.6666666666667</ele><time>2026-04-29T14:15:40.945Z</time></trkpt><trkpt lat="37.0850711" lon="22.2352581"><ele>968.3333333333334</ele><time>2026-04-29T14:15:41.944Z</time></trkpt><trkpt lat="37.0851488" lon="22.2352474"><ele>965.0</ele><time>2026-04-29T14:15:42.945Z</time></trkpt><trkpt lat="37.0852461" lon="22.2352675"><ele>965.0</ele><time>2026-04-29T14:15:43.946Z</time></trkpt><trkpt lat="37.0853996" lon="22.2353826"><ele>965.0</ele><time>2026-04-29T14:15:44.946Z</time></trkpt><trkpt lat="37.0855115" lon="22.2354691"><ele>965.0</ele><time>2026-04-29T14:15:45.945Z</time></trkpt><trkpt lat="37.0856338" lon="22.2355769"><ele>964.75</ele><time>2026-04-29T14:15:46.945Z</time></trkpt><trkpt lat="37.0857597" lon="22.2357278"><ele>964.5</ele><time>2026-04-29T14:15:47.946Z</time></trkpt><trkpt lat="37.0858523" lon="22.2358693"><ele>964.25</ele><time>2026-04-29T14:15:48.946Z</time></trkpt><trkpt lat="37.0859404" lon="22.2359833"><ele>964.0</ele><time>2026-04-29T14:15:49.945Z</time></trkpt><trkpt lat="37.0860208" lon="22.2360935"><ele>964.0</ele><time>2026-04-29T14:15:50.945Z</time></trkpt><trkpt lat="37.0860983" lon="22.2361973"><ele>964.0000000000001</ele><time>2026-04-29T14:15:51.945Z</time></trkpt><trkpt lat="37.0861701" lon="22.2363048"><ele>964.0000000000001</ele><time>2026-04-29T14:15:52.946Z</time></trkpt><trkpt lat="37.0862363" lon="22.2363972"><ele>964.0</ele><time>2026-04-29T14:15:53.946Z</time></trkpt><trkpt lat="37.0863018" lon="22.2364974"><ele>964.0</ele><time>2026-04-29T14:15:54.946Z</time></trkpt><trkpt lat="37.0863757" lon="22.2365938"><ele>961.5</ele><time>2026-04-29T14:15:55.946Z</time></trkpt><trkpt lat="37.0864524" lon="22.2366862"><ele>959.0</ele><time>2026-04-29T14:15:56.946Z</time></trkpt><trkpt lat="37.0865405" lon="22.2367743"><ele>956.5</ele><time>2026-04-29T14:15:57.946Z</time></trkpt><trkpt lat="37.0866313" lon="22.2368679"><ele>954.0</ele><time>2026-04-29T14:15:58.945Z</time></trkpt><trkpt lat="37.086726" lon="22.2369599"><ele>954.0</ele><time>2026-04-29T14:15:59.945Z</time></trkpt><trkpt lat="37.0868167" lon="22.2370609"><ele>954.0</ele><time>2026-04-29T14:16:00.944Z</time></trkpt><trkpt lat="37.086903" lon="22.2371629"><ele>954.0</ele><time>2026-04-29T14:16:01.943Z</time></trkpt><trkpt lat="37.0869856" lon="22.2372739"><ele>954.0</ele><time>2026-04-29T14:16:02.946Z</time></trkpt><trkpt lat="37.0870647" lon="22.2373951"><ele>956.5</ele><time>2026-04-29T14:16:03.946Z</time></trkpt><trkpt lat="37.0871467" lon="22.2375169"><ele>959.0</ele><time>2026-04-29T14:16:04.945Z</time></trkpt><trkpt lat="37.0872318" lon="22.2376503"><ele>961.5</ele><time>2026-04-29T14:16:05.946Z</time></trkpt><trkpt lat="37.0873195" lon="22.2377771"><ele>964.0</ele><time>2026-04-29T14:16:06.946Z</time></trkpt><trkpt lat="37.0874083" lon="22.2378976"><ele>960.0</ele><time>2026-04-29T14:16:07.946Z</time></trkpt><trkpt lat="37.0874993" lon="22.2380113"><ele>956.0</ele><time>2026-04-29T14:16:08.946Z</time></trkpt><trkpt lat="37.0876033" lon="22.2381157"><ele>952.0</ele><time>2026-04-29T14:16:09.945Z</time></trkpt><trkpt lat="37.0877218" lon="22.2382084"><ele>948.0</ele><time>2026-04-29T14:16:10.945Z</time></trkpt><trkpt lat="37.0878545" lon="22.2382829"><ele>946.75</ele><time>2026-04-29T14:16:11.945Z</time></trkpt><trkpt lat="37.0879919" lon="22.2383445"><ele>945.5</ele><time>2026-04-29T14:16:12.945Z</time></trkpt><trkpt lat="37.0881269" lon="22.2384001"><ele>944.25</ele><time>2026-04-29T14:16:13.946Z</time></trkpt><trkpt lat="37.088258" lon="22.2384525"><ele>943.0</ele><time>2026-04-29T14:16:14.946Z</time></trkpt><trkpt lat="37.0883876" lon="22.2384998"><ele>943.0</ele><time>2026-04-29T14:16:15.945Z</time></trkpt><trkpt lat="37.0885205" lon="22.2385335"><ele>943.0</ele><time>2026-04-29T14:16:16.946Z</time></trkpt><trkpt lat="37.0886587" lon="22.2385464"><ele>943.0</ele><time>2026-04-29T14:16:17.946Z</time></trkpt><trkpt lat="37.0887967" lon="22.2385107"><ele>943.0</ele><time>2026-04-29T14:16:18.945Z</time></trkpt><trkpt lat="37.0889315" lon="22.2384528"><ele>943.0</ele><time>2026-04-29T14:16:19.946Z</time></trkpt><trkpt lat="37.0890698" lon="22.2383635"><ele>943.0</ele><time>2026-04-29T14:16:20.945Z</time></trkpt><trkpt lat="37.0892023" lon="22.2382709"><ele>943.0</ele><time>2026-04-29T14:16:21.946Z</time></trkpt><trkpt lat="37.0893251" lon="22.2381789"><ele>940.2</ele><time>2026-04-29T14:16:22.945Z</time></trkpt><trkpt lat="37.0894341" lon="22.2380965"><ele>937.4</ele><time>2026-04-29T14:16:23.946Z</time></trkpt><trkpt lat="37.0895197" lon="22.2380155"><ele>934.6000000000001</ele><time>2026-04-29T14:16:24.945Z</time></trkpt><trkpt lat="37.089588" lon="22.2379256"><ele>931.8000000000001</ele><time>2026-04-29T14:16:25.946Z</time></trkpt><trkpt lat="37.089636" lon="22.2378162"><ele>929.0</ele><time>2026-04-29T14:16:26.946Z</time></trkpt><trkpt lat="37.0896227" lon="22.2376904"><ele>929.0</ele><time>2026-04-29T14:16:27.945Z</time></trkpt><trkpt lat="37.0895815" lon="22.2375762"><ele>929.0</ele><time>2026-04-29T14:16:28.946Z</time></trkpt><trkpt lat="37.0895072" lon="22.2374796"><ele>929.0</ele><time>2026-04-29T14:16:29.945Z</time></trkpt><trkpt lat="37.0894019" lon="22.2373913"><ele>929.0</ele><time>2026-04-29T14:16:30.945Z</time></trkpt><trkpt lat="37.089289" lon="22.2372972"><ele>924.6666666666667</ele><time>2026-04-29T14:16:31.945Z</time></trkpt><trkpt lat="37.0891659" lon="22.237197"><ele>920.3333333333333</ele><time>2026-04-29T14:16:32.946Z</time></trkpt><trkpt lat="37.0890401" lon="22.237096"><ele>916.0</ele><time>2026-04-29T14:16:33.945Z</time></trkpt><trkpt lat="37.0889092" lon="22.2369921"><ele>916.0</ele><time>2026-04-29T14:16:34.946Z</time></trkpt><trkpt lat="37.0887727" lon="22.2368942"><ele>916.0</ele><time>2026-04-29T14:16:35.946Z</time></trkpt><trkpt lat="37.0886324" lon="22.2368141"><ele>916.0</ele><time>2026-04-29T14:16:36.945Z</time></trkpt><trkpt lat="37.0884925" lon="22.2367495"><ele>916.0</ele><time>2026-04-29T14:16:37.945Z</time></trkpt><trkpt lat="37.0883546" lon="22.2366861"><ele>916.0</ele><time>2026-04-29T14:16:38.946Z</time></trkpt><trkpt lat="37.0882284" lon="22.236621"><ele>916.0</ele><time>2026-04-29T14:16:39.945Z</time></trkpt><trkpt lat="37.0881203" lon="22.2365433"><ele>916.0</ele><time>2026-04-29T14:16:40.945Z</time></trkpt><trkpt lat="37.0880216" lon="22.2364359"><ele>917.0</ele><time>2026-04-29T14:16:41.946Z</time></trkpt><trkpt lat="37.087981" lon="22.2362914"><ele>918.0</ele><time>2026-04-29T14:16:42.946Z</time></trkpt><trkpt lat="37.0879477" lon="22.2361499"><ele>919.0</ele><time>2026-04-29T14:16:43.945Z</time></trkpt><trkpt lat="37.0879541" lon="22.2359815"><ele>920.0</ele><time>2026-04-29T14:16:44.946Z</time></trkpt><trkpt lat="37.087967" lon="22.235825"><ele>920.0</ele><time>2026-04-29T14:16:45.946Z</time></trkpt><trkpt lat="37.0879572" lon="22.2356706"><ele>920.0</ele><time>2026-04-29T14:16:46.946Z</time></trkpt><trkpt lat="37.0879238" lon="22.2355136"><ele>920.0</ele><time>2026-04-29T14:16:47.945Z</time></trkpt><trkpt lat="37.0878703" lon="22.2353662"><ele>920.0</ele><time>2026-04-29T14:16:48.944Z</time></trkpt><trkpt lat="37.0877804" lon="22.235249"><ele>916.75</ele><time>2026-04-29T14:16:49.945Z</time></trkpt><trkpt lat="37.0876866" lon="22.2351285"><ele>913.5</ele><time>2026-04-29T14:16:50.945Z</time></trkpt><trkpt lat="37.087601" lon="22.2350201"><ele>910.25</ele><time>2026-04-29T14:16:51.946Z</time></trkpt><trkpt lat="37.0875211" lon="22.2349223"><ele>907.0</ele><time>2026-04-29T14:16:52.945Z</time></trkpt><trkpt lat="37.0874519" lon="22.2348333"><ele>907.2</ele><time>2026-04-29T14:16:53.946Z</time></trkpt><trkpt lat="37.0874113" lon="22.2347338"><ele>907.4000000000001</ele><time>2026-04-29T14:16:54.946Z</time></trkpt><trkpt lat="37.087391" lon="22.2346304"><ele>907.5999999999999</ele><time>2026-04-29T14:16:55.945Z</time></trkpt><trkpt lat="37.0873789" lon="22.2345279"><ele>907.8</ele><time>2026-04-29T14:16:56.943Z</time></trkpt><trkpt lat="37.0875409" lon="22.234523"><ele>908.0</ele><time>2026-04-29T14:16:57.945Z</time></trkpt><trkpt lat="37.0876498" lon="22.2345569"><ele>907.75</ele><time>2026-04-29T14:16:58.945Z</time></trkpt><trkpt lat="37.0877486" lon="22.2346479"><ele>907.5</ele><time>2026-04-29T14:16:59.945Z</time></trkpt><trkpt lat="37.0878351" lon="22.2347506"><ele>907.25</ele><time>2026-04-29T14:17:00.946Z</time></trkpt><trkpt lat="37.0879136" lon="22.2348636"><ele>907.0</ele><time>2026-04-29T14:17:01.945Z</time></trkpt><trkpt lat="37.0879881" lon="22.2349983"><ele>907.0</ele><time>2026-04-29T14:17:02.946Z</time></trkpt><trkpt lat="37.0880665" lon="22.235141"><ele>907.0</ele><time>2026-04-29T14:17:03.943Z</time></trkpt><trkpt lat="37.0881354" lon="22.2352989"><ele>907.0</ele><time>2026-04-29T14:17:04.945Z</time></trkpt><trkpt lat="37.0881937" lon="22.2354553"><ele>907.0</ele><time>2026-04-29T14:17:05.945Z</time></trkpt><trkpt lat="37.0882543" lon="22.2356145"><ele>903.5</ele><time>2026-04-29T14:17:06.945Z</time></trkpt><trkpt lat="37.0883067" lon="22.2357791"><ele>900.0</ele><time>2026-04-29T14:17:07.946Z</time></trkpt><trkpt lat="37.0883803" lon="22.2358998"><ele>896.5</ele><time>2026-04-29T14:17:08.943Z</time></trkpt><trkpt lat="37.0884714" lon="22.2359964"><ele>893.0</ele><time>2026-04-29T14:17:09.945Z</time></trkpt><trkpt lat="37.0885844" lon="22.2360684"><ele>893.0</ele><time>2026-04-29T14:17:10.945Z</time></trkpt><trkpt lat="37.0887405" lon="22.2361064"><ele>893.0</ele><time>2026-04-29T14:17:11.942Z</time></trkpt><trkpt lat="37.0888924" lon="22.2361551"><ele>893.0</ele><time>2026-04-29T14:17:12.945Z</time></trkpt><trkpt lat="37.089068" lon="22.2361634"><ele>887.0</ele><time>2026-04-29T14:17:13.946Z</time></trkpt><trkpt lat="37.0892341" lon="22.2361854"><ele>881.0</ele><time>2026-04-29T14:17:14.945Z</time></trkpt><trkpt lat="37.0894032" lon="22.2362113"><ele>875.0</ele><time>2026-04-29T14:17:15.945Z</time></trkpt><trkpt lat="37.0895748" lon="22.2362442"><ele>875.0</ele><time>2026-04-29T14:17:16.944Z</time></trkpt><trkpt lat="37.0897373" lon="22.2362622"><ele>875.0</ele><time>2026-04-29T14:17:17.946Z</time></trkpt><trkpt lat="37.0898987" lon="22.2362843"><ele>875.0</ele><time>2026-04-29T14:17:18.945Z</time></trkpt><trkpt lat="37.0900556" lon="22.2363075"><ele>870.0</ele><time>2026-04-29T14:17:19.945Z</time></trkpt><trkpt lat="37.0902021" lon="22.2363592"><ele>865.0</ele><time>2026-04-29T14:17:20.945Z</time></trkpt><trkpt lat="37.0903467" lon="22.2364363"><ele>860.0</ele><time>2026-04-29T14:17:21.946Z</time></trkpt><trkpt lat="37.0905146" lon="22.2365167"><ele>863.6666666666667</ele><time>2026-04-29T14:17:22.946Z</time></trkpt><trkpt lat="37.0906841" lon="22.2366213"><ele>867.3333333333333</ele><time>2026-04-29T14:17:23.944Z</time></trkpt><trkpt lat="37.0908475" lon="22.2367166"><ele>871.0</ele><time>2026-04-29T14:17:24.946Z</time></trkpt><trkpt lat="37.0910066" lon="22.2368305"><ele>871.0</ele><time>2026-04-29T14:17:25.945Z</time></trkpt><trkpt lat="37.0911498" lon="22.2369352"><ele>871.0</ele><time>2026-04-29T14:17:26.944Z</time></trkpt><trkpt lat="37.0912747" lon="22.2370547"><ele>871.0</ele><time>2026-04-29T14:17:27.945Z</time></trkpt><trkpt lat="37.0913729" lon="22.2371559"><ele>871.0</ele><time>2026-04-29T14:17:28.945Z</time></trkpt><trkpt lat="37.0914745" lon="22.237272"><ele>870.9999999999999</ele><time>2026-04-29T14:17:29.945Z</time></trkpt><trkpt lat="37.0915549" lon="22.2373777"><ele>870.9999999999999</ele><time>2026-04-29T14:17:30.946Z</time></trkpt><trkpt lat="37.0916393" lon="22.2374479"><ele>871.0</ele><time>2026-04-29T14:17:31.945Z</time></trkpt><trkpt lat="37.0917181" lon="22.2374843"><ele>871.0</ele><time>2026-04-29T14:17:32.946Z</time></trkpt><trkpt lat="37.091798" lon="22.2374637"><ele>869.3333333333333</ele><time>2026-04-29T14:17:33.946Z</time></trkpt><trkpt lat="37.0918609" lon="22.2374406"><ele>867.6666666666666</ele><time>2026-04-29T14:17:34.945Z</time></trkpt><trkpt lat="37.0919128" lon="22.2373656"><ele>866.0</ele><time>2026-04-29T14:17:35.946Z</time></trkpt><trkpt lat="37.0919421" lon="22.2372519"><ele>864.3333333333333</ele><time>2026-04-29T14:17:36.943Z</time></trkpt><trkpt lat="37.0919263" lon="22.237145"><ele>862.6666666666666</ele><time>2026-04-29T14:17:37.945Z</time></trkpt><trkpt lat="37.0918725" lon="22.2370397"><ele>861.0</ele><time>2026-04-29T14:17:38.945Z</time></trkpt><trkpt lat="37.0917719" lon="22.2369409"><ele>858.75</ele><time>2026-04-29T14:17:39.946Z</time></trkpt><trkpt lat="37.0916638" lon="22.2368397"><ele>856.5</ele><time>2026-04-29T14:17:40.945Z</time></trkpt><trkpt lat="37.0915424" lon="22.236731"><ele>854.25</ele><time>2026-04-29T14:17:41.945Z</time></trkpt><trkpt lat="37.0914129" lon="22.236616"><ele>852.0</ele><time>2026-04-29T14:17:42.945Z</time></trkpt><trkpt lat="37.0912846" lon="22.2365008"><ele>849.0</ele><time>2026-04-29T14:17:43.946Z</time></trkpt><trkpt lat="37.0911529" lon="22.2363899"><ele>846.0</ele><time>2026-04-29T14:17:44.945Z</time></trkpt><trkpt lat="37.0910201" lon="22.2362755"><ele>843.0</ele><time>2026-04-29T14:17:45.945Z</time></trkpt><trkpt lat="37.090884" lon="22.2361621"><ele>848.6666666666667</ele><time>2026-04-29T14:17:46.946Z</time></trkpt><trkpt lat="37.090755" lon="22.2360508"><ele>854.3333333333334</ele><time>2026-04-29T14:17:47.946Z</time></trkpt><trkpt lat="37.0906215" lon="22.2359561"><ele>860.0</ele><time>2026-04-29T14:17:48.946Z</time></trkpt><trkpt lat="37.0904886" lon="22.235869"><ele>860.0</ele><time>2026-04-29T14:17:49.944Z</time></trkpt><trkpt lat="37.0903547" lon="22.235771"><ele>860.0</ele><time>2026-04-29T14:17:50.945Z</time></trkpt><trkpt lat="37.0902432" lon="22.2356508"><ele>860.0</ele><time>2026-04-29T14:17:51.946Z</time></trkpt><trkpt lat="37.090143" lon="22.2355051"><ele>859.75</ele><time>2026-04-29T14:17:52.945Z</time></trkpt><trkpt lat="37.0900581" lon="22.2353365"><ele>859.5</ele><time>2026-04-29T14:17:53.945Z</time></trkpt><trkpt lat="37.0899965" lon="22.235173"><ele>859.25</ele><time>2026-04-29T14:17:54.945Z</time></trkpt><trkpt lat="37.0899421" lon="22.2350203"><ele>859.0</ele><time>2026-04-29T14:17:55.946Z</time></trkpt><trkpt lat="37.0898395" lon="22.2348968"><ele>854.25</ele><time>2026-04-29T14:17:56.946Z</time></trkpt><trkpt lat="37.0897008" lon="22.2348036"><ele>849.5</ele><time>2026-04-29T14:17:57.945Z</time></trkpt><trkpt lat="37.0895976" lon="22.2347183"><ele>844.75</ele><time>2026-04-29T14:17:58.945Z</time></trkpt><trkpt lat="37.0895114" lon="22.2346477"><ele>840.0</ele><time>2026-04-29T14:17:59.946Z</time></trkpt><trkpt lat="37.0894472" lon="22.2345773"><ele>840.0</ele><time>2026-04-29T14:18:00.946Z</time></trkpt><trkpt lat="37.0894154" lon="22.2344837"><ele>840.0</ele><time>2026-04-29T14:18:01.944Z</time></trkpt><trkpt lat="37.0894168" lon="22.2343925"><ele>840.0</ele><time>2026-04-29T14:18:02.946Z</time></trkpt><trkpt lat="37.0894647" lon="22.2343406"><ele>840.0</ele><time>2026-04-29T14:18:03.946Z</time></trkpt><trkpt lat="37.0895469" lon="22.2343277"><ele>840.0</ele><time>2026-04-29T14:18:04.945Z</time></trkpt><trkpt lat="37.0896444" lon="22.234331"><ele>840.0</ele><time>2026-04-29T14:18:05.946Z</time></trkpt><trkpt lat="37.0897419" lon="22.2344688"><ele>840.0</ele><time>2026-04-29T14:18:06.944Z</time></trkpt><trkpt lat="37.0898482" lon="22.2345556"><ele>840.0</ele><time>2026-04-29T14:18:07.946Z</time></trkpt><trkpt lat="37.0899595" lon="22.2346739"><ele>840.0</ele><time>2026-04-29T14:18:08.945Z</time></trkpt><trkpt lat="37.0900582" lon="22.2347879"><ele>840.0</ele><time>2026-04-29T14:18:09.945Z</time></trkpt><trkpt lat="37.0901547" lon="22.2348925"><ele>840.0</ele><time>2026-04-29T14:18:10.946Z</time></trkpt><trkpt lat="37.0902367" lon="22.2349807"><ele>840.0</ele><time>2026-04-29T14:18:11.946Z</time></trkpt><trkpt lat="37.0903087" lon="22.2350647"><ele>840.0</ele><time>2026-04-29T14:18:12.944Z</time></trkpt><trkpt lat="37.0903619" lon="22.2351307"><ele>840.0</ele><time>2026-04-29T14:18:13.944Z</time></trkpt><trkpt lat="37.0904148" lon="22.2351949"><ele>840.0</ele><time>2026-04-29T14:18:14.945Z</time></trkpt><trkpt lat="37.0904652" lon="22.235247"><ele>840.0</ele><time>2026-04-29T14:18:15.943Z</time></trkpt><trkpt lat="37.090523" lon="22.2353063"><ele>840.0</ele><time>2026-04-29T14:18:16.946Z</time></trkpt><trkpt lat="37.0905869" lon="22.2353616"><ele>840.0</ele><time>2026-04-29T14:18:17.945Z</time></trkpt><trkpt lat="37.0906652" lon="22.2354081"><ele>840.0</ele><time>2026-04-29T14:18:18.946Z</time></trkpt><trkpt lat="37.0907447" lon="22.2354627"><ele>840.0</ele><time>2026-04-29T14:18:19.942Z</time></trkpt><trkpt lat="37.0908354" lon="22.2355185"><ele>840.0</ele><time>2026-04-29T14:18:20.944Z</time></trkpt><trkpt lat="37.0909499" lon="22.2355688"><ele>840.75</ele><time>2026-04-29T14:18:21.946Z</time></trkpt><trkpt lat="37.0910655" lon="22.2356262"><ele>841.5</ele><time>2026-04-29T14:18:22.945Z</time></trkpt><trkpt lat="37.0911973" lon="22.235691"><ele>842.25</ele><time>2026-04-29T14:18:23.944Z</time></trkpt><trkpt lat="37.0913253" lon="22.2357586"><ele>843.0</ele><time>2026-04-29T14:18:24.945Z</time></trkpt><trkpt lat="37.0914612" lon="22.23581"><ele>843.0</ele><time>2026-04-29T14:18:25.943Z</time></trkpt><trkpt lat="37.0915847" lon="22.2358654"><ele>843.0</ele><time>2026-04-29T14:18:26.946Z</time></trkpt><trkpt lat="37.0917084" lon="22.2358956"><ele>843.0</ele><time>2026-04-29T14:18:27.946Z</time></trkpt><trkpt lat="37.0918359" lon="22.235898"><ele>843.0</ele><time>2026-04-29T14:18:28.946Z</time></trkpt><trkpt lat="37.0919694" lon="22.2358633"><ele>837.6666666666667</ele><time>2026-04-29T14:18:29.946Z</time></trkpt><trkpt lat="37.0921089" lon="22.2358091"><ele>832.3333333333334</ele><time>2026-04-29T14:18:30.946Z</time></trkpt><trkpt lat="37.0922543" lon="22.2357484"><ele>827.0</ele><time>2026-04-29T14:18:31.945Z</time></trkpt><trkpt lat="37.0924156" lon="22.2356852"><ele>818.3333333333334</ele><time>2026-04-29T14:18:32.946Z</time></trkpt><trkpt lat="37.0925755" lon="22.2356189"><ele>809.6666666666667</ele><time>2026-04-29T14:18:33.946Z</time></trkpt><trkpt lat="37.092741" lon="22.2355595"><ele>801.0</ele><time>2026-04-29T14:18:34.946Z</time></trkpt><trkpt lat="37.0929194" lon="22.2355074"><ele>801.0</ele><time>2026-04-29T14:18:35.943Z</time></trkpt><trkpt lat="37.0930974" lon="22.2354585"><ele>801.0</ele><time>2026-04-29T14:18:36.945Z</time></trkpt><trkpt lat="37.0932804" lon="22.2354117"><ele>801.0</ele><time>2026-04-29T14:18:37.946Z</time></trkpt><trkpt lat="37.0934634" lon="22.2353597"><ele>801.3333333333333</ele><time>2026-04-29T14:18:38.945Z</time></trkpt><trkpt lat="37.0936481" lon="22.2353112"><ele>801.6666666666666</ele><time>2026-04-29T14:18:39.944Z</time></trkpt><trkpt lat="37.093833" lon="22.2352747"><ele>802.0</ele><time>2026-04-29T14:18:40.942Z</time></trkpt><trkpt lat="37.0940157" lon="22.2352289"><ele>801.6666666666666</ele><time>2026-04-29T14:18:41.945Z</time></trkpt><trkpt lat="37.0942015" lon="22.2351887"><ele>801.3333333333333</ele><time>2026-04-29T14:18:42.945Z</time></trkpt><trkpt lat="37.0943794" lon="22.23515"><ele>801.0</ele><time>2026-04-29T14:18:43.944Z</time></trkpt><trkpt lat="37.094553" lon="22.2351191"><ele>801.0</ele><time>2026-04-29T14:18:44.946Z</time></trkpt><trkpt lat="37.0947246" lon="22.235083"><ele>801.0</ele><time>2026-04-29T14:18:45.946Z</time></trkpt><trkpt lat="37.0948865" lon="22.2350605"><ele>801.0</ele><time>2026-04-29T14:18:46.944Z</time></trkpt><trkpt lat="37.0950309" lon="22.2350542"><ele>800.5</ele><time>2026-04-29T14:18:47.946Z</time></trkpt><trkpt lat="37.0951668" lon="22.2350797"><ele>800.0</ele><time>2026-04-29T14:18:48.945Z</time></trkpt><trkpt lat="37.0952958" lon="22.2351332"><ele>799.5</ele><time>2026-04-29T14:18:49.945Z</time></trkpt><trkpt lat="37.0954083" lon="22.2352326"><ele>799.0</ele><time>2026-04-29T14:18:50.945Z</time></trkpt><trkpt lat="37.0955223" lon="22.2353375"><ele>799.0</ele><time>2026-04-29T14:18:51.945Z</time></trkpt><trkpt lat="37.0956239" lon="22.2354617"><ele>799.0</ele><time>2026-04-29T14:18:52.945Z</time></trkpt><trkpt lat="37.0957088" lon="22.2355899"><ele>799.0</ele><time>2026-04-29T14:18:53.943Z</time></trkpt><trkpt lat="37.0957757" lon="22.2357346"><ele>799.0</ele><time>2026-04-29T14:18:54.945Z</time></trkpt><trkpt lat="37.0958215" lon="22.2358942"><ele>798.0</ele><time>2026-04-29T14:18:55.945Z</time></trkpt><trkpt lat="37.0958545" lon="22.236046"><ele>797.0</ele><time>2026-04-29T14:18:56.946Z</time></trkpt><trkpt lat="37.0958877" lon="22.2362037"><ele>796.0</ele><time>2026-04-29T14:18:57.946Z</time></trkpt><trkpt lat="37.0959153" lon="22.2363243"><ele>795.0</ele><time>2026-04-29T14:18:58.945Z</time></trkpt><trkpt lat="37.0959543" lon="22.2364289"><ele>794.0</ele><time>2026-04-29T14:18:59.946Z</time></trkpt><trkpt lat="37.0960276" lon="22.2364873"><ele>794.0000000000001</ele><time>2026-04-29T14:19:00.945Z</time></trkpt><trkpt lat="37.0961114" lon="22.2365135"><ele>794.0</ele><time>2026-04-29T14:19:01.945Z</time></trkpt><trkpt lat="37.0961922" lon="22.2365112"><ele>794.0</ele><time>2026-04-29T14:19:02.945Z</time></trkpt><trkpt lat="37.0962615" lon="22.2364757"><ele>794.0</ele><time>2026-04-29T14:19:03.945Z</time></trkpt><trkpt lat="37.096327" lon="22.2363905"><ele>794.0000000000001</ele><time>2026-04-29T14:19:04.946Z</time></trkpt><trkpt lat="37.0963744" lon="22.2362752"><ele>794.0</ele><time>2026-04-29T14:19:05.946Z</time></trkpt><trkpt lat="37.0964069" lon="22.2361311"><ele>794.0</ele><time>2026-04-29T14:19:06.945Z</time></trkpt><trkpt lat="37.0964432" lon="22.235977"><ele>794.0</ele><time>2026-04-29T14:19:07.944Z</time></trkpt><trkpt lat="37.0964774" lon="22.2358212"><ele>794.0</ele><time>2026-04-29T14:19:08.945Z</time></trkpt><trkpt lat="37.0965006" lon="22.2356426"><ele>794.0</ele><time>2026-04-29T14:19:09.945Z</time></trkpt><trkpt lat="37.0965096" lon="22.2354584"><ele>792.3333333333334</ele><time>2026-04-29T14:19:10.946Z</time></trkpt><trkpt lat="37.0965048" lon="22.2352639"><ele>790.6666666666667</ele><time>2026-04-29T14:19:11.945Z</time></trkpt><trkpt lat="37.0964873" lon="22.2350621"><ele>789.0</ele><time>2026-04-29T14:19:12.945Z</time></trkpt><trkpt lat="37.0964639" lon="22.2348611"><ele>787.0</ele><time>2026-04-29T14:19:13.945Z</time></trkpt><trkpt lat="37.096438" lon="22.2346661"><ele>785.0</ele><time>2026-04-29T14:19:14.946Z</time></trkpt><trkpt lat="37.0964125" lon="22.2344757"><ele>783.0</ele><time>2026-04-29T14:19:15.945Z</time></trkpt><trkpt lat="37.0963864" lon="22.234294"><ele>783.0</ele><time>2026-04-29T14:19:16.946Z</time></trkpt><trkpt lat="37.0963583" lon="22.2341149"><ele>783.0</ele><time>2026-04-29T14:19:17.945Z</time></trkpt><trkpt lat="37.0963427" lon="22.2339526"><ele>783.0</ele><time>2026-04-29T14:19:18.946Z</time></trkpt><trkpt lat="37.0963213" lon="22.2338048"><ele>783.0</ele><time>2026-04-29T14:19:19.945Z</time></trkpt><trkpt lat="37.0962908" lon="22.2336654"><ele>779.75</ele><time>2026-04-29T14:19:20.945Z</time></trkpt><trkpt lat="37.0962381" lon="22.2335447"><ele>776.5</ele><time>2026-04-29T14:19:21.945Z</time></trkpt><trkpt lat="37.096124" lon="22.2334411"><ele>773.25</ele><time>2026-04-29T14:19:22.946Z</time></trkpt><trkpt lat="37.096009" lon="22.2333717"><ele>770.0</ele><time>2026-04-29T14:19:23.945Z</time></trkpt><trkpt lat="37.0958811" lon="22.2333024"><ele>769.75</ele><time>2026-04-29T14:19:24.946Z</time></trkpt><trkpt lat="37.095746" lon="22.2332472"><ele>769.5</ele><time>2026-04-29T14:19:25.943Z</time></trkpt><trkpt lat="37.0956141" lon="22.2332081"><ele>769.25</ele><time>2026-04-29T14:19:26.945Z</time></trkpt><trkpt lat="37.0954802" lon="22.2331911"><ele>769.0</ele><time>2026-04-29T14:19:27.943Z</time></trkpt><trkpt lat="37.0953427" lon="22.2331933"><ele>769.0</ele><time>2026-04-29T14:19:28.946Z</time></trkpt><trkpt lat="37.0952064" lon="22.2331979"><ele>769.0</ele><time>2026-04-29T14:19:29.945Z</time></trkpt><trkpt lat="37.095069" lon="22.233205"><ele>769.0</ele><time>2026-04-29T14:19:30.946Z</time></trkpt><trkpt lat="37.0949286" lon="22.2332158"><ele>769.0</ele><time>2026-04-29T14:19:31.946Z</time></trkpt><trkpt lat="37.0947851" lon="22.2332293"><ele>767.0</ele><time>2026-04-29T14:19:32.945Z</time></trkpt><trkpt lat="37.0946306" lon="22.233255"><ele>765.0</ele><time>2026-04-29T14:19:33.946Z</time></trkpt><trkpt lat="37.094479" lon="22.2332836"><ele>763.0</ele><time>2026-04-29T14:19:34.945Z</time></trkpt><trkpt lat="37.09433" lon="22.2333027"><ele>763.0</ele><time>2026-04-29T14:19:35.946Z</time></trkpt><trkpt lat="37.0941892" lon="22.2333343"><ele>763.0</ele><time>2026-04-29T14:19:36.946Z</time></trkpt><trkpt lat="37.0940391" lon="22.2333285"><ele>763.0</ele><time>2026-04-29T14:19:37.945Z</time></trkpt><trkpt lat="37.093904" lon="22.2332758"><ele>763.0</ele><time>2026-04-29T14:19:38.945Z</time></trkpt><trkpt lat="37.0937764" lon="22.2332133"><ele>763.0</ele><time>2026-04-29T14:19:39.943Z</time></trkpt><trkpt lat="37.0936404" lon="22.2331509"><ele>763.0</ele><time>2026-04-29T14:19:40.946Z</time></trkpt><trkpt lat="37.0934856" lon="22.23314"><ele>763.0</ele><time>2026-04-29T14:19:41.946Z</time></trkpt><trkpt lat="37.0933284" lon="22.2331097"><ele>764.6666666666667</ele><time>2026-04-29T14:19:42.944Z</time></trkpt><trkpt lat="37.0931745" lon="22.2330934"><ele>766.3333333333334</ele><time>2026-04-29T14:19:43.942Z</time></trkpt><trkpt lat="37.0930208" lon="22.2330788"><ele>768.0</ele><time>2026-04-29T14:19:44.945Z</time></trkpt><trkpt lat="37.0928749" lon="22.2330869"><ele>768.0</ele><time>2026-04-29T14:19:45.944Z</time></trkpt><trkpt lat="37.0927323" lon="22.233085"><ele>768.0</ele><time>2026-04-29T14:19:46.946Z</time></trkpt><trkpt lat="37.0926085" lon="22.2330839"><ele>768.0</ele><time>2026-04-29T14:19:47.944Z</time></trkpt><trkpt lat="37.0924966" lon="22.2330864"><ele>768.0</ele><time>2026-04-29T14:19:48.945Z</time></trkpt><trkpt lat="37.0923945" lon="22.2330742"><ele>771.8333333333334</ele><time>2026-04-29T14:19:49.943Z</time></trkpt><trkpt lat="37.0923078" lon="22.233061"><ele>775.6666666666667</ele><time>2026-04-29T14:19:50.943Z</time></trkpt><trkpt lat="37.0922427" lon="22.2330246"><ele>779.5</ele><time>2026-04-29T14:19:51.945Z</time></trkpt><trkpt lat="37.0922053" lon="22.2329588"><ele>783.3333333333334</ele><time>2026-04-29T14:19:52.944Z</time></trkpt><trkpt lat="37.0922212" lon="22.2328665"><ele>787.1666666666667</ele><time>2026-04-29T14:19:53.945Z</time></trkpt><trkpt lat="37.0922678" lon="22.2327847"><ele>791.0</ele><time>2026-04-29T14:19:54.945Z</time></trkpt><trkpt lat="37.0923523" lon="22.2327304"><ele>785.25</ele><time>2026-04-29T14:19:55.946Z</time></trkpt><trkpt lat="37.0924688" lon="22.2326885"><ele>779.5</ele><time>2026-04-29T14:19:56.944Z</time></trkpt><trkpt lat="37.0926068" lon="22.2326388"><ele>773.75</ele><time>2026-04-29T14:19:57.946Z</time></trkpt><trkpt lat="37.0927501" lon="22.2325837"><ele>768.0</ele><time>2026-04-29T14:19:58.943Z</time></trkpt><trkpt lat="37.0928923" lon="22.2325098"><ele>768.0</ele><time>2026-04-29T14:19:59.946Z</time></trkpt><trkpt lat="37.0930382" lon="22.2324299"><ele>768.0</ele><time>2026-04-29T14:20:00.942Z</time></trkpt><trkpt lat="37.0931834" lon="22.232336"><ele>768.0</ele><time>2026-04-29T14:20:01.945Z</time></trkpt><trkpt lat="37.0933236" lon="22.232215"><ele>767.6666666666666</ele><time>2026-04-29T14:20:02.945Z</time></trkpt><trkpt lat="37.093464" lon="22.2320783"><ele>767.3333333333333</ele><time>2026-04-29T14:20:03.945Z</time></trkpt><trkpt lat="37.0936036" lon="22.2319389"><ele>767.0</ele><time>2026-04-29T14:20:04.945Z</time></trkpt><trkpt lat="37.093743" lon="22.2317889"><ele>767.0</ele><time>2026-04-29T14:20:05.944Z</time></trkpt><trkpt lat="37.0938587" lon="22.2316155"><ele>767.0</ele><time>2026-04-29T14:20:06.943Z</time></trkpt><trkpt lat="37.0939815" lon="22.2314608"><ele>767.0</ele><time>2026-04-29T14:20:07.946Z</time></trkpt><trkpt lat="37.0940814" lon="22.2313363"><ele>761.25</ele><time>2026-04-29T14:20:08.946Z</time></trkpt><trkpt lat="37.0941922" lon="22.2312311"><ele>755.5</ele><time>2026-04-29T14:20:09.944Z</time></trkpt><trkpt lat="37.0943046" lon="22.2311473"><ele>749.75</ele><time>2026-04-29T14:20:10.946Z</time></trkpt><trkpt lat="37.0943913" lon="22.2310691"><ele>744.0</ele><time>2026-04-29T14:20:11.945Z</time></trkpt><trkpt lat="37.0944605" lon="22.230984"><ele>744.0</ele><time>2026-04-29T14:20:12.945Z</time></trkpt><trkpt lat="37.094507" lon="22.2308874"><ele>744.0</ele><time>2026-04-29T14:20:13.945Z</time></trkpt><trkpt lat="37.0945292" lon="22.2307744"><ele>744.0</ele><time>2026-04-29T14:20:14.945Z</time></trkpt><trkpt lat="37.0945234" lon="22.2306726"><ele>744.0</ele><time>2026-04-29T14:20:15.945Z</time></trkpt><trkpt lat="37.0944633" lon="22.2305112"><ele>744.0</ele><time>2026-04-29T14:20:16.945Z</time></trkpt><trkpt lat="37.0943456" lon="22.2303903"><ele>742.75</ele><time>2026-04-29T14:20:17.945Z</time></trkpt><trkpt lat="37.0942327" lon="22.2302854"><ele>741.5</ele><time>2026-04-29T14:20:18.946Z</time></trkpt><trkpt lat="37.0941299" lon="22.2302059"><ele>740.25</ele><time>2026-04-29T14:20:19.942Z</time></trkpt><trkpt lat="37.0939983" lon="22.2301581"><ele>739.0</ele><time>2026-04-29T14:20:20.944Z</time></trkpt><trkpt lat="37.0938958" lon="22.2301209"><ele>745.2</ele><time>2026-04-29T14:20:21.945Z</time></trkpt><trkpt lat="37.0938036" lon="22.2300674"><ele>751.4000000000001</ele><time>2026-04-29T14:20:22.944Z</time></trkpt><trkpt lat="37.0936978" lon="22.2300332"><ele>757.6</ele><time>2026-04-29T14:20:23.944Z</time></trkpt><trkpt lat="37.0936893" lon="22.2299473"><ele>763.8</ele><time>2026-04-29T14:20:24.946Z</time></trkpt><trkpt lat="37.093727" lon="22.2298716"><ele>770.0</ele><time>2026-04-29T14:20:25.945Z</time></trkpt><trkpt lat="37.0937916" lon="22.2297252"><ele>772.6666666666667</ele><time>2026-04-29T14:20:27.945Z</time></trkpt><trkpt lat="37.0939536" lon="22.22965"><ele>775.3333333333333</ele><time>2026-04-29T14:20:28.945Z</time></trkpt><trkpt lat="37.0940697" lon="22.2295895"><ele>778.0</ele><time>2026-04-29T14:20:29.945Z</time></trkpt><trkpt lat="37.094217" lon="22.2295289"><ele>772.75</ele><time>2026-04-29T14:20:30.943Z</time></trkpt><trkpt lat="37.0943344" lon="22.2295372"><ele>767.5</ele><time>2026-04-29T14:20:31.944Z</time></trkpt><trkpt lat="37.094434" lon="22.2295329"><ele>762.25</ele><time>2026-04-29T14:20:32.944Z</time></trkpt><trkpt lat="37.0945399" lon="22.2296083"><ele>757.0</ele><time>2026-04-29T14:20:33.944Z</time></trkpt><trkpt lat="37.0946778" lon="22.2296765"><ele>757.0</ele><time>2026-04-29T14:20:34.945Z</time></trkpt><trkpt lat="37.0948141" lon="22.229757"><ele>757.0</ele><time>2026-04-29T14:20:35.942Z</time></trkpt><trkpt lat="37.0949576" lon="22.2298317"><ele>757.0</ele><time>2026-04-29T14:20:36.946Z</time></trkpt><trkpt lat="37.0950986" lon="22.2298853"><ele>750.0</ele><time>2026-04-29T14:20:37.944Z</time></trkpt><trkpt lat="37.0952381" lon="22.2299122"><ele>743.0</ele><time>2026-04-29T14:20:38.944Z</time></trkpt><trkpt lat="37.0953682" lon="22.2299201"><ele>736.0</ele><time>2026-04-29T14:20:39.944Z</time></trkpt><trkpt lat="37.0954929" lon="22.229917"><ele>729.0</ele><time>2026-04-29T14:20:40.944Z</time></trkpt><trkpt lat="37.095625" lon="22.2298465"><ele>732.75</ele><time>2026-04-29T14:20:41.946Z</time></trkpt><trkpt lat="37.0957535" lon="22.2297828"><ele>736.5</ele><time>2026-04-29T14:20:42.944Z</time></trkpt><trkpt lat="37.0958987" lon="22.2297321"><ele>740.25</ele><time>2026-04-29T14:20:43.945Z</time></trkpt><trkpt lat="37.0960388" lon="22.2296957"><ele>744.0</ele><time>2026-04-29T14:20:44.943Z</time></trkpt><trkpt lat="37.0961727" lon="22.2296547"><ele>744.0</ele><time>2026-04-29T14:20:45.942Z</time></trkpt><trkpt lat="37.096297" lon="22.2295801"><ele>744.0</ele><time>2026-04-29T14:20:46.946Z</time></trkpt><trkpt lat="37.09641" lon="22.2294927"><ele>744.0</ele><time>2026-04-29T14:20:47.941Z</time></trkpt><trkpt lat="37.0964939" lon="22.2293517"><ele>744.0</ele><time>2026-04-29T14:20:48.945Z</time></trkpt><trkpt lat="37.0965517" lon="22.2292048"><ele>743.75</ele><time>2026-04-29T14:20:49.943Z</time></trkpt><trkpt lat="37.0966099" lon="22.2290558"><ele>743.5</ele><time>2026-04-29T14:20:50.944Z</time></trkpt><trkpt lat="37.0965696" lon="22.2289058"><ele>743.25</ele><time>2026-04-29T14:20:51.944Z</time></trkpt><trkpt lat="37.0965446" lon="22.2287748"><ele>743.0</ele><time>2026-04-29T14:20:52.944Z</time></trkpt><trkpt lat="37.096554" lon="22.2286579"><ele>743.0</ele><time>2026-04-29T14:20:53.943Z</time></trkpt><trkpt lat="37.0965673" lon="22.2285343"><ele>743.0</ele><time>2026-04-29T14:20:54.946Z</time></trkpt><trkpt lat="37.0966102" lon="22.2284585"><ele>743.0</ele><time>2026-04-29T14:20:55.944Z</time></trkpt><trkpt lat="37.0966878" lon="22.2284132"><ele>743.0</ele><time>2026-04-29T14:20:56.944Z</time></trkpt><trkpt lat="37.096826" lon="22.2285172"><ele>743.0</ele><time>2026-04-29T14:20:57.944Z</time></trkpt><trkpt lat="37.096997" lon="22.2286696"><ele>737.75</ele><time>2026-04-29T14:20:58.946Z</time></trkpt><trkpt lat="37.0971339" lon="22.2287477"><ele>732.5</ele><time>2026-04-29T14:20:59.945Z</time></trkpt><trkpt lat="37.0972852" lon="22.2288162"><ele>727.25</ele><time>2026-04-29T14:21:00.946Z</time></trkpt><trkpt lat="37.0973838" lon="22.2289053"><ele>722.0</ele><time>2026-04-29T14:21:01.943Z</time></trkpt><trkpt lat="37.0974871" lon="22.2290176"><ele>718.25</ele><time>2026-04-29T14:21:02.945Z</time></trkpt><trkpt lat="37.0975818" lon="22.229143"><ele>714.5</ele><time>2026-04-29T14:21:03.944Z</time></trkpt><trkpt lat="37.0976726" lon="22.2292734"><ele>710.75</ele><time>2026-04-29T14:21:04.945Z</time></trkpt><trkpt lat="37.0977529" lon="22.229422"><ele>707.0</ele><time>2026-04-29T14:21:05.945Z</time></trkpt><trkpt lat="37.0978246" lon="22.2295669"><ele>707.0</ele><time>2026-04-29T14:21:06.945Z</time></trkpt><trkpt lat="37.0978906" lon="22.2297123"><ele>707.0</ele><time>2026-04-29T14:21:07.945Z</time></trkpt><trkpt lat="37.0979298" lon="22.2298592"><ele>707.0</ele><time>2026-04-29T14:21:08.946Z</time></trkpt><trkpt lat="37.0979644" lon="22.2300107"><ele>707.0</ele><time>2026-04-29T14:21:09.943Z</time></trkpt><trkpt lat="37.0979978" lon="22.2301356"><ele>704.75</ele><time>2026-04-29T14:21:10.945Z</time></trkpt><trkpt lat="37.0980671" lon="22.2302608"><ele>702.5</ele><time>2026-04-29T14:21:11.946Z</time></trkpt><trkpt lat="37.0981537" lon="22.2303974"><ele>700.25</ele><time>2026-04-29T14:21:12.945Z</time></trkpt><trkpt lat="37.0982363" lon="22.2305205"><ele>698.0</ele><time>2026-04-29T14:21:13.944Z</time></trkpt><trkpt lat="37.0983213" lon="22.2306537"><ele>698.0</ele><time>2026-04-29T14:21:14.946Z</time></trkpt><trkpt lat="37.0984085" lon="22.2307804"><ele>698.0</ele><time>2026-04-29T14:21:15.942Z</time></trkpt><trkpt lat="37.0985005" lon="22.2309022"><ele>698.0</ele><time>2026-04-29T14:21:16.945Z</time></trkpt><trkpt lat="37.0986467" lon="22.2309521"><ele>698.0</ele><time>2026-04-29T14:21:17.945Z</time></trkpt><trkpt lat="37.0987908" lon="22.231019"><ele>698.0</ele><time>2026-04-29T14:21:18.944Z</time></trkpt><trkpt lat="37.0989407" lon="22.2310687"><ele>698.0</ele><time>2026-04-29T14:21:19.945Z</time></trkpt><trkpt lat="37.0990749" lon="22.2311167"><ele>698.0</ele><time>2026-04-29T14:21:20.945Z</time></trkpt><trkpt lat="37.09919" lon="22.2311406"><ele>698.0</ele><time>2026-04-29T14:21:21.945Z</time></trkpt><trkpt lat="37.0992885" lon="22.2311469"><ele>698.8</ele><time>2026-04-29T14:21:22.944Z</time></trkpt><trkpt lat="37.0993773" lon="22.2311173"><ele>699.5999999999999</ele><time>2026-04-29T14:21:23.943Z</time></trkpt><trkpt lat="37.0994595" lon="22.2310501"><ele>700.4000000000001</ele><time>2026-04-29T14:21:24.943Z</time></trkpt><trkpt lat="37.0995489" lon="22.2309609"><ele>701.2</ele><time>2026-04-29T14:21:25.943Z</time></trkpt><trkpt lat="37.0996531" lon="22.2308823"><ele>702.0</ele><time>2026-04-29T14:21:26.946Z</time></trkpt><trkpt lat="37.0997673" lon="22.2308511"><ele>702.0</ele><time>2026-04-29T14:21:27.943Z</time></trkpt><trkpt lat="37.0998941" lon="22.2308676"><ele>702.0</ele><time>2026-04-29T14:21:28.944Z</time></trkpt><trkpt lat="37.100047" lon="22.2309293"><ele>702.0</ele><time>2026-04-29T14:21:29.944Z</time></trkpt><trkpt lat="37.1002115" lon="22.2309953"><ele>701.0</ele><time>2026-04-29T14:21:30.943Z</time></trkpt><trkpt lat="37.1003793" lon="22.2310615"><ele>700.0</ele><time>2026-04-29T14:21:31.945Z</time></trkpt><trkpt lat="37.100545" lon="22.2310838"><ele>699.0</ele><time>2026-04-29T14:21:32.944Z</time></trkpt><trkpt lat="37.1006851" lon="22.2311153"><ele>698.75</ele><time>2026-04-29T14:21:33.944Z</time></trkpt><trkpt lat="37.1008233" lon="22.2311494"><ele>698.5</ele><time>2026-04-29T14:21:34.945Z</time></trkpt><trkpt lat="37.1009473" lon="22.2311729"><ele>698.25</ele><time>2026-04-29T14:21:35.945Z</time></trkpt><trkpt lat="37.1010652" lon="22.2311725"><ele>698.0</ele><time>2026-04-29T14:21:36.945Z</time></trkpt><trkpt lat="37.1011738" lon="22.2311252"><ele>698.0</ele><time>2026-04-29T14:21:37.945Z</time></trkpt><trkpt lat="37.1012633" lon="22.2310534"><ele>698.0</ele><time>2026-04-29T14:21:38.945Z</time></trkpt><trkpt lat="37.1013439" lon="22.2309615"><ele>698.0</ele><time>2026-04-29T14:21:39.943Z</time></trkpt><trkpt lat="37.1013962" lon="22.2308499"><ele>698.0</ele><time>2026-04-29T14:21:40.945Z</time></trkpt><trkpt lat="37.1014131" lon="22.2307227"><ele>698.0</ele><time>2026-04-29T14:21:41.946Z</time></trkpt><trkpt lat="37.1014101" lon="22.2306094"><ele>696.75</ele><time>2026-04-29T14:21:42.945Z</time></trkpt><trkpt lat="37.1013589" lon="22.2304742"><ele>695.5</ele><time>2026-04-29T14:21:43.946Z</time></trkpt><trkpt lat="37.1012457" lon="22.2303857"><ele>694.25</ele><time>2026-04-29T14:21:44.945Z</time></trkpt><trkpt lat="37.1011499" lon="22.2302926"><ele>693.0</ele><time>2026-04-29T14:21:45.943Z</time></trkpt><trkpt lat="37.1010527" lon="22.2302029"><ele>693.0</ele><time>2026-04-29T14:21:46.943Z</time></trkpt><trkpt lat="37.1009664" lon="22.2300983"><ele>693.0</ele><time>2026-04-29T14:21:47.945Z</time></trkpt><trkpt lat="37.1009055" lon="22.229984"><ele>693.0</ele><time>2026-04-29T14:21:48.945Z</time></trkpt><trkpt lat="37.1008509" lon="22.2298611"><ele>693.0</ele><time>2026-04-29T14:21:49.945Z</time></trkpt><trkpt lat="37.100812" lon="22.2297354"><ele>693.0</ele><time>2026-04-29T14:21:50.944Z</time></trkpt><trkpt lat="37.1007726" lon="22.2296167"><ele>692.0</ele><time>2026-04-29T14:21:51.945Z</time></trkpt><trkpt lat="37.1007307" lon="22.2295004"><ele>691.0</ele><time>2026-04-29T14:21:52.945Z</time></trkpt><trkpt lat="37.1006774" lon="22.2293944"><ele>690.0</ele><time>2026-04-29T14:21:53.944Z</time></trkpt><trkpt lat="37.1006274" lon="22.2293053"><ele>689.0</ele><time>2026-04-29T14:21:54.944Z</time></trkpt><trkpt lat="37.1005673" lon="22.229224"><ele>688.0</ele><time>2026-04-29T14:21:55.946Z</time></trkpt><trkpt lat="37.1004771" lon="22.2291627"><ele>688.0</ele><time>2026-04-29T14:21:56.944Z</time></trkpt><trkpt lat="37.1003971" lon="22.2291143"><ele>688.0</ele><time>2026-04-29T14:21:57.946Z</time></trkpt><trkpt lat="37.1002749" lon="22.2290863"><ele>688.0</ele><time>2026-04-29T14:21:58.945Z</time></trkpt><trkpt lat="37.1001254" lon="22.229077"><ele>688.0</ele><time>2026-04-29T14:21:59.944Z</time></trkpt><trkpt lat="37.0999666" lon="22.2290767"><ele>690.3333333333334</ele><time>2026-04-29T14:22:00.945Z</time></trkpt><trkpt lat="37.0997923" lon="22.22903"><ele>692.6666666666666</ele><time>2026-04-29T14:22:01.944Z</time></trkpt><trkpt lat="37.0996175" lon="22.2289651"><ele>695.0</ele><time>2026-04-29T14:22:02.944Z</time></trkpt><trkpt lat="37.0994486" lon="22.2288823"><ele>695.0</ele><time>2026-04-29T14:22:03.943Z</time></trkpt><trkpt lat="37.0992959" lon="22.228812"><ele>695.0</ele><time>2026-04-29T14:22:04.945Z</time></trkpt><trkpt lat="37.099148" lon="22.2287356"><ele>695.0</ele><time>2026-04-29T14:22:05.943Z</time></trkpt><trkpt lat="37.0990121" lon="22.2286686"><ele>695.0</ele><time>2026-04-29T14:22:06.945Z</time></trkpt><trkpt lat="37.098898" lon="22.2285975"><ele>695.0</ele><time>2026-04-29T14:22:07.944Z</time></trkpt><trkpt lat="37.0988024" lon="22.2284966"><ele>695.0</ele><time>2026-04-29T14:22:08.943Z</time></trkpt><trkpt lat="37.0987239" lon="22.2283646"><ele>695.0</ele><time>2026-04-29T14:22:09.944Z</time></trkpt><trkpt lat="37.09869" lon="22.2281949"><ele>691.5</ele><time>2026-04-29T14:22:10.944Z</time></trkpt><trkpt lat="37.0986481" lon="22.2280261"><ele>688.0</ele><time>2026-04-29T14:22:11.945Z</time></trkpt><trkpt lat="37.0986329" lon="22.2278395"><ele>684.5</ele><time>2026-04-29T14:22:12.945Z</time></trkpt><trkpt lat="37.0985897" lon="22.227667"><ele>681.0</ele><time>2026-04-29T14:22:13.945Z</time></trkpt><trkpt lat="37.0985475" lon="22.2275046"><ele>681.0</ele><time>2026-04-29T14:22:14.942Z</time></trkpt><trkpt lat="37.0984773" lon="22.2273601"><ele>681.0</ele><time>2026-04-29T14:22:15.943Z</time></trkpt><trkpt lat="37.0983787" lon="22.2272343"><ele>681.0</ele><time>2026-04-29T14:22:16.943Z</time></trkpt><trkpt lat="37.098297" lon="22.2271064"><ele>681.0</ele><time>2026-04-29T14:22:17.946Z</time></trkpt><trkpt lat="37.0981951" lon="22.2269883"><ele>684.1999999999999</ele><time>2026-04-29T14:22:18.944Z</time></trkpt><trkpt lat="37.0981363" lon="22.2268685"><ele>687.4</ele><time>2026-04-29T14:22:19.943Z</time></trkpt><trkpt lat="37.098107" lon="22.2267456"><ele>690.6</ele><time>2026-04-29T14:22:20.944Z</time></trkpt><trkpt lat="37.0981049" lon="22.2266147"><ele>693.8</ele><time>2026-04-29T14:22:21.944Z</time></trkpt><trkpt lat="37.0981141" lon="22.2264966"><ele>697.0</ele><time>2026-04-29T14:22:22.942Z</time></trkpt><trkpt lat="37.0981688" lon="22.2263854"><ele>693.75</ele><time>2026-04-29T14:22:23.945Z</time></trkpt><trkpt lat="37.0982554" lon="22.2263067"><ele>690.5</ele><time>2026-04-29T14:22:24.945Z</time></trkpt><trkpt lat="37.0983825" lon="22.226221"><ele>687.25</ele><time>2026-04-29T14:22:25.946Z</time></trkpt><trkpt lat="37.098534" lon="22.2261356"><ele>684.0</ele><time>2026-04-29T14:22:26.945Z</time></trkpt><trkpt lat="37.0986648" lon="22.2260563"><ele>684.0</ele><time>2026-04-29T14:22:27.946Z</time></trkpt><trkpt lat="37.098795" lon="22.2259702"><ele>684.0</ele><time>2026-04-29T14:22:28.946Z</time></trkpt><trkpt lat="37.0989148" lon="22.2258704"><ele>684.0</ele><time>2026-04-29T14:22:29.942Z</time></trkpt><trkpt lat="37.099021" lon="22.2257647"><ele>684.0</ele><time>2026-04-29T14:22:30.945Z</time></trkpt><trkpt lat="37.0991033" lon="22.2256558"><ele>680.75</ele><time>2026-04-29T14:22:31.946Z</time></trkpt><trkpt lat="37.0991442" lon="22.2255128"><ele>677.5</ele><time>2026-04-29T14:22:32.946Z</time></trkpt><trkpt lat="37.0991766" lon="22.2253575"><ele>674.25</ele><time>2026-04-29T14:22:33.942Z</time></trkpt><trkpt lat="37.0992019" lon="22.2251872"><ele>671.0</ele><time>2026-04-29T14:22:34.944Z</time></trkpt><trkpt lat="37.0992143" lon="22.2249939"><ele>669.0</ele><time>2026-04-29T14:22:35.944Z</time></trkpt><trkpt lat="37.0992321" lon="22.2248109"><ele>667.0</ele><time>2026-04-29T14:22:36.945Z</time></trkpt><trkpt lat="37.0992546" lon="22.2246142"><ele>665.0</ele><time>2026-04-29T14:22:37.943Z</time></trkpt><trkpt lat="37.0992772" lon="22.2244206"><ele>665.0</ele><time>2026-04-29T14:22:38.944Z</time></trkpt><trkpt lat="37.0992945" lon="22.2242342"><ele>665.0</ele><time>2026-04-29T14:22:39.944Z</time></trkpt><trkpt lat="37.0993165" lon="22.2240622"><ele>665.0</ele><time>2026-04-29T14:22:40.945Z</time></trkpt><trkpt lat="37.0993282" lon="22.2238957"><ele>665.0</ele><time>2026-04-29T14:22:41.942Z</time></trkpt><trkpt lat="37.0993195" lon="22.2237239"><ele>663.25</ele><time>2026-04-29T14:22:42.944Z</time></trkpt><trkpt lat="37.0992923" lon="22.2235528"><ele>661.5</ele><time>2026-04-29T14:22:43.946Z</time></trkpt><trkpt lat="37.0992358" lon="22.2233904"><ele>659.75</ele><time>2026-04-29T14:22:44.944Z</time></trkpt><trkpt lat="37.099138" lon="22.223245"><ele>658.0</ele><time>2026-04-29T14:22:45.94Z</time></trkpt><trkpt lat="37.0990562" lon="22.2231176"><ele>662.5</ele><time>2026-04-29T14:22:46.945Z</time></trkpt><trkpt lat="37.0989719" lon="22.2229895"><ele>667.0</ele><time>2026-04-29T14:22:47.942Z</time></trkpt><trkpt lat="37.098905" lon="22.2228516"><ele>671.5</ele><time>2026-04-29T14:22:48.942Z</time></trkpt><trkpt lat="37.0988488" lon="22.2227102"><ele>676.0</ele><time>2026-04-29T14:22:49.943Z</time></trkpt><trkpt lat="37.0988081" lon="22.2225647"><ele>676.0</ele><time>2026-04-29T14:22:50.945Z</time></trkpt><trkpt lat="37.0987963" lon="22.2223847"><ele>676.0</ele><time>2026-04-29T14:22:51.944Z</time></trkpt><trkpt lat="37.0987863" lon="22.2222156"><ele>676.0</ele><time>2026-04-29T14:22:52.942Z</time></trkpt><trkpt lat="37.0987912" lon="22.222047"><ele>676.0</ele><time>2026-04-29T14:22:53.944Z</time></trkpt><trkpt lat="37.0988403" lon="22.2218882"><ele>675.25</ele><time>2026-04-29T14:22:54.943Z</time></trkpt><trkpt lat="37.09891" lon="22.221757"><ele>674.5</ele><time>2026-04-29T14:22:55.945Z</time></trkpt><trkpt lat="37.0989918" lon="22.2216607"><ele>673.75</ele><time>2026-04-29T14:22:56.945Z</time></trkpt><trkpt lat="37.0991193" lon="22.2215979"><ele>673.0</ele><time>2026-04-29T14:22:57.945Z</time></trkpt><trkpt lat="37.0992376" lon="22.221542"><ele>672.0</ele><time>2026-04-29T14:22:58.943Z</time></trkpt><trkpt lat="37.0993493" lon="22.2214586"><ele>671.0</ele><time>2026-04-29T14:22:59.943Z</time></trkpt><trkpt lat="37.0994586" lon="22.2213537"><ele>670.0</ele><time>2026-04-29T14:23:00.946Z</time></trkpt><trkpt lat="37.0995563" lon="22.2212037"><ele>669.0</ele><time>2026-04-29T14:23:01.944Z</time></trkpt><trkpt lat="37.0996652" lon="22.221034"><ele>669.0</ele><time>2026-04-29T14:23:02.943Z</time></trkpt><trkpt lat="37.0997458" lon="22.2207792"><ele>669.0</ele><time>2026-04-29T14:23:03.941Z</time></trkpt><trkpt lat="37.0998211" lon="22.220591"><ele>669.0</ele><time>2026-04-29T14:23:04.944Z</time></trkpt><trkpt lat="37.099908" lon="22.2204433"><ele>668.75</ele><time>2026-04-29T14:23:05.944Z</time></trkpt><trkpt lat="37.1000112" lon="22.2203089"><ele>668.5</ele><time>2026-04-29T14:23:06.944Z</time></trkpt><trkpt lat="37.100116" lon="22.2201964"><ele>668.25</ele><time>2026-04-29T14:23:07.942Z</time></trkpt><trkpt lat="37.1002296" lon="22.2200941"><ele>668.0</ele><time>2026-04-29T14:23:08.943Z</time></trkpt><trkpt lat="37.1003752" lon="22.2200545"><ele>668.0</ele><time>2026-04-29T14:23:09.942Z</time></trkpt><trkpt lat="37.1005798" lon="22.220032"><ele>668.0</ele><time>2026-04-29T14:23:10.942Z</time></trkpt><trkpt lat="37.1008181" lon="22.2201151"><ele>665.6666666666666</ele><time>2026-04-29T14:23:11.945Z</time></trkpt><trkpt lat="37.100996" lon="22.2202263"><ele>663.3333333333334</ele><time>2026-04-29T14:23:12.943Z</time></trkpt><trkpt lat="37.1011868" lon="22.2202919"><ele>661.0</ele><time>2026-04-29T14:23:13.944Z</time></trkpt><trkpt lat="37.1013588" lon="22.2203553"><ele>661.0</ele><time>2026-04-29T14:23:14.943Z</time></trkpt><trkpt lat="37.1015283" lon="22.2203783"><ele>661.0</ele><time>2026-04-29T14:23:15.941Z</time></trkpt><trkpt lat="37.1016897" lon="22.2203681"><ele>661.0</ele><time>2026-04-29T14:23:16.944Z</time></trkpt><trkpt lat="37.1018378" lon="22.2203402"><ele>657.0</ele><time>2026-04-29T14:23:17.943Z</time></trkpt><trkpt lat="37.1019696" lon="22.2202849"><ele>653.0</ele><time>2026-04-29T14:23:18.944Z</time></trkpt><trkpt lat="37.1020741" lon="22.220198"><ele>649.0</ele><time>2026-04-29T14:23:19.944Z</time></trkpt><trkpt lat="37.1021547" lon="22.2200767"><ele>645.0</ele><time>2026-04-29T14:23:20.944Z</time></trkpt><trkpt lat="37.1022125" lon="22.2199353"><ele>651.6666666666666</ele><time>2026-04-29T14:23:21.944Z</time></trkpt><trkpt lat="37.102255" lon="22.2197435"><ele>658.3333333333333</ele><time>2026-04-29T14:23:22.946Z</time></trkpt><trkpt lat="37.102277" lon="22.2195281"><ele>665.0</ele><time>2026-04-29T14:23:23.946Z</time></trkpt><trkpt lat="37.1023023" lon="22.2193266"><ele>665.0</ele><time>2026-04-29T14:23:24.943Z</time></trkpt><trkpt lat="37.1022699" lon="22.2191317"><ele>665.0</ele><time>2026-04-29T14:23:25.944Z</time></trkpt><trkpt lat="37.1022908" lon="22.2189625"><ele>665.0</ele><time>2026-04-29T14:23:26.944Z</time></trkpt><trkpt lat="37.1023336" lon="22.2188617"><ele>665.0</ele><time>2026-04-29T14:23:27.941Z</time></trkpt><trkpt lat="37.1024089" lon="22.2187769"><ele>661.25</ele><time>2026-04-29T14:23:28.944Z</time></trkpt><trkpt lat="37.1024762" lon="22.2187146"><ele>657.5</ele><time>2026-04-29T14:23:29.943Z</time></trkpt><trkpt lat="37.1025687" lon="22.218734"><ele>653.75</ele><time>2026-04-29T14:23:30.943Z</time></trkpt><trkpt lat="37.1027147" lon="22.218873"><ele>650.0</ele><time>2026-04-29T14:23:31.946Z</time></trkpt><trkpt lat="37.1028378" lon="22.2189403"><ele>644.0</ele><time>2026-04-29T14:23:32.943Z</time></trkpt><trkpt lat="37.1029478" lon="22.2189847"><ele>638.0</ele><time>2026-04-29T14:23:33.941Z</time></trkpt><trkpt lat="37.1030659" lon="22.219013"><ele>632.0</ele><time>2026-04-29T14:23:34.94Z</time></trkpt><trkpt lat="37.1031785" lon="22.2190259"><ele>626.0</ele><time>2026-04-29T14:23:35.94Z</time></trkpt><trkpt lat="37.103284" lon="22.218998"><ele>627.5</ele><time>2026-04-29T14:23:36.943Z</time></trkpt><trkpt lat="37.1033725" lon="22.2189216"><ele>629.0</ele><time>2026-04-29T14:23:37.943Z</time></trkpt><trkpt lat="37.103443" lon="22.218813"><ele>630.5</ele><time>2026-04-29T14:23:38.943Z</time></trkpt><trkpt lat="37.1035027" lon="22.2186853"><ele>632.0</ele><time>2026-04-29T14:23:39.943Z</time></trkpt><trkpt lat="37.1035253" lon="22.2185408"><ele>632.0</ele><time>2026-04-29T14:23:40.945Z</time></trkpt><trkpt lat="37.1035503" lon="22.2184063"><ele>632.0</ele><time>2026-04-29T14:23:41.944Z</time></trkpt><trkpt lat="37.1035999" lon="22.218278"><ele>632.0</ele><time>2026-04-29T14:23:42.943Z</time></trkpt><trkpt lat="37.1036563" lon="22.2181744"><ele>632.0</ele><time>2026-04-29T14:23:43.945Z</time></trkpt><trkpt lat="37.1037303" lon="22.2180878"><ele>632.0</ele><time>2026-04-29T14:23:44.944Z</time></trkpt><trkpt lat="37.103836" lon="22.218036"><ele>634.0</ele><time>2026-04-29T14:23:45.941Z</time></trkpt><trkpt lat="37.1039599" lon="22.2179914"><ele>636.0</ele><time>2026-04-29T14:23:46.942Z</time></trkpt><trkpt lat="37.1040949" lon="22.2179729"><ele>638.0</ele><time>2026-04-29T14:23:47.943Z</time></trkpt><trkpt lat="37.104221" lon="22.2179674"><ele>640.0</ele><time>2026-04-29T14:23:48.944Z</time></trkpt><trkpt lat="37.1043473" lon="22.2179755"><ele>640.0</ele><time>2026-04-29T14:23:49.942Z</time></trkpt><trkpt lat="37.1044696" lon="22.2180104"><ele>640.0</ele><time>2026-04-29T14:23:50.943Z</time></trkpt><trkpt lat="37.1045906" lon="22.2180328"><ele>640.0</ele><time>2026-04-29T14:23:51.942Z</time></trkpt><trkpt lat="37.1047187" lon="22.2180621"><ele>640.0</ele><time>2026-04-29T14:23:52.943Z</time></trkpt><trkpt lat="37.1048502" lon="22.2180751"><ele>636.3333333333334</ele><time>2026-04-29T14:23:53.945Z</time></trkpt><trkpt lat="37.1049949" lon="22.2180998"><ele>632.6666666666666</ele><time>2026-04-29T14:23:54.946Z</time></trkpt><trkpt lat="37.1051555" lon="22.2180901"><ele>629.0</ele><time>2026-04-29T14:23:55.945Z</time></trkpt><trkpt lat="37.1053079" lon="22.2180884"><ele>629.0</ele><time>2026-04-29T14:23:56.943Z</time></trkpt><trkpt lat="37.1054523" lon="22.2180643"><ele>629.0</ele><time>2026-04-29T14:23:57.944Z</time></trkpt><trkpt lat="37.1055915" lon="22.2180361"><ele>629.0</ele><time>2026-04-29T14:23:58.944Z</time></trkpt><trkpt lat="37.1057177" lon="22.2180059"><ele>629.0</ele><time>2026-04-29T14:23:59.945Z</time></trkpt><trkpt lat="37.1058523" lon="22.2179339"><ele>625.75</ele><time>2026-04-29T14:24:00.943Z</time></trkpt><trkpt lat="37.1059685" lon="22.2178594"><ele>622.5</ele><time>2026-04-29T14:24:01.945Z</time></trkpt><trkpt lat="37.1060774" lon="22.2177861"><ele>619.25</ele><time>2026-04-29T14:24:02.943Z</time></trkpt><trkpt lat="37.1061879" lon="22.2177237"><ele>616.0</ele><time>2026-04-29T14:24:03.943Z</time></trkpt><trkpt lat="37.106301" lon="22.2177039"><ele>616.0</ele><time>2026-04-29T14:24:04.943Z</time></trkpt><trkpt lat="37.1064229" lon="22.2177322"><ele>616.0</ele><time>2026-04-29T14:24:05.943Z</time></trkpt><trkpt lat="37.1065548" lon="22.2177673"><ele>616.0</ele><time>2026-04-29T14:24:06.942Z</time></trkpt><trkpt lat="37.106645" lon="22.217863"><ele>616.0</ele><time>2026-04-29T14:24:07.945Z</time></trkpt><trkpt lat="37.1067529" lon="22.2179484"><ele>615.75</ele><time>2026-04-29T14:24:08.942Z</time></trkpt><trkpt lat="37.1068551" lon="22.2180272"><ele>615.5</ele><time>2026-04-29T14:24:09.945Z</time></trkpt><trkpt lat="37.1069742" lon="22.218067"><ele>615.25</ele><time>2026-04-29T14:24:10.945Z</time></trkpt><trkpt lat="37.1070921" lon="22.2180843"><ele>615.0</ele><time>2026-04-29T14:24:11.944Z</time></trkpt><trkpt lat="37.1072186" lon="22.2180584"><ele>615.0</ele><time>2026-04-29T14:24:12.943Z</time></trkpt><trkpt lat="37.1073423" lon="22.2180498"><ele>615.0</ele><time>2026-04-29T14:24:13.942Z</time></trkpt><trkpt lat="37.1074594" lon="22.2180048"><ele>615.0</ele><time>2026-04-29T14:24:14.941Z</time></trkpt><trkpt lat="37.1075615" lon="22.217944"><ele>615.0</ele><time>2026-04-29T14:24:15.941Z</time></trkpt><trkpt lat="37.107633" lon="22.2178673"><ele>610.0</ele><time>2026-04-29T14:24:16.943Z</time></trkpt><trkpt lat="37.1076936" lon="22.2177613"><ele>605.0</ele><time>2026-04-29T14:24:17.945Z</time></trkpt><trkpt lat="37.1077236" lon="22.2176457"><ele>600.0</ele><time>2026-04-29T14:24:18.944Z</time></trkpt><trkpt lat="37.107722" lon="22.2175104"><ele>595.0</ele><time>2026-04-29T14:24:19.946Z</time></trkpt><trkpt lat="37.1076999" lon="22.2173739"><ele>590.0</ele><time>2026-04-29T14:24:20.944Z</time></trkpt><trkpt lat="37.1076541" lon="22.2172293"><ele>585.75</ele><time>2026-04-29T14:24:21.945Z</time></trkpt><trkpt lat="37.1075788" lon="22.2170678"><ele>581.5</ele><time>2026-04-29T14:24:22.944Z</time></trkpt><trkpt lat="37.1074776" lon="22.2169352"><ele>577.25</ele><time>2026-04-29T14:24:23.943Z</time></trkpt><trkpt lat="37.1073977" lon="22.2167931"><ele>573.0</ele><time>2026-04-29T14:24:24.946Z</time></trkpt><trkpt lat="37.1073319" lon="22.2166423"><ele>584.5</ele><time>2026-04-29T14:24:25.943Z</time></trkpt><trkpt lat="37.1072747" lon="22.2164873"><ele>596.0</ele><time>2026-04-29T14:24:26.944Z</time></trkpt><trkpt lat="37.1072333" lon="22.2163468"><ele>607.5</ele><time>2026-04-29T14:24:27.946Z</time></trkpt><trkpt lat="37.1072204" lon="22.216203"><ele>619.0</ele><time>2026-04-29T14:24:28.945Z</time></trkpt><trkpt lat="37.1072271" lon="22.2160797"><ele>620.25</ele><time>2026-04-29T14:24:29.946Z</time></trkpt><trkpt lat="37.1072708" lon="22.2159547"><ele>621.5</ele><time>2026-04-29T14:24:30.944Z</time></trkpt><trkpt lat="37.1073954" lon="22.2158682"><ele>622.75</ele><time>2026-04-29T14:24:31.945Z</time></trkpt><trkpt lat="37.1075501" lon="22.2158004"><ele>624.0</ele><time>2026-04-29T14:24:32.945Z</time></trkpt><trkpt lat="37.1076881" lon="22.2157065"><ele>621.3333333333334</ele><time>2026-04-29T14:24:33.945Z</time></trkpt><trkpt lat="37.1078375" lon="22.2155959"><ele>618.6666666666667</ele><time>2026-04-29T14:24:34.942Z</time></trkpt><trkpt lat="37.107981" lon="22.2154822"><ele>616.0</ele><time>2026-04-29T14:24:35.945Z</time></trkpt><trkpt lat="37.1081149" lon="22.2153769"><ele>616.0</ele><time>2026-04-29T14:24:36.946Z</time></trkpt><trkpt lat="37.108243" lon="22.2152696"><ele>616.0</ele><time>2026-04-29T14:24:37.943Z</time></trkpt><trkpt lat="37.1083693" lon="22.2151605"><ele>616.0</ele><time>2026-04-29T14:24:38.944Z</time></trkpt><trkpt lat="37.1084889" lon="22.215065"><ele>616.0</ele><time>2026-04-29T14:24:39.945Z</time></trkpt><trkpt lat="37.1086102" lon="22.2149614"><ele>613.3333333333334</ele><time>2026-04-29T14:24:40.943Z</time></trkpt><trkpt lat="37.1087197" lon="22.2148316"><ele>610.6666666666666</ele><time>2026-04-29T14:24:41.945Z</time></trkpt><trkpt lat="37.1088116" lon="22.2146722"><ele>608.0</ele><time>2026-04-29T14:24:42.944Z</time></trkpt><trkpt lat="37.1088888" lon="22.2144909"><ele>608.0</ele><time>2026-04-29T14:24:43.945Z</time></trkpt><trkpt lat="37.1089629" lon="22.2143135"><ele>608.0</ele><time>2026-04-29T14:24:44.944Z</time></trkpt><trkpt lat="37.1090175" lon="22.2141466"><ele>608.0</ele><time>2026-04-29T14:24:45.941Z</time></trkpt><trkpt lat="37.1090682" lon="22.2139861"><ele>608.0</ele><time>2026-04-29T14:24:46.942Z</time></trkpt><trkpt lat="37.1091045" lon="22.2138359"><ele>600.75</ele><time>2026-04-29T14:24:47.944Z</time></trkpt><trkpt lat="37.1091414" lon="22.2136922"><ele>593.5</ele><time>2026-04-29T14:24:48.944Z</time></trkpt><trkpt lat="37.1091828" lon="22.2135574"><ele>586.25</ele><time>2026-04-29T14:24:49.942Z</time></trkpt><trkpt lat="37.1092569" lon="22.2134467"><ele>579.0</ele><time>2026-04-29T14:24:50.94Z</time></trkpt><trkpt lat="37.1093481" lon="22.21336"><ele>579.0</ele><time>2026-04-29T14:24:51.943Z</time></trkpt><trkpt lat="37.1094725" lon="22.2133265"><ele>579.0</ele><time>2026-04-29T14:24:52.945Z</time></trkpt><trkpt lat="37.1096196" lon="22.2133159"><ele>579.0</ele><time>2026-04-29T14:24:53.945Z</time></trkpt><trkpt lat="37.1097631" lon="22.2133051"><ele>579.0</ele><time>2026-04-29T14:24:54.945Z</time></trkpt><trkpt lat="37.1098848" lon="22.2133655"><ele>574.25</ele><time>2026-04-29T14:24:55.945Z</time></trkpt><trkpt lat="37.1100084" lon="22.2133846"><ele>569.5</ele><time>2026-04-29T14:24:56.945Z</time></trkpt><trkpt lat="37.1101224" lon="22.2134188"><ele>564.75</ele><time>2026-04-29T14:24:57.944Z</time></trkpt><trkpt lat="37.1102443" lon="22.2134381"><ele>560.0</ele><time>2026-04-29T14:24:58.946Z</time></trkpt><trkpt lat="37.1103745" lon="22.2134098"><ele>560.0</ele><time>2026-04-29T14:24:59.943Z</time></trkpt><trkpt lat="37.1105068" lon="22.2133419"><ele>560.0</ele><time>2026-04-29T14:25:00.942Z</time></trkpt><trkpt lat="37.1106368" lon="22.2132463"><ele>560.0</ele><time>2026-04-29T14:25:01.945Z</time></trkpt><trkpt lat="37.1107623" lon="22.2131365"><ele>560.0</ele><time>2026-04-29T14:25:02.946Z</time></trkpt><trkpt lat="37.1108902" lon="22.2129771"><ele>564.0</ele><time>2026-04-29T14:25:03.942Z</time></trkpt><trkpt lat="37.1110285" lon="22.2127504"><ele>568.0</ele><time>2026-04-29T14:25:04.945Z</time></trkpt><trkpt lat="37.1111738" lon="22.2125022"><ele>578.3333333333334</ele><time>2026-04-29T14:25:05.945Z</time></trkpt><trkpt lat="37.1113224" lon="22.2122814"><ele>588.6666666666666</ele><time>2026-04-29T14:25:06.946Z</time></trkpt><trkpt lat="37.1114504" lon="22.2120774"><ele>599.0</ele><time>2026-04-29T14:25:07.945Z</time></trkpt><trkpt lat="37.1115696" lon="22.2118775"><ele>589.0</ele><time>2026-04-29T14:25:08.945Z</time></trkpt><trkpt lat="37.1116618" lon="22.2116893"><ele>579.0</ele><time>2026-04-29T14:25:09.945Z</time></trkpt><trkpt lat="37.111744" lon="22.2114923"><ele>569.0</ele><time>2026-04-29T14:25:10.944Z</time></trkpt><trkpt lat="37.1118187" lon="22.2113075"><ele>569.0</ele><time>2026-04-29T14:25:11.943Z</time></trkpt><trkpt lat="37.1118889" lon="22.2111426"><ele>569.0</ele><time>2026-04-29T14:25:12.944Z</time></trkpt><trkpt lat="37.1119602" lon="22.2110071"><ele>569.0</ele><time>2026-04-29T14:25:13.946Z</time></trkpt><trkpt lat="37.1120536" lon="22.2109047"><ele>569.0</ele><time>2026-04-29T14:25:14.945Z</time></trkpt><trkpt lat="37.1121591" lon="22.2108007"><ele>569.0</ele><time>2026-04-29T14:25:15.943Z</time></trkpt><trkpt lat="37.1123247" lon="22.2107177"><ele>569.0</ele><time>2026-04-29T14:25:16.943Z</time></trkpt><trkpt lat="37.1124588" lon="22.2106062"><ele>569.0</ele><time>2026-04-29T14:25:17.944Z</time></trkpt><trkpt lat="37.11259" lon="22.2104839"><ele>566.6666666666666</ele><time>2026-04-29T14:25:18.946Z</time></trkpt><trkpt lat="37.1127234" lon="22.2103513"><ele>564.3333333333334</ele><time>2026-04-29T14:25:19.945Z</time></trkpt><trkpt lat="37.1128568" lon="22.2102115"><ele>562.0</ele><time>2026-04-29T14:25:20.943Z</time></trkpt><trkpt lat="37.1129793" lon="22.210074"><ele>562.0</ele><time>2026-04-29T14:25:21.946Z</time></trkpt><trkpt lat="37.1130964" lon="22.2099359"><ele>562.0</ele><time>2026-04-29T14:25:22.945Z</time></trkpt><trkpt lat="37.1132021" lon="22.2097979"><ele>562.0</ele><time>2026-04-29T14:25:23.944Z</time></trkpt><trkpt lat="37.1132967" lon="22.2096461"><ele>558.25</ele><time>2026-04-29T14:25:24.946Z</time></trkpt><trkpt lat="37.113379" lon="22.2094871"><ele>554.5</ele><time>2026-04-29T14:25:25.944Z</time></trkpt><trkpt lat="37.1134423" lon="22.2093208"><ele>550.75</ele><time>2026-04-29T14:25:26.946Z</time></trkpt><trkpt lat="37.1134999" lon="22.2091633"><ele>547.0</ele><time>2026-04-29T14:25:27.946Z</time></trkpt><trkpt lat="37.1135406" lon="22.2090134"><ele>552.6666666666667</ele><time>2026-04-29T14:25:28.946Z</time></trkpt><trkpt lat="37.1135819" lon="22.2088842"><ele>558.3333333333334</ele><time>2026-04-29T14:25:29.946Z</time></trkpt><trkpt lat="37.1136164" lon="22.2087807"><ele>564.0</ele><time>2026-04-29T14:25:30.945Z</time></trkpt><trkpt lat="37.1136566" lon="22.2087021"><ele>569.6666666666666</ele><time>2026-04-29T14:25:31.943Z</time></trkpt><trkpt lat="37.1137038" lon="22.2086457"><ele>575.3333333333333</ele><time>2026-04-29T14:25:32.945Z</time></trkpt><trkpt lat="37.1137694" lon="22.2086449"><ele>581.0</ele><time>2026-04-29T14:25:33.946Z</time></trkpt><trkpt lat="37.1138453" lon="22.2087245"><ele>581.0</ele><time>2026-04-29T14:25:35.944Z</time></trkpt><trkpt lat="37.1137796" lon="22.2089263"><ele>581.0</ele><time>2026-04-29T14:25:37.945Z</time></trkpt><trkpt lat="37.1136984" lon="22.2090496"><ele>581.0</ele><time>2026-04-29T14:25:38.945Z</time></trkpt><trkpt lat="37.1136063" lon="22.2091569"><ele>581.0</ele><time>2026-04-29T14:25:39.946Z</time></trkpt><trkpt lat="37.1135396" lon="22.2093019"><ele>572.5</ele><time>2026-04-29T14:25:40.945Z</time></trkpt><trkpt lat="37.1134753" lon="22.2094525"><ele>564.0</ele><time>2026-04-29T14:25:41.942Z</time></trkpt><trkpt lat="37.1134058" lon="22.2096035"><ele>555.5</ele><time>2026-04-29T14:25:42.941Z</time></trkpt><trkpt lat="37.1133387" lon="22.2097486"><ele>547.0</ele><time>2026-04-29T14:25:43.944Z</time></trkpt><trkpt lat="37.1132587" lon="22.209889"><ele>550.75</ele><time>2026-04-29T14:25:44.944Z</time></trkpt><trkpt lat="37.1131906" lon="22.210044"><ele>554.5</ele><time>2026-04-29T14:25:45.946Z</time></trkpt><trkpt lat="37.1131037" lon="22.2101875"><ele>558.25</ele><time>2026-04-29T14:25:46.943Z</time></trkpt><trkpt lat="37.1130079" lon="22.2103278"><ele>562.0</ele><time>2026-04-29T14:25:47.943Z</time></trkpt><trkpt lat="37.1129113" lon="22.2104697"><ele>562.0</ele><time>2026-04-29T14:25:48.945Z</time></trkpt><trkpt lat="37.1128129" lon="22.2106082"><ele>562.0</ele><time>2026-04-29T14:25:49.942Z</time></trkpt><trkpt lat="37.1127232" lon="22.2107528"><ele>562.0</ele><time>2026-04-29T14:25:50.942Z</time></trkpt><trkpt lat="37.1126167" lon="22.2108851"><ele>562.0</ele><time>2026-04-29T14:25:51.944Z</time></trkpt><trkpt lat="37.11251" lon="22.2110085"><ele>563.75</ele><time>2026-04-29T14:25:52.943Z</time></trkpt><trkpt lat="37.1124119" lon="22.211127"><ele>565.5</ele><time>2026-04-29T14:25:53.943Z</time></trkpt><trkpt lat="37.1123243" lon="22.2112515"><ele>567.25</ele><time>2026-04-29T14:25:54.943Z</time></trkpt><trkpt lat="37.1122436" lon="22.2113886"><ele>569.0</ele><time>2026-04-29T14:25:55.946Z</time></trkpt><trkpt lat="37.112176" lon="22.2115459"><ele>560.3333333333333</ele><time>2026-04-29T14:25:56.944Z</time></trkpt><trkpt lat="37.1121141" lon="22.2117233"><ele>551.6666666666666</ele><time>2026-04-29T14:25:57.942Z</time></trkpt><trkpt lat="37.1120496" lon="22.2118999"><ele>543.0</ele><time>2026-04-29T14:25:58.943Z</time></trkpt><trkpt lat="37.1119793" lon="22.2120837"><ele>543.0</ele><time>2026-04-29T14:25:59.944Z</time></trkpt><trkpt lat="37.1119065" lon="22.2122634"><ele>543.0</ele><time>2026-04-29T14:26:00.945Z</time></trkpt><trkpt lat="37.1118302" lon="22.2124479"><ele>543.0</ele><time>2026-04-29T14:26:01.945Z</time></trkpt><trkpt lat="37.1117488" lon="22.2126273"><ele>541.75</ele><time>2026-04-29T14:26:02.945Z</time></trkpt><trkpt lat="37.1116699" lon="22.2127925"><ele>540.5</ele><time>2026-04-29T14:26:03.946Z</time></trkpt><trkpt lat="37.1115976" lon="22.212949"><ele>539.25</ele><time>2026-04-29T14:26:04.945Z</time></trkpt><trkpt lat="37.1115218" lon="22.2130975"><ele>538.0</ele><time>2026-04-29T14:26:05.944Z</time></trkpt><trkpt lat="37.1114534" lon="22.2132475"><ele>538.0</ele><time>2026-04-29T14:26:06.945Z</time></trkpt><trkpt lat="37.111378" lon="22.2133974"><ele>538.0</ele><time>2026-04-29T14:26:07.945Z</time></trkpt><trkpt lat="37.1113043" lon="22.2135353"><ele>538.0</ele><time>2026-04-29T14:26:08.946Z</time></trkpt><trkpt lat="37.1112198" lon="22.2136548"><ele>538.0</ele><time>2026-04-29T14:26:09.943Z</time></trkpt><trkpt lat="37.1111156" lon="22.2137418"><ele>538.0</ele><time>2026-04-29T14:26:10.944Z</time></trkpt><trkpt lat="37.1110251" lon="22.2138301"><ele>538.0</ele><time>2026-04-29T14:26:11.946Z</time></trkpt><trkpt lat="37.1109632" lon="22.2139618"><ele>538.0</ele><time>2026-04-29T14:26:12.945Z</time></trkpt><trkpt lat="37.1109018" lon="22.2141075"><ele>538.0</ele><time>2026-04-29T14:26:13.946Z</time></trkpt><trkpt lat="37.1108392" lon="22.2142564"><ele>535.5</ele><time>2026-04-29T14:26:14.945Z</time></trkpt><trkpt lat="37.1107733" lon="22.2144111"><ele>533.0</ele><time>2026-04-29T14:26:15.945Z</time></trkpt><trkpt lat="37.1106903" lon="22.2145576"><ele>530.5</ele><time>2026-04-29T14:26:16.945Z</time></trkpt><trkpt lat="37.1106021" lon="22.21468"><ele>528.0</ele><time>2026-04-29T14:26:17.945Z</time></trkpt><trkpt lat="37.1105069" lon="22.2147931"><ele>523.75</ele><time>2026-04-29T14:26:18.945Z</time></trkpt><trkpt lat="37.1104307" lon="22.2149306"><ele>519.5</ele><time>2026-04-29T14:26:19.942Z</time></trkpt><trkpt lat="37.110364" lon="22.2150778"><ele>515.25</ele><time>2026-04-29T14:26:20.943Z</time></trkpt><trkpt lat="37.1103005" lon="22.2152166"><ele>511.0</ele><time>2026-04-29T14:26:21.944Z</time></trkpt><trkpt lat="37.1102266" lon="22.2153561"><ele>511.0</ele><time>2026-04-29T14:26:22.944Z</time></trkpt><trkpt lat="37.1101318" lon="22.2154773"><ele>511.0</ele><time>2026-04-29T14:26:23.944Z</time></trkpt><trkpt lat="37.1100334" lon="22.2155828"><ele>511.0</ele><time>2026-04-29T14:26:24.943Z</time></trkpt><trkpt lat="37.1099419" lon="22.2156764"><ele>511.0</ele><time>2026-04-29T14:26:25.946Z</time></trkpt><trkpt lat="37.1099037" lon="22.2157415"><ele>511.0</ele><time>2026-04-29T14:26:26.944Z</time></trkpt><trkpt lat="37.1098674" lon="22.2158223"><ele>512.1666666666667</ele><time>2026-04-29T14:26:27.944Z</time></trkpt><trkpt lat="37.1098459" lon="22.215902"><ele>513.3333333333334</ele><time>2026-04-29T14:26:28.945Z</time></trkpt><trkpt lat="37.1098962" lon="22.2159827"><ele>514.5</ele><time>2026-04-29T14:26:29.944Z</time></trkpt><trkpt lat="37.109958" lon="22.2160217"><ele>515.6666666666666</ele><time>2026-04-29T14:26:30.945Z</time></trkpt><trkpt lat="37.1100473" lon="22.2160061"><ele>516.8333333333333</ele><time>2026-04-29T14:26:31.946Z</time></trkpt><trkpt lat="37.110129" lon="22.2159368"><ele>518.0</ele><time>2026-04-29T14:26:32.946Z</time></trkpt><trkpt lat="37.11022" lon="22.2158425"><ele>516.25</ele><time>2026-04-29T14:26:33.946Z</time></trkpt><trkpt lat="37.110299" lon="22.215729"><ele>514.5</ele><time>2026-04-29T14:26:34.942Z</time></trkpt><trkpt lat="37.1103776" lon="22.2156151"><ele>512.75</ele><time>2026-04-29T14:26:35.943Z</time></trkpt><trkpt lat="37.1104595" lon="22.2154857"><ele>511.0</ele><time>2026-04-29T14:26:36.945Z</time></trkpt><trkpt lat="37.1105383" lon="22.2153429"><ele>511.0</ele><time>2026-04-29T14:26:37.943Z</time></trkpt><trkpt lat="37.1106242" lon="22.2151927"><ele>511.0</ele><time>2026-04-29T14:26:38.945Z</time></trkpt><trkpt lat="37.1107125" lon="22.2150524"><ele>511.0</ele><time>2026-04-29T14:26:39.943Z</time></trkpt><trkpt lat="37.1108011" lon="22.2149121"><ele>511.0</ele><time>2026-04-29T14:26:40.946Z</time></trkpt><trkpt lat="37.1109019" lon="22.2147943"><ele>509.0</ele><time>2026-04-29T14:26:41.945Z</time></trkpt><trkpt lat="37.1109733" lon="22.214631"><ele>507.0</ele><time>2026-04-29T14:26:42.945Z</time></trkpt><trkpt lat="37.1110282" lon="22.214462"><ele>505.0</ele><time>2026-04-29T14:26:43.945Z</time></trkpt><trkpt lat="37.1110766" lon="22.2142921"><ele>503.0</ele><time>2026-04-29T14:26:44.945Z</time></trkpt><trkpt lat="37.1111351" lon="22.2141221"><ele>511.75</ele><time>2026-04-29T14:26:45.946Z</time></trkpt><trkpt lat="37.1111977" lon="22.2139703"><ele>520.5</ele><time>2026-04-29T14:26:46.945Z</time></trkpt><trkpt lat="37.1113143" lon="22.2139218"><ele>529.25</ele><time>2026-04-29T14:26:47.945Z</time></trkpt><trkpt lat="37.1114414" lon="22.2138561"><ele>538.0</ele><time>2026-04-29T14:26:48.945Z</time></trkpt><trkpt lat="37.1115641" lon="22.2137861"><ele>522.0</ele><time>2026-04-29T14:26:49.945Z</time></trkpt><trkpt lat="37.111667" lon="22.213672"><ele>506.0</ele><time>2026-04-29T14:26:50.943Z</time></trkpt><trkpt lat="37.1117778" lon="22.2135721"><ele>490.0</ele><time>2026-04-29T14:26:51.946Z</time></trkpt><trkpt lat="37.111895" lon="22.2133702"><ele>490.0</ele><time>2026-04-29T14:26:52.946Z</time></trkpt><trkpt lat="37.1120062" lon="22.2131933"><ele>490.0</ele><time>2026-04-29T14:26:53.942Z</time></trkpt><trkpt lat="37.1121178" lon="22.2130089"><ele>490.0</ele><time>2026-04-29T14:26:54.945Z</time></trkpt><trkpt lat="37.1122331" lon="22.2128399"><ele>483.6666666666667</ele><time>2026-04-29T14:26:55.944Z</time></trkpt><trkpt lat="37.1123487" lon="22.2126716"><ele>477.33333333333337</ele><time>2026-04-29T14:26:56.946Z</time></trkpt><trkpt lat="37.1124632" lon="22.2124969"><ele>471.0</ele><time>2026-04-29T14:26:57.943Z</time></trkpt><trkpt lat="37.1125771" lon="22.2123239"><ele>479.66666666666663</ele><time>2026-04-29T14:26:58.944Z</time></trkpt><trkpt lat="37.1126949" lon="22.2121537"><ele>488.3333333333333</ele><time>2026-04-29T14:26:59.944Z</time></trkpt><trkpt lat="37.1128273" lon="22.2119932"><ele>497.0</ele><time>2026-04-29T14:27:00.944Z</time></trkpt><trkpt lat="37.1129506" lon="22.2118225"><ele>497.0</ele><time>2026-04-29T14:27:01.944Z</time></trkpt><trkpt lat="37.1130719" lon="22.2116477"><ele>497.0</ele><time>2026-04-29T14:27:02.944Z</time></trkpt><trkpt lat="37.1131945" lon="22.2114683"><ele>497.0</ele><time>2026-04-29T14:27:03.943Z</time></trkpt><trkpt lat="37.1133145" lon="22.2112881"><ele>492.3333333333333</ele><time>2026-04-29T14:27:04.944Z</time></trkpt><trkpt lat="37.1134337" lon="22.2111049"><ele>487.66666666666663</ele><time>2026-04-29T14:27:05.942Z</time></trkpt><trkpt lat="37.1135588" lon="22.2109194"><ele>483.0</ele><time>2026-04-29T14:27:06.943Z</time></trkpt><trkpt lat="37.1136936" lon="22.2107499"><ele>477.0</ele><time>2026-04-29T14:27:07.943Z</time></trkpt><trkpt lat="37.1138273" lon="22.2105809"><ele>471.0</ele><time>2026-04-29T14:27:08.943Z</time></trkpt><trkpt lat="37.1139692" lon="22.2104211"><ele>465.0</ele><time>2026-04-29T14:27:09.943Z</time></trkpt><trkpt lat="37.1141014" lon="22.2102867"><ele>465.0</ele><time>2026-04-29T14:27:10.944Z</time></trkpt><trkpt lat="37.114249" lon="22.2101543"><ele>465.0</ele><time>2026-04-29T14:27:11.943Z</time></trkpt><trkpt lat="37.114387" lon="22.2099958"><ele>465.0</ele><time>2026-04-29T14:27:12.945Z</time></trkpt><trkpt lat="37.1145119" lon="22.2098116"><ele>475.33333333333337</ele><time>2026-04-29T14:27:13.945Z</time></trkpt><trkpt lat="37.1146367" lon="22.2096214"><ele>485.6666666666667</ele><time>2026-04-29T14:27:14.945Z</time></trkpt><trkpt lat="37.1147562" lon="22.2094198"><ele>496.0</ele><time>2026-04-29T14:27:15.944Z</time></trkpt><trkpt lat="37.1148708" lon="22.2092182"><ele>489.6666666666667</ele><time>2026-04-29T14:27:16.942Z</time></trkpt><trkpt lat="37.1149771" lon="22.2090193"><ele>483.33333333333337</ele><time>2026-04-29T14:27:17.945Z</time></trkpt><trkpt lat="37.1150761" lon="22.2088221"><ele>477.0</ele><time>2026-04-29T14:27:18.942Z</time></trkpt><trkpt lat="37.1151789" lon="22.2086381"><ele>477.0</ele><time>2026-04-29T14:27:19.946Z</time></trkpt><trkpt lat="37.115295" lon="22.2084653"><ele>477.0</ele><time>2026-04-29T14:27:20.945Z</time></trkpt><trkpt lat="37.1154232" lon="22.2083057"><ele>477.0</ele><time>2026-04-29T14:27:21.944Z</time></trkpt><trkpt lat="37.1155574" lon="22.2081542"><ele>472.33333333333337</ele><time>2026-04-29T14:27:22.945Z</time></trkpt><trkpt lat="37.1156977" lon="22.2080206"><ele>467.6666666666667</ele><time>2026-04-29T14:27:23.944Z</time></trkpt><trkpt lat="37.1158332" lon="22.2079077"><ele>463.0</ele><time>2026-04-29T14:27:24.943Z</time></trkpt><trkpt lat="37.115965" lon="22.2078013"><ele>463.0</ele><time>2026-04-29T14:27:25.943Z</time></trkpt><trkpt lat="37.1160925" lon="22.2077059"><ele>463.0</ele><time>2026-04-29T14:27:26.943Z</time></trkpt><trkpt lat="37.1162229" lon="22.2076069"><ele>463.0</ele><time>2026-04-29T14:27:27.943Z</time></trkpt><trkpt lat="37.1163335" lon="22.2075055"><ele>463.0</ele><time>2026-04-29T14:27:28.945Z</time></trkpt><trkpt lat="37.1164271" lon="22.2073802"><ele>472.33333333333337</ele><time>2026-04-29T14:27:29.946Z</time></trkpt><trkpt lat="37.1164944" lon="22.207232"><ele>481.66666666666663</ele><time>2026-04-29T14:27:30.945Z</time></trkpt><trkpt lat="37.1165329" lon="22.2070532"><ele>491.0</ele><time>2026-04-29T14:27:31.945Z</time></trkpt><trkpt lat="37.1165289" lon="22.2068258"><ele>491.0</ele><time>2026-04-29T14:27:32.941Z</time></trkpt><trkpt lat="37.1165154" lon="22.2065772"><ele>491.0</ele><time>2026-04-29T14:27:33.945Z</time></trkpt><trkpt lat="37.1164981" lon="22.2063258"><ele>491.0</ele><time>2026-04-29T14:27:34.943Z</time></trkpt><trkpt lat="37.1164832" lon="22.2060812"><ele>488.3333333333333</ele><time>2026-04-29T14:27:35.943Z</time></trkpt><trkpt lat="37.1164731" lon="22.2058509"><ele>485.66666666666663</ele><time>2026-04-29T14:27:36.945Z</time></trkpt><trkpt lat="37.1164614" lon="22.2056327"><ele>483.0</ele><time>2026-04-29T14:27:37.944Z</time></trkpt><trkpt lat="37.1164434" lon="22.2054187"><ele>476.33333333333337</ele><time>2026-04-29T14:27:38.941Z</time></trkpt><trkpt lat="37.1164179" lon="22.2052075"><ele>469.6666666666667</ele><time>2026-04-29T14:27:39.944Z</time></trkpt><trkpt lat="37.1163856" lon="22.205002"><ele>463.0</ele><time>2026-04-29T14:27:40.946Z</time></trkpt><trkpt lat="37.1163464" lon="22.2047875"><ele>457.33333333333337</ele><time>2026-04-29T14:27:41.944Z</time></trkpt><trkpt lat="37.1163039" lon="22.2045738"><ele>451.66666666666663</ele><time>2026-04-29T14:27:42.943Z</time></trkpt><trkpt lat="37.1162608" lon="22.2043529"><ele>446.0</ele><time>2026-04-29T14:27:43.943Z</time></trkpt><trkpt lat="37.1162131" lon="22.2041289"><ele>439.66666666666663</ele><time>2026-04-29T14:27:44.946Z</time></trkpt><trkpt lat="37.116166" lon="22.2039115"><ele>433.33333333333337</ele><time>2026-04-29T14:27:45.943Z</time></trkpt><trkpt lat="37.116115" lon="22.2036839"><ele>427.0</ele><time>2026-04-29T14:27:46.944Z</time></trkpt><trkpt lat="37.1160674" lon="22.203463"><ele>427.0</ele><time>2026-04-29T14:27:47.943Z</time></trkpt><trkpt lat="37.1160224" lon="22.203246"><ele>427.0</ele><time>2026-04-29T14:27:48.945Z</time></trkpt><trkpt lat="37.115977" lon="22.203021"><ele>427.0</ele><time>2026-04-29T14:27:49.943Z</time></trkpt><trkpt lat="37.1159308" lon="22.2028107"><ele>422.0</ele><time>2026-04-29T14:27:50.943Z</time></trkpt><trkpt lat="37.115882" lon="22.202603"><ele>417.0</ele><time>2026-04-29T14:27:51.944Z</time></trkpt><trkpt lat="37.115839" lon="22.202394"><ele>412.0</ele><time>2026-04-29T14:27:52.943Z</time></trkpt><trkpt lat="37.1157957" lon="22.2021898"><ele>405.6666666666667</ele><time>2026-04-29T14:27:53.945Z</time></trkpt><trkpt lat="37.1157475" lon="22.2019771"><ele>399.33333333333337</ele><time>2026-04-29T14:27:54.945Z</time></trkpt><trkpt lat="37.1156985" lon="22.2017727"><ele>393.0</ele><time>2026-04-29T14:27:55.943Z</time></trkpt><trkpt lat="37.1156475" lon="22.2015797"><ele>401.33333333333337</ele><time>2026-04-29T14:27:56.943Z</time></trkpt><trkpt lat="37.1155808" lon="22.2013882"><ele>409.6666666666667</ele><time>2026-04-29T14:27:57.943Z</time></trkpt><trkpt lat="37.1155" lon="22.2012051"><ele>418.0</ele><time>2026-04-29T14:27:58.943Z</time></trkpt><trkpt lat="37.1154084" lon="22.2010198"><ele>418.0</ele><time>2026-04-29T14:27:59.944Z</time></trkpt><trkpt lat="37.1152982" lon="22.2008479"><ele>418.0</ele><time>2026-04-29T14:28:00.946Z</time></trkpt><trkpt lat="37.1151929" lon="22.200674"><ele>418.0</ele><time>2026-04-29T14:28:01.946Z</time></trkpt><trkpt lat="37.1150825" lon="22.2004916"><ele>420.0</ele><time>2026-04-29T14:28:02.946Z</time></trkpt><trkpt lat="37.1149789" lon="22.2003093"><ele>422.0</ele><time>2026-04-29T14:28:03.943Z</time></trkpt><trkpt lat="37.114869" lon="22.2001433"><ele>424.0</ele><time>2026-04-29T14:28:04.946Z</time></trkpt><trkpt lat="37.1147543" lon="22.1999831"><ele>424.0</ele><time>2026-04-29T14:28:05.946Z</time></trkpt><trkpt lat="37.1146259" lon="22.1998356"><ele>424.0</ele><time>2026-04-29T14:28:06.945Z</time></trkpt><trkpt lat="37.1144909" lon="22.19969"><ele>424.0</ele><time>2026-04-29T14:28:07.945Z</time></trkpt><trkpt lat="37.1143558" lon="22.1995524"><ele>425.33333333333337</ele><time>2026-04-29T14:28:08.942Z</time></trkpt><trkpt lat="37.1142081" lon="22.1994275"><ele>426.66666666666663</ele><time>2026-04-29T14:28:09.945Z</time></trkpt><trkpt lat="37.1140609" lon="22.1993158"><ele>428.0</ele><time>2026-04-29T14:28:10.944Z</time></trkpt><trkpt lat="37.1139343" lon="22.199211"><ele>428.0</ele><time>2026-04-29T14:28:11.946Z</time></trkpt><trkpt lat="37.1138291" lon="22.199106"><ele>428.0</ele><time>2026-04-29T14:28:12.944Z</time></trkpt><trkpt lat="37.1137513" lon="22.1989877"><ele>428.0</ele><time>2026-04-29T14:28:13.944Z</time></trkpt><trkpt lat="37.1137142" lon="22.1988339"><ele>428.0</ele><time>2026-04-29T14:28:14.944Z</time></trkpt><trkpt lat="37.1136888" lon="22.1986541"><ele>426.0</ele><time>2026-04-29T14:28:15.943Z</time></trkpt><trkpt lat="37.1136712" lon="22.1984608"><ele>424.0</ele><time>2026-04-29T14:28:16.943Z</time></trkpt><trkpt lat="37.1136495" lon="22.1982696"><ele>422.0</ele><time>2026-04-29T14:28:17.945Z</time></trkpt><trkpt lat="37.1136242" lon="22.1980684"><ele>420.0</ele><time>2026-04-29T14:28:18.941Z</time></trkpt><trkpt lat="37.1136005" lon="22.1978707"><ele>418.0</ele><time>2026-04-29T14:28:19.946Z</time></trkpt><trkpt lat="37.1135994" lon="22.1976703"><ele>416.0</ele><time>2026-04-29T14:28:20.944Z</time></trkpt><trkpt lat="37.1135933" lon="22.1974733"><ele>413.66666666666663</ele><time>2026-04-29T14:28:21.942Z</time></trkpt><trkpt lat="37.1135892" lon="22.1972811"><ele>411.33333333333337</ele><time>2026-04-29T14:28:22.944Z</time></trkpt><trkpt lat="37.1135961" lon="22.1970906"><ele>409.0</ele><time>2026-04-29T14:28:23.946Z</time></trkpt><trkpt lat="37.1136136" lon="22.1968925"><ele>409.0</ele><time>2026-04-29T14:28:24.943Z</time></trkpt><trkpt lat="37.1136292" lon="22.1967028"><ele>409.0</ele><time>2026-04-29T14:28:25.944Z</time></trkpt><trkpt lat="37.1136469" lon="22.1965188"><ele>409.0</ele><time>2026-04-29T14:28:26.945Z</time></trkpt><trkpt lat="37.1136638" lon="22.1963494"><ele>409.0</ele><time>2026-04-29T14:28:27.946Z</time></trkpt><trkpt lat="37.1136737" lon="22.1961844"><ele>405.5</ele><time>2026-04-29T14:28:28.943Z</time></trkpt><trkpt lat="37.1136697" lon="22.1960223"><ele>402.0</ele><time>2026-04-29T14:28:29.946Z</time></trkpt><trkpt lat="37.1136374" lon="22.1958491"><ele>398.5</ele><time>2026-04-29T14:28:30.945Z</time></trkpt><trkpt lat="37.1135942" lon="22.1956884"><ele>395.0</ele><time>2026-04-29T14:28:31.945Z</time></trkpt><trkpt lat="37.1135269" lon="22.1955269"><ele>388.0</ele><time>2026-04-29T14:28:32.946Z</time></trkpt><trkpt lat="37.113443" lon="22.19536"><ele>381.0</ele><time>2026-04-29T14:28:33.946Z</time></trkpt><trkpt lat="37.1133346" lon="22.1952013"><ele>374.0</ele><time>2026-04-29T14:28:34.945Z</time></trkpt><trkpt lat="37.113224" lon="22.195046"><ele>383.75</ele><time>2026-04-29T14:28:35.945Z</time></trkpt><trkpt lat="37.1131339" lon="22.1948997"><ele>393.5</ele><time>2026-04-29T14:28:36.944Z</time></trkpt><trkpt lat="37.1130384" lon="22.1947549"><ele>403.25</ele><time>2026-04-29T14:28:37.945Z</time></trkpt><trkpt lat="37.1129728" lon="22.1946024"><ele>413.0</ele><time>2026-04-29T14:28:38.944Z</time></trkpt><trkpt lat="37.1129242" lon="22.1944444"><ele>413.0</ele><time>2026-04-29T14:28:39.946Z</time></trkpt><trkpt lat="37.1128854" lon="22.1942737"><ele>413.0</ele><time>2026-04-29T14:28:40.945Z</time></trkpt><trkpt lat="37.11286" lon="22.1940826"><ele>413.0</ele><time>2026-04-29T14:28:41.944Z</time></trkpt><trkpt lat="37.1128307" lon="22.1938894"><ele>404.0</ele><time>2026-04-29T14:28:42.944Z</time></trkpt><trkpt lat="37.1128003" lon="22.1936915"><ele>395.0</ele><time>2026-04-29T14:28:43.945Z</time></trkpt><trkpt lat="37.1127537" lon="22.193515"><ele>386.0</ele><time>2026-04-29T14:28:44.945Z</time></trkpt><trkpt lat="37.1126828" lon="22.193336"><ele>378.0</ele><time>2026-04-29T14:28:45.943Z</time></trkpt><trkpt lat="37.1126369" lon="22.1931664"><ele>370.0</ele><time>2026-04-29T14:28:46.945Z</time></trkpt><trkpt lat="37.1125945" lon="22.1930085"><ele>362.0</ele><time>2026-04-29T14:28:47.945Z</time></trkpt><trkpt lat="37.1125325" lon="22.1928472"><ele>354.0</ele><time>2026-04-29T14:28:48.944Z</time></trkpt><trkpt lat="37.1124738" lon="22.1926937"><ele>366.0</ele><time>2026-04-29T14:28:49.942Z</time></trkpt><trkpt lat="37.1123177" lon="22.1925845"><ele>378.0</ele><time>2026-04-29T14:28:50.945Z</time></trkpt><trkpt lat="37.1121414" lon="22.1924668"><ele>390.0</ele><time>2026-04-29T14:28:51.945Z</time></trkpt><trkpt lat="37.1120025" lon="22.1923629"><ele>377.3333333333333</ele><time>2026-04-29T14:28:52.942Z</time></trkpt><trkpt lat="37.1118621" lon="22.1922548"><ele>364.66666666666663</ele><time>2026-04-29T14:28:53.945Z</time></trkpt><trkpt lat="37.1117288" lon="22.1921467"><ele>352.0</ele><time>2026-04-29T14:28:54.944Z</time></trkpt><trkpt lat="37.1116029" lon="22.1920334"><ele>368.3333333333333</ele><time>2026-04-29T14:28:55.944Z</time></trkpt><trkpt lat="37.1115009" lon="22.1918941"><ele>384.66666666666663</ele><time>2026-04-29T14:28:56.943Z</time></trkpt><trkpt lat="37.1114009" lon="22.1917402"><ele>401.0</ele><time>2026-04-29T14:28:57.943Z</time></trkpt><trkpt lat="37.1113067" lon="22.1915653"><ele>386.3333333333333</ele><time>2026-04-29T14:28:58.946Z</time></trkpt><trkpt lat="37.1112161" lon="22.1914033"><ele>371.66666666666663</ele><time>2026-04-29T14:28:59.943Z</time></trkpt><trkpt lat="37.1111232" lon="22.1912533"><ele>357.0</ele><time>2026-04-29T14:29:00.945Z</time></trkpt><trkpt lat="37.1110236" lon="22.1911236"><ele>357.0</ele><time>2026-04-29T14:29:01.946Z</time></trkpt><trkpt lat="37.1108804" lon="22.1910438"><ele>357.0</ele><time>2026-04-29T14:29:02.943Z</time></trkpt><trkpt lat="37.1107366" lon="22.190976"><ele>357.0</ele><time>2026-04-29T14:29:03.944Z</time></trkpt><trkpt lat="37.1105885" lon="22.1909097"><ele>356.0</ele><time>2026-04-29T14:29:04.942Z</time></trkpt><trkpt lat="37.1104315" lon="22.1908341"><ele>355.0</ele><time>2026-04-29T14:29:05.943Z</time></trkpt><trkpt lat="37.1103015" lon="22.1907327"><ele>354.0</ele><time>2026-04-29T14:29:06.942Z</time></trkpt><trkpt lat="37.1101886" lon="22.1905725"><ele>354.0</ele><time>2026-04-29T14:29:07.945Z</time></trkpt><trkpt lat="37.1100643" lon="22.190446"><ele>354.0</ele><time>2026-04-29T14:29:08.941Z</time></trkpt><trkpt lat="37.1099514" lon="22.1902989"><ele>354.0</ele><time>2026-04-29T14:29:09.945Z</time></trkpt><trkpt lat="37.1098382" lon="22.1901334"><ele>360.3333333333333</ele><time>2026-04-29T14:29:10.942Z</time></trkpt><trkpt lat="37.1097299" lon="22.1899625"><ele>366.66666666666663</ele><time>2026-04-29T14:29:11.946Z</time></trkpt><trkpt lat="37.1096409" lon="22.1897804"><ele>373.0</ele><time>2026-04-29T14:29:12.945Z</time></trkpt><trkpt lat="37.1095512" lon="22.1895967"><ele>373.0</ele><time>2026-04-29T14:29:13.942Z</time></trkpt><trkpt lat="37.1094702" lon="22.1894113"><ele>373.0</ele><time>2026-04-29T14:29:14.943Z</time></trkpt><trkpt lat="37.1093965" lon="22.1892278"><ele>373.0</ele><time>2026-04-29T14:29:15.945Z</time></trkpt><trkpt lat="37.1093216" lon="22.1890558"><ele>370.0</ele><time>2026-04-29T14:29:16.944Z</time></trkpt><trkpt lat="37.1092418" lon="22.1888943"><ele>367.0</ele><time>2026-04-29T14:29:17.946Z</time></trkpt><trkpt lat="37.1091565" lon="22.18874"><ele>364.0</ele><time>2026-04-29T14:29:18.946Z</time></trkpt><trkpt lat="37.1090437" lon="22.1886001"><ele>364.0</ele><time>2026-04-29T14:29:19.945Z</time></trkpt><trkpt lat="37.108901" lon="22.188481"><ele>364.0</ele><time>2026-04-29T14:29:20.945Z</time></trkpt><trkpt lat="37.1087459" lon="22.1883884"><ele>364.0</ele><time>2026-04-29T14:29:21.945Z</time></trkpt><trkpt lat="37.1085835" lon="22.1882935"><ele>364.0</ele><time>2026-04-29T14:29:22.944Z</time></trkpt><trkpt lat="37.1084109" lon="22.1882045"><ele>364.0</ele><time>2026-04-29T14:29:23.945Z</time></trkpt><trkpt lat="37.1082276" lon="22.1881176"><ele>364.0</ele><time>2026-04-29T14:29:24.942Z</time></trkpt><trkpt lat="37.1080522" lon="22.1880095"><ele>359.66666666666663</ele><time>2026-04-29T14:29:25.941Z</time></trkpt><trkpt lat="37.107879" lon="22.1879268"><ele>355.3333333333333</ele><time>2026-04-29T14:29:26.945Z</time></trkpt><trkpt lat="37.1077236" lon="22.187845"><ele>351.0</ele><time>2026-04-29T14:29:27.946Z</time></trkpt><trkpt lat="37.1075798" lon="22.1877734"><ele>351.0</ele><time>2026-04-29T14:29:28.946Z</time></trkpt><trkpt lat="37.1074699" lon="22.1876915"><ele>351.0</ele><time>2026-04-29T14:29:29.944Z</time></trkpt><trkpt lat="37.1073743" lon="22.1875951"><ele>351.0</ele><time>2026-04-29T14:29:30.945Z</time></trkpt><trkpt lat="37.1072929" lon="22.1874717"><ele>351.0</ele><time>2026-04-29T14:29:31.946Z</time></trkpt><trkpt lat="37.1072353" lon="22.1873432"><ele>350.4</ele><time>2026-04-29T14:29:32.941Z</time></trkpt><trkpt lat="37.1071853" lon="22.1872195"><ele>349.8</ele><time>2026-04-29T14:29:33.943Z</time></trkpt><trkpt lat="37.1071549" lon="22.1870767"><ele>349.2</ele><time>2026-04-29T14:29:34.943Z</time></trkpt><trkpt lat="37.1071369" lon="22.1869717"><ele>348.59999999999997</ele><time>2026-04-29T14:29:35.942Z</time></trkpt><trkpt lat="37.1071087" lon="22.186866"><ele>348.0</ele><time>2026-04-29T14:29:36.946Z</time></trkpt><trkpt lat="37.1070601" lon="22.1867805"><ele>348.0</ele><time>2026-04-29T14:29:37.943Z</time></trkpt><trkpt lat="37.1069929" lon="22.1867118"><ele>348.0</ele><time>2026-04-29T14:29:38.944Z</time></trkpt><trkpt lat="37.1069052" lon="22.1866634"><ele>348.0</ele><time>2026-04-29T14:29:39.944Z</time></trkpt><trkpt lat="37.1068014" lon="22.1866308"><ele>348.0</ele><time>2026-04-29T14:29:40.945Z</time></trkpt><trkpt lat="37.1066801" lon="22.1866082"><ele>348.0</ele><time>2026-04-29T14:29:41.941Z</time></trkpt><trkpt lat="37.1065566" lon="22.186582"><ele>345.75</ele><time>2026-04-29T14:29:42.941Z</time></trkpt><trkpt lat="37.1064409" lon="22.1865523"><ele>343.5</ele><time>2026-04-29T14:29:43.946Z</time></trkpt><trkpt lat="37.1063361" lon="22.1865102"><ele>341.25</ele><time>2026-04-29T14:29:44.941Z</time></trkpt><trkpt lat="37.1062339" lon="22.1864449"><ele>339.0</ele><time>2026-04-29T14:29:45.945Z</time></trkpt><trkpt lat="37.1061235" lon="22.1863726"><ele>339.0</ele><time>2026-04-29T14:29:46.944Z</time></trkpt><trkpt lat="37.1060224" lon="22.1862927"><ele>339.0</ele><time>2026-04-29T14:29:47.941Z</time></trkpt><trkpt lat="37.1059371" lon="22.1861934"><ele>339.0</ele><time>2026-04-29T14:29:48.943Z</time></trkpt><trkpt lat="37.1058746" lon="22.1860619"><ele>339.0</ele><time>2026-04-29T14:29:49.943Z</time></trkpt><trkpt lat="37.1058276" lon="22.1859168"><ele>339.0</ele><time>2026-04-29T14:29:50.942Z</time></trkpt><trkpt lat="37.1057808" lon="22.185765"><ele>339.0</ele><time>2026-04-29T14:29:51.942Z</time></trkpt><trkpt lat="37.1057171" lon="22.1856148"><ele>339.0</ele><time>2026-04-29T14:29:52.943Z</time></trkpt><trkpt lat="37.1056393" lon="22.1854729"><ele>339.0</ele><time>2026-04-29T14:29:53.944Z</time></trkpt><trkpt lat="37.1055571" lon="22.1853394"><ele>339.75</ele><time>2026-04-29T14:29:54.938Z</time></trkpt><trkpt lat="37.1054583" lon="22.1852224"><ele>340.5</ele><time>2026-04-29T14:29:55.941Z</time></trkpt><trkpt lat="37.1053408" lon="22.1851279"><ele>341.25</ele><time>2026-04-29T14:29:56.94Z</time></trkpt><trkpt lat="37.105213" lon="22.1850334"><ele>342.0</ele><time>2026-04-29T14:29:57.941Z</time></trkpt><trkpt lat="37.1050869" lon="22.1849474"><ele>342.0</ele><time>2026-04-29T14:29:58.941Z</time></trkpt><trkpt lat="37.104965" lon="22.1848577"><ele>342.0</ele><time>2026-04-29T14:29:59.94Z</time></trkpt><trkpt lat="37.1048444" lon="22.1847702"><ele>342.0</ele><time>2026-04-29T14:30:00.942Z</time></trkpt><trkpt lat="37.1047235" lon="22.1846813"><ele>342.0</ele><time>2026-04-29T14:30:01.941Z</time></trkpt><trkpt lat="37.1046059" lon="22.1845868"><ele>338.5</ele><time>2026-04-29T14:30:02.94Z</time></trkpt><trkpt lat="37.1044936" lon="22.184485"><ele>335.0</ele><time>2026-04-29T14:30:03.941Z</time></trkpt><trkpt lat="37.1043814" lon="22.1843815"><ele>331.5</ele><time>2026-04-29T14:30:04.942Z</time></trkpt><trkpt lat="37.1042708" lon="22.1842715"><ele>328.0</ele><time>2026-04-29T14:30:05.941Z</time></trkpt><trkpt lat="37.1041709" lon="22.1841574"><ele>327.25</ele><time>2026-04-29T14:30:06.941Z</time></trkpt><trkpt lat="37.1040761" lon="22.1840478"><ele>326.5</ele><time>2026-04-29T14:30:07.942Z</time></trkpt><trkpt lat="37.1039904" lon="22.1839332"><ele>325.75</ele><time>2026-04-29T14:30:08.942Z</time></trkpt><trkpt lat="37.103906" lon="22.1838237"><ele>325.0</ele><time>2026-04-29T14:30:09.942Z</time></trkpt><trkpt lat="37.1038234" lon="22.1837182"><ele>325.0</ele><time>2026-04-29T14:30:10.942Z</time></trkpt><trkpt lat="37.1037395" lon="22.1836226"><ele>325.0</ele><time>2026-04-29T14:30:11.943Z</time></trkpt><trkpt lat="37.103646" lon="22.1835328"><ele>325.0</ele><time>2026-04-29T14:30:12.941Z</time></trkpt><trkpt lat="37.1035541" lon="22.1834549"><ele>325.0</ele><time>2026-04-29T14:30:13.943Z</time></trkpt><trkpt lat="37.1034517" lon="22.1833773"><ele>325.0</ele><time>2026-04-29T14:30:14.941Z</time></trkpt><trkpt lat="37.1033478" lon="22.1833109"><ele>325.0</ele><time>2026-04-29T14:30:15.943Z</time></trkpt><trkpt lat="37.1032422" lon="22.183249"><ele>325.0</ele><time>2026-04-29T14:30:16.942Z</time></trkpt><trkpt lat="37.1031398" lon="22.1831885"><ele>325.0</ele><time>2026-04-29T14:30:17.945Z</time></trkpt><trkpt lat="37.1030421" lon="22.1831453"><ele>325.16666666666663</ele><time>2026-04-29T14:30:18.941Z</time></trkpt><trkpt lat="37.1029487" lon="22.1831232"><ele>325.3333333333333</ele><time>2026-04-29T14:30:19.942Z</time></trkpt><trkpt lat="37.1028628" lon="22.1831065"><ele>325.5</ele><time>2026-04-29T14:30:20.941Z</time></trkpt><trkpt lat="37.1027563" lon="22.1831021"><ele>325.6666666666667</ele><time>2026-04-29T14:30:21.945Z</time></trkpt><trkpt lat="37.1026816" lon="22.183077"><ele>325.83333333333337</ele><time>2026-04-29T14:30:22.943Z</time></trkpt><trkpt lat="37.1026267" lon="22.1830297"><ele>326.0</ele><time>2026-04-29T14:30:23.945Z</time></trkpt><trkpt lat="37.102576" lon="22.1829523"><ele>326.0</ele><time>2026-04-29T14:30:24.941Z</time></trkpt><trkpt lat="37.1025376" lon="22.1828545"><ele>326.0</ele><time>2026-04-29T14:30:25.942Z</time></trkpt><trkpt lat="37.1025057" lon="22.1827563"><ele>326.0</ele><time>2026-04-29T14:30:26.945Z</time></trkpt><trkpt lat="37.1024766" lon="22.1826586"><ele>326.0</ele><time>2026-04-29T14:30:27.945Z</time></trkpt><trkpt lat="37.1024465" lon="22.1825598"><ele>326.0</ele><time>2026-04-29T14:30:28.944Z</time></trkpt><trkpt lat="37.1024108" lon="22.1824443"><ele>326.0</ele><time>2026-04-29T14:30:29.942Z</time></trkpt><trkpt lat="37.1024146" lon="22.1823139"><ele>330.5</ele><time>2026-04-29T14:30:30.94Z</time></trkpt><trkpt lat="37.1023635" lon="22.1822309"><ele>335.0</ele><time>2026-04-29T14:30:31.944Z</time></trkpt><trkpt lat="37.1023279" lon="22.1821276"><ele>339.5</ele><time>2026-04-29T14:30:32.945Z</time></trkpt><trkpt lat="37.1023018" lon="22.1820297"><ele>344.0</ele><time>2026-04-29T14:30:33.943Z</time></trkpt><trkpt lat="37.102279" lon="22.1819258"><ele>348.5</ele><time>2026-04-29T14:30:34.943Z</time></trkpt><trkpt lat="37.102259" lon="22.1818244"><ele>353.0</ele><time>2026-04-29T14:30:35.943Z</time></trkpt><trkpt lat="37.1022412" lon="22.1817298"><ele>353.0</ele><time>2026-04-29T14:30:36.944Z</time></trkpt><trkpt lat="37.1022192" lon="22.1816165"><ele>353.0</ele><time>2026-04-29T14:30:37.943Z</time></trkpt><trkpt lat="37.1022005" lon="22.1815074"><ele>353.0</ele><time>2026-04-29T14:30:38.943Z</time></trkpt><trkpt lat="37.102188" lon="22.1814016"><ele>353.0</ele><time>2026-04-29T14:30:39.945Z</time></trkpt><trkpt lat="37.102177" lon="22.1812964"><ele>353.0</ele><time>2026-04-29T14:30:40.945Z</time></trkpt><trkpt lat="37.1021815" lon="22.1811822"><ele>353.0</ele><time>2026-04-29T14:30:41.943Z</time></trkpt><trkpt lat="37.1021926" lon="22.1810721"><ele>347.6666666666667</ele><time>2026-04-29T14:30:42.941Z</time></trkpt><trkpt lat="37.1021806" lon="22.1809757"><ele>342.33333333333337</ele><time>2026-04-29T14:30:43.946Z</time></trkpt><trkpt lat="37.1021489" lon="22.1808893"><ele>337.0</ele><time>2026-04-29T14:30:44.944Z</time></trkpt><trkpt lat="37.1021301" lon="22.180788"><ele>331.6666666666667</ele><time>2026-04-29T14:30:45.946Z</time></trkpt><trkpt lat="37.1020953" lon="22.1807042"><ele>326.3333333333333</ele><time>2026-04-29T14:30:46.943Z</time></trkpt><trkpt lat="37.1020474" lon="22.180631"><ele>321.0</ele><time>2026-04-29T14:30:47.943Z</time></trkpt><trkpt lat="37.1019873" lon="22.1805931"><ele>318.0</ele><time>2026-04-29T14:30:48.944Z</time></trkpt><trkpt lat="37.1019353" lon="22.180547"><ele>315.0</ele><time>2026-04-29T14:30:49.945Z</time></trkpt><trkpt lat="37.1018521" lon="22.1805129"><ele>312.0</ele><time>2026-04-29T14:30:50.943Z</time></trkpt><trkpt lat="37.1017724" lon="22.1804811"><ele>309.0</ele><time>2026-04-29T14:30:51.944Z</time></trkpt><trkpt lat="37.1016944" lon="22.1804553"><ele>306.0</ele><time>2026-04-29T14:30:52.942Z</time></trkpt><trkpt lat="37.1016004" lon="22.180436"><ele>303.0</ele><time>2026-04-29T14:30:53.941Z</time></trkpt><trkpt lat="37.1015105" lon="22.1804212"><ele>303.0</ele><time>2026-04-29T14:30:54.945Z</time></trkpt><trkpt lat="37.1014272" lon="22.1804142"><ele>303.0</ele><time>2026-04-29T14:30:55.942Z</time></trkpt><trkpt lat="37.1013434" lon="22.1804147"><ele>303.0</ele><time>2026-04-29T14:30:56.945Z</time></trkpt><trkpt lat="37.1012567" lon="22.1804576"><ele>303.0</ele><time>2026-04-29T14:30:57.943Z</time></trkpt><trkpt lat="37.1011697" lon="22.180469"><ele>303.0</ele><time>2026-04-29T14:30:58.943Z</time></trkpt><trkpt lat="37.1010872" lon="22.1805152"><ele>303.0</ele><time>2026-04-29T14:30:59.945Z</time></trkpt><trkpt lat="37.1010044" lon="22.1805345"><ele>303.0</ele><time>2026-04-29T14:31:00.945Z</time></trkpt><trkpt lat="37.1009194" lon="22.1805675"><ele>303.0</ele><time>2026-04-29T14:31:01.943Z</time></trkpt><trkpt lat="37.1008368" lon="22.1806023"><ele>303.0</ele><time>2026-04-29T14:31:02.946Z</time></trkpt><trkpt lat="37.1007535" lon="22.1806272"><ele>303.0</ele><time>2026-04-29T14:31:03.945Z</time></trkpt><trkpt lat="37.1006634" lon="22.180652"><ele>303.0</ele><time>2026-04-29T14:31:04.946Z</time></trkpt><trkpt lat="37.1005833" lon="22.1806795"><ele>303.0</ele><time>2026-04-29T14:31:05.944Z</time></trkpt><trkpt lat="37.1005008" lon="22.1807098"><ele>304.1666666666667</ele><time>2026-04-29T14:31:06.943Z</time></trkpt><trkpt lat="37.1004196" lon="22.1807431"><ele>305.3333333333333</ele><time>2026-04-29T14:31:07.943Z</time></trkpt><trkpt lat="37.1003409" lon="22.1807687"><ele>306.5</ele><time>2026-04-29T14:31:08.943Z</time></trkpt><trkpt lat="37.1002651" lon="22.1807731"><ele>307.66666666666663</ele><time>2026-04-29T14:31:09.944Z</time></trkpt><trkpt lat="37.1001976" lon="22.1807819"><ele>308.8333333333333</ele><time>2026-04-29T14:31:10.944Z</time></trkpt><trkpt lat="37.1001252" lon="22.1807888"><ele>310.0</ele><time>2026-04-29T14:31:11.945Z</time></trkpt><trkpt lat="37.1000523" lon="22.1807747"><ele>310.0</ele><time>2026-04-29T14:31:12.94Z</time></trkpt><trkpt lat="37.0999762" lon="22.1807407"><ele>310.0</ele><time>2026-04-29T14:31:13.944Z</time></trkpt><trkpt lat="37.0999008" lon="22.1806859"><ele>310.0</ele><time>2026-04-29T14:31:14.941Z</time></trkpt><trkpt lat="37.0998286" lon="22.1806325"><ele>310.0</ele><time>2026-04-29T14:31:15.941Z</time></trkpt><trkpt lat="37.0997578" lon="22.1805867"><ele>310.0</ele><time>2026-04-29T14:31:16.946Z</time></trkpt><trkpt lat="37.0996865" lon="22.1805345"><ele>310.0</ele><time>2026-04-29T14:31:17.943Z</time></trkpt><trkpt lat="37.0996155" lon="22.1804795"><ele>309.8571428571429</ele><time>2026-04-29T14:31:18.942Z</time></trkpt><trkpt lat="37.0995507" lon="22.1804226"><ele>309.7142857142857</ele><time>2026-04-29T14:31:19.943Z</time></trkpt><trkpt lat="37.0994926" lon="22.1803673"><ele>309.57142857142856</ele><time>2026-04-29T14:31:20.946Z</time></trkpt><trkpt lat="37.0994384" lon="22.1803129"><ele>309.42857142857144</ele><time>2026-04-29T14:31:21.943Z</time></trkpt><trkpt lat="37.0993894" lon="22.1802536"><ele>309.2857142857143</ele><time>2026-04-29T14:31:22.946Z</time></trkpt><trkpt lat="37.0993523" lon="22.1801882"><ele>309.14285714285717</ele><time>2026-04-29T14:31:23.94Z</time></trkpt><trkpt lat="37.0993285" lon="22.1801021"><ele>309.0</ele><time>2026-04-29T14:31:24.942Z</time></trkpt><trkpt lat="37.0993156" lon="22.1800018"><ele>309.0</ele><time>2026-04-29T14:31:25.941Z</time></trkpt><trkpt lat="37.0993073" lon="22.179899"><ele>309.0</ele><time>2026-04-29T14:31:26.942Z</time></trkpt><trkpt lat="37.0992962" lon="22.1797937"><ele>309.0</ele><time>2026-04-29T14:31:27.943Z</time></trkpt><trkpt lat="37.0992886" lon="22.1796931"><ele>309.0</ele><time>2026-04-29T14:31:28.942Z</time></trkpt><trkpt lat="37.0992646" lon="22.1795748"><ele>309.0</ele><time>2026-04-29T14:31:29.944Z</time></trkpt><trkpt lat="37.0992353" lon="22.1794579"><ele>309.0</ele><time>2026-04-29T14:31:30.944Z</time></trkpt><trkpt lat="37.0991959" lon="22.1793278"><ele>306.59999999999997</ele><time>2026-04-29T14:31:31.943Z</time></trkpt><trkpt lat="37.0991529" lon="22.1792002"><ele>304.2</ele><time>2026-04-29T14:31:32.943Z</time></trkpt><trkpt lat="37.099115" lon="22.1790812"><ele>301.79999999999995</ele><time>2026-04-29T14:31:33.943Z</time></trkpt><trkpt lat="37.0990748" lon="22.1789653"><ele>299.4</ele><time>2026-04-29T14:31:34.941Z</time></trkpt><trkpt lat="37.0990283" lon="22.1788497"><ele>297.0</ele><time>2026-04-29T14:31:35.943Z</time></trkpt><trkpt lat="37.0989897" lon="22.1787438"><ele>296.8</ele><time>2026-04-29T14:31:36.941Z</time></trkpt><trkpt lat="37.0989352" lon="22.1786389"><ele>296.6</ele><time>2026-04-29T14:31:37.942Z</time></trkpt><trkpt lat="37.0988622" lon="22.178545"><ele>296.40000000000003</ele><time>2026-04-29T14:31:38.942Z</time></trkpt><trkpt lat="37.0987929" lon="22.1784566"><ele>296.2</ele><time>2026-04-29T14:31:39.945Z</time></trkpt><trkpt lat="37.0987042" lon="22.1783771"><ele>296.0</ele><time>2026-04-29T14:31:40.943Z</time></trkpt><trkpt lat="37.0986041" lon="22.1783133"><ele>296.0</ele><time>2026-04-29T14:31:41.944Z</time></trkpt><trkpt lat="37.0985032" lon="22.1782618"><ele>296.0</ele><time>2026-04-29T14:31:42.943Z</time></trkpt><trkpt lat="37.0983977" lon="22.1782161"><ele>296.0</ele><time>2026-04-29T14:31:43.944Z</time></trkpt><trkpt lat="37.0982894" lon="22.1781703"><ele>296.0</ele><time>2026-04-29T14:31:44.945Z</time></trkpt><trkpt lat="37.0981779" lon="22.1781354"><ele>293.25</ele><time>2026-04-29T14:31:45.943Z</time></trkpt><trkpt lat="37.0980647" lon="22.1780837"><ele>290.5</ele><time>2026-04-29T14:31:46.942Z</time></trkpt><trkpt lat="37.0979422" lon="22.1780435"><ele>287.75</ele><time>2026-04-29T14:31:47.942Z</time></trkpt><trkpt lat="37.0978271" lon="22.1780035"><ele>285.0</ele><time>2026-04-29T14:31:48.942Z</time></trkpt><trkpt lat="37.0977177" lon="22.1779789"><ele>285.0</ele><time>2026-04-29T14:31:49.944Z</time></trkpt><trkpt lat="37.097609" lon="22.1779537"><ele>285.0</ele><time>2026-04-29T14:31:50.944Z</time></trkpt><trkpt lat="37.0974956" lon="22.1779366"><ele>285.0</ele><time>2026-04-29T14:31:51.939Z</time></trkpt><trkpt lat="37.0973782" lon="22.1779319"><ele>285.0</ele><time>2026-04-29T14:31:52.943Z</time></trkpt><trkpt lat="37.0972619" lon="22.177947"><ele>284.5</ele><time>2026-04-29T14:31:53.944Z</time></trkpt><trkpt lat="37.0971415" lon="22.17798"><ele>284.0</ele><time>2026-04-29T14:31:54.943Z</time></trkpt><trkpt lat="37.0970249" lon="22.1780148"><ele>283.5</ele><time>2026-04-29T14:31:55.945Z</time></trkpt><trkpt lat="37.0969105" lon="22.1780552"><ele>283.0</ele><time>2026-04-29T14:31:56.943Z</time></trkpt><trkpt lat="37.0968043" lon="22.1780924"><ele>283.0</ele><time>2026-04-29T14:31:57.94Z</time></trkpt><trkpt lat="37.0966953" lon="22.1781035"><ele>283.0</ele><time>2026-04-29T14:31:58.941Z</time></trkpt><trkpt lat="37.096579" lon="22.1781214"><ele>283.0</ele><time>2026-04-29T14:31:59.944Z</time></trkpt><trkpt lat="37.0964635" lon="22.1781195"><ele>283.0</ele><time>2026-04-29T14:32:00.943Z</time></trkpt><trkpt lat="37.0963538" lon="22.1780884"><ele>282.8</ele><time>2026-04-29T14:32:01.944Z</time></trkpt><trkpt lat="37.0962482" lon="22.1780476"><ele>282.6</ele><time>2026-04-29T14:32:02.944Z</time></trkpt><trkpt lat="37.0961585" lon="22.1780047"><ele>282.4</ele><time>2026-04-29T14:32:03.944Z</time></trkpt><trkpt lat="37.0960823" lon="22.1779566"><ele>282.2</ele><time>2026-04-29T14:32:04.943Z</time></trkpt><trkpt lat="37.0960082" lon="22.1778976"><ele>282.0</ele><time>2026-04-29T14:32:05.943Z</time></trkpt><trkpt lat="37.0959427" lon="22.1778361"><ele>282.0</ele><time>2026-04-29T14:32:06.942Z</time></trkpt><trkpt lat="37.0958804" lon="22.1777824"><ele>282.0</ele><time>2026-04-29T14:32:07.943Z</time></trkpt><trkpt lat="37.0958106" lon="22.1777371"><ele>282.0</ele><time>2026-04-29T14:32:08.943Z</time></trkpt><trkpt lat="37.0957386" lon="22.1776689"><ele>282.0</ele><time>2026-04-29T14:32:09.946Z</time></trkpt><trkpt lat="37.0956719" lon="22.1775873"><ele>282.0</ele><time>2026-04-29T14:32:10.943Z</time></trkpt><trkpt lat="37.095571" lon="22.177491"><ele>281.3333333333333</ele><time>2026-04-29T14:32:11.944Z</time></trkpt><trkpt lat="37.0954587" lon="22.1773706"><ele>280.66666666666663</ele><time>2026-04-29T14:32:12.942Z</time></trkpt><trkpt lat="37.0953458" lon="22.1772424"><ele>280.0</ele><time>2026-04-29T14:32:13.942Z</time></trkpt><trkpt lat="37.0952295" lon="22.177112"><ele>280.0</ele><time>2026-04-29T14:32:14.942Z</time></trkpt><trkpt lat="37.0951225" lon="22.1769798"><ele>280.0</ele><time>2026-04-29T14:32:15.944Z</time></trkpt><trkpt lat="37.0950136" lon="22.1768378"><ele>280.0</ele><time>2026-04-29T14:32:16.943Z</time></trkpt><trkpt lat="37.0949149" lon="22.1766869"><ele>291.66666666666663</ele><time>2026-04-29T14:32:17.942Z</time></trkpt><trkpt lat="37.0948251" lon="22.1765323"><ele>303.3333333333333</ele><time>2026-04-29T14:32:18.946Z</time></trkpt><trkpt lat="37.0947456" lon="22.1763691"><ele>315.0</ele><time>2026-04-29T14:32:19.945Z</time></trkpt><trkpt lat="37.0946737" lon="22.1762046"><ele>315.0</ele><time>2026-04-29T14:32:20.943Z</time></trkpt><trkpt lat="37.0946194" lon="22.1760344"><ele>315.0</ele><time>2026-04-29T14:32:21.942Z</time></trkpt><trkpt lat="37.0945808" lon="22.1758601"><ele>315.0</ele><time>2026-04-29T14:32:22.939Z</time></trkpt><trkpt lat="37.0945621" lon="22.1756907"><ele>315.0</ele><time>2026-04-29T14:32:23.944Z</time></trkpt><trkpt lat="37.0945554" lon="22.1755262"><ele>309.6</ele><time>2026-04-29T14:32:24.942Z</time></trkpt><trkpt lat="37.0945563" lon="22.1753831"><ele>304.2</ele><time>2026-04-29T14:32:25.943Z</time></trkpt><trkpt lat="37.0945433" lon="22.1752459"><ele>298.8</ele><time>2026-04-29T14:32:26.946Z</time></trkpt><trkpt lat="37.0945128" lon="22.1751145"><ele>293.4</ele><time>2026-04-29T14:32:27.942Z</time></trkpt><trkpt lat="37.0944542" lon="22.1749922"><ele>288.0</ele><time>2026-04-29T14:32:28.943Z</time></trkpt><trkpt lat="37.0943104" lon="22.1748899"><ele>281.6666666666667</ele><time>2026-04-29T14:32:29.941Z</time></trkpt><trkpt lat="37.0941828" lon="22.1747807"><ele>275.33333333333337</ele><time>2026-04-29T14:32:30.945Z</time></trkpt><trkpt lat="37.094011" lon="22.1746782"><ele>269.0</ele><time>2026-04-29T14:32:31.945Z</time></trkpt><trkpt lat="37.0938668" lon="22.1745771"><ele>269.0</ele><time>2026-04-29T14:32:32.943Z</time></trkpt><trkpt lat="37.0937235" lon="22.174499"><ele>269.0</ele><time>2026-04-29T14:32:33.941Z</time></trkpt><trkpt lat="37.0935602" lon="22.1744513"><ele>269.0</ele><time>2026-04-29T14:32:34.944Z</time></trkpt><trkpt lat="37.0934026" lon="22.1744231"><ele>274.6666666666667</ele><time>2026-04-29T14:32:35.944Z</time></trkpt><trkpt lat="37.0932546" lon="22.1743951"><ele>280.3333333333333</ele><time>2026-04-29T14:32:36.943Z</time></trkpt><trkpt lat="37.0931138" lon="22.1743377"><ele>286.0</ele><time>2026-04-29T14:32:37.943Z</time></trkpt><trkpt lat="37.092957" lon="22.1742719"><ele>286.0</ele><time>2026-04-29T14:32:38.942Z</time></trkpt><trkpt lat="37.0928028" lon="22.1741619"><ele>286.0</ele><time>2026-04-29T14:32:39.946Z</time></trkpt><trkpt lat="37.0926421" lon="22.1740571"><ele>286.0</ele><time>2026-04-29T14:32:40.939Z</time></trkpt><trkpt lat="37.0924877" lon="22.173949"><ele>279.0</ele><time>2026-04-29T14:32:41.943Z</time></trkpt><trkpt lat="37.092352" lon="22.1738356"><ele>272.0</ele><time>2026-04-29T14:32:42.944Z</time></trkpt><trkpt lat="37.0922359" lon="22.17369"><ele>265.0</ele><time>2026-04-29T14:32:43.941Z</time></trkpt><trkpt lat="37.0921363" lon="22.1735075"><ele>265.0</ele><time>2026-04-29T14:32:44.94Z</time></trkpt><trkpt lat="37.0920586" lon="22.173292"><ele>265.0</ele><time>2026-04-29T14:32:45.943Z</time></trkpt><trkpt lat="37.0919749" lon="22.1730674"><ele>265.0</ele><time>2026-04-29T14:32:46.944Z</time></trkpt><trkpt lat="37.0918919" lon="22.1728352"><ele>266.3333333333333</ele><time>2026-04-29T14:32:47.94Z</time></trkpt><trkpt lat="37.0918001" lon="22.1726121"><ele>267.6666666666667</ele><time>2026-04-29T14:32:48.941Z</time></trkpt><trkpt lat="37.0917175" lon="22.1723938"><ele>269.0</ele><time>2026-04-29T14:32:49.944Z</time></trkpt><trkpt lat="37.0916391" lon="22.1721715"><ele>283.6666666666667</ele><time>2026-04-29T14:32:50.944Z</time></trkpt><trkpt lat="37.0915605" lon="22.1719463"><ele>298.3333333333333</ele><time>2026-04-29T14:32:51.941Z</time></trkpt><trkpt lat="37.0914536" lon="22.1717202"><ele>313.0</ele><time>2026-04-29T14:32:52.945Z</time></trkpt><trkpt lat="37.0913759" lon="22.1714868"><ele>315.0</ele><time>2026-04-29T14:32:53.944Z</time></trkpt><trkpt lat="37.0912924" lon="22.1712485"><ele>317.0</ele><time>2026-04-29T14:32:54.943Z</time></trkpt><trkpt lat="37.0912248" lon="22.1710083"><ele>319.0</ele><time>2026-04-29T14:32:55.944Z</time></trkpt><trkpt lat="37.091165" lon="22.1707803"><ele>316.3333333333333</ele><time>2026-04-29T14:32:56.942Z</time></trkpt><trkpt lat="37.0911178" lon="22.1705824"><ele>313.6666666666667</ele><time>2026-04-29T14:32:57.944Z</time></trkpt><trkpt lat="37.0910794" lon="22.1703916"><ele>311.0</ele><time>2026-04-29T14:32:58.943Z</time></trkpt><trkpt lat="37.091041" lon="22.1701881"><ele>311.0</ele><time>2026-04-29T14:32:59.946Z</time></trkpt><trkpt lat="37.0910017" lon="22.1699869"><ele>311.0</ele><time>2026-04-29T14:33:00.941Z</time></trkpt><trkpt lat="37.091001" lon="22.1697758"><ele>311.0</ele><time>2026-04-29T14:33:01.942Z</time></trkpt><trkpt lat="37.0910138" lon="22.1695499"><ele>308.0</ele><time>2026-04-29T14:33:02.942Z</time></trkpt><trkpt lat="37.0910021" lon="22.1693307"><ele>305.0</ele><time>2026-04-29T14:33:03.943Z</time></trkpt><trkpt lat="37.0910191" lon="22.1691214"><ele>302.0</ele><time>2026-04-29T14:33:04.945Z</time></trkpt><trkpt lat="37.0910026" lon="22.1689189"><ele>295.6666666666667</ele><time>2026-04-29T14:33:05.942Z</time></trkpt><trkpt lat="37.0909967" lon="22.1687103"><ele>289.3333333333333</ele><time>2026-04-29T14:33:06.944Z</time></trkpt><trkpt lat="37.0909858" lon="22.1685043"><ele>283.0</ele><time>2026-04-29T14:33:07.943Z</time></trkpt><trkpt lat="37.0909401" lon="22.1683029"><ele>275.3333333333333</ele><time>2026-04-29T14:33:08.942Z</time></trkpt><trkpt lat="37.0908973" lon="22.1680999"><ele>267.6666666666667</ele><time>2026-04-29T14:33:09.944Z</time></trkpt><trkpt lat="37.0908467" lon="22.1678973"><ele>260.0</ele><time>2026-04-29T14:33:10.942Z</time></trkpt><trkpt lat="37.0907872" lon="22.1677037"><ele>279.33333333333337</ele><time>2026-04-29T14:33:11.944Z</time></trkpt><trkpt lat="37.0907026" lon="22.1675085"><ele>298.6666666666667</ele><time>2026-04-29T14:33:12.942Z</time></trkpt><trkpt lat="37.09062" lon="22.1673168"><ele>318.0</ele><time>2026-04-29T14:33:13.942Z</time></trkpt><trkpt lat="37.0905232" lon="22.1671224"><ele>318.0</ele><time>2026-04-29T14:33:14.941Z</time></trkpt><trkpt lat="37.090405" lon="22.166933"><ele>318.0</ele><time>2026-04-29T14:33:15.941Z</time></trkpt><trkpt lat="37.0902952" lon="22.1667503"><ele>318.0</ele><time>2026-04-29T14:33:16.943Z</time></trkpt><trkpt lat="37.0901883" lon="22.1665852"><ele>308.0</ele><time>2026-04-29T14:33:17.944Z</time></trkpt><trkpt lat="37.0901082" lon="22.1664013"><ele>298.0</ele><time>2026-04-29T14:33:18.943Z</time></trkpt><trkpt lat="37.0900358" lon="22.1662201"><ele>288.0</ele><time>2026-04-29T14:33:19.944Z</time></trkpt><trkpt lat="37.0899687" lon="22.1660544"><ele>288.0</ele><time>2026-04-29T14:33:20.944Z</time></trkpt><trkpt lat="37.089913" lon="22.1658994"><ele>288.0</ele><time>2026-04-29T14:33:21.946Z</time></trkpt><trkpt lat="37.0899288" lon="22.1657328"><ele>288.0</ele><time>2026-04-29T14:33:22.944Z</time></trkpt><trkpt lat="37.089909" lon="22.1655748"><ele>288.0</ele><time>2026-04-29T14:33:23.942Z</time></trkpt><trkpt lat="37.0899175" lon="22.1654009"><ele>289.0</ele><time>2026-04-29T14:33:24.942Z</time></trkpt><trkpt lat="37.0899401" lon="22.1652246"><ele>290.0</ele><time>2026-04-29T14:33:25.943Z</time></trkpt><trkpt lat="37.0899304" lon="22.1650493"><ele>291.0</ele><time>2026-04-29T14:33:26.942Z</time></trkpt><trkpt lat="37.0899038" lon="22.1648669"><ele>292.0</ele><time>2026-04-29T14:33:27.942Z</time></trkpt><trkpt lat="37.0898585" lon="22.164706"><ele>292.0</ele><time>2026-04-29T14:33:28.943Z</time></trkpt><trkpt lat="37.089805" lon="22.164558"><ele>292.0</ele><time>2026-04-29T14:33:29.944Z</time></trkpt><trkpt lat="37.0897278" lon="22.1644311"><ele>292.0</ele><time>2026-04-29T14:33:30.944Z</time></trkpt><trkpt lat="37.089632" lon="22.1643229"><ele>292.0</ele><time>2026-04-29T14:33:31.946Z</time></trkpt><trkpt lat="37.0894926" lon="22.1642333"><ele>292.0</ele><time>2026-04-29T14:33:32.943Z</time></trkpt><trkpt lat="37.0893449" lon="22.1641439"><ele>292.0</ele><time>2026-04-29T14:33:33.942Z</time></trkpt><trkpt lat="37.0891947" lon="22.1640563"><ele>292.0</ele><time>2026-04-29T14:33:34.945Z</time></trkpt><trkpt lat="37.0890503" lon="22.163962"><ele>295.0</ele><time>2026-04-29T14:33:35.942Z</time></trkpt><trkpt lat="37.0889129" lon="22.1638731"><ele>298.0</ele><time>2026-04-29T14:33:36.944Z</time></trkpt><trkpt lat="37.0887962" lon="22.1637514"><ele>301.0</ele><time>2026-04-29T14:33:37.941Z</time></trkpt><trkpt lat="37.0886976" lon="22.1636165"><ele>301.0</ele><time>2026-04-29T14:33:38.946Z</time></trkpt><trkpt lat="37.0885456" lon="22.1635238"><ele>301.0</ele><time>2026-04-29T14:33:39.943Z</time></trkpt><trkpt lat="37.0884856" lon="22.1633769"><ele>301.0</ele><time>2026-04-29T14:33:40.943Z</time></trkpt><trkpt lat="37.0883559" lon="22.1632496"><ele>311.0</ele><time>2026-04-29T14:33:41.943Z</time></trkpt><trkpt lat="37.0882401" lon="22.16311"><ele>321.0</ele><time>2026-04-29T14:33:42.944Z</time></trkpt><trkpt lat="37.0881342" lon="22.1629404"><ele>331.0</ele><time>2026-04-29T14:33:43.941Z</time></trkpt><trkpt lat="37.0880297" lon="22.1627431"><ele>331.0</ele><time>2026-04-29T14:33:44.943Z</time></trkpt><trkpt lat="37.0878984" lon="22.1625419"><ele>331.0</ele><time>2026-04-29T14:33:45.945Z</time></trkpt><trkpt lat="37.0877613" lon="22.1623235"><ele>331.0</ele><time>2026-04-29T14:33:46.94Z</time></trkpt><trkpt lat="37.0876372" lon="22.1621459"><ele>324.0</ele><time>2026-04-29T14:33:47.946Z</time></trkpt><trkpt lat="37.0875406" lon="22.1619687"><ele>317.0</ele><time>2026-04-29T14:33:48.945Z</time></trkpt><trkpt lat="37.0874288" lon="22.1618241"><ele>310.0</ele><time>2026-04-29T14:33:49.941Z</time></trkpt><trkpt lat="37.0873318" lon="22.1617007"><ele>310.0</ele><time>2026-04-29T14:33:50.942Z</time></trkpt><trkpt lat="37.0872285" lon="22.1616751"><ele>310.0</ele><time>2026-04-29T14:33:51.944Z</time></trkpt><trkpt lat="37.0871412" lon="22.1616504"><ele>310.0</ele><time>2026-04-29T14:33:52.943Z</time></trkpt><trkpt lat="37.0870266" lon="22.1616675"><ele>310.0</ele><time>2026-04-29T14:33:53.945Z</time></trkpt><trkpt lat="37.0869167" lon="22.1617075"><ele>310.0</ele><time>2026-04-29T14:33:54.944Z</time></trkpt><trkpt lat="37.0868153" lon="22.1617405"><ele>310.0</ele><time>2026-04-29T14:33:55.942Z</time></trkpt><trkpt lat="37.0867299" lon="22.1617463"><ele>310.0</ele><time>2026-04-29T14:33:56.945Z</time></trkpt><trkpt lat="37.0866399" lon="22.1617456"><ele>310.0</ele><time>2026-04-29T14:33:57.941Z</time></trkpt><trkpt lat="37.0865563" lon="22.1617408"><ele>310.0</ele><time>2026-04-29T14:33:58.944Z</time></trkpt><trkpt lat="37.0864262" lon="22.1615614"><ele>321.3333333333333</ele><time>2026-04-29T14:33:59.942Z</time></trkpt><trkpt lat="37.0863262" lon="22.1614008"><ele>332.6666666666667</ele><time>2026-04-29T14:34:00.941Z</time></trkpt><trkpt lat="37.086427" lon="22.1611615"><ele>344.0</ele><time>2026-04-29T14:34:01.943Z</time></trkpt><trkpt lat="37.0863818" lon="22.1609368"><ele>344.0</ele><time>2026-04-29T14:34:02.944Z</time></trkpt><trkpt lat="37.0863215" lon="22.1607517"><ele>344.0</ele><time>2026-04-29T14:34:03.945Z</time></trkpt><trkpt lat="37.086186" lon="22.1606001"><ele>344.0</ele><time>2026-04-29T14:34:04.946Z</time></trkpt><trkpt lat="37.0860594" lon="22.1604167"><ele>350.0</ele><time>2026-04-29T14:34:05.942Z</time></trkpt><trkpt lat="37.0859046" lon="22.1602494"><ele>356.0</ele><time>2026-04-29T14:34:06.945Z</time></trkpt><trkpt lat="37.0857662" lon="22.1601036"><ele>362.0</ele><time>2026-04-29T14:34:07.943Z</time></trkpt><trkpt lat="37.0855901" lon="22.1600008"><ele>362.0</ele><time>2026-04-29T14:34:08.943Z</time></trkpt><trkpt lat="37.0854446" lon="22.1599023"><ele>362.0</ele><time>2026-04-29T14:34:09.945Z</time></trkpt><trkpt lat="37.0852988" lon="22.1598265"><ele>362.0</ele><time>2026-04-29T14:34:10.94Z</time></trkpt><trkpt lat="37.0851584" lon="22.1597476"><ele>367.6666666666667</ele><time>2026-04-29T14:34:11.944Z</time></trkpt><trkpt lat="37.0850451" lon="22.1596205"><ele>373.3333333333333</ele><time>2026-04-29T14:34:12.942Z</time></trkpt><trkpt lat="37.0849223" lon="22.1594774"><ele>379.0</ele><time>2026-04-29T14:34:13.941Z</time></trkpt><trkpt lat="37.0848349" lon="22.1593048"><ele>379.0</ele><time>2026-04-29T14:34:14.943Z</time></trkpt><trkpt lat="37.0847298" lon="22.1591349"><ele>379.0</ele><time>2026-04-29T14:34:15.944Z</time></trkpt><trkpt lat="37.0846609" lon="22.1589563"><ele>379.0</ele><time>2026-04-29T14:34:16.945Z</time></trkpt><trkpt lat="37.0846127" lon="22.1587632"><ele>367.3333333333333</ele><time>2026-04-29T14:34:17.944Z</time></trkpt><trkpt lat="37.0845713" lon="22.1585549"><ele>355.6666666666667</ele><time>2026-04-29T14:34:18.943Z</time></trkpt><trkpt lat="37.0845435" lon="22.1583514"><ele>344.0</ele><time>2026-04-29T14:34:19.942Z</time></trkpt><trkpt lat="37.0845089" lon="22.158155"><ele>335.5</ele><time>2026-04-29T14:34:20.943Z</time></trkpt><trkpt lat="37.0844681" lon="22.157978"><ele>327.0</ele><time>2026-04-29T14:34:21.942Z</time></trkpt><trkpt lat="37.0844194" lon="22.1578277"><ele>318.5</ele><time>2026-04-29T14:34:22.941Z</time></trkpt><trkpt lat="37.0843636" lon="22.1577012"><ele>310.0</ele><time>2026-04-29T14:34:23.942Z</time></trkpt><trkpt lat="37.0842778" lon="22.1576503"><ele>310.0</ele><time>2026-04-29T14:34:24.945Z</time></trkpt><trkpt lat="37.0841873" lon="22.1576214"><ele>310.0</ele><time>2026-04-29T14:34:25.944Z</time></trkpt><trkpt lat="37.0840637" lon="22.1576223"><ele>310.0</ele><time>2026-04-29T14:34:26.944Z</time></trkpt><trkpt lat="37.0838751" lon="22.1577095"><ele>310.0</ele><time>2026-04-29T14:34:27.946Z</time></trkpt><trkpt lat="37.0837081" lon="22.1577635"><ele>313.5</ele><time>2026-04-29T14:34:28.943Z</time></trkpt><trkpt lat="37.083548" lon="22.1578154"><ele>317.0</ele><time>2026-04-29T14:34:29.943Z</time></trkpt><trkpt lat="37.083407" lon="22.1578542"><ele>320.5</ele><time>2026-04-29T14:34:30.943Z</time></trkpt><trkpt lat="37.0832815" lon="22.1578817"><ele>324.0</ele><time>2026-04-29T14:34:31.946Z</time></trkpt><trkpt lat="37.0831991" lon="22.1578434"><ele>336.5</ele><time>2026-04-29T14:34:32.941Z</time></trkpt><trkpt lat="37.0831146" lon="22.1578165"><ele>349.0</ele><time>2026-04-29T14:34:33.945Z</time></trkpt><trkpt lat="37.0830412" lon="22.1577201"><ele>361.5</ele><time>2026-04-29T14:34:34.939Z</time></trkpt><trkpt lat="37.083049" lon="22.1575436"><ele>374.0</ele><time>2026-04-29T14:34:35.944Z</time></trkpt><trkpt lat="37.0830408" lon="22.1573894"><ele>379.33333333333337</ele><time>2026-04-29T14:34:36.942Z</time></trkpt><trkpt lat="37.0830966" lon="22.1571763"><ele>384.6666666666667</ele><time>2026-04-29T14:34:37.942Z</time></trkpt><trkpt lat="37.0831883" lon="22.1569345"><ele>390.0</ele><time>2026-04-29T14:34:38.944Z</time></trkpt><trkpt lat="37.0832603" lon="22.1567042"><ele>374.0</ele><time>2026-04-29T14:34:39.944Z</time></trkpt><trkpt lat="37.0833228" lon="22.1564933"><ele>358.0</ele><time>2026-04-29T14:34:40.94Z</time></trkpt><trkpt lat="37.0833666" lon="22.1562964"><ele>342.0</ele><time>2026-04-29T14:34:41.942Z</time></trkpt><trkpt lat="37.0834042" lon="22.1561139"><ele>342.0</ele><time>2026-04-29T14:34:42.944Z</time></trkpt><trkpt lat="37.0834407" lon="22.1559396"><ele>342.0</ele><time>2026-04-29T14:34:43.945Z</time></trkpt><trkpt lat="37.0834795" lon="22.1557975"><ele>342.0</ele><time>2026-04-29T14:34:44.944Z</time></trkpt><trkpt lat="37.083501" lon="22.1556904"><ele>342.0</ele><time>2026-04-29T14:34:45.945Z</time></trkpt><trkpt lat="37.0834991" lon="22.1555954"><ele>342.0</ele><time>2026-04-29T14:34:46.944Z</time></trkpt><trkpt lat="37.083463" lon="22.1555163"><ele>341.8333333333333</ele><time>2026-04-29T14:34:47.944Z</time></trkpt><trkpt lat="37.0833997" lon="22.1554804"><ele>341.6666666666667</ele><time>2026-04-29T14:34:48.943Z</time></trkpt><trkpt lat="37.0833308" lon="22.1554868"><ele>341.5</ele><time>2026-04-29T14:34:49.943Z</time></trkpt><trkpt lat="37.0832677" lon="22.1555582"><ele>341.33333333333337</ele><time>2026-04-29T14:34:50.944Z</time></trkpt><trkpt lat="37.0832172" lon="22.1556371"><ele>341.1666666666667</ele><time>2026-04-29T14:34:51.945Z</time></trkpt><trkpt lat="37.0831788" lon="22.1557596"><ele>341.0</ele><time>2026-04-29T14:34:52.941Z</time></trkpt><trkpt lat="37.0831963" lon="22.1559815"><ele>353.25</ele><time>2026-04-29T14:34:53.943Z</time></trkpt><trkpt lat="37.0831846" lon="22.1561335"><ele>365.5</ele><time>2026-04-29T14:34:54.944Z</time></trkpt><trkpt lat="37.0831674" lon="22.1562939"><ele>377.75</ele><time>2026-04-29T14:34:55.944Z</time></trkpt><trkpt lat="37.0831333" lon="22.1564347"><ele>390.0</ele><time>2026-04-29T14:34:56.942Z</time></trkpt><trkpt lat="37.0830863" lon="22.1565974"><ele>390.0</ele><time>2026-04-29T14:34:57.944Z</time></trkpt><trkpt lat="37.0830384" lon="22.1567554"><ele>390.0</ele><time>2026-04-29T14:34:58.943Z</time></trkpt><trkpt lat="37.0829471" lon="22.1569456"><ele>390.0</ele><time>2026-04-29T14:34:59.944Z</time></trkpt><trkpt lat="37.0828765" lon="22.1571297"><ele>390.0</ele><time>2026-04-29T14:35:00.943Z</time></trkpt><trkpt lat="37.0828029" lon="22.1573119"><ele>390.0</ele><time>2026-04-29T14:35:01.945Z</time></trkpt><trkpt lat="37.082749" lon="22.1575004"><ele>390.0</ele><time>2026-04-29T14:35:02.944Z</time></trkpt><trkpt lat="37.0827041" lon="22.1576891"><ele>384.6666666666667</ele><time>2026-04-29T14:35:03.942Z</time></trkpt><trkpt lat="37.0826722" lon="22.1578809"><ele>379.33333333333337</ele><time>2026-04-29T14:35:04.946Z</time></trkpt><trkpt lat="37.0826411" lon="22.158074"><ele>374.0</ele><time>2026-04-29T14:35:05.943Z</time></trkpt><trkpt lat="37.0826208" lon="22.1582617"><ele>373.75</ele><time>2026-04-29T14:35:06.943Z</time></trkpt><trkpt lat="37.0826492" lon="22.1584339"><ele>373.5</ele><time>2026-04-29T14:35:07.944Z</time></trkpt><trkpt lat="37.0826659" lon="22.1585982"><ele>373.25</ele><time>2026-04-29T14:35:08.945Z</time></trkpt><trkpt lat="37.0826754" lon="22.1587269"><ele>373.0</ele><time>2026-04-29T14:35:09.944Z</time></trkpt><trkpt lat="37.0826795" lon="22.1588342"><ele>373.0</ele><time>2026-04-29T14:35:10.943Z</time></trkpt><trkpt lat="37.0826716" lon="22.1589239"><ele>373.0</ele><time>2026-04-29T14:35:11.943Z</time></trkpt><trkpt lat="37.0826529" lon="22.1590006"><ele>373.0</ele><time>2026-04-29T14:35:12.944Z</time></trkpt><trkpt lat="37.0825454" lon="22.1589766"><ele>373.0</ele><time>2026-04-29T14:35:14.945Z</time></trkpt><trkpt lat="37.0825043" lon="22.1588881"><ele>373.0</ele><time>2026-04-29T14:35:15.944Z</time></trkpt><trkpt lat="37.0824747" lon="22.1587432"><ele>373.0</ele><time>2026-04-29T14:35:16.941Z</time></trkpt><trkpt lat="37.0824667" lon="22.1585695"><ele>373.0</ele><time>2026-04-29T14:35:17.944Z</time></trkpt><trkpt lat="37.0824785" lon="22.1583727"><ele>373.0</ele><time>2026-04-29T14:35:18.943Z</time></trkpt><trkpt lat="37.0824861" lon="22.1581687"><ele>373.0</ele><time>2026-04-29T14:35:19.943Z</time></trkpt><trkpt lat="37.0825298" lon="22.1579622"><ele>373.3333333333333</ele><time>2026-04-29T14:35:20.941Z</time></trkpt><trkpt lat="37.0825691" lon="22.1577612"><ele>373.6666666666667</ele><time>2026-04-29T14:35:21.945Z</time></trkpt><trkpt lat="37.0826147" lon="22.1575578"><ele>374.0</ele><time>2026-04-29T14:35:22.944Z</time></trkpt><trkpt lat="37.0826811" lon="22.1573532"><ele>379.33333333333337</ele><time>2026-04-29T14:35:23.943Z</time></trkpt><trkpt lat="37.0827449" lon="22.1571499"><ele>384.6666666666667</ele><time>2026-04-29T14:35:24.943Z</time></trkpt><trkpt lat="37.0828005" lon="22.1569408"><ele>390.0</ele><time>2026-04-29T14:35:25.944Z</time></trkpt><trkpt lat="37.0828555" lon="22.1567355"><ele>391.33333333333337</ele><time>2026-04-29T14:35:26.944Z</time></trkpt><trkpt lat="37.0828993" lon="22.1565196"><ele>392.6666666666667</ele><time>2026-04-29T14:35:27.944Z</time></trkpt><trkpt lat="37.0829426" lon="22.1562986"><ele>394.0</ele><time>2026-04-29T14:35:28.946Z</time></trkpt><trkpt lat="37.082978" lon="22.1560711"><ele>394.0</ele><time>2026-04-29T14:35:29.944Z</time></trkpt><trkpt lat="37.083014" lon="22.1558517"><ele>394.0</ele><time>2026-04-29T14:35:30.943Z</time></trkpt><trkpt lat="37.083007" lon="22.1556514"><ele>394.0</ele><time>2026-04-29T14:35:31.942Z</time></trkpt><trkpt lat="37.0830256" lon="22.1554645"><ele>393.75</ele><time>2026-04-29T14:35:32.941Z</time></trkpt><trkpt lat="37.083043" lon="22.1552938"><ele>393.5</ele><time>2026-04-29T14:35:33.944Z</time></trkpt><trkpt lat="37.0830764" lon="22.1551323"><ele>393.25</ele><time>2026-04-29T14:35:34.944Z</time></trkpt><trkpt lat="37.0830968" lon="22.1549923"><ele>393.0</ele><time>2026-04-29T14:35:35.943Z</time></trkpt><trkpt lat="37.0831109" lon="22.1548698"><ele>391.4</ele><time>2026-04-29T14:35:36.946Z</time></trkpt><trkpt lat="37.0831098" lon="22.1547437"><ele>389.79999999999995</ele><time>2026-04-29T14:35:37.943Z</time></trkpt><trkpt lat="37.0830952" lon="22.154643"><ele>388.2</ele><time>2026-04-29T14:35:38.944Z</time></trkpt><trkpt lat="37.0830507" lon="22.1545717"><ele>386.6</ele><time>2026-04-29T14:35:39.944Z</time></trkpt><trkpt lat="37.0829379" lon="22.15456"><ele>385.0</ele><time>2026-04-29T14:35:40.944Z</time></trkpt><trkpt lat="37.0828654" lon="22.1546675"><ele>385.0</ele><time>2026-04-29T14:35:41.945Z</time></trkpt><trkpt lat="37.082805" lon="22.1547454"><ele>385.0</ele><time>2026-04-29T14:35:42.944Z</time></trkpt><trkpt lat="37.0827688" lon="22.1548705"><ele>385.0</ele><time>2026-04-29T14:35:43.946Z</time></trkpt><trkpt lat="37.0827248" lon="22.1550114"><ele>385.0</ele><time>2026-04-29T14:35:44.943Z</time></trkpt><trkpt lat="37.0826786" lon="22.1551853"><ele>387.6666666666667</ele><time>2026-04-29T14:35:45.944Z</time></trkpt><trkpt lat="37.0826235" lon="22.1554032"><ele>390.33333333333337</ele><time>2026-04-29T14:35:46.945Z</time></trkpt><trkpt lat="37.0826015" lon="22.1555803"><ele>393.0</ele><time>2026-04-29T14:35:47.943Z</time></trkpt><trkpt lat="37.0825828" lon="22.1557627"><ele>393.33333333333337</ele><time>2026-04-29T14:35:48.945Z</time></trkpt><trkpt lat="37.0825754" lon="22.155977"><ele>393.6666666666667</ele><time>2026-04-29T14:35:49.943Z</time></trkpt><trkpt lat="37.0825952" lon="22.1561745"><ele>394.0</ele><time>2026-04-29T14:35:50.944Z</time></trkpt><trkpt lat="37.082569" lon="22.156367"><ele>392.6666666666667</ele><time>2026-04-29T14:35:51.944Z</time></trkpt><trkpt lat="37.0825264" lon="22.1565898"><ele>391.33333333333337</ele><time>2026-04-29T14:35:52.943Z</time></trkpt><trkpt lat="37.0824504" lon="22.1567939"><ele>390.0</ele><time>2026-04-29T14:35:53.944Z</time></trkpt><trkpt lat="37.0823577" lon="22.157068"><ele>404.5</ele><time>2026-04-29T14:35:54.944Z</time></trkpt><trkpt lat="37.0822575" lon="22.1573419"><ele>419.0</ele><time>2026-04-29T14:35:55.944Z</time></trkpt><trkpt lat="37.082169" lon="22.1576156"><ele>419.0</ele><time>2026-04-29T14:35:56.941Z</time></trkpt><trkpt lat="37.0820765" lon="22.1578752"><ele>419.0</ele><time>2026-04-29T14:35:57.942Z</time></trkpt><trkpt lat="37.082028" lon="22.1581359"><ele>419.0</ele><time>2026-04-29T14:35:58.943Z</time></trkpt><trkpt lat="37.0820409" lon="22.1583748"><ele>419.3333333333333</ele><time>2026-04-29T14:35:59.941Z</time></trkpt><trkpt lat="37.0820291" lon="22.1586253"><ele>419.66666666666663</ele><time>2026-04-29T14:36:00.945Z</time></trkpt><trkpt lat="37.0820271" lon="22.1588624"><ele>420.0</ele><time>2026-04-29T14:36:01.946Z</time></trkpt><trkpt lat="37.0820727" lon="22.1591129"><ele>422.33333333333337</ele><time>2026-04-29T14:36:02.943Z</time></trkpt><trkpt lat="37.082115" lon="22.1593663"><ele>424.6666666666667</ele><time>2026-04-29T14:36:03.946Z</time></trkpt><trkpt lat="37.0821627" lon="22.1596125"><ele>427.0</ele><time>2026-04-29T14:36:04.943Z</time></trkpt><trkpt lat="37.0822205" lon="22.1598389"><ele>431.25</ele><time>2026-04-29T14:36:05.943Z</time></trkpt><trkpt lat="37.0822918" lon="22.1599963"><ele>435.5</ele><time>2026-04-29T14:36:06.943Z</time></trkpt><trkpt lat="37.0823407" lon="22.1601813"><ele>439.75</ele><time>2026-04-29T14:36:07.944Z</time></trkpt><trkpt lat="37.0823892" lon="22.1603142"><ele>444.0</ele><time>2026-04-29T14:36:08.944Z</time></trkpt><trkpt lat="37.0824187" lon="22.1604552"><ele>444.0</ele><time>2026-04-29T14:36:09.944Z</time></trkpt><trkpt lat="37.082434" lon="22.1605406"><ele>444.0</ele><time>2026-04-29T14:36:10.944Z</time></trkpt><trkpt lat="37.0824026" lon="22.1606607"><ele>444.0</ele><time>2026-04-29T14:36:12.944Z</time></trkpt><trkpt lat="37.0822978" lon="22.1605979"><ele>444.0</ele><time>2026-04-29T14:36:14.944Z</time></trkpt><trkpt lat="37.0822542" lon="22.1605154"><ele>444.0</ele><time>2026-04-29T14:36:15.942Z</time></trkpt><trkpt lat="37.0821839" lon="22.1603842"><ele>444.0</ele><time>2026-04-29T14:36:16.945Z</time></trkpt><trkpt lat="37.0821009" lon="22.1601018"><ele>444.0</ele><time>2026-04-29T14:36:17.944Z</time></trkpt><trkpt lat="37.0820573" lon="22.1598778"><ele>444.0</ele><time>2026-04-29T14:36:18.942Z</time></trkpt><trkpt lat="37.0819478" lon="22.159503"><ele>438.33333333333337</ele><time>2026-04-29T14:36:19.945Z</time></trkpt><trkpt lat="37.0818846" lon="22.1592757"><ele>432.6666666666667</ele><time>2026-04-29T14:36:20.945Z</time></trkpt><trkpt lat="37.0818156" lon="22.1590451"><ele>427.0</ele><time>2026-04-29T14:36:21.943Z</time></trkpt><trkpt lat="37.0818356" lon="22.1587773"><ele>424.6666666666667</ele><time>2026-04-29T14:36:22.944Z</time></trkpt><trkpt lat="37.0818362" lon="22.1585259"><ele>422.33333333333337</ele><time>2026-04-29T14:36:23.942Z</time></trkpt><trkpt lat="37.0818409" lon="22.1582512"><ele>420.0</ele><time>2026-04-29T14:36:24.943Z</time></trkpt><trkpt lat="37.0818619" lon="22.1579575"><ele>419.66666666666663</ele><time>2026-04-29T14:36:25.943Z</time></trkpt><trkpt lat="37.0818914" lon="22.1576818"><ele>419.3333333333333</ele><time>2026-04-29T14:36:26.943Z</time></trkpt><trkpt lat="37.0819109" lon="22.1574154"><ele>419.0</ele><time>2026-04-29T14:36:27.946Z</time></trkpt><trkpt lat="37.0819206" lon="22.1571497"><ele>419.66666666666663</ele><time>2026-04-29T14:36:28.943Z</time></trkpt><trkpt lat="37.0819128" lon="22.1568738"><ele>420.33333333333337</ele><time>2026-04-29T14:36:29.943Z</time></trkpt><trkpt lat="37.0818951" lon="22.1565907"><ele>421.0</ele><time>2026-04-29T14:36:30.945Z</time></trkpt><trkpt lat="37.0818793" lon="22.156305"><ele>422.0</ele><time>2026-04-29T14:36:31.944Z</time></trkpt><trkpt lat="37.0818481" lon="22.1560248"><ele>423.0</ele><time>2026-04-29T14:36:32.94Z</time></trkpt><trkpt lat="37.0818204" lon="22.1557494"><ele>424.0</ele><time>2026-04-29T14:36:33.945Z</time></trkpt><trkpt lat="37.0817963" lon="22.1554841"><ele>425.0</ele><time>2026-04-29T14:36:34.941Z</time></trkpt><trkpt lat="37.0817762" lon="22.1552292"><ele>426.0</ele><time>2026-04-29T14:36:35.943Z</time></trkpt><trkpt lat="37.0817606" lon="22.154987"><ele>427.0</ele><time>2026-04-29T14:36:36.942Z</time></trkpt><trkpt lat="37.0817456" lon="22.1547583"><ele>427.0</ele><time>2026-04-29T14:36:37.944Z</time></trkpt><trkpt lat="37.0817323" lon="22.1545383"><ele>427.0</ele><time>2026-04-29T14:36:38.943Z</time></trkpt><trkpt lat="37.0817212" lon="22.1543329"><ele>427.0</ele><time>2026-04-29T14:36:39.943Z</time></trkpt><trkpt lat="37.0816955" lon="22.154159"><ele>427.5</ele><time>2026-04-29T14:36:40.944Z</time></trkpt><trkpt lat="37.0816466" lon="22.154004"><ele>428.0</ele><time>2026-04-29T14:36:41.944Z</time></trkpt><trkpt lat="37.0815672" lon="22.1538783"><ele>428.5</ele><time>2026-04-29T14:36:42.944Z</time></trkpt><trkpt lat="37.0814633" lon="22.153773"><ele>429.0</ele><time>2026-04-29T14:36:43.943Z</time></trkpt><trkpt lat="37.0813297" lon="22.153715"><ele>429.0</ele><time>2026-04-29T14:36:44.944Z</time></trkpt><trkpt lat="37.0811682" lon="22.1536992"><ele>429.0</ele><time>2026-04-29T14:36:45.945Z</time></trkpt><trkpt lat="37.0809918" lon="22.1537082"><ele>429.0</ele><time>2026-04-29T14:36:46.941Z</time></trkpt><trkpt lat="37.0808146" lon="22.1537437"><ele>432.33333333333337</ele><time>2026-04-29T14:36:47.943Z</time></trkpt><trkpt lat="37.0806482" lon="22.1537806"><ele>435.6666666666667</ele><time>2026-04-29T14:36:48.946Z</time></trkpt><trkpt lat="37.0804952" lon="22.1537907"><ele>439.0</ele><time>2026-04-29T14:36:49.942Z</time></trkpt><trkpt lat="37.0803561" lon="22.1537742"><ele>439.0</ele><time>2026-04-29T14:36:50.942Z</time></trkpt><trkpt lat="37.0802423" lon="22.1537246"><ele>439.0</ele><time>2026-04-29T14:36:51.944Z</time></trkpt><trkpt lat="37.0801196" lon="22.1536413"><ele>439.0</ele><time>2026-04-29T14:36:52.945Z</time></trkpt><trkpt lat="37.0800065" lon="22.1535047"><ele>439.0</ele><time>2026-04-29T14:36:53.938Z</time></trkpt><trkpt lat="37.079901" lon="22.15339"><ele>438.5</ele><time>2026-04-29T14:36:54.942Z</time></trkpt><trkpt lat="37.079785" lon="22.1533107"><ele>438.0</ele><time>2026-04-29T14:36:55.943Z</time></trkpt><trkpt lat="37.0796572" lon="22.153263"><ele>437.5</ele><time>2026-04-29T14:36:56.944Z</time></trkpt><trkpt lat="37.079519" lon="22.153247"><ele>437.0</ele><time>2026-04-29T14:36:57.942Z</time></trkpt><trkpt lat="37.079381" lon="22.1532418"><ele>437.0</ele><time>2026-04-29T14:36:58.943Z</time></trkpt><trkpt lat="37.0792605" lon="22.1532911"><ele>437.00000000000006</ele><time>2026-04-29T14:36:59.943Z</time></trkpt><trkpt lat="37.0791548" lon="22.1533364"><ele>437.00000000000006</ele><time>2026-04-29T14:37:00.943Z</time></trkpt><trkpt lat="37.0790672" lon="22.1534057"><ele>437.0</ele><time>2026-04-29T14:37:01.941Z</time></trkpt><trkpt lat="37.0790009" lon="22.1535099"><ele>437.0</ele><time>2026-04-29T14:37:02.946Z</time></trkpt><trkpt lat="37.0789422" lon="22.153613"><ele>435.20000000000005</ele><time>2026-04-29T14:37:03.94Z</time></trkpt><trkpt lat="37.0788841" lon="22.1537202"><ele>433.40000000000003</ele><time>2026-04-29T14:37:04.941Z</time></trkpt><trkpt lat="37.0788281" lon="22.1538282"><ele>431.59999999999997</ele><time>2026-04-29T14:37:05.943Z</time></trkpt><trkpt lat="37.0787768" lon="22.1539312"><ele>429.79999999999995</ele><time>2026-04-29T14:37:06.941Z</time></trkpt><trkpt lat="37.0787275" lon="22.1540362"><ele>428.0</ele><time>2026-04-29T14:37:07.943Z</time></trkpt><trkpt lat="37.0786837" lon="22.1541441"><ele>428.0</ele><time>2026-04-29T14:37:08.943Z</time></trkpt><trkpt lat="37.0786415" lon="22.154258"><ele>427.99999999999994</ele><time>2026-04-29T14:37:09.94Z</time></trkpt><trkpt lat="37.0785994" lon="22.1543786"><ele>427.99999999999994</ele><time>2026-04-29T14:37:10.942Z</time></trkpt><trkpt lat="37.0785563" lon="22.1545004"><ele>428.0</ele><time>2026-04-29T14:37:11.943Z</time></trkpt><trkpt lat="37.0785117" lon="22.154632"><ele>428.0</ele><time>2026-04-29T14:37:12.941Z</time></trkpt><trkpt lat="37.0784673" lon="22.1547716"><ele>429.0</ele><time>2026-04-29T14:37:13.943Z</time></trkpt><trkpt lat="37.0784233" lon="22.1549164"><ele>430.0</ele><time>2026-04-29T14:37:14.946Z</time></trkpt><trkpt lat="37.0783746" lon="22.1550501"><ele>431.0</ele><time>2026-04-29T14:37:15.94Z</time></trkpt><trkpt lat="37.0783157" lon="22.1551669"><ele>432.0</ele><time>2026-04-29T14:37:16.946Z</time></trkpt><trkpt lat="37.0782504" lon="22.1552692"><ele>430.20000000000005</ele><time>2026-04-29T14:37:17.94Z</time></trkpt><trkpt lat="37.0781621" lon="22.1553455"><ele>428.40000000000003</ele><time>2026-04-29T14:37:18.941Z</time></trkpt><trkpt lat="37.0780735" lon="22.1554255"><ele>426.6</ele><time>2026-04-29T14:37:19.943Z</time></trkpt><trkpt lat="37.0779816" lon="22.155482"><ele>424.79999999999995</ele><time>2026-04-29T14:37:20.944Z</time></trkpt><trkpt lat="37.0778796" lon="22.1555195"><ele>423.0</ele><time>2026-04-29T14:37:21.945Z</time></trkpt><trkpt lat="37.0777709" lon="22.1555276"><ele>423.0</ele><time>2026-04-29T14:37:22.94Z</time></trkpt><trkpt lat="37.0776672" lon="22.1555222"><ele>423.0</ele><time>2026-04-29T14:37:23.942Z</time></trkpt><trkpt lat="37.0775707" lon="22.1554957"><ele>423.0</ele><time>2026-04-29T14:37:24.943Z</time></trkpt><trkpt lat="37.0774649" lon="22.1554427"><ele>423.0</ele><time>2026-04-29T14:37:25.943Z</time></trkpt><trkpt lat="37.077362" lon="22.1553755"><ele>423.0</ele><time>2026-04-29T14:37:26.944Z</time></trkpt><trkpt lat="37.0772579" lon="22.155295"><ele>423.0</ele><time>2026-04-29T14:37:27.943Z</time></trkpt><trkpt lat="37.0771485" lon="22.1552224"><ele>423.0</ele><time>2026-04-29T14:37:28.944Z</time></trkpt><trkpt lat="37.0770365" lon="22.1551452"><ele>423.0</ele><time>2026-04-29T14:37:29.941Z</time></trkpt><trkpt lat="37.0769181" lon="22.1550687"><ele>423.0</ele><time>2026-04-29T14:37:30.942Z</time></trkpt><trkpt lat="37.0768053" lon="22.1549891"><ele>423.0</ele><time>2026-04-29T14:37:31.946Z</time></trkpt><trkpt lat="37.0766915" lon="22.1549128"><ele>423.0</ele><time>2026-04-29T14:37:32.943Z</time></trkpt><trkpt lat="37.0765818" lon="22.1548296"><ele>423.0</ele><time>2026-04-29T14:37:33.94Z</time></trkpt><trkpt lat="37.0764767" lon="22.1547287"><ele>423.0</ele><time>2026-04-29T14:37:34.942Z</time></trkpt><trkpt lat="37.0763703" lon="22.1546162"><ele>421.0</ele><time>2026-04-29T14:37:35.94Z</time></trkpt><trkpt lat="37.0762758" lon="22.154496"><ele>419.0</ele><time>2026-04-29T14:37:36.943Z</time></trkpt><trkpt lat="37.0761703" lon="22.154367"><ele>417.0</ele><time>2026-04-29T14:37:37.941Z</time></trkpt><trkpt lat="37.0760665" lon="22.154243"><ele>415.0</ele><time>2026-04-29T14:37:38.941Z</time></trkpt><trkpt lat="37.0759614" lon="22.1541259"><ele>411.25</ele><time>2026-04-29T14:37:39.941Z</time></trkpt><trkpt lat="37.075864" lon="22.1540253"><ele>407.5</ele><time>2026-04-29T14:37:40.942Z</time></trkpt><trkpt lat="37.0757555" lon="22.1539545"><ele>403.75</ele><time>2026-04-29T14:37:41.942Z</time></trkpt><trkpt lat="37.0756483" lon="22.1539085"><ele>400.0</ele><time>2026-04-29T14:37:42.946Z</time></trkpt><trkpt lat="37.0755234" lon="22.1538817"><ele>397.25</ele><time>2026-04-29T14:37:43.942Z</time></trkpt><trkpt lat="37.0753983" lon="22.1538836"><ele>394.5</ele><time>2026-04-29T14:37:44.943Z</time></trkpt><trkpt lat="37.0752671" lon="22.1539016"><ele>391.75</ele><time>2026-04-29T14:37:45.944Z</time></trkpt><trkpt lat="37.0751398" lon="22.1539393"><ele>389.0</ele><time>2026-04-29T14:37:46.943Z</time></trkpt><trkpt lat="37.0750123" lon="22.1539885"><ele>388.75</ele><time>2026-04-29T14:37:47.946Z</time></trkpt><trkpt lat="37.0748873" lon="22.1540529"><ele>388.5</ele><time>2026-04-29T14:37:48.943Z</time></trkpt><trkpt lat="37.0747741" lon="22.1541497"><ele>388.25</ele><time>2026-04-29T14:37:49.943Z</time></trkpt><trkpt lat="37.0746698" lon="22.1542607"><ele>388.0</ele><time>2026-04-29T14:37:50.943Z</time></trkpt><trkpt lat="37.074573" lon="22.1543955"><ele>388.0</ele><time>2026-04-29T14:37:51.945Z</time></trkpt><trkpt lat="37.0744846" lon="22.1545494"><ele>388.0</ele><time>2026-04-29T14:37:52.944Z</time></trkpt><trkpt lat="37.0744053" lon="22.1547086"><ele>388.0</ele><time>2026-04-29T14:37:53.943Z</time></trkpt><trkpt lat="37.0743378" lon="22.1548879"><ele>392.33333333333337</ele><time>2026-04-29T14:37:54.941Z</time></trkpt><trkpt lat="37.0742702" lon="22.1550782"><ele>396.66666666666663</ele><time>2026-04-29T14:37:55.945Z</time></trkpt><trkpt lat="37.074201" lon="22.155276"><ele>401.0</ele><time>2026-04-29T14:37:56.945Z</time></trkpt><trkpt lat="37.0741341" lon="22.1554605"><ele>395.0</ele><time>2026-04-29T14:37:57.944Z</time></trkpt><trkpt lat="37.0740628" lon="22.1556387"><ele>389.0</ele><time>2026-04-29T14:37:58.943Z</time></trkpt><trkpt lat="37.0739843" lon="22.1558128"><ele>383.0</ele><time>2026-04-29T14:37:59.943Z</time></trkpt><trkpt lat="37.0738964" lon="22.1559851"><ele>383.0</ele><time>2026-04-29T14:38:00.944Z</time></trkpt><trkpt lat="37.0737931" lon="22.1561539"><ele>383.0</ele><time>2026-04-29T14:38:01.944Z</time></trkpt><trkpt lat="37.0736811" lon="22.1563132"><ele>383.0</ele><time>2026-04-29T14:38:02.943Z</time></trkpt><trkpt lat="37.0735641" lon="22.1564729"><ele>383.0</ele><time>2026-04-29T14:38:03.943Z</time></trkpt><trkpt lat="37.073439" lon="22.1566311"><ele>383.0</ele><time>2026-04-29T14:38:04.943Z</time></trkpt><trkpt lat="37.0733133" lon="22.1567879"><ele>383.0</ele><time>2026-04-29T14:38:05.944Z</time></trkpt><trkpt lat="37.0731798" lon="22.1569435"><ele>383.0</ele><time>2026-04-29T14:38:06.94Z</time></trkpt><trkpt lat="37.0730391" lon="22.1570966"><ele>383.0</ele><time>2026-04-29T14:38:07.941Z</time></trkpt><trkpt lat="37.0728961" lon="22.1572466"><ele>383.0</ele><time>2026-04-29T14:38:08.943Z</time></trkpt><trkpt lat="37.0727516" lon="22.1573993"><ele>382.6666666666667</ele><time>2026-04-29T14:38:09.941Z</time></trkpt><trkpt lat="37.0726033" lon="22.1575487"><ele>382.3333333333333</ele><time>2026-04-29T14:38:10.941Z</time></trkpt><trkpt lat="37.0724513" lon="22.157684"><ele>382.0</ele><time>2026-04-29T14:38:11.945Z</time></trkpt><trkpt lat="37.0722979" lon="22.1577966"><ele>382.0</ele><time>2026-04-29T14:38:12.941Z</time></trkpt><trkpt lat="37.0721451" lon="22.1578971"><ele>382.0</ele><time>2026-04-29T14:38:13.945Z</time></trkpt><trkpt lat="37.0719991" lon="22.1580018"><ele>382.0</ele><time>2026-04-29T14:38:14.942Z</time></trkpt><trkpt lat="37.0718599" lon="22.1581171"><ele>383.0</ele><time>2026-04-29T14:38:15.944Z</time></trkpt><trkpt lat="37.0717276" lon="22.158251"><ele>384.0</ele><time>2026-04-29T14:38:16.94Z</time></trkpt><trkpt lat="37.0716059" lon="22.1583889"><ele>385.0</ele><time>2026-04-29T14:38:17.943Z</time></trkpt><trkpt lat="37.0714864" lon="22.15851"><ele>381.0</ele><time>2026-04-29T14:38:18.942Z</time></trkpt><trkpt lat="37.0713606" lon="22.1586175"><ele>377.0</ele><time>2026-04-29T14:38:19.941Z</time></trkpt><trkpt lat="37.071218" lon="22.1586999"><ele>373.0</ele><time>2026-04-29T14:38:20.942Z</time></trkpt><trkpt lat="37.0710692" lon="22.1587696"><ele>373.0</ele><time>2026-04-29T14:38:21.94Z</time></trkpt><trkpt lat="37.0709269" lon="22.1588181"><ele>373.0</ele><time>2026-04-29T14:38:22.943Z</time></trkpt><trkpt lat="37.0707972" lon="22.1588571"><ele>373.0</ele><time>2026-04-29T14:38:23.941Z</time></trkpt><trkpt lat="37.0706828" lon="22.158881"><ele>373.0</ele><time>2026-04-29T14:38:24.942Z</time></trkpt><trkpt lat="37.0705881" lon="22.1588608"><ele>375.75</ele><time>2026-04-29T14:38:25.944Z</time></trkpt><trkpt lat="37.0704905" lon="22.1588222"><ele>378.5</ele><time>2026-04-29T14:38:26.941Z</time></trkpt><trkpt lat="37.0704573" lon="22.158674"><ele>381.25</ele><time>2026-04-29T14:38:27.944Z</time></trkpt><trkpt lat="37.0704354" lon="22.1585143"><ele>384.0</ele><time>2026-04-29T14:38:28.943Z</time></trkpt><trkpt lat="37.0704425" lon="22.1583325"><ele>380.3333333333333</ele><time>2026-04-29T14:38:29.942Z</time></trkpt><trkpt lat="37.0704431" lon="22.1581434"><ele>376.66666666666663</ele><time>2026-04-29T14:38:30.945Z</time></trkpt><trkpt lat="37.0704469" lon="22.1579305"><ele>373.0</ele><time>2026-04-29T14:38:31.943Z</time></trkpt><trkpt lat="37.0704436" lon="22.1577244"><ele>373.0</ele><time>2026-04-29T14:38:32.941Z</time></trkpt><trkpt lat="37.0704388" lon="22.1575194"><ele>373.0</ele><time>2026-04-29T14:38:33.944Z</time></trkpt><trkpt lat="37.0704107" lon="22.157324"><ele>373.0</ele><time>2026-04-29T14:38:34.945Z</time></trkpt><trkpt lat="37.0703636" lon="22.1571293"><ele>370.3333333333333</ele><time>2026-04-29T14:38:35.943Z</time></trkpt><trkpt lat="37.0702986" lon="22.1569519"><ele>367.6666666666667</ele><time>2026-04-29T14:38:36.942Z</time></trkpt><trkpt lat="37.070218" lon="22.1567954"><ele>365.0</ele><time>2026-04-29T14:38:37.943Z</time></trkpt><trkpt lat="37.0700914" lon="22.1566537"><ele>363.33333333333337</ele><time>2026-04-29T14:38:38.94Z</time></trkpt><trkpt lat="37.0699466" lon="22.1565233"><ele>361.6666666666667</ele><time>2026-04-29T14:38:39.942Z</time></trkpt><trkpt lat="37.0697923" lon="22.1563858"><ele>360.0</ele><time>2026-04-29T14:38:40.941Z</time></trkpt><trkpt lat="37.0696356" lon="22.1562531"><ele>360.0</ele><time>2026-04-29T14:38:41.945Z</time></trkpt><trkpt lat="37.0694853" lon="22.1561328"><ele>360.0</ele><time>2026-04-29T14:38:42.941Z</time></trkpt><trkpt lat="37.0693256" lon="22.1560127"><ele>360.0</ele><time>2026-04-29T14:38:43.942Z</time></trkpt><trkpt lat="37.0691805" lon="22.1558833"><ele>359.0</ele><time>2026-04-29T14:38:44.942Z</time></trkpt><trkpt lat="37.0690539" lon="22.1557475"><ele>358.0</ele><time>2026-04-29T14:38:45.942Z</time></trkpt><trkpt lat="37.0689474" lon="22.1555897"><ele>357.0</ele><time>2026-04-29T14:38:46.943Z</time></trkpt><trkpt lat="37.068852" lon="22.1554094"><ele>357.0</ele><time>2026-04-29T14:38:47.942Z</time></trkpt><trkpt lat="37.0687708" lon="22.1552043"><ele>357.0</ele><time>2026-04-29T14:38:48.944Z</time></trkpt><trkpt lat="37.0686796" lon="22.1549939"><ele>357.0</ele><time>2026-04-29T14:38:49.944Z</time></trkpt><trkpt lat="37.0685753" lon="22.1548025"><ele>353.6666666666667</ele><time>2026-04-29T14:38:50.943Z</time></trkpt><trkpt lat="37.0684715" lon="22.1546126"><ele>350.33333333333337</ele><time>2026-04-29T14:38:51.941Z</time></trkpt><trkpt lat="37.0683664" lon="22.1544481"><ele>347.0</ele><time>2026-04-29T14:38:52.943Z</time></trkpt><trkpt lat="37.0682544" lon="22.1542997"><ele>347.0</ele><time>2026-04-29T14:38:53.942Z</time></trkpt><trkpt lat="37.0681312" lon="22.1541856"><ele>347.0</ele><time>2026-04-29T14:38:54.943Z</time></trkpt><trkpt lat="37.0679903" lon="22.1540957"><ele>347.0</ele><time>2026-04-29T14:38:55.942Z</time></trkpt><trkpt lat="37.067808" lon="22.1540166"><ele>343.33333333333337</ele><time>2026-04-29T14:38:56.944Z</time></trkpt><trkpt lat="37.0676421" lon="22.1539232"><ele>339.6666666666667</ele><time>2026-04-29T14:38:57.941Z</time></trkpt><trkpt lat="37.0674711" lon="22.1538126"><ele>336.0</ele><time>2026-04-29T14:38:58.945Z</time></trkpt><trkpt lat="37.0672985" lon="22.1536859"><ele>336.0</ele><time>2026-04-29T14:38:59.942Z</time></trkpt><trkpt lat="37.0671192" lon="22.1535326"><ele>336.0</ele><time>2026-04-29T14:39:00.944Z</time></trkpt><trkpt lat="37.0669486" lon="22.1533658"><ele>336.0</ele><time>2026-04-29T14:39:01.942Z</time></trkpt><trkpt lat="37.0667915" lon="22.1531982"><ele>338.0</ele><time>2026-04-29T14:39:02.946Z</time></trkpt><trkpt lat="37.0666509" lon="22.1530367"><ele>340.0</ele><time>2026-04-29T14:39:03.942Z</time></trkpt><trkpt lat="37.0665156" lon="22.1528618"><ele>342.0</ele><time>2026-04-29T14:39:04.942Z</time></trkpt><trkpt lat="37.0663922" lon="22.1526702"><ele>342.0</ele><time>2026-04-29T14:39:05.945Z</time></trkpt><trkpt lat="37.0662898" lon="22.1524756"><ele>342.0</ele><time>2026-04-29T14:39:06.946Z</time></trkpt><trkpt lat="37.0662125" lon="22.1522626"><ele>342.0</ele><time>2026-04-29T14:39:07.943Z</time></trkpt><trkpt lat="37.0661594" lon="22.152039"><ele>338.3333333333333</ele><time>2026-04-29T14:39:08.942Z</time></trkpt><trkpt lat="37.0661033" lon="22.1518042"><ele>334.66666666666663</ele><time>2026-04-29T14:39:09.941Z</time></trkpt><trkpt lat="37.0660389" lon="22.1515726"><ele>331.0</ele><time>2026-04-29T14:39:10.941Z</time></trkpt><trkpt lat="37.0659654" lon="22.151337"><ele>329.3333333333333</ele><time>2026-04-29T14:39:11.943Z</time></trkpt><trkpt lat="37.0658741" lon="22.1511141"><ele>327.6666666666667</ele><time>2026-04-29T14:39:12.945Z</time></trkpt><trkpt lat="37.065787" lon="22.1509132"><ele>326.0</ele><time>2026-04-29T14:39:13.939Z</time></trkpt><trkpt lat="37.0657028" lon="22.1506929"><ele>326.0</ele><time>2026-04-29T14:39:14.94Z</time></trkpt><trkpt lat="37.065629" lon="22.1504781"><ele>326.0</ele><time>2026-04-29T14:39:15.938Z</time></trkpt><trkpt lat="37.0655942" lon="22.1502535"><ele>326.0</ele><time>2026-04-29T14:39:16.94Z</time></trkpt><trkpt lat="37.0655916" lon="22.1500455"><ele>319.0</ele><time>2026-04-29T14:39:17.942Z</time></trkpt><trkpt lat="37.0655581" lon="22.1498365"><ele>312.0</ele><time>2026-04-29T14:39:18.943Z</time></trkpt><trkpt lat="37.0655219" lon="22.1496501"><ele>305.0</ele><time>2026-04-29T14:39:19.943Z</time></trkpt><trkpt lat="37.0654718" lon="22.1494955"><ele>305.0</ele><time>2026-04-29T14:39:20.946Z</time></trkpt><trkpt lat="37.0653979" lon="22.1493702"><ele>305.0</ele><time>2026-04-29T14:39:21.946Z</time></trkpt><trkpt lat="37.065327" lon="22.1492784"><ele>305.0</ele><time>2026-04-29T14:39:22.944Z</time></trkpt><trkpt lat="37.0652034" lon="22.1492374"><ele>305.0</ele><time>2026-04-29T14:39:23.945Z</time></trkpt><trkpt lat="37.0650749" lon="22.1492142"><ele>303.75</ele><time>2026-04-29T14:39:24.942Z</time></trkpt><trkpt lat="37.0649259" lon="22.1492182"><ele>302.5</ele><time>2026-04-29T14:39:25.941Z</time></trkpt><trkpt lat="37.064774" lon="22.149219"><ele>301.25</ele><time>2026-04-29T14:39:26.945Z</time></trkpt><trkpt lat="37.064629" lon="22.1492192"><ele>300.0</ele><time>2026-04-29T14:39:27.942Z</time></trkpt><trkpt lat="37.0644813" lon="22.149237"><ele>300.0</ele><time>2026-04-29T14:39:28.942Z</time></trkpt><trkpt lat="37.0643399" lon="22.1492884"><ele>300.0</ele><time>2026-04-29T14:39:29.945Z</time></trkpt><trkpt lat="37.0642131" lon="22.1493694"><ele>300.0</ele><time>2026-04-29T14:39:30.943Z</time></trkpt><trkpt lat="37.0640978" lon="22.1494809"><ele>300.0</ele><time>2026-04-29T14:39:31.944Z</time></trkpt><trkpt lat="37.0639989" lon="22.1496183"><ele>297.75</ele><time>2026-04-29T14:39:32.942Z</time></trkpt><trkpt lat="37.0639115" lon="22.149769"><ele>295.5</ele><time>2026-04-29T14:39:33.943Z</time></trkpt><trkpt lat="37.0638267" lon="22.1499114"><ele>293.25</ele><time>2026-04-29T14:39:34.942Z</time></trkpt><trkpt lat="37.0637393" lon="22.1500522"><ele>291.0</ele><time>2026-04-29T14:39:35.945Z</time></trkpt><trkpt lat="37.0636176" lon="22.1501619"><ele>291.0</ele><time>2026-04-29T14:39:36.943Z</time></trkpt><trkpt lat="37.0634886" lon="22.1502542"><ele>291.0</ele><time>2026-04-29T14:39:37.942Z</time></trkpt><trkpt lat="37.0633508" lon="22.150315"><ele>291.0</ele><time>2026-04-29T14:39:38.945Z</time></trkpt><trkpt lat="37.0632018" lon="22.1503736"><ele>284.6666666666667</ele><time>2026-04-29T14:39:39.942Z</time></trkpt><trkpt lat="37.0630555" lon="22.150424"><ele>278.33333333333337</ele><time>2026-04-29T14:39:40.944Z</time></trkpt><trkpt lat="37.0629164" lon="22.1504927"><ele>272.0</ele><time>2026-04-29T14:39:41.944Z</time></trkpt><trkpt lat="37.0627853" lon="22.150587"><ele>272.0</ele><time>2026-04-29T14:39:42.941Z</time></trkpt><trkpt lat="37.0626737" lon="22.1506987"><ele>272.0</ele><time>2026-04-29T14:39:43.94Z</time></trkpt><trkpt lat="37.0625814" lon="22.1508339"><ele>272.0</ele><time>2026-04-29T14:39:44.941Z</time></trkpt><trkpt lat="37.0625135" lon="22.1509788"><ele>272.0</ele><time>2026-04-29T14:39:45.941Z</time></trkpt><trkpt lat="37.0624758" lon="22.1511488"><ele>273.75</ele><time>2026-04-29T14:39:46.94Z</time></trkpt><trkpt lat="37.062457" lon="22.1513154"><ele>275.5</ele><time>2026-04-29T14:39:47.942Z</time></trkpt><trkpt lat="37.0624442" lon="22.1514696"><ele>277.25</ele><time>2026-04-29T14:39:48.944Z</time></trkpt><trkpt lat="37.0624378" lon="22.1516059"><ele>279.0</ele><time>2026-04-29T14:39:49.942Z</time></trkpt><trkpt lat="37.0624307" lon="22.1517164"><ele>275.4</ele><time>2026-04-29T14:39:50.944Z</time></trkpt><trkpt lat="37.0624076" lon="22.1518005"><ele>271.79999999999995</ele><time>2026-04-29T14:39:51.943Z</time></trkpt><trkpt lat="37.0623779" lon="22.1518755"><ele>268.20000000000005</ele><time>2026-04-29T14:39:52.945Z</time></trkpt><trkpt lat="37.0622827" lon="22.1518897"><ele>264.6</ele><time>2026-04-29T14:39:54.941Z</time></trkpt><trkpt lat="37.0622062" lon="22.1517808"><ele>261.0</ele><time>2026-04-29T14:39:55.945Z</time></trkpt><trkpt lat="37.0621368" lon="22.1516065"><ele>259.5</ele><time>2026-04-29T14:39:56.941Z</time></trkpt><trkpt lat="37.0620753" lon="22.1514567"><ele>258.0</ele><time>2026-04-29T14:39:57.938Z</time></trkpt><trkpt lat="37.0620297" lon="22.1513027"><ele>256.5</ele><time>2026-04-29T14:39:58.939Z</time></trkpt><trkpt lat="37.0619936" lon="22.1511322"><ele>255.0</ele><time>2026-04-29T14:39:59.944Z</time></trkpt><trkpt lat="37.0619786" lon="22.1509667"><ele>255.0</ele><time>2026-04-29T14:40:00.942Z</time></trkpt><trkpt lat="37.0619913" lon="22.150787"><ele>255.0</ele><time>2026-04-29T14:40:01.941Z</time></trkpt><trkpt lat="37.06202" lon="22.150614"><ele>255.0</ele><time>2026-04-29T14:40:02.943Z</time></trkpt><trkpt lat="37.0620773" lon="22.1504465"><ele>255.0</ele><time>2026-04-29T14:40:03.944Z</time></trkpt><trkpt lat="37.0621268" lon="22.1502924"><ele>254.0</ele><time>2026-04-29T14:40:04.946Z</time></trkpt><trkpt lat="37.0621537" lon="22.1501429"><ele>253.0</ele><time>2026-04-29T14:40:05.946Z</time></trkpt><trkpt lat="37.0621496" lon="22.1499971"><ele>252.0</ele><time>2026-04-29T14:40:06.944Z</time></trkpt><trkpt lat="37.0621282" lon="22.149865"><ele>251.0</ele><time>2026-04-29T14:40:07.943Z</time></trkpt><trkpt lat="37.0620327" lon="22.149763"><ele>251.0</ele><time>2026-04-29T14:40:08.94Z</time></trkpt><trkpt lat="37.0619377" lon="22.1496707"><ele>251.0</ele><time>2026-04-29T14:40:09.944Z</time></trkpt><trkpt lat="37.0618458" lon="22.1495712"><ele>251.0</ele><time>2026-04-29T14:40:10.946Z</time></trkpt><trkpt lat="37.061766" lon="22.1494603"><ele>251.0</ele><time>2026-04-29T14:40:11.942Z</time></trkpt><trkpt lat="37.0617462" lon="22.1493135"><ele>251.0</ele><time>2026-04-29T14:40:12.94Z</time></trkpt><trkpt lat="37.0617452" lon="22.1491628"><ele>251.0</ele><time>2026-04-29T14:40:13.943Z</time></trkpt><trkpt lat="37.0617859" lon="22.1490344"><ele>251.0</ele><time>2026-04-29T14:40:14.945Z</time></trkpt><trkpt lat="37.0618511" lon="22.1489109"><ele>251.0</ele><time>2026-04-29T14:40:15.942Z</time></trkpt><trkpt lat="37.0619345" lon="22.148769"><ele>247.75</ele><time>2026-04-29T14:40:16.942Z</time></trkpt><trkpt lat="37.0620189" lon="22.1486203"><ele>244.5</ele><time>2026-04-29T14:40:17.944Z</time></trkpt><trkpt lat="37.0621063" lon="22.1484664"><ele>241.25</ele><time>2026-04-29T14:40:18.942Z</time></trkpt><trkpt lat="37.0621963" lon="22.1483157"><ele>238.0</ele><time>2026-04-29T14:40:19.942Z</time></trkpt><trkpt lat="37.0622917" lon="22.1481702"><ele>238.0</ele><time>2026-04-29T14:40:20.943Z</time></trkpt><trkpt lat="37.0623895" lon="22.1480408"><ele>238.0</ele><time>2026-04-29T14:40:21.944Z</time></trkpt><trkpt lat="37.0625008" lon="22.1479226"><ele>238.0</ele><time>2026-04-29T14:40:22.943Z</time></trkpt><trkpt lat="37.0626204" lon="22.1478277"><ele>238.0</ele><time>2026-04-29T14:40:23.943Z</time></trkpt><trkpt lat="37.0627543" lon="22.1477739"><ele>238.0</ele><time>2026-04-29T14:40:24.944Z</time></trkpt><trkpt lat="37.0628934" lon="22.1477473"><ele>238.0</ele><time>2026-04-29T14:40:25.944Z</time></trkpt><trkpt lat="37.0630362" lon="22.1477402"><ele>238.0</ele><time>2026-04-29T14:40:26.945Z</time></trkpt><trkpt lat="37.0631554" lon="22.1477056"><ele>238.0</ele><time>2026-04-29T14:40:27.943Z</time></trkpt><trkpt lat="37.0632636" lon="22.1476461"><ele>237.2</ele><time>2026-04-29T14:40:28.943Z</time></trkpt><trkpt lat="37.0633508" lon="22.1475628"><ele>236.4</ele><time>2026-04-29T14:40:29.944Z</time></trkpt><trkpt lat="37.0633886" lon="22.1474451"><ele>235.59999999999997</ele><time>2026-04-29T14:40:30.944Z</time></trkpt><trkpt lat="37.0634043" lon="22.1473158"><ele>234.79999999999998</ele><time>2026-04-29T14:40:31.941Z</time></trkpt><trkpt lat="37.0633991" lon="22.1471701"><ele>234.0</ele><time>2026-04-29T14:40:32.943Z</time></trkpt><trkpt lat="37.0634" lon="22.1469911"><ele>234.0</ele><time>2026-04-29T14:40:33.941Z</time></trkpt><trkpt lat="37.063414" lon="22.1468349"><ele>234.0</ele><time>2026-04-29T14:40:34.943Z</time></trkpt><trkpt lat="37.0634435" lon="22.1466909"><ele>234.0</ele><time>2026-04-29T14:40:35.944Z</time></trkpt><trkpt lat="37.0634673" lon="22.1465357"><ele>234.0</ele><time>2026-04-29T14:40:36.943Z</time></trkpt><trkpt lat="37.0635389" lon="22.146404"><ele>231.33333333333331</ele><time>2026-04-29T14:40:37.945Z</time></trkpt><trkpt lat="37.0637651" lon="22.1463678"><ele>228.66666666666666</ele><time>2026-04-29T14:40:38.94Z</time></trkpt><trkpt lat="37.0639381" lon="22.1463594"><ele>226.0</ele><time>2026-04-29T14:40:39.944Z</time></trkpt><trkpt lat="37.0640524" lon="22.1463006"><ele>227.0</ele><time>2026-04-29T14:40:40.945Z</time></trkpt><trkpt lat="37.0641394" lon="22.1462128"><ele>228.0</ele><time>2026-04-29T14:40:41.944Z</time></trkpt><trkpt lat="37.0641893" lon="22.1460824"><ele>229.0</ele><time>2026-04-29T14:40:42.943Z</time></trkpt><trkpt lat="37.0642" lon="22.1459456"><ele>230.0</ele><time>2026-04-29T14:40:43.943Z</time></trkpt><trkpt lat="37.0641768" lon="22.1458006"><ele>229.25</ele><time>2026-04-29T14:40:44.943Z</time></trkpt><trkpt lat="37.064114" lon="22.145654"><ele>228.5</ele><time>2026-04-29T14:40:45.942Z</time></trkpt><trkpt lat="37.0640252" lon="22.1455199"><ele>227.75</ele><time>2026-04-29T14:40:46.942Z</time></trkpt><trkpt lat="37.0639185" lon="22.1453951"><ele>227.0</ele><time>2026-04-29T14:40:47.946Z</time></trkpt><trkpt lat="37.0637881" lon="22.1452932"><ele>229.5</ele><time>2026-04-29T14:40:48.943Z</time></trkpt><trkpt lat="37.0636445" lon="22.1452336"><ele>232.0</ele><time>2026-04-29T14:40:49.943Z</time></trkpt><trkpt lat="37.0635064" lon="22.1452191"><ele>234.5</ele><time>2026-04-29T14:40:50.942Z</time></trkpt><trkpt lat="37.0633518" lon="22.1452335"><ele>237.0</ele><time>2026-04-29T14:40:51.943Z</time></trkpt><trkpt lat="37.0632003" lon="22.1453249"><ele>243.66666666666669</ele><time>2026-04-29T14:40:52.939Z</time></trkpt><trkpt lat="37.0630353" lon="22.1454248"><ele>250.33333333333334</ele><time>2026-04-29T14:40:53.943Z</time></trkpt><trkpt lat="37.0628768" lon="22.1455221"><ele>257.0</ele><time>2026-04-29T14:40:54.945Z</time></trkpt><trkpt lat="37.0627196" lon="22.1456174"><ele>251.33333333333334</ele><time>2026-04-29T14:40:55.941Z</time></trkpt><trkpt lat="37.0625619" lon="22.1457121"><ele>245.66666666666669</ele><time>2026-04-29T14:40:56.943Z</time></trkpt><trkpt lat="37.0624013" lon="22.1457897"><ele>240.0</ele><time>2026-04-29T14:40:57.944Z</time></trkpt><trkpt lat="37.0622331" lon="22.1458586"><ele>240.0</ele><time>2026-04-29T14:40:58.944Z</time></trkpt><trkpt lat="37.0620701" lon="22.145934"><ele>240.0</ele><time>2026-04-29T14:40:59.943Z</time></trkpt><trkpt lat="37.0619091" lon="22.146017"><ele>240.0</ele><time>2026-04-29T14:41:00.945Z</time></trkpt><trkpt lat="37.0617467" lon="22.1460891"><ele>239.33333333333331</ele><time>2026-04-29T14:41:01.944Z</time></trkpt><trkpt lat="37.0615887" lon="22.1461601"><ele>238.66666666666666</ele><time>2026-04-29T14:41:02.942Z</time></trkpt><trkpt lat="37.0614281" lon="22.1462096"><ele>238.0</ele><time>2026-04-29T14:41:03.943Z</time></trkpt><trkpt lat="37.0612736" lon="22.1462621"><ele>238.0</ele><time>2026-04-29T14:41:04.942Z</time></trkpt><trkpt lat="37.0611121" lon="22.1462937"><ele>238.0</ele><time>2026-04-29T14:41:05.942Z</time></trkpt><trkpt lat="37.0609448" lon="22.1463202"><ele>238.0</ele><time>2026-04-29T14:41:06.942Z</time></trkpt><trkpt lat="37.0607843" lon="22.1463024"><ele>232.66666666666666</ele><time>2026-04-29T14:41:07.941Z</time></trkpt><trkpt lat="37.0606218" lon="22.146276"><ele>227.33333333333331</ele><time>2026-04-29T14:41:08.941Z</time></trkpt><trkpt lat="37.0604619" lon="22.1462371"><ele>222.0</ele><time>2026-04-29T14:41:09.941Z</time></trkpt><trkpt lat="37.0602965" lon="22.1461755"><ele>222.0</ele><time>2026-04-29T14:41:10.942Z</time></trkpt><trkpt lat="37.0601347" lon="22.1461112"><ele>222.0</ele><time>2026-04-29T14:41:11.943Z</time></trkpt><trkpt lat="37.0599684" lon="22.1460337"><ele>222.0</ele><time>2026-04-29T14:41:12.942Z</time></trkpt><trkpt lat="37.0598028" lon="22.1459704"><ele>218.0</ele><time>2026-04-29T14:41:13.943Z</time></trkpt><trkpt lat="37.0596411" lon="22.1459211"><ele>214.0</ele><time>2026-04-29T14:41:14.944Z</time></trkpt><trkpt lat="37.0594873" lon="22.1458696"><ele>210.0</ele><time>2026-04-29T14:41:15.946Z</time></trkpt><trkpt lat="37.0593362" lon="22.1458096"><ele>210.0</ele><time>2026-04-29T14:41:16.946Z</time></trkpt><trkpt lat="37.0591908" lon="22.1457287"><ele>210.0</ele><time>2026-04-29T14:41:17.941Z</time></trkpt><trkpt lat="37.0590438" lon="22.1456215"><ele>210.0</ele><time>2026-04-29T14:41:18.944Z</time></trkpt><trkpt lat="37.0589282" lon="22.145426"><ele>210.0</ele><time>2026-04-29T14:41:19.943Z</time></trkpt><trkpt lat="37.0587858" lon="22.1452917"><ele>210.0</ele><time>2026-04-29T14:41:20.944Z</time></trkpt><trkpt lat="37.0586406" lon="22.1451546"><ele>210.0</ele><time>2026-04-29T14:41:21.942Z</time></trkpt><trkpt lat="37.0584807" lon="22.1450238"><ele>210.0</ele><time>2026-04-29T14:41:22.944Z</time></trkpt><trkpt lat="37.0583154" lon="22.144901"><ele>210.0</ele><time>2026-04-29T14:41:23.943Z</time></trkpt><trkpt lat="37.0581423" lon="22.1447929"><ele>210.0</ele><time>2026-04-29T14:41:24.946Z</time></trkpt><trkpt lat="37.057972" lon="22.1446975"><ele>213.33333333333331</ele><time>2026-04-29T14:41:25.944Z</time></trkpt><trkpt lat="37.0578017" lon="22.144617"><ele>216.66666666666666</ele><time>2026-04-29T14:41:26.945Z</time></trkpt><trkpt lat="37.057625" lon="22.1445522"><ele>220.0</ele><time>2026-04-29T14:41:27.943Z</time></trkpt><trkpt lat="37.0574483" lon="22.1445115"><ele>214.5</ele><time>2026-04-29T14:41:28.943Z</time></trkpt><trkpt lat="37.057286" lon="22.1444767"><ele>209.0</ele><time>2026-04-29T14:41:29.944Z</time></trkpt><trkpt lat="37.0571517" lon="22.1444456"><ele>203.5</ele><time>2026-04-29T14:41:30.942Z</time></trkpt><trkpt lat="37.0570306" lon="22.1444154"><ele>198.0</ele><time>2026-04-29T14:41:31.942Z</time></trkpt><trkpt lat="37.0569278" lon="22.1443596"><ele>198.0</ele><time>2026-04-29T14:41:32.94Z</time></trkpt><trkpt lat="37.0568351" lon="22.1442712"><ele>198.0</ele><time>2026-04-29T14:41:33.943Z</time></trkpt><trkpt lat="37.05676" lon="22.1441471"><ele>198.0</ele><time>2026-04-29T14:41:34.939Z</time></trkpt><trkpt lat="37.0566843" lon="22.143995"><ele>198.0</ele><time>2026-04-29T14:41:35.941Z</time></trkpt><trkpt lat="37.0565988" lon="22.1438215"><ele>193.66666666666666</ele><time>2026-04-29T14:41:36.942Z</time></trkpt><trkpt lat="37.0564923" lon="22.1436335"><ele>189.33333333333331</ele><time>2026-04-29T14:41:37.944Z</time></trkpt><trkpt lat="37.0563771" lon="22.1434632"><ele>185.0</ele><time>2026-04-29T14:41:38.944Z</time></trkpt><trkpt lat="37.056253" lon="22.1433043"><ele>188.66666666666666</ele><time>2026-04-29T14:41:39.944Z</time></trkpt><trkpt lat="37.0561243" lon="22.1431779"><ele>192.33333333333331</ele><time>2026-04-29T14:41:40.944Z</time></trkpt><trkpt lat="37.0560108" lon="22.1430357"><ele>196.0</ele><time>2026-04-29T14:41:41.941Z</time></trkpt><trkpt lat="37.0559136" lon="22.1428753"><ele>196.0</ele><time>2026-04-29T14:41:42.942Z</time></trkpt><trkpt lat="37.0558329" lon="22.1427049"><ele>196.0</ele><time>2026-04-29T14:41:43.943Z</time></trkpt><trkpt lat="37.055751" lon="22.1425515"><ele>196.0</ele><time>2026-04-29T14:41:44.942Z</time></trkpt><trkpt lat="37.0556357" lon="22.1424394"><ele>196.66666666666666</ele><time>2026-04-29T14:41:45.944Z</time></trkpt><trkpt lat="37.0555106" lon="22.1423569"><ele>197.33333333333331</ele><time>2026-04-29T14:41:46.945Z</time></trkpt><trkpt lat="37.0553581" lon="22.1423163"><ele>198.0</ele><time>2026-04-29T14:41:47.942Z</time></trkpt><trkpt lat="37.055195" lon="22.1422768"><ele>198.0</ele><time>2026-04-29T14:41:48.942Z</time></trkpt><trkpt lat="37.0550208" lon="22.1422191"><ele>198.0</ele><time>2026-04-29T14:41:49.943Z</time></trkpt><trkpt lat="37.0548548" lon="22.1421581"><ele>198.0</ele><time>2026-04-29T14:41:50.944Z</time></trkpt><trkpt lat="37.0547029" lon="22.1420898"><ele>195.0</ele><time>2026-04-29T14:41:51.945Z</time></trkpt><trkpt lat="37.0545494" lon="22.1420484"><ele>192.0</ele><time>2026-04-29T14:41:52.941Z</time></trkpt><trkpt lat="37.0543907" lon="22.1420304"><ele>189.0</ele><time>2026-04-29T14:41:53.942Z</time></trkpt><trkpt lat="37.0542419" lon="22.1420431"><ele>185.0</ele><time>2026-04-29T14:41:54.942Z</time></trkpt><trkpt lat="37.0540928" lon="22.142053"><ele>181.0</ele><time>2026-04-29T14:41:55.94Z</time></trkpt><trkpt lat="37.0539578" lon="22.142062"><ele>177.0</ele><time>2026-04-29T14:41:56.943Z</time></trkpt><trkpt lat="37.053838" lon="22.1420174"><ele>173.0</ele><time>2026-04-29T14:41:57.943Z</time></trkpt><trkpt lat="37.0537355" lon="22.1419622"><ele>173.0</ele><time>2026-04-29T14:41:58.939Z</time></trkpt><trkpt lat="37.0536234" lon="22.1418683"><ele>173.0</ele><time>2026-04-29T14:41:59.943Z</time></trkpt><trkpt lat="37.053524" lon="22.1417582"><ele>173.0</ele><time>2026-04-29T14:42:00.944Z</time></trkpt><trkpt lat="37.0534121" lon="22.1416412"><ele>173.0</ele><time>2026-04-29T14:42:01.941Z</time></trkpt><trkpt lat="37.0532747" lon="22.141528"><ele>170.0</ele><time>2026-04-29T14:42:02.943Z</time></trkpt><trkpt lat="37.0531326" lon="22.1414287"><ele>167.0</ele><time>2026-04-29T14:42:03.942Z</time></trkpt><trkpt lat="37.0530006" lon="22.1413331"><ele>164.0</ele><time>2026-04-29T14:42:04.942Z</time></trkpt><trkpt lat="37.0528852" lon="22.1412085"><ele>164.0</ele><time>2026-04-29T14:42:05.942Z</time></trkpt><trkpt lat="37.0527945" lon="22.1410495"><ele>164.0</ele><time>2026-04-29T14:42:06.94Z</time></trkpt><trkpt lat="37.0527029" lon="22.1408929"><ele>164.0</ele><time>2026-04-29T14:42:07.942Z</time></trkpt><trkpt lat="37.0526034" lon="22.1407339"><ele>167.0</ele><time>2026-04-29T14:42:08.941Z</time></trkpt><trkpt lat="37.0524879" lon="22.1405792"><ele>170.0</ele><time>2026-04-29T14:42:09.94Z</time></trkpt><trkpt lat="37.0523745" lon="22.1404289"><ele>173.0</ele><time>2026-04-29T14:42:10.941Z</time></trkpt><trkpt lat="37.0522566" lon="22.1402713"><ele>169.66666666666666</ele><time>2026-04-29T14:42:11.94Z</time></trkpt><trkpt lat="37.0521354" lon="22.1401036"><ele>166.33333333333334</ele><time>2026-04-29T14:42:12.944Z</time></trkpt><trkpt lat="37.0520171" lon="22.1399291"><ele>163.0</ele><time>2026-04-29T14:42:13.941Z</time></trkpt><trkpt lat="37.0518985" lon="22.1397506"><ele>163.0</ele><time>2026-04-29T14:42:14.943Z</time></trkpt><trkpt lat="37.0517849" lon="22.1395742"><ele>163.0</ele><time>2026-04-29T14:42:15.943Z</time></trkpt><trkpt lat="37.0516745" lon="22.1394049"><ele>163.0</ele><time>2026-04-29T14:42:16.943Z</time></trkpt><trkpt lat="37.0515648" lon="22.1392394"><ele>161.0</ele><time>2026-04-29T14:42:17.941Z</time></trkpt><trkpt lat="37.0514598" lon="22.1390725"><ele>159.0</ele><time>2026-04-29T14:42:18.942Z</time></trkpt><trkpt lat="37.0513538" lon="22.1389062"><ele>157.0</ele><time>2026-04-29T14:42:19.943Z</time></trkpt><trkpt lat="37.0512489" lon="22.1387452"><ele>157.0</ele><time>2026-04-29T14:42:20.944Z</time></trkpt><trkpt lat="37.0511369" lon="22.1385926"><ele>157.0</ele><time>2026-04-29T14:42:21.941Z</time></trkpt><trkpt lat="37.0510102" lon="22.1384505"><ele>157.0</ele><time>2026-04-29T14:42:22.942Z</time></trkpt><trkpt lat="37.0508673" lon="22.1383168"><ele>153.66666666666669</ele><time>2026-04-29T14:42:23.946Z</time></trkpt><trkpt lat="37.050724" lon="22.1381942"><ele>150.33333333333334</ele><time>2026-04-29T14:42:24.942Z</time></trkpt><trkpt lat="37.050585" lon="22.1380741"><ele>147.0</ele><time>2026-04-29T14:42:25.941Z</time></trkpt><trkpt lat="37.050444" lon="22.1379596"><ele>147.0</ele><time>2026-04-29T14:42:26.945Z</time></trkpt><trkpt lat="37.0502992" lon="22.137845"><ele>147.0</ele><time>2026-04-29T14:42:27.942Z</time></trkpt><trkpt lat="37.0501575" lon="22.1377311"><ele>147.0</ele><time>2026-04-29T14:42:28.943Z</time></trkpt><trkpt lat="37.0500161" lon="22.1376058"><ele>144.33333333333334</ele><time>2026-04-29T14:42:29.943Z</time></trkpt><trkpt lat="37.0498698" lon="22.1374751"><ele>141.66666666666669</ele><time>2026-04-29T14:42:30.944Z</time></trkpt><trkpt lat="37.0497177" lon="22.1373409"><ele>139.0</ele><time>2026-04-29T14:42:31.944Z</time></trkpt><trkpt lat="37.0495612" lon="22.1372068"><ele>138.33333333333334</ele><time>2026-04-29T14:42:32.942Z</time></trkpt><trkpt lat="37.0494149" lon="22.1370683"><ele>137.66666666666666</ele><time>2026-04-29T14:42:33.943Z</time></trkpt><trkpt lat="37.0492766" lon="22.1369243"><ele>137.0</ele><time>2026-04-29T14:42:34.943Z</time></trkpt><trkpt lat="37.0491483" lon="22.1367834"><ele>133.66666666666666</ele><time>2026-04-29T14:42:35.942Z</time></trkpt><trkpt lat="37.0490227" lon="22.1366409"><ele>130.33333333333334</ele><time>2026-04-29T14:42:36.942Z</time></trkpt><trkpt lat="37.0489026" lon="22.1365046"><ele>127.0</ele><time>2026-04-29T14:42:37.945Z</time></trkpt><trkpt lat="37.0487997" lon="22.1363693"><ele>126.0</ele><time>2026-04-29T14:42:38.944Z</time></trkpt><trkpt lat="37.0487108" lon="22.1362244"><ele>125.0</ele><time>2026-04-29T14:42:39.94Z</time></trkpt><trkpt lat="37.0486377" lon="22.1360765"><ele>124.0</ele><time>2026-04-29T14:42:40.944Z</time></trkpt><trkpt lat="37.0485684" lon="22.1359123"><ele>123.0</ele><time>2026-04-29T14:42:41.943Z</time></trkpt><trkpt lat="37.0485064" lon="22.1357424"><ele>122.75</ele><time>2026-04-29T14:42:42.943Z</time></trkpt><trkpt lat="37.048456" lon="22.1355736"><ele>122.5</ele><time>2026-04-29T14:42:43.944Z</time></trkpt><trkpt lat="37.0484212" lon="22.1354054"><ele>122.25</ele><time>2026-04-29T14:42:44.945Z</time></trkpt><trkpt lat="37.0483968" lon="22.1352262"><ele>122.0</ele><time>2026-04-29T14:42:45.94Z</time></trkpt><trkpt lat="37.0483688" lon="22.1350452"><ele>121.25</ele><time>2026-04-29T14:42:46.943Z</time></trkpt><trkpt lat="37.0483412" lon="22.1348681"><ele>120.5</ele><time>2026-04-29T14:42:47.942Z</time></trkpt><trkpt lat="37.0483051" lon="22.134686"><ele>119.75</ele><time>2026-04-29T14:42:48.943Z</time></trkpt><trkpt lat="37.0482688" lon="22.1345075"><ele>119.0</ele><time>2026-04-29T14:42:49.943Z</time></trkpt><trkpt lat="37.0482204" lon="22.1343388"><ele>117.25</ele><time>2026-04-29T14:42:50.941Z</time></trkpt><trkpt lat="37.0481726" lon="22.1341817"><ele>115.5</ele><time>2026-04-29T14:42:51.942Z</time></trkpt><trkpt lat="37.0481204" lon="22.1340284"><ele>113.75</ele><time>2026-04-29T14:42:52.943Z</time></trkpt><trkpt lat="37.0480644" lon="22.1338979"><ele>112.0</ele><time>2026-04-29T14:42:53.945Z</time></trkpt><trkpt lat="37.048016" lon="22.1337958"><ele>110.39999999999999</ele><time>2026-04-29T14:42:54.939Z</time></trkpt><trkpt lat="37.047921" lon="22.133698"><ele>108.79999999999998</ele><time>2026-04-29T14:42:55.938Z</time></trkpt><trkpt lat="37.0478419" lon="22.1336143"><ele>107.2</ele><time>2026-04-29T14:42:56.943Z</time></trkpt><trkpt lat="37.0477458" lon="22.133528"><ele>105.6</ele><time>2026-04-29T14:42:57.943Z</time></trkpt><trkpt lat="37.0476575" lon="22.1334766"><ele>104.0</ele><time>2026-04-29T14:42:58.942Z</time></trkpt><trkpt lat="37.0475478" lon="22.133461"><ele>103.0</ele><time>2026-04-29T14:42:59.943Z</time></trkpt><trkpt lat="37.0474357" lon="22.1335031"><ele>102.0</ele><time>2026-04-29T14:43:00.943Z</time></trkpt><trkpt lat="37.0473213" lon="22.1335836"><ele>101.0</ele><time>2026-04-29T14:43:01.943Z</time></trkpt><trkpt lat="37.0472006" lon="22.1336777"><ele>100.0</ele><time>2026-04-29T14:43:02.942Z</time></trkpt><trkpt lat="37.047084" lon="22.1337647"><ele>100.0</ele><time>2026-04-29T14:43:03.943Z</time></trkpt><trkpt lat="37.0469712" lon="22.1338533"><ele>100.0</ele><time>2026-04-29T14:43:04.945Z</time></trkpt><trkpt lat="37.0468572" lon="22.1339407"><ele>100.0</ele><time>2026-04-29T14:43:05.941Z</time></trkpt><trkpt lat="37.0467509" lon="22.1340286"><ele>100.0</ele><time>2026-04-29T14:43:06.94Z</time></trkpt><trkpt lat="37.0466536" lon="22.1341137"><ele>99.2</ele><time>2026-04-29T14:43:07.94Z</time></trkpt><trkpt lat="37.0465606" lon="22.1341775"><ele>98.4</ele><time>2026-04-29T14:43:08.942Z</time></trkpt><trkpt lat="37.0464657" lon="22.1342164"><ele>97.6</ele><time>2026-04-29T14:43:09.94Z</time></trkpt><trkpt lat="37.0463702" lon="22.1341952"><ele>96.8</ele><time>2026-04-29T14:43:10.941Z</time></trkpt><trkpt lat="37.0462933" lon="22.1341588"><ele>96.0</ele><time>2026-04-29T14:43:11.938Z</time></trkpt><trkpt lat="37.0462393" lon="22.1340872"><ele>96.0</ele><time>2026-04-29T14:43:12.943Z</time></trkpt><trkpt lat="37.0462594" lon="22.1339741"><ele>96.0</ele><time>2026-04-29T14:43:13.944Z</time></trkpt><trkpt lat="37.0463017" lon="22.1338434"><ele>96.0</ele><time>2026-04-29T14:43:14.945Z</time></trkpt><trkpt lat="37.0463838" lon="22.1337085"><ele>96.0</ele><time>2026-04-29T14:43:15.944Z</time></trkpt><trkpt lat="37.0464515" lon="22.1335648"><ele>96.0</ele><time>2026-04-29T14:43:16.942Z</time></trkpt><trkpt lat="37.0465215" lon="22.1334103"><ele>96.0</ele><time>2026-04-29T14:43:17.941Z</time></trkpt><trkpt lat="37.0465804" lon="22.1332423"><ele>96.0</ele><time>2026-04-29T14:43:18.938Z</time></trkpt><trkpt lat="37.0466389" lon="22.1330972"><ele>96.0</ele><time>2026-04-29T14:43:19.942Z</time></trkpt><trkpt lat="37.0467284" lon="22.132976"><ele>95.25</ele><time>2026-04-29T14:43:20.942Z</time></trkpt><trkpt lat="37.0468332" lon="22.1328552"><ele>94.5</ele><time>2026-04-29T14:43:21.94Z</time></trkpt><trkpt lat="37.0469335" lon="22.1327355"><ele>93.75</ele><time>2026-04-29T14:43:22.943Z</time></trkpt><trkpt lat="37.0470523" lon="22.1326449"><ele>93.0</ele><time>2026-04-29T14:43:23.945Z</time></trkpt><trkpt lat="37.047191" lon="22.1325673"><ele>93.0</ele><time>2026-04-29T14:43:24.94Z</time></trkpt><trkpt lat="37.0473152" lon="22.1325206"><ele>93.0</ele><time>2026-04-29T14:43:25.941Z</time></trkpt><trkpt lat="37.0474415" lon="22.1324786"><ele>93.0</ele><time>2026-04-29T14:43:26.941Z</time></trkpt><trkpt lat="37.0475616" lon="22.1324246"><ele>93.0</ele><time>2026-04-29T14:43:27.94Z</time></trkpt><trkpt lat="37.0476481" lon="22.1323313"><ele>92.4</ele><time>2026-04-29T14:43:28.942Z</time></trkpt><trkpt lat="37.0477122" lon="22.1322322"><ele>91.80000000000001</ele><time>2026-04-29T14:43:29.942Z</time></trkpt><trkpt lat="37.0477705" lon="22.1321126"><ele>91.2</ele><time>2026-04-29T14:43:30.942Z</time></trkpt><trkpt lat="37.0477594" lon="22.131972"><ele>90.6</ele><time>2026-04-29T14:43:31.942Z</time></trkpt><trkpt lat="37.0477479" lon="22.1318382"><ele>90.0</ele><time>2026-04-29T14:43:32.939Z</time></trkpt><trkpt lat="37.0476967" lon="22.1316989"><ele>90.0</ele><time>2026-04-29T14:43:33.944Z</time></trkpt><trkpt lat="37.0475902" lon="22.1315961"><ele>90.0</ele><time>2026-04-29T14:43:34.943Z</time></trkpt><trkpt lat="37.0474915" lon="22.1315095"><ele>90.0</ele><time>2026-04-29T14:43:35.944Z</time></trkpt><trkpt lat="37.0473777" lon="22.1314272"><ele>90.0</ele><time>2026-04-29T14:43:36.941Z</time></trkpt><trkpt lat="37.0472578" lon="22.1313376"><ele>89.0</ele><time>2026-04-29T14:43:37.942Z</time></trkpt><trkpt lat="37.0471463" lon="22.1312507"><ele>88.0</ele><time>2026-04-29T14:43:38.942Z</time></trkpt><trkpt lat="37.0470447" lon="22.1311597"><ele>87.0</ele><time>2026-04-29T14:43:39.943Z</time></trkpt><trkpt lat="37.0469609" lon="22.1310777"><ele>86.0</ele><time>2026-04-29T14:43:40.942Z</time></trkpt><trkpt lat="37.0468817" lon="22.1309949"><ele>86.0</ele><time>2026-04-29T14:43:41.943Z</time></trkpt><trkpt lat="37.0468174" lon="22.1308994"><ele>86.0</ele><time>2026-04-29T14:43:42.942Z</time></trkpt><trkpt lat="37.0467655" lon="22.1307797"><ele>86.0</ele><time>2026-04-29T14:43:43.942Z</time></trkpt><trkpt lat="37.0467201" lon="22.1306568"><ele>86.0</ele><time>2026-04-29T14:43:44.942Z</time></trkpt><trkpt lat="37.0466788" lon="22.1305184"><ele>86.0</ele><time>2026-04-29T14:43:45.944Z</time></trkpt><trkpt lat="37.0466614" lon="22.1303954"><ele>85.8</ele><time>2026-04-29T14:43:46.943Z</time></trkpt><trkpt lat="37.0466439" lon="22.130279"><ele>85.6</ele><time>2026-04-29T14:43:47.941Z</time></trkpt><trkpt lat="37.0466258" lon="22.1301555"><ele>85.4</ele><time>2026-04-29T14:43:48.943Z</time></trkpt><trkpt lat="37.0466097" lon="22.1300424"><ele>85.2</ele><time>2026-04-29T14:43:49.944Z</time></trkpt><trkpt lat="37.0465983" lon="22.1299407"><ele>85.0</ele><time>2026-04-29T14:43:50.941Z</time></trkpt><trkpt lat="37.0466159" lon="22.1298185"><ele>84.2</ele><time>2026-04-29T14:43:51.941Z</time></trkpt><trkpt lat="37.0466334" lon="22.1297126"><ele>83.4</ele><time>2026-04-29T14:43:52.938Z</time></trkpt><trkpt lat="37.0466515" lon="22.129598"><ele>82.6</ele><time>2026-04-29T14:43:53.943Z</time></trkpt><trkpt lat="37.0466782" lon="22.1294939"><ele>81.8</ele><time>2026-04-29T14:43:54.943Z</time></trkpt><trkpt lat="37.046696" lon="22.1293792"><ele>81.0</ele><time>2026-04-29T14:43:55.944Z</time></trkpt><trkpt lat="37.0467154" lon="22.1292685"><ele>81.0</ele><time>2026-04-29T14:43:56.94Z</time></trkpt><trkpt lat="37.0467391" lon="22.1291636"><ele>81.0</ele><time>2026-04-29T14:43:57.941Z</time></trkpt><trkpt lat="37.0467558" lon="22.1290431"><ele>81.0</ele><time>2026-04-29T14:43:58.938Z</time></trkpt><trkpt lat="37.0467646" lon="22.1289075"><ele>81.0</ele><time>2026-04-29T14:43:59.941Z</time></trkpt><trkpt lat="37.0467807" lon="22.1287687"><ele>81.0</ele><time>2026-04-29T14:44:00.942Z</time></trkpt><trkpt lat="37.046777" lon="22.1286017"><ele>79.0</ele><time>2026-04-29T14:44:01.942Z</time></trkpt><trkpt lat="37.0467733" lon="22.1283996"><ele>77.0</ele><time>2026-04-29T14:44:02.941Z</time></trkpt><trkpt lat="37.0467917" lon="22.1281881"><ele>75.0</ele><time>2026-04-29T14:44:03.94Z</time></trkpt><trkpt lat="37.0467767" lon="22.1280096"><ele>74.6</ele><time>2026-04-29T14:44:04.939Z</time></trkpt><trkpt lat="37.0467679" lon="22.127836"><ele>74.2</ele><time>2026-04-29T14:44:05.94Z</time></trkpt><trkpt lat="37.0467642" lon="22.1276934"><ele>73.8</ele><time>2026-04-29T14:44:06.942Z</time></trkpt><trkpt lat="37.0467566" lon="22.1275619"><ele>73.4</ele><time>2026-04-29T14:44:07.942Z</time></trkpt><trkpt lat="37.0467384" lon="22.1274498"><ele>73.0</ele><time>2026-04-29T14:44:08.939Z</time></trkpt><trkpt lat="37.0467156" lon="22.1273454"><ele>73.0</ele><time>2026-04-29T14:44:09.944Z</time></trkpt><trkpt lat="37.0466582" lon="22.1272733"><ele>73.0</ele><time>2026-04-29T14:44:10.94Z</time></trkpt><trkpt lat="37.0465952" lon="22.1271962"><ele>73.0</ele><time>2026-04-29T14:44:11.938Z</time></trkpt><trkpt lat="37.0465319" lon="22.1271324"><ele>73.0</ele><time>2026-04-29T14:44:12.94Z</time></trkpt><trkpt lat="37.0464802" lon="22.1270794"><ele>73.0</ele><time>2026-04-29T14:44:13.939Z</time></trkpt><trkpt lat="37.0463803" lon="22.1269977"><ele>73.0</ele><time>2026-04-29T14:44:15.941Z</time></trkpt><trkpt lat="37.0463221" lon="22.1269557"><ele>72.0</ele><time>2026-04-29T14:44:16.944Z</time></trkpt><trkpt lat="37.0462694" lon="22.1269008"><ele>71.0</ele><time>2026-04-29T14:44:17.942Z</time></trkpt><trkpt lat="37.0462102" lon="22.1268547"><ele>70.0</ele><time>2026-04-29T14:44:18.94Z</time></trkpt><trkpt lat="37.046155" lon="22.126796"><ele>69.0</ele><time>2026-04-29T14:44:19.943Z</time></trkpt><trkpt lat="37.0460982" lon="22.1267511"><ele>68.0</ele><time>2026-04-29T14:44:20.939Z</time></trkpt><trkpt lat="37.0460398" lon="22.1267091"><ele>67.0</ele><time>2026-04-29T14:44:21.937Z</time></trkpt><trkpt lat="37.0459307" lon="22.1266317"><ele>67.14285714285714</ele><time>2026-04-29T14:44:23.941Z</time></trkpt><trkpt lat="37.0458571" lon="22.1265273"><ele>67.28571428571428</ele><time>2026-04-29T14:44:25.944Z</time></trkpt><trkpt lat="37.0458284" lon="22.1264552"><ele>67.42857142857142</ele><time>2026-04-29T14:44:26.94Z</time></trkpt><trkpt lat="37.0457981" lon="22.1263792"><ele>67.57142857142857</ele><time>2026-04-29T14:44:27.944Z</time></trkpt><trkpt lat="37.0457618" lon="22.1263112"><ele>67.71428571428571</ele><time>2026-04-29T14:44:28.944Z</time></trkpt><trkpt lat="37.0457079" lon="22.1262602"><ele>67.85714285714285</ele><time>2026-04-29T14:44:29.945Z</time></trkpt><trkpt lat="37.0456456" lon="22.1262318"><ele>68.0</ele><time>2026-04-29T14:44:30.943Z</time></trkpt><trkpt lat="37.0455795" lon="22.1262364"><ele>67.0</ele><time>2026-04-29T14:44:31.942Z</time></trkpt><trkpt lat="37.0455179" lon="22.1262699"><ele>66.0</ele><time>2026-04-29T14:44:32.945Z</time></trkpt><trkpt lat="37.0454724" lon="22.1263304"><ele>65.0</ele><time>2026-04-29T14:44:33.942Z</time></trkpt><trkpt lat="37.0454168" lon="22.1264688"><ele>64.0</ele><time>2026-04-29T14:44:35.945Z</time></trkpt><trkpt lat="37.0454719" lon="22.1265903"><ele>63.00000000000001</ele><time>2026-04-29T14:44:37.942Z</time></trkpt><trkpt lat="37.0455256" lon="22.1266357"><ele>62.0</ele><time>2026-04-29T14:44:38.941Z</time></trkpt><trkpt lat="37.0455958" lon="22.1266618"><ele>62.0</ele><time>2026-04-29T14:44:39.943Z</time></trkpt><trkpt lat="37.0456613" lon="22.1266506"><ele>62.00000000000001</ele><time>2026-04-29T14:44:40.941Z</time></trkpt><trkpt lat="37.045722" lon="22.1266016"><ele>62.0</ele><time>2026-04-29T14:44:41.943Z</time></trkpt><trkpt lat="37.0457701" lon="22.126532"><ele>62.0</ele><time>2026-04-29T14:44:42.941Z</time></trkpt><trkpt lat="37.0457881" lon="22.126452"><ele>62.00000000000001</ele><time>2026-04-29T14:44:43.94Z</time></trkpt><trkpt lat="37.045779" lon="22.1263668"><ele>62.0</ele><time>2026-04-29T14:44:44.942Z</time></trkpt><trkpt lat="37.0457436" lon="22.126294"><ele>62.0</ele><time>2026-04-29T14:44:45.941Z</time></trkpt><trkpt lat="37.0456759" lon="22.1262393"><ele>62.00000000000001</ele><time>2026-04-29T14:44:46.941Z</time></trkpt><trkpt lat="37.0456078" lon="22.1262107"><ele>62.0</ele><time>2026-04-29T14:44:47.942Z</time></trkpt><trkpt lat="37.045528" lon="22.1261934"><ele>62.0</ele><time>2026-04-29T14:44:48.942Z</time></trkpt><trkpt lat="37.045458" lon="22.1261617"><ele>62.0</ele><time>2026-04-29T14:44:49.941Z</time></trkpt><trkpt lat="37.04539" lon="22.126095"><ele>62.00000000000001</ele><time>2026-04-29T14:44:50.944Z</time></trkpt><trkpt lat="37.0453217" lon="22.1260119"><ele>62.0</ele><time>2026-04-29T14:44:51.938Z</time></trkpt><trkpt lat="37.0452717" lon="22.1259177"><ele>62.0</ele><time>2026-04-29T14:44:52.941Z</time></trkpt><trkpt lat="37.0452376" lon="22.1258065"><ele>62.0</ele><time>2026-04-29T14:44:53.94Z</time></trkpt><trkpt lat="37.0452073" lon="22.1256924"><ele>62.0</ele><time>2026-04-29T14:44:54.941Z</time></trkpt><trkpt lat="37.0451767" lon="22.1255809"><ele>62.0</ele><time>2026-04-29T14:44:55.939Z</time></trkpt><trkpt lat="37.0452292" lon="22.1254576"><ele>62.0</ele><time>2026-04-29T14:44:56.942Z</time></trkpt><trkpt lat="37.0452505" lon="22.1253485"><ele>61.2</ele><time>2026-04-29T14:44:57.938Z</time></trkpt><trkpt lat="37.0452932" lon="22.1252334"><ele>60.400000000000006</ele><time>2026-04-29T14:44:58.941Z</time></trkpt><trkpt lat="37.0453537" lon="22.1251365"><ele>59.599999999999994</ele><time>2026-04-29T14:44:59.94Z</time></trkpt><trkpt lat="37.0453982" lon="22.125032"><ele>58.8</ele><time>2026-04-29T14:45:00.943Z</time></trkpt><trkpt lat="37.0454365" lon="22.1249178"><ele>58.0</ele><time>2026-04-29T14:45:01.941Z</time></trkpt><trkpt lat="37.0454782" lon="22.1248093"><ele>57.2</ele><time>2026-04-29T14:45:02.943Z</time></trkpt><trkpt lat="37.0455211" lon="22.1247063"><ele>56.4</ele><time>2026-04-29T14:45:03.941Z</time></trkpt><trkpt lat="37.0455622" lon="22.124601"><ele>55.60000000000001</ele><time>2026-04-29T14:45:04.943Z</time></trkpt><trkpt lat="37.0455928" lon="22.1244857"><ele>54.800000000000004</ele><time>2026-04-29T14:45:05.94Z</time></trkpt><trkpt lat="37.0456149" lon="22.124369"><ele>54.0</ele><time>2026-04-29T14:45:06.941Z</time></trkpt><trkpt lat="37.0456392" lon="22.1242573"><ele>54.0</ele><time>2026-04-29T14:45:07.939Z</time></trkpt><trkpt lat="37.045647" lon="22.124145"><ele>54.0</ele><time>2026-04-29T14:45:08.941Z</time></trkpt><trkpt lat="37.0456504" lon="22.1240285"><ele>54.0</ele><time>2026-04-29T14:45:09.938Z</time></trkpt><trkpt lat="37.0456634" lon="22.1239165"><ele>54.0</ele><time>2026-04-29T14:45:10.941Z</time></trkpt><trkpt lat="37.045674" lon="22.1238069"><ele>54.0</ele><time>2026-04-29T14:45:11.939Z</time></trkpt><trkpt lat="37.0456815" lon="22.1236973"><ele>54.0</ele><time>2026-04-29T14:45:12.94Z</time></trkpt><trkpt lat="37.0456889" lon="22.1235862"><ele>53.833333333333336</ele><time>2026-04-29T14:45:13.94Z</time></trkpt><trkpt lat="37.0456947" lon="22.1234744"><ele>53.66666666666667</ele><time>2026-04-29T14:45:14.941Z</time></trkpt><trkpt lat="37.0456992" lon="22.1233648"><ele>53.5</ele><time>2026-04-29T14:45:15.94Z</time></trkpt><trkpt lat="37.0456964" lon="22.1232572"><ele>53.333333333333336</ele><time>2026-04-29T14:45:16.945Z</time></trkpt><trkpt lat="37.0456811" lon="22.1231526"><ele>53.16666666666667</ele><time>2026-04-29T14:45:17.943Z</time></trkpt><trkpt lat="37.0456529" lon="22.1230605"><ele>53.0</ele><time>2026-04-29T14:45:18.944Z</time></trkpt><trkpt lat="37.0455969" lon="22.122961"><ele>53.00000000000001</ele><time>2026-04-29T14:45:20.942Z</time></trkpt><trkpt lat="37.0455316" lon="22.1229493"><ele>53.0</ele><time>2026-04-29T14:45:22.942Z</time></trkpt><trkpt lat="37.0454876" lon="22.1230106"><ele>53.0</ele><time>2026-04-29T14:45:24.943Z</time></trkpt><trkpt lat="37.045441" lon="22.1231069"><ele>53.0</ele><time>2026-04-29T14:45:26.943Z</time></trkpt><trkpt lat="37.0453979" lon="22.1231934"><ele>53.00000000000001</ele><time>2026-04-29T14:45:28.941Z</time></trkpt><trkpt lat="37.0453178" lon="22.1232347"><ele>53.0</ele><time>2026-04-29T14:45:31.942Z</time></trkpt><trkpt lat="37.0452415" lon="22.1231959"><ele>52.2</ele><time>2026-04-29T14:45:33.941Z</time></trkpt><trkpt lat="37.0451469" lon="22.1231312"><ele>51.4</ele><time>2026-04-29T14:45:35.943Z</time></trkpt><trkpt lat="37.0450426" lon="22.1230742"><ele>50.6</ele><time>2026-04-29T14:45:37.938Z</time></trkpt><trkpt lat="37.0449663" lon="22.1230341"><ele>49.800000000000004</ele><time>2026-04-29T14:45:39.941Z</time></trkpt><trkpt lat="37.0448962" lon="22.1229813"><ele>49.0</ele><time>2026-04-29T14:45:41.944Z</time></trkpt><trkpt lat="37.0448256" lon="22.1229277"><ele>47.83333333333333</ele><time>2026-04-29T14:45:44.941Z</time></trkpt><trkpt lat="37.0447475" lon="22.1228934"><ele>46.666666666666664</ele><time>2026-04-29T14:45:46.94Z</time></trkpt><trkpt lat="37.0446675" lon="22.1228706"><ele>45.5</ele><time>2026-04-29T14:45:48.944Z</time></trkpt><trkpt lat="37.0445925" lon="22.1228472"><ele>44.33333333333333</ele><time>2026-04-29T14:45:50.942Z</time></trkpt><trkpt lat="37.0445296" lon="22.1228226"><ele>43.166666666666664</ele><time>2026-04-29T14:45:52.941Z</time></trkpt><trkpt lat="37.0444675" lon="22.1228077"><ele>42.0</ele><time>2026-04-29T14:45:58.943Z</time></trkpt><trkpt lat="37.0443991" lon="22.1227547"><ele>42.0</ele><time>2026-04-29T14:46:20.942Z</time></trkpt><trkpt lat="37.0443416" lon="22.1228566"><ele>42.0</ele><time>2026-04-29T14:46:22.939Z</time></trkpt><trkpt lat="37.044289" lon="22.1230124"><ele>42.0</ele><time>2026-04-29T14:46:24.939Z</time></trkpt><trkpt lat="37.0442714" lon="22.1230966"><ele>42.0</ele><time>2026-04-29T14:46:25.94Z</time></trkpt><trkpt lat="37.0442543" lon="22.1231873"><ele>42.0</ele><time>2026-04-29T14:46:26.939Z</time></trkpt><trkpt lat="37.0442321" lon="22.1232826"><ele>41.833333333333336</ele><time>2026-04-29T14:46:27.94Z</time></trkpt><trkpt lat="37.0442124" lon="22.1233796"><ele>41.666666666666664</ele><time>2026-04-29T14:46:28.939Z</time></trkpt><trkpt lat="37.0441909" lon="22.1234707"><ele>41.5</ele><time>2026-04-29T14:46:29.943Z</time></trkpt><trkpt lat="37.0441669" lon="22.1235551"><ele>41.33333333333333</ele><time>2026-04-29T14:46:30.941Z</time></trkpt><trkpt lat="37.0441465" lon="22.1236372"><ele>41.166666666666664</ele><time>2026-04-29T14:46:31.94Z</time></trkpt><trkpt lat="37.0440898" lon="22.1237719"><ele>41.0</ele><time>2026-04-29T14:46:33.94Z</time></trkpt><trkpt lat="37.0440547" lon="22.1238419"><ele>40.99999999999999</ele><time>2026-04-29T14:46:34.942Z</time></trkpt><trkpt lat="37.0440218" lon="22.1239179"><ele>41.0</ele><time>2026-04-29T14:46:35.941Z</time></trkpt><trkpt lat="37.0439842" lon="22.1239909"><ele>41.0</ele><time>2026-04-29T14:46:36.946Z</time></trkpt><trkpt lat="37.0439466" lon="22.1240605"><ele>41.0</ele><time>2026-04-29T14:46:37.941Z</time></trkpt><trkpt lat="37.0439129" lon="22.1241314"><ele>41.0</ele><time>2026-04-29T14:46:38.943Z</time></trkpt><trkpt lat="37.0438725" lon="22.124199"><ele>40.99999999999999</ele><time>2026-04-29T14:46:39.942Z</time></trkpt><trkpt lat="37.0438303" lon="22.1242653"><ele>41.0</ele><time>2026-04-29T14:46:40.942Z</time></trkpt><trkpt lat="37.0437571" lon="22.1243958"><ele>41.199999999999996</ele><time>2026-04-29T14:46:42.939Z</time></trkpt><trkpt lat="37.0437354" lon="22.1244715"><ele>41.4</ele><time>2026-04-29T14:46:43.94Z</time></trkpt><trkpt lat="37.0437028" lon="22.1246049"><ele>41.6</ele><time>2026-04-29T14:46:45.939Z</time></trkpt><trkpt lat="37.0436774" lon="22.1246888"><ele>41.8</ele><time>2026-04-29T14:46:47.941Z</time></trkpt><trkpt lat="37.04361" lon="22.1248028"><ele>42.0</ele><time>2026-04-29T14:46:52.942Z</time></trkpt><trkpt lat="37.043558" lon="22.1248994"><ele>42.0</ele><time>2026-04-29T14:46:54.942Z</time></trkpt><trkpt lat="37.0435178" lon="22.1249988"><ele>42.0</ele><time>2026-04-29T14:46:56.941Z</time></trkpt><trkpt lat="37.0435422" lon="22.1251099"><ele>42.0</ele><time>2026-04-29T14:46:59.94Z</time></trkpt><trkpt lat="37.0435311" lon="22.125191"><ele>42.0</ele><time>2026-04-29T14:47:01.941Z</time></trkpt><trkpt lat="37.0434903" lon="22.125303"><ele>42.0</ele><time>2026-04-29T14:47:03.942Z</time></trkpt><trkpt lat="37.0434609" lon="22.1253953"><ele>42.0</ele><time>2026-04-29T14:47:04.943Z</time></trkpt><trkpt lat="37.0434319" lon="22.1254835"><ele>42.0</ele><time>2026-04-29T14:47:05.946Z</time></trkpt><trkpt lat="37.0433954" lon="22.1255742"><ele>42.0</ele><time>2026-04-29T14:47:06.942Z</time></trkpt><trkpt lat="37.0433651" lon="22.125659"><ele>42.0</ele><time>2026-04-29T14:47:07.94Z</time></trkpt><trkpt lat="37.043326" lon="22.1257491"><ele>42.0</ele><time>2026-04-29T14:47:08.938Z</time></trkpt><trkpt lat="37.0432921" lon="22.1258371"><ele>42.0</ele><time>2026-04-29T14:47:09.941Z</time></trkpt><trkpt lat="37.0432666" lon="22.1259184"><ele>42.0</ele><time>2026-04-29T14:47:10.94Z</time></trkpt><trkpt lat="37.0432344" lon="22.1260157"><ele>41.333333333333336</ele><time>2026-04-29T14:47:11.939Z</time></trkpt><trkpt lat="37.0432041" lon="22.1261033"><ele>40.666666666666664</ele><time>2026-04-29T14:47:12.939Z</time></trkpt><trkpt lat="37.0431723" lon="22.1261927"><ele>40.0</ele><time>2026-04-29T14:47:13.939Z</time></trkpt><trkpt lat="37.0431437" lon="22.1262832"><ele>39.33333333333333</ele><time>2026-04-29T14:47:14.94Z</time></trkpt><trkpt lat="37.0431206" lon="22.1263622"><ele>38.666666666666664</ele><time>2026-04-29T14:47:15.939Z</time></trkpt><trkpt lat="37.0430809" lon="22.1264877"><ele>38.0</ele><time>2026-04-29T14:47:17.939Z</time></trkpt><trkpt lat="37.0430336" lon="22.1265514"><ele>38.0</ele><time>2026-04-29T14:47:19.94Z</time></trkpt><trkpt lat="37.0429433" lon="22.1265463"><ele>38.0</ele><time>2026-04-29T14:47:21.939Z</time></trkpt><trkpt lat="37.0428515" lon="22.1264873"><ele>38.0</ele><time>2026-04-29T14:47:23.941Z</time></trkpt><trkpt lat="37.0427866" lon="22.126461"><ele>38.0</ele><time>2026-04-29T14:47:24.941Z</time></trkpt><trkpt lat="37.0427054" lon="22.1264298"><ele>38.0</ele><time>2026-04-29T14:47:25.94Z</time></trkpt><trkpt lat="37.0426161" lon="22.1264009"><ele>38.0</ele><time>2026-04-29T14:47:26.94Z</time></trkpt><trkpt lat="37.0425276" lon="22.1263745"><ele>37.6</ele><time>2026-04-29T14:47:27.939Z</time></trkpt><trkpt lat="37.0424297" lon="22.1263671"><ele>37.199999999999996</ele><time>2026-04-29T14:47:28.94Z</time></trkpt><trkpt lat="37.0423265" lon="22.1263697"><ele>36.8</ele><time>2026-04-29T14:47:29.938Z</time></trkpt><trkpt lat="37.0422215" lon="22.1263716"><ele>36.4</ele><time>2026-04-29T14:47:30.94Z</time></trkpt><trkpt lat="37.0421139" lon="22.12637"><ele>36.0</ele><time>2026-04-29T14:47:31.942Z</time></trkpt><trkpt lat="37.0420088" lon="22.1263691"><ele>36.0</ele><time>2026-04-29T14:47:32.941Z</time></trkpt><trkpt lat="37.0419024" lon="22.1263735"><ele>36.0</ele><time>2026-04-29T14:47:33.939Z</time></trkpt><trkpt lat="37.0417926" lon="22.1263841"><ele>36.0</ele><time>2026-04-29T14:47:34.939Z</time></trkpt><trkpt lat="37.0416851" lon="22.1263962"><ele>36.0</ele><time>2026-04-29T14:47:35.941Z</time></trkpt><trkpt lat="37.0415784" lon="22.1264076"><ele>36.0</ele><time>2026-04-29T14:47:36.941Z</time></trkpt><trkpt lat="37.0414723" lon="22.1264166"><ele>35.5</ele><time>2026-04-29T14:47:37.939Z</time></trkpt><trkpt lat="37.0413776" lon="22.1264255"><ele>35.0</ele><time>2026-04-29T14:47:38.941Z</time></trkpt><trkpt lat="37.0412958" lon="22.1264258"><ele>34.5</ele><time>2026-04-29T14:47:39.941Z</time></trkpt><trkpt lat="37.041231" lon="22.1264284"><ele>34.0</ele><time>2026-04-29T14:47:40.944Z</time></trkpt><trkpt lat="37.0411575" lon="22.1263797"><ele>33.5</ele><time>2026-04-29T14:47:42.943Z</time></trkpt><trkpt lat="37.0411383" lon="22.1262873"><ele>33.0</ele><time>2026-04-29T14:47:45.944Z</time></trkpt><trkpt lat="37.0411999" lon="22.1261728"><ele>33.0</ele><time>2026-04-29T14:47:47.943Z</time></trkpt><trkpt lat="37.0412237" lon="22.1260951"><ele>33.0</ele><time>2026-04-29T14:47:48.942Z</time></trkpt><trkpt lat="37.0412575" lon="22.1260036"><ele>33.0</ele><time>2026-04-29T14:47:49.942Z</time></trkpt><trkpt lat="37.0412672" lon="22.1258931"><ele>33.0</ele><time>2026-04-29T14:47:50.938Z</time></trkpt><trkpt lat="37.0412614" lon="22.1257852"><ele>33.0</ele><time>2026-04-29T14:47:51.94Z</time></trkpt><trkpt lat="37.0412524" lon="22.1256681"><ele>33.0</ele><time>2026-04-29T14:47:52.941Z</time></trkpt><trkpt lat="37.0412382" lon="22.1255583"><ele>32.5</ele><time>2026-04-29T14:47:53.941Z</time></trkpt><trkpt lat="37.0412258" lon="22.1254615"><ele>32.0</ele><time>2026-04-29T14:47:54.942Z</time></trkpt><trkpt lat="37.0412147" lon="22.1253754"><ele>31.5</ele><time>2026-04-29T14:47:55.944Z</time></trkpt><trkpt lat="37.0411973" lon="22.125255"><ele>31.0</ele><time>2026-04-29T14:47:57.943Z</time></trkpt><trkpt lat="37.0411522" lon="22.1251589"><ele>30.5</ele><time>2026-04-29T14:47:59.94Z</time></trkpt><trkpt lat="37.041093" lon="22.1250763"><ele>30.0</ele><time>2026-04-29T14:48:01.941Z</time></trkpt><trkpt lat="37.0410242" lon="22.125032"><ele>30.0</ele><time>2026-04-29T14:48:02.944Z</time></trkpt><trkpt lat="37.0409363" lon="22.1249892"><ele>30.0</ele><time>2026-04-29T14:48:03.941Z</time></trkpt><trkpt lat="37.0408494" lon="22.1249397"><ele>30.0</ele><time>2026-04-29T14:48:04.938Z</time></trkpt><trkpt lat="37.0407657" lon="22.124886"><ele>30.0</ele><time>2026-04-29T14:48:05.942Z</time></trkpt><trkpt lat="37.0406867" lon="22.1248295"><ele>30.0</ele><time>2026-04-29T14:48:06.943Z</time></trkpt><trkpt lat="37.0406085" lon="22.1247888"><ele>29.0</ele><time>2026-04-29T14:48:07.941Z</time></trkpt><trkpt lat="37.0405272" lon="22.1247421"><ele>28.0</ele><time>2026-04-29T14:48:08.942Z</time></trkpt><trkpt lat="37.0404223" lon="22.124705"><ele>27.0</ele><time>2026-04-29T14:48:09.941Z</time></trkpt><trkpt lat="37.0403256" lon="22.1246407"><ele>26.0</ele><time>2026-04-29T14:48:10.941Z</time></trkpt><trkpt lat="37.0402312" lon="22.1245991"><ele>25.0</ele><time>2026-04-29T14:48:11.944Z</time></trkpt><trkpt lat="37.0401353" lon="22.1245585"><ele>25.0</ele><time>2026-04-29T14:48:12.94Z</time></trkpt><trkpt lat="37.0400376" lon="22.1245094"><ele>25.0</ele><time>2026-04-29T14:48:13.941Z</time></trkpt><trkpt lat="37.0399439" lon="22.1244547"><ele>25.0</ele><time>2026-04-29T14:48:14.944Z</time></trkpt><trkpt lat="37.0398449" lon="22.1243972"><ele>25.0</ele><time>2026-04-29T14:48:15.94Z</time></trkpt><trkpt lat="37.0397454" lon="22.1243451"><ele>25.0</ele><time>2026-04-29T14:48:16.944Z</time></trkpt><trkpt lat="37.0396507" lon="22.1242987"><ele>24.8</ele><time>2026-04-29T14:48:17.941Z</time></trkpt><trkpt lat="37.0395551" lon="22.1242528"><ele>24.6</ele><time>2026-04-29T14:48:18.943Z</time></trkpt><trkpt lat="37.0394562" lon="22.124209"><ele>24.4</ele><time>2026-04-29T14:48:19.942Z</time></trkpt><trkpt lat="37.0393577" lon="22.1241599"><ele>24.2</ele><time>2026-04-29T14:48:20.943Z</time></trkpt><trkpt lat="37.0392592" lon="22.1241158"><ele>24.0</ele><time>2026-04-29T14:48:21.942Z</time></trkpt><trkpt lat="37.0391637" lon="22.1240676"><ele>23.2</ele><time>2026-04-29T14:48:22.941Z</time></trkpt><trkpt lat="37.0390672" lon="22.1240191"><ele>22.4</ele><time>2026-04-29T14:48:23.941Z</time></trkpt><trkpt lat="37.0389733" lon="22.123974"><ele>21.6</ele><time>2026-04-29T14:48:24.942Z</time></trkpt><trkpt lat="37.0388844" lon="22.1239303"><ele>20.8</ele><time>2026-04-29T14:48:25.94Z</time></trkpt><trkpt lat="37.0387932" lon="22.1238817"><ele>20.0</ele><time>2026-04-29T14:48:26.942Z</time></trkpt><trkpt lat="37.0387041" lon="22.123834"><ele>20.0</ele><time>2026-04-29T14:48:27.942Z</time></trkpt><trkpt lat="37.0386197" lon="22.1237955"><ele>20.0</ele><time>2026-04-29T14:48:28.945Z</time></trkpt><trkpt lat="37.0385277" lon="22.1237584"><ele>20.0</ele><time>2026-04-29T14:48:29.942Z</time></trkpt><trkpt lat="37.038438" lon="22.1237083"><ele>20.0</ele><time>2026-04-29T14:48:30.942Z</time></trkpt><trkpt lat="37.0383494" lon="22.1236737"><ele>20.0</ele><time>2026-04-29T14:48:31.942Z</time></trkpt><trkpt lat="37.0382493" lon="22.1236309"><ele>19.8</ele><time>2026-04-29T14:48:32.938Z</time></trkpt><trkpt lat="37.0381547" lon="22.1235889"><ele>19.6</ele><time>2026-04-29T14:48:33.941Z</time></trkpt><trkpt lat="37.0380644" lon="22.1235317"><ele>19.4</ele><time>2026-04-29T14:48:34.942Z</time></trkpt><trkpt lat="37.0379861" lon="22.1234836"><ele>19.2</ele><time>2026-04-29T14:48:35.941Z</time></trkpt><trkpt lat="37.0379042" lon="22.123438"><ele>19.0</ele><time>2026-04-29T14:48:36.939Z</time></trkpt><trkpt lat="37.0378332" lon="22.123401"><ele>19.0</ele><time>2026-04-29T14:48:37.941Z</time></trkpt><trkpt lat="37.0377759" lon="22.1233645"><ele>19.0</ele><time>2026-04-29T14:48:38.94Z</time></trkpt><trkpt lat="37.037709" lon="22.1233151"><ele>19.0</ele><time>2026-04-29T14:48:40.941Z</time></trkpt><trkpt lat="37.0376339" lon="22.1232576"><ele>19.0</ele><time>2026-04-29T14:48:47.94Z</time></trkpt><trkpt lat="37.0375152" lon="22.123273"><ele>19.0</ele><time>2026-04-29T14:48:49.942Z</time></trkpt><trkpt lat="37.0373941" lon="22.1232975"><ele>18.666666666666664</ele><time>2026-04-29T14:48:51.943Z</time></trkpt><trkpt lat="37.0372706" lon="22.1233092"><ele>18.333333333333332</ele><time>2026-04-29T14:48:53.945Z</time></trkpt><trkpt lat="37.0372013" lon="22.1233081"><ele>18.0</ele><time>2026-04-29T14:48:54.941Z</time></trkpt><trkpt lat="37.0371323" lon="22.1233199"><ele>17.666666666666668</ele><time>2026-04-29T14:48:55.941Z</time></trkpt><trkpt lat="37.0370601" lon="22.1233207"><ele>17.333333333333336</ele><time>2026-04-29T14:48:56.941Z</time></trkpt><trkpt lat="37.0369933" lon="22.1233215"><ele>17.0</ele><time>2026-04-29T14:48:57.94Z</time></trkpt><trkpt lat="37.036927" lon="22.1233291"><ele>16.999999999999996</ele><time>2026-04-29T14:48:58.94Z</time></trkpt><trkpt lat="37.036863" lon="22.123339"><ele>17.0</ele><time>2026-04-29T14:48:59.942Z</time></trkpt><trkpt lat="37.0367983" lon="22.1233457"><ele>17.0</ele><time>2026-04-29T14:49:00.942Z</time></trkpt><trkpt lat="37.0367353" lon="22.1233504"><ele>17.0</ele><time>2026-04-29T14:49:01.941Z</time></trkpt><trkpt lat="37.0366317" lon="22.1233593"><ele>17.0</ele><time>2026-04-29T14:49:03.942Z</time></trkpt><trkpt lat="37.0365587" lon="22.1233589"><ele>16.999999999999996</ele><time>2026-04-29T14:49:05.945Z</time></trkpt><trkpt lat="37.0364919" lon="22.1233454"><ele>17.0</ele><time>2026-04-29T14:49:08.943Z</time></trkpt><trkpt lat="37.0364479" lon="22.1232717"><ele>16.5</ele><time>2026-04-29T14:49:11.944Z</time></trkpt><trkpt lat="37.0364452" lon="22.1231459"><ele>16.0</ele><time>2026-04-29T14:49:13.943Z</time></trkpt><trkpt lat="37.0364456" lon="22.1230563"><ele>15.5</ele><time>2026-04-29T14:49:14.939Z</time></trkpt><trkpt lat="37.0364722" lon="22.1229726"><ele>15.0</ele><time>2026-04-29T14:49:15.942Z</time></trkpt><trkpt lat="37.0364747" lon="22.1228803"><ele>14.500000000000002</ele><time>2026-04-29T14:49:16.946Z</time></trkpt><trkpt lat="37.0364818" lon="22.1227849"><ele>14.0</ele><time>2026-04-29T14:49:17.942Z</time></trkpt><trkpt lat="37.0364935" lon="22.1226941"><ele>14.0</ele><time>2026-04-29T14:49:18.939Z</time></trkpt><trkpt lat="37.0364923" lon="22.1226118"><ele>13.999999999999998</ele><time>2026-04-29T14:49:19.942Z</time></trkpt><trkpt lat="37.0365" lon="22.1224792"><ele>13.999999999999998</ele><time>2026-04-29T14:49:21.941Z</time></trkpt><trkpt lat="37.0365179" lon="22.1223865"><ele>14.0</ele><time>2026-04-29T14:49:23.94Z</time></trkpt><trkpt lat="37.0365306" lon="22.1222879"><ele>14.0</ele><time>2026-04-29T14:49:36.94Z</time></trkpt><trkpt lat="37.0365446" lon="22.1221294"><ele>14.000000000000002</ele><time>2026-04-29T14:49:38.939Z</time></trkpt><trkpt lat="37.036546" lon="22.1220425"><ele>14.0</ele><time>2026-04-29T14:49:39.94Z</time></trkpt><trkpt lat="37.0365051" lon="22.1219114"><ele>14.0</ele><time>2026-04-29T14:49:41.94Z</time></trkpt><trkpt lat="37.0363974" lon="22.1218673"><ele>14.0</ele><time>2026-04-29T14:49:43.943Z</time></trkpt><trkpt lat="37.03633" lon="22.1218662"><ele>14.000000000000002</ele><time>2026-04-29T14:49:44.945Z</time></trkpt><trkpt lat="37.0362446" lon="22.1218673"><ele>14.0</ele><time>2026-04-29T14:49:45.939Z</time></trkpt><trkpt lat="37.0361408" lon="22.1218616"><ele>14.0</ele><time>2026-04-29T14:49:46.94Z</time></trkpt><trkpt lat="37.0359976" lon="22.1218587"><ele>14.0</ele><time>2026-04-29T14:49:47.939Z</time></trkpt><trkpt lat="37.0358444" lon="22.1218498"><ele>14.0</ele><time>2026-04-29T14:49:48.941Z</time></trkpt><trkpt lat="37.0356832" lon="22.1218365"><ele>13.0</ele><time>2026-04-29T14:49:49.941Z</time></trkpt><trkpt lat="37.0355103" lon="22.1218325"><ele>12.0</ele><time>2026-04-29T14:49:50.941Z</time></trkpt><trkpt lat="37.0353435" lon="22.1218171"><ele>11.0</ele><time>2026-04-29T14:49:51.941Z</time></trkpt><trkpt lat="37.0351875" lon="22.121808"><ele>11.0</ele><time>2026-04-29T14:49:52.94Z</time></trkpt><trkpt lat="37.0350304" lon="22.1217971"><ele>11.0</ele><time>2026-04-29T14:49:53.941Z</time></trkpt><trkpt lat="37.0348735" lon="22.1217932"><ele>11.0</ele><time>2026-04-29T14:49:54.94Z</time></trkpt><trkpt lat="37.0347168" lon="22.1217872"><ele>10.0</ele><time>2026-04-29T14:49:55.941Z</time></trkpt><trkpt lat="37.0345567" lon="22.1217828"><ele>9.0</ele><time>2026-04-29T14:49:56.942Z</time></trkpt><trkpt lat="37.0343974" lon="22.1217744"><ele>8.0</ele><time>2026-04-29T14:49:57.943Z</time></trkpt><trkpt lat="37.0342335" lon="22.1217678"><ele>7.666666666666666</ele><time>2026-04-29T14:49:58.941Z</time></trkpt><trkpt lat="37.0340718" lon="22.1217634"><ele>7.333333333333334</ele><time>2026-04-29T14:49:59.941Z</time></trkpt><trkpt lat="37.03391" lon="22.1217574"><ele>7.0</ele><time>2026-04-29T14:50:00.941Z</time></trkpt><trkpt lat="37.0337465" lon="22.1217559"><ele>7.0</ele><time>2026-04-29T14:50:01.938Z</time></trkpt><trkpt lat="37.0335844" lon="22.1217506"><ele>7.0</ele><time>2026-04-29T14:50:02.94Z</time></trkpt><trkpt lat="37.0334218" lon="22.1217451"><ele>7.0</ele><time>2026-04-29T14:50:03.94Z</time></trkpt><trkpt lat="37.0332642" lon="22.1217465"><ele>7.333333333333334</ele><time>2026-04-29T14:50:04.939Z</time></trkpt><trkpt lat="37.0331069" lon="22.1217459"><ele>7.666666666666666</ele><time>2026-04-29T14:50:05.941Z</time></trkpt><trkpt lat="37.0329514" lon="22.1217423"><ele>8.0</ele><time>2026-04-29T14:50:06.94Z</time></trkpt><trkpt lat="37.0328088" lon="22.1217348"><ele>8.0</ele><time>2026-04-29T14:50:07.94Z</time></trkpt><trkpt lat="37.0326723" lon="22.1217289"><ele>8.0</ele><time>2026-04-29T14:50:08.943Z</time></trkpt><trkpt lat="37.0325406" lon="22.121724"><ele>8.0</ele><time>2026-04-29T14:50:09.943Z</time></trkpt><trkpt lat="37.0324114" lon="22.1217193"><ele>8.0</ele><time>2026-04-29T14:50:10.94Z</time></trkpt><trkpt lat="37.0322944" lon="22.1217169"><ele>8.0</ele><time>2026-04-29T14:50:11.941Z</time></trkpt><trkpt lat="37.0321771" lon="22.1217055"><ele>8.0</ele><time>2026-04-29T14:50:12.941Z</time></trkpt><trkpt lat="37.0320609" lon="22.1216958"><ele>8.0</ele><time>2026-04-29T14:50:13.941Z</time></trkpt><trkpt lat="37.0319474" lon="22.1217049"><ele>8.0</ele><time>2026-04-29T14:50:14.941Z</time></trkpt><trkpt lat="37.0318377" lon="22.1217039"><ele>8.0</ele><time>2026-04-29T14:50:15.942Z</time></trkpt><trkpt lat="37.0317291" lon="22.1216915"><ele>8.0</ele><time>2026-04-29T14:50:16.94Z</time></trkpt><trkpt lat="37.031622" lon="22.1216882"><ele>8.0</ele><time>2026-04-29T14:50:17.942Z</time></trkpt><trkpt lat="37.0315045" lon="22.121692"><ele>8.0</ele><time>2026-04-29T14:50:18.941Z</time></trkpt><trkpt lat="37.0313647" lon="22.1217022"><ele>8.0</ele><time>2026-04-29T14:50:19.939Z</time></trkpt><trkpt lat="37.0312189" lon="22.1217043"><ele>8.0</ele><time>2026-04-29T14:50:20.94Z</time></trkpt><trkpt lat="37.03106" lon="22.1216849"><ele>8.0</ele><time>2026-04-29T14:50:21.94Z</time></trkpt><trkpt lat="37.0309073" lon="22.1216627"><ele>7.5</ele><time>2026-04-29T14:50:22.94Z</time></trkpt><trkpt lat="37.0307693" lon="22.1216607"><ele>7.0</ele><time>2026-04-29T14:50:23.941Z</time></trkpt><trkpt lat="37.0306418" lon="22.1216586"><ele>6.5</ele><time>2026-04-29T14:50:24.938Z</time></trkpt><trkpt lat="37.0305105" lon="22.1216501"><ele>6.0</ele><time>2026-04-29T14:50:25.943Z</time></trkpt><trkpt lat="37.0303873" lon="22.1216427"><ele>6.0</ele><time>2026-04-29T14:50:26.943Z</time></trkpt><trkpt lat="37.0302689" lon="22.1216441"><ele>6.0</ele><time>2026-04-29T14:50:27.94Z</time></trkpt><trkpt lat="37.0301481" lon="22.1216367"><ele>6.0</ele><time>2026-04-29T14:50:28.943Z</time></trkpt><trkpt lat="37.0300285" lon="22.1216335"><ele>6.0</ele><time>2026-04-29T14:50:29.94Z</time></trkpt><trkpt lat="37.029901" lon="22.1216294"><ele>6.25</ele><time>2026-04-29T14:50:30.942Z</time></trkpt><trkpt lat="37.0297758" lon="22.1216305"><ele>6.5</ele><time>2026-04-29T14:50:31.941Z</time></trkpt><trkpt lat="37.0296532" lon="22.1216276"><ele>6.75</ele><time>2026-04-29T14:50:32.937Z</time></trkpt><trkpt lat="37.029528" lon="22.1216238"><ele>7.0</ele><time>2026-04-29T14:50:33.939Z</time></trkpt><trkpt lat="37.0294027" lon="22.1216114"><ele>7.0</ele><time>2026-04-29T14:50:34.943Z</time></trkpt><trkpt lat="37.0292749" lon="22.1216123"><ele>7.0</ele><time>2026-04-29T14:50:35.943Z</time></trkpt><trkpt lat="37.0291433" lon="22.1216138"><ele>7.0</ele><time>2026-04-29T14:50:36.941Z</time></trkpt><trkpt lat="37.0290209" lon="22.121608"><ele>7.0</ele><time>2026-04-29T14:50:37.94Z</time></trkpt><trkpt lat="37.0289099" lon="22.1216164"><ele>6.6</ele><time>2026-04-29T14:50:38.941Z</time></trkpt><trkpt lat="37.028795" lon="22.1216302"><ele>6.199999999999999</ele><time>2026-04-29T14:50:39.941Z</time></trkpt><trkpt lat="37.0286827" lon="22.1216236"><ele>5.8</ele><time>2026-04-29T14:50:40.938Z</time></trkpt><trkpt lat="37.0285742" lon="22.1216191"><ele>5.4</ele><time>2026-04-29T14:50:41.939Z</time></trkpt><trkpt lat="37.0284736" lon="22.1216122"><ele>5.0</ele><time>2026-04-29T14:50:42.939Z</time></trkpt><trkpt lat="37.0283965" lon="22.1216064"><ele>5.0</ele><time>2026-04-29T14:50:43.941Z</time></trkpt><trkpt lat="37.0283103" lon="22.1215825"><ele>5.0</ele><time>2026-04-29T14:50:45.94Z</time></trkpt><trkpt lat="37.0282439" lon="22.1215671"><ele>5.0</ele><time>2026-04-29T14:51:37.939Z</time></trkpt><trkpt lat="37.0281724" lon="22.121566"><ele>5.0</ele><time>2026-04-29T14:51:39.939Z</time></trkpt><trkpt lat="37.0281092" lon="22.1214906"><ele>5.0</ele><time>2026-04-29T14:51:41.941Z</time></trkpt><trkpt lat="37.0280599" lon="22.1213802"><ele>5.0</ele><time>2026-04-29T14:51:43.939Z</time></trkpt><trkpt lat="37.0280418" lon="22.121273"><ele>4.833333333333334</ele><time>2026-04-29T14:51:44.94Z</time></trkpt><trkpt lat="37.0280272" lon="22.1211828"><ele>4.666666666666667</ele><time>2026-04-29T14:51:45.941Z</time></trkpt><trkpt lat="37.028003" lon="22.1210872"><ele>4.5</ele><time>2026-04-29T14:51:46.938Z</time></trkpt><trkpt lat="37.0279848" lon="22.1209733"><ele>4.333333333333333</ele><time>2026-04-29T14:51:47.939Z</time></trkpt><trkpt lat="37.0279738" lon="22.1208658"><ele>4.166666666666666</ele><time>2026-04-29T14:51:48.942Z</time></trkpt><trkpt lat="37.0279635" lon="22.1207606"><ele>4.0</ele><time>2026-04-29T14:51:49.941Z</time></trkpt><trkpt lat="37.0279464" lon="22.1206617"><ele>3.9999999999999996</ele><time>2026-04-29T14:51:50.936Z</time></trkpt><trkpt lat="37.0279286" lon="22.1205677"><ele>4.0</ele><time>2026-04-29T14:51:51.942Z</time></trkpt><trkpt lat="37.0279123" lon="22.1204732"><ele>4.0</ele><time>2026-04-29T14:51:52.94Z</time></trkpt><trkpt lat="37.0279006" lon="22.1203784"><ele>4.0</ele><time>2026-04-29T14:51:53.94Z</time></trkpt><trkpt lat="37.027893" lon="22.1202873"><ele>3.9999999999999996</ele><time>2026-04-29T14:51:54.939Z</time></trkpt><trkpt lat="37.0278796" lon="22.1202079"><ele>4.0</ele><time>2026-04-29T14:51:55.938Z</time></trkpt><trkpt lat="37.0278495" lon="22.1200913"><ele>4.0</ele><time>2026-04-29T14:51:57.938Z</time></trkpt><trkpt lat="37.0278189" lon="22.1200214"><ele>4.0</ele><time>2026-04-29T14:52:01.515Z</time></trkpt><trkpt lat="37.0277618" lon="22.1199606"><ele>4.0</ele><time>2026-04-29T14:52:10.926Z</time></trkpt><trkpt lat="37.0277427" lon="22.1198658"><ele>6.0</ele><time>2026-04-29T14:52:13.926Z</time></trkpt><trkpt lat="37.0277325" lon="22.119786"><ele>6.0</ele><time>2026-04-29T14:52:16.927Z</time></trkpt></trkseg><trkseg><trkpt lat="37.0276608" lon="22.1197461"><ele>5.999999999999999</ele><time>2026-04-30T07:10:53.905Z</time></trkpt><trkpt lat="37.0276023" lon="22.119779"><ele>6.0</ele><time>2026-04-30T07:10:59.87Z</time></trkpt><trkpt lat="37.027647" lon="22.1197017"><ele>6.0</ele><time>2026-04-30T07:11:36.872Z</time></trkpt><trkpt lat="37.0277155" lon="22.1196884"><ele>6.0</ele><time>2026-04-30T07:11:42.906Z</time></trkpt><trkpt lat="37.0276932" lon="22.1197691"><ele>6.0</ele><time>2026-04-30T07:11:51.745Z</time></trkpt><trkpt lat="37.0276403" lon="22.1197162"><ele>5.999999999999999</ele><time>2026-04-30T07:14:07.905Z</time></trkpt><trkpt lat="37.0276617" lon="22.1196341"><ele>6.0</ele><time>2026-04-30T07:14:19.906Z</time></trkpt><trkpt lat="37.0277147" lon="22.1196816"><ele>6.0</ele><time>2026-04-30T07:14:23.906Z</time></trkpt><trkpt lat="37.0276945" lon="22.1197615"><ele>6.0</ele><time>2026-04-30T07:15:14.905Z</time></trkpt><trkpt lat="37.0277092" lon="22.1196809"><ele>6.0</ele><time>2026-04-30T07:21:21.887Z</time></trkpt><trkpt lat="37.0277502" lon="22.1197426"><ele>6.0</ele><time>2026-04-30T07:21:55.905Z</time></trkpt><trkpt lat="37.0277137" lon="22.1194694"><ele>6.0</ele><time>2026-04-30T07:26:00.905Z</time></trkpt><trkpt lat="37.0276821" lon="22.1193913"><ele>6.0</ele><time>2026-04-30T07:26:03.906Z</time></trkpt><trkpt lat="37.0276478" lon="22.119299"><ele>6.0</ele><time>2026-04-30T07:26:06.906Z</time></trkpt><trkpt lat="37.0276144" lon="22.1192104"><ele>6.0</ele><time>2026-04-30T07:26:08.905Z</time></trkpt><trkpt lat="37.0275804" lon="22.1191174"><ele>6.0</ele><time>2026-04-30T07:26:10.905Z</time></trkpt><trkpt lat="37.0275479" lon="22.119041"><ele>6.0</ele><time>2026-04-30T07:26:12.906Z</time></trkpt><trkpt lat="37.0275184" lon="22.1189647"><ele>6.0</ele><time>2026-04-30T07:26:15.905Z</time></trkpt><trkpt lat="37.0274865" lon="22.1188754"><ele>5.833333333333333</ele><time>2026-04-30T07:26:19.906Z</time></trkpt><trkpt lat="37.027456" lon="22.1188062"><ele>5.666666666666667</ele><time>2026-04-30T07:26:21.905Z</time></trkpt><trkpt lat="37.027415" lon="22.1187122"><ele>5.5</ele><time>2026-04-30T07:26:23.906Z</time></trkpt><trkpt lat="37.0273766" lon="22.1185904"><ele>5.333333333333334</ele><time>2026-04-30T07:26:25.905Z</time></trkpt><trkpt lat="37.0273617" lon="22.118506"><ele>5.166666666666667</ele><time>2026-04-30T07:26:26.906Z</time></trkpt><trkpt lat="37.0273393" lon="22.1184212"><ele>5.0</ele><time>2026-04-30T07:26:27.906Z</time></trkpt><trkpt lat="37.0273257" lon="22.1183314"><ele>5.0</ele><time>2026-04-30T07:26:28.905Z</time></trkpt><trkpt lat="37.0273191" lon="22.1182379"><ele>5.0</ele><time>2026-04-30T07:26:29.906Z</time></trkpt><trkpt lat="37.0273114" lon="22.1181537"><ele>5.0</ele><time>2026-04-30T07:26:30.905Z</time></trkpt><trkpt lat="37.02731" lon="22.1180606"><ele>5.0</ele><time>2026-04-30T07:26:31.906Z</time></trkpt><trkpt lat="37.0273071" lon="22.1179636"><ele>5.0</ele><time>2026-04-30T07:26:32.906Z</time></trkpt><trkpt lat="37.0273051" lon="22.11787"><ele>5.0</ele><time>2026-04-30T07:26:33.906Z</time></trkpt><trkpt lat="37.0273074" lon="22.117775"><ele>5.0</ele><time>2026-04-30T07:26:34.905Z</time></trkpt><trkpt lat="37.0273126" lon="22.1176789"><ele>4.833333333333334</ele><time>2026-04-30T07:26:35.905Z</time></trkpt><trkpt lat="37.0273133" lon="22.117582"><ele>4.666666666666667</ele><time>2026-04-30T07:26:36.905Z</time></trkpt><trkpt lat="37.0273174" lon="22.1174816"><ele>4.5</ele><time>2026-04-30T07:26:37.905Z</time></trkpt><trkpt lat="37.0273204" lon="22.1173839"><ele>4.333333333333333</ele><time>2026-04-30T07:26:38.906Z</time></trkpt><trkpt lat="37.0273268" lon="22.1172852"><ele>4.166666666666666</ele><time>2026-04-30T07:26:39.906Z</time></trkpt><trkpt lat="37.0273308" lon="22.1171892"><ele>4.0</ele><time>2026-04-30T07:26:40.905Z</time></trkpt><trkpt lat="37.0273352" lon="22.1170906"><ele>4.333333333333333</ele><time>2026-04-30T07:26:41.906Z</time></trkpt><trkpt lat="37.0273381" lon="22.1169994"><ele>4.666666666666666</ele><time>2026-04-30T07:26:42.905Z</time></trkpt><trkpt lat="37.0273426" lon="22.1169112"><ele>5.0</ele><time>2026-04-30T07:26:43.905Z</time></trkpt><trkpt lat="37.0273451" lon="22.1168298"><ele>5.333333333333333</ele><time>2026-04-30T07:26:44.906Z</time></trkpt><trkpt lat="37.0273484" lon="22.1167485"><ele>5.666666666666667</ele><time>2026-04-30T07:26:45.905Z</time></trkpt><trkpt lat="37.0273452" lon="22.1166676"><ele>6.0</ele><time>2026-04-30T07:26:46.905Z</time></trkpt><trkpt lat="37.0273419" lon="22.1165182"><ele>6.666666666666667</ele><time>2026-04-30T07:26:48.906Z</time></trkpt><trkpt lat="37.0273527" lon="22.116404"><ele>7.333333333333334</ele><time>2026-04-30T07:26:50.905Z</time></trkpt><trkpt lat="37.0273504" lon="22.116305"><ele>8.0</ele><time>2026-04-30T07:26:52.905Z</time></trkpt><trkpt lat="37.0273551" lon="22.1162196"><ele>8.666666666666668</ele><time>2026-04-30T07:26:55.906Z</time></trkpt><trkpt lat="37.0273428" lon="22.1160991"><ele>9.333333333333334</ele><time>2026-04-30T07:27:37.905Z</time></trkpt><trkpt lat="37.0273495" lon="22.1160186"><ele>10.0</ele><time>2026-04-30T07:27:38.905Z</time></trkpt><trkpt lat="37.0273575" lon="22.1159331"><ele>10.0</ele><time>2026-04-30T07:27:39.906Z</time></trkpt><trkpt lat="37.0273592" lon="22.115831"><ele>10.0</ele><time>2026-04-30T07:27:40.905Z</time></trkpt><trkpt lat="37.0273615" lon="22.115718"><ele>10.0</ele><time>2026-04-30T07:27:41.905Z</time></trkpt><trkpt lat="37.0273609" lon="22.1156091"><ele>10.0</ele><time>2026-04-30T07:27:42.905Z</time></trkpt><trkpt lat="37.0273633" lon="22.1154949"><ele>10.0</ele><time>2026-04-30T07:27:43.906Z</time></trkpt><trkpt lat="37.0273612" lon="22.115381"><ele>10.0</ele><time>2026-04-30T07:27:44.905Z</time></trkpt><trkpt lat="37.0273611" lon="22.1152673"><ele>10.0</ele><time>2026-04-30T07:27:45.905Z</time></trkpt><trkpt lat="37.0273595" lon="22.1151551"><ele>10.0</ele><time>2026-04-30T07:27:46.905Z</time></trkpt><trkpt lat="37.027355" lon="22.1150602"><ele>10.0</ele><time>2026-04-30T07:27:47.905Z</time></trkpt><trkpt lat="37.0273597" lon="22.1149463"><ele>10.0</ele><time>2026-04-30T07:27:48.906Z</time></trkpt><trkpt lat="37.0273661" lon="22.1148346"><ele>10.0</ele><time>2026-04-30T07:27:49.905Z</time></trkpt><trkpt lat="37.0273747" lon="22.1147309"><ele>10.0</ele><time>2026-04-30T07:27:50.906Z</time></trkpt><trkpt lat="37.0273793" lon="22.1146268"><ele>10.0</ele><time>2026-04-30T07:27:51.905Z</time></trkpt><trkpt lat="37.0273821" lon="22.1145366"><ele>10.0</ele><time>2026-04-30T07:27:52.906Z</time></trkpt><trkpt lat="37.0273804" lon="22.1144516"><ele>10.0</ele><time>2026-04-30T07:27:53.905Z</time></trkpt><trkpt lat="37.027383" lon="22.1143582"><ele>10.0</ele><time>2026-04-30T07:27:54.906Z</time></trkpt><trkpt lat="37.0273841" lon="22.1142462"><ele>10.0</ele><time>2026-04-30T07:27:55.905Z</time></trkpt><trkpt lat="37.0273863" lon="22.1141645"><ele>10.0</ele><time>2026-04-30T07:27:56.906Z</time></trkpt><trkpt lat="37.0273901" lon="22.1140786"><ele>10.0</ele><time>2026-04-30T07:27:57.905Z</time></trkpt><trkpt lat="37.0273911" lon="22.1139996"><ele>9.6</ele><time>2026-04-30T07:27:58.905Z</time></trkpt><trkpt lat="37.0273962" lon="22.1139165"><ele>9.2</ele><time>2026-04-30T07:27:59.906Z</time></trkpt><trkpt lat="37.0274039" lon="22.113789"><ele>8.8</ele><time>2026-04-30T07:28:01.906Z</time></trkpt><trkpt lat="37.0273947" lon="22.1137012"><ele>8.4</ele><time>2026-04-30T07:28:05.905Z</time></trkpt><trkpt lat="37.0274029" lon="22.1135841"><ele>8.0</ele><time>2026-04-30T07:28:08.906Z</time></trkpt><trkpt lat="37.0274144" lon="22.1134326"><ele>7.999999999999999</ele><time>2026-04-30T07:28:10.905Z</time></trkpt><trkpt lat="37.0274235" lon="22.113343"><ele>8.0</ele><time>2026-04-30T07:28:11.905Z</time></trkpt><trkpt lat="37.0274341" lon="22.1132416"><ele>8.0</ele><time>2026-04-30T07:28:12.906Z</time></trkpt><trkpt lat="37.0274475" lon="22.1131437"><ele>8.0</ele><time>2026-04-30T07:28:13.905Z</time></trkpt><trkpt lat="37.0274602" lon="22.1130361"><ele>7.999999999999999</ele><time>2026-04-30T07:28:14.905Z</time></trkpt><trkpt lat="37.0274686" lon="22.1129168"><ele>8.0</ele><time>2026-04-30T07:28:15.905Z</time></trkpt><trkpt lat="37.0274782" lon="22.1128048"><ele>7.999999999999999</ele><time>2026-04-30T07:28:16.906Z</time></trkpt><trkpt lat="37.0274908" lon="22.1126946"><ele>8.0</ele><time>2026-04-30T07:28:17.905Z</time></trkpt><trkpt lat="37.0274985" lon="22.1125893"><ele>8.0</ele><time>2026-04-30T07:28:18.906Z</time></trkpt><trkpt lat="37.0275057" lon="22.1124885"><ele>8.0</ele><time>2026-04-30T07:28:19.906Z</time></trkpt><trkpt lat="37.0275107" lon="22.1123927"><ele>7.999999999999999</ele><time>2026-04-30T07:28:20.905Z</time></trkpt><trkpt lat="37.0275146" lon="22.1123031"><ele>8.0</ele><time>2026-04-30T07:28:21.905Z</time></trkpt><trkpt lat="37.0275172" lon="22.1122211"><ele>7.833333333333333</ele><time>2026-04-30T07:28:22.905Z</time></trkpt><trkpt lat="37.0275181" lon="22.112142"><ele>7.666666666666666</ele><time>2026-04-30T07:28:23.905Z</time></trkpt><trkpt lat="37.0275174" lon="22.1119805"><ele>7.5</ele><time>2026-04-30T07:28:25.905Z</time></trkpt><trkpt lat="37.027519" lon="22.1118979"><ele>7.333333333333334</ele><time>2026-04-30T07:28:26.906Z</time></trkpt><trkpt lat="37.0275209" lon="22.1118172"><ele>7.166666666666667</ele><time>2026-04-30T07:28:27.905Z</time></trkpt><trkpt lat="37.0275246" lon="22.1117338"><ele>7.0</ele><time>2026-04-30T07:28:28.906Z</time></trkpt><trkpt lat="37.0275232" lon="22.1116405"><ele>6.666666666666667</ele><time>2026-04-30T07:28:29.906Z</time></trkpt><trkpt lat="37.0275274" lon="22.1115477"><ele>6.333333333333334</ele><time>2026-04-30T07:28:30.905Z</time></trkpt><trkpt lat="37.0275312" lon="22.1114479"><ele>6.0</ele><time>2026-04-30T07:28:31.906Z</time></trkpt><trkpt lat="37.0275352" lon="22.1113438"><ele>5.666666666666667</ele><time>2026-04-30T07:28:32.906Z</time></trkpt><trkpt lat="37.027539" lon="22.1112444"><ele>5.333333333333334</ele><time>2026-04-30T07:28:33.906Z</time></trkpt><trkpt lat="37.0275453" lon="22.111153"><ele>5.0</ele><time>2026-04-30T07:28:34.906Z</time></trkpt><trkpt lat="37.0275464" lon="22.1110501"><ele>5.0</ele><time>2026-04-30T07:28:35.905Z</time></trkpt><trkpt lat="37.0275476" lon="22.1109444"><ele>5.0</ele><time>2026-04-30T07:28:36.906Z</time></trkpt><trkpt lat="37.0275696" lon="22.1108274"><ele>5.0</ele><time>2026-04-30T07:28:37.905Z</time></trkpt><trkpt lat="37.0275712" lon="22.1107199"><ele>5.0</ele><time>2026-04-30T07:28:38.905Z</time></trkpt><trkpt lat="37.0275764" lon="22.1106153"><ele>5.0</ele><time>2026-04-30T07:28:39.905Z</time></trkpt><trkpt lat="37.0275816" lon="22.1105122"><ele>5.0</ele><time>2026-04-30T07:28:40.906Z</time></trkpt><trkpt lat="37.0275862" lon="22.1104127"><ele>5.0</ele><time>2026-04-30T07:28:41.905Z</time></trkpt><trkpt lat="37.0275874" lon="22.1103084"><ele>5.0</ele><time>2026-04-30T07:28:42.905Z</time></trkpt><trkpt lat="37.0275863" lon="22.1102121"><ele>5.0</ele><time>2026-04-30T07:28:43.905Z</time></trkpt><trkpt lat="37.0275776" lon="22.1101205"><ele>5.0</ele><time>2026-04-30T07:28:44.905Z</time></trkpt><trkpt lat="37.027567" lon="22.1100204"><ele>5.0</ele><time>2026-04-30T07:28:45.906Z</time></trkpt><trkpt lat="37.0275558" lon="22.1099255"><ele>5.0</ele><time>2026-04-30T07:28:46.906Z</time></trkpt><trkpt lat="37.0275561" lon="22.1098436"><ele>5.2</ele><time>2026-04-30T07:28:47.905Z</time></trkpt><trkpt lat="37.0275308" lon="22.1097113"><ele>5.4</ele><time>2026-04-30T07:28:49.906Z</time></trkpt><trkpt lat="37.0275102" lon="22.1095968"><ele>5.6</ele><time>2026-04-30T07:28:51.906Z</time></trkpt><trkpt lat="37.0274942" lon="22.1094824"><ele>5.8</ele><time>2026-04-30T07:28:53.905Z</time></trkpt><trkpt lat="37.0274832" lon="22.1093389"><ele>6.0</ele><time>2026-04-30T07:28:55.906Z</time></trkpt><trkpt lat="37.0274828" lon="22.1092593"><ele>6.0</ele><time>2026-04-30T07:28:56.906Z</time></trkpt><trkpt lat="37.0274935" lon="22.10918"><ele>6.0</ele><time>2026-04-30T07:28:57.905Z</time></trkpt><trkpt lat="37.0274865" lon="22.1089974"><ele>6.0</ele><time>2026-04-30T07:28:59.905Z</time></trkpt><trkpt lat="37.0274918" lon="22.1088938"><ele>6.0</ele><time>2026-04-30T07:29:00.906Z</time></trkpt><trkpt lat="37.0274916" lon="22.1087863"><ele>6.0</ele><time>2026-04-30T07:29:01.906Z</time></trkpt><trkpt lat="37.0274912" lon="22.1086921"><ele>5.833333333333333</ele><time>2026-04-30T07:29:02.905Z</time></trkpt><trkpt lat="37.0274922" lon="22.108606"><ele>5.666666666666667</ele><time>2026-04-30T07:29:03.905Z</time></trkpt><trkpt lat="37.0274849" lon="22.1084918"><ele>5.5</ele><time>2026-04-30T07:29:05.905Z</time></trkpt><trkpt lat="37.027481" lon="22.1084121"><ele>5.333333333333334</ele><time>2026-04-30T07:29:08.906Z</time></trkpt><trkpt lat="37.0274831" lon="22.1083216"><ele>5.166666666666667</ele><time>2026-04-30T07:29:23.906Z</time></trkpt><trkpt lat="37.0274844" lon="22.1081992"><ele>5.0</ele><time>2026-04-30T07:29:25.906Z</time></trkpt><trkpt lat="37.0274779" lon="22.1080832"><ele>5.166666666666667</ele><time>2026-04-30T07:29:27.905Z</time></trkpt><trkpt lat="37.0274785" lon="22.1079656"><ele>5.333333333333334</ele><time>2026-04-30T07:29:29.905Z</time></trkpt><trkpt lat="37.0274678" lon="22.1078386"><ele>5.5</ele><time>2026-04-30T07:29:31.89Z</time></trkpt><trkpt lat="37.027474" lon="22.1077441"><ele>5.666666666666667</ele><time>2026-04-30T07:29:34.882Z</time></trkpt><trkpt lat="37.0274769" lon="22.1076315"><ele>5.833333333333333</ele><time>2026-04-30T07:29:37.883Z</time></trkpt><trkpt lat="37.0274821" lon="22.1075327"><ele>6.0</ele><time>2026-04-30T07:29:39.883Z</time></trkpt><trkpt lat="37.0274839" lon="22.1074267"><ele>6.0</ele><time>2026-04-30T07:29:41.883Z</time></trkpt><trkpt lat="37.027479" lon="22.1073297"><ele>6.0</ele><time>2026-04-30T07:29:43.884Z</time></trkpt><trkpt lat="37.0274775" lon="22.107228"><ele>6.0</ele><time>2026-04-30T07:29:45.884Z</time></trkpt><trkpt lat="37.0274672" lon="22.1070335"><ele>6.0</ele><time>2026-04-30T07:29:47.884Z</time></trkpt><trkpt lat="37.027472" lon="22.1069109"><ele>6.0</ele><time>2026-04-30T07:29:48.883Z</time></trkpt><trkpt lat="37.0274733" lon="22.1068106"><ele>5.999999999999999</ele><time>2026-04-30T07:29:49.884Z</time></trkpt><trkpt lat="37.0274778" lon="22.1067279"><ele>6.0</ele><time>2026-04-30T07:29:50.883Z</time></trkpt><trkpt lat="37.0274818" lon="22.1066477"><ele>6.0</ele><time>2026-04-30T07:29:51.883Z</time></trkpt><trkpt lat="37.0274983" lon="22.106567"><ele>6.0</ele><time>2026-04-30T07:29:52.883Z</time></trkpt><trkpt lat="37.0274982" lon="22.10642"><ele>6.0</ele><time>2026-04-30T07:29:54.883Z</time></trkpt><trkpt lat="37.0274984" lon="22.1063392"><ele>5.999999999999999</ele><time>2026-04-30T07:29:55.884Z</time></trkpt><trkpt lat="37.0274995" lon="22.1062556"><ele>6.0</ele><time>2026-04-30T07:29:56.883Z</time></trkpt><trkpt lat="37.027506" lon="22.1061752"><ele>5.999999999999999</ele><time>2026-04-30T07:29:57.883Z</time></trkpt><trkpt lat="37.0275117" lon="22.1060899"><ele>6.0</ele><time>2026-04-30T07:29:58.884Z</time></trkpt><trkpt lat="37.0275225" lon="22.1060009"><ele>6.0</ele><time>2026-04-30T07:29:59.883Z</time></trkpt><trkpt lat="37.0275178" lon="22.1059152"><ele>6.0</ele><time>2026-04-30T07:30:00.883Z</time></trkpt><trkpt lat="37.0275184" lon="22.1058214"><ele>6.0</ele><time>2026-04-30T07:30:01.883Z</time></trkpt><trkpt lat="37.0275204" lon="22.1057274"><ele>5.999999999999999</ele><time>2026-04-30T07:30:02.883Z</time></trkpt><trkpt lat="37.027524" lon="22.1056325"><ele>6.0</ele><time>2026-04-30T07:30:03.883Z</time></trkpt><trkpt lat="37.0275257" lon="22.1055313"><ele>6.0</ele><time>2026-04-30T07:30:04.883Z</time></trkpt><trkpt lat="37.0275264" lon="22.1054357"><ele>6.0</ele><time>2026-04-30T07:30:05.883Z</time></trkpt><trkpt lat="37.0275301" lon="22.1053388"><ele>6.0</ele><time>2026-04-30T07:30:06.883Z</time></trkpt><trkpt lat="37.0275275" lon="22.1052467"><ele>6.0</ele><time>2026-04-30T07:30:07.883Z</time></trkpt><trkpt lat="37.0275295" lon="22.1051439"><ele>6.0</ele><time>2026-04-30T07:30:08.884Z</time></trkpt><trkpt lat="37.0275347" lon="22.1050495"><ele>6.0</ele><time>2026-04-30T07:30:09.883Z</time></trkpt><trkpt lat="37.0275374" lon="22.1049549"><ele>6.0</ele><time>2026-04-30T07:30:10.884Z</time></trkpt><trkpt lat="37.0275405" lon="22.1048406"><ele>6.0</ele><time>2026-04-30T07:30:11.883Z</time></trkpt><trkpt lat="37.0275458" lon="22.1047322"><ele>6.0</ele><time>2026-04-30T07:30:12.883Z</time></trkpt><trkpt lat="37.0275517" lon="22.1046297"><ele>6.0</ele><time>2026-04-30T07:30:13.884Z</time></trkpt><trkpt lat="37.0275536" lon="22.1045272"><ele>6.0</ele><time>2026-04-30T07:30:14.884Z</time></trkpt><trkpt lat="37.0275584" lon="22.104427"><ele>6.0</ele><time>2026-04-30T07:30:15.884Z</time></trkpt><trkpt lat="37.0275629" lon="22.1043158"><ele>6.0</ele><time>2026-04-30T07:30:16.883Z</time></trkpt><trkpt lat="37.0275701" lon="22.1042118"><ele>6.0</ele><time>2026-04-30T07:30:17.884Z</time></trkpt><trkpt lat="37.027572" lon="22.104107"><ele>6.0</ele><time>2026-04-30T07:30:18.884Z</time></trkpt><trkpt lat="37.0275776" lon="22.1039963"><ele>6.0</ele><time>2026-04-30T07:30:19.884Z</time></trkpt><trkpt lat="37.0275817" lon="22.1038843"><ele>6.0</ele><time>2026-04-30T07:30:20.883Z</time></trkpt><trkpt lat="37.0275855" lon="22.1037732"><ele>6.0</ele><time>2026-04-30T07:30:21.883Z</time></trkpt><trkpt lat="37.0275899" lon="22.1036578"><ele>6.0</ele><time>2026-04-30T07:30:22.884Z</time></trkpt><trkpt lat="37.0275932" lon="22.1035456"><ele>6.0</ele><time>2026-04-30T07:30:23.883Z</time></trkpt><trkpt lat="37.0275957" lon="22.1034258"><ele>6.0</ele><time>2026-04-30T07:30:24.884Z</time></trkpt><trkpt lat="37.0275982" lon="22.1033076"><ele>6.0</ele><time>2026-04-30T07:30:25.884Z</time></trkpt><trkpt lat="37.0276" lon="22.1031903"><ele>6.0</ele><time>2026-04-30T07:30:26.884Z</time></trkpt><trkpt lat="37.0276018" lon="22.1030731"><ele>5.833333333333333</ele><time>2026-04-30T07:30:27.883Z</time></trkpt><trkpt lat="37.0276054" lon="22.1029532"><ele>5.666666666666667</ele><time>2026-04-30T07:30:28.884Z</time></trkpt><trkpt lat="37.0276122" lon="22.1028376"><ele>5.5</ele><time>2026-04-30T07:30:29.884Z</time></trkpt><trkpt lat="37.0276267" lon="22.1027297"><ele>5.333333333333334</ele><time>2026-04-30T07:30:30.883Z</time></trkpt><trkpt lat="37.0276359" lon="22.1026371"><ele>5.166666666666667</ele><time>2026-04-30T07:30:31.883Z</time></trkpt><trkpt lat="37.027654" lon="22.1025516"><ele>5.0</ele><time>2026-04-30T07:30:32.883Z</time></trkpt><trkpt lat="37.027668" lon="22.1024668"><ele>4.666666666666667</ele><time>2026-04-30T07:30:33.884Z</time></trkpt><trkpt lat="37.0276949" lon="22.1023398"><ele>4.333333333333334</ele><time>2026-04-30T07:30:35.884Z</time></trkpt><trkpt lat="37.0277224" lon="22.1022552"><ele>4.0</ele><time>2026-04-30T07:30:37.883Z</time></trkpt><trkpt lat="37.0277851" lon="22.1022065"><ele>3.666666666666667</ele><time>2026-04-30T07:30:39.884Z</time></trkpt><trkpt lat="37.0278493" lon="22.1022167"><ele>3.3333333333333335</ele><time>2026-04-30T07:30:40.884Z</time></trkpt><trkpt lat="37.0279209" lon="22.1022394"><ele>3.0</ele><time>2026-04-30T07:30:41.884Z</time></trkpt><trkpt lat="37.0280058" lon="22.1022698"><ele>3.0</ele><time>2026-04-30T07:30:42.883Z</time></trkpt><trkpt lat="37.0281136" lon="22.1023074"><ele>3.0</ele><time>2026-04-30T07:30:43.884Z</time></trkpt><trkpt lat="37.0282217" lon="22.1023449"><ele>3.0</ele><time>2026-04-30T07:30:44.884Z</time></trkpt><trkpt lat="37.0283403" lon="22.1023888"><ele>3.0</ele><time>2026-04-30T07:30:45.884Z</time></trkpt><trkpt lat="37.0284571" lon="22.1024282"><ele>4.0</ele><time>2026-04-30T07:30:46.884Z</time></trkpt><trkpt lat="37.0285844" lon="22.1024753"><ele>5.0</ele><time>2026-04-30T07:30:47.884Z</time></trkpt><trkpt lat="37.0287276" lon="22.1025352"><ele>6.0</ele><time>2026-04-30T07:30:48.884Z</time></trkpt><trkpt lat="37.0288665" lon="22.1025921"><ele>7.0</ele><time>2026-04-30T07:30:49.884Z</time></trkpt><trkpt lat="37.0290001" lon="22.1026521"><ele>6.75</ele><time>2026-04-30T07:30:50.883Z</time></trkpt><trkpt lat="37.0291445" lon="22.1027222"><ele>6.5</ele><time>2026-04-30T07:30:51.884Z</time></trkpt><trkpt lat="37.0292788" lon="22.1027888"><ele>6.25</ele><time>2026-04-30T07:30:52.883Z</time></trkpt><trkpt lat="37.0294166" lon="22.1028526"><ele>6.0</ele><time>2026-04-30T07:30:53.884Z</time></trkpt><trkpt lat="37.0295543" lon="22.1029162"><ele>6.0</ele><time>2026-04-30T07:30:54.883Z</time></trkpt><trkpt lat="37.0296997" lon="22.1029802"><ele>6.0</ele><time>2026-04-30T07:30:55.884Z</time></trkpt><trkpt lat="37.0298488" lon="22.1030486"><ele>6.0</ele><time>2026-04-30T07:30:56.883Z</time></trkpt><trkpt lat="37.0299937" lon="22.1031115"><ele>6.333333333333334</ele><time>2026-04-30T07:30:57.883Z</time></trkpt><trkpt lat="37.030134" lon="22.1031682"><ele>6.666666666666667</ele><time>2026-04-30T07:30:58.884Z</time></trkpt><trkpt lat="37.03029" lon="22.1032221"><ele>7.0</ele><time>2026-04-30T07:30:59.883Z</time></trkpt><trkpt lat="37.0304396" lon="22.1032689"><ele>7.0</ele><time>2026-04-30T07:31:00.883Z</time></trkpt><trkpt lat="37.0305897" lon="22.1033158"><ele>7.0</ele><time>2026-04-30T07:31:01.884Z</time></trkpt><trkpt lat="37.0307423" lon="22.1033553"><ele>7.0</ele><time>2026-04-30T07:31:02.884Z</time></trkpt><trkpt lat="37.030904" lon="22.1033968"><ele>7.333333333333334</ele><time>2026-04-30T07:31:03.883Z</time></trkpt><trkpt lat="37.0310706" lon="22.1034372"><ele>7.666666666666666</ele><time>2026-04-30T07:31:04.884Z</time></trkpt><trkpt lat="37.031238" lon="22.1034753"><ele>8.0</ele><time>2026-04-30T07:31:05.884Z</time></trkpt><trkpt lat="37.0313983" lon="22.1035155"><ele>8.0</ele><time>2026-04-30T07:31:06.884Z</time></trkpt><trkpt lat="37.0315647" lon="22.1035562"><ele>8.0</ele><time>2026-04-30T07:31:07.883Z</time></trkpt><trkpt lat="37.0317132" lon="22.1035935"><ele>8.0</ele><time>2026-04-30T07:31:08.884Z</time></trkpt><trkpt lat="37.0318588" lon="22.103622"><ele>8.25</ele><time>2026-04-30T07:31:09.883Z</time></trkpt><trkpt lat="37.0319881" lon="22.1036575"><ele>8.5</ele><time>2026-04-30T07:31:10.884Z</time></trkpt><trkpt lat="37.0321126" lon="22.1036932"><ele>8.75</ele><time>2026-04-30T07:31:11.883Z</time></trkpt><trkpt lat="37.0322275" lon="22.1037204"><ele>9.0</ele><time>2026-04-30T07:31:12.884Z</time></trkpt><trkpt lat="37.0323302" lon="22.1037432"><ele>9.0</ele><time>2026-04-30T07:31:13.884Z</time></trkpt><trkpt lat="37.0324201" lon="22.1037642"><ele>9.0</ele><time>2026-04-30T07:31:14.884Z</time></trkpt><trkpt lat="37.0325051" lon="22.1037882"><ele>9.0</ele><time>2026-04-30T07:31:15.883Z</time></trkpt><trkpt lat="37.0325805" lon="22.1038135"><ele>9.0</ele><time>2026-04-30T07:31:16.883Z</time></trkpt><trkpt lat="37.032649" lon="22.1038347"><ele>9.0</ele><time>2026-04-30T07:31:17.884Z</time></trkpt><trkpt lat="37.0327101" lon="22.1038568"><ele>9.0</ele><time>2026-04-30T07:31:18.884Z</time></trkpt><trkpt lat="37.0328213" lon="22.1038969"><ele>9.6</ele><time>2026-04-30T07:31:20.883Z</time></trkpt><trkpt lat="37.0328981" lon="22.1039238"><ele>10.2</ele><time>2026-04-30T07:31:22.884Z</time></trkpt><trkpt lat="37.0329626" lon="22.1038959"><ele>10.799999999999999</ele><time>2026-04-30T07:31:30.884Z</time></trkpt><trkpt lat="37.0330423" lon="22.1039705"><ele>11.4</ele><time>2026-04-30T07:32:07.883Z</time></trkpt><trkpt lat="37.0331445" lon="22.1039912"><ele>12.0</ele><time>2026-04-30T07:32:09.883Z</time></trkpt><trkpt lat="37.0332479" lon="22.1039284"><ele>12.0</ele><time>2026-04-30T07:32:11.883Z</time></trkpt><trkpt lat="37.0332884" lon="22.1038627"><ele>12.0</ele><time>2026-04-30T07:32:12.884Z</time></trkpt><trkpt lat="37.0333193" lon="22.1037775"><ele>12.0</ele><time>2026-04-30T07:32:13.883Z</time></trkpt><trkpt lat="37.0333462" lon="22.103674"><ele>12.0</ele><time>2026-04-30T07:32:14.883Z</time></trkpt><trkpt lat="37.0333739" lon="22.1035557"><ele>12.0</ele><time>2026-04-30T07:32:15.883Z</time></trkpt><trkpt lat="37.0334155" lon="22.1034067"><ele>11.5</ele><time>2026-04-30T07:32:16.883Z</time></trkpt><trkpt lat="37.033465" lon="22.1032542"><ele>11.0</ele><time>2026-04-30T07:32:17.883Z</time></trkpt><trkpt lat="37.0335127" lon="22.1031063"><ele>10.5</ele><time>2026-04-30T07:32:18.883Z</time></trkpt><trkpt lat="37.0335605" lon="22.1029397"><ele>10.0</ele><time>2026-04-30T07:32:19.883Z</time></trkpt><trkpt lat="37.0336048" lon="22.1027734"><ele>10.0</ele><time>2026-04-30T07:32:20.883Z</time></trkpt><trkpt lat="37.0336444" lon="22.1026013"><ele>10.0</ele><time>2026-04-30T07:32:21.883Z</time></trkpt><trkpt lat="37.0336839" lon="22.1024231"><ele>10.0</ele><time>2026-04-30T07:32:22.884Z</time></trkpt><trkpt lat="37.0337207" lon="22.1022415"><ele>10.0</ele><time>2026-04-30T07:32:23.883Z</time></trkpt><trkpt lat="37.0337615" lon="22.1020436"><ele>9.666666666666668</ele><time>2026-04-30T07:32:24.884Z</time></trkpt><trkpt lat="37.0337981" lon="22.1018467"><ele>9.333333333333334</ele><time>2026-04-30T07:32:25.884Z</time></trkpt><trkpt lat="37.0338337" lon="22.101653"><ele>9.0</ele><time>2026-04-30T07:32:26.883Z</time></trkpt><trkpt lat="37.0338684" lon="22.1014577"><ele>9.0</ele><time>2026-04-30T07:32:27.884Z</time></trkpt><trkpt lat="37.0339019" lon="22.1012601"><ele>9.0</ele><time>2026-04-30T07:32:28.883Z</time></trkpt><trkpt lat="37.0339329" lon="22.1010601"><ele>9.0</ele><time>2026-04-30T07:32:29.884Z</time></trkpt><trkpt lat="37.0339618" lon="22.1008658"><ele>8.333333333333334</ele><time>2026-04-30T07:32:30.884Z</time></trkpt><trkpt lat="37.0339893" lon="22.1006625"><ele>7.666666666666667</ele><time>2026-04-30T07:32:31.884Z</time></trkpt><trkpt lat="37.0340184" lon="22.100452"><ele>7.0</ele><time>2026-04-30T07:32:32.883Z</time></trkpt><trkpt lat="37.0340468" lon="22.1002473"><ele>7.0</ele><time>2026-04-30T07:32:33.884Z</time></trkpt><trkpt lat="37.0340715" lon="22.1000462"><ele>7.0</ele><time>2026-04-30T07:32:34.884Z</time></trkpt><trkpt lat="37.0340991" lon="22.0998294"><ele>7.0</ele><time>2026-04-30T07:32:35.883Z</time></trkpt><trkpt lat="37.0341252" lon="22.0996157"><ele>7.0</ele><time>2026-04-30T07:32:36.883Z</time></trkpt><trkpt lat="37.0341524" lon="22.0994002"><ele>7.0</ele><time>2026-04-30T07:32:37.883Z</time></trkpt><trkpt lat="37.0341788" lon="22.0991906"><ele>7.0</ele><time>2026-04-30T07:32:38.883Z</time></trkpt><trkpt lat="37.0342038" lon="22.0989747"><ele>7.0</ele><time>2026-04-30T07:32:39.883Z</time></trkpt><trkpt lat="37.0342305" lon="22.0987544"><ele>7.0</ele><time>2026-04-30T07:32:40.883Z</time></trkpt><trkpt lat="37.0342555" lon="22.0985409"><ele>7.0</ele><time>2026-04-30T07:32:41.884Z</time></trkpt><trkpt lat="37.0342777" lon="22.0983312"><ele>7.333333333333334</ele><time>2026-04-30T07:32:42.884Z</time></trkpt><trkpt lat="37.0343026" lon="22.0981104"><ele>7.666666666666666</ele><time>2026-04-30T07:32:43.883Z</time></trkpt><trkpt lat="37.0343257" lon="22.0978905"><ele>8.0</ele><time>2026-04-30T07:32:44.884Z</time></trkpt><trkpt lat="37.0343518" lon="22.0976764"><ele>8.0</ele><time>2026-04-30T07:32:45.883Z</time></trkpt><trkpt lat="37.034376" lon="22.0974721"><ele>8.0</ele><time>2026-04-30T07:32:46.884Z</time></trkpt><trkpt lat="37.0344012" lon="22.097266"><ele>8.0</ele><time>2026-04-30T07:32:47.884Z</time></trkpt><trkpt lat="37.0344258" lon="22.0970519"><ele>9.0</ele><time>2026-04-30T07:32:48.883Z</time></trkpt><trkpt lat="37.0344485" lon="22.0968438"><ele>10.0</ele><time>2026-04-30T07:32:49.884Z</time></trkpt><trkpt lat="37.0344701" lon="22.096641"><ele>11.0</ele><time>2026-04-30T07:32:50.884Z</time></trkpt><trkpt lat="37.0344956" lon="22.0964214"><ele>11.0</ele><time>2026-04-30T07:32:51.884Z</time></trkpt><trkpt lat="37.0345203" lon="22.0962093"><ele>11.0</ele><time>2026-04-30T07:32:52.884Z</time></trkpt><trkpt lat="37.0345459" lon="22.0959932"><ele>11.0</ele><time>2026-04-30T07:32:53.884Z</time></trkpt><trkpt lat="37.0345731" lon="22.0957849"><ele>10.0</ele><time>2026-04-30T07:32:54.883Z</time></trkpt><trkpt lat="37.0346068" lon="22.0955715"><ele>9.0</ele><time>2026-04-30T07:32:55.883Z</time></trkpt><trkpt lat="37.0346404" lon="22.0953517"><ele>8.0</ele><time>2026-04-30T07:32:56.883Z</time></trkpt><trkpt lat="37.0346699" lon="22.0951374"><ele>8.0</ele><time>2026-04-30T07:32:57.884Z</time></trkpt><trkpt lat="37.0346982" lon="22.0949289"><ele>8.0</ele><time>2026-04-30T07:32:58.884Z</time></trkpt><trkpt lat="37.0347278" lon="22.0947104"><ele>8.0</ele><time>2026-04-30T07:32:59.883Z</time></trkpt><trkpt lat="37.0347544" lon="22.0945014"><ele>8.0</ele><time>2026-04-30T07:33:00.883Z</time></trkpt><trkpt lat="37.0347786" lon="22.0942908"><ele>8.0</ele><time>2026-04-30T07:33:01.883Z</time></trkpt><trkpt lat="37.0348032" lon="22.0940925"><ele>8.0</ele><time>2026-04-30T07:33:02.883Z</time></trkpt><trkpt lat="37.0348284" lon="22.0938854"><ele>7.0</ele><time>2026-04-30T07:33:03.884Z</time></trkpt><trkpt lat="37.0348558" lon="22.0936719"><ele>6.0</ele><time>2026-04-30T07:33:04.884Z</time></trkpt><trkpt lat="37.0348806" lon="22.0934636"><ele>5.0</ele><time>2026-04-30T07:33:05.884Z</time></trkpt><trkpt lat="37.0349014" lon="22.0932614"><ele>5.333333333333334</ele><time>2026-04-30T07:33:06.883Z</time></trkpt><trkpt lat="37.0349237" lon="22.0930474"><ele>5.666666666666667</ele><time>2026-04-30T07:33:07.883Z</time></trkpt><trkpt lat="37.0349425" lon="22.0928424"><ele>6.0</ele><time>2026-04-30T07:33:08.883Z</time></trkpt><trkpt lat="37.0349627" lon="22.0926441"><ele>6.0</ele><time>2026-04-30T07:33:09.884Z</time></trkpt><trkpt lat="37.0349804" lon="22.0924537"><ele>6.0</ele><time>2026-04-30T07:33:10.884Z</time></trkpt><trkpt lat="37.0350007" lon="22.0922529"><ele>6.0</ele><time>2026-04-30T07:33:11.883Z</time></trkpt><trkpt lat="37.0350237" lon="22.0920391"><ele>5.666666666666667</ele><time>2026-04-30T07:33:12.884Z</time></trkpt><trkpt lat="37.0350478" lon="22.0918319"><ele>5.333333333333334</ele><time>2026-04-30T07:33:13.884Z</time></trkpt><trkpt lat="37.0350769" lon="22.0916345"><ele>5.0</ele><time>2026-04-30T07:33:14.884Z</time></trkpt><trkpt lat="37.0351102" lon="22.0914241"><ele>4.666666666666667</ele><time>2026-04-30T07:33:15.883Z</time></trkpt><trkpt lat="37.0351407" lon="22.0912268"><ele>4.333333333333333</ele><time>2026-04-30T07:33:16.883Z</time></trkpt><trkpt lat="37.0351693" lon="22.091031"><ele>4.0</ele><time>2026-04-30T07:33:17.883Z</time></trkpt><trkpt lat="37.0351947" lon="22.0908402"><ele>4.0</ele><time>2026-04-30T07:33:18.883Z</time></trkpt><trkpt lat="37.0352195" lon="22.0906414"><ele>4.0</ele><time>2026-04-30T07:33:19.884Z</time></trkpt><trkpt lat="37.0352486" lon="22.0904399"><ele>4.0</ele><time>2026-04-30T07:33:20.884Z</time></trkpt><trkpt lat="37.0352736" lon="22.0902303"><ele>4.0</ele><time>2026-04-30T07:33:21.884Z</time></trkpt><trkpt lat="37.0352997" lon="22.09003"><ele>4.0</ele><time>2026-04-30T07:33:22.883Z</time></trkpt><trkpt lat="37.0353274" lon="22.0898122"><ele>4.0</ele><time>2026-04-30T07:33:23.884Z</time></trkpt><trkpt lat="37.0353542" lon="22.0896014"><ele>3.6666666666666665</ele><time>2026-04-30T07:33:24.883Z</time></trkpt><trkpt lat="37.035378" lon="22.0893892"><ele>3.333333333333333</ele><time>2026-04-30T07:33:25.884Z</time></trkpt><trkpt lat="37.035401" lon="22.089184"><ele>3.0</ele><time>2026-04-30T07:33:26.883Z</time></trkpt><trkpt lat="37.0354254" lon="22.0889705"><ele>2.6666666666666665</ele><time>2026-04-30T07:33:27.883Z</time></trkpt><trkpt lat="37.0354512" lon="22.0887514"><ele>2.333333333333333</ele><time>2026-04-30T07:33:28.883Z</time></trkpt><trkpt lat="37.0354747" lon="22.0885372"><ele>2.0</ele><time>2026-04-30T07:33:29.884Z</time></trkpt><trkpt lat="37.0354989" lon="22.0883303"><ele>2.333333333333333</ele><time>2026-04-30T07:33:30.884Z</time></trkpt><trkpt lat="37.0355246" lon="22.0881076"><ele>2.6666666666666665</ele><time>2026-04-30T07:33:31.884Z</time></trkpt><trkpt lat="37.0355485" lon="22.0878899"><ele>3.0</ele><time>2026-04-30T07:33:32.883Z</time></trkpt><trkpt lat="37.0355727" lon="22.0876748"><ele>3.0</ele><time>2026-04-30T07:33:33.884Z</time></trkpt><trkpt lat="37.0355992" lon="22.0874677"><ele>3.0</ele><time>2026-04-30T07:33:34.883Z</time></trkpt><trkpt lat="37.0356256" lon="22.0872486"><ele>3.0</ele><time>2026-04-30T07:33:35.883Z</time></trkpt><trkpt lat="37.0356531" lon="22.087019"><ele>2.6666666666666665</ele><time>2026-04-30T07:33:36.883Z</time></trkpt><trkpt lat="37.0356804" lon="22.0867947"><ele>2.333333333333333</ele><time>2026-04-30T07:33:37.884Z</time></trkpt><trkpt lat="37.0357111" lon="22.0865695"><ele>2.0</ele><time>2026-04-30T07:33:38.883Z</time></trkpt><trkpt lat="37.0357455" lon="22.0863199"><ele>2.0</ele><time>2026-04-30T07:33:39.883Z</time></trkpt><trkpt lat="37.0357774" lon="22.0860748"><ele>2.0</ele><time>2026-04-30T07:33:40.883Z</time></trkpt><trkpt lat="37.0358026" lon="22.085839"><ele>2.0</ele><time>2026-04-30T07:33:41.883Z</time></trkpt><trkpt lat="37.0358254" lon="22.0856017"><ele>2.333333333333333</ele><time>2026-04-30T07:33:42.883Z</time></trkpt><trkpt lat="37.0358458" lon="22.0853712"><ele>2.6666666666666665</ele><time>2026-04-30T07:33:43.883Z</time></trkpt><trkpt lat="37.035866" lon="22.0851396"><ele>3.0</ele><time>2026-04-30T07:33:44.884Z</time></trkpt><trkpt lat="37.0358873" lon="22.0849196"><ele>3.0</ele><time>2026-04-30T07:33:45.884Z</time></trkpt><trkpt lat="37.0359077" lon="22.0847099"><ele>3.0</ele><time>2026-04-30T07:33:46.884Z</time></trkpt><trkpt lat="37.0359345" lon="22.0844875"><ele>3.0</ele><time>2026-04-30T07:33:47.884Z</time></trkpt><trkpt lat="37.0359606" lon="22.0842688"><ele>2.6666666666666665</ele><time>2026-04-30T07:33:48.883Z</time></trkpt><trkpt lat="37.0359857" lon="22.0840472"><ele>2.333333333333333</ele><time>2026-04-30T07:33:49.883Z</time></trkpt><trkpt lat="37.0360099" lon="22.0838285"><ele>2.0</ele><time>2026-04-30T07:33:50.884Z</time></trkpt><trkpt lat="37.0360371" lon="22.0836041"><ele>2.0</ele><time>2026-04-30T07:33:51.883Z</time></trkpt><trkpt lat="37.0360646" lon="22.0833757"><ele>2.0</ele><time>2026-04-30T07:33:52.884Z</time></trkpt><trkpt lat="37.0360902" lon="22.0831603"><ele>2.0</ele><time>2026-04-30T07:33:53.884Z</time></trkpt><trkpt lat="37.0361145" lon="22.082959"><ele>2.0</ele><time>2026-04-30T07:33:54.884Z</time></trkpt><trkpt lat="37.0361425" lon="22.0827477"><ele>2.0</ele><time>2026-04-30T07:33:55.883Z</time></trkpt><trkpt lat="37.0361702" lon="22.082546"><ele>2.0</ele><time>2026-04-30T07:33:56.883Z</time></trkpt><trkpt lat="37.0362003" lon="22.0823476"><ele>1.3333333333333333</ele><time>2026-04-30T07:33:57.883Z</time></trkpt><trkpt lat="37.0362288" lon="22.0821578"><ele>0.6666666666666666</ele><time>2026-04-30T07:33:58.883Z</time></trkpt><trkpt lat="37.0362591" lon="22.0819651"><ele>0.0</ele><time>2026-04-30T07:33:59.884Z</time></trkpt><trkpt lat="37.0362945" lon="22.0817692"><ele>0.3333333333333333</ele><time>2026-04-30T07:34:00.883Z</time></trkpt><trkpt lat="37.0363373" lon="22.0815751"><ele>0.6666666666666666</ele><time>2026-04-30T07:34:01.883Z</time></trkpt><trkpt lat="37.0363824" lon="22.0813823"><ele>1.0</ele><time>2026-04-30T07:34:02.884Z</time></trkpt><trkpt lat="37.0364395" lon="22.0811775"><ele>1.0</ele><time>2026-04-30T07:34:03.883Z</time></trkpt><trkpt lat="37.0364957" lon="22.0809756"><ele>1.0</ele><time>2026-04-30T07:34:04.884Z</time></trkpt><trkpt lat="37.0365475" lon="22.0807821"><ele>1.0</ele><time>2026-04-30T07:34:05.884Z</time></trkpt><trkpt lat="37.0365949" lon="22.080604"><ele>1.75</ele><time>2026-04-30T07:34:06.883Z</time></trkpt><trkpt lat="37.0366448" lon="22.0804409"><ele>2.5</ele><time>2026-04-30T07:34:07.884Z</time></trkpt><trkpt lat="37.0366936" lon="22.0802824"><ele>3.25</ele><time>2026-04-30T07:34:08.883Z</time></trkpt><trkpt lat="37.0367416" lon="22.0801397"><ele>4.0</ele><time>2026-04-30T07:34:09.884Z</time></trkpt><trkpt lat="37.0367872" lon="22.080016"><ele>4.0</ele><time>2026-04-30T07:34:10.884Z</time></trkpt><trkpt lat="37.0368386" lon="22.0798922"><ele>4.0</ele><time>2026-04-30T07:34:11.884Z</time></trkpt><trkpt lat="37.0368879" lon="22.0797759"><ele>4.0</ele><time>2026-04-30T07:34:12.883Z</time></trkpt><trkpt lat="37.0369337" lon="22.0796729"><ele>4.0</ele><time>2026-04-30T07:34:13.883Z</time></trkpt><trkpt lat="37.0369774" lon="22.0795881"><ele>4.0</ele><time>2026-04-30T07:34:14.884Z</time></trkpt><trkpt lat="37.0370158" lon="22.0795148"><ele>3.9999999999999996</ele><time>2026-04-30T07:34:15.883Z</time></trkpt><trkpt lat="37.0370728" lon="22.0794027"><ele>4.0</ele><time>2026-04-30T07:34:17.883Z</time></trkpt><trkpt lat="37.0371089" lon="22.0793284"><ele>4.0</ele><time>2026-04-30T07:34:20.883Z</time></trkpt><trkpt lat="37.0371777" lon="22.0792154"><ele>4.0</ele><time>2026-04-30T07:35:04.883Z</time></trkpt><trkpt lat="37.0372156" lon="22.0791373"><ele>3.9999999999999996</ele><time>2026-04-30T07:35:05.883Z</time></trkpt><trkpt lat="37.0372601" lon="22.0790542"><ele>4.0</ele><time>2026-04-30T07:35:06.883Z</time></trkpt><trkpt lat="37.0373133" lon="22.0789583"><ele>3.8000000000000003</ele><time>2026-04-30T07:35:07.883Z</time></trkpt><trkpt lat="37.0373653" lon="22.0788611"><ele>3.6000000000000005</ele><time>2026-04-30T07:35:08.883Z</time></trkpt><trkpt lat="37.037424" lon="22.078758"><ele>3.4</ele><time>2026-04-30T07:35:09.883Z</time></trkpt><trkpt lat="37.0374847" lon="22.0786557"><ele>3.2</ele><time>2026-04-30T07:35:10.884Z</time></trkpt><trkpt lat="37.0375462" lon="22.0785498"><ele>3.0</ele><time>2026-04-30T07:35:11.884Z</time></trkpt><trkpt lat="37.037612" lon="22.078438"><ele>3.25</ele><time>2026-04-30T07:35:12.884Z</time></trkpt><trkpt lat="37.0376836" lon="22.0783267"><ele>3.5</ele><time>2026-04-30T07:35:13.883Z</time></trkpt><trkpt lat="37.0377628" lon="22.0782081"><ele>3.75</ele><time>2026-04-30T07:35:14.883Z</time></trkpt><trkpt lat="37.0378564" lon="22.0780656"><ele>4.0</ele><time>2026-04-30T07:35:15.883Z</time></trkpt><trkpt lat="37.0379585" lon="22.0779183"><ele>4.0</ele><time>2026-04-30T07:35:16.884Z</time></trkpt><trkpt lat="37.0380697" lon="22.0777684"><ele>4.0</ele><time>2026-04-30T07:35:17.884Z</time></trkpt><trkpt lat="37.0381891" lon="22.0776115"><ele>4.0</ele><time>2026-04-30T07:35:18.883Z</time></trkpt><trkpt lat="37.0383113" lon="22.0774434"><ele>4.666666666666666</ele><time>2026-04-30T07:35:19.884Z</time></trkpt><trkpt lat="37.038454" lon="22.0772787"><ele>5.333333333333333</ele><time>2026-04-30T07:35:20.884Z</time></trkpt><trkpt lat="37.0385909" lon="22.077128"><ele>6.0</ele><time>2026-04-30T07:35:21.884Z</time></trkpt><trkpt lat="37.0387326" lon="22.0769785"><ele>6.0</ele><time>2026-04-30T07:35:22.884Z</time></trkpt><trkpt lat="37.0388824" lon="22.0768374"><ele>6.0</ele><time>2026-04-30T07:35:23.884Z</time></trkpt><trkpt lat="37.039029" lon="22.0767132"><ele>6.0</ele><time>2026-04-30T07:35:24.883Z</time></trkpt><trkpt lat="37.0391747" lon="22.0765995"><ele>5.666666666666667</ele><time>2026-04-30T07:35:25.884Z</time></trkpt><trkpt lat="37.0393337" lon="22.076483"><ele>5.333333333333334</ele><time>2026-04-30T07:35:26.884Z</time></trkpt><trkpt lat="37.039501" lon="22.0763574"><ele>5.0</ele><time>2026-04-30T07:35:27.884Z</time></trkpt><trkpt lat="37.0396834" lon="22.0762336"><ele>5.0</ele><time>2026-04-30T07:35:28.883Z</time></trkpt><trkpt lat="37.0398537" lon="22.0761139"><ele>5.0</ele><time>2026-04-30T07:35:29.884Z</time></trkpt><trkpt lat="37.0400371" lon="22.0759979"><ele>5.0</ele><time>2026-04-30T07:35:30.883Z</time></trkpt><trkpt lat="37.0402324" lon="22.0758906"><ele>4.333333333333334</ele><time>2026-04-30T07:35:31.884Z</time></trkpt><trkpt lat="37.0404197" lon="22.0758002"><ele>3.666666666666667</ele><time>2026-04-30T07:35:32.883Z</time></trkpt><trkpt lat="37.0406155" lon="22.0757119"><ele>3.0</ele><time>2026-04-30T07:35:33.884Z</time></trkpt><trkpt lat="37.0408133" lon="22.0756298"><ele>3.0</ele><time>2026-04-30T07:35:34.884Z</time></trkpt><trkpt lat="37.0410141" lon="22.0755497"><ele>3.0</ele><time>2026-04-30T07:35:35.884Z</time></trkpt><trkpt lat="37.0412202" lon="22.0754702"><ele>3.0</ele><time>2026-04-30T07:35:36.884Z</time></trkpt><trkpt lat="37.0414164" lon="22.0754002"><ele>3.0</ele><time>2026-04-30T07:35:37.883Z</time></trkpt><trkpt lat="37.0416201" lon="22.0753293"><ele>3.0</ele><time>2026-04-30T07:35:38.883Z</time></trkpt><trkpt lat="37.0418274" lon="22.0752601"><ele>3.0</ele><time>2026-04-30T07:35:39.883Z</time></trkpt><trkpt lat="37.0420289" lon="22.0752045"><ele>4.0</ele><time>2026-04-30T07:35:40.883Z</time></trkpt><trkpt lat="37.0422263" lon="22.0751564"><ele>5.0</ele><time>2026-04-30T07:35:41.883Z</time></trkpt><trkpt lat="37.0424276" lon="22.0751151"><ele>6.0</ele><time>2026-04-30T07:35:42.884Z</time></trkpt><trkpt lat="37.0426274" lon="22.0750817"><ele>6.666666666666666</ele><time>2026-04-30T07:35:43.883Z</time></trkpt><trkpt lat="37.0428271" lon="22.0750545"><ele>7.333333333333333</ele><time>2026-04-30T07:35:44.884Z</time></trkpt><trkpt lat="37.043026" lon="22.0750322"><ele>8.0</ele><time>2026-04-30T07:35:45.884Z</time></trkpt><trkpt lat="37.043225" lon="22.0750134"><ele>8.666666666666666</ele><time>2026-04-30T07:35:46.883Z</time></trkpt><trkpt lat="37.0434293" lon="22.0749962"><ele>9.333333333333334</ele><time>2026-04-30T07:35:47.883Z</time></trkpt><trkpt lat="37.0436178" lon="22.0749819"><ele>10.0</ele><time>2026-04-30T07:35:48.883Z</time></trkpt><trkpt lat="37.0438106" lon="22.0749641"><ele>10.0</ele><time>2026-04-30T07:35:49.883Z</time></trkpt><trkpt lat="37.0439993" lon="22.0749468"><ele>10.0</ele><time>2026-04-30T07:35:50.884Z</time></trkpt><trkpt lat="37.0441863" lon="22.0749357"><ele>10.0</ele><time>2026-04-30T07:35:51.884Z</time></trkpt><trkpt lat="37.0443775" lon="22.0749209"><ele>9.0</ele><time>2026-04-30T07:35:52.883Z</time></trkpt><trkpt lat="37.0445572" lon="22.0748968"><ele>8.0</ele><time>2026-04-30T07:35:53.883Z</time></trkpt><trkpt lat="37.0447437" lon="22.0748717"><ele>7.0</ele><time>2026-04-30T07:35:54.884Z</time></trkpt><trkpt lat="37.0449425" lon="22.0748383"><ele>7.333333333333334</ele><time>2026-04-30T07:35:55.884Z</time></trkpt><trkpt lat="37.0451442" lon="22.0747962"><ele>7.666666666666666</ele><time>2026-04-30T07:35:56.884Z</time></trkpt><trkpt lat="37.0453375" lon="22.0747235"><ele>8.0</ele><time>2026-04-30T07:35:57.883Z</time></trkpt><trkpt lat="37.0455446" lon="22.074642"><ele>8.0</ele><time>2026-04-30T07:35:58.884Z</time></trkpt><trkpt lat="37.0457501" lon="22.074545"><ele>8.0</ele><time>2026-04-30T07:35:59.884Z</time></trkpt><trkpt lat="37.0459565" lon="22.074428"><ele>8.0</ele><time>2026-04-30T07:36:00.884Z</time></trkpt><trkpt lat="37.0461404" lon="22.0743043"><ele>8.0</ele><time>2026-04-30T07:36:01.884Z</time></trkpt><trkpt lat="37.0463183" lon="22.0741672"><ele>8.0</ele><time>2026-04-30T07:36:02.883Z</time></trkpt><trkpt lat="37.0464955" lon="22.0740269"><ele>8.0</ele><time>2026-04-30T07:36:03.884Z</time></trkpt><trkpt lat="37.046663" lon="22.0738864"><ele>8.333333333333332</ele><time>2026-04-30T07:36:04.883Z</time></trkpt><trkpt lat="37.046823" lon="22.0737468"><ele>8.666666666666666</ele><time>2026-04-30T07:36:05.883Z</time></trkpt><trkpt lat="37.0469854" lon="22.0736003"><ele>9.0</ele><time>2026-04-30T07:36:06.884Z</time></trkpt><trkpt lat="37.0471408" lon="22.0734625"><ele>9.0</ele><time>2026-04-30T07:36:07.883Z</time></trkpt><trkpt lat="37.0472998" lon="22.0733219"><ele>9.0</ele><time>2026-04-30T07:36:08.884Z</time></trkpt><trkpt lat="37.0474469" lon="22.0731928"><ele>9.0</ele><time>2026-04-30T07:36:09.883Z</time></trkpt><trkpt lat="37.0476028" lon="22.0730533"><ele>10.0</ele><time>2026-04-30T07:36:10.884Z</time></trkpt><trkpt lat="37.0477645" lon="22.0729081"><ele>11.0</ele><time>2026-04-30T07:36:11.884Z</time></trkpt><trkpt lat="37.0479149" lon="22.0727748"><ele>12.0</ele><time>2026-04-30T07:36:12.883Z</time></trkpt><trkpt lat="37.0480469" lon="22.0726507"><ele>12.0</ele><time>2026-04-30T07:36:13.883Z</time></trkpt><trkpt lat="37.0481722" lon="22.0725326"><ele>12.0</ele><time>2026-04-30T07:36:14.884Z</time></trkpt><trkpt lat="37.0482904" lon="22.0724202"><ele>12.0</ele><time>2026-04-30T07:36:15.884Z</time></trkpt><trkpt lat="37.0484072" lon="22.0723124"><ele>11.75</ele><time>2026-04-30T07:36:16.883Z</time></trkpt><trkpt lat="37.0485107" lon="22.0722212"><ele>11.5</ele><time>2026-04-30T07:36:17.883Z</time></trkpt><trkpt lat="37.0486172" lon="22.0721261"><ele>11.25</ele><time>2026-04-30T07:36:18.884Z</time></trkpt><trkpt lat="37.048722" lon="22.0720307"><ele>11.0</ele><time>2026-04-30T07:36:19.884Z</time></trkpt><trkpt lat="37.0488223" lon="22.0719401"><ele>11.0</ele><time>2026-04-30T07:36:20.884Z</time></trkpt><trkpt lat="37.0489227" lon="22.0718497"><ele>11.0</ele><time>2026-04-30T07:36:21.884Z</time></trkpt><trkpt lat="37.0490226" lon="22.0717579"><ele>11.0</ele><time>2026-04-30T07:36:22.883Z</time></trkpt><trkpt lat="37.0491238" lon="22.0716675"><ele>11.0</ele><time>2026-04-30T07:36:23.884Z</time></trkpt><trkpt lat="37.0492291" lon="22.0715736"><ele>10.25</ele><time>2026-04-30T07:36:24.884Z</time></trkpt><trkpt lat="37.049326" lon="22.0714742"><ele>9.5</ele><time>2026-04-30T07:36:25.884Z</time></trkpt><trkpt lat="37.0494293" lon="22.0713789"><ele>8.75</ele><time>2026-04-30T07:36:26.883Z</time></trkpt><trkpt lat="37.0495335" lon="22.0712776"><ele>8.0</ele><time>2026-04-30T07:36:27.883Z</time></trkpt><trkpt lat="37.0496328" lon="22.0711861"><ele>8.0</ele><time>2026-04-30T07:36:28.883Z</time></trkpt><trkpt lat="37.0497331" lon="22.0710931"><ele>8.0</ele><time>2026-04-30T07:36:29.883Z</time></trkpt><trkpt lat="37.0498323" lon="22.0709995"><ele>8.0</ele><time>2026-04-30T07:36:30.883Z</time></trkpt><trkpt lat="37.0499343" lon="22.0709086"><ele>8.0</ele><time>2026-04-30T07:36:31.883Z</time></trkpt><trkpt lat="37.0500363" lon="22.070813"><ele>7.75</ele><time>2026-04-30T07:36:32.884Z</time></trkpt><trkpt lat="37.0501381" lon="22.0707101"><ele>7.5</ele><time>2026-04-30T07:36:33.884Z</time></trkpt><trkpt lat="37.0502401" lon="22.0706188"><ele>7.25</ele><time>2026-04-30T07:36:34.884Z</time></trkpt><trkpt lat="37.0503467" lon="22.0705222"><ele>7.0</ele><time>2026-04-30T07:36:35.883Z</time></trkpt><trkpt lat="37.0504493" lon="22.0704261"><ele>7.0</ele><time>2026-04-30T07:36:36.883Z</time></trkpt><trkpt lat="37.0505605" lon="22.0703276"><ele>7.0</ele><time>2026-04-30T07:36:37.884Z</time></trkpt><trkpt lat="37.0506771" lon="22.0702257"><ele>7.0</ele><time>2026-04-30T07:36:38.883Z</time></trkpt><trkpt lat="37.0507994" lon="22.0701225"><ele>7.0</ele><time>2026-04-30T07:36:39.883Z</time></trkpt><trkpt lat="37.05093" lon="22.0700104"><ele>7.666666666666667</ele><time>2026-04-30T07:36:40.883Z</time></trkpt><trkpt lat="37.0510717" lon="22.0698965"><ele>8.333333333333334</ele><time>2026-04-30T07:36:41.883Z</time></trkpt><trkpt lat="37.0512236" lon="22.0697832"><ele>9.0</ele><time>2026-04-30T07:36:42.883Z</time></trkpt><trkpt lat="37.0513873" lon="22.0696715"><ele>9.0</ele><time>2026-04-30T07:36:43.883Z</time></trkpt><trkpt lat="37.0515459" lon="22.0695731"><ele>9.0</ele><time>2026-04-30T07:36:44.883Z</time></trkpt><trkpt lat="37.0517096" lon="22.0694754"><ele>9.0</ele><time>2026-04-30T07:36:45.883Z</time></trkpt><trkpt lat="37.0518685" lon="22.0693805"><ele>10.0</ele><time>2026-04-30T07:36:46.883Z</time></trkpt><trkpt lat="37.0520232" lon="22.0692888"><ele>11.0</ele><time>2026-04-30T07:36:47.884Z</time></trkpt><trkpt lat="37.052179" lon="22.069207"><ele>12.0</ele><time>2026-04-30T07:36:48.884Z</time></trkpt><trkpt lat="37.0523373" lon="22.0691335"><ele>11.333333333333334</ele><time>2026-04-30T07:36:49.883Z</time></trkpt><trkpt lat="37.0525001" lon="22.0690697"><ele>10.666666666666668</ele><time>2026-04-30T07:36:50.884Z</time></trkpt><trkpt lat="37.0526753" lon="22.0690074"><ele>10.0</ele><time>2026-04-30T07:36:51.883Z</time></trkpt><trkpt lat="37.0528494" lon="22.0689464"><ele>10.0</ele><time>2026-04-30T07:36:52.884Z</time></trkpt><trkpt lat="37.0530199" lon="22.0688919"><ele>10.0</ele><time>2026-04-30T07:36:53.883Z</time></trkpt><trkpt lat="37.0531998" lon="22.0688437"><ele>10.0</ele><time>2026-04-30T07:36:54.884Z</time></trkpt><trkpt lat="37.0533809" lon="22.068799"><ele>10.333333333333334</ele><time>2026-04-30T07:36:55.884Z</time></trkpt><trkpt lat="37.0535654" lon="22.0687574"><ele>10.666666666666666</ele><time>2026-04-30T07:36:56.884Z</time></trkpt><trkpt lat="37.0537499" lon="22.0687145"><ele>11.0</ele><time>2026-04-30T07:36:57.883Z</time></trkpt><trkpt lat="37.0539284" lon="22.0686666"><ele>11.0</ele><time>2026-04-30T07:36:58.883Z</time></trkpt><trkpt lat="37.0541125" lon="22.0686033"><ele>11.0</ele><time>2026-04-30T07:36:59.884Z</time></trkpt><trkpt lat="37.0542873" lon="22.0685284"><ele>11.0</ele><time>2026-04-30T07:37:00.883Z</time></trkpt><trkpt lat="37.0544672" lon="22.0684356"><ele>11.333333333333332</ele><time>2026-04-30T07:37:01.884Z</time></trkpt><trkpt lat="37.0546377" lon="22.0683337"><ele>11.666666666666666</ele><time>2026-04-30T07:37:02.883Z</time></trkpt><trkpt lat="37.0547975" lon="22.0682325"><ele>12.0</ele><time>2026-04-30T07:37:03.884Z</time></trkpt><trkpt lat="37.0549475" lon="22.0681337"><ele>11.333333333333334</ele><time>2026-04-30T07:37:04.883Z</time></trkpt><trkpt lat="37.0550901" lon="22.0680437"><ele>10.666666666666668</ele><time>2026-04-30T07:37:05.883Z</time></trkpt><trkpt lat="37.0552233" lon="22.0679551"><ele>10.0</ele><time>2026-04-30T07:37:06.883Z</time></trkpt><trkpt lat="37.0553617" lon="22.0678607"><ele>10.0</ele><time>2026-04-30T07:37:07.884Z</time></trkpt><trkpt lat="37.0554879" lon="22.0677774"><ele>10.0</ele><time>2026-04-30T07:37:08.884Z</time></trkpt><trkpt lat="37.0556174" lon="22.0676889"><ele>10.0</ele><time>2026-04-30T07:37:09.884Z</time></trkpt><trkpt lat="37.0557501" lon="22.0676016"><ele>10.0</ele><time>2026-04-30T07:37:10.884Z</time></trkpt><trkpt lat="37.0558827" lon="22.0675139"><ele>9.5</ele><time>2026-04-30T07:37:11.883Z</time></trkpt><trkpt lat="37.0560155" lon="22.0674241"><ele>9.0</ele><time>2026-04-30T07:37:12.883Z</time></trkpt><trkpt lat="37.0561451" lon="22.0673364"><ele>8.5</ele><time>2026-04-30T07:37:13.884Z</time></trkpt><trkpt lat="37.0562681" lon="22.0672544"><ele>8.0</ele><time>2026-04-30T07:37:14.884Z</time></trkpt><trkpt lat="37.0563922" lon="22.0671738"><ele>8.0</ele><time>2026-04-30T07:37:15.884Z</time></trkpt><trkpt lat="37.0565068" lon="22.067097"><ele>8.0</ele><time>2026-04-30T07:37:16.884Z</time></trkpt><trkpt lat="37.0566239" lon="22.0670212"><ele>8.0</ele><time>2026-04-30T07:37:17.883Z</time></trkpt><trkpt lat="37.0567432" lon="22.0669479"><ele>8.0</ele><time>2026-04-30T07:37:18.883Z</time></trkpt><trkpt lat="37.0568645" lon="22.066868"><ele>7.75</ele><time>2026-04-30T07:37:19.884Z</time></trkpt><trkpt lat="37.0569907" lon="22.0667848"><ele>7.5</ele><time>2026-04-30T07:37:20.884Z</time></trkpt><trkpt lat="37.0571207" lon="22.066695"><ele>7.25</ele><time>2026-04-30T07:37:21.884Z</time></trkpt><trkpt lat="37.0572508" lon="22.0666025"><ele>7.0</ele><time>2026-04-30T07:37:22.884Z</time></trkpt><trkpt lat="37.0573846" lon="22.0665173"><ele>7.25</ele><time>2026-04-30T07:37:23.883Z</time></trkpt><trkpt lat="37.0575079" lon="22.066438"><ele>7.5</ele><time>2026-04-30T07:37:24.883Z</time></trkpt><trkpt lat="37.0576329" lon="22.066358"><ele>7.75</ele><time>2026-04-30T07:37:25.883Z</time></trkpt><trkpt lat="37.0577486" lon="22.0662824"><ele>8.0</ele><time>2026-04-30T07:37:26.883Z</time></trkpt><trkpt lat="37.0578521" lon="22.0662162"><ele>8.0</ele><time>2026-04-30T07:37:27.884Z</time></trkpt><trkpt lat="37.0579471" lon="22.0661587"><ele>8.0</ele><time>2026-04-30T07:37:28.884Z</time></trkpt><trkpt lat="37.0580388" lon="22.0661065"><ele>8.0</ele><time>2026-04-30T07:37:29.883Z</time></trkpt><trkpt lat="37.0581293" lon="22.0660604"><ele>8.0</ele><time>2026-04-30T07:37:30.884Z</time></trkpt><trkpt lat="37.0582254" lon="22.0660116"><ele>8.0</ele><time>2026-04-30T07:37:31.883Z</time></trkpt><trkpt lat="37.0583182" lon="22.0659676"><ele>7.800000000000001</ele><time>2026-04-30T07:37:32.884Z</time></trkpt><trkpt lat="37.0584187" lon="22.0659143"><ele>7.6000000000000005</ele><time>2026-04-30T07:37:33.883Z</time></trkpt><trkpt lat="37.0585229" lon="22.0658609"><ele>7.3999999999999995</ele><time>2026-04-30T07:37:34.884Z</time></trkpt><trkpt lat="37.0586225" lon="22.0658068"><ele>7.199999999999999</ele><time>2026-04-30T07:37:35.884Z</time></trkpt><trkpt lat="37.0587225" lon="22.0657555"><ele>7.0</ele><time>2026-04-30T07:37:36.884Z</time></trkpt><trkpt lat="37.0588198" lon="22.0657098"><ele>7.0</ele><time>2026-04-30T07:37:37.884Z</time></trkpt><trkpt lat="37.0589113" lon="22.0656626"><ele>6.999999999999999</ele><time>2026-04-30T07:37:38.884Z</time></trkpt><trkpt lat="37.0590009" lon="22.0656179"><ele>6.999999999999999</ele><time>2026-04-30T07:37:39.883Z</time></trkpt><trkpt lat="37.0590876" lon="22.0655785"><ele>7.0</ele><time>2026-04-30T07:37:40.884Z</time></trkpt><trkpt lat="37.0591808" lon="22.0655348"><ele>7.0</ele><time>2026-04-30T07:37:41.884Z</time></trkpt><trkpt lat="37.0592813" lon="22.0654927"><ele>7.5</ele><time>2026-04-30T07:37:42.883Z</time></trkpt><trkpt lat="37.0593954" lon="22.0654407"><ele>8.0</ele><time>2026-04-30T07:37:43.883Z</time></trkpt><trkpt lat="37.0595199" lon="22.0653893"><ele>8.5</ele><time>2026-04-30T07:37:44.883Z</time></trkpt><trkpt lat="37.059655" lon="22.0653337"><ele>9.0</ele><time>2026-04-30T07:37:45.883Z</time></trkpt><trkpt lat="37.0597997" lon="22.0652649"><ele>9.333333333333334</ele><time>2026-04-30T07:37:46.883Z</time></trkpt><trkpt lat="37.0599539" lon="22.0651947"><ele>9.666666666666668</ele><time>2026-04-30T07:37:47.883Z</time></trkpt><trkpt lat="37.0601058" lon="22.0651273"><ele>10.0</ele><time>2026-04-30T07:37:48.884Z</time></trkpt><trkpt lat="37.0602693" lon="22.0650591"><ele>10.0</ele><time>2026-04-30T07:37:49.883Z</time></trkpt><trkpt lat="37.0604375" lon="22.0649916"><ele>10.0</ele><time>2026-04-30T07:37:50.883Z</time></trkpt><trkpt lat="37.0606051" lon="22.0649254"><ele>10.0</ele><time>2026-04-30T07:37:51.883Z</time></trkpt><trkpt lat="37.0607689" lon="22.0648598"><ele>9.333333333333334</ele><time>2026-04-30T07:37:52.883Z</time></trkpt><trkpt lat="37.0609296" lon="22.0647899"><ele>8.666666666666666</ele><time>2026-04-30T07:37:53.884Z</time></trkpt><trkpt lat="37.0610833" lon="22.0647132"><ele>8.0</ele><time>2026-04-30T07:37:54.883Z</time></trkpt><trkpt lat="37.0612373" lon="22.0646382"><ele>8.0</ele><time>2026-04-30T07:37:55.884Z</time></trkpt><trkpt lat="37.0613778" lon="22.0645655"><ele>8.0</ele><time>2026-04-30T07:37:56.884Z</time></trkpt><trkpt lat="37.0615193" lon="22.0644875"><ele>8.0</ele><time>2026-04-30T07:37:57.884Z</time></trkpt><trkpt lat="37.061658" lon="22.0644031"><ele>8.0</ele><time>2026-04-30T07:37:58.884Z</time></trkpt><trkpt lat="37.0617962" lon="22.0643105"><ele>8.0</ele><time>2026-04-30T07:37:59.883Z</time></trkpt><trkpt lat="37.0619334" lon="22.0642133"><ele>8.0</ele><time>2026-04-30T07:38:00.883Z</time></trkpt><trkpt lat="37.0620719" lon="22.064108"><ele>8.0</ele><time>2026-04-30T07:38:01.883Z</time></trkpt><trkpt lat="37.0622101" lon="22.0640012"><ele>8.0</ele><time>2026-04-30T07:38:02.884Z</time></trkpt><trkpt lat="37.0623552" lon="22.0638918"><ele>8.0</ele><time>2026-04-30T07:38:03.883Z</time></trkpt><trkpt lat="37.0624932" lon="22.0637852"><ele>8.333333333333332</ele><time>2026-04-30T07:38:04.884Z</time></trkpt><trkpt lat="37.0626372" lon="22.0636798"><ele>8.666666666666666</ele><time>2026-04-30T07:38:05.883Z</time></trkpt><trkpt lat="37.0627808" lon="22.0635697"><ele>9.0</ele><time>2026-04-30T07:38:06.883Z</time></trkpt><trkpt lat="37.0629223" lon="22.0634608"><ele>9.0</ele><time>2026-04-30T07:38:07.883Z</time></trkpt><trkpt lat="37.0630626" lon="22.0633566"><ele>9.0</ele><time>2026-04-30T07:38:08.884Z</time></trkpt><trkpt lat="37.0632011" lon="22.0632531"><ele>9.0</ele><time>2026-04-30T07:38:09.883Z</time></trkpt><trkpt lat="37.0633385" lon="22.0631496"><ele>8.666666666666666</ele><time>2026-04-30T07:38:10.884Z</time></trkpt><trkpt lat="37.0634817" lon="22.0630408"><ele>8.333333333333332</ele><time>2026-04-30T07:38:11.883Z</time></trkpt><trkpt lat="37.063617" lon="22.0629424"><ele>8.0</ele><time>2026-04-30T07:38:12.884Z</time></trkpt><trkpt lat="37.0637529" lon="22.0628392"><ele>8.0</ele><time>2026-04-30T07:38:13.884Z</time></trkpt><trkpt lat="37.0638847" lon="22.0627416"><ele>8.0</ele><time>2026-04-30T07:38:14.883Z</time></trkpt><trkpt lat="37.0640126" lon="22.0626414"><ele>8.0</ele><time>2026-04-30T07:38:15.884Z</time></trkpt><trkpt lat="37.0641426" lon="22.0625428"><ele>8.0</ele><time>2026-04-30T07:38:16.884Z</time></trkpt><trkpt lat="37.0642723" lon="22.0624428"><ele>8.0</ele><time>2026-04-30T07:38:17.884Z</time></trkpt><trkpt lat="37.0644042" lon="22.0623358"><ele>8.0</ele><time>2026-04-30T07:38:18.884Z</time></trkpt><trkpt lat="37.0645399" lon="22.0622317"><ele>8.0</ele><time>2026-04-30T07:38:19.884Z</time></trkpt><trkpt lat="37.064666" lon="22.0621407"><ele>8.0</ele><time>2026-04-30T07:38:20.883Z</time></trkpt><trkpt lat="37.0647927" lon="22.0620426"><ele>8.0</ele><time>2026-04-30T07:38:21.884Z</time></trkpt><trkpt lat="37.0649192" lon="22.0619469"><ele>8.0</ele><time>2026-04-30T07:38:22.884Z</time></trkpt><trkpt lat="37.0650441" lon="22.0618496"><ele>8.25</ele><time>2026-04-30T07:38:23.883Z</time></trkpt><trkpt lat="37.0651683" lon="22.0617515"><ele>8.5</ele><time>2026-04-30T07:38:24.884Z</time></trkpt><trkpt lat="37.0652933" lon="22.0616531"><ele>8.75</ele><time>2026-04-30T07:38:25.883Z</time></trkpt><trkpt lat="37.0654176" lon="22.0615506"><ele>9.0</ele><time>2026-04-30T07:38:26.883Z</time></trkpt><trkpt lat="37.0655433" lon="22.0614431"><ele>9.0</ele><time>2026-04-30T07:38:27.883Z</time></trkpt><trkpt lat="37.0656601" lon="22.0613394"><ele>9.0</ele><time>2026-04-30T07:38:28.883Z</time></trkpt><trkpt lat="37.0657798" lon="22.0612298"><ele>9.0</ele><time>2026-04-30T07:38:29.883Z</time></trkpt><trkpt lat="37.0658986" lon="22.0611186"><ele>9.0</ele><time>2026-04-30T07:38:30.884Z</time></trkpt><trkpt lat="37.0660097" lon="22.0610116"><ele>9.4</ele><time>2026-04-30T07:38:31.884Z</time></trkpt><trkpt lat="37.0661103" lon="22.0609117"><ele>9.8</ele><time>2026-04-30T07:38:32.884Z</time></trkpt><trkpt lat="37.0661935" lon="22.0608235"><ele>10.200000000000001</ele><time>2026-04-30T07:38:33.884Z</time></trkpt><trkpt lat="37.0662648" lon="22.0607549"><ele>10.600000000000001</ele><time>2026-04-30T07:38:34.883Z</time></trkpt><trkpt lat="37.0663311" lon="22.0606887"><ele>11.0</ele><time>2026-04-30T07:38:35.884Z</time></trkpt><trkpt lat="37.0663853" lon="22.0606299"><ele>11.0</ele><time>2026-04-30T07:38:36.883Z</time></trkpt><trkpt lat="37.066439" lon="22.0605664"><ele>11.0</ele><time>2026-04-30T07:38:37.883Z</time></trkpt><trkpt lat="37.0664995" lon="22.0604985"><ele>11.0</ele><time>2026-04-30T07:38:38.884Z</time></trkpt><trkpt lat="37.0665724" lon="22.0604302"><ele>11.0</ele><time>2026-04-30T07:38:39.883Z</time></trkpt><trkpt lat="37.0666514" lon="22.0603569"><ele>11.0</ele><time>2026-04-30T07:38:40.884Z</time></trkpt><trkpt lat="37.06673" lon="22.0602877"><ele>11.0</ele><time>2026-04-30T07:38:41.884Z</time></trkpt><trkpt lat="37.0668115" lon="22.0602055"><ele>11.0</ele><time>2026-04-30T07:38:42.884Z</time></trkpt><trkpt lat="37.0669027" lon="22.06012"><ele>11.0</ele><time>2026-04-30T07:38:43.884Z</time></trkpt><trkpt lat="37.0669952" lon="22.0600316"><ele>11.0</ele><time>2026-04-30T07:38:44.884Z</time></trkpt><trkpt lat="37.0670983" lon="22.0599319"><ele>11.0</ele><time>2026-04-30T07:38:45.884Z</time></trkpt><trkpt lat="37.0672014" lon="22.0598332"><ele>10.8</ele><time>2026-04-30T07:38:46.884Z</time></trkpt><trkpt lat="37.0672983" lon="22.0597382"><ele>10.600000000000001</ele><time>2026-04-30T07:38:47.884Z</time></trkpt><trkpt lat="37.0673841" lon="22.0596541"><ele>10.4</ele><time>2026-04-30T07:38:48.883Z</time></trkpt><trkpt lat="37.0674582" lon="22.0595819"><ele>10.2</ele><time>2026-04-30T07:38:49.884Z</time></trkpt><trkpt lat="37.0675231" lon="22.0595225"><ele>10.0</ele><time>2026-04-30T07:38:50.884Z</time></trkpt><trkpt lat="37.0675867" lon="22.059457"><ele>10.0</ele><time>2026-04-30T07:38:51.883Z</time></trkpt><trkpt lat="37.0676518" lon="22.0593973"><ele>10.0</ele><time>2026-04-30T07:38:52.884Z</time></trkpt><trkpt lat="37.0677281" lon="22.0593255"><ele>10.0</ele><time>2026-04-30T07:38:53.883Z</time></trkpt><trkpt lat="37.0678185" lon="22.0592356"><ele>10.0</ele><time>2026-04-30T07:38:54.883Z</time></trkpt><trkpt lat="37.067931" lon="22.0591205"><ele>10.0</ele><time>2026-04-30T07:38:55.884Z</time></trkpt><trkpt lat="37.0680534" lon="22.058998"><ele>10.0</ele><time>2026-04-30T07:38:56.884Z</time></trkpt><trkpt lat="37.068183" lon="22.0588733"><ele>10.0</ele><time>2026-04-30T07:38:57.884Z</time></trkpt><trkpt lat="37.0683111" lon="22.0587477"><ele>10.0</ele><time>2026-04-30T07:38:58.883Z</time></trkpt><trkpt lat="37.0684396" lon="22.0586199"><ele>10.25</ele><time>2026-04-30T07:38:59.884Z</time></trkpt><trkpt lat="37.0685548" lon="22.0585115"><ele>10.5</ele><time>2026-04-30T07:39:00.884Z</time></trkpt><trkpt lat="37.0686703" lon="22.0583897"><ele>10.75</ele><time>2026-04-30T07:39:01.883Z</time></trkpt><trkpt lat="37.0687902" lon="22.0582732"><ele>11.0</ele><time>2026-04-30T07:39:02.884Z</time></trkpt><trkpt lat="37.0689183" lon="22.0581492"><ele>11.333333333333332</ele><time>2026-04-30T07:39:03.883Z</time></trkpt><trkpt lat="37.06906" lon="22.0580205"><ele>11.666666666666666</ele><time>2026-04-30T07:39:04.884Z</time></trkpt><trkpt lat="37.0692208" lon="22.0578896"><ele>12.0</ele><time>2026-04-30T07:39:05.883Z</time></trkpt><trkpt lat="37.0693957" lon="22.0577614"><ele>12.0</ele><time>2026-04-30T07:39:06.884Z</time></trkpt><trkpt lat="37.0695776" lon="22.0576371"><ele>12.0</ele><time>2026-04-30T07:39:07.883Z</time></trkpt><trkpt lat="37.069741" lon="22.0575297"><ele>12.0</ele><time>2026-04-30T07:39:08.883Z</time></trkpt><trkpt lat="37.0699053" lon="22.0574218"><ele>12.333333333333332</ele><time>2026-04-30T07:39:09.883Z</time></trkpt><trkpt lat="37.0700641" lon="22.0573224"><ele>12.666666666666666</ele><time>2026-04-30T07:39:10.883Z</time></trkpt><trkpt lat="37.0702226" lon="22.0572266"><ele>13.0</ele><time>2026-04-30T07:39:11.883Z</time></trkpt><trkpt lat="37.0703823" lon="22.0571291"><ele>13.0</ele><time>2026-04-30T07:39:12.884Z</time></trkpt><trkpt lat="37.0705443" lon="22.0570227"><ele>13.0</ele><time>2026-04-30T07:39:13.883Z</time></trkpt><trkpt lat="37.0707086" lon="22.0569158"><ele>13.0</ele><time>2026-04-30T07:39:14.884Z</time></trkpt><trkpt lat="37.0708791" lon="22.0568005"><ele>12.666666666666666</ele><time>2026-04-30T07:39:15.884Z</time></trkpt><trkpt lat="37.0710408" lon="22.0566885"><ele>12.333333333333332</ele><time>2026-04-30T07:39:16.883Z</time></trkpt><trkpt lat="37.0712044" lon="22.0565695"><ele>12.0</ele><time>2026-04-30T07:39:17.883Z</time></trkpt><trkpt lat="37.0713667" lon="22.0564477"><ele>12.0</ele><time>2026-04-30T07:39:18.883Z</time></trkpt><trkpt lat="37.0715285" lon="22.0563228"><ele>12.0</ele><time>2026-04-30T07:39:19.884Z</time></trkpt><trkpt lat="37.0716895" lon="22.056192"><ele>12.0</ele><time>2026-04-30T07:39:20.884Z</time></trkpt><trkpt lat="37.0718511" lon="22.0560505"><ele>12.0</ele><time>2026-04-30T07:39:21.883Z</time></trkpt><trkpt lat="37.0720126" lon="22.0558971"><ele>12.0</ele><time>2026-04-30T07:39:22.883Z</time></trkpt><trkpt lat="37.0721796" lon="22.0557482"><ele>12.0</ele><time>2026-04-30T07:39:23.884Z</time></trkpt><trkpt lat="37.0723369" lon="22.0556047"><ele>12.666666666666668</ele><time>2026-04-30T07:39:24.883Z</time></trkpt><trkpt lat="37.0724985" lon="22.0554592"><ele>13.333333333333334</ele><time>2026-04-30T07:39:25.884Z</time></trkpt><trkpt lat="37.0726592" lon="22.0553153"><ele>14.0</ele><time>2026-04-30T07:39:26.884Z</time></trkpt><trkpt lat="37.0728187" lon="22.0551741"><ele>14.0</ele><time>2026-04-30T07:39:27.883Z</time></trkpt><trkpt lat="37.0729774" lon="22.0550306"><ele>14.0</ele><time>2026-04-30T07:39:28.883Z</time></trkpt><trkpt lat="37.0731373" lon="22.0548868"><ele>14.0</ele><time>2026-04-30T07:39:29.884Z</time></trkpt><trkpt lat="37.0732973" lon="22.0547462"><ele>13.666666666666668</ele><time>2026-04-30T07:39:30.883Z</time></trkpt><trkpt lat="37.0734544" lon="22.0546105"><ele>13.333333333333332</ele><time>2026-04-30T07:39:31.883Z</time></trkpt><trkpt lat="37.0736107" lon="22.0544833"><ele>13.0</ele><time>2026-04-30T07:39:32.884Z</time></trkpt><trkpt lat="37.0737703" lon="22.0543621"><ele>13.0</ele><time>2026-04-30T07:39:33.883Z</time></trkpt><trkpt lat="37.0739283" lon="22.0542317"><ele>13.0</ele><time>2026-04-30T07:39:34.884Z</time></trkpt><trkpt lat="37.0740847" lon="22.0541221"><ele>13.0</ele><time>2026-04-30T07:39:35.884Z</time></trkpt><trkpt lat="37.0742448" lon="22.0540167"><ele>13.666666666666666</ele><time>2026-04-30T07:39:36.884Z</time></trkpt><trkpt lat="37.0743975" lon="22.0539146"><ele>14.333333333333332</ele><time>2026-04-30T07:39:37.883Z</time></trkpt><trkpt lat="37.074542" lon="22.0538165"><ele>15.0</ele><time>2026-04-30T07:39:38.883Z</time></trkpt><trkpt lat="37.0746844" lon="22.0537195"><ele>15.0</ele><time>2026-04-30T07:39:39.884Z</time></trkpt><trkpt lat="37.074813" lon="22.0536323"><ele>15.0</ele><time>2026-04-30T07:39:40.884Z</time></trkpt><trkpt lat="37.0749392" lon="22.0535402"><ele>15.0</ele><time>2026-04-30T07:39:41.883Z</time></trkpt><trkpt lat="37.0750556" lon="22.0534515"><ele>15.0</ele><time>2026-04-30T07:39:42.883Z</time></trkpt><trkpt lat="37.0751538" lon="22.0533759"><ele>15.0</ele><time>2026-04-30T07:39:43.884Z</time></trkpt><trkpt lat="37.0752352" lon="22.0533106"><ele>15.0</ele><time>2026-04-30T07:39:44.883Z</time></trkpt><trkpt lat="37.0753018" lon="22.0532585"><ele>15.0</ele><time>2026-04-30T07:39:45.884Z</time></trkpt><trkpt lat="37.0753535" lon="22.0532095"><ele>15.0</ele><time>2026-04-30T07:39:46.883Z</time></trkpt><trkpt lat="37.0754286" lon="22.0531591"><ele>15.0</ele><time>2026-04-30T07:39:48.883Z</time></trkpt><trkpt lat="37.0755025" lon="22.0531054"><ele>15.0</ele><time>2026-04-30T07:39:51.884Z</time></trkpt><trkpt lat="37.0755757" lon="22.0530435"><ele>15.0</ele><time>2026-04-30T07:40:00.884Z</time></trkpt><trkpt lat="37.075676" lon="22.0529528"><ele>15.0</ele><time>2026-04-30T07:40:02.883Z</time></trkpt><trkpt lat="37.0757567" lon="22.0528814"><ele>15.0</ele><time>2026-04-30T07:40:03.884Z</time></trkpt><trkpt lat="37.0758403" lon="22.0528081"><ele>15.0</ele><time>2026-04-30T07:40:04.884Z</time></trkpt><trkpt lat="37.0759351" lon="22.0527215"><ele>15.0</ele><time>2026-04-30T07:40:05.883Z</time></trkpt><trkpt lat="37.0760391" lon="22.0526328"><ele>15.0</ele><time>2026-04-30T07:40:06.883Z</time></trkpt><trkpt lat="37.0761485" lon="22.0525358"><ele>15.0</ele><time>2026-04-30T07:40:07.884Z</time></trkpt><trkpt lat="37.0762662" lon="22.0524311"><ele>15.0</ele><time>2026-04-30T07:40:08.884Z</time></trkpt><trkpt lat="37.076388" lon="22.0523248"><ele>15.0</ele><time>2026-04-30T07:40:09.883Z</time></trkpt><trkpt lat="37.0765125" lon="22.0522126"><ele>15.666666666666668</ele><time>2026-04-30T07:40:10.884Z</time></trkpt><trkpt lat="37.0766467" lon="22.0520996"><ele>16.333333333333336</ele><time>2026-04-30T07:40:11.883Z</time></trkpt><trkpt lat="37.0767811" lon="22.0519869"><ele>17.0</ele><time>2026-04-30T07:40:12.884Z</time></trkpt><trkpt lat="37.0769209" lon="22.0518742"><ele>17.0</ele><time>2026-04-30T07:40:13.884Z</time></trkpt><trkpt lat="37.0770597" lon="22.0517588"><ele>17.0</ele><time>2026-04-30T07:40:14.883Z</time></trkpt><trkpt lat="37.0772045" lon="22.0516342"><ele>17.0</ele><time>2026-04-30T07:40:15.883Z</time></trkpt><trkpt lat="37.077352" lon="22.0515052"><ele>17.666666666666668</ele><time>2026-04-30T07:40:16.883Z</time></trkpt><trkpt lat="37.0774943" lon="22.0513731"><ele>18.333333333333332</ele><time>2026-04-30T07:40:17.884Z</time></trkpt><trkpt lat="37.0776342" lon="22.0512424"><ele>19.0</ele><time>2026-04-30T07:40:18.883Z</time></trkpt><trkpt lat="37.0777845" lon="22.0510979"><ele>19.0</ele><time>2026-04-30T07:40:19.884Z</time></trkpt><trkpt lat="37.0779313" lon="22.0509526"><ele>19.0</ele><time>2026-04-30T07:40:20.884Z</time></trkpt><trkpt lat="37.0780769" lon="22.0508064"><ele>19.0</ele><time>2026-04-30T07:40:21.884Z</time></trkpt><trkpt lat="37.0782137" lon="22.0506739"><ele>19.0</ele><time>2026-04-30T07:40:22.883Z</time></trkpt><trkpt lat="37.0783565" lon="22.0505336"><ele>19.0</ele><time>2026-04-30T07:40:23.883Z</time></trkpt><trkpt lat="37.0785014" lon="22.0503858"><ele>19.0</ele><time>2026-04-30T07:40:24.884Z</time></trkpt><trkpt lat="37.0786408" lon="22.0502442"><ele>19.0</ele><time>2026-04-30T07:40:25.883Z</time></trkpt><trkpt lat="37.0787766" lon="22.0501043"><ele>19.0</ele><time>2026-04-30T07:40:26.883Z</time></trkpt><trkpt lat="37.0789251" lon="22.0499606"><ele>19.0</ele><time>2026-04-30T07:40:27.883Z</time></trkpt><trkpt lat="37.0790732" lon="22.049823"><ele>18.666666666666664</ele><time>2026-04-30T07:40:28.884Z</time></trkpt><trkpt lat="37.0792239" lon="22.0496908"><ele>18.333333333333332</ele><time>2026-04-30T07:40:29.883Z</time></trkpt><trkpt lat="37.0793727" lon="22.0495654"><ele>18.0</ele><time>2026-04-30T07:40:30.884Z</time></trkpt><trkpt lat="37.079529" lon="22.0494503"><ele>18.0</ele><time>2026-04-30T07:40:31.883Z</time></trkpt><trkpt lat="37.0796931" lon="22.0493421"><ele>18.0</ele><time>2026-04-30T07:40:32.884Z</time></trkpt><trkpt lat="37.0798507" lon="22.0492382"><ele>18.0</ele><time>2026-04-30T07:40:33.883Z</time></trkpt><trkpt lat="37.0800029" lon="22.0491405"><ele>18.333333333333332</ele><time>2026-04-30T07:40:34.884Z</time></trkpt><trkpt lat="37.0801629" lon="22.0490391"><ele>18.666666666666664</ele><time>2026-04-30T07:40:35.884Z</time></trkpt><trkpt lat="37.0803153" lon="22.04894"><ele>19.0</ele><time>2026-04-30T07:40:36.883Z</time></trkpt><trkpt lat="37.0804676" lon="22.048843"><ele>19.0</ele><time>2026-04-30T07:40:37.883Z</time></trkpt><trkpt lat="37.0806109" lon="22.0487392"><ele>19.0</ele><time>2026-04-30T07:40:38.884Z</time></trkpt><trkpt lat="37.0807537" lon="22.0486365"><ele>19.0</ele><time>2026-04-30T07:40:39.884Z</time></trkpt><trkpt lat="37.0808908" lon="22.0485312"><ele>18.75</ele><time>2026-04-30T07:40:40.884Z</time></trkpt><trkpt lat="37.0810177" lon="22.0484323"><ele>18.5</ele><time>2026-04-30T07:40:41.883Z</time></trkpt><trkpt lat="37.0811318" lon="22.0483396"><ele>18.25</ele><time>2026-04-30T07:40:42.883Z</time></trkpt><trkpt lat="37.0812458" lon="22.0482455"><ele>18.0</ele><time>2026-04-30T07:40:43.884Z</time></trkpt><trkpt lat="37.0813487" lon="22.0481626"><ele>18.0</ele><time>2026-04-30T07:40:44.884Z</time></trkpt><trkpt lat="37.0814415" lon="22.0480842"><ele>18.0</ele><time>2026-04-30T07:40:45.884Z</time></trkpt><trkpt lat="37.0815215" lon="22.0480177"><ele>18.0</ele><time>2026-04-30T07:40:46.883Z</time></trkpt><trkpt lat="37.0816004" lon="22.0479575"><ele>18.0</ele><time>2026-04-30T07:40:47.884Z</time></trkpt><trkpt lat="37.0816758" lon="22.0479039"><ele>18.0</ele><time>2026-04-30T07:40:48.884Z</time></trkpt><trkpt lat="37.0817504" lon="22.0478467"><ele>18.4</ele><time>2026-04-30T07:40:49.883Z</time></trkpt><trkpt lat="37.0818236" lon="22.0477855"><ele>18.8</ele><time>2026-04-30T07:40:50.883Z</time></trkpt><trkpt lat="37.0818977" lon="22.0477127"><ele>19.2</ele><time>2026-04-30T07:40:51.884Z</time></trkpt><trkpt lat="37.0819708" lon="22.0476392"><ele>19.6</ele><time>2026-04-30T07:40:52.884Z</time></trkpt><trkpt lat="37.0820444" lon="22.047566"><ele>20.0</ele><time>2026-04-30T07:40:53.884Z</time></trkpt><trkpt lat="37.0821136" lon="22.0474973"><ele>20.0</ele><time>2026-04-30T07:40:54.884Z</time></trkpt><trkpt lat="37.0821851" lon="22.0474337"><ele>20.0</ele><time>2026-04-30T07:40:55.884Z</time></trkpt><trkpt lat="37.0822569" lon="22.0473601"><ele>20.0</ele><time>2026-04-30T07:40:56.884Z</time></trkpt><trkpt lat="37.0823315" lon="22.0472817"><ele>20.0</ele><time>2026-04-30T07:40:57.884Z</time></trkpt><trkpt lat="37.0824147" lon="22.0471973"><ele>20.0</ele><time>2026-04-30T07:40:58.884Z</time></trkpt><trkpt lat="37.0825106" lon="22.0471012"><ele>20.0</ele><time>2026-04-30T07:40:59.883Z</time></trkpt><trkpt lat="37.082614" lon="22.0469962"><ele>20.0</ele><time>2026-04-30T07:41:00.884Z</time></trkpt><trkpt lat="37.0827264" lon="22.0468842"><ele>20.0</ele><time>2026-04-30T07:41:01.883Z</time></trkpt><trkpt lat="37.0828405" lon="22.0467732"><ele>20.0</ele><time>2026-04-30T07:41:02.884Z</time></trkpt><trkpt lat="37.0829608" lon="22.0466594"><ele>19.666666666666668</ele><time>2026-04-30T07:41:03.883Z</time></trkpt><trkpt lat="37.0830881" lon="22.0465418"><ele>19.333333333333332</ele><time>2026-04-30T07:41:04.883Z</time></trkpt><trkpt lat="37.0832161" lon="22.0464241"><ele>19.0</ele><time>2026-04-30T07:41:05.883Z</time></trkpt><trkpt lat="37.0833461" lon="22.0463064"><ele>19.0</ele><time>2026-04-30T07:41:06.884Z</time></trkpt><trkpt lat="37.0834908" lon="22.0461801"><ele>19.0</ele><time>2026-04-30T07:41:07.884Z</time></trkpt><trkpt lat="37.08364" lon="22.0460615"><ele>19.0</ele><time>2026-04-30T07:41:08.884Z</time></trkpt><trkpt lat="37.0837965" lon="22.0459448"><ele>19.0</ele><time>2026-04-30T07:41:09.884Z</time></trkpt><trkpt lat="37.083953" lon="22.0458324"><ele>19.0</ele><time>2026-04-30T07:41:10.884Z</time></trkpt><trkpt lat="37.0841177" lon="22.0457172"><ele>19.0</ele><time>2026-04-30T07:41:11.884Z</time></trkpt><trkpt lat="37.0842897" lon="22.0455948"><ele>18.666666666666664</ele><time>2026-04-30T07:41:12.883Z</time></trkpt><trkpt lat="37.0844588" lon="22.0454752"><ele>18.333333333333332</ele><time>2026-04-30T07:41:13.884Z</time></trkpt><trkpt lat="37.0846242" lon="22.0453606"><ele>18.0</ele><time>2026-04-30T07:41:14.884Z</time></trkpt><trkpt lat="37.0848028" lon="22.0452428"><ele>17.666666666666668</ele><time>2026-04-30T07:41:15.884Z</time></trkpt><trkpt lat="37.084978" lon="22.0451274"><ele>17.333333333333336</ele><time>2026-04-30T07:41:16.884Z</time></trkpt><trkpt lat="37.085154" lon="22.0450109"><ele>17.0</ele><time>2026-04-30T07:41:17.883Z</time></trkpt><trkpt lat="37.0853239" lon="22.0448967"><ele>17.0</ele><time>2026-04-30T07:41:18.883Z</time></trkpt><trkpt lat="37.0854984" lon="22.0447808"><ele>17.0</ele><time>2026-04-30T07:41:19.884Z</time></trkpt><trkpt lat="37.0856816" lon="22.0446641"><ele>17.0</ele><time>2026-04-30T07:41:20.883Z</time></trkpt><trkpt lat="37.0858657" lon="22.04455"><ele>17.0</ele><time>2026-04-30T07:41:21.884Z</time></trkpt><trkpt lat="37.0860556" lon="22.044452"><ele>17.0</ele><time>2026-04-30T07:41:22.884Z</time></trkpt><trkpt lat="37.0862588" lon="22.0443616"><ele>17.0</ele><time>2026-04-30T07:41:23.884Z</time></trkpt><trkpt lat="37.0864561" lon="22.0442898"><ele>17.333333333333336</ele><time>2026-04-30T07:41:24.884Z</time></trkpt><trkpt lat="37.0866491" lon="22.0442338"><ele>17.666666666666668</ele><time>2026-04-30T07:41:25.883Z</time></trkpt><trkpt lat="37.0868347" lon="22.0441899"><ele>18.0</ele><time>2026-04-30T07:41:26.883Z</time></trkpt><trkpt lat="37.0870264" lon="22.0441566"><ele>18.0</ele><time>2026-04-30T07:41:27.884Z</time></trkpt><trkpt lat="37.0872224" lon="22.0441391"><ele>18.0</ele><time>2026-04-30T07:41:28.884Z</time></trkpt><trkpt lat="37.0874118" lon="22.044133"><ele>18.0</ele><time>2026-04-30T07:41:29.884Z</time></trkpt><trkpt lat="37.0875962" lon="22.0441409"><ele>17.666666666666668</ele><time>2026-04-30T07:41:30.883Z</time></trkpt><trkpt lat="37.0877893" lon="22.0441587"><ele>17.333333333333336</ele><time>2026-04-30T07:41:31.883Z</time></trkpt><trkpt lat="37.0879809" lon="22.0441857"><ele>17.0</ele><time>2026-04-30T07:41:32.884Z</time></trkpt><trkpt lat="37.0881801" lon="22.0442219"><ele>17.333333333333336</ele><time>2026-04-30T07:41:33.883Z</time></trkpt><trkpt lat="37.0883782" lon="22.0442624"><ele>17.666666666666668</ele><time>2026-04-30T07:41:34.884Z</time></trkpt><trkpt lat="37.0885857" lon="22.0443211"><ele>18.0</ele><time>2026-04-30T07:41:35.884Z</time></trkpt><trkpt lat="37.0887986" lon="22.0443893"><ele>18.0</ele><time>2026-04-30T07:41:36.883Z</time></trkpt><trkpt lat="37.0890023" lon="22.0444655"><ele>18.0</ele><time>2026-04-30T07:41:37.884Z</time></trkpt><trkpt lat="37.0891974" lon="22.0445379"><ele>18.0</ele><time>2026-04-30T07:41:38.884Z</time></trkpt><trkpt lat="37.0894014" lon="22.0446133"><ele>17.666666666666668</ele><time>2026-04-30T07:41:39.883Z</time></trkpt><trkpt lat="37.0895945" lon="22.0446837"><ele>17.333333333333336</ele><time>2026-04-30T07:41:40.884Z</time></trkpt><trkpt lat="37.089784" lon="22.0447412"><ele>17.0</ele><time>2026-04-30T07:41:41.883Z</time></trkpt><trkpt lat="37.0899605" lon="22.0447968"><ele>17.666666666666668</ele><time>2026-04-30T07:41:42.884Z</time></trkpt><trkpt lat="37.090139" lon="22.0448521"><ele>18.333333333333332</ele><time>2026-04-30T07:41:43.884Z</time></trkpt><trkpt lat="37.0903199" lon="22.0449003"><ele>19.0</ele><time>2026-04-30T07:41:44.884Z</time></trkpt><trkpt lat="37.0904931" lon="22.0449455"><ele>20.666666666666664</ele><time>2026-04-30T07:41:45.883Z</time></trkpt><trkpt lat="37.0906591" lon="22.0449833"><ele>22.333333333333332</ele><time>2026-04-30T07:41:46.883Z</time></trkpt><trkpt lat="37.0908335" lon="22.0450144"><ele>24.0</ele><time>2026-04-30T07:41:47.883Z</time></trkpt><trkpt lat="37.0910039" lon="22.0450347"><ele>24.666666666666664</ele><time>2026-04-30T07:41:48.883Z</time></trkpt><trkpt lat="37.0911727" lon="22.0450511"><ele>25.333333333333332</ele><time>2026-04-30T07:41:49.884Z</time></trkpt><trkpt lat="37.0913405" lon="22.0450642"><ele>26.0</ele><time>2026-04-30T07:41:50.884Z</time></trkpt><trkpt lat="37.091511" lon="22.0450741"><ele>26.333333333333332</ele><time>2026-04-30T07:41:51.884Z</time></trkpt><trkpt lat="37.0916907" lon="22.0450762"><ele>26.666666666666664</ele><time>2026-04-30T07:41:52.883Z</time></trkpt><trkpt lat="37.0918661" lon="22.0450663"><ele>27.0</ele><time>2026-04-30T07:41:53.884Z</time></trkpt><trkpt lat="37.0920356" lon="22.0450559"><ele>27.0</ele><time>2026-04-30T07:41:54.883Z</time></trkpt><trkpt lat="37.0922191" lon="22.0450324"><ele>27.0</ele><time>2026-04-30T07:41:55.883Z</time></trkpt><trkpt lat="37.092398" lon="22.0450102"><ele>27.0</ele><time>2026-04-30T07:41:56.883Z</time></trkpt><trkpt lat="37.0925752" lon="22.0449827"><ele>26.333333333333336</ele><time>2026-04-30T07:41:57.884Z</time></trkpt><trkpt lat="37.0927423" lon="22.0449585"><ele>25.666666666666668</ele><time>2026-04-30T07:41:58.883Z</time></trkpt><trkpt lat="37.0929096" lon="22.0449328"><ele>25.0</ele><time>2026-04-30T07:41:59.883Z</time></trkpt><trkpt lat="37.0930778" lon="22.0449017"><ele>25.0</ele><time>2026-04-30T07:42:00.883Z</time></trkpt><trkpt lat="37.093235" lon="22.0448767"><ele>25.0</ele><time>2026-04-30T07:42:01.883Z</time></trkpt><trkpt lat="37.0933853" lon="22.0448528"><ele>25.0</ele><time>2026-04-30T07:42:02.884Z</time></trkpt><trkpt lat="37.0935449" lon="22.0448315"><ele>26.333333333333336</ele><time>2026-04-30T07:42:03.884Z</time></trkpt><trkpt lat="37.0936974" lon="22.0448105"><ele>27.666666666666664</ele><time>2026-04-30T07:42:04.883Z</time></trkpt><trkpt lat="37.0938509" lon="22.0447845"><ele>29.0</ele><time>2026-04-30T07:42:05.883Z</time></trkpt><trkpt lat="37.0940019" lon="22.0447567"><ele>29.333333333333332</ele><time>2026-04-30T07:42:06.883Z</time></trkpt><trkpt lat="37.094161" lon="22.0447276"><ele>29.666666666666664</ele><time>2026-04-30T07:42:07.884Z</time></trkpt><trkpt lat="37.0943274" lon="22.0446966"><ele>30.0</ele><time>2026-04-30T07:42:08.884Z</time></trkpt><trkpt lat="37.0944901" lon="22.0446624"><ele>30.0</ele><time>2026-04-30T07:42:09.884Z</time></trkpt><trkpt lat="37.0946478" lon="22.0446286"><ele>30.0</ele><time>2026-04-30T07:42:10.883Z</time></trkpt><trkpt lat="37.0948161" lon="22.0445861"><ele>30.0</ele><time>2026-04-30T07:42:11.884Z</time></trkpt><trkpt lat="37.0949802" lon="22.0445457"><ele>30.666666666666664</ele><time>2026-04-30T07:42:12.884Z</time></trkpt><trkpt lat="37.0951468" lon="22.0445002"><ele>31.333333333333332</ele><time>2026-04-30T07:42:13.883Z</time></trkpt><trkpt lat="37.0953098" lon="22.0444499"><ele>32.0</ele><time>2026-04-30T07:42:14.884Z</time></trkpt><trkpt lat="37.0954806" lon="22.0443927"><ele>32.0</ele><time>2026-04-30T07:42:15.884Z</time></trkpt><trkpt lat="37.0956593" lon="22.0443359"><ele>32.0</ele><time>2026-04-30T07:42:16.883Z</time></trkpt><trkpt lat="37.0958312" lon="22.0442826"><ele>32.0</ele><time>2026-04-30T07:42:17.883Z</time></trkpt><trkpt lat="37.0959975" lon="22.0442306"><ele>32.33333333333333</ele><time>2026-04-30T07:42:18.883Z</time></trkpt><trkpt lat="37.0961755" lon="22.0441739"><ele>32.666666666666664</ele><time>2026-04-30T07:42:19.884Z</time></trkpt><trkpt lat="37.0963488" lon="22.0441207"><ele>33.0</ele><time>2026-04-30T07:42:20.883Z</time></trkpt><trkpt lat="37.0965213" lon="22.044061"><ele>31.666666666666664</ele><time>2026-04-30T07:42:21.883Z</time></trkpt><trkpt lat="37.0966903" lon="22.044005"><ele>30.333333333333332</ele><time>2026-04-30T07:42:22.884Z</time></trkpt><trkpt lat="37.0968631" lon="22.0439385"><ele>29.0</ele><time>2026-04-30T07:42:23.884Z</time></trkpt><trkpt lat="37.0970382" lon="22.0438707"><ele>29.0</ele><time>2026-04-30T07:42:24.884Z</time></trkpt><trkpt lat="37.0972026" lon="22.0438068"><ele>29.0</ele><time>2026-04-30T07:42:25.884Z</time></trkpt><trkpt lat="37.0973618" lon="22.0437389"><ele>29.0</ele><time>2026-04-30T07:42:26.884Z</time></trkpt><trkpt lat="37.0975309" lon="22.0436618"><ele>29.666666666666664</ele><time>2026-04-30T07:42:27.883Z</time></trkpt><trkpt lat="37.0976898" lon="22.0435842"><ele>30.333333333333336</ele><time>2026-04-30T07:42:28.884Z</time></trkpt><trkpt lat="37.0978532" lon="22.0435027"><ele>31.0</ele><time>2026-04-30T07:42:29.884Z</time></trkpt><trkpt lat="37.0980168" lon="22.0434219"><ele>31.0</ele><time>2026-04-30T07:42:30.884Z</time></trkpt><trkpt lat="37.0981802" lon="22.0433461"><ele>31.0</ele><time>2026-04-30T07:42:31.883Z</time></trkpt><trkpt lat="37.0983497" lon="22.0432696"><ele>31.0</ele><time>2026-04-30T07:42:32.883Z</time></trkpt><trkpt lat="37.0985122" lon="22.0431929"><ele>29.333333333333336</ele><time>2026-04-30T07:42:33.884Z</time></trkpt><trkpt lat="37.0986777" lon="22.0431067"><ele>27.666666666666664</ele><time>2026-04-30T07:42:34.884Z</time></trkpt><trkpt lat="37.0988491" lon="22.0430083"><ele>26.0</ele><time>2026-04-30T07:42:35.883Z</time></trkpt><trkpt lat="37.099013" lon="22.0429074"><ele>26.666666666666664</ele><time>2026-04-30T07:42:36.884Z</time></trkpt><trkpt lat="37.0991756" lon="22.0428041"><ele>27.333333333333336</ele><time>2026-04-30T07:42:37.884Z</time></trkpt><trkpt lat="37.0993439" lon="22.0426946"><ele>28.0</ele><time>2026-04-30T07:42:38.883Z</time></trkpt><trkpt lat="37.0995153" lon="22.0425702"><ele>27.0</ele><time>2026-04-30T07:42:39.883Z</time></trkpt><trkpt lat="37.0996866" lon="22.0424495"><ele>26.0</ele><time>2026-04-30T07:42:40.884Z</time></trkpt><trkpt lat="37.0998574" lon="22.0423337"><ele>25.0</ele><time>2026-04-30T07:42:41.883Z</time></trkpt><trkpt lat="37.100031" lon="22.0422153"><ele>25.0</ele><time>2026-04-30T07:42:42.884Z</time></trkpt><trkpt lat="37.1002124" lon="22.0420953"><ele>25.0</ele><time>2026-04-30T07:42:43.884Z</time></trkpt><trkpt lat="37.1003855" lon="22.0419811"><ele>25.0</ele><time>2026-04-30T07:42:44.884Z</time></trkpt><trkpt lat="37.1005643" lon="22.0418666"><ele>25.0</ele><time>2026-04-30T07:42:45.883Z</time></trkpt><trkpt lat="37.1007455" lon="22.0417475"><ele>25.0</ele><time>2026-04-30T07:42:46.884Z</time></trkpt><trkpt lat="37.1009269" lon="22.0416299"><ele>25.0</ele><time>2026-04-30T07:42:47.883Z</time></trkpt><trkpt lat="37.1011095" lon="22.0415165"><ele>25.0</ele><time>2026-04-30T07:42:48.883Z</time></trkpt><trkpt lat="37.1012918" lon="22.0414025"><ele>25.0</ele><time>2026-04-30T07:42:49.884Z</time></trkpt><trkpt lat="37.1014741" lon="22.041288"><ele>25.0</ele><time>2026-04-30T07:42:50.884Z</time></trkpt><trkpt lat="37.1016667" lon="22.041168"><ele>24.666666666666668</ele><time>2026-04-30T07:42:51.883Z</time></trkpt><trkpt lat="37.1018549" lon="22.0410523"><ele>24.333333333333336</ele><time>2026-04-30T07:42:52.884Z</time></trkpt><trkpt lat="37.1020425" lon="22.0409339"><ele>24.0</ele><time>2026-04-30T07:42:53.883Z</time></trkpt><trkpt lat="37.1022256" lon="22.0408282"><ele>23.333333333333332</ele><time>2026-04-30T07:42:54.884Z</time></trkpt><trkpt lat="37.1024111" lon="22.0407295"><ele>22.666666666666664</ele><time>2026-04-30T07:42:55.884Z</time></trkpt><trkpt lat="37.1026033" lon="22.0406368"><ele>22.0</ele><time>2026-04-30T07:42:56.884Z</time></trkpt><trkpt lat="37.1027876" lon="22.0405647"><ele>22.0</ele><time>2026-04-30T07:42:57.883Z</time></trkpt><trkpt lat="37.1029674" lon="22.0405014"><ele>22.0</ele><time>2026-04-30T07:42:58.883Z</time></trkpt><trkpt lat="37.1031576" lon="22.0404443"><ele>22.0</ele><time>2026-04-30T07:42:59.884Z</time></trkpt><trkpt lat="37.1033429" lon="22.040398"><ele>22.0</ele><time>2026-04-30T07:43:00.883Z</time></trkpt><trkpt lat="37.1035316" lon="22.0403615"><ele>22.0</ele><time>2026-04-30T07:43:01.883Z</time></trkpt><trkpt lat="37.1037186" lon="22.0403376"><ele>22.0</ele><time>2026-04-30T07:43:02.884Z</time></trkpt><trkpt lat="37.1039115" lon="22.0403362"><ele>22.333333333333332</ele><time>2026-04-30T07:43:03.883Z</time></trkpt><trkpt lat="37.1041145" lon="22.0403391"><ele>22.666666666666668</ele><time>2026-04-30T07:43:04.884Z</time></trkpt><trkpt lat="37.1043131" lon="22.0403406"><ele>23.0</ele><time>2026-04-30T07:43:05.883Z</time></trkpt><trkpt lat="37.1045042" lon="22.0403445"><ele>23.0</ele><time>2026-04-30T07:43:06.884Z</time></trkpt><trkpt lat="37.1047057" lon="22.04036"><ele>23.0</ele><time>2026-04-30T07:43:07.884Z</time></trkpt><trkpt lat="37.1048999" lon="22.0403749"><ele>23.0</ele><time>2026-04-30T07:43:08.884Z</time></trkpt><trkpt lat="37.1050917" lon="22.0403938"><ele>23.333333333333336</ele><time>2026-04-30T07:43:09.884Z</time></trkpt><trkpt lat="37.1052751" lon="22.0404133"><ele>23.666666666666668</ele><time>2026-04-30T07:43:10.884Z</time></trkpt><trkpt lat="37.1054628" lon="22.0404386"><ele>24.0</ele><time>2026-04-30T07:43:11.884Z</time></trkpt><trkpt lat="37.1056508" lon="22.0404647"><ele>23.666666666666668</ele><time>2026-04-30T07:43:12.884Z</time></trkpt><trkpt lat="37.1058342" lon="22.0404888"><ele>23.333333333333336</ele><time>2026-04-30T07:43:13.884Z</time></trkpt><trkpt lat="37.1060113" lon="22.0405348"><ele>23.0</ele><time>2026-04-30T07:43:14.884Z</time></trkpt><trkpt lat="37.1061958" lon="22.0406041"><ele>23.0</ele><time>2026-04-30T07:43:15.884Z</time></trkpt><trkpt lat="37.1063759" lon="22.0406839"><ele>23.0</ele><time>2026-04-30T07:43:16.883Z</time></trkpt><trkpt lat="37.1065571" lon="22.040775"><ele>23.0</ele><time>2026-04-30T07:43:17.884Z</time></trkpt><trkpt lat="37.1067309" lon="22.0408673"><ele>25.666666666666668</ele><time>2026-04-30T07:43:18.884Z</time></trkpt><trkpt lat="37.1069098" lon="22.0409651"><ele>28.333333333333336</ele><time>2026-04-30T07:43:19.884Z</time></trkpt><trkpt lat="37.1071039" lon="22.0410601"><ele>31.0</ele><time>2026-04-30T07:43:20.884Z</time></trkpt><trkpt lat="37.1072872" lon="22.0411557"><ele>30.666666666666668</ele><time>2026-04-30T07:43:21.884Z</time></trkpt><trkpt lat="37.1074641" lon="22.0412405"><ele>30.333333333333336</ele><time>2026-04-30T07:43:22.884Z</time></trkpt><trkpt lat="37.1076529" lon="22.0413202"><ele>30.0</ele><time>2026-04-30T07:43:23.884Z</time></trkpt><trkpt lat="37.1078383" lon="22.0413812"><ele>30.0</ele><time>2026-04-30T07:43:24.884Z</time></trkpt><trkpt lat="37.1080254" lon="22.0414291"><ele>30.0</ele><time>2026-04-30T07:43:25.884Z</time></trkpt><trkpt lat="37.1082057" lon="22.0414733"><ele>30.0</ele><time>2026-04-30T07:43:26.884Z</time></trkpt><trkpt lat="37.108398" lon="22.0415164"><ele>29.333333333333336</ele><time>2026-04-30T07:43:27.884Z</time></trkpt><trkpt lat="37.1085931" lon="22.0415546"><ele>28.666666666666668</ele><time>2026-04-30T07:43:28.883Z</time></trkpt><trkpt lat="37.1087897" lon="22.0415826"><ele>28.0</ele><time>2026-04-30T07:43:29.883Z</time></trkpt><trkpt lat="37.1089905" lon="22.0416073"><ele>27.666666666666668</ele><time>2026-04-30T07:43:30.883Z</time></trkpt><trkpt lat="37.1091966" lon="22.041628"><ele>27.333333333333336</ele><time>2026-04-30T07:43:31.884Z</time></trkpt><trkpt lat="37.109396" lon="22.0416316"><ele>27.0</ele><time>2026-04-30T07:43:32.883Z</time></trkpt><trkpt lat="37.1095981" lon="22.0416401"><ele>27.0</ele><time>2026-04-30T07:43:33.883Z</time></trkpt><trkpt lat="37.1097935" lon="22.0416422"><ele>27.0</ele><time>2026-04-30T07:43:34.883Z</time></trkpt><trkpt lat="37.1099874" lon="22.0416354"><ele>27.0</ele><time>2026-04-30T07:43:35.883Z</time></trkpt><trkpt lat="37.110185" lon="22.041627"><ele>27.0</ele><time>2026-04-30T07:43:36.883Z</time></trkpt><trkpt lat="37.1103719" lon="22.0416115"><ele>27.0</ele><time>2026-04-30T07:43:37.884Z</time></trkpt><trkpt lat="37.1105482" lon="22.0415873"><ele>27.0</ele><time>2026-04-30T07:43:38.884Z</time></trkpt><trkpt lat="37.11073" lon="22.041551"><ele>27.666666666666664</ele><time>2026-04-30T07:43:39.884Z</time></trkpt><trkpt lat="37.1109007" lon="22.0415069"><ele>28.333333333333332</ele><time>2026-04-30T07:43:40.883Z</time></trkpt><trkpt lat="37.1110649" lon="22.0414566"><ele>29.0</ele><time>2026-04-30T07:43:41.884Z</time></trkpt><trkpt lat="37.1112305" lon="22.0413956"><ele>29.0</ele><time>2026-04-30T07:43:42.884Z</time></trkpt><trkpt lat="37.1113929" lon="22.0413244"><ele>29.0</ele><time>2026-04-30T07:43:43.883Z</time></trkpt><trkpt lat="37.1115574" lon="22.0412494"><ele>29.0</ele><time>2026-04-30T07:43:44.884Z</time></trkpt><trkpt lat="37.1117237" lon="22.041172"><ele>29.333333333333332</ele><time>2026-04-30T07:43:45.884Z</time></trkpt><trkpt lat="37.111895" lon="22.0410872"><ele>29.666666666666664</ele><time>2026-04-30T07:43:46.883Z</time></trkpt><trkpt lat="37.1120732" lon="22.0409976"><ele>30.0</ele><time>2026-04-30T07:43:47.884Z</time></trkpt><trkpt lat="37.1122441" lon="22.0409088"><ele>30.0</ele><time>2026-04-30T07:43:48.884Z</time></trkpt><trkpt lat="37.1124241" lon="22.0408127"><ele>30.0</ele><time>2026-04-30T07:43:49.884Z</time></trkpt><trkpt lat="37.1126054" lon="22.0407162"><ele>30.0</ele><time>2026-04-30T07:43:50.883Z</time></trkpt><trkpt lat="37.1127865" lon="22.0406142"><ele>29.333333333333336</ele><time>2026-04-30T07:43:51.883Z</time></trkpt><trkpt lat="37.1129749" lon="22.0405159"><ele>28.666666666666668</ele><time>2026-04-30T07:43:52.883Z</time></trkpt><trkpt lat="37.1131554" lon="22.0404188"><ele>28.0</ele><time>2026-04-30T07:43:53.883Z</time></trkpt><trkpt lat="37.1133382" lon="22.0403153"><ele>28.0</ele><time>2026-04-30T07:43:54.883Z</time></trkpt><trkpt lat="37.1135278" lon="22.0402155"><ele>28.0</ele><time>2026-04-30T07:43:55.884Z</time></trkpt><trkpt lat="37.1137025" lon="22.0401235"><ele>28.0</ele><time>2026-04-30T07:43:56.884Z</time></trkpt><trkpt lat="37.1138781" lon="22.0400298"><ele>27.333333333333336</ele><time>2026-04-30T07:43:57.884Z</time></trkpt><trkpt lat="37.1140506" lon="22.039927"><ele>26.666666666666664</ele><time>2026-04-30T07:43:58.883Z</time></trkpt><trkpt lat="37.114225" lon="22.0398385"><ele>26.0</ele><time>2026-04-30T07:43:59.883Z</time></trkpt><trkpt lat="37.1143983" lon="22.0397495"><ele>26.0</ele><time>2026-04-30T07:44:00.883Z</time></trkpt><trkpt lat="37.1145708" lon="22.0396616"><ele>26.0</ele><time>2026-04-30T07:44:01.884Z</time></trkpt><trkpt lat="37.1147447" lon="22.0395667"><ele>26.0</ele><time>2026-04-30T07:44:02.883Z</time></trkpt><trkpt lat="37.1149248" lon="22.0394701"><ele>26.0</ele><time>2026-04-30T07:44:03.883Z</time></trkpt><trkpt lat="37.1150928" lon="22.039379"><ele>26.0</ele><time>2026-04-30T07:44:04.884Z</time></trkpt><trkpt lat="37.1152666" lon="22.0392865"><ele>26.0</ele><time>2026-04-30T07:44:05.884Z</time></trkpt><trkpt lat="37.1154422" lon="22.0391973"><ele>25.333333333333332</ele><time>2026-04-30T07:44:06.884Z</time></trkpt><trkpt lat="37.1156181" lon="22.0391061"><ele>24.666666666666664</ele><time>2026-04-30T07:44:07.883Z</time></trkpt><trkpt lat="37.1157944" lon="22.0390144"><ele>24.0</ele><time>2026-04-30T07:44:08.884Z</time></trkpt><trkpt lat="37.1159732" lon="22.0389234"><ele>24.0</ele><time>2026-04-30T07:44:09.883Z</time></trkpt><trkpt lat="37.1161399" lon="22.0388367"><ele>24.0</ele><time>2026-04-30T07:44:10.884Z</time></trkpt><trkpt lat="37.1163131" lon="22.0387489"><ele>24.0</ele><time>2026-04-30T07:44:11.883Z</time></trkpt><trkpt lat="37.116476" lon="22.0386635"><ele>24.0</ele><time>2026-04-30T07:44:12.883Z</time></trkpt><trkpt lat="37.1166351" lon="22.0385762"><ele>24.0</ele><time>2026-04-30T07:44:13.884Z</time></trkpt><trkpt lat="37.1167834" lon="22.0384997"><ele>24.0</ele><time>2026-04-30T07:44:14.883Z</time></trkpt><trkpt lat="37.1169392" lon="22.0384148"><ele>24.0</ele><time>2026-04-30T07:44:15.884Z</time></trkpt><trkpt lat="37.117093" lon="22.0383295"><ele>24.0</ele><time>2026-04-30T07:44:16.883Z</time></trkpt><trkpt lat="37.1172223" lon="22.0382601"><ele>24.0</ele><time>2026-04-30T07:44:17.883Z</time></trkpt><trkpt lat="37.1173393" lon="22.0381979"><ele>24.0</ele><time>2026-04-30T07:44:18.883Z</time></trkpt><trkpt lat="37.117457" lon="22.038132"><ele>23.5</ele><time>2026-04-30T07:44:19.884Z</time></trkpt><trkpt lat="37.1175667" lon="22.0380743"><ele>23.0</ele><time>2026-04-30T07:44:20.884Z</time></trkpt><trkpt lat="37.1176665" lon="22.0380214"><ele>22.5</ele><time>2026-04-30T07:44:21.884Z</time></trkpt><trkpt lat="37.1177681" lon="22.0379676"><ele>22.0</ele><time>2026-04-30T07:44:22.883Z</time></trkpt><trkpt lat="37.1178718" lon="22.0379124"><ele>22.0</ele><time>2026-04-30T07:44:23.883Z</time></trkpt><trkpt lat="37.1179852" lon="22.0378535"><ele>22.0</ele><time>2026-04-30T07:44:24.883Z</time></trkpt><trkpt lat="37.1180995" lon="22.0377944"><ele>22.0</ele><time>2026-04-30T07:44:25.883Z</time></trkpt><trkpt lat="37.1182234" lon="22.0377209"><ele>22.0</ele><time>2026-04-30T07:44:26.884Z</time></trkpt><trkpt lat="37.1183429" lon="22.0376571"><ele>22.0</ele><time>2026-04-30T07:44:27.884Z</time></trkpt><trkpt lat="37.1184503" lon="22.0376027"><ele>22.0</ele><time>2026-04-30T07:44:28.883Z</time></trkpt><trkpt lat="37.1185574" lon="22.0375588"><ele>22.0</ele><time>2026-04-30T07:44:29.883Z</time></trkpt><trkpt lat="37.1186617" lon="22.0375365"><ele>22.0</ele><time>2026-04-30T07:44:30.883Z</time></trkpt><trkpt lat="37.1187569" lon="22.0375118"><ele>22.0</ele><time>2026-04-30T07:44:31.883Z</time></trkpt><trkpt lat="37.118852" lon="22.0374614"><ele>21.5</ele><time>2026-04-30T07:44:32.883Z</time></trkpt><trkpt lat="37.1189607" lon="22.037381"><ele>21.0</ele><time>2026-04-30T07:44:33.883Z</time></trkpt><trkpt lat="37.1190763" lon="22.0373006"><ele>20.5</ele><time>2026-04-30T07:44:34.883Z</time></trkpt><trkpt lat="37.1192121" lon="22.0372198"><ele>20.0</ele><time>2026-04-30T07:44:35.883Z</time></trkpt><trkpt lat="37.1193571" lon="22.0371445"><ele>19.666666666666668</ele><time>2026-04-30T07:44:36.884Z</time></trkpt><trkpt lat="37.1195174" lon="22.0370573"><ele>19.333333333333332</ele><time>2026-04-30T07:44:37.884Z</time></trkpt><trkpt lat="37.1196755" lon="22.03697"><ele>19.0</ele><time>2026-04-30T07:44:38.883Z</time></trkpt><trkpt lat="37.1198309" lon="22.0368884"><ele>19.333333333333332</ele><time>2026-04-30T07:44:39.884Z</time></trkpt><trkpt lat="37.1199868" lon="22.0368103"><ele>19.666666666666668</ele><time>2026-04-30T07:44:40.883Z</time></trkpt><trkpt lat="37.1201439" lon="22.0367268"><ele>20.0</ele><time>2026-04-30T07:44:41.884Z</time></trkpt><trkpt lat="37.1203021" lon="22.0366471"><ele>19.333333333333336</ele><time>2026-04-30T07:44:42.883Z</time></trkpt><trkpt lat="37.1204672" lon="22.0365587"><ele>18.666666666666668</ele><time>2026-04-30T07:44:43.883Z</time></trkpt><trkpt lat="37.1206228" lon="22.0364772"><ele>18.0</ele><time>2026-04-30T07:44:44.883Z</time></trkpt><trkpt lat="37.120782" lon="22.0363927"><ele>18.0</ele><time>2026-04-30T07:44:45.884Z</time></trkpt><trkpt lat="37.1209366" lon="22.0363111"><ele>18.0</ele><time>2026-04-30T07:44:46.884Z</time></trkpt><trkpt lat="37.1210823" lon="22.0362342"><ele>18.0</ele><time>2026-04-30T07:44:47.883Z</time></trkpt><trkpt lat="37.1212289" lon="22.0361588"><ele>18.0</ele><time>2026-04-30T07:44:48.883Z</time></trkpt><trkpt lat="37.1213647" lon="22.0360877"><ele>18.0</ele><time>2026-04-30T07:44:49.884Z</time></trkpt><trkpt lat="37.1215051" lon="22.0360097"><ele>18.0</ele><time>2026-04-30T07:44:50.884Z</time></trkpt><trkpt lat="37.1216536" lon="22.0359273"><ele>17.666666666666668</ele><time>2026-04-30T07:44:51.883Z</time></trkpt><trkpt lat="37.1217955" lon="22.035842"><ele>17.333333333333336</ele><time>2026-04-30T07:44:52.884Z</time></trkpt><trkpt lat="37.1219428" lon="22.0357464"><ele>17.0</ele><time>2026-04-30T07:44:53.884Z</time></trkpt><trkpt lat="37.1220889" lon="22.0356335"><ele>16.333333333333336</ele><time>2026-04-30T07:44:54.884Z</time></trkpt><trkpt lat="37.1222393" lon="22.0354934"><ele>15.666666666666668</ele><time>2026-04-30T07:44:55.883Z</time></trkpt><trkpt lat="37.1223896" lon="22.0353423"><ele>15.0</ele><time>2026-04-30T07:44:56.884Z</time></trkpt><trkpt lat="37.1225313" lon="22.0351906"><ele>15.0</ele><time>2026-04-30T07:44:57.884Z</time></trkpt><trkpt lat="37.1226606" lon="22.0350346"><ele>15.0</ele><time>2026-04-30T07:44:58.883Z</time></trkpt><trkpt lat="37.1227817" lon="22.034863"><ele>15.0</ele><time>2026-04-30T07:44:59.883Z</time></trkpt><trkpt lat="37.1228797" lon="22.0347028"><ele>14.333333333333332</ele><time>2026-04-30T07:45:00.883Z</time></trkpt><trkpt lat="37.1229726" lon="22.0345389"><ele>13.666666666666666</ele><time>2026-04-30T07:45:01.883Z</time></trkpt><trkpt lat="37.1230589" lon="22.0343689"><ele>13.0</ele><time>2026-04-30T07:45:02.884Z</time></trkpt><trkpt lat="37.1231462" lon="22.0342019"><ele>13.0</ele><time>2026-04-30T07:45:03.884Z</time></trkpt><trkpt lat="37.123239" lon="22.0340375"><ele>13.0</ele><time>2026-04-30T07:45:04.884Z</time></trkpt><trkpt lat="37.1233378" lon="22.0338814"><ele>13.0</ele><time>2026-04-30T07:45:05.883Z</time></trkpt><trkpt lat="37.1234403" lon="22.0337463"><ele>13.0</ele><time>2026-04-30T07:45:06.883Z</time></trkpt><trkpt lat="37.123552" lon="22.0336231"><ele>13.0</ele><time>2026-04-30T07:45:07.883Z</time></trkpt><trkpt lat="37.1236616" lon="22.0335269"><ele>13.0</ele><time>2026-04-30T07:45:08.884Z</time></trkpt><trkpt lat="37.1237776" lon="22.0334552"><ele>13.0</ele><time>2026-04-30T07:45:09.884Z</time></trkpt><trkpt lat="37.1238962" lon="22.033398"><ele>13.0</ele><time>2026-04-30T07:45:10.884Z</time></trkpt><trkpt lat="37.1240172" lon="22.0333644"><ele>13.0</ele><time>2026-04-30T07:45:11.883Z</time></trkpt><trkpt lat="37.1241417" lon="22.0333421"><ele>13.0</ele><time>2026-04-30T07:45:12.884Z</time></trkpt><trkpt lat="37.1242684" lon="22.0333298"><ele>13.0</ele><time>2026-04-30T07:45:13.884Z</time></trkpt><trkpt lat="37.1243968" lon="22.0333206"><ele>13.5</ele><time>2026-04-30T07:45:14.884Z</time></trkpt><trkpt lat="37.1245288" lon="22.0333113"><ele>14.0</ele><time>2026-04-30T07:45:15.883Z</time></trkpt><trkpt lat="37.1246562" lon="22.0333079"><ele>14.5</ele><time>2026-04-30T07:45:16.884Z</time></trkpt><trkpt lat="37.1247913" lon="22.0333056"><ele>15.0</ele><time>2026-04-30T07:45:17.884Z</time></trkpt><trkpt lat="37.1249277" lon="22.0332986"><ele>15.5</ele><time>2026-04-30T07:45:18.884Z</time></trkpt><trkpt lat="37.1250631" lon="22.0332911"><ele>16.0</ele><time>2026-04-30T07:45:19.884Z</time></trkpt><trkpt lat="37.1251993" lon="22.0332857"><ele>16.5</ele><time>2026-04-30T07:45:20.883Z</time></trkpt><trkpt lat="37.1253344" lon="22.0332824"><ele>17.0</ele><time>2026-04-30T07:45:21.883Z</time></trkpt><trkpt lat="37.1254686" lon="22.0332796"><ele>17.0</ele><time>2026-04-30T07:45:22.883Z</time></trkpt><trkpt lat="37.1256075" lon="22.033276"><ele>17.0</ele><time>2026-04-30T07:45:23.884Z</time></trkpt><trkpt lat="37.1257399" lon="22.03327"><ele>17.0</ele><time>2026-04-30T07:45:24.884Z</time></trkpt><trkpt lat="37.1258785" lon="22.0332644"><ele>17.0</ele><time>2026-04-30T07:45:25.883Z</time></trkpt><trkpt lat="37.1260214" lon="22.03326"><ele>17.25</ele><time>2026-04-30T07:45:26.883Z</time></trkpt><trkpt lat="37.1261652" lon="22.0332554"><ele>17.5</ele><time>2026-04-30T07:45:27.884Z</time></trkpt><trkpt lat="37.1263092" lon="22.0332508"><ele>17.75</ele><time>2026-04-30T07:45:28.883Z</time></trkpt><trkpt lat="37.1264509" lon="22.0332466"><ele>18.0</ele><time>2026-04-30T07:45:29.884Z</time></trkpt><trkpt lat="37.1265947" lon="22.0332397"><ele>18.25</ele><time>2026-04-30T07:45:30.884Z</time></trkpt><trkpt lat="37.1267435" lon="22.0332289"><ele>18.5</ele><time>2026-04-30T07:45:31.883Z</time></trkpt><trkpt lat="37.126886" lon="22.0332151"><ele>18.75</ele><time>2026-04-30T07:45:32.884Z</time></trkpt><trkpt lat="37.1270393" lon="22.0331836"><ele>19.0</ele><time>2026-04-30T07:45:33.884Z</time></trkpt><trkpt lat="37.1271958" lon="22.0331402"><ele>19.0</ele><time>2026-04-30T07:45:34.883Z</time></trkpt><trkpt lat="37.1273535" lon="22.0330783"><ele>19.0</ele><time>2026-04-30T07:45:35.883Z</time></trkpt><trkpt lat="37.1275104" lon="22.0330093"><ele>19.0</ele><time>2026-04-30T07:45:36.883Z</time></trkpt><trkpt lat="37.1276661" lon="22.0329391"><ele>19.333333333333332</ele><time>2026-04-30T07:45:37.883Z</time></trkpt><trkpt lat="37.1278234" lon="22.0328609"><ele>19.666666666666668</ele><time>2026-04-30T07:45:38.884Z</time></trkpt><trkpt lat="37.1279896" lon="22.0327736"><ele>20.0</ele><time>2026-04-30T07:45:39.884Z</time></trkpt><trkpt lat="37.1281496" lon="22.0326907"><ele>19.666666666666668</ele><time>2026-04-30T07:45:40.884Z</time></trkpt><trkpt lat="37.1283162" lon="22.032602"><ele>19.333333333333332</ele><time>2026-04-30T07:45:41.884Z</time></trkpt><trkpt lat="37.1284831" lon="22.0325086"><ele>19.0</ele><time>2026-04-30T07:45:42.883Z</time></trkpt><trkpt lat="37.1286441" lon="22.0324223"><ele>19.0</ele><time>2026-04-30T07:45:43.884Z</time></trkpt><trkpt lat="37.1287995" lon="22.032337"><ele>19.0</ele><time>2026-04-30T07:45:44.883Z</time></trkpt><trkpt lat="37.1289492" lon="22.0322523"><ele>19.0</ele><time>2026-04-30T07:45:45.884Z</time></trkpt><trkpt lat="37.1290945" lon="22.0321704"><ele>19.666666666666664</ele><time>2026-04-30T07:45:46.884Z</time></trkpt><trkpt lat="37.1292419" lon="22.0320854"><ele>20.333333333333332</ele><time>2026-04-30T07:45:47.884Z</time></trkpt><trkpt lat="37.1293771" lon="22.0320119"><ele>21.0</ele><time>2026-04-30T07:45:48.884Z</time></trkpt><trkpt lat="37.1295132" lon="22.0319365"><ele>21.0</ele><time>2026-04-30T07:45:49.883Z</time></trkpt><trkpt lat="37.1296522" lon="22.0318559"><ele>21.0</ele><time>2026-04-30T07:45:50.884Z</time></trkpt><trkpt lat="37.1297982" lon="22.031769"><ele>21.0</ele><time>2026-04-30T07:45:51.884Z</time></trkpt><trkpt lat="37.1299622" lon="22.0316679"><ele>21.666666666666668</ele><time>2026-04-30T07:45:52.884Z</time></trkpt><trkpt lat="37.1301491" lon="22.0315719"><ele>22.333333333333336</ele><time>2026-04-30T07:45:53.883Z</time></trkpt><trkpt lat="37.1303489" lon="22.0314746"><ele>23.0</ele><time>2026-04-30T07:45:54.884Z</time></trkpt><trkpt lat="37.1305659" lon="22.0313843"><ele>22.333333333333336</ele><time>2026-04-30T07:45:55.883Z</time></trkpt><trkpt lat="37.130769" lon="22.0313134"><ele>21.666666666666668</ele><time>2026-04-30T07:45:56.883Z</time></trkpt><trkpt lat="37.130969" lon="22.0312526"><ele>21.0</ele><time>2026-04-30T07:45:57.883Z</time></trkpt><trkpt lat="37.131162" lon="22.0311989"><ele>21.0</ele><time>2026-04-30T07:45:58.883Z</time></trkpt><trkpt lat="37.1313502" lon="22.0311505"><ele>21.0</ele><time>2026-04-30T07:45:59.884Z</time></trkpt><trkpt lat="37.1315359" lon="22.0311071"><ele>21.0</ele><time>2026-04-30T07:46:00.883Z</time></trkpt><trkpt lat="37.1317202" lon="22.0310699"><ele>21.666666666666668</ele><time>2026-04-30T07:46:01.884Z</time></trkpt><trkpt lat="37.1319074" lon="22.0310354"><ele>22.333333333333336</ele><time>2026-04-30T07:46:02.884Z</time></trkpt><trkpt lat="37.1321074" lon="22.031002"><ele>23.0</ele><time>2026-04-30T07:46:03.883Z</time></trkpt><trkpt lat="37.1322984" lon="22.0309677"><ele>22.333333333333336</ele><time>2026-04-30T07:46:04.884Z</time></trkpt><trkpt lat="37.1324994" lon="22.0309243"><ele>21.666666666666668</ele><time>2026-04-30T07:46:05.883Z</time></trkpt><trkpt lat="37.1327088" lon="22.0308732"><ele>21.0</ele><time>2026-04-30T07:46:06.883Z</time></trkpt><trkpt lat="37.1329152" lon="22.0308206"><ele>21.666666666666668</ele><time>2026-04-30T07:46:07.883Z</time></trkpt><trkpt lat="37.1331184" lon="22.0307667"><ele>22.333333333333336</ele><time>2026-04-30T07:46:08.883Z</time></trkpt><trkpt lat="37.1333188" lon="22.0307133"><ele>23.0</ele><time>2026-04-30T07:46:09.884Z</time></trkpt><trkpt lat="37.1335166" lon="22.0306544"><ele>23.0</ele><time>2026-04-30T07:46:10.883Z</time></trkpt><trkpt lat="37.1337173" lon="22.0305907"><ele>23.0</ele><time>2026-04-30T07:46:11.884Z</time></trkpt><trkpt lat="37.1339025" lon="22.0305304"><ele>23.0</ele><time>2026-04-30T07:46:12.884Z</time></trkpt><trkpt lat="37.1340948" lon="22.0304666"><ele>23.666666666666668</ele><time>2026-04-30T07:46:13.884Z</time></trkpt><trkpt lat="37.1342874" lon="22.030401"><ele>24.333333333333336</ele><time>2026-04-30T07:46:14.883Z</time></trkpt><trkpt lat="37.1344821" lon="22.0303348"><ele>25.0</ele><time>2026-04-30T07:46:15.883Z</time></trkpt><trkpt lat="37.1346792" lon="22.0302679"><ele>25.0</ele><time>2026-04-30T07:46:16.883Z</time></trkpt><trkpt lat="37.1348782" lon="22.0302018"><ele>25.0</ele><time>2026-04-30T07:46:17.883Z</time></trkpt><trkpt lat="37.1350817" lon="22.030136"><ele>25.0</ele><time>2026-04-30T07:46:18.883Z</time></trkpt><trkpt lat="37.1352948" lon="22.0300665"><ele>25.0</ele><time>2026-04-30T07:46:19.884Z</time></trkpt><trkpt lat="37.1354913" lon="22.030006"><ele>25.0</ele><time>2026-04-30T07:46:20.884Z</time></trkpt><trkpt lat="37.1356914" lon="22.029944"><ele>25.0</ele><time>2026-04-30T07:46:21.884Z</time></trkpt><trkpt lat="37.1358904" lon="22.0298839"><ele>24.666666666666668</ele><time>2026-04-30T07:46:22.883Z</time></trkpt><trkpt lat="37.136086" lon="22.0298231"><ele>24.333333333333336</ele><time>2026-04-30T07:46:23.883Z</time></trkpt><trkpt lat="37.1362814" lon="22.0297596"><ele>24.0</ele><time>2026-04-30T07:46:24.883Z</time></trkpt><trkpt lat="37.1364768" lon="22.0296934"><ele>24.666666666666664</ele><time>2026-04-30T07:46:25.884Z</time></trkpt><trkpt lat="37.1366729" lon="22.0296263"><ele>25.333333333333332</ele><time>2026-04-30T07:46:26.884Z</time></trkpt><trkpt lat="37.1368736" lon="22.0295604"><ele>26.0</ele><time>2026-04-30T07:46:27.884Z</time></trkpt><trkpt lat="37.1370627" lon="22.0294965"><ele>26.0</ele><time>2026-04-30T07:46:28.883Z</time></trkpt><trkpt lat="37.1372563" lon="22.0294329"><ele>26.0</ele><time>2026-04-30T07:46:29.883Z</time></trkpt><trkpt lat="37.1374543" lon="22.0293708"><ele>26.0</ele><time>2026-04-30T07:46:30.883Z</time></trkpt><trkpt lat="37.1376516" lon="22.0293092"><ele>26.0</ele><time>2026-04-30T07:46:31.884Z</time></trkpt><trkpt lat="37.1378506" lon="22.0292435"><ele>26.0</ele><time>2026-04-30T07:46:32.883Z</time></trkpt><trkpt lat="37.1380485" lon="22.0291767"><ele>26.0</ele><time>2026-04-30T07:46:33.883Z</time></trkpt><trkpt lat="37.1382452" lon="22.0291111"><ele>26.333333333333332</ele><time>2026-04-30T07:46:34.884Z</time></trkpt><trkpt lat="37.1384471" lon="22.0290424"><ele>26.666666666666664</ele><time>2026-04-30T07:46:35.884Z</time></trkpt><trkpt lat="37.1386362" lon="22.0289803"><ele>27.0</ele><time>2026-04-30T07:46:36.884Z</time></trkpt><trkpt lat="37.1388308" lon="22.028918"><ele>27.0</ele><time>2026-04-30T07:46:37.884Z</time></trkpt><trkpt lat="37.139025" lon="22.028859"><ele>27.0</ele><time>2026-04-30T07:46:38.883Z</time></trkpt><trkpt lat="37.1392206" lon="22.0288026"><ele>27.0</ele><time>2026-04-30T07:46:39.883Z</time></trkpt><trkpt lat="37.1394167" lon="22.0287542"><ele>26.666666666666664</ele><time>2026-04-30T07:46:40.883Z</time></trkpt><trkpt lat="37.1396158" lon="22.0287109"><ele>26.333333333333332</ele><time>2026-04-30T07:46:41.883Z</time></trkpt><trkpt lat="37.1398182" lon="22.0286731"><ele>26.0</ele><time>2026-04-30T07:46:42.883Z</time></trkpt><trkpt lat="37.1400326" lon="22.0286388"><ele>26.0</ele><time>2026-04-30T07:46:43.883Z</time></trkpt><trkpt lat="37.1402385" lon="22.0286091"><ele>26.0</ele><time>2026-04-30T07:46:44.883Z</time></trkpt><trkpt lat="37.1404548" lon="22.0285854"><ele>26.0</ele><time>2026-04-30T07:46:45.884Z</time></trkpt><trkpt lat="37.140672" lon="22.0285649"><ele>26.0</ele><time>2026-04-30T07:46:46.883Z</time></trkpt><trkpt lat="37.1408884" lon="22.0285477"><ele>26.0</ele><time>2026-04-30T07:46:47.884Z</time></trkpt><trkpt lat="37.1411018" lon="22.0285321"><ele>26.0</ele><time>2026-04-30T07:46:48.884Z</time></trkpt><trkpt lat="37.1413154" lon="22.0285173"><ele>26.0</ele><time>2026-04-30T07:46:49.883Z</time></trkpt><trkpt lat="37.1415284" lon="22.0284996"><ele>26.0</ele><time>2026-04-30T07:46:50.884Z</time></trkpt><trkpt lat="37.1417468" lon="22.0284835"><ele>26.0</ele><time>2026-04-30T07:46:51.883Z</time></trkpt><trkpt lat="37.1419492" lon="22.0284705"><ele>27.0</ele><time>2026-04-30T07:46:52.884Z</time></trkpt><trkpt lat="37.1421597" lon="22.0284526"><ele>28.0</ele><time>2026-04-30T07:46:53.883Z</time></trkpt><trkpt lat="37.1423685" lon="22.0284355"><ele>29.0</ele><time>2026-04-30T07:46:54.884Z</time></trkpt><trkpt lat="37.1425777" lon="22.0284152"><ele>29.0</ele><time>2026-04-30T07:46:55.884Z</time></trkpt><trkpt lat="37.1427866" lon="22.0283961"><ele>29.0</ele><time>2026-04-30T07:46:56.884Z</time></trkpt><trkpt lat="37.142994" lon="22.0283786"><ele>29.0</ele><time>2026-04-30T07:46:57.884Z</time></trkpt><trkpt lat="37.1432" lon="22.0283619"><ele>29.333333333333332</ele><time>2026-04-30T07:46:58.884Z</time></trkpt><trkpt lat="37.1434122" lon="22.0283446"><ele>29.666666666666664</ele><time>2026-04-30T07:46:59.883Z</time></trkpt><trkpt lat="37.1436107" lon="22.0283349"><ele>30.0</ele><time>2026-04-30T07:47:00.884Z</time></trkpt><trkpt lat="37.1438162" lon="22.0283256"><ele>30.0</ele><time>2026-04-30T07:47:01.883Z</time></trkpt><trkpt lat="37.1440228" lon="22.0283117"><ele>30.0</ele><time>2026-04-30T07:47:02.884Z</time></trkpt><trkpt lat="37.1442279" lon="22.0282995"><ele>30.0</ele><time>2026-04-30T07:47:03.884Z</time></trkpt><trkpt lat="37.1444345" lon="22.028283"><ele>31.333333333333336</ele><time>2026-04-30T07:47:04.884Z</time></trkpt><trkpt lat="37.144641" lon="22.0282604"><ele>32.66666666666667</ele><time>2026-04-30T07:47:05.884Z</time></trkpt><trkpt lat="37.1448463" lon="22.0282441"><ele>34.0</ele><time>2026-04-30T07:47:06.883Z</time></trkpt><trkpt lat="37.1450529" lon="22.0282307"><ele>34.333333333333336</ele><time>2026-04-30T07:47:07.883Z</time></trkpt><trkpt lat="37.145255" lon="22.0282172"><ele>34.666666666666664</ele><time>2026-04-30T07:47:08.884Z</time></trkpt><trkpt lat="37.1454585" lon="22.0281943"><ele>35.0</ele><time>2026-04-30T07:47:09.883Z</time></trkpt><trkpt lat="37.1456617" lon="22.0281655"><ele>36.0</ele><time>2026-04-30T07:47:10.884Z</time></trkpt><trkpt lat="37.1458556" lon="22.0281274"><ele>37.0</ele><time>2026-04-30T07:47:11.884Z</time></trkpt><trkpt lat="37.1460578" lon="22.0280744"><ele>38.0</ele><time>2026-04-30T07:47:12.883Z</time></trkpt><trkpt lat="37.146254" lon="22.0280093"><ele>38.0</ele><time>2026-04-30T07:47:13.883Z</time></trkpt><trkpt lat="37.1464494" lon="22.0279358"><ele>38.0</ele><time>2026-04-30T07:47:14.884Z</time></trkpt><trkpt lat="37.1466524" lon="22.0278538"><ele>38.0</ele><time>2026-04-30T07:47:15.883Z</time></trkpt><trkpt lat="37.146843" lon="22.0277738"><ele>38.0</ele><time>2026-04-30T07:47:16.884Z</time></trkpt><trkpt lat="37.1470409" lon="22.0276924"><ele>38.0</ele><time>2026-04-30T07:47:17.883Z</time></trkpt><trkpt lat="37.1472379" lon="22.027608"><ele>38.0</ele><time>2026-04-30T07:47:18.884Z</time></trkpt><trkpt lat="37.147429" lon="22.0275285"><ele>38.0</ele><time>2026-04-30T07:47:19.884Z</time></trkpt><trkpt lat="37.1476295" lon="22.0274428"><ele>38.0</ele><time>2026-04-30T07:47:20.883Z</time></trkpt><trkpt lat="37.1478207" lon="22.0273577"><ele>38.0</ele><time>2026-04-30T07:47:21.884Z</time></trkpt><trkpt lat="37.1480096" lon="22.0272776"><ele>38.0</ele><time>2026-04-30T07:47:22.883Z</time></trkpt><trkpt lat="37.1481977" lon="22.0271995"><ele>38.0</ele><time>2026-04-30T07:47:23.884Z</time></trkpt><trkpt lat="37.1483843" lon="22.0271278"><ele>38.0</ele><time>2026-04-30T07:47:24.884Z</time></trkpt><trkpt lat="37.1485702" lon="22.0270573"><ele>38.0</ele><time>2026-04-30T07:47:25.884Z</time></trkpt><trkpt lat="37.1487559" lon="22.0269931"><ele>38.0</ele><time>2026-04-30T07:47:26.883Z</time></trkpt><trkpt lat="37.148937" lon="22.0269448"><ele>38.0</ele><time>2026-04-30T07:47:27.883Z</time></trkpt><trkpt lat="37.1491317" lon="22.0269123"><ele>38.0</ele><time>2026-04-30T07:47:28.883Z</time></trkpt><trkpt lat="37.1493253" lon="22.0268986"><ele>38.0</ele><time>2026-04-30T07:47:29.884Z</time></trkpt><trkpt lat="37.1495257" lon="22.0268988"><ele>38.0</ele><time>2026-04-30T07:47:30.883Z</time></trkpt><trkpt lat="37.1497295" lon="22.0269071"><ele>38.33333333333333</ele><time>2026-04-30T07:47:31.884Z</time></trkpt><trkpt lat="37.1499348" lon="22.0269177"><ele>38.666666666666664</ele><time>2026-04-30T07:47:32.883Z</time></trkpt><trkpt lat="37.1501385" lon="22.0269305"><ele>39.0</ele><time>2026-04-30T07:47:33.883Z</time></trkpt><trkpt lat="37.1503426" lon="22.0269421"><ele>39.0</ele><time>2026-04-30T07:47:34.884Z</time></trkpt><trkpt lat="37.1505387" lon="22.0269555"><ele>39.0</ele><time>2026-04-30T07:47:35.884Z</time></trkpt><trkpt lat="37.1507432" lon="22.0269715"><ele>39.0</ele><time>2026-04-30T07:47:36.884Z</time></trkpt><trkpt lat="37.1509417" lon="22.0269863"><ele>39.0</ele><time>2026-04-30T07:47:37.883Z</time></trkpt><trkpt lat="37.1511388" lon="22.0269995"><ele>39.0</ele><time>2026-04-30T07:47:38.883Z</time></trkpt><trkpt lat="37.1513302" lon="22.0270129"><ele>39.0</ele><time>2026-04-30T07:47:39.884Z</time></trkpt><trkpt lat="37.1515046" lon="22.0270258"><ele>39.0</ele><time>2026-04-30T07:47:40.883Z</time></trkpt><trkpt lat="37.1516744" lon="22.027038"><ele>39.0</ele><time>2026-04-30T07:47:41.883Z</time></trkpt><trkpt lat="37.1518366" lon="22.0270462"><ele>39.0</ele><time>2026-04-30T07:47:42.884Z</time></trkpt><trkpt lat="37.1519871" lon="22.0270553"><ele>39.0</ele><time>2026-04-30T07:47:43.883Z</time></trkpt><trkpt lat="37.152145" lon="22.0270641"><ele>39.0</ele><time>2026-04-30T07:47:44.884Z</time></trkpt><trkpt lat="37.152292" lon="22.0270727"><ele>39.0</ele><time>2026-04-30T07:47:45.884Z</time></trkpt><trkpt lat="37.1524331" lon="22.027081"><ele>39.0</ele><time>2026-04-30T07:47:46.883Z</time></trkpt><trkpt lat="37.1525677" lon="22.0270889"><ele>39.25</ele><time>2026-04-30T07:47:47.884Z</time></trkpt><trkpt lat="37.1526952" lon="22.0270962"><ele>39.5</ele><time>2026-04-30T07:47:48.884Z</time></trkpt><trkpt lat="37.1528179" lon="22.0271046"><ele>39.75</ele><time>2026-04-30T07:47:49.883Z</time></trkpt><trkpt lat="37.1529304" lon="22.0271093"><ele>40.0</ele><time>2026-04-30T07:47:50.883Z</time></trkpt><trkpt lat="37.1530267" lon="22.0271139"><ele>40.0</ele><time>2026-04-30T07:47:51.884Z</time></trkpt><trkpt lat="37.1531213" lon="22.0271185"><ele>40.0</ele><time>2026-04-30T07:47:52.884Z</time></trkpt><trkpt lat="37.1532092" lon="22.0271202"><ele>40.0</ele><time>2026-04-30T07:47:53.884Z</time></trkpt><trkpt lat="37.1532955" lon="22.0271242"><ele>40.0</ele><time>2026-04-30T07:47:54.884Z</time></trkpt><trkpt lat="37.1533892" lon="22.0271286"><ele>40.0</ele><time>2026-04-30T07:47:55.884Z</time></trkpt><trkpt lat="37.153492" lon="22.0271327"><ele>40.0</ele><time>2026-04-30T07:47:56.883Z</time></trkpt><trkpt lat="37.153603" lon="22.027136"><ele>40.0</ele><time>2026-04-30T07:47:57.884Z</time></trkpt><trkpt lat="37.1537151" lon="22.0271395"><ele>40.0</ele><time>2026-04-30T07:47:58.883Z</time></trkpt><trkpt lat="37.1538189" lon="22.027143"><ele>40.0</ele><time>2026-04-30T07:47:59.884Z</time></trkpt><trkpt lat="37.1539244" lon="22.0271464"><ele>40.0</ele><time>2026-04-30T07:48:00.884Z</time></trkpt><trkpt lat="37.1540253" lon="22.0271525"><ele>39.75</ele><time>2026-04-30T07:48:01.883Z</time></trkpt><trkpt lat="37.1541298" lon="22.0271582"><ele>39.5</ele><time>2026-04-30T07:48:02.884Z</time></trkpt><trkpt lat="37.1542393" lon="22.0271648"><ele>39.25</ele><time>2026-04-30T07:48:03.883Z</time></trkpt><trkpt lat="37.1543561" lon="22.027173"><ele>39.0</ele><time>2026-04-30T07:48:04.884Z</time></trkpt><trkpt lat="37.1544787" lon="22.0271807"><ele>39.0</ele><time>2026-04-30T07:48:05.883Z</time></trkpt><trkpt lat="37.1546029" lon="22.0271884"><ele>39.0</ele><time>2026-04-30T07:48:06.884Z</time></trkpt><trkpt lat="37.1547288" lon="22.027194"><ele>39.0</ele><time>2026-04-30T07:48:07.884Z</time></trkpt><trkpt lat="37.1548645" lon="22.0272009"><ele>39.0</ele><time>2026-04-30T07:48:08.883Z</time></trkpt><trkpt lat="37.1549985" lon="22.027206"><ele>38.75</ele><time>2026-04-30T07:48:09.884Z</time></trkpt><trkpt lat="37.1551351" lon="22.0272115"><ele>38.5</ele><time>2026-04-30T07:48:10.884Z</time></trkpt><trkpt lat="37.1552709" lon="22.0272166"><ele>38.25</ele><time>2026-04-30T07:48:11.884Z</time></trkpt><trkpt lat="37.1554053" lon="22.0272222"><ele>38.0</ele><time>2026-04-30T07:48:12.883Z</time></trkpt><trkpt lat="37.1555385" lon="22.027228"><ele>38.0</ele><time>2026-04-30T07:48:13.884Z</time></trkpt><trkpt lat="37.1556699" lon="22.0272363"><ele>38.0</ele><time>2026-04-30T07:48:14.884Z</time></trkpt><trkpt lat="37.1557966" lon="22.0272452"><ele>38.0</ele><time>2026-04-30T07:48:15.884Z</time></trkpt><trkpt lat="37.1559312" lon="22.0272543"><ele>38.0</ele><time>2026-04-30T07:48:16.883Z</time></trkpt><trkpt lat="37.1560599" lon="22.027264"><ele>37.75</ele><time>2026-04-30T07:48:17.884Z</time></trkpt><trkpt lat="37.1561897" lon="22.02727"><ele>37.5</ele><time>2026-04-30T07:48:18.884Z</time></trkpt><trkpt lat="37.156315" lon="22.0272776"><ele>37.25</ele><time>2026-04-30T07:48:19.884Z</time></trkpt><trkpt lat="37.1564359" lon="22.0272843"><ele>37.0</ele><time>2026-04-30T07:48:20.883Z</time></trkpt><trkpt lat="37.1565537" lon="22.027291"><ele>37.5</ele><time>2026-04-30T07:48:21.884Z</time></trkpt><trkpt lat="37.1566712" lon="22.0272955"><ele>38.0</ele><time>2026-04-30T07:48:22.884Z</time></trkpt><trkpt lat="37.1567849" lon="22.0272966"><ele>38.5</ele><time>2026-04-30T07:48:23.884Z</time></trkpt><trkpt lat="37.1569093" lon="22.0272919"><ele>39.0</ele><time>2026-04-30T07:48:24.883Z</time></trkpt><trkpt lat="37.1570351" lon="22.0272805"><ele>39.0</ele><time>2026-04-30T07:48:25.884Z</time></trkpt><trkpt lat="37.1571694" lon="22.0272659"><ele>39.0</ele><time>2026-04-30T07:48:26.883Z</time></trkpt><trkpt lat="37.1573156" lon="22.0272458"><ele>39.0</ele><time>2026-04-30T07:48:27.884Z</time></trkpt><trkpt lat="37.1574736" lon="22.0272236"><ele>39.0</ele><time>2026-04-30T07:48:28.883Z</time></trkpt><trkpt lat="37.157647" lon="22.0271953"><ele>38.666666666666664</ele><time>2026-04-30T07:48:29.884Z</time></trkpt><trkpt lat="37.1578296" lon="22.0271612"><ele>38.33333333333333</ele><time>2026-04-30T07:48:30.884Z</time></trkpt><trkpt lat="37.1580148" lon="22.0271233"><ele>38.0</ele><time>2026-04-30T07:48:31.883Z</time></trkpt><trkpt lat="37.1582308" lon="22.0270767"><ele>37.5</ele><time>2026-04-30T07:48:32.883Z</time></trkpt><trkpt lat="37.1584577" lon="22.0270279"><ele>37.0</ele><time>2026-04-30T07:48:33.883Z</time></trkpt><trkpt lat="37.1586911" lon="22.0269815"><ele>37.0</ele><time>2026-04-30T07:48:34.884Z</time></trkpt><trkpt lat="37.1589219" lon="22.0269283"><ele>37.0</ele><time>2026-04-30T07:48:35.884Z</time></trkpt><trkpt lat="37.1591416" lon="22.0268842"><ele>36.333333333333336</ele><time>2026-04-30T07:48:36.884Z</time></trkpt><trkpt lat="37.1593515" lon="22.0268457"><ele>35.666666666666664</ele><time>2026-04-30T07:48:37.883Z</time></trkpt><trkpt lat="37.1595491" lon="22.0268132"><ele>35.0</ele><time>2026-04-30T07:48:38.884Z</time></trkpt><trkpt lat="37.1597361" lon="22.0267792"><ele>34.666666666666664</ele><time>2026-04-30T07:48:39.884Z</time></trkpt><trkpt lat="37.1599317" lon="22.0267399"><ele>34.333333333333336</ele><time>2026-04-30T07:48:40.884Z</time></trkpt><trkpt lat="37.1601213" lon="22.0267017"><ele>34.0</ele><time>2026-04-30T07:48:41.883Z</time></trkpt><trkpt lat="37.1603135" lon="22.0266617"><ele>33.66666666666667</ele><time>2026-04-30T07:48:42.884Z</time></trkpt><trkpt lat="37.1605103" lon="22.0266176"><ele>33.333333333333336</ele><time>2026-04-30T07:48:43.884Z</time></trkpt><trkpt lat="37.160707" lon="22.026578"><ele>33.0</ele><time>2026-04-30T07:48:44.883Z</time></trkpt><trkpt lat="37.1609039" lon="22.0265381"><ele>32.666666666666664</ele><time>2026-04-30T07:48:45.884Z</time></trkpt><trkpt lat="37.1611037" lon="22.0264936"><ele>32.33333333333333</ele><time>2026-04-30T07:48:46.884Z</time></trkpt><trkpt lat="37.1613003" lon="22.0264488"><ele>32.0</ele><time>2026-04-30T07:48:47.884Z</time></trkpt><trkpt lat="37.1615084" lon="22.0264001"><ele>31.0</ele><time>2026-04-30T07:48:48.884Z</time></trkpt><trkpt lat="37.1617093" lon="22.0263454"><ele>30.0</ele><time>2026-04-30T07:48:49.883Z</time></trkpt><trkpt lat="37.161909" lon="22.0262861"><ele>29.0</ele><time>2026-04-30T07:48:50.883Z</time></trkpt><trkpt lat="37.1621067" lon="22.0262245"><ele>29.0</ele><time>2026-04-30T07:48:51.883Z</time></trkpt><trkpt lat="37.1623049" lon="22.0261579"><ele>29.0</ele><time>2026-04-30T07:48:52.884Z</time></trkpt><trkpt lat="37.1625013" lon="22.0260932"><ele>29.0</ele><time>2026-04-30T07:48:53.883Z</time></trkpt><trkpt lat="37.162697" lon="22.0260299"><ele>28.666666666666664</ele><time>2026-04-30T07:48:54.883Z</time></trkpt><trkpt lat="37.162883" lon="22.0259676"><ele>28.333333333333336</ele><time>2026-04-30T07:48:55.884Z</time></trkpt><trkpt lat="37.1630774" lon="22.0259047"><ele>28.0</ele><time>2026-04-30T07:48:56.883Z</time></trkpt><trkpt lat="37.1632646" lon="22.0258462"><ele>28.0</ele><time>2026-04-30T07:48:57.884Z</time></trkpt><trkpt lat="37.1634487" lon="22.0257952"><ele>28.0</ele><time>2026-04-30T07:48:58.884Z</time></trkpt><trkpt lat="37.1636361" lon="22.0257596"><ele>28.0</ele><time>2026-04-30T07:48:59.884Z</time></trkpt><trkpt lat="37.1638264" lon="22.0257485"><ele>28.0</ele><time>2026-04-30T07:49:00.884Z</time></trkpt><trkpt lat="37.1640201" lon="22.0257525"><ele>28.0</ele><time>2026-04-30T07:49:01.884Z</time></trkpt><trkpt lat="37.1642162" lon="22.0257747"><ele>28.0</ele><time>2026-04-30T07:49:02.884Z</time></trkpt><trkpt lat="37.1644085" lon="22.02581"><ele>27.333333333333336</ele><time>2026-04-30T07:49:03.884Z</time></trkpt><trkpt lat="37.1646129" lon="22.0258503"><ele>26.666666666666664</ele><time>2026-04-30T07:49:04.884Z</time></trkpt><trkpt lat="37.1648084" lon="22.0259027"><ele>26.0</ele><time>2026-04-30T07:49:05.884Z</time></trkpt><trkpt lat="37.165002" lon="22.0259566"><ele>25.666666666666664</ele><time>2026-04-30T07:49:06.883Z</time></trkpt><trkpt lat="37.1651961" lon="22.0260014"><ele>25.333333333333336</ele><time>2026-04-30T07:49:07.884Z</time></trkpt><trkpt lat="37.1653826" lon="22.0260568"><ele>25.0</ele><time>2026-04-30T07:49:08.883Z</time></trkpt><trkpt lat="37.1655649" lon="22.0261112"><ele>24.666666666666668</ele><time>2026-04-30T07:49:09.884Z</time></trkpt><trkpt lat="37.1657476" lon="22.026165"><ele>24.333333333333336</ele><time>2026-04-30T07:49:10.883Z</time></trkpt><trkpt lat="37.1659207" lon="22.0262158"><ele>24.0</ele><time>2026-04-30T07:49:11.883Z</time></trkpt><trkpt lat="37.166103" lon="22.0262758"><ele>24.0</ele><time>2026-04-30T07:49:12.884Z</time></trkpt><trkpt lat="37.1662792" lon="22.0263283"><ele>24.0</ele><time>2026-04-30T07:49:13.884Z</time></trkpt><trkpt lat="37.1664536" lon="22.0263785"><ele>24.0</ele><time>2026-04-30T07:49:14.884Z</time></trkpt><trkpt lat="37.1666263" lon="22.0264319"><ele>23.666666666666668</ele><time>2026-04-30T07:49:15.884Z</time></trkpt><trkpt lat="37.1667957" lon="22.0264839"><ele>23.333333333333336</ele><time>2026-04-30T07:49:16.884Z</time></trkpt><trkpt lat="37.1669612" lon="22.0265338"><ele>23.0</ele><time>2026-04-30T07:49:17.884Z</time></trkpt><trkpt lat="37.1671244" lon="22.0265818"><ele>23.0</ele><time>2026-04-30T07:49:18.883Z</time></trkpt><trkpt lat="37.167278" lon="22.0266213"><ele>23.0</ele><time>2026-04-30T07:49:19.883Z</time></trkpt><trkpt lat="37.1674345" lon="22.0266566"><ele>23.0</ele><time>2026-04-30T07:49:20.883Z</time></trkpt><trkpt lat="37.1675798" lon="22.0266738"><ele>23.0</ele><time>2026-04-30T07:49:21.884Z</time></trkpt><trkpt lat="37.1677202" lon="22.026666"><ele>23.0</ele><time>2026-04-30T07:49:22.883Z</time></trkpt><trkpt lat="37.1678559" lon="22.0266265"><ele>23.0</ele><time>2026-04-30T07:49:23.884Z</time></trkpt><trkpt lat="37.1679876" lon="22.0265746"><ele>23.0</ele><time>2026-04-30T07:49:24.884Z</time></trkpt><trkpt lat="37.1681192" lon="22.026509"><ele>21.75</ele><time>2026-04-30T07:49:25.884Z</time></trkpt><trkpt lat="37.1682512" lon="22.0264417"><ele>20.5</ele><time>2026-04-30T07:49:26.884Z</time></trkpt><trkpt lat="37.1683837" lon="22.026377"><ele>19.25</ele><time>2026-04-30T07:49:27.884Z</time></trkpt><trkpt lat="37.1685313" lon="22.0263229"><ele>18.0</ele><time>2026-04-30T07:49:28.884Z</time></trkpt><trkpt lat="37.1686794" lon="22.0262722"><ele>18.0</ele><time>2026-04-30T07:49:29.883Z</time></trkpt><trkpt lat="37.1688249" lon="22.0262071"><ele>18.0</ele><time>2026-04-30T07:49:30.884Z</time></trkpt><trkpt lat="37.1689645" lon="22.0261383"><ele>18.0</ele><time>2026-04-30T07:49:31.883Z</time></trkpt><trkpt lat="37.1691018" lon="22.0260639"><ele>19.0</ele><time>2026-04-30T07:49:32.883Z</time></trkpt><trkpt lat="37.169237" lon="22.0259852"><ele>20.0</ele><time>2026-04-30T07:49:33.883Z</time></trkpt><trkpt lat="37.1693751" lon="22.0259045"><ele>21.0</ele><time>2026-04-30T07:49:34.884Z</time></trkpt><trkpt lat="37.1695114" lon="22.0258233"><ele>20.0</ele><time>2026-04-30T07:49:35.884Z</time></trkpt><trkpt lat="37.1696622" lon="22.025736"><ele>19.0</ele><time>2026-04-30T07:49:36.884Z</time></trkpt><trkpt lat="37.1698119" lon="22.0256455"><ele>18.0</ele><time>2026-04-30T07:49:37.883Z</time></trkpt><trkpt lat="37.1699632" lon="22.025552"><ele>18.0</ele><time>2026-04-30T07:49:38.884Z</time></trkpt><trkpt lat="37.1701145" lon="22.0254533"><ele>18.0</ele><time>2026-04-30T07:49:39.884Z</time></trkpt><trkpt lat="37.170262" lon="22.025344"><ele>18.0</ele><time>2026-04-30T07:49:40.884Z</time></trkpt><trkpt lat="37.1704001" lon="22.0252182"><ele>18.0</ele><time>2026-04-30T07:49:41.884Z</time></trkpt><trkpt lat="37.1705304" lon="22.0250767"><ele>18.0</ele><time>2026-04-30T07:49:42.884Z</time></trkpt><trkpt lat="37.1706549" lon="22.0249307"><ele>18.0</ele><time>2026-04-30T07:49:43.883Z</time></trkpt><trkpt lat="37.1707853" lon="22.0247669"><ele>21.0</ele><time>2026-04-30T07:49:44.884Z</time></trkpt><trkpt lat="37.1709091" lon="22.0246"><ele>24.0</ele><time>2026-04-30T07:49:45.883Z</time></trkpt><trkpt lat="37.1710287" lon="22.0244188"><ele>27.0</ele><time>2026-04-30T07:49:46.883Z</time></trkpt><trkpt lat="37.1711391" lon="22.0242252"><ele>27.0</ele><time>2026-04-30T07:49:47.884Z</time></trkpt><trkpt lat="37.171247" lon="22.0240154"><ele>27.0</ele><time>2026-04-30T07:49:48.884Z</time></trkpt><trkpt lat="37.171354" lon="22.0238016"><ele>27.0</ele><time>2026-04-30T07:49:49.883Z</time></trkpt><trkpt lat="37.1714612" lon="22.0235872"><ele>25.333333333333332</ele><time>2026-04-30T07:49:50.884Z</time></trkpt><trkpt lat="37.1715698" lon="22.0233926"><ele>23.666666666666664</ele><time>2026-04-30T07:49:51.883Z</time></trkpt><trkpt lat="37.171691" lon="22.0231856"><ele>22.0</ele><time>2026-04-30T07:49:52.884Z</time></trkpt><trkpt lat="37.1718187" lon="22.0229934"><ele>22.0</ele><time>2026-04-30T07:49:53.883Z</time></trkpt><trkpt lat="37.1719554" lon="22.022808"><ele>22.0</ele><time>2026-04-30T07:49:54.883Z</time></trkpt><trkpt lat="37.1721014" lon="22.0226271"><ele>22.0</ele><time>2026-04-30T07:49:55.884Z</time></trkpt><trkpt lat="37.1722532" lon="22.0224466"><ele>22.666666666666664</ele><time>2026-04-30T07:49:56.883Z</time></trkpt><trkpt lat="37.1724086" lon="22.0222649"><ele>23.333333333333332</ele><time>2026-04-30T07:49:57.884Z</time></trkpt><trkpt lat="37.1725632" lon="22.0220899"><ele>24.0</ele><time>2026-04-30T07:49:58.884Z</time></trkpt><trkpt lat="37.172715" lon="22.021925"><ele>24.0</ele><time>2026-04-30T07:49:59.883Z</time></trkpt><trkpt lat="37.172881" lon="22.0217503"><ele>24.0</ele><time>2026-04-30T07:50:00.884Z</time></trkpt><trkpt lat="37.1730476" lon="22.021589"><ele>24.0</ele><time>2026-04-30T07:50:01.884Z</time></trkpt><trkpt lat="37.1732148" lon="22.0214325"><ele>23.333333333333332</ele><time>2026-04-30T07:50:02.883Z</time></trkpt><trkpt lat="37.1733807" lon="22.0212799"><ele>22.666666666666664</ele><time>2026-04-30T07:50:03.883Z</time></trkpt><trkpt lat="37.1735415" lon="22.0211314"><ele>22.0</ele><time>2026-04-30T07:50:04.884Z</time></trkpt><trkpt lat="37.1736982" lon="22.0209932"><ele>22.0</ele><time>2026-04-30T07:50:05.883Z</time></trkpt><trkpt lat="37.1738528" lon="22.0208616"><ele>22.0</ele><time>2026-04-30T07:50:06.884Z</time></trkpt><trkpt lat="37.1740122" lon="22.0207461"><ele>22.0</ele><time>2026-04-30T07:50:07.884Z</time></trkpt><trkpt lat="37.1741892" lon="22.0206312"><ele>21.0</ele><time>2026-04-30T07:50:08.884Z</time></trkpt><trkpt lat="37.1743682" lon="22.0205241"><ele>20.0</ele><time>2026-04-30T07:50:09.884Z</time></trkpt><trkpt lat="37.1745552" lon="22.0204209"><ele>19.0</ele><time>2026-04-30T07:50:10.883Z</time></trkpt><trkpt lat="37.1747477" lon="22.0203146"><ele>20.0</ele><time>2026-04-30T07:50:11.884Z</time></trkpt><trkpt lat="37.1749382" lon="22.0202108"><ele>21.0</ele><time>2026-04-30T07:50:12.884Z</time></trkpt><trkpt lat="37.1751277" lon="22.0201064"><ele>22.0</ele><time>2026-04-30T07:50:13.883Z</time></trkpt><trkpt lat="37.1753223" lon="22.0200181"><ele>21.666666666666664</ele><time>2026-04-30T07:50:14.884Z</time></trkpt><trkpt lat="37.175512" lon="22.0199265"><ele>21.333333333333332</ele><time>2026-04-30T07:50:15.883Z</time></trkpt><trkpt lat="37.17572" lon="22.0198362"><ele>21.0</ele><time>2026-04-30T07:50:16.884Z</time></trkpt><trkpt lat="37.1759303" lon="22.0197573"><ele>21.0</ele><time>2026-04-30T07:50:17.884Z</time></trkpt><trkpt lat="37.1761477" lon="22.0196861"><ele>21.0</ele><time>2026-04-30T07:50:18.883Z</time></trkpt><trkpt lat="37.1763703" lon="22.0196241"><ele>21.0</ele><time>2026-04-30T07:50:19.883Z</time></trkpt><trkpt lat="37.1766001" lon="22.0195658"><ele>21.0</ele><time>2026-04-30T07:50:20.883Z</time></trkpt><trkpt lat="37.1768313" lon="22.0195076"><ele>21.0</ele><time>2026-04-30T07:50:21.883Z</time></trkpt><trkpt lat="37.1770655" lon="22.019442"><ele>21.0</ele><time>2026-04-30T07:50:22.884Z</time></trkpt><trkpt lat="37.1772901" lon="22.0193893"><ele>21.0</ele><time>2026-04-30T07:50:23.883Z</time></trkpt><trkpt lat="37.1775284" lon="22.019332"><ele>21.0</ele><time>2026-04-30T07:50:24.883Z</time></trkpt><trkpt lat="37.177758" lon="22.0192797"><ele>21.0</ele><time>2026-04-30T07:50:25.883Z</time></trkpt><trkpt lat="37.1779873" lon="22.0192261"><ele>21.0</ele><time>2026-04-30T07:50:26.884Z</time></trkpt><trkpt lat="37.1782145" lon="22.0191727"><ele>21.5</ele><time>2026-04-30T07:50:27.884Z</time></trkpt><trkpt lat="37.1784404" lon="22.0191156"><ele>22.0</ele><time>2026-04-30T07:50:28.884Z</time></trkpt><trkpt lat="37.1786645" lon="22.019062"><ele>22.0</ele><time>2026-04-30T07:50:29.884Z</time></trkpt><trkpt lat="37.1788871" lon="22.0190098"><ele>22.0</ele><time>2026-04-30T07:50:30.883Z</time></trkpt><trkpt lat="37.1790997" lon="22.0189639"><ele>22.0</ele><time>2026-04-30T07:50:31.883Z</time></trkpt><trkpt lat="37.1793292" lon="22.0189082"><ele>22.5</ele><time>2026-04-30T07:50:32.884Z</time></trkpt><trkpt lat="37.1795513" lon="22.0188563"><ele>23.0</ele><time>2026-04-30T07:50:33.884Z</time></trkpt><trkpt lat="37.1797743" lon="22.0188015"><ele>24.5</ele><time>2026-04-30T07:50:34.883Z</time></trkpt><trkpt lat="37.1799978" lon="22.0187511"><ele>26.0</ele><time>2026-04-30T07:50:35.884Z</time></trkpt><trkpt lat="37.1802223" lon="22.0186976"><ele>26.0</ele><time>2026-04-30T07:50:36.884Z</time></trkpt><trkpt lat="37.1804485" lon="22.0186483"><ele>26.0</ele><time>2026-04-30T07:50:37.883Z</time></trkpt><trkpt lat="37.1806785" lon="22.0185897"><ele>27.5</ele><time>2026-04-30T07:50:38.883Z</time></trkpt><trkpt lat="37.1809005" lon="22.0185384"><ele>29.0</ele><time>2026-04-30T07:50:39.884Z</time></trkpt><trkpt lat="37.1811387" lon="22.0184867"><ele>29.0</ele><time>2026-04-30T07:50:40.884Z</time></trkpt><trkpt lat="37.1813715" lon="22.0184367"><ele>29.0</ele><time>2026-04-30T07:50:41.884Z</time></trkpt><trkpt lat="37.1816055" lon="22.0183805"><ele>29.5</ele><time>2026-04-30T07:50:42.883Z</time></trkpt><trkpt lat="37.1818415" lon="22.0183249"><ele>30.0</ele><time>2026-04-30T07:50:43.883Z</time></trkpt><trkpt lat="37.1820749" lon="22.0182695"><ele>30.0</ele><time>2026-04-30T07:50:44.884Z</time></trkpt><trkpt lat="37.1823053" lon="22.0182133"><ele>30.0</ele><time>2026-04-30T07:50:45.884Z</time></trkpt><trkpt lat="37.1825335" lon="22.0181609"><ele>31.333333333333336</ele><time>2026-04-30T07:50:46.884Z</time></trkpt><trkpt lat="37.1827494" lon="22.0181102"><ele>32.66666666666667</ele><time>2026-04-30T07:50:47.884Z</time></trkpt><trkpt lat="37.182972" lon="22.0180582"><ele>34.0</ele><time>2026-04-30T07:50:48.883Z</time></trkpt><trkpt lat="37.1831789" lon="22.0180109"><ele>35.333333333333336</ele><time>2026-04-30T07:50:49.884Z</time></trkpt><trkpt lat="37.1833819" lon="22.0179662"><ele>36.666666666666664</ele><time>2026-04-30T07:50:50.883Z</time></trkpt><trkpt lat="37.183586" lon="22.0179395"><ele>38.0</ele><time>2026-04-30T07:50:51.883Z</time></trkpt><trkpt lat="37.1837963" lon="22.0179324"><ele>38.33333333333333</ele><time>2026-04-30T07:50:52.884Z</time></trkpt><trkpt lat="37.1840153" lon="22.0179265"><ele>38.666666666666664</ele><time>2026-04-30T07:50:53.884Z</time></trkpt><trkpt lat="37.1842395" lon="22.0179256"><ele>39.0</ele><time>2026-04-30T07:50:54.883Z</time></trkpt><trkpt lat="37.1844592" lon="22.0179294"><ele>39.0</ele><time>2026-04-30T07:50:55.884Z</time></trkpt><trkpt lat="37.1846958" lon="22.0179262"><ele>39.0</ele><time>2026-04-30T07:50:56.883Z</time></trkpt><trkpt lat="37.1849266" lon="22.0179203"><ele>39.0</ele><time>2026-04-30T07:50:57.883Z</time></trkpt><trkpt lat="37.1851567" lon="22.0179135"><ele>39.0</ele><time>2026-04-30T07:50:58.883Z</time></trkpt><trkpt lat="37.1853883" lon="22.0178982"><ele>39.0</ele><time>2026-04-30T07:50:59.883Z</time></trkpt><trkpt lat="37.1856199" lon="22.0178794"><ele>39.0</ele><time>2026-04-30T07:51:00.883Z</time></trkpt><trkpt lat="37.1858498" lon="22.0178591"><ele>40.5</ele><time>2026-04-30T07:51:01.883Z</time></trkpt><trkpt lat="37.1860791" lon="22.0178368"><ele>42.0</ele><time>2026-04-30T07:51:02.883Z</time></trkpt><trkpt lat="37.1862992" lon="22.0178151"><ele>43.5</ele><time>2026-04-30T07:51:03.883Z</time></trkpt><trkpt lat="37.1865311" lon="22.0178022"><ele>45.0</ele><time>2026-04-30T07:51:04.883Z</time></trkpt><trkpt lat="37.1867539" lon="22.0177996"><ele>45.0</ele><time>2026-04-30T07:51:05.883Z</time></trkpt><trkpt lat="37.1869776" lon="22.0178161"><ele>45.0</ele><time>2026-04-30T07:51:06.884Z</time></trkpt><trkpt lat="37.1872012" lon="22.0178455"><ele>45.0</ele><time>2026-04-30T07:51:07.884Z</time></trkpt><trkpt lat="37.1874201" lon="22.0178838"><ele>47.0</ele><time>2026-04-30T07:51:08.883Z</time></trkpt><trkpt lat="37.1876368" lon="22.0179228"><ele>49.0</ele><time>2026-04-30T07:51:09.884Z</time></trkpt><trkpt lat="37.1878504" lon="22.017956"><ele>51.0</ele><time>2026-04-30T07:51:10.884Z</time></trkpt><trkpt lat="37.1880576" lon="22.0179787"><ele>52.66666666666667</ele><time>2026-04-30T07:51:11.883Z</time></trkpt><trkpt lat="37.1882795" lon="22.0179936"><ele>54.333333333333336</ele><time>2026-04-30T07:51:12.884Z</time></trkpt><trkpt lat="37.1884987" lon="22.0179988"><ele>56.0</ele><time>2026-04-30T07:51:13.883Z</time></trkpt><trkpt lat="37.188718" lon="22.0179982"><ele>56.0</ele><time>2026-04-30T07:51:14.884Z</time></trkpt><trkpt lat="37.1889384" lon="22.017993"><ele>56.0</ele><time>2026-04-30T07:51:15.883Z</time></trkpt><trkpt lat="37.1891583" lon="22.0179814"><ele>56.0</ele><time>2026-04-30T07:51:16.884Z</time></trkpt><trkpt lat="37.1893812" lon="22.0179591"><ele>58.0</ele><time>2026-04-30T07:51:17.883Z</time></trkpt><trkpt lat="37.1896048" lon="22.0179284"><ele>60.0</ele><time>2026-04-30T07:51:18.883Z</time></trkpt><trkpt lat="37.1898219" lon="22.0178896"><ele>62.0</ele><time>2026-04-30T07:51:19.884Z</time></trkpt><trkpt lat="37.1900496" lon="22.0178477"><ele>63.333333333333336</ele><time>2026-04-30T07:51:20.883Z</time></trkpt><trkpt lat="37.1902619" lon="22.0178071"><ele>64.66666666666667</ele><time>2026-04-30T07:51:21.883Z</time></trkpt><trkpt lat="37.1904602" lon="22.0177736"><ele>66.0</ele><time>2026-04-30T07:51:22.883Z</time></trkpt><trkpt lat="37.1906458" lon="22.0177402"><ele>67.0</ele><time>2026-04-30T07:51:23.883Z</time></trkpt><trkpt lat="37.1908207" lon="22.0177076"><ele>68.0</ele><time>2026-04-30T07:51:24.883Z</time></trkpt><trkpt lat="37.1909895" lon="22.0177062"><ele>69.0</ele><time>2026-04-30T07:51:25.883Z</time></trkpt><trkpt lat="37.1911553" lon="22.0177327"><ele>69.0</ele><time>2026-04-30T07:51:26.883Z</time></trkpt><trkpt lat="37.1913228" lon="22.0177817"><ele>69.0</ele><time>2026-04-30T07:51:27.883Z</time></trkpt><trkpt lat="37.1915005" lon="22.0178577"><ele>69.0</ele><time>2026-04-30T07:51:28.884Z</time></trkpt><trkpt lat="37.1916711" lon="22.0179406"><ele>68.33333333333333</ele><time>2026-04-30T07:51:29.884Z</time></trkpt><trkpt lat="37.1918476" lon="22.0180257"><ele>67.66666666666666</ele><time>2026-04-30T07:51:30.883Z</time></trkpt><trkpt lat="37.1920335" lon="22.0180897"><ele>67.0</ele><time>2026-04-30T07:51:31.884Z</time></trkpt><trkpt lat="37.1922025" lon="22.01815"><ele>67.66666666666666</ele><time>2026-04-30T07:51:32.884Z</time></trkpt><trkpt lat="37.1923679" lon="22.018189"><ele>68.33333333333333</ele><time>2026-04-30T07:51:33.884Z</time></trkpt><trkpt lat="37.192535" lon="22.018197"><ele>69.0</ele><time>2026-04-30T07:51:34.883Z</time></trkpt><trkpt lat="37.1927177" lon="22.0181741"><ele>69.0</ele><time>2026-04-30T07:51:35.884Z</time></trkpt><trkpt lat="37.1929113" lon="22.0181241"><ele>69.0</ele><time>2026-04-30T07:51:36.884Z</time></trkpt><trkpt lat="37.1931043" lon="22.0180605"><ele>69.0</ele><time>2026-04-30T07:51:37.883Z</time></trkpt><trkpt lat="37.1932952" lon="22.0179918"><ele>70.33333333333333</ele><time>2026-04-30T07:51:38.883Z</time></trkpt><trkpt lat="37.193502" lon="22.0179127"><ele>71.66666666666666</ele><time>2026-04-30T07:51:39.883Z</time></trkpt><trkpt lat="37.1937006" lon="22.0178328"><ele>73.0</ele><time>2026-04-30T07:51:40.884Z</time></trkpt><trkpt lat="37.1938983" lon="22.0177427"><ele>74.0</ele><time>2026-04-30T07:51:41.884Z</time></trkpt><trkpt lat="37.1940945" lon="22.0176469"><ele>75.0</ele><time>2026-04-30T07:51:42.883Z</time></trkpt><trkpt lat="37.1942956" lon="22.0175373"><ele>76.0</ele><time>2026-04-30T07:51:43.883Z</time></trkpt><trkpt lat="37.1945014" lon="22.0174153"><ele>76.0</ele><time>2026-04-30T07:51:44.884Z</time></trkpt><trkpt lat="37.1946991" lon="22.0172887"><ele>76.0</ele><time>2026-04-30T07:51:45.883Z</time></trkpt><trkpt lat="37.1948924" lon="22.0171585"><ele>76.0</ele><time>2026-04-30T07:51:46.884Z</time></trkpt><trkpt lat="37.195096" lon="22.0170228"><ele>77.66666666666666</ele><time>2026-04-30T07:51:47.883Z</time></trkpt><trkpt lat="37.1952924" lon="22.016896"><ele>79.33333333333333</ele><time>2026-04-30T07:51:48.884Z</time></trkpt><trkpt lat="37.1954914" lon="22.0167741"><ele>81.0</ele><time>2026-04-30T07:51:49.884Z</time></trkpt><trkpt lat="37.195684" lon="22.0166597"><ele>81.66666666666667</ele><time>2026-04-30T07:51:50.883Z</time></trkpt><trkpt lat="37.1958821" lon="22.0165415"><ele>82.33333333333334</ele><time>2026-04-30T07:51:51.883Z</time></trkpt><trkpt lat="37.1960861" lon="22.0164185"><ele>83.0</ele><time>2026-04-30T07:51:52.883Z</time></trkpt><trkpt lat="37.1962867" lon="22.0163025"><ele>83.0</ele><time>2026-04-30T07:51:53.884Z</time></trkpt><trkpt lat="37.1964779" lon="22.0161926"><ele>83.0</ele><time>2026-04-30T07:51:54.884Z</time></trkpt><trkpt lat="37.1966812" lon="22.0160704"><ele>83.0</ele><time>2026-04-30T07:51:55.884Z</time></trkpt><trkpt lat="37.1968763" lon="22.0159513"><ele>83.33333333333334</ele><time>2026-04-30T07:51:56.884Z</time></trkpt><trkpt lat="37.1970674" lon="22.0158306"><ele>83.66666666666667</ele><time>2026-04-30T07:51:57.884Z</time></trkpt><trkpt lat="37.197245" lon="22.0157039"><ele>84.0</ele><time>2026-04-30T07:51:58.884Z</time></trkpt><trkpt lat="37.1974173" lon="22.0155571"><ele>85.0</ele><time>2026-04-30T07:51:59.883Z</time></trkpt><trkpt lat="37.1975823" lon="22.0153843"><ele>86.0</ele><time>2026-04-30T07:52:00.884Z</time></trkpt><trkpt lat="37.1977356" lon="22.0152002"><ele>87.0</ele><time>2026-04-30T07:52:01.883Z</time></trkpt><trkpt lat="37.1978792" lon="22.0150162"><ele>87.66666666666667</ele><time>2026-04-30T07:52:02.884Z</time></trkpt><trkpt lat="37.1980316" lon="22.0148204"><ele>88.33333333333334</ele><time>2026-04-30T07:52:03.884Z</time></trkpt><trkpt lat="37.1981768" lon="22.0146314"><ele>89.0</ele><time>2026-04-30T07:52:04.883Z</time></trkpt><trkpt lat="37.1983205" lon="22.0144419"><ele>89.0</ele><time>2026-04-30T07:52:05.884Z</time></trkpt><trkpt lat="37.1984586" lon="22.0142592"><ele>89.0</ele><time>2026-04-30T07:52:06.883Z</time></trkpt><trkpt lat="37.1985852" lon="22.0140937"><ele>89.0</ele><time>2026-04-30T07:52:07.883Z</time></trkpt><trkpt lat="37.1987091" lon="22.0139261"><ele>89.0</ele><time>2026-04-30T07:52:08.884Z</time></trkpt><trkpt lat="37.1988144" lon="22.0137617"><ele>89.0</ele><time>2026-04-30T07:52:09.884Z</time></trkpt><trkpt lat="37.1989021" lon="22.0135814"><ele>89.0</ele><time>2026-04-30T07:52:10.884Z</time></trkpt><trkpt lat="37.1989663" lon="22.013383"><ele>90.0</ele><time>2026-04-30T07:52:11.883Z</time></trkpt><trkpt lat="37.1990115" lon="22.0131698"><ele>91.0</ele><time>2026-04-30T07:52:12.884Z</time></trkpt><trkpt lat="37.1990479" lon="22.0129436"><ele>92.0</ele><time>2026-04-30T07:52:13.884Z</time></trkpt><trkpt lat="37.1990813" lon="22.0127118"><ele>92.33333333333334</ele><time>2026-04-30T07:52:14.884Z</time></trkpt><trkpt lat="37.1991118" lon="22.0124877"><ele>92.66666666666667</ele><time>2026-04-30T07:52:15.883Z</time></trkpt><trkpt lat="37.199145" lon="22.0122598"><ele>93.0</ele><time>2026-04-30T07:52:16.883Z</time></trkpt><trkpt lat="37.1991868" lon="22.0120556"><ele>93.0</ele><time>2026-04-30T07:52:17.883Z</time></trkpt><trkpt lat="37.1992596" lon="22.0118679"><ele>93.0</ele><time>2026-04-30T07:52:18.883Z</time></trkpt><trkpt lat="37.1993542" lon="22.0116865"><ele>93.0</ele><time>2026-04-30T07:52:19.883Z</time></trkpt><trkpt lat="37.1994542" lon="22.0115054"><ele>92.66666666666667</ele><time>2026-04-30T07:52:20.884Z</time></trkpt><trkpt lat="37.1995417" lon="22.0113159"><ele>92.33333333333334</ele><time>2026-04-30T07:52:21.883Z</time></trkpt><trkpt lat="37.1996163" lon="22.0111176"><ele>92.0</ele><time>2026-04-30T07:52:22.883Z</time></trkpt><trkpt lat="37.1996774" lon="22.0108858"><ele>90.66666666666667</ele><time>2026-04-30T07:52:23.884Z</time></trkpt><trkpt lat="37.1997355" lon="22.0106253"><ele>89.33333333333333</ele><time>2026-04-30T07:52:24.883Z</time></trkpt><trkpt lat="37.1997866" lon="22.0103757"><ele>88.0</ele><time>2026-04-30T07:52:25.884Z</time></trkpt><trkpt lat="37.1998286" lon="22.0101329"><ele>90.33333333333333</ele><time>2026-04-30T07:52:26.883Z</time></trkpt><trkpt lat="37.1998759" lon="22.0098753"><ele>92.66666666666667</ele><time>2026-04-30T07:52:27.883Z</time></trkpt><trkpt lat="37.1999189" lon="22.0096255"><ele>95.0</ele><time>2026-04-30T07:52:28.884Z</time></trkpt><trkpt lat="37.1999615" lon="22.0093823"><ele>97.0</ele><time>2026-04-30T07:52:29.884Z</time></trkpt><trkpt lat="37.1999963" lon="22.0091421"><ele>99.0</ele><time>2026-04-30T07:52:30.883Z</time></trkpt><trkpt lat="37.2000407" lon="22.0089031"><ele>101.0</ele><time>2026-04-30T07:52:31.884Z</time></trkpt><trkpt lat="37.2000855" lon="22.0086539"><ele>101.0</ele><time>2026-04-30T07:52:32.884Z</time></trkpt><trkpt lat="37.2001346" lon="22.0084355"><ele>101.0</ele><time>2026-04-30T07:52:33.883Z</time></trkpt><trkpt lat="37.2001946" lon="22.0082257"><ele>101.0</ele><time>2026-04-30T07:52:34.883Z</time></trkpt><trkpt lat="37.2002744" lon="22.0080274"><ele>102.33333333333333</ele><time>2026-04-30T07:52:35.883Z</time></trkpt><trkpt lat="37.2003718" lon="22.0078516"><ele>103.66666666666666</ele><time>2026-04-30T07:52:36.883Z</time></trkpt><trkpt lat="37.2004879" lon="22.0076906"><ele>105.0</ele><time>2026-04-30T07:52:37.883Z</time></trkpt><trkpt lat="37.2006108" lon="22.0075381"><ele>104.66666666666666</ele><time>2026-04-30T07:52:38.884Z</time></trkpt><trkpt lat="37.2007383" lon="22.0073863"><ele>104.33333333333333</ele><time>2026-04-30T07:52:39.883Z</time></trkpt><trkpt lat="37.2008778" lon="22.0072355"><ele>104.0</ele><time>2026-04-30T07:52:40.883Z</time></trkpt><trkpt lat="37.2010047" lon="22.0070942"><ele>104.0</ele><time>2026-04-30T07:52:41.883Z</time></trkpt><trkpt lat="37.2011456" lon="22.0069515"><ele>104.0</ele><time>2026-04-30T07:52:42.884Z</time></trkpt><trkpt lat="37.2013068" lon="22.0068195"><ele>104.0</ele><time>2026-04-30T07:52:43.884Z</time></trkpt><trkpt lat="37.2014703" lon="22.0066939"><ele>102.0</ele><time>2026-04-30T07:52:44.884Z</time></trkpt><trkpt lat="37.201638" lon="22.006569"><ele>100.0</ele><time>2026-04-30T07:52:45.883Z</time></trkpt><trkpt lat="37.2018025" lon="22.0064454"><ele>98.0</ele><time>2026-04-30T07:52:46.884Z</time></trkpt><trkpt lat="37.201974" lon="22.0063205"><ele>98.0</ele><time>2026-04-30T07:52:47.883Z</time></trkpt><trkpt lat="37.202152" lon="22.0061928"><ele>98.0</ele><time>2026-04-30T07:52:48.884Z</time></trkpt><trkpt lat="37.2023273" lon="22.0060719"><ele>98.0</ele><time>2026-04-30T07:52:49.884Z</time></trkpt><trkpt lat="37.2024966" lon="22.0059464"><ele>97.33333333333333</ele><time>2026-04-30T07:52:50.884Z</time></trkpt><trkpt lat="37.2026771" lon="22.0058032"><ele>96.66666666666666</ele><time>2026-04-30T07:52:51.883Z</time></trkpt><trkpt lat="37.2028467" lon="22.0056612"><ele>96.0</ele><time>2026-04-30T07:52:52.884Z</time></trkpt><trkpt lat="37.2030149" lon="22.0055269"><ele>96.0</ele><time>2026-04-30T07:52:53.883Z</time></trkpt><trkpt lat="37.2031905" lon="22.0053945"><ele>96.0</ele><time>2026-04-30T07:52:54.883Z</time></trkpt><trkpt lat="37.2033666" lon="22.0052614"><ele>96.0</ele><time>2026-04-30T07:52:55.884Z</time></trkpt><trkpt lat="37.2035498" lon="22.0051249"><ele>96.0</ele><time>2026-04-30T07:52:56.883Z</time></trkpt><trkpt lat="37.203721" lon="22.0050043"><ele>96.0</ele><time>2026-04-30T07:52:57.883Z</time></trkpt><trkpt lat="37.2038988" lon="22.0048826"><ele>96.0</ele><time>2026-04-30T07:52:58.884Z</time></trkpt><trkpt lat="37.2040911" lon="22.0047612"><ele>95.0</ele><time>2026-04-30T07:52:59.883Z</time></trkpt><trkpt lat="37.2042756" lon="22.0046508"><ele>94.0</ele><time>2026-04-30T07:53:00.883Z</time></trkpt><trkpt lat="37.2044604" lon="22.0045505"><ele>93.0</ele><time>2026-04-30T07:53:01.883Z</time></trkpt><trkpt lat="37.2046573" lon="22.0044528"><ele>92.33333333333333</ele><time>2026-04-30T07:53:02.883Z</time></trkpt><trkpt lat="37.2048637" lon="22.0043596"><ele>91.66666666666666</ele><time>2026-04-30T07:53:03.883Z</time></trkpt><trkpt lat="37.2050779" lon="22.0042729"><ele>91.0</ele><time>2026-04-30T07:53:04.884Z</time></trkpt><trkpt lat="37.2052811" lon="22.0041865"><ele>88.5</ele><time>2026-04-30T07:53:05.883Z</time></trkpt><trkpt lat="37.2054877" lon="22.0040898"><ele>86.0</ele><time>2026-04-30T07:53:06.884Z</time></trkpt><trkpt lat="37.2057011" lon="22.0039733"><ele>85.33333333333334</ele><time>2026-04-30T07:53:07.883Z</time></trkpt><trkpt lat="37.2059053" lon="22.0038506"><ele>84.66666666666667</ele><time>2026-04-30T07:53:08.884Z</time></trkpt><trkpt lat="37.2061042" lon="22.0037247"><ele>84.0</ele><time>2026-04-30T07:53:09.884Z</time></trkpt><trkpt lat="37.2063117" lon="22.0035938"><ele>82.5</ele><time>2026-04-30T07:53:10.884Z</time></trkpt><trkpt lat="37.2065244" lon="22.0034684"><ele>81.0</ele><time>2026-04-30T07:53:11.883Z</time></trkpt><trkpt lat="37.2067478" lon="22.0033572"><ele>79.5</ele><time>2026-04-30T07:53:12.884Z</time></trkpt><trkpt lat="37.2069669" lon="22.0032703"><ele>78.0</ele><time>2026-04-30T07:53:13.883Z</time></trkpt><trkpt lat="37.2071878" lon="22.0032025"><ele>76.5</ele><time>2026-04-30T07:53:14.884Z</time></trkpt><trkpt lat="37.2074218" lon="22.0031415"><ele>75.0</ele><time>2026-04-30T07:53:15.883Z</time></trkpt><trkpt lat="37.2076502" lon="22.0030846"><ele>75.0</ele><time>2026-04-30T07:53:16.883Z</time></trkpt><trkpt lat="37.2078741" lon="22.0030265"><ele>75.0</ele><time>2026-04-30T07:53:17.884Z</time></trkpt><trkpt lat="37.2081037" lon="22.0029661"><ele>74.0</ele><time>2026-04-30T07:53:18.884Z</time></trkpt><trkpt lat="37.2083368" lon="22.0029062"><ele>73.0</ele><time>2026-04-30T07:53:19.883Z</time></trkpt><trkpt lat="37.2085753" lon="22.0028408"><ele>73.0</ele><time>2026-04-30T07:53:20.884Z</time></trkpt><trkpt lat="37.2088029" lon="22.0027785"><ele>73.0</ele><time>2026-04-30T07:53:21.884Z</time></trkpt><trkpt lat="37.2090242" lon="22.0027165"><ele>72.33333333333333</ele><time>2026-04-30T07:53:22.883Z</time></trkpt><trkpt lat="37.2092512" lon="22.0026494"><ele>71.66666666666667</ele><time>2026-04-30T07:53:23.883Z</time></trkpt><trkpt lat="37.2094588" lon="22.0025866"><ele>71.0</ele><time>2026-04-30T07:53:24.883Z</time></trkpt><trkpt lat="37.2096494" lon="22.0025321"><ele>70.66666666666667</ele><time>2026-04-30T07:53:25.884Z</time></trkpt><trkpt lat="37.2098249" lon="22.0024835"><ele>70.33333333333333</ele><time>2026-04-30T07:53:26.883Z</time></trkpt><trkpt lat="37.2099891" lon="22.0024379"><ele>70.0</ele><time>2026-04-30T07:53:27.884Z</time></trkpt><trkpt lat="37.210138" lon="22.002399"><ele>70.0</ele><time>2026-04-30T07:53:28.883Z</time></trkpt><trkpt lat="37.2102632" lon="22.0023678"><ele>70.0</ele><time>2026-04-30T07:53:29.884Z</time></trkpt><trkpt lat="37.2103783" lon="22.0023425"><ele>70.0</ele><time>2026-04-30T07:53:30.884Z</time></trkpt><trkpt lat="37.2104797" lon="22.0023259"><ele>70.0</ele><time>2026-04-30T07:53:31.883Z</time></trkpt><trkpt lat="37.2105541" lon="22.0023258"><ele>70.0</ele><time>2026-04-30T07:53:32.883Z</time></trkpt><trkpt lat="37.2106585" lon="22.0023493"><ele>70.14285714285714</ele><time>2026-04-30T07:53:34.883Z</time></trkpt><trkpt lat="37.2107124" lon="22.0023942"><ele>70.28571428571428</ele><time>2026-04-30T07:53:36.883Z</time></trkpt><trkpt lat="37.2107724" lon="22.0024683"><ele>70.42857142857143</ele><time>2026-04-30T07:53:39.884Z</time></trkpt><trkpt lat="37.210815" lon="22.0025368"><ele>70.57142857142857</ele><time>2026-04-30T07:53:42.884Z</time></trkpt><trkpt lat="37.2108818" lon="22.0025737"><ele>70.71428571428571</ele><time>2026-04-30T07:56:20.906Z</time></trkpt><trkpt lat="37.210906" lon="22.0026482"><ele>70.85714285714286</ele><time>2026-04-30T07:59:59.906Z</time></trkpt><trkpt lat="37.2108761" lon="22.0025613"><ele>71.0</ele><time>2026-04-30T08:00:50.84Z</time></trkpt><trkpt lat="37.2110024" lon="22.0025488"><ele>71.0</ele><time>2026-04-30T08:01:47.898Z</time></trkpt><trkpt lat="37.2110632" lon="22.0024934"><ele>71.0</ele><time>2026-04-30T08:01:48.897Z</time></trkpt><trkpt lat="37.2111239" lon="22.0024405"><ele>71.0</ele><time>2026-04-30T08:01:49.898Z</time></trkpt><trkpt lat="37.2111929" lon="22.0023877"><ele>71.0</ele><time>2026-04-30T08:01:50.897Z</time></trkpt><trkpt lat="37.2112706" lon="22.0023334"><ele>71.0</ele><time>2026-04-30T08:01:51.897Z</time></trkpt><trkpt lat="37.2113517" lon="22.0022803"><ele>71.0</ele><time>2026-04-30T08:01:52.897Z</time></trkpt><trkpt lat="37.2114374" lon="22.0022279"><ele>70.39999999999999</ele><time>2026-04-30T08:01:53.898Z</time></trkpt><trkpt lat="37.2115229" lon="22.0021819"><ele>69.8</ele><time>2026-04-30T08:01:54.897Z</time></trkpt><trkpt lat="37.2116066" lon="22.0021424"><ele>69.19999999999999</ele><time>2026-04-30T08:01:55.898Z</time></trkpt><trkpt lat="37.2116948" lon="22.0021057"><ele>68.6</ele><time>2026-04-30T08:01:56.898Z</time></trkpt><trkpt lat="37.2117891" lon="22.0020733"><ele>68.0</ele><time>2026-04-30T08:01:57.898Z</time></trkpt><trkpt lat="37.211893" lon="22.0020411"><ele>68.0</ele><time>2026-04-30T08:01:58.898Z</time></trkpt><trkpt lat="37.2119994" lon="22.0020118"><ele>68.0</ele><time>2026-04-30T08:01:59.897Z</time></trkpt><trkpt lat="37.2121002" lon="22.001987"><ele>68.0</ele><time>2026-04-30T08:02:00.897Z</time></trkpt><trkpt lat="37.2121968" lon="22.0019691"><ele>68.0</ele><time>2026-04-30T08:02:01.898Z</time></trkpt><trkpt lat="37.2122891" lon="22.0019538"><ele>68.0</ele><time>2026-04-30T08:02:02.898Z</time></trkpt><trkpt lat="37.2123764" lon="22.0019362"><ele>68.0</ele><time>2026-04-30T08:02:03.898Z</time></trkpt><trkpt lat="37.2124639" lon="22.0019169"><ele>68.0</ele><time>2026-04-30T08:02:04.898Z</time></trkpt><trkpt lat="37.2129187" lon="22.0018409"><ele>68.0</ele><time>2026-04-30T08:02:13.898Z</time></trkpt><trkpt lat="37.2130084" lon="22.0018154"><ele>68.0</ele><time>2026-04-30T08:02:15.897Z</time></trkpt><trkpt lat="37.2131187" lon="22.0017991"><ele>68.0</ele><time>2026-04-30T08:02:17.898Z</time></trkpt><trkpt lat="37.2132191" lon="22.0017738"><ele>68.0</ele><time>2026-04-30T08:02:19.898Z</time></trkpt><trkpt lat="37.2133386" lon="22.0017362"><ele>68.0</ele><time>2026-04-30T08:02:21.898Z</time></trkpt><trkpt lat="37.2134255" lon="22.0017189"><ele>68.0</ele><time>2026-04-30T08:02:22.898Z</time></trkpt><trkpt lat="37.2135334" lon="22.0016991"><ele>68.0</ele><time>2026-04-30T08:02:23.898Z</time></trkpt><trkpt lat="37.2136497" lon="22.0016834"><ele>68.0</ele><time>2026-04-30T08:02:24.898Z</time></trkpt><trkpt lat="37.2137702" lon="22.0016636"><ele>68.0</ele><time>2026-04-30T08:02:25.898Z</time></trkpt><trkpt lat="37.2138895" lon="22.0016349"><ele>68.25</ele><time>2026-04-30T08:02:26.897Z</time></trkpt><trkpt lat="37.2140141" lon="22.0016089"><ele>68.5</ele><time>2026-04-30T08:02:27.898Z</time></trkpt><trkpt lat="37.2141492" lon="22.0015774"><ele>68.75</ele><time>2026-04-30T08:02:28.897Z</time></trkpt><trkpt lat="37.2143027" lon="22.0015388"><ele>69.0</ele><time>2026-04-30T08:02:29.897Z</time></trkpt><trkpt lat="37.2144775" lon="22.0014987"><ele>69.0</ele><time>2026-04-30T08:02:30.897Z</time></trkpt><trkpt lat="37.2146587" lon="22.0014603"><ele>69.0</ele><time>2026-04-30T08:02:31.898Z</time></trkpt><trkpt lat="37.2148496" lon="22.00142"><ele>69.0</ele><time>2026-04-30T08:02:32.897Z</time></trkpt><trkpt lat="37.2150478" lon="22.0013711"><ele>68.33333333333333</ele><time>2026-04-30T08:02:33.898Z</time></trkpt><trkpt lat="37.2152391" lon="22.001329"><ele>67.66666666666666</ele><time>2026-04-30T08:02:34.898Z</time></trkpt><trkpt lat="37.2154269" lon="22.0012857"><ele>67.0</ele><time>2026-04-30T08:02:35.898Z</time></trkpt><trkpt lat="37.2155998" lon="22.0012623"><ele>67.33333333333333</ele><time>2026-04-30T08:02:36.898Z</time></trkpt><trkpt lat="37.2157676" lon="22.0012623"><ele>67.66666666666667</ele><time>2026-04-30T08:02:37.897Z</time></trkpt><trkpt lat="37.215937" lon="22.0012766"><ele>68.0</ele><time>2026-04-30T08:02:38.898Z</time></trkpt><trkpt lat="37.2161109" lon="22.0013041"><ele>68.0</ele><time>2026-04-30T08:02:39.897Z</time></trkpt><trkpt lat="37.2162892" lon="22.0013526"><ele>68.0</ele><time>2026-04-30T08:02:40.898Z</time></trkpt><trkpt lat="37.2164726" lon="22.00142"><ele>68.0</ele><time>2026-04-30T08:02:41.897Z</time></trkpt><trkpt lat="37.2166639" lon="22.0014988"><ele>68.0</ele><time>2026-04-30T08:02:42.897Z</time></trkpt><trkpt lat="37.2168686" lon="22.0015795"><ele>68.0</ele><time>2026-04-30T08:02:43.898Z</time></trkpt><trkpt lat="37.2170749" lon="22.001672"><ele>68.0</ele><time>2026-04-30T08:02:44.897Z</time></trkpt><trkpt lat="37.2172915" lon="22.0017603"><ele>68.5</ele><time>2026-04-30T08:02:45.898Z</time></trkpt><trkpt lat="37.217504" lon="22.0018583"><ele>69.0</ele><time>2026-04-30T08:02:46.898Z</time></trkpt><trkpt lat="37.2177277" lon="22.0019543"><ele>69.0</ele><time>2026-04-30T08:02:47.897Z</time></trkpt><trkpt lat="37.2179445" lon="22.0020584"><ele>69.0</ele><time>2026-04-30T08:02:48.897Z</time></trkpt><trkpt lat="37.2181622" lon="22.0021647"><ele>68.5</ele><time>2026-04-30T08:02:49.897Z</time></trkpt><trkpt lat="37.2183932" lon="22.0022654"><ele>68.0</ele><time>2026-04-30T08:02:50.897Z</time></trkpt><trkpt lat="37.2186273" lon="22.0023755"><ele>68.0</ele><time>2026-04-30T08:02:51.898Z</time></trkpt><trkpt lat="37.2188653" lon="22.0024941"><ele>68.0</ele><time>2026-04-30T08:02:52.898Z</time></trkpt><trkpt lat="37.2191028" lon="22.0026067"><ele>68.5</ele><time>2026-04-30T08:02:53.897Z</time></trkpt><trkpt lat="37.2193392" lon="22.0027139"><ele>69.0</ele><time>2026-04-30T08:02:54.897Z</time></trkpt><trkpt lat="37.2195728" lon="22.0028243"><ele>69.0</ele><time>2026-04-30T08:02:55.898Z</time></trkpt><trkpt lat="37.2198074" lon="22.0029193"><ele>69.0</ele><time>2026-04-30T08:02:56.898Z</time></trkpt><trkpt lat="37.2200414" lon="22.0030213"><ele>69.0</ele><time>2026-04-30T08:02:57.898Z</time></trkpt><trkpt lat="37.2202797" lon="22.0031163"><ele>69.0</ele><time>2026-04-30T08:02:58.897Z</time></trkpt><trkpt lat="37.220513" lon="22.0032077"><ele>69.5</ele><time>2026-04-30T08:02:59.898Z</time></trkpt><trkpt lat="37.2207548" lon="22.0032767"><ele>70.0</ele><time>2026-04-30T08:03:00.898Z</time></trkpt><trkpt lat="37.2209964" lon="22.003336"><ele>70.0</ele><time>2026-04-30T08:03:01.898Z</time></trkpt><trkpt lat="37.2212412" lon="22.0033895"><ele>70.0</ele><time>2026-04-30T08:03:02.898Z</time></trkpt><trkpt lat="37.2214919" lon="22.003427"><ele>70.0</ele><time>2026-04-30T08:03:03.898Z</time></trkpt><trkpt lat="37.2217451" lon="22.0034604"><ele>70.0</ele><time>2026-04-30T08:03:04.897Z</time></trkpt><trkpt lat="37.2220004" lon="22.0034909"><ele>70.0</ele><time>2026-04-30T08:03:05.898Z</time></trkpt><trkpt lat="37.2222526" lon="22.0035256"><ele>70.0</ele><time>2026-04-30T08:03:06.897Z</time></trkpt><trkpt lat="37.2225043" lon="22.0035565"><ele>70.5</ele><time>2026-04-30T08:03:07.898Z</time></trkpt><trkpt lat="37.2227527" lon="22.0035794"><ele>71.0</ele><time>2026-04-30T08:03:08.898Z</time></trkpt><trkpt lat="37.2229943" lon="22.0036046"><ele>71.5</ele><time>2026-04-30T08:03:09.898Z</time></trkpt><trkpt lat="37.2232377" lon="22.0036294"><ele>72.0</ele><time>2026-04-30T08:03:10.898Z</time></trkpt><trkpt lat="37.2234705" lon="22.0036578"><ele>72.0</ele><time>2026-04-30T08:03:11.898Z</time></trkpt><trkpt lat="37.2236981" lon="22.0036983"><ele>72.0</ele><time>2026-04-30T08:03:12.898Z</time></trkpt><trkpt lat="37.223916" lon="22.0037324"><ele>72.0</ele><time>2026-04-30T08:03:13.898Z</time></trkpt><trkpt lat="37.224133" lon="22.0037772"><ele>72.5</ele><time>2026-04-30T08:03:14.898Z</time></trkpt><trkpt lat="37.2243481" lon="22.0038626"><ele>73.0</ele><time>2026-04-30T08:03:15.897Z</time></trkpt><trkpt lat="37.2245607" lon="22.0039734"><ele>73.0</ele><time>2026-04-30T08:03:16.898Z</time></trkpt><trkpt lat="37.2247892" lon="22.0041211"><ele>73.0</ele><time>2026-04-30T08:03:17.897Z</time></trkpt><trkpt lat="37.2250204" lon="22.0042665"><ele>73.0</ele><time>2026-04-30T08:03:18.898Z</time></trkpt><trkpt lat="37.2252544" lon="22.0044226"><ele>73.0</ele><time>2026-04-30T08:03:19.897Z</time></trkpt><trkpt lat="37.2254952" lon="22.0045877"><ele>73.5</ele><time>2026-04-30T08:03:20.898Z</time></trkpt><trkpt lat="37.2257374" lon="22.0047407"><ele>74.0</ele><time>2026-04-30T08:03:21.898Z</time></trkpt><trkpt lat="37.225978" lon="22.0048998"><ele>74.5</ele><time>2026-04-30T08:03:22.898Z</time></trkpt><trkpt lat="37.2262173" lon="22.0050627"><ele>75.0</ele><time>2026-04-30T08:03:23.897Z</time></trkpt><trkpt lat="37.2264597" lon="22.0052158"><ele>75.5</ele><time>2026-04-30T08:03:24.898Z</time></trkpt><trkpt lat="37.22669" lon="22.005383"><ele>76.0</ele><time>2026-04-30T08:03:25.897Z</time></trkpt><trkpt lat="37.2269123" lon="22.0055412"><ele>76.0</ele><time>2026-04-30T08:03:26.898Z</time></trkpt><trkpt lat="37.2271348" lon="22.0056903"><ele>76.0</ele><time>2026-04-30T08:03:27.898Z</time></trkpt><trkpt lat="37.2273595" lon="22.0058396"><ele>75.0</ele><time>2026-04-30T08:03:28.898Z</time></trkpt><trkpt lat="37.2275834" lon="22.0059879"><ele>74.0</ele><time>2026-04-30T08:03:29.898Z</time></trkpt><trkpt lat="37.2277988" lon="22.0061379"><ele>74.0</ele><time>2026-04-30T08:03:30.897Z</time></trkpt><trkpt lat="37.228018" lon="22.0062798"><ele>74.0</ele><time>2026-04-30T08:03:31.897Z</time></trkpt><trkpt lat="37.2282357" lon="22.0064275"><ele>74.5</ele><time>2026-04-30T08:03:32.898Z</time></trkpt><trkpt lat="37.2284549" lon="22.0065758"><ele>75.0</ele><time>2026-04-30T08:03:33.897Z</time></trkpt><trkpt lat="37.2286655" lon="22.0067231"><ele>75.5</ele><time>2026-04-30T08:03:34.897Z</time></trkpt><trkpt lat="37.2288733" lon="22.006867"><ele>76.0</ele><time>2026-04-30T08:03:35.898Z</time></trkpt><trkpt lat="37.2290788" lon="22.0070071"><ele>76.5</ele><time>2026-04-30T08:03:36.897Z</time></trkpt><trkpt lat="37.229286" lon="22.0071552"><ele>77.0</ele><time>2026-04-30T08:03:37.897Z</time></trkpt><trkpt lat="37.2294841" lon="22.0072969"><ele>77.0</ele><time>2026-04-30T08:03:38.898Z</time></trkpt><trkpt lat="37.2296882" lon="22.0074543"><ele>77.0</ele><time>2026-04-30T08:03:39.898Z</time></trkpt><trkpt lat="37.2298853" lon="22.0076164"><ele>77.5</ele><time>2026-04-30T08:03:40.898Z</time></trkpt><trkpt lat="37.2300811" lon="22.0077866"><ele>78.0</ele><time>2026-04-30T08:03:41.897Z</time></trkpt><trkpt lat="37.2302752" lon="22.0079619"><ele>78.0</ele><time>2026-04-30T08:03:42.898Z</time></trkpt><trkpt lat="37.2304644" lon="22.0081329"><ele>78.0</ele><time>2026-04-30T08:03:43.898Z</time></trkpt><trkpt lat="37.2306553" lon="22.008301"><ele>79.0</ele><time>2026-04-30T08:03:44.898Z</time></trkpt><trkpt lat="37.2308485" lon="22.008463"><ele>80.0</ele><time>2026-04-30T08:03:45.897Z</time></trkpt><trkpt lat="37.2310434" lon="22.0086137"><ele>80.0</ele><time>2026-04-30T08:03:46.897Z</time></trkpt><trkpt lat="37.2312464" lon="22.0087477"><ele>80.0</ele><time>2026-04-30T08:03:47.897Z</time></trkpt><trkpt lat="37.2314601" lon="22.0088643"><ele>81.0</ele><time>2026-04-30T08:03:48.898Z</time></trkpt><trkpt lat="37.2316869" lon="22.0089623"><ele>82.0</ele><time>2026-04-30T08:03:49.898Z</time></trkpt><trkpt lat="37.2319149" lon="22.0090416"><ele>82.0</ele><time>2026-04-30T08:03:50.897Z</time></trkpt><trkpt lat="37.2321471" lon="22.0091109"><ele>82.0</ele><time>2026-04-30T08:03:51.898Z</time></trkpt><trkpt lat="37.2323881" lon="22.0091838"><ele>81.5</ele><time>2026-04-30T08:03:52.897Z</time></trkpt><trkpt lat="37.2326272" lon="22.0092509"><ele>81.0</ele><time>2026-04-30T08:03:53.898Z</time></trkpt><trkpt lat="37.2328673" lon="22.0093179"><ele>81.0</ele><time>2026-04-30T08:03:54.898Z</time></trkpt><trkpt lat="37.2331087" lon="22.0093845"><ele>81.0</ele><time>2026-04-30T08:03:55.897Z</time></trkpt><trkpt lat="37.2333466" lon="22.0094514"><ele>82.5</ele><time>2026-04-30T08:03:56.897Z</time></trkpt><trkpt lat="37.2335803" lon="22.009522"><ele>84.0</ele><time>2026-04-30T08:03:57.898Z</time></trkpt><trkpt lat="37.2338181" lon="22.0095935"><ele>85.0</ele><time>2026-04-30T08:03:58.897Z</time></trkpt><trkpt lat="37.2340552" lon="22.0096612"><ele>86.0</ele><time>2026-04-30T08:03:59.898Z</time></trkpt><trkpt lat="37.2342919" lon="22.0097277"><ele>86.0</ele><time>2026-04-30T08:04:00.898Z</time></trkpt><trkpt lat="37.2345255" lon="22.009794"><ele>86.0</ele><time>2026-04-30T08:04:01.898Z</time></trkpt><trkpt lat="37.2347622" lon="22.009856"><ele>85.5</ele><time>2026-04-30T08:04:02.898Z</time></trkpt><trkpt lat="37.2349948" lon="22.0099173"><ele>85.0</ele><time>2026-04-30T08:04:03.898Z</time></trkpt><trkpt lat="37.2352335" lon="22.0099759"><ele>85.0</ele><time>2026-04-30T08:04:04.897Z</time></trkpt><trkpt lat="37.2354656" lon="22.0100391"><ele>85.0</ele><time>2026-04-30T08:04:05.897Z</time></trkpt><trkpt lat="37.2356999" lon="22.0100955"><ele>86.0</ele><time>2026-04-30T08:04:06.898Z</time></trkpt><trkpt lat="37.235933" lon="22.0101513"><ele>87.0</ele><time>2026-04-30T08:04:07.897Z</time></trkpt><trkpt lat="37.2361698" lon="22.0102135"><ele>87.0</ele><time>2026-04-30T08:04:08.898Z</time></trkpt><trkpt lat="37.2363991" lon="22.0102783"><ele>87.0</ele><time>2026-04-30T08:04:09.898Z</time></trkpt><trkpt lat="37.2366288" lon="22.0103473"><ele>87.5</ele><time>2026-04-30T08:04:10.898Z</time></trkpt><trkpt lat="37.2368682" lon="22.010413"><ele>88.0</ele><time>2026-04-30T08:04:11.898Z</time></trkpt><trkpt lat="37.2370961" lon="22.0104975"><ele>87.5</ele><time>2026-04-30T08:04:12.897Z</time></trkpt><trkpt lat="37.237323" lon="22.0105919"><ele>87.0</ele><time>2026-04-30T08:04:13.897Z</time></trkpt><trkpt lat="37.2375428" lon="22.0106947"><ele>87.0</ele><time>2026-04-30T08:04:14.898Z</time></trkpt><trkpt lat="37.2377601" lon="22.0108048"><ele>87.0</ele><time>2026-04-30T08:04:15.897Z</time></trkpt><trkpt lat="37.2379779" lon="22.0109038"><ele>89.0</ele><time>2026-04-30T08:04:16.898Z</time></trkpt><trkpt lat="37.2381943" lon="22.0109854"><ele>91.0</ele><time>2026-04-30T08:04:17.897Z</time></trkpt><trkpt lat="37.2384052" lon="22.0110879"><ele>91.0</ele><time>2026-04-30T08:04:18.897Z</time></trkpt><trkpt lat="37.2386071" lon="22.0111835"><ele>91.0</ele><time>2026-04-30T08:04:19.898Z</time></trkpt><trkpt lat="37.2388104" lon="22.0112733"><ele>91.0</ele><time>2026-04-30T08:04:20.898Z</time></trkpt><trkpt lat="37.2390155" lon="22.0113661"><ele>91.33333333333333</ele><time>2026-04-30T08:04:21.898Z</time></trkpt><trkpt lat="37.2392172" lon="22.0114569"><ele>91.66666666666667</ele><time>2026-04-30T08:04:22.897Z</time></trkpt><trkpt lat="37.2394133" lon="22.0115415"><ele>92.0</ele><time>2026-04-30T08:04:23.898Z</time></trkpt><trkpt lat="37.2395999" lon="22.0116316"><ele>92.33333333333334</ele><time>2026-04-30T08:04:24.897Z</time></trkpt><trkpt lat="37.2397902" lon="22.0117222"><ele>92.66666666666667</ele><time>2026-04-30T08:04:25.898Z</time></trkpt><trkpt lat="37.2399768" lon="22.0117992"><ele>93.0</ele><time>2026-04-30T08:04:26.898Z</time></trkpt><trkpt lat="37.2401669" lon="22.0118739"><ele>93.0</ele><time>2026-04-30T08:04:27.897Z</time></trkpt><trkpt lat="37.240356" lon="22.0119573"><ele>93.0</ele><time>2026-04-30T08:04:28.897Z</time></trkpt><trkpt lat="37.2405452" lon="22.0120362"><ele>93.0</ele><time>2026-04-30T08:04:29.898Z</time></trkpt><trkpt lat="37.2407314" lon="22.012117"><ele>94.0</ele><time>2026-04-30T08:04:30.898Z</time></trkpt><trkpt lat="37.2409164" lon="22.0121938"><ele>95.0</ele><time>2026-04-30T08:04:31.898Z</time></trkpt><trkpt lat="37.2411061" lon="22.0122764"><ele>96.0</ele><time>2026-04-30T08:04:32.897Z</time></trkpt><trkpt lat="37.2412961" lon="22.0123497"><ele>96.33333333333334</ele><time>2026-04-30T08:04:33.897Z</time></trkpt><trkpt lat="37.2414931" lon="22.012433"><ele>96.66666666666667</ele><time>2026-04-30T08:04:34.898Z</time></trkpt><trkpt lat="37.2416875" lon="22.0125028"><ele>97.0</ele><time>2026-04-30T08:04:35.898Z</time></trkpt><trkpt lat="37.2418824" lon="22.0125791"><ele>97.0</ele><time>2026-04-30T08:04:36.897Z</time></trkpt><trkpt lat="37.2420744" lon="22.0126515"><ele>97.0</ele><time>2026-04-30T08:04:37.897Z</time></trkpt><trkpt lat="37.2422678" lon="22.0127287"><ele>97.0</ele><time>2026-04-30T08:04:38.898Z</time></trkpt><trkpt lat="37.2424614" lon="22.0128069"><ele>97.66666666666667</ele><time>2026-04-30T08:04:39.897Z</time></trkpt><trkpt lat="37.2426558" lon="22.0128847"><ele>98.33333333333334</ele><time>2026-04-30T08:04:40.898Z</time></trkpt><trkpt lat="37.2428534" lon="22.0129658"><ele>99.0</ele><time>2026-04-30T08:04:41.897Z</time></trkpt><trkpt lat="37.2430575" lon="22.0130488"><ele>99.66666666666666</ele><time>2026-04-30T08:04:42.898Z</time></trkpt><trkpt lat="37.243259" lon="22.0131257"><ele>100.33333333333333</ele><time>2026-04-30T08:04:43.897Z</time></trkpt><trkpt lat="37.2434731" lon="22.0132026"><ele>101.0</ele><time>2026-04-30T08:04:44.898Z</time></trkpt><trkpt lat="37.2436876" lon="22.0132861"><ele>101.5</ele><time>2026-04-30T08:04:45.898Z</time></trkpt><trkpt lat="37.2439053" lon="22.0133642"><ele>102.0</ele><time>2026-04-30T08:04:46.897Z</time></trkpt><trkpt lat="37.2441231" lon="22.0134431"><ele>102.0</ele><time>2026-04-30T08:04:47.897Z</time></trkpt><trkpt lat="37.2443453" lon="22.0135209"><ele>102.0</ele><time>2026-04-30T08:04:48.898Z</time></trkpt><trkpt lat="37.2445654" lon="22.0135981"><ele>102.0</ele><time>2026-04-30T08:04:49.897Z</time></trkpt><trkpt lat="37.2447827" lon="22.0136835"><ele>102.0</ele><time>2026-04-30T08:04:50.898Z</time></trkpt><trkpt lat="37.2449985" lon="22.0137688"><ele>103.0</ele><time>2026-04-30T08:04:51.898Z</time></trkpt><trkpt lat="37.2452195" lon="22.0138458"><ele>104.0</ele><time>2026-04-30T08:04:52.897Z</time></trkpt><trkpt lat="37.2454456" lon="22.0139315"><ele>104.0</ele><time>2026-04-30T08:04:53.897Z</time></trkpt><trkpt lat="37.2456604" lon="22.0140283"><ele>104.0</ele><time>2026-04-30T08:04:54.897Z</time></trkpt><trkpt lat="37.2458717" lon="22.0141106"><ele>104.0</ele><time>2026-04-30T08:04:55.897Z</time></trkpt><trkpt lat="37.2460809" lon="22.0141913"><ele>104.66666666666666</ele><time>2026-04-30T08:04:56.898Z</time></trkpt><trkpt lat="37.2462918" lon="22.0142791"><ele>105.33333333333334</ele><time>2026-04-30T08:04:57.898Z</time></trkpt><trkpt lat="37.2465028" lon="22.0143589"><ele>106.0</ele><time>2026-04-30T08:04:58.898Z</time></trkpt><trkpt lat="37.2467013" lon="22.0144308"><ele>107.0</ele><time>2026-04-30T08:04:59.898Z</time></trkpt><trkpt lat="37.2468995" lon="22.0145054"><ele>108.0</ele><time>2026-04-30T08:05:00.897Z</time></trkpt><trkpt lat="37.2470963" lon="22.0145744"><ele>109.0</ele><time>2026-04-30T08:05:01.898Z</time></trkpt><trkpt lat="37.24729" lon="22.0146481"><ele>108.66666666666667</ele><time>2026-04-30T08:05:02.898Z</time></trkpt><trkpt lat="37.2474814" lon="22.0147194"><ele>108.33333333333334</ele><time>2026-04-30T08:05:03.898Z</time></trkpt><trkpt lat="37.2476794" lon="22.0147746"><ele>108.0</ele><time>2026-04-30T08:05:04.898Z</time></trkpt><trkpt lat="37.2478707" lon="22.0148431"><ele>108.0</ele><time>2026-04-30T08:05:05.898Z</time></trkpt><trkpt lat="37.2480657" lon="22.0149186"><ele>108.0</ele><time>2026-04-30T08:05:06.897Z</time></trkpt><trkpt lat="37.2482596" lon="22.0149937"><ele>108.0</ele><time>2026-04-30T08:05:07.898Z</time></trkpt><trkpt lat="37.2484575" lon="22.0150672"><ele>109.66666666666666</ele><time>2026-04-30T08:05:08.898Z</time></trkpt><trkpt lat="37.2486546" lon="22.0151472"><ele>111.33333333333333</ele><time>2026-04-30T08:05:09.897Z</time></trkpt><trkpt lat="37.2488616" lon="22.0152241"><ele>113.0</ele><time>2026-04-30T08:05:10.898Z</time></trkpt><trkpt lat="37.2490706" lon="22.0153062"><ele>113.5</ele><time>2026-04-30T08:05:11.897Z</time></trkpt><trkpt lat="37.2492894" lon="22.0153865"><ele>114.0</ele><time>2026-04-30T08:05:12.898Z</time></trkpt><trkpt lat="37.2495024" lon="22.0154749"><ele>114.0</ele><time>2026-04-30T08:05:13.898Z</time></trkpt><trkpt lat="37.2497291" lon="22.0155707"><ele>114.0</ele><time>2026-04-30T08:05:14.898Z</time></trkpt><trkpt lat="37.2499612" lon="22.0156768"><ele>115.0</ele><time>2026-04-30T08:05:15.898Z</time></trkpt><trkpt lat="37.2502006" lon="22.015771"><ele>116.0</ele><time>2026-04-30T08:05:16.898Z</time></trkpt><trkpt lat="37.2504327" lon="22.0158651"><ele>117.5</ele><time>2026-04-30T08:05:17.898Z</time></trkpt><trkpt lat="37.250667" lon="22.0159514"><ele>119.0</ele><time>2026-04-30T08:05:18.897Z</time></trkpt><trkpt lat="37.2508942" lon="22.016044"><ele>119.0</ele><time>2026-04-30T08:05:19.898Z</time></trkpt><trkpt lat="37.2511068" lon="22.0161281"><ele>119.0</ele><time>2026-04-30T08:05:20.898Z</time></trkpt><trkpt lat="37.2513181" lon="22.0162093"><ele>119.0</ele><time>2026-04-30T08:05:21.898Z</time></trkpt><trkpt lat="37.2515251" lon="22.016283"><ele>119.33333333333333</ele><time>2026-04-30T08:05:22.898Z</time></trkpt><trkpt lat="37.2517317" lon="22.0163606"><ele>119.66666666666666</ele><time>2026-04-30T08:05:23.898Z</time></trkpt><trkpt lat="37.2519382" lon="22.0164354"><ele>120.0</ele><time>2026-04-30T08:05:24.897Z</time></trkpt><trkpt lat="37.2521483" lon="22.016514"><ele>119.66666666666666</ele><time>2026-04-30T08:05:25.897Z</time></trkpt><trkpt lat="37.2523553" lon="22.0165993"><ele>119.33333333333333</ele><time>2026-04-30T08:05:26.898Z</time></trkpt><trkpt lat="37.2525525" lon="22.0166779"><ele>119.0</ele><time>2026-04-30T08:05:27.898Z</time></trkpt><trkpt lat="37.252746" lon="22.0167492"><ele>120.66666666666666</ele><time>2026-04-30T08:05:28.898Z</time></trkpt><trkpt lat="37.2529351" lon="22.0168234"><ele>122.33333333333334</ele><time>2026-04-30T08:05:29.897Z</time></trkpt><trkpt lat="37.253123" lon="22.0169063"><ele>124.0</ele><time>2026-04-30T08:05:30.897Z</time></trkpt><trkpt lat="37.2533043" lon="22.0169672"><ele>124.66666666666667</ele><time>2026-04-30T08:05:31.897Z</time></trkpt><trkpt lat="37.2534833" lon="22.0170235"><ele>125.33333333333334</ele><time>2026-04-30T08:05:32.898Z</time></trkpt><trkpt lat="37.2536305" lon="22.0170766"><ele>126.0</ele><time>2026-04-30T08:05:33.897Z</time></trkpt><trkpt lat="37.2537759" lon="22.0171316"><ele>126.0</ele><time>2026-04-30T08:05:34.898Z</time></trkpt><trkpt lat="37.2539087" lon="22.0171899"><ele>126.0</ele><time>2026-04-30T08:05:35.897Z</time></trkpt><trkpt lat="37.2540311" lon="22.0172287"><ele>126.0</ele><time>2026-04-30T08:05:36.898Z</time></trkpt><trkpt lat="37.2541262" lon="22.0172543"><ele>126.0</ele><time>2026-04-30T08:05:37.898Z</time></trkpt><trkpt lat="37.2542089" lon="22.0172431"><ele>126.0</ele><time>2026-04-30T08:05:38.898Z</time></trkpt><trkpt lat="37.2542866" lon="22.0171879"><ele>125.8</ele><time>2026-04-30T08:05:39.897Z</time></trkpt><trkpt lat="37.2543393" lon="22.0170954"><ele>125.6</ele><time>2026-04-30T08:05:40.898Z</time></trkpt><trkpt lat="37.2543848" lon="22.0169883"><ele>125.4</ele><time>2026-04-30T08:05:41.897Z</time></trkpt><trkpt lat="37.254435" lon="22.0168657"><ele>125.2</ele><time>2026-04-30T08:05:42.897Z</time></trkpt><trkpt lat="37.2544879" lon="22.0167372"><ele>125.0</ele><time>2026-04-30T08:05:43.897Z</time></trkpt><trkpt lat="37.2545585" lon="22.0166206"><ele>125.0</ele><time>2026-04-30T08:05:44.898Z</time></trkpt><trkpt lat="37.2546397" lon="22.0165252"><ele>125.0</ele><time>2026-04-30T08:05:45.897Z</time></trkpt><trkpt lat="37.2547244" lon="22.0164341"><ele>125.0</ele><time>2026-04-30T08:05:46.897Z</time></trkpt><trkpt lat="37.2548114" lon="22.0163508"><ele>125.0</ele><time>2026-04-30T08:05:47.897Z</time></trkpt><trkpt lat="37.2548991" lon="22.0162821"><ele>125.0</ele><time>2026-04-30T08:05:48.898Z</time></trkpt><trkpt lat="37.2549809" lon="22.0162299"><ele>125.0</ele><time>2026-04-30T08:05:49.898Z</time></trkpt><trkpt lat="37.2550733" lon="22.0161789"><ele>125.0</ele><time>2026-04-30T08:05:50.898Z</time></trkpt><trkpt lat="37.255164" lon="22.0161401"><ele>125.0</ele><time>2026-04-30T08:05:51.897Z</time></trkpt><trkpt lat="37.2552597" lon="22.0161117"><ele>125.0</ele><time>2026-04-30T08:05:52.897Z</time></trkpt><trkpt lat="37.2553495" lon="22.0160918"><ele>125.0</ele><time>2026-04-30T08:05:53.898Z</time></trkpt><trkpt lat="37.2554469" lon="22.0160759"><ele>125.0</ele><time>2026-04-30T08:05:54.897Z</time></trkpt><trkpt lat="37.2555397" lon="22.0160731"><ele>125.0</ele><time>2026-04-30T08:05:55.897Z</time></trkpt><trkpt lat="37.2556323" lon="22.0160716"><ele>125.0</ele><time>2026-04-30T08:05:56.898Z</time></trkpt><trkpt lat="37.2557221" lon="22.016076"><ele>125.0</ele><time>2026-04-30T08:05:57.898Z</time></trkpt><trkpt lat="37.2558201" lon="22.0160771"><ele>125.0</ele><time>2026-04-30T08:05:58.898Z</time></trkpt><trkpt lat="37.2559125" lon="22.0160724"><ele>125.2</ele><time>2026-04-30T08:05:59.898Z</time></trkpt><trkpt lat="37.2560078" lon="22.0160667"><ele>125.4</ele><time>2026-04-30T08:06:00.898Z</time></trkpt><trkpt lat="37.2560998" lon="22.0160588"><ele>125.6</ele><time>2026-04-30T08:06:01.897Z</time></trkpt><trkpt lat="37.2561934" lon="22.0160211"><ele>125.8</ele><time>2026-04-30T08:06:02.898Z</time></trkpt><trkpt lat="37.2562817" lon="22.015977"><ele>126.0</ele><time>2026-04-30T08:06:03.898Z</time></trkpt><trkpt lat="37.2563627" lon="22.0159181"><ele>126.0</ele><time>2026-04-30T08:06:04.897Z</time></trkpt><trkpt lat="37.2564361" lon="22.0158442"><ele>126.0</ele><time>2026-04-30T08:06:05.897Z</time></trkpt><trkpt lat="37.2565044" lon="22.0157567"><ele>126.0</ele><time>2026-04-30T08:06:06.897Z</time></trkpt><trkpt lat="37.2565551" lon="22.0156479"><ele>126.0</ele><time>2026-04-30T08:06:07.898Z</time></trkpt><trkpt lat="37.2565913" lon="22.0155343"><ele>126.0</ele><time>2026-04-30T08:06:08.897Z</time></trkpt><trkpt lat="37.2566106" lon="22.0154073"><ele>125.6</ele><time>2026-04-30T08:06:09.897Z</time></trkpt><trkpt lat="37.2566156" lon="22.0152793"><ele>125.19999999999999</ele><time>2026-04-30T08:06:10.898Z</time></trkpt><trkpt lat="37.2566143" lon="22.0151527"><ele>124.80000000000001</ele><time>2026-04-30T08:06:11.898Z</time></trkpt><trkpt lat="37.2566115" lon="22.0150321"><ele>124.4</ele><time>2026-04-30T08:06:12.898Z</time></trkpt><trkpt lat="37.2566102" lon="22.0149024"><ele>124.0</ele><time>2026-04-30T08:06:13.897Z</time></trkpt><trkpt lat="37.2566117" lon="22.014773"><ele>123.6</ele><time>2026-04-30T08:06:14.897Z</time></trkpt><trkpt lat="37.2566145" lon="22.0146413"><ele>123.2</ele><time>2026-04-30T08:06:15.897Z</time></trkpt><trkpt lat="37.2566208" lon="22.0145081"><ele>122.79999999999998</ele><time>2026-04-30T08:06:16.898Z</time></trkpt><trkpt lat="37.256634" lon="22.0143759"><ele>122.39999999999999</ele><time>2026-04-30T08:06:17.897Z</time></trkpt><trkpt lat="37.2566597" lon="22.0142449"><ele>122.0</ele><time>2026-04-30T08:06:18.898Z</time></trkpt><trkpt lat="37.256687" lon="22.0141161"><ele>121.6</ele><time>2026-04-30T08:06:19.898Z</time></trkpt><trkpt lat="37.2567179" lon="22.0139953"><ele>121.19999999999999</ele><time>2026-04-30T08:06:20.897Z</time></trkpt><trkpt lat="37.2567569" lon="22.013874"><ele>120.8</ele><time>2026-04-30T08:06:21.898Z</time></trkpt><trkpt lat="37.2567975" lon="22.0137541"><ele>120.4</ele><time>2026-04-30T08:06:22.898Z</time></trkpt><trkpt lat="37.2568444" lon="22.0136363"><ele>120.0</ele><time>2026-04-30T08:06:23.897Z</time></trkpt><trkpt lat="37.2568939" lon="22.0135264"><ele>120.0</ele><time>2026-04-30T08:06:24.897Z</time></trkpt><trkpt lat="37.2569531" lon="22.013421"><ele>120.0</ele><time>2026-04-30T08:06:25.898Z</time></trkpt><trkpt lat="37.2570147" lon="22.0133135"><ele>120.0</ele><time>2026-04-30T08:06:26.897Z</time></trkpt><trkpt lat="37.2570764" lon="22.0132075"><ele>120.0</ele><time>2026-04-30T08:06:27.897Z</time></trkpt><trkpt lat="37.257151" lon="22.0130969"><ele>120.0</ele><time>2026-04-30T08:06:28.897Z</time></trkpt><trkpt lat="37.2572233" lon="22.0129813"><ele>119.5</ele><time>2026-04-30T08:06:29.897Z</time></trkpt><trkpt lat="37.2573012" lon="22.0128656"><ele>119.0</ele><time>2026-04-30T08:06:30.897Z</time></trkpt><trkpt lat="37.2573738" lon="22.0127515"><ele>118.5</ele><time>2026-04-30T08:06:31.897Z</time></trkpt><trkpt lat="37.2574455" lon="22.0126416"><ele>118.0</ele><time>2026-04-30T08:06:32.897Z</time></trkpt><trkpt lat="37.2575088" lon="22.012533"><ele>118.0</ele><time>2026-04-30T08:06:33.898Z</time></trkpt><trkpt lat="37.2575725" lon="22.0124196"><ele>118.00000000000001</ele><time>2026-04-30T08:06:34.897Z</time></trkpt><trkpt lat="37.2576366" lon="22.0123085"><ele>118.00000000000001</ele><time>2026-04-30T08:06:35.897Z</time></trkpt><trkpt lat="37.2576978" lon="22.0121974"><ele>118.0</ele><time>2026-04-30T08:06:36.897Z</time></trkpt><trkpt lat="37.25776" lon="22.0120714"><ele>118.0</ele><time>2026-04-30T08:06:37.897Z</time></trkpt><trkpt lat="37.257825" lon="22.0119419"><ele>118.0</ele><time>2026-04-30T08:06:38.897Z</time></trkpt><trkpt lat="37.2578829" lon="22.0118121"><ele>118.0</ele><time>2026-04-30T08:06:39.898Z</time></trkpt><trkpt lat="37.257942" lon="22.0116848"><ele>118.0</ele><time>2026-04-30T08:06:40.897Z</time></trkpt><trkpt lat="37.2580062" lon="22.0115682"><ele>118.0</ele><time>2026-04-30T08:06:41.897Z</time></trkpt><trkpt lat="37.2580633" lon="22.0114545"><ele>117.60000000000001</ele><time>2026-04-30T08:06:42.898Z</time></trkpt><trkpt lat="37.2581155" lon="22.0113228"><ele>117.20000000000002</ele><time>2026-04-30T08:06:43.897Z</time></trkpt><trkpt lat="37.2581679" lon="22.0112095"><ele>116.8</ele><time>2026-04-30T08:06:44.898Z</time></trkpt><trkpt lat="37.2582199" lon="22.0110867"><ele>116.4</ele><time>2026-04-30T08:06:45.898Z</time></trkpt><trkpt lat="37.2582748" lon="22.0109576"><ele>116.0</ele><time>2026-04-30T08:06:46.898Z</time></trkpt><trkpt lat="37.2583189" lon="22.0108359"><ele>115.5</ele><time>2026-04-30T08:06:47.897Z</time></trkpt><trkpt lat="37.2583729" lon="22.0107065"><ele>115.0</ele><time>2026-04-30T08:06:48.897Z</time></trkpt><trkpt lat="37.258422" lon="22.0105725"><ele>114.5</ele><time>2026-04-30T08:06:49.898Z</time></trkpt><trkpt lat="37.2584552" lon="22.0104327"><ele>114.0</ele><time>2026-04-30T08:06:50.898Z</time></trkpt><trkpt lat="37.2584986" lon="22.0102919"><ele>114.0</ele><time>2026-04-30T08:06:51.898Z</time></trkpt><trkpt lat="37.2585483" lon="22.0101429"><ele>114.0</ele><time>2026-04-30T08:06:52.898Z</time></trkpt><trkpt lat="37.2585932" lon="22.0099786"><ele>114.0</ele><time>2026-04-30T08:06:53.897Z</time></trkpt><trkpt lat="37.2586373" lon="22.0098235"><ele>114.0</ele><time>2026-04-30T08:06:54.898Z</time></trkpt><trkpt lat="37.258681" lon="22.0096766"><ele>113.75</ele><time>2026-04-30T08:06:55.898Z</time></trkpt><trkpt lat="37.2587245" lon="22.0095208"><ele>113.5</ele><time>2026-04-30T08:06:56.898Z</time></trkpt><trkpt lat="37.2587659" lon="22.0093613"><ele>113.25</ele><time>2026-04-30T08:06:57.898Z</time></trkpt><trkpt lat="37.2588083" lon="22.0091965"><ele>113.0</ele><time>2026-04-30T08:06:58.897Z</time></trkpt><trkpt lat="37.2588459" lon="22.0090222"><ele>113.0</ele><time>2026-04-30T08:06:59.897Z</time></trkpt><trkpt lat="37.2588811" lon="22.0088332"><ele>113.0</ele><time>2026-04-30T08:07:00.898Z</time></trkpt><trkpt lat="37.2589205" lon="22.0086346"><ele>113.0</ele><time>2026-04-30T08:07:01.898Z</time></trkpt><trkpt lat="37.2589598" lon="22.0084311"><ele>112.66666666666666</ele><time>2026-04-30T08:07:02.898Z</time></trkpt><trkpt lat="37.2589979" lon="22.0082273"><ele>112.33333333333334</ele><time>2026-04-30T08:07:03.897Z</time></trkpt><trkpt lat="37.2590337" lon="22.0080188"><ele>112.0</ele><time>2026-04-30T08:07:04.898Z</time></trkpt><trkpt lat="37.2590666" lon="22.0077979"><ele>112.0</ele><time>2026-04-30T08:07:05.897Z</time></trkpt><trkpt lat="37.2590949" lon="22.0075715"><ele>112.0</ele><time>2026-04-30T08:07:06.898Z</time></trkpt><trkpt lat="37.2591214" lon="22.0073377"><ele>112.0</ele><time>2026-04-30T08:07:07.898Z</time></trkpt><trkpt lat="37.2591441" lon="22.0070984"><ele>111.33333333333334</ele><time>2026-04-30T08:07:08.898Z</time></trkpt><trkpt lat="37.2591662" lon="22.0068498"><ele>110.66666666666666</ele><time>2026-04-30T08:07:09.898Z</time></trkpt><trkpt lat="37.2591805" lon="22.0066035"><ele>110.0</ele><time>2026-04-30T08:07:10.898Z</time></trkpt><trkpt lat="37.2591905" lon="22.0063523"><ele>110.0</ele><time>2026-04-30T08:07:11.898Z</time></trkpt><trkpt lat="37.2591981" lon="22.0060895"><ele>110.0</ele><time>2026-04-30T08:07:12.897Z</time></trkpt><trkpt lat="37.2592012" lon="22.0058239"><ele>110.0</ele><time>2026-04-30T08:07:13.897Z</time></trkpt><trkpt lat="37.2591944" lon="22.0055524"><ele>108.66666666666666</ele><time>2026-04-30T08:07:14.897Z</time></trkpt><trkpt lat="37.2591825" lon="22.0052813"><ele>107.33333333333334</ele><time>2026-04-30T08:07:15.897Z</time></trkpt><trkpt lat="37.2591609" lon="22.0050112"><ele>106.0</ele><time>2026-04-30T08:07:16.897Z</time></trkpt><trkpt lat="37.2591431" lon="22.0047352"><ele>105.66666666666667</ele><time>2026-04-30T08:07:17.897Z</time></trkpt><trkpt lat="37.2591109" lon="22.0044559"><ele>105.33333333333334</ele><time>2026-04-30T08:07:18.897Z</time></trkpt><trkpt lat="37.2590703" lon="22.0041843"><ele>105.0</ele><time>2026-04-30T08:07:19.898Z</time></trkpt><trkpt lat="37.2590232" lon="22.0039096"><ele>104.33333333333334</ele><time>2026-04-30T08:07:20.897Z</time></trkpt><trkpt lat="37.2589644" lon="22.0036418"><ele>103.66666666666667</ele><time>2026-04-30T08:07:21.898Z</time></trkpt><trkpt lat="37.2589055" lon="22.0033805"><ele>103.0</ele><time>2026-04-30T08:07:22.898Z</time></trkpt><trkpt lat="37.2588502" lon="22.0031279"><ele>102.66666666666667</ele><time>2026-04-30T08:07:23.897Z</time></trkpt><trkpt lat="37.2587951" lon="22.002876"><ele>102.33333333333334</ele><time>2026-04-30T08:07:24.897Z</time></trkpt><trkpt lat="37.2587314" lon="22.0026237"><ele>102.0</ele><time>2026-04-30T08:07:25.898Z</time></trkpt><trkpt lat="37.2586774" lon="22.0023743"><ele>101.66666666666666</ele><time>2026-04-30T08:07:26.897Z</time></trkpt><trkpt lat="37.2586321" lon="22.0021373"><ele>101.33333333333333</ele><time>2026-04-30T08:07:27.897Z</time></trkpt><trkpt lat="37.2585786" lon="22.0019061"><ele>101.0</ele><time>2026-04-30T08:07:28.898Z</time></trkpt><trkpt lat="37.2585303" lon="22.001686"><ele>99.33333333333333</ele><time>2026-04-30T08:07:29.897Z</time></trkpt><trkpt lat="37.2584702" lon="22.0014722"><ele>97.66666666666666</ele><time>2026-04-30T08:07:30.897Z</time></trkpt><trkpt lat="37.2584233" lon="22.0012621"><ele>96.0</ele><time>2026-04-30T08:07:31.897Z</time></trkpt><trkpt lat="37.2583818" lon="22.0010611"><ele>96.0</ele><time>2026-04-30T08:07:32.898Z</time></trkpt><trkpt lat="37.2583455" lon="22.0008683"><ele>96.0</ele><time>2026-04-30T08:07:33.897Z</time></trkpt><trkpt lat="37.2583105" lon="22.0006828"><ele>96.0</ele><time>2026-04-30T08:07:34.897Z</time></trkpt><trkpt lat="37.2582765" lon="22.0004979"><ele>96.0</ele><time>2026-04-30T08:07:35.898Z</time></trkpt><trkpt lat="37.2582511" lon="22.0003125"><ele>96.0</ele><time>2026-04-30T08:07:36.898Z</time></trkpt><trkpt lat="37.2582113" lon="22.0001227"><ele>96.0</ele><time>2026-04-30T08:07:37.897Z</time></trkpt><trkpt lat="37.2581673" lon="21.9999205"><ele>96.0</ele><time>2026-04-30T08:07:38.898Z</time></trkpt><trkpt lat="37.2581197" lon="21.9997163"><ele>96.0</ele><time>2026-04-30T08:07:39.897Z</time></trkpt><trkpt lat="37.2580707" lon="21.9995032"><ele>96.0</ele><time>2026-04-30T08:07:40.897Z</time></trkpt><trkpt lat="37.2580187" lon="21.9992784"><ele>95.66666666666667</ele><time>2026-04-30T08:07:41.897Z</time></trkpt><trkpt lat="37.2579588" lon="21.9990392"><ele>95.33333333333334</ele><time>2026-04-30T08:07:42.898Z</time></trkpt><trkpt lat="37.2579006" lon="21.9988015"><ele>95.0</ele><time>2026-04-30T08:07:43.897Z</time></trkpt><trkpt lat="37.2578496" lon="21.9985714"><ele>94.66666666666667</ele><time>2026-04-30T08:07:44.898Z</time></trkpt><trkpt lat="37.2577758" lon="21.9983273"><ele>94.33333333333333</ele><time>2026-04-30T08:07:45.897Z</time></trkpt><trkpt lat="37.257711" lon="21.9980911"><ele>94.0</ele><time>2026-04-30T08:07:46.898Z</time></trkpt><trkpt lat="37.2576489" lon="21.9978369"><ele>94.0</ele><time>2026-04-30T08:07:47.897Z</time></trkpt><trkpt lat="37.2575834" lon="21.9975648"><ele>94.0</ele><time>2026-04-30T08:07:48.897Z</time></trkpt><trkpt lat="37.2575179" lon="21.9972739"><ele>94.5</ele><time>2026-04-30T08:07:49.897Z</time></trkpt><trkpt lat="37.257458" lon="21.9969849"><ele>95.0</ele><time>2026-04-30T08:07:50.897Z</time></trkpt><trkpt lat="37.2573996" lon="21.9966978"><ele>93.5</ele><time>2026-04-30T08:07:51.898Z</time></trkpt><trkpt lat="37.2573427" lon="21.9964126"><ele>92.0</ele><time>2026-04-30T08:07:52.897Z</time></trkpt><trkpt lat="37.2572869" lon="21.9961331"><ele>91.0</ele><time>2026-04-30T08:07:53.898Z</time></trkpt><trkpt lat="37.2572307" lon="21.9958607"><ele>90.0</ele><time>2026-04-30T08:07:54.897Z</time></trkpt><trkpt lat="37.2571718" lon="21.9955805"><ele>90.0</ele><time>2026-04-30T08:07:55.898Z</time></trkpt><trkpt lat="37.2571169" lon="21.9953054"><ele>90.0</ele><time>2026-04-30T08:07:56.898Z</time></trkpt><trkpt lat="37.2570598" lon="21.9950311"><ele>90.0</ele><time>2026-04-30T08:07:57.897Z</time></trkpt><trkpt lat="37.2570061" lon="21.9947551"><ele>90.0</ele><time>2026-04-30T08:07:58.898Z</time></trkpt><trkpt lat="37.2569378" lon="21.9944747"><ele>90.0</ele><time>2026-04-30T08:07:59.897Z</time></trkpt><trkpt lat="37.2568757" lon="21.9942025"><ele>90.0</ele><time>2026-04-30T08:08:00.898Z</time></trkpt><trkpt lat="37.2568085" lon="21.9939267"><ele>89.5</ele><time>2026-04-30T08:08:01.898Z</time></trkpt><trkpt lat="37.2567343" lon="21.9936547"><ele>89.0</ele><time>2026-04-30T08:08:02.897Z</time></trkpt><trkpt lat="37.2566742" lon="21.9933821"><ele>88.33333333333334</ele><time>2026-04-30T08:08:03.898Z</time></trkpt><trkpt lat="37.2566173" lon="21.9931094"><ele>87.66666666666667</ele><time>2026-04-30T08:08:04.897Z</time></trkpt><trkpt lat="37.2565645" lon="21.9928352"><ele>87.0</ele><time>2026-04-30T08:08:05.897Z</time></trkpt><trkpt lat="37.2565092" lon="21.9925641"><ele>86.0</ele><time>2026-04-30T08:08:06.897Z</time></trkpt><trkpt lat="37.2564534" lon="21.9922962"><ele>85.0</ele><time>2026-04-30T08:08:07.898Z</time></trkpt><trkpt lat="37.256398" lon="21.9920296"><ele>84.0</ele><time>2026-04-30T08:08:08.898Z</time></trkpt><trkpt lat="37.2563408" lon="21.9917557"><ele>83.0</ele><time>2026-04-30T08:08:09.898Z</time></trkpt><trkpt lat="37.256279" lon="21.9914734"><ele>82.0</ele><time>2026-04-30T08:08:10.897Z</time></trkpt><trkpt lat="37.2562195" lon="21.991197"><ele>82.0</ele><time>2026-04-30T08:08:11.897Z</time></trkpt><trkpt lat="37.2561558" lon="21.9909133"><ele>82.0</ele><time>2026-04-30T08:08:12.897Z</time></trkpt><trkpt lat="37.2560858" lon="21.9906227"><ele>82.0</ele><time>2026-04-30T08:08:13.897Z</time></trkpt><trkpt lat="37.2560201" lon="21.9903252"><ele>82.0</ele><time>2026-04-30T08:08:14.897Z</time></trkpt><trkpt lat="37.2559578" lon="21.9900206"><ele>82.0</ele><time>2026-04-30T08:08:15.897Z</time></trkpt><trkpt lat="37.2559003" lon="21.9897107"><ele>82.0</ele><time>2026-04-30T08:08:16.898Z</time></trkpt><trkpt lat="37.2558339" lon="21.9894003"><ele>81.0</ele><time>2026-04-30T08:08:17.898Z</time></trkpt><trkpt lat="37.2557685" lon="21.9890957"><ele>80.0</ele><time>2026-04-30T08:08:18.897Z</time></trkpt><trkpt lat="37.2557039" lon="21.9887885"><ele>80.0</ele><time>2026-04-30T08:08:19.898Z</time></trkpt><trkpt lat="37.2556319" lon="21.988487"><ele>80.0</ele><time>2026-04-30T08:08:20.897Z</time></trkpt><trkpt lat="37.2555599" lon="21.988184"><ele>79.5</ele><time>2026-04-30T08:08:21.898Z</time></trkpt><trkpt lat="37.2554944" lon="21.9878872"><ele>79.0</ele><time>2026-04-30T08:08:22.898Z</time></trkpt><trkpt lat="37.2554241" lon="21.987584"><ele>80.0</ele><time>2026-04-30T08:08:23.898Z</time></trkpt><trkpt lat="37.2553605" lon="21.9872922"><ele>81.0</ele><time>2026-04-30T08:08:24.898Z</time></trkpt><trkpt lat="37.2552983" lon="21.9869959"><ele>81.0</ele><time>2026-04-30T08:08:25.897Z</time></trkpt><trkpt lat="37.2552297" lon="21.986695"><ele>81.0</ele><time>2026-04-30T08:08:26.898Z</time></trkpt><trkpt lat="37.2551653" lon="21.9864032"><ele>80.0</ele><time>2026-04-30T08:08:27.898Z</time></trkpt><trkpt lat="37.2551019" lon="21.986116"><ele>79.0</ele><time>2026-04-30T08:08:28.897Z</time></trkpt><trkpt lat="37.2550393" lon="21.9858306"><ele>78.5</ele><time>2026-04-30T08:08:29.898Z</time></trkpt><trkpt lat="37.2549753" lon="21.9855541"><ele>78.0</ele><time>2026-04-30T08:08:30.897Z</time></trkpt><trkpt lat="37.2549119" lon="21.9852762"><ele>77.5</ele><time>2026-04-30T08:08:31.898Z</time></trkpt><trkpt lat="37.2548462" lon="21.984994"><ele>77.0</ele><time>2026-04-30T08:08:32.898Z</time></trkpt><trkpt lat="37.2547864" lon="21.9847229"><ele>76.66666666666667</ele><time>2026-04-30T08:08:33.897Z</time></trkpt><trkpt lat="37.254725" lon="21.9844559"><ele>76.33333333333333</ele><time>2026-04-30T08:08:34.898Z</time></trkpt><trkpt lat="37.2546682" lon="21.9841954"><ele>76.0</ele><time>2026-04-30T08:08:35.897Z</time></trkpt><trkpt lat="37.2546108" lon="21.9839375"><ele>76.0</ele><time>2026-04-30T08:08:36.898Z</time></trkpt><trkpt lat="37.2545607" lon="21.983688"><ele>76.0</ele><time>2026-04-30T08:08:37.898Z</time></trkpt><trkpt lat="37.2545031" lon="21.9834292"><ele>76.0</ele><time>2026-04-30T08:08:38.898Z</time></trkpt><trkpt lat="37.2544415" lon="21.9831763"><ele>76.0</ele><time>2026-04-30T08:08:39.898Z</time></trkpt><trkpt lat="37.2543893" lon="21.9829243"><ele>76.0</ele><time>2026-04-30T08:08:40.897Z</time></trkpt><trkpt lat="37.2543334" lon="21.9826693"><ele>76.0</ele><time>2026-04-30T08:08:41.897Z</time></trkpt><trkpt lat="37.2542755" lon="21.9824137"><ele>75.66666666666666</ele><time>2026-04-30T08:08:42.897Z</time></trkpt><trkpt lat="37.2542156" lon="21.9821588"><ele>75.33333333333333</ele><time>2026-04-30T08:08:43.897Z</time></trkpt><trkpt lat="37.2541561" lon="21.9818997"><ele>75.0</ele><time>2026-04-30T08:08:44.898Z</time></trkpt><trkpt lat="37.2541039" lon="21.9816403"><ele>75.0</ele><time>2026-04-30T08:08:45.898Z</time></trkpt><trkpt lat="37.2540487" lon="21.9813764"><ele>75.0</ele><time>2026-04-30T08:08:46.898Z</time></trkpt><trkpt lat="37.2539901" lon="21.9811159"><ele>75.0</ele><time>2026-04-30T08:08:47.898Z</time></trkpt><trkpt lat="37.2539152" lon="21.9808497"><ele>75.0</ele><time>2026-04-30T08:08:48.897Z</time></trkpt><trkpt lat="37.2538634" lon="21.9805982"><ele>75.0</ele><time>2026-04-30T08:08:49.898Z</time></trkpt><trkpt lat="37.2538053" lon="21.9803486"><ele>75.0</ele><time>2026-04-30T08:08:50.897Z</time></trkpt><trkpt lat="37.2537489" lon="21.9800967"><ele>74.66666666666667</ele><time>2026-04-30T08:08:51.898Z</time></trkpt><trkpt lat="37.253694" lon="21.979842"><ele>74.33333333333334</ele><time>2026-04-30T08:08:52.898Z</time></trkpt><trkpt lat="37.2536223" lon="21.9795866"><ele>74.0</ele><time>2026-04-30T08:08:53.898Z</time></trkpt><trkpt lat="37.2535648" lon="21.9793399"><ele>73.66666666666667</ele><time>2026-04-30T08:08:54.897Z</time></trkpt><trkpt lat="37.2535145" lon="21.9790937"><ele>73.33333333333333</ele><time>2026-04-30T08:08:55.898Z</time></trkpt><trkpt lat="37.2534631" lon="21.9788439"><ele>73.0</ele><time>2026-04-30T08:08:56.898Z</time></trkpt><trkpt lat="37.2534098" lon="21.9785912"><ele>72.66666666666666</ele><time>2026-04-30T08:08:57.898Z</time></trkpt><trkpt lat="37.2533661" lon="21.9783442"><ele>72.33333333333333</ele><time>2026-04-30T08:08:58.898Z</time></trkpt><trkpt lat="37.2533331" lon="21.9781119"><ele>72.0</ele><time>2026-04-30T08:08:59.898Z</time></trkpt><trkpt lat="37.2533098" lon="21.977886"><ele>72.0</ele><time>2026-04-30T08:09:00.897Z</time></trkpt><trkpt lat="37.2532907" lon="21.9776668"><ele>72.0</ele><time>2026-04-30T08:09:01.898Z</time></trkpt><trkpt lat="37.2532767" lon="21.9774516"><ele>72.0</ele><time>2026-04-30T08:09:02.898Z</time></trkpt><trkpt lat="37.253262" lon="21.9772281"><ele>72.0</ele><time>2026-04-30T08:09:03.897Z</time></trkpt><trkpt lat="37.2532535" lon="21.9769972"><ele>72.0</ele><time>2026-04-30T08:09:04.898Z</time></trkpt><trkpt lat="37.2532498" lon="21.9767588"><ele>72.0</ele><time>2026-04-30T08:09:05.898Z</time></trkpt><trkpt lat="37.2532687" lon="21.9765084"><ele>72.0</ele><time>2026-04-30T08:09:06.897Z</time></trkpt><trkpt lat="37.2532916" lon="21.9762138"><ele>72.0</ele><time>2026-04-30T08:09:07.897Z</time></trkpt><trkpt lat="37.253325" lon="21.975904"><ele>73.0</ele><time>2026-04-30T08:09:08.898Z</time></trkpt><trkpt lat="37.2533712" lon="21.9755903"><ele>74.0</ele><time>2026-04-30T08:09:09.897Z</time></trkpt><trkpt lat="37.2534139" lon="21.9752816"><ele>74.0</ele><time>2026-04-30T08:09:10.898Z</time></trkpt><trkpt lat="37.2534552" lon="21.974985"><ele>74.0</ele><time>2026-04-30T08:09:11.898Z</time></trkpt><trkpt lat="37.2535034" lon="21.974698"><ele>74.0</ele><time>2026-04-30T08:09:12.897Z</time></trkpt><trkpt lat="37.2535418" lon="21.9744156"><ele>74.0</ele><time>2026-04-30T08:09:13.898Z</time></trkpt><trkpt lat="37.2535799" lon="21.9741303"><ele>74.5</ele><time>2026-04-30T08:09:14.897Z</time></trkpt><trkpt lat="37.2536176" lon="21.9738477"><ele>75.0</ele><time>2026-04-30T08:09:15.897Z</time></trkpt><trkpt lat="37.2536565" lon="21.9735696"><ele>74.66666666666667</ele><time>2026-04-30T08:09:16.898Z</time></trkpt><trkpt lat="37.2536898" lon="21.9732917"><ele>74.33333333333334</ele><time>2026-04-30T08:09:17.898Z</time></trkpt><trkpt lat="37.2537232" lon="21.9730187"><ele>74.0</ele><time>2026-04-30T08:09:18.898Z</time></trkpt><trkpt lat="37.2537579" lon="21.9727491"><ele>73.66666666666667</ele><time>2026-04-30T08:09:19.897Z</time></trkpt><trkpt lat="37.2537963" lon="21.9724799"><ele>73.33333333333333</ele><time>2026-04-30T08:09:20.898Z</time></trkpt><trkpt lat="37.2538368" lon="21.9722135"><ele>73.0</ele><time>2026-04-30T08:09:21.897Z</time></trkpt><trkpt lat="37.2538774" lon="21.97195"><ele>73.0</ele><time>2026-04-30T08:09:22.898Z</time></trkpt><trkpt lat="37.2539142" lon="21.971693"><ele>73.0</ele><time>2026-04-30T08:09:23.897Z</time></trkpt><trkpt lat="37.2539517" lon="21.9714256"><ele>73.0</ele><time>2026-04-30T08:09:24.897Z</time></trkpt><trkpt lat="37.2539885" lon="21.9711624"><ele>73.33333333333333</ele><time>2026-04-30T08:09:25.898Z</time></trkpt><trkpt lat="37.2540241" lon="21.9709011"><ele>73.66666666666667</ele><time>2026-04-30T08:09:26.898Z</time></trkpt><trkpt lat="37.2540593" lon="21.9706367"><ele>74.0</ele><time>2026-04-30T08:09:27.898Z</time></trkpt><trkpt lat="37.2540986" lon="21.9703786"><ele>75.0</ele><time>2026-04-30T08:09:28.898Z</time></trkpt><trkpt lat="37.254151" lon="21.970109"><ele>76.0</ele><time>2026-04-30T08:09:29.898Z</time></trkpt><trkpt lat="37.2541926" lon="21.9698339"><ele>77.0</ele><time>2026-04-30T08:09:30.897Z</time></trkpt><trkpt lat="37.2542321" lon="21.9695511"><ele>76.5</ele><time>2026-04-30T08:09:31.897Z</time></trkpt><trkpt lat="37.2542704" lon="21.9692653"><ele>76.0</ele><time>2026-04-30T08:09:32.897Z</time></trkpt><trkpt lat="37.2543069" lon="21.9689753"><ele>76.0</ele><time>2026-04-30T08:09:33.898Z</time></trkpt><trkpt lat="37.254351" lon="21.9686778"><ele>76.0</ele><time>2026-04-30T08:09:34.897Z</time></trkpt><trkpt lat="37.2543914" lon="21.9683817"><ele>73.0</ele><time>2026-04-30T08:09:35.898Z</time></trkpt><trkpt lat="37.2544361" lon="21.9680806"><ele>70.0</ele><time>2026-04-30T08:09:36.898Z</time></trkpt><trkpt lat="37.2544849" lon="21.9677784"><ele>70.0</ele><time>2026-04-30T08:09:37.898Z</time></trkpt><trkpt lat="37.2545285" lon="21.9674761"><ele>70.0</ele><time>2026-04-30T08:09:38.898Z</time></trkpt><trkpt lat="37.2545514" lon="21.9671752"><ele>70.0</ele><time>2026-04-30T08:09:39.897Z</time></trkpt><trkpt lat="37.2545945" lon="21.9668806"><ele>70.0</ele><time>2026-04-30T08:09:40.898Z</time></trkpt><trkpt lat="37.2546329" lon="21.9665917"><ele>70.5</ele><time>2026-04-30T08:09:41.897Z</time></trkpt><trkpt lat="37.2546741" lon="21.9663062"><ele>71.0</ele><time>2026-04-30T08:09:42.897Z</time></trkpt><trkpt lat="37.2547116" lon="21.9660241"><ele>71.0</ele><time>2026-04-30T08:09:43.897Z</time></trkpt><trkpt lat="37.2547501" lon="21.96574"><ele>71.0</ele><time>2026-04-30T08:09:44.897Z</time></trkpt><trkpt lat="37.2547935" lon="21.9654544"><ele>71.5</ele><time>2026-04-30T08:09:45.898Z</time></trkpt><trkpt lat="37.2548325" lon="21.9651738"><ele>72.0</ele><time>2026-04-30T08:09:46.897Z</time></trkpt><trkpt lat="37.2548837" lon="21.9648885"><ele>72.5</ele><time>2026-04-30T08:09:47.897Z</time></trkpt><trkpt lat="37.254919" lon="21.9646052"><ele>73.0</ele><time>2026-04-30T08:09:48.897Z</time></trkpt><trkpt lat="37.2549568" lon="21.964324"><ele>72.0</ele><time>2026-04-30T08:09:49.897Z</time></trkpt><trkpt lat="37.2550007" lon="21.964044"><ele>71.0</ele><time>2026-04-30T08:09:50.897Z</time></trkpt><trkpt lat="37.2550446" lon="21.9637646"><ele>71.0</ele><time>2026-04-30T08:09:51.898Z</time></trkpt><trkpt lat="37.2550868" lon="21.9634829"><ele>71.0</ele><time>2026-04-30T08:09:52.898Z</time></trkpt><trkpt lat="37.2551266" lon="21.9631981"><ele>71.0</ele><time>2026-04-30T08:09:53.897Z</time></trkpt><trkpt lat="37.2551649" lon="21.9629189"><ele>71.0</ele><time>2026-04-30T08:09:54.898Z</time></trkpt><trkpt lat="37.2552077" lon="21.9626452"><ele>71.0</ele><time>2026-04-30T08:09:55.898Z</time></trkpt><trkpt lat="37.2552501" lon="21.9623639"><ele>71.0</ele><time>2026-04-30T08:09:56.897Z</time></trkpt><trkpt lat="37.2552913" lon="21.9620941"><ele>71.0</ele><time>2026-04-30T08:09:57.897Z</time></trkpt><trkpt lat="37.2553307" lon="21.9618199"><ele>71.0</ele><time>2026-04-30T08:09:58.898Z</time></trkpt><trkpt lat="37.2553735" lon="21.9615389"><ele>71.0</ele><time>2026-04-30T08:09:59.898Z</time></trkpt><trkpt lat="37.255411" lon="21.9612642"><ele>71.0</ele><time>2026-04-30T08:10:00.898Z</time></trkpt><trkpt lat="37.2554466" lon="21.9609926"><ele>71.0</ele><time>2026-04-30T08:10:01.898Z</time></trkpt><trkpt lat="37.2554821" lon="21.9607212"><ele>71.0</ele><time>2026-04-30T08:10:02.898Z</time></trkpt><trkpt lat="37.2555191" lon="21.9604412"><ele>71.0</ele><time>2026-04-30T08:10:03.897Z</time></trkpt><trkpt lat="37.2555577" lon="21.9601734"><ele>71.0</ele><time>2026-04-30T08:10:04.897Z</time></trkpt><trkpt lat="37.2555941" lon="21.9599027"><ele>70.66666666666667</ele><time>2026-04-30T08:10:05.898Z</time></trkpt><trkpt lat="37.2556384" lon="21.9596297"><ele>70.33333333333333</ele><time>2026-04-30T08:10:06.898Z</time></trkpt><trkpt lat="37.2556744" lon="21.9593554"><ele>70.0</ele><time>2026-04-30T08:10:07.898Z</time></trkpt><trkpt lat="37.2557165" lon="21.9590884"><ele>70.0</ele><time>2026-04-30T08:10:08.898Z</time></trkpt><trkpt lat="37.2557457" lon="21.9588073"><ele>70.0</ele><time>2026-04-30T08:10:09.898Z</time></trkpt><trkpt lat="37.2557877" lon="21.9585274"><ele>70.0</ele><time>2026-04-30T08:10:10.897Z</time></trkpt><trkpt lat="37.2558309" lon="21.9582486"><ele>70.0</ele><time>2026-04-30T08:10:11.897Z</time></trkpt><trkpt lat="37.2558727" lon="21.957968"><ele>70.0</ele><time>2026-04-30T08:10:12.898Z</time></trkpt><trkpt lat="37.2559135" lon="21.9576928"><ele>70.0</ele><time>2026-04-30T08:10:13.898Z</time></trkpt><trkpt lat="37.255954" lon="21.9574155"><ele>70.0</ele><time>2026-04-30T08:10:14.897Z</time></trkpt><trkpt lat="37.2559995" lon="21.9571245"><ele>70.0</ele><time>2026-04-30T08:10:15.898Z</time></trkpt><trkpt lat="37.2560416" lon="21.9568516"><ele>70.0</ele><time>2026-04-30T08:10:16.897Z</time></trkpt><trkpt lat="37.2560796" lon="21.9565794"><ele>70.0</ele><time>2026-04-30T08:10:17.898Z</time></trkpt><trkpt lat="37.2561155" lon="21.9563213"><ele>70.33333333333333</ele><time>2026-04-30T08:10:18.897Z</time></trkpt><trkpt lat="37.2561538" lon="21.9560654"><ele>70.66666666666667</ele><time>2026-04-30T08:10:19.897Z</time></trkpt><trkpt lat="37.2561938" lon="21.9558171"><ele>71.0</ele><time>2026-04-30T08:10:20.898Z</time></trkpt><trkpt lat="37.2562309" lon="21.9555578"><ele>71.0</ele><time>2026-04-30T08:10:21.897Z</time></trkpt><trkpt lat="37.2562667" lon="21.955298"><ele>71.0</ele><time>2026-04-30T08:10:22.897Z</time></trkpt><trkpt lat="37.2563046" lon="21.9550356"><ele>71.0</ele><time>2026-04-30T08:10:23.898Z</time></trkpt><trkpt lat="37.2563417" lon="21.9547737"><ele>71.0</ele><time>2026-04-30T08:10:24.897Z</time></trkpt><trkpt lat="37.2563815" lon="21.9545158"><ele>71.0</ele><time>2026-04-30T08:10:25.898Z</time></trkpt><trkpt lat="37.2564188" lon="21.954256"><ele>71.0</ele><time>2026-04-30T08:10:26.897Z</time></trkpt><trkpt lat="37.2564577" lon="21.953994"><ele>71.0</ele><time>2026-04-30T08:10:27.898Z</time></trkpt><trkpt lat="37.256493" lon="21.9537066"><ele>71.0</ele><time>2026-04-30T08:10:28.897Z</time></trkpt><trkpt lat="37.256531" lon="21.9534125"><ele>70.5</ele><time>2026-04-30T08:10:29.897Z</time></trkpt><trkpt lat="37.2565695" lon="21.9531053"><ele>70.0</ele><time>2026-04-30T08:10:30.897Z</time></trkpt><trkpt lat="37.2566093" lon="21.9527802"><ele>70.0</ele><time>2026-04-30T08:10:31.898Z</time></trkpt><trkpt lat="37.2566538" lon="21.9524492"><ele>70.0</ele><time>2026-04-30T08:10:32.898Z</time></trkpt><trkpt lat="37.256699" lon="21.9521139"><ele>70.0</ele><time>2026-04-30T08:10:33.897Z</time></trkpt><trkpt lat="37.2567468" lon="21.9517767"><ele>70.0</ele><time>2026-04-30T08:10:34.898Z</time></trkpt><trkpt lat="37.2568021" lon="21.9514465"><ele>69.5</ele><time>2026-04-30T08:10:35.897Z</time></trkpt><trkpt lat="37.2568538" lon="21.9511339"><ele>69.0</ele><time>2026-04-30T08:10:36.897Z</time></trkpt><trkpt lat="37.2568995" lon="21.9508292"><ele>69.0</ele><time>2026-04-30T08:10:37.898Z</time></trkpt><trkpt lat="37.2569417" lon="21.9505338"><ele>69.0</ele><time>2026-04-30T08:10:38.897Z</time></trkpt><trkpt lat="37.2569832" lon="21.9502437"><ele>69.0</ele><time>2026-04-30T08:10:39.897Z</time></trkpt><trkpt lat="37.2570226" lon="21.9499579"><ele>69.0</ele><time>2026-04-30T08:10:40.897Z</time></trkpt><trkpt lat="37.2570609" lon="21.9496777"><ele>69.0</ele><time>2026-04-30T08:10:41.897Z</time></trkpt><trkpt lat="37.2570999" lon="21.9494046"><ele>69.0</ele><time>2026-04-30T08:10:42.897Z</time></trkpt><trkpt lat="37.2571397" lon="21.9491343"><ele>69.0</ele><time>2026-04-30T08:10:43.898Z</time></trkpt><trkpt lat="37.2571785" lon="21.9488624"><ele>68.66666666666667</ele><time>2026-04-30T08:10:44.897Z</time></trkpt><trkpt lat="37.2572177" lon="21.9485911"><ele>68.33333333333334</ele><time>2026-04-30T08:10:45.897Z</time></trkpt><trkpt lat="37.2572542" lon="21.9483206"><ele>68.0</ele><time>2026-04-30T08:10:46.897Z</time></trkpt><trkpt lat="37.2572912" lon="21.9480567"><ele>68.66666666666667</ele><time>2026-04-30T08:10:47.897Z</time></trkpt><trkpt lat="37.2573279" lon="21.9477912"><ele>69.33333333333333</ele><time>2026-04-30T08:10:48.897Z</time></trkpt><trkpt lat="37.2573672" lon="21.9475262"><ele>70.0</ele><time>2026-04-30T08:10:49.898Z</time></trkpt><trkpt lat="37.2574011" lon="21.9472588"><ele>70.66666666666666</ele><time>2026-04-30T08:10:50.897Z</time></trkpt><trkpt lat="37.2574348" lon="21.9469981"><ele>71.33333333333333</ele><time>2026-04-30T08:10:51.897Z</time></trkpt><trkpt lat="37.2574762" lon="21.946728"><ele>72.0</ele><time>2026-04-30T08:10:52.898Z</time></trkpt><trkpt lat="37.2575164" lon="21.9464643"><ele>72.0</ele><time>2026-04-30T08:10:53.897Z</time></trkpt><trkpt lat="37.2575532" lon="21.9462012"><ele>72.0</ele><time>2026-04-30T08:10:54.897Z</time></trkpt><trkpt lat="37.2575827" lon="21.9459347"><ele>72.0</ele><time>2026-04-30T08:10:55.898Z</time></trkpt><trkpt lat="37.2576159" lon="21.9456689"><ele>72.0</ele><time>2026-04-30T08:10:56.898Z</time></trkpt><trkpt lat="37.2576566" lon="21.9453922"><ele>72.0</ele><time>2026-04-30T08:10:57.898Z</time></trkpt><trkpt lat="37.2576909" lon="21.9451305"><ele>72.0</ele><time>2026-04-30T08:10:58.897Z</time></trkpt><trkpt lat="37.2577202" lon="21.9448614"><ele>72.0</ele><time>2026-04-30T08:10:59.898Z</time></trkpt><trkpt lat="37.2577567" lon="21.9445898"><ele>72.0</ele><time>2026-04-30T08:11:00.897Z</time></trkpt><trkpt lat="37.257791" lon="21.944321"><ele>72.0</ele><time>2026-04-30T08:11:01.898Z</time></trkpt><trkpt lat="37.2578343" lon="21.9440514"><ele>72.33333333333333</ele><time>2026-04-30T08:11:02.897Z</time></trkpt><trkpt lat="37.2578803" lon="21.9437836"><ele>72.66666666666666</ele><time>2026-04-30T08:11:03.897Z</time></trkpt><trkpt lat="37.2579235" lon="21.9435117"><ele>73.0</ele><time>2026-04-30T08:11:04.897Z</time></trkpt><trkpt lat="37.2579452" lon="21.943241"><ele>73.33333333333333</ele><time>2026-04-30T08:11:05.898Z</time></trkpt><trkpt lat="37.2579845" lon="21.9429731"><ele>73.66666666666667</ele><time>2026-04-30T08:11:06.898Z</time></trkpt><trkpt lat="37.2580226" lon="21.9427058"><ele>74.0</ele><time>2026-04-30T08:11:07.897Z</time></trkpt><trkpt lat="37.2580671" lon="21.9424423"><ele>74.33333333333334</ele><time>2026-04-30T08:11:08.897Z</time></trkpt><trkpt lat="37.2581071" lon="21.9421739"><ele>74.66666666666667</ele><time>2026-04-30T08:11:09.898Z</time></trkpt><trkpt lat="37.2581468" lon="21.9419082"><ele>75.0</ele><time>2026-04-30T08:11:10.897Z</time></trkpt><trkpt lat="37.2581774" lon="21.9416361"><ele>75.33333333333333</ele><time>2026-04-30T08:11:11.898Z</time></trkpt><trkpt lat="37.2582143" lon="21.9413689"><ele>75.66666666666666</ele><time>2026-04-30T08:11:12.897Z</time></trkpt><trkpt lat="37.2582578" lon="21.9411032"><ele>76.0</ele><time>2026-04-30T08:11:13.897Z</time></trkpt><trkpt lat="37.2582973" lon="21.9408374"><ele>76.33333333333333</ele><time>2026-04-30T08:11:14.898Z</time></trkpt><trkpt lat="37.2583311" lon="21.940572"><ele>76.66666666666667</ele><time>2026-04-30T08:11:15.898Z</time></trkpt><trkpt lat="37.2583608" lon="21.9403086"><ele>77.0</ele><time>2026-04-30T08:11:16.898Z</time></trkpt><trkpt lat="37.2583968" lon="21.940048"><ele>77.33333333333334</ele><time>2026-04-30T08:11:17.898Z</time></trkpt><trkpt lat="37.2584356" lon="21.9397904"><ele>77.66666666666667</ele><time>2026-04-30T08:11:18.897Z</time></trkpt><trkpt lat="37.2584783" lon="21.9395356"><ele>78.0</ele><time>2026-04-30T08:11:19.898Z</time></trkpt><trkpt lat="37.2585143" lon="21.9392728"><ele>78.0</ele><time>2026-04-30T08:11:20.897Z</time></trkpt><trkpt lat="37.2585506" lon="21.9390126"><ele>78.0</ele><time>2026-04-30T08:11:21.897Z</time></trkpt><trkpt lat="37.2585877" lon="21.938749"><ele>78.0</ele><time>2026-04-30T08:11:22.897Z</time></trkpt><trkpt lat="37.2586198" lon="21.9384919"><ele>78.33333333333333</ele><time>2026-04-30T08:11:23.898Z</time></trkpt><trkpt lat="37.2586507" lon="21.938243"><ele>78.66666666666666</ele><time>2026-04-30T08:11:24.897Z</time></trkpt><trkpt lat="37.2586885" lon="21.9379905"><ele>79.0</ele><time>2026-04-30T08:11:25.898Z</time></trkpt><trkpt lat="37.2587331" lon="21.9377371"><ele>79.66666666666666</ele><time>2026-04-30T08:11:26.898Z</time></trkpt><trkpt lat="37.258778" lon="21.9374811"><ele>80.33333333333333</ele><time>2026-04-30T08:11:27.897Z</time></trkpt><trkpt lat="37.2588207" lon="21.9372269"><ele>81.0</ele><time>2026-04-30T08:11:28.898Z</time></trkpt><trkpt lat="37.2588574" lon="21.9369675"><ele>81.0</ele><time>2026-04-30T08:11:29.898Z</time></trkpt><trkpt lat="37.2588939" lon="21.9367103"><ele>81.0</ele><time>2026-04-30T08:11:30.898Z</time></trkpt><trkpt lat="37.2589361" lon="21.936453"><ele>81.0</ele><time>2026-04-30T08:11:31.898Z</time></trkpt><trkpt lat="37.2589656" lon="21.9361938"><ele>81.0</ele><time>2026-04-30T08:11:32.897Z</time></trkpt><trkpt lat="37.2589971" lon="21.9359269"><ele>81.0</ele><time>2026-04-30T08:11:33.898Z</time></trkpt><trkpt lat="37.2590234" lon="21.9356667"><ele>81.0</ele><time>2026-04-30T08:11:34.898Z</time></trkpt><trkpt lat="37.2590569" lon="21.9353983"><ele>81.33333333333333</ele><time>2026-04-30T08:11:35.897Z</time></trkpt><trkpt lat="37.2590919" lon="21.9351341"><ele>81.66666666666666</ele><time>2026-04-30T08:11:36.897Z</time></trkpt><trkpt lat="37.2591248" lon="21.9348731"><ele>82.0</ele><time>2026-04-30T08:11:37.898Z</time></trkpt><trkpt lat="37.2591672" lon="21.9346099"><ele>82.33333333333333</ele><time>2026-04-30T08:11:38.898Z</time></trkpt><trkpt lat="37.2592054" lon="21.9343466"><ele>82.66666666666667</ele><time>2026-04-30T08:11:39.897Z</time></trkpt><trkpt lat="37.2592524" lon="21.9340777"><ele>83.0</ele><time>2026-04-30T08:11:40.897Z</time></trkpt><trkpt lat="37.2592942" lon="21.9338181"><ele>83.33333333333334</ele><time>2026-04-30T08:11:41.898Z</time></trkpt><trkpt lat="37.2593304" lon="21.9335544"><ele>83.66666666666667</ele><time>2026-04-30T08:11:42.898Z</time></trkpt><trkpt lat="37.2593702" lon="21.9332891"><ele>84.0</ele><time>2026-04-30T08:11:43.897Z</time></trkpt><trkpt lat="37.2594125" lon="21.9330183"><ele>84.33333333333333</ele><time>2026-04-30T08:11:44.898Z</time></trkpt><trkpt lat="37.2594538" lon="21.9327468"><ele>84.66666666666666</ele><time>2026-04-30T08:11:45.898Z</time></trkpt><trkpt lat="37.2594919" lon="21.93248"><ele>85.0</ele><time>2026-04-30T08:11:46.897Z</time></trkpt><trkpt lat="37.2595329" lon="21.9322113"><ele>85.33333333333333</ele><time>2026-04-30T08:11:47.897Z</time></trkpt><trkpt lat="37.259569" lon="21.931953"><ele>85.66666666666667</ele><time>2026-04-30T08:11:48.898Z</time></trkpt><trkpt lat="37.2596067" lon="21.931684"><ele>86.0</ele><time>2026-04-30T08:11:49.898Z</time></trkpt><trkpt lat="37.2596374" lon="21.9314091"><ele>86.66666666666667</ele><time>2026-04-30T08:11:50.897Z</time></trkpt><trkpt lat="37.2596755" lon="21.9311403"><ele>87.33333333333333</ele><time>2026-04-30T08:11:51.897Z</time></trkpt><trkpt lat="37.2597134" lon="21.9308707"><ele>88.0</ele><time>2026-04-30T08:11:52.897Z</time></trkpt><trkpt lat="37.2597503" lon="21.9306"><ele>89.0</ele><time>2026-04-30T08:11:53.898Z</time></trkpt><trkpt lat="37.2597875" lon="21.9303287"><ele>90.0</ele><time>2026-04-30T08:11:54.898Z</time></trkpt><trkpt lat="37.2598253" lon="21.9300574"><ele>91.0</ele><time>2026-04-30T08:11:55.897Z</time></trkpt><trkpt lat="37.2598658" lon="21.9297859"><ele>92.0</ele><time>2026-04-30T08:11:56.898Z</time></trkpt><trkpt lat="37.2599046" lon="21.9295028"><ele>93.0</ele><time>2026-04-30T08:11:57.898Z</time></trkpt><trkpt lat="37.2599435" lon="21.929226"><ele>93.0</ele><time>2026-04-30T08:11:58.898Z</time></trkpt><trkpt lat="37.2599822" lon="21.9289495"><ele>93.0</ele><time>2026-04-30T08:11:59.898Z</time></trkpt><trkpt lat="37.2600199" lon="21.928668"><ele>93.66666666666667</ele><time>2026-04-30T08:12:00.898Z</time></trkpt><trkpt lat="37.2600594" lon="21.9283905"><ele>94.33333333333334</ele><time>2026-04-30T08:12:01.897Z</time></trkpt><trkpt lat="37.2601011" lon="21.9281138"><ele>95.0</ele><time>2026-04-30T08:12:02.898Z</time></trkpt><trkpt lat="37.2601384" lon="21.9278365"><ele>95.0</ele><time>2026-04-30T08:12:03.897Z</time></trkpt><trkpt lat="37.2601798" lon="21.9275695"><ele>95.0</ele><time>2026-04-30T08:12:04.898Z</time></trkpt><trkpt lat="37.2602085" lon="21.9272982"><ele>95.0</ele><time>2026-04-30T08:12:05.897Z</time></trkpt><trkpt lat="37.2602287" lon="21.9270251"><ele>95.33333333333334</ele><time>2026-04-30T08:12:06.897Z</time></trkpt><trkpt lat="37.2602407" lon="21.9267481"><ele>95.66666666666667</ele><time>2026-04-30T08:12:07.897Z</time></trkpt><trkpt lat="37.2602502" lon="21.926475"><ele>96.0</ele><time>2026-04-30T08:12:08.898Z</time></trkpt><trkpt lat="37.2602517" lon="21.9262053"><ele>97.0</ele><time>2026-04-30T08:12:09.898Z</time></trkpt><trkpt lat="37.2602524" lon="21.9259293"><ele>98.0</ele><time>2026-04-30T08:12:10.898Z</time></trkpt><trkpt lat="37.2602309" lon="21.9256598"><ele>99.0</ele><time>2026-04-30T08:12:11.897Z</time></trkpt><trkpt lat="37.260202" lon="21.9253928"><ele>100.33333333333334</ele><time>2026-04-30T08:12:12.898Z</time></trkpt><trkpt lat="37.260156" lon="21.9251362"><ele>101.66666666666667</ele><time>2026-04-30T08:12:13.897Z</time></trkpt><trkpt lat="37.2601037" lon="21.9248908"><ele>103.0</ele><time>2026-04-30T08:12:14.898Z</time></trkpt><trkpt lat="37.260046" lon="21.9246534"><ele>103.0</ele><time>2026-04-30T08:12:15.897Z</time></trkpt><trkpt lat="37.2599783" lon="21.9244299"><ele>103.0</ele><time>2026-04-30T08:12:16.897Z</time></trkpt><trkpt lat="37.2599154" lon="21.9242101"><ele>103.0</ele><time>2026-04-30T08:12:17.897Z</time></trkpt><trkpt lat="37.2598398" lon="21.9240024"><ele>108.33333333333334</ele><time>2026-04-30T08:12:18.898Z</time></trkpt><trkpt lat="37.2597684" lon="21.9238031"><ele>113.66666666666666</ele><time>2026-04-30T08:12:19.898Z</time></trkpt><trkpt lat="37.2596994" lon="21.9235953"><ele>119.0</ele><time>2026-04-30T08:12:20.897Z</time></trkpt><trkpt lat="37.259615" lon="21.923393"><ele>120.66666666666666</ele><time>2026-04-30T08:12:21.897Z</time></trkpt><trkpt lat="37.259521" lon="21.9232109"><ele>122.33333333333334</ele><time>2026-04-30T08:12:22.897Z</time></trkpt><trkpt lat="37.2594283" lon="21.9230287"><ele>124.0</ele><time>2026-04-30T08:12:23.897Z</time></trkpt><trkpt lat="37.2593293" lon="21.9228389"><ele>124.0</ele><time>2026-04-30T08:12:24.898Z</time></trkpt><trkpt lat="37.2592345" lon="21.9226509"><ele>124.0</ele><time>2026-04-30T08:12:25.897Z</time></trkpt><trkpt lat="37.2591375" lon="21.9224679"><ele>124.0</ele><time>2026-04-30T08:12:26.897Z</time></trkpt><trkpt lat="37.2590452" lon="21.9222814"><ele>123.0</ele><time>2026-04-30T08:12:27.898Z</time></trkpt><trkpt lat="37.2589566" lon="21.9220938"><ele>122.0</ele><time>2026-04-30T08:12:28.897Z</time></trkpt><trkpt lat="37.2588679" lon="21.9219024"><ele>121.0</ele><time>2026-04-30T08:12:29.897Z</time></trkpt><trkpt lat="37.2587779" lon="21.9217044"><ele>124.33333333333334</ele><time>2026-04-30T08:12:30.897Z</time></trkpt><trkpt lat="37.2586846" lon="21.9215069"><ele>127.66666666666666</ele><time>2026-04-30T08:12:31.898Z</time></trkpt><trkpt lat="37.2585963" lon="21.9213019"><ele>131.0</ele><time>2026-04-30T08:12:32.898Z</time></trkpt><trkpt lat="37.2585075" lon="21.9210958"><ele>129.0</ele><time>2026-04-30T08:12:33.897Z</time></trkpt><trkpt lat="37.2584208" lon="21.920881"><ele>127.0</ele><time>2026-04-30T08:12:34.898Z</time></trkpt><trkpt lat="37.2583358" lon="21.9206674"><ele>125.0</ele><time>2026-04-30T08:12:35.897Z</time></trkpt><trkpt lat="37.2582522" lon="21.9204459"><ele>125.0</ele><time>2026-04-30T08:12:36.898Z</time></trkpt><trkpt lat="37.2581594" lon="21.9202182"><ele>125.0</ele><time>2026-04-30T08:12:37.898Z</time></trkpt><trkpt lat="37.2580547" lon="21.9199756"><ele>125.0</ele><time>2026-04-30T08:12:38.898Z</time></trkpt><trkpt lat="37.2579555" lon="21.9197183"><ele>126.5</ele><time>2026-04-30T08:12:39.898Z</time></trkpt><trkpt lat="37.2578526" lon="21.9194517"><ele>128.0</ele><time>2026-04-30T08:12:40.898Z</time></trkpt><trkpt lat="37.2577505" lon="21.9191805"><ele>129.0</ele><time>2026-04-30T08:12:41.898Z</time></trkpt><trkpt lat="37.2576483" lon="21.9189116"><ele>130.0</ele><time>2026-04-30T08:12:42.897Z</time></trkpt><trkpt lat="37.2575522" lon="21.9186402"><ele>131.5</ele><time>2026-04-30T08:12:43.897Z</time></trkpt><trkpt lat="37.2574478" lon="21.9183704"><ele>133.0</ele><time>2026-04-30T08:12:44.898Z</time></trkpt><trkpt lat="37.2573561" lon="21.9181021"><ele>132.0</ele><time>2026-04-30T08:12:45.897Z</time></trkpt><trkpt lat="37.257246" lon="21.9178242"><ele>131.0</ele><time>2026-04-30T08:12:46.898Z</time></trkpt><trkpt lat="37.2571443" lon="21.9175548"><ele>134.5</ele><time>2026-04-30T08:12:47.897Z</time></trkpt><trkpt lat="37.2570535" lon="21.9172893"><ele>138.0</ele><time>2026-04-30T08:12:48.897Z</time></trkpt><trkpt lat="37.2569485" lon="21.9170287"><ele>138.0</ele><time>2026-04-30T08:12:49.898Z</time></trkpt><trkpt lat="37.2568417" lon="21.916766"><ele>138.0</ele><time>2026-04-30T08:12:50.897Z</time></trkpt><trkpt lat="37.2567358" lon="21.9165087"><ele>140.5</ele><time>2026-04-30T08:12:51.898Z</time></trkpt><trkpt lat="37.2566313" lon="21.9162542"><ele>143.0</ele><time>2026-04-30T08:12:52.898Z</time></trkpt><trkpt lat="37.2565251" lon="21.9160066"><ele>145.0</ele><time>2026-04-30T08:12:53.897Z</time></trkpt><trkpt lat="37.2564272" lon="21.9157535"><ele>147.0</ele><time>2026-04-30T08:12:54.898Z</time></trkpt><trkpt lat="37.2563319" lon="21.9154993"><ele>149.0</ele><time>2026-04-30T08:12:55.898Z</time></trkpt><trkpt lat="37.2562354" lon="21.9152488"><ele>151.66666666666666</ele><time>2026-04-30T08:12:56.898Z</time></trkpt><trkpt lat="37.2561417" lon="21.915003"><ele>154.33333333333334</ele><time>2026-04-30T08:12:57.898Z</time></trkpt><trkpt lat="37.2560525" lon="21.914756"><ele>157.0</ele><time>2026-04-30T08:12:58.898Z</time></trkpt><trkpt lat="37.2559628" lon="21.9145089"><ele>157.0</ele><time>2026-04-30T08:12:59.897Z</time></trkpt><trkpt lat="37.2558622" lon="21.914254"><ele>157.0</ele><time>2026-04-30T08:13:00.897Z</time></trkpt><trkpt lat="37.255774" lon="21.9140132"><ele>157.0</ele><time>2026-04-30T08:13:01.898Z</time></trkpt><trkpt lat="37.2556806" lon="21.913772"><ele>153.66666666666669</ele><time>2026-04-30T08:13:02.898Z</time></trkpt><trkpt lat="37.255585" lon="21.9135307"><ele>150.33333333333334</ele><time>2026-04-30T08:13:03.898Z</time></trkpt><trkpt lat="37.2554866" lon="21.9132876"><ele>147.0</ele><time>2026-04-30T08:13:04.897Z</time></trkpt><trkpt lat="37.2553829" lon="21.913042"><ele>146.33333333333334</ele><time>2026-04-30T08:13:05.898Z</time></trkpt><trkpt lat="37.2552988" lon="21.912809"><ele>145.66666666666669</ele><time>2026-04-30T08:13:06.897Z</time></trkpt><trkpt lat="37.2552087" lon="21.9125797"><ele>145.0</ele><time>2026-04-30T08:13:07.898Z</time></trkpt><trkpt lat="37.2551285" lon="21.9123502"><ele>145.0</ele><time>2026-04-30T08:13:08.897Z</time></trkpt><trkpt lat="37.2550436" lon="21.9121169"><ele>145.0</ele><time>2026-04-30T08:13:09.897Z</time></trkpt><trkpt lat="37.2549684" lon="21.9118793"><ele>145.0</ele><time>2026-04-30T08:13:10.897Z</time></trkpt><trkpt lat="37.2549037" lon="21.9116378"><ele>146.33333333333334</ele><time>2026-04-30T08:13:11.897Z</time></trkpt><trkpt lat="37.2548478" lon="21.9113843"><ele>147.66666666666666</ele><time>2026-04-30T08:13:12.897Z</time></trkpt><trkpt lat="37.2548" lon="21.9111366"><ele>149.0</ele><time>2026-04-30T08:13:13.898Z</time></trkpt><trkpt lat="37.254767" lon="21.9108802"><ele>145.66666666666666</ele><time>2026-04-30T08:13:14.898Z</time></trkpt><trkpt lat="37.2547463" lon="21.910624"><ele>142.33333333333334</ele><time>2026-04-30T08:13:15.897Z</time></trkpt><trkpt lat="37.2547375" lon="21.9103683"><ele>139.0</ele><time>2026-04-30T08:13:16.897Z</time></trkpt><trkpt lat="37.2547561" lon="21.9101104"><ele>139.0</ele><time>2026-04-30T08:13:17.898Z</time></trkpt><trkpt lat="37.2547786" lon="21.9098362"><ele>139.0</ele><time>2026-04-30T08:13:18.898Z</time></trkpt><trkpt lat="37.2548284" lon="21.9095721"><ele>139.0</ele><time>2026-04-30T08:13:19.897Z</time></trkpt><trkpt lat="37.2548821" lon="21.909315"><ele>140.66666666666669</ele><time>2026-04-30T08:13:20.898Z</time></trkpt><trkpt lat="37.2549405" lon="21.9090615"><ele>142.33333333333334</ele><time>2026-04-30T08:13:21.897Z</time></trkpt><trkpt lat="37.2550193" lon="21.9088182"><ele>144.0</ele><time>2026-04-30T08:13:22.897Z</time></trkpt><trkpt lat="37.255112" lon="21.9085804"><ele>143.0</ele><time>2026-04-30T08:13:23.897Z</time></trkpt><trkpt lat="37.2552147" lon="21.9083621"><ele>142.0</ele><time>2026-04-30T08:13:24.898Z</time></trkpt><trkpt lat="37.2553346" lon="21.9081345"><ele>141.0</ele><time>2026-04-30T08:13:25.898Z</time></trkpt><trkpt lat="37.2554522" lon="21.9079163"><ele>141.0</ele><time>2026-04-30T08:13:26.898Z</time></trkpt><trkpt lat="37.2555966" lon="21.9077186"><ele>141.0</ele><time>2026-04-30T08:13:27.898Z</time></trkpt><trkpt lat="37.2557482" lon="21.907528"><ele>141.0</ele><time>2026-04-30T08:13:28.898Z</time></trkpt><trkpt lat="37.2559054" lon="21.9073517"><ele>141.0</ele><time>2026-04-30T08:13:29.897Z</time></trkpt><trkpt lat="37.2560685" lon="21.9071782"><ele>141.0</ele><time>2026-04-30T08:13:30.898Z</time></trkpt><trkpt lat="37.2562394" lon="21.9070012"><ele>141.0</ele><time>2026-04-30T08:13:31.897Z</time></trkpt><trkpt lat="37.256411" lon="21.9068327"><ele>140.33333333333334</ele><time>2026-04-30T08:13:32.897Z</time></trkpt><trkpt lat="37.25658" lon="21.9066578"><ele>139.66666666666669</ele><time>2026-04-30T08:13:33.898Z</time></trkpt><trkpt lat="37.2567512" lon="21.9064899"><ele>139.0</ele><time>2026-04-30T08:13:34.897Z</time></trkpt><trkpt lat="37.2569227" lon="21.9063232"><ele>139.0</ele><time>2026-04-30T08:13:35.898Z</time></trkpt><trkpt lat="37.257094" lon="21.9061552"><ele>139.0</ele><time>2026-04-30T08:13:36.898Z</time></trkpt><trkpt lat="37.257263" lon="21.9059781"><ele>139.0</ele><time>2026-04-30T08:13:37.898Z</time></trkpt><trkpt lat="37.2574358" lon="21.9058083"><ele>138.0</ele><time>2026-04-30T08:13:38.897Z</time></trkpt><trkpt lat="37.2576101" lon="21.9056429"><ele>137.0</ele><time>2026-04-30T08:13:39.898Z</time></trkpt><trkpt lat="37.2577848" lon="21.9054735"><ele>136.0</ele><time>2026-04-30T08:13:40.898Z</time></trkpt><trkpt lat="37.2579511" lon="21.9052998"><ele>137.0</ele><time>2026-04-30T08:13:41.898Z</time></trkpt><trkpt lat="37.258122" lon="21.9051387"><ele>138.0</ele><time>2026-04-30T08:13:42.898Z</time></trkpt><trkpt lat="37.2582893" lon="21.9049744"><ele>139.0</ele><time>2026-04-30T08:13:43.897Z</time></trkpt><trkpt lat="37.2584601" lon="21.9048098"><ele>137.0</ele><time>2026-04-30T08:13:44.898Z</time></trkpt><trkpt lat="37.2586252" lon="21.9046503"><ele>135.0</ele><time>2026-04-30T08:13:45.898Z</time></trkpt><trkpt lat="37.2587883" lon="21.9044882"><ele>133.0</ele><time>2026-04-30T08:13:46.898Z</time></trkpt><trkpt lat="37.2589471" lon="21.9043289"><ele>133.0</ele><time>2026-04-30T08:13:47.898Z</time></trkpt><trkpt lat="37.2591054" lon="21.9041701"><ele>133.0</ele><time>2026-04-30T08:13:48.898Z</time></trkpt><trkpt lat="37.259268" lon="21.90401"><ele>133.0</ele><time>2026-04-30T08:13:49.898Z</time></trkpt><trkpt lat="37.2594262" lon="21.9038451"><ele>133.0</ele><time>2026-04-30T08:13:50.898Z</time></trkpt><trkpt lat="37.2595917" lon="21.9036789"><ele>133.0</ele><time>2026-04-30T08:13:51.898Z</time></trkpt><trkpt lat="37.259754" lon="21.9035195"><ele>133.0</ele><time>2026-04-30T08:13:52.897Z</time></trkpt><trkpt lat="37.2599172" lon="21.9033475"><ele>132.66666666666669</ele><time>2026-04-30T08:13:53.898Z</time></trkpt><trkpt lat="37.2600816" lon="21.9031729"><ele>132.33333333333334</ele><time>2026-04-30T08:13:54.897Z</time></trkpt><trkpt lat="37.2602429" lon="21.902995"><ele>132.0</ele><time>2026-04-30T08:13:55.898Z</time></trkpt><trkpt lat="37.260401" lon="21.9028158"><ele>132.0</ele><time>2026-04-30T08:13:56.897Z</time></trkpt><trkpt lat="37.2605603" lon="21.9026305"><ele>132.0</ele><time>2026-04-30T08:13:57.898Z</time></trkpt><trkpt lat="37.2607168" lon="21.9024493"><ele>132.0</ele><time>2026-04-30T08:13:58.897Z</time></trkpt><trkpt lat="37.2608671" lon="21.9022685"><ele>130.66666666666666</ele><time>2026-04-30T08:13:59.898Z</time></trkpt><trkpt lat="37.2610186" lon="21.9020846"><ele>129.33333333333331</ele><time>2026-04-30T08:14:00.898Z</time></trkpt><trkpt lat="37.2611726" lon="21.901891"><ele>128.0</ele><time>2026-04-30T08:14:01.898Z</time></trkpt><trkpt lat="37.2613189" lon="21.9017008"><ele>126.0</ele><time>2026-04-30T08:14:02.898Z</time></trkpt><trkpt lat="37.2614702" lon="21.901504"><ele>124.0</ele><time>2026-04-30T08:14:03.898Z</time></trkpt><trkpt lat="37.2616098" lon="21.9013138"><ele>122.0</ele><time>2026-04-30T08:14:04.898Z</time></trkpt><trkpt lat="37.2617523" lon="21.901112"><ele>122.0</ele><time>2026-04-30T08:14:05.897Z</time></trkpt><trkpt lat="37.2619001" lon="21.900917"><ele>122.0</ele><time>2026-04-30T08:14:06.898Z</time></trkpt><trkpt lat="37.2620438" lon="21.9007269"><ele>122.0</ele><time>2026-04-30T08:14:07.897Z</time></trkpt><trkpt lat="37.2621802" lon="21.9005176"><ele>122.0</ele><time>2026-04-30T08:14:08.897Z</time></trkpt><trkpt lat="37.2623149" lon="21.9003214"><ele>122.0</ele><time>2026-04-30T08:14:09.898Z</time></trkpt><trkpt lat="37.262452" lon="21.900114"><ele>122.0</ele><time>2026-04-30T08:14:10.898Z</time></trkpt><trkpt lat="37.2625856" lon="21.8999177"><ele>122.0</ele><time>2026-04-30T08:14:11.897Z</time></trkpt><trkpt lat="37.2627165" lon="21.899724"><ele>122.0</ele><time>2026-04-30T08:14:12.897Z</time></trkpt><trkpt lat="37.2628461" lon="21.8995333"><ele>122.0</ele><time>2026-04-30T08:14:13.898Z</time></trkpt><trkpt lat="37.2629651" lon="21.8993465"><ele>122.0</ele><time>2026-04-30T08:14:14.897Z</time></trkpt><trkpt lat="37.2630859" lon="21.8991635"><ele>122.0</ele><time>2026-04-30T08:14:15.898Z</time></trkpt><trkpt lat="37.2632108" lon="21.8989852"><ele>122.0</ele><time>2026-04-30T08:14:16.897Z</time></trkpt><trkpt lat="37.263334" lon="21.898795"><ele>122.66666666666666</ele><time>2026-04-30T08:14:17.898Z</time></trkpt><trkpt lat="37.2634567" lon="21.8986065"><ele>123.33333333333334</ele><time>2026-04-30T08:14:18.898Z</time></trkpt><trkpt lat="37.2635719" lon="21.8984263"><ele>124.0</ele><time>2026-04-30T08:14:19.897Z</time></trkpt><trkpt lat="37.2636743" lon="21.8982565"><ele>124.33333333333334</ele><time>2026-04-30T08:14:20.898Z</time></trkpt><trkpt lat="37.263781" lon="21.8980891"><ele>124.66666666666666</ele><time>2026-04-30T08:14:21.897Z</time></trkpt><trkpt lat="37.2638901" lon="21.8979166"><ele>125.0</ele><time>2026-04-30T08:14:22.898Z</time></trkpt><trkpt lat="37.2639967" lon="21.8977475"><ele>125.66666666666666</ele><time>2026-04-30T08:14:23.898Z</time></trkpt><trkpt lat="37.2641057" lon="21.8975771"><ele>126.33333333333334</ele><time>2026-04-30T08:14:24.897Z</time></trkpt><trkpt lat="37.2642096" lon="21.8973837"><ele>127.0</ele><time>2026-04-30T08:14:25.897Z</time></trkpt><trkpt lat="37.2643076" lon="21.8972066"><ele>127.0</ele><time>2026-04-30T08:14:26.897Z</time></trkpt><trkpt lat="37.2644151" lon="21.8970216"><ele>127.0</ele><time>2026-04-30T08:14:27.898Z</time></trkpt><trkpt lat="37.2645151" lon="21.8968307"><ele>127.0</ele><time>2026-04-30T08:14:28.898Z</time></trkpt><trkpt lat="37.2646163" lon="21.8966299"><ele>127.0</ele><time>2026-04-30T08:14:29.897Z</time></trkpt><trkpt lat="37.2647151" lon="21.8964254"><ele>127.0</ele><time>2026-04-30T08:14:30.897Z</time></trkpt><trkpt lat="37.264812" lon="21.8962268"><ele>127.0</ele><time>2026-04-30T08:14:31.898Z</time></trkpt><trkpt lat="37.264915" lon="21.8960254"><ele>126.33333333333334</ele><time>2026-04-30T08:14:32.898Z</time></trkpt><trkpt lat="37.2650095" lon="21.8958125"><ele>125.66666666666666</ele><time>2026-04-30T08:14:33.898Z</time></trkpt><trkpt lat="37.2651209" lon="21.8956047"><ele>125.0</ele><time>2026-04-30T08:14:34.898Z</time></trkpt><trkpt lat="37.2652331" lon="21.8953887"><ele>125.0</ele><time>2026-04-30T08:14:35.897Z</time></trkpt><trkpt lat="37.2653417" lon="21.8951575"><ele>125.0</ele><time>2026-04-30T08:14:36.898Z</time></trkpt><trkpt lat="37.2654597" lon="21.8949186"><ele>125.0</ele><time>2026-04-30T08:14:37.897Z</time></trkpt><trkpt lat="37.265583" lon="21.8946761"><ele>124.5</ele><time>2026-04-30T08:14:38.898Z</time></trkpt><trkpt lat="37.2657128" lon="21.8944333"><ele>124.0</ele><time>2026-04-30T08:14:39.898Z</time></trkpt><trkpt lat="37.2658528" lon="21.894196"><ele>123.0</ele><time>2026-04-30T08:14:40.897Z</time></trkpt><trkpt lat="37.2659956" lon="21.893963"><ele>122.0</ele><time>2026-04-30T08:14:41.897Z</time></trkpt><trkpt lat="37.2661432" lon="21.8937314"><ele>122.0</ele><time>2026-04-30T08:14:42.897Z</time></trkpt><trkpt lat="37.2663005" lon="21.8935092"><ele>122.0</ele><time>2026-04-30T08:14:43.897Z</time></trkpt><trkpt lat="37.2664625" lon="21.8932927"><ele>122.5</ele><time>2026-04-30T08:14:44.898Z</time></trkpt><trkpt lat="37.2666296" lon="21.8930817"><ele>123.0</ele><time>2026-04-30T08:14:45.898Z</time></trkpt><trkpt lat="37.266803" lon="21.8928738"><ele>123.0</ele><time>2026-04-30T08:14:46.897Z</time></trkpt><trkpt lat="37.2669779" lon="21.8926684"><ele>123.0</ele><time>2026-04-30T08:14:47.897Z</time></trkpt><trkpt lat="37.2671522" lon="21.8924585"><ele>124.0</ele><time>2026-04-30T08:14:48.897Z</time></trkpt><trkpt lat="37.2673247" lon="21.8922538"><ele>125.0</ele><time>2026-04-30T08:14:49.897Z</time></trkpt><trkpt lat="37.2674978" lon="21.8920516"><ele>125.0</ele><time>2026-04-30T08:14:50.898Z</time></trkpt><trkpt lat="37.2676708" lon="21.8918541"><ele>125.0</ele><time>2026-04-30T08:14:51.897Z</time></trkpt><trkpt lat="37.2678469" lon="21.8916494"><ele>124.5</ele><time>2026-04-30T08:14:52.897Z</time></trkpt><trkpt lat="37.2680184" lon="21.8914463"><ele>124.0</ele><time>2026-04-30T08:14:53.898Z</time></trkpt><trkpt lat="37.2681892" lon="21.8912459"><ele>124.0</ele><time>2026-04-30T08:14:54.898Z</time></trkpt><trkpt lat="37.2683565" lon="21.8910472"><ele>124.0</ele><time>2026-04-30T08:14:55.897Z</time></trkpt><trkpt lat="37.2685352" lon="21.8908549"><ele>123.5</ele><time>2026-04-30T08:14:56.897Z</time></trkpt><trkpt lat="37.2687043" lon="21.8906549"><ele>123.0</ele><time>2026-04-30T08:14:57.898Z</time></trkpt><trkpt lat="37.2688738" lon="21.8904622"><ele>124.0</ele><time>2026-04-30T08:14:58.898Z</time></trkpt><trkpt lat="37.2690397" lon="21.8902575"><ele>125.0</ele><time>2026-04-30T08:14:59.898Z</time></trkpt><trkpt lat="37.2692059" lon="21.8900419"><ele>126.0</ele><time>2026-04-30T08:15:00.898Z</time></trkpt><trkpt lat="37.269362" lon="21.8898329"><ele>127.0</ele><time>2026-04-30T08:15:01.898Z</time></trkpt><trkpt lat="37.2695094" lon="21.8895996"><ele>127.0</ele><time>2026-04-30T08:15:02.898Z</time></trkpt><trkpt lat="37.2696522" lon="21.8893666"><ele>127.0</ele><time>2026-04-30T08:15:03.897Z</time></trkpt><trkpt lat="37.2697929" lon="21.8891376"><ele>126.0</ele><time>2026-04-30T08:15:04.898Z</time></trkpt><trkpt lat="37.2699276" lon="21.8889008"><ele>125.0</ele><time>2026-04-30T08:15:05.898Z</time></trkpt><trkpt lat="37.2700541" lon="21.8886579"><ele>127.0</ele><time>2026-04-30T08:15:06.897Z</time></trkpt><trkpt lat="37.2701745" lon="21.8884045"><ele>129.0</ele><time>2026-04-30T08:15:07.898Z</time></trkpt><trkpt lat="37.2702914" lon="21.8881512"><ele>129.0</ele><time>2026-04-30T08:15:08.897Z</time></trkpt><trkpt lat="37.2703974" lon="21.8878876"><ele>129.0</ele><time>2026-04-30T08:15:09.897Z</time></trkpt><trkpt lat="37.2704941" lon="21.8876151"><ele>130.0</ele><time>2026-04-30T08:15:10.897Z</time></trkpt><trkpt lat="37.2705866" lon="21.8873441"><ele>131.0</ele><time>2026-04-30T08:15:11.897Z</time></trkpt><trkpt lat="37.2706664" lon="21.8870679"><ele>131.0</ele><time>2026-04-30T08:15:12.897Z</time></trkpt><trkpt lat="37.2707449" lon="21.8867886"><ele>131.0</ele><time>2026-04-30T08:15:13.897Z</time></trkpt><trkpt lat="37.2708151" lon="21.8865081"><ele>133.0</ele><time>2026-04-30T08:15:14.897Z</time></trkpt><trkpt lat="37.2708779" lon="21.8862295"><ele>135.0</ele><time>2026-04-30T08:15:15.898Z</time></trkpt><trkpt lat="37.2709329" lon="21.8859527"><ele>135.0</ele><time>2026-04-30T08:15:16.898Z</time></trkpt><trkpt lat="37.270988" lon="21.8856746"><ele>135.0</ele><time>2026-04-30T08:15:17.897Z</time></trkpt><trkpt lat="37.2710426" lon="21.8853967"><ele>135.0</ele><time>2026-04-30T08:15:18.897Z</time></trkpt><trkpt lat="37.2710904" lon="21.8851239"><ele>135.0</ele><time>2026-04-30T08:15:19.898Z</time></trkpt><trkpt lat="37.271143" lon="21.8848515"><ele>135.0</ele><time>2026-04-30T08:15:20.898Z</time></trkpt><trkpt lat="37.2711974" lon="21.8845743"><ele>136.0</ele><time>2026-04-30T08:15:21.898Z</time></trkpt><trkpt lat="37.2712509" lon="21.8843017"><ele>137.0</ele><time>2026-04-30T08:15:22.897Z</time></trkpt><trkpt lat="37.2713053" lon="21.8840242"><ele>139.5</ele><time>2026-04-30T08:15:23.898Z</time></trkpt><trkpt lat="37.271357" lon="21.8837491"><ele>142.0</ele><time>2026-04-30T08:15:24.898Z</time></trkpt><trkpt lat="37.271413" lon="21.8834662"><ele>141.0</ele><time>2026-04-30T08:15:25.898Z</time></trkpt><trkpt lat="37.2714764" lon="21.8831959"><ele>140.0</ele><time>2026-04-30T08:15:26.898Z</time></trkpt><trkpt lat="37.2715308" lon="21.8829215"><ele>139.0</ele><time>2026-04-30T08:15:27.898Z</time></trkpt><trkpt lat="37.2715923" lon="21.8826413"><ele>140.5</ele><time>2026-04-30T08:15:28.897Z</time></trkpt><trkpt lat="37.2716528" lon="21.8823671"><ele>142.0</ele><time>2026-04-30T08:15:29.898Z</time></trkpt><trkpt lat="37.2717192" lon="21.8820881"><ele>142.0</ele><time>2026-04-30T08:15:30.898Z</time></trkpt><trkpt lat="37.2717809" lon="21.8818142"><ele>142.0</ele><time>2026-04-30T08:15:31.897Z</time></trkpt><trkpt lat="37.2718489" lon="21.8815396"><ele>142.0</ele><time>2026-04-30T08:15:32.897Z</time></trkpt><trkpt lat="37.2719181" lon="21.8812616"><ele>142.0</ele><time>2026-04-30T08:15:33.897Z</time></trkpt><trkpt lat="37.2719825" lon="21.880987"><ele>142.5</ele><time>2026-04-30T08:15:34.898Z</time></trkpt><trkpt lat="37.2720432" lon="21.8807156"><ele>143.0</ele><time>2026-04-30T08:15:35.898Z</time></trkpt><trkpt lat="37.2721074" lon="21.8804381"><ele>143.0</ele><time>2026-04-30T08:15:36.897Z</time></trkpt><trkpt lat="37.2721677" lon="21.8801646"><ele>143.0</ele><time>2026-04-30T08:15:37.897Z</time></trkpt><trkpt lat="37.2722288" lon="21.8798815"><ele>140.5</ele><time>2026-04-30T08:15:38.898Z</time></trkpt><trkpt lat="37.2722901" lon="21.8796081"><ele>138.0</ele><time>2026-04-30T08:15:39.897Z</time></trkpt><trkpt lat="37.2723484" lon="21.8793362"><ele>139.0</ele><time>2026-04-30T08:15:40.898Z</time></trkpt><trkpt lat="37.2724085" lon="21.8790674"><ele>140.0</ele><time>2026-04-30T08:15:41.897Z</time></trkpt><trkpt lat="37.2724732" lon="21.8788009"><ele>141.0</ele><time>2026-04-30T08:15:42.897Z</time></trkpt><trkpt lat="37.2725349" lon="21.8785359"><ele>141.33333333333334</ele><time>2026-04-30T08:15:43.897Z</time></trkpt><trkpt lat="37.2725964" lon="21.8782688"><ele>141.66666666666669</ele><time>2026-04-30T08:15:44.898Z</time></trkpt><trkpt lat="37.2726482" lon="21.8780016"><ele>142.0</ele><time>2026-04-30T08:15:45.898Z</time></trkpt><trkpt lat="37.2726955" lon="21.8777283"><ele>142.33333333333334</ele><time>2026-04-30T08:15:46.897Z</time></trkpt><trkpt lat="37.2727368" lon="21.8774564"><ele>142.66666666666666</ele><time>2026-04-30T08:15:47.897Z</time></trkpt><trkpt lat="37.2727727" lon="21.8771833"><ele>143.0</ele><time>2026-04-30T08:15:48.898Z</time></trkpt><trkpt lat="37.2728094" lon="21.8769018"><ele>142.5</ele><time>2026-04-30T08:15:49.898Z</time></trkpt><trkpt lat="37.2728348" lon="21.8765978"><ele>142.0</ele><time>2026-04-30T08:15:50.897Z</time></trkpt><trkpt lat="37.2728461" lon="21.8763012"><ele>142.0</ele><time>2026-04-30T08:15:51.898Z</time></trkpt><trkpt lat="37.2728686" lon="21.8759873"><ele>142.0</ele><time>2026-04-30T08:15:52.897Z</time></trkpt><trkpt lat="37.2728938" lon="21.8756822"><ele>142.5</ele><time>2026-04-30T08:15:53.898Z</time></trkpt><trkpt lat="37.2729225" lon="21.875381"><ele>143.0</ele><time>2026-04-30T08:15:54.897Z</time></trkpt><trkpt lat="37.2729529" lon="21.8750799"><ele>143.5</ele><time>2026-04-30T08:15:55.898Z</time></trkpt><trkpt lat="37.2729811" lon="21.8747826"><ele>144.0</ele><time>2026-04-30T08:15:56.897Z</time></trkpt><trkpt lat="37.2730046" lon="21.8744824"><ele>144.5</ele><time>2026-04-30T08:15:57.898Z</time></trkpt><trkpt lat="37.2730377" lon="21.8741914"><ele>145.0</ele><time>2026-04-30T08:15:58.898Z</time></trkpt><trkpt lat="37.2730618" lon="21.8738995"><ele>145.0</ele><time>2026-04-30T08:15:59.897Z</time></trkpt><trkpt lat="37.2730858" lon="21.8736036"><ele>145.0</ele><time>2026-04-30T08:16:00.897Z</time></trkpt><trkpt lat="37.2731089" lon="21.8733205"><ele>144.0</ele><time>2026-04-30T08:16:01.897Z</time></trkpt><trkpt lat="37.2731299" lon="21.8730302"><ele>143.0</ele><time>2026-04-30T08:16:02.897Z</time></trkpt><trkpt lat="37.2731494" lon="21.8727652"><ele>142.0</ele><time>2026-04-30T08:16:03.898Z</time></trkpt><trkpt lat="37.2731632" lon="21.872487"><ele>142.0</ele><time>2026-04-30T08:16:04.898Z</time></trkpt><trkpt lat="37.2731867" lon="21.8722117"><ele>142.0</ele><time>2026-04-30T08:16:05.897Z</time></trkpt><trkpt lat="37.2732175" lon="21.871935"><ele>142.0</ele><time>2026-04-30T08:16:06.898Z</time></trkpt><trkpt lat="37.2732273" lon="21.8716514"><ele>143.0</ele><time>2026-04-30T08:16:07.898Z</time></trkpt><trkpt lat="37.2732485" lon="21.8713564"><ele>144.0</ele><time>2026-04-30T08:16:08.898Z</time></trkpt><trkpt lat="37.273276" lon="21.8710686"><ele>144.5</ele><time>2026-04-30T08:16:09.897Z</time></trkpt><trkpt lat="37.2733002" lon="21.8707794"><ele>145.0</ele><time>2026-04-30T08:16:10.898Z</time></trkpt><trkpt lat="37.2733257" lon="21.8704852"><ele>145.0</ele><time>2026-04-30T08:16:11.897Z</time></trkpt><trkpt lat="37.2733504" lon="21.8701932"><ele>145.0</ele><time>2026-04-30T08:16:12.898Z</time></trkpt><trkpt lat="37.2733772" lon="21.8699034"><ele>146.5</ele><time>2026-04-30T08:16:13.897Z</time></trkpt><trkpt lat="37.2734052" lon="21.8696217"><ele>148.0</ele><time>2026-04-30T08:16:14.898Z</time></trkpt><trkpt lat="37.2734486" lon="21.8693337"><ele>150.0</ele><time>2026-04-30T08:16:15.897Z</time></trkpt><trkpt lat="37.2734919" lon="21.8690525"><ele>152.0</ele><time>2026-04-30T08:16:16.898Z</time></trkpt><trkpt lat="37.2735358" lon="21.8687699"><ele>152.0</ele><time>2026-04-30T08:16:17.898Z</time></trkpt><trkpt lat="37.2736016" lon="21.8684936"><ele>152.0</ele><time>2026-04-30T08:16:18.897Z</time></trkpt><trkpt lat="37.2736794" lon="21.8682261"><ele>151.0</ele><time>2026-04-30T08:16:19.898Z</time></trkpt><trkpt lat="37.2737677" lon="21.8679608"><ele>150.0</ele><time>2026-04-30T08:16:20.897Z</time></trkpt><trkpt lat="37.2738683" lon="21.8677133"><ele>151.5</ele><time>2026-04-30T08:16:21.898Z</time></trkpt><trkpt lat="37.273973" lon="21.8674568"><ele>153.0</ele><time>2026-04-30T08:16:22.897Z</time></trkpt><trkpt lat="37.2740838" lon="21.8672112"><ele>153.0</ele><time>2026-04-30T08:16:23.898Z</time></trkpt><trkpt lat="37.274197" lon="21.8669811"><ele>153.0</ele><time>2026-04-30T08:16:24.898Z</time></trkpt><trkpt lat="37.274319" lon="21.866767"><ele>153.0</ele><time>2026-04-30T08:16:25.897Z</time></trkpt><trkpt lat="37.2744401" lon="21.8665623"><ele>152.33333333333334</ele><time>2026-04-30T08:16:26.897Z</time></trkpt><trkpt lat="37.2745789" lon="21.8663615"><ele>151.66666666666669</ele><time>2026-04-30T08:16:27.897Z</time></trkpt><trkpt lat="37.274727" lon="21.8661657"><ele>151.0</ele><time>2026-04-30T08:16:28.897Z</time></trkpt><trkpt lat="37.2748833" lon="21.8659654"><ele>151.5</ele><time>2026-04-30T08:16:29.898Z</time></trkpt><trkpt lat="37.2750454" lon="21.8657701"><ele>152.0</ele><time>2026-04-30T08:16:30.897Z</time></trkpt><trkpt lat="37.2752181" lon="21.8655623"><ele>152.0</ele><time>2026-04-30T08:16:31.898Z</time></trkpt><trkpt lat="37.2754066" lon="21.86534"><ele>152.0</ele><time>2026-04-30T08:16:32.898Z</time></trkpt><trkpt lat="37.2756123" lon="21.8651088"><ele>150.5</ele><time>2026-04-30T08:16:33.898Z</time></trkpt><trkpt lat="37.2758275" lon="21.8648676"><ele>149.0</ele><time>2026-04-30T08:16:34.897Z</time></trkpt><trkpt lat="37.2760436" lon="21.8646283"><ele>149.0</ele><time>2026-04-30T08:16:35.897Z</time></trkpt><trkpt lat="37.2762492" lon="21.8644093"><ele>149.0</ele><time>2026-04-30T08:16:36.898Z</time></trkpt><trkpt lat="37.2764539" lon="21.8641969"><ele>150.5</ele><time>2026-04-30T08:16:37.898Z</time></trkpt><trkpt lat="37.2766469" lon="21.8639868"><ele>152.0</ele><time>2026-04-30T08:16:38.897Z</time></trkpt><trkpt lat="37.2768318" lon="21.8637725"><ele>152.0</ele><time>2026-04-30T08:16:39.898Z</time></trkpt><trkpt lat="37.2770138" lon="21.8635667"><ele>152.0</ele><time>2026-04-30T08:16:40.898Z</time></trkpt><trkpt lat="37.2771907" lon="21.8633646"><ele>153.5</ele><time>2026-04-30T08:16:41.898Z</time></trkpt><trkpt lat="37.2773639" lon="21.8631621"><ele>155.0</ele><time>2026-04-30T08:16:42.897Z</time></trkpt><trkpt lat="37.2775334" lon="21.862967"><ele>155.0</ele><time>2026-04-30T08:16:43.898Z</time></trkpt><trkpt lat="37.2777049" lon="21.8627738"><ele>155.0</ele><time>2026-04-30T08:16:44.897Z</time></trkpt><trkpt lat="37.2778616" lon="21.8625728"><ele>155.5</ele><time>2026-04-30T08:16:45.898Z</time></trkpt><trkpt lat="37.278019" lon="21.8623709"><ele>156.0</ele><time>2026-04-30T08:16:46.897Z</time></trkpt><trkpt lat="37.2781671" lon="21.8621524"><ele>155.5</ele><time>2026-04-30T08:16:47.898Z</time></trkpt><trkpt lat="37.2783097" lon="21.8619341"><ele>155.0</ele><time>2026-04-30T08:16:48.897Z</time></trkpt><trkpt lat="37.2784485" lon="21.8616975"><ele>155.0</ele><time>2026-04-30T08:16:49.897Z</time></trkpt><trkpt lat="37.2785773" lon="21.861469"><ele>155.0</ele><time>2026-04-30T08:16:50.898Z</time></trkpt><trkpt lat="37.2787035" lon="21.8612364"><ele>155.0</ele><time>2026-04-30T08:16:51.897Z</time></trkpt><trkpt lat="37.2788255" lon="21.8610017"><ele>156.33333333333331</ele><time>2026-04-30T08:16:52.898Z</time></trkpt><trkpt lat="37.2789459" lon="21.8607754"><ele>157.66666666666666</ele><time>2026-04-30T08:16:53.898Z</time></trkpt><trkpt lat="37.2790674" lon="21.8605485"><ele>159.0</ele><time>2026-04-30T08:16:54.897Z</time></trkpt><trkpt lat="37.2791906" lon="21.8603201"><ele>158.66666666666666</ele><time>2026-04-30T08:16:55.898Z</time></trkpt><trkpt lat="37.2793107" lon="21.8600958"><ele>158.33333333333331</ele><time>2026-04-30T08:16:56.898Z</time></trkpt><trkpt lat="37.2794303" lon="21.8598692"><ele>158.0</ele><time>2026-04-30T08:16:57.898Z</time></trkpt><trkpt lat="37.2795517" lon="21.8596424"><ele>158.0</ele><time>2026-04-30T08:16:58.897Z</time></trkpt><trkpt lat="37.2796698" lon="21.8594157"><ele>158.0</ele><time>2026-04-30T08:16:59.898Z</time></trkpt><trkpt lat="37.279788" lon="21.8591923"><ele>158.0</ele><time>2026-04-30T08:17:00.897Z</time></trkpt><trkpt lat="37.2799018" lon="21.8589625"><ele>158.0</ele><time>2026-04-30T08:17:01.898Z</time></trkpt><trkpt lat="37.2800221" lon="21.8587401"><ele>158.0</ele><time>2026-04-30T08:17:02.897Z</time></trkpt><trkpt lat="37.28014" lon="21.8585139"><ele>158.0</ele><time>2026-04-30T08:17:03.897Z</time></trkpt><trkpt lat="37.2802537" lon="21.8582948"><ele>158.0</ele><time>2026-04-30T08:17:04.897Z</time></trkpt><trkpt lat="37.2803731" lon="21.8580774"><ele>158.0</ele><time>2026-04-30T08:17:05.898Z</time></trkpt><trkpt lat="37.2804862" lon="21.8578636"><ele>158.0</ele><time>2026-04-30T08:17:06.897Z</time></trkpt><trkpt lat="37.280606" lon="21.857643"><ele>159.0</ele><time>2026-04-30T08:17:07.898Z</time></trkpt><trkpt lat="37.280724" lon="21.8574355"><ele>160.0</ele><time>2026-04-30T08:17:08.898Z</time></trkpt><trkpt lat="37.2808314" lon="21.8572139"><ele>161.0</ele><time>2026-04-30T08:17:09.897Z</time></trkpt><trkpt lat="37.2809486" lon="21.8569932"><ele>160.33333333333331</ele><time>2026-04-30T08:17:10.898Z</time></trkpt><trkpt lat="37.2810603" lon="21.8567779"><ele>159.66666666666666</ele><time>2026-04-30T08:17:11.898Z</time></trkpt><trkpt lat="37.2811743" lon="21.8565598"><ele>159.0</ele><time>2026-04-30T08:17:12.897Z</time></trkpt><trkpt lat="37.2812936" lon="21.8563486"><ele>159.0</ele><time>2026-04-30T08:17:13.898Z</time></trkpt><trkpt lat="37.2813943" lon="21.8561367"><ele>159.0</ele><time>2026-04-30T08:17:14.897Z</time></trkpt><trkpt lat="37.2815063" lon="21.8559228"><ele>159.0</ele><time>2026-04-30T08:17:15.898Z</time></trkpt><trkpt lat="37.2816105" lon="21.8557126"><ele>159.66666666666666</ele><time>2026-04-30T08:17:16.897Z</time></trkpt><trkpt lat="37.2817088" lon="21.855498"><ele>160.33333333333331</ele><time>2026-04-30T08:17:17.897Z</time></trkpt><trkpt lat="37.2818038" lon="21.8552766"><ele>161.0</ele><time>2026-04-30T08:17:18.897Z</time></trkpt><trkpt lat="37.2818914" lon="21.8550495"><ele>161.33333333333331</ele><time>2026-04-30T08:17:19.897Z</time></trkpt><trkpt lat="37.2819699" lon="21.854814"><ele>161.66666666666666</ele><time>2026-04-30T08:17:20.898Z</time></trkpt><trkpt lat="37.2820408" lon="21.8545744"><ele>162.0</ele><time>2026-04-30T08:17:21.897Z</time></trkpt><trkpt lat="37.2821136" lon="21.8543309"><ele>162.0</ele><time>2026-04-30T08:17:22.897Z</time></trkpt><trkpt lat="37.2821972" lon="21.8540754"><ele>162.0</ele><time>2026-04-30T08:17:23.897Z</time></trkpt><trkpt lat="37.2822518" lon="21.8538155"><ele>162.0</ele><time>2026-04-30T08:17:24.897Z</time></trkpt><trkpt lat="37.2823011" lon="21.8535499"><ele>162.66666666666666</ele><time>2026-04-30T08:17:25.898Z</time></trkpt><trkpt lat="37.2823572" lon="21.8532827"><ele>163.33333333333331</ele><time>2026-04-30T08:17:26.897Z</time></trkpt><trkpt lat="37.2823969" lon="21.8530076"><ele>164.0</ele><time>2026-04-30T08:17:27.898Z</time></trkpt><trkpt lat="37.2824396" lon="21.8527338"><ele>164.33333333333331</ele><time>2026-04-30T08:17:28.898Z</time></trkpt><trkpt lat="37.2824854" lon="21.8524625"><ele>164.66666666666666</ele><time>2026-04-30T08:17:29.897Z</time></trkpt><trkpt lat="37.2825277" lon="21.8521851"><ele>165.0</ele><time>2026-04-30T08:17:30.897Z</time></trkpt><trkpt lat="37.2825687" lon="21.8519086"><ele>164.5</ele><time>2026-04-30T08:17:31.898Z</time></trkpt><trkpt lat="37.2826146" lon="21.8516214"><ele>164.0</ele><time>2026-04-30T08:17:32.898Z</time></trkpt><trkpt lat="37.2826604" lon="21.8513329"><ele>164.0</ele><time>2026-04-30T08:17:33.898Z</time></trkpt><trkpt lat="37.2827113" lon="21.8510487"><ele>164.0</ele><time>2026-04-30T08:17:34.898Z</time></trkpt><trkpt lat="37.2827621" lon="21.8507435"><ele>163.5</ele><time>2026-04-30T08:17:35.898Z</time></trkpt><trkpt lat="37.2828124" lon="21.850447"><ele>163.0</ele><time>2026-04-30T08:17:36.897Z</time></trkpt><trkpt lat="37.2828665" lon="21.8501301"><ele>162.5</ele><time>2026-04-30T08:17:37.898Z</time></trkpt><trkpt lat="37.282924" lon="21.8498004"><ele>162.0</ele><time>2026-04-30T08:17:38.898Z</time></trkpt><trkpt lat="37.2829819" lon="21.8494624"><ele>162.0</ele><time>2026-04-30T08:17:39.897Z</time></trkpt><trkpt lat="37.2830408" lon="21.849118"><ele>162.0</ele><time>2026-04-30T08:17:40.898Z</time></trkpt><trkpt lat="37.2831036" lon="21.8487689"><ele>162.0</ele><time>2026-04-30T08:17:41.898Z</time></trkpt><trkpt lat="37.2831696" lon="21.8484307"><ele>162.0</ele><time>2026-04-30T08:17:42.898Z</time></trkpt><trkpt lat="37.2832385" lon="21.8480903"><ele>162.0</ele><time>2026-04-30T08:17:43.898Z</time></trkpt><trkpt lat="37.283297" lon="21.8477639"><ele>162.0</ele><time>2026-04-30T08:17:44.898Z</time></trkpt><trkpt lat="37.2833571" lon="21.8474526"><ele>163.0</ele><time>2026-04-30T08:17:45.898Z</time></trkpt><trkpt lat="37.2834159" lon="21.8471385"><ele>164.0</ele><time>2026-04-30T08:17:46.898Z</time></trkpt><trkpt lat="37.2834725" lon="21.846832"><ele>164.5</ele><time>2026-04-30T08:17:47.898Z</time></trkpt><trkpt lat="37.2835281" lon="21.8465298"><ele>165.0</ele><time>2026-04-30T08:17:48.898Z</time></trkpt><trkpt lat="37.2835806" lon="21.8462364"><ele>167.5</ele><time>2026-04-30T08:17:49.897Z</time></trkpt><trkpt lat="37.2836348" lon="21.8459441"><ele>170.0</ele><time>2026-04-30T08:17:50.897Z</time></trkpt><trkpt lat="37.2836865" lon="21.8456551"><ele>170.0</ele><time>2026-04-30T08:17:51.898Z</time></trkpt><trkpt lat="37.2837404" lon="21.8453578"><ele>170.0</ele><time>2026-04-30T08:17:52.898Z</time></trkpt><trkpt lat="37.2837947" lon="21.8450641"><ele>170.0</ele><time>2026-04-30T08:17:53.898Z</time></trkpt><trkpt lat="37.2838469" lon="21.844768"><ele>170.0</ele><time>2026-04-30T08:17:54.898Z</time></trkpt><trkpt lat="37.2838984" lon="21.844482"><ele>169.5</ele><time>2026-04-30T08:17:55.897Z</time></trkpt><trkpt lat="37.283953" lon="21.8441921"><ele>169.0</ele><time>2026-04-30T08:17:56.897Z</time></trkpt><trkpt lat="37.2839996" lon="21.8439011"><ele>169.0</ele><time>2026-04-30T08:17:57.898Z</time></trkpt><trkpt lat="37.2840515" lon="21.8436154"><ele>169.0</ele><time>2026-04-30T08:17:58.897Z</time></trkpt><trkpt lat="37.2841019" lon="21.8433281"><ele>169.0</ele><time>2026-04-30T08:17:59.897Z</time></trkpt><trkpt lat="37.284153" lon="21.843047"><ele>169.0</ele><time>2026-04-30T08:18:00.898Z</time></trkpt><trkpt lat="37.2842047" lon="21.8427824"><ele>169.0</ele><time>2026-04-30T08:18:01.898Z</time></trkpt><trkpt lat="37.2842553" lon="21.8425068"><ele>170.5</ele><time>2026-04-30T08:18:02.897Z</time></trkpt><trkpt lat="37.2843047" lon="21.8422237"><ele>172.0</ele><time>2026-04-30T08:18:03.897Z</time></trkpt><trkpt lat="37.2843504" lon="21.8419472"><ele>173.0</ele><time>2026-04-30T08:18:04.898Z</time></trkpt><trkpt lat="37.2844" lon="21.8416695"><ele>174.0</ele><time>2026-04-30T08:18:05.898Z</time></trkpt><trkpt lat="37.2844401" lon="21.8413919"><ele>174.0</ele><time>2026-04-30T08:18:06.898Z</time></trkpt><trkpt lat="37.2844903" lon="21.8411118"><ele>174.0</ele><time>2026-04-30T08:18:07.898Z</time></trkpt><trkpt lat="37.2845416" lon="21.8408317"><ele>175.0</ele><time>2026-04-30T08:18:08.897Z</time></trkpt><trkpt lat="37.2845927" lon="21.8405555"><ele>176.0</ele><time>2026-04-30T08:18:09.897Z</time></trkpt><trkpt lat="37.2846481" lon="21.8402741"><ele>177.0</ele><time>2026-04-30T08:18:10.897Z</time></trkpt><trkpt lat="37.2846966" lon="21.8399866"><ele>178.0</ele><time>2026-04-30T08:18:11.897Z</time></trkpt><trkpt lat="37.2847445" lon="21.8397074"><ele>178.0</ele><time>2026-04-30T08:18:12.898Z</time></trkpt><trkpt lat="37.2847895" lon="21.8394237"><ele>178.0</ele><time>2026-04-30T08:18:13.898Z</time></trkpt><trkpt lat="37.284845" lon="21.8391347"><ele>178.5</ele><time>2026-04-30T08:18:14.897Z</time></trkpt><trkpt lat="37.2848987" lon="21.8388471"><ele>179.0</ele><time>2026-04-30T08:18:15.898Z</time></trkpt><trkpt lat="37.2849516" lon="21.8385609"><ele>179.5</ele><time>2026-04-30T08:18:16.898Z</time></trkpt><trkpt lat="37.2850043" lon="21.8382714"><ele>180.0</ele><time>2026-04-30T08:18:17.897Z</time></trkpt><trkpt lat="37.2850552" lon="21.8379838"><ele>180.0</ele><time>2026-04-30T08:18:18.897Z</time></trkpt><trkpt lat="37.2851073" lon="21.8376953"><ele>180.0</ele><time>2026-04-30T08:18:19.897Z</time></trkpt><trkpt lat="37.2851655" lon="21.8374022"><ele>180.5</ele><time>2026-04-30T08:18:20.898Z</time></trkpt><trkpt lat="37.2852167" lon="21.8371105"><ele>181.0</ele><time>2026-04-30T08:18:21.898Z</time></trkpt><trkpt lat="37.2852625" lon="21.8368157"><ele>181.5</ele><time>2026-04-30T08:18:22.897Z</time></trkpt><trkpt lat="37.2853164" lon="21.8365258"><ele>182.0</ele><time>2026-04-30T08:18:23.897Z</time></trkpt><trkpt lat="37.2853699" lon="21.8362429"><ele>183.5</ele><time>2026-04-30T08:18:24.898Z</time></trkpt><trkpt lat="37.2854211" lon="21.8359547"><ele>185.0</ele><time>2026-04-30T08:18:25.897Z</time></trkpt><trkpt lat="37.2854766" lon="21.8356635"><ele>185.0</ele><time>2026-04-30T08:18:26.898Z</time></trkpt><trkpt lat="37.2855281" lon="21.8353674"><ele>185.0</ele><time>2026-04-30T08:18:27.898Z</time></trkpt><trkpt lat="37.2855776" lon="21.8350645"><ele>183.0</ele><time>2026-04-30T08:18:28.898Z</time></trkpt><trkpt lat="37.2856203" lon="21.8347516"><ele>181.0</ele><time>2026-04-30T08:18:29.897Z</time></trkpt><trkpt lat="37.285655" lon="21.8344243"><ele>181.5</ele><time>2026-04-30T08:18:30.898Z</time></trkpt><trkpt lat="37.2856791" lon="21.8340998"><ele>182.0</ele><time>2026-04-30T08:18:31.897Z</time></trkpt><trkpt lat="37.2856959" lon="21.833772"><ele>183.5</ele><time>2026-04-30T08:18:32.898Z</time></trkpt><trkpt lat="37.285703" lon="21.8334471"><ele>185.0</ele><time>2026-04-30T08:18:33.897Z</time></trkpt><trkpt lat="37.2856963" lon="21.8331226"><ele>185.0</ele><time>2026-04-30T08:18:34.898Z</time></trkpt><trkpt lat="37.2856813" lon="21.8328014"><ele>185.0</ele><time>2026-04-30T08:18:35.898Z</time></trkpt><trkpt lat="37.2856604" lon="21.8324901"><ele>185.0</ele><time>2026-04-30T08:18:36.898Z</time></trkpt><trkpt lat="37.2856354" lon="21.8321799"><ele>185.0</ele><time>2026-04-30T08:18:37.897Z</time></trkpt><trkpt lat="37.2855967" lon="21.8318628"><ele>186.5</ele><time>2026-04-30T08:18:38.897Z</time></trkpt><trkpt lat="37.2855474" lon="21.8315424"><ele>188.0</ele><time>2026-04-30T08:18:39.898Z</time></trkpt><trkpt lat="37.2854895" lon="21.8312174"><ele>188.5</ele><time>2026-04-30T08:18:40.897Z</time></trkpt><trkpt lat="37.285423" lon="21.8308919"><ele>189.0</ele><time>2026-04-30T08:18:41.898Z</time></trkpt><trkpt lat="37.2853486" lon="21.8305597"><ele>189.0</ele><time>2026-04-30T08:18:42.897Z</time></trkpt><trkpt lat="37.2852771" lon="21.8302287"><ele>189.0</ele><time>2026-04-30T08:18:43.897Z</time></trkpt><trkpt lat="37.2851989" lon="21.8298967"><ele>190.5</ele><time>2026-04-30T08:18:44.898Z</time></trkpt><trkpt lat="37.2851181" lon="21.8295646"><ele>192.0</ele><time>2026-04-30T08:18:45.898Z</time></trkpt><trkpt lat="37.2850378" lon="21.8292312"><ele>193.5</ele><time>2026-04-30T08:18:46.897Z</time></trkpt><trkpt lat="37.2849654" lon="21.8289004"><ele>195.0</ele><time>2026-04-30T08:18:47.897Z</time></trkpt><trkpt lat="37.2848947" lon="21.8285789"><ele>196.0</ele><time>2026-04-30T08:18:48.897Z</time></trkpt><trkpt lat="37.2848391" lon="21.8282673"><ele>197.0</ele><time>2026-04-30T08:18:49.898Z</time></trkpt><trkpt lat="37.2847866" lon="21.8279725"><ele>197.0</ele><time>2026-04-30T08:18:50.897Z</time></trkpt><trkpt lat="37.2847442" lon="21.8276864"><ele>197.0</ele><time>2026-04-30T08:18:51.897Z</time></trkpt><trkpt lat="37.2847086" lon="21.8273952"><ele>196.5</ele><time>2026-04-30T08:18:52.898Z</time></trkpt><trkpt lat="37.2846807" lon="21.8270999"><ele>196.0</ele><time>2026-04-30T08:18:53.898Z</time></trkpt><trkpt lat="37.2846554" lon="21.8267929"><ele>196.0</ele><time>2026-04-30T08:18:54.898Z</time></trkpt><trkpt lat="37.2846393" lon="21.8264844"><ele>196.0</ele><time>2026-04-30T08:18:55.898Z</time></trkpt><trkpt lat="37.2846321" lon="21.8261696"><ele>195.0</ele><time>2026-04-30T08:18:56.897Z</time></trkpt><trkpt lat="37.2846332" lon="21.8258585"><ele>194.0</ele><time>2026-04-30T08:18:57.897Z</time></trkpt><trkpt lat="37.2846392" lon="21.8255439"><ele>194.0</ele><time>2026-04-30T08:18:58.898Z</time></trkpt><trkpt lat="37.2846494" lon="21.8252312"><ele>194.0</ele><time>2026-04-30T08:18:59.897Z</time></trkpt><trkpt lat="37.2846597" lon="21.8249161"><ele>193.0</ele><time>2026-04-30T08:19:00.897Z</time></trkpt><trkpt lat="37.2846666" lon="21.8246024"><ele>192.0</ele><time>2026-04-30T08:19:01.898Z</time></trkpt><trkpt lat="37.2846768" lon="21.8242842"><ele>192.0</ele><time>2026-04-30T08:19:02.897Z</time></trkpt><trkpt lat="37.2846785" lon="21.823968"><ele>192.0</ele><time>2026-04-30T08:19:03.898Z</time></trkpt><trkpt lat="37.2846914" lon="21.8236583"><ele>192.5</ele><time>2026-04-30T08:19:04.897Z</time></trkpt><trkpt lat="37.2846998" lon="21.8233495"><ele>193.0</ele><time>2026-04-30T08:19:05.898Z</time></trkpt><trkpt lat="37.2847092" lon="21.8230428"><ele>193.0</ele><time>2026-04-30T08:19:06.898Z</time></trkpt><trkpt lat="37.2847224" lon="21.8227354"><ele>193.0</ele><time>2026-04-30T08:19:07.897Z</time></trkpt><trkpt lat="37.2847315" lon="21.822435"><ele>193.0</ele><time>2026-04-30T08:19:08.897Z</time></trkpt><trkpt lat="37.2847384" lon="21.8221339"><ele>193.0</ele><time>2026-04-30T08:19:09.897Z</time></trkpt><trkpt lat="37.2847484" lon="21.8218347"><ele>193.5</ele><time>2026-04-30T08:19:10.897Z</time></trkpt><trkpt lat="37.2847634" lon="21.8215352"><ele>194.0</ele><time>2026-04-30T08:19:11.897Z</time></trkpt><trkpt lat="37.2847715" lon="21.8212294"><ele>192.0</ele><time>2026-04-30T08:19:12.898Z</time></trkpt><trkpt lat="37.2847842" lon="21.8209329"><ele>190.0</ele><time>2026-04-30T08:19:13.898Z</time></trkpt><trkpt lat="37.2847935" lon="21.8206324"><ele>190.0</ele><time>2026-04-30T08:19:14.898Z</time></trkpt><trkpt lat="37.2848059" lon="21.8203384"><ele>190.0</ele><time>2026-04-30T08:19:15.897Z</time></trkpt><trkpt lat="37.284815" lon="21.8200415"><ele>189.5</ele><time>2026-04-30T08:19:16.898Z</time></trkpt><trkpt lat="37.2848247" lon="21.8197432"><ele>189.0</ele><time>2026-04-30T08:19:17.897Z</time></trkpt><trkpt lat="37.2848278" lon="21.8194465"><ele>188.5</ele><time>2026-04-30T08:19:18.898Z</time></trkpt><trkpt lat="37.2848307" lon="21.819148"><ele>188.0</ele><time>2026-04-30T08:19:19.898Z</time></trkpt><trkpt lat="37.2848285" lon="21.8188516"><ele>188.0</ele><time>2026-04-30T08:19:20.898Z</time></trkpt><trkpt lat="37.2848216" lon="21.8185591"><ele>188.0</ele><time>2026-04-30T08:19:21.898Z</time></trkpt><trkpt lat="37.2848099" lon="21.8182652"><ele>187.0</ele><time>2026-04-30T08:19:22.897Z</time></trkpt><trkpt lat="37.2847942" lon="21.8179919"><ele>186.0</ele><time>2026-04-30T08:19:23.897Z</time></trkpt><trkpt lat="37.284773" lon="21.8177236"><ele>185.0</ele><time>2026-04-30T08:19:24.898Z</time></trkpt><trkpt lat="37.2847472" lon="21.8174625"><ele>184.33333333333331</ele><time>2026-04-30T08:19:25.897Z</time></trkpt><trkpt lat="37.284724" lon="21.8172128"><ele>183.66666666666666</ele><time>2026-04-30T08:19:26.897Z</time></trkpt><trkpt lat="37.2846992" lon="21.8169638"><ele>183.0</ele><time>2026-04-30T08:19:27.897Z</time></trkpt><trkpt lat="37.284677" lon="21.8167151"><ele>182.0</ele><time>2026-04-30T08:19:28.898Z</time></trkpt><trkpt lat="37.2846576" lon="21.8164707"><ele>181.0</ele><time>2026-04-30T08:19:29.897Z</time></trkpt><trkpt lat="37.2846364" lon="21.8162303"><ele>180.0</ele><time>2026-04-30T08:19:30.897Z</time></trkpt><trkpt lat="37.2846131" lon="21.8159909"><ele>179.0</ele><time>2026-04-30T08:19:31.898Z</time></trkpt><trkpt lat="37.2845923" lon="21.8157573"><ele>178.0</ele><time>2026-04-30T08:19:32.898Z</time></trkpt><trkpt lat="37.2845675" lon="21.8155268"><ele>177.0</ele><time>2026-04-30T08:19:33.898Z</time></trkpt><trkpt lat="37.2845383" lon="21.8153058"><ele>177.66666666666666</ele><time>2026-04-30T08:19:34.898Z</time></trkpt><trkpt lat="37.2844965" lon="21.8150853"><ele>178.33333333333331</ele><time>2026-04-30T08:19:35.898Z</time></trkpt><trkpt lat="37.2844347" lon="21.8148849"><ele>179.0</ele><time>2026-04-30T08:19:36.898Z</time></trkpt><trkpt lat="37.28436" lon="21.8147035"><ele>179.0</ele><time>2026-04-30T08:19:37.898Z</time></trkpt><trkpt lat="37.2842716" lon="21.8145469"><ele>179.0</ele><time>2026-04-30T08:19:38.898Z</time></trkpt><trkpt lat="37.2841885" lon="21.8143896"><ele>179.0</ele><time>2026-04-30T08:19:39.898Z</time></trkpt><trkpt lat="37.2840956" lon="21.8142398"><ele>178.33333333333331</ele><time>2026-04-30T08:19:40.898Z</time></trkpt><trkpt lat="37.2840041" lon="21.8140701"><ele>177.66666666666666</ele><time>2026-04-30T08:19:41.898Z</time></trkpt><trkpt lat="37.2839347" lon="21.8139096"><ele>177.0</ele><time>2026-04-30T08:19:42.898Z</time></trkpt><trkpt lat="37.2838693" lon="21.8137401"><ele>177.0</ele><time>2026-04-30T08:19:43.897Z</time></trkpt><trkpt lat="37.2838216" lon="21.8135557"><ele>177.0</ele><time>2026-04-30T08:19:44.898Z</time></trkpt><trkpt lat="37.2837841" lon="21.8133671"><ele>177.0</ele><time>2026-04-30T08:19:45.897Z</time></trkpt><trkpt lat="37.2837621" lon="21.8131719"><ele>177.0</ele><time>2026-04-30T08:19:46.898Z</time></trkpt><trkpt lat="37.2837632" lon="21.812966"><ele>177.0</ele><time>2026-04-30T08:19:47.898Z</time></trkpt><trkpt lat="37.2837447" lon="21.8127501"><ele>177.0</ele><time>2026-04-30T08:19:48.898Z</time></trkpt><trkpt lat="37.2837442" lon="21.8125332"><ele>177.0</ele><time>2026-04-30T08:19:49.898Z</time></trkpt><trkpt lat="37.2837434" lon="21.8123167"><ele>177.0</ele><time>2026-04-30T08:19:50.898Z</time></trkpt><trkpt lat="37.28376" lon="21.8120931"><ele>177.0</ele><time>2026-04-30T08:19:51.897Z</time></trkpt><trkpt lat="37.2837512" lon="21.8118806"><ele>175.66666666666666</ele><time>2026-04-30T08:19:52.897Z</time></trkpt><trkpt lat="37.2837454" lon="21.8116612"><ele>174.33333333333331</ele><time>2026-04-30T08:19:53.897Z</time></trkpt><trkpt lat="37.2837464" lon="21.8114404"><ele>173.0</ele><time>2026-04-30T08:19:54.898Z</time></trkpt><trkpt lat="37.2837376" lon="21.8112256"><ele>173.0</ele><time>2026-04-30T08:19:55.898Z</time></trkpt><trkpt lat="37.2837308" lon="21.8110033"><ele>173.0</ele><time>2026-04-30T08:19:56.898Z</time></trkpt><trkpt lat="37.2837272" lon="21.8107853"><ele>173.0</ele><time>2026-04-30T08:19:57.898Z</time></trkpt><trkpt lat="37.2837299" lon="21.810568"><ele>171.33333333333331</ele><time>2026-04-30T08:19:58.898Z</time></trkpt><trkpt lat="37.2837262" lon="21.8103612"><ele>169.66666666666666</ele><time>2026-04-30T08:19:59.898Z</time></trkpt><trkpt lat="37.2837245" lon="21.8101527"><ele>168.0</ele><time>2026-04-30T08:20:00.898Z</time></trkpt><trkpt lat="37.2837433" lon="21.8099589"><ele>166.66666666666666</ele><time>2026-04-30T08:20:01.897Z</time></trkpt><trkpt lat="37.2837903" lon="21.8097693"><ele>165.33333333333331</ele><time>2026-04-30T08:20:02.897Z</time></trkpt><trkpt lat="37.2838509" lon="21.8095858"><ele>164.0</ele><time>2026-04-30T08:20:03.897Z</time></trkpt><trkpt lat="37.2839239" lon="21.8093927"><ele>163.66666666666666</ele><time>2026-04-30T08:20:04.898Z</time></trkpt><trkpt lat="37.2839961" lon="21.8092041"><ele>163.33333333333334</ele><time>2026-04-30T08:20:05.898Z</time></trkpt><trkpt lat="37.2840489" lon="21.8090098"><ele>163.0</ele><time>2026-04-30T08:20:06.897Z</time></trkpt><trkpt lat="37.284076" lon="21.8087918"><ele>163.0</ele><time>2026-04-30T08:20:07.898Z</time></trkpt><trkpt lat="37.2840814" lon="21.8085464"><ele>163.0</ele><time>2026-04-30T08:20:08.897Z</time></trkpt><trkpt lat="37.2840648" lon="21.8082725"><ele>163.0</ele><time>2026-04-30T08:20:09.898Z</time></trkpt><trkpt lat="37.2840349" lon="21.8079885"><ele>162.0</ele><time>2026-04-30T08:20:10.898Z</time></trkpt><trkpt lat="37.2840027" lon="21.8077017"><ele>161.0</ele><time>2026-04-30T08:20:11.897Z</time></trkpt><trkpt lat="37.2839699" lon="21.8074005"><ele>161.0</ele><time>2026-04-30T08:20:12.898Z</time></trkpt><trkpt lat="37.2839452" lon="21.8071075"><ele>161.0</ele><time>2026-04-30T08:20:13.898Z</time></trkpt><trkpt lat="37.2839334" lon="21.8068163"><ele>160.5</ele><time>2026-04-30T08:20:14.898Z</time></trkpt><trkpt lat="37.2839191" lon="21.8065239"><ele>160.0</ele><time>2026-04-30T08:20:15.897Z</time></trkpt><trkpt lat="37.2839203" lon="21.8062292"><ele>162.0</ele><time>2026-04-30T08:20:16.898Z</time></trkpt><trkpt lat="37.2839359" lon="21.8059374"><ele>164.0</ele><time>2026-04-30T08:20:17.898Z</time></trkpt><trkpt lat="37.2839548" lon="21.805642"><ele>164.0</ele><time>2026-04-30T08:20:18.897Z</time></trkpt><trkpt lat="37.2839965" lon="21.805352"><ele>164.0</ele><time>2026-04-30T08:20:19.897Z</time></trkpt><trkpt lat="37.2840453" lon="21.8050688"><ele>167.0</ele><time>2026-04-30T08:20:20.897Z</time></trkpt><trkpt lat="37.2840982" lon="21.8047884"><ele>170.0</ele><time>2026-04-30T08:20:21.898Z</time></trkpt><trkpt lat="37.2841559" lon="21.8045083"><ele>170.66666666666666</ele><time>2026-04-30T08:20:22.897Z</time></trkpt><trkpt lat="37.2842121" lon="21.8042343"><ele>171.33333333333334</ele><time>2026-04-30T08:20:23.897Z</time></trkpt><trkpt lat="37.2842757" lon="21.8039676"><ele>172.0</ele><time>2026-04-30T08:20:24.897Z</time></trkpt><trkpt lat="37.2843352" lon="21.8036923"><ele>173.0</ele><time>2026-04-30T08:20:25.898Z</time></trkpt><trkpt lat="37.2843961" lon="21.8034163"><ele>174.0</ele><time>2026-04-30T08:20:26.898Z</time></trkpt><trkpt lat="37.284457" lon="21.8031427"><ele>174.0</ele><time>2026-04-30T08:20:27.897Z</time></trkpt><trkpt lat="37.2845171" lon="21.8028751"><ele>174.0</ele><time>2026-04-30T08:20:28.898Z</time></trkpt><trkpt lat="37.2845756" lon="21.8026053"><ele>174.0</ele><time>2026-04-30T08:20:29.897Z</time></trkpt><trkpt lat="37.2846306" lon="21.802338"><ele>174.33333333333334</ele><time>2026-04-30T08:20:30.897Z</time></trkpt><trkpt lat="37.284683" lon="21.8020722"><ele>174.66666666666669</ele><time>2026-04-30T08:20:31.898Z</time></trkpt><trkpt lat="37.2847401" lon="21.8018123"><ele>175.0</ele><time>2026-04-30T08:20:32.897Z</time></trkpt><trkpt lat="37.2847967" lon="21.8015591"><ele>177.33333333333334</ele><time>2026-04-30T08:20:33.898Z</time></trkpt><trkpt lat="37.284849" lon="21.8013106"><ele>179.66666666666666</ele><time>2026-04-30T08:20:34.897Z</time></trkpt><trkpt lat="37.2849014" lon="21.8010593"><ele>182.0</ele><time>2026-04-30T08:20:35.897Z</time></trkpt><trkpt lat="37.284941" lon="21.8008158"><ele>183.33333333333331</ele><time>2026-04-30T08:20:36.897Z</time></trkpt><trkpt lat="37.2849676" lon="21.8005775"><ele>184.66666666666666</ele><time>2026-04-30T08:20:37.898Z</time></trkpt><trkpt lat="37.2849764" lon="21.8003406"><ele>186.0</ele><time>2026-04-30T08:20:38.898Z</time></trkpt><trkpt lat="37.2849714" lon="21.8001118"><ele>186.33333333333334</ele><time>2026-04-30T08:20:39.897Z</time></trkpt><trkpt lat="37.2849536" lon="21.7998786"><ele>186.66666666666669</ele><time>2026-04-30T08:20:40.898Z</time></trkpt><trkpt lat="37.2849248" lon="21.7996261"><ele>187.0</ele><time>2026-04-30T08:20:41.898Z</time></trkpt><trkpt lat="37.2848913" lon="21.7993497"><ele>187.0</ele><time>2026-04-30T08:20:42.898Z</time></trkpt><trkpt lat="37.2848472" lon="21.79906"><ele>187.0</ele><time>2026-04-30T08:20:43.898Z</time></trkpt><trkpt lat="37.2847899" lon="21.7987791"><ele>189.5</ele><time>2026-04-30T08:20:44.898Z</time></trkpt><trkpt lat="37.2847088" lon="21.7984882"><ele>192.0</ele><time>2026-04-30T08:20:45.897Z</time></trkpt><trkpt lat="37.2846281" lon="21.7982131"><ele>192.0</ele><time>2026-04-30T08:20:46.898Z</time></trkpt><trkpt lat="37.2845411" lon="21.797931"><ele>192.0</ele><time>2026-04-30T08:20:47.897Z</time></trkpt><trkpt lat="37.2844549" lon="21.7976481"><ele>191.5</ele><time>2026-04-30T08:20:48.897Z</time></trkpt><trkpt lat="37.2843602" lon="21.7973723"><ele>191.0</ele><time>2026-04-30T08:20:49.897Z</time></trkpt><trkpt lat="37.2842826" lon="21.797101"><ele>189.33333333333331</ele><time>2026-04-30T08:20:50.897Z</time></trkpt><trkpt lat="37.284211" lon="21.7968334"><ele>187.66666666666666</ele><time>2026-04-30T08:20:51.897Z</time></trkpt><trkpt lat="37.2841583" lon="21.7965661"><ele>186.0</ele><time>2026-04-30T08:20:52.898Z</time></trkpt><trkpt lat="37.2841336" lon="21.7962878"><ele>186.0</ele><time>2026-04-30T08:20:53.898Z</time></trkpt><trkpt lat="37.2841124" lon="21.7960141"><ele>186.0</ele><time>2026-04-30T08:20:54.898Z</time></trkpt><trkpt lat="37.2840896" lon="21.7957332"><ele>186.0</ele><time>2026-04-30T08:20:55.897Z</time></trkpt><trkpt lat="37.2840647" lon="21.7954489"><ele>185.33333333333334</ele><time>2026-04-30T08:20:56.898Z</time></trkpt><trkpt lat="37.2840402" lon="21.7951725"><ele>184.66666666666669</ele><time>2026-04-30T08:20:57.897Z</time></trkpt><trkpt lat="37.2840267" lon="21.7948898"><ele>184.0</ele><time>2026-04-30T08:20:58.897Z</time></trkpt><trkpt lat="37.2839991" lon="21.7946151"><ele>184.0</ele><time>2026-04-30T08:20:59.897Z</time></trkpt><trkpt lat="37.2839643" lon="21.7943369"><ele>184.0</ele><time>2026-04-30T08:21:00.897Z</time></trkpt><trkpt lat="37.2839313" lon="21.7940681"><ele>184.0</ele><time>2026-04-30T08:21:01.898Z</time></trkpt><trkpt lat="37.283894" lon="21.7937925"><ele>178.0</ele><time>2026-04-30T08:21:02.898Z</time></trkpt><trkpt lat="37.2838492" lon="21.7935089"><ele>172.0</ele><time>2026-04-30T08:21:03.898Z</time></trkpt><trkpt lat="37.2838165" lon="21.79323"><ele>168.5</ele><time>2026-04-30T08:21:04.897Z</time></trkpt><trkpt lat="37.2837709" lon="21.7929426"><ele>165.0</ele><time>2026-04-30T08:21:05.898Z</time></trkpt><trkpt lat="37.2837278" lon="21.7926589"><ele>165.0</ele><time>2026-04-30T08:21:06.897Z</time></trkpt><trkpt lat="37.283691" lon="21.7923713"><ele>165.0</ele><time>2026-04-30T08:21:07.898Z</time></trkpt><trkpt lat="37.2836587" lon="21.7920898"><ele>166.0</ele><time>2026-04-30T08:21:08.898Z</time></trkpt><trkpt lat="37.2836291" lon="21.7918063"><ele>167.0</ele><time>2026-04-30T08:21:09.897Z</time></trkpt><trkpt lat="37.2835913" lon="21.7915261"><ele>167.0</ele><time>2026-04-30T08:21:10.898Z</time></trkpt><trkpt lat="37.2835525" lon="21.7912436"><ele>167.0</ele><time>2026-04-30T08:21:11.898Z</time></trkpt><trkpt lat="37.2835129" lon="21.7909643"><ele>165.5</ele><time>2026-04-30T08:21:12.898Z</time></trkpt><trkpt lat="37.2834744" lon="21.7906812"><ele>164.0</ele><time>2026-04-30T08:21:13.897Z</time></trkpt><trkpt lat="37.2834439" lon="21.7903995"><ele>165.5</ele><time>2026-04-30T08:21:14.898Z</time></trkpt><trkpt lat="37.2834194" lon="21.790114"><ele>167.0</ele><time>2026-04-30T08:21:15.897Z</time></trkpt><trkpt lat="37.2833959" lon="21.789826"><ele>167.0</ele><time>2026-04-30T08:21:16.898Z</time></trkpt><trkpt lat="37.2833892" lon="21.7895274"><ele>167.0</ele><time>2026-04-30T08:21:17.898Z</time></trkpt><trkpt lat="37.2833869" lon="21.7892322"><ele>165.0</ele><time>2026-04-30T08:21:18.898Z</time></trkpt><trkpt lat="37.2833881" lon="21.7889368"><ele>163.0</ele><time>2026-04-30T08:21:19.897Z</time></trkpt><trkpt lat="37.2833843" lon="21.7886363"><ele>161.0</ele><time>2026-04-30T08:21:20.898Z</time></trkpt><trkpt lat="37.283391" lon="21.7883348"><ele>159.0</ele><time>2026-04-30T08:21:21.897Z</time></trkpt><trkpt lat="37.2834032" lon="21.7880413"><ele>159.0</ele><time>2026-04-30T08:21:22.898Z</time></trkpt><trkpt lat="37.283416" lon="21.7877377"><ele>159.0</ele><time>2026-04-30T08:21:23.898Z</time></trkpt><trkpt lat="37.283424" lon="21.7874433"><ele>157.33333333333334</ele><time>2026-04-30T08:21:24.898Z</time></trkpt><trkpt lat="37.2834319" lon="21.7871644"><ele>155.66666666666669</ele><time>2026-04-30T08:21:25.898Z</time></trkpt><trkpt lat="37.2834407" lon="21.7868939"><ele>154.0</ele><time>2026-04-30T08:21:26.897Z</time></trkpt><trkpt lat="37.2834555" lon="21.786634"><ele>153.0</ele><time>2026-04-30T08:21:27.897Z</time></trkpt><trkpt lat="37.283466" lon="21.786377"><ele>152.0</ele><time>2026-04-30T08:21:28.897Z</time></trkpt><trkpt lat="37.2834764" lon="21.7861341"><ele>151.0</ele><time>2026-04-30T08:21:29.898Z</time></trkpt><trkpt lat="37.2834914" lon="21.7859015"><ele>148.66666666666669</ele><time>2026-04-30T08:21:30.898Z</time></trkpt><trkpt lat="37.2835146" lon="21.7856639"><ele>146.33333333333334</ele><time>2026-04-30T08:21:31.898Z</time></trkpt><trkpt lat="37.2835551" lon="21.7854316"><ele>144.0</ele><time>2026-04-30T08:21:32.898Z</time></trkpt><trkpt lat="37.2836213" lon="21.785212"><ele>143.0</ele><time>2026-04-30T08:21:33.897Z</time></trkpt><trkpt lat="37.2837058" lon="21.7849968"><ele>142.0</ele><time>2026-04-30T08:21:34.898Z</time></trkpt><trkpt lat="37.2838299" lon="21.7847824"><ele>141.0</ele><time>2026-04-30T08:21:35.897Z</time></trkpt><trkpt lat="37.2839747" lon="21.7845858"><ele>141.0</ele><time>2026-04-30T08:21:36.897Z</time></trkpt><trkpt lat="37.2841104" lon="21.7843968"><ele>141.0</ele><time>2026-04-30T08:21:37.897Z</time></trkpt><trkpt lat="37.2842288" lon="21.7841987"><ele>141.0</ele><time>2026-04-30T08:21:38.897Z</time></trkpt><trkpt lat="37.2843446" lon="21.78401"><ele>137.33333333333334</ele><time>2026-04-30T08:21:39.897Z</time></trkpt><trkpt lat="37.2844447" lon="21.7838012"><ele>133.66666666666669</ele><time>2026-04-30T08:21:40.898Z</time></trkpt><trkpt lat="37.2845186" lon="21.7835995"><ele>130.0</ele><time>2026-04-30T08:21:41.898Z</time></trkpt><trkpt lat="37.2845696" lon="21.7833859"><ele>129.33333333333334</ele><time>2026-04-30T08:21:42.898Z</time></trkpt><trkpt lat="37.2845938" lon="21.7831479"><ele>128.66666666666666</ele><time>2026-04-30T08:21:43.898Z</time></trkpt><trkpt lat="37.2845928" lon="21.7828832"><ele>128.0</ele><time>2026-04-30T08:21:44.897Z</time></trkpt><trkpt lat="37.2845683" lon="21.7826089"><ele>130.0</ele><time>2026-04-30T08:21:45.897Z</time></trkpt><trkpt lat="37.2845334" lon="21.7823306"><ele>132.0</ele><time>2026-04-30T08:21:46.898Z</time></trkpt><trkpt lat="37.2844961" lon="21.7820456"><ele>132.0</ele><time>2026-04-30T08:21:47.897Z</time></trkpt><trkpt lat="37.2844601" lon="21.7817638"><ele>132.0</ele><time>2026-04-30T08:21:48.898Z</time></trkpt><trkpt lat="37.2844218" lon="21.7814933"><ele>132.0</ele><time>2026-04-30T08:21:49.898Z</time></trkpt><trkpt lat="37.2843826" lon="21.781219"><ele>128.66666666666666</ele><time>2026-04-30T08:21:50.897Z</time></trkpt><trkpt lat="37.2843425" lon="21.7809438"><ele>125.33333333333333</ele><time>2026-04-30T08:21:51.897Z</time></trkpt><trkpt lat="37.284304" lon="21.7806778"><ele>122.0</ele><time>2026-04-30T08:21:52.897Z</time></trkpt><trkpt lat="37.2842661" lon="21.7804121"><ele>122.66666666666666</ele><time>2026-04-30T08:21:53.898Z</time></trkpt><trkpt lat="37.2842254" lon="21.7801444"><ele>123.33333333333334</ele><time>2026-04-30T08:21:54.897Z</time></trkpt><trkpt lat="37.2841885" lon="21.7798808"><ele>124.0</ele><time>2026-04-30T08:21:55.898Z</time></trkpt><trkpt lat="37.2841516" lon="21.7796206"><ele>125.33333333333334</ele><time>2026-04-30T08:21:56.898Z</time></trkpt><trkpt lat="37.2841035" lon="21.7793468"><ele>126.66666666666666</ele><time>2026-04-30T08:21:57.898Z</time></trkpt><trkpt lat="37.2840663" lon="21.7790815"><ele>128.0</ele><time>2026-04-30T08:21:58.898Z</time></trkpt><trkpt lat="37.2840321" lon="21.7788238"><ele>128.0</ele><time>2026-04-30T08:21:59.898Z</time></trkpt><trkpt lat="37.2839981" lon="21.7785637"><ele>128.0</ele><time>2026-04-30T08:22:00.897Z</time></trkpt><trkpt lat="37.2839648" lon="21.7783157"><ele>128.0</ele><time>2026-04-30T08:22:01.898Z</time></trkpt><trkpt lat="37.2839292" lon="21.7780745"><ele>124.0</ele><time>2026-04-30T08:22:02.897Z</time></trkpt><trkpt lat="37.2838904" lon="21.7778326"><ele>120.0</ele><time>2026-04-30T08:22:03.897Z</time></trkpt><trkpt lat="37.2838461" lon="21.7775928"><ele>116.0</ele><time>2026-04-30T08:22:04.897Z</time></trkpt><trkpt lat="37.2837839" lon="21.7773535"><ele>115.66666666666666</ele><time>2026-04-30T08:22:05.898Z</time></trkpt><trkpt lat="37.2836992" lon="21.7771166"><ele>115.33333333333334</ele><time>2026-04-30T08:22:06.898Z</time></trkpt><trkpt lat="37.283585" lon="21.7768968"><ele>115.0</ele><time>2026-04-30T08:22:07.898Z</time></trkpt><trkpt lat="37.2834559" lon="21.7766959"><ele>114.33333333333334</ele><time>2026-04-30T08:22:08.897Z</time></trkpt><trkpt lat="37.283312" lon="21.7765136"><ele>113.66666666666666</ele><time>2026-04-30T08:22:09.897Z</time></trkpt><trkpt lat="37.2831674" lon="21.7763415"><ele>113.0</ele><time>2026-04-30T08:22:10.897Z</time></trkpt><trkpt lat="37.283024" lon="21.7761876"><ele>112.0</ele><time>2026-04-30T08:22:11.898Z</time></trkpt><trkpt lat="37.2828863" lon="21.7760286"><ele>111.0</ele><time>2026-04-30T08:22:12.897Z</time></trkpt><trkpt lat="37.2827571" lon="21.7758592"><ele>110.0</ele><time>2026-04-30T08:22:13.897Z</time></trkpt><trkpt lat="37.2826515" lon="21.7756765"><ele>110.0</ele><time>2026-04-30T08:22:14.897Z</time></trkpt><trkpt lat="37.2825733" lon="21.7754752"><ele>110.0</ele><time>2026-04-30T08:22:15.898Z</time></trkpt><trkpt lat="37.2825299" lon="21.7752709"><ele>110.0</ele><time>2026-04-30T08:22:16.898Z</time></trkpt><trkpt lat="37.282511" lon="21.7750638"><ele>110.0</ele><time>2026-04-30T08:22:17.898Z</time></trkpt><trkpt lat="37.2825382" lon="21.7748455"><ele>110.0</ele><time>2026-04-30T08:22:18.897Z</time></trkpt><trkpt lat="37.2825941" lon="21.7746203"><ele>110.0</ele><time>2026-04-30T08:22:19.898Z</time></trkpt><trkpt lat="37.2826739" lon="21.7744035"><ele>110.33333333333333</ele><time>2026-04-30T08:22:20.898Z</time></trkpt><trkpt lat="37.2827591" lon="21.7741951"><ele>110.66666666666666</ele><time>2026-04-30T08:22:21.897Z</time></trkpt><trkpt lat="37.2828375" lon="21.7739906"><ele>111.0</ele><time>2026-04-30T08:22:22.897Z</time></trkpt><trkpt lat="37.2829165" lon="21.773792"><ele>111.0</ele><time>2026-04-30T08:22:23.897Z</time></trkpt><trkpt lat="37.2829983" lon="21.7735962"><ele>111.0</ele><time>2026-04-30T08:22:24.897Z</time></trkpt><trkpt lat="37.2830761" lon="21.7733995"><ele>111.0</ele><time>2026-04-30T08:22:25.898Z</time></trkpt><trkpt lat="37.2831497" lon="21.7732027"><ele>109.33333333333334</ele><time>2026-04-30T08:22:26.897Z</time></trkpt><trkpt lat="37.2832164" lon="21.7730046"><ele>107.66666666666667</ele><time>2026-04-30T08:22:27.897Z</time></trkpt><trkpt lat="37.2832641" lon="21.7727926"><ele>106.0</ele><time>2026-04-30T08:22:28.897Z</time></trkpt><trkpt lat="37.2833" lon="21.7725769"><ele>106.0</ele><time>2026-04-30T08:22:29.897Z</time></trkpt><trkpt lat="37.2833163" lon="21.772357"><ele>106.0</ele><time>2026-04-30T08:22:30.898Z</time></trkpt><trkpt lat="37.2833196" lon="21.7721363"><ele>106.0</ele><time>2026-04-30T08:22:31.897Z</time></trkpt><trkpt lat="37.2833103" lon="21.7719136"><ele>104.0</ele><time>2026-04-30T08:22:32.897Z</time></trkpt><trkpt lat="37.2832803" lon="21.7716884"><ele>102.0</ele><time>2026-04-30T08:22:33.898Z</time></trkpt><trkpt lat="37.283213" lon="21.7714611"><ele>100.0</ele><time>2026-04-30T08:22:34.898Z</time></trkpt><trkpt lat="37.2831531" lon="21.7712426"><ele>101.33333333333334</ele><time>2026-04-30T08:22:35.898Z</time></trkpt><trkpt lat="37.2830859" lon="21.7710348"><ele>102.66666666666666</ele><time>2026-04-30T08:22:36.897Z</time></trkpt><trkpt lat="37.2830139" lon="21.7708294"><ele>104.0</ele><time>2026-04-30T08:22:37.898Z</time></trkpt><trkpt lat="37.2829453" lon="21.7706367"><ele>100.5</ele><time>2026-04-30T08:22:38.898Z</time></trkpt><trkpt lat="37.282894" lon="21.7704661"><ele>97.0</ele><time>2026-04-30T08:22:39.898Z</time></trkpt><trkpt lat="37.2828333" lon="21.7702944"><ele>93.5</ele><time>2026-04-30T08:22:40.897Z</time></trkpt><trkpt lat="37.2827539" lon="21.7701364"><ele>90.0</ele><time>2026-04-30T08:22:41.897Z</time></trkpt><trkpt lat="37.2826504" lon="21.7699951"><ele>89.75</ele><time>2026-04-30T08:22:42.897Z</time></trkpt><trkpt lat="37.2825413" lon="21.7698755"><ele>89.5</ele><time>2026-04-30T08:22:43.897Z</time></trkpt><trkpt lat="37.2824334" lon="21.76977"><ele>89.25</ele><time>2026-04-30T08:22:44.898Z</time></trkpt><trkpt lat="37.2823209" lon="21.7696644"><ele>89.0</ele><time>2026-04-30T08:22:45.897Z</time></trkpt><trkpt lat="37.2822117" lon="21.7695572"><ele>88.75</ele><time>2026-04-30T08:22:46.897Z</time></trkpt><trkpt lat="37.2821044" lon="21.7694351"><ele>88.5</ele><time>2026-04-30T08:22:47.898Z</time></trkpt><trkpt lat="37.282008" lon="21.7692972"><ele>88.25</ele><time>2026-04-30T08:22:48.897Z</time></trkpt><trkpt lat="37.2819264" lon="21.7691542"><ele>88.0</ele><time>2026-04-30T08:22:49.897Z</time></trkpt><trkpt lat="37.281858" lon="21.7689866"><ele>88.0</ele><time>2026-04-30T08:22:50.898Z</time></trkpt><trkpt lat="37.2818147" lon="21.7688126"><ele>88.0</ele><time>2026-04-30T08:22:51.897Z</time></trkpt><trkpt lat="37.2817997" lon="21.7686291"><ele>88.0</ele><time>2026-04-30T08:22:52.898Z</time></trkpt><trkpt lat="37.2818073" lon="21.768446"><ele>88.0</ele><time>2026-04-30T08:22:53.897Z</time></trkpt><trkpt lat="37.281849" lon="21.7682567"><ele>88.66666666666666</ele><time>2026-04-30T08:22:54.898Z</time></trkpt><trkpt lat="37.2819098" lon="21.7680731"><ele>89.33333333333333</ele><time>2026-04-30T08:22:55.897Z</time></trkpt><trkpt lat="37.2819975" lon="21.7678897"><ele>90.0</ele><time>2026-04-30T08:22:56.898Z</time></trkpt><trkpt lat="37.282112" lon="21.7676861"><ele>88.0</ele><time>2026-04-30T08:22:57.898Z</time></trkpt><trkpt lat="37.2822637" lon="21.7674667"><ele>86.0</ele><time>2026-04-30T08:22:58.898Z</time></trkpt><trkpt lat="37.2824447" lon="21.7672267"><ele>89.5</ele><time>2026-04-30T08:22:59.897Z</time></trkpt><trkpt lat="37.2826229" lon="21.7669957"><ele>93.0</ele><time>2026-04-30T08:23:00.897Z</time></trkpt><trkpt lat="37.282812" lon="21.7667393"><ele>93.0</ele><time>2026-04-30T08:23:01.898Z</time></trkpt><trkpt lat="37.2829919" lon="21.7665051"><ele>93.0</ele><time>2026-04-30T08:23:02.897Z</time></trkpt><trkpt lat="37.2831628" lon="21.7662899"><ele>93.0</ele><time>2026-04-30T08:23:03.898Z</time></trkpt><trkpt lat="37.2833176" lon="21.7660933"><ele>93.0</ele><time>2026-04-30T08:23:04.897Z</time></trkpt><trkpt lat="37.2834636" lon="21.7659044"><ele>93.0</ele><time>2026-04-30T08:23:05.898Z</time></trkpt><trkpt lat="37.2835927" lon="21.7657168"><ele>93.0</ele><time>2026-04-30T08:23:06.898Z</time></trkpt><trkpt lat="37.2837072" lon="21.7655181"><ele>93.0</ele><time>2026-04-30T08:23:07.898Z</time></trkpt><trkpt lat="37.2838029" lon="21.7652918"><ele>93.0</ele><time>2026-04-30T08:23:08.897Z</time></trkpt><trkpt lat="37.2838786" lon="21.7650644"><ele>94.33333333333334</ele><time>2026-04-30T08:23:09.898Z</time></trkpt><trkpt lat="37.2839236" lon="21.7648195"><ele>95.66666666666667</ele><time>2026-04-30T08:23:10.897Z</time></trkpt><trkpt lat="37.2839352" lon="21.7645738"><ele>97.0</ele><time>2026-04-30T08:23:11.898Z</time></trkpt><trkpt lat="37.2839044" lon="21.7643266"><ele>100.33333333333334</ele><time>2026-04-30T08:23:12.898Z</time></trkpt><trkpt lat="37.2838516" lon="21.7640931"><ele>103.66666666666666</ele><time>2026-04-30T08:23:13.898Z</time></trkpt><trkpt lat="37.2837666" lon="21.7638354"><ele>107.0</ele><time>2026-04-30T08:23:14.898Z</time></trkpt><trkpt lat="37.2836791" lon="21.7635738"><ele>108.5</ele><time>2026-04-30T08:23:15.897Z</time></trkpt><trkpt lat="37.2835801" lon="21.7633177"><ele>110.0</ele><time>2026-04-30T08:23:16.897Z</time></trkpt><trkpt lat="37.2834809" lon="21.7630576"><ele>110.0</ele><time>2026-04-30T08:23:17.897Z</time></trkpt><trkpt lat="37.2833858" lon="21.7628075"><ele>110.0</ele><time>2026-04-30T08:23:18.898Z</time></trkpt><trkpt lat="37.2832873" lon="21.7625717"><ele>110.0</ele><time>2026-04-30T08:23:19.898Z</time></trkpt><trkpt lat="37.2831954" lon="21.7623352"><ele>109.0</ele><time>2026-04-30T08:23:20.897Z</time></trkpt><trkpt lat="37.2831055" lon="21.7621083"><ele>108.0</ele><time>2026-04-30T08:23:21.897Z</time></trkpt><trkpt lat="37.2830256" lon="21.761893"><ele>107.0</ele><time>2026-04-30T08:23:22.898Z</time></trkpt><trkpt lat="37.2829558" lon="21.7616863"><ele>107.0</ele><time>2026-04-30T08:23:23.897Z</time></trkpt><trkpt lat="37.282901" lon="21.7614748"><ele>107.0</ele><time>2026-04-30T08:23:24.897Z</time></trkpt><trkpt lat="37.2828722" lon="21.761256"><ele>107.0</ele><time>2026-04-30T08:23:25.898Z</time></trkpt><trkpt lat="37.2828717" lon="21.7610442"><ele>104.0</ele><time>2026-04-30T08:23:26.898Z</time></trkpt><trkpt lat="37.2829022" lon="21.760849"><ele>101.0</ele><time>2026-04-30T08:23:27.898Z</time></trkpt><trkpt lat="37.2829606" lon="21.7606668"><ele>98.0</ele><time>2026-04-30T08:23:28.898Z</time></trkpt><trkpt lat="37.2830528" lon="21.7605037"><ele>98.33333333333333</ele><time>2026-04-30T08:23:29.897Z</time></trkpt><trkpt lat="37.283178" lon="21.7603564"><ele>98.66666666666666</ele><time>2026-04-30T08:23:30.898Z</time></trkpt><trkpt lat="37.2833269" lon="21.7602273"><ele>99.0</ele><time>2026-04-30T08:23:31.898Z</time></trkpt><trkpt lat="37.2834961" lon="21.760109"><ele>97.0</ele><time>2026-04-30T08:23:32.898Z</time></trkpt><trkpt lat="37.2836754" lon="21.7600146"><ele>95.0</ele><time>2026-04-30T08:23:33.898Z</time></trkpt><trkpt lat="37.2838508" lon="21.759926"><ele>93.0</ele><time>2026-04-30T08:23:34.898Z</time></trkpt><trkpt lat="37.2840148" lon="21.7598412"><ele>93.0</ele><time>2026-04-30T08:23:35.898Z</time></trkpt><trkpt lat="37.2841717" lon="21.7597553"><ele>93.0</ele><time>2026-04-30T08:23:36.897Z</time></trkpt><trkpt lat="37.2843078" lon="21.7596558"><ele>93.0</ele><time>2026-04-30T08:23:37.897Z</time></trkpt><trkpt lat="37.2844269" lon="21.759531"><ele>93.0</ele><time>2026-04-30T08:23:38.898Z</time></trkpt><trkpt lat="37.2845253" lon="21.7593788"><ele>93.0</ele><time>2026-04-30T08:23:39.897Z</time></trkpt><trkpt lat="37.2846016" lon="21.7592016"><ele>93.0</ele><time>2026-04-30T08:23:40.897Z</time></trkpt><trkpt lat="37.2846453" lon="21.7590102"><ele>88.33333333333333</ele><time>2026-04-30T08:23:41.898Z</time></trkpt><trkpt lat="37.2846504" lon="21.7588088"><ele>83.66666666666666</ele><time>2026-04-30T08:23:42.898Z</time></trkpt><trkpt lat="37.284619" lon="21.7586073"><ele>79.0</ele><time>2026-04-30T08:23:43.897Z</time></trkpt><trkpt lat="37.2845573" lon="21.7584145"><ele>78.0</ele><time>2026-04-30T08:23:44.897Z</time></trkpt><trkpt lat="37.2844595" lon="21.7582342"><ele>77.0</ele><time>2026-04-30T08:23:45.897Z</time></trkpt><trkpt lat="37.2843315" lon="21.7580712"><ele>76.0</ele><time>2026-04-30T08:23:46.897Z</time></trkpt><trkpt lat="37.2841628" lon="21.7579165"><ele>76.0</ele><time>2026-04-30T08:23:47.898Z</time></trkpt><trkpt lat="37.2839449" lon="21.7577829"><ele>76.0</ele><time>2026-04-30T08:23:48.898Z</time></trkpt><trkpt lat="37.2836876" lon="21.7576531"><ele>77.5</ele><time>2026-04-30T08:23:49.898Z</time></trkpt><trkpt lat="37.2834282" lon="21.75753"><ele>79.0</ele><time>2026-04-30T08:23:50.897Z</time></trkpt><trkpt lat="37.2831831" lon="21.7574073"><ele>75.5</ele><time>2026-04-30T08:23:51.897Z</time></trkpt><trkpt lat="37.2829522" lon="21.7572868"><ele>72.0</ele><time>2026-04-30T08:23:52.898Z</time></trkpt><trkpt lat="37.2827394" lon="21.7571782"><ele>72.0</ele><time>2026-04-30T08:23:53.897Z</time></trkpt><trkpt lat="37.2825357" lon="21.757074"><ele>72.0</ele><time>2026-04-30T08:23:54.898Z</time></trkpt><trkpt lat="37.2823379" lon="21.7569767"><ele>72.0</ele><time>2026-04-30T08:23:55.898Z</time></trkpt><trkpt lat="37.2821478" lon="21.7568768"><ele>73.66666666666667</ele><time>2026-04-30T08:23:56.898Z</time></trkpt><trkpt lat="37.2819668" lon="21.7567774"><ele>75.33333333333334</ele><time>2026-04-30T08:23:57.897Z</time></trkpt><trkpt lat="37.2818001" lon="21.7566665"><ele>77.0</ele><time>2026-04-30T08:23:58.898Z</time></trkpt><trkpt lat="37.2816387" lon="21.7565436"><ele>77.0</ele><time>2026-04-30T08:23:59.897Z</time></trkpt><trkpt lat="37.2814931" lon="21.7564013"><ele>77.0</ele><time>2026-04-30T08:24:00.898Z</time></trkpt><trkpt lat="37.2813603" lon="21.7562358"><ele>77.0</ele><time>2026-04-30T08:24:01.898Z</time></trkpt><trkpt lat="37.2812483" lon="21.7560451"><ele>75.66666666666667</ele><time>2026-04-30T08:24:02.898Z</time></trkpt><trkpt lat="37.2811582" lon="21.7558374"><ele>74.33333333333333</ele><time>2026-04-30T08:24:03.897Z</time></trkpt><trkpt lat="37.2811029" lon="21.7556038"><ele>73.0</ele><time>2026-04-30T08:24:04.898Z</time></trkpt><trkpt lat="37.2810667" lon="21.7553604"><ele>71.66666666666666</ele><time>2026-04-30T08:24:05.897Z</time></trkpt><trkpt lat="37.2810624" lon="21.7550981"><ele>70.33333333333333</ele><time>2026-04-30T08:24:06.898Z</time></trkpt><trkpt lat="37.2810755" lon="21.7548159"><ele>69.0</ele><time>2026-04-30T08:24:07.898Z</time></trkpt><trkpt lat="37.2810976" lon="21.7545293"><ele>65.0</ele><time>2026-04-30T08:24:08.897Z</time></trkpt><trkpt lat="37.2811226" lon="21.7542382"><ele>61.0</ele><time>2026-04-30T08:24:09.897Z</time></trkpt><trkpt lat="37.2811491" lon="21.7539466"><ele>61.0</ele><time>2026-04-30T08:24:10.898Z</time></trkpt><trkpt lat="37.2811604" lon="21.7536394"><ele>61.0</ele><time>2026-04-30T08:24:11.898Z</time></trkpt><trkpt lat="37.2811798" lon="21.7533313"><ele>59.5</ele><time>2026-04-30T08:24:12.898Z</time></trkpt><trkpt lat="37.281191" lon="21.7530341"><ele>58.0</ele><time>2026-04-30T08:24:13.898Z</time></trkpt><trkpt lat="37.2811924" lon="21.752745"><ele>59.0</ele><time>2026-04-30T08:24:14.898Z</time></trkpt><trkpt lat="37.2811908" lon="21.7524593"><ele>60.0</ele><time>2026-04-30T08:24:15.898Z</time></trkpt><trkpt lat="37.2811819" lon="21.7521589"><ele>60.0</ele><time>2026-04-30T08:24:16.897Z</time></trkpt><trkpt lat="37.2811628" lon="21.7518491"><ele>60.0</ele><time>2026-04-30T08:24:17.897Z</time></trkpt><trkpt lat="37.2811421" lon="21.7515352"><ele>60.0</ele><time>2026-04-30T08:24:18.898Z</time></trkpt><trkpt lat="37.2811166" lon="21.7512318"><ele>60.0</ele><time>2026-04-30T08:24:19.898Z</time></trkpt><trkpt lat="37.2810946" lon="21.7509516"><ele>59.33333333333333</ele><time>2026-04-30T08:24:20.898Z</time></trkpt><trkpt lat="37.281077" lon="21.7506819"><ele>58.666666666666664</ele><time>2026-04-30T08:24:21.898Z</time></trkpt><trkpt lat="37.2810544" lon="21.7504239"><ele>58.0</ele><time>2026-04-30T08:24:22.897Z</time></trkpt><trkpt lat="37.2810228" lon="21.7501784"><ele>57.666666666666664</ele><time>2026-04-30T08:24:23.898Z</time></trkpt><trkpt lat="37.2809817" lon="21.7499558"><ele>57.33333333333333</ele><time>2026-04-30T08:24:24.898Z</time></trkpt><trkpt lat="37.2808982" lon="21.7497402"><ele>57.0</ele><time>2026-04-30T08:24:25.897Z</time></trkpt><trkpt lat="37.280793" lon="21.7495371"><ele>57.66666666666667</ele><time>2026-04-30T08:24:26.897Z</time></trkpt><trkpt lat="37.2806775" lon="21.7493523"><ele>58.333333333333336</ele><time>2026-04-30T08:24:27.898Z</time></trkpt><trkpt lat="37.2805605" lon="21.7491787"><ele>59.0</ele><time>2026-04-30T08:24:28.897Z</time></trkpt><trkpt lat="37.2804344" lon="21.7489913"><ele>55.333333333333336</ele><time>2026-04-30T08:24:29.897Z</time></trkpt><trkpt lat="37.2803299" lon="21.7488135"><ele>51.66666666666667</ele><time>2026-04-30T08:24:30.897Z</time></trkpt><trkpt lat="37.2802529" lon="21.7486215"><ele>48.0</ele><time>2026-04-30T08:24:31.897Z</time></trkpt><trkpt lat="37.2801996" lon="21.748408"><ele>47.333333333333336</ele><time>2026-04-30T08:24:32.897Z</time></trkpt><trkpt lat="37.2801763" lon="21.7481844"><ele>46.66666666666667</ele><time>2026-04-30T08:24:33.897Z</time></trkpt><trkpt lat="37.2801862" lon="21.7479206"><ele>46.0</ele><time>2026-04-30T08:24:34.898Z</time></trkpt><trkpt lat="37.2802264" lon="21.7476211"><ele>42.0</ele><time>2026-04-30T08:24:35.897Z</time></trkpt><trkpt lat="37.2803128" lon="21.747305"><ele>38.0</ele><time>2026-04-30T08:24:36.898Z</time></trkpt><trkpt lat="37.2804173" lon="21.7469473"><ele>35.5</ele><time>2026-04-30T08:24:37.898Z</time></trkpt><trkpt lat="37.2805277" lon="21.7465644"><ele>33.0</ele><time>2026-04-30T08:24:38.898Z</time></trkpt><trkpt lat="37.2806412" lon="21.7461937"><ele>38.5</ele><time>2026-04-30T08:24:39.898Z</time></trkpt><trkpt lat="37.2807422" lon="21.7458493"><ele>44.0</ele><time>2026-04-30T08:24:40.898Z</time></trkpt><trkpt lat="37.2808413" lon="21.7455207"><ele>44.0</ele><time>2026-04-30T08:24:41.897Z</time></trkpt><trkpt lat="37.2809297" lon="21.7452181"><ele>44.0</ele><time>2026-04-30T08:24:42.897Z</time></trkpt><trkpt lat="37.2810104" lon="21.7449193"><ele>40.5</ele><time>2026-04-30T08:24:43.898Z</time></trkpt><trkpt lat="37.2810799" lon="21.744635"><ele>37.0</ele><time>2026-04-30T08:24:44.897Z</time></trkpt><trkpt lat="37.2811472" lon="21.7443509"><ele>35.5</ele><time>2026-04-30T08:24:45.898Z</time></trkpt><trkpt lat="37.281199" lon="21.7440668"><ele>34.0</ele><time>2026-04-30T08:24:46.897Z</time></trkpt><trkpt lat="37.2812228" lon="21.7437769"><ele>35.0</ele><time>2026-04-30T08:24:47.898Z</time></trkpt><trkpt lat="37.2812146" lon="21.7434644"><ele>36.0</ele><time>2026-04-30T08:24:48.897Z</time></trkpt><trkpt lat="37.2811814" lon="21.7431397"><ele>36.0</ele><time>2026-04-30T08:24:49.897Z</time></trkpt><trkpt lat="37.2811253" lon="21.7428077"><ele>36.0</ele><time>2026-04-30T08:24:50.898Z</time></trkpt><trkpt lat="37.2810692" lon="21.7425071"><ele>37.5</ele><time>2026-04-30T08:24:51.897Z</time></trkpt><trkpt lat="37.2810193" lon="21.7422187"><ele>39.0</ele><time>2026-04-30T08:24:52.897Z</time></trkpt><trkpt lat="37.2809843" lon="21.7419363"><ele>38.666666666666664</ele><time>2026-04-30T08:24:53.897Z</time></trkpt><trkpt lat="37.2809686" lon="21.7416678"><ele>38.33333333333333</ele><time>2026-04-30T08:24:54.898Z</time></trkpt><trkpt lat="37.2809717" lon="21.7414026"><ele>38.0</ele><time>2026-04-30T08:24:55.898Z</time></trkpt><trkpt lat="37.2810041" lon="21.7411419"><ele>36.5</ele><time>2026-04-30T08:24:56.897Z</time></trkpt><trkpt lat="37.2810518" lon="21.7408752"><ele>35.0</ele><time>2026-04-30T08:24:57.898Z</time></trkpt><trkpt lat="37.2811536" lon="21.7405878"><ele>35.0</ele><time>2026-04-30T08:24:58.898Z</time></trkpt><trkpt lat="37.2812764" lon="21.7402716"><ele>35.0</ele><time>2026-04-30T08:24:59.898Z</time></trkpt><trkpt lat="37.2814147" lon="21.7399274"><ele>39.0</ele><time>2026-04-30T08:25:00.898Z</time></trkpt><trkpt lat="37.2815535" lon="21.7395666"><ele>43.0</ele><time>2026-04-30T08:25:01.897Z</time></trkpt><trkpt lat="37.2817075" lon="21.7391821"><ele>43.0</ele><time>2026-04-30T08:25:02.898Z</time></trkpt><trkpt lat="37.2818538" lon="21.7388121"><ele>43.0</ele><time>2026-04-30T08:25:03.898Z</time></trkpt><trkpt lat="37.2819846" lon="21.7384722"><ele>41.5</ele><time>2026-04-30T08:25:04.897Z</time></trkpt><trkpt lat="37.2821229" lon="21.7381502"><ele>40.0</ele><time>2026-04-30T08:25:05.898Z</time></trkpt><trkpt lat="37.2822372" lon="21.7378422"><ele>39.5</ele><time>2026-04-30T08:25:06.898Z</time></trkpt><trkpt lat="37.2823537" lon="21.7375474"><ele>39.0</ele><time>2026-04-30T08:25:07.897Z</time></trkpt><trkpt lat="37.2824595" lon="21.7372539"><ele>39.0</ele><time>2026-04-30T08:25:08.897Z</time></trkpt><trkpt lat="37.2825709" lon="21.7369506"><ele>39.0</ele><time>2026-04-30T08:25:09.898Z</time></trkpt><trkpt lat="37.2826801" lon="21.7366626"><ele>37.5</ele><time>2026-04-30T08:25:10.897Z</time></trkpt><trkpt lat="37.2827947" lon="21.7363908"><ele>36.0</ele><time>2026-04-30T08:25:11.898Z</time></trkpt><trkpt lat="37.2829057" lon="21.7361377"><ele>33.0</ele><time>2026-04-30T08:25:12.897Z</time></trkpt><trkpt lat="37.283026" lon="21.7358891"><ele>30.0</ele><time>2026-04-30T08:25:13.898Z</time></trkpt><trkpt lat="37.2831554" lon="21.7356334"><ele>30.5</ele><time>2026-04-30T08:25:14.898Z</time></trkpt><trkpt lat="37.2832884" lon="21.7353902"><ele>31.0</ele><time>2026-04-30T08:25:15.897Z</time></trkpt><trkpt lat="37.2834289" lon="21.7351479"><ele>31.0</ele><time>2026-04-30T08:25:16.898Z</time></trkpt><trkpt lat="37.2835738" lon="21.7349106"><ele>31.0</ele><time>2026-04-30T08:25:17.897Z</time></trkpt><trkpt lat="37.2837172" lon="21.7346696"><ele>31.0</ele><time>2026-04-30T08:25:18.898Z</time></trkpt><trkpt lat="37.2838614" lon="21.7344355"><ele>31.0</ele><time>2026-04-30T08:25:19.897Z</time></trkpt><trkpt lat="37.2839966" lon="21.734217"><ele>33.333333333333336</ele><time>2026-04-30T08:25:20.898Z</time></trkpt><trkpt lat="37.2841294" lon="21.7339883"><ele>35.666666666666664</ele><time>2026-04-30T08:25:21.897Z</time></trkpt><trkpt lat="37.2842604" lon="21.7337722"><ele>38.0</ele><time>2026-04-30T08:25:22.897Z</time></trkpt><trkpt lat="37.2843901" lon="21.733565"><ele>38.0</ele><time>2026-04-30T08:25:23.897Z</time></trkpt><trkpt lat="37.2845274" lon="21.7333726"><ele>38.0</ele><time>2026-04-30T08:25:24.898Z</time></trkpt><trkpt lat="37.2846822" lon="21.7331983"><ele>38.0</ele><time>2026-04-30T08:25:25.897Z</time></trkpt><trkpt lat="37.2848693" lon="21.7330334"><ele>38.0</ele><time>2026-04-30T08:25:26.898Z</time></trkpt><trkpt lat="37.2850818" lon="21.7328814"><ele>38.0</ele><time>2026-04-30T08:25:27.897Z</time></trkpt><trkpt lat="37.2853162" lon="21.7327273"><ele>33.0</ele><time>2026-04-30T08:25:28.897Z</time></trkpt><trkpt lat="37.2855511" lon="21.7325723"><ele>28.0</ele><time>2026-04-30T08:25:29.898Z</time></trkpt><trkpt lat="37.2857864" lon="21.7324151"><ele>28.0</ele><time>2026-04-30T08:25:30.898Z</time></trkpt><trkpt lat="37.2860193" lon="21.7322583"><ele>28.0</ele><time>2026-04-30T08:25:31.898Z</time></trkpt><trkpt lat="37.2862514" lon="21.7321076"><ele>27.5</ele><time>2026-04-30T08:25:32.898Z</time></trkpt><trkpt lat="37.2864827" lon="21.7319581"><ele>27.0</ele><time>2026-04-30T08:25:33.898Z</time></trkpt><trkpt lat="37.286709" lon="21.7318056"><ele>27.0</ele><time>2026-04-30T08:25:34.897Z</time></trkpt><trkpt lat="37.2869295" lon="21.7316536"><ele>27.0</ele><time>2026-04-30T08:25:35.897Z</time></trkpt><trkpt lat="37.2871318" lon="21.7315046"><ele>25.666666666666668</ele><time>2026-04-30T08:25:36.897Z</time></trkpt><trkpt lat="37.2873147" lon="21.7313542"><ele>24.333333333333336</ele><time>2026-04-30T08:25:37.897Z</time></trkpt><trkpt lat="37.2874789" lon="21.7311883"><ele>23.0</ele><time>2026-04-30T08:25:38.897Z</time></trkpt><trkpt lat="37.2876272" lon="21.7309976"><ele>23.0</ele><time>2026-04-30T08:25:39.897Z</time></trkpt><trkpt lat="37.287757" lon="21.7307839"><ele>23.0</ele><time>2026-04-30T08:25:40.897Z</time></trkpt><trkpt lat="37.2878751" lon="21.7305386"><ele>23.0</ele><time>2026-04-30T08:25:41.897Z</time></trkpt><trkpt lat="37.2879767" lon="21.7302662"><ele>22.0</ele><time>2026-04-30T08:25:42.897Z</time></trkpt><trkpt lat="37.2880707" lon="21.7299737"><ele>21.0</ele><time>2026-04-30T08:25:43.898Z</time></trkpt><trkpt lat="37.2881564" lon="21.7296641"><ele>24.0</ele><time>2026-04-30T08:25:44.897Z</time></trkpt><trkpt lat="37.2882341" lon="21.7293756"><ele>27.0</ele><time>2026-04-30T08:25:45.898Z</time></trkpt><trkpt lat="37.2882975" lon="21.7290969"><ele>27.0</ele><time>2026-04-30T08:25:46.897Z</time></trkpt><trkpt lat="37.2883384" lon="21.7288137"><ele>27.0</ele><time>2026-04-30T08:25:47.898Z</time></trkpt><trkpt lat="37.2883582" lon="21.728529"><ele>28.5</ele><time>2026-04-30T08:25:48.898Z</time></trkpt><trkpt lat="37.2883439" lon="21.7282311"><ele>30.0</ele><time>2026-04-30T08:25:49.898Z</time></trkpt><trkpt lat="37.2883177" lon="21.727923"><ele>30.0</ele><time>2026-04-30T08:25:50.897Z</time></trkpt><trkpt lat="37.2882569" lon="21.7275891"><ele>30.0</ele><time>2026-04-30T08:25:51.898Z</time></trkpt><trkpt lat="37.2881889" lon="21.7272573"><ele>30.0</ele><time>2026-04-30T08:25:52.897Z</time></trkpt><trkpt lat="37.2881269" lon="21.7269447"><ele>30.0</ele><time>2026-04-30T08:25:53.897Z</time></trkpt><trkpt lat="37.2880717" lon="21.7266539"><ele>26.666666666666668</ele><time>2026-04-30T08:25:54.897Z</time></trkpt><trkpt lat="37.2880192" lon="21.7263809"><ele>23.333333333333336</ele><time>2026-04-30T08:25:55.897Z</time></trkpt><trkpt lat="37.2879745" lon="21.7261255"><ele>20.0</ele><time>2026-04-30T08:25:56.897Z</time></trkpt><trkpt lat="37.2879369" lon="21.7258917"><ele>20.0</ele><time>2026-04-30T08:25:57.898Z</time></trkpt><trkpt lat="37.2879125" lon="21.7256656"><ele>20.0</ele><time>2026-04-30T08:25:58.897Z</time></trkpt><trkpt lat="37.287914" lon="21.7254334"><ele>20.0</ele><time>2026-04-30T08:25:59.897Z</time></trkpt><trkpt lat="37.2879408" lon="21.7252007"><ele>19.333333333333336</ele><time>2026-04-30T08:26:00.898Z</time></trkpt><trkpt lat="37.2879927" lon="21.7249573"><ele>18.666666666666668</ele><time>2026-04-30T08:26:01.897Z</time></trkpt><trkpt lat="37.2880664" lon="21.7247034"><ele>18.0</ele><time>2026-04-30T08:26:02.898Z</time></trkpt><trkpt lat="37.2881401" lon="21.7244463"><ele>19.666666666666668</ele><time>2026-04-30T08:26:03.897Z</time></trkpt><trkpt lat="37.2882192" lon="21.7241889"><ele>21.333333333333336</ele><time>2026-04-30T08:26:04.897Z</time></trkpt><trkpt lat="37.2882786" lon="21.7239413"><ele>23.0</ele><time>2026-04-30T08:26:05.897Z</time></trkpt><trkpt lat="37.2883473" lon="21.7236901"><ele>22.333333333333336</ele><time>2026-04-30T08:26:06.897Z</time></trkpt><trkpt lat="37.2884228" lon="21.7234418"><ele>21.666666666666668</ele><time>2026-04-30T08:26:07.897Z</time></trkpt><trkpt lat="37.2884988" lon="21.7231852"><ele>21.0</ele><time>2026-04-30T08:26:08.897Z</time></trkpt><trkpt lat="37.2885696" lon="21.7229363"><ele>20.666666666666668</ele><time>2026-04-30T08:26:09.897Z</time></trkpt><trkpt lat="37.2886377" lon="21.7226822"><ele>20.333333333333336</ele><time>2026-04-30T08:26:10.898Z</time></trkpt><trkpt lat="37.2887033" lon="21.7224344"><ele>20.0</ele><time>2026-04-30T08:26:11.897Z</time></trkpt><trkpt lat="37.288775" lon="21.7221815"><ele>20.0</ele><time>2026-04-30T08:26:12.897Z</time></trkpt><trkpt lat="37.2888486" lon="21.7219186"><ele>20.0</ele><time>2026-04-30T08:26:13.897Z</time></trkpt><trkpt lat="37.288924" lon="21.7216427"><ele>20.5</ele><time>2026-04-30T08:26:14.898Z</time></trkpt><trkpt lat="37.2889909" lon="21.7213359"><ele>21.0</ele><time>2026-04-30T08:26:15.898Z</time></trkpt><trkpt lat="37.289045" lon="21.7209906"><ele>21.5</ele><time>2026-04-30T08:26:16.897Z</time></trkpt><trkpt lat="37.2891041" lon="21.7206274"><ele>22.0</ele><time>2026-04-30T08:26:17.898Z</time></trkpt><trkpt lat="37.2891685" lon="21.72027"><ele>23.5</ele><time>2026-04-30T08:26:18.898Z</time></trkpt><trkpt lat="37.2892377" lon="21.7199015"><ele>25.0</ele><time>2026-04-30T08:26:19.898Z</time></trkpt><trkpt lat="37.2893034" lon="21.7195482"><ele>24.0</ele><time>2026-04-30T08:26:20.897Z</time></trkpt><trkpt lat="37.2893549" lon="21.7192212"><ele>23.0</ele><time>2026-04-30T08:26:21.897Z</time></trkpt><trkpt lat="37.289407" lon="21.7189231"><ele>23.0</ele><time>2026-04-30T08:26:22.898Z</time></trkpt><trkpt lat="37.2894503" lon="21.7186404"><ele>23.0</ele><time>2026-04-30T08:26:23.897Z</time></trkpt><trkpt lat="37.289499" lon="21.7183825"><ele>23.0</ele><time>2026-04-30T08:26:24.898Z</time></trkpt><trkpt lat="37.2895638" lon="21.7181336"><ele>23.333333333333336</ele><time>2026-04-30T08:26:25.898Z</time></trkpt><trkpt lat="37.2896411" lon="21.7178914"><ele>23.666666666666668</ele><time>2026-04-30T08:26:26.898Z</time></trkpt><trkpt lat="37.2897197" lon="21.7176487"><ele>24.0</ele><time>2026-04-30T08:26:27.898Z</time></trkpt><trkpt lat="37.2899231" lon="21.7174466"><ele>28.5</ele><time>2026-04-30T08:26:28.898Z</time></trkpt><trkpt lat="37.2900878" lon="21.7172187"><ele>33.0</ele><time>2026-04-30T08:26:29.898Z</time></trkpt><trkpt lat="37.2902615" lon="21.7169854"><ele>29.5</ele><time>2026-04-30T08:26:30.898Z</time></trkpt><trkpt lat="37.2904298" lon="21.7167421"><ele>26.0</ele><time>2026-04-30T08:26:31.898Z</time></trkpt><trkpt lat="37.2906055" lon="21.7164963"><ele>26.0</ele><time>2026-04-30T08:26:32.897Z</time></trkpt><trkpt lat="37.2907818" lon="21.7162598"><ele>26.0</ele><time>2026-04-30T08:26:33.898Z</time></trkpt><trkpt lat="37.2909533" lon="21.7160144"><ele>24.5</ele><time>2026-04-30T08:26:34.897Z</time></trkpt><trkpt lat="37.2911174" lon="21.715784"><ele>23.0</ele><time>2026-04-30T08:26:35.897Z</time></trkpt><trkpt lat="37.2912696" lon="21.7155639"><ele>28.0</ele><time>2026-04-30T08:26:36.898Z</time></trkpt><trkpt lat="37.2914262" lon="21.7153468"><ele>33.0</ele><time>2026-04-30T08:26:37.897Z</time></trkpt><trkpt lat="37.2915814" lon="21.7151153"><ele>33.0</ele><time>2026-04-30T08:26:38.897Z</time></trkpt><trkpt lat="37.2917291" lon="21.7148953"><ele>33.0</ele><time>2026-04-30T08:26:39.897Z</time></trkpt><trkpt lat="37.2918657" lon="21.7146487"><ele>27.0</ele><time>2026-04-30T08:26:40.898Z</time></trkpt><trkpt lat="37.2919892" lon="21.7144014"><ele>21.0</ele><time>2026-04-30T08:26:41.897Z</time></trkpt><trkpt lat="37.2921144" lon="21.7141449"><ele>21.0</ele><time>2026-04-30T08:26:42.897Z</time></trkpt><trkpt lat="37.2922149" lon="21.7138813"><ele>21.0</ele><time>2026-04-30T08:26:43.898Z</time></trkpt><trkpt lat="37.2923059" lon="21.7136183"><ele>24.0</ele><time>2026-04-30T08:26:44.898Z</time></trkpt><trkpt lat="37.2923759" lon="21.7133481"><ele>27.0</ele><time>2026-04-30T08:26:45.898Z</time></trkpt><trkpt lat="37.2924373" lon="21.7130741"><ele>27.0</ele><time>2026-04-30T08:26:46.897Z</time></trkpt><trkpt lat="37.2924808" lon="21.7127948"><ele>27.0</ele><time>2026-04-30T08:26:47.897Z</time></trkpt><trkpt lat="37.2925191" lon="21.7125136"><ele>25.666666666666668</ele><time>2026-04-30T08:26:48.897Z</time></trkpt><trkpt lat="37.2925439" lon="21.7122339"><ele>24.333333333333336</ele><time>2026-04-30T08:26:49.897Z</time></trkpt><trkpt lat="37.2925484" lon="21.7119506"><ele>23.0</ele><time>2026-04-30T08:26:50.898Z</time></trkpt><trkpt lat="37.2925338" lon="21.7116727"><ele>22.0</ele><time>2026-04-30T08:26:51.897Z</time></trkpt><trkpt lat="37.2925054" lon="21.7113813"><ele>21.0</ele><time>2026-04-30T08:26:52.898Z</time></trkpt><trkpt lat="37.292464" lon="21.7110925"><ele>20.0</ele><time>2026-04-30T08:26:53.898Z</time></trkpt><trkpt lat="37.2924209" lon="21.7108072"><ele>19.0</ele><time>2026-04-30T08:26:54.897Z</time></trkpt><trkpt lat="37.2923779" lon="21.7105303"><ele>19.0</ele><time>2026-04-30T08:26:55.897Z</time></trkpt><trkpt lat="37.2923316" lon="21.7102743"><ele>19.0</ele><time>2026-04-30T08:26:56.897Z</time></trkpt><trkpt lat="37.2922874" lon="21.7100232"><ele>19.0</ele><time>2026-04-30T08:26:57.897Z</time></trkpt><trkpt lat="37.2922428" lon="21.7097834"><ele>17.666666666666664</ele><time>2026-04-30T08:26:58.898Z</time></trkpt><trkpt lat="37.2921915" lon="21.7095453"><ele>16.333333333333332</ele><time>2026-04-30T08:26:59.897Z</time></trkpt><trkpt lat="37.2921905" lon="21.7093084"><ele>15.0</ele><time>2026-04-30T08:27:00.898Z</time></trkpt><trkpt lat="37.2921876" lon="21.70905"><ele>15.0</ele><time>2026-04-30T08:27:01.897Z</time></trkpt><trkpt lat="37.2922117" lon="21.708797"><ele>15.0</ele><time>2026-04-30T08:27:02.897Z</time></trkpt><trkpt lat="37.2922542" lon="21.7085568"><ele>15.0</ele><time>2026-04-30T08:27:03.898Z</time></trkpt><trkpt lat="37.2923233" lon="21.7083166"><ele>16.333333333333332</ele><time>2026-04-30T08:27:04.897Z</time></trkpt><trkpt lat="37.2924139" lon="21.7080801"><ele>17.666666666666664</ele><time>2026-04-30T08:27:05.897Z</time></trkpt><trkpt lat="37.2925267" lon="21.7078593"><ele>19.0</ele><time>2026-04-30T08:27:06.897Z</time></trkpt><trkpt lat="37.2926596" lon="21.7076464"><ele>19.0</ele><time>2026-04-30T08:27:07.897Z</time></trkpt><trkpt lat="37.2928078" lon="21.7074067"><ele>19.0</ele><time>2026-04-30T08:27:08.897Z</time></trkpt><trkpt lat="37.2929706" lon="21.7071678"><ele>18.0</ele><time>2026-04-30T08:27:09.898Z</time></trkpt><trkpt lat="37.2931425" lon="21.7069252"><ele>17.0</ele><time>2026-04-30T08:27:10.898Z</time></trkpt><trkpt lat="37.2933073" lon="21.7066886"><ele>17.0</ele><time>2026-04-30T08:27:11.898Z</time></trkpt><trkpt lat="37.2934688" lon="21.7064522"><ele>17.0</ele><time>2026-04-30T08:27:12.898Z</time></trkpt><trkpt lat="37.2936284" lon="21.7062206"><ele>18.5</ele><time>2026-04-30T08:27:13.898Z</time></trkpt><trkpt lat="37.2937842" lon="21.7059909"><ele>20.0</ele><time>2026-04-30T08:27:14.898Z</time></trkpt><trkpt lat="37.2939481" lon="21.7057555"><ele>20.0</ele><time>2026-04-30T08:27:15.898Z</time></trkpt><trkpt lat="37.2941157" lon="21.7055028"><ele>20.0</ele><time>2026-04-30T08:27:16.897Z</time></trkpt><trkpt lat="37.2942819" lon="21.7052574"><ele>18.0</ele><time>2026-04-30T08:27:17.897Z</time></trkpt><trkpt lat="37.2944416" lon="21.7050256"><ele>16.0</ele><time>2026-04-30T08:27:18.897Z</time></trkpt><trkpt lat="37.2945965" lon="21.704805"><ele>16.0</ele><time>2026-04-30T08:27:19.897Z</time></trkpt><trkpt lat="37.2947481" lon="21.704589"><ele>16.0</ele><time>2026-04-30T08:27:20.898Z</time></trkpt><trkpt lat="37.2948969" lon="21.7043752"><ele>15.333333333333332</ele><time>2026-04-30T08:27:21.898Z</time></trkpt><trkpt lat="37.2950286" lon="21.704173"><ele>14.666666666666668</ele><time>2026-04-30T08:27:22.898Z</time></trkpt><trkpt lat="37.2951642" lon="21.7039729"><ele>14.0</ele><time>2026-04-30T08:27:23.898Z</time></trkpt><trkpt lat="37.2952929" lon="21.7037876"><ele>14.0</ele><time>2026-04-30T08:27:24.898Z</time></trkpt><trkpt lat="37.2954145" lon="21.7036111"><ele>14.0</ele><time>2026-04-30T08:27:25.898Z</time></trkpt><trkpt lat="37.2955421" lon="21.7034331"><ele>14.0</ele><time>2026-04-30T08:27:26.898Z</time></trkpt><trkpt lat="37.2956559" lon="21.7032591"><ele>16.333333333333336</ele><time>2026-04-30T08:27:27.897Z</time></trkpt><trkpt lat="37.2957677" lon="21.703104"><ele>18.666666666666668</ele><time>2026-04-30T08:27:28.897Z</time></trkpt><trkpt lat="37.2958789" lon="21.7029969"><ele>21.0</ele><time>2026-04-30T08:27:29.898Z</time></trkpt><trkpt lat="37.2959739" lon="21.702861"><ele>20.5</ele><time>2026-04-30T08:27:30.898Z</time></trkpt><trkpt lat="37.296066" lon="21.7027446"><ele>20.0</ele><time>2026-04-30T08:27:31.897Z</time></trkpt><trkpt lat="37.2961713" lon="21.7026468"><ele>19.5</ele><time>2026-04-30T08:27:32.898Z</time></trkpt><trkpt lat="37.2962789" lon="21.7025633"><ele>19.0</ele><time>2026-04-30T08:27:33.898Z</time></trkpt><trkpt lat="37.2963957" lon="21.7025143"><ele>19.5</ele><time>2026-04-30T08:27:34.897Z</time></trkpt><trkpt lat="37.2965239" lon="21.7024887"><ele>20.0</ele><time>2026-04-30T08:27:35.898Z</time></trkpt><trkpt lat="37.296655" lon="21.7024735"><ele>20.5</ele><time>2026-04-30T08:27:36.897Z</time></trkpt><trkpt lat="37.2967989" lon="21.7024629"><ele>21.0</ele><time>2026-04-30T08:27:37.898Z</time></trkpt><trkpt lat="37.2969451" lon="21.7024538"><ele>21.0</ele><time>2026-04-30T08:27:38.898Z</time></trkpt><trkpt lat="37.2970811" lon="21.7024542"><ele>21.0</ele><time>2026-04-30T08:27:39.898Z</time></trkpt><trkpt lat="37.2972052" lon="21.7024494"><ele>21.0</ele><time>2026-04-30T08:27:40.898Z</time></trkpt><trkpt lat="37.2973326" lon="21.7024451"><ele>21.0</ele><time>2026-04-30T08:27:41.898Z</time></trkpt><trkpt lat="37.2974777" lon="21.7024429"><ele>21.333333333333332</ele><time>2026-04-30T08:27:42.898Z</time></trkpt><trkpt lat="37.2976275" lon="21.7024429"><ele>21.666666666666664</ele><time>2026-04-30T08:27:43.898Z</time></trkpt><trkpt lat="37.2977816" lon="21.7024406"><ele>22.0</ele><time>2026-04-30T08:27:44.898Z</time></trkpt><trkpt lat="37.2979413" lon="21.7024337"><ele>21.666666666666664</ele><time>2026-04-30T08:27:45.898Z</time></trkpt><trkpt lat="37.2981091" lon="21.7024311"><ele>21.333333333333332</ele><time>2026-04-30T08:27:46.897Z</time></trkpt><trkpt lat="37.2982789" lon="21.7024296"><ele>21.0</ele><time>2026-04-30T08:27:47.898Z</time></trkpt><trkpt lat="37.2984584" lon="21.7024228"><ele>21.0</ele><time>2026-04-30T08:27:48.898Z</time></trkpt><trkpt lat="37.2986381" lon="21.7024228"><ele>21.0</ele><time>2026-04-30T08:27:49.898Z</time></trkpt><trkpt lat="37.2988124" lon="21.7024229"><ele>21.0</ele><time>2026-04-30T08:27:50.898Z</time></trkpt><trkpt lat="37.2989745" lon="21.7024239"><ele>21.0</ele><time>2026-04-30T08:27:51.898Z</time></trkpt><trkpt lat="37.2991284" lon="21.7024264"><ele>21.0</ele><time>2026-04-30T08:27:52.898Z</time></trkpt><trkpt lat="37.2992846" lon="21.7024243"><ele>21.0</ele><time>2026-04-30T08:27:53.897Z</time></trkpt><trkpt lat="37.2994349" lon="21.702425"><ele>21.0</ele><time>2026-04-30T08:27:54.898Z</time></trkpt><trkpt lat="37.2995816" lon="21.7024271"><ele>21.0</ele><time>2026-04-30T08:27:55.897Z</time></trkpt><trkpt lat="37.2997224" lon="21.7024239"><ele>21.0</ele><time>2026-04-30T08:27:56.897Z</time></trkpt><trkpt lat="37.2998674" lon="21.7024179"><ele>21.0</ele><time>2026-04-30T08:27:57.897Z</time></trkpt><trkpt lat="37.3000383" lon="21.7024107"><ele>20.666666666666668</ele><time>2026-04-30T08:27:58.898Z</time></trkpt><trkpt lat="37.3002673" lon="21.7024061"><ele>20.333333333333336</ele><time>2026-04-30T08:27:59.898Z</time></trkpt><trkpt lat="37.3004863" lon="21.702417"><ele>20.0</ele><time>2026-04-30T08:28:00.897Z</time></trkpt><trkpt lat="37.3007031" lon="21.7024335"><ele>19.666666666666668</ele><time>2026-04-30T08:28:01.898Z</time></trkpt><trkpt lat="37.3009131" lon="21.7024232"><ele>19.333333333333332</ele><time>2026-04-30T08:28:02.898Z</time></trkpt><trkpt lat="37.3011223" lon="21.7024227"><ele>19.0</ele><time>2026-04-30T08:28:03.897Z</time></trkpt><trkpt lat="37.3013242" lon="21.7024177"><ele>19.333333333333332</ele><time>2026-04-30T08:28:04.897Z</time></trkpt><trkpt lat="37.3015249" lon="21.7024089"><ele>19.666666666666668</ele><time>2026-04-30T08:28:05.897Z</time></trkpt><trkpt lat="37.3017292" lon="21.7024065"><ele>20.0</ele><time>2026-04-30T08:28:06.897Z</time></trkpt><trkpt lat="37.301936" lon="21.7024067"><ele>20.0</ele><time>2026-04-30T08:28:07.898Z</time></trkpt><trkpt lat="37.3021371" lon="21.7024084"><ele>20.0</ele><time>2026-04-30T08:28:08.897Z</time></trkpt><trkpt lat="37.302351" lon="21.7024002"><ele>20.0</ele><time>2026-04-30T08:28:09.898Z</time></trkpt><trkpt lat="37.3025647" lon="21.7023968"><ele>19.333333333333336</ele><time>2026-04-30T08:28:10.897Z</time></trkpt><trkpt lat="37.3027737" lon="21.7023978"><ele>18.666666666666668</ele><time>2026-04-30T08:28:11.898Z</time></trkpt><trkpt lat="37.3029793" lon="21.7023985"><ele>18.0</ele><time>2026-04-30T08:28:12.898Z</time></trkpt><trkpt lat="37.3031792" lon="21.7023963"><ele>18.0</ele><time>2026-04-30T08:28:13.897Z</time></trkpt><trkpt lat="37.3033831" lon="21.7023837"><ele>18.0</ele><time>2026-04-30T08:28:14.898Z</time></trkpt><trkpt lat="37.3035775" lon="21.7023888"><ele>18.0</ele><time>2026-04-30T08:28:15.898Z</time></trkpt><trkpt lat="37.3037738" lon="21.7023885"><ele>18.0</ele><time>2026-04-30T08:28:16.897Z</time></trkpt><trkpt lat="37.3039717" lon="21.7023891"><ele>18.0</ele><time>2026-04-30T08:28:17.897Z</time></trkpt><trkpt lat="37.3041714" lon="21.7023921"><ele>18.0</ele><time>2026-04-30T08:28:18.897Z</time></trkpt><trkpt lat="37.3043771" lon="21.7023917"><ele>18.0</ele><time>2026-04-30T08:28:19.897Z</time></trkpt><trkpt lat="37.3045818" lon="21.7023932"><ele>18.0</ele><time>2026-04-30T08:28:20.897Z</time></trkpt><trkpt lat="37.3047895" lon="21.7023946"><ele>18.0</ele><time>2026-04-30T08:28:21.897Z</time></trkpt><trkpt lat="37.3049979" lon="21.7023903"><ele>18.333333333333332</ele><time>2026-04-30T08:28:22.897Z</time></trkpt><trkpt lat="37.305206" lon="21.7023854"><ele>18.666666666666664</ele><time>2026-04-30T08:28:23.898Z</time></trkpt><trkpt lat="37.3054108" lon="21.7023854"><ele>19.0</ele><time>2026-04-30T08:28:24.898Z</time></trkpt><trkpt lat="37.3056208" lon="21.7023844"><ele>18.0</ele><time>2026-04-30T08:28:25.897Z</time></trkpt><trkpt lat="37.3058313" lon="21.7023846"><ele>17.0</ele><time>2026-04-30T08:28:26.898Z</time></trkpt><trkpt lat="37.3060434" lon="21.7023821"><ele>16.0</ele><time>2026-04-30T08:28:27.897Z</time></trkpt><trkpt lat="37.306257" lon="21.7023834"><ele>15.666666666666666</ele><time>2026-04-30T08:28:28.897Z</time></trkpt><trkpt lat="37.3064715" lon="21.7023802"><ele>15.333333333333332</ele><time>2026-04-30T08:28:29.897Z</time></trkpt><trkpt lat="37.3066866" lon="21.7023803"><ele>15.0</ele><time>2026-04-30T08:28:30.898Z</time></trkpt><trkpt lat="37.3069029" lon="21.702375"><ele>15.0</ele><time>2026-04-30T08:28:31.898Z</time></trkpt><trkpt lat="37.3071181" lon="21.7023697"><ele>15.0</ele><time>2026-04-30T08:28:32.898Z</time></trkpt><trkpt lat="37.3073359" lon="21.7023645"><ele>15.0</ele><time>2026-04-30T08:28:33.898Z</time></trkpt><trkpt lat="37.307548" lon="21.7023584"><ele>15.0</ele><time>2026-04-30T08:28:34.898Z</time></trkpt><trkpt lat="37.3077653" lon="21.7023505"><ele>15.0</ele><time>2026-04-30T08:28:35.898Z</time></trkpt><trkpt lat="37.3079844" lon="21.7023447"><ele>15.0</ele><time>2026-04-30T08:28:36.898Z</time></trkpt><trkpt lat="37.3082031" lon="21.7023445"><ele>15.0</ele><time>2026-04-30T08:28:37.897Z</time></trkpt><trkpt lat="37.3084234" lon="21.7023494"><ele>15.0</ele><time>2026-04-30T08:28:38.898Z</time></trkpt><trkpt lat="37.3086355" lon="21.7023486"><ele>15.0</ele><time>2026-04-30T08:28:39.897Z</time></trkpt><trkpt lat="37.3088452" lon="21.7023478"><ele>14.333333333333332</ele><time>2026-04-30T08:28:40.898Z</time></trkpt><trkpt lat="37.3090551" lon="21.7023428"><ele>13.666666666666666</ele><time>2026-04-30T08:28:41.897Z</time></trkpt><trkpt lat="37.3092567" lon="21.7023406"><ele>13.0</ele><time>2026-04-30T08:28:42.897Z</time></trkpt><trkpt lat="37.3094555" lon="21.7023386"><ele>13.0</ele><time>2026-04-30T08:28:43.897Z</time></trkpt><trkpt lat="37.3096519" lon="21.702335"><ele>13.0</ele><time>2026-04-30T08:28:44.897Z</time></trkpt><trkpt lat="37.3098438" lon="21.7023371"><ele>13.0</ele><time>2026-04-30T08:28:45.897Z</time></trkpt><trkpt lat="37.3100368" lon="21.702333"><ele>13.333333333333332</ele><time>2026-04-30T08:28:46.897Z</time></trkpt><trkpt lat="37.3102282" lon="21.7023302"><ele>13.666666666666668</ele><time>2026-04-30T08:28:47.897Z</time></trkpt><trkpt lat="37.3104195" lon="21.7023328"><ele>14.0</ele><time>2026-04-30T08:28:48.898Z</time></trkpt><trkpt lat="37.3106087" lon="21.7023279"><ele>14.0</ele><time>2026-04-30T08:28:49.898Z</time></trkpt><trkpt lat="37.3107976" lon="21.7023234"><ele>14.0</ele><time>2026-04-30T08:28:50.897Z</time></trkpt><trkpt lat="37.3109881" lon="21.7023215"><ele>14.0</ele><time>2026-04-30T08:28:51.897Z</time></trkpt><trkpt lat="37.311187" lon="21.702325"><ele>14.0</ele><time>2026-04-30T08:28:52.898Z</time></trkpt><trkpt lat="37.3113859" lon="21.7023202"><ele>14.0</ele><time>2026-04-30T08:28:53.898Z</time></trkpt><trkpt lat="37.3115876" lon="21.7023256"><ele>14.0</ele><time>2026-04-30T08:28:54.897Z</time></trkpt><trkpt lat="37.3117904" lon="21.7023291"><ele>14.666666666666668</ele><time>2026-04-30T08:28:55.897Z</time></trkpt><trkpt lat="37.312002" lon="21.7023304"><ele>15.333333333333332</ele><time>2026-04-30T08:28:56.898Z</time></trkpt><trkpt lat="37.3122169" lon="21.7023183"><ele>16.0</ele><time>2026-04-30T08:28:57.897Z</time></trkpt><trkpt lat="37.3124276" lon="21.7023128"><ele>16.0</ele><time>2026-04-30T08:28:58.898Z</time></trkpt><trkpt lat="37.3126385" lon="21.7023039"><ele>16.0</ele><time>2026-04-30T08:28:59.898Z</time></trkpt><trkpt lat="37.312855" lon="21.7022933"><ele>16.0</ele><time>2026-04-30T08:29:00.897Z</time></trkpt><trkpt lat="37.3130654" lon="21.7022897"><ele>17.0</ele><time>2026-04-30T08:29:01.898Z</time></trkpt><trkpt lat="37.3132786" lon="21.7022848"><ele>18.0</ele><time>2026-04-30T08:29:02.897Z</time></trkpt><trkpt lat="37.313493" lon="21.7022862"><ele>19.0</ele><time>2026-04-30T08:29:03.897Z</time></trkpt><trkpt lat="37.3137041" lon="21.702285"><ele>16.666666666666664</ele><time>2026-04-30T08:29:04.897Z</time></trkpt><trkpt lat="37.3139352" lon="21.7022756"><ele>14.333333333333332</ele><time>2026-04-30T08:29:05.897Z</time></trkpt><trkpt lat="37.3141474" lon="21.7022685"><ele>12.0</ele><time>2026-04-30T08:29:06.898Z</time></trkpt><trkpt lat="37.3143624" lon="21.702273"><ele>12.0</ele><time>2026-04-30T08:29:07.897Z</time></trkpt><trkpt lat="37.3145923" lon="21.7022568"><ele>12.0</ele><time>2026-04-30T08:29:08.898Z</time></trkpt><trkpt lat="37.3148129" lon="21.7022536"><ele>11.333333333333334</ele><time>2026-04-30T08:29:09.898Z</time></trkpt><trkpt lat="37.3150285" lon="21.7022647"><ele>10.666666666666668</ele><time>2026-04-30T08:29:10.897Z</time></trkpt><trkpt lat="37.3152472" lon="21.702273"><ele>10.0</ele><time>2026-04-30T08:29:11.898Z</time></trkpt><trkpt lat="37.3154677" lon="21.7022748"><ele>9.5</ele><time>2026-04-30T08:29:12.897Z</time></trkpt><trkpt lat="37.3156953" lon="21.7022733"><ele>9.0</ele><time>2026-04-30T08:29:13.898Z</time></trkpt><trkpt lat="37.3159351" lon="21.7022713"><ele>9.0</ele><time>2026-04-30T08:29:14.897Z</time></trkpt><trkpt lat="37.3161802" lon="21.7022698"><ele>9.0</ele><time>2026-04-30T08:29:15.897Z</time></trkpt><trkpt lat="37.3164291" lon="21.7022701"><ele>10.0</ele><time>2026-04-30T08:29:16.897Z</time></trkpt><trkpt lat="37.3166905" lon="21.7022643"><ele>11.0</ele><time>2026-04-30T08:29:17.898Z</time></trkpt><trkpt lat="37.3169634" lon="21.7022573"><ele>10.5</ele><time>2026-04-30T08:29:18.897Z</time></trkpt><trkpt lat="37.3172474" lon="21.7022461"><ele>10.0</ele><time>2026-04-30T08:29:19.898Z</time></trkpt><trkpt lat="37.3175355" lon="21.7022401"><ele>10.0</ele><time>2026-04-30T08:29:20.898Z</time></trkpt><trkpt lat="37.3178153" lon="21.702243"><ele>10.0</ele><time>2026-04-30T08:29:21.898Z</time></trkpt><trkpt lat="37.3180918" lon="21.7022529"><ele>13.5</ele><time>2026-04-30T08:29:22.897Z</time></trkpt><trkpt lat="37.3183642" lon="21.7022633"><ele>17.0</ele><time>2026-04-30T08:29:23.897Z</time></trkpt><trkpt lat="37.3186364" lon="21.7022792"><ele>17.0</ele><time>2026-04-30T08:29:24.898Z</time></trkpt><trkpt lat="37.3188915" lon="21.702298"><ele>17.0</ele><time>2026-04-30T08:29:25.897Z</time></trkpt><trkpt lat="37.3191456" lon="21.702317"><ele>19.5</ele><time>2026-04-30T08:29:26.898Z</time></trkpt><trkpt lat="37.3194004" lon="21.7023492"><ele>22.0</ele><time>2026-04-30T08:29:27.898Z</time></trkpt><trkpt lat="37.3196573" lon="21.702388"><ele>20.5</ele><time>2026-04-30T08:29:28.898Z</time></trkpt><trkpt lat="37.3198964" lon="21.7024249"><ele>19.0</ele><time>2026-04-30T08:29:29.897Z</time></trkpt><trkpt lat="37.3201338" lon="21.7024592"><ele>19.0</ele><time>2026-04-30T08:29:30.897Z</time></trkpt><trkpt lat="37.3203552" lon="21.7025102"><ele>19.0</ele><time>2026-04-30T08:29:31.898Z</time></trkpt><trkpt lat="37.3205945" lon="21.7025563"><ele>17.5</ele><time>2026-04-30T08:29:32.898Z</time></trkpt><trkpt lat="37.3208486" lon="21.7025866"><ele>16.0</ele><time>2026-04-30T08:29:33.897Z</time></trkpt><trkpt lat="37.3211181" lon="21.7026253"><ele>16.0</ele><time>2026-04-30T08:29:34.897Z</time></trkpt><trkpt lat="37.3213866" lon="21.702684"><ele>16.0</ele><time>2026-04-30T08:29:35.898Z</time></trkpt><trkpt lat="37.3216641" lon="21.7027305"><ele>21.0</ele><time>2026-04-30T08:29:36.897Z</time></trkpt><trkpt lat="37.3219298" lon="21.7027616"><ele>26.0</ele><time>2026-04-30T08:29:37.898Z</time></trkpt><trkpt lat="37.3221874" lon="21.7027831"><ele>25.0</ele><time>2026-04-30T08:29:38.898Z</time></trkpt><trkpt lat="37.3224473" lon="21.7027811"><ele>24.0</ele><time>2026-04-30T08:29:39.898Z</time></trkpt><trkpt lat="37.3226956" lon="21.7027824"><ele>24.0</ele><time>2026-04-30T08:29:40.897Z</time></trkpt><trkpt lat="37.3229469" lon="21.7027789"><ele>24.0</ele><time>2026-04-30T08:29:41.898Z</time></trkpt><trkpt lat="37.323191" lon="21.702766"><ele>20.0</ele><time>2026-04-30T08:29:42.898Z</time></trkpt><trkpt lat="37.3234301" lon="21.7027444"><ele>16.0</ele><time>2026-04-30T08:29:43.897Z</time></trkpt><trkpt lat="37.3236711" lon="21.7027123"><ele>16.0</ele><time>2026-04-30T08:29:44.897Z</time></trkpt><trkpt lat="37.3239189" lon="21.7026783"><ele>16.0</ele><time>2026-04-30T08:29:45.898Z</time></trkpt><trkpt lat="37.3241591" lon="21.7026284"><ele>16.0</ele><time>2026-04-30T08:29:46.898Z</time></trkpt><trkpt lat="37.3244103" lon="21.7025854"><ele>16.0</ele><time>2026-04-30T08:29:47.898Z</time></trkpt><trkpt lat="37.3246624" lon="21.7025501"><ele>17.5</ele><time>2026-04-30T08:29:48.898Z</time></trkpt><trkpt lat="37.3249203" lon="21.7025148"><ele>19.0</ele><time>2026-04-30T08:29:49.898Z</time></trkpt><trkpt lat="37.3251723" lon="21.7024777"><ele>19.0</ele><time>2026-04-30T08:29:50.897Z</time></trkpt><trkpt lat="37.3254288" lon="21.7024487"><ele>19.0</ele><time>2026-04-30T08:29:51.898Z</time></trkpt><trkpt lat="37.3256811" lon="21.7024134"><ele>21.5</ele><time>2026-04-30T08:29:52.897Z</time></trkpt><trkpt lat="37.325936" lon="21.7023733"><ele>24.0</ele><time>2026-04-30T08:29:53.898Z</time></trkpt><trkpt lat="37.3261916" lon="21.7023351"><ele>27.0</ele><time>2026-04-30T08:29:54.898Z</time></trkpt><trkpt lat="37.3264513" lon="21.7022988"><ele>30.0</ele><time>2026-04-30T08:29:55.898Z</time></trkpt><trkpt lat="37.326712" lon="21.7022775"><ele>30.0</ele><time>2026-04-30T08:29:56.897Z</time></trkpt><trkpt lat="37.3269781" lon="21.7022596"><ele>30.0</ele><time>2026-04-30T08:29:57.897Z</time></trkpt><trkpt lat="37.3272468" lon="21.7022522"><ele>33.0</ele><time>2026-04-30T08:29:58.898Z</time></trkpt><trkpt lat="37.3275161" lon="21.702249"><ele>36.0</ele><time>2026-04-30T08:29:59.898Z</time></trkpt><trkpt lat="37.3277841" lon="21.7022574"><ele>36.0</ele><time>2026-04-30T08:30:00.898Z</time></trkpt><trkpt lat="37.3280594" lon="21.7022666"><ele>36.0</ele><time>2026-04-30T08:30:01.897Z</time></trkpt><trkpt lat="37.3283276" lon="21.7022827"><ele>37.5</ele><time>2026-04-30T08:30:02.897Z</time></trkpt><trkpt lat="37.3286147" lon="21.7022933"><ele>39.0</ele><time>2026-04-30T08:30:03.898Z</time></trkpt><trkpt lat="37.3288997" lon="21.7023438"><ele>39.5</ele><time>2026-04-30T08:30:04.898Z</time></trkpt><trkpt lat="37.3291788" lon="21.7023895"><ele>40.0</ele><time>2026-04-30T08:30:05.897Z</time></trkpt><trkpt lat="37.329456" lon="21.7024423"><ele>37.0</ele><time>2026-04-30T08:30:06.898Z</time></trkpt><trkpt lat="37.3297328" lon="21.70249"><ele>34.0</ele><time>2026-04-30T08:30:07.898Z</time></trkpt><trkpt lat="37.3300103" lon="21.7025461"><ele>34.0</ele><time>2026-04-30T08:30:08.897Z</time></trkpt><trkpt lat="37.3302851" lon="21.7025987"><ele>34.0</ele><time>2026-04-30T08:30:09.897Z</time></trkpt><trkpt lat="37.3305584" lon="21.7026504"><ele>35.0</ele><time>2026-04-30T08:30:10.898Z</time></trkpt><trkpt lat="37.3308254" lon="21.7027029"><ele>36.0</ele><time>2026-04-30T08:30:11.898Z</time></trkpt><trkpt lat="37.3310892" lon="21.7027474"><ele>41.0</ele><time>2026-04-30T08:30:12.897Z</time></trkpt><trkpt lat="37.3313496" lon="21.7027945"><ele>46.0</ele><time>2026-04-30T08:30:13.897Z</time></trkpt><trkpt lat="37.331613" lon="21.7028422"><ele>48.5</ele><time>2026-04-30T08:30:14.898Z</time></trkpt><trkpt lat="37.3318703" lon="21.7028916"><ele>51.0</ele><time>2026-04-30T08:30:15.898Z</time></trkpt><trkpt lat="37.3321262" lon="21.7029395"><ele>49.5</ele><time>2026-04-30T08:30:16.898Z</time></trkpt><trkpt lat="37.3323726" lon="21.702986"><ele>48.0</ele><time>2026-04-30T08:30:17.898Z</time></trkpt><trkpt lat="37.3326237" lon="21.702998"><ele>48.0</ele><time>2026-04-30T08:30:18.897Z</time></trkpt><trkpt lat="37.3328653" lon="21.7030436"><ele>48.0</ele><time>2026-04-30T08:30:19.897Z</time></trkpt><trkpt lat="37.3331041" lon="21.70309"><ele>46.0</ele><time>2026-04-30T08:30:20.897Z</time></trkpt><trkpt lat="37.3333464" lon="21.703129"><ele>44.0</ele><time>2026-04-30T08:30:21.898Z</time></trkpt><trkpt lat="37.333584" lon="21.7031609"><ele>44.0</ele><time>2026-04-30T08:30:22.898Z</time></trkpt><trkpt lat="37.3338237" lon="21.703186"><ele>44.0</ele><time>2026-04-30T08:30:23.898Z</time></trkpt><trkpt lat="37.3340639" lon="21.703201"><ele>40.5</ele><time>2026-04-30T08:30:24.898Z</time></trkpt><trkpt lat="37.3343068" lon="21.7032114"><ele>37.0</ele><time>2026-04-30T08:30:25.897Z</time></trkpt><trkpt lat="37.3345493" lon="21.7032115"><ele>37.0</ele><time>2026-04-30T08:30:26.898Z</time></trkpt><trkpt lat="37.3348037" lon="21.7032068"><ele>37.0</ele><time>2026-04-30T08:30:27.898Z</time></trkpt><trkpt lat="37.3350513" lon="21.7031917"><ele>37.0</ele><time>2026-04-30T08:30:28.897Z</time></trkpt><trkpt lat="37.3353015" lon="21.7031689"><ele>37.0</ele><time>2026-04-30T08:30:29.898Z</time></trkpt><trkpt lat="37.3355485" lon="21.7031335"><ele>36.0</ele><time>2026-04-30T08:30:30.898Z</time></trkpt><trkpt lat="37.3358" lon="21.7030857"><ele>35.0</ele><time>2026-04-30T08:30:31.897Z</time></trkpt><trkpt lat="37.336049" lon="21.7030352"><ele>35.0</ele><time>2026-04-30T08:30:32.898Z</time></trkpt><trkpt lat="37.3363038" lon="21.7029644"><ele>35.0</ele><time>2026-04-30T08:30:33.897Z</time></trkpt><trkpt lat="37.336556" lon="21.7028925"><ele>32.0</ele><time>2026-04-30T08:30:34.898Z</time></trkpt><trkpt lat="37.3368127" lon="21.7028214"><ele>29.0</ele><time>2026-04-30T08:30:35.898Z</time></trkpt><trkpt lat="37.3370734" lon="21.7027409"><ele>25.0</ele><time>2026-04-30T08:30:36.897Z</time></trkpt><trkpt lat="37.3373474" lon="21.7026447"><ele>21.0</ele><time>2026-04-30T08:30:37.898Z</time></trkpt><trkpt lat="37.3376257" lon="21.7025511"><ele>21.0</ele><time>2026-04-30T08:30:38.898Z</time></trkpt><trkpt lat="37.3379022" lon="21.7024597"><ele>21.0</ele><time>2026-04-30T08:30:39.898Z</time></trkpt><trkpt lat="37.3381762" lon="21.7023675"><ele>24.5</ele><time>2026-04-30T08:30:40.897Z</time></trkpt><trkpt lat="37.3384504" lon="21.7022801"><ele>28.0</ele><time>2026-04-30T08:30:41.898Z</time></trkpt><trkpt lat="37.3387355" lon="21.7021615"><ele>31.0</ele><time>2026-04-30T08:30:42.898Z</time></trkpt><trkpt lat="37.3390151" lon="21.7020616"><ele>34.0</ele><time>2026-04-30T08:30:43.898Z</time></trkpt><trkpt lat="37.3392826" lon="21.701972"><ele>26.0</ele><time>2026-04-30T08:30:44.898Z</time></trkpt><trkpt lat="37.3395552" lon="21.701886"><ele>18.0</ele><time>2026-04-30T08:30:45.898Z</time></trkpt><trkpt lat="37.3398218" lon="21.7018001"><ele>18.0</ele><time>2026-04-30T08:30:46.898Z</time></trkpt><trkpt lat="37.3400873" lon="21.7017152"><ele>18.0</ele><time>2026-04-30T08:30:47.898Z</time></trkpt><trkpt lat="37.3403528" lon="21.7016272"><ele>19.0</ele><time>2026-04-30T08:30:48.898Z</time></trkpt><trkpt lat="37.3406211" lon="21.7015363"><ele>20.0</ele><time>2026-04-30T08:30:49.898Z</time></trkpt><trkpt lat="37.340886" lon="21.701451"><ele>20.0</ele><time>2026-04-30T08:30:50.897Z</time></trkpt><trkpt lat="37.3411467" lon="21.7013618"><ele>20.0</ele><time>2026-04-30T08:30:51.898Z</time></trkpt><trkpt lat="37.3414079" lon="21.7012723"><ele>21.5</ele><time>2026-04-30T08:30:52.897Z</time></trkpt><trkpt lat="37.3416691" lon="21.7011841"><ele>23.0</ele><time>2026-04-30T08:30:53.897Z</time></trkpt><trkpt lat="37.3419286" lon="21.7010961"><ele>20.0</ele><time>2026-04-30T08:30:54.898Z</time></trkpt><trkpt lat="37.3421913" lon="21.7009831"><ele>17.0</ele><time>2026-04-30T08:30:55.898Z</time></trkpt><trkpt lat="37.3424534" lon="21.7009032"><ele>17.0</ele><time>2026-04-30T08:30:56.897Z</time></trkpt><trkpt lat="37.3427139" lon="21.7008162"><ele>17.0</ele><time>2026-04-30T08:30:57.897Z</time></trkpt><trkpt lat="37.3429813" lon="21.7007164"><ele>18.5</ele><time>2026-04-30T08:30:58.897Z</time></trkpt><trkpt lat="37.3432424" lon="21.7006404"><ele>20.0</ele><time>2026-04-30T08:30:59.898Z</time></trkpt><trkpt lat="37.343494" lon="21.7005612"><ele>20.0</ele><time>2026-04-30T08:31:00.897Z</time></trkpt><trkpt lat="37.3437407" lon="21.7004792"><ele>20.0</ele><time>2026-04-30T08:31:01.897Z</time></trkpt><trkpt lat="37.3439792" lon="21.7003995"><ele>22.0</ele><time>2026-04-30T08:31:02.898Z</time></trkpt><trkpt lat="37.3442101" lon="21.7003349"><ele>24.0</ele><time>2026-04-30T08:31:03.897Z</time></trkpt><trkpt lat="37.3444329" lon="21.7002599"><ele>21.0</ele><time>2026-04-30T08:31:04.897Z</time></trkpt><trkpt lat="37.3446557" lon="21.7001852"><ele>18.0</ele><time>2026-04-30T08:31:05.898Z</time></trkpt><trkpt lat="37.3448725" lon="21.7001127"><ele>18.0</ele><time>2026-04-30T08:31:06.898Z</time></trkpt><trkpt lat="37.3450891" lon="21.7000353"><ele>18.0</ele><time>2026-04-30T08:31:07.898Z</time></trkpt><trkpt lat="37.3453075" lon="21.6999609"><ele>18.0</ele><time>2026-04-30T08:31:08.898Z</time></trkpt><trkpt lat="37.3455249" lon="21.6998962"><ele>18.0</ele><time>2026-04-30T08:31:09.897Z</time></trkpt><trkpt lat="37.3457463" lon="21.6998243"><ele>18.5</ele><time>2026-04-30T08:31:10.898Z</time></trkpt><trkpt lat="37.3459646" lon="21.6997561"><ele>19.0</ele><time>2026-04-30T08:31:11.898Z</time></trkpt><trkpt lat="37.3461871" lon="21.6996843"><ele>20.0</ele><time>2026-04-30T08:31:12.897Z</time></trkpt><trkpt lat="37.3464096" lon="21.6996102"><ele>21.0</ele><time>2026-04-30T08:31:13.898Z</time></trkpt><trkpt lat="37.3466258" lon="21.6995371"><ele>21.0</ele><time>2026-04-30T08:31:14.898Z</time></trkpt><trkpt lat="37.3468419" lon="21.6994627"><ele>21.0</ele><time>2026-04-30T08:31:15.897Z</time></trkpt><trkpt lat="37.347056" lon="21.6993842"><ele>21.0</ele><time>2026-04-30T08:31:16.898Z</time></trkpt><trkpt lat="37.3472779" lon="21.6993059"><ele>18.0</ele><time>2026-04-30T08:31:17.897Z</time></trkpt><trkpt lat="37.3474994" lon="21.6992276"><ele>15.0</ele><time>2026-04-30T08:31:18.897Z</time></trkpt><trkpt lat="37.3477254" lon="21.6991496"><ele>15.0</ele><time>2026-04-30T08:31:19.897Z</time></trkpt><trkpt lat="37.3479578" lon="21.6990733"><ele>15.0</ele><time>2026-04-30T08:31:20.898Z</time></trkpt><trkpt lat="37.3481847" lon="21.6990003"><ele>17.0</ele><time>2026-04-30T08:31:21.897Z</time></trkpt><trkpt lat="37.3484136" lon="21.6989161"><ele>19.0</ele><time>2026-04-30T08:31:22.898Z</time></trkpt><trkpt lat="37.3486379" lon="21.6988532"><ele>19.0</ele><time>2026-04-30T08:31:23.897Z</time></trkpt><trkpt lat="37.3488646" lon="21.698781"><ele>19.0</ele><time>2026-04-30T08:31:24.897Z</time></trkpt><trkpt lat="37.3490493" lon="21.6987206"><ele>19.0</ele><time>2026-04-30T08:31:25.898Z</time></trkpt><trkpt lat="37.3492063" lon="21.6986746"><ele>19.75</ele><time>2026-04-30T08:31:26.898Z</time></trkpt><trkpt lat="37.3493449" lon="21.6986286"><ele>20.5</ele><time>2026-04-30T08:31:27.897Z</time></trkpt><trkpt lat="37.3494694" lon="21.6985864"><ele>21.25</ele><time>2026-04-30T08:31:28.898Z</time></trkpt><trkpt lat="37.3495976" lon="21.6985456"><ele>22.0</ele><time>2026-04-30T08:31:29.898Z</time></trkpt><trkpt lat="37.3497069" lon="21.6985087"><ele>19.6</ele><time>2026-04-30T08:31:30.897Z</time></trkpt><trkpt lat="37.3498085" lon="21.698472"><ele>17.200000000000003</ele><time>2026-04-30T08:31:31.897Z</time></trkpt><trkpt lat="37.3499108" lon="21.6984444"><ele>14.8</ele><time>2026-04-30T08:31:32.897Z</time></trkpt><trkpt lat="37.3500099" lon="21.6984227"><ele>12.4</ele><time>2026-04-30T08:31:33.897Z</time></trkpt><trkpt lat="37.3501075" lon="21.6983901"><ele>10.0</ele><time>2026-04-30T08:31:34.897Z</time></trkpt><trkpt lat="37.3502002" lon="21.6983534"><ele>10.0</ele><time>2026-04-30T08:31:35.897Z</time></trkpt><trkpt lat="37.3503129" lon="21.6983199"><ele>10.0</ele><time>2026-04-30T08:31:36.897Z</time></trkpt><trkpt lat="37.3504487" lon="21.698266"><ele>10.0</ele><time>2026-04-30T08:31:37.898Z</time></trkpt><trkpt lat="37.3506187" lon="21.6981976"><ele>10.0</ele><time>2026-04-30T08:31:38.897Z</time></trkpt><trkpt lat="37.3507938" lon="21.6981105"><ele>11.333333333333334</ele><time>2026-04-30T08:31:39.898Z</time></trkpt><trkpt lat="37.3509912" lon="21.6980375"><ele>12.666666666666668</ele><time>2026-04-30T08:31:40.897Z</time></trkpt><trkpt lat="37.3512096" lon="21.6979554"><ele>14.0</ele><time>2026-04-30T08:31:41.898Z</time></trkpt><trkpt lat="37.3514499" lon="21.6978635"><ele>14.5</ele><time>2026-04-30T08:31:42.898Z</time></trkpt><trkpt lat="37.3517133" lon="21.6977557"><ele>15.0</ele><time>2026-04-30T08:31:43.898Z</time></trkpt><trkpt lat="37.3519945" lon="21.6976463"><ele>10.0</ele><time>2026-04-30T08:31:44.897Z</time></trkpt><trkpt lat="37.3522929" lon="21.6975316"><ele>5.0</ele><time>2026-04-30T08:31:45.897Z</time></trkpt><trkpt lat="37.3526001" lon="21.6974135"><ele>5.0</ele><time>2026-04-30T08:31:46.898Z</time></trkpt><trkpt lat="37.3529177" lon="21.6972732"><ele>5.0</ele><time>2026-04-30T08:31:47.898Z</time></trkpt><trkpt lat="37.3532323" lon="21.6971425"><ele>6.5</ele><time>2026-04-30T08:31:48.897Z</time></trkpt><trkpt lat="37.3535451" lon="21.6970242"><ele>8.0</ele><time>2026-04-30T08:31:49.897Z</time></trkpt><trkpt lat="37.3538524" lon="21.6969107"><ele>5.5</ele><time>2026-04-30T08:31:50.898Z</time></trkpt><trkpt lat="37.3541627" lon="21.6967774"><ele>3.0</ele><time>2026-04-30T08:31:51.897Z</time></trkpt><trkpt lat="37.3544709" lon="21.6966595"><ele>6.0</ele><time>2026-04-30T08:31:52.898Z</time></trkpt><trkpt lat="37.3547733" lon="21.6965408"><ele>9.0</ele><time>2026-04-30T08:31:53.897Z</time></trkpt><trkpt lat="37.3550715" lon="21.6964143"><ele>9.0</ele><time>2026-04-30T08:31:54.897Z</time></trkpt><trkpt lat="37.3553704" lon="21.6963023"><ele>9.0</ele><time>2026-04-30T08:31:55.898Z</time></trkpt><trkpt lat="37.3556622" lon="21.6961891"><ele>7.0</ele><time>2026-04-30T08:31:56.898Z</time></trkpt><trkpt lat="37.3559522" lon="21.6960718"><ele>5.0</ele><time>2026-04-30T08:31:57.897Z</time></trkpt><trkpt lat="37.3562433" lon="21.6959544"><ele>6.5</ele><time>2026-04-30T08:31:58.897Z</time></trkpt><trkpt lat="37.356542" lon="21.695838"><ele>8.0</ele><time>2026-04-30T08:31:59.897Z</time></trkpt><trkpt lat="37.3568388" lon="21.6957243"><ele>8.0</ele><time>2026-04-30T08:32:00.898Z</time></trkpt><trkpt lat="37.3571262" lon="21.6956103"><ele>8.0</ele><time>2026-04-30T08:32:01.898Z</time></trkpt><trkpt lat="37.3574167" lon="21.6954829"><ele>10.0</ele><time>2026-04-30T08:32:02.898Z</time></trkpt><trkpt lat="37.3577105" lon="21.6953692"><ele>12.0</ele><time>2026-04-30T08:32:03.898Z</time></trkpt><trkpt lat="37.3580031" lon="21.6952576"><ele>9.0</ele><time>2026-04-30T08:32:04.897Z</time></trkpt><trkpt lat="37.3582955" lon="21.6951475"><ele>6.0</ele><time>2026-04-30T08:32:05.898Z</time></trkpt><trkpt lat="37.3585821" lon="21.6950417"><ele>11.0</ele><time>2026-04-30T08:32:06.898Z</time></trkpt><trkpt lat="37.3588739" lon="21.6949181"><ele>16.0</ele><time>2026-04-30T08:32:07.898Z</time></trkpt><trkpt lat="37.3591608" lon="21.6948121"><ele>16.0</ele><time>2026-04-30T08:32:08.897Z</time></trkpt><trkpt lat="37.3594444" lon="21.6947087"><ele>16.0</ele><time>2026-04-30T08:32:09.897Z</time></trkpt><trkpt lat="37.3597262" lon="21.694604"><ele>20.5</ele><time>2026-04-30T08:32:10.898Z</time></trkpt><trkpt lat="37.3600046" lon="21.6945064"><ele>25.0</ele><time>2026-04-30T08:32:11.897Z</time></trkpt><trkpt lat="37.3602786" lon="21.6944224"><ele>17.0</ele><time>2026-04-30T08:32:12.898Z</time></trkpt><trkpt lat="37.3605552" lon="21.6943636"><ele>9.0</ele><time>2026-04-30T08:32:13.897Z</time></trkpt><trkpt lat="37.360836" lon="21.6942992"><ele>9.0</ele><time>2026-04-30T08:32:14.897Z</time></trkpt><trkpt lat="37.3611176" lon="21.6942579"><ele>9.0</ele><time>2026-04-30T08:32:15.897Z</time></trkpt><trkpt lat="37.3613963" lon="21.6942263"><ele>7.5</ele><time>2026-04-30T08:32:16.898Z</time></trkpt><trkpt lat="37.3616727" lon="21.694191"><ele>6.0</ele><time>2026-04-30T08:32:17.897Z</time></trkpt><trkpt lat="37.361947" lon="21.6941551"><ele>6.0</ele><time>2026-04-30T08:32:18.898Z</time></trkpt><trkpt lat="37.3622212" lon="21.6941277"><ele>6.0</ele><time>2026-04-30T08:32:19.897Z</time></trkpt><trkpt lat="37.3624956" lon="21.694097"><ele>6.0</ele><time>2026-04-30T08:32:20.898Z</time></trkpt><trkpt lat="37.3627641" lon="21.6940633"><ele>6.0</ele><time>2026-04-30T08:32:21.898Z</time></trkpt><trkpt lat="37.3630303" lon="21.6940325"><ele>6.0</ele><time>2026-04-30T08:32:22.897Z</time></trkpt><trkpt lat="37.3632965" lon="21.6940049"><ele>6.0</ele><time>2026-04-30T08:32:23.897Z</time></trkpt><trkpt lat="37.3635622" lon="21.6939683"><ele>6.0</ele><time>2026-04-30T08:32:24.897Z</time></trkpt><trkpt lat="37.3638278" lon="21.6939407"><ele>6.0</ele><time>2026-04-30T08:32:25.897Z</time></trkpt><trkpt lat="37.3640917" lon="21.6939094"><ele>8.0</ele><time>2026-04-30T08:32:26.898Z</time></trkpt><trkpt lat="37.3643524" lon="21.6938837"><ele>10.0</ele><time>2026-04-30T08:32:27.897Z</time></trkpt><trkpt lat="37.3646129" lon="21.693854"><ele>11.5</ele><time>2026-04-30T08:32:28.897Z</time></trkpt><trkpt lat="37.3648729" lon="21.6938253"><ele>13.0</ele><time>2026-04-30T08:32:29.897Z</time></trkpt><trkpt lat="37.3651284" lon="21.6937939"><ele>13.0</ele><time>2026-04-30T08:32:30.898Z</time></trkpt><trkpt lat="37.3653844" lon="21.6937531"><ele>13.0</ele><time>2026-04-30T08:32:31.898Z</time></trkpt><trkpt lat="37.3656474" lon="21.6937219"><ele>14.5</ele><time>2026-04-30T08:32:32.898Z</time></trkpt><trkpt lat="37.3659026" lon="21.6936842"><ele>16.0</ele><time>2026-04-30T08:32:33.897Z</time></trkpt><trkpt lat="37.3661572" lon="21.6936467"><ele>13.0</ele><time>2026-04-30T08:32:34.897Z</time></trkpt><trkpt lat="37.3664026" lon="21.6936198"><ele>10.0</ele><time>2026-04-30T08:32:35.898Z</time></trkpt><trkpt lat="37.3666529" lon="21.6935883"><ele>10.0</ele><time>2026-04-30T08:32:36.898Z</time></trkpt><trkpt lat="37.3668976" lon="21.6935772"><ele>10.0</ele><time>2026-04-30T08:32:37.897Z</time></trkpt><trkpt lat="37.3671505" lon="21.6935416"><ele>11.5</ele><time>2026-04-30T08:32:38.897Z</time></trkpt><trkpt lat="37.3673994" lon="21.6935174"><ele>13.0</ele><time>2026-04-30T08:32:39.898Z</time></trkpt><trkpt lat="37.3676451" lon="21.6934794"><ele>13.0</ele><time>2026-04-30T08:32:40.897Z</time></trkpt><trkpt lat="37.3678929" lon="21.6934258"><ele>13.0</ele><time>2026-04-30T08:32:41.897Z</time></trkpt><trkpt lat="37.368139" lon="21.6933735"><ele>12.5</ele><time>2026-04-30T08:32:42.898Z</time></trkpt><trkpt lat="37.3683785" lon="21.6933038"><ele>12.0</ele><time>2026-04-30T08:32:43.898Z</time></trkpt><trkpt lat="37.3686192" lon="21.6932331"><ele>12.0</ele><time>2026-04-30T08:32:44.898Z</time></trkpt><trkpt lat="37.3688571" lon="21.6931477"><ele>12.0</ele><time>2026-04-30T08:32:45.897Z</time></trkpt><trkpt lat="37.3690854" lon="21.6930694"><ele>16.0</ele><time>2026-04-30T08:32:46.897Z</time></trkpt><trkpt lat="37.369317" lon="21.6929933"><ele>20.0</ele><time>2026-04-30T08:32:47.898Z</time></trkpt><trkpt lat="37.3695522" lon="21.692898"><ele>16.5</ele><time>2026-04-30T08:32:48.897Z</time></trkpt><trkpt lat="37.3697792" lon="21.6928101"><ele>13.0</ele><time>2026-04-30T08:32:49.897Z</time></trkpt><trkpt lat="37.3700084" lon="21.6926928"><ele>13.0</ele><time>2026-04-30T08:32:50.897Z</time></trkpt><trkpt lat="37.370234" lon="21.6925767"><ele>13.0</ele><time>2026-04-30T08:32:51.898Z</time></trkpt><trkpt lat="37.3704608" lon="21.692467"><ele>19.5</ele><time>2026-04-30T08:32:52.897Z</time></trkpt><trkpt lat="37.3706801" lon="21.692373"><ele>26.0</ele><time>2026-04-30T08:32:53.897Z</time></trkpt><trkpt lat="37.3709029" lon="21.6922759"><ele>26.0</ele><time>2026-04-30T08:32:54.897Z</time></trkpt><trkpt lat="37.3711239" lon="21.6921614"><ele>26.0</ele><time>2026-04-30T08:32:55.898Z</time></trkpt><trkpt lat="37.3713472" lon="21.6920545"><ele>22.5</ele><time>2026-04-30T08:32:56.898Z</time></trkpt><trkpt lat="37.3715727" lon="21.6919522"><ele>19.0</ele><time>2026-04-30T08:32:57.898Z</time></trkpt><trkpt lat="37.3717903" lon="21.6918481"><ele>19.0</ele><time>2026-04-30T08:32:58.898Z</time></trkpt><trkpt lat="37.3720037" lon="21.6917474"><ele>19.0</ele><time>2026-04-30T08:32:59.898Z</time></trkpt><trkpt lat="37.3722179" lon="21.6916469"><ele>22.666666666666664</ele><time>2026-04-30T08:33:00.897Z</time></trkpt><trkpt lat="37.372428" lon="21.6915438"><ele>26.333333333333332</ele><time>2026-04-30T08:33:01.897Z</time></trkpt><trkpt lat="37.3726336" lon="21.6914446"><ele>30.0</ele><time>2026-04-30T08:33:02.898Z</time></trkpt><trkpt lat="37.3728379" lon="21.6913558"><ele>35.0</ele><time>2026-04-30T08:33:03.898Z</time></trkpt><trkpt lat="37.3730467" lon="21.6912867"><ele>40.0</ele><time>2026-04-30T08:33:04.898Z</time></trkpt><trkpt lat="37.3732524" lon="21.6912356"><ele>45.0</ele><time>2026-04-30T08:33:05.898Z</time></trkpt><trkpt lat="37.3734653" lon="21.6912165"><ele>45.0</ele><time>2026-04-30T08:33:06.898Z</time></trkpt><trkpt lat="37.3736806" lon="21.691241"><ele>45.0</ele><time>2026-04-30T08:33:07.898Z</time></trkpt><trkpt lat="37.3738952" lon="21.6912998"><ele>45.0</ele><time>2026-04-30T08:33:08.897Z</time></trkpt><trkpt lat="37.3741072" lon="21.6914006"><ele>40.0</ele><time>2026-04-30T08:33:09.898Z</time></trkpt><trkpt lat="37.3743043" lon="21.6915379"><ele>35.0</ele><time>2026-04-30T08:33:10.897Z</time></trkpt><trkpt lat="37.3745045" lon="21.6916931"><ele>32.5</ele><time>2026-04-30T08:33:11.898Z</time></trkpt><trkpt lat="37.3747068" lon="21.6918535"><ele>30.0</ele><time>2026-04-30T08:33:12.897Z</time></trkpt><trkpt lat="37.3749003" lon="21.6920201"><ele>30.0</ele><time>2026-04-30T08:33:13.897Z</time></trkpt><trkpt lat="37.3750991" lon="21.6921854"><ele>30.0</ele><time>2026-04-30T08:33:14.897Z</time></trkpt><trkpt lat="37.3752952" lon="21.69235"><ele>30.0</ele><time>2026-04-30T08:33:15.897Z</time></trkpt><trkpt lat="37.3754856" lon="21.692518"><ele>30.0</ele><time>2026-04-30T08:33:16.898Z</time></trkpt><trkpt lat="37.3756753" lon="21.6926792"><ele>34.5</ele><time>2026-04-30T08:33:17.898Z</time></trkpt><trkpt lat="37.3758698" lon="21.6928404"><ele>39.0</ele><time>2026-04-30T08:33:18.897Z</time></trkpt><trkpt lat="37.3760679" lon="21.6930052"><ele>39.0</ele><time>2026-04-30T08:33:19.898Z</time></trkpt><trkpt lat="37.3762649" lon="21.6931563"><ele>39.0</ele><time>2026-04-30T08:33:20.897Z</time></trkpt><trkpt lat="37.3764617" lon="21.6933114"><ele>34.0</ele><time>2026-04-30T08:33:21.898Z</time></trkpt><trkpt lat="37.3766698" lon="21.6934507"><ele>29.0</ele><time>2026-04-30T08:33:22.897Z</time></trkpt><trkpt lat="37.3768867" lon="21.6935651"><ele>30.0</ele><time>2026-04-30T08:33:23.898Z</time></trkpt><trkpt lat="37.3771094" lon="21.6936625"><ele>31.0</ele><time>2026-04-30T08:33:24.897Z</time></trkpt><trkpt lat="37.3773347" lon="21.6937351"><ele>31.0</ele><time>2026-04-30T08:33:25.898Z</time></trkpt><trkpt lat="37.3775645" lon="21.69378"><ele>31.0</ele><time>2026-04-30T08:33:26.897Z</time></trkpt><trkpt lat="37.3777981" lon="21.693802"><ele>29.0</ele><time>2026-04-30T08:33:27.898Z</time></trkpt><trkpt lat="37.3780431" lon="21.693794"><ele>27.0</ele><time>2026-04-30T08:33:28.897Z</time></trkpt><trkpt lat="37.3782947" lon="21.6937587"><ele>27.0</ele><time>2026-04-30T08:33:29.898Z</time></trkpt><trkpt lat="37.3785491" lon="21.6937073"><ele>27.0</ele><time>2026-04-30T08:33:30.897Z</time></trkpt><trkpt lat="37.378798" lon="21.6936486"><ele>23.0</ele><time>2026-04-30T08:33:31.898Z</time></trkpt><trkpt lat="37.3790465" lon="21.6935755"><ele>19.0</ele><time>2026-04-30T08:33:32.898Z</time></trkpt><trkpt lat="37.3793014" lon="21.6935066"><ele>19.0</ele><time>2026-04-30T08:33:33.898Z</time></trkpt><trkpt lat="37.3795549" lon="21.6934356"><ele>19.0</ele><time>2026-04-30T08:33:34.897Z</time></trkpt><trkpt lat="37.3798091" lon="21.6933584"><ele>19.0</ele><time>2026-04-30T08:33:35.898Z</time></trkpt><trkpt lat="37.3800655" lon="21.6932937"><ele>19.0</ele><time>2026-04-30T08:33:36.898Z</time></trkpt><trkpt lat="37.3803178" lon="21.6932306"><ele>19.0</ele><time>2026-04-30T08:33:37.898Z</time></trkpt><trkpt lat="37.380579" lon="21.6931521"><ele>19.0</ele><time>2026-04-30T08:33:38.898Z</time></trkpt><trkpt lat="37.3808318" lon="21.6930841"><ele>19.0</ele><time>2026-04-30T08:33:39.898Z</time></trkpt><trkpt lat="37.3810892" lon="21.6930116"><ele>19.0</ele><time>2026-04-30T08:33:40.897Z</time></trkpt><trkpt lat="37.3813486" lon="21.6929315"><ele>18.0</ele><time>2026-04-30T08:33:41.898Z</time></trkpt><trkpt lat="37.3816054" lon="21.6928584"><ele>17.0</ele><time>2026-04-30T08:33:42.897Z</time></trkpt><trkpt lat="37.3818631" lon="21.6927754"><ele>15.0</ele><time>2026-04-30T08:33:43.898Z</time></trkpt><trkpt lat="37.3821168" lon="21.6927009"><ele>13.0</ele><time>2026-04-30T08:33:44.897Z</time></trkpt><trkpt lat="37.3823668" lon="21.692632"><ele>12.0</ele><time>2026-04-30T08:33:45.898Z</time></trkpt><trkpt lat="37.3826217" lon="21.6925662"><ele>11.0</ele><time>2026-04-30T08:33:46.897Z</time></trkpt><trkpt lat="37.3828756" lon="21.6924886"><ele>9.0</ele><time>2026-04-30T08:33:47.898Z</time></trkpt><trkpt lat="37.3831311" lon="21.6924223"><ele>7.0</ele><time>2026-04-30T08:33:48.897Z</time></trkpt><trkpt lat="37.3833853" lon="21.6923453"><ele>7.0</ele><time>2026-04-30T08:33:49.898Z</time></trkpt><trkpt lat="37.3836346" lon="21.6922662"><ele>7.0</ele><time>2026-04-30T08:33:50.897Z</time></trkpt><trkpt lat="37.3838823" lon="21.6921941"><ele>7.0</ele><time>2026-04-30T08:33:51.898Z</time></trkpt><trkpt lat="37.3841285" lon="21.6921285"><ele>7.0</ele><time>2026-04-30T08:33:52.897Z</time></trkpt><trkpt lat="37.3843695" lon="21.6920606"><ele>7.0</ele><time>2026-04-30T08:33:53.898Z</time></trkpt><trkpt lat="37.3846095" lon="21.6919917"><ele>7.0</ele><time>2026-04-30T08:33:54.898Z</time></trkpt><trkpt lat="37.3848452" lon="21.6919165"><ele>7.0</ele><time>2026-04-30T08:33:55.898Z</time></trkpt><trkpt lat="37.3850752" lon="21.6918424"><ele>7.0</ele><time>2026-04-30T08:33:56.898Z</time></trkpt><trkpt lat="37.3853078" lon="21.6917771"><ele>7.5</ele><time>2026-04-30T08:33:57.898Z</time></trkpt><trkpt lat="37.3855424" lon="21.6917133"><ele>8.0</ele><time>2026-04-30T08:33:58.898Z</time></trkpt><trkpt lat="37.3857758" lon="21.6916576"><ele>8.0</ele><time>2026-04-30T08:33:59.898Z</time></trkpt><trkpt lat="37.386016" lon="21.6916073"><ele>8.0</ele><time>2026-04-30T08:34:00.897Z</time></trkpt><trkpt lat="37.3862629" lon="21.6915692"><ele>9.0</ele><time>2026-04-30T08:34:01.898Z</time></trkpt><trkpt lat="37.3865132" lon="21.6915438"><ele>10.0</ele><time>2026-04-30T08:34:02.897Z</time></trkpt><trkpt lat="37.3867649" lon="21.6915226"><ele>10.0</ele><time>2026-04-30T08:34:03.898Z</time></trkpt><trkpt lat="37.3870162" lon="21.6915124"><ele>10.0</ele><time>2026-04-30T08:34:04.897Z</time></trkpt><trkpt lat="37.3872698" lon="21.6915138"><ele>8.5</ele><time>2026-04-30T08:34:05.898Z</time></trkpt><trkpt lat="37.3875233" lon="21.691531"><ele>7.0</ele><time>2026-04-30T08:34:06.897Z</time></trkpt><trkpt lat="37.3877748" lon="21.6915587"><ele>7.5</ele><time>2026-04-30T08:34:07.898Z</time></trkpt><trkpt lat="37.3880146" lon="21.6916089"><ele>8.0</ele><time>2026-04-30T08:34:08.898Z</time></trkpt><trkpt lat="37.3882532" lon="21.6916587"><ele>8.0</ele><time>2026-04-30T08:34:09.897Z</time></trkpt><trkpt lat="37.3884831" lon="21.6917089"><ele>8.0</ele><time>2026-04-30T08:34:10.898Z</time></trkpt><trkpt lat="37.3887002" lon="21.6917649"><ele>8.333333333333332</ele><time>2026-04-30T08:34:11.898Z</time></trkpt><trkpt lat="37.3889104" lon="21.6918305"><ele>8.666666666666666</ele><time>2026-04-30T08:34:12.898Z</time></trkpt><trkpt lat="37.3891206" lon="21.6918825"><ele>9.0</ele><time>2026-04-30T08:34:13.898Z</time></trkpt><trkpt lat="37.3893229" lon="21.6919301"><ele>9.0</ele><time>2026-04-30T08:34:14.897Z</time></trkpt><trkpt lat="37.389527" lon="21.6919795"><ele>9.0</ele><time>2026-04-30T08:34:15.898Z</time></trkpt><trkpt lat="37.3897302" lon="21.6920306"><ele>9.0</ele><time>2026-04-30T08:34:16.897Z</time></trkpt><trkpt lat="37.3899347" lon="21.6920882"><ele>8.666666666666666</ele><time>2026-04-30T08:34:17.898Z</time></trkpt><trkpt lat="37.3901321" lon="21.6921415"><ele>8.333333333333332</ele><time>2026-04-30T08:34:18.898Z</time></trkpt><trkpt lat="37.3903207" lon="21.6921891"><ele>8.0</ele><time>2026-04-30T08:34:19.898Z</time></trkpt><trkpt lat="37.3905022" lon="21.6922336"><ele>8.0</ele><time>2026-04-30T08:34:20.898Z</time></trkpt><trkpt lat="37.3906773" lon="21.6922826"><ele>8.0</ele><time>2026-04-30T08:34:21.898Z</time></trkpt><trkpt lat="37.3908481" lon="21.692323"><ele>8.0</ele><time>2026-04-30T08:34:22.898Z</time></trkpt><trkpt lat="37.3910191" lon="21.6923618"><ele>8.0</ele><time>2026-04-30T08:34:23.897Z</time></trkpt><trkpt lat="37.3911866" lon="21.6923771"><ele>8.0</ele><time>2026-04-30T08:34:24.898Z</time></trkpt><trkpt lat="37.3913569" lon="21.6923749"><ele>8.0</ele><time>2026-04-30T08:34:25.897Z</time></trkpt><trkpt lat="37.3915329" lon="21.6923552"><ele>8.333333333333332</ele><time>2026-04-30T08:34:26.898Z</time></trkpt><trkpt lat="37.3917101" lon="21.6923292"><ele>8.666666666666666</ele><time>2026-04-30T08:34:27.897Z</time></trkpt><trkpt lat="37.3918842" lon="21.6922933"><ele>9.0</ele><time>2026-04-30T08:34:28.897Z</time></trkpt><trkpt lat="37.3920511" lon="21.6922511"><ele>10.333333333333332</ele><time>2026-04-30T08:34:29.898Z</time></trkpt><trkpt lat="37.392218" lon="21.6921856"><ele>11.666666666666666</ele><time>2026-04-30T08:34:30.897Z</time></trkpt><trkpt lat="37.3923842" lon="21.6921111"><ele>13.0</ele><time>2026-04-30T08:34:31.897Z</time></trkpt><trkpt lat="37.3925433" lon="21.6920229"><ele>13.0</ele><time>2026-04-30T08:34:32.898Z</time></trkpt><trkpt lat="37.3926984" lon="21.6919225"><ele>13.0</ele><time>2026-04-30T08:34:33.897Z</time></trkpt><trkpt lat="37.3928429" lon="21.6918264"><ele>13.0</ele><time>2026-04-30T08:34:34.898Z</time></trkpt><trkpt lat="37.3929848" lon="21.6917183"><ele>13.333333333333332</ele><time>2026-04-30T08:34:35.898Z</time></trkpt><trkpt lat="37.3931182" lon="21.6915879"><ele>13.666666666666668</ele><time>2026-04-30T08:34:36.898Z</time></trkpt><trkpt lat="37.3932488" lon="21.6914417"><ele>14.0</ele><time>2026-04-30T08:34:37.898Z</time></trkpt><trkpt lat="37.3933766" lon="21.6912885"><ele>14.0</ele><time>2026-04-30T08:34:38.898Z</time></trkpt><trkpt lat="37.3934956" lon="21.6911213"><ele>14.0</ele><time>2026-04-30T08:34:39.898Z</time></trkpt><trkpt lat="37.3936121" lon="21.6909387"><ele>14.0</ele><time>2026-04-30T08:34:40.897Z</time></trkpt><trkpt lat="37.3937116" lon="21.6907449"><ele>14.666666666666668</ele><time>2026-04-30T08:34:41.897Z</time></trkpt><trkpt lat="37.3938078" lon="21.6905492"><ele>15.333333333333332</ele><time>2026-04-30T08:34:42.897Z</time></trkpt><trkpt lat="37.393897" lon="21.6903683"><ele>16.0</ele><time>2026-04-30T08:34:43.898Z</time></trkpt><trkpt lat="37.3939868" lon="21.690166"><ele>18.333333333333332</ele><time>2026-04-30T08:34:44.898Z</time></trkpt><trkpt lat="37.3940755" lon="21.6899553"><ele>20.666666666666668</ele><time>2026-04-30T08:34:45.898Z</time></trkpt><trkpt lat="37.3941647" lon="21.6897414"><ele>23.0</ele><time>2026-04-30T08:34:46.898Z</time></trkpt><trkpt lat="37.3942588" lon="21.6895137"><ele>23.5</ele><time>2026-04-30T08:34:47.897Z</time></trkpt><trkpt lat="37.3943585" lon="21.6892723"><ele>24.0</ele><time>2026-04-30T08:34:48.898Z</time></trkpt><trkpt lat="37.3944695" lon="21.6890112"><ele>24.0</ele><time>2026-04-30T08:34:49.897Z</time></trkpt><trkpt lat="37.3945903" lon="21.6887458"><ele>24.0</ele><time>2026-04-30T08:34:50.898Z</time></trkpt><trkpt lat="37.3947103" lon="21.6884805"><ele>27.0</ele><time>2026-04-30T08:34:51.897Z</time></trkpt><trkpt lat="37.394824" lon="21.6882348"><ele>30.0</ele><time>2026-04-30T08:34:52.897Z</time></trkpt><trkpt lat="37.3949275" lon="21.6880137"><ele>33.0</ele><time>2026-04-30T08:34:53.898Z</time></trkpt><trkpt lat="37.3950231" lon="21.6878084"><ele>30.666666666666664</ele><time>2026-04-30T08:34:54.897Z</time></trkpt><trkpt lat="37.3951104" lon="21.6876151"><ele>28.333333333333332</ele><time>2026-04-30T08:34:55.898Z</time></trkpt><trkpt lat="37.3951966" lon="21.6874342"><ele>26.0</ele><time>2026-04-30T08:34:56.898Z</time></trkpt><trkpt lat="37.3952774" lon="21.6872626"><ele>26.0</ele><time>2026-04-30T08:34:57.897Z</time></trkpt><trkpt lat="37.3953555" lon="21.6870953"><ele>26.0</ele><time>2026-04-30T08:34:58.898Z</time></trkpt><trkpt lat="37.395434" lon="21.6869214"><ele>26.0</ele><time>2026-04-30T08:34:59.897Z</time></trkpt><trkpt lat="37.3955145" lon="21.6867422"><ele>25.666666666666664</ele><time>2026-04-30T08:35:00.898Z</time></trkpt><trkpt lat="37.3956004" lon="21.6865535"><ele>25.333333333333336</ele><time>2026-04-30T08:35:01.897Z</time></trkpt><trkpt lat="37.3956854" lon="21.6863696"><ele>25.0</ele><time>2026-04-30T08:35:02.897Z</time></trkpt><trkpt lat="37.3957795" lon="21.6861629"><ele>22.666666666666668</ele><time>2026-04-30T08:35:03.897Z</time></trkpt><trkpt lat="37.3958718" lon="21.6859542"><ele>20.333333333333336</ele><time>2026-04-30T08:35:04.898Z</time></trkpt><trkpt lat="37.3959696" lon="21.68574"><ele>18.0</ele><time>2026-04-30T08:35:05.897Z</time></trkpt><trkpt lat="37.3960727" lon="21.6855065"><ele>18.0</ele><time>2026-04-30T08:35:06.898Z</time></trkpt><trkpt lat="37.3961741" lon="21.6852861"><ele>18.0</ele><time>2026-04-30T08:35:07.897Z</time></trkpt><trkpt lat="37.3962783" lon="21.6850665"><ele>18.0</ele><time>2026-04-30T08:35:08.897Z</time></trkpt><trkpt lat="37.3963875" lon="21.6848473"><ele>17.333333333333332</ele><time>2026-04-30T08:35:09.898Z</time></trkpt><trkpt lat="37.3965021" lon="21.6846297"><ele>16.666666666666664</ele><time>2026-04-30T08:35:10.897Z</time></trkpt><trkpt lat="37.3966192" lon="21.6844191"><ele>16.0</ele><time>2026-04-30T08:35:11.897Z</time></trkpt><trkpt lat="37.3967438" lon="21.6842237"><ele>16.0</ele><time>2026-04-30T08:35:12.897Z</time></trkpt><trkpt lat="37.3968698" lon="21.684026"><ele>16.0</ele><time>2026-04-30T08:35:13.898Z</time></trkpt><trkpt lat="37.3969982" lon="21.6838217"><ele>16.0</ele><time>2026-04-30T08:35:14.898Z</time></trkpt><trkpt lat="37.3971311" lon="21.6836187"><ele>17.0</ele><time>2026-04-30T08:35:15.898Z</time></trkpt><trkpt lat="37.397275" lon="21.6834305"><ele>18.0</ele><time>2026-04-30T08:35:16.898Z</time></trkpt><trkpt lat="37.3974194" lon="21.6832363"><ele>19.0</ele><time>2026-04-30T08:35:17.897Z</time></trkpt><trkpt lat="37.3975709" lon="21.6830413"><ele>19.0</ele><time>2026-04-30T08:35:18.897Z</time></trkpt><trkpt lat="37.3977345" lon="21.6828303"><ele>19.0</ele><time>2026-04-30T08:35:19.897Z</time></trkpt><trkpt lat="37.3979155" lon="21.6826023"><ele>19.0</ele><time>2026-04-30T08:35:20.898Z</time></trkpt><trkpt lat="37.3981091" lon="21.6823663"><ele>19.0</ele><time>2026-04-30T08:35:21.898Z</time></trkpt><trkpt lat="37.3983121" lon="21.6821295"><ele>15.0</ele><time>2026-04-30T08:35:22.898Z</time></trkpt><trkpt lat="37.3985148" lon="21.6818874"><ele>11.0</ele><time>2026-04-30T08:35:23.897Z</time></trkpt><trkpt lat="37.3987061" lon="21.6816644"><ele>14.0</ele><time>2026-04-30T08:35:24.897Z</time></trkpt><trkpt lat="37.3988832" lon="21.6814516"><ele>17.0</ele><time>2026-04-30T08:35:25.897Z</time></trkpt><trkpt lat="37.3990475" lon="21.6812558"><ele>15.333333333333334</ele><time>2026-04-30T08:35:26.897Z</time></trkpt><trkpt lat="37.3992062" lon="21.6810549"><ele>13.666666666666668</ele><time>2026-04-30T08:35:27.897Z</time></trkpt><trkpt lat="37.3993532" lon="21.6808716"><ele>12.0</ele><time>2026-04-30T08:35:28.897Z</time></trkpt><trkpt lat="37.399499" lon="21.6806979"><ele>12.0</ele><time>2026-04-30T08:35:29.897Z</time></trkpt><trkpt lat="37.3996399" lon="21.6805222"><ele>12.0</ele><time>2026-04-30T08:35:30.898Z</time></trkpt><trkpt lat="37.3997846" lon="21.6803469"><ele>12.0</ele><time>2026-04-30T08:35:31.897Z</time></trkpt><trkpt lat="37.3999326" lon="21.6801478"><ele>11.5</ele><time>2026-04-30T08:35:32.898Z</time></trkpt><trkpt lat="37.4001036" lon="21.6799355"><ele>11.0</ele><time>2026-04-30T08:35:33.898Z</time></trkpt><trkpt lat="37.4002904" lon="21.6797047"><ele>11.0</ele><time>2026-04-30T08:35:34.898Z</time></trkpt><trkpt lat="37.4004925" lon="21.6794674"><ele>11.0</ele><time>2026-04-30T08:35:35.898Z</time></trkpt><trkpt lat="37.4006901" lon="21.6792426"><ele>12.0</ele><time>2026-04-30T08:35:36.897Z</time></trkpt><trkpt lat="37.4008791" lon="21.679023"><ele>13.0</ele><time>2026-04-30T08:35:37.898Z</time></trkpt><trkpt lat="37.4010595" lon="21.6788149"><ele>13.0</ele><time>2026-04-30T08:35:38.898Z</time></trkpt><trkpt lat="37.4012339" lon="21.6786156"><ele>13.0</ele><time>2026-04-30T08:35:39.897Z</time></trkpt><trkpt lat="37.4014065" lon="21.6784144"><ele>12.666666666666666</ele><time>2026-04-30T08:35:40.897Z</time></trkpt><trkpt lat="37.4015659" lon="21.6782245"><ele>12.333333333333332</ele><time>2026-04-30T08:35:41.897Z</time></trkpt><trkpt lat="37.4017234" lon="21.6780324"><ele>12.0</ele><time>2026-04-30T08:35:42.898Z</time></trkpt><trkpt lat="37.4018882" lon="21.6778495"><ele>11.666666666666666</ele><time>2026-04-30T08:35:43.897Z</time></trkpt><trkpt lat="37.4020601" lon="21.677678"><ele>11.333333333333332</ele><time>2026-04-30T08:35:44.898Z</time></trkpt><trkpt lat="37.4022347" lon="21.677516"><ele>11.0</ele><time>2026-04-30T08:35:45.897Z</time></trkpt><trkpt lat="37.4024177" lon="21.6773658"><ele>11.0</ele><time>2026-04-30T08:35:46.898Z</time></trkpt><trkpt lat="37.4026004" lon="21.6772242"><ele>11.0</ele><time>2026-04-30T08:35:47.897Z</time></trkpt><trkpt lat="37.4027855" lon="21.6770991"><ele>11.0</ele><time>2026-04-30T08:35:48.897Z</time></trkpt><trkpt lat="37.4029715" lon="21.6769827"><ele>10.666666666666666</ele><time>2026-04-30T08:35:49.898Z</time></trkpt><trkpt lat="37.403172" lon="21.6768624"><ele>10.333333333333334</ele><time>2026-04-30T08:35:50.898Z</time></trkpt><trkpt lat="37.4033813" lon="21.6767616"><ele>10.0</ele><time>2026-04-30T08:35:51.897Z</time></trkpt><trkpt lat="37.4036027" lon="21.6766606"><ele>11.5</ele><time>2026-04-30T08:35:52.898Z</time></trkpt><trkpt lat="37.4038409" lon="21.6765553"><ele>13.0</ele><time>2026-04-30T08:35:53.898Z</time></trkpt><trkpt lat="37.4040973" lon="21.6764346"><ele>13.0</ele><time>2026-04-30T08:35:54.898Z</time></trkpt><trkpt lat="37.4043669" lon="21.6763342"><ele>13.0</ele><time>2026-04-30T08:35:55.897Z</time></trkpt><trkpt lat="37.4046504" lon="21.6762238"><ele>12.0</ele><time>2026-04-30T08:35:56.898Z</time></trkpt><trkpt lat="37.4049259" lon="21.6761239"><ele>11.0</ele><time>2026-04-30T08:35:57.897Z</time></trkpt><trkpt lat="37.4051959" lon="21.6760225"><ele>11.0</ele><time>2026-04-30T08:35:58.898Z</time></trkpt><trkpt lat="37.4054612" lon="21.6759119"><ele>11.0</ele><time>2026-04-30T08:35:59.898Z</time></trkpt><trkpt lat="37.4057316" lon="21.6758103"><ele>12.5</ele><time>2026-04-30T08:36:00.898Z</time></trkpt><trkpt lat="37.4059903" lon="21.6757109"><ele>14.0</ele><time>2026-04-30T08:36:01.898Z</time></trkpt><trkpt lat="37.4062456" lon="21.6756191"><ele>18.5</ele><time>2026-04-30T08:36:02.898Z</time></trkpt><trkpt lat="37.4064892" lon="21.6755267"><ele>23.0</ele><time>2026-04-30T08:36:03.898Z</time></trkpt><trkpt lat="37.4067302" lon="21.6754327"><ele>23.0</ele><time>2026-04-30T08:36:04.898Z</time></trkpt><trkpt lat="37.4069608" lon="21.6753428"><ele>23.0</ele><time>2026-04-30T08:36:05.898Z</time></trkpt><trkpt lat="37.4071683" lon="21.6752627"><ele>20.333333333333336</ele><time>2026-04-30T08:36:06.898Z</time></trkpt><trkpt lat="37.4073693" lon="21.6751735"><ele>17.666666666666668</ele><time>2026-04-30T08:36:07.897Z</time></trkpt><trkpt lat="37.407557" lon="21.6750945"><ele>15.0</ele><time>2026-04-30T08:36:08.898Z</time></trkpt><trkpt lat="37.4077393" lon="21.6750192"><ele>15.0</ele><time>2026-04-30T08:36:09.898Z</time></trkpt><trkpt lat="37.4079285" lon="21.6749401"><ele>15.0</ele><time>2026-04-30T08:36:10.898Z</time></trkpt><trkpt lat="37.4081217" lon="21.6748667"><ele>15.0</ele><time>2026-04-30T08:36:11.897Z</time></trkpt><trkpt lat="37.4083284" lon="21.6747936"><ele>15.0</ele><time>2026-04-30T08:36:12.898Z</time></trkpt><trkpt lat="37.408534" lon="21.6747174"><ele>15.0</ele><time>2026-04-30T08:36:13.897Z</time></trkpt><trkpt lat="37.4087441" lon="21.6746381"><ele>15.0</ele><time>2026-04-30T08:36:14.897Z</time></trkpt><trkpt lat="37.4089678" lon="21.6745527"><ele>14.5</ele><time>2026-04-30T08:36:15.897Z</time></trkpt><trkpt lat="37.4091983" lon="21.6744471"><ele>14.0</ele><time>2026-04-30T08:36:16.897Z</time></trkpt><trkpt lat="37.4094345" lon="21.6743582"><ele>15.0</ele><time>2026-04-30T08:36:17.898Z</time></trkpt><trkpt lat="37.4096608" lon="21.6742708"><ele>16.0</ele><time>2026-04-30T08:36:18.898Z</time></trkpt><trkpt lat="37.4098807" lon="21.6741796"><ele>16.0</ele><time>2026-04-30T08:36:19.897Z</time></trkpt><trkpt lat="37.4101001" lon="21.6740987"><ele>16.0</ele><time>2026-04-30T08:36:20.897Z</time></trkpt><trkpt lat="37.410317" lon="21.6740175"><ele>16.0</ele><time>2026-04-30T08:36:21.898Z</time></trkpt><trkpt lat="37.4105297" lon="21.6739348"><ele>16.0</ele><time>2026-04-30T08:36:22.898Z</time></trkpt><trkpt lat="37.4107354" lon="21.6738571"><ele>16.0</ele><time>2026-04-30T08:36:23.898Z</time></trkpt><trkpt lat="37.4109403" lon="21.6737751"><ele>16.0</ele><time>2026-04-30T08:36:24.898Z</time></trkpt><trkpt lat="37.4111464" lon="21.673695"><ele>16.0</ele><time>2026-04-30T08:36:25.898Z</time></trkpt><trkpt lat="37.4113496" lon="21.6736154"><ele>16.0</ele><time>2026-04-30T08:36:26.897Z</time></trkpt><trkpt lat="37.4115555" lon="21.6735352"><ele>16.0</ele><time>2026-04-30T08:36:27.898Z</time></trkpt><trkpt lat="37.4117608" lon="21.673456"><ele>16.0</ele><time>2026-04-30T08:36:28.898Z</time></trkpt><trkpt lat="37.4119658" lon="21.6733728"><ele>16.0</ele><time>2026-04-30T08:36:29.897Z</time></trkpt><trkpt lat="37.4121707" lon="21.6733004"><ele>16.0</ele><time>2026-04-30T08:36:30.898Z</time></trkpt><trkpt lat="37.4123767" lon="21.6732249"><ele>16.0</ele><time>2026-04-30T08:36:31.897Z</time></trkpt><trkpt lat="37.4125873" lon="21.6731446"><ele>16.0</ele><time>2026-04-30T08:36:32.898Z</time></trkpt><trkpt lat="37.4127913" lon="21.673059"><ele>16.0</ele><time>2026-04-30T08:36:33.898Z</time></trkpt><trkpt lat="37.4130175" lon="21.6729627"><ele>16.0</ele><time>2026-04-30T08:36:34.898Z</time></trkpt><trkpt lat="37.4132286" lon="21.6728719"><ele>16.0</ele><time>2026-04-30T08:36:35.898Z</time></trkpt><trkpt lat="37.4134454" lon="21.6727767"><ele>16.0</ele><time>2026-04-30T08:36:36.898Z</time></trkpt><trkpt lat="37.4136682" lon="21.6726826"><ele>13.5</ele><time>2026-04-30T08:36:37.898Z</time></trkpt><trkpt lat="37.4138956" lon="21.672587"><ele>11.0</ele><time>2026-04-30T08:36:38.898Z</time></trkpt><trkpt lat="37.4141137" lon="21.6724834"><ele>11.0</ele><time>2026-04-30T08:36:39.898Z</time></trkpt><trkpt lat="37.4143401" lon="21.6723819"><ele>11.0</ele><time>2026-04-30T08:36:40.897Z</time></trkpt><trkpt lat="37.4145578" lon="21.67229"><ele>11.0</ele><time>2026-04-30T08:36:41.898Z</time></trkpt><trkpt lat="37.4147749" lon="21.672194"><ele>11.0</ele><time>2026-04-30T08:36:42.897Z</time></trkpt><trkpt lat="37.4149971" lon="21.6721003"><ele>11.0</ele><time>2026-04-30T08:36:43.898Z</time></trkpt><trkpt lat="37.4152207" lon="21.6720075"><ele>11.0</ele><time>2026-04-30T08:36:44.898Z</time></trkpt><trkpt lat="37.4154459" lon="21.6719132"><ele>10.5</ele><time>2026-04-30T08:36:45.898Z</time></trkpt><trkpt lat="37.4156676" lon="21.6718182"><ele>10.0</ele><time>2026-04-30T08:36:46.898Z</time></trkpt><trkpt lat="37.4158947" lon="21.6717214"><ele>10.0</ele><time>2026-04-30T08:36:47.898Z</time></trkpt><trkpt lat="37.4161172" lon="21.6716146"><ele>10.0</ele><time>2026-04-30T08:36:48.897Z</time></trkpt><trkpt lat="37.4163423" lon="21.67152"><ele>11.0</ele><time>2026-04-30T08:36:49.898Z</time></trkpt><trkpt lat="37.4165624" lon="21.6714278"><ele>12.0</ele><time>2026-04-30T08:36:50.898Z</time></trkpt><trkpt lat="37.4167889" lon="21.6713456"><ele>12.0</ele><time>2026-04-30T08:36:51.898Z</time></trkpt><trkpt lat="37.4170174" lon="21.67125"><ele>12.0</ele><time>2026-04-30T08:36:52.897Z</time></trkpt><trkpt lat="37.4172436" lon="21.6711527"><ele>11.5</ele><time>2026-04-30T08:36:53.898Z</time></trkpt><trkpt lat="37.4174686" lon="21.6710531"><ele>11.0</ele><time>2026-04-30T08:36:54.897Z</time></trkpt><trkpt lat="37.4177045" lon="21.6709538"><ele>11.0</ele><time>2026-04-30T08:36:55.898Z</time></trkpt><trkpt lat="37.4179442" lon="21.6708416"><ele>11.0</ele><time>2026-04-30T08:36:56.897Z</time></trkpt><trkpt lat="37.4181915" lon="21.6707312"><ele>12.0</ele><time>2026-04-30T08:36:57.898Z</time></trkpt><trkpt lat="37.4184272" lon="21.6706155"><ele>13.0</ele><time>2026-04-30T08:36:58.897Z</time></trkpt><trkpt lat="37.4186611" lon="21.6704935"><ele>13.5</ele><time>2026-04-30T08:36:59.898Z</time></trkpt><trkpt lat="37.4188967" lon="21.670365"><ele>14.0</ele><time>2026-04-30T08:37:00.897Z</time></trkpt><trkpt lat="37.4191422" lon="21.6702277"><ele>14.5</ele><time>2026-04-30T08:37:01.897Z</time></trkpt><trkpt lat="37.4194034" lon="21.6700841"><ele>15.0</ele><time>2026-04-30T08:37:02.897Z</time></trkpt><trkpt lat="37.4196605" lon="21.6699512"><ele>15.0</ele><time>2026-04-30T08:37:03.898Z</time></trkpt><trkpt lat="37.4199327" lon="21.6698097"><ele>15.0</ele><time>2026-04-30T08:37:04.898Z</time></trkpt><trkpt lat="37.4202089" lon="21.6696825"><ele>15.0</ele><time>2026-04-30T08:37:05.898Z</time></trkpt><trkpt lat="37.420476" lon="21.6695626"><ele>15.0</ele><time>2026-04-30T08:37:06.897Z</time></trkpt><trkpt lat="37.4207375" lon="21.6694428"><ele>15.5</ele><time>2026-04-30T08:37:07.898Z</time></trkpt><trkpt lat="37.4209945" lon="21.6693275"><ele>16.0</ele><time>2026-04-30T08:37:08.897Z</time></trkpt><trkpt lat="37.4212484" lon="21.6692126"><ele>16.0</ele><time>2026-04-30T08:37:09.897Z</time></trkpt><trkpt lat="37.4215037" lon="21.6690993"><ele>16.0</ele><time>2026-04-30T08:37:10.897Z</time></trkpt><trkpt lat="37.4217562" lon="21.6689832"><ele>16.0</ele><time>2026-04-30T08:37:11.898Z</time></trkpt><trkpt lat="37.4219984" lon="21.6688682"><ele>16.0</ele><time>2026-04-30T08:37:12.897Z</time></trkpt><trkpt lat="37.4222292" lon="21.6687624"><ele>16.666666666666664</ele><time>2026-04-30T08:37:13.897Z</time></trkpt><trkpt lat="37.4224408" lon="21.6686696"><ele>17.333333333333332</ele><time>2026-04-30T08:37:14.898Z</time></trkpt><trkpt lat="37.4226368" lon="21.6685803"><ele>18.0</ele><time>2026-04-30T08:37:15.898Z</time></trkpt><trkpt lat="37.4228163" lon="21.6684979"><ele>18.0</ele><time>2026-04-30T08:37:16.898Z</time></trkpt><trkpt lat="37.4229799" lon="21.6684213"><ele>18.0</ele><time>2026-04-30T08:37:17.898Z</time></trkpt><trkpt lat="37.4231315" lon="21.6683517"><ele>18.0</ele><time>2026-04-30T08:37:18.898Z</time></trkpt><trkpt lat="37.4232788" lon="21.6682892"><ele>19.0</ele><time>2026-04-30T08:37:19.897Z</time></trkpt><trkpt lat="37.4234119" lon="21.6682298"><ele>20.0</ele><time>2026-04-30T08:37:20.897Z</time></trkpt><trkpt lat="37.4235405" lon="21.6681623"><ele>21.0</ele><time>2026-04-30T08:37:21.898Z</time></trkpt><trkpt lat="37.4236701" lon="21.6681011"><ele>22.0</ele><time>2026-04-30T08:37:22.898Z</time></trkpt><trkpt lat="37.4237978" lon="21.6680411"><ele>22.5</ele><time>2026-04-30T08:37:23.897Z</time></trkpt><trkpt lat="37.4239235" lon="21.6679747"><ele>23.0</ele><time>2026-04-30T08:37:24.898Z</time></trkpt><trkpt lat="37.4240458" lon="21.6679166"><ele>23.5</ele><time>2026-04-30T08:37:25.897Z</time></trkpt><trkpt lat="37.4241672" lon="21.6678596"><ele>24.0</ele><time>2026-04-30T08:37:26.898Z</time></trkpt><trkpt lat="37.4242875" lon="21.6678027"><ele>22.75</ele><time>2026-04-30T08:37:27.897Z</time></trkpt><trkpt lat="37.4244107" lon="21.6677462"><ele>21.5</ele><time>2026-04-30T08:37:28.897Z</time></trkpt><trkpt lat="37.4245568" lon="21.6676816"><ele>20.25</ele><time>2026-04-30T08:37:29.897Z</time></trkpt><trkpt lat="37.4247096" lon="21.6676103"><ele>19.0</ele><time>2026-04-30T08:37:30.898Z</time></trkpt><trkpt lat="37.4248681" lon="21.6675357"><ele>19.0</ele><time>2026-04-30T08:37:31.898Z</time></trkpt><trkpt lat="37.4250268" lon="21.6674665"><ele>19.0</ele><time>2026-04-30T08:37:32.898Z</time></trkpt><trkpt lat="37.4251738" lon="21.6673969"><ele>19.0</ele><time>2026-04-30T08:37:33.898Z</time></trkpt><trkpt lat="37.425319" lon="21.6673272"><ele>19.0</ele><time>2026-04-30T08:37:34.898Z</time></trkpt><trkpt lat="37.4254578" lon="21.6672551"><ele>19.0</ele><time>2026-04-30T08:37:35.898Z</time></trkpt><trkpt lat="37.4256002" lon="21.6671933"><ele>19.0</ele><time>2026-04-30T08:37:36.898Z</time></trkpt><trkpt lat="37.4257431" lon="21.6671309"><ele>18.75</ele><time>2026-04-30T08:37:37.897Z</time></trkpt><trkpt lat="37.4258818" lon="21.6670741"><ele>18.5</ele><time>2026-04-30T08:37:38.898Z</time></trkpt><trkpt lat="37.4260193" lon="21.6670109"><ele>18.25</ele><time>2026-04-30T08:37:39.898Z</time></trkpt><trkpt lat="37.4261545" lon="21.6669505"><ele>18.0</ele><time>2026-04-30T08:37:40.898Z</time></trkpt><trkpt lat="37.4262892" lon="21.6668906"><ele>17.25</ele><time>2026-04-30T08:37:41.898Z</time></trkpt><trkpt lat="37.4264227" lon="21.6668391"><ele>16.5</ele><time>2026-04-30T08:37:42.898Z</time></trkpt><trkpt lat="37.4265582" lon="21.666776"><ele>15.75</ele><time>2026-04-30T08:37:43.897Z</time></trkpt><trkpt lat="37.4266915" lon="21.6667195"><ele>15.0</ele><time>2026-04-30T08:37:44.897Z</time></trkpt><trkpt lat="37.426817" lon="21.6666652"><ele>15.0</ele><time>2026-04-30T08:37:45.897Z</time></trkpt><trkpt lat="37.4269483" lon="21.6666178"><ele>15.0</ele><time>2026-04-30T08:37:46.898Z</time></trkpt><trkpt lat="37.4270773" lon="21.6665579"><ele>15.0</ele><time>2026-04-30T08:37:47.897Z</time></trkpt><trkpt lat="37.4272103" lon="21.6664924"><ele>15.0</ele><time>2026-04-30T08:37:48.898Z</time></trkpt><trkpt lat="37.4273505" lon="21.6664291"><ele>16.333333333333332</ele><time>2026-04-30T08:37:49.898Z</time></trkpt><trkpt lat="37.4274935" lon="21.6663649"><ele>17.666666666666664</ele><time>2026-04-30T08:37:50.897Z</time></trkpt><trkpt lat="37.4276381" lon="21.6663005"><ele>19.0</ele><time>2026-04-30T08:37:51.898Z</time></trkpt><trkpt lat="37.4277873" lon="21.6662368"><ele>19.0</ele><time>2026-04-30T08:37:52.897Z</time></trkpt><trkpt lat="37.4279436" lon="21.6661752"><ele>19.0</ele><time>2026-04-30T08:37:53.897Z</time></trkpt><trkpt lat="37.4281037" lon="21.6660977"><ele>19.0</ele><time>2026-04-30T08:37:54.898Z</time></trkpt><trkpt lat="37.4282705" lon="21.6660294"><ele>18.666666666666664</ele><time>2026-04-30T08:37:55.897Z</time></trkpt><trkpt lat="37.4284358" lon="21.6659568"><ele>18.333333333333332</ele><time>2026-04-30T08:37:56.897Z</time></trkpt><trkpt lat="37.4286032" lon="21.665883"><ele>18.0</ele><time>2026-04-30T08:37:57.897Z</time></trkpt><trkpt lat="37.4287673" lon="21.6658161"><ele>18.333333333333332</ele><time>2026-04-30T08:37:58.897Z</time></trkpt><trkpt lat="37.4289325" lon="21.6657524"><ele>18.666666666666664</ele><time>2026-04-30T08:37:59.897Z</time></trkpt><trkpt lat="37.4290993" lon="21.6656719"><ele>19.0</ele><time>2026-04-30T08:38:00.898Z</time></trkpt><trkpt lat="37.4292748" lon="21.6655938"><ele>19.0</ele><time>2026-04-30T08:38:01.898Z</time></trkpt><trkpt lat="37.4294444" lon="21.6655174"><ele>19.0</ele><time>2026-04-30T08:38:02.897Z</time></trkpt><trkpt lat="37.4296222" lon="21.6654378"><ele>19.0</ele><time>2026-04-30T08:38:03.897Z</time></trkpt><trkpt lat="37.429791" lon="21.665364"><ele>19.666666666666664</ele><time>2026-04-30T08:38:04.898Z</time></trkpt><trkpt lat="37.429966" lon="21.6652884"><ele>20.333333333333332</ele><time>2026-04-30T08:38:05.898Z</time></trkpt><trkpt lat="37.4301451" lon="21.6652027"><ele>21.0</ele><time>2026-04-30T08:38:06.897Z</time></trkpt><trkpt lat="37.43033" lon="21.6651181"><ele>19.333333333333332</ele><time>2026-04-30T08:38:07.897Z</time></trkpt><trkpt lat="37.4305151" lon="21.6650359"><ele>17.666666666666664</ele><time>2026-04-30T08:38:08.897Z</time></trkpt><trkpt lat="37.4307024" lon="21.6649236"><ele>16.0</ele><time>2026-04-30T08:38:09.897Z</time></trkpt><trkpt lat="37.4308857" lon="21.6648458"><ele>16.0</ele><time>2026-04-30T08:38:10.898Z</time></trkpt><trkpt lat="37.4310681" lon="21.6647688"><ele>16.0</ele><time>2026-04-30T08:38:11.898Z</time></trkpt><trkpt lat="37.4312552" lon="21.6646815"><ele>16.0</ele><time>2026-04-30T08:38:12.898Z</time></trkpt><trkpt lat="37.431443" lon="21.6646003"><ele>16.666666666666664</ele><time>2026-04-30T08:38:13.897Z</time></trkpt><trkpt lat="37.431635" lon="21.6645131"><ele>17.333333333333332</ele><time>2026-04-30T08:38:14.898Z</time></trkpt><trkpt lat="37.431823" lon="21.6644328"><ele>18.0</ele><time>2026-04-30T08:38:15.897Z</time></trkpt><trkpt lat="37.4320019" lon="21.6643542"><ele>17.333333333333332</ele><time>2026-04-30T08:38:16.898Z</time></trkpt><trkpt lat="37.4321793" lon="21.6642733"><ele>16.666666666666664</ele><time>2026-04-30T08:38:17.897Z</time></trkpt><trkpt lat="37.4323565" lon="21.6641899"><ele>16.0</ele><time>2026-04-30T08:38:18.897Z</time></trkpt><trkpt lat="37.4325294" lon="21.664114"><ele>16.0</ele><time>2026-04-30T08:38:19.898Z</time></trkpt><trkpt lat="37.4326988" lon="21.6640376"><ele>16.0</ele><time>2026-04-30T08:38:20.898Z</time></trkpt><trkpt lat="37.432866" lon="21.6639588"><ele>16.0</ele><time>2026-04-30T08:38:21.897Z</time></trkpt><trkpt lat="37.4330294" lon="21.6638789"><ele>17.666666666666664</ele><time>2026-04-30T08:38:22.897Z</time></trkpt><trkpt lat="37.4331949" lon="21.6638055"><ele>19.333333333333332</ele><time>2026-04-30T08:38:23.898Z</time></trkpt><trkpt lat="37.4333685" lon="21.663734"><ele>21.0</ele><time>2026-04-30T08:38:24.898Z</time></trkpt><trkpt lat="37.433547" lon="21.663658"><ele>20.0</ele><time>2026-04-30T08:38:25.898Z</time></trkpt><trkpt lat="37.4337339" lon="21.6635689"><ele>19.0</ele><time>2026-04-30T08:38:26.897Z</time></trkpt><trkpt lat="37.43392" lon="21.6634766"><ele>18.0</ele><time>2026-04-30T08:38:27.897Z</time></trkpt><trkpt lat="37.4341065" lon="21.6633905"><ele>18.0</ele><time>2026-04-30T08:38:28.898Z</time></trkpt><trkpt lat="37.434287" lon="21.6633115"><ele>18.0</ele><time>2026-04-30T08:38:29.898Z</time></trkpt><trkpt lat="37.434455" lon="21.6632408"><ele>18.0</ele><time>2026-04-30T08:38:30.898Z</time></trkpt><trkpt lat="37.4346132" lon="21.6631721"><ele>19.0</ele><time>2026-04-30T08:38:31.898Z</time></trkpt><trkpt lat="37.4347608" lon="21.663108"><ele>20.0</ele><time>2026-04-30T08:38:32.897Z</time></trkpt><trkpt lat="37.4349168" lon="21.6630308"><ele>21.0</ele><time>2026-04-30T08:38:33.897Z</time></trkpt><trkpt lat="37.4350671" lon="21.6629685"><ele>21.0</ele><time>2026-04-30T08:38:34.897Z</time></trkpt><trkpt lat="37.4352203" lon="21.6629019"><ele>21.0</ele><time>2026-04-30T08:38:35.898Z</time></trkpt><trkpt lat="37.4353767" lon="21.6628302"><ele>21.0</ele><time>2026-04-30T08:38:36.898Z</time></trkpt><trkpt lat="37.4355349" lon="21.6627623"><ele>20.0</ele><time>2026-04-30T08:38:37.897Z</time></trkpt><trkpt lat="37.4356948" lon="21.6626932"><ele>19.0</ele><time>2026-04-30T08:38:38.898Z</time></trkpt><trkpt lat="37.4358523" lon="21.662624"><ele>18.0</ele><time>2026-04-30T08:38:39.898Z</time></trkpt><trkpt lat="37.4360056" lon="21.662554"><ele>18.0</ele><time>2026-04-30T08:38:40.897Z</time></trkpt><trkpt lat="37.4361633" lon="21.6624827"><ele>18.0</ele><time>2026-04-30T08:38:41.898Z</time></trkpt><trkpt lat="37.436335" lon="21.6624027"><ele>18.0</ele><time>2026-04-30T08:38:42.898Z</time></trkpt><trkpt lat="37.4365298" lon="21.6623128"><ele>18.5</ele><time>2026-04-30T08:38:43.897Z</time></trkpt><trkpt lat="37.4367444" lon="21.6622193"><ele>19.0</ele><time>2026-04-30T08:38:44.897Z</time></trkpt><trkpt lat="37.4369877" lon="21.6621111"><ele>19.0</ele><time>2026-04-30T08:38:45.898Z</time></trkpt><trkpt lat="37.4372437" lon="21.6620047"><ele>19.0</ele><time>2026-04-30T08:38:46.898Z</time></trkpt><trkpt lat="37.4374922" lon="21.6619105"><ele>19.0</ele><time>2026-04-30T08:38:47.897Z</time></trkpt><trkpt lat="37.4377305" lon="21.661815"><ele>19.0</ele><time>2026-04-30T08:38:48.897Z</time></trkpt><trkpt lat="37.4379714" lon="21.6617263"><ele>19.0</ele><time>2026-04-30T08:38:49.897Z</time></trkpt><trkpt lat="37.4382164" lon="21.6616501"><ele>19.0</ele><time>2026-04-30T08:38:50.898Z</time></trkpt><trkpt lat="37.4384529" lon="21.6615818"><ele>19.0</ele><time>2026-04-30T08:38:51.897Z</time></trkpt><trkpt lat="37.4386873" lon="21.6615197"><ele>19.0</ele><time>2026-04-30T08:38:52.897Z</time></trkpt><trkpt lat="37.4389256" lon="21.6614572"><ele>17.5</ele><time>2026-04-30T08:38:53.898Z</time></trkpt><trkpt lat="37.4391849" lon="21.6613968"><ele>16.0</ele><time>2026-04-30T08:38:54.898Z</time></trkpt><trkpt lat="37.4394654" lon="21.6613346"><ele>15.5</ele><time>2026-04-30T08:38:55.898Z</time></trkpt><trkpt lat="37.43977" lon="21.6612942"><ele>15.0</ele><time>2026-04-30T08:38:56.897Z</time></trkpt><trkpt lat="37.4400936" lon="21.661258"><ele>15.0</ele><time>2026-04-30T08:38:57.898Z</time></trkpt><trkpt lat="37.4404318" lon="21.6612289"><ele>15.0</ele><time>2026-04-30T08:38:58.898Z</time></trkpt><trkpt lat="37.4407844" lon="21.6611956"><ele>14.5</ele><time>2026-04-30T08:38:59.898Z</time></trkpt><trkpt lat="37.4411137" lon="21.6611674"><ele>14.0</ele><time>2026-04-30T08:39:00.897Z</time></trkpt><trkpt lat="37.4414335" lon="21.6611297"><ele>14.0</ele><time>2026-04-30T08:39:01.897Z</time></trkpt><trkpt lat="37.441746" lon="21.6611042"><ele>14.0</ele><time>2026-04-30T08:39:02.897Z</time></trkpt><trkpt lat="37.4420517" lon="21.6610687"><ele>15.0</ele><time>2026-04-30T08:39:03.897Z</time></trkpt><trkpt lat="37.4423575" lon="21.6610353"><ele>16.0</ele><time>2026-04-30T08:39:04.897Z</time></trkpt><trkpt lat="37.442653" lon="21.6610074"><ele>16.0</ele><time>2026-04-30T08:39:05.897Z</time></trkpt><trkpt lat="37.4429448" lon="21.6609803"><ele>16.0</ele><time>2026-04-30T08:39:06.897Z</time></trkpt><trkpt lat="37.443228" lon="21.6609447"><ele>18.5</ele><time>2026-04-30T08:39:07.898Z</time></trkpt><trkpt lat="37.4435083" lon="21.6609294"><ele>21.0</ele><time>2026-04-30T08:39:08.898Z</time></trkpt><trkpt lat="37.4437903" lon="21.6608956"><ele>20.5</ele><time>2026-04-30T08:39:09.898Z</time></trkpt><trkpt lat="37.4440687" lon="21.6608626"><ele>20.0</ele><time>2026-04-30T08:39:10.898Z</time></trkpt><trkpt lat="37.4443463" lon="21.6608312"><ele>20.0</ele><time>2026-04-30T08:39:11.897Z</time></trkpt><trkpt lat="37.4446229" lon="21.6608045"><ele>20.0</ele><time>2026-04-30T08:39:12.898Z</time></trkpt><trkpt lat="37.4448933" lon="21.6607736"><ele>20.0</ele><time>2026-04-30T08:39:13.897Z</time></trkpt><trkpt lat="37.4451695" lon="21.6607444"><ele>20.0</ele><time>2026-04-30T08:39:14.898Z</time></trkpt><trkpt lat="37.4454403" lon="21.6607119"><ele>21.5</ele><time>2026-04-30T08:39:15.897Z</time></trkpt><trkpt lat="37.4457098" lon="21.6606831"><ele>23.0</ele><time>2026-04-30T08:39:16.897Z</time></trkpt><trkpt lat="37.4459857" lon="21.6606434"><ele>23.0</ele><time>2026-04-30T08:39:17.898Z</time></trkpt><trkpt lat="37.4462556" lon="21.6606238"><ele>23.0</ele><time>2026-04-30T08:39:18.897Z</time></trkpt><trkpt lat="37.4465246" lon="21.6605992"><ele>22.0</ele><time>2026-04-30T08:39:19.898Z</time></trkpt><trkpt lat="37.4467964" lon="21.6605758"><ele>21.0</ele><time>2026-04-30T08:39:20.898Z</time></trkpt><trkpt lat="37.4470669" lon="21.6605457"><ele>19.5</ele><time>2026-04-30T08:39:21.898Z</time></trkpt><trkpt lat="37.4473414" lon="21.6605125"><ele>18.0</ele><time>2026-04-30T08:39:22.898Z</time></trkpt><trkpt lat="37.4476109" lon="21.660493"><ele>18.0</ele><time>2026-04-30T08:39:23.897Z</time></trkpt><trkpt lat="37.447885" lon="21.6604736"><ele>18.0</ele><time>2026-04-30T08:39:24.898Z</time></trkpt><trkpt lat="37.4481622" lon="21.6604432"><ele>18.0</ele><time>2026-04-30T08:39:25.897Z</time></trkpt><trkpt lat="37.4484385" lon="21.6604108"><ele>18.0</ele><time>2026-04-30T08:39:26.898Z</time></trkpt><trkpt lat="37.4487168" lon="21.6603801"><ele>17.0</ele><time>2026-04-30T08:39:27.898Z</time></trkpt><trkpt lat="37.4489881" lon="21.6603455"><ele>16.0</ele><time>2026-04-30T08:39:28.897Z</time></trkpt><trkpt lat="37.4492624" lon="21.6603153"><ele>16.0</ele><time>2026-04-30T08:39:29.897Z</time></trkpt><trkpt lat="37.4495343" lon="21.660289"><ele>16.0</ele><time>2026-04-30T08:39:30.898Z</time></trkpt><trkpt lat="37.4498053" lon="21.6602602"><ele>15.5</ele><time>2026-04-30T08:39:31.897Z</time></trkpt><trkpt lat="37.450075" lon="21.6602368"><ele>15.0</ele><time>2026-04-30T08:39:32.898Z</time></trkpt><trkpt lat="37.450343" lon="21.6602071"><ele>15.0</ele><time>2026-04-30T08:39:33.898Z</time></trkpt><trkpt lat="37.4506106" lon="21.6601784"><ele>15.0</ele><time>2026-04-30T08:39:34.898Z</time></trkpt><trkpt lat="37.4508762" lon="21.6601495"><ele>15.0</ele><time>2026-04-30T08:39:35.898Z</time></trkpt><trkpt lat="37.4511379" lon="21.6601219"><ele>15.0</ele><time>2026-04-30T08:39:36.898Z</time></trkpt><trkpt lat="37.4513955" lon="21.6600908"><ele>16.0</ele><time>2026-04-30T08:39:37.898Z</time></trkpt><trkpt lat="37.4516406" lon="21.6600699"><ele>17.0</ele><time>2026-04-30T08:39:38.897Z</time></trkpt><trkpt lat="37.4518773" lon="21.660039"><ele>17.0</ele><time>2026-04-30T08:39:39.898Z</time></trkpt><trkpt lat="37.4521041" lon="21.6600129"><ele>17.0</ele><time>2026-04-30T08:39:40.898Z</time></trkpt><trkpt lat="37.4523206" lon="21.6599927"><ele>17.0</ele><time>2026-04-30T08:39:41.898Z</time></trkpt><trkpt lat="37.4525182" lon="21.6599767"><ele>17.666666666666668</ele><time>2026-04-30T08:39:42.897Z</time></trkpt><trkpt lat="37.4527172" lon="21.6599531"><ele>18.333333333333332</ele><time>2026-04-30T08:39:43.897Z</time></trkpt><trkpt lat="37.4529264" lon="21.6599254"><ele>19.0</ele><time>2026-04-30T08:39:44.897Z</time></trkpt><trkpt lat="37.4531552" lon="21.6598957"><ele>20.0</ele><time>2026-04-30T08:39:45.898Z</time></trkpt><trkpt lat="37.4534051" lon="21.6598766"><ele>21.0</ele><time>2026-04-30T08:39:46.897Z</time></trkpt><trkpt lat="37.4536557" lon="21.6598579"><ele>21.5</ele><time>2026-04-30T08:39:47.898Z</time></trkpt><trkpt lat="37.4539063" lon="21.6598363"><ele>22.0</ele><time>2026-04-30T08:39:48.898Z</time></trkpt><trkpt lat="37.4541508" lon="21.6598161"><ele>22.0</ele><time>2026-04-30T08:39:49.898Z</time></trkpt><trkpt lat="37.4543991" lon="21.6597959"><ele>22.0</ele><time>2026-04-30T08:39:50.897Z</time></trkpt><trkpt lat="37.454646" lon="21.6597649"><ele>22.0</ele><time>2026-04-30T08:39:51.898Z</time></trkpt><trkpt lat="37.4548888" lon="21.6597407"><ele>22.0</ele><time>2026-04-30T08:39:52.898Z</time></trkpt><trkpt lat="37.4551293" lon="21.659714"><ele>22.0</ele><time>2026-04-30T08:39:53.898Z</time></trkpt><trkpt lat="37.4553638" lon="21.6596927"><ele>22.0</ele><time>2026-04-30T08:39:54.897Z</time></trkpt><trkpt lat="37.4555938" lon="21.6596704"><ele>22.666666666666664</ele><time>2026-04-30T08:39:55.897Z</time></trkpt><trkpt lat="37.4558174" lon="21.6596567"><ele>23.333333333333332</ele><time>2026-04-30T08:39:56.897Z</time></trkpt><trkpt lat="37.4560335" lon="21.659639"><ele>24.0</ele><time>2026-04-30T08:39:57.898Z</time></trkpt><trkpt lat="37.4562505" lon="21.6596147"><ele>24.333333333333336</ele><time>2026-04-30T08:39:58.897Z</time></trkpt><trkpt lat="37.4564643" lon="21.6595951"><ele>24.666666666666668</ele><time>2026-04-30T08:39:59.897Z</time></trkpt><trkpt lat="37.4566839" lon="21.6595731"><ele>25.0</ele><time>2026-04-30T08:40:00.897Z</time></trkpt><trkpt lat="37.4569077" lon="21.6595492"><ele>25.333333333333336</ele><time>2026-04-30T08:40:01.897Z</time></trkpt><trkpt lat="37.4571297" lon="21.6595283"><ele>25.666666666666664</ele><time>2026-04-30T08:40:02.898Z</time></trkpt><trkpt lat="37.4573543" lon="21.6595027"><ele>26.0</ele><time>2026-04-30T08:40:03.897Z</time></trkpt><trkpt lat="37.4575823" lon="21.6594716"><ele>26.5</ele><time>2026-04-30T08:40:04.897Z</time></trkpt><trkpt lat="37.4578112" lon="21.6594276"><ele>27.0</ele><time>2026-04-30T08:40:05.897Z</time></trkpt><trkpt lat="37.4580358" lon="21.6593885"><ele>27.0</ele><time>2026-04-30T08:40:06.898Z</time></trkpt><trkpt lat="37.4582549" lon="21.6593303"><ele>27.0</ele><time>2026-04-30T08:40:07.898Z</time></trkpt><trkpt lat="37.4584756" lon="21.6592712"><ele>27.0</ele><time>2026-04-30T08:40:08.897Z</time></trkpt><trkpt lat="37.4586912" lon="21.6592161"><ele>27.0</ele><time>2026-04-30T08:40:09.897Z</time></trkpt><trkpt lat="37.4589022" lon="21.6591464"><ele>27.0</ele><time>2026-04-30T08:40:10.898Z</time></trkpt><trkpt lat="37.4591131" lon="21.6590502"><ele>28.0</ele><time>2026-04-30T08:40:11.897Z</time></trkpt><trkpt lat="37.4593261" lon="21.6589697"><ele>29.0</ele><time>2026-04-30T08:40:12.897Z</time></trkpt><trkpt lat="37.459545" lon="21.658873"><ele>29.0</ele><time>2026-04-30T08:40:13.898Z</time></trkpt><trkpt lat="37.4597567" lon="21.6587768"><ele>29.0</ele><time>2026-04-30T08:40:14.898Z</time></trkpt><trkpt lat="37.4599722" lon="21.6586735"><ele>24.0</ele><time>2026-04-30T08:40:15.897Z</time></trkpt><trkpt lat="37.4601952" lon="21.6585438"><ele>19.0</ele><time>2026-04-30T08:40:16.897Z</time></trkpt><trkpt lat="37.4604191" lon="21.6584295"><ele>19.5</ele><time>2026-04-30T08:40:17.897Z</time></trkpt><trkpt lat="37.4606362" lon="21.6583213"><ele>20.0</ele><time>2026-04-30T08:40:18.898Z</time></trkpt><trkpt lat="37.4608526" lon="21.6582059"><ele>20.0</ele><time>2026-04-30T08:40:19.898Z</time></trkpt><trkpt lat="37.4610721" lon="21.6580982"><ele>20.0</ele><time>2026-04-30T08:40:20.898Z</time></trkpt><trkpt lat="37.4612914" lon="21.6579861"><ele>20.0</ele><time>2026-04-30T08:40:21.897Z</time></trkpt><trkpt lat="37.4615092" lon="21.6578735"><ele>20.0</ele><time>2026-04-30T08:40:22.898Z</time></trkpt><trkpt lat="37.4617322" lon="21.6577617"><ele>20.0</ele><time>2026-04-30T08:40:23.898Z</time></trkpt><trkpt lat="37.461955" lon="21.6576482"><ele>20.0</ele><time>2026-04-30T08:40:24.897Z</time></trkpt><trkpt lat="37.4621834" lon="21.6575369"><ele>20.5</ele><time>2026-04-30T08:40:25.897Z</time></trkpt><trkpt lat="37.4624115" lon="21.6574228"><ele>21.0</ele><time>2026-04-30T08:40:26.897Z</time></trkpt><trkpt lat="37.4626345" lon="21.6573045"><ele>21.0</ele><time>2026-04-30T08:40:27.897Z</time></trkpt><trkpt lat="37.4628596" lon="21.6571853"><ele>21.0</ele><time>2026-04-30T08:40:28.897Z</time></trkpt><trkpt lat="37.4630827" lon="21.657068"><ele>20.5</ele><time>2026-04-30T08:40:29.897Z</time></trkpt><trkpt lat="37.4633049" lon="21.6569478"><ele>20.0</ele><time>2026-04-30T08:40:30.897Z</time></trkpt><trkpt lat="37.4635262" lon="21.6568373"><ele>20.0</ele><time>2026-04-30T08:40:31.898Z</time></trkpt><trkpt lat="37.4637492" lon="21.6567213"><ele>20.0</ele><time>2026-04-30T08:40:32.897Z</time></trkpt><trkpt lat="37.463967" lon="21.6566131"><ele>20.0</ele><time>2026-04-30T08:40:33.898Z</time></trkpt><trkpt lat="37.4641831" lon="21.6565065"><ele>20.0</ele><time>2026-04-30T08:40:34.897Z</time></trkpt><trkpt lat="37.4643988" lon="21.656387"><ele>20.0</ele><time>2026-04-30T08:40:35.898Z</time></trkpt><trkpt lat="37.4646229" lon="21.6562531"><ele>20.0</ele><time>2026-04-30T08:40:36.898Z</time></trkpt><trkpt lat="37.4648392" lon="21.6561457"><ele>19.0</ele><time>2026-04-30T08:40:37.898Z</time></trkpt><trkpt lat="37.4650525" lon="21.6560454"><ele>18.0</ele><time>2026-04-30T08:40:38.898Z</time></trkpt><trkpt lat="37.4652642" lon="21.6559425"><ele>18.333333333333332</ele><time>2026-04-30T08:40:39.898Z</time></trkpt><trkpt lat="37.4654693" lon="21.6558417"><ele>18.666666666666664</ele><time>2026-04-30T08:40:40.897Z</time></trkpt><trkpt lat="37.4656619" lon="21.6557434"><ele>19.0</ele><time>2026-04-30T08:40:41.897Z</time></trkpt><trkpt lat="37.4658448" lon="21.6556534"><ele>19.0</ele><time>2026-04-30T08:40:42.898Z</time></trkpt><trkpt lat="37.4660138" lon="21.655572"><ele>19.0</ele><time>2026-04-30T08:40:43.898Z</time></trkpt><trkpt lat="37.4661752" lon="21.655493"><ele>19.0</ele><time>2026-04-30T08:40:44.897Z</time></trkpt><trkpt lat="37.466327" lon="21.6554204"><ele>19.0</ele><time>2026-04-30T08:40:45.897Z</time></trkpt><trkpt lat="37.4664697" lon="21.6553574"><ele>19.0</ele><time>2026-04-30T08:40:46.898Z</time></trkpt><trkpt lat="37.4666113" lon="21.6552894"><ele>19.0</ele><time>2026-04-30T08:40:47.898Z</time></trkpt><trkpt lat="37.4667502" lon="21.6552229"><ele>18.75</ele><time>2026-04-30T08:40:48.897Z</time></trkpt><trkpt lat="37.4668834" lon="21.6551548"><ele>18.5</ele><time>2026-04-30T08:40:49.898Z</time></trkpt><trkpt lat="37.4670231" lon="21.6550846"><ele>18.25</ele><time>2026-04-30T08:40:50.898Z</time></trkpt><trkpt lat="37.4671646" lon="21.655013"><ele>18.0</ele><time>2026-04-30T08:40:51.898Z</time></trkpt><trkpt lat="37.4673133" lon="21.6549413"><ele>18.0</ele><time>2026-04-30T08:40:52.898Z</time></trkpt><trkpt lat="37.4674744" lon="21.654857"><ele>18.0</ele><time>2026-04-30T08:40:53.898Z</time></trkpt><trkpt lat="37.4676511" lon="21.6547673"><ele>18.0</ele><time>2026-04-30T08:40:54.897Z</time></trkpt><trkpt lat="37.4678432" lon="21.6546714"><ele>17.666666666666668</ele><time>2026-04-30T08:40:55.898Z</time></trkpt><trkpt lat="37.4680462" lon="21.6545714"><ele>17.333333333333336</ele><time>2026-04-30T08:40:56.898Z</time></trkpt><trkpt lat="37.4682541" lon="21.6544677"><ele>17.0</ele><time>2026-04-30T08:40:57.897Z</time></trkpt><trkpt lat="37.4684592" lon="21.654363"><ele>17.0</ele><time>2026-04-30T08:40:58.898Z</time></trkpt><trkpt lat="37.4686838" lon="21.6542272"><ele>17.0</ele><time>2026-04-30T08:40:59.897Z</time></trkpt><trkpt lat="37.4689184" lon="21.6540975"><ele>18.0</ele><time>2026-04-30T08:41:00.897Z</time></trkpt><trkpt lat="37.4691578" lon="21.653983"><ele>19.0</ele><time>2026-04-30T08:41:01.898Z</time></trkpt><trkpt lat="37.469387" lon="21.6538782"><ele>19.0</ele><time>2026-04-30T08:41:02.898Z</time></trkpt><trkpt lat="37.4696037" lon="21.6537749"><ele>19.0</ele><time>2026-04-30T08:41:03.898Z</time></trkpt><trkpt lat="37.4698036" lon="21.6536772"><ele>19.0</ele><time>2026-04-30T08:41:04.897Z</time></trkpt><trkpt lat="37.4699971" lon="21.6535783"><ele>18.666666666666664</ele><time>2026-04-30T08:41:05.898Z</time></trkpt><trkpt lat="37.4701844" lon="21.6534885"><ele>18.333333333333332</ele><time>2026-04-30T08:41:06.898Z</time></trkpt><trkpt lat="37.4703659" lon="21.6533947"><ele>18.0</ele><time>2026-04-30T08:41:07.897Z</time></trkpt><trkpt lat="37.4705513" lon="21.6532938"><ele>18.0</ele><time>2026-04-30T08:41:08.898Z</time></trkpt><trkpt lat="37.4707499" lon="21.6531881"><ele>18.0</ele><time>2026-04-30T08:41:09.898Z</time></trkpt><trkpt lat="37.4709654" lon="21.6530767"><ele>18.0</ele><time>2026-04-30T08:41:10.898Z</time></trkpt><trkpt lat="37.4712003" lon="21.6529607"><ele>17.5</ele><time>2026-04-30T08:41:11.898Z</time></trkpt><trkpt lat="37.471443" lon="21.6528407"><ele>17.0</ele><time>2026-04-30T08:41:12.897Z</time></trkpt><trkpt lat="37.4716854" lon="21.6527272"><ele>17.0</ele><time>2026-04-30T08:41:13.897Z</time></trkpt><trkpt lat="37.4719269" lon="21.6526181"><ele>17.0</ele><time>2026-04-30T08:41:14.898Z</time></trkpt><trkpt lat="37.4721606" lon="21.6525105"><ele>21.0</ele><time>2026-04-30T08:41:15.897Z</time></trkpt><trkpt lat="37.4723903" lon="21.6524113"><ele>25.0</ele><time>2026-04-30T08:41:16.897Z</time></trkpt><trkpt lat="37.4726214" lon="21.6522956"><ele>25.0</ele><time>2026-04-30T08:41:17.898Z</time></trkpt><trkpt lat="37.4728428" lon="21.6522057"><ele>25.0</ele><time>2026-04-30T08:41:18.897Z</time></trkpt><trkpt lat="37.4730627" lon="21.6521222"><ele>24.333333333333336</ele><time>2026-04-30T08:41:19.898Z</time></trkpt><trkpt lat="37.473277" lon="21.6520429"><ele>23.666666666666668</ele><time>2026-04-30T08:41:20.898Z</time></trkpt><trkpt lat="37.4734944" lon="21.6519699"><ele>23.0</ele><time>2026-04-30T08:41:21.897Z</time></trkpt><trkpt lat="37.473709" lon="21.6519076"><ele>23.0</ele><time>2026-04-30T08:41:22.897Z</time></trkpt><trkpt lat="37.4739253" lon="21.6518491"><ele>23.0</ele><time>2026-04-30T08:41:23.897Z</time></trkpt><trkpt lat="37.4741388" lon="21.6517944"><ele>23.0</ele><time>2026-04-30T08:41:24.897Z</time></trkpt><trkpt lat="37.474349" lon="21.6517447"><ele>23.0</ele><time>2026-04-30T08:41:25.897Z</time></trkpt><trkpt lat="37.47456" lon="21.6516865"><ele>23.0</ele><time>2026-04-30T08:41:26.898Z</time></trkpt><trkpt lat="37.4747712" lon="21.6516343"><ele>23.0</ele><time>2026-04-30T08:41:27.897Z</time></trkpt><trkpt lat="37.4749851" lon="21.6515817"><ele>22.666666666666668</ele><time>2026-04-30T08:41:28.897Z</time></trkpt><trkpt lat="37.4751996" lon="21.6515334"><ele>22.333333333333332</ele><time>2026-04-30T08:41:29.897Z</time></trkpt><trkpt lat="37.4754076" lon="21.6514824"><ele>22.0</ele><time>2026-04-30T08:41:30.898Z</time></trkpt><trkpt lat="37.4756174" lon="21.651432"><ele>21.333333333333332</ele><time>2026-04-30T08:41:31.898Z</time></trkpt><trkpt lat="37.4758294" lon="21.651381"><ele>20.666666666666668</ele><time>2026-04-30T08:41:32.898Z</time></trkpt><trkpt lat="37.4760353" lon="21.6513332"><ele>20.0</ele><time>2026-04-30T08:41:33.898Z</time></trkpt><trkpt lat="37.4762336" lon="21.651276"><ele>20.0</ele><time>2026-04-30T08:41:34.897Z</time></trkpt><trkpt lat="37.4764199" lon="21.6512188"><ele>20.0</ele><time>2026-04-30T08:41:35.898Z</time></trkpt><trkpt lat="37.4766107" lon="21.6511658"><ele>20.0</ele><time>2026-04-30T08:41:36.898Z</time></trkpt><trkpt lat="37.4768093" lon="21.6511274"><ele>19.666666666666668</ele><time>2026-04-30T08:41:37.898Z</time></trkpt><trkpt lat="37.4770145" lon="21.6510795"><ele>19.333333333333332</ele><time>2026-04-30T08:41:38.898Z</time></trkpt><trkpt lat="37.4772225" lon="21.6510335"><ele>19.0</ele><time>2026-04-30T08:41:39.898Z</time></trkpt><trkpt lat="37.477435" lon="21.6509878"><ele>19.0</ele><time>2026-04-30T08:41:40.897Z</time></trkpt><trkpt lat="37.4776439" lon="21.650934"><ele>19.0</ele><time>2026-04-30T08:41:41.897Z</time></trkpt><trkpt lat="37.4778494" lon="21.6508784"><ele>19.0</ele><time>2026-04-30T08:41:42.898Z</time></trkpt><trkpt lat="37.4780516" lon="21.6508193"><ele>18.0</ele><time>2026-04-30T08:41:43.897Z</time></trkpt><trkpt lat="37.478243" lon="21.6507495"><ele>17.0</ele><time>2026-04-30T08:41:44.898Z</time></trkpt><trkpt lat="37.4784331" lon="21.6506891"><ele>16.0</ele><time>2026-04-30T08:41:45.898Z</time></trkpt><trkpt lat="37.4786209" lon="21.6506259"><ele>16.333333333333332</ele><time>2026-04-30T08:41:46.898Z</time></trkpt><trkpt lat="37.4788121" lon="21.6505615"><ele>16.666666666666668</ele><time>2026-04-30T08:41:47.898Z</time></trkpt><trkpt lat="37.479006" lon="21.6504999"><ele>17.0</ele><time>2026-04-30T08:41:48.898Z</time></trkpt><trkpt lat="37.4791905" lon="21.6504347"><ele>17.0</ele><time>2026-04-30T08:41:49.898Z</time></trkpt><trkpt lat="37.4793722" lon="21.6503799"><ele>17.0</ele><time>2026-04-30T08:41:50.898Z</time></trkpt><trkpt lat="37.4795564" lon="21.6503206"><ele>17.0</ele><time>2026-04-30T08:41:51.898Z</time></trkpt><trkpt lat="37.4797341" lon="21.6502687"><ele>16.666666666666668</ele><time>2026-04-30T08:41:52.898Z</time></trkpt><trkpt lat="37.4799" lon="21.6502181"><ele>16.333333333333332</ele><time>2026-04-30T08:41:53.898Z</time></trkpt><trkpt lat="37.4800478" lon="21.6501696"><ele>16.0</ele><time>2026-04-30T08:41:54.897Z</time></trkpt><trkpt lat="37.4801865" lon="21.6501233"><ele>16.0</ele><time>2026-04-30T08:41:55.897Z</time></trkpt><trkpt lat="37.4803153" lon="21.6500798"><ele>16.0</ele><time>2026-04-30T08:41:56.898Z</time></trkpt><trkpt lat="37.4804405" lon="21.6500358"><ele>16.0</ele><time>2026-04-30T08:41:57.897Z</time></trkpt><trkpt lat="37.4805578" lon="21.6499999"><ele>16.0</ele><time>2026-04-30T08:41:58.898Z</time></trkpt><trkpt lat="37.4806741" lon="21.6499551"><ele>16.5</ele><time>2026-04-30T08:41:59.898Z</time></trkpt><trkpt lat="37.4807934" lon="21.6499101"><ele>17.0</ele><time>2026-04-30T08:42:00.897Z</time></trkpt><trkpt lat="37.4809149" lon="21.6498607"><ele>17.5</ele><time>2026-04-30T08:42:01.897Z</time></trkpt><trkpt lat="37.4810418" lon="21.6498026"><ele>18.0</ele><time>2026-04-30T08:42:02.897Z</time></trkpt><trkpt lat="37.4811695" lon="21.6497435"><ele>18.333333333333332</ele><time>2026-04-30T08:42:03.898Z</time></trkpt><trkpt lat="37.4813167" lon="21.6496772"><ele>18.666666666666664</ele><time>2026-04-30T08:42:04.898Z</time></trkpt><trkpt lat="37.481467" lon="21.6495979"><ele>19.0</ele><time>2026-04-30T08:42:05.898Z</time></trkpt><trkpt lat="37.481607" lon="21.6495311"><ele>19.0</ele><time>2026-04-30T08:42:06.897Z</time></trkpt><trkpt lat="37.48174" lon="21.6494617"><ele>19.0</ele><time>2026-04-30T08:42:07.898Z</time></trkpt><trkpt lat="37.4818755" lon="21.649391"><ele>19.0</ele><time>2026-04-30T08:42:08.897Z</time></trkpt><trkpt lat="37.4819959" lon="21.649321"><ele>19.0</ele><time>2026-04-30T08:42:09.898Z</time></trkpt><trkpt lat="37.4821166" lon="21.6492529"><ele>18.25</ele><time>2026-04-30T08:42:10.897Z</time></trkpt><trkpt lat="37.4822355" lon="21.6491736"><ele>17.5</ele><time>2026-04-30T08:42:11.898Z</time></trkpt><trkpt lat="37.4823547" lon="21.6490855"><ele>16.75</ele><time>2026-04-30T08:42:12.897Z</time></trkpt><trkpt lat="37.4824616" lon="21.6490058"><ele>16.0</ele><time>2026-04-30T08:42:13.897Z</time></trkpt><trkpt lat="37.48256" lon="21.6489268"><ele>16.0</ele><time>2026-04-30T08:42:14.897Z</time></trkpt><trkpt lat="37.4826498" lon="21.6488457"><ele>16.0</ele><time>2026-04-30T08:42:15.898Z</time></trkpt><trkpt lat="37.4827379" lon="21.6487661"><ele>16.0</ele><time>2026-04-30T08:42:16.897Z</time></trkpt><trkpt lat="37.4828161" lon="21.6486867"><ele>16.0</ele><time>2026-04-30T08:42:17.897Z</time></trkpt><trkpt lat="37.4828964" lon="21.6486092"><ele>16.0</ele><time>2026-04-30T08:42:18.897Z</time></trkpt><trkpt lat="37.4829677" lon="21.6485364"><ele>16.2</ele><time>2026-04-30T08:42:19.897Z</time></trkpt><trkpt lat="37.4830395" lon="21.6484581"><ele>16.400000000000002</ele><time>2026-04-30T08:42:20.897Z</time></trkpt><trkpt lat="37.483112" lon="21.6483854"><ele>16.6</ele><time>2026-04-30T08:42:21.897Z</time></trkpt><trkpt lat="37.4831764" lon="21.6483231"><ele>16.8</ele><time>2026-04-30T08:42:22.898Z</time></trkpt><trkpt lat="37.4832506" lon="21.6482566"><ele>17.0</ele><time>2026-04-30T08:42:23.898Z</time></trkpt><trkpt lat="37.4833175" lon="21.6481744"><ele>17.0</ele><time>2026-04-30T08:42:24.897Z</time></trkpt><trkpt lat="37.4833976" lon="21.6480817"><ele>17.0</ele><time>2026-04-30T08:42:25.898Z</time></trkpt><trkpt lat="37.4834719" lon="21.647993"><ele>17.0</ele><time>2026-04-30T08:42:26.897Z</time></trkpt><trkpt lat="37.4835426" lon="21.6478998"><ele>17.0</ele><time>2026-04-30T08:42:27.898Z</time></trkpt><trkpt lat="37.483615" lon="21.6478093"><ele>17.0</ele><time>2026-04-30T08:42:28.897Z</time></trkpt><trkpt lat="37.4836943" lon="21.6477095"><ele>17.25</ele><time>2026-04-30T08:42:29.898Z</time></trkpt><trkpt lat="37.4837685" lon="21.6476103"><ele>17.5</ele><time>2026-04-30T08:42:30.898Z</time></trkpt><trkpt lat="37.4838578" lon="21.6475379"><ele>17.75</ele><time>2026-04-30T08:42:31.897Z</time></trkpt><trkpt lat="37.4839423" lon="21.6474239"><ele>18.0</ele><time>2026-04-30T08:42:32.898Z</time></trkpt><trkpt lat="37.4840388" lon="21.6473064"><ele>18.0</ele><time>2026-04-30T08:42:33.897Z</time></trkpt><trkpt lat="37.4841376" lon="21.6471774"><ele>18.0</ele><time>2026-04-30T08:42:34.897Z</time></trkpt><trkpt lat="37.4842369" lon="21.6470508"><ele>18.0</ele><time>2026-04-30T08:42:35.898Z</time></trkpt><trkpt lat="37.4843378" lon="21.6469258"><ele>18.0</ele><time>2026-04-30T08:42:36.897Z</time></trkpt><trkpt lat="37.4844441" lon="21.6467991"><ele>17.333333333333332</ele><time>2026-04-30T08:42:37.898Z</time></trkpt><trkpt lat="37.4845567" lon="21.6466505"><ele>16.666666666666664</ele><time>2026-04-30T08:42:38.897Z</time></trkpt><trkpt lat="37.484674" lon="21.6465074"><ele>16.0</ele><time>2026-04-30T08:42:39.897Z</time></trkpt><trkpt lat="37.4847954" lon="21.6463961"><ele>16.0</ele><time>2026-04-30T08:42:40.898Z</time></trkpt><trkpt lat="37.4849224" lon="21.6462529"><ele>16.0</ele><time>2026-04-30T08:42:41.898Z</time></trkpt><trkpt lat="37.485051" lon="21.6461036"><ele>16.0</ele><time>2026-04-30T08:42:42.897Z</time></trkpt><trkpt lat="37.4851747" lon="21.6459451"><ele>15.0</ele><time>2026-04-30T08:42:43.897Z</time></trkpt><trkpt lat="37.4853053" lon="21.6457846"><ele>14.0</ele><time>2026-04-30T08:42:44.897Z</time></trkpt><trkpt lat="37.485429" lon="21.645606"><ele>13.0</ele><time>2026-04-30T08:42:45.897Z</time></trkpt><trkpt lat="37.485539" lon="21.6454161"><ele>12.666666666666666</ele><time>2026-04-30T08:42:46.898Z</time></trkpt><trkpt lat="37.4856298" lon="21.6452001"><ele>12.333333333333332</ele><time>2026-04-30T08:42:47.898Z</time></trkpt><trkpt lat="37.4856855" lon="21.6449739"><ele>12.0</ele><time>2026-04-30T08:42:48.898Z</time></trkpt><trkpt lat="37.4857062" lon="21.644748"><ele>12.0</ele><time>2026-04-30T08:42:49.897Z</time></trkpt><trkpt lat="37.4856999" lon="21.6445087"><ele>12.0</ele><time>2026-04-30T08:42:50.898Z</time></trkpt><trkpt lat="37.4856769" lon="21.6442769"><ele>12.0</ele><time>2026-04-30T08:42:51.898Z</time></trkpt><trkpt lat="37.4856413" lon="21.6440307"><ele>11.666666666666666</ele><time>2026-04-30T08:42:52.897Z</time></trkpt><trkpt lat="37.4856099" lon="21.6437993"><ele>11.333333333333332</ele><time>2026-04-30T08:42:53.897Z</time></trkpt><trkpt lat="37.4855823" lon="21.6435575"><ele>11.0</ele><time>2026-04-30T08:42:54.898Z</time></trkpt><trkpt lat="37.485553" lon="21.6433107"><ele>11.0</ele><time>2026-04-30T08:42:55.897Z</time></trkpt><trkpt lat="37.4855275" lon="21.6430632"><ele>11.0</ele><time>2026-04-30T08:42:56.898Z</time></trkpt><trkpt lat="37.4855034" lon="21.6428192"><ele>11.0</ele><time>2026-04-30T08:42:57.897Z</time></trkpt><trkpt lat="37.4854763" lon="21.6425721"><ele>10.0</ele><time>2026-04-30T08:42:58.897Z</time></trkpt><trkpt lat="37.4854483" lon="21.6423195"><ele>9.0</ele><time>2026-04-30T08:42:59.898Z</time></trkpt><trkpt lat="37.4854191" lon="21.6420648"><ele>8.0</ele><time>2026-04-30T08:43:00.898Z</time></trkpt><trkpt lat="37.4853841" lon="21.6418018"><ele>7.666666666666666</ele><time>2026-04-30T08:43:01.897Z</time></trkpt><trkpt lat="37.4853496" lon="21.6415286"><ele>7.333333333333334</ele><time>2026-04-30T08:43:02.898Z</time></trkpt><trkpt lat="37.4853225" lon="21.6412562"><ele>7.0</ele><time>2026-04-30T08:43:03.897Z</time></trkpt><trkpt lat="37.4853013" lon="21.6409825"><ele>7.0</ele><time>2026-04-30T08:43:04.898Z</time></trkpt><trkpt lat="37.4852806" lon="21.6406971"><ele>7.0</ele><time>2026-04-30T08:43:05.897Z</time></trkpt><trkpt lat="37.485266" lon="21.6404008"><ele>7.0</ele><time>2026-04-30T08:43:06.898Z</time></trkpt><trkpt lat="37.4852737" lon="21.6400929"><ele>7.0</ele><time>2026-04-30T08:43:07.897Z</time></trkpt><trkpt lat="37.4852869" lon="21.6397695"><ele>5.5</ele><time>2026-04-30T08:43:08.898Z</time></trkpt><trkpt lat="37.4853127" lon="21.6394405"><ele>4.0</ele><time>2026-04-30T08:43:09.898Z</time></trkpt><trkpt lat="37.4853476" lon="21.6390959"><ele>4.0</ele><time>2026-04-30T08:43:10.898Z</time></trkpt><trkpt lat="37.4853875" lon="21.6387612"><ele>4.0</ele><time>2026-04-30T08:43:11.898Z</time></trkpt><trkpt lat="37.485429" lon="21.6384259"><ele>4.0</ele><time>2026-04-30T08:43:12.898Z</time></trkpt><trkpt lat="37.4854628" lon="21.6380993"><ele>4.0</ele><time>2026-04-30T08:43:13.897Z</time></trkpt><trkpt lat="37.4854985" lon="21.6377758"><ele>4.0</ele><time>2026-04-30T08:43:14.898Z</time></trkpt><trkpt lat="37.4855312" lon="21.6374607"><ele>4.0</ele><time>2026-04-30T08:43:15.898Z</time></trkpt><trkpt lat="37.4855625" lon="21.6371531"><ele>3.0</ele><time>2026-04-30T08:43:16.897Z</time></trkpt><trkpt lat="37.4855924" lon="21.6368489"><ele>2.0</ele><time>2026-04-30T08:43:17.897Z</time></trkpt><trkpt lat="37.4856218" lon="21.6365432"><ele>2.0</ele><time>2026-04-30T08:43:18.898Z</time></trkpt><trkpt lat="37.4856566" lon="21.6362488"><ele>2.0</ele><time>2026-04-30T08:43:19.898Z</time></trkpt><trkpt lat="37.4856845" lon="21.6359604"><ele>2.0</ele><time>2026-04-30T08:43:20.897Z</time></trkpt><trkpt lat="37.4857147" lon="21.6356679"><ele>2.0</ele><time>2026-04-30T08:43:21.898Z</time></trkpt><trkpt lat="37.4857383" lon="21.6353834"><ele>2.0</ele><time>2026-04-30T08:43:22.897Z</time></trkpt><trkpt lat="37.4857684" lon="21.6351205"><ele>2.0</ele><time>2026-04-30T08:43:23.897Z</time></trkpt><trkpt lat="37.4857935" lon="21.6348663"><ele>2.0</ele><time>2026-04-30T08:43:24.897Z</time></trkpt><trkpt lat="37.4858232" lon="21.6346296"><ele>2.0</ele><time>2026-04-30T08:43:25.897Z</time></trkpt><trkpt lat="37.4858508" lon="21.6343989"><ele>2.0</ele><time>2026-04-30T08:43:26.898Z</time></trkpt><trkpt lat="37.485873" lon="21.6341676"><ele>2.0</ele><time>2026-04-30T08:43:27.897Z</time></trkpt><trkpt lat="37.4858935" lon="21.6339364"><ele>2.0</ele><time>2026-04-30T08:43:28.897Z</time></trkpt><trkpt lat="37.4859112" lon="21.6337066"><ele>2.0</ele><time>2026-04-30T08:43:29.897Z</time></trkpt><trkpt lat="37.4859334" lon="21.6334838"><ele>2.0</ele><time>2026-04-30T08:43:30.897Z</time></trkpt><trkpt lat="37.4859539" lon="21.6332703"><ele>2.0</ele><time>2026-04-30T08:43:31.898Z</time></trkpt><trkpt lat="37.4859787" lon="21.6330642"><ele>2.0</ele><time>2026-04-30T08:43:32.898Z</time></trkpt><trkpt lat="37.4859995" lon="21.6328701"><ele>2.0</ele><time>2026-04-30T08:43:33.898Z</time></trkpt><trkpt lat="37.4860183" lon="21.6326768"><ele>2.0</ele><time>2026-04-30T08:43:34.898Z</time></trkpt><trkpt lat="37.4860364" lon="21.6325049"><ele>2.0</ele><time>2026-04-30T08:43:35.897Z</time></trkpt><trkpt lat="37.4860622" lon="21.6323217"><ele>2.0</ele><time>2026-04-30T08:43:36.898Z</time></trkpt><trkpt lat="37.4860913" lon="21.6321351"><ele>2.0</ele><time>2026-04-30T08:43:37.898Z</time></trkpt><trkpt lat="37.486127" lon="21.6319529"><ele>2.0</ele><time>2026-04-30T08:43:38.897Z</time></trkpt><trkpt lat="37.4861659" lon="21.6317708"><ele>2.0</ele><time>2026-04-30T08:43:39.898Z</time></trkpt><trkpt lat="37.4862097" lon="21.6315956"><ele>2.0</ele><time>2026-04-30T08:43:40.898Z</time></trkpt><trkpt lat="37.4862577" lon="21.631419"><ele>2.0</ele><time>2026-04-30T08:43:41.897Z</time></trkpt><trkpt lat="37.486311" lon="21.6312502"><ele>2.25</ele><time>2026-04-30T08:43:42.897Z</time></trkpt><trkpt lat="37.4863701" lon="21.6310844"><ele>2.5</ele><time>2026-04-30T08:43:43.898Z</time></trkpt><trkpt lat="37.4864326" lon="21.6309194"><ele>2.75</ele><time>2026-04-30T08:43:44.898Z</time></trkpt><trkpt lat="37.4864987" lon="21.6307557"><ele>3.0</ele><time>2026-04-30T08:43:45.898Z</time></trkpt><trkpt lat="37.4865682" lon="21.6305924"><ele>3.0</ele><time>2026-04-30T08:43:46.897Z</time></trkpt><trkpt lat="37.4866434" lon="21.630428"><ele>3.0</ele><time>2026-04-30T08:43:47.897Z</time></trkpt><trkpt lat="37.486724" lon="21.6302634"><ele>3.0</ele><time>2026-04-30T08:43:48.898Z</time></trkpt><trkpt lat="37.4868077" lon="21.6300886"><ele>2.0</ele><time>2026-04-30T08:43:49.898Z</time></trkpt><trkpt lat="37.4868926" lon="21.6299103"><ele>1.0</ele><time>2026-04-30T08:43:50.897Z</time></trkpt><trkpt lat="37.4869762" lon="21.629725"><ele>0.0</ele><time>2026-04-30T08:43:51.897Z</time></trkpt><trkpt lat="37.4870623" lon="21.6295389"><ele>0.3333333333333333</ele><time>2026-04-30T08:43:52.897Z</time></trkpt><trkpt lat="37.4871512" lon="21.6293526"><ele>0.6666666666666666</ele><time>2026-04-30T08:43:53.898Z</time></trkpt><trkpt lat="37.4872402" lon="21.6291641"><ele>1.0</ele><time>2026-04-30T08:43:54.898Z</time></trkpt><trkpt lat="37.4873291" lon="21.628974"><ele>1.0</ele><time>2026-04-30T08:43:55.898Z</time></trkpt><trkpt lat="37.4874195" lon="21.628778"><ele>1.0</ele><time>2026-04-30T08:43:56.898Z</time></trkpt><trkpt lat="37.4875114" lon="21.6285799"><ele>1.0</ele><time>2026-04-30T08:43:57.897Z</time></trkpt><trkpt lat="37.4876046" lon="21.6283829"><ele>1.0</ele><time>2026-04-30T08:43:58.897Z</time></trkpt><trkpt lat="37.4876987" lon="21.6281841"><ele>1.0</ele><time>2026-04-30T08:43:59.898Z</time></trkpt><trkpt lat="37.4877967" lon="21.627977"><ele>1.0</ele><time>2026-04-30T08:44:00.898Z</time></trkpt><trkpt lat="37.4878954" lon="21.627767"><ele>0.6666666666666666</ele><time>2026-04-30T08:44:01.898Z</time></trkpt><trkpt lat="37.4879965" lon="21.6275549"><ele>0.3333333333333333</ele><time>2026-04-30T08:44:02.897Z</time></trkpt><trkpt lat="37.4881002" lon="21.6273371"><ele>0.0</ele><time>2026-04-30T08:44:03.898Z</time></trkpt><trkpt lat="37.488198" lon="21.627121"><ele>0.3333333333333333</ele><time>2026-04-30T08:44:04.898Z</time></trkpt><trkpt lat="37.4883025" lon="21.6269019"><ele>0.6666666666666666</ele><time>2026-04-30T08:44:05.897Z</time></trkpt><trkpt lat="37.4884097" lon="21.6266775"><ele>1.0</ele><time>2026-04-30T08:44:06.898Z</time></trkpt><trkpt lat="37.4885238" lon="21.626431"><ele>1.0</ele><time>2026-04-30T08:44:07.897Z</time></trkpt><trkpt lat="37.4886306" lon="21.6262098"><ele>1.0</ele><time>2026-04-30T08:44:08.897Z</time></trkpt><trkpt lat="37.4887351" lon="21.6259868"><ele>1.0</ele><time>2026-04-30T08:44:09.898Z</time></trkpt><trkpt lat="37.4888427" lon="21.6257599"><ele>1.3333333333333333</ele><time>2026-04-30T08:44:10.898Z</time></trkpt><trkpt lat="37.4889499" lon="21.6255294"><ele>1.6666666666666665</ele><time>2026-04-30T08:44:11.898Z</time></trkpt><trkpt lat="37.4890625" lon="21.6252985"><ele>2.0</ele><time>2026-04-30T08:44:12.897Z</time></trkpt><trkpt lat="37.4891671" lon="21.6250699"><ele>1.3333333333333333</ele><time>2026-04-30T08:44:13.897Z</time></trkpt><trkpt lat="37.4892714" lon="21.6248428"><ele>0.6666666666666666</ele><time>2026-04-30T08:44:14.898Z</time></trkpt><trkpt lat="37.4893772" lon="21.6246142"><ele>0.0</ele><time>2026-04-30T08:44:15.898Z</time></trkpt><trkpt lat="37.4894866" lon="21.6243782"><ele>0.3333333333333333</ele><time>2026-04-30T08:44:16.897Z</time></trkpt><trkpt lat="37.4895928" lon="21.6241455"><ele>0.6666666666666666</ele><time>2026-04-30T08:44:17.898Z</time></trkpt><trkpt lat="37.4897023" lon="21.6239169"><ele>1.0</ele><time>2026-04-30T08:44:18.897Z</time></trkpt><trkpt lat="37.4898071" lon="21.6236872"><ele>1.3333333333333333</ele><time>2026-04-30T08:44:19.898Z</time></trkpt><trkpt lat="37.489915" lon="21.6234646"><ele>1.6666666666666665</ele><time>2026-04-30T08:44:20.898Z</time></trkpt><trkpt lat="37.4900178" lon="21.6232434"><ele>2.0</ele><time>2026-04-30T08:44:21.897Z</time></trkpt><trkpt lat="37.4901229" lon="21.6230204"><ele>1.6666666666666665</ele><time>2026-04-30T08:44:22.898Z</time></trkpt><trkpt lat="37.490233" lon="21.622805"><ele>1.3333333333333333</ele><time>2026-04-30T08:44:23.897Z</time></trkpt><trkpt lat="37.490331" lon="21.6225894"><ele>1.0</ele><time>2026-04-30T08:44:24.898Z</time></trkpt><trkpt lat="37.4904388" lon="21.6223769"><ele>1.0</ele><time>2026-04-30T08:44:25.897Z</time></trkpt><trkpt lat="37.4905417" lon="21.622152"><ele>1.0</ele><time>2026-04-30T08:44:26.897Z</time></trkpt><trkpt lat="37.4906377" lon="21.6219438"><ele>1.0</ele><time>2026-04-30T08:44:27.897Z</time></trkpt><trkpt lat="37.4907406" lon="21.6217146"><ele>0.6666666666666666</ele><time>2026-04-30T08:44:28.897Z</time></trkpt><trkpt lat="37.4908476" lon="21.6214898"><ele>0.3333333333333333</ele><time>2026-04-30T08:44:29.898Z</time></trkpt><trkpt lat="37.4909579" lon="21.6212529"><ele>0.0</ele><time>2026-04-30T08:44:30.898Z</time></trkpt><trkpt lat="37.4910721" lon="21.6210083"><ele>0.0</ele><time>2026-04-30T08:44:31.898Z</time></trkpt><trkpt lat="37.4911926" lon="21.6207436"><ele>0.0</ele><time>2026-04-30T08:44:32.897Z</time></trkpt><trkpt lat="37.4913102" lon="21.6204957"><ele>-0.5</ele><time>2026-04-30T08:44:33.897Z</time></trkpt><trkpt lat="37.4914267" lon="21.6202558"><ele>-1.0</ele><time>2026-04-30T08:44:34.898Z</time></trkpt><trkpt lat="37.4915453" lon="21.6200127"><ele>-1.0</ele><time>2026-04-30T08:44:35.898Z</time></trkpt><trkpt lat="37.49166" lon="21.6197675"><ele>-1.0</ele><time>2026-04-30T08:44:36.897Z</time></trkpt><trkpt lat="37.4917681" lon="21.6195189"><ele>-0.5</ele><time>2026-04-30T08:44:37.897Z</time></trkpt><trkpt lat="37.491879" lon="21.6192667"><ele>0.0</ele><time>2026-04-30T08:44:38.898Z</time></trkpt><trkpt lat="37.4919965" lon="21.6190175"><ele>0.0</ele><time>2026-04-30T08:44:39.898Z</time></trkpt><trkpt lat="37.4921124" lon="21.6187493"><ele>0.0</ele><time>2026-04-30T08:44:40.898Z</time></trkpt><trkpt lat="37.492233" lon="21.6184933"><ele>0.0</ele><time>2026-04-30T08:44:41.898Z</time></trkpt><trkpt lat="37.4923478" lon="21.6182497"><ele>0.0</ele><time>2026-04-30T08:44:42.897Z</time></trkpt><trkpt lat="37.4924653" lon="21.6180044"><ele>1.5</ele><time>2026-04-30T08:44:43.898Z</time></trkpt><trkpt lat="37.4925814" lon="21.6177589"><ele>3.0</ele><time>2026-04-30T08:44:44.898Z</time></trkpt><trkpt lat="37.4927085" lon="21.6175225"><ele>3.0</ele><time>2026-04-30T08:44:45.897Z</time></trkpt><trkpt lat="37.4928384" lon="21.6172965"><ele>3.0</ele><time>2026-04-30T08:44:46.897Z</time></trkpt><trkpt lat="37.4929838" lon="21.6170713"><ele>1.5</ele><time>2026-04-30T08:44:47.897Z</time></trkpt><trkpt lat="37.4931432" lon="21.6168691"><ele>0.0</ele><time>2026-04-30T08:44:48.897Z</time></trkpt><trkpt lat="37.4933153" lon="21.6166669"><ele>0.0</ele><time>2026-04-30T08:44:49.897Z</time></trkpt><trkpt lat="37.493499" lon="21.6164729"><ele>0.0</ele><time>2026-04-30T08:44:50.897Z</time></trkpt><trkpt lat="37.4936955" lon="21.6162697"><ele>0.5</ele><time>2026-04-30T08:44:51.898Z</time></trkpt><trkpt lat="37.4938946" lon="21.6160825"><ele>1.0</ele><time>2026-04-30T08:44:52.897Z</time></trkpt><trkpt lat="37.494094" lon="21.6158977"><ele>1.0</ele><time>2026-04-30T08:44:53.897Z</time></trkpt><trkpt lat="37.494301" lon="21.6157502"><ele>1.0</ele><time>2026-04-30T08:44:54.898Z</time></trkpt><trkpt lat="37.4944941" lon="21.6155591"><ele>1.0</ele><time>2026-04-30T08:44:55.897Z</time></trkpt><trkpt lat="37.4946896" lon="21.6153672"><ele>1.0</ele><time>2026-04-30T08:44:56.897Z</time></trkpt><trkpt lat="37.4948824" lon="21.6151775"><ele>3.0</ele><time>2026-04-30T08:44:57.897Z</time></trkpt><trkpt lat="37.4950744" lon="21.6149925"><ele>5.0</ele><time>2026-04-30T08:44:58.898Z</time></trkpt><trkpt lat="37.4952657" lon="21.6148088"><ele>4.5</ele><time>2026-04-30T08:44:59.898Z</time></trkpt><trkpt lat="37.4954538" lon="21.6146258"><ele>4.0</ele><time>2026-04-30T08:45:00.897Z</time></trkpt><trkpt lat="37.4956441" lon="21.614445"><ele>5.0</ele><time>2026-04-30T08:45:01.898Z</time></trkpt><trkpt lat="37.49583" lon="21.6142687"><ele>6.0</ele><time>2026-04-30T08:45:02.898Z</time></trkpt><trkpt lat="37.49602" lon="21.6140842"><ele>6.0</ele><time>2026-04-30T08:45:03.897Z</time></trkpt><trkpt lat="37.4962098" lon="21.6139017"><ele>6.0</ele><time>2026-04-30T08:45:04.898Z</time></trkpt><trkpt lat="37.4963992" lon="21.613715"><ele>5.0</ele><time>2026-04-30T08:45:05.898Z</time></trkpt><trkpt lat="37.4965826" lon="21.6135226"><ele>4.0</ele><time>2026-04-30T08:45:06.897Z</time></trkpt><trkpt lat="37.4967596" lon="21.6133226"><ele>4.0</ele><time>2026-04-30T08:45:07.898Z</time></trkpt><trkpt lat="37.4969319" lon="21.613109"><ele>4.0</ele><time>2026-04-30T08:45:08.897Z</time></trkpt><trkpt lat="37.4970995" lon="21.6128899"><ele>3.5</ele><time>2026-04-30T08:45:09.898Z</time></trkpt><trkpt lat="37.497275" lon="21.612669"><ele>3.0</ele><time>2026-04-30T08:45:10.897Z</time></trkpt><trkpt lat="37.4974451" lon="21.6124575"><ele>3.0</ele><time>2026-04-30T08:45:11.898Z</time></trkpt><trkpt lat="37.4976192" lon="21.6122394"><ele>3.0</ele><time>2026-04-30T08:45:12.898Z</time></trkpt><trkpt lat="37.4977962" lon="21.6120338"><ele>3.0</ele><time>2026-04-30T08:45:13.898Z</time></trkpt><trkpt lat="37.4979743" lon="21.6118319"><ele>3.0</ele><time>2026-04-30T08:45:14.897Z</time></trkpt><trkpt lat="37.4981504" lon="21.6116311"><ele>3.0</ele><time>2026-04-30T08:45:15.898Z</time></trkpt><trkpt lat="37.4983353" lon="21.6114421"><ele>3.0</ele><time>2026-04-30T08:45:16.897Z</time></trkpt><trkpt lat="37.4985313" lon="21.6112553"><ele>2.5</ele><time>2026-04-30T08:45:17.898Z</time></trkpt><trkpt lat="37.4987248" lon="21.6110619"><ele>2.0</ele><time>2026-04-30T08:45:18.898Z</time></trkpt><trkpt lat="37.4989211" lon="21.6108559"><ele>2.0</ele><time>2026-04-30T08:45:19.898Z</time></trkpt><trkpt lat="37.4991254" lon="21.610643"><ele>2.0</ele><time>2026-04-30T08:45:20.898Z</time></trkpt><trkpt lat="37.4993326" lon="21.6104242"><ele>3.0</ele><time>2026-04-30T08:45:21.897Z</time></trkpt><trkpt lat="37.4995455" lon="21.6102124"><ele>4.0</ele><time>2026-04-30T08:45:22.898Z</time></trkpt><trkpt lat="37.4997582" lon="21.6100021"><ele>4.0</ele><time>2026-04-30T08:45:23.898Z</time></trkpt><trkpt lat="37.4999709" lon="21.609789"><ele>4.0</ele><time>2026-04-30T08:45:24.897Z</time></trkpt><trkpt lat="37.5001863" lon="21.6095729"><ele>5.0</ele><time>2026-04-30T08:45:25.897Z</time></trkpt><trkpt lat="37.5004045" lon="21.6093514"><ele>6.0</ele><time>2026-04-30T08:45:26.898Z</time></trkpt><trkpt lat="37.5006297" lon="21.6091331"><ele>7.0</ele><time>2026-04-30T08:45:27.898Z</time></trkpt><trkpt lat="37.5008487" lon="21.6089085"><ele>8.0</ele><time>2026-04-30T08:45:28.897Z</time></trkpt><trkpt lat="37.5010765" lon="21.6086795"><ele>7.5</ele><time>2026-04-30T08:45:29.897Z</time></trkpt><trkpt lat="37.5013026" lon="21.608459"><ele>7.0</ele><time>2026-04-30T08:45:30.898Z</time></trkpt><trkpt lat="37.5015268" lon="21.6082345"><ele>7.0</ele><time>2026-04-30T08:45:31.897Z</time></trkpt><trkpt lat="37.5017512" lon="21.6080055"><ele>7.0</ele><time>2026-04-30T08:45:32.897Z</time></trkpt><trkpt lat="37.5019735" lon="21.6077722"><ele>6.5</ele><time>2026-04-30T08:45:33.897Z</time></trkpt><trkpt lat="37.5022" lon="21.6075484"><ele>6.0</ele><time>2026-04-30T08:45:34.898Z</time></trkpt><trkpt lat="37.5024297" lon="21.6073139"><ele>6.0</ele><time>2026-04-30T08:45:35.898Z</time></trkpt><trkpt lat="37.5026649" lon="21.6070707"><ele>6.0</ele><time>2026-04-30T08:45:36.897Z</time></trkpt><trkpt lat="37.5029005" lon="21.606842"><ele>6.5</ele><time>2026-04-30T08:45:37.897Z</time></trkpt><trkpt lat="37.5031295" lon="21.6066033"><ele>7.0</ele><time>2026-04-30T08:45:38.898Z</time></trkpt><trkpt lat="37.503363" lon="21.6063686"><ele>7.5</ele><time>2026-04-30T08:45:39.898Z</time></trkpt><trkpt lat="37.5035937" lon="21.6061383"><ele>8.0</ele><time>2026-04-30T08:45:40.898Z</time></trkpt><trkpt lat="37.5038255" lon="21.6059079"><ele>8.0</ele><time>2026-04-30T08:45:41.898Z</time></trkpt><trkpt lat="37.5040565" lon="21.605679"><ele>8.0</ele><time>2026-04-30T08:45:42.897Z</time></trkpt><trkpt lat="37.5042935" lon="21.6054488"><ele>7.5</ele><time>2026-04-30T08:45:43.898Z</time></trkpt><trkpt lat="37.5045245" lon="21.6052241"><ele>7.0</ele><time>2026-04-30T08:45:44.898Z</time></trkpt><trkpt lat="37.504749" lon="21.6049987"><ele>5.5</ele><time>2026-04-30T08:45:45.897Z</time></trkpt><trkpt lat="37.5049791" lon="21.6047693"><ele>4.0</ele><time>2026-04-30T08:45:46.898Z</time></trkpt><trkpt lat="37.5052158" lon="21.6045441"><ele>4.5</ele><time>2026-04-30T08:45:47.898Z</time></trkpt><trkpt lat="37.5054493" lon="21.6043181"><ele>5.0</ele><time>2026-04-30T08:45:48.897Z</time></trkpt><trkpt lat="37.5056798" lon="21.6040916"><ele>5.0</ele><time>2026-04-30T08:45:49.898Z</time></trkpt><trkpt lat="37.505905" lon="21.6038658"><ele>5.0</ele><time>2026-04-30T08:45:50.897Z</time></trkpt><trkpt lat="37.5061336" lon="21.6036449"><ele>5.5</ele><time>2026-04-30T08:45:51.898Z</time></trkpt><trkpt lat="37.5063518" lon="21.6034116"><ele>6.0</ele><time>2026-04-30T08:45:52.898Z</time></trkpt><trkpt lat="37.5065709" lon="21.6031761"><ele>6.0</ele><time>2026-04-30T08:45:53.898Z</time></trkpt><trkpt lat="37.5067937" lon="21.6029586"><ele>6.0</ele><time>2026-04-30T08:45:54.898Z</time></trkpt><trkpt lat="37.5070162" lon="21.6027343"><ele>7.5</ele><time>2026-04-30T08:45:55.897Z</time></trkpt><trkpt lat="37.5072391" lon="21.6025146"><ele>9.0</ele><time>2026-04-30T08:45:56.898Z</time></trkpt><trkpt lat="37.5074588" lon="21.6023017"><ele>9.0</ele><time>2026-04-30T08:45:57.898Z</time></trkpt><trkpt lat="37.507685" lon="21.602079"><ele>9.0</ele><time>2026-04-30T08:45:58.897Z</time></trkpt><trkpt lat="37.5079047" lon="21.6018645"><ele>7.5</ele><time>2026-04-30T08:45:59.898Z</time></trkpt><trkpt lat="37.5081253" lon="21.6016391"><ele>6.0</ele><time>2026-04-30T08:46:00.897Z</time></trkpt><trkpt lat="37.5083436" lon="21.6014275"><ele>6.0</ele><time>2026-04-30T08:46:01.897Z</time></trkpt><trkpt lat="37.5085612" lon="21.6012053"><ele>6.0</ele><time>2026-04-30T08:46:02.898Z</time></trkpt><trkpt lat="37.5087794" lon="21.6009852"><ele>6.5</ele><time>2026-04-30T08:46:03.898Z</time></trkpt><trkpt lat="37.5090021" lon="21.6007671"><ele>7.0</ele><time>2026-04-30T08:46:04.897Z</time></trkpt><trkpt lat="37.5092232" lon="21.6005396"><ele>7.0</ele><time>2026-04-30T08:46:05.897Z</time></trkpt><trkpt lat="37.5094402" lon="21.600318"><ele>7.0</ele><time>2026-04-30T08:46:06.898Z</time></trkpt><trkpt lat="37.5096593" lon="21.6001022"><ele>7.0</ele><time>2026-04-30T08:46:07.897Z</time></trkpt><trkpt lat="37.5098794" lon="21.5998935"><ele>7.0</ele><time>2026-04-30T08:46:08.897Z</time></trkpt><trkpt lat="37.5100935" lon="21.5996823"><ele>7.0</ele><time>2026-04-30T08:46:09.897Z</time></trkpt><trkpt lat="37.5103086" lon="21.5994567"><ele>7.0</ele><time>2026-04-30T08:46:10.897Z</time></trkpt><trkpt lat="37.5105221" lon="21.5992374"><ele>7.0</ele><time>2026-04-30T08:46:11.897Z</time></trkpt><trkpt lat="37.5107267" lon="21.5990066"><ele>7.0</ele><time>2026-04-30T08:46:12.898Z</time></trkpt><trkpt lat="37.5109246" lon="21.5987689"><ele>7.0</ele><time>2026-04-30T08:46:13.897Z</time></trkpt><trkpt lat="37.5111143" lon="21.5985356"><ele>7.0</ele><time>2026-04-30T08:46:14.897Z</time></trkpt><trkpt lat="37.5112933" lon="21.5983045"><ele>6.5</ele><time>2026-04-30T08:46:15.897Z</time></trkpt><trkpt lat="37.5114719" lon="21.5980721"><ele>6.0</ele><time>2026-04-30T08:46:16.898Z</time></trkpt><trkpt lat="37.5116529" lon="21.5978402"><ele>6.5</ele><time>2026-04-30T08:46:17.898Z</time></trkpt><trkpt lat="37.5118272" lon="21.5976206"><ele>7.0</ele><time>2026-04-30T08:46:18.898Z</time></trkpt><trkpt lat="37.5120008" lon="21.5973964"><ele>6.0</ele><time>2026-04-30T08:46:19.897Z</time></trkpt><trkpt lat="37.5121753" lon="21.5971708"><ele>5.0</ele><time>2026-04-30T08:46:20.897Z</time></trkpt><trkpt lat="37.512351" lon="21.5969396"><ele>4.5</ele><time>2026-04-30T08:46:21.897Z</time></trkpt><trkpt lat="37.5125244" lon="21.5967161"><ele>4.0</ele><time>2026-04-30T08:46:22.898Z</time></trkpt><trkpt lat="37.5126995" lon="21.5964875"><ele>4.0</ele><time>2026-04-30T08:46:23.897Z</time></trkpt><trkpt lat="37.5128758" lon="21.5962579"><ele>4.0</ele><time>2026-04-30T08:46:24.897Z</time></trkpt><trkpt lat="37.5130466" lon="21.5960233"><ele>3.5</ele><time>2026-04-30T08:46:25.898Z</time></trkpt><trkpt lat="37.5132209" lon="21.5957937"><ele>3.0</ele><time>2026-04-30T08:46:26.897Z</time></trkpt><trkpt lat="37.5133972" lon="21.5955674"><ele>3.0</ele><time>2026-04-30T08:46:27.897Z</time></trkpt><trkpt lat="37.5135689" lon="21.5953422"><ele>3.0</ele><time>2026-04-30T08:46:28.897Z</time></trkpt><trkpt lat="37.5137353" lon="21.5951253"><ele>4.0</ele><time>2026-04-30T08:46:29.898Z</time></trkpt><trkpt lat="37.5138957" lon="21.5949265"><ele>5.0</ele><time>2026-04-30T08:46:30.898Z</time></trkpt><trkpt lat="37.5140384" lon="21.5947404"><ele>6.0</ele><time>2026-04-30T08:46:31.898Z</time></trkpt><trkpt lat="37.5141712" lon="21.5945731"><ele>5.666666666666667</ele><time>2026-04-30T08:46:32.897Z</time></trkpt><trkpt lat="37.514294" lon="21.5944233"><ele>5.333333333333334</ele><time>2026-04-30T08:46:33.898Z</time></trkpt><trkpt lat="37.5144101" lon="21.5943019"><ele>5.0</ele><time>2026-04-30T08:46:34.898Z</time></trkpt><trkpt lat="37.5145186" lon="21.5942034"><ele>4.833333333333334</ele><time>2026-04-30T08:46:35.898Z</time></trkpt><trkpt lat="37.5146029" lon="21.5941333"><ele>4.666666666666667</ele><time>2026-04-30T08:46:36.898Z</time></trkpt><trkpt lat="37.5146612" lon="21.5940943"><ele>4.5</ele><time>2026-04-30T08:46:37.897Z</time></trkpt><trkpt lat="37.5147434" lon="21.5940464"><ele>4.333333333333333</ele><time>2026-04-30T08:46:39.898Z</time></trkpt><trkpt lat="37.5147857" lon="21.5939849"><ele>4.166666666666666</ele><time>2026-04-30T08:46:41.898Z</time></trkpt><trkpt lat="37.5147664" lon="21.5938877"><ele>4.0</ele><time>2026-04-30T08:46:43.898Z</time></trkpt><trkpt lat="37.5147452" lon="21.5937907"><ele>4.0</ele><time>2026-04-30T08:46:45.897Z</time></trkpt><trkpt lat="37.5147392" lon="21.5936999"><ele>3.9999999999999996</ele><time>2026-04-30T08:46:47.898Z</time></trkpt><trkpt lat="37.5147155" lon="21.5936118"><ele>4.0</ele><time>2026-04-30T08:46:49.898Z</time></trkpt><trkpt lat="37.514669" lon="21.5935434"><ele>4.0</ele><time>2026-04-30T08:46:51.898Z</time></trkpt><trkpt lat="37.5146228" lon="21.5934843"><ele>3.9999999999999996</ele><time>2026-04-30T08:46:53.898Z</time></trkpt><trkpt lat="37.5145917" lon="21.5934151"><ele>4.0</ele><time>2026-04-30T08:46:55.897Z</time></trkpt><trkpt lat="37.5145465" lon="21.5933033"><ele>4.0</ele><time>2026-04-30T08:46:57.897Z</time></trkpt><trkpt lat="37.514505" lon="21.5932281"><ele>4.285714285714286</ele><time>2026-04-30T08:46:59.898Z</time></trkpt><trkpt lat="37.5145229" lon="21.5933131"><ele>4.571428571428571</ele><time>2026-04-30T08:47:17.898Z</time></trkpt><trkpt lat="37.5145499" lon="21.5933848"><ele>4.857142857142857</ele><time>2026-04-30T08:47:21.897Z</time></trkpt><trkpt lat="37.5145244" lon="21.5933059"><ele>5.142857142857142</ele><time>2026-04-30T08:48:18.897Z</time></trkpt><trkpt lat="37.5144939" lon="21.5932222"><ele>5.428571428571429</ele><time>2026-04-30T08:48:25.897Z</time></trkpt><trkpt lat="37.5145243" lon="21.5933006"><ele>5.7142857142857135</ele><time>2026-04-30T08:49:06.898Z</time></trkpt><trkpt lat="37.5145465" lon="21.5933781"><ele>6.0</ele><time>2026-04-30T08:49:13.898Z</time></trkpt><trkpt lat="37.5145795" lon="21.5934572"><ele>6.0</ele><time>2026-04-30T08:49:19.883Z</time></trkpt><trkpt lat="37.5146404" lon="21.5935222"><ele>6.0</ele><time>2026-04-30T08:49:33.897Z</time></trkpt><trkpt lat="37.5145784" lon="21.5934707"><ele>6.0</ele><time>2026-04-30T08:49:47.879Z</time></trkpt><trkpt lat="37.5145526" lon="21.5933912"><ele>6.0</ele><time>2026-04-30T08:49:53.898Z</time></trkpt><trkpt lat="37.5145321" lon="21.5933029"><ele>6.0</ele><time>2026-04-30T08:50:00.898Z</time></trkpt><trkpt lat="37.5144966" lon="21.5932275"><ele>6.0</ele><time>2026-04-30T08:50:55.898Z</time></trkpt><trkpt lat="37.5144551" lon="21.5931032"><ele>5.0</ele><time>2026-04-30T08:51:09.165Z</time></trkpt><trkpt lat="37.5144089" lon="21.592998"><ele>3.9999999999999996</ele><time>2026-04-30T08:51:11.391Z</time></trkpt><trkpt lat="37.5143796" lon="21.5928974"><ele>3.0</ele><time>2026-04-30T08:51:13.891Z</time></trkpt><trkpt lat="37.5142236" lon="21.5928101"><ele>2.0</ele><time>2026-04-30T08:51:15.891Z</time></trkpt><trkpt lat="37.5141578" lon="21.5928306"><ele>1.0</ele><time>2026-04-30T08:51:19.891Z</time></trkpt><trkpt lat="37.5142474" lon="21.592897"><ele>0.9999999999999999</ele><time>2026-04-30T08:51:24.892Z</time></trkpt><trkpt lat="37.5143173" lon="21.5929838"><ele>1.0</ele><time>2026-04-30T08:51:26.892Z</time></trkpt><trkpt lat="37.5143859" lon="21.5930774"><ele>1.0</ele><time>2026-04-30T08:51:28.891Z</time></trkpt><trkpt lat="37.5144292" lon="21.5931534"><ele>1.0</ele><time>2026-04-30T08:51:30.892Z</time></trkpt><trkpt lat="37.5144675" lon="21.5932407"><ele>0.9999999999999999</ele><time>2026-04-30T08:51:57.892Z</time></trkpt><trkpt lat="37.5145131" lon="21.5933315"><ele>1.0</ele><time>2026-04-30T08:52:00.892Z</time></trkpt><trkpt lat="37.5145516" lon="21.5934091"><ele>1.5</ele><time>2026-04-30T08:52:02.892Z</time></trkpt><trkpt lat="37.5146014" lon="21.5934935"><ele>2.0</ele><time>2026-04-30T08:52:04.892Z</time></trkpt><trkpt lat="37.5146443" lon="21.5935528"><ele>2.5</ele><time>2026-04-30T08:52:05.892Z</time></trkpt><trkpt lat="37.5147244" lon="21.593649"><ele>3.0</ele><time>2026-04-30T08:52:07.892Z</time></trkpt><trkpt lat="37.5147727" lon="21.5937091"><ele>3.4999999999999996</ele><time>2026-04-30T08:56:31.891Z</time></trkpt><trkpt lat="37.5147613" lon="21.5938052"><ele>4.0</ele><time>2026-04-30T09:01:01.899Z</time></trkpt><trkpt lat="37.5147709" lon="21.5938998"><ele>3.9999999999999996</ele><time>2026-04-30T09:01:04.899Z</time></trkpt><trkpt lat="37.5148308" lon="21.5939713"><ele>4.0</ele><time>2026-04-30T09:01:20.898Z</time></trkpt><trkpt lat="37.5149185" lon="21.5939754"><ele>4.0</ele><time>2026-04-30T09:01:22.898Z</time></trkpt><trkpt lat="37.5150326" lon="21.5939364"><ele>4.0</ele><time>2026-04-30T09:01:24.899Z</time></trkpt><trkpt lat="37.5150942" lon="21.5939165"><ele>3.9999999999999996</ele><time>2026-04-30T09:01:25.899Z</time></trkpt><trkpt lat="37.5151562" lon="21.5938966"><ele>4.0</ele><time>2026-04-30T09:01:26.899Z</time></trkpt><trkpt lat="37.5152194" lon="21.5938769"><ele>3.9999999999999996</ele><time>2026-04-30T09:01:27.898Z</time></trkpt><trkpt lat="37.5152845" lon="21.5938617"><ele>4.0</ele><time>2026-04-30T09:01:28.898Z</time></trkpt><trkpt lat="37.515356" lon="21.593845"><ele>4.0</ele><time>2026-04-30T09:01:29.899Z</time></trkpt><trkpt lat="37.5154307" lon="21.5938249"><ele>4.0</ele><time>2026-04-30T09:01:30.899Z</time></trkpt><trkpt lat="37.5155116" lon="21.593804"><ele>3.9999999999999996</ele><time>2026-04-30T09:01:31.898Z</time></trkpt><trkpt lat="37.5155987" lon="21.593782"><ele>4.0</ele><time>2026-04-30T09:01:32.899Z</time></trkpt><trkpt lat="37.515688" lon="21.593759"><ele>4.2</ele><time>2026-04-30T09:01:33.898Z</time></trkpt><trkpt lat="37.515777" lon="21.5937303"><ele>4.4</ele><time>2026-04-30T09:01:34.899Z</time></trkpt><trkpt lat="37.5158642" lon="21.593707"><ele>4.6</ele><time>2026-04-30T09:01:35.899Z</time></trkpt><trkpt lat="37.5159542" lon="21.5936848"><ele>4.8</ele><time>2026-04-30T09:01:36.898Z</time></trkpt><trkpt lat="37.5160445" lon="21.5936604"><ele>5.0</ele><time>2026-04-30T09:01:37.899Z</time></trkpt><trkpt lat="37.5161338" lon="21.5936365"><ele>4.833333333333334</ele><time>2026-04-30T09:01:38.899Z</time></trkpt><trkpt lat="37.5162203" lon="21.5936123"><ele>4.666666666666667</ele><time>2026-04-30T09:01:39.898Z</time></trkpt><trkpt lat="37.5163064" lon="21.5935905"><ele>4.5</ele><time>2026-04-30T09:01:40.899Z</time></trkpt><trkpt lat="37.5163903" lon="21.5935669"><ele>4.333333333333333</ele><time>2026-04-30T09:01:41.898Z</time></trkpt><trkpt lat="37.5164709" lon="21.5935464"><ele>4.166666666666666</ele><time>2026-04-30T09:01:42.898Z</time></trkpt><trkpt lat="37.5165504" lon="21.5935246"><ele>4.0</ele><time>2026-04-30T09:01:43.899Z</time></trkpt><trkpt lat="37.5166327" lon="21.5935049"><ele>3.9999999999999996</ele><time>2026-04-30T09:01:44.899Z</time></trkpt><trkpt lat="37.5167162" lon="21.5934845"><ele>4.0</ele><time>2026-04-30T09:01:45.898Z</time></trkpt><trkpt lat="37.516801" lon="21.5934629"><ele>4.0</ele><time>2026-04-30T09:01:46.899Z</time></trkpt><trkpt lat="37.5168833" lon="21.5934413"><ele>4.0</ele><time>2026-04-30T09:01:47.899Z</time></trkpt><trkpt lat="37.5169686" lon="21.5934184"><ele>3.9999999999999996</ele><time>2026-04-30T09:01:48.899Z</time></trkpt><trkpt lat="37.5170567" lon="21.5933966"><ele>4.0</ele><time>2026-04-30T09:01:49.898Z</time></trkpt><trkpt lat="37.5171434" lon="21.5933731"><ele>3.4999999999999996</ele><time>2026-04-30T09:01:50.899Z</time></trkpt><trkpt lat="37.5172296" lon="21.5933509"><ele>3.0</ele><time>2026-04-30T09:01:51.899Z</time></trkpt><trkpt lat="37.5173163" lon="21.5933277"><ele>2.5</ele><time>2026-04-30T09:01:52.898Z</time></trkpt><trkpt lat="37.5174022" lon="21.5933033"><ele>2.0</ele><time>2026-04-30T09:01:53.898Z</time></trkpt><trkpt lat="37.5174878" lon="21.5932813"><ele>1.5</ele><time>2026-04-30T09:01:54.899Z</time></trkpt><trkpt lat="37.5175732" lon="21.5932591"><ele>1.0</ele><time>2026-04-30T09:01:55.898Z</time></trkpt><trkpt lat="37.5176595" lon="21.5932314"><ele>0.9999999999999999</ele><time>2026-04-30T09:01:56.899Z</time></trkpt><trkpt lat="37.5177455" lon="21.5932084"><ele>1.0</ele><time>2026-04-30T09:01:57.899Z</time></trkpt><trkpt lat="37.517831" lon="21.5931838"><ele>1.0</ele><time>2026-04-30T09:01:58.899Z</time></trkpt><trkpt lat="37.517918" lon="21.5931634"><ele>1.0</ele><time>2026-04-30T09:01:59.899Z</time></trkpt><trkpt lat="37.5180058" lon="21.593141"><ele>0.9999999999999999</ele><time>2026-04-30T09:02:00.899Z</time></trkpt><trkpt lat="37.5180961" lon="21.5931186"><ele>1.0</ele><time>2026-04-30T09:02:01.898Z</time></trkpt><trkpt lat="37.5181823" lon="21.5930944"><ele>1.0</ele><time>2026-04-30T09:02:02.899Z</time></trkpt><trkpt lat="37.5182715" lon="21.5930679"><ele>1.0</ele><time>2026-04-30T09:02:03.899Z</time></trkpt><trkpt lat="37.5183614" lon="21.5930482"><ele>1.0</ele><time>2026-04-30T09:02:04.899Z</time></trkpt><trkpt lat="37.5184527" lon="21.5930213"><ele>1.0</ele><time>2026-04-30T09:02:05.899Z</time></trkpt><trkpt lat="37.5185437" lon="21.5929987"><ele>1.0</ele><time>2026-04-30T09:02:06.899Z</time></trkpt><trkpt lat="37.5186371" lon="21.5929744"><ele>1.0</ele><time>2026-04-30T09:02:07.899Z</time></trkpt><trkpt lat="37.5187302" lon="21.5929511"><ele>1.0</ele><time>2026-04-30T09:02:08.899Z</time></trkpt><trkpt lat="37.5188223" lon="21.5929264"><ele>1.0</ele><time>2026-04-30T09:02:09.899Z</time></trkpt><trkpt lat="37.5189238" lon="21.5929019"><ele>1.0</ele><time>2026-04-30T09:02:10.899Z</time></trkpt><trkpt lat="37.5190263" lon="21.5928785"><ele>1.0</ele><time>2026-04-30T09:02:11.899Z</time></trkpt><trkpt lat="37.5191262" lon="21.5928523"><ele>1.2000000000000002</ele><time>2026-04-30T09:02:12.898Z</time></trkpt><trkpt lat="37.519231" lon="21.5928163"><ele>1.4000000000000001</ele><time>2026-04-30T09:02:13.898Z</time></trkpt><trkpt lat="37.5193386" lon="21.5927917"><ele>1.6</ele><time>2026-04-30T09:02:14.898Z</time></trkpt><trkpt lat="37.5194477" lon="21.592768"><ele>1.8</ele><time>2026-04-30T09:02:15.898Z</time></trkpt><trkpt lat="37.5195528" lon="21.592738"><ele>2.0</ele><time>2026-04-30T09:02:16.898Z</time></trkpt><trkpt lat="37.5196552" lon="21.5927067"><ele>2.0</ele><time>2026-04-30T09:02:17.899Z</time></trkpt><trkpt lat="37.519759" lon="21.5926753"><ele>2.0</ele><time>2026-04-30T09:02:18.899Z</time></trkpt><trkpt lat="37.5198659" lon="21.5926471"><ele>2.0</ele><time>2026-04-30T09:02:19.899Z</time></trkpt><trkpt lat="37.5199711" lon="21.5926219"><ele>2.0</ele><time>2026-04-30T09:02:20.899Z</time></trkpt><trkpt lat="37.5200776" lon="21.5925938"><ele>2.0</ele><time>2026-04-30T09:02:21.899Z</time></trkpt><trkpt lat="37.5201803" lon="21.5925622"><ele>2.0</ele><time>2026-04-30T09:02:22.899Z</time></trkpt><trkpt lat="37.5202898" lon="21.5925319"><ele>2.0</ele><time>2026-04-30T09:02:23.899Z</time></trkpt><trkpt lat="37.5203961" lon="21.5925089"><ele>2.0</ele><time>2026-04-30T09:02:24.899Z</time></trkpt><trkpt lat="37.5205078" lon="21.592482"><ele>2.0</ele><time>2026-04-30T09:02:25.899Z</time></trkpt><trkpt lat="37.5206308" lon="21.5924433"><ele>2.0</ele><time>2026-04-30T09:02:26.899Z</time></trkpt><trkpt lat="37.5207446" lon="21.5924115"><ele>2.0</ele><time>2026-04-30T09:02:27.898Z</time></trkpt><trkpt lat="37.5208593" lon="21.5923796"><ele>2.0</ele><time>2026-04-30T09:02:28.898Z</time></trkpt><trkpt lat="37.5209777" lon="21.5923493"><ele>2.0</ele><time>2026-04-30T09:02:29.899Z</time></trkpt><trkpt lat="37.5211063" lon="21.5923235"><ele>1.75</ele><time>2026-04-30T09:02:30.899Z</time></trkpt><trkpt lat="37.5212372" lon="21.5922981"><ele>1.5</ele><time>2026-04-30T09:02:31.898Z</time></trkpt><trkpt lat="37.5213656" lon="21.592273"><ele>1.25</ele><time>2026-04-30T09:02:32.899Z</time></trkpt><trkpt lat="37.5214957" lon="21.592253"><ele>1.0</ele><time>2026-04-30T09:02:33.899Z</time></trkpt><trkpt lat="37.5216355" lon="21.592229"><ele>1.0</ele><time>2026-04-30T09:02:34.899Z</time></trkpt><trkpt lat="37.5217692" lon="21.5922233"><ele>1.0</ele><time>2026-04-30T09:02:35.898Z</time></trkpt><trkpt lat="37.5219075" lon="21.5922118"><ele>1.0</ele><time>2026-04-30T09:02:36.898Z</time></trkpt><trkpt lat="37.522053" lon="21.5922053"><ele>1.0</ele><time>2026-04-30T09:02:37.898Z</time></trkpt><trkpt lat="37.5222066" lon="21.5922007"><ele>0.6666666666666666</ele><time>2026-04-30T09:02:38.899Z</time></trkpt><trkpt lat="37.5223591" lon="21.5921971"><ele>0.3333333333333333</ele><time>2026-04-30T09:02:39.899Z</time></trkpt><trkpt lat="37.5225135" lon="21.5922069"><ele>0.0</ele><time>2026-04-30T09:02:40.898Z</time></trkpt><trkpt lat="37.5226692" lon="21.5922185"><ele>0.0</ele><time>2026-04-30T09:02:41.899Z</time></trkpt><trkpt lat="37.5228289" lon="21.5922362"><ele>0.0</ele><time>2026-04-30T09:02:42.899Z</time></trkpt><trkpt lat="37.5229862" lon="21.5922583"><ele>0.0</ele><time>2026-04-30T09:02:43.899Z</time></trkpt><trkpt lat="37.5231399" lon="21.5922942"><ele>0.6666666666666666</ele><time>2026-04-30T09:02:44.898Z</time></trkpt><trkpt lat="37.5232988" lon="21.5923189"><ele>1.3333333333333333</ele><time>2026-04-30T09:02:45.899Z</time></trkpt><trkpt lat="37.5234597" lon="21.5923441"><ele>2.0</ele><time>2026-04-30T09:02:46.899Z</time></trkpt><trkpt lat="37.5236178" lon="21.5923703"><ele>2.0</ele><time>2026-04-30T09:02:47.899Z</time></trkpt><trkpt lat="37.5237763" lon="21.5923972"><ele>2.0</ele><time>2026-04-30T09:02:48.899Z</time></trkpt><trkpt lat="37.5239376" lon="21.5924268"><ele>2.0</ele><time>2026-04-30T09:02:49.899Z</time></trkpt><trkpt lat="37.5241" lon="21.5924551"><ele>2.0</ele><time>2026-04-30T09:02:50.899Z</time></trkpt><trkpt lat="37.524265" lon="21.5924861"><ele>2.0</ele><time>2026-04-30T09:02:51.899Z</time></trkpt><trkpt lat="37.5244328" lon="21.5925147"><ele>2.0</ele><time>2026-04-30T09:02:52.899Z</time></trkpt><trkpt lat="37.5246073" lon="21.5925376"><ele>4.0</ele><time>2026-04-30T09:02:53.898Z</time></trkpt><trkpt lat="37.5247805" lon="21.592566"><ele>6.0</ele><time>2026-04-30T09:02:54.899Z</time></trkpt><trkpt lat="37.5249535" lon="21.5925946"><ele>8.0</ele><time>2026-04-30T09:02:55.899Z</time></trkpt><trkpt lat="37.5251278" lon="21.5926251"><ele>8.0</ele><time>2026-04-30T09:02:56.899Z</time></trkpt><trkpt lat="37.5252995" lon="21.5926522"><ele>8.0</ele><time>2026-04-30T09:02:57.898Z</time></trkpt><trkpt lat="37.5254765" lon="21.5926823"><ele>8.0</ele><time>2026-04-30T09:02:58.899Z</time></trkpt><trkpt lat="37.525655" lon="21.5927109"><ele>7.0</ele><time>2026-04-30T09:02:59.898Z</time></trkpt><trkpt lat="37.5258324" lon="21.5927388"><ele>6.0</ele><time>2026-04-30T09:03:00.898Z</time></trkpt><trkpt lat="37.526009" lon="21.5927688"><ele>5.0</ele><time>2026-04-30T09:03:01.899Z</time></trkpt><trkpt lat="37.526183" lon="21.5927989"><ele>5.0</ele><time>2026-04-30T09:03:02.899Z</time></trkpt><trkpt lat="37.5263591" lon="21.5928297"><ele>5.0</ele><time>2026-04-30T09:03:03.899Z</time></trkpt><trkpt lat="37.5265371" lon="21.5928591"><ele>5.0</ele><time>2026-04-30T09:03:04.899Z</time></trkpt><trkpt lat="37.5267133" lon="21.5928927"><ele>5.0</ele><time>2026-04-30T09:03:05.898Z</time></trkpt><trkpt lat="37.5268952" lon="21.5929188"><ele>5.0</ele><time>2026-04-30T09:03:06.899Z</time></trkpt><trkpt lat="37.5270829" lon="21.5929481"><ele>5.0</ele><time>2026-04-30T09:03:07.899Z</time></trkpt><trkpt lat="37.5272615" lon="21.5929828"><ele>5.0</ele><time>2026-04-30T09:03:08.898Z</time></trkpt><trkpt lat="37.5274439" lon="21.5930182"><ele>5.0</ele><time>2026-04-30T09:03:09.899Z</time></trkpt><trkpt lat="37.5276225" lon="21.5930511"><ele>5.0</ele><time>2026-04-30T09:03:10.899Z</time></trkpt><trkpt lat="37.527816" lon="21.5930846"><ele>5.333333333333334</ele><time>2026-04-30T09:03:11.898Z</time></trkpt><trkpt lat="37.5280027" lon="21.593121"><ele>5.666666666666667</ele><time>2026-04-30T09:03:12.899Z</time></trkpt><trkpt lat="37.5281815" lon="21.5931531"><ele>6.0</ele><time>2026-04-30T09:03:13.899Z</time></trkpt><trkpt lat="37.5283591" lon="21.5931812"><ele>6.0</ele><time>2026-04-30T09:03:14.899Z</time></trkpt><trkpt lat="37.5285381" lon="21.5932112"><ele>6.0</ele><time>2026-04-30T09:03:15.899Z</time></trkpt><trkpt lat="37.5287131" lon="21.5932468"><ele>6.0</ele><time>2026-04-30T09:03:16.898Z</time></trkpt><trkpt lat="37.5288961" lon="21.5932689"><ele>6.0</ele><time>2026-04-30T09:03:17.899Z</time></trkpt><trkpt lat="37.5290686" lon="21.5932894"><ele>6.0</ele><time>2026-04-30T09:03:18.899Z</time></trkpt><trkpt lat="37.5292506" lon="21.5933051"><ele>6.0</ele><time>2026-04-30T09:03:19.898Z</time></trkpt><trkpt lat="37.5294372" lon="21.5933237"><ele>7.0</ele><time>2026-04-30T09:03:20.898Z</time></trkpt><trkpt lat="37.5296267" lon="21.5933344"><ele>8.0</ele><time>2026-04-30T09:03:21.899Z</time></trkpt><trkpt lat="37.529819" lon="21.5933434"><ele>9.0</ele><time>2026-04-30T09:03:22.898Z</time></trkpt><trkpt lat="37.5300133" lon="21.5933602"><ele>9.0</ele><time>2026-04-30T09:03:23.898Z</time></trkpt><trkpt lat="37.5301983" lon="21.5933704"><ele>9.0</ele><time>2026-04-30T09:03:24.899Z</time></trkpt><trkpt lat="37.5303925" lon="21.5933836"><ele>9.0</ele><time>2026-04-30T09:03:25.899Z</time></trkpt><trkpt lat="37.5305856" lon="21.5933989"><ele>9.666666666666666</ele><time>2026-04-30T09:03:26.899Z</time></trkpt><trkpt lat="37.5307798" lon="21.5934135"><ele>10.333333333333332</ele><time>2026-04-30T09:03:27.898Z</time></trkpt><trkpt lat="37.5309781" lon="21.593424"><ele>11.0</ele><time>2026-04-30T09:03:28.899Z</time></trkpt><trkpt lat="37.531164" lon="21.5934415"><ele>9.666666666666666</ele><time>2026-04-30T09:03:29.898Z</time></trkpt><trkpt lat="37.5313541" lon="21.5934572"><ele>8.333333333333334</ele><time>2026-04-30T09:03:30.898Z</time></trkpt><trkpt lat="37.5315526" lon="21.5934717"><ele>7.0</ele><time>2026-04-30T09:03:31.898Z</time></trkpt><trkpt lat="37.5317366" lon="21.5934794"><ele>7.0</ele><time>2026-04-30T09:03:32.899Z</time></trkpt><trkpt lat="37.5319297" lon="21.5934905"><ele>7.0</ele><time>2026-04-30T09:03:33.899Z</time></trkpt><trkpt lat="37.5321206" lon="21.5935113"><ele>7.0</ele><time>2026-04-30T09:03:34.899Z</time></trkpt><trkpt lat="37.5323069" lon="21.5935205"><ele>8.333333333333334</ele><time>2026-04-30T09:03:35.898Z</time></trkpt><trkpt lat="37.5324935" lon="21.5935297"><ele>9.666666666666666</ele><time>2026-04-30T09:03:36.899Z</time></trkpt><trkpt lat="37.532687" lon="21.5935334"><ele>11.0</ele><time>2026-04-30T09:03:37.899Z</time></trkpt><trkpt lat="37.5328742" lon="21.5935379"><ele>12.0</ele><time>2026-04-30T09:03:38.899Z</time></trkpt><trkpt lat="37.533074" lon="21.5935396"><ele>13.0</ele><time>2026-04-30T09:03:39.899Z</time></trkpt><trkpt lat="37.5332623" lon="21.5935375"><ele>14.0</ele><time>2026-04-30T09:03:40.898Z</time></trkpt><trkpt lat="37.533466" lon="21.5935427"><ele>14.0</ele><time>2026-04-30T09:03:41.898Z</time></trkpt><trkpt lat="37.5336497" lon="21.5935337"><ele>14.0</ele><time>2026-04-30T09:03:42.899Z</time></trkpt><trkpt lat="37.5338425" lon="21.5935278"><ele>14.0</ele><time>2026-04-30T09:03:43.899Z</time></trkpt><trkpt lat="37.5340403" lon="21.5935218"><ele>13.333333333333334</ele><time>2026-04-30T09:03:44.898Z</time></trkpt><trkpt lat="37.5342362" lon="21.593519"><ele>12.666666666666668</ele><time>2026-04-30T09:03:45.899Z</time></trkpt><trkpt lat="37.5344331" lon="21.5935222"><ele>12.0</ele><time>2026-04-30T09:03:46.898Z</time></trkpt><trkpt lat="37.5346296" lon="21.5935185"><ele>13.666666666666668</ele><time>2026-04-30T09:03:47.898Z</time></trkpt><trkpt lat="37.5348182" lon="21.5935181"><ele>15.333333333333334</ele><time>2026-04-30T09:03:48.899Z</time></trkpt><trkpt lat="37.5350115" lon="21.5935105"><ele>17.0</ele><time>2026-04-30T09:03:49.898Z</time></trkpt><trkpt lat="37.5351991" lon="21.5935081"><ele>18.333333333333336</ele><time>2026-04-30T09:03:50.898Z</time></trkpt><trkpt lat="37.5353895" lon="21.5935104"><ele>19.666666666666668</ele><time>2026-04-30T09:03:51.898Z</time></trkpt><trkpt lat="37.5355828" lon="21.5935089"><ele>21.0</ele><time>2026-04-30T09:03:52.899Z</time></trkpt><trkpt lat="37.5357742" lon="21.5935254"><ele>21.0</ele><time>2026-04-30T09:03:53.899Z</time></trkpt><trkpt lat="37.53598" lon="21.5935254"><ele>21.0</ele><time>2026-04-30T09:03:54.898Z</time></trkpt><trkpt lat="37.5361605" lon="21.5935482"><ele>21.0</ele><time>2026-04-30T09:03:55.898Z</time></trkpt><trkpt lat="37.5363388" lon="21.5935965"><ele>22.666666666666664</ele><time>2026-04-30T09:03:56.899Z</time></trkpt><trkpt lat="37.5365111" lon="21.5936788"><ele>24.333333333333332</ele><time>2026-04-30T09:03:57.899Z</time></trkpt><trkpt lat="37.5366521" lon="21.5937847"><ele>26.0</ele><time>2026-04-30T09:03:58.898Z</time></trkpt><trkpt lat="37.5368001" lon="21.5939116"><ele>26.0</ele><time>2026-04-30T09:03:59.899Z</time></trkpt><trkpt lat="37.5369394" lon="21.5940638"><ele>26.0</ele><time>2026-04-30T09:04:00.899Z</time></trkpt><trkpt lat="37.5370755" lon="21.5942358"><ele>26.0</ele><time>2026-04-30T09:04:01.898Z</time></trkpt><trkpt lat="37.537215" lon="21.59441"><ele>25.333333333333332</ele><time>2026-04-30T09:04:02.899Z</time></trkpt><trkpt lat="37.537358" lon="21.5945883"><ele>24.666666666666664</ele><time>2026-04-30T09:04:03.898Z</time></trkpt><trkpt lat="37.5374966" lon="21.594759"><ele>24.0</ele><time>2026-04-30T09:04:04.899Z</time></trkpt><trkpt lat="37.5376313" lon="21.59493"><ele>24.0</ele><time>2026-04-30T09:04:05.899Z</time></trkpt><trkpt lat="37.5377621" lon="21.5950975"><ele>24.0</ele><time>2026-04-30T09:04:06.898Z</time></trkpt><trkpt lat="37.5378943" lon="21.5952711"><ele>24.0</ele><time>2026-04-30T09:04:07.899Z</time></trkpt><trkpt lat="37.5380305" lon="21.5954374"><ele>21.333333333333332</ele><time>2026-04-30T09:04:08.899Z</time></trkpt><trkpt lat="37.5381628" lon="21.5956091"><ele>18.666666666666664</ele><time>2026-04-30T09:04:09.898Z</time></trkpt><trkpt lat="37.5383047" lon="21.5957793"><ele>16.0</ele><time>2026-04-30T09:04:10.898Z</time></trkpt><trkpt lat="37.5384428" lon="21.5959598"><ele>16.0</ele><time>2026-04-30T09:04:11.899Z</time></trkpt><trkpt lat="37.538576" lon="21.5961364"><ele>16.0</ele><time>2026-04-30T09:04:12.898Z</time></trkpt><trkpt lat="37.5387144" lon="21.5963166"><ele>16.0</ele><time>2026-04-30T09:04:13.899Z</time></trkpt><trkpt lat="37.5388509" lon="21.5964891"><ele>13.333333333333332</ele><time>2026-04-30T09:04:14.898Z</time></trkpt><trkpt lat="37.5389899" lon="21.596651"><ele>10.666666666666666</ele><time>2026-04-30T09:04:15.898Z</time></trkpt><trkpt lat="37.5391333" lon="21.5968055"><ele>8.0</ele><time>2026-04-30T09:04:16.899Z</time></trkpt><trkpt lat="37.5392856" lon="21.5969432"><ele>8.666666666666666</ele><time>2026-04-30T09:04:17.898Z</time></trkpt><trkpt lat="37.5394516" lon="21.5970672"><ele>9.333333333333334</ele><time>2026-04-30T09:04:18.897Z</time></trkpt><trkpt lat="37.5396275" lon="21.5971662"><ele>10.0</ele><time>2026-04-30T09:04:19.898Z</time></trkpt><trkpt lat="37.5398082" lon="21.597244"><ele>10.0</ele><time>2026-04-30T09:04:20.898Z</time></trkpt><trkpt lat="37.5399894" lon="21.5973047"><ele>10.0</ele><time>2026-04-30T09:04:21.898Z</time></trkpt><trkpt lat="37.5401749" lon="21.5973438"><ele>10.0</ele><time>2026-04-30T09:04:22.899Z</time></trkpt><trkpt lat="37.5403657" lon="21.5973609"><ele>9.0</ele><time>2026-04-30T09:04:23.898Z</time></trkpt><trkpt lat="37.5405573" lon="21.5973649"><ele>8.0</ele><time>2026-04-30T09:04:24.899Z</time></trkpt><trkpt lat="37.5407545" lon="21.5973613"><ele>7.0</ele><time>2026-04-30T09:04:25.898Z</time></trkpt><trkpt lat="37.5409514" lon="21.5973507"><ele>7.0</ele><time>2026-04-30T09:04:26.898Z</time></trkpt><trkpt lat="37.5411506" lon="21.597338"><ele>7.0</ele><time>2026-04-30T09:04:27.899Z</time></trkpt><trkpt lat="37.5413463" lon="21.5972992"><ele>7.0</ele><time>2026-04-30T09:04:28.899Z</time></trkpt><trkpt lat="37.5415428" lon="21.5972857"><ele>7.333333333333334</ele><time>2026-04-30T09:04:29.898Z</time></trkpt><trkpt lat="37.5417402" lon="21.5972728"><ele>7.666666666666666</ele><time>2026-04-30T09:04:30.898Z</time></trkpt><trkpt lat="37.5419372" lon="21.5972518"><ele>8.0</ele><time>2026-04-30T09:04:31.898Z</time></trkpt><trkpt lat="37.5421325" lon="21.5972317"><ele>8.0</ele><time>2026-04-30T09:04:32.898Z</time></trkpt><trkpt lat="37.5423293" lon="21.5972192"><ele>8.0</ele><time>2026-04-30T09:04:33.899Z</time></trkpt><trkpt lat="37.5425218" lon="21.5972004"><ele>8.0</ele><time>2026-04-30T09:04:34.899Z</time></trkpt><trkpt lat="37.5427192" lon="21.5971842"><ele>8.333333333333332</ele><time>2026-04-30T09:04:35.899Z</time></trkpt><trkpt lat="37.5429071" lon="21.5971688"><ele>8.666666666666666</ele><time>2026-04-30T09:04:36.898Z</time></trkpt><trkpt lat="37.5431011" lon="21.5971657"><ele>9.0</ele><time>2026-04-30T09:04:37.898Z</time></trkpt><trkpt lat="37.5432887" lon="21.5971623"><ele>9.0</ele><time>2026-04-30T09:04:38.899Z</time></trkpt><trkpt lat="37.5434691" lon="21.5971505"><ele>9.0</ele><time>2026-04-30T09:04:39.899Z</time></trkpt><trkpt lat="37.5436502" lon="21.597132"><ele>9.0</ele><time>2026-04-30T09:04:40.899Z</time></trkpt><trkpt lat="37.5438363" lon="21.5971151"><ele>11.0</ele><time>2026-04-30T09:04:41.898Z</time></trkpt><trkpt lat="37.5440259" lon="21.5970999"><ele>13.0</ele><time>2026-04-30T09:04:42.898Z</time></trkpt><trkpt lat="37.5442176" lon="21.59708"><ele>15.0</ele><time>2026-04-30T09:04:43.899Z</time></trkpt><trkpt lat="37.5444066" lon="21.5970664"><ele>16.0</ele><time>2026-04-30T09:04:44.899Z</time></trkpt><trkpt lat="37.5446058" lon="21.5970431"><ele>17.0</ele><time>2026-04-30T09:04:45.899Z</time></trkpt><trkpt lat="37.5447991" lon="21.5970309"><ele>18.0</ele><time>2026-04-30T09:04:46.899Z</time></trkpt><trkpt lat="37.5449901" lon="21.5970178"><ele>15.666666666666666</ele><time>2026-04-30T09:04:47.898Z</time></trkpt><trkpt lat="37.5451814" lon="21.5970007"><ele>13.333333333333332</ele><time>2026-04-30T09:04:48.899Z</time></trkpt><trkpt lat="37.5453795" lon="21.5969795"><ele>11.0</ele><time>2026-04-30T09:04:49.899Z</time></trkpt><trkpt lat="37.5455679" lon="21.5969656"><ele>10.666666666666666</ele><time>2026-04-30T09:04:50.899Z</time></trkpt><trkpt lat="37.5457643" lon="21.5969532"><ele>10.333333333333334</ele><time>2026-04-30T09:04:51.899Z</time></trkpt><trkpt lat="37.5459577" lon="21.596939"><ele>10.0</ele><time>2026-04-30T09:04:52.899Z</time></trkpt><trkpt lat="37.5461459" lon="21.5969269"><ele>11.0</ele><time>2026-04-30T09:04:53.899Z</time></trkpt><trkpt lat="37.5463336" lon="21.5969166"><ele>12.0</ele><time>2026-04-30T09:04:54.898Z</time></trkpt><trkpt lat="37.5465207" lon="21.5969118"><ele>13.0</ele><time>2026-04-30T09:04:55.899Z</time></trkpt><trkpt lat="37.5467089" lon="21.5968958"><ele>13.0</ele><time>2026-04-30T09:04:56.898Z</time></trkpt><trkpt lat="37.5468938" lon="21.5968809"><ele>13.0</ele><time>2026-04-30T09:04:57.899Z</time></trkpt><trkpt lat="37.5470738" lon="21.5968673"><ele>13.0</ele><time>2026-04-30T09:04:58.899Z</time></trkpt><trkpt lat="37.5472527" lon="21.5968741"><ele>16.0</ele><time>2026-04-30T09:04:59.899Z</time></trkpt><trkpt lat="37.5474258" lon="21.5968733"><ele>19.0</ele><time>2026-04-30T09:05:00.898Z</time></trkpt><trkpt lat="37.5475976" lon="21.5968939"><ele>22.0</ele><time>2026-04-30T09:05:01.899Z</time></trkpt><trkpt lat="37.547771" lon="21.5969161"><ele>21.0</ele><time>2026-04-30T09:05:02.899Z</time></trkpt><trkpt lat="37.5479448" lon="21.596972"><ele>20.0</ele><time>2026-04-30T09:05:03.898Z</time></trkpt><trkpt lat="37.5481148" lon="21.5970476"><ele>19.0</ele><time>2026-04-30T09:05:04.899Z</time></trkpt><trkpt lat="37.5482902" lon="21.597132"><ele>20.333333333333332</ele><time>2026-04-30T09:05:05.899Z</time></trkpt><trkpt lat="37.5484688" lon="21.5972361"><ele>21.666666666666668</ele><time>2026-04-30T09:05:06.898Z</time></trkpt><trkpt lat="37.548646" lon="21.5973471"><ele>23.0</ele><time>2026-04-30T09:05:07.898Z</time></trkpt><trkpt lat="37.5488214" lon="21.5974697"><ele>23.0</ele><time>2026-04-30T09:05:08.899Z</time></trkpt><trkpt lat="37.5489968" lon="21.5975945"><ele>23.0</ele><time>2026-04-30T09:05:09.899Z</time></trkpt><trkpt lat="37.5491738" lon="21.5977164"><ele>23.0</ele><time>2026-04-30T09:05:10.898Z</time></trkpt><trkpt lat="37.5493523" lon="21.5978402"><ele>23.0</ele><time>2026-04-30T09:05:11.898Z</time></trkpt><trkpt lat="37.5495335" lon="21.5979596"><ele>23.0</ele><time>2026-04-30T09:05:12.899Z</time></trkpt><trkpt lat="37.5497131" lon="21.5980895"><ele>23.0</ele><time>2026-04-30T09:05:13.898Z</time></trkpt><trkpt lat="37.5498974" lon="21.5982131"><ele>23.0</ele><time>2026-04-30T09:05:14.899Z</time></trkpt><trkpt lat="37.5500772" lon="21.5983301"><ele>23.0</ele><time>2026-04-30T09:05:15.898Z</time></trkpt><trkpt lat="37.5502529" lon="21.5984476"><ele>23.0</ele><time>2026-04-30T09:05:16.898Z</time></trkpt><trkpt lat="37.5504331" lon="21.5985698"><ele>20.333333333333336</ele><time>2026-04-30T09:05:17.899Z</time></trkpt><trkpt lat="37.5506122" lon="21.5986868"><ele>17.666666666666668</ele><time>2026-04-30T09:05:18.897Z</time></trkpt><trkpt lat="37.5507906" lon="21.5988002"><ele>15.0</ele><time>2026-04-30T09:05:19.897Z</time></trkpt><trkpt lat="37.5509739" lon="21.59891"><ele>15.0</ele><time>2026-04-30T09:05:20.899Z</time></trkpt><trkpt lat="37.551159" lon="21.5990078"><ele>15.0</ele><time>2026-04-30T09:05:21.899Z</time></trkpt><trkpt lat="37.551346" lon="21.5990809"><ele>15.0</ele><time>2026-04-30T09:05:22.899Z</time></trkpt><trkpt lat="37.551547" lon="21.5991419"><ele>15.333333333333332</ele><time>2026-04-30T09:05:23.899Z</time></trkpt><trkpt lat="37.5517485" lon="21.5991823"><ele>15.666666666666666</ele><time>2026-04-30T09:05:24.899Z</time></trkpt><trkpt lat="37.55196" lon="21.5992043"><ele>16.0</ele><time>2026-04-30T09:05:25.899Z</time></trkpt><trkpt lat="37.5521792" lon="21.5992098"><ele>17.0</ele><time>2026-04-30T09:05:26.898Z</time></trkpt><trkpt lat="37.5524004" lon="21.5992108"><ele>18.0</ele><time>2026-04-30T09:05:27.898Z</time></trkpt><trkpt lat="37.5526204" lon="21.5992034"><ele>19.0</ele><time>2026-04-30T09:05:28.899Z</time></trkpt><trkpt lat="37.5528406" lon="21.5991959"><ele>22.333333333333332</ele><time>2026-04-30T09:05:29.899Z</time></trkpt><trkpt lat="37.5530595" lon="21.5991863"><ele>25.666666666666664</ele><time>2026-04-30T09:05:30.899Z</time></trkpt><trkpt lat="37.5532746" lon="21.5991873"><ele>29.0</ele><time>2026-04-30T09:05:31.898Z</time></trkpt><trkpt lat="37.5534957" lon="21.5991715"><ele>32.33333333333333</ele><time>2026-04-30T09:05:32.896Z</time></trkpt><trkpt lat="37.5537131" lon="21.5991662"><ele>35.666666666666664</ele><time>2026-04-30T09:05:33.899Z</time></trkpt><trkpt lat="37.5539345" lon="21.5991559"><ele>39.0</ele><time>2026-04-30T09:05:34.899Z</time></trkpt><trkpt lat="37.5541633" lon="21.5991518"><ele>39.0</ele><time>2026-04-30T09:05:35.899Z</time></trkpt><trkpt lat="37.5543905" lon="21.599143"><ele>39.0</ele><time>2026-04-30T09:05:36.899Z</time></trkpt><trkpt lat="37.5546094" lon="21.5991356"><ele>39.0</ele><time>2026-04-30T09:05:37.898Z</time></trkpt><trkpt lat="37.5548269" lon="21.5991301"><ele>39.333333333333336</ele><time>2026-04-30T09:05:38.899Z</time></trkpt><trkpt lat="37.5550417" lon="21.5991256"><ele>39.66666666666667</ele><time>2026-04-30T09:05:39.898Z</time></trkpt><trkpt lat="37.5552591" lon="21.5991157"><ele>40.0</ele><time>2026-04-30T09:05:40.899Z</time></trkpt><trkpt lat="37.5554706" lon="21.5991108"><ele>40.0</ele><time>2026-04-30T09:05:41.897Z</time></trkpt><trkpt lat="37.5556807" lon="21.599104"><ele>40.0</ele><time>2026-04-30T09:05:42.897Z</time></trkpt><trkpt lat="37.5558895" lon="21.5990997"><ele>40.0</ele><time>2026-04-30T09:05:43.898Z</time></trkpt><trkpt lat="37.556095" lon="21.5990972"><ele>40.66666666666667</ele><time>2026-04-30T09:05:44.898Z</time></trkpt><trkpt lat="37.5563003" lon="21.5990908"><ele>41.333333333333336</ele><time>2026-04-30T09:05:45.899Z</time></trkpt><trkpt lat="37.5565064" lon="21.5990579"><ele>42.0</ele><time>2026-04-30T09:05:46.899Z</time></trkpt><trkpt lat="37.5566998" lon="21.5990401"><ele>42.0</ele><time>2026-04-30T09:05:47.899Z</time></trkpt><trkpt lat="37.556893" lon="21.5990113"><ele>42.0</ele><time>2026-04-30T09:05:48.899Z</time></trkpt><trkpt lat="37.5570785" lon="21.5989531"><ele>42.0</ele><time>2026-04-30T09:05:49.899Z</time></trkpt><trkpt lat="37.5572672" lon="21.5988684"><ele>40.666666666666664</ele><time>2026-04-30T09:05:50.897Z</time></trkpt><trkpt lat="37.5574484" lon="21.5987526"><ele>39.33333333333333</ele><time>2026-04-30T09:05:51.898Z</time></trkpt><trkpt lat="37.5576236" lon="21.5986121"><ele>38.0</ele><time>2026-04-30T09:05:52.898Z</time></trkpt><trkpt lat="37.5577978" lon="21.5984597"><ele>40.0</ele><time>2026-04-30T09:05:53.899Z</time></trkpt><trkpt lat="37.5579835" lon="21.5982966"><ele>42.0</ele><time>2026-04-30T09:05:54.899Z</time></trkpt><trkpt lat="37.5581662" lon="21.598127"><ele>42.0</ele><time>2026-04-30T09:05:55.898Z</time></trkpt><trkpt lat="37.558351" lon="21.5979628"><ele>42.0</ele><time>2026-04-30T09:05:56.898Z</time></trkpt><trkpt lat="37.5585322" lon="21.5977902"><ele>45.66666666666667</ele><time>2026-04-30T09:05:57.898Z</time></trkpt><trkpt lat="37.5587061" lon="21.5976217"><ele>49.333333333333336</ele><time>2026-04-30T09:05:58.899Z</time></trkpt><trkpt lat="37.5588776" lon="21.5974373"><ele>53.0</ele><time>2026-04-30T09:05:59.899Z</time></trkpt><trkpt lat="37.5590496" lon="21.5972735"><ele>53.0</ele><time>2026-04-30T09:06:00.897Z</time></trkpt><trkpt lat="37.5592224" lon="21.5971131"><ele>53.0</ele><time>2026-04-30T09:06:01.898Z</time></trkpt><trkpt lat="37.559386" lon="21.5969493"><ele>53.0</ele><time>2026-04-30T09:06:02.897Z</time></trkpt><trkpt lat="37.5595449" lon="21.5968093"><ele>58.0</ele><time>2026-04-30T09:06:03.899Z</time></trkpt><trkpt lat="37.5597025" lon="21.5966931"><ele>63.0</ele><time>2026-04-30T09:06:04.899Z</time></trkpt><trkpt lat="37.5598664" lon="21.5965967"><ele>68.0</ele><time>2026-04-30T09:06:05.898Z</time></trkpt><trkpt lat="37.5600406" lon="21.5965285"><ele>68.0</ele><time>2026-04-30T09:06:06.899Z</time></trkpt><trkpt lat="37.560217" lon="21.5964943"><ele>68.0</ele><time>2026-04-30T09:06:07.899Z</time></trkpt><trkpt lat="37.5604102" lon="21.5965038"><ele>68.0</ele><time>2026-04-30T09:06:08.899Z</time></trkpt><trkpt lat="37.5605894" lon="21.5965594"><ele>70.66666666666667</ele><time>2026-04-30T09:06:09.899Z</time></trkpt><trkpt lat="37.5607736" lon="21.5966271"><ele>73.33333333333333</ele><time>2026-04-30T09:06:10.898Z</time></trkpt><trkpt lat="37.56098" lon="21.5967413"><ele>76.0</ele><time>2026-04-30T09:06:11.898Z</time></trkpt><trkpt lat="37.5611828" lon="21.5968788"><ele>82.5</ele><time>2026-04-30T09:06:12.897Z</time></trkpt><trkpt lat="37.561377" lon="21.5970258"><ele>89.0</ele><time>2026-04-30T09:06:13.899Z</time></trkpt><trkpt lat="37.5615831" lon="21.5971693"><ele>89.0</ele><time>2026-04-30T09:06:14.899Z</time></trkpt><trkpt lat="37.561792" lon="21.5973038"><ele>89.0</ele><time>2026-04-30T09:06:15.899Z</time></trkpt><trkpt lat="37.562008" lon="21.5974367"><ele>85.0</ele><time>2026-04-30T09:06:16.899Z</time></trkpt><trkpt lat="37.5622177" lon="21.5975729"><ele>81.0</ele><time>2026-04-30T09:06:17.899Z</time></trkpt><trkpt lat="37.5624146" lon="21.5976999"><ele>81.0</ele><time>2026-04-30T09:06:18.899Z</time></trkpt><trkpt lat="37.5626085" lon="21.5978201"><ele>81.0</ele><time>2026-04-30T09:06:19.898Z</time></trkpt><trkpt lat="37.5627816" lon="21.5979341"><ele>81.0</ele><time>2026-04-30T09:06:20.899Z</time></trkpt><trkpt lat="37.5629337" lon="21.5980627"><ele>86.0</ele><time>2026-04-30T09:06:21.899Z</time></trkpt><trkpt lat="37.5630787" lon="21.5982017"><ele>91.0</ele><time>2026-04-30T09:06:22.898Z</time></trkpt><trkpt lat="37.5631955" lon="21.5983717"><ele>96.0</ele><time>2026-04-30T09:06:23.899Z</time></trkpt><trkpt lat="37.5632967" lon="21.5985718"><ele>99.0</ele><time>2026-04-30T09:06:24.898Z</time></trkpt><trkpt lat="37.5633866" lon="21.5988045"><ele>102.0</ele><time>2026-04-30T09:06:25.898Z</time></trkpt><trkpt lat="37.5634798" lon="21.5990685"><ele>105.0</ele><time>2026-04-30T09:06:26.899Z</time></trkpt><trkpt lat="37.5635975" lon="21.5993122"><ele>111.0</ele><time>2026-04-30T09:06:27.898Z</time></trkpt><trkpt lat="37.5637157" lon="21.5995769"><ele>117.0</ele><time>2026-04-30T09:06:28.899Z</time></trkpt><trkpt lat="37.5638621" lon="21.5998086"><ele>117.0</ele><time>2026-04-30T09:06:29.899Z</time></trkpt><trkpt lat="37.56402" lon="21.6000444"><ele>117.0</ele><time>2026-04-30T09:06:30.897Z</time></trkpt><trkpt lat="37.5641791" lon="21.6002541"><ele>118.0</ele><time>2026-04-30T09:06:31.898Z</time></trkpt><trkpt lat="37.56434" lon="21.6004528"><ele>119.0</ele><time>2026-04-30T09:06:32.898Z</time></trkpt><trkpt lat="37.5645014" lon="21.600647"><ele>120.0</ele><time>2026-04-30T09:06:33.898Z</time></trkpt><trkpt lat="37.5646742" lon="21.600828"><ele>120.5</ele><time>2026-04-30T09:06:34.898Z</time></trkpt><trkpt lat="37.5648593" lon="21.6009859"><ele>121.0</ele><time>2026-04-30T09:06:35.899Z</time></trkpt><trkpt lat="37.5650553" lon="21.6011363"><ele>118.5</ele><time>2026-04-30T09:06:36.899Z</time></trkpt><trkpt lat="37.5652624" lon="21.6012854"><ele>116.0</ele><time>2026-04-30T09:06:37.899Z</time></trkpt><trkpt lat="37.5654718" lon="21.6014343"><ele>116.0</ele><time>2026-04-30T09:06:38.899Z</time></trkpt><trkpt lat="37.5656787" lon="21.6015843"><ele>116.0</ele><time>2026-04-30T09:06:39.899Z</time></trkpt><trkpt lat="37.5658888" lon="21.6017342"><ele>116.0</ele><time>2026-04-30T09:06:40.898Z</time></trkpt><trkpt lat="37.5661012" lon="21.6018896"><ele>116.0</ele><time>2026-04-30T09:06:41.899Z</time></trkpt><trkpt lat="37.5663179" lon="21.6020274"><ele>112.5</ele><time>2026-04-30T09:06:42.898Z</time></trkpt><trkpt lat="37.5665298" lon="21.6021799"><ele>109.0</ele><time>2026-04-30T09:06:43.898Z</time></trkpt><trkpt lat="37.5667476" lon="21.6023255"><ele>109.0</ele><time>2026-04-30T09:06:44.899Z</time></trkpt><trkpt lat="37.5669604" lon="21.6024751"><ele>109.0</ele><time>2026-04-30T09:06:45.898Z</time></trkpt><trkpt lat="37.5671786" lon="21.6026278"><ele>109.0</ele><time>2026-04-30T09:06:46.898Z</time></trkpt><trkpt lat="37.5673955" lon="21.6027734"><ele>109.0</ele><time>2026-04-30T09:06:47.897Z</time></trkpt><trkpt lat="37.5676054" lon="21.6029102"><ele>109.0</ele><time>2026-04-30T09:06:48.899Z</time></trkpt><trkpt lat="37.567805" lon="21.6030433"><ele>109.0</ele><time>2026-04-30T09:06:49.899Z</time></trkpt><trkpt lat="37.5680211" lon="21.6031542"><ele>104.5</ele><time>2026-04-30T09:06:50.899Z</time></trkpt><trkpt lat="37.5682531" lon="21.6032465"><ele>100.0</ele><time>2026-04-30T09:06:51.897Z</time></trkpt><trkpt lat="37.5684904" lon="21.6033312"><ele>97.0</ele><time>2026-04-30T09:06:52.898Z</time></trkpt><trkpt lat="37.5687493" lon="21.6033911"><ele>94.0</ele><time>2026-04-30T09:06:53.899Z</time></trkpt><trkpt lat="37.5690052" lon="21.6034381"><ele>94.0</ele><time>2026-04-30T09:06:54.898Z</time></trkpt><trkpt lat="37.5692685" lon="21.6034884"><ele>94.0</ele><time>2026-04-30T09:06:55.899Z</time></trkpt><trkpt lat="37.5695282" lon="21.6035363"><ele>93.0</ele><time>2026-04-30T09:06:56.898Z</time></trkpt><trkpt lat="37.5697896" lon="21.6035767"><ele>92.0</ele><time>2026-04-30T09:06:57.899Z</time></trkpt><trkpt lat="37.570043" lon="21.6036202"><ele>92.0</ele><time>2026-04-30T09:06:58.899Z</time></trkpt><trkpt lat="37.5702878" lon="21.6036587"><ele>92.0</ele><time>2026-04-30T09:06:59.898Z</time></trkpt><trkpt lat="37.5705271" lon="21.6036989"><ele>86.5</ele><time>2026-04-30T09:07:00.898Z</time></trkpt><trkpt lat="37.5707673" lon="21.6037363"><ele>81.0</ele><time>2026-04-30T09:07:01.898Z</time></trkpt><trkpt lat="37.5710095" lon="21.6037646"><ele>81.0</ele><time>2026-04-30T09:07:02.899Z</time></trkpt><trkpt lat="37.5712606" lon="21.6037764"><ele>81.0</ele><time>2026-04-30T09:07:03.899Z</time></trkpt><trkpt lat="37.5715145" lon="21.6037723"><ele>81.0</ele><time>2026-04-30T09:07:04.899Z</time></trkpt><trkpt lat="37.5717739" lon="21.6037431"><ele>81.0</ele><time>2026-04-30T09:07:05.899Z</time></trkpt><trkpt lat="37.5720366" lon="21.6037196"><ele>81.5</ele><time>2026-04-30T09:07:06.899Z</time></trkpt><trkpt lat="37.5722974" lon="21.6037001"><ele>82.0</ele><time>2026-04-30T09:07:07.899Z</time></trkpt><trkpt lat="37.5725487" lon="21.6036672"><ele>86.0</ele><time>2026-04-30T09:07:08.898Z</time></trkpt><trkpt lat="37.5728042" lon="21.6036389"><ele>90.0</ele><time>2026-04-30T09:07:09.898Z</time></trkpt><trkpt lat="37.5730595" lon="21.6036041"><ele>90.0</ele><time>2026-04-30T09:07:10.897Z</time></trkpt><trkpt lat="37.5733049" lon="21.6035813"><ele>90.0</ele><time>2026-04-30T09:07:11.899Z</time></trkpt><trkpt lat="37.5735409" lon="21.6035637"><ele>85.5</ele><time>2026-04-30T09:07:12.899Z</time></trkpt><trkpt lat="37.5737693" lon="21.6035381"><ele>81.0</ele><time>2026-04-30T09:07:13.898Z</time></trkpt><trkpt lat="37.5739973" lon="21.6035091"><ele>81.0</ele><time>2026-04-30T09:07:14.899Z</time></trkpt><trkpt lat="37.5742227" lon="21.603473"><ele>81.0</ele><time>2026-04-30T09:07:15.899Z</time></trkpt><trkpt lat="37.5744484" lon="21.6034256"><ele>79.0</ele><time>2026-04-30T09:07:16.899Z</time></trkpt><trkpt lat="37.5746773" lon="21.6033636"><ele>77.0</ele><time>2026-04-30T09:07:17.898Z</time></trkpt><trkpt lat="37.574909" lon="21.6032914"><ele>77.0</ele><time>2026-04-30T09:07:18.899Z</time></trkpt><trkpt lat="37.5751434" lon="21.6032055"><ele>77.0</ele><time>2026-04-30T09:07:19.899Z</time></trkpt><trkpt lat="37.5753773" lon="21.6031139"><ele>73.5</ele><time>2026-04-30T09:07:20.898Z</time></trkpt><trkpt lat="37.5756098" lon="21.6030176"><ele>70.0</ele><time>2026-04-30T09:07:21.898Z</time></trkpt><trkpt lat="37.5758497" lon="21.6029236"><ele>72.5</ele><time>2026-04-30T09:07:22.898Z</time></trkpt><trkpt lat="37.5760816" lon="21.6028204"><ele>75.0</ele><time>2026-04-30T09:07:23.899Z</time></trkpt><trkpt lat="37.5763127" lon="21.6027238"><ele>75.0</ele><time>2026-04-30T09:07:24.899Z</time></trkpt><trkpt lat="37.5765442" lon="21.6026253"><ele>75.0</ele><time>2026-04-30T09:07:25.899Z</time></trkpt><trkpt lat="37.5767753" lon="21.6025359"><ele>75.0</ele><time>2026-04-30T09:07:26.897Z</time></trkpt><trkpt lat="37.5770014" lon="21.6024409"><ele>75.0</ele><time>2026-04-30T09:07:27.898Z</time></trkpt><trkpt lat="37.5772247" lon="21.602358"><ele>71.0</ele><time>2026-04-30T09:07:28.898Z</time></trkpt><trkpt lat="37.5774434" lon="21.6022691"><ele>67.0</ele><time>2026-04-30T09:07:29.898Z</time></trkpt><trkpt lat="37.5776647" lon="21.602182"><ele>65.5</ele><time>2026-04-30T09:07:30.898Z</time></trkpt><trkpt lat="37.5778866" lon="21.6020944"><ele>64.0</ele><time>2026-04-30T09:07:31.898Z</time></trkpt><trkpt lat="37.5781038" lon="21.602012"><ele>67.0</ele><time>2026-04-30T09:07:32.898Z</time></trkpt><trkpt lat="37.5783272" lon="21.6019402"><ele>70.0</ele><time>2026-04-30T09:07:33.898Z</time></trkpt><trkpt lat="37.5785483" lon="21.601874"><ele>71.5</ele><time>2026-04-30T09:07:34.898Z</time></trkpt><trkpt lat="37.5787743" lon="21.6018223"><ele>73.0</ele><time>2026-04-30T09:07:35.899Z</time></trkpt><trkpt lat="37.578999" lon="21.6017757"><ele>73.0</ele><time>2026-04-30T09:07:36.899Z</time></trkpt><trkpt lat="37.5792045" lon="21.6017323"><ele>73.0</ele><time>2026-04-30T09:07:37.899Z</time></trkpt><trkpt lat="37.5793964" lon="21.60169"><ele>73.0</ele><time>2026-04-30T09:07:38.899Z</time></trkpt><trkpt lat="37.5795859" lon="21.6016591"><ele>73.66666666666666</ele><time>2026-04-30T09:07:39.898Z</time></trkpt><trkpt lat="37.5797583" lon="21.6016221"><ele>74.33333333333333</ele><time>2026-04-30T09:07:40.899Z</time></trkpt><trkpt lat="37.5799315" lon="21.6015904"><ele>75.0</ele><time>2026-04-30T09:07:41.897Z</time></trkpt><trkpt lat="37.5801051" lon="21.6015597"><ele>75.0</ele><time>2026-04-30T09:07:42.899Z</time></trkpt><trkpt lat="37.5802789" lon="21.601525"><ele>75.0</ele><time>2026-04-30T09:07:43.898Z</time></trkpt><trkpt lat="37.5804515" lon="21.6014805"><ele>75.0</ele><time>2026-04-30T09:07:44.898Z</time></trkpt><trkpt lat="37.5806223" lon="21.6014129"><ele>76.66666666666667</ele><time>2026-04-30T09:07:45.899Z</time></trkpt><trkpt lat="37.5807792" lon="21.6013351"><ele>78.33333333333334</ele><time>2026-04-30T09:07:46.899Z</time></trkpt><trkpt lat="37.5809337" lon="21.6012354"><ele>80.0</ele><time>2026-04-30T09:07:47.898Z</time></trkpt><trkpt lat="37.5810716" lon="21.6011165"><ele>77.0</ele><time>2026-04-30T09:07:48.899Z</time></trkpt><trkpt lat="37.5812078" lon="21.6009884"><ele>74.0</ele><time>2026-04-30T09:07:49.898Z</time></trkpt><trkpt lat="37.581335" lon="21.6008242"><ele>71.0</ele><time>2026-04-30T09:07:50.898Z</time></trkpt><trkpt lat="37.5814458" lon="21.600683"><ele>71.0</ele><time>2026-04-30T09:07:51.898Z</time></trkpt><trkpt lat="37.5815475" lon="21.6005382"><ele>71.0</ele><time>2026-04-30T09:07:52.899Z</time></trkpt><trkpt lat="37.581637" lon="21.6003867"><ele>71.0</ele><time>2026-04-30T09:07:53.899Z</time></trkpt><trkpt lat="37.581723" lon="21.6002211"><ele>70.5</ele><time>2026-04-30T09:07:54.898Z</time></trkpt><trkpt lat="37.5818046" lon="21.6000661"><ele>70.0</ele><time>2026-04-30T09:07:55.899Z</time></trkpt><trkpt lat="37.5818841" lon="21.599907"><ele>69.5</ele><time>2026-04-30T09:07:56.898Z</time></trkpt><trkpt lat="37.5819616" lon="21.5997502"><ele>69.0</ele><time>2026-04-30T09:07:57.899Z</time></trkpt><trkpt lat="37.582038" lon="21.5995926"><ele>70.0</ele><time>2026-04-30T09:07:58.897Z</time></trkpt><trkpt lat="37.5821181" lon="21.5994307"><ele>71.0</ele><time>2026-04-30T09:07:59.897Z</time></trkpt><trkpt lat="37.5821927" lon="21.599264"><ele>72.0</ele><time>2026-04-30T09:08:00.899Z</time></trkpt><trkpt lat="37.5822886" lon="21.5990964"><ele>72.0</ele><time>2026-04-30T09:08:01.898Z</time></trkpt><trkpt lat="37.5823796" lon="21.598921"><ele>72.0</ele><time>2026-04-30T09:08:02.897Z</time></trkpt><trkpt lat="37.5824711" lon="21.5987307"><ele>72.0</ele><time>2026-04-30T09:08:03.899Z</time></trkpt><trkpt lat="37.5825646" lon="21.5985406"><ele>71.0</ele><time>2026-04-30T09:08:04.898Z</time></trkpt><trkpt lat="37.582655" lon="21.5983488"><ele>70.0</ele><time>2026-04-30T09:08:05.899Z</time></trkpt><trkpt lat="37.5827495" lon="21.5981384"><ele>69.0</ele><time>2026-04-30T09:08:06.899Z</time></trkpt><trkpt lat="37.5828558" lon="21.5979145"><ele>69.33333333333333</ele><time>2026-04-30T09:08:07.899Z</time></trkpt><trkpt lat="37.5829614" lon="21.5977059"><ele>69.66666666666666</ele><time>2026-04-30T09:08:08.899Z</time></trkpt><trkpt lat="37.5830641" lon="21.5974938"><ele>70.0</ele><time>2026-04-30T09:08:09.899Z</time></trkpt><trkpt lat="37.5831833" lon="21.5972713"><ele>70.0</ele><time>2026-04-30T09:08:10.899Z</time></trkpt><trkpt lat="37.5832949" lon="21.5970457"><ele>70.0</ele><time>2026-04-30T09:08:11.898Z</time></trkpt><trkpt lat="37.5834057" lon="21.5968199"><ele>70.0</ele><time>2026-04-30T09:08:12.898Z</time></trkpt><trkpt lat="37.5835177" lon="21.5965905"><ele>66.66666666666666</ele><time>2026-04-30T09:08:13.899Z</time></trkpt><trkpt lat="37.5836313" lon="21.5963594"><ele>63.33333333333333</ele><time>2026-04-30T09:08:14.899Z</time></trkpt><trkpt lat="37.5837416" lon="21.5961295"><ele>60.0</ele><time>2026-04-30T09:08:15.898Z</time></trkpt><trkpt lat="37.5838578" lon="21.5958965"><ele>59.66666666666667</ele><time>2026-04-30T09:08:16.898Z</time></trkpt><trkpt lat="37.5839732" lon="21.5956662"><ele>59.333333333333336</ele><time>2026-04-30T09:08:17.899Z</time></trkpt><trkpt lat="37.5840896" lon="21.5954242"><ele>59.0</ele><time>2026-04-30T09:08:18.899Z</time></trkpt><trkpt lat="37.5842066" lon="21.5951938"><ele>57.333333333333336</ele><time>2026-04-30T09:08:19.899Z</time></trkpt><trkpt lat="37.5843235" lon="21.5949619"><ele>55.66666666666667</ele><time>2026-04-30T09:08:20.899Z</time></trkpt><trkpt lat="37.5844378" lon="21.5947295"><ele>54.0</ele><time>2026-04-30T09:08:21.898Z</time></trkpt><trkpt lat="37.5845541" lon="21.5944864"><ele>52.0</ele><time>2026-04-30T09:08:22.899Z</time></trkpt><trkpt lat="37.5846678" lon="21.594258"><ele>50.0</ele><time>2026-04-30T09:08:23.898Z</time></trkpt><trkpt lat="37.5847869" lon="21.5940286"><ele>48.0</ele><time>2026-04-30T09:08:24.899Z</time></trkpt><trkpt lat="37.5848965" lon="21.5937915"><ele>46.666666666666664</ele><time>2026-04-30T09:08:25.898Z</time></trkpt><trkpt lat="37.5849937" lon="21.5935469"><ele>45.33333333333333</ele><time>2026-04-30T09:08:26.899Z</time></trkpt><trkpt lat="37.5850757" lon="21.5932923"><ele>44.0</ele><time>2026-04-30T09:08:27.899Z</time></trkpt><trkpt lat="37.585144" lon="21.5930296"><ele>43.5</ele><time>2026-04-30T09:08:28.899Z</time></trkpt><trkpt lat="37.5852116" lon="21.5927565"><ele>43.0</ele><time>2026-04-30T09:08:29.899Z</time></trkpt><trkpt lat="37.585276" lon="21.5924836"><ele>43.0</ele><time>2026-04-30T09:08:30.898Z</time></trkpt><trkpt lat="37.5853288" lon="21.5921958"><ele>43.0</ele><time>2026-04-30T09:08:31.897Z</time></trkpt><trkpt lat="37.5853822" lon="21.5919139"><ele>42.66666666666667</ele><time>2026-04-30T09:08:32.899Z</time></trkpt><trkpt lat="37.5854364" lon="21.5916455"><ele>42.333333333333336</ele><time>2026-04-30T09:08:33.899Z</time></trkpt><trkpt lat="37.5854922" lon="21.5913788"><ele>42.0</ele><time>2026-04-30T09:08:34.899Z</time></trkpt><trkpt lat="37.5855455" lon="21.5911215"><ele>42.0</ele><time>2026-04-30T09:08:35.898Z</time></trkpt><trkpt lat="37.5855913" lon="21.5908609"><ele>42.0</ele><time>2026-04-30T09:08:36.898Z</time></trkpt><trkpt lat="37.5856397" lon="21.5906067"><ele>42.0</ele><time>2026-04-30T09:08:37.899Z</time></trkpt><trkpt lat="37.585687" lon="21.5903595"><ele>43.0</ele><time>2026-04-30T09:08:38.898Z</time></trkpt><trkpt lat="37.5857302" lon="21.5901249"><ele>44.0</ele><time>2026-04-30T09:08:39.899Z</time></trkpt><trkpt lat="37.5857736" lon="21.5898937"><ele>45.0</ele><time>2026-04-30T09:08:40.899Z</time></trkpt><trkpt lat="37.5858135" lon="21.5896707"><ele>46.33333333333333</ele><time>2026-04-30T09:08:41.898Z</time></trkpt><trkpt lat="37.5858547" lon="21.5894587"><ele>47.666666666666664</ele><time>2026-04-30T09:08:42.898Z</time></trkpt><trkpt lat="37.5858941" lon="21.5892391"><ele>49.0</ele><time>2026-04-30T09:08:43.898Z</time></trkpt><trkpt lat="37.5859324" lon="21.5890277"><ele>49.0</ele><time>2026-04-30T09:08:44.898Z</time></trkpt><trkpt lat="37.5859698" lon="21.5888211"><ele>49.0</ele><time>2026-04-30T09:08:45.899Z</time></trkpt><trkpt lat="37.5860092" lon="21.588615"><ele>49.0</ele><time>2026-04-30T09:08:46.898Z</time></trkpt><trkpt lat="37.5860491" lon="21.5883964"><ele>50.33333333333333</ele><time>2026-04-30T09:08:47.898Z</time></trkpt><trkpt lat="37.5860935" lon="21.5881884"><ele>51.66666666666667</ele><time>2026-04-30T09:08:48.898Z</time></trkpt><trkpt lat="37.5861328" lon="21.587981"><ele>53.0</ele><time>2026-04-30T09:08:49.898Z</time></trkpt><trkpt lat="37.5861679" lon="21.5877768"><ele>55.66666666666667</ele><time>2026-04-30T09:08:50.899Z</time></trkpt><trkpt lat="37.5862056" lon="21.5875742"><ele>58.33333333333333</ele><time>2026-04-30T09:08:51.899Z</time></trkpt><trkpt lat="37.5862428" lon="21.5873721"><ele>61.0</ele><time>2026-04-30T09:08:52.899Z</time></trkpt><trkpt lat="37.5862813" lon="21.5871728"><ele>62.0</ele><time>2026-04-30T09:08:53.898Z</time></trkpt><trkpt lat="37.5863245" lon="21.5869759"><ele>63.0</ele><time>2026-04-30T09:08:54.898Z</time></trkpt><trkpt lat="37.5863649" lon="21.5867805"><ele>64.0</ele><time>2026-04-30T09:08:55.899Z</time></trkpt><trkpt lat="37.5864046" lon="21.5865876"><ele>64.0</ele><time>2026-04-30T09:08:56.899Z</time></trkpt><trkpt lat="37.5864352" lon="21.5863965"><ele>64.0</ele><time>2026-04-30T09:08:57.899Z</time></trkpt><trkpt lat="37.5864606" lon="21.5862079"><ele>64.0</ele><time>2026-04-30T09:08:58.898Z</time></trkpt><trkpt lat="37.5864734" lon="21.5860204"><ele>64.0</ele><time>2026-04-30T09:08:59.898Z</time></trkpt><trkpt lat="37.586479" lon="21.5858347"><ele>64.0</ele><time>2026-04-30T09:09:00.899Z</time></trkpt><trkpt lat="37.586477" lon="21.5856598"><ele>64.0</ele><time>2026-04-30T09:09:01.899Z</time></trkpt><trkpt lat="37.5864698" lon="21.5854764"><ele>64.0</ele><time>2026-04-30T09:09:02.898Z</time></trkpt><trkpt lat="37.5864591" lon="21.5853063"><ele>63.75</ele><time>2026-04-30T09:09:03.899Z</time></trkpt><trkpt lat="37.5864419" lon="21.5851413"><ele>63.5</ele><time>2026-04-30T09:09:04.899Z</time></trkpt><trkpt lat="37.5864259" lon="21.5849676"><ele>63.25</ele><time>2026-04-30T09:09:05.899Z</time></trkpt><trkpt lat="37.5864092" lon="21.5848097"><ele>63.0</ele><time>2026-04-30T09:09:06.898Z</time></trkpt><trkpt lat="37.5863792" lon="21.5846502"><ele>63.0</ele><time>2026-04-30T09:09:07.898Z</time></trkpt><trkpt lat="37.5863613" lon="21.5844877"><ele>63.0</ele><time>2026-04-30T09:09:08.898Z</time></trkpt><trkpt lat="37.5863392" lon="21.5843288"><ele>63.0</ele><time>2026-04-30T09:09:09.899Z</time></trkpt><trkpt lat="37.5863227" lon="21.5841625"><ele>63.0</ele><time>2026-04-30T09:09:10.899Z</time></trkpt><trkpt lat="37.5863097" lon="21.583988"><ele>63.0</ele><time>2026-04-30T09:09:11.899Z</time></trkpt><trkpt lat="37.5863066" lon="21.5838054"><ele>63.0</ele><time>2026-04-30T09:09:12.899Z</time></trkpt><trkpt lat="37.5863137" lon="21.583609"><ele>63.0</ele><time>2026-04-30T09:09:13.898Z</time></trkpt><trkpt lat="37.5863278" lon="21.5834017"><ele>63.0</ele><time>2026-04-30T09:09:14.899Z</time></trkpt><trkpt lat="37.5863628" lon="21.5832048"><ele>63.0</ele><time>2026-04-30T09:09:15.898Z</time></trkpt><trkpt lat="37.5864089" lon="21.5830061"><ele>63.0</ele><time>2026-04-30T09:09:16.898Z</time></trkpt><trkpt lat="37.5864796" lon="21.5828037"><ele>61.66666666666667</ele><time>2026-04-30T09:09:17.899Z</time></trkpt><trkpt lat="37.5865654" lon="21.582571"><ele>60.333333333333336</ele><time>2026-04-30T09:09:18.899Z</time></trkpt><trkpt lat="37.5866561" lon="21.5823569"><ele>59.0</ele><time>2026-04-30T09:09:19.898Z</time></trkpt><trkpt lat="37.5867529" lon="21.5821276"><ele>59.0</ele><time>2026-04-30T09:09:20.899Z</time></trkpt><trkpt lat="37.58686" lon="21.581887"><ele>59.0</ele><time>2026-04-30T09:09:21.898Z</time></trkpt><trkpt lat="37.5869609" lon="21.5816532"><ele>59.0</ele><time>2026-04-30T09:09:22.899Z</time></trkpt><trkpt lat="37.5870672" lon="21.5814205"><ele>59.0</ele><time>2026-04-30T09:09:23.899Z</time></trkpt><trkpt lat="37.58717" lon="21.5811914"><ele>59.0</ele><time>2026-04-30T09:09:24.898Z</time></trkpt><trkpt lat="37.5872794" lon="21.5809495"><ele>59.0</ele><time>2026-04-30T09:09:25.899Z</time></trkpt><trkpt lat="37.5873795" lon="21.5807135"><ele>57.333333333333336</ele><time>2026-04-30T09:09:26.899Z</time></trkpt><trkpt lat="37.5874765" lon="21.5804809"><ele>55.66666666666667</ele><time>2026-04-30T09:09:27.899Z</time></trkpt><trkpt lat="37.5875754" lon="21.5802398"><ele>54.0</ele><time>2026-04-30T09:09:28.899Z</time></trkpt><trkpt lat="37.5876773" lon="21.5800031"><ele>52.66666666666667</ele><time>2026-04-30T09:09:29.897Z</time></trkpt><trkpt lat="37.5877792" lon="21.5797642"><ele>51.333333333333336</ele><time>2026-04-30T09:09:30.898Z</time></trkpt><trkpt lat="37.5878849" lon="21.579516"><ele>50.0</ele><time>2026-04-30T09:09:31.899Z</time></trkpt><trkpt lat="37.5879913" lon="21.5792628"><ele>49.66666666666667</ele><time>2026-04-30T09:09:32.898Z</time></trkpt><trkpt lat="37.5881068" lon="21.5790202"><ele>49.33333333333333</ele><time>2026-04-30T09:09:33.899Z</time></trkpt><trkpt lat="37.5882106" lon="21.5787708"><ele>49.0</ele><time>2026-04-30T09:09:34.898Z</time></trkpt><trkpt lat="37.5883178" lon="21.5785121"><ele>48.0</ele><time>2026-04-30T09:09:35.898Z</time></trkpt><trkpt lat="37.5884302" lon="21.5782512"><ele>47.0</ele><time>2026-04-30T09:09:36.898Z</time></trkpt><trkpt lat="37.5885365" lon="21.5780022"><ele>47.5</ele><time>2026-04-30T09:09:37.898Z</time></trkpt><trkpt lat="37.5886434" lon="21.5777474"><ele>48.0</ele><time>2026-04-30T09:09:38.899Z</time></trkpt><trkpt lat="37.5887527" lon="21.5774923"><ele>48.0</ele><time>2026-04-30T09:09:39.898Z</time></trkpt><trkpt lat="37.5888631" lon="21.5772228"><ele>48.0</ele><time>2026-04-30T09:09:40.899Z</time></trkpt><trkpt lat="37.5889732" lon="21.5769744"><ele>48.0</ele><time>2026-04-30T09:09:41.897Z</time></trkpt><trkpt lat="37.5890818" lon="21.5767228"><ele>48.0</ele><time>2026-04-30T09:09:42.896Z</time></trkpt><trkpt lat="37.5891916" lon="21.5764711"><ele>48.0</ele><time>2026-04-30T09:09:43.898Z</time></trkpt><trkpt lat="37.5892986" lon="21.5762175"><ele>48.0</ele><time>2026-04-30T09:09:44.897Z</time></trkpt><trkpt lat="37.589407" lon="21.5759669"><ele>46.666666666666664</ele><time>2026-04-30T09:09:45.899Z</time></trkpt><trkpt lat="37.5895143" lon="21.5757229"><ele>45.33333333333333</ele><time>2026-04-30T09:09:46.898Z</time></trkpt><trkpt lat="37.5896174" lon="21.575479"><ele>44.0</ele><time>2026-04-30T09:09:47.899Z</time></trkpt><trkpt lat="37.5897135" lon="21.5752326"><ele>43.666666666666664</ele><time>2026-04-30T09:09:48.898Z</time></trkpt><trkpt lat="37.5897967" lon="21.5749772"><ele>43.333333333333336</ele><time>2026-04-30T09:09:49.898Z</time></trkpt><trkpt lat="37.589869" lon="21.5747087"><ele>43.0</ele><time>2026-04-30T09:09:50.898Z</time></trkpt><trkpt lat="37.5899252" lon="21.57444"><ele>44.0</ele><time>2026-04-30T09:09:51.899Z</time></trkpt><trkpt lat="37.589978" lon="21.5741698"><ele>45.0</ele><time>2026-04-30T09:09:52.899Z</time></trkpt><trkpt lat="37.5900083" lon="21.5738952"><ele>46.0</ele><time>2026-04-30T09:09:53.898Z</time></trkpt><trkpt lat="37.5900294" lon="21.5736199"><ele>48.0</ele><time>2026-04-30T09:09:54.899Z</time></trkpt><trkpt lat="37.5900461" lon="21.5733421"><ele>50.0</ele><time>2026-04-30T09:09:55.899Z</time></trkpt><trkpt lat="37.590063" lon="21.5730608"><ele>52.0</ele><time>2026-04-30T09:09:56.899Z</time></trkpt><trkpt lat="37.5900751" lon="21.5727799"><ele>53.33333333333333</ele><time>2026-04-30T09:09:57.898Z</time></trkpt><trkpt lat="37.5900875" lon="21.5725117"><ele>54.66666666666667</ele><time>2026-04-30T09:09:58.899Z</time></trkpt><trkpt lat="37.5901031" lon="21.5722423"><ele>56.0</ele><time>2026-04-30T09:09:59.898Z</time></trkpt><trkpt lat="37.5901103" lon="21.571965"><ele>56.333333333333336</ele><time>2026-04-30T09:10:00.899Z</time></trkpt><trkpt lat="37.5901266" lon="21.5716892"><ele>56.66666666666667</ele><time>2026-04-30T09:10:01.897Z</time></trkpt><trkpt lat="37.5901375" lon="21.5714219"><ele>57.0</ele><time>2026-04-30T09:10:02.898Z</time></trkpt><trkpt lat="37.5901465" lon="21.5711511"><ele>56.33333333333333</ele><time>2026-04-30T09:10:03.899Z</time></trkpt><trkpt lat="37.5901559" lon="21.5708767"><ele>55.666666666666664</ele><time>2026-04-30T09:10:04.899Z</time></trkpt><trkpt lat="37.5901677" lon="21.5705978"><ele>55.0</ele><time>2026-04-30T09:10:05.897Z</time></trkpt><trkpt lat="37.5901784" lon="21.5703173"><ele>55.0</ele><time>2026-04-30T09:10:06.899Z</time></trkpt><trkpt lat="37.5901815" lon="21.5700322"><ele>55.0</ele><time>2026-04-30T09:10:07.897Z</time></trkpt><trkpt lat="37.5901916" lon="21.569744"><ele>54.0</ele><time>2026-04-30T09:10:08.897Z</time></trkpt><trkpt lat="37.5902032" lon="21.5694588"><ele>53.0</ele><time>2026-04-30T09:10:09.898Z</time></trkpt><trkpt lat="37.5902159" lon="21.5691678"><ele>53.0</ele><time>2026-04-30T09:10:10.899Z</time></trkpt><trkpt lat="37.5902294" lon="21.5688874"><ele>53.0</ele><time>2026-04-30T09:10:11.897Z</time></trkpt><trkpt lat="37.5902406" lon="21.5685975"><ele>53.66666666666667</ele><time>2026-04-30T09:10:12.898Z</time></trkpt><trkpt lat="37.5902611" lon="21.5683246"><ele>54.33333333333333</ele><time>2026-04-30T09:10:13.898Z</time></trkpt><trkpt lat="37.5902741" lon="21.5680444"><ele>55.0</ele><time>2026-04-30T09:10:14.898Z</time></trkpt><trkpt lat="37.5902948" lon="21.5677715"><ele>55.0</ele><time>2026-04-30T09:10:15.899Z</time></trkpt><trkpt lat="37.5903038" lon="21.5675028"><ele>55.0</ele><time>2026-04-30T09:10:16.899Z</time></trkpt><trkpt lat="37.5903099" lon="21.567226"><ele>55.0</ele><time>2026-04-30T09:10:17.899Z</time></trkpt><trkpt lat="37.5903225" lon="21.5669649"><ele>55.0</ele><time>2026-04-30T09:10:18.899Z</time></trkpt><trkpt lat="37.5903355" lon="21.5667001"><ele>55.0</ele><time>2026-04-30T09:10:19.897Z</time></trkpt><trkpt lat="37.5903471" lon="21.5664368"><ele>55.0</ele><time>2026-04-30T09:10:20.898Z</time></trkpt><trkpt lat="37.5903605" lon="21.5661803"><ele>55.33333333333333</ele><time>2026-04-30T09:10:21.898Z</time></trkpt><trkpt lat="37.5903757" lon="21.5659241"><ele>55.66666666666667</ele><time>2026-04-30T09:10:22.899Z</time></trkpt><trkpt lat="37.5903975" lon="21.565674"><ele>56.0</ele><time>2026-04-30T09:10:23.898Z</time></trkpt><trkpt lat="37.5904254" lon="21.5654413"><ele>55.333333333333336</ele><time>2026-04-30T09:10:24.897Z</time></trkpt><trkpt lat="37.5904684" lon="21.5652055"><ele>54.66666666666667</ele><time>2026-04-30T09:10:25.898Z</time></trkpt><trkpt lat="37.5905371" lon="21.5650057"><ele>54.0</ele><time>2026-04-30T09:10:26.899Z</time></trkpt><trkpt lat="37.5906153" lon="21.5647899"><ele>54.0</ele><time>2026-04-30T09:10:27.899Z</time></trkpt><trkpt lat="37.5907316" lon="21.5645789"><ele>54.0</ele><time>2026-04-30T09:10:28.897Z</time></trkpt><trkpt lat="37.5908543" lon="21.5643727"><ele>54.0</ele><time>2026-04-30T09:10:29.898Z</time></trkpt><trkpt lat="37.5909923" lon="21.5641643"><ele>54.0</ele><time>2026-04-30T09:10:30.899Z</time></trkpt><trkpt lat="37.5911334" lon="21.5639436"><ele>54.0</ele><time>2026-04-30T09:10:31.899Z</time></trkpt><trkpt lat="37.591272" lon="21.5637363"><ele>54.0</ele><time>2026-04-30T09:10:32.899Z</time></trkpt><trkpt lat="37.5914053" lon="21.5635026"><ele>51.333333333333336</ele><time>2026-04-30T09:10:33.899Z</time></trkpt><trkpt lat="37.5915364" lon="21.5632732"><ele>48.66666666666667</ele><time>2026-04-30T09:10:34.899Z</time></trkpt><trkpt lat="37.5916658" lon="21.5630417"><ele>46.0</ele><time>2026-04-30T09:10:35.899Z</time></trkpt><trkpt lat="37.5917903" lon="21.5628045"><ele>46.0</ele><time>2026-04-30T09:10:36.899Z</time></trkpt><trkpt lat="37.5919237" lon="21.5625789"><ele>46.0</ele><time>2026-04-30T09:10:37.899Z</time></trkpt><trkpt lat="37.5920253" lon="21.5623253"><ele>46.0</ele><time>2026-04-30T09:10:38.899Z</time></trkpt><trkpt lat="37.5921396" lon="21.56208"><ele>43.66666666666667</ele><time>2026-04-30T09:10:39.899Z</time></trkpt><trkpt lat="37.5922497" lon="21.561836"><ele>41.333333333333336</ele><time>2026-04-30T09:10:40.898Z</time></trkpt><trkpt lat="37.592367" lon="21.5615931"><ele>39.0</ele><time>2026-04-30T09:10:41.899Z</time></trkpt><trkpt lat="37.5924815" lon="21.5613463"><ele>39.0</ele><time>2026-04-30T09:10:42.899Z</time></trkpt><trkpt lat="37.5925989" lon="21.561086"><ele>39.0</ele><time>2026-04-30T09:10:43.899Z</time></trkpt><trkpt lat="37.5926958" lon="21.5608415"><ele>39.0</ele><time>2026-04-30T09:10:44.898Z</time></trkpt><trkpt lat="37.5927948" lon="21.5605862"><ele>39.0</ele><time>2026-04-30T09:10:45.898Z</time></trkpt><trkpt lat="37.5928856" lon="21.5603238"><ele>34.5</ele><time>2026-04-30T09:10:46.898Z</time></trkpt><trkpt lat="37.5929729" lon="21.5600587"><ele>30.0</ele><time>2026-04-30T09:10:47.898Z</time></trkpt><trkpt lat="37.5930584" lon="21.5597993"><ele>29.0</ele><time>2026-04-30T09:10:48.897Z</time></trkpt><trkpt lat="37.5931428" lon="21.5595336"><ele>28.0</ele><time>2026-04-30T09:10:49.899Z</time></trkpt><trkpt lat="37.5932176" lon="21.5592706"><ele>27.0</ele><time>2026-04-30T09:10:50.899Z</time></trkpt><trkpt lat="37.5932915" lon="21.5590136"><ele>27.0</ele><time>2026-04-30T09:10:51.897Z</time></trkpt><trkpt lat="37.5933655" lon="21.5587529"><ele>27.0</ele><time>2026-04-30T09:10:52.897Z</time></trkpt><trkpt lat="37.5934331" lon="21.5585081"><ele>27.0</ele><time>2026-04-30T09:10:53.897Z</time></trkpt><trkpt lat="37.5935002" lon="21.5582651"><ele>26.333333333333336</ele><time>2026-04-30T09:10:54.898Z</time></trkpt><trkpt lat="37.5935617" lon="21.5580266"><ele>25.666666666666668</ele><time>2026-04-30T09:10:55.898Z</time></trkpt><trkpt lat="37.5936251" lon="21.5578006"><ele>25.0</ele><time>2026-04-30T09:10:56.898Z</time></trkpt><trkpt lat="37.5936907" lon="21.557574"><ele>24.666666666666668</ele><time>2026-04-30T09:10:57.896Z</time></trkpt><trkpt lat="37.593755" lon="21.5573547"><ele>24.333333333333336</ele><time>2026-04-30T09:10:58.898Z</time></trkpt><trkpt lat="37.5938163" lon="21.5571295"><ele>24.0</ele><time>2026-04-30T09:10:59.899Z</time></trkpt><trkpt lat="37.5938761" lon="21.5568997"><ele>23.333333333333332</ele><time>2026-04-30T09:11:00.898Z</time></trkpt><trkpt lat="37.5939317" lon="21.5566688"><ele>22.666666666666664</ele><time>2026-04-30T09:11:01.899Z</time></trkpt><trkpt lat="37.5939837" lon="21.5564309"><ele>22.0</ele><time>2026-04-30T09:11:02.898Z</time></trkpt><trkpt lat="37.5940268" lon="21.5561881"><ele>22.0</ele><time>2026-04-30T09:11:03.898Z</time></trkpt><trkpt lat="37.5940668" lon="21.5559365"><ele>22.0</ele><time>2026-04-30T09:11:04.899Z</time></trkpt><trkpt lat="37.5940961" lon="21.5556934"><ele>22.0</ele><time>2026-04-30T09:11:05.898Z</time></trkpt><trkpt lat="37.5941186" lon="21.5554436"><ele>22.0</ele><time>2026-04-30T09:11:06.899Z</time></trkpt><trkpt lat="37.5941334" lon="21.5551942"><ele>22.0</ele><time>2026-04-30T09:11:07.899Z</time></trkpt><trkpt lat="37.5941458" lon="21.5549443"><ele>22.0</ele><time>2026-04-30T09:11:08.899Z</time></trkpt><trkpt lat="37.5941491" lon="21.5546842"><ele>21.666666666666664</ele><time>2026-04-30T09:11:09.898Z</time></trkpt><trkpt lat="37.5941458" lon="21.5544229"><ele>21.333333333333332</ele><time>2026-04-30T09:11:10.897Z</time></trkpt><trkpt lat="37.5941426" lon="21.5541688"><ele>21.0</ele><time>2026-04-30T09:11:11.897Z</time></trkpt><trkpt lat="37.5941306" lon="21.5539114"><ele>20.0</ele><time>2026-04-30T09:11:12.899Z</time></trkpt><trkpt lat="37.5941178" lon="21.553649"><ele>19.0</ele><time>2026-04-30T09:11:13.898Z</time></trkpt><trkpt lat="37.594107" lon="21.5533859"><ele>18.0</ele><time>2026-04-30T09:11:14.899Z</time></trkpt><trkpt lat="37.5940987" lon="21.553113"><ele>18.333333333333332</ele><time>2026-04-30T09:11:15.898Z</time></trkpt><trkpt lat="37.5940893" lon="21.552836"><ele>18.666666666666664</ele><time>2026-04-30T09:11:16.898Z</time></trkpt><trkpt lat="37.594077" lon="21.5525564"><ele>19.0</ele><time>2026-04-30T09:11:17.898Z</time></trkpt><trkpt lat="37.5940657" lon="21.5522655"><ele>17.5</ele><time>2026-04-30T09:11:18.898Z</time></trkpt><trkpt lat="37.5940541" lon="21.5519756"><ele>16.0</ele><time>2026-04-30T09:11:19.899Z</time></trkpt><trkpt lat="37.5940378" lon="21.55168"><ele>16.0</ele><time>2026-04-30T09:11:20.899Z</time></trkpt><trkpt lat="37.5940049" lon="21.5513726"><ele>16.0</ele><time>2026-04-30T09:11:21.899Z</time></trkpt><trkpt lat="37.5939794" lon="21.5510473"><ele>15.0</ele><time>2026-04-30T09:11:22.898Z</time></trkpt><trkpt lat="37.5939547" lon="21.5507046"><ele>14.0</ele><time>2026-04-30T09:11:23.897Z</time></trkpt><trkpt lat="37.5939413" lon="21.5503574"><ele>12.5</ele><time>2026-04-30T09:11:24.897Z</time></trkpt><trkpt lat="37.5939309" lon="21.5500169"><ele>11.0</ele><time>2026-04-30T09:11:25.898Z</time></trkpt><trkpt lat="37.5939147" lon="21.5496828"><ele>11.0</ele><time>2026-04-30T09:11:26.899Z</time></trkpt><trkpt lat="37.5939157" lon="21.5493747"><ele>11.0</ele><time>2026-04-30T09:11:27.898Z</time></trkpt><trkpt lat="37.5939072" lon="21.5490729"><ele>11.0</ele><time>2026-04-30T09:11:28.899Z</time></trkpt><trkpt lat="37.5939001" lon="21.5487814"><ele>11.0</ele><time>2026-04-30T09:11:29.898Z</time></trkpt><trkpt lat="37.5938923" lon="21.5484888"><ele>10.666666666666666</ele><time>2026-04-30T09:11:30.899Z</time></trkpt><trkpt lat="37.593886" lon="21.548208"><ele>10.333333333333334</ele><time>2026-04-30T09:11:31.899Z</time></trkpt><trkpt lat="37.593879" lon="21.5479424"><ele>10.0</ele><time>2026-04-30T09:11:32.897Z</time></trkpt><trkpt lat="37.5938858" lon="21.5476956"><ele>10.666666666666668</ele><time>2026-04-30T09:11:33.897Z</time></trkpt><trkpt lat="37.593913" lon="21.5474596"><ele>11.333333333333334</ele><time>2026-04-30T09:11:34.897Z</time></trkpt><trkpt lat="37.5939576" lon="21.5472369"><ele>12.0</ele><time>2026-04-30T09:11:35.899Z</time></trkpt><trkpt lat="37.5940509" lon="21.5470437"><ele>12.0</ele><time>2026-04-30T09:11:36.899Z</time></trkpt><trkpt lat="37.5941603" lon="21.5468479"><ele>12.0</ele><time>2026-04-30T09:11:37.898Z</time></trkpt><trkpt lat="37.5942926" lon="21.5466552"><ele>12.0</ele><time>2026-04-30T09:11:38.899Z</time></trkpt><trkpt lat="37.5944281" lon="21.5464541"><ele>16.0</ele><time>2026-04-30T09:11:39.899Z</time></trkpt><trkpt lat="37.5945665" lon="21.5462406"><ele>20.0</ele><time>2026-04-30T09:11:40.899Z</time></trkpt><trkpt lat="37.5947063" lon="21.5460273"><ele>24.0</ele><time>2026-04-30T09:11:41.899Z</time></trkpt><trkpt lat="37.5948472" lon="21.5458089"><ele>24.0</ele><time>2026-04-30T09:11:42.898Z</time></trkpt><trkpt lat="37.5949925" lon="21.5455911"><ele>24.0</ele><time>2026-04-30T09:11:43.899Z</time></trkpt><trkpt lat="37.5951501" lon="21.5453574"><ele>24.333333333333336</ele><time>2026-04-30T09:11:44.898Z</time></trkpt><trkpt lat="37.5952875" lon="21.5451402"><ele>24.666666666666668</ele><time>2026-04-30T09:11:45.899Z</time></trkpt><trkpt lat="37.5954255" lon="21.5449191"><ele>25.0</ele><time>2026-04-30T09:11:46.898Z</time></trkpt><trkpt lat="37.5955603" lon="21.5447013"><ele>21.0</ele><time>2026-04-30T09:11:47.899Z</time></trkpt><trkpt lat="37.595699" lon="21.5444818"><ele>17.0</ele><time>2026-04-30T09:11:48.899Z</time></trkpt><trkpt lat="37.5958289" lon="21.5442657"><ele>13.0</ele><time>2026-04-30T09:11:49.899Z</time></trkpt><trkpt lat="37.5959667" lon="21.5440478"><ele>13.0</ele><time>2026-04-30T09:11:50.899Z</time></trkpt><trkpt lat="37.5960966" lon="21.5438302"><ele>13.0</ele><time>2026-04-30T09:11:51.899Z</time></trkpt><trkpt lat="37.5962293" lon="21.5435957"><ele>13.0</ele><time>2026-04-30T09:11:52.899Z</time></trkpt><trkpt lat="37.5963654" lon="21.5433739"><ele>12.0</ele><time>2026-04-30T09:11:53.899Z</time></trkpt><trkpt lat="37.5964993" lon="21.5431514"><ele>11.0</ele><time>2026-04-30T09:11:54.899Z</time></trkpt><trkpt lat="37.5966359" lon="21.5429292"><ele>10.0</ele><time>2026-04-30T09:11:55.899Z</time></trkpt><trkpt lat="37.5967726" lon="21.5427094"><ele>10.333333333333334</ele><time>2026-04-30T09:11:56.898Z</time></trkpt><trkpt lat="37.5969127" lon="21.542488"><ele>10.666666666666666</ele><time>2026-04-30T09:11:57.898Z</time></trkpt><trkpt lat="37.5970488" lon="21.542264"><ele>11.0</ele><time>2026-04-30T09:11:58.899Z</time></trkpt><trkpt lat="37.5971891" lon="21.5420417"><ele>10.0</ele><time>2026-04-30T09:11:59.898Z</time></trkpt><trkpt lat="37.5973273" lon="21.5418193"><ele>9.0</ele><time>2026-04-30T09:12:00.898Z</time></trkpt><trkpt lat="37.5974711" lon="21.5415832"><ele>9.0</ele><time>2026-04-30T09:12:01.899Z</time></trkpt><trkpt lat="37.5976106" lon="21.5413626"><ele>9.0</ele><time>2026-04-30T09:12:02.899Z</time></trkpt><trkpt lat="37.5977512" lon="21.5411417"><ele>9.0</ele><time>2026-04-30T09:12:03.898Z</time></trkpt><trkpt lat="37.5978899" lon="21.5409178"><ele>8.0</ele><time>2026-04-30T09:12:04.899Z</time></trkpt><trkpt lat="37.5980285" lon="21.5406954"><ele>7.0</ele><time>2026-04-30T09:12:05.899Z</time></trkpt><trkpt lat="37.5981668" lon="21.5404709"><ele>6.0</ele><time>2026-04-30T09:12:06.898Z</time></trkpt><trkpt lat="37.5983056" lon="21.540248"><ele>6.0</ele><time>2026-04-30T09:12:07.899Z</time></trkpt><trkpt lat="37.5984428" lon="21.5400195"><ele>6.0</ele><time>2026-04-30T09:12:08.899Z</time></trkpt><trkpt lat="37.5985849" lon="21.5397967"><ele>10.0</ele><time>2026-04-30T09:12:09.898Z</time></trkpt><trkpt lat="37.5987272" lon="21.5395696"><ele>14.0</ele><time>2026-04-30T09:12:10.898Z</time></trkpt><trkpt lat="37.5988644" lon="21.5393304"><ele>14.0</ele><time>2026-04-30T09:12:11.899Z</time></trkpt><trkpt lat="37.5990054" lon="21.5390766"><ele>14.0</ele><time>2026-04-30T09:12:12.899Z</time></trkpt><trkpt lat="37.599144" lon="21.5388324"><ele>8.5</ele><time>2026-04-30T09:12:13.898Z</time></trkpt><trkpt lat="37.5992797" lon="21.5385831"><ele>3.0</ele><time>2026-04-30T09:12:14.897Z</time></trkpt><trkpt lat="37.5994242" lon="21.5383359"><ele>5.0</ele><time>2026-04-30T09:12:15.898Z</time></trkpt><trkpt lat="37.5995664" lon="21.5380909"><ele>7.0</ele><time>2026-04-30T09:12:16.897Z</time></trkpt><trkpt lat="37.5997037" lon="21.5378393"><ele>7.0</ele><time>2026-04-30T09:12:17.898Z</time></trkpt><trkpt lat="37.5998458" lon="21.537595"><ele>7.0</ele><time>2026-04-30T09:12:18.899Z</time></trkpt><trkpt lat="37.5999878" lon="21.5373418"><ele>7.0</ele><time>2026-04-30T09:12:19.899Z</time></trkpt><trkpt lat="37.6001284" lon="21.5370858"><ele>7.0</ele><time>2026-04-30T09:12:20.898Z</time></trkpt><trkpt lat="37.6002755" lon="21.5368308"><ele>19.5</ele><time>2026-04-30T09:12:21.899Z</time></trkpt><trkpt lat="37.6004314" lon="21.5365693"><ele>32.0</ele><time>2026-04-30T09:12:22.899Z</time></trkpt><trkpt lat="37.6005867" lon="21.5363088"><ele>22.0</ele><time>2026-04-30T09:12:23.899Z</time></trkpt><trkpt lat="37.6007501" lon="21.5360635"><ele>12.0</ele><time>2026-04-30T09:12:24.898Z</time></trkpt><trkpt lat="37.600917" lon="21.5358148"><ele>12.0</ele><time>2026-04-30T09:12:25.897Z</time></trkpt><trkpt lat="37.6010912" lon="21.5355698"><ele>12.0</ele><time>2026-04-30T09:12:26.899Z</time></trkpt><trkpt lat="37.6012794" lon="21.5353211"><ele>15.0</ele><time>2026-04-30T09:12:27.897Z</time></trkpt><trkpt lat="37.6014758" lon="21.5350746"><ele>18.0</ele><time>2026-04-30T09:12:28.898Z</time></trkpt><trkpt lat="37.6016733" lon="21.534836"><ele>18.0</ele><time>2026-04-30T09:12:29.898Z</time></trkpt><trkpt lat="37.6018802" lon="21.5345921"><ele>18.0</ele><time>2026-04-30T09:12:30.896Z</time></trkpt><trkpt lat="37.602089" lon="21.5343405"><ele>17.5</ele><time>2026-04-30T09:12:31.899Z</time></trkpt><trkpt lat="37.6022943" lon="21.5340973"><ele>17.0</ele><time>2026-04-30T09:12:32.899Z</time></trkpt><trkpt lat="37.6025003" lon="21.5338595"><ele>12.0</ele><time>2026-04-30T09:12:33.898Z</time></trkpt><trkpt lat="37.6027098" lon="21.5336151"><ele>7.0</ele><time>2026-04-30T09:12:34.897Z</time></trkpt><trkpt lat="37.602918" lon="21.5333684"><ele>7.0</ele><time>2026-04-30T09:12:35.899Z</time></trkpt><trkpt lat="37.603129" lon="21.5331247"><ele>7.0</ele><time>2026-04-30T09:12:36.898Z</time></trkpt><trkpt lat="37.6033405" lon="21.5328804"><ele>6.0</ele><time>2026-04-30T09:12:37.897Z</time></trkpt><trkpt lat="37.6035486" lon="21.5326353"><ele>5.0</ele><time>2026-04-30T09:12:38.897Z</time></trkpt><trkpt lat="37.6037588" lon="21.5323919"><ele>6.0</ele><time>2026-04-30T09:12:39.899Z</time></trkpt><trkpt lat="37.6039651" lon="21.5321469"><ele>7.0</ele><time>2026-04-30T09:12:40.899Z</time></trkpt><trkpt lat="37.6041696" lon="21.5318988"><ele>7.0</ele><time>2026-04-30T09:12:41.898Z</time></trkpt><trkpt lat="37.6043774" lon="21.5316547"><ele>7.0</ele><time>2026-04-30T09:12:42.898Z</time></trkpt><trkpt lat="37.6045823" lon="21.5314209"><ele>7.0</ele><time>2026-04-30T09:12:43.899Z</time></trkpt><trkpt lat="37.6047864" lon="21.5311777"><ele>7.0</ele><time>2026-04-30T09:12:44.898Z</time></trkpt><trkpt lat="37.6049869" lon="21.5309439"><ele>7.0</ele><time>2026-04-30T09:12:45.897Z</time></trkpt><trkpt lat="37.60519" lon="21.5306964"><ele>7.0</ele><time>2026-04-30T09:12:46.898Z</time></trkpt><trkpt lat="37.6053924" lon="21.5304361"><ele>11.0</ele><time>2026-04-30T09:12:47.898Z</time></trkpt><trkpt lat="37.605585" lon="21.5301738"><ele>15.0</ele><time>2026-04-30T09:12:48.899Z</time></trkpt><trkpt lat="37.6057769" lon="21.5298934"><ele>15.0</ele><time>2026-04-30T09:12:49.899Z</time></trkpt><trkpt lat="37.6059706" lon="21.5296125"><ele>15.0</ele><time>2026-04-30T09:12:50.899Z</time></trkpt><trkpt lat="37.6061643" lon="21.5293197"><ele>19.0</ele><time>2026-04-30T09:12:51.899Z</time></trkpt><trkpt lat="37.6063583" lon="21.5290284"><ele>23.0</ele><time>2026-04-30T09:12:52.899Z</time></trkpt><trkpt lat="37.6065443" lon="21.5287304"><ele>18.0</ele><time>2026-04-30T09:12:53.898Z</time></trkpt><trkpt lat="37.6067384" lon="21.5284422"><ele>13.0</ele><time>2026-04-30T09:12:54.898Z</time></trkpt><trkpt lat="37.6069368" lon="21.5281561"><ele>14.5</ele><time>2026-04-30T09:12:55.898Z</time></trkpt><trkpt lat="37.607122" lon="21.5278757"><ele>16.0</ele><time>2026-04-30T09:12:56.899Z</time></trkpt><trkpt lat="37.6073162" lon="21.5275997"><ele>16.0</ele><time>2026-04-30T09:12:57.898Z</time></trkpt><trkpt lat="37.6075083" lon="21.5273208"><ele>16.0</ele><time>2026-04-30T09:12:58.899Z</time></trkpt><trkpt lat="37.6076988" lon="21.5270451"><ele>17.5</ele><time>2026-04-30T09:12:59.898Z</time></trkpt><trkpt lat="37.6078906" lon="21.5267691"><ele>19.0</ele><time>2026-04-30T09:13:00.898Z</time></trkpt><trkpt lat="37.6080784" lon="21.5264909"><ele>13.0</ele><time>2026-04-30T09:13:01.898Z</time></trkpt><trkpt lat="37.6082695" lon="21.526212"><ele>7.0</ele><time>2026-04-30T09:13:02.899Z</time></trkpt><trkpt lat="37.6084428" lon="21.5259271"><ele>7.0</ele><time>2026-04-30T09:13:03.898Z</time></trkpt><trkpt lat="37.6086304" lon="21.5256514"><ele>7.0</ele><time>2026-04-30T09:13:04.899Z</time></trkpt><trkpt lat="37.6088223" lon="21.5253729"><ele>8.5</ele><time>2026-04-30T09:13:05.899Z</time></trkpt><trkpt lat="37.6090128" lon="21.5250972"><ele>10.0</ele><time>2026-04-30T09:13:06.899Z</time></trkpt><trkpt lat="37.6092009" lon="21.5248184"><ele>12.0</ele><time>2026-04-30T09:13:07.899Z</time></trkpt><trkpt lat="37.609387" lon="21.5245481"><ele>14.0</ele><time>2026-04-30T09:13:08.898Z</time></trkpt><trkpt lat="37.6095693" lon="21.5242783"><ele>14.0</ele><time>2026-04-30T09:13:09.899Z</time></trkpt><trkpt lat="37.6097496" lon="21.5240023"><ele>14.0</ele><time>2026-04-30T09:13:10.898Z</time></trkpt><trkpt lat="37.6099369" lon="21.5237309"><ele>11.0</ele><time>2026-04-30T09:13:11.899Z</time></trkpt><trkpt lat="37.6101156" lon="21.5234527"><ele>8.0</ele><time>2026-04-30T09:13:12.898Z</time></trkpt><trkpt lat="37.6103016" lon="21.5231841"><ele>8.5</ele><time>2026-04-30T09:13:13.899Z</time></trkpt><trkpt lat="37.6104918" lon="21.5229095"><ele>9.0</ele><time>2026-04-30T09:13:14.899Z</time></trkpt><trkpt lat="37.6106817" lon="21.5226164"><ele>9.0</ele><time>2026-04-30T09:13:15.899Z</time></trkpt><trkpt lat="37.6108742" lon="21.5223274"><ele>9.0</ele><time>2026-04-30T09:13:16.898Z</time></trkpt><trkpt lat="37.6110643" lon="21.5220478"><ele>10.0</ele><time>2026-04-30T09:13:17.899Z</time></trkpt><trkpt lat="37.6112539" lon="21.5217704"><ele>11.0</ele><time>2026-04-30T09:13:18.898Z</time></trkpt><trkpt lat="37.6114394" lon="21.5214982"><ele>8.0</ele><time>2026-04-30T09:13:19.899Z</time></trkpt><trkpt lat="37.61162" lon="21.5212246"><ele>5.0</ele><time>2026-04-30T09:13:20.899Z</time></trkpt><trkpt lat="37.6117996" lon="21.5209615"><ele>5.0</ele><time>2026-04-30T09:13:21.899Z</time></trkpt><trkpt lat="37.6119798" lon="21.5207017"><ele>5.0</ele><time>2026-04-30T09:13:22.898Z</time></trkpt><trkpt lat="37.6121542" lon="21.5204441"><ele>7.5</ele><time>2026-04-30T09:13:23.898Z</time></trkpt><trkpt lat="37.6123388" lon="21.5201788"><ele>10.0</ele><time>2026-04-30T09:13:24.898Z</time></trkpt><trkpt lat="37.6125077" lon="21.5199178"><ele>10.0</ele><time>2026-04-30T09:13:25.898Z</time></trkpt><trkpt lat="37.6126767" lon="21.5196405"><ele>10.0</ele><time>2026-04-30T09:13:26.898Z</time></trkpt><trkpt lat="37.6128335" lon="21.519359"><ele>10.5</ele><time>2026-04-30T09:13:27.899Z</time></trkpt><trkpt lat="37.6129823" lon="21.5190602"><ele>11.0</ele><time>2026-04-30T09:13:28.898Z</time></trkpt><trkpt lat="37.6131249" lon="21.5187559"><ele>8.0</ele><time>2026-04-30T09:13:29.898Z</time></trkpt><trkpt lat="37.6132651" lon="21.5184333"><ele>5.0</ele><time>2026-04-30T09:13:30.899Z</time></trkpt><trkpt lat="37.6133966" lon="21.5181029"><ele>4.5</ele><time>2026-04-30T09:13:31.898Z</time></trkpt><trkpt lat="37.6135229" lon="21.5177728"><ele>4.0</ele><time>2026-04-30T09:13:32.898Z</time></trkpt><trkpt lat="37.6136463" lon="21.5174344"><ele>6.5</ele><time>2026-04-30T09:13:33.899Z</time></trkpt><trkpt lat="37.6137642" lon="21.5171241"><ele>9.0</ele><time>2026-04-30T09:13:34.898Z</time></trkpt><trkpt lat="37.6138813" lon="21.5168137"><ele>9.0</ele><time>2026-04-30T09:13:35.898Z</time></trkpt><trkpt lat="37.6139945" lon="21.5165188"><ele>9.0</ele><time>2026-04-30T09:13:36.898Z</time></trkpt><trkpt lat="37.6141096" lon="21.5162321"><ele>7.5</ele><time>2026-04-30T09:13:37.899Z</time></trkpt><trkpt lat="37.6142243" lon="21.5159523"><ele>6.0</ele><time>2026-04-30T09:13:38.898Z</time></trkpt><trkpt lat="37.6143444" lon="21.5156798"><ele>6.0</ele><time>2026-04-30T09:13:39.899Z</time></trkpt><trkpt lat="37.6144749" lon="21.5154154"><ele>6.0</ele><time>2026-04-30T09:13:40.898Z</time></trkpt><trkpt lat="37.6146021" lon="21.5151559"><ele>13.5</ele><time>2026-04-30T09:13:41.898Z</time></trkpt><trkpt lat="37.614746" lon="21.5148897"><ele>21.0</ele><time>2026-04-30T09:13:42.899Z</time></trkpt><trkpt lat="37.6148984" lon="21.514621"><ele>15.5</ele><time>2026-04-30T09:13:43.898Z</time></trkpt><trkpt lat="37.6150536" lon="21.5143379"><ele>10.0</ele><time>2026-04-30T09:13:44.898Z</time></trkpt><trkpt lat="37.6152204" lon="21.5140352"><ele>9.0</ele><time>2026-04-30T09:13:45.899Z</time></trkpt><trkpt lat="37.6153946" lon="21.51374"><ele>8.0</ele><time>2026-04-30T09:13:46.899Z</time></trkpt><trkpt lat="37.6155725" lon="21.5134273"><ele>8.0</ele><time>2026-04-30T09:13:47.898Z</time></trkpt><trkpt lat="37.6157583" lon="21.5131075"><ele>8.0</ele><time>2026-04-30T09:13:48.898Z</time></trkpt><trkpt lat="37.6159632" lon="21.5127836"><ele>8.5</ele><time>2026-04-30T09:13:49.899Z</time></trkpt><trkpt lat="37.6161719" lon="21.5124585"><ele>9.0</ele><time>2026-04-30T09:13:50.898Z</time></trkpt><trkpt lat="37.616376" lon="21.5121173"><ele>6.5</ele><time>2026-04-30T09:13:51.899Z</time></trkpt><trkpt lat="37.6165776" lon="21.5117807"><ele>4.0</ele><time>2026-04-30T09:13:52.899Z</time></trkpt><trkpt lat="37.6167777" lon="21.5114453"><ele>3.0</ele><time>2026-04-30T09:13:53.899Z</time></trkpt><trkpt lat="37.6169767" lon="21.5111046"><ele>2.0</ele><time>2026-04-30T09:13:54.899Z</time></trkpt><trkpt lat="37.617171" lon="21.5107931"><ele>2.5</ele><time>2026-04-30T09:13:55.899Z</time></trkpt><trkpt lat="37.6173572" lon="21.5104933"><ele>3.0</ele><time>2026-04-30T09:13:56.899Z</time></trkpt><trkpt lat="37.6175395" lon="21.5101896"><ele>3.0</ele><time>2026-04-30T09:13:57.898Z</time></trkpt><trkpt lat="37.6177151" lon="21.5098953"><ele>3.0</ele><time>2026-04-30T09:13:58.898Z</time></trkpt><trkpt lat="37.6178867" lon="21.5096131"><ele>3.5</ele><time>2026-04-30T09:13:59.896Z</time></trkpt><trkpt lat="37.6180572" lon="21.509332"><ele>4.0</ele><time>2026-04-30T09:14:00.898Z</time></trkpt><trkpt lat="37.6182183" lon="21.5090499"><ele>4.0</ele><time>2026-04-30T09:14:01.899Z</time></trkpt><trkpt lat="37.6183885" lon="21.5087588"><ele>4.0</ele><time>2026-04-30T09:14:02.898Z</time></trkpt><trkpt lat="37.6185527" lon="21.5084877"><ele>4.5</ele><time>2026-04-30T09:14:03.898Z</time></trkpt><trkpt lat="37.618716" lon="21.5082123"><ele>5.0</ele><time>2026-04-30T09:14:04.898Z</time></trkpt><trkpt lat="37.6188826" lon="21.5079435"><ele>4.0</ele><time>2026-04-30T09:14:05.898Z</time></trkpt><trkpt lat="37.6190389" lon="21.5076794"><ele>3.0</ele><time>2026-04-30T09:14:06.899Z</time></trkpt><trkpt lat="37.6191946" lon="21.5074282"><ele>3.0</ele><time>2026-04-30T09:14:07.898Z</time></trkpt><trkpt lat="37.6193413" lon="21.5071915"><ele>3.0</ele><time>2026-04-30T09:14:08.899Z</time></trkpt><trkpt lat="37.6194734" lon="21.5069631"><ele>4.0</ele><time>2026-04-30T09:14:09.899Z</time></trkpt><trkpt lat="37.6195973" lon="21.5067511"><ele>5.0</ele><time>2026-04-30T09:14:10.899Z</time></trkpt><trkpt lat="37.6197154" lon="21.5065536"><ele>6.0</ele><time>2026-04-30T09:14:11.899Z</time></trkpt><trkpt lat="37.619826" lon="21.5063576"><ele>6.0</ele><time>2026-04-30T09:14:12.898Z</time></trkpt><trkpt lat="37.6199314" lon="21.506174"><ele>6.0</ele><time>2026-04-30T09:14:13.898Z</time></trkpt><trkpt lat="37.6200375" lon="21.5059885"><ele>6.0</ele><time>2026-04-30T09:14:14.898Z</time></trkpt><trkpt lat="37.6201348" lon="21.5057868"><ele>6.0</ele><time>2026-04-30T09:14:15.898Z</time></trkpt><trkpt lat="37.6202304" lon="21.5055811"><ele>6.0</ele><time>2026-04-30T09:14:16.899Z</time></trkpt><trkpt lat="37.6203129" lon="21.5053433"><ele>6.0</ele><time>2026-04-30T09:14:17.898Z</time></trkpt><trkpt lat="37.6203811" lon="21.5050927"><ele>6.0</ele><time>2026-04-30T09:14:18.899Z</time></trkpt><trkpt lat="37.6204391" lon="21.5048393"><ele>6.0</ele><time>2026-04-30T09:14:19.898Z</time></trkpt><trkpt lat="37.6204911" lon="21.5045815"><ele>6.0</ele><time>2026-04-30T09:14:20.898Z</time></trkpt><trkpt lat="37.620541" lon="21.5043197"><ele>5.333333333333333</ele><time>2026-04-30T09:14:21.898Z</time></trkpt><trkpt lat="37.6205904" lon="21.5040476"><ele>4.666666666666666</ele><time>2026-04-30T09:14:22.899Z</time></trkpt><trkpt lat="37.6206476" lon="21.5037731"><ele>4.0</ele><time>2026-04-30T09:14:23.898Z</time></trkpt><trkpt lat="37.6207066" lon="21.5034817"><ele>3.5</ele><time>2026-04-30T09:14:24.899Z</time></trkpt><trkpt lat="37.6207651" lon="21.503186"><ele>3.0</ele><time>2026-04-30T09:14:25.898Z</time></trkpt><trkpt lat="37.6208225" lon="21.5028911"><ele>3.0</ele><time>2026-04-30T09:14:26.899Z</time></trkpt><trkpt lat="37.6208803" lon="21.5025899"><ele>3.0</ele><time>2026-04-30T09:14:27.899Z</time></trkpt><trkpt lat="37.6209379" lon="21.5022906"><ele>2.5</ele><time>2026-04-30T09:14:28.898Z</time></trkpt><trkpt lat="37.6209998" lon="21.5019825"><ele>2.0</ele><time>2026-04-30T09:14:29.899Z</time></trkpt><trkpt lat="37.6210603" lon="21.5016706"><ele>2.0</ele><time>2026-04-30T09:14:30.899Z</time></trkpt><trkpt lat="37.6211211" lon="21.50136"><ele>2.0</ele><time>2026-04-30T09:14:31.899Z</time></trkpt><trkpt lat="37.6211814" lon="21.501048"><ele>1.0</ele><time>2026-04-30T09:14:32.898Z</time></trkpt><trkpt lat="37.6212403" lon="21.5007406"><ele>0.0</ele><time>2026-04-30T09:14:33.899Z</time></trkpt><trkpt lat="37.621307" lon="21.5004383"><ele>0.0</ele><time>2026-04-30T09:14:34.898Z</time></trkpt><trkpt lat="37.6213788" lon="21.5001398"><ele>0.0</ele><time>2026-04-30T09:14:35.898Z</time></trkpt><trkpt lat="37.62146" lon="21.499831"><ele>0.0</ele><time>2026-04-30T09:14:36.899Z</time></trkpt><trkpt lat="37.621533" lon="21.4995169"><ele>0.0</ele><time>2026-04-30T09:14:37.898Z</time></trkpt><trkpt lat="37.6216255" lon="21.499201"><ele>0.0</ele><time>2026-04-30T09:14:38.898Z</time></trkpt><trkpt lat="37.6217275" lon="21.4988747"><ele>0.0</ele><time>2026-04-30T09:14:39.898Z</time></trkpt><trkpt lat="37.6218321" lon="21.4985551"><ele>0.0</ele><time>2026-04-30T09:14:40.897Z</time></trkpt><trkpt lat="37.621936" lon="21.498245"><ele>0.0</ele><time>2026-04-30T09:14:41.898Z</time></trkpt><trkpt lat="37.6220362" lon="21.4979248"><ele>-0.5</ele><time>2026-04-30T09:14:42.899Z</time></trkpt><trkpt lat="37.6221386" lon="21.4976187"><ele>-1.0</ele><time>2026-04-30T09:14:43.898Z</time></trkpt><trkpt lat="37.6222362" lon="21.4973082"><ele>0.5</ele><time>2026-04-30T09:14:44.898Z</time></trkpt><trkpt lat="37.622335" lon="21.497002"><ele>2.0</ele><time>2026-04-30T09:14:45.898Z</time></trkpt><trkpt lat="37.6224313" lon="21.4967015"><ele>2.0</ele><time>2026-04-30T09:14:46.898Z</time></trkpt><trkpt lat="37.6225316" lon="21.4963879"><ele>2.0</ele><time>2026-04-30T09:14:47.899Z</time></trkpt><trkpt lat="37.6226344" lon="21.4960869"><ele>1.5</ele><time>2026-04-30T09:14:48.899Z</time></trkpt><trkpt lat="37.6227338" lon="21.4957765"><ele>1.0</ele><time>2026-04-30T09:14:49.898Z</time></trkpt><trkpt lat="37.6228312" lon="21.4954704"><ele>1.5</ele><time>2026-04-30T09:14:50.899Z</time></trkpt><trkpt lat="37.6229301" lon="21.495172"><ele>2.0</ele><time>2026-04-30T09:14:51.899Z</time></trkpt><trkpt lat="37.623025" lon="21.4948666"><ele>2.5</ele><time>2026-04-30T09:14:52.898Z</time></trkpt><trkpt lat="37.6231207" lon="21.4945638"><ele>3.0</ele><time>2026-04-30T09:14:53.899Z</time></trkpt><trkpt lat="37.6232198" lon="21.4942632"><ele>3.0</ele><time>2026-04-30T09:14:54.898Z</time></trkpt><trkpt lat="37.6233158" lon="21.4939589"><ele>3.0</ele><time>2026-04-30T09:14:55.899Z</time></trkpt><trkpt lat="37.623408" lon="21.4936668"><ele>3.5</ele><time>2026-04-30T09:14:56.898Z</time></trkpt><trkpt lat="37.6235073" lon="21.4933747"><ele>4.0</ele><time>2026-04-30T09:14:57.899Z</time></trkpt><trkpt lat="37.6236076" lon="21.4930877"><ele>4.0</ele><time>2026-04-30T09:14:58.898Z</time></trkpt><trkpt lat="37.6237155" lon="21.4928044"><ele>4.0</ele><time>2026-04-30T09:14:59.898Z</time></trkpt><trkpt lat="37.6238378" lon="21.4925426"><ele>4.0</ele><time>2026-04-30T09:15:00.898Z</time></trkpt><trkpt lat="37.6239687" lon="21.4922976"><ele>4.0</ele><time>2026-04-30T09:15:01.898Z</time></trkpt><trkpt lat="37.6241119" lon="21.4920618"><ele>3.5</ele><time>2026-04-30T09:15:02.899Z</time></trkpt><trkpt lat="37.6242616" lon="21.4918416"><ele>3.0</ele><time>2026-04-30T09:15:03.899Z</time></trkpt><trkpt lat="37.6244251" lon="21.4916241"><ele>3.5</ele><time>2026-04-30T09:15:04.898Z</time></trkpt><trkpt lat="37.624596" lon="21.491409"><ele>4.0</ele><time>2026-04-30T09:15:05.898Z</time></trkpt><trkpt lat="37.6247715" lon="21.4911919"><ele>4.0</ele><time>2026-04-30T09:15:06.898Z</time></trkpt><trkpt lat="37.6249483" lon="21.4909813"><ele>4.0</ele><time>2026-04-30T09:15:07.899Z</time></trkpt><trkpt lat="37.6251254" lon="21.4907711"><ele>4.0</ele><time>2026-04-30T09:15:08.899Z</time></trkpt><trkpt lat="37.6253015" lon="21.4905589"><ele>4.0</ele><time>2026-04-30T09:15:09.899Z</time></trkpt><trkpt lat="37.6254883" lon="21.4903531"><ele>3.5</ele><time>2026-04-30T09:15:10.898Z</time></trkpt><trkpt lat="37.6256764" lon="21.49014"><ele>3.0</ele><time>2026-04-30T09:15:11.898Z</time></trkpt><trkpt lat="37.6258588" lon="21.4899311"><ele>3.0</ele><time>2026-04-30T09:15:12.898Z</time></trkpt><trkpt lat="37.6260415" lon="21.4897067"><ele>3.0</ele><time>2026-04-30T09:15:13.898Z</time></trkpt><trkpt lat="37.6262266" lon="21.4894935"><ele>3.0</ele><time>2026-04-30T09:15:14.898Z</time></trkpt><trkpt lat="37.6264142" lon="21.4892808"><ele>3.0</ele><time>2026-04-30T09:15:15.899Z</time></trkpt><trkpt lat="37.6266024" lon="21.4890721"><ele>3.0</ele><time>2026-04-30T09:15:16.899Z</time></trkpt><trkpt lat="37.6267866" lon="21.4888643"><ele>3.0</ele><time>2026-04-30T09:15:17.898Z</time></trkpt><trkpt lat="37.626973" lon="21.4886569"><ele>3.5</ele><time>2026-04-30T09:15:18.898Z</time></trkpt><trkpt lat="37.6271677" lon="21.4884595"><ele>4.0</ele><time>2026-04-30T09:15:19.899Z</time></trkpt><trkpt lat="37.6273598" lon="21.4882681"><ele>4.0</ele><time>2026-04-30T09:15:20.898Z</time></trkpt><trkpt lat="37.6275559" lon="21.488091"><ele>4.0</ele><time>2026-04-30T09:15:21.899Z</time></trkpt><trkpt lat="37.6277573" lon="21.4879216"><ele>4.0</ele><time>2026-04-30T09:15:22.899Z</time></trkpt><trkpt lat="37.6279626" lon="21.4877573"><ele>4.0</ele><time>2026-04-30T09:15:23.898Z</time></trkpt><trkpt lat="37.6281709" lon="21.4875955"><ele>4.0</ele><time>2026-04-30T09:15:24.899Z</time></trkpt><trkpt lat="37.6283776" lon="21.4874321"><ele>4.0</ele><time>2026-04-30T09:15:25.898Z</time></trkpt><trkpt lat="37.6285885" lon="21.4872699"><ele>4.0</ele><time>2026-04-30T09:15:26.898Z</time></trkpt><trkpt lat="37.6288049" lon="21.4871016"><ele>4.0</ele><time>2026-04-30T09:15:27.898Z</time></trkpt><trkpt lat="37.6290151" lon="21.4869179"><ele>4.0</ele><time>2026-04-30T09:15:28.898Z</time></trkpt><trkpt lat="37.6292303" lon="21.4867338"><ele>4.0</ele><time>2026-04-30T09:15:29.899Z</time></trkpt><trkpt lat="37.6294384" lon="21.4865433"><ele>4.0</ele><time>2026-04-30T09:15:30.899Z</time></trkpt><trkpt lat="37.6296428" lon="21.4863479"><ele>4.0</ele><time>2026-04-30T09:15:31.898Z</time></trkpt><trkpt lat="37.6298635" lon="21.4861504"><ele>3.0</ele><time>2026-04-30T09:15:32.898Z</time></trkpt><trkpt lat="37.6300686" lon="21.485951"><ele>2.0</ele><time>2026-04-30T09:15:33.898Z</time></trkpt><trkpt lat="37.6302709" lon="21.4857522"><ele>2.5</ele><time>2026-04-30T09:15:34.898Z</time></trkpt><trkpt lat="37.6304729" lon="21.4855553"><ele>3.0</ele><time>2026-04-30T09:15:35.899Z</time></trkpt><trkpt lat="37.6306742" lon="21.4853542"><ele>3.5</ele><time>2026-04-30T09:15:36.899Z</time></trkpt><trkpt lat="37.630871" lon="21.4851557"><ele>4.0</ele><time>2026-04-30T09:15:37.898Z</time></trkpt><trkpt lat="37.6310744" lon="21.484962"><ele>3.5</ele><time>2026-04-30T09:15:38.899Z</time></trkpt><trkpt lat="37.6312732" lon="21.4847728"><ele>3.0</ele><time>2026-04-30T09:15:39.898Z</time></trkpt><trkpt lat="37.6314672" lon="21.484578"><ele>2.5</ele><time>2026-04-30T09:15:40.897Z</time></trkpt><trkpt lat="37.6316638" lon="21.484384"><ele>2.0</ele><time>2026-04-30T09:15:41.898Z</time></trkpt><trkpt lat="37.6318624" lon="21.4841921"><ele>3.0</ele><time>2026-04-30T09:15:42.898Z</time></trkpt><trkpt lat="37.632057" lon="21.4839983"><ele>4.0</ele><time>2026-04-30T09:15:43.898Z</time></trkpt><trkpt lat="37.6322559" lon="21.4838003"><ele>3.0</ele><time>2026-04-30T09:15:44.898Z</time></trkpt><trkpt lat="37.6324595" lon="21.4836135"><ele>2.0</ele><time>2026-04-30T09:15:45.898Z</time></trkpt><trkpt lat="37.6326607" lon="21.4834158"><ele>4.5</ele><time>2026-04-30T09:15:46.899Z</time></trkpt><trkpt lat="37.6328657" lon="21.4832186"><ele>7.0</ele><time>2026-04-30T09:15:47.898Z</time></trkpt><trkpt lat="37.6330689" lon="21.48302"><ele>4.5</ele><time>2026-04-30T09:15:48.898Z</time></trkpt><trkpt lat="37.6332676" lon="21.482823"><ele>2.0</ele><time>2026-04-30T09:15:49.897Z</time></trkpt><trkpt lat="37.6334693" lon="21.4826279"><ele>5.0</ele><time>2026-04-30T09:15:50.898Z</time></trkpt><trkpt lat="37.6336757" lon="21.4824289"><ele>8.0</ele><time>2026-04-30T09:15:51.898Z</time></trkpt><trkpt lat="37.6338829" lon="21.4822322"><ele>7.0</ele><time>2026-04-30T09:15:52.898Z</time></trkpt><trkpt lat="37.6340874" lon="21.4820382"><ele>6.0</ele><time>2026-04-30T09:15:53.899Z</time></trkpt><trkpt lat="37.6342856" lon="21.4818411"><ele>10.5</ele><time>2026-04-30T09:15:54.899Z</time></trkpt><trkpt lat="37.6344822" lon="21.4816459"><ele>15.0</ele><time>2026-04-30T09:15:55.898Z</time></trkpt><trkpt lat="37.6346809" lon="21.481458"><ele>15.0</ele><time>2026-04-30T09:15:56.898Z</time></trkpt><trkpt lat="37.6348843" lon="21.4812772"><ele>15.0</ele><time>2026-04-30T09:15:57.899Z</time></trkpt><trkpt lat="37.6350706" lon="21.4811098"><ele>14.666666666666668</ele><time>2026-04-30T09:15:58.899Z</time></trkpt><trkpt lat="37.6352573" lon="21.4809582"><ele>14.333333333333334</ele><time>2026-04-30T09:15:59.899Z</time></trkpt><trkpt lat="37.635443" lon="21.4808186"><ele>14.0</ele><time>2026-04-30T09:16:00.897Z</time></trkpt><trkpt lat="37.6356198" lon="21.4806965"><ele>14.0</ele><time>2026-04-30T09:16:01.899Z</time></trkpt><trkpt lat="37.6358062" lon="21.4805656"><ele>14.0</ele><time>2026-04-30T09:16:02.899Z</time></trkpt><trkpt lat="37.6360031" lon="21.4804367"><ele>14.0</ele><time>2026-04-30T09:16:03.898Z</time></trkpt><trkpt lat="37.6362023" lon="21.4803136"><ele>13.0</ele><time>2026-04-30T09:16:04.898Z</time></trkpt><trkpt lat="37.6364059" lon="21.4801856"><ele>12.0</ele><time>2026-04-30T09:16:05.898Z</time></trkpt><trkpt lat="37.6366201" lon="21.4800547"><ele>12.0</ele><time>2026-04-30T09:16:06.898Z</time></trkpt><trkpt lat="37.6368479" lon="21.4799315"><ele>12.0</ele><time>2026-04-30T09:16:07.898Z</time></trkpt><trkpt lat="37.6370674" lon="21.4797926"><ele>10.333333333333334</ele><time>2026-04-30T09:16:08.899Z</time></trkpt><trkpt lat="37.6372732" lon="21.4796695"><ele>8.666666666666668</ele><time>2026-04-30T09:16:09.898Z</time></trkpt><trkpt lat="37.6374742" lon="21.4795594"><ele>7.0</ele><time>2026-04-30T09:16:10.899Z</time></trkpt><trkpt lat="37.6376703" lon="21.4794532"><ele>7.333333333333334</ele><time>2026-04-30T09:16:11.899Z</time></trkpt><trkpt lat="37.6378499" lon="21.4793473"><ele>7.666666666666666</ele><time>2026-04-30T09:16:12.899Z</time></trkpt><trkpt lat="37.6380174" lon="21.4792516"><ele>8.0</ele><time>2026-04-30T09:16:13.899Z</time></trkpt><trkpt lat="37.6381603" lon="21.4791547"><ele>8.0</ele><time>2026-04-30T09:16:14.899Z</time></trkpt><trkpt lat="37.6382941" lon="21.4790738"><ele>8.0</ele><time>2026-04-30T09:16:15.898Z</time></trkpt><trkpt lat="37.6384348" lon="21.478992"><ele>8.0</ele><time>2026-04-30T09:16:16.899Z</time></trkpt><trkpt lat="37.6385942" lon="21.4788928"><ele>7.0</ele><time>2026-04-30T09:16:17.898Z</time></trkpt><trkpt lat="37.6387802" lon="21.4787823"><ele>6.0</ele><time>2026-04-30T09:16:18.898Z</time></trkpt><trkpt lat="37.6389947" lon="21.4786583"><ele>5.0</ele><time>2026-04-30T09:16:19.899Z</time></trkpt><trkpt lat="37.6392278" lon="21.4785136"><ele>5.0</ele><time>2026-04-30T09:16:20.898Z</time></trkpt><trkpt lat="37.6394537" lon="21.4783804"><ele>5.0</ele><time>2026-04-30T09:16:21.898Z</time></trkpt><trkpt lat="37.6396647" lon="21.47826"><ele>5.333333333333334</ele><time>2026-04-30T09:16:22.899Z</time></trkpt><trkpt lat="37.6398633" lon="21.4781447"><ele>5.666666666666667</ele><time>2026-04-30T09:16:23.899Z</time></trkpt><trkpt lat="37.6400561" lon="21.4780398"><ele>6.0</ele><time>2026-04-30T09:16:24.899Z</time></trkpt><trkpt lat="37.6402314" lon="21.4779577"><ele>4.666666666666667</ele><time>2026-04-30T09:16:25.899Z</time></trkpt><trkpt lat="37.6404014" lon="21.4778633"><ele>3.333333333333333</ele><time>2026-04-30T09:16:26.899Z</time></trkpt><trkpt lat="37.6405693" lon="21.4777478"><ele>2.0</ele><time>2026-04-30T09:16:27.898Z</time></trkpt><trkpt lat="37.6407625" lon="21.4776198"><ele>2.0</ele><time>2026-04-30T09:16:28.899Z</time></trkpt><trkpt lat="37.6409744" lon="21.47749"><ele>2.0</ele><time>2026-04-30T09:16:29.899Z</time></trkpt><trkpt lat="37.6411742" lon="21.4773853"><ele>1.6666666666666665</ele><time>2026-04-30T09:16:30.899Z</time></trkpt><trkpt lat="37.641358" lon="21.477281"><ele>1.3333333333333333</ele><time>2026-04-30T09:16:31.897Z</time></trkpt><trkpt lat="37.6415322" lon="21.4771764"><ele>1.0</ele><time>2026-04-30T09:16:32.898Z</time></trkpt><trkpt lat="37.6417161" lon="21.4770632"><ele>0.5</ele><time>2026-04-30T09:16:33.898Z</time></trkpt><trkpt lat="37.6419155" lon="21.47694"><ele>0.0</ele><time>2026-04-30T09:16:34.897Z</time></trkpt><trkpt lat="37.6421252" lon="21.476819"><ele>0.0</ele><time>2026-04-30T09:16:35.898Z</time></trkpt><trkpt lat="37.6423369" lon="21.4767014"><ele>0.0</ele><time>2026-04-30T09:16:36.898Z</time></trkpt><trkpt lat="37.6425428" lon="21.4765838"><ele>0.0</ele><time>2026-04-30T09:16:37.898Z</time></trkpt><trkpt lat="37.6427462" lon="21.4764624"><ele>0.0</ele><time>2026-04-30T09:16:38.898Z</time></trkpt><trkpt lat="37.6429595" lon="21.4763302"><ele>2.0</ele><time>2026-04-30T09:16:39.896Z</time></trkpt><trkpt lat="37.643189" lon="21.4761907"><ele>4.0</ele><time>2026-04-30T09:16:40.899Z</time></trkpt><trkpt lat="37.6434108" lon="21.4760622"><ele>4.0</ele><time>2026-04-30T09:16:41.898Z</time></trkpt><trkpt lat="37.6436279" lon="21.4759465"><ele>4.0</ele><time>2026-04-30T09:16:42.898Z</time></trkpt><trkpt lat="37.6438281" lon="21.4758344"><ele>3.6666666666666665</ele><time>2026-04-30T09:16:43.898Z</time></trkpt><trkpt lat="37.6440196" lon="21.4757238"><ele>3.333333333333333</ele><time>2026-04-30T09:16:44.898Z</time></trkpt><trkpt lat="37.6442134" lon="21.4756165"><ele>3.0</ele><time>2026-04-30T09:16:45.898Z</time></trkpt><trkpt lat="37.6444035" lon="21.4755061"><ele>3.0</ele><time>2026-04-30T09:16:46.898Z</time></trkpt><trkpt lat="37.6445951" lon="21.4753937"><ele>3.0</ele><time>2026-04-30T09:16:47.898Z</time></trkpt><trkpt lat="37.6447861" lon="21.4752864"><ele>3.0</ele><time>2026-04-30T09:16:48.899Z</time></trkpt><trkpt lat="37.6449826" lon="21.4751706"><ele>3.0</ele><time>2026-04-30T09:16:49.898Z</time></trkpt><trkpt lat="37.6451814" lon="21.4750524"><ele>3.0</ele><time>2026-04-30T09:16:50.899Z</time></trkpt><trkpt lat="37.6453881" lon="21.4749245"><ele>2.5</ele><time>2026-04-30T09:16:51.899Z</time></trkpt><trkpt lat="37.6455939" lon="21.4747934"><ele>2.0</ele><time>2026-04-30T09:16:52.897Z</time></trkpt><trkpt lat="37.6457962" lon="21.474646"><ele>2.5</ele><time>2026-04-30T09:16:53.899Z</time></trkpt><trkpt lat="37.6459946" lon="21.4744967"><ele>3.0</ele><time>2026-04-30T09:16:54.898Z</time></trkpt><trkpt lat="37.6462021" lon="21.4743246"><ele>3.5</ele><time>2026-04-30T09:16:55.898Z</time></trkpt><trkpt lat="37.6464079" lon="21.4741743"><ele>4.0</ele><time>2026-04-30T09:16:56.898Z</time></trkpt><trkpt lat="37.6466111" lon="21.4740211"><ele>4.0</ele><time>2026-04-30T09:16:57.898Z</time></trkpt><trkpt lat="37.6468096" lon="21.4738666"><ele>4.0</ele><time>2026-04-30T09:16:58.898Z</time></trkpt><trkpt lat="37.6470057" lon="21.4737092"><ele>3.5</ele><time>2026-04-30T09:16:59.897Z</time></trkpt><trkpt lat="37.6472" lon="21.4735573"><ele>3.0</ele><time>2026-04-30T09:17:00.898Z</time></trkpt><trkpt lat="37.6473908" lon="21.473405"><ele>3.0</ele><time>2026-04-30T09:17:01.895Z</time></trkpt><trkpt lat="37.6475837" lon="21.4732503"><ele>3.0</ele><time>2026-04-30T09:17:02.898Z</time></trkpt><trkpt lat="37.6477724" lon="21.4731014"><ele>2.3333333333333335</ele><time>2026-04-30T09:17:03.899Z</time></trkpt><trkpt lat="37.647962" lon="21.4729531"><ele>1.6666666666666665</ele><time>2026-04-30T09:17:04.898Z</time></trkpt><trkpt lat="37.6481492" lon="21.472803"><ele>1.0</ele><time>2026-04-30T09:17:05.898Z</time></trkpt><trkpt lat="37.6483373" lon="21.4726541"><ele>1.5</ele><time>2026-04-30T09:17:06.898Z</time></trkpt><trkpt lat="37.6485277" lon="21.4725016"><ele>2.0</ele><time>2026-04-30T09:17:07.898Z</time></trkpt><trkpt lat="37.6487184" lon="21.4723468"><ele>2.0</ele><time>2026-04-30T09:17:08.898Z</time></trkpt><trkpt lat="37.6489042" lon="21.4721876"><ele>2.0</ele><time>2026-04-30T09:17:09.899Z</time></trkpt><trkpt lat="37.6490837" lon="21.4720241"><ele>2.0</ele><time>2026-04-30T09:17:10.898Z</time></trkpt><trkpt lat="37.6492685" lon="21.4718639"><ele>2.0</ele><time>2026-04-30T09:17:11.899Z</time></trkpt><trkpt lat="37.6494502" lon="21.4717065"><ele>2.0</ele><time>2026-04-30T09:17:12.898Z</time></trkpt><trkpt lat="37.6496334" lon="21.4715498"><ele>2.0</ele><time>2026-04-30T09:17:13.899Z</time></trkpt><trkpt lat="37.6498204" lon="21.4713906"><ele>2.0</ele><time>2026-04-30T09:17:14.898Z</time></trkpt><trkpt lat="37.6499994" lon="21.4712383"><ele>2.0</ele><time>2026-04-30T09:17:15.898Z</time></trkpt><trkpt lat="37.6501769" lon="21.4710859"><ele>2.0</ele><time>2026-04-30T09:17:16.897Z</time></trkpt><trkpt lat="37.6503544" lon="21.470946"><ele>2.0</ele><time>2026-04-30T09:17:17.898Z</time></trkpt><trkpt lat="37.650535" lon="21.4707993"><ele>2.0</ele><time>2026-04-30T09:17:18.898Z</time></trkpt><trkpt lat="37.6507158" lon="21.4706495"><ele>2.0</ele><time>2026-04-30T09:17:19.898Z</time></trkpt><trkpt lat="37.6508958" lon="21.4704979"><ele>3.0</ele><time>2026-04-30T09:17:20.898Z</time></trkpt><trkpt lat="37.6510777" lon="21.4703501"><ele>4.0</ele><time>2026-04-30T09:17:21.898Z</time></trkpt><trkpt lat="37.651248" lon="21.4702055"><ele>5.0</ele><time>2026-04-30T09:17:22.898Z</time></trkpt><trkpt lat="37.6514149" lon="21.4700592"><ele>5.333333333333334</ele><time>2026-04-30T09:17:23.898Z</time></trkpt><trkpt lat="37.6515684" lon="21.4699286"><ele>5.666666666666667</ele><time>2026-04-30T09:17:24.899Z</time></trkpt><trkpt lat="37.6517138" lon="21.4698054"><ele>6.0</ele><time>2026-04-30T09:17:25.898Z</time></trkpt><trkpt lat="37.6518548" lon="21.469692"><ele>5.5</ele><time>2026-04-30T09:17:26.899Z</time></trkpt><trkpt lat="37.6519811" lon="21.4695921"><ele>5.0</ele><time>2026-04-30T09:17:27.898Z</time></trkpt><trkpt lat="37.6520888" lon="21.4695148"><ele>4.5</ele><time>2026-04-30T09:17:28.897Z</time></trkpt><trkpt lat="37.6521874" lon="21.4694689"><ele>4.0</ele><time>2026-04-30T09:17:29.899Z</time></trkpt><trkpt lat="37.652287" lon="21.4694506"><ele>4.0</ele><time>2026-04-30T09:17:30.897Z</time></trkpt><trkpt lat="37.6523868" lon="21.4694706"><ele>4.0</ele><time>2026-04-30T09:17:31.898Z</time></trkpt><trkpt lat="37.6524928" lon="21.4695219"><ele>4.0</ele><time>2026-04-30T09:17:32.898Z</time></trkpt><trkpt lat="37.6526087" lon="21.4695956"><ele>4.0</ele><time>2026-04-30T09:17:33.898Z</time></trkpt><trkpt lat="37.6527364" lon="21.4696828"><ele>3.333333333333333</ele><time>2026-04-30T09:17:34.898Z</time></trkpt><trkpt lat="37.6528771" lon="21.4697736"><ele>2.6666666666666665</ele><time>2026-04-30T09:17:35.898Z</time></trkpt><trkpt lat="37.6530218" lon="21.4698596"><ele>2.0</ele><time>2026-04-30T09:17:36.899Z</time></trkpt><trkpt lat="37.6531691" lon="21.4699407"><ele>2.0</ele><time>2026-04-30T09:17:37.898Z</time></trkpt><trkpt lat="37.6533204" lon="21.4700263"><ele>2.0</ele><time>2026-04-30T09:17:38.898Z</time></trkpt><trkpt lat="37.6534797" lon="21.4700853"><ele>2.0</ele><time>2026-04-30T09:17:39.899Z</time></trkpt><trkpt lat="37.6536541" lon="21.4701185"><ele>2.0</ele><time>2026-04-30T09:17:40.898Z</time></trkpt><trkpt lat="37.6538449" lon="21.4701318"><ele>2.0</ele><time>2026-04-30T09:17:41.898Z</time></trkpt><trkpt lat="37.6540415" lon="21.4701273"><ele>2.0</ele><time>2026-04-30T09:17:42.897Z</time></trkpt><trkpt lat="37.6542551" lon="21.4701341"><ele>2.0</ele><time>2026-04-30T09:17:43.899Z</time></trkpt><trkpt lat="37.6544738" lon="21.4701419"><ele>2.0</ele><time>2026-04-30T09:17:44.898Z</time></trkpt><trkpt lat="37.6546933" lon="21.4701385"><ele>2.0</ele><time>2026-04-30T09:17:45.898Z</time></trkpt><trkpt lat="37.6549181" lon="21.4701238"><ele>2.0</ele><time>2026-04-30T09:17:46.899Z</time></trkpt><trkpt lat="37.6551422" lon="21.4701111"><ele>2.0</ele><time>2026-04-30T09:17:47.899Z</time></trkpt><trkpt lat="37.6553716" lon="21.4700929"><ele>3.0</ele><time>2026-04-30T09:17:48.898Z</time></trkpt><trkpt lat="37.6556023" lon="21.4700761"><ele>4.0</ele><time>2026-04-30T09:17:49.899Z</time></trkpt><trkpt lat="37.6558386" lon="21.4700568"><ele>4.0</ele><time>2026-04-30T09:17:50.898Z</time></trkpt><trkpt lat="37.6560756" lon="21.4700294"><ele>4.0</ele><time>2026-04-30T09:17:51.897Z</time></trkpt><trkpt lat="37.6563094" lon="21.4699957"><ele>4.5</ele><time>2026-04-30T09:17:52.899Z</time></trkpt><trkpt lat="37.656546" lon="21.4699549"><ele>5.0</ele><time>2026-04-30T09:17:53.899Z</time></trkpt><trkpt lat="37.6567843" lon="21.4699112"><ele>4.5</ele><time>2026-04-30T09:17:54.897Z</time></trkpt><trkpt lat="37.6570138" lon="21.4698736"><ele>4.0</ele><time>2026-04-30T09:17:55.899Z</time></trkpt><trkpt lat="37.6572492" lon="21.4698457"><ele>4.0</ele><time>2026-04-30T09:17:56.899Z</time></trkpt><trkpt lat="37.6574821" lon="21.4698231"><ele>4.0</ele><time>2026-04-30T09:17:57.898Z</time></trkpt><trkpt lat="37.6577163" lon="21.4698004"><ele>4.5</ele><time>2026-04-30T09:17:58.898Z</time></trkpt><trkpt lat="37.657963" lon="21.4697833"><ele>5.0</ele><time>2026-04-30T09:17:59.898Z</time></trkpt><trkpt lat="37.6581998" lon="21.4697683"><ele>5.0</ele><time>2026-04-30T09:18:00.899Z</time></trkpt><trkpt lat="37.6584359" lon="21.4697524"><ele>5.0</ele><time>2026-04-30T09:18:01.898Z</time></trkpt><trkpt lat="37.6586776" lon="21.4697375"><ele>6.0</ele><time>2026-04-30T09:18:02.898Z</time></trkpt><trkpt lat="37.658912" lon="21.469728"><ele>7.0</ele><time>2026-04-30T09:18:03.899Z</time></trkpt><trkpt lat="37.6591535" lon="21.4697294"><ele>7.0</ele><time>2026-04-30T09:18:04.898Z</time></trkpt><trkpt lat="37.6593922" lon="21.4697173"><ele>7.0</ele><time>2026-04-30T09:18:05.899Z</time></trkpt><trkpt lat="37.6596345" lon="21.4697073"><ele>7.0</ele><time>2026-04-30T09:18:06.898Z</time></trkpt><trkpt lat="37.6598792" lon="21.469697"><ele>7.0</ele><time>2026-04-30T09:18:07.898Z</time></trkpt><trkpt lat="37.6601234" lon="21.4697081"><ele>7.0</ele><time>2026-04-30T09:18:08.899Z</time></trkpt><trkpt lat="37.6603501" lon="21.4697369"><ele>7.0</ele><time>2026-04-30T09:18:09.898Z</time></trkpt><trkpt lat="37.6605664" lon="21.4697625"><ele>7.0</ele><time>2026-04-30T09:18:10.899Z</time></trkpt><trkpt lat="37.6607752" lon="21.4697914"><ele>7.0</ele><time>2026-04-30T09:18:11.899Z</time></trkpt><trkpt lat="37.6609701" lon="21.4698168"><ele>7.0</ele><time>2026-04-30T09:18:12.899Z</time></trkpt><trkpt lat="37.6611378" lon="21.4698329"><ele>7.0</ele><time>2026-04-30T09:18:13.899Z</time></trkpt><trkpt lat="37.6613042" lon="21.46986"><ele>6.666666666666667</ele><time>2026-04-30T09:18:14.897Z</time></trkpt><trkpt lat="37.6614598" lon="21.4699079"><ele>6.333333333333334</ele><time>2026-04-30T09:18:15.899Z</time></trkpt><trkpt lat="37.6616149" lon="21.4699786"><ele>6.0</ele><time>2026-04-30T09:18:16.898Z</time></trkpt><trkpt lat="37.661779" lon="21.470071"><ele>6.0</ele><time>2026-04-30T09:18:17.899Z</time></trkpt><trkpt lat="37.6619457" lon="21.4701892"><ele>6.0</ele><time>2026-04-30T09:18:18.899Z</time></trkpt><trkpt lat="37.6621124" lon="21.470328"><ele>6.0</ele><time>2026-04-30T09:18:19.899Z</time></trkpt><trkpt lat="37.6622814" lon="21.4704839"><ele>6.0</ele><time>2026-04-30T09:18:20.899Z</time></trkpt><trkpt lat="37.662445" lon="21.4706362"><ele>6.0</ele><time>2026-04-30T09:18:21.898Z</time></trkpt><trkpt lat="37.6626093" lon="21.4707923"><ele>6.0</ele><time>2026-04-30T09:18:22.899Z</time></trkpt><trkpt lat="37.66277" lon="21.4709521"><ele>6.333333333333334</ele><time>2026-04-30T09:18:23.899Z</time></trkpt><trkpt lat="37.6629279" lon="21.4711062"><ele>6.666666666666667</ele><time>2026-04-30T09:18:24.898Z</time></trkpt><trkpt lat="37.6630829" lon="21.4712777"><ele>7.0</ele><time>2026-04-30T09:18:25.899Z</time></trkpt><trkpt lat="37.6632245" lon="21.4714588"><ele>7.0</ele><time>2026-04-30T09:18:26.898Z</time></trkpt><trkpt lat="37.6633616" lon="21.471653"><ele>7.0</ele><time>2026-04-30T09:18:27.898Z</time></trkpt><trkpt lat="37.6635014" lon="21.4718467"><ele>7.0</ele><time>2026-04-30T09:18:28.898Z</time></trkpt><trkpt lat="37.663634" lon="21.4720415"><ele>7.0</ele><time>2026-04-30T09:18:29.898Z</time></trkpt><trkpt lat="37.6637689" lon="21.4722345"><ele>7.0</ele><time>2026-04-30T09:18:30.898Z</time></trkpt><trkpt lat="37.6639028" lon="21.4724255"><ele>7.0</ele><time>2026-04-30T09:18:31.898Z</time></trkpt><trkpt lat="37.6640407" lon="21.4726072"><ele>7.0</ele><time>2026-04-30T09:18:32.899Z</time></trkpt><trkpt lat="37.6641958" lon="21.4727852"><ele>7.0</ele><time>2026-04-30T09:18:33.899Z</time></trkpt><trkpt lat="37.6643524" lon="21.4729415"><ele>7.0</ele><time>2026-04-30T09:18:34.899Z</time></trkpt><trkpt lat="37.6645182" lon="21.4730852"><ele>7.666666666666667</ele><time>2026-04-30T09:18:35.898Z</time></trkpt><trkpt lat="37.6646881" lon="21.4732151"><ele>8.333333333333334</ele><time>2026-04-30T09:18:36.899Z</time></trkpt><trkpt lat="37.664864" lon="21.4733385"><ele>9.0</ele><time>2026-04-30T09:18:37.899Z</time></trkpt><trkpt lat="37.6650408" lon="21.4734572"><ele>9.0</ele><time>2026-04-30T09:18:38.897Z</time></trkpt><trkpt lat="37.6652167" lon="21.4735615"><ele>9.0</ele><time>2026-04-30T09:18:39.898Z</time></trkpt><trkpt lat="37.6653953" lon="21.4736401"><ele>9.0</ele><time>2026-04-30T09:18:40.898Z</time></trkpt><trkpt lat="37.6655799" lon="21.4736958"><ele>9.666666666666666</ele><time>2026-04-30T09:18:41.899Z</time></trkpt><trkpt lat="37.6657653" lon="21.4737306"><ele>10.333333333333332</ele><time>2026-04-30T09:18:42.899Z</time></trkpt><trkpt lat="37.665935" lon="21.473744"><ele>11.0</ele><time>2026-04-30T09:18:43.899Z</time></trkpt><trkpt lat="37.6661216" lon="21.4737329"><ele>11.666666666666666</ele><time>2026-04-30T09:18:44.899Z</time></trkpt><trkpt lat="37.6662986" lon="21.473728"><ele>12.333333333333332</ele><time>2026-04-30T09:18:45.898Z</time></trkpt><trkpt lat="37.6664709" lon="21.4737354"><ele>13.0</ele><time>2026-04-30T09:18:46.898Z</time></trkpt><trkpt lat="37.6666259" lon="21.473741"><ele>13.0</ele><time>2026-04-30T09:18:47.898Z</time></trkpt><trkpt lat="37.6667817" lon="21.4737266"><ele>13.0</ele><time>2026-04-30T09:18:48.899Z</time></trkpt><trkpt lat="37.6669102" lon="21.4737301"><ele>13.0</ele><time>2026-04-30T09:18:49.898Z</time></trkpt><trkpt lat="37.6670267" lon="21.4737365"><ele>13.0</ele><time>2026-04-30T09:18:50.898Z</time></trkpt><trkpt lat="37.6671381" lon="21.4737437"><ele>13.25</ele><time>2026-04-30T09:18:51.898Z</time></trkpt><trkpt lat="37.6672429" lon="21.4737519"><ele>13.5</ele><time>2026-04-30T09:18:52.897Z</time></trkpt><trkpt lat="37.667362" lon="21.4737407"><ele>13.75</ele><time>2026-04-30T09:18:53.898Z</time></trkpt><trkpt lat="37.6674872" lon="21.4737567"><ele>14.0</ele><time>2026-04-30T09:18:54.898Z</time></trkpt><trkpt lat="37.6676147" lon="21.4737809"><ele>14.0</ele><time>2026-04-30T09:18:55.899Z</time></trkpt><trkpt lat="37.6677489" lon="21.4737983"><ele>14.0</ele><time>2026-04-30T09:18:56.898Z</time></trkpt><trkpt lat="37.667881" lon="21.4738111"><ele>14.0</ele><time>2026-04-30T09:18:57.898Z</time></trkpt><trkpt lat="37.6680148" lon="21.4738319"><ele>14.0</ele><time>2026-04-30T09:18:58.899Z</time></trkpt><trkpt lat="37.6681487" lon="21.4738513"><ele>14.5</ele><time>2026-04-30T09:18:59.897Z</time></trkpt><trkpt lat="37.6682812" lon="21.4738718"><ele>15.0</ele><time>2026-04-30T09:19:00.899Z</time></trkpt><trkpt lat="37.6684152" lon="21.4738898"><ele>15.5</ele><time>2026-04-30T09:19:01.898Z</time></trkpt><trkpt lat="37.668551" lon="21.4739031"><ele>16.0</ele><time>2026-04-30T09:19:02.899Z</time></trkpt><trkpt lat="37.6686781" lon="21.4739234"><ele>16.0</ele><time>2026-04-30T09:19:03.899Z</time></trkpt><trkpt lat="37.6688063" lon="21.4739338"><ele>16.0</ele><time>2026-04-30T09:19:04.898Z</time></trkpt><trkpt lat="37.6689312" lon="21.4739373"><ele>16.0</ele><time>2026-04-30T09:19:05.898Z</time></trkpt><trkpt lat="37.6690482" lon="21.4739266"><ele>16.0</ele><time>2026-04-30T09:19:06.899Z</time></trkpt><trkpt lat="37.669155" lon="21.4739158"><ele>15.999999999999998</ele><time>2026-04-30T09:19:07.899Z</time></trkpt><trkpt lat="37.6692562" lon="21.4739009"><ele>16.0</ele><time>2026-04-30T09:19:08.899Z</time></trkpt><trkpt lat="37.6693396" lon="21.4738943"><ele>16.0</ele><time>2026-04-30T09:19:09.898Z</time></trkpt><trkpt lat="37.6694157" lon="21.4738947"><ele>16.0</ele><time>2026-04-30T09:19:10.898Z</time></trkpt><trkpt lat="37.6694976" lon="21.4739061"><ele>15.999999999999998</ele><time>2026-04-30T09:19:11.898Z</time></trkpt><trkpt lat="37.6695764" lon="21.4739251"><ele>16.0</ele><time>2026-04-30T09:19:12.898Z</time></trkpt><trkpt lat="37.6696623" lon="21.4739279"><ele>16.333333333333332</ele><time>2026-04-30T09:19:13.898Z</time></trkpt><trkpt lat="37.6697364" lon="21.473949"><ele>16.666666666666664</ele><time>2026-04-30T09:19:14.898Z</time></trkpt><trkpt lat="37.6698092" lon="21.4739477"><ele>17.0</ele><time>2026-04-30T09:19:15.898Z</time></trkpt><trkpt lat="37.6699361" lon="21.4739521"><ele>17.333333333333332</ele><time>2026-04-30T09:19:17.898Z</time></trkpt><trkpt lat="37.6700036" lon="21.4739544"><ele>17.666666666666668</ele><time>2026-04-30T09:19:18.899Z</time></trkpt><trkpt lat="37.6701061" lon="21.4739468"><ele>18.0</ele><time>2026-04-30T09:19:20.898Z</time></trkpt><trkpt lat="37.6701764" lon="21.4739559"><ele>18.0</ele><time>2026-04-30T09:19:22.898Z</time></trkpt><trkpt lat="37.6702418" lon="21.4739645"><ele>18.0</ele><time>2026-04-30T09:19:24.899Z</time></trkpt><trkpt lat="37.6703408" lon="21.4739694"><ele>18.0</ele><time>2026-04-30T09:19:27.899Z</time></trkpt><trkpt lat="37.6703914" lon="21.4740475"><ele>18.0</ele><time>2026-04-30T09:19:29.899Z</time></trkpt><trkpt lat="37.6703932" lon="21.4742241"><ele>18.0</ele><time>2026-04-30T09:19:31.898Z</time></trkpt><trkpt lat="37.670373" lon="21.4743409"><ele>18.25</ele><time>2026-04-30T09:19:32.899Z</time></trkpt><trkpt lat="37.6703625" lon="21.4744527"><ele>18.5</ele><time>2026-04-30T09:19:33.898Z</time></trkpt><trkpt lat="37.6703558" lon="21.4745968"><ele>18.75</ele><time>2026-04-30T09:19:34.899Z</time></trkpt><trkpt lat="37.6703361" lon="21.4747623"><ele>19.0</ele><time>2026-04-30T09:19:35.898Z</time></trkpt><trkpt lat="37.670315" lon="21.4749366"><ele>19.0</ele><time>2026-04-30T09:19:36.899Z</time></trkpt><trkpt lat="37.6702919" lon="21.4751233"><ele>19.0</ele><time>2026-04-30T09:19:37.899Z</time></trkpt><trkpt lat="37.6702752" lon="21.4753252"><ele>19.0</ele><time>2026-04-30T09:19:38.898Z</time></trkpt><trkpt lat="37.6702591" lon="21.4755442"><ele>19.0</ele><time>2026-04-30T09:19:39.896Z</time></trkpt><trkpt lat="37.6702483" lon="21.4757753"><ele>19.0</ele><time>2026-04-30T09:19:40.898Z</time></trkpt><trkpt lat="37.6702292" lon="21.4760094"><ele>19.0</ele><time>2026-04-30T09:19:41.897Z</time></trkpt><trkpt lat="37.6702096" lon="21.4762573"><ele>19.0</ele><time>2026-04-30T09:19:42.898Z</time></trkpt><trkpt lat="37.6702003" lon="21.4765173"><ele>19.0</ele><time>2026-04-30T09:19:43.898Z</time></trkpt><trkpt lat="37.6701878" lon="21.476778"><ele>19.0</ele><time>2026-04-30T09:19:44.897Z</time></trkpt><trkpt lat="37.6701768" lon="21.4770464"><ele>19.333333333333332</ele><time>2026-04-30T09:19:45.897Z</time></trkpt><trkpt lat="37.6701672" lon="21.4773122"><ele>19.666666666666668</ele><time>2026-04-30T09:19:46.898Z</time></trkpt><trkpt lat="37.670157" lon="21.4775906"><ele>20.0</ele><time>2026-04-30T09:19:47.895Z</time></trkpt><trkpt lat="37.6701462" lon="21.4778791"><ele>20.0</ele><time>2026-04-30T09:19:48.898Z</time></trkpt><trkpt lat="37.6701363" lon="21.4781684"><ele>20.0</ele><time>2026-04-30T09:19:49.897Z</time></trkpt><trkpt lat="37.6701308" lon="21.478478"><ele>21.5</ele><time>2026-04-30T09:19:50.897Z</time></trkpt><trkpt lat="37.6701204" lon="21.4787731"><ele>23.0</ele><time>2026-04-30T09:19:51.896Z</time></trkpt><trkpt lat="37.6701238" lon="21.4790701"><ele>23.0</ele><time>2026-04-30T09:19:52.897Z</time></trkpt><trkpt lat="37.6701138" lon="21.4793712"><ele>23.0</ele><time>2026-04-30T09:19:53.899Z</time></trkpt><trkpt lat="37.6701053" lon="21.4796766"><ele>22.5</ele><time>2026-04-30T09:19:54.898Z</time></trkpt><trkpt lat="37.6700985" lon="21.4799732"><ele>22.0</ele><time>2026-04-30T09:19:55.898Z</time></trkpt><trkpt lat="37.6700869" lon="21.4802711"><ele>22.0</ele><time>2026-04-30T09:19:56.899Z</time></trkpt><trkpt lat="37.6700787" lon="21.480569"><ele>22.0</ele><time>2026-04-30T09:19:57.899Z</time></trkpt><trkpt lat="37.6700708" lon="21.4808648"><ele>22.0</ele><time>2026-04-30T09:19:58.896Z</time></trkpt><trkpt lat="37.6700598" lon="21.4811534"><ele>22.0</ele><time>2026-04-30T09:19:59.897Z</time></trkpt><trkpt lat="37.6700507" lon="21.4814428"><ele>23.5</ele><time>2026-04-30T09:20:00.898Z</time></trkpt><trkpt lat="37.6700369" lon="21.4817262"><ele>25.0</ele><time>2026-04-30T09:20:01.899Z</time></trkpt><trkpt lat="37.6700269" lon="21.4820241"><ele>24.5</ele><time>2026-04-30T09:20:02.899Z</time></trkpt><trkpt lat="37.6700395" lon="21.4823286"><ele>24.0</ele><time>2026-04-30T09:20:03.898Z</time></trkpt><trkpt lat="37.6700316" lon="21.4826438"><ele>25.0</ele><time>2026-04-30T09:20:04.899Z</time></trkpt><trkpt lat="37.6700238" lon="21.4829715"><ele>26.0</ele><time>2026-04-30T09:20:05.898Z</time></trkpt><trkpt lat="37.6700229" lon="21.4833098"><ele>26.0</ele><time>2026-04-30T09:20:06.898Z</time></trkpt><trkpt lat="37.6700141" lon="21.4836397"><ele>26.0</ele><time>2026-04-30T09:20:07.898Z</time></trkpt><trkpt lat="37.6700059" lon="21.4839771"><ele>27.5</ele><time>2026-04-30T09:20:08.898Z</time></trkpt><trkpt lat="37.6699945" lon="21.4842947"><ele>29.0</ele><time>2026-04-30T09:20:09.898Z</time></trkpt><trkpt lat="37.6699847" lon="21.4846149"><ele>30.5</ele><time>2026-04-30T09:20:10.898Z</time></trkpt><trkpt lat="37.6699806" lon="21.4849288"><ele>32.0</ele><time>2026-04-30T09:20:11.898Z</time></trkpt><trkpt lat="37.669977" lon="21.4852358"><ele>32.5</ele><time>2026-04-30T09:20:12.899Z</time></trkpt><trkpt lat="37.6699668" lon="21.4855375"><ele>33.0</ele><time>2026-04-30T09:20:13.897Z</time></trkpt><trkpt lat="37.6699569" lon="21.4858376"><ele>33.0</ele><time>2026-04-30T09:20:14.897Z</time></trkpt><trkpt lat="37.6699498" lon="21.4861436"><ele>33.0</ele><time>2026-04-30T09:20:15.898Z</time></trkpt><trkpt lat="37.6699396" lon="21.4864521"><ele>33.0</ele><time>2026-04-30T09:20:16.899Z</time></trkpt><trkpt lat="37.6699317" lon="21.4867726"><ele>33.0</ele><time>2026-04-30T09:20:17.897Z</time></trkpt><trkpt lat="37.6699291" lon="21.4870925"><ele>34.0</ele><time>2026-04-30T09:20:18.898Z</time></trkpt><trkpt lat="37.6699204" lon="21.4874288"><ele>35.0</ele><time>2026-04-30T09:20:19.898Z</time></trkpt><trkpt lat="37.6699076" lon="21.4877669"><ele>35.0</ele><time>2026-04-30T09:20:20.897Z</time></trkpt><trkpt lat="37.6698977" lon="21.48811"><ele>35.0</ele><time>2026-04-30T09:20:21.898Z</time></trkpt><trkpt lat="37.6698805" lon="21.4884497"><ele>36.0</ele><time>2026-04-30T09:20:22.899Z</time></trkpt><trkpt lat="37.6698695" lon="21.4887857"><ele>37.0</ele><time>2026-04-30T09:20:23.898Z</time></trkpt><trkpt lat="37.66986" lon="21.4891239"><ele>37.0</ele><time>2026-04-30T09:20:24.898Z</time></trkpt><trkpt lat="37.669847" lon="21.4894545"><ele>37.0</ele><time>2026-04-30T09:20:25.899Z</time></trkpt><trkpt lat="37.669841" lon="21.4897858"><ele>37.5</ele><time>2026-04-30T09:20:26.899Z</time></trkpt><trkpt lat="37.6698403" lon="21.4901203"><ele>38.0</ele><time>2026-04-30T09:20:27.898Z</time></trkpt><trkpt lat="37.6698377" lon="21.4904427"><ele>38.5</ele><time>2026-04-30T09:20:28.899Z</time></trkpt><trkpt lat="37.6698293" lon="21.4907582"><ele>39.0</ele><time>2026-04-30T09:20:29.897Z</time></trkpt><trkpt lat="37.6698159" lon="21.4910653"><ele>38.5</ele><time>2026-04-30T09:20:30.896Z</time></trkpt><trkpt lat="37.6697996" lon="21.4913724"><ele>38.0</ele><time>2026-04-30T09:20:31.898Z</time></trkpt><trkpt lat="37.6697756" lon="21.4916761"><ele>38.0</ele><time>2026-04-30T09:20:32.897Z</time></trkpt><trkpt lat="37.6697475" lon="21.4919797"><ele>38.0</ele><time>2026-04-30T09:20:33.896Z</time></trkpt><trkpt lat="37.6697142" lon="21.4922957"><ele>35.5</ele><time>2026-04-30T09:20:34.899Z</time></trkpt><trkpt lat="37.6696782" lon="21.4926052"><ele>33.0</ele><time>2026-04-30T09:20:35.898Z</time></trkpt><trkpt lat="37.6696483" lon="21.4929086"><ele>32.333333333333336</ele><time>2026-04-30T09:20:36.896Z</time></trkpt><trkpt lat="37.6696161" lon="21.4931974"><ele>31.666666666666668</ele><time>2026-04-30T09:20:37.898Z</time></trkpt><trkpt lat="37.6695838" lon="21.4934629"><ele>31.0</ele><time>2026-04-30T09:20:38.898Z</time></trkpt><trkpt lat="37.6695577" lon="21.4937081"><ele>30.333333333333336</ele><time>2026-04-30T09:20:39.899Z</time></trkpt><trkpt lat="37.6695347" lon="21.4939408"><ele>29.666666666666664</ele><time>2026-04-30T09:20:40.897Z</time></trkpt><trkpt lat="37.6695132" lon="21.4941537"><ele>29.0</ele><time>2026-04-30T09:20:41.898Z</time></trkpt><trkpt lat="37.6694889" lon="21.4943557"><ele>29.0</ele><time>2026-04-30T09:20:42.899Z</time></trkpt><trkpt lat="37.6694656" lon="21.4945488"><ele>29.0</ele><time>2026-04-30T09:20:43.897Z</time></trkpt><trkpt lat="37.6694378" lon="21.4947356"><ele>29.0</ele><time>2026-04-30T09:20:44.897Z</time></trkpt><trkpt lat="37.6694144" lon="21.4949192"><ele>28.75</ele><time>2026-04-30T09:20:45.898Z</time></trkpt><trkpt lat="37.6693917" lon="21.4951037"><ele>28.5</ele><time>2026-04-30T09:20:46.898Z</time></trkpt><trkpt lat="37.6693716" lon="21.4952762"><ele>28.25</ele><time>2026-04-30T09:20:47.898Z</time></trkpt><trkpt lat="37.6693489" lon="21.495451"><ele>28.0</ele><time>2026-04-30T09:20:48.897Z</time></trkpt><trkpt lat="37.6693166" lon="21.4956256"><ele>28.25</ele><time>2026-04-30T09:20:49.896Z</time></trkpt><trkpt lat="37.669292" lon="21.4958058"><ele>28.5</ele><time>2026-04-30T09:20:50.896Z</time></trkpt><trkpt lat="37.6692756" lon="21.4959823"><ele>28.75</ele><time>2026-04-30T09:20:51.898Z</time></trkpt><trkpt lat="37.669251" lon="21.4961624"><ele>29.0</ele><time>2026-04-30T09:20:52.896Z</time></trkpt><trkpt lat="37.6692319" lon="21.4963375"><ele>29.0</ele><time>2026-04-30T09:20:53.898Z</time></trkpt><trkpt lat="37.6692139" lon="21.4965095"><ele>29.0</ele><time>2026-04-30T09:20:54.897Z</time></trkpt><trkpt lat="37.6691971" lon="21.4966783"><ele>29.0</ele><time>2026-04-30T09:20:55.897Z</time></trkpt><trkpt lat="37.6691777" lon="21.4968498"><ele>29.0</ele><time>2026-04-30T09:20:56.898Z</time></trkpt><trkpt lat="37.6691561" lon="21.4970267"><ele>29.0</ele><time>2026-04-30T09:20:57.897Z</time></trkpt><trkpt lat="37.6691401" lon="21.4972048"><ele>29.0</ele><time>2026-04-30T09:20:58.898Z</time></trkpt><trkpt lat="37.669117" lon="21.4973918"><ele>29.0</ele><time>2026-04-30T09:20:59.897Z</time></trkpt><trkpt lat="37.6690975" lon="21.4975798"><ele>29.0</ele><time>2026-04-30T09:21:00.896Z</time></trkpt><trkpt lat="37.6690773" lon="21.4977725"><ele>29.333333333333332</ele><time>2026-04-30T09:21:01.897Z</time></trkpt><trkpt lat="37.6690621" lon="21.4979749"><ele>29.666666666666664</ele><time>2026-04-30T09:21:02.898Z</time></trkpt><trkpt lat="37.6690379" lon="21.4981756"><ele>30.0</ele><time>2026-04-30T09:21:03.899Z</time></trkpt><trkpt lat="37.6690117" lon="21.4983759"><ele>30.0</ele><time>2026-04-30T09:21:04.896Z</time></trkpt><trkpt lat="37.6689847" lon="21.4985813"><ele>30.0</ele><time>2026-04-30T09:21:05.897Z</time></trkpt><trkpt lat="37.6689476" lon="21.4987851"><ele>30.0</ele><time>2026-04-30T09:21:06.898Z</time></trkpt><trkpt lat="37.6689263" lon="21.4990033"><ele>30.333333333333336</ele><time>2026-04-30T09:21:07.898Z</time></trkpt><trkpt lat="37.6688996" lon="21.4992348"><ele>30.666666666666668</ele><time>2026-04-30T09:21:08.897Z</time></trkpt><trkpt lat="37.6688767" lon="21.4994963"><ele>31.0</ele><time>2026-04-30T09:21:09.898Z</time></trkpt><trkpt lat="37.6688664" lon="21.4997643"><ele>33.0</ele><time>2026-04-30T09:21:10.898Z</time></trkpt><trkpt lat="37.6688512" lon="21.500028"><ele>35.0</ele><time>2026-04-30T09:21:11.897Z</time></trkpt><trkpt lat="37.6688529" lon="21.5002928"><ele>37.0</ele><time>2026-04-30T09:21:12.898Z</time></trkpt><trkpt lat="37.6688624" lon="21.5005589"><ele>39.0</ele><time>2026-04-30T09:21:13.897Z</time></trkpt><trkpt lat="37.6688733" lon="21.5008258"><ele>41.0</ele><time>2026-04-30T09:21:14.897Z</time></trkpt><trkpt lat="37.668881" lon="21.5010884"><ele>43.0</ele><time>2026-04-30T09:21:15.899Z</time></trkpt><trkpt lat="37.6688919" lon="21.5013649"><ele>44.0</ele><time>2026-04-30T09:21:16.898Z</time></trkpt><trkpt lat="37.6689105" lon="21.5016455"><ele>45.0</ele><time>2026-04-30T09:21:17.896Z</time></trkpt><trkpt lat="37.6689363" lon="21.5019284"><ele>46.0</ele><time>2026-04-30T09:21:18.898Z</time></trkpt><trkpt lat="37.6689514" lon="21.502212"><ele>47.0</ele><time>2026-04-30T09:21:19.899Z</time></trkpt><trkpt lat="37.6689613" lon="21.5025015"><ele>48.0</ele><time>2026-04-30T09:21:20.897Z</time></trkpt><trkpt lat="37.6689526" lon="21.5027943"><ele>48.33333333333333</ele><time>2026-04-30T09:21:21.897Z</time></trkpt><trkpt lat="37.6689322" lon="21.5030792"><ele>48.666666666666664</ele><time>2026-04-30T09:21:22.897Z</time></trkpt><trkpt lat="37.6688797" lon="21.5033374"><ele>49.0</ele><time>2026-04-30T09:21:23.896Z</time></trkpt><trkpt lat="37.6688136" lon="21.5035968"><ele>49.0</ele><time>2026-04-30T09:21:24.897Z</time></trkpt><trkpt lat="37.6687416" lon="21.5038495"><ele>49.0</ele><time>2026-04-30T09:21:25.897Z</time></trkpt><trkpt lat="37.6686717" lon="21.5040906"><ele>49.0</ele><time>2026-04-30T09:21:26.898Z</time></trkpt><trkpt lat="37.6686032" lon="21.5043117"><ele>52.33333333333333</ele><time>2026-04-30T09:21:27.898Z</time></trkpt><trkpt lat="37.6685324" lon="21.5045285"><ele>55.66666666666667</ele><time>2026-04-30T09:21:28.897Z</time></trkpt><trkpt lat="37.6684712" lon="21.5047303"><ele>59.0</ele><time>2026-04-30T09:21:29.896Z</time></trkpt><trkpt lat="37.6684137" lon="21.5049176"><ele>59.0</ele><time>2026-04-30T09:21:30.897Z</time></trkpt><trkpt lat="37.6683558" lon="21.5050986"><ele>59.0</ele><time>2026-04-30T09:21:31.897Z</time></trkpt><trkpt lat="37.6683039" lon="21.5052799"><ele>59.0</ele><time>2026-04-30T09:21:32.897Z</time></trkpt><trkpt lat="37.6682561" lon="21.5054509"><ele>59.75</ele><time>2026-04-30T09:21:33.896Z</time></trkpt><trkpt lat="37.6682145" lon="21.5056165"><ele>60.5</ele><time>2026-04-30T09:21:34.899Z</time></trkpt><trkpt lat="37.6681743" lon="21.505779"><ele>61.25</ele><time>2026-04-30T09:21:35.897Z</time></trkpt><trkpt lat="37.6681427" lon="21.5059563"><ele>62.0</ele><time>2026-04-30T09:21:36.897Z</time></trkpt><trkpt lat="37.6681121" lon="21.5061697"><ele>62.333333333333336</ele><time>2026-04-30T09:21:37.896Z</time></trkpt><trkpt lat="37.6680831" lon="21.5064175"><ele>62.66666666666667</ele><time>2026-04-30T09:21:38.897Z</time></trkpt><trkpt lat="37.668043" lon="21.5066991"><ele>63.0</ele><time>2026-04-30T09:21:39.898Z</time></trkpt><trkpt lat="37.6679909" lon="21.5069839"><ele>64.0</ele><time>2026-04-30T09:21:40.899Z</time></trkpt><trkpt lat="37.6679467" lon="21.5072707"><ele>65.0</ele><time>2026-04-30T09:21:41.899Z</time></trkpt><trkpt lat="37.6679079" lon="21.507544"><ele>65.0</ele><time>2026-04-30T09:21:42.897Z</time></trkpt><trkpt lat="37.6678895" lon="21.5078151"><ele>65.0</ele><time>2026-04-30T09:21:43.897Z</time></trkpt><trkpt lat="37.6679003" lon="21.5080873"><ele>65.0</ele><time>2026-04-30T09:21:44.896Z</time></trkpt><trkpt lat="37.6679303" lon="21.5083586"><ele>66.66666666666667</ele><time>2026-04-30T09:21:45.897Z</time></trkpt><trkpt lat="37.6679846" lon="21.508626"><ele>68.33333333333333</ele><time>2026-04-30T09:21:46.898Z</time></trkpt><trkpt lat="37.6680567" lon="21.5088902"><ele>70.0</ele><time>2026-04-30T09:21:47.897Z</time></trkpt><trkpt lat="37.6681486" lon="21.5091509"><ele>76.5</ele><time>2026-04-30T09:21:48.898Z</time></trkpt><trkpt lat="37.6682523" lon="21.5094179"><ele>83.0</ele><time>2026-04-30T09:21:49.898Z</time></trkpt><trkpt lat="37.668359" lon="21.5096821"><ele>87.5</ele><time>2026-04-30T09:21:50.897Z</time></trkpt><trkpt lat="37.6684694" lon="21.5099525"><ele>92.0</ele><time>2026-04-30T09:21:51.898Z</time></trkpt><trkpt lat="37.6685842" lon="21.5102322"><ele>91.0</ele><time>2026-04-30T09:21:52.899Z</time></trkpt><trkpt lat="37.6686918" lon="21.5105056"><ele>90.0</ele><time>2026-04-30T09:21:53.899Z</time></trkpt><trkpt lat="37.6688031" lon="21.5107694"><ele>90.0</ele><time>2026-04-30T09:21:54.898Z</time></trkpt><trkpt lat="37.6689156" lon="21.5110403"><ele>90.0</ele><time>2026-04-30T09:21:55.896Z</time></trkpt><trkpt lat="37.669034" lon="21.5113215"><ele>89.5</ele><time>2026-04-30T09:21:56.897Z</time></trkpt><trkpt lat="37.6691476" lon="21.5115868"><ele>89.0</ele><time>2026-04-30T09:21:57.896Z</time></trkpt><trkpt lat="37.6692457" lon="21.5118561"><ele>89.5</ele><time>2026-04-30T09:21:58.898Z</time></trkpt><trkpt lat="37.6693318" lon="21.5121339"><ele>90.0</ele><time>2026-04-30T09:21:59.897Z</time></trkpt><trkpt lat="37.6694095" lon="21.5124365"><ele>95.0</ele><time>2026-04-30T09:22:00.897Z</time></trkpt><trkpt lat="37.6694663" lon="21.5127408"><ele>100.0</ele><time>2026-04-30T09:22:01.897Z</time></trkpt><trkpt lat="37.6695017" lon="21.5130619"><ele>100.0</ele><time>2026-04-30T09:22:02.896Z</time></trkpt><trkpt lat="37.6695181" lon="21.5133925"><ele>100.0</ele><time>2026-04-30T09:22:03.898Z</time></trkpt><trkpt lat="37.6695221" lon="21.5137225"><ele>100.5</ele><time>2026-04-30T09:22:04.897Z</time></trkpt><trkpt lat="37.669523" lon="21.5140468"><ele>101.0</ele><time>2026-04-30T09:22:05.898Z</time></trkpt><trkpt lat="37.6695182" lon="21.5143646"><ele>102.0</ele><time>2026-04-30T09:22:06.898Z</time></trkpt><trkpt lat="37.6695058" lon="21.5146794"><ele>103.0</ele><time>2026-04-30T09:22:07.896Z</time></trkpt><trkpt lat="37.6694887" lon="21.5149851"><ele>103.0</ele><time>2026-04-30T09:22:08.898Z</time></trkpt><trkpt lat="37.6694574" lon="21.5152784"><ele>103.0</ele><time>2026-04-30T09:22:09.896Z</time></trkpt><trkpt lat="37.6694115" lon="21.515583"><ele>98.0</ele><time>2026-04-30T09:22:10.897Z</time></trkpt><trkpt lat="37.6693643" lon="21.5158855"><ele>93.0</ele><time>2026-04-30T09:22:11.898Z</time></trkpt><trkpt lat="37.6693071" lon="21.516183"><ele>90.5</ele><time>2026-04-30T09:22:12.897Z</time></trkpt><trkpt lat="37.6692472" lon="21.5164809"><ele>88.0</ele><time>2026-04-30T09:22:13.897Z</time></trkpt><trkpt lat="37.6691878" lon="21.516773"><ele>86.0</ele><time>2026-04-30T09:22:14.897Z</time></trkpt><trkpt lat="37.6691258" lon="21.5170761"><ele>84.0</ele><time>2026-04-30T09:22:15.897Z</time></trkpt><trkpt lat="37.6690672" lon="21.5173759"><ele>84.0</ele><time>2026-04-30T09:22:16.898Z</time></trkpt><trkpt lat="37.6690115" lon="21.5176728"><ele>84.0</ele><time>2026-04-30T09:22:17.899Z</time></trkpt><trkpt lat="37.6689609" lon="21.517967"><ele>85.5</ele><time>2026-04-30T09:22:18.897Z</time></trkpt><trkpt lat="37.6689166" lon="21.5182616"><ele>87.0</ele><time>2026-04-30T09:22:19.898Z</time></trkpt><trkpt lat="37.668885" lon="21.5185593"><ele>84.0</ele><time>2026-04-30T09:22:20.896Z</time></trkpt><trkpt lat="37.6688706" lon="21.5188618"><ele>81.0</ele><time>2026-04-30T09:22:21.899Z</time></trkpt><trkpt lat="37.6688754" lon="21.5191723"><ele>81.0</ele><time>2026-04-30T09:22:22.897Z</time></trkpt><trkpt lat="37.6688933" lon="21.5194869"><ele>81.0</ele><time>2026-04-30T09:22:23.895Z</time></trkpt><trkpt lat="37.6689296" lon="21.5197986"><ele>76.5</ele><time>2026-04-30T09:22:24.897Z</time></trkpt><trkpt lat="37.6689757" lon="21.5201042"><ele>72.0</ele><time>2026-04-30T09:22:25.897Z</time></trkpt><trkpt lat="37.6690528" lon="21.5204081"><ele>70.5</ele><time>2026-04-30T09:22:26.897Z</time></trkpt><trkpt lat="37.6691318" lon="21.5206942"><ele>69.0</ele><time>2026-04-30T09:22:27.898Z</time></trkpt><trkpt lat="37.6692362" lon="21.5209885"><ele>70.5</ele><time>2026-04-30T09:22:28.898Z</time></trkpt><trkpt lat="37.6693568" lon="21.5212827"><ele>72.0</ele><time>2026-04-30T09:22:29.898Z</time></trkpt><trkpt lat="37.6695077" lon="21.5215797"><ele>64.5</ele><time>2026-04-30T09:22:30.898Z</time></trkpt><trkpt lat="37.6696636" lon="21.5218662"><ele>57.0</ele><time>2026-04-30T09:22:31.897Z</time></trkpt><trkpt lat="37.6698188" lon="21.5221433"><ele>57.0</ele><time>2026-04-30T09:22:32.899Z</time></trkpt><trkpt lat="37.6699745" lon="21.522395"><ele>57.0</ele><time>2026-04-30T09:22:33.899Z</time></trkpt><trkpt lat="37.6701243" lon="21.5226314"><ele>57.0</ele><time>2026-04-30T09:22:34.896Z</time></trkpt><trkpt lat="37.6702626" lon="21.5228523"><ele>57.0</ele><time>2026-04-30T09:22:35.898Z</time></trkpt><trkpt lat="37.6703888" lon="21.5230718"><ele>57.0</ele><time>2026-04-30T09:22:36.896Z</time></trkpt><trkpt lat="37.6705093" lon="21.5232853"><ele>55.33333333333333</ele><time>2026-04-30T09:22:37.896Z</time></trkpt><trkpt lat="37.6706366" lon="21.5234854"><ele>53.666666666666664</ele><time>2026-04-30T09:22:38.897Z</time></trkpt><trkpt lat="37.6707612" lon="21.5236825"><ele>52.0</ele><time>2026-04-30T09:22:39.899Z</time></trkpt><trkpt lat="37.6708769" lon="21.5238715"><ele>52.0</ele><time>2026-04-30T09:22:40.899Z</time></trkpt><trkpt lat="37.6709926" lon="21.5240595"><ele>52.0</ele><time>2026-04-30T09:22:41.899Z</time></trkpt><trkpt lat="37.6711058" lon="21.5242363"><ele>52.0</ele><time>2026-04-30T09:22:42.899Z</time></trkpt><trkpt lat="37.6712123" lon="21.5244082"><ele>49.33333333333333</ele><time>2026-04-30T09:22:43.899Z</time></trkpt><trkpt lat="37.671317" lon="21.5245726"><ele>46.666666666666664</ele><time>2026-04-30T09:22:44.898Z</time></trkpt><trkpt lat="37.6714201" lon="21.52474"><ele>44.0</ele><time>2026-04-30T09:22:45.895Z</time></trkpt><trkpt lat="37.6715192" lon="21.5249014"><ele>44.0</ele><time>2026-04-30T09:22:46.895Z</time></trkpt><trkpt lat="37.6716158" lon="21.5250627"><ele>44.0</ele><time>2026-04-30T09:22:47.894Z</time></trkpt><trkpt lat="37.6717138" lon="21.525227"><ele>44.0</ele><time>2026-04-30T09:22:48.898Z</time></trkpt><trkpt lat="37.6718173" lon="21.5253922"><ele>42.666666666666664</ele><time>2026-04-30T09:22:49.897Z</time></trkpt><trkpt lat="37.6719429" lon="21.5255898"><ele>41.333333333333336</ele><time>2026-04-30T09:22:50.897Z</time></trkpt><trkpt lat="37.6720558" lon="21.5257901"><ele>40.0</ele><time>2026-04-30T09:22:51.895Z</time></trkpt><trkpt lat="37.6721601" lon="21.5259836"><ele>40.0</ele><time>2026-04-30T09:22:52.897Z</time></trkpt><trkpt lat="37.672246" lon="21.526185"><ele>40.0</ele><time>2026-04-30T09:22:53.898Z</time></trkpt><trkpt lat="37.6723236" lon="21.5263627"><ele>40.0</ele><time>2026-04-30T09:22:54.897Z</time></trkpt><trkpt lat="37.6723824" lon="21.526517"><ele>39.2</ele><time>2026-04-30T09:22:55.896Z</time></trkpt><trkpt lat="37.6724254" lon="21.5266509"><ele>38.4</ele><time>2026-04-30T09:22:56.898Z</time></trkpt><trkpt lat="37.6724736" lon="21.5267637"><ele>37.6</ele><time>2026-04-30T09:22:57.896Z</time></trkpt><trkpt lat="37.6725289" lon="21.5268613"><ele>36.8</ele><time>2026-04-30T09:22:58.896Z</time></trkpt><trkpt lat="37.6725867" lon="21.5269306"><ele>36.0</ele><time>2026-04-30T09:22:59.898Z</time></trkpt><trkpt lat="37.6726655" lon="21.5269802"><ele>36.0</ele><time>2026-04-30T09:23:00.896Z</time></trkpt><trkpt lat="37.672762" lon="21.527016"><ele>36.0</ele><time>2026-04-30T09:23:01.894Z</time></trkpt><trkpt lat="37.67289" lon="21.5270417"><ele>36.0</ele><time>2026-04-30T09:23:02.895Z</time></trkpt><trkpt lat="37.6730229" lon="21.5270628"><ele>36.0</ele><time>2026-04-30T09:23:03.897Z</time></trkpt><trkpt lat="37.6731565" lon="21.52708"><ele>36.25</ele><time>2026-04-30T09:23:04.899Z</time></trkpt><trkpt lat="37.6732858" lon="21.5271037"><ele>36.5</ele><time>2026-04-30T09:23:05.896Z</time></trkpt><trkpt lat="37.6734172" lon="21.5271387"><ele>36.75</ele><time>2026-04-30T09:23:06.897Z</time></trkpt><trkpt lat="37.6735505" lon="21.5271802"><ele>37.0</ele><time>2026-04-30T09:23:07.898Z</time></trkpt><trkpt lat="37.6736855" lon="21.5272257"><ele>40.333333333333336</ele><time>2026-04-30T09:23:08.898Z</time></trkpt><trkpt lat="37.6738238" lon="21.5272775"><ele>43.666666666666664</ele><time>2026-04-30T09:23:09.897Z</time></trkpt><trkpt lat="37.6739627" lon="21.5273423"><ele>47.0</ele><time>2026-04-30T09:23:10.897Z</time></trkpt><trkpt lat="37.6741147" lon="21.5274071"><ele>47.0</ele><time>2026-04-30T09:23:11.895Z</time></trkpt><trkpt lat="37.6742771" lon="21.5274721"><ele>47.0</ele><time>2026-04-30T09:23:12.898Z</time></trkpt><trkpt lat="37.6744389" lon="21.5275303"><ele>47.0</ele><time>2026-04-30T09:23:13.899Z</time></trkpt><trkpt lat="37.6746014" lon="21.5275847"><ele>45.33333333333333</ele><time>2026-04-30T09:23:14.899Z</time></trkpt><trkpt lat="37.6747714" lon="21.5276295"><ele>43.666666666666664</ele><time>2026-04-30T09:23:15.898Z</time></trkpt><trkpt lat="37.674944" lon="21.5276699"><ele>42.0</ele><time>2026-04-30T09:23:16.898Z</time></trkpt><trkpt lat="37.6751284" lon="21.5277079"><ele>40.0</ele><time>2026-04-30T09:23:17.898Z</time></trkpt><trkpt lat="37.6753264" lon="21.5277421"><ele>38.0</ele><time>2026-04-30T09:23:18.898Z</time></trkpt><trkpt lat="37.6755261" lon="21.5277629"><ele>36.0</ele><time>2026-04-30T09:23:19.899Z</time></trkpt><trkpt lat="37.6757366" lon="21.5277761"><ele>36.0</ele><time>2026-04-30T09:23:20.898Z</time></trkpt><trkpt lat="37.6759536" lon="21.5277803"><ele>36.0</ele><time>2026-04-30T09:23:21.897Z</time></trkpt><trkpt lat="37.6761781" lon="21.5277852"><ele>36.0</ele><time>2026-04-30T09:23:22.896Z</time></trkpt><trkpt lat="37.6764051" lon="21.5277812"><ele>35.666666666666664</ele><time>2026-04-30T09:23:23.898Z</time></trkpt><trkpt lat="37.6766279" lon="21.5277806"><ele>35.33333333333333</ele><time>2026-04-30T09:23:24.897Z</time></trkpt><trkpt lat="37.6768385" lon="21.5277824"><ele>35.0</ele><time>2026-04-30T09:23:25.895Z</time></trkpt><trkpt lat="37.6770328" lon="21.5277946"><ele>35.0</ele><time>2026-04-30T09:23:26.897Z</time></trkpt><trkpt lat="37.6772206" lon="21.5277969"><ele>35.0</ele><time>2026-04-30T09:23:27.897Z</time></trkpt><trkpt lat="37.6774034" lon="21.5278062"><ele>35.0</ele><time>2026-04-30T09:23:28.898Z</time></trkpt><trkpt lat="37.677585" lon="21.5278114"><ele>35.0</ele><time>2026-04-30T09:23:29.898Z</time></trkpt><trkpt lat="37.6777568" lon="21.5278246"><ele>35.0</ele><time>2026-04-30T09:23:30.898Z</time></trkpt><trkpt lat="37.6779217" lon="21.5278541"><ele>35.0</ele><time>2026-04-30T09:23:31.895Z</time></trkpt><trkpt lat="37.6780882" lon="21.5279025"><ele>37.666666666666664</ele><time>2026-04-30T09:23:32.899Z</time></trkpt><trkpt lat="37.6782571" lon="21.5279701"><ele>40.333333333333336</ele><time>2026-04-30T09:23:33.897Z</time></trkpt><trkpt lat="37.6784222" lon="21.5280759"><ele>43.0</ele><time>2026-04-30T09:23:34.896Z</time></trkpt><trkpt lat="37.678582" lon="21.5281735"><ele>43.66666666666667</ele><time>2026-04-30T09:23:35.897Z</time></trkpt><trkpt lat="37.6787274" lon="21.5283002"><ele>44.333333333333336</ele><time>2026-04-30T09:23:36.897Z</time></trkpt><trkpt lat="37.6788649" lon="21.5284569"><ele>45.0</ele><time>2026-04-30T09:23:37.898Z</time></trkpt><trkpt lat="37.6790164" lon="21.5286241"><ele>43.666666666666664</ele><time>2026-04-30T09:23:38.897Z</time></trkpt><trkpt lat="37.6791466" lon="21.528839"><ele>42.33333333333333</ele><time>2026-04-30T09:23:39.897Z</time></trkpt><trkpt lat="37.6792719" lon="21.5290648"><ele>41.0</ele><time>2026-04-30T09:23:40.897Z</time></trkpt><trkpt lat="37.6794067" lon="21.5293079"><ele>37.0</ele><time>2026-04-30T09:23:41.897Z</time></trkpt><trkpt lat="37.6795477" lon="21.5295642"><ele>33.0</ele><time>2026-04-30T09:23:42.897Z</time></trkpt><trkpt lat="37.6796906" lon="21.5298267"><ele>33.0</ele><time>2026-04-30T09:23:43.897Z</time></trkpt><trkpt lat="37.6798276" lon="21.530095"><ele>33.0</ele><time>2026-04-30T09:23:44.897Z</time></trkpt><trkpt lat="37.6799581" lon="21.5303691"><ele>32.5</ele><time>2026-04-30T09:23:45.898Z</time></trkpt><trkpt lat="37.6800865" lon="21.5306359"><ele>32.0</ele><time>2026-04-30T09:23:46.898Z</time></trkpt><trkpt lat="37.680209" lon="21.5308939"><ele>32.5</ele><time>2026-04-30T09:23:47.898Z</time></trkpt><trkpt lat="37.6803265" lon="21.531142"><ele>33.0</ele><time>2026-04-30T09:23:48.896Z</time></trkpt><trkpt lat="37.6804445" lon="21.5313878"><ele>33.0</ele><time>2026-04-30T09:23:49.897Z</time></trkpt><trkpt lat="37.6805545" lon="21.5316378"><ele>33.0</ele><time>2026-04-30T09:23:50.897Z</time></trkpt><trkpt lat="37.6806722" lon="21.531877"><ele>33.0</ele><time>2026-04-30T09:23:51.897Z</time></trkpt><trkpt lat="37.6807899" lon="21.532119"><ele>32.666666666666664</ele><time>2026-04-30T09:23:52.898Z</time></trkpt><trkpt lat="37.6809162" lon="21.5323564"><ele>32.33333333333333</ele><time>2026-04-30T09:23:53.897Z</time></trkpt><trkpt lat="37.681031" lon="21.5325949"><ele>32.0</ele><time>2026-04-30T09:23:54.899Z</time></trkpt><trkpt lat="37.6811515" lon="21.5328353"><ele>33.33333333333333</ele><time>2026-04-30T09:23:55.895Z</time></trkpt><trkpt lat="37.6812714" lon="21.5330725"><ele>34.666666666666664</ele><time>2026-04-30T09:23:56.898Z</time></trkpt><trkpt lat="37.6814006" lon="21.5333033"><ele>36.0</ele><time>2026-04-30T09:23:57.896Z</time></trkpt><trkpt lat="37.6815359" lon="21.5335288"><ele>35.666666666666664</ele><time>2026-04-30T09:23:58.898Z</time></trkpt><trkpt lat="37.6816674" lon="21.5337594"><ele>35.33333333333333</ele><time>2026-04-30T09:23:59.897Z</time></trkpt><trkpt lat="37.681807" lon="21.5339796"><ele>35.0</ele><time>2026-04-30T09:24:00.899Z</time></trkpt><trkpt lat="37.6819417" lon="21.5341928"><ele>36.33333333333333</ele><time>2026-04-30T09:24:01.896Z</time></trkpt><trkpt lat="37.6820896" lon="21.5343949"><ele>37.666666666666664</ele><time>2026-04-30T09:24:02.898Z</time></trkpt><trkpt lat="37.6822301" lon="21.5346106"><ele>39.0</ele><time>2026-04-30T09:24:03.895Z</time></trkpt><trkpt lat="37.6823656" lon="21.5348141"><ele>39.0</ele><time>2026-04-30T09:24:04.899Z</time></trkpt><trkpt lat="37.682507" lon="21.5350204"><ele>39.0</ele><time>2026-04-30T09:24:05.895Z</time></trkpt><trkpt lat="37.6826384" lon="21.5352142"><ele>39.0</ele><time>2026-04-30T09:24:06.896Z</time></trkpt><trkpt lat="37.6827667" lon="21.5354115"><ele>39.0</ele><time>2026-04-30T09:24:07.897Z</time></trkpt><trkpt lat="37.6829105" lon="21.5356003"><ele>39.0</ele><time>2026-04-30T09:24:08.898Z</time></trkpt><trkpt lat="37.6830604" lon="21.535782"><ele>39.0</ele><time>2026-04-30T09:24:09.899Z</time></trkpt><trkpt lat="37.6832196" lon="21.5359429"><ele>39.0</ele><time>2026-04-30T09:24:10.899Z</time></trkpt><trkpt lat="37.6833778" lon="21.5360923"><ele>39.0</ele><time>2026-04-30T09:24:11.898Z</time></trkpt><trkpt lat="37.6835405" lon="21.5362433"><ele>39.0</ele><time>2026-04-30T09:24:12.898Z</time></trkpt><trkpt lat="37.6836905" lon="21.536376"><ele>38.333333333333336</ele><time>2026-04-30T09:24:13.895Z</time></trkpt><trkpt lat="37.6838413" lon="21.536507"><ele>37.66666666666667</ele><time>2026-04-30T09:24:14.897Z</time></trkpt><trkpt lat="37.684008" lon="21.5366167"><ele>37.0</ele><time>2026-04-30T09:24:15.895Z</time></trkpt><trkpt lat="37.6841966" lon="21.5366996"><ele>37.0</ele><time>2026-04-30T09:24:16.896Z</time></trkpt><trkpt lat="37.6844223" lon="21.5367664"><ele>37.0</ele><time>2026-04-30T09:24:17.895Z</time></trkpt><trkpt lat="37.6846484" lon="21.536827"><ele>35.5</ele><time>2026-04-30T09:24:18.898Z</time></trkpt><trkpt lat="37.6848946" lon="21.5368836"><ele>34.0</ele><time>2026-04-30T09:24:19.897Z</time></trkpt><trkpt lat="37.6851302" lon="21.5369442"><ele>32.5</ele><time>2026-04-30T09:24:20.898Z</time></trkpt><trkpt lat="37.6853598" lon="21.5370112"><ele>31.0</ele><time>2026-04-30T09:24:21.898Z</time></trkpt><trkpt lat="37.685589" lon="21.5370908"><ele>31.0</ele><time>2026-04-30T09:24:22.898Z</time></trkpt><trkpt lat="37.6858225" lon="21.5371914"><ele>31.0</ele><time>2026-04-30T09:24:23.896Z</time></trkpt><trkpt lat="37.6860637" lon="21.5373001"><ele>33.0</ele><time>2026-04-30T09:24:24.896Z</time></trkpt><trkpt lat="37.6862998" lon="21.5374125"><ele>35.0</ele><time>2026-04-30T09:24:25.897Z</time></trkpt><trkpt lat="37.6865385" lon="21.5375212"><ele>35.0</ele><time>2026-04-30T09:24:26.896Z</time></trkpt><trkpt lat="37.6867655" lon="21.5376242"><ele>35.0</ele><time>2026-04-30T09:24:27.897Z</time></trkpt><trkpt lat="37.6869825" lon="21.5377228"><ele>36.666666666666664</ele><time>2026-04-30T09:24:28.897Z</time></trkpt><trkpt lat="37.6871828" lon="21.5378332"><ele>38.333333333333336</ele><time>2026-04-30T09:24:29.898Z</time></trkpt><trkpt lat="37.6873964" lon="21.5379353"><ele>40.0</ele><time>2026-04-30T09:24:30.894Z</time></trkpt><trkpt lat="37.6876121" lon="21.5380315"><ele>36.0</ele><time>2026-04-30T09:24:31.898Z</time></trkpt><trkpt lat="37.6878356" lon="21.538102"><ele>32.0</ele><time>2026-04-30T09:24:32.898Z</time></trkpt><trkpt lat="37.6880733" lon="21.5381476"><ele>32.0</ele><time>2026-04-30T09:24:33.896Z</time></trkpt><trkpt lat="37.6883089" lon="21.5381904"><ele>32.0</ele><time>2026-04-30T09:24:34.897Z</time></trkpt><trkpt lat="37.6885498" lon="21.5382302"><ele>32.5</ele><time>2026-04-30T09:24:35.898Z</time></trkpt><trkpt lat="37.6887764" lon="21.5382613"><ele>33.0</ele><time>2026-04-30T09:24:36.897Z</time></trkpt><trkpt lat="37.6889953" lon="21.5383112"><ele>33.0</ele><time>2026-04-30T09:24:37.895Z</time></trkpt><trkpt lat="37.6891881" lon="21.5383975"><ele>33.0</ele><time>2026-04-30T09:24:38.896Z</time></trkpt><trkpt lat="37.6893638" lon="21.5385305"><ele>33.0</ele><time>2026-04-30T09:24:39.896Z</time></trkpt><trkpt lat="37.6895239" lon="21.5386996"><ele>32.0</ele><time>2026-04-30T09:24:40.896Z</time></trkpt><trkpt lat="37.689675" lon="21.538884"><ele>31.0</ele><time>2026-04-30T09:24:41.896Z</time></trkpt><trkpt lat="37.6898272" lon="21.539073"><ele>30.0</ele><time>2026-04-30T09:24:42.897Z</time></trkpt><trkpt lat="37.6899792" lon="21.5392633"><ele>30.0</ele><time>2026-04-30T09:24:43.897Z</time></trkpt><trkpt lat="37.6901401" lon="21.5394571"><ele>30.0</ele><time>2026-04-30T09:24:44.895Z</time></trkpt><trkpt lat="37.6903027" lon="21.5396409"><ele>30.0</ele><time>2026-04-30T09:24:45.897Z</time></trkpt><trkpt lat="37.6904605" lon="21.539819"><ele>30.0</ele><time>2026-04-30T09:24:46.898Z</time></trkpt><trkpt lat="37.6906107" lon="21.5399912"><ele>30.0</ele><time>2026-04-30T09:24:47.896Z</time></trkpt><trkpt lat="37.6907727" lon="21.5401249"><ele>30.0</ele><time>2026-04-30T09:24:48.897Z</time></trkpt><trkpt lat="37.6909205" lon="21.5402608"><ele>30.0</ele><time>2026-04-30T09:24:49.897Z</time></trkpt><trkpt lat="37.6910635" lon="21.5403878"><ele>30.0</ele><time>2026-04-30T09:24:50.897Z</time></trkpt><trkpt lat="37.6911999" lon="21.5405074"><ele>30.0</ele><time>2026-04-30T09:24:51.897Z</time></trkpt><trkpt lat="37.6913402" lon="21.5406143"><ele>30.333333333333336</ele><time>2026-04-30T09:24:52.898Z</time></trkpt><trkpt lat="37.69147" lon="21.5407339"><ele>30.666666666666668</ele><time>2026-04-30T09:24:53.895Z</time></trkpt><trkpt lat="37.6915962" lon="21.540843"><ele>31.0</ele><time>2026-04-30T09:24:54.896Z</time></trkpt><trkpt lat="37.6917226" lon="21.5409506"><ele>31.0</ele><time>2026-04-30T09:24:55.898Z</time></trkpt><trkpt lat="37.6918476" lon="21.5410814"><ele>31.0</ele><time>2026-04-30T09:24:56.896Z</time></trkpt><trkpt lat="37.691982" lon="21.5412272"><ele>31.0</ele><time>2026-04-30T09:24:57.897Z</time></trkpt><trkpt lat="37.6921226" lon="21.5413751"><ele>31.333333333333336</ele><time>2026-04-30T09:24:58.895Z</time></trkpt><trkpt lat="37.6922707" lon="21.5415137"><ele>31.666666666666664</ele><time>2026-04-30T09:24:59.897Z</time></trkpt><trkpt lat="37.6924236" lon="21.5416551"><ele>32.0</ele><time>2026-04-30T09:25:00.897Z</time></trkpt><trkpt lat="37.6925784" lon="21.5417955"><ele>32.0</ele><time>2026-04-30T09:25:01.898Z</time></trkpt><trkpt lat="37.6927381" lon="21.541943"><ele>32.0</ele><time>2026-04-30T09:25:02.898Z</time></trkpt><trkpt lat="37.6928995" lon="21.5420947"><ele>32.0</ele><time>2026-04-30T09:25:03.896Z</time></trkpt><trkpt lat="37.693058" lon="21.5422391"><ele>32.33333333333333</ele><time>2026-04-30T09:25:04.897Z</time></trkpt><trkpt lat="37.6932157" lon="21.542382"><ele>32.666666666666664</ele><time>2026-04-30T09:25:05.895Z</time></trkpt><trkpt lat="37.6933727" lon="21.5425224"><ele>33.0</ele><time>2026-04-30T09:25:06.897Z</time></trkpt><trkpt lat="37.6935341" lon="21.5426721"><ele>33.333333333333336</ele><time>2026-04-30T09:25:07.896Z</time></trkpt><trkpt lat="37.6936934" lon="21.5428179"><ele>33.66666666666667</ele><time>2026-04-30T09:25:08.899Z</time></trkpt><trkpt lat="37.6938569" lon="21.5429689"><ele>34.0</ele><time>2026-04-30T09:25:09.896Z</time></trkpt><trkpt lat="37.6940197" lon="21.5431206"><ele>34.0</ele><time>2026-04-30T09:25:10.897Z</time></trkpt><trkpt lat="37.694187" lon="21.543273"><ele>34.0</ele><time>2026-04-30T09:25:11.896Z</time></trkpt><trkpt lat="37.694349" lon="21.543427"><ele>34.0</ele><time>2026-04-30T09:25:12.896Z</time></trkpt><trkpt lat="37.6945067" lon="21.5435777"><ele>34.0</ele><time>2026-04-30T09:25:13.895Z</time></trkpt><trkpt lat="37.6946682" lon="21.5437322"><ele>34.0</ele><time>2026-04-30T09:25:14.898Z</time></trkpt><trkpt lat="37.6948264" lon="21.5438835"><ele>34.0</ele><time>2026-04-30T09:25:15.897Z</time></trkpt><trkpt lat="37.6949838" lon="21.5440331"><ele>34.0</ele><time>2026-04-30T09:25:16.898Z</time></trkpt><trkpt lat="37.6951435" lon="21.5441857"><ele>34.0</ele><time>2026-04-30T09:25:17.897Z</time></trkpt><trkpt lat="37.6953064" lon="21.5443392"><ele>34.0</ele><time>2026-04-30T09:25:18.896Z</time></trkpt><trkpt lat="37.6954678" lon="21.5444944"><ele>34.333333333333336</ele><time>2026-04-30T09:25:19.895Z</time></trkpt><trkpt lat="37.6956348" lon="21.5446459"><ele>34.666666666666664</ele><time>2026-04-30T09:25:20.897Z</time></trkpt><trkpt lat="37.6957979" lon="21.5447953"><ele>35.0</ele><time>2026-04-30T09:25:21.897Z</time></trkpt><trkpt lat="37.695962" lon="21.5449346"><ele>35.666666666666664</ele><time>2026-04-30T09:25:22.897Z</time></trkpt><trkpt lat="37.696132" lon="21.5450464"><ele>36.333333333333336</ele><time>2026-04-30T09:25:23.898Z</time></trkpt><trkpt lat="37.6962998" lon="21.5451186"><ele>37.0</ele><time>2026-04-30T09:25:24.898Z</time></trkpt><trkpt lat="37.6964645" lon="21.5451419"><ele>37.0</ele><time>2026-04-30T09:25:25.897Z</time></trkpt><trkpt lat="37.6966471" lon="21.5451256"><ele>37.0</ele><time>2026-04-30T09:25:26.897Z</time></trkpt><trkpt lat="37.6968426" lon="21.5450781"><ele>37.0</ele><time>2026-04-30T09:25:27.898Z</time></trkpt><trkpt lat="37.6970539" lon="21.5450144"><ele>36.66666666666667</ele><time>2026-04-30T09:25:28.894Z</time></trkpt><trkpt lat="37.6972657" lon="21.5449497"><ele>36.333333333333336</ele><time>2026-04-30T09:25:29.895Z</time></trkpt><trkpt lat="37.697483" lon="21.5448873"><ele>36.0</ele><time>2026-04-30T09:25:30.899Z</time></trkpt><trkpt lat="37.6976986" lon="21.5448234"><ele>36.5</ele><time>2026-04-30T09:25:31.898Z</time></trkpt><trkpt lat="37.6979242" lon="21.5447808"><ele>37.0</ele><time>2026-04-30T09:25:32.899Z</time></trkpt><trkpt lat="37.6981528" lon="21.5447205"><ele>37.0</ele><time>2026-04-30T09:25:33.897Z</time></trkpt><trkpt lat="37.6983802" lon="21.5446564"><ele>37.0</ele><time>2026-04-30T09:25:34.895Z</time></trkpt><trkpt lat="37.6986132" lon="21.5445918"><ele>38.0</ele><time>2026-04-30T09:25:35.897Z</time></trkpt><trkpt lat="37.6988438" lon="21.5445259"><ele>39.0</ele><time>2026-04-30T09:25:36.897Z</time></trkpt><trkpt lat="37.6990769" lon="21.5444605"><ele>39.0</ele><time>2026-04-30T09:25:37.898Z</time></trkpt><trkpt lat="37.6993104" lon="21.544391"><ele>39.0</ele><time>2026-04-30T09:25:38.899Z</time></trkpt><trkpt lat="37.6995424" lon="21.5443287"><ele>38.5</ele><time>2026-04-30T09:25:39.899Z</time></trkpt><trkpt lat="37.6997772" lon="21.5442622"><ele>38.0</ele><time>2026-04-30T09:25:40.898Z</time></trkpt><trkpt lat="37.7000039" lon="21.5441972"><ele>38.0</ele><time>2026-04-30T09:25:41.896Z</time></trkpt><trkpt lat="37.7002296" lon="21.5441283"><ele>38.0</ele><time>2026-04-30T09:25:42.894Z</time></trkpt><trkpt lat="37.7004481" lon="21.5440535"><ele>39.0</ele><time>2026-04-30T09:25:43.898Z</time></trkpt><trkpt lat="37.7006668" lon="21.543993"><ele>40.0</ele><time>2026-04-30T09:25:44.897Z</time></trkpt><trkpt lat="37.7008797" lon="21.5439336"><ele>41.0</ele><time>2026-04-30T09:25:45.899Z</time></trkpt><trkpt lat="37.7010824" lon="21.5438792"><ele>40.666666666666664</ele><time>2026-04-30T09:25:46.896Z</time></trkpt><trkpt lat="37.7012883" lon="21.5438246"><ele>40.333333333333336</ele><time>2026-04-30T09:25:47.894Z</time></trkpt><trkpt lat="37.7014968" lon="21.543758"><ele>40.0</ele><time>2026-04-30T09:25:48.898Z</time></trkpt><trkpt lat="37.701695" lon="21.543673"><ele>40.0</ele><time>2026-04-30T09:25:49.894Z</time></trkpt><trkpt lat="37.7018964" lon="21.5435966"><ele>40.0</ele><time>2026-04-30T09:25:50.897Z</time></trkpt><trkpt lat="37.7020904" lon="21.543506"><ele>40.0</ele><time>2026-04-30T09:25:51.894Z</time></trkpt><trkpt lat="37.7022764" lon="21.5434162"><ele>40.0</ele><time>2026-04-30T09:25:52.898Z</time></trkpt><trkpt lat="37.7024561" lon="21.5433311"><ele>40.0</ele><time>2026-04-30T09:25:53.897Z</time></trkpt><trkpt lat="37.7026295" lon="21.5432578"><ele>40.0</ele><time>2026-04-30T09:25:54.898Z</time></trkpt><trkpt lat="37.7028057" lon="21.5431733"><ele>39.66666666666667</ele><time>2026-04-30T09:25:55.898Z</time></trkpt><trkpt lat="37.7029871" lon="21.5431046"><ele>39.333333333333336</ele><time>2026-04-30T09:25:56.896Z</time></trkpt><trkpt lat="37.7031851" lon="21.5430464"><ele>39.0</ele><time>2026-04-30T09:25:57.895Z</time></trkpt><trkpt lat="37.7033925" lon="21.5430033"><ele>39.0</ele><time>2026-04-30T09:25:58.897Z</time></trkpt><trkpt lat="37.7036107" lon="21.5429611"><ele>39.0</ele><time>2026-04-30T09:25:59.896Z</time></trkpt><trkpt lat="37.7038312" lon="21.5429207"><ele>39.0</ele><time>2026-04-30T09:26:00.899Z</time></trkpt><trkpt lat="37.7040572" lon="21.542879"><ele>39.0</ele><time>2026-04-30T09:26:01.899Z</time></trkpt><trkpt lat="37.704279" lon="21.5428317"><ele>39.0</ele><time>2026-04-30T09:26:02.897Z</time></trkpt><trkpt lat="37.7045036" lon="21.5427886"><ele>39.5</ele><time>2026-04-30T09:26:03.897Z</time></trkpt><trkpt lat="37.7047273" lon="21.5427389"><ele>40.0</ele><time>2026-04-30T09:26:04.897Z</time></trkpt><trkpt lat="37.7049516" lon="21.5426804"><ele>40.0</ele><time>2026-04-30T09:26:05.898Z</time></trkpt><trkpt lat="37.7051779" lon="21.5426102"><ele>40.0</ele><time>2026-04-30T09:26:06.898Z</time></trkpt><trkpt lat="37.7054036" lon="21.5425367"><ele>40.5</ele><time>2026-04-30T09:26:07.897Z</time></trkpt><trkpt lat="37.7056283" lon="21.5424611"><ele>41.0</ele><time>2026-04-30T09:26:08.897Z</time></trkpt><trkpt lat="37.7058503" lon="21.5423851"><ele>40.5</ele><time>2026-04-30T09:26:09.898Z</time></trkpt><trkpt lat="37.7060806" lon="21.5423115"><ele>40.0</ele><time>2026-04-30T09:26:10.899Z</time></trkpt><trkpt lat="37.7063057" lon="21.5422235"><ele>40.0</ele><time>2026-04-30T09:26:11.897Z</time></trkpt><trkpt lat="37.7065303" lon="21.5421495"><ele>40.0</ele><time>2026-04-30T09:26:12.897Z</time></trkpt><trkpt lat="37.7067534" lon="21.5420732"><ele>39.5</ele><time>2026-04-30T09:26:13.895Z</time></trkpt><trkpt lat="37.706977" lon="21.5419941"><ele>39.0</ele><time>2026-04-30T09:26:14.895Z</time></trkpt><trkpt lat="37.7071938" lon="21.5419038"><ele>39.0</ele><time>2026-04-30T09:26:15.898Z</time></trkpt><trkpt lat="37.7074163" lon="21.5417795"><ele>39.0</ele><time>2026-04-30T09:26:16.899Z</time></trkpt><trkpt lat="37.7076333" lon="21.5416346"><ele>39.0</ele><time>2026-04-30T09:26:17.898Z</time></trkpt><trkpt lat="37.7078471" lon="21.5414783"><ele>39.0</ele><time>2026-04-30T09:26:18.897Z</time></trkpt><trkpt lat="37.7080598" lon="21.5413123"><ele>40.0</ele><time>2026-04-30T09:26:19.897Z</time></trkpt><trkpt lat="37.7082822" lon="21.5411577"><ele>41.0</ele><time>2026-04-30T09:26:20.897Z</time></trkpt><trkpt lat="37.7085069" lon="21.5410246"><ele>40.5</ele><time>2026-04-30T09:26:21.897Z</time></trkpt><trkpt lat="37.7087358" lon="21.5409028"><ele>40.0</ele><time>2026-04-30T09:26:22.897Z</time></trkpt><trkpt lat="37.7089624" lon="21.5407949"><ele>40.0</ele><time>2026-04-30T09:26:23.897Z</time></trkpt><trkpt lat="37.709196" lon="21.5406988"><ele>40.0</ele><time>2026-04-30T09:26:24.898Z</time></trkpt><trkpt lat="37.709426" lon="21.5406017"><ele>40.0</ele><time>2026-04-30T09:26:25.895Z</time></trkpt><trkpt lat="37.7096518" lon="21.5405063"><ele>40.0</ele><time>2026-04-30T09:26:26.897Z</time></trkpt><trkpt lat="37.7098777" lon="21.540414"><ele>40.333333333333336</ele><time>2026-04-30T09:26:27.894Z</time></trkpt><trkpt lat="37.7100908" lon="21.5403231"><ele>40.666666666666664</ele><time>2026-04-30T09:26:28.898Z</time></trkpt><trkpt lat="37.710293" lon="21.5402311"><ele>41.0</ele><time>2026-04-30T09:26:29.896Z</time></trkpt><trkpt lat="37.7104865" lon="21.5401095"><ele>42.5</ele><time>2026-04-30T09:26:30.896Z</time></trkpt><trkpt lat="37.7106794" lon="21.5399669"><ele>44.0</ele><time>2026-04-30T09:26:31.897Z</time></trkpt><trkpt lat="37.7108686" lon="21.5397953"><ele>44.0</ele><time>2026-04-30T09:26:32.896Z</time></trkpt><trkpt lat="37.7110449" lon="21.5396115"><ele>44.0</ele><time>2026-04-30T09:26:33.898Z</time></trkpt><trkpt lat="37.7112252" lon="21.5394412"><ele>43.0</ele><time>2026-04-30T09:26:34.898Z</time></trkpt><trkpt lat="37.7114225" lon="21.539292"><ele>42.0</ele><time>2026-04-30T09:26:35.897Z</time></trkpt><trkpt lat="37.7116376" lon="21.5391617"><ele>42.0</ele><time>2026-04-30T09:26:36.896Z</time></trkpt><trkpt lat="37.711868" lon="21.5390681"><ele>42.0</ele><time>2026-04-30T09:26:37.896Z</time></trkpt><trkpt lat="37.7121117" lon="21.5389774"><ele>43.5</ele><time>2026-04-30T09:26:38.896Z</time></trkpt><trkpt lat="37.7123613" lon="21.5388879"><ele>45.0</ele><time>2026-04-30T09:26:39.898Z</time></trkpt><trkpt lat="37.7126105" lon="21.5387931"><ele>44.5</ele><time>2026-04-30T09:26:40.898Z</time></trkpt><trkpt lat="37.7128465" lon="21.5386917"><ele>44.0</ele><time>2026-04-30T09:26:41.896Z</time></trkpt><trkpt lat="37.7130973" lon="21.5385965"><ele>44.0</ele><time>2026-04-30T09:26:42.895Z</time></trkpt><trkpt lat="37.7133416" lon="21.5385103"><ele>44.0</ele><time>2026-04-30T09:26:43.896Z</time></trkpt><trkpt lat="37.7135807" lon="21.5384235"><ele>44.0</ele><time>2026-04-30T09:26:44.896Z</time></trkpt><trkpt lat="37.7138229" lon="21.5383372"><ele>44.0</ele><time>2026-04-30T09:26:45.896Z</time></trkpt><trkpt lat="37.7140622" lon="21.5382517"><ele>44.0</ele><time>2026-04-30T09:26:46.896Z</time></trkpt><trkpt lat="37.7143043" lon="21.5381688"><ele>44.0</ele><time>2026-04-30T09:26:47.896Z</time></trkpt><trkpt lat="37.7145534" lon="21.5380883"><ele>46.0</ele><time>2026-04-30T09:26:48.898Z</time></trkpt><trkpt lat="37.7148022" lon="21.5380194"><ele>48.0</ele><time>2026-04-30T09:26:49.898Z</time></trkpt><trkpt lat="37.7150533" lon="21.5379532"><ele>49.5</ele><time>2026-04-30T09:26:50.899Z</time></trkpt><trkpt lat="37.7152988" lon="21.5378927"><ele>51.0</ele><time>2026-04-30T09:26:51.896Z</time></trkpt><trkpt lat="37.7155438" lon="21.5378229"><ele>51.0</ele><time>2026-04-30T09:26:52.896Z</time></trkpt><trkpt lat="37.7157744" lon="21.5377591"><ele>51.0</ele><time>2026-04-30T09:26:53.899Z</time></trkpt><trkpt lat="37.7159932" lon="21.5377035"><ele>52.0</ele><time>2026-04-30T09:26:54.897Z</time></trkpt><trkpt lat="37.7162161" lon="21.5376518"><ele>53.0</ele><time>2026-04-30T09:26:55.898Z</time></trkpt><trkpt lat="37.7164422" lon="21.5376057"><ele>53.0</ele><time>2026-04-30T09:26:56.898Z</time></trkpt><trkpt lat="37.7166568" lon="21.5375623"><ele>53.0</ele><time>2026-04-30T09:26:57.898Z</time></trkpt><trkpt lat="37.7168714" lon="21.537491"><ele>53.0</ele><time>2026-04-30T09:26:58.896Z</time></trkpt><trkpt lat="37.7170974" lon="21.5373535"><ele>51.5</ele><time>2026-04-30T09:26:59.897Z</time></trkpt><trkpt lat="37.7173316" lon="21.5371905"><ele>50.0</ele><time>2026-04-30T09:27:00.898Z</time></trkpt><trkpt lat="37.7175658" lon="21.5370251"><ele>53.0</ele><time>2026-04-30T09:27:01.899Z</time></trkpt><trkpt lat="37.7178013" lon="21.5368354"><ele>56.0</ele><time>2026-04-30T09:27:02.897Z</time></trkpt><trkpt lat="37.7180279" lon="21.5366609"><ele>56.0</ele><time>2026-04-30T09:27:03.896Z</time></trkpt><trkpt lat="37.7182423" lon="21.5364829"><ele>56.0</ele><time>2026-04-30T09:27:04.899Z</time></trkpt><trkpt lat="37.7184437" lon="21.5363175"><ele>55.0</ele><time>2026-04-30T09:27:05.898Z</time></trkpt><trkpt lat="37.7188414" lon="21.5360067"><ele>55.0</ele><time>2026-04-30T09:27:07.968Z</time></trkpt><trkpt lat="37.7191689" lon="21.5358266"><ele>55.0</ele><time>2026-04-30T09:27:09.884Z</time></trkpt><trkpt lat="37.7193611" lon="21.535767"><ele>54.0</ele><time>2026-04-30T09:27:10.884Z</time></trkpt><trkpt lat="37.7195491" lon="21.535712"><ele>53.0</ele><time>2026-04-30T09:27:11.884Z</time></trkpt><trkpt lat="37.7197762" lon="21.5357778"><ele>52.0</ele><time>2026-04-30T09:27:12.884Z</time></trkpt><trkpt lat="37.7199735" lon="21.535845"><ele>52.0</ele><time>2026-04-30T09:27:13.883Z</time></trkpt><trkpt lat="37.7200377" lon="21.5361308"><ele>52.0</ele><time>2026-04-30T09:27:14.883Z</time></trkpt><trkpt lat="37.7202143" lon="21.5362373"><ele>52.0</ele><time>2026-04-30T09:27:15.884Z</time></trkpt><trkpt lat="37.7203859" lon="21.5363311"><ele>52.0</ele><time>2026-04-30T09:27:16.883Z</time></trkpt><trkpt lat="37.7205799" lon="21.5363914"><ele>52.0</ele><time>2026-04-30T09:27:17.883Z</time></trkpt><trkpt lat="37.7208069" lon="21.5364355"><ele>52.0</ele><time>2026-04-30T09:27:18.884Z</time></trkpt><trkpt lat="37.7210645" lon="21.536423"><ele>51.5</ele><time>2026-04-30T09:27:19.883Z</time></trkpt><trkpt lat="37.7213256" lon="21.5364168"><ele>51.0</ele><time>2026-04-30T09:27:20.883Z</time></trkpt><trkpt lat="37.7215852" lon="21.5364186"><ele>51.0</ele><time>2026-04-30T09:27:21.883Z</time></trkpt><trkpt lat="37.7218372" lon="21.536418"><ele>51.0</ele><time>2026-04-30T09:27:22.884Z</time></trkpt><trkpt lat="37.7220805" lon="21.5364201"><ele>52.0</ele><time>2026-04-30T09:27:23.883Z</time></trkpt><trkpt lat="37.722312" lon="21.5364208"><ele>53.0</ele><time>2026-04-30T09:27:24.884Z</time></trkpt><trkpt lat="37.7225333" lon="21.5364144"><ele>53.0</ele><time>2026-04-30T09:27:25.884Z</time></trkpt><trkpt lat="37.7227478" lon="21.536426"><ele>53.0</ele><time>2026-04-30T09:27:26.884Z</time></trkpt><trkpt lat="37.7229392" lon="21.5364263"><ele>53.0</ele><time>2026-04-30T09:27:27.883Z</time></trkpt><trkpt lat="37.723117" lon="21.5364272"><ele>53.0</ele><time>2026-04-30T09:27:28.883Z</time></trkpt><trkpt lat="37.7232781" lon="21.5364289"><ele>53.0</ele><time>2026-04-30T09:27:29.883Z</time></trkpt><trkpt lat="37.7234302" lon="21.5364306"><ele>53.0</ele><time>2026-04-30T09:27:30.883Z</time></trkpt><trkpt lat="37.7235714" lon="21.5364331"><ele>53.5</ele><time>2026-04-30T09:27:31.884Z</time></trkpt><trkpt lat="37.7237114" lon="21.536435"><ele>54.0</ele><time>2026-04-30T09:27:32.884Z</time></trkpt><trkpt lat="37.7238545" lon="21.536438"><ele>54.5</ele><time>2026-04-30T09:27:33.883Z</time></trkpt><trkpt lat="37.7239997" lon="21.5364389"><ele>55.0</ele><time>2026-04-30T09:27:34.884Z</time></trkpt><trkpt lat="37.7241537" lon="21.5364353"><ele>55.0</ele><time>2026-04-30T09:27:35.884Z</time></trkpt><trkpt lat="37.7243241" lon="21.5364324"><ele>55.0</ele><time>2026-04-30T09:27:36.883Z</time></trkpt><trkpt lat="37.7244976" lon="21.5364309"><ele>55.0</ele><time>2026-04-30T09:27:37.883Z</time></trkpt><trkpt lat="37.7246733" lon="21.5364282"><ele>55.666666666666664</ele><time>2026-04-30T09:27:38.883Z</time></trkpt><trkpt lat="37.724847" lon="21.5364262"><ele>56.33333333333333</ele><time>2026-04-30T09:27:39.884Z</time></trkpt><trkpt lat="37.7250181" lon="21.5364275"><ele>57.0</ele><time>2026-04-30T09:27:40.884Z</time></trkpt><trkpt lat="37.7251794" lon="21.5364291"><ele>57.0</ele><time>2026-04-30T09:27:41.884Z</time></trkpt><trkpt lat="37.7253247" lon="21.5364317"><ele>57.0</ele><time>2026-04-30T09:27:42.884Z</time></trkpt><trkpt lat="37.7254559" lon="21.5364356"><ele>57.0</ele><time>2026-04-30T09:27:43.884Z</time></trkpt><trkpt lat="37.7255775" lon="21.5364349"><ele>57.0</ele><time>2026-04-30T09:27:44.883Z</time></trkpt><trkpt lat="37.725699" lon="21.5364343"><ele>57.0</ele><time>2026-04-30T09:27:45.883Z</time></trkpt><trkpt lat="37.7258166" lon="21.5364369"><ele>57.0</ele><time>2026-04-30T09:27:46.884Z</time></trkpt><trkpt lat="37.725938" lon="21.5364409"><ele>57.0</ele><time>2026-04-30T09:27:47.883Z</time></trkpt><trkpt lat="37.7260604" lon="21.5364454"><ele>57.0</ele><time>2026-04-30T09:27:48.883Z</time></trkpt><trkpt lat="37.7261907" lon="21.5364447"><ele>57.0</ele><time>2026-04-30T09:27:49.884Z</time></trkpt><trkpt lat="37.7263174" lon="21.5364469"><ele>57.0</ele><time>2026-04-30T09:27:50.883Z</time></trkpt><trkpt lat="37.7264393" lon="21.5364506"><ele>57.0</ele><time>2026-04-30T09:27:51.884Z</time></trkpt><trkpt lat="37.7265493" lon="21.5364511"><ele>57.0</ele><time>2026-04-30T09:27:52.883Z</time></trkpt><trkpt lat="37.7266505" lon="21.5364565"><ele>57.0</ele><time>2026-04-30T09:27:53.883Z</time></trkpt><trkpt lat="37.7267483" lon="21.5364579"><ele>57.0</ele><time>2026-04-30T09:27:54.884Z</time></trkpt><trkpt lat="37.7268455" lon="21.5364569"><ele>57.0</ele><time>2026-04-30T09:27:55.883Z</time></trkpt><trkpt lat="37.7269442" lon="21.5364547"><ele>57.0</ele><time>2026-04-30T09:27:56.883Z</time></trkpt><trkpt lat="37.727048" lon="21.5364581"><ele>57.0</ele><time>2026-04-30T09:27:57.884Z</time></trkpt><trkpt lat="37.7271386" lon="21.5364647"><ele>57.166666666666664</ele><time>2026-04-30T09:27:58.883Z</time></trkpt><trkpt lat="37.7272187" lon="21.5364767"><ele>57.33333333333333</ele><time>2026-04-30T09:27:59.884Z</time></trkpt><trkpt lat="37.7272872" lon="21.5364936"><ele>57.5</ele><time>2026-04-30T09:28:00.883Z</time></trkpt><trkpt lat="37.7273957" lon="21.5365094"><ele>57.666666666666664</ele><time>2026-04-30T09:28:02.884Z</time></trkpt><trkpt lat="37.7274611" lon="21.5365238"><ele>57.83333333333333</ele><time>2026-04-30T09:28:04.883Z</time></trkpt><trkpt lat="37.727525" lon="21.5365556"><ele>58.0</ele><time>2026-04-30T09:28:13.884Z</time></trkpt><trkpt lat="37.7276224" lon="21.5365836"><ele>58.0</ele><time>2026-04-30T09:28:16.883Z</time></trkpt><trkpt lat="37.7276913" lon="21.536619"><ele>58.0</ele><time>2026-04-30T09:28:18.883Z</time></trkpt><trkpt lat="37.7277632" lon="21.5366547"><ele>58.0</ele><time>2026-04-30T09:28:20.884Z</time></trkpt><trkpt lat="37.7278591" lon="21.5367041"><ele>58.0</ele><time>2026-04-30T09:28:22.883Z</time></trkpt><trkpt lat="37.7279496" lon="21.5367309"><ele>58.0</ele><time>2026-04-30T09:28:24.884Z</time></trkpt><trkpt lat="37.7280636" lon="21.53668"><ele>59.0</ele><time>2026-04-30T09:28:26.884Z</time></trkpt><trkpt lat="37.7281517" lon="21.5366152"><ele>60.0</ele><time>2026-04-30T09:28:27.884Z</time></trkpt><trkpt lat="37.7282544" lon="21.536537"><ele>61.0</ele><time>2026-04-30T09:28:28.883Z</time></trkpt><trkpt lat="37.7283793" lon="21.536443"><ele>62.0</ele><time>2026-04-30T09:28:29.883Z</time></trkpt><trkpt lat="37.7285057" lon="21.5363431"><ele>61.66666666666667</ele><time>2026-04-30T09:28:30.884Z</time></trkpt><trkpt lat="37.7286325" lon="21.536226"><ele>61.33333333333333</ele><time>2026-04-30T09:28:31.884Z</time></trkpt><trkpt lat="37.7287514" lon="21.5361214"><ele>61.0</ele><time>2026-04-30T09:28:32.883Z</time></trkpt><trkpt lat="37.7288862" lon="21.536033"><ele>61.0</ele><time>2026-04-30T09:28:33.883Z</time></trkpt><trkpt lat="37.729036" lon="21.5359564"><ele>61.0</ele><time>2026-04-30T09:28:34.883Z</time></trkpt><trkpt lat="37.7291929" lon="21.5358908"><ele>61.0</ele><time>2026-04-30T09:28:35.884Z</time></trkpt><trkpt lat="37.7293597" lon="21.5358258"><ele>61.666666666666664</ele><time>2026-04-30T09:28:36.883Z</time></trkpt><trkpt lat="37.7295157" lon="21.5357642"><ele>62.33333333333333</ele><time>2026-04-30T09:28:37.884Z</time></trkpt><trkpt lat="37.729658" lon="21.5357029"><ele>63.0</ele><time>2026-04-30T09:28:38.883Z</time></trkpt><trkpt lat="37.7298044" lon="21.5356465"><ele>63.0</ele><time>2026-04-30T09:28:39.883Z</time></trkpt><trkpt lat="37.7299492" lon="21.5356122"><ele>63.0</ele><time>2026-04-30T09:28:40.884Z</time></trkpt><trkpt lat="37.7301058" lon="21.5355703"><ele>63.0</ele><time>2026-04-30T09:28:41.883Z</time></trkpt><trkpt lat="37.7302598" lon="21.5355091"><ele>62.33333333333333</ele><time>2026-04-30T09:28:42.883Z</time></trkpt><trkpt lat="37.7304126" lon="21.5354223"><ele>61.666666666666664</ele><time>2026-04-30T09:28:43.884Z</time></trkpt><trkpt lat="37.7305574" lon="21.5353446"><ele>61.0</ele><time>2026-04-30T09:28:44.883Z</time></trkpt><trkpt lat="37.7306944" lon="21.5352881"><ele>60.75</ele><time>2026-04-30T09:28:45.884Z</time></trkpt><trkpt lat="37.73083" lon="21.5352492"><ele>60.5</ele><time>2026-04-30T09:28:46.884Z</time></trkpt><trkpt lat="37.7309563" lon="21.5352297"><ele>60.25</ele><time>2026-04-30T09:28:47.884Z</time></trkpt><trkpt lat="37.7310765" lon="21.5352612"><ele>60.0</ele><time>2026-04-30T09:28:48.884Z</time></trkpt><trkpt lat="37.7312226" lon="21.5353219"><ele>61.0</ele><time>2026-04-30T09:28:49.883Z</time></trkpt><trkpt lat="37.7313754" lon="21.5353917"><ele>62.0</ele><time>2026-04-30T09:28:50.884Z</time></trkpt><trkpt lat="37.731544" lon="21.5354923"><ele>63.0</ele><time>2026-04-30T09:28:51.884Z</time></trkpt><trkpt lat="37.7317096" lon="21.5355964"><ele>63.0</ele><time>2026-04-30T09:28:52.883Z</time></trkpt><trkpt lat="37.7318749" lon="21.5356902"><ele>63.0</ele><time>2026-04-30T09:28:53.883Z</time></trkpt><trkpt lat="37.7320267" lon="21.5357787"><ele>63.0</ele><time>2026-04-30T09:28:54.884Z</time></trkpt><trkpt lat="37.7321853" lon="21.5358428"><ele>63.0</ele><time>2026-04-30T09:28:55.884Z</time></trkpt><trkpt lat="37.7323406" lon="21.5358774"><ele>63.0</ele><time>2026-04-30T09:28:56.884Z</time></trkpt><trkpt lat="37.7325031" lon="21.5358873"><ele>63.0</ele><time>2026-04-30T09:28:57.884Z</time></trkpt><trkpt lat="37.7326854" lon="21.5358737"><ele>63.0</ele><time>2026-04-30T09:28:58.884Z</time></trkpt><trkpt lat="37.7328635" lon="21.5358507"><ele>63.0</ele><time>2026-04-30T09:28:59.883Z</time></trkpt><trkpt lat="37.7330409" lon="21.5358318"><ele>63.0</ele><time>2026-04-30T09:29:00.884Z</time></trkpt><trkpt lat="37.7332239" lon="21.5358127"><ele>63.0</ele><time>2026-04-30T09:29:01.883Z</time></trkpt><trkpt lat="37.7334119" lon="21.5358003"><ele>63.0</ele><time>2026-04-30T09:29:02.884Z</time></trkpt><trkpt lat="37.7335979" lon="21.5357868"><ele>63.0</ele><time>2026-04-30T09:29:03.884Z</time></trkpt><trkpt lat="37.7337856" lon="21.535766"><ele>63.33333333333333</ele><time>2026-04-30T09:29:04.883Z</time></trkpt><trkpt lat="37.7339676" lon="21.5357439"><ele>63.666666666666664</ele><time>2026-04-30T09:29:05.884Z</time></trkpt><trkpt lat="37.7341358" lon="21.5357178"><ele>64.0</ele><time>2026-04-30T09:29:06.884Z</time></trkpt><trkpt lat="37.7342973" lon="21.5357005"><ele>65.0</ele><time>2026-04-30T09:29:07.883Z</time></trkpt><trkpt lat="37.734455" lon="21.5356865"><ele>66.0</ele><time>2026-04-30T09:29:08.884Z</time></trkpt><trkpt lat="37.7346074" lon="21.5356965"><ele>67.0</ele><time>2026-04-30T09:29:09.883Z</time></trkpt><trkpt lat="37.7347513" lon="21.5357099"><ele>67.0</ele><time>2026-04-30T09:29:10.884Z</time></trkpt><trkpt lat="37.7348682" lon="21.5357388"><ele>67.0</ele><time>2026-04-30T09:29:11.883Z</time></trkpt><trkpt lat="37.7349639" lon="21.5357668"><ele>67.0</ele><time>2026-04-30T09:29:12.884Z</time></trkpt><trkpt lat="37.7350441" lon="21.5357863"><ele>67.0</ele><time>2026-04-30T09:29:13.883Z</time></trkpt><trkpt lat="37.7351181" lon="21.5358052"><ele>67.0</ele><time>2026-04-30T09:29:14.883Z</time></trkpt><trkpt lat="37.7351938" lon="21.5358386"><ele>67.83333333333333</ele><time>2026-04-30T09:29:15.884Z</time></trkpt><trkpt lat="37.7352727" lon="21.5358613"><ele>68.66666666666666</ele><time>2026-04-30T09:29:16.883Z</time></trkpt><trkpt lat="37.7353463" lon="21.5358815"><ele>69.5</ele><time>2026-04-30T09:29:17.883Z</time></trkpt><trkpt lat="37.7354213" lon="21.5358997"><ele>70.33333333333333</ele><time>2026-04-30T09:29:18.884Z</time></trkpt><trkpt lat="37.7355049" lon="21.5359202"><ele>71.16666666666667</ele><time>2026-04-30T09:29:19.884Z</time></trkpt><trkpt lat="37.7355934" lon="21.5359526"><ele>72.0</ele><time>2026-04-30T09:29:20.884Z</time></trkpt><trkpt lat="37.7356944" lon="21.5359771"><ele>72.0</ele><time>2026-04-30T09:29:21.883Z</time></trkpt><trkpt lat="37.7357952" lon="21.5360031"><ele>72.0</ele><time>2026-04-30T09:29:22.884Z</time></trkpt><trkpt lat="37.73589" lon="21.5360324"><ele>72.0</ele><time>2026-04-30T09:29:23.884Z</time></trkpt><trkpt lat="37.7359663" lon="21.5360597"><ele>72.0</ele><time>2026-04-30T09:29:24.884Z</time></trkpt><trkpt lat="37.736033" lon="21.53608"><ele>72.0</ele><time>2026-04-30T09:29:25.884Z</time></trkpt><trkpt lat="37.7361446" lon="21.5361211"><ele>72.66666666666667</ele><time>2026-04-30T09:29:27.883Z</time></trkpt><trkpt lat="37.7362471" lon="21.5362253"><ele>73.33333333333333</ele><time>2026-04-30T09:29:29.883Z</time></trkpt><trkpt lat="37.7362979" lon="21.5362896"><ele>74.0</ele><time>2026-04-30T09:29:30.884Z</time></trkpt><trkpt lat="37.736344" lon="21.5363655"><ele>74.66666666666666</ele><time>2026-04-30T09:29:31.884Z</time></trkpt><trkpt lat="37.7363854" lon="21.536437"><ele>75.33333333333333</ele><time>2026-04-30T09:29:32.884Z</time></trkpt><trkpt lat="37.736431" lon="21.5365209"><ele>76.0</ele><time>2026-04-30T09:29:33.884Z</time></trkpt><trkpt lat="37.7365071" lon="21.536621"><ele>76.0</ele><time>2026-04-30T09:29:35.883Z</time></trkpt><trkpt lat="37.736615" lon="21.5366976"><ele>76.0</ele><time>2026-04-30T09:29:37.883Z</time></trkpt><trkpt lat="37.7366843" lon="21.5367324"><ele>76.0</ele><time>2026-04-30T09:29:38.884Z</time></trkpt><trkpt lat="37.7367539" lon="21.5367679"><ele>76.0</ele><time>2026-04-30T09:29:39.883Z</time></trkpt><trkpt lat="37.736826" lon="21.5368009"><ele>76.0</ele><time>2026-04-30T09:29:40.884Z</time></trkpt><trkpt lat="37.736892" lon="21.5368376"><ele>76.0</ele><time>2026-04-30T09:29:41.884Z</time></trkpt><trkpt lat="37.7369527" lon="21.5368804"><ele>77.0</ele><time>2026-04-30T09:29:42.884Z</time></trkpt><trkpt lat="37.7370224" lon="21.5368342"><ele>78.0</ele><time>2026-04-30T09:29:43.884Z</time></trkpt><trkpt lat="37.737102" lon="21.5367652"><ele>79.0</ele><time>2026-04-30T09:29:44.884Z</time></trkpt><trkpt lat="37.737192" lon="21.536671"><ele>80.0</ele><time>2026-04-30T09:29:45.884Z</time></trkpt><trkpt lat="37.7372782" lon="21.5365983"><ele>81.0</ele><time>2026-04-30T09:29:46.883Z</time></trkpt><trkpt lat="37.7373834" lon="21.5365366"><ele>81.0</ele><time>2026-04-30T09:29:47.883Z</time></trkpt><trkpt lat="37.7374947" lon="21.5364844"><ele>81.0</ele><time>2026-04-30T09:29:48.883Z</time></trkpt><trkpt lat="37.7376335" lon="21.536454"><ele>81.0</ele><time>2026-04-30T09:29:49.884Z</time></trkpt><trkpt lat="37.737762" lon="21.5364104"><ele>81.0</ele><time>2026-04-30T09:29:50.883Z</time></trkpt><trkpt lat="37.7378742" lon="21.5363667"><ele>82.25</ele><time>2026-04-30T09:29:51.883Z</time></trkpt><trkpt lat="37.7379916" lon="21.5362859"><ele>83.5</ele><time>2026-04-30T09:29:52.884Z</time></trkpt><trkpt lat="37.7381064" lon="21.5361947"><ele>84.75</ele><time>2026-04-30T09:29:53.883Z</time></trkpt><trkpt lat="37.7382049" lon="21.536093"><ele>86.0</ele><time>2026-04-30T09:29:54.884Z</time></trkpt><trkpt lat="37.7382998" lon="21.5359965"><ele>86.0</ele><time>2026-04-30T09:29:55.884Z</time></trkpt><trkpt lat="37.738394" lon="21.5359078"><ele>86.0</ele><time>2026-04-30T09:29:56.883Z</time></trkpt><trkpt lat="37.7384849" lon="21.5358203"><ele>86.0</ele><time>2026-04-30T09:29:57.883Z</time></trkpt><trkpt lat="37.7385759" lon="21.5357302"><ele>86.0</ele><time>2026-04-30T09:29:58.884Z</time></trkpt><trkpt lat="37.7386695" lon="21.5356346"><ele>85.8</ele><time>2026-04-30T09:29:59.884Z</time></trkpt><trkpt lat="37.7387602" lon="21.5355572"><ele>85.6</ele><time>2026-04-30T09:30:00.883Z</time></trkpt><trkpt lat="37.7388423" lon="21.535472"><ele>85.4</ele><time>2026-04-30T09:30:01.884Z</time></trkpt><trkpt lat="37.7389183" lon="21.5353838"><ele>85.2</ele><time>2026-04-30T09:30:02.883Z</time></trkpt><trkpt lat="37.7389855" lon="21.5352961"><ele>85.0</ele><time>2026-04-30T09:30:03.883Z</time></trkpt><trkpt lat="37.7390544" lon="21.5351952"><ele>83.0</ele><time>2026-04-30T09:30:04.883Z</time></trkpt><trkpt lat="37.7391342" lon="21.5350869"><ele>81.0</ele><time>2026-04-30T09:30:05.883Z</time></trkpt><trkpt lat="37.7392092" lon="21.5349862"><ele>79.0</ele><time>2026-04-30T09:30:06.883Z</time></trkpt><trkpt lat="37.7392853" lon="21.5348784"><ele>77.0</ele><time>2026-04-30T09:30:07.884Z</time></trkpt><trkpt lat="37.7393496" lon="21.5347655"><ele>76.0</ele><time>2026-04-30T09:30:08.884Z</time></trkpt><trkpt lat="37.7394029" lon="21.5346431"><ele>75.0</ele><time>2026-04-30T09:30:09.883Z</time></trkpt><trkpt lat="37.739471" lon="21.5345204"><ele>74.0</ele><time>2026-04-30T09:30:10.884Z</time></trkpt><trkpt lat="37.739561" lon="21.5344185"><ele>73.0</ele><time>2026-04-30T09:30:11.884Z</time></trkpt><trkpt lat="37.7396573" lon="21.5343288"><ele>72.5</ele><time>2026-04-30T09:30:12.884Z</time></trkpt><trkpt lat="37.7397596" lon="21.5342387"><ele>72.0</ele><time>2026-04-30T09:30:13.883Z</time></trkpt><trkpt lat="37.7398731" lon="21.5341351"><ele>71.5</ele><time>2026-04-30T09:30:14.884Z</time></trkpt><trkpt lat="37.7400012" lon="21.5340389"><ele>71.0</ele><time>2026-04-30T09:30:15.884Z</time></trkpt><trkpt lat="37.7401311" lon="21.5339358"><ele>69.0</ele><time>2026-04-30T09:30:16.883Z</time></trkpt><trkpt lat="37.7402781" lon="21.5338348"><ele>67.0</ele><time>2026-04-30T09:30:17.884Z</time></trkpt><trkpt lat="37.7404318" lon="21.5337308"><ele>65.0</ele><time>2026-04-30T09:30:18.884Z</time></trkpt><trkpt lat="37.7405891" lon="21.5336296"><ele>64.33333333333334</ele><time>2026-04-30T09:30:19.883Z</time></trkpt><trkpt lat="37.7407478" lon="21.533527"><ele>63.66666666666667</ele><time>2026-04-30T09:30:20.884Z</time></trkpt><trkpt lat="37.7409078" lon="21.5334238"><ele>63.0</ele><time>2026-04-30T09:30:21.884Z</time></trkpt><trkpt lat="37.7410657" lon="21.5333244"><ele>62.33333333333333</ele><time>2026-04-30T09:30:22.884Z</time></trkpt><trkpt lat="37.7412275" lon="21.5332302"><ele>61.666666666666664</ele><time>2026-04-30T09:30:23.883Z</time></trkpt><trkpt lat="37.7413901" lon="21.5331536"><ele>61.0</ele><time>2026-04-30T09:30:24.883Z</time></trkpt><trkpt lat="37.7415445" lon="21.5330895"><ele>61.0</ele><time>2026-04-30T09:30:25.884Z</time></trkpt><trkpt lat="37.7417018" lon="21.5330693"><ele>61.0</ele><time>2026-04-30T09:30:26.884Z</time></trkpt><trkpt lat="37.7418676" lon="21.5330674"><ele>61.0</ele><time>2026-04-30T09:30:27.883Z</time></trkpt><trkpt lat="37.7419993" lon="21.5330692"><ele>62.25</ele><time>2026-04-30T09:30:28.883Z</time></trkpt><trkpt lat="37.7421299" lon="21.5330131"><ele>63.5</ele><time>2026-04-30T09:30:29.883Z</time></trkpt><trkpt lat="37.7422597" lon="21.5329366"><ele>64.75</ele><time>2026-04-30T09:30:30.883Z</time></trkpt><trkpt lat="37.7423841" lon="21.5328343"><ele>66.0</ele><time>2026-04-30T09:30:31.884Z</time></trkpt><trkpt lat="37.7425191" lon="21.5327267"><ele>66.0</ele><time>2026-04-30T09:30:32.884Z</time></trkpt><trkpt lat="37.7426568" lon="21.5326238"><ele>66.0</ele><time>2026-04-30T09:30:33.884Z</time></trkpt><trkpt lat="37.7427922" lon="21.5325476"><ele>66.0</ele><time>2026-04-30T09:30:34.884Z</time></trkpt><trkpt lat="37.742925" lon="21.5325015"><ele>66.0</ele><time>2026-04-30T09:30:35.884Z</time></trkpt><trkpt lat="37.7430457" lon="21.5324969"><ele>66.0</ele><time>2026-04-30T09:30:36.883Z</time></trkpt><trkpt lat="37.7431742" lon="21.5325349"><ele>66.0</ele><time>2026-04-30T09:30:37.884Z</time></trkpt><trkpt lat="37.7432937" lon="21.5326135"><ele>66.0</ele><time>2026-04-30T09:30:38.884Z</time></trkpt><trkpt lat="37.7434062" lon="21.5327446"><ele>66.0</ele><time>2026-04-30T09:30:39.884Z</time></trkpt><trkpt lat="37.7435354" lon="21.5328564"><ele>65.66666666666667</ele><time>2026-04-30T09:30:40.883Z</time></trkpt><trkpt lat="37.7436765" lon="21.532956"><ele>65.33333333333334</ele><time>2026-04-30T09:30:41.884Z</time></trkpt><trkpt lat="37.7438406" lon="21.5330083"><ele>65.0</ele><time>2026-04-30T09:30:42.883Z</time></trkpt><trkpt lat="37.744025" lon="21.5330321"><ele>65.0</ele><time>2026-04-30T09:30:43.884Z</time></trkpt><trkpt lat="37.7442293" lon="21.533016"><ele>65.0</ele><time>2026-04-30T09:30:44.884Z</time></trkpt><trkpt lat="37.7444382" lon="21.5329886"><ele>65.0</ele><time>2026-04-30T09:30:45.883Z</time></trkpt><trkpt lat="37.744646" lon="21.5329608"><ele>65.66666666666667</ele><time>2026-04-30T09:30:46.883Z</time></trkpt><trkpt lat="37.744854" lon="21.5329393"><ele>66.33333333333333</ele><time>2026-04-30T09:30:47.883Z</time></trkpt><trkpt lat="37.7450497" lon="21.5329237"><ele>67.0</ele><time>2026-04-30T09:30:48.884Z</time></trkpt><trkpt lat="37.7452439" lon="21.5329025"><ele>67.0</ele><time>2026-04-30T09:30:49.884Z</time></trkpt><trkpt lat="37.7454336" lon="21.5328897"><ele>67.0</ele><time>2026-04-30T09:30:50.884Z</time></trkpt><trkpt lat="37.7456222" lon="21.532884"><ele>67.0</ele><time>2026-04-30T09:30:51.883Z</time></trkpt><trkpt lat="37.7458077" lon="21.5328606"><ele>67.0</ele><time>2026-04-30T09:30:52.884Z</time></trkpt><trkpt lat="37.7459809" lon="21.5328393"><ele>67.0</ele><time>2026-04-30T09:30:53.883Z</time></trkpt><trkpt lat="37.7461549" lon="21.5328093"><ele>67.0</ele><time>2026-04-30T09:30:54.884Z</time></trkpt><trkpt lat="37.7463149" lon="21.5327855"><ele>67.33333333333333</ele><time>2026-04-30T09:30:55.883Z</time></trkpt><trkpt lat="37.7464699" lon="21.5327828"><ele>67.66666666666667</ele><time>2026-04-30T09:30:56.884Z</time></trkpt><trkpt lat="37.746636" lon="21.5328002"><ele>68.0</ele><time>2026-04-30T09:30:57.884Z</time></trkpt><trkpt lat="37.7468129" lon="21.5328515"><ele>68.66666666666667</ele><time>2026-04-30T09:30:58.883Z</time></trkpt><trkpt lat="37.7470006" lon="21.5328927"><ele>69.33333333333333</ele><time>2026-04-30T09:30:59.884Z</time></trkpt><trkpt lat="37.747187" lon="21.5329308"><ele>70.0</ele><time>2026-04-30T09:31:00.884Z</time></trkpt><trkpt lat="37.7473753" lon="21.5329721"><ele>70.0</ele><time>2026-04-30T09:31:01.884Z</time></trkpt><trkpt lat="37.7475577" lon="21.5330215"><ele>70.0</ele><time>2026-04-30T09:31:02.883Z</time></trkpt><trkpt lat="37.7477434" lon="21.5330681"><ele>70.0</ele><time>2026-04-30T09:31:03.884Z</time></trkpt><trkpt lat="37.7479199" lon="21.5331184"><ele>69.66666666666666</ele><time>2026-04-30T09:31:04.884Z</time></trkpt><trkpt lat="37.7480881" lon="21.5331578"><ele>69.33333333333333</ele><time>2026-04-30T09:31:05.883Z</time></trkpt><trkpt lat="37.7482291" lon="21.5332115"><ele>69.0</ele><time>2026-04-30T09:31:06.884Z</time></trkpt><trkpt lat="37.7483766" lon="21.5332416"><ele>69.0</ele><time>2026-04-30T09:31:07.884Z</time></trkpt><trkpt lat="37.7485121" lon="21.5332252"><ele>69.0</ele><time>2026-04-30T09:31:08.884Z</time></trkpt><trkpt lat="37.7486617" lon="21.5331644"><ele>69.0</ele><time>2026-04-30T09:31:09.883Z</time></trkpt><trkpt lat="37.7488132" lon="21.533082"><ele>69.33333333333333</ele><time>2026-04-30T09:31:10.883Z</time></trkpt><trkpt lat="37.7489744" lon="21.5329935"><ele>69.66666666666666</ele><time>2026-04-30T09:31:11.883Z</time></trkpt><trkpt lat="37.7491321" lon="21.5329151"><ele>70.0</ele><time>2026-04-30T09:31:12.884Z</time></trkpt><trkpt lat="37.7492949" lon="21.5328431"><ele>70.66666666666666</ele><time>2026-04-30T09:31:13.884Z</time></trkpt><trkpt lat="37.7494606" lon="21.5327702"><ele>71.33333333333333</ele><time>2026-04-30T09:31:14.883Z</time></trkpt><trkpt lat="37.7496306" lon="21.5327046"><ele>72.0</ele><time>2026-04-30T09:31:15.884Z</time></trkpt><trkpt lat="37.7497908" lon="21.5326595"><ele>72.0</ele><time>2026-04-30T09:31:16.883Z</time></trkpt><trkpt lat="37.7499501" lon="21.5326504"><ele>72.0</ele><time>2026-04-30T09:31:17.884Z</time></trkpt><trkpt lat="37.7501285" lon="21.5326714"><ele>72.0</ele><time>2026-04-30T09:31:18.884Z</time></trkpt><trkpt lat="37.750305" lon="21.5326989"><ele>73.0</ele><time>2026-04-30T09:31:19.883Z</time></trkpt><trkpt lat="37.7504847" lon="21.5327405"><ele>74.0</ele><time>2026-04-30T09:31:20.883Z</time></trkpt><trkpt lat="37.7506627" lon="21.532765"><ele>75.0</ele><time>2026-04-30T09:31:21.884Z</time></trkpt><trkpt lat="37.7508436" lon="21.5327691"><ele>75.0</ele><time>2026-04-30T09:31:22.884Z</time></trkpt><trkpt lat="37.7510283" lon="21.5327607"><ele>75.0</ele><time>2026-04-30T09:31:23.884Z</time></trkpt><trkpt lat="37.7512131" lon="21.5327371"><ele>75.0</ele><time>2026-04-30T09:31:24.883Z</time></trkpt><trkpt lat="37.7514015" lon="21.532715"><ele>79.66666666666667</ele><time>2026-04-30T09:31:25.884Z</time></trkpt><trkpt lat="37.751597" lon="21.5326991"><ele>84.33333333333334</ele><time>2026-04-30T09:31:26.884Z</time></trkpt><trkpt lat="37.7517859" lon="21.5327273"><ele>89.0</ele><time>2026-04-30T09:31:27.883Z</time></trkpt><trkpt lat="37.7519628" lon="21.5327626"><ele>90.33333333333334</ele><time>2026-04-30T09:31:28.884Z</time></trkpt><trkpt lat="37.7521185" lon="21.5328085"><ele>91.66666666666667</ele><time>2026-04-30T09:31:29.883Z</time></trkpt><trkpt lat="37.7522717" lon="21.5328891"><ele>93.0</ele><time>2026-04-30T09:31:30.884Z</time></trkpt><trkpt lat="37.7524336" lon="21.5330274"><ele>91.33333333333333</ele><time>2026-04-30T09:31:31.884Z</time></trkpt><trkpt lat="37.7526027" lon="21.5331566"><ele>89.66666666666666</ele><time>2026-04-30T09:31:32.884Z</time></trkpt><trkpt lat="37.7527774" lon="21.5332871"><ele>88.0</ele><time>2026-04-30T09:31:33.883Z</time></trkpt><trkpt lat="37.7529465" lon="21.5334132"><ele>88.0</ele><time>2026-04-30T09:31:34.884Z</time></trkpt><trkpt lat="37.753098" lon="21.5335248"><ele>88.0</ele><time>2026-04-30T09:31:35.884Z</time></trkpt><trkpt lat="37.753233" lon="21.5336365"><ele>88.0</ele><time>2026-04-30T09:31:36.884Z</time></trkpt><trkpt lat="37.7533412" lon="21.5337683"><ele>87.25</ele><time>2026-04-30T09:31:37.884Z</time></trkpt><trkpt lat="37.753428" lon="21.5339123"><ele>86.5</ele><time>2026-04-30T09:31:38.883Z</time></trkpt><trkpt lat="37.7534734" lon="21.5340628"><ele>85.75</ele><time>2026-04-30T09:31:39.884Z</time></trkpt><trkpt lat="37.7535131" lon="21.5342041"><ele>85.0</ele><time>2026-04-30T09:31:40.884Z</time></trkpt><trkpt lat="37.7535694" lon="21.5343128"><ele>87.25</ele><time>2026-04-30T09:31:41.883Z</time></trkpt><trkpt lat="37.7536539" lon="21.534369"><ele>89.5</ele><time>2026-04-30T09:31:42.884Z</time></trkpt><trkpt lat="37.75375" lon="21.5343727"><ele>91.75</ele><time>2026-04-30T09:31:43.884Z</time></trkpt><trkpt lat="37.7538861" lon="21.5343314"><ele>94.0</ele><time>2026-04-30T09:31:44.884Z</time></trkpt><trkpt lat="37.7540329" lon="21.5342528"><ele>94.0</ele><time>2026-04-30T09:31:45.883Z</time></trkpt><trkpt lat="37.7541827" lon="21.5341811"><ele>94.0</ele><time>2026-04-30T09:31:46.883Z</time></trkpt><trkpt lat="37.7543461" lon="21.5341108"><ele>94.0</ele><time>2026-04-30T09:31:47.883Z</time></trkpt><trkpt lat="37.7544931" lon="21.5341367"><ele>97.0</ele><time>2026-04-30T09:31:48.884Z</time></trkpt><trkpt lat="37.754649" lon="21.5341449"><ele>100.0</ele><time>2026-04-30T09:31:49.883Z</time></trkpt><trkpt lat="37.7547938" lon="21.5341282"><ele>103.0</ele><time>2026-04-30T09:31:50.884Z</time></trkpt><trkpt lat="37.754946" lon="21.5340737"><ele>103.0</ele><time>2026-04-30T09:31:51.883Z</time></trkpt><trkpt lat="37.7550941" lon="21.5340012"><ele>103.0</ele><time>2026-04-30T09:31:52.883Z</time></trkpt><trkpt lat="37.7552364" lon="21.5339202"><ele>103.0</ele><time>2026-04-30T09:31:53.884Z</time></trkpt><trkpt lat="37.7553755" lon="21.5338273"><ele>103.0</ele><time>2026-04-30T09:31:54.883Z</time></trkpt><trkpt lat="37.7555067" lon="21.5337247"><ele>103.0</ele><time>2026-04-30T09:31:55.883Z</time></trkpt><trkpt lat="37.7556233" lon="21.5335848"><ele>103.0</ele><time>2026-04-30T09:31:56.884Z</time></trkpt><trkpt lat="37.7557274" lon="21.5333983"><ele>103.0</ele><time>2026-04-30T09:31:57.883Z</time></trkpt><trkpt lat="37.7558205" lon="21.5332159"><ele>103.0</ele><time>2026-04-30T09:31:58.883Z</time></trkpt><trkpt lat="37.7559172" lon="21.533036"><ele>103.0</ele><time>2026-04-30T09:31:59.883Z</time></trkpt><trkpt lat="37.7560226" lon="21.532885"><ele>99.75</ele><time>2026-04-30T09:32:00.883Z</time></trkpt><trkpt lat="37.7561346" lon="21.5327541"><ele>96.5</ele><time>2026-04-30T09:32:01.884Z</time></trkpt><trkpt lat="37.7562464" lon="21.5327121"><ele>93.25</ele><time>2026-04-30T09:32:02.884Z</time></trkpt><trkpt lat="37.7563717" lon="21.5327073"><ele>90.0</ele><time>2026-04-30T09:32:03.883Z</time></trkpt><trkpt lat="37.7565075" lon="21.532772"><ele>90.0</ele><time>2026-04-30T09:32:04.884Z</time></trkpt><trkpt lat="37.7566363" lon="21.5328375"><ele>90.0</ele><time>2026-04-30T09:32:05.883Z</time></trkpt><trkpt lat="37.7567673" lon="21.5329096"><ele>90.0</ele><time>2026-04-30T09:32:06.884Z</time></trkpt><trkpt lat="37.7569099" lon="21.5329713"><ele>90.0</ele><time>2026-04-30T09:32:07.883Z</time></trkpt><trkpt lat="37.7570442" lon="21.5330103"><ele>91.25</ele><time>2026-04-30T09:32:08.883Z</time></trkpt><trkpt lat="37.7571831" lon="21.5330308"><ele>92.5</ele><time>2026-04-30T09:32:09.884Z</time></trkpt><trkpt lat="37.7573179" lon="21.5330644"><ele>93.75</ele><time>2026-04-30T09:32:10.883Z</time></trkpt><trkpt lat="37.7574333" lon="21.5331177"><ele>95.0</ele><time>2026-04-30T09:32:11.883Z</time></trkpt><trkpt lat="37.7575295" lon="21.5332212"><ele>95.0</ele><time>2026-04-30T09:32:12.884Z</time></trkpt><trkpt lat="37.7576292" lon="21.5333482"><ele>95.0</ele><time>2026-04-30T09:32:13.884Z</time></trkpt><trkpt lat="37.7577022" lon="21.533517"><ele>95.0</ele><time>2026-04-30T09:32:14.884Z</time></trkpt><trkpt lat="37.757799" lon="21.5336537"><ele>95.0</ele><time>2026-04-30T09:32:15.884Z</time></trkpt><trkpt lat="37.7579144" lon="21.5337614"><ele>94.75</ele><time>2026-04-30T09:32:16.884Z</time></trkpt><trkpt lat="37.758042" lon="21.5338222"><ele>94.5</ele><time>2026-04-30T09:32:17.883Z</time></trkpt><trkpt lat="37.7581813" lon="21.5338404"><ele>94.25</ele><time>2026-04-30T09:32:18.884Z</time></trkpt><trkpt lat="37.7583296" lon="21.5338458"><ele>94.0</ele><time>2026-04-30T09:32:19.884Z</time></trkpt><trkpt lat="37.7584657" lon="21.5338701"><ele>91.33333333333333</ele><time>2026-04-30T09:32:20.883Z</time></trkpt><trkpt lat="37.7586111" lon="21.5338969"><ele>88.66666666666667</ele><time>2026-04-30T09:32:21.883Z</time></trkpt><trkpt lat="37.7587116" lon="21.5340903"><ele>86.0</ele><time>2026-04-30T09:32:22.883Z</time></trkpt><trkpt lat="37.758836" lon="21.5341856"><ele>86.0</ele><time>2026-04-30T09:32:23.884Z</time></trkpt><trkpt lat="37.7589836" lon="21.5342606"><ele>86.0</ele><time>2026-04-30T09:32:24.883Z</time></trkpt><trkpt lat="37.7591551" lon="21.5343142"><ele>86.0</ele><time>2026-04-30T09:32:25.884Z</time></trkpt><trkpt lat="37.7593486" lon="21.5343588"><ele>85.66666666666667</ele><time>2026-04-30T09:32:26.884Z</time></trkpt><trkpt lat="37.7595368" lon="21.5343883"><ele>85.33333333333333</ele><time>2026-04-30T09:32:27.884Z</time></trkpt><trkpt lat="37.7597137" lon="21.5344309"><ele>85.0</ele><time>2026-04-30T09:32:28.884Z</time></trkpt><trkpt lat="37.7598815" lon="21.5344672"><ele>87.0</ele><time>2026-04-30T09:32:29.883Z</time></trkpt><trkpt lat="37.7600103" lon="21.5345947"><ele>89.0</ele><time>2026-04-30T09:32:30.884Z</time></trkpt><trkpt lat="37.7601503" lon="21.5347407"><ele>91.0</ele><time>2026-04-30T09:32:31.883Z</time></trkpt><trkpt lat="37.7602916" lon="21.5348899"><ele>91.0</ele><time>2026-04-30T09:32:32.884Z</time></trkpt><trkpt lat="37.7604383" lon="21.5350487"><ele>91.0</ele><time>2026-04-30T09:32:33.884Z</time></trkpt><trkpt lat="37.7605803" lon="21.535195"><ele>91.0</ele><time>2026-04-30T09:32:34.883Z</time></trkpt><trkpt lat="37.7607304" lon="21.535326"><ele>90.66666666666666</ele><time>2026-04-30T09:32:35.884Z</time></trkpt><trkpt lat="37.7608588" lon="21.5354588"><ele>90.33333333333333</ele><time>2026-04-30T09:32:36.884Z</time></trkpt><trkpt lat="37.7609855" lon="21.535591"><ele>90.0</ele><time>2026-04-30T09:32:37.884Z</time></trkpt><trkpt lat="37.7611099" lon="21.5357389"><ele>90.0</ele><time>2026-04-30T09:32:38.884Z</time></trkpt><trkpt lat="37.7612314" lon="21.5358957"><ele>90.0</ele><time>2026-04-30T09:32:39.884Z</time></trkpt><trkpt lat="37.7613196" lon="21.5361253"><ele>90.0</ele><time>2026-04-30T09:32:40.883Z</time></trkpt><trkpt lat="37.7614399" lon="21.5363278"><ele>92.0</ele><time>2026-04-30T09:32:41.883Z</time></trkpt><trkpt lat="37.7615787" lon="21.5365225"><ele>94.0</ele><time>2026-04-30T09:32:42.883Z</time></trkpt><trkpt lat="37.761709" lon="21.5366927"><ele>96.0</ele><time>2026-04-30T09:32:43.883Z</time></trkpt><trkpt lat="37.761834" lon="21.5368541"><ele>96.0</ele><time>2026-04-30T09:32:44.884Z</time></trkpt><trkpt lat="37.7619601" lon="21.5370024"><ele>96.0</ele><time>2026-04-30T09:32:45.884Z</time></trkpt><trkpt lat="37.7620825" lon="21.5371676"><ele>96.0</ele><time>2026-04-30T09:32:46.884Z</time></trkpt><trkpt lat="37.7621742" lon="21.5373389"><ele>96.0</ele><time>2026-04-30T09:32:47.883Z</time></trkpt><trkpt lat="37.7622298" lon="21.5375277"><ele>96.0</ele><time>2026-04-30T09:32:48.884Z</time></trkpt><trkpt lat="37.7623111" lon="21.5377045"><ele>96.0</ele><time>2026-04-30T09:32:49.884Z</time></trkpt><trkpt lat="37.7624056" lon="21.5378812"><ele>95.0</ele><time>2026-04-30T09:32:50.884Z</time></trkpt><trkpt lat="37.7625139" lon="21.5380332"><ele>94.0</ele><time>2026-04-30T09:32:51.884Z</time></trkpt><trkpt lat="37.7626124" lon="21.5381735"><ele>93.0</ele><time>2026-04-30T09:32:52.884Z</time></trkpt><trkpt lat="37.7627125" lon="21.538308"><ele>93.0</ele><time>2026-04-30T09:32:53.883Z</time></trkpt><trkpt lat="37.7627214" lon="21.5385113"><ele>93.0</ele><time>2026-04-30T09:32:54.883Z</time></trkpt><trkpt lat="37.762767" lon="21.5386857"><ele>93.0</ele><time>2026-04-30T09:32:55.883Z</time></trkpt><trkpt lat="37.7628102" lon="21.5388498"><ele>93.0</ele><time>2026-04-30T09:32:56.884Z</time></trkpt><trkpt lat="37.7628687" lon="21.539013"><ele>94.0</ele><time>2026-04-30T09:32:57.883Z</time></trkpt><trkpt lat="37.7629525" lon="21.5391621"><ele>95.0</ele><time>2026-04-30T09:32:58.883Z</time></trkpt><trkpt lat="37.763067" lon="21.5393076"><ele>96.0</ele><time>2026-04-30T09:32:59.883Z</time></trkpt><trkpt lat="37.7631998" lon="21.5394424"><ele>97.33333333333334</ele><time>2026-04-30T09:33:00.884Z</time></trkpt><trkpt lat="37.7633411" lon="21.5395663"><ele>98.66666666666667</ele><time>2026-04-30T09:33:01.883Z</time></trkpt><trkpt lat="37.7635059" lon="21.5396749"><ele>100.0</ele><time>2026-04-30T09:33:02.883Z</time></trkpt><trkpt lat="37.7636704" lon="21.539769"><ele>100.0</ele><time>2026-04-30T09:33:03.883Z</time></trkpt><trkpt lat="37.7638503" lon="21.5398448"><ele>100.0</ele><time>2026-04-30T09:33:04.884Z</time></trkpt><trkpt lat="37.7640345" lon="21.5399134"><ele>100.0</ele><time>2026-04-30T09:33:05.884Z</time></trkpt><trkpt lat="37.7642234" lon="21.5399832"><ele>99.66666666666667</ele><time>2026-04-30T09:33:06.884Z</time></trkpt><trkpt lat="37.7644022" lon="21.5400415"><ele>99.33333333333334</ele><time>2026-04-30T09:33:07.884Z</time></trkpt><trkpt lat="37.7645644" lon="21.5400789"><ele>99.0</ele><time>2026-04-30T09:33:08.884Z</time></trkpt><trkpt lat="37.7647294" lon="21.540082"><ele>99.0</ele><time>2026-04-30T09:33:09.883Z</time></trkpt><trkpt lat="37.764889" lon="21.5400594"><ele>99.0</ele><time>2026-04-30T09:33:10.884Z</time></trkpt><trkpt lat="37.7650405" lon="21.5399881"><ele>99.0</ele><time>2026-04-30T09:33:11.884Z</time></trkpt><trkpt lat="37.765195" lon="21.5398771"><ele>98.0</ele><time>2026-04-30T09:33:12.884Z</time></trkpt><trkpt lat="37.7653383" lon="21.5397762"><ele>97.0</ele><time>2026-04-30T09:33:13.883Z</time></trkpt><trkpt lat="37.7654874" lon="21.5396854"><ele>96.0</ele><time>2026-04-30T09:33:14.883Z</time></trkpt><trkpt lat="37.7656171" lon="21.5396298"><ele>96.0</ele><time>2026-04-30T09:33:15.884Z</time></trkpt><trkpt lat="37.7657468" lon="21.5396292"><ele>96.0</ele><time>2026-04-30T09:33:16.883Z</time></trkpt><trkpt lat="37.7658842" lon="21.5396551"><ele>96.0</ele><time>2026-04-30T09:33:17.883Z</time></trkpt><trkpt lat="37.766015" lon="21.5397801"><ele>96.0</ele><time>2026-04-30T09:33:18.884Z</time></trkpt><trkpt lat="37.766156" lon="21.5399035"><ele>98.0</ele><time>2026-04-30T09:33:19.884Z</time></trkpt><trkpt lat="37.7663059" lon="21.5400325"><ele>100.0</ele><time>2026-04-30T09:33:20.883Z</time></trkpt><trkpt lat="37.7664615" lon="21.5401652"><ele>102.0</ele><time>2026-04-30T09:33:21.884Z</time></trkpt><trkpt lat="37.7666215" lon="21.5402903"><ele>102.66666666666666</ele><time>2026-04-30T09:33:22.883Z</time></trkpt><trkpt lat="37.7667905" lon="21.5404097"><ele>103.33333333333333</ele><time>2026-04-30T09:33:23.883Z</time></trkpt><trkpt lat="37.7669381" lon="21.5405151"><ele>104.0</ele><time>2026-04-30T09:33:24.883Z</time></trkpt><trkpt lat="37.7670759" lon="21.540601"><ele>104.0</ele><time>2026-04-30T09:33:25.883Z</time></trkpt><trkpt lat="37.7672035" lon="21.5406482"><ele>104.0</ele><time>2026-04-30T09:33:26.883Z</time></trkpt><trkpt lat="37.7673234" lon="21.540668"><ele>104.0</ele><time>2026-04-30T09:33:27.884Z</time></trkpt><trkpt lat="37.7674447" lon="21.5405864"><ele>104.0</ele><time>2026-04-30T09:33:28.883Z</time></trkpt><trkpt lat="37.7675661" lon="21.5404687"><ele>105.66666666666666</ele><time>2026-04-30T09:33:29.884Z</time></trkpt><trkpt lat="37.7677027" lon="21.5403428"><ele>107.33333333333334</ele><time>2026-04-30T09:33:30.883Z</time></trkpt><trkpt lat="37.767851" lon="21.5402329"><ele>109.0</ele><time>2026-04-30T09:33:31.884Z</time></trkpt><trkpt lat="37.7680018" lon="21.5401369"><ele>109.0</ele><time>2026-04-30T09:33:32.884Z</time></trkpt><trkpt lat="37.7681675" lon="21.5400561"><ele>109.0</ele><time>2026-04-30T09:33:33.884Z</time></trkpt><trkpt lat="37.7683343" lon="21.5400233"><ele>109.0</ele><time>2026-04-30T09:33:34.883Z</time></trkpt><trkpt lat="37.7685068" lon="21.5399946"><ele>110.0</ele><time>2026-04-30T09:33:35.883Z</time></trkpt><trkpt lat="37.7686814" lon="21.5399792"><ele>111.0</ele><time>2026-04-30T09:33:36.883Z</time></trkpt><trkpt lat="37.7688425" lon="21.5400059"><ele>112.0</ele><time>2026-04-30T09:33:37.883Z</time></trkpt><trkpt lat="37.7690045" lon="21.5400576"><ele>112.0</ele><time>2026-04-30T09:33:38.884Z</time></trkpt><trkpt lat="37.7691754" lon="21.5401281"><ele>112.0</ele><time>2026-04-30T09:33:39.884Z</time></trkpt><trkpt lat="37.7693383" lon="21.5402118"><ele>112.0</ele><time>2026-04-30T09:33:40.884Z</time></trkpt><trkpt lat="37.769485" lon="21.5403002"><ele>110.33333333333334</ele><time>2026-04-30T09:33:41.884Z</time></trkpt><trkpt lat="37.7696139" lon="21.5404083"><ele>108.66666666666666</ele><time>2026-04-30T09:33:42.883Z</time></trkpt><trkpt lat="37.7697228" lon="21.5405353"><ele>107.0</ele><time>2026-04-30T09:33:43.883Z</time></trkpt><trkpt lat="37.7698123" lon="21.5406951"><ele>107.0</ele><time>2026-04-30T09:33:44.884Z</time></trkpt><trkpt lat="37.7698834" lon="21.5408594"><ele>107.0</ele><time>2026-04-30T09:33:45.883Z</time></trkpt><trkpt lat="37.7699357" lon="21.5410328"><ele>107.0</ele><time>2026-04-30T09:33:46.884Z</time></trkpt><trkpt lat="37.769974" lon="21.541194"><ele>107.0</ele><time>2026-04-30T09:33:47.884Z</time></trkpt><trkpt lat="37.769993" lon="21.5413465"><ele>108.5</ele><time>2026-04-30T09:33:48.883Z</time></trkpt><trkpt lat="37.7699846" lon="21.5414859"><ele>110.0</ele><time>2026-04-30T09:33:49.884Z</time></trkpt><trkpt lat="37.7699526" lon="21.5416021"><ele>111.5</ele><time>2026-04-30T09:33:50.884Z</time></trkpt><trkpt lat="37.7698382" lon="21.5416959"><ele>113.0</ele><time>2026-04-30T09:33:51.884Z</time></trkpt><trkpt lat="37.7697034" lon="21.5418153"><ele>113.0</ele><time>2026-04-30T09:33:52.884Z</time></trkpt><trkpt lat="37.7695736" lon="21.5419374"><ele>113.0</ele><time>2026-04-30T09:33:53.884Z</time></trkpt><trkpt lat="37.7694544" lon="21.5420736"><ele>113.0</ele><time>2026-04-30T09:33:54.883Z</time></trkpt><trkpt lat="37.7693586" lon="21.5422127"><ele>113.5</ele><time>2026-04-30T09:33:55.884Z</time></trkpt><trkpt lat="37.7692974" lon="21.5423625"><ele>114.0</ele><time>2026-04-30T09:33:56.883Z</time></trkpt><trkpt lat="37.7692737" lon="21.5425185"><ele>114.5</ele><time>2026-04-30T09:33:57.884Z</time></trkpt><trkpt lat="37.7692966" lon="21.5426868"><ele>115.0</ele><time>2026-04-30T09:33:58.883Z</time></trkpt><trkpt lat="37.769342" lon="21.5428547"><ele>121.33333333333334</ele><time>2026-04-30T09:33:59.884Z</time></trkpt><trkpt lat="37.7693843" lon="21.5430419"><ele>127.66666666666666</ele><time>2026-04-30T09:34:00.884Z</time></trkpt><trkpt lat="37.7693921" lon="21.5432487"><ele>134.0</ele><time>2026-04-30T09:34:01.884Z</time></trkpt><trkpt lat="37.7693907" lon="21.5434931"><ele>134.66666666666666</ele><time>2026-04-30T09:34:02.883Z</time></trkpt><trkpt lat="37.7694052" lon="21.5437542"><ele>135.33333333333334</ele><time>2026-04-30T09:34:03.883Z</time></trkpt><trkpt lat="37.7694251" lon="21.5440171"><ele>136.0</ele><time>2026-04-30T09:34:04.883Z</time></trkpt><trkpt lat="37.769449" lon="21.5442561"><ele>136.0</ele><time>2026-04-30T09:34:05.884Z</time></trkpt><trkpt lat="37.7694736" lon="21.5444536"><ele>136.0</ele><time>2026-04-30T09:34:06.884Z</time></trkpt><trkpt lat="37.7695316" lon="21.5446348"><ele>136.0</ele><time>2026-04-30T09:34:07.884Z</time></trkpt><trkpt lat="37.7696197" lon="21.5447962"><ele>136.0</ele><time>2026-04-30T09:34:08.884Z</time></trkpt><trkpt lat="37.7697089" lon="21.544939"><ele>136.0</ele><time>2026-04-30T09:34:09.883Z</time></trkpt><trkpt lat="37.7697908" lon="21.5450802"><ele>136.0</ele><time>2026-04-30T09:34:10.883Z</time></trkpt><trkpt lat="37.7698484" lon="21.5452574"><ele>136.0</ele><time>2026-04-30T09:34:11.884Z</time></trkpt><trkpt lat="37.7698831" lon="21.5454854"><ele>136.0</ele><time>2026-04-30T09:34:12.883Z</time></trkpt><trkpt lat="37.7699029" lon="21.5457265"><ele>136.0</ele><time>2026-04-30T09:34:13.884Z</time></trkpt><trkpt lat="37.7699353" lon="21.5459925"><ele>136.0</ele><time>2026-04-30T09:34:14.884Z</time></trkpt><trkpt lat="37.769976" lon="21.5462355"><ele>135.33333333333334</ele><time>2026-04-30T09:34:15.883Z</time></trkpt><trkpt lat="37.7700018" lon="21.5464572"><ele>134.66666666666666</ele><time>2026-04-30T09:34:16.884Z</time></trkpt><trkpt lat="37.7700053" lon="21.5466603"><ele>134.0</ele><time>2026-04-30T09:34:17.884Z</time></trkpt><trkpt lat="37.7699865" lon="21.5468515"><ele>134.0</ele><time>2026-04-30T09:34:18.883Z</time></trkpt><trkpt lat="37.7699808" lon="21.5470316"><ele>134.0</ele><time>2026-04-30T09:34:19.883Z</time></trkpt><trkpt lat="37.7700095" lon="21.5472207"><ele>134.0</ele><time>2026-04-30T09:34:20.883Z</time></trkpt><trkpt lat="37.7700787" lon="21.5474029"><ele>135.0</ele><time>2026-04-30T09:34:21.884Z</time></trkpt><trkpt lat="37.7701706" lon="21.5475829"><ele>136.0</ele><time>2026-04-30T09:34:22.884Z</time></trkpt><trkpt lat="37.7702601" lon="21.5477767"><ele>137.0</ele><time>2026-04-30T09:34:23.883Z</time></trkpt><trkpt lat="37.7703008" lon="21.5479912"><ele>148.0</ele><time>2026-04-30T09:34:24.884Z</time></trkpt><trkpt lat="37.7703267" lon="21.5482125"><ele>159.0</ele><time>2026-04-30T09:34:25.883Z</time></trkpt><trkpt lat="37.7703516" lon="21.5484323"><ele>170.0</ele><time>2026-04-30T09:34:26.883Z</time></trkpt><trkpt lat="37.7703978" lon="21.5486429"><ele>167.33333333333331</ele><time>2026-04-30T09:34:27.884Z</time></trkpt><trkpt lat="37.7704769" lon="21.5488499"><ele>164.66666666666666</ele><time>2026-04-30T09:34:28.884Z</time></trkpt><trkpt lat="37.7705876" lon="21.5490578"><ele>162.0</ele><time>2026-04-30T09:34:29.884Z</time></trkpt><trkpt lat="37.7707156" lon="21.5492564"><ele>162.0</ele><time>2026-04-30T09:34:30.884Z</time></trkpt><trkpt lat="37.7708374" lon="21.5494501"><ele>162.0</ele><time>2026-04-30T09:34:31.884Z</time></trkpt><trkpt lat="37.7709485" lon="21.5496258"><ele>162.0</ele><time>2026-04-30T09:34:32.883Z</time></trkpt><trkpt lat="37.7710237" lon="21.5497581"><ele>161.75</ele><time>2026-04-30T09:34:33.884Z</time></trkpt><trkpt lat="37.7711274" lon="21.5498546"><ele>161.5</ele><time>2026-04-30T09:34:34.884Z</time></trkpt><trkpt lat="37.7712635" lon="21.549906"><ele>161.25</ele><time>2026-04-30T09:34:35.883Z</time></trkpt><trkpt lat="37.7714285" lon="21.5499136"><ele>161.0</ele><time>2026-04-30T09:34:36.883Z</time></trkpt><trkpt lat="37.771628" lon="21.5499053"><ele>161.0</ele><time>2026-04-30T09:34:37.884Z</time></trkpt><trkpt lat="37.7718355" lon="21.5499105"><ele>161.0</ele><time>2026-04-30T09:34:38.883Z</time></trkpt><trkpt lat="37.7720467" lon="21.5499292"><ele>161.0</ele><time>2026-04-30T09:34:39.884Z</time></trkpt><trkpt lat="37.7722314" lon="21.5499412"><ele>163.0</ele><time>2026-04-30T09:34:40.883Z</time></trkpt><trkpt lat="37.7723994" lon="21.5499833"><ele>165.0</ele><time>2026-04-30T09:34:41.884Z</time></trkpt><trkpt lat="37.7725652" lon="21.5500593"><ele>167.0</ele><time>2026-04-30T09:34:42.884Z</time></trkpt><trkpt lat="37.7727114" lon="21.5501817"><ele>165.25</ele><time>2026-04-30T09:34:43.883Z</time></trkpt><trkpt lat="37.772851" lon="21.5502874"><ele>163.5</ele><time>2026-04-30T09:34:44.884Z</time></trkpt><trkpt lat="37.7729802" lon="21.5503738"><ele>161.75</ele><time>2026-04-30T09:34:45.884Z</time></trkpt><trkpt lat="37.7730938" lon="21.5504422"><ele>160.0</ele><time>2026-04-30T09:34:46.884Z</time></trkpt><trkpt lat="37.7732176" lon="21.550483"><ele>160.0</ele><time>2026-04-30T09:34:47.883Z</time></trkpt><trkpt lat="37.7733346" lon="21.5504848"><ele>160.0</ele><time>2026-04-30T09:34:48.883Z</time></trkpt><trkpt lat="37.7734606" lon="21.5504238"><ele>160.0</ele><time>2026-04-30T09:34:49.883Z</time></trkpt><trkpt lat="37.7735861" lon="21.550338"><ele>160.0</ele><time>2026-04-30T09:34:50.884Z</time></trkpt><trkpt lat="37.7737119" lon="21.550255"><ele>167.75</ele><time>2026-04-30T09:34:51.883Z</time></trkpt><trkpt lat="37.773842" lon="21.5501783"><ele>175.5</ele><time>2026-04-30T09:34:52.883Z</time></trkpt><trkpt lat="37.7739834" lon="21.550187"><ele>183.25</ele><time>2026-04-30T09:34:53.884Z</time></trkpt><trkpt lat="37.7741221" lon="21.5502086"><ele>191.0</ele><time>2026-04-30T09:34:54.884Z</time></trkpt><trkpt lat="37.7742702" lon="21.55027"><ele>192.33333333333331</ele><time>2026-04-30T09:34:55.883Z</time></trkpt><trkpt lat="37.7744165" lon="21.5503509"><ele>193.66666666666666</ele><time>2026-04-30T09:34:56.883Z</time></trkpt><trkpt lat="37.7745234" lon="21.550494"><ele>195.0</ele><time>2026-04-30T09:34:57.884Z</time></trkpt><trkpt lat="37.7746229" lon="21.5506534"><ele>195.0</ele><time>2026-04-30T09:34:58.884Z</time></trkpt><trkpt lat="37.7747061" lon="21.5508438"><ele>195.0</ele><time>2026-04-30T09:34:59.883Z</time></trkpt><trkpt lat="37.7747728" lon="21.5510303"><ele>195.0</ele><time>2026-04-30T09:35:00.884Z</time></trkpt><trkpt lat="37.7748365" lon="21.5512083"><ele>190.66666666666666</ele><time>2026-04-30T09:35:01.883Z</time></trkpt><trkpt lat="37.7749155" lon="21.5513758"><ele>186.33333333333331</ele><time>2026-04-30T09:35:02.884Z</time></trkpt><trkpt lat="37.7750308" lon="21.5515162"><ele>182.0</ele><time>2026-04-30T09:35:03.883Z</time></trkpt><trkpt lat="37.7751864" lon="21.5516325"><ele>193.0</ele><time>2026-04-30T09:35:04.884Z</time></trkpt><trkpt lat="37.7753758" lon="21.5517338"><ele>204.0</ele><time>2026-04-30T09:35:05.883Z</time></trkpt><trkpt lat="37.7755999" lon="21.5518567"><ele>204.0</ele><time>2026-04-30T09:35:06.884Z</time></trkpt><trkpt lat="37.7758187" lon="21.5519968"><ele>204.0</ele><time>2026-04-30T09:35:07.884Z</time></trkpt><trkpt lat="37.7760239" lon="21.5521202"><ele>201.0</ele><time>2026-04-30T09:35:08.884Z</time></trkpt><trkpt lat="37.7762538" lon="21.5522342"><ele>198.0</ele><time>2026-04-30T09:35:09.884Z</time></trkpt><trkpt lat="37.7764125" lon="21.5523219"><ele>195.0</ele><time>2026-04-30T09:35:10.884Z</time></trkpt><trkpt lat="37.7765615" lon="21.5524313"><ele>195.0</ele><time>2026-04-30T09:35:11.883Z</time></trkpt><trkpt lat="37.7767006" lon="21.5525411"><ele>195.0</ele><time>2026-04-30T09:35:12.884Z</time></trkpt><trkpt lat="37.7768007" lon="21.5527206"><ele>195.0</ele><time>2026-04-30T09:35:13.883Z</time></trkpt><trkpt lat="37.7768761" lon="21.5529196"><ele>199.33333333333331</ele><time>2026-04-30T09:35:14.884Z</time></trkpt><trkpt lat="37.7769777" lon="21.553112"><ele>203.66666666666666</ele><time>2026-04-30T09:35:15.883Z</time></trkpt><trkpt lat="37.7770878" lon="21.5533032"><ele>208.0</ele><time>2026-04-30T09:35:16.883Z</time></trkpt><trkpt lat="37.7772156" lon="21.5534962"><ele>208.0</ele><time>2026-04-30T09:35:17.884Z</time></trkpt><trkpt lat="37.7773561" lon="21.5536826"><ele>208.0</ele><time>2026-04-30T09:35:18.884Z</time></trkpt><trkpt lat="37.7774896" lon="21.5538717"><ele>208.0</ele><time>2026-04-30T09:35:19.883Z</time></trkpt><trkpt lat="37.7776064" lon="21.5540434"><ele>211.0</ele><time>2026-04-30T09:35:20.884Z</time></trkpt><trkpt lat="37.7776971" lon="21.5541966"><ele>214.0</ele><time>2026-04-30T09:35:21.884Z</time></trkpt><trkpt lat="37.7777481" lon="21.5543711"><ele>217.0</ele><time>2026-04-30T09:35:22.883Z</time></trkpt><trkpt lat="37.7777813" lon="21.5545304"><ele>220.0</ele><time>2026-04-30T09:35:23.884Z</time></trkpt><trkpt lat="37.7778156" lon="21.5546958"><ele>220.0</ele><time>2026-04-30T09:35:24.884Z</time></trkpt><trkpt lat="37.7778644" lon="21.5548575"><ele>220.0</ele><time>2026-04-30T09:35:25.884Z</time></trkpt><trkpt lat="37.7779253" lon="21.5550093"><ele>220.0</ele><time>2026-04-30T09:35:26.884Z</time></trkpt><trkpt lat="37.7780175" lon="21.5551413"><ele>220.0</ele><time>2026-04-30T09:35:27.884Z</time></trkpt><trkpt lat="37.7781141" lon="21.5552644"><ele>218.0</ele><time>2026-04-30T09:35:28.884Z</time></trkpt><trkpt lat="37.778221" lon="21.5553767"><ele>216.0</ele><time>2026-04-30T09:35:29.883Z</time></trkpt><trkpt lat="37.7783374" lon="21.5554681"><ele>214.0</ele><time>2026-04-30T09:35:30.884Z</time></trkpt><trkpt lat="37.7784625" lon="21.5555501"><ele>212.0</ele><time>2026-04-30T09:35:31.883Z</time></trkpt><trkpt lat="37.7786018" lon="21.5556138"><ele>216.0</ele><time>2026-04-30T09:35:32.884Z</time></trkpt><trkpt lat="37.7787506" lon="21.5556741"><ele>220.0</ele><time>2026-04-30T09:35:33.883Z</time></trkpt><trkpt lat="37.7788948" lon="21.555736"><ele>224.0</ele><time>2026-04-30T09:35:34.884Z</time></trkpt><trkpt lat="37.7789837" lon="21.5558173"><ele>228.0</ele><time>2026-04-30T09:35:35.883Z</time></trkpt><trkpt lat="37.7790716" lon="21.5559072"><ele>228.0</ele><time>2026-04-30T09:35:36.884Z</time></trkpt><trkpt lat="37.7791167" lon="21.556029"><ele>228.0</ele><time>2026-04-30T09:35:37.883Z</time></trkpt><trkpt lat="37.7791368" lon="21.556166"><ele>228.0</ele><time>2026-04-30T09:35:38.884Z</time></trkpt><trkpt lat="37.7791543" lon="21.5562983"><ele>228.0</ele><time>2026-04-30T09:35:39.884Z</time></trkpt><trkpt lat="37.7791962" lon="21.5564017"><ele>228.0</ele><time>2026-04-30T09:35:40.884Z</time></trkpt><trkpt lat="37.77928" lon="21.5564789"><ele>233.0</ele><time>2026-04-30T09:35:41.883Z</time></trkpt><trkpt lat="37.7794067" lon="21.556549"><ele>238.0</ele><time>2026-04-30T09:35:42.883Z</time></trkpt><trkpt lat="37.7795733" lon="21.5566209"><ele>243.0</ele><time>2026-04-30T09:35:43.883Z</time></trkpt><trkpt lat="37.7797481" lon="21.5567035"><ele>243.0</ele><time>2026-04-30T09:35:44.884Z</time></trkpt><trkpt lat="37.7799185" lon="21.5567944"><ele>243.0</ele><time>2026-04-30T09:35:45.884Z</time></trkpt><trkpt lat="37.7800698" lon="21.5568895"><ele>243.0</ele><time>2026-04-30T09:35:46.884Z</time></trkpt><trkpt lat="37.7802109" lon="21.5569895"><ele>246.25</ele><time>2026-04-30T09:35:47.884Z</time></trkpt><trkpt lat="37.7803241" lon="21.5571107"><ele>249.5</ele><time>2026-04-30T09:35:48.884Z</time></trkpt><trkpt lat="37.7804123" lon="21.5572215"><ele>252.75</ele><time>2026-04-30T09:35:49.883Z</time></trkpt><trkpt lat="37.7804736" lon="21.5573382"><ele>256.0</ele><time>2026-04-30T09:35:50.883Z</time></trkpt><trkpt lat="37.7805035" lon="21.5574587"><ele>256.0</ele><time>2026-04-30T09:35:51.884Z</time></trkpt><trkpt lat="37.7804943" lon="21.5575898"><ele>256.0</ele><time>2026-04-30T09:35:52.883Z</time></trkpt><trkpt lat="37.7804496" lon="21.5577058"><ele>256.0</ele><time>2026-04-30T09:35:53.883Z</time></trkpt><trkpt lat="37.7803797" lon="21.5578121"><ele>256.0</ele><time>2026-04-30T09:35:54.884Z</time></trkpt><trkpt lat="37.7802503" lon="21.5578614"><ele>256.3333333333333</ele><time>2026-04-30T09:35:55.884Z</time></trkpt><trkpt lat="37.7800888" lon="21.5579106"><ele>256.6666666666667</ele><time>2026-04-30T09:35:56.884Z</time></trkpt><trkpt lat="37.7798868" lon="21.5579851"><ele>257.0</ele><time>2026-04-30T09:35:57.883Z</time></trkpt><trkpt lat="37.7796813" lon="21.5580647"><ele>257.0</ele><time>2026-04-30T09:35:58.884Z</time></trkpt><trkpt lat="37.779463" lon="21.5581451"><ele>257.0</ele><time>2026-04-30T09:35:59.884Z</time></trkpt><trkpt lat="37.7792277" lon="21.5581974"><ele>256.33333333333337</ele><time>2026-04-30T09:36:00.883Z</time></trkpt><trkpt lat="37.7790092" lon="21.5582314"><ele>255.66666666666669</ele><time>2026-04-30T09:36:01.883Z</time></trkpt><trkpt lat="37.7788034" lon="21.5582555"><ele>255.0</ele><time>2026-04-30T09:36:02.883Z</time></trkpt><trkpt lat="37.7786103" lon="21.5582692"><ele>254.66666666666669</ele><time>2026-04-30T09:36:03.884Z</time></trkpt><trkpt lat="37.7784284" lon="21.5583041"><ele>254.33333333333334</ele><time>2026-04-30T09:36:04.884Z</time></trkpt><trkpt lat="37.7782647" lon="21.5583324"><ele>254.0</ele><time>2026-04-30T09:36:05.883Z</time></trkpt><trkpt lat="37.7781283" lon="21.5583757"><ele>254.0</ele><time>2026-04-30T09:36:06.884Z</time></trkpt><trkpt lat="37.7780176" lon="21.5584137"><ele>253.99999999999997</ele><time>2026-04-30T09:36:07.883Z</time></trkpt><trkpt lat="37.7779327" lon="21.5584545"><ele>253.99999999999997</ele><time>2026-04-30T09:36:08.883Z</time></trkpt><trkpt lat="37.7778718" lon="21.5585124"><ele>254.0</ele><time>2026-04-30T09:36:09.884Z</time></trkpt><trkpt lat="37.7778316" lon="21.5585972"><ele>254.0</ele><time>2026-04-30T09:36:10.883Z</time></trkpt><trkpt lat="37.7778471" lon="21.558709"><ele>263.0</ele><time>2026-04-30T09:36:11.883Z</time></trkpt><trkpt lat="37.7778951" lon="21.5587992"><ele>272.0</ele><time>2026-04-30T09:36:12.883Z</time></trkpt><trkpt lat="37.7779783" lon="21.5588665"><ele>281.0</ele><time>2026-04-30T09:36:13.883Z</time></trkpt><trkpt lat="37.7781048" lon="21.5589177"><ele>290.0</ele><time>2026-04-30T09:36:14.883Z</time></trkpt><trkpt lat="37.7782474" lon="21.5589509"><ele>290.0</ele><time>2026-04-30T09:36:15.884Z</time></trkpt><trkpt lat="37.7784089" lon="21.5589611"><ele>290.0</ele><time>2026-04-30T09:36:16.884Z</time></trkpt><trkpt lat="37.7785657" lon="21.558969"><ele>290.0</ele><time>2026-04-30T09:36:17.883Z</time></trkpt><trkpt lat="37.7787286" lon="21.5589583"><ele>288.33333333333337</ele><time>2026-04-30T09:36:18.884Z</time></trkpt><trkpt lat="37.7788855" lon="21.5589275"><ele>286.6666666666667</ele><time>2026-04-30T09:36:19.884Z</time></trkpt><trkpt lat="37.7790459" lon="21.55891"><ele>285.0</ele><time>2026-04-30T09:36:20.884Z</time></trkpt><trkpt lat="37.77921" lon="21.558881"><ele>286.3333333333333</ele><time>2026-04-30T09:36:21.883Z</time></trkpt><trkpt lat="37.7793747" lon="21.5588568"><ele>287.66666666666663</ele><time>2026-04-30T09:36:22.884Z</time></trkpt><trkpt lat="37.7795383" lon="21.5588386"><ele>289.0</ele><time>2026-04-30T09:36:23.884Z</time></trkpt><trkpt lat="37.7796968" lon="21.5588289"><ele>289.0</ele><time>2026-04-30T09:36:24.883Z</time></trkpt><trkpt lat="37.7798555" lon="21.5588378"><ele>289.0</ele><time>2026-04-30T09:36:25.883Z</time></trkpt><trkpt lat="37.7800092" lon="21.5588669"><ele>289.0</ele><time>2026-04-30T09:36:26.884Z</time></trkpt><trkpt lat="37.7801529" lon="21.558908"><ele>283.25</ele><time>2026-04-30T09:36:27.883Z</time></trkpt><trkpt lat="37.7802761" lon="21.5589673"><ele>277.5</ele><time>2026-04-30T09:36:28.883Z</time></trkpt><trkpt lat="37.7803751" lon="21.559059"><ele>271.75</ele><time>2026-04-30T09:36:29.883Z</time></trkpt><trkpt lat="37.7804918" lon="21.5591913"><ele>266.0</ele><time>2026-04-30T09:36:30.883Z</time></trkpt><trkpt lat="37.7806079" lon="21.5593249"><ele>266.0</ele><time>2026-04-30T09:36:31.883Z</time></trkpt><trkpt lat="37.7806735" lon="21.5595066"><ele>266.0</ele><time>2026-04-30T09:36:32.883Z</time></trkpt><trkpt lat="37.780765" lon="21.5596522"><ele>266.0</ele><time>2026-04-30T09:36:33.883Z</time></trkpt><trkpt lat="37.7808388" lon="21.5597963"><ele>266.0</ele><time>2026-04-30T09:36:34.883Z</time></trkpt><trkpt lat="37.7809148" lon="21.5599457"><ele>270.0</ele><time>2026-04-30T09:36:35.884Z</time></trkpt><trkpt lat="37.7809927" lon="21.5600982"><ele>274.0</ele><time>2026-04-30T09:36:36.883Z</time></trkpt><trkpt lat="37.7810796" lon="21.5602393"><ele>278.0</ele><time>2026-04-30T09:36:37.883Z</time></trkpt><trkpt lat="37.7811646" lon="21.5603749"><ele>282.0</ele><time>2026-04-30T09:36:38.884Z</time></trkpt><trkpt lat="37.7812545" lon="21.5605083"><ele>284.25</ele><time>2026-04-30T09:36:39.884Z</time></trkpt><trkpt lat="37.7813531" lon="21.5606316"><ele>286.5</ele><time>2026-04-30T09:36:40.884Z</time></trkpt><trkpt lat="37.7814473" lon="21.5607559"><ele>288.75</ele><time>2026-04-30T09:36:41.884Z</time></trkpt><trkpt lat="37.7815408" lon="21.5608814"><ele>291.0</ele><time>2026-04-30T09:36:42.883Z</time></trkpt><trkpt lat="37.781626" lon="21.5610094"><ele>291.0</ele><time>2026-04-30T09:36:43.884Z</time></trkpt><trkpt lat="37.7816993" lon="21.561134"><ele>291.0</ele><time>2026-04-30T09:36:44.884Z</time></trkpt><trkpt lat="37.7817509" lon="21.5612746"><ele>291.0</ele><time>2026-04-30T09:36:45.883Z</time></trkpt><trkpt lat="37.7817971" lon="21.5614316"><ele>291.0</ele><time>2026-04-30T09:36:46.884Z</time></trkpt><trkpt lat="37.7818364" lon="21.5615833"><ele>292.0</ele><time>2026-04-30T09:36:47.883Z</time></trkpt><trkpt lat="37.781873" lon="21.561734"><ele>293.0</ele><time>2026-04-30T09:36:48.883Z</time></trkpt><trkpt lat="37.7818989" lon="21.5618863"><ele>294.0</ele><time>2026-04-30T09:36:49.883Z</time></trkpt><trkpt lat="37.781921" lon="21.5620371"><ele>295.0</ele><time>2026-04-30T09:36:50.884Z</time></trkpt><trkpt lat="37.7819402" lon="21.5621843"><ele>295.0</ele><time>2026-04-30T09:36:51.884Z</time></trkpt><trkpt lat="37.7819544" lon="21.5623388"><ele>295.0</ele><time>2026-04-30T09:36:52.883Z</time></trkpt><trkpt lat="37.7819733" lon="21.562492"><ele>295.0</ele><time>2026-04-30T09:36:53.884Z</time></trkpt><trkpt lat="37.7819892" lon="21.562644"><ele>295.0</ele><time>2026-04-30T09:36:54.883Z</time></trkpt><trkpt lat="37.7820111" lon="21.5627989"><ele>294.75</ele><time>2026-04-30T09:36:55.883Z</time></trkpt><trkpt lat="37.7820302" lon="21.562955"><ele>294.5</ele><time>2026-04-30T09:36:56.884Z</time></trkpt><trkpt lat="37.7820515" lon="21.563118"><ele>294.25</ele><time>2026-04-30T09:36:57.884Z</time></trkpt><trkpt lat="37.782074" lon="21.5632755"><ele>294.0</ele><time>2026-04-30T09:36:58.883Z</time></trkpt><trkpt lat="37.7820965" lon="21.5634372"><ele>294.0</ele><time>2026-04-30T09:36:59.884Z</time></trkpt><trkpt lat="37.7821064" lon="21.5635962"><ele>294.0</ele><time>2026-04-30T09:37:00.883Z</time></trkpt><trkpt lat="37.7821079" lon="21.5637518"><ele>294.0</ele><time>2026-04-30T09:37:01.884Z</time></trkpt><trkpt lat="37.7821237" lon="21.5639008"><ele>294.0</ele><time>2026-04-30T09:37:02.884Z</time></trkpt><trkpt lat="37.7820986" lon="21.5640355"><ele>293.5</ele><time>2026-04-30T09:37:03.883Z</time></trkpt><trkpt lat="37.7820517" lon="21.5641659"><ele>293.0</ele><time>2026-04-30T09:37:04.883Z</time></trkpt><trkpt lat="37.7819793" lon="21.5642871"><ele>292.5</ele><time>2026-04-30T09:37:05.883Z</time></trkpt><trkpt lat="37.7818915" lon="21.5643977"><ele>292.0</ele><time>2026-04-30T09:37:06.884Z</time></trkpt><trkpt lat="37.7817873" lon="21.5645076"><ele>294.5</ele><time>2026-04-30T09:37:07.884Z</time></trkpt><trkpt lat="37.7816743" lon="21.5646111"><ele>297.0</ele><time>2026-04-30T09:37:08.884Z</time></trkpt><trkpt lat="37.7815663" lon="21.5647141"><ele>299.5</ele><time>2026-04-30T09:37:09.883Z</time></trkpt><trkpt lat="37.7814578" lon="21.5648249"><ele>302.0</ele><time>2026-04-30T09:37:10.884Z</time></trkpt><trkpt lat="37.781357" lon="21.5649457"><ele>302.0</ele><time>2026-04-30T09:37:11.884Z</time></trkpt><trkpt lat="37.7812599" lon="21.5650693"><ele>302.0</ele><time>2026-04-30T09:37:12.883Z</time></trkpt><trkpt lat="37.781173" lon="21.5651993"><ele>302.0</ele><time>2026-04-30T09:37:13.884Z</time></trkpt><trkpt lat="37.7810939" lon="21.5653286"><ele>302.0</ele><time>2026-04-30T09:37:14.883Z</time></trkpt><trkpt lat="37.7810245" lon="21.5654584"><ele>303.75</ele><time>2026-04-30T09:37:15.883Z</time></trkpt><trkpt lat="37.7809695" lon="21.5655991"><ele>305.5</ele><time>2026-04-30T09:37:16.883Z</time></trkpt><trkpt lat="37.7809254" lon="21.5657466"><ele>307.25</ele><time>2026-04-30T09:37:17.883Z</time></trkpt><trkpt lat="37.7808943" lon="21.5659078"><ele>309.0</ele><time>2026-04-30T09:37:18.884Z</time></trkpt><trkpt lat="37.7808751" lon="21.5660793"><ele>308.6666666666667</ele><time>2026-04-30T09:37:19.884Z</time></trkpt><trkpt lat="37.7808842" lon="21.5662757"><ele>308.33333333333337</ele><time>2026-04-30T09:37:20.884Z</time></trkpt><trkpt lat="37.7809102" lon="21.5664844"><ele>308.0</ele><time>2026-04-30T09:37:21.884Z</time></trkpt><trkpt lat="37.780946" lon="21.5666823"><ele>308.0</ele><time>2026-04-30T09:37:22.883Z</time></trkpt><trkpt lat="37.7809867" lon="21.5668679"><ele>308.0</ele><time>2026-04-30T09:37:23.884Z</time></trkpt><trkpt lat="37.7810305" lon="21.5670456"><ele>308.0</ele><time>2026-04-30T09:37:24.884Z</time></trkpt><trkpt lat="37.7810812" lon="21.5672097"><ele>308.0</ele><time>2026-04-30T09:37:25.884Z</time></trkpt><trkpt lat="37.7811282" lon="21.56737"><ele>304.5</ele><time>2026-04-30T09:37:26.883Z</time></trkpt><trkpt lat="37.7811566" lon="21.5675388"><ele>301.0</ele><time>2026-04-30T09:37:27.884Z</time></trkpt><trkpt lat="37.781175" lon="21.5677076"><ele>297.5</ele><time>2026-04-30T09:37:28.883Z</time></trkpt><trkpt lat="37.7811795" lon="21.5678943"><ele>294.0</ele><time>2026-04-30T09:37:29.883Z</time></trkpt><trkpt lat="37.7811782" lon="21.5680851"><ele>292.6666666666667</ele><time>2026-04-30T09:37:30.883Z</time></trkpt><trkpt lat="37.7811701" lon="21.5682944"><ele>291.33333333333337</ele><time>2026-04-30T09:37:31.884Z</time></trkpt><trkpt lat="37.7811583" lon="21.5685089"><ele>290.0</ele><time>2026-04-30T09:37:32.883Z</time></trkpt><trkpt lat="37.7811621" lon="21.5687193"><ele>290.0</ele><time>2026-04-30T09:37:33.884Z</time></trkpt><trkpt lat="37.7811884" lon="21.5689224"><ele>290.0</ele><time>2026-04-30T09:37:34.884Z</time></trkpt><trkpt lat="37.7812253" lon="21.5691171"><ele>290.0</ele><time>2026-04-30T09:37:35.883Z</time></trkpt><trkpt lat="37.781288" lon="21.5693034"><ele>290.0</ele><time>2026-04-30T09:37:36.884Z</time></trkpt><trkpt lat="37.781364" lon="21.5694875"><ele>290.0</ele><time>2026-04-30T09:37:37.883Z</time></trkpt><trkpt lat="37.781443" lon="21.5696768"><ele>290.0</ele><time>2026-04-30T09:37:38.884Z</time></trkpt><trkpt lat="37.7815222" lon="21.5698605"><ele>289.0</ele><time>2026-04-30T09:37:39.884Z</time></trkpt><trkpt lat="37.7816002" lon="21.5700422"><ele>288.0</ele><time>2026-04-30T09:37:40.884Z</time></trkpt><trkpt lat="37.7816748" lon="21.5702185"><ele>287.0</ele><time>2026-04-30T09:37:41.884Z</time></trkpt><trkpt lat="37.7817614" lon="21.5703834"><ele>286.75</ele><time>2026-04-30T09:37:42.884Z</time></trkpt><trkpt lat="37.7818332" lon="21.5705396"><ele>286.5</ele><time>2026-04-30T09:37:43.884Z</time></trkpt><trkpt lat="37.7819096" lon="21.570677"><ele>286.25</ele><time>2026-04-30T09:37:44.884Z</time></trkpt><trkpt lat="37.7820155" lon="21.5707882"><ele>286.0</ele><time>2026-04-30T09:37:45.884Z</time></trkpt><trkpt lat="37.7821302" lon="21.570869"><ele>283.0</ele><time>2026-04-30T09:37:46.884Z</time></trkpt><trkpt lat="37.7822538" lon="21.5709129"><ele>280.0</ele><time>2026-04-30T09:37:47.884Z</time></trkpt><trkpt lat="37.7823946" lon="21.5709168"><ele>277.0</ele><time>2026-04-30T09:37:48.883Z</time></trkpt><trkpt lat="37.7825404" lon="21.5709336"><ele>274.0</ele><time>2026-04-30T09:37:49.883Z</time></trkpt><trkpt lat="37.7826756" lon="21.5709484"><ele>271.0</ele><time>2026-04-30T09:37:50.884Z</time></trkpt><trkpt lat="37.7828008" lon="21.5709909"><ele>268.0</ele><time>2026-04-30T09:37:51.884Z</time></trkpt><trkpt lat="37.7829084" lon="21.5710654"><ele>265.0</ele><time>2026-04-30T09:37:52.883Z</time></trkpt><trkpt lat="37.7829914" lon="21.5711829"><ele>262.0</ele><time>2026-04-30T09:37:53.884Z</time></trkpt><trkpt lat="37.7830562" lon="21.571322"><ele>262.0</ele><time>2026-04-30T09:37:54.883Z</time></trkpt><trkpt lat="37.7831065" lon="21.5714938"><ele>262.0</ele><time>2026-04-30T09:37:55.884Z</time></trkpt><trkpt lat="37.7831507" lon="21.5716574"><ele>262.0</ele><time>2026-04-30T09:37:56.883Z</time></trkpt><trkpt lat="37.7831897" lon="21.5718096"><ele>262.0</ele><time>2026-04-30T09:37:57.884Z</time></trkpt><trkpt lat="37.7832461" lon="21.571936"><ele>260.75</ele><time>2026-04-30T09:37:58.884Z</time></trkpt><trkpt lat="37.7833383" lon="21.5720604"><ele>259.5</ele><time>2026-04-30T09:37:59.884Z</time></trkpt><trkpt lat="37.7834439" lon="21.5721569"><ele>258.25</ele><time>2026-04-30T09:38:00.883Z</time></trkpt><trkpt lat="37.7835656" lon="21.5722313"><ele>257.0</ele><time>2026-04-30T09:38:01.883Z</time></trkpt><trkpt lat="37.7836885" lon="21.5722784"><ele>256.25</ele><time>2026-04-30T09:38:02.884Z</time></trkpt><trkpt lat="37.783806" lon="21.5723324"><ele>255.5</ele><time>2026-04-30T09:38:03.883Z</time></trkpt><trkpt lat="37.7839187" lon="21.5724013"><ele>254.75</ele><time>2026-04-30T09:38:04.883Z</time></trkpt><trkpt lat="37.784012" lon="21.5725025"><ele>254.0</ele><time>2026-04-30T09:38:05.883Z</time></trkpt><trkpt lat="37.7840783" lon="21.5726238"><ele>254.0</ele><time>2026-04-30T09:38:06.883Z</time></trkpt><trkpt lat="37.7841345" lon="21.572752"><ele>254.0</ele><time>2026-04-30T09:38:07.884Z</time></trkpt><trkpt lat="37.7841207" lon="21.5729153"><ele>254.0</ele><time>2026-04-30T09:38:08.883Z</time></trkpt><trkpt lat="37.7841136" lon="21.5730726"><ele>254.0</ele><time>2026-04-30T09:38:09.883Z</time></trkpt><trkpt lat="37.7841185" lon="21.5732248"><ele>252.5</ele><time>2026-04-30T09:38:10.884Z</time></trkpt><trkpt lat="37.7841624" lon="21.5733817"><ele>251.0</ele><time>2026-04-30T09:38:11.883Z</time></trkpt><trkpt lat="37.7842245" lon="21.5735212"><ele>249.5</ele><time>2026-04-30T09:38:12.884Z</time></trkpt><trkpt lat="37.7843058" lon="21.5736157"><ele>248.0</ele><time>2026-04-30T09:38:13.883Z</time></trkpt><trkpt lat="37.7844011" lon="21.5736855"><ele>246.75</ele><time>2026-04-30T09:38:14.884Z</time></trkpt><trkpt lat="37.7845095" lon="21.5737093"><ele>245.5</ele><time>2026-04-30T09:38:15.883Z</time></trkpt><trkpt lat="37.7846164" lon="21.5736873"><ele>244.25</ele><time>2026-04-30T09:38:16.883Z</time></trkpt><trkpt lat="37.7847224" lon="21.5736087"><ele>243.0</ele><time>2026-04-30T09:38:17.883Z</time></trkpt><trkpt lat="37.7848178" lon="21.5735026"><ele>243.0</ele><time>2026-04-30T09:38:18.883Z</time></trkpt><trkpt lat="37.7849183" lon="21.573385"><ele>243.0</ele><time>2026-04-30T09:38:19.883Z</time></trkpt><trkpt lat="37.7850255" lon="21.5732838"><ele>243.0</ele><time>2026-04-30T09:38:20.884Z</time></trkpt><trkpt lat="37.7851397" lon="21.5732102"><ele>243.0</ele><time>2026-04-30T09:38:21.884Z</time></trkpt><trkpt lat="37.7852361" lon="21.5731528"><ele>240.0</ele><time>2026-04-30T09:38:22.883Z</time></trkpt><trkpt lat="37.7853221" lon="21.5731157"><ele>237.0</ele><time>2026-04-30T09:38:23.884Z</time></trkpt><trkpt lat="37.7853451" lon="21.5732941"><ele>234.0</ele><time>2026-04-30T09:38:24.883Z</time></trkpt><trkpt lat="37.7853505" lon="21.5734229"><ele>231.0</ele><time>2026-04-30T09:38:25.883Z</time></trkpt><trkpt lat="37.7853275" lon="21.5735922"><ele>230.4</ele><time>2026-04-30T09:38:26.883Z</time></trkpt><trkpt lat="37.7853046" lon="21.5737447"><ele>229.8</ele><time>2026-04-30T09:38:27.883Z</time></trkpt><trkpt lat="37.7852925" lon="21.5738809"><ele>229.20000000000002</ele><time>2026-04-30T09:38:28.884Z</time></trkpt><trkpt lat="37.7853095" lon="21.5740049"><ele>228.60000000000002</ele><time>2026-04-30T09:38:29.884Z</time></trkpt><trkpt lat="37.7853565" lon="21.5741145"><ele>228.0</ele><time>2026-04-30T09:38:30.884Z</time></trkpt><trkpt lat="37.78543" lon="21.5742186"><ele>228.0</ele><time>2026-04-30T09:38:31.884Z</time></trkpt><trkpt lat="37.7855048" lon="21.5743231"><ele>228.0</ele><time>2026-04-30T09:38:32.883Z</time></trkpt><trkpt lat="37.7855552" lon="21.5744699"><ele>228.0</ele><time>2026-04-30T09:38:33.884Z</time></trkpt><trkpt lat="37.7855846" lon="21.5746403"><ele>228.0</ele><time>2026-04-30T09:38:34.884Z</time></trkpt><trkpt lat="37.7855982" lon="21.5748219"><ele>228.5</ele><time>2026-04-30T09:38:35.884Z</time></trkpt><trkpt lat="37.7856059" lon="21.5750059"><ele>229.0</ele><time>2026-04-30T09:38:36.883Z</time></trkpt><trkpt lat="37.7855961" lon="21.5751821"><ele>229.5</ele><time>2026-04-30T09:38:37.883Z</time></trkpt><trkpt lat="37.7855662" lon="21.5753558"><ele>230.0</ele><time>2026-04-30T09:38:38.883Z</time></trkpt><trkpt lat="37.7854953" lon="21.5755089"><ele>231.0</ele><time>2026-04-30T09:38:39.884Z</time></trkpt><trkpt lat="37.7853983" lon="21.5756306"><ele>232.0</ele><time>2026-04-30T09:38:40.884Z</time></trkpt><trkpt lat="37.7852822" lon="21.5757654"><ele>233.0</ele><time>2026-04-30T09:38:41.883Z</time></trkpt><trkpt lat="37.7851561" lon="21.5759062"><ele>234.66666666666669</ele><time>2026-04-30T09:38:42.883Z</time></trkpt><trkpt lat="37.7850314" lon="21.5760687"><ele>236.33333333333331</ele><time>2026-04-30T09:38:43.884Z</time></trkpt><trkpt lat="37.7849113" lon="21.5762734"><ele>238.0</ele><time>2026-04-30T09:38:44.883Z</time></trkpt><trkpt lat="37.7848033" lon="21.5764962"><ele>238.0</ele><time>2026-04-30T09:38:45.884Z</time></trkpt><trkpt lat="37.7846956" lon="21.5766892"><ele>238.0</ele><time>2026-04-30T09:38:46.884Z</time></trkpt><trkpt lat="37.7845933" lon="21.5768792"><ele>238.0</ele><time>2026-04-30T09:38:47.884Z</time></trkpt><trkpt lat="37.7844898" lon="21.5770299"><ele>239.25</ele><time>2026-04-30T09:38:48.884Z</time></trkpt><trkpt lat="37.7844125" lon="21.5771589"><ele>240.5</ele><time>2026-04-30T09:38:49.884Z</time></trkpt><trkpt lat="37.7843421" lon="21.5772869"><ele>241.75</ele><time>2026-04-30T09:38:50.884Z</time></trkpt><trkpt lat="37.7842968" lon="21.577426"><ele>243.0</ele><time>2026-04-30T09:38:51.884Z</time></trkpt><trkpt lat="37.7842911" lon="21.577605"><ele>243.0</ele><time>2026-04-30T09:38:52.884Z</time></trkpt><trkpt lat="37.7842913" lon="21.5778114"><ele>243.0</ele><time>2026-04-30T09:38:53.884Z</time></trkpt><trkpt lat="37.7842968" lon="21.5780175"><ele>243.0</ele><time>2026-04-30T09:38:54.884Z</time></trkpt><trkpt lat="37.7843259" lon="21.5782367"><ele>242.33333333333331</ele><time>2026-04-30T09:38:55.883Z</time></trkpt><trkpt lat="37.7843737" lon="21.5784601"><ele>241.66666666666666</ele><time>2026-04-30T09:38:56.883Z</time></trkpt><trkpt lat="37.7844252" lon="21.5786801"><ele>241.0</ele><time>2026-04-30T09:38:57.883Z</time></trkpt><trkpt lat="37.7844515" lon="21.5789237"><ele>240.0</ele><time>2026-04-30T09:38:58.883Z</time></trkpt><trkpt lat="37.7844683" lon="21.5791751"><ele>239.0</ele><time>2026-04-30T09:38:59.884Z</time></trkpt><trkpt lat="37.7844911" lon="21.5794402"><ele>238.0</ele><time>2026-04-30T09:39:00.884Z</time></trkpt><trkpt lat="37.7845259" lon="21.5796861"><ele>237.33333333333331</ele><time>2026-04-30T09:39:01.884Z</time></trkpt><trkpt lat="37.7845809" lon="21.5799238"><ele>236.66666666666669</ele><time>2026-04-30T09:39:02.884Z</time></trkpt><trkpt lat="37.7846188" lon="21.5801574"><ele>236.0</ele><time>2026-04-30T09:39:03.884Z</time></trkpt><trkpt lat="37.7846657" lon="21.5803802"><ele>235.33333333333334</ele><time>2026-04-30T09:39:04.883Z</time></trkpt><trkpt lat="37.7847155" lon="21.5806001"><ele>234.66666666666669</ele><time>2026-04-30T09:39:05.883Z</time></trkpt><trkpt lat="37.784771" lon="21.580817"><ele>234.0</ele><time>2026-04-30T09:39:06.884Z</time></trkpt><trkpt lat="37.7848343" lon="21.5810332"><ele>233.33333333333331</ele><time>2026-04-30T09:39:07.884Z</time></trkpt><trkpt lat="37.7849133" lon="21.5812412"><ele>232.66666666666666</ele><time>2026-04-30T09:39:08.884Z</time></trkpt><trkpt lat="37.7850009" lon="21.581445"><ele>232.0</ele><time>2026-04-30T09:39:09.884Z</time></trkpt><trkpt lat="37.7850857" lon="21.5816449"><ele>232.0</ele><time>2026-04-30T09:39:10.884Z</time></trkpt><trkpt lat="37.7851623" lon="21.581855"><ele>232.0</ele><time>2026-04-30T09:39:11.884Z</time></trkpt><trkpt lat="37.785245" lon="21.5820635"><ele>232.0</ele><time>2026-04-30T09:39:12.884Z</time></trkpt><trkpt lat="37.785335" lon="21.582268"><ele>232.66666666666666</ele><time>2026-04-30T09:39:13.884Z</time></trkpt><trkpt lat="37.7854244" lon="21.5824583"><ele>233.33333333333331</ele><time>2026-04-30T09:39:14.883Z</time></trkpt><trkpt lat="37.7855155" lon="21.582639"><ele>234.0</ele><time>2026-04-30T09:39:15.884Z</time></trkpt><trkpt lat="37.7856061" lon="21.5827917"><ele>232.5</ele><time>2026-04-30T09:39:16.883Z</time></trkpt><trkpt lat="37.7857129" lon="21.5829172"><ele>231.0</ele><time>2026-04-30T09:39:17.884Z</time></trkpt><trkpt lat="37.7858385" lon="21.5830149"><ele>229.5</ele><time>2026-04-30T09:39:18.883Z</time></trkpt><trkpt lat="37.7859768" lon="21.5830741"><ele>228.0</ele><time>2026-04-30T09:39:19.883Z</time></trkpt><trkpt lat="37.7861153" lon="21.583093"><ele>227.75</ele><time>2026-04-30T09:39:20.884Z</time></trkpt><trkpt lat="37.7862672" lon="21.5830656"><ele>227.5</ele><time>2026-04-30T09:39:21.883Z</time></trkpt><trkpt lat="37.7864002" lon="21.583058"><ele>227.25</ele><time>2026-04-30T09:39:22.883Z</time></trkpt><trkpt lat="37.7865227" lon="21.5830739"><ele>227.0</ele><time>2026-04-30T09:39:23.883Z</time></trkpt><trkpt lat="37.7866411" lon="21.5831291"><ele>227.0</ele><time>2026-04-30T09:39:24.883Z</time></trkpt><trkpt lat="37.7867555" lon="21.583226"><ele>227.0</ele><time>2026-04-30T09:39:25.883Z</time></trkpt><trkpt lat="37.7868301" lon="21.5833818"><ele>227.0</ele><time>2026-04-30T09:39:26.884Z</time></trkpt><trkpt lat="37.7869227" lon="21.5835022"><ele>227.0</ele><time>2026-04-30T09:39:27.883Z</time></trkpt><trkpt lat="37.7870179" lon="21.5836185"><ele>225.33333333333334</ele><time>2026-04-30T09:39:28.884Z</time></trkpt><trkpt lat="37.787106" lon="21.5837562"><ele>223.66666666666669</ele><time>2026-04-30T09:39:29.883Z</time></trkpt><trkpt lat="37.7871784" lon="21.5839329"><ele>222.0</ele><time>2026-04-30T09:39:30.883Z</time></trkpt><trkpt lat="37.7872442" lon="21.5841667"><ele>222.0</ele><time>2026-04-30T09:39:31.884Z</time></trkpt><trkpt lat="37.7873042" lon="21.5844128"><ele>222.0</ele><time>2026-04-30T09:39:32.884Z</time></trkpt><trkpt lat="37.7873776" lon="21.5847013"><ele>222.0</ele><time>2026-04-30T09:39:33.883Z</time></trkpt><trkpt lat="37.7874626" lon="21.5849891"><ele>223.0</ele><time>2026-04-30T09:39:34.883Z</time></trkpt><trkpt lat="37.7875548" lon="21.5852992"><ele>224.0</ele><time>2026-04-30T09:39:35.883Z</time></trkpt><trkpt lat="37.7876539" lon="21.5856307"><ele>230.0</ele><time>2026-04-30T09:39:36.883Z</time></trkpt><trkpt lat="37.7877453" lon="21.5859439"><ele>236.0</ele><time>2026-04-30T09:39:37.883Z</time></trkpt><trkpt lat="37.7878262" lon="21.5862505"><ele>237.0</ele><time>2026-04-30T09:39:38.884Z</time></trkpt><trkpt lat="37.7879088" lon="21.5865454"><ele>238.0</ele><time>2026-04-30T09:39:39.884Z</time></trkpt><trkpt lat="37.787989" lon="21.5868359"><ele>238.5</ele><time>2026-04-30T09:39:40.884Z</time></trkpt><trkpt lat="37.7880669" lon="21.5871194"><ele>239.0</ele><time>2026-04-30T09:39:41.883Z</time></trkpt><trkpt lat="37.7881414" lon="21.5873947"><ele>239.0</ele><time>2026-04-30T09:39:42.884Z</time></trkpt><trkpt lat="37.7882187" lon="21.5876579"><ele>239.0</ele><time>2026-04-30T09:39:43.884Z</time></trkpt><trkpt lat="37.7882944" lon="21.5879105"><ele>239.0</ele><time>2026-04-30T09:39:44.884Z</time></trkpt><trkpt lat="37.7883814" lon="21.5881597"><ele>240.66666666666669</ele><time>2026-04-30T09:39:45.883Z</time></trkpt><trkpt lat="37.78848" lon="21.5883947"><ele>242.33333333333331</ele><time>2026-04-30T09:39:46.884Z</time></trkpt><trkpt lat="37.7885891" lon="21.5886156"><ele>244.0</ele><time>2026-04-30T09:39:47.883Z</time></trkpt><trkpt lat="37.788699" lon="21.5888385"><ele>245.66666666666666</ele><time>2026-04-30T09:39:48.884Z</time></trkpt><trkpt lat="37.7887742" lon="21.5890762"><ele>247.33333333333331</ele><time>2026-04-30T09:39:49.884Z</time></trkpt><trkpt lat="37.7888259" lon="21.5893289"><ele>249.0</ele><time>2026-04-30T09:39:50.883Z</time></trkpt><trkpt lat="37.7888563" lon="21.5895615"><ele>249.0</ele><time>2026-04-30T09:39:51.884Z</time></trkpt><trkpt lat="37.7888812" lon="21.5897835"><ele>249.0</ele><time>2026-04-30T09:39:52.884Z</time></trkpt><trkpt lat="37.7889196" lon="21.5899951"><ele>249.0</ele><time>2026-04-30T09:39:53.883Z</time></trkpt><trkpt lat="37.7889677" lon="21.590203"><ele>249.33333333333331</ele><time>2026-04-30T09:39:54.884Z</time></trkpt><trkpt lat="37.789019" lon="21.5904034"><ele>249.66666666666666</ele><time>2026-04-30T09:39:55.883Z</time></trkpt><trkpt lat="37.7890716" lon="21.5905883"><ele>250.0</ele><time>2026-04-30T09:39:56.883Z</time></trkpt><trkpt lat="37.7891267" lon="21.5907618"><ele>250.0</ele><time>2026-04-30T09:39:57.884Z</time></trkpt><trkpt lat="37.7891851" lon="21.590931"><ele>250.0</ele><time>2026-04-30T09:39:58.884Z</time></trkpt><trkpt lat="37.7892615" lon="21.5910966"><ele>250.0</ele><time>2026-04-30T09:39:59.883Z</time></trkpt><trkpt lat="37.7893679" lon="21.5912432"><ele>248.0</ele><time>2026-04-30T09:40:00.883Z</time></trkpt><trkpt lat="37.7895071" lon="21.591373"><ele>246.0</ele><time>2026-04-30T09:40:01.883Z</time></trkpt><trkpt lat="37.7896586" lon="21.591482"><ele>244.0</ele><time>2026-04-30T09:40:02.884Z</time></trkpt><trkpt lat="37.7898087" lon="21.5915765"><ele>244.0</ele><time>2026-04-30T09:40:03.884Z</time></trkpt><trkpt lat="37.7899465" lon="21.5916542"><ele>244.0</ele><time>2026-04-30T09:40:04.883Z</time></trkpt><trkpt lat="37.7900714" lon="21.5917127"><ele>244.0</ele><time>2026-04-30T09:40:05.883Z</time></trkpt><trkpt lat="37.7901917" lon="21.5917378"><ele>244.0</ele><time>2026-04-30T09:40:06.884Z</time></trkpt><trkpt lat="37.7903373" lon="21.5916833"><ele>244.5</ele><time>2026-04-30T09:40:07.884Z</time></trkpt><trkpt lat="37.7904719" lon="21.5916202"><ele>245.0</ele><time>2026-04-30T09:40:08.884Z</time></trkpt><trkpt lat="37.7906093" lon="21.5915406"><ele>245.5</ele><time>2026-04-30T09:40:09.883Z</time></trkpt><trkpt lat="37.7907468" lon="21.591463"><ele>246.0</ele><time>2026-04-30T09:40:10.884Z</time></trkpt><trkpt lat="37.7908665" lon="21.591387"><ele>246.0</ele><time>2026-04-30T09:40:11.884Z</time></trkpt><trkpt lat="37.790987" lon="21.5913339"><ele>246.0</ele><time>2026-04-30T09:40:12.884Z</time></trkpt><trkpt lat="37.7911039" lon="21.5913038"><ele>246.0</ele><time>2026-04-30T09:40:13.883Z</time></trkpt><trkpt lat="37.7912267" lon="21.5913073"><ele>246.0</ele><time>2026-04-30T09:40:14.883Z</time></trkpt><trkpt lat="37.7913567" lon="21.5913471"><ele>245.0</ele><time>2026-04-30T09:40:15.884Z</time></trkpt><trkpt lat="37.7914892" lon="21.5913932"><ele>244.0</ele><time>2026-04-30T09:40:16.883Z</time></trkpt><trkpt lat="37.7916052" lon="21.5914357"><ele>243.0</ele><time>2026-04-30T09:40:17.883Z</time></trkpt><trkpt lat="37.7917099" lon="21.5914896"><ele>242.0</ele><time>2026-04-30T09:40:18.884Z</time></trkpt><trkpt lat="37.7917896" lon="21.5915889"><ele>242.0</ele><time>2026-04-30T09:40:19.883Z</time></trkpt><trkpt lat="37.7918394" lon="21.5917096"><ele>242.0</ele><time>2026-04-30T09:40:20.884Z</time></trkpt><trkpt lat="37.7918881" lon="21.5918544"><ele>242.0</ele><time>2026-04-30T09:40:21.884Z</time></trkpt><trkpt lat="37.7919485" lon="21.5919998"><ele>242.0</ele><time>2026-04-30T09:40:22.883Z</time></trkpt><trkpt lat="37.7920296" lon="21.5921254"><ele>241.25</ele><time>2026-04-30T09:40:23.884Z</time></trkpt><trkpt lat="37.7921235" lon="21.5922267"><ele>240.5</ele><time>2026-04-30T09:40:24.884Z</time></trkpt><trkpt lat="37.7922377" lon="21.5922993"><ele>239.75</ele><time>2026-04-30T09:40:25.884Z</time></trkpt><trkpt lat="37.7923451" lon="21.5923385"><ele>239.0</ele><time>2026-04-30T09:40:26.884Z</time></trkpt><trkpt lat="37.7924458" lon="21.5923712"><ele>239.0</ele><time>2026-04-30T09:40:27.884Z</time></trkpt><trkpt lat="37.7925318" lon="21.5924147"><ele>238.99999999999997</ele><time>2026-04-30T09:40:28.883Z</time></trkpt><trkpt lat="37.7925723" lon="21.5925019"><ele>238.99999999999997</ele><time>2026-04-30T09:40:29.884Z</time></trkpt><trkpt lat="37.7925911" lon="21.5926115"><ele>239.0</ele><time>2026-04-30T09:40:30.883Z</time></trkpt><trkpt lat="37.7925837" lon="21.5927635"><ele>239.0</ele><time>2026-04-30T09:40:31.884Z</time></trkpt><trkpt lat="37.7925555" lon="21.592924"><ele>239.25</ele><time>2026-04-30T09:40:32.884Z</time></trkpt><trkpt lat="37.7924999" lon="21.5930852"><ele>239.5</ele><time>2026-04-30T09:40:33.884Z</time></trkpt><trkpt lat="37.7924259" lon="21.5932269"><ele>239.75</ele><time>2026-04-30T09:40:34.884Z</time></trkpt><trkpt lat="37.7923188" lon="21.5933773"><ele>240.0</ele><time>2026-04-30T09:40:35.884Z</time></trkpt><trkpt lat="37.7921898" lon="21.5935269"><ele>242.66666666666669</ele><time>2026-04-30T09:40:36.884Z</time></trkpt><trkpt lat="37.7920539" lon="21.5936811"><ele>245.33333333333334</ele><time>2026-04-30T09:40:37.883Z</time></trkpt><trkpt lat="37.7919222" lon="21.5938539"><ele>248.0</ele><time>2026-04-30T09:40:38.884Z</time></trkpt><trkpt lat="37.7918103" lon="21.594049"><ele>248.0</ele><time>2026-04-30T09:40:39.883Z</time></trkpt><trkpt lat="37.791708" lon="21.5942677"><ele>248.0</ele><time>2026-04-30T09:40:40.883Z</time></trkpt><trkpt lat="37.7916097" lon="21.5945033"><ele>248.0</ele><time>2026-04-30T09:40:41.883Z</time></trkpt><trkpt lat="37.7915221" lon="21.5947425"><ele>243.66666666666669</ele><time>2026-04-30T09:40:42.884Z</time></trkpt><trkpt lat="37.7914481" lon="21.5949873"><ele>239.33333333333331</ele><time>2026-04-30T09:40:43.883Z</time></trkpt><trkpt lat="37.7913787" lon="21.5952208"><ele>235.0</ele><time>2026-04-30T09:40:44.883Z</time></trkpt><trkpt lat="37.7913082" lon="21.5954336"><ele>232.66666666666666</ele><time>2026-04-30T09:40:45.883Z</time></trkpt><trkpt lat="37.7912366" lon="21.5956319"><ele>230.33333333333331</ele><time>2026-04-30T09:40:46.884Z</time></trkpt><trkpt lat="37.7911719" lon="21.5958156"><ele>228.0</ele><time>2026-04-30T09:40:47.883Z</time></trkpt><trkpt lat="37.7911101" lon="21.5959887"><ele>228.0</ele><time>2026-04-30T09:40:48.884Z</time></trkpt><trkpt lat="37.7910514" lon="21.5961611"><ele>228.0</ele><time>2026-04-30T09:40:49.883Z</time></trkpt><trkpt lat="37.7909935" lon="21.5963393"><ele>228.0</ele><time>2026-04-30T09:40:50.884Z</time></trkpt><trkpt lat="37.7909206" lon="21.5965042"><ele>229.25</ele><time>2026-04-30T09:40:51.884Z</time></trkpt><trkpt lat="37.790842" lon="21.5966625"><ele>230.5</ele><time>2026-04-30T09:40:52.883Z</time></trkpt><trkpt lat="37.7907598" lon="21.5968083"><ele>231.75</ele><time>2026-04-30T09:40:53.884Z</time></trkpt><trkpt lat="37.7906759" lon="21.5969475"><ele>233.0</ele><time>2026-04-30T09:40:54.884Z</time></trkpt><trkpt lat="37.7905887" lon="21.5970748"><ele>233.0</ele><time>2026-04-30T09:40:55.884Z</time></trkpt><trkpt lat="37.7905152" lon="21.5972011"><ele>233.0</ele><time>2026-04-30T09:40:56.883Z</time></trkpt><trkpt lat="37.7904736" lon="21.5973371"><ele>233.0</ele><time>2026-04-30T09:40:57.883Z</time></trkpt><trkpt lat="37.7904787" lon="21.597483"><ele>233.0</ele><time>2026-04-30T09:40:58.883Z</time></trkpt><trkpt lat="37.7905176" lon="21.5976296"><ele>233.0</ele><time>2026-04-30T09:40:59.884Z</time></trkpt><trkpt lat="37.7905825" lon="21.5977688"><ele>233.0</ele><time>2026-04-30T09:41:00.883Z</time></trkpt><trkpt lat="37.7906554" lon="21.5979127"><ele>233.0</ele><time>2026-04-30T09:41:01.883Z</time></trkpt><trkpt lat="37.79073" lon="21.5980604"><ele>233.0</ele><time>2026-04-30T09:41:02.884Z</time></trkpt><trkpt lat="37.7908085" lon="21.5982142"><ele>232.75</ele><time>2026-04-30T09:41:03.884Z</time></trkpt><trkpt lat="37.7908882" lon="21.5983671"><ele>232.5</ele><time>2026-04-30T09:41:04.884Z</time></trkpt><trkpt lat="37.7909699" lon="21.5985242"><ele>232.25</ele><time>2026-04-30T09:41:05.884Z</time></trkpt><trkpt lat="37.7910497" lon="21.5986659"><ele>232.0</ele><time>2026-04-30T09:41:06.883Z</time></trkpt><trkpt lat="37.7911263" lon="21.5988083"><ele>230.5</ele><time>2026-04-30T09:41:07.884Z</time></trkpt><trkpt lat="37.7911928" lon="21.5989534"><ele>229.0</ele><time>2026-04-30T09:41:08.884Z</time></trkpt><trkpt lat="37.791241" lon="21.5991038"><ele>227.5</ele><time>2026-04-30T09:41:09.884Z</time></trkpt><trkpt lat="37.7912779" lon="21.5992589"><ele>226.0</ele><time>2026-04-30T09:41:10.883Z</time></trkpt><trkpt lat="37.7913028" lon="21.5994188"><ele>226.60000000000002</ele><time>2026-04-30T09:41:11.884Z</time></trkpt><trkpt lat="37.7913207" lon="21.5995733"><ele>227.20000000000002</ele><time>2026-04-30T09:41:12.884Z</time></trkpt><trkpt lat="37.7913344" lon="21.5997238"><ele>227.79999999999998</ele><time>2026-04-30T09:41:13.884Z</time></trkpt><trkpt lat="37.7913483" lon="21.5998605"><ele>228.39999999999998</ele><time>2026-04-30T09:41:14.883Z</time></trkpt><trkpt lat="37.7913614" lon="21.5999728"><ele>229.0</ele><time>2026-04-30T09:41:15.884Z</time></trkpt><trkpt lat="37.791379" lon="21.6000571"><ele>229.0</ele><time>2026-04-30T09:41:16.883Z</time></trkpt><trkpt lat="37.7914492" lon="21.6001796"><ele>228.99999999999997</ele><time>2026-04-30T09:41:18.884Z</time></trkpt><trkpt lat="37.7915251" lon="21.6002154"><ele>228.99999999999997</ele><time>2026-04-30T09:41:19.883Z</time></trkpt><trkpt lat="37.7916235" lon="21.6002321"><ele>229.0</ele><time>2026-04-30T09:41:20.883Z</time></trkpt><trkpt lat="37.791743" lon="21.6002406"><ele>229.0</ele><time>2026-04-30T09:41:21.884Z</time></trkpt><trkpt lat="37.7918617" lon="21.6002458"><ele>230.0</ele><time>2026-04-30T09:41:22.884Z</time></trkpt><trkpt lat="37.7919722" lon="21.600246"><ele>231.0</ele><time>2026-04-30T09:41:23.883Z</time></trkpt><trkpt lat="37.792087" lon="21.6002483"><ele>232.0</ele><time>2026-04-30T09:41:24.884Z</time></trkpt><trkpt lat="37.7921978" lon="21.6002475"><ele>233.0</ele><time>2026-04-30T09:41:25.883Z</time></trkpt><trkpt lat="37.7923139" lon="21.600241"><ele>233.0</ele><time>2026-04-30T09:41:26.883Z</time></trkpt><trkpt lat="37.7924413" lon="21.6002236"><ele>233.0</ele><time>2026-04-30T09:41:27.883Z</time></trkpt><trkpt lat="37.7925562" lon="21.6001595"><ele>233.0</ele><time>2026-04-30T09:41:28.883Z</time></trkpt><trkpt lat="37.7926666" lon="21.6000824"><ele>233.0</ele><time>2026-04-30T09:41:29.884Z</time></trkpt><trkpt lat="37.7927666" lon="21.5999907"><ele>234.8</ele><time>2026-04-30T09:41:30.883Z</time></trkpt><trkpt lat="37.7928561" lon="21.5999048"><ele>236.60000000000002</ele><time>2026-04-30T09:41:31.884Z</time></trkpt><trkpt lat="37.7929335" lon="21.5998425"><ele>238.39999999999998</ele><time>2026-04-30T09:41:32.883Z</time></trkpt><trkpt lat="37.793014" lon="21.5998018"><ele>240.2</ele><time>2026-04-30T09:41:33.884Z</time></trkpt><trkpt lat="37.7930956" lon="21.5998148"><ele>242.0</ele><time>2026-04-30T09:41:34.884Z</time></trkpt><trkpt lat="37.7931697" lon="21.5998426"><ele>242.0</ele><time>2026-04-30T09:41:35.883Z</time></trkpt><trkpt lat="37.7931944" lon="21.5999822"><ele>242.0</ele><time>2026-04-30T09:41:36.883Z</time></trkpt><trkpt lat="37.793214" lon="21.6001298"><ele>242.0</ele><time>2026-04-30T09:41:37.884Z</time></trkpt><trkpt lat="37.7932518" lon="21.6003147"><ele>242.0</ele><time>2026-04-30T09:41:38.883Z</time></trkpt><trkpt lat="37.7933143" lon="21.6005128"><ele>242.33333333333334</ele><time>2026-04-30T09:41:39.884Z</time></trkpt><trkpt lat="37.7933835" lon="21.6007014"><ele>242.66666666666669</ele><time>2026-04-30T09:41:40.883Z</time></trkpt><trkpt lat="37.793451" lon="21.6009069"><ele>243.0</ele><time>2026-04-30T09:41:41.883Z</time></trkpt><trkpt lat="37.7935065" lon="21.6011135"><ele>245.0</ele><time>2026-04-30T09:41:42.884Z</time></trkpt><trkpt lat="37.7935438" lon="21.6013211"><ele>247.0</ele><time>2026-04-30T09:41:43.883Z</time></trkpt><trkpt lat="37.793585" lon="21.6015301"><ele>249.0</ele><time>2026-04-30T09:41:44.884Z</time></trkpt><trkpt lat="37.79364" lon="21.601738"><ele>249.0</ele><time>2026-04-30T09:41:45.884Z</time></trkpt><trkpt lat="37.7936838" lon="21.6019311"><ele>249.0</ele><time>2026-04-30T09:41:46.884Z</time></trkpt><trkpt lat="37.7937188" lon="21.6021407"><ele>249.0</ele><time>2026-04-30T09:41:47.883Z</time></trkpt><trkpt lat="37.7937551" lon="21.6023409"><ele>250.33333333333331</ele><time>2026-04-30T09:41:48.884Z</time></trkpt><trkpt lat="37.7937829" lon="21.602535"><ele>251.66666666666666</ele><time>2026-04-30T09:41:49.884Z</time></trkpt><trkpt lat="37.7938059" lon="21.6027227"><ele>253.0</ele><time>2026-04-30T09:41:50.884Z</time></trkpt><trkpt lat="37.7938305" lon="21.6029046"><ele>254.33333333333331</ele><time>2026-04-30T09:41:51.883Z</time></trkpt><trkpt lat="37.7938534" lon="21.6030844"><ele>255.66666666666669</ele><time>2026-04-30T09:41:52.883Z</time></trkpt><trkpt lat="37.7938558" lon="21.6032785"><ele>257.0</ele><time>2026-04-30T09:41:53.884Z</time></trkpt><trkpt lat="37.7938517" lon="21.6034806"><ele>259.33333333333337</ele><time>2026-04-30T09:41:54.883Z</time></trkpt><trkpt lat="37.7938539" lon="21.6036794"><ele>261.6666666666667</ele><time>2026-04-30T09:41:55.884Z</time></trkpt><trkpt lat="37.7938687" lon="21.6038759"><ele>264.0</ele><time>2026-04-30T09:41:56.883Z</time></trkpt><trkpt lat="37.7939012" lon="21.6040625"><ele>264.0</ele><time>2026-04-30T09:41:57.884Z</time></trkpt><trkpt lat="37.7939157" lon="21.6042465"><ele>264.0</ele><time>2026-04-30T09:41:58.883Z</time></trkpt><trkpt lat="37.7938985" lon="21.6044332"><ele>264.0</ele><time>2026-04-30T09:41:59.883Z</time></trkpt><trkpt lat="37.7938585" lon="21.6046272"><ele>265.3333333333333</ele><time>2026-04-30T09:42:00.883Z</time></trkpt><trkpt lat="37.7938144" lon="21.6048582"><ele>266.66666666666663</ele><time>2026-04-30T09:42:01.884Z</time></trkpt><trkpt lat="37.7937936" lon="21.6051143"><ele>268.0</ele><time>2026-04-30T09:42:02.883Z</time></trkpt><trkpt lat="37.7937756" lon="21.6054019"><ele>270.5</ele><time>2026-04-30T09:42:03.883Z</time></trkpt><trkpt lat="37.7937612" lon="21.6056981"><ele>273.0</ele><time>2026-04-30T09:42:04.884Z</time></trkpt><trkpt lat="37.793741" lon="21.6059797"><ele>275.6666666666667</ele><time>2026-04-30T09:42:05.884Z</time></trkpt><trkpt lat="37.7937142" lon="21.6062444"><ele>278.33333333333337</ele><time>2026-04-30T09:42:06.883Z</time></trkpt><trkpt lat="37.7937022" lon="21.6064859"><ele>281.0</ele><time>2026-04-30T09:42:07.884Z</time></trkpt><trkpt lat="37.7937001" lon="21.6067104"><ele>281.0</ele><time>2026-04-30T09:42:08.884Z</time></trkpt><trkpt lat="37.7937253" lon="21.6069371"><ele>281.0</ele><time>2026-04-30T09:42:09.883Z</time></trkpt><trkpt lat="37.7937846" lon="21.6071652"><ele>281.0</ele><time>2026-04-30T09:42:10.884Z</time></trkpt><trkpt lat="37.7938469" lon="21.6074066"><ele>283.6666666666667</ele><time>2026-04-30T09:42:11.884Z</time></trkpt><trkpt lat="37.793893" lon="21.6076628"><ele>286.3333333333333</ele><time>2026-04-30T09:42:12.883Z</time></trkpt><trkpt lat="37.7939281" lon="21.6079531"><ele>289.0</ele><time>2026-04-30T09:42:13.884Z</time></trkpt><trkpt lat="37.7939427" lon="21.60824"><ele>290.66666666666663</ele><time>2026-04-30T09:42:14.883Z</time></trkpt><trkpt lat="37.7939738" lon="21.6085185"><ele>292.3333333333333</ele><time>2026-04-30T09:42:15.884Z</time></trkpt><trkpt lat="37.7940194" lon="21.6087863"><ele>294.0</ele><time>2026-04-30T09:42:16.884Z</time></trkpt><trkpt lat="37.7940745" lon="21.6090503"><ele>296.3333333333333</ele><time>2026-04-30T09:42:17.884Z</time></trkpt><trkpt lat="37.7941359" lon="21.6093007"><ele>298.66666666666663</ele><time>2026-04-30T09:42:18.884Z</time></trkpt><trkpt lat="37.7942092" lon="21.6095532"><ele>301.0</ele><time>2026-04-30T09:42:19.883Z</time></trkpt><trkpt lat="37.7942874" lon="21.609802"><ele>301.3333333333333</ele><time>2026-04-30T09:42:20.883Z</time></trkpt><trkpt lat="37.7943681" lon="21.6100573"><ele>301.6666666666667</ele><time>2026-04-30T09:42:21.884Z</time></trkpt><trkpt lat="37.794437" lon="21.6103095"><ele>302.0</ele><time>2026-04-30T09:42:22.883Z</time></trkpt><trkpt lat="37.794492" lon="21.6105674"><ele>307.5</ele><time>2026-04-30T09:42:23.884Z</time></trkpt><trkpt lat="37.7945417" lon="21.6108384"><ele>313.0</ele><time>2026-04-30T09:42:24.884Z</time></trkpt><trkpt lat="37.794576" lon="21.6111405"><ele>316.0</ele><time>2026-04-30T09:42:25.884Z</time></trkpt><trkpt lat="37.7946071" lon="21.6114535"><ele>319.0</ele><time>2026-04-30T09:42:26.884Z</time></trkpt><trkpt lat="37.7946426" lon="21.6117568"><ele>321.0</ele><time>2026-04-30T09:42:27.883Z</time></trkpt><trkpt lat="37.7946995" lon="21.6120883"><ele>323.0</ele><time>2026-04-30T09:42:28.883Z</time></trkpt><trkpt lat="37.7947561" lon="21.6124003"><ele>323.0</ele><time>2026-04-30T09:42:29.883Z</time></trkpt><trkpt lat="37.7948151" lon="21.6126915"><ele>323.0</ele><time>2026-04-30T09:42:30.884Z</time></trkpt><trkpt lat="37.7948697" lon="21.6129612"><ele>324.6666666666667</ele><time>2026-04-30T09:42:31.884Z</time></trkpt><trkpt lat="37.7949258" lon="21.6132138"><ele>326.3333333333333</ele><time>2026-04-30T09:42:32.883Z</time></trkpt><trkpt lat="37.7949819" lon="21.6134522"><ele>328.0</ele><time>2026-04-30T09:42:33.883Z</time></trkpt><trkpt lat="37.7950446" lon="21.6136826"><ele>328.66666666666663</ele><time>2026-04-30T09:42:34.884Z</time></trkpt><trkpt lat="37.7951144" lon="21.6139198"><ele>329.3333333333333</ele><time>2026-04-30T09:42:35.883Z</time></trkpt><trkpt lat="37.795186" lon="21.6141537"><ele>330.0</ele><time>2026-04-30T09:42:36.884Z</time></trkpt><trkpt lat="37.7952531" lon="21.6143824"><ele>332.6666666666667</ele><time>2026-04-30T09:42:37.883Z</time></trkpt><trkpt lat="37.7953065" lon="21.6146006"><ele>335.33333333333337</ele><time>2026-04-30T09:42:38.884Z</time></trkpt><trkpt lat="37.7953461" lon="21.614815"><ele>338.0</ele><time>2026-04-30T09:42:39.883Z</time></trkpt><trkpt lat="37.7953695" lon="21.6150201"><ele>338.0</ele><time>2026-04-30T09:42:40.883Z</time></trkpt><trkpt lat="37.7953765" lon="21.6152234"><ele>338.0</ele><time>2026-04-30T09:42:41.884Z</time></trkpt><trkpt lat="37.7953569" lon="21.6154393"><ele>338.0</ele><time>2026-04-30T09:42:42.884Z</time></trkpt><trkpt lat="37.7953229" lon="21.6156711"><ele>339.0</ele><time>2026-04-30T09:42:43.884Z</time></trkpt><trkpt lat="37.7952775" lon="21.6158999"><ele>340.0</ele><time>2026-04-30T09:42:44.883Z</time></trkpt><trkpt lat="37.7952199" lon="21.6161324"><ele>341.0</ele><time>2026-04-30T09:42:45.884Z</time></trkpt><trkpt lat="37.7951554" lon="21.6163561"><ele>341.75</ele><time>2026-04-30T09:42:46.883Z</time></trkpt><trkpt lat="37.7951033" lon="21.6165504"><ele>342.5</ele><time>2026-04-30T09:42:47.883Z</time></trkpt><trkpt lat="37.795069" lon="21.6167323"><ele>343.25</ele><time>2026-04-30T09:42:48.884Z</time></trkpt><trkpt lat="37.7950535" lon="21.6169073"><ele>344.0</ele><time>2026-04-30T09:42:49.884Z</time></trkpt><trkpt lat="37.7950637" lon="21.6170796"><ele>346.33333333333337</ele><time>2026-04-30T09:42:50.884Z</time></trkpt><trkpt lat="37.7951084" lon="21.6172605"><ele>348.6666666666667</ele><time>2026-04-30T09:42:51.884Z</time></trkpt><trkpt lat="37.7951726" lon="21.6174541"><ele>351.0</ele><time>2026-04-30T09:42:52.883Z</time></trkpt><trkpt lat="37.7952337" lon="21.6176489"><ele>353.0</ele><time>2026-04-30T09:42:53.883Z</time></trkpt><trkpt lat="37.7952894" lon="21.6178296"><ele>355.0</ele><time>2026-04-30T09:42:54.884Z</time></trkpt><trkpt lat="37.7953433" lon="21.6179942"><ele>357.0</ele><time>2026-04-30T09:42:55.884Z</time></trkpt><trkpt lat="37.7954103" lon="21.6181272"><ele>359.0</ele><time>2026-04-30T09:42:56.884Z</time></trkpt><trkpt lat="37.7954997" lon="21.6182334"><ele>359.0</ele><time>2026-04-30T09:42:57.883Z</time></trkpt><trkpt lat="37.7956121" lon="21.6183076"><ele>359.0</ele><time>2026-04-30T09:42:58.884Z</time></trkpt><trkpt lat="37.795753" lon="21.618375"><ele>359.0</ele><time>2026-04-30T09:42:59.884Z</time></trkpt><trkpt lat="37.7959123" lon="21.6184424"><ele>359.0</ele><time>2026-04-30T09:43:00.884Z</time></trkpt><trkpt lat="37.7960847" lon="21.6185252"><ele>361.6666666666667</ele><time>2026-04-30T09:43:01.884Z</time></trkpt><trkpt lat="37.7962816" lon="21.6186069"><ele>364.3333333333333</ele><time>2026-04-30T09:43:02.884Z</time></trkpt><trkpt lat="37.7964744" lon="21.618671"><ele>367.0</ele><time>2026-04-30T09:43:03.883Z</time></trkpt><trkpt lat="37.7966752" lon="21.6187073"><ele>371.0</ele><time>2026-04-30T09:43:04.883Z</time></trkpt><trkpt lat="37.7968778" lon="21.6187341"><ele>375.0</ele><time>2026-04-30T09:43:05.883Z</time></trkpt><trkpt lat="37.7970668" lon="21.6187329"><ele>379.0</ele><time>2026-04-30T09:43:06.884Z</time></trkpt><trkpt lat="37.7972406" lon="21.618711"><ele>379.0</ele><time>2026-04-30T09:43:07.883Z</time></trkpt><trkpt lat="37.7974058" lon="21.6186715"><ele>379.0</ele><time>2026-04-30T09:43:08.884Z</time></trkpt><trkpt lat="37.7975788" lon="21.6185745"><ele>379.0</ele><time>2026-04-30T09:43:09.883Z</time></trkpt><trkpt lat="37.7977432" lon="21.6184684"><ele>379.66666666666663</ele><time>2026-04-30T09:43:10.884Z</time></trkpt><trkpt lat="37.7978928" lon="21.618347"><ele>380.3333333333333</ele><time>2026-04-30T09:43:11.883Z</time></trkpt><trkpt lat="37.7980252" lon="21.6182348"><ele>381.0</ele><time>2026-04-30T09:43:12.883Z</time></trkpt><trkpt lat="37.7981401" lon="21.6181522"><ele>381.0</ele><time>2026-04-30T09:43:13.884Z</time></trkpt><trkpt lat="37.7982454" lon="21.6181179"><ele>381.0</ele><time>2026-04-30T09:43:14.883Z</time></trkpt><trkpt lat="37.7983342" lon="21.618153"><ele>381.0</ele><time>2026-04-30T09:43:15.883Z</time></trkpt><trkpt lat="37.7983949" lon="21.6182264"><ele>381.0</ele><time>2026-04-30T09:43:16.883Z</time></trkpt><trkpt lat="37.798426" lon="21.6183658"><ele>381.0</ele><time>2026-04-30T09:43:17.884Z</time></trkpt><trkpt lat="37.7984468" lon="21.6185334"><ele>382.33333333333337</ele><time>2026-04-30T09:43:18.883Z</time></trkpt><trkpt lat="37.7984515" lon="21.6187347"><ele>383.6666666666667</ele><time>2026-04-30T09:43:19.883Z</time></trkpt><trkpt lat="37.7984436" lon="21.6189494"><ele>385.0</ele><time>2026-04-30T09:43:20.884Z</time></trkpt><trkpt lat="37.7984002" lon="21.6191578"><ele>385.0</ele><time>2026-04-30T09:43:21.883Z</time></trkpt><trkpt lat="37.7983603" lon="21.6193612"><ele>385.0</ele><time>2026-04-30T09:43:22.884Z</time></trkpt><trkpt lat="37.7983273" lon="21.619566"><ele>385.0</ele><time>2026-04-30T09:43:23.883Z</time></trkpt><trkpt lat="37.7983197" lon="21.6197692"><ele>385.33333333333337</ele><time>2026-04-30T09:43:24.884Z</time></trkpt><trkpt lat="37.7983387" lon="21.6199891"><ele>385.66666666666663</ele><time>2026-04-30T09:43:25.884Z</time></trkpt><trkpt lat="37.7983822" lon="21.6202147"><ele>386.0</ele><time>2026-04-30T09:43:26.884Z</time></trkpt><trkpt lat="37.7984315" lon="21.6204352"><ele>386.3333333333333</ele><time>2026-04-30T09:43:27.884Z</time></trkpt><trkpt lat="37.7984643" lon="21.6206727"><ele>386.66666666666663</ele><time>2026-04-30T09:43:28.884Z</time></trkpt><trkpt lat="37.7984586" lon="21.6209205"><ele>387.0</ele><time>2026-04-30T09:43:29.884Z</time></trkpt><trkpt lat="37.7984403" lon="21.6211938"><ele>389.0</ele><time>2026-04-30T09:43:30.883Z</time></trkpt><trkpt lat="37.7984122" lon="21.6214794"><ele>391.0</ele><time>2026-04-30T09:43:31.883Z</time></trkpt><trkpt lat="37.7983861" lon="21.6217597"><ele>393.0</ele><time>2026-04-30T09:43:32.884Z</time></trkpt><trkpt lat="37.7983673" lon="21.6220156"><ele>395.0</ele><time>2026-04-30T09:43:33.883Z</time></trkpt><trkpt lat="37.798346" lon="21.6222663"><ele>397.0</ele><time>2026-04-30T09:43:34.883Z</time></trkpt><trkpt lat="37.7983426" lon="21.6225111"><ele>397.0</ele><time>2026-04-30T09:43:35.884Z</time></trkpt><trkpt lat="37.7983549" lon="21.6227584"><ele>397.0</ele><time>2026-04-30T09:43:36.883Z</time></trkpt><trkpt lat="37.7983624" lon="21.6230064"><ele>397.0</ele><time>2026-04-30T09:43:37.883Z</time></trkpt><trkpt lat="37.7983658" lon="21.6232252"><ele>398.6666666666667</ele><time>2026-04-30T09:43:38.884Z</time></trkpt><trkpt lat="37.7983839" lon="21.6234152"><ele>400.33333333333337</ele><time>2026-04-30T09:43:39.883Z</time></trkpt><trkpt lat="37.7984174" lon="21.6236048"><ele>402.0</ele><time>2026-04-30T09:43:40.883Z</time></trkpt><trkpt lat="37.7984268" lon="21.623798"><ele>402.5</ele><time>2026-04-30T09:43:41.884Z</time></trkpt><trkpt lat="37.7983818" lon="21.6239655"><ele>403.0</ele><time>2026-04-30T09:43:42.884Z</time></trkpt><trkpt lat="37.7983562" lon="21.6241292"><ele>403.5</ele><time>2026-04-30T09:43:43.884Z</time></trkpt><trkpt lat="37.7983479" lon="21.6242872"><ele>404.0</ele><time>2026-04-30T09:43:44.884Z</time></trkpt><trkpt lat="37.7983693" lon="21.6244448"><ele>404.5</ele><time>2026-04-30T09:43:45.883Z</time></trkpt><trkpt lat="37.7984034" lon="21.6246128"><ele>405.0</ele><time>2026-04-30T09:43:46.883Z</time></trkpt><trkpt lat="37.7984441" lon="21.6247879"><ele>405.5</ele><time>2026-04-30T09:43:47.884Z</time></trkpt><trkpt lat="37.7984755" lon="21.6249795"><ele>406.0</ele><time>2026-04-30T09:43:48.884Z</time></trkpt><trkpt lat="37.7985094" lon="21.6251854"><ele>416.33333333333337</ele><time>2026-04-30T09:43:49.884Z</time></trkpt><trkpt lat="37.7985513" lon="21.6253888"><ele>426.66666666666663</ele><time>2026-04-30T09:43:50.883Z</time></trkpt><trkpt lat="37.7985968" lon="21.6255881"><ele>437.0</ele><time>2026-04-30T09:43:51.883Z</time></trkpt><trkpt lat="37.7986407" lon="21.6257812"><ele>437.0</ele><time>2026-04-30T09:43:52.883Z</time></trkpt><trkpt lat="37.7986765" lon="21.6259607"><ele>437.0</ele><time>2026-04-30T09:43:53.884Z</time></trkpt><trkpt lat="37.7986926" lon="21.6261369"><ele>437.0</ele><time>2026-04-30T09:43:54.884Z</time></trkpt><trkpt lat="37.798679" lon="21.6263086"><ele>437.0</ele><time>2026-04-30T09:43:55.883Z</time></trkpt><trkpt lat="37.798629" lon="21.6264713"><ele>433.3333333333333</ele><time>2026-04-30T09:43:56.884Z</time></trkpt><trkpt lat="37.7985544" lon="21.6266362"><ele>429.66666666666663</ele><time>2026-04-30T09:43:57.883Z</time></trkpt><trkpt lat="37.7984287" lon="21.6267752"><ele>426.0</ele><time>2026-04-30T09:43:58.883Z</time></trkpt><trkpt lat="37.798289" lon="21.6269276"><ele>434.66666666666663</ele><time>2026-04-30T09:43:59.884Z</time></trkpt><trkpt lat="37.7981411" lon="21.6270867"><ele>443.3333333333333</ele><time>2026-04-30T09:44:00.883Z</time></trkpt><trkpt lat="37.7979915" lon="21.6272495"><ele>452.0</ele><time>2026-04-30T09:44:01.884Z</time></trkpt><trkpt lat="37.7978454" lon="21.6274058"><ele>452.0</ele><time>2026-04-30T09:44:02.884Z</time></trkpt><trkpt lat="37.7977133" lon="21.6275513"><ele>452.0</ele><time>2026-04-30T09:44:03.884Z</time></trkpt><trkpt lat="37.7975864" lon="21.62767"><ele>452.0</ele><time>2026-04-30T09:44:04.883Z</time></trkpt><trkpt lat="37.7974725" lon="21.6277756"><ele>449.5</ele><time>2026-04-30T09:44:05.883Z</time></trkpt><trkpt lat="37.7973865" lon="21.6278922"><ele>447.0</ele><time>2026-04-30T09:44:06.884Z</time></trkpt><trkpt lat="37.7973225" lon="21.6280341"><ele>444.5</ele><time>2026-04-30T09:44:07.884Z</time></trkpt><trkpt lat="37.7972838" lon="21.6282107"><ele>442.0</ele><time>2026-04-30T09:44:08.883Z</time></trkpt><trkpt lat="37.797284" lon="21.628413"><ele>443.6666666666667</ele><time>2026-04-30T09:44:09.883Z</time></trkpt><trkpt lat="37.7973085" lon="21.6286553"><ele>445.33333333333337</ele><time>2026-04-30T09:44:10.883Z</time></trkpt><trkpt lat="37.7973489" lon="21.6288997"><ele>447.0</ele><time>2026-04-30T09:44:11.884Z</time></trkpt><trkpt lat="37.7973826" lon="21.6291515"><ele>447.0</ele><time>2026-04-30T09:44:12.884Z</time></trkpt><trkpt lat="37.797389" lon="21.6294059"><ele>447.0</ele><time>2026-04-30T09:44:13.883Z</time></trkpt><trkpt lat="37.7973876" lon="21.6296588"><ele>447.0</ele><time>2026-04-30T09:44:14.883Z</time></trkpt><trkpt lat="37.7974071" lon="21.6298903"><ele>447.0</ele><time>2026-04-30T09:44:15.883Z</time></trkpt><trkpt lat="37.7974471" lon="21.6301186"><ele>447.0</ele><time>2026-04-30T09:44:16.884Z</time></trkpt><trkpt lat="37.7975041" lon="21.6303247"><ele>447.0</ele><time>2026-04-30T09:44:17.884Z</time></trkpt><trkpt lat="37.7975686" lon="21.6304963"><ele>447.25</ele><time>2026-04-30T09:44:18.883Z</time></trkpt><trkpt lat="37.7976324" lon="21.6306518"><ele>447.5</ele><time>2026-04-30T09:44:19.883Z</time></trkpt><trkpt lat="37.7976165" lon="21.6308032"><ele>447.75</ele><time>2026-04-30T09:44:20.883Z</time></trkpt><trkpt lat="37.7975817" lon="21.6309539"><ele>448.0</ele><time>2026-04-30T09:44:21.884Z</time></trkpt><trkpt lat="37.7975162" lon="21.6311227"><ele>451.6666666666667</ele><time>2026-04-30T09:44:22.883Z</time></trkpt><trkpt lat="37.797463" lon="21.6312999"><ele>455.33333333333337</ele><time>2026-04-30T09:44:23.884Z</time></trkpt><trkpt lat="37.7974326" lon="21.6314946"><ele>459.0</ele><time>2026-04-30T09:44:24.884Z</time></trkpt><trkpt lat="37.7974242" lon="21.6317005"><ele>459.0</ele><time>2026-04-30T09:44:25.884Z</time></trkpt><trkpt lat="37.7974233" lon="21.6319233"><ele>459.0</ele><time>2026-04-30T09:44:26.884Z</time></trkpt><trkpt lat="37.7974377" lon="21.6321436"><ele>459.0</ele><time>2026-04-30T09:44:27.884Z</time></trkpt><trkpt lat="37.7974481" lon="21.6323628"><ele>460.66666666666663</ele><time>2026-04-30T09:44:28.884Z</time></trkpt><trkpt lat="37.7974406" lon="21.63257"><ele>462.3333333333333</ele><time>2026-04-30T09:44:29.884Z</time></trkpt><trkpt lat="37.7974271" lon="21.6327614"><ele>464.0</ele><time>2026-04-30T09:44:30.884Z</time></trkpt><trkpt lat="37.7974309" lon="21.6329316"><ele>464.3333333333333</ele><time>2026-04-30T09:44:31.883Z</time></trkpt><trkpt lat="37.7974717" lon="21.6331149"><ele>464.66666666666663</ele><time>2026-04-30T09:44:32.884Z</time></trkpt><trkpt lat="37.7975326" lon="21.6332877"><ele>465.0</ele><time>2026-04-30T09:44:33.883Z</time></trkpt><trkpt lat="37.7976303" lon="21.6334614"><ele>470.0</ele><time>2026-04-30T09:44:34.883Z</time></trkpt><trkpt lat="37.7977497" lon="21.6336481"><ele>475.0</ele><time>2026-04-30T09:44:35.883Z</time></trkpt><trkpt lat="37.7978888" lon="21.6338282"><ele>480.0</ele><time>2026-04-30T09:44:36.884Z</time></trkpt><trkpt lat="37.7980402" lon="21.6339859"><ele>480.0</ele><time>2026-04-30T09:44:37.883Z</time></trkpt><trkpt lat="37.7981841" lon="21.6341435"><ele>480.0</ele><time>2026-04-30T09:44:38.884Z</time></trkpt><trkpt lat="37.7983133" lon="21.6343244"><ele>480.0</ele><time>2026-04-30T09:44:39.883Z</time></trkpt><trkpt lat="37.7984273" lon="21.6345181"><ele>486.66666666666663</ele><time>2026-04-30T09:44:40.883Z</time></trkpt><trkpt lat="37.7985474" lon="21.634719"><ele>493.3333333333333</ele><time>2026-04-30T09:44:41.884Z</time></trkpt><trkpt lat="37.7986546" lon="21.6349359"><ele>500.0</ele><time>2026-04-30T09:44:42.884Z</time></trkpt><trkpt lat="37.7987434" lon="21.635166"><ele>496.0</ele><time>2026-04-30T09:44:43.883Z</time></trkpt><trkpt lat="37.7988326" lon="21.6353956"><ele>492.0</ele><time>2026-04-30T09:44:44.884Z</time></trkpt><trkpt lat="37.7989322" lon="21.6356186"><ele>488.0</ele><time>2026-04-30T09:44:45.884Z</time></trkpt><trkpt lat="37.7990238" lon="21.6358351"><ele>488.0</ele><time>2026-04-30T09:44:46.884Z</time></trkpt><trkpt lat="37.7991059" lon="21.6360517"><ele>488.0</ele><time>2026-04-30T09:44:47.883Z</time></trkpt><trkpt lat="37.7991945" lon="21.6362685"><ele>488.0</ele><time>2026-04-30T09:44:48.883Z</time></trkpt><trkpt lat="37.7992975" lon="21.6364858"><ele>490.66666666666663</ele><time>2026-04-30T09:44:49.883Z</time></trkpt><trkpt lat="37.7994056" lon="21.6367055"><ele>493.33333333333337</ele><time>2026-04-30T09:44:50.883Z</time></trkpt><trkpt lat="37.7995318" lon="21.6369033"><ele>496.0</ele><time>2026-04-30T09:44:51.884Z</time></trkpt><trkpt lat="37.7996438" lon="21.6370928"><ele>496.0</ele><time>2026-04-30T09:44:52.883Z</time></trkpt><trkpt lat="37.7997439" lon="21.6373055"><ele>496.0</ele><time>2026-04-30T09:44:53.883Z</time></trkpt><trkpt lat="37.7998236" lon="21.6375314"><ele>496.0</ele><time>2026-04-30T09:44:54.884Z</time></trkpt><trkpt lat="37.7998856" lon="21.6377719"><ele>494.0</ele><time>2026-04-30T09:44:55.884Z</time></trkpt><trkpt lat="37.7999543" lon="21.6380071"><ele>492.0</ele><time>2026-04-30T09:44:56.883Z</time></trkpt><trkpt lat="37.8000286" lon="21.6382429"><ele>490.0</ele><time>2026-04-30T09:44:57.883Z</time></trkpt><trkpt lat="37.8001027" lon="21.6384832"><ele>492.33333333333337</ele><time>2026-04-30T09:44:58.884Z</time></trkpt><trkpt lat="37.800161" lon="21.6387355"><ele>494.66666666666663</ele><time>2026-04-30T09:44:59.884Z</time></trkpt><trkpt lat="37.8002156" lon="21.6389812"><ele>497.0</ele><time>2026-04-30T09:45:00.884Z</time></trkpt><trkpt lat="37.800267" lon="21.6392318"><ele>506.0</ele><time>2026-04-30T09:45:01.884Z</time></trkpt><trkpt lat="37.8003097" lon="21.6394798"><ele>515.0</ele><time>2026-04-30T09:45:02.884Z</time></trkpt><trkpt lat="37.8003509" lon="21.6397308"><ele>524.0</ele><time>2026-04-30T09:45:03.884Z</time></trkpt><trkpt lat="37.8003752" lon="21.63997"><ele>524.0</ele><time>2026-04-30T09:45:04.883Z</time></trkpt><trkpt lat="37.8004062" lon="21.6401997"><ele>524.0</ele><time>2026-04-30T09:45:05.884Z</time></trkpt><trkpt lat="37.8004531" lon="21.6404399"><ele>524.0</ele><time>2026-04-30T09:45:06.884Z</time></trkpt><trkpt lat="37.8004068" lon="21.6406735"><ele>523.6666666666666</ele><time>2026-04-30T09:45:07.883Z</time></trkpt><trkpt lat="37.8004064" lon="21.6409033"><ele>523.3333333333334</ele><time>2026-04-30T09:45:08.884Z</time></trkpt><trkpt lat="37.8004294" lon="21.6411302"><ele>523.0</ele><time>2026-04-30T09:45:09.883Z</time></trkpt><trkpt lat="37.8004628" lon="21.6413423"><ele>522.0</ele><time>2026-04-30T09:45:10.884Z</time></trkpt><trkpt lat="37.8004947" lon="21.6415395"><ele>521.0</ele><time>2026-04-30T09:45:11.883Z</time></trkpt><trkpt lat="37.8004576" lon="21.641735"><ele>520.0</ele><time>2026-04-30T09:45:12.883Z</time></trkpt><trkpt lat="37.8004004" lon="21.6419309"><ele>522.3333333333334</ele><time>2026-04-30T09:45:13.883Z</time></trkpt><trkpt lat="37.8003914" lon="21.6421606"><ele>524.6666666666666</ele><time>2026-04-30T09:45:14.883Z</time></trkpt><trkpt lat="37.8004023" lon="21.642392"><ele>527.0</ele><time>2026-04-30T09:45:15.884Z</time></trkpt><trkpt lat="37.8004181" lon="21.6426398"><ele>527.0</ele><time>2026-04-30T09:45:16.883Z</time></trkpt><trkpt lat="37.8004384" lon="21.6428975"><ele>527.0</ele><time>2026-04-30T09:45:17.884Z</time></trkpt><trkpt lat="37.8004667" lon="21.6431391"><ele>527.0</ele><time>2026-04-30T09:45:18.884Z</time></trkpt><trkpt lat="37.8005226" lon="21.6433708"><ele>527.0</ele><time>2026-04-30T09:45:19.884Z</time></trkpt><trkpt lat="37.8005981" lon="21.6435836"><ele>527.0</ele><time>2026-04-30T09:45:20.883Z</time></trkpt><trkpt lat="37.8006907" lon="21.6437812"><ele>527.0</ele><time>2026-04-30T09:45:21.883Z</time></trkpt><trkpt lat="37.8008065" lon="21.6439711"><ele>527.6666666666666</ele><time>2026-04-30T09:45:22.883Z</time></trkpt><trkpt lat="37.8009389" lon="21.6441469"><ele>528.3333333333334</ele><time>2026-04-30T09:45:23.884Z</time></trkpt><trkpt lat="37.801077" lon="21.6443317"><ele>529.0</ele><time>2026-04-30T09:45:24.884Z</time></trkpt><trkpt lat="37.8012065" lon="21.6445295"><ele>529.0</ele><time>2026-04-30T09:45:25.884Z</time></trkpt><trkpt lat="37.8013351" lon="21.6447282"><ele>529.0</ele><time>2026-04-30T09:45:26.884Z</time></trkpt><trkpt lat="37.8014706" lon="21.6449128"><ele>529.0</ele><time>2026-04-30T09:45:27.884Z</time></trkpt><trkpt lat="37.801585" lon="21.6450895"><ele>529.0</ele><time>2026-04-30T09:45:28.883Z</time></trkpt><trkpt lat="37.8016856" lon="21.645257"><ele>529.0</ele><time>2026-04-30T09:45:29.884Z</time></trkpt><trkpt lat="37.8017757" lon="21.6454169"><ele>529.0</ele><time>2026-04-30T09:45:30.883Z</time></trkpt><trkpt lat="37.8018144" lon="21.6456124"><ele>535.0</ele><time>2026-04-30T09:45:31.884Z</time></trkpt><trkpt lat="37.8018422" lon="21.6458175"><ele>541.0</ele><time>2026-04-30T09:45:32.883Z</time></trkpt><trkpt lat="37.8018634" lon="21.6460246"><ele>547.0</ele><time>2026-04-30T09:45:33.883Z</time></trkpt><trkpt lat="37.8018803" lon="21.6462274"><ele>547.0</ele><time>2026-04-30T09:45:34.883Z</time></trkpt><trkpt lat="37.8018775" lon="21.6464295"><ele>547.0</ele><time>2026-04-30T09:45:35.883Z</time></trkpt><trkpt lat="37.8018506" lon="21.6466171"><ele>547.0</ele><time>2026-04-30T09:45:36.884Z</time></trkpt><trkpt lat="37.8018016" lon="21.6468002"><ele>545.6666666666667</ele><time>2026-04-30T09:45:37.884Z</time></trkpt><trkpt lat="37.8016778" lon="21.6469224"><ele>544.3333333333334</ele><time>2026-04-30T09:45:38.884Z</time></trkpt><trkpt lat="37.8015875" lon="21.6470924"><ele>543.0</ele><time>2026-04-30T09:45:39.883Z</time></trkpt><trkpt lat="37.8014987" lon="21.6472947"><ele>543.0</ele><time>2026-04-30T09:45:40.883Z</time></trkpt><trkpt lat="37.8014155" lon="21.6474971"><ele>543.0</ele><time>2026-04-30T09:45:41.884Z</time></trkpt><trkpt lat="37.8013305" lon="21.6477121"><ele>543.0</ele><time>2026-04-30T09:45:42.883Z</time></trkpt><trkpt lat="37.8012231" lon="21.6478937"><ele>543.0</ele><time>2026-04-30T09:45:43.883Z</time></trkpt><trkpt lat="37.8010952" lon="21.6480556"><ele>543.0</ele><time>2026-04-30T09:45:44.883Z</time></trkpt><trkpt lat="37.8009604" lon="21.6482244"><ele>543.0</ele><time>2026-04-30T09:45:45.883Z</time></trkpt><trkpt lat="37.8008482" lon="21.6484259"><ele>546.6666666666666</ele><time>2026-04-30T09:45:46.884Z</time></trkpt><trkpt lat="37.8007579" lon="21.648638"><ele>550.3333333333333</ele><time>2026-04-30T09:45:47.883Z</time></trkpt><trkpt lat="37.800675" lon="21.6488411"><ele>554.0</ele><time>2026-04-30T09:45:48.884Z</time></trkpt><trkpt lat="37.8006117" lon="21.6490503"><ele>554.0</ele><time>2026-04-30T09:45:49.883Z</time></trkpt><trkpt lat="37.8005815" lon="21.6492702"><ele>554.0</ele><time>2026-04-30T09:45:50.884Z</time></trkpt><trkpt lat="37.800566" lon="21.649495"><ele>554.0</ele><time>2026-04-30T09:45:51.883Z</time></trkpt><trkpt lat="37.800574" lon="21.6497353"><ele>554.6666666666666</ele><time>2026-04-30T09:45:52.884Z</time></trkpt><trkpt lat="37.8006104" lon="21.6499713"><ele>555.3333333333334</ele><time>2026-04-30T09:45:53.883Z</time></trkpt><trkpt lat="37.8006605" lon="21.6501824"><ele>556.0</ele><time>2026-04-30T09:45:54.884Z</time></trkpt><trkpt lat="37.8007423" lon="21.6503784"><ele>556.0</ele><time>2026-04-30T09:45:55.884Z</time></trkpt><trkpt lat="37.8008573" lon="21.6505577"><ele>556.0</ele><time>2026-04-30T09:45:56.884Z</time></trkpt><trkpt lat="37.8009964" lon="21.6507451"><ele>556.0</ele><time>2026-04-30T09:45:57.884Z</time></trkpt><trkpt lat="37.8011342" lon="21.6509336"><ele>558.6666666666667</ele><time>2026-04-30T09:45:58.884Z</time></trkpt><trkpt lat="37.8012652" lon="21.6511204"><ele>561.3333333333334</ele><time>2026-04-30T09:45:59.883Z</time></trkpt><trkpt lat="37.8013704" lon="21.6513095"><ele>564.0</ele><time>2026-04-30T09:46:00.884Z</time></trkpt><trkpt lat="37.8014771" lon="21.6514636"><ele>564.0</ele><time>2026-04-30T09:46:01.884Z</time></trkpt><trkpt lat="37.8015879" lon="21.6515857"><ele>564.0</ele><time>2026-04-30T09:46:02.883Z</time></trkpt><trkpt lat="37.8016839" lon="21.6516938"><ele>564.0</ele><time>2026-04-30T09:46:03.884Z</time></trkpt><trkpt lat="37.8017416" lon="21.6517985"><ele>564.0</ele><time>2026-04-30T09:46:04.884Z</time></trkpt><trkpt lat="37.8017694" lon="21.6519052"><ele>564.25</ele><time>2026-04-30T09:46:05.884Z</time></trkpt><trkpt lat="37.8016999" lon="21.6519778"><ele>564.5</ele><time>2026-04-30T09:46:06.884Z</time></trkpt><trkpt lat="37.8016221" lon="21.6520581"><ele>564.75</ele><time>2026-04-30T09:46:07.884Z</time></trkpt><trkpt lat="37.8015259" lon="21.6521581"><ele>565.0</ele><time>2026-04-30T09:46:08.884Z</time></trkpt><trkpt lat="37.8014346" lon="21.6523016"><ele>565.0</ele><time>2026-04-30T09:46:09.883Z</time></trkpt><trkpt lat="37.8013657" lon="21.6524701"><ele>565.0</ele><time>2026-04-30T09:46:10.883Z</time></trkpt><trkpt lat="37.8013167" lon="21.6526653"><ele>565.0</ele><time>2026-04-30T09:46:11.884Z</time></trkpt><trkpt lat="37.8012943" lon="21.6528949"><ele>565.6666666666667</ele><time>2026-04-30T09:46:12.883Z</time></trkpt><trkpt lat="37.8012947" lon="21.6531321"><ele>566.3333333333334</ele><time>2026-04-30T09:46:13.884Z</time></trkpt><trkpt lat="37.8013046" lon="21.6533771"><ele>567.0</ele><time>2026-04-30T09:46:14.884Z</time></trkpt><trkpt lat="37.8012991" lon="21.6535977"><ele>568.6666666666666</ele><time>2026-04-30T09:46:15.884Z</time></trkpt><trkpt lat="37.8012733" lon="21.6538056"><ele>570.3333333333333</ele><time>2026-04-30T09:46:16.883Z</time></trkpt><trkpt lat="37.8012436" lon="21.6540106"><ele>572.0</ele><time>2026-04-30T09:46:17.883Z</time></trkpt><trkpt lat="37.8012051" lon="21.6542008"><ele>572.0</ele><time>2026-04-30T09:46:18.884Z</time></trkpt><trkpt lat="37.8011631" lon="21.6543893"><ele>572.0</ele><time>2026-04-30T09:46:19.884Z</time></trkpt><trkpt lat="37.8011235" lon="21.6545807"><ele>572.0</ele><time>2026-04-30T09:46:20.883Z</time></trkpt><trkpt lat="37.8010827" lon="21.654777"><ele>571.6666666666666</ele><time>2026-04-30T09:46:21.884Z</time></trkpt><trkpt lat="37.8010391" lon="21.6549703"><ele>571.3333333333334</ele><time>2026-04-30T09:46:22.884Z</time></trkpt><trkpt lat="37.8009879" lon="21.655158"><ele>571.0</ele><time>2026-04-30T09:46:23.883Z</time></trkpt><trkpt lat="37.8009437" lon="21.6553509"><ele>570.3333333333334</ele><time>2026-04-30T09:46:24.884Z</time></trkpt><trkpt lat="37.8008891" lon="21.6555468"><ele>569.6666666666666</ele><time>2026-04-30T09:46:25.884Z</time></trkpt><trkpt lat="37.8008427" lon="21.6557491"><ele>569.0</ele><time>2026-04-30T09:46:26.883Z</time></trkpt><trkpt lat="37.8008147" lon="21.6559601"><ele>571.0</ele><time>2026-04-30T09:46:27.884Z</time></trkpt><trkpt lat="37.8007952" lon="21.6561758"><ele>573.0</ele><time>2026-04-30T09:46:28.883Z</time></trkpt><trkpt lat="37.8007905" lon="21.6564002"><ele>575.0</ele><time>2026-04-30T09:46:29.884Z</time></trkpt><trkpt lat="37.8007971" lon="21.6566178"><ele>575.0</ele><time>2026-04-30T09:46:30.884Z</time></trkpt><trkpt lat="37.8008113" lon="21.6568136"><ele>575.0</ele><time>2026-04-30T09:46:31.884Z</time></trkpt><trkpt lat="37.8008461" lon="21.6570004"><ele>575.0</ele><time>2026-04-30T09:46:32.883Z</time></trkpt><trkpt lat="37.8008995" lon="21.6571706"><ele>575.6666666666666</ele><time>2026-04-30T09:46:33.884Z</time></trkpt><trkpt lat="37.8009852" lon="21.6573436"><ele>576.3333333333334</ele><time>2026-04-30T09:46:34.884Z</time></trkpt><trkpt lat="37.8010754" lon="21.657526"><ele>577.0</ele><time>2026-04-30T09:46:35.884Z</time></trkpt><trkpt lat="37.8011585" lon="21.6577181"><ele>576.6666666666667</ele><time>2026-04-30T09:46:36.884Z</time></trkpt><trkpt lat="37.8012241" lon="21.6579142"><ele>576.3333333333334</ele><time>2026-04-30T09:46:37.884Z</time></trkpt><trkpt lat="37.8012917" lon="21.6581116"><ele>576.0</ele><time>2026-04-30T09:46:38.884Z</time></trkpt><trkpt lat="37.8013134" lon="21.6583054"><ele>576.0</ele><time>2026-04-30T09:46:39.883Z</time></trkpt><trkpt lat="37.8013289" lon="21.6584902"><ele>576.0</ele><time>2026-04-30T09:46:40.884Z</time></trkpt><trkpt lat="37.8013041" lon="21.6586836"><ele>576.0</ele><time>2026-04-30T09:46:41.883Z</time></trkpt><trkpt lat="37.8012897" lon="21.6588727"><ele>577.5</ele><time>2026-04-30T09:46:42.883Z</time></trkpt><trkpt lat="37.8012844" lon="21.6590557"><ele>579.0</ele><time>2026-04-30T09:46:43.884Z</time></trkpt><trkpt lat="37.8013076" lon="21.6592285"><ele>580.5</ele><time>2026-04-30T09:46:44.884Z</time></trkpt><trkpt lat="37.80135" lon="21.6593828"><ele>582.0</ele><time>2026-04-30T09:46:45.883Z</time></trkpt><trkpt lat="37.8014265" lon="21.6595102"><ele>582.3333333333334</ele><time>2026-04-30T09:46:46.884Z</time></trkpt><trkpt lat="37.8015361" lon="21.6596178"><ele>582.6666666666667</ele><time>2026-04-30T09:46:47.884Z</time></trkpt><trkpt lat="37.801681" lon="21.6597055"><ele>583.0</ele><time>2026-04-30T09:46:48.883Z</time></trkpt><trkpt lat="37.8018301" lon="21.6597877"><ele>582.6666666666667</ele><time>2026-04-30T09:46:49.883Z</time></trkpt><trkpt lat="37.8019867" lon="21.659866"><ele>582.3333333333334</ele><time>2026-04-30T09:46:50.883Z</time></trkpt><trkpt lat="37.8021469" lon="21.6599486"><ele>582.0</ele><time>2026-04-30T09:46:51.884Z</time></trkpt><trkpt lat="37.8023153" lon="21.6600337"><ele>582.0</ele><time>2026-04-30T09:46:52.883Z</time></trkpt><trkpt lat="37.8024738" lon="21.6601121"><ele>582.0</ele><time>2026-04-30T09:46:53.884Z</time></trkpt><trkpt lat="37.8026285" lon="21.660177"><ele>582.0</ele><time>2026-04-30T09:46:54.884Z</time></trkpt><trkpt lat="37.8027723" lon="21.6602517"><ele>583.3333333333334</ele><time>2026-04-30T09:46:55.884Z</time></trkpt><trkpt lat="37.8028965" lon="21.660357"><ele>584.6666666666667</ele><time>2026-04-30T09:46:56.883Z</time></trkpt><trkpt lat="37.8030111" lon="21.6604926"><ele>586.0</ele><time>2026-04-30T09:46:57.884Z</time></trkpt><trkpt lat="37.8031218" lon="21.660651"><ele>586.0</ele><time>2026-04-30T09:46:58.884Z</time></trkpt><trkpt lat="37.8032201" lon="21.6608323"><ele>586.0</ele><time>2026-04-30T09:46:59.884Z</time></trkpt><trkpt lat="37.80332" lon="21.6610139"><ele>586.0</ele><time>2026-04-30T09:47:00.884Z</time></trkpt><trkpt lat="37.803414" lon="21.6611847"><ele>584.75</ele><time>2026-04-30T09:47:01.883Z</time></trkpt><trkpt lat="37.803505" lon="21.6613488"><ele>583.5</ele><time>2026-04-30T09:47:02.884Z</time></trkpt><trkpt lat="37.8035944" lon="21.6614946"><ele>582.25</ele><time>2026-04-30T09:47:03.884Z</time></trkpt><trkpt lat="37.8036918" lon="21.6616276"><ele>581.0</ele><time>2026-04-30T09:47:04.884Z</time></trkpt><trkpt lat="37.8038089" lon="21.6617223"><ele>581.0</ele><time>2026-04-30T09:47:05.884Z</time></trkpt><trkpt lat="37.803923" lon="21.6617838"><ele>581.0</ele><time>2026-04-30T09:47:06.884Z</time></trkpt><trkpt lat="37.8040446" lon="21.6618229"><ele>581.0</ele><time>2026-04-30T09:47:07.883Z</time></trkpt><trkpt lat="37.8041694" lon="21.6618596"><ele>581.0</ele><time>2026-04-30T09:47:08.883Z</time></trkpt><trkpt lat="37.8042973" lon="21.6619094"><ele>582.75</ele><time>2026-04-30T09:47:09.884Z</time></trkpt><trkpt lat="37.8044134" lon="21.66198"><ele>584.5</ele><time>2026-04-30T09:47:10.884Z</time></trkpt><trkpt lat="37.8045161" lon="21.6620936"><ele>586.25</ele><time>2026-04-30T09:47:11.883Z</time></trkpt><trkpt lat="37.8046143" lon="21.6622152"><ele>588.0</ele><time>2026-04-30T09:47:12.883Z</time></trkpt><trkpt lat="37.804714" lon="21.662353"><ele>588.0</ele><time>2026-04-30T09:47:13.883Z</time></trkpt><trkpt lat="37.8047971" lon="21.6624891"><ele>588.0</ele><time>2026-04-30T09:47:14.883Z</time></trkpt><trkpt lat="37.8048769" lon="21.6626194"><ele>588.0</ele><time>2026-04-30T09:47:15.884Z</time></trkpt><trkpt lat="37.8049498" lon="21.6627401"><ele>588.0</ele><time>2026-04-30T09:47:16.884Z</time></trkpt><trkpt lat="37.8050134" lon="21.6628542"><ele>587.4</ele><time>2026-04-30T09:47:17.884Z</time></trkpt><trkpt lat="37.8050697" lon="21.6629655"><ele>586.8</ele><time>2026-04-30T09:47:18.883Z</time></trkpt><trkpt lat="37.8051189" lon="21.6630894"><ele>586.2</ele><time>2026-04-30T09:47:19.883Z</time></trkpt><trkpt lat="37.8051579" lon="21.663219"><ele>585.6</ele><time>2026-04-30T09:47:20.883Z</time></trkpt><trkpt lat="37.8051786" lon="21.6633633"><ele>585.0</ele><time>2026-04-30T09:47:21.884Z</time></trkpt><trkpt lat="37.8051851" lon="21.6635188"><ele>583.75</ele><time>2026-04-30T09:47:22.884Z</time></trkpt><trkpt lat="37.8051903" lon="21.6636861"><ele>582.5</ele><time>2026-04-30T09:47:23.883Z</time></trkpt><trkpt lat="37.8051921" lon="21.6638499"><ele>581.25</ele><time>2026-04-30T09:47:24.883Z</time></trkpt><trkpt lat="37.8051841" lon="21.6640327"><ele>580.0</ele><time>2026-04-30T09:47:25.884Z</time></trkpt><trkpt lat="37.8051582" lon="21.6642249"><ele>579.3333333333334</ele><time>2026-04-30T09:47:26.884Z</time></trkpt><trkpt lat="37.8051254" lon="21.6644232"><ele>578.6666666666666</ele><time>2026-04-30T09:47:27.884Z</time></trkpt><trkpt lat="37.8050854" lon="21.6646313"><ele>578.0</ele><time>2026-04-30T09:47:28.883Z</time></trkpt><trkpt lat="37.8050497" lon="21.664836"><ele>579.6666666666666</ele><time>2026-04-30T09:47:29.884Z</time></trkpt><trkpt lat="37.8050234" lon="21.6650372"><ele>581.3333333333334</ele><time>2026-04-30T09:47:30.883Z</time></trkpt><trkpt lat="37.8050096" lon="21.6652505"><ele>583.0</ele><time>2026-04-30T09:47:31.884Z</time></trkpt><trkpt lat="37.8050149" lon="21.6654687"><ele>585.3333333333334</ele><time>2026-04-30T09:47:32.884Z</time></trkpt><trkpt lat="37.8050373" lon="21.6656887"><ele>587.6666666666666</ele><time>2026-04-30T09:47:33.883Z</time></trkpt><trkpt lat="37.8050805" lon="21.6658984"><ele>590.0</ele><time>2026-04-30T09:47:34.883Z</time></trkpt><trkpt lat="37.805131" lon="21.6661027"><ele>591.0</ele><time>2026-04-30T09:47:35.884Z</time></trkpt><trkpt lat="37.8051846" lon="21.6663109"><ele>592.0</ele><time>2026-04-30T09:47:36.884Z</time></trkpt><trkpt lat="37.8052304" lon="21.6665111"><ele>593.0</ele><time>2026-04-30T09:47:37.884Z</time></trkpt><trkpt lat="37.8052616" lon="21.6667039"><ele>593.0</ele><time>2026-04-30T09:47:38.883Z</time></trkpt><trkpt lat="37.8052866" lon="21.6669077"><ele>593.0</ele><time>2026-04-30T09:47:39.883Z</time></trkpt><trkpt lat="37.8053124" lon="21.6671105"><ele>593.0</ele><time>2026-04-30T09:47:40.884Z</time></trkpt><trkpt lat="37.8053336" lon="21.6673092"><ele>591.3333333333333</ele><time>2026-04-30T09:47:41.884Z</time></trkpt><trkpt lat="37.8053524" lon="21.6675089"><ele>589.6666666666666</ele><time>2026-04-30T09:47:42.884Z</time></trkpt><trkpt lat="37.8053702" lon="21.6677053"><ele>588.0</ele><time>2026-04-30T09:47:43.883Z</time></trkpt><trkpt lat="37.8053796" lon="21.667896"><ele>588.0</ele><time>2026-04-30T09:47:44.884Z</time></trkpt><trkpt lat="37.8053876" lon="21.6680878"><ele>588.0</ele><time>2026-04-30T09:47:45.884Z</time></trkpt><trkpt lat="37.8053957" lon="21.6682809"><ele>588.0</ele><time>2026-04-30T09:47:46.884Z</time></trkpt><trkpt lat="37.805403" lon="21.668479"><ele>590.3333333333334</ele><time>2026-04-30T09:47:47.884Z</time></trkpt><trkpt lat="37.8054057" lon="21.6686756"><ele>592.6666666666667</ele><time>2026-04-30T09:47:48.883Z</time></trkpt><trkpt lat="37.8054143" lon="21.6688713"><ele>595.0</ele><time>2026-04-30T09:47:49.884Z</time></trkpt><trkpt lat="37.8054304" lon="21.6690697"><ele>595.0</ele><time>2026-04-30T09:47:50.883Z</time></trkpt><trkpt lat="37.8054266" lon="21.6692693"><ele>595.0</ele><time>2026-04-30T09:47:51.884Z</time></trkpt><trkpt lat="37.8054145" lon="21.6694739"><ele>595.0</ele><time>2026-04-30T09:47:52.883Z</time></trkpt><trkpt lat="37.8053927" lon="21.6696755"><ele>596.3333333333334</ele><time>2026-04-30T09:47:53.884Z</time></trkpt><trkpt lat="37.8053576" lon="21.6698764"><ele>597.6666666666666</ele><time>2026-04-30T09:47:54.883Z</time></trkpt><trkpt lat="37.8053202" lon="21.6700854"><ele>599.0</ele><time>2026-04-30T09:47:55.884Z</time></trkpt><trkpt lat="37.8052662" lon="21.670281"><ele>598.0</ele><time>2026-04-30T09:47:56.884Z</time></trkpt><trkpt lat="37.8051829" lon="21.6704766"><ele>597.0</ele><time>2026-04-30T09:47:57.883Z</time></trkpt><trkpt lat="37.8051087" lon="21.6706788"><ele>596.0</ele><time>2026-04-30T09:47:58.884Z</time></trkpt><trkpt lat="37.8050289" lon="21.6708942"><ele>596.3333333333333</ele><time>2026-04-30T09:47:59.884Z</time></trkpt><trkpt lat="37.8049544" lon="21.6711135"><ele>596.6666666666666</ele><time>2026-04-30T09:48:00.883Z</time></trkpt><trkpt lat="37.8048613" lon="21.6713356"><ele>597.0</ele><time>2026-04-30T09:48:01.884Z</time></trkpt><trkpt lat="37.8047633" lon="21.6715547"><ele>597.0</ele><time>2026-04-30T09:48:02.884Z</time></trkpt><trkpt lat="37.8046511" lon="21.6717821"><ele>597.0</ele><time>2026-04-30T09:48:03.884Z</time></trkpt><trkpt lat="37.8045475" lon="21.6720039"><ele>597.0</ele><time>2026-04-30T09:48:04.884Z</time></trkpt><trkpt lat="37.8044373" lon="21.6722243"><ele>596.3333333333334</ele><time>2026-04-30T09:48:05.883Z</time></trkpt><trkpt lat="37.8043321" lon="21.6724315"><ele>595.6666666666667</ele><time>2026-04-30T09:48:06.883Z</time></trkpt><trkpt lat="37.8042363" lon="21.6726485"><ele>595.0</ele><time>2026-04-30T09:48:07.884Z</time></trkpt><trkpt lat="37.8041528" lon="21.6728478"><ele>594.75</ele><time>2026-04-30T09:48:08.884Z</time></trkpt><trkpt lat="37.8040874" lon="21.6730233"><ele>594.5</ele><time>2026-04-30T09:48:09.883Z</time></trkpt><trkpt lat="37.8040403" lon="21.6731942"><ele>594.25</ele><time>2026-04-30T09:48:10.883Z</time></trkpt><trkpt lat="37.8040229" lon="21.6733688"><ele>594.0</ele><time>2026-04-30T09:48:11.884Z</time></trkpt><trkpt lat="37.8040388" lon="21.6735416"><ele>594.6666666666666</ele><time>2026-04-30T09:48:12.883Z</time></trkpt><trkpt lat="37.8040799" lon="21.6737104"><ele>595.3333333333333</ele><time>2026-04-30T09:48:13.883Z</time></trkpt><trkpt lat="37.8041566" lon="21.6738885"><ele>596.0</ele><time>2026-04-30T09:48:14.883Z</time></trkpt><trkpt lat="37.8042406" lon="21.6740758"><ele>595.6666666666666</ele><time>2026-04-30T09:48:15.884Z</time></trkpt><trkpt lat="37.8043342" lon="21.6742783"><ele>595.3333333333334</ele><time>2026-04-30T09:48:16.884Z</time></trkpt><trkpt lat="37.804421" lon="21.6744878"><ele>595.0</ele><time>2026-04-30T09:48:17.883Z</time></trkpt><trkpt lat="37.8045075" lon="21.6746942"><ele>595.0</ele><time>2026-04-30T09:48:18.884Z</time></trkpt><trkpt lat="37.8045914" lon="21.6749056"><ele>595.0</ele><time>2026-04-30T09:48:19.883Z</time></trkpt><trkpt lat="37.8046727" lon="21.6751117"><ele>595.0</ele><time>2026-04-30T09:48:20.884Z</time></trkpt><trkpt lat="37.8047602" lon="21.6753115"><ele>596.3333333333334</ele><time>2026-04-30T09:48:21.883Z</time></trkpt><trkpt lat="37.8048594" lon="21.6755039"><ele>597.6666666666666</ele><time>2026-04-30T09:48:22.883Z</time></trkpt><trkpt lat="37.8049565" lon="21.6756993"><ele>599.0</ele><time>2026-04-30T09:48:23.884Z</time></trkpt><trkpt lat="37.8050627" lon="21.6758916"><ele>598.0</ele><time>2026-04-30T09:48:24.883Z</time></trkpt><trkpt lat="37.8051857" lon="21.676068"><ele>597.0</ele><time>2026-04-30T09:48:25.884Z</time></trkpt><trkpt lat="37.8053133" lon="21.676224"><ele>596.0</ele><time>2026-04-30T09:48:26.883Z</time></trkpt><trkpt lat="37.8054451" lon="21.6763824"><ele>598.0</ele><time>2026-04-30T09:48:27.884Z</time></trkpt><trkpt lat="37.8055742" lon="21.6765463"><ele>600.0</ele><time>2026-04-30T09:48:28.884Z</time></trkpt><trkpt lat="37.8056954" lon="21.6767181"><ele>602.0</ele><time>2026-04-30T09:48:29.884Z</time></trkpt><trkpt lat="37.8058177" lon="21.6768918"><ele>601.3333333333333</ele><time>2026-04-30T09:48:30.883Z</time></trkpt><trkpt lat="37.8059382" lon="21.6770706"><ele>600.6666666666666</ele><time>2026-04-30T09:48:31.884Z</time></trkpt><trkpt lat="37.8060529" lon="21.6772518"><ele>600.0</ele><time>2026-04-30T09:48:32.883Z</time></trkpt><trkpt lat="37.8061591" lon="21.6774344"><ele>600.3333333333334</ele><time>2026-04-30T09:48:33.883Z</time></trkpt><trkpt lat="37.806257" lon="21.67762"><ele>600.6666666666667</ele><time>2026-04-30T09:48:34.884Z</time></trkpt><trkpt lat="37.8063579" lon="21.6777995"><ele>601.0</ele><time>2026-04-30T09:48:35.884Z</time></trkpt><trkpt lat="37.8064648" lon="21.677969"><ele>601.0</ele><time>2026-04-30T09:48:36.883Z</time></trkpt><trkpt lat="37.8065703" lon="21.6781253"><ele>601.0</ele><time>2026-04-30T09:48:37.884Z</time></trkpt><trkpt lat="37.8066802" lon="21.6782728"><ele>601.0</ele><time>2026-04-30T09:48:38.883Z</time></trkpt><trkpt lat="37.8067877" lon="21.6784157"><ele>600.0</ele><time>2026-04-30T09:48:39.884Z</time></trkpt><trkpt lat="37.8068911" lon="21.6785603"><ele>599.0</ele><time>2026-04-30T09:48:40.884Z</time></trkpt><trkpt lat="37.806983" lon="21.6787078"><ele>598.0</ele><time>2026-04-30T09:48:41.883Z</time></trkpt><trkpt lat="37.8070525" lon="21.6788666"><ele>597.0</ele><time>2026-04-30T09:48:42.883Z</time></trkpt><trkpt lat="37.8071189" lon="21.6790298"><ele>597.0</ele><time>2026-04-30T09:48:43.883Z</time></trkpt><trkpt lat="37.8071761" lon="21.6792016"><ele>597.0</ele><time>2026-04-30T09:48:44.884Z</time></trkpt><trkpt lat="37.8072337" lon="21.679379"><ele>597.0</ele><time>2026-04-30T09:48:45.883Z</time></trkpt><trkpt lat="37.8072976" lon="21.679553"><ele>596.6666666666666</ele><time>2026-04-30T09:48:46.884Z</time></trkpt><trkpt lat="37.8073809" lon="21.6797409"><ele>596.3333333333333</ele><time>2026-04-30T09:48:47.884Z</time></trkpt><trkpt lat="37.8074811" lon="21.679925"><ele>596.0</ele><time>2026-04-30T09:48:48.883Z</time></trkpt><trkpt lat="37.8075856" lon="21.6801068"><ele>595.6666666666666</ele><time>2026-04-30T09:48:49.884Z</time></trkpt><trkpt lat="37.8076949" lon="21.6803017"><ele>595.3333333333334</ele><time>2026-04-30T09:48:50.884Z</time></trkpt><trkpt lat="37.8078086" lon="21.6804996"><ele>595.0</ele><time>2026-04-30T09:48:51.883Z</time></trkpt><trkpt lat="37.8079178" lon="21.6806877"><ele>595.0</ele><time>2026-04-30T09:48:52.883Z</time></trkpt><trkpt lat="37.8080265" lon="21.6808693"><ele>595.0</ele><time>2026-04-30T09:48:53.884Z</time></trkpt><trkpt lat="37.8081347" lon="21.681035"><ele>595.0</ele><time>2026-04-30T09:48:54.884Z</time></trkpt><trkpt lat="37.8082591" lon="21.6811673"><ele>594.3333333333334</ele><time>2026-04-30T09:48:55.883Z</time></trkpt><trkpt lat="37.8084221" lon="21.6812633"><ele>593.6666666666666</ele><time>2026-04-30T09:48:56.884Z</time></trkpt><trkpt lat="37.808594" lon="21.6813426"><ele>593.0</ele><time>2026-04-30T09:48:57.883Z</time></trkpt><trkpt lat="37.8087789" lon="21.6814205"><ele>593.0</ele><time>2026-04-30T09:48:58.884Z</time></trkpt><trkpt lat="37.8089498" lon="21.6814965"><ele>593.0</ele><time>2026-04-30T09:48:59.883Z</time></trkpt><trkpt lat="37.8091213" lon="21.6815807"><ele>593.0</ele><time>2026-04-30T09:49:00.884Z</time></trkpt><trkpt lat="37.8092991" lon="21.6816779"><ele>593.3333333333333</ele><time>2026-04-30T09:49:01.883Z</time></trkpt><trkpt lat="37.8094704" lon="21.6818011"><ele>593.6666666666666</ele><time>2026-04-30T09:49:02.883Z</time></trkpt><trkpt lat="37.8096429" lon="21.6819318"><ele>594.0</ele><time>2026-04-30T09:49:03.884Z</time></trkpt><trkpt lat="37.8098263" lon="21.6820686"><ele>594.0</ele><time>2026-04-30T09:49:04.883Z</time></trkpt><trkpt lat="37.8100106" lon="21.6822107"><ele>594.0</ele><time>2026-04-30T09:49:05.884Z</time></trkpt><trkpt lat="37.8101906" lon="21.6823543"><ele>594.0</ele><time>2026-04-30T09:49:06.883Z</time></trkpt><trkpt lat="37.810362" lon="21.6824944"><ele>594.6666666666666</ele><time>2026-04-30T09:49:07.883Z</time></trkpt><trkpt lat="37.8105264" lon="21.6826322"><ele>595.3333333333333</ele><time>2026-04-30T09:49:08.883Z</time></trkpt><trkpt lat="37.8106868" lon="21.682767"><ele>596.0</ele><time>2026-04-30T09:49:09.884Z</time></trkpt><trkpt lat="37.8108453" lon="21.6828989"><ele>596.6666666666666</ele><time>2026-04-30T09:49:10.883Z</time></trkpt><trkpt lat="37.8109997" lon="21.6830368"><ele>597.3333333333334</ele><time>2026-04-30T09:49:11.883Z</time></trkpt><trkpt lat="37.8111545" lon="21.6831815"><ele>598.0</ele><time>2026-04-30T09:49:12.883Z</time></trkpt><trkpt lat="37.8113049" lon="21.6833385"><ele>598.0</ele><time>2026-04-30T09:49:13.883Z</time></trkpt><trkpt lat="37.8114531" lon="21.6834873"><ele>598.0</ele><time>2026-04-30T09:49:14.884Z</time></trkpt><trkpt lat="37.8115983" lon="21.6836295"><ele>598.0</ele><time>2026-04-30T09:49:15.884Z</time></trkpt><trkpt lat="37.8117359" lon="21.6837662"><ele>597.3333333333334</ele><time>2026-04-30T09:49:16.883Z</time></trkpt><trkpt lat="37.8118732" lon="21.6839046"><ele>596.6666666666666</ele><time>2026-04-30T09:49:17.884Z</time></trkpt><trkpt lat="37.8120063" lon="21.6840548"><ele>596.0</ele><time>2026-04-30T09:49:18.883Z</time></trkpt><trkpt lat="37.8121352" lon="21.6842118"><ele>596.0</ele><time>2026-04-30T09:49:19.883Z</time></trkpt><trkpt lat="37.8122734" lon="21.6843737"><ele>596.0</ele><time>2026-04-30T09:49:20.883Z</time></trkpt><trkpt lat="37.8124181" lon="21.6845155"><ele>596.0</ele><time>2026-04-30T09:49:21.884Z</time></trkpt><trkpt lat="37.8125679" lon="21.684652"><ele>595.0</ele><time>2026-04-30T09:49:22.883Z</time></trkpt><trkpt lat="37.8127234" lon="21.6847823"><ele>594.0</ele><time>2026-04-30T09:49:23.884Z</time></trkpt><trkpt lat="37.8128867" lon="21.6849042"><ele>593.0</ele><time>2026-04-30T09:49:24.883Z</time></trkpt><trkpt lat="37.8130483" lon="21.6850216"><ele>593.0</ele><time>2026-04-30T09:49:25.884Z</time></trkpt><trkpt lat="37.8132159" lon="21.685139"><ele>593.0</ele><time>2026-04-30T09:49:26.884Z</time></trkpt><trkpt lat="37.813388" lon="21.6852458"><ele>593.0</ele><time>2026-04-30T09:49:27.884Z</time></trkpt><trkpt lat="37.8135699" lon="21.6853451"><ele>593.3333333333333</ele><time>2026-04-30T09:49:28.884Z</time></trkpt><trkpt lat="37.8137503" lon="21.6854437"><ele>593.6666666666666</ele><time>2026-04-30T09:49:29.884Z</time></trkpt><trkpt lat="37.8139376" lon="21.6855307"><ele>594.0</ele><time>2026-04-30T09:49:30.884Z</time></trkpt><trkpt lat="37.8141333" lon="21.685613"><ele>594.0</ele><time>2026-04-30T09:49:31.884Z</time></trkpt><trkpt lat="37.8143131" lon="21.6856906"><ele>594.0</ele><time>2026-04-30T09:49:32.884Z</time></trkpt><trkpt lat="37.8144772" lon="21.6857705"><ele>594.0</ele><time>2026-04-30T09:49:33.884Z</time></trkpt><trkpt lat="37.8146354" lon="21.6858535"><ele>594.6666666666666</ele><time>2026-04-30T09:49:34.883Z</time></trkpt><trkpt lat="37.8147864" lon="21.6859528"><ele>595.3333333333333</ele><time>2026-04-30T09:49:35.883Z</time></trkpt><trkpt lat="37.8149262" lon="21.6860803"><ele>596.0</ele><time>2026-04-30T09:49:36.884Z</time></trkpt><trkpt lat="37.8150601" lon="21.6862183"><ele>595.6666666666666</ele><time>2026-04-30T09:49:37.883Z</time></trkpt><trkpt lat="37.8152085" lon="21.6863328"><ele>595.3333333333334</ele><time>2026-04-30T09:49:38.883Z</time></trkpt><trkpt lat="37.8153682" lon="21.6864393"><ele>595.0</ele><time>2026-04-30T09:49:39.884Z</time></trkpt><trkpt lat="37.8155246" lon="21.6865322"><ele>595.0</ele><time>2026-04-30T09:49:40.883Z</time></trkpt><trkpt lat="37.8156901" lon="21.6866168"><ele>595.0</ele><time>2026-04-30T09:49:41.883Z</time></trkpt><trkpt lat="37.8158601" lon="21.6867012"><ele>595.0</ele><time>2026-04-30T09:49:42.884Z</time></trkpt><trkpt lat="37.8160383" lon="21.686778"><ele>594.6666666666667</ele><time>2026-04-30T09:49:43.883Z</time></trkpt><trkpt lat="37.8162129" lon="21.6868481"><ele>594.3333333333334</ele><time>2026-04-30T09:49:44.884Z</time></trkpt><trkpt lat="37.8163961" lon="21.6869032"><ele>594.0</ele><time>2026-04-30T09:49:45.883Z</time></trkpt><trkpt lat="37.8165512" lon="21.6869543"><ele>594.5</ele><time>2026-04-30T09:49:46.883Z</time></trkpt><trkpt lat="37.8166918" lon="21.6869975"><ele>595.0</ele><time>2026-04-30T09:49:47.884Z</time></trkpt><trkpt lat="37.8168181" lon="21.6870556"><ele>595.5</ele><time>2026-04-30T09:49:48.884Z</time></trkpt><trkpt lat="37.8169203" lon="21.6871387"><ele>596.0</ele><time>2026-04-30T09:49:49.884Z</time></trkpt><trkpt lat="37.8170061" lon="21.6872422"><ele>595.5</ele><time>2026-04-30T09:49:50.884Z</time></trkpt><trkpt lat="37.8170891" lon="21.6873546"><ele>595.0</ele><time>2026-04-30T09:49:51.884Z</time></trkpt><trkpt lat="37.8171809" lon="21.6874899"><ele>594.5</ele><time>2026-04-30T09:49:52.883Z</time></trkpt><trkpt lat="37.8172819" lon="21.6876599"><ele>594.0</ele><time>2026-04-30T09:49:53.884Z</time></trkpt><trkpt lat="37.8173902" lon="21.6878419"><ele>594.0</ele><time>2026-04-30T09:49:54.884Z</time></trkpt><trkpt lat="37.8175098" lon="21.688015"><ele>594.0</ele><time>2026-04-30T09:49:55.884Z</time></trkpt><trkpt lat="37.8176333" lon="21.6881618"><ele>594.0</ele><time>2026-04-30T09:49:56.883Z</time></trkpt><trkpt lat="37.8177574" lon="21.688319"><ele>593.6666666666666</ele><time>2026-04-30T09:49:57.883Z</time></trkpt><trkpt lat="37.817893" lon="21.6884586"><ele>593.3333333333333</ele><time>2026-04-30T09:49:58.884Z</time></trkpt><trkpt lat="37.8180126" lon="21.6886052"><ele>593.0</ele><time>2026-04-30T09:49:59.884Z</time></trkpt><trkpt lat="37.8181297" lon="21.6887543"><ele>593.0</ele><time>2026-04-30T09:50:00.884Z</time></trkpt><trkpt lat="37.818245" lon="21.6889003"><ele>593.0</ele><time>2026-04-30T09:50:01.884Z</time></trkpt><trkpt lat="37.8183601" lon="21.6890455"><ele>593.0</ele><time>2026-04-30T09:50:02.884Z</time></trkpt><trkpt lat="37.8184685" lon="21.6891936"><ele>592.6666666666666</ele><time>2026-04-30T09:50:03.884Z</time></trkpt><trkpt lat="37.8185798" lon="21.6893405"><ele>592.3333333333334</ele><time>2026-04-30T09:50:04.884Z</time></trkpt><trkpt lat="37.8186938" lon="21.6894693"><ele>592.0</ele><time>2026-04-30T09:50:05.884Z</time></trkpt><trkpt lat="37.8187983" lon="21.6896059"><ele>592.0</ele><time>2026-04-30T09:50:06.884Z</time></trkpt><trkpt lat="37.8189009" lon="21.6897405"><ele>592.0</ele><time>2026-04-30T09:50:07.884Z</time></trkpt><trkpt lat="37.8190026" lon="21.6898711"><ele>592.0</ele><time>2026-04-30T09:50:08.883Z</time></trkpt><trkpt lat="37.8191024" lon="21.6900024"><ele>592.0</ele><time>2026-04-30T09:50:09.883Z</time></trkpt><trkpt lat="37.8192078" lon="21.6901261"><ele>592.0</ele><time>2026-04-30T09:50:10.883Z</time></trkpt><trkpt lat="37.8193076" lon="21.6902406"><ele>592.0</ele><time>2026-04-30T09:50:11.883Z</time></trkpt><trkpt lat="37.8193968" lon="21.6903524"><ele>592.0</ele><time>2026-04-30T09:50:12.884Z</time></trkpt><trkpt lat="37.8194883" lon="21.6904607"><ele>592.0</ele><time>2026-04-30T09:50:13.883Z</time></trkpt><trkpt lat="37.8195747" lon="21.6905706"><ele>591.75</ele><time>2026-04-30T09:50:14.884Z</time></trkpt><trkpt lat="37.8196589" lon="21.6906927"><ele>591.5</ele><time>2026-04-30T09:50:15.884Z</time></trkpt><trkpt lat="37.8197291" lon="21.690807"><ele>591.25</ele><time>2026-04-30T09:50:16.884Z</time></trkpt><trkpt lat="37.8197908" lon="21.6909172"><ele>591.0</ele><time>2026-04-30T09:50:17.884Z</time></trkpt><trkpt lat="37.8198443" lon="21.6910349"><ele>591.3333333333334</ele><time>2026-04-30T09:50:18.883Z</time></trkpt><trkpt lat="37.819889" lon="21.6911412"><ele>591.6666666666666</ele><time>2026-04-30T09:50:19.884Z</time></trkpt><trkpt lat="37.8199241" lon="21.6912398"><ele>592.0</ele><time>2026-04-30T09:50:20.884Z</time></trkpt><trkpt lat="37.8199513" lon="21.6913404"><ele>592.3333333333333</ele><time>2026-04-30T09:50:21.883Z</time></trkpt><trkpt lat="37.8199721" lon="21.6914364"><ele>592.6666666666666</ele><time>2026-04-30T09:50:22.883Z</time></trkpt><trkpt lat="37.8199905" lon="21.6915138"><ele>593.0</ele><time>2026-04-30T09:50:23.884Z</time></trkpt><trkpt lat="37.8200464" lon="21.6915914"><ele>593.0</ele><time>2026-04-30T09:50:25.883Z</time></trkpt><trkpt lat="37.8201117" lon="21.6915735"><ele>593.0</ele><time>2026-04-30T09:50:27.883Z</time></trkpt><trkpt lat="37.8201966" lon="21.6914351"><ele>593.0</ele><time>2026-04-30T09:50:29.883Z</time></trkpt><trkpt lat="37.8202538" lon="21.6913504"><ele>593.0</ele><time>2026-04-30T09:50:30.883Z</time></trkpt><trkpt lat="37.8203198" lon="21.6912675"><ele>593.0</ele><time>2026-04-30T09:50:31.883Z</time></trkpt><trkpt lat="37.8203945" lon="21.6911666"><ele>592.25</ele><time>2026-04-30T09:50:32.884Z</time></trkpt><trkpt lat="37.8204776" lon="21.6910544"><ele>591.5</ele><time>2026-04-30T09:50:33.883Z</time></trkpt><trkpt lat="37.8205592" lon="21.690943"><ele>590.75</ele><time>2026-04-30T09:50:34.883Z</time></trkpt><trkpt lat="37.8206424" lon="21.690832"><ele>590.0</ele><time>2026-04-30T09:50:35.883Z</time></trkpt><trkpt lat="37.8207301" lon="21.690719"><ele>590.0</ele><time>2026-04-30T09:50:36.883Z</time></trkpt><trkpt lat="37.8208362" lon="21.6905973"><ele>590.0</ele><time>2026-04-30T09:50:37.883Z</time></trkpt><trkpt lat="37.8209342" lon="21.6904646"><ele>590.0</ele><time>2026-04-30T09:50:38.883Z</time></trkpt><trkpt lat="37.8210436" lon="21.6903345"><ele>590.0</ele><time>2026-04-30T09:50:39.884Z</time></trkpt><trkpt lat="37.8211592" lon="21.6901957"><ele>589.0</ele><time>2026-04-30T09:50:40.883Z</time></trkpt><trkpt lat="37.8212705" lon="21.6900528"><ele>588.0</ele><time>2026-04-30T09:50:41.884Z</time></trkpt><trkpt lat="37.8213879" lon="21.689909"><ele>587.0</ele><time>2026-04-30T09:50:42.883Z</time></trkpt><trkpt lat="37.821501" lon="21.689737"><ele>587.0</ele><time>2026-04-30T09:50:43.884Z</time></trkpt><trkpt lat="37.8216179" lon="21.6895745"><ele>587.0</ele><time>2026-04-30T09:50:44.884Z</time></trkpt><trkpt lat="37.8217345" lon="21.6894053"><ele>587.0</ele><time>2026-04-30T09:50:45.884Z</time></trkpt><trkpt lat="37.8218453" lon="21.6892221"><ele>587.0</ele><time>2026-04-30T09:50:46.883Z</time></trkpt><trkpt lat="37.8219516" lon="21.6890247"><ele>587.0</ele><time>2026-04-30T09:50:47.884Z</time></trkpt><trkpt lat="37.822046" lon="21.6888181"><ele>587.0</ele><time>2026-04-30T09:50:48.884Z</time></trkpt><trkpt lat="37.8221292" lon="21.6886045"><ele>586.3333333333333</ele><time>2026-04-30T09:50:49.884Z</time></trkpt><trkpt lat="37.8222024" lon="21.6883817"><ele>585.6666666666666</ele><time>2026-04-30T09:50:50.884Z</time></trkpt><trkpt lat="37.8222625" lon="21.6881543"><ele>585.0</ele><time>2026-04-30T09:50:51.884Z</time></trkpt><trkpt lat="37.822315" lon="21.6879238"><ele>586.0</ele><time>2026-04-30T09:50:52.884Z</time></trkpt><trkpt lat="37.8223681" lon="21.6877129"><ele>587.0</ele><time>2026-04-30T09:50:53.884Z</time></trkpt><trkpt lat="37.8224166" lon="21.6875082"><ele>588.0</ele><time>2026-04-30T09:50:54.884Z</time></trkpt><trkpt lat="37.8224721" lon="21.6872968"><ele>588.0</ele><time>2026-04-30T09:50:55.884Z</time></trkpt><trkpt lat="37.8225144" lon="21.6871031"><ele>588.0</ele><time>2026-04-30T09:50:56.884Z</time></trkpt><trkpt lat="37.8225623" lon="21.6869031"><ele>588.0</ele><time>2026-04-30T09:50:57.883Z</time></trkpt><trkpt lat="37.8226134" lon="21.6867039"><ele>587.0</ele><time>2026-04-30T09:50:58.884Z</time></trkpt><trkpt lat="37.8226636" lon="21.6865016"><ele>586.0</ele><time>2026-04-30T09:50:59.884Z</time></trkpt><trkpt lat="37.8227148" lon="21.6863"><ele>585.0</ele><time>2026-04-30T09:51:00.884Z</time></trkpt><trkpt lat="37.8227699" lon="21.686095"><ele>584.0</ele><time>2026-04-30T09:51:01.884Z</time></trkpt><trkpt lat="37.8228306" lon="21.6858931"><ele>583.0</ele><time>2026-04-30T09:51:02.883Z</time></trkpt><trkpt lat="37.8228922" lon="21.6856782"><ele>582.0</ele><time>2026-04-30T09:51:03.884Z</time></trkpt><trkpt lat="37.8229493" lon="21.6854564"><ele>582.6666666666666</ele><time>2026-04-30T09:51:04.884Z</time></trkpt><trkpt lat="37.8229944" lon="21.6852349"><ele>583.3333333333333</ele><time>2026-04-30T09:51:05.884Z</time></trkpt><trkpt lat="37.823052" lon="21.685012"><ele>584.0</ele><time>2026-04-30T09:51:06.883Z</time></trkpt><trkpt lat="37.8231133" lon="21.6847936"><ele>584.0</ele><time>2026-04-30T09:51:07.884Z</time></trkpt><trkpt lat="37.8231732" lon="21.6845692"><ele>584.0</ele><time>2026-04-30T09:51:08.884Z</time></trkpt><trkpt lat="37.8232335" lon="21.6843569"><ele>584.0</ele><time>2026-04-30T09:51:09.884Z</time></trkpt><trkpt lat="37.8232919" lon="21.6841344"><ele>584.3333333333333</ele><time>2026-04-30T09:51:10.884Z</time></trkpt><trkpt lat="37.8233423" lon="21.683915"><ele>584.6666666666666</ele><time>2026-04-30T09:51:11.883Z</time></trkpt><trkpt lat="37.8233857" lon="21.6836907"><ele>585.0</ele><time>2026-04-30T09:51:12.884Z</time></trkpt><trkpt lat="37.8234389" lon="21.6834616"><ele>582.3333333333334</ele><time>2026-04-30T09:51:13.883Z</time></trkpt><trkpt lat="37.8234986" lon="21.6832366"><ele>579.6666666666667</ele><time>2026-04-30T09:51:14.883Z</time></trkpt><trkpt lat="37.8235549" lon="21.6830032"><ele>577.0</ele><time>2026-04-30T09:51:15.883Z</time></trkpt><trkpt lat="37.8236167" lon="21.6827786"><ele>578.0</ele><time>2026-04-30T09:51:16.883Z</time></trkpt><trkpt lat="37.8236661" lon="21.6825468"><ele>579.0</ele><time>2026-04-30T09:51:17.883Z</time></trkpt><trkpt lat="37.823726" lon="21.682315"><ele>580.0</ele><time>2026-04-30T09:51:18.883Z</time></trkpt><trkpt lat="37.8237833" lon="21.6820901"><ele>579.6666666666667</ele><time>2026-04-30T09:51:19.883Z</time></trkpt><trkpt lat="37.8238329" lon="21.6818633"><ele>579.3333333333334</ele><time>2026-04-30T09:51:20.884Z</time></trkpt><trkpt lat="37.8238891" lon="21.6816433"><ele>579.0</ele><time>2026-04-30T09:51:21.883Z</time></trkpt><trkpt lat="37.8239488" lon="21.6814228"><ele>579.0</ele><time>2026-04-30T09:51:22.884Z</time></trkpt><trkpt lat="37.8240137" lon="21.6812044"><ele>579.0</ele><time>2026-04-30T09:51:23.884Z</time></trkpt><trkpt lat="37.8240691" lon="21.6809802"><ele>579.0</ele><time>2026-04-30T09:51:24.884Z</time></trkpt><trkpt lat="37.8241251" lon="21.6807578"><ele>578.6666666666666</ele><time>2026-04-30T09:51:25.883Z</time></trkpt><trkpt lat="37.8241895" lon="21.6805313"><ele>578.3333333333333</ele><time>2026-04-30T09:51:26.883Z</time></trkpt><trkpt lat="37.824244" lon="21.6803099"><ele>578.0</ele><time>2026-04-30T09:51:27.884Z</time></trkpt><trkpt lat="37.8243" lon="21.6800812"><ele>575.6666666666666</ele><time>2026-04-30T09:51:28.883Z</time></trkpt><trkpt lat="37.8243605" lon="21.6798511"><ele>573.3333333333334</ele><time>2026-04-30T09:51:29.884Z</time></trkpt><trkpt lat="37.8244224" lon="21.6796213"><ele>571.0</ele><time>2026-04-30T09:51:30.884Z</time></trkpt><trkpt lat="37.8244876" lon="21.6793746"><ele>570.3333333333334</ele><time>2026-04-30T09:51:31.883Z</time></trkpt><trkpt lat="37.8245386" lon="21.6791264"><ele>569.6666666666666</ele><time>2026-04-30T09:51:32.883Z</time></trkpt><trkpt lat="37.8246012" lon="21.6788801"><ele>569.0</ele><time>2026-04-30T09:51:33.883Z</time></trkpt><trkpt lat="37.824679" lon="21.678624"><ele>569.0</ele><time>2026-04-30T09:51:34.883Z</time></trkpt><trkpt lat="37.824756" lon="21.6783764"><ele>569.0</ele><time>2026-04-30T09:51:35.884Z</time></trkpt><trkpt lat="37.8248477" lon="21.6781281"><ele>569.0</ele><time>2026-04-30T09:51:36.884Z</time></trkpt><trkpt lat="37.8249461" lon="21.6778811"><ele>570.0</ele><time>2026-04-30T09:51:37.883Z</time></trkpt><trkpt lat="37.8250467" lon="21.6776222"><ele>571.0</ele><time>2026-04-30T09:51:38.883Z</time></trkpt><trkpt lat="37.8251577" lon="21.677382"><ele>572.0</ele><time>2026-04-30T09:51:39.883Z</time></trkpt><trkpt lat="37.8252727" lon="21.6771565"><ele>571.6666666666666</ele><time>2026-04-30T09:51:40.884Z</time></trkpt><trkpt lat="37.825399" lon="21.6769343"><ele>571.3333333333334</ele><time>2026-04-30T09:51:41.884Z</time></trkpt><trkpt lat="37.8255352" lon="21.6767214"><ele>571.0</ele><time>2026-04-30T09:51:42.883Z</time></trkpt><trkpt lat="37.8256887" lon="21.6765151"><ele>571.0</ele><time>2026-04-30T09:51:43.884Z</time></trkpt><trkpt lat="37.8258466" lon="21.6763067"><ele>571.0</ele><time>2026-04-30T09:51:44.883Z</time></trkpt><trkpt lat="37.8260086" lon="21.6761014"><ele>571.5</ele><time>2026-04-30T09:51:45.883Z</time></trkpt><trkpt lat="37.8261823" lon="21.6758881"><ele>572.0</ele><time>2026-04-30T09:51:46.883Z</time></trkpt><trkpt lat="37.8263542" lon="21.6756783"><ele>572.0</ele><time>2026-04-30T09:51:47.884Z</time></trkpt><trkpt lat="37.8265347" lon="21.6754682"><ele>572.0</ele><time>2026-04-30T09:51:48.883Z</time></trkpt><trkpt lat="37.8267021" lon="21.6752708"><ele>572.5</ele><time>2026-04-30T09:51:49.884Z</time></trkpt><trkpt lat="37.8268686" lon="21.6750724"><ele>573.0</ele><time>2026-04-30T09:51:50.884Z</time></trkpt><trkpt lat="37.8270309" lon="21.6748745"><ele>573.0</ele><time>2026-04-30T09:51:51.884Z</time></trkpt><trkpt lat="37.8271942" lon="21.6746801"><ele>573.0</ele><time>2026-04-30T09:51:52.883Z</time></trkpt><trkpt lat="37.8273633" lon="21.6744685"><ele>572.0</ele><time>2026-04-30T09:51:53.884Z</time></trkpt><trkpt lat="37.8275483" lon="21.6742471"><ele>571.0</ele><time>2026-04-30T09:51:54.884Z</time></trkpt><trkpt lat="37.8277364" lon="21.6740106"><ele>568.5</ele><time>2026-04-30T09:51:55.883Z</time></trkpt><trkpt lat="37.8279319" lon="21.6737672"><ele>566.0</ele><time>2026-04-30T09:51:56.884Z</time></trkpt><trkpt lat="37.8281364" lon="21.6735201"><ele>566.0</ele><time>2026-04-30T09:51:57.884Z</time></trkpt><trkpt lat="37.8283476" lon="21.6732811"><ele>566.0</ele><time>2026-04-30T09:51:58.884Z</time></trkpt><trkpt lat="37.8285537" lon="21.6730513"><ele>563.0</ele><time>2026-04-30T09:51:59.884Z</time></trkpt><trkpt lat="37.8287545" lon="21.6728358"><ele>560.0</ele><time>2026-04-30T09:52:00.884Z</time></trkpt><trkpt lat="37.8289436" lon="21.6726207"><ele>560.0</ele><time>2026-04-30T09:52:01.883Z</time></trkpt><trkpt lat="37.8291233" lon="21.6724132"><ele>560.0</ele><time>2026-04-30T09:52:02.884Z</time></trkpt><trkpt lat="37.8292924" lon="21.6722144"><ele>559.0</ele><time>2026-04-30T09:52:03.884Z</time></trkpt><trkpt lat="37.8294567" lon="21.6720235"><ele>558.0</ele><time>2026-04-30T09:52:04.884Z</time></trkpt><trkpt lat="37.8296071" lon="21.6718332"><ele>557.0</ele><time>2026-04-30T09:52:05.883Z</time></trkpt><trkpt lat="37.8297545" lon="21.67166"><ele>557.0</ele><time>2026-04-30T09:52:06.883Z</time></trkpt><trkpt lat="37.8298992" lon="21.6714938"><ele>557.0</ele><time>2026-04-30T09:52:07.883Z</time></trkpt><trkpt lat="37.830041" lon="21.6713291"><ele>557.0</ele><time>2026-04-30T09:52:08.883Z</time></trkpt><trkpt lat="37.8301838" lon="21.671163"><ele>555.0</ele><time>2026-04-30T09:52:09.883Z</time></trkpt><trkpt lat="37.8303271" lon="21.6710171"><ele>553.0</ele><time>2026-04-30T09:52:10.884Z</time></trkpt><trkpt lat="37.8304814" lon="21.6708876"><ele>551.0</ele><time>2026-04-30T09:52:11.884Z</time></trkpt><trkpt lat="37.8306443" lon="21.6707876"><ele>551.0</ele><time>2026-04-30T09:52:12.884Z</time></trkpt><trkpt lat="37.8308221" lon="21.670708"><ele>551.0</ele><time>2026-04-30T09:52:13.884Z</time></trkpt><trkpt lat="37.8310123" lon="21.6706579"><ele>551.0</ele><time>2026-04-30T09:52:14.883Z</time></trkpt><trkpt lat="37.8312248" lon="21.6706444"><ele>548.6666666666666</ele><time>2026-04-30T09:52:15.883Z</time></trkpt><trkpt lat="37.8314415" lon="21.6706347"><ele>546.3333333333334</ele><time>2026-04-30T09:52:16.883Z</time></trkpt><trkpt lat="37.8316596" lon="21.6706244"><ele>544.0</ele><time>2026-04-30T09:52:17.884Z</time></trkpt><trkpt lat="37.8318773" lon="21.670611"><ele>544.0</ele><time>2026-04-30T09:52:18.884Z</time></trkpt><trkpt lat="37.8320904" lon="21.6705956"><ele>544.0</ele><time>2026-04-30T09:52:19.883Z</time></trkpt><trkpt lat="37.832302" lon="21.6705766"><ele>544.0</ele><time>2026-04-30T09:52:20.884Z</time></trkpt><trkpt lat="37.8325182" lon="21.6705362"><ele>542.6666666666667</ele><time>2026-04-30T09:52:21.884Z</time></trkpt><trkpt lat="37.8327274" lon="21.6704685"><ele>541.3333333333334</ele><time>2026-04-30T09:52:22.883Z</time></trkpt><trkpt lat="37.8329269" lon="21.6703883"><ele>540.0</ele><time>2026-04-30T09:52:23.884Z</time></trkpt><trkpt lat="37.8331297" lon="21.6702927"><ele>542.5</ele><time>2026-04-30T09:52:24.884Z</time></trkpt><trkpt lat="37.8333254" lon="21.6701664"><ele>545.0</ele><time>2026-04-30T09:52:25.883Z</time></trkpt><trkpt lat="37.833527" lon="21.6700218"><ele>545.5</ele><time>2026-04-30T09:52:26.884Z</time></trkpt><trkpt lat="37.8337209" lon="21.6698776"><ele>546.0</ele><time>2026-04-30T09:52:27.884Z</time></trkpt><trkpt lat="37.8339167" lon="21.669737"><ele>546.0</ele><time>2026-04-30T09:52:28.884Z</time></trkpt><trkpt lat="37.8341085" lon="21.6695931"><ele>546.0</ele><time>2026-04-30T09:52:29.884Z</time></trkpt><trkpt lat="37.8343092" lon="21.669447"><ele>547.0</ele><time>2026-04-30T09:52:30.884Z</time></trkpt><trkpt lat="37.8345099" lon="21.6692989"><ele>548.0</ele><time>2026-04-30T09:52:31.883Z</time></trkpt><trkpt lat="37.8347189" lon="21.6691278"><ele>548.0</ele><time>2026-04-30T09:52:32.884Z</time></trkpt><trkpt lat="37.8349271" lon="21.6689705"><ele>548.0</ele><time>2026-04-30T09:52:33.884Z</time></trkpt><trkpt lat="37.8351384" lon="21.6688047"><ele>547.5</ele><time>2026-04-30T09:52:34.884Z</time></trkpt><trkpt lat="37.8353559" lon="21.6686524"><ele>547.0</ele><time>2026-04-30T09:52:35.884Z</time></trkpt><trkpt lat="37.835571" lon="21.6684929"><ele>544.0</ele><time>2026-04-30T09:52:36.883Z</time></trkpt><trkpt lat="37.8357883" lon="21.6683304"><ele>541.0</ele><time>2026-04-30T09:52:37.884Z</time></trkpt><trkpt lat="37.8360071" lon="21.6681686"><ele>540.5</ele><time>2026-04-30T09:52:38.884Z</time></trkpt><trkpt lat="37.8362308" lon="21.6679991"><ele>540.0</ele><time>2026-04-30T09:52:39.883Z</time></trkpt><trkpt lat="37.8364572" lon="21.6678321"><ele>539.0</ele><time>2026-04-30T09:52:40.883Z</time></trkpt><trkpt lat="37.8366788" lon="21.667672"><ele>538.0</ele><time>2026-04-30T09:52:41.883Z</time></trkpt><trkpt lat="37.8368991" lon="21.6675094"><ele>534.5</ele><time>2026-04-30T09:52:42.884Z</time></trkpt><trkpt lat="37.8371154" lon="21.667349"><ele>531.0</ele><time>2026-04-30T09:52:43.883Z</time></trkpt><trkpt lat="37.83733" lon="21.667191"><ele>531.0</ele><time>2026-04-30T09:52:44.884Z</time></trkpt><trkpt lat="37.8375396" lon="21.667037"><ele>531.0</ele><time>2026-04-30T09:52:45.883Z</time></trkpt><trkpt lat="37.8377552" lon="21.6668813"><ele>532.0</ele><time>2026-04-30T09:52:46.883Z</time></trkpt><trkpt lat="37.8379758" lon="21.6667143"><ele>533.0</ele><time>2026-04-30T09:52:47.883Z</time></trkpt><trkpt lat="37.8381945" lon="21.6665516"><ele>533.0</ele><time>2026-04-30T09:52:48.884Z</time></trkpt><trkpt lat="37.8384114" lon="21.666393"><ele>533.0</ele><time>2026-04-30T09:52:49.884Z</time></trkpt><trkpt lat="37.8386313" lon="21.6662334"><ele>531.0</ele><time>2026-04-30T09:52:50.884Z</time></trkpt><trkpt lat="37.8388456" lon="21.666077"><ele>529.0</ele><time>2026-04-30T09:52:51.884Z</time></trkpt><trkpt lat="37.8390538" lon="21.665921"><ele>529.0</ele><time>2026-04-30T09:52:52.883Z</time></trkpt><trkpt lat="37.8392621" lon="21.6657701"><ele>529.0</ele><time>2026-04-30T09:52:53.884Z</time></trkpt><trkpt lat="37.8394534" lon="21.6656088"><ele>524.0</ele><time>2026-04-30T09:52:54.884Z</time></trkpt><trkpt lat="37.8396332" lon="21.6654303"><ele>519.0</ele><time>2026-04-30T09:52:55.884Z</time></trkpt><trkpt lat="37.8397901" lon="21.6652288"><ele>519.0</ele><time>2026-04-30T09:52:56.883Z</time></trkpt><trkpt lat="37.8399306" lon="21.6650082"><ele>519.0</ele><time>2026-04-30T09:52:57.884Z</time></trkpt><trkpt lat="37.8400569" lon="21.664764"><ele>508.0</ele><time>2026-04-30T09:52:58.884Z</time></trkpt><trkpt lat="37.8401667" lon="21.664504"><ele>497.0</ele><time>2026-04-30T09:52:59.884Z</time></trkpt><trkpt lat="37.8402573" lon="21.6642299"><ele>497.0</ele><time>2026-04-30T09:53:00.883Z</time></trkpt><trkpt lat="37.8403379" lon="21.6639803"><ele>497.0</ele><time>2026-04-30T09:53:01.884Z</time></trkpt><trkpt lat="37.8404036" lon="21.6637594"><ele>497.0</ele><time>2026-04-30T09:53:02.884Z</time></trkpt><trkpt lat="37.8404574" lon="21.6635643"><ele>503.5</ele><time>2026-04-30T09:53:03.884Z</time></trkpt><trkpt lat="37.8405097" lon="21.6633942"><ele>510.0</ele><time>2026-04-30T09:53:04.883Z</time></trkpt><trkpt lat="37.8405511" lon="21.6632177"><ele>516.5</ele><time>2026-04-30T09:53:05.884Z</time></trkpt><trkpt lat="37.8405897" lon="21.6630696"><ele>523.0</ele><time>2026-04-30T09:53:06.884Z</time></trkpt><trkpt lat="37.8406253" lon="21.6629327"><ele>523.0</ele><time>2026-04-30T09:53:07.884Z</time></trkpt><trkpt lat="37.840674" lon="21.6627918"><ele>523.0</ele><time>2026-04-30T09:53:08.884Z</time></trkpt><trkpt lat="37.8407372" lon="21.6626566"><ele>523.0</ele><time>2026-04-30T09:53:09.883Z</time></trkpt><trkpt lat="37.8407897" lon="21.6625077"><ele>523.0</ele><time>2026-04-30T09:53:10.883Z</time></trkpt><trkpt lat="37.8408309" lon="21.6623625"><ele>523.5</ele><time>2026-04-30T09:53:11.884Z</time></trkpt><trkpt lat="37.8408754" lon="21.6622212"><ele>524.0</ele><time>2026-04-30T09:53:12.883Z</time></trkpt><trkpt lat="37.8409173" lon="21.6620838"><ele>524.5</ele><time>2026-04-30T09:53:13.883Z</time></trkpt><trkpt lat="37.8409551" lon="21.6619492"><ele>525.0</ele><time>2026-04-30T09:53:14.883Z</time></trkpt><trkpt lat="37.8409852" lon="21.6617953"><ele>523.25</ele><time>2026-04-30T09:53:15.883Z</time></trkpt><trkpt lat="37.8410304" lon="21.6616545"><ele>521.5</ele><time>2026-04-30T09:53:16.883Z</time></trkpt><trkpt lat="37.8410752" lon="21.66151"><ele>519.75</ele><time>2026-04-30T09:53:17.884Z</time></trkpt><trkpt lat="37.8411181" lon="21.6613586"><ele>518.0</ele><time>2026-04-30T09:53:18.883Z</time></trkpt><trkpt lat="37.8411694" lon="21.6612081"><ele>519.3333333333333</ele><time>2026-04-30T09:53:19.884Z</time></trkpt><trkpt lat="37.8412207" lon="21.6610485"><ele>520.6666666666666</ele><time>2026-04-30T09:53:20.884Z</time></trkpt><trkpt lat="37.8412718" lon="21.6608722"><ele>522.0</ele><time>2026-04-30T09:53:21.883Z</time></trkpt><trkpt lat="37.8413226" lon="21.6606644"><ele>522.0</ele><time>2026-04-30T09:53:22.883Z</time></trkpt><trkpt lat="37.8413962" lon="21.6604561"><ele>522.0</ele><time>2026-04-30T09:53:23.883Z</time></trkpt><trkpt lat="37.8414646" lon="21.6602464"><ele>522.0</ele><time>2026-04-30T09:53:24.884Z</time></trkpt><trkpt lat="37.8415317" lon="21.6600344"><ele>522.3333333333334</ele><time>2026-04-30T09:53:25.883Z</time></trkpt><trkpt lat="37.8415982" lon="21.6598207"><ele>522.6666666666667</ele><time>2026-04-30T09:53:26.884Z</time></trkpt><trkpt lat="37.8416695" lon="21.6596019"><ele>523.0</ele><time>2026-04-30T09:53:27.883Z</time></trkpt><trkpt lat="37.84174" lon="21.6593805"><ele>520.0</ele><time>2026-04-30T09:53:28.884Z</time></trkpt><trkpt lat="37.8418178" lon="21.6591639"><ele>517.0</ele><time>2026-04-30T09:53:29.884Z</time></trkpt><trkpt lat="37.8419074" lon="21.6589597"><ele>514.0</ele><time>2026-04-30T09:53:30.884Z</time></trkpt><trkpt lat="37.8420076" lon="21.6587407"><ele>514.3333333333334</ele><time>2026-04-30T09:53:31.883Z</time></trkpt><trkpt lat="37.8421298" lon="21.6585403"><ele>514.6666666666666</ele><time>2026-04-30T09:53:32.884Z</time></trkpt><trkpt lat="37.8422741" lon="21.6583493"><ele>515.0</ele><time>2026-04-30T09:53:33.883Z</time></trkpt><trkpt lat="37.8424331" lon="21.658166"><ele>515.0</ele><time>2026-04-30T09:53:34.884Z</time></trkpt><trkpt lat="37.8426012" lon="21.657981"><ele>515.0</ele><time>2026-04-30T09:53:35.883Z</time></trkpt><trkpt lat="37.8427753" lon="21.6578031"><ele>515.0</ele><time>2026-04-30T09:53:36.883Z</time></trkpt><trkpt lat="37.8429534" lon="21.6576182"><ele>516.0</ele><time>2026-04-30T09:53:37.884Z</time></trkpt><trkpt lat="37.8431345" lon="21.6574385"><ele>517.0</ele><time>2026-04-30T09:53:38.884Z</time></trkpt><trkpt lat="37.8433158" lon="21.6572636"><ele>515.0</ele><time>2026-04-30T09:53:39.884Z</time></trkpt><trkpt lat="37.8434867" lon="21.6570712"><ele>513.0</ele><time>2026-04-30T09:53:40.883Z</time></trkpt><trkpt lat="37.8436665" lon="21.6568854"><ele>513.0</ele><time>2026-04-30T09:53:41.883Z</time></trkpt><trkpt lat="37.8438399" lon="21.6566972"><ele>513.0</ele><time>2026-04-30T09:53:42.883Z</time></trkpt><trkpt lat="37.8440121" lon="21.656521"><ele>513.0</ele><time>2026-04-30T09:53:43.884Z</time></trkpt><trkpt lat="37.8441794" lon="21.6563443"><ele>513.0</ele><time>2026-04-30T09:53:44.883Z</time></trkpt><trkpt lat="37.8443427" lon="21.65618"><ele>513.0</ele><time>2026-04-30T09:53:45.884Z</time></trkpt><trkpt lat="37.8444989" lon="21.65602"><ele>511.66666666666663</ele><time>2026-04-30T09:53:46.884Z</time></trkpt><trkpt lat="37.8446508" lon="21.6558684"><ele>510.3333333333333</ele><time>2026-04-30T09:53:47.884Z</time></trkpt><trkpt lat="37.844811" lon="21.6557265"><ele>509.0</ele><time>2026-04-30T09:53:48.883Z</time></trkpt><trkpt lat="37.844978" lon="21.6555879"><ele>506.66666666666663</ele><time>2026-04-30T09:53:49.883Z</time></trkpt><trkpt lat="37.8451523" lon="21.6554411"><ele>504.33333333333337</ele><time>2026-04-30T09:53:50.883Z</time></trkpt><trkpt lat="37.8453435" lon="21.6553034"><ele>502.0</ele><time>2026-04-30T09:53:51.884Z</time></trkpt><trkpt lat="37.8455415" lon="21.6551536"><ele>502.0</ele><time>2026-04-30T09:53:52.884Z</time></trkpt><trkpt lat="37.845742" lon="21.6550061"><ele>502.0</ele><time>2026-04-30T09:53:53.883Z</time></trkpt><trkpt lat="37.8459567" lon="21.6548576"><ele>496.5</ele><time>2026-04-30T09:53:54.884Z</time></trkpt><trkpt lat="37.8461708" lon="21.654712"><ele>491.0</ele><time>2026-04-30T09:53:55.884Z</time></trkpt><trkpt lat="37.8463866" lon="21.654576"><ele>492.5</ele><time>2026-04-30T09:53:56.884Z</time></trkpt><trkpt lat="37.8466058" lon="21.6544448"><ele>494.0</ele><time>2026-04-30T09:53:57.883Z</time></trkpt><trkpt lat="37.8468279" lon="21.6543324"><ele>494.0</ele><time>2026-04-30T09:53:58.884Z</time></trkpt><trkpt lat="37.8470569" lon="21.6542265"><ele>494.0</ele><time>2026-04-30T09:53:59.884Z</time></trkpt><trkpt lat="37.8472867" lon="21.6541146"><ele>494.0</ele><time>2026-04-30T09:54:00.883Z</time></trkpt><trkpt lat="37.8475113" lon="21.654007"><ele>494.0</ele><time>2026-04-30T09:54:01.884Z</time></trkpt><trkpt lat="37.8477327" lon="21.6538965"><ele>490.5</ele><time>2026-04-30T09:54:02.883Z</time></trkpt><trkpt lat="37.8479502" lon="21.6537894"><ele>487.0</ele><time>2026-04-30T09:54:03.883Z</time></trkpt><trkpt lat="37.8481627" lon="21.6536829"><ele>490.5</ele><time>2026-04-30T09:54:04.883Z</time></trkpt><trkpt lat="37.8483763" lon="21.6535785"><ele>494.0</ele><time>2026-04-30T09:54:05.884Z</time></trkpt><trkpt lat="37.8485886" lon="21.6534832"><ele>494.0</ele><time>2026-04-30T09:54:06.883Z</time></trkpt><trkpt lat="37.8487965" lon="21.6533839"><ele>494.0</ele><time>2026-04-30T09:54:07.884Z</time></trkpt><trkpt lat="37.848992" lon="21.6532541"><ele>494.0</ele><time>2026-04-30T09:54:08.883Z</time></trkpt><trkpt lat="37.8491894" lon="21.653158"><ele>491.0</ele><time>2026-04-30T09:54:09.884Z</time></trkpt><trkpt lat="37.8493758" lon="21.653045"><ele>488.0</ele><time>2026-04-30T09:54:10.884Z</time></trkpt><trkpt lat="37.8495528" lon="21.6529104"><ele>485.0</ele><time>2026-04-30T09:54:11.883Z</time></trkpt><trkpt lat="37.8497247" lon="21.652756"><ele>485.0</ele><time>2026-04-30T09:54:12.883Z</time></trkpt><trkpt lat="37.8498787" lon="21.6525728"><ele>485.0</ele><time>2026-04-30T09:54:13.884Z</time></trkpt><trkpt lat="37.8500224" lon="21.6523443"><ele>485.0</ele><time>2026-04-30T09:54:14.884Z</time></trkpt><trkpt lat="37.8501591" lon="21.6521151"><ele>482.3333333333333</ele><time>2026-04-30T09:54:15.883Z</time></trkpt><trkpt lat="37.8502871" lon="21.651898"><ele>479.66666666666663</ele><time>2026-04-30T09:54:16.883Z</time></trkpt><trkpt lat="37.850409" lon="21.6516905"><ele>477.0</ele><time>2026-04-30T09:54:17.883Z</time></trkpt><trkpt lat="37.8505344" lon="21.6515022"><ele>477.0</ele><time>2026-04-30T09:54:18.883Z</time></trkpt><trkpt lat="37.8506666" lon="21.6513342"><ele>477.0</ele><time>2026-04-30T09:54:19.884Z</time></trkpt><trkpt lat="37.8508099" lon="21.6511935"><ele>477.0</ele><time>2026-04-30T09:54:20.883Z</time></trkpt><trkpt lat="37.8509658" lon="21.6510967"><ele>480.0</ele><time>2026-04-30T09:54:21.884Z</time></trkpt><trkpt lat="37.8511432" lon="21.6510437"><ele>483.0</ele><time>2026-04-30T09:54:22.883Z</time></trkpt><trkpt lat="37.8513265" lon="21.6510097"><ele>486.0</ele><time>2026-04-30T09:54:23.884Z</time></trkpt><trkpt lat="37.851523" lon="21.6509981"><ele>486.0</ele><time>2026-04-30T09:54:24.884Z</time></trkpt><trkpt lat="37.8517125" lon="21.6509969"><ele>486.0</ele><time>2026-04-30T09:54:25.884Z</time></trkpt><trkpt lat="37.8519063" lon="21.6509999"><ele>486.0</ele><time>2026-04-30T09:54:26.883Z</time></trkpt><trkpt lat="37.852082" lon="21.6509649"><ele>484.66666666666663</ele><time>2026-04-30T09:54:27.884Z</time></trkpt><trkpt lat="37.8522486" lon="21.6509109"><ele>483.3333333333333</ele><time>2026-04-30T09:54:28.883Z</time></trkpt><trkpt lat="37.8524135" lon="21.6508405"><ele>482.0</ele><time>2026-04-30T09:54:29.883Z</time></trkpt><trkpt lat="37.8525728" lon="21.6507392"><ele>479.3333333333333</ele><time>2026-04-30T09:54:30.884Z</time></trkpt><trkpt lat="37.8527304" lon="21.6505993"><ele>476.66666666666663</ele><time>2026-04-30T09:54:31.884Z</time></trkpt><trkpt lat="37.8528969" lon="21.6504484"><ele>474.0</ele><time>2026-04-30T09:54:32.884Z</time></trkpt><trkpt lat="37.8530611" lon="21.6502903"><ele>474.0</ele><time>2026-04-30T09:54:33.884Z</time></trkpt><trkpt lat="37.8532382" lon="21.6501237"><ele>474.0</ele><time>2026-04-30T09:54:34.884Z</time></trkpt><trkpt lat="37.8534172" lon="21.6499569"><ele>474.0</ele><time>2026-04-30T09:54:35.883Z</time></trkpt><trkpt lat="37.8536044" lon="21.6497786"><ele>471.5</ele><time>2026-04-30T09:54:36.883Z</time></trkpt><trkpt lat="37.8537892" lon="21.6495921"><ele>469.0</ele><time>2026-04-30T09:54:37.884Z</time></trkpt><trkpt lat="37.8539715" lon="21.6494036"><ele>468.0</ele><time>2026-04-30T09:54:38.884Z</time></trkpt><trkpt lat="37.8541536" lon="21.6492262"><ele>467.0</ele><time>2026-04-30T09:54:39.884Z</time></trkpt><trkpt lat="37.8543404" lon="21.6490545"><ele>465.66666666666663</ele><time>2026-04-30T09:54:40.883Z</time></trkpt><trkpt lat="37.854513" lon="21.6488884"><ele>464.33333333333337</ele><time>2026-04-30T09:54:41.884Z</time></trkpt><trkpt lat="37.8546849" lon="21.6487369"><ele>463.0</ele><time>2026-04-30T09:54:42.884Z</time></trkpt><trkpt lat="37.8548543" lon="21.6486083"><ele>462.33333333333337</ele><time>2026-04-30T09:54:43.884Z</time></trkpt><trkpt lat="37.8550313" lon="21.6485084"><ele>461.66666666666663</ele><time>2026-04-30T09:54:44.883Z</time></trkpt><trkpt lat="37.8552273" lon="21.6484315"><ele>461.0</ele><time>2026-04-30T09:54:45.883Z</time></trkpt><trkpt lat="37.855438" lon="21.6483692"><ele>461.0</ele><time>2026-04-30T09:54:46.883Z</time></trkpt><trkpt lat="37.8556387" lon="21.6483153"><ele>461.0</ele><time>2026-04-30T09:54:47.884Z</time></trkpt><trkpt lat="37.8558327" lon="21.648238"><ele>461.0</ele><time>2026-04-30T09:54:48.883Z</time></trkpt><trkpt lat="37.8560269" lon="21.6481573"><ele>461.66666666666663</ele><time>2026-04-30T09:54:49.884Z</time></trkpt><trkpt lat="37.8562155" lon="21.6480789"><ele>462.33333333333337</ele><time>2026-04-30T09:54:50.883Z</time></trkpt><trkpt lat="37.8563975" lon="21.6480156"><ele>463.0</ele><time>2026-04-30T09:54:51.883Z</time></trkpt><trkpt lat="37.8565614" lon="21.6479403"><ele>463.0</ele><time>2026-04-30T09:54:52.884Z</time></trkpt><trkpt lat="37.8567024" lon="21.6478638"><ele>463.0</ele><time>2026-04-30T09:54:53.883Z</time></trkpt><trkpt lat="37.8568195" lon="21.6477662"><ele>463.0</ele><time>2026-04-30T09:54:54.883Z</time></trkpt><trkpt lat="37.8569121" lon="21.6476381"><ele>463.0</ele><time>2026-04-30T09:54:55.883Z</time></trkpt><trkpt lat="37.8569809" lon="21.6474902"><ele>461.75</ele><time>2026-04-30T09:54:56.884Z</time></trkpt><trkpt lat="37.8570353" lon="21.6473398"><ele>460.5</ele><time>2026-04-30T09:54:57.883Z</time></trkpt><trkpt lat="37.8570811" lon="21.647208"><ele>459.25</ele><time>2026-04-30T09:54:58.884Z</time></trkpt><trkpt lat="37.857157" lon="21.647106"><ele>458.0</ele><time>2026-04-30T09:54:59.884Z</time></trkpt><trkpt lat="37.8572516" lon="21.6470428"><ele>458.0</ele><time>2026-04-30T09:55:00.884Z</time></trkpt><trkpt lat="37.8573617" lon="21.6470244"><ele>458.0</ele><time>2026-04-30T09:55:01.883Z</time></trkpt><trkpt lat="37.8574714" lon="21.6470081"><ele>458.0</ele><time>2026-04-30T09:55:02.884Z</time></trkpt><trkpt lat="37.8575864" lon="21.6471524"><ele>458.0</ele><time>2026-04-30T09:55:03.884Z</time></trkpt><trkpt lat="37.8577098" lon="21.6472627"><ele>457.25</ele><time>2026-04-30T09:55:04.884Z</time></trkpt><trkpt lat="37.8578225" lon="21.6473758"><ele>456.5</ele><time>2026-04-30T09:55:05.884Z</time></trkpt><trkpt lat="37.8579308" lon="21.6474993"><ele>455.75</ele><time>2026-04-30T09:55:06.884Z</time></trkpt><trkpt lat="37.8580345" lon="21.647619"><ele>455.0</ele><time>2026-04-30T09:55:07.883Z</time></trkpt><trkpt lat="37.858103" lon="21.6477496"><ele>453.5</ele><time>2026-04-30T09:55:08.884Z</time></trkpt><trkpt lat="37.8581434" lon="21.6478848"><ele>452.0</ele><time>2026-04-30T09:55:09.884Z</time></trkpt><trkpt lat="37.8581638" lon="21.6480253"><ele>450.5</ele><time>2026-04-30T09:55:10.883Z</time></trkpt><trkpt lat="37.8581565" lon="21.6481603"><ele>449.0</ele><time>2026-04-30T09:55:11.884Z</time></trkpt><trkpt lat="37.8581022" lon="21.6482998"><ele>449.0</ele><time>2026-04-30T09:55:12.883Z</time></trkpt><trkpt lat="37.8580401" lon="21.6484201"><ele>449.0</ele><time>2026-04-30T09:55:13.883Z</time></trkpt><trkpt lat="37.8579282" lon="21.6485218"><ele>449.0</ele><time>2026-04-30T09:55:14.884Z</time></trkpt><trkpt lat="37.8578231" lon="21.6486362"><ele>449.0</ele><time>2026-04-30T09:55:15.884Z</time></trkpt><trkpt lat="37.8577232" lon="21.6487486"><ele>449.0</ele><time>2026-04-30T09:55:16.883Z</time></trkpt><trkpt lat="37.857623" lon="21.6488514"><ele>449.0</ele><time>2026-04-30T09:55:17.884Z</time></trkpt><trkpt lat="37.8575343" lon="21.6489554"><ele>449.0</ele><time>2026-04-30T09:55:18.884Z</time></trkpt><trkpt lat="37.8574557" lon="21.6490729"><ele>449.0</ele><time>2026-04-30T09:55:19.883Z</time></trkpt><trkpt lat="37.8573958" lon="21.6492025"><ele>449.0</ele><time>2026-04-30T09:55:20.884Z</time></trkpt><trkpt lat="37.857366" lon="21.6493444"><ele>449.0</ele><time>2026-04-30T09:55:21.883Z</time></trkpt><trkpt lat="37.8573642" lon="21.6494936"><ele>449.0</ele><time>2026-04-30T09:55:22.883Z</time></trkpt><trkpt lat="37.8573909" lon="21.6496363"><ele>449.0</ele><time>2026-04-30T09:55:23.883Z</time></trkpt><trkpt lat="37.857427" lon="21.6497633"><ele>448.75</ele><time>2026-04-30T09:55:24.884Z</time></trkpt><trkpt lat="37.8574686" lon="21.6498771"><ele>448.5</ele><time>2026-04-30T09:55:25.883Z</time></trkpt><trkpt lat="37.8575369" lon="21.6499761"><ele>448.25</ele><time>2026-04-30T09:55:26.883Z</time></trkpt><trkpt lat="37.8576337" lon="21.6500665"><ele>448.0</ele><time>2026-04-30T09:55:27.884Z</time></trkpt><trkpt lat="37.8577602" lon="21.6501474"><ele>448.0</ele><time>2026-04-30T09:55:28.883Z</time></trkpt><trkpt lat="37.8578809" lon="21.6502151"><ele>448.0</ele><time>2026-04-30T09:55:29.883Z</time></trkpt><trkpt lat="37.8580124" lon="21.6502747"><ele>448.0</ele><time>2026-04-30T09:55:30.883Z</time></trkpt><trkpt lat="37.8581697" lon="21.6503394"><ele>448.0</ele><time>2026-04-30T09:55:31.884Z</time></trkpt><trkpt lat="37.858329" lon="21.6504309"><ele>445.0</ele><time>2026-04-30T09:55:32.883Z</time></trkpt><trkpt lat="37.8584814" lon="21.6505111"><ele>442.0</ele><time>2026-04-30T09:55:33.884Z</time></trkpt><trkpt lat="37.8586332" lon="21.6505678"><ele>439.0</ele><time>2026-04-30T09:55:34.884Z</time></trkpt><trkpt lat="37.8587739" lon="21.6506004"><ele>439.0</ele><time>2026-04-30T09:55:35.883Z</time></trkpt><trkpt lat="37.8589139" lon="21.650589"><ele>439.0</ele><time>2026-04-30T09:55:36.884Z</time></trkpt><trkpt lat="37.8590651" lon="21.6505369"><ele>439.0</ele><time>2026-04-30T09:55:37.884Z</time></trkpt><trkpt lat="37.8592204" lon="21.6504653"><ele>440.6666666666667</ele><time>2026-04-30T09:55:38.883Z</time></trkpt><trkpt lat="37.8593845" lon="21.6503717"><ele>442.33333333333337</ele><time>2026-04-30T09:55:39.883Z</time></trkpt><trkpt lat="37.8595438" lon="21.6502783"><ele>444.0</ele><time>2026-04-30T09:55:40.883Z</time></trkpt><trkpt lat="37.8597008" lon="21.6501769"><ele>444.0</ele><time>2026-04-30T09:55:41.883Z</time></trkpt><trkpt lat="37.859859" lon="21.650073"><ele>444.0</ele><time>2026-04-30T09:55:42.884Z</time></trkpt><trkpt lat="37.8600213" lon="21.6499735"><ele>444.0</ele><time>2026-04-30T09:55:43.884Z</time></trkpt><trkpt lat="37.8601847" lon="21.6498676"><ele>440.33333333333337</ele><time>2026-04-30T09:55:44.883Z</time></trkpt><trkpt lat="37.8603475" lon="21.6497508"><ele>436.6666666666667</ele><time>2026-04-30T09:55:45.883Z</time></trkpt><trkpt lat="37.8605085" lon="21.6496189"><ele>433.0</ele><time>2026-04-30T09:55:46.883Z</time></trkpt><trkpt lat="37.8606716" lon="21.6494661"><ele>435.6666666666667</ele><time>2026-04-30T09:55:47.883Z</time></trkpt><trkpt lat="37.8608265" lon="21.6493129"><ele>438.33333333333337</ele><time>2026-04-30T09:55:48.884Z</time></trkpt><trkpt lat="37.8609881" lon="21.6491686"><ele>441.0</ele><time>2026-04-30T09:55:49.884Z</time></trkpt><trkpt lat="37.8611395" lon="21.649043"><ele>441.0</ele><time>2026-04-30T09:55:50.884Z</time></trkpt><trkpt lat="37.8612867" lon="21.6488999"><ele>441.0</ele><time>2026-04-30T09:55:51.884Z</time></trkpt><trkpt lat="37.8614193" lon="21.6487864"><ele>441.0</ele><time>2026-04-30T09:55:52.884Z</time></trkpt><trkpt lat="37.8615352" lon="21.6486686"><ele>443.0</ele><time>2026-04-30T09:55:53.884Z</time></trkpt><trkpt lat="37.8616239" lon="21.6485397"><ele>445.0</ele><time>2026-04-30T09:55:54.884Z</time></trkpt><trkpt lat="37.8616801" lon="21.6483804"><ele>447.0</ele><time>2026-04-30T09:55:55.884Z</time></trkpt><trkpt lat="37.8617156" lon="21.6482175"><ele>449.0</ele><time>2026-04-30T09:55:56.883Z</time></trkpt><trkpt lat="37.8617418" lon="21.6480388"><ele>449.0</ele><time>2026-04-30T09:55:57.883Z</time></trkpt><trkpt lat="37.8617658" lon="21.6478603"><ele>449.0</ele><time>2026-04-30T09:55:58.883Z</time></trkpt><trkpt lat="37.8617874" lon="21.6476917"><ele>449.0</ele><time>2026-04-30T09:55:59.884Z</time></trkpt><trkpt lat="37.8618098" lon="21.6475364"><ele>449.0</ele><time>2026-04-30T09:56:00.883Z</time></trkpt><trkpt lat="37.8618396" lon="21.6473919"><ele>448.75</ele><time>2026-04-30T09:56:01.884Z</time></trkpt><trkpt lat="37.861881" lon="21.647238"><ele>448.5</ele><time>2026-04-30T09:56:02.884Z</time></trkpt><trkpt lat="37.8619416" lon="21.6471109"><ele>448.25</ele><time>2026-04-30T09:56:03.883Z</time></trkpt><trkpt lat="37.8620311" lon="21.646954"><ele>448.0</ele><time>2026-04-30T09:56:04.884Z</time></trkpt><trkpt lat="37.8621344" lon="21.6468122"><ele>446.75</ele><time>2026-04-30T09:56:05.884Z</time></trkpt><trkpt lat="37.8622442" lon="21.6466858"><ele>445.5</ele><time>2026-04-30T09:56:06.884Z</time></trkpt><trkpt lat="37.8623611" lon="21.646587"><ele>444.25</ele><time>2026-04-30T09:56:07.883Z</time></trkpt><trkpt lat="37.8624902" lon="21.646505"><ele>443.0</ele><time>2026-04-30T09:56:08.884Z</time></trkpt><trkpt lat="37.8626066" lon="21.6464108"><ele>441.0</ele><time>2026-04-30T09:56:09.884Z</time></trkpt><trkpt lat="37.8627205" lon="21.6462816"><ele>439.0</ele><time>2026-04-30T09:56:10.884Z</time></trkpt><trkpt lat="37.8628262" lon="21.6461336"><ele>437.0</ele><time>2026-04-30T09:56:11.884Z</time></trkpt><trkpt lat="37.8629182" lon="21.6459998"><ele>437.0</ele><time>2026-04-30T09:56:12.883Z</time></trkpt><trkpt lat="37.8630006" lon="21.6458586"><ele>437.0</ele><time>2026-04-30T09:56:13.884Z</time></trkpt><trkpt lat="37.8630721" lon="21.6457114"><ele>437.0</ele><time>2026-04-30T09:56:14.884Z</time></trkpt><trkpt lat="37.8631157" lon="21.6455561"><ele>437.0</ele><time>2026-04-30T09:56:15.884Z</time></trkpt><trkpt lat="37.8631369" lon="21.6453878"><ele>436.25</ele><time>2026-04-30T09:56:16.883Z</time></trkpt><trkpt lat="37.8631481" lon="21.6452172"><ele>435.5</ele><time>2026-04-30T09:56:17.884Z</time></trkpt><trkpt lat="37.8631489" lon="21.6450562"><ele>434.75</ele><time>2026-04-30T09:56:18.883Z</time></trkpt><trkpt lat="37.8631589" lon="21.6448988"><ele>434.0</ele><time>2026-04-30T09:56:19.884Z</time></trkpt><trkpt lat="37.8631874" lon="21.6447686"><ele>434.0</ele><time>2026-04-30T09:56:20.884Z</time></trkpt><trkpt lat="37.8632232" lon="21.644654"><ele>434.0</ele><time>2026-04-30T09:56:21.884Z</time></trkpt><trkpt lat="37.863281" lon="21.6445705"><ele>434.0</ele><time>2026-04-30T09:56:22.883Z</time></trkpt><trkpt lat="37.8634146" lon="21.6445437"><ele>434.0</ele><time>2026-04-30T09:56:23.883Z</time></trkpt><trkpt lat="37.8635437" lon="21.6445227"><ele>432.5</ele><time>2026-04-30T09:56:24.884Z</time></trkpt><trkpt lat="37.8636374" lon="21.6444447"><ele>431.0</ele><time>2026-04-30T09:56:25.884Z</time></trkpt><trkpt lat="37.8637225" lon="21.6443335"><ele>429.5</ele><time>2026-04-30T09:56:26.884Z</time></trkpt><trkpt lat="37.8637886" lon="21.6442059"><ele>428.0</ele><time>2026-04-30T09:56:27.884Z</time></trkpt><trkpt lat="37.8638485" lon="21.6440637"><ele>428.0</ele><time>2026-04-30T09:56:28.883Z</time></trkpt><trkpt lat="37.8639268" lon="21.6439398"><ele>428.0</ele><time>2026-04-30T09:56:29.883Z</time></trkpt><trkpt lat="37.8640232" lon="21.6438457"><ele>428.0</ele><time>2026-04-30T09:56:30.883Z</time></trkpt><trkpt lat="37.8641511" lon="21.6437801"><ele>428.0</ele><time>2026-04-30T09:56:31.883Z</time></trkpt><trkpt lat="37.8642974" lon="21.6437478"><ele>426.66666666666663</ele><time>2026-04-30T09:56:32.883Z</time></trkpt><trkpt lat="37.8644538" lon="21.6437133"><ele>425.33333333333337</ele><time>2026-04-30T09:56:33.884Z</time></trkpt><trkpt lat="37.864593" lon="21.6436441"><ele>424.0</ele><time>2026-04-30T09:56:34.884Z</time></trkpt><trkpt lat="37.8647131" lon="21.6435354"><ele>423.5</ele><time>2026-04-30T09:56:35.884Z</time></trkpt><trkpt lat="37.8648195" lon="21.6433967"><ele>423.0</ele><time>2026-04-30T09:56:36.883Z</time></trkpt><trkpt lat="37.864921" lon="21.6432587"><ele>422.5</ele><time>2026-04-30T09:56:37.884Z</time></trkpt><trkpt lat="37.865018" lon="21.6431198"><ele>422.0</ele><time>2026-04-30T09:56:38.883Z</time></trkpt><trkpt lat="37.8651619" lon="21.6430437"><ele>422.0</ele><time>2026-04-30T09:56:39.884Z</time></trkpt><trkpt lat="37.8653188" lon="21.6429912"><ele>422.0</ele><time>2026-04-30T09:56:40.884Z</time></trkpt><trkpt lat="37.8654877" lon="21.6429461"><ele>422.0</ele><time>2026-04-30T09:56:41.884Z</time></trkpt><trkpt lat="37.8656583" lon="21.6428939"><ele>422.0</ele><time>2026-04-30T09:56:42.883Z</time></trkpt><trkpt lat="37.8658241" lon="21.6428321"><ele>422.0</ele><time>2026-04-30T09:56:43.884Z</time></trkpt><trkpt lat="37.8659758" lon="21.6427451"><ele>422.0</ele><time>2026-04-30T09:56:44.883Z</time></trkpt><trkpt lat="37.8661189" lon="21.6426616"><ele>413.25</ele><time>2026-04-30T09:56:45.884Z</time></trkpt><trkpt lat="37.8662626" lon="21.6425866"><ele>404.5</ele><time>2026-04-30T09:56:46.883Z</time></trkpt><trkpt lat="37.8664034" lon="21.6425395"><ele>395.75</ele><time>2026-04-30T09:56:47.883Z</time></trkpt><trkpt lat="37.8665291" lon="21.6425151"><ele>387.0</ele><time>2026-04-30T09:56:48.883Z</time></trkpt><trkpt lat="37.8666466" lon="21.642519"><ele>387.0</ele><time>2026-04-30T09:56:49.884Z</time></trkpt><trkpt lat="37.866765" lon="21.6425688"><ele>387.0</ele><time>2026-04-30T09:56:50.883Z</time></trkpt><trkpt lat="37.8668651" lon="21.6426756"><ele>387.0</ele><time>2026-04-30T09:56:51.883Z</time></trkpt><trkpt lat="37.8669466" lon="21.6427901"><ele>387.0</ele><time>2026-04-30T09:56:52.884Z</time></trkpt><trkpt lat="37.8669923" lon="21.6429129"><ele>381.25</ele><time>2026-04-30T09:56:53.883Z</time></trkpt><trkpt lat="37.8669637" lon="21.6431036"><ele>375.5</ele><time>2026-04-30T09:56:54.884Z</time></trkpt><trkpt lat="37.8669327" lon="21.6432696"><ele>369.75</ele><time>2026-04-30T09:56:55.883Z</time></trkpt><trkpt lat="37.8668676" lon="21.6434345"><ele>364.0</ele><time>2026-04-30T09:56:56.884Z</time></trkpt><trkpt lat="37.8667994" lon="21.6436151"><ele>369.3333333333333</ele><time>2026-04-30T09:56:57.884Z</time></trkpt><trkpt lat="37.8667245" lon="21.6438035"><ele>374.6666666666667</ele><time>2026-04-30T09:56:58.884Z</time></trkpt><trkpt lat="37.8666555" lon="21.6439895"><ele>380.0</ele><time>2026-04-30T09:56:59.883Z</time></trkpt><trkpt lat="37.866578" lon="21.6441556"><ele>380.0</ele><time>2026-04-30T09:57:00.884Z</time></trkpt><trkpt lat="37.8664937" lon="21.6443059"><ele>380.0</ele><time>2026-04-30T09:57:01.883Z</time></trkpt><trkpt lat="37.8663941" lon="21.6444395"><ele>380.0</ele><time>2026-04-30T09:57:02.883Z</time></trkpt><trkpt lat="37.8662925" lon="21.6445652"><ele>380.0</ele><time>2026-04-30T09:57:03.884Z</time></trkpt><trkpt lat="37.8661402" lon="21.6446326"><ele>379.25</ele><time>2026-04-30T09:57:04.884Z</time></trkpt><trkpt lat="37.8660186" lon="21.6447231"><ele>378.5</ele><time>2026-04-30T09:57:05.884Z</time></trkpt><trkpt lat="37.8658991" lon="21.6448211"><ele>377.75</ele><time>2026-04-30T09:57:06.883Z</time></trkpt><trkpt lat="37.8657859" lon="21.6449106"><ele>377.0</ele><time>2026-04-30T09:57:07.884Z</time></trkpt><trkpt lat="37.8657261" lon="21.6450141"><ele>377.0</ele><time>2026-04-30T09:57:08.884Z</time></trkpt><trkpt lat="37.8657201" lon="21.6451605"><ele>377.0</ele><time>2026-04-30T09:57:09.883Z</time></trkpt><trkpt lat="37.8657163" lon="21.6452925"><ele>377.0</ele><time>2026-04-30T09:57:10.883Z</time></trkpt><trkpt lat="37.8657509" lon="21.6454467"><ele>377.0</ele><time>2026-04-30T09:57:11.883Z</time></trkpt><trkpt lat="37.8657962" lon="21.6455984"><ele>378.25</ele><time>2026-04-30T09:57:12.883Z</time></trkpt><trkpt lat="37.8658412" lon="21.6457554"><ele>379.5</ele><time>2026-04-30T09:57:13.884Z</time></trkpt><trkpt lat="37.8658835" lon="21.6459229"><ele>380.75</ele><time>2026-04-30T09:57:14.884Z</time></trkpt><trkpt lat="37.8659326" lon="21.6460785"><ele>382.0</ele><time>2026-04-30T09:57:15.884Z</time></trkpt><trkpt lat="37.8659901" lon="21.6462183"><ele>382.0</ele><time>2026-04-30T09:57:16.883Z</time></trkpt><trkpt lat="37.866052" lon="21.6463283"><ele>382.0</ele><time>2026-04-30T09:57:17.884Z</time></trkpt><trkpt lat="37.8661262" lon="21.6464265"><ele>382.0</ele><time>2026-04-30T09:57:18.884Z</time></trkpt><trkpt lat="37.8662189" lon="21.6464705"><ele>382.0</ele><time>2026-04-30T09:57:19.883Z</time></trkpt><trkpt lat="37.8663084" lon="21.6465195"><ele>382.0</ele><time>2026-04-30T09:57:20.883Z</time></trkpt><trkpt lat="37.8664213" lon="21.6464572"><ele>382.0</ele><time>2026-04-30T09:57:21.884Z</time></trkpt><trkpt lat="37.8665324" lon="21.6463687"><ele>382.0</ele><time>2026-04-30T09:57:22.884Z</time></trkpt><trkpt lat="37.8666397" lon="21.6462698"><ele>382.0</ele><time>2026-04-30T09:57:23.883Z</time></trkpt><trkpt lat="37.866751" lon="21.6461569"><ele>382.0</ele><time>2026-04-30T09:57:24.884Z</time></trkpt><trkpt lat="37.8668665" lon="21.6460485"><ele>374.3333333333333</ele><time>2026-04-30T09:57:25.883Z</time></trkpt><trkpt lat="37.8669915" lon="21.6459453"><ele>366.6666666666667</ele><time>2026-04-30T09:57:26.884Z</time></trkpt><trkpt lat="37.8671233" lon="21.6458666"><ele>359.0</ele><time>2026-04-30T09:57:27.883Z</time></trkpt><trkpt lat="37.867279" lon="21.6458235"><ele>359.0</ele><time>2026-04-30T09:57:28.883Z</time></trkpt><trkpt lat="37.8674449" lon="21.6457797"><ele>359.0</ele><time>2026-04-30T09:57:29.884Z</time></trkpt><trkpt lat="37.8676135" lon="21.6457503"><ele>359.0</ele><time>2026-04-30T09:57:30.883Z</time></trkpt><trkpt lat="37.8677948" lon="21.6457091"><ele>358.33333333333337</ele><time>2026-04-30T09:57:31.883Z</time></trkpt><trkpt lat="37.8679599" lon="21.6456579"><ele>357.6666666666667</ele><time>2026-04-30T09:57:32.884Z</time></trkpt><trkpt lat="37.8681229" lon="21.6455914"><ele>357.0</ele><time>2026-04-30T09:57:33.883Z</time></trkpt><trkpt lat="37.8682699" lon="21.6455077"><ele>357.0</ele><time>2026-04-30T09:57:34.884Z</time></trkpt><trkpt lat="37.8684122" lon="21.6454107"><ele>357.0</ele><time>2026-04-30T09:57:35.884Z</time></trkpt><trkpt lat="37.8685472" lon="21.6453163"><ele>357.0</ele><time>2026-04-30T09:57:36.883Z</time></trkpt><trkpt lat="37.8686639" lon="21.6452525"><ele>357.0</ele><time>2026-04-30T09:57:37.883Z</time></trkpt><trkpt lat="37.8687837" lon="21.6452315"><ele>352.0</ele><time>2026-04-30T09:57:38.883Z</time></trkpt><trkpt lat="37.8688905" lon="21.6452742"><ele>347.0</ele><time>2026-04-30T09:57:39.883Z</time></trkpt><trkpt lat="37.868989" lon="21.645349"><ele>342.0</ele><time>2026-04-30T09:57:40.883Z</time></trkpt><trkpt lat="37.8690801" lon="21.6454471"><ele>337.0</ele><time>2026-04-30T09:57:41.884Z</time></trkpt><trkpt lat="37.8691332" lon="21.6455931"><ele>337.0</ele><time>2026-04-30T09:57:42.883Z</time></trkpt><trkpt lat="37.8692041" lon="21.6457112"><ele>337.0</ele><time>2026-04-30T09:57:43.883Z</time></trkpt><trkpt lat="37.8692926" lon="21.6458132"><ele>337.0</ele><time>2026-04-30T09:57:44.883Z</time></trkpt><trkpt lat="37.8693843" lon="21.6458718"><ele>337.0</ele><time>2026-04-30T09:57:45.883Z</time></trkpt><trkpt lat="37.8694915" lon="21.6458932"><ele>337.0</ele><time>2026-04-30T09:57:46.883Z</time></trkpt><trkpt lat="37.8695951" lon="21.6458807"><ele>334.75</ele><time>2026-04-30T09:57:47.884Z</time></trkpt><trkpt lat="37.8697107" lon="21.6458006"><ele>332.5</ele><time>2026-04-30T09:57:48.883Z</time></trkpt><trkpt lat="37.8698233" lon="21.6457114"><ele>330.25</ele><time>2026-04-30T09:57:49.884Z</time></trkpt><trkpt lat="37.869931" lon="21.6456008"><ele>328.0</ele><time>2026-04-30T09:57:50.884Z</time></trkpt><trkpt lat="37.8700423" lon="21.6454987"><ele>325.75</ele><time>2026-04-30T09:57:51.884Z</time></trkpt><trkpt lat="37.8701552" lon="21.6454054"><ele>323.5</ele><time>2026-04-30T09:57:52.883Z</time></trkpt><trkpt lat="37.8702804" lon="21.6453254"><ele>321.25</ele><time>2026-04-30T09:57:53.884Z</time></trkpt><trkpt lat="37.8704244" lon="21.6452733"><ele>319.0</ele><time>2026-04-30T09:57:54.883Z</time></trkpt><trkpt lat="37.8705743" lon="21.6452854"><ele>319.0</ele><time>2026-04-30T09:57:55.883Z</time></trkpt><trkpt lat="37.870714" lon="21.6452903"><ele>319.0</ele><time>2026-04-30T09:57:56.883Z</time></trkpt><trkpt lat="37.8708492" lon="21.6453366"><ele>319.0</ele><time>2026-04-30T09:57:57.884Z</time></trkpt><trkpt lat="37.8709463" lon="21.6454241"><ele>319.0</ele><time>2026-04-30T09:57:58.883Z</time></trkpt><trkpt lat="37.8710206" lon="21.6455325"><ele>316.5</ele><time>2026-04-30T09:57:59.884Z</time></trkpt><trkpt lat="37.8710757" lon="21.645657"><ele>314.0</ele><time>2026-04-30T09:58:00.883Z</time></trkpt><trkpt lat="37.8710592" lon="21.6458144"><ele>311.5</ele><time>2026-04-30T09:58:01.884Z</time></trkpt><trkpt lat="37.8710277" lon="21.6459668"><ele>309.0</ele><time>2026-04-30T09:58:02.883Z</time></trkpt><trkpt lat="37.8709704" lon="21.6461104"><ele>310.0</ele><time>2026-04-30T09:58:03.883Z</time></trkpt><trkpt lat="37.8709012" lon="21.6462431"><ele>311.0</ele><time>2026-04-30T09:58:04.884Z</time></trkpt><trkpt lat="37.8708506" lon="21.6463733"><ele>312.0</ele><time>2026-04-30T09:58:05.883Z</time></trkpt><trkpt lat="37.8708342" lon="21.6464988"><ele>313.0</ele><time>2026-04-30T09:58:06.883Z</time></trkpt><trkpt lat="37.870858" lon="21.6466149"><ele>314.0</ele><time>2026-04-30T09:58:07.884Z</time></trkpt><trkpt lat="37.8709146" lon="21.6467034"><ele>311.59999999999997</ele><time>2026-04-30T09:58:08.884Z</time></trkpt><trkpt lat="37.8709939" lon="21.6467498"><ele>309.2</ele><time>2026-04-30T09:58:09.884Z</time></trkpt><trkpt lat="37.8710914" lon="21.6467593"><ele>306.79999999999995</ele><time>2026-04-30T09:58:10.883Z</time></trkpt><trkpt lat="37.8711799" lon="21.6467512"><ele>304.4</ele><time>2026-04-30T09:58:11.884Z</time></trkpt><trkpt lat="37.8712718" lon="21.6466251"><ele>302.0</ele><time>2026-04-30T09:58:12.883Z</time></trkpt><trkpt lat="37.8713551" lon="21.6465167"><ele>302.0</ele><time>2026-04-30T09:58:13.883Z</time></trkpt><trkpt lat="37.8714306" lon="21.6463844"><ele>302.0</ele><time>2026-04-30T09:58:14.884Z</time></trkpt><trkpt lat="37.8715362" lon="21.6462577"><ele>302.0</ele><time>2026-04-30T09:58:15.883Z</time></trkpt><trkpt lat="37.8716494" lon="21.6461478"><ele>302.0</ele><time>2026-04-30T09:58:16.883Z</time></trkpt><trkpt lat="37.8717771" lon="21.6460562"><ele>301.6666666666667</ele><time>2026-04-30T09:58:17.884Z</time></trkpt><trkpt lat="37.8719108" lon="21.6459661"><ele>301.3333333333333</ele><time>2026-04-30T09:58:18.884Z</time></trkpt><trkpt lat="37.8720456" lon="21.6458883"><ele>301.0</ele><time>2026-04-30T09:58:19.884Z</time></trkpt><trkpt lat="37.872185" lon="21.6458156"><ele>301.0</ele><time>2026-04-30T09:58:20.883Z</time></trkpt><trkpt lat="37.8723262" lon="21.6457549"><ele>301.0</ele><time>2026-04-30T09:58:21.884Z</time></trkpt><trkpt lat="37.8724669" lon="21.6457101"><ele>301.0</ele><time>2026-04-30T09:58:22.884Z</time></trkpt><trkpt lat="37.872602" lon="21.6456839"><ele>301.0</ele><time>2026-04-30T09:58:23.884Z</time></trkpt><trkpt lat="37.8727389" lon="21.6456731"><ele>299.5</ele><time>2026-04-30T09:58:24.883Z</time></trkpt><trkpt lat="37.8728738" lon="21.6456896"><ele>298.0</ele><time>2026-04-30T09:58:25.884Z</time></trkpt><trkpt lat="37.8730143" lon="21.6457275"><ele>296.5</ele><time>2026-04-30T09:58:26.883Z</time></trkpt><trkpt lat="37.8731517" lon="21.6458294"><ele>295.0</ele><time>2026-04-30T09:58:27.884Z</time></trkpt><trkpt lat="37.8732604" lon="21.6459446"><ele>295.0</ele><time>2026-04-30T09:58:28.883Z</time></trkpt><trkpt lat="37.8733659" lon="21.646066"><ele>295.0</ele><time>2026-04-30T09:58:29.884Z</time></trkpt><trkpt lat="37.873488" lon="21.6461711"><ele>295.0</ele><time>2026-04-30T09:58:30.884Z</time></trkpt><trkpt lat="37.8736265" lon="21.6462436"><ele>295.0</ele><time>2026-04-30T09:58:31.884Z</time></trkpt><trkpt lat="37.8737832" lon="21.6462754"><ele>289.3333333333333</ele><time>2026-04-30T09:58:32.883Z</time></trkpt><trkpt lat="37.8739477" lon="21.6462717"><ele>283.6666666666667</ele><time>2026-04-30T09:58:33.884Z</time></trkpt><trkpt lat="37.874111" lon="21.6462298"><ele>278.0</ele><time>2026-04-30T09:58:34.884Z</time></trkpt><trkpt lat="37.8742893" lon="21.6461817"><ele>277.33333333333337</ele><time>2026-04-30T09:58:35.883Z</time></trkpt><trkpt lat="37.8744686" lon="21.6461311"><ele>276.6666666666667</ele><time>2026-04-30T09:58:36.884Z</time></trkpt><trkpt lat="37.8746466" lon="21.6460825"><ele>276.0</ele><time>2026-04-30T09:58:37.883Z</time></trkpt><trkpt lat="37.874822" lon="21.6460399"><ele>276.0</ele><time>2026-04-30T09:58:38.884Z</time></trkpt><trkpt lat="37.8749975" lon="21.6460006"><ele>276.0</ele><time>2026-04-30T09:58:39.884Z</time></trkpt><trkpt lat="37.8751707" lon="21.6459733"><ele>276.0</ele><time>2026-04-30T09:58:40.884Z</time></trkpt><trkpt lat="37.8753461" lon="21.6459574"><ele>273.6666666666667</ele><time>2026-04-30T09:58:41.884Z</time></trkpt><trkpt lat="37.875527" lon="21.6459587"><ele>271.33333333333337</ele><time>2026-04-30T09:58:42.884Z</time></trkpt><trkpt lat="37.8757092" lon="21.6459804"><ele>269.0</ele><time>2026-04-30T09:58:43.883Z</time></trkpt><trkpt lat="37.8758952" lon="21.6460088"><ele>267.33333333333337</ele><time>2026-04-30T09:58:44.884Z</time></trkpt><trkpt lat="37.8760869" lon="21.6460522"><ele>265.6666666666667</ele><time>2026-04-30T09:58:45.883Z</time></trkpt><trkpt lat="37.8762706" lon="21.6460913"><ele>264.0</ele><time>2026-04-30T09:58:46.883Z</time></trkpt><trkpt lat="37.8764461" lon="21.6461271"><ele>264.6666666666667</ele><time>2026-04-30T09:58:47.884Z</time></trkpt><trkpt lat="37.8766145" lon="21.6461626"><ele>265.33333333333337</ele><time>2026-04-30T09:58:48.884Z</time></trkpt><trkpt lat="37.8767695" lon="21.6462077"><ele>266.0</ele><time>2026-04-30T09:58:49.884Z</time></trkpt><trkpt lat="37.8769092" lon="21.6462586"><ele>265.0</ele><time>2026-04-30T09:58:50.883Z</time></trkpt><trkpt lat="37.87703" lon="21.6463214"><ele>264.0</ele><time>2026-04-30T09:58:51.884Z</time></trkpt><trkpt lat="37.8771208" lon="21.6464134"><ele>263.0</ele><time>2026-04-30T09:58:52.884Z</time></trkpt><trkpt lat="37.8771951" lon="21.6465271"><ele>262.0</ele><time>2026-04-30T09:58:53.884Z</time></trkpt><trkpt lat="37.8772379" lon="21.6466791"><ele>262.0</ele><time>2026-04-30T09:58:54.883Z</time></trkpt><trkpt lat="37.8772582" lon="21.6468285"><ele>262.0</ele><time>2026-04-30T09:58:55.883Z</time></trkpt><trkpt lat="37.8772421" lon="21.6469727"><ele>262.0</ele><time>2026-04-30T09:58:56.884Z</time></trkpt><trkpt lat="37.8772051" lon="21.6471075"><ele>262.0</ele><time>2026-04-30T09:58:57.883Z</time></trkpt><trkpt lat="37.877097" lon="21.6472173"><ele>260.75</ele><time>2026-04-30T09:58:58.884Z</time></trkpt><trkpt lat="37.876986" lon="21.6473066"><ele>259.5</ele><time>2026-04-30T09:58:59.883Z</time></trkpt><trkpt lat="37.8768524" lon="21.6473851"><ele>258.25</ele><time>2026-04-30T09:59:00.883Z</time></trkpt><trkpt lat="37.8767193" lon="21.6474612"><ele>257.0</ele><time>2026-04-30T09:59:01.884Z</time></trkpt><trkpt lat="37.8765928" lon="21.6475358"><ele>257.0</ele><time>2026-04-30T09:59:02.883Z</time></trkpt><trkpt lat="37.8764787" lon="21.647623"><ele>257.0</ele><time>2026-04-30T09:59:03.883Z</time></trkpt><trkpt lat="37.8763799" lon="21.6477368"><ele>257.0</ele><time>2026-04-30T09:59:04.884Z</time></trkpt><trkpt lat="37.8763018" lon="21.64786"><ele>257.0</ele><time>2026-04-30T09:59:05.884Z</time></trkpt><trkpt lat="37.8762357" lon="21.6479884"><ele>255.25</ele><time>2026-04-30T09:59:06.884Z</time></trkpt><trkpt lat="37.8762023" lon="21.6481533"><ele>253.5</ele><time>2026-04-30T09:59:07.883Z</time></trkpt><trkpt lat="37.8761898" lon="21.6483286"><ele>251.75</ele><time>2026-04-30T09:59:08.883Z</time></trkpt><trkpt lat="37.8761935" lon="21.648524"><ele>250.0</ele><time>2026-04-30T09:59:09.884Z</time></trkpt><trkpt lat="37.876203" lon="21.6487178"><ele>250.0</ele><time>2026-04-30T09:59:10.883Z</time></trkpt><trkpt lat="37.8762084" lon="21.6489115"><ele>250.0</ele><time>2026-04-30T09:59:11.883Z</time></trkpt><trkpt lat="37.8762172" lon="21.6490904"><ele>250.0</ele><time>2026-04-30T09:59:12.884Z</time></trkpt><trkpt lat="37.8762224" lon="21.6492416"><ele>250.0</ele><time>2026-04-30T09:59:13.884Z</time></trkpt><trkpt lat="37.8762429" lon="21.6493673"><ele>251.25</ele><time>2026-04-30T09:59:14.884Z</time></trkpt><trkpt lat="37.8763003" lon="21.6494728"><ele>252.5</ele><time>2026-04-30T09:59:15.883Z</time></trkpt><trkpt lat="37.8763905" lon="21.649554"><ele>253.75</ele><time>2026-04-30T09:59:16.883Z</time></trkpt><trkpt lat="37.8764988" lon="21.6496269"><ele>255.0</ele><time>2026-04-30T09:59:17.884Z</time></trkpt><trkpt lat="37.8766044" lon="21.6496993"><ele>255.0</ele><time>2026-04-30T09:59:18.884Z</time></trkpt><trkpt lat="37.8767071" lon="21.6497865"><ele>255.0</ele><time>2026-04-30T09:59:19.884Z</time></trkpt><trkpt lat="37.8768165" lon="21.6498651"><ele>255.0</ele><time>2026-04-30T09:59:20.883Z</time></trkpt><trkpt lat="37.8769183" lon="21.649962"><ele>255.0</ele><time>2026-04-30T09:59:21.884Z</time></trkpt><trkpt lat="37.8770136" lon="21.650077"><ele>255.0</ele><time>2026-04-30T09:59:22.883Z</time></trkpt><trkpt lat="37.8771023" lon="21.6502114"><ele>255.0</ele><time>2026-04-30T09:59:23.883Z</time></trkpt><trkpt lat="37.8771838" lon="21.6503575"><ele>255.0</ele><time>2026-04-30T09:59:24.883Z</time></trkpt><trkpt lat="37.877255" lon="21.6505162"><ele>255.0</ele><time>2026-04-30T09:59:25.884Z</time></trkpt><trkpt lat="37.8773052" lon="21.6506883"><ele>255.0</ele><time>2026-04-30T09:59:26.884Z</time></trkpt><trkpt lat="37.8773392" lon="21.6508842"><ele>255.0</ele><time>2026-04-30T09:59:27.884Z</time></trkpt><trkpt lat="37.8773626" lon="21.6511131"><ele>255.0</ele><time>2026-04-30T09:59:28.883Z</time></trkpt><trkpt lat="37.8773844" lon="21.6513689"><ele>255.33333333333331</ele><time>2026-04-30T09:59:29.883Z</time></trkpt><trkpt lat="37.8774008" lon="21.6516315"><ele>255.66666666666666</ele><time>2026-04-30T09:59:30.883Z</time></trkpt><trkpt lat="37.8774188" lon="21.6519103"><ele>256.0</ele><time>2026-04-30T09:59:31.884Z</time></trkpt><trkpt lat="37.8774351" lon="21.6521966"><ele>257.0</ele><time>2026-04-30T09:59:32.884Z</time></trkpt><trkpt lat="37.8774541" lon="21.6524921"><ele>258.0</ele><time>2026-04-30T09:59:33.884Z</time></trkpt><trkpt lat="37.8774744" lon="21.6527917"><ele>259.5</ele><time>2026-04-30T09:59:34.884Z</time></trkpt><trkpt lat="37.8774919" lon="21.6530892"><ele>261.0</ele><time>2026-04-30T09:59:35.884Z</time></trkpt><trkpt lat="37.8775096" lon="21.6533771"><ele>262.5</ele><time>2026-04-30T09:59:36.883Z</time></trkpt><trkpt lat="37.8775293" lon="21.6536638"><ele>264.0</ele><time>2026-04-30T09:59:37.884Z</time></trkpt><trkpt lat="37.8775441" lon="21.6539528"><ele>264.0</ele><time>2026-04-30T09:59:38.884Z</time></trkpt><trkpt lat="37.8775644" lon="21.6542405"><ele>264.0</ele><time>2026-04-30T09:59:39.884Z</time></trkpt><trkpt lat="37.877582" lon="21.6545316"><ele>264.3333333333333</ele><time>2026-04-30T09:59:40.884Z</time></trkpt><trkpt lat="37.8776002" lon="21.6548183"><ele>264.66666666666663</ele><time>2026-04-30T09:59:41.884Z</time></trkpt><trkpt lat="37.8776136" lon="21.6550975"><ele>265.0</ele><time>2026-04-30T09:59:42.883Z</time></trkpt><trkpt lat="37.8776282" lon="21.6553789"><ele>267.0</ele><time>2026-04-30T09:59:43.884Z</time></trkpt><trkpt lat="37.8776454" lon="21.6556583"><ele>269.0</ele><time>2026-04-30T09:59:44.884Z</time></trkpt><trkpt lat="37.8776657" lon="21.6559461"><ele>271.0</ele><time>2026-04-30T09:59:45.884Z</time></trkpt><trkpt lat="37.8776874" lon="21.6562265"><ele>272.66666666666663</ele><time>2026-04-30T09:59:46.883Z</time></trkpt><trkpt lat="37.8777129" lon="21.6564983"><ele>274.3333333333333</ele><time>2026-04-30T09:59:47.884Z</time></trkpt><trkpt lat="37.8777512" lon="21.6567621"><ele>276.0</ele><time>2026-04-30T09:59:48.884Z</time></trkpt><trkpt lat="37.8778036" lon="21.657013"><ele>276.0</ele><time>2026-04-30T09:59:49.884Z</time></trkpt><trkpt lat="37.8778776" lon="21.65726"><ele>276.0</ele><time>2026-04-30T09:59:50.883Z</time></trkpt><trkpt lat="37.8779635" lon="21.6574956"><ele>276.0</ele><time>2026-04-30T09:59:51.883Z</time></trkpt><trkpt lat="37.8780647" lon="21.6577237"><ele>276.6666666666667</ele><time>2026-04-30T09:59:52.884Z</time></trkpt><trkpt lat="37.8781778" lon="21.6579365"><ele>277.33333333333337</ele><time>2026-04-30T09:59:53.884Z</time></trkpt><trkpt lat="37.8783102" lon="21.6581417"><ele>278.0</ele><time>2026-04-30T09:59:54.883Z</time></trkpt><trkpt lat="37.8784751" lon="21.6583636"><ele>278.0</ele><time>2026-04-30T09:59:55.884Z</time></trkpt><trkpt lat="37.8786318" lon="21.6585795"><ele>278.0</ele><time>2026-04-30T09:59:56.883Z</time></trkpt><trkpt lat="37.8787863" lon="21.6588121"><ele>278.0</ele><time>2026-04-30T09:59:57.883Z</time></trkpt><trkpt lat="37.8789384" lon="21.659046"><ele>278.0</ele><time>2026-04-30T09:59:58.884Z</time></trkpt><trkpt lat="37.8790914" lon="21.6592774"><ele>279.0</ele><time>2026-04-30T09:59:59.883Z</time></trkpt><trkpt lat="37.8792457" lon="21.6595186"><ele>280.0</ele><time>2026-04-30T10:00:00.884Z</time></trkpt><trkpt lat="37.8794036" lon="21.6597589"><ele>277.0</ele><time>2026-04-30T10:00:01.884Z</time></trkpt><trkpt lat="37.879558" lon="21.6599989"><ele>274.0</ele><time>2026-04-30T10:00:02.884Z</time></trkpt><trkpt lat="37.8797117" lon="21.6602418"><ele>273.5</ele><time>2026-04-30T10:00:03.884Z</time></trkpt><trkpt lat="37.8798643" lon="21.6604835"><ele>273.0</ele><time>2026-04-30T10:00:04.884Z</time></trkpt><trkpt lat="37.8800145" lon="21.6607246"><ele>273.5</ele><time>2026-04-30T10:00:05.884Z</time></trkpt><trkpt lat="37.8801647" lon="21.6609671"><ele>274.0</ele><time>2026-04-30T10:00:06.883Z</time></trkpt><trkpt lat="37.8803159" lon="21.6612068"><ele>274.0</ele><time>2026-04-30T10:00:07.883Z</time></trkpt><trkpt lat="37.8804664" lon="21.6614476"><ele>274.0</ele><time>2026-04-30T10:00:08.884Z</time></trkpt><trkpt lat="37.8806133" lon="21.6616868"><ele>274.0</ele><time>2026-04-30T10:00:09.884Z</time></trkpt><trkpt lat="37.8807626" lon="21.6619283"><ele>274.0</ele><time>2026-04-30T10:00:10.883Z</time></trkpt><trkpt lat="37.8809096" lon="21.6621649"><ele>274.0</ele><time>2026-04-30T10:00:11.884Z</time></trkpt><trkpt lat="37.8810646" lon="21.6624052"><ele>274.0</ele><time>2026-04-30T10:00:12.884Z</time></trkpt><trkpt lat="37.8812173" lon="21.6626392"><ele>274.5</ele><time>2026-04-30T10:00:13.883Z</time></trkpt><trkpt lat="37.8813664" lon="21.6628771"><ele>275.0</ele><time>2026-04-30T10:00:14.884Z</time></trkpt><trkpt lat="37.8815204" lon="21.6631131"><ele>275.0</ele><time>2026-04-30T10:00:15.883Z</time></trkpt><trkpt lat="37.8816722" lon="21.6633552"><ele>275.0</ele><time>2026-04-30T10:00:16.883Z</time></trkpt><trkpt lat="37.8818296" lon="21.6636021"><ele>275.5</ele><time>2026-04-30T10:00:17.883Z</time></trkpt><trkpt lat="37.8819869" lon="21.6638432"><ele>276.0</ele><time>2026-04-30T10:00:18.883Z</time></trkpt><trkpt lat="37.8821428" lon="21.664088"><ele>276.0</ele><time>2026-04-30T10:00:19.884Z</time></trkpt><trkpt lat="37.8823009" lon="21.6643379"><ele>276.0</ele><time>2026-04-30T10:00:20.884Z</time></trkpt><trkpt lat="37.8824603" lon="21.664591"><ele>277.5</ele><time>2026-04-30T10:00:21.884Z</time></trkpt><trkpt lat="37.8826204" lon="21.6648438"><ele>279.0</ele><time>2026-04-30T10:00:22.884Z</time></trkpt><trkpt lat="37.8827778" lon="21.6650948"><ele>280.5</ele><time>2026-04-30T10:00:23.884Z</time></trkpt><trkpt lat="37.8829289" lon="21.6653377"><ele>282.0</ele><time>2026-04-30T10:00:24.883Z</time></trkpt><trkpt lat="37.8830749" lon="21.6655609"><ele>282.0</ele><time>2026-04-30T10:00:25.883Z</time></trkpt><trkpt lat="37.8832129" lon="21.6657774"><ele>282.0</ele><time>2026-04-30T10:00:26.883Z</time></trkpt><trkpt lat="37.8833651" lon="21.6659964"><ele>279.5</ele><time>2026-04-30T10:00:27.884Z</time></trkpt><trkpt lat="37.8835279" lon="21.6662197"><ele>277.0</ele><time>2026-04-30T10:00:28.884Z</time></trkpt><trkpt lat="37.8837044" lon="21.6664539"><ele>277.0</ele><time>2026-04-30T10:00:29.884Z</time></trkpt><trkpt lat="37.8838923" lon="21.6666937"><ele>277.0</ele><time>2026-04-30T10:00:30.884Z</time></trkpt><trkpt lat="37.8840792" lon="21.6669374"><ele>277.0</ele><time>2026-04-30T10:00:31.884Z</time></trkpt><trkpt lat="37.8842738" lon="21.667184"><ele>277.0</ele><time>2026-04-30T10:00:32.884Z</time></trkpt><trkpt lat="37.8844545" lon="21.6674214"><ele>277.0</ele><time>2026-04-30T10:00:33.884Z</time></trkpt><trkpt lat="37.8846372" lon="21.6676574"><ele>277.0</ele><time>2026-04-30T10:00:34.883Z</time></trkpt><trkpt lat="37.8848164" lon="21.6678892"><ele>278.5</ele><time>2026-04-30T10:00:35.884Z</time></trkpt><trkpt lat="37.8849949" lon="21.6681161"><ele>280.0</ele><time>2026-04-30T10:00:36.884Z</time></trkpt><trkpt lat="37.8851717" lon="21.6683435"><ele>280.0</ele><time>2026-04-30T10:00:37.883Z</time></trkpt><trkpt lat="37.8853509" lon="21.668571"><ele>280.0</ele><time>2026-04-30T10:00:38.883Z</time></trkpt><trkpt lat="37.8855334" lon="21.6688018"><ele>281.0</ele><time>2026-04-30T10:00:39.883Z</time></trkpt><trkpt lat="37.8857268" lon="21.6690303"><ele>282.0</ele><time>2026-04-30T10:00:40.883Z</time></trkpt><trkpt lat="37.8859165" lon="21.6692638"><ele>282.0</ele><time>2026-04-30T10:00:41.884Z</time></trkpt><trkpt lat="37.8861041" lon="21.6694999"><ele>282.0</ele><time>2026-04-30T10:00:42.884Z</time></trkpt><trkpt lat="37.8862948" lon="21.6697199"><ele>282.0</ele><time>2026-04-30T10:00:43.883Z</time></trkpt><trkpt lat="37.8864665" lon="21.6699393"><ele>282.0</ele><time>2026-04-30T10:00:44.884Z</time></trkpt><trkpt lat="37.8866483" lon="21.6701449"><ele>283.5</ele><time>2026-04-30T10:00:45.883Z</time></trkpt><trkpt lat="37.886841" lon="21.6703469"><ele>285.0</ele><time>2026-04-30T10:00:46.884Z</time></trkpt><trkpt lat="37.8870494" lon="21.6705271"><ele>285.0</ele><time>2026-04-30T10:00:47.883Z</time></trkpt><trkpt lat="37.8872577" lon="21.6706912"><ele>285.0</ele><time>2026-04-30T10:00:48.884Z</time></trkpt><trkpt lat="37.8874517" lon="21.6708421"><ele>285.0</ele><time>2026-04-30T10:00:49.883Z</time></trkpt><trkpt lat="37.8876446" lon="21.6709862"><ele>285.0</ele><time>2026-04-30T10:00:50.883Z</time></trkpt><trkpt lat="37.8878411" lon="21.671124"><ele>285.0</ele><time>2026-04-30T10:00:51.884Z</time></trkpt><trkpt lat="37.8880389" lon="21.6712652"><ele>285.6666666666667</ele><time>2026-04-30T10:00:52.884Z</time></trkpt><trkpt lat="37.8882294" lon="21.6714029"><ele>286.33333333333337</ele><time>2026-04-30T10:00:53.883Z</time></trkpt><trkpt lat="37.8884209" lon="21.6715176"><ele>287.0</ele><time>2026-04-30T10:00:54.883Z</time></trkpt><trkpt lat="37.8885877" lon="21.6716421"><ele>287.0</ele><time>2026-04-30T10:00:55.884Z</time></trkpt><trkpt lat="37.88874" lon="21.6717499"><ele>287.0</ele><time>2026-04-30T10:00:56.884Z</time></trkpt><trkpt lat="37.8888851" lon="21.671859"><ele>287.0</ele><time>2026-04-30T10:00:57.883Z</time></trkpt><trkpt lat="37.8890282" lon="21.6719716"><ele>287.33333333333337</ele><time>2026-04-30T10:00:58.883Z</time></trkpt><trkpt lat="37.889176" lon="21.6720932"><ele>287.6666666666667</ele><time>2026-04-30T10:00:59.884Z</time></trkpt><trkpt lat="37.8893246" lon="21.6722074"><ele>288.0</ele><time>2026-04-30T10:01:00.884Z</time></trkpt><trkpt lat="37.8894804" lon="21.6723209"><ele>288.0</ele><time>2026-04-30T10:01:01.884Z</time></trkpt><trkpt lat="37.8896416" lon="21.6724304"><ele>288.0</ele><time>2026-04-30T10:01:02.884Z</time></trkpt><trkpt lat="37.889797" lon="21.672555"><ele>288.0</ele><time>2026-04-30T10:01:03.883Z</time></trkpt><trkpt lat="37.8899483" lon="21.6726809"><ele>286.0</ele><time>2026-04-30T10:01:04.884Z</time></trkpt><trkpt lat="37.8900953" lon="21.6728178"><ele>284.0</ele><time>2026-04-30T10:01:05.884Z</time></trkpt><trkpt lat="37.8902278" lon="21.6729789"><ele>282.0</ele><time>2026-04-30T10:01:06.884Z</time></trkpt><trkpt lat="37.890359" lon="21.6731579"><ele>282.0</ele><time>2026-04-30T10:01:07.883Z</time></trkpt><trkpt lat="37.8904754" lon="21.6733512"><ele>282.0</ele><time>2026-04-30T10:01:08.884Z</time></trkpt><trkpt lat="37.890592" lon="21.6735538"><ele>282.0</ele><time>2026-04-30T10:01:09.883Z</time></trkpt><trkpt lat="37.8907053" lon="21.6737581"><ele>282.0</ele><time>2026-04-30T10:01:10.884Z</time></trkpt><trkpt lat="37.8908122" lon="21.6739642"><ele>282.0</ele><time>2026-04-30T10:01:11.883Z</time></trkpt><trkpt lat="37.8909196" lon="21.6741612"><ele>282.0</ele><time>2026-04-30T10:01:12.884Z</time></trkpt><trkpt lat="37.8910164" lon="21.674353"><ele>282.6666666666667</ele><time>2026-04-30T10:01:13.883Z</time></trkpt><trkpt lat="37.8911118" lon="21.6745442"><ele>283.33333333333337</ele><time>2026-04-30T10:01:14.884Z</time></trkpt><trkpt lat="37.8912143" lon="21.6747307"><ele>284.0</ele><time>2026-04-30T10:01:15.883Z</time></trkpt><trkpt lat="37.891322" lon="21.6749169"><ele>284.0</ele><time>2026-04-30T10:01:16.884Z</time></trkpt><trkpt lat="37.8914426" lon="21.675093"><ele>284.0</ele><time>2026-04-30T10:01:17.884Z</time></trkpt><trkpt lat="37.891589" lon="21.675265"><ele>284.0</ele><time>2026-04-30T10:01:18.883Z</time></trkpt><trkpt lat="37.8917459" lon="21.6754133"><ele>281.6666666666667</ele><time>2026-04-30T10:01:19.883Z</time></trkpt><trkpt lat="37.891912" lon="21.6755427"><ele>279.3333333333333</ele><time>2026-04-30T10:01:20.883Z</time></trkpt><trkpt lat="37.8921062" lon="21.6756494"><ele>277.0</ele><time>2026-04-30T10:01:21.883Z</time></trkpt><trkpt lat="37.8923034" lon="21.6757414"><ele>277.0</ele><time>2026-04-30T10:01:22.883Z</time></trkpt><trkpt lat="37.8925261" lon="21.6758107"><ele>277.0</ele><time>2026-04-30T10:01:23.883Z</time></trkpt><trkpt lat="37.8927758" lon="21.6758611"><ele>277.0</ele><time>2026-04-30T10:01:24.884Z</time></trkpt><trkpt lat="37.8930389" lon="21.6758799"><ele>277.0</ele><time>2026-04-30T10:01:25.883Z</time></trkpt><trkpt lat="37.893304" lon="21.6759108"><ele>280.0</ele><time>2026-04-30T10:01:26.883Z</time></trkpt><trkpt lat="37.8935761" lon="21.6759433"><ele>283.0</ele><time>2026-04-30T10:01:27.884Z</time></trkpt><trkpt lat="37.8938511" lon="21.6759808"><ele>283.0</ele><time>2026-04-30T10:01:28.883Z</time></trkpt><trkpt lat="37.8941335" lon="21.6759984"><ele>283.0</ele><time>2026-04-30T10:01:29.883Z</time></trkpt><trkpt lat="37.8943909" lon="21.6760313"><ele>286.0</ele><time>2026-04-30T10:01:30.884Z</time></trkpt><trkpt lat="37.894631" lon="21.6760628"><ele>289.0</ele><time>2026-04-30T10:01:31.883Z</time></trkpt><trkpt lat="37.8948586" lon="21.6760885"><ele>290.0</ele><time>2026-04-30T10:01:32.883Z</time></trkpt><trkpt lat="37.8950712" lon="21.676119"><ele>291.0</ele><time>2026-04-30T10:01:33.883Z</time></trkpt><trkpt lat="37.8952636" lon="21.6761531"><ele>292.0</ele><time>2026-04-30T10:01:34.884Z</time></trkpt><trkpt lat="37.8954506" lon="21.6761812"><ele>292.0</ele><time>2026-04-30T10:01:35.883Z</time></trkpt><trkpt lat="37.8956191" lon="21.6761992"><ele>292.0</ele><time>2026-04-30T10:01:36.883Z</time></trkpt><trkpt lat="37.895803" lon="21.6762237"><ele>292.0</ele><time>2026-04-30T10:01:37.884Z</time></trkpt><trkpt lat="37.8959812" lon="21.6762626"><ele>292.0</ele><time>2026-04-30T10:01:38.883Z</time></trkpt><trkpt lat="37.8961646" lon="21.6763037"><ele>292.0</ele><time>2026-04-30T10:01:39.883Z</time></trkpt><trkpt lat="37.8963536" lon="21.6763478"><ele>292.0</ele><time>2026-04-30T10:01:40.883Z</time></trkpt><trkpt lat="37.896572" lon="21.6764057"><ele>290.0</ele><time>2026-04-30T10:01:41.884Z</time></trkpt><trkpt lat="37.8968097" lon="21.6764726"><ele>288.0</ele><time>2026-04-30T10:01:42.884Z</time></trkpt><trkpt lat="37.8970629" lon="21.6765439"><ele>288.0</ele><time>2026-04-30T10:01:43.883Z</time></trkpt><trkpt lat="37.8973361" lon="21.6766422"><ele>288.0</ele><time>2026-04-30T10:01:44.883Z</time></trkpt><trkpt lat="37.8976034" lon="21.6767408"><ele>285.5</ele><time>2026-04-30T10:01:45.883Z</time></trkpt><trkpt lat="37.8978587" lon="21.6768304"><ele>283.0</ele><time>2026-04-30T10:01:46.884Z</time></trkpt><trkpt lat="37.8981098" lon="21.676905"><ele>284.5</ele><time>2026-04-30T10:01:47.884Z</time></trkpt><trkpt lat="37.8983417" lon="21.6769861"><ele>286.0</ele><time>2026-04-30T10:01:48.884Z</time></trkpt><trkpt lat="37.8985568" lon="21.6770647"><ele>286.0</ele><time>2026-04-30T10:01:49.883Z</time></trkpt><trkpt lat="37.8987622" lon="21.6771264"><ele>286.0</ele><time>2026-04-30T10:01:50.884Z</time></trkpt><trkpt lat="37.8989573" lon="21.6771805"><ele>286.0</ele><time>2026-04-30T10:01:51.884Z</time></trkpt><trkpt lat="37.8991473" lon="21.6772072"><ele>285.66666666666663</ele><time>2026-04-30T10:01:52.883Z</time></trkpt><trkpt lat="37.8993307" lon="21.6772334"><ele>285.3333333333333</ele><time>2026-04-30T10:01:53.884Z</time></trkpt><trkpt lat="37.8995147" lon="21.6772259"><ele>285.0</ele><time>2026-04-30T10:01:54.883Z</time></trkpt><trkpt lat="37.8996993" lon="21.6771751"><ele>285.0</ele><time>2026-04-30T10:01:55.883Z</time></trkpt><trkpt lat="37.8998932" lon="21.6770961"><ele>285.0</ele><time>2026-04-30T10:01:56.883Z</time></trkpt><trkpt lat="37.9000937" lon="21.6769891"><ele>285.0</ele><time>2026-04-30T10:01:57.883Z</time></trkpt><trkpt lat="37.9002881" lon="21.6768805"><ele>284.3333333333333</ele><time>2026-04-30T10:01:58.884Z</time></trkpt><trkpt lat="37.900466" lon="21.6767696"><ele>283.66666666666663</ele><time>2026-04-30T10:01:59.883Z</time></trkpt><trkpt lat="37.90064" lon="21.6766576"><ele>283.0</ele><time>2026-04-30T10:02:00.884Z</time></trkpt><trkpt lat="37.9008032" lon="21.6765455"><ele>282.3333333333333</ele><time>2026-04-30T10:02:01.883Z</time></trkpt><trkpt lat="37.9009573" lon="21.6764461"><ele>281.6666666666667</ele><time>2026-04-30T10:02:02.883Z</time></trkpt><trkpt lat="37.9011008" lon="21.6763537"><ele>281.0</ele><time>2026-04-30T10:02:03.883Z</time></trkpt><trkpt lat="37.9012308" lon="21.676279"><ele>281.0</ele><time>2026-04-30T10:02:04.884Z</time></trkpt><trkpt lat="37.901362" lon="21.6762034"><ele>281.0</ele><time>2026-04-30T10:02:05.884Z</time></trkpt><trkpt lat="37.9014844" lon="21.6761287"><ele>281.0</ele><time>2026-04-30T10:02:06.883Z</time></trkpt><trkpt lat="37.9016042" lon="21.6760613"><ele>281.0</ele><time>2026-04-30T10:02:07.883Z</time></trkpt><trkpt lat="37.9017175" lon="21.6759963"><ele>281.0</ele><time>2026-04-30T10:02:08.884Z</time></trkpt><trkpt lat="37.9018307" lon="21.6759513"><ele>281.0</ele><time>2026-04-30T10:02:09.884Z</time></trkpt><trkpt lat="37.9019459" lon="21.6759192"><ele>281.0</ele><time>2026-04-30T10:02:10.884Z</time></trkpt><trkpt lat="37.9020676" lon="21.6759192"><ele>281.0</ele><time>2026-04-30T10:02:11.883Z</time></trkpt><trkpt lat="37.9021879" lon="21.6759277"><ele>281.0</ele><time>2026-04-30T10:02:12.883Z</time></trkpt><trkpt lat="37.9023125" lon="21.6759575"><ele>281.0</ele><time>2026-04-30T10:02:13.884Z</time></trkpt><trkpt lat="37.9024395" lon="21.6760053"><ele>281.0</ele><time>2026-04-30T10:02:14.884Z</time></trkpt><trkpt lat="37.9025702" lon="21.6760583"><ele>281.0</ele><time>2026-04-30T10:02:15.884Z</time></trkpt><trkpt lat="37.9027074" lon="21.6761218"><ele>282.33333333333337</ele><time>2026-04-30T10:02:16.884Z</time></trkpt><trkpt lat="37.9028514" lon="21.6762021"><ele>283.6666666666667</ele><time>2026-04-30T10:02:17.883Z</time></trkpt><trkpt lat="37.9030094" lon="21.6762902"><ele>285.0</ele><time>2026-04-30T10:02:18.884Z</time></trkpt><trkpt lat="37.9031589" lon="21.6763841"><ele>285.0</ele><time>2026-04-30T10:02:19.884Z</time></trkpt><trkpt lat="37.903304" lon="21.6764889"><ele>285.0</ele><time>2026-04-30T10:02:20.884Z</time></trkpt><trkpt lat="37.903457" lon="21.6766016"><ele>285.0</ele><time>2026-04-30T10:02:21.884Z</time></trkpt><trkpt lat="37.9036186" lon="21.6767176"><ele>285.3333333333333</ele><time>2026-04-30T10:02:22.884Z</time></trkpt><trkpt lat="37.903803" lon="21.6768479"><ele>285.66666666666663</ele><time>2026-04-30T10:02:23.884Z</time></trkpt><trkpt lat="37.9040085" lon="21.6769996"><ele>286.0</ele><time>2026-04-30T10:02:24.883Z</time></trkpt><trkpt lat="37.9042391" lon="21.6771678"><ele>285.5</ele><time>2026-04-30T10:02:25.884Z</time></trkpt><trkpt lat="37.9044872" lon="21.6773605"><ele>285.0</ele><time>2026-04-30T10:02:26.884Z</time></trkpt><trkpt lat="37.9047423" lon="21.6775541"><ele>285.0</ele><time>2026-04-30T10:02:27.884Z</time></trkpt><trkpt lat="37.9049968" lon="21.6777475"><ele>285.0</ele><time>2026-04-30T10:02:28.883Z</time></trkpt><trkpt lat="37.9052358" lon="21.6779227"><ele>285.5</ele><time>2026-04-30T10:02:29.883Z</time></trkpt><trkpt lat="37.9054818" lon="21.6780823"><ele>286.0</ele><time>2026-04-30T10:02:30.884Z</time></trkpt><trkpt lat="37.9056946" lon="21.6782367"><ele>286.0</ele><time>2026-04-30T10:02:31.883Z</time></trkpt><trkpt lat="37.9059015" lon="21.6783681"><ele>286.0</ele><time>2026-04-30T10:02:32.884Z</time></trkpt><trkpt lat="37.9061166" lon="21.6784808"><ele>285.5</ele><time>2026-04-30T10:02:33.884Z</time></trkpt><trkpt lat="37.9063476" lon="21.6785697"><ele>285.0</ele><time>2026-04-30T10:02:34.883Z</time></trkpt><trkpt lat="37.906601" lon="21.678645"><ele>286.0</ele><time>2026-04-30T10:02:35.883Z</time></trkpt><trkpt lat="37.9068579" lon="21.6786954"><ele>287.0</ele><time>2026-04-30T10:02:36.884Z</time></trkpt><trkpt lat="37.9071081" lon="21.6787417"><ele>287.0</ele><time>2026-04-30T10:02:37.884Z</time></trkpt><trkpt lat="37.9073504" lon="21.6787958"><ele>287.0</ele><time>2026-04-30T10:02:38.884Z</time></trkpt><trkpt lat="37.9075887" lon="21.678842"><ele>289.0</ele><time>2026-04-30T10:02:39.883Z</time></trkpt><trkpt lat="37.9078176" lon="21.6789029"><ele>291.0</ele><time>2026-04-30T10:02:40.883Z</time></trkpt><trkpt lat="37.908046" lon="21.6789908"><ele>291.0</ele><time>2026-04-30T10:02:41.883Z</time></trkpt><trkpt lat="37.9082692" lon="21.6791129"><ele>291.0</ele><time>2026-04-30T10:02:42.884Z</time></trkpt><trkpt lat="37.9084903" lon="21.6792444"><ele>293.0</ele><time>2026-04-30T10:02:43.883Z</time></trkpt><trkpt lat="37.9087095" lon="21.6794036"><ele>295.0</ele><time>2026-04-30T10:02:44.884Z</time></trkpt><trkpt lat="37.9089269" lon="21.6795728"><ele>295.0</ele><time>2026-04-30T10:02:45.883Z</time></trkpt><trkpt lat="37.9091356" lon="21.6797439"><ele>295.0</ele><time>2026-04-30T10:02:46.884Z</time></trkpt><trkpt lat="37.9093403" lon="21.6799011"><ele>297.0</ele><time>2026-04-30T10:02:47.884Z</time></trkpt><trkpt lat="37.9095312" lon="21.6800472"><ele>299.0</ele><time>2026-04-30T10:02:48.883Z</time></trkpt><trkpt lat="37.9097086" lon="21.6801763"><ele>301.0</ele><time>2026-04-30T10:02:49.883Z</time></trkpt><trkpt lat="37.9098843" lon="21.6802782"><ele>301.3333333333333</ele><time>2026-04-30T10:02:50.884Z</time></trkpt><trkpt lat="37.9100612" lon="21.6803462"><ele>301.6666666666667</ele><time>2026-04-30T10:02:51.884Z</time></trkpt><trkpt lat="37.91025" lon="21.6803764"><ele>302.0</ele><time>2026-04-30T10:02:52.884Z</time></trkpt><trkpt lat="37.91045" lon="21.6803686"><ele>302.0</ele><time>2026-04-30T10:02:53.884Z</time></trkpt><trkpt lat="37.9106642" lon="21.6803121"><ele>302.0</ele><time>2026-04-30T10:02:54.883Z</time></trkpt><trkpt lat="37.9108835" lon="21.6802141"><ele>301.0</ele><time>2026-04-30T10:02:55.884Z</time></trkpt><trkpt lat="37.9111218" lon="21.6800945"><ele>300.0</ele><time>2026-04-30T10:02:56.883Z</time></trkpt><trkpt lat="37.9113559" lon="21.6799822"><ele>300.0</ele><time>2026-04-30T10:02:57.884Z</time></trkpt><trkpt lat="37.9115832" lon="21.6798742"><ele>300.0</ele><time>2026-04-30T10:02:58.883Z</time></trkpt><trkpt lat="37.911797" lon="21.6797754"><ele>299.3333333333333</ele><time>2026-04-30T10:02:59.884Z</time></trkpt><trkpt lat="37.9120024" lon="21.6796837"><ele>298.66666666666663</ele><time>2026-04-30T10:03:00.883Z</time></trkpt><trkpt lat="37.9122002" lon="21.6796348"><ele>298.0</ele><time>2026-04-30T10:03:01.883Z</time></trkpt><trkpt lat="37.9123872" lon="21.6796103"><ele>296.66666666666663</ele><time>2026-04-30T10:03:02.883Z</time></trkpt><trkpt lat="37.9125856" lon="21.6796204"><ele>295.3333333333333</ele><time>2026-04-30T10:03:03.883Z</time></trkpt><trkpt lat="37.9127729" lon="21.6796733"><ele>294.0</ele><time>2026-04-30T10:03:04.883Z</time></trkpt><trkpt lat="37.9129469" lon="21.6797311"><ele>294.0</ele><time>2026-04-30T10:03:05.884Z</time></trkpt><trkpt lat="37.9131213" lon="21.6797912"><ele>294.0</ele><time>2026-04-30T10:03:06.884Z</time></trkpt><trkpt lat="37.9133082" lon="21.6798178"><ele>294.0</ele><time>2026-04-30T10:03:07.883Z</time></trkpt><trkpt lat="37.9135163" lon="21.679815"><ele>290.5</ele><time>2026-04-30T10:03:08.884Z</time></trkpt><trkpt lat="37.9137606" lon="21.6797839"><ele>287.0</ele><time>2026-04-30T10:03:09.883Z</time></trkpt><trkpt lat="37.9140294" lon="21.6797109"><ele>289.0</ele><time>2026-04-30T10:03:10.884Z</time></trkpt><trkpt lat="37.914316" lon="21.6796198"><ele>291.0</ele><time>2026-04-30T10:03:11.883Z</time></trkpt><trkpt lat="37.914616" lon="21.6795408"><ele>291.0</ele><time>2026-04-30T10:03:12.884Z</time></trkpt><trkpt lat="37.9149046" lon="21.6794589"><ele>291.0</ele><time>2026-04-30T10:03:13.884Z</time></trkpt><trkpt lat="37.915184" lon="21.6793892"><ele>281.5</ele><time>2026-04-30T10:03:14.883Z</time></trkpt><trkpt lat="37.9154501" lon="21.6793265"><ele>272.0</ele><time>2026-04-30T10:03:15.883Z</time></trkpt><trkpt lat="37.9157154" lon="21.6792567"><ele>272.0</ele><time>2026-04-30T10:03:16.884Z</time></trkpt><trkpt lat="37.9159611" lon="21.6791734"><ele>272.0</ele><time>2026-04-30T10:03:17.883Z</time></trkpt><trkpt lat="37.9162095" lon="21.6790824"><ele>272.0</ele><time>2026-04-30T10:03:18.884Z</time></trkpt><trkpt lat="37.9164765" lon="21.6789298"><ele>272.0</ele><time>2026-04-30T10:03:19.884Z</time></trkpt><trkpt lat="37.9167402" lon="21.6787576"><ele>273.5</ele><time>2026-04-30T10:03:20.883Z</time></trkpt><trkpt lat="37.9170098" lon="21.6785722"><ele>275.0</ele><time>2026-04-30T10:03:21.884Z</time></trkpt><trkpt lat="37.9172843" lon="21.6783549"><ele>275.0</ele><time>2026-04-30T10:03:22.884Z</time></trkpt><trkpt lat="37.9175452" lon="21.6781623"><ele>275.0</ele><time>2026-04-30T10:03:23.883Z</time></trkpt><trkpt lat="37.9177829" lon="21.6779862"><ele>275.0</ele><time>2026-04-30T10:03:24.884Z</time></trkpt><trkpt lat="37.9180049" lon="21.6778387"><ele>275.0</ele><time>2026-04-30T10:03:25.883Z</time></trkpt><trkpt lat="37.9182314" lon="21.6777025"><ele>276.0</ele><time>2026-04-30T10:03:26.884Z</time></trkpt><trkpt lat="37.9184743" lon="21.6775785"><ele>277.0</ele><time>2026-04-30T10:03:27.884Z</time></trkpt><trkpt lat="37.9187515" lon="21.6774797"><ele>277.0</ele><time>2026-04-30T10:03:28.884Z</time></trkpt><trkpt lat="37.919055" lon="21.6773977"><ele>277.0</ele><time>2026-04-30T10:03:29.883Z</time></trkpt><trkpt lat="37.9193712" lon="21.677299"><ele>278.5</ele><time>2026-04-30T10:03:30.883Z</time></trkpt><trkpt lat="37.9196775" lon="21.6772172"><ele>280.0</ele><time>2026-04-30T10:03:31.883Z</time></trkpt><trkpt lat="37.9199618" lon="21.6771506"><ele>285.5</ele><time>2026-04-30T10:03:32.883Z</time></trkpt><trkpt lat="37.9202296" lon="21.6770646"><ele>291.0</ele><time>2026-04-30T10:03:33.884Z</time></trkpt><trkpt lat="37.9204869" lon="21.6769781"><ele>290.5</ele><time>2026-04-30T10:03:34.884Z</time></trkpt><trkpt lat="37.9207381" lon="21.676847"><ele>290.0</ele><time>2026-04-30T10:03:35.883Z</time></trkpt><trkpt lat="37.92098" lon="21.676715"><ele>293.5</ele><time>2026-04-30T10:03:36.883Z</time></trkpt><trkpt lat="37.9211783" lon="21.6765538"><ele>297.0</ele><time>2026-04-30T10:03:37.884Z</time></trkpt><trkpt lat="37.9213816" lon="21.6764222"><ele>297.0</ele><time>2026-04-30T10:03:38.883Z</time></trkpt><trkpt lat="37.9215596" lon="21.6762915"><ele>297.0</ele><time>2026-04-30T10:03:39.883Z</time></trkpt><trkpt lat="37.9217215" lon="21.6761942"><ele>297.0</ele><time>2026-04-30T10:03:40.883Z</time></trkpt><trkpt lat="37.9218765" lon="21.6761043"><ele>296.3333333333333</ele><time>2026-04-30T10:03:41.884Z</time></trkpt><trkpt lat="37.9220293" lon="21.6760995"><ele>295.66666666666663</ele><time>2026-04-30T10:03:42.883Z</time></trkpt><trkpt lat="37.9221822" lon="21.6761178"><ele>295.0</ele><time>2026-04-30T10:03:43.884Z</time></trkpt><trkpt lat="37.9223418" lon="21.6761805"><ele>296.0</ele><time>2026-04-30T10:03:44.883Z</time></trkpt><trkpt lat="37.9224971" lon="21.6762882"><ele>297.0</ele><time>2026-04-30T10:03:45.883Z</time></trkpt><trkpt lat="37.922655" lon="21.6764394"><ele>298.0</ele><time>2026-04-30T10:03:46.884Z</time></trkpt><trkpt lat="37.9228243" lon="21.6766374"><ele>298.0</ele><time>2026-04-30T10:03:47.884Z</time></trkpt><trkpt lat="37.923" lon="21.6768412"><ele>298.0</ele><time>2026-04-30T10:03:48.884Z</time></trkpt><trkpt lat="37.9231884" lon="21.6770525"><ele>298.0</ele><time>2026-04-30T10:03:49.884Z</time></trkpt><trkpt lat="37.9233893" lon="21.677247"><ele>298.0</ele><time>2026-04-30T10:03:50.883Z</time></trkpt><trkpt lat="37.9235601" lon="21.6774319"><ele>298.0</ele><time>2026-04-30T10:03:51.884Z</time></trkpt><trkpt lat="37.9237177" lon="21.6776229"><ele>298.0</ele><time>2026-04-30T10:03:52.884Z</time></trkpt><trkpt lat="37.9238728" lon="21.6777921"><ele>298.0</ele><time>2026-04-30T10:03:53.884Z</time></trkpt><trkpt lat="37.9240325" lon="21.6779333"><ele>297.66666666666663</ele><time>2026-04-30T10:03:54.884Z</time></trkpt><trkpt lat="37.9242115" lon="21.678035"><ele>297.3333333333333</ele><time>2026-04-30T10:03:55.883Z</time></trkpt><trkpt lat="37.9243859" lon="21.6781246"><ele>297.0</ele><time>2026-04-30T10:03:56.883Z</time></trkpt><trkpt lat="37.9245625" lon="21.6781702"><ele>296.6666666666667</ele><time>2026-04-30T10:03:57.883Z</time></trkpt><trkpt lat="37.9247449" lon="21.6781728"><ele>296.33333333333337</ele><time>2026-04-30T10:03:58.883Z</time></trkpt><trkpt lat="37.9249269" lon="21.678136"><ele>296.0</ele><time>2026-04-30T10:03:59.884Z</time></trkpt><trkpt lat="37.9251111" lon="21.6780651"><ele>296.0</ele><time>2026-04-30T10:04:00.884Z</time></trkpt><trkpt lat="37.9252947" lon="21.6779623"><ele>296.0</ele><time>2026-04-30T10:04:01.884Z</time></trkpt><trkpt lat="37.9254748" lon="21.6778384"><ele>296.0</ele><time>2026-04-30T10:04:02.883Z</time></trkpt><trkpt lat="37.9256441" lon="21.677734"><ele>292.0</ele><time>2026-04-30T10:04:03.884Z</time></trkpt><trkpt lat="37.9258159" lon="21.677634"><ele>288.0</ele><time>2026-04-30T10:04:04.884Z</time></trkpt><trkpt lat="37.9259907" lon="21.677568"><ele>284.0</ele><time>2026-04-30T10:04:05.883Z</time></trkpt><trkpt lat="37.9261769" lon="21.6775446"><ele>281.6666666666667</ele><time>2026-04-30T10:04:06.883Z</time></trkpt><trkpt lat="37.9263892" lon="21.6775575"><ele>279.3333333333333</ele><time>2026-04-30T10:04:07.883Z</time></trkpt><trkpt lat="37.9266155" lon="21.6776067"><ele>277.0</ele><time>2026-04-30T10:04:08.883Z</time></trkpt><trkpt lat="37.9268537" lon="21.6776689"><ele>276.0</ele><time>2026-04-30T10:04:09.883Z</time></trkpt><trkpt lat="37.9270879" lon="21.6777317"><ele>275.0</ele><time>2026-04-30T10:04:10.883Z</time></trkpt><trkpt lat="37.9273114" lon="21.6777913"><ele>275.0</ele><time>2026-04-30T10:04:11.883Z</time></trkpt><trkpt lat="37.9275206" lon="21.6778572"><ele>275.0</ele><time>2026-04-30T10:04:12.884Z</time></trkpt><trkpt lat="37.9277235" lon="21.6779004"><ele>275.0</ele><time>2026-04-30T10:04:13.884Z</time></trkpt><trkpt lat="37.9279231" lon="21.6779156"><ele>275.33333333333337</ele><time>2026-04-30T10:04:14.883Z</time></trkpt><trkpt lat="37.9281276" lon="21.6778928"><ele>275.6666666666667</ele><time>2026-04-30T10:04:15.884Z</time></trkpt><trkpt lat="37.9283271" lon="21.6778331"><ele>276.0</ele><time>2026-04-30T10:04:16.883Z</time></trkpt><trkpt lat="37.9285273" lon="21.67773"><ele>278.6666666666667</ele><time>2026-04-30T10:04:17.883Z</time></trkpt><trkpt lat="37.9287128" lon="21.6775775"><ele>281.33333333333337</ele><time>2026-04-30T10:04:18.884Z</time></trkpt><trkpt lat="37.9288733" lon="21.6774092"><ele>284.0</ele><time>2026-04-30T10:04:19.884Z</time></trkpt><trkpt lat="37.9290198" lon="21.6772341"><ele>284.0</ele><time>2026-04-30T10:04:20.884Z</time></trkpt><trkpt lat="37.9291607" lon="21.6770789"><ele>284.0</ele><time>2026-04-30T10:04:21.884Z</time></trkpt><trkpt lat="37.9292955" lon="21.6769503"><ele>284.0</ele><time>2026-04-30T10:04:22.884Z</time></trkpt><trkpt lat="37.9294408" lon="21.6768589"><ele>283.33333333333337</ele><time>2026-04-30T10:04:23.883Z</time></trkpt><trkpt lat="37.9296051" lon="21.6767872"><ele>282.6666666666667</ele><time>2026-04-30T10:04:24.884Z</time></trkpt><trkpt lat="37.9298092" lon="21.6767701"><ele>282.0</ele><time>2026-04-30T10:04:25.883Z</time></trkpt><trkpt lat="37.9300354" lon="21.6767771"><ele>282.0</ele><time>2026-04-30T10:04:26.884Z</time></trkpt><trkpt lat="37.9302783" lon="21.6768288"><ele>282.0</ele><time>2026-04-30T10:04:27.883Z</time></trkpt><trkpt lat="37.9305506" lon="21.6768987"><ele>284.0</ele><time>2026-04-30T10:04:28.883Z</time></trkpt><trkpt lat="37.9308064" lon="21.6769523"><ele>286.0</ele><time>2026-04-30T10:04:29.884Z</time></trkpt><trkpt lat="37.9310528" lon="21.6769982"><ele>286.0</ele><time>2026-04-30T10:04:30.883Z</time></trkpt><trkpt lat="37.9312926" lon="21.67704"><ele>286.0</ele><time>2026-04-30T10:04:31.884Z</time></trkpt><trkpt lat="37.9315286" lon="21.6770869"><ele>287.0</ele><time>2026-04-30T10:04:32.884Z</time></trkpt><trkpt lat="37.9317634" lon="21.677138"><ele>288.0</ele><time>2026-04-30T10:04:33.884Z</time></trkpt><trkpt lat="37.9320084" lon="21.6771858"><ele>288.0</ele><time>2026-04-30T10:04:34.883Z</time></trkpt><trkpt lat="37.9322617" lon="21.6772285"><ele>288.0</ele><time>2026-04-30T10:04:35.883Z</time></trkpt><trkpt lat="37.9325215" lon="21.6772475"><ele>285.5</ele><time>2026-04-30T10:04:36.884Z</time></trkpt><trkpt lat="37.9327822" lon="21.6772714"><ele>283.0</ele><time>2026-04-30T10:04:37.883Z</time></trkpt><trkpt lat="37.9330448" lon="21.6772925"><ele>283.0</ele><time>2026-04-30T10:04:38.883Z</time></trkpt><trkpt lat="37.9333091" lon="21.6773171"><ele>283.0</ele><time>2026-04-30T10:04:39.884Z</time></trkpt><trkpt lat="37.9335748" lon="21.6773407"><ele>284.0</ele><time>2026-04-30T10:04:40.884Z</time></trkpt><trkpt lat="37.9338414" lon="21.6773791"><ele>285.0</ele><time>2026-04-30T10:04:41.883Z</time></trkpt><trkpt lat="37.9341128" lon="21.6774041"><ele>284.5</ele><time>2026-04-30T10:04:42.884Z</time></trkpt><trkpt lat="37.9343875" lon="21.6774164"><ele>284.0</ele><time>2026-04-30T10:04:43.884Z</time></trkpt><trkpt lat="37.9346613" lon="21.677428"><ele>284.0</ele><time>2026-04-30T10:04:44.884Z</time></trkpt><trkpt lat="37.9349267" lon="21.6774508"><ele>284.0</ele><time>2026-04-30T10:04:45.884Z</time></trkpt><trkpt lat="37.9351972" lon="21.6774673"><ele>286.5</ele><time>2026-04-30T10:04:46.884Z</time></trkpt><trkpt lat="37.9354665" lon="21.6774564"><ele>289.0</ele><time>2026-04-30T10:04:47.883Z</time></trkpt><trkpt lat="37.9357256" lon="21.6774632"><ele>289.0</ele><time>2026-04-30T10:04:48.883Z</time></trkpt><trkpt lat="37.9359787" lon="21.6774634"><ele>289.0</ele><time>2026-04-30T10:04:49.884Z</time></trkpt><trkpt lat="37.9362263" lon="21.677454"><ele>289.0</ele><time>2026-04-30T10:04:50.884Z</time></trkpt><trkpt lat="37.9364598" lon="21.6774455"><ele>289.0</ele><time>2026-04-30T10:04:51.883Z</time></trkpt><trkpt lat="37.9366804" lon="21.6774409"><ele>289.66666666666663</ele><time>2026-04-30T10:04:52.884Z</time></trkpt><trkpt lat="37.9368839" lon="21.6774342"><ele>290.3333333333333</ele><time>2026-04-30T10:04:53.884Z</time></trkpt><trkpt lat="37.9370768" lon="21.6774255"><ele>291.0</ele><time>2026-04-30T10:04:54.883Z</time></trkpt><trkpt lat="37.93727" lon="21.6774124"><ele>291.0</ele><time>2026-04-30T10:04:55.883Z</time></trkpt><trkpt lat="37.9374482" lon="21.6774074"><ele>291.0</ele><time>2026-04-30T10:04:56.884Z</time></trkpt><trkpt lat="37.9376196" lon="21.6774102"><ele>291.0</ele><time>2026-04-30T10:04:57.884Z</time></trkpt><trkpt lat="37.9377885" lon="21.6774104"><ele>291.6666666666667</ele><time>2026-04-30T10:04:58.883Z</time></trkpt><trkpt lat="37.937964" lon="21.6774137"><ele>292.33333333333337</ele><time>2026-04-30T10:04:59.883Z</time></trkpt><trkpt lat="37.9381442" lon="21.6774246"><ele>293.0</ele><time>2026-04-30T10:05:00.884Z</time></trkpt><trkpt lat="37.9383263" lon="21.6774399"><ele>291.6666666666667</ele><time>2026-04-30T10:05:01.883Z</time></trkpt><trkpt lat="37.9385045" lon="21.6774584"><ele>290.3333333333333</ele><time>2026-04-30T10:05:02.884Z</time></trkpt><trkpt lat="37.9386891" lon="21.6774868"><ele>289.0</ele><time>2026-04-30T10:05:03.884Z</time></trkpt><trkpt lat="37.9388724" lon="21.6775183"><ele>289.0</ele><time>2026-04-30T10:05:04.884Z</time></trkpt><trkpt lat="37.9390538" lon="21.6775473"><ele>289.0</ele><time>2026-04-30T10:05:05.883Z</time></trkpt><trkpt lat="37.9392404" lon="21.677583"><ele>289.0</ele><time>2026-04-30T10:05:06.883Z</time></trkpt><trkpt lat="37.9394371" lon="21.6776179"><ele>288.0</ele><time>2026-04-30T10:05:07.884Z</time></trkpt><trkpt lat="37.9396354" lon="21.6776446"><ele>287.0</ele><time>2026-04-30T10:05:08.884Z</time></trkpt><trkpt lat="37.9398364" lon="21.6776604"><ele>286.0</ele><time>2026-04-30T10:05:09.884Z</time></trkpt><trkpt lat="37.9400312" lon="21.6776498"><ele>286.3333333333333</ele><time>2026-04-30T10:05:10.884Z</time></trkpt><trkpt lat="37.9402204" lon="21.6776012"><ele>286.6666666666667</ele><time>2026-04-30T10:05:11.883Z</time></trkpt><trkpt lat="37.9403946" lon="21.6775208"><ele>287.0</ele><time>2026-04-30T10:05:12.883Z</time></trkpt><trkpt lat="37.9405681" lon="21.6773865"><ele>287.0</ele><time>2026-04-30T10:05:13.883Z</time></trkpt><trkpt lat="37.9407398" lon="21.6772251"><ele>287.0</ele><time>2026-04-30T10:05:14.883Z</time></trkpt><trkpt lat="37.9409081" lon="21.6770382"><ele>287.0</ele><time>2026-04-30T10:05:15.884Z</time></trkpt><trkpt lat="37.9410615" lon="21.6768716"><ele>288.33333333333337</ele><time>2026-04-30T10:05:16.884Z</time></trkpt><trkpt lat="37.9412094" lon="21.6767118"><ele>289.6666666666667</ele><time>2026-04-30T10:05:17.883Z</time></trkpt><trkpt lat="37.9413521" lon="21.6765762"><ele>291.0</ele><time>2026-04-30T10:05:18.883Z</time></trkpt><trkpt lat="37.9414877" lon="21.6764567"><ele>291.0</ele><time>2026-04-30T10:05:19.883Z</time></trkpt><trkpt lat="37.941619" lon="21.6763611"><ele>291.0</ele><time>2026-04-30T10:05:20.884Z</time></trkpt><trkpt lat="37.941763" lon="21.6762855"><ele>291.0</ele><time>2026-04-30T10:05:21.884Z</time></trkpt><trkpt lat="37.9419145" lon="21.6762383"><ele>291.3333333333333</ele><time>2026-04-30T10:05:22.883Z</time></trkpt><trkpt lat="37.942075" lon="21.6762163"><ele>291.66666666666663</ele><time>2026-04-30T10:05:23.883Z</time></trkpt><trkpt lat="37.9422532" lon="21.6762007"><ele>292.0</ele><time>2026-04-30T10:05:24.883Z</time></trkpt><trkpt lat="37.9424575" lon="21.6762067"><ele>293.0</ele><time>2026-04-30T10:05:25.884Z</time></trkpt><trkpt lat="37.9426768" lon="21.6762286"><ele>294.0</ele><time>2026-04-30T10:05:26.884Z</time></trkpt><trkpt lat="37.942911" lon="21.6762531"><ele>294.0</ele><time>2026-04-30T10:05:27.884Z</time></trkpt><trkpt lat="37.943164" lon="21.6762837"><ele>294.0</ele><time>2026-04-30T10:05:28.884Z</time></trkpt><trkpt lat="37.9434181" lon="21.6763103"><ele>295.5</ele><time>2026-04-30T10:05:29.884Z</time></trkpt><trkpt lat="37.943676" lon="21.6763394"><ele>297.0</ele><time>2026-04-30T10:05:30.884Z</time></trkpt><trkpt lat="37.9439367" lon="21.6763621"><ele>297.0</ele><time>2026-04-30T10:05:31.883Z</time></trkpt><trkpt lat="37.944193" lon="21.6763904"><ele>297.0</ele><time>2026-04-30T10:05:32.884Z</time></trkpt><trkpt lat="37.9444352" lon="21.6764248"><ele>298.5</ele><time>2026-04-30T10:05:33.884Z</time></trkpt><trkpt lat="37.9446896" lon="21.6764661"><ele>300.0</ele><time>2026-04-30T10:05:34.883Z</time></trkpt><trkpt lat="37.9449404" lon="21.6765229"><ele>302.0</ele><time>2026-04-30T10:05:35.884Z</time></trkpt><trkpt lat="37.9452049" lon="21.6765891"><ele>304.0</ele><time>2026-04-30T10:05:36.884Z</time></trkpt><trkpt lat="37.9454597" lon="21.6766714"><ele>304.0</ele><time>2026-04-30T10:05:37.884Z</time></trkpt><trkpt lat="37.9457132" lon="21.676752"><ele>304.0</ele><time>2026-04-30T10:05:38.884Z</time></trkpt><trkpt lat="37.9459429" lon="21.6768298"><ele>306.5</ele><time>2026-04-30T10:05:39.884Z</time></trkpt><trkpt lat="37.9461647" lon="21.6769057"><ele>309.0</ele><time>2026-04-30T10:05:40.883Z</time></trkpt><trkpt lat="37.9463836" lon="21.6769794"><ele>309.0</ele><time>2026-04-30T10:05:41.884Z</time></trkpt><trkpt lat="37.9466023" lon="21.6770406"><ele>309.0</ele><time>2026-04-30T10:05:42.884Z</time></trkpt><trkpt lat="37.9468095" lon="21.6770801"><ele>309.0</ele><time>2026-04-30T10:05:43.884Z</time></trkpt><trkpt lat="37.9470149" lon="21.6770962"><ele>312.3333333333333</ele><time>2026-04-30T10:05:44.883Z</time></trkpt><trkpt lat="37.9472243" lon="21.6770815"><ele>315.66666666666663</ele><time>2026-04-30T10:05:45.883Z</time></trkpt><trkpt lat="37.9474434" lon="21.6770408"><ele>319.0</ele><time>2026-04-30T10:05:46.883Z</time></trkpt><trkpt lat="37.9476536" lon="21.6769986"><ele>320.0</ele><time>2026-04-30T10:05:47.884Z</time></trkpt><trkpt lat="37.9478666" lon="21.67695"><ele>321.0</ele><time>2026-04-30T10:05:48.883Z</time></trkpt><trkpt lat="37.9480759" lon="21.6769059"><ele>322.0</ele><time>2026-04-30T10:05:49.883Z</time></trkpt><trkpt lat="37.9482847" lon="21.6768704"><ele>316.0</ele><time>2026-04-30T10:05:50.883Z</time></trkpt><trkpt lat="37.9484908" lon="21.6768281"><ele>310.0</ele><time>2026-04-30T10:05:51.883Z</time></trkpt><trkpt lat="37.9486964" lon="21.676805"><ele>304.0</ele><time>2026-04-30T10:05:52.884Z</time></trkpt><trkpt lat="37.9489078" lon="21.676789"><ele>304.0</ele><time>2026-04-30T10:05:53.884Z</time></trkpt><trkpt lat="37.9491197" lon="21.6767977"><ele>304.0</ele><time>2026-04-30T10:05:54.884Z</time></trkpt><trkpt lat="37.949338" lon="21.6768361"><ele>304.0</ele><time>2026-04-30T10:05:55.883Z</time></trkpt><trkpt lat="37.9495694" lon="21.6768831"><ele>304.0</ele><time>2026-04-30T10:05:56.884Z</time></trkpt><trkpt lat="37.9498059" lon="21.6769371"><ele>304.0</ele><time>2026-04-30T10:05:57.884Z</time></trkpt><trkpt lat="37.9500444" lon="21.6769874"><ele>301.0</ele><time>2026-04-30T10:05:58.883Z</time></trkpt><trkpt lat="37.9502772" lon="21.6770351"><ele>298.0</ele><time>2026-04-30T10:05:59.883Z</time></trkpt><trkpt lat="37.9505165" lon="21.6770646"><ele>298.0</ele><time>2026-04-30T10:06:00.884Z</time></trkpt><trkpt lat="37.9507579" lon="21.6770729"><ele>298.0</ele><time>2026-04-30T10:06:01.884Z</time></trkpt><trkpt lat="37.9510054" lon="21.6770356"><ele>296.5</ele><time>2026-04-30T10:06:02.884Z</time></trkpt><trkpt lat="37.951255" lon="21.6769968"><ele>295.0</ele><time>2026-04-30T10:06:03.884Z</time></trkpt><trkpt lat="37.9515153" lon="21.6769508"><ele>295.0</ele><time>2026-04-30T10:06:04.884Z</time></trkpt><trkpt lat="37.9517804" lon="21.6768939"><ele>295.0</ele><time>2026-04-30T10:06:05.883Z</time></trkpt><trkpt lat="37.9520539" lon="21.6768363"><ele>295.0</ele><time>2026-04-30T10:06:06.884Z</time></trkpt><trkpt lat="37.9523148" lon="21.6767832"><ele>295.0</ele><time>2026-04-30T10:06:07.884Z</time></trkpt><trkpt lat="37.9525891" lon="21.6767434"><ele>296.5</ele><time>2026-04-30T10:06:08.883Z</time></trkpt><trkpt lat="37.9528555" lon="21.6766931"><ele>298.0</ele><time>2026-04-30T10:06:09.884Z</time></trkpt><trkpt lat="37.953118" lon="21.6766356"><ele>298.0</ele><time>2026-04-30T10:06:10.883Z</time></trkpt><trkpt lat="37.9533834" lon="21.6765841"><ele>298.0</ele><time>2026-04-30T10:06:11.884Z</time></trkpt><trkpt lat="37.9536359" lon="21.6765239"><ele>298.0</ele><time>2026-04-30T10:06:12.883Z</time></trkpt><trkpt lat="37.9538773" lon="21.676476"><ele>298.0</ele><time>2026-04-30T10:06:13.884Z</time></trkpt><trkpt lat="37.9541148" lon="21.6764244"><ele>298.0</ele><time>2026-04-30T10:06:14.884Z</time></trkpt><trkpt lat="37.9543445" lon="21.6763735"><ele>298.0</ele><time>2026-04-30T10:06:15.883Z</time></trkpt><trkpt lat="37.9545658" lon="21.6763176"><ele>298.0</ele><time>2026-04-30T10:06:16.884Z</time></trkpt><trkpt lat="37.9547761" lon="21.6762775"><ele>298.0</ele><time>2026-04-30T10:06:17.884Z</time></trkpt><trkpt lat="37.9549805" lon="21.6762427"><ele>298.0</ele><time>2026-04-30T10:06:18.884Z</time></trkpt><trkpt lat="37.9551892" lon="21.6762415"><ele>298.66666666666663</ele><time>2026-04-30T10:06:19.884Z</time></trkpt><trkpt lat="37.9553973" lon="21.6762657"><ele>299.3333333333333</ele><time>2026-04-30T10:06:20.884Z</time></trkpt><trkpt lat="37.9556084" lon="21.6763126"><ele>300.0</ele><time>2026-04-30T10:06:21.883Z</time></trkpt><trkpt lat="37.9558255" lon="21.676379"><ele>301.0</ele><time>2026-04-30T10:06:22.884Z</time></trkpt><trkpt lat="37.9560554" lon="21.6764526"><ele>302.0</ele><time>2026-04-30T10:06:23.883Z</time></trkpt><trkpt lat="37.9562865" lon="21.6765273"><ele>302.0</ele><time>2026-04-30T10:06:24.884Z</time></trkpt><trkpt lat="37.9565246" lon="21.6766056"><ele>302.0</ele><time>2026-04-30T10:06:25.884Z</time></trkpt><trkpt lat="37.9567603" lon="21.6766759"><ele>304.5</ele><time>2026-04-30T10:06:26.883Z</time></trkpt><trkpt lat="37.9569876" lon="21.6767549"><ele>307.0</ele><time>2026-04-30T10:06:27.884Z</time></trkpt><trkpt lat="37.9572187" lon="21.6768351"><ele>307.0</ele><time>2026-04-30T10:06:28.883Z</time></trkpt><trkpt lat="37.9574533" lon="21.6769166"><ele>307.0</ele><time>2026-04-30T10:06:29.883Z</time></trkpt><trkpt lat="37.9576913" lon="21.6770004"><ele>306.5</ele><time>2026-04-30T10:06:30.884Z</time></trkpt><trkpt lat="37.957939" lon="21.6770844"><ele>306.0</ele><time>2026-04-30T10:06:31.883Z</time></trkpt><trkpt lat="37.9581757" lon="21.6771632"><ele>307.5</ele><time>2026-04-30T10:06:32.884Z</time></trkpt><trkpt lat="37.9584169" lon="21.6772526"><ele>309.0</ele><time>2026-04-30T10:06:33.884Z</time></trkpt><trkpt lat="37.958666" lon="21.6773426"><ele>309.0</ele><time>2026-04-30T10:06:34.884Z</time></trkpt><trkpt lat="37.9589184" lon="21.6774183"><ele>309.0</ele><time>2026-04-30T10:06:35.884Z</time></trkpt><trkpt lat="37.9591639" lon="21.6775054"><ele>310.0</ele><time>2026-04-30T10:06:36.883Z</time></trkpt><trkpt lat="37.9594097" lon="21.6775869"><ele>311.0</ele><time>2026-04-30T10:06:37.884Z</time></trkpt><trkpt lat="37.9596547" lon="21.6776693"><ele>311.0</ele><time>2026-04-30T10:06:38.883Z</time></trkpt><trkpt lat="37.9599033" lon="21.6777499"><ele>311.0</ele><time>2026-04-30T10:06:39.883Z</time></trkpt><trkpt lat="37.9601588" lon="21.6778339"><ele>310.5</ele><time>2026-04-30T10:06:40.883Z</time></trkpt><trkpt lat="37.9604159" lon="21.6779081"><ele>310.0</ele><time>2026-04-30T10:06:41.883Z</time></trkpt><trkpt lat="37.9606748" lon="21.6779903"><ele>310.5</ele><time>2026-04-30T10:06:42.884Z</time></trkpt><trkpt lat="37.9609354" lon="21.6780727"><ele>311.0</ele><time>2026-04-30T10:06:43.884Z</time></trkpt><trkpt lat="37.961216" lon="21.6781538"><ele>311.0</ele><time>2026-04-30T10:06:44.883Z</time></trkpt><trkpt lat="37.9614941" lon="21.6782398"><ele>311.0</ele><time>2026-04-30T10:06:45.884Z</time></trkpt><trkpt lat="37.9617781" lon="21.678326"><ele>311.0</ele><time>2026-04-30T10:06:46.884Z</time></trkpt><trkpt lat="37.9620614" lon="21.6784092"><ele>311.0</ele><time>2026-04-30T10:06:47.883Z</time></trkpt><trkpt lat="37.9623543" lon="21.678497"><ele>310.5</ele><time>2026-04-30T10:06:48.883Z</time></trkpt><trkpt lat="37.9626416" lon="21.6785789"><ele>310.0</ele><time>2026-04-30T10:06:49.884Z</time></trkpt><trkpt lat="37.9629205" lon="21.6786543"><ele>309.5</ele><time>2026-04-30T10:06:50.884Z</time></trkpt><trkpt lat="37.9631782" lon="21.6787256"><ele>309.0</ele><time>2026-04-30T10:06:51.883Z</time></trkpt><trkpt lat="37.9634314" lon="21.6787935"><ele>311.0</ele><time>2026-04-30T10:06:52.883Z</time></trkpt><trkpt lat="37.9636712" lon="21.678865"><ele>313.0</ele><time>2026-04-30T10:06:53.883Z</time></trkpt><trkpt lat="37.9639151" lon="21.6789309"><ele>313.0</ele><time>2026-04-30T10:06:54.884Z</time></trkpt><trkpt lat="37.9641671" lon="21.6790092"><ele>313.0</ele><time>2026-04-30T10:06:55.883Z</time></trkpt><trkpt lat="37.9644146" lon="21.6790768"><ele>313.5</ele><time>2026-04-30T10:06:56.884Z</time></trkpt><trkpt lat="37.9646723" lon="21.679138"><ele>314.0</ele><time>2026-04-30T10:06:57.883Z</time></trkpt><trkpt lat="37.9649186" lon="21.6792133"><ele>313.5</ele><time>2026-04-30T10:06:58.883Z</time></trkpt><trkpt lat="37.9651614" lon="21.6792884"><ele>313.0</ele><time>2026-04-30T10:06:59.884Z</time></trkpt><trkpt lat="37.9654117" lon="21.6793398"><ele>313.0</ele><time>2026-04-30T10:07:00.883Z</time></trkpt><trkpt lat="37.9656665" lon="21.6793985"><ele>313.0</ele><time>2026-04-30T10:07:01.883Z</time></trkpt><trkpt lat="37.9659147" lon="21.6794724"><ele>313.5</ele><time>2026-04-30T10:07:02.884Z</time></trkpt><trkpt lat="37.9661626" lon="21.6795448"><ele>314.0</ele><time>2026-04-30T10:07:03.884Z</time></trkpt><trkpt lat="37.9664066" lon="21.6796177"><ele>314.0</ele><time>2026-04-30T10:07:04.884Z</time></trkpt><trkpt lat="37.9666547" lon="21.6796796"><ele>314.0</ele><time>2026-04-30T10:07:05.884Z</time></trkpt><trkpt lat="37.9669006" lon="21.6797397"><ele>314.5</ele><time>2026-04-30T10:07:06.884Z</time></trkpt><trkpt lat="37.9671504" lon="21.6798007"><ele>315.0</ele><time>2026-04-30T10:07:07.884Z</time></trkpt><trkpt lat="37.967398" lon="21.6798552"><ele>316.0</ele><time>2026-04-30T10:07:08.883Z</time></trkpt><trkpt lat="37.9676406" lon="21.6799237"><ele>317.0</ele><time>2026-04-30T10:07:09.884Z</time></trkpt><trkpt lat="37.9678858" lon="21.6799944"><ele>317.0</ele><time>2026-04-30T10:07:10.884Z</time></trkpt><trkpt lat="37.9681225" lon="21.6800727"><ele>317.0</ele><time>2026-04-30T10:07:11.883Z</time></trkpt><trkpt lat="37.9683483" lon="21.6801523"><ele>317.0</ele><time>2026-04-30T10:07:12.883Z</time></trkpt><trkpt lat="37.9685679" lon="21.6802487"><ele>317.0</ele><time>2026-04-30T10:07:13.884Z</time></trkpt><trkpt lat="37.968781" lon="21.6803662"><ele>317.0</ele><time>2026-04-30T10:07:14.883Z</time></trkpt><trkpt lat="37.9689951" lon="21.68051"><ele>317.0</ele><time>2026-04-30T10:07:15.883Z</time></trkpt><trkpt lat="37.9692099" lon="21.6806668"><ele>316.5</ele><time>2026-04-30T10:07:16.884Z</time></trkpt><trkpt lat="37.9694228" lon="21.6808232"><ele>316.0</ele><time>2026-04-30T10:07:17.884Z</time></trkpt><trkpt lat="37.9696344" lon="21.6809724"><ele>316.0</ele><time>2026-04-30T10:07:18.883Z</time></trkpt><trkpt lat="37.9698599" lon="21.6811083"><ele>316.0</ele><time>2026-04-30T10:07:19.883Z</time></trkpt><trkpt lat="37.9701018" lon="21.6812356"><ele>316.0</ele><time>2026-04-30T10:07:20.883Z</time></trkpt><trkpt lat="37.9703614" lon="21.6813671"><ele>316.0</ele><time>2026-04-30T10:07:21.884Z</time></trkpt><trkpt lat="37.9706202" lon="21.6814873"><ele>317.0</ele><time>2026-04-30T10:07:22.883Z</time></trkpt><trkpt lat="37.9708757" lon="21.6816088"><ele>318.0</ele><time>2026-04-30T10:07:23.884Z</time></trkpt><trkpt lat="37.9711271" lon="21.6817282"><ele>318.0</ele><time>2026-04-30T10:07:24.883Z</time></trkpt><trkpt lat="37.9713805" lon="21.6818406"><ele>318.0</ele><time>2026-04-30T10:07:25.883Z</time></trkpt><trkpt lat="37.9716379" lon="21.6819385"><ele>316.0</ele><time>2026-04-30T10:07:26.884Z</time></trkpt><trkpt lat="37.9718935" lon="21.6820483"><ele>314.0</ele><time>2026-04-30T10:07:27.884Z</time></trkpt><trkpt lat="37.9721504" lon="21.6821486"><ele>314.0</ele><time>2026-04-30T10:07:28.884Z</time></trkpt><trkpt lat="37.9724032" lon="21.6822525"><ele>314.0</ele><time>2026-04-30T10:07:29.883Z</time></trkpt><trkpt lat="37.972654" lon="21.6823598"><ele>316.0</ele><time>2026-04-30T10:07:30.883Z</time></trkpt><trkpt lat="37.9729036" lon="21.6824691"><ele>318.0</ele><time>2026-04-30T10:07:31.883Z</time></trkpt><trkpt lat="37.9731521" lon="21.6825799"><ele>318.5</ele><time>2026-04-30T10:07:32.883Z</time></trkpt><trkpt lat="37.9733965" lon="21.6826905"><ele>319.0</ele><time>2026-04-30T10:07:33.883Z</time></trkpt><trkpt lat="37.9736358" lon="21.6828018"><ele>319.0</ele><time>2026-04-30T10:07:34.883Z</time></trkpt><trkpt lat="37.9738697" lon="21.6829083"><ele>319.0</ele><time>2026-04-30T10:07:35.883Z</time></trkpt><trkpt lat="37.974093" lon="21.6830066"><ele>320.0</ele><time>2026-04-30T10:07:36.884Z</time></trkpt><trkpt lat="37.9743022" lon="21.6831082"><ele>321.0</ele><time>2026-04-30T10:07:37.884Z</time></trkpt><trkpt lat="37.9745148" lon="21.6832018"><ele>322.0</ele><time>2026-04-30T10:07:38.883Z</time></trkpt><trkpt lat="37.9747174" lon="21.6832935"><ele>322.0</ele><time>2026-04-30T10:07:39.883Z</time></trkpt><trkpt lat="37.9749123" lon="21.6833875"><ele>322.0</ele><time>2026-04-30T10:07:40.883Z</time></trkpt><trkpt lat="37.9751024" lon="21.6835002"><ele>322.0</ele><time>2026-04-30T10:07:41.883Z</time></trkpt><trkpt lat="37.9752836" lon="21.6836341"><ele>321.3333333333333</ele><time>2026-04-30T10:07:42.884Z</time></trkpt><trkpt lat="37.9754619" lon="21.6837899"><ele>320.6666666666667</ele><time>2026-04-30T10:07:43.884Z</time></trkpt><trkpt lat="37.975643" lon="21.6839749"><ele>320.0</ele><time>2026-04-30T10:07:44.884Z</time></trkpt><trkpt lat="37.9758171" lon="21.6841654"><ele>320.0</ele><time>2026-04-30T10:07:45.884Z</time></trkpt><trkpt lat="37.975993" lon="21.6843591"><ele>320.0</ele><time>2026-04-30T10:07:46.884Z</time></trkpt><trkpt lat="37.9761704" lon="21.6845521"><ele>320.0</ele><time>2026-04-30T10:07:47.883Z</time></trkpt><trkpt lat="37.9763576" lon="21.6847443"><ele>320.0</ele><time>2026-04-30T10:07:48.883Z</time></trkpt><trkpt lat="37.9765404" lon="21.6849292"><ele>319.5</ele><time>2026-04-30T10:07:49.884Z</time></trkpt><trkpt lat="37.9767276" lon="21.685108"><ele>319.0</ele><time>2026-04-30T10:07:50.884Z</time></trkpt><trkpt lat="37.9769272" lon="21.6852793"><ele>319.0</ele><time>2026-04-30T10:07:51.884Z</time></trkpt><trkpt lat="37.9771328" lon="21.6854462"><ele>319.0</ele><time>2026-04-30T10:07:52.884Z</time></trkpt><trkpt lat="37.9773381" lon="21.6856125"><ele>321.0</ele><time>2026-04-30T10:07:53.884Z</time></trkpt><trkpt lat="37.9775407" lon="21.6857624"><ele>323.0</ele><time>2026-04-30T10:07:54.884Z</time></trkpt><trkpt lat="37.9777415" lon="21.6859092"><ele>323.0</ele><time>2026-04-30T10:07:55.883Z</time></trkpt><trkpt lat="37.9779421" lon="21.686045"><ele>323.0</ele><time>2026-04-30T10:07:56.883Z</time></trkpt><trkpt lat="37.978147" lon="21.6861664"><ele>323.0</ele><time>2026-04-30T10:07:57.884Z</time></trkpt><trkpt lat="37.9783557" lon="21.686266"><ele>323.0</ele><time>2026-04-30T10:07:58.884Z</time></trkpt><trkpt lat="37.9785725" lon="21.6863428"><ele>323.0</ele><time>2026-04-30T10:07:59.884Z</time></trkpt><trkpt lat="37.9787952" lon="21.6863991"><ele>323.0</ele><time>2026-04-30T10:08:00.883Z</time></trkpt><trkpt lat="37.9790262" lon="21.6864394"><ele>323.0</ele><time>2026-04-30T10:08:01.883Z</time></trkpt><trkpt lat="37.9792776" lon="21.6864406"><ele>323.0</ele><time>2026-04-30T10:08:02.883Z</time></trkpt><trkpt lat="37.9795293" lon="21.6864701"><ele>323.0</ele><time>2026-04-30T10:08:03.883Z</time></trkpt><trkpt lat="37.9797888" lon="21.6865025"><ele>323.0</ele><time>2026-04-30T10:08:04.884Z</time></trkpt><trkpt lat="37.9800632" lon="21.6865418"><ele>323.0</ele><time>2026-04-30T10:08:05.883Z</time></trkpt><trkpt lat="37.9803498" lon="21.6865709"><ele>323.0</ele><time>2026-04-30T10:08:06.884Z</time></trkpt><trkpt lat="37.9806364" lon="21.6865998"><ele>323.0</ele><time>2026-04-30T10:08:07.883Z</time></trkpt><trkpt lat="37.9809178" lon="21.6866372"><ele>323.5</ele><time>2026-04-30T10:08:08.883Z</time></trkpt><trkpt lat="37.9811989" lon="21.6866728"><ele>324.0</ele><time>2026-04-30T10:08:09.884Z</time></trkpt><trkpt lat="37.9814758" lon="21.6867143"><ele>323.5</ele><time>2026-04-30T10:08:10.883Z</time></trkpt><trkpt lat="37.9817486" lon="21.6867543"><ele>323.0</ele><time>2026-04-30T10:08:11.884Z</time></trkpt><trkpt lat="37.9820115" lon="21.6867853"><ele>323.0</ele><time>2026-04-30T10:08:12.883Z</time></trkpt><trkpt lat="37.9822706" lon="21.6868183"><ele>323.0</ele><time>2026-04-30T10:08:13.883Z</time></trkpt><trkpt lat="37.982518" lon="21.6868615"><ele>323.5</ele><time>2026-04-30T10:08:14.883Z</time></trkpt><trkpt lat="37.9827668" lon="21.6869066"><ele>324.0</ele><time>2026-04-30T10:08:15.883Z</time></trkpt><trkpt lat="37.9830111" lon="21.68694"><ele>324.0</ele><time>2026-04-30T10:08:16.883Z</time></trkpt><trkpt lat="37.9832463" lon="21.6869844"><ele>324.0</ele><time>2026-04-30T10:08:17.883Z</time></trkpt><trkpt lat="37.9834755" lon="21.6870577"><ele>323.5</ele><time>2026-04-30T10:08:18.884Z</time></trkpt><trkpt lat="37.9837057" lon="21.6871536"><ele>323.0</ele><time>2026-04-30T10:08:19.883Z</time></trkpt><trkpt lat="37.9839482" lon="21.6872661"><ele>323.5</ele><time>2026-04-30T10:08:20.884Z</time></trkpt><trkpt lat="37.9841835" lon="21.6874106"><ele>324.0</ele><time>2026-04-30T10:08:21.884Z</time></trkpt><trkpt lat="37.9844288" lon="21.6875709"><ele>324.0</ele><time>2026-04-30T10:08:22.884Z</time></trkpt><trkpt lat="37.9846744" lon="21.6877245"><ele>324.0</ele><time>2026-04-30T10:08:23.884Z</time></trkpt><trkpt lat="37.9849176" lon="21.6878804"><ele>324.0</ele><time>2026-04-30T10:08:24.884Z</time></trkpt><trkpt lat="37.9851622" lon="21.6880402"><ele>324.0</ele><time>2026-04-30T10:08:25.884Z</time></trkpt><trkpt lat="37.985402" lon="21.6882001"><ele>324.0</ele><time>2026-04-30T10:08:26.883Z</time></trkpt><trkpt lat="37.9856456" lon="21.6883586"><ele>324.0</ele><time>2026-04-30T10:08:27.883Z</time></trkpt><trkpt lat="37.9858954" lon="21.6885225"><ele>325.0</ele><time>2026-04-30T10:08:28.884Z</time></trkpt><trkpt lat="37.9861432" lon="21.6886817"><ele>326.0</ele><time>2026-04-30T10:08:29.884Z</time></trkpt><trkpt lat="37.9863934" lon="21.6888434"><ele>326.0</ele><time>2026-04-30T10:08:30.883Z</time></trkpt><trkpt lat="37.9866417" lon="21.6890051"><ele>326.0</ele><time>2026-04-30T10:08:31.883Z</time></trkpt><trkpt lat="37.9868865" lon="21.6891613"><ele>326.0</ele><time>2026-04-30T10:08:32.883Z</time></trkpt><trkpt lat="37.9871299" lon="21.6893176"><ele>326.0</ele><time>2026-04-30T10:08:33.884Z</time></trkpt><trkpt lat="37.9873741" lon="21.6894719"><ele>327.5</ele><time>2026-04-30T10:08:34.884Z</time></trkpt><trkpt lat="37.987614" lon="21.6896294"><ele>329.0</ele><time>2026-04-30T10:08:35.884Z</time></trkpt><trkpt lat="37.9878499" lon="21.68978"><ele>329.0</ele><time>2026-04-30T10:08:36.884Z</time></trkpt><trkpt lat="37.9880839" lon="21.6899367"><ele>329.0</ele><time>2026-04-30T10:08:37.884Z</time></trkpt><trkpt lat="37.9883208" lon="21.6900772"><ele>328.0</ele><time>2026-04-30T10:08:38.883Z</time></trkpt><trkpt lat="37.9885576" lon="21.6902319"><ele>327.0</ele><time>2026-04-30T10:08:39.884Z</time></trkpt><trkpt lat="37.9887931" lon="21.6903856"><ele>327.0</ele><time>2026-04-30T10:08:40.884Z</time></trkpt><trkpt lat="37.9890275" lon="21.6905342"><ele>327.0</ele><time>2026-04-30T10:08:41.883Z</time></trkpt><trkpt lat="37.9892686" lon="21.6906771"><ele>328.0</ele><time>2026-04-30T10:08:42.883Z</time></trkpt><trkpt lat="37.9895008" lon="21.6908359"><ele>329.0</ele><time>2026-04-30T10:08:43.884Z</time></trkpt><trkpt lat="37.9897326" lon="21.6909824"><ele>329.5</ele><time>2026-04-30T10:08:44.884Z</time></trkpt><trkpt lat="37.9899647" lon="21.6911381"><ele>330.0</ele><time>2026-04-30T10:08:45.884Z</time></trkpt><trkpt lat="37.9902064" lon="21.6912879"><ele>331.0</ele><time>2026-04-30T10:08:46.883Z</time></trkpt><trkpt lat="37.9904372" lon="21.6914342"><ele>332.0</ele><time>2026-04-30T10:08:47.884Z</time></trkpt><trkpt lat="37.9906677" lon="21.6915831"><ele>332.5</ele><time>2026-04-30T10:08:48.884Z</time></trkpt><trkpt lat="37.9909019" lon="21.6917355"><ele>333.0</ele><time>2026-04-30T10:08:49.883Z</time></trkpt><trkpt lat="37.9911361" lon="21.6918882"><ele>332.5</ele><time>2026-04-30T10:08:50.884Z</time></trkpt><trkpt lat="37.9913704" lon="21.6920404"><ele>332.0</ele><time>2026-04-30T10:08:51.883Z</time></trkpt><trkpt lat="37.9915989" lon="21.6921919"><ele>333.0</ele><time>2026-04-30T10:08:52.884Z</time></trkpt><trkpt lat="37.991816" lon="21.6923453"><ele>334.0</ele><time>2026-04-30T10:08:53.883Z</time></trkpt><trkpt lat="37.9920149" lon="21.6924912"><ele>334.0</ele><time>2026-04-30T10:08:54.883Z</time></trkpt><trkpt lat="37.9921979" lon="21.6926424"><ele>334.0</ele><time>2026-04-30T10:08:55.884Z</time></trkpt><trkpt lat="37.9923686" lon="21.6927987"><ele>334.0</ele><time>2026-04-30T10:08:56.883Z</time></trkpt><trkpt lat="37.9925161" lon="21.6929852"><ele>334.5</ele><time>2026-04-30T10:08:57.884Z</time></trkpt><trkpt lat="37.9926544" lon="21.6932217"><ele>335.0</ele><time>2026-04-30T10:08:58.884Z</time></trkpt><trkpt lat="37.9927935" lon="21.6934804"><ele>335.0</ele><time>2026-04-30T10:08:59.884Z</time></trkpt><trkpt lat="37.9929242" lon="21.6937639"><ele>335.0</ele><time>2026-04-30T10:09:00.883Z</time></trkpt><trkpt lat="37.9930503" lon="21.6940472"><ele>335.0</ele><time>2026-04-30T10:09:01.884Z</time></trkpt><trkpt lat="37.9931723" lon="21.6943349"><ele>335.0</ele><time>2026-04-30T10:09:02.883Z</time></trkpt><trkpt lat="37.9932963" lon="21.6946026"><ele>336.5</ele><time>2026-04-30T10:09:03.884Z</time></trkpt><trkpt lat="37.9934094" lon="21.694862"><ele>338.0</ele><time>2026-04-30T10:09:04.883Z</time></trkpt><trkpt lat="37.9935139" lon="21.6951057"><ele>338.33333333333337</ele><time>2026-04-30T10:09:05.884Z</time></trkpt><trkpt lat="37.9936078" lon="21.6953227"><ele>338.6666666666667</ele><time>2026-04-30T10:09:06.884Z</time></trkpt><trkpt lat="37.9937008" lon="21.695497"><ele>339.0</ele><time>2026-04-30T10:09:07.884Z</time></trkpt><trkpt lat="37.9938249" lon="21.6956326"><ele>339.0</ele><time>2026-04-30T10:09:08.883Z</time></trkpt><trkpt lat="37.9940027" lon="21.6957554"><ele>339.0</ele><time>2026-04-30T10:09:09.884Z</time></trkpt><trkpt lat="37.9942067" lon="21.6958653"><ele>339.0</ele><time>2026-04-30T10:09:10.883Z</time></trkpt><trkpt lat="37.994441" lon="21.6959813"><ele>338.5</ele><time>2026-04-30T10:09:11.884Z</time></trkpt><trkpt lat="37.9946913" lon="21.6960995"><ele>338.0</ele><time>2026-04-30T10:09:12.883Z</time></trkpt><trkpt lat="37.9949581" lon="21.6962259"><ele>340.0</ele><time>2026-04-30T10:09:13.883Z</time></trkpt><trkpt lat="37.9952266" lon="21.6963512"><ele>342.0</ele><time>2026-04-30T10:09:14.883Z</time></trkpt><trkpt lat="37.995481" lon="21.6964726"><ele>342.0</ele><time>2026-04-30T10:09:15.884Z</time></trkpt><trkpt lat="37.9957302" lon="21.6965853"><ele>342.0</ele><time>2026-04-30T10:09:16.884Z</time></trkpt><trkpt lat="37.9959673" lon="21.696694"><ele>343.0</ele><time>2026-04-30T10:09:17.884Z</time></trkpt><trkpt lat="37.9961903" lon="21.6967989"><ele>344.0</ele><time>2026-04-30T10:09:18.884Z</time></trkpt><trkpt lat="37.9964025" lon="21.6968958"><ele>344.0</ele><time>2026-04-30T10:09:19.884Z</time></trkpt><trkpt lat="37.9965993" lon="21.6969856"><ele>344.0</ele><time>2026-04-30T10:09:20.884Z</time></trkpt><trkpt lat="37.9967998" lon="21.6970814"><ele>344.0</ele><time>2026-04-30T10:09:21.884Z</time></trkpt><trkpt lat="37.9969912" lon="21.6971762"><ele>344.6666666666667</ele><time>2026-04-30T10:09:22.883Z</time></trkpt><trkpt lat="37.9971898" lon="21.6972687"><ele>345.3333333333333</ele><time>2026-04-30T10:09:23.883Z</time></trkpt><trkpt lat="37.9973788" lon="21.6973572"><ele>346.0</ele><time>2026-04-30T10:09:24.884Z</time></trkpt><trkpt lat="37.9975578" lon="21.6974357"><ele>346.0</ele><time>2026-04-30T10:09:25.883Z</time></trkpt><trkpt lat="37.9977345" lon="21.6975018"><ele>346.0</ele><time>2026-04-30T10:09:26.883Z</time></trkpt><trkpt lat="37.9979108" lon="21.6975444"><ele>346.0</ele><time>2026-04-30T10:09:27.883Z</time></trkpt><trkpt lat="37.998109" lon="21.6975606"><ele>346.0</ele><time>2026-04-30T10:09:28.883Z</time></trkpt><trkpt lat="37.9983157" lon="21.6975461"><ele>346.0</ele><time>2026-04-30T10:09:29.884Z</time></trkpt><trkpt lat="37.9985375" lon="21.6975176"><ele>346.0</ele><time>2026-04-30T10:09:30.883Z</time></trkpt><trkpt lat="37.9987743" lon="21.6974621"><ele>341.0</ele><time>2026-04-30T10:09:31.883Z</time></trkpt><trkpt lat="37.9990064" lon="21.6973995"><ele>336.0</ele><time>2026-04-30T10:09:32.884Z</time></trkpt><trkpt lat="37.9992256" lon="21.6973488"><ele>334.0</ele><time>2026-04-30T10:09:33.884Z</time></trkpt><trkpt lat="37.9994373" lon="21.6973035"><ele>332.0</ele><time>2026-04-30T10:09:34.884Z</time></trkpt><trkpt lat="37.999643" lon="21.6972544"><ele>330.0</ele><time>2026-04-30T10:09:35.883Z</time></trkpt><trkpt lat="37.9998204" lon="21.697218"><ele>330.0</ele><time>2026-04-30T10:09:36.884Z</time></trkpt><trkpt lat="37.9999849" lon="21.6971883"><ele>330.0</ele><time>2026-04-30T10:09:37.883Z</time></trkpt><trkpt lat="38.0001341" lon="21.697176"><ele>330.0</ele><time>2026-04-30T10:09:38.884Z</time></trkpt><trkpt lat="38.0002771" lon="21.6971954"><ele>330.0</ele><time>2026-04-30T10:09:39.883Z</time></trkpt><trkpt lat="38.0004069" lon="21.6972639"><ele>330.0</ele><time>2026-04-30T10:09:40.884Z</time></trkpt><trkpt lat="38.00052" lon="21.6973694"><ele>330.0</ele><time>2026-04-30T10:09:41.884Z</time></trkpt><trkpt lat="38.0006081" lon="21.6975283"><ele>330.0</ele><time>2026-04-30T10:09:42.883Z</time></trkpt><trkpt lat="38.0006664" lon="21.6977298"><ele>328.25</ele><time>2026-04-30T10:09:43.883Z</time></trkpt><trkpt lat="38.000715" lon="21.6979237"><ele>326.5</ele><time>2026-04-30T10:09:44.883Z</time></trkpt><trkpt lat="38.0007862" lon="21.6980877"><ele>324.75</ele><time>2026-04-30T10:09:45.884Z</time></trkpt><trkpt lat="38.0008754" lon="21.6982214"><ele>323.0</ele><time>2026-04-30T10:09:46.884Z</time></trkpt><trkpt lat="38.0010072" lon="21.6983162"><ele>322.6666666666667</ele><time>2026-04-30T10:09:47.884Z</time></trkpt><trkpt lat="38.0011473" lon="21.6983795"><ele>322.3333333333333</ele><time>2026-04-30T10:09:48.884Z</time></trkpt><trkpt lat="38.0013033" lon="21.6984055"><ele>322.0</ele><time>2026-04-30T10:09:49.883Z</time></trkpt><trkpt lat="38.001487" lon="21.6984002"><ele>322.0</ele><time>2026-04-30T10:09:50.884Z</time></trkpt><trkpt lat="38.0016603" lon="21.6983999"><ele>322.0</ele><time>2026-04-30T10:09:51.884Z</time></trkpt><trkpt lat="38.0018243" lon="21.6984257"><ele>322.0</ele><time>2026-04-30T10:09:52.884Z</time></trkpt><trkpt lat="38.0020003" lon="21.6984838"><ele>322.3333333333333</ele><time>2026-04-30T10:09:53.883Z</time></trkpt><trkpt lat="38.0021813" lon="21.6985782"><ele>322.6666666666667</ele><time>2026-04-30T10:09:54.884Z</time></trkpt><trkpt lat="38.0023612" lon="21.6986887"><ele>323.0</ele><time>2026-04-30T10:09:55.883Z</time></trkpt><trkpt lat="38.0025505" lon="21.6988118"><ele>323.0</ele><time>2026-04-30T10:09:56.884Z</time></trkpt><trkpt lat="38.0027485" lon="21.6989387"><ele>323.0</ele><time>2026-04-30T10:09:57.884Z</time></trkpt><trkpt lat="38.0029472" lon="21.6990765"><ele>323.0</ele><time>2026-04-30T10:09:58.883Z</time></trkpt><trkpt lat="38.0031497" lon="21.6992018"><ele>317.5</ele><time>2026-04-30T10:09:59.883Z</time></trkpt><trkpt lat="38.0033636" lon="21.6993123"><ele>312.0</ele><time>2026-04-30T10:10:00.883Z</time></trkpt><trkpt lat="38.0035738" lon="21.6994144"><ele>313.6666666666667</ele><time>2026-04-30T10:10:01.883Z</time></trkpt><trkpt lat="38.0037782" lon="21.6995065"><ele>315.33333333333337</ele><time>2026-04-30T10:10:02.884Z</time></trkpt><trkpt lat="38.0039762" lon="21.6995883"><ele>317.0</ele><time>2026-04-30T10:10:03.884Z</time></trkpt><trkpt lat="38.0041644" lon="21.6996684"><ele>317.0</ele><time>2026-04-30T10:10:04.884Z</time></trkpt><trkpt lat="38.0043446" lon="21.6997351"><ele>317.0</ele><time>2026-04-30T10:10:05.883Z</time></trkpt><trkpt lat="38.0045172" lon="21.6997846"><ele>317.0</ele><time>2026-04-30T10:10:06.884Z</time></trkpt><trkpt lat="38.004688" lon="21.6998113"><ele>317.0</ele><time>2026-04-30T10:10:07.884Z</time></trkpt><trkpt lat="38.0048637" lon="21.699801"><ele>317.0</ele><time>2026-04-30T10:10:08.883Z</time></trkpt><trkpt lat="38.005047" lon="21.6997315"><ele>317.0</ele><time>2026-04-30T10:10:09.884Z</time></trkpt><trkpt lat="38.0052314" lon="21.6996364"><ele>315.33333333333337</ele><time>2026-04-30T10:10:10.884Z</time></trkpt><trkpt lat="38.0054081" lon="21.6995459"><ele>313.6666666666667</ele><time>2026-04-30T10:10:11.884Z</time></trkpt><trkpt lat="38.0055861" lon="21.6994528"><ele>312.0</ele><time>2026-04-30T10:10:12.883Z</time></trkpt><trkpt lat="38.0057639" lon="21.6994006"><ele>312.3333333333333</ele><time>2026-04-30T10:10:13.884Z</time></trkpt><trkpt lat="38.0059504" lon="21.6993799"><ele>312.66666666666663</ele><time>2026-04-30T10:10:14.883Z</time></trkpt><trkpt lat="38.0061663" lon="21.699396"><ele>313.0</ele><time>2026-04-30T10:10:15.883Z</time></trkpt><trkpt lat="38.0064035" lon="21.6994455"><ele>313.0</ele><time>2026-04-30T10:10:16.883Z</time></trkpt><trkpt lat="38.0066488" lon="21.6994951"><ele>313.0</ele><time>2026-04-30T10:10:17.883Z</time></trkpt><trkpt lat="38.0069174" lon="21.6995574"><ele>314.5</ele><time>2026-04-30T10:10:18.884Z</time></trkpt><trkpt lat="38.0071929" lon="21.6996141"><ele>316.0</ele><time>2026-04-30T10:10:19.884Z</time></trkpt><trkpt lat="38.0074884" lon="21.6996761"><ele>310.5</ele><time>2026-04-30T10:10:20.883Z</time></trkpt><trkpt lat="38.0077936" lon="21.6997245"><ele>305.0</ele><time>2026-04-30T10:10:21.883Z</time></trkpt><trkpt lat="38.0080867" lon="21.6997461"><ele>302.5</ele><time>2026-04-30T10:10:22.883Z</time></trkpt><trkpt lat="38.0083709" lon="21.6997542"><ele>300.0</ele><time>2026-04-30T10:10:23.884Z</time></trkpt><trkpt lat="38.0086367" lon="21.6997811"><ele>300.0</ele><time>2026-04-30T10:10:24.883Z</time></trkpt><trkpt lat="38.0089022" lon="21.6997937"><ele>300.0</ele><time>2026-04-30T10:10:25.883Z</time></trkpt><trkpt lat="38.0091526" lon="21.699806"><ele>299.5</ele><time>2026-04-30T10:10:26.883Z</time></trkpt><trkpt lat="38.0094004" lon="21.6997963"><ele>299.0</ele><time>2026-04-30T10:10:27.884Z</time></trkpt><trkpt lat="38.0096375" lon="21.6997821"><ele>299.0</ele><time>2026-04-30T10:10:28.883Z</time></trkpt><trkpt lat="38.0098611" lon="21.6997581"><ele>299.0</ele><time>2026-04-30T10:10:29.884Z</time></trkpt><trkpt lat="38.0100771" lon="21.6997301"><ele>299.0</ele><time>2026-04-30T10:10:30.884Z</time></trkpt><trkpt lat="38.0102811" lon="21.6997134"><ele>296.0</ele><time>2026-04-30T10:10:31.883Z</time></trkpt><trkpt lat="38.010477" lon="21.6997079"><ele>293.0</ele><time>2026-04-30T10:10:32.883Z</time></trkpt><trkpt lat="38.0106763" lon="21.699739"><ele>290.0</ele><time>2026-04-30T10:10:33.883Z</time></trkpt><trkpt lat="38.010863" lon="21.6998233"><ele>289.6666666666667</ele><time>2026-04-30T10:10:34.883Z</time></trkpt><trkpt lat="38.0110413" lon="21.6999437"><ele>289.3333333333333</ele><time>2026-04-30T10:10:35.884Z</time></trkpt><trkpt lat="38.0112054" lon="21.7000614"><ele>289.0</ele><time>2026-04-30T10:10:36.883Z</time></trkpt><trkpt lat="38.0113915" lon="21.7001442"><ele>289.0</ele><time>2026-04-30T10:10:37.884Z</time></trkpt><trkpt lat="38.0115995" lon="21.7001963"><ele>289.0</ele><time>2026-04-30T10:10:38.883Z</time></trkpt><trkpt lat="38.0118237" lon="21.7002341"><ele>289.0</ele><time>2026-04-30T10:10:39.884Z</time></trkpt><trkpt lat="38.0120774" lon="21.7001668"><ele>287.5</ele><time>2026-04-30T10:10:40.883Z</time></trkpt><trkpt lat="38.0123121" lon="21.7001081"><ele>286.0</ele><time>2026-04-30T10:10:41.884Z</time></trkpt><trkpt lat="38.0125284" lon="21.7000523"><ele>284.3333333333333</ele><time>2026-04-30T10:10:42.883Z</time></trkpt><trkpt lat="38.0127251" lon="21.7000174"><ele>282.6666666666667</ele><time>2026-04-30T10:10:43.884Z</time></trkpt><trkpt lat="38.0129102" lon="21.7000089"><ele>281.0</ele><time>2026-04-30T10:10:44.884Z</time></trkpt><trkpt lat="38.0130754" lon="21.7000244"><ele>281.0</ele><time>2026-04-30T10:10:45.884Z</time></trkpt><trkpt lat="38.0132242" lon="21.7000914"><ele>281.0</ele><time>2026-04-30T10:10:46.884Z</time></trkpt><trkpt lat="38.0133702" lon="21.70019"><ele>281.0</ele><time>2026-04-30T10:10:47.884Z</time></trkpt><trkpt lat="38.0135012" lon="21.7003087"><ele>280.6666666666667</ele><time>2026-04-30T10:10:48.884Z</time></trkpt><trkpt lat="38.013572" lon="21.7004796"><ele>280.3333333333333</ele><time>2026-04-30T10:10:49.884Z</time></trkpt><trkpt lat="38.013632" lon="21.7006445"><ele>280.0</ele><time>2026-04-30T10:10:50.884Z</time></trkpt><trkpt lat="38.013665" lon="21.7008754"><ele>277.3333333333333</ele><time>2026-04-30T10:10:51.884Z</time></trkpt><trkpt lat="38.0136488" lon="21.7011038"><ele>274.6666666666667</ele><time>2026-04-30T10:10:52.884Z</time></trkpt><trkpt lat="38.0136522" lon="21.7013132"><ele>272.0</ele><time>2026-04-30T10:10:53.884Z</time></trkpt><trkpt lat="38.013672" lon="21.7015023"><ele>272.0</ele><time>2026-04-30T10:10:54.884Z</time></trkpt><trkpt lat="38.0137261" lon="21.7016896"><ele>272.0</ele><time>2026-04-30T10:10:55.883Z</time></trkpt><trkpt lat="38.0138165" lon="21.7018465"><ele>272.0</ele><time>2026-04-30T10:10:56.883Z</time></trkpt><trkpt lat="38.0139205" lon="21.7019757"><ele>271.33333333333337</ele><time>2026-04-30T10:10:57.883Z</time></trkpt><trkpt lat="38.0140682" lon="21.7020657"><ele>270.6666666666667</ele><time>2026-04-30T10:10:58.883Z</time></trkpt><trkpt lat="38.0142349" lon="21.702113"><ele>270.0</ele><time>2026-04-30T10:10:59.884Z</time></trkpt><trkpt lat="38.0144615" lon="21.7021193"><ele>268.5</ele><time>2026-04-30T10:11:00.884Z</time></trkpt><trkpt lat="38.0146953" lon="21.7020947"><ele>267.0</ele><time>2026-04-30T10:11:01.883Z</time></trkpt><trkpt lat="38.014922" lon="21.7020567"><ele>266.3333333333333</ele><time>2026-04-30T10:11:02.884Z</time></trkpt><trkpt lat="38.0151404" lon="21.7020371"><ele>265.66666666666663</ele><time>2026-04-30T10:11:03.883Z</time></trkpt><trkpt lat="38.0153478" lon="21.702035"><ele>265.0</ele><time>2026-04-30T10:11:04.883Z</time></trkpt><trkpt lat="38.0155632" lon="21.7020551"><ele>265.0</ele><time>2026-04-30T10:11:05.884Z</time></trkpt><trkpt lat="38.0157815" lon="21.7021079"><ele>265.0</ele><time>2026-04-30T10:11:06.883Z</time></trkpt><trkpt lat="38.0159922" lon="21.702242"><ele>267.0</ele><time>2026-04-30T10:11:07.884Z</time></trkpt><trkpt lat="38.016211" lon="21.7023693"><ele>269.0</ele><time>2026-04-30T10:11:08.883Z</time></trkpt><trkpt lat="38.0164132" lon="21.702532"><ele>269.0</ele><time>2026-04-30T10:11:09.884Z</time></trkpt><trkpt lat="38.0166127" lon="21.7026807"><ele>269.0</ele><time>2026-04-30T10:11:10.884Z</time></trkpt><trkpt lat="38.0168086" lon="21.7028231"><ele>265.33333333333337</ele><time>2026-04-30T10:11:11.883Z</time></trkpt><trkpt lat="38.0170048" lon="21.7029531"><ele>261.6666666666667</ele><time>2026-04-30T10:11:12.883Z</time></trkpt><trkpt lat="38.0171999" lon="21.7030709"><ele>258.0</ele><time>2026-04-30T10:11:13.883Z</time></trkpt><trkpt lat="38.0173996" lon="21.7031718"><ele>260.0</ele><time>2026-04-30T10:11:14.883Z</time></trkpt><trkpt lat="38.0176037" lon="21.7032712"><ele>262.0</ele><time>2026-04-30T10:11:15.883Z</time></trkpt><trkpt lat="38.0178084" lon="21.7033689"><ele>264.0</ele><time>2026-04-30T10:11:16.884Z</time></trkpt><trkpt lat="38.0180174" lon="21.7034593"><ele>264.0</ele><time>2026-04-30T10:11:17.883Z</time></trkpt><trkpt lat="38.0182238" lon="21.7035552"><ele>264.0</ele><time>2026-04-30T10:11:18.884Z</time></trkpt><trkpt lat="38.0184345" lon="21.7036422"><ele>264.0</ele><time>2026-04-30T10:11:19.883Z</time></trkpt><trkpt lat="38.01864" lon="21.7037307"><ele>262.6666666666667</ele><time>2026-04-30T10:11:20.883Z</time></trkpt><trkpt lat="38.0188415" lon="21.7038139"><ele>261.33333333333337</ele><time>2026-04-30T10:11:21.884Z</time></trkpt><trkpt lat="38.019034" lon="21.7038843"><ele>260.0</ele><time>2026-04-30T10:11:22.884Z</time></trkpt><trkpt lat="38.0192298" lon="21.7039274"><ele>260.0</ele><time>2026-04-30T10:11:23.883Z</time></trkpt><trkpt lat="38.0194187" lon="21.7039758"><ele>260.0</ele><time>2026-04-30T10:11:24.884Z</time></trkpt><trkpt lat="38.0196128" lon="21.704012"><ele>260.0</ele><time>2026-04-30T10:11:25.884Z</time></trkpt><trkpt lat="38.0198092" lon="21.704033"><ele>262.33333333333337</ele><time>2026-04-30T10:11:26.884Z</time></trkpt><trkpt lat="38.0200076" lon="21.7040459"><ele>264.6666666666667</ele><time>2026-04-30T10:11:27.883Z</time></trkpt><trkpt lat="38.0202139" lon="21.7040218"><ele>267.0</ele><time>2026-04-30T10:11:28.883Z</time></trkpt><trkpt lat="38.0204072" lon="21.7040181"><ele>267.0</ele><time>2026-04-30T10:11:29.884Z</time></trkpt><trkpt lat="38.0206017" lon="21.7040164"><ele>267.0</ele><time>2026-04-30T10:11:30.883Z</time></trkpt><trkpt lat="38.020817" lon="21.7040273"><ele>267.0</ele><time>2026-04-30T10:11:31.884Z</time></trkpt><trkpt lat="38.0210436" lon="21.7040442"><ele>265.0</ele><time>2026-04-30T10:11:32.883Z</time></trkpt><trkpt lat="38.0212749" lon="21.7040812"><ele>263.0</ele><time>2026-04-30T10:11:33.883Z</time></trkpt><trkpt lat="38.0214969" lon="21.7041344"><ele>265.5</ele><time>2026-04-30T10:11:34.884Z</time></trkpt><trkpt lat="38.0217218" lon="21.7041876"><ele>268.0</ele><time>2026-04-30T10:11:35.883Z</time></trkpt><trkpt lat="38.0219496" lon="21.7042532"><ele>268.0</ele><time>2026-04-30T10:11:36.883Z</time></trkpt><trkpt lat="38.0221756" lon="21.7043149"><ele>268.0</ele><time>2026-04-30T10:11:37.883Z</time></trkpt><trkpt lat="38.0223996" lon="21.7043694"><ele>267.66666666666663</ele><time>2026-04-30T10:11:38.884Z</time></trkpt><trkpt lat="38.0226119" lon="21.70445"><ele>267.3333333333333</ele><time>2026-04-30T10:11:39.884Z</time></trkpt><trkpt lat="38.0228209" lon="21.7045319"><ele>267.0</ele><time>2026-04-30T10:11:40.883Z</time></trkpt><trkpt lat="38.023032" lon="21.7046155"><ele>267.0</ele><time>2026-04-30T10:11:41.884Z</time></trkpt><trkpt lat="38.023238" lon="21.7046907"><ele>267.0</ele><time>2026-04-30T10:11:42.883Z</time></trkpt><trkpt lat="38.0234396" lon="21.7047635"><ele>267.0</ele><time>2026-04-30T10:11:43.883Z</time></trkpt><trkpt lat="38.0236365" lon="21.7048386"><ele>268.0</ele><time>2026-04-30T10:11:44.883Z</time></trkpt><trkpt lat="38.0238348" lon="21.7049091"><ele>269.0</ele><time>2026-04-30T10:11:45.883Z</time></trkpt><trkpt lat="38.0240512" lon="21.7049568"><ele>270.0</ele><time>2026-04-30T10:11:46.884Z</time></trkpt><trkpt lat="38.0242545" lon="21.7050281"><ele>272.0</ele><time>2026-04-30T10:11:47.884Z</time></trkpt><trkpt lat="38.0244531" lon="21.7051021"><ele>274.0</ele><time>2026-04-30T10:11:48.884Z</time></trkpt><trkpt lat="38.0246575" lon="21.7051766"><ele>276.0</ele><time>2026-04-30T10:11:49.884Z</time></trkpt><trkpt lat="38.0248647" lon="21.7052538"><ele>277.6666666666667</ele><time>2026-04-30T10:11:50.883Z</time></trkpt><trkpt lat="38.0250748" lon="21.7053294"><ele>279.33333333333337</ele><time>2026-04-30T10:11:51.884Z</time></trkpt><trkpt lat="38.0252864" lon="21.705405"><ele>281.0</ele><time>2026-04-30T10:11:52.883Z</time></trkpt><trkpt lat="38.0255033" lon="21.7054992"><ele>281.0</ele><time>2026-04-30T10:11:53.883Z</time></trkpt><trkpt lat="38.0257358" lon="21.7055806"><ele>281.0</ele><time>2026-04-30T10:11:54.884Z</time></trkpt><trkpt lat="38.0259736" lon="21.7056703"><ele>278.5</ele><time>2026-04-30T10:11:55.883Z</time></trkpt><trkpt lat="38.0262239" lon="21.7057288"><ele>276.0</ele><time>2026-04-30T10:11:56.884Z</time></trkpt><trkpt lat="38.0264612" lon="21.7058214"><ele>271.0</ele><time>2026-04-30T10:11:57.884Z</time></trkpt><trkpt lat="38.0266977" lon="21.7059075"><ele>266.0</ele><time>2026-04-30T10:11:58.884Z</time></trkpt><trkpt lat="38.0269256" lon="21.705998"><ele>265.0</ele><time>2026-04-30T10:11:59.884Z</time></trkpt><trkpt lat="38.0271495" lon="21.7060783"><ele>264.0</ele><time>2026-04-30T10:12:00.883Z</time></trkpt><trkpt lat="38.0273617" lon="21.7061522"><ele>265.3333333333333</ele><time>2026-04-30T10:12:01.883Z</time></trkpt><trkpt lat="38.0275756" lon="21.7062259"><ele>266.66666666666663</ele><time>2026-04-30T10:12:02.884Z</time></trkpt><trkpt lat="38.0277908" lon="21.7062869"><ele>268.0</ele><time>2026-04-30T10:12:03.884Z</time></trkpt><trkpt lat="38.0280168" lon="21.7063421"><ele>268.0</ele><time>2026-04-30T10:12:04.883Z</time></trkpt><trkpt lat="38.0282479" lon="21.7063828"><ele>268.0</ele><time>2026-04-30T10:12:05.883Z</time></trkpt><trkpt lat="38.028485" lon="21.7064119"><ele>269.0</ele><time>2026-04-30T10:12:06.884Z</time></trkpt><trkpt lat="38.0287334" lon="21.7064228"><ele>270.0</ele><time>2026-04-30T10:12:07.883Z</time></trkpt><trkpt lat="38.0289838" lon="21.7064235"><ele>273.5</ele><time>2026-04-30T10:12:08.884Z</time></trkpt><trkpt lat="38.0292361" lon="21.706417"><ele>277.0</ele><time>2026-04-30T10:12:09.884Z</time></trkpt><trkpt lat="38.0294762" lon="21.7064155"><ele>277.0</ele><time>2026-04-30T10:12:10.884Z</time></trkpt><trkpt lat="38.0297228" lon="21.7063902"><ele>277.0</ele><time>2026-04-30T10:12:11.884Z</time></trkpt><trkpt lat="38.0299491" lon="21.7063834"><ele>276.3333333333333</ele><time>2026-04-30T10:12:12.883Z</time></trkpt><trkpt lat="38.0301641" lon="21.7063751"><ele>275.6666666666667</ele><time>2026-04-30T10:12:13.884Z</time></trkpt><trkpt lat="38.0303715" lon="21.7063902"><ele>275.0</ele><time>2026-04-30T10:12:14.884Z</time></trkpt><trkpt lat="38.0305765" lon="21.7064435"><ele>275.0</ele><time>2026-04-30T10:12:15.883Z</time></trkpt><trkpt lat="38.0307752" lon="21.7065301"><ele>275.0</ele><time>2026-04-30T10:12:16.884Z</time></trkpt><trkpt lat="38.0309773" lon="21.7066526"><ele>275.0</ele><time>2026-04-30T10:12:17.883Z</time></trkpt><trkpt lat="38.0311669" lon="21.7068116"><ele>274.0</ele><time>2026-04-30T10:12:18.884Z</time></trkpt><trkpt lat="38.0313423" lon="21.7069843"><ele>273.0</ele><time>2026-04-30T10:12:19.884Z</time></trkpt><trkpt lat="38.0314967" lon="21.7071885"><ele>272.0</ele><time>2026-04-30T10:12:20.884Z</time></trkpt><trkpt lat="38.0316404" lon="21.7074043"><ele>272.0</ele><time>2026-04-30T10:12:21.883Z</time></trkpt><trkpt lat="38.0317679" lon="21.7076357"><ele>272.0</ele><time>2026-04-30T10:12:22.883Z</time></trkpt><trkpt lat="38.0318921" lon="21.7078678"><ele>272.0</ele><time>2026-04-30T10:12:23.883Z</time></trkpt><trkpt lat="38.0320076" lon="21.7080825"><ele>269.6666666666667</ele><time>2026-04-30T10:12:24.884Z</time></trkpt><trkpt lat="38.0321385" lon="21.7082663"><ele>267.3333333333333</ele><time>2026-04-30T10:12:25.883Z</time></trkpt><trkpt lat="38.0322849" lon="21.7084283"><ele>265.0</ele><time>2026-04-30T10:12:26.883Z</time></trkpt><trkpt lat="38.0324578" lon="21.7085515"><ele>268.0</ele><time>2026-04-30T10:12:27.884Z</time></trkpt><trkpt lat="38.0326364" lon="21.7086439"><ele>271.0</ele><time>2026-04-30T10:12:28.884Z</time></trkpt><trkpt lat="38.0328167" lon="21.7087111"><ele>274.0</ele><time>2026-04-30T10:12:29.884Z</time></trkpt><trkpt lat="38.0330196" lon="21.7087249"><ele>274.0</ele><time>2026-04-30T10:12:30.883Z</time></trkpt><trkpt lat="38.0332374" lon="21.7087026"><ele>274.0</ele><time>2026-04-30T10:12:31.884Z</time></trkpt><trkpt lat="38.033474" lon="21.7086655"><ele>273.0</ele><time>2026-04-30T10:12:32.883Z</time></trkpt><trkpt lat="38.0337175" lon="21.7086133"><ele>272.0</ele><time>2026-04-30T10:12:33.883Z</time></trkpt><trkpt lat="38.0339648" lon="21.7085671"><ele>263.5</ele><time>2026-04-30T10:12:34.883Z</time></trkpt><trkpt lat="38.0342027" lon="21.708521"><ele>255.0</ele><time>2026-04-30T10:12:35.883Z</time></trkpt><trkpt lat="38.0344286" lon="21.7084905"><ele>255.0</ele><time>2026-04-30T10:12:36.883Z</time></trkpt><trkpt lat="38.0346602" lon="21.7084848"><ele>255.0</ele><time>2026-04-30T10:12:37.884Z</time></trkpt><trkpt lat="38.0348884" lon="21.7085069"><ele>254.5</ele><time>2026-04-30T10:12:38.884Z</time></trkpt><trkpt lat="38.0351321" lon="21.708571"><ele>254.0</ele><time>2026-04-30T10:12:39.883Z</time></trkpt><trkpt lat="38.0353671" lon="21.7086718"><ele>251.5</ele><time>2026-04-30T10:12:40.884Z</time></trkpt><trkpt lat="38.0356022" lon="21.7087888"><ele>249.0</ele><time>2026-04-30T10:12:41.883Z</time></trkpt><trkpt lat="38.0358286" lon="21.7088952"><ele>249.0</ele><time>2026-04-30T10:12:42.884Z</time></trkpt><trkpt lat="38.036054" lon="21.7089854"><ele>249.0</ele><time>2026-04-30T10:12:43.884Z</time></trkpt><trkpt lat="38.036282" lon="21.7090516"><ele>249.0</ele><time>2026-04-30T10:12:44.884Z</time></trkpt><trkpt lat="38.0365057" lon="21.7090886"><ele>249.0</ele><time>2026-04-30T10:12:45.883Z</time></trkpt><trkpt lat="38.0367357" lon="21.7090945"><ele>253.0</ele><time>2026-04-30T10:12:46.883Z</time></trkpt><trkpt lat="38.0369673" lon="21.7090707"><ele>257.0</ele><time>2026-04-30T10:12:47.884Z</time></trkpt><trkpt lat="38.0372072" lon="21.7090171"><ele>257.0</ele><time>2026-04-30T10:12:48.884Z</time></trkpt><trkpt lat="38.0374537" lon="21.7089644"><ele>257.0</ele><time>2026-04-30T10:12:49.883Z</time></trkpt><trkpt lat="38.0377171" lon="21.7089084"><ele>253.0</ele><time>2026-04-30T10:12:50.884Z</time></trkpt><trkpt lat="38.0379808" lon="21.7088407"><ele>249.0</ele><time>2026-04-30T10:12:51.883Z</time></trkpt><trkpt lat="38.0382463" lon="21.7087909"><ele>241.5</ele><time>2026-04-30T10:12:52.883Z</time></trkpt><trkpt lat="38.0385017" lon="21.7087319"><ele>234.0</ele><time>2026-04-30T10:12:53.884Z</time></trkpt><trkpt lat="38.0387451" lon="21.7086788"><ele>234.0</ele><time>2026-04-30T10:12:54.884Z</time></trkpt><trkpt lat="38.0389839" lon="21.7086243"><ele>234.0</ele><time>2026-04-30T10:12:55.884Z</time></trkpt><trkpt lat="38.0392147" lon="21.7085833"><ele>233.66666666666669</ele><time>2026-04-30T10:12:56.883Z</time></trkpt><trkpt lat="38.0394343" lon="21.7085632"><ele>233.33333333333334</ele><time>2026-04-30T10:12:57.884Z</time></trkpt><trkpt lat="38.039653" lon="21.7085826"><ele>233.0</ele><time>2026-04-30T10:12:58.883Z</time></trkpt><trkpt lat="38.0398662" lon="21.7086461"><ele>230.66666666666669</ele><time>2026-04-30T10:12:59.884Z</time></trkpt><trkpt lat="38.0400611" lon="21.7087636"><ele>228.33333333333331</ele><time>2026-04-30T10:13:00.883Z</time></trkpt><trkpt lat="38.0402404" lon="21.7088772"><ele>226.0</ele><time>2026-04-30T10:13:01.884Z</time></trkpt><trkpt lat="38.0404183" lon="21.7089762"><ele>226.0</ele><time>2026-04-30T10:13:02.884Z</time></trkpt><trkpt lat="38.0406025" lon="21.7090492"><ele>226.0</ele><time>2026-04-30T10:13:03.883Z</time></trkpt><trkpt lat="38.0407866" lon="21.7091008"><ele>226.0</ele><time>2026-04-30T10:13:04.883Z</time></trkpt><trkpt lat="38.0409775" lon="21.7091122"><ele>229.0</ele><time>2026-04-30T10:13:05.884Z</time></trkpt><trkpt lat="38.0411759" lon="21.709085"><ele>232.0</ele><time>2026-04-30T10:13:06.883Z</time></trkpt><trkpt lat="38.0413745" lon="21.7090093"><ele>235.0</ele><time>2026-04-30T10:13:07.884Z</time></trkpt><trkpt lat="38.0415698" lon="21.7089163"><ele>232.66666666666666</ele><time>2026-04-30T10:13:08.884Z</time></trkpt><trkpt lat="38.041761" lon="21.7088005"><ele>230.33333333333331</ele><time>2026-04-30T10:13:09.883Z</time></trkpt><trkpt lat="38.0419464" lon="21.7086846"><ele>228.0</ele><time>2026-04-30T10:13:10.884Z</time></trkpt><trkpt lat="38.0421371" lon="21.7085779"><ele>228.0</ele><time>2026-04-30T10:13:11.883Z</time></trkpt><trkpt lat="38.042336" lon="21.7085076"><ele>228.0</ele><time>2026-04-30T10:13:12.884Z</time></trkpt><trkpt lat="38.042529" lon="21.7084622"><ele>228.0</ele><time>2026-04-30T10:13:13.883Z</time></trkpt><trkpt lat="38.0427351" lon="21.7085282"><ele>227.33333333333331</ele><time>2026-04-30T10:13:14.884Z</time></trkpt><trkpt lat="38.0429418" lon="21.7085765"><ele>226.66666666666666</ele><time>2026-04-30T10:13:15.884Z</time></trkpt><trkpt lat="38.0431365" lon="21.7087261"><ele>226.0</ele><time>2026-04-30T10:13:16.883Z</time></trkpt><trkpt lat="38.0433379" lon="21.7088623"><ele>226.0</ele><time>2026-04-30T10:13:17.884Z</time></trkpt><trkpt lat="38.0435141" lon="21.7090041"><ele>226.0</ele><time>2026-04-30T10:13:18.884Z</time></trkpt><trkpt lat="38.0436965" lon="21.7091265"><ele>226.0</ele><time>2026-04-30T10:13:19.883Z</time></trkpt><trkpt lat="38.0438855" lon="21.7092252"><ele>226.0</ele><time>2026-04-30T10:13:20.883Z</time></trkpt><trkpt lat="38.0440853" lon="21.7092895"><ele>226.0</ele><time>2026-04-30T10:13:21.883Z</time></trkpt><trkpt lat="38.0442896" lon="21.7093124"><ele>226.0</ele><time>2026-04-30T10:13:22.884Z</time></trkpt><trkpt lat="38.044507" lon="21.7092882"><ele>228.5</ele><time>2026-04-30T10:13:23.884Z</time></trkpt><trkpt lat="38.0447373" lon="21.7092157"><ele>231.0</ele><time>2026-04-30T10:13:24.884Z</time></trkpt><trkpt lat="38.0449729" lon="21.7091343"><ele>231.0</ele><time>2026-04-30T10:13:25.883Z</time></trkpt><trkpt lat="38.0452101" lon="21.709056"><ele>231.0</ele><time>2026-04-30T10:13:26.883Z</time></trkpt><trkpt lat="38.0454726" lon="21.7090764"><ele>231.0</ele><time>2026-04-30T10:13:27.884Z</time></trkpt><trkpt lat="38.0457233" lon="21.7090714"><ele>231.0</ele><time>2026-04-30T10:13:28.884Z</time></trkpt><trkpt lat="38.0459627" lon="21.7090618"><ele>231.0</ele><time>2026-04-30T10:13:29.883Z</time></trkpt><trkpt lat="38.0461885" lon="21.7090401"><ele>231.0</ele><time>2026-04-30T10:13:30.883Z</time></trkpt><trkpt lat="38.0463922" lon="21.7090072"><ele>231.0</ele><time>2026-04-30T10:13:31.883Z</time></trkpt><trkpt lat="38.0465936" lon="21.7089516"><ele>228.66666666666669</ele><time>2026-04-30T10:13:32.883Z</time></trkpt><trkpt lat="38.0467822" lon="21.7088568"><ele>226.33333333333334</ele><time>2026-04-30T10:13:33.884Z</time></trkpt><trkpt lat="38.0469586" lon="21.708727"><ele>224.0</ele><time>2026-04-30T10:13:34.883Z</time></trkpt><trkpt lat="38.0471193" lon="21.70857"><ele>229.66666666666669</ele><time>2026-04-30T10:13:35.883Z</time></trkpt><trkpt lat="38.0472535" lon="21.7083857"><ele>235.33333333333331</ele><time>2026-04-30T10:13:36.884Z</time></trkpt><trkpt lat="38.0473662" lon="21.7081791"><ele>241.0</ele><time>2026-04-30T10:13:37.884Z</time></trkpt><trkpt lat="38.0474584" lon="21.7079488"><ele>235.5</ele><time>2026-04-30T10:13:38.883Z</time></trkpt><trkpt lat="38.0475286" lon="21.7076864"><ele>230.0</ele><time>2026-04-30T10:13:39.883Z</time></trkpt><trkpt lat="38.0475757" lon="21.7073969"><ele>230.0</ele><time>2026-04-30T10:13:40.884Z</time></trkpt><trkpt lat="38.0476146" lon="21.7070829"><ele>230.0</ele><time>2026-04-30T10:13:41.884Z</time></trkpt><trkpt lat="38.0476472" lon="21.706767"><ele>231.66666666666669</ele><time>2026-04-30T10:13:42.884Z</time></trkpt><trkpt lat="38.0476797" lon="21.7064759"><ele>233.33333333333331</ele><time>2026-04-30T10:13:43.883Z</time></trkpt><trkpt lat="38.0477268" lon="21.7062058"><ele>235.0</ele><time>2026-04-30T10:13:44.883Z</time></trkpt><trkpt lat="38.0477906" lon="21.7059591"><ele>236.0</ele><time>2026-04-30T10:13:45.884Z</time></trkpt><trkpt lat="38.0478695" lon="21.7057457"><ele>237.0</ele><time>2026-04-30T10:13:46.884Z</time></trkpt><trkpt lat="38.0479814" lon="21.7055455"><ele>238.0</ele><time>2026-04-30T10:13:47.883Z</time></trkpt><trkpt lat="38.0481132" lon="21.705375"><ele>236.33333333333331</ele><time>2026-04-30T10:13:48.883Z</time></trkpt><trkpt lat="38.0482766" lon="21.7052329"><ele>234.66666666666669</ele><time>2026-04-30T10:13:49.883Z</time></trkpt><trkpt lat="38.0484488" lon="21.7051186"><ele>233.0</ele><time>2026-04-30T10:13:50.884Z</time></trkpt><trkpt lat="38.0486329" lon="21.7050373"><ele>233.0</ele><time>2026-04-30T10:13:51.883Z</time></trkpt><trkpt lat="38.0488152" lon="21.7049904"><ele>233.0</ele><time>2026-04-30T10:13:52.883Z</time></trkpt><trkpt lat="38.0490067" lon="21.7049917"><ele>233.0</ele><time>2026-04-30T10:13:53.883Z</time></trkpt><trkpt lat="38.0492126" lon="21.7050224"><ele>233.0</ele><time>2026-04-30T10:13:54.884Z</time></trkpt><trkpt lat="38.0494423" lon="21.705108"><ele>233.0</ele><time>2026-04-30T10:13:55.883Z</time></trkpt><trkpt lat="38.0496844" lon="21.7052225"><ele>232.0</ele><time>2026-04-30T10:13:56.883Z</time></trkpt><trkpt lat="38.0499486" lon="21.705347"><ele>231.0</ele><time>2026-04-30T10:13:57.884Z</time></trkpt><trkpt lat="38.0502266" lon="21.7054865"><ele>231.0</ele><time>2026-04-30T10:13:58.884Z</time></trkpt><trkpt lat="38.050543" lon="21.7056436"><ele>231.0</ele><time>2026-04-30T10:13:59.884Z</time></trkpt><trkpt lat="38.0508642" lon="21.7057773"><ele>233.0</ele><time>2026-04-30T10:14:00.883Z</time></trkpt><trkpt lat="38.0511619" lon="21.705919"><ele>235.0</ele><time>2026-04-30T10:14:01.883Z</time></trkpt><trkpt lat="38.0514556" lon="21.7060439"><ele>229.0</ele><time>2026-04-30T10:14:02.884Z</time></trkpt><trkpt lat="38.0517316" lon="21.7061691"><ele>223.0</ele><time>2026-04-30T10:14:03.883Z</time></trkpt><trkpt lat="38.0519983" lon="21.7062902"><ele>223.0</ele><time>2026-04-30T10:14:04.884Z</time></trkpt><trkpt lat="38.0522577" lon="21.706403"><ele>223.0</ele><time>2026-04-30T10:14:05.884Z</time></trkpt><trkpt lat="38.0525036" lon="21.7065045"><ele>223.0</ele><time>2026-04-30T10:14:06.883Z</time></trkpt><trkpt lat="38.0527419" lon="21.7066028"><ele>223.0</ele><time>2026-04-30T10:14:07.883Z</time></trkpt><trkpt lat="38.0529729" lon="21.7067006"><ele>223.0</ele><time>2026-04-30T10:14:08.883Z</time></trkpt><trkpt lat="38.0531926" lon="21.7068027"><ele>223.0</ele><time>2026-04-30T10:14:09.884Z</time></trkpt><trkpt lat="38.0533949" lon="21.7069245"><ele>221.66666666666666</ele><time>2026-04-30T10:14:10.884Z</time></trkpt><trkpt lat="38.0535801" lon="21.7070689"><ele>220.33333333333331</ele><time>2026-04-30T10:14:11.883Z</time></trkpt><trkpt lat="38.0537454" lon="21.7072267"><ele>219.0</ele><time>2026-04-30T10:14:12.883Z</time></trkpt><trkpt lat="38.0538916" lon="21.7074095"><ele>219.0</ele><time>2026-04-30T10:14:13.883Z</time></trkpt><trkpt lat="38.0540172" lon="21.7076249"><ele>219.0</ele><time>2026-04-30T10:14:14.884Z</time></trkpt><trkpt lat="38.0541254" lon="21.7078596"><ele>219.0</ele><time>2026-04-30T10:14:15.884Z</time></trkpt><trkpt lat="38.0542111" lon="21.7081059"><ele>216.66666666666669</ele><time>2026-04-30T10:14:16.884Z</time></trkpt><trkpt lat="38.0542793" lon="21.7083646"><ele>214.33333333333334</ele><time>2026-04-30T10:14:17.884Z</time></trkpt><trkpt lat="38.0543526" lon="21.7086287"><ele>212.0</ele><time>2026-04-30T10:14:18.883Z</time></trkpt><trkpt lat="38.0544185" lon="21.7088997"><ele>209.0</ele><time>2026-04-30T10:14:19.883Z</time></trkpt><trkpt lat="38.0544761" lon="21.7091562"><ele>206.0</ele><time>2026-04-30T10:14:20.883Z</time></trkpt><trkpt lat="38.0545286" lon="21.7093908"><ele>203.0</ele><time>2026-04-30T10:14:21.883Z</time></trkpt><trkpt lat="38.0545771" lon="21.7096147"><ele>198.66666666666669</ele><time>2026-04-30T10:14:22.884Z</time></trkpt><trkpt lat="38.0546249" lon="21.7098166"><ele>194.33333333333334</ele><time>2026-04-30T10:14:23.884Z</time></trkpt><trkpt lat="38.0546685" lon="21.7100078"><ele>190.0</ele><time>2026-04-30T10:14:24.884Z</time></trkpt><trkpt lat="38.0547136" lon="21.7101975"><ele>189.33333333333334</ele><time>2026-04-30T10:14:25.883Z</time></trkpt><trkpt lat="38.0547604" lon="21.7103864"><ele>188.66666666666666</ele><time>2026-04-30T10:14:26.884Z</time></trkpt><trkpt lat="38.0548053" lon="21.7105865"><ele>188.0</ele><time>2026-04-30T10:14:27.884Z</time></trkpt><trkpt lat="38.0548499" lon="21.710782"><ele>188.0</ele><time>2026-04-30T10:14:28.884Z</time></trkpt><trkpt lat="38.0548952" lon="21.7109727"><ele>188.0</ele><time>2026-04-30T10:14:29.884Z</time></trkpt><trkpt lat="38.0549397" lon="21.711161"><ele>188.0</ele><time>2026-04-30T10:14:30.884Z</time></trkpt><trkpt lat="38.0549842" lon="21.7113485"><ele>182.33333333333331</ele><time>2026-04-30T10:14:31.884Z</time></trkpt><trkpt lat="38.055035" lon="21.711531"><ele>176.66666666666666</ele><time>2026-04-30T10:14:32.884Z</time></trkpt><trkpt lat="38.0550776" lon="21.7117147"><ele>171.0</ele><time>2026-04-30T10:14:33.884Z</time></trkpt><trkpt lat="38.0551193" lon="21.711899"><ele>166.5</ele><time>2026-04-30T10:14:34.883Z</time></trkpt><trkpt lat="38.0551545" lon="21.7120732"><ele>162.0</ele><time>2026-04-30T10:14:35.884Z</time></trkpt><trkpt lat="38.0551953" lon="21.712253"><ele>157.5</ele><time>2026-04-30T10:14:36.883Z</time></trkpt><trkpt lat="38.0552358" lon="21.7124311"><ele>153.0</ele><time>2026-04-30T10:14:37.884Z</time></trkpt><trkpt lat="38.0552748" lon="21.7126134"><ele>152.0</ele><time>2026-04-30T10:14:38.883Z</time></trkpt><trkpt lat="38.0553125" lon="21.7127736"><ele>151.0</ele><time>2026-04-30T10:14:39.884Z</time></trkpt><trkpt lat="38.055349" lon="21.7129295"><ele>150.0</ele><time>2026-04-30T10:14:40.883Z</time></trkpt><trkpt lat="38.0553887" lon="21.7130882"><ele>149.0</ele><time>2026-04-30T10:14:41.883Z</time></trkpt><trkpt lat="38.0554275" lon="21.7132567"><ele>149.0</ele><time>2026-04-30T10:14:42.883Z</time></trkpt><trkpt lat="38.0554672" lon="21.7134391"><ele>149.0</ele><time>2026-04-30T10:14:43.883Z</time></trkpt><trkpt lat="38.0555085" lon="21.7136259"><ele>149.0</ele><time>2026-04-30T10:14:44.884Z</time></trkpt><trkpt lat="38.0555568" lon="21.7138203"><ele>149.33333333333331</ele><time>2026-04-30T10:14:45.883Z</time></trkpt><trkpt lat="38.0556065" lon="21.7140134"><ele>149.66666666666666</ele><time>2026-04-30T10:14:46.883Z</time></trkpt><trkpt lat="38.0556492" lon="21.7141987"><ele>150.0</ele><time>2026-04-30T10:14:47.884Z</time></trkpt><trkpt lat="38.0556925" lon="21.7143843"><ele>154.33333333333334</ele><time>2026-04-30T10:14:48.884Z</time></trkpt><trkpt lat="38.055737" lon="21.71457"><ele>158.66666666666669</ele><time>2026-04-30T10:14:49.884Z</time></trkpt><trkpt lat="38.0557826" lon="21.7147581"><ele>163.0</ele><time>2026-04-30T10:14:50.884Z</time></trkpt><trkpt lat="38.0558275" lon="21.7149505"><ele>165.0</ele><time>2026-04-30T10:14:51.883Z</time></trkpt><trkpt lat="38.0558797" lon="21.7151366"><ele>167.0</ele><time>2026-04-30T10:14:52.884Z</time></trkpt><trkpt lat="38.0559516" lon="21.7153213"><ele>169.0</ele><time>2026-04-30T10:14:53.884Z</time></trkpt><trkpt lat="38.0560332" lon="21.715493"><ele>177.0</ele><time>2026-04-30T10:14:54.883Z</time></trkpt><trkpt lat="38.0561179" lon="21.7156564"><ele>185.0</ele><time>2026-04-30T10:14:55.883Z</time></trkpt><trkpt lat="38.056211" lon="21.7158079"><ele>193.0</ele><time>2026-04-30T10:14:56.883Z</time></trkpt><trkpt lat="38.056317" lon="21.7159416"><ele>196.66666666666666</ele><time>2026-04-30T10:14:57.883Z</time></trkpt><trkpt lat="38.0564276" lon="21.7160753"><ele>200.33333333333331</ele><time>2026-04-30T10:14:58.884Z</time></trkpt><trkpt lat="38.0565402" lon="21.7162037"><ele>204.0</ele><time>2026-04-30T10:14:59.884Z</time></trkpt><trkpt lat="38.0566517" lon="21.7163256"><ele>204.0</ele><time>2026-04-30T10:15:00.883Z</time></trkpt><trkpt lat="38.0567675" lon="21.7164586"><ele>204.0</ele><time>2026-04-30T10:15:01.884Z</time></trkpt><trkpt lat="38.0568794" lon="21.7165865"><ele>204.0</ele><time>2026-04-30T10:15:02.883Z</time></trkpt><trkpt lat="38.0569903" lon="21.7167214"><ele>204.0</ele><time>2026-04-30T10:15:03.883Z</time></trkpt><trkpt lat="38.0570952" lon="21.7168611"><ele>204.0</ele><time>2026-04-30T10:15:04.884Z</time></trkpt><trkpt lat="38.0571931" lon="21.7170236"><ele>204.0</ele><time>2026-04-30T10:15:05.884Z</time></trkpt><trkpt lat="38.0572833" lon="21.717195"><ele>201.33333333333331</ele><time>2026-04-30T10:15:06.884Z</time></trkpt><trkpt lat="38.0573568" lon="21.7173827"><ele>198.66666666666666</ele><time>2026-04-30T10:15:07.883Z</time></trkpt><trkpt lat="38.057416" lon="21.7175795"><ele>196.0</ele><time>2026-04-30T10:15:08.883Z</time></trkpt><trkpt lat="38.057462" lon="21.7178009"><ele>194.0</ele><time>2026-04-30T10:15:09.884Z</time></trkpt><trkpt lat="38.0574861" lon="21.7180418"><ele>192.0</ele><time>2026-04-30T10:15:10.884Z</time></trkpt><trkpt lat="38.0574855" lon="21.718292"><ele>190.0</ele><time>2026-04-30T10:15:11.884Z</time></trkpt><trkpt lat="38.0574611" lon="21.7185507"><ele>191.33333333333334</ele><time>2026-04-30T10:15:12.884Z</time></trkpt><trkpt lat="38.0574072" lon="21.7188126"><ele>192.66666666666669</ele><time>2026-04-30T10:15:13.883Z</time></trkpt><trkpt lat="38.0573284" lon="21.7190643"><ele>194.0</ele><time>2026-04-30T10:15:14.884Z</time></trkpt><trkpt lat="38.0572183" lon="21.7193058"><ele>195.5</ele><time>2026-04-30T10:15:15.883Z</time></trkpt><trkpt lat="38.0570778" lon="21.7195395"><ele>197.0</ele><time>2026-04-30T10:15:16.884Z</time></trkpt><trkpt lat="38.0569147" lon="21.7197456"><ele>197.0</ele><time>2026-04-30T10:15:17.884Z</time></trkpt><trkpt lat="38.0567262" lon="21.7198877"><ele>197.0</ele><time>2026-04-30T10:15:18.884Z</time></trkpt><trkpt lat="38.0565278" lon="21.7200341"><ele>197.0</ele><time>2026-04-30T10:15:19.884Z</time></trkpt><trkpt lat="38.056316" lon="21.7201688"><ele>198.5</ele><time>2026-04-30T10:15:20.884Z</time></trkpt><trkpt lat="38.0561059" lon="21.720309"><ele>200.0</ele><time>2026-04-30T10:15:21.883Z</time></trkpt><trkpt lat="38.0559" lon="21.7204513"><ele>200.5</ele><time>2026-04-30T10:15:22.884Z</time></trkpt><trkpt lat="38.0556885" lon="21.7205956"><ele>201.0</ele><time>2026-04-30T10:15:23.883Z</time></trkpt><trkpt lat="38.0554873" lon="21.7207345"><ele>201.0</ele><time>2026-04-30T10:15:24.883Z</time></trkpt><trkpt lat="38.0552901" lon="21.7208771"><ele>201.0</ele><time>2026-04-30T10:15:25.884Z</time></trkpt><trkpt lat="38.0551025" lon="21.7210104"><ele>201.0</ele><time>2026-04-30T10:15:26.883Z</time></trkpt><trkpt lat="38.0549228" lon="21.7211413"><ele>201.33333333333331</ele><time>2026-04-30T10:15:27.884Z</time></trkpt><trkpt lat="38.0547509" lon="21.7212728"><ele>201.66666666666666</ele><time>2026-04-30T10:15:28.884Z</time></trkpt><trkpt lat="38.0545898" lon="21.7214224"><ele>202.0</ele><time>2026-04-30T10:15:29.884Z</time></trkpt><trkpt lat="38.0544434" lon="21.7215955"><ele>202.0</ele><time>2026-04-30T10:15:30.884Z</time></trkpt><trkpt lat="38.0543104" lon="21.7217936"><ele>202.0</ele><time>2026-04-30T10:15:31.883Z</time></trkpt><trkpt lat="38.0541814" lon="21.7220182"><ele>202.0</ele><time>2026-04-30T10:15:32.884Z</time></trkpt><trkpt lat="38.0540668" lon="21.7222477"><ele>202.33333333333331</ele><time>2026-04-30T10:15:33.883Z</time></trkpt><trkpt lat="38.0539516" lon="21.7224877"><ele>202.66666666666669</ele><time>2026-04-30T10:15:34.884Z</time></trkpt><trkpt lat="38.0538401" lon="21.7227277"><ele>203.0</ele><time>2026-04-30T10:15:35.884Z</time></trkpt><trkpt lat="38.0537422" lon="21.7229396"><ele>203.66666666666669</ele><time>2026-04-30T10:15:36.884Z</time></trkpt><trkpt lat="38.0536654" lon="21.7231374"><ele>204.33333333333331</ele><time>2026-04-30T10:15:37.884Z</time></trkpt><trkpt lat="38.0535852" lon="21.7233084"><ele>205.0</ele><time>2026-04-30T10:15:38.883Z</time></trkpt><trkpt lat="38.0535171" lon="21.723471"><ele>205.8</ele><time>2026-04-30T10:15:39.883Z</time></trkpt><trkpt lat="38.0534503" lon="21.7236043"><ele>206.6</ele><time>2026-04-30T10:15:40.884Z</time></trkpt><trkpt lat="38.0533909" lon="21.7237204"><ele>207.39999999999998</ele><time>2026-04-30T10:15:41.883Z</time></trkpt><trkpt lat="38.0533395" lon="21.7238177"><ele>208.2</ele><time>2026-04-30T10:15:42.884Z</time></trkpt><trkpt lat="38.0532856" lon="21.7239007"><ele>209.0</ele><time>2026-04-30T10:15:43.883Z</time></trkpt><trkpt lat="38.0531885" lon="21.7239502"><ele>209.0</ele><time>2026-04-30T10:15:45.884Z</time></trkpt><trkpt lat="38.0531126" lon="21.7239724"><ele>209.0</ele><time>2026-04-30T10:15:47.883Z</time></trkpt><trkpt lat="38.0530475" lon="21.7239925"><ele>209.0</ele><time>2026-04-30T10:15:50.883Z</time></trkpt><trkpt lat="38.0529866" lon="21.7240265"><ele>209.0</ele><time>2026-04-30T10:16:04.883Z</time></trkpt><trkpt lat="38.0530092" lon="21.7239463"><ele>209.0</ele><time>2026-04-30T10:20:06.884Z</time></trkpt><trkpt lat="38.052975" lon="21.7240149"><ele>209.0</ele><time>2026-04-30T10:26:22.883Z</time></trkpt><trkpt lat="38.05302" lon="21.7240739"><ele>209.0</ele><time>2026-04-30T10:30:14.887Z</time></trkpt><trkpt lat="38.0529597" lon="21.7240443"><ele>209.00000000000003</ele><time>2026-04-30T10:35:36.876Z</time></trkpt><trkpt lat="38.0529431" lon="21.7241219"><ele>209.0</ele><time>2026-04-30T10:39:50.882Z</time></trkpt><trkpt lat="38.0529434" lon="21.7242202"><ele>209.0</ele><time>2026-04-30T10:39:55.881Z</time></trkpt><trkpt lat="38.0529686" lon="21.7242987"><ele>209.0</ele><time>2026-04-30T10:39:58.881Z</time></trkpt><trkpt lat="38.0529784" lon="21.7244166"><ele>209.00000000000003</ele><time>2026-04-30T10:40:01.881Z</time></trkpt><trkpt lat="38.0529293" lon="21.7245479"><ele>209.0</ele><time>2026-04-30T10:40:03.881Z</time></trkpt><trkpt lat="38.0528913" lon="21.724622"><ele>209.00000000000003</ele><time>2026-04-30T10:40:04.882Z</time></trkpt><trkpt lat="38.0528529" lon="21.7246984"><ele>209.0</ele><time>2026-04-30T10:40:05.882Z</time></trkpt><trkpt lat="38.052818" lon="21.7247675"><ele>209.0</ele><time>2026-04-30T10:40:06.881Z</time></trkpt><trkpt lat="38.0527861" lon="21.7248433"><ele>209.0</ele><time>2026-04-30T10:40:07.882Z</time></trkpt><trkpt lat="38.0527465" lon="21.724925"><ele>209.00000000000003</ele><time>2026-04-30T10:40:08.882Z</time></trkpt><trkpt lat="38.0527001" lon="21.7250229"><ele>209.0</ele><time>2026-04-30T10:40:09.882Z</time></trkpt><trkpt lat="38.0526544" lon="21.7251357"><ele>209.39999999999998</ele><time>2026-04-30T10:40:10.881Z</time></trkpt><trkpt lat="38.052598" lon="21.7252565"><ele>209.8</ele><time>2026-04-30T10:40:11.882Z</time></trkpt><trkpt lat="38.0525455" lon="21.7253728"><ele>210.2</ele><time>2026-04-30T10:40:12.882Z</time></trkpt><trkpt lat="38.0524897" lon="21.7254918"><ele>210.60000000000002</ele><time>2026-04-30T10:40:13.881Z</time></trkpt><trkpt lat="38.052431" lon="21.7256172"><ele>211.0</ele><time>2026-04-30T10:40:14.881Z</time></trkpt><trkpt lat="38.0523677" lon="21.7257488"><ele>211.0</ele><time>2026-04-30T10:40:15.881Z</time></trkpt><trkpt lat="38.0523057" lon="21.7258809"><ele>211.0</ele><time>2026-04-30T10:40:16.881Z</time></trkpt><trkpt lat="38.0522475" lon="21.7260078"><ele>211.0</ele><time>2026-04-30T10:40:17.882Z</time></trkpt><trkpt lat="38.0521903" lon="21.7261311"><ele>211.0</ele><time>2026-04-30T10:40:18.882Z</time></trkpt><trkpt lat="38.0521353" lon="21.7262529"><ele>211.60000000000002</ele><time>2026-04-30T10:40:19.881Z</time></trkpt><trkpt lat="38.0520827" lon="21.7263692"><ele>212.2</ele><time>2026-04-30T10:40:20.882Z</time></trkpt><trkpt lat="38.0520277" lon="21.7264886"><ele>212.79999999999998</ele><time>2026-04-30T10:40:21.882Z</time></trkpt><trkpt lat="38.0519707" lon="21.7266138"><ele>213.39999999999998</ele><time>2026-04-30T10:40:22.882Z</time></trkpt><trkpt lat="38.0519116" lon="21.7267413"><ele>214.0</ele><time>2026-04-30T10:40:23.882Z</time></trkpt><trkpt lat="38.0518536" lon="21.7268704"><ele>215.0</ele><time>2026-04-30T10:40:24.881Z</time></trkpt><trkpt lat="38.051791" lon="21.7269996"><ele>216.0</ele><time>2026-04-30T10:40:25.881Z</time></trkpt><trkpt lat="38.051729" lon="21.7271313"><ele>217.0</ele><time>2026-04-30T10:40:26.882Z</time></trkpt><trkpt lat="38.0516684" lon="21.7272692"><ele>218.0</ele><time>2026-04-30T10:40:27.882Z</time></trkpt><trkpt lat="38.0516032" lon="21.72741"><ele>218.0</ele><time>2026-04-30T10:40:28.881Z</time></trkpt><trkpt lat="38.0515374" lon="21.7275511"><ele>218.0</ele><time>2026-04-30T10:40:29.881Z</time></trkpt><trkpt lat="38.0514697" lon="21.7277008"><ele>218.0</ele><time>2026-04-30T10:40:30.881Z</time></trkpt><trkpt lat="38.0514025" lon="21.7278599"><ele>218.0</ele><time>2026-04-30T10:40:31.882Z</time></trkpt><trkpt lat="38.0513294" lon="21.7280255"><ele>218.66666666666669</ele><time>2026-04-30T10:40:32.882Z</time></trkpt><trkpt lat="38.0512498" lon="21.728199"><ele>219.33333333333331</ele><time>2026-04-30T10:40:33.882Z</time></trkpt><trkpt lat="38.051164" lon="21.728378"><ele>220.0</ele><time>2026-04-30T10:40:34.882Z</time></trkpt><trkpt lat="38.051079" lon="21.7285593"><ele>219.33333333333331</ele><time>2026-04-30T10:40:35.882Z</time></trkpt><trkpt lat="38.050996" lon="21.7287444"><ele>218.66666666666669</ele><time>2026-04-30T10:40:36.882Z</time></trkpt><trkpt lat="38.0509104" lon="21.7289297"><ele>218.0</ele><time>2026-04-30T10:40:37.882Z</time></trkpt><trkpt lat="38.0508221" lon="21.7291157"><ele>219.33333333333334</ele><time>2026-04-30T10:40:38.882Z</time></trkpt><trkpt lat="38.0507367" lon="21.72931"><ele>220.66666666666669</ele><time>2026-04-30T10:40:39.881Z</time></trkpt><trkpt lat="38.0506429" lon="21.7295115"><ele>222.0</ele><time>2026-04-30T10:40:40.882Z</time></trkpt><trkpt lat="38.0505491" lon="21.7297128"><ele>222.33333333333331</ele><time>2026-04-30T10:40:41.882Z</time></trkpt><trkpt lat="38.0504513" lon="21.7299158"><ele>222.66666666666666</ele><time>2026-04-30T10:40:42.882Z</time></trkpt><trkpt lat="38.0503557" lon="21.7301195"><ele>223.0</ele><time>2026-04-30T10:40:43.882Z</time></trkpt><trkpt lat="38.0502615" lon="21.7303258"><ele>224.33333333333331</ele><time>2026-04-30T10:40:44.882Z</time></trkpt><trkpt lat="38.0501659" lon="21.7305347"><ele>225.66666666666669</ele><time>2026-04-30T10:40:45.882Z</time></trkpt><trkpt lat="38.0500684" lon="21.7307472"><ele>227.0</ele><time>2026-04-30T10:40:46.881Z</time></trkpt><trkpt lat="38.0499674" lon="21.7309634"><ele>226.66666666666669</ele><time>2026-04-30T10:40:47.882Z</time></trkpt><trkpt lat="38.0498689" lon="21.7311753"><ele>226.33333333333331</ele><time>2026-04-30T10:40:48.882Z</time></trkpt><trkpt lat="38.049771" lon="21.7313845"><ele>226.0</ele><time>2026-04-30T10:40:49.881Z</time></trkpt><trkpt lat="38.0496715" lon="21.7315933"><ele>226.0</ele><time>2026-04-30T10:40:50.881Z</time></trkpt><trkpt lat="38.0495737" lon="21.7318073"><ele>226.0</ele><time>2026-04-30T10:40:51.881Z</time></trkpt><trkpt lat="38.0494824" lon="21.7320288"><ele>226.0</ele><time>2026-04-30T10:40:52.881Z</time></trkpt><trkpt lat="38.0493964" lon="21.7322488"><ele>226.33333333333331</ele><time>2026-04-30T10:40:53.882Z</time></trkpt><trkpt lat="38.0493356" lon="21.7324716"><ele>226.66666666666669</ele><time>2026-04-30T10:40:54.881Z</time></trkpt><trkpt lat="38.0492907" lon="21.7326975"><ele>227.0</ele><time>2026-04-30T10:40:55.881Z</time></trkpt><trkpt lat="38.0492955" lon="21.7329448"><ele>228.33333333333334</ele><time>2026-04-30T10:40:56.882Z</time></trkpt><trkpt lat="38.0493161" lon="21.7331763"><ele>229.66666666666669</ele><time>2026-04-30T10:40:57.882Z</time></trkpt><trkpt lat="38.0493639" lon="21.7333972"><ele>231.0</ele><time>2026-04-30T10:40:58.882Z</time></trkpt><trkpt lat="38.0494431" lon="21.7336031"><ele>231.0</ele><time>2026-04-30T10:40:59.881Z</time></trkpt><trkpt lat="38.0495548" lon="21.7338008"><ele>231.0</ele><time>2026-04-30T10:41:00.882Z</time></trkpt><trkpt lat="38.0497029" lon="21.733988"><ele>231.0</ele><time>2026-04-30T10:41:01.882Z</time></trkpt><trkpt lat="38.0498611" lon="21.7341635"><ele>231.66666666666669</ele><time>2026-04-30T10:41:02.881Z</time></trkpt><trkpt lat="38.0500158" lon="21.7343304"><ele>232.33333333333334</ele><time>2026-04-30T10:41:03.881Z</time></trkpt><trkpt lat="38.0501711" lon="21.7344988"><ele>233.0</ele><time>2026-04-30T10:41:04.882Z</time></trkpt><trkpt lat="38.0503259" lon="21.7346695"><ele>233.0</ele><time>2026-04-30T10:41:05.882Z</time></trkpt><trkpt lat="38.050479" lon="21.7348465"><ele>233.0</ele><time>2026-04-30T10:41:06.882Z</time></trkpt><trkpt lat="38.0506332" lon="21.7350235"><ele>233.0</ele><time>2026-04-30T10:41:07.882Z</time></trkpt><trkpt lat="38.0507884" lon="21.7352055"><ele>231.66666666666669</ele><time>2026-04-30T10:41:08.881Z</time></trkpt><trkpt lat="38.0509435" lon="21.7353887"><ele>230.33333333333331</ele><time>2026-04-30T10:41:09.882Z</time></trkpt><trkpt lat="38.0511008" lon="21.7355708"><ele>229.0</ele><time>2026-04-30T10:41:10.882Z</time></trkpt><trkpt lat="38.0512589" lon="21.7357547"><ele>229.0</ele><time>2026-04-30T10:41:11.882Z</time></trkpt><trkpt lat="38.0514156" lon="21.7359401"><ele>229.0</ele><time>2026-04-30T10:41:12.881Z</time></trkpt><trkpt lat="38.0515791" lon="21.736124"><ele>229.0</ele><time>2026-04-30T10:41:13.881Z</time></trkpt><trkpt lat="38.0517511" lon="21.7363027"><ele>228.66666666666666</ele><time>2026-04-30T10:41:14.882Z</time></trkpt><trkpt lat="38.0519321" lon="21.7364725"><ele>228.33333333333331</ele><time>2026-04-30T10:41:15.882Z</time></trkpt><trkpt lat="38.0521189" lon="21.7366252"><ele>228.0</ele><time>2026-04-30T10:41:16.881Z</time></trkpt><trkpt lat="38.0523111" lon="21.7367647"><ele>227.0</ele><time>2026-04-30T10:41:17.882Z</time></trkpt><trkpt lat="38.0525075" lon="21.7368939"><ele>226.0</ele><time>2026-04-30T10:41:18.882Z</time></trkpt><trkpt lat="38.052704" lon="21.7370172"><ele>225.0</ele><time>2026-04-30T10:41:19.881Z</time></trkpt><trkpt lat="38.0528994" lon="21.7371331"><ele>225.0</ele><time>2026-04-30T10:41:20.881Z</time></trkpt><trkpt lat="38.0530935" lon="21.7372393"><ele>225.0</ele><time>2026-04-30T10:41:21.882Z</time></trkpt><trkpt lat="38.0532907" lon="21.7373371"><ele>225.0</ele><time>2026-04-30T10:41:22.881Z</time></trkpt><trkpt lat="38.0534876" lon="21.7374158"><ele>225.33333333333331</ele><time>2026-04-30T10:41:23.882Z</time></trkpt><trkpt lat="38.0536876" lon="21.737478"><ele>225.66666666666666</ele><time>2026-04-30T10:41:24.881Z</time></trkpt><trkpt lat="38.0539016" lon="21.7375227"><ele>226.0</ele><time>2026-04-30T10:41:25.881Z</time></trkpt><trkpt lat="38.0541139" lon="21.7375458"><ele>226.66666666666666</ele><time>2026-04-30T10:41:26.882Z</time></trkpt><trkpt lat="38.0543256" lon="21.7375398"><ele>227.33333333333331</ele><time>2026-04-30T10:41:27.881Z</time></trkpt><trkpt lat="38.0545433" lon="21.7374923"><ele>228.0</ele><time>2026-04-30T10:41:28.882Z</time></trkpt><trkpt lat="38.054766" lon="21.7374243"><ele>224.5</ele><time>2026-04-30T10:41:29.881Z</time></trkpt><trkpt lat="38.0549876" lon="21.7373456"><ele>221.0</ele><time>2026-04-30T10:41:30.882Z</time></trkpt><trkpt lat="38.0552082" lon="21.7372628"><ele>221.0</ele><time>2026-04-30T10:41:31.882Z</time></trkpt><trkpt lat="38.0554279" lon="21.7371816"><ele>221.0</ele><time>2026-04-30T10:41:32.882Z</time></trkpt><trkpt lat="38.0556448" lon="21.7370993"><ele>219.33333333333334</ele><time>2026-04-30T10:41:33.882Z</time></trkpt><trkpt lat="38.055859" lon="21.7370157"><ele>217.66666666666669</ele><time>2026-04-30T10:41:34.882Z</time></trkpt><trkpt lat="38.0560722" lon="21.7369339"><ele>216.0</ele><time>2026-04-30T10:41:35.882Z</time></trkpt><trkpt lat="38.0562862" lon="21.7368544"><ele>216.0</ele><time>2026-04-30T10:41:36.882Z</time></trkpt><trkpt lat="38.056499" lon="21.7367763"><ele>216.0</ele><time>2026-04-30T10:41:37.881Z</time></trkpt><trkpt lat="38.05671" lon="21.7366954"><ele>216.0</ele><time>2026-04-30T10:41:38.882Z</time></trkpt><trkpt lat="38.0569228" lon="21.7366119"><ele>215.33333333333331</ele><time>2026-04-30T10:41:39.882Z</time></trkpt><trkpt lat="38.0571353" lon="21.7365297"><ele>214.66666666666666</ele><time>2026-04-30T10:41:40.881Z</time></trkpt><trkpt lat="38.057347" lon="21.7364474"><ele>214.0</ele><time>2026-04-30T10:41:41.882Z</time></trkpt><trkpt lat="38.0575595" lon="21.736364"><ele>213.66666666666666</ele><time>2026-04-30T10:41:42.881Z</time></trkpt><trkpt lat="38.0577731" lon="21.7362797"><ele>213.33333333333331</ele><time>2026-04-30T10:41:43.881Z</time></trkpt><trkpt lat="38.0579879" lon="21.736197"><ele>213.0</ele><time>2026-04-30T10:41:44.882Z</time></trkpt><trkpt lat="38.0582061" lon="21.7361166"><ele>212.0</ele><time>2026-04-30T10:41:45.882Z</time></trkpt><trkpt lat="38.0584219" lon="21.7360375"><ele>211.0</ele><time>2026-04-30T10:41:46.881Z</time></trkpt><trkpt lat="38.0586406" lon="21.7359598"><ele>211.0</ele><time>2026-04-30T10:41:47.882Z</time></trkpt><trkpt lat="38.0588623" lon="21.7358874"><ele>211.0</ele><time>2026-04-30T10:41:48.882Z</time></trkpt><trkpt lat="38.0590879" lon="21.7358202"><ele>210.0</ele><time>2026-04-30T10:41:49.882Z</time></trkpt><trkpt lat="38.059317" lon="21.7357626"><ele>209.0</ele><time>2026-04-30T10:41:50.882Z</time></trkpt><trkpt lat="38.0595425" lon="21.7357067"><ele>209.0</ele><time>2026-04-30T10:41:51.881Z</time></trkpt><trkpt lat="38.0597665" lon="21.7356521"><ele>209.0</ele><time>2026-04-30T10:41:52.882Z</time></trkpt><trkpt lat="38.0599901" lon="21.7355949"><ele>207.5</ele><time>2026-04-30T10:41:53.881Z</time></trkpt><trkpt lat="38.0602132" lon="21.7355409"><ele>206.0</ele><time>2026-04-30T10:41:54.881Z</time></trkpt><trkpt lat="38.0604365" lon="21.7354931"><ele>206.0</ele><time>2026-04-30T10:41:55.881Z</time></trkpt><trkpt lat="38.0606576" lon="21.7354518"><ele>206.0</ele><time>2026-04-30T10:41:56.882Z</time></trkpt><trkpt lat="38.0608775" lon="21.7354214"><ele>206.0</ele><time>2026-04-30T10:41:57.881Z</time></trkpt><trkpt lat="38.0610962" lon="21.7354059"><ele>205.0</ele><time>2026-04-30T10:41:58.882Z</time></trkpt><trkpt lat="38.0613125" lon="21.7354062"><ele>204.0</ele><time>2026-04-30T10:41:59.881Z</time></trkpt><trkpt lat="38.0615273" lon="21.7354186"><ele>203.0</ele><time>2026-04-30T10:42:00.881Z</time></trkpt><trkpt lat="38.0617383" lon="21.7354371"><ele>202.0</ele><time>2026-04-30T10:42:01.882Z</time></trkpt><trkpt lat="38.0619497" lon="21.7354623"><ele>201.0</ele><time>2026-04-30T10:42:02.881Z</time></trkpt><trkpt lat="38.062171" lon="21.7354879"><ele>200.0</ele><time>2026-04-30T10:42:03.881Z</time></trkpt><trkpt lat="38.062403" lon="21.7355199"><ele>198.5</ele><time>2026-04-30T10:42:04.882Z</time></trkpt><trkpt lat="38.0626402" lon="21.7355542"><ele>197.0</ele><time>2026-04-30T10:42:05.881Z</time></trkpt><trkpt lat="38.062881" lon="21.7355923"><ele>197.0</ele><time>2026-04-30T10:42:06.882Z</time></trkpt><trkpt lat="38.0631207" lon="21.7356314"><ele>197.0</ele><time>2026-04-30T10:42:07.881Z</time></trkpt><trkpt lat="38.0633649" lon="21.7356716"><ele>196.5</ele><time>2026-04-30T10:42:08.882Z</time></trkpt><trkpt lat="38.0636183" lon="21.7357109"><ele>196.0</ele><time>2026-04-30T10:42:09.882Z</time></trkpt><trkpt lat="38.0638692" lon="21.7357457"><ele>195.5</ele><time>2026-04-30T10:42:10.882Z</time></trkpt><trkpt lat="38.0641276" lon="21.7357753"><ele>195.0</ele><time>2026-04-30T10:42:11.881Z</time></trkpt><trkpt lat="38.0643938" lon="21.73579"><ele>195.0</ele><time>2026-04-30T10:42:12.882Z</time></trkpt><trkpt lat="38.0646705" lon="21.7357937"><ele>195.0</ele><time>2026-04-30T10:42:13.881Z</time></trkpt><trkpt lat="38.0649521" lon="21.7357905"><ele>194.5</ele><time>2026-04-30T10:42:14.882Z</time></trkpt><trkpt lat="38.0652322" lon="21.7357796"><ele>194.0</ele><time>2026-04-30T10:42:15.881Z</time></trkpt><trkpt lat="38.065509" lon="21.7357542"><ele>193.0</ele><time>2026-04-30T10:42:16.881Z</time></trkpt><trkpt lat="38.0657812" lon="21.7357228"><ele>192.0</ele><time>2026-04-30T10:42:17.882Z</time></trkpt><trkpt lat="38.0660474" lon="21.7356837"><ele>192.0</ele><time>2026-04-30T10:42:18.882Z</time></trkpt><trkpt lat="38.0663111" lon="21.7356421"><ele>192.0</ele><time>2026-04-30T10:42:19.881Z</time></trkpt><trkpt lat="38.0665709" lon="21.7356032"><ele>190.5</ele><time>2026-04-30T10:42:20.881Z</time></trkpt><trkpt lat="38.066828" lon="21.7355645"><ele>189.0</ele><time>2026-04-30T10:42:21.881Z</time></trkpt><trkpt lat="38.0670867" lon="21.7355286"><ele>189.0</ele><time>2026-04-30T10:42:22.881Z</time></trkpt><trkpt lat="38.0673434" lon="21.735493"><ele>189.0</ele><time>2026-04-30T10:42:23.881Z</time></trkpt><trkpt lat="38.0675947" lon="21.7354563"><ele>187.5</ele><time>2026-04-30T10:42:24.882Z</time></trkpt><trkpt lat="38.0678459" lon="21.7354154"><ele>186.0</ele><time>2026-04-30T10:42:25.882Z</time></trkpt><trkpt lat="38.0680994" lon="21.7353722"><ele>185.0</ele><time>2026-04-30T10:42:26.882Z</time></trkpt><trkpt lat="38.0683463" lon="21.7353223"><ele>184.0</ele><time>2026-04-30T10:42:27.882Z</time></trkpt><trkpt lat="38.0685929" lon="21.7352696"><ele>185.5</ele><time>2026-04-30T10:42:28.882Z</time></trkpt><trkpt lat="38.0688351" lon="21.7352081"><ele>187.0</ele><time>2026-04-30T10:42:29.881Z</time></trkpt><trkpt lat="38.0690747" lon="21.7351458"><ele>184.5</ele><time>2026-04-30T10:42:30.881Z</time></trkpt><trkpt lat="38.0693126" lon="21.7350851"><ele>182.0</ele><time>2026-04-30T10:42:31.881Z</time></trkpt><trkpt lat="38.0695491" lon="21.7350285"><ele>182.0</ele><time>2026-04-30T10:42:32.881Z</time></trkpt><trkpt lat="38.0697823" lon="21.7349641"><ele>182.0</ele><time>2026-04-30T10:42:33.882Z</time></trkpt><trkpt lat="38.0700137" lon="21.7349007"><ele>179.5</ele><time>2026-04-30T10:42:34.881Z</time></trkpt><trkpt lat="38.0702416" lon="21.7348397"><ele>177.0</ele><time>2026-04-30T10:42:35.881Z</time></trkpt><trkpt lat="38.0704673" lon="21.7347818"><ele>177.0</ele><time>2026-04-30T10:42:36.881Z</time></trkpt><trkpt lat="38.0706915" lon="21.734722"><ele>177.0</ele><time>2026-04-30T10:42:37.881Z</time></trkpt><trkpt lat="38.070917" lon="21.7346795"><ele>175.0</ele><time>2026-04-30T10:42:38.881Z</time></trkpt><trkpt lat="38.0711416" lon="21.7346436"><ele>173.0</ele><time>2026-04-30T10:42:39.881Z</time></trkpt><trkpt lat="38.0713662" lon="21.7346125"><ele>173.0</ele><time>2026-04-30T10:42:40.882Z</time></trkpt><trkpt lat="38.0715911" lon="21.7345841"><ele>173.0</ele><time>2026-04-30T10:42:41.881Z</time></trkpt><trkpt lat="38.0718194" lon="21.73456"><ele>172.0</ele><time>2026-04-30T10:42:42.882Z</time></trkpt><trkpt lat="38.07205" lon="21.7345445"><ele>171.0</ele><time>2026-04-30T10:42:43.882Z</time></trkpt><trkpt lat="38.0722845" lon="21.7345346"><ele>170.0</ele><time>2026-04-30T10:42:44.881Z</time></trkpt><trkpt lat="38.0725211" lon="21.7345227"><ele>169.0</ele><time>2026-04-30T10:42:45.882Z</time></trkpt><trkpt lat="38.0727542" lon="21.7345072"><ele>169.0</ele><time>2026-04-30T10:42:46.881Z</time></trkpt><trkpt lat="38.0729877" lon="21.7344924"><ele>169.0</ele><time>2026-04-30T10:42:47.881Z</time></trkpt><trkpt lat="38.0732217" lon="21.7344776"><ele>167.5</ele><time>2026-04-30T10:42:48.882Z</time></trkpt><trkpt lat="38.0734556" lon="21.7344618"><ele>166.0</ele><time>2026-04-30T10:42:49.881Z</time></trkpt><trkpt lat="38.0736901" lon="21.7344453"><ele>166.0</ele><time>2026-04-30T10:42:50.882Z</time></trkpt><trkpt lat="38.0739231" lon="21.7344314"><ele>166.0</ele><time>2026-04-30T10:42:51.882Z</time></trkpt><trkpt lat="38.0741581" lon="21.7344156"><ele>164.5</ele><time>2026-04-30T10:42:52.882Z</time></trkpt><trkpt lat="38.0743932" lon="21.7344003"><ele>163.0</ele><time>2026-04-30T10:42:53.881Z</time></trkpt><trkpt lat="38.0746269" lon="21.7343818"><ele>163.0</ele><time>2026-04-30T10:42:54.881Z</time></trkpt><trkpt lat="38.0748585" lon="21.7343548"><ele>163.0</ele><time>2026-04-30T10:42:55.882Z</time></trkpt><trkpt lat="38.0750881" lon="21.7343146"><ele>162.0</ele><time>2026-04-30T10:42:56.882Z</time></trkpt><trkpt lat="38.075314" lon="21.734257"><ele>161.0</ele><time>2026-04-30T10:42:57.882Z</time></trkpt><trkpt lat="38.0755346" lon="21.734177"><ele>161.0</ele><time>2026-04-30T10:42:58.882Z</time></trkpt><trkpt lat="38.0757501" lon="21.7340738"><ele>161.0</ele><time>2026-04-30T10:42:59.881Z</time></trkpt><trkpt lat="38.0759592" lon="21.7339539"><ele>161.5</ele><time>2026-04-30T10:43:00.882Z</time></trkpt><trkpt lat="38.0761668" lon="21.7338279"><ele>162.0</ele><time>2026-04-30T10:43:01.881Z</time></trkpt><trkpt lat="38.0763693" lon="21.733693"><ele>161.0</ele><time>2026-04-30T10:43:02.881Z</time></trkpt><trkpt lat="38.0765693" lon="21.7335536"><ele>160.0</ele><time>2026-04-30T10:43:03.882Z</time></trkpt><trkpt lat="38.0767727" lon="21.73341"><ele>159.5</ele><time>2026-04-30T10:43:04.882Z</time></trkpt><trkpt lat="38.0769717" lon="21.7332695"><ele>159.0</ele><time>2026-04-30T10:43:05.881Z</time></trkpt><trkpt lat="38.0771698" lon="21.7331307"><ele>159.0</ele><time>2026-04-30T10:43:06.881Z</time></trkpt><trkpt lat="38.0773655" lon="21.7329927"><ele>159.0</ele><time>2026-04-30T10:43:07.882Z</time></trkpt><trkpt lat="38.0775625" lon="21.7328585"><ele>159.0</ele><time>2026-04-30T10:43:08.882Z</time></trkpt><trkpt lat="38.0777613" lon="21.7327291"><ele>158.33333333333334</ele><time>2026-04-30T10:43:09.882Z</time></trkpt><trkpt lat="38.0779634" lon="21.7326126"><ele>157.66666666666669</ele><time>2026-04-30T10:43:10.881Z</time></trkpt><trkpt lat="38.0781688" lon="21.7325113"><ele>157.0</ele><time>2026-04-30T10:43:11.881Z</time></trkpt><trkpt lat="38.0783744" lon="21.7324226"><ele>156.33333333333334</ele><time>2026-04-30T10:43:12.882Z</time></trkpt><trkpt lat="38.0785848" lon="21.7323515"><ele>155.66666666666666</ele><time>2026-04-30T10:43:13.881Z</time></trkpt><trkpt lat="38.0787999" lon="21.7323047"><ele>155.0</ele><time>2026-04-30T10:43:14.881Z</time></trkpt><trkpt lat="38.0790186" lon="21.7322814"><ele>154.0</ele><time>2026-04-30T10:43:15.881Z</time></trkpt><trkpt lat="38.0792446" lon="21.7322837"><ele>153.0</ele><time>2026-04-30T10:43:16.882Z</time></trkpt><trkpt lat="38.0794716" lon="21.732304"><ele>153.0</ele><time>2026-04-30T10:43:17.882Z</time></trkpt><trkpt lat="38.0796992" lon="21.7323431"><ele>153.0</ele><time>2026-04-30T10:43:18.882Z</time></trkpt><trkpt lat="38.0799322" lon="21.7323912"><ele>152.0</ele><time>2026-04-30T10:43:19.881Z</time></trkpt><trkpt lat="38.0801719" lon="21.7324513"><ele>151.0</ele><time>2026-04-30T10:43:20.882Z</time></trkpt><trkpt lat="38.0804098" lon="21.7325074"><ele>151.0</ele><time>2026-04-30T10:43:21.881Z</time></trkpt><trkpt lat="38.080645" lon="21.7325669"><ele>151.0</ele><time>2026-04-30T10:43:22.882Z</time></trkpt><trkpt lat="38.0808789" lon="21.7326281"><ele>151.5</ele><time>2026-04-30T10:43:23.882Z</time></trkpt><trkpt lat="38.0811111" lon="21.7327004"><ele>152.0</ele><time>2026-04-30T10:43:24.882Z</time></trkpt><trkpt lat="38.0813381" lon="21.7327762"><ele>152.5</ele><time>2026-04-30T10:43:25.881Z</time></trkpt><trkpt lat="38.0815657" lon="21.7328673"><ele>153.0</ele><time>2026-04-30T10:43:26.882Z</time></trkpt><trkpt lat="38.081787" lon="21.7329597"><ele>153.5</ele><time>2026-04-30T10:43:27.881Z</time></trkpt><trkpt lat="38.0820053" lon="21.733058"><ele>154.0</ele><time>2026-04-30T10:43:28.882Z</time></trkpt><trkpt lat="38.0822208" lon="21.7331582"><ele>153.5</ele><time>2026-04-30T10:43:29.881Z</time></trkpt><trkpt lat="38.0824378" lon="21.7332574"><ele>153.0</ele><time>2026-04-30T10:43:30.881Z</time></trkpt><trkpt lat="38.0826468" lon="21.7333542"><ele>153.0</ele><time>2026-04-30T10:43:31.881Z</time></trkpt><trkpt lat="38.0828521" lon="21.7334497"><ele>153.0</ele><time>2026-04-30T10:43:32.881Z</time></trkpt><trkpt lat="38.0830601" lon="21.733543"><ele>153.0</ele><time>2026-04-30T10:43:33.882Z</time></trkpt><trkpt lat="38.0832665" lon="21.7336287"><ele>153.33333333333334</ele><time>2026-04-30T10:43:34.881Z</time></trkpt><trkpt lat="38.0834735" lon="21.7337124"><ele>153.66666666666669</ele><time>2026-04-30T10:43:35.882Z</time></trkpt><trkpt lat="38.0836817" lon="21.7337947"><ele>154.0</ele><time>2026-04-30T10:43:36.882Z</time></trkpt><trkpt lat="38.0838917" lon="21.7338738"><ele>154.33333333333334</ele><time>2026-04-30T10:43:37.881Z</time></trkpt><trkpt lat="38.0841045" lon="21.7339529"><ele>154.66666666666666</ele><time>2026-04-30T10:43:38.882Z</time></trkpt><trkpt lat="38.0843231" lon="21.7340284"><ele>155.0</ele><time>2026-04-30T10:43:39.882Z</time></trkpt><trkpt lat="38.0845484" lon="21.7341007"><ele>155.0</ele><time>2026-04-30T10:43:40.882Z</time></trkpt><trkpt lat="38.0847804" lon="21.7341711"><ele>155.0</ele><time>2026-04-30T10:43:41.882Z</time></trkpt><trkpt lat="38.0850226" lon="21.7342385"><ele>153.0</ele><time>2026-04-30T10:43:42.882Z</time></trkpt><trkpt lat="38.0852678" lon="21.7343049"><ele>151.0</ele><time>2026-04-30T10:43:43.881Z</time></trkpt><trkpt lat="38.0855156" lon="21.734369"><ele>150.5</ele><time>2026-04-30T10:43:44.881Z</time></trkpt><trkpt lat="38.0857624" lon="21.7344298"><ele>150.0</ele><time>2026-04-30T10:43:45.881Z</time></trkpt><trkpt lat="38.0860106" lon="21.7344852"><ele>150.0</ele><time>2026-04-30T10:43:46.882Z</time></trkpt><trkpt lat="38.0862584" lon="21.7345376"><ele>150.0</ele><time>2026-04-30T10:43:47.881Z</time></trkpt><trkpt lat="38.0865062" lon="21.7345867"><ele>149.5</ele><time>2026-04-30T10:43:48.882Z</time></trkpt><trkpt lat="38.086753" lon="21.7346276"><ele>149.0</ele><time>2026-04-30T10:43:49.881Z</time></trkpt><trkpt lat="38.0869989" lon="21.7346639"><ele>149.0</ele><time>2026-04-30T10:43:50.882Z</time></trkpt><trkpt lat="38.0872447" lon="21.7346981"><ele>149.0</ele><time>2026-04-30T10:43:51.882Z</time></trkpt><trkpt lat="38.0874895" lon="21.7347282"><ele>148.5</ele><time>2026-04-30T10:43:52.882Z</time></trkpt><trkpt lat="38.0877352" lon="21.7347578"><ele>148.0</ele><time>2026-04-30T10:43:53.882Z</time></trkpt><trkpt lat="38.0879794" lon="21.734787"><ele>148.0</ele><time>2026-04-30T10:43:54.881Z</time></trkpt><trkpt lat="38.0882261" lon="21.7348162"><ele>148.0</ele><time>2026-04-30T10:43:55.882Z</time></trkpt><trkpt lat="38.088472" lon="21.7348445"><ele>146.5</ele><time>2026-04-30T10:43:56.881Z</time></trkpt><trkpt lat="38.0887173" lon="21.7348736"><ele>145.0</ele><time>2026-04-30T10:43:57.882Z</time></trkpt><trkpt lat="38.0889645" lon="21.7349059"><ele>141.0</ele><time>2026-04-30T10:43:58.882Z</time></trkpt><trkpt lat="38.0892105" lon="21.7349346"><ele>137.0</ele><time>2026-04-30T10:43:59.881Z</time></trkpt><trkpt lat="38.0894599" lon="21.7349635"><ele>137.0</ele><time>2026-04-30T10:44:00.881Z</time></trkpt><trkpt lat="38.08971" lon="21.7349943"><ele>137.0</ele><time>2026-04-30T10:44:01.881Z</time></trkpt><trkpt lat="38.0899622" lon="21.7350241"><ele>136.0</ele><time>2026-04-30T10:44:02.881Z</time></trkpt><trkpt lat="38.0902139" lon="21.7350548"><ele>135.0</ele><time>2026-04-30T10:44:03.881Z</time></trkpt><trkpt lat="38.0904678" lon="21.7350855"><ele>135.0</ele><time>2026-04-30T10:44:04.881Z</time></trkpt><trkpt lat="38.0907258" lon="21.7351165"><ele>135.0</ele><time>2026-04-30T10:44:05.881Z</time></trkpt><trkpt lat="38.0909852" lon="21.7351468"><ele>136.5</ele><time>2026-04-30T10:44:06.881Z</time></trkpt><trkpt lat="38.0912456" lon="21.7351779"><ele>138.0</ele><time>2026-04-30T10:44:07.882Z</time></trkpt><trkpt lat="38.0915057" lon="21.7352083"><ele>142.5</ele><time>2026-04-30T10:44:08.882Z</time></trkpt><trkpt lat="38.0917679" lon="21.7352396"><ele>147.0</ele><time>2026-04-30T10:44:09.881Z</time></trkpt><trkpt lat="38.0920292" lon="21.7352708"><ele>147.0</ele><time>2026-04-30T10:44:10.882Z</time></trkpt><trkpt lat="38.0922915" lon="21.7353023"><ele>147.0</ele><time>2026-04-30T10:44:11.881Z</time></trkpt><trkpt lat="38.092553" lon="21.7353371"><ele>147.5</ele><time>2026-04-30T10:44:12.882Z</time></trkpt><trkpt lat="38.0928147" lon="21.735372"><ele>148.0</ele><time>2026-04-30T10:44:13.881Z</time></trkpt><trkpt lat="38.0930841" lon="21.7354137"><ele>146.0</ele><time>2026-04-30T10:44:14.882Z</time></trkpt><trkpt lat="38.0933493" lon="21.7354481"><ele>144.0</ele><time>2026-04-30T10:44:15.881Z</time></trkpt><trkpt lat="38.0936154" lon="21.7354823"><ele>144.0</ele><time>2026-04-30T10:44:16.882Z</time></trkpt><trkpt lat="38.0938792" lon="21.7355134"><ele>144.0</ele><time>2026-04-30T10:44:17.881Z</time></trkpt><trkpt lat="38.0941403" lon="21.7355389"><ele>144.5</ele><time>2026-04-30T10:44:18.881Z</time></trkpt><trkpt lat="38.0943992" lon="21.735563"><ele>145.0</ele><time>2026-04-30T10:44:19.882Z</time></trkpt><trkpt lat="38.0946629" lon="21.7355925"><ele>144.5</ele><time>2026-04-30T10:44:20.881Z</time></trkpt><trkpt lat="38.0949335" lon="21.7356151"><ele>144.0</ele><time>2026-04-30T10:44:21.882Z</time></trkpt><trkpt lat="38.0952119" lon="21.7356411"><ele>144.0</ele><time>2026-04-30T10:44:22.882Z</time></trkpt><trkpt lat="38.0954979" lon="21.7356731"><ele>144.0</ele><time>2026-04-30T10:44:23.882Z</time></trkpt><trkpt lat="38.0957894" lon="21.7357105"><ele>145.0</ele><time>2026-04-30T10:44:24.882Z</time></trkpt><trkpt lat="38.0960867" lon="21.73575"><ele>146.0</ele><time>2026-04-30T10:44:25.881Z</time></trkpt><trkpt lat="38.0963853" lon="21.7357874"><ele>148.0</ele><time>2026-04-30T10:44:26.882Z</time></trkpt><trkpt lat="38.0966889" lon="21.7358225"><ele>150.0</ele><time>2026-04-30T10:44:27.882Z</time></trkpt><trkpt lat="38.0969995" lon="21.7358618"><ele>150.0</ele><time>2026-04-30T10:44:28.882Z</time></trkpt><trkpt lat="38.0972965" lon="21.7359019"><ele>150.0</ele><time>2026-04-30T10:44:29.882Z</time></trkpt><trkpt lat="38.0975874" lon="21.7359436"><ele>150.5</ele><time>2026-04-30T10:44:30.882Z</time></trkpt><trkpt lat="38.0978726" lon="21.7359831"><ele>151.0</ele><time>2026-04-30T10:44:31.881Z</time></trkpt><trkpt lat="38.098153" lon="21.7360181"><ele>150.5</ele><time>2026-04-30T10:44:32.882Z</time></trkpt><trkpt lat="38.0984285" lon="21.7360524"><ele>150.0</ele><time>2026-04-30T10:44:33.882Z</time></trkpt><trkpt lat="38.0987024" lon="21.7360849"><ele>150.5</ele><time>2026-04-30T10:44:34.882Z</time></trkpt><trkpt lat="38.0989745" lon="21.7361174"><ele>151.0</ele><time>2026-04-30T10:44:35.882Z</time></trkpt><trkpt lat="38.099244" lon="21.7361496"><ele>151.0</ele><time>2026-04-30T10:44:36.881Z</time></trkpt><trkpt lat="38.0995098" lon="21.7361823"><ele>151.0</ele><time>2026-04-30T10:44:37.882Z</time></trkpt><trkpt lat="38.0997806" lon="21.7362179"><ele>153.0</ele><time>2026-04-30T10:44:38.881Z</time></trkpt><trkpt lat="38.100046" lon="21.7362519"><ele>155.0</ele><time>2026-04-30T10:44:39.881Z</time></trkpt><trkpt lat="38.1003123" lon="21.7362805"><ele>155.0</ele><time>2026-04-30T10:44:40.882Z</time></trkpt><trkpt lat="38.1005787" lon="21.736311"><ele>155.0</ele><time>2026-04-30T10:44:41.881Z</time></trkpt><trkpt lat="38.1008444" lon="21.7363411"><ele>155.0</ele><time>2026-04-30T10:44:42.881Z</time></trkpt><trkpt lat="38.1011089" lon="21.7363734"><ele>155.0</ele><time>2026-04-30T10:44:43.881Z</time></trkpt><trkpt lat="38.1013732" lon="21.7364048"><ele>155.0</ele><time>2026-04-30T10:44:44.881Z</time></trkpt><trkpt lat="38.1016385" lon="21.7364344"><ele>155.0</ele><time>2026-04-30T10:44:45.881Z</time></trkpt><trkpt lat="38.1019007" lon="21.7364642"><ele>155.0</ele><time>2026-04-30T10:44:46.882Z</time></trkpt><trkpt lat="38.1021632" lon="21.7364962"><ele>155.0</ele><time>2026-04-30T10:44:47.881Z</time></trkpt><trkpt lat="38.1024258" lon="21.7365297"><ele>155.0</ele><time>2026-04-30T10:44:48.881Z</time></trkpt><trkpt lat="38.1026901" lon="21.7365608"><ele>155.0</ele><time>2026-04-30T10:44:49.882Z</time></trkpt><trkpt lat="38.102952" lon="21.7365915"><ele>155.0</ele><time>2026-04-30T10:44:50.882Z</time></trkpt><trkpt lat="38.103214" lon="21.7366232"><ele>155.0</ele><time>2026-04-30T10:44:51.882Z</time></trkpt><trkpt lat="38.1034748" lon="21.7366555"><ele>154.5</ele><time>2026-04-30T10:44:52.881Z</time></trkpt><trkpt lat="38.1037352" lon="21.736687"><ele>154.0</ele><time>2026-04-30T10:44:53.882Z</time></trkpt><trkpt lat="38.1039929" lon="21.7367167"><ele>153.5</ele><time>2026-04-30T10:44:54.882Z</time></trkpt><trkpt lat="38.1042472" lon="21.736746"><ele>153.0</ele><time>2026-04-30T10:44:55.882Z</time></trkpt><trkpt lat="38.1044984" lon="21.7367769"><ele>153.0</ele><time>2026-04-30T10:44:56.881Z</time></trkpt><trkpt lat="38.1047467" lon="21.736809"><ele>153.0</ele><time>2026-04-30T10:44:57.881Z</time></trkpt><trkpt lat="38.1050018" lon="21.7368509"><ele>152.5</ele><time>2026-04-30T10:44:58.881Z</time></trkpt><trkpt lat="38.1052478" lon="21.7368788"><ele>152.0</ele><time>2026-04-30T10:44:59.881Z</time></trkpt><trkpt lat="38.1054959" lon="21.7368927"><ele>150.5</ele><time>2026-04-30T10:45:00.882Z</time></trkpt><trkpt lat="38.1057516" lon="21.7368903"><ele>149.0</ele><time>2026-04-30T10:45:01.881Z</time></trkpt><trkpt lat="38.1060142" lon="21.7368762"><ele>147.5</ele><time>2026-04-30T10:45:02.882Z</time></trkpt><trkpt lat="38.1062836" lon="21.7368577"><ele>146.0</ele><time>2026-04-30T10:45:03.881Z</time></trkpt><trkpt lat="38.1065628" lon="21.7368319"><ele>146.0</ele><time>2026-04-30T10:45:04.882Z</time></trkpt><trkpt lat="38.1068517" lon="21.7368063"><ele>146.0</ele><time>2026-04-30T10:45:05.881Z</time></trkpt><trkpt lat="38.1071486" lon="21.7367761"><ele>147.0</ele><time>2026-04-30T10:45:06.881Z</time></trkpt><trkpt lat="38.1074512" lon="21.7367458"><ele>148.0</ele><time>2026-04-30T10:45:07.882Z</time></trkpt><trkpt lat="38.1077582" lon="21.736719"><ele>148.0</ele><time>2026-04-30T10:45:08.881Z</time></trkpt><trkpt lat="38.1080661" lon="21.7366898"><ele>148.0</ele><time>2026-04-30T10:45:09.881Z</time></trkpt><trkpt lat="38.1083764" lon="21.736669"><ele>150.5</ele><time>2026-04-30T10:45:10.882Z</time></trkpt><trkpt lat="38.1086899" lon="21.7366476"><ele>153.0</ele><time>2026-04-30T10:45:11.882Z</time></trkpt><trkpt lat="38.1090095" lon="21.7366254"><ele>152.5</ele><time>2026-04-30T10:45:12.881Z</time></trkpt><trkpt lat="38.1093324" lon="21.7366092"><ele>152.0</ele><time>2026-04-30T10:45:13.881Z</time></trkpt><trkpt lat="38.1096505" lon="21.7365976"><ele>153.0</ele><time>2026-04-30T10:45:14.882Z</time></trkpt><trkpt lat="38.1099596" lon="21.7365852"><ele>154.0</ele><time>2026-04-30T10:45:15.881Z</time></trkpt><trkpt lat="38.1102618" lon="21.7365708"><ele>154.0</ele><time>2026-04-30T10:45:16.881Z</time></trkpt><trkpt lat="38.1105597" lon="21.7365529"><ele>154.0</ele><time>2026-04-30T10:45:17.881Z</time></trkpt><trkpt lat="38.1108528" lon="21.7365332"><ele>156.0</ele><time>2026-04-30T10:45:18.882Z</time></trkpt><trkpt lat="38.1111407" lon="21.7365109"><ele>158.0</ele><time>2026-04-30T10:45:19.882Z</time></trkpt><trkpt lat="38.1114211" lon="21.7364828"><ele>157.0</ele><time>2026-04-30T10:45:20.881Z</time></trkpt><trkpt lat="38.1116969" lon="21.7364445"><ele>156.0</ele><time>2026-04-30T10:45:21.882Z</time></trkpt><trkpt lat="38.1119685" lon="21.7363873"><ele>156.0</ele><time>2026-04-30T10:45:22.882Z</time></trkpt><trkpt lat="38.1122372" lon="21.7363103"><ele>156.0</ele><time>2026-04-30T10:45:23.881Z</time></trkpt><trkpt lat="38.112505" lon="21.7362199"><ele>155.5</ele><time>2026-04-30T10:45:24.882Z</time></trkpt><trkpt lat="38.1127711" lon="21.736122"><ele>155.0</ele><time>2026-04-30T10:45:25.881Z</time></trkpt><trkpt lat="38.1130368" lon="21.736023"><ele>155.0</ele><time>2026-04-30T10:45:26.881Z</time></trkpt><trkpt lat="38.1133025" lon="21.7359235"><ele>155.0</ele><time>2026-04-30T10:45:27.882Z</time></trkpt><trkpt lat="38.1135665" lon="21.7358265"><ele>155.0</ele><time>2026-04-30T10:45:28.882Z</time></trkpt><trkpt lat="38.1138281" lon="21.7357274"><ele>155.0</ele><time>2026-04-30T10:45:29.882Z</time></trkpt><trkpt lat="38.1140865" lon="21.7356279"><ele>156.5</ele><time>2026-04-30T10:45:30.881Z</time></trkpt><trkpt lat="38.1143422" lon="21.7355283"><ele>158.0</ele><time>2026-04-30T10:45:31.881Z</time></trkpt><trkpt lat="38.1145941" lon="21.7354333"><ele>158.0</ele><time>2026-04-30T10:45:32.882Z</time></trkpt><trkpt lat="38.1148424" lon="21.7353319"><ele>158.0</ele><time>2026-04-30T10:45:33.882Z</time></trkpt><trkpt lat="38.1150849" lon="21.735217"><ele>157.5</ele><time>2026-04-30T10:45:34.881Z</time></trkpt><trkpt lat="38.1153234" lon="21.7350903"><ele>157.0</ele><time>2026-04-30T10:45:35.882Z</time></trkpt><trkpt lat="38.1155567" lon="21.7349503"><ele>158.0</ele><time>2026-04-30T10:45:36.882Z</time></trkpt><trkpt lat="38.1157855" lon="21.7348018"><ele>159.0</ele><time>2026-04-30T10:45:37.881Z</time></trkpt><trkpt lat="38.1160129" lon="21.7346473"><ele>159.0</ele><time>2026-04-30T10:45:38.882Z</time></trkpt><trkpt lat="38.1162395" lon="21.734489"><ele>159.0</ele><time>2026-04-30T10:45:39.881Z</time></trkpt><trkpt lat="38.1164651" lon="21.7343291"><ele>159.0</ele><time>2026-04-30T10:45:40.881Z</time></trkpt><trkpt lat="38.1166895" lon="21.7341717"><ele>159.0</ele><time>2026-04-30T10:45:41.882Z</time></trkpt><trkpt lat="38.1169153" lon="21.734017"><ele>159.0</ele><time>2026-04-30T10:45:42.881Z</time></trkpt><trkpt lat="38.1171379" lon="21.7338618"><ele>159.0</ele><time>2026-04-30T10:45:43.882Z</time></trkpt><trkpt lat="38.1173708" lon="21.733706"><ele>159.5</ele><time>2026-04-30T10:45:44.881Z</time></trkpt><trkpt lat="38.1175911" lon="21.7335494"><ele>160.0</ele><time>2026-04-30T10:45:45.881Z</time></trkpt><trkpt lat="38.1178117" lon="21.7333956"><ele>160.0</ele><time>2026-04-30T10:45:46.881Z</time></trkpt><trkpt lat="38.1180299" lon="21.7332427"><ele>160.0</ele><time>2026-04-30T10:45:47.882Z</time></trkpt><trkpt lat="38.1182492" lon="21.73309"><ele>160.0</ele><time>2026-04-30T10:45:48.881Z</time></trkpt><trkpt lat="38.1184692" lon="21.7329408"><ele>160.0</ele><time>2026-04-30T10:45:49.881Z</time></trkpt><trkpt lat="38.1186882" lon="21.7327926"><ele>159.5</ele><time>2026-04-30T10:45:50.882Z</time></trkpt><trkpt lat="38.1189095" lon="21.7326492"><ele>159.0</ele><time>2026-04-30T10:45:51.882Z</time></trkpt><trkpt lat="38.1191258" lon="21.7325233"><ele>159.0</ele><time>2026-04-30T10:45:52.882Z</time></trkpt><trkpt lat="38.1193498" lon="21.7324002"><ele>159.0</ele><time>2026-04-30T10:45:53.882Z</time></trkpt><trkpt lat="38.1195668" lon="21.7322932"><ele>159.0</ele><time>2026-04-30T10:45:54.881Z</time></trkpt><trkpt lat="38.1197923" lon="21.7321973"><ele>159.0</ele><time>2026-04-30T10:45:55.882Z</time></trkpt><trkpt lat="38.1200321" lon="21.7321299"><ele>159.5</ele><time>2026-04-30T10:45:56.881Z</time></trkpt><trkpt lat="38.120281" lon="21.7320831"><ele>160.0</ele><time>2026-04-30T10:45:57.881Z</time></trkpt><trkpt lat="38.1205383" lon="21.7320595"><ele>161.0</ele><time>2026-04-30T10:45:58.881Z</time></trkpt><trkpt lat="38.1207884" lon="21.7320399"><ele>162.0</ele><time>2026-04-30T10:45:59.881Z</time></trkpt><trkpt lat="38.121032" lon="21.7320486"><ele>162.0</ele><time>2026-04-30T10:46:00.882Z</time></trkpt><trkpt lat="38.1212751" lon="21.7320793"><ele>162.0</ele><time>2026-04-30T10:46:01.881Z</time></trkpt><trkpt lat="38.1215206" lon="21.7321247"><ele>162.5</ele><time>2026-04-30T10:46:02.882Z</time></trkpt><trkpt lat="38.1217676" lon="21.7321855"><ele>163.0</ele><time>2026-04-30T10:46:03.882Z</time></trkpt><trkpt lat="38.1220146" lon="21.732262"><ele>163.0</ele><time>2026-04-30T10:46:04.882Z</time></trkpt><trkpt lat="38.1222633" lon="21.7323495"><ele>163.0</ele><time>2026-04-30T10:46:05.881Z</time></trkpt><trkpt lat="38.1225189" lon="21.7324448"><ele>165.5</ele><time>2026-04-30T10:46:06.882Z</time></trkpt><trkpt lat="38.1227705" lon="21.732541"><ele>168.0</ele><time>2026-04-30T10:46:07.881Z</time></trkpt><trkpt lat="38.1230162" lon="21.7326258"><ele>170.5</ele><time>2026-04-30T10:46:08.882Z</time></trkpt><trkpt lat="38.1232643" lon="21.7327096"><ele>173.0</ele><time>2026-04-30T10:46:09.881Z</time></trkpt><trkpt lat="38.1235084" lon="21.7327842"><ele>173.0</ele><time>2026-04-30T10:46:10.881Z</time></trkpt><trkpt lat="38.123753" lon="21.7328474"><ele>173.0</ele><time>2026-04-30T10:46:11.882Z</time></trkpt><trkpt lat="38.1240017" lon="21.7328977"><ele>175.5</ele><time>2026-04-30T10:46:12.882Z</time></trkpt><trkpt lat="38.1242545" lon="21.732936"><ele>178.0</ele><time>2026-04-30T10:46:13.881Z</time></trkpt><trkpt lat="38.1245101" lon="21.7329667"><ele>178.0</ele><time>2026-04-30T10:46:14.882Z</time></trkpt><trkpt lat="38.124764" lon="21.7329961"><ele>178.0</ele><time>2026-04-30T10:46:15.881Z</time></trkpt><trkpt lat="38.1250165" lon="21.7330261"><ele>182.0</ele><time>2026-04-30T10:46:16.882Z</time></trkpt><trkpt lat="38.1252672" lon="21.7330581"><ele>186.0</ele><time>2026-04-30T10:46:17.881Z</time></trkpt><trkpt lat="38.1255195" lon="21.7330894"><ele>188.0</ele><time>2026-04-30T10:46:18.882Z</time></trkpt><trkpt lat="38.1257734" lon="21.7331202"><ele>190.0</ele><time>2026-04-30T10:46:19.881Z</time></trkpt><trkpt lat="38.1260272" lon="21.7331507"><ele>190.0</ele><time>2026-04-30T10:46:20.882Z</time></trkpt><trkpt lat="38.1262809" lon="21.7331794"><ele>190.0</ele><time>2026-04-30T10:46:21.881Z</time></trkpt><trkpt lat="38.1265346" lon="21.733207"><ele>192.5</ele><time>2026-04-30T10:46:22.881Z</time></trkpt><trkpt lat="38.1267879" lon="21.7332351"><ele>195.0</ele><time>2026-04-30T10:46:23.881Z</time></trkpt><trkpt lat="38.1270394" lon="21.7332629"><ele>195.0</ele><time>2026-04-30T10:46:24.882Z</time></trkpt><trkpt lat="38.1272931" lon="21.7332949"><ele>195.0</ele><time>2026-04-30T10:46:25.881Z</time></trkpt><trkpt lat="38.1275476" lon="21.7333253"><ele>196.0</ele><time>2026-04-30T10:46:26.882Z</time></trkpt><trkpt lat="38.1278004" lon="21.7333532"><ele>197.0</ele><time>2026-04-30T10:46:27.882Z</time></trkpt><trkpt lat="38.1280533" lon="21.7333919"><ele>200.0</ele><time>2026-04-30T10:46:28.882Z</time></trkpt><trkpt lat="38.1283103" lon="21.7334181"><ele>203.0</ele><time>2026-04-30T10:46:29.882Z</time></trkpt><trkpt lat="38.1285658" lon="21.7334464"><ele>203.0</ele><time>2026-04-30T10:46:30.882Z</time></trkpt><trkpt lat="38.1288213" lon="21.7334799"><ele>203.0</ele><time>2026-04-30T10:46:31.881Z</time></trkpt><trkpt lat="38.1290765" lon="21.7335159"><ele>203.0</ele><time>2026-04-30T10:46:32.882Z</time></trkpt><trkpt lat="38.1293284" lon="21.7335472"><ele>203.0</ele><time>2026-04-30T10:46:33.882Z</time></trkpt><trkpt lat="38.1295753" lon="21.7335734"><ele>203.0</ele><time>2026-04-30T10:46:34.882Z</time></trkpt><trkpt lat="38.1298155" lon="21.7335956"><ele>203.0</ele><time>2026-04-30T10:46:35.882Z</time></trkpt><trkpt lat="38.1300585" lon="21.7336161"><ele>203.5</ele><time>2026-04-30T10:46:36.882Z</time></trkpt><trkpt lat="38.1303158" lon="21.7336263"><ele>204.0</ele><time>2026-04-30T10:46:37.881Z</time></trkpt><trkpt lat="38.1305651" lon="21.7336057"><ele>207.5</ele><time>2026-04-30T10:46:38.881Z</time></trkpt><trkpt lat="38.1308134" lon="21.7335599"><ele>211.0</ele><time>2026-04-30T10:46:39.881Z</time></trkpt><trkpt lat="38.1310559" lon="21.7334838"><ele>216.5</ele><time>2026-04-30T10:46:40.881Z</time></trkpt><trkpt lat="38.1312963" lon="21.7333751"><ele>222.0</ele><time>2026-04-30T10:46:41.881Z</time></trkpt><trkpt lat="38.1315345" lon="21.7332361"><ele>219.0</ele><time>2026-04-30T10:46:42.882Z</time></trkpt><trkpt lat="38.1317686" lon="21.7330735"><ele>216.0</ele><time>2026-04-30T10:46:43.881Z</time></trkpt><trkpt lat="38.1319994" lon="21.732894"><ele>217.5</ele><time>2026-04-30T10:46:44.881Z</time></trkpt><trkpt lat="38.1322318" lon="21.7327102"><ele>219.0</ele><time>2026-04-30T10:46:45.882Z</time></trkpt><trkpt lat="38.1324646" lon="21.7325254"><ele>219.0</ele><time>2026-04-30T10:46:46.881Z</time></trkpt><trkpt lat="38.132695" lon="21.7323441"><ele>219.0</ele><time>2026-04-30T10:46:47.881Z</time></trkpt><trkpt lat="38.1329179" lon="21.7321685"><ele>219.0</ele><time>2026-04-30T10:46:48.881Z</time></trkpt><trkpt lat="38.1331378" lon="21.732005"><ele>219.0</ele><time>2026-04-30T10:46:49.882Z</time></trkpt><trkpt lat="38.1333621" lon="21.7318574"><ele>223.0</ele><time>2026-04-30T10:46:50.881Z</time></trkpt><trkpt lat="38.1335957" lon="21.731729"><ele>227.0</ele><time>2026-04-30T10:46:51.881Z</time></trkpt><trkpt lat="38.1338439" lon="21.7316237"><ele>230.5</ele><time>2026-04-30T10:46:52.882Z</time></trkpt><trkpt lat="38.1341121" lon="21.7315372"><ele>234.0</ele><time>2026-04-30T10:46:53.881Z</time></trkpt><trkpt lat="38.1343975" lon="21.731458"><ele>234.0</ele><time>2026-04-30T10:46:54.881Z</time></trkpt><trkpt lat="38.134686" lon="21.7313817"><ele>234.0</ele><time>2026-04-30T10:46:55.881Z</time></trkpt><trkpt lat="38.1349714" lon="21.7313001"><ele>235.0</ele><time>2026-04-30T10:46:56.881Z</time></trkpt><trkpt lat="38.1352554" lon="21.7312238"><ele>236.0</ele><time>2026-04-30T10:46:57.881Z</time></trkpt><trkpt lat="38.1355349" lon="21.7311455"><ele>235.5</ele><time>2026-04-30T10:46:58.882Z</time></trkpt><trkpt lat="38.1358155" lon="21.731069"><ele>235.0</ele><time>2026-04-30T10:46:59.881Z</time></trkpt><trkpt lat="38.1360947" lon="21.730998"><ele>235.0</ele><time>2026-04-30T10:47:00.882Z</time></trkpt><trkpt lat="38.1363717" lon="21.7309233"><ele>235.0</ele><time>2026-04-30T10:47:01.882Z</time></trkpt><trkpt lat="38.1366468" lon="21.7308471"><ele>238.0</ele><time>2026-04-30T10:47:02.882Z</time></trkpt><trkpt lat="38.1369213" lon="21.7307689"><ele>241.0</ele><time>2026-04-30T10:47:03.881Z</time></trkpt><trkpt lat="38.1371982" lon="21.7306916"><ele>245.5</ele><time>2026-04-30T10:47:04.881Z</time></trkpt><trkpt lat="38.1374747" lon="21.7306137"><ele>250.0</ele><time>2026-04-30T10:47:05.881Z</time></trkpt><trkpt lat="38.1377272" lon="21.7305459"><ele>250.0</ele><time>2026-04-30T10:47:06.881Z</time></trkpt><trkpt lat="38.1379727" lon="21.7304867"><ele>250.0</ele><time>2026-04-30T10:47:07.881Z</time></trkpt><trkpt lat="38.1382135" lon="21.7304485"><ele>252.5</ele><time>2026-04-30T10:47:08.882Z</time></trkpt><trkpt lat="38.138452" lon="21.7304264"><ele>255.0</ele><time>2026-04-30T10:47:09.882Z</time></trkpt><trkpt lat="38.1386876" lon="21.7304474"><ele>255.0</ele><time>2026-04-30T10:47:10.881Z</time></trkpt><trkpt lat="38.1389183" lon="21.7304783"><ele>255.0</ele><time>2026-04-30T10:47:11.882Z</time></trkpt><trkpt lat="38.1391444" lon="21.7305178"><ele>256.0</ele><time>2026-04-30T10:47:12.882Z</time></trkpt><trkpt lat="38.139357" lon="21.730558"><ele>257.0</ele><time>2026-04-30T10:47:13.881Z</time></trkpt><trkpt lat="38.1395638" lon="21.7306054"><ele>258.0</ele><time>2026-04-30T10:47:14.882Z</time></trkpt><trkpt lat="38.1397641" lon="21.7306495"><ele>256.3333333333333</ele><time>2026-04-30T10:47:15.882Z</time></trkpt><trkpt lat="38.1399611" lon="21.7306944"><ele>254.66666666666666</ele><time>2026-04-30T10:47:16.882Z</time></trkpt><trkpt lat="38.1401536" lon="21.7307367"><ele>253.0</ele><time>2026-04-30T10:47:17.881Z</time></trkpt><trkpt lat="38.1403425" lon="21.7307792"><ele>253.0</ele><time>2026-04-30T10:47:18.882Z</time></trkpt><trkpt lat="38.1405281" lon="21.7308165"><ele>253.0</ele><time>2026-04-30T10:47:19.882Z</time></trkpt><trkpt lat="38.1407014" lon="21.7308492"><ele>253.0</ele><time>2026-04-30T10:47:20.881Z</time></trkpt><trkpt lat="38.1408675" lon="21.7308762"><ele>252.33333333333331</ele><time>2026-04-30T10:47:21.882Z</time></trkpt><trkpt lat="38.1410316" lon="21.7308965"><ele>251.66666666666669</ele><time>2026-04-30T10:47:22.881Z</time></trkpt><trkpt lat="38.1412001" lon="21.7309121"><ele>251.0</ele><time>2026-04-30T10:47:23.882Z</time></trkpt><trkpt lat="38.1413715" lon="21.7309225"><ele>250.0</ele><time>2026-04-30T10:47:24.881Z</time></trkpt><trkpt lat="38.1415567" lon="21.7309341"><ele>249.0</ele><time>2026-04-30T10:47:25.882Z</time></trkpt><trkpt lat="38.1417346" lon="21.7309286"><ele>248.0</ele><time>2026-04-30T10:47:26.882Z</time></trkpt><trkpt lat="38.1419195" lon="21.7309112"><ele>248.0</ele><time>2026-04-30T10:47:27.881Z</time></trkpt><trkpt lat="38.14211" lon="21.7308861"><ele>248.0</ele><time>2026-04-30T10:47:28.882Z</time></trkpt><trkpt lat="38.142309" lon="21.7308509"><ele>248.0</ele><time>2026-04-30T10:47:29.882Z</time></trkpt><trkpt lat="38.1425129" lon="21.7308084"><ele>245.66666666666669</ele><time>2026-04-30T10:47:30.882Z</time></trkpt><trkpt lat="38.1427134" lon="21.7307555"><ele>243.33333333333331</ele><time>2026-04-30T10:47:31.881Z</time></trkpt><trkpt lat="38.1429265" lon="21.7306867"><ele>241.0</ele><time>2026-04-30T10:47:32.882Z</time></trkpt><trkpt lat="38.1431515" lon="21.7305937"><ele>241.0</ele><time>2026-04-30T10:47:33.881Z</time></trkpt><trkpt lat="38.1433831" lon="21.7304894"><ele>241.0</ele><time>2026-04-30T10:47:34.882Z</time></trkpt><trkpt lat="38.1436146" lon="21.7303784"><ele>241.0</ele><time>2026-04-30T10:47:35.882Z</time></trkpt><trkpt lat="38.1438346" lon="21.7302669"><ele>241.0</ele><time>2026-04-30T10:47:36.881Z</time></trkpt><trkpt lat="38.1440431" lon="21.7301576"><ele>239.33333333333331</ele><time>2026-04-30T10:47:37.881Z</time></trkpt><trkpt lat="38.1442409" lon="21.7300531"><ele>237.66666666666669</ele><time>2026-04-30T10:47:38.882Z</time></trkpt><trkpt lat="38.1444303" lon="21.729951"><ele>236.0</ele><time>2026-04-30T10:47:39.882Z</time></trkpt><trkpt lat="38.1446335" lon="21.7298339"><ele>236.0</ele><time>2026-04-30T10:47:40.881Z</time></trkpt><trkpt lat="38.1448488" lon="21.7297136"><ele>236.0</ele><time>2026-04-30T10:47:41.881Z</time></trkpt><trkpt lat="38.1450504" lon="21.7295998"><ele>234.66666666666669</ele><time>2026-04-30T10:47:42.882Z</time></trkpt><trkpt lat="38.1452436" lon="21.7295061"><ele>233.33333333333331</ele><time>2026-04-30T10:47:43.881Z</time></trkpt><trkpt lat="38.1454146" lon="21.7294417"><ele>232.0</ele><time>2026-04-30T10:47:44.882Z</time></trkpt><trkpt lat="38.1455894" lon="21.7293717"><ele>231.33333333333331</ele><time>2026-04-30T10:47:45.881Z</time></trkpt><trkpt lat="38.1457626" lon="21.7293411"><ele>230.66666666666669</ele><time>2026-04-30T10:47:46.881Z</time></trkpt><trkpt lat="38.1459367" lon="21.7293331"><ele>230.0</ele><time>2026-04-30T10:47:47.881Z</time></trkpt><trkpt lat="38.1461121" lon="21.7293515"><ele>231.0</ele><time>2026-04-30T10:47:48.881Z</time></trkpt><trkpt lat="38.1462899" lon="21.7293932"><ele>232.0</ele><time>2026-04-30T10:47:49.881Z</time></trkpt><trkpt lat="38.1464738" lon="21.7294598"><ele>233.0</ele><time>2026-04-30T10:47:50.882Z</time></trkpt><trkpt lat="38.1466645" lon="21.7295382"><ele>233.0</ele><time>2026-04-30T10:47:51.881Z</time></trkpt><trkpt lat="38.1468543" lon="21.7296285"><ele>233.0</ele><time>2026-04-30T10:47:52.881Z</time></trkpt><trkpt lat="38.1470468" lon="21.7297221"><ele>233.0</ele><time>2026-04-30T10:47:53.881Z</time></trkpt><trkpt lat="38.1472392" lon="21.7298091"><ele>231.33333333333334</ele><time>2026-04-30T10:47:54.881Z</time></trkpt><trkpt lat="38.1474307" lon="21.7298963"><ele>229.66666666666669</ele><time>2026-04-30T10:47:55.882Z</time></trkpt><trkpt lat="38.1476195" lon="21.7299821"><ele>228.0</ele><time>2026-04-30T10:47:56.882Z</time></trkpt><trkpt lat="38.1478078" lon="21.7300664"><ele>228.0</ele><time>2026-04-30T10:47:57.882Z</time></trkpt><trkpt lat="38.1479977" lon="21.7301485"><ele>228.0</ele><time>2026-04-30T10:47:58.882Z</time></trkpt><trkpt lat="38.1481875" lon="21.7302263"><ele>228.0</ele><time>2026-04-30T10:47:59.882Z</time></trkpt><trkpt lat="38.1483825" lon="21.7302964"><ele>229.33333333333331</ele><time>2026-04-30T10:48:00.881Z</time></trkpt><trkpt lat="38.1485767" lon="21.7303385"><ele>230.66666666666666</ele><time>2026-04-30T10:48:01.882Z</time></trkpt><trkpt lat="38.1487677" lon="21.730356"><ele>232.0</ele><time>2026-04-30T10:48:02.882Z</time></trkpt><trkpt lat="38.1489599" lon="21.7303546"><ele>232.0</ele><time>2026-04-30T10:48:03.881Z</time></trkpt><trkpt lat="38.1491503" lon="21.7303289"><ele>232.0</ele><time>2026-04-30T10:48:04.882Z</time></trkpt><trkpt lat="38.149353" lon="21.7302505"><ele>232.0</ele><time>2026-04-30T10:48:05.881Z</time></trkpt><trkpt lat="38.1495539" lon="21.730149"><ele>225.5</ele><time>2026-04-30T10:48:06.882Z</time></trkpt><trkpt lat="38.1497685" lon="21.7300158"><ele>219.0</ele><time>2026-04-30T10:48:07.882Z</time></trkpt><trkpt lat="38.1499914" lon="21.7298673"><ele>219.0</ele><time>2026-04-30T10:48:08.882Z</time></trkpt><trkpt lat="38.1502274" lon="21.7297206"><ele>219.0</ele><time>2026-04-30T10:48:09.882Z</time></trkpt><trkpt lat="38.1504615" lon="21.7295777"><ele>219.0</ele><time>2026-04-30T10:48:10.882Z</time></trkpt><trkpt lat="38.1506965" lon="21.7294354"><ele>219.0</ele><time>2026-04-30T10:48:11.881Z</time></trkpt><trkpt lat="38.1509251" lon="21.7292922"><ele>213.0</ele><time>2026-04-30T10:48:12.881Z</time></trkpt><trkpt lat="38.1511433" lon="21.7291518"><ele>207.0</ele><time>2026-04-30T10:48:13.882Z</time></trkpt><trkpt lat="38.1513552" lon="21.7290157"><ele>205.5</ele><time>2026-04-30T10:48:14.881Z</time></trkpt><trkpt lat="38.151578" lon="21.7288686"><ele>204.0</ele><time>2026-04-30T10:48:15.882Z</time></trkpt><trkpt lat="38.1518108" lon="21.7287107"><ele>198.5</ele><time>2026-04-30T10:48:16.882Z</time></trkpt><trkpt lat="38.152054" lon="21.7285512"><ele>193.0</ele><time>2026-04-30T10:48:17.882Z</time></trkpt><trkpt lat="38.1523021" lon="21.7283909"><ele>200.0</ele><time>2026-04-30T10:48:18.882Z</time></trkpt><trkpt lat="38.1525496" lon="21.7282388"><ele>207.0</ele><time>2026-04-30T10:48:19.881Z</time></trkpt><trkpt lat="38.1527918" lon="21.7280895"><ele>207.0</ele><time>2026-04-30T10:48:20.881Z</time></trkpt><trkpt lat="38.1530334" lon="21.7279378"><ele>207.0</ele><time>2026-04-30T10:48:21.881Z</time></trkpt><trkpt lat="38.1532645" lon="21.7277963"><ele>204.5</ele><time>2026-04-30T10:48:22.881Z</time></trkpt><trkpt lat="38.153492" lon="21.7276559"><ele>202.0</ele><time>2026-04-30T10:48:23.882Z</time></trkpt><trkpt lat="38.1537148" lon="21.7275261"><ele>202.0</ele><time>2026-04-30T10:48:24.882Z</time></trkpt><trkpt lat="38.1539333" lon="21.7274233"><ele>202.0</ele><time>2026-04-30T10:48:25.881Z</time></trkpt><trkpt lat="38.1541678" lon="21.7272834"><ele>204.66666666666666</ele><time>2026-04-30T10:48:26.882Z</time></trkpt><trkpt lat="38.1543995" lon="21.7272396"><ele>207.33333333333331</ele><time>2026-04-30T10:48:27.881Z</time></trkpt><trkpt lat="38.1546062" lon="21.7272518"><ele>210.0</ele><time>2026-04-30T10:48:28.882Z</time></trkpt><trkpt lat="38.1548193" lon="21.7272743"><ele>211.66666666666669</ele><time>2026-04-30T10:48:29.882Z</time></trkpt><trkpt lat="38.1550229" lon="21.7273477"><ele>213.33333333333334</ele><time>2026-04-30T10:48:30.881Z</time></trkpt><trkpt lat="38.1552289" lon="21.7274352"><ele>215.0</ele><time>2026-04-30T10:48:31.881Z</time></trkpt><trkpt lat="38.1554307" lon="21.7275671"><ele>215.0</ele><time>2026-04-30T10:48:32.881Z</time></trkpt><trkpt lat="38.1556316" lon="21.7277141"><ele>215.0</ele><time>2026-04-30T10:48:33.881Z</time></trkpt><trkpt lat="38.1558454" lon="21.7279005"><ele>218.5</ele><time>2026-04-30T10:48:34.882Z</time></trkpt><trkpt lat="38.1560446" lon="21.7280956"><ele>222.0</ele><time>2026-04-30T10:48:35.881Z</time></trkpt><trkpt lat="38.1562424" lon="21.7282885"><ele>222.0</ele><time>2026-04-30T10:48:36.881Z</time></trkpt><trkpt lat="38.1564407" lon="21.7284798"><ele>222.0</ele><time>2026-04-30T10:48:37.882Z</time></trkpt><trkpt lat="38.1566304" lon="21.7286544"><ele>218.0</ele><time>2026-04-30T10:48:38.882Z</time></trkpt><trkpt lat="38.1568254" lon="21.7288073"><ele>214.0</ele><time>2026-04-30T10:48:39.881Z</time></trkpt><trkpt lat="38.1570314" lon="21.7289332"><ele>214.0</ele><time>2026-04-30T10:48:40.882Z</time></trkpt><trkpt lat="38.1572488" lon="21.7290318"><ele>214.0</ele><time>2026-04-30T10:48:41.881Z</time></trkpt><trkpt lat="38.1574749" lon="21.7291065"><ele>217.0</ele><time>2026-04-30T10:48:42.881Z</time></trkpt><trkpt lat="38.1576983" lon="21.7291751"><ele>220.0</ele><time>2026-04-30T10:48:43.881Z</time></trkpt><trkpt lat="38.1579271" lon="21.7292101"><ele>220.0</ele><time>2026-04-30T10:48:44.881Z</time></trkpt><trkpt lat="38.1581562" lon="21.7292185"><ele>220.0</ele><time>2026-04-30T10:48:45.882Z</time></trkpt><trkpt lat="38.1583743" lon="21.7292025"><ele>220.0</ele><time>2026-04-30T10:48:46.882Z</time></trkpt><trkpt lat="38.1585886" lon="21.7291674"><ele>219.66666666666666</ele><time>2026-04-30T10:48:47.881Z</time></trkpt><trkpt lat="38.1588004" lon="21.7291211"><ele>219.33333333333331</ele><time>2026-04-30T10:48:48.882Z</time></trkpt><trkpt lat="38.1590173" lon="21.7290714"><ele>219.0</ele><time>2026-04-30T10:48:49.881Z</time></trkpt><trkpt lat="38.1592387" lon="21.7290254"><ele>219.0</ele><time>2026-04-30T10:48:50.882Z</time></trkpt><trkpt lat="38.159464" lon="21.7289842"><ele>219.0</ele><time>2026-04-30T10:48:51.881Z</time></trkpt><trkpt lat="38.1596999" lon="21.7289489"><ele>218.0</ele><time>2026-04-30T10:48:52.881Z</time></trkpt><trkpt lat="38.1599429" lon="21.728915"><ele>217.0</ele><time>2026-04-30T10:48:53.882Z</time></trkpt><trkpt lat="38.1601887" lon="21.7288849"><ele>217.0</ele><time>2026-04-30T10:48:54.881Z</time></trkpt><trkpt lat="38.160439" lon="21.7288585"><ele>217.0</ele><time>2026-04-30T10:48:55.882Z</time></trkpt><trkpt lat="38.1606917" lon="21.7288314"><ele>215.5</ele><time>2026-04-30T10:48:56.882Z</time></trkpt><trkpt lat="38.1609425" lon="21.7288049"><ele>214.0</ele><time>2026-04-30T10:48:57.882Z</time></trkpt><trkpt lat="38.1611843" lon="21.7287768"><ele>214.0</ele><time>2026-04-30T10:48:58.881Z</time></trkpt><trkpt lat="38.1614163" lon="21.7287504"><ele>214.0</ele><time>2026-04-30T10:48:59.881Z</time></trkpt><trkpt lat="38.1616402" lon="21.7287256"><ele>214.66666666666666</ele><time>2026-04-30T10:49:00.882Z</time></trkpt><trkpt lat="38.161861" lon="21.7286975"><ele>215.33333333333331</ele><time>2026-04-30T10:49:01.881Z</time></trkpt><trkpt lat="38.1620816" lon="21.7286691"><ele>216.0</ele><time>2026-04-30T10:49:02.881Z</time></trkpt><trkpt lat="38.1622975" lon="21.7286457"><ele>216.0</ele><time>2026-04-30T10:49:03.882Z</time></trkpt><trkpt lat="38.162505" lon="21.7286247"><ele>216.0</ele><time>2026-04-30T10:49:04.882Z</time></trkpt><trkpt lat="38.1627045" lon="21.7286024"><ele>216.0</ele><time>2026-04-30T10:49:05.881Z</time></trkpt><trkpt lat="38.1628985" lon="21.7285812"><ele>216.0</ele><time>2026-04-30T10:49:06.882Z</time></trkpt><trkpt lat="38.1630947" lon="21.728564"><ele>216.0</ele><time>2026-04-30T10:49:07.882Z</time></trkpt><trkpt lat="38.1632817" lon="21.7285465"><ele>216.0</ele><time>2026-04-30T10:49:08.881Z</time></trkpt><trkpt lat="38.1634558" lon="21.728527"><ele>214.25</ele><time>2026-04-30T10:49:09.882Z</time></trkpt><trkpt lat="38.1636059" lon="21.7285284"><ele>212.5</ele><time>2026-04-30T10:49:10.882Z</time></trkpt><trkpt lat="38.163754" lon="21.7285145"><ele>210.75</ele><time>2026-04-30T10:49:11.882Z</time></trkpt><trkpt lat="38.1639047" lon="21.7285113"><ele>209.0</ele><time>2026-04-30T10:49:12.881Z</time></trkpt><trkpt lat="38.1640615" lon="21.7285213"><ele>209.33333333333334</ele><time>2026-04-30T10:49:13.881Z</time></trkpt><trkpt lat="38.164212" lon="21.7285442"><ele>209.66666666666669</ele><time>2026-04-30T10:49:14.882Z</time></trkpt><trkpt lat="38.1643698" lon="21.7285777"><ele>210.0</ele><time>2026-04-30T10:49:15.881Z</time></trkpt><trkpt lat="38.164543" lon="21.7286173"><ele>210.0</ele><time>2026-04-30T10:49:16.881Z</time></trkpt><trkpt lat="38.1647504" lon="21.7286682"><ele>210.0</ele><time>2026-04-30T10:49:17.882Z</time></trkpt><trkpt lat="38.1649888" lon="21.728732"><ele>205.5</ele><time>2026-04-30T10:49:18.882Z</time></trkpt><trkpt lat="38.1652348" lon="21.7288105"><ele>201.0</ele><time>2026-04-30T10:49:19.882Z</time></trkpt><trkpt lat="38.1654748" lon="21.7288935"><ele>198.0</ele><time>2026-04-30T10:49:20.881Z</time></trkpt><trkpt lat="38.1657258" lon="21.7289681"><ele>195.0</ele><time>2026-04-30T10:49:21.881Z</time></trkpt><trkpt lat="38.1659901" lon="21.7290224"><ele>195.0</ele><time>2026-04-30T10:49:22.882Z</time></trkpt><trkpt lat="38.166259" lon="21.7290533"><ele>195.0</ele><time>2026-04-30T10:49:23.882Z</time></trkpt><trkpt lat="38.1665325" lon="21.7290634"><ele>194.0</ele><time>2026-04-30T10:49:24.881Z</time></trkpt><trkpt lat="38.1667949" lon="21.729061"><ele>193.0</ele><time>2026-04-30T10:49:25.882Z</time></trkpt><trkpt lat="38.1670473" lon="21.7290546"><ele>193.0</ele><time>2026-04-30T10:49:26.881Z</time></trkpt><trkpt lat="38.1672902" lon="21.7290466"><ele>193.0</ele><time>2026-04-30T10:49:27.881Z</time></trkpt><trkpt lat="38.1675288" lon="21.729036"><ele>191.0</ele><time>2026-04-30T10:49:28.882Z</time></trkpt><trkpt lat="38.1677629" lon="21.7290266"><ele>189.0</ele><time>2026-04-30T10:49:29.882Z</time></trkpt><trkpt lat="38.1679882" lon="21.7290218"><ele>187.33333333333334</ele><time>2026-04-30T10:49:30.882Z</time></trkpt><trkpt lat="38.1682053" lon="21.7290181"><ele>185.66666666666669</ele><time>2026-04-30T10:49:31.882Z</time></trkpt><trkpt lat="38.1684169" lon="21.7290233"><ele>184.0</ele><time>2026-04-30T10:49:32.881Z</time></trkpt><trkpt lat="38.1686218" lon="21.729034"><ele>184.0</ele><time>2026-04-30T10:49:33.881Z</time></trkpt><trkpt lat="38.168816" lon="21.729065"><ele>184.0</ele><time>2026-04-30T10:49:34.881Z</time></trkpt><trkpt lat="38.1690053" lon="21.7291113"><ele>184.0</ele><time>2026-04-30T10:49:35.882Z</time></trkpt><trkpt lat="38.1691946" lon="21.7291777"><ele>183.0</ele><time>2026-04-30T10:49:36.881Z</time></trkpt><trkpt lat="38.1693772" lon="21.7292531"><ele>182.0</ele><time>2026-04-30T10:49:37.882Z</time></trkpt><trkpt lat="38.1695555" lon="21.7293406"><ele>181.0</ele><time>2026-04-30T10:49:38.882Z</time></trkpt><trkpt lat="38.1697294" lon="21.7294362"><ele>177.33333333333334</ele><time>2026-04-30T10:49:39.882Z</time></trkpt><trkpt lat="38.1698984" lon="21.7295388"><ele>173.66666666666666</ele><time>2026-04-30T10:49:40.882Z</time></trkpt><trkpt lat="38.1700594" lon="21.7296557"><ele>170.0</ele><time>2026-04-30T10:49:41.881Z</time></trkpt><trkpt lat="38.1702177" lon="21.7297659"><ele>170.0</ele><time>2026-04-30T10:49:42.882Z</time></trkpt><trkpt lat="38.1703775" lon="21.7298754"><ele>170.0</ele><time>2026-04-30T10:49:43.882Z</time></trkpt><trkpt lat="38.1705126" lon="21.7299686"><ele>170.0</ele><time>2026-04-30T10:49:44.882Z</time></trkpt><trkpt lat="38.1706451" lon="21.7300498"><ele>170.25</ele><time>2026-04-30T10:49:45.881Z</time></trkpt><trkpt lat="38.1707838" lon="21.7301202"><ele>170.5</ele><time>2026-04-30T10:49:46.881Z</time></trkpt><trkpt lat="38.1709204" lon="21.7301839"><ele>170.75</ele><time>2026-04-30T10:49:47.881Z</time></trkpt><trkpt lat="38.1710577" lon="21.7302423"><ele>171.0</ele><time>2026-04-30T10:49:48.881Z</time></trkpt><trkpt lat="38.1712035" lon="21.7302937"><ele>171.0</ele><time>2026-04-30T10:49:49.882Z</time></trkpt><trkpt lat="38.1713476" lon="21.7303357"><ele>171.0</ele><time>2026-04-30T10:49:50.882Z</time></trkpt><trkpt lat="38.1714917" lon="21.730351"><ele>171.0</ele><time>2026-04-30T10:49:51.882Z</time></trkpt><trkpt lat="38.1716326" lon="21.7303429"><ele>171.0</ele><time>2026-04-30T10:49:52.881Z</time></trkpt><trkpt lat="38.1717737" lon="21.7303212"><ele>169.25</ele><time>2026-04-30T10:49:53.882Z</time></trkpt><trkpt lat="38.1719141" lon="21.7302906"><ele>167.5</ele><time>2026-04-30T10:49:54.881Z</time></trkpt><trkpt lat="38.1720517" lon="21.730254"><ele>165.75</ele><time>2026-04-30T10:49:55.882Z</time></trkpt><trkpt lat="38.1721908" lon="21.7302135"><ele>164.0</ele><time>2026-04-30T10:49:56.882Z</time></trkpt><trkpt lat="38.1723331" lon="21.7301743"><ele>160.25</ele><time>2026-04-30T10:49:57.882Z</time></trkpt><trkpt lat="38.1724773" lon="21.7301348"><ele>156.5</ele><time>2026-04-30T10:49:58.881Z</time></trkpt><trkpt lat="38.1726216" lon="21.7300928"><ele>152.75</ele><time>2026-04-30T10:49:59.881Z</time></trkpt><trkpt lat="38.1727676" lon="21.7300523"><ele>149.0</ele><time>2026-04-30T10:50:00.881Z</time></trkpt><trkpt lat="38.1729074" lon="21.7300134"><ele>149.0</ele><time>2026-04-30T10:50:01.882Z</time></trkpt><trkpt lat="38.1730481" lon="21.7299746"><ele>149.0</ele><time>2026-04-30T10:50:02.881Z</time></trkpt><trkpt lat="38.173195" lon="21.729935"><ele>149.0</ele><time>2026-04-30T10:50:03.882Z</time></trkpt><trkpt lat="38.1733379" lon="21.7299015"><ele>149.0</ele><time>2026-04-30T10:50:04.882Z</time></trkpt><trkpt lat="38.1734819" lon="21.7298783"><ele>148.0</ele><time>2026-04-30T10:50:05.881Z</time></trkpt><trkpt lat="38.1736246" lon="21.7298644"><ele>147.0</ele><time>2026-04-30T10:50:06.882Z</time></trkpt><trkpt lat="38.1737653" lon="21.7298519"><ele>146.0</ele><time>2026-04-30T10:50:07.882Z</time></trkpt><trkpt lat="38.173906" lon="21.7298334"><ele>145.0</ele><time>2026-04-30T10:50:08.882Z</time></trkpt><trkpt lat="38.1740485" lon="21.729804"><ele>143.0</ele><time>2026-04-30T10:50:09.881Z</time></trkpt><trkpt lat="38.1741912" lon="21.7297652"><ele>141.0</ele><time>2026-04-30T10:50:10.882Z</time></trkpt><trkpt lat="38.1743412" lon="21.7297174"><ele>139.0</ele><time>2026-04-30T10:50:11.882Z</time></trkpt><trkpt lat="38.1744985" lon="21.7296554"><ele>139.0</ele><time>2026-04-30T10:50:12.882Z</time></trkpt><trkpt lat="38.1746644" lon="21.7295793"><ele>139.0</ele><time>2026-04-30T10:50:13.882Z</time></trkpt><trkpt lat="38.1748318" lon="21.7294902"><ele>139.0</ele><time>2026-04-30T10:50:14.882Z</time></trkpt><trkpt lat="38.1749974" lon="21.7293897"><ele>134.0</ele><time>2026-04-30T10:50:15.882Z</time></trkpt><trkpt lat="38.1751661" lon="21.7292742"><ele>129.0</ele><time>2026-04-30T10:50:16.882Z</time></trkpt><trkpt lat="38.1753378" lon="21.7291532"><ele>124.0</ele><time>2026-04-30T10:50:17.882Z</time></trkpt><trkpt lat="38.1755118" lon="21.7290325"><ele>124.0</ele><time>2026-04-30T10:50:18.882Z</time></trkpt><trkpt lat="38.1756843" lon="21.7289102"><ele>124.0</ele><time>2026-04-30T10:50:19.881Z</time></trkpt><trkpt lat="38.1758509" lon="21.7287873"><ele>124.0</ele><time>2026-04-30T10:50:20.882Z</time></trkpt><trkpt lat="38.1760158" lon="21.728667"><ele>122.33333333333334</ele><time>2026-04-30T10:50:21.882Z</time></trkpt><trkpt lat="38.1761767" lon="21.7285478"><ele>120.66666666666666</ele><time>2026-04-30T10:50:22.882Z</time></trkpt><trkpt lat="38.1763353" lon="21.7284329"><ele>119.0</ele><time>2026-04-30T10:50:23.882Z</time></trkpt><trkpt lat="38.1764844" lon="21.7283207"><ele>119.5</ele><time>2026-04-30T10:50:24.882Z</time></trkpt><trkpt lat="38.1766194" lon="21.7282242"><ele>120.0</ele><time>2026-04-30T10:50:25.882Z</time></trkpt><trkpt lat="38.1767451" lon="21.7281457"><ele>120.5</ele><time>2026-04-30T10:50:26.881Z</time></trkpt><trkpt lat="38.1768719" lon="21.7280897"><ele>121.0</ele><time>2026-04-30T10:50:27.881Z</time></trkpt><trkpt lat="38.1769918" lon="21.7280277"><ele>121.0</ele><time>2026-04-30T10:50:28.881Z</time></trkpt><trkpt lat="38.177111" lon="21.7279716"><ele>121.0</ele><time>2026-04-30T10:50:29.882Z</time></trkpt><trkpt lat="38.1772451" lon="21.7279055"><ele>121.0</ele><time>2026-04-30T10:50:30.882Z</time></trkpt><trkpt lat="38.1773929" lon="21.7278447"><ele>121.0</ele><time>2026-04-30T10:50:31.881Z</time></trkpt><trkpt lat="38.1775299" lon="21.7277951"><ele>121.75</ele><time>2026-04-30T10:50:32.882Z</time></trkpt><trkpt lat="38.1776521" lon="21.7277638"><ele>122.5</ele><time>2026-04-30T10:50:33.882Z</time></trkpt><trkpt lat="38.1777655" lon="21.7277459"><ele>123.25</ele><time>2026-04-30T10:50:34.881Z</time></trkpt><trkpt lat="38.1778768" lon="21.7277436"><ele>124.0</ele><time>2026-04-30T10:50:35.882Z</time></trkpt><trkpt lat="38.1779914" lon="21.7277514"><ele>124.0</ele><time>2026-04-30T10:50:36.882Z</time></trkpt><trkpt lat="38.1781089" lon="21.7277676"><ele>124.0</ele><time>2026-04-30T10:50:37.882Z</time></trkpt><trkpt lat="38.1782334" lon="21.72779"><ele>124.0</ele><time>2026-04-30T10:50:38.882Z</time></trkpt><trkpt lat="38.178357" lon="21.727818"><ele>124.0</ele><time>2026-04-30T10:50:39.881Z</time></trkpt><trkpt lat="38.1784815" lon="21.7278614"><ele>121.75</ele><time>2026-04-30T10:50:40.882Z</time></trkpt><trkpt lat="38.1786099" lon="21.7279124"><ele>119.5</ele><time>2026-04-30T10:50:41.881Z</time></trkpt><trkpt lat="38.1787404" lon="21.7279757"><ele>117.25</ele><time>2026-04-30T10:50:42.882Z</time></trkpt><trkpt lat="38.1788773" lon="21.7280452"><ele>115.0</ele><time>2026-04-30T10:50:43.881Z</time></trkpt><trkpt lat="38.1790142" lon="21.7281186"><ele>111.0</ele><time>2026-04-30T10:50:44.881Z</time></trkpt><trkpt lat="38.1791513" lon="21.7281944"><ele>107.0</ele><time>2026-04-30T10:50:45.882Z</time></trkpt><trkpt lat="38.1792923" lon="21.7282783"><ele>103.0</ele><time>2026-04-30T10:50:46.881Z</time></trkpt><trkpt lat="38.1794386" lon="21.7283676"><ele>103.0</ele><time>2026-04-30T10:50:47.882Z</time></trkpt><trkpt lat="38.1795892" lon="21.7284592"><ele>103.0</ele><time>2026-04-30T10:50:48.881Z</time></trkpt><trkpt lat="38.1797357" lon="21.7285499"><ele>103.0</ele><time>2026-04-30T10:50:49.881Z</time></trkpt><trkpt lat="38.1798725" lon="21.7286352"><ele>99.5</ele><time>2026-04-30T10:50:50.882Z</time></trkpt><trkpt lat="38.1800039" lon="21.7287151"><ele>96.0</ele><time>2026-04-30T10:50:51.881Z</time></trkpt><trkpt lat="38.1801334" lon="21.728784"><ele>92.5</ele><time>2026-04-30T10:50:52.881Z</time></trkpt><trkpt lat="38.1802666" lon="21.7288404"><ele>89.0</ele><time>2026-04-30T10:50:53.881Z</time></trkpt><trkpt lat="38.1804061" lon="21.7288844"><ele>89.0</ele><time>2026-04-30T10:50:54.882Z</time></trkpt><trkpt lat="38.1805434" lon="21.7289171"><ele>89.0</ele><time>2026-04-30T10:50:55.882Z</time></trkpt><trkpt lat="38.1806733" lon="21.728941"><ele>89.0</ele><time>2026-04-30T10:50:56.882Z</time></trkpt><trkpt lat="38.1807848" lon="21.7289546"><ele>89.0</ele><time>2026-04-30T10:50:57.881Z</time></trkpt><trkpt lat="38.1808928" lon="21.7289614"><ele>88.0</ele><time>2026-04-30T10:50:58.882Z</time></trkpt><trkpt lat="38.180975" lon="21.7289588"><ele>87.0</ele><time>2026-04-30T10:50:59.881Z</time></trkpt><trkpt lat="38.1810541" lon="21.7289497"><ele>86.0</ele><time>2026-04-30T10:51:00.882Z</time></trkpt><trkpt lat="38.1811404" lon="21.7289349"><ele>85.0</ele><time>2026-04-30T10:51:01.881Z</time></trkpt><trkpt lat="38.1812301" lon="21.7289104"><ele>84.0</ele><time>2026-04-30T10:51:02.882Z</time></trkpt><trkpt lat="38.1813258" lon="21.7288693"><ele>83.0</ele><time>2026-04-30T10:51:03.881Z</time></trkpt><trkpt lat="38.1814444" lon="21.7287938"><ele>84.0</ele><time>2026-04-30T10:51:04.881Z</time></trkpt><trkpt lat="38.1815767" lon="21.7287018"><ele>85.0</ele><time>2026-04-30T10:51:05.882Z</time></trkpt><trkpt lat="38.1816995" lon="21.7285885"><ele>86.0</ele><time>2026-04-30T10:51:06.882Z</time></trkpt><trkpt lat="38.1818131" lon="21.7284727"><ele>87.0</ele><time>2026-04-30T10:51:07.882Z</time></trkpt><trkpt lat="38.1819187" lon="21.7283577"><ele>85.39999999999999</ele><time>2026-04-30T10:51:08.882Z</time></trkpt><trkpt lat="38.1820113" lon="21.7282534"><ele>83.8</ele><time>2026-04-30T10:51:09.882Z</time></trkpt><trkpt lat="38.1820935" lon="21.7281524"><ele>82.2</ele><time>2026-04-30T10:51:10.882Z</time></trkpt><trkpt lat="38.1821653" lon="21.7280665"><ele>80.6</ele><time>2026-04-30T10:51:11.881Z</time></trkpt><trkpt lat="38.1822344" lon="21.7279797"><ele>79.0</ele><time>2026-04-30T10:51:12.882Z</time></trkpt><trkpt lat="38.1823265" lon="21.7278632"><ele>78.0</ele><time>2026-04-30T10:51:13.881Z</time></trkpt><trkpt lat="38.1824494" lon="21.7277104"><ele>77.0</ele><time>2026-04-30T10:51:14.882Z</time></trkpt><trkpt lat="38.1825686" lon="21.7275797"><ele>76.0</ele><time>2026-04-30T10:51:15.882Z</time></trkpt><trkpt lat="38.1827581" lon="21.7274224"><ele>76.0</ele><time>2026-04-30T10:51:16.882Z</time></trkpt><trkpt lat="38.1829294" lon="21.7272802"><ele>76.0</ele><time>2026-04-30T10:51:17.881Z</time></trkpt><trkpt lat="38.1830973" lon="21.7271594"><ele>76.0</ele><time>2026-04-30T10:51:18.882Z</time></trkpt><trkpt lat="38.1832662" lon="21.7270549"><ele>77.33333333333333</ele><time>2026-04-30T10:51:19.881Z</time></trkpt><trkpt lat="38.1834431" lon="21.7269719"><ele>78.66666666666667</ele><time>2026-04-30T10:51:20.882Z</time></trkpt><trkpt lat="38.1836247" lon="21.7269121"><ele>80.0</ele><time>2026-04-30T10:51:21.881Z</time></trkpt><trkpt lat="38.1838048" lon="21.7268715"><ele>76.66666666666667</ele><time>2026-04-30T10:51:22.882Z</time></trkpt><trkpt lat="38.1840001" lon="21.7268482"><ele>73.33333333333333</ele><time>2026-04-30T10:51:23.881Z</time></trkpt><trkpt lat="38.1841713" lon="21.7268369"><ele>70.0</ele><time>2026-04-30T10:51:24.882Z</time></trkpt><trkpt lat="38.1843393" lon="21.7268389"><ele>69.33333333333333</ele><time>2026-04-30T10:51:25.882Z</time></trkpt><trkpt lat="38.1845019" lon="21.7268573"><ele>68.66666666666667</ele><time>2026-04-30T10:51:26.882Z</time></trkpt><trkpt lat="38.1846542" lon="21.7268902"><ele>68.0</ele><time>2026-04-30T10:51:27.881Z</time></trkpt><trkpt lat="38.1848028" lon="21.726935"><ele>68.25</ele><time>2026-04-30T10:51:28.881Z</time></trkpt><trkpt lat="38.1849468" lon="21.7269837"><ele>68.5</ele><time>2026-04-30T10:51:29.882Z</time></trkpt><trkpt lat="38.1850867" lon="21.727038"><ele>68.75</ele><time>2026-04-30T10:51:30.881Z</time></trkpt><trkpt lat="38.1852182" lon="21.7270988"><ele>69.0</ele><time>2026-04-30T10:51:31.881Z</time></trkpt><trkpt lat="38.1853455" lon="21.7271662"><ele>69.0</ele><time>2026-04-30T10:51:32.881Z</time></trkpt><trkpt lat="38.1854688" lon="21.7272384"><ele>69.0</ele><time>2026-04-30T10:51:33.881Z</time></trkpt><trkpt lat="38.1855959" lon="21.7273191"><ele>69.0</ele><time>2026-04-30T10:51:34.882Z</time></trkpt><trkpt lat="38.1857148" lon="21.7273996"><ele>69.0</ele><time>2026-04-30T10:51:35.881Z</time></trkpt><trkpt lat="38.1858348" lon="21.7274787"><ele>68.25</ele><time>2026-04-30T10:51:36.882Z</time></trkpt><trkpt lat="38.1859566" lon="21.7275603"><ele>67.5</ele><time>2026-04-30T10:51:37.882Z</time></trkpt><trkpt lat="38.186085" lon="21.7276469"><ele>66.75</ele><time>2026-04-30T10:51:38.882Z</time></trkpt><trkpt lat="38.1862106" lon="21.7277276"><ele>66.0</ele><time>2026-04-30T10:51:39.882Z</time></trkpt><trkpt lat="38.186335" lon="21.7277969"><ele>66.0</ele><time>2026-04-30T10:51:40.882Z</time></trkpt><trkpt lat="38.186458" lon="21.7278512"><ele>66.0</ele><time>2026-04-30T10:51:41.881Z</time></trkpt><trkpt lat="38.1865813" lon="21.7278966"><ele>66.0</ele><time>2026-04-30T10:51:42.882Z</time></trkpt><trkpt lat="38.1867004" lon="21.727933"><ele>66.0</ele><time>2026-04-30T10:51:43.881Z</time></trkpt><trkpt lat="38.1868247" lon="21.7279688"><ele>66.0</ele><time>2026-04-30T10:51:44.881Z</time></trkpt><trkpt lat="38.186961" lon="21.728009"><ele>66.0</ele><time>2026-04-30T10:51:45.881Z</time></trkpt><trkpt lat="38.1871216" lon="21.7280485"><ele>66.0</ele><time>2026-04-30T10:51:46.881Z</time></trkpt><trkpt lat="38.1872956" lon="21.7280891"><ele>65.0</ele><time>2026-04-30T10:51:47.881Z</time></trkpt><trkpt lat="38.1874668" lon="21.7281471"><ele>64.0</ele><time>2026-04-30T10:51:48.881Z</time></trkpt><trkpt lat="38.1876319" lon="21.7282123"><ele>63.0</ele><time>2026-04-30T10:51:49.881Z</time></trkpt><trkpt lat="38.187774" lon="21.72827"><ele>63.0</ele><time>2026-04-30T10:51:50.881Z</time></trkpt><trkpt lat="38.1879025" lon="21.7283256"><ele>63.0</ele><time>2026-04-30T10:51:51.882Z</time></trkpt><trkpt lat="38.1880182" lon="21.7283781"><ele>63.0</ele><time>2026-04-30T10:51:52.881Z</time></trkpt><trkpt lat="38.1881119" lon="21.7284252"><ele>63.0</ele><time>2026-04-30T10:51:53.881Z</time></trkpt><trkpt lat="38.1881989" lon="21.7284667"><ele>62.714285714285715</ele><time>2026-04-30T10:51:54.881Z</time></trkpt><trkpt lat="38.1882655" lon="21.7285"><ele>62.42857142857143</ele><time>2026-04-30T10:51:55.881Z</time></trkpt><trkpt lat="38.1883266" lon="21.7285288"><ele>62.14285714285714</ele><time>2026-04-30T10:51:56.881Z</time></trkpt><trkpt lat="38.1883847" lon="21.7285616"><ele>61.857142857142854</ele><time>2026-04-30T10:51:57.882Z</time></trkpt><trkpt lat="38.1884425" lon="21.7285997"><ele>61.57142857142857</ele><time>2026-04-30T10:51:58.881Z</time></trkpt><trkpt lat="38.1885037" lon="21.7286473"><ele>61.28571428571428</ele><time>2026-04-30T10:51:59.882Z</time></trkpt><trkpt lat="38.188568" lon="21.7287018"><ele>60.99999999999999</ele><time>2026-04-30T10:52:00.882Z</time></trkpt><trkpt lat="38.1886337" lon="21.7287613"><ele>60.99999999999999</ele><time>2026-04-30T10:52:01.881Z</time></trkpt><trkpt lat="38.1887012" lon="21.7288208"><ele>61.0</ele><time>2026-04-30T10:52:02.882Z</time></trkpt><trkpt lat="38.1887682" lon="21.7288846"><ele>61.0</ele><time>2026-04-30T10:52:03.881Z</time></trkpt><trkpt lat="38.1888348" lon="21.7289495"><ele>61.0</ele><time>2026-04-30T10:52:04.882Z</time></trkpt><trkpt lat="38.1889013" lon="21.7290145"><ele>60.99999999999999</ele><time>2026-04-30T10:52:05.881Z</time></trkpt><trkpt lat="38.1889692" lon="21.729078"><ele>61.0</ele><time>2026-04-30T10:52:06.882Z</time></trkpt><trkpt lat="38.1890392" lon="21.7291461"><ele>60.199999999999996</ele><time>2026-04-30T10:52:07.881Z</time></trkpt><trkpt lat="38.1891085" lon="21.7292127"><ele>59.39999999999999</ele><time>2026-04-30T10:52:08.882Z</time></trkpt><trkpt lat="38.1891815" lon="21.7292817"><ele>58.6</ele><time>2026-04-30T10:52:09.882Z</time></trkpt><trkpt lat="38.1892547" lon="21.7293538"><ele>57.8</ele><time>2026-04-30T10:52:10.881Z</time></trkpt><trkpt lat="38.1893275" lon="21.7294249"><ele>57.0</ele><time>2026-04-30T10:52:11.881Z</time></trkpt><trkpt lat="38.1894043" lon="21.7294967"><ele>57.0</ele><time>2026-04-30T10:52:12.882Z</time></trkpt><trkpt lat="38.1894794" lon="21.7295643"><ele>57.0</ele><time>2026-04-30T10:52:13.881Z</time></trkpt><trkpt lat="38.1895523" lon="21.7296301"><ele>57.0</ele><time>2026-04-30T10:52:14.882Z</time></trkpt><trkpt lat="38.1896401" lon="21.7296991"><ele>57.0</ele><time>2026-04-30T10:52:15.881Z</time></trkpt><trkpt lat="38.1897143" lon="21.729766"><ele>57.0</ele><time>2026-04-30T10:52:16.881Z</time></trkpt><trkpt lat="38.1897887" lon="21.729839"><ele>57.2</ele><time>2026-04-30T10:52:17.882Z</time></trkpt><trkpt lat="38.1898606" lon="21.7299173"><ele>57.400000000000006</ele><time>2026-04-30T10:52:18.881Z</time></trkpt><trkpt lat="38.1899354" lon="21.7299954"><ele>57.599999999999994</ele><time>2026-04-30T10:52:19.882Z</time></trkpt><trkpt lat="38.1900149" lon="21.730084"><ele>57.8</ele><time>2026-04-30T10:52:20.881Z</time></trkpt><trkpt lat="38.190095" lon="21.7301615"><ele>58.0</ele><time>2026-04-30T10:52:21.882Z</time></trkpt><trkpt lat="38.1901626" lon="21.7302343"><ele>58.0</ele><time>2026-04-30T10:52:22.882Z</time></trkpt><trkpt lat="38.1902339" lon="21.7303105"><ele>58.0</ele><time>2026-04-30T10:52:23.882Z</time></trkpt><trkpt lat="38.1903048" lon="21.7303866"><ele>58.0</ele><time>2026-04-30T10:52:24.881Z</time></trkpt><trkpt lat="38.1903756" lon="21.7304597"><ele>58.0</ele><time>2026-04-30T10:52:25.881Z</time></trkpt><trkpt lat="38.1904434" lon="21.7305439"><ele>58.0</ele><time>2026-04-30T10:52:26.882Z</time></trkpt><trkpt lat="38.1905096" lon="21.7306398"><ele>58.0</ele><time>2026-04-30T10:52:27.882Z</time></trkpt><trkpt lat="38.190584" lon="21.7307512"><ele>58.0</ele><time>2026-04-30T10:52:28.882Z</time></trkpt><trkpt lat="38.1906617" lon="21.7308687"><ele>58.0</ele><time>2026-04-30T10:52:29.882Z</time></trkpt><trkpt lat="38.1907413" lon="21.7309911"><ele>58.0</ele><time>2026-04-30T10:52:30.882Z</time></trkpt><trkpt lat="38.1908209" lon="21.731119"><ele>57.25</ele><time>2026-04-30T10:52:31.88Z</time></trkpt><trkpt lat="38.1909063" lon="21.7312451"><ele>56.5</ele><time>2026-04-30T10:52:32.881Z</time></trkpt><trkpt lat="38.1909918" lon="21.7313759"><ele>55.75</ele><time>2026-04-30T10:52:33.881Z</time></trkpt><trkpt lat="38.1910801" lon="21.7315098"><ele>55.0</ele><time>2026-04-30T10:52:34.882Z</time></trkpt><trkpt lat="38.1911668" lon="21.7316428"><ele>55.0</ele><time>2026-04-30T10:52:35.881Z</time></trkpt><trkpt lat="38.1912493" lon="21.7317697"><ele>55.0</ele><time>2026-04-30T10:52:36.881Z</time></trkpt><trkpt lat="38.1913345" lon="21.7318954"><ele>55.0</ele><time>2026-04-30T10:52:37.882Z</time></trkpt><trkpt lat="38.1914211" lon="21.7320113"><ele>55.0</ele><time>2026-04-30T10:52:38.881Z</time></trkpt><trkpt lat="38.1915156" lon="21.7321107"><ele>54.5</ele><time>2026-04-30T10:52:39.882Z</time></trkpt><trkpt lat="38.1916155" lon="21.7321892"><ele>54.0</ele><time>2026-04-30T10:52:40.881Z</time></trkpt><trkpt lat="38.191722" lon="21.7322435"><ele>53.5</ele><time>2026-04-30T10:52:41.882Z</time></trkpt><trkpt lat="38.1918333" lon="21.7322695"><ele>53.0</ele><time>2026-04-30T10:52:42.881Z</time></trkpt><trkpt lat="38.1919529" lon="21.7322716"><ele>53.0</ele><time>2026-04-30T10:52:43.881Z</time></trkpt><trkpt lat="38.1920717" lon="21.7322519"><ele>53.0</ele><time>2026-04-30T10:52:44.881Z</time></trkpt><trkpt lat="38.1921932" lon="21.7322272"><ele>53.0</ele><time>2026-04-30T10:52:45.881Z</time></trkpt><trkpt lat="38.1923155" lon="21.7322052"><ele>53.0</ele><time>2026-04-30T10:52:46.882Z</time></trkpt><trkpt lat="38.1924369" lon="21.7321848"><ele>51.5</ele><time>2026-04-30T10:52:47.881Z</time></trkpt><trkpt lat="38.1925535" lon="21.7321643"><ele>50.0</ele><time>2026-04-30T10:52:48.881Z</time></trkpt><trkpt lat="38.1926664" lon="21.7321471"><ele>48.5</ele><time>2026-04-30T10:52:49.882Z</time></trkpt><trkpt lat="38.1927796" lon="21.7321284"><ele>47.0</ele><time>2026-04-30T10:52:50.882Z</time></trkpt><trkpt lat="38.1928954" lon="21.7321057"><ele>47.0</ele><time>2026-04-30T10:52:51.881Z</time></trkpt><trkpt lat="38.1930112" lon="21.7320858"><ele>47.0</ele><time>2026-04-30T10:52:52.881Z</time></trkpt><trkpt lat="38.193124" lon="21.7320682"><ele>47.0</ele><time>2026-04-30T10:52:53.881Z</time></trkpt><trkpt lat="38.1932337" lon="21.7320506"><ele>47.0</ele><time>2026-04-30T10:52:54.882Z</time></trkpt><trkpt lat="38.1933478" lon="21.732032"><ele>46.0</ele><time>2026-04-30T10:52:55.881Z</time></trkpt><trkpt lat="38.1934501" lon="21.7320177"><ele>45.0</ele><time>2026-04-30T10:52:56.882Z</time></trkpt><trkpt lat="38.1935446" lon="21.732003"><ele>44.0</ele><time>2026-04-30T10:52:57.882Z</time></trkpt><trkpt lat="38.1936329" lon="21.7319858"><ele>43.0</ele><time>2026-04-30T10:52:58.882Z</time></trkpt><trkpt lat="38.1937115" lon="21.7319731"><ele>42.0</ele><time>2026-04-30T10:52:59.881Z</time></trkpt><trkpt lat="38.1937921" lon="21.7319601"><ele>41.0</ele><time>2026-04-30T10:53:00.881Z</time></trkpt><trkpt lat="38.1938783" lon="21.7319478"><ele>41.0</ele><time>2026-04-30T10:53:01.881Z</time></trkpt><trkpt lat="38.1939638" lon="21.7319318"><ele>41.0</ele><time>2026-04-30T10:53:02.881Z</time></trkpt><trkpt lat="38.1940501" lon="21.7319145"><ele>41.0</ele><time>2026-04-30T10:53:03.882Z</time></trkpt><trkpt lat="38.194129" lon="21.7319056"><ele>41.0</ele><time>2026-04-30T10:53:04.881Z</time></trkpt><trkpt lat="38.1942142" lon="21.7318833"><ele>41.0</ele><time>2026-04-30T10:53:05.882Z</time></trkpt><trkpt lat="38.1943019" lon="21.7318736"><ele>41.0</ele><time>2026-04-30T10:53:06.882Z</time></trkpt><trkpt lat="38.1943762" lon="21.7318982"><ele>40.199999999999996</ele><time>2026-04-30T10:53:08.881Z</time></trkpt><trkpt lat="38.194422" lon="21.7319807"><ele>39.4</ele><time>2026-04-30T10:53:10.882Z</time></trkpt><trkpt lat="38.1944589" lon="21.7321144"><ele>38.6</ele><time>2026-04-30T10:53:13.881Z</time></trkpt><trkpt lat="38.1944824" lon="21.7322736"><ele>37.8</ele><time>2026-04-30T10:53:15.882Z</time></trkpt><trkpt lat="38.1944955" lon="21.7323762"><ele>37.0</ele><time>2026-04-30T10:53:16.881Z</time></trkpt><trkpt lat="38.1945098" lon="21.7324995"><ele>37.0</ele><time>2026-04-30T10:53:17.881Z</time></trkpt><trkpt lat="38.1945189" lon="21.732625"><ele>37.0</ele><time>2026-04-30T10:53:18.881Z</time></trkpt><trkpt lat="38.194528" lon="21.732759"><ele>37.0</ele><time>2026-04-30T10:53:19.882Z</time></trkpt><trkpt lat="38.1945389" lon="21.7328945"><ele>37.0</ele><time>2026-04-30T10:53:20.882Z</time></trkpt><trkpt lat="38.1945509" lon="21.7330351"><ele>37.0</ele><time>2026-04-30T10:53:21.882Z</time></trkpt><trkpt lat="38.1945687" lon="21.7331827"><ele>37.75</ele><time>2026-04-30T10:53:22.882Z</time></trkpt><trkpt lat="38.1945894" lon="21.733327"><ele>38.5</ele><time>2026-04-30T10:53:23.882Z</time></trkpt><trkpt lat="38.1946144" lon="21.733471"><ele>39.25</ele><time>2026-04-30T10:53:24.882Z</time></trkpt><trkpt lat="38.1946447" lon="21.7336218"><ele>40.0</ele><time>2026-04-30T10:53:25.881Z</time></trkpt><trkpt lat="38.194674" lon="21.7337705"><ele>40.75</ele><time>2026-04-30T10:53:26.881Z</time></trkpt><trkpt lat="38.1947055" lon="21.7339251"><ele>41.5</ele><time>2026-04-30T10:53:27.882Z</time></trkpt><trkpt lat="38.1947378" lon="21.7340879"><ele>42.25</ele><time>2026-04-30T10:53:28.881Z</time></trkpt><trkpt lat="38.1947733" lon="21.7342519"><ele>43.0</ele><time>2026-04-30T10:53:29.881Z</time></trkpt><trkpt lat="38.1948123" lon="21.7344161"><ele>42.0</ele><time>2026-04-30T10:53:30.882Z</time></trkpt><trkpt lat="38.1948536" lon="21.7345797"><ele>41.0</ele><time>2026-04-30T10:53:31.882Z</time></trkpt><trkpt lat="38.1948959" lon="21.7347435"><ele>40.0</ele><time>2026-04-30T10:53:32.881Z</time></trkpt><trkpt lat="38.1949359" lon="21.7349091"><ele>39.0</ele><time>2026-04-30T10:53:33.882Z</time></trkpt><trkpt lat="38.194977" lon="21.7350777"><ele>39.75</ele><time>2026-04-30T10:53:34.881Z</time></trkpt><trkpt lat="38.1950188" lon="21.7352445"><ele>40.5</ele><time>2026-04-30T10:53:35.882Z</time></trkpt><trkpt lat="38.1950595" lon="21.7354123"><ele>41.25</ele><time>2026-04-30T10:53:36.882Z</time></trkpt><trkpt lat="38.195103" lon="21.7355802"><ele>42.0</ele><time>2026-04-30T10:53:37.881Z</time></trkpt><trkpt lat="38.1951493" lon="21.7357472"><ele>42.0</ele><time>2026-04-30T10:53:38.882Z</time></trkpt><trkpt lat="38.1951963" lon="21.7359146"><ele>42.0</ele><time>2026-04-30T10:53:39.882Z</time></trkpt><trkpt lat="38.1952422" lon="21.736086"><ele>42.0</ele><time>2026-04-30T10:53:40.881Z</time></trkpt><trkpt lat="38.1952897" lon="21.7362618"><ele>42.0</ele><time>2026-04-30T10:53:41.882Z</time></trkpt><trkpt lat="38.1953309" lon="21.7364353"><ele>42.75</ele><time>2026-04-30T10:53:42.881Z</time></trkpt><trkpt lat="38.1953722" lon="21.7366083"><ele>43.5</ele><time>2026-04-30T10:53:43.882Z</time></trkpt><trkpt lat="38.1954138" lon="21.7367781"><ele>44.25</ele><time>2026-04-30T10:53:44.882Z</time></trkpt><trkpt lat="38.1954549" lon="21.7369484"><ele>45.0</ele><time>2026-04-30T10:53:45.882Z</time></trkpt><trkpt lat="38.1954959" lon="21.73712"><ele>45.0</ele><time>2026-04-30T10:53:46.882Z</time></trkpt><trkpt lat="38.1955368" lon="21.7372919"><ele>45.0</ele><time>2026-04-30T10:53:47.882Z</time></trkpt><trkpt lat="38.1955775" lon="21.7374665"><ele>45.0</ele><time>2026-04-30T10:53:48.882Z</time></trkpt><trkpt lat="38.1956149" lon="21.7376397"><ele>45.0</ele><time>2026-04-30T10:53:49.881Z</time></trkpt><trkpt lat="38.1956514" lon="21.7378138"><ele>44.25</ele><time>2026-04-30T10:53:50.882Z</time></trkpt><trkpt lat="38.1956867" lon="21.7379899"><ele>43.5</ele><time>2026-04-30T10:53:51.882Z</time></trkpt><trkpt lat="38.1957237" lon="21.7381704"><ele>42.75</ele><time>2026-04-30T10:53:52.882Z</time></trkpt><trkpt lat="38.195765" lon="21.7383568"><ele>42.0</ele><time>2026-04-30T10:53:53.881Z</time></trkpt><trkpt lat="38.1958053" lon="21.7385461"><ele>41.666666666666664</ele><time>2026-04-30T10:53:54.882Z</time></trkpt><trkpt lat="38.1958502" lon="21.7387483"><ele>41.33333333333333</ele><time>2026-04-30T10:53:55.881Z</time></trkpt><trkpt lat="38.1959136" lon="21.7389755"><ele>41.0</ele><time>2026-04-30T10:53:56.882Z</time></trkpt><trkpt lat="38.1959832" lon="21.7392449"><ele>41.0</ele><time>2026-04-30T10:53:57.882Z</time></trkpt><trkpt lat="38.1960314" lon="21.7395202"><ele>41.0</ele><time>2026-04-30T10:53:58.882Z</time></trkpt><trkpt lat="38.196071" lon="21.7397905"><ele>41.0</ele><time>2026-04-30T10:53:59.882Z</time></trkpt><trkpt lat="38.1961015" lon="21.7400425"><ele>41.666666666666664</ele><time>2026-04-30T10:54:00.882Z</time></trkpt><trkpt lat="38.1961358" lon="21.7402868"><ele>42.333333333333336</ele><time>2026-04-30T10:54:01.882Z</time></trkpt><trkpt lat="38.1961644" lon="21.7405143"><ele>43.0</ele><time>2026-04-30T10:54:02.881Z</time></trkpt><trkpt lat="38.1961957" lon="21.7407381"><ele>43.0</ele><time>2026-04-30T10:54:03.882Z</time></trkpt><trkpt lat="38.1962276" lon="21.740953"><ele>43.0</ele><time>2026-04-30T10:54:04.881Z</time></trkpt><trkpt lat="38.1962592" lon="21.7411667"><ele>43.0</ele><time>2026-04-30T10:54:05.882Z</time></trkpt><trkpt lat="38.1962902" lon="21.7413808"><ele>42.66666666666667</ele><time>2026-04-30T10:54:06.881Z</time></trkpt><trkpt lat="38.1963167" lon="21.7415967"><ele>42.333333333333336</ele><time>2026-04-30T10:54:07.882Z</time></trkpt><trkpt lat="38.196346" lon="21.7418122"><ele>42.0</ele><time>2026-04-30T10:54:08.881Z</time></trkpt><trkpt lat="38.1963721" lon="21.7420343"><ele>42.0</ele><time>2026-04-30T10:54:09.881Z</time></trkpt><trkpt lat="38.1963941" lon="21.7422538"><ele>42.0</ele><time>2026-04-30T10:54:10.882Z</time></trkpt><trkpt lat="38.1964205" lon="21.7424702"><ele>42.0</ele><time>2026-04-30T10:54:11.881Z</time></trkpt><trkpt lat="38.1964443" lon="21.7426913"><ele>41.666666666666664</ele><time>2026-04-30T10:54:12.881Z</time></trkpt><trkpt lat="38.1964674" lon="21.7429099"><ele>41.33333333333333</ele><time>2026-04-30T10:54:13.882Z</time></trkpt><trkpt lat="38.1964927" lon="21.7431319"><ele>41.0</ele><time>2026-04-30T10:54:14.882Z</time></trkpt><trkpt lat="38.1965166" lon="21.7433457"><ele>42.0</ele><time>2026-04-30T10:54:15.881Z</time></trkpt><trkpt lat="38.1965426" lon="21.7435792"><ele>43.0</ele><time>2026-04-30T10:54:16.882Z</time></trkpt><trkpt lat="38.1965602" lon="21.7438121"><ele>44.0</ele><time>2026-04-30T10:54:17.881Z</time></trkpt><trkpt lat="38.1965786" lon="21.7440439"><ele>44.0</ele><time>2026-04-30T10:54:18.882Z</time></trkpt><trkpt lat="38.1965959" lon="21.7442811"><ele>44.0</ele><time>2026-04-30T10:54:19.881Z</time></trkpt><trkpt lat="38.1966113" lon="21.7445223"><ele>44.0</ele><time>2026-04-30T10:54:20.881Z</time></trkpt><trkpt lat="38.1966246" lon="21.7447642"><ele>44.33333333333333</ele><time>2026-04-30T10:54:21.882Z</time></trkpt><trkpt lat="38.1966374" lon="21.7450061"><ele>44.666666666666664</ele><time>2026-04-30T10:54:22.882Z</time></trkpt><trkpt lat="38.1966518" lon="21.7452462"><ele>45.0</ele><time>2026-04-30T10:54:23.882Z</time></trkpt><trkpt lat="38.1966637" lon="21.7454796"><ele>45.333333333333336</ele><time>2026-04-30T10:54:24.882Z</time></trkpt><trkpt lat="38.1966723" lon="21.7457062"><ele>45.66666666666667</ele><time>2026-04-30T10:54:25.882Z</time></trkpt><trkpt lat="38.1966798" lon="21.7459341"><ele>46.0</ele><time>2026-04-30T10:54:26.882Z</time></trkpt><trkpt lat="38.196685" lon="21.7461603"><ele>47.333333333333336</ele><time>2026-04-30T10:54:27.881Z</time></trkpt><trkpt lat="38.1966889" lon="21.7463838"><ele>48.66666666666667</ele><time>2026-04-30T10:54:28.882Z</time></trkpt><trkpt lat="38.1966931" lon="21.7466061"><ele>50.0</ele><time>2026-04-30T10:54:29.881Z</time></trkpt><trkpt lat="38.1966967" lon="21.7468277"><ele>51.0</ele><time>2026-04-30T10:54:30.882Z</time></trkpt><trkpt lat="38.1966988" lon="21.7470512"><ele>52.0</ele><time>2026-04-30T10:54:31.881Z</time></trkpt><trkpt lat="38.1966998" lon="21.7472736"><ele>53.0</ele><time>2026-04-30T10:54:32.881Z</time></trkpt><trkpt lat="38.1967" lon="21.7474999"><ele>53.66666666666667</ele><time>2026-04-30T10:54:33.882Z</time></trkpt><trkpt lat="38.1966988" lon="21.7477274"><ele>54.33333333333333</ele><time>2026-04-30T10:54:34.881Z</time></trkpt><trkpt lat="38.1966964" lon="21.7479551"><ele>55.0</ele><time>2026-04-30T10:54:35.882Z</time></trkpt><trkpt lat="38.1966917" lon="21.7481847"><ele>55.0</ele><time>2026-04-30T10:54:36.882Z</time></trkpt><trkpt lat="38.196685" lon="21.7484175"><ele>55.0</ele><time>2026-04-30T10:54:37.881Z</time></trkpt><trkpt lat="38.1966764" lon="21.7486491"><ele>55.0</ele><time>2026-04-30T10:54:38.881Z</time></trkpt><trkpt lat="38.1966686" lon="21.7488797"><ele>55.666666666666664</ele><time>2026-04-30T10:54:39.881Z</time></trkpt><trkpt lat="38.1966593" lon="21.7491103"><ele>56.33333333333333</ele><time>2026-04-30T10:54:40.882Z</time></trkpt><trkpt lat="38.1966511" lon="21.7493395"><ele>57.0</ele><time>2026-04-30T10:54:41.881Z</time></trkpt><trkpt lat="38.1966437" lon="21.7495599"><ele>58.33333333333333</ele><time>2026-04-30T10:54:42.882Z</time></trkpt><trkpt lat="38.1966344" lon="21.7497675"><ele>59.666666666666664</ele><time>2026-04-30T10:54:43.881Z</time></trkpt><trkpt lat="38.1966254" lon="21.7499678"><ele>61.0</ele><time>2026-04-30T10:54:44.881Z</time></trkpt><trkpt lat="38.196617" lon="21.7501582"><ele>61.4</ele><time>2026-04-30T10:54:45.881Z</time></trkpt><trkpt lat="38.1966102" lon="21.7503332"><ele>61.8</ele><time>2026-04-30T10:54:46.881Z</time></trkpt><trkpt lat="38.1965962" lon="21.7504857"><ele>62.199999999999996</ele><time>2026-04-30T10:54:47.882Z</time></trkpt><trkpt lat="38.1965906" lon="21.7506161"><ele>62.599999999999994</ele><time>2026-04-30T10:54:48.881Z</time></trkpt><trkpt lat="38.1965832" lon="21.7507244"><ele>63.0</ele><time>2026-04-30T10:54:49.882Z</time></trkpt><trkpt lat="38.1965718" lon="21.7508147"><ele>63.0</ele><time>2026-04-30T10:54:50.881Z</time></trkpt><trkpt lat="38.1965177" lon="21.7508614"><ele>63.0</ele><time>2026-04-30T10:54:51.882Z</time></trkpt><trkpt lat="38.1963968" lon="21.7508423"><ele>63.0</ele><time>2026-04-30T10:54:53.882Z</time></trkpt><trkpt lat="38.1963338" lon="21.7508369"><ele>63.0</ele><time>2026-04-30T10:54:54.882Z</time></trkpt><trkpt lat="38.196248" lon="21.75084"><ele>63.0</ele><time>2026-04-30T10:54:55.882Z</time></trkpt><trkpt lat="38.1961409" lon="21.7508389"><ele>63.0</ele><time>2026-04-30T10:54:57.882Z</time></trkpt><trkpt lat="38.1960888" lon="21.7509334"><ele>65.5</ele><time>2026-04-30T10:55:00.881Z</time></trkpt><trkpt lat="38.1960752" lon="21.7511232"><ele>68.0</ele><time>2026-04-30T10:55:02.882Z</time></trkpt><trkpt lat="38.1960698" lon="21.7512435"><ele>70.5</ele><time>2026-04-30T10:55:03.882Z</time></trkpt><trkpt lat="38.1960639" lon="21.7513829"><ele>73.0</ele><time>2026-04-30T10:55:04.881Z</time></trkpt><trkpt lat="38.1960567" lon="21.7515421"><ele>73.0</ele><time>2026-04-30T10:55:05.882Z</time></trkpt><trkpt lat="38.1960522" lon="21.7517162"><ele>73.0</ele><time>2026-04-30T10:55:06.882Z</time></trkpt><trkpt lat="38.1960503" lon="21.7518786"><ele>73.0</ele><time>2026-04-30T10:55:07.882Z</time></trkpt><trkpt lat="38.1960518" lon="21.7520634"><ele>73.0</ele><time>2026-04-30T10:55:08.882Z</time></trkpt><trkpt lat="38.1960475" lon="21.7522555"><ele>73.33333333333333</ele><time>2026-04-30T10:55:09.882Z</time></trkpt><trkpt lat="38.1960367" lon="21.7524594"><ele>73.66666666666667</ele><time>2026-04-30T10:55:10.881Z</time></trkpt><trkpt lat="38.1960232" lon="21.752653"><ele>74.0</ele><time>2026-04-30T10:55:11.882Z</time></trkpt><trkpt lat="38.1960092" lon="21.7528318"><ele>74.2</ele><time>2026-04-30T10:55:12.881Z</time></trkpt><trkpt lat="38.1960008" lon="21.7529873"><ele>74.4</ele><time>2026-04-30T10:55:13.881Z</time></trkpt><trkpt lat="38.1959957" lon="21.7531144"><ele>74.6</ele><time>2026-04-30T10:55:14.881Z</time></trkpt><trkpt lat="38.195994" lon="21.7532142"><ele>74.8</ele><time>2026-04-30T10:55:15.882Z</time></trkpt><trkpt lat="38.1959897" lon="21.7533504"><ele>75.0</ele><time>2026-04-30T10:55:17.881Z</time></trkpt><trkpt lat="38.1959843" lon="21.7534389"><ele>76.0</ele><time>2026-04-30T10:55:18.882Z</time></trkpt><trkpt lat="38.1959707" lon="21.7535588"><ele>77.0</ele><time>2026-04-30T10:55:19.882Z</time></trkpt><trkpt lat="38.1959568" lon="21.7537077"><ele>78.0</ele><time>2026-04-30T10:55:20.882Z</time></trkpt><trkpt lat="38.1959419" lon="21.7538702"><ele>79.0</ele><time>2026-04-30T10:55:21.881Z</time></trkpt><trkpt lat="38.1959269" lon="21.7540364"><ele>79.0</ele><time>2026-04-30T10:55:22.881Z</time></trkpt><trkpt lat="38.195912" lon="21.7542107"><ele>79.0</ele><time>2026-04-30T10:55:23.881Z</time></trkpt><trkpt lat="38.1958953" lon="21.7543907"><ele>79.0</ele><time>2026-04-30T10:55:24.882Z</time></trkpt><trkpt lat="38.195878" lon="21.7545737"><ele>79.0</ele><time>2026-04-30T10:55:25.882Z</time></trkpt><trkpt lat="38.19586" lon="21.754763"><ele>79.25</ele><time>2026-04-30T10:55:26.881Z</time></trkpt><trkpt lat="38.1958437" lon="21.7549465"><ele>79.5</ele><time>2026-04-30T10:55:27.881Z</time></trkpt><trkpt lat="38.1958269" lon="21.7551341"><ele>79.75</ele><time>2026-04-30T10:55:28.882Z</time></trkpt><trkpt lat="38.1958088" lon="21.7553126"><ele>80.0</ele><time>2026-04-30T10:55:29.881Z</time></trkpt><trkpt lat="38.1957919" lon="21.7554907"><ele>81.0</ele><time>2026-04-30T10:55:30.881Z</time></trkpt><trkpt lat="38.1957768" lon="21.755663"><ele>82.0</ele><time>2026-04-30T10:55:31.882Z</time></trkpt><trkpt lat="38.1957621" lon="21.7558299"><ele>83.0</ele><time>2026-04-30T10:55:32.881Z</time></trkpt><trkpt lat="38.1957491" lon="21.7559892"><ele>84.0</ele><time>2026-04-30T10:55:33.881Z</time></trkpt><trkpt lat="38.1957374" lon="21.7561335"><ele>84.0</ele><time>2026-04-30T10:55:34.881Z</time></trkpt><trkpt lat="38.195727" lon="21.7562697"><ele>84.0</ele><time>2026-04-30T10:55:35.882Z</time></trkpt><trkpt lat="38.1957166" lon="21.7564007"><ele>84.0</ele><time>2026-04-30T10:55:36.881Z</time></trkpt><trkpt lat="38.1957037" lon="21.7565381"><ele>84.0</ele><time>2026-04-30T10:55:37.882Z</time></trkpt><trkpt lat="38.1956888" lon="21.7566844"><ele>84.0</ele><time>2026-04-30T10:55:38.882Z</time></trkpt><trkpt lat="38.1956729" lon="21.7568396"><ele>85.0</ele><time>2026-04-30T10:55:39.882Z</time></trkpt><trkpt lat="38.1956672" lon="21.7570011"><ele>86.0</ele><time>2026-04-30T10:55:40.882Z</time></trkpt><trkpt lat="38.195663" lon="21.757175"><ele>87.0</ele><time>2026-04-30T10:55:41.881Z</time></trkpt><trkpt lat="38.1956589" lon="21.7573588"><ele>88.0</ele><time>2026-04-30T10:55:42.881Z</time></trkpt><trkpt lat="38.1956588" lon="21.7575496"><ele>88.66666666666666</ele><time>2026-04-30T10:55:43.882Z</time></trkpt><trkpt lat="38.1956653" lon="21.7577465"><ele>89.33333333333333</ele><time>2026-04-30T10:55:44.881Z</time></trkpt><trkpt lat="38.1956763" lon="21.7579446"><ele>90.0</ele><time>2026-04-30T10:55:45.881Z</time></trkpt><trkpt lat="38.1956883" lon="21.7581432"><ele>90.66666666666667</ele><time>2026-04-30T10:55:46.882Z</time></trkpt><trkpt lat="38.1956999" lon="21.758339"><ele>91.33333333333334</ele><time>2026-04-30T10:55:47.881Z</time></trkpt><trkpt lat="38.1957118" lon="21.7585297"><ele>92.0</ele><time>2026-04-30T10:55:48.881Z</time></trkpt><trkpt lat="38.1957224" lon="21.7587155"><ele>92.75</ele><time>2026-04-30T10:55:49.881Z</time></trkpt><trkpt lat="38.1957341" lon="21.7588951"><ele>93.5</ele><time>2026-04-30T10:55:50.882Z</time></trkpt><trkpt lat="38.1957478" lon="21.7590754"><ele>94.25</ele><time>2026-04-30T10:55:51.882Z</time></trkpt><trkpt lat="38.1957647" lon="21.7592569"><ele>95.0</ele><time>2026-04-30T10:55:52.881Z</time></trkpt><trkpt lat="38.1957904" lon="21.7594466"><ele>95.33333333333334</ele><time>2026-04-30T10:55:53.881Z</time></trkpt><trkpt lat="38.1958246" lon="21.759645"><ele>95.66666666666667</ele><time>2026-04-30T10:55:54.882Z</time></trkpt><trkpt lat="38.1958649" lon="21.7598488"><ele>96.0</ele><time>2026-04-30T10:55:55.882Z</time></trkpt><trkpt lat="38.1959062" lon="21.7600529"><ele>96.0</ele><time>2026-04-30T10:55:56.882Z</time></trkpt><trkpt lat="38.1959533" lon="21.7602616"><ele>96.0</ele><time>2026-04-30T10:55:57.881Z</time></trkpt><trkpt lat="38.1960038" lon="21.7604764"><ele>96.0</ele><time>2026-04-30T10:55:58.881Z</time></trkpt><trkpt lat="38.1960596" lon="21.7606899"><ele>96.0</ele><time>2026-04-30T10:55:59.882Z</time></trkpt><trkpt lat="38.1961172" lon="21.7609087"><ele>96.0</ele><time>2026-04-30T10:56:00.882Z</time></trkpt><trkpt lat="38.196174" lon="21.7611296"><ele>96.0</ele><time>2026-04-30T10:56:01.882Z</time></trkpt><trkpt lat="38.1962328" lon="21.7613527"><ele>97.33333333333334</ele><time>2026-04-30T10:56:02.881Z</time></trkpt><trkpt lat="38.1962901" lon="21.7615716"><ele>98.66666666666667</ele><time>2026-04-30T10:56:03.882Z</time></trkpt><trkpt lat="38.1963508" lon="21.7617888"><ele>100.0</ele><time>2026-04-30T10:56:04.881Z</time></trkpt><trkpt lat="38.1964185" lon="21.7620025"><ele>103.0</ele><time>2026-04-30T10:56:05.882Z</time></trkpt><trkpt lat="38.1964919" lon="21.7622075"><ele>106.0</ele><time>2026-04-30T10:56:06.881Z</time></trkpt><trkpt lat="38.1965701" lon="21.7624103"><ele>109.0</ele><time>2026-04-30T10:56:07.881Z</time></trkpt><trkpt lat="38.1966488" lon="21.7626089"><ele>110.33333333333334</ele><time>2026-04-30T10:56:08.881Z</time></trkpt><trkpt lat="38.1967274" lon="21.7628033"><ele>111.66666666666666</ele><time>2026-04-30T10:56:09.881Z</time></trkpt><trkpt lat="38.1968035" lon="21.762994"><ele>113.0</ele><time>2026-04-30T10:56:10.881Z</time></trkpt><trkpt lat="38.1968792" lon="21.7631774"><ele>113.0</ele><time>2026-04-30T10:56:11.881Z</time></trkpt><trkpt lat="38.1969557" lon="21.7633625"><ele>113.0</ele><time>2026-04-30T10:56:12.882Z</time></trkpt><trkpt lat="38.1970348" lon="21.7635385"><ele>113.0</ele><time>2026-04-30T10:56:13.882Z</time></trkpt><trkpt lat="38.1971167" lon="21.7637118"><ele>113.66666666666666</ele><time>2026-04-30T10:56:14.881Z</time></trkpt><trkpt lat="38.1972019" lon="21.7638861"><ele>114.33333333333334</ele><time>2026-04-30T10:56:15.882Z</time></trkpt><trkpt lat="38.1972907" lon="21.7640596"><ele>115.0</ele><time>2026-04-30T10:56:16.882Z</time></trkpt><trkpt lat="38.1973841" lon="21.7642323"><ele>116.0</ele><time>2026-04-30T10:56:17.881Z</time></trkpt><trkpt lat="38.1974791" lon="21.7644025"><ele>117.0</ele><time>2026-04-30T10:56:18.881Z</time></trkpt><trkpt lat="38.1975826" lon="21.7645778"><ele>118.0</ele><time>2026-04-30T10:56:19.882Z</time></trkpt><trkpt lat="38.1976857" lon="21.7647527"><ele>118.0</ele><time>2026-04-30T10:56:20.881Z</time></trkpt><trkpt lat="38.1977937" lon="21.7649243"><ele>118.0</ele><time>2026-04-30T10:56:21.881Z</time></trkpt><trkpt lat="38.1978996" lon="21.7650909"><ele>118.0</ele><time>2026-04-30T10:56:22.882Z</time></trkpt><trkpt lat="38.1980025" lon="21.7652437"><ele>118.25</ele><time>2026-04-30T10:56:23.881Z</time></trkpt><trkpt lat="38.1981073" lon="21.7653879"><ele>118.5</ele><time>2026-04-30T10:56:24.881Z</time></trkpt><trkpt lat="38.1982082" lon="21.7655199"><ele>118.75</ele><time>2026-04-30T10:56:25.882Z</time></trkpt><trkpt lat="38.1983051" lon="21.7656443"><ele>119.0</ele><time>2026-04-30T10:56:26.882Z</time></trkpt><trkpt lat="38.1983937" lon="21.7657607"><ele>118.80000000000001</ele><time>2026-04-30T10:56:27.882Z</time></trkpt><trkpt lat="38.1984743" lon="21.7658733"><ele>118.60000000000001</ele><time>2026-04-30T10:56:28.882Z</time></trkpt><trkpt lat="38.198548" lon="21.7659776"><ele>118.4</ele><time>2026-04-30T10:56:29.882Z</time></trkpt><trkpt lat="38.1986108" lon="21.7660685"><ele>118.2</ele><time>2026-04-30T10:56:30.881Z</time></trkpt><trkpt lat="38.1986587" lon="21.76614"><ele>118.0</ele><time>2026-04-30T10:56:31.881Z</time></trkpt><trkpt lat="38.1986947" lon="21.7662065"><ele>118.00000000000001</ele><time>2026-04-30T10:56:32.881Z</time></trkpt><trkpt lat="38.1987332" lon="21.7662877"><ele>118.0</ele><time>2026-04-30T10:56:34.881Z</time></trkpt><trkpt lat="38.1988372" lon="21.7663279"><ele>118.0</ele><time>2026-04-30T10:56:37.881Z</time></trkpt><trkpt lat="38.1989095" lon="21.7662928"><ele>118.0</ele><time>2026-04-30T10:56:38.882Z</time></trkpt><trkpt lat="38.1989793" lon="21.7662492"><ele>118.00000000000001</ele><time>2026-04-30T10:56:39.881Z</time></trkpt><trkpt lat="38.1990481" lon="21.7662039"><ele>118.0</ele><time>2026-04-30T10:56:40.881Z</time></trkpt><trkpt lat="38.199153" lon="21.7661296"><ele>117.4</ele><time>2026-04-30T10:56:41.881Z</time></trkpt><trkpt lat="38.1992574" lon="21.7660642"><ele>116.80000000000001</ele><time>2026-04-30T10:56:42.882Z</time></trkpt><trkpt lat="38.1993484" lon="21.7660127"><ele>116.2</ele><time>2026-04-30T10:56:43.882Z</time></trkpt><trkpt lat="38.1994314" lon="21.7659516"><ele>115.6</ele><time>2026-04-30T10:56:44.881Z</time></trkpt><trkpt lat="38.1995215" lon="21.7658878"><ele>115.0</ele><time>2026-04-30T10:56:45.882Z</time></trkpt><trkpt lat="38.199611" lon="21.765821"><ele>114.5</ele><time>2026-04-30T10:56:46.881Z</time></trkpt><trkpt lat="38.1996977" lon="21.7657567"><ele>114.0</ele><time>2026-04-30T10:56:47.881Z</time></trkpt><trkpt lat="38.1997926" lon="21.7656867"><ele>113.5</ele><time>2026-04-30T10:56:48.882Z</time></trkpt><trkpt lat="38.1998986" lon="21.7656089"><ele>113.0</ele><time>2026-04-30T10:56:49.881Z</time></trkpt><trkpt lat="38.2000088" lon="21.7655338"><ele>111.5</ele><time>2026-04-30T10:56:50.882Z</time></trkpt><trkpt lat="38.2001245" lon="21.7654552"><ele>110.0</ele><time>2026-04-30T10:56:51.882Z</time></trkpt><trkpt lat="38.2002415" lon="21.7653699"><ele>108.5</ele><time>2026-04-30T10:56:52.881Z</time></trkpt><trkpt lat="38.2003615" lon="21.7652879"><ele>107.0</ele><time>2026-04-30T10:56:53.882Z</time></trkpt><trkpt lat="38.2004861" lon="21.7652054"><ele>106.5</ele><time>2026-04-30T10:56:54.882Z</time></trkpt><trkpt lat="38.2006116" lon="21.7651278"><ele>106.0</ele><time>2026-04-30T10:56:55.881Z</time></trkpt><trkpt lat="38.2007459" lon="21.7650563"><ele>105.5</ele><time>2026-04-30T10:56:56.882Z</time></trkpt><trkpt lat="38.2008829" lon="21.7649926"><ele>105.0</ele><time>2026-04-30T10:56:57.881Z</time></trkpt><trkpt lat="38.2010265" lon="21.7649359"><ele>104.0</ele><time>2026-04-30T10:56:58.881Z</time></trkpt><trkpt lat="38.2011627" lon="21.7648923"><ele>103.0</ele><time>2026-04-30T10:56:59.882Z</time></trkpt><trkpt lat="38.2013177" lon="21.764833"><ele>102.0</ele><time>2026-04-30T10:57:00.881Z</time></trkpt><trkpt lat="38.2014613" lon="21.7647781"><ele>100.0</ele><time>2026-04-30T10:57:01.881Z</time></trkpt><trkpt lat="38.2016051" lon="21.7647202"><ele>98.0</ele><time>2026-04-30T10:57:02.882Z</time></trkpt><trkpt lat="38.2017506" lon="21.7646575"><ele>96.0</ele><time>2026-04-30T10:57:03.882Z</time></trkpt><trkpt lat="38.2018966" lon="21.7645908"><ele>96.0</ele><time>2026-04-30T10:57:04.882Z</time></trkpt><trkpt lat="38.2020443" lon="21.7645238"><ele>96.0</ele><time>2026-04-30T10:57:05.881Z</time></trkpt><trkpt lat="38.2021933" lon="21.7644597"><ele>96.0</ele><time>2026-04-30T10:57:06.882Z</time></trkpt><trkpt lat="38.2023422" lon="21.7643943"><ele>94.0</ele><time>2026-04-30T10:57:07.882Z</time></trkpt><trkpt lat="38.2024929" lon="21.7643247"><ele>92.0</ele><time>2026-04-30T10:57:08.882Z</time></trkpt><trkpt lat="38.2026424" lon="21.7642529"><ele>90.0</ele><time>2026-04-30T10:57:09.882Z</time></trkpt><trkpt lat="38.2027904" lon="21.7641872"><ele>90.0</ele><time>2026-04-30T10:57:10.881Z</time></trkpt><trkpt lat="38.2029388" lon="21.764123"><ele>90.0</ele><time>2026-04-30T10:57:11.881Z</time></trkpt><trkpt lat="38.2030864" lon="21.7640598"><ele>90.0</ele><time>2026-04-30T10:57:12.882Z</time></trkpt><trkpt lat="38.2032325" lon="21.7639966"><ele>89.66666666666667</ele><time>2026-04-30T10:57:13.882Z</time></trkpt><trkpt lat="38.2033792" lon="21.7639351"><ele>89.33333333333334</ele><time>2026-04-30T10:57:14.881Z</time></trkpt><trkpt lat="38.2035242" lon="21.7638749"><ele>89.0</ele><time>2026-04-30T10:57:15.881Z</time></trkpt><trkpt lat="38.2036689" lon="21.7638111"><ele>89.0</ele><time>2026-04-30T10:57:16.882Z</time></trkpt><trkpt lat="38.2038128" lon="21.7637515"><ele>89.0</ele><time>2026-04-30T10:57:17.882Z</time></trkpt><trkpt lat="38.2039581" lon="21.7636834"><ele>89.0</ele><time>2026-04-30T10:57:18.881Z</time></trkpt><trkpt lat="38.2040991" lon="21.763629"><ele>89.0</ele><time>2026-04-30T10:57:19.881Z</time></trkpt><trkpt lat="38.2042325" lon="21.7635808"><ele>89.0</ele><time>2026-04-30T10:57:20.881Z</time></trkpt><trkpt lat="38.2043627" lon="21.7635385"><ele>89.0</ele><time>2026-04-30T10:57:21.881Z</time></trkpt><trkpt lat="38.2044973" lon="21.7634963"><ele>89.0</ele><time>2026-04-30T10:57:22.882Z</time></trkpt><trkpt lat="38.2046127" lon="21.7634585"><ele>88.80000000000001</ele><time>2026-04-30T10:57:23.882Z</time></trkpt><trkpt lat="38.2047132" lon="21.7634284"><ele>88.60000000000001</ele><time>2026-04-30T10:57:24.881Z</time></trkpt><trkpt lat="38.20479" lon="21.7634052"><ele>88.4</ele><time>2026-04-30T10:57:25.882Z</time></trkpt><trkpt lat="38.2048853" lon="21.7633796"><ele>88.2</ele><time>2026-04-30T10:57:27.881Z</time></trkpt><trkpt lat="38.2049657" lon="21.7633563"><ele>88.0</ele><time>2026-04-30T10:57:29.882Z</time></trkpt><trkpt lat="38.2050622" lon="21.7633391"><ele>87.4</ele><time>2026-04-30T10:57:31.881Z</time></trkpt><trkpt lat="38.2051946" lon="21.763324"><ele>86.80000000000001</ele><time>2026-04-30T10:57:33.882Z</time></trkpt><trkpt lat="38.2052793" lon="21.7633186"><ele>86.2</ele><time>2026-04-30T10:57:34.882Z</time></trkpt><trkpt lat="38.2053591" lon="21.7633156"><ele>85.6</ele><time>2026-04-30T10:57:35.881Z</time></trkpt><trkpt lat="38.2054438" lon="21.7633182"><ele>85.0</ele><time>2026-04-30T10:57:36.882Z</time></trkpt><trkpt lat="38.2055371" lon="21.7633222"><ele>85.0</ele><time>2026-04-30T10:57:37.882Z</time></trkpt><trkpt lat="38.2056385" lon="21.7633328"><ele>85.0</ele><time>2026-04-30T10:57:38.881Z</time></trkpt><trkpt lat="38.2057429" lon="21.7633524"><ele>85.0</ele><time>2026-04-30T10:57:39.882Z</time></trkpt><trkpt lat="38.2058549" lon="21.7633767"><ele>85.0</ele><time>2026-04-30T10:57:40.882Z</time></trkpt><trkpt lat="38.2059738" lon="21.7633999"><ele>85.0</ele><time>2026-04-30T10:57:41.882Z</time></trkpt><trkpt lat="38.2060863" lon="21.7634224"><ele>85.2</ele><time>2026-04-30T10:57:42.881Z</time></trkpt><trkpt lat="38.2061908" lon="21.7634414"><ele>85.4</ele><time>2026-04-30T10:57:43.881Z</time></trkpt><trkpt lat="38.2062946" lon="21.7634569"><ele>85.6</ele><time>2026-04-30T10:57:44.881Z</time></trkpt><trkpt lat="38.2063967" lon="21.7634663"><ele>85.8</ele><time>2026-04-30T10:57:45.881Z</time></trkpt><trkpt lat="38.2065084" lon="21.7634666"><ele>86.0</ele><time>2026-04-30T10:57:46.882Z</time></trkpt><trkpt lat="38.2066117" lon="21.7634565"><ele>86.0</ele><time>2026-04-30T10:57:47.881Z</time></trkpt><trkpt lat="38.2067184" lon="21.7634405"><ele>86.0</ele><time>2026-04-30T10:57:48.881Z</time></trkpt><trkpt lat="38.2068275" lon="21.7634208"><ele>86.0</ele><time>2026-04-30T10:57:49.882Z</time></trkpt><trkpt lat="38.2069438" lon="21.7633943"><ele>86.0</ele><time>2026-04-30T10:57:50.881Z</time></trkpt><trkpt lat="38.2070555" lon="21.7633671"><ele>86.0</ele><time>2026-04-30T10:57:51.882Z</time></trkpt><trkpt lat="38.2071626" lon="21.7633403"><ele>86.0</ele><time>2026-04-30T10:57:52.882Z</time></trkpt><trkpt lat="38.2072654" lon="21.7633116"><ele>86.0</ele><time>2026-04-30T10:57:53.881Z</time></trkpt><trkpt lat="38.207366" lon="21.7632802"><ele>86.0</ele><time>2026-04-30T10:57:54.881Z</time></trkpt><trkpt lat="38.2074647" lon="21.7632475"><ele>86.0</ele><time>2026-04-30T10:57:55.881Z</time></trkpt><trkpt lat="38.2075585" lon="21.7632177"><ele>86.0</ele><time>2026-04-30T10:57:56.882Z</time></trkpt><trkpt lat="38.2076455" lon="21.7631872"><ele>85.83333333333334</ele><time>2026-04-30T10:57:57.882Z</time></trkpt><trkpt lat="38.2077247" lon="21.7631562"><ele>85.66666666666667</ele><time>2026-04-30T10:57:58.881Z</time></trkpt><trkpt lat="38.2077893" lon="21.7631312"><ele>85.5</ele><time>2026-04-30T10:57:59.882Z</time></trkpt><trkpt lat="38.2079013" lon="21.76309"><ele>85.33333333333333</ele><time>2026-04-30T10:58:01.882Z</time></trkpt><trkpt lat="38.2079883" lon="21.7630579"><ele>85.16666666666666</ele><time>2026-04-30T10:58:03.882Z</time></trkpt><trkpt lat="38.2080608" lon="21.7630344"><ele>85.0</ele><time>2026-04-30T10:58:05.881Z</time></trkpt><trkpt lat="38.2081312" lon="21.7630126"><ele>84.66666666666666</ele><time>2026-04-30T10:58:07.881Z</time></trkpt><trkpt lat="38.2082088" lon="21.7629998"><ele>84.33333333333333</ele><time>2026-04-30T10:58:11.882Z</time></trkpt><trkpt lat="38.2083049" lon="21.7630013"><ele>84.0</ele><time>2026-04-30T10:58:20.882Z</time></trkpt><trkpt lat="38.2083959" lon="21.7630297"><ele>83.66666666666667</ele><time>2026-04-30T10:58:22.881Z</time></trkpt><trkpt lat="38.2084741" lon="21.7630455"><ele>83.33333333333334</ele><time>2026-04-30T10:58:24.882Z</time></trkpt><trkpt lat="38.208551" lon="21.763012"><ele>83.0</ele><time>2026-04-30T10:58:26.881Z</time></trkpt><trkpt lat="38.2086047" lon="21.7629179"><ele>83.0</ele><time>2026-04-30T10:58:28.882Z</time></trkpt><trkpt lat="38.2086036" lon="21.7627739"><ele>83.0</ele><time>2026-04-30T10:58:30.881Z</time></trkpt><trkpt lat="38.2085737" lon="21.7627014"><ele>83.0</ele><time>2026-04-30T10:58:31.881Z</time></trkpt><trkpt lat="38.2085334" lon="21.7626337"><ele>83.0</ele><time>2026-04-30T10:58:32.882Z</time></trkpt><trkpt lat="38.2085001" lon="21.7625601"><ele>83.0</ele><time>2026-04-30T10:58:33.882Z</time></trkpt><trkpt lat="38.208483" lon="21.7624782"><ele>83.0</ele><time>2026-04-30T10:58:34.882Z</time></trkpt><trkpt lat="38.2084804" lon="21.7623903"><ele>83.0</ele><time>2026-04-30T10:58:35.881Z</time></trkpt><trkpt lat="38.2084895" lon="21.7623004"><ele>83.0</ele><time>2026-04-30T10:58:36.881Z</time></trkpt><trkpt lat="38.2085033" lon="21.7622036"><ele>83.0</ele><time>2026-04-30T10:58:37.881Z</time></trkpt><trkpt lat="38.2085209" lon="21.7620997"><ele>83.0</ele><time>2026-04-30T10:58:38.881Z</time></trkpt><trkpt lat="38.2085395" lon="21.7619909"><ele>83.0</ele><time>2026-04-30T10:58:39.881Z</time></trkpt><trkpt lat="38.208561" lon="21.761873"><ele>83.0</ele><time>2026-04-30T10:58:40.881Z</time></trkpt><trkpt lat="38.2085888" lon="21.7617493"><ele>83.0</ele><time>2026-04-30T10:58:41.881Z</time></trkpt><trkpt lat="38.2086209" lon="21.7616133"><ele>82.0</ele><time>2026-04-30T10:58:42.882Z</time></trkpt><trkpt lat="38.2086586" lon="21.7614733"><ele>81.0</ele><time>2026-04-30T10:58:43.881Z</time></trkpt><trkpt lat="38.2087054" lon="21.761338"><ele>80.0</ele><time>2026-04-30T10:58:44.881Z</time></trkpt><trkpt lat="38.2087678" lon="21.7612057"><ele>79.0</ele><time>2026-04-30T10:58:45.882Z</time></trkpt><trkpt lat="38.2088441" lon="21.7610808"><ele>78.5</ele><time>2026-04-30T10:58:46.882Z</time></trkpt><trkpt lat="38.2089316" lon="21.7609623"><ele>78.0</ele><time>2026-04-30T10:58:47.882Z</time></trkpt><trkpt lat="38.2090295" lon="21.7608428"><ele>77.5</ele><time>2026-04-30T10:58:48.881Z</time></trkpt><trkpt lat="38.20914" lon="21.7607143"><ele>77.0</ele><time>2026-04-30T10:58:49.881Z</time></trkpt><trkpt lat="38.2092781" lon="21.7605658"><ele>77.0</ele><time>2026-04-30T10:58:50.881Z</time></trkpt><trkpt lat="38.2094239" lon="21.7604192"><ele>77.0</ele><time>2026-04-30T10:58:51.881Z</time></trkpt><trkpt lat="38.2095978" lon="21.7602676"><ele>77.0</ele><time>2026-04-30T10:58:52.882Z</time></trkpt><trkpt lat="38.209746" lon="21.7601276"><ele>75.66666666666667</ele><time>2026-04-30T10:58:53.882Z</time></trkpt><trkpt lat="38.2098846" lon="21.7599917"><ele>74.33333333333333</ele><time>2026-04-30T10:58:54.881Z</time></trkpt><trkpt lat="38.2100322" lon="21.7598536"><ele>73.0</ele><time>2026-04-30T10:58:55.881Z</time></trkpt><trkpt lat="38.2101688" lon="21.7597175"><ele>73.0</ele><time>2026-04-30T10:58:56.882Z</time></trkpt><trkpt lat="38.2102985" lon="21.7595847"><ele>73.0</ele><time>2026-04-30T10:58:57.881Z</time></trkpt><trkpt lat="38.210427" lon="21.7594557"><ele>73.0</ele><time>2026-04-30T10:58:58.881Z</time></trkpt><trkpt lat="38.2105519" lon="21.7593308"><ele>73.0</ele><time>2026-04-30T10:58:59.882Z</time></trkpt><trkpt lat="38.2106711" lon="21.7592113"><ele>73.0</ele><time>2026-04-30T10:59:00.882Z</time></trkpt><trkpt lat="38.2107892" lon="21.7591004"><ele>73.0</ele><time>2026-04-30T10:59:01.882Z</time></trkpt><trkpt lat="38.2109137" lon="21.7589937"><ele>73.0</ele><time>2026-04-30T10:59:02.882Z</time></trkpt><trkpt lat="38.2110311" lon="21.7588828"><ele>73.0</ele><time>2026-04-30T10:59:03.881Z</time></trkpt><trkpt lat="38.2111629" lon="21.7587502"><ele>73.0</ele><time>2026-04-30T10:59:04.882Z</time></trkpt><trkpt lat="38.2112978" lon="21.7586114"><ele>73.0</ele><time>2026-04-30T10:59:05.881Z</time></trkpt><trkpt lat="38.2114465" lon="21.758474"><ele>72.0</ele><time>2026-04-30T10:59:06.882Z</time></trkpt><trkpt lat="38.2115936" lon="21.7583338"><ele>71.0</ele><time>2026-04-30T10:59:07.881Z</time></trkpt><trkpt lat="38.2117414" lon="21.7582001"><ele>70.0</ele><time>2026-04-30T10:59:08.882Z</time></trkpt><trkpt lat="38.211887" lon="21.7580706"><ele>70.0</ele><time>2026-04-30T10:59:09.882Z</time></trkpt><trkpt lat="38.2120289" lon="21.757939"><ele>70.0</ele><time>2026-04-30T10:59:10.881Z</time></trkpt><trkpt lat="38.2121663" lon="21.7578084"><ele>70.0</ele><time>2026-04-30T10:59:11.882Z</time></trkpt><trkpt lat="38.2123002" lon="21.7576756"><ele>70.0</ele><time>2026-04-30T10:59:12.882Z</time></trkpt><trkpt lat="38.2124352" lon="21.7575424"><ele>70.0</ele><time>2026-04-30T10:59:13.882Z</time></trkpt><trkpt lat="38.2125662" lon="21.7574135"><ele>70.0</ele><time>2026-04-30T10:59:14.881Z</time></trkpt><trkpt lat="38.212696" lon="21.7572798"><ele>70.0</ele><time>2026-04-30T10:59:15.881Z</time></trkpt><trkpt lat="38.2128215" lon="21.7571518"><ele>70.0</ele><time>2026-04-30T10:59:16.882Z</time></trkpt><trkpt lat="38.2129407" lon="21.7570309"><ele>70.0</ele><time>2026-04-30T10:59:17.882Z</time></trkpt><trkpt lat="38.2130535" lon="21.7569157"><ele>68.5</ele><time>2026-04-30T10:59:18.882Z</time></trkpt><trkpt lat="38.2131587" lon="21.7568028"><ele>67.0</ele><time>2026-04-30T10:59:19.881Z</time></trkpt><trkpt lat="38.2132645" lon="21.756685"><ele>65.5</ele><time>2026-04-30T10:59:20.882Z</time></trkpt><trkpt lat="38.21339" lon="21.7565686"><ele>64.0</ele><time>2026-04-30T10:59:21.882Z</time></trkpt><trkpt lat="38.2135159" lon="21.7564531"><ele>64.0</ele><time>2026-04-30T10:59:22.881Z</time></trkpt><trkpt lat="38.2136451" lon="21.7563422"><ele>64.0</ele><time>2026-04-30T10:59:23.882Z</time></trkpt><trkpt lat="38.2137718" lon="21.7562279"><ele>64.0</ele><time>2026-04-30T10:59:24.881Z</time></trkpt><trkpt lat="38.2138937" lon="21.7561115"><ele>63.25</ele><time>2026-04-30T10:59:25.882Z</time></trkpt><trkpt lat="38.2140113" lon="21.755996"><ele>62.5</ele><time>2026-04-30T10:59:26.882Z</time></trkpt><trkpt lat="38.2141265" lon="21.7558847"><ele>61.75</ele><time>2026-04-30T10:59:27.881Z</time></trkpt><trkpt lat="38.2142363" lon="21.7557754"><ele>61.0</ele><time>2026-04-30T10:59:28.881Z</time></trkpt><trkpt lat="38.2143451" lon="21.7556641"><ele>61.0</ele><time>2026-04-30T10:59:29.881Z</time></trkpt><trkpt lat="38.2144516" lon="21.755556"><ele>61.0</ele><time>2026-04-30T10:59:30.881Z</time></trkpt><trkpt lat="38.2145509" lon="21.7554513"><ele>61.0</ele><time>2026-04-30T10:59:31.881Z</time></trkpt><trkpt lat="38.2146623" lon="21.7553477"><ele>61.0</ele><time>2026-04-30T10:59:32.881Z</time></trkpt><trkpt lat="38.2147619" lon="21.7552516"><ele>60.75</ele><time>2026-04-30T10:59:33.881Z</time></trkpt><trkpt lat="38.2148571" lon="21.755154"><ele>60.5</ele><time>2026-04-30T10:59:34.882Z</time></trkpt><trkpt lat="38.214954" lon="21.7550584"><ele>60.25</ele><time>2026-04-30T10:59:35.881Z</time></trkpt><trkpt lat="38.2150527" lon="21.7549678"><ele>60.0</ele><time>2026-04-30T10:59:36.882Z</time></trkpt><trkpt lat="38.2151538" lon="21.7548827"><ele>60.0</ele><time>2026-04-30T10:59:37.882Z</time></trkpt><trkpt lat="38.2152561" lon="21.7547905"><ele>60.0</ele><time>2026-04-30T10:59:38.882Z</time></trkpt><trkpt lat="38.2153558" lon="21.7546951"><ele>60.0</ele><time>2026-04-30T10:59:39.882Z</time></trkpt><trkpt lat="38.2154556" lon="21.7546003"><ele>60.0</ele><time>2026-04-30T10:59:40.882Z</time></trkpt><trkpt lat="38.2155536" lon="21.7545012"><ele>60.0</ele><time>2026-04-30T10:59:41.881Z</time></trkpt><trkpt lat="38.2156523" lon="21.7544039"><ele>60.0</ele><time>2026-04-30T10:59:42.881Z</time></trkpt><trkpt lat="38.2157502" lon="21.7543078"><ele>60.0</ele><time>2026-04-30T10:59:43.881Z</time></trkpt><trkpt lat="38.2158481" lon="21.7542114"><ele>60.0</ele><time>2026-04-30T10:59:44.882Z</time></trkpt><trkpt lat="38.2159452" lon="21.7541221"><ele>58.75</ele><time>2026-04-30T10:59:45.882Z</time></trkpt><trkpt lat="38.2160373" lon="21.7540266"><ele>57.5</ele><time>2026-04-30T10:59:46.882Z</time></trkpt><trkpt lat="38.2161325" lon="21.7539314"><ele>56.25</ele><time>2026-04-30T10:59:47.881Z</time></trkpt><trkpt lat="38.2162307" lon="21.7538409"><ele>55.0</ele><time>2026-04-30T10:59:48.881Z</time></trkpt><trkpt lat="38.2163292" lon="21.7537447"><ele>55.0</ele><time>2026-04-30T10:59:49.881Z</time></trkpt><trkpt lat="38.2164291" lon="21.7536457"><ele>55.0</ele><time>2026-04-30T10:59:50.881Z</time></trkpt><trkpt lat="38.216525" lon="21.7535528"><ele>55.0</ele><time>2026-04-30T10:59:51.882Z</time></trkpt><trkpt lat="38.2166156" lon="21.7534619"><ele>55.0</ele><time>2026-04-30T10:59:52.882Z</time></trkpt><trkpt lat="38.2167012" lon="21.7533784"><ele>54.666666666666664</ele><time>2026-04-30T10:59:53.882Z</time></trkpt><trkpt lat="38.2167743" lon="21.7533055"><ele>54.33333333333333</ele><time>2026-04-30T10:59:54.882Z</time></trkpt><trkpt lat="38.2168329" lon="21.753237"><ele>54.0</ele><time>2026-04-30T10:59:55.881Z</time></trkpt><trkpt lat="38.2168862" lon="21.753171"><ele>53.66666666666667</ele><time>2026-04-30T10:59:56.882Z</time></trkpt><trkpt lat="38.2169433" lon="21.7531132"><ele>53.333333333333336</ele><time>2026-04-30T10:59:57.881Z</time></trkpt><trkpt lat="38.2170005" lon="21.753058"><ele>53.0</ele><time>2026-04-30T10:59:58.882Z</time></trkpt><trkpt lat="38.2170572" lon="21.7530058"><ele>53.00000000000001</ele><time>2026-04-30T10:59:59.882Z</time></trkpt><trkpt lat="38.2171116" lon="21.7529496"><ele>53.0</ele><time>2026-04-30T11:00:00.881Z</time></trkpt><trkpt lat="38.2171588" lon="21.7528939"><ele>53.0</ele><time>2026-04-30T11:00:01.881Z</time></trkpt><trkpt lat="38.2172203" lon="21.7528302"><ele>53.0</ele><time>2026-04-30T11:00:03.882Z</time></trkpt><trkpt lat="38.2172767" lon="21.7527852"><ele>53.00000000000001</ele><time>2026-04-30T11:00:18.881Z</time></trkpt><trkpt lat="38.2173363" lon="21.7527226"><ele>53.0</ele><time>2026-04-30T11:00:20.881Z</time></trkpt><trkpt lat="38.2174542" lon="21.7526247"><ele>53.0</ele><time>2026-04-30T11:00:21.882Z</time></trkpt><trkpt lat="38.2175542" lon="21.7525294"><ele>53.0</ele><time>2026-04-30T11:00:22.882Z</time></trkpt><trkpt lat="38.2176644" lon="21.7524242"><ele>53.0</ele><time>2026-04-30T11:00:23.882Z</time></trkpt><trkpt lat="38.2177753" lon="21.7523309"><ele>53.0</ele><time>2026-04-30T11:00:24.881Z</time></trkpt><trkpt lat="38.2178883" lon="21.7522161"><ele>53.0</ele><time>2026-04-30T11:00:25.882Z</time></trkpt><trkpt lat="38.2180011" lon="21.7521028"><ele>53.0</ele><time>2026-04-30T11:00:26.882Z</time></trkpt><trkpt lat="38.2181189" lon="21.7519862"><ele>53.0</ele><time>2026-04-30T11:00:27.882Z</time></trkpt><trkpt lat="38.2182356" lon="21.7518723"><ele>53.0</ele><time>2026-04-30T11:00:28.882Z</time></trkpt><trkpt lat="38.2183526" lon="21.7517563"><ele>51.5</ele><time>2026-04-30T11:00:29.882Z</time></trkpt><trkpt lat="38.2184667" lon="21.7516521"><ele>50.0</ele><time>2026-04-30T11:00:30.881Z</time></trkpt><trkpt lat="38.2185752" lon="21.7515482"><ele>48.5</ele><time>2026-04-30T11:00:31.881Z</time></trkpt><trkpt lat="38.2186756" lon="21.7514501"><ele>47.0</ele><time>2026-04-30T11:00:32.882Z</time></trkpt><trkpt lat="38.2187753" lon="21.7513537"><ele>47.0</ele><time>2026-04-30T11:00:33.882Z</time></trkpt><trkpt lat="38.2188557" lon="21.7512761"><ele>47.0</ele><time>2026-04-30T11:00:34.882Z</time></trkpt><trkpt lat="38.2189117" lon="21.7512109"><ele>47.0</ele><time>2026-04-30T11:00:35.881Z</time></trkpt><trkpt lat="38.2189909" lon="21.7511294"><ele>47.0</ele><time>2026-04-30T11:00:37.882Z</time></trkpt><trkpt lat="38.219058" lon="21.7510529"><ele>47.0</ele><time>2026-04-30T11:00:41.881Z</time></trkpt><trkpt lat="38.2191308" lon="21.7509833"><ele>46.6</ele><time>2026-04-30T11:00:43.881Z</time></trkpt><trkpt lat="38.219222" lon="21.7508982"><ele>46.2</ele><time>2026-04-30T11:00:45.882Z</time></trkpt><trkpt lat="38.219297" lon="21.7508262"><ele>45.8</ele><time>2026-04-30T11:00:47.882Z</time></trkpt><trkpt lat="38.2193566" lon="21.7507643"><ele>45.4</ele><time>2026-04-30T11:00:49.882Z</time></trkpt><trkpt lat="38.2194502" lon="21.7506824"><ele>45.0</ele><time>2026-04-30T11:00:51.881Z</time></trkpt><trkpt lat="38.2195128" lon="21.7506232"><ele>45.0</ele><time>2026-04-30T11:00:52.881Z</time></trkpt><trkpt lat="38.2195931" lon="21.7505905"><ele>45.0</ele><time>2026-04-30T11:00:53.881Z</time></trkpt><trkpt lat="38.219675" lon="21.7505471"><ele>45.0</ele><time>2026-04-30T11:00:54.882Z</time></trkpt><trkpt lat="38.2197617" lon="21.7505248"><ele>45.0</ele><time>2026-04-30T11:00:55.881Z</time></trkpt><trkpt lat="38.2198402" lon="21.7505124"><ele>45.0</ele><time>2026-04-30T11:00:56.882Z</time></trkpt><trkpt lat="38.2199204" lon="21.7505042"><ele>45.0</ele><time>2026-04-30T11:00:57.881Z</time></trkpt><trkpt lat="38.2200034" lon="21.750483"><ele>44.666666666666664</ele><time>2026-04-30T11:00:58.881Z</time></trkpt><trkpt lat="38.2200893" lon="21.7504637"><ele>44.333333333333336</ele><time>2026-04-30T11:00:59.881Z</time></trkpt><trkpt lat="38.2201807" lon="21.7504511"><ele>44.0</ele><time>2026-04-30T11:01:00.882Z</time></trkpt><trkpt lat="38.2202741" lon="21.7504362"><ele>43.66666666666667</ele><time>2026-04-30T11:01:01.881Z</time></trkpt><trkpt lat="38.2203658" lon="21.7504189"><ele>43.333333333333336</ele><time>2026-04-30T11:01:02.882Z</time></trkpt><trkpt lat="38.2204481" lon="21.7504038"><ele>43.0</ele><time>2026-04-30T11:01:03.881Z</time></trkpt><trkpt lat="38.2205226" lon="21.7503881"><ele>43.0</ele><time>2026-04-30T11:01:04.881Z</time></trkpt><trkpt lat="38.2206196" lon="21.7503686"><ele>43.0</ele><time>2026-04-30T11:01:06.882Z</time></trkpt><trkpt lat="38.2206919" lon="21.7503494"><ele>43.0</ele><time>2026-04-30T11:01:08.881Z</time></trkpt><trkpt lat="38.220756" lon="21.7503444"><ele>43.0</ele><time>2026-04-30T11:01:09.882Z</time></trkpt><trkpt lat="38.2208478" lon="21.7503405"><ele>43.0</ele><time>2026-04-30T11:01:10.882Z</time></trkpt><trkpt lat="38.2209487" lon="21.7503318"><ele>43.0</ele><time>2026-04-30T11:01:11.882Z</time></trkpt><trkpt lat="38.2210654" lon="21.7503184"><ele>42.5</ele><time>2026-04-30T11:01:12.881Z</time></trkpt><trkpt lat="38.2211915" lon="21.7503035"><ele>42.0</ele><time>2026-04-30T11:01:13.881Z</time></trkpt><trkpt lat="38.2213194" lon="21.7502961"><ele>41.5</ele><time>2026-04-30T11:01:14.882Z</time></trkpt><trkpt lat="38.2214496" lon="21.7502814"><ele>41.0</ele><time>2026-04-30T11:01:15.881Z</time></trkpt><trkpt lat="38.221584" lon="21.7502665"><ele>41.0</ele><time>2026-04-30T11:01:16.881Z</time></trkpt><trkpt lat="38.2217189" lon="21.7502492"><ele>41.0</ele><time>2026-04-30T11:01:17.882Z</time></trkpt><trkpt lat="38.221851" lon="21.7502268"><ele>41.0</ele><time>2026-04-30T11:01:18.882Z</time></trkpt><trkpt lat="38.2219788" lon="21.7502015"><ele>41.0</ele><time>2026-04-30T11:01:19.882Z</time></trkpt><trkpt lat="38.2221022" lon="21.7501825"><ele>41.0</ele><time>2026-04-30T11:01:20.881Z</time></trkpt><trkpt lat="38.2222185" lon="21.7501598"><ele>41.0</ele><time>2026-04-30T11:01:21.882Z</time></trkpt><trkpt lat="38.2223268" lon="21.7501366"><ele>41.0</ele><time>2026-04-30T11:01:22.881Z</time></trkpt><trkpt lat="38.2224222" lon="21.7501131"><ele>41.0</ele><time>2026-04-30T11:01:23.882Z</time></trkpt><trkpt lat="38.2225081" lon="21.7500881"><ele>41.0</ele><time>2026-04-30T11:01:24.881Z</time></trkpt><trkpt lat="38.2226274" lon="21.7500451"><ele>41.166666666666664</ele><time>2026-04-30T11:01:26.881Z</time></trkpt><trkpt lat="38.2226763" lon="21.7501127"><ele>41.33333333333333</ele><time>2026-04-30T11:01:32.882Z</time></trkpt><trkpt lat="38.2227581" lon="21.7500464"><ele>41.5</ele><time>2026-04-30T11:01:34.882Z</time></trkpt><trkpt lat="38.2228424" lon="21.7499738"><ele>41.666666666666664</ele><time>2026-04-30T11:01:36.881Z</time></trkpt><trkpt lat="38.2228983" lon="21.7499336"><ele>41.833333333333336</ele><time>2026-04-30T11:01:37.881Z</time></trkpt><trkpt lat="38.222955" lon="21.7498837"><ele>42.0</ele><time>2026-04-30T11:01:38.882Z</time></trkpt><trkpt lat="38.2230263" lon="21.7498271"><ele>42.0</ele><time>2026-04-30T11:01:39.882Z</time></trkpt><trkpt lat="38.2230997" lon="21.7497689"><ele>42.0</ele><time>2026-04-30T11:01:40.882Z</time></trkpt><trkpt lat="38.2231732" lon="21.7497096"><ele>42.0</ele><time>2026-04-30T11:01:41.882Z</time></trkpt><trkpt lat="38.2232495" lon="21.7496502"><ele>42.0</ele><time>2026-04-30T11:01:42.882Z</time></trkpt><trkpt lat="38.2233332" lon="21.7495951"><ele>42.0</ele><time>2026-04-30T11:01:43.882Z</time></trkpt><trkpt lat="38.2234162" lon="21.7495449"><ele>42.0</ele><time>2026-04-30T11:01:44.882Z</time></trkpt><trkpt lat="38.2235028" lon="21.7495127"><ele>41.8</ele><time>2026-04-30T11:01:45.881Z</time></trkpt><trkpt lat="38.2235885" lon="21.7494863"><ele>41.6</ele><time>2026-04-30T11:01:46.882Z</time></trkpt><trkpt lat="38.2236813" lon="21.7494792"><ele>41.4</ele><time>2026-04-30T11:01:47.882Z</time></trkpt><trkpt lat="38.2237826" lon="21.7494796"><ele>41.199999999999996</ele><time>2026-04-30T11:01:48.882Z</time></trkpt><trkpt lat="38.2238887" lon="21.749471"><ele>41.0</ele><time>2026-04-30T11:01:49.882Z</time></trkpt><trkpt lat="38.2239956" lon="21.7494664"><ele>41.0</ele><time>2026-04-30T11:01:50.882Z</time></trkpt><trkpt lat="38.2241071" lon="21.7494656"><ele>41.0</ele><time>2026-04-30T11:01:51.882Z</time></trkpt><trkpt lat="38.2242209" lon="21.7494632"><ele>41.0</ele><time>2026-04-30T11:01:52.881Z</time></trkpt><trkpt lat="38.2243384" lon="21.7494587"><ele>41.0</ele><time>2026-04-30T11:01:53.882Z</time></trkpt><trkpt lat="38.2244327" lon="21.7494522"><ele>41.0</ele><time>2026-04-30T11:01:54.881Z</time></trkpt><trkpt lat="38.2245056" lon="21.7494464"><ele>41.0</ele><time>2026-04-30T11:01:55.882Z</time></trkpt><trkpt lat="38.2245711" lon="21.749439"><ele>41.0</ele><time>2026-04-30T11:01:57.882Z</time></trkpt><trkpt lat="38.2246739" lon="21.7494341"><ele>41.0</ele><time>2026-04-30T11:02:34.881Z</time></trkpt><trkpt lat="38.2247424" lon="21.7494333"><ele>41.0</ele><time>2026-04-30T11:02:35.882Z</time></trkpt><trkpt lat="38.2248125" lon="21.7494315"><ele>41.0</ele><time>2026-04-30T11:02:36.881Z</time></trkpt><trkpt lat="38.2248892" lon="21.7494288"><ele>41.0</ele><time>2026-04-30T11:02:37.882Z</time></trkpt><trkpt lat="38.2249675" lon="21.7494278"><ele>40.166666666666664</ele><time>2026-04-30T11:02:38.881Z</time></trkpt><trkpt lat="38.2250513" lon="21.7494265"><ele>39.33333333333333</ele><time>2026-04-30T11:02:39.881Z</time></trkpt><trkpt lat="38.2251373" lon="21.7494237"><ele>38.5</ele><time>2026-04-30T11:02:40.881Z</time></trkpt><trkpt lat="38.2252188" lon="21.7494244"><ele>37.666666666666664</ele><time>2026-04-30T11:02:41.882Z</time></trkpt><trkpt lat="38.2252998" lon="21.7494244"><ele>36.833333333333336</ele><time>2026-04-30T11:02:42.882Z</time></trkpt><trkpt lat="38.2253822" lon="21.7494288"><ele>36.0</ele><time>2026-04-30T11:02:43.882Z</time></trkpt><trkpt lat="38.2254614" lon="21.749435"><ele>36.00000000000001</ele><time>2026-04-30T11:02:44.881Z</time></trkpt><trkpt lat="38.2255275" lon="21.7494418"><ele>36.0</ele><time>2026-04-30T11:02:45.881Z</time></trkpt><trkpt lat="38.225597" lon="21.7494509"><ele>36.0</ele><time>2026-04-30T11:02:47.882Z</time></trkpt><trkpt lat="38.2256684" lon="21.7494645"><ele>36.0</ele><time>2026-04-30T11:03:12.882Z</time></trkpt><trkpt lat="38.2257626" lon="21.749474"><ele>36.0</ele><time>2026-04-30T11:03:14.882Z</time></trkpt><trkpt lat="38.2258305" lon="21.7494813"><ele>36.00000000000001</ele><time>2026-04-30T11:03:15.882Z</time></trkpt><trkpt lat="38.2258993" lon="21.7494892"><ele>36.0</ele><time>2026-04-30T11:03:16.881Z</time></trkpt><trkpt lat="38.2260108" lon="21.7494951"><ele>36.0</ele><time>2026-04-30T11:03:18.882Z</time></trkpt><trkpt lat="38.2260894" lon="21.7494993"><ele>36.0</ele><time>2026-04-30T11:03:20.881Z</time></trkpt><trkpt lat="38.2261708" lon="21.7495041"><ele>36.0</ele><time>2026-04-30T11:03:23.855Z</time></trkpt><trkpt lat="38.2262614" lon="21.7494929"><ele>36.0</ele><time>2026-04-30T11:03:26.854Z</time></trkpt><trkpt lat="38.2263293" lon="21.7494783"><ele>36.0</ele><time>2026-04-30T11:03:28.856Z</time></trkpt><trkpt lat="38.2264235" lon="21.7494435"><ele>36.0</ele><time>2026-04-30T11:03:30.856Z</time></trkpt><trkpt lat="38.2264946" lon="21.7494146"><ele>36.0</ele><time>2026-04-30T11:03:31.856Z</time></trkpt><trkpt lat="38.2265601" lon="21.7493972"><ele>36.0</ele><time>2026-04-30T11:03:32.855Z</time></trkpt><trkpt lat="38.2266238" lon="21.7493845"><ele>36.0</ele><time>2026-04-30T11:03:33.856Z</time></trkpt><trkpt lat="38.2266925" lon="21.7493772"><ele>36.0</ele><time>2026-04-30T11:03:34.856Z</time></trkpt><trkpt lat="38.2267814" lon="21.7493596"><ele>36.0</ele><time>2026-04-30T11:03:35.855Z</time></trkpt><trkpt lat="38.2268835" lon="21.7493367"><ele>36.0</ele><time>2026-04-30T11:03:36.856Z</time></trkpt><trkpt lat="38.2269981" lon="21.7493136"><ele>36.0</ele><time>2026-04-30T11:03:37.855Z</time></trkpt><trkpt lat="38.2271114" lon="21.7492889"><ele>36.0</ele><time>2026-04-30T11:03:38.855Z</time></trkpt><trkpt lat="38.2272397" lon="21.7492619"><ele>36.0</ele><time>2026-04-30T11:03:39.856Z</time></trkpt><trkpt lat="38.2273808" lon="21.7492309"><ele>36.0</ele><time>2026-04-30T11:03:40.856Z</time></trkpt><trkpt lat="38.2275155" lon="21.7492092"><ele>35.0</ele><time>2026-04-30T11:03:41.855Z</time></trkpt><trkpt lat="38.22763" lon="21.7491871"><ele>34.0</ele><time>2026-04-30T11:03:42.856Z</time></trkpt><trkpt lat="38.2277244" lon="21.7491697"><ele>33.0</ele><time>2026-04-30T11:03:43.856Z</time></trkpt><trkpt lat="38.2278067" lon="21.7491525"><ele>32.0</ele><time>2026-04-30T11:03:44.855Z</time></trkpt><trkpt lat="38.227879" lon="21.7491366"><ele>31.0</ele><time>2026-04-30T11:03:45.856Z</time></trkpt><trkpt lat="38.2279443" lon="21.7491226"><ele>30.0</ele><time>2026-04-30T11:03:46.855Z</time></trkpt><trkpt lat="38.2280602" lon="21.7491007"><ele>30.0</ele><time>2026-04-30T11:03:48.855Z</time></trkpt><trkpt lat="38.2281759" lon="21.7490769"><ele>30.0</ele><time>2026-04-30T11:03:50.855Z</time></trkpt><trkpt lat="38.2282382" lon="21.7490648"><ele>30.0</ele><time>2026-04-30T11:03:51.856Z</time></trkpt><trkpt lat="38.2283038" lon="21.749052"><ele>30.0</ele><time>2026-04-30T11:03:52.856Z</time></trkpt><trkpt lat="38.2283668" lon="21.7490391"><ele>30.0</ele><time>2026-04-30T11:03:53.856Z</time></trkpt><trkpt lat="38.2284811" lon="21.7490179"><ele>30.0</ele><time>2026-04-30T11:03:55.856Z</time></trkpt><trkpt lat="38.2285725" lon="21.7490001"><ele>30.0</ele><time>2026-04-30T11:03:57.855Z</time></trkpt><trkpt lat="38.2286396" lon="21.7489929"><ele>30.0</ele><time>2026-04-30T11:03:59.855Z</time></trkpt><trkpt lat="38.2287349" lon="21.7489743"><ele>30.0</ele><time>2026-04-30T11:04:16.856Z</time></trkpt><trkpt lat="38.2288773" lon="21.7489459"><ele>30.0</ele><time>2026-04-30T11:04:18.856Z</time></trkpt><trkpt lat="38.2289779" lon="21.7489219"><ele>30.0</ele><time>2026-04-30T11:04:19.856Z</time></trkpt><trkpt lat="38.2290884" lon="21.7488919"><ele>30.5</ele><time>2026-04-30T11:04:20.856Z</time></trkpt><trkpt lat="38.2292095" lon="21.7488549"><ele>31.0</ele><time>2026-04-30T11:04:21.856Z</time></trkpt><trkpt lat="38.2293318" lon="21.7488161"><ele>31.5</ele><time>2026-04-30T11:04:22.855Z</time></trkpt><trkpt lat="38.2294565" lon="21.748774"><ele>32.0</ele><time>2026-04-30T11:04:23.855Z</time></trkpt><trkpt lat="38.2295953" lon="21.7487257"><ele>32.0</ele><time>2026-04-30T11:04:24.856Z</time></trkpt><trkpt lat="38.2297344" lon="21.7486755"><ele>32.0</ele><time>2026-04-30T11:04:25.855Z</time></trkpt><trkpt lat="38.2298714" lon="21.748624"><ele>32.0</ele><time>2026-04-30T11:04:26.855Z</time></trkpt><trkpt lat="38.2299994" lon="21.7485759"><ele>32.0</ele><time>2026-04-30T11:04:27.856Z</time></trkpt><trkpt lat="38.2301162" lon="21.7485313"><ele>31.999999999999996</ele><time>2026-04-30T11:04:28.855Z</time></trkpt><trkpt lat="38.2302208" lon="21.7484947"><ele>32.0</ele><time>2026-04-30T11:04:29.856Z</time></trkpt><trkpt lat="38.2303112" lon="21.7484631"><ele>32.0</ele><time>2026-04-30T11:04:30.855Z</time></trkpt><trkpt lat="38.2303861" lon="21.7484357"><ele>32.0</ele><time>2026-04-30T11:04:31.856Z</time></trkpt><trkpt lat="38.2304537" lon="21.7484118"><ele>31.999999999999996</ele><time>2026-04-30T11:04:32.856Z</time></trkpt><trkpt lat="38.2305403" lon="21.7483798"><ele>32.0</ele><time>2026-04-30T11:04:34.855Z</time></trkpt><trkpt lat="38.2306185" lon="21.7483593"><ele>31.8</ele><time>2026-04-30T11:04:41.856Z</time></trkpt><trkpt lat="38.2306919" lon="21.7483319"><ele>31.6</ele><time>2026-04-30T11:04:42.855Z</time></trkpt><trkpt lat="38.2307883" lon="21.748299"><ele>31.400000000000002</ele><time>2026-04-30T11:04:43.856Z</time></trkpt><trkpt lat="38.2309069" lon="21.7482592"><ele>31.200000000000003</ele><time>2026-04-30T11:04:44.856Z</time></trkpt><trkpt lat="38.2310453" lon="21.7481967"><ele>31.0</ele><time>2026-04-30T11:04:45.856Z</time></trkpt><trkpt lat="38.2311917" lon="21.7481406"><ele>31.0</ele><time>2026-04-30T11:04:46.856Z</time></trkpt><trkpt lat="38.2313471" lon="21.7480794"><ele>31.0</ele><time>2026-04-30T11:04:47.855Z</time></trkpt><trkpt lat="38.2315126" lon="21.7480181"><ele>31.0</ele><time>2026-04-30T11:04:48.855Z</time></trkpt><trkpt lat="38.2316663" lon="21.7479623"><ele>31.0</ele><time>2026-04-30T11:04:49.855Z</time></trkpt><trkpt lat="38.2318119" lon="21.7479172"><ele>31.0</ele><time>2026-04-30T11:04:50.856Z</time></trkpt><trkpt lat="38.2319534" lon="21.7478853"><ele>31.0</ele><time>2026-04-30T11:04:51.856Z</time></trkpt><trkpt lat="38.2320865" lon="21.7478659"><ele>31.0</ele><time>2026-04-30T11:04:52.855Z</time></trkpt><trkpt lat="38.2322102" lon="21.7478509"><ele>31.0</ele><time>2026-04-30T11:04:53.855Z</time></trkpt><trkpt lat="38.2323252" lon="21.747834"><ele>31.0</ele><time>2026-04-30T11:04:54.855Z</time></trkpt><trkpt lat="38.2324273" lon="21.7478145"><ele>31.0</ele><time>2026-04-30T11:04:55.855Z</time></trkpt><trkpt lat="38.232526" lon="21.7477896"><ele>31.0</ele><time>2026-04-30T11:04:56.856Z</time></trkpt><trkpt lat="38.2326079" lon="21.7477613"><ele>31.0</ele><time>2026-04-30T11:04:57.855Z</time></trkpt><trkpt lat="38.2326736" lon="21.7477355"><ele>31.000000000000004</ele><time>2026-04-30T11:04:58.855Z</time></trkpt><trkpt lat="38.2327471" lon="21.7477143"><ele>31.0</ele><time>2026-04-30T11:05:00.856Z</time></trkpt><trkpt lat="38.2328408" lon="21.7476909"><ele>31.0</ele><time>2026-04-30T11:05:29.856Z</time></trkpt><trkpt lat="38.2329151" lon="21.7476625"><ele>31.0</ele><time>2026-04-30T11:05:30.855Z</time></trkpt><trkpt lat="38.233002" lon="21.7476308"><ele>31.000000000000004</ele><time>2026-04-30T11:05:31.855Z</time></trkpt><trkpt lat="38.2330952" lon="21.7475952"><ele>31.0</ele><time>2026-04-30T11:05:32.855Z</time></trkpt><trkpt lat="38.2332" lon="21.7475489"><ele>32.2</ele><time>2026-04-30T11:05:33.856Z</time></trkpt><trkpt lat="38.2333107" lon="21.747502"><ele>33.400000000000006</ele><time>2026-04-30T11:05:34.855Z</time></trkpt><trkpt lat="38.2334168" lon="21.7474592"><ele>34.6</ele><time>2026-04-30T11:05:35.856Z</time></trkpt><trkpt lat="38.2335204" lon="21.747416"><ele>35.800000000000004</ele><time>2026-04-30T11:05:36.856Z</time></trkpt><trkpt lat="38.233619" lon="21.7473763"><ele>37.0</ele><time>2026-04-30T11:05:37.856Z</time></trkpt><trkpt lat="38.2337095" lon="21.7473377"><ele>37.0</ele><time>2026-04-30T11:05:38.856Z</time></trkpt><trkpt lat="38.233793" lon="21.7473033"><ele>37.0</ele><time>2026-04-30T11:05:39.855Z</time></trkpt><trkpt lat="38.2338633" lon="21.7472764"><ele>37.0</ele><time>2026-04-30T11:05:40.855Z</time></trkpt><trkpt lat="38.2339267" lon="21.7472505"><ele>37.0</ele><time>2026-04-30T11:05:41.856Z</time></trkpt><trkpt lat="38.2339879" lon="21.747226"><ele>37.0</ele><time>2026-04-30T11:05:42.856Z</time></trkpt><trkpt lat="38.2340526" lon="21.7471984"><ele>37.0</ele><time>2026-04-30T11:05:43.856Z</time></trkpt><trkpt lat="38.234118" lon="21.7471693"><ele>37.0</ele><time>2026-04-30T11:05:44.856Z</time></trkpt><trkpt lat="38.2341825" lon="21.7471383"><ele>36.833333333333336</ele><time>2026-04-30T11:05:45.856Z</time></trkpt><trkpt lat="38.2342464" lon="21.7471057"><ele>36.66666666666667</ele><time>2026-04-30T11:05:46.856Z</time></trkpt><trkpt lat="38.2343083" lon="21.7470753"><ele>36.5</ele><time>2026-04-30T11:05:47.856Z</time></trkpt><trkpt lat="38.234398" lon="21.7470336"><ele>36.333333333333336</ele><time>2026-04-30T11:05:49.855Z</time></trkpt><trkpt lat="38.2344672" lon="21.7470044"><ele>36.166666666666664</ele><time>2026-04-30T11:05:52.856Z</time></trkpt><trkpt lat="38.2345691" lon="21.7469479"><ele>36.0</ele><time>2026-04-30T11:06:06.856Z</time></trkpt><trkpt lat="38.2346855" lon="21.7468996"><ele>35.833333333333336</ele><time>2026-04-30T11:06:08.856Z</time></trkpt><trkpt lat="38.2347473" lon="21.7468693"><ele>35.666666666666664</ele><time>2026-04-30T11:06:09.856Z</time></trkpt><trkpt lat="38.2348114" lon="21.7468352"><ele>35.5</ele><time>2026-04-30T11:06:10.856Z</time></trkpt><trkpt lat="38.2348814" lon="21.746799"><ele>35.33333333333333</ele><time>2026-04-30T11:06:11.855Z</time></trkpt><trkpt lat="38.2349546" lon="21.7467632"><ele>35.166666666666664</ele><time>2026-04-30T11:06:12.856Z</time></trkpt><trkpt lat="38.2350372" lon="21.7467227"><ele>35.0</ele><time>2026-04-30T11:06:13.856Z</time></trkpt><trkpt lat="38.2351275" lon="21.7466799"><ele>34.5</ele><time>2026-04-30T11:06:14.856Z</time></trkpt><trkpt lat="38.2352307" lon="21.7466342"><ele>34.0</ele><time>2026-04-30T11:06:15.856Z</time></trkpt><trkpt lat="38.2353481" lon="21.7465771"><ele>33.5</ele><time>2026-04-30T11:06:16.856Z</time></trkpt><trkpt lat="38.2354702" lon="21.7465209"><ele>33.0</ele><time>2026-04-30T11:06:17.855Z</time></trkpt><trkpt lat="38.2355889" lon="21.746467"><ele>33.0</ele><time>2026-04-30T11:06:18.855Z</time></trkpt><trkpt lat="38.235705" lon="21.7464156"><ele>33.0</ele><time>2026-04-30T11:06:19.856Z</time></trkpt><trkpt lat="38.2358105" lon="21.7463673"><ele>33.0</ele><time>2026-04-30T11:06:20.855Z</time></trkpt><trkpt lat="38.235921" lon="21.7463138"><ele>33.0</ele><time>2026-04-30T11:06:21.856Z</time></trkpt><trkpt lat="38.2360293" lon="21.7462586"><ele>33.0</ele><time>2026-04-30T11:06:22.855Z</time></trkpt><trkpt lat="38.236131" lon="21.7462065"><ele>33.0</ele><time>2026-04-30T11:06:23.855Z</time></trkpt><trkpt lat="38.2362269" lon="21.7461636"><ele>33.0</ele><time>2026-04-30T11:06:24.855Z</time></trkpt><trkpt lat="38.2363243" lon="21.7461219"><ele>33.0</ele><time>2026-04-30T11:06:25.856Z</time></trkpt><trkpt lat="38.2364237" lon="21.7460787"><ele>33.0</ele><time>2026-04-30T11:06:26.856Z</time></trkpt><trkpt lat="38.2365265" lon="21.7460338"><ele>33.6</ele><time>2026-04-30T11:06:27.855Z</time></trkpt><trkpt lat="38.2366236" lon="21.7459907"><ele>34.199999999999996</ele><time>2026-04-30T11:06:28.855Z</time></trkpt><trkpt lat="38.2367247" lon="21.7459426"><ele>34.8</ele><time>2026-04-30T11:06:29.855Z</time></trkpt><trkpt lat="38.2368243" lon="21.7458944"><ele>35.4</ele><time>2026-04-30T11:06:30.856Z</time></trkpt><trkpt lat="38.2369192" lon="21.7458497"><ele>36.0</ele><time>2026-04-30T11:06:31.855Z</time></trkpt><trkpt lat="38.237008" lon="21.7458095"><ele>36.00000000000001</ele><time>2026-04-30T11:06:32.856Z</time></trkpt><trkpt lat="38.2370907" lon="21.7457713"><ele>36.0</ele><time>2026-04-30T11:06:33.856Z</time></trkpt><trkpt lat="38.2371652" lon="21.7457381"><ele>36.0</ele><time>2026-04-30T11:06:34.856Z</time></trkpt><trkpt lat="38.2372368" lon="21.7457072"><ele>36.0</ele><time>2026-04-30T11:06:35.856Z</time></trkpt><trkpt lat="38.2373023" lon="21.745679"><ele>36.0</ele><time>2026-04-30T11:06:36.856Z</time></trkpt><trkpt lat="38.237367" lon="21.7456485"><ele>36.00000000000001</ele><time>2026-04-30T11:06:37.855Z</time></trkpt><trkpt lat="38.2374277" lon="21.7456221"><ele>36.0</ele><time>2026-04-30T11:06:38.856Z</time></trkpt><trkpt lat="38.2375404" lon="21.7455815"><ele>36.0</ele><time>2026-04-30T11:06:40.856Z</time></trkpt><trkpt lat="38.2376199" lon="21.7455526"><ele>36.0</ele><time>2026-04-30T11:06:42.856Z</time></trkpt><trkpt lat="38.2376962" lon="21.7455077"><ele>36.0</ele><time>2026-04-30T11:06:54.856Z</time></trkpt><trkpt lat="38.2377957" lon="21.7454528"><ele>36.0</ele><time>2026-04-30T11:06:56.856Z</time></trkpt><trkpt lat="38.2378628" lon="21.7454076"><ele>36.0</ele><time>2026-04-30T11:06:57.856Z</time></trkpt><trkpt lat="38.2379364" lon="21.7453593"><ele>36.0</ele><time>2026-04-30T11:06:58.856Z</time></trkpt><trkpt lat="38.2380333" lon="21.7453118"><ele>36.75</ele><time>2026-04-30T11:06:59.856Z</time></trkpt><trkpt lat="38.2381437" lon="21.7452706"><ele>37.5</ele><time>2026-04-30T11:07:00.856Z</time></trkpt><trkpt lat="38.2382538" lon="21.7452399"><ele>38.25</ele><time>2026-04-30T11:07:01.855Z</time></trkpt><trkpt lat="38.2383667" lon="21.7452205"><ele>39.0</ele><time>2026-04-30T11:07:02.856Z</time></trkpt><trkpt lat="38.2384763" lon="21.7452159"><ele>39.0</ele><time>2026-04-30T11:07:03.856Z</time></trkpt><trkpt lat="38.2385819" lon="21.7452191"><ele>39.0</ele><time>2026-04-30T11:07:04.856Z</time></trkpt><trkpt lat="38.2386753" lon="21.7452265"><ele>39.0</ele><time>2026-04-30T11:07:05.855Z</time></trkpt><trkpt lat="38.2387551" lon="21.7452338"><ele>39.0</ele><time>2026-04-30T11:07:06.855Z</time></trkpt><trkpt lat="38.2388263" lon="21.7452403"><ele>39.0</ele><time>2026-04-30T11:07:07.855Z</time></trkpt><trkpt lat="38.2389131" lon="21.7452439"><ele>39.0</ele><time>2026-04-30T11:07:09.856Z</time></trkpt><trkpt lat="38.2390006" lon="21.7452512"><ele>39.166666666666664</ele><time>2026-04-30T11:07:15.855Z</time></trkpt><trkpt lat="38.2391109" lon="21.7452635"><ele>39.333333333333336</ele><time>2026-04-30T11:07:17.855Z</time></trkpt><trkpt lat="38.2391807" lon="21.7452717"><ele>39.5</ele><time>2026-04-30T11:07:18.856Z</time></trkpt><trkpt lat="38.2392584" lon="21.7452818"><ele>39.66666666666667</ele><time>2026-04-30T11:07:19.856Z</time></trkpt><trkpt lat="38.2393391" lon="21.7452957"><ele>39.833333333333336</ele><time>2026-04-30T11:07:20.856Z</time></trkpt><trkpt lat="38.2394159" lon="21.7453138"><ele>40.0</ele><time>2026-04-30T11:07:21.855Z</time></trkpt><trkpt lat="38.2394897" lon="21.7453301"><ele>40.0</ele><time>2026-04-30T11:07:22.856Z</time></trkpt><trkpt lat="38.2395608" lon="21.745346"><ele>40.0</ele><time>2026-04-30T11:07:23.855Z</time></trkpt><trkpt lat="38.2396656" lon="21.7453643"><ele>40.0</ele><time>2026-04-30T11:07:25.856Z</time></trkpt><trkpt lat="38.2397436" lon="21.7453748"><ele>40.0</ele><time>2026-04-30T11:07:27.856Z</time></trkpt><trkpt lat="38.2398069" lon="21.7453925"><ele>40.0</ele><time>2026-04-30T11:07:30.855Z</time></trkpt><trkpt lat="38.2398778" lon="21.745401"><ele>40.0</ele><time>2026-04-30T11:07:49.856Z</time></trkpt><trkpt lat="38.2399718" lon="21.7454298"><ele>40.4</ele><time>2026-04-30T11:07:51.855Z</time></trkpt><trkpt lat="38.2400669" lon="21.7454532"><ele>40.8</ele><time>2026-04-30T11:07:53.856Z</time></trkpt><trkpt lat="38.2401988" lon="21.745463"><ele>41.2</ele><time>2026-04-30T11:07:55.856Z</time></trkpt><trkpt lat="38.2402667" lon="21.7454498"><ele>41.6</ele><time>2026-04-30T11:07:56.856Z</time></trkpt><trkpt lat="38.2403371" lon="21.7454192"><ele>42.0</ele><time>2026-04-30T11:07:57.856Z</time></trkpt><trkpt lat="38.2404193" lon="21.7453718"><ele>42.0</ele><time>2026-04-30T11:07:58.855Z</time></trkpt><trkpt lat="38.2405031" lon="21.7453149"><ele>42.0</ele><time>2026-04-30T11:07:59.855Z</time></trkpt><trkpt lat="38.2405983" lon="21.7452445"><ele>42.0</ele><time>2026-04-30T11:08:00.855Z</time></trkpt><trkpt lat="38.2406931" lon="21.7451746"><ele>42.0</ele><time>2026-04-30T11:08:01.855Z</time></trkpt><trkpt lat="38.2407913" lon="21.7451011"><ele>42.0</ele><time>2026-04-30T11:08:02.856Z</time></trkpt><trkpt lat="38.2408928" lon="21.7450264"><ele>42.6</ele><time>2026-04-30T11:08:03.856Z</time></trkpt><trkpt lat="38.2409891" lon="21.7449583"><ele>43.2</ele><time>2026-04-30T11:08:04.856Z</time></trkpt><trkpt lat="38.241084" lon="21.7448906"><ele>43.8</ele><time>2026-04-30T11:08:05.855Z</time></trkpt><trkpt lat="38.2411844" lon="21.7448189"><ele>44.4</ele><time>2026-04-30T11:08:06.855Z</time></trkpt><trkpt lat="38.2412847" lon="21.7447494"><ele>45.0</ele><time>2026-04-30T11:08:07.855Z</time></trkpt><trkpt lat="38.2413875" lon="21.7446806"><ele>45.2</ele><time>2026-04-30T11:08:08.856Z</time></trkpt><trkpt lat="38.2414831" lon="21.7446146"><ele>45.4</ele><time>2026-04-30T11:08:09.855Z</time></trkpt><trkpt lat="38.2415734" lon="21.7445519"><ele>45.599999999999994</ele><time>2026-04-30T11:08:10.855Z</time></trkpt><trkpt lat="38.2416592" lon="21.744496"><ele>45.8</ele><time>2026-04-30T11:08:11.856Z</time></trkpt><trkpt lat="38.2417367" lon="21.7444511"><ele>46.0</ele><time>2026-04-30T11:08:12.855Z</time></trkpt><trkpt lat="38.2418085" lon="21.744419"><ele>46.0</ele><time>2026-04-30T11:08:13.856Z</time></trkpt><trkpt lat="38.2418779" lon="21.7443891"><ele>46.0</ele><time>2026-04-30T11:08:14.856Z</time></trkpt><trkpt lat="38.2419451" lon="21.7443621"><ele>46.0</ele><time>2026-04-30T11:08:15.856Z</time></trkpt><trkpt lat="38.2420197" lon="21.7443335"><ele>46.0</ele><time>2026-04-30T11:08:16.855Z</time></trkpt><trkpt lat="38.2420973" lon="21.744306"><ele>46.0</ele><time>2026-04-30T11:08:17.855Z</time></trkpt><trkpt lat="38.2421751" lon="21.7442769"><ele>46.0</ele><time>2026-04-30T11:08:18.856Z</time></trkpt><trkpt lat="38.2422519" lon="21.7442488"><ele>47.66666666666667</ele><time>2026-04-30T11:08:19.856Z</time></trkpt><trkpt lat="38.2423156" lon="21.7442255"><ele>49.333333333333336</ele><time>2026-04-30T11:08:20.856Z</time></trkpt><trkpt lat="38.2423986" lon="21.7441905"><ele>51.0</ele><time>2026-04-30T11:08:22.856Z</time></trkpt><trkpt lat="38.242488" lon="21.7441544"><ele>52.66666666666667</ele><time>2026-04-30T11:08:43.855Z</time></trkpt><trkpt lat="38.2426123" lon="21.7441039"><ele>54.333333333333336</ele><time>2026-04-30T11:08:45.856Z</time></trkpt><trkpt lat="38.2426775" lon="21.7440723"><ele>56.0</ele><time>2026-04-30T11:08:46.856Z</time></trkpt><trkpt lat="38.242746" lon="21.744038"><ele>56.00000000000001</ele><time>2026-04-30T11:08:47.855Z</time></trkpt><trkpt lat="38.2428157" lon="21.7440069"><ele>56.0</ele><time>2026-04-30T11:08:48.856Z</time></trkpt><trkpt lat="38.2428982" lon="21.7439729"><ele>56.0</ele><time>2026-04-30T11:08:49.855Z</time></trkpt><trkpt lat="38.2429874" lon="21.7439355"><ele>56.0</ele><time>2026-04-30T11:08:50.855Z</time></trkpt><trkpt lat="38.2430755" lon="21.7438995"><ele>56.00000000000001</ele><time>2026-04-30T11:08:51.856Z</time></trkpt><trkpt lat="38.2431531" lon="21.7438734"><ele>56.0</ele><time>2026-04-30T11:08:52.856Z</time></trkpt><trkpt lat="38.243226" lon="21.7438518"><ele>57.16666666666667</ele><time>2026-04-30T11:08:53.856Z</time></trkpt><trkpt lat="38.2432997" lon="21.7438399"><ele>58.333333333333336</ele><time>2026-04-30T11:08:54.856Z</time></trkpt><trkpt lat="38.2433719" lon="21.7438538"><ele>59.5</ele><time>2026-04-30T11:08:55.856Z</time></trkpt><trkpt lat="38.243439" lon="21.7438971"><ele>60.66666666666667</ele><time>2026-04-30T11:08:56.855Z</time></trkpt><trkpt lat="38.2434997" lon="21.7439674"><ele>61.833333333333336</ele><time>2026-04-30T11:08:57.856Z</time></trkpt><trkpt lat="38.2435529" lon="21.7440613"><ele>63.0</ele><time>2026-04-30T11:08:58.855Z</time></trkpt><trkpt lat="38.2436026" lon="21.7441927"><ele>63.0</ele><time>2026-04-30T11:08:59.856Z</time></trkpt><trkpt lat="38.2436386" lon="21.7443578"><ele>63.0</ele><time>2026-04-30T11:09:00.856Z</time></trkpt><trkpt lat="38.2436643" lon="21.7445307"><ele>63.0</ele><time>2026-04-30T11:09:01.855Z</time></trkpt><trkpt lat="38.2436806" lon="21.7447163"><ele>63.0</ele><time>2026-04-30T11:09:02.856Z</time></trkpt><trkpt lat="38.2436948" lon="21.7449111"><ele>57.5</ele><time>2026-04-30T11:09:03.856Z</time></trkpt><trkpt lat="38.2437158" lon="21.7452733"><ele>52.0</ele><time>2026-04-30T11:09:04.855Z</time></trkpt><trkpt lat="38.2437382" lon="21.7454806"><ele>52.0</ele><time>2026-04-30T11:09:05.856Z</time></trkpt><trkpt lat="38.2437714" lon="21.745694"><ele>52.0</ele><time>2026-04-30T11:09:06.856Z</time></trkpt><trkpt lat="38.2438146" lon="21.745902"><ele>52.0</ele><time>2026-04-30T11:09:07.855Z</time></trkpt><trkpt lat="38.24384" lon="21.7461406"><ele>52.25</ele><time>2026-04-30T11:09:08.855Z</time></trkpt><trkpt lat="38.2438733" lon="21.7463211"><ele>52.5</ele><time>2026-04-30T11:09:09.856Z</time></trkpt><trkpt lat="38.243903" lon="21.7464992"><ele>52.75</ele><time>2026-04-30T11:09:10.856Z</time></trkpt><trkpt lat="38.243938" lon="21.746672"><ele>53.0</ele><time>2026-04-30T11:09:11.855Z</time></trkpt><trkpt lat="38.2439745" lon="21.7468478"><ele>54.0</ele><time>2026-04-30T11:09:12.855Z</time></trkpt><trkpt lat="38.2440083" lon="21.7470089"><ele>55.0</ele><time>2026-04-30T11:09:13.856Z</time></trkpt><trkpt lat="38.2440475" lon="21.7471724"><ele>56.0</ele><time>2026-04-30T11:09:14.856Z</time></trkpt><trkpt lat="38.2440966" lon="21.747347"><ele>57.0</ele><time>2026-04-30T11:09:15.855Z</time></trkpt><trkpt lat="38.24415" lon="21.7475144"><ele>57.0</ele><time>2026-04-30T11:09:16.855Z</time></trkpt><trkpt lat="38.2442065" lon="21.7476735"><ele>57.0</ele><time>2026-04-30T11:09:17.856Z</time></trkpt><trkpt lat="38.2442719" lon="21.7478413"><ele>57.0</ele><time>2026-04-30T11:09:18.856Z</time></trkpt><trkpt lat="38.2443432" lon="21.7480149"><ele>57.0</ele><time>2026-04-30T11:09:19.856Z</time></trkpt><trkpt lat="38.2444229" lon="21.7482056"><ele>58.0</ele><time>2026-04-30T11:09:20.856Z</time></trkpt><trkpt lat="38.2444986" lon="21.7483924"><ele>59.0</ele><time>2026-04-30T11:09:21.856Z</time></trkpt><trkpt lat="38.2445829" lon="21.7485913"><ele>60.0</ele><time>2026-04-30T11:09:22.855Z</time></trkpt><trkpt lat="38.2446725" lon="21.7488055"><ele>62.33333333333333</ele><time>2026-04-30T11:09:23.856Z</time></trkpt><trkpt lat="38.2447605" lon="21.7490149"><ele>64.66666666666666</ele><time>2026-04-30T11:09:24.856Z</time></trkpt><trkpt lat="38.2448445" lon="21.7492205"><ele>67.0</ele><time>2026-04-30T11:09:25.856Z</time></trkpt><trkpt lat="38.2449306" lon="21.7494328"><ele>70.33333333333333</ele><time>2026-04-30T11:09:26.856Z</time></trkpt><trkpt lat="38.2450173" lon="21.7496448"><ele>73.66666666666667</ele><time>2026-04-30T11:09:27.855Z</time></trkpt><trkpt lat="38.2451051" lon="21.7498688"><ele>77.0</ele><time>2026-04-30T11:09:28.856Z</time></trkpt><trkpt lat="38.2451881" lon="21.750083"><ele>82.66666666666667</ele><time>2026-04-30T11:09:29.856Z</time></trkpt><trkpt lat="38.2452775" lon="21.7503104"><ele>88.33333333333333</ele><time>2026-04-30T11:09:30.855Z</time></trkpt><trkpt lat="38.245376" lon="21.7505522"><ele>94.0</ele><time>2026-04-30T11:09:31.855Z</time></trkpt><trkpt lat="38.2454682" lon="21.7507963"><ele>94.0</ele><time>2026-04-30T11:09:32.856Z</time></trkpt><trkpt lat="38.2455663" lon="21.751031"><ele>94.0</ele><time>2026-04-30T11:09:33.856Z</time></trkpt><trkpt lat="38.2456792" lon="21.7512712"><ele>94.0</ele><time>2026-04-30T11:09:34.855Z</time></trkpt><trkpt lat="38.2458122" lon="21.7515065"><ele>94.0</ele><time>2026-04-30T11:09:35.856Z</time></trkpt><trkpt lat="38.2459589" lon="21.751744"><ele>94.0</ele><time>2026-04-30T11:09:36.856Z</time></trkpt><trkpt lat="38.2461101" lon="21.7519613"><ele>94.0</ele><time>2026-04-30T11:09:37.856Z</time></trkpt><trkpt lat="38.2462742" lon="21.7521767"><ele>94.0</ele><time>2026-04-30T11:09:38.856Z</time></trkpt><trkpt lat="38.2464419" lon="21.7523787"><ele>92.33333333333333</ele><time>2026-04-30T11:09:39.855Z</time></trkpt><trkpt lat="38.2465967" lon="21.7525573"><ele>90.66666666666667</ele><time>2026-04-30T11:09:40.855Z</time></trkpt><trkpt lat="38.2467341" lon="21.7527224"><ele>89.0</ele><time>2026-04-30T11:09:41.856Z</time></trkpt><trkpt lat="38.2468592" lon="21.7528957"><ele>89.0</ele><time>2026-04-30T11:09:42.856Z</time></trkpt><trkpt lat="38.2469648" lon="21.753078"><ele>89.0</ele><time>2026-04-30T11:09:43.856Z</time></trkpt><trkpt lat="38.2470588" lon="21.7532934"><ele>89.0</ele><time>2026-04-30T11:09:44.855Z</time></trkpt><trkpt lat="38.2471322" lon="21.7535271"><ele>90.33333333333334</ele><time>2026-04-30T11:09:45.855Z</time></trkpt><trkpt lat="38.2472052" lon="21.753785"><ele>91.66666666666667</ele><time>2026-04-30T11:09:46.855Z</time></trkpt><trkpt lat="38.2472861" lon="21.7540404"><ele>93.0</ele><time>2026-04-30T11:09:47.855Z</time></trkpt><trkpt lat="38.2473777" lon="21.7542768"><ele>96.0</ele><time>2026-04-30T11:09:48.856Z</time></trkpt><trkpt lat="38.2474814" lon="21.7544956"><ele>99.0</ele><time>2026-04-30T11:09:49.856Z</time></trkpt><trkpt lat="38.2476008" lon="21.7547132"><ele>102.0</ele><time>2026-04-30T11:09:50.855Z</time></trkpt><trkpt lat="38.2477215" lon="21.7549132"><ele>102.0</ele><time>2026-04-30T11:09:51.856Z</time></trkpt><trkpt lat="38.2478465" lon="21.7551046"><ele>102.0</ele><time>2026-04-30T11:09:52.855Z</time></trkpt><trkpt lat="38.2479757" lon="21.7552667"><ele>102.0</ele><time>2026-04-30T11:09:53.855Z</time></trkpt><trkpt lat="38.2481276" lon="21.7554089"><ele>101.33333333333334</ele><time>2026-04-30T11:09:54.856Z</time></trkpt><trkpt lat="38.2483009" lon="21.7555241"><ele>100.66666666666667</ele><time>2026-04-30T11:09:55.855Z</time></trkpt><trkpt lat="38.2484796" lon="21.7556003"><ele>100.0</ele><time>2026-04-30T11:09:56.856Z</time></trkpt><trkpt lat="38.2486617" lon="21.7556432"><ele>100.0</ele><time>2026-04-30T11:09:57.856Z</time></trkpt><trkpt lat="38.2488555" lon="21.7556602"><ele>100.0</ele><time>2026-04-30T11:09:58.856Z</time></trkpt><trkpt lat="38.249056" lon="21.7556563"><ele>100.0</ele><time>2026-04-30T11:09:59.855Z</time></trkpt><trkpt lat="38.2492716" lon="21.7556407"><ele>105.0</ele><time>2026-04-30T11:10:00.856Z</time></trkpt><trkpt lat="38.2494775" lon="21.7556221"><ele>110.0</ele><time>2026-04-30T11:10:01.856Z</time></trkpt><trkpt lat="38.2496887" lon="21.7556031"><ele>115.0</ele><time>2026-04-30T11:10:02.855Z</time></trkpt><trkpt lat="38.2499063" lon="21.7555851"><ele>119.33333333333334</ele><time>2026-04-30T11:10:03.856Z</time></trkpt><trkpt lat="38.2501099" lon="21.7555704"><ele>123.66666666666666</ele><time>2026-04-30T11:10:04.856Z</time></trkpt><trkpt lat="38.2502996" lon="21.7555576"><ele>128.0</ele><time>2026-04-30T11:10:05.855Z</time></trkpt><trkpt lat="38.250489" lon="21.7555434"><ele>120.66666666666666</ele><time>2026-04-30T11:10:06.856Z</time></trkpt><trkpt lat="38.2506713" lon="21.7555236"><ele>113.33333333333334</ele><time>2026-04-30T11:10:07.856Z</time></trkpt><trkpt lat="38.2508528" lon="21.7554919"><ele>106.0</ele><time>2026-04-30T11:10:08.856Z</time></trkpt><trkpt lat="38.2510187" lon="21.7554432"><ele>106.0</ele><time>2026-04-30T11:10:09.856Z</time></trkpt><trkpt lat="38.2511875" lon="21.7553378"><ele>106.0</ele><time>2026-04-30T11:10:10.856Z</time></trkpt><trkpt lat="38.2513447" lon="21.7552249"><ele>106.0</ele><time>2026-04-30T11:10:11.855Z</time></trkpt><trkpt lat="38.2514885" lon="21.7550848"><ele>99.66666666666667</ele><time>2026-04-30T11:10:12.856Z</time></trkpt><trkpt lat="38.2516177" lon="21.7549323"><ele>93.33333333333334</ele><time>2026-04-30T11:10:13.855Z</time></trkpt><trkpt lat="38.2517458" lon="21.7547565"><ele>87.0</ele><time>2026-04-30T11:10:14.856Z</time></trkpt><trkpt lat="38.2518718" lon="21.7545738"><ele>87.0</ele><time>2026-04-30T11:10:15.855Z</time></trkpt><trkpt lat="38.2520027" lon="21.7543747"><ele>87.0</ele><time>2026-04-30T11:10:16.856Z</time></trkpt><trkpt lat="38.2521256" lon="21.7541896"><ele>87.0</ele><time>2026-04-30T11:10:17.855Z</time></trkpt><trkpt lat="38.2522553" lon="21.7539992"><ele>86.66666666666667</ele><time>2026-04-30T11:10:18.855Z</time></trkpt><trkpt lat="38.2523905" lon="21.7538037"><ele>86.33333333333334</ele><time>2026-04-30T11:10:19.855Z</time></trkpt><trkpt lat="38.2525252" lon="21.7536117"><ele>86.0</ele><time>2026-04-30T11:10:20.856Z</time></trkpt><trkpt lat="38.2526569" lon="21.7534296"><ele>86.0</ele><time>2026-04-30T11:10:21.855Z</time></trkpt><trkpt lat="38.2527935" lon="21.7532479"><ele>86.0</ele><time>2026-04-30T11:10:22.855Z</time></trkpt><trkpt lat="38.25293" lon="21.7530727"><ele>86.0</ele><time>2026-04-30T11:10:23.856Z</time></trkpt><trkpt lat="38.253068" lon="21.7528953"><ele>80.33333333333334</ele><time>2026-04-30T11:10:24.855Z</time></trkpt><trkpt lat="38.2531993" lon="21.7527284"><ele>74.66666666666667</ele><time>2026-04-30T11:10:25.855Z</time></trkpt><trkpt lat="38.2533386" lon="21.7525549"><ele>69.0</ele><time>2026-04-30T11:10:26.856Z</time></trkpt><trkpt lat="38.2534826" lon="21.7523712"><ele>69.0</ele><time>2026-04-30T11:10:27.855Z</time></trkpt><trkpt lat="38.2536207" lon="21.7521962"><ele>69.0</ele><time>2026-04-30T11:10:28.856Z</time></trkpt><trkpt lat="38.2537483" lon="21.752031"><ele>69.0</ele><time>2026-04-30T11:10:29.855Z</time></trkpt><trkpt lat="38.2538748" lon="21.7518612"><ele>65.66666666666667</ele><time>2026-04-30T11:10:30.855Z</time></trkpt><trkpt lat="38.2539949" lon="21.7516857"><ele>62.333333333333336</ele><time>2026-04-30T11:10:31.856Z</time></trkpt><trkpt lat="38.2541116" lon="21.7514917"><ele>59.0</ele><time>2026-04-30T11:10:32.855Z</time></trkpt><trkpt lat="38.2542142" lon="21.7512955"><ele>59.0</ele><time>2026-04-30T11:10:33.855Z</time></trkpt><trkpt lat="38.2543129" lon="21.7510797"><ele>59.0</ele><time>2026-04-30T11:10:34.856Z</time></trkpt><trkpt lat="38.2544011" lon="21.7508499"><ele>59.0</ele><time>2026-04-30T11:10:35.856Z</time></trkpt><trkpt lat="38.2544755" lon="21.750618"><ele>64.33333333333334</ele><time>2026-04-30T11:10:36.855Z</time></trkpt><trkpt lat="38.254538" lon="21.7503863"><ele>69.66666666666667</ele><time>2026-04-30T11:10:37.856Z</time></trkpt><trkpt lat="38.2545934" lon="21.7501404"><ele>75.0</ele><time>2026-04-30T11:10:38.856Z</time></trkpt><trkpt lat="38.2546424" lon="21.7498913"><ele>75.66666666666667</ele><time>2026-04-30T11:10:39.856Z</time></trkpt><trkpt lat="38.2546894" lon="21.7496352"><ele>76.33333333333334</ele><time>2026-04-30T11:10:40.856Z</time></trkpt><trkpt lat="38.2547345" lon="21.7493916"><ele>77.0</ele><time>2026-04-30T11:10:41.856Z</time></trkpt><trkpt lat="38.2547814" lon="21.7491498"><ele>68.66666666666667</ele><time>2026-04-30T11:10:42.856Z</time></trkpt><trkpt lat="38.2548325" lon="21.7489043"><ele>60.33333333333333</ele><time>2026-04-30T11:10:43.855Z</time></trkpt><trkpt lat="38.2548869" lon="21.748675"><ele>52.0</ele><time>2026-04-30T11:10:44.855Z</time></trkpt><trkpt lat="38.2549456" lon="21.748465"><ele>49.666666666666664</ele><time>2026-04-30T11:10:45.856Z</time></trkpt><trkpt lat="38.2550085" lon="21.7482686"><ele>47.33333333333333</ele><time>2026-04-30T11:10:46.855Z</time></trkpt><trkpt lat="38.2550737" lon="21.7480928"><ele>45.0</ele><time>2026-04-30T11:10:47.856Z</time></trkpt><trkpt lat="38.2551374" lon="21.7479344"><ele>45.0</ele><time>2026-04-30T11:10:48.855Z</time></trkpt><trkpt lat="38.2551929" lon="21.7478104"><ele>45.0</ele><time>2026-04-30T11:10:49.856Z</time></trkpt><trkpt lat="38.2552529" lon="21.7476981"><ele>45.0</ele><time>2026-04-30T11:10:50.855Z</time></trkpt><trkpt lat="38.255321" lon="21.7476079"><ele>45.0</ele><time>2026-04-30T11:10:51.855Z</time></trkpt><trkpt lat="38.25539" lon="21.7475483"><ele>45.0</ele><time>2026-04-30T11:10:52.855Z</time></trkpt><trkpt lat="38.2554591" lon="21.7475108"><ele>44.166666666666664</ele><time>2026-04-30T11:10:53.855Z</time></trkpt><trkpt lat="38.25553" lon="21.74749"><ele>43.333333333333336</ele><time>2026-04-30T11:10:54.855Z</time></trkpt><trkpt lat="38.2556" lon="21.7474787"><ele>42.5</ele><time>2026-04-30T11:10:55.855Z</time></trkpt><trkpt lat="38.255681" lon="21.7474876"><ele>41.66666666666667</ele><time>2026-04-30T11:10:56.856Z</time></trkpt><trkpt lat="38.2557611" lon="21.747516"><ele>40.833333333333336</ele><time>2026-04-30T11:10:57.856Z</time></trkpt><trkpt lat="38.255842" lon="21.7475528"><ele>40.0</ele><time>2026-04-30T11:10:58.856Z</time></trkpt><trkpt lat="38.2559229" lon="21.7475892"><ele>38.833333333333336</ele><time>2026-04-30T11:10:59.856Z</time></trkpt><trkpt lat="38.255997" lon="21.7476184"><ele>37.66666666666667</ele><time>2026-04-30T11:11:00.855Z</time></trkpt><trkpt lat="38.2560654" lon="21.7476445"><ele>36.5</ele><time>2026-04-30T11:11:01.855Z</time></trkpt><trkpt lat="38.2561335" lon="21.747673"><ele>35.333333333333336</ele><time>2026-04-30T11:11:02.856Z</time></trkpt><trkpt lat="38.256201" lon="21.7477037"><ele>34.166666666666664</ele><time>2026-04-30T11:11:03.855Z</time></trkpt><trkpt lat="38.2562782" lon="21.7477395"><ele>33.0</ele><time>2026-04-30T11:11:04.855Z</time></trkpt><trkpt lat="38.2563571" lon="21.7477758"><ele>33.0</ele><time>2026-04-30T11:11:05.856Z</time></trkpt><trkpt lat="38.256439" lon="21.7478149"><ele>33.0</ele><time>2026-04-30T11:11:06.856Z</time></trkpt><trkpt lat="38.2565192" lon="21.7478537"><ele>33.0</ele><time>2026-04-30T11:11:07.855Z</time></trkpt><trkpt lat="38.2565897" lon="21.7478874"><ele>33.0</ele><time>2026-04-30T11:11:08.856Z</time></trkpt><trkpt lat="38.2566506" lon="21.7479164"><ele>33.0</ele><time>2026-04-30T11:11:09.856Z</time></trkpt><trkpt lat="38.2567665" lon="21.7479697"><ele>33.0</ele><time>2026-04-30T11:11:11.856Z</time></trkpt><trkpt lat="38.2568802" lon="21.7480202"><ele>32.666666666666664</ele><time>2026-04-30T11:11:13.855Z</time></trkpt><trkpt lat="38.2569417" lon="21.7480512"><ele>32.333333333333336</ele><time>2026-04-30T11:11:14.856Z</time></trkpt><trkpt lat="38.2570182" lon="21.7480813"><ele>32.0</ele><time>2026-04-30T11:11:15.856Z</time></trkpt><trkpt lat="38.2571064" lon="21.7481093"><ele>31.666666666666668</ele><time>2026-04-30T11:11:16.855Z</time></trkpt><trkpt lat="38.2572031" lon="21.7481325"><ele>31.333333333333336</ele><time>2026-04-30T11:11:17.856Z</time></trkpt><trkpt lat="38.2573156" lon="21.7481514"><ele>31.0</ele><time>2026-04-30T11:11:18.856Z</time></trkpt><trkpt lat="38.2574411" lon="21.7481653"><ele>31.0</ele><time>2026-04-30T11:11:19.855Z</time></trkpt><trkpt lat="38.2575895" lon="21.7481757"><ele>31.0</ele><time>2026-04-30T11:11:20.855Z</time></trkpt><trkpt lat="38.2577243" lon="21.7481758"><ele>31.0</ele><time>2026-04-30T11:11:21.856Z</time></trkpt><trkpt lat="38.2578494" lon="21.748172"><ele>31.0</ele><time>2026-04-30T11:11:22.855Z</time></trkpt><trkpt lat="38.2579699" lon="21.7481644"><ele>31.0</ele><time>2026-04-30T11:11:23.856Z</time></trkpt><trkpt lat="38.2580784" lon="21.7481594"><ele>31.0</ele><time>2026-04-30T11:11:24.856Z</time></trkpt><trkpt lat="38.2581767" lon="21.7481588"><ele>31.0</ele><time>2026-04-30T11:11:25.856Z</time></trkpt><trkpt lat="38.2582857" lon="21.7481576"><ele>31.0</ele><time>2026-04-30T11:11:26.856Z</time></trkpt><trkpt lat="38.2584055" lon="21.7481662"><ele>31.0</ele><time>2026-04-30T11:11:27.856Z</time></trkpt><trkpt lat="38.2585359" lon="21.7481849"><ele>30.75</ele><time>2026-04-30T11:11:28.855Z</time></trkpt><trkpt lat="38.2586594" lon="21.7482053"><ele>30.5</ele><time>2026-04-30T11:11:29.855Z</time></trkpt><trkpt lat="38.258784" lon="21.7482331"><ele>30.25</ele><time>2026-04-30T11:11:30.855Z</time></trkpt><trkpt lat="38.2589058" lon="21.7482717"><ele>30.0</ele><time>2026-04-30T11:11:31.855Z</time></trkpt><trkpt lat="38.2590193" lon="21.7483192"><ele>29.6</ele><time>2026-04-30T11:11:32.856Z</time></trkpt><trkpt lat="38.2591204" lon="21.7483755"><ele>29.2</ele><time>2026-04-30T11:11:33.855Z</time></trkpt><trkpt lat="38.259214" lon="21.748445"><ele>28.799999999999997</ele><time>2026-04-30T11:11:34.855Z</time></trkpt><trkpt lat="38.2593019" lon="21.7485173"><ele>28.4</ele><time>2026-04-30T11:11:35.855Z</time></trkpt><trkpt lat="38.2593939" lon="21.7485954"><ele>28.0</ele><time>2026-04-30T11:11:36.856Z</time></trkpt><trkpt lat="38.259484" lon="21.7486646"><ele>28.0</ele><time>2026-04-30T11:11:37.856Z</time></trkpt><trkpt lat="38.2595784" lon="21.748735"><ele>28.0</ele><time>2026-04-30T11:11:38.856Z</time></trkpt><trkpt lat="38.2596781" lon="21.7488076"><ele>28.0</ele><time>2026-04-30T11:11:39.855Z</time></trkpt><trkpt lat="38.2597766" lon="21.7488801"><ele>28.0</ele><time>2026-04-30T11:11:40.856Z</time></trkpt><trkpt lat="38.2598741" lon="21.7489539"><ele>27.0</ele><time>2026-04-30T11:11:41.856Z</time></trkpt><trkpt lat="38.2599769" lon="21.7490343"><ele>26.0</ele><time>2026-04-30T11:11:42.856Z</time></trkpt><trkpt lat="38.2600818" lon="21.7491163"><ele>25.0</ele><time>2026-04-30T11:11:43.855Z</time></trkpt><trkpt lat="38.2601902" lon="21.7492025"><ele>24.0</ele><time>2026-04-30T11:11:44.855Z</time></trkpt><trkpt lat="38.2602918" lon="21.7492832"><ele>24.0</ele><time>2026-04-30T11:11:45.856Z</time></trkpt><trkpt lat="38.2603949" lon="21.7493634"><ele>24.0</ele><time>2026-04-30T11:11:46.855Z</time></trkpt><trkpt lat="38.2604942" lon="21.7494413"><ele>24.0</ele><time>2026-04-30T11:11:47.855Z</time></trkpt><trkpt lat="38.2605834" lon="21.7495107"><ele>24.0</ele><time>2026-04-30T11:11:48.856Z</time></trkpt><trkpt lat="38.2606644" lon="21.7495727"><ele>24.0</ele><time>2026-04-30T11:11:49.856Z</time></trkpt><trkpt lat="38.2607423" lon="21.7496329"><ele>24.4</ele><time>2026-04-30T11:11:50.855Z</time></trkpt><trkpt lat="38.2608109" lon="21.7496857"><ele>24.799999999999997</ele><time>2026-04-30T11:11:51.855Z</time></trkpt><trkpt lat="38.2608716" lon="21.7497341"><ele>25.200000000000003</ele><time>2026-04-30T11:11:52.856Z</time></trkpt><trkpt lat="38.2609761" lon="21.7498184"><ele>25.6</ele><time>2026-04-30T11:11:54.856Z</time></trkpt><trkpt lat="38.2610727" lon="21.7498937"><ele>26.0</ele><time>2026-04-30T11:11:56.855Z</time></trkpt><trkpt lat="38.261149" lon="21.7499524"><ele>25.999999999999996</ele><time>2026-04-30T11:11:58.856Z</time></trkpt><trkpt lat="38.2612176" lon="21.7499957"><ele>26.0</ele><time>2026-04-30T11:12:00.856Z</time></trkpt><trkpt lat="38.2612844" lon="21.7500411"><ele>26.0</ele><time>2026-04-30T11:12:03.856Z</time></trkpt><trkpt lat="38.2613449" lon="21.750086"><ele>26.0</ele><time>2026-04-30T11:12:05.856Z</time></trkpt><trkpt lat="38.2614433" lon="21.7501617"><ele>25.999999999999996</ele><time>2026-04-30T11:12:07.855Z</time></trkpt><trkpt lat="38.2615147" lon="21.7502236"><ele>26.0</ele><time>2026-04-30T11:12:08.856Z</time></trkpt><trkpt lat="38.2615978" lon="21.7502929"><ele>26.25</ele><time>2026-04-30T11:12:09.855Z</time></trkpt><trkpt lat="38.2617058" lon="21.7503747"><ele>26.5</ele><time>2026-04-30T11:12:10.855Z</time></trkpt><trkpt lat="38.2618365" lon="21.7504659"><ele>26.75</ele><time>2026-04-30T11:12:11.855Z</time></trkpt><trkpt lat="38.2619829" lon="21.7505648"><ele>27.0</ele><time>2026-04-30T11:12:12.855Z</time></trkpt><trkpt lat="38.2621339" lon="21.7506694"><ele>27.0</ele><time>2026-04-30T11:12:13.855Z</time></trkpt><trkpt lat="38.2623051" lon="21.7507932"><ele>27.0</ele><time>2026-04-30T11:12:14.856Z</time></trkpt><trkpt lat="38.262477" lon="21.7509227"><ele>27.0</ele><time>2026-04-30T11:12:15.855Z</time></trkpt><trkpt lat="38.2626496" lon="21.7510536"><ele>27.666666666666664</ele><time>2026-04-30T11:12:16.856Z</time></trkpt><trkpt lat="38.2628211" lon="21.7511857"><ele>28.333333333333332</ele><time>2026-04-30T11:12:17.856Z</time></trkpt><trkpt lat="38.2629895" lon="21.7513156"><ele>29.0</ele><time>2026-04-30T11:12:18.855Z</time></trkpt><trkpt lat="38.2631569" lon="21.7514447"><ele>29.0</ele><time>2026-04-30T11:12:19.856Z</time></trkpt><trkpt lat="38.2633125" lon="21.7515626"><ele>29.0</ele><time>2026-04-30T11:12:20.856Z</time></trkpt><trkpt lat="38.2634771" lon="21.7516851"><ele>29.0</ele><time>2026-04-30T11:12:21.855Z</time></trkpt><trkpt lat="38.2636462" lon="21.7518121"><ele>30.0</ele><time>2026-04-30T11:12:22.855Z</time></trkpt><trkpt lat="38.2638203" lon="21.7519438"><ele>31.0</ele><time>2026-04-30T11:12:23.855Z</time></trkpt><trkpt lat="38.2639977" lon="21.752078"><ele>32.0</ele><time>2026-04-30T11:12:24.856Z</time></trkpt><trkpt lat="38.2641709" lon="21.7522103"><ele>33.666666666666664</ele><time>2026-04-30T11:12:25.855Z</time></trkpt><trkpt lat="38.2643405" lon="21.7523387"><ele>35.333333333333336</ele><time>2026-04-30T11:12:26.856Z</time></trkpt><trkpt lat="38.2645122" lon="21.7524676"><ele>37.0</ele><time>2026-04-30T11:12:27.855Z</time></trkpt><trkpt lat="38.2646721" lon="21.7525875"><ele>37.333333333333336</ele><time>2026-04-30T11:12:28.855Z</time></trkpt><trkpt lat="38.264836" lon="21.7527113"><ele>37.666666666666664</ele><time>2026-04-30T11:12:29.855Z</time></trkpt><trkpt lat="38.2649967" lon="21.7528336"><ele>38.0</ele><time>2026-04-30T11:12:30.856Z</time></trkpt><trkpt lat="38.2651537" lon="21.7529526"><ele>38.0</ele><time>2026-04-30T11:12:31.855Z</time></trkpt><trkpt lat="38.265307" lon="21.753067"><ele>38.0</ele><time>2026-04-30T11:12:32.855Z</time></trkpt><trkpt lat="38.2654522" lon="21.7531763"><ele>38.0</ele><time>2026-04-30T11:12:33.856Z</time></trkpt><trkpt lat="38.265589" lon="21.7532804"><ele>37.75</ele><time>2026-04-30T11:12:34.856Z</time></trkpt><trkpt lat="38.2657236" lon="21.7533828"><ele>37.5</ele><time>2026-04-30T11:12:35.855Z</time></trkpt><trkpt lat="38.2658452" lon="21.7534734"><ele>37.25</ele><time>2026-04-30T11:12:36.856Z</time></trkpt><trkpt lat="38.2659662" lon="21.7535633"><ele>37.0</ele><time>2026-04-30T11:12:37.855Z</time></trkpt><trkpt lat="38.266086" lon="21.753652"><ele>38.0</ele><time>2026-04-30T11:12:38.856Z</time></trkpt><trkpt lat="38.2662023" lon="21.7537397"><ele>39.0</ele><time>2026-04-30T11:12:39.856Z</time></trkpt><trkpt lat="38.2663134" lon="21.7538231"><ele>40.0</ele><time>2026-04-30T11:12:40.856Z</time></trkpt><trkpt lat="38.2664196" lon="21.7539036"><ele>41.0</ele><time>2026-04-30T11:12:41.856Z</time></trkpt><trkpt lat="38.2665259" lon="21.753985"><ele>41.0</ele><time>2026-04-30T11:12:42.856Z</time></trkpt><trkpt lat="38.2666432" lon="21.7540742"><ele>41.0</ele><time>2026-04-30T11:12:43.856Z</time></trkpt><trkpt lat="38.2667624" lon="21.7541659"><ele>41.0</ele><time>2026-04-30T11:12:44.855Z</time></trkpt><trkpt lat="38.2668862" lon="21.7542606"><ele>41.0</ele><time>2026-04-30T11:12:45.855Z</time></trkpt><trkpt lat="38.2670044" lon="21.754351"><ele>41.0</ele><time>2026-04-30T11:12:46.856Z</time></trkpt><trkpt lat="38.2671162" lon="21.7544362"><ele>41.0</ele><time>2026-04-30T11:12:47.855Z</time></trkpt><trkpt lat="38.2672212" lon="21.7545174"><ele>41.0</ele><time>2026-04-30T11:12:48.855Z</time></trkpt><trkpt lat="38.2673205" lon="21.7545924"><ele>41.0</ele><time>2026-04-30T11:12:49.856Z</time></trkpt><trkpt lat="38.2674089" lon="21.7546562"><ele>41.0</ele><time>2026-04-30T11:12:50.856Z</time></trkpt><trkpt lat="38.2674815" lon="21.7547082"><ele>41.0</ele><time>2026-04-30T11:12:51.855Z</time></trkpt><trkpt lat="38.2675712" lon="21.7547729"><ele>41.0</ele><time>2026-04-30T11:12:53.855Z</time></trkpt><trkpt lat="38.267637" lon="21.7548201"><ele>41.0</ele><time>2026-04-30T11:12:57.855Z</time></trkpt><trkpt lat="38.2677432" lon="21.7549005"><ele>41.0</ele><time>2026-04-30T11:13:44.856Z</time></trkpt><trkpt lat="38.2678298" lon="21.754972"><ele>41.0</ele><time>2026-04-30T11:13:45.856Z</time></trkpt><trkpt lat="38.267944" lon="21.7550577"><ele>41.0</ele><time>2026-04-30T11:13:46.856Z</time></trkpt><trkpt lat="38.2680939" lon="21.755169"><ele>41.0</ele><time>2026-04-30T11:13:47.856Z</time></trkpt><trkpt lat="38.2682565" lon="21.7552904"><ele>41.33333333333333</ele><time>2026-04-30T11:13:48.856Z</time></trkpt><trkpt lat="38.2684246" lon="21.7554152"><ele>41.666666666666664</ele><time>2026-04-30T11:13:49.855Z</time></trkpt><trkpt lat="38.2686012" lon="21.7555472"><ele>42.0</ele><time>2026-04-30T11:13:50.855Z</time></trkpt><trkpt lat="38.2688014" lon="21.755701"><ele>40.5</ele><time>2026-04-30T11:13:51.856Z</time></trkpt><trkpt lat="38.2690087" lon="21.7558612"><ele>39.0</ele><time>2026-04-30T11:13:52.855Z</time></trkpt><trkpt lat="38.2692024" lon="21.7560109"><ele>39.0</ele><time>2026-04-30T11:13:53.856Z</time></trkpt><trkpt lat="38.2693817" lon="21.7561497"><ele>39.0</ele><time>2026-04-30T11:13:54.856Z</time></trkpt><trkpt lat="38.2695634" lon="21.7562915"><ele>39.0</ele><time>2026-04-30T11:13:55.856Z</time></trkpt><trkpt lat="38.2697313" lon="21.7564221"><ele>38.333333333333336</ele><time>2026-04-30T11:13:56.856Z</time></trkpt><trkpt lat="38.2698934" lon="21.7565461"><ele>37.66666666666667</ele><time>2026-04-30T11:13:57.855Z</time></trkpt><trkpt lat="38.2700453" lon="21.756662"><ele>37.0</ele><time>2026-04-30T11:13:58.856Z</time></trkpt><trkpt lat="38.270195" lon="21.7567764"><ele>37.66666666666667</ele><time>2026-04-30T11:13:59.856Z</time></trkpt><trkpt lat="38.2703454" lon="21.7568892"><ele>38.333333333333336</ele><time>2026-04-30T11:14:00.856Z</time></trkpt><trkpt lat="38.2704919" lon="21.7569973"><ele>39.0</ele><time>2026-04-30T11:14:01.855Z</time></trkpt><trkpt lat="38.2706466" lon="21.7571146"><ele>37.666666666666664</ele><time>2026-04-30T11:14:02.856Z</time></trkpt><trkpt lat="38.2708324" lon="21.7572538"><ele>36.33333333333333</ele><time>2026-04-30T11:14:03.856Z</time></trkpt><trkpt lat="38.271024" lon="21.7573984"><ele>35.0</ele><time>2026-04-30T11:14:04.855Z</time></trkpt><trkpt lat="38.2712084" lon="21.7575381"><ele>35.0</ele><time>2026-04-30T11:14:05.856Z</time></trkpt><trkpt lat="38.2713763" lon="21.757667"><ele>35.0</ele><time>2026-04-30T11:14:06.855Z</time></trkpt><trkpt lat="38.2715482" lon="21.7577989"><ele>35.0</ele><time>2026-04-30T11:14:07.855Z</time></trkpt><trkpt lat="38.2717269" lon="21.7579354"><ele>35.666666666666664</ele><time>2026-04-30T11:14:08.855Z</time></trkpt><trkpt lat="38.2718948" lon="21.7580647"><ele>36.333333333333336</ele><time>2026-04-30T11:14:09.856Z</time></trkpt><trkpt lat="38.2720497" lon="21.7581863"><ele>37.0</ele><time>2026-04-30T11:14:10.855Z</time></trkpt><trkpt lat="38.2722088" lon="21.7583156"><ele>37.0</ele><time>2026-04-30T11:14:11.856Z</time></trkpt><trkpt lat="38.2723539" lon="21.7584391"><ele>37.0</ele><time>2026-04-30T11:14:12.856Z</time></trkpt><trkpt lat="38.2724892" lon="21.7585604"><ele>37.0</ele><time>2026-04-30T11:14:13.856Z</time></trkpt><trkpt lat="38.2726135" lon="21.7586742"><ele>37.0</ele><time>2026-04-30T11:14:14.856Z</time></trkpt><trkpt lat="38.2727363" lon="21.7587881"><ele>37.0</ele><time>2026-04-30T11:14:15.855Z</time></trkpt><trkpt lat="38.2728598" lon="21.758904"><ele>37.0</ele><time>2026-04-30T11:14:16.856Z</time></trkpt><trkpt lat="38.2729684" lon="21.7590088"><ele>37.0</ele><time>2026-04-30T11:14:17.856Z</time></trkpt><trkpt lat="38.2730737" lon="21.7591142"><ele>36.75</ele><time>2026-04-30T11:14:18.856Z</time></trkpt><trkpt lat="38.2731785" lon="21.7592217"><ele>36.5</ele><time>2026-04-30T11:14:19.855Z</time></trkpt><trkpt lat="38.2732738" lon="21.7593232"><ele>36.25</ele><time>2026-04-30T11:14:20.855Z</time></trkpt><trkpt lat="38.273361" lon="21.7594177"><ele>36.0</ele><time>2026-04-30T11:14:21.856Z</time></trkpt><trkpt lat="38.2734471" lon="21.7595133"><ele>36.0</ele><time>2026-04-30T11:14:22.856Z</time></trkpt><trkpt lat="38.2735346" lon="21.7596082"><ele>36.0</ele><time>2026-04-30T11:14:23.856Z</time></trkpt><trkpt lat="38.2736256" lon="21.7597046"><ele>36.0</ele><time>2026-04-30T11:14:24.856Z</time></trkpt><trkpt lat="38.2737075" lon="21.7597906"><ele>36.0</ele><time>2026-04-30T11:14:25.855Z</time></trkpt><trkpt lat="38.2737904" lon="21.7598785"><ele>36.0</ele><time>2026-04-30T11:14:26.855Z</time></trkpt><trkpt lat="38.2738761" lon="21.7599736"><ele>34.6</ele><time>2026-04-30T11:14:27.856Z</time></trkpt><trkpt lat="38.2739571" lon="21.7600652"><ele>33.2</ele><time>2026-04-30T11:14:28.855Z</time></trkpt><trkpt lat="38.274036" lon="21.7601546"><ele>31.799999999999997</ele><time>2026-04-30T11:14:29.856Z</time></trkpt><trkpt lat="38.2741212" lon="21.7602482"><ele>30.4</ele><time>2026-04-30T11:14:30.856Z</time></trkpt><trkpt lat="38.2742107" lon="21.7603445"><ele>29.0</ele><time>2026-04-30T11:14:31.855Z</time></trkpt><trkpt lat="38.2743063" lon="21.7604488"><ele>29.0</ele><time>2026-04-30T11:14:32.855Z</time></trkpt><trkpt lat="38.2743978" lon="21.7605512"><ele>29.0</ele><time>2026-04-30T11:14:33.855Z</time></trkpt><trkpt lat="38.2744927" lon="21.7606585"><ele>29.0</ele><time>2026-04-30T11:14:34.855Z</time></trkpt><trkpt lat="38.2745906" lon="21.7607691"><ele>29.0</ele><time>2026-04-30T11:14:35.856Z</time></trkpt><trkpt lat="38.274686" lon="21.7608774"><ele>28.5</ele><time>2026-04-30T11:14:36.855Z</time></trkpt><trkpt lat="38.2747792" lon="21.7609848"><ele>28.0</ele><time>2026-04-30T11:14:37.856Z</time></trkpt><trkpt lat="38.2748763" lon="21.7610981"><ele>27.5</ele><time>2026-04-30T11:14:38.856Z</time></trkpt><trkpt lat="38.2749729" lon="21.7612093"><ele>27.0</ele><time>2026-04-30T11:14:39.855Z</time></trkpt><trkpt lat="38.2750731" lon="21.7613229"><ele>27.0</ele><time>2026-04-30T11:14:40.856Z</time></trkpt><trkpt lat="38.2751673" lon="21.7614297"><ele>27.0</ele><time>2026-04-30T11:14:41.856Z</time></trkpt><trkpt lat="38.2752651" lon="21.7615397"><ele>27.0</ele><time>2026-04-30T11:14:42.855Z</time></trkpt><trkpt lat="38.2753658" lon="21.7616505"><ele>27.0</ele><time>2026-04-30T11:14:43.855Z</time></trkpt><trkpt lat="38.2754619" lon="21.7617558"><ele>27.0</ele><time>2026-04-30T11:14:44.856Z</time></trkpt><trkpt lat="38.2755527" lon="21.7618576"><ele>27.0</ele><time>2026-04-30T11:14:45.856Z</time></trkpt><trkpt lat="38.2756463" lon="21.7619631"><ele>27.0</ele><time>2026-04-30T11:14:46.855Z</time></trkpt><trkpt lat="38.2757393" lon="21.7620678"><ele>27.0</ele><time>2026-04-30T11:14:47.856Z</time></trkpt><trkpt lat="38.2758356" lon="21.7621752"><ele>26.75</ele><time>2026-04-30T11:14:48.855Z</time></trkpt><trkpt lat="38.2759269" lon="21.7622766"><ele>26.5</ele><time>2026-04-30T11:14:49.855Z</time></trkpt><trkpt lat="38.2760222" lon="21.7623809"><ele>26.25</ele><time>2026-04-30T11:14:50.856Z</time></trkpt><trkpt lat="38.2761217" lon="21.7624871"><ele>26.0</ele><time>2026-04-30T11:14:51.855Z</time></trkpt><trkpt lat="38.2762165" lon="21.7625905"><ele>26.0</ele><time>2026-04-30T11:14:52.855Z</time></trkpt><trkpt lat="38.2763053" lon="21.7626883"><ele>26.0</ele><time>2026-04-30T11:14:53.855Z</time></trkpt><trkpt lat="38.2763922" lon="21.7627834"><ele>26.0</ele><time>2026-04-30T11:14:54.855Z</time></trkpt><trkpt lat="38.276474" lon="21.7628719"><ele>26.0</ele><time>2026-04-30T11:14:55.855Z</time></trkpt><trkpt lat="38.2765521" lon="21.7629567"><ele>26.0</ele><time>2026-04-30T11:14:56.855Z</time></trkpt><trkpt lat="38.2766182" lon="21.7630304"><ele>26.0</ele><time>2026-04-30T11:14:57.855Z</time></trkpt><trkpt lat="38.276679" lon="21.7630991"><ele>26.0</ele><time>2026-04-30T11:14:58.856Z</time></trkpt><trkpt lat="38.276735" lon="21.7631644"><ele>26.0</ele><time>2026-04-30T11:14:59.856Z</time></trkpt><trkpt lat="38.2767861" lon="21.7632207"><ele>26.0</ele><time>2026-04-30T11:15:00.856Z</time></trkpt><trkpt lat="38.2768339" lon="21.7632734"><ele>26.0</ele><time>2026-04-30T11:15:01.855Z</time></trkpt><trkpt lat="38.2768835" lon="21.763329"><ele>26.0</ele><time>2026-04-30T11:15:02.855Z</time></trkpt><trkpt lat="38.2769329" lon="21.7633828"><ele>26.0</ele><time>2026-04-30T11:15:03.856Z</time></trkpt><trkpt lat="38.2770167" lon="21.7634697"><ele>25.999999999999996</ele><time>2026-04-30T11:15:05.855Z</time></trkpt><trkpt lat="38.2770686" lon="21.763522"><ele>26.0</ele><time>2026-04-30T11:15:07.856Z</time></trkpt><trkpt lat="38.2771437" lon="21.7636032"><ele>26.0</ele><time>2026-04-30T11:15:30.856Z</time></trkpt><trkpt lat="38.2771973" lon="21.763656"><ele>26.0</ele><time>2026-04-30T11:15:31.856Z</time></trkpt><trkpt lat="38.2772572" lon="21.7637122"><ele>25.999999999999996</ele><time>2026-04-30T11:15:32.856Z</time></trkpt><trkpt lat="38.2773205" lon="21.7637682"><ele>26.0</ele><time>2026-04-30T11:15:33.856Z</time></trkpt><trkpt lat="38.2773814" lon="21.7638271"><ele>25.499999999999996</ele><time>2026-04-30T11:15:34.855Z</time></trkpt><trkpt lat="38.2774385" lon="21.7638871"><ele>25.0</ele><time>2026-04-30T11:15:35.856Z</time></trkpt><trkpt lat="38.277494" lon="21.7639504"><ele>24.5</ele><time>2026-04-30T11:15:36.856Z</time></trkpt><trkpt lat="38.2775525" lon="21.764019"><ele>24.0</ele><time>2026-04-30T11:15:37.856Z</time></trkpt><trkpt lat="38.277615" lon="21.7640925"><ele>23.5</ele><time>2026-04-30T11:15:38.856Z</time></trkpt><trkpt lat="38.2776816" lon="21.7641704"><ele>23.0</ele><time>2026-04-30T11:15:39.856Z</time></trkpt><trkpt lat="38.2777432" lon="21.7642404"><ele>23.0</ele><time>2026-04-30T11:15:40.856Z</time></trkpt><trkpt lat="38.2778057" lon="21.7643104"><ele>23.0</ele><time>2026-04-30T11:15:41.856Z</time></trkpt><trkpt lat="38.2778654" lon="21.7643766"><ele>23.0</ele><time>2026-04-30T11:15:42.855Z</time></trkpt><trkpt lat="38.2779208" lon="21.764437"><ele>23.0</ele><time>2026-04-30T11:15:43.855Z</time></trkpt><trkpt lat="38.2779706" lon="21.7644919"><ele>23.0</ele><time>2026-04-30T11:15:44.855Z</time></trkpt><trkpt lat="38.2780176" lon="21.7645479"><ele>23.0</ele><time>2026-04-30T11:15:45.855Z</time></trkpt><trkpt lat="38.2780667" lon="21.7646038"><ele>23.0</ele><time>2026-04-30T11:15:46.856Z</time></trkpt><trkpt lat="38.2781213" lon="21.7646617"><ele>23.0</ele><time>2026-04-30T11:15:47.856Z</time></trkpt><trkpt lat="38.2782156" lon="21.7647617"><ele>23.0</ele><time>2026-04-30T11:15:49.856Z</time></trkpt><trkpt lat="38.2783028" lon="21.7648563"><ele>23.0</ele><time>2026-04-30T11:15:51.855Z</time></trkpt><trkpt lat="38.2783539" lon="21.7649114"><ele>23.0</ele><time>2026-04-30T11:15:52.855Z</time></trkpt><trkpt lat="38.2784089" lon="21.7649735"><ele>23.0</ele><time>2026-04-30T11:15:53.856Z</time></trkpt><trkpt lat="38.27847" lon="21.7650427"><ele>23.0</ele><time>2026-04-30T11:15:54.855Z</time></trkpt><trkpt lat="38.2785398" lon="21.7651235"><ele>23.0</ele><time>2026-04-30T11:15:55.855Z</time></trkpt><trkpt lat="38.2786158" lon="21.7652093"><ele>23.0</ele><time>2026-04-30T11:15:56.856Z</time></trkpt><trkpt lat="38.2786988" lon="21.7653026"><ele>23.0</ele><time>2026-04-30T11:15:57.856Z</time></trkpt><trkpt lat="38.2787833" lon="21.7653989"><ele>23.0</ele><time>2026-04-30T11:15:58.856Z</time></trkpt><trkpt lat="38.2788689" lon="21.7654946"><ele>22.5</ele><time>2026-04-30T11:15:59.855Z</time></trkpt><trkpt lat="38.2789546" lon="21.7655896"><ele>22.0</ele><time>2026-04-30T11:16:00.856Z</time></trkpt><trkpt lat="38.2790413" lon="21.7656855"><ele>21.5</ele><time>2026-04-30T11:16:01.856Z</time></trkpt><trkpt lat="38.2791296" lon="21.765782"><ele>21.0</ele><time>2026-04-30T11:16:02.855Z</time></trkpt><trkpt lat="38.2792212" lon="21.7658827"><ele>21.0</ele><time>2026-04-30T11:16:03.855Z</time></trkpt><trkpt lat="38.2793055" lon="21.7659759"><ele>21.0</ele><time>2026-04-30T11:16:04.856Z</time></trkpt><trkpt lat="38.279391" lon="21.7660704"><ele>21.0</ele><time>2026-04-30T11:16:05.855Z</time></trkpt><trkpt lat="38.2794751" lon="21.7661635"><ele>21.0</ele><time>2026-04-30T11:16:06.856Z</time></trkpt><trkpt lat="38.2795608" lon="21.7662576"><ele>21.0</ele><time>2026-04-30T11:16:07.856Z</time></trkpt><trkpt lat="38.2796488" lon="21.7663544"><ele>21.0</ele><time>2026-04-30T11:16:08.856Z</time></trkpt><trkpt lat="38.2797391" lon="21.7664532"><ele>21.0</ele><time>2026-04-30T11:16:09.856Z</time></trkpt><trkpt lat="38.2798309" lon="21.766554"><ele>21.0</ele><time>2026-04-30T11:16:10.856Z</time></trkpt><trkpt lat="38.2799271" lon="21.7666609"><ele>21.0</ele><time>2026-04-30T11:16:11.855Z</time></trkpt><trkpt lat="38.2800186" lon="21.7667601"><ele>20.5</ele><time>2026-04-30T11:16:12.856Z</time></trkpt><trkpt lat="38.2801119" lon="21.7668581"><ele>20.0</ele><time>2026-04-30T11:16:13.856Z</time></trkpt><trkpt lat="38.2802023" lon="21.7669507"><ele>19.5</ele><time>2026-04-30T11:16:14.856Z</time></trkpt><trkpt lat="38.2802905" lon="21.7670405"><ele>19.0</ele><time>2026-04-30T11:16:15.856Z</time></trkpt><trkpt lat="38.2803758" lon="21.767127"><ele>19.0</ele><time>2026-04-30T11:16:16.856Z</time></trkpt><trkpt lat="38.2804553" lon="21.7672088"><ele>19.0</ele><time>2026-04-30T11:16:17.856Z</time></trkpt><trkpt lat="38.2805275" lon="21.767285"><ele>19.0</ele><time>2026-04-30T11:16:18.855Z</time></trkpt><trkpt lat="38.2805959" lon="21.7673578"><ele>19.0</ele><time>2026-04-30T11:16:19.856Z</time></trkpt><trkpt lat="38.2806536" lon="21.7674187"><ele>19.0</ele><time>2026-04-30T11:16:20.856Z</time></trkpt><trkpt lat="38.280708" lon="21.7674775"><ele>19.0</ele><time>2026-04-30T11:16:21.855Z</time></trkpt><trkpt lat="38.2807601" lon="21.7675339"><ele>18.8</ele><time>2026-04-30T11:16:22.855Z</time></trkpt><trkpt lat="38.2808495" lon="21.7676337"><ele>18.599999999999998</ele><time>2026-04-30T11:16:24.856Z</time></trkpt><trkpt lat="38.2809074" lon="21.7677042"><ele>18.4</ele><time>2026-04-30T11:16:26.855Z</time></trkpt><trkpt lat="38.2809659" lon="21.7677672"><ele>18.2</ele><time>2026-04-30T11:16:50.856Z</time></trkpt><trkpt lat="38.2810375" lon="21.7678498"><ele>18.0</ele><time>2026-04-30T11:16:52.855Z</time></trkpt><trkpt lat="38.2811215" lon="21.7679505"><ele>18.8</ele><time>2026-04-30T11:16:54.856Z</time></trkpt><trkpt lat="38.2812108" lon="21.7680179"><ele>19.6</ele><time>2026-04-30T11:16:56.856Z</time></trkpt><trkpt lat="38.281314" lon="21.7679994"><ele>20.400000000000002</ele><time>2026-04-30T11:16:58.856Z</time></trkpt><trkpt lat="38.2813948" lon="21.767902"><ele>21.200000000000003</ele><time>2026-04-30T11:17:00.856Z</time></trkpt><trkpt lat="38.2814548" lon="21.7678041"><ele>22.0</ele><time>2026-04-30T11:17:02.856Z</time></trkpt><trkpt lat="38.2815108" lon="21.7677054"><ele>21.6</ele><time>2026-04-30T11:17:04.856Z</time></trkpt><trkpt lat="38.281565" lon="21.7676069"><ele>21.200000000000003</ele><time>2026-04-30T11:17:06.856Z</time></trkpt><trkpt lat="38.2816154" lon="21.7675141"><ele>20.8</ele><time>2026-04-30T11:17:08.855Z</time></trkpt><trkpt lat="38.2816625" lon="21.7674327"><ele>20.4</ele><time>2026-04-30T11:17:10.856Z</time></trkpt><trkpt lat="38.2817173" lon="21.7673343"><ele>20.0</ele><time>2026-04-30T11:17:12.856Z</time></trkpt><trkpt lat="38.281787" lon="21.7672132"><ele>20.0</ele><time>2026-04-30T11:17:14.856Z</time></trkpt><trkpt lat="38.2818275" lon="21.767141"><ele>20.0</ele><time>2026-04-30T11:17:15.856Z</time></trkpt><trkpt lat="38.2818695" lon="21.7670667"><ele>20.0</ele><time>2026-04-30T11:17:16.855Z</time></trkpt><trkpt lat="38.2819121" lon="21.7669916"><ele>20.0</ele><time>2026-04-30T11:17:17.856Z</time></trkpt><trkpt lat="38.281957" lon="21.7669141"><ele>20.0</ele><time>2026-04-30T11:17:18.856Z</time></trkpt><trkpt lat="38.2820021" lon="21.7668377"><ele>20.0</ele><time>2026-04-30T11:17:19.855Z</time></trkpt><trkpt lat="38.282048" lon="21.7667587"><ele>20.0</ele><time>2026-04-30T11:17:20.856Z</time></trkpt><trkpt lat="38.2820891" lon="21.7666859"><ele>19.6</ele><time>2026-04-30T11:17:21.855Z</time></trkpt><trkpt lat="38.2821289" lon="21.7666187"><ele>19.2</ele><time>2026-04-30T11:17:22.856Z</time></trkpt><trkpt lat="38.2822019" lon="21.7664972"><ele>18.8</ele><time>2026-04-30T11:17:24.856Z</time></trkpt><trkpt lat="38.2822706" lon="21.7663805"><ele>18.4</ele><time>2026-04-30T11:17:26.855Z</time></trkpt><trkpt lat="38.2823226" lon="21.7662906"><ele>18.0</ele><time>2026-04-30T11:17:28.855Z</time></trkpt><trkpt lat="38.282367" lon="21.7662134"><ele>17.571428571428573</ele><time>2026-04-30T11:17:30.856Z</time></trkpt><trkpt lat="38.2824096" lon="21.766151"><ele>17.142857142857142</ele><time>2026-04-30T11:17:32.855Z</time></trkpt><trkpt lat="38.2824659" lon="21.7660626"><ele>16.714285714285715</ele><time>2026-04-30T11:17:35.855Z</time></trkpt><trkpt lat="38.2825181" lon="21.765985"><ele>16.285714285714285</ele><time>2026-04-30T11:17:38.856Z</time></trkpt><trkpt lat="38.2825606" lon="21.7659117"><ele>15.857142857142858</ele><time>2026-04-30T11:17:41.855Z</time></trkpt><trkpt lat="38.2826" lon="21.7658486"><ele>15.428571428571429</ele><time>2026-04-30T11:17:44.855Z</time></trkpt><trkpt lat="38.2826424" lon="21.7657861"><ele>15.0</ele><time>2026-04-30T11:18:14.855Z</time></trkpt><trkpt lat="38.2826853" lon="21.7657088"><ele>15.0</ele><time>2026-04-30T11:18:16.856Z</time></trkpt><trkpt lat="38.2827374" lon="21.765614"><ele>15.0</ele><time>2026-04-30T11:18:18.855Z</time></trkpt><trkpt lat="38.2827869" lon="21.7655368"><ele>15.0</ele><time>2026-04-30T11:18:20.855Z</time></trkpt><trkpt lat="38.2828798" lon="21.7655246"><ele>15.0</ele><time>2026-04-30T11:18:22.855Z</time></trkpt><trkpt lat="38.2829397" lon="21.765554"><ele>15.0</ele><time>2026-04-30T11:18:23.856Z</time></trkpt><trkpt lat="38.2830023" lon="21.7655902"><ele>15.0</ele><time>2026-04-30T11:18:24.856Z</time></trkpt><trkpt lat="38.2830654" lon="21.7656315"><ele>15.4</ele><time>2026-04-30T11:18:25.856Z</time></trkpt><trkpt lat="38.2831477" lon="21.7656622"><ele>15.8</ele><time>2026-04-30T11:18:26.855Z</time></trkpt><trkpt lat="38.2832313" lon="21.7657067"><ele>16.2</ele><time>2026-04-30T11:18:27.855Z</time></trkpt><trkpt lat="38.2833191" lon="21.7657515"><ele>16.6</ele><time>2026-04-30T11:18:28.855Z</time></trkpt><trkpt lat="38.2834102" lon="21.7658058"><ele>17.0</ele><time>2026-04-30T11:18:29.855Z</time></trkpt><trkpt lat="38.2835098" lon="21.7658586"><ele>17.0</ele><time>2026-04-30T11:18:30.856Z</time></trkpt><trkpt lat="38.2836083" lon="21.7659048"><ele>17.0</ele><time>2026-04-30T11:18:31.855Z</time></trkpt><trkpt lat="38.2837046" lon="21.7659596"><ele>17.0</ele><time>2026-04-30T11:18:32.855Z</time></trkpt><trkpt lat="38.2838026" lon="21.7660112"><ele>17.0</ele><time>2026-04-30T11:18:33.855Z</time></trkpt><trkpt lat="38.283902" lon="21.7660674"><ele>17.0</ele><time>2026-04-30T11:18:34.856Z</time></trkpt><trkpt lat="38.2840047" lon="21.7661249"><ele>15.75</ele><time>2026-04-30T11:18:35.855Z</time></trkpt><trkpt lat="38.2841026" lon="21.7661789"><ele>14.5</ele><time>2026-04-30T11:18:36.855Z</time></trkpt><trkpt lat="38.2842066" lon="21.7662359"><ele>13.25</ele><time>2026-04-30T11:18:37.855Z</time></trkpt><trkpt lat="38.2843134" lon="21.7662925"><ele>12.0</ele><time>2026-04-30T11:18:38.856Z</time></trkpt><trkpt lat="38.2844231" lon="21.7663514"><ele>12.0</ele><time>2026-04-30T11:18:39.855Z</time></trkpt><trkpt lat="38.284534" lon="21.7664128"><ele>12.0</ele><time>2026-04-30T11:18:40.856Z</time></trkpt><trkpt lat="38.284645" lon="21.7664747"><ele>12.0</ele><time>2026-04-30T11:18:41.855Z</time></trkpt><trkpt lat="38.2847542" lon="21.7665341"><ele>12.0</ele><time>2026-04-30T11:18:42.856Z</time></trkpt><trkpt lat="38.2848647" lon="21.7665932"><ele>12.25</ele><time>2026-04-30T11:18:43.856Z</time></trkpt><trkpt lat="38.2849676" lon="21.7666497"><ele>12.5</ele><time>2026-04-30T11:18:44.855Z</time></trkpt><trkpt lat="38.2850757" lon="21.7667081"><ele>12.75</ele><time>2026-04-30T11:18:45.855Z</time></trkpt><trkpt lat="38.2851854" lon="21.7667683"><ele>13.0</ele><time>2026-04-30T11:18:46.855Z</time></trkpt><trkpt lat="38.2853001" lon="21.7668306"><ele>13.0</ele><time>2026-04-30T11:18:47.855Z</time></trkpt><trkpt lat="38.285419" lon="21.7668967"><ele>13.0</ele><time>2026-04-30T11:18:48.856Z</time></trkpt><trkpt lat="38.2855447" lon="21.7669663"><ele>13.0</ele><time>2026-04-30T11:18:49.855Z</time></trkpt><trkpt lat="38.2856709" lon="21.7670362"><ele>13.0</ele><time>2026-04-30T11:18:50.855Z</time></trkpt><trkpt lat="38.2858009" lon="21.7671111"><ele>13.0</ele><time>2026-04-30T11:18:51.855Z</time></trkpt><trkpt lat="38.2859252" lon="21.7671797"><ele>13.0</ele><time>2026-04-30T11:18:52.855Z</time></trkpt><trkpt lat="38.2860563" lon="21.7672508"><ele>13.0</ele><time>2026-04-30T11:18:53.855Z</time></trkpt><trkpt lat="38.2861913" lon="21.7673244"><ele>13.0</ele><time>2026-04-30T11:18:54.855Z</time></trkpt><trkpt lat="38.2863276" lon="21.7674009"><ele>13.333333333333332</ele><time>2026-04-30T11:18:55.856Z</time></trkpt><trkpt lat="38.2864656" lon="21.7674788"><ele>13.666666666666668</ele><time>2026-04-30T11:18:56.856Z</time></trkpt><trkpt lat="38.2866046" lon="21.7675567"><ele>14.0</ele><time>2026-04-30T11:18:57.856Z</time></trkpt><trkpt lat="38.2867444" lon="21.7676392"><ele>15.0</ele><time>2026-04-30T11:18:58.855Z</time></trkpt><trkpt lat="38.2868904" lon="21.7677272"><ele>16.0</ele><time>2026-04-30T11:18:59.856Z</time></trkpt><trkpt lat="38.2870295" lon="21.7678107"><ele>17.0</ele><time>2026-04-30T11:19:00.855Z</time></trkpt><trkpt lat="38.2871771" lon="21.7678969"><ele>16.333333333333336</ele><time>2026-04-30T11:19:01.855Z</time></trkpt><trkpt lat="38.2873267" lon="21.7679835"><ele>15.666666666666668</ele><time>2026-04-30T11:19:02.856Z</time></trkpt><trkpt lat="38.2874762" lon="21.7680708"><ele>15.0</ele><time>2026-04-30T11:19:03.855Z</time></trkpt><trkpt lat="38.287623" lon="21.7681617"><ele>15.0</ele><time>2026-04-30T11:19:04.856Z</time></trkpt><trkpt lat="38.2877675" lon="21.7682554"><ele>15.0</ele><time>2026-04-30T11:19:05.856Z</time></trkpt><trkpt lat="38.2879067" lon="21.768352"><ele>15.0</ele><time>2026-04-30T11:19:06.856Z</time></trkpt><trkpt lat="38.2880495" lon="21.7684611"><ele>15.333333333333332</ele><time>2026-04-30T11:19:07.856Z</time></trkpt><trkpt lat="38.2881861" lon="21.7685711"><ele>15.666666666666666</ele><time>2026-04-30T11:19:08.856Z</time></trkpt><trkpt lat="38.2883297" lon="21.7686913"><ele>16.0</ele><time>2026-04-30T11:19:09.856Z</time></trkpt><trkpt lat="38.2884767" lon="21.7688159"><ele>16.0</ele><time>2026-04-30T11:19:10.855Z</time></trkpt><trkpt lat="38.2886242" lon="21.7689423"><ele>16.0</ele><time>2026-04-30T11:19:11.856Z</time></trkpt><trkpt lat="38.2887722" lon="21.7690676"><ele>16.0</ele><time>2026-04-30T11:19:12.855Z</time></trkpt><trkpt lat="38.288921" lon="21.7691913"><ele>16.0</ele><time>2026-04-30T11:19:13.855Z</time></trkpt><trkpt lat="38.289069" lon="21.769314"><ele>16.0</ele><time>2026-04-30T11:19:14.856Z</time></trkpt><trkpt lat="38.2892175" lon="21.7694376"><ele>16.0</ele><time>2026-04-30T11:19:15.855Z</time></trkpt><trkpt lat="38.2893634" lon="21.7695593"><ele>16.0</ele><time>2026-04-30T11:19:16.855Z</time></trkpt><trkpt lat="38.2895067" lon="21.7696806"><ele>16.0</ele><time>2026-04-30T11:19:17.856Z</time></trkpt><trkpt lat="38.289648" lon="21.7698022"><ele>16.0</ele><time>2026-04-30T11:19:18.855Z</time></trkpt><trkpt lat="38.2897813" lon="21.7699197"><ele>15.666666666666666</ele><time>2026-04-30T11:19:19.855Z</time></trkpt><trkpt lat="38.2899196" lon="21.7700416"><ele>15.333333333333332</ele><time>2026-04-30T11:19:20.856Z</time></trkpt><trkpt lat="38.2900488" lon="21.7701554"><ele>15.0</ele><time>2026-04-30T11:19:21.856Z</time></trkpt><trkpt lat="38.2901717" lon="21.7702635"><ele>15.0</ele><time>2026-04-30T11:19:22.856Z</time></trkpt><trkpt lat="38.2903048" lon="21.7703775"><ele>15.0</ele><time>2026-04-30T11:19:23.856Z</time></trkpt><trkpt lat="38.2904356" lon="21.7704888"><ele>15.0</ele><time>2026-04-30T11:19:24.856Z</time></trkpt><trkpt lat="38.2905672" lon="21.7706015"><ele>14.333333333333332</ele><time>2026-04-30T11:19:25.855Z</time></trkpt><trkpt lat="38.2907019" lon="21.7707185"><ele>13.666666666666666</ele><time>2026-04-30T11:19:26.856Z</time></trkpt><trkpt lat="38.2908398" lon="21.7708374"><ele>13.0</ele><time>2026-04-30T11:19:27.856Z</time></trkpt><trkpt lat="38.2909793" lon="21.7709556"><ele>13.666666666666666</ele><time>2026-04-30T11:19:28.856Z</time></trkpt><trkpt lat="38.2911199" lon="21.7710749"><ele>14.333333333333332</ele><time>2026-04-30T11:19:29.856Z</time></trkpt><trkpt lat="38.2912545" lon="21.771191"><ele>15.0</ele><time>2026-04-30T11:19:30.855Z</time></trkpt><trkpt lat="38.2914003" lon="21.7713168"><ele>14.666666666666668</ele><time>2026-04-30T11:19:31.855Z</time></trkpt><trkpt lat="38.2915448" lon="21.7714409"><ele>14.333333333333334</ele><time>2026-04-30T11:19:32.855Z</time></trkpt><trkpt lat="38.2916931" lon="21.7715654"><ele>14.0</ele><time>2026-04-30T11:19:33.855Z</time></trkpt><trkpt lat="38.291845" lon="21.7716892"><ele>14.0</ele><time>2026-04-30T11:19:34.855Z</time></trkpt><trkpt lat="38.2919922" lon="21.7718091"><ele>14.0</ele><time>2026-04-30T11:19:35.855Z</time></trkpt><trkpt lat="38.292145" lon="21.7719349"><ele>14.0</ele><time>2026-04-30T11:19:36.856Z</time></trkpt><trkpt lat="38.2922863" lon="21.7720534"><ele>14.0</ele><time>2026-04-30T11:19:37.856Z</time></trkpt><trkpt lat="38.2924191" lon="21.7721635"><ele>14.0</ele><time>2026-04-30T11:19:38.855Z</time></trkpt><trkpt lat="38.2925608" lon="21.7722796"><ele>14.0</ele><time>2026-04-30T11:19:39.856Z</time></trkpt><trkpt lat="38.2926994" lon="21.7723927"><ele>14.0</ele><time>2026-04-30T11:19:40.855Z</time></trkpt><trkpt lat="38.292839" lon="21.7725077"><ele>14.0</ele><time>2026-04-30T11:19:41.855Z</time></trkpt><trkpt lat="38.2929798" lon="21.7726242"><ele>14.0</ele><time>2026-04-30T11:19:42.855Z</time></trkpt><trkpt lat="38.2931163" lon="21.7727386"><ele>13.666666666666668</ele><time>2026-04-30T11:19:43.855Z</time></trkpt><trkpt lat="38.2932611" lon="21.7728619"><ele>13.333333333333332</ele><time>2026-04-30T11:19:44.856Z</time></trkpt><trkpt lat="38.2933988" lon="21.7729826"><ele>13.0</ele><time>2026-04-30T11:19:45.856Z</time></trkpt><trkpt lat="38.2935277" lon="21.7730999"><ele>13.0</ele><time>2026-04-30T11:19:46.855Z</time></trkpt><trkpt lat="38.2936615" lon="21.7732272"><ele>13.0</ele><time>2026-04-30T11:19:47.855Z</time></trkpt><trkpt lat="38.2937876" lon="21.7733556"><ele>13.0</ele><time>2026-04-30T11:19:48.856Z</time></trkpt><trkpt lat="38.2939077" lon="21.7734906"><ele>13.0</ele><time>2026-04-30T11:19:49.856Z</time></trkpt><trkpt lat="38.2940232" lon="21.773632"><ele>13.0</ele><time>2026-04-30T11:19:50.856Z</time></trkpt><trkpt lat="38.2941331" lon="21.773772"><ele>13.0</ele><time>2026-04-30T11:19:51.855Z</time></trkpt><trkpt lat="38.2942503" lon="21.7739225"><ele>13.0</ele><time>2026-04-30T11:19:52.856Z</time></trkpt><trkpt lat="38.294364" lon="21.7740706"><ele>13.0</ele><time>2026-04-30T11:19:53.856Z</time></trkpt><trkpt lat="38.2944748" lon="21.7742158"><ele>13.0</ele><time>2026-04-30T11:19:54.856Z</time></trkpt><trkpt lat="38.2945936" lon="21.7743717"><ele>13.666666666666666</ele><time>2026-04-30T11:19:55.855Z</time></trkpt><trkpt lat="38.2947106" lon="21.7745243"><ele>14.333333333333332</ele><time>2026-04-30T11:19:56.855Z</time></trkpt><trkpt lat="38.2948284" lon="21.7746792"><ele>15.0</ele><time>2026-04-30T11:19:57.856Z</time></trkpt><trkpt lat="38.2949457" lon="21.7748333"><ele>15.0</ele><time>2026-04-30T11:19:58.856Z</time></trkpt><trkpt lat="38.2950555" lon="21.7749759"><ele>15.0</ele><time>2026-04-30T11:19:59.855Z</time></trkpt><trkpt lat="38.29517" lon="21.7751178"><ele>15.0</ele><time>2026-04-30T11:20:00.856Z</time></trkpt><trkpt lat="38.295282" lon="21.7752461"><ele>15.0</ele><time>2026-04-30T11:20:01.856Z</time></trkpt><trkpt lat="38.2953907" lon="21.7753589"><ele>15.0</ele><time>2026-04-30T11:20:02.855Z</time></trkpt><trkpt lat="38.2955032" lon="21.7754698"><ele>15.0</ele><time>2026-04-30T11:20:03.856Z</time></trkpt><trkpt lat="38.2956012" lon="21.7755672"><ele>15.0</ele><time>2026-04-30T11:20:04.856Z</time></trkpt><trkpt lat="38.295686" lon="21.775654"><ele>15.0</ele><time>2026-04-30T11:20:05.855Z</time></trkpt><trkpt lat="38.2957648" lon="21.7757342"><ele>15.0</ele><time>2026-04-30T11:20:06.855Z</time></trkpt><trkpt lat="38.2958462" lon="21.7758066"><ele>15.0</ele><time>2026-04-30T11:20:07.855Z</time></trkpt><trkpt lat="38.2959332" lon="21.7758732"><ele>15.0</ele><time>2026-04-30T11:20:08.856Z</time></trkpt><trkpt lat="38.2960134" lon="21.7759316"><ele>15.0</ele><time>2026-04-30T11:20:09.856Z</time></trkpt><trkpt lat="38.2960922" lon="21.7759877"><ele>15.2</ele><time>2026-04-30T11:20:10.855Z</time></trkpt><trkpt lat="38.2961761" lon="21.7760509"><ele>15.4</ele><time>2026-04-30T11:20:11.856Z</time></trkpt><trkpt lat="38.2962593" lon="21.7761162"><ele>15.600000000000001</ele><time>2026-04-30T11:20:12.856Z</time></trkpt><trkpt lat="38.2963476" lon="21.776185"><ele>15.8</ele><time>2026-04-30T11:20:13.856Z</time></trkpt><trkpt lat="38.2964353" lon="21.7762508"><ele>16.0</ele><time>2026-04-30T11:20:14.855Z</time></trkpt><trkpt lat="38.2965186" lon="21.7763135"><ele>16.0</ele><time>2026-04-30T11:20:15.855Z</time></trkpt><trkpt lat="38.296605" lon="21.7763776"><ele>16.0</ele><time>2026-04-30T11:20:16.855Z</time></trkpt><trkpt lat="38.2966921" lon="21.7764406"><ele>16.0</ele><time>2026-04-30T11:20:17.855Z</time></trkpt><trkpt lat="38.296778" lon="21.7765021"><ele>16.0</ele><time>2026-04-30T11:20:18.856Z</time></trkpt><trkpt lat="38.2968632" lon="21.7765622"><ele>16.0</ele><time>2026-04-30T11:20:19.856Z</time></trkpt><trkpt lat="38.2969353" lon="21.776613"><ele>16.0</ele><time>2026-04-30T11:20:20.856Z</time></trkpt><trkpt lat="38.2970007" lon="21.7766591"><ele>15.999999999999998</ele><time>2026-04-30T11:20:21.855Z</time></trkpt><trkpt lat="38.29706" lon="21.7767026"><ele>16.0</ele><time>2026-04-30T11:20:22.856Z</time></trkpt><trkpt lat="38.2971207" lon="21.7767471"><ele>16.0</ele><time>2026-04-30T11:20:23.855Z</time></trkpt><trkpt lat="38.2971849" lon="21.7767933"><ele>15.999999999999998</ele><time>2026-04-30T11:20:24.855Z</time></trkpt><trkpt lat="38.2972548" lon="21.7768422"><ele>16.0</ele><time>2026-04-30T11:20:25.855Z</time></trkpt><trkpt lat="38.2973259" lon="21.7768905"><ele>16.0</ele><time>2026-04-30T11:20:26.856Z</time></trkpt><trkpt lat="38.2973919" lon="21.7769379"><ele>16.142857142857142</ele><time>2026-04-30T11:20:27.855Z</time></trkpt><trkpt lat="38.2974482" lon="21.7769796"><ele>16.285714285714285</ele><time>2026-04-30T11:20:28.856Z</time></trkpt><trkpt lat="38.2975062" lon="21.7770228"><ele>16.428571428571427</ele><time>2026-04-30T11:20:29.855Z</time></trkpt><trkpt lat="38.2975643" lon="21.7770663"><ele>16.57142857142857</ele><time>2026-04-30T11:20:30.856Z</time></trkpt><trkpt lat="38.2976234" lon="21.7771092"><ele>16.714285714285715</ele><time>2026-04-30T11:20:31.856Z</time></trkpt><trkpt lat="38.2976782" lon="21.7771488"><ele>16.857142857142854</ele><time>2026-04-30T11:20:32.855Z</time></trkpt><trkpt lat="38.2977483" lon="21.7771989"><ele>17.0</ele><time>2026-04-30T11:20:34.855Z</time></trkpt><trkpt lat="38.2978172" lon="21.7772481"><ele>17.0</ele><time>2026-04-30T11:20:37.855Z</time></trkpt><trkpt lat="38.2978987" lon="21.7773024"><ele>17.0</ele><time>2026-04-30T11:20:40.856Z</time></trkpt><trkpt lat="38.2979797" lon="21.7773615"><ele>17.0</ele><time>2026-04-30T11:20:42.855Z</time></trkpt><trkpt lat="38.2980694" lon="21.7774257"><ele>17.0</ele><time>2026-04-30T11:20:44.856Z</time></trkpt><trkpt lat="38.2981618" lon="21.7774881"><ele>17.0</ele><time>2026-04-30T11:20:46.855Z</time></trkpt><trkpt lat="38.298269" lon="21.7775627"><ele>16.666666666666668</ele><time>2026-04-30T11:20:48.856Z</time></trkpt><trkpt lat="38.2983299" lon="21.777604"><ele>16.333333333333336</ele><time>2026-04-30T11:20:49.855Z</time></trkpt><trkpt lat="38.2984024" lon="21.7776506"><ele>16.0</ele><time>2026-04-30T11:20:50.856Z</time></trkpt><trkpt lat="38.2984847" lon="21.7777099"><ele>15.666666666666668</ele><time>2026-04-30T11:20:51.856Z</time></trkpt><trkpt lat="38.2985672" lon="21.777779"><ele>15.333333333333334</ele><time>2026-04-30T11:20:52.855Z</time></trkpt><trkpt lat="38.2986467" lon="21.7778522"><ele>15.0</ele><time>2026-04-30T11:20:53.856Z</time></trkpt><trkpt lat="38.2987263" lon="21.7779299"><ele>15.166666666666666</ele><time>2026-04-30T11:20:54.855Z</time></trkpt><trkpt lat="38.2987993" lon="21.7780059"><ele>15.333333333333332</ele><time>2026-04-30T11:20:55.855Z</time></trkpt><trkpt lat="38.2988669" lon="21.7780794"><ele>15.5</ele><time>2026-04-30T11:20:56.855Z</time></trkpt><trkpt lat="38.2989257" lon="21.7781447"><ele>15.666666666666666</ele><time>2026-04-30T11:20:57.855Z</time></trkpt><trkpt lat="38.298984" lon="21.778208"><ele>15.833333333333332</ele><time>2026-04-30T11:20:58.856Z</time></trkpt><trkpt lat="38.2990403" lon="21.7782741"><ele>16.0</ele><time>2026-04-30T11:20:59.856Z</time></trkpt><trkpt lat="38.2990952" lon="21.7783441"><ele>15.999999999999998</ele><time>2026-04-30T11:21:00.856Z</time></trkpt><trkpt lat="38.2991523" lon="21.7784143"><ele>16.0</ele><time>2026-04-30T11:21:01.855Z</time></trkpt><trkpt lat="38.2992149" lon="21.778493"><ele>16.0</ele><time>2026-04-30T11:21:02.856Z</time></trkpt><trkpt lat="38.2992769" lon="21.7785739"><ele>16.0</ele><time>2026-04-30T11:21:03.856Z</time></trkpt><trkpt lat="38.2993403" lon="21.7786537"><ele>15.999999999999998</ele><time>2026-04-30T11:21:04.855Z</time></trkpt><trkpt lat="38.2994035" lon="21.7787211"><ele>16.0</ele><time>2026-04-30T11:21:05.856Z</time></trkpt><trkpt lat="38.2994764" lon="21.7787845"><ele>16.0</ele><time>2026-04-30T11:21:06.856Z</time></trkpt><trkpt lat="38.2995581" lon="21.7788449"><ele>16.0</ele><time>2026-04-30T11:21:07.856Z</time></trkpt><trkpt lat="38.2996424" lon="21.7789045"><ele>16.0</ele><time>2026-04-30T11:21:08.855Z</time></trkpt><trkpt lat="38.2997238" lon="21.7789622"><ele>16.0</ele><time>2026-04-30T11:21:09.855Z</time></trkpt><trkpt lat="38.2998091" lon="21.7790239"><ele>16.0</ele><time>2026-04-30T11:21:10.856Z</time></trkpt><trkpt lat="38.2998918" lon="21.7790837"><ele>16.2</ele><time>2026-04-30T11:21:11.856Z</time></trkpt><trkpt lat="38.2999738" lon="21.779138"><ele>16.400000000000002</ele><time>2026-04-30T11:21:12.855Z</time></trkpt><trkpt lat="38.3000494" lon="21.7791939"><ele>16.6</ele><time>2026-04-30T11:21:13.855Z</time></trkpt><trkpt lat="38.3001194" lon="21.7792488"><ele>16.8</ele><time>2026-04-30T11:21:14.855Z</time></trkpt><trkpt lat="38.300201" lon="21.779306"><ele>17.0</ele><time>2026-04-30T11:21:15.856Z</time></trkpt><trkpt lat="38.3002904" lon="21.7793604"><ele>17.166666666666668</ele><time>2026-04-30T11:21:16.855Z</time></trkpt><trkpt lat="38.3003702" lon="21.7794136"><ele>17.333333333333336</ele><time>2026-04-30T11:21:17.856Z</time></trkpt><trkpt lat="38.300452" lon="21.7794664"><ele>17.5</ele><time>2026-04-30T11:21:18.855Z</time></trkpt><trkpt lat="38.3005282" lon="21.7795224"><ele>17.666666666666668</ele><time>2026-04-30T11:21:19.855Z</time></trkpt><trkpt lat="38.3006048" lon="21.7795794"><ele>17.833333333333332</ele><time>2026-04-30T11:21:20.855Z</time></trkpt><trkpt lat="38.3006798" lon="21.7796327"><ele>18.0</ele><time>2026-04-30T11:21:21.856Z</time></trkpt><trkpt lat="38.3007613" lon="21.7796901"><ele>17.6</ele><time>2026-04-30T11:21:22.856Z</time></trkpt><trkpt lat="38.3008478" lon="21.7797527"><ele>17.200000000000003</ele><time>2026-04-30T11:21:23.856Z</time></trkpt><trkpt lat="38.3009335" lon="21.7798179"><ele>16.8</ele><time>2026-04-30T11:21:24.856Z</time></trkpt><trkpt lat="38.3010172" lon="21.7798817"><ele>16.400000000000002</ele><time>2026-04-30T11:21:25.856Z</time></trkpt><trkpt lat="38.3011087" lon="21.7799507"><ele>16.0</ele><time>2026-04-30T11:21:26.855Z</time></trkpt><trkpt lat="38.3012027" lon="21.780024"><ele>16.0</ele><time>2026-04-30T11:21:27.855Z</time></trkpt><trkpt lat="38.3012999" lon="21.7801069"><ele>16.0</ele><time>2026-04-30T11:21:28.856Z</time></trkpt><trkpt lat="38.3013899" lon="21.7801965"><ele>16.0</ele><time>2026-04-30T11:21:29.856Z</time></trkpt><trkpt lat="38.3014716" lon="21.7802887"><ele>16.0</ele><time>2026-04-30T11:21:30.855Z</time></trkpt><trkpt lat="38.3015538" lon="21.7803796"><ele>16.0</ele><time>2026-04-30T11:21:31.856Z</time></trkpt><trkpt lat="38.3016293" lon="21.7804604"><ele>15.333333333333332</ele><time>2026-04-30T11:21:32.855Z</time></trkpt><trkpt lat="38.3016962" lon="21.780535"><ele>14.666666666666666</ele><time>2026-04-30T11:21:33.855Z</time></trkpt><trkpt lat="38.3017569" lon="21.780613"><ele>14.0</ele><time>2026-04-30T11:21:34.855Z</time></trkpt><trkpt lat="38.3018063" lon="21.7806736"><ele>13.333333333333332</ele><time>2026-04-30T11:21:35.856Z</time></trkpt><trkpt lat="38.3018823" lon="21.7807664"><ele>12.666666666666666</ele><time>2026-04-30T11:21:37.855Z</time></trkpt><trkpt lat="38.3019378" lon="21.780836"><ele>12.0</ele><time>2026-04-30T11:21:39.856Z</time></trkpt><trkpt lat="38.301986" lon="21.7809142"><ele>12.0</ele><time>2026-04-30T11:21:44.856Z</time></trkpt><trkpt lat="38.3020804" lon="21.7810173"><ele>12.0</ele><time>2026-04-30T11:21:46.856Z</time></trkpt><trkpt lat="38.3021482" lon="21.781076"><ele>12.0</ele><time>2026-04-30T11:21:47.856Z</time></trkpt><trkpt lat="38.3022234" lon="21.7811543"><ele>12.0</ele><time>2026-04-30T11:21:48.855Z</time></trkpt><trkpt lat="38.3023066" lon="21.7812496"><ele>12.0</ele><time>2026-04-30T11:21:49.855Z</time></trkpt><trkpt lat="38.3024018" lon="21.7813447"><ele>11.75</ele><time>2026-04-30T11:21:50.855Z</time></trkpt><trkpt lat="38.3024996" lon="21.7814441"><ele>11.5</ele><time>2026-04-30T11:21:51.856Z</time></trkpt><trkpt lat="38.3025965" lon="21.7815439"><ele>11.25</ele><time>2026-04-30T11:21:52.856Z</time></trkpt><trkpt lat="38.3026839" lon="21.781636"><ele>11.0</ele><time>2026-04-30T11:21:53.855Z</time></trkpt><trkpt lat="38.3027685" lon="21.7817263"><ele>11.0</ele><time>2026-04-30T11:21:54.855Z</time></trkpt><trkpt lat="38.3028531" lon="21.7818164"><ele>11.0</ele><time>2026-04-30T11:21:55.856Z</time></trkpt><trkpt lat="38.3029325" lon="21.7819027"><ele>11.0</ele><time>2026-04-30T11:21:56.856Z</time></trkpt><trkpt lat="38.3030056" lon="21.7819869"><ele>11.0</ele><time>2026-04-30T11:21:57.856Z</time></trkpt><trkpt lat="38.3030756" lon="21.7820737"><ele>11.0</ele><time>2026-04-30T11:21:58.855Z</time></trkpt><trkpt lat="38.3031371" lon="21.7821635"><ele>10.8</ele><time>2026-04-30T11:21:59.855Z</time></trkpt><trkpt lat="38.3032017" lon="21.7822552"><ele>10.600000000000001</ele><time>2026-04-30T11:22:00.855Z</time></trkpt><trkpt lat="38.3032644" lon="21.7823438"><ele>10.4</ele><time>2026-04-30T11:22:01.856Z</time></trkpt><trkpt lat="38.303333" lon="21.7824367"><ele>10.2</ele><time>2026-04-30T11:22:02.856Z</time></trkpt><trkpt lat="38.303404" lon="21.7825269"><ele>10.0</ele><time>2026-04-30T11:22:03.855Z</time></trkpt><trkpt lat="38.3034705" lon="21.7826011"><ele>10.0</ele><time>2026-04-30T11:22:04.856Z</time></trkpt><trkpt lat="38.3035396" lon="21.7826538"><ele>10.0</ele><time>2026-04-30T11:22:05.856Z</time></trkpt><trkpt lat="38.303627" lon="21.7826781"><ele>10.0</ele><time>2026-04-30T11:22:06.855Z</time></trkpt><trkpt lat="38.303723" lon="21.7826793"><ele>10.0</ele><time>2026-04-30T11:22:07.855Z</time></trkpt><trkpt lat="38.3038225" lon="21.782664"><ele>10.0</ele><time>2026-04-30T11:22:08.856Z</time></trkpt><trkpt lat="38.3039098" lon="21.7826417"><ele>10.0</ele><time>2026-04-30T11:22:09.855Z</time></trkpt><trkpt lat="38.3039919" lon="21.7826171"><ele>10.0</ele><time>2026-04-30T11:22:10.856Z</time></trkpt><trkpt lat="38.3040718" lon="21.7825904"><ele>10.0</ele><time>2026-04-30T11:22:11.855Z</time></trkpt><trkpt lat="38.3041448" lon="21.7825656"><ele>10.0</ele><time>2026-04-30T11:22:12.855Z</time></trkpt><trkpt lat="38.3042478" lon="21.7825352"><ele>10.0</ele><time>2026-04-30T11:22:14.856Z</time></trkpt><trkpt lat="38.3043277" lon="21.7825109"><ele>10.0</ele><time>2026-04-30T11:22:16.856Z</time></trkpt><trkpt lat="38.3044287" lon="21.7824745"><ele>10.0</ele><time>2026-04-30T11:22:18.855Z</time></trkpt><trkpt lat="38.3045118" lon="21.7824376"><ele>10.0</ele><time>2026-04-30T11:22:19.856Z</time></trkpt><trkpt lat="38.3046102" lon="21.7823915"><ele>10.0</ele><time>2026-04-30T11:22:20.855Z</time></trkpt><trkpt lat="38.3047223" lon="21.7823486"><ele>10.0</ele><time>2026-04-30T11:22:21.856Z</time></trkpt><trkpt lat="38.3048371" lon="21.7823101"><ele>10.0</ele><time>2026-04-30T11:22:22.855Z</time></trkpt><trkpt lat="38.3049436" lon="21.7822799"><ele>9.4</ele><time>2026-04-30T11:22:23.855Z</time></trkpt><trkpt lat="38.3050506" lon="21.782253"><ele>8.8</ele><time>2026-04-30T11:22:24.856Z</time></trkpt><trkpt lat="38.3051465" lon="21.7822283"><ele>8.2</ele><time>2026-04-30T11:22:25.856Z</time></trkpt><trkpt lat="38.3052491" lon="21.7822057"><ele>7.6</ele><time>2026-04-30T11:22:26.855Z</time></trkpt><trkpt lat="38.3053621" lon="21.7821775"><ele>7.0</ele><time>2026-04-30T11:22:27.856Z</time></trkpt><trkpt lat="38.3054817" lon="21.7821445"><ele>5.75</ele><time>2026-04-30T11:22:28.855Z</time></trkpt><trkpt lat="38.3056058" lon="21.7821056"><ele>4.5</ele><time>2026-04-30T11:22:29.855Z</time></trkpt><trkpt lat="38.3057309" lon="21.7820643"><ele>3.25</ele><time>2026-04-30T11:22:30.855Z</time></trkpt><trkpt lat="38.3058604" lon="21.7820182"><ele>2.0</ele><time>2026-04-30T11:22:31.855Z</time></trkpt><trkpt lat="38.3059982" lon="21.7819704"><ele>2.0</ele><time>2026-04-30T11:22:32.856Z</time></trkpt><trkpt lat="38.3061331" lon="21.7819254"><ele>2.0</ele><time>2026-04-30T11:22:33.856Z</time></trkpt><trkpt lat="38.3062711" lon="21.7818819"><ele>2.0</ele><time>2026-04-30T11:22:34.855Z</time></trkpt><trkpt lat="38.3064049" lon="21.7818363"><ele>2.0</ele><time>2026-04-30T11:22:35.856Z</time></trkpt><trkpt lat="38.3065247" lon="21.7817879"><ele>1.8</ele><time>2026-04-30T11:22:36.856Z</time></trkpt><trkpt lat="38.3066373" lon="21.7817473"><ele>1.6</ele><time>2026-04-30T11:22:37.855Z</time></trkpt><trkpt lat="38.3067427" lon="21.781712"><ele>1.4000000000000001</ele><time>2026-04-30T11:22:38.855Z</time></trkpt><trkpt lat="38.3068368" lon="21.7816864"><ele>1.2000000000000002</ele><time>2026-04-30T11:22:39.856Z</time></trkpt><trkpt lat="38.306926" lon="21.781676"><ele>1.0</ele><time>2026-04-30T11:22:40.856Z</time></trkpt><trkpt lat="38.307001" lon="21.781683"><ele>0.9999999999999999</ele><time>2026-04-30T11:22:41.855Z</time></trkpt><trkpt lat="38.3070688" lon="21.7817116"><ele>1.0</ele><time>2026-04-30T11:22:42.856Z</time></trkpt><trkpt lat="38.3071201" lon="21.781762"><ele>1.0</ele><time>2026-04-30T11:22:43.855Z</time></trkpt><trkpt lat="38.3071551" lon="21.7819197"><ele>1.0</ele><time>2026-04-30T11:22:45.855Z</time></trkpt><trkpt lat="38.3071436" lon="21.7820248"><ele>0.9999999999999999</ele><time>2026-04-30T11:22:46.856Z</time></trkpt><trkpt lat="38.3071138" lon="21.7821305"><ele>1.0</ele><time>2026-04-30T11:22:47.855Z</time></trkpt><trkpt lat="38.30706" lon="21.7822309"><ele>0.8333333333333333</ele><time>2026-04-30T11:22:48.855Z</time></trkpt><trkpt lat="38.3069931" lon="21.7823049"><ele>0.6666666666666666</ele><time>2026-04-30T11:22:49.856Z</time></trkpt><trkpt lat="38.30691" lon="21.7823516"><ele>0.5</ele><time>2026-04-30T11:22:50.855Z</time></trkpt><trkpt lat="38.3068198" lon="21.7823686"><ele>0.3333333333333333</ele><time>2026-04-30T11:22:51.856Z</time></trkpt><trkpt lat="38.3067353" lon="21.7823565"><ele>0.16666666666666666</ele><time>2026-04-30T11:22:52.856Z</time></trkpt><trkpt lat="38.3066562" lon="21.7823196"><ele>0.0</ele><time>2026-04-30T11:22:53.855Z</time></trkpt><trkpt lat="38.3065828" lon="21.7822533"><ele>0.0</ele><time>2026-04-30T11:22:54.855Z</time></trkpt><trkpt lat="38.3065266" lon="21.7821614"><ele>0.0</ele><time>2026-04-30T11:22:55.856Z</time></trkpt><trkpt lat="38.3064888" lon="21.7820532"><ele>0.0</ele><time>2026-04-30T11:22:56.855Z</time></trkpt><trkpt lat="38.3064758" lon="21.7819533"><ele>0.0</ele><time>2026-04-30T11:22:57.855Z</time></trkpt><trkpt lat="38.3064797" lon="21.7818501"><ele>0.0</ele><time>2026-04-30T11:22:58.856Z</time></trkpt><trkpt lat="38.306508" lon="21.7817428"><ele>0.0</ele><time>2026-04-30T11:22:59.855Z</time></trkpt><trkpt lat="38.3065617" lon="21.7816378"><ele>0.25</ele><time>2026-04-30T11:23:00.855Z</time></trkpt><trkpt lat="38.3066394" lon="21.7815271"><ele>0.5</ele><time>2026-04-30T11:23:01.856Z</time></trkpt><trkpt lat="38.3067397" lon="21.781408"><ele>0.75</ele><time>2026-04-30T11:23:02.855Z</time></trkpt><trkpt lat="38.3068504" lon="21.7812796"><ele>1.0</ele><time>2026-04-30T11:23:03.855Z</time></trkpt><trkpt lat="38.3069789" lon="21.7811388"><ele>1.0</ele><time>2026-04-30T11:23:04.855Z</time></trkpt><trkpt lat="38.3071185" lon="21.7809922"><ele>1.0</ele><time>2026-04-30T11:23:05.855Z</time></trkpt><trkpt lat="38.3072643" lon="21.7808438"><ele>1.0</ele><time>2026-04-30T11:23:06.856Z</time></trkpt><trkpt lat="38.30742" lon="21.7806941"><ele>1.3333333333333333</ele><time>2026-04-30T11:23:07.855Z</time></trkpt><trkpt lat="38.3075757" lon="21.7805568"><ele>1.6666666666666665</ele><time>2026-04-30T11:23:08.855Z</time></trkpt><trkpt lat="38.3077287" lon="21.780431"><ele>2.0</ele><time>2026-04-30T11:23:09.856Z</time></trkpt><trkpt lat="38.3078869" lon="21.7803115"><ele>2.0</ele><time>2026-04-30T11:23:10.855Z</time></trkpt><trkpt lat="38.3080492" lon="21.7802017"><ele>2.0</ele><time>2026-04-30T11:23:11.855Z</time></trkpt><trkpt lat="38.3082155" lon="21.7800996"><ele>2.0</ele><time>2026-04-30T11:23:12.855Z</time></trkpt><trkpt lat="38.3083758" lon="21.7800053"><ele>2.0</ele><time>2026-04-30T11:23:13.856Z</time></trkpt><trkpt lat="38.3085469" lon="21.7799086"><ele>2.0</ele><time>2026-04-30T11:23:14.856Z</time></trkpt><trkpt lat="38.3087316" lon="21.779802"><ele>2.0</ele><time>2026-04-30T11:23:15.855Z</time></trkpt><trkpt lat="38.3089223" lon="21.7796866"><ele>1.5</ele><time>2026-04-30T11:23:16.855Z</time></trkpt><trkpt lat="38.3091239" lon="21.7795646"><ele>1.0</ele><time>2026-04-30T11:23:17.856Z</time></trkpt><trkpt lat="38.3093428" lon="21.7794389"><ele>0.0</ele><time>2026-04-30T11:23:18.855Z</time></trkpt><trkpt lat="38.3095732" lon="21.779309"><ele>-1.0</ele><time>2026-04-30T11:23:19.855Z</time></trkpt><trkpt lat="38.3098196" lon="21.7791708"><ele>-1.0</ele><time>2026-04-30T11:23:20.855Z</time></trkpt><trkpt lat="38.3100539" lon="21.7790445"><ele>-1.0</ele><time>2026-04-30T11:23:21.855Z</time></trkpt><trkpt lat="38.3102994" lon="21.7789204"><ele>-1.0</ele><time>2026-04-30T11:23:22.856Z</time></trkpt><trkpt lat="38.3105527" lon="21.7787937"><ele>-1.0</ele><time>2026-04-30T11:23:23.855Z</time></trkpt><trkpt lat="38.3107949" lon="21.7786681"><ele>-1.0</ele><time>2026-04-30T11:23:24.856Z</time></trkpt><trkpt lat="38.3110253" lon="21.7785459"><ele>-1.0</ele><time>2026-04-30T11:23:25.855Z</time></trkpt><trkpt lat="38.3112584" lon="21.7784215"><ele>-0.5</ele><time>2026-04-30T11:23:26.856Z</time></trkpt><trkpt lat="38.3114884" lon="21.7782977"><ele>0.0</ele><time>2026-04-30T11:23:27.855Z</time></trkpt><trkpt lat="38.311724" lon="21.7781693"><ele>0.0</ele><time>2026-04-30T11:23:28.856Z</time></trkpt><trkpt lat="38.3119471" lon="21.7780469"><ele>0.0</ele><time>2026-04-30T11:23:29.856Z</time></trkpt><trkpt lat="38.3121658" lon="21.7779272"><ele>0.0</ele><time>2026-04-30T11:23:30.855Z</time></trkpt><trkpt lat="38.3123906" lon="21.7778047"><ele>0.0</ele><time>2026-04-30T11:23:31.855Z</time></trkpt><trkpt lat="38.3125972" lon="21.7776906"><ele>0.0</ele><time>2026-04-30T11:23:32.855Z</time></trkpt><trkpt lat="38.3128035" lon="21.7775764"><ele>0.0</ele><time>2026-04-30T11:23:33.856Z</time></trkpt><trkpt lat="38.3130032" lon="21.7774676"><ele>0.0</ele><time>2026-04-30T11:23:34.856Z</time></trkpt><trkpt lat="38.3131972" lon="21.7773603"><ele>0.0</ele><time>2026-04-30T11:23:35.856Z</time></trkpt><trkpt lat="38.3133866" lon="21.7772573"><ele>0.0</ele><time>2026-04-30T11:23:36.855Z</time></trkpt><trkpt lat="38.313571" lon="21.7771546"><ele>0.0</ele><time>2026-04-30T11:23:37.855Z</time></trkpt><trkpt lat="38.3137528" lon="21.777052"><ele>0.0</ele><time>2026-04-30T11:23:38.856Z</time></trkpt><trkpt lat="38.3139375" lon="21.7769547"><ele>0.0</ele><time>2026-04-30T11:23:39.856Z</time></trkpt><trkpt lat="38.3141104" lon="21.7768601"><ele>0.0</ele><time>2026-04-30T11:23:40.856Z</time></trkpt><trkpt lat="38.3142864" lon="21.7767658"><ele>0.0</ele><time>2026-04-30T11:23:41.855Z</time></trkpt><trkpt lat="38.3144629" lon="21.7766701"><ele>0.0</ele><time>2026-04-30T11:23:42.855Z</time></trkpt><trkpt lat="38.314638" lon="21.7765741"><ele>0.0</ele><time>2026-04-30T11:23:43.855Z</time></trkpt><trkpt lat="38.3148133" lon="21.7764763"><ele>0.0</ele><time>2026-04-30T11:23:44.856Z</time></trkpt><trkpt lat="38.3149848" lon="21.7763822"><ele>0.0</ele><time>2026-04-30T11:23:45.855Z</time></trkpt><trkpt lat="38.3151598" lon="21.7762865"><ele>0.0</ele><time>2026-04-30T11:23:46.855Z</time></trkpt><trkpt lat="38.3153376" lon="21.7761884"><ele>0.0</ele><time>2026-04-30T11:23:47.855Z</time></trkpt><trkpt lat="38.3155113" lon="21.7760927"><ele>0.0</ele><time>2026-04-30T11:23:48.855Z</time></trkpt><trkpt lat="38.3156813" lon="21.7759992"><ele>0.0</ele><time>2026-04-30T11:23:49.856Z</time></trkpt><trkpt lat="38.3158534" lon="21.7759045"><ele>0.0</ele><time>2026-04-30T11:23:50.856Z</time></trkpt><trkpt lat="38.3160256" lon="21.7758093"><ele>0.0</ele><time>2026-04-30T11:23:51.855Z</time></trkpt><trkpt lat="38.3161983" lon="21.7757153"><ele>0.0</ele><time>2026-04-30T11:23:52.855Z</time></trkpt><trkpt lat="38.3163659" lon="21.7756255"><ele>0.0</ele><time>2026-04-30T11:23:53.856Z</time></trkpt><trkpt lat="38.3165342" lon="21.7755329"><ele>0.0</ele><time>2026-04-30T11:23:54.855Z</time></trkpt><trkpt lat="38.3167024" lon="21.7754405"><ele>0.0</ele><time>2026-04-30T11:23:55.855Z</time></trkpt><trkpt lat="38.3168645" lon="21.7753517"><ele>0.0</ele><time>2026-04-30T11:23:56.855Z</time></trkpt><trkpt lat="38.3170185" lon="21.775266"><ele>0.0</ele><time>2026-04-30T11:23:57.855Z</time></trkpt><trkpt lat="38.3171745" lon="21.7751792"><ele>0.0</ele><time>2026-04-30T11:23:58.855Z</time></trkpt><trkpt lat="38.3173295" lon="21.7750945"><ele>0.0</ele><time>2026-04-30T11:23:59.855Z</time></trkpt><trkpt lat="38.3174853" lon="21.7750087"><ele>0.0</ele><time>2026-04-30T11:24:00.856Z</time></trkpt><trkpt lat="38.3176324" lon="21.774928"><ele>0.0</ele><time>2026-04-30T11:24:01.856Z</time></trkpt><trkpt lat="38.3177847" lon="21.7748456"><ele>0.0</ele><time>2026-04-30T11:24:02.855Z</time></trkpt><trkpt lat="38.3179417" lon="21.7747609"><ele>0.0</ele><time>2026-04-30T11:24:03.856Z</time></trkpt><trkpt lat="38.3180914" lon="21.774678"><ele>0.0</ele><time>2026-04-30T11:24:04.855Z</time></trkpt><trkpt lat="38.318234" lon="21.7745982"><ele>0.0</ele><time>2026-04-30T11:24:05.855Z</time></trkpt><trkpt lat="38.3183766" lon="21.7745204"><ele>0.0</ele><time>2026-04-30T11:24:06.856Z</time></trkpt><trkpt lat="38.3185127" lon="21.774447"><ele>0.0</ele><time>2026-04-30T11:24:07.855Z</time></trkpt><trkpt lat="38.3186474" lon="21.7743753"><ele>0.0</ele><time>2026-04-30T11:24:08.856Z</time></trkpt><trkpt lat="38.318774" lon="21.7743034"><ele>0.0</ele><time>2026-04-30T11:24:09.855Z</time></trkpt><trkpt lat="38.3189085" lon="21.7742296"><ele>0.0</ele><time>2026-04-30T11:24:10.855Z</time></trkpt><trkpt lat="38.3190506" lon="21.7741517"><ele>0.0</ele><time>2026-04-30T11:24:11.856Z</time></trkpt><trkpt lat="38.3191903" lon="21.7740748"><ele>0.0</ele><time>2026-04-30T11:24:12.855Z</time></trkpt><trkpt lat="38.3193272" lon="21.7740002"><ele>0.0</ele><time>2026-04-30T11:24:13.855Z</time></trkpt><trkpt lat="38.3194705" lon="21.7739228"><ele>0.0</ele><time>2026-04-30T11:24:14.855Z</time></trkpt><trkpt lat="38.3196141" lon="21.7738447"><ele>0.0</ele><time>2026-04-30T11:24:15.856Z</time></trkpt><trkpt lat="38.3197622" lon="21.7737634"><ele>0.0</ele><time>2026-04-30T11:24:16.856Z</time></trkpt><trkpt lat="38.3199017" lon="21.7736857"><ele>0.0</ele><time>2026-04-30T11:24:17.856Z</time></trkpt><trkpt lat="38.3200466" lon="21.773606"><ele>0.0</ele><time>2026-04-30T11:24:18.855Z</time></trkpt><trkpt lat="38.3201971" lon="21.7735229"><ele>0.0</ele><time>2026-04-30T11:24:19.855Z</time></trkpt><trkpt lat="38.3203432" lon="21.7734437"><ele>0.0</ele><time>2026-04-30T11:24:20.855Z</time></trkpt><trkpt lat="38.3204848" lon="21.773367"><ele>0.0</ele><time>2026-04-30T11:24:21.855Z</time></trkpt><trkpt lat="38.3206315" lon="21.773286"><ele>0.0</ele><time>2026-04-30T11:24:22.856Z</time></trkpt><trkpt lat="38.3207789" lon="21.773205"><ele>0.0</ele><time>2026-04-30T11:24:23.855Z</time></trkpt><trkpt lat="38.3209314" lon="21.7731212"><ele>0.0</ele><time>2026-04-30T11:24:24.856Z</time></trkpt><trkpt lat="38.3210745" lon="21.7730426"><ele>0.0</ele><time>2026-04-30T11:24:25.856Z</time></trkpt><trkpt lat="38.3212228" lon="21.7729617"><ele>0.0</ele><time>2026-04-30T11:24:26.856Z</time></trkpt><trkpt lat="38.3213767" lon="21.7728778"><ele>0.0</ele><time>2026-04-30T11:24:27.855Z</time></trkpt><trkpt lat="38.3215265" lon="21.7727958"><ele>0.0</ele><time>2026-04-30T11:24:28.855Z</time></trkpt><trkpt lat="38.3216748" lon="21.7727152"><ele>0.0</ele><time>2026-04-30T11:24:29.856Z</time></trkpt><trkpt lat="38.3218224" lon="21.7726349"><ele>0.0</ele><time>2026-04-30T11:24:30.856Z</time></trkpt><trkpt lat="38.3219712" lon="21.7725532"><ele>0.0</ele><time>2026-04-30T11:24:31.856Z</time></trkpt><trkpt lat="38.3221198" lon="21.7724703"><ele>0.0</ele><time>2026-04-30T11:24:32.856Z</time></trkpt><trkpt lat="38.3222696" lon="21.7723888"><ele>0.0</ele><time>2026-04-30T11:24:33.855Z</time></trkpt><trkpt lat="38.3224215" lon="21.7723053"><ele>0.0</ele><time>2026-04-30T11:24:34.856Z</time></trkpt><trkpt lat="38.3225809" lon="21.7722168"><ele>0.0</ele><time>2026-04-30T11:24:35.855Z</time></trkpt><trkpt lat="38.3227322" lon="21.7721314"><ele>0.0</ele><time>2026-04-30T11:24:36.856Z</time></trkpt><trkpt lat="38.3228902" lon="21.772042"><ele>0.0</ele><time>2026-04-30T11:24:37.856Z</time></trkpt><trkpt lat="38.32305" lon="21.7719539"><ele>0.0</ele><time>2026-04-30T11:24:38.855Z</time></trkpt><trkpt lat="38.3232093" lon="21.7718673"><ele>0.0</ele><time>2026-04-30T11:24:39.856Z</time></trkpt><trkpt lat="38.3233668" lon="21.7717817"><ele>0.0</ele><time>2026-04-30T11:24:40.855Z</time></trkpt><trkpt lat="38.3235243" lon="21.7716954"><ele>0.0</ele><time>2026-04-30T11:24:41.855Z</time></trkpt><trkpt lat="38.3236829" lon="21.771609"><ele>0.0</ele><time>2026-04-30T11:24:42.856Z</time></trkpt><trkpt lat="38.3238474" lon="21.7715188"><ele>0.0</ele><time>2026-04-30T11:24:43.855Z</time></trkpt><trkpt lat="38.3240022" lon="21.7714346"><ele>0.0</ele><time>2026-04-30T11:24:44.855Z</time></trkpt><trkpt lat="38.3241623" lon="21.7713472"><ele>0.0</ele><time>2026-04-30T11:24:45.856Z</time></trkpt><trkpt lat="38.3243224" lon="21.77126"><ele>0.0</ele><time>2026-04-30T11:24:46.855Z</time></trkpt><trkpt lat="38.3244821" lon="21.7711735"><ele>0.0</ele><time>2026-04-30T11:24:47.856Z</time></trkpt><trkpt lat="38.3246418" lon="21.7710873"><ele>0.0</ele><time>2026-04-30T11:24:48.855Z</time></trkpt><trkpt lat="38.3248018" lon="21.771"><ele>0.0</ele><time>2026-04-30T11:24:49.856Z</time></trkpt><trkpt lat="38.3249614" lon="21.7709123"><ele>0.0</ele><time>2026-04-30T11:24:50.856Z</time></trkpt><trkpt lat="38.3251271" lon="21.7708198"><ele>0.0</ele><time>2026-04-30T11:24:51.856Z</time></trkpt><trkpt lat="38.3252837" lon="21.7707322"><ele>0.0</ele><time>2026-04-30T11:24:52.855Z</time></trkpt><trkpt lat="38.3254478" lon="21.770642"><ele>0.0</ele><time>2026-04-30T11:24:53.855Z</time></trkpt><trkpt lat="38.3256131" lon="21.7705499"><ele>0.0</ele><time>2026-04-30T11:24:54.856Z</time></trkpt><trkpt lat="38.3257806" lon="21.7704564"><ele>0.0</ele><time>2026-04-30T11:24:55.855Z</time></trkpt><trkpt lat="38.3259511" lon="21.7703618"><ele>0.0</ele><time>2026-04-30T11:24:56.855Z</time></trkpt><trkpt lat="38.3261231" lon="21.7702676"><ele>0.0</ele><time>2026-04-30T11:24:57.855Z</time></trkpt><trkpt lat="38.3262964" lon="21.7701725"><ele>0.0</ele><time>2026-04-30T11:24:58.855Z</time></trkpt><trkpt lat="38.3264757" lon="21.7700741"><ele>0.0</ele><time>2026-04-30T11:24:59.855Z</time></trkpt><trkpt lat="38.3266444" lon="21.7699821"><ele>0.0</ele><time>2026-04-30T11:25:00.855Z</time></trkpt><trkpt lat="38.3268187" lon="21.7698871"><ele>0.0</ele><time>2026-04-30T11:25:01.855Z</time></trkpt><trkpt lat="38.3269932" lon="21.7697918"><ele>0.0</ele><time>2026-04-30T11:25:02.856Z</time></trkpt><trkpt lat="38.3271677" lon="21.7696961"><ele>0.0</ele><time>2026-04-30T11:25:03.855Z</time></trkpt><trkpt lat="38.3273419" lon="21.7695987"><ele>0.0</ele><time>2026-04-30T11:25:04.855Z</time></trkpt><trkpt lat="38.3275156" lon="21.7695015"><ele>0.0</ele><time>2026-04-30T11:25:05.856Z</time></trkpt><trkpt lat="38.3276899" lon="21.769406"><ele>0.0</ele><time>2026-04-30T11:25:06.856Z</time></trkpt><trkpt lat="38.327872" lon="21.7693063"><ele>0.0</ele><time>2026-04-30T11:25:07.856Z</time></trkpt><trkpt lat="38.3280434" lon="21.7692116"><ele>0.0</ele><time>2026-04-30T11:25:08.856Z</time></trkpt><trkpt lat="38.3282218" lon="21.7691146"><ele>0.0</ele><time>2026-04-30T11:25:09.856Z</time></trkpt><trkpt lat="38.3284012" lon="21.7690169"><ele>0.0</ele><time>2026-04-30T11:25:10.855Z</time></trkpt><trkpt lat="38.3285823" lon="21.7689186"><ele>0.0</ele><time>2026-04-30T11:25:11.856Z</time></trkpt><trkpt lat="38.3287641" lon="21.7688192"><ele>0.0</ele><time>2026-04-30T11:25:12.855Z</time></trkpt><trkpt lat="38.3289469" lon="21.7687199"><ele>0.0</ele><time>2026-04-30T11:25:13.856Z</time></trkpt><trkpt lat="38.3291307" lon="21.7686191"><ele>0.0</ele><time>2026-04-30T11:25:14.855Z</time></trkpt><trkpt lat="38.3293209" lon="21.7685145"><ele>0.0</ele><time>2026-04-30T11:25:15.855Z</time></trkpt><trkpt lat="38.329498" lon="21.7684179"><ele>0.0</ele><time>2026-04-30T11:25:16.856Z</time></trkpt><trkpt lat="38.3296787" lon="21.7683187"><ele>0.0</ele><time>2026-04-30T11:25:17.856Z</time></trkpt><trkpt lat="38.3298576" lon="21.7682209"><ele>0.3333333333333333</ele><time>2026-04-30T11:25:18.855Z</time></trkpt><trkpt lat="38.3300344" lon="21.768124"><ele>0.6666666666666666</ele><time>2026-04-30T11:25:19.855Z</time></trkpt><trkpt lat="38.3302098" lon="21.7680279"><ele>1.0</ele><time>2026-04-30T11:25:20.855Z</time></trkpt><trkpt lat="38.3303843" lon="21.7679323"><ele>1.0</ele><time>2026-04-30T11:25:21.855Z</time></trkpt><trkpt lat="38.3305578" lon="21.7678372"><ele>1.0</ele><time>2026-04-30T11:25:22.856Z</time></trkpt><trkpt lat="38.3307362" lon="21.7677391"><ele>1.0</ele><time>2026-04-30T11:25:23.856Z</time></trkpt><trkpt lat="38.3309031" lon="21.7676462"><ele>0.3333333333333333</ele><time>2026-04-30T11:25:24.855Z</time></trkpt><trkpt lat="38.3310759" lon="21.767551"><ele>-0.3333333333333333</ele><time>2026-04-30T11:25:25.856Z</time></trkpt><trkpt lat="38.3312496" lon="21.7674555"><ele>-1.0</ele><time>2026-04-30T11:25:26.855Z</time></trkpt><trkpt lat="38.3314236" lon="21.7673607"><ele>-1.6666666666666665</ele><time>2026-04-30T11:25:27.856Z</time></trkpt><trkpt lat="38.3315972" lon="21.7672669"><ele>-2.3333333333333335</ele><time>2026-04-30T11:25:28.855Z</time></trkpt><trkpt lat="38.3317685" lon="21.7671771"><ele>-3.0</ele><time>2026-04-30T11:25:29.856Z</time></trkpt><trkpt lat="38.3319323" lon="21.7670925"><ele>-3.0</ele><time>2026-04-30T11:25:30.856Z</time></trkpt><trkpt lat="38.3321016" lon="21.7670068"><ele>-3.0</ele><time>2026-04-30T11:25:31.856Z</time></trkpt><trkpt lat="38.3322621" lon="21.7669262"><ele>-3.0</ele><time>2026-04-30T11:25:32.855Z</time></trkpt><trkpt lat="38.3324277" lon="21.7668407"><ele>-1.6666666666666667</ele><time>2026-04-30T11:25:33.855Z</time></trkpt><trkpt lat="38.3325852" lon="21.7667563"><ele>-0.33333333333333337</ele><time>2026-04-30T11:25:34.856Z</time></trkpt><trkpt lat="38.332731" lon="21.766673"><ele>1.0</ele><time>2026-04-30T11:25:35.856Z</time></trkpt><trkpt lat="38.3328635" lon="21.7665891"><ele>1.0</ele><time>2026-04-30T11:25:36.855Z</time></trkpt><trkpt lat="38.3329854" lon="21.7665057"><ele>1.0</ele><time>2026-04-30T11:25:37.856Z</time></trkpt><trkpt lat="38.3331017" lon="21.7664268"><ele>1.0</ele><time>2026-04-30T11:25:38.855Z</time></trkpt><trkpt lat="38.3332118" lon="21.7663534"><ele>1.0</ele><time>2026-04-30T11:25:39.855Z</time></trkpt><trkpt lat="38.3333019" lon="21.7662964"><ele>1.1666666666666665</ele><time>2026-04-30T11:25:40.855Z</time></trkpt><trkpt lat="38.3333841" lon="21.7662461"><ele>1.3333333333333333</ele><time>2026-04-30T11:25:41.856Z</time></trkpt><trkpt lat="38.3334557" lon="21.7662027"><ele>1.5</ele><time>2026-04-30T11:25:42.855Z</time></trkpt><trkpt lat="38.3335156" lon="21.7661644"><ele>1.6666666666666665</ele><time>2026-04-30T11:25:43.855Z</time></trkpt><trkpt lat="38.3335989" lon="21.7661106"><ele>1.8333333333333333</ele><time>2026-04-30T11:25:45.855Z</time></trkpt><trkpt lat="38.3336573" lon="21.7660766"><ele>2.0</ele><time>2026-04-30T11:25:47.856Z</time></trkpt><trkpt lat="38.3337159" lon="21.7660432"><ele>1.9999999999999998</ele><time>2026-04-30T11:25:50.855Z</time></trkpt><trkpt lat="38.3337841" lon="21.7660041"><ele>2.0</ele><time>2026-04-30T11:27:06.855Z</time></trkpt><trkpt lat="38.3338689" lon="21.7659805"><ele>2.0</ele><time>2026-04-30T11:27:13.855Z</time></trkpt><trkpt lat="38.3339308" lon="21.7659519"><ele>2.0</ele><time>2026-04-30T11:27:14.856Z</time></trkpt><trkpt lat="38.3340044" lon="21.7659125"><ele>1.9999999999999998</ele><time>2026-04-30T11:27:15.856Z</time></trkpt><trkpt lat="38.3340884" lon="21.7658696"><ele>2.0</ele><time>2026-04-30T11:27:16.856Z</time></trkpt><trkpt lat="38.334177" lon="21.7658214"><ele>1.75</ele><time>2026-04-30T11:27:17.855Z</time></trkpt><trkpt lat="38.3342797" lon="21.7657654"><ele>1.5</ele><time>2026-04-30T11:27:18.856Z</time></trkpt><trkpt lat="38.3343938" lon="21.7657051"><ele>1.25</ele><time>2026-04-30T11:27:19.856Z</time></trkpt><trkpt lat="38.3345108" lon="21.7656432"><ele>1.0</ele><time>2026-04-30T11:27:20.856Z</time></trkpt><trkpt lat="38.3346188" lon="21.7655861"><ele>0.75</ele><time>2026-04-30T11:27:21.855Z</time></trkpt><trkpt lat="38.3347289" lon="21.7655254"><ele>0.5</ele><time>2026-04-30T11:27:22.855Z</time></trkpt><trkpt lat="38.3348403" lon="21.7654639"><ele>0.25</ele><time>2026-04-30T11:27:23.856Z</time></trkpt><trkpt lat="38.3349467" lon="21.7654047"><ele>0.0</ele><time>2026-04-30T11:27:24.855Z</time></trkpt><trkpt lat="38.3350483" lon="21.7653486"><ele>0.0</ele><time>2026-04-30T11:27:25.855Z</time></trkpt><trkpt lat="38.3351498" lon="21.7652916"><ele>0.0</ele><time>2026-04-30T11:27:26.856Z</time></trkpt><trkpt lat="38.3352479" lon="21.7652365"><ele>0.0</ele><time>2026-04-30T11:27:27.856Z</time></trkpt><trkpt lat="38.3353464" lon="21.7651823"><ele>0.0</ele><time>2026-04-30T11:27:28.856Z</time></trkpt><trkpt lat="38.3354385" lon="21.7651321"><ele>0.0</ele><time>2026-04-30T11:27:29.855Z</time></trkpt><trkpt lat="38.3355303" lon="21.7650836"><ele>0.5</ele><time>2026-04-30T11:27:30.856Z</time></trkpt><trkpt lat="38.3356301" lon="21.7650311"><ele>1.0</ele><time>2026-04-30T11:27:31.856Z</time></trkpt><trkpt lat="38.3357315" lon="21.7649776"><ele>1.5</ele><time>2026-04-30T11:27:32.856Z</time></trkpt><trkpt lat="38.3358354" lon="21.7649222"><ele>2.0</ele><time>2026-04-30T11:27:33.856Z</time></trkpt><trkpt lat="38.335948" lon="21.7648633"><ele>2.0</ele><time>2026-04-30T11:27:34.856Z</time></trkpt><trkpt lat="38.3360661" lon="21.7648005"><ele>2.0</ele><time>2026-04-30T11:27:35.856Z</time></trkpt><trkpt lat="38.3361945" lon="21.7647308"><ele>2.0</ele><time>2026-04-30T11:27:36.856Z</time></trkpt><trkpt lat="38.3363205" lon="21.764664"><ele>2.0</ele><time>2026-04-30T11:27:37.855Z</time></trkpt><trkpt lat="38.3364556" lon="21.7645945"><ele>2.333333333333333</ele><time>2026-04-30T11:27:38.855Z</time></trkpt><trkpt lat="38.3365981" lon="21.7645223"><ele>2.6666666666666665</ele><time>2026-04-30T11:27:39.856Z</time></trkpt><trkpt lat="38.3367381" lon="21.7644504"><ele>3.0</ele><time>2026-04-30T11:27:40.855Z</time></trkpt><trkpt lat="38.3368736" lon="21.7643789"><ele>2.6666666666666665</ele><time>2026-04-30T11:27:41.856Z</time></trkpt><trkpt lat="38.3370138" lon="21.7643037"><ele>2.333333333333333</ele><time>2026-04-30T11:27:42.855Z</time></trkpt><trkpt lat="38.3371553" lon="21.764226"><ele>2.0</ele><time>2026-04-30T11:27:43.856Z</time></trkpt><trkpt lat="38.3373029" lon="21.7641406"><ele>1.6666666666666665</ele><time>2026-04-30T11:27:44.855Z</time></trkpt><trkpt lat="38.3374417" lon="21.7640582"><ele>1.3333333333333333</ele><time>2026-04-30T11:27:45.856Z</time></trkpt><trkpt lat="38.3375865" lon="21.7639712"><ele>1.0</ele><time>2026-04-30T11:27:46.856Z</time></trkpt><trkpt lat="38.3377365" lon="21.7638791"><ele>1.0</ele><time>2026-04-30T11:27:47.856Z</time></trkpt><trkpt lat="38.3378809" lon="21.7637878"><ele>1.0</ele><time>2026-04-30T11:27:48.856Z</time></trkpt><trkpt lat="38.3380261" lon="21.7636932"><ele>1.0</ele><time>2026-04-30T11:27:49.855Z</time></trkpt><trkpt lat="38.3381802" lon="21.763593"><ele>2.0</ele><time>2026-04-30T11:27:50.856Z</time></trkpt><trkpt lat="38.3383307" lon="21.7634931"><ele>3.0</ele><time>2026-04-30T11:27:51.855Z</time></trkpt><trkpt lat="38.3384814" lon="21.7633931"><ele>4.0</ele><time>2026-04-30T11:27:52.856Z</time></trkpt><trkpt lat="38.3386173" lon="21.7633049"><ele>4.0</ele><time>2026-04-30T11:27:53.855Z</time></trkpt><trkpt lat="38.3387528" lon="21.7632189"><ele>4.0</ele><time>2026-04-30T11:27:54.856Z</time></trkpt><trkpt lat="38.3388892" lon="21.7631337"><ele>4.0</ele><time>2026-04-30T11:27:55.855Z</time></trkpt><trkpt lat="38.3390192" lon="21.7630543"><ele>4.0</ele><time>2026-04-30T11:27:56.855Z</time></trkpt><trkpt lat="38.3391424" lon="21.7629813"><ele>3.75</ele><time>2026-04-30T11:27:57.856Z</time></trkpt><trkpt lat="38.3392686" lon="21.7629102"><ele>3.5</ele><time>2026-04-30T11:27:58.856Z</time></trkpt><trkpt lat="38.339391" lon="21.7628435"><ele>3.25</ele><time>2026-04-30T11:27:59.856Z</time></trkpt><trkpt lat="38.3395117" lon="21.7627792"><ele>3.0</ele><time>2026-04-30T11:28:00.856Z</time></trkpt><trkpt lat="38.3396169" lon="21.7627237"><ele>3.1666666666666665</ele><time>2026-04-30T11:28:01.856Z</time></trkpt><trkpt lat="38.3397194" lon="21.7626703"><ele>3.333333333333333</ele><time>2026-04-30T11:28:02.856Z</time></trkpt><trkpt lat="38.3398129" lon="21.7626235"><ele>3.5</ele><time>2026-04-30T11:28:03.855Z</time></trkpt><trkpt lat="38.3398928" lon="21.7625849"><ele>3.6666666666666665</ele><time>2026-04-30T11:28:04.856Z</time></trkpt><trkpt lat="38.3399622" lon="21.762555"><ele>3.833333333333333</ele><time>2026-04-30T11:28:05.855Z</time></trkpt><trkpt lat="38.3400292" lon="21.7625379"><ele>4.0</ele><time>2026-04-30T11:28:06.856Z</time></trkpt><trkpt lat="38.3401389" lon="21.7625957"><ele>3.833333333333333</ele><time>2026-04-30T11:28:08.855Z</time></trkpt><trkpt lat="38.3401745" lon="21.7627481"><ele>3.6666666666666665</ele><time>2026-04-30T11:28:10.856Z</time></trkpt><trkpt lat="38.3401492" lon="21.7628339"><ele>3.5</ele><time>2026-04-30T11:28:11.856Z</time></trkpt><trkpt lat="38.3400992" lon="21.7629041"><ele>3.333333333333333</ele><time>2026-04-30T11:28:12.856Z</time></trkpt><trkpt lat="38.3400321" lon="21.7629441"><ele>3.1666666666666665</ele><time>2026-04-30T11:28:13.856Z</time></trkpt><trkpt lat="38.339947" lon="21.7629576"><ele>3.0</ele><time>2026-04-30T11:28:14.856Z</time></trkpt><trkpt lat="38.3398476" lon="21.7629568"><ele>3.0</ele><time>2026-04-30T11:28:15.855Z</time></trkpt><trkpt lat="38.3397288" lon="21.7629626"><ele>3.0</ele><time>2026-04-30T11:28:16.855Z</time></trkpt><trkpt lat="38.3396161" lon="21.7629931"><ele>3.0</ele><time>2026-04-30T11:28:17.855Z</time></trkpt><trkpt lat="38.3394928" lon="21.7630544"><ele>3.0</ele><time>2026-04-30T11:28:18.856Z</time></trkpt><trkpt lat="38.3393562" lon="21.7631412"><ele>3.0</ele><time>2026-04-30T11:28:19.856Z</time></trkpt><trkpt lat="38.3392137" lon="21.7632348"><ele>3.0</ele><time>2026-04-30T11:28:20.855Z</time></trkpt><trkpt lat="38.3390647" lon="21.7633316"><ele>3.0</ele><time>2026-04-30T11:28:21.855Z</time></trkpt><trkpt lat="38.3389008" lon="21.7634353"><ele>2.6666666666666665</ele><time>2026-04-30T11:28:22.856Z</time></trkpt><trkpt lat="38.3387325" lon="21.7635377"><ele>2.333333333333333</ele><time>2026-04-30T11:28:23.856Z</time></trkpt><trkpt lat="38.3385506" lon="21.7636484"><ele>2.0</ele><time>2026-04-30T11:28:24.856Z</time></trkpt><trkpt lat="38.3383673" lon="21.76376"><ele>2.0</ele><time>2026-04-30T11:28:25.855Z</time></trkpt><trkpt lat="38.338164" lon="21.7638843"><ele>2.0</ele><time>2026-04-30T11:28:26.855Z</time></trkpt><trkpt lat="38.3379528" lon="21.7640112"><ele>1.6666666666666665</ele><time>2026-04-30T11:28:27.855Z</time></trkpt><trkpt lat="38.3377515" lon="21.7641258"><ele>1.3333333333333333</ele><time>2026-04-30T11:28:28.856Z</time></trkpt><trkpt lat="38.3375588" lon="21.764229"><ele>1.0</ele><time>2026-04-30T11:28:29.856Z</time></trkpt><trkpt lat="38.3373753" lon="21.7643264"><ele>1.6666666666666665</ele><time>2026-04-30T11:28:30.855Z</time></trkpt><trkpt lat="38.3371991" lon="21.7644216"><ele>2.3333333333333335</ele><time>2026-04-30T11:28:31.856Z</time></trkpt><trkpt lat="38.3370319" lon="21.7645136"><ele>3.0</ele><time>2026-04-30T11:28:32.855Z</time></trkpt><trkpt lat="38.3368728" lon="21.7646026"><ele>3.0</ele><time>2026-04-30T11:28:33.855Z</time></trkpt><trkpt lat="38.336721" lon="21.7646884"><ele>3.0</ele><time>2026-04-30T11:28:34.855Z</time></trkpt><trkpt lat="38.3365735" lon="21.7647775"><ele>3.0</ele><time>2026-04-30T11:28:35.855Z</time></trkpt><trkpt lat="38.3364344" lon="21.7648679"><ele>2.6666666666666665</ele><time>2026-04-30T11:28:36.856Z</time></trkpt><trkpt lat="38.3362997" lon="21.7649576"><ele>2.333333333333333</ele><time>2026-04-30T11:28:37.855Z</time></trkpt><trkpt lat="38.336163" lon="21.7650479"><ele>2.0</ele><time>2026-04-30T11:28:38.856Z</time></trkpt><trkpt lat="38.3360308" lon="21.7651325"><ele>1.75</ele><time>2026-04-30T11:28:39.855Z</time></trkpt><trkpt lat="38.3359098" lon="21.7652112"><ele>1.5</ele><time>2026-04-30T11:28:40.855Z</time></trkpt><trkpt lat="38.3357976" lon="21.7652825"><ele>1.25</ele><time>2026-04-30T11:28:41.855Z</time></trkpt><trkpt lat="38.3357028" lon="21.7653477"><ele>1.0</ele><time>2026-04-30T11:28:42.855Z</time></trkpt><trkpt lat="38.335625" lon="21.7654084"><ele>0.9999999999999999</ele><time>2026-04-30T11:28:43.856Z</time></trkpt><trkpt lat="38.3355649" lon="21.7654599"><ele>1.0</ele><time>2026-04-30T11:28:44.856Z</time></trkpt><trkpt lat="38.3355083" lon="21.7654987"><ele>1.0</ele><time>2026-04-30T11:28:45.855Z</time></trkpt><trkpt lat="38.3354249" lon="21.765493"><ele>1.0</ele><time>2026-04-30T11:28:47.856Z</time></trkpt><trkpt lat="38.335369" lon="21.7653684"><ele>0.9999999999999999</ele><time>2026-04-30T11:28:49.856Z</time></trkpt><trkpt lat="38.3353413" lon="21.7652869"><ele>1.0</ele><time>2026-04-30T11:28:50.856Z</time></trkpt><trkpt lat="38.3353122" lon="21.7651952"><ele>0.8333333333333333</ele><time>2026-04-30T11:28:51.856Z</time></trkpt><trkpt lat="38.3352844" lon="21.7651074"><ele>0.6666666666666666</ele><time>2026-04-30T11:28:52.856Z</time></trkpt><trkpt lat="38.3352637" lon="21.7650303"><ele>0.5</ele><time>2026-04-30T11:28:53.856Z</time></trkpt><trkpt lat="38.335247" lon="21.7649366"><ele>0.3333333333333333</ele><time>2026-04-30T11:28:55.856Z</time></trkpt><trkpt lat="38.3351963" lon="21.7648599"><ele>0.16666666666666666</ele><time>2026-04-30T11:28:57.855Z</time></trkpt><trkpt lat="38.3351135" lon="21.7648028"><ele>0.0</ele><time>2026-04-30T11:28:59.856Z</time></trkpt><trkpt lat="38.3350495" lon="21.7648114"><ele>0.0</ele><time>2026-04-30T11:29:00.856Z</time></trkpt><trkpt lat="38.3349719" lon="21.7648459"><ele>0.0</ele><time>2026-04-30T11:29:01.855Z</time></trkpt><trkpt lat="38.3348798" lon="21.7648873"><ele>0.0</ele><time>2026-04-30T11:29:02.856Z</time></trkpt><trkpt lat="38.3347858" lon="21.7649154"><ele>0.0</ele><time>2026-04-30T11:29:03.855Z</time></trkpt><trkpt lat="38.3346709" lon="21.7649295"><ele>0.0</ele><time>2026-04-30T11:29:04.855Z</time></trkpt><trkpt lat="38.3345502" lon="21.7649417"><ele>-0.25</ele><time>2026-04-30T11:29:05.856Z</time></trkpt><trkpt lat="38.3344208" lon="21.7649649"><ele>-0.5</ele><time>2026-04-30T11:29:06.856Z</time></trkpt><trkpt lat="38.3342876" lon="21.7650113"><ele>-0.75</ele><time>2026-04-30T11:29:07.855Z</time></trkpt><trkpt lat="38.33416" lon="21.7650712"><ele>-1.0</ele><time>2026-04-30T11:29:08.855Z</time></trkpt><trkpt lat="38.3340419" lon="21.7651332"><ele>-0.5</ele><time>2026-04-30T11:29:09.856Z</time></trkpt><trkpt lat="38.3339232" lon="21.7651973"><ele>0.0</ele><time>2026-04-30T11:29:10.856Z</time></trkpt><trkpt lat="38.3338069" lon="21.7652591"><ele>0.5</ele><time>2026-04-30T11:29:11.855Z</time></trkpt><trkpt lat="38.3336896" lon="21.76532"><ele>1.0</ele><time>2026-04-30T11:29:12.855Z</time></trkpt><trkpt lat="38.3335796" lon="21.7653711"><ele>1.25</ele><time>2026-04-30T11:29:13.855Z</time></trkpt><trkpt lat="38.3334652" lon="21.7654122"><ele>1.5</ele><time>2026-04-30T11:29:14.856Z</time></trkpt><trkpt lat="38.3333459" lon="21.7654334"><ele>1.75</ele><time>2026-04-30T11:29:15.855Z</time></trkpt><trkpt lat="38.3332289" lon="21.7654347"><ele>2.0</ele><time>2026-04-30T11:29:16.855Z</time></trkpt><trkpt lat="38.3331123" lon="21.7654305"><ele>1.8</ele><time>2026-04-30T11:29:17.856Z</time></trkpt><trkpt lat="38.3329883" lon="21.7654279"><ele>1.6</ele><time>2026-04-30T11:29:18.855Z</time></trkpt><trkpt lat="38.3328665" lon="21.7654244"><ele>1.4000000000000001</ele><time>2026-04-30T11:29:19.856Z</time></trkpt><trkpt lat="38.3327557" lon="21.7654193"><ele>1.2000000000000002</ele><time>2026-04-30T11:29:20.856Z</time></trkpt><trkpt lat="38.3326676" lon="21.7654035"><ele>1.0</ele><time>2026-04-30T11:29:21.855Z</time></trkpt><trkpt lat="38.3325926" lon="21.7653636"><ele>1.0</ele><time>2026-04-30T11:29:22.855Z</time></trkpt><trkpt lat="38.3325274" lon="21.7652902"><ele>1.0</ele><time>2026-04-30T11:29:23.855Z</time></trkpt><trkpt lat="38.3324788" lon="21.7651843"><ele>1.0</ele><time>2026-04-30T11:29:24.856Z</time></trkpt><trkpt lat="38.3324445" lon="21.7650521"><ele>1.0</ele><time>2026-04-30T11:29:25.856Z</time></trkpt><trkpt lat="38.3324095" lon="21.764893"><ele>1.0</ele><time>2026-04-30T11:29:26.856Z</time></trkpt><trkpt lat="38.332377" lon="21.7647305"><ele>1.0</ele><time>2026-04-30T11:29:27.855Z</time></trkpt><trkpt lat="38.3323446" lon="21.7645636"><ele>1.0</ele><time>2026-04-30T11:29:28.856Z</time></trkpt><trkpt lat="38.3323114" lon="21.7644046"><ele>1.0</ele><time>2026-04-30T11:29:29.855Z</time></trkpt><trkpt lat="38.3322765" lon="21.7642459"><ele>1.0</ele><time>2026-04-30T11:29:30.856Z</time></trkpt><trkpt lat="38.3322378" lon="21.7640757"><ele>1.0</ele><time>2026-04-30T11:29:31.856Z</time></trkpt><trkpt lat="38.3322023" lon="21.7639121"><ele>1.0</ele><time>2026-04-30T11:29:32.856Z</time></trkpt><trkpt lat="38.3321714" lon="21.763762"><ele>1.0</ele><time>2026-04-30T11:29:33.855Z</time></trkpt><trkpt lat="38.3321431" lon="21.763613"><ele>1.0</ele><time>2026-04-30T11:29:34.855Z</time></trkpt><trkpt lat="38.332121" lon="21.7634631"><ele>1.0</ele><time>2026-04-30T11:29:35.855Z</time></trkpt><trkpt lat="38.3321197" lon="21.7633069"><ele>1.0</ele><time>2026-04-30T11:29:36.856Z</time></trkpt><trkpt lat="38.3321494" lon="21.7631606"><ele>1.0</ele><time>2026-04-30T11:29:37.855Z</time></trkpt><trkpt lat="38.3322169" lon="21.7630024"><ele>1.0</ele><time>2026-04-30T11:29:38.855Z</time></trkpt><trkpt lat="38.3323242" lon="21.76282"><ele>1.0</ele><time>2026-04-30T11:29:39.855Z</time></trkpt><trkpt lat="38.3324609" lon="21.7626249"><ele>1.0</ele><time>2026-04-30T11:29:40.856Z</time></trkpt><trkpt lat="38.3326173" lon="21.7624206"><ele>1.0</ele><time>2026-04-30T11:29:41.856Z</time></trkpt><trkpt lat="38.3327962" lon="21.7621969"><ele>1.0</ele><time>2026-04-30T11:29:42.855Z</time></trkpt><trkpt lat="38.3329766" lon="21.761974"><ele>1.0</ele><time>2026-04-30T11:29:43.856Z</time></trkpt><trkpt lat="38.3331514" lon="21.7617479"><ele>1.3333333333333333</ele><time>2026-04-30T11:29:44.855Z</time></trkpt><trkpt lat="38.3333023" lon="21.7615418"><ele>1.6666666666666665</ele><time>2026-04-30T11:29:45.856Z</time></trkpt><trkpt lat="38.3334501" lon="21.7613384"><ele>2.0</ele><time>2026-04-30T11:29:46.856Z</time></trkpt><trkpt lat="38.3336" lon="21.7611347"><ele>1.6666666666666665</ele><time>2026-04-30T11:29:47.856Z</time></trkpt><trkpt lat="38.333746" lon="21.7609483"><ele>1.3333333333333333</ele><time>2026-04-30T11:29:48.855Z</time></trkpt><trkpt lat="38.3338869" lon="21.7607772"><ele>1.0</ele><time>2026-04-30T11:29:49.856Z</time></trkpt><trkpt lat="38.3340301" lon="21.760602"><ele>1.0</ele><time>2026-04-30T11:29:50.855Z</time></trkpt><trkpt lat="38.3341723" lon="21.7604298"><ele>1.0</ele><time>2026-04-30T11:29:51.856Z</time></trkpt><trkpt lat="38.3343188" lon="21.7602516"><ele>1.0</ele><time>2026-04-30T11:29:52.856Z</time></trkpt><trkpt lat="38.3344596" lon="21.7600852"><ele>1.0</ele><time>2026-04-30T11:29:53.855Z</time></trkpt><trkpt lat="38.3346164" lon="21.7599078"><ele>1.0</ele><time>2026-04-30T11:29:54.856Z</time></trkpt><trkpt lat="38.334788" lon="21.7597188"><ele>1.0</ele><time>2026-04-30T11:29:55.856Z</time></trkpt><trkpt lat="38.3349591" lon="21.7595314"><ele>2.0</ele><time>2026-04-30T11:29:56.856Z</time></trkpt><trkpt lat="38.3351287" lon="21.7593468"><ele>3.0</ele><time>2026-04-30T11:29:57.855Z</time></trkpt><trkpt lat="38.3353065" lon="21.7591548"><ele>3.0</ele><time>2026-04-30T11:29:58.856Z</time></trkpt><trkpt lat="38.3354852" lon="21.7589596"><ele>3.0</ele><time>2026-04-30T11:29:59.855Z</time></trkpt><trkpt lat="38.33567" lon="21.7587581"><ele>2.5</ele><time>2026-04-30T11:30:00.856Z</time></trkpt><trkpt lat="38.3358441" lon="21.7585665"><ele>2.0</ele><time>2026-04-30T11:30:01.855Z</time></trkpt><trkpt lat="38.3360241" lon="21.758369"><ele>2.0</ele><time>2026-04-30T11:30:02.856Z</time></trkpt><trkpt lat="38.3362101" lon="21.7581609"><ele>2.0</ele><time>2026-04-30T11:30:03.855Z</time></trkpt><trkpt lat="38.3363901" lon="21.7579501"><ele>2.0</ele><time>2026-04-30T11:30:04.855Z</time></trkpt><trkpt lat="38.3365635" lon="21.7577343"><ele>2.0</ele><time>2026-04-30T11:30:05.855Z</time></trkpt><trkpt lat="38.3367431" lon="21.7574988"><ele>2.0</ele><time>2026-04-30T11:30:06.856Z</time></trkpt><trkpt lat="38.3369224" lon="21.7572538"><ele>2.0</ele><time>2026-04-30T11:30:07.855Z</time></trkpt><trkpt lat="38.337106" lon="21.7569913"><ele>2.5</ele><time>2026-04-30T11:30:08.855Z</time></trkpt><trkpt lat="38.3372753" lon="21.7567383"><ele>3.0</ele><time>2026-04-30T11:30:09.856Z</time></trkpt><trkpt lat="38.3374437" lon="21.7564795"><ele>3.0</ele><time>2026-04-30T11:30:10.856Z</time></trkpt><trkpt lat="38.3376083" lon="21.7562228"><ele>3.0</ele><time>2026-04-30T11:30:11.855Z</time></trkpt><trkpt lat="38.3377564" lon="21.7559875"><ele>3.0</ele><time>2026-04-30T11:30:12.856Z</time></trkpt><trkpt lat="38.337886" lon="21.7557788"><ele>3.0</ele><time>2026-04-30T11:30:13.856Z</time></trkpt><trkpt lat="38.338005" lon="21.7555937"><ele>3.0</ele><time>2026-04-30T11:30:14.855Z</time></trkpt><trkpt lat="38.3381148" lon="21.7554402"><ele>3.75</ele><time>2026-04-30T11:30:15.855Z</time></trkpt><trkpt lat="38.3382213" lon="21.7553252"><ele>4.5</ele><time>2026-04-30T11:30:16.855Z</time></trkpt><trkpt lat="38.3383281" lon="21.7552591"><ele>5.25</ele><time>2026-04-30T11:30:17.856Z</time></trkpt><trkpt lat="38.338441" lon="21.7552334"><ele>6.0</ele><time>2026-04-30T11:30:18.855Z</time></trkpt><trkpt lat="38.3385432" lon="21.7552397"><ele>6.0</ele><time>2026-04-30T11:30:19.856Z</time></trkpt><trkpt lat="38.3386204" lon="21.7552579"><ele>6.0</ele><time>2026-04-30T11:30:20.855Z</time></trkpt><trkpt lat="38.338699" lon="21.7552898"><ele>6.0</ele><time>2026-04-30T11:30:22.856Z</time></trkpt><trkpt lat="38.3387889" lon="21.7553361"><ele>6.0</ele><time>2026-04-30T11:30:52.855Z</time></trkpt><trkpt lat="38.3388748" lon="21.755348"><ele>6.0</ele><time>2026-04-30T11:30:54.856Z</time></trkpt><trkpt lat="38.3389604" lon="21.7552562"><ele>6.6</ele><time>2026-04-30T11:30:56.856Z</time></trkpt><trkpt lat="38.3389868" lon="21.7551675"><ele>7.199999999999999</ele><time>2026-04-30T11:30:57.856Z</time></trkpt><trkpt lat="38.3390011" lon="21.7550452"><ele>7.800000000000001</ele><time>2026-04-30T11:30:58.856Z</time></trkpt><trkpt lat="38.3389988" lon="21.7548785"><ele>8.4</ele><time>2026-04-30T11:30:59.856Z</time></trkpt><trkpt lat="38.3389841" lon="21.754698"><ele>9.0</ele><time>2026-04-30T11:31:00.855Z</time></trkpt><trkpt lat="38.3389642" lon="21.7545141"><ele>9.0</ele><time>2026-04-30T11:31:01.856Z</time></trkpt><trkpt lat="38.3389417" lon="21.7543142"><ele>9.0</ele><time>2026-04-30T11:31:02.855Z</time></trkpt><trkpt lat="38.3389186" lon="21.7541034"><ele>9.0</ele><time>2026-04-30T11:31:03.855Z</time></trkpt><trkpt lat="38.3388919" lon="21.7538829"><ele>8.333333333333334</ele><time>2026-04-30T11:31:04.856Z</time></trkpt><trkpt lat="38.3388657" lon="21.7536756"><ele>7.666666666666667</ele><time>2026-04-30T11:31:05.855Z</time></trkpt><trkpt lat="38.3388363" lon="21.7534652"><ele>7.0</ele><time>2026-04-30T11:31:06.855Z</time></trkpt><trkpt lat="38.3388059" lon="21.753254"><ele>7.0</ele><time>2026-04-30T11:31:07.856Z</time></trkpt><trkpt lat="38.3387807" lon="21.7530524"><ele>7.0</ele><time>2026-04-30T11:31:08.855Z</time></trkpt><trkpt lat="38.3387575" lon="21.7528621"><ele>7.0</ele><time>2026-04-30T11:31:09.856Z</time></trkpt><trkpt lat="38.3387336" lon="21.7526628"><ele>7.0</ele><time>2026-04-30T11:31:10.856Z</time></trkpt><trkpt lat="38.3387113" lon="21.7524632"><ele>7.0</ele><time>2026-04-30T11:31:11.856Z</time></trkpt><trkpt lat="38.3386887" lon="21.7522537"><ele>7.0</ele><time>2026-04-30T11:31:12.855Z</time></trkpt><trkpt lat="38.338668" lon="21.7520515"><ele>7.0</ele><time>2026-04-30T11:31:13.856Z</time></trkpt><trkpt lat="38.3386465" lon="21.751835"><ele>7.0</ele><time>2026-04-30T11:31:14.856Z</time></trkpt><trkpt lat="38.3386235" lon="21.7516043"><ele>7.0</ele><time>2026-04-30T11:31:15.855Z</time></trkpt><trkpt lat="38.3386002" lon="21.7513741"><ele>7.0</ele><time>2026-04-30T11:31:16.856Z</time></trkpt><trkpt lat="38.3385769" lon="21.7511457"><ele>7.0</ele><time>2026-04-30T11:31:17.856Z</time></trkpt><trkpt lat="38.3385528" lon="21.7509029"><ele>7.0</ele><time>2026-04-30T11:31:18.855Z</time></trkpt><trkpt lat="38.3385271" lon="21.7506513"><ele>6.666666666666667</ele><time>2026-04-30T11:31:19.856Z</time></trkpt><trkpt lat="38.3384989" lon="21.7503827"><ele>6.333333333333334</ele><time>2026-04-30T11:31:20.855Z</time></trkpt><trkpt lat="38.3384724" lon="21.7501251"><ele>6.0</ele><time>2026-04-30T11:31:21.855Z</time></trkpt><trkpt lat="38.3384424" lon="21.7498436"><ele>6.0</ele><time>2026-04-30T11:31:22.856Z</time></trkpt><trkpt lat="38.3384054" lon="21.7495279"><ele>6.0</ele><time>2026-04-30T11:31:23.855Z</time></trkpt><trkpt lat="38.338367" lon="21.7491953"><ele>6.0</ele><time>2026-04-30T11:31:24.855Z</time></trkpt><trkpt lat="38.338329" lon="21.7488604"><ele>6.0</ele><time>2026-04-30T11:31:25.856Z</time></trkpt><trkpt lat="38.3382929" lon="21.7485027"><ele>5.5</ele><time>2026-04-30T11:31:26.856Z</time></trkpt><trkpt lat="38.3382599" lon="21.7481386"><ele>5.0</ele><time>2026-04-30T11:31:27.856Z</time></trkpt><trkpt lat="38.3382257" lon="21.7477611"><ele>6.0</ele><time>2026-04-30T11:31:28.856Z</time></trkpt><trkpt lat="38.3381919" lon="21.7474066"><ele>7.0</ele><time>2026-04-30T11:31:29.855Z</time></trkpt><trkpt lat="38.3381541" lon="21.7470401"><ele>7.0</ele><time>2026-04-30T11:31:30.855Z</time></trkpt><trkpt lat="38.3381159" lon="21.7466767"><ele>7.0</ele><time>2026-04-30T11:31:31.855Z</time></trkpt><trkpt lat="38.3380821" lon="21.7463441"><ele>7.0</ele><time>2026-04-30T11:31:32.855Z</time></trkpt><trkpt lat="38.3380468" lon="21.7460058"><ele>7.0</ele><time>2026-04-30T11:31:33.856Z</time></trkpt><trkpt lat="38.3380108" lon="21.7456728"><ele>7.0</ele><time>2026-04-30T11:31:34.856Z</time></trkpt><trkpt lat="38.3379748" lon="21.745346"><ele>7.0</ele><time>2026-04-30T11:31:35.855Z</time></trkpt><trkpt lat="38.3379403" lon="21.7450263"><ele>8.0</ele><time>2026-04-30T11:31:36.855Z</time></trkpt><trkpt lat="38.3379104" lon="21.7447155"><ele>9.0</ele><time>2026-04-30T11:31:37.856Z</time></trkpt><trkpt lat="38.3378848" lon="21.7444203"><ele>9.0</ele><time>2026-04-30T11:31:38.856Z</time></trkpt><trkpt lat="38.3378678" lon="21.7441239"><ele>9.0</ele><time>2026-04-30T11:31:39.856Z</time></trkpt><trkpt lat="38.3378593" lon="21.7438531"><ele>9.0</ele><time>2026-04-30T11:31:40.855Z</time></trkpt><trkpt lat="38.3378576" lon="21.7435755"><ele>9.333333333333334</ele><time>2026-04-30T11:31:41.855Z</time></trkpt><trkpt lat="38.3378647" lon="21.7433003"><ele>9.666666666666668</ele><time>2026-04-30T11:31:42.855Z</time></trkpt><trkpt lat="38.3378754" lon="21.7430237"><ele>10.0</ele><time>2026-04-30T11:31:43.856Z</time></trkpt><trkpt lat="38.3378926" lon="21.7427403"><ele>10.0</ele><time>2026-04-30T11:31:44.855Z</time></trkpt><trkpt lat="38.3379183" lon="21.742447"><ele>10.0</ele><time>2026-04-30T11:31:45.856Z</time></trkpt><trkpt lat="38.3379515" lon="21.742153"><ele>10.5</ele><time>2026-04-30T11:31:46.856Z</time></trkpt><trkpt lat="38.3379937" lon="21.7418506"><ele>11.0</ele><time>2026-04-30T11:31:47.856Z</time></trkpt><trkpt lat="38.3380382" lon="21.7415691"><ele>10.5</ele><time>2026-04-30T11:31:48.855Z</time></trkpt><trkpt lat="38.3380871" lon="21.7412795"><ele>10.0</ele><time>2026-04-30T11:31:49.856Z</time></trkpt><trkpt lat="38.3381364" lon="21.7409913"><ele>10.0</ele><time>2026-04-30T11:31:50.856Z</time></trkpt><trkpt lat="38.3381859" lon="21.7407036"><ele>10.0</ele><time>2026-04-30T11:31:51.856Z</time></trkpt><trkpt lat="38.3382348" lon="21.7404142"><ele>10.0</ele><time>2026-04-30T11:31:52.855Z</time></trkpt><trkpt lat="38.3382852" lon="21.7401238"><ele>10.0</ele><time>2026-04-30T11:31:53.856Z</time></trkpt><trkpt lat="38.3383367" lon="21.739833"><ele>10.0</ele><time>2026-04-30T11:31:54.855Z</time></trkpt><trkpt lat="38.3383902" lon="21.7395322"><ele>10.0</ele><time>2026-04-30T11:31:55.856Z</time></trkpt><trkpt lat="38.3384403" lon="21.7392504"><ele>9.0</ele><time>2026-04-30T11:31:56.856Z</time></trkpt><trkpt lat="38.3384902" lon="21.7389636"><ele>8.0</ele><time>2026-04-30T11:31:57.856Z</time></trkpt><trkpt lat="38.3385415" lon="21.7386843"><ele>7.666666666666666</ele><time>2026-04-30T11:31:58.856Z</time></trkpt><trkpt lat="38.338594" lon="21.7384124"><ele>7.333333333333334</ele><time>2026-04-30T11:31:59.856Z</time></trkpt><trkpt lat="38.33865" lon="21.7381455"><ele>7.0</ele><time>2026-04-30T11:32:00.855Z</time></trkpt><trkpt lat="38.3387117" lon="21.7378828"><ele>7.0</ele><time>2026-04-30T11:32:01.855Z</time></trkpt><trkpt lat="38.3387782" lon="21.7376207"><ele>7.0</ele><time>2026-04-30T11:32:02.855Z</time></trkpt><trkpt lat="38.3388518" lon="21.7373504"><ele>7.0</ele><time>2026-04-30T11:32:03.855Z</time></trkpt><trkpt lat="38.3389264" lon="21.7370978"><ele>7.666666666666667</ele><time>2026-04-30T11:32:04.856Z</time></trkpt><trkpt lat="38.3390078" lon="21.7368349"><ele>8.333333333333334</ele><time>2026-04-30T11:32:05.855Z</time></trkpt><trkpt lat="38.3390959" lon="21.7365717"><ele>9.0</ele><time>2026-04-30T11:32:06.856Z</time></trkpt><trkpt lat="38.3391917" lon="21.7363067"><ele>8.0</ele><time>2026-04-30T11:32:07.856Z</time></trkpt><trkpt lat="38.3392935" lon="21.736041"><ele>7.0</ele><time>2026-04-30T11:32:08.855Z</time></trkpt><trkpt lat="38.3393991" lon="21.7357752"><ele>7.0</ele><time>2026-04-30T11:32:09.856Z</time></trkpt><trkpt lat="38.3395075" lon="21.7355114"><ele>7.0</ele><time>2026-04-30T11:32:10.856Z</time></trkpt><trkpt lat="38.3396182" lon="21.7352381"><ele>8.5</ele><time>2026-04-30T11:32:11.856Z</time></trkpt><trkpt lat="38.3397229" lon="21.7349823"><ele>10.0</ele><time>2026-04-30T11:32:12.855Z</time></trkpt><trkpt lat="38.3398299" lon="21.7347177"><ele>10.0</ele><time>2026-04-30T11:32:13.856Z</time></trkpt><trkpt lat="38.3399377" lon="21.7344532"><ele>10.0</ele><time>2026-04-30T11:32:14.856Z</time></trkpt><trkpt lat="38.3400465" lon="21.7341882"><ele>8.5</ele><time>2026-04-30T11:32:15.856Z</time></trkpt><trkpt lat="38.3401551" lon="21.7339236"><ele>7.0</ele><time>2026-04-30T11:32:16.856Z</time></trkpt><trkpt lat="38.3402648" lon="21.7336605"><ele>6.0</ele><time>2026-04-30T11:32:17.855Z</time></trkpt><trkpt lat="38.3403742" lon="21.7333977"><ele>5.0</ele><time>2026-04-30T11:32:18.855Z</time></trkpt><trkpt lat="38.3404877" lon="21.7331277"><ele>5.0</ele><time>2026-04-30T11:32:19.855Z</time></trkpt><trkpt lat="38.3405936" lon="21.7328717"><ele>5.0</ele><time>2026-04-30T11:32:20.856Z</time></trkpt><trkpt lat="38.3407032" lon="21.7326079"><ele>5.0</ele><time>2026-04-30T11:32:21.856Z</time></trkpt><trkpt lat="38.3408137" lon="21.732343"><ele>5.0</ele><time>2026-04-30T11:32:22.855Z</time></trkpt><trkpt lat="38.3409221" lon="21.7320782"><ele>5.0</ele><time>2026-04-30T11:32:23.856Z</time></trkpt><trkpt lat="38.3410316" lon="21.7318135"><ele>5.0</ele><time>2026-04-30T11:32:24.856Z</time></trkpt><trkpt lat="38.3411397" lon="21.7315475"><ele>5.0</ele><time>2026-04-30T11:32:25.855Z</time></trkpt><trkpt lat="38.3412477" lon="21.7312818"><ele>5.0</ele><time>2026-04-30T11:32:26.856Z</time></trkpt><trkpt lat="38.341358" lon="21.7310075"><ele>6.0</ele><time>2026-04-30T11:32:27.856Z</time></trkpt><trkpt lat="38.3414618" lon="21.7307518"><ele>7.0</ele><time>2026-04-30T11:32:28.855Z</time></trkpt><trkpt lat="38.3415674" lon="21.7304913"><ele>7.0</ele><time>2026-04-30T11:32:29.856Z</time></trkpt><trkpt lat="38.3416772" lon="21.7302276"><ele>7.0</ele><time>2026-04-30T11:32:30.856Z</time></trkpt><trkpt lat="38.3417855" lon="21.7299676"><ele>7.5</ele><time>2026-04-30T11:32:31.856Z</time></trkpt><trkpt lat="38.3418954" lon="21.7297095"><ele>8.0</ele><time>2026-04-30T11:32:32.855Z</time></trkpt><trkpt lat="38.3420052" lon="21.7294502"><ele>7.5</ele><time>2026-04-30T11:32:33.856Z</time></trkpt><trkpt lat="38.3421169" lon="21.7291879"><ele>7.0</ele><time>2026-04-30T11:32:34.855Z</time></trkpt><trkpt lat="38.3422365" lon="21.7289159"><ele>8.5</ele><time>2026-04-30T11:32:35.855Z</time></trkpt><trkpt lat="38.3423535" lon="21.7286612"><ele>10.0</ele><time>2026-04-30T11:32:36.855Z</time></trkpt><trkpt lat="38.3424779" lon="21.7283986"><ele>10.0</ele><time>2026-04-30T11:32:37.856Z</time></trkpt><trkpt lat="38.3426051" lon="21.7281342"><ele>10.0</ele><time>2026-04-30T11:32:38.855Z</time></trkpt><trkpt lat="38.3427361" lon="21.7278697"><ele>10.0</ele><time>2026-04-30T11:32:39.855Z</time></trkpt><trkpt lat="38.342871" lon="21.7276067"><ele>10.0</ele><time>2026-04-30T11:32:40.855Z</time></trkpt><trkpt lat="38.34301" lon="21.7273454"><ele>11.0</ele><time>2026-04-30T11:32:41.856Z</time></trkpt><trkpt lat="38.3431549" lon="21.7270821"><ele>12.0</ele><time>2026-04-30T11:32:42.855Z</time></trkpt><trkpt lat="38.3433101" lon="21.7268055"><ele>12.0</ele><time>2026-04-30T11:32:43.855Z</time></trkpt><trkpt lat="38.3434628" lon="21.726542"><ele>12.0</ele><time>2026-04-30T11:32:44.856Z</time></trkpt><trkpt lat="38.3436259" lon="21.7262691"><ele>11.0</ele><time>2026-04-30T11:32:45.855Z</time></trkpt><trkpt lat="38.3437927" lon="21.7259918"><ele>10.0</ele><time>2026-04-30T11:32:46.855Z</time></trkpt><trkpt lat="38.3439663" lon="21.7257074"><ele>9.5</ele><time>2026-04-30T11:32:47.855Z</time></trkpt><trkpt lat="38.3441421" lon="21.725419"><ele>9.0</ele><time>2026-04-30T11:32:48.855Z</time></trkpt><trkpt lat="38.3443189" lon="21.7251243"><ele>8.0</ele><time>2026-04-30T11:32:49.855Z</time></trkpt><trkpt lat="38.3444949" lon="21.7248297"><ele>7.0</ele><time>2026-04-30T11:32:50.855Z</time></trkpt><trkpt lat="38.3446771" lon="21.7245285"><ele>8.5</ele><time>2026-04-30T11:32:51.856Z</time></trkpt><trkpt lat="38.3448463" lon="21.7242472"><ele>10.0</ele><time>2026-04-30T11:32:52.855Z</time></trkpt><trkpt lat="38.3450183" lon="21.7239563"><ele>10.0</ele><time>2026-04-30T11:32:53.856Z</time></trkpt><trkpt lat="38.3451901" lon="21.723665"><ele>10.0</ele><time>2026-04-30T11:32:54.856Z</time></trkpt><trkpt lat="38.345361" lon="21.7233712"><ele>10.5</ele><time>2026-04-30T11:32:55.856Z</time></trkpt><trkpt lat="38.345531" lon="21.723078"><ele>11.0</ele><time>2026-04-30T11:32:56.855Z</time></trkpt><trkpt lat="38.3457013" lon="21.7227867"><ele>9.5</ele><time>2026-04-30T11:32:57.856Z</time></trkpt><trkpt lat="38.3458716" lon="21.7224977"><ele>8.0</ele><time>2026-04-30T11:32:58.855Z</time></trkpt><trkpt lat="38.3460483" lon="21.722201"><ele>8.0</ele><time>2026-04-30T11:32:59.856Z</time></trkpt><trkpt lat="38.3462148" lon="21.7219244"><ele>8.0</ele><time>2026-04-30T11:33:00.856Z</time></trkpt><trkpt lat="38.3463876" lon="21.7216375"><ele>8.0</ele><time>2026-04-30T11:33:01.855Z</time></trkpt><trkpt lat="38.3465605" lon="21.721349"><ele>8.0</ele><time>2026-04-30T11:33:02.856Z</time></trkpt><trkpt lat="38.3467336" lon="21.7210596"><ele>8.0</ele><time>2026-04-30T11:33:03.855Z</time></trkpt><trkpt lat="38.3469056" lon="21.720771"><ele>8.0</ele><time>2026-04-30T11:33:04.856Z</time></trkpt><trkpt lat="38.3470772" lon="21.720483"><ele>7.5</ele><time>2026-04-30T11:33:05.856Z</time></trkpt><trkpt lat="38.3472495" lon="21.7201945"><ele>7.0</ele><time>2026-04-30T11:33:06.855Z</time></trkpt><trkpt lat="38.3474267" lon="21.7198966"><ele>7.0</ele><time>2026-04-30T11:33:07.856Z</time></trkpt><trkpt lat="38.3475898" lon="21.7196144"><ele>7.0</ele><time>2026-04-30T11:33:08.856Z</time></trkpt><trkpt lat="38.3477556" lon="21.7193191"><ele>7.0</ele><time>2026-04-30T11:33:09.856Z</time></trkpt><trkpt lat="38.3479167" lon="21.7190191"><ele>7.0</ele><time>2026-04-30T11:33:10.856Z</time></trkpt><trkpt lat="38.348075" lon="21.7187157"><ele>8.0</ele><time>2026-04-30T11:33:11.855Z</time></trkpt><trkpt lat="38.3482309" lon="21.7184102"><ele>9.0</ele><time>2026-04-30T11:33:12.856Z</time></trkpt><trkpt lat="38.3483836" lon="21.7181024"><ele>9.0</ele><time>2026-04-30T11:33:13.856Z</time></trkpt><trkpt lat="38.3485335" lon="21.7177942"><ele>9.0</ele><time>2026-04-30T11:33:14.855Z</time></trkpt><trkpt lat="38.3486845" lon="21.7174726"><ele>9.0</ele><time>2026-04-30T11:33:15.856Z</time></trkpt><trkpt lat="38.3488218" lon="21.7171663"><ele>9.0</ele><time>2026-04-30T11:33:16.855Z</time></trkpt><trkpt lat="38.348962" lon="21.7168452"><ele>9.0</ele><time>2026-04-30T11:33:17.856Z</time></trkpt><trkpt lat="38.3491017" lon="21.7165235"><ele>9.0</ele><time>2026-04-30T11:33:18.855Z</time></trkpt><trkpt lat="38.3492421" lon="21.7162029"><ele>9.0</ele><time>2026-04-30T11:33:19.856Z</time></trkpt><trkpt lat="38.3493828" lon="21.7158821"><ele>9.0</ele><time>2026-04-30T11:33:20.855Z</time></trkpt><trkpt lat="38.3495238" lon="21.7155619"><ele>9.0</ele><time>2026-04-30T11:33:21.855Z</time></trkpt><trkpt lat="38.3496638" lon="21.7152426"><ele>9.0</ele><time>2026-04-30T11:33:22.855Z</time></trkpt><trkpt lat="38.349807" lon="21.7149146"><ele>9.0</ele><time>2026-04-30T11:33:23.855Z</time></trkpt><trkpt lat="38.3499409" lon="21.7146088"><ele>9.0</ele><time>2026-04-30T11:33:24.856Z</time></trkpt><trkpt lat="38.3500788" lon="21.7142941"><ele>8.5</ele><time>2026-04-30T11:33:25.855Z</time></trkpt><trkpt lat="38.3502167" lon="21.7139775"><ele>8.0</ele><time>2026-04-30T11:33:26.856Z</time></trkpt><trkpt lat="38.3503551" lon="21.7136577"><ele>7.5</ele><time>2026-04-30T11:33:27.855Z</time></trkpt><trkpt lat="38.3504936" lon="21.7133346"><ele>7.0</ele><time>2026-04-30T11:33:28.855Z</time></trkpt><trkpt lat="38.3506309" lon="21.7130136"><ele>8.0</ele><time>2026-04-30T11:33:29.856Z</time></trkpt><trkpt lat="38.350769" lon="21.7126877"><ele>9.0</ele><time>2026-04-30T11:33:30.856Z</time></trkpt><trkpt lat="38.3509117" lon="21.7123605"><ele>9.0</ele><time>2026-04-30T11:33:31.856Z</time></trkpt><trkpt lat="38.351046" lon="21.7120616"><ele>9.0</ele><time>2026-04-30T11:33:32.855Z</time></trkpt><trkpt lat="38.351179" lon="21.7117602"><ele>8.0</ele><time>2026-04-30T11:33:33.855Z</time></trkpt><trkpt lat="38.3513094" lon="21.7114621"><ele>7.0</ele><time>2026-04-30T11:33:34.856Z</time></trkpt><trkpt lat="38.3514411" lon="21.7111652"><ele>10.5</ele><time>2026-04-30T11:33:35.855Z</time></trkpt><trkpt lat="38.3515765" lon="21.710868"><ele>14.0</ele><time>2026-04-30T11:33:36.856Z</time></trkpt><trkpt lat="38.3517154" lon="21.7105694"><ele>14.0</ele><time>2026-04-30T11:33:37.856Z</time></trkpt><trkpt lat="38.3518587" lon="21.7102696"><ele>14.0</ele><time>2026-04-30T11:33:38.855Z</time></trkpt><trkpt lat="38.3520076" lon="21.7099564"><ele>14.5</ele><time>2026-04-30T11:33:39.856Z</time></trkpt><trkpt lat="38.3521514" lon="21.7096662"><ele>15.0</ele><time>2026-04-30T11:33:40.855Z</time></trkpt><trkpt lat="38.3523" lon="21.7093748"><ele>15.0</ele><time>2026-04-30T11:33:41.855Z</time></trkpt><trkpt lat="38.3524389" lon="21.7091011"><ele>15.0</ele><time>2026-04-30T11:33:42.855Z</time></trkpt><trkpt lat="38.3525671" lon="21.7088581"><ele>15.0</ele><time>2026-04-30T11:33:43.856Z</time></trkpt><trkpt lat="38.3526868" lon="21.7086494"><ele>15.0</ele><time>2026-04-30T11:33:44.856Z</time></trkpt><trkpt lat="38.3527985" lon="21.7084597"><ele>15.0</ele><time>2026-04-30T11:33:45.856Z</time></trkpt><trkpt lat="38.3529089" lon="21.7082924"><ele>15.5</ele><time>2026-04-30T11:33:46.856Z</time></trkpt><trkpt lat="38.3530222" lon="21.7081449"><ele>16.0</ele><time>2026-04-30T11:33:47.856Z</time></trkpt><trkpt lat="38.3531273" lon="21.7080293"><ele>16.5</ele><time>2026-04-30T11:33:48.855Z</time></trkpt><trkpt lat="38.3532352" lon="21.7079356"><ele>17.0</ele><time>2026-04-30T11:33:49.856Z</time></trkpt><trkpt lat="38.3533491" lon="21.7078647"><ele>17.0</ele><time>2026-04-30T11:33:50.855Z</time></trkpt><trkpt lat="38.3534723" lon="21.7078116"><ele>17.0</ele><time>2026-04-30T11:33:51.856Z</time></trkpt><trkpt lat="38.3536079" lon="21.7077725"><ele>17.0</ele><time>2026-04-30T11:33:52.855Z</time></trkpt><trkpt lat="38.3537518" lon="21.7077527"><ele>17.0</ele><time>2026-04-30T11:33:53.855Z</time></trkpt><trkpt lat="38.353891" lon="21.7077488"><ele>17.6</ele><time>2026-04-30T11:33:54.856Z</time></trkpt><trkpt lat="38.354026" lon="21.7077472"><ele>18.2</ele><time>2026-04-30T11:33:55.855Z</time></trkpt><trkpt lat="38.3541184" lon="21.7077576"><ele>18.8</ele><time>2026-04-30T11:33:56.856Z</time></trkpt><trkpt lat="38.354192" lon="21.7077849"><ele>19.4</ele><time>2026-04-30T11:33:57.856Z</time></trkpt><trkpt lat="38.3542537" lon="21.7078385"><ele>20.0</ele><time>2026-04-30T11:33:58.856Z</time></trkpt><trkpt lat="38.3543228" lon="21.7078695"><ele>20.0</ele><time>2026-04-30T11:33:59.856Z</time></trkpt><trkpt lat="38.3543889" lon="21.707865"><ele>20.0</ele><time>2026-04-30T11:34:00.856Z</time></trkpt><trkpt lat="38.354471" lon="21.7077453"><ele>20.0</ele><time>2026-04-30T11:34:02.855Z</time></trkpt><trkpt lat="38.3544708" lon="21.7076468"><ele>20.0</ele><time>2026-04-30T11:34:03.855Z</time></trkpt><trkpt lat="38.3544582" lon="21.7075455"><ele>20.0</ele><time>2026-04-30T11:34:04.856Z</time></trkpt><trkpt lat="38.354455" lon="21.7074217"><ele>20.0</ele><time>2026-04-30T11:34:05.855Z</time></trkpt><trkpt lat="38.3544684" lon="21.7072668"><ele>19.5</ele><time>2026-04-30T11:34:06.856Z</time></trkpt><trkpt lat="38.3544936" lon="21.7070902"><ele>19.0</ele><time>2026-04-30T11:34:07.856Z</time></trkpt><trkpt lat="38.3545212" lon="21.7069081"><ele>18.5</ele><time>2026-04-30T11:34:08.856Z</time></trkpt><trkpt lat="38.3545525" lon="21.7067195"><ele>18.0</ele><time>2026-04-30T11:34:09.855Z</time></trkpt><trkpt lat="38.3545858" lon="21.7065256"><ele>18.0</ele><time>2026-04-30T11:34:10.856Z</time></trkpt><trkpt lat="38.3546215" lon="21.7063217"><ele>18.0</ele><time>2026-04-30T11:34:11.856Z</time></trkpt><trkpt lat="38.3546572" lon="21.7061256"><ele>18.0</ele><time>2026-04-30T11:34:12.856Z</time></trkpt><trkpt lat="38.3546948" lon="21.705914"><ele>19.666666666666668</ele><time>2026-04-30T11:34:13.855Z</time></trkpt><trkpt lat="38.3547324" lon="21.7056948"><ele>21.333333333333336</ele><time>2026-04-30T11:34:14.856Z</time></trkpt><trkpt lat="38.3547709" lon="21.7054796"><ele>23.0</ele><time>2026-04-30T11:34:15.856Z</time></trkpt><trkpt lat="38.3548144" lon="21.7052693"><ele>24.0</ele><time>2026-04-30T11:34:16.856Z</time></trkpt><trkpt lat="38.3548711" lon="21.7050656"><ele>25.0</ele><time>2026-04-30T11:34:17.855Z</time></trkpt><trkpt lat="38.3549474" lon="21.7048596"><ele>26.0</ele><time>2026-04-30T11:34:18.856Z</time></trkpt><trkpt lat="38.3550448" lon="21.7046377"><ele>26.0</ele><time>2026-04-30T11:34:19.856Z</time></trkpt><trkpt lat="38.3551492" lon="21.7044176"><ele>26.0</ele><time>2026-04-30T11:34:20.855Z</time></trkpt><trkpt lat="38.3552658" lon="21.7041873"><ele>26.0</ele><time>2026-04-30T11:34:21.856Z</time></trkpt><trkpt lat="38.3553844" lon="21.7039594"><ele>26.0</ele><time>2026-04-30T11:34:22.855Z</time></trkpt><trkpt lat="38.3554979" lon="21.7037321"><ele>26.0</ele><time>2026-04-30T11:34:23.856Z</time></trkpt><trkpt lat="38.3555993" lon="21.703503"><ele>26.0</ele><time>2026-04-30T11:34:24.856Z</time></trkpt><trkpt lat="38.3556863" lon="21.7032679"><ele>28.0</ele><time>2026-04-30T11:34:25.856Z</time></trkpt><trkpt lat="38.3557568" lon="21.703024"><ele>30.0</ele><time>2026-04-30T11:34:26.855Z</time></trkpt><trkpt lat="38.3558075" lon="21.7027619"><ele>32.0</ele><time>2026-04-30T11:34:27.855Z</time></trkpt><trkpt lat="38.3558332" lon="21.7025049"><ele>35.5</ele><time>2026-04-30T11:34:28.856Z</time></trkpt><trkpt lat="38.3558367" lon="21.7022269"><ele>39.0</ele><time>2026-04-30T11:34:29.855Z</time></trkpt><trkpt lat="38.3558141" lon="21.7019311"><ele>43.0</ele><time>2026-04-30T11:34:30.856Z</time></trkpt><trkpt lat="38.3557695" lon="21.7016192"><ele>47.0</ele><time>2026-04-30T11:34:31.855Z</time></trkpt><trkpt lat="38.3557088" lon="21.7012942"><ele>51.5</ele><time>2026-04-30T11:34:32.856Z</time></trkpt><trkpt lat="38.3556424" lon="21.7009731"><ele>56.0</ele><time>2026-04-30T11:34:33.855Z</time></trkpt><trkpt lat="38.3555718" lon="21.7006451"><ele>50.0</ele><time>2026-04-30T11:34:34.855Z</time></trkpt><trkpt lat="38.3554987" lon="21.7003087"><ele>44.0</ele><time>2026-04-30T11:34:35.855Z</time></trkpt><trkpt lat="38.355431" lon="21.6999989"><ele>44.0</ele><time>2026-04-30T11:34:36.855Z</time></trkpt><trkpt lat="38.3553628" lon="21.699701"><ele>44.0</ele><time>2026-04-30T11:34:37.855Z</time></trkpt><trkpt lat="38.3552885" lon="21.6994234"><ele>47.5</ele><time>2026-04-30T11:34:38.856Z</time></trkpt><trkpt lat="38.3551942" lon="21.6991631"><ele>51.0</ele><time>2026-04-30T11:34:39.856Z</time></trkpt><trkpt lat="38.3550725" lon="21.6989161"><ele>51.0</ele><time>2026-04-30T11:34:40.855Z</time></trkpt><trkpt lat="38.3549177" lon="21.6986872"><ele>51.0</ele><time>2026-04-30T11:34:41.856Z</time></trkpt><trkpt lat="38.3547304" lon="21.6984771"><ele>51.0</ele><time>2026-04-30T11:34:42.855Z</time></trkpt><trkpt lat="38.354512" lon="21.6982781"><ele>51.0</ele><time>2026-04-30T11:34:43.855Z</time></trkpt><trkpt lat="38.3543084" lon="21.69811"><ele>51.0</ele><time>2026-04-30T11:34:44.856Z</time></trkpt><trkpt lat="38.3541057" lon="21.697951"><ele>51.0</ele><time>2026-04-30T11:34:45.856Z</time></trkpt><trkpt lat="38.3539051" lon="21.6977922"><ele>60.5</ele><time>2026-04-30T11:34:46.855Z</time></trkpt><trkpt lat="38.3537025" lon="21.6976327"><ele>70.0</ele><time>2026-04-30T11:34:47.855Z</time></trkpt><trkpt lat="38.3534994" lon="21.6974759"><ele>70.0</ele><time>2026-04-30T11:34:48.856Z</time></trkpt><trkpt lat="38.3533013" lon="21.6973194"><ele>70.0</ele><time>2026-04-30T11:34:49.855Z</time></trkpt><trkpt lat="38.3531121" lon="21.6971578"><ele>72.33333333333333</ele><time>2026-04-30T11:34:50.855Z</time></trkpt><trkpt lat="38.3529309" lon="21.6969774"><ele>74.66666666666667</ele><time>2026-04-30T11:34:51.855Z</time></trkpt><trkpt lat="38.3527752" lon="21.6967915"><ele>77.0</ele><time>2026-04-30T11:34:52.855Z</time></trkpt><trkpt lat="38.3526274" lon="21.6965745"><ele>77.0</ele><time>2026-04-30T11:34:53.855Z</time></trkpt><trkpt lat="38.3524905" lon="21.6963347"><ele>77.0</ele><time>2026-04-30T11:34:54.856Z</time></trkpt><trkpt lat="38.3523595" lon="21.69608"><ele>82.5</ele><time>2026-04-30T11:34:55.855Z</time></trkpt><trkpt lat="38.3522312" lon="21.6958134"><ele>88.0</ele><time>2026-04-30T11:34:56.856Z</time></trkpt><trkpt lat="38.3520974" lon="21.6955384"><ele>85.5</ele><time>2026-04-30T11:34:57.855Z</time></trkpt><trkpt lat="38.3519567" lon="21.6952578"><ele>83.0</ele><time>2026-04-30T11:34:58.855Z</time></trkpt><trkpt lat="38.3518055" lon="21.6949645"><ele>83.0</ele><time>2026-04-30T11:34:59.855Z</time></trkpt><trkpt lat="38.3516571" lon="21.6946919"><ele>83.0</ele><time>2026-04-30T11:35:00.855Z</time></trkpt><trkpt lat="38.3514938" lon="21.6944141"><ele>76.5</ele><time>2026-04-30T11:35:01.855Z</time></trkpt><trkpt lat="38.351319" lon="21.6941427"><ele>70.0</ele><time>2026-04-30T11:35:02.855Z</time></trkpt><trkpt lat="38.3511337" lon="21.6938804"><ele>70.0</ele><time>2026-04-30T11:35:03.855Z</time></trkpt><trkpt lat="38.3509414" lon="21.6936241"><ele>70.0</ele><time>2026-04-30T11:35:04.855Z</time></trkpt><trkpt lat="38.350742" lon="21.6933731"><ele>66.5</ele><time>2026-04-30T11:35:05.855Z</time></trkpt><trkpt lat="38.3505374" lon="21.6931294"><ele>63.0</ele><time>2026-04-30T11:35:06.855Z</time></trkpt><trkpt lat="38.3503223" lon="21.6928867"><ele>77.5</ele><time>2026-04-30T11:35:07.856Z</time></trkpt><trkpt lat="38.350127" lon="21.6926665"><ele>92.0</ele><time>2026-04-30T11:35:08.855Z</time></trkpt><trkpt lat="38.3499319" lon="21.6924502"><ele>92.0</ele><time>2026-04-30T11:35:09.856Z</time></trkpt><trkpt lat="38.3497445" lon="21.692239"><ele>92.0</ele><time>2026-04-30T11:35:10.856Z</time></trkpt><trkpt lat="38.3495689" lon="21.6920285"><ele>92.0</ele><time>2026-04-30T11:35:11.856Z</time></trkpt><trkpt lat="38.3493977" lon="21.6918062"><ele>92.0</ele><time>2026-04-30T11:35:12.855Z</time></trkpt><trkpt lat="38.3492401" lon="21.6915699"><ele>92.0</ele><time>2026-04-30T11:35:13.855Z</time></trkpt><trkpt lat="38.3490944" lon="21.6913219"><ele>92.0</ele><time>2026-04-30T11:35:14.856Z</time></trkpt><trkpt lat="38.3489577" lon="21.6910748"><ele>84.66666666666667</ele><time>2026-04-30T11:35:15.856Z</time></trkpt><trkpt lat="38.3488368" lon="21.6908417"><ele>77.33333333333333</ele><time>2026-04-30T11:35:16.855Z</time></trkpt><trkpt lat="38.3487184" lon="21.6905928"><ele>70.0</ele><time>2026-04-30T11:35:17.856Z</time></trkpt><trkpt lat="38.3486148" lon="21.6903272"><ele>78.5</ele><time>2026-04-30T11:35:18.855Z</time></trkpt><trkpt lat="38.3485339" lon="21.690041"><ele>87.0</ele><time>2026-04-30T11:35:19.856Z</time></trkpt><trkpt lat="38.348475" lon="21.6897384"><ele>87.0</ele><time>2026-04-30T11:35:20.856Z</time></trkpt><trkpt lat="38.3484385" lon="21.6894275"><ele>87.0</ele><time>2026-04-30T11:35:21.856Z</time></trkpt><trkpt lat="38.3484029" lon="21.6891216"><ele>89.66666666666667</ele><time>2026-04-30T11:35:22.856Z</time></trkpt><trkpt lat="38.3483632" lon="21.6888263"><ele>92.33333333333334</ele><time>2026-04-30T11:35:23.856Z</time></trkpt><trkpt lat="38.3483108" lon="21.6885724"><ele>95.0</ele><time>2026-04-30T11:35:24.856Z</time></trkpt><trkpt lat="38.3482323" lon="21.6883409"><ele>100.0</ele><time>2026-04-30T11:35:25.856Z</time></trkpt><trkpt lat="38.3481354" lon="21.6881338"><ele>105.0</ele><time>2026-04-30T11:35:26.856Z</time></trkpt><trkpt lat="38.3480418" lon="21.6879376"><ele>110.0</ele><time>2026-04-30T11:35:27.856Z</time></trkpt><trkpt lat="38.3479722" lon="21.687726"><ele>97.33333333333333</ele><time>2026-04-30T11:35:28.856Z</time></trkpt><trkpt lat="38.347941" lon="21.6874991"><ele>84.66666666666666</ele><time>2026-04-30T11:35:29.856Z</time></trkpt><trkpt lat="38.3479332" lon="21.6872681"><ele>72.0</ele><time>2026-04-30T11:35:30.855Z</time></trkpt><trkpt lat="38.3479077" lon="21.6870254"><ele>78.0</ele><time>2026-04-30T11:35:31.856Z</time></trkpt><trkpt lat="38.3478521" lon="21.6867943"><ele>84.0</ele><time>2026-04-30T11:35:32.856Z</time></trkpt><trkpt lat="38.3477795" lon="21.6865677"><ele>90.0</ele><time>2026-04-30T11:35:33.855Z</time></trkpt><trkpt lat="38.3477153" lon="21.686339"><ele>94.0</ele><time>2026-04-30T11:35:34.855Z</time></trkpt><trkpt lat="38.3476882" lon="21.6860753"><ele>98.0</ele><time>2026-04-30T11:35:35.856Z</time></trkpt><trkpt lat="38.347673" lon="21.6857684"><ele>98.0</ele><time>2026-04-30T11:35:36.856Z</time></trkpt><trkpt lat="38.3476462" lon="21.6854561"><ele>98.0</ele><time>2026-04-30T11:35:37.855Z</time></trkpt><trkpt lat="38.3476026" lon="21.6851464"><ele>98.0</ele><time>2026-04-30T11:35:38.855Z</time></trkpt><trkpt lat="38.3475573" lon="21.684818"><ele>98.0</ele><time>2026-04-30T11:35:39.856Z</time></trkpt><trkpt lat="38.3475215" lon="21.6845104"><ele>98.0</ele><time>2026-04-30T11:35:40.856Z</time></trkpt><trkpt lat="38.3475022" lon="21.6842216"><ele>98.0</ele><time>2026-04-30T11:35:41.855Z</time></trkpt><trkpt lat="38.3475104" lon="21.6839489"><ele>98.0</ele><time>2026-04-30T11:35:42.855Z</time></trkpt><trkpt lat="38.3475379" lon="21.6836821"><ele>98.0</ele><time>2026-04-30T11:35:43.855Z</time></trkpt><trkpt lat="38.3475543" lon="21.6833899"><ele>98.0</ele><time>2026-04-30T11:35:44.855Z</time></trkpt><trkpt lat="38.3475296" lon="21.6830879"><ele>121.0</ele><time>2026-04-30T11:35:45.855Z</time></trkpt><trkpt lat="38.3474767" lon="21.6827957"><ele>144.0</ele><time>2026-04-30T11:35:46.856Z</time></trkpt><trkpt lat="38.3474356" lon="21.6825062"><ele>144.0</ele><time>2026-04-30T11:35:47.855Z</time></trkpt><trkpt lat="38.3474106" lon="21.6822339"><ele>144.0</ele><time>2026-04-30T11:35:48.856Z</time></trkpt><trkpt lat="38.34742" lon="21.6819687"><ele>144.0</ele><time>2026-04-30T11:35:49.855Z</time></trkpt><trkpt lat="38.3474532" lon="21.6817122"><ele>144.0</ele><time>2026-04-30T11:35:50.855Z</time></trkpt><trkpt lat="38.3474641" lon="21.6814496"><ele>144.0</ele><time>2026-04-30T11:35:51.855Z</time></trkpt><trkpt lat="38.3474703" lon="21.6811791"><ele>144.0</ele><time>2026-04-30T11:35:52.856Z</time></trkpt><trkpt lat="38.3474679" lon="21.6809259"><ele>144.0</ele><time>2026-04-30T11:35:53.855Z</time></trkpt><trkpt lat="38.3474723" lon="21.6806965"><ele>144.0</ele><time>2026-04-30T11:35:54.856Z</time></trkpt><trkpt lat="38.3474841" lon="21.6804596"><ele>144.0</ele><time>2026-04-30T11:35:55.856Z</time></trkpt><trkpt lat="38.3475056" lon="21.6802315"><ele>142.0</ele><time>2026-04-30T11:35:56.855Z</time></trkpt><trkpt lat="38.3475355" lon="21.680002"><ele>140.0</ele><time>2026-04-30T11:35:57.856Z</time></trkpt><trkpt lat="38.3475694" lon="21.679776"><ele>138.0</ele><time>2026-04-30T11:35:58.856Z</time></trkpt><trkpt lat="38.3476064" lon="21.6795409"><ele>135.0</ele><time>2026-04-30T11:35:59.856Z</time></trkpt><trkpt lat="38.3476456" lon="21.6792994"><ele>132.0</ele><time>2026-04-30T11:36:00.856Z</time></trkpt><trkpt lat="38.3476814" lon="21.6790697"><ele>129.0</ele><time>2026-04-30T11:36:01.856Z</time></trkpt><trkpt lat="38.3477151" lon="21.6788573"><ele>129.0</ele><time>2026-04-30T11:36:02.855Z</time></trkpt><trkpt lat="38.3477502" lon="21.6786425"><ele>129.0</ele><time>2026-04-30T11:36:03.856Z</time></trkpt><trkpt lat="38.3477855" lon="21.678445"><ele>129.0</ele><time>2026-04-30T11:36:04.856Z</time></trkpt><trkpt lat="38.3478259" lon="21.6782526"><ele>122.66666666666666</ele><time>2026-04-30T11:36:05.856Z</time></trkpt><trkpt lat="38.3478729" lon="21.6780688"><ele>116.33333333333333</ele><time>2026-04-30T11:36:06.856Z</time></trkpt><trkpt lat="38.3479314" lon="21.6778794"><ele>110.0</ele><time>2026-04-30T11:36:07.856Z</time></trkpt><trkpt lat="38.3479965" lon="21.6776822"><ele>130.33333333333331</ele><time>2026-04-30T11:36:08.856Z</time></trkpt><trkpt lat="38.3480624" lon="21.6774916"><ele>150.66666666666666</ele><time>2026-04-30T11:36:09.855Z</time></trkpt><trkpt lat="38.3481257" lon="21.6773051"><ele>171.0</ele><time>2026-04-30T11:36:10.856Z</time></trkpt><trkpt lat="38.3481954" lon="21.677106"><ele>166.0</ele><time>2026-04-30T11:36:11.856Z</time></trkpt><trkpt lat="38.3482657" lon="21.6769143"><ele>161.0</ele><time>2026-04-30T11:36:12.856Z</time></trkpt><trkpt lat="38.348337" lon="21.6767234"><ele>156.0</ele><time>2026-04-30T11:36:13.856Z</time></trkpt><trkpt lat="38.3484048" lon="21.6765392"><ele>156.0</ele><time>2026-04-30T11:36:14.855Z</time></trkpt><trkpt lat="38.3484763" lon="21.6763476"><ele>156.0</ele><time>2026-04-30T11:36:15.856Z</time></trkpt><trkpt lat="38.3485474" lon="21.6761513"><ele>156.0</ele><time>2026-04-30T11:36:16.856Z</time></trkpt><trkpt lat="38.3486118" lon="21.6759666"><ele>150.66666666666666</ele><time>2026-04-30T11:36:17.855Z</time></trkpt><trkpt lat="38.348672" lon="21.6757907"><ele>145.33333333333331</ele><time>2026-04-30T11:36:18.855Z</time></trkpt><trkpt lat="38.3487352" lon="21.6756008"><ele>140.0</ele><time>2026-04-30T11:36:19.855Z</time></trkpt><trkpt lat="38.3487964" lon="21.67541"><ele>136.0</ele><time>2026-04-30T11:36:20.855Z</time></trkpt><trkpt lat="38.3488614" lon="21.6752157"><ele>132.0</ele><time>2026-04-30T11:36:21.856Z</time></trkpt><trkpt lat="38.3489228" lon="21.6750242"><ele>128.0</ele><time>2026-04-30T11:36:22.855Z</time></trkpt><trkpt lat="38.3489868" lon="21.6748252"><ele>142.0</ele><time>2026-04-30T11:36:23.856Z</time></trkpt><trkpt lat="38.3490534" lon="21.6746197"><ele>156.0</ele><time>2026-04-30T11:36:24.856Z</time></trkpt><trkpt lat="38.3491185" lon="21.6744184"><ele>170.0</ele><time>2026-04-30T11:36:25.856Z</time></trkpt><trkpt lat="38.3491815" lon="21.6742205"><ele>170.0</ele><time>2026-04-30T11:36:26.856Z</time></trkpt><trkpt lat="38.349248" lon="21.6740092"><ele>170.0</ele><time>2026-04-30T11:36:27.855Z</time></trkpt><trkpt lat="38.3493101" lon="21.6738058"><ele>170.0</ele><time>2026-04-30T11:36:28.856Z</time></trkpt><trkpt lat="38.349371" lon="21.6736051"><ele>164.33333333333331</ele><time>2026-04-30T11:36:29.856Z</time></trkpt><trkpt lat="38.3494327" lon="21.6734061"><ele>158.66666666666666</ele><time>2026-04-30T11:36:30.856Z</time></trkpt><trkpt lat="38.3494986" lon="21.6732008"><ele>153.0</ele><time>2026-04-30T11:36:31.856Z</time></trkpt><trkpt lat="38.3495681" lon="21.6729886"><ele>153.0</ele><time>2026-04-30T11:36:32.856Z</time></trkpt><trkpt lat="38.349637" lon="21.6727846"><ele>153.0</ele><time>2026-04-30T11:36:33.856Z</time></trkpt><trkpt lat="38.3497037" lon="21.6725919"><ele>153.0</ele><time>2026-04-30T11:36:34.855Z</time></trkpt><trkpt lat="38.3497864" lon="21.6723986"><ele>152.33333333333334</ele><time>2026-04-30T11:36:35.856Z</time></trkpt><trkpt lat="38.3498776" lon="21.672226"><ele>151.66666666666669</ele><time>2026-04-30T11:36:36.855Z</time></trkpt><trkpt lat="38.3499887" lon="21.6720687"><ele>151.0</ele><time>2026-04-30T11:36:37.855Z</time></trkpt><trkpt lat="38.3501112" lon="21.6719207"><ele>151.0</ele><time>2026-04-30T11:36:38.856Z</time></trkpt><trkpt lat="38.3502491" lon="21.6717761"><ele>151.0</ele><time>2026-04-30T11:36:39.856Z</time></trkpt><trkpt lat="38.3504009" lon="21.6716309"><ele>151.0</ele><time>2026-04-30T11:36:40.856Z</time></trkpt><trkpt lat="38.350554" lon="21.6714911"><ele>152.66666666666669</ele><time>2026-04-30T11:36:41.855Z</time></trkpt><trkpt lat="38.3507029" lon="21.6713533"><ele>154.33333333333334</ele><time>2026-04-30T11:36:42.856Z</time></trkpt><trkpt lat="38.3508579" lon="21.6712046"><ele>156.0</ele><time>2026-04-30T11:36:43.855Z</time></trkpt><trkpt lat="38.3509987" lon="21.6710486"><ele>156.0</ele><time>2026-04-30T11:36:44.855Z</time></trkpt><trkpt lat="38.3511338" lon="21.670881"><ele>156.0</ele><time>2026-04-30T11:36:45.856Z</time></trkpt><trkpt lat="38.351258" lon="21.6707197"><ele>156.0</ele><time>2026-04-30T11:36:46.856Z</time></trkpt><trkpt lat="38.3513888" lon="21.6705598"><ele>154.66666666666666</ele><time>2026-04-30T11:36:47.855Z</time></trkpt><trkpt lat="38.3515367" lon="21.6704158"><ele>153.33333333333331</ele><time>2026-04-30T11:36:48.855Z</time></trkpt><trkpt lat="38.3516993" lon="21.6703057"><ele>152.0</ele><time>2026-04-30T11:36:49.855Z</time></trkpt><trkpt lat="38.3518718" lon="21.6702177"><ele>152.0</ele><time>2026-04-30T11:36:50.855Z</time></trkpt><trkpt lat="38.3520527" lon="21.6701357"><ele>152.0</ele><time>2026-04-30T11:36:51.856Z</time></trkpt><trkpt lat="38.3522228" lon="21.6700577"><ele>152.0</ele><time>2026-04-30T11:36:52.855Z</time></trkpt><trkpt lat="38.352386" lon="21.6699635"><ele>160.66666666666666</ele><time>2026-04-30T11:36:53.855Z</time></trkpt><trkpt lat="38.3525331" lon="21.6698457"><ele>169.33333333333334</ele><time>2026-04-30T11:36:54.855Z</time></trkpt><trkpt lat="38.3526739" lon="21.669693"><ele>178.0</ele><time>2026-04-30T11:36:55.856Z</time></trkpt><trkpt lat="38.3528091" lon="21.6695119"><ele>180.0</ele><time>2026-04-30T11:36:56.855Z</time></trkpt><trkpt lat="38.3529352" lon="21.6693251"><ele>182.0</ele><time>2026-04-30T11:36:57.856Z</time></trkpt><trkpt lat="38.3530555" lon="21.6691395"><ele>184.0</ele><time>2026-04-30T11:36:58.855Z</time></trkpt><trkpt lat="38.3531775" lon="21.6689425"><ele>184.0</ele><time>2026-04-30T11:36:59.855Z</time></trkpt><trkpt lat="38.3532934" lon="21.6687595"><ele>184.0</ele><time>2026-04-30T11:37:00.855Z</time></trkpt><trkpt lat="38.3534063" lon="21.6685774"><ele>184.0</ele><time>2026-04-30T11:37:01.856Z</time></trkpt><trkpt lat="38.3535161" lon="21.6684031"><ele>174.33333333333334</ele><time>2026-04-30T11:37:02.856Z</time></trkpt><trkpt lat="38.3536269" lon="21.6682279"><ele>164.66666666666666</ele><time>2026-04-30T11:37:03.855Z</time></trkpt><trkpt lat="38.3537392" lon="21.6680533"><ele>155.0</ele><time>2026-04-30T11:37:04.855Z</time></trkpt><trkpt lat="38.3538487" lon="21.6678953"><ele>154.66666666666666</ele><time>2026-04-30T11:37:05.855Z</time></trkpt><trkpt lat="38.3539617" lon="21.6677558"><ele>154.33333333333334</ele><time>2026-04-30T11:37:06.855Z</time></trkpt><trkpt lat="38.3540928" lon="21.6676248"><ele>154.0</ele><time>2026-04-30T11:37:07.855Z</time></trkpt><trkpt lat="38.3542313" lon="21.667517"><ele>154.0</ele><time>2026-04-30T11:37:08.855Z</time></trkpt><trkpt lat="38.3543781" lon="21.6674228"><ele>154.0</ele><time>2026-04-30T11:37:09.856Z</time></trkpt><trkpt lat="38.3545258" lon="21.6673373"><ele>154.0</ele><time>2026-04-30T11:37:10.856Z</time></trkpt><trkpt lat="38.354679" lon="21.6672484"><ele>160.66666666666669</ele><time>2026-04-30T11:37:11.856Z</time></trkpt><trkpt lat="38.3548382" lon="21.6671534"><ele>167.33333333333334</ele><time>2026-04-30T11:37:12.855Z</time></trkpt><trkpt lat="38.3549927" lon="21.6670592"><ele>174.0</ele><time>2026-04-30T11:37:13.856Z</time></trkpt><trkpt lat="38.3551431" lon="21.6669632"><ele>171.0</ele><time>2026-04-30T11:37:14.856Z</time></trkpt><trkpt lat="38.3553015" lon="21.6668487"><ele>168.0</ele><time>2026-04-30T11:37:15.856Z</time></trkpt><trkpt lat="38.3554491" lon="21.6667165"><ele>165.0</ele><time>2026-04-30T11:37:16.855Z</time></trkpt><trkpt lat="38.3555856" lon="21.6665625"><ele>165.0</ele><time>2026-04-30T11:37:17.855Z</time></trkpt><trkpt lat="38.3557049" lon="21.666389"><ele>165.0</ele><time>2026-04-30T11:37:18.855Z</time></trkpt><trkpt lat="38.3558168" lon="21.6661892"><ele>165.0</ele><time>2026-04-30T11:37:19.856Z</time></trkpt><trkpt lat="38.3559215" lon="21.6659764"><ele>156.33333333333334</ele><time>2026-04-30T11:37:20.855Z</time></trkpt><trkpt lat="38.3560172" lon="21.665772"><ele>147.66666666666669</ele><time>2026-04-30T11:37:21.855Z</time></trkpt><trkpt lat="38.3561092" lon="21.6655796"><ele>139.0</ele><time>2026-04-30T11:37:22.856Z</time></trkpt><trkpt lat="38.3562118" lon="21.6653801"><ele>140.33333333333334</ele><time>2026-04-30T11:37:23.855Z</time></trkpt><trkpt lat="38.3563219" lon="21.6651986"><ele>141.66666666666666</ele><time>2026-04-30T11:37:24.855Z</time></trkpt><trkpt lat="38.3564457" lon="21.6650312"><ele>143.0</ele><time>2026-04-30T11:37:25.856Z</time></trkpt><trkpt lat="38.3565824" lon="21.6648918"><ele>143.0</ele><time>2026-04-30T11:37:26.856Z</time></trkpt><trkpt lat="38.356739" lon="21.6647734"><ele>143.0</ele><time>2026-04-30T11:37:27.855Z</time></trkpt><trkpt lat="38.3569147" lon="21.6646675"><ele>143.0</ele><time>2026-04-30T11:37:28.855Z</time></trkpt><trkpt lat="38.3570899" lon="21.6645708"><ele>145.0</ele><time>2026-04-30T11:37:29.856Z</time></trkpt><trkpt lat="38.3572601" lon="21.6644764"><ele>147.0</ele><time>2026-04-30T11:37:30.856Z</time></trkpt><trkpt lat="38.3574351" lon="21.6643751"><ele>149.0</ele><time>2026-04-30T11:37:31.855Z</time></trkpt><trkpt lat="38.3575944" lon="21.6642661"><ele>141.33333333333331</ele><time>2026-04-30T11:37:32.855Z</time></trkpt><trkpt lat="38.3577377" lon="21.6641385"><ele>133.66666666666666</ele><time>2026-04-30T11:37:33.855Z</time></trkpt><trkpt lat="38.3578548" lon="21.6639895"><ele>126.0</ele><time>2026-04-30T11:37:34.856Z</time></trkpt><trkpt lat="38.3579498" lon="21.6638073"><ele>126.66666666666666</ele><time>2026-04-30T11:37:35.855Z</time></trkpt><trkpt lat="38.3580192" lon="21.6635956"><ele>127.33333333333333</ele><time>2026-04-30T11:37:36.856Z</time></trkpt><trkpt lat="38.3580561" lon="21.6633766"><ele>128.0</ele><time>2026-04-30T11:37:37.856Z</time></trkpt><trkpt lat="38.3580572" lon="21.66316"><ele>121.66666666666666</ele><time>2026-04-30T11:37:38.855Z</time></trkpt><trkpt lat="38.3580223" lon="21.6629271"><ele>115.33333333333334</ele><time>2026-04-30T11:37:39.856Z</time></trkpt><trkpt lat="38.3579599" lon="21.6626983"><ele>109.0</ele><time>2026-04-30T11:37:40.856Z</time></trkpt><trkpt lat="38.3578798" lon="21.6624649"><ele>109.66666666666667</ele><time>2026-04-30T11:37:41.855Z</time></trkpt><trkpt lat="38.3577964" lon="21.6622331"><ele>110.33333333333334</ele><time>2026-04-30T11:37:42.856Z</time></trkpt><trkpt lat="38.3577119" lon="21.661995"><ele>111.0</ele><time>2026-04-30T11:37:43.855Z</time></trkpt><trkpt lat="38.357629" lon="21.6617487"><ele>111.0</ele><time>2026-04-30T11:37:44.855Z</time></trkpt><trkpt lat="38.3575584" lon="21.6615114"><ele>111.0</ele><time>2026-04-30T11:37:45.855Z</time></trkpt><trkpt lat="38.3575098" lon="21.6612846"><ele>111.0</ele><time>2026-04-30T11:37:46.855Z</time></trkpt><trkpt lat="38.357492" lon="21.6610508"><ele>114.33333333333334</ele><time>2026-04-30T11:37:47.856Z</time></trkpt><trkpt lat="38.3575125" lon="21.6608284"><ele>117.66666666666667</ele><time>2026-04-30T11:37:48.856Z</time></trkpt><trkpt lat="38.3575675" lon="21.6606108"><ele>121.0</ele><time>2026-04-30T11:37:49.855Z</time></trkpt><trkpt lat="38.3576539" lon="21.6604157"><ele>121.0</ele><time>2026-04-30T11:37:50.855Z</time></trkpt><trkpt lat="38.3577696" lon="21.6602418"><ele>121.0</ele><time>2026-04-30T11:37:51.855Z</time></trkpt><trkpt lat="38.3579162" lon="21.6600937"><ele>121.0</ele><time>2026-04-30T11:37:52.855Z</time></trkpt><trkpt lat="38.3580828" lon="21.6599745"><ele>121.0</ele><time>2026-04-30T11:37:53.855Z</time></trkpt><trkpt lat="38.3582634" lon="21.6598692"><ele>121.0</ele><time>2026-04-30T11:37:54.855Z</time></trkpt><trkpt lat="38.3584702" lon="21.6597561"><ele>121.0</ele><time>2026-04-30T11:37:55.856Z</time></trkpt><trkpt lat="38.3586816" lon="21.659642"><ele>115.0</ele><time>2026-04-30T11:37:56.856Z</time></trkpt><trkpt lat="38.3588926" lon="21.6595282"><ele>109.0</ele><time>2026-04-30T11:37:57.855Z</time></trkpt><trkpt lat="38.3590986" lon="21.659416"><ele>109.0</ele><time>2026-04-30T11:37:58.856Z</time></trkpt><trkpt lat="38.3593076" lon="21.659298"><ele>109.0</ele><time>2026-04-30T11:37:59.856Z</time></trkpt><trkpt lat="38.3595271" lon="21.6591767"><ele>114.5</ele><time>2026-04-30T11:38:00.856Z</time></trkpt><trkpt lat="38.359738" lon="21.659063"><ele>120.0</ele><time>2026-04-30T11:38:01.855Z</time></trkpt><trkpt lat="38.3599421" lon="21.6589536"><ele>120.0</ele><time>2026-04-30T11:38:02.855Z</time></trkpt><trkpt lat="38.3601625" lon="21.6588402"><ele>120.0</ele><time>2026-04-30T11:38:03.856Z</time></trkpt><trkpt lat="38.3603786" lon="21.6587381"><ele>125.5</ele><time>2026-04-30T11:38:04.856Z</time></trkpt><trkpt lat="38.360594" lon="21.6586418"><ele>131.0</ele><time>2026-04-30T11:38:05.856Z</time></trkpt><trkpt lat="38.3608045" lon="21.6585522"><ele>118.0</ele><time>2026-04-30T11:38:06.855Z</time></trkpt><trkpt lat="38.3610216" lon="21.6584629"><ele>105.0</ele><time>2026-04-30T11:38:07.855Z</time></trkpt><trkpt lat="38.3612466" lon="21.6583742"><ele>107.5</ele><time>2026-04-30T11:38:08.855Z</time></trkpt><trkpt lat="38.361465" lon="21.6582893"><ele>110.0</ele><time>2026-04-30T11:38:09.856Z</time></trkpt><trkpt lat="38.3616762" lon="21.6582013"><ele>110.0</ele><time>2026-04-30T11:38:10.856Z</time></trkpt><trkpt lat="38.3619005" lon="21.6580972"><ele>110.0</ele><time>2026-04-30T11:38:11.855Z</time></trkpt><trkpt lat="38.3621148" lon="21.6579821"><ele>105.5</ele><time>2026-04-30T11:38:12.856Z</time></trkpt><trkpt lat="38.3623243" lon="21.6578513"><ele>101.0</ele><time>2026-04-30T11:38:13.855Z</time></trkpt><trkpt lat="38.3625216" lon="21.6577094"><ele>101.0</ele><time>2026-04-30T11:38:14.855Z</time></trkpt><trkpt lat="38.3627194" lon="21.6575475"><ele>101.0</ele><time>2026-04-30T11:38:15.855Z</time></trkpt><trkpt lat="38.3629175" lon="21.6573687"><ele>106.0</ele><time>2026-04-30T11:38:16.856Z</time></trkpt><trkpt lat="38.3631008" lon="21.6571915"><ele>111.0</ele><time>2026-04-30T11:38:17.856Z</time></trkpt><trkpt lat="38.3632756" lon="21.6570162"><ele>104.5</ele><time>2026-04-30T11:38:18.856Z</time></trkpt><trkpt lat="38.3634578" lon="21.6568282"><ele>98.0</ele><time>2026-04-30T11:38:19.856Z</time></trkpt><trkpt lat="38.3636282" lon="21.656648"><ele>98.0</ele><time>2026-04-30T11:38:20.855Z</time></trkpt><trkpt lat="38.363794" lon="21.6564715"><ele>98.0</ele><time>2026-04-30T11:38:21.856Z</time></trkpt><trkpt lat="38.3639488" lon="21.6563048"><ele>98.0</ele><time>2026-04-30T11:38:22.855Z</time></trkpt><trkpt lat="38.3641051" lon="21.656138"><ele>97.0</ele><time>2026-04-30T11:38:23.855Z</time></trkpt><trkpt lat="38.3642632" lon="21.6559699"><ele>96.0</ele><time>2026-04-30T11:38:24.856Z</time></trkpt><trkpt lat="38.3644138" lon="21.6558084"><ele>95.0</ele><time>2026-04-30T11:38:25.856Z</time></trkpt><trkpt lat="38.3645591" lon="21.6556539"><ele>95.66666666666667</ele><time>2026-04-30T11:38:26.855Z</time></trkpt><trkpt lat="38.3647138" lon="21.6554901"><ele>96.33333333333334</ele><time>2026-04-30T11:38:27.855Z</time></trkpt><trkpt lat="38.3648662" lon="21.6553308"><ele>97.0</ele><time>2026-04-30T11:38:28.856Z</time></trkpt><trkpt lat="38.3650199" lon="21.6551709"><ele>94.0</ele><time>2026-04-30T11:38:29.855Z</time></trkpt><trkpt lat="38.365174" lon="21.6550064"><ele>91.0</ele><time>2026-04-30T11:38:30.855Z</time></trkpt><trkpt lat="38.3653324" lon="21.6548261"><ele>88.0</ele><time>2026-04-30T11:38:31.856Z</time></trkpt><trkpt lat="38.3654872" lon="21.6546286"><ele>86.33333333333333</ele><time>2026-04-30T11:38:32.855Z</time></trkpt><trkpt lat="38.3656286" lon="21.6544184"><ele>84.66666666666667</ele><time>2026-04-30T11:38:33.855Z</time></trkpt><trkpt lat="38.3657507" lon="21.6541971"><ele>83.0</ele><time>2026-04-30T11:38:34.856Z</time></trkpt><trkpt lat="38.3658576" lon="21.6539436"><ele>83.0</ele><time>2026-04-30T11:38:35.856Z</time></trkpt><trkpt lat="38.3659364" lon="21.6536828"><ele>83.0</ele><time>2026-04-30T11:38:36.855Z</time></trkpt><trkpt lat="38.3659934" lon="21.6534064"><ele>83.0</ele><time>2026-04-30T11:38:37.856Z</time></trkpt><trkpt lat="38.3660321" lon="21.6531255"><ele>80.5</ele><time>2026-04-30T11:38:38.856Z</time></trkpt><trkpt lat="38.3660591" lon="21.6528343"><ele>78.0</ele><time>2026-04-30T11:38:39.856Z</time></trkpt><trkpt lat="38.3660801" lon="21.6525313"><ele>75.66666666666667</ele><time>2026-04-30T11:38:40.856Z</time></trkpt><trkpt lat="38.3660997" lon="21.6522498"><ele>73.33333333333334</ele><time>2026-04-30T11:38:41.856Z</time></trkpt><trkpt lat="38.3661213" lon="21.6519768"><ele>71.0</ele><time>2026-04-30T11:38:42.855Z</time></trkpt><trkpt lat="38.3661491" lon="21.6516877"><ele>69.33333333333334</ele><time>2026-04-30T11:38:43.855Z</time></trkpt><trkpt lat="38.3661828" lon="21.6514046"><ele>67.66666666666667</ele><time>2026-04-30T11:38:44.855Z</time></trkpt><trkpt lat="38.3662238" lon="21.6511344"><ele>66.0</ele><time>2026-04-30T11:38:45.856Z</time></trkpt><trkpt lat="38.3662802" lon="21.6508618"><ele>66.0</ele><time>2026-04-30T11:38:46.856Z</time></trkpt><trkpt lat="38.3663522" lon="21.6506039"><ele>66.0</ele><time>2026-04-30T11:38:47.855Z</time></trkpt><trkpt lat="38.366447" lon="21.6503469"><ele>66.0</ele><time>2026-04-30T11:38:48.856Z</time></trkpt><trkpt lat="38.3665538" lon="21.6501216"><ele>63.66666666666667</ele><time>2026-04-30T11:38:49.855Z</time></trkpt><trkpt lat="38.3666711" lon="21.6499187"><ele>61.333333333333336</ele><time>2026-04-30T11:38:50.855Z</time></trkpt><trkpt lat="38.3668039" lon="21.6497251"><ele>59.0</ele><time>2026-04-30T11:38:51.856Z</time></trkpt><trkpt lat="38.3669446" lon="21.6495521"><ele>57.66666666666667</ele><time>2026-04-30T11:38:52.856Z</time></trkpt><trkpt lat="38.3670945" lon="21.6493931"><ele>56.33333333333333</ele><time>2026-04-30T11:38:53.855Z</time></trkpt><trkpt lat="38.3672468" lon="21.6492503"><ele>55.0</ele><time>2026-04-30T11:38:54.856Z</time></trkpt><trkpt lat="38.3674116" lon="21.6491104"><ele>55.0</ele><time>2026-04-30T11:38:55.856Z</time></trkpt><trkpt lat="38.3675886" lon="21.6489676"><ele>55.0</ele><time>2026-04-30T11:38:56.855Z</time></trkpt><trkpt lat="38.3677641" lon="21.6488288"><ele>55.0</ele><time>2026-04-30T11:38:57.855Z</time></trkpt><trkpt lat="38.3679355" lon="21.6486936"><ele>52.666666666666664</ele><time>2026-04-30T11:38:58.856Z</time></trkpt><trkpt lat="38.3681197" lon="21.6485462"><ele>50.33333333333333</ele><time>2026-04-30T11:38:59.856Z</time></trkpt><trkpt lat="38.3683016" lon="21.6483977"><ele>48.0</ele><time>2026-04-30T11:39:00.855Z</time></trkpt><trkpt lat="38.368476" lon="21.6482477"><ele>48.0</ele><time>2026-04-30T11:39:01.855Z</time></trkpt><trkpt lat="38.3686488" lon="21.6480803"><ele>48.0</ele><time>2026-04-30T11:39:02.855Z</time></trkpt><trkpt lat="38.3688091" lon="21.6478884"><ele>48.0</ele><time>2026-04-30T11:39:03.855Z</time></trkpt><trkpt lat="38.3689585" lon="21.647662"><ele>47.0</ele><time>2026-04-30T11:39:04.856Z</time></trkpt><trkpt lat="38.3690823" lon="21.6474269"><ele>46.0</ele><time>2026-04-30T11:39:05.856Z</time></trkpt><trkpt lat="38.3691977" lon="21.6471764"><ele>46.0</ele><time>2026-04-30T11:39:06.856Z</time></trkpt><trkpt lat="38.3693101" lon="21.6469156"><ele>46.0</ele><time>2026-04-30T11:39:07.856Z</time></trkpt><trkpt lat="38.3694164" lon="21.6466642"><ele>46.0</ele><time>2026-04-30T11:39:08.856Z</time></trkpt><trkpt lat="38.3695188" lon="21.6464191"><ele>46.0</ele><time>2026-04-30T11:39:09.856Z</time></trkpt><trkpt lat="38.369626" lon="21.6461629"><ele>46.0</ele><time>2026-04-30T11:39:10.855Z</time></trkpt><trkpt lat="38.3697356" lon="21.6459011"><ele>47.0</ele><time>2026-04-30T11:39:11.856Z</time></trkpt><trkpt lat="38.3698512" lon="21.6456254"><ele>48.0</ele><time>2026-04-30T11:39:12.855Z</time></trkpt><trkpt lat="38.3699644" lon="21.6453548"><ele>45.5</ele><time>2026-04-30T11:39:13.856Z</time></trkpt><trkpt lat="38.370078" lon="21.6450854"><ele>43.0</ele><time>2026-04-30T11:39:14.855Z</time></trkpt><trkpt lat="38.3702015" lon="21.6447933"><ele>43.0</ele><time>2026-04-30T11:39:15.856Z</time></trkpt><trkpt lat="38.3703222" lon="21.6445067"><ele>43.0</ele><time>2026-04-30T11:39:16.855Z</time></trkpt><trkpt lat="38.370443" lon="21.6442151"><ele>42.0</ele><time>2026-04-30T11:39:17.856Z</time></trkpt><trkpt lat="38.37056" lon="21.6439305"><ele>41.0</ele><time>2026-04-30T11:39:18.856Z</time></trkpt><trkpt lat="38.3706821" lon="21.6436344"><ele>40.0</ele><time>2026-04-30T11:39:19.856Z</time></trkpt><trkpt lat="38.3708065" lon="21.6433319"><ele>39.0</ele><time>2026-04-30T11:39:20.856Z</time></trkpt><trkpt lat="38.3709265" lon="21.6430418"><ele>39.0</ele><time>2026-04-30T11:39:21.856Z</time></trkpt><trkpt lat="38.3710431" lon="21.6427627"><ele>39.0</ele><time>2026-04-30T11:39:22.855Z</time></trkpt><trkpt lat="38.3711661" lon="21.6424685"><ele>39.0</ele><time>2026-04-30T11:39:23.856Z</time></trkpt><trkpt lat="38.3712833" lon="21.6421909"><ele>39.0</ele><time>2026-04-30T11:39:24.856Z</time></trkpt><trkpt lat="38.3714005" lon="21.6419198"><ele>40.5</ele><time>2026-04-30T11:39:25.855Z</time></trkpt><trkpt lat="38.3715134" lon="21.641655"><ele>42.0</ele><time>2026-04-30T11:39:26.855Z</time></trkpt><trkpt lat="38.3716296" lon="21.641382"><ele>39.5</ele><time>2026-04-30T11:39:27.855Z</time></trkpt><trkpt lat="38.3717507" lon="21.6410963"><ele>37.0</ele><time>2026-04-30T11:39:28.855Z</time></trkpt><trkpt lat="38.371871" lon="21.6408232"><ele>37.0</ele><time>2026-04-30T11:39:29.856Z</time></trkpt><trkpt lat="38.3719973" lon="21.6405539"><ele>37.0</ele><time>2026-04-30T11:39:30.856Z</time></trkpt><trkpt lat="38.3721364" lon="21.6402574"><ele>38.0</ele><time>2026-04-30T11:39:31.856Z</time></trkpt><trkpt lat="38.3722746" lon="21.6399553"><ele>39.0</ele><time>2026-04-30T11:39:32.855Z</time></trkpt><trkpt lat="38.3724213" lon="21.6396468"><ele>36.5</ele><time>2026-04-30T11:39:33.855Z</time></trkpt><trkpt lat="38.3725747" lon="21.6393505"><ele>34.0</ele><time>2026-04-30T11:39:34.855Z</time></trkpt><trkpt lat="38.3727368" lon="21.6390517"><ele>34.0</ele><time>2026-04-30T11:39:35.856Z</time></trkpt><trkpt lat="38.3729024" lon="21.6387521"><ele>34.0</ele><time>2026-04-30T11:39:36.855Z</time></trkpt><trkpt lat="38.3730593" lon="21.6384672"><ele>32.5</ele><time>2026-04-30T11:39:37.856Z</time></trkpt><trkpt lat="38.3732069" lon="21.638196"><ele>31.0</ele><time>2026-04-30T11:39:38.856Z</time></trkpt><trkpt lat="38.3733582" lon="21.6379079"><ele>29.5</ele><time>2026-04-30T11:39:39.855Z</time></trkpt><trkpt lat="38.3734973" lon="21.6376286"><ele>28.0</ele><time>2026-04-30T11:39:40.855Z</time></trkpt><trkpt lat="38.3736286" lon="21.6373477"><ele>28.0</ele><time>2026-04-30T11:39:41.856Z</time></trkpt><trkpt lat="38.3737489" lon="21.6370722"><ele>28.0</ele><time>2026-04-30T11:39:42.856Z</time></trkpt><trkpt lat="38.3738662" lon="21.6367796"><ele>27.5</ele><time>2026-04-30T11:39:43.856Z</time></trkpt><trkpt lat="38.373983" lon="21.6364646"><ele>27.0</ele><time>2026-04-30T11:39:44.856Z</time></trkpt><trkpt lat="38.3740945" lon="21.6361427"><ele>25.5</ele><time>2026-04-30T11:39:45.855Z</time></trkpt><trkpt lat="38.3742017" lon="21.635822"><ele>24.0</ele><time>2026-04-30T11:39:46.856Z</time></trkpt><trkpt lat="38.3743147" lon="21.6354791"><ele>24.0</ele><time>2026-04-30T11:39:47.855Z</time></trkpt><trkpt lat="38.3744218" lon="21.6351516"><ele>24.0</ele><time>2026-04-30T11:39:48.855Z</time></trkpt><trkpt lat="38.3745231" lon="21.6348351"><ele>24.0</ele><time>2026-04-30T11:39:49.855Z</time></trkpt><trkpt lat="38.3746136" lon="21.6345377"><ele>24.0</ele><time>2026-04-30T11:39:50.856Z</time></trkpt><trkpt lat="38.3746983" lon="21.6342382"><ele>24.5</ele><time>2026-04-30T11:39:51.856Z</time></trkpt><trkpt lat="38.3747781" lon="21.6339362"><ele>25.0</ele><time>2026-04-30T11:39:52.855Z</time></trkpt><trkpt lat="38.3748513" lon="21.6336463"><ele>24.5</ele><time>2026-04-30T11:39:53.855Z</time></trkpt><trkpt lat="38.3749196" lon="21.6333661"><ele>24.0</ele><time>2026-04-30T11:39:54.856Z</time></trkpt><trkpt lat="38.3749891" lon="21.6330689"><ele>22.5</ele><time>2026-04-30T11:39:55.856Z</time></trkpt><trkpt lat="38.3750545" lon="21.6327849"><ele>21.0</ele><time>2026-04-30T11:39:56.856Z</time></trkpt><trkpt lat="38.3751164" lon="21.6325038"><ele>21.0</ele><time>2026-04-30T11:39:57.855Z</time></trkpt><trkpt lat="38.3751743" lon="21.6322357"><ele>21.0</ele><time>2026-04-30T11:39:58.856Z</time></trkpt><trkpt lat="38.3752333" lon="21.6319625"><ele>21.0</ele><time>2026-04-30T11:39:59.855Z</time></trkpt><trkpt lat="38.3752973" lon="21.6316839"><ele>21.0</ele><time>2026-04-30T11:40:00.855Z</time></trkpt><trkpt lat="38.3753586" lon="21.6314172"><ele>21.0</ele><time>2026-04-30T11:40:01.856Z</time></trkpt><trkpt lat="38.3754171" lon="21.6311622"><ele>21.0</ele><time>2026-04-30T11:40:02.855Z</time></trkpt><trkpt lat="38.3754778" lon="21.6308889"><ele>21.333333333333332</ele><time>2026-04-30T11:40:03.856Z</time></trkpt><trkpt lat="38.3755362" lon="21.630622"><ele>21.666666666666664</ele><time>2026-04-30T11:40:04.856Z</time></trkpt><trkpt lat="38.3755949" lon="21.6303559"><ele>22.0</ele><time>2026-04-30T11:40:05.856Z</time></trkpt><trkpt lat="38.3756519" lon="21.6300995"><ele>22.333333333333332</ele><time>2026-04-30T11:40:06.855Z</time></trkpt><trkpt lat="38.3757107" lon="21.6298365"><ele>22.666666666666668</ele><time>2026-04-30T11:40:07.856Z</time></trkpt><trkpt lat="38.3757732" lon="21.6295668"><ele>23.0</ele><time>2026-04-30T11:40:08.856Z</time></trkpt><trkpt lat="38.3758347" lon="21.6293101"><ele>23.666666666666668</ele><time>2026-04-30T11:40:09.855Z</time></trkpt><trkpt lat="38.3758958" lon="21.6290749"><ele>24.333333333333336</ele><time>2026-04-30T11:40:10.856Z</time></trkpt><trkpt lat="38.3759617" lon="21.6288399"><ele>25.0</ele><time>2026-04-30T11:40:11.856Z</time></trkpt><trkpt lat="38.3760236" lon="21.6286324"><ele>25.5</ele><time>2026-04-30T11:40:12.856Z</time></trkpt><trkpt lat="38.3760809" lon="21.6284428"><ele>26.0</ele><time>2026-04-30T11:40:13.855Z</time></trkpt><trkpt lat="38.3761336" lon="21.6282804"><ele>26.5</ele><time>2026-04-30T11:40:14.855Z</time></trkpt><trkpt lat="38.3761851" lon="21.6281391"><ele>27.0</ele><time>2026-04-30T11:40:15.856Z</time></trkpt><trkpt lat="38.3762347" lon="21.6280194"><ele>27.0</ele><time>2026-04-30T11:40:16.855Z</time></trkpt><trkpt lat="38.3762812" lon="21.6279248"><ele>27.0</ele><time>2026-04-30T11:40:17.855Z</time></trkpt><trkpt lat="38.3763242" lon="21.6278576"><ele>27.0</ele><time>2026-04-30T11:40:18.855Z</time></trkpt><trkpt lat="38.3764102" lon="21.62776"><ele>27.0</ele><time>2026-04-30T11:40:20.855Z</time></trkpt><trkpt lat="38.3764481" lon="21.6276309"><ele>27.0</ele><time>2026-04-30T11:40:22.856Z</time></trkpt><trkpt lat="38.3764429" lon="21.6275485"><ele>27.0</ele><time>2026-04-30T11:40:23.856Z</time></trkpt><trkpt lat="38.3764401" lon="21.6274478"><ele>28.25</ele><time>2026-04-30T11:40:24.855Z</time></trkpt><trkpt lat="38.3764535" lon="21.6273238"><ele>29.5</ele><time>2026-04-30T11:40:25.856Z</time></trkpt><trkpt lat="38.3764758" lon="21.6271678"><ele>30.75</ele><time>2026-04-30T11:40:26.855Z</time></trkpt><trkpt lat="38.376495" lon="21.6269684"><ele>32.0</ele><time>2026-04-30T11:40:27.856Z</time></trkpt><trkpt lat="38.3765021" lon="21.626754"><ele>33.33333333333333</ele><time>2026-04-30T11:40:28.856Z</time></trkpt><trkpt lat="38.3764969" lon="21.62652"><ele>34.666666666666664</ele><time>2026-04-30T11:40:29.856Z</time></trkpt><trkpt lat="38.376482" lon="21.6262762"><ele>36.0</ele><time>2026-04-30T11:40:30.855Z</time></trkpt><trkpt lat="38.3764655" lon="21.6260243"><ele>37.0</ele><time>2026-04-30T11:40:31.856Z</time></trkpt><trkpt lat="38.3764487" lon="21.6257626"><ele>38.0</ele><time>2026-04-30T11:40:32.855Z</time></trkpt><trkpt lat="38.3764374" lon="21.6255121"><ele>39.0</ele><time>2026-04-30T11:40:33.856Z</time></trkpt><trkpt lat="38.3764376" lon="21.6252515"><ele>39.0</ele><time>2026-04-30T11:40:34.856Z</time></trkpt><trkpt lat="38.376461" lon="21.6249798"><ele>39.0</ele><time>2026-04-30T11:40:35.855Z</time></trkpt><trkpt lat="38.3765031" lon="21.624713"><ele>39.0</ele><time>2026-04-30T11:40:36.855Z</time></trkpt><trkpt lat="38.3765602" lon="21.6244513"><ele>38.0</ele><time>2026-04-30T11:40:37.856Z</time></trkpt><trkpt lat="38.3766282" lon="21.624178"><ele>37.0</ele><time>2026-04-30T11:40:38.855Z</time></trkpt><trkpt lat="38.3767005" lon="21.6238997"><ele>38.5</ele><time>2026-04-30T11:40:39.855Z</time></trkpt><trkpt lat="38.3767817" lon="21.623609"><ele>40.0</ele><time>2026-04-30T11:40:40.856Z</time></trkpt><trkpt lat="38.3768702" lon="21.6233343"><ele>40.0</ele><time>2026-04-30T11:40:41.855Z</time></trkpt><trkpt lat="38.3769777" lon="21.6230512"><ele>40.0</ele><time>2026-04-30T11:40:42.856Z</time></trkpt><trkpt lat="38.3771025" lon="21.6227592"><ele>44.5</ele><time>2026-04-30T11:40:43.855Z</time></trkpt><trkpt lat="38.3772332" lon="21.6224727"><ele>49.0</ele><time>2026-04-30T11:40:44.856Z</time></trkpt><trkpt lat="38.3773638" lon="21.6221911"><ele>47.0</ele><time>2026-04-30T11:40:45.855Z</time></trkpt><trkpt lat="38.3775013" lon="21.621896"><ele>45.0</ele><time>2026-04-30T11:40:46.855Z</time></trkpt><trkpt lat="38.37764" lon="21.6215994"><ele>45.0</ele><time>2026-04-30T11:40:47.856Z</time></trkpt><trkpt lat="38.3777846" lon="21.6212929"><ele>45.0</ele><time>2026-04-30T11:40:48.855Z</time></trkpt><trkpt lat="38.3779196" lon="21.6210052"><ele>47.5</ele><time>2026-04-30T11:40:49.855Z</time></trkpt><trkpt lat="38.3780576" lon="21.6207072"><ele>50.0</ele><time>2026-04-30T11:40:50.855Z</time></trkpt><trkpt lat="38.3782013" lon="21.6204002"><ele>48.5</ele><time>2026-04-30T11:40:51.856Z</time></trkpt><trkpt lat="38.3783423" lon="21.6201032"><ele>47.0</ele><time>2026-04-30T11:40:52.855Z</time></trkpt><trkpt lat="38.3784793" lon="21.6198159"><ele>47.0</ele><time>2026-04-30T11:40:53.856Z</time></trkpt><trkpt lat="38.3786203" lon="21.6195194"><ele>47.0</ele><time>2026-04-30T11:40:54.855Z</time></trkpt><trkpt lat="38.3787597" lon="21.619223"><ele>49.0</ele><time>2026-04-30T11:40:55.856Z</time></trkpt><trkpt lat="38.3789033" lon="21.6189182"><ele>51.0</ele><time>2026-04-30T11:40:56.856Z</time></trkpt><trkpt lat="38.3790364" lon="21.618636"><ele>51.0</ele><time>2026-04-30T11:40:57.855Z</time></trkpt><trkpt lat="38.3791717" lon="21.6183493"><ele>51.0</ele><time>2026-04-30T11:40:58.855Z</time></trkpt><trkpt lat="38.3793083" lon="21.6180585"><ele>50.5</ele><time>2026-04-30T11:40:59.856Z</time></trkpt><trkpt lat="38.379442" lon="21.6177838"><ele>50.0</ele><time>2026-04-30T11:41:00.856Z</time></trkpt><trkpt lat="38.3795745" lon="21.6175246"><ele>54.5</ele><time>2026-04-30T11:41:01.856Z</time></trkpt><trkpt lat="38.3797227" lon="21.6172638"><ele>59.0</ele><time>2026-04-30T11:41:02.855Z</time></trkpt><trkpt lat="38.3798825" lon="21.6170072"><ele>57.5</ele><time>2026-04-30T11:41:03.855Z</time></trkpt><trkpt lat="38.380057" lon="21.6167493"><ele>56.0</ele><time>2026-04-30T11:41:04.856Z</time></trkpt><trkpt lat="38.3802315" lon="21.616509"><ele>56.0</ele><time>2026-04-30T11:41:05.855Z</time></trkpt><trkpt lat="38.3804186" lon="21.6162633"><ele>56.0</ele><time>2026-04-30T11:41:06.856Z</time></trkpt><trkpt lat="38.380604" lon="21.6160142"><ele>60.0</ele><time>2026-04-30T11:41:07.856Z</time></trkpt><trkpt lat="38.3807845" lon="21.6157745"><ele>64.0</ele><time>2026-04-30T11:41:08.856Z</time></trkpt><trkpt lat="38.3809603" lon="21.6155419"><ele>62.0</ele><time>2026-04-30T11:41:09.855Z</time></trkpt><trkpt lat="38.3811426" lon="21.6153036"><ele>60.0</ele><time>2026-04-30T11:41:10.855Z</time></trkpt><trkpt lat="38.381328" lon="21.6150655"><ele>65.0</ele><time>2026-04-30T11:41:11.855Z</time></trkpt><trkpt lat="38.3815192" lon="21.6148212"><ele>70.0</ele><time>2026-04-30T11:41:12.855Z</time></trkpt><trkpt lat="38.3816962" lon="21.6145937"><ele>67.5</ele><time>2026-04-30T11:41:13.855Z</time></trkpt><trkpt lat="38.3818768" lon="21.6143556"><ele>65.0</ele><time>2026-04-30T11:41:14.855Z</time></trkpt><trkpt lat="38.3820584" lon="21.6141097"><ele>69.0</ele><time>2026-04-30T11:41:15.855Z</time></trkpt><trkpt lat="38.382225" lon="21.6138743"><ele>73.0</ele><time>2026-04-30T11:41:16.855Z</time></trkpt><trkpt lat="38.3823699" lon="21.6136369"><ele>73.5</ele><time>2026-04-30T11:41:17.856Z</time></trkpt><trkpt lat="38.3824998" lon="21.6133801"><ele>74.0</ele><time>2026-04-30T11:41:18.856Z</time></trkpt><trkpt lat="38.3826054" lon="21.6131056"><ele>74.0</ele><time>2026-04-30T11:41:19.856Z</time></trkpt><trkpt lat="38.3826803" lon="21.6128114"><ele>74.0</ele><time>2026-04-30T11:41:20.855Z</time></trkpt><trkpt lat="38.3827135" lon="21.6125301"><ele>74.0</ele><time>2026-04-30T11:41:21.856Z</time></trkpt><trkpt lat="38.3827096" lon="21.6122303"><ele>74.0</ele><time>2026-04-30T11:41:22.855Z</time></trkpt><trkpt lat="38.3826731" lon="21.611917"><ele>80.0</ele><time>2026-04-30T11:41:23.856Z</time></trkpt><trkpt lat="38.382611" lon="21.6116119"><ele>86.0</ele><time>2026-04-30T11:41:24.856Z</time></trkpt><trkpt lat="38.38254" lon="21.6113129"><ele>92.0</ele><time>2026-04-30T11:41:25.855Z</time></trkpt><trkpt lat="38.382464" lon="21.6110017"><ele>98.0</ele><time>2026-04-30T11:41:26.855Z</time></trkpt><trkpt lat="38.3823874" lon="21.6106902"><ele>98.0</ele><time>2026-04-30T11:41:27.855Z</time></trkpt><trkpt lat="38.3823096" lon="21.6103698"><ele>98.0</ele><time>2026-04-30T11:41:28.856Z</time></trkpt><trkpt lat="38.3822358" lon="21.6100689"><ele>94.0</ele><time>2026-04-30T11:41:29.856Z</time></trkpt><trkpt lat="38.3821627" lon="21.6097719"><ele>90.0</ele><time>2026-04-30T11:41:30.856Z</time></trkpt><trkpt lat="38.3820843" lon="21.6094628"><ele>90.0</ele><time>2026-04-30T11:41:31.855Z</time></trkpt><trkpt lat="38.3820095" lon="21.6091626"><ele>90.0</ele><time>2026-04-30T11:41:32.855Z</time></trkpt><trkpt lat="38.3819384" lon="21.6088744"><ele>93.5</ele><time>2026-04-30T11:41:33.856Z</time></trkpt><trkpt lat="38.3818668" lon="21.6085795"><ele>97.0</ele><time>2026-04-30T11:41:34.856Z</time></trkpt><trkpt lat="38.3817889" lon="21.6082902"><ele>97.0</ele><time>2026-04-30T11:41:35.856Z</time></trkpt><trkpt lat="38.3816957" lon="21.6080006"><ele>97.0</ele><time>2026-04-30T11:41:36.856Z</time></trkpt><trkpt lat="38.3815889" lon="21.6077344"><ele>93.0</ele><time>2026-04-30T11:41:37.856Z</time></trkpt><trkpt lat="38.3814608" lon="21.6074681"><ele>89.0</ele><time>2026-04-30T11:41:38.855Z</time></trkpt><trkpt lat="38.3813097" lon="21.6072069"><ele>96.0</ele><time>2026-04-30T11:41:39.856Z</time></trkpt><trkpt lat="38.3811463" lon="21.6069684"><ele>103.0</ele><time>2026-04-30T11:41:40.855Z</time></trkpt><trkpt lat="38.380974" lon="21.6067523"><ele>103.0</ele><time>2026-04-30T11:41:41.856Z</time></trkpt><trkpt lat="38.3807874" lon="21.6065414"><ele>103.0</ele><time>2026-04-30T11:41:42.856Z</time></trkpt><trkpt lat="38.3806002" lon="21.6063402"><ele>106.0</ele><time>2026-04-30T11:41:43.856Z</time></trkpt><trkpt lat="38.3804167" lon="21.6061434"><ele>109.0</ele><time>2026-04-30T11:41:44.856Z</time></trkpt><trkpt lat="38.3802578" lon="21.6059663"><ele>109.0</ele><time>2026-04-30T11:41:45.855Z</time></trkpt><trkpt lat="38.3801064" lon="21.6057867"><ele>109.0</ele><time>2026-04-30T11:41:46.855Z</time></trkpt><trkpt lat="38.3799677" lon="21.6055954"><ele>109.0</ele><time>2026-04-30T11:41:47.856Z</time></trkpt><trkpt lat="38.3798562" lon="21.6053976"><ele>109.0</ele><time>2026-04-30T11:41:48.856Z</time></trkpt><trkpt lat="38.3797723" lon="21.6051924"><ele>109.0</ele><time>2026-04-30T11:41:49.856Z</time></trkpt><trkpt lat="38.3797168" lon="21.6049675"><ele>109.0</ele><time>2026-04-30T11:41:50.855Z</time></trkpt><trkpt lat="38.3796952" lon="21.6047388"><ele>109.0</ele><time>2026-04-30T11:41:51.856Z</time></trkpt><trkpt lat="38.3797104" lon="21.6045104"><ele>109.0</ele><time>2026-04-30T11:41:52.855Z</time></trkpt><trkpt lat="38.3797565" lon="21.6042977"><ele>109.0</ele><time>2026-04-30T11:41:53.855Z</time></trkpt><trkpt lat="38.3798336" lon="21.6040729"><ele>109.0</ele><time>2026-04-30T11:41:54.855Z</time></trkpt><trkpt lat="38.3799366" lon="21.6038363"><ele>109.0</ele><time>2026-04-30T11:41:55.856Z</time></trkpt><trkpt lat="38.3800602" lon="21.6036037"><ele>109.0</ele><time>2026-04-30T11:41:56.855Z</time></trkpt><trkpt lat="38.3801902" lon="21.6033664"><ele>108.0</ele><time>2026-04-30T11:41:57.856Z</time></trkpt><trkpt lat="38.3803252" lon="21.603111"><ele>107.0</ele><time>2026-04-30T11:41:58.855Z</time></trkpt><trkpt lat="38.3804629" lon="21.6028508"><ele>109.5</ele><time>2026-04-30T11:41:59.856Z</time></trkpt><trkpt lat="38.3806099" lon="21.602575"><ele>112.0</ele><time>2026-04-30T11:42:00.855Z</time></trkpt><trkpt lat="38.380752" lon="21.6023123"><ele>112.0</ele><time>2026-04-30T11:42:01.856Z</time></trkpt><trkpt lat="38.3809012" lon="21.6020368"><ele>112.0</ele><time>2026-04-30T11:42:02.855Z</time></trkpt><trkpt lat="38.3810559" lon="21.6017515"><ele>111.0</ele><time>2026-04-30T11:42:03.856Z</time></trkpt><trkpt lat="38.3812053" lon="21.6014746"><ele>110.0</ele><time>2026-04-30T11:42:04.855Z</time></trkpt><trkpt lat="38.3813493" lon="21.601209"><ele>113.0</ele><time>2026-04-30T11:42:05.855Z</time></trkpt><trkpt lat="38.3814947" lon="21.6009355"><ele>116.0</ele><time>2026-04-30T11:42:06.856Z</time></trkpt><trkpt lat="38.3816391" lon="21.6006622"><ele>116.0</ele><time>2026-04-30T11:42:07.856Z</time></trkpt><trkpt lat="38.3817863" lon="21.6003801"><ele>116.0</ele><time>2026-04-30T11:42:08.856Z</time></trkpt><trkpt lat="38.3819265" lon="21.6001149"><ele>113.5</ele><time>2026-04-30T11:42:09.856Z</time></trkpt><trkpt lat="38.3820714" lon="21.5998443"><ele>111.0</ele><time>2026-04-30T11:42:10.856Z</time></trkpt><trkpt lat="38.3822213" lon="21.5995689"><ele>112.0</ele><time>2026-04-30T11:42:11.856Z</time></trkpt><trkpt lat="38.3823626" lon="21.5993048"><ele>113.0</ele><time>2026-04-30T11:42:12.855Z</time></trkpt><trkpt lat="38.3825008" lon="21.5990562"><ele>113.0</ele><time>2026-04-30T11:42:13.856Z</time></trkpt><trkpt lat="38.3826376" lon="21.5987982"><ele>113.0</ele><time>2026-04-30T11:42:14.855Z</time></trkpt><trkpt lat="38.3827744" lon="21.5985465"><ele>116.5</ele><time>2026-04-30T11:42:15.856Z</time></trkpt><trkpt lat="38.3829208" lon="21.5982949"><ele>120.0</ele><time>2026-04-30T11:42:16.856Z</time></trkpt><trkpt lat="38.3830675" lon="21.5980719"><ele>120.0</ele><time>2026-04-30T11:42:17.856Z</time></trkpt><trkpt lat="38.3832319" lon="21.5978578"><ele>120.0</ele><time>2026-04-30T11:42:18.855Z</time></trkpt><trkpt lat="38.3834171" lon="21.5976549"><ele>120.0</ele><time>2026-04-30T11:42:19.855Z</time></trkpt><trkpt lat="38.3836096" lon="21.5974747"><ele>120.0</ele><time>2026-04-30T11:42:20.855Z</time></trkpt><trkpt lat="38.3838036" lon="21.5973067"><ele>121.5</ele><time>2026-04-30T11:42:21.856Z</time></trkpt><trkpt lat="38.3840062" lon="21.5971359"><ele>123.0</ele><time>2026-04-30T11:42:22.856Z</time></trkpt><trkpt lat="38.3842091" lon="21.596966"><ele>123.0</ele><time>2026-04-30T11:42:23.856Z</time></trkpt><trkpt lat="38.3844182" lon="21.5967889"><ele>123.0</ele><time>2026-04-30T11:42:24.856Z</time></trkpt><trkpt lat="38.384613" lon="21.5966226"><ele>121.0</ele><time>2026-04-30T11:42:25.855Z</time></trkpt><trkpt lat="38.3848144" lon="21.5964534"><ele>119.0</ele><time>2026-04-30T11:42:26.855Z</time></trkpt><trkpt lat="38.3850216" lon="21.5962801"><ele>124.5</ele><time>2026-04-30T11:42:27.856Z</time></trkpt><trkpt lat="38.3852234" lon="21.5961109"><ele>130.0</ele><time>2026-04-30T11:42:28.856Z</time></trkpt><trkpt lat="38.3854216" lon="21.5959451"><ele>124.0</ele><time>2026-04-30T11:42:29.855Z</time></trkpt><trkpt lat="38.3856198" lon="21.5957799"><ele>118.0</ele><time>2026-04-30T11:42:30.856Z</time></trkpt><trkpt lat="38.3858192" lon="21.5956153"><ele>118.0</ele><time>2026-04-30T11:42:31.855Z</time></trkpt><trkpt lat="38.3860229" lon="21.5954474"><ele>118.0</ele><time>2026-04-30T11:42:32.855Z</time></trkpt><trkpt lat="38.3862092" lon="21.5952886"><ele>117.33333333333334</ele><time>2026-04-30T11:42:33.856Z</time></trkpt><trkpt lat="38.3863897" lon="21.5951216"><ele>116.66666666666666</ele><time>2026-04-30T11:42:34.856Z</time></trkpt><trkpt lat="38.3865583" lon="21.5949341"><ele>116.0</ele><time>2026-04-30T11:42:35.856Z</time></trkpt><trkpt lat="38.3867" lon="21.5947294"><ele>116.0</ele><time>2026-04-30T11:42:36.856Z</time></trkpt><trkpt lat="38.3868107" lon="21.5945099"><ele>116.0</ele><time>2026-04-30T11:42:37.856Z</time></trkpt><trkpt lat="38.3868955" lon="21.594261"><ele>116.0</ele><time>2026-04-30T11:42:38.856Z</time></trkpt><trkpt lat="38.3869488" lon="21.593991"><ele>119.0</ele><time>2026-04-30T11:42:39.855Z</time></trkpt><trkpt lat="38.386973" lon="21.5936944"><ele>122.0</ele><time>2026-04-30T11:42:40.855Z</time></trkpt><trkpt lat="38.3869706" lon="21.5934071"><ele>123.0</ele><time>2026-04-30T11:42:41.856Z</time></trkpt><trkpt lat="38.3869525" lon="21.5931061"><ele>124.0</ele><time>2026-04-30T11:42:42.855Z</time></trkpt><trkpt lat="38.3869287" lon="21.5927965"><ele>124.0</ele><time>2026-04-30T11:42:43.856Z</time></trkpt><trkpt lat="38.3869061" lon="21.5925028"><ele>124.0</ele><time>2026-04-30T11:42:44.855Z</time></trkpt><trkpt lat="38.3868861" lon="21.592232"><ele>124.0</ele><time>2026-04-30T11:42:45.855Z</time></trkpt><trkpt lat="38.3868705" lon="21.5919666"><ele>122.0</ele><time>2026-04-30T11:42:46.856Z</time></trkpt><trkpt lat="38.3868698" lon="21.591715"><ele>120.0</ele><time>2026-04-30T11:42:47.855Z</time></trkpt><trkpt lat="38.3868984" lon="21.5914652"><ele>118.0</ele><time>2026-04-30T11:42:48.855Z</time></trkpt><trkpt lat="38.3869597" lon="21.5912428"><ele>115.66666666666667</ele><time>2026-04-30T11:42:49.856Z</time></trkpt><trkpt lat="38.3870557" lon="21.5910343"><ele>113.33333333333334</ele><time>2026-04-30T11:42:50.855Z</time></trkpt><trkpt lat="38.3871914" lon="21.5908453"><ele>111.0</ele><time>2026-04-30T11:42:51.855Z</time></trkpt><trkpt lat="38.3873568" lon="21.5906974"><ele>111.0</ele><time>2026-04-30T11:42:52.856Z</time></trkpt><trkpt lat="38.3875342" lon="21.5905818"><ele>111.0</ele><time>2026-04-30T11:42:53.855Z</time></trkpt><trkpt lat="38.3877198" lon="21.5904707"><ele>111.0</ele><time>2026-04-30T11:42:54.855Z</time></trkpt><trkpt lat="38.3878992" lon="21.5903334"><ele>113.0</ele><time>2026-04-30T11:42:55.856Z</time></trkpt><trkpt lat="38.3880757" lon="21.5901528"><ele>115.0</ele><time>2026-04-30T11:42:56.855Z</time></trkpt><trkpt lat="38.3882347" lon="21.5899479"><ele>115.0</ele><time>2026-04-30T11:42:57.856Z</time></trkpt><trkpt lat="38.3883983" lon="21.5897115"><ele>115.0</ele><time>2026-04-30T11:42:58.855Z</time></trkpt><trkpt lat="38.3885643" lon="21.5894625"><ele>115.0</ele><time>2026-04-30T11:42:59.855Z</time></trkpt><trkpt lat="38.3887271" lon="21.5892144"><ele>115.0</ele><time>2026-04-30T11:43:00.855Z</time></trkpt><trkpt lat="38.3888894" lon="21.5889704"><ele>112.0</ele><time>2026-04-30T11:43:01.856Z</time></trkpt><trkpt lat="38.3890615" lon="21.588715"><ele>109.0</ele><time>2026-04-30T11:43:02.855Z</time></trkpt><trkpt lat="38.389235" lon="21.588457"><ele>109.0</ele><time>2026-04-30T11:43:03.856Z</time></trkpt><trkpt lat="38.3894128" lon="21.5881871"><ele>109.0</ele><time>2026-04-30T11:43:04.856Z</time></trkpt><trkpt lat="38.3895787" lon="21.5879354"><ele>106.5</ele><time>2026-04-30T11:43:05.856Z</time></trkpt><trkpt lat="38.3897425" lon="21.587684"><ele>104.0</ele><time>2026-04-30T11:43:06.856Z</time></trkpt><trkpt lat="38.3899057" lon="21.5874414"><ele>104.0</ele><time>2026-04-30T11:43:07.855Z</time></trkpt><trkpt lat="38.3900668" lon="21.5872236"><ele>104.0</ele><time>2026-04-30T11:43:08.856Z</time></trkpt><trkpt lat="38.3902329" lon="21.5870357"><ele>107.5</ele><time>2026-04-30T11:43:09.856Z</time></trkpt><trkpt lat="38.3904241" lon="21.5868668"><ele>111.0</ele><time>2026-04-30T11:43:10.856Z</time></trkpt><trkpt lat="38.3906338" lon="21.5867253"><ele>111.0</ele><time>2026-04-30T11:43:11.856Z</time></trkpt><trkpt lat="38.3908654" lon="21.5866006"><ele>111.0</ele><time>2026-04-30T11:43:12.855Z</time></trkpt><trkpt lat="38.3910915" lon="21.5864922"><ele>111.0</ele><time>2026-04-30T11:43:13.856Z</time></trkpt><trkpt lat="38.3913292" lon="21.5863823"><ele>111.0</ele><time>2026-04-30T11:43:14.855Z</time></trkpt><trkpt lat="38.3915738" lon="21.5862689"><ele>116.5</ele><time>2026-04-30T11:43:15.855Z</time></trkpt><trkpt lat="38.3918096" lon="21.5861591"><ele>122.0</ele><time>2026-04-30T11:43:16.856Z</time></trkpt><trkpt lat="38.3920389" lon="21.5860515"><ele>116.0</ele><time>2026-04-30T11:43:17.856Z</time></trkpt><trkpt lat="38.3922754" lon="21.5859303"><ele>110.0</ele><time>2026-04-30T11:43:18.855Z</time></trkpt><trkpt lat="38.3925046" lon="21.5857898"><ele>110.0</ele><time>2026-04-30T11:43:19.856Z</time></trkpt><trkpt lat="38.3927311" lon="21.5856233"><ele>110.0</ele><time>2026-04-30T11:43:20.855Z</time></trkpt><trkpt lat="38.3929304" lon="21.5854602"><ele>113.0</ele><time>2026-04-30T11:43:21.856Z</time></trkpt><trkpt lat="38.3931284" lon="21.5852966"><ele>116.0</ele><time>2026-04-30T11:43:22.856Z</time></trkpt><trkpt lat="38.3933379" lon="21.5851475"><ele>116.0</ele><time>2026-04-30T11:43:23.856Z</time></trkpt><trkpt lat="38.3935581" lon="21.5850316"><ele>116.0</ele><time>2026-04-30T11:43:24.855Z</time></trkpt><trkpt lat="38.3937835" lon="21.5849534"><ele>112.5</ele><time>2026-04-30T11:43:25.856Z</time></trkpt><trkpt lat="38.3940126" lon="21.5848933"><ele>109.0</ele><time>2026-04-30T11:43:26.856Z</time></trkpt><trkpt lat="38.3942288" lon="21.5848343"><ele>109.0</ele><time>2026-04-30T11:43:27.855Z</time></trkpt><trkpt lat="38.3944414" lon="21.584746"><ele>109.0</ele><time>2026-04-30T11:43:28.856Z</time></trkpt><trkpt lat="38.3946358" lon="21.5846282"><ele>109.0</ele><time>2026-04-30T11:43:29.856Z</time></trkpt><trkpt lat="38.3948219" lon="21.5844754"><ele>108.5</ele><time>2026-04-30T11:43:30.856Z</time></trkpt><trkpt lat="38.3950054" lon="21.5842739"><ele>108.0</ele><time>2026-04-30T11:43:31.856Z</time></trkpt><trkpt lat="38.3951744" lon="21.5840469"><ele>108.0</ele><time>2026-04-30T11:43:32.855Z</time></trkpt><trkpt lat="38.3953324" lon="21.5838117"><ele>108.0</ele><time>2026-04-30T11:43:33.856Z</time></trkpt><trkpt lat="38.3954989" lon="21.5835532"><ele>105.5</ele><time>2026-04-30T11:43:34.855Z</time></trkpt><trkpt lat="38.3956695" lon="21.5832855"><ele>103.0</ele><time>2026-04-30T11:43:35.855Z</time></trkpt><trkpt lat="38.3958481" lon="21.5830032"><ele>105.0</ele><time>2026-04-30T11:43:36.856Z</time></trkpt><trkpt lat="38.3960168" lon="21.5827355"><ele>107.0</ele><time>2026-04-30T11:43:37.855Z</time></trkpt><trkpt lat="38.3961864" lon="21.5824667"><ele>103.0</ele><time>2026-04-30T11:43:38.856Z</time></trkpt><trkpt lat="38.3963515" lon="21.5822013"><ele>99.0</ele><time>2026-04-30T11:43:39.855Z</time></trkpt><trkpt lat="38.3965067" lon="21.5819538"><ele>99.0</ele><time>2026-04-30T11:43:40.856Z</time></trkpt><trkpt lat="38.396648" lon="21.5817204"><ele>99.0</ele><time>2026-04-30T11:43:41.855Z</time></trkpt><trkpt lat="38.3967815" lon="21.5814838"><ele>99.0</ele><time>2026-04-30T11:43:42.856Z</time></trkpt><trkpt lat="38.396892" lon="21.5812419"><ele>99.0</ele><time>2026-04-30T11:43:43.856Z</time></trkpt><trkpt lat="38.3969768" lon="21.5809793"><ele>99.0</ele><time>2026-04-30T11:43:44.856Z</time></trkpt><trkpt lat="38.3970279" lon="21.5807267"><ele>103.0</ele><time>2026-04-30T11:43:45.856Z</time></trkpt><trkpt lat="38.3970495" lon="21.5804621"><ele>107.0</ele><time>2026-04-30T11:43:46.855Z</time></trkpt><trkpt lat="38.3970392" lon="21.5801818"><ele>111.0</ele><time>2026-04-30T11:43:47.855Z</time></trkpt><trkpt lat="38.3969977" lon="21.5799055"><ele>111.66666666666666</ele><time>2026-04-30T11:43:48.856Z</time></trkpt><trkpt lat="38.3969331" lon="21.5796389"><ele>112.33333333333333</ele><time>2026-04-30T11:43:49.856Z</time></trkpt><trkpt lat="38.3968502" lon="21.579368"><ele>113.0</ele><time>2026-04-30T11:43:50.855Z</time></trkpt><trkpt lat="38.3967535" lon="21.5791019"><ele>104.0</ele><time>2026-04-30T11:43:51.855Z</time></trkpt><trkpt lat="38.3966345" lon="21.5788364"><ele>95.0</ele><time>2026-04-30T11:43:52.856Z</time></trkpt><trkpt lat="38.3964979" lon="21.5786046"><ele>99.5</ele><time>2026-04-30T11:43:53.855Z</time></trkpt><trkpt lat="38.3963265" lon="21.5783866"><ele>104.0</ele><time>2026-04-30T11:43:54.856Z</time></trkpt><trkpt lat="38.3961231" lon="21.5781802"><ele>104.0</ele><time>2026-04-30T11:43:55.856Z</time></trkpt><trkpt lat="38.3959093" lon="21.5779868"><ele>104.0</ele><time>2026-04-30T11:43:56.855Z</time></trkpt><trkpt lat="38.3956988" lon="21.5778049"><ele>97.5</ele><time>2026-04-30T11:43:57.855Z</time></trkpt><trkpt lat="38.395481" lon="21.5776164"><ele>91.0</ele><time>2026-04-30T11:43:58.856Z</time></trkpt><trkpt lat="38.395265" lon="21.5774265"><ele>91.0</ele><time>2026-04-30T11:43:59.855Z</time></trkpt><trkpt lat="38.3950437" lon="21.5772327"><ele>91.0</ele><time>2026-04-30T11:44:00.855Z</time></trkpt><trkpt lat="38.3948396" lon="21.5770556"><ele>91.0</ele><time>2026-04-30T11:44:01.855Z</time></trkpt><trkpt lat="38.3946367" lon="21.5768792"><ele>91.0</ele><time>2026-04-30T11:44:02.856Z</time></trkpt><trkpt lat="38.3944344" lon="21.5767076"><ele>91.0</ele><time>2026-04-30T11:44:03.855Z</time></trkpt><trkpt lat="38.3942363" lon="21.5765546"><ele>91.0</ele><time>2026-04-30T11:44:04.856Z</time></trkpt><trkpt lat="38.3940352" lon="21.5764296"><ele>98.5</ele><time>2026-04-30T11:44:05.856Z</time></trkpt><trkpt lat="38.3938119" lon="21.5763325"><ele>106.0</ele><time>2026-04-30T11:44:06.855Z</time></trkpt><trkpt lat="38.3935737" lon="21.576264"><ele>106.0</ele><time>2026-04-30T11:44:07.856Z</time></trkpt><trkpt lat="38.3933141" lon="21.5762053"><ele>106.0</ele><time>2026-04-30T11:44:08.856Z</time></trkpt><trkpt lat="38.39306" lon="21.5761537"><ele>88.0</ele><time>2026-04-30T11:44:09.855Z</time></trkpt><trkpt lat="38.3927869" lon="21.5761014"><ele>70.0</ele><time>2026-04-30T11:44:10.856Z</time></trkpt><trkpt lat="38.3924976" lon="21.5760483"><ele>70.0</ele><time>2026-04-30T11:44:11.855Z</time></trkpt><trkpt lat="38.3922081" lon="21.5759917"><ele>70.0</ele><time>2026-04-30T11:44:12.856Z</time></trkpt><trkpt lat="38.3919228" lon="21.5759344"><ele>70.5</ele><time>2026-04-30T11:44:13.855Z</time></trkpt><trkpt lat="38.3916264" lon="21.5758741"><ele>71.0</ele><time>2026-04-30T11:44:14.856Z</time></trkpt><trkpt lat="38.3913305" lon="21.5758148"><ele>72.5</ele><time>2026-04-30T11:44:15.855Z</time></trkpt><trkpt lat="38.3910283" lon="21.5757556"><ele>74.0</ele><time>2026-04-30T11:44:16.855Z</time></trkpt><trkpt lat="38.39075" lon="21.5757008"><ele>70.5</ele><time>2026-04-30T11:44:17.856Z</time></trkpt><trkpt lat="38.3904736" lon="21.575646"><ele>67.0</ele><time>2026-04-30T11:44:18.856Z</time></trkpt><trkpt lat="38.3902011" lon="21.5755905"><ele>67.0</ele><time>2026-04-30T11:44:19.856Z</time></trkpt><trkpt lat="38.3899501" lon="21.5755392"><ele>67.0</ele><time>2026-04-30T11:44:20.856Z</time></trkpt><trkpt lat="38.3897148" lon="21.5754899"><ele>68.0</ele><time>2026-04-30T11:44:21.856Z</time></trkpt><trkpt lat="38.3894767" lon="21.5754413"><ele>69.0</ele><time>2026-04-30T11:44:22.856Z</time></trkpt><trkpt lat="38.3892419" lon="21.5753907"><ele>67.0</ele><time>2026-04-30T11:44:23.855Z</time></trkpt><trkpt lat="38.3890072" lon="21.575333"><ele>65.0</ele><time>2026-04-30T11:44:24.856Z</time></trkpt><trkpt lat="38.388795" lon="21.5752614"><ele>65.0</ele><time>2026-04-30T11:44:25.856Z</time></trkpt><trkpt lat="38.3885868" lon="21.5751659"><ele>65.0</ele><time>2026-04-30T11:44:26.856Z</time></trkpt><trkpt lat="38.388386" lon="21.5750407"><ele>65.0</ele><time>2026-04-30T11:44:27.856Z</time></trkpt><trkpt lat="38.3882102" lon="21.5749004"><ele>65.0</ele><time>2026-04-30T11:44:28.855Z</time></trkpt><trkpt lat="38.3880504" lon="21.5747511"><ele>65.0</ele><time>2026-04-30T11:44:29.856Z</time></trkpt><trkpt lat="38.3879011" lon="21.5745929"><ele>65.0</ele><time>2026-04-30T11:44:30.856Z</time></trkpt><trkpt lat="38.3877545" lon="21.5744261"><ele>61.333333333333336</ele><time>2026-04-30T11:44:31.855Z</time></trkpt><trkpt lat="38.3876096" lon="21.5742538"><ele>57.66666666666667</ele><time>2026-04-30T11:44:32.856Z</time></trkpt><trkpt lat="38.3874714" lon="21.5740705"><ele>54.0</ele><time>2026-04-30T11:44:33.855Z</time></trkpt><trkpt lat="38.3873485" lon="21.5738715"><ele>55.33333333333333</ele><time>2026-04-30T11:44:34.856Z</time></trkpt><trkpt lat="38.38725" lon="21.5736443"><ele>56.666666666666664</ele><time>2026-04-30T11:44:35.855Z</time></trkpt><trkpt lat="38.387178" lon="21.5734131"><ele>58.0</ele><time>2026-04-30T11:44:36.856Z</time></trkpt><trkpt lat="38.3871206" lon="21.5731597"><ele>58.0</ele><time>2026-04-30T11:44:37.856Z</time></trkpt><trkpt lat="38.3870684" lon="21.5728906"><ele>58.0</ele><time>2026-04-30T11:44:38.855Z</time></trkpt><trkpt lat="38.3870064" lon="21.572597"><ele>55.5</ele><time>2026-04-30T11:44:39.855Z</time></trkpt><trkpt lat="38.3869413" lon="21.5722738"><ele>53.0</ele><time>2026-04-30T11:44:40.855Z</time></trkpt><trkpt lat="38.3868732" lon="21.5719354"><ele>51.0</ele><time>2026-04-30T11:44:41.856Z</time></trkpt><trkpt lat="38.3868086" lon="21.5715878"><ele>49.0</ele><time>2026-04-30T11:44:42.855Z</time></trkpt><trkpt lat="38.3867455" lon="21.5712352"><ele>46.0</ele><time>2026-04-30T11:44:43.856Z</time></trkpt><trkpt lat="38.3866884" lon="21.5709131"><ele>43.0</ele><time>2026-04-30T11:44:44.855Z</time></trkpt><trkpt lat="38.3866288" lon="21.5705892"><ele>41.5</ele><time>2026-04-30T11:44:45.855Z</time></trkpt><trkpt lat="38.3865682" lon="21.5702747"><ele>40.0</ele><time>2026-04-30T11:44:46.855Z</time></trkpt><trkpt lat="38.3865032" lon="21.5699686"><ele>40.0</ele><time>2026-04-30T11:44:47.856Z</time></trkpt><trkpt lat="38.3864321" lon="21.5696719"><ele>40.0</ele><time>2026-04-30T11:44:48.856Z</time></trkpt><trkpt lat="38.3863493" lon="21.569386"><ele>43.5</ele><time>2026-04-30T11:44:49.855Z</time></trkpt><trkpt lat="38.386249" lon="21.5691144"><ele>47.0</ele><time>2026-04-30T11:44:50.856Z</time></trkpt><trkpt lat="38.386122" lon="21.5688499"><ele>42.0</ele><time>2026-04-30T11:44:51.856Z</time></trkpt><trkpt lat="38.3859811" lon="21.5686147"><ele>37.0</ele><time>2026-04-30T11:44:52.855Z</time></trkpt><trkpt lat="38.3858195" lon="21.5683812"><ele>37.0</ele><time>2026-04-30T11:44:53.855Z</time></trkpt><trkpt lat="38.3856467" lon="21.5681541"><ele>37.0</ele><time>2026-04-30T11:44:54.855Z</time></trkpt><trkpt lat="38.3854678" lon="21.5679299"><ele>37.0</ele><time>2026-04-30T11:44:55.856Z</time></trkpt><trkpt lat="38.385287" lon="21.5677078"><ele>37.0</ele><time>2026-04-30T11:44:56.856Z</time></trkpt><trkpt lat="38.3851063" lon="21.5674847"><ele>37.0</ele><time>2026-04-30T11:44:57.855Z</time></trkpt><trkpt lat="38.384921" lon="21.5672642"><ele>37.0</ele><time>2026-04-30T11:44:58.855Z</time></trkpt><trkpt lat="38.3847187" lon="21.5670428"><ele>34.5</ele><time>2026-04-30T11:44:59.856Z</time></trkpt><trkpt lat="38.384514" lon="21.566844"><ele>32.0</ele><time>2026-04-30T11:45:00.856Z</time></trkpt><trkpt lat="38.3842865" lon="21.5666521"><ele>32.0</ele><time>2026-04-30T11:45:01.855Z</time></trkpt><trkpt lat="38.3840462" lon="21.566474"><ele>32.0</ele><time>2026-04-30T11:45:02.856Z</time></trkpt><trkpt lat="38.3837984" lon="21.5663071"><ele>29.0</ele><time>2026-04-30T11:45:03.856Z</time></trkpt><trkpt lat="38.383551" lon="21.566149"><ele>26.0</ele><time>2026-04-30T11:45:04.856Z</time></trkpt><trkpt lat="38.3833136" lon="21.5659965"><ele>26.0</ele><time>2026-04-30T11:45:05.855Z</time></trkpt><trkpt lat="38.3830875" lon="21.5658423"><ele>26.0</ele><time>2026-04-30T11:45:06.856Z</time></trkpt><trkpt lat="38.3828686" lon="21.5656679"><ele>26.0</ele><time>2026-04-30T11:45:07.855Z</time></trkpt><trkpt lat="38.3826808" lon="21.5654801"><ele>26.0</ele><time>2026-04-30T11:45:08.856Z</time></trkpt><trkpt lat="38.3825106" lon="21.5652576"><ele>26.0</ele><time>2026-04-30T11:45:09.855Z</time></trkpt><trkpt lat="38.3823633" lon="21.5650086"><ele>26.0</ele><time>2026-04-30T11:45:10.856Z</time></trkpt><trkpt lat="38.3822329" lon="21.5647449"><ele>32.5</ele><time>2026-04-30T11:45:11.856Z</time></trkpt><trkpt lat="38.3821114" lon="21.564476"><ele>39.0</ele><time>2026-04-30T11:45:12.855Z</time></trkpt><trkpt lat="38.381994" lon="21.5642103"><ele>39.0</ele><time>2026-04-30T11:45:13.856Z</time></trkpt><trkpt lat="38.381874" lon="21.5639559"><ele>39.0</ele><time>2026-04-30T11:45:14.855Z</time></trkpt><trkpt lat="38.3817433" lon="21.5637083"><ele>39.0</ele><time>2026-04-30T11:45:15.856Z</time></trkpt><trkpt lat="38.3816053" lon="21.5634915"><ele>39.0</ele><time>2026-04-30T11:45:16.856Z</time></trkpt><trkpt lat="38.3814446" lon="21.563286"><ele>39.0</ele><time>2026-04-30T11:45:17.856Z</time></trkpt><trkpt lat="38.3812692" lon="21.5630969"><ele>39.0</ele><time>2026-04-30T11:45:18.855Z</time></trkpt><trkpt lat="38.3810839" lon="21.562921"><ele>39.0</ele><time>2026-04-30T11:45:19.856Z</time></trkpt><trkpt lat="38.380893" lon="21.5627529"><ele>33.5</ele><time>2026-04-30T11:45:20.855Z</time></trkpt><trkpt lat="38.3807011" lon="21.5625869"><ele>28.0</ele><time>2026-04-30T11:45:21.855Z</time></trkpt><trkpt lat="38.380512" lon="21.5624209"><ele>28.0</ele><time>2026-04-30T11:45:22.855Z</time></trkpt><trkpt lat="38.3803189" lon="21.562254"><ele>28.0</ele><time>2026-04-30T11:45:23.855Z</time></trkpt><trkpt lat="38.3801463" lon="21.562103"><ele>28.0</ele><time>2026-04-30T11:45:24.856Z</time></trkpt><trkpt lat="38.379972" lon="21.5619495"><ele>26.666666666666668</ele><time>2026-04-30T11:45:25.856Z</time></trkpt><trkpt lat="38.3797996" lon="21.5617979"><ele>25.333333333333336</ele><time>2026-04-30T11:45:26.856Z</time></trkpt><trkpt lat="38.3796254" lon="21.5616453"><ele>24.0</ele><time>2026-04-30T11:45:27.856Z</time></trkpt><trkpt lat="38.3794489" lon="21.5614928"><ele>24.0</ele><time>2026-04-30T11:45:28.855Z</time></trkpt><trkpt lat="38.3792712" lon="21.56134"><ele>24.0</ele><time>2026-04-30T11:45:29.856Z</time></trkpt><trkpt lat="38.3790932" lon="21.5611856"><ele>24.0</ele><time>2026-04-30T11:45:30.855Z</time></trkpt><trkpt lat="38.3789094" lon="21.5610262"><ele>24.0</ele><time>2026-04-30T11:45:31.855Z</time></trkpt><trkpt lat="38.3787373" lon="21.5608773"><ele>24.0</ele><time>2026-04-30T11:45:32.856Z</time></trkpt><trkpt lat="38.3785605" lon="21.560725"><ele>24.0</ele><time>2026-04-30T11:45:33.855Z</time></trkpt><trkpt lat="38.3783864" lon="21.5605719"><ele>24.0</ele><time>2026-04-30T11:45:34.855Z</time></trkpt><trkpt lat="38.3782178" lon="21.5604147"><ele>24.0</ele><time>2026-04-30T11:45:35.855Z</time></trkpt><trkpt lat="38.3780607" lon="21.5602484"><ele>24.0</ele><time>2026-04-30T11:45:36.856Z</time></trkpt><trkpt lat="38.377923" lon="21.5600626"><ele>23.333333333333332</ele><time>2026-04-30T11:45:37.855Z</time></trkpt><trkpt lat="38.3778106" lon="21.5598529"><ele>22.666666666666664</ele><time>2026-04-30T11:45:38.855Z</time></trkpt><trkpt lat="38.3777211" lon="21.5596135"><ele>22.0</ele><time>2026-04-30T11:45:39.855Z</time></trkpt><trkpt lat="38.3776544" lon="21.5593735"><ele>22.0</ele><time>2026-04-30T11:45:40.855Z</time></trkpt><trkpt lat="38.377596" lon="21.5591136"><ele>22.0</ele><time>2026-04-30T11:45:41.855Z</time></trkpt><trkpt lat="38.3775426" lon="21.5588461"><ele>22.0</ele><time>2026-04-30T11:45:42.855Z</time></trkpt><trkpt lat="38.3774899" lon="21.5585755"><ele>22.0</ele><time>2026-04-30T11:45:43.855Z</time></trkpt><trkpt lat="38.3774387" lon="21.5583062"><ele>22.0</ele><time>2026-04-30T11:45:44.856Z</time></trkpt><trkpt lat="38.3773893" lon="21.5580405"><ele>22.0</ele><time>2026-04-30T11:45:45.855Z</time></trkpt><trkpt lat="38.3773403" lon="21.5577799"><ele>22.333333333333332</ele><time>2026-04-30T11:45:46.855Z</time></trkpt><trkpt lat="38.3772905" lon="21.5575141"><ele>22.666666666666668</ele><time>2026-04-30T11:45:47.855Z</time></trkpt><trkpt lat="38.3772457" lon="21.5572651"><ele>23.0</ele><time>2026-04-30T11:45:48.856Z</time></trkpt><trkpt lat="38.3772003" lon="21.5570083"><ele>22.333333333333336</ele><time>2026-04-30T11:45:49.855Z</time></trkpt><trkpt lat="38.3771536" lon="21.5567522"><ele>21.666666666666668</ele><time>2026-04-30T11:45:50.856Z</time></trkpt><trkpt lat="38.3771081" lon="21.5564961"><ele>21.0</ele><time>2026-04-30T11:45:51.855Z</time></trkpt><trkpt lat="38.3770633" lon="21.5562483"><ele>21.0</ele><time>2026-04-30T11:45:52.855Z</time></trkpt><trkpt lat="38.3770213" lon="21.5560169"><ele>21.0</ele><time>2026-04-30T11:45:53.855Z</time></trkpt><trkpt lat="38.3769826" lon="21.5558028"><ele>21.0</ele><time>2026-04-30T11:45:54.856Z</time></trkpt><trkpt lat="38.3769461" lon="21.5555975"><ele>21.0</ele><time>2026-04-30T11:45:55.856Z</time></trkpt><trkpt lat="38.3769143" lon="21.5554186"><ele>21.0</ele><time>2026-04-30T11:45:56.855Z</time></trkpt><trkpt lat="38.3768839" lon="21.5552488"><ele>21.0</ele><time>2026-04-30T11:45:57.856Z</time></trkpt><trkpt lat="38.3768564" lon="21.555103"><ele>21.0</ele><time>2026-04-30T11:45:58.856Z</time></trkpt><trkpt lat="38.3768324" lon="21.5549725"><ele>21.0</ele><time>2026-04-30T11:45:59.856Z</time></trkpt><trkpt lat="38.3768097" lon="21.5548449"><ele>21.0</ele><time>2026-04-30T11:46:00.856Z</time></trkpt><trkpt lat="38.3767866" lon="21.5547145"><ele>21.0</ele><time>2026-04-30T11:46:01.855Z</time></trkpt><trkpt lat="38.3767627" lon="21.5545731"><ele>21.0</ele><time>2026-04-30T11:46:02.856Z</time></trkpt><trkpt lat="38.3767364" lon="21.5544162"><ele>21.0</ele><time>2026-04-30T11:46:03.855Z</time></trkpt><trkpt lat="38.376708" lon="21.5542553"><ele>21.0</ele><time>2026-04-30T11:46:04.855Z</time></trkpt><trkpt lat="38.3766744" lon="21.5540693"><ele>21.0</ele><time>2026-04-30T11:46:05.856Z</time></trkpt><trkpt lat="38.3766385" lon="21.5538707"><ele>21.0</ele><time>2026-04-30T11:46:06.856Z</time></trkpt><trkpt lat="38.3766008" lon="21.5536625"><ele>20.666666666666668</ele><time>2026-04-30T11:46:07.855Z</time></trkpt><trkpt lat="38.3765604" lon="21.5534408"><ele>20.333333333333336</ele><time>2026-04-30T11:46:08.856Z</time></trkpt><trkpt lat="38.376517" lon="21.5531992"><ele>20.0</ele><time>2026-04-30T11:46:09.855Z</time></trkpt><trkpt lat="38.3764747" lon="21.5529554"><ele>19.666666666666668</ele><time>2026-04-30T11:46:10.855Z</time></trkpt><trkpt lat="38.3764291" lon="21.5527014"><ele>19.333333333333332</ele><time>2026-04-30T11:46:11.856Z</time></trkpt><trkpt lat="38.3763867" lon="21.5524618"><ele>19.0</ele><time>2026-04-30T11:46:12.855Z</time></trkpt><trkpt lat="38.3763422" lon="21.5522148"><ele>19.333333333333332</ele><time>2026-04-30T11:46:13.856Z</time></trkpt><trkpt lat="38.3762982" lon="21.5519694"><ele>19.666666666666668</ele><time>2026-04-30T11:46:14.856Z</time></trkpt><trkpt lat="38.3762546" lon="21.5517278"><ele>20.0</ele><time>2026-04-30T11:46:15.856Z</time></trkpt><trkpt lat="38.3762119" lon="21.5514927"><ele>20.0</ele><time>2026-04-30T11:46:16.856Z</time></trkpt><trkpt lat="38.37617" lon="21.5512653"><ele>20.0</ele><time>2026-04-30T11:46:17.856Z</time></trkpt><trkpt lat="38.3761294" lon="21.5510458"><ele>20.0</ele><time>2026-04-30T11:46:18.856Z</time></trkpt><trkpt lat="38.3760911" lon="21.5508263"><ele>21.0</ele><time>2026-04-30T11:46:19.855Z</time></trkpt><trkpt lat="38.3760573" lon="21.5506258"><ele>22.0</ele><time>2026-04-30T11:46:20.855Z</time></trkpt><trkpt lat="38.3760222" lon="21.5504268"><ele>23.0</ele><time>2026-04-30T11:46:21.856Z</time></trkpt><trkpt lat="38.3759869" lon="21.5502354"><ele>23.5</ele><time>2026-04-30T11:46:22.856Z</time></trkpt><trkpt lat="38.3759542" lon="21.5500566"><ele>24.0</ele><time>2026-04-30T11:46:23.856Z</time></trkpt><trkpt lat="38.3759248" lon="21.5498894"><ele>24.5</ele><time>2026-04-30T11:46:24.856Z</time></trkpt><trkpt lat="38.375897" lon="21.5497311"><ele>25.0</ele><time>2026-04-30T11:46:25.856Z</time></trkpt><trkpt lat="38.3758677" lon="21.5495723"><ele>24.5</ele><time>2026-04-30T11:46:26.855Z</time></trkpt><trkpt lat="38.3758373" lon="21.5494113"><ele>24.0</ele><time>2026-04-30T11:46:27.855Z</time></trkpt><trkpt lat="38.3758104" lon="21.5492659"><ele>23.5</ele><time>2026-04-30T11:46:28.856Z</time></trkpt><trkpt lat="38.3757833" lon="21.5491157"><ele>23.0</ele><time>2026-04-30T11:46:29.855Z</time></trkpt><trkpt lat="38.3757571" lon="21.548968"><ele>23.0</ele><time>2026-04-30T11:46:30.855Z</time></trkpt><trkpt lat="38.3757298" lon="21.5488095"><ele>23.0</ele><time>2026-04-30T11:46:31.855Z</time></trkpt><trkpt lat="38.3756999" lon="21.5486368"><ele>23.0</ele><time>2026-04-30T11:46:32.855Z</time></trkpt><trkpt lat="38.3756671" lon="21.5484465"><ele>23.0</ele><time>2026-04-30T11:46:33.856Z</time></trkpt><trkpt lat="38.3756301" lon="21.5482413"><ele>23.333333333333336</ele><time>2026-04-30T11:46:34.855Z</time></trkpt><trkpt lat="38.3755909" lon="21.5480297"><ele>23.666666666666668</ele><time>2026-04-30T11:46:35.856Z</time></trkpt><trkpt lat="38.3755546" lon="21.5478332"><ele>24.0</ele><time>2026-04-30T11:46:36.855Z</time></trkpt><trkpt lat="38.3755161" lon="21.5476331"><ele>23.666666666666668</ele><time>2026-04-30T11:46:37.855Z</time></trkpt><trkpt lat="38.3754793" lon="21.5474304"><ele>23.333333333333336</ele><time>2026-04-30T11:46:38.855Z</time></trkpt><trkpt lat="38.3754425" lon="21.5472263"><ele>23.0</ele><time>2026-04-30T11:46:39.855Z</time></trkpt><trkpt lat="38.3754057" lon="21.5470186"><ele>23.0</ele><time>2026-04-30T11:46:40.856Z</time></trkpt><trkpt lat="38.3753693" lon="21.546807"><ele>23.0</ele><time>2026-04-30T11:46:41.856Z</time></trkpt><trkpt lat="38.3753304" lon="21.5465913"><ele>23.0</ele><time>2026-04-30T11:46:42.855Z</time></trkpt><trkpt lat="38.3752892" lon="21.5463643"><ele>23.0</ele><time>2026-04-30T11:46:43.855Z</time></trkpt><trkpt lat="38.3752494" lon="21.5461459"><ele>23.0</ele><time>2026-04-30T11:46:44.856Z</time></trkpt><trkpt lat="38.3752076" lon="21.545914"><ele>23.0</ele><time>2026-04-30T11:46:45.855Z</time></trkpt><trkpt lat="38.3751643" lon="21.545672"><ele>23.0</ele><time>2026-04-30T11:46:46.855Z</time></trkpt><trkpt lat="38.3751199" lon="21.5454209"><ele>23.0</ele><time>2026-04-30T11:46:47.855Z</time></trkpt><trkpt lat="38.3750733" lon="21.5451626"><ele>23.0</ele><time>2026-04-30T11:46:48.856Z</time></trkpt><trkpt lat="38.3750255" lon="21.5448988"><ele>23.666666666666668</ele><time>2026-04-30T11:46:49.856Z</time></trkpt><trkpt lat="38.3749753" lon="21.5446299"><ele>24.333333333333336</ele><time>2026-04-30T11:46:50.855Z</time></trkpt><trkpt lat="38.3749204" lon="21.544351"><ele>25.0</ele><time>2026-04-30T11:46:51.856Z</time></trkpt><trkpt lat="38.3748613" lon="21.544091"><ele>26.333333333333336</ele><time>2026-04-30T11:46:52.855Z</time></trkpt><trkpt lat="38.3747887" lon="21.5438238"><ele>27.666666666666664</ele><time>2026-04-30T11:46:53.856Z</time></trkpt><trkpt lat="38.3747006" lon="21.5435584"><ele>29.0</ele><time>2026-04-30T11:46:54.855Z</time></trkpt><trkpt lat="38.3745951" lon="21.5432972"><ele>30.0</ele><time>2026-04-30T11:46:55.855Z</time></trkpt><trkpt lat="38.3744736" lon="21.54304"><ele>31.0</ele><time>2026-04-30T11:46:56.856Z</time></trkpt><trkpt lat="38.3743399" lon="21.5427869"><ele>34.5</ele><time>2026-04-30T11:46:57.856Z</time></trkpt><trkpt lat="38.3742" lon="21.5425334"><ele>38.0</ele><time>2026-04-30T11:46:58.856Z</time></trkpt><trkpt lat="38.374055" lon="21.5422733"><ele>37.5</ele><time>2026-04-30T11:46:59.855Z</time></trkpt><trkpt lat="38.3739206" lon="21.5420316"><ele>37.0</ele><time>2026-04-30T11:47:00.856Z</time></trkpt><trkpt lat="38.3737857" lon="21.5417814"><ele>37.0</ele><time>2026-04-30T11:47:01.856Z</time></trkpt><trkpt lat="38.3736558" lon="21.5415303"><ele>37.0</ele><time>2026-04-30T11:47:02.856Z</time></trkpt><trkpt lat="38.3735361" lon="21.5412753"><ele>41.5</ele><time>2026-04-30T11:47:03.856Z</time></trkpt><trkpt lat="38.3734339" lon="21.5410125"><ele>46.0</ele><time>2026-04-30T11:47:04.856Z</time></trkpt><trkpt lat="38.3733524" lon="21.5407376"><ele>46.0</ele><time>2026-04-30T11:47:05.856Z</time></trkpt><trkpt lat="38.3732938" lon="21.5404471"><ele>46.0</ele><time>2026-04-30T11:47:06.855Z</time></trkpt><trkpt lat="38.3732585" lon="21.5401347"><ele>49.5</ele><time>2026-04-30T11:47:07.855Z</time></trkpt><trkpt lat="38.373242" lon="21.5398377"><ele>53.0</ele><time>2026-04-30T11:47:08.855Z</time></trkpt><trkpt lat="38.3732304" lon="21.5395262"><ele>54.5</ele><time>2026-04-30T11:47:09.856Z</time></trkpt><trkpt lat="38.3732097" lon="21.5392101"><ele>56.0</ele><time>2026-04-30T11:47:10.856Z</time></trkpt><trkpt lat="38.3731724" lon="21.5388922"><ele>56.0</ele><time>2026-04-30T11:47:11.856Z</time></trkpt><trkpt lat="38.3731089" lon="21.5385842"><ele>56.0</ele><time>2026-04-30T11:47:12.856Z</time></trkpt><trkpt lat="38.3730131" lon="21.5382882"><ele>56.0</ele><time>2026-04-30T11:47:13.855Z</time></trkpt><trkpt lat="38.3728889" lon="21.5380014"><ele>56.0</ele><time>2026-04-30T11:47:14.856Z</time></trkpt><trkpt lat="38.3727416" lon="21.5377123"><ele>58.5</ele><time>2026-04-30T11:47:15.855Z</time></trkpt><trkpt lat="38.3725929" lon="21.5374493"><ele>61.0</ele><time>2026-04-30T11:47:16.856Z</time></trkpt><trkpt lat="38.3724387" lon="21.5371905"><ele>64.5</ele><time>2026-04-30T11:47:17.856Z</time></trkpt><trkpt lat="38.3722847" lon="21.5369409"><ele>68.0</ele><time>2026-04-30T11:47:18.856Z</time></trkpt><trkpt lat="38.3721371" lon="21.5367006"><ele>71.0</ele><time>2026-04-30T11:47:19.856Z</time></trkpt><trkpt lat="38.3719942" lon="21.5364693"><ele>74.0</ele><time>2026-04-30T11:47:20.856Z</time></trkpt><trkpt lat="38.3718537" lon="21.5362452"><ele>71.66666666666667</ele><time>2026-04-30T11:47:21.855Z</time></trkpt><trkpt lat="38.3717225" lon="21.5360272"><ele>69.33333333333333</ele><time>2026-04-30T11:47:22.855Z</time></trkpt><trkpt lat="38.3716016" lon="21.5357974"><ele>67.0</ele><time>2026-04-30T11:47:23.855Z</time></trkpt><trkpt lat="38.3715026" lon="21.5355709"><ele>66.33333333333333</ele><time>2026-04-30T11:47:24.855Z</time></trkpt><trkpt lat="38.3714125" lon="21.535323"><ele>65.66666666666667</ele><time>2026-04-30T11:47:25.856Z</time></trkpt><trkpt lat="38.3713353" lon="21.535061"><ele>65.0</ele><time>2026-04-30T11:47:26.855Z</time></trkpt><trkpt lat="38.3712697" lon="21.5347858"><ele>53.5</ele><time>2026-04-30T11:47:27.856Z</time></trkpt><trkpt lat="38.3712127" lon="21.5344991"><ele>42.0</ele><time>2026-04-30T11:47:28.855Z</time></trkpt><trkpt lat="38.3711612" lon="21.5341989"><ele>42.0</ele><time>2026-04-30T11:47:29.856Z</time></trkpt><trkpt lat="38.3711139" lon="21.5338972"><ele>42.0</ele><time>2026-04-30T11:47:30.855Z</time></trkpt><trkpt lat="38.3710644" lon="21.5335763"><ele>40.5</ele><time>2026-04-30T11:47:31.855Z</time></trkpt><trkpt lat="38.371019" lon="21.5332712"><ele>39.0</ele><time>2026-04-30T11:47:32.855Z</time></trkpt><trkpt lat="38.3709731" lon="21.5329533"><ele>36.0</ele><time>2026-04-30T11:47:33.855Z</time></trkpt><trkpt lat="38.3709271" lon="21.532633"><ele>33.0</ele><time>2026-04-30T11:47:34.856Z</time></trkpt><trkpt lat="38.3708779" lon="21.5323133"><ele>30.5</ele><time>2026-04-30T11:47:35.856Z</time></trkpt><trkpt lat="38.3708297" lon="21.5319898"><ele>28.0</ele><time>2026-04-30T11:47:36.856Z</time></trkpt><trkpt lat="38.3707809" lon="21.5316668"><ele>28.0</ele><time>2026-04-30T11:47:37.856Z</time></trkpt><trkpt lat="38.3707347" lon="21.5313439"><ele>28.0</ele><time>2026-04-30T11:47:38.855Z</time></trkpt><trkpt lat="38.3706878" lon="21.5310089"><ele>30.0</ele><time>2026-04-30T11:47:39.855Z</time></trkpt><trkpt lat="38.3706415" lon="21.5307063"><ele>32.0</ele><time>2026-04-30T11:47:40.855Z</time></trkpt><trkpt lat="38.3705964" lon="21.5304007"><ele>35.0</ele><time>2026-04-30T11:47:41.855Z</time></trkpt><trkpt lat="38.3705558" lon="21.5301021"><ele>38.0</ele><time>2026-04-30T11:47:42.855Z</time></trkpt><trkpt lat="38.3705274" lon="21.5298068"><ele>30.0</ele><time>2026-04-30T11:47:43.856Z</time></trkpt><trkpt lat="38.3705145" lon="21.5295143"><ele>22.0</ele><time>2026-04-30T11:47:44.856Z</time></trkpt><trkpt lat="38.3705218" lon="21.5292236"><ele>24.5</ele><time>2026-04-30T11:47:45.855Z</time></trkpt><trkpt lat="38.3705492" lon="21.5289327"><ele>27.0</ele><time>2026-04-30T11:47:46.856Z</time></trkpt><trkpt lat="38.3705983" lon="21.5286334"><ele>27.0</ele><time>2026-04-30T11:47:47.855Z</time></trkpt><trkpt lat="38.3706626" lon="21.5283526"><ele>27.0</ele><time>2026-04-30T11:47:48.856Z</time></trkpt><trkpt lat="38.370746" lon="21.528064"><ele>25.5</ele><time>2026-04-30T11:47:49.856Z</time></trkpt><trkpt lat="38.3708384" lon="21.5277736"><ele>24.0</ele><time>2026-04-30T11:47:50.856Z</time></trkpt><trkpt lat="38.3709347" lon="21.5274826"><ele>24.0</ele><time>2026-04-30T11:47:51.855Z</time></trkpt><trkpt lat="38.3710332" lon="21.527192"><ele>24.0</ele><time>2026-04-30T11:47:52.856Z</time></trkpt><trkpt lat="38.3711325" lon="21.5269024"><ele>23.0</ele><time>2026-04-30T11:47:53.856Z</time></trkpt><trkpt lat="38.3712315" lon="21.5266129"><ele>22.0</ele><time>2026-04-30T11:47:54.855Z</time></trkpt><trkpt lat="38.371334" lon="21.5263127"><ele>22.0</ele><time>2026-04-30T11:47:55.856Z</time></trkpt><trkpt lat="38.3714312" lon="21.5260293"><ele>22.0</ele><time>2026-04-30T11:47:56.855Z</time></trkpt><trkpt lat="38.3715323" lon="21.5257352"><ele>22.0</ele><time>2026-04-30T11:47:57.856Z</time></trkpt><trkpt lat="38.3716341" lon="21.5254395"><ele>22.0</ele><time>2026-04-30T11:47:58.855Z</time></trkpt><trkpt lat="38.3717363" lon="21.5251432"><ele>21.0</ele><time>2026-04-30T11:47:59.856Z</time></trkpt><trkpt lat="38.3718387" lon="21.5248464"><ele>20.0</ele><time>2026-04-30T11:48:00.856Z</time></trkpt><trkpt lat="38.3719399" lon="21.5245482"><ele>19.5</ele><time>2026-04-30T11:48:01.855Z</time></trkpt><trkpt lat="38.3720404" lon="21.5242477"><ele>19.0</ele><time>2026-04-30T11:48:02.856Z</time></trkpt><trkpt lat="38.3721435" lon="21.523936"><ele>19.5</ele><time>2026-04-30T11:48:03.855Z</time></trkpt><trkpt lat="38.3722392" lon="21.5236428"><ele>20.0</ele><time>2026-04-30T11:48:04.856Z</time></trkpt><trkpt lat="38.3723358" lon="21.5233372"><ele>20.0</ele><time>2026-04-30T11:48:05.855Z</time></trkpt><trkpt lat="38.3724302" lon="21.5230279"><ele>20.0</ele><time>2026-04-30T11:48:06.856Z</time></trkpt><trkpt lat="38.3725236" lon="21.5227139"><ele>19.5</ele><time>2026-04-30T11:48:07.855Z</time></trkpt><trkpt lat="38.3726158" lon="21.5223941"><ele>19.0</ele><time>2026-04-30T11:48:08.856Z</time></trkpt><trkpt lat="38.3727072" lon="21.5220677"><ele>18.0</ele><time>2026-04-30T11:48:09.856Z</time></trkpt><trkpt lat="38.3727968" lon="21.5217362"><ele>17.0</ele><time>2026-04-30T11:48:10.856Z</time></trkpt><trkpt lat="38.3728882" lon="21.5213901"><ele>17.5</ele><time>2026-04-30T11:48:11.856Z</time></trkpt><trkpt lat="38.3729721" lon="21.5210624"><ele>18.0</ele><time>2026-04-30T11:48:12.855Z</time></trkpt><trkpt lat="38.3730567" lon="21.520721"><ele>19.0</ele><time>2026-04-30T11:48:13.855Z</time></trkpt><trkpt lat="38.3731391" lon="21.5203766"><ele>20.0</ele><time>2026-04-30T11:48:14.855Z</time></trkpt><trkpt lat="38.3732218" lon="21.5200305"><ele>20.0</ele><time>2026-04-30T11:48:15.856Z</time></trkpt><trkpt lat="38.3733069" lon="21.5196844"><ele>20.0</ele><time>2026-04-30T11:48:16.855Z</time></trkpt><trkpt lat="38.3733925" lon="21.5193378"><ele>20.5</ele><time>2026-04-30T11:48:17.856Z</time></trkpt><trkpt lat="38.3734772" lon="21.5189892"><ele>21.0</ele><time>2026-04-30T11:48:18.856Z</time></trkpt><trkpt lat="38.373564" lon="21.5186301"><ele>20.0</ele><time>2026-04-30T11:48:19.855Z</time></trkpt><trkpt lat="38.3736459" lon="21.5182934"><ele>19.0</ele><time>2026-04-30T11:48:20.856Z</time></trkpt><trkpt lat="38.3737281" lon="21.5179468"><ele>18.5</ele><time>2026-04-30T11:48:21.856Z</time></trkpt><trkpt lat="38.3738086" lon="21.5176037"><ele>18.0</ele><time>2026-04-30T11:48:22.856Z</time></trkpt><trkpt lat="38.373889" lon="21.5172645"><ele>21.5</ele><time>2026-04-30T11:48:23.855Z</time></trkpt><trkpt lat="38.3739684" lon="21.5169295"><ele>25.0</ele><time>2026-04-30T11:48:24.856Z</time></trkpt><trkpt lat="38.374048" lon="21.5165991"><ele>25.0</ele><time>2026-04-30T11:48:25.855Z</time></trkpt><trkpt lat="38.3741266" lon="21.5162726"><ele>25.0</ele><time>2026-04-30T11:48:26.855Z</time></trkpt><trkpt lat="38.374206" lon="21.5159404"><ele>25.0</ele><time>2026-04-30T11:48:27.855Z</time></trkpt><trkpt lat="38.3742797" lon="21.5156326"><ele>25.0</ele><time>2026-04-30T11:48:28.856Z</time></trkpt><trkpt lat="38.3743565" lon="21.5153138"><ele>25.0</ele><time>2026-04-30T11:48:29.856Z</time></trkpt><trkpt lat="38.3744296" lon="21.5150102"><ele>25.0</ele><time>2026-04-30T11:48:30.856Z</time></trkpt><trkpt lat="38.3745056" lon="21.5146959"><ele>23.0</ele><time>2026-04-30T11:48:31.855Z</time></trkpt><trkpt lat="38.3745838" lon="21.5143731"><ele>21.0</ele><time>2026-04-30T11:48:32.856Z</time></trkpt><trkpt lat="38.3746592" lon="21.5140614"><ele>22.5</ele><time>2026-04-30T11:48:33.855Z</time></trkpt><trkpt lat="38.3747316" lon="21.5137627"><ele>24.0</ele><time>2026-04-30T11:48:34.856Z</time></trkpt><trkpt lat="38.3748063" lon="21.5134567"><ele>24.0</ele><time>2026-04-30T11:48:35.856Z</time></trkpt><trkpt lat="38.374876" lon="21.5131726"><ele>24.0</ele><time>2026-04-30T11:48:36.856Z</time></trkpt><trkpt lat="38.3749446" lon="21.5128909"><ele>23.0</ele><time>2026-04-30T11:48:37.856Z</time></trkpt><trkpt lat="38.3750093" lon="21.5126176"><ele>22.0</ele><time>2026-04-30T11:48:38.856Z</time></trkpt><trkpt lat="38.3750741" lon="21.5123365"><ele>22.0</ele><time>2026-04-30T11:48:39.856Z</time></trkpt><trkpt lat="38.37514" lon="21.5120491"><ele>22.0</ele><time>2026-04-30T11:48:40.855Z</time></trkpt><trkpt lat="38.3752044" lon="21.5117695"><ele>22.0</ele><time>2026-04-30T11:48:41.855Z</time></trkpt><trkpt lat="38.3752668" lon="21.5114964"><ele>22.0</ele><time>2026-04-30T11:48:42.856Z</time></trkpt><trkpt lat="38.375334" lon="21.5112012"><ele>22.0</ele><time>2026-04-30T11:48:43.856Z</time></trkpt><trkpt lat="38.3754015" lon="21.5109096"><ele>22.0</ele><time>2026-04-30T11:48:44.855Z</time></trkpt><trkpt lat="38.3754707" lon="21.5106138"><ele>22.5</ele><time>2026-04-30T11:48:45.855Z</time></trkpt><trkpt lat="38.3755392" lon="21.5103206"><ele>23.0</ele><time>2026-04-30T11:48:46.856Z</time></trkpt><trkpt lat="38.3756104" lon="21.5100084"><ele>23.0</ele><time>2026-04-30T11:48:47.855Z</time></trkpt><trkpt lat="38.375685" lon="21.509676"><ele>23.0</ele><time>2026-04-30T11:48:48.855Z</time></trkpt><trkpt lat="38.3757597" lon="21.5093427"><ele>22.0</ele><time>2026-04-30T11:48:49.856Z</time></trkpt><trkpt lat="38.3758362" lon="21.5090102"><ele>21.0</ele><time>2026-04-30T11:48:50.855Z</time></trkpt><trkpt lat="38.3759212" lon="21.5086503"><ele>20.5</ele><time>2026-04-30T11:48:51.855Z</time></trkpt><trkpt lat="38.3760051" lon="21.5083023"><ele>20.0</ele><time>2026-04-30T11:48:52.855Z</time></trkpt><trkpt lat="38.3760914" lon="21.5079584"><ele>17.0</ele><time>2026-04-30T11:48:53.856Z</time></trkpt><trkpt lat="38.3761746" lon="21.5076316"><ele>14.0</ele><time>2026-04-30T11:48:54.856Z</time></trkpt><trkpt lat="38.3762624" lon="21.5072944"><ele>13.5</ele><time>2026-04-30T11:48:55.855Z</time></trkpt><trkpt lat="38.376345" lon="21.5069729"><ele>13.0</ele><time>2026-04-30T11:48:56.855Z</time></trkpt><trkpt lat="38.3764241" lon="21.5066584"><ele>15.5</ele><time>2026-04-30T11:48:57.855Z</time></trkpt><trkpt lat="38.3765017" lon="21.5063508"><ele>18.0</ele><time>2026-04-30T11:48:58.855Z</time></trkpt><trkpt lat="38.3765795" lon="21.5060353"><ele>18.0</ele><time>2026-04-30T11:48:59.856Z</time></trkpt><trkpt lat="38.3766511" lon="21.5057406"><ele>18.0</ele><time>2026-04-30T11:49:00.856Z</time></trkpt><trkpt lat="38.3767248" lon="21.5054384"><ele>18.5</ele><time>2026-04-30T11:49:01.855Z</time></trkpt><trkpt lat="38.3767992" lon="21.5051357"><ele>19.0</ele><time>2026-04-30T11:49:02.855Z</time></trkpt><trkpt lat="38.3768738" lon="21.5048303"><ele>19.0</ele><time>2026-04-30T11:49:03.855Z</time></trkpt><trkpt lat="38.3769503" lon="21.504525"><ele>19.0</ele><time>2026-04-30T11:49:04.856Z</time></trkpt><trkpt lat="38.3770298" lon="21.504221"><ele>19.0</ele><time>2026-04-30T11:49:05.855Z</time></trkpt><trkpt lat="38.3771123" lon="21.5039186"><ele>19.0</ele><time>2026-04-30T11:49:06.856Z</time></trkpt><trkpt lat="38.3772001" lon="21.5036094"><ele>19.5</ele><time>2026-04-30T11:49:07.855Z</time></trkpt><trkpt lat="38.3772842" lon="21.5033212"><ele>20.0</ele><time>2026-04-30T11:49:08.855Z</time></trkpt><trkpt lat="38.3773723" lon="21.5030248"><ele>19.5</ele><time>2026-04-30T11:49:09.856Z</time></trkpt><trkpt lat="38.3774615" lon="21.5027295"><ele>19.0</ele><time>2026-04-30T11:49:10.856Z</time></trkpt><trkpt lat="38.3775496" lon="21.502435"><ele>19.0</ele><time>2026-04-30T11:49:11.856Z</time></trkpt><trkpt lat="38.3776362" lon="21.5021416"><ele>19.0</ele><time>2026-04-30T11:49:12.856Z</time></trkpt><trkpt lat="38.3777218" lon="21.5018503"><ele>19.0</ele><time>2026-04-30T11:49:13.855Z</time></trkpt><trkpt lat="38.3778057" lon="21.501561"><ele>19.0</ele><time>2026-04-30T11:49:14.856Z</time></trkpt><trkpt lat="38.3778906" lon="21.5012703"><ele>18.666666666666664</ele><time>2026-04-30T11:49:15.855Z</time></trkpt><trkpt lat="38.3779686" lon="21.5010041"><ele>18.333333333333332</ele><time>2026-04-30T11:49:16.855Z</time></trkpt><trkpt lat="38.3780455" lon="21.5007392"><ele>18.0</ele><time>2026-04-30T11:49:17.856Z</time></trkpt><trkpt lat="38.3781176" lon="21.5004889"><ele>19.0</ele><time>2026-04-30T11:49:18.855Z</time></trkpt><trkpt lat="38.3781921" lon="21.5002324"><ele>20.0</ele><time>2026-04-30T11:49:19.856Z</time></trkpt><trkpt lat="38.3782652" lon="21.4999873"><ele>21.0</ele><time>2026-04-30T11:49:20.855Z</time></trkpt><trkpt lat="38.378339" lon="21.4997416"><ele>20.666666666666668</ele><time>2026-04-30T11:49:21.855Z</time></trkpt><trkpt lat="38.3784131" lon="21.4994925"><ele>20.333333333333336</ele><time>2026-04-30T11:49:22.856Z</time></trkpt><trkpt lat="38.3784877" lon="21.4992345"><ele>20.0</ele><time>2026-04-30T11:49:23.856Z</time></trkpt><trkpt lat="38.3785618" lon="21.4989729"><ele>20.0</ele><time>2026-04-30T11:49:24.856Z</time></trkpt><trkpt lat="38.3786348" lon="21.4987061"><ele>20.0</ele><time>2026-04-30T11:49:25.855Z</time></trkpt><trkpt lat="38.3787034" lon="21.4984442"><ele>20.0</ele><time>2026-04-30T11:49:26.856Z</time></trkpt><trkpt lat="38.3787726" lon="21.4981646"><ele>19.0</ele><time>2026-04-30T11:49:27.856Z</time></trkpt><trkpt lat="38.3788344" lon="21.4978887"><ele>18.0</ele><time>2026-04-30T11:49:28.856Z</time></trkpt><trkpt lat="38.378887" lon="21.4976046"><ele>19.5</ele><time>2026-04-30T11:49:29.856Z</time></trkpt><trkpt lat="38.3789279" lon="21.4973266"><ele>21.0</ele><time>2026-04-30T11:49:30.856Z</time></trkpt><trkpt lat="38.3789603" lon="21.4970268"><ele>21.0</ele><time>2026-04-30T11:49:31.855Z</time></trkpt><trkpt lat="38.3789822" lon="21.4967357"><ele>21.0</ele><time>2026-04-30T11:49:32.855Z</time></trkpt><trkpt lat="38.3789961" lon="21.4964443"><ele>20.666666666666668</ele><time>2026-04-30T11:49:33.855Z</time></trkpt><trkpt lat="38.3790034" lon="21.4961627"><ele>20.333333333333336</ele><time>2026-04-30T11:49:34.855Z</time></trkpt><trkpt lat="38.3790059" lon="21.4958736"><ele>20.0</ele><time>2026-04-30T11:49:35.856Z</time></trkpt><trkpt lat="38.3790063" lon="21.4955773"><ele>19.666666666666668</ele><time>2026-04-30T11:49:36.855Z</time></trkpt><trkpt lat="38.3790077" lon="21.4952928"><ele>19.333333333333332</ele><time>2026-04-30T11:49:37.855Z</time></trkpt><trkpt lat="38.3790147" lon="21.4950214"><ele>19.0</ele><time>2026-04-30T11:49:38.856Z</time></trkpt><trkpt lat="38.3790276" lon="21.494738"><ele>18.333333333333332</ele><time>2026-04-30T11:49:39.855Z</time></trkpt><trkpt lat="38.3790402" lon="21.4944674"><ele>17.666666666666668</ele><time>2026-04-30T11:49:40.856Z</time></trkpt><trkpt lat="38.3790485" lon="21.4942069"><ele>17.0</ele><time>2026-04-30T11:49:41.855Z</time></trkpt><trkpt lat="38.3790524" lon="21.4939665"><ele>17.333333333333336</ele><time>2026-04-30T11:49:42.856Z</time></trkpt><trkpt lat="38.3790523" lon="21.4937361"><ele>17.666666666666668</ele><time>2026-04-30T11:49:43.855Z</time></trkpt><trkpt lat="38.3790506" lon="21.493521"><ele>18.0</ele><time>2026-04-30T11:49:44.856Z</time></trkpt><trkpt lat="38.3790505" lon="21.4933346"><ele>18.0</ele><time>2026-04-30T11:49:45.856Z</time></trkpt><trkpt lat="38.3790525" lon="21.4931806"><ele>18.0</ele><time>2026-04-30T11:49:46.856Z</time></trkpt><trkpt lat="38.379057" lon="21.4930554"><ele>18.0</ele><time>2026-04-30T11:49:47.856Z</time></trkpt><trkpt lat="38.3790634" lon="21.4929646"><ele>18.0</ele><time>2026-04-30T11:49:48.855Z</time></trkpt><trkpt lat="38.3791036" lon="21.4928225"><ele>18.0</ele><time>2026-04-30T11:49:50.856Z</time></trkpt><trkpt lat="38.3791483" lon="21.4927507"><ele>17.833333333333332</ele><time>2026-04-30T11:49:51.856Z</time></trkpt><trkpt lat="38.3791964" lon="21.4926688"><ele>17.666666666666668</ele><time>2026-04-30T11:49:52.856Z</time></trkpt><trkpt lat="38.3792172" lon="21.4925831"><ele>17.5</ele><time>2026-04-30T11:49:53.855Z</time></trkpt><trkpt lat="38.379203" lon="21.4924927"><ele>17.333333333333336</ele><time>2026-04-30T11:49:54.855Z</time></trkpt><trkpt lat="38.3791511" lon="21.492398"><ele>17.166666666666668</ele><time>2026-04-30T11:49:55.855Z</time></trkpt><trkpt lat="38.3790881" lon="21.492295"><ele>17.0</ele><time>2026-04-30T11:49:56.855Z</time></trkpt><trkpt lat="38.3790377" lon="21.4921555"><ele>16.666666666666668</ele><time>2026-04-30T11:49:57.856Z</time></trkpt><trkpt lat="38.379016" lon="21.4919853"><ele>16.333333333333332</ele><time>2026-04-30T11:49:58.856Z</time></trkpt><trkpt lat="38.3790102" lon="21.4917816"><ele>16.0</ele><time>2026-04-30T11:49:59.856Z</time></trkpt><trkpt lat="38.3790157" lon="21.4915494"><ele>16.0</ele><time>2026-04-30T11:50:00.856Z</time></trkpt><trkpt lat="38.3790251" lon="21.4913034"><ele>16.0</ele><time>2026-04-30T11:50:01.856Z</time></trkpt><trkpt lat="38.3790344" lon="21.4910458"><ele>16.0</ele><time>2026-04-30T11:50:02.856Z</time></trkpt><trkpt lat="38.3790458" lon="21.4907576"><ele>15.5</ele><time>2026-04-30T11:50:03.855Z</time></trkpt><trkpt lat="38.3790632" lon="21.4904678"><ele>15.0</ele><time>2026-04-30T11:50:04.856Z</time></trkpt><trkpt lat="38.3790897" lon="21.4901679"><ele>14.5</ele><time>2026-04-30T11:50:05.856Z</time></trkpt><trkpt lat="38.3791228" lon="21.4898672"><ele>14.0</ele><time>2026-04-30T11:50:06.856Z</time></trkpt><trkpt lat="38.3791605" lon="21.4895556"><ele>13.5</ele><time>2026-04-30T11:50:07.856Z</time></trkpt><trkpt lat="38.3792027" lon="21.4892321"><ele>13.0</ele><time>2026-04-30T11:50:08.855Z</time></trkpt><trkpt lat="38.3792452" lon="21.4889201"><ele>13.0</ele><time>2026-04-30T11:50:09.855Z</time></trkpt><trkpt lat="38.3792855" lon="21.4886194"><ele>13.0</ele><time>2026-04-30T11:50:10.855Z</time></trkpt><trkpt lat="38.3793281" lon="21.4883032"><ele>13.0</ele><time>2026-04-30T11:50:11.855Z</time></trkpt><trkpt lat="38.3793696" lon="21.4880011"><ele>13.0</ele><time>2026-04-30T11:50:12.855Z</time></trkpt><trkpt lat="38.3794107" lon="21.4877042"><ele>12.5</ele><time>2026-04-30T11:50:13.856Z</time></trkpt><trkpt lat="38.3794489" lon="21.487421"><ele>12.0</ele><time>2026-04-30T11:50:14.855Z</time></trkpt><trkpt lat="38.3794871" lon="21.4871318"><ele>12.0</ele><time>2026-04-30T11:50:15.856Z</time></trkpt><trkpt lat="38.3795234" lon="21.486834"><ele>12.0</ele><time>2026-04-30T11:50:16.855Z</time></trkpt><trkpt lat="38.3795535" lon="21.4865448"><ele>12.0</ele><time>2026-04-30T11:50:17.856Z</time></trkpt><trkpt lat="38.379576" lon="21.4862634"><ele>12.0</ele><time>2026-04-30T11:50:18.856Z</time></trkpt><trkpt lat="38.3795883" lon="21.4859612"><ele>12.5</ele><time>2026-04-30T11:50:19.856Z</time></trkpt><trkpt lat="38.3795835" lon="21.4856655"><ele>13.0</ele><time>2026-04-30T11:50:20.855Z</time></trkpt><trkpt lat="38.3795585" lon="21.4853672"><ele>13.5</ele><time>2026-04-30T11:50:21.856Z</time></trkpt><trkpt lat="38.3795156" lon="21.4850774"><ele>14.0</ele><time>2026-04-30T11:50:22.855Z</time></trkpt><trkpt lat="38.3794574" lon="21.4847775"><ele>14.5</ele><time>2026-04-30T11:50:23.856Z</time></trkpt><trkpt lat="38.3793868" lon="21.4844686"><ele>15.0</ele><time>2026-04-30T11:50:24.856Z</time></trkpt><trkpt lat="38.3793141" lon="21.4841692"><ele>15.0</ele><time>2026-04-30T11:50:25.855Z</time></trkpt><trkpt lat="38.3792444" lon="21.4838779"><ele>15.0</ele><time>2026-04-30T11:50:26.856Z</time></trkpt><trkpt lat="38.3791709" lon="21.483566"><ele>14.5</ele><time>2026-04-30T11:50:27.855Z</time></trkpt><trkpt lat="38.379101" lon="21.4832631"><ele>14.0</ele><time>2026-04-30T11:50:28.855Z</time></trkpt><trkpt lat="38.3790318" lon="21.4829599"><ele>14.5</ele><time>2026-04-30T11:50:29.856Z</time></trkpt><trkpt lat="38.378968" lon="21.482666"><ele>15.0</ele><time>2026-04-30T11:50:30.856Z</time></trkpt><trkpt lat="38.3789093" lon="21.4823613"><ele>15.0</ele><time>2026-04-30T11:50:31.856Z</time></trkpt><trkpt lat="38.3788607" lon="21.4820447"><ele>15.0</ele><time>2026-04-30T11:50:32.856Z</time></trkpt><trkpt lat="38.3788243" lon="21.4817374"><ele>13.5</ele><time>2026-04-30T11:50:33.856Z</time></trkpt><trkpt lat="38.3787946" lon="21.4814399"><ele>12.0</ele><time>2026-04-30T11:50:34.856Z</time></trkpt><trkpt lat="38.3787646" lon="21.4811219"><ele>12.0</ele><time>2026-04-30T11:50:35.856Z</time></trkpt><trkpt lat="38.3787393" lon="21.4808116"><ele>12.0</ele><time>2026-04-30T11:50:36.855Z</time></trkpt><trkpt lat="38.3787185" lon="21.4805013"><ele>12.5</ele><time>2026-04-30T11:50:37.856Z</time></trkpt><trkpt lat="38.3786991" lon="21.4802013"><ele>13.0</ele><time>2026-04-30T11:50:38.856Z</time></trkpt><trkpt lat="38.3786753" lon="21.4798937"><ele>13.5</ele><time>2026-04-30T11:50:39.855Z</time></trkpt><trkpt lat="38.3786486" lon="21.4795859"><ele>14.0</ele><time>2026-04-30T11:50:40.855Z</time></trkpt><trkpt lat="38.3786221" lon="21.4792961"><ele>14.0</ele><time>2026-04-30T11:50:41.856Z</time></trkpt><trkpt lat="38.3785971" lon="21.4790175"><ele>14.0</ele><time>2026-04-30T11:50:42.856Z</time></trkpt><trkpt lat="38.3785718" lon="21.4787219"><ele>13.333333333333334</ele><time>2026-04-30T11:50:43.855Z</time></trkpt><trkpt lat="38.3785498" lon="21.4784529"><ele>12.666666666666668</ele><time>2026-04-30T11:50:44.856Z</time></trkpt><trkpt lat="38.3785296" lon="21.4782011"><ele>12.0</ele><time>2026-04-30T11:50:45.856Z</time></trkpt><trkpt lat="38.3785116" lon="21.4779727"><ele>12.0</ele><time>2026-04-30T11:50:46.855Z</time></trkpt><trkpt lat="38.3784948" lon="21.47775"><ele>12.0</ele><time>2026-04-30T11:50:47.855Z</time></trkpt><trkpt lat="38.3784806" lon="21.477533"><ele>12.0</ele><time>2026-04-30T11:50:48.856Z</time></trkpt><trkpt lat="38.3784685" lon="21.4773524"><ele>12.0</ele><time>2026-04-30T11:50:49.856Z</time></trkpt><trkpt lat="38.3784572" lon="21.4772033"><ele>12.0</ele><time>2026-04-30T11:50:50.856Z</time></trkpt><trkpt lat="38.3784474" lon="21.4770607"><ele>12.0</ele><time>2026-04-30T11:50:51.855Z</time></trkpt><trkpt lat="38.3784423" lon="21.4769318"><ele>12.0</ele><time>2026-04-30T11:50:52.855Z</time></trkpt><trkpt lat="38.3784419" lon="21.4768109"><ele>12.0</ele><time>2026-04-30T11:50:53.855Z</time></trkpt><trkpt lat="38.3784413" lon="21.4767006"><ele>12.2</ele><time>2026-04-30T11:50:54.856Z</time></trkpt><trkpt lat="38.3784416" lon="21.476586"><ele>12.399999999999999</ele><time>2026-04-30T11:50:55.855Z</time></trkpt><trkpt lat="38.3784425" lon="21.4764643"><ele>12.600000000000001</ele><time>2026-04-30T11:50:56.856Z</time></trkpt><trkpt lat="38.3784449" lon="21.4763449"><ele>12.8</ele><time>2026-04-30T11:50:57.856Z</time></trkpt><trkpt lat="38.3784492" lon="21.4762346"><ele>13.0</ele><time>2026-04-30T11:50:58.856Z</time></trkpt><trkpt lat="38.3784557" lon="21.4761212"><ele>13.0</ele><time>2026-04-30T11:50:59.855Z</time></trkpt><trkpt lat="38.3784633" lon="21.4760107"><ele>13.0</ele><time>2026-04-30T11:51:00.855Z</time></trkpt><trkpt lat="38.378472" lon="21.4758938"><ele>13.0</ele><time>2026-04-30T11:51:01.855Z</time></trkpt><trkpt lat="38.3784823" lon="21.4757727"><ele>13.0</ele><time>2026-04-30T11:51:02.856Z</time></trkpt><trkpt lat="38.3784916" lon="21.4756418"><ele>13.0</ele><time>2026-04-30T11:51:03.856Z</time></trkpt><trkpt lat="38.3785013" lon="21.4755111"><ele>12.833333333333332</ele><time>2026-04-30T11:51:04.855Z</time></trkpt><trkpt lat="38.3785127" lon="21.4753972"><ele>12.666666666666666</ele><time>2026-04-30T11:51:05.855Z</time></trkpt><trkpt lat="38.3785244" lon="21.475304"><ele>12.5</ele><time>2026-04-30T11:51:06.856Z</time></trkpt><trkpt lat="38.378538" lon="21.4752204"><ele>12.333333333333332</ele><time>2026-04-30T11:51:07.855Z</time></trkpt><trkpt lat="38.3785601" lon="21.4750938"><ele>12.166666666666666</ele><time>2026-04-30T11:51:09.856Z</time></trkpt><trkpt lat="38.3785716" lon="21.4750021"><ele>12.0</ele><time>2026-04-30T11:51:11.856Z</time></trkpt><trkpt lat="38.3785785" lon="21.4749133"><ele>12.0</ele><time>2026-04-30T11:51:14.856Z</time></trkpt><trkpt lat="38.37851" lon="21.4749222"><ele>12.0</ele><time>2026-04-30T11:51:18.856Z</time></trkpt><trkpt lat="38.3785002" lon="21.4750043"><ele>12.0</ele><time>2026-04-30T11:51:19.855Z</time></trkpt><trkpt lat="38.3784917" lon="21.4751146"><ele>12.0</ele><time>2026-04-30T11:51:20.855Z</time></trkpt><trkpt lat="38.3784843" lon="21.4752366"><ele>12.0</ele><time>2026-04-30T11:51:21.856Z</time></trkpt><trkpt lat="38.3784715" lon="21.4753653"><ele>12.0</ele><time>2026-04-30T11:51:22.856Z</time></trkpt><trkpt lat="38.3784588" lon="21.475506"><ele>12.2</ele><time>2026-04-30T11:51:23.856Z</time></trkpt><trkpt lat="38.3784488" lon="21.4756466"><ele>12.399999999999999</ele><time>2026-04-30T11:51:24.855Z</time></trkpt><trkpt lat="38.3784398" lon="21.4757806"><ele>12.600000000000001</ele><time>2026-04-30T11:51:25.855Z</time></trkpt><trkpt lat="38.378431" lon="21.4759219"><ele>12.8</ele><time>2026-04-30T11:51:26.856Z</time></trkpt><trkpt lat="38.3784252" lon="21.4760684"><ele>13.0</ele><time>2026-04-30T11:51:27.856Z</time></trkpt><trkpt lat="38.3784194" lon="21.4762196"><ele>13.0</ele><time>2026-04-30T11:51:28.855Z</time></trkpt><trkpt lat="38.378415" lon="21.4763732"><ele>13.0</ele><time>2026-04-30T11:51:29.855Z</time></trkpt><trkpt lat="38.37841" lon="21.4765286"><ele>13.0</ele><time>2026-04-30T11:51:30.856Z</time></trkpt><trkpt lat="38.3784047" lon="21.4766916"><ele>13.0</ele><time>2026-04-30T11:51:31.855Z</time></trkpt><trkpt lat="38.3784014" lon="21.4768513"><ele>13.0</ele><time>2026-04-30T11:51:32.855Z</time></trkpt><trkpt lat="38.3784023" lon="21.4770097"><ele>13.0</ele><time>2026-04-30T11:51:33.855Z</time></trkpt><trkpt lat="38.3784078" lon="21.4771793"><ele>13.0</ele><time>2026-04-30T11:51:34.855Z</time></trkpt><trkpt lat="38.3784193" lon="21.477353"><ele>13.0</ele><time>2026-04-30T11:51:35.855Z</time></trkpt><trkpt lat="38.3784346" lon="21.4775293"><ele>12.75</ele><time>2026-04-30T11:51:36.856Z</time></trkpt><trkpt lat="38.3784506" lon="21.4777064"><ele>12.5</ele><time>2026-04-30T11:51:37.856Z</time></trkpt><trkpt lat="38.3784663" lon="21.4778818"><ele>12.25</ele><time>2026-04-30T11:51:38.856Z</time></trkpt><trkpt lat="38.3784815" lon="21.4780551"><ele>12.0</ele><time>2026-04-30T11:51:39.856Z</time></trkpt><trkpt lat="38.3784957" lon="21.4782158"><ele>12.0</ele><time>2026-04-30T11:51:40.856Z</time></trkpt><trkpt lat="38.3785086" lon="21.4783552"><ele>12.0</ele><time>2026-04-30T11:51:41.855Z</time></trkpt><trkpt lat="38.3785293" lon="21.4784848"><ele>12.0</ele><time>2026-04-30T11:51:42.855Z</time></trkpt><trkpt lat="38.3785622" lon="21.4786057"><ele>12.0</ele><time>2026-04-30T11:51:43.856Z</time></trkpt><trkpt lat="38.3786007" lon="21.4786939"><ele>12.0</ele><time>2026-04-30T11:51:44.856Z</time></trkpt><trkpt lat="38.3786958" lon="21.4787598"><ele>11.999999999999998</ele><time>2026-04-30T11:51:46.856Z</time></trkpt><trkpt lat="38.3787912" lon="21.4787388"><ele>12.0</ele><time>2026-04-30T11:51:48.856Z</time></trkpt><trkpt lat="38.3788565" lon="21.4787172"><ele>12.0</ele><time>2026-04-30T11:51:50.856Z</time></trkpt><trkpt lat="38.378937" lon="21.4787111"><ele>12.0</ele><time>2026-04-30T11:51:53.855Z</time></trkpt><trkpt lat="38.3790002" lon="21.4787315"><ele>12.0</ele><time>2026-04-30T11:53:03.844Z</time></trkpt><trkpt lat="38.3789643" lon="21.4787976"><ele>11.999999999999998</ele><time>2026-04-30T11:53:11.876Z</time></trkpt><trkpt lat="38.378978" lon="21.4788852"><ele>12.0</ele><time>2026-04-30T11:53:30.874Z</time></trkpt><trkpt lat="38.3789133" lon="21.47892"><ele>12.142857142857142</ele><time>2026-04-30T11:53:46.874Z</time></trkpt><trkpt lat="38.3788781" lon="21.4789881"><ele>12.285714285714285</ele><time>2026-04-30T11:53:55.875Z</time></trkpt><trkpt lat="38.3788259" lon="21.4790478"><ele>12.428571428571427</ele><time>2026-04-30T11:54:44.878Z</time></trkpt><trkpt lat="38.378851" lon="21.4789631"><ele>12.571428571428571</ele><time>2026-04-30T11:56:02.876Z</time></trkpt><trkpt lat="38.3788689" lon="21.4788817"><ele>12.714285714285715</ele><time>2026-04-30T11:56:07.874Z</time></trkpt><trkpt lat="38.3789296" lon="21.4788452"><ele>12.857142857142856</ele><time>2026-04-30T11:56:12.873Z</time></trkpt><trkpt lat="38.3789796" lon="21.4787802"><ele>13.0</ele><time>2026-04-30T11:56:18.874Z</time></trkpt><trkpt lat="38.3788666" lon="21.4787553"><ele>13.166666666666666</ele><time>2026-04-30T11:56:39.878Z</time></trkpt><trkpt lat="38.3787911" lon="21.4787893"><ele>13.333333333333332</ele><time>2026-04-30T11:56:40.879Z</time></trkpt><trkpt lat="38.37872" lon="21.4788914"><ele>13.5</ele><time>2026-04-30T11:56:42.87Z</time></trkpt><trkpt lat="38.3786928" lon="21.4789858"><ele>13.666666666666668</ele><time>2026-04-30T11:56:44.871Z</time></trkpt><trkpt lat="38.378745" lon="21.4790319"><ele>13.833333333333334</ele><time>2026-04-30T11:57:01.863Z</time></trkpt><trkpt lat="38.3788077" lon="21.4790668"><ele>14.0</ele><time>2026-04-30T11:57:08.868Z</time></trkpt><trkpt lat="38.3788709" lon="21.4790428"><ele>14.000000000000002</ele><time>2026-04-30T12:59:52.867Z</time></trkpt><trkpt lat="38.3788245" lon="21.4789885"><ele>14.0</ele><time>2026-04-30T13:08:41.867Z</time></trkpt><trkpt lat="38.3787592" lon="21.4789721"><ele>14.0</ele><time>2026-04-30T13:09:07.867Z</time></trkpt><trkpt lat="38.3787969" lon="21.479041"><ele>14.0</ele><time>2026-04-30T13:09:42.868Z</time></trkpt><trkpt lat="38.3787401" lon="21.4789978"><ele>14.000000000000002</ele><time>2026-04-30T13:13:50.868Z</time></trkpt><trkpt lat="38.3787312" lon="21.478904"><ele>14.0</ele><time>2026-04-30T13:13:53.868Z</time></trkpt><trkpt lat="38.3788166" lon="21.4787967"><ele>13.833333333333334</ele><time>2026-04-30T13:13:55.867Z</time></trkpt><trkpt lat="38.3788879" lon="21.4787601"><ele>13.666666666666668</ele><time>2026-04-30T13:13:57.867Z</time></trkpt><trkpt lat="38.3789622" lon="21.4787064"><ele>13.5</ele><time>2026-04-30T13:14:00.868Z</time></trkpt><trkpt lat="38.3789201" lon="21.4786248"><ele>13.333333333333332</ele><time>2026-04-30T13:14:04.867Z</time></trkpt><trkpt lat="38.3788327" lon="21.478635"><ele>13.166666666666666</ele><time>2026-04-30T13:16:13.868Z</time></trkpt><trkpt lat="38.3787483" lon="21.4786435"><ele>13.0</ele><time>2026-04-30T13:16:15.868Z</time></trkpt><trkpt lat="38.3786445" lon="21.4786335"><ele>12.833333333333332</ele><time>2026-04-30T13:16:17.866Z</time></trkpt><trkpt lat="38.3785668" lon="21.4785369"><ele>12.666666666666666</ele><time>2026-04-30T13:16:19.867Z</time></trkpt><trkpt lat="38.3785503" lon="21.4784366"><ele>12.5</ele><time>2026-04-30T13:16:20.865Z</time></trkpt><trkpt lat="38.3785447" lon="21.4783381"><ele>12.333333333333332</ele><time>2026-04-30T13:16:21.867Z</time></trkpt><trkpt lat="38.3785363" lon="21.4782313"><ele>12.166666666666666</ele><time>2026-04-30T13:16:22.864Z</time></trkpt><trkpt lat="38.3785295" lon="21.4781182"><ele>12.0</ele><time>2026-04-30T13:16:23.866Z</time></trkpt><trkpt lat="38.3785221" lon="21.4780043"><ele>12.0</ele><time>2026-04-30T13:16:24.867Z</time></trkpt><trkpt lat="38.3785159" lon="21.477895"><ele>12.0</ele><time>2026-04-30T13:16:25.867Z</time></trkpt><trkpt lat="38.3785087" lon="21.4777848"><ele>12.0</ele><time>2026-04-30T13:16:26.867Z</time></trkpt><trkpt lat="38.3784965" lon="21.4776737"><ele>12.0</ele><time>2026-04-30T13:16:27.866Z</time></trkpt><trkpt lat="38.3784832" lon="21.477537"><ele>12.0</ele><time>2026-04-30T13:16:28.865Z</time></trkpt><trkpt lat="38.3784694" lon="21.4773742"><ele>12.0</ele><time>2026-04-30T13:16:29.866Z</time></trkpt><trkpt lat="38.3784598" lon="21.477201"><ele>12.0</ele><time>2026-04-30T13:16:30.865Z</time></trkpt><trkpt lat="38.3784535" lon="21.4770266"><ele>12.0</ele><time>2026-04-30T13:16:31.868Z</time></trkpt><trkpt lat="38.3784483" lon="21.4768492"><ele>12.0</ele><time>2026-04-30T13:16:32.867Z</time></trkpt><trkpt lat="38.3784496" lon="21.4766612"><ele>12.333333333333332</ele><time>2026-04-30T13:16:33.866Z</time></trkpt><trkpt lat="38.378454" lon="21.4764616"><ele>12.666666666666666</ele><time>2026-04-30T13:16:34.864Z</time></trkpt><trkpt lat="38.3784606" lon="21.4762733"><ele>13.0</ele><time>2026-04-30T13:16:35.868Z</time></trkpt><trkpt lat="38.3784668" lon="21.4760847"><ele>13.0</ele><time>2026-04-30T13:16:36.868Z</time></trkpt><trkpt lat="38.3784723" lon="21.4758922"><ele>13.0</ele><time>2026-04-30T13:16:37.866Z</time></trkpt><trkpt lat="38.3784901" lon="21.4756966"><ele>13.0</ele><time>2026-04-30T13:16:38.866Z</time></trkpt><trkpt lat="38.3785055" lon="21.4755034"><ele>12.666666666666666</ele><time>2026-04-30T13:16:39.868Z</time></trkpt><trkpt lat="38.3785182" lon="21.4753097"><ele>12.333333333333332</ele><time>2026-04-30T13:16:40.867Z</time></trkpt><trkpt lat="38.3785362" lon="21.4751141"><ele>12.0</ele><time>2026-04-30T13:16:41.867Z</time></trkpt><trkpt lat="38.3785653" lon="21.4749135"><ele>12.0</ele><time>2026-04-30T13:16:42.864Z</time></trkpt><trkpt lat="38.3785992" lon="21.474709"><ele>12.0</ele><time>2026-04-30T13:16:43.864Z</time></trkpt><trkpt lat="38.3786345" lon="21.4745036"><ele>12.0</ele><time>2026-04-30T13:16:44.866Z</time></trkpt><trkpt lat="38.3786729" lon="21.4742985"><ele>11.333333333333334</ele><time>2026-04-30T13:16:45.865Z</time></trkpt><trkpt lat="38.3787105" lon="21.4740959"><ele>10.666666666666668</ele><time>2026-04-30T13:16:46.866Z</time></trkpt><trkpt lat="38.3787468" lon="21.4738935"><ele>10.0</ele><time>2026-04-30T13:16:47.866Z</time></trkpt><trkpt lat="38.3787796" lon="21.4736893"><ele>9.666666666666668</ele><time>2026-04-30T13:16:48.866Z</time></trkpt><trkpt lat="38.378814" lon="21.4734876"><ele>9.333333333333334</ele><time>2026-04-30T13:16:49.865Z</time></trkpt><trkpt lat="38.3788502" lon="21.4732851"><ele>9.0</ele><time>2026-04-30T13:16:50.867Z</time></trkpt><trkpt lat="38.3788832" lon="21.4730818"><ele>9.666666666666666</ele><time>2026-04-30T13:16:51.868Z</time></trkpt><trkpt lat="38.3789154" lon="21.472875"><ele>10.333333333333332</ele><time>2026-04-30T13:16:52.868Z</time></trkpt><trkpt lat="38.3789472" lon="21.4726673"><ele>11.0</ele><time>2026-04-30T13:16:53.868Z</time></trkpt><trkpt lat="38.3789832" lon="21.4724641"><ele>11.0</ele><time>2026-04-30T13:16:54.865Z</time></trkpt><trkpt lat="38.3790171" lon="21.4722649"><ele>11.0</ele><time>2026-04-30T13:16:55.866Z</time></trkpt><trkpt lat="38.3790539" lon="21.47206"><ele>11.0</ele><time>2026-04-30T13:16:56.866Z</time></trkpt><trkpt lat="38.37909" lon="21.4718623"><ele>10.0</ele><time>2026-04-30T13:16:57.868Z</time></trkpt><trkpt lat="38.3791257" lon="21.4716642"><ele>9.0</ele><time>2026-04-30T13:16:58.866Z</time></trkpt><trkpt lat="38.379159" lon="21.4714713"><ele>8.0</ele><time>2026-04-30T13:16:59.868Z</time></trkpt><trkpt lat="38.3791941" lon="21.4712779"><ele>7.666666666666666</ele><time>2026-04-30T13:17:00.867Z</time></trkpt><trkpt lat="38.3792315" lon="21.4710848"><ele>7.333333333333334</ele><time>2026-04-30T13:17:01.864Z</time></trkpt><trkpt lat="38.3792636" lon="21.4708845"><ele>7.0</ele><time>2026-04-30T13:17:02.866Z</time></trkpt><trkpt lat="38.3792982" lon="21.4706835"><ele>7.0</ele><time>2026-04-30T13:17:03.867Z</time></trkpt><trkpt lat="38.3793339" lon="21.4704762"><ele>7.0</ele><time>2026-04-30T13:17:04.868Z</time></trkpt><trkpt lat="38.3793727" lon="21.4702716"><ele>7.0</ele><time>2026-04-30T13:17:05.866Z</time></trkpt><trkpt lat="38.3794095" lon="21.4700554"><ele>7.0</ele><time>2026-04-30T13:17:06.868Z</time></trkpt><trkpt lat="38.3794468" lon="21.4698381"><ele>7.0</ele><time>2026-04-30T13:17:07.868Z</time></trkpt><trkpt lat="38.3794875" lon="21.4696276"><ele>7.0</ele><time>2026-04-30T13:17:08.867Z</time></trkpt><trkpt lat="38.3795291" lon="21.4694061"><ele>7.0</ele><time>2026-04-30T13:17:09.865Z</time></trkpt><trkpt lat="38.3795658" lon="21.4691833"><ele>7.0</ele><time>2026-04-30T13:17:10.867Z</time></trkpt><trkpt lat="38.3796063" lon="21.4689574"><ele>7.0</ele><time>2026-04-30T13:17:11.865Z</time></trkpt><trkpt lat="38.3796403" lon="21.4687326"><ele>7.333333333333334</ele><time>2026-04-30T13:17:12.865Z</time></trkpt><trkpt lat="38.3796853" lon="21.4685075"><ele>7.666666666666666</ele><time>2026-04-30T13:17:13.866Z</time></trkpt><trkpt lat="38.3797218" lon="21.4682924"><ele>8.0</ele><time>2026-04-30T13:17:14.865Z</time></trkpt><trkpt lat="38.3797589" lon="21.4680851"><ele>8.0</ele><time>2026-04-30T13:17:15.866Z</time></trkpt><trkpt lat="38.3797919" lon="21.4678805"><ele>8.0</ele><time>2026-04-30T13:17:16.866Z</time></trkpt><trkpt lat="38.3798258" lon="21.4676705"><ele>8.0</ele><time>2026-04-30T13:17:17.867Z</time></trkpt><trkpt lat="38.3798581" lon="21.4674705"><ele>8.0</ele><time>2026-04-30T13:17:18.866Z</time></trkpt><trkpt lat="38.3798925" lon="21.4672737"><ele>8.0</ele><time>2026-04-30T13:17:19.866Z</time></trkpt><trkpt lat="38.3799254" lon="21.4670681"><ele>8.0</ele><time>2026-04-30T13:17:20.866Z</time></trkpt><trkpt lat="38.3799584" lon="21.4668668"><ele>8.0</ele><time>2026-04-30T13:17:21.866Z</time></trkpt><trkpt lat="38.3799902" lon="21.4666555"><ele>8.0</ele><time>2026-04-30T13:17:22.868Z</time></trkpt><trkpt lat="38.3800268" lon="21.4664442"><ele>8.0</ele><time>2026-04-30T13:17:23.867Z</time></trkpt><trkpt lat="38.3800566" lon="21.4662306"><ele>8.0</ele><time>2026-04-30T13:17:24.866Z</time></trkpt><trkpt lat="38.3800895" lon="21.4660174"><ele>8.0</ele><time>2026-04-30T13:17:25.866Z</time></trkpt><trkpt lat="38.3801179" lon="21.4658028"><ele>8.0</ele><time>2026-04-30T13:17:26.868Z</time></trkpt><trkpt lat="38.3801389" lon="21.4655935"><ele>8.0</ele><time>2026-04-30T13:17:27.868Z</time></trkpt><trkpt lat="38.3801607" lon="21.4653731"><ele>8.0</ele><time>2026-04-30T13:17:28.867Z</time></trkpt><trkpt lat="38.3801824" lon="21.4651582"><ele>8.0</ele><time>2026-04-30T13:17:29.867Z</time></trkpt><trkpt lat="38.3802052" lon="21.4649366"><ele>8.0</ele><time>2026-04-30T13:17:30.867Z</time></trkpt><trkpt lat="38.380225" lon="21.4647152"><ele>8.0</ele><time>2026-04-30T13:17:31.865Z</time></trkpt><trkpt lat="38.3802492" lon="21.4645065"><ele>8.0</ele><time>2026-04-30T13:17:32.867Z</time></trkpt><trkpt lat="38.3802757" lon="21.4642958"><ele>8.0</ele><time>2026-04-30T13:17:33.867Z</time></trkpt><trkpt lat="38.3802959" lon="21.4640875"><ele>8.0</ele><time>2026-04-30T13:17:34.866Z</time></trkpt><trkpt lat="38.380319" lon="21.4638792"><ele>8.0</ele><time>2026-04-30T13:17:35.868Z</time></trkpt><trkpt lat="38.3803377" lon="21.4636605"><ele>7.0</ele><time>2026-04-30T13:17:36.868Z</time></trkpt><trkpt lat="38.3803596" lon="21.4634445"><ele>6.0</ele><time>2026-04-30T13:17:37.868Z</time></trkpt><trkpt lat="38.3803863" lon="21.4632227"><ele>5.0</ele><time>2026-04-30T13:17:38.868Z</time></trkpt><trkpt lat="38.3804151" lon="21.4630053"><ele>5.0</ele><time>2026-04-30T13:17:39.867Z</time></trkpt><trkpt lat="38.3804432" lon="21.4627837"><ele>5.0</ele><time>2026-04-30T13:17:40.866Z</time></trkpt><trkpt lat="38.3804722" lon="21.462558"><ele>5.0</ele><time>2026-04-30T13:17:41.868Z</time></trkpt><trkpt lat="38.3805031" lon="21.4623266"><ele>6.0</ele><time>2026-04-30T13:17:42.863Z</time></trkpt><trkpt lat="38.380532" lon="21.4620906"><ele>7.0</ele><time>2026-04-30T13:17:43.867Z</time></trkpt><trkpt lat="38.3805596" lon="21.4618503"><ele>8.0</ele><time>2026-04-30T13:17:44.864Z</time></trkpt><trkpt lat="38.3805782" lon="21.4616174"><ele>8.0</ele><time>2026-04-30T13:17:45.867Z</time></trkpt><trkpt lat="38.3805903" lon="21.4613835"><ele>8.0</ele><time>2026-04-30T13:17:46.866Z</time></trkpt><trkpt lat="38.380599" lon="21.4611497"><ele>8.0</ele><time>2026-04-30T13:17:47.866Z</time></trkpt><trkpt lat="38.3806076" lon="21.4609173"><ele>7.333333333333333</ele><time>2026-04-30T13:17:48.867Z</time></trkpt><trkpt lat="38.3806186" lon="21.4606813"><ele>6.666666666666666</ele><time>2026-04-30T13:17:49.868Z</time></trkpt><trkpt lat="38.3806361" lon="21.4604414"><ele>6.0</ele><time>2026-04-30T13:17:50.864Z</time></trkpt><trkpt lat="38.3806527" lon="21.4601965"><ele>6.0</ele><time>2026-04-30T13:17:51.865Z</time></trkpt><trkpt lat="38.3806796" lon="21.4599529"><ele>6.0</ele><time>2026-04-30T13:17:52.864Z</time></trkpt><trkpt lat="38.3807114" lon="21.4597126"><ele>6.0</ele><time>2026-04-30T13:17:53.864Z</time></trkpt><trkpt lat="38.3807498" lon="21.4594709"><ele>6.0</ele><time>2026-04-30T13:17:54.866Z</time></trkpt><trkpt lat="38.380789" lon="21.45923"><ele>6.0</ele><time>2026-04-30T13:17:55.866Z</time></trkpt><trkpt lat="38.3808333" lon="21.4589844"><ele>6.0</ele><time>2026-04-30T13:17:56.864Z</time></trkpt><trkpt lat="38.3808712" lon="21.4587392"><ele>6.0</ele><time>2026-04-30T13:17:57.866Z</time></trkpt><trkpt lat="38.3809163" lon="21.4584956"><ele>6.0</ele><time>2026-04-30T13:17:58.865Z</time></trkpt><trkpt lat="38.38096" lon="21.4582552"><ele>6.0</ele><time>2026-04-30T13:17:59.866Z</time></trkpt><trkpt lat="38.3810021" lon="21.4580086"><ele>6.0</ele><time>2026-04-30T13:18:00.865Z</time></trkpt><trkpt lat="38.3810396" lon="21.4577674"><ele>6.0</ele><time>2026-04-30T13:18:01.864Z</time></trkpt><trkpt lat="38.3810716" lon="21.4575227"><ele>6.0</ele><time>2026-04-30T13:18:02.865Z</time></trkpt><trkpt lat="38.3811052" lon="21.4572701"><ele>6.0</ele><time>2026-04-30T13:18:03.863Z</time></trkpt><trkpt lat="38.3811365" lon="21.4570219"><ele>6.0</ele><time>2026-04-30T13:18:04.863Z</time></trkpt><trkpt lat="38.3811654" lon="21.4567711"><ele>6.0</ele><time>2026-04-30T13:18:05.866Z</time></trkpt><trkpt lat="38.3811953" lon="21.4565166"><ele>5.666666666666667</ele><time>2026-04-30T13:18:06.865Z</time></trkpt><trkpt lat="38.3812283" lon="21.4562635"><ele>5.333333333333334</ele><time>2026-04-30T13:18:07.865Z</time></trkpt><trkpt lat="38.381258" lon="21.4560087"><ele>5.0</ele><time>2026-04-30T13:18:08.865Z</time></trkpt><trkpt lat="38.3812871" lon="21.4557566"><ele>5.0</ele><time>2026-04-30T13:18:09.866Z</time></trkpt><trkpt lat="38.3813154" lon="21.4555016"><ele>5.0</ele><time>2026-04-30T13:18:10.866Z</time></trkpt><trkpt lat="38.3813476" lon="21.4552441"><ele>5.0</ele><time>2026-04-30T13:18:11.866Z</time></trkpt><trkpt lat="38.3813822" lon="21.454987"><ele>5.0</ele><time>2026-04-30T13:18:12.867Z</time></trkpt><trkpt lat="38.3814153" lon="21.4547325"><ele>5.0</ele><time>2026-04-30T13:18:13.865Z</time></trkpt><trkpt lat="38.3814481" lon="21.4544763"><ele>5.0</ele><time>2026-04-30T13:18:14.865Z</time></trkpt><trkpt lat="38.3814752" lon="21.4542242"><ele>5.666666666666667</ele><time>2026-04-30T13:18:15.866Z</time></trkpt><trkpt lat="38.381508" lon="21.4539708"><ele>6.333333333333334</ele><time>2026-04-30T13:18:16.865Z</time></trkpt><trkpt lat="38.3815407" lon="21.4537086"><ele>7.0</ele><time>2026-04-30T13:18:17.867Z</time></trkpt><trkpt lat="38.381575" lon="21.4534466"><ele>7.0</ele><time>2026-04-30T13:18:18.868Z</time></trkpt><trkpt lat="38.3816085" lon="21.4531821"><ele>7.0</ele><time>2026-04-30T13:18:19.865Z</time></trkpt><trkpt lat="38.3816435" lon="21.4529153"><ele>7.0</ele><time>2026-04-30T13:18:20.865Z</time></trkpt><trkpt lat="38.3816807" lon="21.4526458"><ele>6.666666666666667</ele><time>2026-04-30T13:18:21.867Z</time></trkpt><trkpt lat="38.3817129" lon="21.4523806"><ele>6.333333333333334</ele><time>2026-04-30T13:18:22.864Z</time></trkpt><trkpt lat="38.3817451" lon="21.4521146"><ele>6.0</ele><time>2026-04-30T13:18:23.867Z</time></trkpt><trkpt lat="38.3817813" lon="21.4518401"><ele>6.0</ele><time>2026-04-30T13:18:24.867Z</time></trkpt><trkpt lat="38.3818187" lon="21.4515671"><ele>6.0</ele><time>2026-04-30T13:18:25.866Z</time></trkpt><trkpt lat="38.3818556" lon="21.4512956"><ele>6.0</ele><time>2026-04-30T13:18:26.865Z</time></trkpt><trkpt lat="38.38189" lon="21.4510179"><ele>6.0</ele><time>2026-04-30T13:18:27.865Z</time></trkpt><trkpt lat="38.3819281" lon="21.4507399"><ele>6.0</ele><time>2026-04-30T13:18:28.865Z</time></trkpt><trkpt lat="38.3819633" lon="21.4504579"><ele>6.0</ele><time>2026-04-30T13:18:29.865Z</time></trkpt><trkpt lat="38.3820026" lon="21.4501787"><ele>5.5</ele><time>2026-04-30T13:18:30.865Z</time></trkpt><trkpt lat="38.3820409" lon="21.4498913"><ele>5.0</ele><time>2026-04-30T13:18:31.865Z</time></trkpt><trkpt lat="38.3820754" lon="21.4495989"><ele>5.0</ele><time>2026-04-30T13:18:32.866Z</time></trkpt><trkpt lat="38.3821143" lon="21.4493065"><ele>5.0</ele><time>2026-04-30T13:18:33.866Z</time></trkpt><trkpt lat="38.3821509" lon="21.4490109"><ele>6.5</ele><time>2026-04-30T13:18:34.865Z</time></trkpt><trkpt lat="38.3821874" lon="21.4487142"><ele>8.0</ele><time>2026-04-30T13:18:35.865Z</time></trkpt><trkpt lat="38.3822248" lon="21.4484179"><ele>8.0</ele><time>2026-04-30T13:18:36.867Z</time></trkpt><trkpt lat="38.3822624" lon="21.4481083"><ele>8.0</ele><time>2026-04-30T13:18:37.866Z</time></trkpt><trkpt lat="38.3822956" lon="21.4478069"><ele>7.5</ele><time>2026-04-30T13:18:38.864Z</time></trkpt><trkpt lat="38.3823327" lon="21.4474984"><ele>7.0</ele><time>2026-04-30T13:18:39.864Z</time></trkpt><trkpt lat="38.382373" lon="21.4471826"><ele>6.5</ele><time>2026-04-30T13:18:40.864Z</time></trkpt><trkpt lat="38.3824114" lon="21.4468687"><ele>6.0</ele><time>2026-04-30T13:18:41.866Z</time></trkpt><trkpt lat="38.3824424" lon="21.4465365"><ele>6.5</ele><time>2026-04-30T13:18:42.866Z</time></trkpt><trkpt lat="38.3824798" lon="21.4462052"><ele>7.0</ele><time>2026-04-30T13:18:43.866Z</time></trkpt><trkpt lat="38.3825241" lon="21.445872"><ele>7.0</ele><time>2026-04-30T13:18:44.865Z</time></trkpt><trkpt lat="38.3825743" lon="21.4455481"><ele>7.0</ele><time>2026-04-30T13:18:45.864Z</time></trkpt><trkpt lat="38.382634" lon="21.4452326"><ele>7.0</ele><time>2026-04-30T13:18:46.864Z</time></trkpt><trkpt lat="38.3826952" lon="21.4449298"><ele>7.0</ele><time>2026-04-30T13:18:47.864Z</time></trkpt><trkpt lat="38.3827637" lon="21.4446395"><ele>8.0</ele><time>2026-04-30T13:18:48.867Z</time></trkpt><trkpt lat="38.3828358" lon="21.4443598"><ele>9.0</ele><time>2026-04-30T13:18:49.865Z</time></trkpt><trkpt lat="38.3829155" lon="21.4440767"><ele>9.0</ele><time>2026-04-30T13:18:50.865Z</time></trkpt><trkpt lat="38.3829968" lon="21.4438033"><ele>9.0</ele><time>2026-04-30T13:18:51.865Z</time></trkpt><trkpt lat="38.3830807" lon="21.4435375"><ele>9.5</ele><time>2026-04-30T13:18:52.866Z</time></trkpt><trkpt lat="38.3831732" lon="21.4432715"><ele>10.0</ele><time>2026-04-30T13:18:53.867Z</time></trkpt><trkpt lat="38.3832738" lon="21.4430128"><ele>10.5</ele><time>2026-04-30T13:18:54.864Z</time></trkpt><trkpt lat="38.3833817" lon="21.4427639"><ele>11.0</ele><time>2026-04-30T13:18:55.866Z</time></trkpt><trkpt lat="38.3834966" lon="21.4425146"><ele>11.0</ele><time>2026-04-30T13:18:56.867Z</time></trkpt><trkpt lat="38.3836144" lon="21.4422709"><ele>11.0</ele><time>2026-04-30T13:18:57.867Z</time></trkpt><trkpt lat="38.3837439" lon="21.4420287"><ele>11.5</ele><time>2026-04-30T13:18:58.865Z</time></trkpt><trkpt lat="38.3838722" lon="21.4417875"><ele>12.0</ele><time>2026-04-30T13:18:59.865Z</time></trkpt><trkpt lat="38.3839976" lon="21.4415523"><ele>12.0</ele><time>2026-04-30T13:19:00.865Z</time></trkpt><trkpt lat="38.38413" lon="21.4413153"><ele>12.0</ele><time>2026-04-30T13:19:01.865Z</time></trkpt><trkpt lat="38.3842581" lon="21.4410838"><ele>12.0</ele><time>2026-04-30T13:19:02.863Z</time></trkpt><trkpt lat="38.3843881" lon="21.4408576"><ele>12.0</ele><time>2026-04-30T13:19:03.864Z</time></trkpt><trkpt lat="38.3845186" lon="21.4406341"><ele>12.0</ele><time>2026-04-30T13:19:04.865Z</time></trkpt><trkpt lat="38.3846494" lon="21.4404078"><ele>12.333333333333332</ele><time>2026-04-30T13:19:05.867Z</time></trkpt><trkpt lat="38.3847788" lon="21.4401821"><ele>12.666666666666666</ele><time>2026-04-30T13:19:06.864Z</time></trkpt><trkpt lat="38.384905" lon="21.4399608"><ele>13.0</ele><time>2026-04-30T13:19:07.866Z</time></trkpt><trkpt lat="38.385033" lon="21.4397426"><ele>12.666666666666666</ele><time>2026-04-30T13:19:08.865Z</time></trkpt><trkpt lat="38.3851565" lon="21.4395264"><ele>12.333333333333332</ele><time>2026-04-30T13:19:09.865Z</time></trkpt><trkpt lat="38.3852888" lon="21.439314"><ele>12.0</ele><time>2026-04-30T13:19:10.864Z</time></trkpt><trkpt lat="38.3854218" lon="21.4391016"><ele>12.333333333333332</ele><time>2026-04-30T13:19:11.867Z</time></trkpt><trkpt lat="38.3855465" lon="21.4388946"><ele>12.666666666666666</ele><time>2026-04-30T13:19:12.865Z</time></trkpt><trkpt lat="38.3856694" lon="21.4386924"><ele>13.0</ele><time>2026-04-30T13:19:13.865Z</time></trkpt><trkpt lat="38.3857923" lon="21.4384873"><ele>13.0</ele><time>2026-04-30T13:19:14.865Z</time></trkpt><trkpt lat="38.3859105" lon="21.4382861"><ele>13.0</ele><time>2026-04-30T13:19:15.867Z</time></trkpt><trkpt lat="38.3860312" lon="21.4380943"><ele>13.0</ele><time>2026-04-30T13:19:16.866Z</time></trkpt><trkpt lat="38.3861445" lon="21.4379038"><ele>13.0</ele><time>2026-04-30T13:19:17.866Z</time></trkpt><trkpt lat="38.3862541" lon="21.4377222"><ele>13.0</ele><time>2026-04-30T13:19:18.865Z</time></trkpt><trkpt lat="38.3863637" lon="21.4375418"><ele>13.0</ele><time>2026-04-30T13:19:19.868Z</time></trkpt><trkpt lat="38.3864757" lon="21.4373677"><ele>13.0</ele><time>2026-04-30T13:19:20.867Z</time></trkpt><trkpt lat="38.3865784" lon="21.4372078"><ele>13.0</ele><time>2026-04-30T13:19:21.866Z</time></trkpt><trkpt lat="38.3866703" lon="21.4370537"><ele>13.0</ele><time>2026-04-30T13:19:22.867Z</time></trkpt><trkpt lat="38.3867589" lon="21.4369045"><ele>13.0</ele><time>2026-04-30T13:19:23.863Z</time></trkpt><trkpt lat="38.3868424" lon="21.4367659"><ele>13.0</ele><time>2026-04-30T13:19:24.867Z</time></trkpt><trkpt lat="38.3869148" lon="21.4366357"><ele>13.0</ele><time>2026-04-30T13:19:25.866Z</time></trkpt><trkpt lat="38.3869874" lon="21.436514"><ele>13.0</ele><time>2026-04-30T13:19:26.864Z</time></trkpt><trkpt lat="38.3870562" lon="21.4363984"><ele>12.8</ele><time>2026-04-30T13:19:27.865Z</time></trkpt><trkpt lat="38.3871196" lon="21.4362869"><ele>12.600000000000001</ele><time>2026-04-30T13:19:28.866Z</time></trkpt><trkpt lat="38.3871769" lon="21.4361883"><ele>12.399999999999999</ele><time>2026-04-30T13:19:29.865Z</time></trkpt><trkpt lat="38.3872235" lon="21.4360952"><ele>12.2</ele><time>2026-04-30T13:19:30.868Z</time></trkpt><trkpt lat="38.3872741" lon="21.4360089"><ele>12.0</ele><time>2026-04-30T13:19:31.865Z</time></trkpt><trkpt lat="38.3873309" lon="21.4359266"><ele>12.2</ele><time>2026-04-30T13:19:32.867Z</time></trkpt><trkpt lat="38.3873824" lon="21.4358386"><ele>12.399999999999999</ele><time>2026-04-30T13:19:33.866Z</time></trkpt><trkpt lat="38.3874398" lon="21.4357398"><ele>12.600000000000001</ele><time>2026-04-30T13:19:34.866Z</time></trkpt><trkpt lat="38.3874915" lon="21.4356276"><ele>12.8</ele><time>2026-04-30T13:19:35.866Z</time></trkpt><trkpt lat="38.3875512" lon="21.4355122"><ele>13.0</ele><time>2026-04-30T13:19:36.868Z</time></trkpt><trkpt lat="38.3876124" lon="21.4353988"><ele>13.0</ele><time>2026-04-30T13:19:37.867Z</time></trkpt><trkpt lat="38.3876726" lon="21.4352824"><ele>13.0</ele><time>2026-04-30T13:19:38.866Z</time></trkpt><trkpt lat="38.3877387" lon="21.4351709"><ele>13.0</ele><time>2026-04-30T13:19:39.867Z</time></trkpt><trkpt lat="38.3878079" lon="21.4350512"><ele>13.0</ele><time>2026-04-30T13:19:40.866Z</time></trkpt><trkpt lat="38.3878797" lon="21.434924"><ele>13.0</ele><time>2026-04-30T13:19:41.866Z</time></trkpt><trkpt lat="38.3879513" lon="21.4348081"><ele>13.0</ele><time>2026-04-30T13:19:42.865Z</time></trkpt><trkpt lat="38.3880207" lon="21.4346874"><ele>13.0</ele><time>2026-04-30T13:19:43.867Z</time></trkpt><trkpt lat="38.3880962" lon="21.4345643"><ele>13.0</ele><time>2026-04-30T13:19:44.867Z</time></trkpt><trkpt lat="38.3881743" lon="21.4344402"><ele>13.0</ele><time>2026-04-30T13:19:45.867Z</time></trkpt><trkpt lat="38.3882531" lon="21.4343146"><ele>13.0</ele><time>2026-04-30T13:19:46.865Z</time></trkpt><trkpt lat="38.3883306" lon="21.4341699"><ele>13.0</ele><time>2026-04-30T13:19:47.865Z</time></trkpt><trkpt lat="38.3884103" lon="21.4340371"><ele>13.0</ele><time>2026-04-30T13:19:48.866Z</time></trkpt><trkpt lat="38.3884907" lon="21.4339006"><ele>12.75</ele><time>2026-04-30T13:19:49.866Z</time></trkpt><trkpt lat="38.3885719" lon="21.433768"><ele>12.5</ele><time>2026-04-30T13:19:50.865Z</time></trkpt><trkpt lat="38.3886525" lon="21.433624"><ele>12.25</ele><time>2026-04-30T13:19:51.867Z</time></trkpt><trkpt lat="38.3887418" lon="21.4334781"><ele>12.0</ele><time>2026-04-30T13:19:52.867Z</time></trkpt><trkpt lat="38.3888301" lon="21.4333305"><ele>12.0</ele><time>2026-04-30T13:19:53.867Z</time></trkpt><trkpt lat="38.3889234" lon="21.4331825"><ele>12.0</ele><time>2026-04-30T13:19:54.867Z</time></trkpt><trkpt lat="38.3890135" lon="21.4330215"><ele>12.0</ele><time>2026-04-30T13:19:55.865Z</time></trkpt><trkpt lat="38.3891004" lon="21.4328575"><ele>12.0</ele><time>2026-04-30T13:19:56.863Z</time></trkpt><trkpt lat="38.3891965" lon="21.4327018"><ele>12.0</ele><time>2026-04-30T13:19:57.866Z</time></trkpt><trkpt lat="38.3892907" lon="21.432542"><ele>12.0</ele><time>2026-04-30T13:19:58.865Z</time></trkpt><trkpt lat="38.3893865" lon="21.4323815"><ele>12.0</ele><time>2026-04-30T13:19:59.864Z</time></trkpt><trkpt lat="38.3894768" lon="21.4322231"><ele>12.0</ele><time>2026-04-30T13:20:00.863Z</time></trkpt><trkpt lat="38.3895719" lon="21.4320719"><ele>12.0</ele><time>2026-04-30T13:20:01.866Z</time></trkpt><trkpt lat="38.3896777" lon="21.4319255"><ele>12.0</ele><time>2026-04-30T13:20:02.868Z</time></trkpt><trkpt lat="38.3897887" lon="21.4317776"><ele>12.0</ele><time>2026-04-30T13:20:03.864Z</time></trkpt><trkpt lat="38.3899021" lon="21.4316324"><ele>12.0</ele><time>2026-04-30T13:20:04.867Z</time></trkpt><trkpt lat="38.3900308" lon="21.4314944"><ele>12.0</ele><time>2026-04-30T13:20:05.866Z</time></trkpt><trkpt lat="38.3901609" lon="21.4313671"><ele>12.0</ele><time>2026-04-30T13:20:06.864Z</time></trkpt><trkpt lat="38.3902983" lon="21.431242"><ele>12.0</ele><time>2026-04-30T13:20:07.865Z</time></trkpt><trkpt lat="38.3904445" lon="21.4311191"><ele>12.0</ele><time>2026-04-30T13:20:08.867Z</time></trkpt><trkpt lat="38.3906139" lon="21.430981"><ele>12.0</ele><time>2026-04-30T13:20:09.867Z</time></trkpt><trkpt lat="38.3907754" lon="21.4308529"><ele>12.0</ele><time>2026-04-30T13:20:10.865Z</time></trkpt><trkpt lat="38.3909442" lon="21.430717"><ele>12.0</ele><time>2026-04-30T13:20:11.866Z</time></trkpt><trkpt lat="38.3911213" lon="21.4305768"><ele>12.0</ele><time>2026-04-30T13:20:12.863Z</time></trkpt><trkpt lat="38.3912979" lon="21.4304335"><ele>12.0</ele><time>2026-04-30T13:20:13.866Z</time></trkpt><trkpt lat="38.3914831" lon="21.4302868"><ele>12.333333333333332</ele><time>2026-04-30T13:20:14.863Z</time></trkpt><trkpt lat="38.3916712" lon="21.4301471"><ele>12.666666666666666</ele><time>2026-04-30T13:20:15.866Z</time></trkpt><trkpt lat="38.3918561" lon="21.4300059"><ele>13.0</ele><time>2026-04-30T13:20:16.864Z</time></trkpt><trkpt lat="38.3920398" lon="21.4298691"><ele>13.0</ele><time>2026-04-30T13:20:17.865Z</time></trkpt><trkpt lat="38.3922147" lon="21.4297316"><ele>13.0</ele><time>2026-04-30T13:20:18.866Z</time></trkpt><trkpt lat="38.3923851" lon="21.4296085"><ele>13.0</ele><time>2026-04-30T13:20:19.864Z</time></trkpt><trkpt lat="38.3925471" lon="21.4294838"><ele>13.0</ele><time>2026-04-30T13:20:20.864Z</time></trkpt><trkpt lat="38.3927034" lon="21.4293697"><ele>13.0</ele><time>2026-04-30T13:20:21.865Z</time></trkpt><trkpt lat="38.3928582" lon="21.4292464"><ele>13.0</ele><time>2026-04-30T13:20:22.865Z</time></trkpt><trkpt lat="38.3930015" lon="21.4291251"><ele>13.333333333333332</ele><time>2026-04-30T13:20:23.865Z</time></trkpt><trkpt lat="38.3931379" lon="21.4289924"><ele>13.666666666666668</ele><time>2026-04-30T13:20:24.865Z</time></trkpt><trkpt lat="38.3932662" lon="21.4288598"><ele>14.0</ele><time>2026-04-30T13:20:25.863Z</time></trkpt><trkpt lat="38.3933859" lon="21.4287102"><ele>13.333333333333334</ele><time>2026-04-30T13:20:26.866Z</time></trkpt><trkpt lat="38.393497" lon="21.4285352"><ele>12.666666666666668</ele><time>2026-04-30T13:20:27.864Z</time></trkpt><trkpt lat="38.3935909" lon="21.4283452"><ele>12.0</ele><time>2026-04-30T13:20:28.866Z</time></trkpt><trkpt lat="38.3936772" lon="21.4281282"><ele>12.0</ele><time>2026-04-30T13:20:29.865Z</time></trkpt><trkpt lat="38.3937536" lon="21.4278791"><ele>12.0</ele><time>2026-04-30T13:20:30.864Z</time></trkpt><trkpt lat="38.393838" lon="21.4276237"><ele>12.0</ele><time>2026-04-30T13:20:31.867Z</time></trkpt><trkpt lat="38.3939285" lon="21.4273507"><ele>11.0</ele><time>2026-04-30T13:20:32.866Z</time></trkpt><trkpt lat="38.3940216" lon="21.4270773"><ele>10.0</ele><time>2026-04-30T13:20:33.867Z</time></trkpt><trkpt lat="38.3941166" lon="21.4267998"><ele>10.0</ele><time>2026-04-30T13:20:34.866Z</time></trkpt><trkpt lat="38.3942097" lon="21.4265161"><ele>10.0</ele><time>2026-04-30T13:20:35.864Z</time></trkpt><trkpt lat="38.3943033" lon="21.4262262"><ele>8.5</ele><time>2026-04-30T13:20:36.866Z</time></trkpt><trkpt lat="38.3943955" lon="21.4259418"><ele>7.0</ele><time>2026-04-30T13:20:37.866Z</time></trkpt><trkpt lat="38.3944888" lon="21.4256572"><ele>6.5</ele><time>2026-04-30T13:20:38.866Z</time></trkpt><trkpt lat="38.3945742" lon="21.4253684"><ele>6.0</ele><time>2026-04-30T13:20:39.866Z</time></trkpt><trkpt lat="38.3946658" lon="21.4250851"><ele>6.0</ele><time>2026-04-30T13:20:40.865Z</time></trkpt><trkpt lat="38.3947565" lon="21.4247953"><ele>6.0</ele><time>2026-04-30T13:20:41.867Z</time></trkpt><trkpt lat="38.3948424" lon="21.4245177"><ele>6.5</ele><time>2026-04-30T13:20:42.865Z</time></trkpt><trkpt lat="38.3949272" lon="21.424239"><ele>7.0</ele><time>2026-04-30T13:20:43.867Z</time></trkpt><trkpt lat="38.3950108" lon="21.4239584"><ele>6.5</ele><time>2026-04-30T13:20:44.865Z</time></trkpt><trkpt lat="38.3950963" lon="21.4236804"><ele>6.0</ele><time>2026-04-30T13:20:45.865Z</time></trkpt><trkpt lat="38.3951822" lon="21.4234"><ele>6.0</ele><time>2026-04-30T13:20:46.865Z</time></trkpt><trkpt lat="38.3952759" lon="21.4231172"><ele>6.0</ele><time>2026-04-30T13:20:47.864Z</time></trkpt><trkpt lat="38.3953599" lon="21.4228367"><ele>5.5</ele><time>2026-04-30T13:20:48.865Z</time></trkpt><trkpt lat="38.3954358" lon="21.4225586"><ele>5.0</ele><time>2026-04-30T13:20:49.867Z</time></trkpt><trkpt lat="38.3955191" lon="21.42228"><ele>5.0</ele><time>2026-04-30T13:20:50.865Z</time></trkpt><trkpt lat="38.395606" lon="21.422003"><ele>5.0</ele><time>2026-04-30T13:20:51.866Z</time></trkpt><trkpt lat="38.3956883" lon="21.4217262"><ele>5.0</ele><time>2026-04-30T13:20:52.865Z</time></trkpt><trkpt lat="38.395773" lon="21.421451"><ele>5.0</ele><time>2026-04-30T13:20:53.865Z</time></trkpt><trkpt lat="38.3958546" lon="21.4211786"><ele>4.5</ele><time>2026-04-30T13:20:54.865Z</time></trkpt><trkpt lat="38.3959364" lon="21.420907"><ele>4.0</ele><time>2026-04-30T13:20:55.866Z</time></trkpt><trkpt lat="38.3960204" lon="21.4206318"><ele>3.5</ele><time>2026-04-30T13:20:56.866Z</time></trkpt><trkpt lat="38.3960965" lon="21.4203555"><ele>3.0</ele><time>2026-04-30T13:20:57.865Z</time></trkpt><trkpt lat="38.3961804" lon="21.4200826"><ele>3.0</ele><time>2026-04-30T13:20:58.866Z</time></trkpt><trkpt lat="38.3962645" lon="21.4198094"><ele>3.0</ele><time>2026-04-30T13:20:59.866Z</time></trkpt><trkpt lat="38.3963484" lon="21.4195401"><ele>4.0</ele><time>2026-04-30T13:21:00.868Z</time></trkpt><trkpt lat="38.3964201" lon="21.4192682"><ele>5.0</ele><time>2026-04-30T13:21:01.866Z</time></trkpt><trkpt lat="38.3965053" lon="21.4189997"><ele>5.0</ele><time>2026-04-30T13:21:02.865Z</time></trkpt><trkpt lat="38.3965819" lon="21.4187349"><ele>5.0</ele><time>2026-04-30T13:21:03.866Z</time></trkpt><trkpt lat="38.3966659" lon="21.4184661"><ele>5.0</ele><time>2026-04-30T13:21:04.867Z</time></trkpt><trkpt lat="38.3967469" lon="21.4182077"><ele>5.0</ele><time>2026-04-30T13:21:05.866Z</time></trkpt><trkpt lat="38.3968347" lon="21.417947"><ele>5.0</ele><time>2026-04-30T13:21:06.868Z</time></trkpt><trkpt lat="38.3969166" lon="21.4176835"><ele>5.0</ele><time>2026-04-30T13:21:07.865Z</time></trkpt><trkpt lat="38.3970032" lon="21.4174241"><ele>5.0</ele><time>2026-04-30T13:21:08.867Z</time></trkpt><trkpt lat="38.3970847" lon="21.4171666"><ele>5.0</ele><time>2026-04-30T13:21:09.865Z</time></trkpt><trkpt lat="38.397182" lon="21.416908"><ele>5.0</ele><time>2026-04-30T13:21:10.865Z</time></trkpt><trkpt lat="38.3972781" lon="21.4166612"><ele>4.666666666666667</ele><time>2026-04-30T13:21:11.867Z</time></trkpt><trkpt lat="38.3973713" lon="21.4164137"><ele>4.333333333333333</ele><time>2026-04-30T13:21:12.867Z</time></trkpt><trkpt lat="38.3974743" lon="21.4161715"><ele>4.0</ele><time>2026-04-30T13:21:13.866Z</time></trkpt><trkpt lat="38.3975731" lon="21.4159314"><ele>4.0</ele><time>2026-04-30T13:21:14.866Z</time></trkpt><trkpt lat="38.3976759" lon="21.4156942"><ele>4.0</ele><time>2026-04-30T13:21:15.863Z</time></trkpt><trkpt lat="38.3977732" lon="21.4154599"><ele>4.0</ele><time>2026-04-30T13:21:16.864Z</time></trkpt><trkpt lat="38.3978781" lon="21.4152308"><ele>4.333333333333333</ele><time>2026-04-30T13:21:17.867Z</time></trkpt><trkpt lat="38.3979791" lon="21.414994"><ele>4.666666666666667</ele><time>2026-04-30T13:21:18.867Z</time></trkpt><trkpt lat="38.3980767" lon="21.4147572"><ele>5.0</ele><time>2026-04-30T13:21:19.866Z</time></trkpt><trkpt lat="38.3981698" lon="21.4145174"><ele>4.666666666666667</ele><time>2026-04-30T13:21:20.866Z</time></trkpt><trkpt lat="38.3982578" lon="21.4142716"><ele>4.333333333333333</ele><time>2026-04-30T13:21:21.866Z</time></trkpt><trkpt lat="38.3983441" lon="21.4140111"><ele>4.0</ele><time>2026-04-30T13:21:22.865Z</time></trkpt><trkpt lat="38.3984265" lon="21.4137535"><ele>4.0</ele><time>2026-04-30T13:21:23.866Z</time></trkpt><trkpt lat="38.3984976" lon="21.4134988"><ele>4.0</ele><time>2026-04-30T13:21:24.867Z</time></trkpt><trkpt lat="38.398577" lon="21.4132442"><ele>4.0</ele><time>2026-04-30T13:21:25.864Z</time></trkpt><trkpt lat="38.398655" lon="21.4129911"><ele>3.6666666666666665</ele><time>2026-04-30T13:21:26.864Z</time></trkpt><trkpt lat="38.3987322" lon="21.4127264"><ele>3.333333333333333</ele><time>2026-04-30T13:21:27.865Z</time></trkpt><trkpt lat="38.3988075" lon="21.4124674"><ele>3.0</ele><time>2026-04-30T13:21:28.867Z</time></trkpt><trkpt lat="38.3988842" lon="21.412213"><ele>3.333333333333333</ele><time>2026-04-30T13:21:29.868Z</time></trkpt><trkpt lat="38.3989634" lon="21.4119587"><ele>3.6666666666666665</ele><time>2026-04-30T13:21:30.868Z</time></trkpt><trkpt lat="38.3990434" lon="21.4116941"><ele>4.0</ele><time>2026-04-30T13:21:31.866Z</time></trkpt><trkpt lat="38.3991122" lon="21.4114294"><ele>4.333333333333333</ele><time>2026-04-30T13:21:32.865Z</time></trkpt><trkpt lat="38.3991961" lon="21.4111646"><ele>4.666666666666667</ele><time>2026-04-30T13:21:33.865Z</time></trkpt><trkpt lat="38.3992779" lon="21.4109001"><ele>5.0</ele><time>2026-04-30T13:21:34.865Z</time></trkpt><trkpt lat="38.3993555" lon="21.4106317"><ele>4.0</ele><time>2026-04-30T13:21:35.865Z</time></trkpt><trkpt lat="38.3994367" lon="21.4103619"><ele>3.0</ele><time>2026-04-30T13:21:36.867Z</time></trkpt><trkpt lat="38.3995166" lon="21.4100962"><ele>3.0</ele><time>2026-04-30T13:21:37.868Z</time></trkpt><trkpt lat="38.399601" lon="21.409832"><ele>3.0</ele><time>2026-04-30T13:21:38.866Z</time></trkpt><trkpt lat="38.3996856" lon="21.4095612"><ele>5.0</ele><time>2026-04-30T13:21:39.867Z</time></trkpt><trkpt lat="38.3997581" lon="21.409286"><ele>7.0</ele><time>2026-04-30T13:21:40.866Z</time></trkpt><trkpt lat="38.3998411" lon="21.4090182"><ele>7.0</ele><time>2026-04-30T13:21:41.867Z</time></trkpt><trkpt lat="38.3999339" lon="21.4087488"><ele>7.0</ele><time>2026-04-30T13:21:42.865Z</time></trkpt><trkpt lat="38.4000267" lon="21.4084878"><ele>7.0</ele><time>2026-04-30T13:21:43.866Z</time></trkpt><trkpt lat="38.4001222" lon="21.4082319"><ele>7.0</ele><time>2026-04-30T13:21:44.866Z</time></trkpt><trkpt lat="38.4002237" lon="21.407972"><ele>6.5</ele><time>2026-04-30T13:21:45.867Z</time></trkpt><trkpt lat="38.4003286" lon="21.4077196"><ele>6.0</ele><time>2026-04-30T13:21:46.866Z</time></trkpt><trkpt lat="38.4004388" lon="21.4074652"><ele>6.0</ele><time>2026-04-30T13:21:47.867Z</time></trkpt><trkpt lat="38.4005633" lon="21.4072156"><ele>6.0</ele><time>2026-04-30T13:21:48.865Z</time></trkpt><trkpt lat="38.4006902" lon="21.406973"><ele>6.0</ele><time>2026-04-30T13:21:49.867Z</time></trkpt><trkpt lat="38.400825" lon="21.4067309"><ele>6.0</ele><time>2026-04-30T13:21:50.863Z</time></trkpt><trkpt lat="38.4009659" lon="21.4064917"><ele>5.5</ele><time>2026-04-30T13:21:51.866Z</time></trkpt><trkpt lat="38.4011176" lon="21.40626"><ele>5.0</ele><time>2026-04-30T13:21:52.867Z</time></trkpt><trkpt lat="38.4012733" lon="21.4060323"><ele>5.5</ele><time>2026-04-30T13:21:53.866Z</time></trkpt><trkpt lat="38.4014335" lon="21.4058183"><ele>6.0</ele><time>2026-04-30T13:21:54.865Z</time></trkpt><trkpt lat="38.4015993" lon="21.4056135"><ele>5.5</ele><time>2026-04-30T13:21:55.867Z</time></trkpt><trkpt lat="38.4017623" lon="21.4054085"><ele>5.0</ele><time>2026-04-30T13:21:56.867Z</time></trkpt><trkpt lat="38.4019372" lon="21.405211"><ele>5.0</ele><time>2026-04-30T13:21:57.867Z</time></trkpt><trkpt lat="38.402118" lon="21.4050203"><ele>5.0</ele><time>2026-04-30T13:21:58.867Z</time></trkpt><trkpt lat="38.4023009" lon="21.4048404"><ele>5.0</ele><time>2026-04-30T13:21:59.866Z</time></trkpt><trkpt lat="38.4024867" lon="21.4046702"><ele>5.0</ele><time>2026-04-30T13:22:00.866Z</time></trkpt><trkpt lat="38.4026809" lon="21.4045108"><ele>5.0</ele><time>2026-04-30T13:22:01.868Z</time></trkpt><trkpt lat="38.4028798" lon="21.4043599"><ele>5.0</ele><time>2026-04-30T13:22:02.866Z</time></trkpt><trkpt lat="38.4030801" lon="21.4042088"><ele>6.0</ele><time>2026-04-30T13:22:03.868Z</time></trkpt><trkpt lat="38.4032948" lon="21.4040594"><ele>7.0</ele><time>2026-04-30T13:22:04.867Z</time></trkpt><trkpt lat="38.4035099" lon="21.4039151"><ele>7.0</ele><time>2026-04-30T13:22:05.866Z</time></trkpt><trkpt lat="38.4037186" lon="21.4037666"><ele>7.0</ele><time>2026-04-30T13:22:06.864Z</time></trkpt><trkpt lat="38.403931" lon="21.4036127"><ele>7.0</ele><time>2026-04-30T13:22:07.865Z</time></trkpt><trkpt lat="38.4041481" lon="21.4034575"><ele>7.0</ele><time>2026-04-30T13:22:08.868Z</time></trkpt><trkpt lat="38.4043641" lon="21.4033067"><ele>7.0</ele><time>2026-04-30T13:22:09.866Z</time></trkpt><trkpt lat="38.4045799" lon="21.4031521"><ele>7.0</ele><time>2026-04-30T13:22:10.867Z</time></trkpt><trkpt lat="38.4047954" lon="21.4030004"><ele>6.5</ele><time>2026-04-30T13:22:11.867Z</time></trkpt><trkpt lat="38.4050126" lon="21.4028423"><ele>6.0</ele><time>2026-04-30T13:22:12.867Z</time></trkpt><trkpt lat="38.4052315" lon="21.4026858"><ele>6.0</ele><time>2026-04-30T13:22:13.867Z</time></trkpt><trkpt lat="38.4054451" lon="21.4025329"><ele>6.0</ele><time>2026-04-30T13:22:14.865Z</time></trkpt><trkpt lat="38.4056586" lon="21.4023829"><ele>5.5</ele><time>2026-04-30T13:22:15.865Z</time></trkpt><trkpt lat="38.4058743" lon="21.4022321"><ele>5.0</ele><time>2026-04-30T13:22:16.866Z</time></trkpt><trkpt lat="38.4060869" lon="21.4020812"><ele>4.5</ele><time>2026-04-30T13:22:17.866Z</time></trkpt><trkpt lat="38.4062994" lon="21.401933"><ele>4.0</ele><time>2026-04-30T13:22:18.868Z</time></trkpt><trkpt lat="38.4065083" lon="21.4017875"><ele>3.5</ele><time>2026-04-30T13:22:19.867Z</time></trkpt><trkpt lat="38.4067177" lon="21.4016407"><ele>3.0</ele><time>2026-04-30T13:22:20.867Z</time></trkpt><trkpt lat="38.4069331" lon="21.4014971"><ele>3.0</ele><time>2026-04-30T13:22:21.865Z</time></trkpt><trkpt lat="38.4071405" lon="21.401347"><ele>3.0</ele><time>2026-04-30T13:22:22.864Z</time></trkpt><trkpt lat="38.4073468" lon="21.401198"><ele>3.5</ele><time>2026-04-30T13:22:23.866Z</time></trkpt><trkpt lat="38.407563" lon="21.4010423"><ele>4.0</ele><time>2026-04-30T13:22:24.865Z</time></trkpt><trkpt lat="38.407766" lon="21.400896"><ele>4.0</ele><time>2026-04-30T13:22:25.864Z</time></trkpt><trkpt lat="38.4079744" lon="21.4007483"><ele>4.0</ele><time>2026-04-30T13:22:26.867Z</time></trkpt><trkpt lat="38.4081754" lon="21.4005954"><ele>3.5</ele><time>2026-04-30T13:22:27.866Z</time></trkpt><trkpt lat="38.4083845" lon="21.4004497"><ele>3.0</ele><time>2026-04-30T13:22:28.868Z</time></trkpt><trkpt lat="38.4085895" lon="21.4003045"><ele>3.0</ele><time>2026-04-30T13:22:29.865Z</time></trkpt><trkpt lat="38.408794" lon="21.4001638"><ele>3.0</ele><time>2026-04-30T13:22:30.866Z</time></trkpt><trkpt lat="38.4089951" lon="21.4000215"><ele>2.0</ele><time>2026-04-30T13:22:31.867Z</time></trkpt><trkpt lat="38.4091968" lon="21.3998766"><ele>1.0</ele><time>2026-04-30T13:22:32.867Z</time></trkpt><trkpt lat="38.4093897" lon="21.3997208"><ele>1.0</ele><time>2026-04-30T13:22:33.865Z</time></trkpt><trkpt lat="38.4095812" lon="21.3995615"><ele>1.0</ele><time>2026-04-30T13:22:34.868Z</time></trkpt><trkpt lat="38.40976" lon="21.3993939"><ele>1.0</ele><time>2026-04-30T13:22:35.865Z</time></trkpt><trkpt lat="38.4099419" lon="21.3992144"><ele>1.0</ele><time>2026-04-30T13:22:36.866Z</time></trkpt><trkpt lat="38.4101135" lon="21.3990252"><ele>1.0</ele><time>2026-04-30T13:22:37.865Z</time></trkpt><trkpt lat="38.4102799" lon="21.3988255"><ele>1.0</ele><time>2026-04-30T13:22:38.865Z</time></trkpt><trkpt lat="38.4104429" lon="21.3986256"><ele>2.6666666666666665</ele><time>2026-04-30T13:22:39.866Z</time></trkpt><trkpt lat="38.4106042" lon="21.3984246"><ele>4.333333333333333</ele><time>2026-04-30T13:22:40.868Z</time></trkpt><trkpt lat="38.410761" lon="21.398226"><ele>6.0</ele><time>2026-04-30T13:22:41.866Z</time></trkpt><trkpt lat="38.4109166" lon="21.3980267"><ele>5.333333333333333</ele><time>2026-04-30T13:22:42.866Z</time></trkpt><trkpt lat="38.4110717" lon="21.3978254"><ele>4.666666666666666</ele><time>2026-04-30T13:22:43.865Z</time></trkpt><trkpt lat="38.4112245" lon="21.3976272"><ele>4.0</ele><time>2026-04-30T13:22:44.867Z</time></trkpt><trkpt lat="38.4113763" lon="21.3974331"><ele>4.666666666666666</ele><time>2026-04-30T13:22:45.864Z</time></trkpt><trkpt lat="38.4115235" lon="21.3972304"><ele>5.333333333333333</ele><time>2026-04-30T13:22:46.865Z</time></trkpt><trkpt lat="38.4116734" lon="21.3970403"><ele>6.0</ele><time>2026-04-30T13:22:47.866Z</time></trkpt><trkpt lat="38.4118211" lon="21.3968461"><ele>6.0</ele><time>2026-04-30T13:22:48.865Z</time></trkpt><trkpt lat="38.4119693" lon="21.3966496"><ele>6.0</ele><time>2026-04-30T13:22:49.866Z</time></trkpt><trkpt lat="38.4121225" lon="21.3964429"><ele>6.0</ele><time>2026-04-30T13:22:50.868Z</time></trkpt><trkpt lat="38.4122708" lon="21.3962479"><ele>6.0</ele><time>2026-04-30T13:22:51.865Z</time></trkpt><trkpt lat="38.4124145" lon="21.3960448"><ele>6.0</ele><time>2026-04-30T13:22:52.865Z</time></trkpt><trkpt lat="38.4125597" lon="21.3958395"><ele>6.0</ele><time>2026-04-30T13:22:53.865Z</time></trkpt><trkpt lat="38.4126985" lon="21.3956169"><ele>5.333333333333333</ele><time>2026-04-30T13:22:54.866Z</time></trkpt><trkpt lat="38.4128133" lon="21.3953968"><ele>4.666666666666666</ele><time>2026-04-30T13:22:55.867Z</time></trkpt><trkpt lat="38.4129089" lon="21.3951583"><ele>4.0</ele><time>2026-04-30T13:22:56.868Z</time></trkpt><trkpt lat="38.4129831" lon="21.3949099"><ele>9.666666666666666</ele><time>2026-04-30T13:22:57.866Z</time></trkpt><trkpt lat="38.4130389" lon="21.3946596"><ele>15.333333333333334</ele><time>2026-04-30T13:22:58.867Z</time></trkpt><trkpt lat="38.413076" lon="21.3943914"><ele>21.0</ele><time>2026-04-30T13:22:59.866Z</time></trkpt><trkpt lat="38.4131035" lon="21.3941244"><ele>21.0</ele><time>2026-04-30T13:23:00.866Z</time></trkpt><trkpt lat="38.4131188" lon="21.3938386"><ele>21.0</ele><time>2026-04-30T13:23:01.865Z</time></trkpt><trkpt lat="38.4131367" lon="21.3935723"><ele>21.0</ele><time>2026-04-30T13:23:02.865Z</time></trkpt><trkpt lat="38.4131544" lon="21.393294"><ele>21.0</ele><time>2026-04-30T13:23:03.865Z</time></trkpt><trkpt lat="38.4131743" lon="21.3930151"><ele>21.0</ele><time>2026-04-30T13:23:04.865Z</time></trkpt><trkpt lat="38.4131903" lon="21.3927371"><ele>21.0</ele><time>2026-04-30T13:23:05.868Z</time></trkpt><trkpt lat="38.41321" lon="21.3924608"><ele>21.0</ele><time>2026-04-30T13:23:06.868Z</time></trkpt><trkpt lat="38.4132291" lon="21.3921911"><ele>21.0</ele><time>2026-04-30T13:23:07.864Z</time></trkpt><trkpt lat="38.4132526" lon="21.3919278"><ele>21.0</ele><time>2026-04-30T13:23:08.866Z</time></trkpt><trkpt lat="38.413287" lon="21.391668"><ele>20.0</ele><time>2026-04-30T13:23:09.866Z</time></trkpt><trkpt lat="38.4133461" lon="21.391415"><ele>19.0</ele><time>2026-04-30T13:23:10.864Z</time></trkpt><trkpt lat="38.4134175" lon="21.3911794"><ele>18.0</ele><time>2026-04-30T13:23:11.866Z</time></trkpt><trkpt lat="38.4135221" lon="21.390962"><ele>16.666666666666668</ele><time>2026-04-30T13:23:12.865Z</time></trkpt><trkpt lat="38.4136427" lon="21.3907579"><ele>15.333333333333334</ele><time>2026-04-30T13:23:13.865Z</time></trkpt><trkpt lat="38.4137831" lon="21.3905823"><ele>14.0</ele><time>2026-04-30T13:23:14.866Z</time></trkpt><trkpt lat="38.4139368" lon="21.3904256"><ele>11.0</ele><time>2026-04-30T13:23:15.866Z</time></trkpt><trkpt lat="38.4141318" lon="21.390269"><ele>8.0</ele><time>2026-04-30T13:23:16.865Z</time></trkpt><trkpt lat="38.4143178" lon="21.3901205"><ele>8.0</ele><time>2026-04-30T13:23:17.865Z</time></trkpt><trkpt lat="38.4145285" lon="21.3899811"><ele>8.0</ele><time>2026-04-30T13:23:18.864Z</time></trkpt><trkpt lat="38.4147169" lon="21.3898404"><ele>6.5</ele><time>2026-04-30T13:23:19.868Z</time></trkpt><trkpt lat="38.4149108" lon="21.3897018"><ele>5.0</ele><time>2026-04-30T13:23:20.866Z</time></trkpt><trkpt lat="38.4151141" lon="21.3895577"><ele>5.0</ele><time>2026-04-30T13:23:21.867Z</time></trkpt><trkpt lat="38.4153022" lon="21.3894118"><ele>5.0</ele><time>2026-04-30T13:23:22.866Z</time></trkpt><trkpt lat="38.4154952" lon="21.3892731"><ele>5.0</ele><time>2026-04-30T13:23:23.865Z</time></trkpt><trkpt lat="38.415686" lon="21.3891273"><ele>9.0</ele><time>2026-04-30T13:23:24.864Z</time></trkpt><trkpt lat="38.4158812" lon="21.3889911"><ele>13.0</ele><time>2026-04-30T13:23:25.865Z</time></trkpt><trkpt lat="38.4160839" lon="21.3888586"><ele>10.666666666666666</ele><time>2026-04-30T13:23:26.865Z</time></trkpt><trkpt lat="38.4162898" lon="21.3887402"><ele>8.333333333333332</ele><time>2026-04-30T13:23:27.867Z</time></trkpt><trkpt lat="38.4164989" lon="21.3886448"><ele>6.0</ele><time>2026-04-30T13:23:28.867Z</time></trkpt><trkpt lat="38.416716" lon="21.3885716"><ele>6.0</ele><time>2026-04-30T13:23:29.866Z</time></trkpt><trkpt lat="38.4169414" lon="21.3885133"><ele>6.0</ele><time>2026-04-30T13:23:30.866Z</time></trkpt><trkpt lat="38.4171648" lon="21.3884633"><ele>11.0</ele><time>2026-04-30T13:23:31.864Z</time></trkpt><trkpt lat="38.4173885" lon="21.3884404"><ele>16.0</ele><time>2026-04-30T13:23:32.867Z</time></trkpt><trkpt lat="38.4176162" lon="21.3884309"><ele>16.0</ele><time>2026-04-30T13:23:33.867Z</time></trkpt><trkpt lat="38.4178447" lon="21.3884176"><ele>16.0</ele><time>2026-04-30T13:23:34.863Z</time></trkpt><trkpt lat="38.4180692" lon="21.3884162"><ele>14.0</ele><time>2026-04-30T13:23:35.867Z</time></trkpt><trkpt lat="38.4183026" lon="21.3884202"><ele>12.0</ele><time>2026-04-30T13:23:36.867Z</time></trkpt><trkpt lat="38.4185313" lon="21.3884229"><ele>12.0</ele><time>2026-04-30T13:23:37.867Z</time></trkpt><trkpt lat="38.4187595" lon="21.3884256"><ele>12.0</ele><time>2026-04-30T13:23:38.864Z</time></trkpt><trkpt lat="38.4189921" lon="21.3884293"><ele>12.5</ele><time>2026-04-30T13:23:39.867Z</time></trkpt><trkpt lat="38.4192272" lon="21.3884393"><ele>13.0</ele><time>2026-04-30T13:23:40.865Z</time></trkpt><trkpt lat="38.4194613" lon="21.3884499"><ele>14.5</ele><time>2026-04-30T13:23:41.865Z</time></trkpt><trkpt lat="38.4196959" lon="21.3884555"><ele>16.0</ele><time>2026-04-30T13:23:42.865Z</time></trkpt><trkpt lat="38.4199362" lon="21.3884496"><ele>16.0</ele><time>2026-04-30T13:23:43.866Z</time></trkpt><trkpt lat="38.4201777" lon="21.3884488"><ele>16.0</ele><time>2026-04-30T13:23:44.865Z</time></trkpt><trkpt lat="38.4204191" lon="21.3884432"><ele>17.0</ele><time>2026-04-30T13:23:45.866Z</time></trkpt><trkpt lat="38.4206593" lon="21.3884376"><ele>18.0</ele><time>2026-04-30T13:23:46.865Z</time></trkpt><trkpt lat="38.4209011" lon="21.3884313"><ele>18.0</ele><time>2026-04-30T13:23:47.865Z</time></trkpt><trkpt lat="38.4211417" lon="21.3884248"><ele>18.0</ele><time>2026-04-30T13:23:48.866Z</time></trkpt><trkpt lat="38.4213804" lon="21.3884226"><ele>18.5</ele><time>2026-04-30T13:23:49.866Z</time></trkpt><trkpt lat="38.4216289" lon="21.3884164"><ele>19.0</ele><time>2026-04-30T13:23:50.864Z</time></trkpt><trkpt lat="38.4218788" lon="21.3884062"><ele>19.0</ele><time>2026-04-30T13:23:51.866Z</time></trkpt><trkpt lat="38.4221206" lon="21.3883913"><ele>19.0</ele><time>2026-04-30T13:23:52.866Z</time></trkpt><trkpt lat="38.422369" lon="21.3883882"><ele>18.5</ele><time>2026-04-30T13:23:53.864Z</time></trkpt><trkpt lat="38.4226159" lon="21.3883752"><ele>18.0</ele><time>2026-04-30T13:23:54.864Z</time></trkpt><trkpt lat="38.4228585" lon="21.3883697"><ele>15.0</ele><time>2026-04-30T13:23:55.864Z</time></trkpt><trkpt lat="38.4231022" lon="21.3883577"><ele>12.0</ele><time>2026-04-30T13:23:56.865Z</time></trkpt><trkpt lat="38.423349" lon="21.3883435"><ele>12.0</ele><time>2026-04-30T13:23:57.867Z</time></trkpt><trkpt lat="38.4235961" lon="21.3883318"><ele>12.0</ele><time>2026-04-30T13:23:58.865Z</time></trkpt><trkpt lat="38.4238473" lon="21.3883199"><ele>11.5</ele><time>2026-04-30T13:23:59.863Z</time></trkpt><trkpt lat="38.42409" lon="21.3883097"><ele>11.0</ele><time>2026-04-30T13:24:00.865Z</time></trkpt><trkpt lat="38.4243348" lon="21.3882986"><ele>11.0</ele><time>2026-04-30T13:24:01.866Z</time></trkpt><trkpt lat="38.4245755" lon="21.388287"><ele>11.0</ele><time>2026-04-30T13:24:02.867Z</time></trkpt><trkpt lat="38.4248166" lon="21.3882813"><ele>10.0</ele><time>2026-04-30T13:24:03.867Z</time></trkpt><trkpt lat="38.42506" lon="21.3882695"><ele>9.0</ele><time>2026-04-30T13:24:04.867Z</time></trkpt><trkpt lat="38.4253009" lon="21.3882585"><ele>8.0</ele><time>2026-04-30T13:24:05.866Z</time></trkpt><trkpt lat="38.4255446" lon="21.3882504"><ele>7.0</ele><time>2026-04-30T13:24:06.868Z</time></trkpt><trkpt lat="38.425784" lon="21.3882408"><ele>7.0</ele><time>2026-04-30T13:24:07.866Z</time></trkpt><trkpt lat="38.4260226" lon="21.388224"><ele>7.0</ele><time>2026-04-30T13:24:08.866Z</time></trkpt><trkpt lat="38.4262604" lon="21.3881972"><ele>7.5</ele><time>2026-04-30T13:24:09.866Z</time></trkpt><trkpt lat="38.4264978" lon="21.3881673"><ele>8.0</ele><time>2026-04-30T13:24:10.868Z</time></trkpt><trkpt lat="38.4267308" lon="21.3881236"><ele>8.0</ele><time>2026-04-30T13:24:11.865Z</time></trkpt><trkpt lat="38.426966" lon="21.3880704"><ele>8.0</ele><time>2026-04-30T13:24:12.868Z</time></trkpt><trkpt lat="38.4272014" lon="21.3880125"><ele>10.0</ele><time>2026-04-30T13:24:13.866Z</time></trkpt><trkpt lat="38.427434" lon="21.3879433"><ele>12.0</ele><time>2026-04-30T13:24:14.866Z</time></trkpt><trkpt lat="38.4276661" lon="21.387871"><ele>12.0</ele><time>2026-04-30T13:24:15.867Z</time></trkpt><trkpt lat="38.4278954" lon="21.3877838"><ele>12.0</ele><time>2026-04-30T13:24:16.867Z</time></trkpt><trkpt lat="38.428122" lon="21.3876867"><ele>13.5</ele><time>2026-04-30T13:24:17.867Z</time></trkpt><trkpt lat="38.4283454" lon="21.3875742"><ele>15.0</ele><time>2026-04-30T13:24:18.867Z</time></trkpt><trkpt lat="38.4285703" lon="21.3874559"><ele>15.0</ele><time>2026-04-30T13:24:19.866Z</time></trkpt><trkpt lat="38.4287872" lon="21.3873298"><ele>15.0</ele><time>2026-04-30T13:24:20.864Z</time></trkpt><trkpt lat="38.4290022" lon="21.3871898"><ele>14.5</ele><time>2026-04-30T13:24:21.866Z</time></trkpt><trkpt lat="38.4292087" lon="21.3870446"><ele>14.0</ele><time>2026-04-30T13:24:22.865Z</time></trkpt><trkpt lat="38.4294126" lon="21.386888"><ele>14.0</ele><time>2026-04-30T13:24:23.866Z</time></trkpt><trkpt lat="38.4296114" lon="21.3867263"><ele>14.0</ele><time>2026-04-30T13:24:24.865Z</time></trkpt><trkpt lat="38.4298055" lon="21.3865547"><ele>14.0</ele><time>2026-04-30T13:24:25.866Z</time></trkpt><trkpt lat="38.4300023" lon="21.386376"><ele>14.0</ele><time>2026-04-30T13:24:26.866Z</time></trkpt><trkpt lat="38.4301866" lon="21.3861904"><ele>14.0</ele><time>2026-04-30T13:24:27.867Z</time></trkpt><trkpt lat="38.4303805" lon="21.3860019"><ele>14.0</ele><time>2026-04-30T13:24:28.868Z</time></trkpt><trkpt lat="38.4305779" lon="21.3858026"><ele>15.0</ele><time>2026-04-30T13:24:29.866Z</time></trkpt><trkpt lat="38.4307687" lon="21.385615"><ele>16.0</ele><time>2026-04-30T13:24:30.865Z</time></trkpt><trkpt lat="38.4309565" lon="21.3854362"><ele>16.0</ele><time>2026-04-30T13:24:31.866Z</time></trkpt><trkpt lat="38.4311435" lon="21.3852564"><ele>16.0</ele><time>2026-04-30T13:24:32.865Z</time></trkpt><trkpt lat="38.4313251" lon="21.3850718"><ele>16.5</ele><time>2026-04-30T13:24:33.867Z</time></trkpt><trkpt lat="38.4315091" lon="21.3848919"><ele>17.0</ele><time>2026-04-30T13:24:34.866Z</time></trkpt><trkpt lat="38.4316951" lon="21.3847118"><ele>17.0</ele><time>2026-04-30T13:24:35.866Z</time></trkpt><trkpt lat="38.4318801" lon="21.3845255"><ele>17.0</ele><time>2026-04-30T13:24:36.867Z</time></trkpt><trkpt lat="38.4320616" lon="21.3843418"><ele>17.5</ele><time>2026-04-30T13:24:37.866Z</time></trkpt><trkpt lat="38.432245" lon="21.3841646"><ele>18.0</ele><time>2026-04-30T13:24:38.865Z</time></trkpt><trkpt lat="38.4324281" lon="21.3839846"><ele>17.5</ele><time>2026-04-30T13:24:39.868Z</time></trkpt><trkpt lat="38.4326077" lon="21.3838055"><ele>17.0</ele><time>2026-04-30T13:24:40.867Z</time></trkpt><trkpt lat="38.4327892" lon="21.3836282"><ele>17.0</ele><time>2026-04-30T13:24:41.866Z</time></trkpt><trkpt lat="38.43297" lon="21.3834492"><ele>17.0</ele><time>2026-04-30T13:24:42.865Z</time></trkpt><trkpt lat="38.433152" lon="21.3832725"><ele>17.0</ele><time>2026-04-30T13:24:43.866Z</time></trkpt><trkpt lat="38.4333332" lon="21.3830947"><ele>17.0</ele><time>2026-04-30T13:24:44.866Z</time></trkpt><trkpt lat="38.4335167" lon="21.3829176"><ele>17.0</ele><time>2026-04-30T13:24:45.864Z</time></trkpt><trkpt lat="38.4337015" lon="21.3827422"><ele>17.0</ele><time>2026-04-30T13:24:46.868Z</time></trkpt><trkpt lat="38.4338856" lon="21.3825632"><ele>17.0</ele><time>2026-04-30T13:24:47.865Z</time></trkpt><trkpt lat="38.4340674" lon="21.3823905"><ele>17.0</ele><time>2026-04-30T13:24:48.867Z</time></trkpt><trkpt lat="38.4342624" lon="21.382203"><ele>15.5</ele><time>2026-04-30T13:24:49.866Z</time></trkpt><trkpt lat="38.4344449" lon="21.3820251"><ele>14.0</ele><time>2026-04-30T13:24:50.866Z</time></trkpt><trkpt lat="38.434627" lon="21.3818399"><ele>14.0</ele><time>2026-04-30T13:24:51.867Z</time></trkpt><trkpt lat="38.4348103" lon="21.38166"><ele>14.0</ele><time>2026-04-30T13:24:52.866Z</time></trkpt><trkpt lat="38.4349934" lon="21.3814832"><ele>13.0</ele><time>2026-04-30T13:24:53.867Z</time></trkpt><trkpt lat="38.435179" lon="21.3813091"><ele>12.0</ele><time>2026-04-30T13:24:54.868Z</time></trkpt><trkpt lat="38.4353667" lon="21.3811331"><ele>13.0</ele><time>2026-04-30T13:24:55.866Z</time></trkpt><trkpt lat="38.4355459" lon="21.3809518"><ele>14.0</ele><time>2026-04-30T13:24:56.865Z</time></trkpt><trkpt lat="38.4357273" lon="21.3807693"><ele>14.0</ele><time>2026-04-30T13:24:57.865Z</time></trkpt><trkpt lat="38.4359102" lon="21.3806012"><ele>14.0</ele><time>2026-04-30T13:24:58.865Z</time></trkpt><trkpt lat="38.4360935" lon="21.3804219"><ele>13.0</ele><time>2026-04-30T13:24:59.865Z</time></trkpt><trkpt lat="38.4362731" lon="21.3802468"><ele>12.0</ele><time>2026-04-30T13:25:00.866Z</time></trkpt><trkpt lat="38.436454" lon="21.3800686"><ele>11.5</ele><time>2026-04-30T13:25:01.864Z</time></trkpt><trkpt lat="38.4366346" lon="21.3798928"><ele>11.0</ele><time>2026-04-30T13:25:02.864Z</time></trkpt><trkpt lat="38.4368174" lon="21.3797135"><ele>10.0</ele><time>2026-04-30T13:25:03.865Z</time></trkpt><trkpt lat="38.4369986" lon="21.3795339"><ele>9.0</ele><time>2026-04-30T13:25:04.866Z</time></trkpt><trkpt lat="38.4371771" lon="21.3793465"><ele>9.0</ele><time>2026-04-30T13:25:05.867Z</time></trkpt><trkpt lat="38.4373621" lon="21.3791668"><ele>9.0</ele><time>2026-04-30T13:25:06.866Z</time></trkpt><trkpt lat="38.4375479" lon="21.3789836"><ele>8.5</ele><time>2026-04-30T13:25:07.865Z</time></trkpt><trkpt lat="38.4377334" lon="21.3788048"><ele>8.0</ele><time>2026-04-30T13:25:08.866Z</time></trkpt><trkpt lat="38.4379185" lon="21.3786269"><ele>8.5</ele><time>2026-04-30T13:25:09.867Z</time></trkpt><trkpt lat="38.4381055" lon="21.3784445"><ele>9.0</ele><time>2026-04-30T13:25:10.863Z</time></trkpt><trkpt lat="38.4382926" lon="21.3782652"><ele>9.0</ele><time>2026-04-30T13:25:11.868Z</time></trkpt><trkpt lat="38.4384839" lon="21.3780826"><ele>9.0</ele><time>2026-04-30T13:25:12.866Z</time></trkpt><trkpt lat="38.4386695" lon="21.3779064"><ele>9.0</ele><time>2026-04-30T13:25:13.867Z</time></trkpt><trkpt lat="38.4388577" lon="21.3777289"><ele>9.0</ele><time>2026-04-30T13:25:14.866Z</time></trkpt><trkpt lat="38.4390496" lon="21.3775672"><ele>9.0</ele><time>2026-04-30T13:25:15.867Z</time></trkpt><trkpt lat="38.4392458" lon="21.3774092"><ele>9.0</ele><time>2026-04-30T13:25:16.866Z</time></trkpt><trkpt lat="38.4394485" lon="21.3772478"><ele>9.0</ele><time>2026-04-30T13:25:17.866Z</time></trkpt><trkpt lat="38.4396465" lon="21.3770924"><ele>9.0</ele><time>2026-04-30T13:25:18.866Z</time></trkpt><trkpt lat="38.4398425" lon="21.3769374"><ele>9.0</ele><time>2026-04-30T13:25:19.868Z</time></trkpt><trkpt lat="38.4400399" lon="21.3767707"><ele>9.0</ele><time>2026-04-30T13:25:20.865Z</time></trkpt><trkpt lat="38.4402287" lon="21.3766094"><ele>9.0</ele><time>2026-04-30T13:25:21.866Z</time></trkpt><trkpt lat="38.4404123" lon="21.3764384"><ele>9.0</ele><time>2026-04-30T13:25:22.864Z</time></trkpt><trkpt lat="38.4405884" lon="21.3762548"><ele>11.0</ele><time>2026-04-30T13:25:23.866Z</time></trkpt><trkpt lat="38.4407552" lon="21.3760614"><ele>13.0</ele><time>2026-04-30T13:25:24.865Z</time></trkpt><trkpt lat="38.4409128" lon="21.3758574"><ele>13.0</ele><time>2026-04-30T13:25:25.865Z</time></trkpt><trkpt lat="38.4410707" lon="21.3756496"><ele>13.0</ele><time>2026-04-30T13:25:26.864Z</time></trkpt><trkpt lat="38.4412274" lon="21.3754419"><ele>13.333333333333332</ele><time>2026-04-30T13:25:27.865Z</time></trkpt><trkpt lat="38.4413915" lon="21.3752482"><ele>13.666666666666668</ele><time>2026-04-30T13:25:28.865Z</time></trkpt><trkpt lat="38.4415599" lon="21.3750626"><ele>14.0</ele><time>2026-04-30T13:25:29.868Z</time></trkpt><trkpt lat="38.4417357" lon="21.3748765"><ele>14.0</ele><time>2026-04-30T13:25:30.866Z</time></trkpt><trkpt lat="38.4419224" lon="21.3747112"><ele>14.0</ele><time>2026-04-30T13:25:31.865Z</time></trkpt><trkpt lat="38.4421124" lon="21.3745546"><ele>13.0</ele><time>2026-04-30T13:25:32.866Z</time></trkpt><trkpt lat="38.4423112" lon="21.3744013"><ele>12.0</ele><time>2026-04-30T13:25:33.865Z</time></trkpt><trkpt lat="38.4425058" lon="21.3742619"><ele>12.0</ele><time>2026-04-30T13:25:34.865Z</time></trkpt><trkpt lat="38.4427136" lon="21.3741415"><ele>12.0</ele><time>2026-04-30T13:25:35.865Z</time></trkpt><trkpt lat="38.4429202" lon="21.3740305"><ele>13.5</ele><time>2026-04-30T13:25:36.864Z</time></trkpt><trkpt lat="38.4431322" lon="21.3739177"><ele>15.0</ele><time>2026-04-30T13:25:37.867Z</time></trkpt><trkpt lat="38.4433509" lon="21.3738175"><ele>11.0</ele><time>2026-04-30T13:25:38.865Z</time></trkpt><trkpt lat="38.4435708" lon="21.3737322"><ele>7.0</ele><time>2026-04-30T13:25:39.867Z</time></trkpt><trkpt lat="38.4437957" lon="21.3736674"><ele>9.5</ele><time>2026-04-30T13:25:40.865Z</time></trkpt><trkpt lat="38.444021" lon="21.3736037"><ele>12.0</ele><time>2026-04-30T13:25:41.865Z</time></trkpt><trkpt lat="38.4442438" lon="21.3735287"><ele>12.0</ele><time>2026-04-30T13:25:42.865Z</time></trkpt><trkpt lat="38.4444744" lon="21.3734621"><ele>12.0</ele><time>2026-04-30T13:25:43.867Z</time></trkpt><trkpt lat="38.4447009" lon="21.3733967"><ele>14.0</ele><time>2026-04-30T13:25:44.866Z</time></trkpt><trkpt lat="38.4449244" lon="21.3733208"><ele>16.0</ele><time>2026-04-30T13:25:45.865Z</time></trkpt><trkpt lat="38.4451517" lon="21.3732499"><ele>16.0</ele><time>2026-04-30T13:25:46.867Z</time></trkpt><trkpt lat="38.4453784" lon="21.3731761"><ele>16.0</ele><time>2026-04-30T13:25:47.867Z</time></trkpt><trkpt lat="38.445605" lon="21.3731052"><ele>16.5</ele><time>2026-04-30T13:25:48.866Z</time></trkpt><trkpt lat="38.4458365" lon="21.3730356"><ele>17.0</ele><time>2026-04-30T13:25:49.865Z</time></trkpt><trkpt lat="38.4460718" lon="21.3729696"><ele>17.5</ele><time>2026-04-30T13:25:50.868Z</time></trkpt><trkpt lat="38.4463015" lon="21.3729061"><ele>18.0</ele><time>2026-04-30T13:25:51.866Z</time></trkpt><trkpt lat="38.4465324" lon="21.3728339"><ele>18.0</ele><time>2026-04-30T13:25:52.864Z</time></trkpt><trkpt lat="38.4467596" lon="21.3727563"><ele>18.0</ele><time>2026-04-30T13:25:53.865Z</time></trkpt><trkpt lat="38.446987" lon="21.37267"><ele>17.0</ele><time>2026-04-30T13:25:54.865Z</time></trkpt><trkpt lat="38.4472088" lon="21.3725745"><ele>16.0</ele><time>2026-04-30T13:25:55.867Z</time></trkpt><trkpt lat="38.4474324" lon="21.3724639"><ele>16.0</ele><time>2026-04-30T13:25:56.867Z</time></trkpt><trkpt lat="38.4476512" lon="21.3723419"><ele>16.0</ele><time>2026-04-30T13:25:57.865Z</time></trkpt><trkpt lat="38.4478696" lon="21.3722059"><ele>12.5</ele><time>2026-04-30T13:25:58.864Z</time></trkpt><trkpt lat="38.4480783" lon="21.3720678"><ele>9.0</ele><time>2026-04-30T13:25:59.864Z</time></trkpt><trkpt lat="38.4482867" lon="21.3719168"><ele>9.0</ele><time>2026-04-30T13:26:00.864Z</time></trkpt><trkpt lat="38.4484957" lon="21.3717614"><ele>9.0</ele><time>2026-04-30T13:26:01.866Z</time></trkpt><trkpt lat="38.4487022" lon="21.3716097"><ele>10.0</ele><time>2026-04-30T13:26:02.864Z</time></trkpt><trkpt lat="38.4489065" lon="21.371456"><ele>11.0</ele><time>2026-04-30T13:26:03.864Z</time></trkpt><trkpt lat="38.449109" lon="21.3712986"><ele>11.0</ele><time>2026-04-30T13:26:04.865Z</time></trkpt><trkpt lat="38.4493192" lon="21.3711435"><ele>11.0</ele><time>2026-04-30T13:26:05.864Z</time></trkpt><trkpt lat="38.4495277" lon="21.3709898"><ele>13.0</ele><time>2026-04-30T13:26:06.863Z</time></trkpt><trkpt lat="38.4497338" lon="21.3708354"><ele>15.0</ele><time>2026-04-30T13:26:07.867Z</time></trkpt><trkpt lat="38.4499427" lon="21.3706821"><ele>15.0</ele><time>2026-04-30T13:26:08.865Z</time></trkpt><trkpt lat="38.4501533" lon="21.3705314"><ele>15.0</ele><time>2026-04-30T13:26:09.868Z</time></trkpt><trkpt lat="38.4503638" lon="21.3703766"><ele>14.5</ele><time>2026-04-30T13:26:10.866Z</time></trkpt><trkpt lat="38.4505752" lon="21.3702216"><ele>14.0</ele><time>2026-04-30T13:26:11.865Z</time></trkpt><trkpt lat="38.4507862" lon="21.3700725"><ele>14.0</ele><time>2026-04-30T13:26:12.864Z</time></trkpt><trkpt lat="38.4509987" lon="21.3699165"><ele>14.0</ele><time>2026-04-30T13:26:13.866Z</time></trkpt><trkpt lat="38.4512095" lon="21.3697584"><ele>12.5</ele><time>2026-04-30T13:26:14.864Z</time></trkpt><trkpt lat="38.4514294" lon="21.369602"><ele>11.0</ele><time>2026-04-30T13:26:15.864Z</time></trkpt><trkpt lat="38.4516474" lon="21.3694451"><ele>11.0</ele><time>2026-04-30T13:26:16.866Z</time></trkpt><trkpt lat="38.4518639" lon="21.3692867"><ele>11.0</ele><time>2026-04-30T13:26:17.867Z</time></trkpt><trkpt lat="38.4520814" lon="21.3691292"><ele>13.0</ele><time>2026-04-30T13:26:18.866Z</time></trkpt><trkpt lat="38.4523022" lon="21.3689765"><ele>15.0</ele><time>2026-04-30T13:26:19.864Z</time></trkpt><trkpt lat="38.4525199" lon="21.3688243"><ele>9.5</ele><time>2026-04-30T13:26:20.865Z</time></trkpt><trkpt lat="38.4527376" lon="21.3686663"><ele>4.0</ele><time>2026-04-30T13:26:21.866Z</time></trkpt><trkpt lat="38.4529537" lon="21.3685073"><ele>6.0</ele><time>2026-04-30T13:26:22.865Z</time></trkpt><trkpt lat="38.4531691" lon="21.3683548"><ele>8.0</ele><time>2026-04-30T13:26:23.864Z</time></trkpt><trkpt lat="38.4533814" lon="21.3681962"><ele>8.0</ele><time>2026-04-30T13:26:24.865Z</time></trkpt><trkpt lat="38.4535904" lon="21.3680444"><ele>8.0</ele><time>2026-04-30T13:26:25.867Z</time></trkpt><trkpt lat="38.4537986" lon="21.3679158"><ele>7.5</ele><time>2026-04-30T13:26:26.867Z</time></trkpt><trkpt lat="38.4539954" lon="21.3677639"><ele>7.0</ele><time>2026-04-30T13:26:27.866Z</time></trkpt><trkpt lat="38.4541918" lon="21.3676169"><ele>7.0</ele><time>2026-04-30T13:26:28.864Z</time></trkpt><trkpt lat="38.4543838" lon="21.3674693"><ele>7.0</ele><time>2026-04-30T13:26:29.865Z</time></trkpt><trkpt lat="38.4545709" lon="21.3673248"><ele>7.0</ele><time>2026-04-30T13:26:30.864Z</time></trkpt><trkpt lat="38.4547545" lon="21.3671849"><ele>5.666666666666667</ele><time>2026-04-30T13:26:31.865Z</time></trkpt><trkpt lat="38.4549592" lon="21.3670576"><ele>4.333333333333334</ele><time>2026-04-30T13:26:32.864Z</time></trkpt><trkpt lat="38.4551505" lon="21.3669314"><ele>3.0</ele><time>2026-04-30T13:26:33.865Z</time></trkpt><trkpt lat="38.4553384" lon="21.3668026"><ele>7.0</ele><time>2026-04-30T13:26:34.866Z</time></trkpt><trkpt lat="38.4555465" lon="21.3666695"><ele>11.0</ele><time>2026-04-30T13:26:35.865Z</time></trkpt><trkpt lat="38.4557425" lon="21.3665418"><ele>11.0</ele><time>2026-04-30T13:26:36.867Z</time></trkpt><trkpt lat="38.4559383" lon="21.3664187"><ele>11.0</ele><time>2026-04-30T13:26:37.866Z</time></trkpt><trkpt lat="38.4561301" lon="21.3662941"><ele>11.0</ele><time>2026-04-30T13:26:38.864Z</time></trkpt><trkpt lat="38.4563128" lon="21.366172"><ele>8.0</ele><time>2026-04-30T13:26:39.865Z</time></trkpt><trkpt lat="38.4564857" lon="21.3660647"><ele>5.0</ele><time>2026-04-30T13:26:40.868Z</time></trkpt><trkpt lat="38.4566657" lon="21.3659513"><ele>2.0</ele><time>2026-04-30T13:26:41.866Z</time></trkpt><trkpt lat="38.4568429" lon="21.3658376"><ele>2.0</ele><time>2026-04-30T13:26:42.865Z</time></trkpt><trkpt lat="38.4570184" lon="21.3657264"><ele>2.0</ele><time>2026-04-30T13:26:43.867Z</time></trkpt><trkpt lat="38.4571948" lon="21.3656133"><ele>2.0</ele><time>2026-04-30T13:26:44.864Z</time></trkpt><trkpt lat="38.4573493" lon="21.3655099"><ele>1.75</ele><time>2026-04-30T13:26:45.865Z</time></trkpt><trkpt lat="38.4574899" lon="21.3654211"><ele>1.5</ele><time>2026-04-30T13:26:46.863Z</time></trkpt><trkpt lat="38.4576192" lon="21.3653391"><ele>1.25</ele><time>2026-04-30T13:26:47.866Z</time></trkpt><trkpt lat="38.4577366" lon="21.3652687"><ele>1.0</ele><time>2026-04-30T13:26:48.867Z</time></trkpt><trkpt lat="38.4578365" lon="21.365211"><ele>1.0</ele><time>2026-04-30T13:26:49.864Z</time></trkpt><trkpt lat="38.4579226" lon="21.3651742"><ele>0.9999999999999999</ele><time>2026-04-30T13:26:50.866Z</time></trkpt><trkpt lat="38.4579971" lon="21.3651652"><ele>1.0</ele><time>2026-04-30T13:26:51.865Z</time></trkpt><trkpt lat="38.4580611" lon="21.3651843"><ele>1.0</ele><time>2026-04-30T13:26:52.864Z</time></trkpt><trkpt lat="38.4581166" lon="21.3652322"><ele>0.9999999999999999</ele><time>2026-04-30T13:26:53.867Z</time></trkpt><trkpt lat="38.4581704" lon="21.3652857"><ele>1.0</ele><time>2026-04-30T13:26:54.865Z</time></trkpt><trkpt lat="38.4582316" lon="21.365324"><ele>1.0</ele><time>2026-04-30T13:26:55.864Z</time></trkpt><trkpt lat="38.4583037" lon="21.3653298"><ele>1.6</ele><time>2026-04-30T13:26:56.867Z</time></trkpt><trkpt lat="38.4583816" lon="21.3653163"><ele>2.2</ele><time>2026-04-30T13:26:57.865Z</time></trkpt><trkpt lat="38.4584651" lon="21.3652833"><ele>2.8000000000000003</ele><time>2026-04-30T13:26:58.866Z</time></trkpt><trkpt lat="38.4585474" lon="21.365243"><ele>3.4000000000000004</ele><time>2026-04-30T13:26:59.863Z</time></trkpt><trkpt lat="38.4586388" lon="21.3651966"><ele>4.0</ele><time>2026-04-30T13:27:00.864Z</time></trkpt><trkpt lat="38.4587439" lon="21.3651395"><ele>4.25</ele><time>2026-04-30T13:27:01.867Z</time></trkpt><trkpt lat="38.458841" lon="21.3650819"><ele>4.5</ele><time>2026-04-30T13:27:02.864Z</time></trkpt><trkpt lat="38.4589531" lon="21.3650146"><ele>4.75</ele><time>2026-04-30T13:27:03.866Z</time></trkpt><trkpt lat="38.459062" lon="21.3649502"><ele>5.0</ele><time>2026-04-30T13:27:04.866Z</time></trkpt><trkpt lat="38.4591775" lon="21.3648767"><ele>5.0</ele><time>2026-04-30T13:27:05.864Z</time></trkpt><trkpt lat="38.459295" lon="21.364803"><ele>5.0</ele><time>2026-04-30T13:27:06.867Z</time></trkpt><trkpt lat="38.4594151" lon="21.3647238"><ele>5.0</ele><time>2026-04-30T13:27:07.863Z</time></trkpt><trkpt lat="38.4595369" lon="21.3646462"><ele>5.0</ele><time>2026-04-30T13:27:08.867Z</time></trkpt><trkpt lat="38.4596617" lon="21.3645703"><ele>4.25</ele><time>2026-04-30T13:27:09.865Z</time></trkpt><trkpt lat="38.4597897" lon="21.364497"><ele>3.5</ele><time>2026-04-30T13:27:10.866Z</time></trkpt><trkpt lat="38.4599156" lon="21.3644233"><ele>2.75</ele><time>2026-04-30T13:27:11.866Z</time></trkpt><trkpt lat="38.4600406" lon="21.3643465"><ele>2.0</ele><time>2026-04-30T13:27:12.865Z</time></trkpt><trkpt lat="38.4601692" lon="21.3642676"><ele>2.0</ele><time>2026-04-30T13:27:13.863Z</time></trkpt><trkpt lat="38.4603019" lon="21.3641851"><ele>2.0</ele><time>2026-04-30T13:27:14.865Z</time></trkpt><trkpt lat="38.460433" lon="21.3640975"><ele>2.0</ele><time>2026-04-30T13:27:15.867Z</time></trkpt><trkpt lat="38.4605693" lon="21.3640093"><ele>2.0</ele><time>2026-04-30T13:27:16.865Z</time></trkpt><trkpt lat="38.4607031" lon="21.363925"><ele>1.6666666666666665</ele><time>2026-04-30T13:27:17.863Z</time></trkpt><trkpt lat="38.4608421" lon="21.3638402"><ele>1.3333333333333333</ele><time>2026-04-30T13:27:18.864Z</time></trkpt><trkpt lat="38.46098" lon="21.363753"><ele>1.0</ele><time>2026-04-30T13:27:19.866Z</time></trkpt><trkpt lat="38.4611194" lon="21.3636668"><ele>1.0</ele><time>2026-04-30T13:27:20.866Z</time></trkpt><trkpt lat="38.461257" lon="21.3635777"><ele>1.0</ele><time>2026-04-30T13:27:21.866Z</time></trkpt><trkpt lat="38.4613983" lon="21.3634911"><ele>1.0</ele><time>2026-04-30T13:27:22.867Z</time></trkpt><trkpt lat="38.4615384" lon="21.3633996"><ele>2.3333333333333335</ele><time>2026-04-30T13:27:23.866Z</time></trkpt><trkpt lat="38.4616784" lon="21.3633138"><ele>3.666666666666667</ele><time>2026-04-30T13:27:24.865Z</time></trkpt><trkpt lat="38.4618178" lon="21.3632243"><ele>5.0</ele><time>2026-04-30T13:27:25.866Z</time></trkpt><trkpt lat="38.4619592" lon="21.3631428"><ele>5.0</ele><time>2026-04-30T13:27:26.865Z</time></trkpt><trkpt lat="38.4620972" lon="21.363061"><ele>5.0</ele><time>2026-04-30T13:27:27.868Z</time></trkpt><trkpt lat="38.4622351" lon="21.3629842"><ele>5.0</ele><time>2026-04-30T13:27:28.864Z</time></trkpt><trkpt lat="38.4623734" lon="21.3629011"><ele>4.666666666666667</ele><time>2026-04-30T13:27:29.864Z</time></trkpt><trkpt lat="38.4625161" lon="21.3628158"><ele>4.333333333333333</ele><time>2026-04-30T13:27:30.867Z</time></trkpt><trkpt lat="38.4626492" lon="21.362729"><ele>4.0</ele><time>2026-04-30T13:27:31.865Z</time></trkpt><trkpt lat="38.462784" lon="21.3626424"><ele>4.0</ele><time>2026-04-30T13:27:32.865Z</time></trkpt><trkpt lat="38.4629223" lon="21.3625565"><ele>4.0</ele><time>2026-04-30T13:27:33.864Z</time></trkpt><trkpt lat="38.4630543" lon="21.3624775"><ele>4.0</ele><time>2026-04-30T13:27:34.865Z</time></trkpt><trkpt lat="38.4631851" lon="21.3623957"><ele>4.0</ele><time>2026-04-30T13:27:35.867Z</time></trkpt><trkpt lat="38.4633222" lon="21.3623174"><ele>3.6666666666666665</ele><time>2026-04-30T13:27:36.867Z</time></trkpt><trkpt lat="38.4634581" lon="21.3622342"><ele>3.333333333333333</ele><time>2026-04-30T13:27:37.866Z</time></trkpt><trkpt lat="38.4635985" lon="21.3621469"><ele>3.0</ele><time>2026-04-30T13:27:38.865Z</time></trkpt><trkpt lat="38.4637434" lon="21.3620586"><ele>4.0</ele><time>2026-04-30T13:27:39.866Z</time></trkpt><trkpt lat="38.4638883" lon="21.361972"><ele>5.0</ele><time>2026-04-30T13:27:40.863Z</time></trkpt><trkpt lat="38.4640367" lon="21.3618769"><ele>6.0</ele><time>2026-04-30T13:27:41.864Z</time></trkpt><trkpt lat="38.4641924" lon="21.3617845"><ele>6.0</ele><time>2026-04-30T13:27:42.868Z</time></trkpt><trkpt lat="38.4643564" lon="21.3616784"><ele>6.0</ele><time>2026-04-30T13:27:43.868Z</time></trkpt><trkpt lat="38.4645322" lon="21.3615532"><ele>6.0</ele><time>2026-04-30T13:27:44.864Z</time></trkpt><trkpt lat="38.464726" lon="21.3614257"><ele>5.0</ele><time>2026-04-30T13:27:45.866Z</time></trkpt><trkpt lat="38.464937" lon="21.3612951"><ele>4.0</ele><time>2026-04-30T13:27:46.867Z</time></trkpt><trkpt lat="38.4651664" lon="21.3611554"><ele>4.0</ele><time>2026-04-30T13:27:47.867Z</time></trkpt><trkpt lat="38.4654008" lon="21.3610103"><ele>4.0</ele><time>2026-04-30T13:27:48.865Z</time></trkpt><trkpt lat="38.4656496" lon="21.3608565"><ele>5.0</ele><time>2026-04-30T13:27:49.864Z</time></trkpt><trkpt lat="38.4658922" lon="21.3607105"><ele>6.0</ele><time>2026-04-30T13:27:50.864Z</time></trkpt><trkpt lat="38.4661289" lon="21.3605738"><ele>6.5</ele><time>2026-04-30T13:27:51.866Z</time></trkpt><trkpt lat="38.4663561" lon="21.3604384"><ele>7.0</ele><time>2026-04-30T13:27:52.865Z</time></trkpt><trkpt lat="38.4665801" lon="21.3603062"><ele>7.0</ele><time>2026-04-30T13:27:53.864Z</time></trkpt><trkpt lat="38.4667959" lon="21.360168"><ele>7.0</ele><time>2026-04-30T13:27:54.867Z</time></trkpt><trkpt lat="38.4670106" lon="21.3600355"><ele>7.5</ele><time>2026-04-30T13:27:55.866Z</time></trkpt><trkpt lat="38.46722" lon="21.3599075"><ele>8.0</ele><time>2026-04-30T13:27:56.864Z</time></trkpt><trkpt lat="38.4674283" lon="21.3597781"><ele>7.5</ele><time>2026-04-30T13:27:57.863Z</time></trkpt><trkpt lat="38.4676327" lon="21.3596514"><ele>7.0</ele><time>2026-04-30T13:27:58.865Z</time></trkpt><trkpt lat="38.4678406" lon="21.3595336"><ele>8.5</ele><time>2026-04-30T13:27:59.865Z</time></trkpt><trkpt lat="38.4680441" lon="21.3594106"><ele>10.0</ele><time>2026-04-30T13:28:00.866Z</time></trkpt><trkpt lat="38.4682485" lon="21.3592841"><ele>10.0</ele><time>2026-04-30T13:28:01.865Z</time></trkpt><trkpt lat="38.4684505" lon="21.3591632"><ele>10.0</ele><time>2026-04-30T13:28:02.865Z</time></trkpt><trkpt lat="38.4686533" lon="21.3590485"><ele>10.0</ele><time>2026-04-30T13:28:03.867Z</time></trkpt><trkpt lat="38.4688526" lon="21.3589262"><ele>10.333333333333334</ele><time>2026-04-30T13:28:04.866Z</time></trkpt><trkpt lat="38.4690521" lon="21.3588109"><ele>10.666666666666666</ele><time>2026-04-30T13:28:05.864Z</time></trkpt><trkpt lat="38.4692485" lon="21.358696"><ele>11.0</ele><time>2026-04-30T13:28:06.864Z</time></trkpt><trkpt lat="38.4694462" lon="21.3585806"><ele>11.333333333333332</ele><time>2026-04-30T13:28:07.865Z</time></trkpt><trkpt lat="38.4696453" lon="21.3584629"><ele>11.666666666666666</ele><time>2026-04-30T13:28:08.864Z</time></trkpt><trkpt lat="38.4698401" lon="21.3583405"><ele>12.0</ele><time>2026-04-30T13:28:09.864Z</time></trkpt><trkpt lat="38.4700339" lon="21.3582248"><ele>12.0</ele><time>2026-04-30T13:28:10.864Z</time></trkpt><trkpt lat="38.4702267" lon="21.3581047"><ele>12.0</ele><time>2026-04-30T13:28:11.865Z</time></trkpt><trkpt lat="38.4704243" lon="21.3579867"><ele>12.0</ele><time>2026-04-30T13:28:12.866Z</time></trkpt><trkpt lat="38.4706276" lon="21.3578674"><ele>11.666666666666666</ele><time>2026-04-30T13:28:13.868Z</time></trkpt><trkpt lat="38.4708288" lon="21.357747"><ele>11.333333333333332</ele><time>2026-04-30T13:28:14.861Z</time></trkpt><trkpt lat="38.4710321" lon="21.3576218"><ele>11.0</ele><time>2026-04-30T13:28:15.865Z</time></trkpt><trkpt lat="38.4712342" lon="21.3574969"><ele>11.0</ele><time>2026-04-30T13:28:16.868Z</time></trkpt><trkpt lat="38.4714375" lon="21.3573768"><ele>11.0</ele><time>2026-04-30T13:28:17.866Z</time></trkpt><trkpt lat="38.4716404" lon="21.3572578"><ele>11.0</ele><time>2026-04-30T13:28:18.866Z</time></trkpt><trkpt lat="38.4718438" lon="21.3571356"><ele>11.0</ele><time>2026-04-30T13:28:19.866Z</time></trkpt><trkpt lat="38.4720445" lon="21.3570121"><ele>11.0</ele><time>2026-04-30T13:28:20.865Z</time></trkpt><trkpt lat="38.4722443" lon="21.3568964"><ele>11.0</ele><time>2026-04-30T13:28:21.864Z</time></trkpt><trkpt lat="38.4724461" lon="21.3567821"><ele>11.0</ele><time>2026-04-30T13:28:22.866Z</time></trkpt><trkpt lat="38.4726492" lon="21.3566744"><ele>11.0</ele><time>2026-04-30T13:28:23.865Z</time></trkpt><trkpt lat="38.4728526" lon="21.3565632"><ele>11.0</ele><time>2026-04-30T13:28:24.866Z</time></trkpt><trkpt lat="38.4730589" lon="21.3564576"><ele>11.333333333333332</ele><time>2026-04-30T13:28:25.864Z</time></trkpt><trkpt lat="38.473263" lon="21.3563539"><ele>11.666666666666666</ele><time>2026-04-30T13:28:26.865Z</time></trkpt><trkpt lat="38.473468" lon="21.3562522"><ele>12.0</ele><time>2026-04-30T13:28:27.867Z</time></trkpt><trkpt lat="38.4736735" lon="21.3561508"><ele>11.666666666666666</ele><time>2026-04-30T13:28:28.865Z</time></trkpt><trkpt lat="38.4738834" lon="21.3560494"><ele>11.333333333333332</ele><time>2026-04-30T13:28:29.866Z</time></trkpt><trkpt lat="38.474093" lon="21.3559498"><ele>11.0</ele><time>2026-04-30T13:28:30.864Z</time></trkpt><trkpt lat="38.4743033" lon="21.3558512"><ele>11.0</ele><time>2026-04-30T13:28:31.865Z</time></trkpt><trkpt lat="38.4745148" lon="21.3557525"><ele>11.0</ele><time>2026-04-30T13:28:32.866Z</time></trkpt><trkpt lat="38.4747274" lon="21.3556606"><ele>11.0</ele><time>2026-04-30T13:28:33.864Z</time></trkpt><trkpt lat="38.4749414" lon="21.3555722"><ele>11.0</ele><time>2026-04-30T13:28:34.865Z</time></trkpt><trkpt lat="38.475155" lon="21.3554804"><ele>10.5</ele><time>2026-04-30T13:28:35.864Z</time></trkpt><trkpt lat="38.4753727" lon="21.35539"><ele>10.0</ele><time>2026-04-30T13:28:36.863Z</time></trkpt><trkpt lat="38.4755895" lon="21.3552999"><ele>10.0</ele><time>2026-04-30T13:28:37.865Z</time></trkpt><trkpt lat="38.4758052" lon="21.355207"><ele>10.0</ele><time>2026-04-30T13:28:38.865Z</time></trkpt><trkpt lat="38.4760176" lon="21.3551152"><ele>10.0</ele><time>2026-04-30T13:28:39.866Z</time></trkpt><trkpt lat="38.4762318" lon="21.3550258"><ele>10.0</ele><time>2026-04-30T13:28:40.866Z</time></trkpt><trkpt lat="38.4764439" lon="21.3549389"><ele>10.0</ele><time>2026-04-30T13:28:41.863Z</time></trkpt><trkpt lat="38.4766563" lon="21.3548482"><ele>10.0</ele><time>2026-04-30T13:28:42.866Z</time></trkpt><trkpt lat="38.476868" lon="21.3547581"><ele>10.0</ele><time>2026-04-30T13:28:43.864Z</time></trkpt><trkpt lat="38.4770814" lon="21.3546648"><ele>10.0</ele><time>2026-04-30T13:28:44.865Z</time></trkpt><trkpt lat="38.4772929" lon="21.3545766"><ele>10.0</ele><time>2026-04-30T13:28:45.866Z</time></trkpt><trkpt lat="38.4775056" lon="21.3544857"><ele>10.0</ele><time>2026-04-30T13:28:46.864Z</time></trkpt><trkpt lat="38.4777164" lon="21.3543987"><ele>10.0</ele><time>2026-04-30T13:28:47.864Z</time></trkpt><trkpt lat="38.4779303" lon="21.3543083"><ele>10.666666666666668</ele><time>2026-04-30T13:28:48.867Z</time></trkpt><trkpt lat="38.4781428" lon="21.3542152"><ele>11.333333333333334</ele><time>2026-04-30T13:28:49.862Z</time></trkpt><trkpt lat="38.4783554" lon="21.3541267"><ele>12.0</ele><time>2026-04-30T13:28:50.866Z</time></trkpt><trkpt lat="38.4785658" lon="21.3540406"><ele>12.666666666666668</ele><time>2026-04-30T13:28:51.864Z</time></trkpt><trkpt lat="38.478774" lon="21.3539569"><ele>13.333333333333334</ele><time>2026-04-30T13:28:52.865Z</time></trkpt><trkpt lat="38.4789838" lon="21.3538664"><ele>14.0</ele><time>2026-04-30T13:28:53.865Z</time></trkpt><trkpt lat="38.4791936" lon="21.3537769"><ele>13.666666666666668</ele><time>2026-04-30T13:28:54.862Z</time></trkpt><trkpt lat="38.4794011" lon="21.3536901"><ele>13.333333333333332</ele><time>2026-04-30T13:28:55.867Z</time></trkpt><trkpt lat="38.4796079" lon="21.3536016"><ele>13.0</ele><time>2026-04-30T13:28:56.865Z</time></trkpt><trkpt lat="38.4798129" lon="21.3535098"><ele>13.0</ele><time>2026-04-30T13:28:57.863Z</time></trkpt><trkpt lat="38.4800196" lon="21.3534197"><ele>13.0</ele><time>2026-04-30T13:28:58.865Z</time></trkpt><trkpt lat="38.4802248" lon="21.353331"><ele>13.0</ele><time>2026-04-30T13:28:59.866Z</time></trkpt><trkpt lat="38.4804275" lon="21.3532475"><ele>13.333333333333332</ele><time>2026-04-30T13:29:00.864Z</time></trkpt><trkpt lat="38.4806323" lon="21.3531597"><ele>13.666666666666668</ele><time>2026-04-30T13:29:01.865Z</time></trkpt><trkpt lat="38.4808377" lon="21.3530727"><ele>14.0</ele><time>2026-04-30T13:29:02.865Z</time></trkpt><trkpt lat="38.4810431" lon="21.3529874"><ele>14.0</ele><time>2026-04-30T13:29:03.867Z</time></trkpt><trkpt lat="38.4812481" lon="21.3528982"><ele>14.0</ele><time>2026-04-30T13:29:04.866Z</time></trkpt><trkpt lat="38.4814509" lon="21.3528169"><ele>14.0</ele><time>2026-04-30T13:29:05.865Z</time></trkpt><trkpt lat="38.4816555" lon="21.352735"><ele>15.666666666666668</ele><time>2026-04-30T13:29:06.865Z</time></trkpt><trkpt lat="38.4818602" lon="21.3526478"><ele>17.333333333333332</ele><time>2026-04-30T13:29:07.867Z</time></trkpt><trkpt lat="38.4820673" lon="21.3525563"><ele>19.0</ele><time>2026-04-30T13:29:08.866Z</time></trkpt><trkpt lat="38.4822739" lon="21.3524632"><ele>18.666666666666664</ele><time>2026-04-30T13:29:09.866Z</time></trkpt><trkpt lat="38.4824798" lon="21.3523799"><ele>18.333333333333332</ele><time>2026-04-30T13:29:10.862Z</time></trkpt><trkpt lat="38.4826836" lon="21.3522916"><ele>18.0</ele><time>2026-04-30T13:29:11.865Z</time></trkpt><trkpt lat="38.4828884" lon="21.3522046"><ele>18.0</ele><time>2026-04-30T13:29:12.866Z</time></trkpt><trkpt lat="38.4830919" lon="21.3521199"><ele>18.0</ele><time>2026-04-30T13:29:13.864Z</time></trkpt><trkpt lat="38.4832965" lon="21.3520327"><ele>18.0</ele><time>2026-04-30T13:29:14.863Z</time></trkpt><trkpt lat="38.4834981" lon="21.3519544"><ele>18.0</ele><time>2026-04-30T13:29:15.866Z</time></trkpt><trkpt lat="38.4836905" lon="21.3518818"><ele>18.0</ele><time>2026-04-30T13:29:16.868Z</time></trkpt><trkpt lat="38.4838805" lon="21.3518154"><ele>18.0</ele><time>2026-04-30T13:29:17.864Z</time></trkpt><trkpt lat="38.4840732" lon="21.3517609"><ele>18.666666666666668</ele><time>2026-04-30T13:29:18.866Z</time></trkpt><trkpt lat="38.4842693" lon="21.3517174"><ele>19.333333333333336</ele><time>2026-04-30T13:29:19.868Z</time></trkpt><trkpt lat="38.4844674" lon="21.3516961"><ele>20.0</ele><time>2026-04-30T13:29:20.863Z</time></trkpt><trkpt lat="38.4846567" lon="21.351682"><ele>20.0</ele><time>2026-04-30T13:29:21.865Z</time></trkpt><trkpt lat="38.4848376" lon="21.3516905"><ele>20.0</ele><time>2026-04-30T13:29:22.868Z</time></trkpt><trkpt lat="38.4850055" lon="21.3517085"><ele>20.0</ele><time>2026-04-30T13:29:23.866Z</time></trkpt><trkpt lat="38.4851511" lon="21.3517325"><ele>20.0</ele><time>2026-04-30T13:29:24.863Z</time></trkpt><trkpt lat="38.4852796" lon="21.3517522"><ele>20.0</ele><time>2026-04-30T13:29:25.863Z</time></trkpt><trkpt lat="38.485395" lon="21.3517806"><ele>20.0</ele><time>2026-04-30T13:29:26.864Z</time></trkpt><trkpt lat="38.4854925" lon="21.3518229"><ele>20.0</ele><time>2026-04-30T13:29:27.865Z</time></trkpt><trkpt lat="38.4855837" lon="21.3518731"><ele>20.0</ele><time>2026-04-30T13:29:28.864Z</time></trkpt><trkpt lat="38.4856691" lon="21.3519085"><ele>19.666666666666668</ele><time>2026-04-30T13:29:29.863Z</time></trkpt><trkpt lat="38.4857511" lon="21.3519038"><ele>19.333333333333336</ele><time>2026-04-30T13:29:30.864Z</time></trkpt><trkpt lat="38.4858221" lon="21.3518707"><ele>19.0</ele><time>2026-04-30T13:29:31.864Z</time></trkpt><trkpt lat="38.4858724" lon="21.3518153"><ele>18.666666666666668</ele><time>2026-04-30T13:29:32.865Z</time></trkpt><trkpt lat="38.485901" lon="21.3517353"><ele>18.333333333333332</ele><time>2026-04-30T13:29:33.862Z</time></trkpt><trkpt lat="38.4859315" lon="21.3516489"><ele>18.0</ele><time>2026-04-30T13:29:34.864Z</time></trkpt><trkpt lat="38.4859312" lon="21.3515343"><ele>18.0</ele><time>2026-04-30T13:29:35.863Z</time></trkpt><trkpt lat="38.4859419" lon="21.3514188"><ele>18.0</ele><time>2026-04-30T13:29:36.867Z</time></trkpt><trkpt lat="38.4859856" lon="21.351302"><ele>18.0</ele><time>2026-04-30T13:29:37.864Z</time></trkpt><trkpt lat="38.4860374" lon="21.3511833"><ele>18.0</ele><time>2026-04-30T13:29:38.864Z</time></trkpt><trkpt lat="38.4861056" lon="21.3510606"><ele>18.0</ele><time>2026-04-30T13:29:39.863Z</time></trkpt><trkpt lat="38.4861834" lon="21.3509345"><ele>18.5</ele><time>2026-04-30T13:29:40.865Z</time></trkpt><trkpt lat="38.4862672" lon="21.3507973"><ele>19.0</ele><time>2026-04-30T13:29:41.864Z</time></trkpt><trkpt lat="38.4863548" lon="21.3506522"><ele>19.5</ele><time>2026-04-30T13:29:42.865Z</time></trkpt><trkpt lat="38.486443" lon="21.350519"><ele>20.0</ele><time>2026-04-30T13:29:43.863Z</time></trkpt><trkpt lat="38.4865203" lon="21.3503626"><ele>20.333333333333336</ele><time>2026-04-30T13:29:44.863Z</time></trkpt><trkpt lat="38.4865791" lon="21.3501929"><ele>20.666666666666668</ele><time>2026-04-30T13:29:45.864Z</time></trkpt><trkpt lat="38.4866222" lon="21.3500044"><ele>21.0</ele><time>2026-04-30T13:29:46.865Z</time></trkpt><trkpt lat="38.4866417" lon="21.3498022"><ele>21.0</ele><time>2026-04-30T13:29:47.864Z</time></trkpt><trkpt lat="38.486645" lon="21.3495892"><ele>21.0</ele><time>2026-04-30T13:29:48.863Z</time></trkpt><trkpt lat="38.4866287" lon="21.3493732"><ele>21.0</ele><time>2026-04-30T13:29:49.865Z</time></trkpt><trkpt lat="38.4866016" lon="21.3491495"><ele>21.0</ele><time>2026-04-30T13:29:50.864Z</time></trkpt><trkpt lat="38.4865654" lon="21.3489108"><ele>21.0</ele><time>2026-04-30T13:29:51.863Z</time></trkpt><trkpt lat="38.4865351" lon="21.3486769"><ele>21.0</ele><time>2026-04-30T13:29:52.864Z</time></trkpt><trkpt lat="38.4865021" lon="21.3484396"><ele>21.0</ele><time>2026-04-30T13:29:53.864Z</time></trkpt><trkpt lat="38.4864714" lon="21.3481957"><ele>21.0</ele><time>2026-04-30T13:29:54.863Z</time></trkpt><trkpt lat="38.4864397" lon="21.3479518"><ele>21.0</ele><time>2026-04-30T13:29:55.864Z</time></trkpt><trkpt lat="38.4864039" lon="21.3477021"><ele>21.0</ele><time>2026-04-30T13:29:56.864Z</time></trkpt><trkpt lat="38.4863658" lon="21.347449"><ele>21.0</ele><time>2026-04-30T13:29:57.862Z</time></trkpt><trkpt lat="38.4863295" lon="21.3471905"><ele>21.0</ele><time>2026-04-30T13:29:58.862Z</time></trkpt><trkpt lat="38.4862898" lon="21.346924"><ele>20.0</ele><time>2026-04-30T13:29:59.863Z</time></trkpt><trkpt lat="38.4862553" lon="21.3466648"><ele>19.0</ele><time>2026-04-30T13:30:00.864Z</time></trkpt><trkpt lat="38.4862212" lon="21.3464012"><ele>18.0</ele><time>2026-04-30T13:30:01.862Z</time></trkpt><trkpt lat="38.4861849" lon="21.3461414"><ele>17.666666666666668</ele><time>2026-04-30T13:30:02.862Z</time></trkpt><trkpt lat="38.486149" lon="21.3458803"><ele>17.333333333333336</ele><time>2026-04-30T13:30:03.864Z</time></trkpt><trkpt lat="38.4861171" lon="21.3456242"><ele>17.0</ele><time>2026-04-30T13:30:04.863Z</time></trkpt><trkpt lat="38.4860853" lon="21.3453745"><ele>16.333333333333336</ele><time>2026-04-30T13:30:05.862Z</time></trkpt><trkpt lat="38.486053" lon="21.3451279"><ele>15.666666666666668</ele><time>2026-04-30T13:30:06.863Z</time></trkpt><trkpt lat="38.4860226" lon="21.3449001"><ele>15.0</ele><time>2026-04-30T13:30:07.865Z</time></trkpt><trkpt lat="38.4859911" lon="21.3446701"><ele>14.333333333333332</ele><time>2026-04-30T13:30:08.863Z</time></trkpt><trkpt lat="38.4859701" lon="21.3444376"><ele>13.666666666666666</ele><time>2026-04-30T13:30:09.864Z</time></trkpt><trkpt lat="38.4859567" lon="21.3441953"><ele>13.0</ele><time>2026-04-30T13:30:10.863Z</time></trkpt><trkpt lat="38.4859604" lon="21.343955"><ele>13.333333333333332</ele><time>2026-04-30T13:30:11.863Z</time></trkpt><trkpt lat="38.4859802" lon="21.343713"><ele>13.666666666666668</ele><time>2026-04-30T13:30:12.864Z</time></trkpt><trkpt lat="38.4860095" lon="21.3434692"><ele>14.0</ele><time>2026-04-30T13:30:13.863Z</time></trkpt><trkpt lat="38.4860607" lon="21.3432135"><ele>14.0</ele><time>2026-04-30T13:30:14.863Z</time></trkpt><trkpt lat="38.4861264" lon="21.3429641"><ele>14.0</ele><time>2026-04-30T13:30:15.864Z</time></trkpt><trkpt lat="38.4862012" lon="21.342716"><ele>14.0</ele><time>2026-04-30T13:30:16.862Z</time></trkpt><trkpt lat="38.4862958" lon="21.3424773"><ele>14.666666666666668</ele><time>2026-04-30T13:30:17.864Z</time></trkpt><trkpt lat="38.4864106" lon="21.3422541"><ele>15.333333333333332</ele><time>2026-04-30T13:30:18.864Z</time></trkpt><trkpt lat="38.4865316" lon="21.3420351"><ele>16.0</ele><time>2026-04-30T13:30:19.865Z</time></trkpt><trkpt lat="38.4866558" lon="21.3418202"><ele>16.0</ele><time>2026-04-30T13:30:20.863Z</time></trkpt><trkpt lat="38.4867844" lon="21.3416162"><ele>16.0</ele><time>2026-04-30T13:30:21.862Z</time></trkpt><trkpt lat="38.4869223" lon="21.3414202"><ele>16.0</ele><time>2026-04-30T13:30:22.863Z</time></trkpt><trkpt lat="38.4870715" lon="21.3412303"><ele>16.0</ele><time>2026-04-30T13:30:23.864Z</time></trkpt><trkpt lat="38.4872269" lon="21.3410429"><ele>16.0</ele><time>2026-04-30T13:30:24.866Z</time></trkpt><trkpt lat="38.4873863" lon="21.3408594"><ele>16.0</ele><time>2026-04-30T13:30:25.863Z</time></trkpt><trkpt lat="38.4875435" lon="21.3406764"><ele>16.0</ele><time>2026-04-30T13:30:26.865Z</time></trkpt><trkpt lat="38.4876926" lon="21.3405036"><ele>16.0</ele><time>2026-04-30T13:30:27.865Z</time></trkpt><trkpt lat="38.4878476" lon="21.3403417"><ele>16.0</ele><time>2026-04-30T13:30:28.864Z</time></trkpt><trkpt lat="38.488005" lon="21.3401963"><ele>16.0</ele><time>2026-04-30T13:30:29.864Z</time></trkpt><trkpt lat="38.4881656" lon="21.3400546"><ele>16.0</ele><time>2026-04-30T13:30:30.865Z</time></trkpt><trkpt lat="38.4883369" lon="21.3399118"><ele>16.0</ele><time>2026-04-30T13:30:31.863Z</time></trkpt><trkpt lat="38.4885007" lon="21.3397682"><ele>15.666666666666666</ele><time>2026-04-30T13:30:32.864Z</time></trkpt><trkpt lat="38.4886564" lon="21.3396137"><ele>15.333333333333332</ele><time>2026-04-30T13:30:33.864Z</time></trkpt><trkpt lat="38.488816" lon="21.3394563"><ele>15.0</ele><time>2026-04-30T13:30:34.864Z</time></trkpt><trkpt lat="38.4889724" lon="21.3392967"><ele>14.666666666666668</ele><time>2026-04-30T13:30:35.866Z</time></trkpt><trkpt lat="38.4891248" lon="21.3391331"><ele>14.333333333333334</ele><time>2026-04-30T13:30:36.862Z</time></trkpt><trkpt lat="38.4892712" lon="21.3389621"><ele>14.0</ele><time>2026-04-30T13:30:37.865Z</time></trkpt><trkpt lat="38.4894164" lon="21.3387804"><ele>14.0</ele><time>2026-04-30T13:30:38.863Z</time></trkpt><trkpt lat="38.4895602" lon="21.338585"><ele>14.0</ele><time>2026-04-30T13:30:39.863Z</time></trkpt><trkpt lat="38.4896942" lon="21.3383955"><ele>14.0</ele><time>2026-04-30T13:30:40.863Z</time></trkpt><trkpt lat="38.4898253" lon="21.3381935"><ele>14.333333333333334</ele><time>2026-04-30T13:30:41.863Z</time></trkpt><trkpt lat="38.4899474" lon="21.3379843"><ele>14.666666666666668</ele><time>2026-04-30T13:30:42.862Z</time></trkpt><trkpt lat="38.4900682" lon="21.3377711"><ele>15.0</ele><time>2026-04-30T13:30:43.862Z</time></trkpt><trkpt lat="38.490187" lon="21.3375497"><ele>15.0</ele><time>2026-04-30T13:30:44.864Z</time></trkpt><trkpt lat="38.4903062" lon="21.3373345"><ele>15.0</ele><time>2026-04-30T13:30:45.865Z</time></trkpt><trkpt lat="38.4904236" lon="21.3371101"><ele>15.0</ele><time>2026-04-30T13:30:46.861Z</time></trkpt><trkpt lat="38.4905502" lon="21.3368879"><ele>14.333333333333332</ele><time>2026-04-30T13:30:47.864Z</time></trkpt><trkpt lat="38.4906719" lon="21.3366632"><ele>13.666666666666666</ele><time>2026-04-30T13:30:48.864Z</time></trkpt><trkpt lat="38.4907947" lon="21.3364462"><ele>13.0</ele><time>2026-04-30T13:30:49.864Z</time></trkpt><trkpt lat="38.4909157" lon="21.3362306"><ele>12.0</ele><time>2026-04-30T13:30:50.864Z</time></trkpt><trkpt lat="38.4910363" lon="21.3360081"><ele>11.0</ele><time>2026-04-30T13:30:51.863Z</time></trkpt><trkpt lat="38.4911541" lon="21.3357944"><ele>10.0</ele><time>2026-04-30T13:30:52.865Z</time></trkpt><trkpt lat="38.4912746" lon="21.3355786"><ele>10.333333333333334</ele><time>2026-04-30T13:30:53.863Z</time></trkpt><trkpt lat="38.4913855" lon="21.3353783"><ele>10.666666666666666</ele><time>2026-04-30T13:30:54.864Z</time></trkpt><trkpt lat="38.491494" lon="21.3351771"><ele>11.0</ele><time>2026-04-30T13:30:55.866Z</time></trkpt><trkpt lat="38.4916014" lon="21.3349779"><ele>11.0</ele><time>2026-04-30T13:30:56.863Z</time></trkpt><trkpt lat="38.4917109" lon="21.3347874"><ele>11.0</ele><time>2026-04-30T13:30:57.865Z</time></trkpt><trkpt lat="38.4918146" lon="21.3346025"><ele>11.0</ele><time>2026-04-30T13:30:58.863Z</time></trkpt><trkpt lat="38.4919259" lon="21.3344201"><ele>10.666666666666666</ele><time>2026-04-30T13:30:59.864Z</time></trkpt><trkpt lat="38.492033" lon="21.3342396"><ele>10.333333333333334</ele><time>2026-04-30T13:31:00.865Z</time></trkpt><trkpt lat="38.4921327" lon="21.3340593"><ele>10.0</ele><time>2026-04-30T13:31:01.863Z</time></trkpt><trkpt lat="38.4922228" lon="21.3338664"><ele>9.666666666666668</ele><time>2026-04-30T13:31:02.863Z</time></trkpt><trkpt lat="38.4923132" lon="21.3336586"><ele>9.333333333333334</ele><time>2026-04-30T13:31:03.865Z</time></trkpt><trkpt lat="38.4924131" lon="21.3334558"><ele>9.0</ele><time>2026-04-30T13:31:04.867Z</time></trkpt><trkpt lat="38.4925263" lon="21.3332578"><ele>8.333333333333334</ele><time>2026-04-30T13:31:05.864Z</time></trkpt><trkpt lat="38.4926495" lon="21.3330493"><ele>7.666666666666667</ele><time>2026-04-30T13:31:06.863Z</time></trkpt><trkpt lat="38.4927632" lon="21.3328457"><ele>7.0</ele><time>2026-04-30T13:31:07.864Z</time></trkpt><trkpt lat="38.4928796" lon="21.3326281"><ele>7.0</ele><time>2026-04-30T13:31:08.864Z</time></trkpt><trkpt lat="38.4929918" lon="21.3324107"><ele>7.0</ele><time>2026-04-30T13:31:09.864Z</time></trkpt><trkpt lat="38.4931084" lon="21.3321937"><ele>7.0</ele><time>2026-04-30T13:31:10.864Z</time></trkpt><trkpt lat="38.493234" lon="21.3319767"><ele>7.0</ele><time>2026-04-30T13:31:11.864Z</time></trkpt><trkpt lat="38.493354" lon="21.3317568"><ele>7.0</ele><time>2026-04-30T13:31:12.863Z</time></trkpt><trkpt lat="38.4934751" lon="21.3315399"><ele>7.0</ele><time>2026-04-30T13:31:13.863Z</time></trkpt><trkpt lat="38.4935879" lon="21.3313226"><ele>7.0</ele><time>2026-04-30T13:31:14.863Z</time></trkpt><trkpt lat="38.4937076" lon="21.3311064"><ele>7.0</ele><time>2026-04-30T13:31:15.863Z</time></trkpt><trkpt lat="38.4938233" lon="21.3308955"><ele>7.0</ele><time>2026-04-30T13:31:16.862Z</time></trkpt><trkpt lat="38.4939372" lon="21.3306822"><ele>6.0</ele><time>2026-04-30T13:31:17.864Z</time></trkpt><trkpt lat="38.4940536" lon="21.3304768"><ele>5.0</ele><time>2026-04-30T13:31:18.863Z</time></trkpt><trkpt lat="38.4941656" lon="21.3302725"><ele>4.0</ele><time>2026-04-30T13:31:19.863Z</time></trkpt><trkpt lat="38.4942774" lon="21.3300663"><ele>4.0</ele><time>2026-04-30T13:31:20.864Z</time></trkpt><trkpt lat="38.494395" lon="21.3298583"><ele>4.0</ele><time>2026-04-30T13:31:21.863Z</time></trkpt><trkpt lat="38.4945051" lon="21.3296565"><ele>4.0</ele><time>2026-04-30T13:31:22.863Z</time></trkpt><trkpt lat="38.4946172" lon="21.3294557"><ele>4.333333333333333</ele><time>2026-04-30T13:31:23.863Z</time></trkpt><trkpt lat="38.4947288" lon="21.3292541"><ele>4.666666666666667</ele><time>2026-04-30T13:31:24.864Z</time></trkpt><trkpt lat="38.4948432" lon="21.3290435"><ele>5.0</ele><time>2026-04-30T13:31:25.861Z</time></trkpt><trkpt lat="38.4949544" lon="21.3288368"><ele>5.0</ele><time>2026-04-30T13:31:26.862Z</time></trkpt><trkpt lat="38.4950728" lon="21.3286186"><ele>5.0</ele><time>2026-04-30T13:31:27.867Z</time></trkpt><trkpt lat="38.4951853" lon="21.3284133"><ele>5.0</ele><time>2026-04-30T13:31:28.864Z</time></trkpt><trkpt lat="38.4952948" lon="21.3282107"><ele>5.333333333333334</ele><time>2026-04-30T13:31:29.864Z</time></trkpt><trkpt lat="38.4954043" lon="21.3280022"><ele>5.666666666666667</ele><time>2026-04-30T13:31:30.866Z</time></trkpt><trkpt lat="38.4955198" lon="21.3278013"><ele>6.0</ele><time>2026-04-30T13:31:31.862Z</time></trkpt><trkpt lat="38.4956285" lon="21.3275981"><ele>6.0</ele><time>2026-04-30T13:31:32.862Z</time></trkpt><trkpt lat="38.4957379" lon="21.3274036"><ele>6.0</ele><time>2026-04-30T13:31:33.865Z</time></trkpt><trkpt lat="38.4958449" lon="21.3272175"><ele>6.0</ele><time>2026-04-30T13:31:34.863Z</time></trkpt><trkpt lat="38.4959456" lon="21.3270473"><ele>5.666666666666667</ele><time>2026-04-30T13:31:35.865Z</time></trkpt><trkpt lat="38.4960572" lon="21.3268945"><ele>5.333333333333334</ele><time>2026-04-30T13:31:36.865Z</time></trkpt><trkpt lat="38.4961864" lon="21.326773"><ele>5.0</ele><time>2026-04-30T13:31:37.864Z</time></trkpt><trkpt lat="38.4963311" lon="21.3266702"><ele>5.0</ele><time>2026-04-30T13:31:38.862Z</time></trkpt><trkpt lat="38.4964885" lon="21.3265696"><ele>5.0</ele><time>2026-04-30T13:31:39.863Z</time></trkpt><trkpt lat="38.4966419" lon="21.3264742"><ele>5.0</ele><time>2026-04-30T13:31:40.863Z</time></trkpt><trkpt lat="38.4967968" lon="21.3263644"><ele>4.666666666666667</ele><time>2026-04-30T13:31:41.864Z</time></trkpt><trkpt lat="38.4969519" lon="21.326259"><ele>4.333333333333333</ele><time>2026-04-30T13:31:42.863Z</time></trkpt><trkpt lat="38.4971129" lon="21.3261492"><ele>4.0</ele><time>2026-04-30T13:31:43.863Z</time></trkpt><trkpt lat="38.4972689" lon="21.326024"><ele>4.0</ele><time>2026-04-30T13:31:44.864Z</time></trkpt><trkpt lat="38.4974402" lon="21.325894"><ele>4.0</ele><time>2026-04-30T13:31:45.864Z</time></trkpt><trkpt lat="38.4975965" lon="21.325769"><ele>4.0</ele><time>2026-04-30T13:31:46.866Z</time></trkpt><trkpt lat="38.4977534" lon="21.3256442"><ele>4.0</ele><time>2026-04-30T13:31:47.865Z</time></trkpt><trkpt lat="38.4979066" lon="21.325521"><ele>4.0</ele><time>2026-04-30T13:31:48.864Z</time></trkpt><trkpt lat="38.4980568" lon="21.3253979"><ele>4.0</ele><time>2026-04-30T13:31:49.863Z</time></trkpt><trkpt lat="38.4981943" lon="21.3252757"><ele>4.333333333333333</ele><time>2026-04-30T13:31:50.865Z</time></trkpt><trkpt lat="38.4983178" lon="21.3251382"><ele>4.666666666666667</ele><time>2026-04-30T13:31:51.866Z</time></trkpt><trkpt lat="38.4984164" lon="21.3249664"><ele>5.0</ele><time>2026-04-30T13:31:52.865Z</time></trkpt><trkpt lat="38.4984894" lon="21.3247735"><ele>4.333333333333334</ele><time>2026-04-30T13:31:53.865Z</time></trkpt><trkpt lat="38.4985444" lon="21.3245583"><ele>3.666666666666667</ele><time>2026-04-30T13:31:54.864Z</time></trkpt><trkpt lat="38.4985933" lon="21.3243405"><ele>3.0</ele><time>2026-04-30T13:31:55.865Z</time></trkpt><trkpt lat="38.4986438" lon="21.3241167"><ele>3.333333333333333</ele><time>2026-04-30T13:31:56.866Z</time></trkpt><trkpt lat="38.4986968" lon="21.3238889"><ele>3.6666666666666665</ele><time>2026-04-30T13:31:57.865Z</time></trkpt><trkpt lat="38.4987511" lon="21.3236646"><ele>4.0</ele><time>2026-04-30T13:31:58.864Z</time></trkpt><trkpt lat="38.4987968" lon="21.3234384"><ele>4.666666666666666</ele><time>2026-04-30T13:31:59.865Z</time></trkpt><trkpt lat="38.4988443" lon="21.3232165"><ele>5.333333333333333</ele><time>2026-04-30T13:32:00.866Z</time></trkpt><trkpt lat="38.4988952" lon="21.3230007"><ele>6.0</ele><time>2026-04-30T13:32:01.865Z</time></trkpt><trkpt lat="38.4989541" lon="21.3227842"><ele>6.0</ele><time>2026-04-30T13:32:02.865Z</time></trkpt><trkpt lat="38.4990097" lon="21.3225615"><ele>6.0</ele><time>2026-04-30T13:32:03.865Z</time></trkpt><trkpt lat="38.4990665" lon="21.3223407"><ele>6.0</ele><time>2026-04-30T13:32:04.866Z</time></trkpt><trkpt lat="38.4991323" lon="21.3221164"><ele>5.0</ele><time>2026-04-30T13:32:05.865Z</time></trkpt><trkpt lat="38.4991953" lon="21.3218946"><ele>4.0</ele><time>2026-04-30T13:32:06.864Z</time></trkpt><trkpt lat="38.4992539" lon="21.321674"><ele>3.0</ele><time>2026-04-30T13:32:07.867Z</time></trkpt><trkpt lat="38.4993194" lon="21.321452"><ele>2.6666666666666665</ele><time>2026-04-30T13:32:08.867Z</time></trkpt><trkpt lat="38.4993828" lon="21.3212258"><ele>2.333333333333333</ele><time>2026-04-30T13:32:09.865Z</time></trkpt><trkpt lat="38.4994431" lon="21.3209972"><ele>2.0</ele><time>2026-04-30T13:32:10.866Z</time></trkpt><trkpt lat="38.4995137" lon="21.3207673"><ele>2.333333333333333</ele><time>2026-04-30T13:32:11.865Z</time></trkpt><trkpt lat="38.4995764" lon="21.320533"><ele>2.6666666666666665</ele><time>2026-04-30T13:32:12.867Z</time></trkpt><trkpt lat="38.4996433" lon="21.3202927"><ele>3.0</ele><time>2026-04-30T13:32:13.864Z</time></trkpt><trkpt lat="38.4997133" lon="21.3200572"><ele>3.0</ele><time>2026-04-30T13:32:14.863Z</time></trkpt><trkpt lat="38.4997824" lon="21.3198187"><ele>3.0</ele><time>2026-04-30T13:32:15.865Z</time></trkpt><trkpt lat="38.4998482" lon="21.319589"><ele>3.0</ele><time>2026-04-30T13:32:16.867Z</time></trkpt><trkpt lat="38.4999116" lon="21.3193597"><ele>3.0</ele><time>2026-04-30T13:32:17.866Z</time></trkpt><trkpt lat="38.4999789" lon="21.319129"><ele>3.0</ele><time>2026-04-30T13:32:18.865Z</time></trkpt><trkpt lat="38.5000479" lon="21.3189007"><ele>3.0</ele><time>2026-04-30T13:32:19.864Z</time></trkpt><trkpt lat="38.5001158" lon="21.318672"><ele>3.333333333333333</ele><time>2026-04-30T13:32:20.865Z</time></trkpt><trkpt lat="38.5001767" lon="21.3184457"><ele>3.6666666666666665</ele><time>2026-04-30T13:32:21.864Z</time></trkpt><trkpt lat="38.5002421" lon="21.3182235"><ele>4.0</ele><time>2026-04-30T13:32:22.864Z</time></trkpt><trkpt lat="38.5003078" lon="21.3179943"><ele>4.333333333333333</ele><time>2026-04-30T13:32:23.865Z</time></trkpt><trkpt lat="38.5003724" lon="21.3177699"><ele>4.666666666666667</ele><time>2026-04-30T13:32:24.866Z</time></trkpt><trkpt lat="38.500435" lon="21.3175508"><ele>5.0</ele><time>2026-04-30T13:32:25.865Z</time></trkpt><trkpt lat="38.5004967" lon="21.317325"><ele>6.0</ele><time>2026-04-30T13:32:26.865Z</time></trkpt><trkpt lat="38.5005571" lon="21.3171073"><ele>7.0</ele><time>2026-04-30T13:32:27.865Z</time></trkpt><trkpt lat="38.5006215" lon="21.3168931"><ele>8.0</ele><time>2026-04-30T13:32:28.865Z</time></trkpt><trkpt lat="38.5006813" lon="21.3166846"><ele>8.0</ele><time>2026-04-30T13:32:29.864Z</time></trkpt><trkpt lat="38.5007406" lon="21.3164814"><ele>8.0</ele><time>2026-04-30T13:32:30.864Z</time></trkpt><trkpt lat="38.5007946" lon="21.3162915"><ele>8.0</ele><time>2026-04-30T13:32:31.864Z</time></trkpt><trkpt lat="38.5008505" lon="21.3161032"><ele>7.666666666666666</ele><time>2026-04-30T13:32:32.863Z</time></trkpt><trkpt lat="38.5009136" lon="21.3159204"><ele>7.333333333333334</ele><time>2026-04-30T13:32:33.866Z</time></trkpt><trkpt lat="38.5009929" lon="21.3157504"><ele>7.0</ele><time>2026-04-30T13:32:34.864Z</time></trkpt><trkpt lat="38.5010846" lon="21.3155845"><ele>7.0</ele><time>2026-04-30T13:32:35.866Z</time></trkpt><trkpt lat="38.501185" lon="21.3154256"><ele>7.0</ele><time>2026-04-30T13:32:36.864Z</time></trkpt><trkpt lat="38.5012911" lon="21.315258"><ele>7.0</ele><time>2026-04-30T13:32:37.863Z</time></trkpt><trkpt lat="38.5013864" lon="21.3150946"><ele>8.0</ele><time>2026-04-30T13:32:38.866Z</time></trkpt><trkpt lat="38.5014838" lon="21.3149296"><ele>9.0</ele><time>2026-04-30T13:32:39.866Z</time></trkpt><trkpt lat="38.501576" lon="21.3147643"><ele>10.0</ele><time>2026-04-30T13:32:40.864Z</time></trkpt><trkpt lat="38.5016674" lon="21.3145909"><ele>10.666666666666668</ele><time>2026-04-30T13:32:41.865Z</time></trkpt><trkpt lat="38.5017616" lon="21.3144195"><ele>11.333333333333334</ele><time>2026-04-30T13:32:42.865Z</time></trkpt><trkpt lat="38.5018585" lon="21.314233"><ele>12.0</ele><time>2026-04-30T13:32:43.865Z</time></trkpt><trkpt lat="38.5019618" lon="21.31405"><ele>11.0</ele><time>2026-04-30T13:32:44.865Z</time></trkpt><trkpt lat="38.5020688" lon="21.313868"><ele>10.0</ele><time>2026-04-30T13:32:45.865Z</time></trkpt><trkpt lat="38.5021772" lon="21.3136798"><ele>9.0</ele><time>2026-04-30T13:32:46.867Z</time></trkpt><trkpt lat="38.5022847" lon="21.3134947"><ele>11.0</ele><time>2026-04-30T13:32:47.867Z</time></trkpt><trkpt lat="38.5023959" lon="21.3133074"><ele>13.0</ele><time>2026-04-30T13:32:48.865Z</time></trkpt><trkpt lat="38.5024999" lon="21.3131176"><ele>15.0</ele><time>2026-04-30T13:32:49.866Z</time></trkpt><trkpt lat="38.5026003" lon="21.3129317"><ele>15.0</ele><time>2026-04-30T13:32:50.866Z</time></trkpt><trkpt lat="38.5027012" lon="21.31275"><ele>15.0</ele><time>2026-04-30T13:32:51.865Z</time></trkpt><trkpt lat="38.502801" lon="21.3125661"><ele>15.0</ele><time>2026-04-30T13:32:52.865Z</time></trkpt><trkpt lat="38.5028999" lon="21.3123979"><ele>15.666666666666668</ele><time>2026-04-30T13:32:53.864Z</time></trkpt><trkpt lat="38.502991" lon="21.312246"><ele>16.333333333333336</ele><time>2026-04-30T13:32:54.863Z</time></trkpt><trkpt lat="38.5030859" lon="21.312093"><ele>17.0</ele><time>2026-04-30T13:32:55.864Z</time></trkpt><trkpt lat="38.503175" lon="21.3119427"><ele>17.0</ele><time>2026-04-30T13:32:56.868Z</time></trkpt><trkpt lat="38.5032577" lon="21.3117989"><ele>17.0</ele><time>2026-04-30T13:32:57.865Z</time></trkpt><trkpt lat="38.5033355" lon="21.3116641"><ele>17.0</ele><time>2026-04-30T13:32:58.865Z</time></trkpt><trkpt lat="38.5034076" lon="21.3115343"><ele>17.0</ele><time>2026-04-30T13:32:59.866Z</time></trkpt><trkpt lat="38.5034731" lon="21.311419"><ele>16.666666666666668</ele><time>2026-04-30T13:33:00.866Z</time></trkpt><trkpt lat="38.5035256" lon="21.3113152"><ele>16.333333333333336</ele><time>2026-04-30T13:33:01.866Z</time></trkpt><trkpt lat="38.5035675" lon="21.3112296"><ele>16.0</ele><time>2026-04-30T13:33:02.864Z</time></trkpt><trkpt lat="38.5035908" lon="21.3111537"><ele>15.666666666666668</ele><time>2026-04-30T13:33:03.864Z</time></trkpt><trkpt lat="38.5035621" lon="21.3110032"><ele>15.333333333333334</ele><time>2026-04-30T13:33:05.864Z</time></trkpt><trkpt lat="38.5035165" lon="21.3109373"><ele>15.0</ele><time>2026-04-30T13:33:06.865Z</time></trkpt><trkpt lat="38.5034006" lon="21.3108478"><ele>15.0</ele><time>2026-04-30T13:33:08.865Z</time></trkpt><trkpt lat="38.5033281" lon="21.3107889"><ele>15.0</ele><time>2026-04-30T13:33:09.864Z</time></trkpt><trkpt lat="38.5032484" lon="21.3107256"><ele>15.0</ele><time>2026-04-30T13:33:10.864Z</time></trkpt><trkpt lat="38.5031736" lon="21.3106504"><ele>15.0</ele><time>2026-04-30T13:33:11.865Z</time></trkpt><trkpt lat="38.5031" lon="21.3105665"><ele>15.0</ele><time>2026-04-30T13:33:12.866Z</time></trkpt><trkpt lat="38.5030322" lon="21.310479"><ele>15.0</ele><time>2026-04-30T13:33:13.863Z</time></trkpt><trkpt lat="38.5029805" lon="21.3103853"><ele>15.0</ele><time>2026-04-30T13:33:14.867Z</time></trkpt><trkpt lat="38.5029414" lon="21.310284"><ele>15.0</ele><time>2026-04-30T13:33:15.863Z</time></trkpt><trkpt lat="38.5029594" lon="21.3101759"><ele>15.0</ele><time>2026-04-30T13:33:16.866Z</time></trkpt><trkpt lat="38.5029818" lon="21.31008"><ele>15.0</ele><time>2026-04-30T13:33:17.867Z</time></trkpt><trkpt lat="38.5030313" lon="21.3099704"><ele>15.0</ele><time>2026-04-30T13:33:19.865Z</time></trkpt><trkpt lat="38.5030376" lon="21.3098483"><ele>14.5</ele><time>2026-04-30T13:33:22.865Z</time></trkpt><trkpt lat="38.5029141" lon="21.3097425"><ele>14.0</ele><time>2026-04-30T13:33:24.862Z</time></trkpt><trkpt lat="38.5028318" lon="21.3096883"><ele>13.5</ele><time>2026-04-30T13:33:25.865Z</time></trkpt><trkpt lat="38.5027326" lon="21.3096108"><ele>13.0</ele><time>2026-04-30T13:33:26.863Z</time></trkpt><trkpt lat="38.5026243" lon="21.3095129"><ele>12.333333333333332</ele><time>2026-04-30T13:33:27.865Z</time></trkpt><trkpt lat="38.5025119" lon="21.3094103"><ele>11.666666666666666</ele><time>2026-04-30T13:33:28.867Z</time></trkpt><trkpt lat="38.5023867" lon="21.3092995"><ele>11.0</ele><time>2026-04-30T13:33:29.864Z</time></trkpt><trkpt lat="38.5022508" lon="21.3091654"><ele>11.0</ele><time>2026-04-30T13:33:30.866Z</time></trkpt><trkpt lat="38.5021139" lon="21.3090164"><ele>11.0</ele><time>2026-04-30T13:33:31.866Z</time></trkpt><trkpt lat="38.5019729" lon="21.3088493"><ele>11.0</ele><time>2026-04-30T13:33:32.862Z</time></trkpt><trkpt lat="38.5018296" lon="21.3086604"><ele>11.0</ele><time>2026-04-30T13:33:33.864Z</time></trkpt><trkpt lat="38.5016942" lon="21.3084586"><ele>11.0</ele><time>2026-04-30T13:33:34.866Z</time></trkpt><trkpt lat="38.5015572" lon="21.3082466"><ele>11.0</ele><time>2026-04-30T13:33:35.862Z</time></trkpt><trkpt lat="38.5014253" lon="21.3080242"><ele>11.0</ele><time>2026-04-30T13:33:36.864Z</time></trkpt><trkpt lat="38.501285" lon="21.307786"><ele>11.0</ele><time>2026-04-30T13:33:37.866Z</time></trkpt><trkpt lat="38.5011478" lon="21.307548"><ele>10.5</ele><time>2026-04-30T13:33:38.865Z</time></trkpt><trkpt lat="38.5010154" lon="21.3073067"><ele>10.0</ele><time>2026-04-30T13:33:39.866Z</time></trkpt><trkpt lat="38.5008756" lon="21.3070624"><ele>10.0</ele><time>2026-04-30T13:33:40.865Z</time></trkpt><trkpt lat="38.500728" lon="21.3068082"><ele>10.0</ele><time>2026-04-30T13:33:41.864Z</time></trkpt><trkpt lat="38.5005755" lon="21.3065535"><ele>10.0</ele><time>2026-04-30T13:33:42.863Z</time></trkpt><trkpt lat="38.5004382" lon="21.3062797"><ele>10.0</ele><time>2026-04-30T13:33:43.864Z</time></trkpt><trkpt lat="38.5002815" lon="21.3060213"><ele>10.0</ele><time>2026-04-30T13:33:44.864Z</time></trkpt><trkpt lat="38.500127" lon="21.3057522"><ele>10.0</ele><time>2026-04-30T13:33:45.865Z</time></trkpt><trkpt lat="38.4999702" lon="21.3054827"><ele>10.0</ele><time>2026-04-30T13:33:46.863Z</time></trkpt><trkpt lat="38.4998147" lon="21.3052145"><ele>10.0</ele><time>2026-04-30T13:33:47.865Z</time></trkpt><trkpt lat="38.4996613" lon="21.3049451"><ele>8.5</ele><time>2026-04-30T13:33:48.863Z</time></trkpt><trkpt lat="38.4995036" lon="21.3046796"><ele>7.0</ele><time>2026-04-30T13:33:49.863Z</time></trkpt><trkpt lat="38.4993513" lon="21.3044122"><ele>7.0</ele><time>2026-04-30T13:33:50.863Z</time></trkpt><trkpt lat="38.4991971" lon="21.3041484"><ele>7.0</ele><time>2026-04-30T13:33:51.864Z</time></trkpt><trkpt lat="38.499043" lon="21.3038824"><ele>8.0</ele><time>2026-04-30T13:33:52.864Z</time></trkpt><trkpt lat="38.4988933" lon="21.3036133"><ele>9.0</ele><time>2026-04-30T13:33:53.861Z</time></trkpt><trkpt lat="38.4987392" lon="21.3033454"><ele>8.5</ele><time>2026-04-30T13:33:54.863Z</time></trkpt><trkpt lat="38.4985925" lon="21.3030732"><ele>8.0</ele><time>2026-04-30T13:33:55.865Z</time></trkpt><trkpt lat="38.4984492" lon="21.3027983"><ele>8.0</ele><time>2026-04-30T13:33:56.866Z</time></trkpt><trkpt lat="38.4983133" lon="21.3025207"><ele>8.0</ele><time>2026-04-30T13:33:57.865Z</time></trkpt><trkpt lat="38.4981853" lon="21.3022375"><ele>9.0</ele><time>2026-04-30T13:33:58.863Z</time></trkpt><trkpt lat="38.4980607" lon="21.301951"><ele>10.0</ele><time>2026-04-30T13:33:59.864Z</time></trkpt><trkpt lat="38.4979502" lon="21.3016632"><ele>10.0</ele><time>2026-04-30T13:34:00.862Z</time></trkpt><trkpt lat="38.4978485" lon="21.3013732"><ele>10.0</ele><time>2026-04-30T13:34:01.862Z</time></trkpt><trkpt lat="38.4977517" lon="21.3010788"><ele>10.0</ele><time>2026-04-30T13:34:02.864Z</time></trkpt><trkpt lat="38.4976621" lon="21.3007763"><ele>10.0</ele><time>2026-04-30T13:34:03.863Z</time></trkpt><trkpt lat="38.4975832" lon="21.3004722"><ele>11.0</ele><time>2026-04-30T13:34:04.865Z</time></trkpt><trkpt lat="38.4975127" lon="21.3001753"><ele>12.0</ele><time>2026-04-30T13:34:05.861Z</time></trkpt><trkpt lat="38.4974492" lon="21.2998716"><ele>11.5</ele><time>2026-04-30T13:34:06.863Z</time></trkpt><trkpt lat="38.4973903" lon="21.2995746"><ele>11.0</ele><time>2026-04-30T13:34:07.865Z</time></trkpt><trkpt lat="38.4973395" lon="21.2992738"><ele>11.0</ele><time>2026-04-30T13:34:08.865Z</time></trkpt><trkpt lat="38.4972994" lon="21.298972"><ele>11.0</ele><time>2026-04-30T13:34:09.866Z</time></trkpt><trkpt lat="38.4972652" lon="21.29867"><ele>11.0</ele><time>2026-04-30T13:34:10.867Z</time></trkpt><trkpt lat="38.4972389" lon="21.2983572"><ele>11.0</ele><time>2026-04-30T13:34:11.864Z</time></trkpt><trkpt lat="38.4972176" lon="21.2980476"><ele>11.5</ele><time>2026-04-30T13:34:12.865Z</time></trkpt><trkpt lat="38.4972005" lon="21.2977394"><ele>12.0</ele><time>2026-04-30T13:34:13.865Z</time></trkpt><trkpt lat="38.4971874" lon="21.2974265"><ele>13.0</ele><time>2026-04-30T13:34:14.864Z</time></trkpt><trkpt lat="38.4971791" lon="21.2971213"><ele>14.0</ele><time>2026-04-30T13:34:15.866Z</time></trkpt><trkpt lat="38.4971855" lon="21.2968196"><ele>14.0</ele><time>2026-04-30T13:34:16.865Z</time></trkpt><trkpt lat="38.4972008" lon="21.2965248"><ele>14.0</ele><time>2026-04-30T13:34:17.865Z</time></trkpt><trkpt lat="38.4972279" lon="21.2962291"><ele>16.5</ele><time>2026-04-30T13:34:18.866Z</time></trkpt><trkpt lat="38.4972507" lon="21.295938"><ele>19.0</ele><time>2026-04-30T13:34:19.865Z</time></trkpt><trkpt lat="38.49728" lon="21.2956517"><ele>21.0</ele><time>2026-04-30T13:34:20.865Z</time></trkpt><trkpt lat="38.4973069" lon="21.2953658"><ele>23.0</ele><time>2026-04-30T13:34:21.865Z</time></trkpt><trkpt lat="38.4973358" lon="21.2950746"><ele>23.0</ele><time>2026-04-30T13:34:22.864Z</time></trkpt><trkpt lat="38.4973678" lon="21.2947827"><ele>23.0</ele><time>2026-04-30T13:34:23.865Z</time></trkpt><trkpt lat="38.4973988" lon="21.2944853"><ele>25.5</ele><time>2026-04-30T13:34:24.865Z</time></trkpt><trkpt lat="38.4974297" lon="21.2941887"><ele>28.0</ele><time>2026-04-30T13:34:25.867Z</time></trkpt><trkpt lat="38.4974618" lon="21.2938976"><ele>32.5</ele><time>2026-04-30T13:34:26.861Z</time></trkpt><trkpt lat="38.4974894" lon="21.2936018"><ele>37.0</ele><time>2026-04-30T13:34:27.866Z</time></trkpt><trkpt lat="38.4975214" lon="21.2932993"><ele>40.5</ele><time>2026-04-30T13:34:28.865Z</time></trkpt><trkpt lat="38.4975516" lon="21.2929997"><ele>44.0</ele><time>2026-04-30T13:34:29.866Z</time></trkpt><trkpt lat="38.4975788" lon="21.2927019"><ele>44.0</ele><time>2026-04-30T13:34:30.863Z</time></trkpt><trkpt lat="38.4976093" lon="21.292393"><ele>44.0</ele><time>2026-04-30T13:34:31.864Z</time></trkpt><trkpt lat="38.4976383" lon="21.2920983"><ele>48.5</ele><time>2026-04-30T13:34:32.865Z</time></trkpt><trkpt lat="38.4976665" lon="21.2917981"><ele>53.0</ele><time>2026-04-30T13:34:33.865Z</time></trkpt><trkpt lat="38.4976976" lon="21.291503"><ele>57.5</ele><time>2026-04-30T13:34:34.864Z</time></trkpt><trkpt lat="38.4977275" lon="21.2912197"><ele>62.0</ele><time>2026-04-30T13:34:35.865Z</time></trkpt><trkpt lat="38.4977538" lon="21.2909316"><ele>62.0</ele><time>2026-04-30T13:34:36.864Z</time></trkpt><trkpt lat="38.4977822" lon="21.2906331"><ele>62.0</ele><time>2026-04-30T13:34:37.864Z</time></trkpt><trkpt lat="38.4978123" lon="21.2903281"><ele>65.0</ele><time>2026-04-30T13:34:38.864Z</time></trkpt><trkpt lat="38.4978421" lon="21.2900236"><ele>68.0</ele><time>2026-04-30T13:34:39.866Z</time></trkpt><trkpt lat="38.498741" lon="21.2809464"><ele>62.0</ele><time>2026-04-30T13:35:10.861Z</time></trkpt><trkpt lat="38.4987671" lon="21.280638"><ele>56.0</ele><time>2026-04-30T13:35:11.866Z</time></trkpt><trkpt lat="38.4987979" lon="21.2803287"><ele>53.5</ele><time>2026-04-30T13:35:12.862Z</time></trkpt><trkpt lat="38.4988298" lon="21.2800233"><ele>51.0</ele><time>2026-04-30T13:35:13.864Z</time></trkpt><trkpt lat="38.4988617" lon="21.2797234"><ele>50.0</ele><time>2026-04-30T13:35:14.866Z</time></trkpt><trkpt lat="38.4988855" lon="21.2794234"><ele>49.0</ele><time>2026-04-30T13:35:15.863Z</time></trkpt><trkpt lat="38.4989031" lon="21.27912"><ele>48.0</ele><time>2026-04-30T13:35:16.863Z</time></trkpt><trkpt lat="38.4989035" lon="21.2788179"><ele>47.0</ele><time>2026-04-30T13:35:17.866Z</time></trkpt><trkpt lat="38.4988959" lon="21.2785191"><ele>47.0</ele><time>2026-04-30T13:35:18.861Z</time></trkpt><trkpt lat="38.4988792" lon="21.2782221"><ele>47.0</ele><time>2026-04-30T13:35:19.867Z</time></trkpt><trkpt lat="38.4988473" lon="21.2779317"><ele>47.5</ele><time>2026-04-30T13:35:20.863Z</time></trkpt><trkpt lat="38.4988052" lon="21.2776426"><ele>48.0</ele><time>2026-04-30T13:35:21.866Z</time></trkpt><trkpt lat="38.4987475" lon="21.2773612"><ele>48.5</ele><time>2026-04-30T13:35:22.865Z</time></trkpt><trkpt lat="38.4986757" lon="21.2770863"><ele>49.0</ele><time>2026-04-30T13:35:23.865Z</time></trkpt><trkpt lat="38.4985952" lon="21.2768147"><ele>49.0</ele><time>2026-04-30T13:35:24.866Z</time></trkpt><trkpt lat="38.4985023" lon="21.2765515"><ele>49.0</ele><time>2026-04-30T13:35:25.866Z</time></trkpt><trkpt lat="38.4983979" lon="21.2762931"><ele>49.5</ele><time>2026-04-30T13:35:26.865Z</time></trkpt><trkpt lat="38.4982826" lon="21.2760442"><ele>50.0</ele><time>2026-04-30T13:35:27.864Z</time></trkpt><trkpt lat="38.4981548" lon="21.2758046"><ele>49.0</ele><time>2026-04-30T13:35:28.862Z</time></trkpt><trkpt lat="38.4980151" lon="21.2755739"><ele>48.0</ele><time>2026-04-30T13:35:29.864Z</time></trkpt><trkpt lat="38.497867" lon="21.2753559"><ele>49.66666666666667</ele><time>2026-04-30T13:35:30.865Z</time></trkpt><trkpt lat="38.4977121" lon="21.2751494"><ele>51.333333333333336</ele><time>2026-04-30T13:35:31.863Z</time></trkpt><trkpt lat="38.4975492" lon="21.2749552"><ele>53.0</ele><time>2026-04-30T13:35:32.864Z</time></trkpt><trkpt lat="38.4973792" lon="21.2747729"><ele>53.333333333333336</ele><time>2026-04-30T13:35:33.865Z</time></trkpt><trkpt lat="38.4972012" lon="21.2746001"><ele>53.66666666666667</ele><time>2026-04-30T13:35:34.862Z</time></trkpt><trkpt lat="38.4970165" lon="21.2744407"><ele>54.0</ele><time>2026-04-30T13:35:35.863Z</time></trkpt><trkpt lat="38.4968291" lon="21.2742959"><ele>54.0</ele><time>2026-04-30T13:35:36.865Z</time></trkpt><trkpt lat="38.4966328" lon="21.2741553"><ele>54.0</ele><time>2026-04-30T13:35:37.864Z</time></trkpt><trkpt lat="38.4964383" lon="21.274024"><ele>54.0</ele><time>2026-04-30T13:35:38.863Z</time></trkpt><trkpt lat="38.4962333" lon="21.2738912"><ele>56.5</ele><time>2026-04-30T13:35:39.864Z</time></trkpt><trkpt lat="38.496025" lon="21.2737578"><ele>59.0</ele><time>2026-04-30T13:35:40.862Z</time></trkpt><trkpt lat="38.495816" lon="21.2736257"><ele>59.0</ele><time>2026-04-30T13:35:41.864Z</time></trkpt><trkpt lat="38.4956057" lon="21.2734913"><ele>59.0</ele><time>2026-04-30T13:35:42.862Z</time></trkpt><trkpt lat="38.4953981" lon="21.273362"><ele>59.0</ele><time>2026-04-30T13:35:43.864Z</time></trkpt><trkpt lat="38.4951836" lon="21.2732275"><ele>59.0</ele><time>2026-04-30T13:35:44.864Z</time></trkpt><trkpt lat="38.49497" lon="21.2730909"><ele>59.0</ele><time>2026-04-30T13:35:45.864Z</time></trkpt><trkpt lat="38.494756" lon="21.2729566"><ele>59.0</ele><time>2026-04-30T13:35:46.862Z</time></trkpt><trkpt lat="38.4945421" lon="21.2728187"><ele>56.5</ele><time>2026-04-30T13:35:47.865Z</time></trkpt><trkpt lat="38.4943244" lon="21.2726785"><ele>54.0</ele><time>2026-04-30T13:35:48.867Z</time></trkpt><trkpt lat="38.494104" lon="21.2725374"><ele>54.0</ele><time>2026-04-30T13:35:49.864Z</time></trkpt><trkpt lat="38.4938865" lon="21.2723969"><ele>54.0</ele><time>2026-04-30T13:35:50.861Z</time></trkpt><trkpt lat="38.4936624" lon="21.2722516"><ele>49.5</ele><time>2026-04-30T13:35:51.864Z</time></trkpt><trkpt lat="38.4934379" lon="21.2721067"><ele>45.0</ele><time>2026-04-30T13:35:52.861Z</time></trkpt><trkpt lat="38.4932233" lon="21.2719683"><ele>45.0</ele><time>2026-04-30T13:35:53.864Z</time></trkpt><trkpt lat="38.4929959" lon="21.2718214"><ele>45.0</ele><time>2026-04-30T13:35:54.863Z</time></trkpt><trkpt lat="38.4927674" lon="21.2716745"><ele>46.5</ele><time>2026-04-30T13:35:55.862Z</time></trkpt><trkpt lat="38.4925416" lon="21.2715287"><ele>48.0</ele><time>2026-04-30T13:35:56.864Z</time></trkpt><trkpt lat="38.492317" lon="21.2713823"><ele>48.0</ele><time>2026-04-30T13:35:57.864Z</time></trkpt><trkpt lat="38.4920948" lon="21.2712353"><ele>48.0</ele><time>2026-04-30T13:35:58.862Z</time></trkpt><trkpt lat="38.4918758" lon="21.2710893"><ele>53.0</ele><time>2026-04-30T13:35:59.865Z</time></trkpt><trkpt lat="38.4916586" lon="21.2709492"><ele>58.0</ele><time>2026-04-30T13:36:00.867Z</time></trkpt><trkpt lat="38.491439" lon="21.2708032"><ele>52.0</ele><time>2026-04-30T13:36:01.864Z</time></trkpt><trkpt lat="38.4912206" lon="21.2706545"><ele>46.0</ele><time>2026-04-30T13:36:02.862Z</time></trkpt><trkpt lat="38.491004" lon="21.2705023"><ele>43.5</ele><time>2026-04-30T13:36:03.863Z</time></trkpt><trkpt lat="38.4907848" lon="21.2703474"><ele>41.0</ele><time>2026-04-30T13:36:04.867Z</time></trkpt><trkpt lat="38.4905713" lon="21.2701834"><ele>37.5</ele><time>2026-04-30T13:36:05.863Z</time></trkpt><trkpt lat="38.4903882" lon="21.2700142"><ele>34.0</ele><time>2026-04-30T13:36:06.864Z</time></trkpt><trkpt lat="38.4902006" lon="21.2698441"><ele>30.666666666666668</ele><time>2026-04-30T13:36:07.862Z</time></trkpt><trkpt lat="38.4900391" lon="21.2696748"><ele>27.333333333333336</ele><time>2026-04-30T13:36:08.866Z</time></trkpt><trkpt lat="38.489895" lon="21.2695241"><ele>24.0</ele><time>2026-04-30T13:36:09.867Z</time></trkpt><trkpt lat="38.4897605" lon="21.2693879"><ele>24.0</ele><time>2026-04-30T13:36:10.866Z</time></trkpt><trkpt lat="38.4896291" lon="21.2692854"><ele>24.0</ele><time>2026-04-30T13:36:11.863Z</time></trkpt><trkpt lat="38.4894967" lon="21.2692189"><ele>24.0</ele><time>2026-04-30T13:36:12.864Z</time></trkpt><trkpt lat="38.489355" lon="21.2691908"><ele>24.0</ele><time>2026-04-30T13:36:13.862Z</time></trkpt><trkpt lat="38.4892036" lon="21.2691935"><ele>24.0</ele><time>2026-04-30T13:36:14.864Z</time></trkpt><trkpt lat="38.4890375" lon="21.2692376"><ele>24.0</ele><time>2026-04-30T13:36:15.864Z</time></trkpt><trkpt lat="38.4888741" lon="21.2692968"><ele>24.0</ele><time>2026-04-30T13:36:16.865Z</time></trkpt><trkpt lat="38.4887082" lon="21.269361"><ele>24.0</ele><time>2026-04-30T13:36:17.863Z</time></trkpt><trkpt lat="38.4885323" lon="21.2694042"><ele>24.0</ele><time>2026-04-30T13:36:18.864Z</time></trkpt><trkpt lat="38.4883506" lon="21.2694271"><ele>24.0</ele><time>2026-04-30T13:36:19.865Z</time></trkpt><trkpt lat="38.488163" lon="21.2694244"><ele>24.0</ele><time>2026-04-30T13:36:20.865Z</time></trkpt><trkpt lat="38.487974" lon="21.2694018"><ele>24.0</ele><time>2026-04-30T13:36:21.865Z</time></trkpt><trkpt lat="38.4877846" lon="21.2693582"><ele>24.0</ele><time>2026-04-30T13:36:22.866Z</time></trkpt><trkpt lat="38.4875922" lon="21.2693058"><ele>22.666666666666668</ele><time>2026-04-30T13:36:23.863Z</time></trkpt><trkpt lat="38.4873946" lon="21.269256"><ele>21.333333333333336</ele><time>2026-04-30T13:36:24.865Z</time></trkpt><trkpt lat="38.4872022" lon="21.2692168"><ele>20.0</ele><time>2026-04-30T13:36:25.865Z</time></trkpt><trkpt lat="38.487011" lon="21.2691755"><ele>20.0</ele><time>2026-04-30T13:36:26.864Z</time></trkpt><trkpt lat="38.4868129" lon="21.2691373"><ele>20.0</ele><time>2026-04-30T13:36:27.864Z</time></trkpt><trkpt lat="38.486626" lon="21.2691251"><ele>20.0</ele><time>2026-04-30T13:36:28.864Z</time></trkpt><trkpt lat="38.486438" lon="21.2691465"><ele>20.333333333333336</ele><time>2026-04-30T13:36:29.866Z</time></trkpt><trkpt lat="38.4862508" lon="21.2692021"><ele>20.666666666666668</ele><time>2026-04-30T13:36:30.864Z</time></trkpt><trkpt lat="38.4860645" lon="21.2692785"><ele>21.0</ele><time>2026-04-30T13:36:31.865Z</time></trkpt><trkpt lat="38.4858825" lon="21.2693639"><ele>21.0</ele><time>2026-04-30T13:36:32.866Z</time></trkpt><trkpt lat="38.4857" lon="21.2694396"><ele>21.0</ele><time>2026-04-30T13:36:33.86Z</time></trkpt><trkpt lat="38.4855093" lon="21.269491"><ele>21.0</ele><time>2026-04-30T13:36:34.865Z</time></trkpt><trkpt lat="38.4853163" lon="21.2695118"><ele>18.666666666666668</ele><time>2026-04-30T13:36:35.865Z</time></trkpt><trkpt lat="38.4851205" lon="21.2695182"><ele>16.333333333333336</ele><time>2026-04-30T13:36:36.864Z</time></trkpt><trkpt lat="38.4849279" lon="21.2695235"><ele>14.0</ele><time>2026-04-30T13:36:37.861Z</time></trkpt><trkpt lat="38.4847441" lon="21.2695225"><ele>13.333333333333334</ele><time>2026-04-30T13:36:38.862Z</time></trkpt><trkpt lat="38.4845707" lon="21.2695234"><ele>12.666666666666668</ele><time>2026-04-30T13:36:39.865Z</time></trkpt><trkpt lat="38.484406" lon="21.2695272"><ele>12.0</ele><time>2026-04-30T13:36:40.864Z</time></trkpt><trkpt lat="38.4842494" lon="21.2695729"><ele>12.0</ele><time>2026-04-30T13:36:41.863Z</time></trkpt><trkpt lat="38.4840992" lon="21.2696642"><ele>12.0</ele><time>2026-04-30T13:36:42.865Z</time></trkpt><trkpt lat="38.4839604" lon="21.2697778"><ele>12.0</ele><time>2026-04-30T13:36:43.865Z</time></trkpt><trkpt lat="38.4838508" lon="21.2699303"><ele>13.666666666666668</ele><time>2026-04-30T13:36:44.865Z</time></trkpt><trkpt lat="38.4837581" lon="21.27011"><ele>15.333333333333334</ele><time>2026-04-30T13:36:45.865Z</time></trkpt><trkpt lat="38.483673" lon="21.2702886"><ele>17.0</ele><time>2026-04-30T13:36:46.864Z</time></trkpt><trkpt lat="38.4835861" lon="21.2704505"><ele>17.0</ele><time>2026-04-30T13:36:47.864Z</time></trkpt><trkpt lat="38.4834819" lon="21.2705949"><ele>17.0</ele><time>2026-04-30T13:36:48.865Z</time></trkpt><trkpt lat="38.4833596" lon="21.2707125"><ele>17.0</ele><time>2026-04-30T13:36:49.864Z</time></trkpt><trkpt lat="38.4832182" lon="21.2707821"><ele>18.666666666666668</ele><time>2026-04-30T13:36:50.865Z</time></trkpt><trkpt lat="38.4830763" lon="21.2708339"><ele>20.333333333333332</ele><time>2026-04-30T13:36:51.865Z</time></trkpt><trkpt lat="38.4829279" lon="21.2708073"><ele>22.0</ele><time>2026-04-30T13:36:52.865Z</time></trkpt><trkpt lat="38.4827811" lon="21.270756"><ele>18.666666666666664</ele><time>2026-04-30T13:36:53.865Z</time></trkpt><trkpt lat="38.4826456" lon="21.2706663"><ele>15.333333333333332</ele><time>2026-04-30T13:36:54.863Z</time></trkpt><trkpt lat="38.4825305" lon="21.2705433"><ele>12.0</ele><time>2026-04-30T13:36:55.864Z</time></trkpt><trkpt lat="38.482435" lon="21.2703886"><ele>11.333333333333334</ele><time>2026-04-30T13:36:56.865Z</time></trkpt><trkpt lat="38.4823665" lon="21.2702187"><ele>10.666666666666668</ele><time>2026-04-30T13:36:57.864Z</time></trkpt><trkpt lat="38.482325" lon="21.2700222"><ele>10.0</ele><time>2026-04-30T13:36:58.866Z</time></trkpt><trkpt lat="38.4823063" lon="21.2698082"><ele>11.666666666666668</ele><time>2026-04-30T13:36:59.865Z</time></trkpt><trkpt lat="38.4822907" lon="21.2695942"><ele>13.333333333333334</ele><time>2026-04-30T13:37:00.862Z</time></trkpt><trkpt lat="38.4822745" lon="21.2693745"><ele>15.0</ele><time>2026-04-30T13:37:01.863Z</time></trkpt><trkpt lat="38.4822579" lon="21.2691463"><ele>15.0</ele><time>2026-04-30T13:37:02.863Z</time></trkpt><trkpt lat="38.4822298" lon="21.2689133"><ele>15.0</ele><time>2026-04-30T13:37:03.867Z</time></trkpt><trkpt lat="38.4822172" lon="21.2686811"><ele>15.0</ele><time>2026-04-30T13:37:04.866Z</time></trkpt><trkpt lat="38.4821983" lon="21.2684674"><ele>15.0</ele><time>2026-04-30T13:37:05.864Z</time></trkpt><trkpt lat="38.4821719" lon="21.2682664"><ele>15.0</ele><time>2026-04-30T13:37:06.864Z</time></trkpt><trkpt lat="38.4821325" lon="21.2680826"><ele>15.0</ele><time>2026-04-30T13:37:07.866Z</time></trkpt><trkpt lat="38.4820672" lon="21.2679166"><ele>13.0</ele><time>2026-04-30T13:37:08.862Z</time></trkpt><trkpt lat="38.4819749" lon="21.2677707"><ele>11.0</ele><time>2026-04-30T13:37:09.864Z</time></trkpt><trkpt lat="38.4818601" lon="21.267655"><ele>9.0</ele><time>2026-04-30T13:37:10.861Z</time></trkpt><trkpt lat="38.4817186" lon="21.2675684"><ele>9.0</ele><time>2026-04-30T13:37:11.864Z</time></trkpt><trkpt lat="38.481563" lon="21.2674908"><ele>9.0</ele><time>2026-04-30T13:37:12.865Z</time></trkpt><trkpt lat="38.4813938" lon="21.2674194"><ele>9.0</ele><time>2026-04-30T13:37:13.864Z</time></trkpt><trkpt lat="38.4812219" lon="21.2673589"><ele>9.333333333333334</ele><time>2026-04-30T13:37:14.863Z</time></trkpt><trkpt lat="38.481056" lon="21.2672958"><ele>9.666666666666668</ele><time>2026-04-30T13:37:15.863Z</time></trkpt><trkpt lat="38.4808839" lon="21.2672229"><ele>10.0</ele><time>2026-04-30T13:37:16.861Z</time></trkpt><trkpt lat="38.4807091" lon="21.2671419"><ele>10.0</ele><time>2026-04-30T13:37:17.864Z</time></trkpt><trkpt lat="38.4805473" lon="21.267054"><ele>10.0</ele><time>2026-04-30T13:37:18.862Z</time></trkpt><trkpt lat="38.4803881" lon="21.2669492"><ele>10.0</ele><time>2026-04-30T13:37:19.865Z</time></trkpt><trkpt lat="38.4802256" lon="21.2668178"><ele>10.333333333333334</ele><time>2026-04-30T13:37:20.865Z</time></trkpt><trkpt lat="38.4800662" lon="21.2666706"><ele>10.666666666666666</ele><time>2026-04-30T13:37:21.866Z</time></trkpt><trkpt lat="38.4799101" lon="21.2665161"><ele>11.0</ele><time>2026-04-30T13:37:22.865Z</time></trkpt><trkpt lat="38.4797581" lon="21.2663578"><ele>10.333333333333332</ele><time>2026-04-30T13:37:23.865Z</time></trkpt><trkpt lat="38.4796114" lon="21.2662026"><ele>9.666666666666666</ele><time>2026-04-30T13:37:24.864Z</time></trkpt><trkpt lat="38.4794781" lon="21.2660574"><ele>9.0</ele><time>2026-04-30T13:37:25.863Z</time></trkpt><trkpt lat="38.4793595" lon="21.2659115"><ele>9.0</ele><time>2026-04-30T13:37:26.862Z</time></trkpt><trkpt lat="38.4792611" lon="21.2657628"><ele>9.0</ele><time>2026-04-30T13:37:27.861Z</time></trkpt><trkpt lat="38.4791754" lon="21.2655972"><ele>9.0</ele><time>2026-04-30T13:37:28.865Z</time></trkpt><trkpt lat="38.4790978" lon="21.2654177"><ele>9.333333333333334</ele><time>2026-04-30T13:37:29.866Z</time></trkpt><trkpt lat="38.4790217" lon="21.2652296"><ele>9.666666666666668</ele><time>2026-04-30T13:37:30.865Z</time></trkpt><trkpt lat="38.4789546" lon="21.2650457"><ele>10.0</ele><time>2026-04-30T13:37:31.865Z</time></trkpt><trkpt lat="38.4788876" lon="21.2648725"><ele>10.25</ele><time>2026-04-30T13:37:32.865Z</time></trkpt><trkpt lat="38.4788354" lon="21.2646974"><ele>10.5</ele><time>2026-04-30T13:37:33.863Z</time></trkpt><trkpt lat="38.4788022" lon="21.2645357"><ele>10.75</ele><time>2026-04-30T13:37:34.864Z</time></trkpt><trkpt lat="38.4787945" lon="21.2643683"><ele>11.0</ele><time>2026-04-30T13:37:35.861Z</time></trkpt><trkpt lat="38.4787911" lon="21.2641815"><ele>11.0</ele><time>2026-04-30T13:37:36.867Z</time></trkpt><trkpt lat="38.4787869" lon="21.2639891"><ele>11.0</ele><time>2026-04-30T13:37:37.866Z</time></trkpt><trkpt lat="38.4787914" lon="21.2637891"><ele>11.0</ele><time>2026-04-30T13:37:38.867Z</time></trkpt><trkpt lat="38.4788048" lon="21.2635903"><ele>10.25</ele><time>2026-04-30T13:37:39.865Z</time></trkpt><trkpt lat="38.478831" lon="21.2633918"><ele>9.5</ele><time>2026-04-30T13:37:40.867Z</time></trkpt><trkpt lat="38.4788727" lon="21.2632085"><ele>8.75</ele><time>2026-04-30T13:37:41.86Z</time></trkpt><trkpt lat="38.4789142" lon="21.2630441"><ele>8.0</ele><time>2026-04-30T13:37:42.865Z</time></trkpt><trkpt lat="38.4789515" lon="21.2628956"><ele>8.0</ele><time>2026-04-30T13:37:43.865Z</time></trkpt><trkpt lat="38.4789775" lon="21.2627464"><ele>8.0</ele><time>2026-04-30T13:37:44.864Z</time></trkpt><trkpt lat="38.479" lon="21.2626208"><ele>8.0</ele><time>2026-04-30T13:37:45.866Z</time></trkpt><trkpt lat="38.4790168" lon="21.2625129"><ele>8.0</ele><time>2026-04-30T13:37:46.864Z</time></trkpt><trkpt lat="38.4790287" lon="21.2624245"><ele>8.0</ele><time>2026-04-30T13:37:47.865Z</time></trkpt><trkpt lat="38.4789888" lon="21.2622899"><ele>8.428571428571429</ele><time>2026-04-30T13:37:49.86Z</time></trkpt><trkpt lat="38.478942" lon="21.2622284"><ele>8.857142857142856</ele><time>2026-04-30T13:37:51.867Z</time></trkpt><trkpt lat="38.4789713" lon="21.2621434"><ele>9.285714285714285</ele><time>2026-04-30T13:37:55.864Z</time></trkpt><trkpt lat="38.4790401" lon="21.2621093"><ele>9.714285714285714</ele><time>2026-04-30T13:37:57.866Z</time></trkpt><trkpt lat="38.4790455" lon="21.2620281"><ele>10.142857142857142</ele><time>2026-04-30T13:38:12.866Z</time></trkpt><trkpt lat="38.4791206" lon="21.2619711"><ele>10.571428571428571</ele><time>2026-04-30T13:38:15.866Z</time></trkpt><trkpt lat="38.4791888" lon="21.2619325"><ele>11.0</ele><time>2026-04-30T13:38:16.864Z</time></trkpt><trkpt lat="38.4792432" lon="21.2618851"><ele>11.0</ele><time>2026-04-30T13:38:17.863Z</time></trkpt><trkpt lat="38.4792954" lon="21.2618269"><ele>11.0</ele><time>2026-04-30T13:38:18.862Z</time></trkpt><trkpt lat="38.4793469" lon="21.261766"><ele>11.0</ele><time>2026-04-30T13:38:19.863Z</time></trkpt><trkpt lat="38.4794104" lon="21.2617045"><ele>11.0</ele><time>2026-04-30T13:38:20.864Z</time></trkpt><trkpt lat="38.4794753" lon="21.2616485"><ele>11.0</ele><time>2026-04-30T13:38:21.865Z</time></trkpt><trkpt lat="38.4795443" lon="21.2615774"><ele>11.0</ele><time>2026-04-30T13:38:22.863Z</time></trkpt><trkpt lat="38.4796088" lon="21.2615144"><ele>10.200000000000001</ele><time>2026-04-30T13:38:23.865Z</time></trkpt><trkpt lat="38.4796796" lon="21.2614484"><ele>9.4</ele><time>2026-04-30T13:38:24.864Z</time></trkpt><trkpt lat="38.4797543" lon="21.2613796"><ele>8.6</ele><time>2026-04-30T13:38:25.863Z</time></trkpt><trkpt lat="38.4798329" lon="21.2613196"><ele>7.8</ele><time>2026-04-30T13:38:26.864Z</time></trkpt><trkpt lat="38.4799079" lon="21.261253"><ele>7.0</ele><time>2026-04-30T13:38:27.865Z</time></trkpt><trkpt lat="38.4799949" lon="21.2612019"><ele>7.000000000000001</ele><time>2026-04-30T13:38:28.865Z</time></trkpt><trkpt lat="38.4800691" lon="21.2611413"><ele>7.0</ele><time>2026-04-30T13:38:29.862Z</time></trkpt><trkpt lat="38.4801434" lon="21.2610781"><ele>7.0</ele><time>2026-04-30T13:38:30.861Z</time></trkpt><trkpt lat="38.4802173" lon="21.2610215"><ele>7.0</ele><time>2026-04-30T13:38:31.864Z</time></trkpt><trkpt lat="38.480287" lon="21.2609645"><ele>7.000000000000001</ele><time>2026-04-30T13:38:32.863Z</time></trkpt><trkpt lat="38.4803588" lon="21.2609089"><ele>7.0</ele><time>2026-04-30T13:38:33.863Z</time></trkpt><trkpt lat="38.4804263" lon="21.2608534"><ele>6.833333333333334</ele><time>2026-04-30T13:38:34.863Z</time></trkpt><trkpt lat="38.4804942" lon="21.2607998"><ele>6.666666666666667</ele><time>2026-04-30T13:38:35.861Z</time></trkpt><trkpt lat="38.4805629" lon="21.2607428"><ele>6.5</ele><time>2026-04-30T13:38:36.864Z</time></trkpt><trkpt lat="38.4806305" lon="21.2606823"><ele>6.333333333333334</ele><time>2026-04-30T13:38:37.863Z</time></trkpt><trkpt lat="38.4807019" lon="21.2606257"><ele>6.166666666666667</ele><time>2026-04-30T13:38:38.863Z</time></trkpt><trkpt lat="38.4807709" lon="21.260569"><ele>6.0</ele><time>2026-04-30T13:38:39.864Z</time></trkpt><trkpt lat="38.480835" lon="21.2605068"><ele>6.0</ele><time>2026-04-30T13:38:40.862Z</time></trkpt><trkpt lat="38.4809073" lon="21.2604235"><ele>6.0</ele><time>2026-04-30T13:38:41.863Z</time></trkpt><trkpt lat="38.4809928" lon="21.2603481"><ele>6.0</ele><time>2026-04-30T13:38:42.861Z</time></trkpt><trkpt lat="38.48109" lon="21.2602657"><ele>6.0</ele><time>2026-04-30T13:38:43.864Z</time></trkpt><trkpt lat="38.4811847" lon="21.2601828"><ele>6.0</ele><time>2026-04-30T13:38:44.863Z</time></trkpt><trkpt lat="38.4812829" lon="21.2600931"><ele>6.5</ele><time>2026-04-30T13:38:45.861Z</time></trkpt><trkpt lat="38.481383" lon="21.2600014"><ele>7.0</ele><time>2026-04-30T13:38:46.863Z</time></trkpt><trkpt lat="38.4814896" lon="21.259915"><ele>7.5</ele><time>2026-04-30T13:38:47.865Z</time></trkpt><trkpt lat="38.481602" lon="21.2598231"><ele>8.0</ele><time>2026-04-30T13:38:48.863Z</time></trkpt><trkpt lat="38.4817116" lon="21.2597405"><ele>8.0</ele><time>2026-04-30T13:38:49.862Z</time></trkpt><trkpt lat="38.4818224" lon="21.2596662"><ele>8.0</ele><time>2026-04-30T13:38:50.864Z</time></trkpt><trkpt lat="38.4819323" lon="21.2595979"><ele>8.0</ele><time>2026-04-30T13:38:51.868Z</time></trkpt><trkpt lat="38.4820609" lon="21.2595476"><ele>8.0</ele><time>2026-04-30T13:38:52.864Z</time></trkpt><trkpt lat="38.4821967" lon="21.2595049"><ele>8.25</ele><time>2026-04-30T13:38:53.863Z</time></trkpt><trkpt lat="38.4823433" lon="21.2594707"><ele>8.5</ele><time>2026-04-30T13:38:54.862Z</time></trkpt><trkpt lat="38.4824899" lon="21.2594472"><ele>8.75</ele><time>2026-04-30T13:38:55.862Z</time></trkpt><trkpt lat="38.4826383" lon="21.2594197"><ele>9.0</ele><time>2026-04-30T13:38:56.865Z</time></trkpt><trkpt lat="38.4827692" lon="21.2593949"><ele>9.0</ele><time>2026-04-30T13:38:57.863Z</time></trkpt><trkpt lat="38.4828964" lon="21.2593633"><ele>9.0</ele><time>2026-04-30T13:38:58.864Z</time></trkpt><trkpt lat="38.4830192" lon="21.2593349"><ele>9.0</ele><time>2026-04-30T13:38:59.863Z</time></trkpt><trkpt lat="38.4831327" lon="21.2593112"><ele>9.0</ele><time>2026-04-30T13:39:00.863Z</time></trkpt><trkpt lat="38.4832451" lon="21.2592774"><ele>9.0</ele><time>2026-04-30T13:39:01.863Z</time></trkpt><trkpt lat="38.4833411" lon="21.2592486"><ele>9.0</ele><time>2026-04-30T13:39:02.861Z</time></trkpt><trkpt lat="38.4834273" lon="21.259217"><ele>9.0</ele><time>2026-04-30T13:39:03.863Z</time></trkpt><trkpt lat="38.4834941" lon="21.2591588"><ele>9.0</ele><time>2026-04-30T13:39:04.865Z</time></trkpt><trkpt lat="38.4835303" lon="21.2590683"><ele>9.0</ele><time>2026-04-30T13:39:05.862Z</time></trkpt><trkpt lat="38.483536" lon="21.2589534"><ele>9.0</ele><time>2026-04-30T13:39:06.865Z</time></trkpt><trkpt lat="38.483512" lon="21.258829"><ele>9.0</ele><time>2026-04-30T13:39:07.86Z</time></trkpt><trkpt lat="38.4834738" lon="21.2586862"><ele>9.0</ele><time>2026-04-30T13:39:08.864Z</time></trkpt><trkpt lat="38.4834255" lon="21.2585343"><ele>9.0</ele><time>2026-04-30T13:39:09.863Z</time></trkpt><trkpt lat="38.4833728" lon="21.258376"><ele>9.0</ele><time>2026-04-30T13:39:10.862Z</time></trkpt><trkpt lat="38.4833143" lon="21.2582046"><ele>9.0</ele><time>2026-04-30T13:39:11.861Z</time></trkpt><trkpt lat="38.4832489" lon="21.258019"><ele>9.0</ele><time>2026-04-30T13:39:12.863Z</time></trkpt><trkpt lat="38.483184" lon="21.2578332"><ele>9.0</ele><time>2026-04-30T13:39:13.863Z</time></trkpt><trkpt lat="38.483116" lon="21.2576382"><ele>9.0</ele><time>2026-04-30T13:39:14.863Z</time></trkpt><trkpt lat="38.4830498" lon="21.2574343"><ele>9.0</ele><time>2026-04-30T13:39:15.864Z</time></trkpt><trkpt lat="38.4829883" lon="21.2572329"><ele>9.0</ele><time>2026-04-30T13:39:16.864Z</time></trkpt><trkpt lat="38.4829189" lon="21.2570326"><ele>9.0</ele><time>2026-04-30T13:39:17.867Z</time></trkpt><trkpt lat="38.4828546" lon="21.256831"><ele>9.0</ele><time>2026-04-30T13:39:18.863Z</time></trkpt><trkpt lat="38.4827905" lon="21.2566319"><ele>9.0</ele><time>2026-04-30T13:39:19.862Z</time></trkpt><trkpt lat="38.4827258" lon="21.2564174"><ele>9.0</ele><time>2026-04-30T13:39:20.864Z</time></trkpt><trkpt lat="38.4826578" lon="21.2562074"><ele>9.0</ele><time>2026-04-30T13:39:21.861Z</time></trkpt><trkpt lat="38.4825879" lon="21.2559943"><ele>9.0</ele><time>2026-04-30T13:39:22.861Z</time></trkpt><trkpt lat="38.4825203" lon="21.2557837"><ele>8.666666666666666</ele><time>2026-04-30T13:39:23.865Z</time></trkpt><trkpt lat="38.4824488" lon="21.25557"><ele>8.333333333333332</ele><time>2026-04-30T13:39:24.864Z</time></trkpt><trkpt lat="38.4823784" lon="21.2553526"><ele>8.0</ele><time>2026-04-30T13:39:25.861Z</time></trkpt><trkpt lat="38.482308" lon="21.2551381"><ele>8.0</ele><time>2026-04-30T13:39:26.859Z</time></trkpt><trkpt lat="38.4822333" lon="21.2549266"><ele>8.0</ele><time>2026-04-30T13:39:27.862Z</time></trkpt><trkpt lat="38.4821637" lon="21.2547123"><ele>8.0</ele><time>2026-04-30T13:39:28.862Z</time></trkpt><trkpt lat="38.4820959" lon="21.2544952"><ele>8.0</ele><time>2026-04-30T13:39:29.864Z</time></trkpt><trkpt lat="38.4820267" lon="21.2542815"><ele>8.0</ele><time>2026-04-30T13:39:30.863Z</time></trkpt><trkpt lat="38.4819599" lon="21.2540678"><ele>8.0</ele><time>2026-04-30T13:39:31.861Z</time></trkpt><trkpt lat="38.4818862" lon="21.2538623"><ele>8.0</ele><time>2026-04-30T13:39:32.863Z</time></trkpt><trkpt lat="38.4818115" lon="21.2536552"><ele>8.0</ele><time>2026-04-30T13:39:33.861Z</time></trkpt><trkpt lat="38.4817484" lon="21.2534473"><ele>8.0</ele><time>2026-04-30T13:39:34.861Z</time></trkpt><trkpt lat="38.4816809" lon="21.2532338"><ele>8.0</ele><time>2026-04-30T13:39:35.862Z</time></trkpt><trkpt lat="38.4816058" lon="21.2530163"><ele>8.0</ele><time>2026-04-30T13:39:36.865Z</time></trkpt><trkpt lat="38.4815315" lon="21.2527975"><ele>8.0</ele><time>2026-04-30T13:39:37.862Z</time></trkpt><trkpt lat="38.4814615" lon="21.2525799"><ele>8.0</ele><time>2026-04-30T13:39:38.862Z</time></trkpt><trkpt lat="38.4813878" lon="21.2523583"><ele>8.0</ele><time>2026-04-30T13:39:39.863Z</time></trkpt><trkpt lat="38.4813223" lon="21.252142"><ele>8.0</ele><time>2026-04-30T13:39:40.866Z</time></trkpt><trkpt lat="38.4812545" lon="21.2519492"><ele>8.0</ele><time>2026-04-30T13:39:41.863Z</time></trkpt><trkpt lat="38.4812079" lon="21.2517734"><ele>8.0</ele><time>2026-04-30T13:39:42.863Z</time></trkpt><trkpt lat="38.4811718" lon="21.2516266"><ele>8.0</ele><time>2026-04-30T13:39:43.862Z</time></trkpt><trkpt lat="38.4811469" lon="21.2515009"><ele>8.0</ele><time>2026-04-30T13:39:44.861Z</time></trkpt><trkpt lat="38.4811337" lon="21.2514095"><ele>8.0</ele><time>2026-04-30T13:39:45.86Z</time></trkpt><trkpt lat="38.4811184" lon="21.2513153"><ele>8.25</ele><time>2026-04-30T13:39:47.862Z</time></trkpt><trkpt lat="38.4810337" lon="21.2512271"><ele>8.5</ele><time>2026-04-30T13:39:50.867Z</time></trkpt><trkpt lat="38.4808834" lon="21.2511973"><ele>8.75</ele><time>2026-04-30T13:39:52.863Z</time></trkpt><trkpt lat="38.4807895" lon="21.2511964"><ele>9.0</ele><time>2026-04-30T13:39:53.861Z</time></trkpt><trkpt lat="38.4806818" lon="21.2512085"><ele>9.0</ele><time>2026-04-30T13:39:54.863Z</time></trkpt><trkpt lat="38.4805669" lon="21.2512077"><ele>9.0</ele><time>2026-04-30T13:39:55.862Z</time></trkpt><trkpt lat="38.4804467" lon="21.2512005"><ele>9.0</ele><time>2026-04-30T13:39:56.86Z</time></trkpt><trkpt lat="38.480318" lon="21.2511996"><ele>9.0</ele><time>2026-04-30T13:39:57.861Z</time></trkpt><trkpt lat="38.480182" lon="21.2511965"><ele>8.666666666666666</ele><time>2026-04-30T13:39:58.864Z</time></trkpt><trkpt lat="38.4800316" lon="21.2511923"><ele>8.333333333333332</ele><time>2026-04-30T13:39:59.862Z</time></trkpt><trkpt lat="38.4798769" lon="21.2511772"><ele>8.0</ele><time>2026-04-30T13:40:00.863Z</time></trkpt><trkpt lat="38.4797281" lon="21.2511581"><ele>8.0</ele><time>2026-04-30T13:40:01.86Z</time></trkpt><trkpt lat="38.4795752" lon="21.2511269"><ele>8.0</ele><time>2026-04-30T13:40:02.863Z</time></trkpt><trkpt lat="38.4794155" lon="21.2510867"><ele>8.0</ele><time>2026-04-30T13:40:03.866Z</time></trkpt><trkpt lat="38.4792508" lon="21.2510364"><ele>8.0</ele><time>2026-04-30T13:40:04.865Z</time></trkpt><trkpt lat="38.4790801" lon="21.2509839"><ele>8.0</ele><time>2026-04-30T13:40:05.865Z</time></trkpt><trkpt lat="38.4789087" lon="21.2509189"><ele>8.0</ele><time>2026-04-30T13:40:06.862Z</time></trkpt><trkpt lat="38.4787374" lon="21.2508474"><ele>8.0</ele><time>2026-04-30T13:40:07.86Z</time></trkpt><trkpt lat="38.4785693" lon="21.2507709"><ele>8.0</ele><time>2026-04-30T13:40:08.86Z</time></trkpt><trkpt lat="38.478407" lon="21.2506742"><ele>8.0</ele><time>2026-04-30T13:40:09.861Z</time></trkpt><trkpt lat="38.4782495" lon="21.2505633"><ele>7.666666666666666</ele><time>2026-04-30T13:40:10.862Z</time></trkpt><trkpt lat="38.4780826" lon="21.2504518"><ele>7.333333333333334</ele><time>2026-04-30T13:40:11.864Z</time></trkpt><trkpt lat="38.4779139" lon="21.2503333"><ele>7.0</ele><time>2026-04-30T13:40:12.864Z</time></trkpt><trkpt lat="38.4777463" lon="21.2502162"><ele>7.666666666666667</ele><time>2026-04-30T13:40:13.864Z</time></trkpt><trkpt lat="38.4775811" lon="21.2500981"><ele>8.333333333333334</ele><time>2026-04-30T13:40:14.86Z</time></trkpt><trkpt lat="38.4774172" lon="21.249977"><ele>9.0</ele><time>2026-04-30T13:40:15.863Z</time></trkpt><trkpt lat="38.4772522" lon="21.2498498"><ele>9.0</ele><time>2026-04-30T13:40:16.862Z</time></trkpt><trkpt lat="38.4770866" lon="21.2497218"><ele>9.0</ele><time>2026-04-30T13:40:17.863Z</time></trkpt><trkpt lat="38.4769242" lon="21.2495864"><ele>9.0</ele><time>2026-04-30T13:40:18.864Z</time></trkpt><trkpt lat="38.4767669" lon="21.2494472"><ele>9.0</ele><time>2026-04-30T13:40:19.863Z</time></trkpt><trkpt lat="38.476608" lon="21.2493031"><ele>9.0</ele><time>2026-04-30T13:40:20.864Z</time></trkpt><trkpt lat="38.4764564" lon="21.2491628"><ele>9.0</ele><time>2026-04-30T13:40:21.861Z</time></trkpt><trkpt lat="38.4763031" lon="21.2490103"><ele>8.0</ele><time>2026-04-30T13:40:22.864Z</time></trkpt><trkpt lat="38.4761516" lon="21.2488522"><ele>7.0</ele><time>2026-04-30T13:40:23.864Z</time></trkpt><trkpt lat="38.476004" lon="21.2486865"><ele>6.0</ele><time>2026-04-30T13:40:24.865Z</time></trkpt><trkpt lat="38.475861" lon="21.248515"><ele>6.0</ele><time>2026-04-30T13:40:25.862Z</time></trkpt><trkpt lat="38.4757105" lon="21.2483332"><ele>6.0</ele><time>2026-04-30T13:40:26.866Z</time></trkpt><trkpt lat="38.4755606" lon="21.2481522"><ele>6.0</ele><time>2026-04-30T13:40:27.862Z</time></trkpt><trkpt lat="38.475412" lon="21.2479703"><ele>6.666666666666666</ele><time>2026-04-30T13:40:28.863Z</time></trkpt><trkpt lat="38.4752585" lon="21.247773"><ele>7.333333333333333</ele><time>2026-04-30T13:40:29.863Z</time></trkpt><trkpt lat="38.4750938" lon="21.2475706"><ele>8.0</ele><time>2026-04-30T13:40:30.861Z</time></trkpt><trkpt lat="38.4749288" lon="21.2473835"><ele>7.666666666666666</ele><time>2026-04-30T13:40:31.862Z</time></trkpt><trkpt lat="38.4747654" lon="21.2471912"><ele>7.333333333333334</ele><time>2026-04-30T13:40:32.864Z</time></trkpt><trkpt lat="38.4745987" lon="21.2469941"><ele>7.0</ele><time>2026-04-30T13:40:33.866Z</time></trkpt><trkpt lat="38.4744244" lon="21.246792"><ele>7.0</ele><time>2026-04-30T13:40:34.864Z</time></trkpt><trkpt lat="38.4742515" lon="21.2465846"><ele>7.0</ele><time>2026-04-30T13:40:35.862Z</time></trkpt><trkpt lat="38.4740752" lon="21.246375"><ele>7.0</ele><time>2026-04-30T13:40:36.863Z</time></trkpt><trkpt lat="38.4738961" lon="21.2461657"><ele>7.0</ele><time>2026-04-30T13:40:37.862Z</time></trkpt><trkpt lat="38.4737177" lon="21.245956"><ele>7.0</ele><time>2026-04-30T13:40:38.864Z</time></trkpt><trkpt lat="38.4735386" lon="21.2457418"><ele>7.0</ele><time>2026-04-30T13:40:39.864Z</time></trkpt><trkpt lat="38.4733615" lon="21.2455238"><ele>7.0</ele><time>2026-04-30T13:40:40.864Z</time></trkpt><trkpt lat="38.4731835" lon="21.2453065"><ele>7.0</ele><time>2026-04-30T13:40:41.861Z</time></trkpt><trkpt lat="38.4730048" lon="21.2450914"><ele>7.0</ele><time>2026-04-30T13:40:42.863Z</time></trkpt><trkpt lat="38.4728252" lon="21.2448821"><ele>7.0</ele><time>2026-04-30T13:40:43.863Z</time></trkpt><trkpt lat="38.4726479" lon="21.2446656"><ele>7.0</ele><time>2026-04-30T13:40:44.864Z</time></trkpt><trkpt lat="38.4724671" lon="21.2444407"><ele>7.0</ele><time>2026-04-30T13:40:45.862Z</time></trkpt><trkpt lat="38.4722837" lon="21.2442228"><ele>7.0</ele><time>2026-04-30T13:40:46.861Z</time></trkpt><trkpt lat="38.4721086" lon="21.2440007"><ele>7.0</ele><time>2026-04-30T13:40:47.863Z</time></trkpt><trkpt lat="38.4719277" lon="21.2437767"><ele>7.5</ele><time>2026-04-30T13:40:48.863Z</time></trkpt><trkpt lat="38.4717464" lon="21.2435574"><ele>8.0</ele><time>2026-04-30T13:40:49.864Z</time></trkpt><trkpt lat="38.4715667" lon="21.2433407"><ele>7.0</ele><time>2026-04-30T13:40:50.863Z</time></trkpt><trkpt lat="38.471374" lon="21.2431212"><ele>6.0</ele><time>2026-04-30T13:40:51.861Z</time></trkpt><trkpt lat="38.4712033" lon="21.2429066"><ele>6.0</ele><time>2026-04-30T13:40:52.862Z</time></trkpt><trkpt lat="38.4710043" lon="21.2426765"><ele>6.0</ele><time>2026-04-30T13:40:53.862Z</time></trkpt><trkpt lat="38.4708332" lon="21.2424466"><ele>6.5</ele><time>2026-04-30T13:40:54.861Z</time></trkpt><trkpt lat="38.4706532" lon="21.2422275"><ele>7.0</ele><time>2026-04-30T13:40:55.861Z</time></trkpt><trkpt lat="38.4704719" lon="21.2420142"><ele>6.5</ele><time>2026-04-30T13:40:56.862Z</time></trkpt><trkpt lat="38.470292" lon="21.2418032"><ele>6.0</ele><time>2026-04-30T13:40:57.863Z</time></trkpt><trkpt lat="38.4701178" lon="21.2415995"><ele>6.0</ele><time>2026-04-30T13:40:58.865Z</time></trkpt><trkpt lat="38.4699437" lon="21.2413913"><ele>6.0</ele><time>2026-04-30T13:40:59.861Z</time></trkpt><trkpt lat="38.4697786" lon="21.2411885"><ele>7.0</ele><time>2026-04-30T13:41:00.862Z</time></trkpt><trkpt lat="38.4696063" lon="21.2409909"><ele>8.0</ele><time>2026-04-30T13:41:01.86Z</time></trkpt><trkpt lat="38.4694418" lon="21.240801"><ele>7.0</ele><time>2026-04-30T13:41:02.864Z</time></trkpt><trkpt lat="38.4692749" lon="21.2406137"><ele>6.0</ele><time>2026-04-30T13:41:03.863Z</time></trkpt><trkpt lat="38.469102" lon="21.2404398"><ele>5.0</ele><time>2026-04-30T13:41:04.864Z</time></trkpt><trkpt lat="38.4689256" lon="21.2402674"><ele>5.0</ele><time>2026-04-30T13:41:05.863Z</time></trkpt><trkpt lat="38.4687468" lon="21.2401014"><ele>5.0</ele><time>2026-04-30T13:41:06.859Z</time></trkpt><trkpt lat="38.4685697" lon="21.2399428"><ele>5.0</ele><time>2026-04-30T13:41:07.863Z</time></trkpt><trkpt lat="38.4683878" lon="21.239801"><ele>4.666666666666667</ele><time>2026-04-30T13:41:08.864Z</time></trkpt><trkpt lat="38.4682011" lon="21.2396588"><ele>4.333333333333333</ele><time>2026-04-30T13:41:09.864Z</time></trkpt><trkpt lat="38.468013" lon="21.2395241"><ele>4.0</ele><time>2026-04-30T13:41:10.86Z</time></trkpt><trkpt lat="38.4678192" lon="21.2394014"><ele>4.666666666666666</ele><time>2026-04-30T13:41:11.863Z</time></trkpt><trkpt lat="38.4676203" lon="21.2392987"><ele>5.333333333333333</ele><time>2026-04-30T13:41:12.863Z</time></trkpt><trkpt lat="38.4674151" lon="21.2392006"><ele>6.0</ele><time>2026-04-30T13:41:13.864Z</time></trkpt><trkpt lat="38.4672063" lon="21.2391131"><ele>6.333333333333334</ele><time>2026-04-30T13:41:14.862Z</time></trkpt><trkpt lat="38.4669934" lon="21.2390306"><ele>6.666666666666667</ele><time>2026-04-30T13:41:15.862Z</time></trkpt><trkpt lat="38.4667832" lon="21.2389441"><ele>7.0</ele><time>2026-04-30T13:41:16.864Z</time></trkpt><trkpt lat="38.4665847" lon="21.238873"><ele>7.0</ele><time>2026-04-30T13:41:17.862Z</time></trkpt><trkpt lat="38.4663752" lon="21.2388106"><ele>7.0</ele><time>2026-04-30T13:41:18.863Z</time></trkpt><trkpt lat="38.4661605" lon="21.2387628"><ele>7.0</ele><time>2026-04-30T13:41:19.863Z</time></trkpt><trkpt lat="38.4659392" lon="21.2387231"><ele>7.0</ele><time>2026-04-30T13:41:20.864Z</time></trkpt><trkpt lat="38.4657171" lon="21.2386913"><ele>7.0</ele><time>2026-04-30T13:41:21.862Z</time></trkpt><trkpt lat="38.4654864" lon="21.2386663"><ele>7.5</ele><time>2026-04-30T13:41:22.861Z</time></trkpt><trkpt lat="38.4652609" lon="21.2386535"><ele>8.0</ele><time>2026-04-30T13:41:23.864Z</time></trkpt><trkpt lat="38.4650369" lon="21.2386598"><ele>8.0</ele><time>2026-04-30T13:41:24.864Z</time></trkpt><trkpt lat="38.464811" lon="21.2386706"><ele>8.0</ele><time>2026-04-30T13:41:25.862Z</time></trkpt><trkpt lat="38.4645835" lon="21.2386921"><ele>7.5</ele><time>2026-04-30T13:41:26.859Z</time></trkpt><trkpt lat="38.4643587" lon="21.2387219"><ele>7.0</ele><time>2026-04-30T13:41:27.863Z</time></trkpt><trkpt lat="38.4641257" lon="21.2387487"><ele>7.0</ele><time>2026-04-30T13:41:28.863Z</time></trkpt><trkpt lat="38.4639006" lon="21.2387862"><ele>7.0</ele><time>2026-04-30T13:41:29.863Z</time></trkpt><trkpt lat="38.4636689" lon="21.2388335"><ele>6.5</ele><time>2026-04-30T13:41:30.863Z</time></trkpt><trkpt lat="38.4634425" lon="21.2388812"><ele>6.0</ele><time>2026-04-30T13:41:31.864Z</time></trkpt><trkpt lat="38.4632127" lon="21.2389328"><ele>6.5</ele><time>2026-04-30T13:41:32.863Z</time></trkpt><trkpt lat="38.4629842" lon="21.2389793"><ele>7.0</ele><time>2026-04-30T13:41:33.861Z</time></trkpt><trkpt lat="38.4627572" lon="21.2390353"><ele>7.0</ele><time>2026-04-30T13:41:34.861Z</time></trkpt><trkpt lat="38.4625366" lon="21.2390851"><ele>7.0</ele><time>2026-04-30T13:41:35.863Z</time></trkpt><trkpt lat="38.4623289" lon="21.2391249"><ele>7.0</ele><time>2026-04-30T13:41:36.862Z</time></trkpt><trkpt lat="38.4621295" lon="21.2391629"><ele>6.333333333333334</ele><time>2026-04-30T13:41:37.864Z</time></trkpt><trkpt lat="38.4619358" lon="21.2391985"><ele>5.666666666666667</ele><time>2026-04-30T13:41:38.862Z</time></trkpt><trkpt lat="38.4617666" lon="21.2392289"><ele>5.0</ele><time>2026-04-30T13:41:39.863Z</time></trkpt><trkpt lat="38.4615877" lon="21.239235"><ele>5.0</ele><time>2026-04-30T13:41:40.865Z</time></trkpt><trkpt lat="38.4614106" lon="21.2392074"><ele>5.0</ele><time>2026-04-30T13:41:41.862Z</time></trkpt><trkpt lat="38.4612289" lon="21.2391695"><ele>5.0</ele><time>2026-04-30T13:41:42.864Z</time></trkpt><trkpt lat="38.4610387" lon="21.2391116"><ele>5.333333333333334</ele><time>2026-04-30T13:41:43.861Z</time></trkpt><trkpt lat="38.460849" lon="21.2390487"><ele>5.666666666666667</ele><time>2026-04-30T13:41:44.864Z</time></trkpt><trkpt lat="38.4606597" lon="21.2389765"><ele>6.0</ele><time>2026-04-30T13:41:45.862Z</time></trkpt><trkpt lat="38.4604823" lon="21.2388946"><ele>6.333333333333334</ele><time>2026-04-30T13:41:46.863Z</time></trkpt><trkpt lat="38.460317" lon="21.2388139"><ele>6.666666666666667</ele><time>2026-04-30T13:41:47.865Z</time></trkpt><trkpt lat="38.4601721" lon="21.2387173"><ele>7.0</ele><time>2026-04-30T13:41:48.863Z</time></trkpt><trkpt lat="38.4600216" lon="21.2385904"><ele>7.0</ele><time>2026-04-30T13:41:49.864Z</time></trkpt><trkpt lat="38.459873" lon="21.2384269"><ele>7.0</ele><time>2026-04-30T13:41:50.868Z</time></trkpt><trkpt lat="38.4597148" lon="21.2382482"><ele>7.0</ele><time>2026-04-30T13:41:51.861Z</time></trkpt><trkpt lat="38.4595439" lon="21.2380635"><ele>6.0</ele><time>2026-04-30T13:41:52.863Z</time></trkpt><trkpt lat="38.4593701" lon="21.2378838"><ele>5.0</ele><time>2026-04-30T13:41:53.864Z</time></trkpt><trkpt lat="38.4591932" lon="21.2376977"><ele>5.0</ele><time>2026-04-30T13:41:54.865Z</time></trkpt><trkpt lat="38.4590106" lon="21.2375042"><ele>5.0</ele><time>2026-04-30T13:41:55.861Z</time></trkpt><trkpt lat="38.4588272" lon="21.2373092"><ele>5.5</ele><time>2026-04-30T13:41:56.863Z</time></trkpt><trkpt lat="38.4586466" lon="21.237114"><ele>6.0</ele><time>2026-04-30T13:41:57.86Z</time></trkpt><trkpt lat="38.4584717" lon="21.2369141"><ele>6.0</ele><time>2026-04-30T13:41:58.861Z</time></trkpt><trkpt lat="38.4582926" lon="21.2367001"><ele>6.0</ele><time>2026-04-30T13:41:59.863Z</time></trkpt><trkpt lat="38.4581261" lon="21.2364997"><ele>6.0</ele><time>2026-04-30T13:42:00.861Z</time></trkpt><trkpt lat="38.4579653" lon="21.2363088"><ele>6.0</ele><time>2026-04-30T13:42:01.862Z</time></trkpt><trkpt lat="38.457817" lon="21.2361284"><ele>6.0</ele><time>2026-04-30T13:42:02.862Z</time></trkpt><trkpt lat="38.4576853" lon="21.2359513"><ele>6.0</ele><time>2026-04-30T13:42:03.865Z</time></trkpt><trkpt lat="38.457566" lon="21.2357812"><ele>6.0</ele><time>2026-04-30T13:42:04.866Z</time></trkpt><trkpt lat="38.4574639" lon="21.2356053"><ele>6.0</ele><time>2026-04-30T13:42:05.865Z</time></trkpt><trkpt lat="38.4573817" lon="21.2354041"><ele>5.666666666666667</ele><time>2026-04-30T13:42:06.861Z</time></trkpt><trkpt lat="38.4573031" lon="21.2351971"><ele>5.333333333333334</ele><time>2026-04-30T13:42:07.864Z</time></trkpt><trkpt lat="38.4572281" lon="21.2349896"><ele>5.0</ele><time>2026-04-30T13:42:08.861Z</time></trkpt><trkpt lat="38.4571468" lon="21.2347727"><ele>5.0</ele><time>2026-04-30T13:42:09.864Z</time></trkpt><trkpt lat="38.4570686" lon="21.2345677"><ele>5.0</ele><time>2026-04-30T13:42:10.862Z</time></trkpt><trkpt lat="38.456983" lon="21.2343622"><ele>5.0</ele><time>2026-04-30T13:42:11.864Z</time></trkpt><trkpt lat="38.4568976" lon="21.2341531"><ele>5.0</ele><time>2026-04-30T13:42:12.867Z</time></trkpt><trkpt lat="38.4568166" lon="21.2339509"><ele>5.0</ele><time>2026-04-30T13:42:13.863Z</time></trkpt><trkpt lat="38.4567418" lon="21.2337614"><ele>5.0</ele><time>2026-04-30T13:42:14.862Z</time></trkpt><trkpt lat="38.4566707" lon="21.2335885"><ele>5.0</ele><time>2026-04-30T13:42:15.862Z</time></trkpt><trkpt lat="38.4566142" lon="21.2334465"><ele>5.0</ele><time>2026-04-30T13:42:16.865Z</time></trkpt><trkpt lat="38.4565669" lon="21.2333223"><ele>5.0</ele><time>2026-04-30T13:42:17.86Z</time></trkpt><trkpt lat="38.4565424" lon="21.2332197"><ele>5.0</ele><time>2026-04-30T13:42:18.863Z</time></trkpt><trkpt lat="38.4565324" lon="21.2331231"><ele>5.0</ele><time>2026-04-30T13:42:19.86Z</time></trkpt><trkpt lat="38.4565753" lon="21.2330513"><ele>5.0</ele><time>2026-04-30T13:42:20.866Z</time></trkpt><trkpt lat="38.456646" lon="21.2329918"><ele>5.0</ele><time>2026-04-30T13:42:21.859Z</time></trkpt><trkpt lat="38.4567474" lon="21.2329454"><ele>5.0</ele><time>2026-04-30T13:42:22.863Z</time></trkpt><trkpt lat="38.4568742" lon="21.232899"><ele>5.0</ele><time>2026-04-30T13:42:23.861Z</time></trkpt><trkpt lat="38.4570174" lon="21.2328505"><ele>5.666666666666667</ele><time>2026-04-30T13:42:24.863Z</time></trkpt><trkpt lat="38.4571661" lon="21.2327825"><ele>6.333333333333334</ele><time>2026-04-30T13:42:25.862Z</time></trkpt><trkpt lat="38.4573295" lon="21.2327103"><ele>7.0</ele><time>2026-04-30T13:42:26.861Z</time></trkpt><trkpt lat="38.4575054" lon="21.2326548"><ele>7.0</ele><time>2026-04-30T13:42:27.862Z</time></trkpt><trkpt lat="38.4576919" lon="21.2325689"><ele>7.0</ele><time>2026-04-30T13:42:28.863Z</time></trkpt><trkpt lat="38.4578741" lon="21.2324991"><ele>7.0</ele><time>2026-04-30T13:42:29.863Z</time></trkpt><trkpt lat="38.458058" lon="21.2324185"><ele>7.0</ele><time>2026-04-30T13:42:30.864Z</time></trkpt><trkpt lat="38.4582404" lon="21.2323386"><ele>7.0</ele><time>2026-04-30T13:42:31.864Z</time></trkpt><trkpt lat="38.458431" lon="21.2322645"><ele>7.0</ele><time>2026-04-30T13:42:32.865Z</time></trkpt><trkpt lat="38.4586328" lon="21.2321776"><ele>6.666666666666667</ele><time>2026-04-30T13:42:33.865Z</time></trkpt><trkpt lat="38.4588386" lon="21.2320915"><ele>6.333333333333334</ele><time>2026-04-30T13:42:34.866Z</time></trkpt><trkpt lat="38.4590405" lon="21.2320084"><ele>6.0</ele><time>2026-04-30T13:42:35.864Z</time></trkpt><trkpt lat="38.4592497" lon="21.2319222"><ele>6.0</ele><time>2026-04-30T13:42:36.86Z</time></trkpt><trkpt lat="38.4594616" lon="21.2318333"><ele>6.0</ele><time>2026-04-30T13:42:37.862Z</time></trkpt><trkpt lat="38.4596733" lon="21.2317437"><ele>6.0</ele><time>2026-04-30T13:42:38.86Z</time></trkpt><trkpt lat="38.4598884" lon="21.2316565"><ele>6.0</ele><time>2026-04-30T13:42:39.863Z</time></trkpt><trkpt lat="38.4601035" lon="21.2315672"><ele>6.0</ele><time>2026-04-30T13:42:40.863Z</time></trkpt><trkpt lat="38.4603286" lon="21.2314681"><ele>5.0</ele><time>2026-04-30T13:42:41.864Z</time></trkpt><trkpt lat="38.4605509" lon="21.2313703"><ele>4.0</ele><time>2026-04-30T13:42:42.861Z</time></trkpt><trkpt lat="38.460766" lon="21.2312777"><ele>4.0</ele><time>2026-04-30T13:42:43.862Z</time></trkpt><trkpt lat="38.4609782" lon="21.2311801"><ele>4.0</ele><time>2026-04-30T13:42:44.862Z</time></trkpt><trkpt lat="38.4611921" lon="21.2310837"><ele>4.0</ele><time>2026-04-30T13:42:45.862Z</time></trkpt><trkpt lat="38.4614039" lon="21.2309877"><ele>4.0</ele><time>2026-04-30T13:42:46.861Z</time></trkpt><trkpt lat="38.4616174" lon="21.2308931"><ele>4.0</ele><time>2026-04-30T13:42:47.861Z</time></trkpt><trkpt lat="38.4618287" lon="21.2308016"><ele>4.0</ele><time>2026-04-30T13:42:48.862Z</time></trkpt><trkpt lat="38.4620406" lon="21.230709"><ele>4.0</ele><time>2026-04-30T13:42:49.862Z</time></trkpt><trkpt lat="38.4622523" lon="21.2306196"><ele>4.0</ele><time>2026-04-30T13:42:50.863Z</time></trkpt><trkpt lat="38.4624706" lon="21.2305221"><ele>4.0</ele><time>2026-04-30T13:42:51.862Z</time></trkpt><trkpt lat="38.4626834" lon="21.2304272"><ele>4.0</ele><time>2026-04-30T13:42:52.861Z</time></trkpt><trkpt lat="38.462904" lon="21.2303397"><ele>4.0</ele><time>2026-04-30T13:42:53.862Z</time></trkpt><trkpt lat="38.4631218" lon="21.2302471"><ele>3.0</ele><time>2026-04-30T13:42:54.86Z</time></trkpt><trkpt lat="38.4633356" lon="21.2301566"><ele>2.0</ele><time>2026-04-30T13:42:55.862Z</time></trkpt><trkpt lat="38.4635601" lon="21.2300591"><ele>2.0</ele><time>2026-04-30T13:42:56.862Z</time></trkpt><trkpt lat="38.4637691" lon="21.2299652"><ele>2.0</ele><time>2026-04-30T13:42:57.859Z</time></trkpt><trkpt lat="38.4639765" lon="21.2298682"><ele>2.0</ele><time>2026-04-30T13:42:58.864Z</time></trkpt><trkpt lat="38.464191" lon="21.2297731"><ele>2.5</ele><time>2026-04-30T13:42:59.862Z</time></trkpt><trkpt lat="38.4644027" lon="21.2296693"><ele>3.0</ele><time>2026-04-30T13:43:00.863Z</time></trkpt><trkpt lat="38.4646112" lon="21.2295572"><ele>2.6666666666666665</ele><time>2026-04-30T13:43:01.86Z</time></trkpt><trkpt lat="38.4648052" lon="21.2294309"><ele>2.333333333333333</ele><time>2026-04-30T13:43:02.861Z</time></trkpt><trkpt lat="38.4649911" lon="21.2292781"><ele>2.0</ele><time>2026-04-30T13:43:03.861Z</time></trkpt><trkpt lat="38.4651599" lon="21.2291138"><ele>2.333333333333333</ele><time>2026-04-30T13:43:04.861Z</time></trkpt><trkpt lat="38.4653182" lon="21.2289364"><ele>2.6666666666666665</ele><time>2026-04-30T13:43:05.861Z</time></trkpt><trkpt lat="38.4654683" lon="21.2287387"><ele>3.0</ele><time>2026-04-30T13:43:06.86Z</time></trkpt><trkpt lat="38.4656068" lon="21.2285315"><ele>3.0</ele><time>2026-04-30T13:43:07.863Z</time></trkpt><trkpt lat="38.4657353" lon="21.228304"><ele>3.0</ele><time>2026-04-30T13:43:08.861Z</time></trkpt><trkpt lat="38.4658576" lon="21.2280641"><ele>3.0</ele><time>2026-04-30T13:43:09.861Z</time></trkpt><trkpt lat="38.4659744" lon="21.2278109"><ele>2.5</ele><time>2026-04-30T13:43:10.86Z</time></trkpt><trkpt lat="38.4660936" lon="21.2275564"><ele>2.0</ele><time>2026-04-30T13:43:11.861Z</time></trkpt><trkpt lat="38.466212" lon="21.2272958"><ele>3.5</ele><time>2026-04-30T13:43:12.863Z</time></trkpt><trkpt lat="38.4663306" lon="21.2270398"><ele>5.0</ele><time>2026-04-30T13:43:13.862Z</time></trkpt><trkpt lat="38.4664455" lon="21.2267864"><ele>5.0</ele><time>2026-04-30T13:43:14.862Z</time></trkpt><trkpt lat="38.4665619" lon="21.2265291"><ele>5.0</ele><time>2026-04-30T13:43:15.86Z</time></trkpt><trkpt lat="38.4666833" lon="21.2262765"><ele>4.333333333333334</ele><time>2026-04-30T13:43:16.861Z</time></trkpt><trkpt lat="38.4667938" lon="21.2260304"><ele>3.666666666666667</ele><time>2026-04-30T13:43:17.864Z</time></trkpt><trkpt lat="38.4669015" lon="21.2257872"><ele>3.0</ele><time>2026-04-30T13:43:18.861Z</time></trkpt><trkpt lat="38.4670059" lon="21.2255526"><ele>2.6666666666666665</ele><time>2026-04-30T13:43:19.863Z</time></trkpt><trkpt lat="38.4671124" lon="21.2253199"><ele>2.333333333333333</ele><time>2026-04-30T13:43:20.861Z</time></trkpt><trkpt lat="38.4672148" lon="21.225091"><ele>2.0</ele><time>2026-04-30T13:43:21.864Z</time></trkpt><trkpt lat="38.4673211" lon="21.2248597"><ele>1.6666666666666665</ele><time>2026-04-30T13:43:22.861Z</time></trkpt><trkpt lat="38.46743" lon="21.2246303"><ele>1.3333333333333333</ele><time>2026-04-30T13:43:23.861Z</time></trkpt><trkpt lat="38.4675423" lon="21.2243986"><ele>1.0</ele><time>2026-04-30T13:43:24.863Z</time></trkpt><trkpt lat="38.467651" lon="21.2241639"><ele>1.3333333333333333</ele><time>2026-04-30T13:43:25.862Z</time></trkpt><trkpt lat="38.4677599" lon="21.2239235"><ele>1.6666666666666665</ele><time>2026-04-30T13:43:26.861Z</time></trkpt><trkpt lat="38.467871" lon="21.223691"><ele>2.0</ele><time>2026-04-30T13:43:27.862Z</time></trkpt><trkpt lat="38.4679808" lon="21.2234541"><ele>2.0</ele><time>2026-04-30T13:43:28.861Z</time></trkpt><trkpt lat="38.468091" lon="21.2232243"><ele>2.0</ele><time>2026-04-30T13:43:29.862Z</time></trkpt><trkpt lat="38.4682001" lon="21.222988"><ele>2.0</ele><time>2026-04-30T13:43:30.862Z</time></trkpt><trkpt lat="38.46831" lon="21.2227567"><ele>2.0</ele><time>2026-04-30T13:43:31.864Z</time></trkpt><trkpt lat="38.468419" lon="21.2225198"><ele>2.0</ele><time>2026-04-30T13:43:32.863Z</time></trkpt><trkpt lat="38.4685272" lon="21.2222823"><ele>2.0</ele><time>2026-04-30T13:43:33.863Z</time></trkpt><trkpt lat="38.468637" lon="21.222047"><ele>2.0</ele><time>2026-04-30T13:43:34.865Z</time></trkpt><trkpt lat="38.4687478" lon="21.2218117"><ele>2.0</ele><time>2026-04-30T13:43:35.862Z</time></trkpt><trkpt lat="38.4688573" lon="21.2215664"><ele>2.0</ele><time>2026-04-30T13:43:36.862Z</time></trkpt><trkpt lat="38.4689708" lon="21.2213255"><ele>2.0</ele><time>2026-04-30T13:43:37.867Z</time></trkpt><trkpt lat="38.4690825" lon="21.2210911"><ele>2.0</ele><time>2026-04-30T13:43:38.863Z</time></trkpt><trkpt lat="38.4691952" lon="21.2208471"><ele>2.0</ele><time>2026-04-30T13:43:39.862Z</time></trkpt><trkpt lat="38.4693075" lon="21.2206068"><ele>2.0</ele><time>2026-04-30T13:43:40.863Z</time></trkpt><trkpt lat="38.4694151" lon="21.2203664"><ele>2.0</ele><time>2026-04-30T13:43:41.862Z</time></trkpt><trkpt lat="38.4695247" lon="21.2201234"><ele>2.0</ele><time>2026-04-30T13:43:42.861Z</time></trkpt><trkpt lat="38.4696371" lon="21.2198827"><ele>2.0</ele><time>2026-04-30T13:43:43.863Z</time></trkpt><trkpt lat="38.4697504" lon="21.2196399"><ele>2.0</ele><time>2026-04-30T13:43:44.864Z</time></trkpt><trkpt lat="38.4698622" lon="21.2193986"><ele>2.0</ele><time>2026-04-30T13:43:45.862Z</time></trkpt><trkpt lat="38.4699731" lon="21.2191621"><ele>1.6666666666666665</ele><time>2026-04-30T13:43:46.861Z</time></trkpt><trkpt lat="38.4700834" lon="21.2189196"><ele>1.3333333333333333</ele><time>2026-04-30T13:43:47.863Z</time></trkpt><trkpt lat="38.4701956" lon="21.2186803"><ele>1.0</ele><time>2026-04-30T13:43:48.86Z</time></trkpt><trkpt lat="38.4703101" lon="21.2184388"><ele>1.0</ele><time>2026-04-30T13:43:49.859Z</time></trkpt><trkpt lat="38.4704204" lon="21.2181965"><ele>1.0</ele><time>2026-04-30T13:43:50.861Z</time></trkpt><trkpt lat="38.4705337" lon="21.21796"><ele>1.0</ele><time>2026-04-30T13:43:51.864Z</time></trkpt><trkpt lat="38.4706456" lon="21.2177226"><ele>1.3333333333333333</ele><time>2026-04-30T13:43:52.865Z</time></trkpt><trkpt lat="38.4707575" lon="21.2174759"><ele>1.6666666666666665</ele><time>2026-04-30T13:43:53.861Z</time></trkpt><trkpt lat="38.4708693" lon="21.2172331"><ele>2.0</ele><time>2026-04-30T13:43:54.864Z</time></trkpt><trkpt lat="38.4709826" lon="21.216989"><ele>2.0</ele><time>2026-04-30T13:43:55.863Z</time></trkpt><trkpt lat="38.4710975" lon="21.2167438"><ele>2.0</ele><time>2026-04-30T13:43:56.862Z</time></trkpt><trkpt lat="38.4712114" lon="21.2165069"><ele>2.0</ele><time>2026-04-30T13:43:57.861Z</time></trkpt><trkpt lat="38.4713263" lon="21.2162618"><ele>2.0</ele><time>2026-04-30T13:43:58.862Z</time></trkpt><trkpt lat="38.4714375" lon="21.2160093"><ele>2.0</ele><time>2026-04-30T13:43:59.863Z</time></trkpt><trkpt lat="38.47155" lon="21.2157637"><ele>2.0</ele><time>2026-04-30T13:44:00.864Z</time></trkpt><trkpt lat="38.4716631" lon="21.2155227"><ele>2.0</ele><time>2026-04-30T13:44:01.862Z</time></trkpt><trkpt lat="38.4717751" lon="21.2152772"><ele>2.0</ele><time>2026-04-30T13:44:02.863Z</time></trkpt><trkpt lat="38.4718872" lon="21.2150311"><ele>2.0</ele><time>2026-04-30T13:44:03.862Z</time></trkpt><trkpt lat="38.472005" lon="21.2147863"><ele>2.0</ele><time>2026-04-30T13:44:04.865Z</time></trkpt><trkpt lat="38.4721223" lon="21.2145382"><ele>2.0</ele><time>2026-04-30T13:44:05.863Z</time></trkpt><trkpt lat="38.4722347" lon="21.2142913"><ele>2.0</ele><time>2026-04-30T13:44:06.861Z</time></trkpt><trkpt lat="38.4723458" lon="21.2140424"><ele>2.0</ele><time>2026-04-30T13:44:07.865Z</time></trkpt><trkpt lat="38.4724637" lon="21.2137984"><ele>2.0</ele><time>2026-04-30T13:44:08.864Z</time></trkpt><trkpt lat="38.4725795" lon="21.2135575"><ele>2.0</ele><time>2026-04-30T13:44:09.864Z</time></trkpt><trkpt lat="38.4726974" lon="21.2133102"><ele>2.0</ele><time>2026-04-30T13:44:10.861Z</time></trkpt><trkpt lat="38.472814" lon="21.2130567"><ele>2.0</ele><time>2026-04-30T13:44:11.864Z</time></trkpt><trkpt lat="38.4729271" lon="21.2128093"><ele>2.0</ele><time>2026-04-30T13:44:12.863Z</time></trkpt><trkpt lat="38.4730439" lon="21.2125639"><ele>2.0</ele><time>2026-04-30T13:44:13.862Z</time></trkpt><trkpt lat="38.4731576" lon="21.21232"><ele>2.0</ele><time>2026-04-30T13:44:14.861Z</time></trkpt><trkpt lat="38.4732742" lon="21.2120722"><ele>2.0</ele><time>2026-04-30T13:44:15.861Z</time></trkpt><trkpt lat="38.4733874" lon="21.2118225"><ele>2.0</ele><time>2026-04-30T13:44:16.862Z</time></trkpt><trkpt lat="38.4735084" lon="21.2115775"><ele>2.0</ele><time>2026-04-30T13:44:17.861Z</time></trkpt><trkpt lat="38.4736232" lon="21.2113264"><ele>2.5</ele><time>2026-04-30T13:44:18.862Z</time></trkpt><trkpt lat="38.4737412" lon="21.2110819"><ele>3.0</ele><time>2026-04-30T13:44:19.86Z</time></trkpt><trkpt lat="38.4738575" lon="21.2108308"><ele>4.0</ele><time>2026-04-30T13:44:20.862Z</time></trkpt><trkpt lat="38.4739744" lon="21.2105798"><ele>5.0</ele><time>2026-04-30T13:44:21.86Z</time></trkpt><trkpt lat="38.4740876" lon="21.2103358"><ele>5.0</ele><time>2026-04-30T13:44:22.859Z</time></trkpt><trkpt lat="38.4742061" lon="21.2100887"><ele>5.0</ele><time>2026-04-30T13:44:23.862Z</time></trkpt><trkpt lat="38.4743233" lon="21.2098404"><ele>6.5</ele><time>2026-04-30T13:44:24.863Z</time></trkpt><trkpt lat="38.4744477" lon="21.209587"><ele>8.0</ele><time>2026-04-30T13:44:25.861Z</time></trkpt><trkpt lat="38.4745735" lon="21.2093376"><ele>7.0</ele><time>2026-04-30T13:44:26.864Z</time></trkpt><trkpt lat="38.4746975" lon="21.2090837"><ele>6.0</ele><time>2026-04-30T13:44:27.862Z</time></trkpt><trkpt lat="38.4748233" lon="21.2088252"><ele>6.0</ele><time>2026-04-30T13:44:28.862Z</time></trkpt><trkpt lat="38.4749512" lon="21.2085732"><ele>6.0</ele><time>2026-04-30T13:44:29.863Z</time></trkpt><trkpt lat="38.4750764" lon="21.2083211"><ele>5.0</ele><time>2026-04-30T13:44:30.86Z</time></trkpt><trkpt lat="38.4752041" lon="21.2080701"><ele>4.0</ele><time>2026-04-30T13:44:31.863Z</time></trkpt><trkpt lat="38.4753303" lon="21.2078223"><ele>3.0</ele><time>2026-04-30T13:44:32.862Z</time></trkpt><trkpt lat="38.4754546" lon="21.2075718"><ele>2.0</ele><time>2026-04-30T13:44:33.861Z</time></trkpt><trkpt lat="38.4755781" lon="21.2073166"><ele>1.5</ele><time>2026-04-30T13:44:34.864Z</time></trkpt><trkpt lat="38.4757016" lon="21.2070718"><ele>1.0</ele><time>2026-04-30T13:44:35.861Z</time></trkpt><trkpt lat="38.4758257" lon="21.2068346"><ele>1.0</ele><time>2026-04-30T13:44:36.866Z</time></trkpt><trkpt lat="38.4759551" lon="21.2065945"><ele>1.0</ele><time>2026-04-30T13:44:37.862Z</time></trkpt><trkpt lat="38.4760718" lon="21.2063616"><ele>1.0</ele><time>2026-04-30T13:44:38.861Z</time></trkpt><trkpt lat="38.4761843" lon="21.2061248"><ele>0.6666666666666666</ele><time>2026-04-30T13:44:39.863Z</time></trkpt><trkpt lat="38.4762991" lon="21.2058943"><ele>0.3333333333333333</ele><time>2026-04-30T13:44:40.861Z</time></trkpt><trkpt lat="38.4764118" lon="21.2056654"><ele>0.0</ele><time>2026-04-30T13:44:41.86Z</time></trkpt><trkpt lat="38.4765238" lon="21.2054429"><ele>0.0</ele><time>2026-04-30T13:44:42.864Z</time></trkpt><trkpt lat="38.4766453" lon="21.2052275"><ele>0.0</ele><time>2026-04-30T13:44:43.861Z</time></trkpt><trkpt lat="38.4767697" lon="21.2050146"><ele>0.0</ele><time>2026-04-30T13:44:44.861Z</time></trkpt><trkpt lat="38.4769123" lon="21.204817"><ele>0.0</ele><time>2026-04-30T13:44:45.861Z</time></trkpt><trkpt lat="38.4770557" lon="21.2046331"><ele>0.0</ele><time>2026-04-30T13:44:46.861Z</time></trkpt><trkpt lat="38.4772063" lon="21.2044564"><ele>0.0</ele><time>2026-04-30T13:44:47.861Z</time></trkpt><trkpt lat="38.4773616" lon="21.2042802"><ele>0.0</ele><time>2026-04-30T13:44:48.861Z</time></trkpt><trkpt lat="38.4775165" lon="21.2041075"><ele>0.0</ele><time>2026-04-30T13:44:49.861Z</time></trkpt><trkpt lat="38.4776778" lon="21.2039275"><ele>0.0</ele><time>2026-04-30T13:44:50.862Z</time></trkpt><trkpt lat="38.4778462" lon="21.2037524"><ele>0.0</ele><time>2026-04-30T13:44:51.863Z</time></trkpt><trkpt lat="38.4780074" lon="21.2035784"><ele>0.0</ele><time>2026-04-30T13:44:52.862Z</time></trkpt><trkpt lat="38.4781631" lon="21.2034056"><ele>0.0</ele><time>2026-04-30T13:44:53.863Z</time></trkpt><trkpt lat="38.4783247" lon="21.2032332"><ele>0.0</ele><time>2026-04-30T13:44:54.861Z</time></trkpt><trkpt lat="38.4784825" lon="21.2030631"><ele>0.0</ele><time>2026-04-30T13:44:55.862Z</time></trkpt><trkpt lat="38.4786432" lon="21.2028883"><ele>0.0</ele><time>2026-04-30T13:44:56.863Z</time></trkpt><trkpt lat="38.4788027" lon="21.2027191"><ele>0.0</ele><time>2026-04-30T13:44:57.86Z</time></trkpt><trkpt lat="38.4789628" lon="21.2025492"><ele>0.0</ele><time>2026-04-30T13:44:58.862Z</time></trkpt><trkpt lat="38.4791219" lon="21.2023703"><ele>0.0</ele><time>2026-04-30T13:44:59.862Z</time></trkpt><trkpt lat="38.4792794" lon="21.2021899"><ele>-0.3333333333333333</ele><time>2026-04-30T13:45:00.86Z</time></trkpt><trkpt lat="38.479438" lon="21.2020125"><ele>-0.6666666666666666</ele><time>2026-04-30T13:45:01.862Z</time></trkpt><trkpt lat="38.4795939" lon="21.2018366"><ele>-1.0</ele><time>2026-04-30T13:45:02.864Z</time></trkpt><trkpt lat="38.4797516" lon="21.2016628"><ele>-1.0</ele><time>2026-04-30T13:45:03.863Z</time></trkpt><trkpt lat="38.479914" lon="21.2014788"><ele>-1.0</ele><time>2026-04-30T13:45:04.861Z</time></trkpt><trkpt lat="38.4800781" lon="21.2012928"><ele>-1.0</ele><time>2026-04-30T13:45:05.86Z</time></trkpt><trkpt lat="38.4802441" lon="21.2011092"><ele>-1.0</ele><time>2026-04-30T13:45:06.862Z</time></trkpt><trkpt lat="38.480412" lon="21.2009306"><ele>-1.0</ele><time>2026-04-30T13:45:07.862Z</time></trkpt><trkpt lat="38.4805781" lon="21.2007615"><ele>-1.0</ele><time>2026-04-30T13:45:08.861Z</time></trkpt><trkpt lat="38.4807417" lon="21.2005865"><ele>-0.6666666666666666</ele><time>2026-04-30T13:45:09.86Z</time></trkpt><trkpt lat="38.4809028" lon="21.2004113"><ele>-0.3333333333333333</ele><time>2026-04-30T13:45:10.862Z</time></trkpt><trkpt lat="38.4810593" lon="21.2002442"><ele>0.0</ele><time>2026-04-30T13:45:11.864Z</time></trkpt><trkpt lat="38.4812145" lon="21.2000762"><ele>0.0</ele><time>2026-04-30T13:45:12.861Z</time></trkpt><trkpt lat="38.4813677" lon="21.1999047"><ele>0.0</ele><time>2026-04-30T13:45:13.862Z</time></trkpt><trkpt lat="38.4815238" lon="21.1997322"><ele>0.0</ele><time>2026-04-30T13:45:14.862Z</time></trkpt><trkpt lat="38.4816795" lon="21.1995635"><ele>0.0</ele><time>2026-04-30T13:45:15.86Z</time></trkpt><trkpt lat="38.4818355" lon="21.1993913"><ele>0.0</ele><time>2026-04-30T13:45:16.862Z</time></trkpt><trkpt lat="38.4819953" lon="21.1992169"><ele>0.0</ele><time>2026-04-30T13:45:17.864Z</time></trkpt><trkpt lat="38.4821597" lon="21.1990424"><ele>0.0</ele><time>2026-04-30T13:45:18.859Z</time></trkpt><trkpt lat="38.482319" lon="21.1988702"><ele>0.0</ele><time>2026-04-30T13:45:19.862Z</time></trkpt><trkpt lat="38.4824773" lon="21.1986925"><ele>0.0</ele><time>2026-04-30T13:45:20.862Z</time></trkpt><trkpt lat="38.4826372" lon="21.1985101"><ele>0.0</ele><time>2026-04-30T13:45:21.863Z</time></trkpt><trkpt lat="38.4827998" lon="21.1983344"><ele>0.0</ele><time>2026-04-30T13:45:22.863Z</time></trkpt><trkpt lat="38.4829582" lon="21.1981659"><ele>0.0</ele><time>2026-04-30T13:45:23.863Z</time></trkpt><trkpt lat="38.4831169" lon="21.1979934"><ele>-0.3333333333333333</ele><time>2026-04-30T13:45:24.86Z</time></trkpt><trkpt lat="38.4832742" lon="21.1978188"><ele>-0.6666666666666666</ele><time>2026-04-30T13:45:25.861Z</time></trkpt><trkpt lat="38.48344" lon="21.1976345"><ele>-1.0</ele><time>2026-04-30T13:45:26.861Z</time></trkpt><trkpt lat="38.4835997" lon="21.1974604"><ele>-1.3333333333333333</ele><time>2026-04-30T13:45:27.861Z</time></trkpt><trkpt lat="38.4837555" lon="21.1972979"><ele>-1.6666666666666665</ele><time>2026-04-30T13:45:28.861Z</time></trkpt><trkpt lat="38.4839089" lon="21.1971242"><ele>-2.0</ele><time>2026-04-30T13:45:29.861Z</time></trkpt><trkpt lat="38.4840709" lon="21.1969449"><ele>-2.0</ele><time>2026-04-30T13:45:30.861Z</time></trkpt><trkpt lat="38.4842298" lon="21.1967666"><ele>-2.0</ele><time>2026-04-30T13:45:31.865Z</time></trkpt><trkpt lat="38.4843918" lon="21.196591"><ele>-2.0</ele><time>2026-04-30T13:45:32.861Z</time></trkpt><trkpt lat="38.4845545" lon="21.1964113"><ele>-1.3333333333333333</ele><time>2026-04-30T13:45:33.863Z</time></trkpt><trkpt lat="38.4847178" lon="21.1962278"><ele>-0.6666666666666666</ele><time>2026-04-30T13:45:34.86Z</time></trkpt><trkpt lat="38.4848836" lon="21.196047"><ele>0.0</ele><time>2026-04-30T13:45:35.862Z</time></trkpt><trkpt lat="38.4850474" lon="21.1958661"><ele>0.0</ele><time>2026-04-30T13:45:36.86Z</time></trkpt><trkpt lat="38.4852143" lon="21.1956859"><ele>0.0</ele><time>2026-04-30T13:45:37.863Z</time></trkpt><trkpt lat="38.4853792" lon="21.1955084"><ele>0.0</ele><time>2026-04-30T13:45:38.862Z</time></trkpt><trkpt lat="38.4855459" lon="21.1953316"><ele>0.3333333333333333</ele><time>2026-04-30T13:45:39.863Z</time></trkpt><trkpt lat="38.4857096" lon="21.1951539"><ele>0.6666666666666666</ele><time>2026-04-30T13:45:40.862Z</time></trkpt><trkpt lat="38.4858722" lon="21.1949722"><ele>1.0</ele><time>2026-04-30T13:45:41.862Z</time></trkpt><trkpt lat="38.4860354" lon="21.1947911"><ele>1.0</ele><time>2026-04-30T13:45:42.861Z</time></trkpt><trkpt lat="38.4862015" lon="21.1946103"><ele>1.0</ele><time>2026-04-30T13:45:43.862Z</time></trkpt><trkpt lat="38.4863574" lon="21.1944471"><ele>1.0</ele><time>2026-04-30T13:45:44.863Z</time></trkpt><trkpt lat="38.4865044" lon="21.1942807"><ele>1.0</ele><time>2026-04-30T13:45:45.863Z</time></trkpt><trkpt lat="38.4866395" lon="21.1941286"><ele>1.0</ele><time>2026-04-30T13:45:46.862Z</time></trkpt><trkpt lat="38.4867686" lon="21.1939849"><ele>1.0</ele><time>2026-04-30T13:45:47.862Z</time></trkpt><trkpt lat="38.4868817" lon="21.1938405"><ele>1.0</ele><time>2026-04-30T13:45:48.865Z</time></trkpt><trkpt lat="38.4869696" lon="21.1936875"><ele>1.0</ele><time>2026-04-30T13:45:49.862Z</time></trkpt><trkpt lat="38.4870285" lon="21.1935227"><ele>1.0</ele><time>2026-04-30T13:45:50.859Z</time></trkpt><trkpt lat="38.4870593" lon="21.1933455"><ele>1.0</ele><time>2026-04-30T13:45:51.862Z</time></trkpt><trkpt lat="38.4870573" lon="21.1931552"><ele>1.6666666666666665</ele><time>2026-04-30T13:45:52.861Z</time></trkpt><trkpt lat="38.4870284" lon="21.1929476"><ele>2.3333333333333335</ele><time>2026-04-30T13:45:53.863Z</time></trkpt><trkpt lat="38.4869797" lon="21.1927256"><ele>3.0</ele><time>2026-04-30T13:45:54.863Z</time></trkpt><trkpt lat="38.486914" lon="21.1925032"><ele>3.333333333333333</ele><time>2026-04-30T13:45:55.862Z</time></trkpt><trkpt lat="38.4868396" lon="21.1922903"><ele>3.6666666666666665</ele><time>2026-04-30T13:45:56.862Z</time></trkpt><trkpt lat="38.4867667" lon="21.1920662"><ele>4.0</ele><time>2026-04-30T13:45:57.861Z</time></trkpt><trkpt lat="38.4866849" lon="21.191853"><ele>4.0</ele><time>2026-04-30T13:45:58.862Z</time></trkpt><trkpt lat="38.4866068" lon="21.1916511"><ele>4.0</ele><time>2026-04-30T13:45:59.861Z</time></trkpt><trkpt lat="38.486536" lon="21.1914409"><ele>4.0</ele><time>2026-04-30T13:46:00.862Z</time></trkpt><trkpt lat="38.4864561" lon="21.1912176"><ele>3.6666666666666665</ele><time>2026-04-30T13:46:01.862Z</time></trkpt><trkpt lat="38.4863812" lon="21.1909945"><ele>3.333333333333333</ele><time>2026-04-30T13:46:02.861Z</time></trkpt><trkpt lat="38.4863052" lon="21.1907764"><ele>3.0</ele><time>2026-04-30T13:46:03.862Z</time></trkpt><trkpt lat="38.486226" lon="21.1905559"><ele>2.3333333333333335</ele><time>2026-04-30T13:46:04.862Z</time></trkpt><trkpt lat="38.4861418" lon="21.1903366"><ele>1.6666666666666665</ele><time>2026-04-30T13:46:05.864Z</time></trkpt><trkpt lat="38.4860623" lon="21.1901109"><ele>1.0</ele><time>2026-04-30T13:46:06.862Z</time></trkpt><trkpt lat="38.4859835" lon="21.189895"><ele>0.3333333333333333</ele><time>2026-04-30T13:46:07.86Z</time></trkpt><trkpt lat="38.4859122" lon="21.189686"><ele>-0.3333333333333333</ele><time>2026-04-30T13:46:08.86Z</time></trkpt><trkpt lat="38.4858437" lon="21.1894874"><ele>-1.0</ele><time>2026-04-30T13:46:09.862Z</time></trkpt><trkpt lat="38.485775" lon="21.1892937"><ele>-1.0</ele><time>2026-04-30T13:46:10.862Z</time></trkpt><trkpt lat="38.4857209" lon="21.1890988"><ele>-1.0</ele><time>2026-04-30T13:46:11.863Z</time></trkpt><trkpt lat="38.4856746" lon="21.1889025"><ele>-1.0</ele><time>2026-04-30T13:46:12.863Z</time></trkpt><trkpt lat="38.4856444" lon="21.1887041"><ele>-1.3333333333333333</ele><time>2026-04-30T13:46:13.867Z</time></trkpt><trkpt lat="38.4856354" lon="21.1885035"><ele>-1.6666666666666665</ele><time>2026-04-30T13:46:14.86Z</time></trkpt><trkpt lat="38.4856561" lon="21.188311"><ele>-2.0</ele><time>2026-04-30T13:46:15.863Z</time></trkpt><trkpt lat="38.4857123" lon="21.1881244"><ele>-2.0</ele><time>2026-04-30T13:46:16.861Z</time></trkpt><trkpt lat="38.4858019" lon="21.1879524"><ele>-2.0</ele><time>2026-04-30T13:46:17.863Z</time></trkpt><trkpt lat="38.4859097" lon="21.1877899"><ele>-2.0</ele><time>2026-04-30T13:46:18.861Z</time></trkpt><trkpt lat="38.4860407" lon="21.1876455"><ele>-2.0</ele><time>2026-04-30T13:46:19.862Z</time></trkpt><trkpt lat="38.4861886" lon="21.1875047"><ele>-2.0</ele><time>2026-04-30T13:46:20.86Z</time></trkpt><trkpt lat="38.4863497" lon="21.1873637"><ele>-2.0</ele><time>2026-04-30T13:46:21.863Z</time></trkpt><trkpt lat="38.4865076" lon="21.1872265"><ele>-2.0</ele><time>2026-04-30T13:46:22.864Z</time></trkpt><trkpt lat="38.4866643" lon="21.1870939"><ele>-2.0</ele><time>2026-04-30T13:46:23.862Z</time></trkpt><trkpt lat="38.4868195" lon="21.1869661"><ele>-2.0</ele><time>2026-04-30T13:46:24.863Z</time></trkpt><trkpt lat="38.4869717" lon="21.1868419"><ele>-2.0</ele><time>2026-04-30T13:46:25.862Z</time></trkpt><trkpt lat="38.4871146" lon="21.1867258"><ele>-2.0</ele><time>2026-04-30T13:46:26.862Z</time></trkpt><trkpt lat="38.4872503" lon="21.1866183"><ele>-2.0</ele><time>2026-04-30T13:46:27.858Z</time></trkpt><trkpt lat="38.4873762" lon="21.186529"><ele>-2.0</ele><time>2026-04-30T13:46:28.862Z</time></trkpt><trkpt lat="38.4875014" lon="21.1864645"><ele>-2.0</ele><time>2026-04-30T13:46:29.862Z</time></trkpt><trkpt lat="38.4876265" lon="21.1864337"><ele>-2.0</ele><time>2026-04-30T13:46:30.862Z</time></trkpt><trkpt lat="38.4877561" lon="21.1864301"><ele>-2.0</ele><time>2026-04-30T13:46:31.86Z</time></trkpt><trkpt lat="38.48789" lon="21.1864336"><ele>-2.0</ele><time>2026-04-30T13:46:32.862Z</time></trkpt><trkpt lat="38.4880221" lon="21.1864053"><ele>-2.0</ele><time>2026-04-30T13:46:33.863Z</time></trkpt><trkpt lat="38.4881452" lon="21.186355"><ele>-2.0</ele><time>2026-04-30T13:46:34.864Z</time></trkpt><trkpt lat="38.4882609" lon="21.1862871"><ele>-2.0</ele><time>2026-04-30T13:46:35.861Z</time></trkpt><trkpt lat="38.4883595" lon="21.1861926"><ele>-2.0</ele><time>2026-04-30T13:46:36.862Z</time></trkpt><trkpt lat="38.4884499" lon="21.1860804"><ele>-2.0</ele><time>2026-04-30T13:46:37.861Z</time></trkpt><trkpt lat="38.4885226" lon="21.1859498"><ele>-2.0</ele><time>2026-04-30T13:46:38.861Z</time></trkpt><trkpt lat="38.4885844" lon="21.185809"><ele>-2.0</ele><time>2026-04-30T13:46:39.862Z</time></trkpt><trkpt lat="38.4886466" lon="21.1856539"><ele>-2.0</ele><time>2026-04-30T13:46:40.864Z</time></trkpt><trkpt lat="38.4887147" lon="21.1855093"><ele>-2.0</ele><time>2026-04-30T13:46:41.863Z</time></trkpt><trkpt lat="38.4888069" lon="21.185376"><ele>-2.0</ele><time>2026-04-30T13:46:42.868Z</time></trkpt><trkpt lat="38.4889232" lon="21.185275"><ele>-2.0</ele><time>2026-04-30T13:46:43.863Z</time></trkpt><trkpt lat="38.4890479" lon="21.1851658"><ele>-1.6666666666666665</ele><time>2026-04-30T13:46:44.862Z</time></trkpt><trkpt lat="38.4891794" lon="21.1850461"><ele>-1.3333333333333333</ele><time>2026-04-30T13:46:45.864Z</time></trkpt><trkpt lat="38.4893181" lon="21.184928"><ele>-1.0</ele><time>2026-04-30T13:46:46.862Z</time></trkpt><trkpt lat="38.4894612" lon="21.1848075"><ele>-1.0</ele><time>2026-04-30T13:46:47.861Z</time></trkpt><trkpt lat="38.4896102" lon="21.1846785"><ele>-1.0</ele><time>2026-04-30T13:46:48.86Z</time></trkpt><trkpt lat="38.4897758" lon="21.1845316"><ele>-1.0</ele><time>2026-04-30T13:46:49.863Z</time></trkpt><trkpt lat="38.489959" lon="21.1843602"><ele>-1.0</ele><time>2026-04-30T13:46:50.863Z</time></trkpt><trkpt lat="38.4901474" lon="21.1842293"><ele>-1.0</ele><time>2026-04-30T13:46:51.864Z</time></trkpt><trkpt lat="38.4903456" lon="21.1840746"><ele>-1.0</ele><time>2026-04-30T13:46:52.863Z</time></trkpt><trkpt lat="38.4905469" lon="21.1839239"><ele>-1.0</ele><time>2026-04-30T13:46:53.863Z</time></trkpt><trkpt lat="38.490749" lon="21.1837753"><ele>-1.0</ele><time>2026-04-30T13:46:54.861Z</time></trkpt><trkpt lat="38.490949" lon="21.1836155"><ele>-1.0</ele><time>2026-04-30T13:46:55.862Z</time></trkpt><trkpt lat="38.491152" lon="21.1834489"><ele>-1.0</ele><time>2026-04-30T13:46:56.863Z</time></trkpt><trkpt lat="38.4913509" lon="21.183287"><ele>-1.5</ele><time>2026-04-30T13:46:57.861Z</time></trkpt><trkpt lat="38.491552" lon="21.1831204"><ele>-2.0</ele><time>2026-04-30T13:46:58.862Z</time></trkpt><trkpt lat="38.4917492" lon="21.1829608"><ele>-2.0</ele><time>2026-04-30T13:46:59.863Z</time></trkpt><trkpt lat="38.4919442" lon="21.1827991"><ele>-2.0</ele><time>2026-04-30T13:47:00.863Z</time></trkpt><trkpt lat="38.4921387" lon="21.1826385"><ele>-1.5</ele><time>2026-04-30T13:47:01.863Z</time></trkpt><trkpt lat="38.49233" lon="21.1824804"><ele>-1.0</ele><time>2026-04-30T13:47:02.862Z</time></trkpt><trkpt lat="38.492517" lon="21.1823237"><ele>-1.0</ele><time>2026-04-30T13:47:03.864Z</time></trkpt><trkpt lat="38.4927058" lon="21.1821676"><ele>-1.0</ele><time>2026-04-30T13:47:04.862Z</time></trkpt><trkpt lat="38.4928917" lon="21.1820122"><ele>-1.0</ele><time>2026-04-30T13:47:05.86Z</time></trkpt><trkpt lat="38.4930786" lon="21.1818588"><ele>-1.0</ele><time>2026-04-30T13:47:06.863Z</time></trkpt><trkpt lat="38.4932636" lon="21.1817077"><ele>-1.0</ele><time>2026-04-30T13:47:07.862Z</time></trkpt><trkpt lat="38.4934488" lon="21.1815512"><ele>-1.0</ele><time>2026-04-30T13:47:08.861Z</time></trkpt><trkpt lat="38.4936364" lon="21.1813987"><ele>-1.3333333333333333</ele><time>2026-04-30T13:47:09.86Z</time></trkpt><trkpt lat="38.4938209" lon="21.1812488"><ele>-1.6666666666666665</ele><time>2026-04-30T13:47:10.861Z</time></trkpt><trkpt lat="38.4940094" lon="21.1810968"><ele>-2.0</ele><time>2026-04-30T13:47:11.863Z</time></trkpt><trkpt lat="38.4941928" lon="21.1809508"><ele>-2.0</ele><time>2026-04-30T13:47:12.861Z</time></trkpt><trkpt lat="38.4943726" lon="21.180803"><ele>-2.0</ele><time>2026-04-30T13:47:13.863Z</time></trkpt><trkpt lat="38.4945511" lon="21.1806533"><ele>-2.0</ele><time>2026-04-30T13:47:14.862Z</time></trkpt><trkpt lat="38.4947314" lon="21.1805075"><ele>-2.333333333333333</ele><time>2026-04-30T13:47:15.867Z</time></trkpt><trkpt lat="38.4949135" lon="21.1803485"><ele>-2.6666666666666665</ele><time>2026-04-30T13:47:16.864Z</time></trkpt><trkpt lat="38.495087" lon="21.1801842"><ele>-3.0</ele><time>2026-04-30T13:47:17.863Z</time></trkpt><trkpt lat="38.4952424" lon="21.1800201"><ele>-2.6666666666666665</ele><time>2026-04-30T13:47:18.861Z</time></trkpt><trkpt lat="38.4953842" lon="21.1798472"><ele>-2.333333333333333</ele><time>2026-04-30T13:47:19.862Z</time></trkpt><trkpt lat="38.4955157" lon="21.1796576"><ele>-2.0</ele><time>2026-04-30T13:47:20.859Z</time></trkpt><trkpt lat="38.4956364" lon="21.1794593"><ele>-2.0</ele><time>2026-04-30T13:47:21.859Z</time></trkpt><trkpt lat="38.4957453" lon="21.179241"><ele>-2.0</ele><time>2026-04-30T13:47:22.863Z</time></trkpt><trkpt lat="38.4958439" lon="21.1790019"><ele>-2.0</ele><time>2026-04-30T13:47:23.863Z</time></trkpt><trkpt lat="38.4959359" lon="21.1787599"><ele>-2.0</ele><time>2026-04-30T13:47:24.862Z</time></trkpt><trkpt lat="38.4960107" lon="21.1785078"><ele>-2.0</ele><time>2026-04-30T13:47:25.862Z</time></trkpt><trkpt lat="38.4960625" lon="21.1782519"><ele>-2.0</ele><time>2026-04-30T13:47:26.862Z</time></trkpt><trkpt lat="38.4961011" lon="21.1779801"><ele>-1.6666666666666665</ele><time>2026-04-30T13:47:27.862Z</time></trkpt><trkpt lat="38.496142" lon="21.1777035"><ele>-1.3333333333333333</ele><time>2026-04-30T13:47:28.863Z</time></trkpt><trkpt lat="38.4961707" lon="21.1774228"><ele>-1.0</ele><time>2026-04-30T13:47:29.86Z</time></trkpt><trkpt lat="38.4961991" lon="21.1771415"><ele>-1.0</ele><time>2026-04-30T13:47:30.86Z</time></trkpt><trkpt lat="38.4962243" lon="21.1768589"><ele>-1.0</ele><time>2026-04-30T13:47:31.862Z</time></trkpt><trkpt lat="38.496255" lon="21.1765714"><ele>-1.0</ele><time>2026-04-30T13:47:32.862Z</time></trkpt><trkpt lat="38.4962806" lon="21.1762888"><ele>-1.0</ele><time>2026-04-30T13:47:33.863Z</time></trkpt><trkpt lat="38.4963087" lon="21.1760051"><ele>-1.0</ele><time>2026-04-30T13:47:34.86Z</time></trkpt><trkpt lat="38.4963393" lon="21.1757181"><ele>-1.0</ele><time>2026-04-30T13:47:35.86Z</time></trkpt><trkpt lat="38.496368" lon="21.175432"><ele>-1.0</ele><time>2026-04-30T13:47:36.86Z</time></trkpt><trkpt lat="38.4963913" lon="21.1751473"><ele>-1.0</ele><time>2026-04-30T13:47:37.862Z</time></trkpt><trkpt lat="38.4964179" lon="21.1748657"><ele>-1.0</ele><time>2026-04-30T13:47:38.862Z</time></trkpt><trkpt lat="38.4964399" lon="21.1745839"><ele>-1.0</ele><time>2026-04-30T13:47:39.863Z</time></trkpt><trkpt lat="38.4964662" lon="21.1743051"><ele>-1.0</ele><time>2026-04-30T13:47:40.862Z</time></trkpt><trkpt lat="38.4964941" lon="21.174028"><ele>-1.0</ele><time>2026-04-30T13:47:41.862Z</time></trkpt><trkpt lat="38.4965255" lon="21.1737514"><ele>-1.0</ele><time>2026-04-30T13:47:42.861Z</time></trkpt><trkpt lat="38.4965506" lon="21.1734735"><ele>-1.0</ele><time>2026-04-30T13:47:43.861Z</time></trkpt><trkpt lat="38.4965783" lon="21.1731957"><ele>-1.0</ele><time>2026-04-30T13:47:44.863Z</time></trkpt><trkpt lat="38.4966106" lon="21.1729197"><ele>-1.0</ele><time>2026-04-30T13:47:45.865Z</time></trkpt><trkpt lat="38.4966407" lon="21.1726421"><ele>-1.0</ele><time>2026-04-30T13:47:46.862Z</time></trkpt><trkpt lat="38.4966717" lon="21.17237"><ele>-1.0</ele><time>2026-04-30T13:47:47.862Z</time></trkpt><trkpt lat="38.4967011" lon="21.172097"><ele>-1.0</ele><time>2026-04-30T13:47:48.861Z</time></trkpt><trkpt lat="38.4967294" lon="21.1718273"><ele>-1.0</ele><time>2026-04-30T13:47:49.862Z</time></trkpt><trkpt lat="38.4967589" lon="21.1715505"><ele>-1.0</ele><time>2026-04-30T13:47:50.862Z</time></trkpt><trkpt lat="38.4967859" lon="21.1712782"><ele>-1.0</ele><time>2026-04-30T13:47:51.862Z</time></trkpt><trkpt lat="38.496813" lon="21.1710063"><ele>-0.6666666666666666</ele><time>2026-04-30T13:47:52.861Z</time></trkpt><trkpt lat="38.4968428" lon="21.1707352"><ele>-0.3333333333333333</ele><time>2026-04-30T13:47:53.863Z</time></trkpt><trkpt lat="38.4968727" lon="21.1704714"><ele>0.0</ele><time>2026-04-30T13:47:54.861Z</time></trkpt><trkpt lat="38.4969016" lon="21.1702031"><ele>-0.6666666666666666</ele><time>2026-04-30T13:47:55.863Z</time></trkpt><trkpt lat="38.4969323" lon="21.1699318"><ele>-1.3333333333333333</ele><time>2026-04-30T13:47:56.861Z</time></trkpt><trkpt lat="38.4969612" lon="21.1696647"><ele>-2.0</ele><time>2026-04-30T13:47:57.862Z</time></trkpt><trkpt lat="38.4969885" lon="21.1693991"><ele>-2.0</ele><time>2026-04-30T13:47:58.859Z</time></trkpt><trkpt lat="38.497015" lon="21.1691376"><ele>-2.0</ele><time>2026-04-30T13:47:59.862Z</time></trkpt><trkpt lat="38.4970424" lon="21.1688854"><ele>-2.0</ele><time>2026-04-30T13:48:00.863Z</time></trkpt><trkpt lat="38.4970672" lon="21.1686261"><ele>-2.0</ele><time>2026-04-30T13:48:01.861Z</time></trkpt><trkpt lat="38.4970929" lon="21.168364"><ele>-2.0</ele><time>2026-04-30T13:48:02.863Z</time></trkpt><trkpt lat="38.4971211" lon="21.1681008"><ele>-2.0</ele><time>2026-04-30T13:48:03.86Z</time></trkpt><trkpt lat="38.4971547" lon="21.1678337"><ele>-2.0</ele><time>2026-04-30T13:48:04.862Z</time></trkpt><trkpt lat="38.4971871" lon="21.1675661"><ele>-2.0</ele><time>2026-04-30T13:48:05.861Z</time></trkpt><trkpt lat="38.4972172" lon="21.1672939"><ele>-2.0</ele><time>2026-04-30T13:48:06.861Z</time></trkpt><trkpt lat="38.4972438" lon="21.167021"><ele>-1.6666666666666665</ele><time>2026-04-30T13:48:07.864Z</time></trkpt><trkpt lat="38.4972724" lon="21.1667388"><ele>-1.3333333333333333</ele><time>2026-04-30T13:48:08.862Z</time></trkpt><trkpt lat="38.4973016" lon="21.1664611"><ele>-1.0</ele><time>2026-04-30T13:48:09.86Z</time></trkpt><trkpt lat="38.4973266" lon="21.166183"><ele>-1.0</ele><time>2026-04-30T13:48:10.861Z</time></trkpt><trkpt lat="38.4973534" lon="21.1659069"><ele>-1.0</ele><time>2026-04-30T13:48:11.864Z</time></trkpt><trkpt lat="38.4973824" lon="21.1656337"><ele>-1.0</ele><time>2026-04-30T13:48:12.862Z</time></trkpt><trkpt lat="38.4974112" lon="21.1653605"><ele>-1.0</ele><time>2026-04-30T13:48:13.86Z</time></trkpt><trkpt lat="38.4974386" lon="21.1650873"><ele>-1.0</ele><time>2026-04-30T13:48:14.86Z</time></trkpt><trkpt lat="38.4974665" lon="21.1648133"><ele>-1.0</ele><time>2026-04-30T13:48:15.861Z</time></trkpt><trkpt lat="38.4974895" lon="21.1645403"><ele>-1.0</ele><time>2026-04-30T13:48:16.865Z</time></trkpt><trkpt lat="38.4975203" lon="21.1642673"><ele>-1.0</ele><time>2026-04-30T13:48:17.86Z</time></trkpt><trkpt lat="38.4975495" lon="21.1639978"><ele>-1.0</ele><time>2026-04-30T13:48:18.862Z</time></trkpt><trkpt lat="38.4975739" lon="21.1637271"><ele>-1.0</ele><time>2026-04-30T13:48:19.863Z</time></trkpt><trkpt lat="38.4976025" lon="21.1634595"><ele>-1.0</ele><time>2026-04-30T13:48:20.863Z</time></trkpt><trkpt lat="38.4976265" lon="21.1631833"><ele>-1.0</ele><time>2026-04-30T13:48:21.864Z</time></trkpt><trkpt lat="38.4976548" lon="21.1629055"><ele>-1.0</ele><time>2026-04-30T13:48:22.861Z</time></trkpt><trkpt lat="38.4976821" lon="21.1626285"><ele>-1.0</ele><time>2026-04-30T13:48:23.862Z</time></trkpt><trkpt lat="38.4977132" lon="21.1623468"><ele>-1.0</ele><time>2026-04-30T13:48:24.862Z</time></trkpt><trkpt lat="38.4977441" lon="21.162062"><ele>-1.0</ele><time>2026-04-30T13:48:25.863Z</time></trkpt><trkpt lat="38.4977832" lon="21.1617802"><ele>-1.0</ele><time>2026-04-30T13:48:26.863Z</time></trkpt><trkpt lat="38.49782" lon="21.1614954"><ele>-0.6666666666666666</ele><time>2026-04-30T13:48:27.862Z</time></trkpt><trkpt lat="38.4978584" lon="21.1612127"><ele>-0.3333333333333333</ele><time>2026-04-30T13:48:28.863Z</time></trkpt><trkpt lat="38.4978865" lon="21.1609295"><ele>0.0</ele><time>2026-04-30T13:48:29.859Z</time></trkpt><trkpt lat="38.4979104" lon="21.1606469"><ele>0.0</ele><time>2026-04-30T13:48:30.862Z</time></trkpt><trkpt lat="38.4979264" lon="21.1603661"><ele>0.0</ele><time>2026-04-30T13:48:31.864Z</time></trkpt><trkpt lat="38.4979417" lon="21.1600797"><ele>0.0</ele><time>2026-04-30T13:48:32.862Z</time></trkpt><trkpt lat="38.4979458" lon="21.1597934"><ele>-0.5</ele><time>2026-04-30T13:48:33.863Z</time></trkpt><trkpt lat="38.4979483" lon="21.1594927"><ele>-1.0</ele><time>2026-04-30T13:48:34.863Z</time></trkpt><trkpt lat="38.4979419" lon="21.1592087"><ele>-1.0</ele><time>2026-04-30T13:48:35.864Z</time></trkpt><trkpt lat="38.4979306" lon="21.1589247"><ele>-1.0</ele><time>2026-04-30T13:48:36.861Z</time></trkpt><trkpt lat="38.4979128" lon="21.1586421"><ele>-1.0</ele><time>2026-04-30T13:48:37.864Z</time></trkpt><trkpt lat="38.4978968" lon="21.1583591"><ele>-1.0</ele><time>2026-04-30T13:48:38.864Z</time></trkpt><trkpt lat="38.4978672" lon="21.1580732"><ele>-1.0</ele><time>2026-04-30T13:48:39.863Z</time></trkpt><trkpt lat="38.4978459" lon="21.1577864"><ele>-1.0</ele><time>2026-04-30T13:48:40.865Z</time></trkpt><trkpt lat="38.4978199" lon="21.1575031"><ele>-1.0</ele><time>2026-04-30T13:48:41.866Z</time></trkpt><trkpt lat="38.4977977" lon="21.1572215"><ele>-1.0</ele><time>2026-04-30T13:48:42.865Z</time></trkpt><trkpt lat="38.4977732" lon="21.1569386"><ele>-1.0</ele><time>2026-04-30T13:48:43.865Z</time></trkpt><trkpt lat="38.4977525" lon="21.1566604"><ele>-1.0</ele><time>2026-04-30T13:48:44.861Z</time></trkpt><trkpt lat="38.4977269" lon="21.1563775"><ele>-1.0</ele><time>2026-04-30T13:48:45.86Z</time></trkpt><trkpt lat="38.4977008" lon="21.1561031"><ele>-1.0</ele><time>2026-04-30T13:48:46.861Z</time></trkpt><trkpt lat="38.4976764" lon="21.1558302"><ele>-1.0</ele><time>2026-04-30T13:48:47.865Z</time></trkpt><trkpt lat="38.4976523" lon="21.1555536"><ele>-1.0</ele><time>2026-04-30T13:48:48.863Z</time></trkpt><trkpt lat="38.4976353" lon="21.155281"><ele>-0.3333333333333333</ele><time>2026-04-30T13:48:49.864Z</time></trkpt><trkpt lat="38.4976173" lon="21.1550079"><ele>0.3333333333333333</ele><time>2026-04-30T13:48:50.862Z</time></trkpt><trkpt lat="38.497595" lon="21.1547285"><ele>1.0</ele><time>2026-04-30T13:48:51.865Z</time></trkpt><trkpt lat="38.4975717" lon="21.1544515"><ele>1.0</ele><time>2026-04-30T13:48:52.859Z</time></trkpt><trkpt lat="38.4975481" lon="21.1541781"><ele>1.0</ele><time>2026-04-30T13:48:53.865Z</time></trkpt><trkpt lat="38.497526" lon="21.1539027"><ele>1.0</ele><time>2026-04-30T13:48:54.861Z</time></trkpt><trkpt lat="38.4975095" lon="21.1536232"><ele>1.0</ele><time>2026-04-30T13:48:55.862Z</time></trkpt><trkpt lat="38.4974869" lon="21.1533475"><ele>1.0</ele><time>2026-04-30T13:48:56.863Z</time></trkpt><trkpt lat="38.4974639" lon="21.1530691"><ele>1.0</ele><time>2026-04-30T13:48:57.864Z</time></trkpt><trkpt lat="38.4974438" lon="21.1527801"><ele>1.6666666666666665</ele><time>2026-04-30T13:48:58.862Z</time></trkpt><trkpt lat="38.4974181" lon="21.1524984"><ele>2.3333333333333335</ele><time>2026-04-30T13:48:59.863Z</time></trkpt><trkpt lat="38.497392" lon="21.1522171"><ele>3.0</ele><time>2026-04-30T13:49:00.861Z</time></trkpt><trkpt lat="38.497366" lon="21.1519365"><ele>3.666666666666667</ele><time>2026-04-30T13:49:01.861Z</time></trkpt><trkpt lat="38.4973393" lon="21.1516603"><ele>4.333333333333334</ele><time>2026-04-30T13:49:02.861Z</time></trkpt><trkpt lat="38.4973118" lon="21.1513831"><ele>5.0</ele><time>2026-04-30T13:49:03.861Z</time></trkpt><trkpt lat="38.497288" lon="21.1511069"><ele>5.0</ele><time>2026-04-30T13:49:04.863Z</time></trkpt><trkpt lat="38.4972625" lon="21.1508308"><ele>5.0</ele><time>2026-04-30T13:49:05.862Z</time></trkpt><trkpt lat="38.4972363" lon="21.1505569"><ele>5.0</ele><time>2026-04-30T13:49:06.861Z</time></trkpt><trkpt lat="38.49721" lon="21.1502811"><ele>5.333333333333334</ele><time>2026-04-30T13:49:07.861Z</time></trkpt><trkpt lat="38.4971848" lon="21.1500029"><ele>5.666666666666667</ele><time>2026-04-30T13:49:08.863Z</time></trkpt><trkpt lat="38.4971642" lon="21.1497289"><ele>6.0</ele><time>2026-04-30T13:49:09.862Z</time></trkpt><trkpt lat="38.4971366" lon="21.1494515"><ele>7.0</ele><time>2026-04-30T13:49:10.861Z</time></trkpt><trkpt lat="38.4971155" lon="21.1491767"><ele>8.0</ele><time>2026-04-30T13:49:11.862Z</time></trkpt><trkpt lat="38.4970881" lon="21.1489014"><ele>9.0</ele><time>2026-04-30T13:49:12.861Z</time></trkpt><trkpt lat="38.4970652" lon="21.1486281"><ele>9.333333333333334</ele><time>2026-04-30T13:49:13.862Z</time></trkpt><trkpt lat="38.4970376" lon="21.1483549"><ele>9.666666666666668</ele><time>2026-04-30T13:49:14.863Z</time></trkpt><trkpt lat="38.4970159" lon="21.1480845"><ele>10.0</ele><time>2026-04-30T13:49:15.86Z</time></trkpt><trkpt lat="38.4969989" lon="21.1478136"><ele>10.666666666666668</ele><time>2026-04-30T13:49:16.861Z</time></trkpt><trkpt lat="38.4969752" lon="21.1475486"><ele>11.333333333333334</ele><time>2026-04-30T13:49:17.862Z</time></trkpt><trkpt lat="38.4969532" lon="21.1472805"><ele>12.0</ele><time>2026-04-30T13:49:18.86Z</time></trkpt><trkpt lat="38.4969209" lon="21.1470127"><ele>13.0</ele><time>2026-04-30T13:49:19.862Z</time></trkpt><trkpt lat="38.496894" lon="21.1467469"><ele>14.0</ele><time>2026-04-30T13:49:20.863Z</time></trkpt><trkpt lat="38.4968729" lon="21.1464828"><ele>15.0</ele><time>2026-04-30T13:49:21.861Z</time></trkpt><trkpt lat="38.496854" lon="21.1462191"><ele>16.0</ele><time>2026-04-30T13:49:22.86Z</time></trkpt><trkpt lat="38.4968331" lon="21.145955"><ele>17.0</ele><time>2026-04-30T13:49:23.86Z</time></trkpt><trkpt lat="38.4968119" lon="21.1456877"><ele>18.0</ele><time>2026-04-30T13:49:24.862Z</time></trkpt><trkpt lat="38.4967903" lon="21.1454235"><ele>18.666666666666668</ele><time>2026-04-30T13:49:25.862Z</time></trkpt><trkpt lat="38.4967697" lon="21.1451615"><ele>19.333333333333336</ele><time>2026-04-30T13:49:26.862Z</time></trkpt><trkpt lat="38.4967484" lon="21.1448998"><ele>20.0</ele><time>2026-04-30T13:49:27.865Z</time></trkpt><trkpt lat="38.4967252" lon="21.1446385"><ele>21.333333333333336</ele><time>2026-04-30T13:49:28.863Z</time></trkpt><trkpt lat="38.4967021" lon="21.1443726"><ele>22.666666666666668</ele><time>2026-04-30T13:49:29.861Z</time></trkpt><trkpt lat="38.4966797" lon="21.1441101"><ele>24.0</ele><time>2026-04-30T13:49:30.862Z</time></trkpt><trkpt lat="38.496646" lon="21.1438479"><ele>24.0</ele><time>2026-04-30T13:49:31.86Z</time></trkpt><trkpt lat="38.4966037" lon="21.1435804"><ele>24.0</ele><time>2026-04-30T13:49:32.861Z</time></trkpt><trkpt lat="38.4965542" lon="21.1433136"><ele>24.0</ele><time>2026-04-30T13:49:33.861Z</time></trkpt><trkpt lat="38.496495" lon="21.1430457"><ele>24.0</ele><time>2026-04-30T13:49:34.858Z</time></trkpt><trkpt lat="38.496429" lon="21.1427788"><ele>24.0</ele><time>2026-04-30T13:49:35.86Z</time></trkpt><trkpt lat="38.4963617" lon="21.1425099"><ele>24.0</ele><time>2026-04-30T13:49:36.861Z</time></trkpt><trkpt lat="38.4962866" lon="21.1422374"><ele>25.333333333333336</ele><time>2026-04-30T13:49:37.863Z</time></trkpt><trkpt lat="38.4962084" lon="21.1419758"><ele>26.666666666666668</ele><time>2026-04-30T13:49:38.859Z</time></trkpt><trkpt lat="38.4961247" lon="21.1417154"><ele>28.0</ele><time>2026-04-30T13:49:39.859Z</time></trkpt><trkpt lat="38.4960395" lon="21.1414581"><ele>28.0</ele><time>2026-04-30T13:49:40.859Z</time></trkpt><trkpt lat="38.4959569" lon="21.1411988"><ele>28.0</ele><time>2026-04-30T13:49:41.859Z</time></trkpt><trkpt lat="38.4958875" lon="21.1409392"><ele>28.0</ele><time>2026-04-30T13:49:42.86Z</time></trkpt><trkpt lat="38.4958341" lon="21.1406727"><ele>28.666666666666668</ele><time>2026-04-30T13:49:43.861Z</time></trkpt><trkpt lat="38.4957798" lon="21.1403984"><ele>29.333333333333336</ele><time>2026-04-30T13:49:44.859Z</time></trkpt><trkpt lat="38.4957386" lon="21.1401185"><ele>30.0</ele><time>2026-04-30T13:49:45.863Z</time></trkpt><trkpt lat="38.4957116" lon="21.1398394"><ele>31.0</ele><time>2026-04-30T13:49:46.86Z</time></trkpt><trkpt lat="38.4956909" lon="21.1395572"><ele>32.0</ele><time>2026-04-30T13:49:47.861Z</time></trkpt><trkpt lat="38.4956813" lon="21.1392729"><ele>33.0</ele><time>2026-04-30T13:49:48.862Z</time></trkpt><trkpt lat="38.4956771" lon="21.1389933"><ele>33.0</ele><time>2026-04-30T13:49:49.858Z</time></trkpt><trkpt lat="38.4956769" lon="21.1387111"><ele>33.0</ele><time>2026-04-30T13:49:50.86Z</time></trkpt><trkpt lat="38.4956751" lon="21.1384322"><ele>33.0</ele><time>2026-04-30T13:49:51.861Z</time></trkpt><trkpt lat="38.4956714" lon="21.1381554"><ele>34.0</ele><time>2026-04-30T13:49:52.861Z</time></trkpt><trkpt lat="38.4956667" lon="21.1378841"><ele>35.0</ele><time>2026-04-30T13:49:53.862Z</time></trkpt><trkpt lat="38.4956681" lon="21.1376134"><ele>36.0</ele><time>2026-04-30T13:49:54.862Z</time></trkpt><trkpt lat="38.4956681" lon="21.1373509"><ele>36.666666666666664</ele><time>2026-04-30T13:49:55.86Z</time></trkpt><trkpt lat="38.4956694" lon="21.1370852"><ele>37.33333333333333</ele><time>2026-04-30T13:49:56.861Z</time></trkpt><trkpt lat="38.4956623" lon="21.136824"><ele>38.0</ele><time>2026-04-30T13:49:57.86Z</time></trkpt><trkpt lat="38.4956487" lon="21.1365656"><ele>37.666666666666664</ele><time>2026-04-30T13:49:58.861Z</time></trkpt><trkpt lat="38.4956129" lon="21.1363057"><ele>37.333333333333336</ele><time>2026-04-30T13:49:59.861Z</time></trkpt><trkpt lat="38.4955705" lon="21.1360388"><ele>37.0</ele><time>2026-04-30T13:50:00.861Z</time></trkpt><trkpt lat="38.4955216" lon="21.1357728"><ele>37.66666666666667</ele><time>2026-04-30T13:50:01.86Z</time></trkpt><trkpt lat="38.4954581" lon="21.1355094"><ele>38.333333333333336</ele><time>2026-04-30T13:50:02.861Z</time></trkpt><trkpt lat="38.4953866" lon="21.1352493"><ele>39.0</ele><time>2026-04-30T13:50:03.862Z</time></trkpt><trkpt lat="38.4953037" lon="21.1349928"><ele>41.333333333333336</ele><time>2026-04-30T13:50:04.861Z</time></trkpt><trkpt lat="38.4952191" lon="21.1347373"><ele>43.66666666666667</ele><time>2026-04-30T13:50:05.862Z</time></trkpt><trkpt lat="38.4951354" lon="21.1344741"><ele>46.0</ele><time>2026-04-30T13:50:06.86Z</time></trkpt><trkpt lat="38.495053" lon="21.1342189"><ele>46.66666666666667</ele><time>2026-04-30T13:50:07.861Z</time></trkpt><trkpt lat="38.4949874" lon="21.1339606"><ele>47.333333333333336</ele><time>2026-04-30T13:50:08.858Z</time></trkpt><trkpt lat="38.4949422" lon="21.1336941"><ele>48.0</ele><time>2026-04-30T13:50:09.859Z</time></trkpt><trkpt lat="38.4949038" lon="21.1334205"><ele>48.66666666666667</ele><time>2026-04-30T13:50:10.861Z</time></trkpt><trkpt lat="38.4948855" lon="21.1331456"><ele>49.333333333333336</ele><time>2026-04-30T13:50:11.86Z</time></trkpt><trkpt lat="38.4948847" lon="21.1328689"><ele>50.0</ele><time>2026-04-30T13:50:12.863Z</time></trkpt><trkpt lat="38.4949023" lon="21.1325919"><ele>52.333333333333336</ele><time>2026-04-30T13:50:13.859Z</time></trkpt><trkpt lat="38.4949338" lon="21.1323135"><ele>54.66666666666667</ele><time>2026-04-30T13:50:14.859Z</time></trkpt><trkpt lat="38.4949831" lon="21.1320405"><ele>57.0</ele><time>2026-04-30T13:50:15.86Z</time></trkpt><trkpt lat="38.4950464" lon="21.1317702"><ele>60.33333333333333</ele><time>2026-04-30T13:50:16.86Z</time></trkpt><trkpt lat="38.4951131" lon="21.1315012"><ele>63.666666666666664</ele><time>2026-04-30T13:50:17.861Z</time></trkpt><trkpt lat="38.4951779" lon="21.1312341"><ele>67.0</ele><time>2026-04-30T13:50:18.859Z</time></trkpt><trkpt lat="38.4952509" lon="21.1309715"><ele>68.66666666666666</ele><time>2026-04-30T13:50:19.859Z</time></trkpt><trkpt lat="38.495312" lon="21.1307084"><ele>70.33333333333333</ele><time>2026-04-30T13:50:20.861Z</time></trkpt><trkpt lat="38.495362" lon="21.13044"><ele>72.0</ele><time>2026-04-30T13:50:21.861Z</time></trkpt><trkpt lat="38.4953953" lon="21.130159"><ele>71.0</ele><time>2026-04-30T13:50:22.86Z</time></trkpt><trkpt lat="38.4954094" lon="21.1298843"><ele>70.0</ele><time>2026-04-30T13:50:23.862Z</time></trkpt><trkpt lat="38.4954086" lon="21.1296037"><ele>69.0</ele><time>2026-04-30T13:50:24.859Z</time></trkpt><trkpt lat="38.4954046" lon="21.1293214"><ele>68.33333333333333</ele><time>2026-04-30T13:50:25.862Z</time></trkpt><trkpt lat="38.4953929" lon="21.1290452"><ele>67.66666666666666</ele><time>2026-04-30T13:50:26.86Z</time></trkpt><trkpt lat="38.4953851" lon="21.128765"><ele>67.0</ele><time>2026-04-30T13:50:27.861Z</time></trkpt><trkpt lat="38.4953878" lon="21.1284859"><ele>66.0</ele><time>2026-04-30T13:50:28.863Z</time></trkpt><trkpt lat="38.4954006" lon="21.1282086"><ele>65.0</ele><time>2026-04-30T13:50:29.859Z</time></trkpt><trkpt lat="38.4954275" lon="21.1279309"><ele>64.0</ele><time>2026-04-30T13:50:30.859Z</time></trkpt><trkpt lat="38.4954708" lon="21.1276601"><ele>65.66666666666666</ele><time>2026-04-30T13:50:31.86Z</time></trkpt><trkpt lat="38.4955298" lon="21.1273908"><ele>67.33333333333333</ele><time>2026-04-30T13:50:32.86Z</time></trkpt><trkpt lat="38.4956061" lon="21.1271251"><ele>69.0</ele><time>2026-04-30T13:50:33.86Z</time></trkpt><trkpt lat="38.4956961" lon="21.1268636"><ele>69.0</ele><time>2026-04-30T13:50:34.861Z</time></trkpt><trkpt lat="38.4957984" lon="21.1266049"><ele>69.0</ele><time>2026-04-30T13:50:35.862Z</time></trkpt><trkpt lat="38.4959053" lon="21.1263423"><ele>71.0</ele><time>2026-04-30T13:50:36.862Z</time></trkpt><trkpt lat="38.4960183" lon="21.1260851"><ele>73.0</ele><time>2026-04-30T13:50:37.86Z</time></trkpt><trkpt lat="38.496128" lon="21.125824"><ele>75.0</ele><time>2026-04-30T13:50:38.86Z</time></trkpt><trkpt lat="38.4962353" lon="21.1255672"><ele>77.0</ele><time>2026-04-30T13:50:39.86Z</time></trkpt><trkpt lat="38.4963427" lon="21.1253096"><ele>77.0</ele><time>2026-04-30T13:50:40.859Z</time></trkpt><trkpt lat="38.4964497" lon="21.1250554"><ele>77.0</ele><time>2026-04-30T13:50:41.861Z</time></trkpt><trkpt lat="38.4965614" lon="21.1248081"><ele>77.0</ele><time>2026-04-30T13:50:42.861Z</time></trkpt><trkpt lat="38.4966669" lon="21.1245703"><ele>77.0</ele><time>2026-04-30T13:50:43.862Z</time></trkpt><trkpt lat="38.4967708" lon="21.1243442"><ele>77.0</ele><time>2026-04-30T13:50:44.861Z</time></trkpt><trkpt lat="38.4968644" lon="21.1241309"><ele>77.0</ele><time>2026-04-30T13:50:45.861Z</time></trkpt><trkpt lat="38.4969479" lon="21.1239251"><ele>75.66666666666667</ele><time>2026-04-30T13:50:46.859Z</time></trkpt><trkpt lat="38.4970338" lon="21.1237319"><ele>74.33333333333333</ele><time>2026-04-30T13:50:47.86Z</time></trkpt><trkpt lat="38.4971046" lon="21.1235563"><ele>73.0</ele><time>2026-04-30T13:50:48.858Z</time></trkpt><trkpt lat="38.4971621" lon="21.1233873"><ele>73.75</ele><time>2026-04-30T13:50:49.859Z</time></trkpt><trkpt lat="38.4971922" lon="21.1232262"><ele>74.5</ele><time>2026-04-30T13:50:50.861Z</time></trkpt><trkpt lat="38.4971915" lon="21.1230746"><ele>75.25</ele><time>2026-04-30T13:50:51.861Z</time></trkpt><trkpt lat="38.4971642" lon="21.1229286"><ele>76.0</ele><time>2026-04-30T13:50:52.859Z</time></trkpt><trkpt lat="38.4971017" lon="21.1227869"><ele>77.66666666666666</ele><time>2026-04-30T13:50:53.86Z</time></trkpt><trkpt lat="38.4970019" lon="21.122627"><ele>79.33333333333333</ele><time>2026-04-30T13:50:54.862Z</time></trkpt><trkpt lat="38.4968671" lon="21.1224525"><ele>81.0</ele><time>2026-04-30T13:50:55.861Z</time></trkpt><trkpt lat="38.4967392" lon="21.1222671"><ele>81.33333333333333</ele><time>2026-04-30T13:50:56.861Z</time></trkpt><trkpt lat="38.4966233" lon="21.1220856"><ele>81.66666666666666</ele><time>2026-04-30T13:50:57.86Z</time></trkpt><trkpt lat="38.4965096" lon="21.1219192"><ele>82.0</ele><time>2026-04-30T13:50:58.862Z</time></trkpt><trkpt lat="38.4964111" lon="21.12176"><ele>82.0</ele><time>2026-04-30T13:50:59.86Z</time></trkpt><trkpt lat="38.4963284" lon="21.1216096"><ele>82.0</ele><time>2026-04-30T13:51:00.859Z</time></trkpt><trkpt lat="38.4963772" lon="21.1214719"><ele>82.0</ele><time>2026-04-30T13:51:01.859Z</time></trkpt><trkpt lat="38.4964105" lon="21.1213394"><ele>82.0</ele><time>2026-04-30T13:51:02.861Z</time></trkpt><trkpt lat="38.4964849" lon="21.1212194"><ele>84.0</ele><time>2026-04-30T13:51:03.861Z</time></trkpt><trkpt lat="38.496597" lon="21.1211262"><ele>86.0</ele><time>2026-04-30T13:51:04.862Z</time></trkpt><trkpt lat="38.4967199" lon="21.1210285"><ele>88.0</ele><time>2026-04-30T13:51:05.86Z</time></trkpt><trkpt lat="38.4968566" lon="21.1209393"><ele>90.0</ele><time>2026-04-30T13:51:06.861Z</time></trkpt><trkpt lat="38.4970002" lon="21.1208662"><ele>89.66666666666667</ele><time>2026-04-30T13:51:07.861Z</time></trkpt><trkpt lat="38.497143" lon="21.1208135"><ele>89.33333333333334</ele><time>2026-04-30T13:51:08.861Z</time></trkpt><trkpt lat="38.4973115" lon="21.1208007"><ele>89.0</ele><time>2026-04-30T13:51:09.86Z</time></trkpt><trkpt lat="38.4974762" lon="21.1208098"><ele>89.0</ele><time>2026-04-30T13:51:10.859Z</time></trkpt><trkpt lat="38.4976343" lon="21.1208265"><ele>89.0</ele><time>2026-04-30T13:51:11.86Z</time></trkpt><trkpt lat="38.4977878" lon="21.1208399"><ele>89.0</ele><time>2026-04-30T13:51:12.857Z</time></trkpt><trkpt lat="38.49794" lon="21.1208399"><ele>89.75</ele><time>2026-04-30T13:51:13.861Z</time></trkpt><trkpt lat="38.4980865" lon="21.1208107"><ele>90.5</ele><time>2026-04-30T13:51:14.862Z</time></trkpt><trkpt lat="38.4982354" lon="21.1207662"><ele>91.25</ele><time>2026-04-30T13:51:15.86Z</time></trkpt><trkpt lat="38.4983708" lon="21.1207026"><ele>92.0</ele><time>2026-04-30T13:51:16.863Z</time></trkpt><trkpt lat="38.4984892" lon="21.120636"><ele>93.19999999999999</ele><time>2026-04-30T13:51:17.86Z</time></trkpt><trkpt lat="38.4986041" lon="21.1205731"><ele>94.4</ele><time>2026-04-30T13:51:18.86Z</time></trkpt><trkpt lat="38.4987149" lon="21.1205268"><ele>95.6</ele><time>2026-04-30T13:51:19.86Z</time></trkpt><trkpt lat="38.4988148" lon="21.1205"><ele>96.80000000000001</ele><time>2026-04-30T13:51:20.861Z</time></trkpt><trkpt lat="38.4989188" lon="21.1204899"><ele>98.0</ele><time>2026-04-30T13:51:21.86Z</time></trkpt><trkpt lat="38.4990206" lon="21.1204964"><ele>98.0</ele><time>2026-04-30T13:51:22.859Z</time></trkpt><trkpt lat="38.4991216" lon="21.1205269"><ele>98.0</ele><time>2026-04-30T13:51:23.859Z</time></trkpt><trkpt lat="38.4992322" lon="21.1205692"><ele>98.0</ele><time>2026-04-30T13:51:24.86Z</time></trkpt><trkpt lat="38.4993439" lon="21.1206287"><ele>98.0</ele><time>2026-04-30T13:51:25.86Z</time></trkpt><trkpt lat="38.4994675" lon="21.1207006"><ele>97.66666666666666</ele><time>2026-04-30T13:51:26.86Z</time></trkpt><trkpt lat="38.4996005" lon="21.1207843"><ele>97.33333333333334</ele><time>2026-04-30T13:51:27.859Z</time></trkpt><trkpt lat="38.4997363" lon="21.1208624"><ele>97.0</ele><time>2026-04-30T13:51:28.861Z</time></trkpt><trkpt lat="38.4998785" lon="21.1209455"><ele>97.0</ele><time>2026-04-30T13:51:29.861Z</time></trkpt><trkpt lat="38.5000259" lon="21.1210276"><ele>97.0</ele><time>2026-04-30T13:51:30.862Z</time></trkpt><trkpt lat="38.5001758" lon="21.1211155"><ele>97.0</ele><time>2026-04-30T13:51:31.862Z</time></trkpt><trkpt lat="38.5003241" lon="21.1212084"><ele>95.0</ele><time>2026-04-30T13:51:32.86Z</time></trkpt><trkpt lat="38.5004752" lon="21.1213062"><ele>93.0</ele><time>2026-04-30T13:51:33.86Z</time></trkpt><trkpt lat="38.5006306" lon="21.1214133"><ele>91.0</ele><time>2026-04-30T13:51:34.859Z</time></trkpt><trkpt lat="38.5007812" lon="21.1215301"><ele>96.33333333333333</ele><time>2026-04-30T13:51:35.861Z</time></trkpt><trkpt lat="38.5009326" lon="21.1216517"><ele>101.66666666666666</ele><time>2026-04-30T13:51:36.861Z</time></trkpt><trkpt lat="38.501085" lon="21.1217785"><ele>107.0</ele><time>2026-04-30T13:51:37.863Z</time></trkpt><trkpt lat="38.5012287" lon="21.1219204"><ele>103.0</ele><time>2026-04-30T13:51:38.86Z</time></trkpt><trkpt lat="38.5013702" lon="21.1220647"><ele>99.0</ele><time>2026-04-30T13:51:39.86Z</time></trkpt><trkpt lat="38.5015154" lon="21.1222089"><ele>95.0</ele><time>2026-04-30T13:51:40.861Z</time></trkpt><trkpt lat="38.5016563" lon="21.1223576"><ele>99.66666666666667</ele><time>2026-04-30T13:51:41.86Z</time></trkpt><trkpt lat="38.5017951" lon="21.1225057"><ele>104.33333333333334</ele><time>2026-04-30T13:51:42.861Z</time></trkpt><trkpt lat="38.5019357" lon="21.1226571"><ele>109.0</ele><time>2026-04-30T13:51:43.862Z</time></trkpt><trkpt lat="38.5020645" lon="21.1228009"><ele>107.66666666666667</ele><time>2026-04-30T13:51:44.863Z</time></trkpt><trkpt lat="38.5021721" lon="21.1229583"><ele>106.33333333333334</ele><time>2026-04-30T13:51:45.861Z</time></trkpt><trkpt lat="38.5022674" lon="21.1231191"><ele>105.0</ele><time>2026-04-30T13:51:46.862Z</time></trkpt><trkpt lat="38.5023465" lon="21.1232997"><ele>105.0</ele><time>2026-04-30T13:51:47.862Z</time></trkpt><trkpt lat="38.5024038" lon="21.1234896"><ele>105.0</ele><time>2026-04-30T13:51:48.861Z</time></trkpt><trkpt lat="38.5024519" lon="21.1236984"><ele>105.0</ele><time>2026-04-30T13:51:49.859Z</time></trkpt><trkpt lat="38.5024886" lon="21.1239184"><ele>108.33333333333334</ele><time>2026-04-30T13:51:50.862Z</time></trkpt><trkpt lat="38.5025243" lon="21.1241252"><ele>111.66666666666667</ele><time>2026-04-30T13:51:51.86Z</time></trkpt><trkpt lat="38.5025574" lon="21.1243211"><ele>115.0</ele><time>2026-04-30T13:51:52.86Z</time></trkpt><trkpt lat="38.5025886" lon="21.1244993"><ele>115.0</ele><time>2026-04-30T13:51:53.861Z</time></trkpt><trkpt lat="38.50263" lon="21.1246678"><ele>115.0</ele><time>2026-04-30T13:51:54.86Z</time></trkpt><trkpt lat="38.5026752" lon="21.1247967"><ele>115.0</ele><time>2026-04-30T13:51:55.86Z</time></trkpt><trkpt lat="38.5027379" lon="21.1248946"><ele>115.0</ele><time>2026-04-30T13:51:56.862Z</time></trkpt><trkpt lat="38.502821" lon="21.12496"><ele>115.0</ele><time>2026-04-30T13:51:57.86Z</time></trkpt><trkpt lat="38.5029121" lon="21.1249842"><ele>115.0</ele><time>2026-04-30T13:51:58.859Z</time></trkpt><trkpt lat="38.5030047" lon="21.1249566"><ele>115.0</ele><time>2026-04-30T13:51:59.86Z</time></trkpt><trkpt lat="38.5030981" lon="21.1248744"><ele>115.0</ele><time>2026-04-30T13:52:00.862Z</time></trkpt><trkpt lat="38.5031734" lon="21.1247569"><ele>115.0</ele><time>2026-04-30T13:52:01.861Z</time></trkpt><trkpt lat="38.5032386" lon="21.1246141"><ele>115.0</ele><time>2026-04-30T13:52:02.861Z</time></trkpt><trkpt lat="38.5032969" lon="21.1244736"><ele>115.0</ele><time>2026-04-30T13:52:03.86Z</time></trkpt><trkpt lat="38.5033556" lon="21.1243383"><ele>115.0</ele><time>2026-04-30T13:52:04.862Z</time></trkpt><trkpt lat="38.5034282" lon="21.1242208"><ele>115.0</ele><time>2026-04-30T13:52:05.861Z</time></trkpt><trkpt lat="38.5035409" lon="21.1241284"><ele>113.33333333333334</ele><time>2026-04-30T13:52:06.859Z</time></trkpt><trkpt lat="38.503658" lon="21.1240372"><ele>111.66666666666666</ele><time>2026-04-30T13:52:07.862Z</time></trkpt><trkpt lat="38.5038335" lon="21.1240128"><ele>110.0</ele><time>2026-04-30T13:52:08.861Z</time></trkpt><trkpt lat="38.5039924" lon="21.123981"><ele>113.0</ele><time>2026-04-30T13:52:09.859Z</time></trkpt><trkpt lat="38.5041377" lon="21.1239539"><ele>116.0</ele><time>2026-04-30T13:52:10.86Z</time></trkpt><trkpt lat="38.5042725" lon="21.1239297"><ele>119.0</ele><time>2026-04-30T13:52:11.861Z</time></trkpt><trkpt lat="38.5043855" lon="21.1238919"><ele>122.0</ele><time>2026-04-30T13:52:12.86Z</time></trkpt><trkpt lat="38.5044734" lon="21.1238252"><ele>122.0</ele><time>2026-04-30T13:52:13.861Z</time></trkpt><trkpt lat="38.504539" lon="21.1237332"><ele>121.99999999999999</ele><time>2026-04-30T13:52:14.86Z</time></trkpt><trkpt lat="38.5045768" lon="21.1236227"><ele>121.99999999999999</ele><time>2026-04-30T13:52:15.861Z</time></trkpt><trkpt lat="38.5045707" lon="21.1234989"><ele>122.0</ele><time>2026-04-30T13:52:16.861Z</time></trkpt><trkpt lat="38.504528" lon="21.123378"><ele>122.0</ele><time>2026-04-30T13:52:17.859Z</time></trkpt><trkpt lat="38.5044586" lon="21.1232523"><ele>124.75</ele><time>2026-04-30T13:52:18.86Z</time></trkpt><trkpt lat="38.5043606" lon="21.1231335"><ele>127.5</ele><time>2026-04-30T13:52:19.859Z</time></trkpt><trkpt lat="38.504249" lon="21.1230203"><ele>130.25</ele><time>2026-04-30T13:52:20.861Z</time></trkpt><trkpt lat="38.504145" lon="21.1229116"><ele>133.0</ele><time>2026-04-30T13:52:21.859Z</time></trkpt><trkpt lat="38.5040416" lon="21.1227784"><ele>133.0</ele><time>2026-04-30T13:52:22.859Z</time></trkpt><trkpt lat="38.5039505" lon="21.1226263"><ele>133.0</ele><time>2026-04-30T13:52:23.858Z</time></trkpt><trkpt lat="38.5038764" lon="21.1224448"><ele>133.0</ele><time>2026-04-30T13:52:24.861Z</time></trkpt><trkpt lat="38.5038362" lon="21.1222848"><ele>133.0</ele><time>2026-04-30T13:52:25.86Z</time></trkpt><trkpt lat="38.5038138" lon="21.1221312"><ele>132.4</ele><time>2026-04-30T13:52:26.862Z</time></trkpt><trkpt lat="38.5038009" lon="21.1219891"><ele>131.8</ele><time>2026-04-30T13:52:27.86Z</time></trkpt><trkpt lat="38.5038424" lon="21.1218727"><ele>131.2</ele><time>2026-04-30T13:52:28.862Z</time></trkpt><trkpt lat="38.5039019" lon="21.1217752"><ele>130.6</ele><time>2026-04-30T13:52:29.861Z</time></trkpt><trkpt lat="38.5039975" lon="21.1217028"><ele>130.0</ele><time>2026-04-30T13:52:30.86Z</time></trkpt><trkpt lat="38.5041199" lon="21.1216763"><ele>130.0</ele><time>2026-04-30T13:52:31.861Z</time></trkpt><trkpt lat="38.5042589" lon="21.1216451"><ele>130.0</ele><time>2026-04-30T13:52:32.863Z</time></trkpt><trkpt lat="38.5044126" lon="21.1216279"><ele>130.0</ele><time>2026-04-30T13:52:33.861Z</time></trkpt><trkpt lat="38.5045731" lon="21.1216127"><ele>130.66666666666669</ele><time>2026-04-30T13:52:34.859Z</time></trkpt><trkpt lat="38.5047413" lon="21.1215997"><ele>131.33333333333334</ele><time>2026-04-30T13:52:35.859Z</time></trkpt><trkpt lat="38.5049011" lon="21.1215802"><ele>132.0</ele><time>2026-04-30T13:52:36.862Z</time></trkpt><trkpt lat="38.5050524" lon="21.121569"><ele>132.0</ele><time>2026-04-30T13:52:37.86Z</time></trkpt><trkpt lat="38.505206" lon="21.1215826"><ele>132.0</ele><time>2026-04-30T13:52:38.861Z</time></trkpt><trkpt lat="38.5053516" lon="21.1216198"><ele>132.0</ele><time>2026-04-30T13:52:39.859Z</time></trkpt><trkpt lat="38.5054845" lon="21.1216768"><ele>132.0</ele><time>2026-04-30T13:52:40.86Z</time></trkpt><trkpt lat="38.505615" lon="21.1217406"><ele>131.75</ele><time>2026-04-30T13:52:41.86Z</time></trkpt><trkpt lat="38.5057304" lon="21.1217902"><ele>131.5</ele><time>2026-04-30T13:52:42.861Z</time></trkpt><trkpt lat="38.5058455" lon="21.1218216"><ele>131.25</ele><time>2026-04-30T13:52:43.86Z</time></trkpt><trkpt lat="38.5059512" lon="21.1218158"><ele>131.0</ele><time>2026-04-30T13:52:44.86Z</time></trkpt><trkpt lat="38.5060493" lon="21.1217693"><ele>131.0</ele><time>2026-04-30T13:52:45.862Z</time></trkpt><trkpt lat="38.506135" lon="21.121683"><ele>131.0</ele><time>2026-04-30T13:52:46.86Z</time></trkpt><trkpt lat="38.5062073" lon="21.1215605"><ele>131.0</ele><time>2026-04-30T13:52:47.859Z</time></trkpt><trkpt lat="38.5062565" lon="21.1214279"><ele>131.0</ele><time>2026-04-30T13:52:48.86Z</time></trkpt><trkpt lat="38.5063126" lon="21.1213072"><ele>129.2</ele><time>2026-04-30T13:52:49.86Z</time></trkpt><trkpt lat="38.5063819" lon="21.1212058"><ele>127.39999999999999</ele><time>2026-04-30T13:52:50.862Z</time></trkpt><trkpt lat="38.5064664" lon="21.1211308"><ele>125.6</ele><time>2026-04-30T13:52:51.861Z</time></trkpt><trkpt lat="38.5065575" lon="21.1210846"><ele>123.8</ele><time>2026-04-30T13:52:52.861Z</time></trkpt><trkpt lat="38.5066647" lon="21.1210784"><ele>122.0</ele><time>2026-04-30T13:52:53.861Z</time></trkpt><trkpt lat="38.5067694" lon="21.1211313"><ele>122.0</ele><time>2026-04-30T13:52:54.86Z</time></trkpt><trkpt lat="38.5068686" lon="21.1212098"><ele>122.0</ele><time>2026-04-30T13:52:55.861Z</time></trkpt><trkpt lat="38.5069518" lon="21.1213323"><ele>122.0</ele><time>2026-04-30T13:52:56.86Z</time></trkpt><trkpt lat="38.5070147" lon="21.1214963"><ele>122.0</ele><time>2026-04-30T13:52:57.86Z</time></trkpt><trkpt lat="38.50707" lon="21.1216704"><ele>119.33333333333333</ele><time>2026-04-30T13:52:58.86Z</time></trkpt><trkpt lat="38.5071287" lon="21.1218635"><ele>116.66666666666666</ele><time>2026-04-30T13:52:59.859Z</time></trkpt><trkpt lat="38.507187" lon="21.1220471"><ele>114.0</ele><time>2026-04-30T13:53:00.862Z</time></trkpt><trkpt lat="38.507246" lon="21.1222368"><ele>115.25</ele><time>2026-04-30T13:53:01.863Z</time></trkpt><trkpt lat="38.5073035" lon="21.1224144"><ele>116.5</ele><time>2026-04-30T13:53:02.861Z</time></trkpt><trkpt lat="38.5073628" lon="21.1225808"><ele>117.75</ele><time>2026-04-30T13:53:03.861Z</time></trkpt><trkpt lat="38.5074485" lon="21.1227198"><ele>119.0</ele><time>2026-04-30T13:53:04.859Z</time></trkpt><trkpt lat="38.5075543" lon="21.1228254"><ele>119.0</ele><time>2026-04-30T13:53:05.859Z</time></trkpt><trkpt lat="38.5076758" lon="21.1229002"><ele>119.0</ele><time>2026-04-30T13:53:06.86Z</time></trkpt><trkpt lat="38.5078044" lon="21.1229415"><ele>119.0</ele><time>2026-04-30T13:53:07.859Z</time></trkpt><trkpt lat="38.5079471" lon="21.1229876"><ele>119.0</ele><time>2026-04-30T13:53:08.859Z</time></trkpt><trkpt lat="38.5080908" lon="21.1230326"><ele>119.25</ele><time>2026-04-30T13:53:09.861Z</time></trkpt><trkpt lat="38.5082394" lon="21.1230693"><ele>119.5</ele><time>2026-04-30T13:53:10.859Z</time></trkpt><trkpt lat="38.5083631" lon="21.1230945"><ele>119.75</ele><time>2026-04-30T13:53:11.862Z</time></trkpt><trkpt lat="38.5084796" lon="21.1231037"><ele>120.0</ele><time>2026-04-30T13:53:12.861Z</time></trkpt><trkpt lat="38.5085889" lon="21.1230823"><ele>120.0</ele><time>2026-04-30T13:53:13.86Z</time></trkpt><trkpt lat="38.5086845" lon="21.1230153"><ele>120.0</ele><time>2026-04-30T13:53:14.862Z</time></trkpt><trkpt lat="38.508756" lon="21.1229166"><ele>120.0</ele><time>2026-04-30T13:53:15.859Z</time></trkpt><trkpt lat="38.5087973" lon="21.1227866"><ele>120.0</ele><time>2026-04-30T13:53:16.861Z</time></trkpt><trkpt lat="38.5088327" lon="21.122654"><ele>120.0</ele><time>2026-04-30T13:53:17.859Z</time></trkpt><trkpt lat="38.5087764" lon="21.1224803"><ele>120.5</ele><time>2026-04-30T13:53:18.859Z</time></trkpt><trkpt lat="38.5087229" lon="21.1223116"><ele>121.0</ele><time>2026-04-30T13:53:19.862Z</time></trkpt><trkpt lat="38.5086563" lon="21.1221366"><ele>121.5</ele><time>2026-04-30T13:53:20.859Z</time></trkpt><trkpt lat="38.5085958" lon="21.1219557"><ele>122.0</ele><time>2026-04-30T13:53:21.859Z</time></trkpt><trkpt lat="38.5085471" lon="21.1217591"><ele>122.66666666666666</ele><time>2026-04-30T13:53:22.86Z</time></trkpt><trkpt lat="38.5085229" lon="21.1215481"><ele>123.33333333333334</ele><time>2026-04-30T13:53:23.861Z</time></trkpt><trkpt lat="38.5085204" lon="21.1213244"><ele>124.0</ele><time>2026-04-30T13:53:24.859Z</time></trkpt><trkpt lat="38.5085321" lon="21.1211229"><ele>124.0</ele><time>2026-04-30T13:53:25.86Z</time></trkpt><trkpt lat="38.508543" lon="21.12094"><ele>124.0</ele><time>2026-04-30T13:53:26.859Z</time></trkpt><trkpt lat="38.5085663" lon="21.1207768"><ele>124.0</ele><time>2026-04-30T13:53:27.865Z</time></trkpt><trkpt lat="38.5086193" lon="21.1206302"><ele>124.0</ele><time>2026-04-30T13:53:28.86Z</time></trkpt><trkpt lat="38.5086892" lon="21.1205075"><ele>127.25</ele><time>2026-04-30T13:53:29.86Z</time></trkpt><trkpt lat="38.508771" lon="21.1203995"><ele>130.5</ele><time>2026-04-30T13:53:30.86Z</time></trkpt><trkpt lat="38.5088999" lon="21.1203639"><ele>133.75</ele><time>2026-04-30T13:53:31.863Z</time></trkpt><trkpt lat="38.5090339" lon="21.1203372"><ele>137.0</ele><time>2026-04-30T13:53:32.862Z</time></trkpt><trkpt lat="38.50914" lon="21.1203167"><ele>137.0</ele><time>2026-04-30T13:53:33.863Z</time></trkpt><trkpt lat="38.5092385" lon="21.1202696"><ele>137.0</ele><time>2026-04-30T13:53:34.859Z</time></trkpt><trkpt lat="38.5093155" lon="21.1201985"><ele>137.0</ele><time>2026-04-30T13:53:35.859Z</time></trkpt><trkpt lat="38.50936" lon="21.120079"><ele>137.0</ele><time>2026-04-30T13:53:36.861Z</time></trkpt><trkpt lat="38.5093692" lon="21.1199344"><ele>137.0</ele><time>2026-04-30T13:53:37.86Z</time></trkpt><trkpt lat="38.5093487" lon="21.1197717"><ele>138.75</ele><time>2026-04-30T13:53:38.858Z</time></trkpt><trkpt lat="38.5093101" lon="21.1195966"><ele>140.5</ele><time>2026-04-30T13:53:39.861Z</time></trkpt><trkpt lat="38.509266" lon="21.119419"><ele>142.25</ele><time>2026-04-30T13:53:40.859Z</time></trkpt><trkpt lat="38.5092146" lon="21.1192379"><ele>144.0</ele><time>2026-04-30T13:53:41.858Z</time></trkpt><trkpt lat="38.5091629" lon="21.1190735"><ele>147.5</ele><time>2026-04-30T13:53:42.868Z</time></trkpt><trkpt lat="38.5090943" lon="21.1189362"><ele>151.0</ele><time>2026-04-30T13:53:43.86Z</time></trkpt><trkpt lat="38.5090065" lon="21.1188202"><ele>154.5</ele><time>2026-04-30T13:53:44.859Z</time></trkpt><trkpt lat="38.5088962" lon="21.1187385"><ele>158.0</ele><time>2026-04-30T13:53:45.859Z</time></trkpt><trkpt lat="38.5087743" lon="21.1186854"><ele>155.0</ele><time>2026-04-30T13:53:46.863Z</time></trkpt><trkpt lat="38.5086506" lon="21.1186455"><ele>152.0</ele><time>2026-04-30T13:53:47.86Z</time></trkpt><trkpt lat="38.5085348" lon="21.1186021"><ele>149.0</ele><time>2026-04-30T13:53:48.861Z</time></trkpt><trkpt lat="38.5084417" lon="21.1185349"><ele>146.0</ele><time>2026-04-30T13:53:49.858Z</time></trkpt><trkpt lat="38.5083593" lon="21.1184381"><ele>146.0</ele><time>2026-04-30T13:53:50.86Z</time></trkpt><trkpt lat="38.5082982" lon="21.1183167"><ele>146.0</ele><time>2026-04-30T13:53:51.861Z</time></trkpt><trkpt lat="38.5082534" lon="21.1181625"><ele>146.0</ele><time>2026-04-30T13:53:52.86Z</time></trkpt><trkpt lat="38.5082453" lon="21.1179853"><ele>146.0</ele><time>2026-04-30T13:53:53.857Z</time></trkpt><trkpt lat="38.5082429" lon="21.1178043"><ele>146.66666666666666</ele><time>2026-04-30T13:53:54.862Z</time></trkpt><trkpt lat="38.5082671" lon="21.1176134"><ele>147.33333333333334</ele><time>2026-04-30T13:53:55.861Z</time></trkpt><trkpt lat="38.5083041" lon="21.1174299"><ele>148.0</ele><time>2026-04-30T13:53:56.861Z</time></trkpt><trkpt lat="38.508378" lon="21.1172513"><ele>148.0</ele><time>2026-04-30T13:53:57.86Z</time></trkpt><trkpt lat="38.5084655" lon="21.1170977"><ele>148.0</ele><time>2026-04-30T13:53:58.86Z</time></trkpt><trkpt lat="38.5085623" lon="21.1169321"><ele>148.0</ele><time>2026-04-30T13:53:59.862Z</time></trkpt><trkpt lat="38.5086459" lon="21.116756"><ele>148.0</ele><time>2026-04-30T13:54:00.86Z</time></trkpt><trkpt lat="38.5087387" lon="21.1165919"><ele>148.0</ele><time>2026-04-30T13:54:01.859Z</time></trkpt><trkpt lat="38.5088258" lon="21.1164434"><ele>148.0</ele><time>2026-04-30T13:54:02.859Z</time></trkpt><trkpt lat="38.5088968" lon="21.1162984"><ele>148.0</ele><time>2026-04-30T13:54:03.86Z</time></trkpt><trkpt lat="38.5089531" lon="21.116158"><ele>152.2</ele><time>2026-04-30T13:54:04.86Z</time></trkpt><trkpt lat="38.5089882" lon="21.1160275"><ele>156.4</ele><time>2026-04-30T13:54:05.859Z</time></trkpt><trkpt lat="38.5089862" lon="21.1158962"><ele>160.6</ele><time>2026-04-30T13:54:06.86Z</time></trkpt><trkpt lat="38.5089514" lon="21.1157807"><ele>164.79999999999998</ele><time>2026-04-30T13:54:07.86Z</time></trkpt><trkpt lat="38.5088892" lon="21.1157005"><ele>169.0</ele><time>2026-04-30T13:54:08.859Z</time></trkpt><trkpt lat="38.5087867" lon="21.1156638"><ele>170.25</ele><time>2026-04-30T13:54:09.86Z</time></trkpt><trkpt lat="38.5086683" lon="21.1156731"><ele>171.5</ele><time>2026-04-30T13:54:10.861Z</time></trkpt><trkpt lat="38.5085424" lon="21.1157188"><ele>172.75</ele><time>2026-04-30T13:54:11.861Z</time></trkpt><trkpt lat="38.5084141" lon="21.1157864"><ele>174.0</ele><time>2026-04-30T13:54:12.86Z</time></trkpt><trkpt lat="38.5082785" lon="21.1158608"><ele>170.5</ele><time>2026-04-30T13:54:13.86Z</time></trkpt><trkpt lat="38.5081449" lon="21.1159252"><ele>167.0</ele><time>2026-04-30T13:54:14.859Z</time></trkpt><trkpt lat="38.5080157" lon="21.1159902"><ele>163.5</ele><time>2026-04-30T13:54:15.859Z</time></trkpt><trkpt lat="38.5079049" lon="21.1160325"><ele>160.0</ele><time>2026-04-30T13:54:16.859Z</time></trkpt><trkpt lat="38.5077846" lon="21.1160481"><ele>160.0</ele><time>2026-04-30T13:54:17.861Z</time></trkpt><trkpt lat="38.5076622" lon="21.1160212"><ele>160.0</ele><time>2026-04-30T13:54:18.862Z</time></trkpt><trkpt lat="38.5075571" lon="21.1159889"><ele>160.0</ele><time>2026-04-30T13:54:19.861Z</time></trkpt><trkpt lat="38.5074538" lon="21.1159079"><ele>160.0</ele><time>2026-04-30T13:54:20.858Z</time></trkpt><trkpt lat="38.5074198" lon="21.1157298"><ele>161.0</ele><time>2026-04-30T13:54:21.859Z</time></trkpt><trkpt lat="38.5073833" lon="21.1155948"><ele>162.0</ele><time>2026-04-30T13:54:22.861Z</time></trkpt><trkpt lat="38.5073927" lon="21.1154351"><ele>163.0</ele><time>2026-04-30T13:54:23.86Z</time></trkpt><trkpt lat="38.5074056" lon="21.1152707"><ele>164.0</ele><time>2026-04-30T13:54:24.863Z</time></trkpt><trkpt lat="38.5074999" lon="21.1150988"><ele>164.0</ele><time>2026-04-30T13:54:25.86Z</time></trkpt><trkpt lat="38.5075959" lon="21.1149223"><ele>164.0</ele><time>2026-04-30T13:54:26.862Z</time></trkpt><trkpt lat="38.5077061" lon="21.1147352"><ele>164.0</ele><time>2026-04-30T13:54:27.86Z</time></trkpt><trkpt lat="38.5078236" lon="21.1145426"><ele>163.66666666666666</ele><time>2026-04-30T13:54:28.868Z</time></trkpt><trkpt lat="38.5079568" lon="21.1143405"><ele>163.33333333333334</ele><time>2026-04-30T13:54:29.861Z</time></trkpt><trkpt lat="38.508091" lon="21.1141286"><ele>163.0</ele><time>2026-04-30T13:54:30.858Z</time></trkpt><trkpt lat="38.5082251" lon="21.1139083"><ele>163.0</ele><time>2026-04-30T13:54:31.863Z</time></trkpt><trkpt lat="38.5083552" lon="21.1136824"><ele>163.0</ele><time>2026-04-30T13:54:32.861Z</time></trkpt><trkpt lat="38.5084942" lon="21.1134569"><ele>163.0</ele><time>2026-04-30T13:54:33.861Z</time></trkpt><trkpt lat="38.5086248" lon="21.1132436"><ele>168.33333333333334</ele><time>2026-04-30T13:54:34.865Z</time></trkpt><trkpt lat="38.5087497" lon="21.1130323"><ele>173.66666666666666</ele><time>2026-04-30T13:54:35.862Z</time></trkpt><trkpt lat="38.5088642" lon="21.1128329"><ele>179.0</ele><time>2026-04-30T13:54:36.861Z</time></trkpt><trkpt lat="38.5089639" lon="21.1126122"><ele>175.66666666666666</ele><time>2026-04-30T13:54:37.862Z</time></trkpt><trkpt lat="38.5090411" lon="21.1123757"><ele>172.33333333333334</ele><time>2026-04-30T13:54:38.863Z</time></trkpt><trkpt lat="38.5091104" lon="21.112137"><ele>169.0</ele><time>2026-04-30T13:54:39.861Z</time></trkpt><trkpt lat="38.509175" lon="21.1119181"><ele>169.0</ele><time>2026-04-30T13:54:40.86Z</time></trkpt><trkpt lat="38.5092407" lon="21.1117184"><ele>169.0</ele><time>2026-04-30T13:54:41.862Z</time></trkpt><trkpt lat="38.5093006" lon="21.1115366"><ele>169.0</ele><time>2026-04-30T13:54:42.861Z</time></trkpt><trkpt lat="38.5093549" lon="21.1113832"><ele>169.75</ele><time>2026-04-30T13:54:43.863Z</time></trkpt><trkpt lat="38.5094198" lon="21.1112556"><ele>170.5</ele><time>2026-04-30T13:54:44.864Z</time></trkpt><trkpt lat="38.5094975" lon="21.1111529"><ele>171.25</ele><time>2026-04-30T13:54:45.863Z</time></trkpt><trkpt lat="38.5096097" lon="21.1111092"><ele>172.0</ele><time>2026-04-30T13:54:46.86Z</time></trkpt><trkpt lat="38.5097204" lon="21.1110799"><ele>172.0</ele><time>2026-04-30T13:54:47.864Z</time></trkpt><trkpt lat="38.5098312" lon="21.1111451"><ele>172.0</ele><time>2026-04-30T13:54:48.861Z</time></trkpt><trkpt lat="38.5099451" lon="21.1112208"><ele>172.0</ele><time>2026-04-30T13:54:49.863Z</time></trkpt><trkpt lat="38.5100612" lon="21.111326"><ele>172.0</ele><time>2026-04-30T13:54:50.862Z</time></trkpt><trkpt lat="38.510176" lon="21.1114364"><ele>172.0</ele><time>2026-04-30T13:54:51.862Z</time></trkpt><trkpt lat="38.5102854" lon="21.1115439"><ele>172.0</ele><time>2026-04-30T13:54:52.86Z</time></trkpt><trkpt lat="38.5103964" lon="21.111635"><ele>172.0</ele><time>2026-04-30T13:54:53.86Z</time></trkpt><trkpt lat="38.5105203" lon="21.1116895"><ele>172.0</ele><time>2026-04-30T13:54:54.859Z</time></trkpt><trkpt lat="38.5106461" lon="21.1116906"><ele>172.75</ele><time>2026-04-30T13:54:55.859Z</time></trkpt><trkpt lat="38.5107711" lon="21.1116558"><ele>173.5</ele><time>2026-04-30T13:54:56.859Z</time></trkpt><trkpt lat="38.5108848" lon="21.1115819"><ele>174.25</ele><time>2026-04-30T13:54:57.859Z</time></trkpt><trkpt lat="38.5109869" lon="21.1114695"><ele>175.0</ele><time>2026-04-30T13:54:58.859Z</time></trkpt><trkpt lat="38.5110928" lon="21.1113517"><ele>170.66666666666669</ele><time>2026-04-30T13:54:59.859Z</time></trkpt><trkpt lat="38.511209" lon="21.1112349"><ele>166.33333333333334</ele><time>2026-04-30T13:55:00.859Z</time></trkpt><trkpt lat="38.5113416" lon="21.1111323"><ele>162.0</ele><time>2026-04-30T13:55:01.859Z</time></trkpt><trkpt lat="38.511487" lon="21.1110334"><ele>162.0</ele><time>2026-04-30T13:55:02.859Z</time></trkpt><trkpt lat="38.5116347" lon="21.1109456"><ele>162.0</ele><time>2026-04-30T13:55:03.857Z</time></trkpt><trkpt lat="38.5117898" lon="21.1108562"><ele>162.0</ele><time>2026-04-30T13:55:04.861Z</time></trkpt><trkpt lat="38.5119489" lon="21.1107649"><ele>157.66666666666666</ele><time>2026-04-30T13:55:05.859Z</time></trkpt><trkpt lat="38.5121034" lon="21.110676"><ele>153.33333333333331</ele><time>2026-04-30T13:55:06.86Z</time></trkpt><trkpt lat="38.5122521" lon="21.1105879"><ele>149.0</ele><time>2026-04-30T13:55:07.86Z</time></trkpt><trkpt lat="38.5123983" lon="21.1105084"><ele>149.0</ele><time>2026-04-30T13:55:08.862Z</time></trkpt><trkpt lat="38.5125373" lon="21.110443"><ele>149.0</ele><time>2026-04-30T13:55:09.86Z</time></trkpt><trkpt lat="38.5126705" lon="21.1104111"><ele>149.0</ele><time>2026-04-30T13:55:10.861Z</time></trkpt><trkpt lat="38.5128016" lon="21.1104003"><ele>149.0</ele><time>2026-04-30T13:55:11.862Z</time></trkpt><trkpt lat="38.5129252" lon="21.1104185"><ele>148.75</ele><time>2026-04-30T13:55:12.859Z</time></trkpt><trkpt lat="38.5130186" lon="21.1105674"><ele>148.5</ele><time>2026-04-30T13:55:13.861Z</time></trkpt><trkpt lat="38.5131059" lon="21.1107027"><ele>148.25</ele><time>2026-04-30T13:55:14.857Z</time></trkpt><trkpt lat="38.5131644" lon="21.1108852"><ele>148.0</ele><time>2026-04-30T13:55:15.86Z</time></trkpt><trkpt lat="38.5132113" lon="21.1110891"><ele>148.0</ele><time>2026-04-30T13:55:16.861Z</time></trkpt><trkpt lat="38.513258" lon="21.111303"><ele>148.0</ele><time>2026-04-30T13:55:17.86Z</time></trkpt><trkpt lat="38.5132937" lon="21.1115223"><ele>148.0</ele><time>2026-04-30T13:55:18.859Z</time></trkpt><trkpt lat="38.5133228" lon="21.1117462"><ele>148.66666666666669</ele><time>2026-04-30T13:55:19.859Z</time></trkpt><trkpt lat="38.5133484" lon="21.1119655"><ele>149.33333333333334</ele><time>2026-04-30T13:55:20.859Z</time></trkpt><trkpt lat="38.5133585" lon="21.1121931"><ele>150.0</ele><time>2026-04-30T13:55:21.859Z</time></trkpt><trkpt lat="38.5133564" lon="21.1124034"><ele>149.75</ele><time>2026-04-30T13:55:22.86Z</time></trkpt><trkpt lat="38.5133528" lon="21.1126106"><ele>149.5</ele><time>2026-04-30T13:55:23.86Z</time></trkpt><trkpt lat="38.5133485" lon="21.1127995"><ele>149.25</ele><time>2026-04-30T13:55:24.859Z</time></trkpt><trkpt lat="38.5133525" lon="21.1129613"><ele>149.0</ele><time>2026-04-30T13:55:25.858Z</time></trkpt><trkpt lat="38.513372" lon="21.1131081"><ele>149.0</ele><time>2026-04-30T13:55:26.858Z</time></trkpt><trkpt lat="38.5134111" lon="21.1132292"><ele>149.0</ele><time>2026-04-30T13:55:27.859Z</time></trkpt><trkpt lat="38.5134638" lon="21.113338"><ele>149.0</ele><time>2026-04-30T13:55:28.859Z</time></trkpt><trkpt lat="38.5135744" lon="21.1133727"><ele>149.0</ele><time>2026-04-30T13:55:29.859Z</time></trkpt><trkpt lat="38.513692" lon="21.1133824"><ele>149.0</ele><time>2026-04-30T13:55:30.858Z</time></trkpt><trkpt lat="38.5138312" lon="21.1133582"><ele>147.33333333333331</ele><time>2026-04-30T13:55:31.86Z</time></trkpt><trkpt lat="38.513977" lon="21.1133178"><ele>145.66666666666666</ele><time>2026-04-30T13:55:32.861Z</time></trkpt><trkpt lat="38.5141286" lon="21.1132627"><ele>144.0</ele><time>2026-04-30T13:55:33.861Z</time></trkpt><trkpt lat="38.5142755" lon="21.1132092"><ele>143.5</ele><time>2026-04-30T13:55:34.86Z</time></trkpt><trkpt lat="38.514412" lon="21.1131473"><ele>143.0</ele><time>2026-04-30T13:55:35.859Z</time></trkpt><trkpt lat="38.5145408" lon="21.1130787"><ele>142.5</ele><time>2026-04-30T13:55:36.86Z</time></trkpt><trkpt lat="38.514644" lon="21.1129804"><ele>142.0</ele><time>2026-04-30T13:55:37.858Z</time></trkpt><trkpt lat="38.5147231" lon="21.1128657"><ele>142.0</ele><time>2026-04-30T13:55:38.859Z</time></trkpt><trkpt lat="38.5147738" lon="21.1127381"><ele>142.0</ele><time>2026-04-30T13:55:39.859Z</time></trkpt><trkpt lat="38.5147874" lon="21.1125884"><ele>142.0</ele><time>2026-04-30T13:55:40.859Z</time></trkpt><trkpt lat="38.5147655" lon="21.1124183"><ele>142.0</ele><time>2026-04-30T13:55:41.86Z</time></trkpt><trkpt lat="38.5147265" lon="21.112255"><ele>141.75</ele><time>2026-04-30T13:55:42.857Z</time></trkpt><trkpt lat="38.5146836" lon="21.1120766"><ele>141.5</ele><time>2026-04-30T13:55:43.86Z</time></trkpt><trkpt lat="38.5146561" lon="21.1118951"><ele>141.25</ele><time>2026-04-30T13:55:44.86Z</time></trkpt><trkpt lat="38.5146489" lon="21.1117143"><ele>141.0</ele><time>2026-04-30T13:55:45.858Z</time></trkpt><trkpt lat="38.5146573" lon="21.111531"><ele>138.0</ele><time>2026-04-30T13:55:46.86Z</time></trkpt><trkpt lat="38.5147112" lon="21.1113516"><ele>135.0</ele><time>2026-04-30T13:55:47.863Z</time></trkpt><trkpt lat="38.5147843" lon="21.1111707"><ele>132.0</ele><time>2026-04-30T13:55:48.859Z</time></trkpt><trkpt lat="38.5148596" lon="21.1109913"><ele>132.0</ele><time>2026-04-30T13:55:49.86Z</time></trkpt><trkpt lat="38.5149379" lon="21.1108079"><ele>132.0</ele><time>2026-04-30T13:55:50.857Z</time></trkpt><trkpt lat="38.5150272" lon="21.1106114"><ele>132.0</ele><time>2026-04-30T13:55:51.861Z</time></trkpt><trkpt lat="38.5151211" lon="21.1104117"><ele>129.0</ele><time>2026-04-30T13:55:52.859Z</time></trkpt><trkpt lat="38.5152133" lon="21.110212"><ele>126.0</ele><time>2026-04-30T13:55:53.859Z</time></trkpt><trkpt lat="38.5153118" lon="21.1100078"><ele>123.0</ele><time>2026-04-30T13:55:54.859Z</time></trkpt><trkpt lat="38.5154107" lon="21.1098057"><ele>123.0</ele><time>2026-04-30T13:55:55.859Z</time></trkpt><trkpt lat="38.515508" lon="21.1096024"><ele>123.0</ele><time>2026-04-30T13:55:56.86Z</time></trkpt><trkpt lat="38.5156005" lon="21.1094065"><ele>123.0</ele><time>2026-04-30T13:55:57.859Z</time></trkpt><trkpt lat="38.5156872" lon="21.1092171"><ele>120.33333333333334</ele><time>2026-04-30T13:55:58.86Z</time></trkpt><trkpt lat="38.5157771" lon="21.1090388"><ele>117.66666666666667</ele><time>2026-04-30T13:55:59.859Z</time></trkpt><trkpt lat="38.5158563" lon="21.1088671"><ele>115.0</ele><time>2026-04-30T13:56:00.86Z</time></trkpt><trkpt lat="38.5159429" lon="21.1087148"><ele>115.0</ele><time>2026-04-30T13:56:01.861Z</time></trkpt><trkpt lat="38.5160334" lon="21.1085939"><ele>115.0</ele><time>2026-04-30T13:56:02.861Z</time></trkpt><trkpt lat="38.5161389" lon="21.1085029"><ele>115.0</ele><time>2026-04-30T13:56:03.863Z</time></trkpt><trkpt lat="38.5162629" lon="21.1084808"><ele>115.0</ele><time>2026-04-30T13:56:04.865Z</time></trkpt><trkpt lat="38.5163884" lon="21.1084703"><ele>114.0</ele><time>2026-04-30T13:56:05.86Z</time></trkpt><trkpt lat="38.5165191" lon="21.1085241"><ele>113.0</ele><time>2026-04-30T13:56:06.862Z</time></trkpt><trkpt lat="38.5166513" lon="21.108609"><ele>112.0</ele><time>2026-04-30T13:56:07.861Z</time></trkpt><trkpt lat="38.5167842" lon="21.1087133"><ele>111.0</ele><time>2026-04-30T13:56:08.861Z</time></trkpt><trkpt lat="38.516909" lon="21.108819"><ele>111.0</ele><time>2026-04-30T13:56:09.859Z</time></trkpt><trkpt lat="38.51703" lon="21.1089156"><ele>111.0</ele><time>2026-04-30T13:56:10.86Z</time></trkpt><trkpt lat="38.5171442" lon="21.109016"><ele>111.0</ele><time>2026-04-30T13:56:11.859Z</time></trkpt><trkpt lat="38.5172531" lon="21.1090927"><ele>111.0</ele><time>2026-04-30T13:56:12.863Z</time></trkpt><trkpt lat="38.5173565" lon="21.1091512"><ele>111.0</ele><time>2026-04-30T13:56:13.859Z</time></trkpt><trkpt lat="38.5174612" lon="21.1091693"><ele>111.0</ele><time>2026-04-30T13:56:14.861Z</time></trkpt><trkpt lat="38.5175613" lon="21.1091523"><ele>111.0</ele><time>2026-04-30T13:56:15.859Z</time></trkpt><trkpt lat="38.5176457" lon="21.1090969"><ele>111.0</ele><time>2026-04-30T13:56:16.862Z</time></trkpt><trkpt lat="38.5177006" lon="21.1090016"><ele>111.0</ele><time>2026-04-30T13:56:17.86Z</time></trkpt><trkpt lat="38.5177176" lon="21.108876"><ele>111.0</ele><time>2026-04-30T13:56:18.861Z</time></trkpt><trkpt lat="38.5176962" lon="21.108732"><ele>111.0</ele><time>2026-04-30T13:56:19.862Z</time></trkpt><trkpt lat="38.5176491" lon="21.1085801"><ele>111.0</ele><time>2026-04-30T13:56:20.861Z</time></trkpt><trkpt lat="38.5175876" lon="21.1084131"><ele>111.0</ele><time>2026-04-30T13:56:21.864Z</time></trkpt><trkpt lat="38.5175284" lon="21.1082282"><ele>112.0</ele><time>2026-04-30T13:56:22.858Z</time></trkpt><trkpt lat="38.5174707" lon="21.1080245"><ele>113.0</ele><time>2026-04-30T13:56:23.862Z</time></trkpt><trkpt lat="38.5174174" lon="21.1078183"><ele>114.0</ele><time>2026-04-30T13:56:24.861Z</time></trkpt><trkpt lat="38.5173728" lon="21.1076013"><ele>114.66666666666666</ele><time>2026-04-30T13:56:25.861Z</time></trkpt><trkpt lat="38.5173294" lon="21.1073785"><ele>115.33333333333333</ele><time>2026-04-30T13:56:26.862Z</time></trkpt><trkpt lat="38.5172885" lon="21.1071533"><ele>116.0</ele><time>2026-04-30T13:56:27.859Z</time></trkpt><trkpt lat="38.51725" lon="21.1069278"><ele>116.0</ele><time>2026-04-30T13:56:28.859Z</time></trkpt><trkpt lat="38.5172148" lon="21.1067036"><ele>116.0</ele><time>2026-04-30T13:56:29.863Z</time></trkpt><trkpt lat="38.5171781" lon="21.1064767"><ele>116.0</ele><time>2026-04-30T13:56:30.858Z</time></trkpt><trkpt lat="38.5171553" lon="21.1062542"><ele>116.0</ele><time>2026-04-30T13:56:31.86Z</time></trkpt><trkpt lat="38.5171337" lon="21.1060332"><ele>116.0</ele><time>2026-04-30T13:56:32.861Z</time></trkpt><trkpt lat="38.5171197" lon="21.1058116"><ele>116.0</ele><time>2026-04-30T13:56:33.862Z</time></trkpt><trkpt lat="38.5171088" lon="21.1055956"><ele>115.33333333333333</ele><time>2026-04-30T13:56:34.861Z</time></trkpt><trkpt lat="38.5171025" lon="21.1053942"><ele>114.66666666666666</ele><time>2026-04-30T13:56:35.859Z</time></trkpt><trkpt lat="38.5170997" lon="21.1052027"><ele>114.0</ele><time>2026-04-30T13:56:36.859Z</time></trkpt><trkpt lat="38.5171108" lon="21.1050127"><ele>112.66666666666666</ele><time>2026-04-30T13:56:37.86Z</time></trkpt><trkpt lat="38.5171355" lon="21.1048264"><ele>111.33333333333333</ele><time>2026-04-30T13:56:38.859Z</time></trkpt><trkpt lat="38.5171806" lon="21.1046356"><ele>110.0</ele><time>2026-04-30T13:56:39.858Z</time></trkpt><trkpt lat="38.5172309" lon="21.1044446"><ele>110.0</ele><time>2026-04-30T13:56:40.861Z</time></trkpt><trkpt lat="38.5172859" lon="21.1042491"><ele>110.0</ele><time>2026-04-30T13:56:41.865Z</time></trkpt><trkpt lat="38.5173464" lon="21.1040507"><ele>110.0</ele><time>2026-04-30T13:56:42.859Z</time></trkpt><trkpt lat="38.5174029" lon="21.1038459"><ele>108.33333333333333</ele><time>2026-04-30T13:56:43.86Z</time></trkpt><trkpt lat="38.5174626" lon="21.1036376"><ele>106.66666666666666</ele><time>2026-04-30T13:56:44.861Z</time></trkpt><trkpt lat="38.5175246" lon="21.1034268"><ele>105.0</ele><time>2026-04-30T13:56:45.86Z</time></trkpt><trkpt lat="38.5175908" lon="21.1032163"><ele>104.33333333333334</ele><time>2026-04-30T13:56:46.858Z</time></trkpt><trkpt lat="38.5176487" lon="21.1030087"><ele>103.66666666666667</ele><time>2026-04-30T13:56:47.858Z</time></trkpt><trkpt lat="38.5177123" lon="21.1028078"><ele>103.0</ele><time>2026-04-30T13:56:48.859Z</time></trkpt><trkpt lat="38.5177694" lon="21.1026166"><ele>103.0</ele><time>2026-04-30T13:56:49.858Z</time></trkpt><trkpt lat="38.5178251" lon="21.1024435"><ele>103.0</ele><time>2026-04-30T13:56:50.859Z</time></trkpt><trkpt lat="38.5178893" lon="21.1023027"><ele>103.0</ele><time>2026-04-30T13:56:51.862Z</time></trkpt><trkpt lat="38.5179606" lon="21.1021937"><ele>103.0</ele><time>2026-04-30T13:56:52.861Z</time></trkpt><trkpt lat="38.5180451" lon="21.102109"><ele>104.25</ele><time>2026-04-30T13:56:53.861Z</time></trkpt><trkpt lat="38.5181557" lon="21.1021099"><ele>105.5</ele><time>2026-04-30T13:56:54.862Z</time></trkpt><trkpt lat="38.518271" lon="21.1021379"><ele>106.75</ele><time>2026-04-30T13:56:55.861Z</time></trkpt><trkpt lat="38.5183763" lon="21.1021724"><ele>108.0</ele><time>2026-04-30T13:56:56.858Z</time></trkpt><trkpt lat="38.5184916" lon="21.1023341"><ele>109.0</ele><time>2026-04-30T13:56:57.858Z</time></trkpt><trkpt lat="38.5185781" lon="21.1024788"><ele>110.0</ele><time>2026-04-30T13:56:58.858Z</time></trkpt><trkpt lat="38.5186625" lon="21.1026367"><ele>111.0</ele><time>2026-04-30T13:56:59.86Z</time></trkpt><trkpt lat="38.5187522" lon="21.102809"><ele>107.0</ele><time>2026-04-30T13:57:00.861Z</time></trkpt><trkpt lat="38.5188431" lon="21.1029945"><ele>103.0</ele><time>2026-04-30T13:57:01.861Z</time></trkpt><trkpt lat="38.5189255" lon="21.1031748"><ele>99.0</ele><time>2026-04-30T13:57:02.858Z</time></trkpt><trkpt lat="38.5189947" lon="21.1033656"><ele>99.0</ele><time>2026-04-30T13:57:03.859Z</time></trkpt><trkpt lat="38.5190453" lon="21.1035675"><ele>99.0</ele><time>2026-04-30T13:57:04.859Z</time></trkpt><trkpt lat="38.5190771" lon="21.1037795"><ele>99.0</ele><time>2026-04-30T13:57:05.859Z</time></trkpt><trkpt lat="38.5191119" lon="21.1039999"><ele>99.33333333333334</ele><time>2026-04-30T13:57:06.859Z</time></trkpt><trkpt lat="38.5191484" lon="21.1042232"><ele>99.66666666666667</ele><time>2026-04-30T13:57:07.858Z</time></trkpt><trkpt lat="38.5191807" lon="21.1044402"><ele>100.0</ele><time>2026-04-30T13:57:08.861Z</time></trkpt><trkpt lat="38.5192136" lon="21.1046474"><ele>100.0</ele><time>2026-04-30T13:57:09.86Z</time></trkpt><trkpt lat="38.5192523" lon="21.1048612"><ele>100.0</ele><time>2026-04-30T13:57:10.859Z</time></trkpt><trkpt lat="38.5193004" lon="21.1050697"><ele>100.0</ele><time>2026-04-30T13:57:11.858Z</time></trkpt><trkpt lat="38.5193595" lon="21.1052628"><ele>100.25</ele><time>2026-04-30T13:57:12.857Z</time></trkpt><trkpt lat="38.5194328" lon="21.1054422"><ele>100.5</ele><time>2026-04-30T13:57:13.861Z</time></trkpt><trkpt lat="38.5195095" lon="21.1056019"><ele>100.75</ele><time>2026-04-30T13:57:14.86Z</time></trkpt><trkpt lat="38.5195821" lon="21.1057321"><ele>101.0</ele><time>2026-04-30T13:57:15.859Z</time></trkpt><trkpt lat="38.5196545" lon="21.1058375"><ele>98.6</ele><time>2026-04-30T13:57:16.86Z</time></trkpt><trkpt lat="38.519733" lon="21.1059031"><ele>96.19999999999999</ele><time>2026-04-30T13:57:17.859Z</time></trkpt><trkpt lat="38.5198203" lon="21.1059323"><ele>93.80000000000001</ele><time>2026-04-30T13:57:18.868Z</time></trkpt><trkpt lat="38.5199125" lon="21.105914"><ele>91.4</ele><time>2026-04-30T13:57:19.859Z</time></trkpt><trkpt lat="38.5200021" lon="21.1058535"><ele>89.0</ele><time>2026-04-30T13:57:20.861Z</time></trkpt><trkpt lat="38.5200848" lon="21.1057448"><ele>87.0</ele><time>2026-04-30T13:57:21.859Z</time></trkpt><trkpt lat="38.5201385" lon="21.105608"><ele>85.0</ele><time>2026-04-30T13:57:22.858Z</time></trkpt><trkpt lat="38.5201954" lon="21.1054405"><ele>83.0</ele><time>2026-04-30T13:57:23.86Z</time></trkpt><trkpt lat="38.5202565" lon="21.1052568"><ele>81.0</ele><time>2026-04-30T13:57:24.861Z</time></trkpt><trkpt lat="38.5203199" lon="21.1050715"><ele>80.66666666666667</ele><time>2026-04-30T13:57:25.86Z</time></trkpt><trkpt lat="38.5203819" lon="21.1048742"><ele>80.33333333333334</ele><time>2026-04-30T13:57:26.859Z</time></trkpt><trkpt lat="38.5204443" lon="21.104672"><ele>80.0</ele><time>2026-04-30T13:57:27.859Z</time></trkpt><trkpt lat="38.5205085" lon="21.1044743"><ele>82.66666666666667</ele><time>2026-04-30T13:57:28.859Z</time></trkpt><trkpt lat="38.5205743" lon="21.1042663"><ele>85.33333333333333</ele><time>2026-04-30T13:57:29.858Z</time></trkpt><trkpt lat="38.5206348" lon="21.104059"><ele>88.0</ele><time>2026-04-30T13:57:30.859Z</time></trkpt><trkpt lat="38.5206856" lon="21.1038534"><ele>88.0</ele><time>2026-04-30T13:57:31.859Z</time></trkpt><trkpt lat="38.5207244" lon="21.1036408"><ele>88.0</ele><time>2026-04-30T13:57:32.859Z</time></trkpt><trkpt lat="38.5207588" lon="21.1034284"><ele>88.0</ele><time>2026-04-30T13:57:33.858Z</time></trkpt><trkpt lat="38.5207828" lon="21.1032193"><ele>86.33333333333333</ele><time>2026-04-30T13:57:34.857Z</time></trkpt><trkpt lat="38.5207987" lon="21.1030038"><ele>84.66666666666667</ele><time>2026-04-30T13:57:35.859Z</time></trkpt><trkpt lat="38.5208073" lon="21.1027913"><ele>83.0</ele><time>2026-04-30T13:57:36.859Z</time></trkpt><trkpt lat="38.5208144" lon="21.1025783"><ele>81.66666666666667</ele><time>2026-04-30T13:57:37.861Z</time></trkpt><trkpt lat="38.5208218" lon="21.102373"><ele>80.33333333333333</ele><time>2026-04-30T13:57:38.86Z</time></trkpt><trkpt lat="38.5208264" lon="21.1021773"><ele>79.0</ele><time>2026-04-30T13:57:39.86Z</time></trkpt><trkpt lat="38.5208356" lon="21.1019831"><ele>79.0</ele><time>2026-04-30T13:57:40.859Z</time></trkpt><trkpt lat="38.5208562" lon="21.1017831"><ele>79.0</ele><time>2026-04-30T13:57:41.861Z</time></trkpt><trkpt lat="38.5208795" lon="21.1015769"><ele>79.0</ele><time>2026-04-30T13:57:42.86Z</time></trkpt><trkpt lat="38.5209219" lon="21.1013742"><ele>76.66666666666666</ele><time>2026-04-30T13:57:43.858Z</time></trkpt><trkpt lat="38.5209729" lon="21.1011662"><ele>74.33333333333333</ele><time>2026-04-30T13:57:44.86Z</time></trkpt><trkpt lat="38.5210278" lon="21.1009525"><ele>72.0</ele><time>2026-04-30T13:57:45.86Z</time></trkpt><trkpt lat="38.5210832" lon="21.1007425"><ele>73.66666666666667</ele><time>2026-04-30T13:57:46.859Z</time></trkpt><trkpt lat="38.5211367" lon="21.100537"><ele>75.33333333333334</ele><time>2026-04-30T13:57:47.859Z</time></trkpt><trkpt lat="38.5211954" lon="21.1003281"><ele>77.0</ele><time>2026-04-30T13:57:48.859Z</time></trkpt><trkpt lat="38.5212521" lon="21.1001187"><ele>77.0</ele><time>2026-04-30T13:57:49.858Z</time></trkpt><trkpt lat="38.5213059" lon="21.099917"><ele>77.0</ele><time>2026-04-30T13:57:50.858Z</time></trkpt><trkpt lat="38.521368" lon="21.0997129"><ele>77.0</ele><time>2026-04-30T13:57:51.862Z</time></trkpt><trkpt lat="38.5214244" lon="21.099505"><ele>75.0</ele><time>2026-04-30T13:57:52.86Z</time></trkpt><trkpt lat="38.5214779" lon="21.0993045"><ele>73.0</ele><time>2026-04-30T13:57:53.862Z</time></trkpt><trkpt lat="38.521529" lon="21.0991129"><ele>71.0</ele><time>2026-04-30T13:57:54.859Z</time></trkpt><trkpt lat="38.5215722" lon="21.0989446"><ele>70.25</ele><time>2026-04-30T13:57:55.86Z</time></trkpt><trkpt lat="38.5216181" lon="21.0988038"><ele>69.5</ele><time>2026-04-30T13:57:56.858Z</time></trkpt><trkpt lat="38.5216844" lon="21.0986893"><ele>68.75</ele><time>2026-04-30T13:57:57.859Z</time></trkpt><trkpt lat="38.5217775" lon="21.0985954"><ele>68.0</ele><time>2026-04-30T13:57:58.86Z</time></trkpt><trkpt lat="38.5219037" lon="21.0985547"><ele>68.0</ele><time>2026-04-30T13:57:59.861Z</time></trkpt><trkpt lat="38.5220406" lon="21.0985363"><ele>68.0</ele><time>2026-04-30T13:58:00.863Z</time></trkpt><trkpt lat="38.5221847" lon="21.0985403"><ele>68.0</ele><time>2026-04-30T13:58:01.86Z</time></trkpt><trkpt lat="38.5223241" lon="21.0985526"><ele>68.0</ele><time>2026-04-30T13:58:02.859Z</time></trkpt><trkpt lat="38.5224577" lon="21.0985415"><ele>67.25</ele><time>2026-04-30T13:58:03.858Z</time></trkpt><trkpt lat="38.5225839" lon="21.0985031"><ele>66.5</ele><time>2026-04-30T13:58:04.859Z</time></trkpt><trkpt lat="38.5227079" lon="21.0984201"><ele>65.75</ele><time>2026-04-30T13:58:05.861Z</time></trkpt><trkpt lat="38.5228337" lon="21.0983118"><ele>65.0</ele><time>2026-04-30T13:58:06.859Z</time></trkpt><trkpt lat="38.5229545" lon="21.0981878"><ele>61.0</ele><time>2026-04-30T13:58:07.86Z</time></trkpt><trkpt lat="38.5230709" lon="21.0980582"><ele>57.0</ele><time>2026-04-30T13:58:08.859Z</time></trkpt><trkpt lat="38.5231886" lon="21.0979296"><ele>53.0</ele><time>2026-04-30T13:58:09.861Z</time></trkpt><trkpt lat="38.5233018" lon="21.0978006"><ele>53.0</ele><time>2026-04-30T13:58:10.86Z</time></trkpt><trkpt lat="38.5234103" lon="21.0976802"><ele>53.0</ele><time>2026-04-30T13:58:11.859Z</time></trkpt><trkpt lat="38.5235139" lon="21.0975629"><ele>53.0</ele><time>2026-04-30T13:58:12.859Z</time></trkpt><trkpt lat="38.5235997" lon="21.0974273"><ele>53.0</ele><time>2026-04-30T13:58:13.86Z</time></trkpt><trkpt lat="38.5236547" lon="21.0972673"><ele>50.75</ele><time>2026-04-30T13:58:14.858Z</time></trkpt><trkpt lat="38.5236795" lon="21.0971033"><ele>48.5</ele><time>2026-04-30T13:58:15.861Z</time></trkpt><trkpt lat="38.5236805" lon="21.0969246"><ele>46.25</ele><time>2026-04-30T13:58:16.864Z</time></trkpt><trkpt lat="38.5236719" lon="21.0967452"><ele>44.0</ele><time>2026-04-30T13:58:17.857Z</time></trkpt><trkpt lat="38.5236545" lon="21.0965622"><ele>42.75</ele><time>2026-04-30T13:58:18.86Z</time></trkpt><trkpt lat="38.5236353" lon="21.0963759"><ele>41.5</ele><time>2026-04-30T13:58:19.859Z</time></trkpt><trkpt lat="38.5236203" lon="21.0961996"><ele>40.25</ele><time>2026-04-30T13:58:20.859Z</time></trkpt><trkpt lat="38.5236043" lon="21.0960312"><ele>39.0</ele><time>2026-04-30T13:58:21.857Z</time></trkpt><trkpt lat="38.5235935" lon="21.0958719"><ele>38.0</ele><time>2026-04-30T13:58:22.858Z</time></trkpt><trkpt lat="38.5235955" lon="21.0957154"><ele>37.0</ele><time>2026-04-30T13:58:23.862Z</time></trkpt><trkpt lat="38.52361" lon="21.0955712"><ele>36.0</ele><time>2026-04-30T13:58:24.86Z</time></trkpt><trkpt lat="38.523656" lon="21.0954352"><ele>35.0</ele><time>2026-04-30T13:58:25.862Z</time></trkpt><trkpt lat="38.5237363" lon="21.0953314"><ele>34.25</ele><time>2026-04-30T13:58:26.857Z</time></trkpt><trkpt lat="38.5238266" lon="21.0952494"><ele>33.5</ele><time>2026-04-30T13:58:27.858Z</time></trkpt><trkpt lat="38.5239313" lon="21.0952033"><ele>32.75</ele><time>2026-04-30T13:58:28.859Z</time></trkpt><trkpt lat="38.5240462" lon="21.0951955"><ele>32.0</ele><time>2026-04-30T13:58:29.859Z</time></trkpt><trkpt lat="38.5241755" lon="21.0952165"><ele>32.0</ele><time>2026-04-30T13:58:30.859Z</time></trkpt><trkpt lat="38.52431" lon="21.0952526"><ele>32.0</ele><time>2026-04-30T13:58:31.858Z</time></trkpt><trkpt lat="38.5244503" lon="21.095305"><ele>32.0</ele><time>2026-04-30T13:58:32.859Z</time></trkpt><trkpt lat="38.5245941" lon="21.0953587"><ele>32.0</ele><time>2026-04-30T13:58:33.858Z</time></trkpt><trkpt lat="38.5247394" lon="21.0954171"><ele>28.75</ele><time>2026-04-30T13:58:34.86Z</time></trkpt><trkpt lat="38.5248879" lon="21.0954807"><ele>25.5</ele><time>2026-04-30T13:58:35.86Z</time></trkpt><trkpt lat="38.5250275" lon="21.0955463"><ele>22.25</ele><time>2026-04-30T13:58:36.859Z</time></trkpt><trkpt lat="38.5251562" lon="21.0956174"><ele>19.0</ele><time>2026-04-30T13:58:37.859Z</time></trkpt><trkpt lat="38.5252806" lon="21.0957149"><ele>18.5</ele><time>2026-04-30T13:58:38.858Z</time></trkpt><trkpt lat="38.5253657" lon="21.0958341"><ele>18.0</ele><time>2026-04-30T13:58:39.859Z</time></trkpt><trkpt lat="38.5254438" lon="21.0959591"><ele>17.5</ele><time>2026-04-30T13:58:40.859Z</time></trkpt><trkpt lat="38.5255046" lon="21.0960937"><ele>17.0</ele><time>2026-04-30T13:58:41.858Z</time></trkpt><trkpt lat="38.5255532" lon="21.0962218"><ele>17.0</ele><time>2026-04-30T13:58:42.858Z</time></trkpt><trkpt lat="38.5255943" lon="21.0963516"><ele>17.0</ele><time>2026-04-30T13:58:43.86Z</time></trkpt><trkpt lat="38.5256465" lon="21.0964757"><ele>17.0</ele><time>2026-04-30T13:58:44.858Z</time></trkpt><trkpt lat="38.5257118" lon="21.0965902"><ele>17.0</ele><time>2026-04-30T13:58:45.861Z</time></trkpt><trkpt lat="38.5257941" lon="21.0966903"><ele>17.0</ele><time>2026-04-30T13:58:46.858Z</time></trkpt><trkpt lat="38.5258874" lon="21.0967627"><ele>18.0</ele><time>2026-04-30T13:58:47.858Z</time></trkpt><trkpt lat="38.5259973" lon="21.0968103"><ele>19.0</ele><time>2026-04-30T13:58:48.859Z</time></trkpt><trkpt lat="38.5261152" lon="21.096834"><ele>20.0</ele><time>2026-04-30T13:58:49.859Z</time></trkpt><trkpt lat="38.5262412" lon="21.096838"><ele>21.0</ele><time>2026-04-30T13:58:50.859Z</time></trkpt><trkpt lat="38.5263718" lon="21.0968346"><ele>21.0</ele><time>2026-04-30T13:58:51.86Z</time></trkpt><trkpt lat="38.5265019" lon="21.0968233"><ele>21.0</ele><time>2026-04-30T13:58:52.859Z</time></trkpt><trkpt lat="38.5266459" lon="21.0968067"><ele>21.0</ele><time>2026-04-30T13:58:53.86Z</time></trkpt><trkpt lat="38.526779" lon="21.0967995"><ele>21.0</ele><time>2026-04-30T13:58:54.859Z</time></trkpt><trkpt lat="38.5269093" lon="21.0967968"><ele>21.0</ele><time>2026-04-30T13:58:55.858Z</time></trkpt><trkpt lat="38.5270358" lon="21.096801"><ele>21.0</ele><time>2026-04-30T13:58:56.859Z</time></trkpt><trkpt lat="38.5271448" lon="21.0968198"><ele>21.0</ele><time>2026-04-30T13:58:57.86Z</time></trkpt><trkpt lat="38.5272443" lon="21.0968605"><ele>21.0</ele><time>2026-04-30T13:58:58.858Z</time></trkpt><trkpt lat="38.5273387" lon="21.096932"><ele>21.25</ele><time>2026-04-30T13:58:59.857Z</time></trkpt><trkpt lat="38.5274192" lon="21.0970313"><ele>21.5</ele><time>2026-04-30T13:59:00.859Z</time></trkpt><trkpt lat="38.5274916" lon="21.0971368"><ele>21.75</ele><time>2026-04-30T13:59:01.858Z</time></trkpt><trkpt lat="38.5275551" lon="21.0972737"><ele>22.0</ele><time>2026-04-30T13:59:02.859Z</time></trkpt><trkpt lat="38.5276066" lon="21.0974226"><ele>22.0</ele><time>2026-04-30T13:59:03.859Z</time></trkpt><trkpt lat="38.5276486" lon="21.0976"><ele>22.0</ele><time>2026-04-30T13:59:04.857Z</time></trkpt><trkpt lat="38.5276872" lon="21.0977799"><ele>22.0</ele><time>2026-04-30T13:59:05.859Z</time></trkpt><trkpt lat="38.5277251" lon="21.097951"><ele>22.0</ele><time>2026-04-30T13:59:06.86Z</time></trkpt><trkpt lat="38.5277656" lon="21.0981305"><ele>24.25</ele><time>2026-04-30T13:59:07.859Z</time></trkpt><trkpt lat="38.5277986" lon="21.0982913"><ele>26.5</ele><time>2026-04-30T13:59:08.86Z</time></trkpt><trkpt lat="38.5278403" lon="21.0984357"><ele>28.75</ele><time>2026-04-30T13:59:09.858Z</time></trkpt><trkpt lat="38.5278856" lon="21.0985662"><ele>31.0</ele><time>2026-04-30T13:59:10.859Z</time></trkpt><trkpt lat="38.5279453" lon="21.09868"><ele>26.2</ele><time>2026-04-30T13:59:11.861Z</time></trkpt><trkpt lat="38.528026" lon="21.0987708"><ele>21.400000000000002</ele><time>2026-04-30T13:59:12.86Z</time></trkpt><trkpt lat="38.5281194" lon="21.0988368"><ele>16.6</ele><time>2026-04-30T13:59:13.861Z</time></trkpt><trkpt lat="38.5282232" lon="21.0988649"><ele>11.8</ele><time>2026-04-30T13:59:14.862Z</time></trkpt><trkpt lat="38.5283258" lon="21.0988491"><ele>7.0</ele><time>2026-04-30T13:59:15.861Z</time></trkpt><trkpt lat="38.5284285" lon="21.098791"><ele>7.0</ele><time>2026-04-30T13:59:16.859Z</time></trkpt><trkpt lat="38.5285276" lon="21.0986973"><ele>7.0</ele><time>2026-04-30T13:59:17.859Z</time></trkpt><trkpt lat="38.5286254" lon="21.0985811"><ele>7.0</ele><time>2026-04-30T13:59:18.859Z</time></trkpt><trkpt lat="38.528712" lon="21.098456"><ele>7.0</ele><time>2026-04-30T13:59:19.861Z</time></trkpt><trkpt lat="38.5287931" lon="21.0983339"><ele>5.6</ele><time>2026-04-30T13:59:20.858Z</time></trkpt><trkpt lat="38.5288732" lon="21.0982196"><ele>4.199999999999999</ele><time>2026-04-30T13:59:21.858Z</time></trkpt><trkpt lat="38.5289484" lon="21.0981187"><ele>2.8</ele><time>2026-04-30T13:59:22.86Z</time></trkpt><trkpt lat="38.5290239" lon="21.0980397"><ele>1.4</ele><time>2026-04-30T13:59:23.858Z</time></trkpt><trkpt lat="38.5291009" lon="21.0979749"><ele>0.0</ele><time>2026-04-30T13:59:24.859Z</time></trkpt><trkpt lat="38.529198" lon="21.0979456"><ele>0.0</ele><time>2026-04-30T13:59:25.859Z</time></trkpt><trkpt lat="38.5292949" lon="21.0979425"><ele>0.0</ele><time>2026-04-30T13:59:26.866Z</time></trkpt><trkpt lat="38.5294134" lon="21.0979519"><ele>0.0</ele><time>2026-04-30T13:59:27.86Z</time></trkpt><trkpt lat="38.5295352" lon="21.0979759"><ele>0.0</ele><time>2026-04-30T13:59:28.86Z</time></trkpt><trkpt lat="38.5296646" lon="21.0980095"><ele>-0.25</ele><time>2026-04-30T13:59:29.861Z</time></trkpt><trkpt lat="38.5297971" lon="21.0980531"><ele>-0.5</ele><time>2026-04-30T13:59:30.86Z</time></trkpt><trkpt lat="38.5299212" lon="21.0980916"><ele>-0.75</ele><time>2026-04-30T13:59:31.86Z</time></trkpt><trkpt lat="38.5300434" lon="21.098124"><ele>-1.0</ele><time>2026-04-30T13:59:32.86Z</time></trkpt><trkpt lat="38.5301503" lon="21.0981391"><ele>-1.0</ele><time>2026-04-30T13:59:33.859Z</time></trkpt><trkpt lat="38.5302489" lon="21.0981227"><ele>-1.0</ele><time>2026-04-30T13:59:34.861Z</time></trkpt><trkpt lat="38.5303481" lon="21.0980737"><ele>-1.0</ele><time>2026-04-30T13:59:35.862Z</time></trkpt><trkpt lat="38.5304447" lon="21.0980023"><ele>-1.0</ele><time>2026-04-30T13:59:36.864Z</time></trkpt><trkpt lat="38.5305493" lon="21.0979039"><ele>-1.0</ele><time>2026-04-30T13:59:37.86Z</time></trkpt><trkpt lat="38.5306494" lon="21.0978066"><ele>-1.0</ele><time>2026-04-30T13:59:38.859Z</time></trkpt><trkpt lat="38.5307597" lon="21.0976957"><ele>-1.0</ele><time>2026-04-30T13:59:39.862Z</time></trkpt><trkpt lat="38.5308669" lon="21.0975837"><ele>-1.0</ele><time>2026-04-30T13:59:40.861Z</time></trkpt><trkpt lat="38.5309739" lon="21.0974714"><ele>-1.0</ele><time>2026-04-30T13:59:41.858Z</time></trkpt><trkpt lat="38.5310813" lon="21.097359"><ele>-0.5</ele><time>2026-04-30T13:59:42.863Z</time></trkpt><trkpt lat="38.5311949" lon="21.0972438"><ele>0.0</ele><time>2026-04-30T13:59:43.86Z</time></trkpt><trkpt lat="38.5313082" lon="21.0971282"><ele>0.5</ele><time>2026-04-30T13:59:44.86Z</time></trkpt><trkpt lat="38.5314225" lon="21.0970069"><ele>1.0</ele><time>2026-04-30T13:59:45.861Z</time></trkpt><trkpt lat="38.5315329" lon="21.096887"><ele>1.0</ele><time>2026-04-30T13:59:46.862Z</time></trkpt><trkpt lat="38.5316452" lon="21.0967685"><ele>1.0</ele><time>2026-04-30T13:59:47.86Z</time></trkpt><trkpt lat="38.5317558" lon="21.0966503"><ele>1.0</ele><time>2026-04-30T13:59:48.868Z</time></trkpt><trkpt lat="38.5318676" lon="21.0965383"><ele>1.0</ele><time>2026-04-30T13:59:49.859Z</time></trkpt><trkpt lat="38.5319762" lon="21.0964197"><ele>0.75</ele><time>2026-04-30T13:59:50.862Z</time></trkpt><trkpt lat="38.5320891" lon="21.0962988"><ele>0.5</ele><time>2026-04-30T13:59:51.862Z</time></trkpt><trkpt lat="38.5322019" lon="21.0961792"><ele>0.25</ele><time>2026-04-30T13:59:52.859Z</time></trkpt><trkpt lat="38.5323118" lon="21.0960609"><ele>0.0</ele><time>2026-04-30T13:59:53.863Z</time></trkpt><trkpt lat="38.5324217" lon="21.0959364"><ele>0.0</ele><time>2026-04-30T13:59:54.859Z</time></trkpt><trkpt lat="38.5325253" lon="21.095793"><ele>0.0</ele><time>2026-04-30T13:59:55.857Z</time></trkpt><trkpt lat="38.5326264" lon="21.0956443"><ele>0.0</ele><time>2026-04-30T13:59:56.858Z</time></trkpt><trkpt lat="38.5327235" lon="21.0954937"><ele>0.0</ele><time>2026-04-30T13:59:57.858Z</time></trkpt><trkpt lat="38.5328123" lon="21.095326"><ele>0.0</ele><time>2026-04-30T13:59:58.859Z</time></trkpt><trkpt lat="38.5329028" lon="21.0951533"><ele>0.0</ele><time>2026-04-30T13:59:59.86Z</time></trkpt><trkpt lat="38.5329873" lon="21.09497"><ele>0.3333333333333333</ele><time>2026-04-30T14:00:00.858Z</time></trkpt><trkpt lat="38.5330717" lon="21.0947829"><ele>0.6666666666666666</ele><time>2026-04-30T14:00:01.859Z</time></trkpt><trkpt lat="38.5331584" lon="21.0945857"><ele>1.0</ele><time>2026-04-30T14:00:02.86Z</time></trkpt><trkpt lat="38.5332475" lon="21.0943894"><ele>1.0</ele><time>2026-04-30T14:00:03.858Z</time></trkpt><trkpt lat="38.5333338" lon="21.0941925"><ele>1.0</ele><time>2026-04-30T14:00:04.858Z</time></trkpt><trkpt lat="38.5334274" lon="21.0939939"><ele>1.0</ele><time>2026-04-30T14:00:05.858Z</time></trkpt><trkpt lat="38.5335177" lon="21.0937936"><ele>0.6666666666666666</ele><time>2026-04-30T14:00:06.861Z</time></trkpt><trkpt lat="38.5336056" lon="21.0935909"><ele>0.3333333333333333</ele><time>2026-04-30T14:00:07.857Z</time></trkpt><trkpt lat="38.5336973" lon="21.093391"><ele>0.0</ele><time>2026-04-30T14:00:08.861Z</time></trkpt><trkpt lat="38.5337841" lon="21.093194"><ele>-1.0</ele><time>2026-04-30T14:00:09.859Z</time></trkpt><trkpt lat="38.5338736" lon="21.0929977"><ele>-2.0</ele><time>2026-04-30T14:00:10.86Z</time></trkpt><trkpt lat="38.5339613" lon="21.0928024"><ele>-3.0</ele><time>2026-04-30T14:00:11.862Z</time></trkpt><trkpt lat="38.5340479" lon="21.0926116"><ele>-3.0</ele><time>2026-04-30T14:00:12.859Z</time></trkpt><trkpt lat="38.5341308" lon="21.0924252"><ele>-3.0</ele><time>2026-04-30T14:00:13.861Z</time></trkpt><trkpt lat="38.5342097" lon="21.0922437"><ele>-3.0</ele><time>2026-04-30T14:00:14.86Z</time></trkpt><trkpt lat="38.5342869" lon="21.092064"><ele>-3.0</ele><time>2026-04-30T14:00:15.86Z</time></trkpt><trkpt lat="38.534364" lon="21.0918957"><ele>-3.0</ele><time>2026-04-30T14:00:16.859Z</time></trkpt><trkpt lat="38.5344417" lon="21.0917256"><ele>-3.0</ele><time>2026-04-30T14:00:17.861Z</time></trkpt><trkpt lat="38.5345222" lon="21.0915504"><ele>-2.25</ele><time>2026-04-30T14:00:18.861Z</time></trkpt><trkpt lat="38.5345976" lon="21.0913839"><ele>-1.5</ele><time>2026-04-30T14:00:19.86Z</time></trkpt><trkpt lat="38.5346642" lon="21.0912131"><ele>-0.75</ele><time>2026-04-30T14:00:20.86Z</time></trkpt><trkpt lat="38.5347342" lon="21.0910464"><ele>0.0</ele><time>2026-04-30T14:00:21.861Z</time></trkpt><trkpt lat="38.5348064" lon="21.090871"><ele>0.3333333333333333</ele><time>2026-04-30T14:00:22.86Z</time></trkpt><trkpt lat="38.5348768" lon="21.0906906"><ele>0.6666666666666666</ele><time>2026-04-30T14:00:23.86Z</time></trkpt><trkpt lat="38.5349441" lon="21.0905058"><ele>1.0</ele><time>2026-04-30T14:00:24.86Z</time></trkpt><trkpt lat="38.5350035" lon="21.0903248"><ele>1.0</ele><time>2026-04-30T14:00:25.861Z</time></trkpt><trkpt lat="38.5350588" lon="21.0901561"><ele>1.0</ele><time>2026-04-30T14:00:26.859Z</time></trkpt><trkpt lat="38.535108" lon="21.0900004"><ele>1.0</ele><time>2026-04-30T14:00:27.859Z</time></trkpt><trkpt lat="38.5351462" lon="21.0898415"><ele>1.0</ele><time>2026-04-30T14:00:28.86Z</time></trkpt><trkpt lat="38.5351831" lon="21.0897047"><ele>0.9999999999999999</ele><time>2026-04-30T14:00:29.859Z</time></trkpt><trkpt lat="38.5352197" lon="21.0895967"><ele>1.0</ele><time>2026-04-30T14:00:30.858Z</time></trkpt><trkpt lat="38.5352711" lon="21.0895151"><ele>1.0</ele><time>2026-04-30T14:00:31.859Z</time></trkpt><trkpt lat="38.5353354" lon="21.0894618"><ele>1.0</ele><time>2026-04-30T14:00:32.859Z</time></trkpt><trkpt lat="38.5354174" lon="21.0894178"><ele>0.9999999999999999</ele><time>2026-04-30T14:00:33.859Z</time></trkpt><trkpt lat="38.5355148" lon="21.0894249"><ele>1.0</ele><time>2026-04-30T14:00:34.861Z</time></trkpt><trkpt lat="38.5356274" lon="21.0894335"><ele>1.0</ele><time>2026-04-30T14:00:35.858Z</time></trkpt><trkpt lat="38.5357539" lon="21.0894783"><ele>1.0</ele><time>2026-04-30T14:00:36.861Z</time></trkpt><trkpt lat="38.5358786" lon="21.0895211"><ele>1.0</ele><time>2026-04-30T14:00:37.861Z</time></trkpt><trkpt lat="38.5360115" lon="21.0895742"><ele>1.0</ele><time>2026-04-30T14:00:38.859Z</time></trkpt><trkpt lat="38.5361563" lon="21.0896305"><ele>1.0</ele><time>2026-04-30T14:00:39.86Z</time></trkpt><trkpt lat="38.5363135" lon="21.0896865"><ele>1.0</ele><time>2026-04-30T14:00:40.859Z</time></trkpt><trkpt lat="38.5364691" lon="21.0897461"><ele>1.0</ele><time>2026-04-30T14:00:41.86Z</time></trkpt><trkpt lat="38.5366309" lon="21.0897994"><ele>1.0</ele><time>2026-04-30T14:00:42.861Z</time></trkpt><trkpt lat="38.5367973" lon="21.0898587"><ele>1.0</ele><time>2026-04-30T14:00:43.86Z</time></trkpt><trkpt lat="38.5369606" lon="21.0899236"><ele>1.0</ele><time>2026-04-30T14:00:44.858Z</time></trkpt><trkpt lat="38.5371224" lon="21.089985"><ele>1.0</ele><time>2026-04-30T14:00:45.86Z</time></trkpt><trkpt lat="38.5372844" lon="21.0900417"><ele>1.0</ele><time>2026-04-30T14:00:46.86Z</time></trkpt><trkpt lat="38.5374415" lon="21.0900849"><ele>1.0</ele><time>2026-04-30T14:00:47.86Z</time></trkpt><trkpt lat="38.5376035" lon="21.0901078"><ele>1.0</ele><time>2026-04-30T14:00:48.861Z</time></trkpt><trkpt lat="38.5377577" lon="21.0901155"><ele>1.0</ele><time>2026-04-30T14:00:49.859Z</time></trkpt><trkpt lat="38.5379174" lon="21.0901052"><ele>1.0</ele><time>2026-04-30T14:00:50.859Z</time></trkpt><trkpt lat="38.5380699" lon="21.0900636"><ele>1.3333333333333333</ele><time>2026-04-30T14:00:51.86Z</time></trkpt><trkpt lat="38.5382265" lon="21.0900019"><ele>1.6666666666666665</ele><time>2026-04-30T14:00:52.859Z</time></trkpt><trkpt lat="38.5383779" lon="21.089909"><ele>2.0</ele><time>2026-04-30T14:00:53.861Z</time></trkpt><trkpt lat="38.5385276" lon="21.0897969"><ele>2.333333333333333</ele><time>2026-04-30T14:00:54.859Z</time></trkpt><trkpt lat="38.5386787" lon="21.0896723"><ele>2.6666666666666665</ele><time>2026-04-30T14:00:55.861Z</time></trkpt><trkpt lat="38.53883" lon="21.0895369"><ele>3.0</ele><time>2026-04-30T14:00:56.862Z</time></trkpt><trkpt lat="38.5389803" lon="21.0893945"><ele>3.333333333333333</ele><time>2026-04-30T14:00:57.86Z</time></trkpt><trkpt lat="38.5391296" lon="21.0892512"><ele>3.6666666666666665</ele><time>2026-04-30T14:00:58.861Z</time></trkpt><trkpt lat="38.5392755" lon="21.0891021"><ele>4.0</ele><time>2026-04-30T14:00:59.86Z</time></trkpt><trkpt lat="38.5394221" lon="21.0889511"><ele>6.0</ele><time>2026-04-30T14:01:00.861Z</time></trkpt><trkpt lat="38.5395694" lon="21.0887964"><ele>8.0</ele><time>2026-04-30T14:01:01.86Z</time></trkpt><trkpt lat="38.5397163" lon="21.0886488"><ele>10.0</ele><time>2026-04-30T14:01:02.862Z</time></trkpt><trkpt lat="38.539865" lon="21.0885028"><ele>10.0</ele><time>2026-04-30T14:01:03.86Z</time></trkpt><trkpt lat="38.5400088" lon="21.088352"><ele>10.0</ele><time>2026-04-30T14:01:04.859Z</time></trkpt><trkpt lat="38.5401553" lon="21.088195"><ele>10.0</ele><time>2026-04-30T14:01:05.859Z</time></trkpt><trkpt lat="38.5403017" lon="21.0880405"><ele>14.0</ele><time>2026-04-30T14:01:06.86Z</time></trkpt><trkpt lat="38.5404502" lon="21.0878887"><ele>18.0</ele><time>2026-04-30T14:01:07.859Z</time></trkpt><trkpt lat="38.5405989" lon="21.0877372"><ele>22.0</ele><time>2026-04-30T14:01:08.86Z</time></trkpt><trkpt lat="38.5407475" lon="21.0875855"><ele>22.0</ele><time>2026-04-30T14:01:09.858Z</time></trkpt><trkpt lat="38.5408877" lon="21.0874329"><ele>22.0</ele><time>2026-04-30T14:01:10.859Z</time></trkpt><trkpt lat="38.5410222" lon="21.0872816"><ele>22.0</ele><time>2026-04-30T14:01:11.859Z</time></trkpt><trkpt lat="38.5411446" lon="21.0871144"><ele>27.0</ele><time>2026-04-30T14:01:12.859Z</time></trkpt><trkpt lat="38.5412525" lon="21.0869401"><ele>32.0</ele><time>2026-04-30T14:01:13.859Z</time></trkpt><trkpt lat="38.5413467" lon="21.0867543"><ele>37.0</ele><time>2026-04-30T14:01:14.861Z</time></trkpt><trkpt lat="38.5414205" lon="21.0865461"><ele>38.66666666666667</ele><time>2026-04-30T14:01:15.86Z</time></trkpt><trkpt lat="38.5414687" lon="21.0863355"><ele>40.333333333333336</ele><time>2026-04-30T14:01:16.86Z</time></trkpt><trkpt lat="38.5414999" lon="21.0861141"><ele>42.0</ele><time>2026-04-30T14:01:17.861Z</time></trkpt><trkpt lat="38.5415086" lon="21.0858942"><ele>43.0</ele><time>2026-04-30T14:01:18.859Z</time></trkpt><trkpt lat="38.5414907" lon="21.0856689"><ele>44.0</ele><time>2026-04-30T14:01:19.861Z</time></trkpt><trkpt lat="38.5414518" lon="21.0854441"><ele>45.0</ele><time>2026-04-30T14:01:20.859Z</time></trkpt><trkpt lat="38.5413884" lon="21.0852264"><ele>45.0</ele><time>2026-04-30T14:01:21.862Z</time></trkpt><trkpt lat="38.541309" lon="21.0850048"><ele>45.0</ele><time>2026-04-30T14:01:22.86Z</time></trkpt><trkpt lat="38.5412196" lon="21.0847801"><ele>45.0</ele><time>2026-04-30T14:01:23.858Z</time></trkpt><trkpt lat="38.5411294" lon="21.0845536"><ele>46.66666666666667</ele><time>2026-04-30T14:01:24.861Z</time></trkpt><trkpt lat="38.5410357" lon="21.0843225"><ele>48.333333333333336</ele><time>2026-04-30T14:01:25.863Z</time></trkpt><trkpt lat="38.5409458" lon="21.0840963"><ele>50.0</ele><time>2026-04-30T14:01:26.86Z</time></trkpt><trkpt lat="38.5408533" lon="21.0838766"><ele>53.0</ele><time>2026-04-30T14:01:27.859Z</time></trkpt><trkpt lat="38.5407612" lon="21.0836536"><ele>56.0</ele><time>2026-04-30T14:01:28.859Z</time></trkpt><trkpt lat="38.5406718" lon="21.0834367"><ele>59.0</ele><time>2026-04-30T14:01:29.86Z</time></trkpt><trkpt lat="38.5405884" lon="21.0832213"><ele>63.0</ele><time>2026-04-30T14:01:30.861Z</time></trkpt><trkpt lat="38.5405172" lon="21.083007"><ele>67.0</ele><time>2026-04-30T14:01:31.86Z</time></trkpt><trkpt lat="38.5404468" lon="21.0827898"><ele>71.0</ele><time>2026-04-30T14:01:32.86Z</time></trkpt><trkpt lat="38.5403899" lon="21.0825692"><ele>67.0</ele><time>2026-04-30T14:01:33.859Z</time></trkpt><trkpt lat="38.5403356" lon="21.0823418"><ele>63.0</ele><time>2026-04-30T14:01:34.861Z</time></trkpt><trkpt lat="38.5402976" lon="21.0821065"><ele>59.0</ele><time>2026-04-30T14:01:35.86Z</time></trkpt><trkpt lat="38.5402555" lon="21.0818713"><ele>59.0</ele><time>2026-04-30T14:01:36.86Z</time></trkpt><trkpt lat="38.5402251" lon="21.0816315"><ele>59.0</ele><time>2026-04-30T14:01:37.859Z</time></trkpt><trkpt lat="38.5401878" lon="21.0813884"><ele>59.0</ele><time>2026-04-30T14:01:38.86Z</time></trkpt><trkpt lat="38.5401592" lon="21.0811435"><ele>58.0</ele><time>2026-04-30T14:01:39.86Z</time></trkpt><trkpt lat="38.5401252" lon="21.0809025"><ele>57.0</ele><time>2026-04-30T14:01:40.858Z</time></trkpt><trkpt lat="38.5400983" lon="21.0806815"><ele>56.0</ele><time>2026-04-30T14:01:41.86Z</time></trkpt><trkpt lat="38.5400726" lon="21.0804643"><ele>58.0</ele><time>2026-04-30T14:01:42.861Z</time></trkpt><trkpt lat="38.5400448" lon="21.0802448"><ele>60.0</ele><time>2026-04-30T14:01:43.861Z</time></trkpt><trkpt lat="38.5400105" lon="21.080017"><ele>62.0</ele><time>2026-04-30T14:01:44.861Z</time></trkpt><trkpt lat="38.5399797" lon="21.0797939"><ele>64.66666666666667</ele><time>2026-04-30T14:01:45.861Z</time></trkpt><trkpt lat="38.5399404" lon="21.0795686"><ele>67.33333333333333</ele><time>2026-04-30T14:01:46.86Z</time></trkpt><trkpt lat="38.5398912" lon="21.079348"><ele>70.0</ele><time>2026-04-30T14:01:47.862Z</time></trkpt><trkpt lat="38.5398158" lon="21.0791376"><ele>70.66666666666666</ele><time>2026-04-30T14:01:48.861Z</time></trkpt><trkpt lat="38.5397202" lon="21.0789343"><ele>71.33333333333333</ele><time>2026-04-30T14:01:49.858Z</time></trkpt><trkpt lat="38.5395931" lon="21.0787421"><ele>72.0</ele><time>2026-04-30T14:01:50.861Z</time></trkpt><trkpt lat="38.5394428" lon="21.0785617"><ele>72.0</ele><time>2026-04-30T14:01:51.862Z</time></trkpt><trkpt lat="38.5392872" lon="21.0783999"><ele>72.0</ele><time>2026-04-30T14:01:52.859Z</time></trkpt><trkpt lat="38.5391228" lon="21.0782534"><ele>72.0</ele><time>2026-04-30T14:01:53.86Z</time></trkpt><trkpt lat="38.5389483" lon="21.0781162"><ele>76.66666666666667</ele><time>2026-04-30T14:01:54.86Z</time></trkpt><trkpt lat="38.5387782" lon="21.0779768"><ele>81.33333333333334</ele><time>2026-04-30T14:01:55.861Z</time></trkpt><trkpt lat="38.5386086" lon="21.0778264"><ele>86.0</ele><time>2026-04-30T14:01:56.861Z</time></trkpt><trkpt lat="38.5384431" lon="21.0776621"><ele>86.0</ele><time>2026-04-30T14:01:57.859Z</time></trkpt><trkpt lat="38.5382685" lon="21.0774944"><ele>86.0</ele><time>2026-04-30T14:01:58.86Z</time></trkpt><trkpt lat="38.5380951" lon="21.077328"><ele>86.0</ele><time>2026-04-30T14:01:59.86Z</time></trkpt><trkpt lat="38.537921" lon="21.0771544"><ele>85.66666666666667</ele><time>2026-04-30T14:02:00.859Z</time></trkpt><trkpt lat="38.5377467" lon="21.0769749"><ele>85.33333333333333</ele><time>2026-04-30T14:02:01.858Z</time></trkpt><trkpt lat="38.5375834" lon="21.0767987"><ele>85.0</ele><time>2026-04-30T14:02:02.861Z</time></trkpt><trkpt lat="38.5374173" lon="21.076621"><ele>82.33333333333333</ele><time>2026-04-30T14:02:03.858Z</time></trkpt><trkpt lat="38.5372389" lon="21.0764464"><ele>79.66666666666667</ele><time>2026-04-30T14:02:04.86Z</time></trkpt><trkpt lat="38.5370687" lon="21.0762776"><ele>77.0</ele><time>2026-04-30T14:02:05.858Z</time></trkpt><trkpt lat="38.5368975" lon="21.0761203"><ele>77.0</ele><time>2026-04-30T14:02:06.862Z</time></trkpt><trkpt lat="38.536728" lon="21.0759663"><ele>77.0</ele><time>2026-04-30T14:02:07.861Z</time></trkpt><trkpt lat="38.5365629" lon="21.0758127"><ele>77.0</ele><time>2026-04-30T14:02:08.86Z</time></trkpt><trkpt lat="38.5363957" lon="21.075653"><ele>74.66666666666667</ele><time>2026-04-30T14:02:09.86Z</time></trkpt><trkpt lat="38.5362358" lon="21.0755048"><ele>72.33333333333333</ele><time>2026-04-30T14:02:10.861Z</time></trkpt><trkpt lat="38.5360795" lon="21.0753566"><ele>70.0</ele><time>2026-04-30T14:02:11.862Z</time></trkpt><trkpt lat="38.5359248" lon="21.0752185"><ele>70.0</ele><time>2026-04-30T14:02:12.861Z</time></trkpt><trkpt lat="38.5357682" lon="21.075075"><ele>70.0</ele><time>2026-04-30T14:02:13.86Z</time></trkpt><trkpt lat="38.5356112" lon="21.0749247"><ele>70.0</ele><time>2026-04-30T14:02:14.861Z</time></trkpt><trkpt lat="38.5354546" lon="21.0747726"><ele>71.0</ele><time>2026-04-30T14:02:15.858Z</time></trkpt><trkpt lat="38.5352954" lon="21.0746255"><ele>72.0</ele><time>2026-04-30T14:02:16.86Z</time></trkpt><trkpt lat="38.5351318" lon="21.0744821"><ele>73.0</ele><time>2026-04-30T14:02:17.862Z</time></trkpt><trkpt lat="38.5349591" lon="21.074335"><ele>73.0</ele><time>2026-04-30T14:02:18.861Z</time></trkpt><trkpt lat="38.5347859" lon="21.0741914"><ele>73.0</ele><time>2026-04-30T14:02:19.859Z</time></trkpt><trkpt lat="38.5346175" lon="21.0740574"><ele>73.0</ele><time>2026-04-30T14:02:20.859Z</time></trkpt><trkpt lat="38.534438" lon="21.0739346"><ele>73.33333333333333</ele><time>2026-04-30T14:02:21.859Z</time></trkpt><trkpt lat="38.5342562" lon="21.073826"><ele>73.66666666666667</ele><time>2026-04-30T14:02:22.861Z</time></trkpt><trkpt lat="38.5340758" lon="21.0737171"><ele>74.0</ele><time>2026-04-30T14:02:23.861Z</time></trkpt><trkpt lat="38.5338959" lon="21.0736143"><ele>68.33333333333334</ele><time>2026-04-30T14:02:24.857Z</time></trkpt><trkpt lat="38.5337068" lon="21.0735192"><ele>62.66666666666667</ele><time>2026-04-30T14:02:25.856Z</time></trkpt><trkpt lat="38.5335111" lon="21.0734314"><ele>57.0</ele><time>2026-04-30T14:02:26.861Z</time></trkpt><trkpt lat="38.5333288" lon="21.0733492"><ele>57.0</ele><time>2026-04-30T14:02:27.861Z</time></trkpt><trkpt lat="38.5331431" lon="21.0732725"><ele>57.0</ele><time>2026-04-30T14:02:28.859Z</time></trkpt><trkpt lat="38.5329631" lon="21.0731873"><ele>57.0</ele><time>2026-04-30T14:02:29.859Z</time></trkpt><trkpt lat="38.5327816" lon="21.0731039"><ele>58.0</ele><time>2026-04-30T14:02:30.861Z</time></trkpt><trkpt lat="38.5326042" lon="21.0730199"><ele>59.0</ele><time>2026-04-30T14:02:31.858Z</time></trkpt><trkpt lat="38.5324207" lon="21.0729397"><ele>60.0</ele><time>2026-04-30T14:02:32.86Z</time></trkpt><trkpt lat="38.5322358" lon="21.0728615"><ele>57.0</ele><time>2026-04-30T14:02:33.858Z</time></trkpt><trkpt lat="38.5320524" lon="21.0727799"><ele>54.0</ele><time>2026-04-30T14:02:34.859Z</time></trkpt><trkpt lat="38.5318616" lon="21.0726932"><ele>51.0</ele><time>2026-04-30T14:02:35.86Z</time></trkpt><trkpt lat="38.5316762" lon="21.0726073"><ele>51.0</ele><time>2026-04-30T14:02:36.861Z</time></trkpt><trkpt lat="38.5314942" lon="21.0725316"><ele>51.0</ele><time>2026-04-30T14:02:37.861Z</time></trkpt><trkpt lat="38.5313046" lon="21.0724413"><ele>51.0</ele><time>2026-04-30T14:02:38.861Z</time></trkpt><trkpt lat="38.5311128" lon="21.0723475"><ele>50.66666666666667</ele><time>2026-04-30T14:02:39.86Z</time></trkpt><trkpt lat="38.5309179" lon="21.0722616"><ele>50.333333333333336</ele><time>2026-04-30T14:02:40.858Z</time></trkpt><trkpt lat="38.5307239" lon="21.0721698"><ele>50.0</ele><time>2026-04-30T14:02:41.861Z</time></trkpt><trkpt lat="38.5305259" lon="21.0720759"><ele>45.66666666666667</ele><time>2026-04-30T14:02:42.86Z</time></trkpt><trkpt lat="38.5303287" lon="21.0719824"><ele>41.333333333333336</ele><time>2026-04-30T14:02:43.861Z</time></trkpt><trkpt lat="38.5301304" lon="21.071889"><ele>37.0</ele><time>2026-04-30T14:02:44.861Z</time></trkpt><trkpt lat="38.5299345" lon="21.0717988"><ele>37.0</ele><time>2026-04-30T14:02:45.859Z</time></trkpt><trkpt lat="38.5297351" lon="21.0717026"><ele>37.0</ele><time>2026-04-30T14:02:46.86Z</time></trkpt><trkpt lat="38.5295324" lon="21.071612"><ele>37.0</ele><time>2026-04-30T14:02:47.861Z</time></trkpt><trkpt lat="38.5293359" lon="21.0715158"><ele>37.0</ele><time>2026-04-30T14:02:48.859Z</time></trkpt><trkpt lat="38.5291396" lon="21.0714213"><ele>37.0</ele><time>2026-04-30T14:02:49.861Z</time></trkpt><trkpt lat="38.5289391" lon="21.0713236"><ele>37.0</ele><time>2026-04-30T14:02:50.859Z</time></trkpt><trkpt lat="38.5287392" lon="21.0712263"><ele>34.333333333333336</ele><time>2026-04-30T14:02:51.861Z</time></trkpt><trkpt lat="38.5285405" lon="21.0711285"><ele>31.666666666666664</ele><time>2026-04-30T14:02:52.858Z</time></trkpt><trkpt lat="38.5283371" lon="21.0710355"><ele>29.0</ele><time>2026-04-30T14:02:53.86Z</time></trkpt><trkpt lat="38.5281375" lon="21.0709403"><ele>29.0</ele><time>2026-04-30T14:02:54.862Z</time></trkpt><trkpt lat="38.5279335" lon="21.0708471"><ele>29.0</ele><time>2026-04-30T14:02:55.862Z</time></trkpt><trkpt lat="38.5277319" lon="21.0707514"><ele>29.0</ele><time>2026-04-30T14:02:56.861Z</time></trkpt><trkpt lat="38.5275345" lon="21.0706549"><ele>28.666666666666664</ele><time>2026-04-30T14:02:57.862Z</time></trkpt><trkpt lat="38.5273331" lon="21.0705665"><ele>28.333333333333336</ele><time>2026-04-30T14:02:58.86Z</time></trkpt><trkpt lat="38.5271398" lon="21.0704802"><ele>28.0</ele><time>2026-04-30T14:02:59.859Z</time></trkpt><trkpt lat="38.5269453" lon="21.0703919"><ele>28.0</ele><time>2026-04-30T14:03:00.861Z</time></trkpt><trkpt lat="38.5267465" lon="21.0702981"><ele>28.0</ele><time>2026-04-30T14:03:01.862Z</time></trkpt><trkpt lat="38.5265583" lon="21.0702063"><ele>28.0</ele><time>2026-04-30T14:03:02.86Z</time></trkpt><trkpt lat="38.5263621" lon="21.0701221"><ele>25.666666666666668</ele><time>2026-04-30T14:03:03.859Z</time></trkpt><trkpt lat="38.5261724" lon="21.0700354"><ele>23.333333333333336</ele><time>2026-04-30T14:03:04.861Z</time></trkpt><trkpt lat="38.5259846" lon="21.0699484"><ele>21.0</ele><time>2026-04-30T14:03:05.86Z</time></trkpt><trkpt lat="38.5257978" lon="21.0698564"><ele>24.333333333333336</ele><time>2026-04-30T14:03:06.86Z</time></trkpt><trkpt lat="38.5256116" lon="21.0697669"><ele>27.666666666666668</ele><time>2026-04-30T14:03:07.859Z</time></trkpt><trkpt lat="38.5254292" lon="21.0696758"><ele>31.0</ele><time>2026-04-30T14:03:08.86Z</time></trkpt><trkpt lat="38.5252428" lon="21.0695797"><ele>31.0</ele><time>2026-04-30T14:03:09.859Z</time></trkpt><trkpt lat="38.5250667" lon="21.06948"><ele>31.0</ele><time>2026-04-30T14:03:10.856Z</time></trkpt><trkpt lat="38.5248979" lon="21.0693616"><ele>31.0</ele><time>2026-04-30T14:03:11.859Z</time></trkpt><trkpt lat="38.5247307" lon="21.0692065"><ele>30.333333333333336</ele><time>2026-04-30T14:03:12.861Z</time></trkpt><trkpt lat="38.5245724" lon="21.0690387"><ele>29.666666666666664</ele><time>2026-04-30T14:03:13.86Z</time></trkpt><trkpt lat="38.5244149" lon="21.0688625"><ele>29.0</ele><time>2026-04-30T14:03:14.86Z</time></trkpt><trkpt lat="38.5242631" lon="21.0686829"><ele>29.0</ele><time>2026-04-30T14:03:15.859Z</time></trkpt><trkpt lat="38.5241131" lon="21.0685002"><ele>29.0</ele><time>2026-04-30T14:03:16.86Z</time></trkpt><trkpt lat="38.5239643" lon="21.0683208"><ele>29.0</ele><time>2026-04-30T14:03:17.86Z</time></trkpt><trkpt lat="38.5238191" lon="21.0681405"><ele>29.333333333333332</ele><time>2026-04-30T14:03:18.859Z</time></trkpt><trkpt lat="38.5236768" lon="21.0679633"><ele>29.666666666666664</ele><time>2026-04-30T14:03:19.86Z</time></trkpt><trkpt lat="38.5235431" lon="21.0677836"><ele>30.0</ele><time>2026-04-30T14:03:20.86Z</time></trkpt><trkpt lat="38.5234088" lon="21.0676005"><ele>33.333333333333336</ele><time>2026-04-30T14:03:21.86Z</time></trkpt><trkpt lat="38.5232971" lon="21.0674053"><ele>36.66666666666667</ele><time>2026-04-30T14:03:22.859Z</time></trkpt><trkpt lat="38.5232044" lon="21.0672015"><ele>40.0</ele><time>2026-04-30T14:03:23.862Z</time></trkpt><trkpt lat="38.5231307" lon="21.0669908"><ele>40.0</ele><time>2026-04-30T14:03:24.859Z</time></trkpt><trkpt lat="38.5230779" lon="21.0667706"><ele>40.0</ele><time>2026-04-30T14:03:25.86Z</time></trkpt><trkpt lat="38.5230478" lon="21.0665457"><ele>40.0</ele><time>2026-04-30T14:03:26.86Z</time></trkpt><trkpt lat="38.5230186" lon="21.0663059"><ele>43.333333333333336</ele><time>2026-04-30T14:03:27.86Z</time></trkpt><trkpt lat="38.5230047" lon="21.0660654"><ele>46.66666666666667</ele><time>2026-04-30T14:03:28.859Z</time></trkpt><trkpt lat="38.5229914" lon="21.065824"><ele>50.0</ele><time>2026-04-30T14:03:29.86Z</time></trkpt><trkpt lat="38.522967" lon="21.0655848"><ele>50.0</ele><time>2026-04-30T14:03:30.861Z</time></trkpt><trkpt lat="38.522926" lon="21.0653434"><ele>50.0</ele><time>2026-04-30T14:03:31.862Z</time></trkpt><trkpt lat="38.5228602" lon="21.0651049"><ele>50.0</ele><time>2026-04-30T14:03:32.861Z</time></trkpt><trkpt lat="38.5227739" lon="21.0648892"><ele>50.0</ele><time>2026-04-30T14:03:33.861Z</time></trkpt><trkpt lat="38.5226642" lon="21.0646813"><ele>50.0</ele><time>2026-04-30T14:03:34.861Z</time></trkpt><trkpt lat="38.5225336" lon="21.064485"><ele>50.0</ele><time>2026-04-30T14:03:35.861Z</time></trkpt><trkpt lat="38.5223895" lon="21.0642961"><ele>49.66666666666667</ele><time>2026-04-30T14:03:36.86Z</time></trkpt><trkpt lat="38.5222371" lon="21.0640975"><ele>49.33333333333333</ele><time>2026-04-30T14:03:37.86Z</time></trkpt><trkpt lat="38.5220792" lon="21.0638983"><ele>49.0</ele><time>2026-04-30T14:03:38.86Z</time></trkpt><trkpt lat="38.5219239" lon="21.063699"><ele>49.0</ele><time>2026-04-30T14:03:39.862Z</time></trkpt><trkpt lat="38.5217648" lon="21.0635046"><ele>49.0</ele><time>2026-04-30T14:03:40.86Z</time></trkpt><trkpt lat="38.521596" lon="21.0633067"><ele>49.0</ele><time>2026-04-30T14:03:41.861Z</time></trkpt><trkpt lat="38.5214275" lon="21.0631149"><ele>50.5</ele><time>2026-04-30T14:03:42.861Z</time></trkpt><trkpt lat="38.5212629" lon="21.0629134"><ele>52.0</ele><time>2026-04-30T14:03:43.861Z</time></trkpt><trkpt lat="38.521102" lon="21.0627147"><ele>52.0</ele><time>2026-04-30T14:03:44.861Z</time></trkpt><trkpt lat="38.5209459" lon="21.0625126"><ele>52.0</ele><time>2026-04-30T14:03:45.861Z</time></trkpt><trkpt lat="38.5207881" lon="21.0623174"><ele>52.0</ele><time>2026-04-30T14:03:46.859Z</time></trkpt><trkpt lat="38.520629" lon="21.0621219"><ele>52.666666666666664</ele><time>2026-04-30T14:03:47.86Z</time></trkpt><trkpt lat="38.5204733" lon="21.0619271"><ele>53.33333333333333</ele><time>2026-04-30T14:03:48.858Z</time></trkpt><trkpt lat="38.5203219" lon="21.0617366"><ele>54.0</ele><time>2026-04-30T14:03:49.86Z</time></trkpt><trkpt lat="38.5201721" lon="21.0615412"><ele>58.0</ele><time>2026-04-30T14:03:50.859Z</time></trkpt><trkpt lat="38.5200336" lon="21.0613334"><ele>62.0</ele><time>2026-04-30T14:03:51.86Z</time></trkpt><trkpt lat="38.5199015" lon="21.0611154"><ele>66.0</ele><time>2026-04-30T14:03:52.858Z</time></trkpt><trkpt lat="38.5197766" lon="21.0608917"><ele>64.66666666666667</ele><time>2026-04-30T14:03:53.86Z</time></trkpt><trkpt lat="38.5196489" lon="21.0606607"><ele>63.333333333333336</ele><time>2026-04-30T14:03:54.86Z</time></trkpt><trkpt lat="38.5195259" lon="21.060429"><ele>62.0</ele><time>2026-04-30T14:03:55.86Z</time></trkpt><trkpt lat="38.5194081" lon="21.0601995"><ele>62.0</ele><time>2026-04-30T14:03:56.859Z</time></trkpt><trkpt lat="38.5192947" lon="21.0599817"><ele>62.0</ele><time>2026-04-30T14:03:57.86Z</time></trkpt><trkpt lat="38.5191776" lon="21.0597518"><ele>62.0</ele><time>2026-04-30T14:03:58.86Z</time></trkpt><trkpt lat="38.5190594" lon="21.0595226"><ele>64.0</ele><time>2026-04-30T14:03:59.86Z</time></trkpt><trkpt lat="38.5189482" lon="21.0592942"><ele>66.0</ele><time>2026-04-30T14:04:00.859Z</time></trkpt><trkpt lat="38.5188287" lon="21.0590644"><ele>68.0</ele><time>2026-04-30T14:04:01.86Z</time></trkpt><trkpt lat="38.5187105" lon="21.0588304"><ele>68.0</ele><time>2026-04-30T14:04:02.858Z</time></trkpt><trkpt lat="38.5185952" lon="21.0585983"><ele>68.0</ele><time>2026-04-30T14:04:03.86Z</time></trkpt><trkpt lat="38.5184822" lon="21.0583625"><ele>68.0</ele><time>2026-04-30T14:04:04.861Z</time></trkpt><trkpt lat="38.5183642" lon="21.0581317"><ele>72.66666666666667</ele><time>2026-04-30T14:04:05.859Z</time></trkpt><trkpt lat="38.5182426" lon="21.0579032"><ele>77.33333333333333</ele><time>2026-04-30T14:04:06.859Z</time></trkpt><trkpt lat="38.5181205" lon="21.0576721"><ele>82.0</ele><time>2026-04-30T14:04:07.861Z</time></trkpt><trkpt lat="38.5180013" lon="21.057436"><ele>80.66666666666666</ele><time>2026-04-30T14:04:08.859Z</time></trkpt><trkpt lat="38.5178785" lon="21.057209"><ele>79.33333333333333</ele><time>2026-04-30T14:04:09.861Z</time></trkpt><trkpt lat="38.5177423" lon="21.0569977"><ele>78.0</ele><time>2026-04-30T14:04:10.861Z</time></trkpt><trkpt lat="38.5175961" lon="21.0568062"><ele>78.0</ele><time>2026-04-30T14:04:11.86Z</time></trkpt><trkpt lat="38.5174356" lon="21.0566387"><ele>78.0</ele><time>2026-04-30T14:04:12.861Z</time></trkpt><trkpt lat="38.5172669" lon="21.0564989"><ele>78.0</ele><time>2026-04-30T14:04:13.862Z</time></trkpt><trkpt lat="38.5170815" lon="21.056373"><ele>79.66666666666667</ele><time>2026-04-30T14:04:14.858Z</time></trkpt><trkpt lat="38.5168965" lon="21.0562559"><ele>81.33333333333334</ele><time>2026-04-30T14:04:15.858Z</time></trkpt><trkpt lat="38.5167105" lon="21.0561398"><ele>83.0</ele><time>2026-04-30T14:04:16.859Z</time></trkpt><trkpt lat="38.5165291" lon="21.0560203"><ele>83.0</ele><time>2026-04-30T14:04:17.86Z</time></trkpt><trkpt lat="38.5163415" lon="21.0558986"><ele>83.0</ele><time>2026-04-30T14:04:18.86Z</time></trkpt><trkpt lat="38.5161618" lon="21.0557791"><ele>83.0</ele><time>2026-04-30T14:04:19.859Z</time></trkpt><trkpt lat="38.5159974" lon="21.0556472"><ele>85.0</ele><time>2026-04-30T14:04:20.859Z</time></trkpt><trkpt lat="38.5158415" lon="21.0554985"><ele>87.0</ele><time>2026-04-30T14:04:21.86Z</time></trkpt><trkpt lat="38.5156972" lon="21.0553316"><ele>89.0</ele><time>2026-04-30T14:04:22.86Z</time></trkpt><trkpt lat="38.5155684" lon="21.0551465"><ele>89.0</ele><time>2026-04-30T14:04:23.858Z</time></trkpt><trkpt lat="38.5154603" lon="21.0549553"><ele>89.0</ele><time>2026-04-30T14:04:24.86Z</time></trkpt><trkpt lat="38.5153651" lon="21.0547549"><ele>89.0</ele><time>2026-04-30T14:04:25.859Z</time></trkpt><trkpt lat="38.5152864" lon="21.0545424"><ele>86.33333333333334</ele><time>2026-04-30T14:04:26.86Z</time></trkpt><trkpt lat="38.5152298" lon="21.054321"><ele>83.66666666666667</ele><time>2026-04-30T14:04:27.859Z</time></trkpt><trkpt lat="38.515185" lon="21.0540917"><ele>81.0</ele><time>2026-04-30T14:04:28.859Z</time></trkpt><trkpt lat="38.5151409" lon="21.0538531"><ele>81.0</ele><time>2026-04-30T14:04:29.861Z</time></trkpt><trkpt lat="38.5151031" lon="21.0536027"><ele>81.0</ele><time>2026-04-30T14:04:30.86Z</time></trkpt><trkpt lat="38.5150499" lon="21.0533517"><ele>81.0</ele><time>2026-04-30T14:04:31.86Z</time></trkpt><trkpt lat="38.5149921" lon="21.0530982"><ele>88.0</ele><time>2026-04-30T14:04:32.859Z</time></trkpt><trkpt lat="38.5149102" lon="21.0528396"><ele>95.0</ele><time>2026-04-30T14:04:33.86Z</time></trkpt><trkpt lat="38.5148068" lon="21.0525932"><ele>102.0</ele><time>2026-04-30T14:04:34.859Z</time></trkpt><trkpt lat="38.514685" lon="21.052356"><ele>91.0</ele><time>2026-04-30T14:04:35.859Z</time></trkpt><trkpt lat="38.5145472" lon="21.0521223"><ele>80.0</ele><time>2026-04-30T14:04:36.86Z</time></trkpt><trkpt lat="38.5144024" lon="21.0518886"><ele>80.0</ele><time>2026-04-30T14:04:37.859Z</time></trkpt><trkpt lat="38.5142519" lon="21.0516534"><ele>80.0</ele><time>2026-04-30T14:04:38.859Z</time></trkpt><trkpt lat="38.5140966" lon="21.0514145"><ele>98.5</ele><time>2026-04-30T14:04:39.86Z</time></trkpt><trkpt lat="38.5139419" lon="21.0511766"><ele>117.0</ele><time>2026-04-30T14:04:40.859Z</time></trkpt><trkpt lat="38.5137815" lon="21.0509417"><ele>113.5</ele><time>2026-04-30T14:04:41.859Z</time></trkpt><trkpt lat="38.5136154" lon="21.0507138"><ele>110.0</ele><time>2026-04-30T14:04:42.86Z</time></trkpt><trkpt lat="38.5134308" lon="21.0505057"><ele>110.0</ele><time>2026-04-30T14:04:43.86Z</time></trkpt><trkpt lat="38.5132399" lon="21.0503123"><ele>110.0</ele><time>2026-04-30T14:04:44.86Z</time></trkpt><trkpt lat="38.5130408" lon="21.0501284"><ele>113.5</ele><time>2026-04-30T14:04:45.859Z</time></trkpt><trkpt lat="38.512835" lon="21.0499513"><ele>117.0</ele><time>2026-04-30T14:04:46.859Z</time></trkpt><trkpt lat="38.5126337" lon="21.0497736"><ele>117.0</ele><time>2026-04-30T14:04:47.858Z</time></trkpt><trkpt lat="38.5124378" lon="21.0495967"><ele>117.0</ele><time>2026-04-30T14:04:48.86Z</time></trkpt><trkpt lat="38.5122412" lon="21.0494203"><ele>124.5</ele><time>2026-04-30T14:04:49.86Z</time></trkpt><trkpt lat="38.5120316" lon="21.049239"><ele>132.0</ele><time>2026-04-30T14:04:50.86Z</time></trkpt><trkpt lat="38.5118354" lon="21.0490595"><ele>132.0</ele><time>2026-04-30T14:04:51.859Z</time></trkpt><trkpt lat="38.5116323" lon="21.0488823"><ele>132.0</ele><time>2026-04-30T14:04:52.86Z</time></trkpt><trkpt lat="38.5114277" lon="21.0487064"><ele>116.0</ele><time>2026-04-30T14:04:53.863Z</time></trkpt><trkpt lat="38.5112162" lon="21.0485432"><ele>100.0</ele><time>2026-04-30T14:04:54.86Z</time></trkpt><trkpt lat="38.5109997" lon="21.0483898"><ele>121.0</ele><time>2026-04-30T14:04:55.859Z</time></trkpt><trkpt lat="38.5107738" lon="21.0482627"><ele>142.0</ele><time>2026-04-30T14:04:56.859Z</time></trkpt><trkpt lat="38.5105447" lon="21.0481363"><ele>128.5</ele><time>2026-04-30T14:04:57.859Z</time></trkpt><trkpt lat="38.5103178" lon="21.0480135"><ele>115.0</ele><time>2026-04-30T14:04:58.859Z</time></trkpt><trkpt lat="38.5101022" lon="21.0478961"><ele>115.0</ele><time>2026-04-30T14:04:59.859Z</time></trkpt><trkpt lat="38.5098765" lon="21.0477737"><ele>115.0</ele><time>2026-04-30T14:05:00.861Z</time></trkpt><trkpt lat="38.5096826" lon="21.0476586"><ele>109.33333333333334</ele><time>2026-04-30T14:05:01.86Z</time></trkpt><trkpt lat="38.5094748" lon="21.0475395"><ele>103.66666666666666</ele><time>2026-04-30T14:05:02.86Z</time></trkpt><trkpt lat="38.5092736" lon="21.0474243"><ele>98.0</ele><time>2026-04-30T14:05:03.863Z</time></trkpt><trkpt lat="38.509061" lon="21.0473076"><ele>104.0</ele><time>2026-04-30T14:05:04.859Z</time></trkpt><trkpt lat="38.5088522" lon="21.0471928"><ele>110.0</ele><time>2026-04-30T14:05:05.859Z</time></trkpt><trkpt lat="38.5086466" lon="21.0470875"><ele>116.0</ele><time>2026-04-30T14:05:06.86Z</time></trkpt><trkpt lat="38.5084367" lon="21.0469863"><ele>116.0</ele><time>2026-04-30T14:05:07.858Z</time></trkpt><trkpt lat="38.5082359" lon="21.0468924"><ele>116.0</ele><time>2026-04-30T14:05:08.859Z</time></trkpt><trkpt lat="38.5080348" lon="21.0467998"><ele>116.0</ele><time>2026-04-30T14:05:09.858Z</time></trkpt><trkpt lat="38.5078286" lon="21.0467179"><ele>120.66666666666666</ele><time>2026-04-30T14:05:10.859Z</time></trkpt><trkpt lat="38.5076202" lon="21.0466162"><ele>125.33333333333334</ele><time>2026-04-30T14:05:11.86Z</time></trkpt><trkpt lat="38.5074337" lon="21.046525"><ele>130.0</ele><time>2026-04-30T14:05:12.86Z</time></trkpt><trkpt lat="38.5072712" lon="21.0464322"><ele>130.0</ele><time>2026-04-30T14:05:13.861Z</time></trkpt><trkpt lat="38.507099" lon="21.0463059"><ele>130.0</ele><time>2026-04-30T14:05:14.858Z</time></trkpt><trkpt lat="38.5069498" lon="21.0461674"><ele>130.0</ele><time>2026-04-30T14:05:15.861Z</time></trkpt><trkpt lat="38.5068075" lon="21.0460061"><ele>126.33333333333334</ele><time>2026-04-30T14:05:16.859Z</time></trkpt><trkpt lat="38.5066688" lon="21.0458385"><ele>122.66666666666666</ele><time>2026-04-30T14:05:17.857Z</time></trkpt><trkpt lat="38.5065201" lon="21.045671"><ele>119.0</ele><time>2026-04-30T14:05:18.859Z</time></trkpt><trkpt lat="38.5063717" lon="21.045502"><ele>107.66666666666666</ele><time>2026-04-30T14:05:19.858Z</time></trkpt><trkpt lat="38.5062211" lon="21.0453373"><ele>96.33333333333333</ele><time>2026-04-30T14:05:20.861Z</time></trkpt><trkpt lat="38.5060736" lon="21.0451809"><ele>85.0</ele><time>2026-04-30T14:05:21.859Z</time></trkpt><trkpt lat="38.5059297" lon="21.0450316"><ele>93.66666666666666</ele><time>2026-04-30T14:05:22.859Z</time></trkpt><trkpt lat="38.5058058" lon="21.0448938"><ele>102.33333333333333</ele><time>2026-04-30T14:05:23.859Z</time></trkpt><trkpt lat="38.5056746" lon="21.0447425"><ele>111.0</ele><time>2026-04-30T14:05:24.86Z</time></trkpt><trkpt lat="38.5055492" lon="21.0445861"><ele>111.0</ele><time>2026-04-30T14:05:25.86Z</time></trkpt><trkpt lat="38.5054309" lon="21.0443993"><ele>111.0</ele><time>2026-04-30T14:05:26.858Z</time></trkpt><trkpt lat="38.5053305" lon="21.0442196"><ele>111.0</ele><time>2026-04-30T14:05:27.861Z</time></trkpt><trkpt lat="38.5052467" lon="21.0440163"><ele>99.33333333333333</ele><time>2026-04-30T14:05:28.859Z</time></trkpt><trkpt lat="38.5051844" lon="21.0438141"><ele>87.66666666666666</ele><time>2026-04-30T14:05:29.86Z</time></trkpt><trkpt lat="38.505141" lon="21.043601"><ele>76.0</ele><time>2026-04-30T14:05:30.859Z</time></trkpt><trkpt lat="38.5051193" lon="21.043387"><ele>73.0</ele><time>2026-04-30T14:05:31.859Z</time></trkpt><trkpt lat="38.5051031" lon="21.0431743"><ele>70.0</ele><time>2026-04-30T14:05:32.859Z</time></trkpt><trkpt lat="38.5050943" lon="21.0429762"><ele>67.0</ele><time>2026-04-30T14:05:33.86Z</time></trkpt><trkpt lat="38.5050909" lon="21.0427809"><ele>67.0</ele><time>2026-04-30T14:05:34.86Z</time></trkpt><trkpt lat="38.5050993" lon="21.0425834"><ele>67.0</ele><time>2026-04-30T14:05:35.859Z</time></trkpt><trkpt lat="38.5051334" lon="21.0423875"><ele>67.0</ele><time>2026-04-30T14:05:36.861Z</time></trkpt><trkpt lat="38.5051817" lon="21.0421832"><ele>66.33333333333333</ele><time>2026-04-30T14:05:37.857Z</time></trkpt><trkpt lat="38.5052609" lon="21.0419839"><ele>65.66666666666667</ele><time>2026-04-30T14:05:38.861Z</time></trkpt><trkpt lat="38.5053537" lon="21.0417882"><ele>65.0</ele><time>2026-04-30T14:05:39.862Z</time></trkpt><trkpt lat="38.505466" lon="21.0415759"><ele>65.0</ele><time>2026-04-30T14:05:40.861Z</time></trkpt><trkpt lat="38.5055794" lon="21.0413699"><ele>65.0</ele><time>2026-04-30T14:05:41.862Z</time></trkpt><trkpt lat="38.5056994" lon="21.0411507"><ele>65.0</ele><time>2026-04-30T14:05:42.859Z</time></trkpt><trkpt lat="38.5058159" lon="21.040927"><ele>55.66666666666667</ele><time>2026-04-30T14:05:43.86Z</time></trkpt><trkpt lat="38.505936" lon="21.0406993"><ele>46.333333333333336</ele><time>2026-04-30T14:05:44.861Z</time></trkpt><trkpt lat="38.5060491" lon="21.040484"><ele>37.0</ele><time>2026-04-30T14:05:45.86Z</time></trkpt><trkpt lat="38.50616" lon="21.0402756"><ele>43.333333333333336</ele><time>2026-04-30T14:05:46.858Z</time></trkpt><trkpt lat="38.5062648" lon="21.0400721"><ele>49.66666666666667</ele><time>2026-04-30T14:05:47.86Z</time></trkpt><trkpt lat="38.5063812" lon="21.0398688"><ele>56.0</ele><time>2026-04-30T14:05:48.858Z</time></trkpt><trkpt lat="38.5064895" lon="21.0396644"><ele>56.0</ele><time>2026-04-30T14:05:49.857Z</time></trkpt><trkpt lat="38.5065956" lon="21.0394653"><ele>56.0</ele><time>2026-04-30T14:05:50.858Z</time></trkpt><trkpt lat="38.506711" lon="21.0392688"><ele>56.0</ele><time>2026-04-30T14:05:51.859Z</time></trkpt><trkpt lat="38.506817" lon="21.0390776"><ele>50.0</ele><time>2026-04-30T14:05:52.859Z</time></trkpt><trkpt lat="38.5069221" lon="21.0388878"><ele>44.0</ele><time>2026-04-30T14:05:53.857Z</time></trkpt><trkpt lat="38.5070246" lon="21.0386906"><ele>38.0</ele><time>2026-04-30T14:05:54.861Z</time></trkpt><trkpt lat="38.50712" lon="21.0384953"><ele>47.666666666666664</ele><time>2026-04-30T14:05:55.859Z</time></trkpt><trkpt lat="38.5072166" lon="21.0383008"><ele>57.33333333333333</ele><time>2026-04-30T14:05:56.86Z</time></trkpt><trkpt lat="38.5073125" lon="21.038108"><ele>67.0</ele><time>2026-04-30T14:05:57.859Z</time></trkpt><trkpt lat="38.5074089" lon="21.0379183"><ele>67.0</ele><time>2026-04-30T14:05:58.858Z</time></trkpt><trkpt lat="38.5074956" lon="21.0377113"><ele>67.0</ele><time>2026-04-30T14:05:59.861Z</time></trkpt><trkpt lat="38.5075671" lon="21.0374955"><ele>67.0</ele><time>2026-04-30T14:06:00.859Z</time></trkpt><trkpt lat="38.5076368" lon="21.0372824"><ele>64.33333333333333</ele><time>2026-04-30T14:06:01.859Z</time></trkpt><trkpt lat="38.5077015" lon="21.0370723"><ele>61.66666666666667</ele><time>2026-04-30T14:06:02.859Z</time></trkpt><trkpt lat="38.5077653" lon="21.0368568"><ele>59.0</ele><time>2026-04-30T14:06:03.858Z</time></trkpt><trkpt lat="38.5078274" lon="21.036646"><ele>57.66666666666667</ele><time>2026-04-30T14:06:04.86Z</time></trkpt><trkpt lat="38.5078878" lon="21.0364326"><ele>56.33333333333333</ele><time>2026-04-30T14:06:05.86Z</time></trkpt><trkpt lat="38.5079469" lon="21.0362216"><ele>55.0</ele><time>2026-04-30T14:06:06.859Z</time></trkpt><trkpt lat="38.5080114" lon="21.0360157"><ele>63.33333333333333</ele><time>2026-04-30T14:06:07.858Z</time></trkpt><trkpt lat="38.5080712" lon="21.0358109"><ele>71.66666666666667</ele><time>2026-04-30T14:06:08.859Z</time></trkpt><trkpt lat="38.5081353" lon="21.035605"><ele>80.0</ele><time>2026-04-30T14:06:09.86Z</time></trkpt><trkpt lat="38.5081919" lon="21.0353984"><ele>80.0</ele><time>2026-04-30T14:06:10.86Z</time></trkpt><trkpt lat="38.508249" lon="21.0351932"><ele>80.0</ele><time>2026-04-30T14:06:11.858Z</time></trkpt><trkpt lat="38.5083158" lon="21.0349902"><ele>80.0</ele><time>2026-04-30T14:06:12.861Z</time></trkpt><trkpt lat="38.5083817" lon="21.0347865"><ele>76.0</ele><time>2026-04-30T14:06:13.859Z</time></trkpt><trkpt lat="38.508451" lon="21.0345873"><ele>72.0</ele><time>2026-04-30T14:06:14.858Z</time></trkpt><trkpt lat="38.5085294" lon="21.0343926"><ele>68.0</ele><time>2026-04-30T14:06:15.859Z</time></trkpt><trkpt lat="38.5086152" lon="21.034209"><ele>68.66666666666667</ele><time>2026-04-30T14:06:16.857Z</time></trkpt><trkpt lat="38.5087234" lon="21.0340473"><ele>69.33333333333333</ele><time>2026-04-30T14:06:17.858Z</time></trkpt><trkpt lat="38.50884" lon="21.0338909"><ele>70.0</ele><time>2026-04-30T14:06:18.86Z</time></trkpt><trkpt lat="38.5089715" lon="21.0337519"><ele>70.0</ele><time>2026-04-30T14:06:19.86Z</time></trkpt><trkpt lat="38.5091151" lon="21.0336382"><ele>70.0</ele><time>2026-04-30T14:06:20.858Z</time></trkpt><trkpt lat="38.5092707" lon="21.0335457"><ele>70.0</ele><time>2026-04-30T14:06:21.858Z</time></trkpt><trkpt lat="38.5094368" lon="21.0334907"><ele>70.66666666666666</ele><time>2026-04-30T14:06:22.861Z</time></trkpt><trkpt lat="38.5096134" lon="21.0334568"><ele>71.33333333333333</ele><time>2026-04-30T14:06:23.861Z</time></trkpt><trkpt lat="38.5097796" lon="21.0334252"><ele>72.0</ele><time>2026-04-30T14:06:24.859Z</time></trkpt><trkpt lat="38.5099566" lon="21.0333982"><ele>72.0</ele><time>2026-04-30T14:06:25.858Z</time></trkpt><trkpt lat="38.5101429" lon="21.0333927"><ele>72.0</ele><time>2026-04-30T14:06:26.863Z</time></trkpt><trkpt lat="38.510323" lon="21.0333706"><ele>72.0</ele><time>2026-04-30T14:06:27.861Z</time></trkpt><trkpt lat="38.5105045" lon="21.0333503"><ele>70.33333333333333</ele><time>2026-04-30T14:06:28.86Z</time></trkpt><trkpt lat="38.5106877" lon="21.0333299"><ele>68.66666666666666</ele><time>2026-04-30T14:06:29.86Z</time></trkpt><trkpt lat="38.5108683" lon="21.0333116"><ele>67.0</ele><time>2026-04-30T14:06:30.863Z</time></trkpt><trkpt lat="38.5110502" lon="21.033285"><ele>67.0</ele><time>2026-04-30T14:06:31.858Z</time></trkpt><trkpt lat="38.5112329" lon="21.0332626"><ele>67.0</ele><time>2026-04-30T14:06:32.858Z</time></trkpt><trkpt lat="38.5114113" lon="21.0332436"><ele>67.0</ele><time>2026-04-30T14:06:33.859Z</time></trkpt><trkpt lat="38.511595" lon="21.033232"><ele>73.0</ele><time>2026-04-30T14:06:34.858Z</time></trkpt><trkpt lat="38.5117738" lon="21.0332162"><ele>79.0</ele><time>2026-04-30T14:06:35.86Z</time></trkpt><trkpt lat="38.5119524" lon="21.0332026"><ele>85.0</ele><time>2026-04-30T14:06:36.859Z</time></trkpt><trkpt lat="38.5121278" lon="21.0331848"><ele>86.33333333333333</ele><time>2026-04-30T14:06:37.861Z</time></trkpt><trkpt lat="38.512305" lon="21.033164"><ele>87.66666666666667</ele><time>2026-04-30T14:06:38.86Z</time></trkpt><trkpt lat="38.5124856" lon="21.0331488"><ele>89.0</ele><time>2026-04-30T14:06:39.858Z</time></trkpt><trkpt lat="38.5126696" lon="21.0331343"><ele>89.0</ele><time>2026-04-30T14:06:40.857Z</time></trkpt><trkpt lat="38.5128539" lon="21.0331188"><ele>89.0</ele><time>2026-04-30T14:06:41.859Z</time></trkpt><trkpt lat="38.513038" lon="21.0330981"><ele>89.0</ele><time>2026-04-30T14:06:42.859Z</time></trkpt><trkpt lat="38.5132217" lon="21.0330774"><ele>91.0</ele><time>2026-04-30T14:06:43.859Z</time></trkpt><trkpt lat="38.5134016" lon="21.0330601"><ele>93.0</ele><time>2026-04-30T14:06:44.86Z</time></trkpt><trkpt lat="38.5135873" lon="21.0330461"><ele>95.0</ele><time>2026-04-30T14:06:45.861Z</time></trkpt><trkpt lat="38.5137705" lon="21.0330322"><ele>97.66666666666667</ele><time>2026-04-30T14:06:46.862Z</time></trkpt><trkpt lat="38.5139584" lon="21.0330156"><ele>100.33333333333334</ele><time>2026-04-30T14:06:47.858Z</time></trkpt><trkpt lat="38.5141446" lon="21.0330018"><ele>103.0</ele><time>2026-04-30T14:06:48.861Z</time></trkpt><trkpt lat="38.5143324" lon="21.0329848"><ele>103.0</ele><time>2026-04-30T14:06:49.86Z</time></trkpt><trkpt lat="38.5145138" lon="21.0329654"><ele>103.0</ele><time>2026-04-30T14:06:50.859Z</time></trkpt><trkpt lat="38.5146973" lon="21.0329492"><ele>103.0</ele><time>2026-04-30T14:06:51.86Z</time></trkpt><trkpt lat="38.5148863" lon="21.0329373"><ele>106.0</ele><time>2026-04-30T14:06:52.859Z</time></trkpt><trkpt lat="38.5150767" lon="21.0329258"><ele>109.0</ele><time>2026-04-30T14:06:53.86Z</time></trkpt><trkpt lat="38.5152656" lon="21.032915"><ele>112.0</ele><time>2026-04-30T14:06:54.86Z</time></trkpt><trkpt lat="38.5154541" lon="21.0329066"><ele>113.0</ele><time>2026-04-30T14:06:55.858Z</time></trkpt><trkpt lat="38.5156415" lon="21.0328883"><ele>114.0</ele><time>2026-04-30T14:06:56.858Z</time></trkpt><trkpt lat="38.5158287" lon="21.0328755"><ele>115.0</ele><time>2026-04-30T14:06:57.858Z</time></trkpt><trkpt lat="38.5160155" lon="21.0328619"><ele>115.0</ele><time>2026-04-30T14:06:58.86Z</time></trkpt><trkpt lat="38.5162071" lon="21.0328472"><ele>115.0</ele><time>2026-04-30T14:06:59.858Z</time></trkpt><trkpt lat="38.5163975" lon="21.0328374"><ele>115.0</ele><time>2026-04-30T14:07:00.858Z</time></trkpt><trkpt lat="38.5165894" lon="21.0328277"><ele>114.33333333333334</ele><time>2026-04-30T14:07:01.861Z</time></trkpt><trkpt lat="38.5167903" lon="21.0328244"><ele>113.66666666666666</ele><time>2026-04-30T14:07:02.856Z</time></trkpt><trkpt lat="38.5169924" lon="21.0328162"><ele>113.0</ele><time>2026-04-30T14:07:03.862Z</time></trkpt><trkpt lat="38.5171982" lon="21.0328121"><ele>115.0</ele><time>2026-04-30T14:07:04.857Z</time></trkpt><trkpt lat="38.5174029" lon="21.0328132"><ele>117.0</ele><time>2026-04-30T14:07:05.861Z</time></trkpt><trkpt lat="38.5176139" lon="21.0328077"><ele>119.0</ele><time>2026-04-30T14:07:06.861Z</time></trkpt><trkpt lat="38.5178293" lon="21.0327974"><ele>121.33333333333333</ele><time>2026-04-30T14:07:07.859Z</time></trkpt><trkpt lat="38.5180443" lon="21.0327843"><ele>123.66666666666666</ele><time>2026-04-30T14:07:08.859Z</time></trkpt><trkpt lat="38.51826" lon="21.0327714"><ele>126.0</ele><time>2026-04-30T14:07:09.86Z</time></trkpt><trkpt lat="38.5184777" lon="21.0327579"><ele>126.0</ele><time>2026-04-30T14:07:10.858Z</time></trkpt><trkpt lat="38.518702" lon="21.0327469"><ele>126.0</ele><time>2026-04-30T14:07:11.855Z</time></trkpt><trkpt lat="38.5189254" lon="21.0327387"><ele>126.0</ele><time>2026-04-30T14:07:12.859Z</time></trkpt><trkpt lat="38.5191422" lon="21.0327316"><ele>127.66666666666666</ele><time>2026-04-30T14:07:13.86Z</time></trkpt><trkpt lat="38.5193613" lon="21.0327191"><ele>129.33333333333331</ele><time>2026-04-30T14:07:14.86Z</time></trkpt><trkpt lat="38.5195828" lon="21.0327045"><ele>131.0</ele><time>2026-04-30T14:07:15.861Z</time></trkpt><trkpt lat="38.5197992" lon="21.0326891"><ele>131.33333333333331</ele><time>2026-04-30T14:07:16.86Z</time></trkpt><trkpt lat="38.5200208" lon="21.0326763"><ele>131.66666666666666</ele><time>2026-04-30T14:07:17.858Z</time></trkpt><trkpt lat="38.5202362" lon="21.0326658"><ele>132.0</ele><time>2026-04-30T14:07:18.858Z</time></trkpt><trkpt lat="38.5204551" lon="21.0326555"><ele>134.33333333333334</ele><time>2026-04-30T14:07:19.856Z</time></trkpt><trkpt lat="38.5206733" lon="21.0326431"><ele>136.66666666666669</ele><time>2026-04-30T14:07:20.857Z</time></trkpt><trkpt lat="38.5208953" lon="21.0326288"><ele>139.0</ele><time>2026-04-30T14:07:21.858Z</time></trkpt><trkpt lat="38.521117" lon="21.0326201"><ele>142.5</ele><time>2026-04-30T14:07:22.861Z</time></trkpt><trkpt lat="38.521345" lon="21.0326017"><ele>146.0</ele><time>2026-04-30T14:07:23.861Z</time></trkpt><trkpt lat="38.5215756" lon="21.0325903"><ele>146.0</ele><time>2026-04-30T14:07:24.859Z</time></trkpt><trkpt lat="38.5218054" lon="21.0325736"><ele>146.0</ele><time>2026-04-30T14:07:25.859Z</time></trkpt><trkpt lat="38.5220337" lon="21.0325592"><ele>148.5</ele><time>2026-04-30T14:07:26.862Z</time></trkpt><trkpt lat="38.5222615" lon="21.0325451"><ele>151.0</ele><time>2026-04-30T14:07:27.862Z</time></trkpt><trkpt lat="38.5224859" lon="21.0325345"><ele>151.0</ele><time>2026-04-30T14:07:28.861Z</time></trkpt><trkpt lat="38.5227046" lon="21.0325339"><ele>151.0</ele><time>2026-04-30T14:07:29.856Z</time></trkpt><trkpt lat="38.5229234" lon="21.0325397"><ele>151.0</ele><time>2026-04-30T14:07:30.861Z</time></trkpt><trkpt lat="38.5231421" lon="21.0325626"><ele>151.33333333333334</ele><time>2026-04-30T14:07:31.863Z</time></trkpt><trkpt lat="38.5233593" lon="21.0326054"><ele>151.66666666666666</ele><time>2026-04-30T14:07:32.863Z</time></trkpt><trkpt lat="38.5235767" lon="21.0326622"><ele>152.0</ele><time>2026-04-30T14:07:33.863Z</time></trkpt><trkpt lat="38.5237951" lon="21.0327271"><ele>152.66666666666666</ele><time>2026-04-30T14:07:34.868Z</time></trkpt><trkpt lat="38.5240119" lon="21.0328016"><ele>153.33333333333334</ele><time>2026-04-30T14:07:35.867Z</time></trkpt><trkpt lat="38.5242239" lon="21.0328753"><ele>154.0</ele><time>2026-04-30T14:07:36.861Z</time></trkpt><trkpt lat="38.5244359" lon="21.0329431"><ele>151.33333333333334</ele><time>2026-04-30T14:07:37.862Z</time></trkpt><trkpt lat="38.5246488" lon="21.0330158"><ele>148.66666666666666</ele><time>2026-04-30T14:07:38.859Z</time></trkpt><trkpt lat="38.5248672" lon="21.0330889"><ele>146.0</ele><time>2026-04-30T14:07:39.86Z</time></trkpt><trkpt lat="38.525081" lon="21.0331653"><ele>146.0</ele><time>2026-04-30T14:07:40.86Z</time></trkpt><trkpt lat="38.525297" lon="21.0332415"><ele>146.0</ele><time>2026-04-30T14:07:41.863Z</time></trkpt><trkpt lat="38.5255078" lon="21.0333191"><ele>146.0</ele><time>2026-04-30T14:07:42.866Z</time></trkpt><trkpt lat="38.5257214" lon="21.0333913"><ele>150.0</ele><time>2026-04-30T14:07:43.863Z</time></trkpt><trkpt lat="38.5259372" lon="21.0334637"><ele>154.0</ele><time>2026-04-30T14:07:44.868Z</time></trkpt><trkpt lat="38.5261496" lon="21.0335439"><ele>158.0</ele><time>2026-04-30T14:07:45.862Z</time></trkpt><trkpt lat="38.5263649" lon="21.0336218"><ele>158.0</ele><time>2026-04-30T14:07:46.862Z</time></trkpt><trkpt lat="38.5265802" lon="21.033699"><ele>158.0</ele><time>2026-04-30T14:07:47.866Z</time></trkpt><trkpt lat="38.5267948" lon="21.0337776"><ele>158.0</ele><time>2026-04-30T14:07:48.863Z</time></trkpt><trkpt lat="38.5270052" lon="21.0338523"><ele>157.66666666666666</ele><time>2026-04-30T14:07:49.868Z</time></trkpt><trkpt lat="38.5272156" lon="21.033933"><ele>157.33333333333334</ele><time>2026-04-30T14:07:50.867Z</time></trkpt><trkpt lat="38.5274245" lon="21.0340059"><ele>157.0</ele><time>2026-04-30T14:07:51.862Z</time></trkpt><trkpt lat="38.5276321" lon="21.0340756"><ele>162.33333333333334</ele><time>2026-04-30T14:07:52.861Z</time></trkpt><trkpt lat="38.5278331" lon="21.0341501"><ele>167.66666666666666</ele><time>2026-04-30T14:07:53.862Z</time></trkpt><trkpt lat="38.5280314" lon="21.0342222"><ele>173.0</ele><time>2026-04-30T14:07:54.859Z</time></trkpt><trkpt lat="38.5282327" lon="21.0342914"><ele>173.0</ele><time>2026-04-30T14:07:55.86Z</time></trkpt><trkpt lat="38.5284295" lon="21.0343641"><ele>173.0</ele><time>2026-04-30T14:07:56.858Z</time></trkpt><trkpt lat="38.5286263" lon="21.0344394"><ele>173.0</ele><time>2026-04-30T14:07:57.861Z</time></trkpt><trkpt lat="38.5288341" lon="21.0345123"><ele>171.66666666666666</ele><time>2026-04-30T14:07:58.862Z</time></trkpt><trkpt lat="38.5290399" lon="21.0345813"><ele>170.33333333333334</ele><time>2026-04-30T14:07:59.862Z</time></trkpt><trkpt lat="38.5292466" lon="21.0346556"><ele>169.0</ele><time>2026-04-30T14:08:00.86Z</time></trkpt><trkpt lat="38.5294564" lon="21.0347305"><ele>166.0</ele><time>2026-04-30T14:08:01.862Z</time></trkpt><trkpt lat="38.5296634" lon="21.0348034"><ele>163.0</ele><time>2026-04-30T14:08:02.86Z</time></trkpt><trkpt lat="38.5298716" lon="21.0348727"><ele>160.0</ele><time>2026-04-30T14:08:03.862Z</time></trkpt><trkpt lat="38.5300814" lon="21.0349475"><ele>164.33333333333334</ele><time>2026-04-30T14:08:04.858Z</time></trkpt><trkpt lat="38.5302913" lon="21.0350211"><ele>168.66666666666666</ele><time>2026-04-30T14:08:05.86Z</time></trkpt><trkpt lat="38.5305073" lon="21.0350938"><ele>173.0</ele><time>2026-04-30T14:08:06.856Z</time></trkpt><trkpt lat="38.5307228" lon="21.0351681"><ele>173.0</ele><time>2026-04-30T14:08:07.859Z</time></trkpt><trkpt lat="38.5309365" lon="21.0352429"><ele>173.0</ele><time>2026-04-30T14:08:08.86Z</time></trkpt><trkpt lat="38.5311487" lon="21.0353182"><ele>173.0</ele><time>2026-04-30T14:08:09.86Z</time></trkpt><trkpt lat="38.5313622" lon="21.0353891"><ele>172.66666666666666</ele><time>2026-04-30T14:08:10.858Z</time></trkpt><trkpt lat="38.5315724" lon="21.0354595"><ele>172.33333333333334</ele><time>2026-04-30T14:08:11.859Z</time></trkpt><trkpt lat="38.5317832" lon="21.0355106"><ele>172.0</ele><time>2026-04-30T14:08:12.86Z</time></trkpt><trkpt lat="38.5319915" lon="21.0355295"><ele>172.66666666666669</ele><time>2026-04-30T14:08:13.857Z</time></trkpt><trkpt lat="38.5321974" lon="21.0355221"><ele>173.33333333333334</ele><time>2026-04-30T14:08:14.858Z</time></trkpt><trkpt lat="38.5324048" lon="21.0354879"><ele>174.0</ele><time>2026-04-30T14:08:15.861Z</time></trkpt><trkpt lat="38.5326196" lon="21.0354303"><ele>174.0</ele><time>2026-04-30T14:08:16.86Z</time></trkpt><trkpt lat="38.5328302" lon="21.0353469"><ele>174.0</ele><time>2026-04-30T14:08:17.861Z</time></trkpt><trkpt lat="38.5330396" lon="21.0352433"><ele>174.0</ele><time>2026-04-30T14:08:18.858Z</time></trkpt><trkpt lat="38.5332429" lon="21.0351271"><ele>174.0</ele><time>2026-04-30T14:08:19.86Z</time></trkpt><trkpt lat="38.533448" lon="21.0350119"><ele>174.0</ele><time>2026-04-30T14:08:20.86Z</time></trkpt><trkpt lat="38.5336558" lon="21.0348914"><ele>177.5</ele><time>2026-04-30T14:08:21.856Z</time></trkpt><trkpt lat="38.5338625" lon="21.0347768"><ele>181.0</ele><time>2026-04-30T14:08:22.859Z</time></trkpt><trkpt lat="38.5340675" lon="21.0346583"><ele>181.0</ele><time>2026-04-30T14:08:23.858Z</time></trkpt><trkpt lat="38.5342702" lon="21.0345425"><ele>181.0</ele><time>2026-04-30T14:08:24.859Z</time></trkpt><trkpt lat="38.5344739" lon="21.0344302"><ele>181.0</ele><time>2026-04-30T14:08:25.859Z</time></trkpt><trkpt lat="38.5346814" lon="21.0343028"><ele>181.0</ele><time>2026-04-30T14:08:26.857Z</time></trkpt><trkpt lat="38.5348866" lon="21.0341836"><ele>181.0</ele><time>2026-04-30T14:08:27.861Z</time></trkpt><trkpt lat="38.5350893" lon="21.0340634"><ele>181.0</ele><time>2026-04-30T14:08:28.86Z</time></trkpt><trkpt lat="38.5352921" lon="21.0339461"><ele>179.0</ele><time>2026-04-30T14:08:29.86Z</time></trkpt><trkpt lat="38.5354982" lon="21.0338301"><ele>177.0</ele><time>2026-04-30T14:08:30.859Z</time></trkpt><trkpt lat="38.5357032" lon="21.0337126"><ele>177.0</ele><time>2026-04-30T14:08:31.859Z</time></trkpt><trkpt lat="38.5359073" lon="21.0335943"><ele>177.0</ele><time>2026-04-30T14:08:32.86Z</time></trkpt><trkpt lat="38.5361127" lon="21.0334711"><ele>179.5</ele><time>2026-04-30T14:08:33.86Z</time></trkpt><trkpt lat="38.5363138" lon="21.0333418"><ele>182.0</ele><time>2026-04-30T14:08:34.857Z</time></trkpt><trkpt lat="38.5365176" lon="21.0332105"><ele>182.0</ele><time>2026-04-30T14:08:35.861Z</time></trkpt><trkpt lat="38.5367184" lon="21.0330769"><ele>182.0</ele><time>2026-04-30T14:08:36.859Z</time></trkpt><trkpt lat="38.5369202" lon="21.032941"><ele>185.0</ele><time>2026-04-30T14:08:37.86Z</time></trkpt><trkpt lat="38.5371196" lon="21.032801"><ele>188.0</ele><time>2026-04-30T14:08:38.858Z</time></trkpt><trkpt lat="38.5373166" lon="21.0326685"><ele>188.0</ele><time>2026-04-30T14:08:39.859Z</time></trkpt><trkpt lat="38.5375076" lon="21.0325329"><ele>188.0</ele><time>2026-04-30T14:08:40.86Z</time></trkpt><trkpt lat="38.5377024" lon="21.0323979"><ele>188.0</ele><time>2026-04-30T14:08:41.86Z</time></trkpt><trkpt lat="38.5378976" lon="21.0322574"><ele>187.66666666666666</ele><time>2026-04-30T14:08:42.86Z</time></trkpt><trkpt lat="38.5380894" lon="21.0321203"><ele>187.33333333333334</ele><time>2026-04-30T14:08:43.86Z</time></trkpt><trkpt lat="38.5382789" lon="21.0319781"><ele>187.0</ele><time>2026-04-30T14:08:44.859Z</time></trkpt><trkpt lat="38.5384697" lon="21.0318431"><ele>187.0</ele><time>2026-04-30T14:08:45.859Z</time></trkpt><trkpt lat="38.5386603" lon="21.0317168"><ele>187.0</ele><time>2026-04-30T14:08:46.861Z</time></trkpt><trkpt lat="38.5388559" lon="21.0315923"><ele>187.0</ele><time>2026-04-30T14:08:47.857Z</time></trkpt><trkpt lat="38.5390505" lon="21.0314661"><ele>184.33333333333334</ele><time>2026-04-30T14:08:48.858Z</time></trkpt><trkpt lat="38.5392464" lon="21.0313389"><ele>181.66666666666666</ele><time>2026-04-30T14:08:49.859Z</time></trkpt><trkpt lat="38.5394422" lon="21.0312045"><ele>179.0</ele><time>2026-04-30T14:08:50.857Z</time></trkpt><trkpt lat="38.539637" lon="21.0310644"><ele>179.0</ele><time>2026-04-30T14:08:51.858Z</time></trkpt><trkpt lat="38.5398293" lon="21.0309229"><ele>179.0</ele><time>2026-04-30T14:08:52.855Z</time></trkpt><trkpt lat="38.5400203" lon="21.0307863"><ele>179.0</ele><time>2026-04-30T14:08:53.857Z</time></trkpt><trkpt lat="38.5402048" lon="21.0306424"><ele>178.66666666666666</ele><time>2026-04-30T14:08:54.859Z</time></trkpt><trkpt lat="38.540375" lon="21.0304863"><ele>178.33333333333334</ele><time>2026-04-30T14:08:55.86Z</time></trkpt><trkpt lat="38.5405263" lon="21.0303077"><ele>178.0</ele><time>2026-04-30T14:08:56.86Z</time></trkpt><trkpt lat="38.5406508" lon="21.0300993"><ele>176.33333333333334</ele><time>2026-04-30T14:08:57.86Z</time></trkpt><trkpt lat="38.5407484" lon="21.0298722"><ele>174.66666666666666</ele><time>2026-04-30T14:08:58.857Z</time></trkpt><trkpt lat="38.5408221" lon="21.0296131"><ele>173.0</ele><time>2026-04-30T14:08:59.861Z</time></trkpt><trkpt lat="38.5408674" lon="21.0293555"><ele>172.33333333333331</ele><time>2026-04-30T14:09:00.858Z</time></trkpt><trkpt lat="38.5408777" lon="21.0290944"><ele>171.66666666666666</ele><time>2026-04-30T14:09:01.862Z</time></trkpt><trkpt lat="38.5408507" lon="21.0288319"><ele>171.0</ele><time>2026-04-30T14:09:02.858Z</time></trkpt><trkpt lat="38.5408199" lon="21.0285847"><ele>171.0</ele><time>2026-04-30T14:09:03.86Z</time></trkpt><trkpt lat="38.5407829" lon="21.0283479"><ele>171.0</ele><time>2026-04-30T14:09:04.86Z</time></trkpt><trkpt lat="38.5407534" lon="21.0281239"><ele>171.0</ele><time>2026-04-30T14:09:05.86Z</time></trkpt><trkpt lat="38.5407385" lon="21.0278985"><ele>170.0</ele><time>2026-04-30T14:09:06.859Z</time></trkpt><trkpt lat="38.5407374" lon="21.0276807"><ele>169.0</ele><time>2026-04-30T14:09:07.859Z</time></trkpt><trkpt lat="38.5407615" lon="21.027464"><ele>168.0</ele><time>2026-04-30T14:09:08.861Z</time></trkpt><trkpt lat="38.5408064" lon="21.0272522"><ele>165.0</ele><time>2026-04-30T14:09:09.861Z</time></trkpt><trkpt lat="38.5408716" lon="21.0270452"><ele>162.0</ele><time>2026-04-30T14:09:10.859Z</time></trkpt><trkpt lat="38.5409496" lon="21.0268406"><ele>159.0</ele><time>2026-04-30T14:09:11.861Z</time></trkpt><trkpt lat="38.5410368" lon="21.026634"><ele>162.33333333333334</ele><time>2026-04-30T14:09:12.86Z</time></trkpt><trkpt lat="38.5411321" lon="21.0264369"><ele>165.66666666666669</ele><time>2026-04-30T14:09:13.86Z</time></trkpt><trkpt lat="38.5412353" lon="21.0262453"><ele>169.0</ele><time>2026-04-30T14:09:14.856Z</time></trkpt><trkpt lat="38.5413357" lon="21.0260605"><ele>169.0</ele><time>2026-04-30T14:09:15.86Z</time></trkpt><trkpt lat="38.5414259" lon="21.0258707"><ele>169.0</ele><time>2026-04-30T14:09:16.86Z</time></trkpt><trkpt lat="38.541495" lon="21.0256738"><ele>169.0</ele><time>2026-04-30T14:09:17.859Z</time></trkpt><trkpt lat="38.5415508" lon="21.0254634"><ele>166.33333333333334</ele><time>2026-04-30T14:09:18.861Z</time></trkpt><trkpt lat="38.541596" lon="21.0252438"><ele>163.66666666666666</ele><time>2026-04-30T14:09:19.859Z</time></trkpt><trkpt lat="38.5416257" lon="21.0250228"><ele>161.0</ele><time>2026-04-30T14:09:20.861Z</time></trkpt><trkpt lat="38.5416547" lon="21.0247953"><ele>158.66666666666666</ele><time>2026-04-30T14:09:21.861Z</time></trkpt><trkpt lat="38.5416705" lon="21.0245639"><ele>156.33333333333334</ele><time>2026-04-30T14:09:22.857Z</time></trkpt><trkpt lat="38.5416736" lon="21.0243367"><ele>154.0</ele><time>2026-04-30T14:09:23.862Z</time></trkpt><trkpt lat="38.5416746" lon="21.0241132"><ele>152.0</ele><time>2026-04-30T14:09:24.861Z</time></trkpt><trkpt lat="38.5416839" lon="21.0238939"><ele>150.0</ele><time>2026-04-30T14:09:25.86Z</time></trkpt><trkpt lat="38.5416957" lon="21.0236835"><ele>148.0</ele><time>2026-04-30T14:09:26.856Z</time></trkpt><trkpt lat="38.5416995" lon="21.023475"><ele>145.66666666666669</ele><time>2026-04-30T14:09:27.857Z</time></trkpt><trkpt lat="38.5417069" lon="21.0232748"><ele>143.33333333333334</ele><time>2026-04-30T14:09:28.861Z</time></trkpt><trkpt lat="38.541714" lon="21.023075"><ele>141.0</ele><time>2026-04-30T14:09:29.859Z</time></trkpt><trkpt lat="38.5417211" lon="21.0228737"><ele>141.0</ele><time>2026-04-30T14:09:30.859Z</time></trkpt><trkpt lat="38.5417265" lon="21.0226624"><ele>141.0</ele><time>2026-04-30T14:09:31.861Z</time></trkpt><trkpt lat="38.5417367" lon="21.0224571"><ele>141.0</ele><time>2026-04-30T14:09:32.857Z</time></trkpt><trkpt lat="38.5417457" lon="21.0222491"><ele>139.0</ele><time>2026-04-30T14:09:33.86Z</time></trkpt><trkpt lat="38.5417588" lon="21.0220491"><ele>137.0</ele><time>2026-04-30T14:09:34.861Z</time></trkpt><trkpt lat="38.5417727" lon="21.0218499"><ele>135.0</ele><time>2026-04-30T14:09:35.858Z</time></trkpt><trkpt lat="38.5417959" lon="21.0216577"><ele>133.0</ele><time>2026-04-30T14:09:36.862Z</time></trkpt><trkpt lat="38.5418312" lon="21.021462"><ele>131.0</ele><time>2026-04-30T14:09:37.86Z</time></trkpt><trkpt lat="38.5418781" lon="21.0212724"><ele>129.0</ele><time>2026-04-30T14:09:38.859Z</time></trkpt><trkpt lat="38.5419349" lon="21.0210956"><ele>129.0</ele><time>2026-04-30T14:09:39.857Z</time></trkpt><trkpt lat="38.5420165" lon="21.0209188"><ele>129.0</ele><time>2026-04-30T14:09:40.857Z</time></trkpt><trkpt lat="38.5421056" lon="21.020757"><ele>129.0</ele><time>2026-04-30T14:09:41.859Z</time></trkpt><trkpt lat="38.5422062" lon="21.0206097"><ele>129.66666666666666</ele><time>2026-04-30T14:09:42.859Z</time></trkpt><trkpt lat="38.5423307" lon="21.0204843"><ele>130.33333333333331</ele><time>2026-04-30T14:09:43.858Z</time></trkpt><trkpt lat="38.5424711" lon="21.0203695"><ele>131.0</ele><time>2026-04-30T14:09:44.859Z</time></trkpt><trkpt lat="38.5426161" lon="21.0202629"><ele>131.0</ele><time>2026-04-30T14:09:45.86Z</time></trkpt><trkpt lat="38.5427715" lon="21.02017"><ele>131.0</ele><time>2026-04-30T14:09:46.861Z</time></trkpt><trkpt lat="38.5429261" lon="21.020082"><ele>131.0</ele><time>2026-04-30T14:09:47.858Z</time></trkpt><trkpt lat="38.543087" lon="21.0199997"><ele>120.66666666666666</ele><time>2026-04-30T14:09:48.862Z</time></trkpt><trkpt lat="38.5432559" lon="21.0199261"><ele>110.33333333333334</ele><time>2026-04-30T14:09:49.861Z</time></trkpt><trkpt lat="38.5434207" lon="21.0198525"><ele>100.0</ele><time>2026-04-30T14:09:50.86Z</time></trkpt><trkpt lat="38.5435849" lon="21.0197815"><ele>100.66666666666667</ele><time>2026-04-30T14:09:51.859Z</time></trkpt><trkpt lat="38.5437437" lon="21.0197145"><ele>101.33333333333334</ele><time>2026-04-30T14:09:52.86Z</time></trkpt><trkpt lat="38.5439044" lon="21.0196516"><ele>102.0</ele><time>2026-04-30T14:09:53.861Z</time></trkpt><trkpt lat="38.5440597" lon="21.0195843"><ele>102.0</ele><time>2026-04-30T14:09:54.857Z</time></trkpt><trkpt lat="38.5442152" lon="21.0195203"><ele>102.0</ele><time>2026-04-30T14:09:55.857Z</time></trkpt><trkpt lat="38.544372" lon="21.0194536"><ele>102.0</ele><time>2026-04-30T14:09:56.857Z</time></trkpt><trkpt lat="38.5445246" lon="21.0193898"><ele>105.0</ele><time>2026-04-30T14:09:57.861Z</time></trkpt><trkpt lat="38.5446759" lon="21.0193251"><ele>108.0</ele><time>2026-04-30T14:09:58.861Z</time></trkpt><trkpt lat="38.5448298" lon="21.0192635"><ele>111.0</ele><time>2026-04-30T14:09:59.857Z</time></trkpt><trkpt lat="38.5449837" lon="21.0192002"><ele>102.0</ele><time>2026-04-30T14:10:00.859Z</time></trkpt><trkpt lat="38.5451406" lon="21.0191504"><ele>93.0</ele><time>2026-04-30T14:10:01.86Z</time></trkpt><trkpt lat="38.5453022" lon="21.0191122"><ele>84.0</ele><time>2026-04-30T14:10:02.858Z</time></trkpt><trkpt lat="38.5454656" lon="21.0190887"><ele>84.0</ele><time>2026-04-30T14:10:03.858Z</time></trkpt><trkpt lat="38.5456308" lon="21.0190827"><ele>84.0</ele><time>2026-04-30T14:10:04.863Z</time></trkpt><trkpt lat="38.5457964" lon="21.0190929"><ele>84.0</ele><time>2026-04-30T14:10:05.857Z</time></trkpt><trkpt lat="38.5459653" lon="21.01913"><ele>89.0</ele><time>2026-04-30T14:10:06.858Z</time></trkpt><trkpt lat="38.5461375" lon="21.0191859"><ele>94.0</ele><time>2026-04-30T14:10:07.858Z</time></trkpt><trkpt lat="38.5463051" lon="21.0192507"><ele>99.0</ele><time>2026-04-30T14:10:08.86Z</time></trkpt><trkpt lat="38.5464785" lon="21.0193179"><ele>99.0</ele><time>2026-04-30T14:10:09.857Z</time></trkpt><trkpt lat="38.5466582" lon="21.019382"><ele>99.0</ele><time>2026-04-30T14:10:10.859Z</time></trkpt><trkpt lat="38.5468358" lon="21.0194459"><ele>99.0</ele><time>2026-04-30T14:10:11.859Z</time></trkpt><trkpt lat="38.5470168" lon="21.019509"><ele>93.66666666666667</ele><time>2026-04-30T14:10:12.859Z</time></trkpt><trkpt lat="38.5472032" lon="21.0195579"><ele>88.33333333333334</ele><time>2026-04-30T14:10:13.858Z</time></trkpt><trkpt lat="38.5473867" lon="21.0195762"><ele>83.0</ele><time>2026-04-30T14:10:14.859Z</time></trkpt><trkpt lat="38.5475752" lon="21.0195746"><ele>83.0</ele><time>2026-04-30T14:10:15.857Z</time></trkpt><trkpt lat="38.5477509" lon="21.0195402"><ele>83.0</ele><time>2026-04-30T14:10:16.859Z</time></trkpt><trkpt lat="38.5479219" lon="21.0194978"><ele>83.0</ele><time>2026-04-30T14:10:17.858Z</time></trkpt><trkpt lat="38.5480913" lon="21.0194454"><ele>84.0</ele><time>2026-04-30T14:10:18.859Z</time></trkpt><trkpt lat="38.5482599" lon="21.0193933"><ele>85.0</ele><time>2026-04-30T14:10:19.858Z</time></trkpt><trkpt lat="38.5484247" lon="21.0193421"><ele>86.0</ele><time>2026-04-30T14:10:20.859Z</time></trkpt><trkpt lat="38.5485834" lon="21.0192869"><ele>87.66666666666667</ele><time>2026-04-30T14:10:21.858Z</time></trkpt><trkpt lat="38.5487505" lon="21.0192311"><ele>89.33333333333333</ele><time>2026-04-30T14:10:22.857Z</time></trkpt><trkpt lat="38.5489139" lon="21.0191731"><ele>91.0</ele><time>2026-04-30T14:10:23.858Z</time></trkpt><trkpt lat="38.549077" lon="21.0191121"><ele>81.66666666666666</ele><time>2026-04-30T14:10:24.859Z</time></trkpt><trkpt lat="38.5492446" lon="21.0190467"><ele>72.33333333333333</ele><time>2026-04-30T14:10:25.86Z</time></trkpt><trkpt lat="38.5494089" lon="21.0189972"><ele>63.0</ele><time>2026-04-30T14:10:26.86Z</time></trkpt><trkpt lat="38.5495752" lon="21.0189629"><ele>63.0</ele><time>2026-04-30T14:10:27.858Z</time></trkpt><trkpt lat="38.5497481" lon="21.0189313"><ele>63.0</ele><time>2026-04-30T14:10:28.858Z</time></trkpt><trkpt lat="38.5499242" lon="21.018904"><ele>63.0</ele><time>2026-04-30T14:10:29.858Z</time></trkpt><trkpt lat="38.5501051" lon="21.0188864"><ele>63.0</ele><time>2026-04-30T14:10:30.861Z</time></trkpt><trkpt lat="38.5502879" lon="21.0188746"><ele>63.0</ele><time>2026-04-30T14:10:31.865Z</time></trkpt><trkpt lat="38.5504767" lon="21.0188645"><ele>63.0</ele><time>2026-04-30T14:10:32.858Z</time></trkpt><trkpt lat="38.5506712" lon="21.0188579"><ele>60.0</ele><time>2026-04-30T14:10:33.857Z</time></trkpt><trkpt lat="38.5508667" lon="21.0188541"><ele>57.0</ele><time>2026-04-30T14:10:34.86Z</time></trkpt><trkpt lat="38.5510651" lon="21.0188477"><ele>54.0</ele><time>2026-04-30T14:10:35.859Z</time></trkpt><trkpt lat="38.5512674" lon="21.0188431"><ele>51.333333333333336</ele><time>2026-04-30T14:10:36.857Z</time></trkpt><trkpt lat="38.5514684" lon="21.0188326"><ele>48.66666666666667</ele><time>2026-04-30T14:10:37.858Z</time></trkpt><trkpt lat="38.5516674" lon="21.0188266"><ele>46.0</ele><time>2026-04-30T14:10:38.858Z</time></trkpt><trkpt lat="38.5518664" lon="21.0188195"><ele>45.66666666666667</ele><time>2026-04-30T14:10:39.859Z</time></trkpt><trkpt lat="38.5520662" lon="21.0188099"><ele>45.333333333333336</ele><time>2026-04-30T14:10:40.858Z</time></trkpt><trkpt lat="38.5522661" lon="21.0188119"><ele>45.0</ele><time>2026-04-30T14:10:41.858Z</time></trkpt><trkpt lat="38.5524678" lon="21.018815"><ele>45.0</ele><time>2026-04-30T14:10:42.857Z</time></trkpt><trkpt lat="38.5526743" lon="21.0188219"><ele>45.0</ele><time>2026-04-30T14:10:43.861Z</time></trkpt><trkpt lat="38.5528811" lon="21.0188308"><ele>45.0</ele><time>2026-04-30T14:10:44.858Z</time></trkpt><trkpt lat="38.5530878" lon="21.0188349"><ele>43.0</ele><time>2026-04-30T14:10:45.859Z</time></trkpt><trkpt lat="38.5533022" lon="21.0188435"><ele>41.0</ele><time>2026-04-30T14:10:46.857Z</time></trkpt><trkpt lat="38.5535148" lon="21.0188629"><ele>39.0</ele><time>2026-04-30T14:10:47.858Z</time></trkpt><trkpt lat="38.5537246" lon="21.0188727"><ele>38.666666666666664</ele><time>2026-04-30T14:10:48.858Z</time></trkpt><trkpt lat="38.5539285" lon="21.0188847"><ele>38.33333333333333</ele><time>2026-04-30T14:10:49.858Z</time></trkpt><trkpt lat="38.5541315" lon="21.0188929"><ele>38.0</ele><time>2026-04-30T14:10:50.861Z</time></trkpt><trkpt lat="38.5543319" lon="21.0189045"><ele>38.0</ele><time>2026-04-30T14:10:51.864Z</time></trkpt><trkpt lat="38.5545358" lon="21.0189153"><ele>38.0</ele><time>2026-04-30T14:10:52.861Z</time></trkpt><trkpt lat="38.5547293" lon="21.0189167"><ele>38.0</ele><time>2026-04-30T14:10:53.856Z</time></trkpt><trkpt lat="38.5549227" lon="21.0189078"><ele>38.33333333333333</ele><time>2026-04-30T14:10:54.859Z</time></trkpt><trkpt lat="38.555115" lon="21.0188783"><ele>38.666666666666664</ele><time>2026-04-30T14:10:55.858Z</time></trkpt><trkpt lat="38.5553101" lon="21.0188298"><ele>39.0</ele><time>2026-04-30T14:10:56.861Z</time></trkpt><trkpt lat="38.5555082" lon="21.0187587"><ele>37.333333333333336</ele><time>2026-04-30T14:10:57.86Z</time></trkpt><trkpt lat="38.5557031" lon="21.0186766"><ele>35.66666666666667</ele><time>2026-04-30T14:10:58.861Z</time></trkpt><trkpt lat="38.5558984" lon="21.0185831"><ele>34.0</ele><time>2026-04-30T14:10:59.859Z</time></trkpt><trkpt lat="38.5560895" lon="21.0184743"><ele>35.66666666666667</ele><time>2026-04-30T14:11:00.862Z</time></trkpt><trkpt lat="38.5562802" lon="21.018361"><ele>37.333333333333336</ele><time>2026-04-30T14:11:01.856Z</time></trkpt><trkpt lat="38.5564688" lon="21.0182505"><ele>39.0</ele><time>2026-04-30T14:11:02.862Z</time></trkpt><trkpt lat="38.5566567" lon="21.0181486"><ele>32.0</ele><time>2026-04-30T14:11:03.858Z</time></trkpt><trkpt lat="38.5568372" lon="21.0180413"><ele>25.0</ele><time>2026-04-30T14:11:04.859Z</time></trkpt><trkpt lat="38.5570153" lon="21.0179361"><ele>18.0</ele><time>2026-04-30T14:11:05.862Z</time></trkpt><trkpt lat="38.557197" lon="21.0178242"><ele>18.0</ele><time>2026-04-30T14:11:06.858Z</time></trkpt><trkpt lat="38.5573751" lon="21.0177197"><ele>18.0</ele><time>2026-04-30T14:11:07.857Z</time></trkpt><trkpt lat="38.5575519" lon="21.0176101"><ele>18.0</ele><time>2026-04-30T14:11:08.856Z</time></trkpt><trkpt lat="38.5577312" lon="21.0175041"><ele>15.0</ele><time>2026-04-30T14:11:09.857Z</time></trkpt><trkpt lat="38.557913" lon="21.0173943"><ele>12.0</ele><time>2026-04-30T14:11:10.858Z</time></trkpt><trkpt lat="38.5580912" lon="21.0172842"><ele>9.0</ele><time>2026-04-30T14:11:11.858Z</time></trkpt><trkpt lat="38.5582687" lon="21.0171749"><ele>9.0</ele><time>2026-04-30T14:11:12.859Z</time></trkpt><trkpt lat="38.5584433" lon="21.0170628"><ele>9.0</ele><time>2026-04-30T14:11:13.86Z</time></trkpt><trkpt lat="38.5586131" lon="21.0169571"><ele>9.0</ele><time>2026-04-30T14:11:14.857Z</time></trkpt><trkpt lat="38.5587837" lon="21.0168557"><ele>8.666666666666666</ele><time>2026-04-30T14:11:15.857Z</time></trkpt><trkpt lat="38.5589616" lon="21.0167524"><ele>8.333333333333332</ele><time>2026-04-30T14:11:16.858Z</time></trkpt><trkpt lat="38.5591344" lon="21.0166488"><ele>8.0</ele><time>2026-04-30T14:11:17.861Z</time></trkpt><trkpt lat="38.5593125" lon="21.0165515"><ele>8.0</ele><time>2026-04-30T14:11:18.859Z</time></trkpt><trkpt lat="38.5594946" lon="21.0164553"><ele>8.0</ele><time>2026-04-30T14:11:19.86Z</time></trkpt><trkpt lat="38.5596834" lon="21.0163768"><ele>8.0</ele><time>2026-04-30T14:11:20.86Z</time></trkpt><trkpt lat="38.5598763" lon="21.0163186"><ele>8.0</ele><time>2026-04-30T14:11:21.859Z</time></trkpt><trkpt lat="38.5600716" lon="21.0162792"><ele>8.0</ele><time>2026-04-30T14:11:22.86Z</time></trkpt><trkpt lat="38.5602707" lon="21.0162589"><ele>8.0</ele><time>2026-04-30T14:11:23.855Z</time></trkpt><trkpt lat="38.5604701" lon="21.0162591"><ele>8.0</ele><time>2026-04-30T14:11:24.86Z</time></trkpt><trkpt lat="38.5606702" lon="21.0162714"><ele>8.0</ele><time>2026-04-30T14:11:25.858Z</time></trkpt><trkpt lat="38.5608761" lon="21.0162988"><ele>8.0</ele><time>2026-04-30T14:11:26.858Z</time></trkpt><trkpt lat="38.5610773" lon="21.0163432"><ele>6.666666666666666</ele><time>2026-04-30T14:11:27.857Z</time></trkpt><trkpt lat="38.5612894" lon="21.0163939"><ele>5.333333333333333</ele><time>2026-04-30T14:11:28.856Z</time></trkpt><trkpt lat="38.5614966" lon="21.0164514"><ele>4.0</ele><time>2026-04-30T14:11:29.857Z</time></trkpt><trkpt lat="38.5617059" lon="21.0165095"><ele>4.0</ele><time>2026-04-30T14:11:30.859Z</time></trkpt><trkpt lat="38.5619156" lon="21.0165664"><ele>4.0</ele><time>2026-04-30T14:11:31.856Z</time></trkpt><trkpt lat="38.5621316" lon="21.0166251"><ele>4.0</ele><time>2026-04-30T14:11:32.858Z</time></trkpt><trkpt lat="38.5623474" lon="21.0166869"><ele>5.0</ele><time>2026-04-30T14:11:33.857Z</time></trkpt><trkpt lat="38.5625645" lon="21.0167483"><ele>6.0</ele><time>2026-04-30T14:11:34.858Z</time></trkpt><trkpt lat="38.5627786" lon="21.0168092"><ele>7.0</ele><time>2026-04-30T14:11:35.857Z</time></trkpt><trkpt lat="38.5629972" lon="21.0168758"><ele>7.0</ele><time>2026-04-30T14:11:36.86Z</time></trkpt><trkpt lat="38.5632093" lon="21.0169358"><ele>7.0</ele><time>2026-04-30T14:11:37.86Z</time></trkpt><trkpt lat="38.5634224" lon="21.0169958"><ele>7.0</ele><time>2026-04-30T14:11:38.858Z</time></trkpt><trkpt lat="38.5636359" lon="21.0170566"><ele>8.0</ele><time>2026-04-30T14:11:39.857Z</time></trkpt><trkpt lat="38.5638441" lon="21.0171116"><ele>9.0</ele><time>2026-04-30T14:11:40.859Z</time></trkpt><trkpt lat="38.5640508" lon="21.0171644"><ele>10.0</ele><time>2026-04-30T14:11:41.857Z</time></trkpt><trkpt lat="38.5642565" lon="21.0172194"><ele>10.0</ele><time>2026-04-30T14:11:42.858Z</time></trkpt><trkpt lat="38.5644598" lon="21.017274"><ele>10.0</ele><time>2026-04-30T14:11:43.857Z</time></trkpt><trkpt lat="38.5646571" lon="21.0173304"><ele>10.0</ele><time>2026-04-30T14:11:44.857Z</time></trkpt><trkpt lat="38.5648596" lon="21.0173852"><ele>12.333333333333334</ele><time>2026-04-30T14:11:45.859Z</time></trkpt><trkpt lat="38.5650602" lon="21.0174433"><ele>14.666666666666668</ele><time>2026-04-30T14:11:46.859Z</time></trkpt><trkpt lat="38.5652583" lon="21.0174977"><ele>17.0</ele><time>2026-04-30T14:11:47.857Z</time></trkpt><trkpt lat="38.5654516" lon="21.0175468"><ele>17.0</ele><time>2026-04-30T14:11:48.859Z</time></trkpt><trkpt lat="38.5656441" lon="21.0175961"><ele>17.0</ele><time>2026-04-30T14:11:49.857Z</time></trkpt><trkpt lat="38.5658334" lon="21.0176452"><ele>17.0</ele><time>2026-04-30T14:11:50.859Z</time></trkpt><trkpt lat="38.5660275" lon="21.0176984"><ele>15.0</ele><time>2026-04-30T14:11:51.859Z</time></trkpt><trkpt lat="38.566223" lon="21.0177653"><ele>13.0</ele><time>2026-04-30T14:11:52.86Z</time></trkpt><trkpt lat="38.5664078" lon="21.0178469"><ele>11.0</ele><time>2026-04-30T14:11:53.86Z</time></trkpt><trkpt lat="38.5666003" lon="21.0179413"><ele>11.0</ele><time>2026-04-30T14:11:54.86Z</time></trkpt><trkpt lat="38.5667822" lon="21.0180632"><ele>11.0</ele><time>2026-04-30T14:11:55.857Z</time></trkpt><trkpt lat="38.5669609" lon="21.0181943"><ele>11.0</ele><time>2026-04-30T14:11:56.859Z</time></trkpt><trkpt lat="38.5671345" lon="21.0183371"><ele>11.0</ele><time>2026-04-30T14:11:57.858Z</time></trkpt><trkpt lat="38.5672996" lon="21.0184957"><ele>11.0</ele><time>2026-04-30T14:11:58.859Z</time></trkpt><trkpt lat="38.5674602" lon="21.0186687"><ele>11.0</ele><time>2026-04-30T14:11:59.86Z</time></trkpt><trkpt lat="38.567618" lon="21.0188489"><ele>11.0</ele><time>2026-04-30T14:12:00.858Z</time></trkpt><trkpt lat="38.5677756" lon="21.019036"><ele>11.0</ele><time>2026-04-30T14:12:01.858Z</time></trkpt><trkpt lat="38.5679324" lon="21.0192258"><ele>11.0</ele><time>2026-04-30T14:12:02.858Z</time></trkpt><trkpt lat="38.5680934" lon="21.0194197"><ele>10.0</ele><time>2026-04-30T14:12:03.857Z</time></trkpt><trkpt lat="38.5682597" lon="21.0196056"><ele>9.0</ele><time>2026-04-30T14:12:04.858Z</time></trkpt><trkpt lat="38.5684495" lon="21.0197585"><ele>8.0</ele><time>2026-04-30T14:12:05.859Z</time></trkpt><trkpt lat="38.5686436" lon="21.0198806"><ele>6.666666666666666</ele><time>2026-04-30T14:12:06.857Z</time></trkpt><trkpt lat="38.5688489" lon="21.0199774"><ele>5.333333333333333</ele><time>2026-04-30T14:12:07.858Z</time></trkpt><trkpt lat="38.5690657" lon="21.0200693"><ele>4.0</ele><time>2026-04-30T14:12:08.858Z</time></trkpt><trkpt lat="38.5692849" lon="21.0201481"><ele>8.5</ele><time>2026-04-30T14:12:09.858Z</time></trkpt><trkpt lat="38.5695056" lon="21.020227"><ele>13.0</ele><time>2026-04-30T14:12:10.858Z</time></trkpt><trkpt lat="38.5697233" lon="21.0203042"><ele>13.0</ele><time>2026-04-30T14:12:11.857Z</time></trkpt><trkpt lat="38.569934" lon="21.0203813"><ele>13.0</ele><time>2026-04-30T14:12:12.858Z</time></trkpt><trkpt lat="38.5701522" lon="21.0204499"><ele>13.0</ele><time>2026-04-30T14:12:13.857Z</time></trkpt><trkpt lat="38.5703596" lon="21.0205176"><ele>10.0</ele><time>2026-04-30T14:12:14.86Z</time></trkpt><trkpt lat="38.5705698" lon="21.0205887"><ele>7.0</ele><time>2026-04-30T14:12:15.858Z</time></trkpt><trkpt lat="38.5707771" lon="21.0206591"><ele>4.0</ele><time>2026-04-30T14:12:16.857Z</time></trkpt><trkpt lat="38.5709824" lon="21.0207298"><ele>4.333333333333333</ele><time>2026-04-30T14:12:17.857Z</time></trkpt><trkpt lat="38.5711959" lon="21.0207944"><ele>4.666666666666667</ele><time>2026-04-30T14:12:18.856Z</time></trkpt><trkpt lat="38.5713983" lon="21.0208621"><ele>5.0</ele><time>2026-04-30T14:12:19.857Z</time></trkpt><trkpt lat="38.571604" lon="21.0209234"><ele>7.666666666666666</ele><time>2026-04-30T14:12:20.857Z</time></trkpt><trkpt lat="38.571792" lon="21.0209937"><ele>10.333333333333332</ele><time>2026-04-30T14:12:21.856Z</time></trkpt><trkpt lat="38.5719822" lon="21.0210808"><ele>13.0</ele><time>2026-04-30T14:12:22.859Z</time></trkpt><trkpt lat="38.5721645" lon="21.0211944"><ele>13.0</ele><time>2026-04-30T14:12:23.859Z</time></trkpt><trkpt lat="38.5723288" lon="21.0213272"><ele>13.0</ele><time>2026-04-30T14:12:24.859Z</time></trkpt><trkpt lat="38.5724863" lon="21.021496"><ele>13.0</ele><time>2026-04-30T14:12:25.857Z</time></trkpt><trkpt lat="38.5726428" lon="21.0216747"><ele>13.0</ele><time>2026-04-30T14:12:26.859Z</time></trkpt><trkpt lat="38.5727958" lon="21.0218665"><ele>13.0</ele><time>2026-04-30T14:12:27.858Z</time></trkpt><trkpt lat="38.5729519" lon="21.0220634"><ele>13.0</ele><time>2026-04-30T14:12:28.859Z</time></trkpt><trkpt lat="38.5731005" lon="21.0222645"><ele>13.0</ele><time>2026-04-30T14:12:29.858Z</time></trkpt><trkpt lat="38.5732487" lon="21.0224448"><ele>13.0</ele><time>2026-04-30T14:12:30.86Z</time></trkpt><trkpt lat="38.5734048" lon="21.0226066"><ele>13.0</ele><time>2026-04-30T14:12:31.857Z</time></trkpt><trkpt lat="38.573579" lon="21.0227403"><ele>15.666666666666666</ele><time>2026-04-30T14:12:32.859Z</time></trkpt><trkpt lat="38.5737607" lon="21.0228358"><ele>18.333333333333332</ele><time>2026-04-30T14:12:33.857Z</time></trkpt><trkpt lat="38.5739555" lon="21.0229045"><ele>21.0</ele><time>2026-04-30T14:12:34.861Z</time></trkpt><trkpt lat="38.5741565" lon="21.0229437"><ele>21.0</ele><time>2026-04-30T14:12:35.858Z</time></trkpt><trkpt lat="38.5743569" lon="21.022947"><ele>21.0</ele><time>2026-04-30T14:12:36.86Z</time></trkpt><trkpt lat="38.5745536" lon="21.0229111"><ele>21.0</ele><time>2026-04-30T14:12:37.857Z</time></trkpt><trkpt lat="38.5747404" lon="21.0228259"><ele>22.333333333333336</ele><time>2026-04-30T14:12:38.86Z</time></trkpt><trkpt lat="38.5749223" lon="21.0227106"><ele>23.666666666666668</ele><time>2026-04-30T14:12:39.856Z</time></trkpt><trkpt lat="38.5750983" lon="21.0225614"><ele>25.0</ele><time>2026-04-30T14:12:40.86Z</time></trkpt><trkpt lat="38.5752665" lon="21.0224085"><ele>24.333333333333336</ele><time>2026-04-30T14:12:41.857Z</time></trkpt><trkpt lat="38.5754313" lon="21.0222474"><ele>23.666666666666668</ele><time>2026-04-30T14:12:42.858Z</time></trkpt><trkpt lat="38.5755992" lon="21.0220898"><ele>23.0</ele><time>2026-04-30T14:12:43.858Z</time></trkpt><trkpt lat="38.57577" lon="21.0219325"><ele>23.0</ele><time>2026-04-30T14:12:44.858Z</time></trkpt><trkpt lat="38.5759384" lon="21.0217775"><ele>23.0</ele><time>2026-04-30T14:12:45.857Z</time></trkpt><trkpt lat="38.5761024" lon="21.021627"><ele>23.0</ele><time>2026-04-30T14:12:46.859Z</time></trkpt><trkpt lat="38.5762542" lon="21.0214802"><ele>22.333333333333336</ele><time>2026-04-30T14:12:47.857Z</time></trkpt><trkpt lat="38.5764095" lon="21.021353"><ele>21.666666666666668</ele><time>2026-04-30T14:12:48.857Z</time></trkpt><trkpt lat="38.5765731" lon="21.0212412"><ele>21.0</ele><time>2026-04-30T14:12:49.857Z</time></trkpt><trkpt lat="38.5767528" lon="21.0211555"><ele>21.0</ele><time>2026-04-30T14:12:50.858Z</time></trkpt><trkpt lat="38.5769363" lon="21.021095"><ele>21.0</ele><time>2026-04-30T14:12:51.857Z</time></trkpt><trkpt lat="38.5771263" lon="21.0210628"><ele>21.0</ele><time>2026-04-30T14:12:52.861Z</time></trkpt><trkpt lat="38.5773224" lon="21.0210757"><ele>22.0</ele><time>2026-04-30T14:12:53.858Z</time></trkpt><trkpt lat="38.5775222" lon="21.0211124"><ele>23.0</ele><time>2026-04-30T14:12:54.86Z</time></trkpt><trkpt lat="38.5777167" lon="21.0211885"><ele>24.0</ele><time>2026-04-30T14:12:55.857Z</time></trkpt><trkpt lat="38.5779213" lon="21.0212843"><ele>21.333333333333332</ele><time>2026-04-30T14:12:56.859Z</time></trkpt><trkpt lat="38.578124" lon="21.0213883"><ele>18.666666666666664</ele><time>2026-04-30T14:12:57.857Z</time></trkpt><trkpt lat="38.5783246" lon="21.0214771"><ele>16.0</ele><time>2026-04-30T14:12:58.859Z</time></trkpt><trkpt lat="38.5785333" lon="21.0215718"><ele>20.666666666666664</ele><time>2026-04-30T14:12:59.86Z</time></trkpt><trkpt lat="38.5787382" lon="21.0216626"><ele>25.333333333333332</ele><time>2026-04-30T14:13:00.858Z</time></trkpt><trkpt lat="38.5789437" lon="21.0217404"><ele>30.0</ele><time>2026-04-30T14:13:01.858Z</time></trkpt><trkpt lat="38.5791554" lon="21.0218237"><ele>30.0</ele><time>2026-04-30T14:13:02.856Z</time></trkpt><trkpt lat="38.5793554" lon="21.0219053"><ele>30.0</ele><time>2026-04-30T14:13:03.858Z</time></trkpt><trkpt lat="38.5795572" lon="21.0220007"><ele>30.0</ele><time>2026-04-30T14:13:04.857Z</time></trkpt><trkpt lat="38.5797612" lon="21.0220935"><ele>30.0</ele><time>2026-04-30T14:13:05.858Z</time></trkpt><trkpt lat="38.5799643" lon="21.022192"><ele>30.0</ele><time>2026-04-30T14:13:06.858Z</time></trkpt><trkpt lat="38.5801635" lon="21.0222875"><ele>30.0</ele><time>2026-04-30T14:13:07.858Z</time></trkpt><trkpt lat="38.5803589" lon="21.0223755"><ele>29.0</ele><time>2026-04-30T14:13:08.857Z</time></trkpt><trkpt lat="38.5805586" lon="21.02247"><ele>28.0</ele><time>2026-04-30T14:13:09.859Z</time></trkpt><trkpt lat="38.5807609" lon="21.0225634"><ele>27.0</ele><time>2026-04-30T14:13:10.862Z</time></trkpt><trkpt lat="38.5809605" lon="21.0226524"><ele>29.0</ele><time>2026-04-30T14:13:11.859Z</time></trkpt><trkpt lat="38.5811591" lon="21.022738"><ele>31.0</ele><time>2026-04-30T14:13:12.861Z</time></trkpt><trkpt lat="38.5813582" lon="21.0228264"><ele>33.0</ele><time>2026-04-30T14:13:13.857Z</time></trkpt><trkpt lat="38.5815543" lon="21.0229201"><ele>33.0</ele><time>2026-04-30T14:13:14.857Z</time></trkpt><trkpt lat="38.5817499" lon="21.0230054"><ele>33.0</ele><time>2026-04-30T14:13:15.859Z</time></trkpt><trkpt lat="38.5819528" lon="21.0230955"><ele>33.0</ele><time>2026-04-30T14:13:16.858Z</time></trkpt><trkpt lat="38.582154" lon="21.0231861"><ele>32.0</ele><time>2026-04-30T14:13:17.858Z</time></trkpt><trkpt lat="38.5823586" lon="21.0232781"><ele>31.0</ele><time>2026-04-30T14:13:18.859Z</time></trkpt><trkpt lat="38.5825674" lon="21.0233737"><ele>30.0</ele><time>2026-04-30T14:13:19.861Z</time></trkpt><trkpt lat="38.5827711" lon="21.0234606"><ele>30.0</ele><time>2026-04-30T14:13:20.86Z</time></trkpt><trkpt lat="38.5829775" lon="21.0235483"><ele>30.0</ele><time>2026-04-30T14:13:21.857Z</time></trkpt><trkpt lat="38.5831856" lon="21.0236387"><ele>30.0</ele><time>2026-04-30T14:13:22.859Z</time></trkpt><trkpt lat="38.5833947" lon="21.023733"><ele>30.0</ele><time>2026-04-30T14:13:23.856Z</time></trkpt><trkpt lat="38.5836047" lon="21.0238278"><ele>30.0</ele><time>2026-04-30T14:13:24.858Z</time></trkpt><trkpt lat="38.5838161" lon="21.023925"><ele>30.0</ele><time>2026-04-30T14:13:25.859Z</time></trkpt><trkpt lat="38.5840307" lon="21.0240245"><ele>28.666666666666664</ele><time>2026-04-30T14:13:26.857Z</time></trkpt><trkpt lat="38.5842384" lon="21.0241173"><ele>27.333333333333332</ele><time>2026-04-30T14:13:27.856Z</time></trkpt><trkpt lat="38.5844475" lon="21.0242054"><ele>26.0</ele><time>2026-04-30T14:13:28.859Z</time></trkpt><trkpt lat="38.584651" lon="21.0242961"><ele>26.0</ele><time>2026-04-30T14:13:29.858Z</time></trkpt><trkpt lat="38.5848563" lon="21.0243861"><ele>26.0</ele><time>2026-04-30T14:13:30.855Z</time></trkpt><trkpt lat="38.5850581" lon="21.0244789"><ele>26.0</ele><time>2026-04-30T14:13:31.858Z</time></trkpt><trkpt lat="38.5852602" lon="21.0245671"><ele>27.666666666666664</ele><time>2026-04-30T14:13:32.861Z</time></trkpt><trkpt lat="38.5854578" lon="21.0246614"><ele>29.333333333333336</ele><time>2026-04-30T14:13:33.857Z</time></trkpt><trkpt lat="38.5856511" lon="21.0247471"><ele>31.0</ele><time>2026-04-30T14:13:34.857Z</time></trkpt><trkpt lat="38.5858423" lon="21.0248359"><ele>31.0</ele><time>2026-04-30T14:13:35.858Z</time></trkpt><trkpt lat="38.5860372" lon="21.0249209"><ele>31.0</ele><time>2026-04-30T14:13:36.857Z</time></trkpt><trkpt lat="38.5862252" lon="21.0250076"><ele>31.0</ele><time>2026-04-30T14:13:37.861Z</time></trkpt><trkpt lat="38.5864154" lon="21.0250931"><ele>30.0</ele><time>2026-04-30T14:13:38.858Z</time></trkpt><trkpt lat="38.5866152" lon="21.0251826"><ele>29.0</ele><time>2026-04-30T14:13:39.855Z</time></trkpt><trkpt lat="38.5868167" lon="21.0252681"><ele>28.0</ele><time>2026-04-30T14:13:40.861Z</time></trkpt><trkpt lat="38.5870218" lon="21.0253356"><ele>27.0</ele><time>2026-04-30T14:13:41.855Z</time></trkpt><trkpt lat="38.5872281" lon="21.0253855"><ele>26.0</ele><time>2026-04-30T14:13:42.858Z</time></trkpt><trkpt lat="38.5874358" lon="21.0254086"><ele>25.0</ele><time>2026-04-30T14:13:43.857Z</time></trkpt><trkpt lat="38.5876411" lon="21.0254028"><ele>26.0</ele><time>2026-04-30T14:13:44.856Z</time></trkpt><trkpt lat="38.5878485" lon="21.0253784"><ele>27.0</ele><time>2026-04-30T14:13:45.856Z</time></trkpt><trkpt lat="38.5880471" lon="21.0253298"><ele>28.0</ele><time>2026-04-30T14:13:46.857Z</time></trkpt><trkpt lat="38.5882456" lon="21.025269"><ele>28.0</ele><time>2026-04-30T14:13:47.856Z</time></trkpt><trkpt lat="38.588441" lon="21.0252095"><ele>28.0</ele><time>2026-04-30T14:13:48.857Z</time></trkpt><trkpt lat="38.5886349" lon="21.0251541"><ele>28.0</ele><time>2026-04-30T14:13:49.858Z</time></trkpt><trkpt lat="38.5888277" lon="21.0250978"><ele>30.0</ele><time>2026-04-30T14:13:50.857Z</time></trkpt><trkpt lat="38.5890182" lon="21.0250447"><ele>32.0</ele><time>2026-04-30T14:13:51.857Z</time></trkpt><trkpt lat="38.5892096" lon="21.024992"><ele>34.0</ele><time>2026-04-30T14:13:52.857Z</time></trkpt><trkpt lat="38.589399" lon="21.0249544"><ele>33.333333333333336</ele><time>2026-04-30T14:13:53.858Z</time></trkpt><trkpt lat="38.5895962" lon="21.0249414"><ele>32.666666666666664</ele><time>2026-04-30T14:13:54.859Z</time></trkpt><trkpt lat="38.5897897" lon="21.0249681"><ele>32.0</ele><time>2026-04-30T14:13:55.856Z</time></trkpt><trkpt lat="38.5899823" lon="21.025015"><ele>32.0</ele><time>2026-04-30T14:13:56.856Z</time></trkpt><trkpt lat="38.5901689" lon="21.0250811"><ele>32.0</ele><time>2026-04-30T14:13:57.856Z</time></trkpt><trkpt lat="38.5903596" lon="21.0251522"><ele>32.0</ele><time>2026-04-30T14:13:58.861Z</time></trkpt><trkpt lat="38.5905458" lon="21.0252297"><ele>32.0</ele><time>2026-04-30T14:13:59.856Z</time></trkpt><trkpt lat="38.5907318" lon="21.0253157"><ele>32.0</ele><time>2026-04-30T14:14:00.858Z</time></trkpt><trkpt lat="38.5909268" lon="21.0253982"><ele>32.0</ele><time>2026-04-30T14:14:01.859Z</time></trkpt><trkpt lat="38.5911189" lon="21.0254825"><ele>31.333333333333332</ele><time>2026-04-30T14:14:02.856Z</time></trkpt><trkpt lat="38.5913124" lon="21.0255649"><ele>30.666666666666664</ele><time>2026-04-30T14:14:03.859Z</time></trkpt><trkpt lat="38.5915097" lon="21.0256497"><ele>30.0</ele><time>2026-04-30T14:14:04.86Z</time></trkpt><trkpt lat="38.591712" lon="21.0257344"><ele>30.666666666666664</ele><time>2026-04-30T14:14:05.857Z</time></trkpt><trkpt lat="38.5919133" lon="21.0258158"><ele>31.333333333333332</ele><time>2026-04-30T14:14:06.859Z</time></trkpt><trkpt lat="38.5921179" lon="21.0258945"><ele>32.0</ele><time>2026-04-30T14:14:07.857Z</time></trkpt><trkpt lat="38.5923181" lon="21.0259787"><ele>30.333333333333332</ele><time>2026-04-30T14:14:08.86Z</time></trkpt><trkpt lat="38.5925179" lon="21.0260604"><ele>28.666666666666664</ele><time>2026-04-30T14:14:09.858Z</time></trkpt><trkpt lat="38.5927155" lon="21.026142"><ele>27.0</ele><time>2026-04-30T14:14:10.859Z</time></trkpt><trkpt lat="38.5929114" lon="21.0262069"><ele>20.666666666666668</ele><time>2026-04-30T14:14:11.858Z</time></trkpt><trkpt lat="38.5931098" lon="21.026234"><ele>14.333333333333332</ele><time>2026-04-30T14:14:12.858Z</time></trkpt><trkpt lat="38.5933003" lon="21.0262215"><ele>8.0</ele><time>2026-04-30T14:14:13.855Z</time></trkpt><trkpt lat="38.5934884" lon="21.0261865"><ele>8.0</ele><time>2026-04-30T14:14:14.858Z</time></trkpt><trkpt lat="38.5936646" lon="21.0261087"><ele>8.0</ele><time>2026-04-30T14:14:15.858Z</time></trkpt><trkpt lat="38.5938434" lon="21.0260087"><ele>8.0</ele><time>2026-04-30T14:14:16.858Z</time></trkpt><trkpt lat="38.5940051" lon="21.0258685"><ele>8.666666666666666</ele><time>2026-04-30T14:14:17.859Z</time></trkpt><trkpt lat="38.5941535" lon="21.0257064"><ele>9.333333333333334</ele><time>2026-04-30T14:14:18.859Z</time></trkpt><trkpt lat="38.5942832" lon="21.0255089"><ele>10.0</ele><time>2026-04-30T14:14:19.858Z</time></trkpt><trkpt lat="38.5943958" lon="21.0252943"><ele>10.0</ele><time>2026-04-30T14:14:20.859Z</time></trkpt><trkpt lat="38.5944984" lon="21.0250647"><ele>10.0</ele><time>2026-04-30T14:14:21.856Z</time></trkpt><trkpt lat="38.5945948" lon="21.0248229"><ele>10.0</ele><time>2026-04-30T14:14:22.86Z</time></trkpt><trkpt lat="38.5946852" lon="21.0245818"><ele>12.666666666666668</ele><time>2026-04-30T14:14:23.859Z</time></trkpt><trkpt lat="38.5947718" lon="21.024341"><ele>15.333333333333334</ele><time>2026-04-30T14:14:24.857Z</time></trkpt><trkpt lat="38.5948634" lon="21.0241064"><ele>18.0</ele><time>2026-04-30T14:14:25.857Z</time></trkpt><trkpt lat="38.5949532" lon="21.02388"><ele>18.0</ele><time>2026-04-30T14:14:26.857Z</time></trkpt><trkpt lat="38.5950409" lon="21.0236673"><ele>18.0</ele><time>2026-04-30T14:14:27.858Z</time></trkpt><trkpt lat="38.5951301" lon="21.0234671"><ele>18.0</ele><time>2026-04-30T14:14:28.857Z</time></trkpt><trkpt lat="38.5952297" lon="21.0232801"><ele>19.333333333333332</ele><time>2026-04-30T14:14:29.858Z</time></trkpt><trkpt lat="38.5953476" lon="21.0231099"><ele>20.666666666666664</ele><time>2026-04-30T14:14:30.859Z</time></trkpt><trkpt lat="38.5954793" lon="21.0229585"><ele>22.0</ele><time>2026-04-30T14:14:31.857Z</time></trkpt><trkpt lat="38.5956236" lon="21.0228361"><ele>22.0</ele><time>2026-04-30T14:14:32.857Z</time></trkpt><trkpt lat="38.5957753" lon="21.0227351"><ele>22.0</ele><time>2026-04-30T14:14:33.859Z</time></trkpt><trkpt lat="38.5959335" lon="21.0226703"><ele>22.0</ele><time>2026-04-30T14:14:34.862Z</time></trkpt><trkpt lat="38.5960966" lon="21.0226336"><ele>20.0</ele><time>2026-04-30T14:14:35.86Z</time></trkpt><trkpt lat="38.5962709" lon="21.0226231"><ele>18.0</ele><time>2026-04-30T14:14:36.859Z</time></trkpt><trkpt lat="38.5964591" lon="21.022636"><ele>16.0</ele><time>2026-04-30T14:14:37.856Z</time></trkpt><trkpt lat="38.5966499" lon="21.0226749"><ele>16.0</ele><time>2026-04-30T14:14:38.858Z</time></trkpt><trkpt lat="38.596845" lon="21.02272"><ele>16.0</ele><time>2026-04-30T14:14:39.856Z</time></trkpt><trkpt lat="38.5970499" lon="21.0227637"><ele>16.0</ele><time>2026-04-30T14:14:40.857Z</time></trkpt><trkpt lat="38.5972532" lon="21.0228156"><ele>15.333333333333332</ele><time>2026-04-30T14:14:41.859Z</time></trkpt><trkpt lat="38.5974654" lon="21.0228709"><ele>14.666666666666668</ele><time>2026-04-30T14:14:42.858Z</time></trkpt><trkpt lat="38.5976698" lon="21.022934"><ele>14.0</ele><time>2026-04-30T14:14:43.859Z</time></trkpt><trkpt lat="38.5978681" lon="21.023"><ele>12.666666666666668</ele><time>2026-04-30T14:14:44.857Z</time></trkpt><trkpt lat="38.598063" lon="21.0230882"><ele>11.333333333333334</ele><time>2026-04-30T14:14:45.857Z</time></trkpt><trkpt lat="38.5982517" lon="21.0231946"><ele>10.0</ele><time>2026-04-30T14:14:46.859Z</time></trkpt><trkpt lat="38.5984459" lon="21.0233152"><ele>14.333333333333334</ele><time>2026-04-30T14:14:47.857Z</time></trkpt><trkpt lat="38.5986406" lon="21.0234368"><ele>18.666666666666668</ele><time>2026-04-30T14:14:48.86Z</time></trkpt><trkpt lat="38.5988329" lon="21.0235577"><ele>23.0</ele><time>2026-04-30T14:14:49.858Z</time></trkpt><trkpt lat="38.5990232" lon="21.0236784"><ele>23.0</ele><time>2026-04-30T14:14:50.858Z</time></trkpt><trkpt lat="38.5992116" lon="21.023789"><ele>23.0</ele><time>2026-04-30T14:14:51.857Z</time></trkpt><trkpt lat="38.5994029" lon="21.0238978"><ele>23.0</ele><time>2026-04-30T14:14:52.859Z</time></trkpt><trkpt lat="38.5995883" lon="21.0240164"><ele>22.666666666666668</ele><time>2026-04-30T14:14:53.858Z</time></trkpt><trkpt lat="38.5997686" lon="21.0241383"><ele>22.333333333333332</ele><time>2026-04-30T14:14:54.856Z</time></trkpt><trkpt lat="38.5999573" lon="21.0242654"><ele>22.0</ele><time>2026-04-30T14:14:55.857Z</time></trkpt><trkpt lat="38.6001478" lon="21.024392"><ele>19.0</ele><time>2026-04-30T14:14:56.856Z</time></trkpt><trkpt lat="38.6003357" lon="21.0245164"><ele>16.0</ele><time>2026-04-30T14:14:57.855Z</time></trkpt><trkpt lat="38.6005283" lon="21.0246472"><ele>13.0</ele><time>2026-04-30T14:14:58.856Z</time></trkpt><trkpt lat="38.600723" lon="21.0247773"><ele>13.0</ele><time>2026-04-30T14:14:59.856Z</time></trkpt><trkpt lat="38.600916" lon="21.0249076"><ele>13.0</ele><time>2026-04-30T14:15:00.856Z</time></trkpt><trkpt lat="38.6011078" lon="21.0250362"><ele>13.0</ele><time>2026-04-30T14:15:01.857Z</time></trkpt><trkpt lat="38.6012986" lon="21.0251679"><ele>15.0</ele><time>2026-04-30T14:15:02.858Z</time></trkpt><trkpt lat="38.6014876" lon="21.0252975"><ele>17.0</ele><time>2026-04-30T14:15:03.854Z</time></trkpt><trkpt lat="38.6016812" lon="21.0254262"><ele>19.0</ele><time>2026-04-30T14:15:04.858Z</time></trkpt><trkpt lat="38.6018791" lon="21.025558"><ele>18.0</ele><time>2026-04-30T14:15:05.86Z</time></trkpt><trkpt lat="38.6020751" lon="21.0256772"><ele>17.0</ele><time>2026-04-30T14:15:06.858Z</time></trkpt><trkpt lat="38.602273" lon="21.0257784"><ele>16.0</ele><time>2026-04-30T14:15:07.857Z</time></trkpt><trkpt lat="38.60248" lon="21.0258584"><ele>16.0</ele><time>2026-04-30T14:15:08.857Z</time></trkpt><trkpt lat="38.6026789" lon="21.0259178"><ele>16.0</ele><time>2026-04-30T14:15:09.856Z</time></trkpt><trkpt lat="38.6028739" lon="21.0259521"><ele>16.0</ele><time>2026-04-30T14:15:10.859Z</time></trkpt><trkpt lat="38.603058" lon="21.0259512"><ele>15.666666666666666</ele><time>2026-04-30T14:15:11.858Z</time></trkpt><trkpt lat="38.6032309" lon="21.0259129"><ele>15.333333333333332</ele><time>2026-04-30T14:15:12.859Z</time></trkpt><trkpt lat="38.6034064" lon="21.025847"><ele>15.0</ele><time>2026-04-30T14:15:13.86Z</time></trkpt><trkpt lat="38.6035631" lon="21.0257438"><ele>15.333333333333332</ele><time>2026-04-30T14:15:14.857Z</time></trkpt><trkpt lat="38.6037073" lon="21.025607"><ele>15.666666666666666</ele><time>2026-04-30T14:15:15.858Z</time></trkpt><trkpt lat="38.6038423" lon="21.0254493"><ele>16.0</ele><time>2026-04-30T14:15:16.858Z</time></trkpt><trkpt lat="38.6039665" lon="21.0252666"><ele>16.0</ele><time>2026-04-30T14:15:17.857Z</time></trkpt><trkpt lat="38.6040796" lon="21.0250735"><ele>16.0</ele><time>2026-04-30T14:15:18.857Z</time></trkpt><trkpt lat="38.6041873" lon="21.0248657"><ele>16.0</ele><time>2026-04-30T14:15:19.86Z</time></trkpt><trkpt lat="38.6042967" lon="21.0246642"><ele>14.333333333333332</ele><time>2026-04-30T14:15:20.857Z</time></trkpt><trkpt lat="38.6044149" lon="21.0244705"><ele>12.666666666666666</ele><time>2026-04-30T14:15:21.858Z</time></trkpt><trkpt lat="38.6045423" lon="21.0242875"><ele>11.0</ele><time>2026-04-30T14:15:22.86Z</time></trkpt><trkpt lat="38.6046781" lon="21.0241106"><ele>11.0</ele><time>2026-04-30T14:15:23.857Z</time></trkpt><trkpt lat="38.6048304" lon="21.023955"><ele>11.0</ele><time>2026-04-30T14:15:24.859Z</time></trkpt><trkpt lat="38.6049972" lon="21.0238207"><ele>11.0</ele><time>2026-04-30T14:15:25.858Z</time></trkpt><trkpt lat="38.6051693" lon="21.0237057"><ele>11.666666666666666</ele><time>2026-04-30T14:15:26.857Z</time></trkpt><trkpt lat="38.6053455" lon="21.0236065"><ele>12.333333333333332</ele><time>2026-04-30T14:15:27.854Z</time></trkpt><trkpt lat="38.6055247" lon="21.0234946"><ele>13.0</ele><time>2026-04-30T14:15:28.86Z</time></trkpt><trkpt lat="38.6005283" lon="21.0246472"><ele>13.0</ele><time>2026-04-30T14:14:58.856Z</time></trkpt><trkpt lat="38.600723" lon="21.0247773"><ele>13.0</ele><time>2026-04-30T14:14:59.856Z</time></trkpt><trkpt lat="38.600916" lon="21.0249076"><ele>13.0</ele><time>2026-04-30T14:15:00.856Z</time></trkpt><trkpt lat="38.6011078" lon="21.0250362"><ele>15.0</ele><time>2026-04-30T14:15:01.857Z</time></trkpt><trkpt lat="38.6012986" lon="21.0251679"><ele>17.0</ele><time>2026-04-30T14:15:02.858Z</time></trkpt><trkpt lat="38.6014876" lon="21.0252975"><ele>19.0</ele><time>2026-04-30T14:15:03.854Z</time></trkpt><trkpt lat="38.6016812" lon="21.0254262"><ele>19.0</ele><time>2026-04-30T14:15:04.858Z</time></trkpt><trkpt lat="38.6018791" lon="21.025558"><ele>19.0</ele><time>2026-04-30T14:15:05.86Z</time></trkpt><trkpt lat="38.6020751" lon="21.0256772"><ele>19.0</ele><time>2026-04-30T14:15:06.858Z</time></trkpt><trkpt lat="38.602273" lon="21.0257784"><ele>18.0</ele><time>2026-04-30T14:15:07.857Z</time></trkpt><trkpt lat="38.60248" lon="21.0258584"><ele>17.0</ele><time>2026-04-30T14:15:08.857Z</time></trkpt><trkpt lat="38.6026789" lon="21.0259178"><ele>16.0</ele><time>2026-04-30T14:15:09.856Z</time></trkpt><trkpt lat="38.6028739" lon="21.0259521"><ele>15.666666666666666</ele><time>2026-04-30T14:15:10.859Z</time></trkpt><trkpt lat="38.603058" lon="21.0259512"><ele>15.333333333333332</ele><time>2026-04-30T14:15:11.858Z</time></trkpt><trkpt lat="38.6032309" lon="21.0259129"><ele>15.0</ele><time>2026-04-30T14:15:12.859Z</time></trkpt><trkpt lat="38.6034064" lon="21.025847"><ele>15.333333333333332</ele><time>2026-04-30T14:15:13.86Z</time></trkpt><trkpt lat="38.6035631" lon="21.0257438"><ele>15.666666666666666</ele><time>2026-04-30T14:15:14.857Z</time></trkpt><trkpt lat="38.6037073" lon="21.025607"><ele>16.0</ele><time>2026-04-30T14:15:15.858Z</time></trkpt><trkpt lat="38.6038423" lon="21.0254493"><ele>16.0</ele><time>2026-04-30T14:15:16.858Z</time></trkpt><trkpt lat="38.6039665" lon="21.0252666"><ele>16.0</ele><time>2026-04-30T14:15:17.857Z</time></trkpt><trkpt lat="38.6040796" lon="21.0250735"><ele>16.0</ele><time>2026-04-30T14:15:18.857Z</time></trkpt><trkpt lat="38.6041873" lon="21.0248657"><ele>14.333333333333332</ele><time>2026-04-30T14:15:19.86Z</time></trkpt><trkpt lat="38.6042967" lon="21.0246642"><ele>12.666666666666666</ele><time>2026-04-30T14:15:20.857Z</time></trkpt><trkpt lat="38.6044149" lon="21.0244705"><ele>11.0</ele><time>2026-04-30T14:15:21.858Z</time></trkpt><trkpt lat="38.6045423" lon="21.0242875"><ele>11.0</ele><time>2026-04-30T14:15:22.86Z</time></trkpt><trkpt lat="38.6046781" lon="21.0241106"><ele>11.0</ele><time>2026-04-30T14:15:23.857Z</time></trkpt><trkpt lat="38.6048304" lon="21.023955"><ele>11.0</ele><time>2026-04-30T14:15:24.859Z</time></trkpt><trkpt lat="38.6049972" lon="21.0238207"><ele>11.0</ele><time>2026-04-30T14:15:25.858Z</time></trkpt><trkpt lat="38.6051693" lon="21.0237057"><ele>11.0</ele><time>2026-04-30T14:15:26.857Z</time></trkpt><trkpt lat="38.6053455" lon="21.0236065"><ele>11.0</ele><time>2026-04-30T14:15:27.854Z</time></trkpt><trkpt lat="38.6055247" lon="21.0234946"><ele>13.0</ele><time>2026-04-30T14:15:28.86Z</time></trkpt><trkpt lat="38.6057063" lon="21.0233848"><ele>15.0</ele><time>2026-04-30T14:15:29.857Z</time></trkpt><trkpt lat="38.6058856" lon="21.0232737"><ele>17.0</ele><time>2026-04-30T14:15:30.858Z</time></trkpt><trkpt lat="38.6060602" lon="21.0231606"><ele>15.333333333333334</ele><time>2026-04-30T14:15:31.86Z</time></trkpt><trkpt lat="38.6062299" lon="21.023051"><ele>13.666666666666668</ele><time>2026-04-30T14:15:32.856Z</time></trkpt><trkpt lat="38.606406" lon="21.0229384"><ele>12.0</ele><time>2026-04-30T14:15:33.856Z</time></trkpt><trkpt lat="38.6065811" lon="21.0228259"><ele>12.0</ele><time>2026-04-30T14:15:34.858Z</time></trkpt><trkpt lat="38.606755" lon="21.0227089"><ele>12.0</ele><time>2026-04-30T14:15:35.856Z</time></trkpt><trkpt lat="38.6069297" lon="21.0226037"><ele>12.0</ele><time>2026-04-30T14:15:36.861Z</time></trkpt><trkpt lat="38.6071033" lon="21.022493"><ele>12.333333333333332</ele><time>2026-04-30T14:15:37.861Z</time></trkpt><trkpt lat="38.6072804" lon="21.0223828"><ele>12.666666666666666</ele><time>2026-04-30T14:15:38.861Z</time></trkpt><trkpt lat="38.6074526" lon="21.022276"><ele>13.0</ele><time>2026-04-30T14:15:39.856Z</time></trkpt><trkpt lat="38.6076258" lon="21.0221646"><ele>13.0</ele><time>2026-04-30T14:15:40.857Z</time></trkpt><trkpt lat="38.6078012" lon="21.0220493"><ele>13.0</ele><time>2026-04-30T14:15:41.856Z</time></trkpt><trkpt lat="38.6079763" lon="21.0219345"><ele>13.0</ele><time>2026-04-30T14:15:42.855Z</time></trkpt><trkpt lat="38.6081536" lon="21.0218214"><ele>14.333333333333332</ele><time>2026-04-30T14:15:43.859Z</time></trkpt><trkpt lat="38.6083309" lon="21.0217088"><ele>15.666666666666668</ele><time>2026-04-30T14:15:44.857Z</time></trkpt><trkpt lat="38.6085063" lon="21.0215984"><ele>17.0</ele><time>2026-04-30T14:15:45.857Z</time></trkpt><trkpt lat="38.6086876" lon="21.0214906"><ele>14.333333333333334</ele><time>2026-04-30T14:15:46.858Z</time></trkpt><trkpt lat="38.6088629" lon="21.0213817"><ele>11.666666666666668</ele><time>2026-04-30T14:15:47.857Z</time></trkpt><trkpt lat="38.6090406" lon="21.0212722"><ele>9.0</ele><time>2026-04-30T14:15:48.86Z</time></trkpt><trkpt lat="38.609223" lon="21.0211671"><ele>9.0</ele><time>2026-04-30T14:15:49.858Z</time></trkpt><trkpt lat="38.6094031" lon="21.0210689"><ele>9.0</ele><time>2026-04-30T14:15:50.855Z</time></trkpt><trkpt lat="38.6095825" lon="21.0209672"><ele>9.0</ele><time>2026-04-30T14:15:51.858Z</time></trkpt><trkpt lat="38.6097602" lon="21.0208764"><ele>7.0</ele><time>2026-04-30T14:15:52.856Z</time></trkpt><trkpt lat="38.6099424" lon="21.0207954"><ele>5.0</ele><time>2026-04-30T14:15:53.857Z</time></trkpt><trkpt lat="38.610123" lon="21.0207229"><ele>3.0</ele><time>2026-04-30T14:15:54.856Z</time></trkpt><trkpt lat="38.6103036" lon="21.0206519"><ele>6.666666666666667</ele><time>2026-04-30T14:15:55.858Z</time></trkpt><trkpt lat="38.610481" lon="21.0205865"><ele>10.333333333333334</ele><time>2026-04-30T14:15:56.858Z</time></trkpt><trkpt lat="38.6106617" lon="21.0205147"><ele>14.0</ele><time>2026-04-30T14:15:57.857Z</time></trkpt><trkpt lat="38.6108421" lon="21.020437"><ele>14.0</ele><time>2026-04-30T14:15:58.858Z</time></trkpt><trkpt lat="38.6110162" lon="21.0203384"><ele>14.0</ele><time>2026-04-30T14:15:59.859Z</time></trkpt><trkpt lat="38.6111834" lon="21.0202351"><ele>14.0</ele><time>2026-04-30T14:16:00.858Z</time></trkpt><trkpt lat="38.6113493" lon="21.020105"><ele>11.333333333333334</ele><time>2026-04-30T14:16:01.857Z</time></trkpt><trkpt lat="38.6115054" lon="21.0199621"><ele>8.666666666666668</ele><time>2026-04-30T14:16:02.857Z</time></trkpt><trkpt lat="38.6116551" lon="21.0198081"><ele>6.0</ele><time>2026-04-30T14:16:03.859Z</time></trkpt><trkpt lat="38.611803" lon="21.0196461"><ele>6.0</ele><time>2026-04-30T14:16:04.858Z</time></trkpt><trkpt lat="38.6119466" lon="21.019484"><ele>6.0</ele><time>2026-04-30T14:16:05.857Z</time></trkpt><trkpt lat="38.6120869" lon="21.0193219"><ele>6.0</ele><time>2026-04-30T14:16:06.856Z</time></trkpt><trkpt lat="38.6122239" lon="21.0191548"><ele>6.666666666666666</ele><time>2026-04-30T14:16:07.856Z</time></trkpt><trkpt lat="38.6123635" lon="21.0189904"><ele>7.333333333333333</ele><time>2026-04-30T14:16:08.857Z</time></trkpt><trkpt lat="38.6125028" lon="21.0188286"><ele>8.0</ele><time>2026-04-30T14:16:09.858Z</time></trkpt><trkpt lat="38.6126447" lon="21.0186669"><ele>8.0</ele><time>2026-04-30T14:16:10.857Z</time></trkpt><trkpt lat="38.6127904" lon="21.0185106"><ele>8.0</ele><time>2026-04-30T14:16:11.859Z</time></trkpt><trkpt lat="38.6129424" lon="21.0183545"><ele>8.0</ele><time>2026-04-30T14:16:12.858Z</time></trkpt><trkpt lat="38.6130893" lon="21.0182033"><ele>7.333333333333333</ele><time>2026-04-30T14:16:13.857Z</time></trkpt><trkpt lat="38.6132408" lon="21.0180504"><ele>6.666666666666666</ele><time>2026-04-30T14:16:14.855Z</time></trkpt><trkpt lat="38.6133909" lon="21.0178967"><ele>6.0</ele><time>2026-04-30T14:16:15.856Z</time></trkpt><trkpt lat="38.6135393" lon="21.0177349"><ele>9.0</ele><time>2026-04-30T14:16:16.857Z</time></trkpt><trkpt lat="38.6136786" lon="21.0175716"><ele>12.0</ele><time>2026-04-30T14:16:17.859Z</time></trkpt><trkpt lat="38.613812" lon="21.0173946"><ele>15.0</ele><time>2026-04-30T14:16:18.857Z</time></trkpt><trkpt lat="38.6139394" lon="21.0172108"><ele>15.0</ele><time>2026-04-30T14:16:19.858Z</time></trkpt><trkpt lat="38.6140603" lon="21.0170111"><ele>15.0</ele><time>2026-04-30T14:16:20.859Z</time></trkpt><trkpt lat="38.6141799" lon="21.0168182"><ele>15.0</ele><time>2026-04-30T14:16:21.856Z</time></trkpt><trkpt lat="38.6142891" lon="21.0166118"><ele>16.666666666666668</ele><time>2026-04-30T14:16:22.855Z</time></trkpt><trkpt lat="38.6143954" lon="21.0164052"><ele>18.333333333333336</ele><time>2026-04-30T14:16:23.856Z</time></trkpt><trkpt lat="38.6145034" lon="21.0161936"><ele>20.0</ele><time>2026-04-30T14:16:24.855Z</time></trkpt><trkpt lat="38.6146088" lon="21.0159891"><ele>16.0</ele><time>2026-04-30T14:16:25.854Z</time></trkpt><trkpt lat="38.6147184" lon="21.0157793"><ele>12.0</ele><time>2026-04-30T14:16:26.858Z</time></trkpt><trkpt lat="38.6148319" lon="21.0155719"><ele>8.0</ele><time>2026-04-30T14:16:27.855Z</time></trkpt><trkpt lat="38.6149535" lon="21.0153802"><ele>8.0</ele><time>2026-04-30T14:16:28.856Z</time></trkpt><trkpt lat="38.6150847" lon="21.0151852"><ele>8.0</ele><time>2026-04-30T14:16:29.857Z</time></trkpt><trkpt lat="38.6152256" lon="21.015007"><ele>8.0</ele><time>2026-04-30T14:16:30.856Z</time></trkpt><trkpt lat="38.6153729" lon="21.014835"><ele>9.333333333333332</ele><time>2026-04-30T14:16:31.859Z</time></trkpt><trkpt lat="38.6155283" lon="21.0146453"><ele>10.666666666666666</ele><time>2026-04-30T14:16:32.858Z</time></trkpt><trkpt lat="38.6156809" lon="21.0144735"><ele>12.0</ele><time>2026-04-30T14:16:33.856Z</time></trkpt><trkpt lat="38.6158316" lon="21.0143043"><ele>13.0</ele><time>2026-04-30T14:16:34.858Z</time></trkpt><trkpt lat="38.615984" lon="21.0141294"><ele>14.0</ele><time>2026-04-30T14:16:35.859Z</time></trkpt><trkpt lat="38.616136" lon="21.013956"><ele>15.0</ele><time>2026-04-30T14:16:36.857Z</time></trkpt><trkpt lat="38.6162891" lon="21.0137838"><ele>15.0</ele><time>2026-04-30T14:16:37.856Z</time></trkpt><trkpt lat="38.6164405" lon="21.0136086"><ele>15.0</ele><time>2026-04-30T14:16:38.856Z</time></trkpt><trkpt lat="38.6165912" lon="21.0134307"><ele>15.0</ele><time>2026-04-30T14:16:39.858Z</time></trkpt><trkpt lat="38.6167442" lon="21.0132528"><ele>16.0</ele><time>2026-04-30T14:16:40.858Z</time></trkpt><trkpt lat="38.6168991" lon="21.0130742"><ele>17.0</ele><time>2026-04-30T14:16:41.86Z</time></trkpt><trkpt lat="38.6170557" lon="21.0128981"><ele>18.0</ele><time>2026-04-30T14:16:42.858Z</time></trkpt><trkpt lat="38.6172121" lon="21.0127252"><ele>18.0</ele><time>2026-04-30T14:16:43.858Z</time></trkpt><trkpt lat="38.6173743" lon="21.0125519"><ele>18.0</ele><time>2026-04-30T14:16:44.859Z</time></trkpt><trkpt lat="38.617535" lon="21.0123739"><ele>18.0</ele><time>2026-04-30T14:16:45.856Z</time></trkpt><trkpt lat="38.6176962" lon="21.0121949"><ele>20.333333333333336</ele><time>2026-04-30T14:16:46.856Z</time></trkpt><trkpt lat="38.6178608" lon="21.0120116"><ele>22.666666666666668</ele><time>2026-04-30T14:16:47.857Z</time></trkpt><trkpt lat="38.6180197" lon="21.0118339"><ele>25.0</ele><time>2026-04-30T14:16:48.858Z</time></trkpt><trkpt lat="38.6181898" lon="21.0116552"><ele>26.333333333333336</ele><time>2026-04-30T14:16:49.857Z</time></trkpt><trkpt lat="38.6183517" lon="21.0114773"><ele>27.666666666666664</ele><time>2026-04-30T14:16:50.859Z</time></trkpt><trkpt lat="38.618515" lon="21.0113009"><ele>29.0</ele><time>2026-04-30T14:16:51.859Z</time></trkpt><trkpt lat="38.618674" lon="21.0111227"><ele>29.0</ele><time>2026-04-30T14:16:52.858Z</time></trkpt><trkpt lat="38.6188279" lon="21.0109371"><ele>29.0</ele><time>2026-04-30T14:16:53.859Z</time></trkpt><trkpt lat="38.6189789" lon="21.0107551"><ele>29.0</ele><time>2026-04-30T14:16:54.858Z</time></trkpt><trkpt lat="38.6191269" lon="21.010579"><ele>30.666666666666664</ele><time>2026-04-30T14:16:55.858Z</time></trkpt><trkpt lat="38.6192728" lon="21.0104027"><ele>32.333333333333336</ele><time>2026-04-30T14:16:56.859Z</time></trkpt><trkpt lat="38.619414" lon="21.0102283"><ele>34.0</ele><time>2026-04-30T14:16:57.857Z</time></trkpt><trkpt lat="38.6195648" lon="21.0100567"><ele>27.333333333333336</ele><time>2026-04-30T14:16:58.858Z</time></trkpt><trkpt lat="38.6197181" lon="21.0099056"><ele>20.666666666666668</ele><time>2026-04-30T14:16:59.857Z</time></trkpt><trkpt lat="38.6198783" lon="21.0097642"><ele>14.0</ele><time>2026-04-30T14:17:00.858Z</time></trkpt><trkpt lat="38.6200409" lon="21.0096324"><ele>14.0</ele><time>2026-04-30T14:17:01.857Z</time></trkpt><trkpt lat="38.6201991" lon="21.009502"><ele>14.0</ele><time>2026-04-30T14:17:02.856Z</time></trkpt><trkpt lat="38.620366" lon="21.0093795"><ele>14.0</ele><time>2026-04-30T14:17:03.858Z</time></trkpt><trkpt lat="38.6205469" lon="21.0092697"><ele>12.0</ele><time>2026-04-30T14:17:04.854Z</time></trkpt><trkpt lat="38.6207262" lon="21.0091457"><ele>10.0</ele><time>2026-04-30T14:17:05.858Z</time></trkpt><trkpt lat="38.6209081" lon="21.0090296"><ele>8.0</ele><time>2026-04-30T14:17:06.857Z</time></trkpt><trkpt lat="38.6210916" lon="21.0089106"><ele>12.0</ele><time>2026-04-30T14:17:07.856Z</time></trkpt><trkpt lat="38.621276" lon="21.0087966"><ele>16.0</ele><time>2026-04-30T14:17:08.859Z</time></trkpt><trkpt lat="38.6214672" lon="21.0086895"><ele>20.0</ele><time>2026-04-30T14:17:09.858Z</time></trkpt><trkpt lat="38.6216536" lon="21.0085798"><ele>20.0</ele><time>2026-04-30T14:17:10.856Z</time></trkpt><trkpt lat="38.6218477" lon="21.0084712"><ele>20.0</ele><time>2026-04-30T14:17:11.857Z</time></trkpt><trkpt lat="38.622041" lon="21.0083623"><ele>20.0</ele><time>2026-04-30T14:17:12.858Z</time></trkpt><trkpt lat="38.6222369" lon="21.0082529"><ele>16.0</ele><time>2026-04-30T14:17:13.856Z</time></trkpt><trkpt lat="38.622435" lon="21.0081439"><ele>12.0</ele><time>2026-04-30T14:17:14.855Z</time></trkpt><trkpt lat="38.6226334" lon="21.0080352"><ele>8.0</ele><time>2026-04-30T14:17:15.857Z</time></trkpt><trkpt lat="38.6228322" lon="21.0079197"><ele>8.0</ele><time>2026-04-30T14:17:16.858Z</time></trkpt><trkpt lat="38.6230377" lon="21.0077957"><ele>8.0</ele><time>2026-04-30T14:17:17.856Z</time></trkpt><trkpt lat="38.6232432" lon="21.0076765"><ele>8.0</ele><time>2026-04-30T14:17:18.858Z</time></trkpt><trkpt lat="38.6234449" lon="21.0075579"><ele>8.0</ele><time>2026-04-30T14:17:19.856Z</time></trkpt><trkpt lat="38.6236459" lon="21.0074363"><ele>8.0</ele><time>2026-04-30T14:17:20.857Z</time></trkpt><trkpt lat="38.6238404" lon="21.0073124"><ele>10.333333333333332</ele><time>2026-04-30T14:17:21.857Z</time></trkpt><trkpt lat="38.624032" lon="21.0071893"><ele>12.666666666666666</ele><time>2026-04-30T14:17:22.857Z</time></trkpt><trkpt lat="38.6242243" lon="21.0070782"><ele>15.0</ele><time>2026-04-30T14:17:23.855Z</time></trkpt><trkpt lat="38.6244125" lon="21.0069625"><ele>14.0</ele><time>2026-04-30T14:17:24.858Z</time></trkpt><trkpt lat="38.6245951" lon="21.0068515"><ele>13.0</ele><time>2026-04-30T14:17:25.855Z</time></trkpt><trkpt lat="38.6247948" lon="21.0067244"><ele>12.0</ele><time>2026-04-30T14:17:26.856Z</time></trkpt><trkpt lat="38.6249774" lon="21.0066212"><ele>12.0</ele><time>2026-04-30T14:17:27.855Z</time></trkpt><trkpt lat="38.6251591" lon="21.0065321"><ele>12.0</ele><time>2026-04-30T14:17:28.857Z</time></trkpt><trkpt lat="38.6253374" lon="21.0064731"><ele>12.0</ele><time>2026-04-30T14:17:29.86Z</time></trkpt><trkpt lat="38.6255238" lon="21.00644"><ele>12.0</ele><time>2026-04-30T14:17:30.861Z</time></trkpt><trkpt lat="38.6257084" lon="21.0064387"><ele>12.0</ele><time>2026-04-30T14:17:31.856Z</time></trkpt><trkpt lat="38.6258957" lon="21.0064524"><ele>12.0</ele><time>2026-04-30T14:17:32.858Z</time></trkpt><trkpt lat="38.6260812" lon="21.0064861"><ele>11.666666666666666</ele><time>2026-04-30T14:17:33.855Z</time></trkpt><trkpt lat="38.626269" lon="21.006537"><ele>11.333333333333332</ele><time>2026-04-30T14:17:34.857Z</time></trkpt><trkpt lat="38.6264544" lon="21.0065973"><ele>11.0</ele><time>2026-04-30T14:17:35.859Z</time></trkpt><trkpt lat="38.6266367" lon="21.0066626"><ele>14.0</ele><time>2026-04-30T14:17:36.858Z</time></trkpt><trkpt lat="38.6268174" lon="21.0067337"><ele>17.0</ele><time>2026-04-30T14:17:37.858Z</time></trkpt><trkpt lat="38.6270048" lon="21.0067906"><ele>20.0</ele><time>2026-04-30T14:17:38.859Z</time></trkpt><trkpt lat="38.6271974" lon="21.0068355"><ele>20.0</ele><time>2026-04-30T14:17:39.859Z</time></trkpt><trkpt lat="38.6273913" lon="21.0068654"><ele>20.0</ele><time>2026-04-30T14:17:40.859Z</time></trkpt><trkpt lat="38.6275865" lon="21.006859"><ele>20.0</ele><time>2026-04-30T14:17:41.858Z</time></trkpt><trkpt lat="38.6277724" lon="21.0068248"><ele>19.0</ele><time>2026-04-30T14:17:42.857Z</time></trkpt><trkpt lat="38.6279596" lon="21.0067631"><ele>18.0</ele><time>2026-04-30T14:17:43.857Z</time></trkpt><trkpt lat="38.6281412" lon="21.0066807"><ele>17.0</ele><time>2026-04-30T14:17:44.859Z</time></trkpt><trkpt lat="38.6283191" lon="21.006585"><ele>17.0</ele><time>2026-04-30T14:17:45.856Z</time></trkpt><trkpt lat="38.6284945" lon="21.006485"><ele>17.0</ele><time>2026-04-30T14:17:46.859Z</time></trkpt><trkpt lat="38.6286702" lon="21.0063969"><ele>17.0</ele><time>2026-04-30T14:17:47.858Z</time></trkpt><trkpt lat="38.6288493" lon="21.0063311"><ele>17.333333333333336</ele><time>2026-04-30T14:17:48.857Z</time></trkpt><trkpt lat="38.6290351" lon="21.0062885"><ele>17.666666666666668</ele><time>2026-04-30T14:17:49.855Z</time></trkpt><trkpt lat="38.6292266" lon="21.0062628"><ele>18.0</ele><time>2026-04-30T14:17:50.857Z</time></trkpt><trkpt lat="38.6294158" lon="21.0062655"><ele>16.666666666666668</ele><time>2026-04-30T14:17:51.858Z</time></trkpt><trkpt lat="38.6296074" lon="21.0062858"><ele>15.333333333333334</ele><time>2026-04-30T14:17:52.858Z</time></trkpt><trkpt lat="38.6297984" lon="21.0063097"><ele>14.0</ele><time>2026-04-30T14:17:53.855Z</time></trkpt><trkpt lat="38.6299887" lon="21.0063317"><ele>14.0</ele><time>2026-04-30T14:17:54.86Z</time></trkpt><trkpt lat="38.6301793" lon="21.0063533"><ele>14.0</ele><time>2026-04-30T14:17:55.856Z</time></trkpt><trkpt lat="38.6303713" lon="21.0063576"><ele>14.0</ele><time>2026-04-30T14:17:56.858Z</time></trkpt><trkpt lat="38.6305625" lon="21.0063457"><ele>14.666666666666668</ele><time>2026-04-30T14:17:57.859Z</time></trkpt><trkpt lat="38.6307557" lon="21.0063033"><ele>15.333333333333332</ele><time>2026-04-30T14:17:58.856Z</time></trkpt><trkpt lat="38.6309413" lon="21.0062268"><ele>16.0</ele><time>2026-04-30T14:17:59.859Z</time></trkpt><trkpt lat="38.6311203" lon="21.0061187"><ele>15.0</ele><time>2026-04-30T14:18:00.857Z</time></trkpt><trkpt lat="38.6312965" lon="21.0059943"><ele>14.0</ele><time>2026-04-30T14:18:01.858Z</time></trkpt><trkpt lat="38.6314683" lon="21.0058541"><ele>13.0</ele><time>2026-04-30T14:18:02.859Z</time></trkpt><trkpt lat="38.6316376" lon="21.0056937"><ele>13.0</ele><time>2026-04-30T14:18:03.858Z</time></trkpt><trkpt lat="38.6317987" lon="21.0055277"><ele>13.0</ele><time>2026-04-30T14:18:04.859Z</time></trkpt><trkpt lat="38.631957" lon="21.0053555"><ele>13.0</ele><time>2026-04-30T14:18:05.858Z</time></trkpt><trkpt lat="38.6321112" lon="21.0051728"><ele>13.666666666666666</ele><time>2026-04-30T14:18:06.855Z</time></trkpt><trkpt lat="38.6322636" lon="21.0049894"><ele>14.333333333333332</ele><time>2026-04-30T14:18:07.858Z</time></trkpt><trkpt lat="38.6324161" lon="21.0048042"><ele>15.0</ele><time>2026-04-30T14:18:08.86Z</time></trkpt><trkpt lat="38.6325699" lon="21.0046229"><ele>15.0</ele><time>2026-04-30T14:18:09.856Z</time></trkpt><trkpt lat="38.6327238" lon="21.0044418"><ele>15.0</ele><time>2026-04-30T14:18:10.86Z</time></trkpt><trkpt lat="38.6328776" lon="21.0042631"><ele>15.0</ele><time>2026-04-30T14:18:11.857Z</time></trkpt><trkpt lat="38.6330313" lon="21.0040865"><ele>16.333333333333332</ele><time>2026-04-30T14:18:12.859Z</time></trkpt><trkpt lat="38.6331834" lon="21.0039071"><ele>17.666666666666664</ele><time>2026-04-30T14:18:13.855Z</time></trkpt><trkpt lat="38.6333365" lon="21.0037289"><ele>19.0</ele><time>2026-04-30T14:18:14.857Z</time></trkpt><trkpt lat="38.6334873" lon="21.0035499"><ele>22.666666666666664</ele><time>2026-04-30T14:18:15.859Z</time></trkpt><trkpt lat="38.6336438" lon="21.0033721"><ele>26.333333333333332</ele><time>2026-04-30T14:18:16.856Z</time></trkpt><trkpt lat="38.6338034" lon="21.0031955"><ele>30.0</ele><time>2026-04-30T14:18:17.858Z</time></trkpt><trkpt lat="38.633958" lon="21.0030211"><ele>30.0</ele><time>2026-04-30T14:18:18.858Z</time></trkpt><trkpt lat="38.6341124" lon="21.0028434"><ele>30.0</ele><time>2026-04-30T14:18:19.859Z</time></trkpt><trkpt lat="38.6342664" lon="21.0026655"><ele>30.0</ele><time>2026-04-30T14:18:20.858Z</time></trkpt><trkpt lat="38.6344215" lon="21.0024882"><ele>30.666666666666664</ele><time>2026-04-30T14:18:21.857Z</time></trkpt><trkpt lat="38.6345714" lon="21.0023184"><ele>31.333333333333332</ele><time>2026-04-30T14:18:22.856Z</time></trkpt><trkpt lat="38.6347282" lon="21.0021523"><ele>32.0</ele><time>2026-04-30T14:18:23.858Z</time></trkpt><trkpt lat="38.6348818" lon="21.00198"><ele>32.0</ele><time>2026-04-30T14:18:24.859Z</time></trkpt><trkpt lat="38.6350379" lon="21.0018011"><ele>32.0</ele><time>2026-04-30T14:18:25.857Z</time></trkpt><trkpt lat="38.635189" lon="21.0016255"><ele>32.0</ele><time>2026-04-30T14:18:26.857Z</time></trkpt><trkpt lat="38.635342" lon="21.0014474"><ele>33.33333333333333</ele><time>2026-04-30T14:18:27.857Z</time></trkpt><trkpt lat="38.6354947" lon="21.0012705"><ele>34.666666666666664</ele><time>2026-04-30T14:18:28.858Z</time></trkpt><trkpt lat="38.6356526" lon="21.0010938"><ele>36.0</ele><time>2026-04-30T14:18:29.855Z</time></trkpt><trkpt lat="38.6358115" lon="21.0009165"><ele>39.666666666666664</ele><time>2026-04-30T14:18:30.855Z</time></trkpt><trkpt lat="38.635971" lon="21.0007387"><ele>43.33333333333333</ele><time>2026-04-30T14:18:31.858Z</time></trkpt><trkpt lat="38.6361274" lon="21.0005615"><ele>47.0</ele><time>2026-04-30T14:18:32.858Z</time></trkpt><trkpt lat="38.636289" lon="21.0003801"><ele>47.0</ele><time>2026-04-30T14:18:33.858Z</time></trkpt><trkpt lat="38.6364465" lon="21.0001975"><ele>47.0</ele><time>2026-04-30T14:18:34.857Z</time></trkpt><trkpt lat="38.6366051" lon="21.000016"><ele>47.0</ele><time>2026-04-30T14:18:35.856Z</time></trkpt><trkpt lat="38.6367667" lon="20.9998309"><ele>47.0</ele><time>2026-04-30T14:18:36.858Z</time></trkpt><trkpt lat="38.6369287" lon="20.9996502"><ele>47.0</ele><time>2026-04-30T14:18:37.857Z</time></trkpt><trkpt lat="38.6370948" lon="20.9994662"><ele>47.0</ele><time>2026-04-30T14:18:38.856Z</time></trkpt><trkpt lat="38.6372593" lon="20.9992823"><ele>47.33333333333333</ele><time>2026-04-30T14:18:39.855Z</time></trkpt><trkpt lat="38.637426" lon="20.9990922"><ele>47.666666666666664</ele><time>2026-04-30T14:18:40.855Z</time></trkpt><trkpt lat="38.637592" lon="20.998897"><ele>48.0</ele><time>2026-04-30T14:18:41.855Z</time></trkpt><trkpt lat="38.6377544" lon="20.9987081"><ele>52.33333333333333</ele><time>2026-04-30T14:18:42.855Z</time></trkpt><trkpt lat="38.6379191" lon="20.9985181"><ele>56.666666666666664</ele><time>2026-04-30T14:18:43.858Z</time></trkpt><trkpt lat="38.6380892" lon="20.9983301"><ele>61.0</ele><time>2026-04-30T14:18:44.855Z</time></trkpt><trkpt lat="38.6382574" lon="20.9981311"><ele>46.5</ele><time>2026-04-30T14:18:45.857Z</time></trkpt><trkpt lat="38.6384217" lon="20.9979369"><ele>32.0</ele><time>2026-04-30T14:18:46.856Z</time></trkpt><trkpt lat="38.6385918" lon="20.9977428"><ele>34.5</ele><time>2026-04-30T14:18:47.857Z</time></trkpt><trkpt lat="38.6387581" lon="20.99755"><ele>37.0</ele><time>2026-04-30T14:18:48.858Z</time></trkpt><trkpt lat="38.6389267" lon="20.9973511"><ele>30.0</ele><time>2026-04-30T14:18:49.858Z</time></trkpt><trkpt lat="38.6390926" lon="20.9971552"><ele>23.0</ele><time>2026-04-30T14:18:50.858Z</time></trkpt><trkpt lat="38.639262" lon="20.9969606"><ele>23.0</ele><time>2026-04-30T14:18:51.857Z</time></trkpt><trkpt lat="38.6394323" lon="20.9967644"><ele>23.0</ele><time>2026-04-30T14:18:52.856Z</time></trkpt><trkpt lat="38.6396047" lon="20.9965719"><ele>22.666666666666668</ele><time>2026-04-30T14:18:53.858Z</time></trkpt><trkpt lat="38.6397748" lon="20.9963857"><ele>22.333333333333332</ele><time>2026-04-30T14:18:54.856Z</time></trkpt><trkpt lat="38.639947" lon="20.9962008"><ele>22.0</ele><time>2026-04-30T14:18:55.857Z</time></trkpt><trkpt lat="38.6401127" lon="20.9960152"><ele>20.0</ele><time>2026-04-30T14:18:56.859Z</time></trkpt><trkpt lat="38.6402774" lon="20.9958319"><ele>18.0</ele><time>2026-04-30T14:18:57.857Z</time></trkpt><trkpt lat="38.6404391" lon="20.9956477"><ele>16.0</ele><time>2026-04-30T14:18:58.858Z</time></trkpt><trkpt lat="38.6405956" lon="20.995467"><ele>16.0</ele><time>2026-04-30T14:18:59.858Z</time></trkpt><trkpt lat="38.6407577" lon="20.995281"><ele>16.0</ele><time>2026-04-30T14:19:00.857Z</time></trkpt><trkpt lat="38.6409201" lon="20.9950969"><ele>16.0</ele><time>2026-04-30T14:19:01.856Z</time></trkpt><trkpt lat="38.6410789" lon="20.9949096"><ele>19.333333333333332</ele><time>2026-04-30T14:19:02.856Z</time></trkpt><trkpt lat="38.6412403" lon="20.99472"><ele>22.666666666666664</ele><time>2026-04-30T14:19:03.856Z</time></trkpt><trkpt lat="38.6414026" lon="20.9945412"><ele>26.0</ele><time>2026-04-30T14:19:04.857Z</time></trkpt><trkpt lat="38.6415685" lon="20.99436"><ele>26.0</ele><time>2026-04-30T14:19:05.858Z</time></trkpt><trkpt lat="38.641732" lon="20.9941773"><ele>26.0</ele><time>2026-04-30T14:19:06.859Z</time></trkpt><trkpt lat="38.641897" lon="20.9939855"><ele>26.0</ele><time>2026-04-30T14:19:07.86Z</time></trkpt><trkpt lat="38.6420637" lon="20.9937945"><ele>25.333333333333332</ele><time>2026-04-30T14:19:08.858Z</time></trkpt><trkpt lat="38.6422261" lon="20.9935996"><ele>24.666666666666664</ele><time>2026-04-30T14:19:09.856Z</time></trkpt><trkpt lat="38.6423939" lon="20.9934041"><ele>24.0</ele><time>2026-04-30T14:19:10.857Z</time></trkpt><trkpt lat="38.6425592" lon="20.9932127"><ele>24.0</ele><time>2026-04-30T14:19:11.855Z</time></trkpt><trkpt lat="38.6427262" lon="20.9930249"><ele>24.0</ele><time>2026-04-30T14:19:12.859Z</time></trkpt><trkpt lat="38.6428942" lon="20.9928349"><ele>24.0</ele><time>2026-04-30T14:19:13.858Z</time></trkpt><trkpt lat="38.6430561" lon="20.992649"><ele>24.333333333333336</ele><time>2026-04-30T14:19:14.857Z</time></trkpt><trkpt lat="38.6432126" lon="20.9924681"><ele>24.666666666666668</ele><time>2026-04-30T14:19:15.859Z</time></trkpt><trkpt lat="38.643369" lon="20.9922958"><ele>25.0</ele><time>2026-04-30T14:19:16.858Z</time></trkpt><trkpt lat="38.6435293" lon="20.9921174"><ele>26.666666666666668</ele><time>2026-04-30T14:19:17.856Z</time></trkpt><trkpt lat="38.6436832" lon="20.9919352"><ele>28.333333333333336</ele><time>2026-04-30T14:19:18.857Z</time></trkpt><trkpt lat="38.6438345" lon="20.9917599"><ele>30.0</ele><time>2026-04-30T14:19:19.858Z</time></trkpt><trkpt lat="38.6439893" lon="20.9915855"><ele>26.666666666666668</ele><time>2026-04-30T14:19:20.855Z</time></trkpt><trkpt lat="38.6441411" lon="20.9914113"><ele>23.333333333333336</ele><time>2026-04-30T14:19:21.856Z</time></trkpt><trkpt lat="38.6442967" lon="20.9912343"><ele>20.0</ele><time>2026-04-30T14:19:22.859Z</time></trkpt><trkpt lat="38.6444523" lon="20.9910609"><ele>20.0</ele><time>2026-04-30T14:19:23.855Z</time></trkpt><trkpt lat="38.6446101" lon="20.9908925"><ele>20.0</ele><time>2026-04-30T14:19:24.856Z</time></trkpt><trkpt lat="38.6447646" lon="20.9907103"><ele>20.0</ele><time>2026-04-30T14:19:25.856Z</time></trkpt><trkpt lat="38.6449194" lon="20.9905411"><ele>20.0</ele><time>2026-04-30T14:19:26.855Z</time></trkpt><trkpt lat="38.6450696" lon="20.9903744"><ele>20.0</ele><time>2026-04-30T14:19:27.856Z</time></trkpt><trkpt lat="38.6452248" lon="20.9902241"><ele>20.0</ele><time>2026-04-30T14:19:28.857Z</time></trkpt><trkpt lat="38.6453853" lon="20.9900888"><ele>23.333333333333336</ele><time>2026-04-30T14:19:29.858Z</time></trkpt><trkpt lat="38.6455555" lon="20.989985"><ele>26.666666666666668</ele><time>2026-04-30T14:19:30.856Z</time></trkpt><trkpt lat="38.6457378" lon="20.9898974"><ele>30.0</ele><time>2026-04-30T14:19:31.857Z</time></trkpt><trkpt lat="38.6459315" lon="20.9898382"><ele>32.666666666666664</ele><time>2026-04-30T14:19:32.858Z</time></trkpt><trkpt lat="38.6461292" lon="20.9898122"><ele>35.33333333333333</ele><time>2026-04-30T14:19:33.855Z</time></trkpt><trkpt lat="38.6463282" lon="20.9898199"><ele>38.0</ele><time>2026-04-30T14:19:34.857Z</time></trkpt><trkpt lat="38.6465299" lon="20.9898492"><ele>38.0</ele><time>2026-04-30T14:19:35.857Z</time></trkpt><trkpt lat="38.6467244" lon="20.989895"><ele>38.0</ele><time>2026-04-30T14:19:36.858Z</time></trkpt><trkpt lat="38.6469155" lon="20.9899524"><ele>38.0</ele><time>2026-04-30T14:19:37.855Z</time></trkpt><trkpt lat="38.6471129" lon="20.9900094"><ele>41.33333333333333</ele><time>2026-04-30T14:19:38.858Z</time></trkpt><trkpt lat="38.6473165" lon="20.990062"><ele>44.666666666666664</ele><time>2026-04-30T14:19:39.856Z</time></trkpt><trkpt lat="38.6475183" lon="20.9901159"><ele>48.0</ele><time>2026-04-30T14:19:40.856Z</time></trkpt><trkpt lat="38.6477155" lon="20.9901699"><ele>45.333333333333336</ele><time>2026-04-30T14:19:41.856Z</time></trkpt><trkpt lat="38.6479152" lon="20.9902313"><ele>42.66666666666667</ele><time>2026-04-30T14:19:42.854Z</time></trkpt><trkpt lat="38.6481165" lon="20.9902844"><ele>40.0</ele><time>2026-04-30T14:19:43.857Z</time></trkpt><trkpt lat="38.6483181" lon="20.9903274"><ele>40.0</ele><time>2026-04-30T14:19:44.864Z</time></trkpt><trkpt lat="38.6485219" lon="20.9903802"><ele>40.0</ele><time>2026-04-30T14:19:45.858Z</time></trkpt><trkpt lat="38.6487219" lon="20.9904325"><ele>40.0</ele><time>2026-04-30T14:19:46.857Z</time></trkpt><trkpt lat="38.6489216" lon="20.990491"><ele>38.66666666666667</ele><time>2026-04-30T14:19:47.857Z</time></trkpt><trkpt lat="38.6491305" lon="20.9905544"><ele>37.333333333333336</ele><time>2026-04-30T14:19:48.857Z</time></trkpt><trkpt lat="38.6493288" lon="20.9906021"><ele>36.0</ele><time>2026-04-30T14:19:49.857Z</time></trkpt><trkpt lat="38.6495334" lon="20.9906614"><ele>36.0</ele><time>2026-04-30T14:19:50.855Z</time></trkpt><trkpt lat="38.6497342" lon="20.9907194"><ele>36.0</ele><time>2026-04-30T14:19:51.856Z</time></trkpt><trkpt lat="38.6499406" lon="20.9907816"><ele>36.0</ele><time>2026-04-30T14:19:52.859Z</time></trkpt><trkpt lat="38.6501444" lon="20.9908435"><ele>39.333333333333336</ele><time>2026-04-30T14:19:53.857Z</time></trkpt><trkpt lat="38.6503499" lon="20.9908975"><ele>42.66666666666667</ele><time>2026-04-30T14:19:54.858Z</time></trkpt><trkpt lat="38.6505532" lon="20.990956"><ele>46.0</ele><time>2026-04-30T14:19:55.857Z</time></trkpt><trkpt lat="38.6507569" lon="20.9910165"><ele>46.0</ele><time>2026-04-30T14:19:56.858Z</time></trkpt><trkpt lat="38.650954" lon="20.9910701"><ele>46.0</ele><time>2026-04-30T14:19:57.857Z</time></trkpt><trkpt lat="38.6511608" lon="20.9911188"><ele>46.0</ele><time>2026-04-30T14:19:58.856Z</time></trkpt><trkpt lat="38.6513606" lon="20.9911702"><ele>49.333333333333336</ele><time>2026-04-30T14:19:59.856Z</time></trkpt><trkpt lat="38.6515482" lon="20.9912244"><ele>52.66666666666667</ele><time>2026-04-30T14:20:00.857Z</time></trkpt><trkpt lat="38.6517303" lon="20.991274"><ele>56.0</ele><time>2026-04-30T14:20:01.856Z</time></trkpt><trkpt lat="38.6519051" lon="20.9913095"><ele>59.333333333333336</ele><time>2026-04-30T14:20:02.857Z</time></trkpt><trkpt lat="38.6520789" lon="20.9913183"><ele>62.66666666666667</ele><time>2026-04-30T14:20:03.856Z</time></trkpt><trkpt lat="38.6522494" lon="20.9912954"><ele>66.0</ele><time>2026-04-30T14:20:04.855Z</time></trkpt><trkpt lat="38.6524148" lon="20.9912538"><ele>66.0</ele><time>2026-04-30T14:20:05.857Z</time></trkpt><trkpt lat="38.6525769" lon="20.9912051"><ele>66.0</ele><time>2026-04-30T14:20:06.861Z</time></trkpt><trkpt lat="38.6527325" lon="20.9911601"><ele>66.0</ele><time>2026-04-30T14:20:07.855Z</time></trkpt><trkpt lat="38.6528962" lon="20.9911424"><ele>66.66666666666667</ele><time>2026-04-30T14:20:08.86Z</time></trkpt><trkpt lat="38.6530536" lon="20.9911424"><ele>67.33333333333334</ele><time>2026-04-30T14:20:09.856Z</time></trkpt><trkpt lat="38.6532089" lon="20.9911756"><ele>68.0</ele><time>2026-04-30T14:20:10.855Z</time></trkpt><trkpt lat="38.6533534" lon="20.9912234"><ele>68.0</ele><time>2026-04-30T14:20:11.856Z</time></trkpt><trkpt lat="38.6535087" lon="20.9913119"><ele>68.0</ele><time>2026-04-30T14:20:12.856Z</time></trkpt><trkpt lat="38.6536473" lon="20.9914211"><ele>68.0</ele><time>2026-04-30T14:20:13.857Z</time></trkpt><trkpt lat="38.6537856" lon="20.9915436"><ele>67.33333333333334</ele><time>2026-04-30T14:20:14.856Z</time></trkpt><trkpt lat="38.6539334" lon="20.9916524"><ele>66.66666666666667</ele><time>2026-04-30T14:20:15.856Z</time></trkpt><trkpt lat="38.654087" lon="20.9917508"><ele>66.0</ele><time>2026-04-30T14:20:16.855Z</time></trkpt><trkpt lat="38.6542452" lon="20.9918325"><ele>73.33333333333333</ele><time>2026-04-30T14:20:17.858Z</time></trkpt><trkpt lat="38.6544153" lon="20.9919096"><ele>80.66666666666666</ele><time>2026-04-30T14:20:18.858Z</time></trkpt><trkpt lat="38.654592" lon="20.9919594"><ele>88.0</ele><time>2026-04-30T14:20:19.86Z</time></trkpt><trkpt lat="38.6547725" lon="20.991998"><ele>88.0</ele><time>2026-04-30T14:20:20.859Z</time></trkpt><trkpt lat="38.6549502" lon="20.9920285"><ele>88.0</ele><time>2026-04-30T14:20:21.855Z</time></trkpt><trkpt lat="38.6551234" lon="20.9920662"><ele>88.0</ele><time>2026-04-30T14:20:22.856Z</time></trkpt><trkpt lat="38.6552886" lon="20.9921232"><ele>85.0</ele><time>2026-04-30T14:20:23.858Z</time></trkpt><trkpt lat="38.6554525" lon="20.992192"><ele>82.0</ele><time>2026-04-30T14:20:24.856Z</time></trkpt><trkpt lat="38.6556135" lon="20.9922694"><ele>79.0</ele><time>2026-04-30T14:20:25.858Z</time></trkpt><trkpt lat="38.6557835" lon="20.9923326"><ele>79.0</ele><time>2026-04-30T14:20:26.858Z</time></trkpt><trkpt lat="38.655962" lon="20.9923933"><ele>79.0</ele><time>2026-04-30T14:20:27.856Z</time></trkpt><trkpt lat="38.6561374" lon="20.9924551"><ele>79.0</ele><time>2026-04-30T14:20:28.857Z</time></trkpt><trkpt lat="38.6563203" lon="20.9925102"><ele>84.66666666666666</ele><time>2026-04-30T14:20:29.854Z</time></trkpt><trkpt lat="38.656504" lon="20.9925569"><ele>90.33333333333333</ele><time>2026-04-30T14:20:30.855Z</time></trkpt><trkpt lat="38.6566923" lon="20.992611"><ele>96.0</ele><time>2026-04-30T14:20:31.855Z</time></trkpt><trkpt lat="38.6568775" lon="20.9926594"><ele>95.0</ele><time>2026-04-30T14:20:32.857Z</time></trkpt><trkpt lat="38.6570612" lon="20.9927099"><ele>94.0</ele><time>2026-04-30T14:20:33.856Z</time></trkpt><trkpt lat="38.6572496" lon="20.9927545"><ele>93.0</ele><time>2026-04-30T14:20:34.856Z</time></trkpt><trkpt lat="38.6574389" lon="20.9927964"><ele>93.0</ele><time>2026-04-30T14:20:35.857Z</time></trkpt><trkpt lat="38.6576294" lon="20.9928442"><ele>93.0</ele><time>2026-04-30T14:20:36.857Z</time></trkpt><trkpt lat="38.6578236" lon="20.9928819"><ele>93.0</ele><time>2026-04-30T14:20:37.855Z</time></trkpt><trkpt lat="38.6580215" lon="20.9929092"><ele>91.66666666666667</ele><time>2026-04-30T14:20:38.855Z</time></trkpt><trkpt lat="38.6582187" lon="20.9929361"><ele>90.33333333333334</ele><time>2026-04-30T14:20:39.855Z</time></trkpt><trkpt lat="38.6584124" lon="20.992953"><ele>89.0</ele><time>2026-04-30T14:20:40.858Z</time></trkpt><trkpt lat="38.65861" lon="20.992967"><ele>85.0</ele><time>2026-04-30T14:20:41.855Z</time></trkpt><trkpt lat="38.6588078" lon="20.992977"><ele>81.0</ele><time>2026-04-30T14:20:42.857Z</time></trkpt><trkpt lat="38.6590087" lon="20.9929835"><ele>77.0</ele><time>2026-04-30T14:20:43.855Z</time></trkpt><trkpt lat="38.6592098" lon="20.9929835"><ele>77.0</ele><time>2026-04-30T14:20:44.857Z</time></trkpt><trkpt lat="38.6594109" lon="20.9929846"><ele>77.0</ele><time>2026-04-30T14:20:45.858Z</time></trkpt><trkpt lat="38.6596123" lon="20.992989"><ele>77.0</ele><time>2026-04-30T14:20:46.856Z</time></trkpt><trkpt lat="38.659815" lon="20.9929953"><ele>76.33333333333334</ele><time>2026-04-30T14:20:47.855Z</time></trkpt><trkpt lat="38.660018" lon="20.9929929"><ele>75.66666666666667</ele><time>2026-04-30T14:20:48.856Z</time></trkpt><trkpt lat="38.6602195" lon="20.9929962"><ele>75.0</ele><time>2026-04-30T14:20:49.857Z</time></trkpt><trkpt lat="38.6604235" lon="20.9929989"><ele>72.0</ele><time>2026-04-30T14:20:50.857Z</time></trkpt><trkpt lat="38.6606306" lon="20.9929992"><ele>69.0</ele><time>2026-04-30T14:20:51.857Z</time></trkpt><trkpt lat="38.6608385" lon="20.993"><ele>66.0</ele><time>2026-04-30T14:20:52.856Z</time></trkpt><trkpt lat="38.6610512" lon="20.9930025"><ele>64.0</ele><time>2026-04-30T14:20:53.857Z</time></trkpt><trkpt lat="38.6612676" lon="20.9930091"><ele>62.0</ele><time>2026-04-30T14:20:54.855Z</time></trkpt><trkpt lat="38.6614785" lon="20.9930152"><ele>60.0</ele><time>2026-04-30T14:20:55.857Z</time></trkpt><trkpt lat="38.6616935" lon="20.9930303"><ele>60.0</ele><time>2026-04-30T14:20:56.854Z</time></trkpt><trkpt lat="38.6619043" lon="20.9930294"><ele>60.0</ele><time>2026-04-30T14:20:57.857Z</time></trkpt><trkpt lat="38.6621167" lon="20.9930335"><ele>60.0</ele><time>2026-04-30T14:20:58.857Z</time></trkpt><trkpt lat="38.6623282" lon="20.9930374"><ele>60.33333333333333</ele><time>2026-04-30T14:20:59.857Z</time></trkpt><trkpt lat="38.6625352" lon="20.993037"><ele>60.666666666666664</ele><time>2026-04-30T14:21:00.857Z</time></trkpt><trkpt lat="38.6627402" lon="20.9930249"><ele>61.0</ele><time>2026-04-30T14:21:01.855Z</time></trkpt><trkpt lat="38.6629491" lon="20.9930003"><ele>61.0</ele><time>2026-04-30T14:21:02.857Z</time></trkpt><trkpt lat="38.6631576" lon="20.9929566"><ele>61.0</ele><time>2026-04-30T14:21:03.858Z</time></trkpt><trkpt lat="38.6633573" lon="20.9929"><ele>61.0</ele><time>2026-04-30T14:21:04.859Z</time></trkpt><trkpt lat="38.6635545" lon="20.9928364"><ele>61.666666666666664</ele><time>2026-04-30T14:21:05.857Z</time></trkpt><trkpt lat="38.6637521" lon="20.9927687"><ele>62.33333333333333</ele><time>2026-04-30T14:21:06.856Z</time></trkpt><trkpt lat="38.6639468" lon="20.992698"><ele>63.0</ele><time>2026-04-30T14:21:07.858Z</time></trkpt><trkpt lat="38.6641427" lon="20.9926156"><ele>63.0</ele><time>2026-04-30T14:21:08.855Z</time></trkpt><trkpt lat="38.6643404" lon="20.9925287"><ele>63.0</ele><time>2026-04-30T14:21:09.856Z</time></trkpt><trkpt lat="38.6645321" lon="20.99245"><ele>63.0</ele><time>2026-04-30T14:21:10.857Z</time></trkpt><trkpt lat="38.6647251" lon="20.9923776"><ele>60.0</ele><time>2026-04-30T14:21:11.858Z</time></trkpt><trkpt lat="38.6649233" lon="20.9922994"><ele>57.0</ele><time>2026-04-30T14:21:12.858Z</time></trkpt><trkpt lat="38.6651214" lon="20.9922161"><ele>54.0</ele><time>2026-04-30T14:21:13.857Z</time></trkpt><trkpt lat="38.6653175" lon="20.9921274"><ele>54.0</ele><time>2026-04-30T14:21:14.858Z</time></trkpt><trkpt lat="38.665524" lon="20.992048"><ele>54.0</ele><time>2026-04-30T14:21:15.856Z</time></trkpt><trkpt lat="38.6657308" lon="20.9919539"><ele>54.0</ele><time>2026-04-30T14:21:16.857Z</time></trkpt><trkpt lat="38.6659342" lon="20.9918737"><ele>54.66666666666667</ele><time>2026-04-30T14:21:17.857Z</time></trkpt><trkpt lat="38.6661406" lon="20.9917922"><ele>55.333333333333336</ele><time>2026-04-30T14:21:18.856Z</time></trkpt><trkpt lat="38.666345" lon="20.9917153"><ele>56.0</ele><time>2026-04-30T14:21:19.857Z</time></trkpt><trkpt lat="38.6665404" lon="20.9916377"><ele>53.333333333333336</ele><time>2026-04-30T14:21:20.858Z</time></trkpt><trkpt lat="38.6667347" lon="20.9915607"><ele>50.66666666666667</ele><time>2026-04-30T14:21:21.856Z</time></trkpt><trkpt lat="38.6669264" lon="20.9914906"><ele>48.0</ele><time>2026-04-30T14:21:22.859Z</time></trkpt><trkpt lat="38.6671183" lon="20.9914194"><ele>46.0</ele><time>2026-04-30T14:21:23.856Z</time></trkpt><trkpt lat="38.6673114" lon="20.9913436"><ele>44.0</ele><time>2026-04-30T14:21:24.859Z</time></trkpt><trkpt lat="38.6675073" lon="20.9912713"><ele>42.0</ele><time>2026-04-30T14:21:25.857Z</time></trkpt><trkpt lat="38.6676994" lon="20.9911939"><ele>41.666666666666664</ele><time>2026-04-30T14:21:26.856Z</time></trkpt><trkpt lat="38.6678929" lon="20.9911178"><ele>41.33333333333333</ele><time>2026-04-30T14:21:27.858Z</time></trkpt><trkpt lat="38.6680891" lon="20.9910402"><ele>41.0</ele><time>2026-04-30T14:21:28.858Z</time></trkpt><trkpt lat="38.6682858" lon="20.9909648"><ele>41.0</ele><time>2026-04-30T14:21:29.856Z</time></trkpt><trkpt lat="38.6684831" lon="20.9908887"><ele>41.0</ele><time>2026-04-30T14:21:30.857Z</time></trkpt><trkpt lat="38.6686836" lon="20.9908149"><ele>41.0</ele><time>2026-04-30T14:21:31.855Z</time></trkpt><trkpt lat="38.6688863" lon="20.9907238"><ele>38.666666666666664</ele><time>2026-04-30T14:21:32.857Z</time></trkpt><trkpt lat="38.6690873" lon="20.9906481"><ele>36.333333333333336</ele><time>2026-04-30T14:21:33.858Z</time></trkpt><trkpt lat="38.6692903" lon="20.9905737"><ele>34.0</ele><time>2026-04-30T14:21:34.855Z</time></trkpt><trkpt lat="38.6694922" lon="20.9904918"><ele>31.333333333333336</ele><time>2026-04-30T14:21:35.857Z</time></trkpt><trkpt lat="38.6696933" lon="20.9904107"><ele>28.666666666666664</ele><time>2026-04-30T14:21:36.858Z</time></trkpt><trkpt lat="38.6698931" lon="20.9903367"><ele>26.0</ele><time>2026-04-30T14:21:37.857Z</time></trkpt><trkpt lat="38.6700908" lon="20.990248"><ele>24.666666666666664</ele><time>2026-04-30T14:21:38.858Z</time></trkpt><trkpt lat="38.6702917" lon="20.9901639"><ele>23.333333333333332</ele><time>2026-04-30T14:21:39.858Z</time></trkpt><trkpt lat="38.6704911" lon="20.9900704"><ele>22.0</ele><time>2026-04-30T14:21:40.857Z</time></trkpt><trkpt lat="38.6706892" lon="20.989971"><ele>19.666666666666664</ele><time>2026-04-30T14:21:41.856Z</time></trkpt><trkpt lat="38.6708867" lon="20.989867"><ele>17.333333333333332</ele><time>2026-04-30T14:21:42.855Z</time></trkpt><trkpt lat="38.6710837" lon="20.9897605"><ele>15.0</ele><time>2026-04-30T14:21:43.858Z</time></trkpt><trkpt lat="38.6712825" lon="20.9896549"><ele>15.0</ele><time>2026-04-30T14:21:44.856Z</time></trkpt><trkpt lat="38.6714777" lon="20.9895457"><ele>15.0</ele><time>2026-04-30T14:21:45.855Z</time></trkpt><trkpt lat="38.6716774" lon="20.9894334"><ele>15.0</ele><time>2026-04-30T14:21:46.857Z</time></trkpt><trkpt lat="38.6718763" lon="20.9893196"><ele>14.333333333333332</ele><time>2026-04-30T14:21:47.858Z</time></trkpt><trkpt lat="38.6720797" lon="20.9892009"><ele>13.666666666666666</ele><time>2026-04-30T14:21:48.857Z</time></trkpt><trkpt lat="38.6722827" lon="20.9890863"><ele>13.0</ele><time>2026-04-30T14:21:49.855Z</time></trkpt><trkpt lat="38.6724863" lon="20.988972"><ele>12.0</ele><time>2026-04-30T14:21:50.855Z</time></trkpt><trkpt lat="38.6726884" lon="20.9888577"><ele>11.0</ele><time>2026-04-30T14:21:51.858Z</time></trkpt><trkpt lat="38.672888" lon="20.9887461"><ele>10.0</ele><time>2026-04-30T14:21:52.857Z</time></trkpt><trkpt lat="38.6730904" lon="20.9886329"><ele>9.666666666666668</ele><time>2026-04-30T14:21:53.857Z</time></trkpt><trkpt lat="38.6732924" lon="20.988515"><ele>9.333333333333334</ele><time>2026-04-30T14:21:54.856Z</time></trkpt><trkpt lat="38.6734911" lon="20.9884022"><ele>9.0</ele><time>2026-04-30T14:21:55.856Z</time></trkpt><trkpt lat="38.6736909" lon="20.9882816"><ele>8.666666666666666</ele><time>2026-04-30T14:21:56.858Z</time></trkpt><trkpt lat="38.6738875" lon="20.9881671"><ele>8.333333333333332</ele><time>2026-04-30T14:21:57.855Z</time></trkpt><trkpt lat="38.6740825" lon="20.9880554"><ele>8.0</ele><time>2026-04-30T14:21:58.854Z</time></trkpt><trkpt lat="38.6742802" lon="20.9879381"><ele>8.0</ele><time>2026-04-30T14:21:59.857Z</time></trkpt><trkpt lat="38.6744683" lon="20.9878044"><ele>8.0</ele><time>2026-04-30T14:22:00.855Z</time></trkpt><trkpt lat="38.6746504" lon="20.9876628"><ele>8.0</ele><time>2026-04-30T14:22:01.857Z</time></trkpt><trkpt lat="38.6748213" lon="20.9875024"><ele>8.0</ele><time>2026-04-30T14:22:02.857Z</time></trkpt><trkpt lat="38.6749829" lon="20.9873141"><ele>8.0</ele><time>2026-04-30T14:22:03.857Z</time></trkpt><trkpt lat="38.6751383" lon="20.9871208"><ele>8.0</ele><time>2026-04-30T14:22:04.858Z</time></trkpt><trkpt lat="38.6752819" lon="20.9869106"><ele>8.0</ele><time>2026-04-30T14:22:05.859Z</time></trkpt><trkpt lat="38.6754087" lon="20.9866835"><ele>8.0</ele><time>2026-04-30T14:22:06.858Z</time></trkpt><trkpt lat="38.6755204" lon="20.9864417"><ele>8.0</ele><time>2026-04-30T14:22:07.857Z</time></trkpt><trkpt lat="38.6756175" lon="20.9861882"><ele>7.666666666666666</ele><time>2026-04-30T14:22:08.857Z</time></trkpt><trkpt lat="38.6756959" lon="20.9859197"><ele>7.333333333333334</ele><time>2026-04-30T14:22:09.857Z</time></trkpt><trkpt lat="38.6757651" lon="20.9856476"><ele>7.0</ele><time>2026-04-30T14:22:10.856Z</time></trkpt><trkpt lat="38.6758288" lon="20.9853698"><ele>6.0</ele><time>2026-04-30T14:22:11.858Z</time></trkpt><trkpt lat="38.6758921" lon="20.9850908"><ele>5.0</ele><time>2026-04-30T14:22:12.857Z</time></trkpt><trkpt lat="38.6759458" lon="20.9848076"><ele>5.0</ele><time>2026-04-30T14:22:13.858Z</time></trkpt><trkpt lat="38.6760069" lon="20.9845328"><ele>5.0</ele><time>2026-04-30T14:22:14.857Z</time></trkpt><trkpt lat="38.6760639" lon="20.9842595"><ele>5.0</ele><time>2026-04-30T14:22:15.856Z</time></trkpt><trkpt lat="38.6761164" lon="20.9839822"><ele>5.666666666666667</ele><time>2026-04-30T14:22:16.856Z</time></trkpt><trkpt lat="38.6761627" lon="20.983701"><ele>6.333333333333334</ele><time>2026-04-30T14:22:17.856Z</time></trkpt><trkpt lat="38.6762141" lon="20.9834321"><ele>7.0</ele><time>2026-04-30T14:22:18.856Z</time></trkpt><trkpt lat="38.6762625" lon="20.9831645"><ele>7.0</ele><time>2026-04-30T14:22:19.858Z</time></trkpt><trkpt lat="38.6763151" lon="20.9828952"><ele>7.0</ele><time>2026-04-30T14:22:20.857Z</time></trkpt><trkpt lat="38.6763632" lon="20.9826298"><ele>7.0</ele><time>2026-04-30T14:22:21.858Z</time></trkpt><trkpt lat="38.6764111" lon="20.9823623"><ele>7.0</ele><time>2026-04-30T14:22:22.855Z</time></trkpt><trkpt lat="38.6764636" lon="20.9820989"><ele>7.0</ele><time>2026-04-30T14:22:23.857Z</time></trkpt><trkpt lat="38.6765109" lon="20.9818354"><ele>7.0</ele><time>2026-04-30T14:22:24.857Z</time></trkpt><trkpt lat="38.67656" lon="20.9815746"><ele>7.0</ele><time>2026-04-30T14:22:25.856Z</time></trkpt><trkpt lat="38.6766067" lon="20.9813124"><ele>7.0</ele><time>2026-04-30T14:22:26.855Z</time></trkpt><trkpt lat="38.6766562" lon="20.9810466"><ele>7.0</ele><time>2026-04-30T14:22:27.855Z</time></trkpt><trkpt lat="38.6767096" lon="20.9807765"><ele>7.0</ele><time>2026-04-30T14:22:28.856Z</time></trkpt><trkpt lat="38.6767614" lon="20.9805126"><ele>7.0</ele><time>2026-04-30T14:22:29.856Z</time></trkpt><trkpt lat="38.6768187" lon="20.980252"><ele>7.0</ele><time>2026-04-30T14:22:30.854Z</time></trkpt><trkpt lat="38.6768618" lon="20.9799815"><ele>7.0</ele><time>2026-04-30T14:22:31.856Z</time></trkpt><trkpt lat="38.6769187" lon="20.979713"><ele>7.0</ele><time>2026-04-30T14:22:32.858Z</time></trkpt><trkpt lat="38.6769644" lon="20.9794425"><ele>7.0</ele><time>2026-04-30T14:22:33.866Z</time></trkpt><trkpt lat="38.6770181" lon="20.9791755"><ele>7.333333333333334</ele><time>2026-04-30T14:22:34.858Z</time></trkpt><trkpt lat="38.6770667" lon="20.978911"><ele>7.666666666666666</ele><time>2026-04-30T14:22:35.859Z</time></trkpt><trkpt lat="38.6771232" lon="20.9786352"><ele>8.0</ele><time>2026-04-30T14:22:36.857Z</time></trkpt><trkpt lat="38.6771759" lon="20.9783633"><ele>8.5</ele><time>2026-04-30T14:22:37.857Z</time></trkpt><trkpt lat="38.6772349" lon="20.9780871"><ele>9.0</ele><time>2026-04-30T14:22:38.857Z</time></trkpt><trkpt lat="38.6772957" lon="20.9778082"><ele>9.0</ele><time>2026-04-30T14:22:39.856Z</time></trkpt><trkpt lat="38.6773447" lon="20.9775249"><ele>9.0</ele><time>2026-04-30T14:22:40.856Z</time></trkpt><trkpt lat="38.6774033" lon="20.9772543"><ele>9.0</ele><time>2026-04-30T14:22:41.857Z</time></trkpt><trkpt lat="38.6774584" lon="20.9769809"><ele>8.333333333333334</ele><time>2026-04-30T14:22:42.857Z</time></trkpt><trkpt lat="38.6775175" lon="20.9767064"><ele>7.666666666666667</ele><time>2026-04-30T14:22:43.857Z</time></trkpt><trkpt lat="38.6775683" lon="20.9764346"><ele>7.0</ele><time>2026-04-30T14:22:44.858Z</time></trkpt><trkpt lat="38.6776223" lon="20.9761609"><ele>6.666666666666667</ele><time>2026-04-30T14:22:45.856Z</time></trkpt><trkpt lat="38.6776658" lon="20.9758898"><ele>6.333333333333334</ele><time>2026-04-30T14:22:46.855Z</time></trkpt><trkpt lat="38.6777055" lon="20.9756141"><ele>6.0</ele><time>2026-04-30T14:22:47.855Z</time></trkpt><trkpt lat="38.6777358" lon="20.9753316"><ele>5.0</ele><time>2026-04-30T14:22:48.857Z</time></trkpt><trkpt lat="38.6777554" lon="20.9750539"><ele>4.0</ele><time>2026-04-30T14:22:49.856Z</time></trkpt><trkpt lat="38.6777648" lon="20.9747741"><ele>3.0</ele><time>2026-04-30T14:22:50.855Z</time></trkpt><trkpt lat="38.6777551" lon="20.9744923"><ele>3.0</ele><time>2026-04-30T14:22:51.857Z</time></trkpt><trkpt lat="38.6777193" lon="20.9742028"><ele>3.0</ele><time>2026-04-30T14:22:52.855Z</time></trkpt><trkpt lat="38.6776925" lon="20.9739216"><ele>3.333333333333333</ele><time>2026-04-30T14:22:53.857Z</time></trkpt><trkpt lat="38.6776673" lon="20.9736372"><ele>3.6666666666666665</ele><time>2026-04-30T14:22:54.857Z</time></trkpt><trkpt lat="38.6776406" lon="20.9733529"><ele>4.0</ele><time>2026-04-30T14:22:55.855Z</time></trkpt><trkpt lat="38.6776122" lon="20.9730735"><ele>4.0</ele><time>2026-04-30T14:22:56.857Z</time></trkpt><trkpt lat="38.6775858" lon="20.9727942"><ele>4.0</ele><time>2026-04-30T14:22:57.856Z</time></trkpt><trkpt lat="38.6775534" lon="20.9725078"><ele>4.0</ele><time>2026-04-30T14:22:58.861Z</time></trkpt><trkpt lat="38.677518" lon="20.9722227"><ele>4.0</ele><time>2026-04-30T14:22:59.856Z</time></trkpt><trkpt lat="38.677496" lon="20.9719392"><ele>4.0</ele><time>2026-04-30T14:23:00.855Z</time></trkpt><trkpt lat="38.6774646" lon="20.9716542"><ele>4.0</ele><time>2026-04-30T14:23:01.855Z</time></trkpt><trkpt lat="38.6774334" lon="20.9713713"><ele>4.0</ele><time>2026-04-30T14:23:02.855Z</time></trkpt><trkpt lat="38.6774015" lon="20.9710827"><ele>4.0</ele><time>2026-04-30T14:23:03.857Z</time></trkpt><trkpt lat="38.6773665" lon="20.9707956"><ele>4.0</ele><time>2026-04-30T14:23:04.857Z</time></trkpt><trkpt lat="38.6773332" lon="20.970503"><ele>4.0</ele><time>2026-04-30T14:23:05.857Z</time></trkpt><trkpt lat="38.6773023" lon="20.9702093"><ele>3.5</ele><time>2026-04-30T14:23:06.858Z</time></trkpt><trkpt lat="38.6772652" lon="20.9699194"><ele>3.0</ele><time>2026-04-30T14:23:07.858Z</time></trkpt><trkpt lat="38.6772331" lon="20.9696322"><ele>3.0</ele><time>2026-04-30T14:23:08.856Z</time></trkpt><trkpt lat="38.6771981" lon="20.9693411"><ele>3.0</ele><time>2026-04-30T14:23:09.856Z</time></trkpt><trkpt lat="38.6771607" lon="20.9690542"><ele>4.5</ele><time>2026-04-30T14:23:10.858Z</time></trkpt><trkpt lat="38.6771283" lon="20.9687671"><ele>6.0</ele><time>2026-04-30T14:23:11.854Z</time></trkpt><trkpt lat="38.6771001" lon="20.9684795"><ele>4.5</ele><time>2026-04-30T14:23:12.858Z</time></trkpt><trkpt lat="38.6770753" lon="20.9681871"><ele>3.0</ele><time>2026-04-30T14:23:13.855Z</time></trkpt><trkpt lat="38.6770385" lon="20.9678982"><ele>3.0</ele><time>2026-04-30T14:23:14.857Z</time></trkpt><trkpt lat="38.677009" lon="20.9676127"><ele>3.0</ele><time>2026-04-30T14:23:15.855Z</time></trkpt><trkpt lat="38.6769781" lon="20.9673345"><ele>3.0</ele><time>2026-04-30T14:23:16.857Z</time></trkpt><trkpt lat="38.6769507" lon="20.9670589"><ele>3.333333333333333</ele><time>2026-04-30T14:23:17.856Z</time></trkpt><trkpt lat="38.6769201" lon="20.9667934"><ele>3.6666666666666665</ele><time>2026-04-30T14:23:18.856Z</time></trkpt><trkpt lat="38.6768937" lon="20.9665358"><ele>4.0</ele><time>2026-04-30T14:23:19.855Z</time></trkpt><trkpt lat="38.6768634" lon="20.9662723"><ele>4.0</ele><time>2026-04-30T14:23:20.857Z</time></trkpt><trkpt lat="38.6768351" lon="20.9660172"><ele>4.0</ele><time>2026-04-30T14:23:21.855Z</time></trkpt><trkpt lat="38.6768045" lon="20.9657655"><ele>4.0</ele><time>2026-04-30T14:23:22.856Z</time></trkpt><trkpt lat="38.6767689" lon="20.9655046"><ele>4.333333333333333</ele><time>2026-04-30T14:23:23.856Z</time></trkpt><trkpt lat="38.676744" lon="20.965252"><ele>4.666666666666667</ele><time>2026-04-30T14:23:24.857Z</time></trkpt><trkpt lat="38.6767178" lon="20.9650001"><ele>5.0</ele><time>2026-04-30T14:23:25.854Z</time></trkpt><trkpt lat="38.6766885" lon="20.9647456"><ele>5.0</ele><time>2026-04-30T14:23:26.855Z</time></trkpt><trkpt lat="38.6766566" lon="20.9644867"><ele>5.0</ele><time>2026-04-30T14:23:27.855Z</time></trkpt><trkpt lat="38.6766274" lon="20.9642275"><ele>5.0</ele><time>2026-04-30T14:23:28.856Z</time></trkpt><trkpt lat="38.676598" lon="20.963969"><ele>5.333333333333334</ele><time>2026-04-30T14:23:29.856Z</time></trkpt><trkpt lat="38.6765563" lon="20.9637096"><ele>5.666666666666667</ele><time>2026-04-30T14:23:30.854Z</time></trkpt><trkpt lat="38.6765301" lon="20.9634512"><ele>6.0</ele><time>2026-04-30T14:23:31.856Z</time></trkpt><trkpt lat="38.6765078" lon="20.9631967"><ele>6.0</ele><time>2026-04-30T14:23:32.854Z</time></trkpt><trkpt lat="38.6764782" lon="20.9629334"><ele>6.0</ele><time>2026-04-30T14:23:33.855Z</time></trkpt><trkpt lat="38.676449" lon="20.9626655"><ele>6.0</ele><time>2026-04-30T14:23:34.855Z</time></trkpt><trkpt lat="38.67642" lon="20.9623972"><ele>6.0</ele><time>2026-04-30T14:23:35.858Z</time></trkpt><trkpt lat="38.6763799" lon="20.9621219"><ele>6.0</ele><time>2026-04-30T14:23:36.855Z</time></trkpt><trkpt lat="38.6763503" lon="20.9618601"><ele>6.0</ele><time>2026-04-30T14:23:37.855Z</time></trkpt><trkpt lat="38.6763196" lon="20.961597"><ele>6.333333333333334</ele><time>2026-04-30T14:23:38.856Z</time></trkpt><trkpt lat="38.6762911" lon="20.9613289"><ele>6.666666666666667</ele><time>2026-04-30T14:23:39.854Z</time></trkpt><trkpt lat="38.6762651" lon="20.9610579"><ele>7.0</ele><time>2026-04-30T14:23:40.853Z</time></trkpt><trkpt lat="38.6762362" lon="20.9607891"><ele>7.0</ele><time>2026-04-30T14:23:41.855Z</time></trkpt><trkpt lat="38.6762122" lon="20.9605204"><ele>7.0</ele><time>2026-04-30T14:23:42.854Z</time></trkpt><trkpt lat="38.6761835" lon="20.9602507"><ele>7.0</ele><time>2026-04-30T14:23:43.856Z</time></trkpt><trkpt lat="38.676149" lon="20.9599858"><ele>6.333333333333334</ele><time>2026-04-30T14:23:44.855Z</time></trkpt><trkpt lat="38.6761175" lon="20.9597162"><ele>5.666666666666667</ele><time>2026-04-30T14:23:45.855Z</time></trkpt><trkpt lat="38.6760882" lon="20.9594489"><ele>5.0</ele><time>2026-04-30T14:23:46.855Z</time></trkpt><trkpt lat="38.6760598" lon="20.9591797"><ele>5.0</ele><time>2026-04-30T14:23:47.857Z</time></trkpt><trkpt lat="38.6760375" lon="20.9589069"><ele>5.0</ele><time>2026-04-30T14:23:48.853Z</time></trkpt><trkpt lat="38.675989" lon="20.9586239"><ele>5.0</ele><time>2026-04-30T14:23:49.857Z</time></trkpt><trkpt lat="38.6759618" lon="20.9583531"><ele>5.0</ele><time>2026-04-30T14:23:50.856Z</time></trkpt><trkpt lat="38.675932" lon="20.9580808"><ele>5.0</ele><time>2026-04-30T14:23:51.854Z</time></trkpt><trkpt lat="38.6759029" lon="20.9578093"><ele>5.0</ele><time>2026-04-30T14:23:52.855Z</time></trkpt><trkpt lat="38.6758772" lon="20.9575388"><ele>4.666666666666667</ele><time>2026-04-30T14:23:53.854Z</time></trkpt><trkpt lat="38.6758511" lon="20.9572653"><ele>4.333333333333333</ele><time>2026-04-30T14:23:54.856Z</time></trkpt><trkpt lat="38.6758217" lon="20.9569971"><ele>4.0</ele><time>2026-04-30T14:23:55.854Z</time></trkpt><trkpt lat="38.675794" lon="20.956728"><ele>3.6666666666666665</ele><time>2026-04-30T14:23:56.856Z</time></trkpt><trkpt lat="38.6757658" lon="20.9564538"><ele>3.333333333333333</ele><time>2026-04-30T14:23:57.855Z</time></trkpt><trkpt lat="38.67575" lon="20.9561763"><ele>3.0</ele><time>2026-04-30T14:23:58.856Z</time></trkpt><trkpt lat="38.6757145" lon="20.9559059"><ele>3.333333333333333</ele><time>2026-04-30T14:23:59.856Z</time></trkpt><trkpt lat="38.6756794" lon="20.9556365"><ele>3.6666666666666665</ele><time>2026-04-30T14:24:00.854Z</time></trkpt><trkpt lat="38.6756502" lon="20.9553673"><ele>4.0</ele><time>2026-04-30T14:24:01.854Z</time></trkpt><trkpt lat="38.6756204" lon="20.9550945"><ele>4.666666666666666</ele><time>2026-04-30T14:24:02.854Z</time></trkpt><trkpt lat="38.6755828" lon="20.9548166"><ele>5.333333333333333</ele><time>2026-04-30T14:24:03.855Z</time></trkpt><trkpt lat="38.6755556" lon="20.954545"><ele>6.0</ele><time>2026-04-30T14:24:04.854Z</time></trkpt><trkpt lat="38.6755309" lon="20.9542699"><ele>6.0</ele><time>2026-04-30T14:24:05.855Z</time></trkpt><trkpt lat="38.6755009" lon="20.9539904"><ele>6.0</ele><time>2026-04-30T14:24:06.855Z</time></trkpt><trkpt lat="38.6754736" lon="20.9537158"><ele>6.0</ele><time>2026-04-30T14:24:07.856Z</time></trkpt><trkpt lat="38.6754389" lon="20.9534305"><ele>6.0</ele><time>2026-04-30T14:24:08.859Z</time></trkpt><trkpt lat="38.6754192" lon="20.9531547"><ele>6.0</ele><time>2026-04-30T14:24:09.856Z</time></trkpt><trkpt lat="38.6753846" lon="20.9528819"><ele>6.0</ele><time>2026-04-30T14:24:10.853Z</time></trkpt><trkpt lat="38.6753507" lon="20.9526127"><ele>5.666666666666667</ele><time>2026-04-30T14:24:11.855Z</time></trkpt><trkpt lat="38.6753205" lon="20.9523383"><ele>5.333333333333334</ele><time>2026-04-30T14:24:12.854Z</time></trkpt><trkpt lat="38.6752904" lon="20.9520667"><ele>5.0</ele><time>2026-04-30T14:24:13.855Z</time></trkpt><trkpt lat="38.6752607" lon="20.9517937"><ele>4.666666666666667</ele><time>2026-04-30T14:24:14.856Z</time></trkpt><trkpt lat="38.6752311" lon="20.9515221"><ele>4.333333333333333</ele><time>2026-04-30T14:24:15.854Z</time></trkpt><trkpt lat="38.6752075" lon="20.9512483"><ele>4.0</ele><time>2026-04-30T14:24:16.856Z</time></trkpt><trkpt lat="38.6751798" lon="20.9509877"><ele>3.6666666666666665</ele><time>2026-04-30T14:24:17.854Z</time></trkpt><trkpt lat="38.675139" lon="20.9507214"><ele>3.333333333333333</ele><time>2026-04-30T14:24:18.856Z</time></trkpt><trkpt lat="38.6751103" lon="20.9504628"><ele>3.0</ele><time>2026-04-30T14:24:19.855Z</time></trkpt><trkpt lat="38.6750856" lon="20.9502052"><ele>3.333333333333333</ele><time>2026-04-30T14:24:20.854Z</time></trkpt><trkpt lat="38.6750562" lon="20.9499452"><ele>3.6666666666666665</ele><time>2026-04-30T14:24:21.855Z</time></trkpt><trkpt lat="38.6750283" lon="20.9496922"><ele>4.0</ele><time>2026-04-30T14:24:22.855Z</time></trkpt><trkpt lat="38.6749974" lon="20.949445"><ele>3.6666666666666665</ele><time>2026-04-30T14:24:23.855Z</time></trkpt><trkpt lat="38.6749623" lon="20.9491909"><ele>3.333333333333333</ele><time>2026-04-30T14:24:24.856Z</time></trkpt><trkpt lat="38.6749337" lon="20.9489519"><ele>3.0</ele><time>2026-04-30T14:24:25.855Z</time></trkpt><trkpt lat="38.674903" lon="20.9487043"><ele>3.0</ele><time>2026-04-30T14:24:26.856Z</time></trkpt><trkpt lat="38.6748763" lon="20.9484699"><ele>3.0</ele><time>2026-04-30T14:24:27.854Z</time></trkpt><trkpt lat="38.6748509" lon="20.9482297"><ele>3.0</ele><time>2026-04-30T14:24:28.854Z</time></trkpt><trkpt lat="38.6748218" lon="20.9479876"><ele>3.0</ele><time>2026-04-30T14:24:29.855Z</time></trkpt><trkpt lat="38.6747973" lon="20.9477509"><ele>3.0</ele><time>2026-04-30T14:24:30.853Z</time></trkpt><trkpt lat="38.6747732" lon="20.9475218"><ele>3.0</ele><time>2026-04-30T14:24:31.854Z</time></trkpt><trkpt lat="38.6747463" lon="20.9472893"><ele>3.333333333333333</ele><time>2026-04-30T14:24:32.856Z</time></trkpt><trkpt lat="38.6747005" lon="20.9470518"><ele>3.6666666666666665</ele><time>2026-04-30T14:24:33.855Z</time></trkpt><trkpt lat="38.6746757" lon="20.9468225"><ele>4.0</ele><time>2026-04-30T14:24:34.854Z</time></trkpt><trkpt lat="38.6746516" lon="20.9466082"><ele>3.333333333333333</ele><time>2026-04-30T14:24:35.856Z</time></trkpt><trkpt lat="38.6746253" lon="20.9464015"><ele>2.6666666666666665</ele><time>2026-04-30T14:24:36.856Z</time></trkpt><trkpt lat="38.6746046" lon="20.9462036"><ele>2.0</ele><time>2026-04-30T14:24:37.855Z</time></trkpt><trkpt lat="38.6745828" lon="20.9460202"><ele>1.75</ele><time>2026-04-30T14:24:38.854Z</time></trkpt><trkpt lat="38.6745637" lon="20.9458574"><ele>1.5</ele><time>2026-04-30T14:24:39.854Z</time></trkpt><trkpt lat="38.6745464" lon="20.9457121"><ele>1.25</ele><time>2026-04-30T14:24:40.856Z</time></trkpt><trkpt lat="38.6745198" lon="20.945573"><ele>1.0</ele><time>2026-04-30T14:24:41.857Z</time></trkpt><trkpt lat="38.6744863" lon="20.9454311"><ele>1.0</ele><time>2026-04-30T14:24:42.855Z</time></trkpt><trkpt lat="38.6744681" lon="20.9452937"><ele>1.0</ele><time>2026-04-30T14:24:43.857Z</time></trkpt><trkpt lat="38.6744561" lon="20.945146"><ele>1.0</ele><time>2026-04-30T14:24:44.854Z</time></trkpt><trkpt lat="38.6744393" lon="20.9449874"><ele>1.0</ele><time>2026-04-30T14:24:45.857Z</time></trkpt><trkpt lat="38.6744223" lon="20.9448209"><ele>1.3333333333333333</ele><time>2026-04-30T14:24:46.856Z</time></trkpt><trkpt lat="38.6743926" lon="20.9446268"><ele>1.6666666666666665</ele><time>2026-04-30T14:24:47.855Z</time></trkpt><trkpt lat="38.674376" lon="20.9444365"><ele>2.0</ele><time>2026-04-30T14:24:48.858Z</time></trkpt><trkpt lat="38.6743658" lon="20.9442313"><ele>1.6666666666666665</ele><time>2026-04-30T14:24:49.855Z</time></trkpt><trkpt lat="38.6743658" lon="20.9440283"><ele>1.3333333333333333</ele><time>2026-04-30T14:24:50.854Z</time></trkpt><trkpt lat="38.6743768" lon="20.9438173"><ele>1.0</ele><time>2026-04-30T14:24:51.855Z</time></trkpt><trkpt lat="38.674395" lon="20.9436069"><ele>1.0</ele><time>2026-04-30T14:24:52.855Z</time></trkpt><trkpt lat="38.6744247" lon="20.9433883"><ele>1.0</ele><time>2026-04-30T14:24:53.854Z</time></trkpt><trkpt lat="38.6744712" lon="20.9431632"><ele>1.0</ele><time>2026-04-30T14:24:54.854Z</time></trkpt><trkpt lat="38.6745292" lon="20.9429456"><ele>1.3333333333333333</ele><time>2026-04-30T14:24:55.855Z</time></trkpt><trkpt lat="38.674599" lon="20.9427352"><ele>1.6666666666666665</ele><time>2026-04-30T14:24:56.855Z</time></trkpt><trkpt lat="38.6746888" lon="20.9425379"><ele>2.0</ele><time>2026-04-30T14:24:57.857Z</time></trkpt><trkpt lat="38.6747999" lon="20.9423399"><ele>2.333333333333333</ele><time>2026-04-30T14:24:58.856Z</time></trkpt><trkpt lat="38.6749201" lon="20.942151"><ele>2.6666666666666665</ele><time>2026-04-30T14:24:59.854Z</time></trkpt><trkpt lat="38.6750396" lon="20.9419688"><ele>3.0</ele><time>2026-04-30T14:25:00.855Z</time></trkpt><trkpt lat="38.6751538" lon="20.9417996"><ele>3.25</ele><time>2026-04-30T14:25:01.856Z</time></trkpt><trkpt lat="38.6752668" lon="20.9416389"><ele>3.5</ele><time>2026-04-30T14:25:02.856Z</time></trkpt><trkpt lat="38.6753664" lon="20.941503"><ele>3.75</ele><time>2026-04-30T14:25:03.855Z</time></trkpt><trkpt lat="38.6754392" lon="20.9414072"><ele>4.0</ele><time>2026-04-30T14:25:04.854Z</time></trkpt><trkpt lat="38.6754978" lon="20.9413514"><ele>3.6666666666666665</ele><time>2026-04-30T14:25:05.854Z</time></trkpt><trkpt lat="38.6756174" lon="20.94133"><ele>3.333333333333333</ele><time>2026-04-30T14:25:07.854Z</time></trkpt><trkpt lat="38.6757145" lon="20.9413303"><ele>3.0</ele><time>2026-04-30T14:25:09.855Z</time></trkpt><trkpt lat="38.675783" lon="20.9413168"><ele>2.6666666666666665</ele><time>2026-04-30T14:25:11.855Z</time></trkpt><trkpt lat="38.6758442" lon="20.9412952"><ele>2.333333333333333</ele><time>2026-04-30T14:25:56.856Z</time></trkpt><trkpt lat="38.6758747" lon="20.9412178"><ele>2.0</ele><time>2026-04-30T14:28:40.845Z</time></trkpt><trkpt lat="38.6758874" lon="20.9411267"><ele>2.0</ele><time>2026-04-30T14:28:44.797Z</time></trkpt><trkpt lat="38.6759191" lon="20.9410506"><ele>1.9999999999999998</ele><time>2026-04-30T14:28:51.845Z</time></trkpt><trkpt lat="38.6758617" lon="20.9409929"><ele>2.0</ele><time>2026-04-30T14:29:00.845Z</time></trkpt><trkpt lat="38.6759373" lon="20.9410418"><ele>2.0</ele><time>2026-04-30T14:33:01.848Z</time></trkpt><trkpt lat="38.6758898" lon="20.9409768"><ele>1.9999999999999998</ele><time>2026-04-30T14:38:07.851Z</time></trkpt><trkpt lat="38.6758776" lon="20.940893"><ele>2.0</ele><time>2026-04-30T14:38:09.852Z</time></trkpt><trkpt lat="38.675914" lon="20.9408022"><ele>2.0</ele><time>2026-04-30T14:38:10.851Z</time></trkpt><trkpt lat="38.6759576" lon="20.9407273"><ele>2.2</ele><time>2026-04-30T14:38:11.851Z</time></trkpt><trkpt lat="38.675999" lon="20.9406529"><ele>2.4000000000000004</ele><time>2026-04-30T14:38:12.851Z</time></trkpt><trkpt lat="38.6760393" lon="20.940588"><ele>2.5999999999999996</ele><time>2026-04-30T14:38:13.851Z</time></trkpt><trkpt lat="38.6761157" lon="20.9404806"><ele>2.8</ele><time>2026-04-30T14:38:15.851Z</time></trkpt><trkpt lat="38.6761904" lon="20.9403808"><ele>3.0</ele><time>2026-04-30T14:38:17.852Z</time></trkpt><trkpt lat="38.6762646" lon="20.9402781"><ele>3.0</ele><time>2026-04-30T14:38:19.851Z</time></trkpt><trkpt lat="38.6763434" lon="20.9401668"><ele>3.0</ele><time>2026-04-30T14:38:21.852Z</time></trkpt><trkpt lat="38.6764249" lon="20.9400524"><ele>3.0</ele><time>2026-04-30T14:38:23.852Z</time></trkpt><trkpt lat="38.6765045" lon="20.9399314"><ele>3.0</ele><time>2026-04-30T14:38:25.851Z</time></trkpt><trkpt lat="38.6765465" lon="20.9398585"><ele>3.0</ele><time>2026-04-30T14:38:26.852Z</time></trkpt><trkpt lat="38.676598" lon="20.9397722"><ele>3.0</ele><time>2026-04-30T14:38:27.852Z</time></trkpt><trkpt lat="38.6766558" lon="20.9396786"><ele>3.0</ele><time>2026-04-30T14:38:28.852Z</time></trkpt><trkpt lat="38.6767161" lon="20.9395885"><ele>3.0</ele><time>2026-04-30T14:38:29.851Z</time></trkpt><trkpt lat="38.6767749" lon="20.9395042"><ele>3.0</ele><time>2026-04-30T14:38:30.852Z</time></trkpt><trkpt lat="38.6768317" lon="20.9394158"><ele>3.0</ele><time>2026-04-30T14:38:31.851Z</time></trkpt><trkpt lat="38.6768869" lon="20.9393233"><ele>3.2</ele><time>2026-04-30T14:38:32.851Z</time></trkpt><trkpt lat="38.6769438" lon="20.9392267"><ele>3.4</ele><time>2026-04-30T14:38:33.851Z</time></trkpt><trkpt lat="38.6769958" lon="20.9391263"><ele>3.6000000000000005</ele><time>2026-04-30T14:38:34.852Z</time></trkpt><trkpt lat="38.6770445" lon="20.9390157"><ele>3.8000000000000003</ele><time>2026-04-30T14:38:35.852Z</time></trkpt><trkpt lat="38.6770868" lon="20.9388967"><ele>4.0</ele><time>2026-04-30T14:38:36.851Z</time></trkpt><trkpt lat="38.6771258" lon="20.938783"><ele>4.166666666666666</ele><time>2026-04-30T14:38:37.851Z</time></trkpt><trkpt lat="38.6771598" lon="20.9386712"><ele>4.333333333333333</ele><time>2026-04-30T14:38:38.851Z</time></trkpt><trkpt lat="38.6771918" lon="20.938561"><ele>4.5</ele><time>2026-04-30T14:38:39.852Z</time></trkpt><trkpt lat="38.6772211" lon="20.9384534"><ele>4.666666666666667</ele><time>2026-04-30T14:38:40.852Z</time></trkpt><trkpt lat="38.677252" lon="20.9383477"><ele>4.833333333333334</ele><time>2026-04-30T14:38:41.852Z</time></trkpt><trkpt lat="38.677281" lon="20.9382445"><ele>5.0</ele><time>2026-04-30T14:38:42.852Z</time></trkpt><trkpt lat="38.6773048" lon="20.9381345"><ele>5.0</ele><time>2026-04-30T14:38:43.851Z</time></trkpt><trkpt lat="38.6773312" lon="20.9380307"><ele>5.0</ele><time>2026-04-30T14:38:44.851Z</time></trkpt><trkpt lat="38.6773593" lon="20.9379144"><ele>5.0</ele><time>2026-04-30T14:38:45.852Z</time></trkpt><trkpt lat="38.677387" lon="20.9378072"><ele>5.0</ele><time>2026-04-30T14:38:46.851Z</time></trkpt><trkpt lat="38.6774161" lon="20.9377026"><ele>5.0</ele><time>2026-04-30T14:38:47.852Z</time></trkpt><trkpt lat="38.6774439" lon="20.9375969"><ele>5.0</ele><time>2026-04-30T14:38:48.852Z</time></trkpt><trkpt lat="38.6774745" lon="20.9375031"><ele>5.0</ele><time>2026-04-30T14:38:49.851Z</time></trkpt><trkpt lat="38.6774977" lon="20.9374052"><ele>5.0</ele><time>2026-04-30T14:38:50.852Z</time></trkpt><trkpt lat="38.6775249" lon="20.9373063"><ele>5.0</ele><time>2026-04-30T14:38:51.851Z</time></trkpt><trkpt lat="38.6775449" lon="20.9372141"><ele>5.0</ele><time>2026-04-30T14:38:52.852Z</time></trkpt><trkpt lat="38.6775625" lon="20.9371253"><ele>5.0</ele><time>2026-04-30T14:38:53.852Z</time></trkpt><trkpt lat="38.6775956" lon="20.9370257"><ele>5.0</ele><time>2026-04-30T14:38:54.851Z</time></trkpt><trkpt lat="38.6776226" lon="20.9369277"><ele>5.0</ele><time>2026-04-30T14:38:55.852Z</time></trkpt><trkpt lat="38.6776617" lon="20.9368352"><ele>5.0</ele><time>2026-04-30T14:38:56.852Z</time></trkpt><trkpt lat="38.6776892" lon="20.9367328"><ele>5.0</ele><time>2026-04-30T14:38:57.852Z</time></trkpt><trkpt lat="38.6777133" lon="20.9366414"><ele>5.0</ele><time>2026-04-30T14:38:58.852Z</time></trkpt><trkpt lat="38.6777477" lon="20.9365413"><ele>5.0</ele><time>2026-04-30T14:38:59.852Z</time></trkpt><trkpt lat="38.6777789" lon="20.9364376"><ele>5.0</ele><time>2026-04-30T14:39:00.852Z</time></trkpt><trkpt lat="38.677812" lon="20.9363169"><ele>5.0</ele><time>2026-04-30T14:39:01.851Z</time></trkpt><trkpt lat="38.6778436" lon="20.9361977"><ele>5.0</ele><time>2026-04-30T14:39:02.851Z</time></trkpt><trkpt lat="38.6778788" lon="20.9360801"><ele>5.0</ele><time>2026-04-30T14:39:03.852Z</time></trkpt><trkpt lat="38.6779039" lon="20.9359556"><ele>5.0</ele><time>2026-04-30T14:39:04.852Z</time></trkpt><trkpt lat="38.6779355" lon="20.9358456"><ele>5.0</ele><time>2026-04-30T14:39:05.852Z</time></trkpt><trkpt lat="38.6779697" lon="20.9357326"><ele>4.8</ele><time>2026-04-30T14:39:06.851Z</time></trkpt><trkpt lat="38.6779992" lon="20.9356137"><ele>4.6</ele><time>2026-04-30T14:39:07.852Z</time></trkpt><trkpt lat="38.6780299" lon="20.9354916"><ele>4.4</ele><time>2026-04-30T14:39:08.852Z</time></trkpt><trkpt lat="38.6780618" lon="20.9353789"><ele>4.2</ele><time>2026-04-30T14:39:09.852Z</time></trkpt><trkpt lat="38.6780849" lon="20.9352701"><ele>4.0</ele><time>2026-04-30T14:39:10.852Z</time></trkpt><trkpt lat="38.678108" lon="20.9351501"><ele>4.0</ele><time>2026-04-30T14:39:11.852Z</time></trkpt><trkpt lat="38.6781253" lon="20.9350325"><ele>4.0</ele><time>2026-04-30T14:39:12.851Z</time></trkpt><trkpt lat="38.6781396" lon="20.9349123"><ele>4.0</ele><time>2026-04-30T14:39:13.852Z</time></trkpt><trkpt lat="38.6781535" lon="20.9347938"><ele>4.0</ele><time>2026-04-30T14:39:14.852Z</time></trkpt><trkpt lat="38.6781654" lon="20.9346727"><ele>4.0</ele><time>2026-04-30T14:39:15.852Z</time></trkpt><trkpt lat="38.6781731" lon="20.9345563"><ele>3.9999999999999996</ele><time>2026-04-30T14:39:16.851Z</time></trkpt><trkpt lat="38.678182" lon="20.9344454"><ele>4.0</ele><time>2026-04-30T14:39:17.851Z</time></trkpt><trkpt lat="38.6781882" lon="20.9343305"><ele>4.0</ele><time>2026-04-30T14:39:18.852Z</time></trkpt><trkpt lat="38.6781984" lon="20.9342214"><ele>4.0</ele><time>2026-04-30T14:39:19.851Z</time></trkpt><trkpt lat="38.6782032" lon="20.9341151"><ele>3.9999999999999996</ele><time>2026-04-30T14:39:20.852Z</time></trkpt><trkpt lat="38.6782065" lon="20.9340107"><ele>4.0</ele><time>2026-04-30T14:39:21.851Z</time></trkpt><trkpt lat="38.6781916" lon="20.9339086"><ele>4.0</ele><time>2026-04-30T14:39:22.851Z</time></trkpt><trkpt lat="38.6782038" lon="20.9337922"><ele>4.0</ele><time>2026-04-30T14:39:23.851Z</time></trkpt><trkpt lat="38.6782058" lon="20.9336929"><ele>4.0</ele><time>2026-04-30T14:39:24.851Z</time></trkpt><trkpt lat="38.6782069" lon="20.9335808"><ele>4.0</ele><time>2026-04-30T14:39:25.852Z</time></trkpt><trkpt lat="38.6782086" lon="20.9334607"><ele>4.0</ele><time>2026-04-30T14:39:26.851Z</time></trkpt><trkpt lat="38.6782124" lon="20.9333324"><ele>4.0</ele><time>2026-04-30T14:39:27.851Z</time></trkpt><trkpt lat="38.6782188" lon="20.9332158"><ele>4.0</ele><time>2026-04-30T14:39:28.852Z</time></trkpt><trkpt lat="38.6782218" lon="20.933095"><ele>4.0</ele><time>2026-04-30T14:39:29.852Z</time></trkpt><trkpt lat="38.678232" lon="20.9329773"><ele>4.0</ele><time>2026-04-30T14:39:30.851Z</time></trkpt><trkpt lat="38.6782397" lon="20.932858"><ele>4.0</ele><time>2026-04-30T14:39:31.851Z</time></trkpt><trkpt lat="38.6782427" lon="20.9327276"><ele>4.0</ele><time>2026-04-30T14:39:32.852Z</time></trkpt><trkpt lat="38.6782418" lon="20.9325914"><ele>4.0</ele><time>2026-04-30T14:39:33.851Z</time></trkpt><trkpt lat="38.6782434" lon="20.9324453"><ele>4.0</ele><time>2026-04-30T14:39:34.852Z</time></trkpt><trkpt lat="38.6782531" lon="20.9322939"><ele>4.0</ele><time>2026-04-30T14:39:35.851Z</time></trkpt><trkpt lat="38.6782612" lon="20.9321373"><ele>4.25</ele><time>2026-04-30T14:39:36.851Z</time></trkpt><trkpt lat="38.6782517" lon="20.9319705"><ele>4.5</ele><time>2026-04-30T14:39:37.852Z</time></trkpt><trkpt lat="38.6782589" lon="20.931817"><ele>4.75</ele><time>2026-04-30T14:39:38.851Z</time></trkpt><trkpt lat="38.6782621" lon="20.9316595"><ele>5.0</ele><time>2026-04-30T14:39:39.852Z</time></trkpt><trkpt lat="38.6782659" lon="20.9314934"><ele>5.0</ele><time>2026-04-30T14:39:40.851Z</time></trkpt><trkpt lat="38.6782712" lon="20.9313299"><ele>5.0</ele><time>2026-04-30T14:39:41.851Z</time></trkpt><trkpt lat="38.6782622" lon="20.9311692"><ele>5.0</ele><time>2026-04-30T14:39:42.852Z</time></trkpt><trkpt lat="38.6782654" lon="20.9310043"><ele>5.0</ele><time>2026-04-30T14:39:43.852Z</time></trkpt><trkpt lat="38.6782494" lon="20.9308414"><ele>5.75</ele><time>2026-04-30T14:39:44.852Z</time></trkpt><trkpt lat="38.6782142" lon="20.9306912"><ele>6.5</ele><time>2026-04-30T14:39:45.851Z</time></trkpt><trkpt lat="38.6781631" lon="20.9305521"><ele>7.25</ele><time>2026-04-30T14:39:46.851Z</time></trkpt><trkpt lat="38.6780988" lon="20.9304259"><ele>8.0</ele><time>2026-04-30T14:39:47.851Z</time></trkpt><trkpt lat="38.6780264" lon="20.9303078"><ele>8.0</ele><time>2026-04-30T14:39:48.852Z</time></trkpt><trkpt lat="38.6779324" lon="20.9301918"><ele>8.0</ele><time>2026-04-30T14:39:49.852Z</time></trkpt><trkpt lat="38.6778396" lon="20.9300809"><ele>8.0</ele><time>2026-04-30T14:39:50.851Z</time></trkpt><trkpt lat="38.6777357" lon="20.9299761"><ele>8.0</ele><time>2026-04-30T14:39:51.852Z</time></trkpt><trkpt lat="38.6776254" lon="20.9298728"><ele>8.0</ele><time>2026-04-30T14:39:52.852Z</time></trkpt><trkpt lat="38.6775123" lon="20.9297701"><ele>8.0</ele><time>2026-04-30T14:39:53.852Z</time></trkpt><trkpt lat="38.6774078" lon="20.9296577"><ele>8.0</ele><time>2026-04-30T14:39:54.851Z</time></trkpt><trkpt lat="38.6772968" lon="20.9295427"><ele>8.0</ele><time>2026-04-30T14:39:55.852Z</time></trkpt><trkpt lat="38.6771802" lon="20.9294291"><ele>8.0</ele><time>2026-04-30T14:39:56.852Z</time></trkpt><trkpt lat="38.6770685" lon="20.9293152"><ele>8.0</ele><time>2026-04-30T14:39:57.851Z</time></trkpt><trkpt lat="38.6769533" lon="20.9291937"><ele>8.0</ele><time>2026-04-30T14:39:58.852Z</time></trkpt><trkpt lat="38.6768366" lon="20.929077"><ele>8.0</ele><time>2026-04-30T14:39:59.852Z</time></trkpt><trkpt lat="38.6767169" lon="20.9289594"><ele>8.5</ele><time>2026-04-30T14:40:00.851Z</time></trkpt><trkpt lat="38.6765988" lon="20.9288533"><ele>9.0</ele><time>2026-04-30T14:40:01.852Z</time></trkpt><trkpt lat="38.6764734" lon="20.9287553"><ele>9.5</ele><time>2026-04-30T14:40:02.851Z</time></trkpt><trkpt lat="38.6763478" lon="20.9286826"><ele>10.0</ele><time>2026-04-30T14:40:03.851Z</time></trkpt><trkpt lat="38.676216" lon="20.9286229"><ele>8.75</ele><time>2026-04-30T14:40:04.851Z</time></trkpt><trkpt lat="38.6760732" lon="20.928571"><ele>7.5</ele><time>2026-04-30T14:40:05.851Z</time></trkpt><trkpt lat="38.6759325" lon="20.9285236"><ele>6.25</ele><time>2026-04-30T14:40:06.851Z</time></trkpt><trkpt lat="38.675796" lon="20.9284751"><ele>5.0</ele><time>2026-04-30T14:40:07.852Z</time></trkpt><trkpt lat="38.6756551" lon="20.9284162"><ele>5.5</ele><time>2026-04-30T14:40:08.851Z</time></trkpt><trkpt lat="38.6755103" lon="20.9283663"><ele>6.0</ele><time>2026-04-30T14:40:09.852Z</time></trkpt><trkpt lat="38.6753831" lon="20.9282794"><ele>6.5</ele><time>2026-04-30T14:40:10.852Z</time></trkpt><trkpt lat="38.6752588" lon="20.9281842"><ele>7.0</ele><time>2026-04-30T14:40:11.852Z</time></trkpt><trkpt lat="38.675136" lon="20.9280849"><ele>7.0</ele><time>2026-04-30T14:40:12.851Z</time></trkpt><trkpt lat="38.6750193" lon="20.9279754"><ele>7.0</ele><time>2026-04-30T14:40:13.852Z</time></trkpt><trkpt lat="38.6748942" lon="20.9278537"><ele>7.0</ele><time>2026-04-30T14:40:14.852Z</time></trkpt><trkpt lat="38.6747701" lon="20.9277385"><ele>7.0</ele><time>2026-04-30T14:40:15.852Z</time></trkpt><trkpt lat="38.6746445" lon="20.9276172"><ele>7.0</ele><time>2026-04-30T14:40:16.852Z</time></trkpt><trkpt lat="38.6745248" lon="20.927499"><ele>7.0</ele><time>2026-04-30T14:40:17.852Z</time></trkpt><trkpt lat="38.6744065" lon="20.9273831"><ele>5.333333333333334</ele><time>2026-04-30T14:40:18.851Z</time></trkpt><trkpt lat="38.6742826" lon="20.9272679"><ele>3.666666666666667</ele><time>2026-04-30T14:40:19.851Z</time></trkpt><trkpt lat="38.6741642" lon="20.92715"><ele>2.0</ele><time>2026-04-30T14:40:20.851Z</time></trkpt><trkpt lat="38.6740417" lon="20.9270329"><ele>2.0</ele><time>2026-04-30T14:40:21.852Z</time></trkpt><trkpt lat="38.6739272" lon="20.9269135"><ele>2.0</ele><time>2026-04-30T14:40:22.851Z</time></trkpt><trkpt lat="38.6738117" lon="20.9267937"><ele>2.0</ele><time>2026-04-30T14:40:23.851Z</time></trkpt><trkpt lat="38.6736924" lon="20.9266733"><ele>2.0</ele><time>2026-04-30T14:40:24.852Z</time></trkpt><trkpt lat="38.6735728" lon="20.9265571"><ele>1.75</ele><time>2026-04-30T14:40:25.852Z</time></trkpt><trkpt lat="38.673451" lon="20.9264426"><ele>1.5</ele><time>2026-04-30T14:40:26.852Z</time></trkpt><trkpt lat="38.673336" lon="20.9263289"><ele>1.25</ele><time>2026-04-30T14:40:27.852Z</time></trkpt><trkpt lat="38.6732263" lon="20.9262169"><ele>1.0</ele><time>2026-04-30T14:40:28.852Z</time></trkpt><trkpt lat="38.6731191" lon="20.9260973"><ele>1.0</ele><time>2026-04-30T14:40:29.852Z</time></trkpt><trkpt lat="38.6730221" lon="20.9259756"><ele>1.0</ele><time>2026-04-30T14:40:30.852Z</time></trkpt><trkpt lat="38.6729254" lon="20.9258362"><ele>1.0</ele><time>2026-04-30T14:40:31.851Z</time></trkpt><trkpt lat="38.6728308" lon="20.9256887"><ele>1.0</ele><time>2026-04-30T14:40:32.852Z</time></trkpt><trkpt lat="38.6727419" lon="20.9255421"><ele>1.75</ele><time>2026-04-30T14:40:33.851Z</time></trkpt><trkpt lat="38.6726587" lon="20.925389"><ele>2.5</ele><time>2026-04-30T14:40:34.852Z</time></trkpt><trkpt lat="38.6725816" lon="20.9252369"><ele>3.25</ele><time>2026-04-30T14:40:35.851Z</time></trkpt><trkpt lat="38.6724986" lon="20.9250862"><ele>4.0</ele><time>2026-04-30T14:40:36.852Z</time></trkpt><trkpt lat="38.6724215" lon="20.9249278"><ele>8.5</ele><time>2026-04-30T14:40:37.852Z</time></trkpt><trkpt lat="38.6723466" lon="20.9247761"><ele>13.0</ele><time>2026-04-30T14:40:38.851Z</time></trkpt><trkpt lat="38.6722714" lon="20.9246182"><ele>17.5</ele><time>2026-04-30T14:40:39.852Z</time></trkpt><trkpt lat="38.672201" lon="20.9244624"><ele>22.0</ele><time>2026-04-30T14:40:40.852Z</time></trkpt><trkpt lat="38.6721259" lon="20.9243083"><ele>21.25</ele><time>2026-04-30T14:40:41.852Z</time></trkpt><trkpt lat="38.6720412" lon="20.9241551"><ele>20.5</ele><time>2026-04-30T14:40:42.851Z</time></trkpt><trkpt lat="38.6719536" lon="20.9240151"><ele>19.75</ele><time>2026-04-30T14:40:43.851Z</time></trkpt><trkpt lat="38.6718592" lon="20.9238836"><ele>19.0</ele><time>2026-04-30T14:40:44.852Z</time></trkpt><trkpt lat="38.6717655" lon="20.9237503"><ele>19.0</ele><time>2026-04-30T14:40:45.852Z</time></trkpt><trkpt lat="38.6716689" lon="20.9236048"><ele>19.0</ele><time>2026-04-30T14:40:46.852Z</time></trkpt><trkpt lat="38.6715637" lon="20.9234794"><ele>19.0</ele><time>2026-04-30T14:40:47.851Z</time></trkpt><trkpt lat="38.6714604" lon="20.9233565"><ele>19.0</ele><time>2026-04-30T14:40:48.851Z</time></trkpt><trkpt lat="38.6713557" lon="20.9232281"><ele>17.0</ele><time>2026-04-30T14:40:49.852Z</time></trkpt><trkpt lat="38.6712564" lon="20.9231048"><ele>15.0</ele><time>2026-04-30T14:40:50.851Z</time></trkpt><trkpt lat="38.6711512" lon="20.9229838"><ele>13.0</ele><time>2026-04-30T14:40:51.852Z</time></trkpt><trkpt lat="38.6710552" lon="20.9228562"><ele>11.0</ele><time>2026-04-30T14:40:52.851Z</time></trkpt><trkpt lat="38.6709538" lon="20.9227362"><ele>11.0</ele><time>2026-04-30T14:40:53.852Z</time></trkpt><trkpt lat="38.6708656" lon="20.9226216"><ele>11.0</ele><time>2026-04-30T14:40:54.852Z</time></trkpt><trkpt lat="38.6707696" lon="20.9225202"><ele>11.0</ele><time>2026-04-30T14:40:55.852Z</time></trkpt><trkpt lat="38.6706774" lon="20.9224146"><ele>11.0</ele><time>2026-04-30T14:40:56.852Z</time></trkpt><trkpt lat="38.670599" lon="20.9223154"><ele>12.0</ele><time>2026-04-30T14:40:57.851Z</time></trkpt><trkpt lat="38.6705429" lon="20.9222075"><ele>13.0</ele><time>2026-04-30T14:40:58.851Z</time></trkpt><trkpt lat="38.6704965" lon="20.9220824"><ele>14.000000000000002</ele><time>2026-04-30T14:40:59.851Z</time></trkpt><trkpt lat="38.6704841" lon="20.9219502"><ele>15.0</ele><time>2026-04-30T14:41:00.852Z</time></trkpt><trkpt lat="38.6704741" lon="20.9218229"><ele>16.0</ele><time>2026-04-30T14:41:01.849Z</time></trkpt><trkpt lat="38.6705938" lon="20.921701"><ele>16.0</ele><time>2026-04-30T14:41:02.851Z</time></trkpt><trkpt lat="38.6706628" lon="20.9215864"><ele>16.0</ele><time>2026-04-30T14:41:03.851Z</time></trkpt><trkpt lat="38.6707474" lon="20.9214758"><ele>16.0</ele><time>2026-04-30T14:41:04.852Z</time></trkpt><trkpt lat="38.6708232" lon="20.9213407"><ele>16.0</ele><time>2026-04-30T14:41:05.851Z</time></trkpt><trkpt lat="38.6708814" lon="20.9211923"><ele>16.0</ele><time>2026-04-30T14:41:06.852Z</time></trkpt><trkpt lat="38.6709123" lon="20.9210097"><ele>16.0</ele><time>2026-04-30T14:41:07.852Z</time></trkpt><trkpt lat="38.6709456" lon="20.9208176"><ele>16.0</ele><time>2026-04-30T14:41:08.852Z</time></trkpt><trkpt lat="38.6709703" lon="20.920633"><ele>16.0</ele><time>2026-04-30T14:41:09.851Z</time></trkpt><trkpt lat="38.6710008" lon="20.9204537"><ele>14.75</ele><time>2026-04-30T14:41:10.851Z</time></trkpt><trkpt lat="38.6710387" lon="20.9202712"><ele>13.5</ele><time>2026-04-30T14:41:11.851Z</time></trkpt><trkpt lat="38.6710729" lon="20.9200956"><ele>12.25</ele><time>2026-04-30T14:41:12.851Z</time></trkpt><trkpt lat="38.671144" lon="20.9199368"><ele>11.0</ele><time>2026-04-30T14:41:13.851Z</time></trkpt><trkpt lat="38.6712271" lon="20.9197709"><ele>18.0</ele><time>2026-04-30T14:41:14.852Z</time></trkpt><trkpt lat="38.6713281" lon="20.9196053"><ele>25.0</ele><time>2026-04-30T14:41:15.851Z</time></trkpt><trkpt lat="38.671438" lon="20.9194461"><ele>32.0</ele><time>2026-04-30T14:41:16.851Z</time></trkpt><trkpt lat="38.6715469" lon="20.9192861"><ele>25.333333333333332</ele><time>2026-04-30T14:41:17.852Z</time></trkpt><trkpt lat="38.6716557" lon="20.9191298"><ele>18.666666666666664</ele><time>2026-04-30T14:41:18.851Z</time></trkpt><trkpt lat="38.6717656" lon="20.9189679"><ele>12.0</ele><time>2026-04-30T14:41:19.852Z</time></trkpt><trkpt lat="38.6718638" lon="20.9188005"><ele>14.333333333333332</ele><time>2026-04-30T14:41:20.852Z</time></trkpt><trkpt lat="38.6719518" lon="20.9186266"><ele>16.666666666666664</ele><time>2026-04-30T14:41:21.851Z</time></trkpt><trkpt lat="38.6720343" lon="20.9184448"><ele>19.0</ele><time>2026-04-30T14:41:22.851Z</time></trkpt><trkpt lat="38.6721096" lon="20.9182596"><ele>19.0</ele><time>2026-04-30T14:41:23.851Z</time></trkpt><trkpt lat="38.6721942" lon="20.9180754"><ele>19.0</ele><time>2026-04-30T14:41:24.852Z</time></trkpt><trkpt lat="38.6722847" lon="20.9178925"><ele>19.0</ele><time>2026-04-30T14:41:25.852Z</time></trkpt><trkpt lat="38.6723775" lon="20.9177171"><ele>16.0</ele><time>2026-04-30T14:41:26.852Z</time></trkpt><trkpt lat="38.6724802" lon="20.9175539"><ele>13.0</ele><time>2026-04-30T14:41:27.851Z</time></trkpt><trkpt lat="38.6726085" lon="20.9174033"><ele>10.0</ele><time>2026-04-30T14:41:28.852Z</time></trkpt><trkpt lat="38.672741" lon="20.91727"><ele>13.0</ele><time>2026-04-30T14:41:29.852Z</time></trkpt><trkpt lat="38.6728786" lon="20.9171275"><ele>16.0</ele><time>2026-04-30T14:41:30.851Z</time></trkpt><trkpt lat="38.6730313" lon="20.9169892"><ele>19.0</ele><time>2026-04-30T14:41:31.85Z</time></trkpt><trkpt lat="38.6731844" lon="20.9168626"><ele>18.0</ele><time>2026-04-30T14:41:32.852Z</time></trkpt><trkpt lat="38.6733393" lon="20.916727"><ele>17.0</ele><time>2026-04-30T14:41:33.852Z</time></trkpt><trkpt lat="38.6734941" lon="20.9166011"><ele>16.0</ele><time>2026-04-30T14:41:34.852Z</time></trkpt><trkpt lat="38.673647" lon="20.9164772"><ele>16.0</ele><time>2026-04-30T14:41:35.85Z</time></trkpt><trkpt lat="38.6737962" lon="20.9163583"><ele>16.0</ele><time>2026-04-30T14:41:36.852Z</time></trkpt><trkpt lat="38.673944" lon="20.9162475"><ele>16.0</ele><time>2026-04-30T14:41:37.851Z</time></trkpt><trkpt lat="38.6740894" lon="20.9161366"><ele>16.0</ele><time>2026-04-30T14:41:38.852Z</time></trkpt><trkpt lat="38.6742446" lon="20.9160341"><ele>16.0</ele><time>2026-04-30T14:41:39.851Z</time></trkpt><trkpt lat="38.6744071" lon="20.9159401"><ele>16.0</ele><time>2026-04-30T14:41:40.851Z</time></trkpt><trkpt lat="38.6745708" lon="20.9158852"><ele>14.0</ele><time>2026-04-30T14:41:41.852Z</time></trkpt><trkpt lat="38.6747318" lon="20.9158347"><ele>12.0</ele><time>2026-04-30T14:41:42.851Z</time></trkpt><trkpt lat="38.6749028" lon="20.9157886"><ele>10.0</ele><time>2026-04-30T14:41:43.851Z</time></trkpt><trkpt lat="38.6750694" lon="20.9157579"><ele>10.0</ele><time>2026-04-30T14:41:44.852Z</time></trkpt><trkpt lat="38.6752297" lon="20.9157342"><ele>10.0</ele><time>2026-04-30T14:41:45.852Z</time></trkpt><trkpt lat="38.6753999" lon="20.9156974"><ele>10.0</ele><time>2026-04-30T14:41:46.851Z</time></trkpt><trkpt lat="38.6755733" lon="20.9156649"><ele>12.333333333333334</ele><time>2026-04-30T14:41:47.852Z</time></trkpt><trkpt lat="38.6757423" lon="20.915641"><ele>14.666666666666668</ele><time>2026-04-30T14:41:48.852Z</time></trkpt><trkpt lat="38.6759094" lon="20.9156174"><ele>17.0</ele><time>2026-04-30T14:41:49.851Z</time></trkpt><trkpt lat="38.6760774" lon="20.9155948"><ele>18.666666666666668</ele><time>2026-04-30T14:41:50.851Z</time></trkpt><trkpt lat="38.6762485" lon="20.9155637"><ele>20.333333333333332</ele><time>2026-04-30T14:41:51.852Z</time></trkpt><trkpt lat="38.6764155" lon="20.915535"><ele>22.0</ele><time>2026-04-30T14:41:52.852Z</time></trkpt><trkpt lat="38.6765813" lon="20.9155004"><ele>22.0</ele><time>2026-04-30T14:41:53.851Z</time></trkpt><trkpt lat="38.6767504" lon="20.9154731"><ele>22.0</ele><time>2026-04-30T14:41:54.852Z</time></trkpt><trkpt lat="38.6769158" lon="20.9154374"><ele>22.0</ele><time>2026-04-30T14:41:55.852Z</time></trkpt><trkpt lat="38.6770733" lon="20.9154045"><ele>24.0</ele><time>2026-04-30T14:41:56.852Z</time></trkpt><trkpt lat="38.6772356" lon="20.9153633"><ele>26.0</ele><time>2026-04-30T14:41:57.851Z</time></trkpt><trkpt lat="38.6773945" lon="20.9153286"><ele>28.0</ele><time>2026-04-30T14:41:58.852Z</time></trkpt><trkpt lat="38.6775607" lon="20.9152958"><ele>28.0</ele><time>2026-04-30T14:41:59.851Z</time></trkpt><trkpt lat="38.6777334" lon="20.915283"><ele>28.0</ele><time>2026-04-30T14:42:00.852Z</time></trkpt><trkpt lat="38.6778998" lon="20.9152816"><ele>28.0</ele><time>2026-04-30T14:42:01.852Z</time></trkpt><trkpt lat="38.678069" lon="20.9152954"><ele>30.666666666666668</ele><time>2026-04-30T14:42:02.852Z</time></trkpt><trkpt lat="38.6782379" lon="20.9153089"><ele>33.333333333333336</ele><time>2026-04-30T14:42:03.851Z</time></trkpt><trkpt lat="38.6784052" lon="20.9153259"><ele>36.0</ele><time>2026-04-30T14:42:04.851Z</time></trkpt><trkpt lat="38.6785789" lon="20.9153339"><ele>36.0</ele><time>2026-04-30T14:42:05.851Z</time></trkpt><trkpt lat="38.6787484" lon="20.915348"><ele>36.0</ele><time>2026-04-30T14:42:06.851Z</time></trkpt><trkpt lat="38.6789114" lon="20.9153463"><ele>36.0</ele><time>2026-04-30T14:42:07.851Z</time></trkpt><trkpt lat="38.6790687" lon="20.9153075"><ele>36.0</ele><time>2026-04-30T14:42:08.852Z</time></trkpt><trkpt lat="38.6792285" lon="20.915227"><ele>36.0</ele><time>2026-04-30T14:42:09.851Z</time></trkpt><trkpt lat="38.6793757" lon="20.9151142"><ele>36.0</ele><time>2026-04-30T14:42:10.851Z</time></trkpt><trkpt lat="38.6795233" lon="20.914985"><ele>36.333333333333336</ele><time>2026-04-30T14:42:11.852Z</time></trkpt><trkpt lat="38.6796622" lon="20.9148526"><ele>36.66666666666667</ele><time>2026-04-30T14:42:12.852Z</time></trkpt><trkpt lat="38.6798042" lon="20.9147175"><ele>37.0</ele><time>2026-04-30T14:42:13.852Z</time></trkpt><trkpt lat="38.6799415" lon="20.9146014"><ele>37.0</ele><time>2026-04-30T14:42:14.851Z</time></trkpt><trkpt lat="38.6800926" lon="20.9144671"><ele>37.0</ele><time>2026-04-30T14:42:15.852Z</time></trkpt><trkpt lat="38.6802446" lon="20.9143507"><ele>37.0</ele><time>2026-04-30T14:42:16.852Z</time></trkpt><trkpt lat="38.6803924" lon="20.9142292"><ele>32.66666666666667</ele><time>2026-04-30T14:42:17.851Z</time></trkpt><trkpt lat="38.6805421" lon="20.9141022"><ele>28.333333333333336</ele><time>2026-04-30T14:42:18.851Z</time></trkpt><trkpt lat="38.6806865" lon="20.9139653"><ele>24.0</ele><time>2026-04-30T14:42:19.852Z</time></trkpt><trkpt lat="38.6808209" lon="20.9138135"><ele>24.0</ele><time>2026-04-30T14:42:20.851Z</time></trkpt><trkpt lat="38.6809634" lon="20.913657"><ele>24.0</ele><time>2026-04-30T14:42:21.851Z</time></trkpt><trkpt lat="38.6811026" lon="20.9135045"><ele>24.0</ele><time>2026-04-30T14:42:22.852Z</time></trkpt><trkpt lat="38.6812563" lon="20.9133409"><ele>28.333333333333336</ele><time>2026-04-30T14:42:23.852Z</time></trkpt><trkpt lat="38.6813992" lon="20.9131865"><ele>32.66666666666667</ele><time>2026-04-30T14:42:24.852Z</time></trkpt><trkpt lat="38.6815361" lon="20.9130293"><ele>37.0</ele><time>2026-04-30T14:42:25.852Z</time></trkpt><trkpt lat="38.6816823" lon="20.9128882"><ele>37.0</ele><time>2026-04-30T14:42:26.851Z</time></trkpt><trkpt lat="38.6818313" lon="20.9127486"><ele>37.0</ele><time>2026-04-30T14:42:27.851Z</time></trkpt><trkpt lat="38.6819844" lon="20.9126333"><ele>37.0</ele><time>2026-04-30T14:42:28.852Z</time></trkpt><trkpt lat="38.6821483" lon="20.9125345"><ele>35.66666666666667</ele><time>2026-04-30T14:42:29.851Z</time></trkpt><trkpt lat="38.6823045" lon="20.9124456"><ele>34.333333333333336</ele><time>2026-04-30T14:42:30.851Z</time></trkpt><trkpt lat="38.6824569" lon="20.9123495"><ele>33.0</ele><time>2026-04-30T14:42:31.852Z</time></trkpt><trkpt lat="38.6826171" lon="20.9122571"><ele>42.0</ele><time>2026-04-30T14:42:32.851Z</time></trkpt><trkpt lat="38.68277" lon="20.9121495"><ele>51.0</ele><time>2026-04-30T14:42:33.852Z</time></trkpt><trkpt lat="38.6829112" lon="20.9120378"><ele>60.0</ele><time>2026-04-30T14:42:34.852Z</time></trkpt><trkpt lat="38.6830435" lon="20.9119058"><ele>60.0</ele><time>2026-04-30T14:42:35.852Z</time></trkpt><trkpt lat="38.6831733" lon="20.9117694"><ele>60.0</ele><time>2026-04-30T14:42:36.852Z</time></trkpt><trkpt lat="38.6833002" lon="20.9116264"><ele>60.0</ele><time>2026-04-30T14:42:37.852Z</time></trkpt><trkpt lat="38.6834283" lon="20.9114752"><ele>57.66666666666667</ele><time>2026-04-30T14:42:38.851Z</time></trkpt><trkpt lat="38.6835487" lon="20.9113242"><ele>55.333333333333336</ele><time>2026-04-30T14:42:39.851Z</time></trkpt><trkpt lat="38.6836628" lon="20.9111817"><ele>53.0</ele><time>2026-04-30T14:42:40.852Z</time></trkpt><trkpt lat="38.6837813" lon="20.911047"><ele>53.0</ele><time>2026-04-30T14:42:41.852Z</time></trkpt><trkpt lat="38.6839094" lon="20.9109249"><ele>53.0</ele><time>2026-04-30T14:42:42.852Z</time></trkpt><trkpt lat="38.6840494" lon="20.9108187"><ele>53.0</ele><time>2026-04-30T14:42:43.852Z</time></trkpt><trkpt lat="38.6842011" lon="20.910728"><ele>46.333333333333336</ele><time>2026-04-30T14:42:44.852Z</time></trkpt><trkpt lat="38.6843584" lon="20.9106456"><ele>39.66666666666667</ele><time>2026-04-30T14:42:45.852Z</time></trkpt><trkpt lat="38.6845114" lon="20.9105666"><ele>33.0</ele><time>2026-04-30T14:42:46.852Z</time></trkpt><trkpt lat="38.6846662" lon="20.910501"><ele>33.0</ele><time>2026-04-30T14:42:47.852Z</time></trkpt><trkpt lat="38.6848232" lon="20.9104487"><ele>33.0</ele><time>2026-04-30T14:42:48.851Z</time></trkpt><trkpt lat="38.6849734" lon="20.9104077"><ele>33.0</ele><time>2026-04-30T14:42:49.851Z</time></trkpt><trkpt lat="38.6851211" lon="20.9103671"><ele>33.0</ele><time>2026-04-30T14:42:50.851Z</time></trkpt><trkpt lat="38.6852581" lon="20.9103121"><ele>33.0</ele><time>2026-04-30T14:42:51.851Z</time></trkpt><trkpt lat="38.6853841" lon="20.9102342"><ele>33.0</ele><time>2026-04-30T14:42:52.852Z</time></trkpt><trkpt lat="38.685499" lon="20.9101188"><ele>33.0</ele><time>2026-04-30T14:42:53.852Z</time></trkpt><trkpt lat="38.6855978" lon="20.9099789"><ele>30.25</ele><time>2026-04-30T14:42:54.85Z</time></trkpt><trkpt lat="38.6856925" lon="20.9098269"><ele>27.5</ele><time>2026-04-30T14:42:55.851Z</time></trkpt><trkpt lat="38.6857812" lon="20.909682"><ele>24.75</ele><time>2026-04-30T14:42:56.852Z</time></trkpt><trkpt lat="38.6858749" lon="20.9095491"><ele>22.0</ele><time>2026-04-30T14:42:57.851Z</time></trkpt><trkpt lat="38.6859817" lon="20.9094249"><ele>24.333333333333332</ele><time>2026-04-30T14:42:58.851Z</time></trkpt><trkpt lat="38.6861006" lon="20.9093169"><ele>26.666666666666664</ele><time>2026-04-30T14:42:59.852Z</time></trkpt><trkpt lat="38.6862392" lon="20.9092223"><ele>29.0</ele><time>2026-04-30T14:43:00.851Z</time></trkpt><trkpt lat="38.686382" lon="20.9091337"><ele>29.0</ele><time>2026-04-30T14:43:01.852Z</time></trkpt><trkpt lat="38.6865301" lon="20.9090435"><ele>29.0</ele><time>2026-04-30T14:43:02.852Z</time></trkpt><trkpt lat="38.6866795" lon="20.9089503"><ele>29.0</ele><time>2026-04-30T14:43:03.851Z</time></trkpt><trkpt lat="38.6868322" lon="20.9088486"><ele>35.0</ele><time>2026-04-30T14:43:04.851Z</time></trkpt><trkpt lat="38.6869788" lon="20.9087484"><ele>41.0</ele><time>2026-04-30T14:43:05.851Z</time></trkpt><trkpt lat="38.6871241" lon="20.9086384"><ele>47.0</ele><time>2026-04-30T14:43:06.852Z</time></trkpt><trkpt lat="38.6872529" lon="20.9085276"><ele>38.666666666666664</ele><time>2026-04-30T14:43:07.852Z</time></trkpt><trkpt lat="38.6873635" lon="20.9084008"><ele>30.333333333333332</ele><time>2026-04-30T14:43:08.852Z</time></trkpt><trkpt lat="38.6874592" lon="20.9082487"><ele>22.0</ele><time>2026-04-30T14:43:09.851Z</time></trkpt><trkpt lat="38.6875462" lon="20.9080932"><ele>22.0</ele><time>2026-04-30T14:43:10.852Z</time></trkpt><trkpt lat="38.6876267" lon="20.9079537"><ele>22.0</ele><time>2026-04-30T14:43:11.851Z</time></trkpt><trkpt lat="38.6877182" lon="20.9078245"><ele>22.0</ele><time>2026-04-30T14:43:12.852Z</time></trkpt><trkpt lat="38.6878254" lon="20.9077222"><ele>22.0</ele><time>2026-04-30T14:43:13.851Z</time></trkpt><trkpt lat="38.6879484" lon="20.9076469"><ele>20.5</ele><time>2026-04-30T14:43:14.852Z</time></trkpt><trkpt lat="38.6880863" lon="20.9075971"><ele>19.0</ele><time>2026-04-30T14:43:15.851Z</time></trkpt><trkpt lat="38.6882297" lon="20.9075451"><ele>17.5</ele><time>2026-04-30T14:43:16.852Z</time></trkpt><trkpt lat="38.6883743" lon="20.9074964"><ele>16.0</ele><time>2026-04-30T14:43:17.851Z</time></trkpt><trkpt lat="38.6885205" lon="20.9074399"><ele>21.333333333333332</ele><time>2026-04-30T14:43:18.852Z</time></trkpt><trkpt lat="38.6886574" lon="20.907354"><ele>26.666666666666664</ele><time>2026-04-30T14:43:19.851Z</time></trkpt><trkpt lat="38.6887795" lon="20.9072347"><ele>32.0</ele><time>2026-04-30T14:43:20.851Z</time></trkpt><trkpt lat="38.6889043" lon="20.9070983"><ele>32.0</ele><time>2026-04-30T14:43:21.852Z</time></trkpt><trkpt lat="38.6890225" lon="20.906963"><ele>32.0</ele><time>2026-04-30T14:43:22.851Z</time></trkpt><trkpt lat="38.6891408" lon="20.906844"><ele>32.0</ele><time>2026-04-30T14:43:23.852Z</time></trkpt><trkpt lat="38.6892645" lon="20.9067187"><ele>27.333333333333332</ele><time>2026-04-30T14:43:24.852Z</time></trkpt><trkpt lat="38.6893869" lon="20.9066107"><ele>22.666666666666664</ele><time>2026-04-30T14:43:25.852Z</time></trkpt><trkpt lat="38.6895199" lon="20.906522"><ele>18.0</ele><time>2026-04-30T14:43:26.851Z</time></trkpt><trkpt lat="38.6896632" lon="20.9064583"><ele>18.0</ele><time>2026-04-30T14:43:27.851Z</time></trkpt><trkpt lat="38.689818" lon="20.90641"><ele>18.0</ele><time>2026-04-30T14:43:28.852Z</time></trkpt><trkpt lat="38.6899711" lon="20.9063889"><ele>18.0</ele><time>2026-04-30T14:43:29.851Z</time></trkpt><trkpt lat="38.6901278" lon="20.9063949"><ele>15.333333333333334</ele><time>2026-04-30T14:43:30.851Z</time></trkpt><trkpt lat="38.6902753" lon="20.9064578"><ele>12.666666666666668</ele><time>2026-04-30T14:43:31.852Z</time></trkpt><trkpt lat="38.6904145" lon="20.9065346"><ele>10.0</ele><time>2026-04-30T14:43:32.851Z</time></trkpt><trkpt lat="38.6905443" lon="20.9066406"><ele>10.0</ele><time>2026-04-30T14:43:33.852Z</time></trkpt><trkpt lat="38.6906726" lon="20.9067423"><ele>10.0</ele><time>2026-04-30T14:43:34.852Z</time></trkpt><trkpt lat="38.690804" lon="20.9068506"><ele>10.0</ele><time>2026-04-30T14:43:35.852Z</time></trkpt><trkpt lat="38.6909313" lon="20.9069552"><ele>13.0</ele><time>2026-04-30T14:43:36.852Z</time></trkpt><trkpt lat="38.6910538" lon="20.9070456"><ele>16.0</ele><time>2026-04-30T14:43:37.852Z</time></trkpt><trkpt lat="38.691171" lon="20.9071001"><ele>19.0</ele><time>2026-04-30T14:43:38.852Z</time></trkpt><trkpt lat="38.6913103" lon="20.9071343"><ele>22.0</ele><time>2026-04-30T14:43:39.851Z</time></trkpt><trkpt lat="38.6914402" lon="20.9071205"><ele>22.0</ele><time>2026-04-30T14:43:40.851Z</time></trkpt><trkpt lat="38.6915688" lon="20.9070902"><ele>22.0</ele><time>2026-04-30T14:43:41.851Z</time></trkpt><trkpt lat="38.6916886" lon="20.9070366"><ele>22.0</ele><time>2026-04-30T14:43:42.851Z</time></trkpt><trkpt lat="38.6917955" lon="20.9069639"><ele>22.0</ele><time>2026-04-30T14:43:43.851Z</time></trkpt><trkpt lat="38.6918841" lon="20.9068624"><ele>20.0</ele><time>2026-04-30T14:43:44.852Z</time></trkpt><trkpt lat="38.6919372" lon="20.9067217"><ele>18.0</ele><time>2026-04-30T14:43:45.852Z</time></trkpt><trkpt lat="38.6919581" lon="20.9065744"><ele>16.0</ele><time>2026-04-30T14:43:46.852Z</time></trkpt><trkpt lat="38.6882297" lon="20.9075451"><ele>16.0</ele><time>2026-04-30T14:43:16.852Z</time></trkpt><trkpt lat="38.6883743" lon="20.9074964"><ele>16.0</ele><time>2026-04-30T14:43:17.851Z</time></trkpt><trkpt lat="38.6885205" lon="20.9074399"><ele>16.0</ele><time>2026-04-30T14:43:18.852Z</time></trkpt><trkpt lat="38.6886574" lon="20.907354"><ele>21.333333333333332</ele><time>2026-04-30T14:43:19.851Z</time></trkpt><trkpt lat="38.6887795" lon="20.9072347"><ele>26.666666666666664</ele><time>2026-04-30T14:43:20.851Z</time></trkpt><trkpt lat="38.6889043" lon="20.9070983"><ele>32.0</ele><time>2026-04-30T14:43:21.852Z</time></trkpt><trkpt lat="38.6890225" lon="20.906963"><ele>32.0</ele><time>2026-04-30T14:43:22.851Z</time></trkpt><trkpt lat="38.6891408" lon="20.906844"><ele>32.0</ele><time>2026-04-30T14:43:23.852Z</time></trkpt><trkpt lat="38.6892645" lon="20.9067187"><ele>32.0</ele><time>2026-04-30T14:43:24.852Z</time></trkpt><trkpt lat="38.6893869" lon="20.9066107"><ele>27.333333333333332</ele><time>2026-04-30T14:43:25.852Z</time></trkpt><trkpt lat="38.6895199" lon="20.906522"><ele>22.666666666666664</ele><time>2026-04-30T14:43:26.851Z</time></trkpt><trkpt lat="38.6896632" lon="20.9064583"><ele>18.0</ele><time>2026-04-30T14:43:27.851Z</time></trkpt><trkpt lat="38.689818" lon="20.90641"><ele>18.0</ele><time>2026-04-30T14:43:28.852Z</time></trkpt><trkpt lat="38.6899711" lon="20.9063889"><ele>18.0</ele><time>2026-04-30T14:43:29.851Z</time></trkpt><trkpt lat="38.6901278" lon="20.9063949"><ele>18.0</ele><time>2026-04-30T14:43:30.851Z</time></trkpt><trkpt lat="38.6902753" lon="20.9064578"><ele>15.333333333333334</ele><time>2026-04-30T14:43:31.852Z</time></trkpt><trkpt lat="38.6904145" lon="20.9065346"><ele>12.666666666666668</ele><time>2026-04-30T14:43:32.851Z</time></trkpt><trkpt lat="38.6905443" lon="20.9066406"><ele>10.0</ele><time>2026-04-30T14:43:33.852Z</time></trkpt><trkpt lat="38.6906726" lon="20.9067423"><ele>13.0</ele><time>2026-04-30T14:43:34.852Z</time></trkpt><trkpt lat="38.690804" lon="20.9068506"><ele>16.0</ele><time>2026-04-30T14:43:35.852Z</time></trkpt><trkpt lat="38.6909313" lon="20.9069552"><ele>19.0</ele><time>2026-04-30T14:43:36.852Z</time></trkpt><trkpt lat="38.6910538" lon="20.9070456"><ele>22.0</ele><time>2026-04-30T14:43:37.852Z</time></trkpt><trkpt lat="38.691171" lon="20.9071001"><ele>22.0</ele><time>2026-04-30T14:43:38.852Z</time></trkpt><trkpt lat="38.6913103" lon="20.9071343"><ele>22.0</ele><time>2026-04-30T14:43:39.851Z</time></trkpt><trkpt lat="38.6914402" lon="20.9071205"><ele>22.0</ele><time>2026-04-30T14:43:40.851Z</time></trkpt><trkpt lat="38.6915688" lon="20.9070902"><ele>22.0</ele><time>2026-04-30T14:43:41.851Z</time></trkpt><trkpt lat="38.6916886" lon="20.9070366"><ele>22.0</ele><time>2026-04-30T14:43:42.851Z</time></trkpt><trkpt lat="38.6917955" lon="20.9069639"><ele>22.0</ele><time>2026-04-30T14:43:43.851Z</time></trkpt><trkpt lat="38.6918841" lon="20.9068624"><ele>22.0</ele><time>2026-04-30T14:43:44.852Z</time></trkpt><trkpt lat="38.6919372" lon="20.9067217"><ele>22.0</ele><time>2026-04-30T14:43:45.852Z</time></trkpt><trkpt lat="38.6919581" lon="20.9065744"><ele>24.6</ele><time>2026-04-30T14:43:46.852Z</time></trkpt><trkpt lat="38.6919661" lon="20.906427"><ele>27.200000000000003</ele><time>2026-04-30T14:43:47.851Z</time></trkpt><trkpt lat="38.6919768" lon="20.9062782"><ele>29.8</ele><time>2026-04-30T14:43:48.852Z</time></trkpt><trkpt lat="38.6920059" lon="20.9061522"><ele>32.4</ele><time>2026-04-30T14:43:49.851Z</time></trkpt><trkpt lat="38.6920537" lon="20.90603"><ele>35.0</ele><time>2026-04-30T14:43:50.852Z</time></trkpt><trkpt lat="38.6921393" lon="20.9059371"><ele>31.75</ele><time>2026-04-30T14:43:51.852Z</time></trkpt><trkpt lat="38.6922526" lon="20.9058852"><ele>28.5</ele><time>2026-04-30T14:43:52.851Z</time></trkpt><trkpt lat="38.6923969" lon="20.9058369"><ele>25.25</ele><time>2026-04-30T14:43:53.851Z</time></trkpt><trkpt lat="38.6925441" lon="20.9057757"><ele>22.0</ele><time>2026-04-30T14:43:54.851Z</time></trkpt><trkpt lat="38.6926918" lon="20.9057078"><ele>23.75</ele><time>2026-04-30T14:43:55.851Z</time></trkpt><trkpt lat="38.692829" lon="20.9056497"><ele>25.5</ele><time>2026-04-30T14:43:56.851Z</time></trkpt><trkpt lat="38.6929559" lon="20.9055929"><ele>27.25</ele><time>2026-04-30T14:43:57.852Z</time></trkpt><trkpt lat="38.693086" lon="20.9055596"><ele>29.0</ele><time>2026-04-30T14:43:58.852Z</time></trkpt><trkpt lat="38.6932047" lon="20.905538"><ele>29.0</ele><time>2026-04-30T14:43:59.852Z</time></trkpt><trkpt lat="38.6933316" lon="20.9055565"><ele>29.0</ele><time>2026-04-30T14:44:00.851Z</time></trkpt><trkpt lat="38.6934397" lon="20.9055616"><ele>29.0</ele><time>2026-04-30T14:44:01.852Z</time></trkpt><trkpt lat="38.6935407" lon="20.9055367"><ele>29.0</ele><time>2026-04-30T14:44:02.852Z</time></trkpt><trkpt lat="38.6936125" lon="20.9054559"><ele>29.0</ele><time>2026-04-30T14:44:03.852Z</time></trkpt><trkpt lat="38.6936672" lon="20.9053228"><ele>27.25</ele><time>2026-04-30T14:44:04.851Z</time></trkpt><trkpt lat="38.6937053" lon="20.9051709"><ele>25.5</ele><time>2026-04-30T14:44:05.851Z</time></trkpt><trkpt lat="38.6937306" lon="20.9050079"><ele>23.75</ele><time>2026-04-30T14:44:06.852Z</time></trkpt><trkpt lat="38.6937497" lon="20.904834"><ele>22.0</ele><time>2026-04-30T14:44:07.851Z</time></trkpt><trkpt lat="38.6937712" lon="20.9046472"><ele>22.0</ele><time>2026-04-30T14:44:08.851Z</time></trkpt><trkpt lat="38.693791" lon="20.9044645"><ele>22.0</ele><time>2026-04-30T14:44:09.851Z</time></trkpt><trkpt lat="38.6938163" lon="20.9042794"><ele>22.0</ele><time>2026-04-30T14:44:10.852Z</time></trkpt><trkpt lat="38.693842" lon="20.9040975"><ele>22.0</ele><time>2026-04-30T14:44:11.852Z</time></trkpt><trkpt lat="38.6938744" lon="20.90391"><ele>20.25</ele><time>2026-04-30T14:44:12.852Z</time></trkpt><trkpt lat="38.6939041" lon="20.9037412"><ele>18.5</ele><time>2026-04-30T14:44:13.852Z</time></trkpt><trkpt lat="38.6939627" lon="20.9035785"><ele>16.75</ele><time>2026-04-30T14:44:14.852Z</time></trkpt><trkpt lat="38.6940321" lon="20.9034246"><ele>15.0</ele><time>2026-04-30T14:44:15.851Z</time></trkpt><trkpt lat="38.6941101" lon="20.9032725"><ele>14.0</ele><time>2026-04-30T14:44:16.851Z</time></trkpt><trkpt lat="38.6941894" lon="20.9031207"><ele>13.0</ele><time>2026-04-30T14:44:17.851Z</time></trkpt><trkpt lat="38.6942837" lon="20.9029715"><ele>12.0</ele><time>2026-04-30T14:44:18.851Z</time></trkpt><trkpt lat="38.6943861" lon="20.9028261"><ele>11.0</ele><time>2026-04-30T14:44:19.852Z</time></trkpt><trkpt lat="38.6945008" lon="20.9027039"><ele>13.0</ele><time>2026-04-30T14:44:20.852Z</time></trkpt><trkpt lat="38.6946358" lon="20.9025977"><ele>15.0</ele><time>2026-04-30T14:44:21.852Z</time></trkpt><trkpt lat="38.6947804" lon="20.902494"><ele>17.0</ele><time>2026-04-30T14:44:22.852Z</time></trkpt><trkpt lat="38.6949311" lon="20.9023933"><ele>17.0</ele><time>2026-04-30T14:44:23.852Z</time></trkpt><trkpt lat="38.695088" lon="20.9022935"><ele>17.0</ele><time>2026-04-30T14:44:24.851Z</time></trkpt><trkpt lat="38.6952413" lon="20.9021979"><ele>17.0</ele><time>2026-04-30T14:44:25.851Z</time></trkpt><trkpt lat="38.6953994" lon="20.9021024"><ele>23.333333333333336</ele><time>2026-04-30T14:44:26.852Z</time></trkpt><trkpt lat="38.6955531" lon="20.9020066"><ele>29.666666666666668</ele><time>2026-04-30T14:44:27.852Z</time></trkpt><trkpt lat="38.6957069" lon="20.9019029"><ele>36.0</ele><time>2026-04-30T14:44:28.852Z</time></trkpt><trkpt lat="38.6958571" lon="20.9017928"><ele>31.333333333333332</ele><time>2026-04-30T14:44:29.85Z</time></trkpt><trkpt lat="38.696014" lon="20.9016991"><ele>26.666666666666664</ele><time>2026-04-30T14:44:30.852Z</time></trkpt><trkpt lat="38.6961679" lon="20.9016028"><ele>22.0</ele><time>2026-04-30T14:44:31.852Z</time></trkpt><trkpt lat="38.6963204" lon="20.9015054"><ele>22.0</ele><time>2026-04-30T14:44:32.851Z</time></trkpt><trkpt lat="38.6964768" lon="20.9014049"><ele>22.0</ele><time>2026-04-30T14:44:33.852Z</time></trkpt><trkpt lat="38.6966308" lon="20.901308"><ele>22.0</ele><time>2026-04-30T14:44:34.852Z</time></trkpt><trkpt lat="38.696783" lon="20.9012164"><ele>26.333333333333332</ele><time>2026-04-30T14:44:35.852Z</time></trkpt><trkpt lat="38.6969322" lon="20.9011333"><ele>30.666666666666664</ele><time>2026-04-30T14:44:36.851Z</time></trkpt><trkpt lat="38.6970824" lon="20.9010755"><ele>35.0</ele><time>2026-04-30T14:44:37.852Z</time></trkpt><trkpt lat="38.6972381" lon="20.9010436"><ele>35.0</ele><time>2026-04-30T14:44:38.851Z</time></trkpt><trkpt lat="38.6973907" lon="20.9010331"><ele>35.0</ele><time>2026-04-30T14:44:39.851Z</time></trkpt><trkpt lat="38.6975467" lon="20.9010462"><ele>35.0</ele><time>2026-04-30T14:44:40.852Z</time></trkpt><trkpt lat="38.6976996" lon="20.9010814"><ele>34.0</ele><time>2026-04-30T14:44:41.852Z</time></trkpt><trkpt lat="38.697853" lon="20.9011341"><ele>33.0</ele><time>2026-04-30T14:44:42.851Z</time></trkpt><trkpt lat="38.6980038" lon="20.9012044"><ele>32.0</ele><time>2026-04-30T14:44:43.851Z</time></trkpt><trkpt lat="38.6981487" lon="20.9012831"><ele>32.0</ele><time>2026-04-30T14:44:44.852Z</time></trkpt><trkpt lat="38.6983003" lon="20.9013567"><ele>32.0</ele><time>2026-04-30T14:44:45.852Z</time></trkpt><trkpt lat="38.6984376" lon="20.9014226"><ele>32.0</ele><time>2026-04-30T14:44:46.852Z</time></trkpt><trkpt lat="38.698564" lon="20.9014705"><ele>32.0</ele><time>2026-04-30T14:44:47.852Z</time></trkpt><trkpt lat="38.6986919" lon="20.901476"><ele>35.25</ele><time>2026-04-30T14:44:48.851Z</time></trkpt><trkpt lat="38.6988019" lon="20.901445"><ele>38.5</ele><time>2026-04-30T14:44:49.851Z</time></trkpt><trkpt lat="38.6988961" lon="20.9013518"><ele>41.75</ele><time>2026-04-30T14:44:50.852Z</time></trkpt><trkpt lat="38.6989708" lon="20.9012315"><ele>45.0</ele><time>2026-04-30T14:44:51.852Z</time></trkpt><trkpt lat="38.699032" lon="20.9010836"><ele>45.0</ele><time>2026-04-30T14:44:52.851Z</time></trkpt><trkpt lat="38.6990904" lon="20.9009187"><ele>45.0</ele><time>2026-04-30T14:44:53.852Z</time></trkpt><trkpt lat="38.6991474" lon="20.9007565"><ele>45.0</ele><time>2026-04-30T14:44:54.852Z</time></trkpt><trkpt lat="38.6992124" lon="20.9005947"><ele>45.0</ele><time>2026-04-30T14:44:55.852Z</time></trkpt><trkpt lat="38.6992839" lon="20.9004365"><ele>49.33333333333333</ele><time>2026-04-30T14:44:56.851Z</time></trkpt><trkpt lat="38.6993759" lon="20.9002812"><ele>53.666666666666664</ele><time>2026-04-30T14:44:57.851Z</time></trkpt><trkpt lat="38.6994955" lon="20.9001225"><ele>58.0</ele><time>2026-04-30T14:44:58.851Z</time></trkpt><trkpt lat="38.6996015" lon="20.8999862"><ele>51.0</ele><time>2026-04-30T14:44:59.852Z</time></trkpt><trkpt lat="38.6997095" lon="20.8998527"><ele>44.0</ele><time>2026-04-30T14:45:00.851Z</time></trkpt><trkpt lat="38.6998207" lon="20.899728"><ele>37.0</ele><time>2026-04-30T14:45:01.852Z</time></trkpt><trkpt lat="38.6999361" lon="20.899619"><ele>30.0</ele><time>2026-04-30T14:45:02.851Z</time></trkpt><trkpt lat="38.7000572" lon="20.8995168"><ele>30.0</ele><time>2026-04-30T14:45:03.851Z</time></trkpt><trkpt lat="38.700184" lon="20.8994275"><ele>30.0</ele><time>2026-04-30T14:45:04.851Z</time></trkpt><trkpt lat="38.7003124" lon="20.899343"><ele>30.0</ele><time>2026-04-30T14:45:05.852Z</time></trkpt><trkpt lat="38.7004486" lon="20.8992767"><ele>30.0</ele><time>2026-04-30T14:45:06.852Z</time></trkpt><trkpt lat="38.7005967" lon="20.8992187"><ele>25.666666666666668</ele><time>2026-04-30T14:45:07.852Z</time></trkpt><trkpt lat="38.7007419" lon="20.8991733"><ele>21.333333333333336</ele><time>2026-04-30T14:45:08.851Z</time></trkpt><trkpt lat="38.7008978" lon="20.899138"><ele>17.0</ele><time>2026-04-30T14:45:09.851Z</time></trkpt><trkpt lat="38.7010569" lon="20.8990949"><ele>20.333333333333336</ele><time>2026-04-30T14:45:10.852Z</time></trkpt><trkpt lat="38.701218" lon="20.8990432"><ele>23.666666666666668</ele><time>2026-04-30T14:45:11.852Z</time></trkpt><trkpt lat="38.7013843" lon="20.8989821"><ele>27.0</ele><time>2026-04-30T14:45:12.851Z</time></trkpt><trkpt lat="38.7015619" lon="20.8988936"><ele>27.0</ele><time>2026-04-30T14:45:13.851Z</time></trkpt><trkpt lat="38.7017379" lon="20.8987866"><ele>27.0</ele><time>2026-04-30T14:45:14.852Z</time></trkpt><trkpt lat="38.7019201" lon="20.8986782"><ele>27.0</ele><time>2026-04-30T14:45:15.851Z</time></trkpt><trkpt lat="38.7021037" lon="20.8985673"><ele>29.333333333333336</ele><time>2026-04-30T14:45:16.851Z</time></trkpt><trkpt lat="38.7022922" lon="20.8984609"><ele>31.666666666666668</ele><time>2026-04-30T14:45:17.852Z</time></trkpt><trkpt lat="38.7024771" lon="20.8983551"><ele>34.0</ele><time>2026-04-30T14:45:18.851Z</time></trkpt><trkpt lat="38.702664" lon="20.898247"><ele>27.333333333333336</ele><time>2026-04-30T14:45:19.852Z</time></trkpt><trkpt lat="38.7028496" lon="20.8981408"><ele>20.666666666666668</ele><time>2026-04-30T14:45:20.851Z</time></trkpt><trkpt lat="38.7030313" lon="20.8980393"><ele>14.0</ele><time>2026-04-30T14:45:21.852Z</time></trkpt><trkpt lat="38.7032023" lon="20.8979441"><ele>14.0</ele><time>2026-04-30T14:45:22.852Z</time></trkpt><trkpt lat="38.7033619" lon="20.8978637"><ele>14.0</ele><time>2026-04-30T14:45:23.851Z</time></trkpt><trkpt lat="38.7035217" lon="20.8978056"><ele>14.0</ele><time>2026-04-30T14:45:24.852Z</time></trkpt><trkpt lat="38.7036809" lon="20.8977865"><ele>15.0</ele><time>2026-04-30T14:45:25.851Z</time></trkpt><trkpt lat="38.7038319" lon="20.8977827"><ele>16.0</ele><time>2026-04-30T14:45:26.851Z</time></trkpt><trkpt lat="38.7039773" lon="20.8977986"><ele>17.0</ele><time>2026-04-30T14:45:27.851Z</time></trkpt><trkpt lat="38.7041133" lon="20.897803"><ele>18.0</ele><time>2026-04-30T14:45:28.852Z</time></trkpt><trkpt lat="38.7042338" lon="20.8977549"><ele>18.0</ele><time>2026-04-30T14:45:29.852Z</time></trkpt><trkpt lat="38.7043521" lon="20.8976531"><ele>18.0</ele><time>2026-04-30T14:45:30.852Z</time></trkpt><trkpt lat="38.7044702" lon="20.8975134"><ele>18.0</ele><time>2026-04-30T14:45:31.852Z</time></trkpt><trkpt lat="38.7045856" lon="20.8973703"><ele>19.333333333333332</ele><time>2026-04-30T14:45:32.851Z</time></trkpt><trkpt lat="38.7046973" lon="20.8972149"><ele>20.666666666666664</ele><time>2026-04-30T14:45:33.852Z</time></trkpt><trkpt lat="38.7048073" lon="20.8970568"><ele>22.0</ele><time>2026-04-30T14:45:34.851Z</time></trkpt><trkpt lat="38.7049284" lon="20.8969022"><ele>21.333333333333332</ele><time>2026-04-30T14:45:35.852Z</time></trkpt><trkpt lat="38.7050646" lon="20.896732"><ele>20.666666666666668</ele><time>2026-04-30T14:45:36.851Z</time></trkpt><trkpt lat="38.7052108" lon="20.8965892"><ele>20.0</ele><time>2026-04-30T14:45:37.852Z</time></trkpt><trkpt lat="38.7053615" lon="20.8964559"><ele>20.0</ele><time>2026-04-30T14:45:38.852Z</time></trkpt><trkpt lat="38.705513" lon="20.8963104"><ele>20.0</ele><time>2026-04-30T14:45:39.851Z</time></trkpt><trkpt lat="38.7056667" lon="20.8961512"><ele>20.0</ele><time>2026-04-30T14:45:40.851Z</time></trkpt><trkpt lat="38.7058074" lon="20.8960078"><ele>21.0</ele><time>2026-04-30T14:45:41.852Z</time></trkpt><trkpt lat="38.7059383" lon="20.8958489"><ele>22.0</ele><time>2026-04-30T14:45:42.851Z</time></trkpt><trkpt lat="38.7060691" lon="20.8956866"><ele>23.0</ele><time>2026-04-30T14:45:43.851Z</time></trkpt><trkpt lat="38.7061902" lon="20.8955221"><ele>23.0</ele><time>2026-04-30T14:45:44.851Z</time></trkpt><trkpt lat="38.7063017" lon="20.8953626"><ele>23.0</ele><time>2026-04-30T14:45:45.852Z</time></trkpt><trkpt lat="38.7064053" lon="20.8952128"><ele>23.0</ele><time>2026-04-30T14:45:46.851Z</time></trkpt><trkpt lat="38.7065105" lon="20.8950828"><ele>18.75</ele><time>2026-04-30T14:45:47.851Z</time></trkpt><trkpt lat="38.7066283" lon="20.8949906"><ele>14.5</ele><time>2026-04-30T14:45:48.851Z</time></trkpt><trkpt lat="38.7067583" lon="20.8949557"><ele>10.25</ele><time>2026-04-30T14:45:49.852Z</time></trkpt><trkpt lat="38.7069031" lon="20.8949431"><ele>6.0</ele><time>2026-04-30T14:45:50.852Z</time></trkpt><trkpt lat="38.7070598" lon="20.8949624"><ele>6.0</ele><time>2026-04-30T14:45:51.851Z</time></trkpt><trkpt lat="38.7072307" lon="20.8949868"><ele>6.0</ele><time>2026-04-30T14:45:52.852Z</time></trkpt><trkpt lat="38.7073982" lon="20.8950307"><ele>6.0</ele><time>2026-04-30T14:45:53.852Z</time></trkpt><trkpt lat="38.7075633" lon="20.8950863"><ele>10.0</ele><time>2026-04-30T14:45:54.851Z</time></trkpt><trkpt lat="38.7077155" lon="20.895154"><ele>14.0</ele><time>2026-04-30T14:45:55.851Z</time></trkpt><trkpt lat="38.7078549" lon="20.8952183"><ele>18.0</ele><time>2026-04-30T14:45:56.851Z</time></trkpt><trkpt lat="38.7079846" lon="20.8952704"><ele>22.0</ele><time>2026-04-30T14:45:57.851Z</time></trkpt><trkpt lat="38.708114" lon="20.895292"><ele>22.0</ele><time>2026-04-30T14:45:58.852Z</time></trkpt><trkpt lat="38.7082289" lon="20.8952562"><ele>22.0</ele><time>2026-04-30T14:45:59.852Z</time></trkpt><trkpt lat="38.708316" lon="20.8951747"><ele>22.0</ele><time>2026-04-30T14:46:00.851Z</time></trkpt><trkpt lat="38.708383" lon="20.8950697"><ele>22.0</ele><time>2026-04-30T14:46:01.852Z</time></trkpt><trkpt lat="38.7084531" lon="20.8949198"><ele>21.5</ele><time>2026-04-30T14:46:02.852Z</time></trkpt><trkpt lat="38.7085339" lon="20.8947731"><ele>21.0</ele><time>2026-04-30T14:46:03.852Z</time></trkpt><trkpt lat="38.7086231" lon="20.8946311"><ele>20.5</ele><time>2026-04-30T14:46:04.852Z</time></trkpt><trkpt lat="38.708728" lon="20.8944987"><ele>20.0</ele><time>2026-04-30T14:46:05.851Z</time></trkpt><trkpt lat="38.7088516" lon="20.8943823"><ele>20.0</ele><time>2026-04-30T14:46:06.851Z</time></trkpt><trkpt lat="38.7089933" lon="20.894282"><ele>20.0</ele><time>2026-04-30T14:46:07.852Z</time></trkpt><trkpt lat="38.7091448" lon="20.8941989"><ele>20.0</ele><time>2026-04-30T14:46:08.852Z</time></trkpt><trkpt lat="38.7093041" lon="20.8941266"><ele>17.666666666666668</ele><time>2026-04-30T14:46:09.852Z</time></trkpt><trkpt lat="38.7094742" lon="20.8940782"><ele>15.333333333333332</ele><time>2026-04-30T14:46:10.852Z</time></trkpt><trkpt lat="38.7096455" lon="20.8940225"><ele>13.0</ele><time>2026-04-30T14:46:11.851Z</time></trkpt><trkpt lat="38.7098167" lon="20.8939738"><ele>13.0</ele><time>2026-04-30T14:46:12.851Z</time></trkpt><trkpt lat="38.7099848" lon="20.8939301"><ele>13.0</ele><time>2026-04-30T14:46:13.851Z</time></trkpt><trkpt lat="38.7101416" lon="20.8938958"><ele>13.0</ele><time>2026-04-30T14:46:14.852Z</time></trkpt><trkpt lat="38.7102955" lon="20.8938786"><ele>11.666666666666666</ele><time>2026-04-30T14:46:15.852Z</time></trkpt><trkpt lat="38.7104494" lon="20.893882"><ele>10.333333333333332</ele><time>2026-04-30T14:46:16.852Z</time></trkpt><trkpt lat="38.7106045" lon="20.8939082"><ele>9.0</ele><time>2026-04-30T14:46:17.852Z</time></trkpt><trkpt lat="38.7107623" lon="20.8939571"><ele>9.0</ele><time>2026-04-30T14:46:18.852Z</time></trkpt><trkpt lat="38.7109148" lon="20.894036"><ele>9.0</ele><time>2026-04-30T14:46:19.851Z</time></trkpt><trkpt lat="38.7110657" lon="20.8941363"><ele>9.0</ele><time>2026-04-30T14:46:20.851Z</time></trkpt><trkpt lat="38.7112125" lon="20.8942436"><ele>12.0</ele><time>2026-04-30T14:46:21.851Z</time></trkpt><trkpt lat="38.7113741" lon="20.8943356"><ele>15.0</ele><time>2026-04-30T14:46:22.851Z</time></trkpt><trkpt lat="38.7115524" lon="20.8944106"><ele>18.0</ele><time>2026-04-30T14:46:23.851Z</time></trkpt><trkpt lat="38.7117479" lon="20.8944752"><ele>19.0</ele><time>2026-04-30T14:46:24.851Z</time></trkpt><trkpt lat="38.7119563" lon="20.8945321"><ele>20.0</ele><time>2026-04-30T14:46:25.852Z</time></trkpt><trkpt lat="38.7121499" lon="20.89459"><ele>21.0</ele><time>2026-04-30T14:46:26.85Z</time></trkpt><trkpt lat="38.7123314" lon="20.8946324"><ele>21.0</ele><time>2026-04-30T14:46:27.852Z</time></trkpt><trkpt lat="38.7125083" lon="20.8946707"><ele>21.0</ele><time>2026-04-30T14:46:28.851Z</time></trkpt><trkpt lat="38.7126822" lon="20.8947021"><ele>21.0</ele><time>2026-04-30T14:46:29.851Z</time></trkpt><trkpt lat="38.7128564" lon="20.8947086"><ele>23.666666666666664</ele><time>2026-04-30T14:46:30.852Z</time></trkpt><trkpt lat="38.7130436" lon="20.8946949"><ele>26.333333333333332</ele><time>2026-04-30T14:46:31.851Z</time></trkpt><trkpt lat="38.7132378" lon="20.8946615"><ele>29.0</ele><time>2026-04-30T14:46:32.852Z</time></trkpt><trkpt lat="38.7134384" lon="20.8946235"><ele>32.33333333333333</ele><time>2026-04-30T14:46:33.851Z</time></trkpt><trkpt lat="38.7136411" lon="20.8945795"><ele>35.666666666666664</ele><time>2026-04-30T14:46:34.851Z</time></trkpt><trkpt lat="38.7138387" lon="20.8945345"><ele>39.0</ele><time>2026-04-30T14:46:35.851Z</time></trkpt><trkpt lat="38.7140417" lon="20.8944931"><ele>39.0</ele><time>2026-04-30T14:46:36.852Z</time></trkpt><trkpt lat="38.714213" lon="20.8944466"><ele>39.0</ele><time>2026-04-30T14:46:37.852Z</time></trkpt><trkpt lat="38.7143503" lon="20.8944146"><ele>39.0</ele><time>2026-04-30T14:46:38.851Z</time></trkpt><trkpt lat="38.7144686" lon="20.8943826"><ele>39.0</ele><time>2026-04-30T14:46:39.852Z</time></trkpt><trkpt lat="38.7145643" lon="20.8943609"><ele>38.666666666666664</ele><time>2026-04-30T14:46:40.851Z</time></trkpt><trkpt lat="38.7146499" lon="20.8943449"><ele>38.333333333333336</ele><time>2026-04-30T14:46:41.851Z</time></trkpt><trkpt lat="38.7147247" lon="20.894326"><ele>38.0</ele><time>2026-04-30T14:46:42.851Z</time></trkpt><trkpt lat="38.714805" lon="20.8943122"><ele>37.66666666666667</ele><time>2026-04-30T14:46:43.852Z</time></trkpt><trkpt lat="38.714892" lon="20.8942971"><ele>37.333333333333336</ele><time>2026-04-30T14:46:44.851Z</time></trkpt><trkpt lat="38.7149805" lon="20.8942809"><ele>37.0</ele><time>2026-04-30T14:46:45.851Z</time></trkpt><trkpt lat="38.7150761" lon="20.8942661"><ele>37.0</ele><time>2026-04-30T14:46:46.851Z</time></trkpt><trkpt lat="38.7151707" lon="20.8942588"><ele>37.0</ele><time>2026-04-30T14:46:47.852Z</time></trkpt><trkpt lat="38.7152656" lon="20.8942602"><ele>37.0</ele><time>2026-04-30T14:46:48.851Z</time></trkpt><trkpt lat="38.7153548" lon="20.8942688"><ele>37.0</ele><time>2026-04-30T14:46:49.851Z</time></trkpt><trkpt lat="38.715442" lon="20.8942964"><ele>37.0</ele><time>2026-04-30T14:46:50.851Z</time></trkpt><trkpt lat="38.7155351" lon="20.8943404"><ele>37.0</ele><time>2026-04-30T14:46:51.851Z</time></trkpt><trkpt lat="38.715633" lon="20.8943971"><ele>37.0</ele><time>2026-04-30T14:46:52.851Z</time></trkpt><trkpt lat="38.7157431" lon="20.8944584"><ele>37.0</ele><time>2026-04-30T14:46:53.852Z</time></trkpt><trkpt lat="38.7158557" lon="20.8945118"><ele>37.0</ele><time>2026-04-30T14:46:54.852Z</time></trkpt><trkpt lat="38.7159767" lon="20.8945575"><ele>35.0</ele><time>2026-04-30T14:46:55.851Z</time></trkpt><trkpt lat="38.7161135" lon="20.8945859"><ele>33.0</ele><time>2026-04-30T14:46:56.851Z</time></trkpt><trkpt lat="38.7162563" lon="20.8945868"><ele>31.0</ele><time>2026-04-30T14:46:57.852Z</time></trkpt><trkpt lat="38.7164028" lon="20.894592"><ele>29.0</ele><time>2026-04-30T14:46:58.852Z</time></trkpt><trkpt lat="38.7165375" lon="20.8945982"><ele>29.0</ele><time>2026-04-30T14:46:59.852Z</time></trkpt><trkpt lat="38.716674" lon="20.894608"><ele>29.0</ele><time>2026-04-30T14:47:00.852Z</time></trkpt><trkpt lat="38.7167966" lon="20.8946223"><ele>29.0</ele><time>2026-04-30T14:47:01.852Z</time></trkpt><trkpt lat="38.7169017" lon="20.894659"><ele>29.0</ele><time>2026-04-30T14:47:02.851Z</time></trkpt><trkpt lat="38.7169949" lon="20.8947198"><ele>27.75</ele><time>2026-04-30T14:47:03.852Z</time></trkpt><trkpt lat="38.7170779" lon="20.8948155"><ele>26.5</ele><time>2026-04-30T14:47:04.852Z</time></trkpt><trkpt lat="38.7171451" lon="20.8949351"><ele>25.25</ele><time>2026-04-30T14:47:05.852Z</time></trkpt><trkpt lat="38.7171733" lon="20.8950912"><ele>24.0</ele><time>2026-04-30T14:47:06.851Z</time></trkpt><trkpt lat="38.7172034" lon="20.8952463"><ele>24.0</ele><time>2026-04-30T14:47:07.851Z</time></trkpt><trkpt lat="38.7172482" lon="20.895402"><ele>24.0</ele><time>2026-04-30T14:47:08.851Z</time></trkpt><trkpt lat="38.717311" lon="20.8955457"><ele>24.0</ele><time>2026-04-30T14:47:09.852Z</time></trkpt><trkpt lat="38.7174035" lon="20.8956703"><ele>24.0</ele><time>2026-04-30T14:47:10.851Z</time></trkpt><trkpt lat="38.7175158" lon="20.895784"><ele>24.0</ele><time>2026-04-30T14:47:11.852Z</time></trkpt><trkpt lat="38.7176379" lon="20.8958826"><ele>24.0</ele><time>2026-04-30T14:47:12.851Z</time></trkpt><trkpt lat="38.7177767" lon="20.8959738"><ele>24.0</ele><time>2026-04-30T14:47:13.851Z</time></trkpt><trkpt lat="38.7179249" lon="20.8960683"><ele>26.0</ele><time>2026-04-30T14:47:14.851Z</time></trkpt><trkpt lat="38.7180815" lon="20.896157"><ele>28.0</ele><time>2026-04-30T14:47:15.85Z</time></trkpt><trkpt lat="38.7182439" lon="20.896245"><ele>30.0</ele><time>2026-04-30T14:47:16.851Z</time></trkpt><trkpt lat="38.7184092" lon="20.8963345"><ele>25.0</ele><time>2026-04-30T14:47:17.851Z</time></trkpt><trkpt lat="38.7185684" lon="20.8964327"><ele>20.0</ele><time>2026-04-30T14:47:18.852Z</time></trkpt><trkpt lat="38.7187204" lon="20.896535"><ele>15.0</ele><time>2026-04-30T14:47:19.851Z</time></trkpt><trkpt lat="38.7188634" lon="20.8966333"><ele>15.0</ele><time>2026-04-30T14:47:20.852Z</time></trkpt><trkpt lat="38.7190084" lon="20.8967352"><ele>15.0</ele><time>2026-04-30T14:47:21.852Z</time></trkpt><trkpt lat="38.719139" lon="20.8968354"><ele>15.0</ele><time>2026-04-30T14:47:22.852Z</time></trkpt><trkpt lat="38.7192715" lon="20.8969224"><ele>17.75</ele><time>2026-04-30T14:47:23.851Z</time></trkpt><trkpt lat="38.7193973" lon="20.8970018"><ele>20.5</ele><time>2026-04-30T14:47:24.851Z</time></trkpt><trkpt lat="38.7195196" lon="20.8970506"><ele>23.25</ele><time>2026-04-30T14:47:25.852Z</time></trkpt><trkpt lat="38.7196429" lon="20.8970799"><ele>26.0</ele><time>2026-04-30T14:47:26.851Z</time></trkpt><trkpt lat="38.719758" lon="20.8970556"><ele>26.0</ele><time>2026-04-30T14:47:27.851Z</time></trkpt><trkpt lat="38.7198573" lon="20.896993"><ele>26.0</ele><time>2026-04-30T14:47:28.85Z</time></trkpt><trkpt lat="38.7199374" lon="20.896887"><ele>26.0</ele><time>2026-04-30T14:47:29.852Z</time></trkpt><trkpt lat="38.7199899" lon="20.8967409"><ele>26.0</ele><time>2026-04-30T14:47:30.85Z</time></trkpt><trkpt lat="38.7200015" lon="20.8965782"><ele>23.75</ele><time>2026-04-30T14:47:31.852Z</time></trkpt><trkpt lat="38.7199822" lon="20.896408"><ele>21.5</ele><time>2026-04-30T14:47:32.851Z</time></trkpt><trkpt lat="38.7199423" lon="20.8962406"><ele>19.25</ele><time>2026-04-30T14:47:33.851Z</time></trkpt><trkpt lat="38.7198969" lon="20.8960715"><ele>17.0</ele><time>2026-04-30T14:47:34.852Z</time></trkpt><trkpt lat="38.719862" lon="20.8959014"><ele>17.0</ele><time>2026-04-30T14:47:35.851Z</time></trkpt><trkpt lat="38.7198476" lon="20.8957276"><ele>17.0</ele><time>2026-04-30T14:47:36.852Z</time></trkpt><trkpt lat="38.7198787" lon="20.895562"><ele>17.0</ele><time>2026-04-30T14:47:37.851Z</time></trkpt><trkpt lat="38.719918" lon="20.8954265"><ele>17.0</ele><time>2026-04-30T14:47:38.851Z</time></trkpt><trkpt lat="38.7199691" lon="20.8953016"><ele>17.0</ele><time>2026-04-30T14:47:39.851Z</time></trkpt><trkpt lat="38.7200446" lon="20.8952036"><ele>17.0</ele><time>2026-04-30T14:47:40.852Z</time></trkpt><trkpt lat="38.7201386" lon="20.8951336"><ele>17.0</ele><time>2026-04-30T14:47:41.851Z</time></trkpt><trkpt lat="38.7202358" lon="20.8950623"><ele>17.0</ele><time>2026-04-30T14:47:42.851Z</time></trkpt><trkpt lat="38.7203621" lon="20.8950198"><ele>17.0</ele><time>2026-04-30T14:47:43.852Z</time></trkpt><trkpt lat="38.720499" lon="20.8949994"><ele>17.0</ele><time>2026-04-30T14:47:44.851Z</time></trkpt><trkpt lat="38.7206307" lon="20.8950022"><ele>17.0</ele><time>2026-04-30T14:47:45.852Z</time></trkpt><trkpt lat="38.7207706" lon="20.8949964"><ele>17.0</ele><time>2026-04-30T14:47:46.852Z</time></trkpt><trkpt lat="38.7209196" lon="20.8949989"><ele>17.0</ele><time>2026-04-30T14:47:47.852Z</time></trkpt><trkpt lat="38.7210706" lon="20.8950071"><ele>17.0</ele><time>2026-04-30T14:47:48.852Z</time></trkpt><trkpt lat="38.721226" lon="20.894996"><ele>17.0</ele><time>2026-04-30T14:47:49.852Z</time></trkpt><trkpt lat="38.7213833" lon="20.8949982"><ele>17.0</ele><time>2026-04-30T14:47:50.852Z</time></trkpt><trkpt lat="38.7215404" lon="20.8949837"><ele>17.0</ele><time>2026-04-30T14:47:51.852Z</time></trkpt><trkpt lat="38.7216897" lon="20.8949672"><ele>17.0</ele><time>2026-04-30T14:47:52.851Z</time></trkpt><trkpt lat="38.7218358" lon="20.8949508"><ele>15.75</ele><time>2026-04-30T14:47:53.851Z</time></trkpt><trkpt lat="38.7219711" lon="20.8949437"><ele>14.5</ele><time>2026-04-30T14:47:54.85Z</time></trkpt><trkpt lat="38.7220969" lon="20.894947"><ele>13.25</ele><time>2026-04-30T14:47:55.852Z</time></trkpt><trkpt lat="38.7222187" lon="20.8949678"><ele>12.0</ele><time>2026-04-30T14:47:56.849Z</time></trkpt><trkpt lat="38.7223273" lon="20.8950055"><ele>12.0</ele><time>2026-04-30T14:47:57.851Z</time></trkpt><trkpt lat="38.7224267" lon="20.8950668"><ele>12.0</ele><time>2026-04-30T14:47:58.852Z</time></trkpt><trkpt lat="38.7225335" lon="20.8951412"><ele>12.0</ele><time>2026-04-30T14:47:59.851Z</time></trkpt><trkpt lat="38.7226458" lon="20.8952342"><ele>12.0</ele><time>2026-04-30T14:48:00.851Z</time></trkpt><trkpt lat="38.7227666" lon="20.8953221"><ele>14.5</ele><time>2026-04-30T14:48:01.852Z</time></trkpt><trkpt lat="38.7228941" lon="20.8954065"><ele>17.0</ele><time>2026-04-30T14:48:02.852Z</time></trkpt><trkpt lat="38.7230164" lon="20.8954927"><ele>19.5</ele><time>2026-04-30T14:48:03.852Z</time></trkpt><trkpt lat="38.7231397" lon="20.8955634"><ele>22.0</ele><time>2026-04-30T14:48:04.851Z</time></trkpt><trkpt lat="38.7232692" lon="20.8956074"><ele>22.0</ele><time>2026-04-30T14:48:05.851Z</time></trkpt><trkpt lat="38.7233998" lon="20.8956255"><ele>22.0</ele><time>2026-04-30T14:48:06.852Z</time></trkpt><trkpt lat="38.7235365" lon="20.8956173"><ele>22.0</ele><time>2026-04-30T14:48:07.851Z</time></trkpt><trkpt lat="38.7236741" lon="20.8956112"><ele>22.0</ele><time>2026-04-30T14:48:08.851Z</time></trkpt><trkpt lat="38.7238128" lon="20.895627"><ele>22.75</ele><time>2026-04-30T14:48:09.851Z</time></trkpt><trkpt lat="38.7239489" lon="20.8956614"><ele>23.5</ele><time>2026-04-30T14:48:10.851Z</time></trkpt><trkpt lat="38.7240815" lon="20.8957175"><ele>24.25</ele><time>2026-04-30T14:48:11.852Z</time></trkpt><trkpt lat="38.7242169" lon="20.8957816"><ele>25.0</ele><time>2026-04-30T14:48:12.851Z</time></trkpt><trkpt lat="38.7243481" lon="20.8958442"><ele>26.25</ele><time>2026-04-30T14:48:13.851Z</time></trkpt><trkpt lat="38.7244771" lon="20.8959024"><ele>27.5</ele><time>2026-04-30T14:48:14.851Z</time></trkpt><trkpt lat="38.7245989" lon="20.8959432"><ele>28.75</ele><time>2026-04-30T14:48:15.851Z</time></trkpt><trkpt lat="38.7247195" lon="20.8959603"><ele>30.0</ele><time>2026-04-30T14:48:16.852Z</time></trkpt><trkpt lat="38.7248524" lon="20.8959369"><ele>30.0</ele><time>2026-04-30T14:48:17.852Z</time></trkpt><trkpt lat="38.7249834" lon="20.8958704"><ele>30.0</ele><time>2026-04-30T14:48:18.851Z</time></trkpt><trkpt lat="38.7251033" lon="20.8957821"><ele>30.0</ele><time>2026-04-30T14:48:19.851Z</time></trkpt><trkpt lat="38.7252161" lon="20.8956847"><ele>30.0</ele><time>2026-04-30T14:48:20.852Z</time></trkpt><trkpt lat="38.7253261" lon="20.8955796"><ele>33.0</ele><time>2026-04-30T14:48:21.851Z</time></trkpt><trkpt lat="38.7254379" lon="20.8955018"><ele>36.0</ele><time>2026-04-30T14:48:22.851Z</time></trkpt><trkpt lat="38.7255531" lon="20.8954276"><ele>39.0</ele><time>2026-04-30T14:48:23.851Z</time></trkpt><trkpt lat="38.725672" lon="20.8953822"><ele>42.0</ele><time>2026-04-30T14:48:24.85Z</time></trkpt><trkpt lat="38.7258097" lon="20.895361"><ele>42.0</ele><time>2026-04-30T14:48:25.851Z</time></trkpt><trkpt lat="38.7259573" lon="20.8953493"><ele>42.0</ele><time>2026-04-30T14:48:26.851Z</time></trkpt><trkpt lat="38.7260918" lon="20.8953547"><ele>42.0</ele><time>2026-04-30T14:48:27.852Z</time></trkpt><trkpt lat="38.7262316" lon="20.8953619"><ele>42.0</ele><time>2026-04-30T14:48:28.851Z</time></trkpt><trkpt lat="38.7263713" lon="20.8953707"><ele>45.0</ele><time>2026-04-30T14:48:29.852Z</time></trkpt><trkpt lat="38.7265183" lon="20.8953984"><ele>48.0</ele><time>2026-04-30T14:48:30.851Z</time></trkpt><trkpt lat="38.7266676" lon="20.8954511"><ele>51.0</ele><time>2026-04-30T14:48:31.851Z</time></trkpt><trkpt lat="38.7268223" lon="20.8955133"><ele>50.0</ele><time>2026-04-30T14:48:32.851Z</time></trkpt><trkpt lat="38.7269808" lon="20.8955871"><ele>49.0</ele><time>2026-04-30T14:48:33.851Z</time></trkpt><trkpt lat="38.7271285" lon="20.8956655"><ele>48.0</ele><time>2026-04-30T14:48:34.851Z</time></trkpt><trkpt lat="38.7272656" lon="20.895735"><ele>48.0</ele><time>2026-04-30T14:48:35.852Z</time></trkpt><trkpt lat="38.7273928" lon="20.8958042"><ele>48.0</ele><time>2026-04-30T14:48:36.851Z</time></trkpt><trkpt lat="38.7275064" lon="20.8958821"><ele>48.0</ele><time>2026-04-30T14:48:37.85Z</time></trkpt><trkpt lat="38.727615" lon="20.8959631"><ele>48.0</ele><time>2026-04-30T14:48:38.852Z</time></trkpt><trkpt lat="38.7276985" lon="20.8960903"><ele>51.25</ele><time>2026-04-30T14:48:39.851Z</time></trkpt><trkpt lat="38.7277681" lon="20.8962144"><ele>54.5</ele><time>2026-04-30T14:48:40.852Z</time></trkpt><trkpt lat="38.7278236" lon="20.896342"><ele>57.75</ele><time>2026-04-30T14:48:41.852Z</time></trkpt><trkpt lat="38.7278978" lon="20.8964603"><ele>61.0</ele><time>2026-04-30T14:48:42.852Z</time></trkpt><trkpt lat="38.7279884" lon="20.8965523"><ele>61.0</ele><time>2026-04-30T14:48:43.85Z</time></trkpt><trkpt lat="38.7281089" lon="20.896602"><ele>61.0</ele><time>2026-04-30T14:48:44.851Z</time></trkpt><trkpt lat="38.728237" lon="20.8966279"><ele>61.0</ele><time>2026-04-30T14:48:45.852Z</time></trkpt><trkpt lat="38.7283793" lon="20.8966407"><ele>61.0</ele><time>2026-04-30T14:48:46.852Z</time></trkpt><trkpt lat="38.7285275" lon="20.8966681"><ele>58.33333333333333</ele><time>2026-04-30T14:48:47.851Z</time></trkpt><trkpt lat="38.7286802" lon="20.8967195"><ele>55.66666666666667</ele><time>2026-04-30T14:48:48.852Z</time></trkpt><trkpt lat="38.7288225" lon="20.8967868"><ele>53.0</ele><time>2026-04-30T14:48:49.85Z</time></trkpt><trkpt lat="38.7289727" lon="20.896858"><ele>60.333333333333336</ele><time>2026-04-30T14:48:50.85Z</time></trkpt><trkpt lat="38.7291235" lon="20.8969322"><ele>67.66666666666667</ele><time>2026-04-30T14:48:51.85Z</time></trkpt><trkpt lat="38.7292822" lon="20.8970124"><ele>75.0</ele><time>2026-04-30T14:48:52.851Z</time></trkpt><trkpt lat="38.7294408" lon="20.8970797"><ele>75.66666666666667</ele><time>2026-04-30T14:48:53.851Z</time></trkpt><trkpt lat="38.7296029" lon="20.8971301"><ele>76.33333333333334</ele><time>2026-04-30T14:48:54.852Z</time></trkpt><trkpt lat="38.7297618" lon="20.8971631"><ele>77.0</ele><time>2026-04-30T14:48:55.852Z</time></trkpt><trkpt lat="38.7299264" lon="20.8971619"><ele>77.0</ele><time>2026-04-30T14:48:56.852Z</time></trkpt><trkpt lat="38.7300957" lon="20.8971287"><ele>77.0</ele><time>2026-04-30T14:48:57.851Z</time></trkpt><trkpt lat="38.7302656" lon="20.8970687"><ele>77.0</ele><time>2026-04-30T14:48:58.851Z</time></trkpt><trkpt lat="38.7304335" lon="20.896992"><ele>82.33333333333334</ele><time>2026-04-30T14:48:59.852Z</time></trkpt><trkpt lat="38.7305954" lon="20.8969084"><ele>87.66666666666667</ele><time>2026-04-30T14:49:00.852Z</time></trkpt><trkpt lat="38.7307529" lon="20.8968278"><ele>93.0</ele><time>2026-04-30T14:49:01.851Z</time></trkpt><trkpt lat="38.730911" lon="20.8967733"><ele>86.66666666666667</ele><time>2026-04-30T14:49:02.851Z</time></trkpt><trkpt lat="38.7310742" lon="20.8967492"><ele>80.33333333333334</ele><time>2026-04-30T14:49:03.852Z</time></trkpt><trkpt lat="38.7312411" lon="20.8967139"><ele>74.0</ele><time>2026-04-30T14:49:04.852Z</time></trkpt><trkpt lat="38.7314035" lon="20.896694"><ele>74.0</ele><time>2026-04-30T14:49:05.85Z</time></trkpt><trkpt lat="38.7315652" lon="20.8966729"><ele>74.0</ele><time>2026-04-30T14:49:06.852Z</time></trkpt><trkpt lat="38.7317372" lon="20.8966554"><ele>74.0</ele><time>2026-04-30T14:49:07.851Z</time></trkpt><trkpt lat="38.7319155" lon="20.8966359"><ele>77.33333333333334</ele><time>2026-04-30T14:49:08.851Z</time></trkpt><trkpt lat="38.7320933" lon="20.8966141"><ele>80.66666666666667</ele><time>2026-04-30T14:49:09.852Z</time></trkpt><trkpt lat="38.7322651" lon="20.8965888"><ele>84.0</ele><time>2026-04-30T14:49:10.851Z</time></trkpt><trkpt lat="38.732436" lon="20.8965675"><ele>84.0</ele><time>2026-04-30T14:49:11.851Z</time></trkpt><trkpt lat="38.732607" lon="20.8965546"><ele>84.0</ele><time>2026-04-30T14:49:12.85Z</time></trkpt><trkpt lat="38.7327819" lon="20.8965517"><ele>84.0</ele><time>2026-04-30T14:49:13.851Z</time></trkpt><trkpt lat="38.7329542" lon="20.8965717"><ele>85.75</ele><time>2026-04-30T14:49:14.852Z</time></trkpt><trkpt lat="38.7331054" lon="20.8965926"><ele>87.5</ele><time>2026-04-30T14:49:15.852Z</time></trkpt><trkpt lat="38.7332471" lon="20.8966112"><ele>89.25</ele><time>2026-04-30T14:49:16.852Z</time></trkpt><trkpt lat="38.7333791" lon="20.8965957"><ele>91.0</ele><time>2026-04-30T14:49:17.852Z</time></trkpt><trkpt lat="38.7335068" lon="20.8965393"><ele>95.5</ele><time>2026-04-30T14:49:18.852Z</time></trkpt><trkpt lat="38.7336229" lon="20.8964453"><ele>100.0</ele><time>2026-04-30T14:49:19.851Z</time></trkpt><trkpt lat="38.7337325" lon="20.8962977"><ele>104.5</ele><time>2026-04-30T14:49:20.852Z</time></trkpt><trkpt lat="38.7338245" lon="20.8961418"><ele>109.0</ele><time>2026-04-30T14:49:21.852Z</time></trkpt><trkpt lat="38.7339168" lon="20.8960016"><ele>105.0</ele><time>2026-04-30T14:49:22.851Z</time></trkpt><trkpt lat="38.7340088" lon="20.8958647"><ele>101.0</ele><time>2026-04-30T14:49:23.851Z</time></trkpt><trkpt lat="38.7341109" lon="20.8957607"><ele>97.0</ele><time>2026-04-30T14:49:24.851Z</time></trkpt><trkpt lat="38.7342264" lon="20.895679"><ele>93.0</ele><time>2026-04-30T14:49:25.852Z</time></trkpt><trkpt lat="38.734361" lon="20.8956135"><ele>95.33333333333334</ele><time>2026-04-30T14:49:26.851Z</time></trkpt><trkpt lat="38.7345117" lon="20.895554"><ele>97.66666666666667</ele><time>2026-04-30T14:49:27.852Z</time></trkpt><trkpt lat="38.7346571" lon="20.8955148"><ele>100.0</ele><time>2026-04-30T14:49:28.852Z</time></trkpt><trkpt lat="38.7348083" lon="20.8954597"><ele>100.0</ele><time>2026-04-30T14:49:29.852Z</time></trkpt><trkpt lat="38.7349597" lon="20.8953952"><ele>100.0</ele><time>2026-04-30T14:49:30.851Z</time></trkpt><trkpt lat="38.7351066" lon="20.8953179"><ele>100.0</ele><time>2026-04-30T14:49:31.851Z</time></trkpt><trkpt lat="38.7352583" lon="20.8952344"><ele>99.5</ele><time>2026-04-30T14:49:32.852Z</time></trkpt><trkpt lat="38.7353968" lon="20.8951507"><ele>99.0</ele><time>2026-04-30T14:49:33.852Z</time></trkpt><trkpt lat="38.7355175" lon="20.8950913"><ele>98.5</ele><time>2026-04-30T14:49:34.852Z</time></trkpt><trkpt lat="38.7356382" lon="20.8950488"><ele>98.0</ele><time>2026-04-30T14:49:35.852Z</time></trkpt><trkpt lat="38.7357711" lon="20.8950379"><ele>96.25</ele><time>2026-04-30T14:49:36.851Z</time></trkpt><trkpt lat="38.7359118" lon="20.8950736"><ele>94.5</ele><time>2026-04-30T14:49:37.852Z</time></trkpt><trkpt lat="38.7360561" lon="20.8951243"><ele>92.75</ele><time>2026-04-30T14:49:38.851Z</time></trkpt><trkpt lat="38.7361994" lon="20.8951778"><ele>91.0</ele><time>2026-04-30T14:49:39.851Z</time></trkpt><trkpt lat="38.736348" lon="20.8952374"><ele>91.0</ele><time>2026-04-30T14:49:40.852Z</time></trkpt><trkpt lat="38.7364887" lon="20.8952924"><ele>91.0</ele><time>2026-04-30T14:49:41.852Z</time></trkpt><trkpt lat="38.7366264" lon="20.8953377"><ele>91.0</ele><time>2026-04-30T14:49:42.852Z</time></trkpt><trkpt lat="38.7367722" lon="20.8953622"><ele>91.0</ele><time>2026-04-30T14:49:43.852Z</time></trkpt><trkpt lat="38.7369109" lon="20.8953405"><ele>91.66666666666666</ele><time>2026-04-30T14:49:44.851Z</time></trkpt><trkpt lat="38.7370581" lon="20.8952843"><ele>92.33333333333333</ele><time>2026-04-30T14:49:45.852Z</time></trkpt><trkpt lat="38.7372002" lon="20.8951929"><ele>93.0</ele><time>2026-04-30T14:49:46.851Z</time></trkpt><trkpt lat="38.7373432" lon="20.8950965"><ele>90.5</ele><time>2026-04-30T14:49:47.851Z</time></trkpt><trkpt lat="38.7374756" lon="20.894999"><ele>88.0</ele><time>2026-04-30T14:49:48.851Z</time></trkpt><trkpt lat="38.7376066" lon="20.8949063"><ele>85.5</ele><time>2026-04-30T14:49:49.851Z</time></trkpt><trkpt lat="38.7377316" lon="20.8948467"><ele>83.0</ele><time>2026-04-30T14:49:50.851Z</time></trkpt><trkpt lat="38.7378625" lon="20.8948188"><ele>83.0</ele><time>2026-04-30T14:49:51.851Z</time></trkpt><trkpt lat="38.7379892" lon="20.8948295"><ele>83.0</ele><time>2026-04-30T14:49:52.851Z</time></trkpt><trkpt lat="38.738116" lon="20.8948649"><ele>83.0</ele><time>2026-04-30T14:49:53.851Z</time></trkpt><trkpt lat="38.7382363" lon="20.8948891"><ele>83.0</ele><time>2026-04-30T14:49:54.852Z</time></trkpt><trkpt lat="38.7383614" lon="20.8948916"><ele>83.0</ele><time>2026-04-30T14:49:55.851Z</time></trkpt><trkpt lat="38.7384725" lon="20.8948518"><ele>83.0</ele><time>2026-04-30T14:49:56.851Z</time></trkpt><trkpt lat="38.7385667" lon="20.894767"><ele>83.0</ele><time>2026-04-30T14:49:57.851Z</time></trkpt><trkpt lat="38.7386545" lon="20.8946448"><ele>83.0</ele><time>2026-04-30T14:49:58.852Z</time></trkpt><trkpt lat="38.7387384" lon="20.8944903"><ele>82.0</ele><time>2026-04-30T14:49:59.852Z</time></trkpt><trkpt lat="38.7388195" lon="20.894336"><ele>81.0</ele><time>2026-04-30T14:50:00.851Z</time></trkpt><trkpt lat="38.7389052" lon="20.894184"><ele>80.0</ele><time>2026-04-30T14:50:01.852Z</time></trkpt><trkpt lat="38.7389972" lon="20.8940491"><ele>79.0</ele><time>2026-04-30T14:50:02.851Z</time></trkpt><trkpt lat="38.739098" lon="20.8939383"><ele>79.0</ele><time>2026-04-30T14:50:03.851Z</time></trkpt><trkpt lat="38.7392231" lon="20.8938668"><ele>79.0</ele><time>2026-04-30T14:50:04.851Z</time></trkpt><trkpt lat="38.7393696" lon="20.8938266"><ele>79.0</ele><time>2026-04-30T14:50:05.851Z</time></trkpt><trkpt lat="38.7395284" lon="20.8937947"><ele>79.0</ele><time>2026-04-30T14:50:06.851Z</time></trkpt><trkpt lat="38.7396924" lon="20.8937732"><ele>79.66666666666666</ele><time>2026-04-30T14:50:07.852Z</time></trkpt><trkpt lat="38.739849" lon="20.8937477"><ele>80.33333333333333</ele><time>2026-04-30T14:50:08.852Z</time></trkpt><trkpt lat="38.7400129" lon="20.8937093"><ele>81.0</ele><time>2026-04-30T14:50:09.852Z</time></trkpt><trkpt lat="38.740179" lon="20.893622"><ele>80.0</ele><time>2026-04-30T14:50:10.852Z</time></trkpt><trkpt lat="38.7403334" lon="20.893525"><ele>79.0</ele><time>2026-04-30T14:50:11.852Z</time></trkpt><trkpt lat="38.740497" lon="20.8933928"><ele>78.0</ele><time>2026-04-30T14:50:12.851Z</time></trkpt><trkpt lat="38.7406574" lon="20.8932686"><ele>78.0</ele><time>2026-04-30T14:50:13.852Z</time></trkpt><trkpt lat="38.7408215" lon="20.8931359"><ele>78.0</ele><time>2026-04-30T14:50:14.851Z</time></trkpt><trkpt lat="38.7409841" lon="20.8930015"><ele>78.0</ele><time>2026-04-30T14:50:15.851Z</time></trkpt><trkpt lat="38.7411472" lon="20.892859"><ele>78.66666666666667</ele><time>2026-04-30T14:50:16.851Z</time></trkpt><trkpt lat="38.7413225" lon="20.8927184"><ele>79.33333333333334</ele><time>2026-04-30T14:50:17.85Z</time></trkpt><trkpt lat="38.7414891" lon="20.8925771"><ele>80.0</ele><time>2026-04-30T14:50:18.852Z</time></trkpt><trkpt lat="38.7416587" lon="20.8924378"><ele>78.66666666666667</ele><time>2026-04-30T14:50:19.851Z</time></trkpt><trkpt lat="38.7418255" lon="20.8923"><ele>77.33333333333333</ele><time>2026-04-30T14:50:20.852Z</time></trkpt><trkpt lat="38.7419812" lon="20.8921585"><ele>76.0</ele><time>2026-04-30T14:50:21.851Z</time></trkpt><trkpt lat="38.7421509" lon="20.8920169"><ele>76.0</ele><time>2026-04-30T14:50:22.852Z</time></trkpt><trkpt lat="38.7423279" lon="20.8918918"><ele>76.0</ele><time>2026-04-30T14:50:23.85Z</time></trkpt><trkpt lat="38.7425077" lon="20.8917839"><ele>76.0</ele><time>2026-04-30T14:50:24.852Z</time></trkpt><trkpt lat="38.742695" lon="20.8916866"><ele>73.33333333333333</ele><time>2026-04-30T14:50:25.851Z</time></trkpt><trkpt lat="38.7428804" lon="20.8915899"><ele>70.66666666666667</ele><time>2026-04-30T14:50:26.852Z</time></trkpt><trkpt lat="38.7430725" lon="20.8914993"><ele>68.0</ele><time>2026-04-30T14:50:27.852Z</time></trkpt><trkpt lat="38.7432662" lon="20.8914002"><ele>68.0</ele><time>2026-04-30T14:50:28.851Z</time></trkpt><trkpt lat="38.7434608" lon="20.8912865"><ele>68.0</ele><time>2026-04-30T14:50:29.851Z</time></trkpt><trkpt lat="38.7436593" lon="20.8911921"><ele>68.0</ele><time>2026-04-30T14:50:30.851Z</time></trkpt><trkpt lat="38.7438545" lon="20.8910983"><ele>68.33333333333334</ele><time>2026-04-30T14:50:31.851Z</time></trkpt><trkpt lat="38.7440519" lon="20.8910057"><ele>68.66666666666667</ele><time>2026-04-30T14:50:32.852Z</time></trkpt><trkpt lat="38.7442453" lon="20.8909153"><ele>69.0</ele><time>2026-04-30T14:50:33.851Z</time></trkpt><trkpt lat="38.7444453" lon="20.8908353"><ele>69.0</ele><time>2026-04-30T14:50:34.851Z</time></trkpt><trkpt lat="38.7446431" lon="20.8907612"><ele>69.0</ele><time>2026-04-30T14:50:35.851Z</time></trkpt><trkpt lat="38.7448405" lon="20.890693"><ele>69.0</ele><time>2026-04-30T14:50:36.852Z</time></trkpt><trkpt lat="38.7450314" lon="20.8906345"><ele>69.0</ele><time>2026-04-30T14:50:37.852Z</time></trkpt><trkpt lat="38.7452244" lon="20.89057"><ele>69.0</ele><time>2026-04-30T14:50:38.852Z</time></trkpt><trkpt lat="38.7454165" lon="20.8904826"><ele>69.0</ele><time>2026-04-30T14:50:39.851Z</time></trkpt><trkpt lat="38.7456109" lon="20.8903804"><ele>69.0</ele><time>2026-04-30T14:50:40.851Z</time></trkpt><trkpt lat="38.7458008" lon="20.890274"><ele>69.0</ele><time>2026-04-30T14:50:41.852Z</time></trkpt><trkpt lat="38.7459882" lon="20.8901627"><ele>69.0</ele><time>2026-04-30T14:50:42.852Z</time></trkpt><trkpt lat="38.7461767" lon="20.8900553"><ele>69.66666666666667</ele><time>2026-04-30T14:50:43.852Z</time></trkpt><trkpt lat="38.7463655" lon="20.8899376"><ele>70.33333333333334</ele><time>2026-04-30T14:50:44.851Z</time></trkpt><trkpt lat="38.7465487" lon="20.8898205"><ele>71.0</ele><time>2026-04-30T14:50:45.851Z</time></trkpt><trkpt lat="38.7467258" lon="20.8897043"><ele>73.66666666666667</ele><time>2026-04-30T14:50:46.852Z</time></trkpt><trkpt lat="38.7469037" lon="20.8895946"><ele>76.33333333333333</ele><time>2026-04-30T14:50:47.851Z</time></trkpt><trkpt lat="38.747072" lon="20.8894817"><ele>79.0</ele><time>2026-04-30T14:50:48.852Z</time></trkpt><trkpt lat="38.7472354" lon="20.8893695"><ele>76.0</ele><time>2026-04-30T14:50:49.852Z</time></trkpt><trkpt lat="38.7473919" lon="20.8892524"><ele>73.0</ele><time>2026-04-30T14:50:50.851Z</time></trkpt><trkpt lat="38.7475417" lon="20.8891172"><ele>70.0</ele><time>2026-04-30T14:50:51.852Z</time></trkpt><trkpt lat="38.7476849" lon="20.888987"><ele>71.33333333333333</ele><time>2026-04-30T14:50:52.851Z</time></trkpt><trkpt lat="38.7478296" lon="20.888861"><ele>72.66666666666667</ele><time>2026-04-30T14:50:53.852Z</time></trkpt><trkpt lat="38.7479667" lon="20.8887417"><ele>74.0</ele><time>2026-04-30T14:50:54.852Z</time></trkpt><trkpt lat="38.7481014" lon="20.8886291"><ele>74.0</ele><time>2026-04-30T14:50:55.852Z</time></trkpt><trkpt lat="38.7482345" lon="20.8885255"><ele>74.0</ele><time>2026-04-30T14:50:56.851Z</time></trkpt><trkpt lat="38.7483686" lon="20.888446"><ele>74.0</ele><time>2026-04-30T14:50:57.851Z</time></trkpt><trkpt lat="38.748509" lon="20.8883893"><ele>70.33333333333334</ele><time>2026-04-30T14:50:58.851Z</time></trkpt><trkpt lat="38.7486566" lon="20.8883584"><ele>66.66666666666667</ele><time>2026-04-30T14:50:59.851Z</time></trkpt><trkpt lat="38.7488183" lon="20.8883441"><ele>63.0</ele><time>2026-04-30T14:51:00.852Z</time></trkpt><trkpt lat="38.7489879" lon="20.8883401"><ele>63.0</ele><time>2026-04-30T14:51:01.851Z</time></trkpt><trkpt lat="38.7491531" lon="20.888344"><ele>63.0</ele><time>2026-04-30T14:51:02.852Z</time></trkpt><trkpt lat="38.7493248" lon="20.8883484"><ele>63.0</ele><time>2026-04-30T14:51:03.852Z</time></trkpt><trkpt lat="38.7495037" lon="20.8883525"><ele>62.33333333333333</ele><time>2026-04-30T14:51:04.851Z</time></trkpt><trkpt lat="38.749683" lon="20.8883447"><ele>61.666666666666664</ele><time>2026-04-30T14:51:05.851Z</time></trkpt><trkpt lat="38.7498605" lon="20.8883394"><ele>61.0</ele><time>2026-04-30T14:51:06.851Z</time></trkpt><trkpt lat="38.7500359" lon="20.8883466"><ele>60.666666666666664</ele><time>2026-04-30T14:51:07.852Z</time></trkpt><trkpt lat="38.7502131" lon="20.8883471"><ele>60.33333333333333</ele><time>2026-04-30T14:51:08.851Z</time></trkpt><trkpt lat="38.7503962" lon="20.8883462"><ele>60.0</ele><time>2026-04-30T14:51:09.852Z</time></trkpt><trkpt lat="38.7505722" lon="20.8883492"><ele>60.0</ele><time>2026-04-30T14:51:10.851Z</time></trkpt><trkpt lat="38.7507442" lon="20.8883521"><ele>60.0</ele><time>2026-04-30T14:51:11.851Z</time></trkpt><trkpt lat="38.7509066" lon="20.8883548"><ele>60.0</ele><time>2026-04-30T14:51:12.852Z</time></trkpt><trkpt lat="38.751048" lon="20.8883484"><ele>62.25</ele><time>2026-04-30T14:51:13.852Z</time></trkpt><trkpt lat="38.7511736" lon="20.8883447"><ele>64.5</ele><time>2026-04-30T14:51:14.851Z</time></trkpt><trkpt lat="38.7512855" lon="20.8883177"><ele>66.75</ele><time>2026-04-30T14:51:15.851Z</time></trkpt><trkpt lat="38.7513845" lon="20.888254"><ele>69.0</ele><time>2026-04-30T14:51:16.851Z</time></trkpt><trkpt lat="38.7514603" lon="20.8881481"><ele>69.0</ele><time>2026-04-30T14:51:17.851Z</time></trkpt><trkpt lat="38.7515094" lon="20.8880116"><ele>69.0</ele><time>2026-04-30T14:51:18.851Z</time></trkpt><trkpt lat="38.7515325" lon="20.8878393"><ele>69.0</ele><time>2026-04-30T14:51:19.852Z</time></trkpt><trkpt lat="38.7515317" lon="20.8876608"><ele>69.0</ele><time>2026-04-30T14:51:20.852Z</time></trkpt><trkpt lat="38.7515318" lon="20.8874787"><ele>67.25</ele><time>2026-04-30T14:51:21.852Z</time></trkpt><trkpt lat="38.751533" lon="20.8873001"><ele>65.5</ele><time>2026-04-30T14:51:22.851Z</time></trkpt><trkpt lat="38.7515482" lon="20.8871363"><ele>63.75</ele><time>2026-04-30T14:51:23.851Z</time></trkpt><trkpt lat="38.7515874" lon="20.8870008"><ele>62.0</ele><time>2026-04-30T14:51:24.851Z</time></trkpt><trkpt lat="38.7516613" lon="20.886859"><ele>61.0</ele><time>2026-04-30T14:51:25.852Z</time></trkpt><trkpt lat="38.7517328" lon="20.886732"><ele>60.0</ele><time>2026-04-30T14:51:26.851Z</time></trkpt><trkpt lat="38.7518812" lon="20.8866666"><ele>59.0</ele><time>2026-04-30T14:51:27.852Z</time></trkpt><trkpt lat="38.7520061" lon="20.886607"><ele>58.0</ele><time>2026-04-30T14:51:28.851Z</time></trkpt><trkpt lat="38.7521681" lon="20.8865899"><ele>58.0</ele><time>2026-04-30T14:51:29.852Z</time></trkpt><trkpt lat="38.7523435" lon="20.8865614"><ele>58.0</ele><time>2026-04-30T14:51:30.851Z</time></trkpt><trkpt lat="38.752519" lon="20.886548"><ele>58.0</ele><time>2026-04-30T14:51:31.852Z</time></trkpt><trkpt lat="38.7527016" lon="20.8865268"><ele>58.33333333333333</ele><time>2026-04-30T14:51:32.852Z</time></trkpt><trkpt lat="38.7528858" lon="20.8865134"><ele>58.66666666666667</ele><time>2026-04-30T14:51:33.851Z</time></trkpt><trkpt lat="38.7530796" lon="20.8864847"><ele>59.0</ele><time>2026-04-30T14:51:34.851Z</time></trkpt><trkpt lat="38.7532743" lon="20.8864682"><ele>59.0</ele><time>2026-04-30T14:51:35.851Z</time></trkpt><trkpt lat="38.753474" lon="20.8864409"><ele>59.0</ele><time>2026-04-30T14:51:36.852Z</time></trkpt><trkpt lat="38.7536731" lon="20.8864245"><ele>59.0</ele><time>2026-04-30T14:51:37.851Z</time></trkpt><trkpt lat="38.7538732" lon="20.8864127"><ele>56.0</ele><time>2026-04-30T14:51:38.851Z</time></trkpt><trkpt lat="38.754079" lon="20.8863958"><ele>53.0</ele><time>2026-04-30T14:51:39.852Z</time></trkpt><trkpt lat="38.7542846" lon="20.8863764"><ele>50.0</ele><time>2026-04-30T14:51:40.851Z</time></trkpt><trkpt lat="38.7544893" lon="20.8863499"><ele>48.66666666666667</ele><time>2026-04-30T14:51:41.852Z</time></trkpt><trkpt lat="38.7546894" lon="20.8863253"><ele>47.333333333333336</ele><time>2026-04-30T14:51:42.852Z</time></trkpt><trkpt lat="38.7548892" lon="20.8863064"><ele>46.0</ele><time>2026-04-30T14:51:43.85Z</time></trkpt><trkpt lat="38.7550954" lon="20.8862869"><ele>46.66666666666667</ele><time>2026-04-30T14:51:44.852Z</time></trkpt><trkpt lat="38.7552991" lon="20.8862689"><ele>47.333333333333336</ele><time>2026-04-30T14:51:45.852Z</time></trkpt><trkpt lat="38.7555018" lon="20.886265"><ele>48.0</ele><time>2026-04-30T14:51:46.852Z</time></trkpt><trkpt lat="38.7557091" lon="20.8862544"><ele>48.0</ele><time>2026-04-30T14:51:47.852Z</time></trkpt><trkpt lat="38.7559079" lon="20.8862542"><ele>48.0</ele><time>2026-04-30T14:51:48.851Z</time></trkpt><trkpt lat="38.7561076" lon="20.8862573"><ele>48.0</ele><time>2026-04-30T14:51:49.852Z</time></trkpt><trkpt lat="38.7563014" lon="20.8862505"><ele>48.33333333333333</ele><time>2026-04-30T14:51:50.851Z</time></trkpt><trkpt lat="38.7564999" lon="20.8862344"><ele>48.666666666666664</ele><time>2026-04-30T14:51:51.852Z</time></trkpt><trkpt lat="38.7566871" lon="20.8861935"><ele>49.0</ele><time>2026-04-30T14:51:52.851Z</time></trkpt><trkpt lat="38.7568712" lon="20.8861668"><ele>49.33333333333333</ele><time>2026-04-30T14:51:53.852Z</time></trkpt><trkpt lat="38.7570427" lon="20.8861476"><ele>49.66666666666667</ele><time>2026-04-30T14:51:54.852Z</time></trkpt><trkpt lat="38.7572081" lon="20.8861274"><ele>50.0</ele><time>2026-04-30T14:51:55.852Z</time></trkpt><trkpt lat="38.7573593" lon="20.8861168"><ele>50.0</ele><time>2026-04-30T14:51:56.852Z</time></trkpt><trkpt lat="38.757499" lon="20.8861071"><ele>50.0</ele><time>2026-04-30T14:51:57.847Z</time></trkpt><trkpt lat="38.7576322" lon="20.8860777"><ele>50.0</ele><time>2026-04-30T14:51:58.85Z</time></trkpt><trkpt lat="38.7577445" lon="20.8860342"><ele>50.0</ele><time>2026-04-30T14:51:59.851Z</time></trkpt><trkpt lat="38.7578429" lon="20.8859523"><ele>49.5</ele><time>2026-04-30T14:52:00.852Z</time></trkpt><trkpt lat="38.7579359" lon="20.8858288"><ele>49.0</ele><time>2026-04-30T14:52:01.852Z</time></trkpt><trkpt lat="38.7580285" lon="20.8856801"><ele>48.5</ele><time>2026-04-30T14:52:02.851Z</time></trkpt><trkpt lat="38.7581202" lon="20.8855076"><ele>48.0</ele><time>2026-04-30T14:52:03.852Z</time></trkpt><trkpt lat="38.7582209" lon="20.8853167"><ele>48.0</ele><time>2026-04-30T14:52:04.85Z</time></trkpt><trkpt lat="38.7583224" lon="20.8851179"><ele>48.0</ele><time>2026-04-30T14:52:05.851Z</time></trkpt><trkpt lat="38.7584231" lon="20.8849291"><ele>48.0</ele><time>2026-04-30T14:52:06.851Z</time></trkpt><trkpt lat="38.7585148" lon="20.8847472"><ele>49.25</ele><time>2026-04-30T14:52:07.852Z</time></trkpt><trkpt lat="38.7586047" lon="20.8845742"><ele>50.5</ele><time>2026-04-30T14:52:08.852Z</time></trkpt><trkpt lat="38.7586922" lon="20.8844126"><ele>51.75</ele><time>2026-04-30T14:52:09.851Z</time></trkpt><trkpt lat="38.7587798" lon="20.8842875"><ele>53.0</ele><time>2026-04-30T14:52:10.852Z</time></trkpt><trkpt lat="38.7588849" lon="20.8841763"><ele>49.66666666666667</ele><time>2026-04-30T14:52:11.851Z</time></trkpt><trkpt lat="38.7590117" lon="20.8840805"><ele>46.333333333333336</ele><time>2026-04-30T14:52:12.851Z</time></trkpt><trkpt lat="38.75915" lon="20.8839965"><ele>43.0</ele><time>2026-04-30T14:52:13.851Z</time></trkpt><trkpt lat="38.7592915" lon="20.8839018"><ele>45.0</ele><time>2026-04-30T14:52:14.851Z</time></trkpt><trkpt lat="38.7594309" lon="20.8838138"><ele>47.0</ele><time>2026-04-30T14:52:15.852Z</time></trkpt><trkpt lat="38.7595779" lon="20.8837255"><ele>49.0</ele><time>2026-04-30T14:52:16.851Z</time></trkpt><trkpt lat="38.759726" lon="20.8836265"><ele>49.0</ele><time>2026-04-30T14:52:17.85Z</time></trkpt><trkpt lat="38.7598763" lon="20.883533"><ele>49.0</ele><time>2026-04-30T14:52:18.852Z</time></trkpt><trkpt lat="38.7600268" lon="20.8834389"><ele>49.0</ele><time>2026-04-30T14:52:19.851Z</time></trkpt><trkpt lat="38.7601854" lon="20.8833432"><ele>47.33333333333333</ele><time>2026-04-30T14:52:20.851Z</time></trkpt><trkpt lat="38.7603568" lon="20.8832254"><ele>45.666666666666664</ele><time>2026-04-30T14:52:21.852Z</time></trkpt><trkpt lat="38.7605127" lon="20.8831302"><ele>44.0</ele><time>2026-04-30T14:52:22.851Z</time></trkpt><trkpt lat="38.7606683" lon="20.8830337"><ele>44.0</ele><time>2026-04-30T14:52:23.852Z</time></trkpt><trkpt lat="38.7608291" lon="20.8829465"><ele>44.0</ele><time>2026-04-30T14:52:24.852Z</time></trkpt><trkpt lat="38.7609808" lon="20.8828497"><ele>44.0</ele><time>2026-04-30T14:52:25.851Z</time></trkpt><trkpt lat="38.761137" lon="20.882747"><ele>42.0</ele><time>2026-04-30T14:52:26.851Z</time></trkpt><trkpt lat="38.7612889" lon="20.8826472"><ele>40.0</ele><time>2026-04-30T14:52:27.852Z</time></trkpt><trkpt lat="38.7614392" lon="20.8825503"><ele>38.0</ele><time>2026-04-30T14:52:28.852Z</time></trkpt><trkpt lat="38.7615941" lon="20.8824535"><ele>38.0</ele><time>2026-04-30T14:52:29.85Z</time></trkpt><trkpt lat="38.7617478" lon="20.8823617"><ele>38.0</ele><time>2026-04-30T14:52:30.851Z</time></trkpt><trkpt lat="38.7619022" lon="20.8822749"><ele>38.0</ele><time>2026-04-30T14:52:31.85Z</time></trkpt><trkpt lat="38.7620582" lon="20.8821944"><ele>38.666666666666664</ele><time>2026-04-30T14:52:32.852Z</time></trkpt><trkpt lat="38.7622249" lon="20.8821449"><ele>39.333333333333336</ele><time>2026-04-30T14:52:33.852Z</time></trkpt><trkpt lat="38.7623925" lon="20.8820997"><ele>40.0</ele><time>2026-04-30T14:52:34.852Z</time></trkpt><trkpt lat="38.7625673" lon="20.8820632"><ele>40.333333333333336</ele><time>2026-04-30T14:52:35.852Z</time></trkpt><trkpt lat="38.7627406" lon="20.8820253"><ele>40.666666666666664</ele><time>2026-04-30T14:52:36.852Z</time></trkpt><trkpt lat="38.7629101" lon="20.8819711"><ele>41.0</ele><time>2026-04-30T14:52:37.852Z</time></trkpt><trkpt lat="38.7630815" lon="20.8819333"><ele>41.0</ele><time>2026-04-30T14:52:38.852Z</time></trkpt><trkpt lat="38.7632555" lon="20.8818972"><ele>41.0</ele><time>2026-04-30T14:52:39.852Z</time></trkpt><trkpt lat="38.7634276" lon="20.8818643"><ele>41.0</ele><time>2026-04-30T14:52:40.852Z</time></trkpt><trkpt lat="38.7635995" lon="20.8818287"><ele>41.666666666666664</ele><time>2026-04-30T14:52:41.85Z</time></trkpt><trkpt lat="38.7637651" lon="20.88179"><ele>42.333333333333336</ele><time>2026-04-30T14:52:42.85Z</time></trkpt><trkpt lat="38.7639374" lon="20.8817487"><ele>43.0</ele><time>2026-04-30T14:52:43.851Z</time></trkpt><trkpt lat="38.7640995" lon="20.8817121"><ele>40.0</ele><time>2026-04-30T14:52:44.851Z</time></trkpt><trkpt lat="38.764259" lon="20.8816766"><ele>37.0</ele><time>2026-04-30T14:52:45.85Z</time></trkpt><trkpt lat="38.7644219" lon="20.8816421"><ele>34.0</ele><time>2026-04-30T14:52:46.851Z</time></trkpt><trkpt lat="38.7645819" lon="20.8815957"><ele>32.66666666666667</ele><time>2026-04-30T14:52:47.852Z</time></trkpt><trkpt lat="38.7647409" lon="20.8815728"><ele>31.333333333333336</ele><time>2026-04-30T14:52:48.852Z</time></trkpt><trkpt lat="38.764893" lon="20.8815613"><ele>30.0</ele><time>2026-04-30T14:52:49.851Z</time></trkpt><trkpt lat="38.7650476" lon="20.8815702"><ele>30.333333333333336</ele><time>2026-04-30T14:52:50.851Z</time></trkpt><trkpt lat="38.765203" lon="20.8816231"><ele>30.666666666666668</ele><time>2026-04-30T14:52:51.852Z</time></trkpt><trkpt lat="38.7653498" lon="20.8816914"><ele>31.0</ele><time>2026-04-30T14:52:52.851Z</time></trkpt><trkpt lat="38.7654913" lon="20.8817767"><ele>31.0</ele><time>2026-04-30T14:52:53.85Z</time></trkpt><trkpt lat="38.7656356" lon="20.8818695"><ele>31.0</ele><time>2026-04-30T14:52:54.85Z</time></trkpt><trkpt lat="38.7657879" lon="20.88196"><ele>31.0</ele><time>2026-04-30T14:52:55.852Z</time></trkpt><trkpt lat="38.7659473" lon="20.8820539"><ele>28.666666666666668</ele><time>2026-04-30T14:52:56.852Z</time></trkpt><trkpt lat="38.7661004" lon="20.8821475"><ele>26.333333333333336</ele><time>2026-04-30T14:52:57.852Z</time></trkpt><trkpt lat="38.7662425" lon="20.8822355"><ele>24.0</ele><time>2026-04-30T14:52:58.852Z</time></trkpt><trkpt lat="38.7663782" lon="20.8823225"><ele>24.0</ele><time>2026-04-30T14:52:59.851Z</time></trkpt><trkpt lat="38.7665016" lon="20.8824047"><ele>24.0</ele><time>2026-04-30T14:53:00.851Z</time></trkpt><trkpt lat="38.7666263" lon="20.8824613"><ele>24.0</ele><time>2026-04-30T14:53:01.851Z</time></trkpt><trkpt lat="38.7667404" lon="20.8824821"><ele>24.0</ele><time>2026-04-30T14:53:02.852Z</time></trkpt><trkpt lat="38.7668397" lon="20.8824666"><ele>28.0</ele><time>2026-04-30T14:53:03.85Z</time></trkpt><trkpt lat="38.766928" lon="20.8824131"><ele>32.0</ele><time>2026-04-30T14:53:04.851Z</time></trkpt><trkpt lat="38.7670052" lon="20.8823111"><ele>36.0</ele><time>2026-04-30T14:53:05.851Z</time></trkpt><trkpt lat="38.7670811" lon="20.8821722"><ele>40.0</ele><time>2026-04-30T14:53:06.852Z</time></trkpt><trkpt lat="38.7671567" lon="20.8820222"><ele>40.0</ele><time>2026-04-30T14:53:07.851Z</time></trkpt><trkpt lat="38.767229" lon="20.8818667"><ele>40.0</ele><time>2026-04-30T14:53:08.851Z</time></trkpt><trkpt lat="38.767308" lon="20.8817234"><ele>40.0</ele><time>2026-04-30T14:53:09.852Z</time></trkpt><trkpt lat="38.7673932" lon="20.88159"><ele>40.0</ele><time>2026-04-30T14:53:10.851Z</time></trkpt><trkpt lat="38.7675034" lon="20.8814693"><ele>38.5</ele><time>2026-04-30T14:53:11.852Z</time></trkpt><trkpt lat="38.7676174" lon="20.8813757"><ele>37.0</ele><time>2026-04-30T14:53:12.852Z</time></trkpt><trkpt lat="38.767743" lon="20.8812833"><ele>35.5</ele><time>2026-04-30T14:53:13.85Z</time></trkpt><trkpt lat="38.7678638" lon="20.8811981"><ele>34.0</ele><time>2026-04-30T14:53:14.852Z</time></trkpt><trkpt lat="38.7679796" lon="20.8811198"><ele>34.0</ele><time>2026-04-30T14:53:15.851Z</time></trkpt><trkpt lat="38.7681008" lon="20.8810698"><ele>34.0</ele><time>2026-04-30T14:53:16.851Z</time></trkpt><trkpt lat="38.7682175" lon="20.8810457"><ele>34.0</ele><time>2026-04-30T14:53:17.852Z</time></trkpt><trkpt lat="38.7683251" lon="20.8810787"><ele>34.0</ele><time>2026-04-30T14:53:18.851Z</time></trkpt><trkpt lat="38.7684403" lon="20.8811404"><ele>33.25</ele><time>2026-04-30T14:53:19.851Z</time></trkpt><trkpt lat="38.7685563" lon="20.8812096"><ele>32.5</ele><time>2026-04-30T14:53:20.85Z</time></trkpt><trkpt lat="38.7686702" lon="20.8812809"><ele>31.75</ele><time>2026-04-30T14:53:21.85Z</time></trkpt><trkpt lat="38.7687815" lon="20.8813387"><ele>31.0</ele><time>2026-04-30T14:53:22.852Z</time></trkpt><trkpt lat="38.768908" lon="20.8813616"><ele>31.0</ele><time>2026-04-30T14:53:23.85Z</time></trkpt><trkpt lat="38.7690435" lon="20.8813503"><ele>31.0</ele><time>2026-04-30T14:53:24.852Z</time></trkpt><trkpt lat="38.7691921" lon="20.8813037"><ele>31.0</ele><time>2026-04-30T14:53:25.85Z</time></trkpt><trkpt lat="38.7693414" lon="20.8812487"><ele>31.0</ele><time>2026-04-30T14:53:26.851Z</time></trkpt><trkpt lat="38.769492" lon="20.8811867"><ele>32.333333333333336</ele><time>2026-04-30T14:53:27.852Z</time></trkpt><trkpt lat="38.7696452" lon="20.8811287"><ele>33.666666666666664</ele><time>2026-04-30T14:53:28.851Z</time></trkpt><trkpt lat="38.7697985" lon="20.8810726"><ele>35.0</ele><time>2026-04-30T14:53:29.851Z</time></trkpt><trkpt lat="38.7699539" lon="20.8810332"><ele>35.0</ele><time>2026-04-30T14:53:30.849Z</time></trkpt><trkpt lat="38.7701139" lon="20.881008"><ele>35.0</ele><time>2026-04-30T14:53:31.852Z</time></trkpt><trkpt lat="38.7702784" lon="20.8809971"><ele>35.0</ele><time>2026-04-30T14:53:32.852Z</time></trkpt><trkpt lat="38.770439" lon="20.8810052"><ele>35.666666666666664</ele><time>2026-04-30T14:53:33.849Z</time></trkpt><trkpt lat="38.7705929" lon="20.8810221"><ele>36.333333333333336</ele><time>2026-04-30T14:53:34.852Z</time></trkpt><trkpt lat="38.7707434" lon="20.8810416"><ele>37.0</ele><time>2026-04-30T14:53:35.852Z</time></trkpt><trkpt lat="38.770896" lon="20.8810629"><ele>35.0</ele><time>2026-04-30T14:53:36.852Z</time></trkpt><trkpt lat="38.7710472" lon="20.8810833"><ele>33.0</ele><time>2026-04-30T14:53:37.852Z</time></trkpt><trkpt lat="38.7712045" lon="20.8811002"><ele>31.0</ele><time>2026-04-30T14:53:38.852Z</time></trkpt><trkpt lat="38.7713637" lon="20.8811194"><ele>31.0</ele><time>2026-04-30T14:53:39.851Z</time></trkpt><trkpt lat="38.7715245" lon="20.8811383"><ele>31.0</ele><time>2026-04-30T14:53:40.852Z</time></trkpt><trkpt lat="38.7716877" lon="20.8811572"><ele>31.0</ele><time>2026-04-30T14:53:41.852Z</time></trkpt><trkpt lat="38.7718549" lon="20.8811716"><ele>28.0</ele><time>2026-04-30T14:53:42.852Z</time></trkpt><trkpt lat="38.7720241" lon="20.8811849"><ele>25.0</ele><time>2026-04-30T14:53:43.852Z</time></trkpt><trkpt lat="38.7721929" lon="20.8811875"><ele>22.0</ele><time>2026-04-30T14:53:44.851Z</time></trkpt><trkpt lat="38.7723575" lon="20.8811702"><ele>22.0</ele><time>2026-04-30T14:53:45.851Z</time></trkpt><trkpt lat="38.7725153" lon="20.8811474"><ele>22.0</ele><time>2026-04-30T14:53:46.851Z</time></trkpt><trkpt lat="38.7726687" lon="20.8811278"><ele>22.0</ele><time>2026-04-30T14:53:47.851Z</time></trkpt><trkpt lat="38.7728177" lon="20.8811099"><ele>21.25</ele><time>2026-04-30T14:53:48.851Z</time></trkpt><trkpt lat="38.7729587" lon="20.8810854"><ele>20.5</ele><time>2026-04-30T14:53:49.852Z</time></trkpt><trkpt lat="38.7730975" lon="20.8810603"><ele>19.75</ele><time>2026-04-30T14:53:50.851Z</time></trkpt><trkpt lat="38.7732371" lon="20.8810403"><ele>19.0</ele><time>2026-04-30T14:53:51.851Z</time></trkpt><trkpt lat="38.7733707" lon="20.8810246"><ele>19.0</ele><time>2026-04-30T14:53:52.851Z</time></trkpt><trkpt lat="38.7734929" lon="20.8810086"><ele>19.0</ele><time>2026-04-30T14:53:53.852Z</time></trkpt><trkpt lat="38.7736203" lon="20.8810043"><ele>19.0</ele><time>2026-04-30T14:53:54.852Z</time></trkpt><trkpt lat="38.7737296" lon="20.8810167"><ele>19.0</ele><time>2026-04-30T14:53:55.851Z</time></trkpt><trkpt lat="38.7738191" lon="20.8810412"><ele>20.4</ele><time>2026-04-30T14:53:56.851Z</time></trkpt><trkpt lat="38.7738946" lon="20.8810976"><ele>21.799999999999997</ele><time>2026-04-30T14:53:57.851Z</time></trkpt><trkpt lat="38.7739628" lon="20.8811731"><ele>23.200000000000003</ele><time>2026-04-30T14:53:58.851Z</time></trkpt><trkpt lat="38.7740127" lon="20.8813142"><ele>24.6</ele><time>2026-04-30T14:53:59.851Z</time></trkpt><trkpt lat="38.774049" lon="20.8814469"><ele>26.0</ele><time>2026-04-30T14:54:00.852Z</time></trkpt><trkpt lat="38.7740994" lon="20.8815902"><ele>26.0</ele><time>2026-04-30T14:54:01.851Z</time></trkpt><trkpt lat="38.7741378" lon="20.8817233"><ele>26.0</ele><time>2026-04-30T14:54:02.851Z</time></trkpt><trkpt lat="38.7741863" lon="20.8818555"><ele>26.0</ele><time>2026-04-30T14:54:03.851Z</time></trkpt><trkpt lat="38.7742464" lon="20.8819771"><ele>26.0</ele><time>2026-04-30T14:54:04.852Z</time></trkpt><trkpt lat="38.774325" lon="20.8820667"><ele>26.0</ele><time>2026-04-30T14:54:05.849Z</time></trkpt><trkpt lat="38.7744172" lon="20.8821188"><ele>29.75</ele><time>2026-04-30T14:54:06.851Z</time></trkpt><trkpt lat="38.774539" lon="20.8821477"><ele>33.5</ele><time>2026-04-30T14:54:07.85Z</time></trkpt><trkpt lat="38.7746749" lon="20.8821621"><ele>37.25</ele><time>2026-04-30T14:54:08.85Z</time></trkpt><trkpt lat="38.7748097" lon="20.8821645"><ele>41.0</ele><time>2026-04-30T14:54:09.852Z</time></trkpt><trkpt lat="38.7749349" lon="20.8821671"><ele>41.0</ele><time>2026-04-30T14:54:10.851Z</time></trkpt><trkpt lat="38.775057" lon="20.8821712"><ele>41.0</ele><time>2026-04-30T14:54:11.851Z</time></trkpt><trkpt lat="38.7751838" lon="20.8821773"><ele>41.0</ele><time>2026-04-30T14:54:12.851Z</time></trkpt><trkpt lat="38.7753069" lon="20.8821808"><ele>41.0</ele><time>2026-04-30T14:54:13.85Z</time></trkpt><trkpt lat="38.7754171" lon="20.8822021"><ele>41.0</ele><time>2026-04-30T14:54:14.851Z</time></trkpt><trkpt lat="38.7755409" lon="20.8822142"><ele>41.0</ele><time>2026-04-30T14:54:15.85Z</time></trkpt><trkpt lat="38.7756645" lon="20.8822127"><ele>41.0</ele><time>2026-04-30T14:54:16.85Z</time></trkpt><trkpt lat="38.7757934" lon="20.8822197"><ele>41.0</ele><time>2026-04-30T14:54:17.852Z</time></trkpt><trkpt lat="38.7759216" lon="20.8822154"><ele>41.25</ele><time>2026-04-30T14:54:18.852Z</time></trkpt><trkpt lat="38.7760552" lon="20.8822204"><ele>41.5</ele><time>2026-04-30T14:54:19.85Z</time></trkpt><trkpt lat="38.7761952" lon="20.8822276"><ele>41.75</ele><time>2026-04-30T14:54:20.851Z</time></trkpt><trkpt lat="38.7763424" lon="20.882238"><ele>42.0</ele><time>2026-04-30T14:54:21.851Z</time></trkpt><trkpt lat="38.7764865" lon="20.8822676"><ele>42.0</ele><time>2026-04-30T14:54:22.85Z</time></trkpt><trkpt lat="38.77664" lon="20.8822996"><ele>42.0</ele><time>2026-04-30T14:54:23.852Z</time></trkpt><trkpt lat="38.7767801" lon="20.882325"><ele>42.0</ele><time>2026-04-30T14:54:24.851Z</time></trkpt><trkpt lat="38.7769179" lon="20.8823485"><ele>42.0</ele><time>2026-04-30T14:54:25.851Z</time></trkpt><trkpt lat="38.7770527" lon="20.88238"><ele>40.75</ele><time>2026-04-30T14:54:26.852Z</time></trkpt><trkpt lat="38.7771866" lon="20.8824146"><ele>39.5</ele><time>2026-04-30T14:54:27.851Z</time></trkpt><trkpt lat="38.7773092" lon="20.8824546"><ele>38.25</ele><time>2026-04-30T14:54:28.852Z</time></trkpt><trkpt lat="38.7774244" lon="20.8824986"><ele>37.0</ele><time>2026-04-30T14:54:29.852Z</time></trkpt><trkpt lat="38.7775315" lon="20.8825532"><ele>37.5</ele><time>2026-04-30T14:54:30.85Z</time></trkpt><trkpt lat="38.7776329" lon="20.8826386"><ele>38.0</ele><time>2026-04-30T14:54:31.851Z</time></trkpt><trkpt lat="38.7777285" lon="20.8827392"><ele>38.5</ele><time>2026-04-30T14:54:32.851Z</time></trkpt><trkpt lat="38.7778238" lon="20.8828478"><ele>39.0</ele><time>2026-04-30T14:54:33.852Z</time></trkpt><trkpt lat="38.7779252" lon="20.8829314"><ele>39.0</ele><time>2026-04-30T14:54:34.852Z</time></trkpt><trkpt lat="38.7780252" lon="20.8830347"><ele>39.0</ele><time>2026-04-30T14:54:35.852Z</time></trkpt><trkpt lat="38.7781246" lon="20.8831393"><ele>39.0</ele><time>2026-04-30T14:54:36.851Z</time></trkpt><trkpt lat="38.7782209" lon="20.8832454"><ele>39.0</ele><time>2026-04-30T14:54:37.852Z</time></trkpt><trkpt lat="38.7783186" lon="20.8833513"><ele>38.25</ele><time>2026-04-30T14:54:38.85Z</time></trkpt><trkpt lat="38.7784134" lon="20.8834756"><ele>37.5</ele><time>2026-04-30T14:54:39.852Z</time></trkpt><trkpt lat="38.7785058" lon="20.883603"><ele>36.75</ele><time>2026-04-30T14:54:40.851Z</time></trkpt><trkpt lat="38.7785935" lon="20.8837352"><ele>36.0</ele><time>2026-04-30T14:54:41.851Z</time></trkpt><trkpt lat="38.778688" lon="20.8838663"><ele>36.0</ele><time>2026-04-30T14:54:42.851Z</time></trkpt><trkpt lat="38.7787682" lon="20.8840072"><ele>36.0</ele><time>2026-04-30T14:54:43.851Z</time></trkpt><trkpt lat="38.7788385" lon="20.8841363"><ele>36.0</ele><time>2026-04-30T14:54:44.852Z</time></trkpt><trkpt lat="38.7789041" lon="20.884268"><ele>36.0</ele><time>2026-04-30T14:54:45.852Z</time></trkpt><trkpt lat="38.778971" lon="20.8843927"><ele>37.4</ele><time>2026-04-30T14:54:46.851Z</time></trkpt><trkpt lat="38.7790414" lon="20.8845093"><ele>38.8</ele><time>2026-04-30T14:54:47.851Z</time></trkpt><trkpt lat="38.7791093" lon="20.8846013"><ele>40.199999999999996</ele><time>2026-04-30T14:54:48.851Z</time></trkpt><trkpt lat="38.7791932" lon="20.8846718"><ele>41.6</ele><time>2026-04-30T14:54:49.852Z</time></trkpt><trkpt lat="38.7792934" lon="20.884708"><ele>43.0</ele><time>2026-04-30T14:54:50.852Z</time></trkpt><trkpt lat="38.779405" lon="20.8847048"><ele>44.2</ele><time>2026-04-30T14:54:51.852Z</time></trkpt><trkpt lat="38.7795188" lon="20.8846663"><ele>45.4</ele><time>2026-04-30T14:54:52.851Z</time></trkpt><trkpt lat="38.7796198" lon="20.8846039"><ele>46.6</ele><time>2026-04-30T14:54:53.851Z</time></trkpt><trkpt lat="38.7797187" lon="20.8845396"><ele>47.800000000000004</ele><time>2026-04-30T14:54:54.851Z</time></trkpt><trkpt lat="38.7798079" lon="20.8844771"><ele>49.0</ele><time>2026-04-30T14:54:55.851Z</time></trkpt><trkpt lat="38.7798998" lon="20.8844354"><ele>49.0</ele><time>2026-04-30T14:54:56.851Z</time></trkpt><trkpt lat="38.7799893" lon="20.8844273"><ele>49.0</ele><time>2026-04-30T14:54:57.852Z</time></trkpt><trkpt lat="38.7800918" lon="20.884429"><ele>49.0</ele><time>2026-04-30T14:54:58.851Z</time></trkpt><trkpt lat="38.7801914" lon="20.8844604"><ele>49.0</ele><time>2026-04-30T14:54:59.851Z</time></trkpt><trkpt lat="38.7803019" lon="20.8844909"><ele>49.0</ele><time>2026-04-30T14:55:00.851Z</time></trkpt><trkpt lat="38.7804175" lon="20.8845289"><ele>48.0</ele><time>2026-04-30T14:55:01.851Z</time></trkpt><trkpt lat="38.7805394" lon="20.8845843"><ele>47.0</ele><time>2026-04-30T14:55:02.851Z</time></trkpt><trkpt lat="38.7806509" lon="20.8846331"><ele>46.0</ele><time>2026-04-30T14:55:03.851Z</time></trkpt><trkpt lat="38.7807632" lon="20.8846745"><ele>45.0</ele><time>2026-04-30T14:55:04.851Z</time></trkpt><trkpt lat="38.7808764" lon="20.88469"><ele>45.0</ele><time>2026-04-30T14:55:05.851Z</time></trkpt><trkpt lat="38.7809922" lon="20.884672"><ele>45.0</ele><time>2026-04-30T14:55:06.851Z</time></trkpt><trkpt lat="38.7811049" lon="20.8846196"><ele>45.0</ele><time>2026-04-30T14:55:07.851Z</time></trkpt><trkpt lat="38.7812104" lon="20.8845443"><ele>45.0</ele><time>2026-04-30T14:55:08.851Z</time></trkpt><trkpt lat="38.7813134" lon="20.8844607"><ele>44.25</ele><time>2026-04-30T14:55:09.851Z</time></trkpt><trkpt lat="38.7814272" lon="20.8843622"><ele>43.5</ele><time>2026-04-30T14:55:10.85Z</time></trkpt><trkpt lat="38.7815343" lon="20.884265"><ele>42.75</ele><time>2026-04-30T14:55:11.851Z</time></trkpt><trkpt lat="38.7816534" lon="20.8841732"><ele>42.0</ele><time>2026-04-30T14:55:12.849Z</time></trkpt><trkpt lat="38.7817669" lon="20.8840848"><ele>39.75</ele><time>2026-04-30T14:55:13.851Z</time></trkpt><trkpt lat="38.7818799" lon="20.8839886"><ele>37.5</ele><time>2026-04-30T14:55:14.852Z</time></trkpt><trkpt lat="38.7819941" lon="20.8839"><ele>35.25</ele><time>2026-04-30T14:55:15.852Z</time></trkpt><trkpt lat="38.7821019" lon="20.8838151"><ele>33.0</ele><time>2026-04-30T14:55:16.85Z</time></trkpt><trkpt lat="38.7822037" lon="20.8837317"><ele>33.0</ele><time>2026-04-30T14:55:17.852Z</time></trkpt><trkpt lat="38.7823029" lon="20.8836464"><ele>33.0</ele><time>2026-04-30T14:55:18.85Z</time></trkpt><trkpt lat="38.7824012" lon="20.8835623"><ele>33.0</ele><time>2026-04-30T14:55:19.851Z</time></trkpt><trkpt lat="38.7824955" lon="20.8834917"><ele>33.0</ele><time>2026-04-30T14:55:20.851Z</time></trkpt><trkpt lat="38.7825917" lon="20.8834183"><ele>32.8</ele><time>2026-04-30T14:55:21.851Z</time></trkpt><trkpt lat="38.7826803" lon="20.8833439"><ele>32.599999999999994</ele><time>2026-04-30T14:55:22.851Z</time></trkpt><trkpt lat="38.7827685" lon="20.8832687"><ele>32.400000000000006</ele><time>2026-04-30T14:55:23.851Z</time></trkpt><trkpt lat="38.7828575" lon="20.8831858"><ele>32.2</ele><time>2026-04-30T14:55:24.851Z</time></trkpt><trkpt lat="38.7829514" lon="20.883094"><ele>32.0</ele><time>2026-04-30T14:55:25.852Z</time></trkpt><trkpt lat="38.7830426" lon="20.8830038"><ele>32.0</ele><time>2026-04-30T14:55:26.849Z</time></trkpt><trkpt lat="38.7831325" lon="20.8829194"><ele>32.0</ele><time>2026-04-30T14:55:27.851Z</time></trkpt><trkpt lat="38.7832268" lon="20.882844"><ele>32.0</ele><time>2026-04-30T14:55:28.849Z</time></trkpt><trkpt lat="38.7833294" lon="20.8827672"><ele>32.0</ele><time>2026-04-30T14:55:29.852Z</time></trkpt><trkpt lat="38.7834172" lon="20.8827265"><ele>32.0</ele><time>2026-04-30T14:55:30.852Z</time></trkpt><trkpt lat="38.7834885" lon="20.882684"><ele>32.800000000000004</ele><time>2026-04-30T14:55:31.851Z</time></trkpt><trkpt lat="38.7836085" lon="20.8827231"><ele>33.6</ele><time>2026-04-30T14:55:33.851Z</time></trkpt><trkpt lat="38.78367" lon="20.8827859"><ele>34.400000000000006</ele><time>2026-04-30T14:55:34.85Z</time></trkpt><trkpt lat="38.7837315" lon="20.8828758"><ele>35.2</ele><time>2026-04-30T14:55:35.851Z</time></trkpt><trkpt lat="38.7837951" lon="20.8829637"><ele>36.0</ele><time>2026-04-30T14:55:36.851Z</time></trkpt><trkpt lat="38.7838551" lon="20.8830541"><ele>36.0</ele><time>2026-04-30T14:55:37.85Z</time></trkpt><trkpt lat="38.7839103" lon="20.8831391"><ele>36.0</ele><time>2026-04-30T14:55:38.851Z</time></trkpt><trkpt lat="38.7839604" lon="20.8832103"><ele>36.0</ele><time>2026-04-30T14:55:39.85Z</time></trkpt><trkpt lat="38.7840053" lon="20.8832707"><ele>36.0</ele><time>2026-04-30T14:55:40.851Z</time></trkpt><trkpt lat="38.7841002" lon="20.8833621"><ele>36.0</ele><time>2026-04-30T14:55:42.848Z</time></trkpt><trkpt lat="38.7841927" lon="20.8834102"><ele>36.0</ele><time>2026-04-30T14:55:44.852Z</time></trkpt><trkpt lat="38.7842563" lon="20.8834304"><ele>36.166666666666664</ele><time>2026-04-30T14:55:45.852Z</time></trkpt><trkpt lat="38.7843276" lon="20.8834518"><ele>36.333333333333336</ele><time>2026-04-30T14:55:46.851Z</time></trkpt><trkpt lat="38.7844149" lon="20.8834745"><ele>36.5</ele><time>2026-04-30T14:55:47.851Z</time></trkpt><trkpt lat="38.7845038" lon="20.8834972"><ele>36.66666666666667</ele><time>2026-04-30T14:55:48.851Z</time></trkpt><trkpt lat="38.7845857" lon="20.883529"><ele>36.833333333333336</ele><time>2026-04-30T14:55:49.85Z</time></trkpt><trkpt lat="38.7846705" lon="20.8835563"><ele>37.0</ele><time>2026-04-30T14:55:50.852Z</time></trkpt><trkpt lat="38.784757" lon="20.8835852"><ele>37.16666666666667</ele><time>2026-04-30T14:55:51.851Z</time></trkpt><trkpt lat="38.7848416" lon="20.8836166"><ele>37.333333333333336</ele><time>2026-04-30T14:55:52.851Z</time></trkpt><trkpt lat="38.7849286" lon="20.8836399"><ele>37.5</ele><time>2026-04-30T14:55:53.85Z</time></trkpt><trkpt lat="38.7850116" lon="20.8836642"><ele>37.666666666666664</ele><time>2026-04-30T14:55:54.852Z</time></trkpt><trkpt lat="38.7850971" lon="20.8836889"><ele>37.83333333333333</ele><time>2026-04-30T14:55:55.852Z</time></trkpt><trkpt lat="38.7851886" lon="20.8837002"><ele>38.0</ele><time>2026-04-30T14:55:56.851Z</time></trkpt><trkpt lat="38.7852898" lon="20.8837248"><ele>38.0</ele><time>2026-04-30T14:55:57.851Z</time></trkpt><trkpt lat="38.7854098" lon="20.8837497"><ele>38.0</ele><time>2026-04-30T14:55:58.852Z</time></trkpt><trkpt lat="38.7855293" lon="20.8837753"><ele>38.0</ele><time>2026-04-30T14:55:59.851Z</time></trkpt><trkpt lat="38.7856563" lon="20.8838129"><ele>38.0</ele><time>2026-04-30T14:56:00.85Z</time></trkpt><trkpt lat="38.7857783" lon="20.8838576"><ele>38.0</ele><time>2026-04-30T14:56:01.85Z</time></trkpt><trkpt lat="38.7858954" lon="20.8839007"><ele>38.0</ele><time>2026-04-30T14:56:02.852Z</time></trkpt><trkpt lat="38.7860124" lon="20.8839303"><ele>38.0</ele><time>2026-04-30T14:56:03.85Z</time></trkpt><trkpt lat="38.7861368" lon="20.8839543"><ele>38.0</ele><time>2026-04-30T14:56:04.85Z</time></trkpt><trkpt lat="38.7862623" lon="20.8839504"><ele>38.0</ele><time>2026-04-30T14:56:05.85Z</time></trkpt><trkpt lat="38.7863915" lon="20.883911"><ele>38.0</ele><time>2026-04-30T14:56:06.85Z</time></trkpt><trkpt lat="38.7865227" lon="20.8838721"><ele>38.0</ele><time>2026-04-30T14:56:07.852Z</time></trkpt><trkpt lat="38.7866471" lon="20.8838192"><ele>38.0</ele><time>2026-04-30T14:56:08.851Z</time></trkpt><trkpt lat="38.7867655" lon="20.8837696"><ele>38.25</ele><time>2026-04-30T14:56:09.851Z</time></trkpt><trkpt lat="38.7868852" lon="20.8837189"><ele>38.5</ele><time>2026-04-30T14:56:10.852Z</time></trkpt><trkpt lat="38.7870034" lon="20.8836775"><ele>38.75</ele><time>2026-04-30T14:56:11.85Z</time></trkpt><trkpt lat="38.7871273" lon="20.8836364"><ele>39.0</ele><time>2026-04-30T14:56:12.851Z</time></trkpt><trkpt lat="38.7872485" lon="20.8836071"><ele>39.0</ele><time>2026-04-30T14:56:13.852Z</time></trkpt><trkpt lat="38.7873623" lon="20.8835735"><ele>39.0</ele><time>2026-04-30T14:56:14.851Z</time></trkpt><trkpt lat="38.7874712" lon="20.8835341"><ele>39.0</ele><time>2026-04-30T14:56:15.85Z</time></trkpt><trkpt lat="38.7875729" lon="20.8834967"><ele>39.0</ele><time>2026-04-30T14:56:16.851Z</time></trkpt><trkpt lat="38.7876627" lon="20.8834544"><ele>39.0</ele><time>2026-04-30T14:56:17.851Z</time></trkpt><trkpt lat="38.7877623" lon="20.8834243"><ele>38.25</ele><time>2026-04-30T14:56:18.85Z</time></trkpt><trkpt lat="38.787874" lon="20.8834024"><ele>37.5</ele><time>2026-04-30T14:56:19.852Z</time></trkpt><trkpt lat="38.7880016" lon="20.8833531"><ele>36.75</ele><time>2026-04-30T14:56:20.85Z</time></trkpt><trkpt lat="38.7881302" lon="20.8833114"><ele>36.0</ele><time>2026-04-30T14:56:21.85Z</time></trkpt><trkpt lat="38.7882551" lon="20.8832616"><ele>36.0</ele><time>2026-04-30T14:56:22.851Z</time></trkpt><trkpt lat="38.7883823" lon="20.8832044"><ele>36.0</ele><time>2026-04-30T14:56:23.851Z</time></trkpt><trkpt lat="38.7885025" lon="20.8831553"><ele>36.0</ele><time>2026-04-30T14:56:24.85Z</time></trkpt><trkpt lat="38.788628" lon="20.8830989"><ele>36.0</ele><time>2026-04-30T14:56:25.851Z</time></trkpt><trkpt lat="38.7887553" lon="20.8830626"><ele>35.25</ele><time>2026-04-30T14:56:26.851Z</time></trkpt><trkpt lat="38.788905" lon="20.883008"><ele>34.5</ele><time>2026-04-30T14:56:27.852Z</time></trkpt><trkpt lat="38.7890398" lon="20.8829637"><ele>33.75</ele><time>2026-04-30T14:56:28.851Z</time></trkpt><trkpt lat="38.7891788" lon="20.8829109"><ele>33.0</ele><time>2026-04-30T14:56:29.851Z</time></trkpt><trkpt lat="38.7893162" lon="20.8828709"><ele>31.666666666666664</ele><time>2026-04-30T14:56:30.849Z</time></trkpt><trkpt lat="38.7894574" lon="20.8828223"><ele>30.333333333333332</ele><time>2026-04-30T14:56:31.85Z</time></trkpt><trkpt lat="38.7896076" lon="20.8827785"><ele>29.0</ele><time>2026-04-30T14:56:32.851Z</time></trkpt><trkpt lat="38.7897532" lon="20.8827289"><ele>29.0</ele><time>2026-04-30T14:56:33.852Z</time></trkpt><trkpt lat="38.7899007" lon="20.8826756"><ele>29.0</ele><time>2026-04-30T14:56:34.852Z</time></trkpt><trkpt lat="38.7900481" lon="20.8826283"><ele>29.0</ele><time>2026-04-30T14:56:35.852Z</time></trkpt><trkpt lat="38.7901894" lon="20.8825746"><ele>27.333333333333332</ele><time>2026-04-30T14:56:36.852Z</time></trkpt><trkpt lat="38.7903488" lon="20.8825026"><ele>25.666666666666664</ele><time>2026-04-30T14:56:37.852Z</time></trkpt><trkpt lat="38.7905066" lon="20.8824395"><ele>24.0</ele><time>2026-04-30T14:56:38.851Z</time></trkpt><trkpt lat="38.7906728" lon="20.8823642"><ele>24.0</ele><time>2026-04-30T14:56:39.851Z</time></trkpt><trkpt lat="38.7908323" lon="20.8823123"><ele>24.0</ele><time>2026-04-30T14:56:40.851Z</time></trkpt><trkpt lat="38.7909951" lon="20.8822594"><ele>24.0</ele><time>2026-04-30T14:56:41.852Z</time></trkpt><trkpt lat="38.7911534" lon="20.8822064"><ele>23.0</ele><time>2026-04-30T14:56:42.851Z</time></trkpt><trkpt lat="38.7913087" lon="20.8821506"><ele>22.0</ele><time>2026-04-30T14:56:43.852Z</time></trkpt><trkpt lat="38.7914732" lon="20.8820928"><ele>21.0</ele><time>2026-04-30T14:56:44.851Z</time></trkpt><trkpt lat="38.7916452" lon="20.8820298"><ele>21.0</ele><time>2026-04-30T14:56:45.851Z</time></trkpt><trkpt lat="38.7918131" lon="20.8819681"><ele>21.0</ele><time>2026-04-30T14:56:46.85Z</time></trkpt><trkpt lat="38.7919888" lon="20.8819087"><ele>21.0</ele><time>2026-04-30T14:56:47.852Z</time></trkpt><trkpt lat="38.7921679" lon="20.8818425"><ele>20.333333333333332</ele><time>2026-04-30T14:56:48.851Z</time></trkpt><trkpt lat="38.7923514" lon="20.8817765"><ele>19.666666666666664</ele><time>2026-04-30T14:56:49.851Z</time></trkpt><trkpt lat="38.7925356" lon="20.881703"><ele>19.0</ele><time>2026-04-30T14:56:50.851Z</time></trkpt><trkpt lat="38.79272" lon="20.8816288"><ele>17.666666666666664</ele><time>2026-04-30T14:56:51.851Z</time></trkpt><trkpt lat="38.7929117" lon="20.8815597"><ele>16.333333333333332</ele><time>2026-04-30T14:56:52.851Z</time></trkpt><trkpt lat="38.7931007" lon="20.8814914"><ele>15.0</ele><time>2026-04-30T14:56:53.852Z</time></trkpt><trkpt lat="38.7932886" lon="20.8814168"><ele>15.0</ele><time>2026-04-30T14:56:54.849Z</time></trkpt><trkpt lat="38.7934819" lon="20.8813494"><ele>15.0</ele><time>2026-04-30T14:56:55.851Z</time></trkpt><trkpt lat="38.7936691" lon="20.8812773"><ele>15.0</ele><time>2026-04-30T14:56:56.85Z</time></trkpt><trkpt lat="38.7938611" lon="20.8812051"><ele>15.666666666666668</ele><time>2026-04-30T14:56:57.851Z</time></trkpt><trkpt lat="38.7940578" lon="20.8811416"><ele>16.333333333333336</ele><time>2026-04-30T14:56:58.851Z</time></trkpt><trkpt lat="38.7942524" lon="20.8810758"><ele>17.0</ele><time>2026-04-30T14:56:59.851Z</time></trkpt><trkpt lat="38.7944481" lon="20.8810117"><ele>17.0</ele><time>2026-04-30T14:57:00.852Z</time></trkpt><trkpt lat="38.794647" lon="20.8809431"><ele>17.0</ele><time>2026-04-30T14:57:01.851Z</time></trkpt><trkpt lat="38.7948487" lon="20.8808644"><ele>17.0</ele><time>2026-04-30T14:57:02.849Z</time></trkpt><trkpt lat="38.7950499" lon="20.8807911"><ele>15.333333333333334</ele><time>2026-04-30T14:57:03.852Z</time></trkpt><trkpt lat="38.7952524" lon="20.8807171"><ele>13.666666666666668</ele><time>2026-04-30T14:57:04.851Z</time></trkpt><trkpt lat="38.7954578" lon="20.8806464"><ele>12.0</ele><time>2026-04-30T14:57:05.851Z</time></trkpt><trkpt lat="38.7956669" lon="20.8805782"><ele>12.0</ele><time>2026-04-30T14:57:06.85Z</time></trkpt><trkpt lat="38.7958754" lon="20.8805019"><ele>12.0</ele><time>2026-04-30T14:57:07.852Z</time></trkpt><trkpt lat="38.7960818" lon="20.8804301"><ele>12.0</ele><time>2026-04-30T14:57:08.852Z</time></trkpt><trkpt lat="38.7962892" lon="20.8803572"><ele>12.0</ele><time>2026-04-30T14:57:09.852Z</time></trkpt><trkpt lat="38.7964924" lon="20.8802847"><ele>12.0</ele><time>2026-04-30T14:57:10.85Z</time></trkpt><trkpt lat="38.7966936" lon="20.8802107"><ele>12.0</ele><time>2026-04-30T14:57:11.851Z</time></trkpt><trkpt lat="38.7968897" lon="20.8801398"><ele>12.666666666666668</ele><time>2026-04-30T14:57:12.85Z</time></trkpt><trkpt lat="38.7970894" lon="20.8800741"><ele>13.333333333333334</ele><time>2026-04-30T14:57:13.85Z</time></trkpt><trkpt lat="38.7972901" lon="20.8800075"><ele>14.0</ele><time>2026-04-30T14:57:14.851Z</time></trkpt><trkpt lat="38.7974965" lon="20.8799276"><ele>14.666666666666668</ele><time>2026-04-30T14:57:15.851Z</time></trkpt><trkpt lat="38.7976966" lon="20.879863"><ele>15.333333333333332</ele><time>2026-04-30T14:57:16.851Z</time></trkpt><trkpt lat="38.7978968" lon="20.8797856"><ele>16.0</ele><time>2026-04-30T14:57:17.851Z</time></trkpt><trkpt lat="38.7980968" lon="20.879711"><ele>16.0</ele><time>2026-04-30T14:57:18.85Z</time></trkpt><trkpt lat="38.7983014" lon="20.8796378"><ele>16.0</ele><time>2026-04-30T14:57:19.851Z</time></trkpt><trkpt lat="38.7985006" lon="20.879565"><ele>16.0</ele><time>2026-04-30T14:57:20.85Z</time></trkpt><trkpt lat="38.7987055" lon="20.879488"><ele>15.666666666666666</ele><time>2026-04-30T14:57:21.851Z</time></trkpt><trkpt lat="38.7989116" lon="20.8794138"><ele>15.333333333333332</ele><time>2026-04-30T14:57:22.851Z</time></trkpt><trkpt lat="38.7991198" lon="20.8793283"><ele>15.0</ele><time>2026-04-30T14:57:23.85Z</time></trkpt><trkpt lat="38.7993286" lon="20.8792535"><ele>14.333333333333332</ele><time>2026-04-30T14:57:24.852Z</time></trkpt><trkpt lat="38.7995378" lon="20.8791737"><ele>13.666666666666666</ele><time>2026-04-30T14:57:25.851Z</time></trkpt><trkpt lat="38.7997511" lon="20.8790957"><ele>13.0</ele><time>2026-04-30T14:57:26.851Z</time></trkpt><trkpt lat="38.7999568" lon="20.8790213"><ele>13.0</ele><time>2026-04-30T14:57:27.851Z</time></trkpt><trkpt lat="38.8001625" lon="20.8789482"><ele>13.0</ele><time>2026-04-30T14:57:28.852Z</time></trkpt><trkpt lat="38.800365" lon="20.8788727"><ele>13.0</ele><time>2026-04-30T14:57:29.85Z</time></trkpt><trkpt lat="38.8005677" lon="20.8788032"><ele>13.666666666666666</ele><time>2026-04-30T14:57:30.851Z</time></trkpt><trkpt lat="38.8007682" lon="20.8787381"><ele>14.333333333333332</ele><time>2026-04-30T14:57:31.851Z</time></trkpt><trkpt lat="38.8009688" lon="20.8786714"><ele>15.0</ele><time>2026-04-30T14:57:32.849Z</time></trkpt><trkpt lat="38.8011602" lon="20.8786033"><ele>15.0</ele><time>2026-04-30T14:57:33.852Z</time></trkpt><trkpt lat="38.8013395" lon="20.8785378"><ele>15.0</ele><time>2026-04-30T14:57:34.85Z</time></trkpt><trkpt lat="38.8015167" lon="20.8784769"><ele>15.0</ele><time>2026-04-30T14:57:35.852Z</time></trkpt><trkpt lat="38.8016941" lon="20.8784117"><ele>14.333333333333332</ele><time>2026-04-30T14:57:36.851Z</time></trkpt><trkpt lat="38.8018758" lon="20.8783303"><ele>13.666666666666666</ele><time>2026-04-30T14:57:37.852Z</time></trkpt><trkpt lat="38.8020463" lon="20.8782711"><ele>13.0</ele><time>2026-04-30T14:57:38.851Z</time></trkpt><trkpt lat="38.802217" lon="20.8782111"><ele>13.0</ele><time>2026-04-30T14:57:39.852Z</time></trkpt><trkpt lat="38.8024001" lon="20.8781499"><ele>13.0</ele><time>2026-04-30T14:57:40.85Z</time></trkpt><trkpt lat="38.8025746" lon="20.8780862"><ele>13.0</ele><time>2026-04-30T14:57:41.85Z</time></trkpt><trkpt lat="38.802768" lon="20.8780172"><ele>12.333333333333332</ele><time>2026-04-30T14:57:42.85Z</time></trkpt><trkpt lat="38.8029583" lon="20.8779426"><ele>11.666666666666666</ele><time>2026-04-30T14:57:43.85Z</time></trkpt><trkpt lat="38.8031523" lon="20.8778702"><ele>11.0</ele><time>2026-04-30T14:57:44.85Z</time></trkpt><trkpt lat="38.8033468" lon="20.8778"><ele>9.666666666666666</ele><time>2026-04-30T14:57:45.852Z</time></trkpt><trkpt lat="38.8035413" lon="20.8777295"><ele>8.333333333333334</ele><time>2026-04-30T14:57:46.851Z</time></trkpt><trkpt lat="38.8037373" lon="20.8776593"><ele>7.0</ele><time>2026-04-30T14:57:47.851Z</time></trkpt><trkpt lat="38.8039318" lon="20.8775843"><ele>7.0</ele><time>2026-04-30T14:57:48.851Z</time></trkpt><trkpt lat="38.8041303" lon="20.8775169"><ele>7.0</ele><time>2026-04-30T14:57:49.851Z</time></trkpt><trkpt lat="38.8043305" lon="20.8774468"><ele>7.0</ele><time>2026-04-30T14:57:50.85Z</time></trkpt><trkpt lat="38.8045317" lon="20.8773707"><ele>7.0</ele><time>2026-04-30T14:57:51.852Z</time></trkpt><trkpt lat="38.8047329" lon="20.8772954"><ele>7.0</ele><time>2026-04-30T14:57:52.852Z</time></trkpt><trkpt lat="38.8049422" lon="20.8772211"><ele>7.0</ele><time>2026-04-30T14:57:53.849Z</time></trkpt><trkpt lat="38.8051478" lon="20.877149"><ele>8.0</ele><time>2026-04-30T14:57:54.851Z</time></trkpt><trkpt lat="38.8053525" lon="20.8770717"><ele>9.0</ele><time>2026-04-30T14:57:55.851Z</time></trkpt><trkpt lat="38.8055478" lon="20.8770024"><ele>10.0</ele><time>2026-04-30T14:57:56.85Z</time></trkpt><trkpt lat="38.8057319" lon="20.8769366"><ele>10.0</ele><time>2026-04-30T14:57:57.85Z</time></trkpt><trkpt lat="38.8059062" lon="20.8768682"><ele>10.0</ele><time>2026-04-30T14:57:58.85Z</time></trkpt><trkpt lat="38.8060723" lon="20.8767979"><ele>10.0</ele><time>2026-04-30T14:57:59.849Z</time></trkpt><trkpt lat="38.8062383" lon="20.8767219"><ele>9.333333333333334</ele><time>2026-04-30T14:58:00.852Z</time></trkpt><trkpt lat="38.8063942" lon="20.8766599"><ele>8.666666666666666</ele><time>2026-04-30T14:58:01.85Z</time></trkpt><trkpt lat="38.8065582" lon="20.8765994"><ele>8.0</ele><time>2026-04-30T14:58:02.849Z</time></trkpt><trkpt lat="38.806723" lon="20.8765373"><ele>7.666666666666666</ele><time>2026-04-30T14:58:03.851Z</time></trkpt><trkpt lat="38.8068907" lon="20.8764813"><ele>7.333333333333334</ele><time>2026-04-30T14:58:04.85Z</time></trkpt><trkpt lat="38.807059" lon="20.8764276"><ele>7.0</ele><time>2026-04-30T14:58:05.851Z</time></trkpt><trkpt lat="38.8072304" lon="20.8763707"><ele>7.0</ele><time>2026-04-30T14:58:06.85Z</time></trkpt><trkpt lat="38.8074117" lon="20.8763033"><ele>7.0</ele><time>2026-04-30T14:58:07.85Z</time></trkpt><trkpt lat="38.8076075" lon="20.8762311"><ele>7.0</ele><time>2026-04-30T14:58:08.852Z</time></trkpt><trkpt lat="38.8078241" lon="20.8761399"><ele>8.0</ele><time>2026-04-30T14:58:09.85Z</time></trkpt><trkpt lat="38.808055" lon="20.8760456"><ele>9.0</ele><time>2026-04-30T14:58:10.852Z</time></trkpt><trkpt lat="38.8083121" lon="20.8759636"><ele>10.0</ele><time>2026-04-30T14:58:11.85Z</time></trkpt><trkpt lat="38.8085588" lon="20.875875"><ele>11.0</ele><time>2026-04-30T14:58:12.851Z</time></trkpt><trkpt lat="38.8088046" lon="20.875797"><ele>11.0</ele><time>2026-04-30T14:58:13.85Z</time></trkpt><trkpt lat="38.8090421" lon="20.8757269"><ele>11.0</ele><time>2026-04-30T14:58:14.85Z</time></trkpt><trkpt lat="38.8092735" lon="20.8756318"><ele>11.0</ele><time>2026-04-30T14:58:15.85Z</time></trkpt><trkpt lat="38.8095014" lon="20.8755423"><ele>11.0</ele><time>2026-04-30T14:58:16.849Z</time></trkpt><trkpt lat="38.809723" lon="20.875458"><ele>11.0</ele><time>2026-04-30T14:58:17.85Z</time></trkpt><trkpt lat="38.809951" lon="20.8753774"><ele>11.0</ele><time>2026-04-30T14:58:18.85Z</time></trkpt><trkpt lat="38.8101723" lon="20.8752971"><ele>12.0</ele><time>2026-04-30T14:58:19.851Z</time></trkpt><trkpt lat="38.8103948" lon="20.8752213"><ele>13.0</ele><time>2026-04-30T14:58:20.852Z</time></trkpt><trkpt lat="38.810616" lon="20.8751448"><ele>12.666666666666666</ele><time>2026-04-30T14:58:21.85Z</time></trkpt><trkpt lat="38.8108305" lon="20.8750766"><ele>12.333333333333332</ele><time>2026-04-30T14:58:22.849Z</time></trkpt><trkpt lat="38.8110432" lon="20.8749953"><ele>12.0</ele><time>2026-04-30T14:58:23.851Z</time></trkpt><trkpt lat="38.8112521" lon="20.8749179"><ele>12.0</ele><time>2026-04-30T14:58:24.852Z</time></trkpt><trkpt lat="38.81146" lon="20.8748516"><ele>12.0</ele><time>2026-04-30T14:58:25.85Z</time></trkpt><trkpt lat="38.8116699" lon="20.8747714"><ele>12.0</ele><time>2026-04-30T14:58:26.85Z</time></trkpt><trkpt lat="38.8118762" lon="20.874701"><ele>12.0</ele><time>2026-04-30T14:58:27.85Z</time></trkpt><trkpt lat="38.8120918" lon="20.8746152"><ele>12.0</ele><time>2026-04-30T14:58:28.851Z</time></trkpt><trkpt lat="38.8123048" lon="20.8745394"><ele>12.0</ele><time>2026-04-30T14:58:29.849Z</time></trkpt><trkpt lat="38.8125122" lon="20.8744628"><ele>12.0</ele><time>2026-04-30T14:58:30.851Z</time></trkpt><trkpt lat="38.8127257" lon="20.8743816"><ele>12.0</ele><time>2026-04-30T14:58:31.851Z</time></trkpt><trkpt lat="38.812941" lon="20.8742994"><ele>12.0</ele><time>2026-04-30T14:58:32.849Z</time></trkpt><trkpt lat="38.8131537" lon="20.8742211"><ele>11.333333333333334</ele><time>2026-04-30T14:58:33.851Z</time></trkpt><trkpt lat="38.8133624" lon="20.8741439"><ele>10.666666666666668</ele><time>2026-04-30T14:58:34.852Z</time></trkpt><trkpt lat="38.813575" lon="20.8740695"><ele>10.0</ele><time>2026-04-30T14:58:35.852Z</time></trkpt><trkpt lat="38.8137853" lon="20.8739932"><ele>10.0</ele><time>2026-04-30T14:58:36.851Z</time></trkpt><trkpt lat="38.8139837" lon="20.8739183"><ele>10.0</ele><time>2026-04-30T14:58:37.851Z</time></trkpt><trkpt lat="38.8141865" lon="20.8738494"><ele>10.0</ele><time>2026-04-30T14:58:38.85Z</time></trkpt><trkpt lat="38.8143876" lon="20.8737663"><ele>10.0</ele><time>2026-04-30T14:58:39.851Z</time></trkpt><trkpt lat="38.8145889" lon="20.8736894"><ele>10.0</ele><time>2026-04-30T14:58:40.851Z</time></trkpt><trkpt lat="38.8147885" lon="20.8736196"><ele>10.0</ele><time>2026-04-30T14:58:41.851Z</time></trkpt><trkpt lat="38.8149898" lon="20.8735537"><ele>9.666666666666668</ele><time>2026-04-30T14:58:42.849Z</time></trkpt><trkpt lat="38.8151849" lon="20.8734831"><ele>9.333333333333334</ele><time>2026-04-30T14:58:43.85Z</time></trkpt><trkpt lat="38.8153841" lon="20.8734054"><ele>9.0</ele><time>2026-04-30T14:58:44.85Z</time></trkpt><trkpt lat="38.8155804" lon="20.8733341"><ele>8.666666666666666</ele><time>2026-04-30T14:58:45.85Z</time></trkpt><trkpt lat="38.8157789" lon="20.8732622"><ele>8.333333333333332</ele><time>2026-04-30T14:58:46.85Z</time></trkpt><trkpt lat="38.8159757" lon="20.8731872"><ele>8.0</ele><time>2026-04-30T14:58:47.852Z</time></trkpt><trkpt lat="38.8161739" lon="20.8731146"><ele>8.666666666666666</ele><time>2026-04-30T14:58:48.851Z</time></trkpt><trkpt lat="38.8163718" lon="20.8730466"><ele>9.333333333333334</ele><time>2026-04-30T14:58:49.851Z</time></trkpt><trkpt lat="38.816578" lon="20.8729724"><ele>10.0</ele><time>2026-04-30T14:58:50.851Z</time></trkpt><trkpt lat="38.8167908" lon="20.8728957"><ele>10.333333333333334</ele><time>2026-04-30T14:58:51.85Z</time></trkpt><trkpt lat="38.8169987" lon="20.87282"><ele>10.666666666666666</ele><time>2026-04-30T14:58:52.849Z</time></trkpt><trkpt lat="38.8172094" lon="20.8727445"><ele>11.0</ele><time>2026-04-30T14:58:53.85Z</time></trkpt><trkpt lat="38.8174265" lon="20.8726681"><ele>10.5</ele><time>2026-04-30T14:58:54.851Z</time></trkpt><trkpt lat="38.8176439" lon="20.872588"><ele>10.0</ele><time>2026-04-30T14:58:55.852Z</time></trkpt><trkpt lat="38.817863" lon="20.872505"><ele>11.0</ele><time>2026-04-30T14:58:56.852Z</time></trkpt><trkpt lat="38.8180841" lon="20.8724226"><ele>12.0</ele><time>2026-04-30T14:58:57.851Z</time></trkpt><trkpt lat="38.81831" lon="20.8723464"><ele>13.0</ele><time>2026-04-30T14:58:58.851Z</time></trkpt><trkpt lat="38.818533" lon="20.8722511"><ele>14.0</ele><time>2026-04-30T14:58:59.849Z</time></trkpt><trkpt lat="38.8187534" lon="20.8721646"><ele>14.0</ele><time>2026-04-30T14:59:00.851Z</time></trkpt><trkpt lat="38.8189706" lon="20.8720802"><ele>14.0</ele><time>2026-04-30T14:59:01.85Z</time></trkpt><trkpt lat="38.8191895" lon="20.8720026"><ele>15.0</ele><time>2026-04-30T14:59:02.85Z</time></trkpt><trkpt lat="38.8194116" lon="20.8719195"><ele>16.0</ele><time>2026-04-30T14:59:03.85Z</time></trkpt><trkpt lat="38.8196333" lon="20.8718369"><ele>14.0</ele><time>2026-04-30T14:59:04.85Z</time></trkpt><trkpt lat="38.8198573" lon="20.8717568"><ele>12.0</ele><time>2026-04-30T14:59:05.85Z</time></trkpt><trkpt lat="38.8200766" lon="20.8716791"><ele>12.666666666666668</ele><time>2026-04-30T14:59:06.851Z</time></trkpt><trkpt lat="38.8202935" lon="20.8716052"><ele>13.333333333333334</ele><time>2026-04-30T14:59:07.85Z</time></trkpt><trkpt lat="38.8205072" lon="20.8715263"><ele>14.0</ele><time>2026-04-30T14:59:08.849Z</time></trkpt><trkpt lat="38.8207217" lon="20.8714465"><ele>14.0</ele><time>2026-04-30T14:59:09.851Z</time></trkpt><trkpt lat="38.820935" lon="20.8713692"><ele>14.0</ele><time>2026-04-30T14:59:10.85Z</time></trkpt><trkpt lat="38.8211482" lon="20.8712858"><ele>14.0</ele><time>2026-04-30T14:59:11.849Z</time></trkpt><trkpt lat="38.8213638" lon="20.8712054"><ele>15.0</ele><time>2026-04-30T14:59:12.85Z</time></trkpt><trkpt lat="38.8215795" lon="20.871123"><ele>16.0</ele><time>2026-04-30T14:59:13.849Z</time></trkpt><trkpt lat="38.8217985" lon="20.8710168"><ele>14.5</ele><time>2026-04-30T14:59:14.85Z</time></trkpt><trkpt lat="38.8220124" lon="20.8709367"><ele>13.0</ele><time>2026-04-30T14:59:15.849Z</time></trkpt><trkpt lat="38.8222323" lon="20.8708638"><ele>13.0</ele><time>2026-04-30T14:59:16.849Z</time></trkpt><trkpt lat="38.8224495" lon="20.8707886"><ele>13.0</ele><time>2026-04-30T14:59:17.851Z</time></trkpt><trkpt lat="38.822663" lon="20.8707098"><ele>13.0</ele><time>2026-04-30T14:59:18.85Z</time></trkpt><trkpt lat="38.8228784" lon="20.8706364"><ele>15.5</ele><time>2026-04-30T14:59:19.851Z</time></trkpt><trkpt lat="38.8230951" lon="20.8705536"><ele>18.0</ele><time>2026-04-30T14:59:20.849Z</time></trkpt><trkpt lat="38.8233125" lon="20.8704707"><ele>18.5</ele><time>2026-04-30T14:59:21.849Z</time></trkpt><trkpt lat="38.8235329" lon="20.8703881"><ele>19.0</ele><time>2026-04-30T14:59:22.849Z</time></trkpt><trkpt lat="38.8237539" lon="20.8702963"><ele>19.0</ele><time>2026-04-30T14:59:23.851Z</time></trkpt><trkpt lat="38.8239778" lon="20.870213"><ele>19.0</ele><time>2026-04-30T14:59:24.85Z</time></trkpt><trkpt lat="38.8242" lon="20.8701379"><ele>18.5</ele><time>2026-04-30T14:59:25.85Z</time></trkpt><trkpt lat="38.824431" lon="20.8700441"><ele>18.0</ele><time>2026-04-30T14:59:26.85Z</time></trkpt><trkpt lat="38.8246542" lon="20.8699625"><ele>18.0</ele><time>2026-04-30T14:59:27.85Z</time></trkpt><trkpt lat="38.8248827" lon="20.8698763"><ele>18.0</ele><time>2026-04-30T14:59:28.85Z</time></trkpt><trkpt lat="38.8251061" lon="20.8697887"><ele>19.0</ele><time>2026-04-30T14:59:29.85Z</time></trkpt><trkpt lat="38.8253298" lon="20.8697011"><ele>20.0</ele><time>2026-04-30T14:59:30.851Z</time></trkpt><trkpt lat="38.8255553" lon="20.8696304"><ele>20.0</ele><time>2026-04-30T14:59:31.852Z</time></trkpt><trkpt lat="38.8257807" lon="20.8695579"><ele>20.0</ele><time>2026-04-30T14:59:32.85Z</time></trkpt><trkpt lat="38.8260081" lon="20.8694805"><ele>20.5</ele><time>2026-04-30T14:59:33.85Z</time></trkpt><trkpt lat="38.8262306" lon="20.8693729"><ele>21.0</ele><time>2026-04-30T14:59:34.851Z</time></trkpt><trkpt lat="38.8264507" lon="20.8692825"><ele>19.0</ele><time>2026-04-30T14:59:35.85Z</time></trkpt><trkpt lat="38.8266701" lon="20.8692137"><ele>17.0</ele><time>2026-04-30T14:59:36.85Z</time></trkpt><trkpt lat="38.8268935" lon="20.8691404"><ele>17.0</ele><time>2026-04-30T14:59:37.851Z</time></trkpt><trkpt lat="38.827112" lon="20.8690657"><ele>17.0</ele><time>2026-04-30T14:59:38.851Z</time></trkpt><trkpt lat="38.8273289" lon="20.8689882"><ele>17.0</ele><time>2026-04-30T14:59:39.85Z</time></trkpt><trkpt lat="38.8275447" lon="20.8689077"><ele>17.0</ele><time>2026-04-30T14:59:40.849Z</time></trkpt><trkpt lat="38.827762" lon="20.8688332"><ele>19.0</ele><time>2026-04-30T14:59:41.849Z</time></trkpt><trkpt lat="38.8279819" lon="20.8687507"><ele>21.0</ele><time>2026-04-30T14:59:42.848Z</time></trkpt><trkpt lat="38.8281968" lon="20.8686682"><ele>21.0</ele><time>2026-04-30T14:59:43.852Z</time></trkpt><trkpt lat="38.8284152" lon="20.8685951"><ele>21.0</ele><time>2026-04-30T14:59:44.851Z</time></trkpt><trkpt lat="38.8286346" lon="20.8685132"><ele>18.5</ele><time>2026-04-30T14:59:45.851Z</time></trkpt><trkpt lat="38.8288535" lon="20.8684315"><ele>16.0</ele><time>2026-04-30T14:59:46.852Z</time></trkpt><trkpt lat="38.8290794" lon="20.8683528"><ele>16.0</ele><time>2026-04-30T14:59:47.852Z</time></trkpt><trkpt lat="38.8293028" lon="20.8682766"><ele>16.0</ele><time>2026-04-30T14:59:48.851Z</time></trkpt><trkpt lat="38.829536" lon="20.8681806"><ele>16.5</ele><time>2026-04-30T14:59:49.851Z</time></trkpt><trkpt lat="38.8297599" lon="20.8681004"><ele>17.0</ele><time>2026-04-30T14:59:50.849Z</time></trkpt><trkpt lat="38.8299797" lon="20.8680277"><ele>18.5</ele><time>2026-04-30T14:59:51.849Z</time></trkpt><trkpt lat="38.830203" lon="20.8679419"><ele>20.0</ele><time>2026-04-30T14:59:52.85Z</time></trkpt><trkpt lat="38.8304336" lon="20.8678533"><ele>20.0</ele><time>2026-04-30T14:59:53.85Z</time></trkpt><trkpt lat="38.8306579" lon="20.8677668"><ele>20.0</ele><time>2026-04-30T14:59:54.851Z</time></trkpt><trkpt lat="38.8308847" lon="20.8676804"><ele>20.0</ele><time>2026-04-30T14:59:55.852Z</time></trkpt><trkpt lat="38.8311076" lon="20.8675978"><ele>20.0</ele><time>2026-04-30T14:59:56.851Z</time></trkpt><trkpt lat="38.8313276" lon="20.8675136"><ele>20.0</ele><time>2026-04-30T14:59:57.849Z</time></trkpt><trkpt lat="38.8315542" lon="20.8674267"><ele>20.0</ele><time>2026-04-30T14:59:58.85Z</time></trkpt><trkpt lat="38.8317818" lon="20.8673423"><ele>20.5</ele><time>2026-04-30T14:59:59.85Z</time></trkpt><trkpt lat="38.8320076" lon="20.8672562"><ele>21.0</ele><time>2026-04-30T15:00:00.85Z</time></trkpt><trkpt lat="38.8322306" lon="20.8671586"><ele>21.0</ele><time>2026-04-30T15:00:01.848Z</time></trkpt><trkpt lat="38.8324601" lon="20.8670714"><ele>21.0</ele><time>2026-04-30T15:00:02.85Z</time></trkpt><trkpt lat="38.832683" lon="20.866989"><ele>21.5</ele><time>2026-04-30T15:00:03.851Z</time></trkpt><trkpt lat="38.8329056" lon="20.8669097"><ele>22.0</ele><time>2026-04-30T15:00:04.849Z</time></trkpt><trkpt lat="38.8331262" lon="20.8668326"><ele>22.0</ele><time>2026-04-30T15:00:05.85Z</time></trkpt><trkpt lat="38.8333417" lon="20.8667552"><ele>22.0</ele><time>2026-04-30T15:00:06.848Z</time></trkpt><trkpt lat="38.8335513" lon="20.8666837"><ele>22.0</ele><time>2026-04-30T15:00:07.85Z</time></trkpt><trkpt lat="38.8337701" lon="20.866596"><ele>22.0</ele><time>2026-04-30T15:00:08.851Z</time></trkpt><trkpt lat="38.8339846" lon="20.8665137"><ele>22.0</ele><time>2026-04-30T15:00:09.849Z</time></trkpt><trkpt lat="38.8341947" lon="20.8664347"><ele>22.0</ele><time>2026-04-30T15:00:10.85Z</time></trkpt><trkpt lat="38.8343991" lon="20.8663666"><ele>22.666666666666664</ele><time>2026-04-30T15:00:11.852Z</time></trkpt><trkpt lat="38.8345901" lon="20.866297"><ele>23.333333333333332</ele><time>2026-04-30T15:00:12.849Z</time></trkpt><trkpt lat="38.8347822" lon="20.866245"><ele>24.0</ele><time>2026-04-30T15:00:13.851Z</time></trkpt><trkpt lat="38.834974" lon="20.8662274"><ele>23.666666666666668</ele><time>2026-04-30T15:00:14.85Z</time></trkpt><trkpt lat="38.8351811" lon="20.8662254"><ele>23.333333333333336</ele><time>2026-04-30T15:00:15.85Z</time></trkpt><trkpt lat="38.8353912" lon="20.8662238"><ele>23.0</ele><time>2026-04-30T15:00:16.85Z</time></trkpt><trkpt lat="38.8356076" lon="20.8662297"><ele>23.0</ele><time>2026-04-30T15:00:17.851Z</time></trkpt><trkpt lat="38.8358165" lon="20.8662432"><ele>23.0</ele><time>2026-04-30T15:00:18.847Z</time></trkpt><trkpt lat="38.8360318" lon="20.8662477"><ele>23.0</ele><time>2026-04-30T15:00:19.851Z</time></trkpt><trkpt lat="38.8362428" lon="20.8662613"><ele>23.0</ele><time>2026-04-30T15:00:20.85Z</time></trkpt><trkpt lat="38.8364589" lon="20.8662761"><ele>23.0</ele><time>2026-04-30T15:00:21.852Z</time></trkpt><trkpt lat="38.8366743" lon="20.8662846"><ele>23.0</ele><time>2026-04-30T15:00:22.849Z</time></trkpt><trkpt lat="38.8368886" lon="20.8662923"><ele>22.333333333333336</ele><time>2026-04-30T15:00:23.852Z</time></trkpt><trkpt lat="38.8371085" lon="20.8663043"><ele>21.666666666666668</ele><time>2026-04-30T15:00:24.851Z</time></trkpt><trkpt lat="38.837331" lon="20.8663122"><ele>21.0</ele><time>2026-04-30T15:00:25.852Z</time></trkpt><trkpt lat="38.8375576" lon="20.8663278"><ele>20.0</ele><time>2026-04-30T15:00:26.851Z</time></trkpt><trkpt lat="38.8377866" lon="20.8663418"><ele>19.0</ele><time>2026-04-30T15:00:27.852Z</time></trkpt><trkpt lat="38.838019" lon="20.866363"><ele>19.0</ele><time>2026-04-30T15:00:28.852Z</time></trkpt><trkpt lat="38.8382516" lon="20.866366"><ele>19.0</ele><time>2026-04-30T15:00:29.851Z</time></trkpt><trkpt lat="38.8384819" lon="20.8663781"><ele>18.0</ele><time>2026-04-30T15:00:30.85Z</time></trkpt><trkpt lat="38.8387132" lon="20.8663972"><ele>17.0</ele><time>2026-04-30T15:00:31.852Z</time></trkpt><trkpt lat="38.8389429" lon="20.866411"><ele>17.0</ele><time>2026-04-30T15:00:32.851Z</time></trkpt><trkpt lat="38.8391712" lon="20.8664235"><ele>17.0</ele><time>2026-04-30T15:00:33.852Z</time></trkpt><trkpt lat="38.839406" lon="20.8664396"><ele>15.5</ele><time>2026-04-30T15:00:34.852Z</time></trkpt><trkpt lat="38.8396463" lon="20.8664538"><ele>14.0</ele><time>2026-04-30T15:00:35.852Z</time></trkpt><trkpt lat="38.8398847" lon="20.8664674"><ele>14.0</ele><time>2026-04-30T15:00:36.851Z</time></trkpt><trkpt lat="38.8401217" lon="20.8664781"><ele>14.0</ele><time>2026-04-30T15:00:37.852Z</time></trkpt><trkpt lat="38.8403581" lon="20.8664853"><ele>13.5</ele><time>2026-04-30T15:00:38.852Z</time></trkpt><trkpt lat="38.8405961" lon="20.8664977"><ele>13.0</ele><time>2026-04-30T15:00:39.85Z</time></trkpt><trkpt lat="38.8408353" lon="20.8665045"><ele>14.0</ele><time>2026-04-30T15:00:40.852Z</time></trkpt><trkpt lat="38.8410727" lon="20.8665123"><ele>15.0</ele><time>2026-04-30T15:00:41.851Z</time></trkpt><trkpt lat="38.8413038" lon="20.8665235"><ele>15.0</ele><time>2026-04-30T15:00:42.851Z</time></trkpt><trkpt lat="38.8415368" lon="20.8665337"><ele>15.0</ele><time>2026-04-30T15:00:43.851Z</time></trkpt><trkpt lat="38.8417677" lon="20.8665504"><ele>15.5</ele><time>2026-04-30T15:00:44.85Z</time></trkpt><trkpt lat="38.8420062" lon="20.8665694"><ele>16.0</ele><time>2026-04-30T15:00:45.85Z</time></trkpt><trkpt lat="38.8422367" lon="20.8665867"><ele>16.0</ele><time>2026-04-30T15:00:46.849Z</time></trkpt><trkpt lat="38.8424677" lon="20.8666022"><ele>16.0</ele><time>2026-04-30T15:00:47.851Z</time></trkpt><trkpt lat="38.8427044" lon="20.8666262"><ele>16.0</ele><time>2026-04-30T15:00:48.852Z</time></trkpt><trkpt lat="38.842941" lon="20.8666478"><ele>16.0</ele><time>2026-04-30T15:00:49.852Z</time></trkpt><trkpt lat="38.843177" lon="20.8666709"><ele>16.0</ele><time>2026-04-30T15:00:50.851Z</time></trkpt><trkpt lat="38.8434136" lon="20.866699"><ele>16.0</ele><time>2026-04-30T15:00:51.852Z</time></trkpt><trkpt lat="38.8436637" lon="20.8667008"><ele>15.5</ele><time>2026-04-30T15:00:52.851Z</time></trkpt><trkpt lat="38.8439001" lon="20.8667359"><ele>15.0</ele><time>2026-04-30T15:00:53.852Z</time></trkpt><trkpt lat="38.8441364" lon="20.8667619"><ele>16.5</ele><time>2026-04-30T15:00:54.851Z</time></trkpt><trkpt lat="38.8443696" lon="20.8667885"><ele>18.0</ele><time>2026-04-30T15:00:55.852Z</time></trkpt><trkpt lat="38.8446093" lon="20.8668103"><ele>18.0</ele><time>2026-04-30T15:00:56.85Z</time></trkpt><trkpt lat="38.8448465" lon="20.8668302"><ele>18.0</ele><time>2026-04-30T15:00:57.851Z</time></trkpt><trkpt lat="38.8450809" lon="20.8668485"><ele>17.0</ele><time>2026-04-30T15:00:58.852Z</time></trkpt><trkpt lat="38.8453121" lon="20.8668713"><ele>16.0</ele><time>2026-04-30T15:00:59.85Z</time></trkpt><trkpt lat="38.8455371" lon="20.8669004"><ele>16.0</ele><time>2026-04-30T15:01:00.851Z</time></trkpt><trkpt lat="38.8457632" lon="20.8669291"><ele>16.0</ele><time>2026-04-30T15:01:01.851Z</time></trkpt><trkpt lat="38.8459798" lon="20.8669554"><ele>16.0</ele><time>2026-04-30T15:01:02.85Z</time></trkpt><trkpt lat="38.8461898" lon="20.8669764"><ele>16.333333333333332</ele><time>2026-04-30T15:01:03.851Z</time></trkpt><trkpt lat="38.8463991" lon="20.8669977"><ele>16.666666666666668</ele><time>2026-04-30T15:01:04.85Z</time></trkpt><trkpt lat="38.8466005" lon="20.8670229"><ele>17.0</ele><time>2026-04-30T15:01:05.851Z</time></trkpt><trkpt lat="38.8467891" lon="20.8670512"><ele>16.333333333333336</ele><time>2026-04-30T15:01:06.852Z</time></trkpt><trkpt lat="38.8469696" lon="20.8670839"><ele>15.666666666666668</ele><time>2026-04-30T15:01:07.851Z</time></trkpt><trkpt lat="38.8471508" lon="20.8671291"><ele>15.0</ele><time>2026-04-30T15:01:08.852Z</time></trkpt><trkpt lat="38.8473305" lon="20.8672256"><ele>15.0</ele><time>2026-04-30T15:01:09.852Z</time></trkpt><trkpt lat="38.8475153" lon="20.867341"><ele>15.0</ele><time>2026-04-30T15:01:10.852Z</time></trkpt><trkpt lat="38.8476972" lon="20.8674593"><ele>15.0</ele><time>2026-04-30T15:01:11.852Z</time></trkpt><trkpt lat="38.8478836" lon="20.867581"><ele>16.333333333333332</ele><time>2026-04-30T15:01:12.851Z</time></trkpt><trkpt lat="38.8480708" lon="20.8677074"><ele>17.666666666666664</ele><time>2026-04-30T15:01:13.85Z</time></trkpt><trkpt lat="38.8482619" lon="20.8678305"><ele>19.0</ele><time>2026-04-30T15:01:14.852Z</time></trkpt><trkpt lat="38.8484542" lon="20.8679623"><ele>18.0</ele><time>2026-04-30T15:01:15.849Z</time></trkpt><trkpt lat="38.8486463" lon="20.8680925"><ele>17.0</ele><time>2026-04-30T15:01:16.851Z</time></trkpt><trkpt lat="38.848838" lon="20.8682203"><ele>16.0</ele><time>2026-04-30T15:01:17.851Z</time></trkpt><trkpt lat="38.8490281" lon="20.8683451"><ele>17.666666666666664</ele><time>2026-04-30T15:01:18.849Z</time></trkpt><trkpt lat="38.8492173" lon="20.8684697"><ele>19.333333333333332</ele><time>2026-04-30T15:01:19.851Z</time></trkpt><trkpt lat="38.8494011" lon="20.8685945"><ele>21.0</ele><time>2026-04-30T15:01:20.852Z</time></trkpt><trkpt lat="38.8495884" lon="20.868711"><ele>21.0</ele><time>2026-04-30T15:01:21.851Z</time></trkpt><trkpt lat="38.8497726" lon="20.8688341"><ele>21.0</ele><time>2026-04-30T15:01:22.851Z</time></trkpt><trkpt lat="38.8499544" lon="20.8689544"><ele>21.0</ele><time>2026-04-30T15:01:23.851Z</time></trkpt><trkpt lat="38.8501372" lon="20.8690835"><ele>20.666666666666668</ele><time>2026-04-30T15:01:24.85Z</time></trkpt><trkpt lat="38.8503184" lon="20.8692244"><ele>20.333333333333336</ele><time>2026-04-30T15:01:25.849Z</time></trkpt><trkpt lat="38.8505053" lon="20.8693673"><ele>20.0</ele><time>2026-04-30T15:01:26.852Z</time></trkpt><trkpt lat="38.8506928" lon="20.8695139"><ele>20.0</ele><time>2026-04-30T15:01:27.852Z</time></trkpt><trkpt lat="38.8508801" lon="20.8696607"><ele>20.0</ele><time>2026-04-30T15:01:28.851Z</time></trkpt><trkpt lat="38.8510728" lon="20.8698152"><ele>20.0</ele><time>2026-04-30T15:01:29.85Z</time></trkpt><trkpt lat="38.8512669" lon="20.8699767"><ele>20.0</ele><time>2026-04-30T15:01:30.849Z</time></trkpt><trkpt lat="38.8514629" lon="20.8701322"><ele>20.0</ele><time>2026-04-30T15:01:31.852Z</time></trkpt><trkpt lat="38.8516525" lon="20.8703001"><ele>18.0</ele><time>2026-04-30T15:01:32.851Z</time></trkpt><trkpt lat="38.8518463" lon="20.8704669"><ele>16.0</ele><time>2026-04-30T15:01:33.85Z</time></trkpt><trkpt lat="38.8520373" lon="20.8706312"><ele>16.0</ele><time>2026-04-30T15:01:34.849Z</time></trkpt><trkpt lat="38.8522269" lon="20.8707991"><ele>16.0</ele><time>2026-04-30T15:01:35.852Z</time></trkpt><trkpt lat="38.8524143" lon="20.8709646"><ele>17.0</ele><time>2026-04-30T15:01:36.848Z</time></trkpt><trkpt lat="38.8526023" lon="20.8711274"><ele>18.0</ele><time>2026-04-30T15:01:37.851Z</time></trkpt><trkpt lat="38.8527932" lon="20.8712905"><ele>16.0</ele><time>2026-04-30T15:01:38.852Z</time></trkpt><trkpt lat="38.8529796" lon="20.8714571"><ele>14.0</ele><time>2026-04-30T15:01:39.851Z</time></trkpt><trkpt lat="38.8531682" lon="20.8716121"><ele>14.0</ele><time>2026-04-30T15:01:40.851Z</time></trkpt><trkpt lat="38.8533611" lon="20.8717656"><ele>14.0</ele><time>2026-04-30T15:01:41.85Z</time></trkpt><trkpt lat="38.8535512" lon="20.8719345"><ele>14.0</ele><time>2026-04-30T15:01:42.85Z</time></trkpt><trkpt lat="38.8537427" lon="20.8721041"><ele>14.0</ele><time>2026-04-30T15:01:43.851Z</time></trkpt><trkpt lat="38.8539363" lon="20.8722733"><ele>14.0</ele><time>2026-04-30T15:01:44.851Z</time></trkpt><trkpt lat="38.8541299" lon="20.8724433"><ele>14.0</ele><time>2026-04-30T15:01:45.851Z</time></trkpt><trkpt lat="38.8543274" lon="20.8726058"><ele>13.5</ele><time>2026-04-30T15:01:46.851Z</time></trkpt><trkpt lat="38.854523" lon="20.8727715"><ele>13.0</ele><time>2026-04-30T15:01:47.852Z</time></trkpt><trkpt lat="38.8547185" lon="20.8729386"><ele>13.0</ele><time>2026-04-30T15:01:48.851Z</time></trkpt><trkpt lat="38.8549136" lon="20.8731132"><ele>13.0</ele><time>2026-04-30T15:01:49.851Z</time></trkpt><trkpt lat="38.8551084" lon="20.8732834"><ele>13.5</ele><time>2026-04-30T15:01:50.852Z</time></trkpt><trkpt lat="38.8552966" lon="20.8734495"><ele>14.0</ele><time>2026-04-30T15:01:51.851Z</time></trkpt><trkpt lat="38.8554864" lon="20.8736127"><ele>14.0</ele><time>2026-04-30T15:01:52.852Z</time></trkpt><trkpt lat="38.8556753" lon="20.8737711"><ele>14.0</ele><time>2026-04-30T15:01:53.851Z</time></trkpt><trkpt lat="38.8558615" lon="20.8739399"><ele>13.0</ele><time>2026-04-30T15:01:54.851Z</time></trkpt><trkpt lat="38.8560522" lon="20.874097"><ele>12.0</ele><time>2026-04-30T15:01:55.851Z</time></trkpt><trkpt lat="38.8562497" lon="20.8742507"><ele>12.5</ele><time>2026-04-30T15:01:56.851Z</time></trkpt><trkpt lat="38.8564441" lon="20.8744121"><ele>13.0</ele><time>2026-04-30T15:01:57.852Z</time></trkpt><trkpt lat="38.8566348" lon="20.8745766"><ele>12.0</ele><time>2026-04-30T15:01:58.852Z</time></trkpt><trkpt lat="38.856827" lon="20.8747436"><ele>11.0</ele><time>2026-04-30T15:01:59.851Z</time></trkpt><trkpt lat="38.8570223" lon="20.8749122"><ele>11.0</ele><time>2026-04-30T15:02:00.85Z</time></trkpt><trkpt lat="38.8572178" lon="20.8750797"><ele>11.0</ele><time>2026-04-30T15:02:01.851Z</time></trkpt><trkpt lat="38.8574068" lon="20.8752491"><ele>12.0</ele><time>2026-04-30T15:02:02.852Z</time></trkpt><trkpt lat="38.8575967" lon="20.8754149"><ele>13.0</ele><time>2026-04-30T15:02:03.852Z</time></trkpt><trkpt lat="38.8577796" lon="20.875573"><ele>12.666666666666666</ele><time>2026-04-30T15:02:04.851Z</time></trkpt><trkpt lat="38.8579619" lon="20.875735"><ele>12.333333333333332</ele><time>2026-04-30T15:02:05.85Z</time></trkpt><trkpt lat="38.8581394" lon="20.8758885"><ele>12.0</ele><time>2026-04-30T15:02:06.852Z</time></trkpt><trkpt lat="38.8583186" lon="20.8760521"><ele>11.666666666666666</ele><time>2026-04-30T15:02:07.851Z</time></trkpt><trkpt lat="38.8584998" lon="20.8762125"><ele>11.333333333333332</ele><time>2026-04-30T15:02:08.852Z</time></trkpt><trkpt lat="38.8586797" lon="20.8763661"><ele>11.0</ele><time>2026-04-30T15:02:09.851Z</time></trkpt><trkpt lat="38.8588592" lon="20.8765213"><ele>11.0</ele><time>2026-04-30T15:02:10.852Z</time></trkpt><trkpt lat="38.8590338" lon="20.8766697"><ele>11.0</ele><time>2026-04-30T15:02:11.851Z</time></trkpt><trkpt lat="38.8592071" lon="20.8768158"><ele>11.0</ele><time>2026-04-30T15:02:12.851Z</time></trkpt><trkpt lat="38.859374" lon="20.8769623"><ele>11.666666666666666</ele><time>2026-04-30T15:02:13.85Z</time></trkpt><trkpt lat="38.8595397" lon="20.8771152"><ele>12.333333333333332</ele><time>2026-04-30T15:02:14.85Z</time></trkpt><trkpt lat="38.8596993" lon="20.8772483"><ele>13.0</ele><time>2026-04-30T15:02:15.848Z</time></trkpt><trkpt lat="38.859859" lon="20.8773812"><ele>13.0</ele><time>2026-04-30T15:02:16.852Z</time></trkpt><trkpt lat="38.860013" lon="20.8775138"><ele>13.0</ele><time>2026-04-30T15:02:17.852Z</time></trkpt><trkpt lat="38.8601688" lon="20.8776476"><ele>13.0</ele><time>2026-04-30T15:02:18.849Z</time></trkpt><trkpt lat="38.8603259" lon="20.877788"><ele>13.0</ele><time>2026-04-30T15:02:19.852Z</time></trkpt><trkpt lat="38.860482" lon="20.8779259"><ele>13.0</ele><time>2026-04-30T15:02:20.851Z</time></trkpt><trkpt lat="38.8606332" lon="20.8780631"><ele>13.0</ele><time>2026-04-30T15:02:21.851Z</time></trkpt><trkpt lat="38.8607889" lon="20.8781899"><ele>13.0</ele><time>2026-04-30T15:02:22.849Z</time></trkpt><trkpt lat="38.8609479" lon="20.878328"><ele>13.0</ele><time>2026-04-30T15:02:23.85Z</time></trkpt><trkpt lat="38.8611041" lon="20.8784595"><ele>13.0</ele><time>2026-04-30T15:02:24.85Z</time></trkpt><trkpt lat="38.8612642" lon="20.8786004"><ele>13.0</ele><time>2026-04-30T15:02:25.85Z</time></trkpt><trkpt lat="38.8614355" lon="20.878739"><ele>13.0</ele><time>2026-04-30T15:02:26.851Z</time></trkpt><trkpt lat="38.8616202" lon="20.8788872"><ele>13.0</ele><time>2026-04-30T15:02:27.852Z</time></trkpt><trkpt lat="38.8618187" lon="20.8790495"><ele>13.0</ele><time>2026-04-30T15:02:28.852Z</time></trkpt><trkpt lat="38.8620193" lon="20.8792243"><ele>13.0</ele><time>2026-04-30T15:02:29.849Z</time></trkpt><trkpt lat="38.8622238" lon="20.8793981"><ele>13.0</ele><time>2026-04-30T15:02:30.851Z</time></trkpt><trkpt lat="38.8624296" lon="20.8795767"><ele>13.0</ele><time>2026-04-30T15:02:31.851Z</time></trkpt><trkpt lat="38.862628" lon="20.8797659"><ele>13.5</ele><time>2026-04-30T15:02:32.85Z</time></trkpt><trkpt lat="38.8628316" lon="20.8799524"><ele>14.0</ele><time>2026-04-30T15:02:33.851Z</time></trkpt><trkpt lat="38.8630343" lon="20.8801379"><ele>14.0</ele><time>2026-04-30T15:02:34.851Z</time></trkpt><trkpt lat="38.8632412" lon="20.880322"><ele>14.0</ele><time>2026-04-30T15:02:35.852Z</time></trkpt><trkpt lat="38.8634505" lon="20.8805016"><ele>14.0</ele><time>2026-04-30T15:02:36.852Z</time></trkpt><trkpt lat="38.8636572" lon="20.8806813"><ele>14.0</ele><time>2026-04-30T15:02:37.851Z</time></trkpt><trkpt lat="38.8638664" lon="20.8808601"><ele>14.5</ele><time>2026-04-30T15:02:38.851Z</time></trkpt><trkpt lat="38.8640678" lon="20.8810277"><ele>15.0</ele><time>2026-04-30T15:02:39.852Z</time></trkpt><trkpt lat="38.8642671" lon="20.8811979"><ele>16.5</ele><time>2026-04-30T15:02:40.852Z</time></trkpt><trkpt lat="38.8644737" lon="20.8813629"><ele>18.0</ele><time>2026-04-30T15:02:41.851Z</time></trkpt><trkpt lat="38.8646722" lon="20.8815354"><ele>18.0</ele><time>2026-04-30T15:02:42.851Z</time></trkpt><trkpt lat="38.8648675" lon="20.8817126"><ele>18.0</ele><time>2026-04-30T15:02:43.849Z</time></trkpt><trkpt lat="38.8650729" lon="20.8818886"><ele>17.0</ele><time>2026-04-30T15:02:44.85Z</time></trkpt><trkpt lat="38.8652854" lon="20.8820615"><ele>16.0</ele><time>2026-04-30T15:02:45.85Z</time></trkpt><trkpt lat="38.865494" lon="20.8822413"><ele>16.0</ele><time>2026-04-30T15:02:46.85Z</time></trkpt><trkpt lat="38.8657039" lon="20.8824198"><ele>16.0</ele><time>2026-04-30T15:02:47.85Z</time></trkpt><trkpt lat="38.8659053" lon="20.8826035"><ele>17.5</ele><time>2026-04-30T15:02:48.852Z</time></trkpt><trkpt lat="38.8661099" lon="20.8827789"><ele>19.0</ele><time>2026-04-30T15:02:49.848Z</time></trkpt><trkpt lat="38.8663098" lon="20.882955"><ele>19.0</ele><time>2026-04-30T15:02:50.851Z</time></trkpt><trkpt lat="38.8665165" lon="20.8831305"><ele>19.0</ele><time>2026-04-30T15:02:51.851Z</time></trkpt><trkpt lat="38.8667252" lon="20.8833063"><ele>19.5</ele><time>2026-04-30T15:02:52.851Z</time></trkpt><trkpt lat="38.8669345" lon="20.8834846"><ele>20.0</ele><time>2026-04-30T15:02:53.851Z</time></trkpt><trkpt lat="38.8671339" lon="20.8836554"><ele>20.0</ele><time>2026-04-30T15:02:54.852Z</time></trkpt><trkpt lat="38.8673232" lon="20.8838173"><ele>20.0</ele><time>2026-04-30T15:02:55.851Z</time></trkpt><trkpt lat="38.8675054" lon="20.883968"><ele>20.0</ele><time>2026-04-30T15:02:56.852Z</time></trkpt><trkpt lat="38.8676644" lon="20.8841197"><ele>23.0</ele><time>2026-04-30T15:02:57.852Z</time></trkpt><trkpt lat="38.8678077" lon="20.8842751"><ele>26.0</ele><time>2026-04-30T15:02:58.849Z</time></trkpt><trkpt lat="38.8679347" lon="20.8844452"><ele>29.0</ele><time>2026-04-30T15:02:59.852Z</time></trkpt><trkpt lat="38.8680302" lon="20.8846421"><ele>29.0</ele><time>2026-04-30T15:03:00.852Z</time></trkpt><trkpt lat="38.8681108" lon="20.8848507"><ele>29.0</ele><time>2026-04-30T15:03:01.851Z</time></trkpt><trkpt lat="38.8681848" lon="20.885055"><ele>29.0</ele><time>2026-04-30T15:03:02.85Z</time></trkpt><trkpt lat="38.8682571" lon="20.8852653"><ele>29.0</ele><time>2026-04-30T15:03:03.849Z</time></trkpt><trkpt lat="38.8683315" lon="20.8854682"><ele>29.0</ele><time>2026-04-30T15:03:04.851Z</time></trkpt><trkpt lat="38.8684208" lon="20.8856372"><ele>29.0</ele><time>2026-04-30T15:03:05.852Z</time></trkpt><trkpt lat="38.8685433" lon="20.8857847"><ele>31.0</ele><time>2026-04-30T15:03:06.85Z</time></trkpt><trkpt lat="38.8686691" lon="20.8858974"><ele>33.0</ele><time>2026-04-30T15:03:07.851Z</time></trkpt><trkpt lat="38.8687875" lon="20.8859941"><ele>35.0</ele><time>2026-04-30T15:03:08.852Z</time></trkpt><trkpt lat="38.8688976" lon="20.8860929"><ele>37.0</ele><time>2026-04-30T15:03:09.852Z</time></trkpt><trkpt lat="38.8689965" lon="20.8862036"><ele>37.25</ele><time>2026-04-30T15:03:10.851Z</time></trkpt><trkpt lat="38.8690736" lon="20.8863348"><ele>37.5</ele><time>2026-04-30T15:03:11.851Z</time></trkpt><trkpt lat="38.8691339" lon="20.886486"><ele>37.75</ele><time>2026-04-30T15:03:12.851Z</time></trkpt><trkpt lat="38.8691739" lon="20.8866556"><ele>38.0</ele><time>2026-04-30T15:03:13.849Z</time></trkpt><trkpt lat="38.8692124" lon="20.8868208"><ele>38.0</ele><time>2026-04-30T15:03:14.852Z</time></trkpt><trkpt lat="38.8692432" lon="20.8869941"><ele>38.0</ele><time>2026-04-30T15:03:15.852Z</time></trkpt><trkpt lat="38.8692642" lon="20.8871681"><ele>38.0</ele><time>2026-04-30T15:03:16.85Z</time></trkpt><trkpt lat="38.8693032" lon="20.8873396"><ele>38.0</ele><time>2026-04-30T15:03:17.852Z</time></trkpt><trkpt lat="38.8693593" lon="20.8875057"><ele>39.33333333333333</ele><time>2026-04-30T15:03:18.85Z</time></trkpt><trkpt lat="38.8694405" lon="20.8876704"><ele>40.666666666666664</ele><time>2026-04-30T15:03:19.85Z</time></trkpt><trkpt lat="38.8695536" lon="20.8878465"><ele>42.0</ele><time>2026-04-30T15:03:20.851Z</time></trkpt><trkpt lat="38.8697025" lon="20.8880402"><ele>42.0</ele><time>2026-04-30T15:03:21.851Z</time></trkpt><trkpt lat="38.8698763" lon="20.8882824"><ele>42.0</ele><time>2026-04-30T15:03:22.85Z</time></trkpt><trkpt lat="38.870045" lon="20.8885526"><ele>42.5</ele><time>2026-04-30T15:03:23.851Z</time></trkpt><trkpt lat="38.8702085" lon="20.8888135"><ele>43.0</ele><time>2026-04-30T15:03:24.85Z</time></trkpt><trkpt lat="38.8703476" lon="20.8890442"><ele>43.0</ele><time>2026-04-30T15:03:25.851Z</time></trkpt><trkpt lat="38.870483" lon="20.8892413"><ele>43.0</ele><time>2026-04-30T15:03:26.848Z</time></trkpt><trkpt lat="38.8705882" lon="20.8894078"><ele>43.0</ele><time>2026-04-30T15:03:27.851Z</time></trkpt><trkpt lat="38.870687" lon="20.8895466"><ele>43.25</ele><time>2026-04-30T15:03:28.85Z</time></trkpt><trkpt lat="38.8707989" lon="20.8896552"><ele>43.5</ele><time>2026-04-30T15:03:29.85Z</time></trkpt><trkpt lat="38.8709274" lon="20.889737"><ele>43.75</ele><time>2026-04-30T15:03:30.851Z</time></trkpt><trkpt lat="38.8710835" lon="20.8897869"><ele>44.0</ele><time>2026-04-30T15:03:31.849Z</time></trkpt><trkpt lat="38.8712589" lon="20.8898034"><ele>44.0</ele><time>2026-04-30T15:03:32.849Z</time></trkpt><trkpt lat="38.8714459" lon="20.8898009"><ele>44.0</ele><time>2026-04-30T15:03:33.85Z</time></trkpt><trkpt lat="38.8716314" lon="20.8898073"><ele>44.0</ele><time>2026-04-30T15:03:34.852Z</time></trkpt><trkpt lat="38.8718205" lon="20.8898115"><ele>45.666666666666664</ele><time>2026-04-30T15:03:35.847Z</time></trkpt><trkpt lat="38.8720142" lon="20.8898198"><ele>47.33333333333333</ele><time>2026-04-30T15:03:36.851Z</time></trkpt><trkpt lat="38.8722075" lon="20.8898249"><ele>49.0</ele><time>2026-04-30T15:03:37.851Z</time></trkpt><trkpt lat="38.8724009" lon="20.8898286"><ele>49.0</ele><time>2026-04-30T15:03:38.852Z</time></trkpt><trkpt lat="38.8725749" lon="20.8898221"><ele>49.0</ele><time>2026-04-30T15:03:39.849Z</time></trkpt><trkpt lat="38.8727383" lon="20.8898197"><ele>49.0</ele><time>2026-04-30T15:03:40.851Z</time></trkpt><trkpt lat="38.8728849" lon="20.8898184"><ele>50.75</ele><time>2026-04-30T15:03:41.852Z</time></trkpt><trkpt lat="38.87302" lon="20.8898358"><ele>52.5</ele><time>2026-04-30T15:03:42.85Z</time></trkpt><trkpt lat="38.8731328" lon="20.8899076"><ele>54.25</ele><time>2026-04-30T15:03:43.85Z</time></trkpt><trkpt lat="38.8732263" lon="20.8900039"><ele>56.0</ele><time>2026-04-30T15:03:44.851Z</time></trkpt><trkpt lat="38.8732926" lon="20.890135"><ele>56.0</ele><time>2026-04-30T15:03:45.851Z</time></trkpt><trkpt lat="38.873337" lon="20.8902977"><ele>56.0</ele><time>2026-04-30T15:03:46.85Z</time></trkpt><trkpt lat="38.8733677" lon="20.8904816"><ele>56.0</ele><time>2026-04-30T15:03:47.852Z</time></trkpt><trkpt lat="38.873393" lon="20.8906755"><ele>56.0</ele><time>2026-04-30T15:03:48.851Z</time></trkpt><trkpt lat="38.8734231" lon="20.8908634"><ele>60.333333333333336</ele><time>2026-04-30T15:03:49.851Z</time></trkpt><trkpt lat="38.8734421" lon="20.8910574"><ele>64.66666666666667</ele><time>2026-04-30T15:03:50.852Z</time></trkpt><trkpt lat="38.8734695" lon="20.8912471"><ele>69.0</ele><time>2026-04-30T15:03:51.85Z</time></trkpt><trkpt lat="38.8734926" lon="20.8914467"><ele>69.0</ele><time>2026-04-30T15:03:52.851Z</time></trkpt><trkpt lat="38.873512" lon="20.8916543"><ele>69.0</ele><time>2026-04-30T15:03:53.849Z</time></trkpt><trkpt lat="38.8735501" lon="20.89188"><ele>69.0</ele><time>2026-04-30T15:03:54.85Z</time></trkpt><trkpt lat="38.8735909" lon="20.8921389"><ele>70.0</ele><time>2026-04-30T15:03:55.849Z</time></trkpt><trkpt lat="38.8736192" lon="20.8924168"><ele>71.0</ele><time>2026-04-30T15:03:56.85Z</time></trkpt><trkpt lat="38.8736501" lon="20.8926797"><ele>72.0</ele><time>2026-04-30T15:03:57.851Z</time></trkpt><trkpt lat="38.8736896" lon="20.8929136"><ele>72.0</ele><time>2026-04-30T15:03:58.849Z</time></trkpt><trkpt lat="38.873753" lon="20.8931341"><ele>72.0</ele><time>2026-04-30T15:03:59.851Z</time></trkpt><trkpt lat="38.8738443" lon="20.8933455"><ele>72.0</ele><time>2026-04-30T15:04:00.85Z</time></trkpt><trkpt lat="38.8739642" lon="20.8935561"><ele>72.0</ele><time>2026-04-30T15:04:01.85Z</time></trkpt><trkpt lat="38.8740853" lon="20.8937522"><ele>72.0</ele><time>2026-04-30T15:04:02.851Z</time></trkpt><trkpt lat="38.8742014" lon="20.8939425"><ele>72.0</ele><time>2026-04-30T15:04:03.848Z</time></trkpt><trkpt lat="38.8743102" lon="20.8941246"><ele>73.66666666666667</ele><time>2026-04-30T15:04:04.851Z</time></trkpt><trkpt lat="38.8744054" lon="20.8942959"><ele>75.33333333333334</ele><time>2026-04-30T15:04:05.849Z</time></trkpt><trkpt lat="38.8744861" lon="20.8944557"><ele>77.0</ele><time>2026-04-30T15:04:06.85Z</time></trkpt><trkpt lat="38.8745547" lon="20.8946168"><ele>77.0</ele><time>2026-04-30T15:04:07.85Z</time></trkpt><trkpt lat="38.8745649" lon="20.894796"><ele>77.0</ele><time>2026-04-30T15:04:08.849Z</time></trkpt><trkpt lat="38.8745652" lon="20.8949911"><ele>77.0</ele><time>2026-04-30T15:04:09.85Z</time></trkpt><trkpt lat="38.874551" lon="20.8952062"><ele>78.0</ele><time>2026-04-30T15:04:10.851Z</time></trkpt><trkpt lat="38.874518" lon="20.8954364"><ele>79.0</ele><time>2026-04-30T15:04:11.851Z</time></trkpt><trkpt lat="38.8744728" lon="20.8956556"><ele>80.0</ele><time>2026-04-30T15:04:12.85Z</time></trkpt><trkpt lat="38.8744452" lon="20.8958686"><ele>79.0</ele><time>2026-04-30T15:04:13.849Z</time></trkpt><trkpt lat="38.8744112" lon="20.8960679"><ele>78.0</ele><time>2026-04-30T15:04:14.851Z</time></trkpt><trkpt lat="38.8743916" lon="20.8962537"><ele>77.0</ele><time>2026-04-30T15:04:15.851Z</time></trkpt><trkpt lat="38.8743957" lon="20.8964267"><ele>76.0</ele><time>2026-04-30T15:04:16.849Z</time></trkpt><trkpt lat="38.8744257" lon="20.8965854"><ele>76.0</ele><time>2026-04-30T15:04:17.848Z</time></trkpt><trkpt lat="38.8744988" lon="20.8967389"><ele>76.0</ele><time>2026-04-30T15:04:18.849Z</time></trkpt><trkpt lat="38.8746025" lon="20.8968813"><ele>76.0</ele><time>2026-04-30T15:04:19.85Z</time></trkpt><trkpt lat="38.8747335" lon="20.8970349"><ele>76.0</ele><time>2026-04-30T15:04:20.851Z</time></trkpt><trkpt lat="38.8748562" lon="20.8971888"><ele>76.0</ele><time>2026-04-30T15:04:21.851Z</time></trkpt><trkpt lat="38.8749798" lon="20.8973411"><ele>76.0</ele><time>2026-04-30T15:04:22.849Z</time></trkpt><trkpt lat="38.8751091" lon="20.8974976"><ele>76.66666666666666</ele><time>2026-04-30T15:04:23.851Z</time></trkpt><trkpt lat="38.8752432" lon="20.8976574"><ele>77.33333333333333</ele><time>2026-04-30T15:04:24.851Z</time></trkpt><trkpt lat="38.8753642" lon="20.897803"><ele>78.0</ele><time>2026-04-30T15:04:25.852Z</time></trkpt><trkpt lat="38.8754816" lon="20.8979456"><ele>78.0</ele><time>2026-04-30T15:04:26.852Z</time></trkpt><trkpt lat="38.8755854" lon="20.8980569"><ele>78.0</ele><time>2026-04-30T15:04:27.851Z</time></trkpt><trkpt lat="38.8756926" lon="20.8981309"><ele>78.0</ele><time>2026-04-30T15:04:28.851Z</time></trkpt><trkpt lat="38.8758268" lon="20.8981719"><ele>78.0</ele><time>2026-04-30T15:04:29.85Z</time></trkpt><trkpt lat="38.8759899" lon="20.8981884"><ele>76.33333333333333</ele><time>2026-04-30T15:04:30.848Z</time></trkpt><trkpt lat="38.8761485" lon="20.8981954"><ele>74.66666666666666</ele><time>2026-04-30T15:04:31.852Z</time></trkpt><trkpt lat="38.8763049" lon="20.898189"><ele>73.0</ele><time>2026-04-30T15:04:32.851Z</time></trkpt><trkpt lat="38.8764706" lon="20.8981761"><ele>73.0</ele><time>2026-04-30T15:04:33.851Z</time></trkpt><trkpt lat="38.8766256" lon="20.8981702"><ele>73.0</ele><time>2026-04-30T15:04:34.852Z</time></trkpt><trkpt lat="38.876787" lon="20.8981755"><ele>73.0</ele><time>2026-04-30T15:04:35.85Z</time></trkpt><trkpt lat="38.8769566" lon="20.898198"><ele>71.0</ele><time>2026-04-30T15:04:36.851Z</time></trkpt><trkpt lat="38.8771376" lon="20.898223"><ele>69.0</ele><time>2026-04-30T15:04:37.852Z</time></trkpt><trkpt lat="38.8772996" lon="20.898274"><ele>67.0</ele><time>2026-04-30T15:04:38.85Z</time></trkpt><trkpt lat="38.8774533" lon="20.8983358"><ele>67.0</ele><time>2026-04-30T15:04:39.85Z</time></trkpt><trkpt lat="38.8775974" lon="20.8983992"><ele>67.0</ele><time>2026-04-30T15:04:40.851Z</time></trkpt><trkpt lat="38.8777401" lon="20.8984388"><ele>67.0</ele><time>2026-04-30T15:04:41.85Z</time></trkpt><trkpt lat="38.8778817" lon="20.8984304"><ele>67.0</ele><time>2026-04-30T15:04:42.849Z</time></trkpt><trkpt lat="38.878018" lon="20.8983795"><ele>65.66666666666666</ele><time>2026-04-30T15:04:43.851Z</time></trkpt><trkpt lat="38.8781622" lon="20.8982759"><ele>64.33333333333333</ele><time>2026-04-30T15:04:44.851Z</time></trkpt><trkpt lat="38.8783018" lon="20.8981516"><ele>63.0</ele><time>2026-04-30T15:04:45.852Z</time></trkpt><trkpt lat="38.8784441" lon="20.8980301"><ele>61.0</ele><time>2026-04-30T15:04:46.85Z</time></trkpt><trkpt lat="38.878573" lon="20.8979122"><ele>59.0</ele><time>2026-04-30T15:04:47.851Z</time></trkpt><trkpt lat="38.8786993" lon="20.8978088"><ele>57.0</ele><time>2026-04-30T15:04:48.851Z</time></trkpt><trkpt lat="38.8788148" lon="20.8977104"><ele>55.0</ele><time>2026-04-30T15:04:49.851Z</time></trkpt><trkpt lat="38.8789103" lon="20.8976197"><ele>56.0</ele><time>2026-04-30T15:04:50.852Z</time></trkpt><trkpt lat="38.879016" lon="20.8975226"><ele>57.0</ele><time>2026-04-30T15:04:51.851Z</time></trkpt><trkpt lat="38.8791187" lon="20.89744"><ele>58.0</ele><time>2026-04-30T15:04:52.852Z</time></trkpt><trkpt lat="38.8792199" lon="20.8973572"><ele>59.0</ele><time>2026-04-30T15:04:53.851Z</time></trkpt><trkpt lat="38.8793183" lon="20.8972699"><ele>57.0</ele><time>2026-04-30T15:04:54.851Z</time></trkpt><trkpt lat="38.879421" lon="20.8971802"><ele>55.0</ele><time>2026-04-30T15:04:55.851Z</time></trkpt><trkpt lat="38.8795295" lon="20.897096"><ele>53.0</ele><time>2026-04-30T15:04:56.852Z</time></trkpt><trkpt lat="38.8796325" lon="20.8970103"><ele>51.0</ele><time>2026-04-30T15:04:57.851Z</time></trkpt><trkpt lat="38.8797391" lon="20.8969408"><ele>51.0</ele><time>2026-04-30T15:04:58.852Z</time></trkpt><trkpt lat="38.8798488" lon="20.8968859"><ele>51.0</ele><time>2026-04-30T15:04:59.851Z</time></trkpt><trkpt lat="38.8799778" lon="20.8968471"><ele>51.0</ele><time>2026-04-30T15:05:00.852Z</time></trkpt><trkpt lat="38.8801348" lon="20.8968019"><ele>51.0</ele><time>2026-04-30T15:05:01.851Z</time></trkpt><trkpt lat="38.8803392" lon="20.8967947"><ele>49.0</ele><time>2026-04-30T15:05:02.85Z</time></trkpt><trkpt lat="38.8805547" lon="20.8967932"><ele>47.0</ele><time>2026-04-30T15:05:03.852Z</time></trkpt><trkpt lat="38.8808529" lon="20.8968077"><ele>45.5</ele><time>2026-04-30T15:05:04.851Z</time></trkpt><trkpt lat="38.8811595" lon="20.8967954"><ele>44.0</ele><time>2026-04-30T15:05:05.852Z</time></trkpt><trkpt lat="38.8814779" lon="20.8967964"><ele>43.0</ele><time>2026-04-30T15:05:06.85Z</time></trkpt><trkpt lat="38.8817926" lon="20.8967932"><ele>42.0</ele><time>2026-04-30T15:05:07.852Z</time></trkpt><trkpt lat="38.8820959" lon="20.8967854"><ele>42.0</ele><time>2026-04-30T15:05:08.85Z</time></trkpt><trkpt lat="38.8823747" lon="20.896785"><ele>42.0</ele><time>2026-04-30T15:05:09.851Z</time></trkpt><trkpt lat="38.8826573" lon="20.8967762"><ele>41.5</ele><time>2026-04-30T15:05:10.849Z</time></trkpt><trkpt lat="38.8829291" lon="20.8967621"><ele>41.0</ele><time>2026-04-30T15:05:11.851Z</time></trkpt><trkpt lat="38.8831918" lon="20.8967591"><ele>42.5</ele><time>2026-04-30T15:05:12.852Z</time></trkpt><trkpt lat="38.8834575" lon="20.8967495"><ele>44.0</ele><time>2026-04-30T15:05:13.851Z</time></trkpt><trkpt lat="38.8837117" lon="20.8967414"><ele>44.0</ele><time>2026-04-30T15:05:14.851Z</time></trkpt><trkpt lat="38.8839568" lon="20.896738"><ele>44.0</ele><time>2026-04-30T15:05:15.851Z</time></trkpt><trkpt lat="38.8841848" lon="20.8967201"><ele>43.666666666666664</ele><time>2026-04-30T15:05:16.852Z</time></trkpt><trkpt lat="38.8843923" lon="20.8967102"><ele>43.333333333333336</ele><time>2026-04-30T15:05:17.85Z</time></trkpt><trkpt lat="38.884584" lon="20.8967039"><ele>43.0</ele><time>2026-04-30T15:05:18.85Z</time></trkpt><trkpt lat="38.8847671" lon="20.8966992"><ele>43.0</ele><time>2026-04-30T15:05:19.851Z</time></trkpt><trkpt lat="38.8849356" lon="20.896722"><ele>43.0</ele><time>2026-04-30T15:05:20.852Z</time></trkpt><trkpt lat="38.8851044" lon="20.8967753"><ele>43.0</ele><time>2026-04-30T15:05:21.851Z</time></trkpt><trkpt lat="38.8852714" lon="20.89686"><ele>40.66666666666667</ele><time>2026-04-30T15:05:22.852Z</time></trkpt><trkpt lat="38.8854411" lon="20.8969599"><ele>38.333333333333336</ele><time>2026-04-30T15:05:23.852Z</time></trkpt><trkpt lat="38.8856211" lon="20.8970735"><ele>36.0</ele><time>2026-04-30T15:05:24.852Z</time></trkpt><trkpt lat="38.8858055" lon="20.8971935"><ele>36.333333333333336</ele><time>2026-04-30T15:05:25.851Z</time></trkpt><trkpt lat="38.8859926" lon="20.897312"><ele>36.66666666666667</ele><time>2026-04-30T15:05:26.851Z</time></trkpt><trkpt lat="38.8861797" lon="20.8974343"><ele>37.0</ele><time>2026-04-30T15:05:27.85Z</time></trkpt><trkpt lat="38.8863667" lon="20.8975563"><ele>37.66666666666667</ele><time>2026-04-30T15:05:28.851Z</time></trkpt><trkpt lat="38.8865555" lon="20.8976832"><ele>38.333333333333336</ele><time>2026-04-30T15:05:29.849Z</time></trkpt><trkpt lat="38.8867469" lon="20.8978089"><ele>39.0</ele><time>2026-04-30T15:05:30.851Z</time></trkpt><trkpt lat="38.8869431" lon="20.8979329"><ele>39.666666666666664</ele><time>2026-04-30T15:05:31.851Z</time></trkpt><trkpt lat="38.8871359" lon="20.8980614"><ele>40.33333333333333</ele><time>2026-04-30T15:05:32.852Z</time></trkpt><trkpt lat="38.8873282" lon="20.8981858"><ele>41.0</ele><time>2026-04-30T15:05:33.851Z</time></trkpt><trkpt lat="38.8875168" lon="20.8983137"><ele>41.0</ele><time>2026-04-30T15:05:34.849Z</time></trkpt><trkpt lat="38.8877064" lon="20.8984412"><ele>41.0</ele><time>2026-04-30T15:05:35.848Z</time></trkpt><trkpt lat="38.8878978" lon="20.898565"><ele>41.0</ele><time>2026-04-30T15:05:36.851Z</time></trkpt><trkpt lat="38.8880879" lon="20.8986855"><ele>41.0</ele><time>2026-04-30T15:05:37.852Z</time></trkpt><trkpt lat="38.8882833" lon="20.8988139"><ele>41.0</ele><time>2026-04-30T15:05:38.852Z</time></trkpt><trkpt lat="38.8884715" lon="20.8989426"><ele>41.0</ele><time>2026-04-30T15:05:39.851Z</time></trkpt><trkpt lat="38.8886594" lon="20.8990558"><ele>41.0</ele><time>2026-04-30T15:05:40.851Z</time></trkpt><trkpt lat="38.8888443" lon="20.8991717"><ele>41.0</ele><time>2026-04-30T15:05:41.85Z</time></trkpt><trkpt lat="38.8890197" lon="20.899291"><ele>41.0</ele><time>2026-04-30T15:05:42.849Z</time></trkpt><trkpt lat="38.8891908" lon="20.8993961"><ele>40.0</ele><time>2026-04-30T15:05:43.849Z</time></trkpt><trkpt lat="38.8893624" lon="20.8994988"><ele>39.0</ele><time>2026-04-30T15:05:44.852Z</time></trkpt><trkpt lat="38.8895311" lon="20.8996071"><ele>38.0</ele><time>2026-04-30T15:05:45.85Z</time></trkpt><trkpt lat="38.8896993" lon="20.8997131"><ele>38.0</ele><time>2026-04-30T15:05:46.852Z</time></trkpt><trkpt lat="38.8898669" lon="20.8998192"><ele>38.0</ele><time>2026-04-30T15:05:47.85Z</time></trkpt><trkpt lat="38.8900381" lon="20.899916"><ele>38.0</ele><time>2026-04-30T15:05:48.852Z</time></trkpt><trkpt lat="38.8902158" lon="20.8999981"><ele>38.0</ele><time>2026-04-30T15:05:49.85Z</time></trkpt><trkpt lat="38.8904039" lon="20.9000593"><ele>38.0</ele><time>2026-04-30T15:05:50.85Z</time></trkpt><trkpt lat="38.8906031" lon="20.900099"><ele>38.0</ele><time>2026-04-30T15:05:51.85Z</time></trkpt><trkpt lat="38.8908098" lon="20.9001154"><ele>38.0</ele><time>2026-04-30T15:05:52.851Z</time></trkpt><trkpt lat="38.8910233" lon="20.9001069"><ele>38.0</ele><time>2026-04-30T15:05:53.85Z</time></trkpt><trkpt lat="38.8912426" lon="20.9000955"><ele>38.0</ele><time>2026-04-30T15:05:54.851Z</time></trkpt><trkpt lat="38.8914621" lon="20.9000833"><ele>37.0</ele><time>2026-04-30T15:05:55.852Z</time></trkpt><trkpt lat="38.8916759" lon="20.9000656"><ele>36.0</ele><time>2026-04-30T15:05:56.849Z</time></trkpt><trkpt lat="38.8918862" lon="20.9000515"><ele>35.0</ele><time>2026-04-30T15:05:57.851Z</time></trkpt><trkpt lat="38.8920975" lon="20.9000405"><ele>34.33333333333333</ele><time>2026-04-30T15:05:58.85Z</time></trkpt><trkpt lat="38.8923047" lon="20.900027"><ele>33.666666666666664</ele><time>2026-04-30T15:05:59.851Z</time></trkpt><trkpt lat="38.8925153" lon="20.900015"><ele>33.0</ele><time>2026-04-30T15:06:00.851Z</time></trkpt><trkpt lat="38.8927184" lon="20.9000116"><ele>32.666666666666664</ele><time>2026-04-30T15:06:01.851Z</time></trkpt><trkpt lat="38.8929236" lon="20.8999932"><ele>32.33333333333333</ele><time>2026-04-30T15:06:02.85Z</time></trkpt><trkpt lat="38.8931332" lon="20.8999855"><ele>32.0</ele><time>2026-04-30T15:06:03.851Z</time></trkpt><trkpt lat="38.8933397" lon="20.8999833"><ele>32.0</ele><time>2026-04-30T15:06:04.851Z</time></trkpt><trkpt lat="38.8935453" lon="20.8999734"><ele>32.0</ele><time>2026-04-30T15:06:05.852Z</time></trkpt><trkpt lat="38.8937485" lon="20.899969"><ele>32.0</ele><time>2026-04-30T15:06:06.849Z</time></trkpt><trkpt lat="38.8939545" lon="20.8999703"><ele>32.0</ele><time>2026-04-30T15:06:07.851Z</time></trkpt><trkpt lat="38.8941657" lon="20.8999558"><ele>32.0</ele><time>2026-04-30T15:06:08.852Z</time></trkpt><trkpt lat="38.8943808" lon="20.8999382"><ele>32.0</ele><time>2026-04-30T15:06:09.851Z</time></trkpt><trkpt lat="38.8945922" lon="20.8999228"><ele>32.33333333333333</ele><time>2026-04-30T15:06:10.851Z</time></trkpt><trkpt lat="38.8948136" lon="20.8999071"><ele>32.666666666666664</ele><time>2026-04-30T15:06:11.851Z</time></trkpt><trkpt lat="38.8950367" lon="20.8998958"><ele>33.0</ele><time>2026-04-30T15:06:12.852Z</time></trkpt><trkpt lat="38.8952573" lon="20.899883"><ele>33.0</ele><time>2026-04-30T15:06:13.849Z</time></trkpt><trkpt lat="38.8954709" lon="20.8998708"><ele>33.0</ele><time>2026-04-30T15:06:14.851Z</time></trkpt><trkpt lat="38.8956827" lon="20.8998593"><ele>33.0</ele><time>2026-04-30T15:06:15.852Z</time></trkpt><trkpt lat="38.8958775" lon="20.8998439"><ele>31.666666666666664</ele><time>2026-04-30T15:06:16.852Z</time></trkpt><trkpt lat="38.8960633" lon="20.8998357"><ele>30.333333333333332</ele><time>2026-04-30T15:06:17.849Z</time></trkpt><trkpt lat="38.8962417" lon="20.8998181"><ele>29.0</ele><time>2026-04-30T15:06:18.85Z</time></trkpt><trkpt lat="38.8964158" lon="20.8997754"><ele>29.0</ele><time>2026-04-30T15:06:19.851Z</time></trkpt><trkpt lat="38.896593" lon="20.8997002"><ele>29.0</ele><time>2026-04-30T15:06:20.852Z</time></trkpt><trkpt lat="38.8967781" lon="20.8996086"><ele>29.0</ele><time>2026-04-30T15:06:21.851Z</time></trkpt><trkpt lat="38.8969718" lon="20.8995093"><ele>28.666666666666664</ele><time>2026-04-30T15:06:22.852Z</time></trkpt><trkpt lat="38.8971618" lon="20.8994099"><ele>28.333333333333336</ele><time>2026-04-30T15:06:23.852Z</time></trkpt><trkpt lat="38.8973525" lon="20.8993078"><ele>28.0</ele><time>2026-04-30T15:06:24.852Z</time></trkpt><trkpt lat="38.8975439" lon="20.8992055"><ele>27.0</ele><time>2026-04-30T15:06:25.85Z</time></trkpt><trkpt lat="38.8977358" lon="20.899102"><ele>26.0</ele><time>2026-04-30T15:06:26.852Z</time></trkpt><trkpt lat="38.897926" lon="20.8989902"><ele>25.0</ele><time>2026-04-30T15:06:27.851Z</time></trkpt><trkpt lat="38.8981186" lon="20.8988857"><ele>25.0</ele><time>2026-04-30T15:06:28.851Z</time></trkpt><trkpt lat="38.8983177" lon="20.8987794"><ele>25.0</ele><time>2026-04-30T15:06:29.851Z</time></trkpt><trkpt lat="38.8985173" lon="20.898666"><ele>25.0</ele><time>2026-04-30T15:06:30.85Z</time></trkpt><trkpt lat="38.8987144" lon="20.898565"><ele>25.0</ele><time>2026-04-30T15:06:31.852Z</time></trkpt><trkpt lat="38.8989041" lon="20.8984627"><ele>25.0</ele><time>2026-04-30T15:06:32.851Z</time></trkpt><trkpt lat="38.8991063" lon="20.8983593"><ele>25.0</ele><time>2026-04-30T15:06:33.852Z</time></trkpt><trkpt lat="38.8993134" lon="20.8982551"><ele>24.0</ele><time>2026-04-30T15:06:34.851Z</time></trkpt><trkpt lat="38.8995175" lon="20.8981345"><ele>23.0</ele><time>2026-04-30T15:06:35.851Z</time></trkpt><trkpt lat="38.8997224" lon="20.8980231"><ele>22.0</ele><time>2026-04-30T15:06:36.851Z</time></trkpt><trkpt lat="38.8999273" lon="20.8979269"><ele>22.0</ele><time>2026-04-30T15:06:37.85Z</time></trkpt><trkpt lat="38.9001271" lon="20.897811"><ele>22.0</ele><time>2026-04-30T15:06:38.851Z</time></trkpt><trkpt lat="38.9003248" lon="20.8977029"><ele>22.0</ele><time>2026-04-30T15:06:39.851Z</time></trkpt><trkpt lat="38.9005204" lon="20.8975937"><ele>22.333333333333332</ele><time>2026-04-30T15:06:40.851Z</time></trkpt><trkpt lat="38.9007105" lon="20.8974887"><ele>22.666666666666668</ele><time>2026-04-30T15:06:41.852Z</time></trkpt><trkpt lat="38.9008922" lon="20.8973994"><ele>23.0</ele><time>2026-04-30T15:06:42.852Z</time></trkpt><trkpt lat="38.9010658" lon="20.8973164"><ele>23.333333333333336</ele><time>2026-04-30T15:06:43.849Z</time></trkpt><trkpt lat="38.9012331" lon="20.8972265"><ele>23.666666666666668</ele><time>2026-04-30T15:06:44.849Z</time></trkpt><trkpt lat="38.9013962" lon="20.8971357"><ele>24.0</ele><time>2026-04-30T15:06:45.851Z</time></trkpt><trkpt lat="38.9015554" lon="20.897048"><ele>24.0</ele><time>2026-04-30T15:06:46.85Z</time></trkpt><trkpt lat="38.9017123" lon="20.8969681"><ele>24.0</ele><time>2026-04-30T15:06:47.852Z</time></trkpt><trkpt lat="38.9018609" lon="20.8969011"><ele>24.0</ele><time>2026-04-30T15:06:48.851Z</time></trkpt><trkpt lat="38.9020103" lon="20.8968183"><ele>22.666666666666668</ele><time>2026-04-30T15:06:49.851Z</time></trkpt><trkpt lat="38.9021714" lon="20.8967318"><ele>21.333333333333336</ele><time>2026-04-30T15:06:50.851Z</time></trkpt><trkpt lat="38.9023476" lon="20.8966289"><ele>20.0</ele><time>2026-04-30T15:06:51.851Z</time></trkpt><trkpt lat="38.9025357" lon="20.8965154"><ele>20.333333333333336</ele><time>2026-04-30T15:06:52.851Z</time></trkpt><trkpt lat="38.9027331" lon="20.8964022"><ele>20.666666666666668</ele><time>2026-04-30T15:06:53.849Z</time></trkpt><trkpt lat="38.9029371" lon="20.8962962"><ele>21.0</ele><time>2026-04-30T15:06:54.849Z</time></trkpt><trkpt lat="38.9031333" lon="20.8961956"><ele>21.0</ele><time>2026-04-30T15:06:55.851Z</time></trkpt><trkpt lat="38.9033413" lon="20.8960948"><ele>21.0</ele><time>2026-04-30T15:06:56.85Z</time></trkpt><trkpt lat="38.9035366" lon="20.8959901"><ele>21.0</ele><time>2026-04-30T15:06:57.851Z</time></trkpt><trkpt lat="38.9037256" lon="20.8958973"><ele>20.0</ele><time>2026-04-30T15:06:58.852Z</time></trkpt><trkpt lat="38.9039105" lon="20.8958044"><ele>19.0</ele><time>2026-04-30T15:06:59.852Z</time></trkpt><trkpt lat="38.904093" lon="20.8957055"><ele>18.0</ele><time>2026-04-30T15:07:00.851Z</time></trkpt><trkpt lat="38.904276" lon="20.895603"><ele>17.333333333333332</ele><time>2026-04-30T15:07:01.852Z</time></trkpt><trkpt lat="38.9044578" lon="20.8955041"><ele>16.666666666666664</ele><time>2026-04-30T15:07:02.848Z</time></trkpt><trkpt lat="38.9046322" lon="20.8954001"><ele>16.0</ele><time>2026-04-30T15:07:03.852Z</time></trkpt><trkpt lat="38.9048054" lon="20.8953137"><ele>16.0</ele><time>2026-04-30T15:07:04.85Z</time></trkpt><trkpt lat="38.9049741" lon="20.8952387"><ele>16.0</ele><time>2026-04-30T15:07:05.852Z</time></trkpt><trkpt lat="38.9051466" lon="20.8951552"><ele>16.0</ele><time>2026-04-30T15:07:06.85Z</time></trkpt><trkpt lat="38.9053144" lon="20.8950642"><ele>16.333333333333332</ele><time>2026-04-30T15:07:07.849Z</time></trkpt><trkpt lat="38.9054843" lon="20.8949718"><ele>16.666666666666668</ele><time>2026-04-30T15:07:08.848Z</time></trkpt><trkpt lat="38.9056528" lon="20.8948812"><ele>17.0</ele><time>2026-04-30T15:07:09.851Z</time></trkpt><trkpt lat="38.9058211" lon="20.8947891"><ele>16.333333333333336</ele><time>2026-04-30T15:07:10.85Z</time></trkpt><trkpt lat="38.9060046" lon="20.8946782"><ele>15.666666666666668</ele><time>2026-04-30T15:07:11.851Z</time></trkpt><trkpt lat="38.9062026" lon="20.8945854"><ele>15.0</ele><time>2026-04-30T15:07:12.848Z</time></trkpt><trkpt lat="38.9064065" lon="20.8944619"><ele>15.0</ele><time>2026-04-30T15:07:13.852Z</time></trkpt><trkpt lat="38.9066265" lon="20.8943411"><ele>15.0</ele><time>2026-04-30T15:07:14.85Z</time></trkpt><trkpt lat="38.9068493" lon="20.8942131"><ele>14.0</ele><time>2026-04-30T15:07:15.852Z</time></trkpt><trkpt lat="38.9070602" lon="20.8941058"><ele>13.0</ele><time>2026-04-30T15:07:16.85Z</time></trkpt><trkpt lat="38.9072654" lon="20.8939983"><ele>12.0</ele><time>2026-04-30T15:07:17.849Z</time></trkpt><trkpt lat="38.9074556" lon="20.8939047"><ele>12.0</ele><time>2026-04-30T15:07:18.85Z</time></trkpt><trkpt lat="38.9076499" lon="20.8938076"><ele>12.0</ele><time>2026-04-30T15:07:19.852Z</time></trkpt><trkpt lat="38.9078412" lon="20.8937077"><ele>12.0</ele><time>2026-04-30T15:07:20.85Z</time></trkpt><trkpt lat="38.9080334" lon="20.8936085"><ele>12.0</ele><time>2026-04-30T15:07:21.851Z</time></trkpt><trkpt lat="38.908219" lon="20.8935076"><ele>12.0</ele><time>2026-04-30T15:07:22.852Z</time></trkpt><trkpt lat="38.9084022" lon="20.8934093"><ele>12.0</ele><time>2026-04-30T15:07:23.852Z</time></trkpt><trkpt lat="38.9085792" lon="20.8933146"><ele>11.666666666666666</ele><time>2026-04-30T15:07:24.851Z</time></trkpt><trkpt lat="38.9087568" lon="20.8932207"><ele>11.333333333333332</ele><time>2026-04-30T15:07:25.851Z</time></trkpt><trkpt lat="38.9089376" lon="20.8931262"><ele>11.0</ele><time>2026-04-30T15:07:26.85Z</time></trkpt><trkpt lat="38.9091253" lon="20.8930479"><ele>10.333333333333332</ele><time>2026-04-30T15:07:27.85Z</time></trkpt><trkpt lat="38.9093092" lon="20.8929488"><ele>9.666666666666666</ele><time>2026-04-30T15:07:28.85Z</time></trkpt><trkpt lat="38.9094921" lon="20.8928509"><ele>9.0</ele><time>2026-04-30T15:07:29.85Z</time></trkpt><trkpt lat="38.9096703" lon="20.8927552"><ele>9.0</ele><time>2026-04-30T15:07:30.851Z</time></trkpt><trkpt lat="38.909849" lon="20.8926531"><ele>9.0</ele><time>2026-04-30T15:07:31.85Z</time></trkpt><trkpt lat="38.9100267" lon="20.8925498"><ele>9.0</ele><time>2026-04-30T15:07:32.851Z</time></trkpt><trkpt lat="38.9102067" lon="20.8924507"><ele>9.0</ele><time>2026-04-30T15:07:33.85Z</time></trkpt><trkpt lat="38.9103869" lon="20.8923519"><ele>9.0</ele><time>2026-04-30T15:07:34.849Z</time></trkpt><trkpt lat="38.9105706" lon="20.8922552"><ele>9.0</ele><time>2026-04-30T15:07:35.849Z</time></trkpt><trkpt lat="38.9107553" lon="20.892142"><ele>8.666666666666666</ele><time>2026-04-30T15:07:36.85Z</time></trkpt><trkpt lat="38.9109389" lon="20.8920398"><ele>8.333333333333332</ele><time>2026-04-30T15:07:37.849Z</time></trkpt><trkpt lat="38.9111229" lon="20.8919426"><ele>8.0</ele><time>2026-04-30T15:07:38.851Z</time></trkpt><trkpt lat="38.9113078" lon="20.891837"><ele>8.0</ele><time>2026-04-30T15:07:39.852Z</time></trkpt><trkpt lat="38.911495" lon="20.8917368"><ele>8.0</ele><time>2026-04-30T15:07:40.852Z</time></trkpt><trkpt lat="38.9116776" lon="20.891638"><ele>8.0</ele><time>2026-04-30T15:07:41.852Z</time></trkpt><trkpt lat="38.911865" lon="20.8915382"><ele>8.333333333333332</ele><time>2026-04-30T15:07:42.851Z</time></trkpt><trkpt lat="38.9120496" lon="20.8914449"><ele>8.666666666666666</ele><time>2026-04-30T15:07:43.852Z</time></trkpt><trkpt lat="38.9122309" lon="20.8913501"><ele>9.0</ele><time>2026-04-30T15:07:44.85Z</time></trkpt><trkpt lat="38.9124128" lon="20.891261"><ele>8.333333333333334</ele><time>2026-04-30T15:07:45.852Z</time></trkpt><trkpt lat="38.9125908" lon="20.8911672"><ele>7.666666666666667</ele><time>2026-04-30T15:07:46.85Z</time></trkpt><trkpt lat="38.9127718" lon="20.8910689"><ele>7.0</ele><time>2026-04-30T15:07:47.849Z</time></trkpt><trkpt lat="38.9129451" lon="20.8909759"><ele>7.0</ele><time>2026-04-30T15:07:48.85Z</time></trkpt><trkpt lat="38.9131114" lon="20.8908839"><ele>7.0</ele><time>2026-04-30T15:07:49.85Z</time></trkpt><trkpt lat="38.913271" lon="20.8908015"><ele>7.0</ele><time>2026-04-30T15:07:50.85Z</time></trkpt><trkpt lat="38.9134089" lon="20.8907356"><ele>7.0</ele><time>2026-04-30T15:07:51.85Z</time></trkpt><trkpt lat="38.913536" lon="20.8906729"><ele>7.0</ele><time>2026-04-30T15:07:52.85Z</time></trkpt><trkpt lat="38.9136488" lon="20.8906093"><ele>7.0</ele><time>2026-04-30T15:07:53.85Z</time></trkpt><trkpt lat="38.9137492" lon="20.8905606"><ele>7.0</ele><time>2026-04-30T15:07:54.852Z</time></trkpt><trkpt lat="38.9138331" lon="20.8905206"><ele>7.0</ele><time>2026-04-30T15:07:55.852Z</time></trkpt><trkpt lat="38.9138972" lon="20.8904792"><ele>6.999999999999999</ele><time>2026-04-30T15:07:56.851Z</time></trkpt><trkpt lat="38.9139737" lon="20.8903709"><ele>6.999999999999999</ele><time>2026-04-30T15:07:58.848Z</time></trkpt><trkpt lat="38.9139506" lon="20.8902406"><ele>7.0</ele><time>2026-04-30T15:08:00.851Z</time></trkpt><trkpt lat="38.9138993" lon="20.8901668"><ele>7.0</ele><time>2026-04-30T15:08:01.851Z</time></trkpt><trkpt lat="38.9138389" lon="20.8900814"><ele>7.199999999999999</ele><time>2026-04-30T15:08:02.851Z</time></trkpt><trkpt lat="38.9137547" lon="20.8900206"><ele>7.3999999999999995</ele><time>2026-04-30T15:08:03.849Z</time></trkpt><trkpt lat="38.9136611" lon="20.8899434"><ele>7.6000000000000005</ele><time>2026-04-30T15:08:04.851Z</time></trkpt><trkpt lat="38.9135607" lon="20.8898733"><ele>7.800000000000001</ele><time>2026-04-30T15:08:05.849Z</time></trkpt><trkpt lat="38.9134612" lon="20.8897893"><ele>8.0</ele><time>2026-04-30T15:08:06.851Z</time></trkpt><trkpt lat="38.9133585" lon="20.8897061"><ele>8.0</ele><time>2026-04-30T15:08:07.85Z</time></trkpt><trkpt lat="38.9132459" lon="20.8896138"><ele>8.0</ele><time>2026-04-30T15:08:08.851Z</time></trkpt><trkpt lat="38.9131355" lon="20.889519"><ele>8.0</ele><time>2026-04-30T15:08:09.848Z</time></trkpt><trkpt lat="38.9130115" lon="20.8894218"><ele>8.0</ele><time>2026-04-30T15:08:10.85Z</time></trkpt><trkpt lat="38.9128891" lon="20.8893186"><ele>8.0</ele><time>2026-04-30T15:08:11.851Z</time></trkpt><trkpt lat="38.9127606" lon="20.8892135"><ele>8.0</ele><time>2026-04-30T15:08:12.852Z</time></trkpt><trkpt lat="38.9126149" lon="20.8891066"><ele>8.0</ele><time>2026-04-30T15:08:13.851Z</time></trkpt><trkpt lat="38.912485" lon="20.8889941"><ele>8.0</ele><time>2026-04-30T15:08:14.849Z</time></trkpt><trkpt lat="38.9123363" lon="20.8888901"><ele>8.0</ele><time>2026-04-30T15:08:15.851Z</time></trkpt><trkpt lat="38.9121891" lon="20.888768"><ele>8.0</ele><time>2026-04-30T15:08:16.851Z</time></trkpt><trkpt lat="38.9120507" lon="20.8886562"><ele>8.0</ele><time>2026-04-30T15:08:17.851Z</time></trkpt><trkpt lat="38.9119057" lon="20.8885366"><ele>8.0</ele><time>2026-04-30T15:08:18.851Z</time></trkpt><trkpt lat="38.9117615" lon="20.8884182"><ele>8.0</ele><time>2026-04-30T15:08:19.85Z</time></trkpt><trkpt lat="38.911615" lon="20.8882963"><ele>7.666666666666666</ele><time>2026-04-30T15:08:20.851Z</time></trkpt><trkpt lat="38.911463" lon="20.8881681"><ele>7.333333333333334</ele><time>2026-04-30T15:08:21.849Z</time></trkpt><trkpt lat="38.9113159" lon="20.8880515"><ele>7.0</ele><time>2026-04-30T15:08:22.85Z</time></trkpt><trkpt lat="38.9111742" lon="20.8879176"><ele>7.0</ele><time>2026-04-30T15:08:23.85Z</time></trkpt><trkpt lat="38.9110271" lon="20.8877983"><ele>7.0</ele><time>2026-04-30T15:08:24.851Z</time></trkpt><trkpt lat="38.910881" lon="20.887682"><ele>7.0</ele><time>2026-04-30T15:08:25.851Z</time></trkpt><trkpt lat="38.9107398" lon="20.8875687"><ele>7.25</ele><time>2026-04-30T15:08:26.85Z</time></trkpt><trkpt lat="38.9106096" lon="20.8874644"><ele>7.5</ele><time>2026-04-30T15:08:27.849Z</time></trkpt><trkpt lat="38.9104838" lon="20.8873692"><ele>7.75</ele><time>2026-04-30T15:08:28.85Z</time></trkpt><trkpt lat="38.9103713" lon="20.8872819"><ele>8.0</ele><time>2026-04-30T15:08:29.848Z</time></trkpt><trkpt lat="38.9102714" lon="20.8872048"><ele>7.999999999999999</ele><time>2026-04-30T15:08:30.849Z</time></trkpt><trkpt lat="38.9101887" lon="20.8871298"><ele>8.0</ele><time>2026-04-30T15:08:31.852Z</time></trkpt><trkpt lat="38.9101512" lon="20.8870596"><ele>8.0</ele><time>2026-04-30T15:08:32.85Z</time></trkpt><trkpt lat="38.9101268" lon="20.8869728"><ele>8.0</ele><time>2026-04-30T15:08:33.85Z</time></trkpt><trkpt lat="38.9101485" lon="20.8868768"><ele>7.999999999999999</ele><time>2026-04-30T15:08:34.849Z</time></trkpt><trkpt lat="38.9101968" lon="20.8867777"><ele>8.0</ele><time>2026-04-30T15:08:35.85Z</time></trkpt><trkpt lat="38.9102594" lon="20.8866759"><ele>7.5</ele><time>2026-04-30T15:08:36.85Z</time></trkpt><trkpt lat="38.9103403" lon="20.8865654"><ele>7.0</ele><time>2026-04-30T15:08:37.85Z</time></trkpt><trkpt lat="38.9104228" lon="20.8864456"><ele>6.5</ele><time>2026-04-30T15:08:38.849Z</time></trkpt><trkpt lat="38.9105215" lon="20.8863409"><ele>6.0</ele><time>2026-04-30T15:08:39.85Z</time></trkpt><trkpt lat="38.9106278" lon="20.8862272"><ele>6.0</ele><time>2026-04-30T15:08:40.85Z</time></trkpt><trkpt lat="38.9107383" lon="20.8860944"><ele>6.0</ele><time>2026-04-30T15:08:41.852Z</time></trkpt><trkpt lat="38.9108472" lon="20.8859649"><ele>6.0</ele><time>2026-04-30T15:08:42.851Z</time></trkpt><trkpt lat="38.9109488" lon="20.8858335"><ele>6.0</ele><time>2026-04-30T15:08:43.849Z</time></trkpt><trkpt lat="38.9110526" lon="20.8856938"><ele>5.25</ele><time>2026-04-30T15:08:44.849Z</time></trkpt><trkpt lat="38.911156" lon="20.8855549"><ele>4.5</ele><time>2026-04-30T15:08:45.85Z</time></trkpt><trkpt lat="38.9112604" lon="20.8854199"><ele>3.75</ele><time>2026-04-30T15:08:46.849Z</time></trkpt><trkpt lat="38.9113593" lon="20.8852789"><ele>3.0</ele><time>2026-04-30T15:08:47.851Z</time></trkpt><trkpt lat="38.9114633" lon="20.8851364"><ele>3.0</ele><time>2026-04-30T15:08:48.85Z</time></trkpt><trkpt lat="38.9115867" lon="20.8850038"><ele>3.0</ele><time>2026-04-30T15:08:49.852Z</time></trkpt><trkpt lat="38.9117232" lon="20.8848613"><ele>3.0</ele><time>2026-04-30T15:08:50.851Z</time></trkpt><trkpt lat="38.9118705" lon="20.8847084"><ele>3.0</ele><time>2026-04-30T15:08:51.852Z</time></trkpt><trkpt lat="38.9120402" lon="20.884532"><ele>3.0</ele><time>2026-04-30T15:08:52.85Z</time></trkpt><trkpt lat="38.9122284" lon="20.8843445"><ele>3.0</ele><time>2026-04-30T15:08:53.852Z</time></trkpt><trkpt lat="38.9124244" lon="20.8841399"><ele>3.0</ele><time>2026-04-30T15:08:54.849Z</time></trkpt><trkpt lat="38.9126194" lon="20.883946"><ele>3.0</ele><time>2026-04-30T15:08:55.851Z</time></trkpt><trkpt lat="38.9127988" lon="20.8837534"><ele>3.0</ele><time>2026-04-30T15:08:56.851Z</time></trkpt><trkpt lat="38.9129779" lon="20.8835664"><ele>3.0</ele><time>2026-04-30T15:08:57.85Z</time></trkpt><trkpt lat="38.9131631" lon="20.8833912"><ele>3.0</ele><time>2026-04-30T15:08:58.851Z</time></trkpt><trkpt lat="38.9133394" lon="20.8832292"><ele>3.0</ele><time>2026-04-30T15:08:59.851Z</time></trkpt><trkpt lat="38.9135125" lon="20.8830569"><ele>2.6666666666666665</ele><time>2026-04-30T15:09:00.852Z</time></trkpt><trkpt lat="38.9136817" lon="20.8828826"><ele>2.333333333333333</ele><time>2026-04-30T15:09:01.848Z</time></trkpt><trkpt lat="38.9138425" lon="20.8827062"><ele>2.0</ele><time>2026-04-30T15:09:02.849Z</time></trkpt><trkpt lat="38.9140121" lon="20.8825398"><ele>2.0</ele><time>2026-04-30T15:09:03.852Z</time></trkpt><trkpt lat="38.9141767" lon="20.8823676"><ele>2.0</ele><time>2026-04-30T15:09:04.852Z</time></trkpt><trkpt lat="38.9143481" lon="20.8821893"><ele>2.0</ele><time>2026-04-30T15:09:05.85Z</time></trkpt><trkpt lat="38.914509" lon="20.8820244"><ele>1.6666666666666665</ele><time>2026-04-30T15:09:06.851Z</time></trkpt><trkpt lat="38.9146545" lon="20.8818615"><ele>1.3333333333333333</ele><time>2026-04-30T15:09:07.852Z</time></trkpt><trkpt lat="38.9148014" lon="20.8817192"><ele>1.0</ele><time>2026-04-30T15:09:08.85Z</time></trkpt><trkpt lat="38.9149334" lon="20.8815829"><ele>1.0</ele><time>2026-04-30T15:09:09.85Z</time></trkpt><trkpt lat="38.9150447" lon="20.8814649"><ele>1.0</ele><time>2026-04-30T15:09:10.847Z</time></trkpt><trkpt lat="38.9151251" lon="20.8813779"><ele>1.0</ele><time>2026-04-30T15:09:11.852Z</time></trkpt><trkpt lat="38.9151848" lon="20.8812673"><ele>1.0</ele><time>2026-04-30T15:09:12.85Z</time></trkpt><trkpt lat="38.9152189" lon="20.8811291"><ele>0.75</ele><time>2026-04-30T15:09:13.851Z</time></trkpt><trkpt lat="38.9152383" lon="20.8809715"><ele>0.5</ele><time>2026-04-30T15:09:14.852Z</time></trkpt><trkpt lat="38.9152238" lon="20.8808106"><ele>0.25</ele><time>2026-04-30T15:09:15.848Z</time></trkpt><trkpt lat="38.9151824" lon="20.880615"><ele>0.0</ele><time>2026-04-30T15:09:16.851Z</time></trkpt><trkpt lat="38.915105" lon="20.8803877"><ele>0.5</ele><time>2026-04-30T15:09:17.848Z</time></trkpt><trkpt lat="38.9150298" lon="20.8801216"><ele>1.0</ele><time>2026-04-30T15:09:18.851Z</time></trkpt><trkpt lat="38.9149461" lon="20.8798327"><ele>1.0</ele><time>2026-04-30T15:09:19.851Z</time></trkpt><trkpt lat="38.9148666" lon="20.8795384"><ele>1.0</ele><time>2026-04-30T15:09:20.852Z</time></trkpt><trkpt lat="38.9147863" lon="20.8792484"><ele>1.0</ele><time>2026-04-30T15:09:21.852Z</time></trkpt><trkpt lat="38.9147154" lon="20.8789725"><ele>1.0</ele><time>2026-04-30T15:09:22.85Z</time></trkpt><trkpt lat="38.9146442" lon="20.8787051"><ele>1.0</ele><time>2026-04-30T15:09:23.85Z</time></trkpt><trkpt lat="38.9145701" lon="20.8784471"><ele>0.6666666666666666</ele><time>2026-04-30T15:09:24.851Z</time></trkpt><trkpt lat="38.9145043" lon="20.878202"><ele>0.3333333333333333</ele><time>2026-04-30T15:09:25.849Z</time></trkpt><trkpt lat="38.9144464" lon="20.8779619"><ele>0.0</ele><time>2026-04-30T15:09:26.85Z</time></trkpt><trkpt lat="38.914398" lon="20.877722"><ele>1.3333333333333333</ele><time>2026-04-30T15:09:27.849Z</time></trkpt><trkpt lat="38.914355" lon="20.8774865"><ele>2.6666666666666665</ele><time>2026-04-30T15:09:28.851Z</time></trkpt><trkpt lat="38.9143157" lon="20.877273"><ele>4.0</ele><time>2026-04-30T15:09:29.851Z</time></trkpt><trkpt lat="38.9142769" lon="20.877077"><ele>4.0</ele><time>2026-04-30T15:09:30.85Z</time></trkpt><trkpt lat="38.9142401" lon="20.8768883"><ele>4.0</ele><time>2026-04-30T15:09:31.851Z</time></trkpt><trkpt lat="38.9142175" lon="20.876723"><ele>4.0</ele><time>2026-04-30T15:09:32.85Z</time></trkpt><trkpt lat="38.9142194" lon="20.8765614"><ele>4.0</ele><time>2026-04-30T15:09:33.851Z</time></trkpt><trkpt lat="38.914252" lon="20.8764078"><ele>4.0</ele><time>2026-04-30T15:09:34.851Z</time></trkpt><trkpt lat="38.9143067" lon="20.8762406"><ele>4.0</ele><time>2026-04-30T15:09:35.848Z</time></trkpt><trkpt lat="38.9143901" lon="20.8760619"><ele>4.0</ele><time>2026-04-30T15:09:36.849Z</time></trkpt><trkpt lat="38.9144775" lon="20.8758791"><ele>2.6666666666666665</ele><time>2026-04-30T15:09:37.848Z</time></trkpt><trkpt lat="38.9145692" lon="20.875706"><ele>1.3333333333333333</ele><time>2026-04-30T15:09:38.849Z</time></trkpt><trkpt lat="38.9146695" lon="20.8755439"><ele>0.0</ele><time>2026-04-30T15:09:39.849Z</time></trkpt><trkpt lat="38.9147748" lon="20.8754057"><ele>0.0</ele><time>2026-04-30T15:09:40.851Z</time></trkpt><trkpt lat="38.9148758" lon="20.8752683"><ele>0.0</ele><time>2026-04-30T15:09:41.847Z</time></trkpt><trkpt lat="38.9149732" lon="20.8751104"><ele>0.0</ele><time>2026-04-30T15:09:42.851Z</time></trkpt><trkpt lat="38.9150697" lon="20.8749179"><ele>0.0</ele><time>2026-04-30T15:09:43.85Z</time></trkpt><trkpt lat="38.9151653" lon="20.8746781"><ele>0.0</ele><time>2026-04-30T15:09:44.851Z</time></trkpt><trkpt lat="38.9152756" lon="20.8744163"><ele>0.0</ele><time>2026-04-30T15:09:45.851Z</time></trkpt><trkpt lat="38.9153917" lon="20.8741456"><ele>0.0</ele><time>2026-04-30T15:09:46.849Z</time></trkpt><trkpt lat="38.9155079" lon="20.8738515"><ele>0.0</ele><time>2026-04-30T15:09:47.851Z</time></trkpt><trkpt lat="38.9156186" lon="20.8735572"><ele>1.0</ele><time>2026-04-30T15:09:48.85Z</time></trkpt><trkpt lat="38.9157348" lon="20.8732597"><ele>2.0</ele><time>2026-04-30T15:09:49.852Z</time></trkpt><trkpt lat="38.9158584" lon="20.8729662"><ele>0.0</ele><time>2026-04-30T15:09:50.849Z</time></trkpt><trkpt lat="38.9159717" lon="20.8726632"><ele>-2.0</ele><time>2026-04-30T15:09:51.849Z</time></trkpt><trkpt lat="38.9160884" lon="20.872368"><ele>-2.0</ele><time>2026-04-30T15:09:52.852Z</time></trkpt><trkpt lat="38.9161824" lon="20.8720644"><ele>-2.0</ele><time>2026-04-30T15:09:53.85Z</time></trkpt><trkpt lat="38.9162719" lon="20.8717664"><ele>-2.0</ele><time>2026-04-30T15:09:54.851Z</time></trkpt><trkpt lat="38.9163687" lon="20.8714777"><ele>-2.0</ele><time>2026-04-30T15:09:55.852Z</time></trkpt><trkpt lat="38.916477" lon="20.8711884"><ele>1.5</ele><time>2026-04-30T15:09:56.85Z</time></trkpt><trkpt lat="38.916586" lon="20.8709231"><ele>5.0</ele><time>2026-04-30T15:09:57.848Z</time></trkpt><trkpt lat="38.9166856" lon="20.8706699"><ele>2.666666666666667</ele><time>2026-04-30T15:09:58.85Z</time></trkpt><trkpt lat="38.9167984" lon="20.8704637"><ele>0.3333333333333335</ele><time>2026-04-30T15:09:59.85Z</time></trkpt><trkpt lat="38.9168919" lon="20.8702882"><ele>-2.0</ele><time>2026-04-30T15:10:00.85Z</time></trkpt><trkpt lat="38.9169843" lon="20.8701366"><ele>-1.6666666666666665</ele><time>2026-04-30T15:10:01.85Z</time></trkpt><trkpt lat="38.9170771" lon="20.8699854"><ele>-1.3333333333333333</ele><time>2026-04-30T15:10:02.851Z</time></trkpt><trkpt lat="38.9171461" lon="20.8698139"><ele>-1.0</ele><time>2026-04-30T15:10:03.851Z</time></trkpt><trkpt lat="38.9171915" lon="20.8696268"><ele>-1.0</ele><time>2026-04-30T15:10:04.85Z</time></trkpt><trkpt lat="38.9172122" lon="20.8694128"><ele>-1.0</ele><time>2026-04-30T15:10:05.85Z</time></trkpt><trkpt lat="38.9172126" lon="20.8691753"><ele>-1.0</ele><time>2026-04-30T15:10:06.85Z</time></trkpt><trkpt lat="38.9172002" lon="20.8689191"><ele>-1.0</ele><time>2026-04-30T15:10:07.852Z</time></trkpt><trkpt lat="38.9171864" lon="20.868655"><ele>-1.0</ele><time>2026-04-30T15:10:08.851Z</time></trkpt><trkpt lat="38.9171862" lon="20.8684052"><ele>-1.0</ele><time>2026-04-30T15:10:09.851Z</time></trkpt><trkpt lat="38.9172063" lon="20.8681561"><ele>-0.3333333333333333</ele><time>2026-04-30T15:10:10.851Z</time></trkpt><trkpt lat="38.9172434" lon="20.8679225"><ele>0.3333333333333333</ele><time>2026-04-30T15:10:11.85Z</time></trkpt><trkpt lat="38.9172878" lon="20.8677064"><ele>1.0</ele><time>2026-04-30T15:10:12.847Z</time></trkpt><trkpt lat="38.9173412" lon="20.8675066"><ele>0.3333333333333333</ele><time>2026-04-30T15:10:13.85Z</time></trkpt><trkpt lat="38.9174246" lon="20.8673399"><ele>-0.3333333333333333</ele><time>2026-04-30T15:10:14.849Z</time></trkpt><trkpt lat="38.9175163" lon="20.8671808"><ele>-1.0</ele><time>2026-04-30T15:10:15.851Z</time></trkpt><trkpt lat="38.9176052" lon="20.8670239"><ele>-1.0</ele><time>2026-04-30T15:10:16.848Z</time></trkpt><trkpt lat="38.917689" lon="20.8668182"><ele>-1.0</ele><time>2026-04-30T15:10:17.85Z</time></trkpt><trkpt lat="38.9177721" lon="20.8666524"><ele>-1.0</ele><time>2026-04-30T15:10:18.849Z</time></trkpt><trkpt lat="38.9178349" lon="20.8664625"><ele>-1.6666666666666665</ele><time>2026-04-30T15:10:19.851Z</time></trkpt><trkpt lat="38.9178759" lon="20.8662491"><ele>-2.3333333333333335</ele><time>2026-04-30T15:10:20.849Z</time></trkpt><trkpt lat="38.9179096" lon="20.8660256"><ele>-3.0</ele><time>2026-04-30T15:10:21.851Z</time></trkpt><trkpt lat="38.9179428" lon="20.865792"><ele>-3.0</ele><time>2026-04-30T15:10:22.851Z</time></trkpt><trkpt lat="38.9179669" lon="20.8655478"><ele>-3.0</ele><time>2026-04-30T15:10:23.85Z</time></trkpt><trkpt lat="38.917983" lon="20.8653032"><ele>-3.0</ele><time>2026-04-30T15:10:24.85Z</time></trkpt><trkpt lat="38.9179889" lon="20.8650507"><ele>-2.6666666666666665</ele><time>2026-04-30T15:10:25.852Z</time></trkpt><trkpt lat="38.9179971" lon="20.8648062"><ele>-2.333333333333333</ele><time>2026-04-30T15:10:26.851Z</time></trkpt><trkpt lat="38.9180069" lon="20.8645535"><ele>-2.0</ele><time>2026-04-30T15:10:27.848Z</time></trkpt><trkpt lat="38.9180127" lon="20.8642995"><ele>-1.6666666666666665</ele><time>2026-04-30T15:10:28.85Z</time></trkpt><trkpt lat="38.9180092" lon="20.8640403"><ele>-1.3333333333333333</ele><time>2026-04-30T15:10:29.849Z</time></trkpt><trkpt lat="38.9179956" lon="20.8637772"><ele>-1.0</ele><time>2026-04-30T15:10:30.849Z</time></trkpt><trkpt lat="38.9179751" lon="20.8635255"><ele>-1.0</ele><time>2026-04-30T15:10:31.85Z</time></trkpt><trkpt lat="38.9179446" lon="20.8632891"><ele>-1.0</ele><time>2026-04-30T15:10:32.849Z</time></trkpt><trkpt lat="38.9179279" lon="20.8630597"><ele>-1.0</ele><time>2026-04-30T15:10:33.85Z</time></trkpt><trkpt lat="38.9179296" lon="20.8628289"><ele>-1.0</ele><time>2026-04-30T15:10:34.85Z</time></trkpt><trkpt lat="38.9179654" lon="20.8626117"><ele>-1.0</ele><time>2026-04-30T15:10:35.852Z</time></trkpt><trkpt lat="38.918006" lon="20.8624113"><ele>-1.0</ele><time>2026-04-30T15:10:36.85Z</time></trkpt><trkpt lat="38.9180573" lon="20.862226"><ele>-1.0</ele><time>2026-04-30T15:10:37.849Z</time></trkpt><trkpt lat="38.9181089" lon="20.8620521"><ele>-1.0</ele><time>2026-04-30T15:10:38.848Z</time></trkpt><trkpt lat="38.9181541" lon="20.8618865"><ele>-1.0</ele><time>2026-04-30T15:10:39.848Z</time></trkpt><trkpt lat="38.9181771" lon="20.8617227"><ele>-1.0</ele><time>2026-04-30T15:10:40.849Z</time></trkpt><trkpt lat="38.918173" lon="20.861562"><ele>-0.5</ele><time>2026-04-30T15:10:41.851Z</time></trkpt><trkpt lat="38.9181301" lon="20.861398"><ele>0.0</ele><time>2026-04-30T15:10:42.851Z</time></trkpt><trkpt lat="38.9180597" lon="20.8612579"><ele>0.5</ele><time>2026-04-30T15:10:43.851Z</time></trkpt><trkpt lat="38.9179676" lon="20.86113"><ele>1.0</ele><time>2026-04-30T15:10:44.852Z</time></trkpt><trkpt lat="38.9178692" lon="20.8610091"><ele>1.0</ele><time>2026-04-30T15:10:45.851Z</time></trkpt><trkpt lat="38.9177964" lon="20.8608886"><ele>1.0</ele><time>2026-04-30T15:10:46.85Z</time></trkpt><trkpt lat="38.9177353" lon="20.860743"><ele>1.0</ele><time>2026-04-30T15:10:47.85Z</time></trkpt><trkpt lat="38.9176605" lon="20.8605841"><ele>1.0</ele><time>2026-04-30T15:10:48.851Z</time></trkpt><trkpt lat="38.917564" lon="20.860409"><ele>3.6666666666666665</ele><time>2026-04-30T15:10:49.851Z</time></trkpt><trkpt lat="38.9174522" lon="20.8602287"><ele>6.333333333333333</ele><time>2026-04-30T15:10:50.851Z</time></trkpt><trkpt lat="38.9173342" lon="20.8600578"><ele>9.0</ele><time>2026-04-30T15:10:51.85Z</time></trkpt><trkpt lat="38.9172077" lon="20.8598757"><ele>9.666666666666666</ele><time>2026-04-30T15:10:52.852Z</time></trkpt><trkpt lat="38.9170781" lon="20.8597049"><ele>10.333333333333332</ele><time>2026-04-30T15:10:53.85Z</time></trkpt><trkpt lat="38.9169538" lon="20.8595367"><ele>11.0</ele><time>2026-04-30T15:10:54.852Z</time></trkpt><trkpt lat="38.9168503" lon="20.8593874"><ele>11.0</ele><time>2026-04-30T15:10:55.852Z</time></trkpt><trkpt lat="38.9167527" lon="20.8592525"><ele>11.0</ele><time>2026-04-30T15:10:56.849Z</time></trkpt><trkpt lat="38.9166767" lon="20.859099"><ele>11.0</ele><time>2026-04-30T15:10:57.852Z</time></trkpt><trkpt lat="38.916621" lon="20.8589415"><ele>11.0</ele><time>2026-04-30T15:10:58.851Z</time></trkpt><trkpt lat="38.9165827" lon="20.8587705"><ele>11.0</ele><time>2026-04-30T15:10:59.849Z</time></trkpt><trkpt lat="38.9165858" lon="20.8585823"><ele>11.0</ele><time>2026-04-30T15:11:00.85Z</time></trkpt><trkpt lat="38.9165939" lon="20.8583629"><ele>11.0</ele><time>2026-04-30T15:11:01.851Z</time></trkpt><trkpt lat="38.9166113" lon="20.8581463"><ele>10.666666666666666</ele><time>2026-04-30T15:11:02.849Z</time></trkpt><trkpt lat="38.9166289" lon="20.85793"><ele>10.333333333333334</ele><time>2026-04-30T15:11:03.852Z</time></trkpt><trkpt lat="38.9166474" lon="20.8577081"><ele>10.0</ele><time>2026-04-30T15:11:04.852Z</time></trkpt><trkpt lat="38.916654" lon="20.857485"><ele>10.0</ele><time>2026-04-30T15:11:05.852Z</time></trkpt><trkpt lat="38.9166428" lon="20.8572498"><ele>10.0</ele><time>2026-04-30T15:11:06.851Z</time></trkpt><trkpt lat="38.9166168" lon="20.8570065"><ele>10.0</ele><time>2026-04-30T15:11:07.852Z</time></trkpt><trkpt lat="38.9165844" lon="20.8567581"><ele>9.333333333333334</ele><time>2026-04-30T15:11:08.849Z</time></trkpt><trkpt lat="38.9165499" lon="20.8565026"><ele>8.666666666666666</ele><time>2026-04-30T15:11:09.851Z</time></trkpt><trkpt lat="38.916512" lon="20.8562452"><ele>8.0</ele><time>2026-04-30T15:11:10.85Z</time></trkpt><trkpt lat="38.9164715" lon="20.8559911"><ele>6.0</ele><time>2026-04-30T15:11:11.849Z</time></trkpt><trkpt lat="38.9164306" lon="20.8557368"><ele>4.0</ele><time>2026-04-30T15:11:12.85Z</time></trkpt><trkpt lat="38.9163914" lon="20.8554843"><ele>2.0</ele><time>2026-04-30T15:11:13.849Z</time></trkpt><trkpt lat="38.9163504" lon="20.855231"><ele>1.6666666666666665</ele><time>2026-04-30T15:11:14.85Z</time></trkpt><trkpt lat="38.9163097" lon="20.8549784"><ele>1.3333333333333333</ele><time>2026-04-30T15:11:15.851Z</time></trkpt><trkpt lat="38.9162697" lon="20.8547282"><ele>1.0</ele><time>2026-04-30T15:11:16.852Z</time></trkpt><trkpt lat="38.9162323" lon="20.8544846"><ele>1.0</ele><time>2026-04-30T15:11:17.85Z</time></trkpt><trkpt lat="38.9161938" lon="20.8542403"><ele>1.0</ele><time>2026-04-30T15:11:18.85Z</time></trkpt><trkpt lat="38.916158" lon="20.8540021"><ele>1.0</ele><time>2026-04-30T15:11:19.85Z</time></trkpt><trkpt lat="38.9161219" lon="20.8537632"><ele>1.0</ele><time>2026-04-30T15:11:20.851Z</time></trkpt><trkpt lat="38.916087" lon="20.8535253"><ele>1.0</ele><time>2026-04-30T15:11:21.851Z</time></trkpt><trkpt lat="38.9160523" lon="20.8532901"><ele>1.0</ele><time>2026-04-30T15:11:22.852Z</time></trkpt><trkpt lat="38.916016" lon="20.8530568"><ele>0.3333333333333333</ele><time>2026-04-30T15:11:23.849Z</time></trkpt><trkpt lat="38.9159813" lon="20.852818"><ele>-0.3333333333333333</ele><time>2026-04-30T15:11:24.851Z</time></trkpt><trkpt lat="38.9159433" lon="20.8525876"><ele>-1.0</ele><time>2026-04-30T15:11:25.85Z</time></trkpt><trkpt lat="38.9158986" lon="20.8523591"><ele>1.3333333333333335</ele><time>2026-04-30T15:11:26.85Z</time></trkpt><trkpt lat="38.9158478" lon="20.8521312"><ele>3.6666666666666665</ele><time>2026-04-30T15:11:27.851Z</time></trkpt><trkpt lat="38.9157945" lon="20.8518953"><ele>6.0</ele><time>2026-04-30T15:11:28.85Z</time></trkpt><trkpt lat="38.9157378" lon="20.8516583"><ele>6.0</ele><time>2026-04-30T15:11:29.85Z</time></trkpt><trkpt lat="38.9156748" lon="20.8514203"><ele>6.0</ele><time>2026-04-30T15:11:30.851Z</time></trkpt><trkpt lat="38.9156121" lon="20.8511811"><ele>6.0</ele><time>2026-04-30T15:11:31.85Z</time></trkpt><trkpt lat="38.9155479" lon="20.8509375"><ele>6.0</ele><time>2026-04-30T15:11:32.85Z</time></trkpt><trkpt lat="38.9154772" lon="20.8506924"><ele>6.0</ele><time>2026-04-30T15:11:33.852Z</time></trkpt><trkpt lat="38.9154047" lon="20.8504459"><ele>6.0</ele><time>2026-04-30T15:11:34.849Z</time></trkpt><trkpt lat="38.9153336" lon="20.8501976"><ele>6.333333333333334</ele><time>2026-04-30T15:11:35.85Z</time></trkpt><trkpt lat="38.9152627" lon="20.8499469"><ele>6.666666666666667</ele><time>2026-04-30T15:11:36.85Z</time></trkpt><trkpt lat="38.9151939" lon="20.8497025"><ele>7.0</ele><time>2026-04-30T15:11:37.85Z</time></trkpt><trkpt lat="38.9151257" lon="20.8494631"><ele>8.666666666666668</ele><time>2026-04-30T15:11:38.85Z</time></trkpt><trkpt lat="38.9150601" lon="20.8492364"><ele>10.333333333333334</ele><time>2026-04-30T15:11:39.851Z</time></trkpt><trkpt lat="38.9149996" lon="20.8490245"><ele>12.0</ele><time>2026-04-30T15:11:40.851Z</time></trkpt><trkpt lat="38.9149403" lon="20.8488141"><ele>12.0</ele><time>2026-04-30T15:11:41.851Z</time></trkpt><trkpt lat="38.914878" lon="20.8485974"><ele>12.0</ele><time>2026-04-30T15:11:42.851Z</time></trkpt><trkpt lat="38.9148184" lon="20.8483899"><ele>12.0</ele><time>2026-04-30T15:11:43.851Z</time></trkpt><trkpt lat="38.9147598" lon="20.8481932"><ele>13.333333333333332</ele><time>2026-04-30T15:11:44.851Z</time></trkpt><trkpt lat="38.9146968" lon="20.8479979"><ele>14.666666666666666</ele><time>2026-04-30T15:11:45.851Z</time></trkpt><trkpt lat="38.9146214" lon="20.8478044"><ele>16.0</ele><time>2026-04-30T15:11:46.85Z</time></trkpt><trkpt lat="38.9145333" lon="20.84761"><ele>16.333333333333332</ele><time>2026-04-30T15:11:47.851Z</time></trkpt><trkpt lat="38.9144318" lon="20.8474204"><ele>16.666666666666668</ele><time>2026-04-30T15:11:48.851Z</time></trkpt><trkpt lat="38.9143212" lon="20.8472357"><ele>17.0</ele><time>2026-04-30T15:11:49.851Z</time></trkpt><trkpt lat="38.9142028" lon="20.847061"><ele>17.0</ele><time>2026-04-30T15:11:50.852Z</time></trkpt><trkpt lat="38.9140785" lon="20.8469066"><ele>17.0</ele><time>2026-04-30T15:11:51.851Z</time></trkpt><trkpt lat="38.9139444" lon="20.8467466"><ele>17.0</ele><time>2026-04-30T15:11:52.851Z</time></trkpt><trkpt lat="38.9138132" lon="20.8465993"><ele>17.0</ele><time>2026-04-30T15:11:53.852Z</time></trkpt><trkpt lat="38.9136841" lon="20.8464435"><ele>17.0</ele><time>2026-04-30T15:11:54.851Z</time></trkpt><trkpt lat="38.913562" lon="20.8463183"><ele>17.0</ele><time>2026-04-30T15:11:55.851Z</time></trkpt><trkpt lat="38.9134463" lon="20.8461983"><ele>17.0</ele><time>2026-04-30T15:11:56.85Z</time></trkpt><trkpt lat="38.9133221" lon="20.8460768"><ele>17.0</ele><time>2026-04-30T15:11:57.85Z</time></trkpt><trkpt lat="38.9132135" lon="20.8459572"><ele>17.0</ele><time>2026-04-30T15:11:58.849Z</time></trkpt><trkpt lat="38.9131166" lon="20.845814"><ele>17.0</ele><time>2026-04-30T15:11:59.852Z</time></trkpt><trkpt lat="38.9130332" lon="20.8456502"><ele>16.666666666666668</ele><time>2026-04-30T15:12:00.851Z</time></trkpt><trkpt lat="38.912972" lon="20.8454755"><ele>16.333333333333332</ele><time>2026-04-30T15:12:01.85Z</time></trkpt><trkpt lat="38.912928" lon="20.8452792"><ele>16.0</ele><time>2026-04-30T15:12:02.851Z</time></trkpt><trkpt lat="38.912897" lon="20.8450544"><ele>16.0</ele><time>2026-04-30T15:12:03.851Z</time></trkpt><trkpt lat="38.9128694" lon="20.84479"><ele>16.0</ele><time>2026-04-30T15:12:04.848Z</time></trkpt><trkpt lat="38.9128458" lon="20.8445047"><ele>16.0</ele><time>2026-04-30T15:12:05.849Z</time></trkpt><trkpt lat="38.9128224" lon="20.8442133"><ele>15.5</ele><time>2026-04-30T15:12:06.85Z</time></trkpt><trkpt lat="38.9128017" lon="20.8439198"><ele>15.0</ele><time>2026-04-30T15:12:07.849Z</time></trkpt><trkpt lat="38.9127786" lon="20.8436374"><ele>14.0</ele><time>2026-04-30T15:12:08.849Z</time></trkpt><trkpt lat="38.9127541" lon="20.843361"><ele>13.0</ele><time>2026-04-30T15:12:09.85Z</time></trkpt><trkpt lat="38.9127315" lon="20.8430939"><ele>12.0</ele><time>2026-04-30T15:12:10.849Z</time></trkpt><trkpt lat="38.9127081" lon="20.842835"><ele>11.0</ele><time>2026-04-30T15:12:11.851Z</time></trkpt><trkpt lat="38.9126833" lon="20.8425754"><ele>10.0</ele><time>2026-04-30T15:12:12.85Z</time></trkpt><trkpt lat="38.9126611" lon="20.8423155"><ele>9.0</ele><time>2026-04-30T15:12:13.852Z</time></trkpt><trkpt lat="38.9126429" lon="20.8420581"><ele>9.0</ele><time>2026-04-30T15:12:14.851Z</time></trkpt><trkpt lat="38.9126214" lon="20.8418119"><ele>9.0</ele><time>2026-04-30T15:12:15.85Z</time></trkpt><trkpt lat="38.9126016" lon="20.8415747"><ele>9.0</ele><time>2026-04-30T15:12:16.85Z</time></trkpt><trkpt lat="38.9125861" lon="20.841342"><ele>8.333333333333334</ele><time>2026-04-30T15:12:17.849Z</time></trkpt><trkpt lat="38.9125631" lon="20.8411101"><ele>7.666666666666667</ele><time>2026-04-30T15:12:18.85Z</time></trkpt><trkpt lat="38.9125339" lon="20.8408777"><ele>7.0</ele><time>2026-04-30T15:12:19.849Z</time></trkpt><trkpt lat="38.9125125" lon="20.8406486"><ele>6.333333333333334</ele><time>2026-04-30T15:12:20.849Z</time></trkpt><trkpt lat="38.9124915" lon="20.8404146"><ele>5.666666666666667</ele><time>2026-04-30T15:12:21.85Z</time></trkpt><trkpt lat="38.9124729" lon="20.8401828"><ele>5.0</ele><time>2026-04-30T15:12:22.849Z</time></trkpt><trkpt lat="38.9124476" lon="20.8399489"><ele>5.0</ele><time>2026-04-30T15:12:23.849Z</time></trkpt><trkpt lat="38.9124279" lon="20.8397182"><ele>5.0</ele><time>2026-04-30T15:12:24.851Z</time></trkpt><trkpt lat="38.9124057" lon="20.8395007"><ele>5.0</ele><time>2026-04-30T15:12:25.849Z</time></trkpt><trkpt lat="38.9123854" lon="20.839276"><ele>5.0</ele><time>2026-04-30T15:12:26.85Z</time></trkpt><trkpt lat="38.9123561" lon="20.839055"><ele>5.0</ele><time>2026-04-30T15:12:27.848Z</time></trkpt><trkpt lat="38.912334" lon="20.8388332"><ele>5.0</ele><time>2026-04-30T15:12:28.849Z</time></trkpt><trkpt lat="38.9123111" lon="20.8385909"><ele>4.666666666666667</ele><time>2026-04-30T15:12:29.852Z</time></trkpt><trkpt lat="38.9122884" lon="20.838326"><ele>4.333333333333333</ele><time>2026-04-30T15:12:30.851Z</time></trkpt><trkpt lat="38.9122661" lon="20.8380413"><ele>4.0</ele><time>2026-04-30T15:12:31.849Z</time></trkpt><trkpt lat="38.9122402" lon="20.8377366"><ele>2.5</ele><time>2026-04-30T15:12:32.85Z</time></trkpt><trkpt lat="38.9122129" lon="20.8374354"><ele>1.0</ele><time>2026-04-30T15:12:33.85Z</time></trkpt><trkpt lat="38.9121788" lon="20.8371383"><ele>1.0</ele><time>2026-04-30T15:12:34.85Z</time></trkpt><trkpt lat="38.9121483" lon="20.836842"><ele>1.0</ele><time>2026-04-30T15:12:35.849Z</time></trkpt><trkpt lat="38.9121231" lon="20.8365234"><ele>1.0</ele><time>2026-04-30T15:12:36.85Z</time></trkpt><trkpt lat="38.9120967" lon="20.8362225"><ele>1.0</ele><time>2026-04-30T15:12:37.849Z</time></trkpt><trkpt lat="38.9120704" lon="20.8359234"><ele>1.0</ele><time>2026-04-30T15:12:38.851Z</time></trkpt><trkpt lat="38.9120467" lon="20.8356402"><ele>1.0</ele><time>2026-04-30T15:12:39.849Z</time></trkpt><trkpt lat="38.912029" lon="20.8353704"><ele>1.0</ele><time>2026-04-30T15:12:40.852Z</time></trkpt><trkpt lat="38.9120065" lon="20.8351046"><ele>0.6666666666666666</ele><time>2026-04-30T15:12:41.85Z</time></trkpt><trkpt lat="38.9119857" lon="20.8348441"><ele>0.3333333333333333</ele><time>2026-04-30T15:12:42.85Z</time></trkpt><trkpt lat="38.91197" lon="20.8345776"><ele>0.0</ele><time>2026-04-30T15:12:43.852Z</time></trkpt><trkpt lat="38.9119487" lon="20.8343214"><ele>0.0</ele><time>2026-04-30T15:12:44.85Z</time></trkpt><trkpt lat="38.9119281" lon="20.8340702"><ele>0.0</ele><time>2026-04-30T15:12:45.85Z</time></trkpt><trkpt lat="38.9119099" lon="20.8338287"><ele>0.0</ele><time>2026-04-30T15:12:46.85Z</time></trkpt><trkpt lat="38.9118831" lon="20.8335967"><ele>0.3333333333333333</ele><time>2026-04-30T15:12:47.85Z</time></trkpt><trkpt lat="38.9118652" lon="20.8333806"><ele>0.6666666666666666</ele><time>2026-04-30T15:12:48.851Z</time></trkpt><trkpt lat="38.9118489" lon="20.8331695"><ele>1.0</ele><time>2026-04-30T15:12:49.851Z</time></trkpt><trkpt lat="38.9118529" lon="20.8329601"><ele>1.0</ele><time>2026-04-30T15:12:50.85Z</time></trkpt><trkpt lat="38.9118649" lon="20.8327679"><ele>1.0</ele><time>2026-04-30T15:12:51.85Z</time></trkpt><trkpt lat="38.9118903" lon="20.8325862"><ele>1.0</ele><time>2026-04-30T15:12:52.85Z</time></trkpt><trkpt lat="38.9119333" lon="20.8324088"><ele>1.0</ele><time>2026-04-30T15:12:53.85Z</time></trkpt><trkpt lat="38.9119877" lon="20.8322416"><ele>1.3333333333333333</ele><time>2026-04-30T15:12:54.849Z</time></trkpt><trkpt lat="38.912057" lon="20.83209"><ele>1.6666666666666665</ele><time>2026-04-30T15:12:55.846Z</time></trkpt><trkpt lat="38.9121501" lon="20.8319366"><ele>2.0</ele><time>2026-04-30T15:12:56.849Z</time></trkpt><trkpt lat="38.9122675" lon="20.8317554"><ele>2.0</ele><time>2026-04-30T15:12:57.851Z</time></trkpt><trkpt lat="38.9124277" lon="20.8316094"><ele>2.0</ele><time>2026-04-30T15:12:58.85Z</time></trkpt><trkpt lat="38.9125506" lon="20.8314384"><ele>2.0</ele><time>2026-04-30T15:12:59.85Z</time></trkpt><trkpt lat="38.9126867" lon="20.8312646"><ele>2.0</ele><time>2026-04-30T15:13:00.849Z</time></trkpt><trkpt lat="38.9128247" lon="20.8310862"><ele>2.0</ele><time>2026-04-30T15:13:01.851Z</time></trkpt><trkpt lat="38.9129636" lon="20.8309034"><ele>2.0</ele><time>2026-04-30T15:13:02.85Z</time></trkpt><trkpt lat="38.9131018" lon="20.8307167"><ele>4.0</ele><time>2026-04-30T15:13:03.85Z</time></trkpt><trkpt lat="38.9132373" lon="20.8305406"><ele>6.0</ele><time>2026-04-30T15:13:04.85Z</time></trkpt><trkpt lat="38.9133692" lon="20.8303638"><ele>8.0</ele><time>2026-04-30T15:13:05.85Z</time></trkpt><trkpt lat="38.913496" lon="20.830209"><ele>9.75</ele><time>2026-04-30T15:13:06.85Z</time></trkpt><trkpt lat="38.913599" lon="20.8300659"><ele>11.5</ele><time>2026-04-30T15:13:07.849Z</time></trkpt><trkpt lat="38.9136975" lon="20.8299309"><ele>13.25</ele><time>2026-04-30T15:13:08.851Z</time></trkpt><trkpt lat="38.9137939" lon="20.8297926"><ele>15.0</ele><time>2026-04-30T15:13:09.848Z</time></trkpt><trkpt lat="38.9138845" lon="20.8296373"><ele>15.0</ele><time>2026-04-30T15:13:10.848Z</time></trkpt><trkpt lat="38.9139749" lon="20.8294651"><ele>15.0</ele><time>2026-04-30T15:13:11.849Z</time></trkpt><trkpt lat="38.9140719" lon="20.82927"><ele>15.0</ele><time>2026-04-30T15:13:12.85Z</time></trkpt><trkpt lat="38.914164" lon="20.8290673"><ele>16.0</ele><time>2026-04-30T15:13:13.851Z</time></trkpt><trkpt lat="38.914253" lon="20.8288535"><ele>17.0</ele><time>2026-04-30T15:13:14.85Z</time></trkpt><trkpt lat="38.914349" lon="20.8286315"><ele>18.0</ele><time>2026-04-30T15:13:15.852Z</time></trkpt><trkpt lat="38.9144437" lon="20.8284051"><ele>18.0</ele><time>2026-04-30T15:13:16.851Z</time></trkpt><trkpt lat="38.9145359" lon="20.8281768"><ele>18.0</ele><time>2026-04-30T15:13:17.848Z</time></trkpt><trkpt lat="38.9146229" lon="20.8279365"><ele>18.0</ele><time>2026-04-30T15:13:18.848Z</time></trkpt><trkpt lat="38.9147039" lon="20.8277036"><ele>16.666666666666668</ele><time>2026-04-30T15:13:19.852Z</time></trkpt><trkpt lat="38.9147722" lon="20.8274786"><ele>15.333333333333334</ele><time>2026-04-30T15:13:20.851Z</time></trkpt><trkpt lat="38.9148359" lon="20.827262"><ele>14.0</ele><time>2026-04-30T15:13:21.85Z</time></trkpt><trkpt lat="38.9148838" lon="20.8270295"><ele>12.666666666666668</ele><time>2026-04-30T15:13:22.849Z</time></trkpt><trkpt lat="38.914927" lon="20.8267951"><ele>11.333333333333334</ele><time>2026-04-30T15:13:23.851Z</time></trkpt><trkpt lat="38.9149642" lon="20.826558"><ele>10.0</ele><time>2026-04-30T15:13:24.852Z</time></trkpt><trkpt lat="38.9150037" lon="20.8263417"><ele>10.0</ele><time>2026-04-30T15:13:25.848Z</time></trkpt><trkpt lat="38.9150562" lon="20.8261343"><ele>10.0</ele><time>2026-04-30T15:13:26.848Z</time></trkpt><trkpt lat="38.9151216" lon="20.8259359"><ele>10.0</ele><time>2026-04-30T15:13:27.851Z</time></trkpt><trkpt lat="38.9152133" lon="20.8257535"><ele>10.0</ele><time>2026-04-30T15:13:28.851Z</time></trkpt><trkpt lat="38.9153208" lon="20.8255944"><ele>10.0</ele><time>2026-04-30T15:13:29.848Z</time></trkpt><trkpt lat="38.9154337" lon="20.8254502"><ele>10.0</ele><time>2026-04-30T15:13:30.85Z</time></trkpt><trkpt lat="38.9155388" lon="20.8253185"><ele>10.0</ele><time>2026-04-30T15:13:31.85Z</time></trkpt><trkpt lat="38.9156137" lon="20.8251668"><ele>10.0</ele><time>2026-04-30T15:13:32.85Z</time></trkpt><trkpt lat="38.9156895" lon="20.8250296"><ele>10.0</ele><time>2026-04-30T15:13:33.85Z</time></trkpt><trkpt lat="38.9157388" lon="20.8248588"><ele>10.0</ele><time>2026-04-30T15:13:34.848Z</time></trkpt><trkpt lat="38.9157624" lon="20.8246649"><ele>12.333333333333334</ele><time>2026-04-30T15:13:35.849Z</time></trkpt><trkpt lat="38.915754" lon="20.8244814"><ele>14.666666666666668</ele><time>2026-04-30T15:13:36.85Z</time></trkpt><trkpt lat="38.9157223" lon="20.8242919"><ele>17.0</ele><time>2026-04-30T15:13:37.85Z</time></trkpt><trkpt lat="38.9156799" lon="20.8240963"><ele>18.666666666666668</ele><time>2026-04-30T15:13:38.85Z</time></trkpt><trkpt lat="38.9156497" lon="20.8238806"><ele>20.333333333333332</ele><time>2026-04-30T15:13:39.85Z</time></trkpt><trkpt lat="38.9156428" lon="20.8236809"><ele>22.0</ele><time>2026-04-30T15:13:40.848Z</time></trkpt><trkpt lat="38.9156578" lon="20.8234779"><ele>24.666666666666664</ele><time>2026-04-30T15:13:41.851Z</time></trkpt><trkpt lat="38.9156889" lon="20.8232618"><ele>27.333333333333332</ele><time>2026-04-30T15:13:42.851Z</time></trkpt><trkpt lat="38.915754" lon="20.8230621"><ele>30.0</ele><time>2026-04-30T15:13:43.849Z</time></trkpt><trkpt lat="38.915813" lon="20.8228599"><ele>30.0</ele><time>2026-04-30T15:13:44.849Z</time></trkpt><trkpt lat="38.9158786" lon="20.8226696"><ele>30.0</ele><time>2026-04-30T15:13:45.848Z</time></trkpt><trkpt lat="38.9159343" lon="20.8224805"><ele>30.0</ele><time>2026-04-30T15:13:46.851Z</time></trkpt><trkpt lat="38.9159852" lon="20.8223095"><ele>33.5</ele><time>2026-04-30T15:13:47.847Z</time></trkpt><trkpt lat="38.9160122" lon="20.8221405"><ele>37.0</ele><time>2026-04-30T15:13:48.851Z</time></trkpt><trkpt lat="38.9160079" lon="20.8219711"><ele>40.5</ele><time>2026-04-30T15:13:49.851Z</time></trkpt><trkpt lat="38.9159882" lon="20.8217839"><ele>44.0</ele><time>2026-04-30T15:13:50.848Z</time></trkpt><trkpt lat="38.9159498" lon="20.8215944"><ele>44.0</ele><time>2026-04-30T15:13:51.85Z</time></trkpt><trkpt lat="38.9159114" lon="20.8214054"><ele>44.0</ele><time>2026-04-30T15:13:52.849Z</time></trkpt><trkpt lat="38.9158906" lon="20.8212327"><ele>44.0</ele><time>2026-04-30T15:13:53.85Z</time></trkpt><trkpt lat="38.9158744" lon="20.8210494"><ele>44.0</ele><time>2026-04-30T15:13:54.848Z</time></trkpt><trkpt lat="38.9159053" lon="20.8208622"><ele>42.33333333333333</ele><time>2026-04-30T15:13:55.851Z</time></trkpt><trkpt lat="38.9159688" lon="20.8206749"><ele>40.666666666666664</ele><time>2026-04-30T15:13:56.851Z</time></trkpt><trkpt lat="38.9160428" lon="20.8204876"><ele>39.0</ele><time>2026-04-30T15:13:57.85Z</time></trkpt><trkpt lat="38.9161306" lon="20.8203231"><ele>39.0</ele><time>2026-04-30T15:13:58.85Z</time></trkpt><trkpt lat="38.9162303" lon="20.82017"><ele>39.0</ele><time>2026-04-30T15:13:59.848Z</time></trkpt><trkpt lat="38.9163405" lon="20.8200382"><ele>39.0</ele><time>2026-04-30T15:14:00.851Z</time></trkpt><trkpt lat="38.9164713" lon="20.8199387"><ele>39.5</ele><time>2026-04-30T15:14:01.851Z</time></trkpt><trkpt lat="38.916618" lon="20.8198973"><ele>40.0</ele><time>2026-04-30T15:14:02.85Z</time></trkpt><trkpt lat="38.9167616" lon="20.8198628"><ele>40.5</ele><time>2026-04-30T15:14:03.851Z</time></trkpt><trkpt lat="38.9169145" lon="20.8198575"><ele>41.0</ele><time>2026-04-30T15:14:04.851Z</time></trkpt><trkpt lat="38.9170706" lon="20.8198762"><ele>39.0</ele><time>2026-04-30T15:14:05.85Z</time></trkpt><trkpt lat="38.9172207" lon="20.8199241"><ele>37.0</ele><time>2026-04-30T15:14:06.851Z</time></trkpt><trkpt lat="38.9173626" lon="20.820012"><ele>35.0</ele><time>2026-04-30T15:14:07.85Z</time></trkpt><trkpt lat="38.9174938" lon="20.8201267"><ele>33.666666666666664</ele><time>2026-04-30T15:14:08.85Z</time></trkpt><trkpt lat="38.9176225" lon="20.8202612"><ele>32.333333333333336</ele><time>2026-04-30T15:14:09.85Z</time></trkpt><trkpt lat="38.917743" lon="20.820388"><ele>31.0</ele><time>2026-04-30T15:14:10.851Z</time></trkpt><trkpt lat="38.9178555" lon="20.8205138"><ele>31.0</ele><time>2026-04-30T15:14:11.851Z</time></trkpt><trkpt lat="38.9179495" lon="20.8206448"><ele>31.0</ele><time>2026-04-30T15:14:12.85Z</time></trkpt><trkpt lat="38.9180252" lon="20.8207741"><ele>31.0</ele><time>2026-04-30T15:14:13.849Z</time></trkpt><trkpt lat="38.9180853" lon="20.820887"><ele>31.0</ele><time>2026-04-30T15:14:14.849Z</time></trkpt><trkpt lat="38.9181446" lon="20.820981"><ele>31.000000000000004</ele><time>2026-04-30T15:14:15.851Z</time></trkpt><trkpt lat="38.9182097" lon="20.8210414"><ele>31.0</ele><time>2026-04-30T15:14:16.851Z</time></trkpt><trkpt lat="38.9182829" lon="20.8210674"><ele>31.0</ele><time>2026-04-30T15:14:17.849Z</time></trkpt><trkpt lat="38.9183465" lon="20.8210376"><ele>31.0</ele><time>2026-04-30T15:14:18.848Z</time></trkpt><trkpt lat="38.9183802" lon="20.8209624"><ele>31.000000000000004</ele><time>2026-04-30T15:14:19.85Z</time></trkpt><trkpt lat="38.9183837" lon="20.8208572"><ele>31.0</ele><time>2026-04-30T15:14:20.849Z</time></trkpt><trkpt lat="38.9183423" lon="20.8207405"><ele>31.0</ele><time>2026-04-30T15:14:21.851Z</time></trkpt><trkpt lat="38.9182712" lon="20.8206173"><ele>31.0</ele><time>2026-04-30T15:14:22.847Z</time></trkpt><trkpt lat="38.9181787" lon="20.8204749"><ele>31.0</ele><time>2026-04-30T15:14:23.851Z</time></trkpt><trkpt lat="38.9180873" lon="20.8203221"><ele>31.0</ele><time>2026-04-30T15:14:24.849Z</time></trkpt><trkpt lat="38.9179873" lon="20.8201553"><ele>29.0</ele><time>2026-04-30T15:14:25.849Z</time></trkpt><trkpt lat="38.9178897" lon="20.8199829"><ele>27.0</ele><time>2026-04-30T15:14:26.851Z</time></trkpt><trkpt lat="38.917785" lon="20.8197918"><ele>25.0</ele><time>2026-04-30T15:14:27.85Z</time></trkpt><trkpt lat="38.9176898" lon="20.8196172"><ele>25.0</ele><time>2026-04-30T15:14:28.849Z</time></trkpt><trkpt lat="38.9176081" lon="20.8194484"><ele>25.0</ele><time>2026-04-30T15:14:29.848Z</time></trkpt><trkpt lat="38.9175288" lon="20.8192793"><ele>25.0</ele><time>2026-04-30T15:14:30.849Z</time></trkpt><trkpt lat="38.9174465" lon="20.8191177"><ele>26.0</ele><time>2026-04-30T15:14:31.849Z</time></trkpt><trkpt lat="38.917358" lon="20.8189799"><ele>27.0</ele><time>2026-04-30T15:14:32.85Z</time></trkpt><trkpt lat="38.9172631" lon="20.8188736"><ele>28.0</ele><time>2026-04-30T15:14:33.85Z</time></trkpt><trkpt lat="38.917149" lon="20.8187962"><ele>29.0</ele><time>2026-04-30T15:14:34.846Z</time></trkpt><trkpt lat="38.9170342" lon="20.818758"><ele>29.0</ele><time>2026-04-30T15:14:35.85Z</time></trkpt><trkpt lat="38.9169031" lon="20.8187502"><ele>29.0</ele><time>2026-04-30T15:14:36.848Z</time></trkpt><trkpt lat="38.9167659" lon="20.8187708"><ele>29.0</ele><time>2026-04-30T15:14:37.848Z</time></trkpt><trkpt lat="38.9166227" lon="20.8188009"><ele>29.0</ele><time>2026-04-30T15:14:38.847Z</time></trkpt><trkpt lat="38.9164829" lon="20.8188204"><ele>30.0</ele><time>2026-04-30T15:14:39.847Z</time></trkpt><trkpt lat="38.9163398" lon="20.8188209"><ele>31.0</ele><time>2026-04-30T15:14:40.85Z</time></trkpt><trkpt lat="38.916208" lon="20.8187955"><ele>32.0</ele><time>2026-04-30T15:14:41.85Z</time></trkpt><trkpt lat="38.9160765" lon="20.8187653"><ele>33.0</ele><time>2026-04-30T15:14:42.85Z</time></trkpt><trkpt lat="38.9159595" lon="20.8187267"><ele>32.6</ele><time>2026-04-30T15:14:43.85Z</time></trkpt><trkpt lat="38.9158662" lon="20.8186639"><ele>32.199999999999996</ele><time>2026-04-30T15:14:44.85Z</time></trkpt><trkpt lat="38.915808" lon="20.8185771"><ele>31.8</ele><time>2026-04-30T15:14:45.849Z</time></trkpt><trkpt lat="38.9157731" lon="20.8184757"><ele>31.4</ele><time>2026-04-30T15:14:46.848Z</time></trkpt><trkpt lat="38.9158221" lon="20.8183821"><ele>31.0</ele><time>2026-04-30T15:14:47.849Z</time></trkpt><trkpt lat="38.9158844" lon="20.818267"><ele>28.0</ele><time>2026-04-30T15:14:48.848Z</time></trkpt><trkpt lat="38.91599" lon="20.8181366"><ele>25.0</ele><time>2026-04-30T15:14:49.85Z</time></trkpt><trkpt lat="38.9161135" lon="20.8180069"><ele>22.0</ele><time>2026-04-30T15:14:50.852Z</time></trkpt><trkpt lat="38.9162436" lon="20.817863"><ele>22.0</ele><time>2026-04-30T15:14:51.849Z</time></trkpt><trkpt lat="38.9163766" lon="20.8177256"><ele>22.0</ele><time>2026-04-30T15:14:52.851Z</time></trkpt><trkpt lat="38.9165079" lon="20.8175858"><ele>22.0</ele><time>2026-04-30T15:14:53.849Z</time></trkpt><trkpt lat="38.9166388" lon="20.8174495"><ele>19.666666666666664</ele><time>2026-04-30T15:14:54.848Z</time></trkpt><trkpt lat="38.9167674" lon="20.8173141"><ele>17.333333333333332</ele><time>2026-04-30T15:14:55.85Z</time></trkpt><trkpt lat="38.9168902" lon="20.8171728"><ele>15.0</ele><time>2026-04-30T15:14:56.85Z</time></trkpt><trkpt lat="38.9170003" lon="20.8170225"><ele>15.0</ele><time>2026-04-30T15:14:57.848Z</time></trkpt><trkpt lat="38.9170991" lon="20.816851"><ele>15.0</ele><time>2026-04-30T15:14:58.847Z</time></trkpt><trkpt lat="38.9171729" lon="20.8166636"><ele>15.0</ele><time>2026-04-30T15:14:59.851Z</time></trkpt><trkpt lat="38.9172352" lon="20.8164555"><ele>15.0</ele><time>2026-04-30T15:15:00.848Z</time></trkpt><trkpt lat="38.9172808" lon="20.8162382"><ele>15.0</ele><time>2026-04-30T15:15:01.848Z</time></trkpt><trkpt lat="38.9173258" lon="20.8160282"><ele>15.0</ele><time>2026-04-30T15:15:02.851Z</time></trkpt><trkpt lat="38.9173453" lon="20.8158214"><ele>15.0</ele><time>2026-04-30T15:15:03.851Z</time></trkpt><trkpt lat="38.9173544" lon="20.8156326"><ele>15.0</ele><time>2026-04-30T15:15:04.851Z</time></trkpt><trkpt lat="38.9173375" lon="20.8154515"><ele>15.0</ele><time>2026-04-30T15:15:05.849Z</time></trkpt><trkpt lat="38.9172931" lon="20.8152421"><ele>14.666666666666668</ele><time>2026-04-30T15:15:06.849Z</time></trkpt><trkpt lat="38.9172161" lon="20.8150365"><ele>14.333333333333334</ele><time>2026-04-30T15:15:07.849Z</time></trkpt><trkpt lat="38.9171342" lon="20.8148255"><ele>14.0</ele><time>2026-04-30T15:15:08.85Z</time></trkpt><trkpt lat="38.9170458" lon="20.8146089"><ele>14.0</ele><time>2026-04-30T15:15:09.851Z</time></trkpt><trkpt lat="38.916953" lon="20.8143846"><ele>14.0</ele><time>2026-04-30T15:15:10.85Z</time></trkpt><trkpt lat="38.9168559" lon="20.8141548"><ele>14.0</ele><time>2026-04-30T15:15:11.851Z</time></trkpt><trkpt lat="38.9167587" lon="20.8139214"><ele>13.333333333333334</ele><time>2026-04-30T15:15:12.848Z</time></trkpt><trkpt lat="38.9166635" lon="20.8136796"><ele>12.666666666666668</ele><time>2026-04-30T15:15:13.851Z</time></trkpt><trkpt lat="38.9165693" lon="20.8134619"><ele>12.0</ele><time>2026-04-30T15:15:14.851Z</time></trkpt><trkpt lat="38.9164792" lon="20.8132515"><ele>11.666666666666666</ele><time>2026-04-30T15:15:15.85Z</time></trkpt><trkpt lat="38.9163961" lon="20.8130318"><ele>11.333333333333332</ele><time>2026-04-30T15:15:16.85Z</time></trkpt><trkpt lat="38.9163135" lon="20.8128347"><ele>11.0</ele><time>2026-04-30T15:15:17.85Z</time></trkpt><trkpt lat="38.91624" lon="20.8126452"><ele>11.0</ele><time>2026-04-30T15:15:18.851Z</time></trkpt><trkpt lat="38.9161732" lon="20.8124732"><ele>11.0</ele><time>2026-04-30T15:15:19.85Z</time></trkpt><trkpt lat="38.9161148" lon="20.8123092"><ele>11.0</ele><time>2026-04-30T15:15:20.851Z</time></trkpt><trkpt lat="38.9160621" lon="20.8121412"><ele>11.0</ele><time>2026-04-30T15:15:21.85Z</time></trkpt><trkpt lat="38.9160151" lon="20.8119679"><ele>11.25</ele><time>2026-04-30T15:15:22.85Z</time></trkpt><trkpt lat="38.9159746" lon="20.8117865"><ele>11.5</ele><time>2026-04-30T15:15:23.852Z</time></trkpt><trkpt lat="38.9159452" lon="20.8116015"><ele>11.75</ele><time>2026-04-30T15:15:24.851Z</time></trkpt><trkpt lat="38.9159241" lon="20.8114061"><ele>12.0</ele><time>2026-04-30T15:15:25.849Z</time></trkpt><trkpt lat="38.9159086" lon="20.8112069"><ele>12.333333333333332</ele><time>2026-04-30T15:15:26.848Z</time></trkpt><trkpt lat="38.9158979" lon="20.8110053"><ele>12.666666666666666</ele><time>2026-04-30T15:15:27.85Z</time></trkpt><trkpt lat="38.9158949" lon="20.8107965"><ele>13.0</ele><time>2026-04-30T15:15:28.852Z</time></trkpt><trkpt lat="38.9158905" lon="20.8105753"><ele>13.0</ele><time>2026-04-30T15:15:29.847Z</time></trkpt><trkpt lat="38.9158902" lon="20.810352"><ele>13.0</ele><time>2026-04-30T15:15:30.848Z</time></trkpt><trkpt lat="38.9158905" lon="20.8101258"><ele>13.0</ele><time>2026-04-30T15:15:31.848Z</time></trkpt><trkpt lat="38.9159065" lon="20.8098825"><ele>13.0</ele><time>2026-04-30T15:15:32.852Z</time></trkpt><trkpt lat="38.9159084" lon="20.8096814"><ele>13.0</ele><time>2026-04-30T15:15:33.849Z</time></trkpt><trkpt lat="38.9159115" lon="20.8094927"><ele>13.0</ele><time>2026-04-30T15:15:34.847Z</time></trkpt><trkpt lat="38.9159042" lon="20.8093051"><ele>13.0</ele><time>2026-04-30T15:15:35.85Z</time></trkpt><trkpt lat="38.9158666" lon="20.8091184"><ele>13.0</ele><time>2026-04-30T15:15:36.848Z</time></trkpt><trkpt lat="38.9158114" lon="20.8089325"><ele>13.0</ele><time>2026-04-30T15:15:37.851Z</time></trkpt><trkpt lat="38.9157412" lon="20.80876"><ele>13.0</ele><time>2026-04-30T15:15:38.852Z</time></trkpt><trkpt lat="38.91567" lon="20.8085994"><ele>13.0</ele><time>2026-04-30T15:15:39.849Z</time></trkpt><trkpt lat="38.9155906" lon="20.808443"><ele>13.0</ele><time>2026-04-30T15:15:40.848Z</time></trkpt><trkpt lat="38.915511" lon="20.8082862"><ele>13.0</ele><time>2026-04-30T15:15:41.847Z</time></trkpt><trkpt lat="38.9154336" lon="20.8081349"><ele>13.0</ele><time>2026-04-30T15:15:42.85Z</time></trkpt><trkpt lat="38.915363" lon="20.8079741"><ele>13.0</ele><time>2026-04-30T15:15:43.851Z</time></trkpt><trkpt lat="38.9152942" lon="20.8078321"><ele>13.0</ele><time>2026-04-30T15:15:44.849Z</time></trkpt><trkpt lat="38.9152347" lon="20.8077067"><ele>13.0</ele><time>2026-04-30T15:15:45.85Z</time></trkpt><trkpt lat="38.915181" lon="20.8075935"><ele>13.0</ele><time>2026-04-30T15:15:46.85Z</time></trkpt><trkpt lat="38.9151302" lon="20.8074907"><ele>13.0</ele><time>2026-04-30T15:15:47.85Z</time></trkpt><trkpt lat="38.9150807" lon="20.8073871"><ele>13.4</ele><time>2026-04-30T15:15:48.85Z</time></trkpt><trkpt lat="38.9150287" lon="20.8072827"><ele>13.8</ele><time>2026-04-30T15:15:49.849Z</time></trkpt><trkpt lat="38.9149691" lon="20.8071773"><ele>14.2</ele><time>2026-04-30T15:15:50.849Z</time></trkpt><trkpt lat="38.9149081" lon="20.8070691"><ele>14.6</ele><time>2026-04-30T15:15:51.85Z</time></trkpt><trkpt lat="38.9148485" lon="20.8069563"><ele>15.0</ele><time>2026-04-30T15:15:52.851Z</time></trkpt><trkpt lat="38.914785" lon="20.806843"><ele>14.5</ele><time>2026-04-30T15:15:53.849Z</time></trkpt><trkpt lat="38.9147146" lon="20.8067262"><ele>14.0</ele><time>2026-04-30T15:15:54.851Z</time></trkpt><trkpt lat="38.9146365" lon="20.8066193"><ele>13.5</ele><time>2026-04-30T15:15:55.849Z</time></trkpt><trkpt lat="38.9145619" lon="20.8065157"><ele>13.0</ele><time>2026-04-30T15:15:56.851Z</time></trkpt><trkpt lat="38.9144756" lon="20.8064085"><ele>13.0</ele><time>2026-04-30T15:15:57.848Z</time></trkpt><trkpt lat="38.9143764" lon="20.8063096"><ele>13.0</ele><time>2026-04-30T15:15:58.848Z</time></trkpt><trkpt lat="38.9142377" lon="20.8062303"><ele>13.0</ele><time>2026-04-30T15:15:59.847Z</time></trkpt><trkpt lat="38.9141325" lon="20.8061448"><ele>13.0</ele><time>2026-04-30T15:16:00.849Z</time></trkpt><trkpt lat="38.9140381" lon="20.806068"><ele>13.75</ele><time>2026-04-30T15:16:01.85Z</time></trkpt><trkpt lat="38.9139207" lon="20.8059919"><ele>14.5</ele><time>2026-04-30T15:16:02.851Z</time></trkpt><trkpt lat="38.9138015" lon="20.8059095"><ele>15.25</ele><time>2026-04-30T15:16:03.849Z</time></trkpt><trkpt lat="38.913674" lon="20.8058255"><ele>16.0</ele><time>2026-04-30T15:16:04.851Z</time></trkpt><trkpt lat="38.9135486" lon="20.8057357"><ele>16.0</ele><time>2026-04-30T15:16:05.851Z</time></trkpt><trkpt lat="38.9134162" lon="20.8056512"><ele>16.0</ele><time>2026-04-30T15:16:06.85Z</time></trkpt><trkpt lat="38.9132782" lon="20.8055616"><ele>16.0</ele><time>2026-04-30T15:16:07.85Z</time></trkpt><trkpt lat="38.9131339" lon="20.805478"><ele>16.333333333333332</ele><time>2026-04-30T15:16:08.851Z</time></trkpt><trkpt lat="38.9129893" lon="20.8053961"><ele>16.666666666666668</ele><time>2026-04-30T15:16:09.849Z</time></trkpt><trkpt lat="38.9128246" lon="20.8052956"><ele>17.0</ele><time>2026-04-30T15:16:10.849Z</time></trkpt><trkpt lat="38.9126664" lon="20.8051863"><ele>18.0</ele><time>2026-04-30T15:16:11.85Z</time></trkpt><trkpt lat="38.9124939" lon="20.8050768"><ele>19.0</ele><time>2026-04-30T15:16:12.851Z</time></trkpt><trkpt lat="38.9123069" lon="20.8049597"><ele>20.0</ele><time>2026-04-30T15:16:13.848Z</time></trkpt><trkpt lat="38.9121076" lon="20.8048406"><ele>20.0</ele><time>2026-04-30T15:16:14.846Z</time></trkpt><trkpt lat="38.9119152" lon="20.8047116"><ele>20.0</ele><time>2026-04-30T15:16:15.852Z</time></trkpt><trkpt lat="38.9117146" lon="20.8046032"><ele>20.0</ele><time>2026-04-30T15:16:16.85Z</time></trkpt><trkpt lat="38.9115266" lon="20.8044792"><ele>20.666666666666668</ele><time>2026-04-30T15:16:17.851Z</time></trkpt><trkpt lat="38.9113372" lon="20.804363"><ele>21.333333333333332</ele><time>2026-04-30T15:16:18.85Z</time></trkpt><trkpt lat="38.9111568" lon="20.804243"><ele>22.0</ele><time>2026-04-30T15:16:19.851Z</time></trkpt><trkpt lat="38.9109696" lon="20.8041114"><ele>22.5</ele><time>2026-04-30T15:16:20.849Z</time></trkpt><trkpt lat="38.9107793" lon="20.80397"><ele>23.0</ele><time>2026-04-30T15:16:21.849Z</time></trkpt><trkpt lat="38.9105808" lon="20.8038089"><ele>23.0</ele><time>2026-04-30T15:16:22.848Z</time></trkpt><trkpt lat="38.9103883" lon="20.8036333"><ele>23.0</ele><time>2026-04-30T15:16:23.849Z</time></trkpt><trkpt lat="38.9101992" lon="20.8034355"><ele>23.0</ele><time>2026-04-30T15:16:24.85Z</time></trkpt><trkpt lat="38.9099883" lon="20.8032376"><ele>23.0</ele><time>2026-04-30T15:16:25.848Z</time></trkpt><trkpt lat="38.909796" lon="20.8030275"><ele>23.0</ele><time>2026-04-30T15:16:26.846Z</time></trkpt><trkpt lat="38.909594" lon="20.802811"><ele>23.0</ele><time>2026-04-30T15:16:27.85Z</time></trkpt><trkpt lat="38.9093874" lon="20.8025858"><ele>23.0</ele><time>2026-04-30T15:16:28.848Z</time></trkpt><trkpt lat="38.9091635" lon="20.8023679"><ele>23.0</ele><time>2026-04-30T15:16:29.848Z</time></trkpt><trkpt lat="38.908933" lon="20.8021602"><ele>23.0</ele><time>2026-04-30T15:16:30.849Z</time></trkpt><trkpt lat="38.9086831" lon="20.8019658"><ele>23.0</ele><time>2026-04-30T15:16:31.85Z</time></trkpt><trkpt lat="38.908425" lon="20.8017813"><ele>25.0</ele><time>2026-04-30T15:16:32.851Z</time></trkpt><trkpt lat="38.9081584" lon="20.8016124"><ele>27.0</ele><time>2026-04-30T15:16:33.846Z</time></trkpt><trkpt lat="38.9078873" lon="20.8014571"><ele>27.0</ele><time>2026-04-30T15:16:34.848Z</time></trkpt><trkpt lat="38.9076018" lon="20.8013154"><ele>27.0</ele><time>2026-04-30T15:16:35.848Z</time></trkpt><trkpt lat="38.9073081" lon="20.8011899"><ele>29.0</ele><time>2026-04-30T15:16:36.846Z</time></trkpt><trkpt lat="38.9070048" lon="20.801083"><ele>31.0</ele><time>2026-04-30T15:16:37.847Z</time></trkpt><trkpt lat="38.9066981" lon="20.8009916"><ele>35.5</ele><time>2026-04-30T15:16:38.846Z</time></trkpt><trkpt lat="38.9063924" lon="20.8009048"><ele>40.0</ele><time>2026-04-30T15:16:39.847Z</time></trkpt><trkpt lat="38.9060862" lon="20.8008126"><ele>43.5</ele><time>2026-04-30T15:16:40.85Z</time></trkpt><trkpt lat="38.9057809" lon="20.8007255"><ele>47.0</ele><time>2026-04-30T15:16:41.847Z</time></trkpt><trkpt lat="38.905474" lon="20.8006317"><ele>47.0</ele><time>2026-04-30T15:16:42.851Z</time></trkpt><trkpt lat="38.9051624" lon="20.8005359"><ele>47.0</ele><time>2026-04-30T15:16:43.848Z</time></trkpt><trkpt lat="38.9048506" lon="20.800419"><ele>46.5</ele><time>2026-04-30T15:16:44.848Z</time></trkpt><trkpt lat="38.9045337" lon="20.8002905"><ele>46.0</ele><time>2026-04-30T15:16:45.849Z</time></trkpt><trkpt lat="38.9042119" lon="20.8001482"><ele>48.5</ele><time>2026-04-30T15:16:46.848Z</time></trkpt><trkpt lat="38.9038941" lon="20.7999871"><ele>51.0</ele><time>2026-04-30T15:16:47.85Z</time></trkpt><trkpt lat="38.9035724" lon="20.7998266"><ele>52.5</ele><time>2026-04-30T15:16:48.846Z</time></trkpt><trkpt lat="38.9032495" lon="20.7996694"><ele>54.0</ele><time>2026-04-30T15:16:49.849Z</time></trkpt><trkpt lat="38.9029231" lon="20.799499"><ele>54.5</ele><time>2026-04-30T15:16:50.847Z</time></trkpt><trkpt lat="38.9025904" lon="20.7993311"><ele>55.0</ele><time>2026-04-30T15:16:51.849Z</time></trkpt><trkpt lat="38.9022608" lon="20.7991478"><ele>55.0</ele><time>2026-04-30T15:16:52.851Z</time></trkpt><trkpt lat="38.9019262" lon="20.7989735"><ele>55.0</ele><time>2026-04-30T15:16:53.849Z</time></trkpt><trkpt lat="38.901589" lon="20.7987988"><ele>53.5</ele><time>2026-04-30T15:16:54.847Z</time></trkpt><trkpt lat="38.9012504" lon="20.7986263"><ele>52.0</ele><time>2026-04-30T15:16:55.848Z</time></trkpt><trkpt lat="38.9009237" lon="20.7984568"><ele>57.5</ele><time>2026-04-30T15:16:56.851Z</time></trkpt><trkpt lat="38.9005982" lon="20.7982832"><ele>63.0</ele><time>2026-04-30T15:16:57.85Z</time></trkpt><trkpt lat="38.9002843" lon="20.7981136"><ele>67.5</ele><time>2026-04-30T15:16:58.848Z</time></trkpt><trkpt lat="38.8999763" lon="20.7979592"><ele>72.0</ele><time>2026-04-30T15:16:59.849Z</time></trkpt><trkpt lat="38.8996695" lon="20.7977947"><ele>72.0</ele><time>2026-04-30T15:17:00.849Z</time></trkpt><trkpt lat="38.8993704" lon="20.7976452"><ele>72.0</ele><time>2026-04-30T15:17:01.847Z</time></trkpt><trkpt lat="38.8990728" lon="20.7975159"><ele>75.0</ele><time>2026-04-30T15:17:02.849Z</time></trkpt><trkpt lat="38.8987781" lon="20.7974093"><ele>78.0</ele><time>2026-04-30T15:17:03.849Z</time></trkpt><trkpt lat="38.898484" lon="20.797329"><ele>81.5</ele><time>2026-04-30T15:17:04.85Z</time></trkpt><trkpt lat="38.8981899" lon="20.7972691"><ele>85.0</ele><time>2026-04-30T15:17:05.85Z</time></trkpt><trkpt lat="38.8978981" lon="20.7972282"><ele>85.0</ele><time>2026-04-30T15:17:06.849Z</time></trkpt><trkpt lat="38.8976169" lon="20.7972168"><ele>85.0</ele><time>2026-04-30T15:17:07.848Z</time></trkpt><trkpt lat="38.8973376" lon="20.7972172"><ele>85.0</ele><time>2026-04-30T15:17:08.848Z</time></trkpt><trkpt lat="38.8970756" lon="20.7971997"><ele>85.0</ele><time>2026-04-30T15:17:09.849Z</time></trkpt><trkpt lat="38.8968114" lon="20.7972199"><ele>85.5</ele><time>2026-04-30T15:17:10.851Z</time></trkpt><trkpt lat="38.8965572" lon="20.7972598"><ele>86.0</ele><time>2026-04-30T15:17:11.851Z</time></trkpt><trkpt lat="38.8963203" lon="20.7973186"><ele>86.0</ele><time>2026-04-30T15:17:12.847Z</time></trkpt><trkpt lat="38.8960911" lon="20.7973936"><ele>86.0</ele><time>2026-04-30T15:17:13.85Z</time></trkpt><trkpt lat="38.8958636" lon="20.7974838"><ele>85.0</ele><time>2026-04-30T15:17:14.851Z</time></trkpt><trkpt lat="38.8956408" lon="20.7975838"><ele>84.0</ele><time>2026-04-30T15:17:15.85Z</time></trkpt><trkpt lat="38.8954129" lon="20.7976974"><ele>84.5</ele><time>2026-04-30T15:17:16.848Z</time></trkpt><trkpt lat="38.8951829" lon="20.7978264"><ele>85.0</ele><time>2026-04-30T15:17:17.85Z</time></trkpt><trkpt lat="38.8949508" lon="20.79797"><ele>85.0</ele><time>2026-04-30T15:17:18.847Z</time></trkpt><trkpt lat="38.8947149" lon="20.7981336"><ele>85.0</ele><time>2026-04-30T15:17:19.849Z</time></trkpt><trkpt lat="38.8944753" lon="20.7983177"><ele>84.0</ele><time>2026-04-30T15:17:20.849Z</time></trkpt><trkpt lat="38.8942366" lon="20.7985168"><ele>83.0</ele><time>2026-04-30T15:17:21.85Z</time></trkpt><trkpt lat="38.8939845" lon="20.7987317"><ele>83.0</ele><time>2026-04-30T15:17:22.851Z</time></trkpt><trkpt lat="38.8937293" lon="20.7989538"><ele>83.0</ele><time>2026-04-30T15:17:23.85Z</time></trkpt><trkpt lat="38.893461" lon="20.7991939"><ele>79.0</ele><time>2026-04-30T15:17:24.85Z</time></trkpt><trkpt lat="38.8931883" lon="20.7994374"><ele>75.0</ele><time>2026-04-30T15:17:25.847Z</time></trkpt><trkpt lat="38.8929125" lon="20.7996819"><ele>75.0</ele><time>2026-04-30T15:17:26.851Z</time></trkpt><trkpt lat="38.8926312" lon="20.7999264"><ele>75.0</ele><time>2026-04-30T15:17:27.849Z</time></trkpt><trkpt lat="38.8923575" lon="20.8001619"><ele>82.0</ele><time>2026-04-30T15:17:28.85Z</time></trkpt><trkpt lat="38.892089" lon="20.8003901"><ele>89.0</ele><time>2026-04-30T15:17:29.847Z</time></trkpt><trkpt lat="38.8918302" lon="20.8006155"><ele>88.0</ele><time>2026-04-30T15:17:30.85Z</time></trkpt><trkpt lat="38.8915779" lon="20.8008328"><ele>87.0</ele><time>2026-04-30T15:17:31.848Z</time></trkpt><trkpt lat="38.8913262" lon="20.8010523"><ele>92.5</ele><time>2026-04-30T15:17:32.849Z</time></trkpt><trkpt lat="38.8910755" lon="20.8012746"><ele>98.0</ele><time>2026-04-30T15:17:33.848Z</time></trkpt><trkpt lat="38.8908305" lon="20.80149"><ele>100.0</ele><time>2026-04-30T15:17:34.847Z</time></trkpt><trkpt lat="38.8905908" lon="20.8016997"><ele>102.0</ele><time>2026-04-30T15:17:35.849Z</time></trkpt><trkpt lat="38.890362" lon="20.8018944"><ele>107.0</ele><time>2026-04-30T15:17:36.851Z</time></trkpt><trkpt lat="38.8901448" lon="20.8020877"><ele>112.0</ele><time>2026-04-30T15:17:37.847Z</time></trkpt><trkpt lat="38.8899405" lon="20.8022742"><ele>112.0</ele><time>2026-04-30T15:17:38.85Z</time></trkpt><trkpt lat="38.8897418" lon="20.8024466"><ele>112.0</ele><time>2026-04-30T15:17:39.849Z</time></trkpt><trkpt lat="38.8895463" lon="20.8026105"><ele>113.5</ele><time>2026-04-30T15:17:40.847Z</time></trkpt><trkpt lat="38.8893467" lon="20.8027615"><ele>115.0</ele><time>2026-04-30T15:17:41.85Z</time></trkpt><trkpt lat="38.88914" lon="20.8028955"><ele>115.5</ele><time>2026-04-30T15:17:42.847Z</time></trkpt><trkpt lat="38.8889285" lon="20.8030014"><ele>116.0</ele><time>2026-04-30T15:17:43.85Z</time></trkpt><trkpt lat="38.8887087" lon="20.8030892"><ele>116.0</ele><time>2026-04-30T15:17:44.85Z</time></trkpt><trkpt lat="38.8884843" lon="20.8031508"><ele>116.0</ele><time>2026-04-30T15:17:45.846Z</time></trkpt><trkpt lat="38.8882605" lon="20.8031817"><ele>113.5</ele><time>2026-04-30T15:17:46.851Z</time></trkpt><trkpt lat="38.8880284" lon="20.8031949"><ele>111.0</ele><time>2026-04-30T15:17:47.849Z</time></trkpt><trkpt lat="38.8878038" lon="20.8031601"><ele>107.5</ele><time>2026-04-30T15:17:48.848Z</time></trkpt><trkpt lat="38.8875813" lon="20.8031039"><ele>104.0</ele><time>2026-04-30T15:17:49.85Z</time></trkpt><trkpt lat="38.8873567" lon="20.8030392"><ele>104.0</ele><time>2026-04-30T15:17:50.848Z</time></trkpt><trkpt lat="38.8871525" lon="20.8029656"><ele>104.0</ele><time>2026-04-30T15:17:51.848Z</time></trkpt><trkpt lat="38.886938" lon="20.8028447"><ele>104.0</ele><time>2026-04-30T15:17:52.85Z</time></trkpt><trkpt lat="38.88674" lon="20.8027045"><ele>101.5</ele><time>2026-04-30T15:17:53.851Z</time></trkpt><trkpt lat="38.8865472" lon="20.8025393"><ele>99.0</ele><time>2026-04-30T15:17:54.85Z</time></trkpt><trkpt lat="38.8863654" lon="20.8023721"><ele>99.0</ele><time>2026-04-30T15:17:55.85Z</time></trkpt><trkpt lat="38.8861821" lon="20.8022063"><ele>99.0</ele><time>2026-04-30T15:17:56.851Z</time></trkpt><trkpt lat="38.8859953" lon="20.802058"><ele>99.0</ele><time>2026-04-30T15:17:57.849Z</time></trkpt><trkpt lat="38.885787" lon="20.8019298"><ele>94.0</ele><time>2026-04-30T15:17:58.85Z</time></trkpt><trkpt lat="38.8855746" lon="20.8018175"><ele>89.0</ele><time>2026-04-30T15:17:59.851Z</time></trkpt><trkpt lat="38.8853588" lon="20.8017322"><ele>89.0</ele><time>2026-04-30T15:18:00.851Z</time></trkpt><trkpt lat="38.8851325" lon="20.8016723"><ele>89.0</ele><time>2026-04-30T15:18:01.85Z</time></trkpt><trkpt lat="38.8849037" lon="20.8016285"><ele>84.5</ele><time>2026-04-30T15:18:02.851Z</time></trkpt><trkpt lat="38.8846678" lon="20.8016303"><ele>80.0</ele><time>2026-04-30T15:18:03.851Z</time></trkpt><trkpt lat="38.8844392" lon="20.8016484"><ele>78.5</ele><time>2026-04-30T15:18:04.85Z</time></trkpt><trkpt lat="38.8842086" lon="20.8016957"><ele>77.0</ele><time>2026-04-30T15:18:05.85Z</time></trkpt><trkpt lat="38.8839771" lon="20.8017518"><ele>72.5</ele><time>2026-04-30T15:18:06.849Z</time></trkpt><trkpt lat="38.8837599" lon="20.8018549"><ele>68.0</ele><time>2026-04-30T15:18:07.849Z</time></trkpt><trkpt lat="38.8835473" lon="20.8019816"><ele>68.0</ele><time>2026-04-30T15:18:08.85Z</time></trkpt><trkpt lat="38.8833372" lon="20.8021118"><ele>68.0</ele><time>2026-04-30T15:18:09.851Z</time></trkpt><trkpt lat="38.8831383" lon="20.8022952"><ele>68.0</ele><time>2026-04-30T15:18:10.85Z</time></trkpt><trkpt lat="38.8829506" lon="20.8025022"><ele>68.0</ele><time>2026-04-30T15:18:11.85Z</time></trkpt><trkpt lat="38.8827756" lon="20.8027463"><ele>67.0</ele><time>2026-04-30T15:18:12.849Z</time></trkpt><trkpt lat="38.8826133" lon="20.8029925"><ele>66.0</ele><time>2026-04-30T15:18:13.85Z</time></trkpt><trkpt lat="38.88246" lon="20.8032512"><ele>62.5</ele><time>2026-04-30T15:18:14.848Z</time></trkpt><trkpt lat="38.8823117" lon="20.8035052"><ele>59.0</ele><time>2026-04-30T15:18:15.849Z</time></trkpt><trkpt lat="38.8821499" lon="20.8037685"><ele>59.0</ele><time>2026-04-30T15:18:16.849Z</time></trkpt><trkpt lat="38.8819954" lon="20.8040231"><ele>59.0</ele><time>2026-04-30T15:18:17.849Z</time></trkpt><trkpt lat="38.881838" lon="20.8042651"><ele>54.5</ele><time>2026-04-30T15:18:18.85Z</time></trkpt><trkpt lat="38.881664" lon="20.8045237"><ele>50.0</ele><time>2026-04-30T15:18:19.85Z</time></trkpt><trkpt lat="38.8814951" lon="20.8047586"><ele>50.0</ele><time>2026-04-30T15:18:20.85Z</time></trkpt><trkpt lat="38.8813205" lon="20.804973"><ele>50.0</ele><time>2026-04-30T15:18:21.849Z</time></trkpt><trkpt lat="38.8811401" lon="20.8051807"><ele>50.5</ele><time>2026-04-30T15:18:22.852Z</time></trkpt><trkpt lat="38.8809506" lon="20.8053886"><ele>51.0</ele><time>2026-04-30T15:18:23.849Z</time></trkpt><trkpt lat="38.8807473" lon="20.8055639"><ele>48.5</ele><time>2026-04-30T15:18:24.851Z</time></trkpt><trkpt lat="38.8805297" lon="20.8057319"><ele>46.0</ele><time>2026-04-30T15:18:25.849Z</time></trkpt><trkpt lat="38.8803087" lon="20.8058819"><ele>45.0</ele><time>2026-04-30T15:18:26.848Z</time></trkpt><trkpt lat="38.8800896" lon="20.8060033"><ele>44.0</ele><time>2026-04-30T15:18:27.852Z</time></trkpt><trkpt lat="38.8798664" lon="20.8061157"><ele>44.0</ele><time>2026-04-30T15:18:28.849Z</time></trkpt><trkpt lat="38.8796459" lon="20.8062158"><ele>44.0</ele><time>2026-04-30T15:18:29.849Z</time></trkpt><trkpt lat="38.8794202" lon="20.8063095"><ele>42.0</ele><time>2026-04-30T15:18:30.846Z</time></trkpt><trkpt lat="38.8791986" lon="20.8064139"><ele>40.0</ele><time>2026-04-30T15:18:31.848Z</time></trkpt><trkpt lat="38.8789811" lon="20.8065282"><ele>40.0</ele><time>2026-04-30T15:18:32.851Z</time></trkpt><trkpt lat="38.8787648" lon="20.8066648"><ele>40.0</ele><time>2026-04-30T15:18:33.85Z</time></trkpt><trkpt lat="38.878552" lon="20.8068142"><ele>41.5</ele><time>2026-04-30T15:18:34.85Z</time></trkpt><trkpt lat="38.8783479" lon="20.8069744"><ele>43.0</ele><time>2026-04-30T15:18:35.85Z</time></trkpt><trkpt lat="38.8781502" lon="20.8071477"><ele>43.0</ele><time>2026-04-30T15:18:36.851Z</time></trkpt><trkpt lat="38.8779558" lon="20.8073376"><ele>43.0</ele><time>2026-04-30T15:18:37.85Z</time></trkpt><trkpt lat="38.8777653" lon="20.8075374"><ele>37.0</ele><time>2026-04-30T15:18:38.851Z</time></trkpt><trkpt lat="38.8775922" lon="20.8077542"><ele>31.0</ele><time>2026-04-30T15:18:39.849Z</time></trkpt><trkpt lat="38.8774198" lon="20.8079829"><ele>31.0</ele><time>2026-04-30T15:18:40.852Z</time></trkpt><trkpt lat="38.8772395" lon="20.8082131"><ele>31.0</ele><time>2026-04-30T15:18:41.851Z</time></trkpt><trkpt lat="38.8770548" lon="20.8084425"><ele>30.0</ele><time>2026-04-30T15:18:42.85Z</time></trkpt><trkpt lat="38.876871" lon="20.8086614"><ele>29.0</ele><time>2026-04-30T15:18:43.85Z</time></trkpt><trkpt lat="38.8766942" lon="20.80888"><ele>26.0</ele><time>2026-04-30T15:18:44.85Z</time></trkpt><trkpt lat="38.8765233" lon="20.8091026"><ele>23.0</ele><time>2026-04-30T15:18:45.85Z</time></trkpt><trkpt lat="38.8763605" lon="20.8093498"><ele>21.5</ele><time>2026-04-30T15:18:46.848Z</time></trkpt><trkpt lat="38.8761954" lon="20.8095675"><ele>20.0</ele><time>2026-04-30T15:18:47.85Z</time></trkpt><trkpt lat="38.8760341" lon="20.8097979"><ele>19.5</ele><time>2026-04-30T15:18:48.849Z</time></trkpt><trkpt lat="38.8758729" lon="20.8100194"><ele>19.0</ele><time>2026-04-30T15:18:49.85Z</time></trkpt><trkpt lat="38.8757169" lon="20.8102354"><ele>18.0</ele><time>2026-04-30T15:18:50.851Z</time></trkpt><trkpt lat="38.8755512" lon="20.8104562"><ele>17.0</ele><time>2026-04-30T15:18:51.852Z</time></trkpt><trkpt lat="38.8753902" lon="20.8106651"><ele>17.0</ele><time>2026-04-30T15:18:52.85Z</time></trkpt><trkpt lat="38.875228" lon="20.8108776"><ele>17.0</ele><time>2026-04-30T15:18:53.848Z</time></trkpt><trkpt lat="38.8750637" lon="20.8110846"><ele>16.0</ele><time>2026-04-30T15:18:54.848Z</time></trkpt><trkpt lat="38.8748988" lon="20.8112768"><ele>15.0</ele><time>2026-04-30T15:18:55.848Z</time></trkpt><trkpt lat="38.8747276" lon="20.8114622"><ele>14.0</ele><time>2026-04-30T15:18:56.849Z</time></trkpt><trkpt lat="38.874548" lon="20.811634"><ele>14.0</ele><time>2026-04-30T15:18:57.851Z</time></trkpt><trkpt lat="38.8743647" lon="20.8117965"><ele>14.0</ele><time>2026-04-30T15:18:58.851Z</time></trkpt><trkpt lat="38.8741826" lon="20.8119413"><ele>14.0</ele><time>2026-04-30T15:18:59.85Z</time></trkpt><trkpt lat="38.8740056" lon="20.812071"><ele>13.666666666666668</ele><time>2026-04-30T15:19:00.848Z</time></trkpt><trkpt lat="38.8738335" lon="20.8121872"><ele>13.333333333333332</ele><time>2026-04-30T15:19:01.849Z</time></trkpt><trkpt lat="38.8736661" lon="20.8122916"><ele>13.0</ele><time>2026-04-30T15:19:02.848Z</time></trkpt><trkpt lat="38.8735006" lon="20.8123881"><ele>13.0</ele><time>2026-04-30T15:19:03.85Z</time></trkpt><trkpt lat="38.8733421" lon="20.8124712"><ele>13.0</ele><time>2026-04-30T15:19:04.85Z</time></trkpt><trkpt lat="38.8731885" lon="20.8125419"><ele>13.0</ele><time>2026-04-30T15:19:05.851Z</time></trkpt><trkpt lat="38.8730412" lon="20.8126018"><ele>12.8</ele><time>2026-04-30T15:19:06.849Z</time></trkpt><trkpt lat="38.8729124" lon="20.8126639"><ele>12.600000000000001</ele><time>2026-04-30T15:19:07.85Z</time></trkpt><trkpt lat="38.872802" lon="20.8127233"><ele>12.399999999999999</ele><time>2026-04-30T15:19:08.849Z</time></trkpt><trkpt lat="38.8727111" lon="20.8127659"><ele>12.2</ele><time>2026-04-30T15:19:09.849Z</time></trkpt><trkpt lat="38.872641" lon="20.8127781"><ele>12.0</ele><time>2026-04-30T15:19:10.847Z</time></trkpt><trkpt lat="38.8725235" lon="20.8127451"><ele>11.833333333333334</ele><time>2026-04-30T15:19:12.85Z</time></trkpt><trkpt lat="38.8724522" lon="20.8127248"><ele>11.666666666666666</ele><time>2026-04-30T15:19:13.849Z</time></trkpt><trkpt lat="38.8723793" lon="20.8127138"><ele>11.5</ele><time>2026-04-30T15:19:14.849Z</time></trkpt><trkpt lat="38.8723024" lon="20.8127034"><ele>11.333333333333332</ele><time>2026-04-30T15:19:15.848Z</time></trkpt><trkpt lat="38.8722227" lon="20.812666"><ele>11.166666666666666</ele><time>2026-04-30T15:19:16.849Z</time></trkpt><trkpt lat="38.8721464" lon="20.8125839"><ele>11.0</ele><time>2026-04-30T15:19:17.851Z</time></trkpt><trkpt lat="38.8720695" lon="20.812486"><ele>11.0</ele><time>2026-04-30T15:19:18.848Z</time></trkpt><trkpt lat="38.8720137" lon="20.8123074"><ele>11.0</ele><time>2026-04-30T15:19:19.849Z</time></trkpt><trkpt lat="38.8719392" lon="20.812108"><ele>11.0</ele><time>2026-04-30T15:19:20.85Z</time></trkpt><trkpt lat="38.871849" lon="20.8118791"><ele>9.0</ele><time>2026-04-30T15:19:21.85Z</time></trkpt><trkpt lat="38.8717391" lon="20.8116316"><ele>7.0</ele><time>2026-04-30T15:19:22.849Z</time></trkpt><trkpt lat="38.8716092" lon="20.8113689"><ele>7.0</ele><time>2026-04-30T15:19:23.849Z</time></trkpt><trkpt lat="38.8714521" lon="20.8110955"><ele>7.0</ele><time>2026-04-30T15:19:24.849Z</time></trkpt><trkpt lat="38.8712793" lon="20.8108286"><ele>7.0</ele><time>2026-04-30T15:19:25.849Z</time></trkpt><trkpt lat="38.871094" lon="20.8105694"><ele>7.0</ele><time>2026-04-30T15:19:26.848Z</time></trkpt><trkpt lat="38.8709072" lon="20.8103179"><ele>7.5</ele><time>2026-04-30T15:19:27.85Z</time></trkpt><trkpt lat="38.8706972" lon="20.8100778"><ele>8.0</ele><time>2026-04-30T15:19:28.85Z</time></trkpt><trkpt lat="38.8704785" lon="20.8098528"><ele>8.0</ele><time>2026-04-30T15:19:29.849Z</time></trkpt><trkpt lat="38.8702437" lon="20.8096475"><ele>8.0</ele><time>2026-04-30T15:19:30.848Z</time></trkpt><trkpt lat="38.8700014" lon="20.8094582"><ele>7.5</ele><time>2026-04-30T15:19:31.85Z</time></trkpt><trkpt lat="38.8697414" lon="20.8092838"><ele>7.0</ele><time>2026-04-30T15:19:32.85Z</time></trkpt><trkpt lat="38.8694702" lon="20.809129"><ele>6.5</ele><time>2026-04-30T15:19:33.848Z</time></trkpt><trkpt lat="38.8691988" lon="20.8089972"><ele>6.0</ele><time>2026-04-30T15:19:34.848Z</time></trkpt><trkpt lat="38.8689122" lon="20.808888"><ele>6.0</ele><time>2026-04-30T15:19:35.847Z</time></trkpt><trkpt lat="38.868615" lon="20.8088025"><ele>6.0</ele><time>2026-04-30T15:19:36.847Z</time></trkpt><trkpt lat="38.8683182" lon="20.8087423"><ele>6.0</ele><time>2026-04-30T15:19:37.85Z</time></trkpt><trkpt lat="38.8680146" lon="20.8087037"><ele>6.0</ele><time>2026-04-30T15:19:38.849Z</time></trkpt><trkpt lat="38.8677128" lon="20.8086762"><ele>5.5</ele><time>2026-04-30T15:19:39.848Z</time></trkpt><trkpt lat="38.8674129" lon="20.8086569"><ele>5.0</ele><time>2026-04-30T15:19:40.85Z</time></trkpt><trkpt lat="38.8671204" lon="20.8086374"><ele>5.0</ele><time>2026-04-30T15:19:41.85Z</time></trkpt><trkpt lat="38.8668414" lon="20.8086192"><ele>5.0</ele><time>2026-04-30T15:19:42.849Z</time></trkpt><trkpt lat="38.8665757" lon="20.8085979"><ele>4.5</ele><time>2026-04-30T15:19:43.85Z</time></trkpt><trkpt lat="38.8663171" lon="20.8085757"><ele>4.0</ele><time>2026-04-30T15:19:44.85Z</time></trkpt><trkpt lat="38.8660669" lon="20.8085634"><ele>3.5</ele><time>2026-04-30T15:19:45.851Z</time></trkpt><trkpt lat="38.8658133" lon="20.8085464"><ele>3.0</ele><time>2026-04-30T15:19:46.849Z</time></trkpt><trkpt lat="38.8655719" lon="20.808533"><ele>3.0</ele><time>2026-04-30T15:19:47.85Z</time></trkpt><trkpt lat="38.8653324" lon="20.8085255"><ele>3.0</ele><time>2026-04-30T15:19:48.847Z</time></trkpt><trkpt lat="38.865109" lon="20.8085116"><ele>3.0</ele><time>2026-04-30T15:19:49.85Z</time></trkpt><trkpt lat="38.8648931" lon="20.8085011"><ele>3.0</ele><time>2026-04-30T15:19:50.847Z</time></trkpt><trkpt lat="38.8646762" lon="20.808483"><ele>3.0</ele><time>2026-04-30T15:19:51.85Z</time></trkpt><trkpt lat="38.8644479" lon="20.8084689"><ele>2.0</ele><time>2026-04-30T15:19:52.849Z</time></trkpt><trkpt lat="38.8642044" lon="20.808464"><ele>1.0</ele><time>2026-04-30T15:19:53.848Z</time></trkpt><trkpt lat="38.8639525" lon="20.8084592"><ele>1.0</ele><time>2026-04-30T15:19:54.85Z</time></trkpt><trkpt lat="38.8636966" lon="20.8084286"><ele>1.0</ele><time>2026-04-30T15:19:55.847Z</time></trkpt><trkpt lat="38.8634335" lon="20.8084087"><ele>2.0</ele><time>2026-04-30T15:19:56.849Z</time></trkpt><trkpt lat="38.8631631" lon="20.8083874"><ele>3.0</ele><time>2026-04-30T15:19:57.848Z</time></trkpt><trkpt lat="38.8628975" lon="20.8083619"><ele>3.0</ele><time>2026-04-30T15:19:58.846Z</time></trkpt><trkpt lat="38.8626292" lon="20.8083298"><ele>3.0</ele><time>2026-04-30T15:19:59.849Z</time></trkpt><trkpt lat="38.8623628" lon="20.808278"><ele>2.5</ele><time>2026-04-30T15:20:00.848Z</time></trkpt><trkpt lat="38.8621009" lon="20.8082023"><ele>2.0</ele><time>2026-04-30T15:20:01.848Z</time></trkpt><trkpt lat="38.86185" lon="20.8081004"><ele>1.0</ele><time>2026-04-30T15:20:02.847Z</time></trkpt><trkpt lat="38.8616043" lon="20.8079799"><ele>0.0</ele><time>2026-04-30T15:20:03.85Z</time></trkpt><trkpt lat="38.861364" lon="20.8078435"><ele>0.0</ele><time>2026-04-30T15:20:04.849Z</time></trkpt><trkpt lat="38.8611411" lon="20.8076766"><ele>0.0</ele><time>2026-04-30T15:20:05.848Z</time></trkpt><trkpt lat="38.8609317" lon="20.8074914"><ele>2.5</ele><time>2026-04-30T15:20:06.848Z</time></trkpt><trkpt lat="38.8607261" lon="20.8072894"><ele>5.0</ele><time>2026-04-30T15:20:07.85Z</time></trkpt><trkpt lat="38.860534" lon="20.8070692"><ele>5.0</ele><time>2026-04-30T15:20:08.848Z</time></trkpt><trkpt lat="38.860356" lon="20.8068379"><ele>5.0</ele><time>2026-04-30T15:20:09.847Z</time></trkpt><trkpt lat="38.8601816" lon="20.8065925"><ele>9.0</ele><time>2026-04-30T15:20:10.848Z</time></trkpt><trkpt lat="38.86004" lon="20.8063292"><ele>13.0</ele><time>2026-04-30T15:20:11.849Z</time></trkpt><trkpt lat="38.8599071" lon="20.8060527"><ele>19.0</ele><time>2026-04-30T15:20:12.848Z</time></trkpt><trkpt lat="38.8597892" lon="20.8057528"><ele>25.0</ele><time>2026-04-30T15:20:13.85Z</time></trkpt><trkpt lat="38.8596924" lon="20.8054538"><ele>31.5</ele><time>2026-04-30T15:20:14.846Z</time></trkpt><trkpt lat="38.8596051" lon="20.8051393"><ele>38.0</ele><time>2026-04-30T15:20:15.846Z</time></trkpt><trkpt lat="38.8595245" lon="20.8048163"><ele>38.0</ele><time>2026-04-30T15:20:16.848Z</time></trkpt><trkpt lat="38.85945" lon="20.8044848"><ele>38.0</ele><time>2026-04-30T15:20:17.85Z</time></trkpt><trkpt lat="38.8593714" lon="20.8041477"><ele>41.0</ele><time>2026-04-30T15:20:18.848Z</time></trkpt><trkpt lat="38.8593245" lon="20.8038107"><ele>44.0</ele><time>2026-04-30T15:20:19.847Z</time></trkpt><trkpt lat="38.8592453" lon="20.8034794"><ele>44.0</ele><time>2026-04-30T15:20:20.85Z</time></trkpt><trkpt lat="38.8591727" lon="20.8031479"><ele>44.0</ele><time>2026-04-30T15:20:21.849Z</time></trkpt><trkpt lat="38.8590934" lon="20.8028101"><ele>46.0</ele><time>2026-04-30T15:20:22.846Z</time></trkpt><trkpt lat="38.8590191" lon="20.8024665"><ele>48.0</ele><time>2026-04-30T15:20:23.849Z</time></trkpt><trkpt lat="38.8589415" lon="20.8021213"><ele>45.5</ele><time>2026-04-30T15:20:24.85Z</time></trkpt><trkpt lat="38.8588639" lon="20.8017685"><ele>43.0</ele><time>2026-04-30T15:20:25.849Z</time></trkpt><trkpt lat="38.8587822" lon="20.8014134"><ele>43.0</ele><time>2026-04-30T15:20:26.846Z</time></trkpt><trkpt lat="38.8587033" lon="20.8010582"><ele>43.0</ele><time>2026-04-30T15:20:27.849Z</time></trkpt><trkpt lat="38.8586251" lon="20.8007031"><ele>40.0</ele><time>2026-04-30T15:20:28.85Z</time></trkpt><trkpt lat="38.8585501" lon="20.8003485"><ele>37.0</ele><time>2026-04-30T15:20:29.849Z</time></trkpt><trkpt lat="38.8584726" lon="20.7999926"><ele>34.5</ele><time>2026-04-30T15:20:30.848Z</time></trkpt><trkpt lat="38.8583995" lon="20.7996337"><ele>32.0</ele><time>2026-04-30T15:20:31.851Z</time></trkpt><trkpt lat="38.8583186" lon="20.7992751"><ele>28.5</ele><time>2026-04-30T15:20:32.847Z</time></trkpt><trkpt lat="38.8582397" lon="20.7989197"><ele>25.0</ele><time>2026-04-30T15:20:33.847Z</time></trkpt><trkpt lat="38.8581587" lon="20.7985605"><ele>22.5</ele><time>2026-04-30T15:20:34.848Z</time></trkpt><trkpt lat="38.8580801" lon="20.7982035"><ele>20.0</ele><time>2026-04-30T15:20:35.849Z</time></trkpt><trkpt lat="38.8580027" lon="20.7978516"><ele>19.0</ele><time>2026-04-30T15:20:36.85Z</time></trkpt><trkpt lat="38.8579232" lon="20.7974971"><ele>18.0</ele><time>2026-04-30T15:20:37.849Z</time></trkpt><trkpt lat="38.8578508" lon="20.7971523"><ele>17.0</ele><time>2026-04-30T15:20:38.847Z</time></trkpt><trkpt lat="38.8577875" lon="20.7968125"><ele>16.0</ele><time>2026-04-30T15:20:39.85Z</time></trkpt><trkpt lat="38.8577497" lon="20.7964781"><ele>16.0</ele><time>2026-04-30T15:20:40.848Z</time></trkpt><trkpt lat="38.8577232" lon="20.7961429"><ele>16.0</ele><time>2026-04-30T15:20:41.851Z</time></trkpt><trkpt lat="38.8577144" lon="20.7958055"><ele>15.5</ele><time>2026-04-30T15:20:42.849Z</time></trkpt><trkpt lat="38.8577174" lon="20.7954706"><ele>15.0</ele><time>2026-04-30T15:20:43.848Z</time></trkpt><trkpt lat="38.8577447" lon="20.7951349"><ele>15.0</ele><time>2026-04-30T15:20:44.846Z</time></trkpt><trkpt lat="38.8577834" lon="20.7948029"><ele>15.0</ele><time>2026-04-30T15:20:45.848Z</time></trkpt><trkpt lat="38.8578343" lon="20.7944742"><ele>15.0</ele><time>2026-04-30T15:20:46.847Z</time></trkpt><trkpt lat="38.8579062" lon="20.7941527"><ele>15.0</ele><time>2026-04-30T15:20:47.845Z</time></trkpt><trkpt lat="38.8579938" lon="20.793838"><ele>15.0</ele><time>2026-04-30T15:20:48.849Z</time></trkpt><trkpt lat="38.8580979" lon="20.7935226"><ele>15.0</ele><time>2026-04-30T15:20:49.85Z</time></trkpt><trkpt lat="38.8582237" lon="20.7932145"><ele>14.5</ele><time>2026-04-30T15:20:50.85Z</time></trkpt><trkpt lat="38.858363" lon="20.7929213"><ele>14.0</ele><time>2026-04-30T15:20:51.847Z</time></trkpt><trkpt lat="38.8585216" lon="20.7926415"><ele>12.5</ele><time>2026-04-30T15:20:52.849Z</time></trkpt><trkpt lat="38.8586922" lon="20.7923721"><ele>11.0</ele><time>2026-04-30T15:20:53.848Z</time></trkpt><trkpt lat="38.858878" lon="20.7921219"><ele>11.0</ele><time>2026-04-30T15:20:54.848Z</time></trkpt><trkpt lat="38.8590821" lon="20.7918797"><ele>11.0</ele><time>2026-04-30T15:20:55.848Z</time></trkpt><trkpt lat="38.8592963" lon="20.7916427"><ele>9.5</ele><time>2026-04-30T15:20:56.849Z</time></trkpt><trkpt lat="38.8595096" lon="20.791413"><ele>8.0</ele><time>2026-04-30T15:20:57.849Z</time></trkpt><trkpt lat="38.8597209" lon="20.7911837"><ele>7.0</ele><time>2026-04-30T15:20:58.847Z</time></trkpt><trkpt lat="38.8599354" lon="20.7909567"><ele>6.0</ele><time>2026-04-30T15:20:59.849Z</time></trkpt><trkpt lat="38.8601533" lon="20.7907362"><ele>6.0</ele><time>2026-04-30T15:21:00.849Z</time></trkpt><trkpt lat="38.8603645" lon="20.7905138"><ele>6.0</ele><time>2026-04-30T15:21:01.849Z</time></trkpt><trkpt lat="38.8605727" lon="20.7902977"><ele>4.0</ele><time>2026-04-30T15:21:02.847Z</time></trkpt><trkpt lat="38.8607755" lon="20.7900876"><ele>2.0</ele><time>2026-04-30T15:21:03.849Z</time></trkpt><trkpt lat="38.860973" lon="20.7898834"><ele>2.0</ele><time>2026-04-30T15:21:04.85Z</time></trkpt><trkpt lat="38.8611557" lon="20.7896847"><ele>2.0</ele><time>2026-04-30T15:21:05.85Z</time></trkpt><trkpt lat="38.8613332" lon="20.789498"><ele>4.5</ele><time>2026-04-30T15:21:06.85Z</time></trkpt><trkpt lat="38.861509" lon="20.7893128"><ele>7.0</ele><time>2026-04-30T15:21:07.849Z</time></trkpt><trkpt lat="38.8616816" lon="20.7891329"><ele>5.0</ele><time>2026-04-30T15:21:08.849Z</time></trkpt><trkpt lat="38.8618487" lon="20.7889606"><ele>3.0</ele><time>2026-04-30T15:21:09.851Z</time></trkpt><trkpt lat="38.8620035" lon="20.7887953"><ele>1.0</ele><time>2026-04-30T15:21:10.848Z</time></trkpt><trkpt lat="38.8621612" lon="20.78865"><ele>2.3333333333333335</ele><time>2026-04-30T15:21:11.851Z</time></trkpt><trkpt lat="38.8623035" lon="20.7884759"><ele>3.666666666666667</ele><time>2026-04-30T15:21:12.848Z</time></trkpt><trkpt lat="38.8624332" lon="20.7883068"><ele>5.0</ele><time>2026-04-30T15:21:13.851Z</time></trkpt><trkpt lat="38.8625576" lon="20.7881378"><ele>5.0</ele><time>2026-04-30T15:21:14.849Z</time></trkpt><trkpt lat="38.8626722" lon="20.7879734"><ele>5.0</ele><time>2026-04-30T15:21:15.852Z</time></trkpt><trkpt lat="38.8627757" lon="20.7877974"><ele>5.0</ele><time>2026-04-30T15:21:16.849Z</time></trkpt><trkpt lat="38.8628618" lon="20.787614"><ele>5.0</ele><time>2026-04-30T15:21:17.848Z</time></trkpt><trkpt lat="38.8629447" lon="20.7874164"><ele>5.0</ele><time>2026-04-30T15:21:18.849Z</time></trkpt><trkpt lat="38.863025" lon="20.7872108"><ele>5.0</ele><time>2026-04-30T15:21:19.851Z</time></trkpt><trkpt lat="38.8630985" lon="20.7869893"><ele>6.333333333333334</ele><time>2026-04-30T15:21:20.848Z</time></trkpt><trkpt lat="38.8631636" lon="20.7867604"><ele>7.666666666666667</ele><time>2026-04-30T15:21:21.851Z</time></trkpt><trkpt lat="38.8632193" lon="20.7865273"><ele>9.0</ele><time>2026-04-30T15:21:22.851Z</time></trkpt><trkpt lat="38.8632724" lon="20.7862455"><ele>10.5</ele><time>2026-04-30T15:21:23.85Z</time></trkpt><trkpt lat="38.8633002" lon="20.7859752"><ele>12.0</ele><time>2026-04-30T15:21:24.849Z</time></trkpt><trkpt lat="38.8633272" lon="20.785671"><ele>12.0</ele><time>2026-04-30T15:21:25.848Z</time></trkpt><trkpt lat="38.8633493" lon="20.7853405"><ele>12.0</ele><time>2026-04-30T15:21:26.847Z</time></trkpt><trkpt lat="38.8633738" lon="20.7849659"><ele>12.0</ele><time>2026-04-30T15:21:27.849Z</time></trkpt><trkpt lat="38.8633987" lon="20.7845995"><ele>12.0</ele><time>2026-04-30T15:21:28.849Z</time></trkpt><trkpt lat="38.8634255" lon="20.7842231"><ele>12.0</ele><time>2026-04-30T15:21:29.848Z</time></trkpt><trkpt lat="38.8634471" lon="20.783861"><ele>12.0</ele><time>2026-04-30T15:21:30.848Z</time></trkpt><trkpt lat="38.8634684" lon="20.7835163"><ele>6.5</ele><time>2026-04-30T15:21:31.849Z</time></trkpt><trkpt lat="38.8634878" lon="20.7831887"><ele>1.0</ele><time>2026-04-30T15:21:32.848Z</time></trkpt><trkpt lat="38.8635056" lon="20.7828826"><ele>1.6666666666666665</ele><time>2026-04-30T15:21:33.849Z</time></trkpt><trkpt lat="38.8635261" lon="20.7825921"><ele>2.3333333333333335</ele><time>2026-04-30T15:21:34.851Z</time></trkpt><trkpt lat="38.8635393" lon="20.7823088"><ele>3.0</ele><time>2026-04-30T15:21:35.85Z</time></trkpt><trkpt lat="38.8635441" lon="20.7820371"><ele>3.0</ele><time>2026-04-30T15:21:36.849Z</time></trkpt><trkpt lat="38.8635495" lon="20.7817772"><ele>3.0</ele><time>2026-04-30T15:21:37.849Z</time></trkpt><trkpt lat="38.8635499" lon="20.781523"><ele>3.0</ele><time>2026-04-30T15:21:38.847Z</time></trkpt><trkpt lat="38.8635451" lon="20.7812769"><ele>3.0</ele><time>2026-04-30T15:21:39.848Z</time></trkpt><trkpt lat="38.8635417" lon="20.7810339"><ele>3.0</ele><time>2026-04-30T15:21:40.85Z</time></trkpt><trkpt lat="38.8635321" lon="20.7807817"><ele>3.0</ele><time>2026-04-30T15:21:41.848Z</time></trkpt><trkpt lat="38.8635246" lon="20.7805247"><ele>4.0</ele><time>2026-04-30T15:21:42.848Z</time></trkpt><trkpt lat="38.8635193" lon="20.7802533"><ele>5.0</ele><time>2026-04-30T15:21:43.848Z</time></trkpt><trkpt lat="38.8635099" lon="20.7799855"><ele>6.0</ele><time>2026-04-30T15:21:44.85Z</time></trkpt><trkpt lat="38.8635037" lon="20.7797235"><ele>5.666666666666667</ele><time>2026-04-30T15:21:45.849Z</time></trkpt><trkpt lat="38.8635083" lon="20.7794645"><ele>5.333333333333334</ele><time>2026-04-30T15:21:46.847Z</time></trkpt><trkpt lat="38.8635214" lon="20.7792067"><ele>5.0</ele><time>2026-04-30T15:21:47.846Z</time></trkpt><trkpt lat="38.8635508" lon="20.7789539"><ele>5.0</ele><time>2026-04-30T15:21:48.848Z</time></trkpt><trkpt lat="38.863595" lon="20.7786978"><ele>5.0</ele><time>2026-04-30T15:21:49.85Z</time></trkpt><trkpt lat="38.8636524" lon="20.77844"><ele>5.0</ele><time>2026-04-30T15:21:50.85Z</time></trkpt><trkpt lat="38.8637379" lon="20.7781958"><ele>4.666666666666667</ele><time>2026-04-30T15:21:51.847Z</time></trkpt><trkpt lat="38.8638174" lon="20.7779487"><ele>4.333333333333333</ele><time>2026-04-30T15:21:52.85Z</time></trkpt><trkpt lat="38.8639074" lon="20.777714"><ele>4.0</ele><time>2026-04-30T15:21:53.85Z</time></trkpt><trkpt lat="38.863996" lon="20.7774657"><ele>5.666666666666666</ele><time>2026-04-30T15:21:54.849Z</time></trkpt><trkpt lat="38.8640798" lon="20.7772132"><ele>7.333333333333333</ele><time>2026-04-30T15:21:55.849Z</time></trkpt><trkpt lat="38.864155" lon="20.7769423"><ele>9.0</ele><time>2026-04-30T15:21:56.849Z</time></trkpt><trkpt lat="38.8642217" lon="20.7766655"><ele>11.5</ele><time>2026-04-30T15:21:57.849Z</time></trkpt><trkpt lat="38.8642762" lon="20.7763703"><ele>14.0</ele><time>2026-04-30T15:21:58.848Z</time></trkpt><trkpt lat="38.8643094" lon="20.77607"><ele>8.5</ele><time>2026-04-30T15:21:59.847Z</time></trkpt><trkpt lat="38.8643235" lon="20.7757662"><ele>3.0</ele><time>2026-04-30T15:22:00.846Z</time></trkpt><trkpt lat="38.8643162" lon="20.7754616"><ele>1.5</ele><time>2026-04-30T15:22:01.849Z</time></trkpt><trkpt lat="38.8642866" lon="20.7751631"><ele>0.0</ele><time>2026-04-30T15:22:02.85Z</time></trkpt><trkpt lat="38.8642402" lon="20.7748597"><ele>6.0</ele><time>2026-04-30T15:22:03.85Z</time></trkpt><trkpt lat="38.8641774" lon="20.7745612"><ele>12.0</ele><time>2026-04-30T15:22:04.85Z</time></trkpt><trkpt lat="38.8641102" lon="20.7742673"><ele>12.0</ele><time>2026-04-30T15:22:05.848Z</time></trkpt><trkpt lat="38.8640434" lon="20.7739817"><ele>12.0</ele><time>2026-04-30T15:22:06.848Z</time></trkpt><trkpt lat="38.8639825" lon="20.7737015"><ele>10.0</ele><time>2026-04-30T15:22:07.85Z</time></trkpt><trkpt lat="38.8639381" lon="20.7734181"><ele>8.0</ele><time>2026-04-30T15:22:08.849Z</time></trkpt><trkpt lat="38.8639116" lon="20.7731225"><ele>8.0</ele><time>2026-04-30T15:22:09.851Z</time></trkpt><trkpt lat="38.863904" lon="20.7728255"><ele>8.0</ele><time>2026-04-30T15:22:10.848Z</time></trkpt><trkpt lat="38.863906" lon="20.7725283"><ele>7.0</ele><time>2026-04-30T15:22:11.849Z</time></trkpt><trkpt lat="38.8639204" lon="20.7722362"><ele>6.0</ele><time>2026-04-30T15:22:12.847Z</time></trkpt><trkpt lat="38.8639331" lon="20.7719471"><ele>7.5</ele><time>2026-04-30T15:22:13.849Z</time></trkpt><trkpt lat="38.8639387" lon="20.7716534"><ele>9.0</ele><time>2026-04-30T15:22:14.847Z</time></trkpt><trkpt lat="38.8639221" lon="20.7713538"><ele>9.0</ele><time>2026-04-30T15:22:15.849Z</time></trkpt><trkpt lat="38.8638825" lon="20.7710538"><ele>9.0</ele><time>2026-04-30T15:22:16.851Z</time></trkpt><trkpt lat="38.8638358" lon="20.7707572"><ele>8.0</ele><time>2026-04-30T15:22:17.849Z</time></trkpt><trkpt lat="38.8637721" lon="20.7704647"><ele>7.0</ele><time>2026-04-30T15:22:18.85Z</time></trkpt><trkpt lat="38.8637099" lon="20.7701714"><ele>4.0</ele><time>2026-04-30T15:22:19.849Z</time></trkpt><trkpt lat="38.86364" lon="20.7698872"><ele>1.0</ele><time>2026-04-30T15:22:20.848Z</time></trkpt><trkpt lat="38.8635811" lon="20.7696017"><ele>0.5</ele><time>2026-04-30T15:22:21.847Z</time></trkpt><trkpt lat="38.8635353" lon="20.7693044"><ele>0.0</ele><time>2026-04-30T15:22:22.847Z</time></trkpt><trkpt lat="38.8635068" lon="20.7689943"><ele>0.0</ele><time>2026-04-30T15:22:23.849Z</time></trkpt><trkpt lat="38.8634887" lon="20.768679"><ele>0.0</ele><time>2026-04-30T15:22:24.85Z</time></trkpt><trkpt lat="38.8634824" lon="20.7683654"><ele>0.0</ele><time>2026-04-30T15:22:25.85Z</time></trkpt><trkpt lat="38.8634758" lon="20.7680525"><ele>0.0</ele><time>2026-04-30T15:22:26.849Z</time></trkpt><trkpt lat="38.8634647" lon="20.767743"><ele>8.5</ele><time>2026-04-30T15:22:27.847Z</time></trkpt><trkpt lat="38.8634426" lon="20.7674346"><ele>17.0</ele><time>2026-04-30T15:22:28.849Z</time></trkpt><trkpt lat="38.8634107" lon="20.7671272"><ele>15.5</ele><time>2026-04-30T15:22:29.85Z</time></trkpt><trkpt lat="38.8633574" lon="20.7668281"><ele>14.0</ele><time>2026-04-30T15:22:30.848Z</time></trkpt><trkpt lat="38.8632879" lon="20.766529"><ele>14.0</ele><time>2026-04-30T15:22:31.846Z</time></trkpt><trkpt lat="38.8631974" lon="20.7662401"><ele>14.0</ele><time>2026-04-30T15:22:32.849Z</time></trkpt><trkpt lat="38.8630973" lon="20.7659496"><ele>10.5</ele><time>2026-04-30T15:22:33.847Z</time></trkpt><trkpt lat="38.8629919" lon="20.7656712"><ele>7.0</ele><time>2026-04-30T15:22:34.85Z</time></trkpt><trkpt lat="38.8628887" lon="20.7653976"><ele>4.5</ele><time>2026-04-30T15:22:35.85Z</time></trkpt><trkpt lat="38.862789" lon="20.7651224"><ele>2.0</ele><time>2026-04-30T15:22:36.848Z</time></trkpt><trkpt lat="38.8627004" lon="20.7648529"><ele>2.0</ele><time>2026-04-30T15:22:37.849Z</time></trkpt><trkpt lat="38.8626342" lon="20.7645772"><ele>2.0</ele><time>2026-04-30T15:22:38.848Z</time></trkpt><trkpt lat="38.8625883" lon="20.7642927"><ele>7.0</ele><time>2026-04-30T15:22:39.851Z</time></trkpt><trkpt lat="38.862547" lon="20.7640034"><ele>12.0</ele><time>2026-04-30T15:22:40.849Z</time></trkpt><trkpt lat="38.8625099" lon="20.7637067"><ele>11.5</ele><time>2026-04-30T15:22:41.849Z</time></trkpt><trkpt lat="38.8624726" lon="20.7634105"><ele>11.0</ele><time>2026-04-30T15:22:42.849Z</time></trkpt><trkpt lat="38.8624321" lon="20.763109"><ele>11.0</ele><time>2026-04-30T15:22:43.849Z</time></trkpt><trkpt lat="38.8623807" lon="20.7628115"><ele>11.0</ele><time>2026-04-30T15:22:44.848Z</time></trkpt><trkpt lat="38.8623151" lon="20.7625077"><ele>9.5</ele><time>2026-04-30T15:22:45.848Z</time></trkpt><trkpt lat="38.8622375" lon="20.7622011"><ele>8.0</ele><time>2026-04-30T15:22:46.847Z</time></trkpt><trkpt lat="38.8621432" lon="20.7618934"><ele>5.0</ele><time>2026-04-30T15:22:47.848Z</time></trkpt><trkpt lat="38.8620337" lon="20.7615835"><ele>2.0</ele><time>2026-04-30T15:22:48.851Z</time></trkpt><trkpt lat="38.8619185" lon="20.7612745"><ele>1.0</ele><time>2026-04-30T15:22:49.848Z</time></trkpt><trkpt lat="38.8617982" lon="20.7609637"><ele>0.0</ele><time>2026-04-30T15:22:50.85Z</time></trkpt><trkpt lat="38.8616822" lon="20.7606551"><ele>3.5</ele><time>2026-04-30T15:22:51.851Z</time></trkpt><trkpt lat="38.8615691" lon="20.7603464"><ele>7.0</ele><time>2026-04-30T15:22:52.846Z</time></trkpt><trkpt lat="38.8614562" lon="20.7600383"><ele>7.0</ele><time>2026-04-30T15:22:53.847Z</time></trkpt><trkpt lat="38.861347" lon="20.7597271"><ele>7.0</ele><time>2026-04-30T15:22:54.845Z</time></trkpt><trkpt lat="38.8612446" lon="20.7594177"><ele>4.0</ele><time>2026-04-30T15:22:55.847Z</time></trkpt><trkpt lat="38.8611503" lon="20.7591029"><ele>1.0</ele><time>2026-04-30T15:22:56.846Z</time></trkpt><trkpt lat="38.8610703" lon="20.7587917"><ele>0.5</ele><time>2026-04-30T15:22:57.85Z</time></trkpt><trkpt lat="38.8609991" lon="20.7584735"><ele>0.0</ele><time>2026-04-30T15:22:58.849Z</time></trkpt><trkpt lat="38.8609394" lon="20.7581523"><ele>4.5</ele><time>2026-04-30T15:22:59.846Z</time></trkpt><trkpt lat="38.8608854" lon="20.7578303"><ele>9.0</ele><time>2026-04-30T15:23:00.846Z</time></trkpt><trkpt lat="38.8608244" lon="20.7575058"><ele>9.0</ele><time>2026-04-30T15:23:01.849Z</time></trkpt><trkpt lat="38.8607653" lon="20.7571899"><ele>9.0</ele><time>2026-04-30T15:23:02.849Z</time></trkpt><trkpt lat="38.8606983" lon="20.7568799"><ele>7.0</ele><time>2026-04-30T15:23:03.85Z</time></trkpt><trkpt lat="38.8606185" lon="20.756576"><ele>5.0</ele><time>2026-04-30T15:23:04.848Z</time></trkpt><trkpt lat="38.8605242" lon="20.7562824"><ele>3.0</ele><time>2026-04-30T15:23:05.851Z</time></trkpt><trkpt lat="38.8604061" lon="20.7559809"><ele>1.0</ele><time>2026-04-30T15:23:06.849Z</time></trkpt><trkpt lat="38.8602633" lon="20.7556855"><ele>4.0</ele><time>2026-04-30T15:23:07.85Z</time></trkpt><trkpt lat="38.8601025" lon="20.755389"><ele>7.0</ele><time>2026-04-30T15:23:08.848Z</time></trkpt><trkpt lat="38.8599326" lon="20.7550937"><ele>7.0</ele><time>2026-04-30T15:23:09.85Z</time></trkpt><trkpt lat="38.8597445" lon="20.7548043"><ele>7.0</ele><time>2026-04-30T15:23:10.846Z</time></trkpt><trkpt lat="38.8595594" lon="20.7545123"><ele>3.5</ele><time>2026-04-30T15:23:11.85Z</time></trkpt><trkpt lat="38.8593818" lon="20.7542189"><ele>0.0</ele><time>2026-04-30T15:23:12.847Z</time></trkpt><trkpt lat="38.859202" lon="20.7539249"><ele>2.5</ele><time>2026-04-30T15:23:13.849Z</time></trkpt><trkpt lat="38.8590234" lon="20.7536331"><ele>5.0</ele><time>2026-04-30T15:23:14.848Z</time></trkpt><trkpt lat="38.8588496" lon="20.7533476"><ele>5.0</ele><time>2026-04-30T15:23:15.85Z</time></trkpt><trkpt lat="38.8586733" lon="20.7530651"><ele>5.0</ele><time>2026-04-30T15:23:16.849Z</time></trkpt><trkpt lat="38.8584954" lon="20.7527834"><ele>8.5</ele><time>2026-04-30T15:23:17.851Z</time></trkpt><trkpt lat="38.8583212" lon="20.7525051"><ele>12.0</ele><time>2026-04-30T15:23:18.848Z</time></trkpt><trkpt lat="38.8581525" lon="20.7522376"><ele>12.0</ele><time>2026-04-30T15:23:19.848Z</time></trkpt><trkpt lat="38.8579786" lon="20.7519775"><ele>12.0</ele><time>2026-04-30T15:23:20.849Z</time></trkpt><trkpt lat="38.8577876" lon="20.7517375"><ele>18.5</ele><time>2026-04-30T15:23:21.85Z</time></trkpt><trkpt lat="38.8576103" lon="20.7515038"><ele>25.0</ele><time>2026-04-30T15:23:22.848Z</time></trkpt><trkpt lat="38.8574302" lon="20.7512765"><ele>25.0</ele><time>2026-04-30T15:23:23.848Z</time></trkpt><trkpt lat="38.8572565" lon="20.751069"><ele>25.0</ele><time>2026-04-30T15:23:24.85Z</time></trkpt><trkpt lat="38.8570805" lon="20.7508575"><ele>28.0</ele><time>2026-04-30T15:23:25.848Z</time></trkpt><trkpt lat="38.8568984" lon="20.7506532"><ele>31.0</ele><time>2026-04-30T15:23:26.848Z</time></trkpt><trkpt lat="38.8567266" lon="20.7504404"><ele>31.0</ele><time>2026-04-30T15:23:27.849Z</time></trkpt><trkpt lat="38.8565493" lon="20.7502266"><ele>31.0</ele><time>2026-04-30T15:23:28.85Z</time></trkpt><trkpt lat="38.8563646" lon="20.7500147"><ele>20.0</ele><time>2026-04-30T15:23:29.849Z</time></trkpt><trkpt lat="38.8561749" lon="20.7497984"><ele>9.0</ele><time>2026-04-30T15:23:30.847Z</time></trkpt><trkpt lat="38.8559885" lon="20.7495879"><ele>7.5</ele><time>2026-04-30T15:23:31.849Z</time></trkpt><trkpt lat="38.8558114" lon="20.7493777"><ele>6.0</ele><time>2026-04-30T15:23:32.847Z</time></trkpt><trkpt lat="38.8556238" lon="20.7491693"><ele>6.0</ele><time>2026-04-30T15:23:33.849Z</time></trkpt><trkpt lat="38.8554218" lon="20.748966"><ele>6.0</ele><time>2026-04-30T15:23:34.847Z</time></trkpt><trkpt lat="38.8552064" lon="20.7487851"><ele>4.5</ele><time>2026-04-30T15:23:35.847Z</time></trkpt><trkpt lat="38.8549697" lon="20.7486216"><ele>3.0</ele><time>2026-04-30T15:23:36.849Z</time></trkpt><trkpt lat="38.8547137" lon="20.7484707"><ele>3.0</ele><time>2026-04-30T15:23:37.851Z</time></trkpt><trkpt lat="38.8544466" lon="20.7483327"><ele>3.0</ele><time>2026-04-30T15:23:38.849Z</time></trkpt><trkpt lat="38.8541758" lon="20.7482003"><ele>8.5</ele><time>2026-04-30T15:23:39.849Z</time></trkpt><trkpt lat="38.8539151" lon="20.7480698"><ele>14.0</ele><time>2026-04-30T15:23:40.848Z</time></trkpt><trkpt lat="38.853659" lon="20.7479327"><ele>9.5</ele><time>2026-04-30T15:23:41.849Z</time></trkpt><trkpt lat="38.8534226" lon="20.7477756"><ele>5.0</ele><time>2026-04-30T15:23:42.848Z</time></trkpt><trkpt lat="38.8531914" lon="20.7475937"><ele>5.0</ele><time>2026-04-30T15:23:43.85Z</time></trkpt><trkpt lat="38.852975" lon="20.7473918"><ele>5.0</ele><time>2026-04-30T15:23:44.849Z</time></trkpt><trkpt lat="38.8527642" lon="20.7471751"><ele>5.0</ele><time>2026-04-30T15:23:45.85Z</time></trkpt><trkpt lat="38.8525576" lon="20.7469287"><ele>5.0</ele><time>2026-04-30T15:23:46.851Z</time></trkpt><trkpt lat="38.8523483" lon="20.7466749"><ele>5.0</ele><time>2026-04-30T15:23:47.85Z</time></trkpt><trkpt lat="38.8521456" lon="20.7464143"><ele>5.0</ele><time>2026-04-30T15:23:48.849Z</time></trkpt><trkpt lat="38.8519453" lon="20.7461564"><ele>9.0</ele><time>2026-04-30T15:23:49.85Z</time></trkpt><trkpt lat="38.8517517" lon="20.7459024"><ele>13.0</ele><time>2026-04-30T15:23:50.849Z</time></trkpt><trkpt lat="38.8515696" lon="20.7456486"><ele>13.0</ele><time>2026-04-30T15:23:51.849Z</time></trkpt><trkpt lat="38.8513985" lon="20.745393"><ele>13.0</ele><time>2026-04-30T15:23:52.848Z</time></trkpt><trkpt lat="38.8512333" lon="20.7451299"><ele>17.0</ele><time>2026-04-30T15:23:53.846Z</time></trkpt><trkpt lat="38.8510788" lon="20.7448628"><ele>21.0</ele><time>2026-04-30T15:23:54.846Z</time></trkpt><trkpt lat="38.8509327" lon="20.7445866"><ele>11.5</ele><time>2026-04-30T15:23:55.847Z</time></trkpt><trkpt lat="38.8507947" lon="20.7443012"><ele>2.0</ele><time>2026-04-30T15:23:56.848Z</time></trkpt><trkpt lat="38.8506618" lon="20.7440244"><ele>2.0</ele><time>2026-04-30T15:23:57.849Z</time></trkpt><trkpt lat="38.8505336" lon="20.7437426"><ele>2.0</ele><time>2026-04-30T15:23:58.847Z</time></trkpt><trkpt lat="38.8504057" lon="20.7434697"><ele>1.0</ele><time>2026-04-30T15:23:59.85Z</time></trkpt><trkpt lat="38.8502814" lon="20.7432013"><ele>0.0</ele><time>2026-04-30T15:24:00.848Z</time></trkpt><trkpt lat="38.8501591" lon="20.7429333"><ele>-0.5</ele><time>2026-04-30T15:24:01.849Z</time></trkpt><trkpt lat="38.8500426" lon="20.7426674"><ele>-1.0</ele><time>2026-04-30T15:24:02.849Z</time></trkpt><trkpt lat="38.8499276" lon="20.7424038"><ele>-1.0</ele><time>2026-04-30T15:24:03.847Z</time></trkpt><trkpt lat="38.8498124" lon="20.7421482"><ele>-1.0</ele><time>2026-04-30T15:24:04.85Z</time></trkpt><trkpt lat="38.8496999" lon="20.741889"><ele>-1.0</ele><time>2026-04-30T15:24:05.85Z</time></trkpt><trkpt lat="38.8495933" lon="20.7416311"><ele>-1.0</ele><time>2026-04-30T15:24:06.848Z</time></trkpt><trkpt lat="38.8494774" lon="20.7413787"><ele>-1.0</ele><time>2026-04-30T15:24:07.851Z</time></trkpt><trkpt lat="38.8493666" lon="20.7411305"><ele>-1.0</ele><time>2026-04-30T15:24:08.849Z</time></trkpt><trkpt lat="38.8492544" lon="20.7408802"><ele>-1.0</ele><time>2026-04-30T15:24:09.847Z</time></trkpt><trkpt lat="38.8491443" lon="20.7406305"><ele>-0.3333333333333333</ele><time>2026-04-30T15:24:10.848Z</time></trkpt><trkpt lat="38.8490337" lon="20.7403792"><ele>0.3333333333333333</ele><time>2026-04-30T15:24:11.848Z</time></trkpt><trkpt lat="38.8489225" lon="20.7401339"><ele>1.0</ele><time>2026-04-30T15:24:12.848Z</time></trkpt><trkpt lat="38.8488133" lon="20.7398905"><ele>0.0</ele><time>2026-04-30T15:24:13.848Z</time></trkpt><trkpt lat="38.8487003" lon="20.7396458"><ele>-1.0</ele><time>2026-04-30T15:24:14.848Z</time></trkpt><trkpt lat="38.8485993" lon="20.739401"><ele>-2.0</ele><time>2026-04-30T15:24:15.85Z</time></trkpt><trkpt lat="38.8484952" lon="20.7391572"><ele>-1.3333333333333333</ele><time>2026-04-30T15:24:16.849Z</time></trkpt><trkpt lat="38.848389" lon="20.7389154"><ele>-0.6666666666666666</ele><time>2026-04-30T15:24:17.848Z</time></trkpt><trkpt lat="38.8482812" lon="20.7386765"><ele>0.0</ele><time>2026-04-30T15:24:18.852Z</time></trkpt><trkpt lat="38.8481727" lon="20.7384397"><ele>0.0</ele><time>2026-04-30T15:24:19.849Z</time></trkpt><trkpt lat="38.8480565" lon="20.7382028"><ele>0.0</ele><time>2026-04-30T15:24:20.849Z</time></trkpt><trkpt lat="38.8479342" lon="20.7379509"><ele>0.0</ele><time>2026-04-30T15:24:21.848Z</time></trkpt><trkpt lat="38.8478154" lon="20.7376989"><ele>0.0</ele><time>2026-04-30T15:24:22.849Z</time></trkpt><trkpt lat="38.8476903" lon="20.7374399"><ele>0.0</ele><time>2026-04-30T15:24:23.85Z</time></trkpt><trkpt lat="38.8475689" lon="20.7371813"><ele>0.0</ele><time>2026-04-30T15:24:24.851Z</time></trkpt><trkpt lat="38.8474489" lon="20.7369173"><ele>0.0</ele><time>2026-04-30T15:24:25.85Z</time></trkpt><trkpt lat="38.847336" lon="20.7366528"><ele>0.0</ele><time>2026-04-30T15:24:26.848Z</time></trkpt><trkpt lat="38.8472273" lon="20.7364062"><ele>0.0</ele><time>2026-04-30T15:24:27.847Z</time></trkpt><trkpt lat="38.8471175" lon="20.7361689"><ele>0.0</ele><time>2026-04-30T15:24:28.85Z</time></trkpt><trkpt lat="38.847012" lon="20.7359329"><ele>0.3333333333333333</ele><time>2026-04-30T15:24:29.848Z</time></trkpt><trkpt lat="38.8469121" lon="20.7356935"><ele>0.6666666666666666</ele><time>2026-04-30T15:24:30.848Z</time></trkpt><trkpt lat="38.846819" lon="20.7354557"><ele>1.0</ele><time>2026-04-30T15:24:31.85Z</time></trkpt><trkpt lat="38.8467244" lon="20.7352166"><ele>1.0</ele><time>2026-04-30T15:24:32.849Z</time></trkpt><trkpt lat="38.8466282" lon="20.7349718"><ele>1.0</ele><time>2026-04-30T15:24:33.849Z</time></trkpt><trkpt lat="38.8465344" lon="20.7347193"><ele>1.0</ele><time>2026-04-30T15:24:34.851Z</time></trkpt><trkpt lat="38.8464403" lon="20.7344618"><ele>1.0</ele><time>2026-04-30T15:24:35.849Z</time></trkpt><trkpt lat="38.8463507" lon="20.734201"><ele>1.0</ele><time>2026-04-30T15:24:36.849Z</time></trkpt><trkpt lat="38.8462557" lon="20.7339369"><ele>1.0</ele><time>2026-04-30T15:24:37.849Z</time></trkpt><trkpt lat="38.8461681" lon="20.7336659"><ele>0.5</ele><time>2026-04-30T15:24:38.848Z</time></trkpt><trkpt lat="38.8460795" lon="20.73339"><ele>0.0</ele><time>2026-04-30T15:24:39.848Z</time></trkpt><trkpt lat="38.8459899" lon="20.7331042"><ele>0.0</ele><time>2026-04-30T15:24:40.851Z</time></trkpt><trkpt lat="38.8459025" lon="20.7328192"><ele>0.0</ele><time>2026-04-30T15:24:41.85Z</time></trkpt><trkpt lat="38.8458182" lon="20.7325309"><ele>0.0</ele><time>2026-04-30T15:24:42.851Z</time></trkpt><trkpt lat="38.8457412" lon="20.7322392"><ele>0.0</ele><time>2026-04-30T15:24:43.85Z</time></trkpt><trkpt lat="38.8456661" lon="20.731945"><ele>0.0</ele><time>2026-04-30T15:24:44.849Z</time></trkpt><trkpt lat="38.8455885" lon="20.7316455"><ele>0.0</ele><time>2026-04-30T15:24:45.849Z</time></trkpt><trkpt lat="38.8455129" lon="20.7313444"><ele>0.0</ele><time>2026-04-30T15:24:46.846Z</time></trkpt><trkpt lat="38.8454373" lon="20.7310331"><ele>0.0</ele><time>2026-04-30T15:24:47.848Z</time></trkpt><trkpt lat="38.8453554" lon="20.7307132"><ele>0.0</ele><time>2026-04-30T15:24:48.85Z</time></trkpt><trkpt lat="38.845273" lon="20.7303903"><ele>0.0</ele><time>2026-04-30T15:24:49.85Z</time></trkpt><trkpt lat="38.8451927" lon="20.7300718"><ele>0.0</ele><time>2026-04-30T15:24:50.849Z</time></trkpt><trkpt lat="38.8451145" lon="20.7297514"><ele>0.0</ele><time>2026-04-30T15:24:51.849Z</time></trkpt><trkpt lat="38.8450387" lon="20.7294384"><ele>-0.5</ele><time>2026-04-30T15:24:52.85Z</time></trkpt><trkpt lat="38.8449583" lon="20.7291217"><ele>-1.0</ele><time>2026-04-30T15:24:53.849Z</time></trkpt><trkpt lat="38.8448751" lon="20.7288067"><ele>-2.5</ele><time>2026-04-30T15:24:54.847Z</time></trkpt><trkpt lat="38.8447965" lon="20.7284956"><ele>-4.0</ele><time>2026-04-30T15:24:55.848Z</time></trkpt><trkpt lat="38.8447241" lon="20.7281944"><ele>-4.0</ele><time>2026-04-30T15:24:56.847Z</time></trkpt><trkpt lat="38.8446515" lon="20.7279011"><ele>-4.0</ele><time>2026-04-30T15:24:57.851Z</time></trkpt><trkpt lat="38.8445809" lon="20.7276149"><ele>-2.5</ele><time>2026-04-30T15:24:58.85Z</time></trkpt><trkpt lat="38.8445097" lon="20.7273317"><ele>-1.0</ele><time>2026-04-30T15:24:59.85Z</time></trkpt><trkpt lat="38.8444419" lon="20.727055"><ele>-1.0</ele><time>2026-04-30T15:25:00.849Z</time></trkpt><trkpt lat="38.8443685" lon="20.7267728"><ele>-1.0</ele><time>2026-04-30T15:25:01.848Z</time></trkpt><trkpt lat="38.8442961" lon="20.7264912"><ele>-0.5</ele><time>2026-04-30T15:25:02.849Z</time></trkpt><trkpt lat="38.8442251" lon="20.7262114"><ele>0.0</ele><time>2026-04-30T15:25:03.849Z</time></trkpt><trkpt lat="38.8441563" lon="20.7259305"><ele>0.5</ele><time>2026-04-30T15:25:04.849Z</time></trkpt><trkpt lat="38.8440861" lon="20.725649"><ele>1.0</ele><time>2026-04-30T15:25:05.849Z</time></trkpt><trkpt lat="38.8440103" lon="20.7253649"><ele>1.0</ele><time>2026-04-30T15:25:06.85Z</time></trkpt><trkpt lat="38.8439413" lon="20.7250729"><ele>1.0</ele><time>2026-04-30T15:25:07.849Z</time></trkpt><trkpt lat="38.8438722" lon="20.7247943"><ele>1.0</ele><time>2026-04-30T15:25:08.849Z</time></trkpt><trkpt lat="38.8438003" lon="20.72452"><ele>1.0</ele><time>2026-04-30T15:25:09.847Z</time></trkpt><trkpt lat="38.8437207" lon="20.7242548"><ele>1.0</ele><time>2026-04-30T15:25:10.847Z</time></trkpt><trkpt lat="38.8436438" lon="20.7239924"><ele>1.0</ele><time>2026-04-30T15:25:11.848Z</time></trkpt><trkpt lat="38.8435827" lon="20.7237268"><ele>1.0</ele><time>2026-04-30T15:25:12.849Z</time></trkpt><trkpt lat="38.8435226" lon="20.7234784"><ele>1.0</ele><time>2026-04-30T15:25:13.849Z</time></trkpt><trkpt lat="38.8434616" lon="20.7232355"><ele>2.0</ele><time>2026-04-30T15:25:14.848Z</time></trkpt><trkpt lat="38.8434062" lon="20.7230067"><ele>3.0</ele><time>2026-04-30T15:25:15.848Z</time></trkpt><trkpt lat="38.843351" lon="20.722792"><ele>4.0</ele><time>2026-04-30T15:25:16.849Z</time></trkpt><trkpt lat="38.8433072" lon="20.7225953"><ele>4.0</ele><time>2026-04-30T15:25:17.85Z</time></trkpt><trkpt lat="38.8432552" lon="20.7224057"><ele>4.0</ele><time>2026-04-30T15:25:18.848Z</time></trkpt><trkpt lat="38.8432042" lon="20.7222224"><ele>4.0</ele><time>2026-04-30T15:25:19.849Z</time></trkpt><trkpt lat="38.8431582" lon="20.7220467"><ele>3.75</ele><time>2026-04-30T15:25:20.849Z</time></trkpt><trkpt lat="38.843112" lon="20.7218815"><ele>3.5</ele><time>2026-04-30T15:25:21.849Z</time></trkpt><trkpt lat="38.8430715" lon="20.7217176"><ele>3.25</ele><time>2026-04-30T15:25:22.85Z</time></trkpt><trkpt lat="38.8430446" lon="20.7215472"><ele>3.0</ele><time>2026-04-30T15:25:23.849Z</time></trkpt><trkpt lat="38.8430301" lon="20.7213832"><ele>3.0</ele><time>2026-04-30T15:25:24.849Z</time></trkpt><trkpt lat="38.8430327" lon="20.7212184"><ele>3.0</ele><time>2026-04-30T15:25:25.849Z</time></trkpt><trkpt lat="38.843066" lon="20.7210601"><ele>3.0</ele><time>2026-04-30T15:25:26.847Z</time></trkpt><trkpt lat="38.8431176" lon="20.7209073"><ele>3.0</ele><time>2026-04-30T15:25:27.848Z</time></trkpt><trkpt lat="38.8431852" lon="20.7207754"><ele>3.0</ele><time>2026-04-30T15:25:28.851Z</time></trkpt><trkpt lat="38.8432602" lon="20.7206425"><ele>3.0</ele><time>2026-04-30T15:25:29.851Z</time></trkpt><trkpt lat="38.843336" lon="20.7205244"><ele>3.0</ele><time>2026-04-30T15:25:30.849Z</time></trkpt><trkpt lat="38.843408" lon="20.720415"><ele>3.0</ele><time>2026-04-30T15:25:31.851Z</time></trkpt><trkpt lat="38.8434712" lon="20.7203095"><ele>2.8</ele><time>2026-04-30T15:25:32.847Z</time></trkpt><trkpt lat="38.8435345" lon="20.7202011"><ele>2.5999999999999996</ele><time>2026-04-30T15:25:33.846Z</time></trkpt><trkpt lat="38.8435966" lon="20.720093"><ele>2.4000000000000004</ele><time>2026-04-30T15:25:34.847Z</time></trkpt><trkpt lat="38.8436595" lon="20.7199865"><ele>2.2</ele><time>2026-04-30T15:25:35.848Z</time></trkpt><trkpt lat="38.843725" lon="20.7198762"><ele>2.0</ele><time>2026-04-30T15:25:36.848Z</time></trkpt><trkpt lat="38.8437898" lon="20.7197774"><ele>2.0</ele><time>2026-04-30T15:25:37.849Z</time></trkpt><trkpt lat="38.8438569" lon="20.7196763"><ele>2.0</ele><time>2026-04-30T15:25:38.847Z</time></trkpt><trkpt lat="38.8439223" lon="20.7195698"><ele>2.0</ele><time>2026-04-30T15:25:39.848Z</time></trkpt><trkpt lat="38.8439881" lon="20.7194664"><ele>2.0</ele><time>2026-04-30T15:25:40.849Z</time></trkpt><trkpt lat="38.8440506" lon="20.7193604"><ele>2.0</ele><time>2026-04-30T15:25:41.848Z</time></trkpt><trkpt lat="38.8441205" lon="20.7192806"><ele>1.9999999999999998</ele><time>2026-04-30T15:25:42.847Z</time></trkpt><trkpt lat="38.8441835" lon="20.7191856"><ele>2.0</ele><time>2026-04-30T15:25:43.845Z</time></trkpt><trkpt lat="38.8442435" lon="20.7190941"><ele>2.0</ele><time>2026-04-30T15:25:44.848Z</time></trkpt><trkpt lat="38.8442915" lon="20.7190106"><ele>2.0</ele><time>2026-04-30T15:25:45.848Z</time></trkpt><trkpt lat="38.8443318" lon="20.7189372"><ele>1.9999999999999998</ele><time>2026-04-30T15:25:46.848Z</time></trkpt><trkpt lat="38.8443647" lon="20.7188681"><ele>2.0</ele><time>2026-04-30T15:25:47.846Z</time></trkpt><trkpt lat="38.8444048" lon="20.7187702"><ele>1.8333333333333333</ele><time>2026-04-30T15:25:49.847Z</time></trkpt><trkpt lat="38.8444278" lon="20.7186819"><ele>1.6666666666666665</ele><time>2026-04-30T15:25:52.85Z</time></trkpt><trkpt lat="38.8444505" lon="20.7185704"><ele>1.5</ele><time>2026-04-30T15:25:55.848Z</time></trkpt><trkpt lat="38.8444717" lon="20.7184731"><ele>1.3333333333333333</ele><time>2026-04-30T15:25:58.847Z</time></trkpt><trkpt lat="38.8444823" lon="20.7183821"><ele>1.1666666666666665</ele><time>2026-04-30T15:26:00.847Z</time></trkpt><trkpt lat="38.8444948" lon="20.7182588"><ele>1.0</ele><time>2026-04-30T15:26:02.848Z</time></trkpt><trkpt lat="38.844506" lon="20.718134"><ele>0.8333333333333333</ele><time>2026-04-30T15:26:04.852Z</time></trkpt><trkpt lat="38.8445155" lon="20.7180387"><ele>0.6666666666666666</ele><time>2026-04-30T15:26:06.846Z</time></trkpt><trkpt lat="38.8445265" lon="20.7179512"><ele>0.5</ele><time>2026-04-30T15:26:09.848Z</time></trkpt><trkpt lat="38.8445399" lon="20.7178513"><ele>0.3333333333333333</ele><time>2026-04-30T15:26:12.849Z</time></trkpt><trkpt lat="38.8445592" lon="20.7177323"><ele>0.16666666666666666</ele><time>2026-04-30T15:26:15.85Z</time></trkpt><trkpt lat="38.8445922" lon="20.7176509"><ele>0.0</ele><time>2026-04-30T15:26:17.849Z</time></trkpt><trkpt lat="38.8446895" lon="20.7176351"><ele>0.0</ele><time>2026-04-30T15:26:19.848Z</time></trkpt><trkpt lat="38.8447553" lon="20.7176566"><ele>0.0</ele><time>2026-04-30T15:26:20.846Z</time></trkpt><trkpt lat="38.8448296" lon="20.7176706"><ele>0.0</ele><time>2026-04-30T15:26:21.848Z</time></trkpt><trkpt lat="38.8449189" lon="20.7176634"><ele>0.0</ele><time>2026-04-30T15:26:22.847Z</time></trkpt><trkpt lat="38.8450104" lon="20.7176409"><ele>0.0</ele><time>2026-04-30T15:26:23.847Z</time></trkpt><trkpt lat="38.8451034" lon="20.7175943"><ele>0.0</ele><time>2026-04-30T15:26:24.846Z</time></trkpt><trkpt lat="38.8451961" lon="20.7175064"><ele>0.5</ele><time>2026-04-30T15:26:25.849Z</time></trkpt><trkpt lat="38.8452787" lon="20.7173931"><ele>1.0</ele><time>2026-04-30T15:26:26.847Z</time></trkpt><trkpt lat="38.8453453" lon="20.7172604"><ele>1.5</ele><time>2026-04-30T15:26:27.847Z</time></trkpt><trkpt lat="38.8454135" lon="20.717103"><ele>2.0</ele><time>2026-04-30T15:26:28.847Z</time></trkpt><trkpt lat="38.8454833" lon="20.7169495"><ele>1.3333333333333333</ele><time>2026-04-30T15:26:29.848Z</time></trkpt><trkpt lat="38.8455565" lon="20.7167871"><ele>0.6666666666666666</ele><time>2026-04-30T15:26:30.847Z</time></trkpt><trkpt lat="38.845629" lon="20.7166125"><ele>0.0</ele><time>2026-04-30T15:26:31.847Z</time></trkpt><trkpt lat="38.8457093" lon="20.7164355"><ele>0.0</ele><time>2026-04-30T15:26:32.848Z</time></trkpt><trkpt lat="38.8457939" lon="20.7162523"><ele>0.0</ele><time>2026-04-30T15:26:33.846Z</time></trkpt><trkpt lat="38.8458679" lon="20.7160701"><ele>0.0</ele><time>2026-04-30T15:26:34.847Z</time></trkpt><trkpt lat="38.84594" lon="20.71589"><ele>-1.0</ele><time>2026-04-30T15:26:35.848Z</time></trkpt><trkpt lat="38.8460166" lon="20.7157111"><ele>-2.0</ele><time>2026-04-30T15:26:36.847Z</time></trkpt><trkpt lat="38.8460915" lon="20.7155363"><ele>-3.0</ele><time>2026-04-30T15:26:37.848Z</time></trkpt><trkpt lat="38.8461665" lon="20.7153612"><ele>-2.0</ele><time>2026-04-30T15:26:38.846Z</time></trkpt><trkpt lat="38.8462421" lon="20.7151873"><ele>-1.0</ele><time>2026-04-30T15:26:39.847Z</time></trkpt><trkpt lat="38.8463116" lon="20.7150047"><ele>0.0</ele><time>2026-04-30T15:26:40.847Z</time></trkpt><trkpt lat="38.8463838" lon="20.714824"><ele>0.0</ele><time>2026-04-30T15:26:41.847Z</time></trkpt><trkpt lat="38.8464561" lon="20.7146278"><ele>0.0</ele><time>2026-04-30T15:26:42.847Z</time></trkpt><trkpt lat="38.8465261" lon="20.7144283"><ele>0.0</ele><time>2026-04-30T15:26:43.847Z</time></trkpt><trkpt lat="38.8465968" lon="20.7142254"><ele>0.0</ele><time>2026-04-30T15:26:44.848Z</time></trkpt><trkpt lat="38.8466677" lon="20.7140195"><ele>0.0</ele><time>2026-04-30T15:26:45.849Z</time></trkpt><trkpt lat="38.8467357" lon="20.7138169"><ele>0.0</ele><time>2026-04-30T15:26:46.846Z</time></trkpt><trkpt lat="38.8467994" lon="20.7136039"><ele>0.0</ele><time>2026-04-30T15:26:47.849Z</time></trkpt><trkpt lat="38.846864" lon="20.7133975"><ele>0.0</ele><time>2026-04-30T15:26:48.848Z</time></trkpt><trkpt lat="38.8469284" lon="20.7131891"><ele>0.0</ele><time>2026-04-30T15:26:49.848Z</time></trkpt><trkpt lat="38.8469956" lon="20.7129807"><ele>0.0</ele><time>2026-04-30T15:26:50.848Z</time></trkpt><trkpt lat="38.8470584" lon="20.71278"><ele>0.0</ele><time>2026-04-30T15:26:51.848Z</time></trkpt><trkpt lat="38.8471221" lon="20.7125776"><ele>0.0</ele><time>2026-04-30T15:26:52.85Z</time></trkpt><trkpt lat="38.8471787" lon="20.7123682"><ele>0.0</ele><time>2026-04-30T15:26:53.849Z</time></trkpt><trkpt lat="38.8472299" lon="20.7121613"><ele>0.0</ele><time>2026-04-30T15:26:54.845Z</time></trkpt><trkpt lat="38.847279" lon="20.7119477"><ele>0.0</ele><time>2026-04-30T15:26:55.847Z</time></trkpt><trkpt lat="38.8473256" lon="20.7117305"><ele>0.0</ele><time>2026-04-30T15:26:56.849Z</time></trkpt><trkpt lat="38.8473675" lon="20.7114967"><ele>0.0</ele><time>2026-04-30T15:26:57.846Z</time></trkpt><trkpt lat="38.8474039" lon="20.7112527"><ele>0.0</ele><time>2026-04-30T15:26:58.848Z</time></trkpt><trkpt lat="38.8474403" lon="20.7109971"><ele>0.3333333333333333</ele><time>2026-04-30T15:26:59.849Z</time></trkpt><trkpt lat="38.8474801" lon="20.7107444"><ele>0.6666666666666666</ele><time>2026-04-30T15:27:00.85Z</time></trkpt><trkpt lat="38.8475185" lon="20.710496"><ele>1.0</ele><time>2026-04-30T15:27:01.848Z</time></trkpt><trkpt lat="38.8475568" lon="20.7102517"><ele>1.0</ele><time>2026-04-30T15:27:02.847Z</time></trkpt><trkpt lat="38.8475879" lon="20.710002"><ele>1.0</ele><time>2026-04-30T15:27:03.848Z</time></trkpt><trkpt lat="38.8476134" lon="20.7097643"><ele>1.0</ele><time>2026-04-30T15:27:04.849Z</time></trkpt><trkpt lat="38.8476364" lon="20.7095323"><ele>0.5</ele><time>2026-04-30T15:27:05.848Z</time></trkpt><trkpt lat="38.8476588" lon="20.709305"><ele>0.0</ele><time>2026-04-30T15:27:06.849Z</time></trkpt><trkpt lat="38.8477014" lon="20.7088008"><ele>0.0</ele><time>2026-04-30T15:27:09.081Z</time></trkpt><trkpt lat="38.8477355" lon="20.7084222"><ele>0.0</ele><time>2026-04-30T15:27:10.847Z</time></trkpt><trkpt lat="38.8477545" lon="20.7082134"><ele>0.0</ele><time>2026-04-30T15:27:11.846Z</time></trkpt><trkpt lat="38.8477737" lon="20.7080057"><ele>0.0</ele><time>2026-04-30T15:27:12.847Z</time></trkpt><trkpt lat="38.8477937" lon="20.7077908"><ele>0.0</ele><time>2026-04-30T15:27:13.846Z</time></trkpt><trkpt lat="38.8478145" lon="20.7075824"><ele>0.0</ele><time>2026-04-30T15:27:14.847Z</time></trkpt><trkpt lat="38.8478303" lon="20.7073702"><ele>0.0</ele><time>2026-04-30T15:27:15.848Z</time></trkpt><trkpt lat="38.8478483" lon="20.7071554"><ele>0.0</ele><time>2026-04-30T15:27:16.845Z</time></trkpt><trkpt lat="38.8478672" lon="20.7069426"><ele>0.0</ele><time>2026-04-30T15:27:17.846Z</time></trkpt><trkpt lat="38.8478858" lon="20.7067356"><ele>0.0</ele><time>2026-04-30T15:27:18.847Z</time></trkpt><trkpt lat="38.8479008" lon="20.706536"><ele>0.0</ele><time>2026-04-30T15:27:19.846Z</time></trkpt><trkpt lat="38.8479175" lon="20.7063382"><ele>0.0</ele><time>2026-04-30T15:27:20.847Z</time></trkpt><trkpt lat="38.8479368" lon="20.7061305"><ele>0.0</ele><time>2026-04-30T15:27:21.847Z</time></trkpt><trkpt lat="38.8479568" lon="20.7059169"><ele>0.0</ele><time>2026-04-30T15:27:22.846Z</time></trkpt><trkpt lat="38.8479763" lon="20.7056875"><ele>0.0</ele><time>2026-04-30T15:27:23.847Z</time></trkpt><trkpt lat="38.8479964" lon="20.705453"><ele>0.0</ele><time>2026-04-30T15:27:24.848Z</time></trkpt><trkpt lat="38.8480147" lon="20.7052145"><ele>0.0</ele><time>2026-04-30T15:27:25.846Z</time></trkpt><trkpt lat="38.8480323" lon="20.704976"><ele>0.0</ele><time>2026-04-30T15:27:26.845Z</time></trkpt><trkpt lat="38.8480529" lon="20.7047384"><ele>0.0</ele><time>2026-04-30T15:27:27.846Z</time></trkpt><trkpt lat="38.8480816" lon="20.7045034"><ele>0.0</ele><time>2026-04-30T15:27:28.846Z</time></trkpt><trkpt lat="38.8481155" lon="20.704269"><ele>0.0</ele><time>2026-04-30T15:27:29.847Z</time></trkpt><trkpt lat="38.8481514" lon="20.7040359"><ele>0.0</ele><time>2026-04-30T15:27:30.846Z</time></trkpt><trkpt lat="38.8481859" lon="20.7038022"><ele>0.0</ele><time>2026-04-30T15:27:31.847Z</time></trkpt><trkpt lat="38.8482224" lon="20.7035668"><ele>0.0</ele><time>2026-04-30T15:27:32.848Z</time></trkpt><trkpt lat="38.8482609" lon="20.7033346"><ele>0.0</ele><time>2026-04-30T15:27:33.845Z</time></trkpt><trkpt lat="38.8483" lon="20.7031061"><ele>0.0</ele><time>2026-04-30T15:27:34.846Z</time></trkpt><trkpt lat="38.8483389" lon="20.7028781"><ele>0.0</ele><time>2026-04-30T15:27:35.847Z</time></trkpt><trkpt lat="38.8483781" lon="20.7026459"><ele>0.0</ele><time>2026-04-30T15:27:36.845Z</time></trkpt><trkpt lat="38.8484186" lon="20.7024099"><ele>0.0</ele><time>2026-04-30T15:27:37.847Z</time></trkpt><trkpt lat="38.8484576" lon="20.7021753"><ele>0.0</ele><time>2026-04-30T15:27:38.846Z</time></trkpt><trkpt lat="38.8484981" lon="20.7019402"><ele>0.0</ele><time>2026-04-30T15:27:39.848Z</time></trkpt><trkpt lat="38.8485397" lon="20.7017014"><ele>0.0</ele><time>2026-04-30T15:27:40.847Z</time></trkpt><trkpt lat="38.8485803" lon="20.7014732"><ele>0.0</ele><time>2026-04-30T15:27:41.846Z</time></trkpt><trkpt lat="38.8486213" lon="20.7012535"><ele>0.0</ele><time>2026-04-30T15:27:42.847Z</time></trkpt><trkpt lat="38.8486634" lon="20.7010345"><ele>0.0</ele><time>2026-04-30T15:27:43.847Z</time></trkpt><trkpt lat="38.8487071" lon="20.7008189"><ele>0.3333333333333333</ele><time>2026-04-30T15:27:44.847Z</time></trkpt><trkpt lat="38.8487476" lon="20.7006216"><ele>0.6666666666666666</ele><time>2026-04-30T15:27:45.848Z</time></trkpt><trkpt lat="38.848792" lon="20.7004152"><ele>1.0</ele><time>2026-04-30T15:27:46.847Z</time></trkpt><trkpt lat="38.8488428" lon="20.7002227"><ele>1.25</ele><time>2026-04-30T15:27:47.847Z</time></trkpt><trkpt lat="38.8489094" lon="20.700052"><ele>1.5</ele><time>2026-04-30T15:27:48.847Z</time></trkpt><trkpt lat="38.8489665" lon="20.6998723"><ele>1.75</ele><time>2026-04-30T15:27:49.847Z</time></trkpt><trkpt lat="38.8490306" lon="20.699701"><ele>2.0</ele><time>2026-04-30T15:27:50.847Z</time></trkpt><trkpt lat="38.8490876" lon="20.6995178"><ele>2.0</ele><time>2026-04-30T15:27:51.846Z</time></trkpt><trkpt lat="38.8491443" lon="20.6993345"><ele>2.0</ele><time>2026-04-30T15:27:52.847Z</time></trkpt><trkpt lat="38.8492163" lon="20.6991371"><ele>2.0</ele><time>2026-04-30T15:27:53.847Z</time></trkpt><trkpt lat="38.8492626" lon="20.698932"><ele>1.3333333333333333</ele><time>2026-04-30T15:27:54.847Z</time></trkpt><trkpt lat="38.8493104" lon="20.6987271"><ele>0.6666666666666666</ele><time>2026-04-30T15:27:55.847Z</time></trkpt><trkpt lat="38.8493516" lon="20.6985172"><ele>0.0</ele><time>2026-04-30T15:27:56.845Z</time></trkpt><trkpt lat="38.849392" lon="20.698312"><ele>0.0</ele><time>2026-04-30T15:27:57.847Z</time></trkpt><trkpt lat="38.8494315" lon="20.6981086"><ele>0.0</ele><time>2026-04-30T15:27:58.847Z</time></trkpt><trkpt lat="38.8494706" lon="20.6979076"><ele>0.0</ele><time>2026-04-30T15:27:59.846Z</time></trkpt><trkpt lat="38.8495095" lon="20.6977088"><ele>0.3333333333333333</ele><time>2026-04-30T15:28:00.846Z</time></trkpt><trkpt lat="38.8495479" lon="20.6975093"><ele>0.6666666666666666</ele><time>2026-04-30T15:28:01.846Z</time></trkpt><trkpt lat="38.8495873" lon="20.6973091"><ele>1.0</ele><time>2026-04-30T15:28:02.846Z</time></trkpt><trkpt lat="38.8496264" lon="20.6970998"><ele>1.3333333333333333</ele><time>2026-04-30T15:28:03.846Z</time></trkpt><trkpt lat="38.8496627" lon="20.6968897"><ele>1.6666666666666665</ele><time>2026-04-30T15:28:04.846Z</time></trkpt><trkpt lat="38.8496998" lon="20.6966848"><ele>2.0</ele><time>2026-04-30T15:28:05.846Z</time></trkpt><trkpt lat="38.8497456" lon="20.6964818"><ele>2.0</ele><time>2026-04-30T15:28:06.846Z</time></trkpt><trkpt lat="38.8497949" lon="20.6962906"><ele>2.0</ele><time>2026-04-30T15:28:07.847Z</time></trkpt><trkpt lat="38.8498625" lon="20.6960962"><ele>2.0</ele><time>2026-04-30T15:28:08.848Z</time></trkpt><trkpt lat="38.8499281" lon="20.6958889"><ele>1.3333333333333333</ele><time>2026-04-30T15:28:09.847Z</time></trkpt><trkpt lat="38.8499916" lon="20.6956875"><ele>0.6666666666666666</ele><time>2026-04-30T15:28:10.847Z</time></trkpt><trkpt lat="38.8500609" lon="20.69547"><ele>0.0</ele><time>2026-04-30T15:28:11.847Z</time></trkpt><trkpt lat="38.8501321" lon="20.6952634"><ele>0.3333333333333333</ele><time>2026-04-30T15:28:12.848Z</time></trkpt><trkpt lat="38.8501988" lon="20.6950508"><ele>0.6666666666666666</ele><time>2026-04-30T15:28:13.848Z</time></trkpt><trkpt lat="38.8502643" lon="20.6948473"><ele>1.0</ele><time>2026-04-30T15:28:14.847Z</time></trkpt><trkpt lat="38.8503224" lon="20.6946363"><ele>0.6666666666666666</ele><time>2026-04-30T15:28:15.847Z</time></trkpt><trkpt lat="38.8503722" lon="20.6944212"><ele>0.3333333333333333</ele><time>2026-04-30T15:28:16.847Z</time></trkpt><trkpt lat="38.8504166" lon="20.6942048"><ele>0.0</ele><time>2026-04-30T15:28:17.848Z</time></trkpt><trkpt lat="38.850444" lon="20.6939733"><ele>0.0</ele><time>2026-04-30T15:28:18.848Z</time></trkpt><trkpt lat="38.8504492" lon="20.693719"><ele>0.0</ele><time>2026-04-30T15:28:19.848Z</time></trkpt><trkpt lat="38.8504447" lon="20.6934419"><ele>0.0</ele><time>2026-04-30T15:28:20.846Z</time></trkpt><trkpt lat="38.8504353" lon="20.6931542"><ele>0.0</ele><time>2026-04-30T15:28:21.847Z</time></trkpt><trkpt lat="38.8504281" lon="20.6928702"><ele>0.0</ele><time>2026-04-30T15:28:22.847Z</time></trkpt><trkpt lat="38.850421" lon="20.6925903"><ele>0.0</ele><time>2026-04-30T15:28:23.847Z</time></trkpt><trkpt lat="38.8504116" lon="20.6923095"><ele>0.0</ele><time>2026-04-30T15:28:24.848Z</time></trkpt><trkpt lat="38.8503977" lon="20.6920366"><ele>0.0</ele><time>2026-04-30T15:28:25.847Z</time></trkpt><trkpt lat="38.8503959" lon="20.6917646"><ele>0.0</ele><time>2026-04-30T15:28:26.847Z</time></trkpt><trkpt lat="38.8503762" lon="20.6915144"><ele>0.0</ele><time>2026-04-30T15:28:27.847Z</time></trkpt><trkpt lat="38.8503518" lon="20.6912649"><ele>0.0</ele><time>2026-04-30T15:28:28.845Z</time></trkpt><trkpt lat="38.8503281" lon="20.6910315"><ele>0.0</ele><time>2026-04-30T15:28:29.848Z</time></trkpt><trkpt lat="38.850294" lon="20.6908"><ele>0.3333333333333333</ele><time>2026-04-30T15:28:30.848Z</time></trkpt><trkpt lat="38.8502419" lon="20.6905654"><ele>0.6666666666666666</ele><time>2026-04-30T15:28:31.847Z</time></trkpt><trkpt lat="38.8501919" lon="20.6903316"><ele>1.0</ele><time>2026-04-30T15:28:32.848Z</time></trkpt><trkpt lat="38.8501278" lon="20.6901061"><ele>1.3333333333333333</ele><time>2026-04-30T15:28:33.847Z</time></trkpt><trkpt lat="38.8500701" lon="20.6898743"><ele>1.6666666666666665</ele><time>2026-04-30T15:28:34.848Z</time></trkpt><trkpt lat="38.8500118" lon="20.689649"><ele>2.0</ele><time>2026-04-30T15:28:35.848Z</time></trkpt><trkpt lat="38.8499231" lon="20.689427"><ele>2.333333333333333</ele><time>2026-04-30T15:28:36.847Z</time></trkpt><trkpt lat="38.8498382" lon="20.6892102"><ele>2.6666666666666665</ele><time>2026-04-30T15:28:37.847Z</time></trkpt><trkpt lat="38.8497407" lon="20.6889932"><ele>3.0</ele><time>2026-04-30T15:28:38.847Z</time></trkpt><trkpt lat="38.8496394" lon="20.6887832"><ele>2.3333333333333335</ele><time>2026-04-30T15:28:39.847Z</time></trkpt><trkpt lat="38.8495399" lon="20.6885748"><ele>1.6666666666666665</ele><time>2026-04-30T15:28:40.847Z</time></trkpt><trkpt lat="38.8494176" lon="20.6883616"><ele>1.0</ele><time>2026-04-30T15:28:41.848Z</time></trkpt><trkpt lat="38.8492993" lon="20.6881573"><ele>0.6666666666666666</ele><time>2026-04-30T15:28:42.848Z</time></trkpt><trkpt lat="38.8491916" lon="20.6879466"><ele>0.3333333333333333</ele><time>2026-04-30T15:28:43.847Z</time></trkpt><trkpt lat="38.8490939" lon="20.6877342"><ele>0.0</ele><time>2026-04-30T15:28:44.847Z</time></trkpt><trkpt lat="38.8489918" lon="20.6875296"><ele>0.0</ele><time>2026-04-30T15:28:45.848Z</time></trkpt><trkpt lat="38.8488883" lon="20.6873267"><ele>0.0</ele><time>2026-04-30T15:28:46.846Z</time></trkpt><trkpt lat="38.8487815" lon="20.6871299"><ele>0.0</ele><time>2026-04-30T15:28:47.845Z</time></trkpt><trkpt lat="38.848677" lon="20.6869357"><ele>0.3333333333333333</ele><time>2026-04-30T15:28:48.848Z</time></trkpt><trkpt lat="38.8485609" lon="20.6867425"><ele>0.6666666666666666</ele><time>2026-04-30T15:28:49.847Z</time></trkpt><trkpt lat="38.8484448" lon="20.6865728"><ele>1.0</ele><time>2026-04-30T15:28:50.847Z</time></trkpt><trkpt lat="38.8483168" lon="20.6864196"><ele>1.3333333333333333</ele><time>2026-04-30T15:28:51.846Z</time></trkpt><trkpt lat="38.848178" lon="20.686289"><ele>1.6666666666666665</ele><time>2026-04-30T15:28:52.847Z</time></trkpt><trkpt lat="38.8480199" lon="20.6861661"><ele>2.0</ele><time>2026-04-30T15:28:53.847Z</time></trkpt><trkpt lat="38.8478544" lon="20.6860513"><ele>1.6666666666666665</ele><time>2026-04-30T15:28:54.846Z</time></trkpt><trkpt lat="38.8476879" lon="20.68595"><ele>1.3333333333333333</ele><time>2026-04-30T15:28:55.848Z</time></trkpt><trkpt lat="38.8474976" lon="20.6858621"><ele>1.0</ele><time>2026-04-30T15:28:56.847Z</time></trkpt><trkpt lat="38.8473018" lon="20.6857789"><ele>1.0</ele><time>2026-04-30T15:28:57.847Z</time></trkpt><trkpt lat="38.8471037" lon="20.6856943"><ele>1.0</ele><time>2026-04-30T15:28:58.848Z</time></trkpt><trkpt lat="38.8468993" lon="20.6856121"><ele>1.0</ele><time>2026-04-30T15:28:59.848Z</time></trkpt><trkpt lat="38.8467006" lon="20.6855313"><ele>1.3333333333333333</ele><time>2026-04-30T15:29:00.847Z</time></trkpt><trkpt lat="38.8464956" lon="20.6854471"><ele>1.6666666666666665</ele><time>2026-04-30T15:29:01.846Z</time></trkpt><trkpt lat="38.8462831" lon="20.6853658"><ele>2.0</ele><time>2026-04-30T15:29:02.844Z</time></trkpt><trkpt lat="38.8460752" lon="20.6852876"><ele>2.0</ele><time>2026-04-30T15:29:03.847Z</time></trkpt><trkpt lat="38.8458676" lon="20.6852102"><ele>2.0</ele><time>2026-04-30T15:29:04.847Z</time></trkpt><trkpt lat="38.845665" lon="20.6851434"><ele>2.0</ele><time>2026-04-30T15:29:05.847Z</time></trkpt><trkpt lat="38.8454602" lon="20.6850836"><ele>2.0</ele><time>2026-04-30T15:29:06.847Z</time></trkpt><trkpt lat="38.8452582" lon="20.6850243"><ele>2.0</ele><time>2026-04-30T15:29:07.848Z</time></trkpt><trkpt lat="38.8450568" lon="20.684967"><ele>2.0</ele><time>2026-04-30T15:29:08.846Z</time></trkpt><trkpt lat="38.8448559" lon="20.6849103"><ele>1.6666666666666665</ele><time>2026-04-30T15:29:09.847Z</time></trkpt><trkpt lat="38.8446564" lon="20.6848616"><ele>1.3333333333333333</ele><time>2026-04-30T15:29:10.845Z</time></trkpt><trkpt lat="38.8444556" lon="20.6848128"><ele>1.0</ele><time>2026-04-30T15:29:11.846Z</time></trkpt><trkpt lat="38.8442554" lon="20.6847686"><ele>1.6666666666666665</ele><time>2026-04-30T15:29:12.847Z</time></trkpt><trkpt lat="38.8440577" lon="20.6847255"><ele>2.3333333333333335</ele><time>2026-04-30T15:29:13.848Z</time></trkpt><trkpt lat="38.8438727" lon="20.6846828"><ele>3.0</ele><time>2026-04-30T15:29:14.846Z</time></trkpt><trkpt lat="38.8436917" lon="20.6846332"><ele>3.0</ele><time>2026-04-30T15:29:15.848Z</time></trkpt><trkpt lat="38.843516" lon="20.6845753"><ele>3.0</ele><time>2026-04-30T15:29:16.847Z</time></trkpt><trkpt lat="38.8433441" lon="20.6845055"><ele>3.0</ele><time>2026-04-30T15:29:17.847Z</time></trkpt><trkpt lat="38.8431717" lon="20.6844352"><ele>2.0</ele><time>2026-04-30T15:29:18.848Z</time></trkpt><trkpt lat="38.8430008" lon="20.6843367"><ele>1.0</ele><time>2026-04-30T15:29:19.847Z</time></trkpt><trkpt lat="38.8428359" lon="20.6842355"><ele>0.0</ele><time>2026-04-30T15:29:20.847Z</time></trkpt><trkpt lat="38.8426711" lon="20.6841246"><ele>0.6666666666666666</ele><time>2026-04-30T15:29:21.848Z</time></trkpt><trkpt lat="38.8425097" lon="20.6840147"><ele>1.3333333333333333</ele><time>2026-04-30T15:29:22.847Z</time></trkpt><trkpt lat="38.8423473" lon="20.683906"><ele>2.0</ele><time>2026-04-30T15:29:23.847Z</time></trkpt><trkpt lat="38.842182" lon="20.6837953"><ele>2.0</ele><time>2026-04-30T15:29:24.848Z</time></trkpt><trkpt lat="38.8420171" lon="20.6836887"><ele>2.0</ele><time>2026-04-30T15:29:25.848Z</time></trkpt><trkpt lat="38.8418488" lon="20.6835765"><ele>2.0</ele><time>2026-04-30T15:29:26.846Z</time></trkpt><trkpt lat="38.8416786" lon="20.683466"><ele>2.333333333333333</ele><time>2026-04-30T15:29:27.847Z</time></trkpt><trkpt lat="38.8415063" lon="20.6833503"><ele>2.6666666666666665</ele><time>2026-04-30T15:29:28.847Z</time></trkpt><trkpt lat="38.8413294" lon="20.6832408"><ele>3.0</ele><time>2026-04-30T15:29:29.847Z</time></trkpt><trkpt lat="38.8411628" lon="20.6831302"><ele>3.0</ele><time>2026-04-30T15:29:30.846Z</time></trkpt><trkpt lat="38.8409775" lon="20.6830248"><ele>3.0</ele><time>2026-04-30T15:29:31.848Z</time></trkpt><trkpt lat="38.8408004" lon="20.6829174"><ele>3.0</ele><time>2026-04-30T15:29:32.847Z</time></trkpt><trkpt lat="38.8406183" lon="20.6828179"><ele>3.666666666666667</ele><time>2026-04-30T15:29:33.847Z</time></trkpt><trkpt lat="38.8404368" lon="20.6827172"><ele>4.333333333333334</ele><time>2026-04-30T15:29:34.847Z</time></trkpt><trkpt lat="38.8402557" lon="20.6826212"><ele>5.0</ele><time>2026-04-30T15:29:35.848Z</time></trkpt><trkpt lat="38.840081" lon="20.6825312"><ele>3.666666666666667</ele><time>2026-04-30T15:29:36.848Z</time></trkpt><trkpt lat="38.8399079" lon="20.682439"><ele>2.3333333333333335</ele><time>2026-04-30T15:29:37.846Z</time></trkpt><trkpt lat="38.8397418" lon="20.6823524"><ele>1.0</ele><time>2026-04-30T15:29:38.848Z</time></trkpt><trkpt lat="38.8395747" lon="20.6822699"><ele>1.0</ele><time>2026-04-30T15:29:39.847Z</time></trkpt><trkpt lat="38.8394029" lon="20.6821939"><ele>1.0</ele><time>2026-04-30T15:29:40.847Z</time></trkpt><trkpt lat="38.8392372" lon="20.6821143"><ele>1.0</ele><time>2026-04-30T15:29:41.846Z</time></trkpt><trkpt lat="38.8390772" lon="20.6820349"><ele>1.0</ele><time>2026-04-30T15:29:42.848Z</time></trkpt><trkpt lat="38.8389197" lon="20.6819599"><ele>1.0</ele><time>2026-04-30T15:29:43.848Z</time></trkpt><trkpt lat="38.8387667" lon="20.6818913"><ele>1.0</ele><time>2026-04-30T15:29:44.848Z</time></trkpt><trkpt lat="38.8386063" lon="20.6818223"><ele>1.0</ele><time>2026-04-30T15:29:45.845Z</time></trkpt><trkpt lat="38.8384444" lon="20.6817594"><ele>1.0</ele><time>2026-04-30T15:29:46.847Z</time></trkpt><trkpt lat="38.8382801" lon="20.6817074"><ele>1.0</ele><time>2026-04-30T15:29:47.847Z</time></trkpt><trkpt lat="38.8381134" lon="20.6816651"><ele>1.0</ele><time>2026-04-30T15:29:48.847Z</time></trkpt><trkpt lat="38.8379465" lon="20.681653"><ele>1.0</ele><time>2026-04-30T15:29:49.848Z</time></trkpt><trkpt lat="38.8377826" lon="20.6816535"><ele>1.0</ele><time>2026-04-30T15:29:50.847Z</time></trkpt><trkpt lat="38.8376224" lon="20.681657"><ele>1.5</ele><time>2026-04-30T15:29:51.847Z</time></trkpt><trkpt lat="38.8374696" lon="20.681661"><ele>2.0</ele><time>2026-04-30T15:29:52.847Z</time></trkpt><trkpt lat="38.837319" lon="20.6816684"><ele>2.5</ele><time>2026-04-30T15:29:53.848Z</time></trkpt><trkpt lat="38.837175" lon="20.6816841"><ele>3.0</ele><time>2026-04-30T15:29:54.848Z</time></trkpt><trkpt lat="38.8370394" lon="20.6817023"><ele>3.0</ele><time>2026-04-30T15:29:55.847Z</time></trkpt><trkpt lat="38.8369068" lon="20.6817199"><ele>3.0</ele><time>2026-04-30T15:29:56.848Z</time></trkpt><trkpt lat="38.8367764" lon="20.6817409"><ele>3.0</ele><time>2026-04-30T15:29:57.846Z</time></trkpt><trkpt lat="38.8366431" lon="20.6817748"><ele>3.0</ele><time>2026-04-30T15:29:58.848Z</time></trkpt><trkpt lat="38.8365144" lon="20.681818"><ele>3.0</ele><time>2026-04-30T15:29:59.847Z</time></trkpt><trkpt lat="38.8363854" lon="20.6818747"><ele>3.0</ele><time>2026-04-30T15:30:00.848Z</time></trkpt><trkpt lat="38.8362642" lon="20.6819456"><ele>3.0</ele><time>2026-04-30T15:30:01.848Z</time></trkpt><trkpt lat="38.8361383" lon="20.682034"><ele>3.0</ele><time>2026-04-30T15:30:02.847Z</time></trkpt><trkpt lat="38.8360152" lon="20.6821359"><ele>2.0</ele><time>2026-04-30T15:30:03.847Z</time></trkpt><trkpt lat="38.8358991" lon="20.6822555"><ele>1.0</ele><time>2026-04-30T15:30:04.847Z</time></trkpt><trkpt lat="38.8357914" lon="20.6823963"><ele>0.0</ele><time>2026-04-30T15:30:05.848Z</time></trkpt><trkpt lat="38.835698" lon="20.6825558"><ele>0.0</ele><time>2026-04-30T15:30:06.846Z</time></trkpt><trkpt lat="38.8356143" lon="20.68273"><ele>0.0</ele><time>2026-04-30T15:30:07.847Z</time></trkpt><trkpt lat="38.8355385" lon="20.6829117"><ele>0.0</ele><time>2026-04-30T15:30:08.847Z</time></trkpt><trkpt lat="38.8354659" lon="20.6831072"><ele>0.0</ele><time>2026-04-30T15:30:09.848Z</time></trkpt><trkpt lat="38.83539" lon="20.6833072"><ele>0.0</ele><time>2026-04-30T15:30:10.848Z</time></trkpt><trkpt lat="38.8353157" lon="20.6835091"><ele>0.0</ele><time>2026-04-30T15:30:11.848Z</time></trkpt><trkpt lat="38.8352428" lon="20.6837171"><ele>0.0</ele><time>2026-04-30T15:30:12.847Z</time></trkpt><trkpt lat="38.8351614" lon="20.6839061"><ele>0.0</ele><time>2026-04-30T15:30:13.847Z</time></trkpt><trkpt lat="38.8350918" lon="20.6841135"><ele>0.0</ele><time>2026-04-30T15:30:14.847Z</time></trkpt><trkpt lat="38.8350199" lon="20.6843223"><ele>0.6666666666666666</ele><time>2026-04-30T15:30:15.848Z</time></trkpt><trkpt lat="38.8349486" lon="20.684531"><ele>1.3333333333333333</ele><time>2026-04-30T15:30:16.847Z</time></trkpt><trkpt lat="38.8348774" lon="20.6847412"><ele>2.0</ele><time>2026-04-30T15:30:17.847Z</time></trkpt><trkpt lat="38.8348062" lon="20.6849475"><ele>2.0</ele><time>2026-04-30T15:30:18.848Z</time></trkpt><trkpt lat="38.8347366" lon="20.6851752"><ele>2.0</ele><time>2026-04-30T15:30:19.847Z</time></trkpt><trkpt lat="38.8346714" lon="20.6854079"><ele>2.0</ele><time>2026-04-30T15:30:20.848Z</time></trkpt><trkpt lat="38.8346089" lon="20.6856349"><ele>2.0</ele><time>2026-04-30T15:30:21.848Z</time></trkpt><trkpt lat="38.8345497" lon="20.685868"><ele>2.0</ele><time>2026-04-30T15:30:22.846Z</time></trkpt><trkpt lat="38.8344959" lon="20.6860993"><ele>2.0</ele><time>2026-04-30T15:30:23.848Z</time></trkpt><trkpt lat="38.8344475" lon="20.6863301"><ele>2.0</ele><time>2026-04-30T15:30:24.847Z</time></trkpt><trkpt lat="38.8344165" lon="20.686578"><ele>2.0</ele><time>2026-04-30T15:30:25.848Z</time></trkpt><trkpt lat="38.8343848" lon="20.6868196"><ele>2.0</ele><time>2026-04-30T15:30:26.848Z</time></trkpt><trkpt lat="38.8343682" lon="20.6870655"><ele>1.3333333333333333</ele><time>2026-04-30T15:30:27.847Z</time></trkpt><trkpt lat="38.8343674" lon="20.6873116"><ele>0.6666666666666666</ele><time>2026-04-30T15:30:28.845Z</time></trkpt><trkpt lat="38.8343747" lon="20.6875531"><ele>0.0</ele><time>2026-04-30T15:30:29.847Z</time></trkpt><trkpt lat="38.8343899" lon="20.6877949"><ele>0.0</ele><time>2026-04-30T15:30:30.844Z</time></trkpt><trkpt lat="38.834416" lon="20.6880382"><ele>0.0</ele><time>2026-04-30T15:30:31.848Z</time></trkpt><trkpt lat="38.8344465" lon="20.6882896"><ele>0.0</ele><time>2026-04-30T15:30:32.845Z</time></trkpt><trkpt lat="38.8344799" lon="20.6885327"><ele>0.6666666666666666</ele><time>2026-04-30T15:30:33.846Z</time></trkpt><trkpt lat="38.834521" lon="20.6887802"><ele>1.3333333333333333</ele><time>2026-04-30T15:30:34.846Z</time></trkpt><trkpt lat="38.8345725" lon="20.6890262"><ele>2.0</ele><time>2026-04-30T15:30:35.847Z</time></trkpt><trkpt lat="38.8346266" lon="20.6892577"><ele>2.0</ele><time>2026-04-30T15:30:36.848Z</time></trkpt><trkpt lat="38.8346866" lon="20.6894874"><ele>2.0</ele><time>2026-04-30T15:30:37.847Z</time></trkpt><trkpt lat="38.8347611" lon="20.6897227"><ele>2.0</ele><time>2026-04-30T15:30:38.848Z</time></trkpt><trkpt lat="38.8348444" lon="20.6899548"><ele>2.0</ele><time>2026-04-30T15:30:39.847Z</time></trkpt><trkpt lat="38.8349363" lon="20.6901876"><ele>2.0</ele><time>2026-04-30T15:30:40.845Z</time></trkpt><trkpt lat="38.8350224" lon="20.6904141"><ele>2.0</ele><time>2026-04-30T15:30:41.848Z</time></trkpt><trkpt lat="38.8351186" lon="20.6906377"><ele>1.6666666666666665</ele><time>2026-04-30T15:30:42.846Z</time></trkpt><trkpt lat="38.8352176" lon="20.6908661"><ele>1.3333333333333333</ele><time>2026-04-30T15:30:43.847Z</time></trkpt><trkpt lat="38.8353156" lon="20.6910911"><ele>1.0</ele><time>2026-04-30T15:30:44.847Z</time></trkpt><trkpt lat="38.8354158" lon="20.6913231"><ele>0.6666666666666666</ele><time>2026-04-30T15:30:45.848Z</time></trkpt><trkpt lat="38.835512" lon="20.6915474"><ele>0.3333333333333333</ele><time>2026-04-30T15:30:46.848Z</time></trkpt><trkpt lat="38.8356121" lon="20.6917645"><ele>0.0</ele><time>2026-04-30T15:30:47.848Z</time></trkpt><trkpt lat="38.8357097" lon="20.6919809"><ele>0.0</ele><time>2026-04-30T15:30:48.847Z</time></trkpt><trkpt lat="38.8357998" lon="20.6922071"><ele>0.0</ele><time>2026-04-30T15:30:49.848Z</time></trkpt><trkpt lat="38.8358896" lon="20.6924279"><ele>0.0</ele><time>2026-04-30T15:30:50.847Z</time></trkpt><trkpt lat="38.8359756" lon="20.69265"><ele>0.3333333333333333</ele><time>2026-04-30T15:30:51.847Z</time></trkpt><trkpt lat="38.836058" lon="20.6928779"><ele>0.6666666666666666</ele><time>2026-04-30T15:30:52.847Z</time></trkpt><trkpt lat="38.8361338" lon="20.6931128"><ele>1.0</ele><time>2026-04-30T15:30:53.846Z</time></trkpt><trkpt lat="38.8361955" lon="20.6933443"><ele>1.0</ele><time>2026-04-30T15:30:54.847Z</time></trkpt><trkpt lat="38.8362467" lon="20.6935813"><ele>1.0</ele><time>2026-04-30T15:30:55.848Z</time></trkpt><trkpt lat="38.8362706" lon="20.6938169"><ele>1.0</ele><time>2026-04-30T15:30:56.846Z</time></trkpt><trkpt lat="38.8362788" lon="20.6940594"><ele>1.0</ele><time>2026-04-30T15:30:57.847Z</time></trkpt><trkpt lat="38.8362767" lon="20.6943034"><ele>1.0</ele><time>2026-04-30T15:30:58.846Z</time></trkpt><trkpt lat="38.8362532" lon="20.69455"><ele>1.0</ele><time>2026-04-30T15:30:59.848Z</time></trkpt><trkpt lat="38.8362359" lon="20.6947927"><ele>1.0</ele><time>2026-04-30T15:31:00.845Z</time></trkpt><trkpt lat="38.8362029" lon="20.6950337"><ele>1.0</ele><time>2026-04-30T15:31:01.847Z</time></trkpt><trkpt lat="38.836166" lon="20.6952732"><ele>1.0</ele><time>2026-04-30T15:31:02.846Z</time></trkpt><trkpt lat="38.8361248" lon="20.6955063"><ele>1.0</ele><time>2026-04-30T15:31:03.846Z</time></trkpt><trkpt lat="38.8360849" lon="20.695733"><ele>1.0</ele><time>2026-04-30T15:31:04.847Z</time></trkpt><trkpt lat="38.8360485" lon="20.6959476"><ele>1.0</ele><time>2026-04-30T15:31:05.847Z</time></trkpt><trkpt lat="38.8360096" lon="20.6961549"><ele>1.0</ele><time>2026-04-30T15:31:06.846Z</time></trkpt><trkpt lat="38.8359729" lon="20.6963503"><ele>1.0</ele><time>2026-04-30T15:31:07.846Z</time></trkpt><trkpt lat="38.8359396" lon="20.6965431"><ele>1.0</ele><time>2026-04-30T15:31:08.847Z</time></trkpt><trkpt lat="38.8358787" lon="20.6967074"><ele>1.0</ele><time>2026-04-30T15:31:09.848Z</time></trkpt><trkpt lat="38.8358541" lon="20.6968865"><ele>1.0</ele><time>2026-04-30T15:31:10.846Z</time></trkpt><trkpt lat="38.8358208" lon="20.6970599"><ele>1.0</ele><time>2026-04-30T15:31:11.848Z</time></trkpt><trkpt lat="38.8357946" lon="20.6972451"><ele>1.0</ele><time>2026-04-30T15:31:12.847Z</time></trkpt><trkpt lat="38.8357622" lon="20.6974238"><ele>1.0</ele><time>2026-04-30T15:31:13.846Z</time></trkpt><trkpt lat="38.8357439" lon="20.6976025"><ele>1.0</ele><time>2026-04-30T15:31:14.847Z</time></trkpt><trkpt lat="38.8357175" lon="20.6977779"><ele>1.0</ele><time>2026-04-30T15:31:15.848Z</time></trkpt><trkpt lat="38.8356918" lon="20.6979491"><ele>1.0</ele><time>2026-04-30T15:31:16.848Z</time></trkpt><trkpt lat="38.8356738" lon="20.6981284"><ele>1.0</ele><time>2026-04-30T15:31:17.847Z</time></trkpt><trkpt lat="38.8356394" lon="20.6983097"><ele>1.0</ele><time>2026-04-30T15:31:18.847Z</time></trkpt><trkpt lat="38.835608" lon="20.6984775"><ele>1.0</ele><time>2026-04-30T15:31:19.847Z</time></trkpt><trkpt lat="38.8355761" lon="20.6986398"><ele>1.0</ele><time>2026-04-30T15:31:20.847Z</time></trkpt><trkpt lat="38.8355464" lon="20.6988037"><ele>1.0</ele><time>2026-04-30T15:31:21.847Z</time></trkpt><trkpt lat="38.8355178" lon="20.6989608"><ele>1.0</ele><time>2026-04-30T15:31:22.848Z</time></trkpt><trkpt lat="38.8354865" lon="20.6991148"><ele>1.0</ele><time>2026-04-30T15:31:23.848Z</time></trkpt><trkpt lat="38.8354195" lon="20.69924"><ele>1.0</ele><time>2026-04-30T15:31:24.848Z</time></trkpt><trkpt lat="38.8353871" lon="20.6993945"><ele>0.8333333333333333</ele><time>2026-04-30T15:31:25.846Z</time></trkpt><trkpt lat="38.8353655" lon="20.699529"><ele>0.6666666666666666</ele><time>2026-04-30T15:31:26.847Z</time></trkpt><trkpt lat="38.8353502" lon="20.6996324"><ele>0.5</ele><time>2026-04-30T15:31:27.846Z</time></trkpt><trkpt lat="38.8353102" lon="20.6997155"><ele>0.3333333333333333</ele><time>2026-04-30T15:31:29.848Z</time></trkpt><trkpt lat="38.8352439" lon="20.6996818"><ele>0.16666666666666666</ele><time>2026-04-30T15:31:31.848Z</time></trkpt><trkpt lat="38.8351672" lon="20.6996625"><ele>0.0</ele><time>2026-04-30T15:31:32.847Z</time></trkpt><trkpt lat="38.8350877" lon="20.6996398"><ele>0.0</ele><time>2026-04-30T15:31:33.847Z</time></trkpt><trkpt lat="38.8350069" lon="20.699585"><ele>0.0</ele><time>2026-04-30T15:31:34.846Z</time></trkpt><trkpt lat="38.8349233" lon="20.699551"><ele>0.0</ele><time>2026-04-30T15:31:35.848Z</time></trkpt><trkpt lat="38.8348315" lon="20.6995239"><ele>0.0</ele><time>2026-04-30T15:31:36.847Z</time></trkpt><trkpt lat="38.8347421" lon="20.6995091"><ele>0.0</ele><time>2026-04-30T15:31:37.847Z</time></trkpt><trkpt lat="38.8346514" lon="20.69948"><ele>0.0</ele><time>2026-04-30T15:31:38.847Z</time></trkpt><trkpt lat="38.8345682" lon="20.6994527"><ele>0.0</ele><time>2026-04-30T15:31:39.847Z</time></trkpt><trkpt lat="38.8344952" lon="20.6994251"><ele>0.0</ele><time>2026-04-30T15:31:40.847Z</time></trkpt><trkpt lat="38.8344343" lon="20.6994044"><ele>0.0</ele><time>2026-04-30T15:31:41.848Z</time></trkpt><trkpt lat="38.8343536" lon="20.6993695"><ele>0.0</ele><time>2026-04-30T15:31:43.846Z</time></trkpt><trkpt lat="38.8342678" lon="20.6993703"><ele>0.0</ele><time>2026-04-30T15:31:51.847Z</time></trkpt><trkpt lat="38.8342064" lon="20.6994417"><ele>0.3333333333333333</ele><time>2026-04-30T15:31:53.847Z</time></trkpt><trkpt lat="38.8341448" lon="20.6995793"><ele>0.6666666666666666</ele><time>2026-04-30T15:31:55.847Z</time></trkpt><trkpt lat="38.8340891" lon="20.6996566"><ele>1.0</ele><time>2026-04-30T15:31:56.847Z</time></trkpt><trkpt lat="38.8340544" lon="20.6997457"><ele>1.3333333333333333</ele><time>2026-04-30T15:31:57.848Z</time></trkpt><trkpt lat="38.8340099" lon="20.6998293"><ele>1.6666666666666665</ele><time>2026-04-30T15:31:58.846Z</time></trkpt><trkpt lat="38.8339655" lon="20.699917"><ele>2.0</ele><time>2026-04-30T15:31:59.847Z</time></trkpt><trkpt lat="38.8339152" lon="20.7000022"><ele>1.9999999999999998</ele><time>2026-04-30T15:32:00.847Z</time></trkpt><trkpt lat="38.8338671" lon="20.7000971"><ele>2.0</ele><time>2026-04-30T15:32:01.846Z</time></trkpt><trkpt lat="38.8338187" lon="20.7001897"><ele>2.0</ele><time>2026-04-30T15:32:02.847Z</time></trkpt><trkpt lat="38.8337634" lon="20.7002894"><ele>2.0</ele><time>2026-04-30T15:32:03.847Z</time></trkpt><trkpt lat="38.833713" lon="20.7003767"><ele>1.9999999999999998</ele><time>2026-04-30T15:32:04.848Z</time></trkpt><trkpt lat="38.8336681" lon="20.7004549"><ele>2.0</ele><time>2026-04-30T15:32:05.847Z</time></trkpt><trkpt lat="38.8336072" lon="20.7005566"><ele>1.5714285714285714</ele><time>2026-04-30T15:32:07.848Z</time></trkpt><trkpt lat="38.8335646" lon="20.7006329"><ele>1.1428571428571428</ele><time>2026-04-30T15:32:09.846Z</time></trkpt><trkpt lat="38.8335651" lon="20.7007197"><ele>0.7142857142857142</ele><time>2026-04-30T15:32:12.847Z</time></trkpt><trkpt lat="38.8335721" lon="20.7008048"><ele>0.2857142857142857</ele><time>2026-04-30T15:33:08.844Z</time></trkpt><trkpt lat="38.8336065" lon="20.7007361"><ele>-0.1428571428571428</ele><time>2026-04-30T15:33:11.845Z</time></trkpt><trkpt lat="38.8336133" lon="20.7006364"><ele>-0.5714285714285714</ele><time>2026-04-30T15:33:13.844Z</time></trkpt><trkpt lat="38.8336393" lon="20.7005269"><ele>-1.0</ele><time>2026-04-30T15:33:15.845Z</time></trkpt><trkpt lat="38.8337156" lon="20.7003924"><ele>-0.9999999999999999</ele><time>2026-04-30T15:33:17.845Z</time></trkpt><trkpt lat="38.8337602" lon="20.7003141"><ele>-1.0</ele><time>2026-04-30T15:33:18.845Z</time></trkpt><trkpt lat="38.833803" lon="20.7002401"><ele>-1.0</ele><time>2026-04-30T15:33:19.844Z</time></trkpt><trkpt lat="38.8338443" lon="20.7001655"><ele>-1.0</ele><time>2026-04-30T15:33:20.844Z</time></trkpt><trkpt lat="38.8338899" lon="20.7000861"><ele>-0.9999999999999999</ele><time>2026-04-30T15:33:21.845Z</time></trkpt><trkpt lat="38.8339344" lon="20.7000079"><ele>-1.0</ele><time>2026-04-30T15:33:22.844Z</time></trkpt><trkpt lat="38.8339808" lon="20.6999223"><ele>-0.6666666666666666</ele><time>2026-04-30T15:33:23.844Z</time></trkpt><trkpt lat="38.8340291" lon="20.6998278"><ele>-0.3333333333333333</ele><time>2026-04-30T15:33:24.845Z</time></trkpt><trkpt lat="38.834071" lon="20.6997371"><ele>0.0</ele><time>2026-04-30T15:33:25.845Z</time></trkpt><trkpt lat="38.8341061" lon="20.6996673"><ele>0.3333333333333333</ele><time>2026-04-30T15:33:26.844Z</time></trkpt><trkpt lat="38.8341383" lon="20.6995942"><ele>0.6666666666666666</ele><time>2026-04-30T15:33:27.844Z</time></trkpt><trkpt lat="38.8341974" lon="20.6994753"><ele>1.0</ele><time>2026-04-30T15:33:29.845Z</time></trkpt><trkpt lat="38.8342626" lon="20.6994169"><ele>0.8333333333333333</ele><time>2026-04-30T15:33:31.844Z</time></trkpt><trkpt lat="38.8343575" lon="20.699427"><ele>0.6666666666666666</ele><time>2026-04-30T15:33:33.844Z</time></trkpt><trkpt lat="38.8344203" lon="20.6994491"><ele>0.5</ele><time>2026-04-30T15:33:34.844Z</time></trkpt><trkpt lat="38.8344997" lon="20.6994787"><ele>0.3333333333333333</ele><time>2026-04-30T15:33:35.844Z</time></trkpt><trkpt lat="38.8345829" lon="20.6995097"><ele>0.16666666666666666</ele><time>2026-04-30T15:33:36.844Z</time></trkpt><trkpt lat="38.8346694" lon="20.6995424"><ele>0.0</ele><time>2026-04-30T15:33:37.845Z</time></trkpt><trkpt lat="38.8347623" lon="20.6995785"><ele>0.0</ele><time>2026-04-30T15:33:38.844Z</time></trkpt><trkpt lat="38.8348588" lon="20.6996147"><ele>0.0</ele><time>2026-04-30T15:33:39.845Z</time></trkpt><trkpt lat="38.8349458" lon="20.699649"><ele>0.0</ele><time>2026-04-30T15:33:40.845Z</time></trkpt><trkpt lat="38.8350275" lon="20.6996733"><ele>0.0</ele><time>2026-04-30T15:33:41.844Z</time></trkpt><trkpt lat="38.8350962" lon="20.6997005"><ele>0.0</ele><time>2026-04-30T15:33:42.845Z</time></trkpt><trkpt lat="38.8352043" lon="20.6997389"><ele>0.0</ele><time>2026-04-30T15:33:44.844Z</time></trkpt><trkpt lat="38.8352682" lon="20.6997762"><ele>0.0</ele><time>2026-04-30T15:33:46.844Z</time></trkpt><trkpt lat="38.8353332" lon="20.6997806"><ele>0.0</ele><time>2026-04-30T15:34:13.845Z</time></trkpt><trkpt lat="38.8353964" lon="20.6997534"><ele>0.0</ele><time>2026-04-30T15:34:16.845Z</time></trkpt><trkpt lat="38.8354329" lon="20.6996853"><ele>0.0</ele><time>2026-04-30T15:34:17.845Z</time></trkpt><trkpt lat="38.8354619" lon="20.699587"><ele>0.0</ele><time>2026-04-30T15:34:18.845Z</time></trkpt><trkpt lat="38.8354828" lon="20.6994742"><ele>0.0</ele><time>2026-04-30T15:34:19.845Z</time></trkpt><trkpt lat="38.8355057" lon="20.699311"><ele>0.3333333333333333</ele><time>2026-04-30T15:34:20.845Z</time></trkpt><trkpt lat="38.8355353" lon="20.6991391"><ele>0.6666666666666666</ele><time>2026-04-30T15:34:21.845Z</time></trkpt><trkpt lat="38.8355713" lon="20.6989308"><ele>1.0</ele><time>2026-04-30T15:34:22.845Z</time></trkpt><trkpt lat="38.8356127" lon="20.698723"><ele>1.0</ele><time>2026-04-30T15:34:23.844Z</time></trkpt><trkpt lat="38.8356538" lon="20.6984963"><ele>1.0</ele><time>2026-04-30T15:34:24.845Z</time></trkpt><trkpt lat="38.8357123" lon="20.6982775"><ele>1.0</ele><time>2026-04-30T15:34:25.845Z</time></trkpt><trkpt lat="38.8357553" lon="20.6980442"><ele>1.0</ele><time>2026-04-30T15:34:26.845Z</time></trkpt><trkpt lat="38.8357904" lon="20.6978003"><ele>1.0</ele><time>2026-04-30T15:34:27.845Z</time></trkpt><trkpt lat="38.8358289" lon="20.6975435"><ele>1.0</ele><time>2026-04-30T15:34:28.845Z</time></trkpt><trkpt lat="38.8358675" lon="20.6972808"><ele>1.0</ele><time>2026-04-30T15:34:29.845Z</time></trkpt><trkpt lat="38.8359097" lon="20.697019"><ele>1.0</ele><time>2026-04-30T15:34:30.844Z</time></trkpt><trkpt lat="38.8359557" lon="20.6967475"><ele>1.0</ele><time>2026-04-30T15:34:31.844Z</time></trkpt><trkpt lat="38.836003" lon="20.6964761"><ele>1.0</ele><time>2026-04-30T15:34:32.845Z</time></trkpt><trkpt lat="38.8360461" lon="20.696202"><ele>1.0</ele><time>2026-04-30T15:34:33.845Z</time></trkpt><trkpt lat="38.8361003" lon="20.6959201"><ele>1.0</ele><time>2026-04-30T15:34:34.844Z</time></trkpt><trkpt lat="38.8361507" lon="20.6956424"><ele>1.0</ele><time>2026-04-30T15:34:35.845Z</time></trkpt><trkpt lat="38.8362103" lon="20.6953632"><ele>1.0</ele><time>2026-04-30T15:34:36.845Z</time></trkpt><trkpt lat="38.8362545" lon="20.6950903"><ele>1.0</ele><time>2026-04-30T15:34:37.845Z</time></trkpt><trkpt lat="38.8362872" lon="20.6948211"><ele>1.0</ele><time>2026-04-30T15:34:38.844Z</time></trkpt><trkpt lat="38.8363133" lon="20.6945583"><ele>1.0</ele><time>2026-04-30T15:34:39.844Z</time></trkpt><trkpt lat="38.836334" lon="20.6942941"><ele>1.0</ele><time>2026-04-30T15:34:40.845Z</time></trkpt><trkpt lat="38.8363434" lon="20.6940307"><ele>1.0</ele><time>2026-04-30T15:34:41.845Z</time></trkpt><trkpt lat="38.836333" lon="20.6937691"><ele>1.0</ele><time>2026-04-30T15:34:42.844Z</time></trkpt><trkpt lat="38.8363028" lon="20.6935056"><ele>1.0</ele><time>2026-04-30T15:34:43.845Z</time></trkpt><trkpt lat="38.8362504" lon="20.6932466"><ele>1.0</ele><time>2026-04-30T15:34:44.845Z</time></trkpt><trkpt lat="38.8361772" lon="20.6929917"><ele>1.0</ele><time>2026-04-30T15:34:45.844Z</time></trkpt><trkpt lat="38.8360907" lon="20.6927374"><ele>1.0</ele><time>2026-04-30T15:34:46.844Z</time></trkpt><trkpt lat="38.8359909" lon="20.6924854"><ele>0.6666666666666666</ele><time>2026-04-30T15:34:47.845Z</time></trkpt><trkpt lat="38.8358922" lon="20.6922401"><ele>0.3333333333333333</ele><time>2026-04-30T15:34:48.845Z</time></trkpt><trkpt lat="38.8357956" lon="20.6920056"><ele>0.0</ele><time>2026-04-30T15:34:49.844Z</time></trkpt><trkpt lat="38.8356966" lon="20.6917672"><ele>0.0</ele><time>2026-04-30T15:34:50.844Z</time></trkpt><trkpt lat="38.8355988" lon="20.6915335"><ele>0.0</ele><time>2026-04-30T15:34:51.845Z</time></trkpt><trkpt lat="38.8354976" lon="20.6913014"><ele>0.0</ele><time>2026-04-30T15:34:52.845Z</time></trkpt><trkpt lat="38.835396" lon="20.6910774"><ele>0.3333333333333333</ele><time>2026-04-30T15:34:53.844Z</time></trkpt><trkpt lat="38.8352957" lon="20.6908507"><ele>0.6666666666666666</ele><time>2026-04-30T15:34:54.844Z</time></trkpt><trkpt lat="38.8352147" lon="20.6906155"><ele>1.0</ele><time>2026-04-30T15:34:55.845Z</time></trkpt><trkpt lat="38.835122" lon="20.6903938"><ele>1.3333333333333333</ele><time>2026-04-30T15:34:56.845Z</time></trkpt><trkpt lat="38.8350309" lon="20.6901769"><ele>1.6666666666666665</ele><time>2026-04-30T15:34:57.845Z</time></trkpt><trkpt lat="38.8349464" lon="20.6899624"><ele>2.0</ele><time>2026-04-30T15:34:58.845Z</time></trkpt><trkpt lat="38.8348679" lon="20.6897452"><ele>2.0</ele><time>2026-04-30T15:34:59.844Z</time></trkpt><trkpt lat="38.8347902" lon="20.6895327"><ele>2.0</ele><time>2026-04-30T15:35:00.844Z</time></trkpt><trkpt lat="38.834727" lon="20.6893138"><ele>2.0</ele><time>2026-04-30T15:35:01.844Z</time></trkpt><trkpt lat="38.8346701" lon="20.6890888"><ele>2.0</ele><time>2026-04-30T15:35:02.844Z</time></trkpt><trkpt lat="38.8346213" lon="20.6888612"><ele>2.0</ele><time>2026-04-30T15:35:03.845Z</time></trkpt><trkpt lat="38.8345749" lon="20.6886275"><ele>2.0</ele><time>2026-04-30T15:35:04.845Z</time></trkpt><trkpt lat="38.8345301" lon="20.6883967"><ele>1.3333333333333333</ele><time>2026-04-30T15:35:05.844Z</time></trkpt><trkpt lat="38.8344986" lon="20.6881576"><ele>0.6666666666666666</ele><time>2026-04-30T15:35:06.845Z</time></trkpt><trkpt lat="38.8344713" lon="20.687923"><ele>0.0</ele><time>2026-04-30T15:35:07.845Z</time></trkpt><trkpt lat="38.8344467" lon="20.6876908"><ele>0.0</ele><time>2026-04-30T15:35:08.844Z</time></trkpt><trkpt lat="38.8344344" lon="20.6874561"><ele>0.0</ele><time>2026-04-30T15:35:09.844Z</time></trkpt><trkpt lat="38.8344272" lon="20.6872247"><ele>0.0</ele><time>2026-04-30T15:35:10.844Z</time></trkpt><trkpt lat="38.8344349" lon="20.687004"><ele>0.6666666666666666</ele><time>2026-04-30T15:35:11.844Z</time></trkpt><trkpt lat="38.8344551" lon="20.6867791"><ele>1.3333333333333333</ele><time>2026-04-30T15:35:12.844Z</time></trkpt><trkpt lat="38.8344821" lon="20.6865595"><ele>2.0</ele><time>2026-04-30T15:35:13.845Z</time></trkpt><trkpt lat="38.8345204" lon="20.6863443"><ele>2.0</ele><time>2026-04-30T15:35:14.844Z</time></trkpt><trkpt lat="38.8345651" lon="20.6861342"><ele>2.0</ele><time>2026-04-30T15:35:15.844Z</time></trkpt><trkpt lat="38.8346189" lon="20.685926"><ele>2.0</ele><time>2026-04-30T15:35:16.845Z</time></trkpt><trkpt lat="38.834665" lon="20.685727"><ele>2.0</ele><time>2026-04-30T15:35:17.845Z</time></trkpt><trkpt lat="38.8347229" lon="20.6855269"><ele>2.0</ele><time>2026-04-30T15:35:18.844Z</time></trkpt><trkpt lat="38.834776" lon="20.6853375"><ele>2.0</ele><time>2026-04-30T15:35:19.845Z</time></trkpt><trkpt lat="38.8348222" lon="20.6851636"><ele>2.0</ele><time>2026-04-30T15:35:20.844Z</time></trkpt><trkpt lat="38.8348706" lon="20.6850022"><ele>2.0</ele><time>2026-04-30T15:35:21.844Z</time></trkpt><trkpt lat="38.8349171" lon="20.6848433"><ele>2.0</ele><time>2026-04-30T15:35:22.845Z</time></trkpt><trkpt lat="38.8349689" lon="20.6846858"><ele>2.0</ele><time>2026-04-30T15:35:23.844Z</time></trkpt><trkpt lat="38.8350225" lon="20.6845326"><ele>1.6</ele><time>2026-04-30T15:35:24.845Z</time></trkpt><trkpt lat="38.8350793" lon="20.6843779"><ele>1.2000000000000002</ele><time>2026-04-30T15:35:25.845Z</time></trkpt><trkpt lat="38.8351331" lon="20.6842394"><ele>0.8</ele><time>2026-04-30T15:35:26.844Z</time></trkpt><trkpt lat="38.8351719" lon="20.6841355"><ele>0.4</ele><time>2026-04-30T15:35:27.844Z</time></trkpt><trkpt lat="38.835216" lon="20.6840332"><ele>0.0</ele><time>2026-04-30T15:35:29.845Z</time></trkpt><trkpt lat="38.8351508" lon="20.6840221"><ele>0.0</ele><time>2026-04-30T15:35:42.845Z</time></trkpt><trkpt lat="38.8350795" lon="20.6841729"><ele>0.0</ele><time>2026-04-30T15:35:44.844Z</time></trkpt><trkpt lat="38.8350348" lon="20.6842868"><ele>0.0</ele><time>2026-04-30T15:35:45.845Z</time></trkpt><trkpt lat="38.8349835" lon="20.6844211"><ele>0.0</ele><time>2026-04-30T15:35:46.844Z</time></trkpt><trkpt lat="38.8349368" lon="20.6845604"><ele>0.4</ele><time>2026-04-30T15:35:47.845Z</time></trkpt><trkpt lat="38.8348979" lon="20.6846855"><ele>0.8</ele><time>2026-04-30T15:35:48.844Z</time></trkpt><trkpt lat="38.8348717" lon="20.6847867"><ele>1.2000000000000002</ele><time>2026-04-30T15:35:49.844Z</time></trkpt><trkpt lat="38.8348245" lon="20.6848894"><ele>1.6</ele><time>2026-04-30T15:35:51.845Z</time></trkpt><trkpt lat="38.8347415" lon="20.6849094"><ele>2.0</ele><time>2026-04-30T15:35:53.845Z</time></trkpt><trkpt lat="38.8346439" lon="20.6848747"><ele>2.0</ele><time>2026-04-30T15:35:55.844Z</time></trkpt><trkpt lat="38.8345141" lon="20.684838"><ele>2.0</ele><time>2026-04-30T15:35:57.845Z</time></trkpt><trkpt lat="38.8344119" lon="20.6847865"><ele>2.0</ele><time>2026-04-30T15:35:59.844Z</time></trkpt><trkpt lat="38.8342962" lon="20.6847404"><ele>2.0</ele><time>2026-04-30T15:36:01.844Z</time></trkpt><trkpt lat="38.8342006" lon="20.6846913"><ele>1.857142857142857</ele><time>2026-04-30T15:36:03.845Z</time></trkpt><trkpt lat="38.8341161" lon="20.6846407"><ele>1.714285714285714</ele><time>2026-04-30T15:36:05.844Z</time></trkpt><trkpt lat="38.8340559" lon="20.6846136"><ele>1.5714285714285714</ele><time>2026-04-30T15:36:07.845Z</time></trkpt><trkpt lat="38.833998" lon="20.6845739"><ele>1.4285714285714284</ele><time>2026-04-30T15:36:10.845Z</time></trkpt><trkpt lat="38.8339624" lon="20.6844992"><ele>1.2857142857142856</ele><time>2026-04-30T15:36:22.844Z</time></trkpt><trkpt lat="38.8339842" lon="20.6843962"><ele>1.1428571428571428</ele><time>2026-04-30T15:36:25.844Z</time></trkpt><trkpt lat="38.8340155" lon="20.6843128"><ele>1.0</ele><time>2026-04-30T15:36:27.844Z</time></trkpt><trkpt lat="38.8340421" lon="20.6842354"><ele>0.9999999999999999</ele><time>2026-04-30T15:36:29.844Z</time></trkpt><trkpt lat="38.8340394" lon="20.684134"><ele>1.0</ele><time>2026-04-30T15:36:32.844Z</time></trkpt><trkpt lat="38.8340026" lon="20.6842315"><ele>1.0</ele><time>2026-04-30T15:36:48.845Z</time></trkpt><trkpt lat="38.8339783" lon="20.6843156"><ele>1.0</ele><time>2026-04-30T15:36:50.845Z</time></trkpt><trkpt lat="38.833944" lon="20.6844071"><ele>0.9999999999999999</ele><time>2026-04-30T15:36:52.844Z</time></trkpt><trkpt lat="38.8339212" lon="20.6844966"><ele>1.0</ele><time>2026-04-30T15:36:55.844Z</time></trkpt><trkpt lat="38.8338921" lon="20.6845798"><ele>1.0</ele><time>2026-04-30T15:37:00.845Z</time></trkpt><trkpt lat="38.8339539" lon="20.6845487"><ele>0.9999999999999999</ele><time>2026-04-30T15:37:42.845Z</time></trkpt><trkpt lat="38.8340167" lon="20.6845594"><ele>1.0</ele><time>2026-04-30T15:37:48.844Z</time></trkpt><trkpt lat="38.8340759" lon="20.6846013"><ele>1.0</ele><time>2026-04-30T15:37:53.844Z</time></trkpt><trkpt lat="38.8341322" lon="20.6846558"><ele>0.9999999999999999</ele><time>2026-04-30T15:37:58.845Z</time></trkpt><trkpt lat="38.8341978" lon="20.6846976"><ele>1.0</ele><time>2026-04-30T15:38:04.844Z</time></trkpt><trkpt lat="38.8342544" lon="20.6847505"><ele>1.0</ele><time>2026-04-30T15:38:10.845Z</time></trkpt><trkpt lat="38.8343186" lon="20.6847968"><ele>0.9999999999999999</ele><time>2026-04-30T15:38:16.816Z</time></trkpt><trkpt lat="38.8343783" lon="20.6848316"><ele>1.0</ele><time>2026-04-30T15:38:21.844Z</time></trkpt><trkpt lat="38.8344248" lon="20.6848937"><ele>1.0</ele><time>2026-04-30T15:38:29.844Z</time></trkpt><trkpt lat="38.8344004" lon="20.6849778"><ele>1.0</ele><time>2026-04-30T15:38:46.845Z</time></trkpt><trkpt lat="38.834311" lon="20.6848015"><ele>0.9999999999999999</ele><time>2026-04-30T15:39:18.844Z</time></trkpt><trkpt lat="38.8342597" lon="20.684733"><ele>1.0</ele><time>2026-04-30T15:39:20.807Z</time></trkpt><trkpt lat="38.8342014" lon="20.6846834"><ele>1.0</ele><time>2026-04-30T15:39:28.845Z</time></trkpt><trkpt lat="38.8341454" lon="20.6846457"><ele>0.9999999999999999</ele><time>2026-04-30T15:39:42.845Z</time></trkpt><trkpt lat="38.8340883" lon="20.6846104"><ele>1.0</ele><time>2026-04-30T15:39:49.845Z</time></trkpt><trkpt lat="38.8340171" lon="20.6845781"><ele>1.0</ele><time>2026-04-30T15:39:58.845Z</time></trkpt><trkpt lat="38.8339449" lon="20.6845737"><ele>0.9999999999999999</ele><time>2026-04-30T15:40:20.844Z</time></trkpt><trkpt lat="38.8338743" lon="20.6845809"><ele>1.0</ele><time>2026-04-30T15:42:34.844Z</time></trkpt><trkpt lat="38.8338277" lon="20.6846397"><ele>1.0</ele><time>2026-04-30T15:42:39.845Z</time></trkpt><trkpt lat="38.8338058" lon="20.684722"><ele>1.0</ele><time>2026-04-30T15:42:44.845Z</time></trkpt><trkpt lat="38.8337393" lon="20.6846931"><ele>0.9999999999999999</ele><time>2026-04-30T15:42:50.845Z</time></trkpt><trkpt lat="38.8336821" lon="20.6846463"><ele>1.0</ele><time>2026-04-30T15:42:56.844Z</time></trkpt><trkpt lat="38.8336394" lon="20.6845813"><ele>1.0</ele><time>2026-04-30T15:43:03.768Z</time></trkpt><trkpt lat="38.8336968" lon="20.6845468"><ele>0.9999999999999999</ele><time>2026-04-30T15:43:14.844Z</time></trkpt><trkpt lat="38.8337672" lon="20.6845344"><ele>1.0</ele><time>2026-04-30T15:44:22.845Z</time></trkpt><trkpt lat="38.8338209" lon="20.6846128"><ele>1.0</ele><time>2026-04-30T15:44:27.845Z</time></trkpt><trkpt lat="38.8338821" lon="20.6846384"><ele>1.0</ele><time>2026-04-30T15:44:32.768Z</time></trkpt><trkpt lat="38.8338143" lon="20.6847067"><ele>1.0</ele><time>2026-04-30T15:45:07.847Z</time></trkpt><trkpt lat="38.8337501" lon="20.6846904"><ele>1.0</ele><time>2026-04-30T15:45:11.845Z</time></trkpt><trkpt lat="38.8336878" lon="20.6845971"><ele>1.0</ele><time>2026-04-30T15:45:51.845Z</time></trkpt><trkpt lat="38.8336856" lon="20.6845013"><ele>1.0</ele><time>2026-04-30T15:46:25.845Z</time></trkpt><trkpt lat="38.8336819" lon="20.684585"><ele>1.0</ele><time>2026-04-30T15:46:40.844Z</time></trkpt></trkseg><trkseg><trkpt lat="38.8347974" lon="20.6849514"><ele>1.9999999999999998</ele><time>2026-05-01T08:26:02.835Z</time></trkpt><trkpt lat="38.8347742" lon="20.6850894"><ele>2.0</ele><time>2026-05-01T08:26:05.835Z</time></trkpt><trkpt lat="38.8347471" lon="20.6851809"><ele>2.0</ele><time>2026-05-01T08:26:06.835Z</time></trkpt><trkpt lat="38.8347196" lon="20.6852768"><ele>2.0</ele><time>2026-05-01T08:26:07.835Z</time></trkpt><trkpt lat="38.8346881" lon="20.6853818"><ele>1.9999999999999998</ele><time>2026-05-01T08:26:08.835Z</time></trkpt><trkpt lat="38.8346587" lon="20.6854953"><ele>2.0</ele><time>2026-05-01T08:26:09.835Z</time></trkpt><trkpt lat="38.834625" lon="20.685619"><ele>2.0</ele><time>2026-05-01T08:26:10.835Z</time></trkpt><trkpt lat="38.8345877" lon="20.6857494"><ele>2.0</ele><time>2026-05-01T08:26:11.834Z</time></trkpt><trkpt lat="38.8345512" lon="20.6858888"><ele>2.0</ele><time>2026-05-01T08:26:12.834Z</time></trkpt><trkpt lat="38.8345134" lon="20.68604"><ele>2.0</ele><time>2026-05-01T08:26:13.836Z</time></trkpt><trkpt lat="38.8344772" lon="20.6861962"><ele>2.0</ele><time>2026-05-01T08:26:14.836Z</time></trkpt><trkpt lat="38.8344481" lon="20.6863572"><ele>2.0</ele><time>2026-05-01T08:26:15.835Z</time></trkpt><trkpt lat="38.8344168" lon="20.6865224"><ele>2.0</ele><time>2026-05-01T08:26:16.835Z</time></trkpt><trkpt lat="38.834391" lon="20.6866816"><ele>2.0</ele><time>2026-05-01T08:26:17.835Z</time></trkpt><trkpt lat="38.8343723" lon="20.6868358"><ele>1.5</ele><time>2026-05-01T08:26:18.835Z</time></trkpt><trkpt lat="38.8343618" lon="20.6869952"><ele>1.0</ele><time>2026-05-01T08:26:19.836Z</time></trkpt><trkpt lat="38.8343498" lon="20.6871528"><ele>0.5</ele><time>2026-05-01T08:26:20.835Z</time></trkpt><trkpt lat="38.8343545" lon="20.6873169"><ele>0.0</ele><time>2026-05-01T08:26:21.834Z</time></trkpt><trkpt lat="38.8343599" lon="20.6874861"><ele>0.0</ele><time>2026-05-01T08:26:22.835Z</time></trkpt><trkpt lat="38.8343707" lon="20.687652"><ele>0.0</ele><time>2026-05-01T08:26:23.834Z</time></trkpt><trkpt lat="38.8343844" lon="20.6878319"><ele>0.0</ele><time>2026-05-01T08:26:24.836Z</time></trkpt><trkpt lat="38.8344012" lon="20.6880154"><ele>0.0</ele><time>2026-05-01T08:26:25.834Z</time></trkpt><trkpt lat="38.8344243" lon="20.6882056"><ele>0.0</ele><time>2026-05-01T08:26:26.834Z</time></trkpt><trkpt lat="38.8344495" lon="20.6883838"><ele>0.0</ele><time>2026-05-01T08:26:27.836Z</time></trkpt><trkpt lat="38.8344804" lon="20.6885608"><ele>0.0</ele><time>2026-05-01T08:26:28.835Z</time></trkpt><trkpt lat="38.8345121" lon="20.6887376"><ele>0.0</ele><time>2026-05-01T08:26:29.834Z</time></trkpt><trkpt lat="38.8345434" lon="20.6889127"><ele>0.5</ele><time>2026-05-01T08:26:30.836Z</time></trkpt><trkpt lat="38.8345802" lon="20.6890887"><ele>1.0</ele><time>2026-05-01T08:26:31.835Z</time></trkpt><trkpt lat="38.8346202" lon="20.6892653"><ele>1.5</ele><time>2026-05-01T08:26:32.834Z</time></trkpt><trkpt lat="38.8346693" lon="20.689441"><ele>2.0</ele><time>2026-05-01T08:26:33.836Z</time></trkpt><trkpt lat="38.8347243" lon="20.6896146"><ele>2.0</ele><time>2026-05-01T08:26:34.836Z</time></trkpt><trkpt lat="38.8347828" lon="20.6897702"><ele>2.0</ele><time>2026-05-01T08:26:35.834Z</time></trkpt><trkpt lat="38.8348299" lon="20.6898949"><ele>2.0</ele><time>2026-05-01T08:26:36.835Z</time></trkpt><trkpt lat="38.8348717" lon="20.6899884"><ele>2.0</ele><time>2026-05-01T08:26:37.835Z</time></trkpt><trkpt lat="38.8348986" lon="20.6901113"><ele>2.0</ele><time>2026-05-01T08:26:39.835Z</time></trkpt><trkpt lat="38.8348622" lon="20.6902024"><ele>2.2</ele><time>2026-05-01T08:26:41.835Z</time></trkpt><trkpt lat="38.8347619" lon="20.6903003"><ele>2.4000000000000004</ele><time>2026-05-01T08:26:43.835Z</time></trkpt><trkpt lat="38.8346893" lon="20.6903631"><ele>2.5999999999999996</ele><time>2026-05-01T08:26:44.836Z</time></trkpt><trkpt lat="38.8346106" lon="20.6904311"><ele>2.8</ele><time>2026-05-01T08:26:45.835Z</time></trkpt><trkpt lat="38.8345261" lon="20.6905063"><ele>3.0</ele><time>2026-05-01T08:26:46.835Z</time></trkpt><trkpt lat="38.8344466" lon="20.6905772"><ele>3.0</ele><time>2026-05-01T08:26:47.835Z</time></trkpt><trkpt lat="38.8343752" lon="20.6906426"><ele>3.0</ele><time>2026-05-01T08:26:48.833Z</time></trkpt><trkpt lat="38.8343049" lon="20.6907027"><ele>3.0</ele><time>2026-05-01T08:26:49.836Z</time></trkpt><trkpt lat="38.8342475" lon="20.6907502"><ele>3.0</ele><time>2026-05-01T08:26:50.835Z</time></trkpt><trkpt lat="38.8341971" lon="20.6908152"><ele>3.0</ele><time>2026-05-01T08:26:51.834Z</time></trkpt><trkpt lat="38.8341655" lon="20.6908871"><ele>3.0</ele><time>2026-05-01T08:26:52.835Z</time></trkpt><trkpt lat="38.8341475" lon="20.6909808"><ele>2.8333333333333335</ele><time>2026-05-01T08:26:53.834Z</time></trkpt><trkpt lat="38.8341336" lon="20.6910945"><ele>2.6666666666666665</ele><time>2026-05-01T08:26:54.836Z</time></trkpt><trkpt lat="38.8341286" lon="20.6912099"><ele>2.5</ele><time>2026-05-01T08:26:55.836Z</time></trkpt><trkpt lat="38.834125" lon="20.6913266"><ele>2.333333333333333</ele><time>2026-05-01T08:26:56.835Z</time></trkpt><trkpt lat="38.8341175" lon="20.6914463"><ele>2.1666666666666665</ele><time>2026-05-01T08:26:57.836Z</time></trkpt><trkpt lat="38.8341123" lon="20.6915432"><ele>2.0</ele><time>2026-05-01T08:26:58.836Z</time></trkpt><trkpt lat="38.8340982" lon="20.6916231"><ele>1.9999999999999998</ele><time>2026-05-01T08:26:59.835Z</time></trkpt><trkpt lat="38.8340546" lon="20.6917076"><ele>2.0</ele><time>2026-05-01T08:27:00.836Z</time></trkpt><trkpt lat="38.8340211" lon="20.6918022"><ele>2.0</ele><time>2026-05-01T08:27:01.836Z</time></trkpt><trkpt lat="38.8339924" lon="20.6919102"><ele>2.0</ele><time>2026-05-01T08:27:02.834Z</time></trkpt><trkpt lat="38.8339664" lon="20.6920199"><ele>1.9999999999999998</ele><time>2026-05-01T08:27:03.836Z</time></trkpt><trkpt lat="38.8339449" lon="20.6921225"><ele>2.0</ele><time>2026-05-01T08:27:04.836Z</time></trkpt><trkpt lat="38.8339247" lon="20.6922223"><ele>2.142857142857143</ele><time>2026-05-01T08:27:05.834Z</time></trkpt><trkpt lat="38.833903" lon="20.6923075"><ele>2.2857142857142856</ele><time>2026-05-01T08:27:06.835Z</time></trkpt><trkpt lat="38.8338781" lon="20.6923896"><ele>2.4285714285714284</ele><time>2026-05-01T08:27:07.835Z</time></trkpt><trkpt lat="38.8338484" lon="20.6924616"><ele>2.571428571428571</ele><time>2026-05-01T08:27:08.835Z</time></trkpt><trkpt lat="38.8338066" lon="20.6925297"><ele>2.7142857142857144</ele><time>2026-05-01T08:27:09.835Z</time></trkpt><trkpt lat="38.8337568" lon="20.6925974"><ele>2.8571428571428568</ele><time>2026-05-01T08:27:10.836Z</time></trkpt><trkpt lat="38.8337109" lon="20.6926626"><ele>3.0</ele><time>2026-05-01T08:27:11.836Z</time></trkpt><trkpt lat="38.8336747" lon="20.6927318"><ele>2.9999999999999996</ele><time>2026-05-01T08:27:12.836Z</time></trkpt><trkpt lat="38.8336515" lon="20.6928208"><ele>3.0</ele><time>2026-05-01T08:27:13.836Z</time></trkpt><trkpt lat="38.8336392" lon="20.692913"><ele>3.0</ele><time>2026-05-01T08:27:14.835Z</time></trkpt><trkpt lat="38.8336247" lon="20.6929998"><ele>3.0</ele><time>2026-05-01T08:27:15.835Z</time></trkpt><trkpt lat="38.8336104" lon="20.6930929"><ele>3.0</ele><time>2026-05-01T08:27:16.836Z</time></trkpt><trkpt lat="38.833598" lon="20.6931905"><ele>2.9999999999999996</ele><time>2026-05-01T08:27:17.835Z</time></trkpt><trkpt lat="38.833588" lon="20.6932826"><ele>3.0</ele><time>2026-05-01T08:27:18.836Z</time></trkpt><trkpt lat="38.8335765" lon="20.6933678"><ele>3.0</ele><time>2026-05-01T08:27:19.836Z</time></trkpt><trkpt lat="38.8335481" lon="20.6935269"><ele>3.0</ele><time>2026-05-01T08:27:21.835Z</time></trkpt><trkpt lat="38.8334979" lon="20.6936654"><ele>3.0</ele><time>2026-05-01T08:27:23.836Z</time></trkpt><trkpt lat="38.8334557" lon="20.6937273"><ele>3.0</ele><time>2026-05-01T08:27:24.835Z</time></trkpt><trkpt lat="38.8334075" lon="20.6937951"><ele>3.0</ele><time>2026-05-01T08:27:25.835Z</time></trkpt><trkpt lat="38.8333565" lon="20.6938727"><ele>3.2</ele><time>2026-05-01T08:27:26.836Z</time></trkpt><trkpt lat="38.8333143" lon="20.6939347"><ele>3.4</ele><time>2026-05-01T08:27:27.835Z</time></trkpt><trkpt lat="38.8332372" lon="20.6940394"><ele>3.6000000000000005</ele><time>2026-05-01T08:27:29.835Z</time></trkpt><trkpt lat="38.833162" lon="20.6940451"><ele>3.8000000000000003</ele><time>2026-05-01T08:27:31.836Z</time></trkpt><trkpt lat="38.8330778" lon="20.6939716"><ele>4.0</ele><time>2026-05-01T08:27:33.835Z</time></trkpt><trkpt lat="38.8329867" lon="20.6939211"><ele>3.9999999999999996</ele><time>2026-05-01T08:27:35.832Z</time></trkpt><trkpt lat="38.8329118" lon="20.6939517"><ele>4.0</ele><time>2026-05-01T08:27:37.835Z</time></trkpt><trkpt lat="38.8328572" lon="20.6940428"><ele>4.0</ele><time>2026-05-01T08:27:39.836Z</time></trkpt><trkpt lat="38.8328178" lon="20.694123"><ele>4.0</ele><time>2026-05-01T08:27:52.835Z</time></trkpt><trkpt lat="38.8327532" lon="20.6942512"><ele>3.9999999999999996</ele><time>2026-05-01T08:27:54.835Z</time></trkpt><trkpt lat="38.8327091" lon="20.6943357"><ele>4.0</ele><time>2026-05-01T08:27:55.836Z</time></trkpt><trkpt lat="38.8326654" lon="20.6944302"><ele>4.0</ele><time>2026-05-01T08:27:56.836Z</time></trkpt><trkpt lat="38.8326078" lon="20.6945322"><ele>4.0</ele><time>2026-05-01T08:27:57.835Z</time></trkpt><trkpt lat="38.8325495" lon="20.694643"><ele>4.0</ele><time>2026-05-01T08:27:58.835Z</time></trkpt><trkpt lat="38.8324805" lon="20.6947459"><ele>4.0</ele><time>2026-05-01T08:27:59.834Z</time></trkpt><trkpt lat="38.8324121" lon="20.6948528"><ele>4.0</ele><time>2026-05-01T08:28:00.836Z</time></trkpt><trkpt lat="38.8323497" lon="20.6949554"><ele>3.9999999999999996</ele><time>2026-05-01T08:28:01.835Z</time></trkpt><trkpt lat="38.8322943" lon="20.6950396"><ele>4.0</ele><time>2026-05-01T08:28:02.835Z</time></trkpt><trkpt lat="38.8322556" lon="20.6951056"><ele>4.0</ele><time>2026-05-01T08:28:03.835Z</time></trkpt><trkpt lat="38.832199" lon="20.6951652"><ele>4.0</ele><time>2026-05-01T08:28:05.834Z</time></trkpt><trkpt lat="38.8321395" lon="20.6950799"><ele>3.9999999999999996</ele><time>2026-05-01T08:28:08.836Z</time></trkpt><trkpt lat="38.8321206" lon="20.6949783"><ele>4.0</ele><time>2026-05-01T08:28:09.835Z</time></trkpt><trkpt lat="38.8320936" lon="20.6948838"><ele>4.0</ele><time>2026-05-01T08:28:10.835Z</time></trkpt><trkpt lat="38.8320474" lon="20.6947081"><ele>4.0</ele><time>2026-05-01T08:28:11.834Z</time></trkpt><trkpt lat="38.8319938" lon="20.6945448"><ele>4.0</ele><time>2026-05-01T08:28:12.836Z</time></trkpt><trkpt lat="38.8319429" lon="20.6943663"><ele>4.0</ele><time>2026-05-01T08:28:13.836Z</time></trkpt><trkpt lat="38.8318741" lon="20.6941797"><ele>4.25</ele><time>2026-05-01T08:28:14.836Z</time></trkpt><trkpt lat="38.8318183" lon="20.6940008"><ele>4.5</ele><time>2026-05-01T08:28:15.836Z</time></trkpt><trkpt lat="38.8317737" lon="20.6938377"><ele>4.75</ele><time>2026-05-01T08:28:16.834Z</time></trkpt><trkpt lat="38.8317337" lon="20.6936965"><ele>5.0</ele><time>2026-05-01T08:28:17.834Z</time></trkpt><trkpt lat="38.8317149" lon="20.693566"><ele>4.6</ele><time>2026-05-01T08:28:18.835Z</time></trkpt><trkpt lat="38.8316931" lon="20.6934485"><ele>4.2</ele><time>2026-05-01T08:28:19.836Z</time></trkpt><trkpt lat="38.8316506" lon="20.6933415"><ele>3.8</ele><time>2026-05-01T08:28:20.835Z</time></trkpt><trkpt lat="38.8316024" lon="20.6932265"><ele>3.4</ele><time>2026-05-01T08:28:21.833Z</time></trkpt><trkpt lat="38.83155" lon="20.6931177"><ele>3.0</ele><time>2026-05-01T08:28:22.836Z</time></trkpt><trkpt lat="38.8314956" lon="20.6930222"><ele>3.0</ele><time>2026-05-01T08:28:23.834Z</time></trkpt><trkpt lat="38.8314511" lon="20.6929424"><ele>3.0</ele><time>2026-05-01T08:28:24.836Z</time></trkpt><trkpt lat="38.8314374" lon="20.692857"><ele>3.0</ele><time>2026-05-01T08:28:25.836Z</time></trkpt><trkpt lat="38.8314448" lon="20.6927598"><ele>3.0</ele><time>2026-05-01T08:28:26.834Z</time></trkpt><trkpt lat="38.8314688" lon="20.6926546"><ele>3.0</ele><time>2026-05-01T08:28:27.834Z</time></trkpt><trkpt lat="38.8314911" lon="20.6925341"><ele>3.0</ele><time>2026-05-01T08:28:28.836Z</time></trkpt><trkpt lat="38.8315173" lon="20.6923974"><ele>3.0</ele><time>2026-05-01T08:28:29.835Z</time></trkpt><trkpt lat="38.8315487" lon="20.6922485"><ele>3.0</ele><time>2026-05-01T08:28:30.833Z</time></trkpt><trkpt lat="38.8315592" lon="20.6920873"><ele>3.0</ele><time>2026-05-01T08:28:31.834Z</time></trkpt><trkpt lat="38.8315577" lon="20.6919203"><ele>3.0</ele><time>2026-05-01T08:28:32.835Z</time></trkpt><trkpt lat="38.8315484" lon="20.691743"><ele>3.75</ele><time>2026-05-01T08:28:33.833Z</time></trkpt><trkpt lat="38.8315323" lon="20.6915658"><ele>4.5</ele><time>2026-05-01T08:28:34.835Z</time></trkpt><trkpt lat="38.8315008" lon="20.6913768"><ele>5.25</ele><time>2026-05-01T08:28:35.833Z</time></trkpt><trkpt lat="38.8314829" lon="20.6912021"><ele>6.0</ele><time>2026-05-01T08:28:36.835Z</time></trkpt><trkpt lat="38.8314586" lon="20.6910266"><ele>6.0</ele><time>2026-05-01T08:28:37.835Z</time></trkpt><trkpt lat="38.8314231" lon="20.6908562"><ele>6.0</ele><time>2026-05-01T08:28:38.834Z</time></trkpt><trkpt lat="38.8314016" lon="20.6906822"><ele>6.0</ele><time>2026-05-01T08:28:39.834Z</time></trkpt><trkpt lat="38.83136" lon="20.6905173"><ele>6.0</ele><time>2026-05-01T08:28:40.835Z</time></trkpt><trkpt lat="38.8313203" lon="20.6903586"><ele>6.0</ele><time>2026-05-01T08:28:41.834Z</time></trkpt><trkpt lat="38.8312862" lon="20.6901924"><ele>6.0</ele><time>2026-05-01T08:28:42.836Z</time></trkpt><trkpt lat="38.8312517" lon="20.6900358"><ele>6.0</ele><time>2026-05-01T08:28:43.836Z</time></trkpt><trkpt lat="38.8312192" lon="20.6898869"><ele>6.0</ele><time>2026-05-01T08:28:44.835Z</time></trkpt><trkpt lat="38.8311782" lon="20.6897397"><ele>6.0</ele><time>2026-05-01T08:28:45.835Z</time></trkpt><trkpt lat="38.8311367" lon="20.6895821"><ele>6.0</ele><time>2026-05-01T08:28:46.832Z</time></trkpt><trkpt lat="38.8310759" lon="20.6894363"><ele>6.0</ele><time>2026-05-01T08:28:47.835Z</time></trkpt><trkpt lat="38.8310085" lon="20.689294"><ele>6.0</ele><time>2026-05-01T08:28:48.836Z</time></trkpt><trkpt lat="38.8309493" lon="20.6891697"><ele>6.0</ele><time>2026-05-01T08:28:49.836Z</time></trkpt><trkpt lat="38.8308977" lon="20.6890467"><ele>6.0</ele><time>2026-05-01T08:28:50.834Z</time></trkpt><trkpt lat="38.8308608" lon="20.6889269"><ele>6.0</ele><time>2026-05-01T08:28:51.835Z</time></trkpt><trkpt lat="38.8308318" lon="20.6887963"><ele>6.0</ele><time>2026-05-01T08:28:52.836Z</time></trkpt><trkpt lat="38.8308088" lon="20.6886526"><ele>6.0</ele><time>2026-05-01T08:28:53.836Z</time></trkpt><trkpt lat="38.8307855" lon="20.6885075"><ele>6.199999999999999</ele><time>2026-05-01T08:28:54.835Z</time></trkpt><trkpt lat="38.8307647" lon="20.6883576"><ele>6.3999999999999995</ele><time>2026-05-01T08:28:55.836Z</time></trkpt><trkpt lat="38.8307353" lon="20.6882216"><ele>6.6</ele><time>2026-05-01T08:28:56.836Z</time></trkpt><trkpt lat="38.8307026" lon="20.6880984"><ele>6.8</ele><time>2026-05-01T08:28:57.836Z</time></trkpt><trkpt lat="38.8306688" lon="20.6879968"><ele>7.0</ele><time>2026-05-01T08:28:58.835Z</time></trkpt><trkpt lat="38.8306481" lon="20.6879145"><ele>7.0</ele><time>2026-05-01T08:28:59.835Z</time></trkpt><trkpt lat="38.8306287" lon="20.6878058"><ele>6.999999999999999</ele><time>2026-05-01T08:29:01.836Z</time></trkpt><trkpt lat="38.8306396" lon="20.6876856"><ele>6.999999999999999</ele><time>2026-05-01T08:29:03.835Z</time></trkpt><trkpt lat="38.8306678" lon="20.6876101"><ele>7.0</ele><time>2026-05-01T08:29:04.835Z</time></trkpt><trkpt lat="38.8307143" lon="20.6875088"><ele>7.0</ele><time>2026-05-01T08:29:05.834Z</time></trkpt><trkpt lat="38.8307917" lon="20.6873486"><ele>7.0</ele><time>2026-05-01T08:29:06.834Z</time></trkpt><trkpt lat="38.8308631" lon="20.6872141"><ele>7.0</ele><time>2026-05-01T08:29:07.83Z</time></trkpt><trkpt lat="38.8309587" lon="20.6870317"><ele>7.0</ele><time>2026-05-01T08:29:08.836Z</time></trkpt><trkpt lat="38.8310434" lon="20.6868719"><ele>7.0</ele><time>2026-05-01T08:29:09.836Z</time></trkpt><trkpt lat="38.8311344" lon="20.6867325"><ele>7.0</ele><time>2026-05-01T08:29:10.836Z</time></trkpt><trkpt lat="38.8312304" lon="20.686581"><ele>7.0</ele><time>2026-05-01T08:29:11.835Z</time></trkpt><trkpt lat="38.8313184" lon="20.6864461"><ele>7.0</ele><time>2026-05-01T08:29:12.835Z</time></trkpt><trkpt lat="38.8314024" lon="20.6863326"><ele>7.0</ele><time>2026-05-01T08:29:13.835Z</time></trkpt><trkpt lat="38.8315011" lon="20.6862037"><ele>7.0</ele><time>2026-05-01T08:29:14.836Z</time></trkpt><trkpt lat="38.8315987" lon="20.686078"><ele>7.0</ele><time>2026-05-01T08:29:15.836Z</time></trkpt><trkpt lat="38.8316875" lon="20.6859707"><ele>7.0</ele><time>2026-05-01T08:29:16.834Z</time></trkpt><trkpt lat="38.8317779" lon="20.6858351"><ele>7.0</ele><time>2026-05-01T08:29:17.836Z</time></trkpt><trkpt lat="38.8318714" lon="20.6857096"><ele>6.5</ele><time>2026-05-01T08:29:18.834Z</time></trkpt><trkpt lat="38.8319428" lon="20.6855693"><ele>6.0</ele><time>2026-05-01T08:29:19.835Z</time></trkpt><trkpt lat="38.8320068" lon="20.6854337"><ele>5.5</ele><time>2026-05-01T08:29:20.836Z</time></trkpt><trkpt lat="38.8320749" lon="20.6852926"><ele>5.0</ele><time>2026-05-01T08:29:21.835Z</time></trkpt><trkpt lat="38.8321455" lon="20.6851531"><ele>5.0</ele><time>2026-05-01T08:29:22.835Z</time></trkpt><trkpt lat="38.8322219" lon="20.6850206"><ele>5.0</ele><time>2026-05-01T08:29:23.835Z</time></trkpt><trkpt lat="38.8322843" lon="20.6848838"><ele>5.0</ele><time>2026-05-01T08:29:24.835Z</time></trkpt><trkpt lat="38.8323424" lon="20.6847453"><ele>5.0</ele><time>2026-05-01T08:29:25.836Z</time></trkpt><trkpt lat="38.8323987" lon="20.6846173"><ele>5.0</ele><time>2026-05-01T08:29:26.836Z</time></trkpt><trkpt lat="38.8324451" lon="20.684506"><ele>5.0</ele><time>2026-05-01T08:29:27.836Z</time></trkpt><trkpt lat="38.8324939" lon="20.6843934"><ele>5.0</ele><time>2026-05-01T08:29:28.836Z</time></trkpt><trkpt lat="38.8325457" lon="20.6842837"><ele>5.0</ele><time>2026-05-01T08:29:29.836Z</time></trkpt><trkpt lat="38.8326027" lon="20.6841745"><ele>5.0</ele><time>2026-05-01T08:29:30.836Z</time></trkpt><trkpt lat="38.8326624" lon="20.6841059"><ele>5.0</ele><time>2026-05-01T08:29:31.836Z</time></trkpt><trkpt lat="38.8327415" lon="20.6840757"><ele>5.0</ele><time>2026-05-01T08:29:32.835Z</time></trkpt><trkpt lat="38.8328217" lon="20.6840452"><ele>5.0</ele><time>2026-05-01T08:29:33.835Z</time></trkpt><trkpt lat="38.8329016" lon="20.6839969"><ele>5.0</ele><time>2026-05-01T08:29:34.836Z</time></trkpt><trkpt lat="38.8329702" lon="20.6839488"><ele>5.0</ele><time>2026-05-01T08:29:35.835Z</time></trkpt><trkpt lat="38.8330221" lon="20.683898"><ele>5.0</ele><time>2026-05-01T08:29:36.835Z</time></trkpt><trkpt lat="38.83307" lon="20.6838164"><ele>5.0</ele><time>2026-05-01T08:29:38.835Z</time></trkpt><trkpt lat="38.8331119" lon="20.6837363"><ele>5.0</ele><time>2026-05-01T08:29:46.835Z</time></trkpt><trkpt lat="38.8330429" lon="20.6837943"><ele>5.0</ele><time>2026-05-01T08:30:03.835Z</time></trkpt><trkpt lat="38.8329722" lon="20.6838808"><ele>5.0</ele><time>2026-05-01T08:30:05.836Z</time></trkpt><trkpt lat="38.8328782" lon="20.6839531"><ele>5.0</ele><time>2026-05-01T08:30:07.835Z</time></trkpt><trkpt lat="38.832766" lon="20.684006"><ele>5.0</ele><time>2026-05-01T08:30:09.833Z</time></trkpt><trkpt lat="38.832702" lon="20.6840451"><ele>5.0</ele><time>2026-05-01T08:30:10.835Z</time></trkpt><trkpt lat="38.8326003" lon="20.6841229"><ele>5.0</ele><time>2026-05-01T08:30:12.834Z</time></trkpt><trkpt lat="38.8325522" lon="20.6841778"><ele>5.0</ele><time>2026-05-01T08:30:13.834Z</time></trkpt><trkpt lat="38.8325098" lon="20.6842532"><ele>5.0</ele><time>2026-05-01T08:30:14.835Z</time></trkpt><trkpt lat="38.8324669" lon="20.6843334"><ele>5.0</ele><time>2026-05-01T08:30:15.833Z</time></trkpt><trkpt lat="38.8324309" lon="20.6844233"><ele>5.0</ele><time>2026-05-01T08:30:16.835Z</time></trkpt><trkpt lat="38.832396" lon="20.6845048"><ele>5.0</ele><time>2026-05-01T08:30:17.835Z</time></trkpt><trkpt lat="38.8323627" lon="20.6845838"><ele>5.0</ele><time>2026-05-01T08:30:18.836Z</time></trkpt><trkpt lat="38.8323319" lon="20.6846557"><ele>5.0</ele><time>2026-05-01T08:30:19.836Z</time></trkpt><trkpt lat="38.8323041" lon="20.6847337"><ele>5.0</ele><time>2026-05-01T08:30:20.836Z</time></trkpt><trkpt lat="38.8322418" lon="20.6848675"><ele>5.0</ele><time>2026-05-01T08:30:22.833Z</time></trkpt><trkpt lat="38.8321899" lon="20.6849823"><ele>5.0</ele><time>2026-05-01T08:30:24.835Z</time></trkpt><trkpt lat="38.8321272" lon="20.6851092"><ele>5.0</ele><time>2026-05-01T08:30:26.835Z</time></trkpt><trkpt lat="38.8320836" lon="20.6851681"><ele>5.0</ele><time>2026-05-01T08:30:27.836Z</time></trkpt><trkpt lat="38.8320476" lon="20.6852461"><ele>5.0</ele><time>2026-05-01T08:30:28.834Z</time></trkpt><trkpt lat="38.8320032" lon="20.6853306"><ele>5.0</ele><time>2026-05-01T08:30:29.836Z</time></trkpt><trkpt lat="38.8319581" lon="20.6854231"><ele>5.0</ele><time>2026-05-01T08:30:30.835Z</time></trkpt><trkpt lat="38.8319081" lon="20.6855175"><ele>4.833333333333334</ele><time>2026-05-01T08:30:31.836Z</time></trkpt><trkpt lat="38.8318575" lon="20.6856076"><ele>4.666666666666667</ele><time>2026-05-01T08:30:32.836Z</time></trkpt><trkpt lat="38.8318024" lon="20.6857022"><ele>4.5</ele><time>2026-05-01T08:30:33.836Z</time></trkpt><trkpt lat="38.8317513" lon="20.6858014"><ele>4.333333333333333</ele><time>2026-05-01T08:30:34.834Z</time></trkpt><trkpt lat="38.8316955" lon="20.6858846"><ele>4.166666666666666</ele><time>2026-05-01T08:30:35.835Z</time></trkpt><trkpt lat="38.8316368" lon="20.6859606"><ele>4.0</ele><time>2026-05-01T08:30:36.835Z</time></trkpt><trkpt lat="38.8315785" lon="20.6860355"><ele>4.5</ele><time>2026-05-01T08:30:37.835Z</time></trkpt><trkpt lat="38.8315211" lon="20.6861034"><ele>5.0</ele><time>2026-05-01T08:30:38.834Z</time></trkpt><trkpt lat="38.83146" lon="20.6861771"><ele>5.5</ele><time>2026-05-01T08:30:39.834Z</time></trkpt><trkpt lat="38.8313988" lon="20.6862549"><ele>6.0</ele><time>2026-05-01T08:30:40.835Z</time></trkpt><trkpt lat="38.8313387" lon="20.6863411"><ele>6.500000000000001</ele><time>2026-05-01T08:30:41.836Z</time></trkpt><trkpt lat="38.8312753" lon="20.6864428"><ele>7.0</ele><time>2026-05-01T08:30:42.835Z</time></trkpt><trkpt lat="38.8312024" lon="20.6865583"><ele>7.0</ele><time>2026-05-01T08:30:43.835Z</time></trkpt><trkpt lat="38.8311344" lon="20.6866712"><ele>7.0</ele><time>2026-05-01T08:30:44.834Z</time></trkpt><trkpt lat="38.8310672" lon="20.6867875"><ele>7.0</ele><time>2026-05-01T08:30:45.835Z</time></trkpt><trkpt lat="38.830996" lon="20.6869134"><ele>7.0</ele><time>2026-05-01T08:30:46.836Z</time></trkpt><trkpt lat="38.8309347" lon="20.6870422"><ele>7.25</ele><time>2026-05-01T08:30:47.835Z</time></trkpt><trkpt lat="38.8308731" lon="20.6871759"><ele>7.5</ele><time>2026-05-01T08:30:48.835Z</time></trkpt><trkpt lat="38.8308069" lon="20.6873061"><ele>7.75</ele><time>2026-05-01T08:30:49.834Z</time></trkpt><trkpt lat="38.8307399" lon="20.68743"><ele>8.0</ele><time>2026-05-01T08:30:50.836Z</time></trkpt><trkpt lat="38.8306764" lon="20.687558"><ele>8.0</ele><time>2026-05-01T08:30:51.836Z</time></trkpt><trkpt lat="38.8306151" lon="20.6876855"><ele>8.0</ele><time>2026-05-01T08:30:52.834Z</time></trkpt><trkpt lat="38.8305559" lon="20.6878103"><ele>8.0</ele><time>2026-05-01T08:30:53.836Z</time></trkpt><trkpt lat="38.8304895" lon="20.6879446"><ele>8.0</ele><time>2026-05-01T08:30:54.835Z</time></trkpt><trkpt lat="38.830427" lon="20.6880782"><ele>7.75</ele><time>2026-05-01T08:30:55.835Z</time></trkpt><trkpt lat="38.8303617" lon="20.6882093"><ele>7.5</ele><time>2026-05-01T08:30:56.835Z</time></trkpt><trkpt lat="38.830295" lon="20.6883423"><ele>7.25</ele><time>2026-05-01T08:30:57.835Z</time></trkpt><trkpt lat="38.8302313" lon="20.6884747"><ele>7.0</ele><time>2026-05-01T08:30:58.836Z</time></trkpt><trkpt lat="38.8301682" lon="20.6885989"><ele>7.199999999999999</ele><time>2026-05-01T08:30:59.835Z</time></trkpt><trkpt lat="38.8301091" lon="20.6887161"><ele>7.3999999999999995</ele><time>2026-05-01T08:31:00.835Z</time></trkpt><trkpt lat="38.8300429" lon="20.6888299"><ele>7.6000000000000005</ele><time>2026-05-01T08:31:01.832Z</time></trkpt><trkpt lat="38.8299748" lon="20.688938"><ele>7.800000000000001</ele><time>2026-05-01T08:31:02.836Z</time></trkpt><trkpt lat="38.8299056" lon="20.6890456"><ele>8.0</ele><time>2026-05-01T08:31:03.835Z</time></trkpt><trkpt lat="38.829837" lon="20.6891618"><ele>8.0</ele><time>2026-05-01T08:31:04.834Z</time></trkpt><trkpt lat="38.8297726" lon="20.6892769"><ele>8.0</ele><time>2026-05-01T08:31:05.834Z</time></trkpt><trkpt lat="38.829705" lon="20.6893924"><ele>8.0</ele><time>2026-05-01T08:31:06.835Z</time></trkpt><trkpt lat="38.8296374" lon="20.689506"><ele>8.0</ele><time>2026-05-01T08:31:07.836Z</time></trkpt><trkpt lat="38.829573" lon="20.6896224"><ele>8.0</ele><time>2026-05-01T08:31:08.835Z</time></trkpt><trkpt lat="38.8295083" lon="20.6897317"><ele>8.0</ele><time>2026-05-01T08:31:09.836Z</time></trkpt><trkpt lat="38.8294383" lon="20.6898425"><ele>8.0</ele><time>2026-05-01T08:31:10.836Z</time></trkpt><trkpt lat="38.8293663" lon="20.6899623"><ele>8.0</ele><time>2026-05-01T08:31:11.836Z</time></trkpt><trkpt lat="38.8293004" lon="20.6900887"><ele>8.0</ele><time>2026-05-01T08:31:12.836Z</time></trkpt><trkpt lat="38.8292309" lon="20.6902173"><ele>8.25</ele><time>2026-05-01T08:31:13.835Z</time></trkpt><trkpt lat="38.8291516" lon="20.6903461"><ele>8.5</ele><time>2026-05-01T08:31:14.835Z</time></trkpt><trkpt lat="38.8290721" lon="20.6904745"><ele>8.75</ele><time>2026-05-01T08:31:15.834Z</time></trkpt><trkpt lat="38.8289938" lon="20.6905998"><ele>9.0</ele><time>2026-05-01T08:31:16.833Z</time></trkpt><trkpt lat="38.8289173" lon="20.6907397"><ele>9.0</ele><time>2026-05-01T08:31:17.836Z</time></trkpt><trkpt lat="38.8288321" lon="20.6908933"><ele>9.0</ele><time>2026-05-01T08:31:18.836Z</time></trkpt><trkpt lat="38.828736" lon="20.691052"><ele>9.0</ele><time>2026-05-01T08:31:19.836Z</time></trkpt><trkpt lat="38.8286385" lon="20.6912132"><ele>8.75</ele><time>2026-05-01T08:31:20.835Z</time></trkpt><trkpt lat="38.8285562" lon="20.6913531"><ele>8.5</ele><time>2026-05-01T08:31:21.832Z</time></trkpt><trkpt lat="38.8284826" lon="20.6914853"><ele>8.25</ele><time>2026-05-01T08:31:22.836Z</time></trkpt><trkpt lat="38.8284168" lon="20.6916039"><ele>8.0</ele><time>2026-05-01T08:31:23.835Z</time></trkpt><trkpt lat="38.8283485" lon="20.6917118"><ele>8.75</ele><time>2026-05-01T08:31:24.836Z</time></trkpt><trkpt lat="38.8282804" lon="20.6918248"><ele>9.5</ele><time>2026-05-01T08:31:25.835Z</time></trkpt><trkpt lat="38.8281947" lon="20.6919646"><ele>10.25</ele><time>2026-05-01T08:31:26.835Z</time></trkpt><trkpt lat="38.8281192" lon="20.6920982"><ele>11.0</ele><time>2026-05-01T08:31:27.835Z</time></trkpt><trkpt lat="38.828056" lon="20.6922081"><ele>11.0</ele><time>2026-05-01T08:31:28.835Z</time></trkpt><trkpt lat="38.8279967" lon="20.6923111"><ele>11.0</ele><time>2026-05-01T08:31:29.835Z</time></trkpt><trkpt lat="38.8279409" lon="20.6924001"><ele>11.0</ele><time>2026-05-01T08:31:30.835Z</time></trkpt><trkpt lat="38.8278915" lon="20.692481"><ele>11.0</ele><time>2026-05-01T08:31:31.836Z</time></trkpt><trkpt lat="38.8278439" lon="20.6925461"><ele>11.0</ele><time>2026-05-01T08:31:32.834Z</time></trkpt><trkpt lat="38.8277837" lon="20.6925984"><ele>11.0</ele><time>2026-05-01T08:31:34.835Z</time></trkpt><trkpt lat="38.8277329" lon="20.6926592"><ele>11.0</ele><time>2026-05-01T08:31:37.836Z</time></trkpt><trkpt lat="38.8276902" lon="20.692719"><ele>11.0</ele><time>2026-05-01T08:31:41.835Z</time></trkpt><trkpt lat="38.8276203" lon="20.6927368"><ele>11.0</ele><time>2026-05-01T08:31:44.836Z</time></trkpt><trkpt lat="38.8275499" lon="20.6926048"><ele>11.0</ele><time>2026-05-01T08:31:46.836Z</time></trkpt><trkpt lat="38.8275144" lon="20.6925204"><ele>11.0</ele><time>2026-05-01T08:31:47.836Z</time></trkpt><trkpt lat="38.8274766" lon="20.6924283"><ele>11.0</ele><time>2026-05-01T08:31:48.836Z</time></trkpt><trkpt lat="38.8274301" lon="20.6923393"><ele>11.333333333333332</ele><time>2026-05-01T08:31:49.836Z</time></trkpt><trkpt lat="38.8273796" lon="20.6922423"><ele>11.666666666666666</ele><time>2026-05-01T08:31:50.835Z</time></trkpt><trkpt lat="38.8273411" lon="20.6921496"><ele>12.0</ele><time>2026-05-01T08:31:51.835Z</time></trkpt><trkpt lat="38.8272963" lon="20.6920522"><ele>12.333333333333332</ele><time>2026-05-01T08:31:52.836Z</time></trkpt><trkpt lat="38.8272502" lon="20.6919524"><ele>12.666666666666666</ele><time>2026-05-01T08:31:53.835Z</time></trkpt><trkpt lat="38.8271948" lon="20.6918498"><ele>13.0</ele><time>2026-05-01T08:31:54.836Z</time></trkpt><trkpt lat="38.8271451" lon="20.6917432"><ele>13.0</ele><time>2026-05-01T08:31:55.835Z</time></trkpt><trkpt lat="38.8270941" lon="20.6916312"><ele>13.0</ele><time>2026-05-01T08:31:56.836Z</time></trkpt><trkpt lat="38.8270413" lon="20.6915178"><ele>13.0</ele><time>2026-05-01T08:31:57.835Z</time></trkpt><trkpt lat="38.8270112" lon="20.6914056"><ele>13.0</ele><time>2026-05-01T08:31:58.836Z</time></trkpt><trkpt lat="38.8269642" lon="20.6912997"><ele>13.0</ele><time>2026-05-01T08:31:59.835Z</time></trkpt><trkpt lat="38.8269156" lon="20.6911953"><ele>13.0</ele><time>2026-05-01T08:32:00.836Z</time></trkpt><trkpt lat="38.8268624" lon="20.6910888"><ele>13.0</ele><time>2026-05-01T08:32:01.835Z</time></trkpt><trkpt lat="38.8268102" lon="20.6909752"><ele>13.0</ele><time>2026-05-01T08:32:02.835Z</time></trkpt><trkpt lat="38.8267521" lon="20.6908559"><ele>13.0</ele><time>2026-05-01T08:32:03.836Z</time></trkpt><trkpt lat="38.8266887" lon="20.6907266"><ele>13.0</ele><time>2026-05-01T08:32:04.836Z</time></trkpt><trkpt lat="38.8266241" lon="20.6905829"><ele>13.0</ele><time>2026-05-01T08:32:05.836Z</time></trkpt><trkpt lat="38.8265738" lon="20.6904296"><ele>13.0</ele><time>2026-05-01T08:32:06.835Z</time></trkpt><trkpt lat="38.82653" lon="20.6902763"><ele>13.0</ele><time>2026-05-01T08:32:07.835Z</time></trkpt><trkpt lat="38.8264862" lon="20.6901244"><ele>13.0</ele><time>2026-05-01T08:32:08.835Z</time></trkpt><trkpt lat="38.8264407" lon="20.6899656"><ele>13.0</ele><time>2026-05-01T08:32:09.835Z</time></trkpt><trkpt lat="38.8263983" lon="20.6897995"><ele>13.0</ele><time>2026-05-01T08:32:10.835Z</time></trkpt><trkpt lat="38.8263649" lon="20.6896262"><ele>13.0</ele><time>2026-05-01T08:32:11.835Z</time></trkpt><trkpt lat="38.8263351" lon="20.6894551"><ele>13.0</ele><time>2026-05-01T08:32:12.836Z</time></trkpt><trkpt lat="38.82631" lon="20.6892889"><ele>12.75</ele><time>2026-05-01T08:32:13.834Z</time></trkpt><trkpt lat="38.8262864" lon="20.6891284"><ele>12.5</ele><time>2026-05-01T08:32:14.836Z</time></trkpt><trkpt lat="38.8262669" lon="20.6889769"><ele>12.25</ele><time>2026-05-01T08:32:15.834Z</time></trkpt><trkpt lat="38.8262535" lon="20.6888231"><ele>12.0</ele><time>2026-05-01T08:32:16.836Z</time></trkpt><trkpt lat="38.8262434" lon="20.6886645"><ele>12.0</ele><time>2026-05-01T08:32:17.836Z</time></trkpt><trkpt lat="38.8262426" lon="20.6885022"><ele>12.0</ele><time>2026-05-01T08:32:18.835Z</time></trkpt><trkpt lat="38.8262467" lon="20.6883321"><ele>12.0</ele><time>2026-05-01T08:32:19.835Z</time></trkpt><trkpt lat="38.8262616" lon="20.6881588"><ele>12.0</ele><time>2026-05-01T08:32:20.835Z</time></trkpt><trkpt lat="38.8262724" lon="20.6879897"><ele>12.0</ele><time>2026-05-01T08:32:21.835Z</time></trkpt><trkpt lat="38.8262844" lon="20.6878206"><ele>12.0</ele><time>2026-05-01T08:32:22.836Z</time></trkpt><trkpt lat="38.8263018" lon="20.6876573"><ele>12.0</ele><time>2026-05-01T08:32:23.836Z</time></trkpt><trkpt lat="38.8263111" lon="20.6875065"><ele>12.0</ele><time>2026-05-01T08:32:24.835Z</time></trkpt><trkpt lat="38.8263281" lon="20.6873629"><ele>12.25</ele><time>2026-05-01T08:32:25.836Z</time></trkpt><trkpt lat="38.8263585" lon="20.6872144"><ele>12.5</ele><time>2026-05-01T08:32:26.836Z</time></trkpt><trkpt lat="38.8263961" lon="20.6870608"><ele>12.75</ele><time>2026-05-01T08:32:27.836Z</time></trkpt><trkpt lat="38.8264378" lon="20.6869146"><ele>13.0</ele><time>2026-05-01T08:32:28.835Z</time></trkpt><trkpt lat="38.8264799" lon="20.6867657"><ele>14.0</ele><time>2026-05-01T08:32:29.834Z</time></trkpt><trkpt lat="38.8265097" lon="20.6866119"><ele>15.0</ele><time>2026-05-01T08:32:30.834Z</time></trkpt><trkpt lat="38.8265556" lon="20.6864647"><ele>16.0</ele><time>2026-05-01T08:32:31.836Z</time></trkpt><trkpt lat="38.8265896" lon="20.6863299"><ele>17.0</ele><time>2026-05-01T08:32:32.834Z</time></trkpt><trkpt lat="38.8266097" lon="20.6861948"><ele>18.4</ele><time>2026-05-01T08:32:33.835Z</time></trkpt><trkpt lat="38.8266363" lon="20.6860664"><ele>19.799999999999997</ele><time>2026-05-01T08:32:34.835Z</time></trkpt><trkpt lat="38.8266486" lon="20.6859343"><ele>21.2</ele><time>2026-05-01T08:32:35.835Z</time></trkpt><trkpt lat="38.8266568" lon="20.6858053"><ele>22.599999999999998</ele><time>2026-05-01T08:32:36.835Z</time></trkpt><trkpt lat="38.8266594" lon="20.6856756"><ele>24.0</ele><time>2026-05-01T08:32:37.835Z</time></trkpt><trkpt lat="38.8266616" lon="20.685545"><ele>24.0</ele><time>2026-05-01T08:32:38.835Z</time></trkpt><trkpt lat="38.8266664" lon="20.685419"><ele>24.0</ele><time>2026-05-01T08:32:39.836Z</time></trkpt><trkpt lat="38.8266675" lon="20.6853063"><ele>24.0</ele><time>2026-05-01T08:32:40.836Z</time></trkpt><trkpt lat="38.8266608" lon="20.6851977"><ele>24.0</ele><time>2026-05-01T08:32:41.835Z</time></trkpt><trkpt lat="38.8266546" lon="20.6850904"><ele>24.0</ele><time>2026-05-01T08:32:42.835Z</time></trkpt><trkpt lat="38.8266368" lon="20.6849832"><ele>24.0</ele><time>2026-05-01T08:32:43.836Z</time></trkpt><trkpt lat="38.8266053" lon="20.6848785"><ele>24.166666666666668</ele><time>2026-05-01T08:32:44.835Z</time></trkpt><trkpt lat="38.8265727" lon="20.6847774"><ele>24.333333333333336</ele><time>2026-05-01T08:32:45.836Z</time></trkpt><trkpt lat="38.8265362" lon="20.6846849"><ele>24.5</ele><time>2026-05-01T08:32:46.835Z</time></trkpt><trkpt lat="38.826493" lon="20.684599"><ele>24.666666666666668</ele><time>2026-05-01T08:32:47.836Z</time></trkpt><trkpt lat="38.8264605" lon="20.6845077"><ele>24.833333333333336</ele><time>2026-05-01T08:32:48.836Z</time></trkpt><trkpt lat="38.8264372" lon="20.6844086"><ele>25.0</ele><time>2026-05-01T08:32:49.835Z</time></trkpt><trkpt lat="38.8264031" lon="20.6842938"><ele>25.000000000000004</ele><time>2026-05-01T08:32:50.835Z</time></trkpt><trkpt lat="38.826378" lon="20.68418"><ele>25.0</ele><time>2026-05-01T08:32:51.834Z</time></trkpt><trkpt lat="38.8263559" lon="20.6840693"><ele>25.0</ele><time>2026-05-01T08:32:52.834Z</time></trkpt><trkpt lat="38.826348" lon="20.6839646"><ele>25.0</ele><time>2026-05-01T08:32:53.835Z</time></trkpt><trkpt lat="38.8263294" lon="20.683853"><ele>25.000000000000004</ele><time>2026-05-01T08:32:54.833Z</time></trkpt><trkpt lat="38.8263097" lon="20.6837443"><ele>25.0</ele><time>2026-05-01T08:32:55.835Z</time></trkpt><trkpt lat="38.8262931" lon="20.6836271"><ele>24.666666666666668</ele><time>2026-05-01T08:32:56.836Z</time></trkpt><trkpt lat="38.8262806" lon="20.6835228"><ele>24.333333333333336</ele><time>2026-05-01T08:32:57.835Z</time></trkpt><trkpt lat="38.8262735" lon="20.6834216"><ele>24.0</ele><time>2026-05-01T08:32:58.835Z</time></trkpt><trkpt lat="38.8262677" lon="20.6833196"><ele>23.666666666666668</ele><time>2026-05-01T08:32:59.835Z</time></trkpt><trkpt lat="38.8262676" lon="20.6832206"><ele>23.333333333333336</ele><time>2026-05-01T08:33:00.836Z</time></trkpt><trkpt lat="38.8262756" lon="20.6831257"><ele>23.0</ele><time>2026-05-01T08:33:01.836Z</time></trkpt><trkpt lat="38.826284" lon="20.6830267"><ele>23.0</ele><time>2026-05-01T08:33:02.835Z</time></trkpt><trkpt lat="38.8262858" lon="20.6829291"><ele>23.0</ele><time>2026-05-01T08:33:03.835Z</time></trkpt><trkpt lat="38.8262804" lon="20.6828305"><ele>23.0</ele><time>2026-05-01T08:33:04.835Z</time></trkpt><trkpt lat="38.8262624" lon="20.6827257"><ele>23.0</ele><time>2026-05-01T08:33:05.835Z</time></trkpt><trkpt lat="38.8262337" lon="20.682609"><ele>23.0</ele><time>2026-05-01T08:33:06.836Z</time></trkpt><trkpt lat="38.8262011" lon="20.6825039"><ele>23.0</ele><time>2026-05-01T08:33:07.835Z</time></trkpt><trkpt lat="38.8261775" lon="20.6824007"><ele>23.599999999999998</ele><time>2026-05-01T08:33:08.836Z</time></trkpt><trkpt lat="38.8261635" lon="20.6823022"><ele>24.2</ele><time>2026-05-01T08:33:09.836Z</time></trkpt><trkpt lat="38.8261567" lon="20.6822071"><ele>24.8</ele><time>2026-05-01T08:33:10.835Z</time></trkpt><trkpt lat="38.8261846" lon="20.6820663"><ele>25.4</ele><time>2026-05-01T08:33:12.836Z</time></trkpt><trkpt lat="38.8262052" lon="20.681947"><ele>26.0</ele><time>2026-05-01T08:33:14.836Z</time></trkpt><trkpt lat="38.8261732" lon="20.6818342"><ele>26.0</ele><time>2026-05-01T08:33:16.835Z</time></trkpt><trkpt lat="38.8260871" lon="20.6818947"><ele>26.0</ele><time>2026-05-01T08:33:18.834Z</time></trkpt><trkpt lat="38.826072" lon="20.6820423"><ele>26.0</ele><time>2026-05-01T08:33:20.835Z</time></trkpt><trkpt lat="38.8260756" lon="20.6821447"><ele>26.0</ele><time>2026-05-01T08:33:21.834Z</time></trkpt><trkpt lat="38.8260787" lon="20.6822543"><ele>26.0</ele><time>2026-05-01T08:33:22.835Z</time></trkpt><trkpt lat="38.8260833" lon="20.6823536"><ele>25.999999999999996</ele><time>2026-05-01T08:33:23.835Z</time></trkpt><trkpt lat="38.8260818" lon="20.6824675"><ele>26.0</ele><time>2026-05-01T08:33:24.836Z</time></trkpt><trkpt lat="38.8260834" lon="20.6825749"><ele>26.0</ele><time>2026-05-01T08:33:25.834Z</time></trkpt><trkpt lat="38.8260925" lon="20.6826767"><ele>26.0</ele><time>2026-05-01T08:33:26.836Z</time></trkpt><trkpt lat="38.8260877" lon="20.6827884"><ele>25.999999999999996</ele><time>2026-05-01T08:33:27.835Z</time></trkpt><trkpt lat="38.8260782" lon="20.6828998"><ele>26.0</ele><time>2026-05-01T08:33:28.835Z</time></trkpt><trkpt lat="38.8260602" lon="20.6830157"><ele>25.499999999999996</ele><time>2026-05-01T08:33:29.833Z</time></trkpt><trkpt lat="38.8260337" lon="20.6831279"><ele>25.0</ele><time>2026-05-01T08:33:30.835Z</time></trkpt><trkpt lat="38.8259886" lon="20.6832203"><ele>24.5</ele><time>2026-05-01T08:33:31.835Z</time></trkpt><trkpt lat="38.825942" lon="20.6833141"><ele>24.0</ele><time>2026-05-01T08:33:32.835Z</time></trkpt><trkpt lat="38.8259138" lon="20.6833959"><ele>23.5</ele><time>2026-05-01T08:33:33.835Z</time></trkpt><trkpt lat="38.825891" lon="20.6834784"><ele>23.0</ele><time>2026-05-01T08:33:34.836Z</time></trkpt><trkpt lat="38.8258724" lon="20.6835664"><ele>28.666666666666668</ele><time>2026-05-01T08:33:35.835Z</time></trkpt><trkpt lat="38.8258678" lon="20.6836539"><ele>34.333333333333336</ele><time>2026-05-01T08:33:36.836Z</time></trkpt><trkpt lat="38.8258815" lon="20.683744"><ele>40.0</ele><time>2026-05-01T08:33:37.835Z</time></trkpt><trkpt lat="38.8258935" lon="20.6838394"><ele>45.666666666666664</ele><time>2026-05-01T08:33:38.835Z</time></trkpt><trkpt lat="38.8259025" lon="20.683933"><ele>51.333333333333336</ele><time>2026-05-01T08:33:39.836Z</time></trkpt><trkpt lat="38.8259032" lon="20.6840372"><ele>57.0</ele><time>2026-05-01T08:33:40.836Z</time></trkpt><trkpt lat="38.8258946" lon="20.6841426"><ele>57.0</ele><time>2026-05-01T08:33:41.833Z</time></trkpt><trkpt lat="38.8259009" lon="20.6842328"><ele>56.99999999999999</ele><time>2026-05-01T08:33:42.834Z</time></trkpt><trkpt lat="38.8258929" lon="20.684327"><ele>57.0</ele><time>2026-05-01T08:33:43.835Z</time></trkpt><trkpt lat="38.8258882" lon="20.6844187"><ele>57.0</ele><time>2026-05-01T08:33:44.836Z</time></trkpt><trkpt lat="38.8258873" lon="20.684511"><ele>56.99999999999999</ele><time>2026-05-01T08:33:45.834Z</time></trkpt><trkpt lat="38.8258873" lon="20.6846045"><ele>57.0</ele><time>2026-05-01T08:33:46.835Z</time></trkpt><trkpt lat="38.8258755" lon="20.684705"><ele>57.0</ele><time>2026-05-01T08:33:47.835Z</time></trkpt><trkpt lat="38.8258671" lon="20.6848132"><ele>57.0</ele><time>2026-05-01T08:33:48.836Z</time></trkpt><trkpt lat="38.8258564" lon="20.6849222"><ele>57.0</ele><time>2026-05-01T08:33:49.835Z</time></trkpt><trkpt lat="38.8258398" lon="20.6850363"><ele>57.0</ele><time>2026-05-01T08:33:50.834Z</time></trkpt><trkpt lat="38.8258272" lon="20.6851407"><ele>57.0</ele><time>2026-05-01T08:33:51.836Z</time></trkpt><trkpt lat="38.8258062" lon="20.6852324"><ele>57.0</ele><time>2026-05-01T08:33:52.835Z</time></trkpt><trkpt lat="38.8257782" lon="20.6853256"><ele>57.0</ele><time>2026-05-01T08:33:53.836Z</time></trkpt><trkpt lat="38.8257436" lon="20.6854294"><ele>57.0</ele><time>2026-05-01T08:33:54.835Z</time></trkpt><trkpt lat="38.825726" lon="20.6855166"><ele>57.0</ele><time>2026-05-01T08:33:55.835Z</time></trkpt><trkpt lat="38.8256987" lon="20.6856117"><ele>57.0</ele><time>2026-05-01T08:33:56.836Z</time></trkpt><trkpt lat="38.8256667" lon="20.6857081"><ele>57.0</ele><time>2026-05-01T08:33:57.834Z</time></trkpt><trkpt lat="38.8256426" lon="20.6858046"><ele>57.0</ele><time>2026-05-01T08:33:58.834Z</time></trkpt><trkpt lat="38.8256223" lon="20.6858813"><ele>57.0</ele><time>2026-05-01T08:33:59.836Z</time></trkpt><trkpt lat="38.8255577" lon="20.685991"><ele>57.0</ele><time>2026-05-01T08:34:01.835Z</time></trkpt><trkpt lat="38.8255031" lon="20.6860374"><ele>57.0</ele><time>2026-05-01T08:34:02.833Z</time></trkpt><trkpt lat="38.8254413" lon="20.6860636"><ele>57.0</ele><time>2026-05-01T08:34:03.836Z</time></trkpt><trkpt lat="38.8253127" lon="20.686073"><ele>57.0</ele><time>2026-05-01T08:34:05.835Z</time></trkpt><trkpt lat="38.8252538" lon="20.6860404"><ele>57.0</ele><time>2026-05-01T08:34:06.833Z</time></trkpt><trkpt lat="38.8252087" lon="20.6859827"><ele>57.0</ele><time>2026-05-01T08:34:07.836Z</time></trkpt><trkpt lat="38.8251496" lon="20.6858476"><ele>60.25</ele><time>2026-05-01T08:34:09.835Z</time></trkpt><trkpt lat="38.8251296" lon="20.6857522"><ele>63.5</ele><time>2026-05-01T08:34:10.836Z</time></trkpt><trkpt lat="38.8251141" lon="20.6856148"><ele>66.75</ele><time>2026-05-01T08:34:11.836Z</time></trkpt><trkpt lat="38.8250979" lon="20.685431"><ele>70.0</ele><time>2026-05-01T08:34:12.836Z</time></trkpt><trkpt lat="38.8250896" lon="20.6852379"><ele>71.75</ele><time>2026-05-01T08:34:13.834Z</time></trkpt><trkpt lat="38.8250792" lon="20.6850372"><ele>73.5</ele><time>2026-05-01T08:34:14.834Z</time></trkpt><trkpt lat="38.8250751" lon="20.6848479"><ele>75.25</ele><time>2026-05-01T08:34:15.836Z</time></trkpt><trkpt lat="38.8250723" lon="20.6846651"><ele>77.0</ele><time>2026-05-01T08:34:16.832Z</time></trkpt><trkpt lat="38.8250674" lon="20.6844739"><ele>78.0</ele><time>2026-05-01T08:34:17.835Z</time></trkpt><trkpt lat="38.8250653" lon="20.6843105"><ele>79.0</ele><time>2026-05-01T08:34:18.836Z</time></trkpt><trkpt lat="38.825061" lon="20.6841587"><ele>80.0</ele><time>2026-05-01T08:34:19.833Z</time></trkpt><trkpt lat="38.8250498" lon="20.6840001"><ele>81.0</ele><time>2026-05-01T08:34:20.835Z</time></trkpt><trkpt lat="38.8250237" lon="20.6838353"><ele>81.0</ele><time>2026-05-01T08:34:21.836Z</time></trkpt><trkpt lat="38.824978" lon="20.6836862"><ele>81.0</ele><time>2026-05-01T08:34:22.836Z</time></trkpt><trkpt lat="38.8249371" lon="20.6835207"><ele>81.0</ele><time>2026-05-01T08:34:23.835Z</time></trkpt><trkpt lat="38.8249049" lon="20.6833777"><ele>81.0</ele><time>2026-05-01T08:34:24.834Z</time></trkpt><trkpt lat="38.8249079" lon="20.6832327"><ele>81.5</ele><time>2026-05-01T08:34:25.835Z</time></trkpt><trkpt lat="38.8249142" lon="20.6830864"><ele>82.0</ele><time>2026-05-01T08:34:26.836Z</time></trkpt><trkpt lat="38.8249175" lon="20.6829393"><ele>82.5</ele><time>2026-05-01T08:34:27.835Z</time></trkpt><trkpt lat="38.8249049" lon="20.6827801"><ele>83.0</ele><time>2026-05-01T08:34:28.832Z</time></trkpt><trkpt lat="38.8248902" lon="20.6826149"><ele>84.5</ele><time>2026-05-01T08:34:29.834Z</time></trkpt><trkpt lat="38.8248751" lon="20.6824368"><ele>86.0</ele><time>2026-05-01T08:34:30.835Z</time></trkpt><trkpt lat="38.8248642" lon="20.6822579"><ele>87.5</ele><time>2026-05-01T08:34:31.836Z</time></trkpt><trkpt lat="38.8248522" lon="20.6820764"><ele>89.0</ele><time>2026-05-01T08:34:32.836Z</time></trkpt><trkpt lat="38.8248481" lon="20.6819051"><ele>90.25</ele><time>2026-05-01T08:34:33.836Z</time></trkpt><trkpt lat="38.8248618" lon="20.6817386"><ele>91.5</ele><time>2026-05-01T08:34:34.835Z</time></trkpt><trkpt lat="38.8248766" lon="20.6815743"><ele>92.75</ele><time>2026-05-01T08:34:35.835Z</time></trkpt><trkpt lat="38.8249007" lon="20.6814264"><ele>94.0</ele><time>2026-05-01T08:34:36.835Z</time></trkpt><trkpt lat="38.8249214" lon="20.681312"><ele>94.0</ele><time>2026-05-01T08:34:37.836Z</time></trkpt><trkpt lat="38.8249371" lon="20.6812124"><ele>94.0</ele><time>2026-05-01T08:34:38.836Z</time></trkpt><trkpt lat="38.8249434" lon="20.681097"><ele>94.0</ele><time>2026-05-01T08:34:39.835Z</time></trkpt><trkpt lat="38.8249207" lon="20.6809926"><ele>94.0</ele><time>2026-05-01T08:34:40.836Z</time></trkpt><trkpt lat="38.8248625" lon="20.680911"><ele>94.0</ele><time>2026-05-01T08:34:41.835Z</time></trkpt><trkpt lat="38.82478" lon="20.6808232"><ele>94.0</ele><time>2026-05-01T08:34:42.836Z</time></trkpt><trkpt lat="38.8246996" lon="20.6807331"><ele>94.0</ele><time>2026-05-01T08:34:43.834Z</time></trkpt><trkpt lat="38.8246205" lon="20.6806317"><ele>94.0</ele><time>2026-05-01T08:34:44.836Z</time></trkpt><trkpt lat="38.8245669" lon="20.6805292"><ele>94.0</ele><time>2026-05-01T08:34:45.835Z</time></trkpt><trkpt lat="38.824516" lon="20.6804279"><ele>94.0</ele><time>2026-05-01T08:34:46.836Z</time></trkpt><trkpt lat="38.8244827" lon="20.6803371"><ele>94.0</ele><time>2026-05-01T08:34:47.836Z</time></trkpt><trkpt lat="38.8244731" lon="20.6802514"><ele>94.0</ele><time>2026-05-01T08:34:48.835Z</time></trkpt><trkpt lat="38.8245092" lon="20.6801293"><ele>97.0</ele><time>2026-05-01T08:34:50.835Z</time></trkpt><trkpt lat="38.8246172" lon="20.680109"><ele>100.0</ele><time>2026-05-01T08:34:52.835Z</time></trkpt><trkpt lat="38.8247264" lon="20.6801025"><ele>103.0</ele><time>2026-05-01T08:34:53.836Z</time></trkpt><trkpt lat="38.8248324" lon="20.6800687"><ele>106.0</ele><time>2026-05-01T08:34:54.833Z</time></trkpt><trkpt lat="38.8249129" lon="20.6799939"><ele>109.0</ele><time>2026-05-01T08:34:55.835Z</time></trkpt><trkpt lat="38.8250002" lon="20.6798985"><ele>109.0</ele><time>2026-05-01T08:34:56.835Z</time></trkpt><trkpt lat="38.8251114" lon="20.6797981"><ele>109.0</ele><time>2026-05-01T08:34:57.834Z</time></trkpt><trkpt lat="38.8252287" lon="20.6797006"><ele>109.0</ele><time>2026-05-01T08:34:58.836Z</time></trkpt><trkpt lat="38.8253487" lon="20.6796262"><ele>109.0</ele><time>2026-05-01T08:34:59.835Z</time></trkpt><trkpt lat="38.8254754" lon="20.6795415"><ele>106.5</ele><time>2026-05-01T08:35:00.835Z</time></trkpt><trkpt lat="38.8255903" lon="20.6794484"><ele>104.0</ele><time>2026-05-01T08:35:01.836Z</time></trkpt><trkpt lat="38.8257087" lon="20.6793346"><ele>101.5</ele><time>2026-05-01T08:35:02.834Z</time></trkpt><trkpt lat="38.8258172" lon="20.6792382"><ele>99.0</ele><time>2026-05-01T08:35:03.835Z</time></trkpt><trkpt lat="38.8259173" lon="20.6791464"><ele>96.25</ele><time>2026-05-01T08:35:04.835Z</time></trkpt><trkpt lat="38.8260109" lon="20.6790395"><ele>93.5</ele><time>2026-05-01T08:35:05.834Z</time></trkpt><trkpt lat="38.826084" lon="20.6789179"><ele>90.75</ele><time>2026-05-01T08:35:06.836Z</time></trkpt><trkpt lat="38.8261423" lon="20.6787957"><ele>88.0</ele><time>2026-05-01T08:35:07.836Z</time></trkpt><trkpt lat="38.8261894" lon="20.678666"><ele>87.60000000000001</ele><time>2026-05-01T08:35:08.835Z</time></trkpt><trkpt lat="38.826219" lon="20.6785328"><ele>87.2</ele><time>2026-05-01T08:35:09.835Z</time></trkpt><trkpt lat="38.8262409" lon="20.6784195"><ele>86.8</ele><time>2026-05-01T08:35:10.835Z</time></trkpt><trkpt lat="38.8262423" lon="20.6782864"><ele>86.4</ele><time>2026-05-01T08:35:11.835Z</time></trkpt><trkpt lat="38.826217" lon="20.6781692"><ele>86.0</ele><time>2026-05-01T08:35:12.834Z</time></trkpt><trkpt lat="38.8261834" lon="20.6780453"><ele>86.0</ele><time>2026-05-01T08:35:13.835Z</time></trkpt><trkpt lat="38.8261212" lon="20.6779602"><ele>86.0</ele><time>2026-05-01T08:35:14.836Z</time></trkpt><trkpt lat="38.8260495" lon="20.6779202"><ele>86.0</ele><time>2026-05-01T08:35:15.835Z</time></trkpt><trkpt lat="38.8259639" lon="20.6778981"><ele>86.0</ele><time>2026-05-01T08:35:16.836Z</time></trkpt><trkpt lat="38.82585" lon="20.6779228"><ele>86.0</ele><time>2026-05-01T08:35:17.836Z</time></trkpt><trkpt lat="38.825752" lon="20.6779631"><ele>94.6</ele><time>2026-05-01T08:35:18.836Z</time></trkpt><trkpt lat="38.8256525" lon="20.6779983"><ele>103.19999999999999</ele><time>2026-05-01T08:35:19.835Z</time></trkpt><trkpt lat="38.8255518" lon="20.6780423"><ele>111.80000000000001</ele><time>2026-05-01T08:35:20.835Z</time></trkpt><trkpt lat="38.825465" lon="20.6780964"><ele>120.4</ele><time>2026-05-01T08:35:21.835Z</time></trkpt><trkpt lat="38.8253812" lon="20.67815"><ele>129.0</ele><time>2026-05-01T08:35:22.836Z</time></trkpt><trkpt lat="38.8252964" lon="20.678222"><ele>129.0</ele><time>2026-05-01T08:35:23.834Z</time></trkpt><trkpt lat="38.8252088" lon="20.6782884"><ele>129.0</ele><time>2026-05-01T08:35:24.834Z</time></trkpt><trkpt lat="38.8251042" lon="20.6783667"><ele>129.0</ele><time>2026-05-01T08:35:25.834Z</time></trkpt><trkpt lat="38.825009" lon="20.6784344"><ele>129.0</ele><time>2026-05-01T08:35:26.836Z</time></trkpt><trkpt lat="38.824908" lon="20.6785147"><ele>129.0</ele><time>2026-05-01T08:35:27.835Z</time></trkpt><trkpt lat="38.8248003" lon="20.6785916"><ele>129.0</ele><time>2026-05-01T08:35:28.835Z</time></trkpt><trkpt lat="38.8246931" lon="20.6786684"><ele>129.0</ele><time>2026-05-01T08:35:29.835Z</time></trkpt><trkpt lat="38.8245922" lon="20.6787537"><ele>129.0</ele><time>2026-05-01T08:35:30.836Z</time></trkpt><trkpt lat="38.8244803" lon="20.6788341"><ele>129.0</ele><time>2026-05-01T08:35:31.835Z</time></trkpt><trkpt lat="38.824372" lon="20.6789288"><ele>129.0</ele><time>2026-05-01T08:35:32.835Z</time></trkpt><trkpt lat="38.8242668" lon="20.6790189"><ele>129.0</ele><time>2026-05-01T08:35:33.836Z</time></trkpt><trkpt lat="38.8241656" lon="20.6790958"><ele>129.0</ele><time>2026-05-01T08:35:34.835Z</time></trkpt><trkpt lat="38.8240785" lon="20.6791558"><ele>131.0</ele><time>2026-05-01T08:35:35.836Z</time></trkpt><trkpt lat="38.8239952" lon="20.6792062"><ele>133.0</ele><time>2026-05-01T08:35:36.835Z</time></trkpt><trkpt lat="38.8239287" lon="20.6792498"><ele>135.0</ele><time>2026-05-01T08:35:37.835Z</time></trkpt><trkpt lat="38.8238329" lon="20.6792539"><ele>137.0</ele><time>2026-05-01T08:35:39.834Z</time></trkpt><trkpt lat="38.8237912" lon="20.6791843"><ele>139.0</ele><time>2026-05-01T08:35:41.836Z</time></trkpt><trkpt lat="38.8238588" lon="20.679101"><ele>141.0</ele><time>2026-05-01T08:35:43.836Z</time></trkpt><trkpt lat="38.8239497" lon="20.6790521"><ele>141.0</ele><time>2026-05-01T08:35:44.835Z</time></trkpt><trkpt lat="38.8240555" lon="20.6789993"><ele>141.0</ele><time>2026-05-01T08:35:45.834Z</time></trkpt><trkpt lat="38.8241274" lon="20.6789177"><ele>141.0</ele><time>2026-05-01T08:35:46.836Z</time></trkpt><trkpt lat="38.8241927" lon="20.6788113"><ele>141.0</ele><time>2026-05-01T08:35:47.835Z</time></trkpt><trkpt lat="38.8242456" lon="20.6786869"><ele>141.0</ele><time>2026-05-01T08:35:48.835Z</time></trkpt><trkpt lat="38.8242914" lon="20.6785423"><ele>141.0</ele><time>2026-05-01T08:35:49.836Z</time></trkpt><trkpt lat="38.8243433" lon="20.6783913"><ele>141.0</ele><time>2026-05-01T08:35:50.836Z</time></trkpt><trkpt lat="38.824392" lon="20.6782373"><ele>141.0</ele><time>2026-05-01T08:35:51.834Z</time></trkpt><trkpt lat="38.824449" lon="20.6780769"><ele>141.0</ele><time>2026-05-01T08:35:52.835Z</time></trkpt><trkpt lat="38.8245082" lon="20.6779157"><ele>144.0</ele><time>2026-05-01T08:35:53.836Z</time></trkpt><trkpt lat="38.8245678" lon="20.6777579"><ele>147.0</ele><time>2026-05-01T08:35:54.835Z</time></trkpt><trkpt lat="38.8246434" lon="20.6775999"><ele>150.0</ele><time>2026-05-01T08:35:55.835Z</time></trkpt><trkpt lat="38.8247216" lon="20.6774484"><ele>153.0</ele><time>2026-05-01T08:35:56.836Z</time></trkpt><trkpt lat="38.8248168" lon="20.6772977"><ele>153.0</ele><time>2026-05-01T08:35:57.835Z</time></trkpt><trkpt lat="38.8248944" lon="20.6771517"><ele>153.0</ele><time>2026-05-01T08:35:58.833Z</time></trkpt><trkpt lat="38.8249596" lon="20.6770021"><ele>153.0</ele><time>2026-05-01T08:35:59.833Z</time></trkpt><trkpt lat="38.8250062" lon="20.6768311"><ele>153.0</ele><time>2026-05-01T08:36:00.835Z</time></trkpt><trkpt lat="38.8250317" lon="20.6766411"><ele>157.33333333333334</ele><time>2026-05-01T08:36:01.834Z</time></trkpt><trkpt lat="38.8250466" lon="20.6764464"><ele>161.66666666666669</ele><time>2026-05-01T08:36:02.836Z</time></trkpt><trkpt lat="38.8250693" lon="20.6762497"><ele>166.0</ele><time>2026-05-01T08:36:03.835Z</time></trkpt><trkpt lat="38.8251168" lon="20.676065"><ele>161.33333333333334</ele><time>2026-05-01T08:36:04.835Z</time></trkpt><trkpt lat="38.825187" lon="20.6758921"><ele>156.66666666666666</ele><time>2026-05-01T08:36:05.835Z</time></trkpt><trkpt lat="38.825257" lon="20.6757198"><ele>152.0</ele><time>2026-05-01T08:36:06.836Z</time></trkpt><trkpt lat="38.8253219" lon="20.6755441"><ele>152.0</ele><time>2026-05-01T08:36:07.835Z</time></trkpt><trkpt lat="38.8253693" lon="20.6753612"><ele>152.0</ele><time>2026-05-01T08:36:08.834Z</time></trkpt><trkpt lat="38.8253958" lon="20.6751779"><ele>152.0</ele><time>2026-05-01T08:36:09.832Z</time></trkpt><trkpt lat="38.8254056" lon="20.6749884"><ele>152.0</ele><time>2026-05-01T08:36:10.834Z</time></trkpt><trkpt lat="38.8254091" lon="20.6748069"><ele>154.25</ele><time>2026-05-01T08:36:11.834Z</time></trkpt><trkpt lat="38.8254287" lon="20.6746482"><ele>156.5</ele><time>2026-05-01T08:36:12.834Z</time></trkpt><trkpt lat="38.8254631" lon="20.674485"><ele>158.75</ele><time>2026-05-01T08:36:13.834Z</time></trkpt><trkpt lat="38.8255373" lon="20.6743685"><ele>161.0</ele><time>2026-05-01T08:36:14.834Z</time></trkpt><trkpt lat="38.8255988" lon="20.6742259"><ele>164.66666666666666</ele><time>2026-05-01T08:36:15.83Z</time></trkpt><trkpt lat="38.8257395" lon="20.6740838"><ele>168.33333333333334</ele><time>2026-05-01T08:36:16.836Z</time></trkpt><trkpt lat="38.8258467" lon="20.6739451"><ele>172.0</ele><time>2026-05-01T08:36:17.834Z</time></trkpt><trkpt lat="38.825938" lon="20.673793"><ele>162.25</ele><time>2026-05-01T08:36:18.834Z</time></trkpt><trkpt lat="38.8260148" lon="20.6736349"><ele>152.5</ele><time>2026-05-01T08:36:19.835Z</time></trkpt><trkpt lat="38.8260733" lon="20.6734695"><ele>142.75</ele><time>2026-05-01T08:36:20.835Z</time></trkpt><trkpt lat="38.8261051" lon="20.6732941"><ele>133.0</ele><time>2026-05-01T08:36:21.833Z</time></trkpt><trkpt lat="38.8261122" lon="20.673108"><ele>133.0</ele><time>2026-05-01T08:36:22.834Z</time></trkpt><trkpt lat="38.8260959" lon="20.6729008"><ele>133.0</ele><time>2026-05-01T08:36:23.834Z</time></trkpt><trkpt lat="38.826058" lon="20.6726698"><ele>133.0</ele><time>2026-05-01T08:36:24.836Z</time></trkpt><trkpt lat="38.8260148" lon="20.6724526"><ele>152.66666666666669</ele><time>2026-05-01T08:36:25.836Z</time></trkpt><trkpt lat="38.8259635" lon="20.6722336"><ele>172.33333333333334</ele><time>2026-05-01T08:36:26.836Z</time></trkpt><trkpt lat="38.8259013" lon="20.6720199"><ele>192.0</ele><time>2026-05-01T08:36:27.833Z</time></trkpt><trkpt lat="38.825844" lon="20.6718184"><ele>192.33333333333331</ele><time>2026-05-01T08:36:28.836Z</time></trkpt><trkpt lat="38.8257831" lon="20.6716212"><ele>192.66666666666666</ele><time>2026-05-01T08:36:29.836Z</time></trkpt><trkpt lat="38.8257188" lon="20.6714375"><ele>193.0</ele><time>2026-05-01T08:36:30.836Z</time></trkpt><trkpt lat="38.8256333" lon="20.6712601"><ele>193.0</ele><time>2026-05-01T08:36:31.834Z</time></trkpt><trkpt lat="38.8255333" lon="20.6710813"><ele>193.0</ele><time>2026-05-01T08:36:32.834Z</time></trkpt><trkpt lat="38.8254178" lon="20.67089"><ele>193.0</ele><time>2026-05-01T08:36:33.834Z</time></trkpt><trkpt lat="38.8253212" lon="20.670704"><ele>193.0</ele><time>2026-05-01T08:36:34.835Z</time></trkpt><trkpt lat="38.8252188" lon="20.6705125"><ele>193.0</ele><time>2026-05-01T08:36:35.834Z</time></trkpt><trkpt lat="38.8251098" lon="20.6703161"><ele>193.0</ele><time>2026-05-01T08:36:36.835Z</time></trkpt><trkpt lat="38.8249996" lon="20.670108"><ele>196.66666666666666</ele><time>2026-05-01T08:36:37.832Z</time></trkpt><trkpt lat="38.8249067" lon="20.6698969"><ele>200.33333333333331</ele><time>2026-05-01T08:36:38.835Z</time></trkpt><trkpt lat="38.8248209" lon="20.6696821"><ele>204.0</ele><time>2026-05-01T08:36:39.836Z</time></trkpt><trkpt lat="38.8247466" lon="20.6694779"><ele>202.66666666666669</ele><time>2026-05-01T08:36:40.835Z</time></trkpt><trkpt lat="38.8246714" lon="20.669283"><ele>201.33333333333334</ele><time>2026-05-01T08:36:41.835Z</time></trkpt><trkpt lat="38.8245846" lon="20.6691062"><ele>200.0</ele><time>2026-05-01T08:36:42.834Z</time></trkpt><trkpt lat="38.824475" lon="20.6689463"><ele>200.0</ele><time>2026-05-01T08:36:43.836Z</time></trkpt><trkpt lat="38.8243395" lon="20.668804"><ele>200.0</ele><time>2026-05-01T08:36:44.836Z</time></trkpt><trkpt lat="38.8241841" lon="20.6686759"><ele>200.0</ele><time>2026-05-01T08:36:45.836Z</time></trkpt><trkpt lat="38.8240172" lon="20.6685632"><ele>203.33333333333334</ele><time>2026-05-01T08:36:46.834Z</time></trkpt><trkpt lat="38.8238642" lon="20.6684597"><ele>206.66666666666669</ele><time>2026-05-01T08:36:47.835Z</time></trkpt><trkpt lat="38.8237338" lon="20.6683549"><ele>210.0</ele><time>2026-05-01T08:36:48.835Z</time></trkpt><trkpt lat="38.8236076" lon="20.6682249"><ele>210.0</ele><time>2026-05-01T08:36:49.836Z</time></trkpt><trkpt lat="38.8235167" lon="20.6680816"><ele>210.0</ele><time>2026-05-01T08:36:50.835Z</time></trkpt><trkpt lat="38.823454" lon="20.6679209"><ele>210.0</ele><time>2026-05-01T08:36:51.835Z</time></trkpt><trkpt lat="38.8234214" lon="20.6677567"><ele>210.0</ele><time>2026-05-01T08:36:52.836Z</time></trkpt><trkpt lat="38.8234179" lon="20.6675781"><ele>210.66666666666669</ele><time>2026-05-01T08:36:53.836Z</time></trkpt><trkpt lat="38.8234518" lon="20.667361"><ele>211.33333333333334</ele><time>2026-05-01T08:36:54.836Z</time></trkpt><trkpt lat="38.8234965" lon="20.6671398"><ele>212.0</ele><time>2026-05-01T08:36:55.836Z</time></trkpt><trkpt lat="38.8235553" lon="20.6669336"><ele>213.33333333333334</ele><time>2026-05-01T08:36:56.835Z</time></trkpt><trkpt lat="38.8236216" lon="20.6667191"><ele>214.66666666666669</ele><time>2026-05-01T08:36:57.835Z</time></trkpt><trkpt lat="38.8236783" lon="20.66649"><ele>216.0</ele><time>2026-05-01T08:36:58.836Z</time></trkpt><trkpt lat="38.8237408" lon="20.6662576"><ele>217.0</ele><time>2026-05-01T08:36:59.834Z</time></trkpt><trkpt lat="38.8237979" lon="20.6660309"><ele>218.0</ele><time>2026-05-01T08:37:00.836Z</time></trkpt><trkpt lat="38.8238528" lon="20.6658026"><ele>219.0</ele><time>2026-05-01T08:37:01.834Z</time></trkpt><trkpt lat="38.8239372" lon="20.6655888"><ele>219.0</ele><time>2026-05-01T08:37:02.835Z</time></trkpt><trkpt lat="38.8239991" lon="20.6653604"><ele>219.0</ele><time>2026-05-01T08:37:03.835Z</time></trkpt><trkpt lat="38.824059" lon="20.6651303"><ele>219.0</ele><time>2026-05-01T08:37:04.835Z</time></trkpt><trkpt lat="38.8241148" lon="20.6649129"><ele>220.33333333333331</ele><time>2026-05-01T08:37:05.836Z</time></trkpt><trkpt lat="38.8241649" lon="20.6646872"><ele>221.66666666666666</ele><time>2026-05-01T08:37:06.836Z</time></trkpt><trkpt lat="38.8242242" lon="20.6644622"><ele>223.0</ele><time>2026-05-01T08:37:07.836Z</time></trkpt><trkpt lat="38.824283" lon="20.664231"><ele>222.66666666666666</ele><time>2026-05-01T08:37:08.836Z</time></trkpt><trkpt lat="38.8243374" lon="20.6639972"><ele>222.33333333333331</ele><time>2026-05-01T08:37:09.836Z</time></trkpt><trkpt lat="38.8243947" lon="20.6637606"><ele>222.0</ele><time>2026-05-01T08:37:10.834Z</time></trkpt><trkpt lat="38.8244415" lon="20.6635231"><ele>222.0</ele><time>2026-05-01T08:37:11.835Z</time></trkpt><trkpt lat="38.8244818" lon="20.663285"><ele>222.0</ele><time>2026-05-01T08:37:12.835Z</time></trkpt><trkpt lat="38.8245191" lon="20.6630453"><ele>222.0</ele><time>2026-05-01T08:37:13.836Z</time></trkpt><trkpt lat="38.8245537" lon="20.6628111"><ele>222.66666666666669</ele><time>2026-05-01T08:37:14.836Z</time></trkpt><trkpt lat="38.8245823" lon="20.6625844"><ele>223.33333333333334</ele><time>2026-05-01T08:37:15.834Z</time></trkpt><trkpt lat="38.8246083" lon="20.6623592"><ele>224.0</ele><time>2026-05-01T08:37:16.835Z</time></trkpt><trkpt lat="38.8246292" lon="20.6621339"><ele>225.33333333333334</ele><time>2026-05-01T08:37:17.836Z</time></trkpt><trkpt lat="38.8246486" lon="20.6619228"><ele>226.66666666666669</ele><time>2026-05-01T08:37:18.835Z</time></trkpt><trkpt lat="38.8246602" lon="20.6617268"><ele>228.0</ele><time>2026-05-01T08:37:19.835Z</time></trkpt><trkpt lat="38.8246533" lon="20.6615372"><ele>228.0</ele><time>2026-05-01T08:37:20.835Z</time></trkpt><trkpt lat="38.8246269" lon="20.661346"><ele>228.0</ele><time>2026-05-01T08:37:21.835Z</time></trkpt><trkpt lat="38.8245646" lon="20.6611635"><ele>228.0</ele><time>2026-05-01T08:37:22.835Z</time></trkpt><trkpt lat="38.8244738" lon="20.660992"><ele>229.0</ele><time>2026-05-01T08:37:23.835Z</time></trkpt><trkpt lat="38.8243639" lon="20.6608259"><ele>230.0</ele><time>2026-05-01T08:37:24.836Z</time></trkpt><trkpt lat="38.8242455" lon="20.6606647"><ele>231.0</ele><time>2026-05-01T08:37:25.836Z</time></trkpt><trkpt lat="38.8241271" lon="20.660512"><ele>232.0</ele><time>2026-05-01T08:37:26.835Z</time></trkpt><trkpt lat="38.8240101" lon="20.6603474"><ele>233.0</ele><time>2026-05-01T08:37:27.835Z</time></trkpt><trkpt lat="38.8239004" lon="20.66018"><ele>234.0</ele><time>2026-05-01T08:37:28.835Z</time></trkpt><trkpt lat="38.8238042" lon="20.6600021"><ele>234.0</ele><time>2026-05-01T08:37:29.836Z</time></trkpt><trkpt lat="38.8237146" lon="20.6598176"><ele>234.0</ele><time>2026-05-01T08:37:30.836Z</time></trkpt><trkpt lat="38.8236346" lon="20.6596001"><ele>234.0</ele><time>2026-05-01T08:37:31.836Z</time></trkpt><trkpt lat="38.8235559" lon="20.659401"><ele>233.66666666666669</ele><time>2026-05-01T08:37:32.835Z</time></trkpt><trkpt lat="38.8234815" lon="20.6591881"><ele>233.33333333333334</ele><time>2026-05-01T08:37:33.834Z</time></trkpt><trkpt lat="38.8234109" lon="20.6589685"><ele>233.0</ele><time>2026-05-01T08:37:34.835Z</time></trkpt><trkpt lat="38.8233298" lon="20.6587585"><ele>231.66666666666669</ele><time>2026-05-01T08:37:35.835Z</time></trkpt><trkpt lat="38.823261" lon="20.6585476"><ele>230.33333333333331</ele><time>2026-05-01T08:37:36.836Z</time></trkpt><trkpt lat="38.8231847" lon="20.6583451"><ele>229.0</ele><time>2026-05-01T08:37:37.835Z</time></trkpt><trkpt lat="38.8230895" lon="20.6581525"><ele>229.0</ele><time>2026-05-01T08:37:38.835Z</time></trkpt><trkpt lat="38.8229887" lon="20.6579658"><ele>229.0</ele><time>2026-05-01T08:37:39.835Z</time></trkpt><trkpt lat="38.8228838" lon="20.6577876"><ele>229.0</ele><time>2026-05-01T08:37:40.834Z</time></trkpt><trkpt lat="38.8227748" lon="20.6576154"><ele>229.66666666666666</ele><time>2026-05-01T08:37:41.835Z</time></trkpt><trkpt lat="38.822666" lon="20.6574546"><ele>230.33333333333331</ele><time>2026-05-01T08:37:42.835Z</time></trkpt><trkpt lat="38.822563" lon="20.6572945"><ele>231.0</ele><time>2026-05-01T08:37:43.836Z</time></trkpt><trkpt lat="38.8224723" lon="20.6571323"><ele>231.0</ele><time>2026-05-01T08:37:44.835Z</time></trkpt><trkpt lat="38.8223647" lon="20.6569936"><ele>231.0</ele><time>2026-05-01T08:37:45.834Z</time></trkpt><trkpt lat="38.8222562" lon="20.6568599"><ele>231.0</ele><time>2026-05-01T08:37:46.836Z</time></trkpt><trkpt lat="38.8221542" lon="20.6567386"><ele>231.0</ele><time>2026-05-01T08:37:47.834Z</time></trkpt><trkpt lat="38.822053" lon="20.6566158"><ele>231.0</ele><time>2026-05-01T08:37:48.836Z</time></trkpt><trkpt lat="38.8219567" lon="20.6565113"><ele>231.0</ele><time>2026-05-01T08:37:49.836Z</time></trkpt><trkpt lat="38.821874" lon="20.6564179"><ele>231.0</ele><time>2026-05-01T08:37:50.836Z</time></trkpt><trkpt lat="38.821791" lon="20.656319"><ele>231.0</ele><time>2026-05-01T08:37:51.835Z</time></trkpt><trkpt lat="38.8217261" lon="20.6562166"><ele>230.5</ele><time>2026-05-01T08:37:52.836Z</time></trkpt><trkpt lat="38.8216361" lon="20.6561096"><ele>230.0</ele><time>2026-05-01T08:37:53.836Z</time></trkpt><trkpt lat="38.8215435" lon="20.6560026"><ele>229.5</ele><time>2026-05-01T08:37:54.836Z</time></trkpt><trkpt lat="38.821456" lon="20.6558961"><ele>229.0</ele><time>2026-05-01T08:37:55.835Z</time></trkpt><trkpt lat="38.8213705" lon="20.6557853"><ele>229.0</ele><time>2026-05-01T08:37:56.836Z</time></trkpt><trkpt lat="38.8212835" lon="20.655678"><ele>229.0</ele><time>2026-05-01T08:37:57.835Z</time></trkpt><trkpt lat="38.8211997" lon="20.6555715"><ele>229.0</ele><time>2026-05-01T08:37:58.836Z</time></trkpt><trkpt lat="38.8211232" lon="20.655457"><ele>229.0</ele><time>2026-05-01T08:37:59.835Z</time></trkpt><trkpt lat="38.8210531" lon="20.6553313"><ele>230.0</ele><time>2026-05-01T08:38:00.836Z</time></trkpt><trkpt lat="38.8210073" lon="20.6551994"><ele>231.0</ele><time>2026-05-01T08:38:01.835Z</time></trkpt><trkpt lat="38.8209705" lon="20.655043"><ele>232.0</ele><time>2026-05-01T08:38:02.836Z</time></trkpt><trkpt lat="38.8209498" lon="20.6548833"><ele>233.0</ele><time>2026-05-01T08:38:03.836Z</time></trkpt><trkpt lat="38.8209355" lon="20.6547247"><ele>233.0</ele><time>2026-05-01T08:38:04.835Z</time></trkpt><trkpt lat="38.8209131" lon="20.6545712"><ele>233.0</ele><time>2026-05-01T08:38:05.834Z</time></trkpt><trkpt lat="38.8208778" lon="20.6544165"><ele>233.0</ele><time>2026-05-01T08:38:06.835Z</time></trkpt><trkpt lat="38.8208349" lon="20.6542606"><ele>233.0</ele><time>2026-05-01T08:38:07.835Z</time></trkpt><trkpt lat="38.8207898" lon="20.6541093"><ele>232.75</ele><time>2026-05-01T08:38:08.836Z</time></trkpt><trkpt lat="38.8207299" lon="20.6539463"><ele>232.5</ele><time>2026-05-01T08:38:09.834Z</time></trkpt><trkpt lat="38.8206431" lon="20.6538019"><ele>232.25</ele><time>2026-05-01T08:38:10.836Z</time></trkpt><trkpt lat="38.820532" lon="20.6536634"><ele>232.0</ele><time>2026-05-01T08:38:11.835Z</time></trkpt><trkpt lat="38.8204281" lon="20.6535429"><ele>231.75</ele><time>2026-05-01T08:38:12.835Z</time></trkpt><trkpt lat="38.820311" lon="20.6534296"><ele>231.5</ele><time>2026-05-01T08:38:13.834Z</time></trkpt><trkpt lat="38.8201728" lon="20.6533299"><ele>231.25</ele><time>2026-05-01T08:38:14.836Z</time></trkpt><trkpt lat="38.8200566" lon="20.6532441"><ele>231.0</ele><time>2026-05-01T08:38:15.836Z</time></trkpt><trkpt lat="38.8199432" lon="20.6531651"><ele>231.0</ele><time>2026-05-01T08:38:16.834Z</time></trkpt><trkpt lat="38.8198279" lon="20.6530808"><ele>231.0</ele><time>2026-05-01T08:38:17.835Z</time></trkpt><trkpt lat="38.8197318" lon="20.6529975"><ele>231.0</ele><time>2026-05-01T08:38:18.836Z</time></trkpt><trkpt lat="38.8196376" lon="20.6529021"><ele>231.0</ele><time>2026-05-01T08:38:19.835Z</time></trkpt><trkpt lat="38.8195646" lon="20.6527938"><ele>229.5</ele><time>2026-05-01T08:38:20.835Z</time></trkpt><trkpt lat="38.8195092" lon="20.6526502"><ele>228.0</ele><time>2026-05-01T08:38:21.834Z</time></trkpt><trkpt lat="38.8194719" lon="20.6525005"><ele>226.5</ele><time>2026-05-01T08:38:22.836Z</time></trkpt><trkpt lat="38.8194426" lon="20.6523436"><ele>225.0</ele><time>2026-05-01T08:38:23.836Z</time></trkpt><trkpt lat="38.8194204" lon="20.6521746"><ele>225.0</ele><time>2026-05-01T08:38:24.832Z</time></trkpt><trkpt lat="38.8194159" lon="20.6520027"><ele>225.0</ele><time>2026-05-01T08:38:25.833Z</time></trkpt><trkpt lat="38.8194057" lon="20.6518157"><ele>225.0</ele><time>2026-05-01T08:38:26.832Z</time></trkpt><trkpt lat="38.8193876" lon="20.6516209"><ele>225.0</ele><time>2026-05-01T08:38:27.835Z</time></trkpt><trkpt lat="38.8193557" lon="20.651425"><ele>225.0</ele><time>2026-05-01T08:38:28.836Z</time></trkpt><trkpt lat="38.8193085" lon="20.6512344"><ele>225.0</ele><time>2026-05-01T08:38:29.833Z</time></trkpt><trkpt lat="38.8192451" lon="20.6510399"><ele>225.0</ele><time>2026-05-01T08:38:30.833Z</time></trkpt><trkpt lat="38.819172" lon="20.6508526"><ele>223.66666666666669</ele><time>2026-05-01T08:38:31.835Z</time></trkpt><trkpt lat="38.8190965" lon="20.6506675"><ele>222.33333333333334</ele><time>2026-05-01T08:38:32.836Z</time></trkpt><trkpt lat="38.8190358" lon="20.6504812"><ele>221.0</ele><time>2026-05-01T08:38:33.833Z</time></trkpt><trkpt lat="38.8189972" lon="20.6502912"><ele>219.66666666666669</ele><time>2026-05-01T08:38:34.836Z</time></trkpt><trkpt lat="38.8189693" lon="20.6501035"><ele>218.33333333333331</ele><time>2026-05-01T08:38:35.835Z</time></trkpt><trkpt lat="38.8189541" lon="20.6499037"><ele>217.0</ele><time>2026-05-01T08:38:36.834Z</time></trkpt><trkpt lat="38.8189604" lon="20.6497068"><ele>217.0</ele><time>2026-05-01T08:38:37.835Z</time></trkpt><trkpt lat="38.8189639" lon="20.6495134"><ele>217.0</ele><time>2026-05-01T08:38:38.836Z</time></trkpt><trkpt lat="38.8189602" lon="20.6493232"><ele>217.0</ele><time>2026-05-01T08:38:39.836Z</time></trkpt><trkpt lat="38.8189419" lon="20.6491359"><ele>217.0</ele><time>2026-05-01T08:38:40.836Z</time></trkpt><trkpt lat="38.8189008" lon="20.6489371"><ele>216.0</ele><time>2026-05-01T08:38:41.835Z</time></trkpt><trkpt lat="38.8188465" lon="20.6487403"><ele>215.0</ele><time>2026-05-01T08:38:42.835Z</time></trkpt><trkpt lat="38.8187828" lon="20.6485473"><ele>214.0</ele><time>2026-05-01T08:38:43.834Z</time></trkpt><trkpt lat="38.8187156" lon="20.6483512"><ele>214.0</ele><time>2026-05-01T08:38:44.835Z</time></trkpt><trkpt lat="38.81864" lon="20.6481498"><ele>214.0</ele><time>2026-05-01T08:38:45.836Z</time></trkpt><trkpt lat="38.8185592" lon="20.6479553"><ele>214.0</ele><time>2026-05-01T08:38:46.835Z</time></trkpt><trkpt lat="38.8184773" lon="20.6477646"><ele>214.0</ele><time>2026-05-01T08:38:47.836Z</time></trkpt><trkpt lat="38.8183861" lon="20.6475877"><ele>214.0</ele><time>2026-05-01T08:38:48.836Z</time></trkpt><trkpt lat="38.8182802" lon="20.6474246"><ele>214.0</ele><time>2026-05-01T08:38:49.836Z</time></trkpt><trkpt lat="38.8181593" lon="20.6472812"><ele>214.0</ele><time>2026-05-01T08:38:50.835Z</time></trkpt><trkpt lat="38.8180247" lon="20.6471654"><ele>214.0</ele><time>2026-05-01T08:38:51.835Z</time></trkpt><trkpt lat="38.8178837" lon="20.6470854"><ele>214.0</ele><time>2026-05-01T08:38:52.835Z</time></trkpt><trkpt lat="38.8177434" lon="20.6470157"><ele>215.25</ele><time>2026-05-01T08:38:53.835Z</time></trkpt><trkpt lat="38.8176153" lon="20.6469636"><ele>216.5</ele><time>2026-05-01T08:38:54.836Z</time></trkpt><trkpt lat="38.8174941" lon="20.6469002"><ele>217.75</ele><time>2026-05-01T08:38:55.836Z</time></trkpt><trkpt lat="38.8173984" lon="20.6468094"><ele>219.0</ele><time>2026-05-01T08:38:56.835Z</time></trkpt><trkpt lat="38.8173164" lon="20.6466764"><ele>215.66666666666669</ele><time>2026-05-01T08:38:57.836Z</time></trkpt><trkpt lat="38.8172677" lon="20.6465104"><ele>212.33333333333334</ele><time>2026-05-01T08:38:58.835Z</time></trkpt><trkpt lat="38.8172447" lon="20.6463307"><ele>209.0</ele><time>2026-05-01T08:38:59.836Z</time></trkpt><trkpt lat="38.8172606" lon="20.646093"><ele>207.66666666666669</ele><time>2026-05-01T08:39:00.836Z</time></trkpt><trkpt lat="38.8172813" lon="20.6458511"><ele>206.33333333333331</ele><time>2026-05-01T08:39:01.835Z</time></trkpt><trkpt lat="38.8173314" lon="20.6455869"><ele>205.0</ele><time>2026-05-01T08:39:02.835Z</time></trkpt><trkpt lat="38.8173993" lon="20.6453353"><ele>204.66666666666666</ele><time>2026-05-01T08:39:03.835Z</time></trkpt><trkpt lat="38.81747" lon="20.6450915"><ele>204.33333333333331</ele><time>2026-05-01T08:39:04.835Z</time></trkpt><trkpt lat="38.8175471" lon="20.6448464"><ele>204.0</ele><time>2026-05-01T08:39:05.836Z</time></trkpt><trkpt lat="38.8176227" lon="20.6446061"><ele>195.0</ele><time>2026-05-01T08:39:06.834Z</time></trkpt><trkpt lat="38.8176904" lon="20.644388"><ele>186.0</ele><time>2026-05-01T08:39:07.836Z</time></trkpt><trkpt lat="38.8177419" lon="20.6441769"><ele>177.0</ele><time>2026-05-01T08:39:08.832Z</time></trkpt><trkpt lat="38.8177828" lon="20.6439544"><ele>177.0</ele><time>2026-05-01T08:39:09.836Z</time></trkpt><trkpt lat="38.8178196" lon="20.6437273"><ele>177.0</ele><time>2026-05-01T08:39:10.835Z</time></trkpt><trkpt lat="38.8178574" lon="20.643497"><ele>177.0</ele><time>2026-05-01T08:39:11.836Z</time></trkpt><trkpt lat="38.8178918" lon="20.6432213"><ele>176.66666666666666</ele><time>2026-05-01T08:39:12.836Z</time></trkpt><trkpt lat="38.8179239" lon="20.6429501"><ele>176.33333333333331</ele><time>2026-05-01T08:39:13.834Z</time></trkpt><trkpt lat="38.8179475" lon="20.6426851"><ele>176.0</ele><time>2026-05-01T08:39:14.835Z</time></trkpt><trkpt lat="38.817969" lon="20.6424335"><ele>177.0</ele><time>2026-05-01T08:39:15.835Z</time></trkpt><trkpt lat="38.817991" lon="20.6421816"><ele>178.0</ele><time>2026-05-01T08:39:16.835Z</time></trkpt><trkpt lat="38.8180051" lon="20.6419259"><ele>179.0</ele><time>2026-05-01T08:39:17.836Z</time></trkpt><trkpt lat="38.8180165" lon="20.6416682"><ele>174.66666666666666</ele><time>2026-05-01T08:39:18.836Z</time></trkpt><trkpt lat="38.8180164" lon="20.6414188"><ele>170.33333333333334</ele><time>2026-05-01T08:39:19.836Z</time></trkpt><trkpt lat="38.8180194" lon="20.6411696"><ele>166.0</ele><time>2026-05-01T08:39:20.834Z</time></trkpt><trkpt lat="38.8180149" lon="20.6409351"><ele>162.33333333333334</ele><time>2026-05-01T08:39:21.833Z</time></trkpt><trkpt lat="38.8180114" lon="20.6406983"><ele>158.66666666666666</ele><time>2026-05-01T08:39:22.836Z</time></trkpt><trkpt lat="38.8180067" lon="20.6404702"><ele>155.0</ele><time>2026-05-01T08:39:23.836Z</time></trkpt><trkpt lat="38.817997" lon="20.6402471"><ele>150.0</ele><time>2026-05-01T08:39:24.835Z</time></trkpt><trkpt lat="38.8179881" lon="20.6400299"><ele>145.0</ele><time>2026-05-01T08:39:25.835Z</time></trkpt><trkpt lat="38.8179565" lon="20.63983"><ele>140.0</ele><time>2026-05-01T08:39:26.835Z</time></trkpt><trkpt lat="38.8179079" lon="20.6396282"><ele>132.33333333333331</ele><time>2026-05-01T08:39:27.836Z</time></trkpt><trkpt lat="38.8178399" lon="20.6394232"><ele>124.66666666666666</ele><time>2026-05-01T08:39:28.835Z</time></trkpt><trkpt lat="38.8177549" lon="20.639233"><ele>117.0</ele><time>2026-05-01T08:39:29.836Z</time></trkpt><trkpt lat="38.8176506" lon="20.639042"><ele>120.33333333333334</ele><time>2026-05-01T08:39:30.835Z</time></trkpt><trkpt lat="38.8175416" lon="20.6388517"><ele>123.66666666666667</ele><time>2026-05-01T08:39:31.834Z</time></trkpt><trkpt lat="38.8174309" lon="20.6386653"><ele>127.0</ele><time>2026-05-01T08:39:32.835Z</time></trkpt><trkpt lat="38.8173251" lon="20.6384837"><ele>127.0</ele><time>2026-05-01T08:39:33.836Z</time></trkpt><trkpt lat="38.817206" lon="20.6383009"><ele>127.0</ele><time>2026-05-01T08:39:34.832Z</time></trkpt><trkpt lat="38.8170965" lon="20.6381251"><ele>127.0</ele><time>2026-05-01T08:39:35.832Z</time></trkpt><trkpt lat="38.8169831" lon="20.6379457"><ele>132.0</ele><time>2026-05-01T08:39:36.835Z</time></trkpt><trkpt lat="38.8168775" lon="20.6377643"><ele>137.0</ele><time>2026-05-01T08:39:37.836Z</time></trkpt><trkpt lat="38.8167703" lon="20.6375793"><ele>142.0</ele><time>2026-05-01T08:39:38.833Z</time></trkpt><trkpt lat="38.8166601" lon="20.6373907"><ele>142.0</ele><time>2026-05-01T08:39:39.835Z</time></trkpt><trkpt lat="38.816566" lon="20.6372061"><ele>142.0</ele><time>2026-05-01T08:39:40.835Z</time></trkpt><trkpt lat="38.8164621" lon="20.6370186"><ele>142.0</ele><time>2026-05-01T08:39:41.836Z</time></trkpt><trkpt lat="38.8163668" lon="20.6368446"><ele>131.33333333333334</ele><time>2026-05-01T08:39:42.835Z</time></trkpt><trkpt lat="38.8162636" lon="20.6366889"><ele>120.66666666666666</ele><time>2026-05-01T08:39:43.835Z</time></trkpt><trkpt lat="38.81615" lon="20.6365457"><ele>110.0</ele><time>2026-05-01T08:39:44.836Z</time></trkpt><trkpt lat="38.8160207" lon="20.6364153"><ele>108.66666666666666</ele><time>2026-05-01T08:39:45.833Z</time></trkpt><trkpt lat="38.8158947" lon="20.6362822"><ele>107.33333333333334</ele><time>2026-05-01T08:39:46.835Z</time></trkpt><trkpt lat="38.8157624" lon="20.6361502"><ele>106.0</ele><time>2026-05-01T08:39:47.834Z</time></trkpt><trkpt lat="38.8156301" lon="20.6360187"><ele>106.0</ele><time>2026-05-01T08:39:48.833Z</time></trkpt><trkpt lat="38.8154951" lon="20.6358903"><ele>106.0</ele><time>2026-05-01T08:39:49.835Z</time></trkpt><trkpt lat="38.815353" lon="20.6357618"><ele>106.0</ele><time>2026-05-01T08:39:50.836Z</time></trkpt><trkpt lat="38.8152111" lon="20.635635"><ele>104.66666666666667</ele><time>2026-05-01T08:39:51.836Z</time></trkpt><trkpt lat="38.8150657" lon="20.6355196"><ele>103.33333333333334</ele><time>2026-05-01T08:39:52.834Z</time></trkpt><trkpt lat="38.8149303" lon="20.6353993"><ele>102.0</ele><time>2026-05-01T08:39:53.835Z</time></trkpt><trkpt lat="38.8148057" lon="20.6352683"><ele>102.0</ele><time>2026-05-01T08:39:54.835Z</time></trkpt><trkpt lat="38.8146949" lon="20.6351334"><ele>102.0</ele><time>2026-05-01T08:39:55.835Z</time></trkpt><trkpt lat="38.8145952" lon="20.6349922"><ele>102.0</ele><time>2026-05-01T08:39:56.834Z</time></trkpt><trkpt lat="38.8145017" lon="20.6348536"><ele>102.0</ele><time>2026-05-01T08:39:57.832Z</time></trkpt><trkpt lat="38.814405" lon="20.6347273"><ele>108.75</ele><time>2026-05-01T08:39:58.834Z</time></trkpt><trkpt lat="38.8142876" lon="20.6346242"><ele>115.5</ele><time>2026-05-01T08:39:59.835Z</time></trkpt><trkpt lat="38.8141676" lon="20.6345605"><ele>122.25</ele><time>2026-05-01T08:40:00.834Z</time></trkpt><trkpt lat="38.8140406" lon="20.6345355"><ele>129.0</ele><time>2026-05-01T08:40:01.836Z</time></trkpt><trkpt lat="38.8139068" lon="20.6345299"><ele>129.0</ele><time>2026-05-01T08:40:02.835Z</time></trkpt><trkpt lat="38.8137629" lon="20.6345346"><ele>129.0</ele><time>2026-05-01T08:40:03.836Z</time></trkpt><trkpt lat="38.8136194" lon="20.6345325"><ele>129.0</ele><time>2026-05-01T08:40:04.836Z</time></trkpt><trkpt lat="38.8134659" lon="20.6345382"><ele>129.0</ele><time>2026-05-01T08:40:05.834Z</time></trkpt><trkpt lat="38.8133074" lon="20.6345593"><ele>131.66666666666666</ele><time>2026-05-01T08:40:06.836Z</time></trkpt><trkpt lat="38.8131469" lon="20.6345916"><ele>134.33333333333331</ele><time>2026-05-01T08:40:07.832Z</time></trkpt><trkpt lat="38.8129901" lon="20.6346242"><ele>137.0</ele><time>2026-05-01T08:40:08.835Z</time></trkpt><trkpt lat="38.8128335" lon="20.6346515"><ele>137.0</ele><time>2026-05-01T08:40:09.834Z</time></trkpt><trkpt lat="38.8126794" lon="20.6346912"><ele>137.0</ele><time>2026-05-01T08:40:10.835Z</time></trkpt><trkpt lat="38.8125314" lon="20.6347481"><ele>137.0</ele><time>2026-05-01T08:40:11.835Z</time></trkpt><trkpt lat="38.8123893" lon="20.6348035"><ele>132.0</ele><time>2026-05-01T08:40:12.835Z</time></trkpt><trkpt lat="38.8122438" lon="20.6348351"><ele>127.0</ele><time>2026-05-01T08:40:13.832Z</time></trkpt><trkpt lat="38.8120979" lon="20.6348357"><ele>122.0</ele><time>2026-05-01T08:40:14.835Z</time></trkpt><trkpt lat="38.8119567" lon="20.6347627"><ele>117.0</ele><time>2026-05-01T08:40:15.835Z</time></trkpt><trkpt lat="38.811829" lon="20.6346655"><ele>118.33333333333334</ele><time>2026-05-01T08:40:16.835Z</time></trkpt><trkpt lat="38.8117103" lon="20.6345598"><ele>119.66666666666667</ele><time>2026-05-01T08:40:17.834Z</time></trkpt><trkpt lat="38.8115725" lon="20.6344982"><ele>121.0</ele><time>2026-05-01T08:40:18.835Z</time></trkpt><trkpt lat="38.8114146" lon="20.6344173"><ele>107.33333333333334</ele><time>2026-05-01T08:40:19.835Z</time></trkpt><trkpt lat="38.8112531" lon="20.6343637"><ele>93.66666666666667</ele><time>2026-05-01T08:40:20.836Z</time></trkpt><trkpt lat="38.8110918" lon="20.6343128"><ele>80.0</ele><time>2026-05-01T08:40:21.832Z</time></trkpt><trkpt lat="38.8109388" lon="20.6342789"><ele>80.0</ele><time>2026-05-01T08:40:22.834Z</time></trkpt><trkpt lat="38.8107776" lon="20.6342466"><ele>80.0</ele><time>2026-05-01T08:40:23.835Z</time></trkpt><trkpt lat="38.810617" lon="20.634226"><ele>80.0</ele><time>2026-05-01T08:40:24.835Z</time></trkpt><trkpt lat="38.8104589" lon="20.6342127"><ele>80.0</ele><time>2026-05-01T08:40:25.836Z</time></trkpt><trkpt lat="38.8103013" lon="20.6342128"><ele>80.0</ele><time>2026-05-01T08:40:26.833Z</time></trkpt><trkpt lat="38.81015" lon="20.6341932"><ele>80.0</ele><time>2026-05-01T08:40:27.834Z</time></trkpt><trkpt lat="38.8100083" lon="20.6341614"><ele>82.66666666666667</ele><time>2026-05-01T08:40:28.833Z</time></trkpt><trkpt lat="38.8098678" lon="20.6340966"><ele>85.33333333333333</ele><time>2026-05-01T08:40:29.836Z</time></trkpt><trkpt lat="38.8097127" lon="20.6340082"><ele>88.0</ele><time>2026-05-01T08:40:30.835Z</time></trkpt><trkpt lat="38.8095468" lon="20.633942"><ele>88.0</ele><time>2026-05-01T08:40:31.836Z</time></trkpt><trkpt lat="38.8093666" lon="20.6338726"><ele>88.0</ele><time>2026-05-01T08:40:32.836Z</time></trkpt><trkpt lat="38.8091892" lon="20.6338215"><ele>88.0</ele><time>2026-05-01T08:40:33.834Z</time></trkpt><trkpt lat="38.8090058" lon="20.6337766"><ele>92.0</ele><time>2026-05-01T08:40:34.835Z</time></trkpt><trkpt lat="38.8088315" lon="20.6337448"><ele>96.0</ele><time>2026-05-01T08:40:35.835Z</time></trkpt><trkpt lat="38.8086561" lon="20.6337154"><ele>100.0</ele><time>2026-05-01T08:40:36.835Z</time></trkpt><trkpt lat="38.8084845" lon="20.6336705"><ele>85.0</ele><time>2026-05-01T08:40:37.836Z</time></trkpt><trkpt lat="38.8083121" lon="20.6336143"><ele>70.0</ele><time>2026-05-01T08:40:38.835Z</time></trkpt><trkpt lat="38.8081404" lon="20.6335644"><ele>55.0</ele><time>2026-05-01T08:40:39.833Z</time></trkpt><trkpt lat="38.807981" lon="20.6335125"><ele>55.0</ele><time>2026-05-01T08:40:40.835Z</time></trkpt><trkpt lat="38.8078194" lon="20.6334615"><ele>55.0</ele><time>2026-05-01T08:40:41.835Z</time></trkpt><trkpt lat="38.8076606" lon="20.6334346"><ele>55.0</ele><time>2026-05-01T08:40:42.835Z</time></trkpt><trkpt lat="38.8075047" lon="20.633398"><ele>57.0</ele><time>2026-05-01T08:40:43.836Z</time></trkpt><trkpt lat="38.8073463" lon="20.6333599"><ele>59.0</ele><time>2026-05-01T08:40:44.836Z</time></trkpt><trkpt lat="38.8071921" lon="20.6333213"><ele>61.0</ele><time>2026-05-01T08:40:45.835Z</time></trkpt><trkpt lat="38.8070405" lon="20.6332693"><ele>61.0</ele><time>2026-05-01T08:40:46.835Z</time></trkpt><trkpt lat="38.8068973" lon="20.633202"><ele>61.0</ele><time>2026-05-01T08:40:47.836Z</time></trkpt><trkpt lat="38.8067556" lon="20.6331295"><ele>61.0</ele><time>2026-05-01T08:40:48.836Z</time></trkpt><trkpt lat="38.80662" lon="20.6330419"><ele>64.25</ele><time>2026-05-01T08:40:49.836Z</time></trkpt><trkpt lat="38.8064915" lon="20.6329484"><ele>67.5</ele><time>2026-05-01T08:40:50.835Z</time></trkpt><trkpt lat="38.8063616" lon="20.6328505"><ele>70.75</ele><time>2026-05-01T08:40:51.835Z</time></trkpt><trkpt lat="38.8062295" lon="20.6327632"><ele>74.0</ele><time>2026-05-01T08:40:52.835Z</time></trkpt><trkpt lat="38.8060928" lon="20.6326925"><ele>64.0</ele><time>2026-05-01T08:40:53.835Z</time></trkpt><trkpt lat="38.8059529" lon="20.6326491"><ele>54.0</ele><time>2026-05-01T08:40:54.835Z</time></trkpt><trkpt lat="38.8058071" lon="20.6326158"><ele>44.0</ele><time>2026-05-01T08:40:55.835Z</time></trkpt><trkpt lat="38.8056602" lon="20.6326061"><ele>34.0</ele><time>2026-05-01T08:40:56.833Z</time></trkpt><trkpt lat="38.8055224" lon="20.6326403"><ele>34.0</ele><time>2026-05-01T08:40:57.835Z</time></trkpt><trkpt lat="38.8053813" lon="20.6326965"><ele>34.0</ele><time>2026-05-01T08:40:58.835Z</time></trkpt><trkpt lat="38.8052535" lon="20.6327865"><ele>34.0</ele><time>2026-05-01T08:40:59.836Z</time></trkpt><trkpt lat="38.8051385" lon="20.6329003"><ele>34.0</ele><time>2026-05-01T08:41:00.835Z</time></trkpt><trkpt lat="38.8050332" lon="20.633025"><ele>39.0</ele><time>2026-05-01T08:41:01.835Z</time></trkpt><trkpt lat="38.8049321" lon="20.6331457"><ele>44.0</ele><time>2026-05-01T08:41:02.836Z</time></trkpt><trkpt lat="38.8048197" lon="20.6332578"><ele>49.0</ele><time>2026-05-01T08:41:03.834Z</time></trkpt><trkpt lat="38.804707" lon="20.633335"><ele>54.0</ele><time>2026-05-01T08:41:04.835Z</time></trkpt><trkpt lat="38.8045967" lon="20.6333707"><ele>54.0</ele><time>2026-05-01T08:41:05.835Z</time></trkpt><trkpt lat="38.8044941" lon="20.633344"><ele>54.00000000000001</ele><time>2026-05-01T08:41:06.835Z</time></trkpt><trkpt lat="38.8044135" lon="20.6332598"><ele>54.00000000000001</ele><time>2026-05-01T08:41:07.835Z</time></trkpt><trkpt lat="38.8043507" lon="20.6331642"><ele>54.0</ele><time>2026-05-01T08:41:08.836Z</time></trkpt><trkpt lat="38.8043009" lon="20.6330277"><ele>54.0</ele><time>2026-05-01T08:41:09.834Z</time></trkpt><trkpt lat="38.8042732" lon="20.6328847"><ele>46.25</ele><time>2026-05-01T08:41:10.836Z</time></trkpt><trkpt lat="38.8042732" lon="20.6327348"><ele>38.5</ele><time>2026-05-01T08:41:11.833Z</time></trkpt><trkpt lat="38.8042913" lon="20.6325861"><ele>30.75</ele><time>2026-05-01T08:41:12.835Z</time></trkpt><trkpt lat="38.8042711" lon="20.6324301"><ele>23.0</ele><time>2026-05-01T08:41:13.835Z</time></trkpt><trkpt lat="38.804228" lon="20.6322906"><ele>23.0</ele><time>2026-05-01T08:41:14.835Z</time></trkpt><trkpt lat="38.8041678" lon="20.632164"><ele>23.0</ele><time>2026-05-01T08:41:15.835Z</time></trkpt><trkpt lat="38.8040954" lon="20.6320434"><ele>23.0</ele><time>2026-05-01T08:41:16.835Z</time></trkpt><trkpt lat="38.8040092" lon="20.6319341"><ele>23.0</ele><time>2026-05-01T08:41:17.836Z</time></trkpt><trkpt lat="38.8039171" lon="20.6318353"><ele>19.333333333333336</ele><time>2026-05-01T08:41:18.832Z</time></trkpt><trkpt lat="38.8038083" lon="20.6317387"><ele>15.666666666666668</ele><time>2026-05-01T08:41:19.835Z</time></trkpt><trkpt lat="38.8036791" lon="20.6316343"><ele>12.0</ele><time>2026-05-01T08:41:20.832Z</time></trkpt><trkpt lat="38.803535" lon="20.6315235"><ele>18.333333333333336</ele><time>2026-05-01T08:41:21.831Z</time></trkpt><trkpt lat="38.8033857" lon="20.6314103"><ele>24.666666666666668</ele><time>2026-05-01T08:41:22.836Z</time></trkpt><trkpt lat="38.8032424" lon="20.6312969"><ele>31.0</ele><time>2026-05-01T08:41:23.836Z</time></trkpt><trkpt lat="38.8030964" lon="20.6311811"><ele>23.0</ele><time>2026-05-01T08:41:24.834Z</time></trkpt><trkpt lat="38.8029551" lon="20.6310668"><ele>15.0</ele><time>2026-05-01T08:41:25.836Z</time></trkpt><trkpt lat="38.8028251" lon="20.6309592"><ele>7.0</ele><time>2026-05-01T08:41:26.836Z</time></trkpt><trkpt lat="38.8026815" lon="20.6308535"><ele>10.0</ele><time>2026-05-01T08:41:27.836Z</time></trkpt><trkpt lat="38.8025497" lon="20.6307491"><ele>13.0</ele><time>2026-05-01T08:41:28.835Z</time></trkpt><trkpt lat="38.8024244" lon="20.6306421"><ele>16.0</ele><time>2026-05-01T08:41:29.835Z</time></trkpt><trkpt lat="38.8023037" lon="20.630543"><ele>19.0</ele><time>2026-05-01T08:41:30.836Z</time></trkpt><trkpt lat="38.8021729" lon="20.6304482"><ele>19.0</ele><time>2026-05-01T08:41:31.836Z</time></trkpt><trkpt lat="38.802046" lon="20.63035"><ele>19.0</ele><time>2026-05-01T08:41:32.836Z</time></trkpt><trkpt lat="38.8019171" lon="20.6302576"><ele>19.0</ele><time>2026-05-01T08:41:33.836Z</time></trkpt><trkpt lat="38.8017882" lon="20.6301592"><ele>19.0</ele><time>2026-05-01T08:41:34.836Z</time></trkpt><trkpt lat="38.8016577" lon="20.6300791"><ele>18.0</ele><time>2026-05-01T08:41:35.835Z</time></trkpt><trkpt lat="38.801511" lon="20.6299832"><ele>17.0</ele><time>2026-05-01T08:41:36.835Z</time></trkpt><trkpt lat="38.8013699" lon="20.6298868"><ele>16.0</ele><time>2026-05-01T08:41:37.835Z</time></trkpt><trkpt lat="38.8012185" lon="20.6297884"><ele>16.0</ele><time>2026-05-01T08:41:38.836Z</time></trkpt><trkpt lat="38.801063" lon="20.6296905"><ele>16.0</ele><time>2026-05-01T08:41:39.836Z</time></trkpt><trkpt lat="38.8008858" lon="20.6295885"><ele>16.0</ele><time>2026-05-01T08:41:40.833Z</time></trkpt><trkpt lat="38.8007054" lon="20.6294841"><ele>13.333333333333332</ele><time>2026-05-01T08:41:41.836Z</time></trkpt><trkpt lat="38.8005203" lon="20.6293708"><ele>10.666666666666666</ele><time>2026-05-01T08:41:42.834Z</time></trkpt><trkpt lat="38.800328" lon="20.6292697"><ele>8.0</ele><time>2026-05-01T08:41:43.835Z</time></trkpt><trkpt lat="38.8001467" lon="20.6291592"><ele>13.333333333333332</ele><time>2026-05-01T08:41:44.835Z</time></trkpt><trkpt lat="38.7999717" lon="20.6290521"><ele>18.666666666666668</ele><time>2026-05-01T08:41:45.836Z</time></trkpt><trkpt lat="38.7998016" lon="20.6289447"><ele>24.0</ele><time>2026-05-01T08:41:46.835Z</time></trkpt><trkpt lat="38.7996295" lon="20.6288506"><ele>24.0</ele><time>2026-05-01T08:41:47.836Z</time></trkpt><trkpt lat="38.7994672" lon="20.6287559"><ele>24.0</ele><time>2026-05-01T08:41:48.835Z</time></trkpt><trkpt lat="38.799302" lon="20.6286518"><ele>24.0</ele><time>2026-05-01T08:41:49.836Z</time></trkpt><trkpt lat="38.7991394" lon="20.6285531"><ele>19.666666666666668</ele><time>2026-05-01T08:41:50.835Z</time></trkpt><trkpt lat="38.7989802" lon="20.628455"><ele>15.333333333333332</ele><time>2026-05-01T08:41:51.834Z</time></trkpt><trkpt lat="38.7988037" lon="20.62836"><ele>11.0</ele><time>2026-05-01T08:41:52.836Z</time></trkpt><trkpt lat="38.7986347" lon="20.6282661"><ele>16.666666666666668</ele><time>2026-05-01T08:41:53.835Z</time></trkpt><trkpt lat="38.7984704" lon="20.6281674"><ele>22.333333333333336</ele><time>2026-05-01T08:41:54.835Z</time></trkpt><trkpt lat="38.7982995" lon="20.6280583"><ele>28.0</ele><time>2026-05-01T08:41:55.836Z</time></trkpt><trkpt lat="38.7981364" lon="20.6279517"><ele>28.0</ele><time>2026-05-01T08:41:56.835Z</time></trkpt><trkpt lat="38.797964" lon="20.6278458"><ele>28.0</ele><time>2026-05-01T08:41:57.836Z</time></trkpt><trkpt lat="38.7977971" lon="20.6277311"><ele>28.0</ele><time>2026-05-01T08:41:58.836Z</time></trkpt><trkpt lat="38.7976279" lon="20.6276204"><ele>25.333333333333336</ele><time>2026-05-01T08:41:59.834Z</time></trkpt><trkpt lat="38.7974652" lon="20.6275017"><ele>22.666666666666668</ele><time>2026-05-01T08:42:00.836Z</time></trkpt><trkpt lat="38.7972997" lon="20.627374"><ele>20.0</ele><time>2026-05-01T08:42:01.835Z</time></trkpt><trkpt lat="38.7971389" lon="20.6272578"><ele>20.0</ele><time>2026-05-01T08:42:02.835Z</time></trkpt><trkpt lat="38.7969802" lon="20.6271411"><ele>20.0</ele><time>2026-05-01T08:42:03.836Z</time></trkpt><trkpt lat="38.7968215" lon="20.6270177"><ele>20.0</ele><time>2026-05-01T08:42:04.836Z</time></trkpt><trkpt lat="38.796663" lon="20.6268964"><ele>18.0</ele><time>2026-05-01T08:42:05.835Z</time></trkpt><trkpt lat="38.7965092" lon="20.6267769"><ele>16.0</ele><time>2026-05-01T08:42:06.834Z</time></trkpt><trkpt lat="38.7963575" lon="20.6266531"><ele>14.0</ele><time>2026-05-01T08:42:07.835Z</time></trkpt><trkpt lat="38.7962115" lon="20.6265367"><ele>14.0</ele><time>2026-05-01T08:42:08.835Z</time></trkpt><trkpt lat="38.7960585" lon="20.6264194"><ele>14.0</ele><time>2026-05-01T08:42:09.832Z</time></trkpt><trkpt lat="38.795909" lon="20.6263082"><ele>14.0</ele><time>2026-05-01T08:42:10.833Z</time></trkpt><trkpt lat="38.7957647" lon="20.6262067"><ele>11.666666666666668</ele><time>2026-05-01T08:42:11.832Z</time></trkpt><trkpt lat="38.7956244" lon="20.6261079"><ele>9.333333333333334</ele><time>2026-05-01T08:42:12.832Z</time></trkpt><trkpt lat="38.7954825" lon="20.6260089"><ele>7.0</ele><time>2026-05-01T08:42:13.833Z</time></trkpt><trkpt lat="38.7953395" lon="20.6259076"><ele>7.0</ele><time>2026-05-01T08:42:14.834Z</time></trkpt><trkpt lat="38.7952087" lon="20.6258081"><ele>7.0</ele><time>2026-05-01T08:42:15.833Z</time></trkpt><trkpt lat="38.7950774" lon="20.6257071"><ele>7.0</ele><time>2026-05-01T08:42:16.836Z</time></trkpt><trkpt lat="38.794952" lon="20.6256047"><ele>6.333333333333334</ele><time>2026-05-01T08:42:17.833Z</time></trkpt><trkpt lat="38.7948123" lon="20.6255096"><ele>5.666666666666667</ele><time>2026-05-01T08:42:18.833Z</time></trkpt><trkpt lat="38.7946765" lon="20.6254108"><ele>5.0</ele><time>2026-05-01T08:42:19.836Z</time></trkpt><trkpt lat="38.794541" lon="20.6253114"><ele>5.0</ele><time>2026-05-01T08:42:20.834Z</time></trkpt><trkpt lat="38.7944005" lon="20.6252036"><ele>5.0</ele><time>2026-05-01T08:42:21.836Z</time></trkpt><trkpt lat="38.7942606" lon="20.6250806"><ele>5.0</ele><time>2026-05-01T08:42:22.835Z</time></trkpt><trkpt lat="38.7941125" lon="20.6249482"><ele>7.666666666666666</ele><time>2026-05-01T08:42:23.836Z</time></trkpt><trkpt lat="38.7939689" lon="20.624824"><ele>10.333333333333332</ele><time>2026-05-01T08:42:24.834Z</time></trkpt><trkpt lat="38.793822" lon="20.6247004"><ele>13.0</ele><time>2026-05-01T08:42:25.836Z</time></trkpt><trkpt lat="38.7936761" lon="20.6245727"><ele>11.0</ele><time>2026-05-01T08:42:26.834Z</time></trkpt><trkpt lat="38.7935364" lon="20.6244439"><ele>9.0</ele><time>2026-05-01T08:42:27.835Z</time></trkpt><trkpt lat="38.7934073" lon="20.6243234"><ele>7.0</ele><time>2026-05-01T08:42:28.835Z</time></trkpt><trkpt lat="38.793277" lon="20.6241696"><ele>7.0</ele><time>2026-05-01T08:42:29.835Z</time></trkpt><trkpt lat="38.7931372" lon="20.6239993"><ele>7.0</ele><time>2026-05-01T08:42:30.836Z</time></trkpt><trkpt lat="38.7930094" lon="20.6238344"><ele>7.0</ele><time>2026-05-01T08:42:31.836Z</time></trkpt><trkpt lat="38.7928742" lon="20.6236674"><ele>8.333333333333334</ele><time>2026-05-01T08:42:32.835Z</time></trkpt><trkpt lat="38.7927426" lon="20.6234996"><ele>9.666666666666666</ele><time>2026-05-01T08:42:33.832Z</time></trkpt><trkpt lat="38.7926131" lon="20.6233378"><ele>11.0</ele><time>2026-05-01T08:42:34.835Z</time></trkpt><trkpt lat="38.7924874" lon="20.6231647"><ele>11.0</ele><time>2026-05-01T08:42:35.834Z</time></trkpt><trkpt lat="38.7923634" lon="20.6229829"><ele>11.0</ele><time>2026-05-01T08:42:36.835Z</time></trkpt><trkpt lat="38.7922332" lon="20.6228098"><ele>11.0</ele><time>2026-05-01T08:42:37.833Z</time></trkpt><trkpt lat="38.7921066" lon="20.6226391"><ele>8.333333333333332</ele><time>2026-05-01T08:42:38.834Z</time></trkpt><trkpt lat="38.7919835" lon="20.6224725"><ele>5.666666666666666</ele><time>2026-05-01T08:42:39.833Z</time></trkpt><trkpt lat="38.7918692" lon="20.6223047"><ele>3.0</ele><time>2026-05-01T08:42:40.833Z</time></trkpt><trkpt lat="38.7917556" lon="20.6221454"><ele>6.666666666666667</ele><time>2026-05-01T08:42:41.834Z</time></trkpt><trkpt lat="38.7916482" lon="20.6219956"><ele>10.333333333333334</ele><time>2026-05-01T08:42:42.834Z</time></trkpt><trkpt lat="38.7915587" lon="20.6218439"><ele>14.0</ele><time>2026-05-01T08:42:43.833Z</time></trkpt><trkpt lat="38.7914788" lon="20.6216865"><ele>14.0</ele><time>2026-05-01T08:42:44.835Z</time></trkpt><trkpt lat="38.7914212" lon="20.6215138"><ele>14.0</ele><time>2026-05-01T08:42:45.832Z</time></trkpt><trkpt lat="38.7913763" lon="20.6213242"><ele>14.0</ele><time>2026-05-01T08:42:46.833Z</time></trkpt><trkpt lat="38.7913453" lon="20.6211205"><ele>11.666666666666668</ele><time>2026-05-01T08:42:47.833Z</time></trkpt><trkpt lat="38.7913263" lon="20.620913"><ele>9.333333333333334</ele><time>2026-05-01T08:42:48.832Z</time></trkpt><trkpt lat="38.79131" lon="20.6207017"><ele>7.0</ele><time>2026-05-01T08:42:49.834Z</time></trkpt><trkpt lat="38.7912874" lon="20.6204935"><ele>6.0</ele><time>2026-05-01T08:42:50.836Z</time></trkpt><trkpt lat="38.7912528" lon="20.6202894"><ele>5.0</ele><time>2026-05-01T08:42:51.835Z</time></trkpt><trkpt lat="38.7912058" lon="20.6200755"><ele>4.0</ele><time>2026-05-01T08:42:52.834Z</time></trkpt><trkpt lat="38.7911421" lon="20.6198535"><ele>4.0</ele><time>2026-05-01T08:42:53.831Z</time></trkpt><trkpt lat="38.791064" lon="20.6196336"><ele>4.0</ele><time>2026-05-01T08:42:54.831Z</time></trkpt><trkpt lat="38.7909886" lon="20.6194192"><ele>4.0</ele><time>2026-05-01T08:42:55.835Z</time></trkpt><trkpt lat="38.7909156" lon="20.6192045"><ele>6.666666666666666</ele><time>2026-05-01T08:42:56.834Z</time></trkpt><trkpt lat="38.7908443" lon="20.6189979"><ele>9.333333333333334</ele><time>2026-05-01T08:42:57.834Z</time></trkpt><trkpt lat="38.7907826" lon="20.6187914"><ele>12.0</ele><time>2026-05-01T08:42:58.834Z</time></trkpt><trkpt lat="38.7907258" lon="20.6185848"><ele>12.0</ele><time>2026-05-01T08:42:59.834Z</time></trkpt><trkpt lat="38.7906687" lon="20.6183859"><ele>12.0</ele><time>2026-05-01T08:43:00.832Z</time></trkpt><trkpt lat="38.7906172" lon="20.6181917"><ele>12.0</ele><time>2026-05-01T08:43:01.833Z</time></trkpt><trkpt lat="38.790571" lon="20.6179965"><ele>10.0</ele><time>2026-05-01T08:43:02.833Z</time></trkpt><trkpt lat="38.790523" lon="20.6177942"><ele>8.0</ele><time>2026-05-01T08:43:03.833Z</time></trkpt><trkpt lat="38.7904585" lon="20.617589"><ele>6.0</ele><time>2026-05-01T08:43:04.835Z</time></trkpt><trkpt lat="38.790384" lon="20.6173833"><ele>6.0</ele><time>2026-05-01T08:43:05.835Z</time></trkpt><trkpt lat="38.790299" lon="20.6171877"><ele>6.0</ele><time>2026-05-01T08:43:06.833Z</time></trkpt><trkpt lat="38.790222" lon="20.6169975"><ele>6.0</ele><time>2026-05-01T08:43:07.833Z</time></trkpt><trkpt lat="38.7901459" lon="20.616808"><ele>9.666666666666668</ele><time>2026-05-01T08:43:08.833Z</time></trkpt><trkpt lat="38.7900719" lon="20.6166177"><ele>13.333333333333334</ele><time>2026-05-01T08:43:09.832Z</time></trkpt><trkpt lat="38.7899996" lon="20.6164329"><ele>17.0</ele><time>2026-05-01T08:43:10.835Z</time></trkpt><trkpt lat="38.7899364" lon="20.6162565"><ele>17.0</ele><time>2026-05-01T08:43:11.834Z</time></trkpt><trkpt lat="38.7898859" lon="20.6160819"><ele>17.0</ele><time>2026-05-01T08:43:12.832Z</time></trkpt><trkpt lat="38.7898564" lon="20.6158985"><ele>17.0</ele><time>2026-05-01T08:43:13.835Z</time></trkpt><trkpt lat="38.7898451" lon="20.6157206"><ele>17.0</ele><time>2026-05-01T08:43:14.836Z</time></trkpt><trkpt lat="38.7898443" lon="20.6155448"><ele>17.0</ele><time>2026-05-01T08:43:15.834Z</time></trkpt><trkpt lat="38.7898456" lon="20.6153834"><ele>17.0</ele><time>2026-05-01T08:43:16.835Z</time></trkpt><trkpt lat="38.7898432" lon="20.6152401"><ele>17.0</ele><time>2026-05-01T08:43:17.835Z</time></trkpt><trkpt lat="38.7898332" lon="20.6151083"><ele>17.0</ele><time>2026-05-01T08:43:18.835Z</time></trkpt><trkpt lat="38.7898073" lon="20.6149828"><ele>17.0</ele><time>2026-05-01T08:43:19.835Z</time></trkpt><trkpt lat="38.7897646" lon="20.6148643"><ele>17.0</ele><time>2026-05-01T08:43:20.834Z</time></trkpt><trkpt lat="38.7897035" lon="20.6147611"><ele>17.0</ele><time>2026-05-01T08:43:21.834Z</time></trkpt><trkpt lat="38.7896173" lon="20.6146882"><ele>17.0</ele><time>2026-05-01T08:43:22.836Z</time></trkpt><trkpt lat="38.7895262" lon="20.6146414"><ele>17.0</ele><time>2026-05-01T08:43:23.833Z</time></trkpt><trkpt lat="38.7894316" lon="20.6145949"><ele>17.0</ele><time>2026-05-01T08:43:24.835Z</time></trkpt><trkpt lat="38.7893275" lon="20.6145499"><ele>19.4</ele><time>2026-05-01T08:43:25.835Z</time></trkpt><trkpt lat="38.7892291" lon="20.6145105"><ele>21.799999999999997</ele><time>2026-05-01T08:43:26.836Z</time></trkpt><trkpt lat="38.7891223" lon="20.6144627"><ele>24.2</ele><time>2026-05-01T08:43:27.836Z</time></trkpt><trkpt lat="38.7890271" lon="20.6144238"><ele>26.599999999999998</ele><time>2026-05-01T08:43:28.835Z</time></trkpt><trkpt lat="38.7889282" lon="20.6143804"><ele>29.0</ele><time>2026-05-01T08:43:29.835Z</time></trkpt><trkpt lat="38.7888277" lon="20.6143345"><ele>29.0</ele><time>2026-05-01T08:43:30.835Z</time></trkpt><trkpt lat="38.7887303" lon="20.6142776"><ele>29.0</ele><time>2026-05-01T08:43:31.833Z</time></trkpt><trkpt lat="38.7886381" lon="20.6142322"><ele>29.0</ele><time>2026-05-01T08:43:32.834Z</time></trkpt><trkpt lat="38.7885345" lon="20.6142099"><ele>29.0</ele><time>2026-05-01T08:43:33.835Z</time></trkpt><trkpt lat="38.7884318" lon="20.6141996"><ele>29.0</ele><time>2026-05-01T08:43:34.833Z</time></trkpt><trkpt lat="38.7883205" lon="20.6141993"><ele>29.799999999999997</ele><time>2026-05-01T08:43:35.835Z</time></trkpt><trkpt lat="38.7882136" lon="20.6142086"><ele>30.599999999999998</ele><time>2026-05-01T08:43:36.832Z</time></trkpt><trkpt lat="38.788106" lon="20.6142139"><ele>31.4</ele><time>2026-05-01T08:43:37.836Z</time></trkpt><trkpt lat="38.7880097" lon="20.614213"><ele>32.199999999999996</ele><time>2026-05-01T08:43:38.836Z</time></trkpt><trkpt lat="38.7879265" lon="20.6142052"><ele>33.0</ele><time>2026-05-01T08:43:39.834Z</time></trkpt><trkpt lat="38.7878619" lon="20.6141967"><ele>33.0</ele><time>2026-05-01T08:43:40.835Z</time></trkpt><trkpt lat="38.7877701" lon="20.6141703"><ele>33.0</ele><time>2026-05-01T08:43:42.833Z</time></trkpt><trkpt lat="38.7876863" lon="20.6141377"><ele>33.0</ele><time>2026-05-01T08:43:44.835Z</time></trkpt><trkpt lat="38.7875756" lon="20.614071"><ele>33.0</ele><time>2026-05-01T08:43:46.836Z</time></trkpt><trkpt lat="38.7875123" lon="20.6140206"><ele>33.0</ele><time>2026-05-01T08:43:47.836Z</time></trkpt><trkpt lat="38.7874486" lon="20.6139631"><ele>33.0</ele><time>2026-05-01T08:43:48.833Z</time></trkpt><trkpt lat="38.7874022" lon="20.6138975"><ele>33.0</ele><time>2026-05-01T08:43:49.836Z</time></trkpt><trkpt lat="38.7873506" lon="20.6138359"><ele>33.0</ele><time>2026-05-01T08:43:50.834Z</time></trkpt><trkpt lat="38.7873099" lon="20.6137715"><ele>33.0</ele><time>2026-05-01T08:43:51.836Z</time></trkpt><trkpt lat="38.7872666" lon="20.613617"><ele>33.0</ele><time>2026-05-01T08:43:53.836Z</time></trkpt><trkpt lat="38.7872652" lon="20.6135266"><ele>33.0</ele><time>2026-05-01T08:43:54.836Z</time></trkpt><trkpt lat="38.7872575" lon="20.6134131"><ele>33.0</ele><time>2026-05-01T08:43:55.836Z</time></trkpt><trkpt lat="38.787257" lon="20.6133086"><ele>33.0</ele><time>2026-05-01T08:43:56.836Z</time></trkpt><trkpt lat="38.7872581" lon="20.6132129"><ele>33.0</ele><time>2026-05-01T08:43:57.835Z</time></trkpt><trkpt lat="38.7872614" lon="20.6131266"><ele>33.0</ele><time>2026-05-01T08:43:58.836Z</time></trkpt><trkpt lat="38.7872721" lon="20.6129683"><ele>33.0</ele><time>2026-05-01T08:44:00.835Z</time></trkpt><trkpt lat="38.7872894" lon="20.6128336"><ele>32.5</ele><time>2026-05-01T08:44:02.834Z</time></trkpt><trkpt lat="38.7873119" lon="20.6127115"><ele>32.0</ele><time>2026-05-01T08:44:04.835Z</time></trkpt><trkpt lat="38.7873582" lon="20.612632"><ele>31.5</ele><time>2026-05-01T08:44:07.833Z</time></trkpt><trkpt lat="38.7874367" lon="20.6125754"><ele>31.0</ele><time>2026-05-01T08:45:49.834Z</time></trkpt><trkpt lat="38.787433" lon="20.6124925"><ele>30.5</ele><time>2026-05-01T08:45:52.835Z</time></trkpt><trkpt lat="38.7874049" lon="20.6123988"><ele>30.0</ele><time>2026-05-01T08:45:54.834Z</time></trkpt><trkpt lat="38.7873035" lon="20.6122964"><ele>30.0</ele><time>2026-05-01T08:45:56.834Z</time></trkpt><trkpt lat="38.7872201" lon="20.6122557"><ele>30.0</ele><time>2026-05-01T08:45:57.834Z</time></trkpt><trkpt lat="38.7871329" lon="20.6122335"><ele>30.0</ele><time>2026-05-01T08:45:58.835Z</time></trkpt><trkpt lat="38.7870292" lon="20.6122347"><ele>30.0</ele><time>2026-05-01T08:45:59.835Z</time></trkpt><trkpt lat="38.7869155" lon="20.6122287"><ele>30.0</ele><time>2026-05-01T08:46:00.835Z</time></trkpt><trkpt lat="38.786788" lon="20.6122211"><ele>31.75</ele><time>2026-05-01T08:46:01.834Z</time></trkpt><trkpt lat="38.7866638" lon="20.6122088"><ele>33.5</ele><time>2026-05-01T08:46:02.836Z</time></trkpt><trkpt lat="38.7865321" lon="20.61221"><ele>35.25</ele><time>2026-05-01T08:46:03.836Z</time></trkpt><trkpt lat="38.7863966" lon="20.6122059"><ele>37.0</ele><time>2026-05-01T08:46:04.836Z</time></trkpt><trkpt lat="38.7862678" lon="20.612197"><ele>37.0</ele><time>2026-05-01T08:46:05.835Z</time></trkpt><trkpt lat="38.7861435" lon="20.6121902"><ele>37.0</ele><time>2026-05-01T08:46:06.835Z</time></trkpt><trkpt lat="38.7860252" lon="20.6121683"><ele>37.0</ele><time>2026-05-01T08:46:07.835Z</time></trkpt><trkpt lat="38.7859163" lon="20.6121194"><ele>37.0</ele><time>2026-05-01T08:46:08.835Z</time></trkpt><trkpt lat="38.7858119" lon="20.6120518"><ele>40.0</ele><time>2026-05-01T08:46:09.833Z</time></trkpt><trkpt lat="38.7857089" lon="20.6119616"><ele>43.0</ele><time>2026-05-01T08:46:10.833Z</time></trkpt><trkpt lat="38.7856045" lon="20.6118538"><ele>46.0</ele><time>2026-05-01T08:46:11.836Z</time></trkpt><trkpt lat="38.7855083" lon="20.6117312"><ele>49.0</ele><time>2026-05-01T08:46:12.835Z</time></trkpt><trkpt lat="38.785424" lon="20.6115775"><ele>49.0</ele><time>2026-05-01T08:46:13.835Z</time></trkpt><trkpt lat="38.7853495" lon="20.6114181"><ele>49.0</ele><time>2026-05-01T08:46:14.833Z</time></trkpt><trkpt lat="38.7852745" lon="20.6112523"><ele>49.0</ele><time>2026-05-01T08:46:15.834Z</time></trkpt><trkpt lat="38.7851959" lon="20.6110865"><ele>49.0</ele><time>2026-05-01T08:46:16.833Z</time></trkpt><trkpt lat="38.7851131" lon="20.6109199"><ele>51.33333333333333</ele><time>2026-05-01T08:46:17.835Z</time></trkpt><trkpt lat="38.7850088" lon="20.6107568"><ele>53.66666666666667</ele><time>2026-05-01T08:46:18.835Z</time></trkpt><trkpt lat="38.7848924" lon="20.6106038"><ele>56.0</ele><time>2026-05-01T08:46:19.835Z</time></trkpt><trkpt lat="38.784773" lon="20.6104628"><ele>56.0</ele><time>2026-05-01T08:46:20.833Z</time></trkpt><trkpt lat="38.7846508" lon="20.6103319"><ele>56.0</ele><time>2026-05-01T08:46:21.836Z</time></trkpt><trkpt lat="38.7845263" lon="20.6102081"><ele>56.0</ele><time>2026-05-01T08:46:22.835Z</time></trkpt><trkpt lat="38.7844021" lon="20.610097"><ele>58.333333333333336</ele><time>2026-05-01T08:46:23.833Z</time></trkpt><trkpt lat="38.7842684" lon="20.6099982"><ele>60.66666666666667</ele><time>2026-05-01T08:46:24.835Z</time></trkpt><trkpt lat="38.7841251" lon="20.6099197"><ele>63.0</ele><time>2026-05-01T08:46:25.834Z</time></trkpt><trkpt lat="38.7839668" lon="20.6098445"><ele>63.0</ele><time>2026-05-01T08:46:26.833Z</time></trkpt><trkpt lat="38.7838031" lon="20.6097711"><ele>63.0</ele><time>2026-05-01T08:46:27.835Z</time></trkpt><trkpt lat="38.7836408" lon="20.6096993"><ele>63.0</ele><time>2026-05-01T08:46:28.834Z</time></trkpt><trkpt lat="38.7834698" lon="20.6096236"><ele>62.66666666666667</ele><time>2026-05-01T08:46:29.834Z</time></trkpt><trkpt lat="38.7833084" lon="20.6095457"><ele>62.333333333333336</ele><time>2026-05-01T08:46:30.835Z</time></trkpt><trkpt lat="38.7831418" lon="20.6094576"><ele>62.0</ele><time>2026-05-01T08:46:31.833Z</time></trkpt><trkpt lat="38.7829809" lon="20.6093636"><ele>63.0</ele><time>2026-05-01T08:46:32.834Z</time></trkpt><trkpt lat="38.7828224" lon="20.6092672"><ele>64.0</ele><time>2026-05-01T08:46:33.835Z</time></trkpt><trkpt lat="38.7826668" lon="20.609145"><ele>65.0</ele><time>2026-05-01T08:46:34.835Z</time></trkpt><trkpt lat="38.7825203" lon="20.6090072"><ele>65.0</ele><time>2026-05-01T08:46:35.835Z</time></trkpt><trkpt lat="38.7823719" lon="20.6088636"><ele>65.0</ele><time>2026-05-01T08:46:36.834Z</time></trkpt><trkpt lat="38.7822131" lon="20.6087217"><ele>65.0</ele><time>2026-05-01T08:46:37.832Z</time></trkpt><trkpt lat="38.7820534" lon="20.6085895"><ele>70.66666666666667</ele><time>2026-05-01T08:46:38.836Z</time></trkpt><trkpt lat="38.7818956" lon="20.6084846"><ele>76.33333333333333</ele><time>2026-05-01T08:46:39.834Z</time></trkpt><trkpt lat="38.7817378" lon="20.6083975"><ele>82.0</ele><time>2026-05-01T08:46:40.834Z</time></trkpt><trkpt lat="38.781578" lon="20.6083324"><ele>82.0</ele><time>2026-05-01T08:46:41.834Z</time></trkpt><trkpt lat="38.7814131" lon="20.6082856"><ele>82.0</ele><time>2026-05-01T08:46:42.834Z</time></trkpt><trkpt lat="38.7812503" lon="20.6082431"><ele>82.0</ele><time>2026-05-01T08:46:43.832Z</time></trkpt><trkpt lat="38.7810948" lon="20.6082072"><ele>80.33333333333333</ele><time>2026-05-01T08:46:44.835Z</time></trkpt><trkpt lat="38.7809432" lon="20.6081674"><ele>78.66666666666667</ele><time>2026-05-01T08:46:45.834Z</time></trkpt><trkpt lat="38.7807891" lon="20.6081164"><ele>77.0</ele><time>2026-05-01T08:46:46.834Z</time></trkpt><trkpt lat="38.7806378" lon="20.6080496"><ele>77.0</ele><time>2026-05-01T08:46:47.833Z</time></trkpt><trkpt lat="38.7804825" lon="20.6079696"><ele>77.0</ele><time>2026-05-01T08:46:48.834Z</time></trkpt><trkpt lat="38.7803343" lon="20.6078727"><ele>77.0</ele><time>2026-05-01T08:46:49.833Z</time></trkpt><trkpt lat="38.7801863" lon="20.6077659"><ele>81.0</ele><time>2026-05-01T08:46:50.835Z</time></trkpt><trkpt lat="38.7800422" lon="20.6076528"><ele>85.0</ele><time>2026-05-01T08:46:51.833Z</time></trkpt><trkpt lat="38.7798858" lon="20.6075275"><ele>89.0</ele><time>2026-05-01T08:46:52.834Z</time></trkpt><trkpt lat="38.7797441" lon="20.6074196"><ele>89.0</ele><time>2026-05-01T08:46:53.834Z</time></trkpt><trkpt lat="38.7795991" lon="20.6073026"><ele>89.0</ele><time>2026-05-01T08:46:54.834Z</time></trkpt><trkpt lat="38.7794434" lon="20.6071949"><ele>89.0</ele><time>2026-05-01T08:46:55.834Z</time></trkpt><trkpt lat="38.7792908" lon="20.6070719"><ele>94.66666666666667</ele><time>2026-05-01T08:46:56.834Z</time></trkpt><trkpt lat="38.7791389" lon="20.6069722"><ele>100.33333333333334</ele><time>2026-05-01T08:46:57.833Z</time></trkpt><trkpt lat="38.7789723" lon="20.6068897"><ele>106.0</ele><time>2026-05-01T08:46:58.834Z</time></trkpt><trkpt lat="38.7788082" lon="20.6068307"><ele>106.0</ele><time>2026-05-01T08:46:59.832Z</time></trkpt><trkpt lat="38.7786279" lon="20.6067974"><ele>106.0</ele><time>2026-05-01T08:47:00.834Z</time></trkpt><trkpt lat="38.7784497" lon="20.6067782"><ele>106.0</ele><time>2026-05-01T08:47:01.836Z</time></trkpt><trkpt lat="38.7782632" lon="20.6067501"><ele>103.0</ele><time>2026-05-01T08:47:02.833Z</time></trkpt><trkpt lat="38.7780785" lon="20.606707"><ele>100.0</ele><time>2026-05-01T08:47:03.834Z</time></trkpt><trkpt lat="38.7779" lon="20.6066532"><ele>97.0</ele><time>2026-05-01T08:47:04.835Z</time></trkpt><trkpt lat="38.7777187" lon="20.6065956"><ele>97.33333333333334</ele><time>2026-05-01T08:47:05.833Z</time></trkpt><trkpt lat="38.7775556" lon="20.6065372"><ele>97.66666666666666</ele><time>2026-05-01T08:47:06.834Z</time></trkpt><trkpt lat="38.7773901" lon="20.6064755"><ele>98.0</ele><time>2026-05-01T08:47:07.834Z</time></trkpt><trkpt lat="38.7772288" lon="20.6064148"><ele>98.0</ele><time>2026-05-01T08:47:08.833Z</time></trkpt><trkpt lat="38.7770679" lon="20.6063578"><ele>98.0</ele><time>2026-05-01T08:47:09.834Z</time></trkpt><trkpt lat="38.7769111" lon="20.6063042"><ele>98.0</ele><time>2026-05-01T08:47:10.835Z</time></trkpt><trkpt lat="38.776757" lon="20.6062486"><ele>99.66666666666666</ele><time>2026-05-01T08:47:11.835Z</time></trkpt><trkpt lat="38.7766021" lon="20.6061867"><ele>101.33333333333334</ele><time>2026-05-01T08:47:12.834Z</time></trkpt><trkpt lat="38.7764624" lon="20.606122"><ele>103.0</ele><time>2026-05-01T08:47:13.834Z</time></trkpt><trkpt lat="38.7763309" lon="20.6060442"><ele>104.33333333333334</ele><time>2026-05-01T08:47:14.835Z</time></trkpt><trkpt lat="38.7762282" lon="20.6059251"><ele>105.66666666666666</ele><time>2026-05-01T08:47:15.835Z</time></trkpt><trkpt lat="38.7761146" lon="20.6057856"><ele>107.0</ele><time>2026-05-01T08:47:16.835Z</time></trkpt><trkpt lat="38.7760046" lon="20.6056292"><ele>107.0</ele><time>2026-05-01T08:47:17.834Z</time></trkpt><trkpt lat="38.7758928" lon="20.6054617"><ele>107.0</ele><time>2026-05-01T08:47:18.835Z</time></trkpt><trkpt lat="38.7757732" lon="20.6053054"><ele>107.0</ele><time>2026-05-01T08:47:19.833Z</time></trkpt><trkpt lat="38.7756445" lon="20.6051524"><ele>112.33333333333333</ele><time>2026-05-01T08:47:20.836Z</time></trkpt><trkpt lat="38.7755062" lon="20.6050145"><ele>117.66666666666666</ele><time>2026-05-01T08:47:21.835Z</time></trkpt><trkpt lat="38.7753526" lon="20.6048764"><ele>123.0</ele><time>2026-05-01T08:47:22.834Z</time></trkpt><trkpt lat="38.775212" lon="20.6047476"><ele>123.33333333333334</ele><time>2026-05-01T08:47:23.835Z</time></trkpt><trkpt lat="38.7750615" lon="20.6046119"><ele>123.66666666666667</ele><time>2026-05-01T08:47:24.835Z</time></trkpt><trkpt lat="38.7749057" lon="20.6044831"><ele>124.0</ele><time>2026-05-01T08:47:25.836Z</time></trkpt><trkpt lat="38.774752" lon="20.6043616"><ele>124.0</ele><time>2026-05-01T08:47:26.833Z</time></trkpt><trkpt lat="38.7745898" lon="20.604243"><ele>124.0</ele><time>2026-05-01T08:47:27.832Z</time></trkpt><trkpt lat="38.7744271" lon="20.6041259"><ele>124.0</ele><time>2026-05-01T08:47:28.834Z</time></trkpt><trkpt lat="38.7742861" lon="20.604051"><ele>121.66666666666667</ele><time>2026-05-01T08:47:29.833Z</time></trkpt><trkpt lat="38.7741292" lon="20.6039983"><ele>119.33333333333334</ele><time>2026-05-01T08:47:30.833Z</time></trkpt><trkpt lat="38.7739783" lon="20.60397"><ele>117.0</ele><time>2026-05-01T08:47:31.836Z</time></trkpt><trkpt lat="38.7738271" lon="20.6039571"><ele>117.0</ele><time>2026-05-01T08:47:32.835Z</time></trkpt><trkpt lat="38.7736685" lon="20.6039515"><ele>117.0</ele><time>2026-05-01T08:47:33.835Z</time></trkpt><trkpt lat="38.7735451" lon="20.6039717"><ele>117.0</ele><time>2026-05-01T08:47:34.835Z</time></trkpt><trkpt lat="38.7734346" lon="20.6040021"><ele>117.0</ele><time>2026-05-01T08:47:35.834Z</time></trkpt><trkpt lat="38.7733805" lon="20.604075"><ele>117.8</ele><time>2026-05-01T08:47:36.835Z</time></trkpt><trkpt lat="38.7733427" lon="20.6041655"><ele>118.6</ele><time>2026-05-01T08:47:37.834Z</time></trkpt><trkpt lat="38.7733384" lon="20.6042859"><ele>119.39999999999999</ele><time>2026-05-01T08:47:38.831Z</time></trkpt><trkpt lat="38.7733591" lon="20.6044141"><ele>120.19999999999999</ele><time>2026-05-01T08:47:39.834Z</time></trkpt><trkpt lat="38.7733768" lon="20.6045516"><ele>121.0</ele><time>2026-05-01T08:47:40.834Z</time></trkpt><trkpt lat="38.773353" lon="20.6047344"><ele>122.0</ele><time>2026-05-01T08:47:41.833Z</time></trkpt><trkpt lat="38.7733346" lon="20.6049127"><ele>123.0</ele><time>2026-05-01T08:47:42.832Z</time></trkpt><trkpt lat="38.7732555" lon="20.6051179"><ele>124.0</ele><time>2026-05-01T08:47:43.836Z</time></trkpt><trkpt lat="38.7732169" lon="20.6053142"><ele>126.0</ele><time>2026-05-01T08:47:44.833Z</time></trkpt><trkpt lat="38.7732045" lon="20.6055208"><ele>128.0</ele><time>2026-05-01T08:47:45.833Z</time></trkpt><trkpt lat="38.7732206" lon="20.6057255"><ele>130.0</ele><time>2026-05-01T08:47:46.832Z</time></trkpt><trkpt lat="38.7732577" lon="20.6059258"><ele>130.0</ele><time>2026-05-01T08:47:47.832Z</time></trkpt><trkpt lat="38.7733271" lon="20.6061039"><ele>130.0</ele><time>2026-05-01T08:47:48.835Z</time></trkpt><trkpt lat="38.7734092" lon="20.6062733"><ele>130.0</ele><time>2026-05-01T08:47:49.831Z</time></trkpt><trkpt lat="38.7734959" lon="20.6064355"><ele>131.5</ele><time>2026-05-01T08:47:50.834Z</time></trkpt><trkpt lat="38.7735719" lon="20.6065874"><ele>133.0</ele><time>2026-05-01T08:47:51.832Z</time></trkpt><trkpt lat="38.7736245" lon="20.6067392"><ele>134.5</ele><time>2026-05-01T08:47:52.835Z</time></trkpt><trkpt lat="38.7736597" lon="20.6069128"><ele>136.0</ele><time>2026-05-01T08:47:53.832Z</time></trkpt><trkpt lat="38.773674" lon="20.6071074"><ele>136.0</ele><time>2026-05-01T08:47:54.833Z</time></trkpt><trkpt lat="38.7736885" lon="20.6073204"><ele>136.0</ele><time>2026-05-01T08:47:55.833Z</time></trkpt><trkpt lat="38.773683" lon="20.6075361"><ele>136.0</ele><time>2026-05-01T08:47:56.835Z</time></trkpt><trkpt lat="38.7736787" lon="20.6077536"><ele>139.33333333333334</ele><time>2026-05-01T08:47:57.833Z</time></trkpt><trkpt lat="38.7736712" lon="20.6079652"><ele>142.66666666666666</ele><time>2026-05-01T08:47:58.834Z</time></trkpt><trkpt lat="38.7736675" lon="20.6081705"><ele>146.0</ele><time>2026-05-01T08:47:59.833Z</time></trkpt><trkpt lat="38.7736654" lon="20.6083673"><ele>146.0</ele><time>2026-05-01T08:48:00.833Z</time></trkpt><trkpt lat="38.7736777" lon="20.6085555"><ele>146.0</ele><time>2026-05-01T08:48:01.832Z</time></trkpt><trkpt lat="38.7737261" lon="20.6087286"><ele>146.0</ele><time>2026-05-01T08:48:02.834Z</time></trkpt><trkpt lat="38.7737925" lon="20.6089006"><ele>146.0</ele><time>2026-05-01T08:48:03.835Z</time></trkpt><trkpt lat="38.7738748" lon="20.6090685"><ele>149.66666666666666</ele><time>2026-05-01T08:48:04.831Z</time></trkpt><trkpt lat="38.7739737" lon="20.6092505"><ele>153.33333333333334</ele><time>2026-05-01T08:48:05.836Z</time></trkpt><trkpt lat="38.774079" lon="20.6094409"><ele>157.0</ele><time>2026-05-01T08:48:06.833Z</time></trkpt><trkpt lat="38.7741888" lon="20.6096342"><ele>157.0</ele><time>2026-05-01T08:48:07.833Z</time></trkpt><trkpt lat="38.7743053" lon="20.6098316"><ele>157.0</ele><time>2026-05-01T08:48:08.836Z</time></trkpt><trkpt lat="38.7744306" lon="20.6100355"><ele>157.0</ele><time>2026-05-01T08:48:09.833Z</time></trkpt><trkpt lat="38.7745496" lon="20.6102407"><ele>159.66666666666669</ele><time>2026-05-01T08:48:10.836Z</time></trkpt><trkpt lat="38.7746675" lon="20.6104265"><ele>162.33333333333334</ele><time>2026-05-01T08:48:11.836Z</time></trkpt><trkpt lat="38.7748016" lon="20.6105922"><ele>165.0</ele><time>2026-05-01T08:48:12.835Z</time></trkpt><trkpt lat="38.774948" lon="20.6107341"><ele>165.0</ele><time>2026-05-01T08:48:13.836Z</time></trkpt><trkpt lat="38.7751073" lon="20.6108563"><ele>165.0</ele><time>2026-05-01T08:48:14.836Z</time></trkpt><trkpt lat="38.7752801" lon="20.6109547"><ele>165.0</ele><time>2026-05-01T08:48:15.835Z</time></trkpt><trkpt lat="38.7754414" lon="20.6110412"><ele>165.5</ele><time>2026-05-01T08:48:16.836Z</time></trkpt><trkpt lat="38.7755848" lon="20.6111216"><ele>166.0</ele><time>2026-05-01T08:48:17.835Z</time></trkpt><trkpt lat="38.7757203" lon="20.6112117"><ele>166.5</ele><time>2026-05-01T08:48:18.835Z</time></trkpt><trkpt lat="38.7758309" lon="20.6113059"><ele>167.0</ele><time>2026-05-01T08:48:19.834Z</time></trkpt><trkpt lat="38.7758917" lon="20.6114104"><ele>168.39999999999998</ele><time>2026-05-01T08:48:20.836Z</time></trkpt><trkpt lat="38.7759412" lon="20.6115279"><ele>169.79999999999998</ele><time>2026-05-01T08:48:21.834Z</time></trkpt><trkpt lat="38.7759458" lon="20.6116565"><ele>171.2</ele><time>2026-05-01T08:48:22.834Z</time></trkpt><trkpt lat="38.775922" lon="20.6117749"><ele>172.6</ele><time>2026-05-01T08:48:23.835Z</time></trkpt><trkpt lat="38.775812" lon="20.6118422"><ele>174.0</ele><time>2026-05-01T08:48:24.835Z</time></trkpt><trkpt lat="38.7756808" lon="20.6118828"><ele>174.0</ele><time>2026-05-01T08:48:25.835Z</time></trkpt><trkpt lat="38.7755058" lon="20.6119066"><ele>174.0</ele><time>2026-05-01T08:48:26.833Z</time></trkpt><trkpt lat="38.7753171" lon="20.6119599"><ele>174.0</ele><time>2026-05-01T08:48:27.836Z</time></trkpt><trkpt lat="38.7751261" lon="20.6120153"><ele>181.33333333333331</ele><time>2026-05-01T08:48:28.835Z</time></trkpt><trkpt lat="38.7749349" lon="20.61206"><ele>188.66666666666666</ele><time>2026-05-01T08:48:29.835Z</time></trkpt><trkpt lat="38.7747512" lon="20.612106"><ele>196.0</ele><time>2026-05-01T08:48:30.836Z</time></trkpt><trkpt lat="38.7745632" lon="20.6121113"><ele>196.0</ele><time>2026-05-01T08:48:31.835Z</time></trkpt><trkpt lat="38.7743826" lon="20.6121097"><ele>196.0</ele><time>2026-05-01T08:48:32.836Z</time></trkpt><trkpt lat="38.7741996" lon="20.6120728"><ele>196.0</ele><time>2026-05-01T08:48:33.835Z</time></trkpt><trkpt lat="38.7740205" lon="20.6120293"><ele>195.33333333333331</ele><time>2026-05-01T08:48:34.836Z</time></trkpt><trkpt lat="38.7738448" lon="20.6119673"><ele>194.66666666666669</ele><time>2026-05-01T08:48:35.836Z</time></trkpt><trkpt lat="38.7736676" lon="20.6118966"><ele>194.0</ele><time>2026-05-01T08:48:36.835Z</time></trkpt><trkpt lat="38.7734941" lon="20.6118286"><ele>194.0</ele><time>2026-05-01T08:48:37.833Z</time></trkpt><trkpt lat="38.7733222" lon="20.6117547"><ele>194.0</ele><time>2026-05-01T08:48:38.835Z</time></trkpt><trkpt lat="38.7731393" lon="20.6116506"><ele>194.0</ele><time>2026-05-01T08:48:39.835Z</time></trkpt><trkpt lat="38.7729441" lon="20.6115537"><ele>194.0</ele><time>2026-05-01T08:48:40.834Z</time></trkpt><trkpt lat="38.7727526" lon="20.6114623"><ele>194.0</ele><time>2026-05-01T08:48:41.836Z</time></trkpt><trkpt lat="38.772567" lon="20.6113658"><ele>194.0</ele><time>2026-05-01T08:48:42.836Z</time></trkpt><trkpt lat="38.7723921" lon="20.6112735"><ele>193.33333333333334</ele><time>2026-05-01T08:48:43.832Z</time></trkpt><trkpt lat="38.7722279" lon="20.6111833"><ele>192.66666666666669</ele><time>2026-05-01T08:48:44.834Z</time></trkpt><trkpt lat="38.7720792" lon="20.6110672"><ele>192.0</ele><time>2026-05-01T08:48:45.835Z</time></trkpt><trkpt lat="38.7719437" lon="20.6109337"><ele>202.33333333333331</ele><time>2026-05-01T08:48:46.833Z</time></trkpt><trkpt lat="38.7718024" lon="20.6107797"><ele>212.66666666666666</ele><time>2026-05-01T08:48:47.833Z</time></trkpt><trkpt lat="38.7716792" lon="20.6106028"><ele>223.0</ele><time>2026-05-01T08:48:48.834Z</time></trkpt><trkpt lat="38.7715755" lon="20.6104097"><ele>217.33333333333331</ele><time>2026-05-01T08:48:49.836Z</time></trkpt><trkpt lat="38.7714933" lon="20.6102082"><ele>211.66666666666669</ele><time>2026-05-01T08:48:50.836Z</time></trkpt><trkpt lat="38.7714248" lon="20.609978"><ele>206.0</ele><time>2026-05-01T08:48:51.835Z</time></trkpt><trkpt lat="38.7713623" lon="20.6097235"><ele>204.0</ele><time>2026-05-01T08:48:52.833Z</time></trkpt><trkpt lat="38.7712994" lon="20.609464"><ele>202.0</ele><time>2026-05-01T08:48:53.832Z</time></trkpt><trkpt lat="38.771234" lon="20.6092077"><ele>200.0</ele><time>2026-05-01T08:48:54.832Z</time></trkpt><trkpt lat="38.7711732" lon="20.6089583"><ele>200.0</ele><time>2026-05-01T08:48:55.833Z</time></trkpt><trkpt lat="38.7711176" lon="20.6087308"><ele>200.0</ele><time>2026-05-01T08:48:56.833Z</time></trkpt><trkpt lat="38.7710706" lon="20.6085106"><ele>200.0</ele><time>2026-05-01T08:48:57.835Z</time></trkpt><trkpt lat="38.771023" lon="20.6083056"><ele>206.75</ele><time>2026-05-01T08:48:58.834Z</time></trkpt><trkpt lat="38.7709763" lon="20.6081346"><ele>213.5</ele><time>2026-05-01T08:48:59.834Z</time></trkpt><trkpt lat="38.7709189" lon="20.607976"><ele>220.25</ele><time>2026-05-01T08:49:00.836Z</time></trkpt><trkpt lat="38.7708511" lon="20.607836"><ele>227.0</ele><time>2026-05-01T08:49:01.834Z</time></trkpt><trkpt lat="38.7707666" lon="20.6077148"><ele>227.0</ele><time>2026-05-01T08:49:02.833Z</time></trkpt><trkpt lat="38.7706575" lon="20.6076095"><ele>227.0</ele><time>2026-05-01T08:49:03.835Z</time></trkpt><trkpt lat="38.7705301" lon="20.6075326"><ele>227.0</ele><time>2026-05-01T08:49:04.834Z</time></trkpt><trkpt lat="38.7703678" lon="20.6074862"><ele>227.0</ele><time>2026-05-01T08:49:05.835Z</time></trkpt><trkpt lat="38.770193" lon="20.6074539"><ele>231.66666666666669</ele><time>2026-05-01T08:49:06.835Z</time></trkpt><trkpt lat="38.7699937" lon="20.6074357"><ele>236.33333333333331</ele><time>2026-05-01T08:49:07.836Z</time></trkpt><trkpt lat="38.7697913" lon="20.6074372"><ele>241.0</ele><time>2026-05-01T08:49:08.836Z</time></trkpt><trkpt lat="38.7695982" lon="20.6074513"><ele>241.0</ele><time>2026-05-01T08:49:09.835Z</time></trkpt><trkpt lat="38.7694106" lon="20.6074764"><ele>241.0</ele><time>2026-05-01T08:49:10.836Z</time></trkpt><trkpt lat="38.7692318" lon="20.6074969"><ele>241.0</ele><time>2026-05-01T08:49:11.835Z</time></trkpt><trkpt lat="38.7690603" lon="20.6075082"><ele>244.33333333333331</ele><time>2026-05-01T08:49:12.836Z</time></trkpt><trkpt lat="38.768915" lon="20.6075081"><ele>247.66666666666669</ele><time>2026-05-01T08:49:13.831Z</time></trkpt><trkpt lat="38.7687632" lon="20.6074928"><ele>251.0</ele><time>2026-05-01T08:49:14.835Z</time></trkpt><trkpt lat="38.7686069" lon="20.6074571"><ele>254.66666666666669</ele><time>2026-05-01T08:49:15.836Z</time></trkpt><trkpt lat="38.768461" lon="20.6073967"><ele>258.3333333333333</ele><time>2026-05-01T08:49:16.835Z</time></trkpt><trkpt lat="38.7683077" lon="20.607267"><ele>262.0</ele><time>2026-05-01T08:49:17.834Z</time></trkpt><trkpt lat="38.7681625" lon="20.6071325"><ele>262.0</ele><time>2026-05-01T08:49:18.836Z</time></trkpt><trkpt lat="38.7680504" lon="20.6070113"><ele>262.0</ele><time>2026-05-01T08:49:19.836Z</time></trkpt><trkpt lat="38.7679449" lon="20.6068902"><ele>262.0</ele><time>2026-05-01T08:49:20.835Z</time></trkpt><trkpt lat="38.7678381" lon="20.6067904"><ele>262.0</ele><time>2026-05-01T08:49:21.834Z</time></trkpt><trkpt lat="38.7677175" lon="20.6067171"><ele>262.75</ele><time>2026-05-01T08:49:22.836Z</time></trkpt><trkpt lat="38.7675931" lon="20.6066707"><ele>263.5</ele><time>2026-05-01T08:49:23.836Z</time></trkpt><trkpt lat="38.7674535" lon="20.6066518"><ele>264.25</ele><time>2026-05-01T08:49:24.834Z</time></trkpt><trkpt lat="38.7672968" lon="20.6066502"><ele>265.0</ele><time>2026-05-01T08:49:25.835Z</time></trkpt><trkpt lat="38.7671321" lon="20.6066629"><ele>265.0</ele><time>2026-05-01T08:49:26.836Z</time></trkpt><trkpt lat="38.766963" lon="20.6066884"><ele>265.0</ele><time>2026-05-01T08:49:27.835Z</time></trkpt><trkpt lat="38.7667935" lon="20.6067256"><ele>265.0</ele><time>2026-05-01T08:49:28.835Z</time></trkpt><trkpt lat="38.7666275" lon="20.6067719"><ele>266.66666666666663</ele><time>2026-05-01T08:49:29.836Z</time></trkpt><trkpt lat="38.7664647" lon="20.6068138"><ele>268.3333333333333</ele><time>2026-05-01T08:49:30.833Z</time></trkpt><trkpt lat="38.7663075" lon="20.6068606"><ele>270.0</ele><time>2026-05-01T08:49:31.835Z</time></trkpt><trkpt lat="38.7661559" lon="20.606912"><ele>269.6666666666667</ele><time>2026-05-01T08:49:32.836Z</time></trkpt><trkpt lat="38.7660026" lon="20.6069619"><ele>269.33333333333337</ele><time>2026-05-01T08:49:33.835Z</time></trkpt><trkpt lat="38.7658571" lon="20.6070103"><ele>269.0</ele><time>2026-05-01T08:49:34.835Z</time></trkpt><trkpt lat="38.765717" lon="20.6070535"><ele>273.5</ele><time>2026-05-01T08:49:35.836Z</time></trkpt><trkpt lat="38.7655864" lon="20.6070828"><ele>278.0</ele><time>2026-05-01T08:49:36.836Z</time></trkpt><trkpt lat="38.765451" lon="20.6071025"><ele>282.5</ele><time>2026-05-01T08:49:37.835Z</time></trkpt><trkpt lat="38.7653121" lon="20.6071155"><ele>287.0</ele><time>2026-05-01T08:49:38.836Z</time></trkpt><trkpt lat="38.7651641" lon="20.6071295"><ele>287.0</ele><time>2026-05-01T08:49:39.833Z</time></trkpt><trkpt lat="38.765008" lon="20.607127"><ele>287.0</ele><time>2026-05-01T08:49:40.835Z</time></trkpt><trkpt lat="38.7648574" lon="20.6071348"><ele>287.0</ele><time>2026-05-01T08:49:41.832Z</time></trkpt><trkpt lat="38.7647186" lon="20.6071501"><ele>287.0</ele><time>2026-05-01T08:49:42.832Z</time></trkpt><trkpt lat="38.7645871" lon="20.6071537"><ele>287.0</ele><time>2026-05-01T08:49:43.832Z</time></trkpt><trkpt lat="38.7644612" lon="20.6071455"><ele>287.0</ele><time>2026-05-01T08:49:44.832Z</time></trkpt><trkpt lat="38.7643403" lon="20.6071066"><ele>287.0</ele><time>2026-05-01T08:49:45.834Z</time></trkpt><trkpt lat="38.7642211" lon="20.6070636"><ele>287.0</ele><time>2026-05-01T08:49:46.833Z</time></trkpt><trkpt lat="38.7641132" lon="20.6070052"><ele>284.4</ele><time>2026-05-01T08:49:47.836Z</time></trkpt><trkpt lat="38.7640155" lon="20.6069452"><ele>281.79999999999995</ele><time>2026-05-01T08:49:48.835Z</time></trkpt><trkpt lat="38.7639202" lon="20.6068958"><ele>279.2</ele><time>2026-05-01T08:49:49.833Z</time></trkpt><trkpt lat="38.7638164" lon="20.6068753"><ele>276.59999999999997</ele><time>2026-05-01T08:49:50.832Z</time></trkpt><trkpt lat="38.7637116" lon="20.6068763"><ele>274.0</ele><time>2026-05-01T08:49:51.835Z</time></trkpt><trkpt lat="38.7636221" lon="20.6069223"><ele>275.25</ele><time>2026-05-01T08:49:52.836Z</time></trkpt><trkpt lat="38.7635254" lon="20.6069983"><ele>276.5</ele><time>2026-05-01T08:49:53.836Z</time></trkpt><trkpt lat="38.7634313" lon="20.6071088"><ele>277.75</ele><time>2026-05-01T08:49:54.835Z</time></trkpt><trkpt lat="38.7633489" lon="20.6072502"><ele>279.0</ele><time>2026-05-01T08:49:55.836Z</time></trkpt><trkpt lat="38.7632625" lon="20.6074006"><ele>279.0</ele><time>2026-05-01T08:49:56.836Z</time></trkpt><trkpt lat="38.7631751" lon="20.6075506"><ele>279.0</ele><time>2026-05-01T08:49:57.835Z</time></trkpt><trkpt lat="38.7630926" lon="20.6076937"><ele>279.0</ele><time>2026-05-01T08:49:58.832Z</time></trkpt><trkpt lat="38.7630131" lon="20.60783"><ele>279.0</ele><time>2026-05-01T08:49:59.835Z</time></trkpt><trkpt lat="38.7629357" lon="20.6079585"><ele>278.8</ele><time>2026-05-01T08:50:00.836Z</time></trkpt><trkpt lat="38.7628617" lon="20.6080755"><ele>278.59999999999997</ele><time>2026-05-01T08:50:01.835Z</time></trkpt><trkpt lat="38.7627861" lon="20.6081752"><ele>278.4</ele><time>2026-05-01T08:50:02.836Z</time></trkpt><trkpt lat="38.7626983" lon="20.6082405"><ele>278.2</ele><time>2026-05-01T08:50:03.834Z</time></trkpt><trkpt lat="38.7626128" lon="20.6082743"><ele>278.0</ele><time>2026-05-01T08:50:04.835Z</time></trkpt><trkpt lat="38.7625312" lon="20.6082468"><ele>278.0</ele><time>2026-05-01T08:50:05.835Z</time></trkpt><trkpt lat="38.7624579" lon="20.6081769"><ele>278.0</ele><time>2026-05-01T08:50:06.833Z</time></trkpt><trkpt lat="38.7623955" lon="20.6080909"><ele>278.0</ele><time>2026-05-01T08:50:07.835Z</time></trkpt><trkpt lat="38.762322" lon="20.6080164"><ele>278.0</ele><time>2026-05-01T08:50:08.835Z</time></trkpt><trkpt lat="38.7622323" lon="20.607976"><ele>278.0</ele><time>2026-05-01T08:50:09.836Z</time></trkpt><trkpt lat="38.762136" lon="20.6079708"><ele>278.0</ele><time>2026-05-01T08:50:10.833Z</time></trkpt><trkpt lat="38.762042" lon="20.6080052"><ele>278.0</ele><time>2026-05-01T08:50:11.835Z</time></trkpt><trkpt lat="38.7619411" lon="20.6080814"><ele>278.0</ele><time>2026-05-01T08:50:12.835Z</time></trkpt><trkpt lat="38.7618381" lon="20.6081574"><ele>278.0</ele><time>2026-05-01T08:50:13.834Z</time></trkpt><trkpt lat="38.7617311" lon="20.6082351"><ele>277.5</ele><time>2026-05-01T08:50:14.834Z</time></trkpt><trkpt lat="38.7616227" lon="20.6082883"><ele>277.0</ele><time>2026-05-01T08:50:15.835Z</time></trkpt><trkpt lat="38.761514" lon="20.6083353"><ele>276.5</ele><time>2026-05-01T08:50:16.835Z</time></trkpt><trkpt lat="38.761401" lon="20.6083581"><ele>276.0</ele><time>2026-05-01T08:50:17.835Z</time></trkpt><trkpt lat="38.7612936" lon="20.6083348"><ele>276.0</ele><time>2026-05-01T08:50:18.836Z</time></trkpt><trkpt lat="38.7611826" lon="20.6082896"><ele>276.0</ele><time>2026-05-01T08:50:19.836Z</time></trkpt><trkpt lat="38.7610728" lon="20.6082412"><ele>276.0</ele><time>2026-05-01T08:50:20.831Z</time></trkpt><trkpt lat="38.7609629" lon="20.6081928"><ele>276.0</ele><time>2026-05-01T08:50:21.834Z</time></trkpt><trkpt lat="38.7608603" lon="20.6081553"><ele>275.40000000000003</ele><time>2026-05-01T08:50:22.832Z</time></trkpt><trkpt lat="38.760755" lon="20.6081525"><ele>274.8</ele><time>2026-05-01T08:50:23.833Z</time></trkpt><trkpt lat="38.7606548" lon="20.6081885"><ele>274.20000000000005</ele><time>2026-05-01T08:50:24.835Z</time></trkpt><trkpt lat="38.7605665" lon="20.608267"><ele>273.6</ele><time>2026-05-01T08:50:25.836Z</time></trkpt><trkpt lat="38.760484" lon="20.608378"><ele>273.0</ele><time>2026-05-01T08:50:26.835Z</time></trkpt><trkpt lat="38.7604016" lon="20.6085102"><ele>276.0</ele><time>2026-05-01T08:50:27.834Z</time></trkpt><trkpt lat="38.7603233" lon="20.6086621"><ele>279.0</ele><time>2026-05-01T08:50:28.836Z</time></trkpt><trkpt lat="38.7602417" lon="20.6088035"><ele>282.0</ele><time>2026-05-01T08:50:29.835Z</time></trkpt><trkpt lat="38.7601467" lon="20.6089281"><ele>285.0</ele><time>2026-05-01T08:50:30.833Z</time></trkpt><trkpt lat="38.7600339" lon="20.6090326"><ele>285.0</ele><time>2026-05-01T08:50:31.832Z</time></trkpt><trkpt lat="38.7599054" lon="20.6090984"><ele>285.0</ele><time>2026-05-01T08:50:32.836Z</time></trkpt><trkpt lat="38.7597856" lon="20.6091518"><ele>285.0</ele><time>2026-05-01T08:50:33.833Z</time></trkpt><trkpt lat="38.7596739" lon="20.6091212"><ele>285.0</ele><time>2026-05-01T08:50:34.834Z</time></trkpt><trkpt lat="38.7595756" lon="20.6090746"><ele>285.0</ele><time>2026-05-01T08:50:35.835Z</time></trkpt><trkpt lat="38.7595173" lon="20.6089879"><ele>285.0</ele><time>2026-05-01T08:50:36.835Z</time></trkpt><trkpt lat="38.7594852" lon="20.60888"><ele>285.0</ele><time>2026-05-01T08:50:37.836Z</time></trkpt><trkpt lat="38.7595169" lon="20.6087598"><ele>285.0</ele><time>2026-05-01T08:50:38.834Z</time></trkpt><trkpt lat="38.7595465" lon="20.6086413"><ele>285.0</ele><time>2026-05-01T08:50:39.832Z</time></trkpt><trkpt lat="38.7596266" lon="20.6084614"><ele>282.6666666666667</ele><time>2026-05-01T08:50:40.836Z</time></trkpt><trkpt lat="38.7597584" lon="20.6082818"><ele>280.33333333333337</ele><time>2026-05-01T08:50:41.836Z</time></trkpt><trkpt lat="38.7598715" lon="20.6081227"><ele>278.0</ele><time>2026-05-01T08:50:42.834Z</time></trkpt><trkpt lat="38.75999" lon="20.6079623"><ele>276.0</ele><time>2026-05-01T08:50:43.832Z</time></trkpt><trkpt lat="38.7601435" lon="20.6078182"><ele>274.0</ele><time>2026-05-01T08:50:44.833Z</time></trkpt><trkpt lat="38.7602813" lon="20.6076805"><ele>272.0</ele><time>2026-05-01T08:50:45.832Z</time></trkpt><trkpt lat="38.7603973" lon="20.6075812"><ele>272.0</ele><time>2026-05-01T08:50:46.833Z</time></trkpt><trkpt lat="38.7605095" lon="20.6074955"><ele>272.0</ele><time>2026-05-01T08:50:47.834Z</time></trkpt><trkpt lat="38.7606162" lon="20.6073837"><ele>272.0</ele><time>2026-05-01T08:50:48.833Z</time></trkpt><trkpt lat="38.7607216" lon="20.6072328"><ele>272.0</ele><time>2026-05-01T08:50:49.835Z</time></trkpt><trkpt lat="38.7608199" lon="20.607072"><ele>267.33333333333337</ele><time>2026-05-01T08:50:50.832Z</time></trkpt><trkpt lat="38.7609243" lon="20.6069018"><ele>262.6666666666667</ele><time>2026-05-01T08:50:51.832Z</time></trkpt><trkpt lat="38.7610265" lon="20.6067376"><ele>258.0</ele><time>2026-05-01T08:50:52.833Z</time></trkpt><trkpt lat="38.7611155" lon="20.6065493"><ele>258.0</ele><time>2026-05-01T08:50:53.834Z</time></trkpt><trkpt lat="38.7611878" lon="20.6063693"><ele>258.0</ele><time>2026-05-01T08:50:54.833Z</time></trkpt><trkpt lat="38.7612567" lon="20.6061988"><ele>258.0</ele><time>2026-05-01T08:50:55.832Z</time></trkpt><trkpt lat="38.7613337" lon="20.6060298"><ele>261.4</ele><time>2026-05-01T08:50:56.834Z</time></trkpt><trkpt lat="38.7613895" lon="20.6059097"><ele>264.8</ele><time>2026-05-01T08:50:57.834Z</time></trkpt><trkpt lat="38.7614394" lon="20.6057929"><ele>268.2</ele><time>2026-05-01T08:50:58.834Z</time></trkpt><trkpt lat="38.7614617" lon="20.605704"><ele>271.6</ele><time>2026-05-01T08:50:59.832Z</time></trkpt><trkpt lat="38.7614566" lon="20.6056231"><ele>275.0</ele><time>2026-05-01T08:51:00.833Z</time></trkpt><trkpt lat="38.7613617" lon="20.605545"><ele>275.0</ele><time>2026-05-01T08:51:02.833Z</time></trkpt><trkpt lat="38.7612913" lon="20.6055627"><ele>275.0</ele><time>2026-05-01T08:51:03.834Z</time></trkpt><trkpt lat="38.7612149" lon="20.605614"><ele>275.0</ele><time>2026-05-01T08:51:04.832Z</time></trkpt><trkpt lat="38.7611513" lon="20.6056966"><ele>275.0</ele><time>2026-05-01T08:51:05.831Z</time></trkpt><trkpt lat="38.7610955" lon="20.6058145"><ele>275.0</ele><time>2026-05-01T08:51:06.832Z</time></trkpt><trkpt lat="38.7610468" lon="20.6059518"><ele>279.0</ele><time>2026-05-01T08:51:07.833Z</time></trkpt><trkpt lat="38.7610061" lon="20.6060816"><ele>283.0</ele><time>2026-05-01T08:51:08.834Z</time></trkpt><trkpt lat="38.7609692" lon="20.6062041"><ele>287.0</ele><time>2026-05-01T08:51:09.835Z</time></trkpt><trkpt lat="38.7609102" lon="20.6063174"><ele>291.0</ele><time>2026-05-01T08:51:10.835Z</time></trkpt><trkpt lat="38.7608317" lon="20.6064269"><ele>295.0</ele><time>2026-05-01T08:51:11.834Z</time></trkpt><trkpt lat="38.7607286" lon="20.6064977"><ele>295.0</ele><time>2026-05-01T08:51:12.834Z</time></trkpt><trkpt lat="38.7606168" lon="20.6065762"><ele>295.0</ele><time>2026-05-01T08:51:13.835Z</time></trkpt><trkpt lat="38.7605027" lon="20.6066556"><ele>295.0</ele><time>2026-05-01T08:51:14.835Z</time></trkpt><trkpt lat="38.7603954" lon="20.6067568"><ele>295.0</ele><time>2026-05-01T08:51:15.836Z</time></trkpt><trkpt lat="38.7602891" lon="20.6068555"><ele>295.25</ele><time>2026-05-01T08:51:16.835Z</time></trkpt><trkpt lat="38.7601862" lon="20.6069587"><ele>295.5</ele><time>2026-05-01T08:51:17.834Z</time></trkpt><trkpt lat="38.7600841" lon="20.6070544"><ele>295.75</ele><time>2026-05-01T08:51:18.832Z</time></trkpt><trkpt lat="38.7599842" lon="20.6071205"><ele>296.0</ele><time>2026-05-01T08:51:19.835Z</time></trkpt><trkpt lat="38.7598814" lon="20.6071974"><ele>296.0</ele><time>2026-05-01T08:51:20.833Z</time></trkpt><trkpt lat="38.7597773" lon="20.607266"><ele>296.0</ele><time>2026-05-01T08:51:21.833Z</time></trkpt><trkpt lat="38.7596795" lon="20.6073379"><ele>296.0</ele><time>2026-05-01T08:51:22.831Z</time></trkpt><trkpt lat="38.7595968" lon="20.6074015"><ele>296.0</ele><time>2026-05-01T08:51:23.833Z</time></trkpt><trkpt lat="38.7595194" lon="20.6074506"><ele>296.0</ele><time>2026-05-01T08:51:24.834Z</time></trkpt><trkpt lat="38.7594504" lon="20.6074977"><ele>296.0</ele><time>2026-05-01T08:51:25.833Z</time></trkpt><trkpt lat="38.7593603" lon="20.6074686"><ele>296.0</ele><time>2026-05-01T08:51:27.833Z</time></trkpt><trkpt lat="38.7593446" lon="20.6073722"><ele>296.0</ele><time>2026-05-01T08:51:29.835Z</time></trkpt><trkpt lat="38.759384" lon="20.6073089"><ele>296.0</ele><time>2026-05-01T08:51:30.834Z</time></trkpt><trkpt lat="38.7594562" lon="20.607275"><ele>296.0</ele><time>2026-05-01T08:51:31.831Z</time></trkpt><trkpt lat="38.7595232" lon="20.6072235"><ele>296.0</ele><time>2026-05-01T08:51:32.833Z</time></trkpt><trkpt lat="38.7595753" lon="20.6071633"><ele>296.0</ele><time>2026-05-01T08:51:33.832Z</time></trkpt><trkpt lat="38.7595775" lon="20.6070286"><ele>296.0</ele><time>2026-05-01T08:51:35.835Z</time></trkpt><trkpt lat="38.7594705" lon="20.6069896"><ele>296.0</ele><time>2026-05-01T08:51:37.836Z</time></trkpt><trkpt lat="38.759382" lon="20.6070092"><ele>296.0</ele><time>2026-05-01T08:51:38.833Z</time></trkpt><trkpt lat="38.7592904" lon="20.6070399"><ele>296.0</ele><time>2026-05-01T08:51:39.835Z</time></trkpt><trkpt lat="38.759196" lon="20.6070842"><ele>300.33333333333337</ele><time>2026-05-01T08:51:40.833Z</time></trkpt><trkpt lat="38.7591143" lon="20.6071368"><ele>304.6666666666667</ele><time>2026-05-01T08:51:41.834Z</time></trkpt><trkpt lat="38.7590477" lon="20.6071829"><ele>309.0</ele><time>2026-05-01T08:51:42.832Z</time></trkpt><trkpt lat="38.7589551" lon="20.6071728"><ele>313.3333333333333</ele><time>2026-05-01T08:51:44.834Z</time></trkpt><trkpt lat="38.7589566" lon="20.6070529"><ele>317.66666666666663</ele><time>2026-05-01T08:51:46.834Z</time></trkpt><trkpt lat="38.7589942" lon="20.6069742"><ele>322.0</ele><time>2026-05-01T08:51:47.833Z</time></trkpt><trkpt lat="38.759077" lon="20.6069178"><ele>322.0</ele><time>2026-05-01T08:51:48.833Z</time></trkpt><trkpt lat="38.7591904" lon="20.6068581"><ele>322.0</ele><time>2026-05-01T08:51:49.834Z</time></trkpt><trkpt lat="38.7593061" lon="20.6067757"><ele>322.0</ele><time>2026-05-01T08:51:50.832Z</time></trkpt><trkpt lat="38.7594211" lon="20.6066736"><ele>322.0</ele><time>2026-05-01T08:51:51.834Z</time></trkpt><trkpt lat="38.7595334" lon="20.6065558"><ele>322.0</ele><time>2026-05-01T08:51:52.834Z</time></trkpt><trkpt lat="38.7596321" lon="20.6064203"><ele>322.0</ele><time>2026-05-01T08:51:53.833Z</time></trkpt><trkpt lat="38.7597172" lon="20.606258"><ele>322.0</ele><time>2026-05-01T08:51:54.833Z</time></trkpt><trkpt lat="38.7597776" lon="20.6060727"><ele>330.3333333333333</ele><time>2026-05-01T08:51:55.832Z</time></trkpt><trkpt lat="38.7598195" lon="20.6058805"><ele>338.6666666666667</ele><time>2026-05-01T08:51:56.834Z</time></trkpt><trkpt lat="38.7598684" lon="20.6056875"><ele>347.0</ele><time>2026-05-01T08:51:57.831Z</time></trkpt><trkpt lat="38.7599484" lon="20.6055364"><ele>347.0</ele><time>2026-05-01T08:51:58.831Z</time></trkpt><trkpt lat="38.7600445" lon="20.6053796"><ele>347.0</ele><time>2026-05-01T08:51:59.834Z</time></trkpt><trkpt lat="38.7601425" lon="20.6052325"><ele>347.0</ele><time>2026-05-01T08:52:00.834Z</time></trkpt><trkpt lat="38.7602291" lon="20.6050868"><ele>347.0</ele><time>2026-05-01T08:52:01.834Z</time></trkpt><trkpt lat="38.7602963" lon="20.6049484"><ele>345.20000000000005</ele><time>2026-05-01T08:52:02.832Z</time></trkpt><trkpt lat="38.7603406" lon="20.6048106"><ele>343.4</ele><time>2026-05-01T08:52:03.832Z</time></trkpt><trkpt lat="38.7603722" lon="20.6046838"><ele>341.6</ele><time>2026-05-01T08:52:04.834Z</time></trkpt><trkpt lat="38.7603934" lon="20.6045645"><ele>339.79999999999995</ele><time>2026-05-01T08:52:05.833Z</time></trkpt><trkpt lat="38.7604107" lon="20.6044821"><ele>338.0</ele><time>2026-05-01T08:52:06.833Z</time></trkpt><trkpt lat="38.7604208" lon="20.6043445"><ele>338.0</ele><time>2026-05-01T08:52:08.835Z</time></trkpt><trkpt lat="38.76042" lon="20.6042513"><ele>338.0</ele><time>2026-05-01T08:52:10.836Z</time></trkpt><trkpt lat="38.7604292" lon="20.6041604"><ele>338.0</ele><time>2026-05-01T08:52:13.833Z</time></trkpt><trkpt lat="38.7604212" lon="20.6040694"><ele>338.0</ele><time>2026-05-01T08:52:17.833Z</time></trkpt><trkpt lat="38.7603632" lon="20.604025"><ele>338.0</ele><time>2026-05-01T08:53:23.836Z</time></trkpt><trkpt lat="38.7602975" lon="20.6040485"><ele>338.0</ele><time>2026-05-01T08:53:25.835Z</time></trkpt><trkpt lat="38.7601879" lon="20.6041138"><ele>344.4</ele><time>2026-05-01T08:53:27.832Z</time></trkpt><trkpt lat="38.7601337" lon="20.6041877"><ele>350.79999999999995</ele><time>2026-05-01T08:53:28.832Z</time></trkpt><trkpt lat="38.7600916" lon="20.6042756"><ele>357.2</ele><time>2026-05-01T08:53:29.833Z</time></trkpt><trkpt lat="38.760068" lon="20.6043905"><ele>363.6</ele><time>2026-05-01T08:53:30.832Z</time></trkpt><trkpt lat="38.7600428" lon="20.6045151"><ele>370.0</ele><time>2026-05-01T08:53:31.833Z</time></trkpt><trkpt lat="38.760022" lon="20.6046387"><ele>370.0</ele><time>2026-05-01T08:53:32.832Z</time></trkpt><trkpt lat="38.7599936" lon="20.6047647"><ele>370.0</ele><time>2026-05-01T08:53:33.836Z</time></trkpt><trkpt lat="38.7599392" lon="20.6048889"><ele>370.0</ele><time>2026-05-01T08:53:34.836Z</time></trkpt><trkpt lat="38.7598658" lon="20.6050059"><ele>370.0</ele><time>2026-05-01T08:53:35.833Z</time></trkpt><trkpt lat="38.7597832" lon="20.6051152"><ele>370.0</ele><time>2026-05-01T08:53:36.836Z</time></trkpt><trkpt lat="38.7596993" lon="20.6052154"><ele>370.0</ele><time>2026-05-01T08:53:37.833Z</time></trkpt><trkpt lat="38.7596182" lon="20.6053102"><ele>370.0</ele><time>2026-05-01T08:53:38.835Z</time></trkpt><trkpt lat="38.7595512" lon="20.6053932"><ele>370.0</ele><time>2026-05-01T08:53:39.835Z</time></trkpt><trkpt lat="38.7594897" lon="20.6054807"><ele>370.0</ele><time>2026-05-01T08:53:40.833Z</time></trkpt><trkpt lat="38.7594304" lon="20.6055679"><ele>370.0</ele><time>2026-05-01T08:53:41.836Z</time></trkpt><trkpt lat="38.7593736" lon="20.6056499"><ele>371.2</ele><time>2026-05-01T08:53:42.833Z</time></trkpt><trkpt lat="38.7593014" lon="20.605725"><ele>372.4</ele><time>2026-05-01T08:53:43.835Z</time></trkpt><trkpt lat="38.759217" lon="20.6057779"><ele>373.6</ele><time>2026-05-01T08:53:44.835Z</time></trkpt><trkpt lat="38.75912" lon="20.6058117"><ele>374.8</ele><time>2026-05-01T08:53:45.835Z</time></trkpt><trkpt lat="38.7590148" lon="20.6058522"><ele>376.0</ele><time>2026-05-01T08:53:46.833Z</time></trkpt><trkpt lat="38.7589135" lon="20.6058896"><ele>376.0</ele><time>2026-05-01T08:53:47.835Z</time></trkpt><trkpt lat="38.7588136" lon="20.6059133"><ele>376.0</ele><time>2026-05-01T08:53:48.835Z</time></trkpt><trkpt lat="38.7587258" lon="20.6059295"><ele>376.0</ele><time>2026-05-01T08:53:49.834Z</time></trkpt><trkpt lat="38.7586509" lon="20.6059486"><ele>376.0</ele><time>2026-05-01T08:53:50.833Z</time></trkpt><trkpt lat="38.7585722" lon="20.6059413"><ele>376.0</ele><time>2026-05-01T08:53:51.836Z</time></trkpt><trkpt lat="38.7584993" lon="20.6059155"><ele>376.0</ele><time>2026-05-01T08:53:52.836Z</time></trkpt><trkpt lat="38.7584263" lon="20.6058405"><ele>376.0</ele><time>2026-05-01T08:53:53.835Z</time></trkpt><trkpt lat="38.7583557" lon="20.6057551"><ele>376.0</ele><time>2026-05-01T08:53:54.835Z</time></trkpt><trkpt lat="38.7582846" lon="20.6056563"><ele>376.0</ele><time>2026-05-01T08:53:55.835Z</time></trkpt><trkpt lat="38.7582179" lon="20.6055705"><ele>376.0</ele><time>2026-05-01T08:53:56.833Z</time></trkpt><trkpt lat="38.7581484" lon="20.6054857"><ele>376.0</ele><time>2026-05-01T08:53:57.832Z</time></trkpt><trkpt lat="38.7580831" lon="20.6053994"><ele>378.5</ele><time>2026-05-01T08:53:58.833Z</time></trkpt><trkpt lat="38.7580333" lon="20.6053088"><ele>381.0</ele><time>2026-05-01T08:53:59.834Z</time></trkpt><trkpt lat="38.7579948" lon="20.6052081"><ele>383.5</ele><time>2026-05-01T08:54:00.833Z</time></trkpt><trkpt lat="38.7579347" lon="20.6051194"><ele>386.0</ele><time>2026-05-01T08:54:01.833Z</time></trkpt><trkpt lat="38.7578756" lon="20.6050341"><ele>388.50000000000006</ele><time>2026-05-01T08:54:02.835Z</time></trkpt><trkpt lat="38.7578218" lon="20.6049515"><ele>391.0</ele><time>2026-05-01T08:54:03.833Z</time></trkpt><trkpt lat="38.7577648" lon="20.6048573"><ele>391.00000000000006</ele><time>2026-05-01T08:54:04.833Z</time></trkpt><trkpt lat="38.7577087" lon="20.6047683"><ele>391.0</ele><time>2026-05-01T08:54:05.832Z</time></trkpt><trkpt lat="38.7576617" lon="20.6046968"><ele>391.0</ele><time>2026-05-01T08:54:06.832Z</time></trkpt><trkpt lat="38.7576058" lon="20.6046341"><ele>391.0</ele><time>2026-05-01T08:54:07.832Z</time></trkpt><trkpt lat="38.7575405" lon="20.6045889"><ele>391.00000000000006</ele><time>2026-05-01T08:54:08.833Z</time></trkpt><trkpt lat="38.7574574" lon="20.60455"><ele>391.0</ele><time>2026-05-01T08:54:09.835Z</time></trkpt><trkpt lat="38.7573868" lon="20.604502"><ele>390.00000000000006</ele><time>2026-05-01T08:54:10.834Z</time></trkpt><trkpt lat="38.7573257" lon="20.6044333"><ele>389.0</ele><time>2026-05-01T08:54:11.835Z</time></trkpt><trkpt lat="38.7572609" lon="20.6043753"><ele>388.0</ele><time>2026-05-01T08:54:12.835Z</time></trkpt><trkpt lat="38.7571812" lon="20.6043036"><ele>387.0</ele><time>2026-05-01T08:54:13.834Z</time></trkpt><trkpt lat="38.757101" lon="20.6042357"><ele>386.00000000000006</ele><time>2026-05-01T08:54:14.832Z</time></trkpt><trkpt lat="38.7570351" lon="20.6041497"><ele>385.0</ele><time>2026-05-01T08:54:15.834Z</time></trkpt><trkpt lat="38.7569703" lon="20.6040731"><ele>385.0</ele><time>2026-05-01T08:54:16.836Z</time></trkpt><trkpt lat="38.7569196" lon="20.6040055"><ele>385.0</ele><time>2026-05-01T08:54:17.835Z</time></trkpt><trkpt lat="38.7568503" lon="20.6039634"><ele>385.0</ele><time>2026-05-01T08:54:18.836Z</time></trkpt><trkpt lat="38.7567913" lon="20.6039224"><ele>385.0</ele><time>2026-05-01T08:54:19.835Z</time></trkpt><trkpt lat="38.75672" lon="20.6038892"><ele>385.0</ele><time>2026-05-01T08:54:20.836Z</time></trkpt><trkpt lat="38.7566608" lon="20.6038525"><ele>385.0</ele><time>2026-05-01T08:54:21.833Z</time></trkpt><trkpt lat="38.7566017" lon="20.6037948"><ele>385.0</ele><time>2026-05-01T08:54:22.833Z</time></trkpt><trkpt lat="38.7565421" lon="20.603731"><ele>383.83333333333337</ele><time>2026-05-01T08:54:23.835Z</time></trkpt><trkpt lat="38.7564857" lon="20.6036793"><ele>382.6666666666667</ele><time>2026-05-01T08:54:24.834Z</time></trkpt><trkpt lat="38.7564395" lon="20.6036079"><ele>381.5</ele><time>2026-05-01T08:54:25.835Z</time></trkpt><trkpt lat="38.7564102" lon="20.6035328"><ele>380.33333333333337</ele><time>2026-05-01T08:54:26.835Z</time></trkpt><trkpt lat="38.7564072" lon="20.6034026"><ele>379.1666666666667</ele><time>2026-05-01T08:54:28.834Z</time></trkpt><trkpt lat="38.7563614" lon="20.6032645"><ele>378.0</ele><time>2026-05-01T08:54:30.832Z</time></trkpt><trkpt lat="38.7562816" lon="20.6031908"><ele>378.0</ele><time>2026-05-01T08:54:32.836Z</time></trkpt><trkpt lat="38.7561766" lon="20.6032228"><ele>378.0</ele><time>2026-05-01T08:54:34.834Z</time></trkpt><trkpt lat="38.7561145" lon="20.6032847"><ele>378.0</ele><time>2026-05-01T08:54:35.831Z</time></trkpt><trkpt lat="38.7560482" lon="20.6033394"><ele>378.0</ele><time>2026-05-01T08:54:36.832Z</time></trkpt><trkpt lat="38.7559719" lon="20.6033914"><ele>378.0</ele><time>2026-05-01T08:54:37.833Z</time></trkpt><trkpt lat="38.755888" lon="20.6034363"><ele>378.0</ele><time>2026-05-01T08:54:38.833Z</time></trkpt><trkpt lat="38.7558063" lon="20.6034544"><ele>378.59999999999997</ele><time>2026-05-01T08:54:39.832Z</time></trkpt><trkpt lat="38.7557069" lon="20.6034337"><ele>379.2</ele><time>2026-05-01T08:54:40.836Z</time></trkpt><trkpt lat="38.7556048" lon="20.6033799"><ele>379.8</ele><time>2026-05-01T08:54:41.832Z</time></trkpt><trkpt lat="38.755508" lon="20.6033102"><ele>380.4</ele><time>2026-05-01T08:54:42.835Z</time></trkpt><trkpt lat="38.7554147" lon="20.6032345"><ele>381.0</ele><time>2026-05-01T08:54:43.834Z</time></trkpt><trkpt lat="38.7553289" lon="20.6031526"><ele>381.0</ele><time>2026-05-01T08:54:44.833Z</time></trkpt><trkpt lat="38.7552753" lon="20.6030703"><ele>381.0</ele><time>2026-05-01T08:54:45.831Z</time></trkpt><trkpt lat="38.7552231" lon="20.6029716"><ele>381.0</ele><time>2026-05-01T08:54:46.835Z</time></trkpt><trkpt lat="38.7551625" lon="20.60288"><ele>381.0</ele><time>2026-05-01T08:54:47.832Z</time></trkpt><trkpt lat="38.7550821" lon="20.6028015"><ele>381.0</ele><time>2026-05-01T08:54:48.834Z</time></trkpt><trkpt lat="38.7549849" lon="20.6027418"><ele>382.5</ele><time>2026-05-01T08:54:49.833Z</time></trkpt><trkpt lat="38.7548668" lon="20.6026896"><ele>384.0</ele><time>2026-05-01T08:54:50.835Z</time></trkpt><trkpt lat="38.7547423" lon="20.6026477"><ele>385.5</ele><time>2026-05-01T08:54:51.834Z</time></trkpt><trkpt lat="38.7546254" lon="20.6026102"><ele>387.0</ele><time>2026-05-01T08:54:52.834Z</time></trkpt><trkpt lat="38.7545299" lon="20.6025668"><ele>387.0</ele><time>2026-05-01T08:54:53.835Z</time></trkpt><trkpt lat="38.7544467" lon="20.6025421"><ele>387.0</ele><time>2026-05-01T08:54:54.832Z</time></trkpt><trkpt lat="38.7543714" lon="20.6025448"><ele>387.0</ele><time>2026-05-01T08:54:55.832Z</time></trkpt><trkpt lat="38.7543012" lon="20.6025776"><ele>387.0</ele><time>2026-05-01T08:54:56.832Z</time></trkpt><trkpt lat="38.7542381" lon="20.6026074"><ele>387.0</ele><time>2026-05-01T08:54:57.833Z</time></trkpt><trkpt lat="38.7541751" lon="20.6026186"><ele>387.0</ele><time>2026-05-01T08:54:58.834Z</time></trkpt><trkpt lat="38.754103" lon="20.6025994"><ele>387.0</ele><time>2026-05-01T08:54:59.836Z</time></trkpt><trkpt lat="38.7540177" lon="20.6025449"><ele>389.75</ele><time>2026-05-01T08:55:00.834Z</time></trkpt><trkpt lat="38.7539124" lon="20.6025028"><ele>392.5</ele><time>2026-05-01T08:55:01.833Z</time></trkpt><trkpt lat="38.7537919" lon="20.6024899"><ele>395.25</ele><time>2026-05-01T08:55:02.831Z</time></trkpt><trkpt lat="38.7536545" lon="20.6024877"><ele>398.0</ele><time>2026-05-01T08:55:03.833Z</time></trkpt><trkpt lat="38.7535154" lon="20.6024958"><ele>402.25</ele><time>2026-05-01T08:55:04.836Z</time></trkpt><trkpt lat="38.7533837" lon="20.6025001"><ele>406.5</ele><time>2026-05-01T08:55:05.835Z</time></trkpt><trkpt lat="38.7532574" lon="20.6024841"><ele>410.75</ele><time>2026-05-01T08:55:06.834Z</time></trkpt><trkpt lat="38.7531326" lon="20.6024537"><ele>415.0</ele><time>2026-05-01T08:55:07.832Z</time></trkpt><trkpt lat="38.7530122" lon="20.6023955"><ele>415.0</ele><time>2026-05-01T08:55:08.835Z</time></trkpt><trkpt lat="38.7528941" lon="20.6023249"><ele>415.0</ele><time>2026-05-01T08:55:09.833Z</time></trkpt><trkpt lat="38.7527855" lon="20.6022288"><ele>415.0</ele><time>2026-05-01T08:55:10.832Z</time></trkpt><trkpt lat="38.7526774" lon="20.6021152"><ele>415.0</ele><time>2026-05-01T08:55:11.835Z</time></trkpt><trkpt lat="38.7525861" lon="20.602002"><ele>413.0</ele><time>2026-05-01T08:55:12.831Z</time></trkpt><trkpt lat="38.7525005" lon="20.6018754"><ele>411.0</ele><time>2026-05-01T08:55:13.83Z</time></trkpt><trkpt lat="38.7524036" lon="20.6017604"><ele>409.0</ele><time>2026-05-01T08:55:14.83Z</time></trkpt><trkpt lat="38.7523017" lon="20.6016697"><ele>407.0</ele><time>2026-05-01T08:55:15.836Z</time></trkpt><trkpt lat="38.7522021" lon="20.6016151"><ele>407.0</ele><time>2026-05-01T08:55:16.833Z</time></trkpt><trkpt lat="38.7521056" lon="20.6015981"><ele>407.0</ele><time>2026-05-01T08:55:17.834Z</time></trkpt><trkpt lat="38.7520152" lon="20.6016237"><ele>407.0</ele><time>2026-05-01T08:55:18.834Z</time></trkpt><trkpt lat="38.7519275" lon="20.6016955"><ele>407.0</ele><time>2026-05-01T08:55:19.835Z</time></trkpt><trkpt lat="38.751845" lon="20.6018087"><ele>407.0</ele><time>2026-05-01T08:55:20.835Z</time></trkpt><trkpt lat="38.7517612" lon="20.6019439"><ele>413.40000000000003</ele><time>2026-05-01T08:55:21.835Z</time></trkpt><trkpt lat="38.7516833" lon="20.6020701"><ele>419.8</ele><time>2026-05-01T08:55:22.836Z</time></trkpt><trkpt lat="38.7516097" lon="20.6021717"><ele>426.2</ele><time>2026-05-01T08:55:23.835Z</time></trkpt><trkpt lat="38.7515408" lon="20.6022554"><ele>432.6</ele><time>2026-05-01T08:55:24.834Z</time></trkpt><trkpt lat="38.7514637" lon="20.6022457"><ele>439.0</ele><time>2026-05-01T08:55:25.834Z</time></trkpt><trkpt lat="38.7513979" lon="20.6022514"><ele>439.0</ele><time>2026-05-01T08:55:26.836Z</time></trkpt><trkpt lat="38.7513478" lon="20.6021415"><ele>439.0</ele><time>2026-05-01T08:55:27.835Z</time></trkpt><trkpt lat="38.7512831" lon="20.602046"><ele>439.0</ele><time>2026-05-01T08:55:28.834Z</time></trkpt><trkpt lat="38.7511993" lon="20.601974"><ele>439.0</ele><time>2026-05-01T08:55:29.834Z</time></trkpt><trkpt lat="38.751096" lon="20.6019271"><ele>439.0</ele><time>2026-05-01T08:55:30.836Z</time></trkpt><trkpt lat="38.750968" lon="20.601927"><ele>439.75</ele><time>2026-05-01T08:55:31.836Z</time></trkpt><trkpt lat="38.7508328" lon="20.6019556"><ele>440.5</ele><time>2026-05-01T08:55:32.833Z</time></trkpt><trkpt lat="38.7507055" lon="20.6019972"><ele>441.25</ele><time>2026-05-01T08:55:33.834Z</time></trkpt><trkpt lat="38.7505905" lon="20.602042"><ele>442.0</ele><time>2026-05-01T08:55:34.835Z</time></trkpt><trkpt lat="38.7504811" lon="20.6020778"><ele>442.0</ele><time>2026-05-01T08:55:35.834Z</time></trkpt><trkpt lat="38.7503739" lon="20.6020821"><ele>442.00000000000006</ele><time>2026-05-01T08:55:36.834Z</time></trkpt><trkpt lat="38.7502768" lon="20.6020334"><ele>442.00000000000006</ele><time>2026-05-01T08:55:37.836Z</time></trkpt><trkpt lat="38.7501866" lon="20.6019624"><ele>442.0</ele><time>2026-05-01T08:55:38.832Z</time></trkpt><trkpt lat="38.7501091" lon="20.6018597"><ele>442.0</ele><time>2026-05-01T08:55:39.835Z</time></trkpt><trkpt lat="38.7500316" lon="20.6017526"><ele>440.33333333333337</ele><time>2026-05-01T08:55:40.832Z</time></trkpt><trkpt lat="38.7500219" lon="20.6015238"><ele>438.66666666666663</ele><time>2026-05-01T08:55:41.833Z</time></trkpt><trkpt lat="38.7499814" lon="20.6013326"><ele>437.0</ele><time>2026-05-01T08:55:42.832Z</time></trkpt><trkpt lat="38.7499197" lon="20.6011152"><ele>435.3333333333333</ele><time>2026-05-01T08:55:43.832Z</time></trkpt><trkpt lat="38.7498632" lon="20.6009015"><ele>433.66666666666663</ele><time>2026-05-01T08:55:44.832Z</time></trkpt><trkpt lat="38.7498065" lon="20.6007231"><ele>432.0</ele><time>2026-05-01T08:55:45.833Z</time></trkpt><trkpt lat="38.7497393" lon="20.6005771"><ele>432.0</ele><time>2026-05-01T08:55:46.832Z</time></trkpt><trkpt lat="38.7496438" lon="20.6004462"><ele>432.0</ele><time>2026-05-01T08:55:47.83Z</time></trkpt><trkpt lat="38.7495309" lon="20.6003365"><ele>432.0</ele><time>2026-05-01T08:55:48.832Z</time></trkpt><trkpt lat="38.7493976" lon="20.6002372"><ele>432.0</ele><time>2026-05-01T08:55:49.831Z</time></trkpt><trkpt lat="38.7492424" lon="20.6001255"><ele>435.66666666666663</ele><time>2026-05-01T08:55:50.831Z</time></trkpt><trkpt lat="38.749112" lon="20.6000104"><ele>439.3333333333333</ele><time>2026-05-01T08:55:51.833Z</time></trkpt><trkpt lat="38.7489889" lon="20.5998752"><ele>443.0</ele><time>2026-05-01T08:55:52.834Z</time></trkpt><trkpt lat="38.748881" lon="20.5997204"><ele>443.0</ele><time>2026-05-01T08:55:53.832Z</time></trkpt><trkpt lat="38.7487924" lon="20.5995777"><ele>443.0</ele><time>2026-05-01T08:55:54.835Z</time></trkpt><trkpt lat="38.7486992" lon="20.5994562"><ele>443.0</ele><time>2026-05-01T08:55:55.831Z</time></trkpt><trkpt lat="38.7485954" lon="20.5993471"><ele>443.0</ele><time>2026-05-01T08:55:56.832Z</time></trkpt><trkpt lat="38.7484824" lon="20.5992782"><ele>443.75</ele><time>2026-05-01T08:55:57.832Z</time></trkpt><trkpt lat="38.748366" lon="20.5992507"><ele>444.5</ele><time>2026-05-01T08:55:58.832Z</time></trkpt><trkpt lat="38.7482403" lon="20.5992709"><ele>445.25</ele><time>2026-05-01T08:55:59.831Z</time></trkpt><trkpt lat="38.7481104" lon="20.5993132"><ele>446.0</ele><time>2026-05-01T08:56:00.831Z</time></trkpt><trkpt lat="38.7479859" lon="20.5993514"><ele>446.0</ele><time>2026-05-01T08:56:01.834Z</time></trkpt><trkpt lat="38.747864" lon="20.5993688"><ele>446.0</ele><time>2026-05-01T08:56:02.833Z</time></trkpt><trkpt lat="38.7477491" lon="20.5993622"><ele>446.0</ele><time>2026-05-01T08:56:03.835Z</time></trkpt><trkpt lat="38.7476342" lon="20.599318"><ele>446.0</ele><time>2026-05-01T08:56:04.836Z</time></trkpt><trkpt lat="38.7475233" lon="20.5992409"><ele>450.66666666666663</ele><time>2026-05-01T08:56:05.834Z</time></trkpt><trkpt lat="38.7474014" lon="20.5991417"><ele>455.33333333333337</ele><time>2026-05-01T08:56:06.833Z</time></trkpt><trkpt lat="38.7472699" lon="20.5990335"><ele>460.0</ele><time>2026-05-01T08:56:07.832Z</time></trkpt><trkpt lat="38.7471132" lon="20.5989469"><ele>460.0</ele><time>2026-05-01T08:56:08.832Z</time></trkpt><trkpt lat="38.7469442" lon="20.5988867"><ele>460.0</ele><time>2026-05-01T08:56:09.829Z</time></trkpt><trkpt lat="38.7467868" lon="20.5988324"><ele>460.0</ele><time>2026-05-01T08:56:10.835Z</time></trkpt><trkpt lat="38.7466407" lon="20.5987618"><ele>462.5</ele><time>2026-05-01T08:56:11.833Z</time></trkpt><trkpt lat="38.7465225" lon="20.5986816"><ele>465.0</ele><time>2026-05-01T08:56:12.832Z</time></trkpt><trkpt lat="38.7464213" lon="20.59859"><ele>467.5</ele><time>2026-05-01T08:56:13.833Z</time></trkpt><trkpt lat="38.7463166" lon="20.5985193"><ele>470.0</ele><time>2026-05-01T08:56:14.833Z</time></trkpt><trkpt lat="38.746189" lon="20.5984867"><ele>469.25</ele><time>2026-05-01T08:56:15.832Z</time></trkpt><trkpt lat="38.7460571" lon="20.5984691"><ele>468.5</ele><time>2026-05-01T08:56:16.835Z</time></trkpt><trkpt lat="38.745905" lon="20.5984358"><ele>467.75</ele><time>2026-05-01T08:56:17.832Z</time></trkpt><trkpt lat="38.745759" lon="20.598387"><ele>467.0</ele><time>2026-05-01T08:56:18.832Z</time></trkpt><trkpt lat="38.7456055" lon="20.5983227"><ele>467.0</ele><time>2026-05-01T08:56:19.833Z</time></trkpt><trkpt lat="38.7454665" lon="20.5982592"><ele>467.0</ele><time>2026-05-01T08:56:20.833Z</time></trkpt><trkpt lat="38.7453147" lon="20.5982106"><ele>467.0</ele><time>2026-05-01T08:56:21.831Z</time></trkpt><trkpt lat="38.745147" lon="20.5981715"><ele>472.66666666666663</ele><time>2026-05-01T08:56:22.832Z</time></trkpt><trkpt lat="38.7449762" lon="20.5981441"><ele>478.33333333333337</ele><time>2026-05-01T08:56:23.833Z</time></trkpt><trkpt lat="38.7448024" lon="20.5981235"><ele>484.0</ele><time>2026-05-01T08:56:24.832Z</time></trkpt><trkpt lat="38.7446408" lon="20.5980844"><ele>484.0</ele><time>2026-05-01T08:56:25.83Z</time></trkpt><trkpt lat="38.7444957" lon="20.5980588"><ele>484.0</ele><time>2026-05-01T08:56:26.83Z</time></trkpt><trkpt lat="38.7443631" lon="20.5980698"><ele>484.0</ele><time>2026-05-01T08:56:27.83Z</time></trkpt><trkpt lat="38.744231" lon="20.5981134"><ele>484.0</ele><time>2026-05-01T08:56:28.831Z</time></trkpt><trkpt lat="38.7440956" lon="20.598169"><ele>485.75</ele><time>2026-05-01T08:56:29.836Z</time></trkpt><trkpt lat="38.7439591" lon="20.5982267"><ele>487.5</ele><time>2026-05-01T08:56:30.835Z</time></trkpt><trkpt lat="38.7438328" lon="20.5982993"><ele>489.25</ele><time>2026-05-01T08:56:31.832Z</time></trkpt><trkpt lat="38.7437181" lon="20.5983954"><ele>491.0</ele><time>2026-05-01T08:56:32.836Z</time></trkpt><trkpt lat="38.7436226" lon="20.5984948"><ele>492.4</ele><time>2026-05-01T08:56:33.833Z</time></trkpt><trkpt lat="38.7435453" lon="20.5985877"><ele>493.8</ele><time>2026-05-01T08:56:34.833Z</time></trkpt><trkpt lat="38.7434627" lon="20.5986283"><ele>495.19999999999993</ele><time>2026-05-01T08:56:35.835Z</time></trkpt><trkpt lat="38.7433763" lon="20.5986445"><ele>496.59999999999997</ele><time>2026-05-01T08:56:36.831Z</time></trkpt><trkpt lat="38.7432867" lon="20.5986417"><ele>498.0</ele><time>2026-05-01T08:56:37.833Z</time></trkpt><trkpt lat="38.7432002" lon="20.5985786"><ele>498.0</ele><time>2026-05-01T08:56:38.83Z</time></trkpt><trkpt lat="38.7431487" lon="20.5984263"><ele>498.0</ele><time>2026-05-01T08:56:39.83Z</time></trkpt><trkpt lat="38.743077" lon="20.5982994"><ele>498.0</ele><time>2026-05-01T08:56:40.833Z</time></trkpt><trkpt lat="38.7429889" lon="20.5981846"><ele>498.0</ele><time>2026-05-01T08:56:41.832Z</time></trkpt><trkpt lat="38.7428888" lon="20.5981089"><ele>498.0</ele><time>2026-05-01T08:56:42.833Z</time></trkpt><trkpt lat="38.7427903" lon="20.5980438"><ele>498.0</ele><time>2026-05-01T08:56:43.832Z</time></trkpt><trkpt lat="38.7426771" lon="20.5980182"><ele>498.0</ele><time>2026-05-01T08:56:44.834Z</time></trkpt><trkpt lat="38.742563" lon="20.5980175"><ele>498.0</ele><time>2026-05-01T08:56:45.832Z</time></trkpt><trkpt lat="38.7424386" lon="20.5980281"><ele>501.75</ele><time>2026-05-01T08:56:46.832Z</time></trkpt><trkpt lat="38.7423041" lon="20.5980552"><ele>505.5</ele><time>2026-05-01T08:56:47.833Z</time></trkpt><trkpt lat="38.7421673" lon="20.5980907"><ele>509.25</ele><time>2026-05-01T08:56:48.836Z</time></trkpt><trkpt lat="38.7420399" lon="20.5981305"><ele>513.0</ele><time>2026-05-01T08:56:49.834Z</time></trkpt><trkpt lat="38.741911" lon="20.598177"><ele>513.25</ele><time>2026-05-01T08:56:50.832Z</time></trkpt><trkpt lat="38.7417926" lon="20.5982247"><ele>513.5</ele><time>2026-05-01T08:56:51.834Z</time></trkpt><trkpt lat="38.7416782" lon="20.5982681"><ele>513.75</ele><time>2026-05-01T08:56:52.833Z</time></trkpt><trkpt lat="38.7415595" lon="20.5982962"><ele>514.0</ele><time>2026-05-01T08:56:53.836Z</time></trkpt><trkpt lat="38.7414402" lon="20.5983153"><ele>514.0</ele><time>2026-05-01T08:56:54.834Z</time></trkpt><trkpt lat="38.7413208" lon="20.5983347"><ele>514.0</ele><time>2026-05-01T08:56:55.835Z</time></trkpt><trkpt lat="38.7412053" lon="20.5983481"><ele>514.0</ele><time>2026-05-01T08:56:56.834Z</time></trkpt><trkpt lat="38.7410858" lon="20.5983711"><ele>514.0</ele><time>2026-05-01T08:56:57.836Z</time></trkpt><trkpt lat="38.7409638" lon="20.5984031"><ele>510.75</ele><time>2026-05-01T08:56:58.836Z</time></trkpt><trkpt lat="38.7408418" lon="20.5984472"><ele>507.5</ele><time>2026-05-01T08:56:59.834Z</time></trkpt><trkpt lat="38.740715" lon="20.598508"><ele>504.25</ele><time>2026-05-01T08:57:00.834Z</time></trkpt><trkpt lat="38.74059" lon="20.5985676"><ele>501.0</ele><time>2026-05-01T08:57:01.834Z</time></trkpt><trkpt lat="38.7404617" lon="20.5986346"><ele>505.75</ele><time>2026-05-01T08:57:02.832Z</time></trkpt><trkpt lat="38.7403405" lon="20.5987181"><ele>510.5</ele><time>2026-05-01T08:57:03.834Z</time></trkpt><trkpt lat="38.7402194" lon="20.5987938"><ele>515.25</ele><time>2026-05-01T08:57:04.835Z</time></trkpt><trkpt lat="38.7401032" lon="20.5988569"><ele>520.0</ele><time>2026-05-01T08:57:05.835Z</time></trkpt><trkpt lat="38.7399865" lon="20.5989026"><ele>520.0</ele><time>2026-05-01T08:57:06.835Z</time></trkpt><trkpt lat="38.7398749" lon="20.5989269"><ele>520.0</ele><time>2026-05-01T08:57:07.832Z</time></trkpt><trkpt lat="38.7397541" lon="20.5989149"><ele>520.0</ele><time>2026-05-01T08:57:08.836Z</time></trkpt><trkpt lat="38.7396341" lon="20.5988973"><ele>520.0</ele><time>2026-05-01T08:57:09.836Z</time></trkpt><trkpt lat="38.7395113" lon="20.5988659"><ele>521.75</ele><time>2026-05-01T08:57:10.836Z</time></trkpt><trkpt lat="38.7393783" lon="20.5988256"><ele>523.5</ele><time>2026-05-01T08:57:11.835Z</time></trkpt><trkpt lat="38.7392551" lon="20.5987807"><ele>525.25</ele><time>2026-05-01T08:57:12.832Z</time></trkpt><trkpt lat="38.7391406" lon="20.5987396"><ele>527.0</ele><time>2026-05-01T08:57:13.834Z</time></trkpt><trkpt lat="38.7390283" lon="20.5986986"><ele>519.5</ele><time>2026-05-01T08:57:14.833Z</time></trkpt><trkpt lat="38.7389206" lon="20.5986633"><ele>512.0</ele><time>2026-05-01T08:57:15.835Z</time></trkpt><trkpt lat="38.7388076" lon="20.5986414"><ele>504.5</ele><time>2026-05-01T08:57:16.835Z</time></trkpt><trkpt lat="38.7386887" lon="20.5986289"><ele>497.0</ele><time>2026-05-01T08:57:17.833Z</time></trkpt><trkpt lat="38.7385592" lon="20.5986293"><ele>500.75</ele><time>2026-05-01T08:57:18.833Z</time></trkpt><trkpt lat="38.7384297" lon="20.5986398"><ele>504.5</ele><time>2026-05-01T08:57:19.833Z</time></trkpt><trkpt lat="38.7382966" lon="20.5986598"><ele>508.25</ele><time>2026-05-01T08:57:20.835Z</time></trkpt><trkpt lat="38.7381569" lon="20.5986808"><ele>512.0</ele><time>2026-05-01T08:57:21.831Z</time></trkpt><trkpt lat="38.7380156" lon="20.5987055"><ele>519.0</ele><time>2026-05-01T08:57:22.836Z</time></trkpt><trkpt lat="38.7378722" lon="20.5987224"><ele>526.0</ele><time>2026-05-01T08:57:23.835Z</time></trkpt><trkpt lat="38.7377304" lon="20.5987261"><ele>533.0</ele><time>2026-05-01T08:57:24.835Z</time></trkpt><trkpt lat="38.7375867" lon="20.5987107"><ele>540.0</ele><time>2026-05-01T08:57:25.833Z</time></trkpt><trkpt lat="38.7374402" lon="20.5986852"><ele>534.25</ele><time>2026-05-01T08:57:26.832Z</time></trkpt><trkpt lat="38.7373034" lon="20.5986457"><ele>528.5</ele><time>2026-05-01T08:57:27.833Z</time></trkpt><trkpt lat="38.7371695" lon="20.5985887"><ele>522.75</ele><time>2026-05-01T08:57:28.831Z</time></trkpt><trkpt lat="38.7370379" lon="20.5985145"><ele>517.0</ele><time>2026-05-01T08:57:29.833Z</time></trkpt><trkpt lat="38.7369207" lon="20.5984142"><ele>522.25</ele><time>2026-05-01T08:57:30.833Z</time></trkpt><trkpt lat="38.7368165" lon="20.5983025"><ele>527.5</ele><time>2026-05-01T08:57:31.833Z</time></trkpt><trkpt lat="38.7367179" lon="20.5981619"><ele>532.75</ele><time>2026-05-01T08:57:32.835Z</time></trkpt><trkpt lat="38.7366273" lon="20.5980147"><ele>538.0</ele><time>2026-05-01T08:57:33.835Z</time></trkpt><trkpt lat="38.7365378" lon="20.5978668"><ele>535.25</ele><time>2026-05-01T08:57:34.834Z</time></trkpt><trkpt lat="38.7364463" lon="20.5977166"><ele>532.5</ele><time>2026-05-01T08:57:35.834Z</time></trkpt><trkpt lat="38.7363565" lon="20.5975742"><ele>529.75</ele><time>2026-05-01T08:57:36.832Z</time></trkpt><trkpt lat="38.7362606" lon="20.5974459"><ele>527.0</ele><time>2026-05-01T08:57:37.83Z</time></trkpt><trkpt lat="38.7361477" lon="20.597335"><ele>533.3333333333333</ele><time>2026-05-01T08:57:38.834Z</time></trkpt><trkpt lat="38.7360092" lon="20.5972451"><ele>539.6666666666666</ele><time>2026-05-01T08:57:39.835Z</time></trkpt><trkpt lat="38.7358694" lon="20.5971568"><ele>546.0</ele><time>2026-05-01T08:57:40.833Z</time></trkpt><trkpt lat="38.7357193" lon="20.5970705"><ele>543.0</ele><time>2026-05-01T08:57:41.832Z</time></trkpt><trkpt lat="38.7355735" lon="20.5969807"><ele>540.0</ele><time>2026-05-01T08:57:42.832Z</time></trkpt><trkpt lat="38.7354436" lon="20.5968804"><ele>537.0</ele><time>2026-05-01T08:57:43.831Z</time></trkpt><trkpt lat="38.7353346" lon="20.5967757"><ele>541.0</ele><time>2026-05-01T08:57:44.833Z</time></trkpt><trkpt lat="38.7352193" lon="20.5966719"><ele>545.0</ele><time>2026-05-01T08:57:45.833Z</time></trkpt><trkpt lat="38.735122" lon="20.5965905"><ele>549.0</ele><time>2026-05-01T08:57:46.835Z</time></trkpt><trkpt lat="38.7350278" lon="20.5965325"><ele>553.0</ele><time>2026-05-01T08:57:47.831Z</time></trkpt><trkpt lat="38.7349183" lon="20.5965022"><ele>553.0</ele><time>2026-05-01T08:57:48.835Z</time></trkpt><trkpt lat="38.7348021" lon="20.5964921"><ele>553.0</ele><time>2026-05-01T08:57:49.835Z</time></trkpt><trkpt lat="38.734683" lon="20.5965071"><ele>553.0</ele><time>2026-05-01T08:57:50.831Z</time></trkpt><trkpt lat="38.7345633" lon="20.5965441"><ele>553.0</ele><time>2026-05-01T08:57:51.833Z</time></trkpt><trkpt lat="38.7344496" lon="20.5966036"><ele>553.75</ele><time>2026-05-01T08:57:52.836Z</time></trkpt><trkpt lat="38.7343352" lon="20.59668"><ele>554.5</ele><time>2026-05-01T08:57:53.835Z</time></trkpt><trkpt lat="38.7342188" lon="20.5967626"><ele>555.25</ele><time>2026-05-01T08:57:54.832Z</time></trkpt><trkpt lat="38.7341001" lon="20.5968484"><ele>556.0</ele><time>2026-05-01T08:57:55.836Z</time></trkpt><trkpt lat="38.733978" lon="20.5969353"><ele>559.0</ele><time>2026-05-01T08:57:56.836Z</time></trkpt><trkpt lat="38.7338548" lon="20.597025"><ele>562.0</ele><time>2026-05-01T08:57:57.836Z</time></trkpt><trkpt lat="38.7337321" lon="20.597113"><ele>565.0</ele><time>2026-05-01T08:57:58.835Z</time></trkpt><trkpt lat="38.7336045" lon="20.5971976"><ele>568.0</ele><time>2026-05-01T08:57:59.836Z</time></trkpt><trkpt lat="38.733478" lon="20.5972822"><ele>568.0</ele><time>2026-05-01T08:58:00.835Z</time></trkpt><trkpt lat="38.7333546" lon="20.5973597"><ele>568.0</ele><time>2026-05-01T08:58:01.834Z</time></trkpt><trkpt lat="38.7332311" lon="20.5974301"><ele>568.0</ele><time>2026-05-01T08:58:02.833Z</time></trkpt><trkpt lat="38.7331102" lon="20.5974955"><ele>568.0</ele><time>2026-05-01T08:58:03.835Z</time></trkpt><trkpt lat="38.7329855" lon="20.5975579"><ele>568.0</ele><time>2026-05-01T08:58:04.836Z</time></trkpt><trkpt lat="38.7328539" lon="20.5976138"><ele>568.0</ele><time>2026-05-01T08:58:05.834Z</time></trkpt><trkpt lat="38.7327175" lon="20.5976683"><ele>568.0</ele><time>2026-05-01T08:58:06.834Z</time></trkpt><trkpt lat="38.732575" lon="20.5977208"><ele>568.0</ele><time>2026-05-01T08:58:07.836Z</time></trkpt><trkpt lat="38.7324318" lon="20.5977728"><ele>567.0</ele><time>2026-05-01T08:58:08.833Z</time></trkpt><trkpt lat="38.7322887" lon="20.5978216"><ele>566.0</ele><time>2026-05-01T08:58:09.836Z</time></trkpt><trkpt lat="38.7321495" lon="20.5978774"><ele>565.0</ele><time>2026-05-01T08:58:10.832Z</time></trkpt><trkpt lat="38.732013" lon="20.5979277"><ele>564.0</ele><time>2026-05-01T08:58:11.833Z</time></trkpt><trkpt lat="38.7318751" lon="20.597991"><ele>568.0</ele><time>2026-05-01T08:58:12.835Z</time></trkpt><trkpt lat="38.7317356" lon="20.5980694"><ele>572.0</ele><time>2026-05-01T08:58:13.835Z</time></trkpt><trkpt lat="38.7315991" lon="20.5981577"><ele>576.0</ele><time>2026-05-01T08:58:14.834Z</time></trkpt><trkpt lat="38.7314681" lon="20.5982517"><ele>576.0</ele><time>2026-05-01T08:58:15.835Z</time></trkpt><trkpt lat="38.7313341" lon="20.5983431"><ele>576.0</ele><time>2026-05-01T08:58:16.836Z</time></trkpt><trkpt lat="38.7312056" lon="20.598424"><ele>576.0</ele><time>2026-05-01T08:58:17.835Z</time></trkpt><trkpt lat="38.7310785" lon="20.5984851"><ele>576.0</ele><time>2026-05-01T08:58:18.833Z</time></trkpt><trkpt lat="38.7309495" lon="20.5985365"><ele>574.5</ele><time>2026-05-01T08:58:19.834Z</time></trkpt><trkpt lat="38.7308207" lon="20.5985836"><ele>573.0</ele><time>2026-05-01T08:58:20.833Z</time></trkpt><trkpt lat="38.7306908" lon="20.5986363"><ele>571.5</ele><time>2026-05-01T08:58:21.833Z</time></trkpt><trkpt lat="38.7305685" lon="20.5986792"><ele>570.0</ele><time>2026-05-01T08:58:22.836Z</time></trkpt><trkpt lat="38.7304445" lon="20.598718"><ele>573.5</ele><time>2026-05-01T08:58:23.835Z</time></trkpt><trkpt lat="38.7303196" lon="20.5987471"><ele>577.0</ele><time>2026-05-01T08:58:24.836Z</time></trkpt><trkpt lat="38.7301994" lon="20.5987554"><ele>580.5</ele><time>2026-05-01T08:58:25.832Z</time></trkpt><trkpt lat="38.7300817" lon="20.598746"><ele>584.0</ele><time>2026-05-01T08:58:26.834Z</time></trkpt><trkpt lat="38.7299732" lon="20.5987454"><ele>584.0</ele><time>2026-05-01T08:58:27.834Z</time></trkpt><trkpt lat="38.729866" lon="20.5987402"><ele>584.0</ele><time>2026-05-01T08:58:28.835Z</time></trkpt><trkpt lat="38.7297588" lon="20.5987422"><ele>584.0</ele><time>2026-05-01T08:58:29.834Z</time></trkpt><trkpt lat="38.7296421" lon="20.598745"><ele>584.0</ele><time>2026-05-01T08:58:30.833Z</time></trkpt><trkpt lat="38.7295166" lon="20.5987468"><ele>583.75</ele><time>2026-05-01T08:58:31.832Z</time></trkpt><trkpt lat="38.7293861" lon="20.5987462"><ele>583.5</ele><time>2026-05-01T08:58:32.835Z</time></trkpt><trkpt lat="38.7292612" lon="20.5987486"><ele>583.25</ele><time>2026-05-01T08:58:33.834Z</time></trkpt><trkpt lat="38.7291339" lon="20.5987402"><ele>583.0</ele><time>2026-05-01T08:58:34.83Z</time></trkpt><trkpt lat="38.7290039" lon="20.5987327"><ele>583.0</ele><time>2026-05-01T08:58:35.832Z</time></trkpt><trkpt lat="38.7288793" lon="20.5987214"><ele>583.0</ele><time>2026-05-01T08:58:36.833Z</time></trkpt><trkpt lat="38.7287489" lon="20.5987192"><ele>583.0</ele><time>2026-05-01T08:58:37.833Z</time></trkpt><trkpt lat="38.7286242" lon="20.5987329"><ele>583.0</ele><time>2026-05-01T08:58:38.835Z</time></trkpt><trkpt lat="38.7285021" lon="20.5987476"><ele>583.25</ele><time>2026-05-01T08:58:39.835Z</time></trkpt><trkpt lat="38.7283795" lon="20.5987629"><ele>583.5</ele><time>2026-05-01T08:58:40.835Z</time></trkpt><trkpt lat="38.728258" lon="20.5987804"><ele>583.75</ele><time>2026-05-01T08:58:41.834Z</time></trkpt><trkpt lat="38.72813" lon="20.5988081"><ele>584.0</ele><time>2026-05-01T08:58:42.834Z</time></trkpt><trkpt lat="38.7280005" lon="20.598839"><ele>584.0</ele><time>2026-05-01T08:58:43.834Z</time></trkpt><trkpt lat="38.7278646" lon="20.5988654"><ele>584.0</ele><time>2026-05-01T08:58:44.832Z</time></trkpt><trkpt lat="38.7277279" lon="20.5988934"><ele>584.0</ele><time>2026-05-01T08:58:45.831Z</time></trkpt><trkpt lat="38.7275837" lon="20.5989284"><ele>584.0</ele><time>2026-05-01T08:58:46.831Z</time></trkpt><trkpt lat="38.7274294" lon="20.5989636"><ele>583.3333333333333</ele><time>2026-05-01T08:58:47.835Z</time></trkpt><trkpt lat="38.7272684" lon="20.5989882"><ele>582.6666666666666</ele><time>2026-05-01T08:58:48.836Z</time></trkpt><trkpt lat="38.7271151" lon="20.5990111"><ele>582.0</ele><time>2026-05-01T08:58:49.833Z</time></trkpt><trkpt lat="38.7269618" lon="20.5990348"><ele>583.0</ele><time>2026-05-01T08:58:50.835Z</time></trkpt><trkpt lat="38.7268154" lon="20.599068"><ele>584.0</ele><time>2026-05-01T08:58:51.832Z</time></trkpt><trkpt lat="38.7266719" lon="20.599112"><ele>585.0</ele><time>2026-05-01T08:58:52.832Z</time></trkpt><trkpt lat="38.7265366" lon="20.5991623"><ele>586.0</ele><time>2026-05-01T08:58:53.834Z</time></trkpt><trkpt lat="38.7264034" lon="20.5992227"><ele>586.0</ele><time>2026-05-01T08:58:54.835Z</time></trkpt><trkpt lat="38.726263" lon="20.5992797"><ele>586.0</ele><time>2026-05-01T08:58:55.834Z</time></trkpt><trkpt lat="38.7261262" lon="20.5993347"><ele>586.0</ele><time>2026-05-01T08:58:56.832Z</time></trkpt><trkpt lat="38.7259937" lon="20.5993864"><ele>586.0</ele><time>2026-05-01T08:58:57.836Z</time></trkpt><trkpt lat="38.7258696" lon="20.5994271"><ele>586.3333333333334</ele><time>2026-05-01T08:58:58.836Z</time></trkpt><trkpt lat="38.7257651" lon="20.5994612"><ele>586.6666666666667</ele><time>2026-05-01T08:58:59.835Z</time></trkpt><trkpt lat="38.725676" lon="20.5994826"><ele>587.0</ele><time>2026-05-01T08:59:00.836Z</time></trkpt><trkpt lat="38.7256099" lon="20.5994977"><ele>587.3333333333334</ele><time>2026-05-01T08:59:01.834Z</time></trkpt><trkpt lat="38.725536" lon="20.5995152"><ele>587.6666666666666</ele><time>2026-05-01T08:59:03.835Z</time></trkpt><trkpt lat="38.7254532" lon="20.5995283"><ele>588.0</ele><time>2026-05-01T08:59:09.834Z</time></trkpt><trkpt lat="38.72533" lon="20.599538"><ele>591.4</ele><time>2026-05-01T08:59:11.833Z</time></trkpt><trkpt lat="38.7252379" lon="20.5995548"><ele>594.8</ele><time>2026-05-01T08:59:12.835Z</time></trkpt><trkpt lat="38.7251364" lon="20.5995758"><ele>598.2</ele><time>2026-05-01T08:59:13.836Z</time></trkpt><trkpt lat="38.7250237" lon="20.5996062"><ele>601.6</ele><time>2026-05-01T08:59:14.836Z</time></trkpt><trkpt lat="38.7248994" lon="20.5996445"><ele>605.0</ele><time>2026-05-01T08:59:15.834Z</time></trkpt><trkpt lat="38.7247767" lon="20.5996825"><ele>605.0</ele><time>2026-05-01T08:59:16.834Z</time></trkpt><trkpt lat="38.7246539" lon="20.5997233"><ele>605.0</ele><time>2026-05-01T08:59:17.833Z</time></trkpt><trkpt lat="38.7245312" lon="20.5997589"><ele>605.0</ele><time>2026-05-01T08:59:18.834Z</time></trkpt><trkpt lat="38.7244072" lon="20.599802"><ele>605.0</ele><time>2026-05-01T08:59:19.835Z</time></trkpt><trkpt lat="38.7242809" lon="20.5998383"><ele>602.25</ele><time>2026-05-01T08:59:20.834Z</time></trkpt><trkpt lat="38.7241522" lon="20.5998741"><ele>599.5</ele><time>2026-05-01T08:59:21.833Z</time></trkpt><trkpt lat="38.7240199" lon="20.5999102"><ele>596.75</ele><time>2026-05-01T08:59:22.832Z</time></trkpt><trkpt lat="38.723889" lon="20.5999451"><ele>594.0</ele><time>2026-05-01T08:59:23.835Z</time></trkpt><trkpt lat="38.7237522" lon="20.5999748"><ele>594.0</ele><time>2026-05-01T08:59:24.832Z</time></trkpt><trkpt lat="38.7236141" lon="20.5999988"><ele>594.0</ele><time>2026-05-01T08:59:25.835Z</time></trkpt><trkpt lat="38.7234656" lon="20.6000112"><ele>594.0</ele><time>2026-05-01T08:59:26.835Z</time></trkpt><trkpt lat="38.7233289" lon="20.6000083"><ele>594.0</ele><time>2026-05-01T08:59:27.836Z</time></trkpt><trkpt lat="38.7231719" lon="20.6000136"><ele>592.75</ele><time>2026-05-01T08:59:28.834Z</time></trkpt><trkpt lat="38.7230226" lon="20.6000091"><ele>591.5</ele><time>2026-05-01T08:59:29.836Z</time></trkpt><trkpt lat="38.7228744" lon="20.5999959"><ele>590.25</ele><time>2026-05-01T08:59:30.832Z</time></trkpt><trkpt lat="38.7227253" lon="20.599985"><ele>589.0</ele><time>2026-05-01T08:59:31.833Z</time></trkpt><trkpt lat="38.7225527" lon="20.5999694"><ele>588.6666666666667</ele><time>2026-05-01T08:59:32.833Z</time></trkpt><trkpt lat="38.7223678" lon="20.5999554"><ele>588.3333333333334</ele><time>2026-05-01T08:59:33.834Z</time></trkpt><trkpt lat="38.722173" lon="20.5999473"><ele>588.0</ele><time>2026-05-01T08:59:34.833Z</time></trkpt><trkpt lat="38.7219729" lon="20.5999385"><ele>588.6666666666666</ele><time>2026-05-01T08:59:35.833Z</time></trkpt><trkpt lat="38.7217488" lon="20.59992"><ele>589.3333333333333</ele><time>2026-05-01T08:59:36.835Z</time></trkpt><trkpt lat="38.7215329" lon="20.5999092"><ele>590.0</ele><time>2026-05-01T08:59:37.835Z</time></trkpt><trkpt lat="38.7213307" lon="20.5998874"><ele>590.0</ele><time>2026-05-01T08:59:38.836Z</time></trkpt><trkpt lat="38.7211448" lon="20.5998699"><ele>590.0</ele><time>2026-05-01T08:59:39.833Z</time></trkpt><trkpt lat="38.7209807" lon="20.5998692"><ele>590.0</ele><time>2026-05-01T08:59:40.834Z</time></trkpt><trkpt lat="38.7208188" lon="20.5998909"><ele>591.0</ele><time>2026-05-01T08:59:41.835Z</time></trkpt><trkpt lat="38.7206502" lon="20.5999347"><ele>592.0</ele><time>2026-05-01T08:59:42.833Z</time></trkpt><trkpt lat="38.7204913" lon="20.6000014"><ele>593.0</ele><time>2026-05-01T08:59:43.835Z</time></trkpt><trkpt lat="38.7203236" lon="20.600083"><ele>591.3333333333333</ele><time>2026-05-01T08:59:44.835Z</time></trkpt><trkpt lat="38.7201435" lon="20.6001799"><ele>589.6666666666666</ele><time>2026-05-01T08:59:45.833Z</time></trkpt><trkpt lat="38.7199647" lon="20.6002821"><ele>588.0</ele><time>2026-05-01T08:59:46.83Z</time></trkpt><trkpt lat="38.7197903" lon="20.6003795"><ele>592.3333333333334</ele><time>2026-05-01T08:59:47.836Z</time></trkpt><trkpt lat="38.7196115" lon="20.6004739"><ele>596.6666666666667</ele><time>2026-05-01T08:59:48.834Z</time></trkpt><trkpt lat="38.7194386" lon="20.6005651"><ele>601.0</ele><time>2026-05-01T08:59:49.836Z</time></trkpt><trkpt lat="38.7192686" lon="20.6006574"><ele>601.0</ele><time>2026-05-01T08:59:50.835Z</time></trkpt><trkpt lat="38.7191026" lon="20.6007473"><ele>601.0</ele><time>2026-05-01T08:59:51.835Z</time></trkpt><trkpt lat="38.7189515" lon="20.600836"><ele>601.0</ele><time>2026-05-01T08:59:52.835Z</time></trkpt><trkpt lat="38.7188139" lon="20.6009144"><ele>601.0</ele><time>2026-05-01T08:59:53.833Z</time></trkpt><trkpt lat="38.7186961" lon="20.6009706"><ele>601.0</ele><time>2026-05-01T08:59:54.834Z</time></trkpt><trkpt lat="38.7185815" lon="20.6010369"><ele>601.0</ele><time>2026-05-01T08:59:55.836Z</time></trkpt><trkpt lat="38.7184686" lon="20.6011121"><ele>601.0</ele><time>2026-05-01T08:59:56.835Z</time></trkpt><trkpt lat="38.7183598" lon="20.6011914"><ele>603.5</ele><time>2026-05-01T08:59:57.836Z</time></trkpt><trkpt lat="38.7182651" lon="20.6012854"><ele>606.0</ele><time>2026-05-01T08:59:58.834Z</time></trkpt><trkpt lat="38.7181805" lon="20.601403"><ele>608.5</ele><time>2026-05-01T08:59:59.834Z</time></trkpt><trkpt lat="38.7181072" lon="20.6015296"><ele>611.0</ele><time>2026-05-01T09:00:00.832Z</time></trkpt><trkpt lat="38.7180355" lon="20.6016589"><ele>611.0</ele><time>2026-05-01T09:00:01.834Z</time></trkpt><trkpt lat="38.7179641" lon="20.6017855"><ele>611.0</ele><time>2026-05-01T09:00:02.835Z</time></trkpt><trkpt lat="38.7178716" lon="20.6019035"><ele>611.0</ele><time>2026-05-01T09:00:03.836Z</time></trkpt><trkpt lat="38.7177678" lon="20.6020156"><ele>611.0</ele><time>2026-05-01T09:00:04.835Z</time></trkpt><trkpt lat="38.7176584" lon="20.6021206"><ele>612.75</ele><time>2026-05-01T09:00:05.833Z</time></trkpt><trkpt lat="38.7175488" lon="20.602224"><ele>614.5</ele><time>2026-05-01T09:00:06.834Z</time></trkpt><trkpt lat="38.7174347" lon="20.6023184"><ele>616.25</ele><time>2026-05-01T09:00:07.835Z</time></trkpt><trkpt lat="38.7173373" lon="20.6024157"><ele>618.0</ele><time>2026-05-01T09:00:08.834Z</time></trkpt><trkpt lat="38.7172564" lon="20.6025325"><ele>618.0</ele><time>2026-05-01T09:00:09.834Z</time></trkpt><trkpt lat="38.7171974" lon="20.6026608"><ele>618.0</ele><time>2026-05-01T09:00:10.836Z</time></trkpt><trkpt lat="38.7171512" lon="20.6027958"><ele>618.0</ele><time>2026-05-01T09:00:11.833Z</time></trkpt><trkpt lat="38.7171101" lon="20.6029181"><ele>618.0</ele><time>2026-05-01T09:00:12.836Z</time></trkpt><trkpt lat="38.7170779" lon="20.6030382"><ele>618.0</ele><time>2026-05-01T09:00:13.832Z</time></trkpt><trkpt lat="38.71706" lon="20.6031634"><ele>617.6</ele><time>2026-05-01T09:00:14.835Z</time></trkpt><trkpt lat="38.7170446" lon="20.6032876"><ele>617.1999999999999</ele><time>2026-05-01T09:00:15.832Z</time></trkpt><trkpt lat="38.7170316" lon="20.6033915"><ele>616.8</ele><time>2026-05-01T09:00:16.832Z</time></trkpt><trkpt lat="38.7170065" lon="20.6034778"><ele>616.4</ele><time>2026-05-01T09:00:17.832Z</time></trkpt><trkpt lat="38.7168851" lon="20.603525"><ele>616.0</ele><time>2026-05-01T09:00:19.833Z</time></trkpt><trkpt lat="38.7167984" lon="20.603512"><ele>616.0</ele><time>2026-05-01T09:00:20.835Z</time></trkpt><trkpt lat="38.7167078" lon="20.6035029"><ele>616.0</ele><time>2026-05-01T09:00:21.832Z</time></trkpt><trkpt lat="38.7166043" lon="20.6034905"><ele>616.0</ele><time>2026-05-01T09:00:22.83Z</time></trkpt><trkpt lat="38.7165072" lon="20.6034828"><ele>616.0</ele><time>2026-05-01T09:00:23.835Z</time></trkpt><trkpt lat="38.7164078" lon="20.603468"><ele>616.0</ele><time>2026-05-01T09:00:24.835Z</time></trkpt><trkpt lat="38.7163017" lon="20.603445"><ele>616.0</ele><time>2026-05-01T09:00:25.835Z</time></trkpt><trkpt lat="38.716198" lon="20.6034132"><ele>616.0</ele><time>2026-05-01T09:00:26.835Z</time></trkpt><trkpt lat="38.7160931" lon="20.6033726"><ele>616.0</ele><time>2026-05-01T09:00:27.833Z</time></trkpt><trkpt lat="38.715976" lon="20.6033274"><ele>616.0</ele><time>2026-05-01T09:00:28.835Z</time></trkpt><trkpt lat="38.7158663" lon="20.603297"><ele>615.6</ele><time>2026-05-01T09:00:29.836Z</time></trkpt><trkpt lat="38.7157626" lon="20.6032698"><ele>615.2</ele><time>2026-05-01T09:00:30.835Z</time></trkpt><trkpt lat="38.7156662" lon="20.6032356"><ele>614.8</ele><time>2026-05-01T09:00:31.833Z</time></trkpt><trkpt lat="38.7155572" lon="20.6031774"><ele>614.4</ele><time>2026-05-01T09:00:32.833Z</time></trkpt><trkpt lat="38.7154596" lon="20.6031132"><ele>614.0</ele><time>2026-05-01T09:00:33.834Z</time></trkpt><trkpt lat="38.7153586" lon="20.6030398"><ele>614.0</ele><time>2026-05-01T09:00:34.832Z</time></trkpt><trkpt lat="38.7152583" lon="20.6029579"><ele>614.0</ele><time>2026-05-01T09:00:35.835Z</time></trkpt><trkpt lat="38.7151679" lon="20.6028893"><ele>614.0</ele><time>2026-05-01T09:00:36.836Z</time></trkpt><trkpt lat="38.7150714" lon="20.6028146"><ele>614.0</ele><time>2026-05-01T09:00:37.832Z</time></trkpt><trkpt lat="38.7149742" lon="20.6027461"><ele>614.0</ele><time>2026-05-01T09:00:38.833Z</time></trkpt><trkpt lat="38.7148689" lon="20.6027109"><ele>610.75</ele><time>2026-05-01T09:00:39.832Z</time></trkpt><trkpt lat="38.714753" lon="20.6027046"><ele>607.5</ele><time>2026-05-01T09:00:40.834Z</time></trkpt><trkpt lat="38.7146382" lon="20.6027174"><ele>604.25</ele><time>2026-05-01T09:00:41.834Z</time></trkpt><trkpt lat="38.7145128" lon="20.6027502"><ele>601.0</ele><time>2026-05-01T09:00:42.835Z</time></trkpt><trkpt lat="38.7143991" lon="20.6027855"><ele>600.0</ele><time>2026-05-01T09:00:43.833Z</time></trkpt><trkpt lat="38.7142785" lon="20.6028093"><ele>599.0</ele><time>2026-05-01T09:00:44.832Z</time></trkpt><trkpt lat="38.7141667" lon="20.6028103"><ele>598.0</ele><time>2026-05-01T09:00:45.831Z</time></trkpt><trkpt lat="38.7140555" lon="20.6027942"><ele>597.0</ele><time>2026-05-01T09:00:46.832Z</time></trkpt><trkpt lat="38.7139454" lon="20.6027696"><ele>597.0</ele><time>2026-05-01T09:00:47.833Z</time></trkpt><trkpt lat="38.7138405" lon="20.6027395"><ele>597.0</ele><time>2026-05-01T09:00:48.833Z</time></trkpt><trkpt lat="38.7137254" lon="20.6027039"><ele>597.0</ele><time>2026-05-01T09:00:49.831Z</time></trkpt><trkpt lat="38.7136109" lon="20.6026817"><ele>597.0</ele><time>2026-05-01T09:00:50.833Z</time></trkpt><trkpt lat="38.7134897" lon="20.6026822"><ele>595.25</ele><time>2026-05-01T09:00:51.835Z</time></trkpt><trkpt lat="38.7133662" lon="20.6027037"><ele>593.5</ele><time>2026-05-01T09:00:52.832Z</time></trkpt><trkpt lat="38.7132464" lon="20.6027404"><ele>591.75</ele><time>2026-05-01T09:00:53.831Z</time></trkpt><trkpt lat="38.7131232" lon="20.6027753"><ele>590.0</ele><time>2026-05-01T09:00:54.833Z</time></trkpt><trkpt lat="38.7130024" lon="20.6028087"><ele>591.0</ele><time>2026-05-01T09:00:55.832Z</time></trkpt><trkpt lat="38.7128832" lon="20.602841"><ele>592.0</ele><time>2026-05-01T09:00:56.832Z</time></trkpt><trkpt lat="38.7127686" lon="20.6028828"><ele>593.0</ele><time>2026-05-01T09:00:57.836Z</time></trkpt><trkpt lat="38.7126543" lon="20.6029183"><ele>594.0</ele><time>2026-05-01T09:00:58.833Z</time></trkpt><trkpt lat="38.7125387" lon="20.6029663"><ele>594.0</ele><time>2026-05-01T09:00:59.834Z</time></trkpt><trkpt lat="38.7124168" lon="20.6030165"><ele>594.0</ele><time>2026-05-01T09:01:00.832Z</time></trkpt><trkpt lat="38.71229" lon="20.6030783"><ele>594.0</ele><time>2026-05-01T09:01:01.832Z</time></trkpt><trkpt lat="38.7121616" lon="20.6031368"><ele>594.0</ele><time>2026-05-01T09:01:02.833Z</time></trkpt><trkpt lat="38.7120348" lon="20.6032015"><ele>589.25</ele><time>2026-05-01T09:01:03.835Z</time></trkpt><trkpt lat="38.7119022" lon="20.6032588"><ele>584.5</ele><time>2026-05-01T09:01:04.831Z</time></trkpt><trkpt lat="38.711777" lon="20.6033179"><ele>579.75</ele><time>2026-05-01T09:01:05.833Z</time></trkpt><trkpt lat="38.71165" lon="20.60338"><ele>575.0</ele><time>2026-05-01T09:01:06.832Z</time></trkpt><trkpt lat="38.7115246" lon="20.6034392"><ele>575.0</ele><time>2026-05-01T09:01:07.833Z</time></trkpt><trkpt lat="38.7113959" lon="20.6034982"><ele>575.0</ele><time>2026-05-01T09:01:08.832Z</time></trkpt><trkpt lat="38.7112692" lon="20.6035545"><ele>575.0</ele><time>2026-05-01T09:01:09.834Z</time></trkpt><trkpt lat="38.7111457" lon="20.6036006"><ele>575.0</ele><time>2026-05-01T09:01:10.832Z</time></trkpt><trkpt lat="38.7110228" lon="20.6036435"><ele>575.5</ele><time>2026-05-01T09:01:11.831Z</time></trkpt><trkpt lat="38.7109025" lon="20.6036855"><ele>576.0</ele><time>2026-05-01T09:01:12.832Z</time></trkpt><trkpt lat="38.7107802" lon="20.6037269"><ele>576.5</ele><time>2026-05-01T09:01:13.83Z</time></trkpt><trkpt lat="38.7106625" lon="20.6037658"><ele>577.0</ele><time>2026-05-01T09:01:14.83Z</time></trkpt><trkpt lat="38.7105486" lon="20.6038055"><ele>577.0</ele><time>2026-05-01T09:01:15.831Z</time></trkpt><trkpt lat="38.7104334" lon="20.603841"><ele>577.0</ele><time>2026-05-01T09:01:16.833Z</time></trkpt><trkpt lat="38.7103144" lon="20.6038705"><ele>577.0</ele><time>2026-05-01T09:01:17.834Z</time></trkpt><trkpt lat="38.7101954" lon="20.6038988"><ele>577.0</ele><time>2026-05-01T09:01:18.831Z</time></trkpt><trkpt lat="38.7100749" lon="20.6039249"><ele>574.25</ele><time>2026-05-01T09:01:19.832Z</time></trkpt><trkpt lat="38.7099492" lon="20.6039447"><ele>571.5</ele><time>2026-05-01T09:01:20.831Z</time></trkpt><trkpt lat="38.7098229" lon="20.6039726"><ele>568.75</ele><time>2026-05-01T09:01:21.831Z</time></trkpt><trkpt lat="38.7096981" lon="20.6039932"><ele>566.0</ele><time>2026-05-01T09:01:22.831Z</time></trkpt><trkpt lat="38.7095815" lon="20.6040286"><ele>566.0</ele><time>2026-05-01T09:01:23.833Z</time></trkpt><trkpt lat="38.7094809" lon="20.6040542"><ele>566.0</ele><time>2026-05-01T09:01:24.83Z</time></trkpt><trkpt lat="38.7093948" lon="20.6040787"><ele>566.0</ele><time>2026-05-01T09:01:25.832Z</time></trkpt><trkpt lat="38.7093162" lon="20.6040583"><ele>566.0</ele><time>2026-05-01T09:01:26.831Z</time></trkpt><trkpt lat="38.7092463" lon="20.6039393"><ele>566.0</ele><time>2026-05-01T09:01:28.831Z</time></trkpt><trkpt lat="38.709258" lon="20.6038537"><ele>566.0</ele><time>2026-05-01T09:01:29.83Z</time></trkpt><trkpt lat="38.7093151" lon="20.6037892"><ele>566.0</ele><time>2026-05-01T09:01:30.835Z</time></trkpt><trkpt lat="38.709381" lon="20.6037106"><ele>566.0</ele><time>2026-05-01T09:01:31.833Z</time></trkpt><trkpt lat="38.7095226" lon="20.6036802"><ele>566.0</ele><time>2026-05-01T09:01:32.83Z</time></trkpt><trkpt lat="38.7096524" lon="20.6036408"><ele>566.0</ele><time>2026-05-01T09:01:33.833Z</time></trkpt><trkpt lat="38.709781" lon="20.6035726"><ele>563.75</ele><time>2026-05-01T09:01:34.832Z</time></trkpt><trkpt lat="38.7099059" lon="20.6034837"><ele>561.5</ele><time>2026-05-01T09:01:35.829Z</time></trkpt><trkpt lat="38.7100238" lon="20.6033556"><ele>559.25</ele><time>2026-05-01T09:01:36.835Z</time></trkpt><trkpt lat="38.7101355" lon="20.6032295"><ele>557.0</ele><time>2026-05-01T09:01:37.832Z</time></trkpt><trkpt lat="38.7102481" lon="20.6030929"><ele>557.0</ele><time>2026-05-01T09:01:38.832Z</time></trkpt><trkpt lat="38.7103616" lon="20.602957"><ele>557.0</ele><time>2026-05-01T09:01:39.835Z</time></trkpt><trkpt lat="38.7104721" lon="20.6028222"><ele>557.0</ele><time>2026-05-01T09:01:40.835Z</time></trkpt><trkpt lat="38.710576" lon="20.6026895"><ele>553.25</ele><time>2026-05-01T09:01:41.833Z</time></trkpt><trkpt lat="38.7106734" lon="20.602542"><ele>549.5</ele><time>2026-05-01T09:01:42.835Z</time></trkpt><trkpt lat="38.7107787" lon="20.6024128"><ele>545.75</ele><time>2026-05-01T09:01:43.836Z</time></trkpt><trkpt lat="38.710871" lon="20.6022832"><ele>542.0</ele><time>2026-05-01T09:01:44.832Z</time></trkpt><trkpt lat="38.710961" lon="20.6021412"><ele>542.0</ele><time>2026-05-01T09:01:45.833Z</time></trkpt><trkpt lat="38.7110446" lon="20.6020113"><ele>542.0</ele><time>2026-05-01T09:01:46.834Z</time></trkpt><trkpt lat="38.7111155" lon="20.6018782"><ele>542.0</ele><time>2026-05-01T09:01:47.834Z</time></trkpt><trkpt lat="38.711173" lon="20.6017304"><ele>542.0</ele><time>2026-05-01T09:01:48.833Z</time></trkpt><trkpt lat="38.7112209" lon="20.6015732"><ele>540.75</ele><time>2026-05-01T09:01:49.834Z</time></trkpt><trkpt lat="38.7112609" lon="20.6014185"><ele>539.5</ele><time>2026-05-01T09:01:50.834Z</time></trkpt><trkpt lat="38.7113024" lon="20.6012563"><ele>538.25</ele><time>2026-05-01T09:01:51.835Z</time></trkpt><trkpt lat="38.7113456" lon="20.6011039"><ele>537.0</ele><time>2026-05-01T09:01:52.836Z</time></trkpt><trkpt lat="38.711386" lon="20.6009607"><ele>537.0</ele><time>2026-05-01T09:01:53.831Z</time></trkpt><trkpt lat="38.7114325" lon="20.6008199"><ele>537.0</ele><time>2026-05-01T09:01:54.836Z</time></trkpt><trkpt lat="38.7115016" lon="20.6006826"><ele>537.0</ele><time>2026-05-01T09:01:55.832Z</time></trkpt><trkpt lat="38.7115813" lon="20.6005559"><ele>537.0</ele><time>2026-05-01T09:01:56.834Z</time></trkpt><trkpt lat="38.7116767" lon="20.6004392"><ele>537.0</ele><time>2026-05-01T09:01:57.833Z</time></trkpt><trkpt lat="38.7117831" lon="20.6003369"><ele>537.0</ele><time>2026-05-01T09:01:58.833Z</time></trkpt><trkpt lat="38.7118984" lon="20.6002333"><ele>537.0</ele><time>2026-05-01T09:01:59.833Z</time></trkpt><trkpt lat="38.7120166" lon="20.6001204"><ele>537.0</ele><time>2026-05-01T09:02:00.833Z</time></trkpt><trkpt lat="38.7121535" lon="20.6000068"><ele>534.5</ele><time>2026-05-01T09:02:01.833Z</time></trkpt><trkpt lat="38.71228" lon="20.5999036"><ele>532.0</ele><time>2026-05-01T09:02:02.834Z</time></trkpt><trkpt lat="38.7124009" lon="20.5998078"><ele>529.5</ele><time>2026-05-01T09:02:03.835Z</time></trkpt><trkpt lat="38.7125191" lon="20.5997147"><ele>527.0</ele><time>2026-05-01T09:02:04.834Z</time></trkpt><trkpt lat="38.7126318" lon="20.5996217"><ele>528.25</ele><time>2026-05-01T09:02:05.831Z</time></trkpt><trkpt lat="38.7127458" lon="20.5995383"><ele>529.5</ele><time>2026-05-01T09:02:06.834Z</time></trkpt><trkpt lat="38.7128622" lon="20.5994505"><ele>530.75</ele><time>2026-05-01T09:02:07.834Z</time></trkpt><trkpt lat="38.7129858" lon="20.5993938"><ele>532.0</ele><time>2026-05-01T09:02:08.836Z</time></trkpt><trkpt lat="38.7131094" lon="20.5993683"><ele>528.25</ele><time>2026-05-01T09:02:09.835Z</time></trkpt><trkpt lat="38.7132352" lon="20.5993638"><ele>524.5</ele><time>2026-05-01T09:02:10.834Z</time></trkpt><trkpt lat="38.7133696" lon="20.5993757"><ele>520.75</ele><time>2026-05-01T09:02:11.833Z</time></trkpt><trkpt lat="38.7135038" lon="20.5993742"><ele>517.0</ele><time>2026-05-01T09:02:12.832Z</time></trkpt><trkpt lat="38.713635" lon="20.5993558"><ele>517.0</ele><time>2026-05-01T09:02:13.831Z</time></trkpt><trkpt lat="38.7137596" lon="20.5993107"><ele>517.0</ele><time>2026-05-01T09:02:14.832Z</time></trkpt><trkpt lat="38.7138776" lon="20.5992447"><ele>517.0</ele><time>2026-05-01T09:02:15.833Z</time></trkpt><trkpt lat="38.7139898" lon="20.5991614"><ele>517.0</ele><time>2026-05-01T09:02:16.835Z</time></trkpt><trkpt lat="38.7141003" lon="20.5990759"><ele>517.0</ele><time>2026-05-01T09:02:17.831Z</time></trkpt><trkpt lat="38.7142048" lon="20.5989842"><ele>517.0</ele><time>2026-05-01T09:02:18.833Z</time></trkpt><trkpt lat="38.7143025" lon="20.5988831"><ele>517.0</ele><time>2026-05-01T09:02:19.836Z</time></trkpt><trkpt lat="38.7144005" lon="20.598763"><ele>517.0</ele><time>2026-05-01T09:02:20.836Z</time></trkpt><trkpt lat="38.714475" lon="20.5986384"><ele>516.0</ele><time>2026-05-01T09:02:21.834Z</time></trkpt><trkpt lat="38.7145361" lon="20.5985203"><ele>515.0</ele><time>2026-05-01T09:02:22.835Z</time></trkpt><trkpt lat="38.7145818" lon="20.5983928"><ele>514.0</ele><time>2026-05-01T09:02:23.835Z</time></trkpt><trkpt lat="38.7146143" lon="20.5982672"><ele>513.0</ele><time>2026-05-01T09:02:24.834Z</time></trkpt><trkpt lat="38.7146148" lon="20.5981314"><ele>512.0</ele><time>2026-05-01T09:02:25.832Z</time></trkpt><trkpt lat="38.7145941" lon="20.5980038"><ele>512.0</ele><time>2026-05-01T09:02:26.836Z</time></trkpt><trkpt lat="38.7145528" lon="20.5978847"><ele>512.0</ele><time>2026-05-01T09:02:27.83Z</time></trkpt><trkpt lat="38.714482" lon="20.5977776"><ele>512.0</ele><time>2026-05-01T09:02:28.835Z</time></trkpt><trkpt lat="38.714393" lon="20.5976873"><ele>512.0</ele><time>2026-05-01T09:02:29.835Z</time></trkpt><trkpt lat="38.714273" lon="20.5976176"><ele>510.0</ele><time>2026-05-01T09:02:30.834Z</time></trkpt><trkpt lat="38.7140997" lon="20.5975593"><ele>508.0</ele><time>2026-05-01T09:02:31.832Z</time></trkpt><trkpt lat="38.7139243" lon="20.5975242"><ele>506.0</ele><time>2026-05-01T09:02:32.833Z</time></trkpt><trkpt lat="38.7137276" lon="20.5974832"><ele>507.3333333333333</ele><time>2026-05-01T09:02:33.831Z</time></trkpt><trkpt lat="38.7135179" lon="20.597446"><ele>508.66666666666663</ele><time>2026-05-01T09:02:34.835Z</time></trkpt><trkpt lat="38.7133058" lon="20.5974138"><ele>510.0</ele><time>2026-05-01T09:02:35.832Z</time></trkpt><trkpt lat="38.7130944" lon="20.5973713"><ele>510.0</ele><time>2026-05-01T09:02:36.835Z</time></trkpt><trkpt lat="38.7128975" lon="20.597333"><ele>510.0</ele><time>2026-05-01T09:02:37.836Z</time></trkpt><trkpt lat="38.7127002" lon="20.5972927"><ele>510.0</ele><time>2026-05-01T09:02:38.835Z</time></trkpt><trkpt lat="38.7125108" lon="20.5972546"><ele>509.0</ele><time>2026-05-01T09:02:39.832Z</time></trkpt><trkpt lat="38.7123403" lon="20.5971453"><ele>508.0</ele><time>2026-05-01T09:02:40.831Z</time></trkpt><trkpt lat="38.712164" lon="20.597021"><ele>507.0</ele><time>2026-05-01T09:02:41.833Z</time></trkpt><trkpt lat="38.7120162" lon="20.5968741"><ele>511.66666666666663</ele><time>2026-05-01T09:02:42.833Z</time></trkpt><trkpt lat="38.7118734" lon="20.5967484"><ele>516.3333333333333</ele><time>2026-05-01T09:02:43.835Z</time></trkpt><trkpt lat="38.7117371" lon="20.596643"><ele>521.0</ele><time>2026-05-01T09:02:44.833Z</time></trkpt><trkpt lat="38.7115991" lon="20.5965642"><ele>521.0</ele><time>2026-05-01T09:02:45.834Z</time></trkpt><trkpt lat="38.7114557" lon="20.5965137"><ele>521.0</ele><time>2026-05-01T09:02:46.831Z</time></trkpt><trkpt lat="38.7112952" lon="20.5964955"><ele>521.0</ele><time>2026-05-01T09:02:47.835Z</time></trkpt><trkpt lat="38.7111359" lon="20.5964991"><ele>518.6666666666666</ele><time>2026-05-01T09:02:48.834Z</time></trkpt><trkpt lat="38.7109748" lon="20.5965272"><ele>516.3333333333334</ele><time>2026-05-01T09:02:49.831Z</time></trkpt><trkpt lat="38.7108112" lon="20.5965722"><ele>514.0</ele><time>2026-05-01T09:02:50.832Z</time></trkpt><trkpt lat="38.7106506" lon="20.5966243"><ele>514.0</ele><time>2026-05-01T09:02:51.833Z</time></trkpt><trkpt lat="38.7104931" lon="20.5966747"><ele>514.0</ele><time>2026-05-01T09:02:52.834Z</time></trkpt><trkpt lat="38.7103397" lon="20.5967203"><ele>514.0</ele><time>2026-05-01T09:02:53.836Z</time></trkpt><trkpt lat="38.7102022" lon="20.5967625"><ele>514.25</ele><time>2026-05-01T09:02:54.833Z</time></trkpt><trkpt lat="38.7100731" lon="20.5967969"><ele>514.5</ele><time>2026-05-01T09:02:55.836Z</time></trkpt><trkpt lat="38.7099498" lon="20.5968165"><ele>514.75</ele><time>2026-05-01T09:02:56.836Z</time></trkpt><trkpt lat="38.709822" lon="20.5968264"><ele>515.0</ele><time>2026-05-01T09:02:57.833Z</time></trkpt><trkpt lat="38.7096861" lon="20.5968273"><ele>515.0</ele><time>2026-05-01T09:02:58.834Z</time></trkpt><trkpt lat="38.7095643" lon="20.5968018"><ele>515.0</ele><time>2026-05-01T09:02:59.834Z</time></trkpt><trkpt lat="38.7094558" lon="20.5967661"><ele>515.0</ele><time>2026-05-01T09:03:00.836Z</time></trkpt><trkpt lat="38.7093576" lon="20.5967384"><ele>515.0</ele><time>2026-05-01T09:03:01.833Z</time></trkpt><trkpt lat="38.7092689" lon="20.5967117"><ele>515.0</ele><time>2026-05-01T09:03:02.836Z</time></trkpt><trkpt lat="38.7091947" lon="20.5966941"><ele>514.2</ele><time>2026-05-01T09:03:03.836Z</time></trkpt><trkpt lat="38.7091301" lon="20.5966663"><ele>513.4</ele><time>2026-05-01T09:03:04.836Z</time></trkpt><trkpt lat="38.7090654" lon="20.5965784"><ele>512.6</ele><time>2026-05-01T09:03:06.836Z</time></trkpt><trkpt lat="38.7090935" lon="20.5964425"><ele>511.8</ele><time>2026-05-01T09:03:08.835Z</time></trkpt><trkpt lat="38.7091574" lon="20.5963387"><ele>511.0</ele><time>2026-05-01T09:03:09.834Z</time></trkpt><trkpt lat="38.709233" lon="20.596257"><ele>511.0</ele><time>2026-05-01T09:03:10.835Z</time></trkpt><trkpt lat="38.7093369" lon="20.5961874"><ele>511.0</ele><time>2026-05-01T09:03:11.835Z</time></trkpt><trkpt lat="38.7094433" lon="20.5961226"><ele>511.0</ele><time>2026-05-01T09:03:12.834Z</time></trkpt><trkpt lat="38.7095642" lon="20.5960539"><ele>511.0</ele><time>2026-05-01T09:03:13.834Z</time></trkpt><trkpt lat="38.7096897" lon="20.5959792"><ele>511.25</ele><time>2026-05-01T09:03:14.831Z</time></trkpt><trkpt lat="38.7098107" lon="20.5958896"><ele>511.5</ele><time>2026-05-01T09:03:15.833Z</time></trkpt><trkpt lat="38.7099288" lon="20.5957769"><ele>511.75</ele><time>2026-05-01T09:03:16.834Z</time></trkpt><trkpt lat="38.7100296" lon="20.5956753"><ele>512.0</ele><time>2026-05-01T09:03:17.835Z</time></trkpt><trkpt lat="38.7101394" lon="20.595571"><ele>513.8000000000001</ele><time>2026-05-01T09:03:18.833Z</time></trkpt><trkpt lat="38.7102543" lon="20.5955093"><ele>515.6</ele><time>2026-05-01T09:03:19.833Z</time></trkpt><trkpt lat="38.7103565" lon="20.5955019"><ele>517.4000000000001</ele><time>2026-05-01T09:03:20.829Z</time></trkpt><trkpt lat="38.7104632" lon="20.5954843"><ele>519.2</ele><time>2026-05-01T09:03:21.83Z</time></trkpt><trkpt lat="38.7105397" lon="20.5954611"><ele>521.0</ele><time>2026-05-01T09:03:22.832Z</time></trkpt><trkpt lat="38.7106115" lon="20.5954061"><ele>519.8</ele><time>2026-05-01T09:03:23.83Z</time></trkpt><trkpt lat="38.7106525" lon="20.5953124"><ele>518.6</ele><time>2026-05-01T09:03:24.835Z</time></trkpt><trkpt lat="38.7106673" lon="20.5951958"><ele>517.4</ele><time>2026-05-01T09:03:25.833Z</time></trkpt><trkpt lat="38.7106762" lon="20.5950638"><ele>516.2</ele><time>2026-05-01T09:03:26.83Z</time></trkpt><trkpt lat="38.7107067" lon="20.5949323"><ele>515.0</ele><time>2026-05-01T09:03:27.832Z</time></trkpt><trkpt lat="38.7107424" lon="20.5947839"><ele>515.0</ele><time>2026-05-01T09:03:28.833Z</time></trkpt><trkpt lat="38.7107768" lon="20.5946126"><ele>515.0</ele><time>2026-05-01T09:03:29.833Z</time></trkpt><trkpt lat="38.7108099" lon="20.5944416"><ele>515.0</ele><time>2026-05-01T09:03:30.835Z</time></trkpt><trkpt lat="38.7108355" lon="20.5942681"><ele>515.0</ele><time>2026-05-01T09:03:31.834Z</time></trkpt><trkpt lat="38.7108497" lon="20.5940929"><ele>513.75</ele><time>2026-05-01T09:03:32.833Z</time></trkpt><trkpt lat="38.7108523" lon="20.5939272"><ele>512.5</ele><time>2026-05-01T09:03:33.834Z</time></trkpt><trkpt lat="38.7108561" lon="20.5937725"><ele>511.25</ele><time>2026-05-01T09:03:34.836Z</time></trkpt><trkpt lat="38.7108566" lon="20.5936268"><ele>510.0</ele><time>2026-05-01T09:03:35.835Z</time></trkpt><trkpt lat="38.7108487" lon="20.5934974"><ele>510.0</ele><time>2026-05-01T09:03:36.835Z</time></trkpt><trkpt lat="38.7108225" lon="20.5933645"><ele>510.0</ele><time>2026-05-01T09:03:37.831Z</time></trkpt><trkpt lat="38.7107788" lon="20.5932294"><ele>510.0</ele><time>2026-05-01T09:03:38.834Z</time></trkpt><trkpt lat="38.710727" lon="20.5931038"><ele>510.0</ele><time>2026-05-01T09:03:39.834Z</time></trkpt><trkpt lat="38.7106759" lon="20.5929869"><ele>510.0</ele><time>2026-05-01T09:03:40.834Z</time></trkpt><trkpt lat="38.7106186" lon="20.5928742"><ele>510.0</ele><time>2026-05-01T09:03:41.832Z</time></trkpt><trkpt lat="38.7105567" lon="20.5927568"><ele>510.0</ele><time>2026-05-01T09:03:42.831Z</time></trkpt><trkpt lat="38.7104833" lon="20.5926387"><ele>510.0</ele><time>2026-05-01T09:03:43.835Z</time></trkpt><trkpt lat="38.7104214" lon="20.5925159"><ele>510.0</ele><time>2026-05-01T09:03:44.833Z</time></trkpt><trkpt lat="38.7103571" lon="20.5923985"><ele>510.0</ele><time>2026-05-01T09:03:45.834Z</time></trkpt><trkpt lat="38.7103002" lon="20.5922734"><ele>510.0</ele><time>2026-05-01T09:03:46.833Z</time></trkpt><trkpt lat="38.7102524" lon="20.592169"><ele>510.0</ele><time>2026-05-01T09:03:47.836Z</time></trkpt><trkpt lat="38.7102353" lon="20.5920481"><ele>510.0</ele><time>2026-05-01T09:03:48.836Z</time></trkpt><trkpt lat="38.7102273" lon="20.5919135"><ele>510.0</ele><time>2026-05-01T09:03:49.831Z</time></trkpt><trkpt lat="38.7102292" lon="20.5917779"><ele>506.5</ele><time>2026-05-01T09:03:50.835Z</time></trkpt><trkpt lat="38.7102294" lon="20.5916274"><ele>503.0</ele><time>2026-05-01T09:03:51.832Z</time></trkpt><trkpt lat="38.7102221" lon="20.5914625"><ele>499.5</ele><time>2026-05-01T09:03:52.833Z</time></trkpt><trkpt lat="38.7101875" lon="20.5913001"><ele>496.0</ele><time>2026-05-01T09:03:53.833Z</time></trkpt><trkpt lat="38.7101669" lon="20.5911452"><ele>496.0</ele><time>2026-05-01T09:03:54.835Z</time></trkpt><trkpt lat="38.7101341" lon="20.5910105"><ele>496.0</ele><time>2026-05-01T09:03:55.834Z</time></trkpt><trkpt lat="38.7100934" lon="20.5908893"><ele>496.0</ele><time>2026-05-01T09:03:56.832Z</time></trkpt><trkpt lat="38.7100267" lon="20.5907866"><ele>496.0</ele><time>2026-05-01T09:03:57.833Z</time></trkpt><trkpt lat="38.7099412" lon="20.590709"><ele>496.0</ele><time>2026-05-01T09:03:58.831Z</time></trkpt><trkpt lat="38.7098385" lon="20.5906587"><ele>496.0</ele><time>2026-05-01T09:03:59.832Z</time></trkpt><trkpt lat="38.7097274" lon="20.5906185"><ele>496.0</ele><time>2026-05-01T09:04:00.832Z</time></trkpt><trkpt lat="38.7096197" lon="20.5905778"><ele>496.0</ele><time>2026-05-01T09:04:01.833Z</time></trkpt><trkpt lat="38.7095304" lon="20.5905337"><ele>496.0</ele><time>2026-05-01T09:04:02.835Z</time></trkpt><trkpt lat="38.7094614" lon="20.5904592"><ele>496.0</ele><time>2026-05-01T09:04:03.832Z</time></trkpt><trkpt lat="38.7094163" lon="20.5903649"><ele>495.6</ele><time>2026-05-01T09:04:04.834Z</time></trkpt><trkpt lat="38.7093569" lon="20.5902607"><ele>495.20000000000005</ele><time>2026-05-01T09:04:05.836Z</time></trkpt><trkpt lat="38.7092832" lon="20.5901597"><ele>494.79999999999995</ele><time>2026-05-01T09:04:06.834Z</time></trkpt><trkpt lat="38.7092038" lon="20.5900648"><ele>494.4</ele><time>2026-05-01T09:04:07.833Z</time></trkpt><trkpt lat="38.7091179" lon="20.5899857"><ele>494.0</ele><time>2026-05-01T09:04:08.834Z</time></trkpt><trkpt lat="38.7090253" lon="20.5899136"><ele>494.0</ele><time>2026-05-01T09:04:09.833Z</time></trkpt><trkpt lat="38.7089363" lon="20.5898504"><ele>494.0</ele><time>2026-05-01T09:04:10.834Z</time></trkpt><trkpt lat="38.7088498" lon="20.5897919"><ele>494.0</ele><time>2026-05-01T09:04:11.832Z</time></trkpt><trkpt lat="38.7087569" lon="20.5897397"><ele>494.0</ele><time>2026-05-01T09:04:12.834Z</time></trkpt><trkpt lat="38.7086792" lon="20.5896827"><ele>494.0</ele><time>2026-05-01T09:04:13.832Z</time></trkpt><trkpt lat="38.7086115" lon="20.5896169"><ele>494.8333333333333</ele><time>2026-05-01T09:04:14.835Z</time></trkpt><trkpt lat="38.7085478" lon="20.589544"><ele>495.66666666666663</ele><time>2026-05-01T09:04:15.832Z</time></trkpt><trkpt lat="38.7084862" lon="20.5894583"><ele>496.5</ele><time>2026-05-01T09:04:16.836Z</time></trkpt><trkpt lat="38.7084359" lon="20.5893767"><ele>497.33333333333337</ele><time>2026-05-01T09:04:17.834Z</time></trkpt><trkpt lat="38.7083902" lon="20.5892949"><ele>498.1666666666667</ele><time>2026-05-01T09:04:18.832Z</time></trkpt><trkpt lat="38.7083414" lon="20.5892045"><ele>499.0</ele><time>2026-05-01T09:04:19.834Z</time></trkpt><trkpt lat="38.7082719" lon="20.5891287"><ele>499.0</ele><time>2026-05-01T09:04:20.83Z</time></trkpt><trkpt lat="38.7081905" lon="20.5890597"><ele>499.0</ele><time>2026-05-01T09:04:21.832Z</time></trkpt><trkpt lat="38.7081061" lon="20.5889966"><ele>499.0</ele><time>2026-05-01T09:04:22.834Z</time></trkpt><trkpt lat="38.7080089" lon="20.5889406"><ele>499.0</ele><time>2026-05-01T09:04:23.831Z</time></trkpt><trkpt lat="38.7078736" lon="20.5888948"><ele>499.0</ele><time>2026-05-01T09:04:24.833Z</time></trkpt><trkpt lat="38.7077247" lon="20.5888637"><ele>495.5</ele><time>2026-05-01T09:04:25.834Z</time></trkpt><trkpt lat="38.7075822" lon="20.5888363"><ele>492.0</ele><time>2026-05-01T09:04:26.833Z</time></trkpt><trkpt lat="38.7074339" lon="20.5887926"><ele>488.5</ele><time>2026-05-01T09:04:27.835Z</time></trkpt><trkpt lat="38.7072936" lon="20.5887225"><ele>485.0</ele><time>2026-05-01T09:04:28.833Z</time></trkpt><trkpt lat="38.7071614" lon="20.5886466"><ele>486.66666666666663</ele><time>2026-05-01T09:04:29.836Z</time></trkpt><trkpt lat="38.7070178" lon="20.5885798"><ele>488.33333333333337</ele><time>2026-05-01T09:04:30.833Z</time></trkpt><trkpt lat="38.7068634" lon="20.58853"><ele>490.0</ele><time>2026-05-01T09:04:31.831Z</time></trkpt><trkpt lat="38.7067253" lon="20.5884922"><ele>490.0</ele><time>2026-05-01T09:04:32.834Z</time></trkpt><trkpt lat="38.7065978" lon="20.5884614"><ele>490.0</ele><time>2026-05-01T09:04:33.832Z</time></trkpt><trkpt lat="38.7064814" lon="20.5884155"><ele>490.0</ele><time>2026-05-01T09:04:34.834Z</time></trkpt><trkpt lat="38.7063603" lon="20.5883659"><ele>490.0</ele><time>2026-05-01T09:04:35.833Z</time></trkpt><trkpt lat="38.7062459" lon="20.5883257"><ele>490.0</ele><time>2026-05-01T09:04:36.833Z</time></trkpt><trkpt lat="38.7061319" lon="20.5883083"><ele>490.0</ele><time>2026-05-01T09:04:37.832Z</time></trkpt><trkpt lat="38.7060234" lon="20.5883279"><ele>490.0</ele><time>2026-05-01T09:04:38.831Z</time></trkpt><trkpt lat="38.7059256" lon="20.5883694"><ele>490.0</ele><time>2026-05-01T09:04:39.833Z</time></trkpt><trkpt lat="38.7058343" lon="20.5884431"><ele>490.0</ele><time>2026-05-01T09:04:40.832Z</time></trkpt><trkpt lat="38.7057447" lon="20.5885253"><ele>488.2</ele><time>2026-05-01T09:04:41.834Z</time></trkpt><trkpt lat="38.705656" lon="20.5886014"><ele>486.4</ele><time>2026-05-01T09:04:42.836Z</time></trkpt><trkpt lat="38.7055564" lon="20.5886315"><ele>484.6</ele><time>2026-05-01T09:04:43.833Z</time></trkpt><trkpt lat="38.7054512" lon="20.5886472"><ele>482.8</ele><time>2026-05-01T09:04:44.834Z</time></trkpt><trkpt lat="38.7053532" lon="20.5886131"><ele>481.0</ele><time>2026-05-01T09:04:45.835Z</time></trkpt><trkpt lat="38.7052623" lon="20.5885116"><ele>480.20000000000005</ele><time>2026-05-01T09:04:46.835Z</time></trkpt><trkpt lat="38.7051988" lon="20.5884017"><ele>479.40000000000003</ele><time>2026-05-01T09:04:47.834Z</time></trkpt><trkpt lat="38.705139" lon="20.58829"><ele>478.6</ele><time>2026-05-01T09:04:48.833Z</time></trkpt><trkpt lat="38.7050721" lon="20.5881921"><ele>477.8</ele><time>2026-05-01T09:04:49.833Z</time></trkpt><trkpt lat="38.7049844" lon="20.5881325"><ele>477.0</ele><time>2026-05-01T09:04:50.831Z</time></trkpt><trkpt lat="38.7048958" lon="20.5881022"><ele>477.0</ele><time>2026-05-01T09:04:51.834Z</time></trkpt><trkpt lat="38.7048018" lon="20.5881112"><ele>477.00000000000006</ele><time>2026-05-01T09:04:52.831Z</time></trkpt><trkpt lat="38.7046993" lon="20.5881739"><ele>477.00000000000006</ele><time>2026-05-01T09:04:53.833Z</time></trkpt><trkpt lat="38.7045985" lon="20.5882442"><ele>477.0</ele><time>2026-05-01T09:04:54.836Z</time></trkpt><trkpt lat="38.7044889" lon="20.5883206"><ele>477.0</ele><time>2026-05-01T09:04:55.833Z</time></trkpt><trkpt lat="38.7043681" lon="20.5883846"><ele>477.25</ele><time>2026-05-01T09:04:56.83Z</time></trkpt><trkpt lat="38.7042453" lon="20.5884445"><ele>477.5</ele><time>2026-05-01T09:04:57.833Z</time></trkpt><trkpt lat="38.7041211" lon="20.5884931"><ele>477.75</ele><time>2026-05-01T09:04:58.833Z</time></trkpt><trkpt lat="38.7040027" lon="20.5885175"><ele>478.0</ele><time>2026-05-01T09:04:59.835Z</time></trkpt><trkpt lat="38.7038821" lon="20.5885236"><ele>478.0</ele><time>2026-05-01T09:05:00.834Z</time></trkpt><trkpt lat="38.7037618" lon="20.5884832"><ele>478.0</ele><time>2026-05-01T09:05:01.832Z</time></trkpt><trkpt lat="38.7036334" lon="20.5884396"><ele>478.0</ele><time>2026-05-01T09:05:02.832Z</time></trkpt><trkpt lat="38.7034985" lon="20.5883845"><ele>478.0</ele><time>2026-05-01T09:05:03.833Z</time></trkpt><trkpt lat="38.7033661" lon="20.5883301"><ele>477.5</ele><time>2026-05-01T09:05:04.834Z</time></trkpt><trkpt lat="38.7032441" lon="20.5882824"><ele>477.0</ele><time>2026-05-01T09:05:05.836Z</time></trkpt><trkpt lat="38.7031311" lon="20.5882339"><ele>476.5</ele><time>2026-05-01T09:05:06.831Z</time></trkpt><trkpt lat="38.7030344" lon="20.588165"><ele>476.0</ele><time>2026-05-01T09:05:07.832Z</time></trkpt><trkpt lat="38.7029448" lon="20.5880714"><ele>476.0</ele><time>2026-05-01T09:05:08.832Z</time></trkpt><trkpt lat="38.7028581" lon="20.587957"><ele>476.0</ele><time>2026-05-01T09:05:09.834Z</time></trkpt><trkpt lat="38.7027569" lon="20.5878547"><ele>476.0</ele><time>2026-05-01T09:05:10.833Z</time></trkpt><trkpt lat="38.7026353" lon="20.5877566"><ele>476.0</ele><time>2026-05-01T09:05:11.831Z</time></trkpt><trkpt lat="38.7025168" lon="20.5876566"><ele>477.75</ele><time>2026-05-01T09:05:12.834Z</time></trkpt><trkpt lat="38.7023893" lon="20.5875553"><ele>479.5</ele><time>2026-05-01T09:05:13.834Z</time></trkpt><trkpt lat="38.7022681" lon="20.5874569"><ele>481.25</ele><time>2026-05-01T09:05:14.834Z</time></trkpt><trkpt lat="38.7021534" lon="20.587373"><ele>483.0</ele><time>2026-05-01T09:05:15.833Z</time></trkpt><trkpt lat="38.7020468" lon="20.5873041"><ele>483.0</ele><time>2026-05-01T09:05:16.834Z</time></trkpt><trkpt lat="38.7019407" lon="20.5872587"><ele>482.99999999999994</ele><time>2026-05-01T09:05:17.832Z</time></trkpt><trkpt lat="38.701837" lon="20.587238"><ele>482.99999999999994</ele><time>2026-05-01T09:05:18.834Z</time></trkpt><trkpt lat="38.7017367" lon="20.5872598"><ele>483.0</ele><time>2026-05-01T09:05:19.833Z</time></trkpt><trkpt lat="38.7016424" lon="20.5873244"><ele>483.0</ele><time>2026-05-01T09:05:20.832Z</time></trkpt><trkpt lat="38.7015555" lon="20.5874054"><ele>481.0</ele><time>2026-05-01T09:05:21.831Z</time></trkpt><trkpt lat="38.7014629" lon="20.5874842"><ele>479.0</ele><time>2026-05-01T09:05:22.834Z</time></trkpt><trkpt lat="38.7013547" lon="20.587548"><ele>477.0</ele><time>2026-05-01T09:05:23.832Z</time></trkpt><trkpt lat="38.7012298" lon="20.5875968"><ele>475.0</ele><time>2026-05-01T09:05:24.833Z</time></trkpt><trkpt lat="38.7010958" lon="20.5876674"><ele>474.25</ele><time>2026-05-01T09:05:25.833Z</time></trkpt><trkpt lat="38.7009648" lon="20.5877514"><ele>473.5</ele><time>2026-05-01T09:05:26.833Z</time></trkpt><trkpt lat="38.7008442" lon="20.587824"><ele>472.75</ele><time>2026-05-01T09:05:27.834Z</time></trkpt><trkpt lat="38.7007248" lon="20.5878789"><ele>472.0</ele><time>2026-05-01T09:05:28.834Z</time></trkpt><trkpt lat="38.7006021" lon="20.5879088"><ele>472.0</ele><time>2026-05-01T09:05:29.835Z</time></trkpt><trkpt lat="38.7004679" lon="20.5879141"><ele>472.0</ele><time>2026-05-01T09:05:30.834Z</time></trkpt><trkpt lat="38.7003207" lon="20.5879008"><ele>472.0</ele><time>2026-05-01T09:05:31.833Z</time></trkpt><trkpt lat="38.7001721" lon="20.5878792"><ele>472.0</ele><time>2026-05-01T09:05:32.834Z</time></trkpt><trkpt lat="38.7000254" lon="20.5878473"><ele>475.25</ele><time>2026-05-01T09:05:33.833Z</time></trkpt><trkpt lat="38.6998946" lon="20.5878077"><ele>478.5</ele><time>2026-05-01T09:05:34.832Z</time></trkpt><trkpt lat="38.6997744" lon="20.5877435"><ele>481.75</ele><time>2026-05-01T09:05:35.832Z</time></trkpt><trkpt lat="38.6996582" lon="20.5876496"><ele>485.0</ele><time>2026-05-01T09:05:36.833Z</time></trkpt><trkpt lat="38.6995396" lon="20.5875333"><ele>485.0</ele><time>2026-05-01T09:05:37.833Z</time></trkpt><trkpt lat="38.6994235" lon="20.5874106"><ele>485.0</ele><time>2026-05-01T09:05:38.832Z</time></trkpt><trkpt lat="38.6993074" lon="20.5872931"><ele>485.0</ele><time>2026-05-01T09:05:39.834Z</time></trkpt><trkpt lat="38.6991994" lon="20.5871859"><ele>485.0</ele><time>2026-05-01T09:05:40.835Z</time></trkpt><trkpt lat="38.6990927" lon="20.5870758"><ele>484.25</ele><time>2026-05-01T09:05:41.832Z</time></trkpt><trkpt lat="38.6989871" lon="20.5869908"><ele>483.5</ele><time>2026-05-01T09:05:42.832Z</time></trkpt><trkpt lat="38.6988715" lon="20.5869303"><ele>482.75</ele><time>2026-05-01T09:05:43.834Z</time></trkpt><trkpt lat="38.6987513" lon="20.5869049"><ele>482.0</ele><time>2026-05-01T09:05:44.835Z</time></trkpt><trkpt lat="38.6986341" lon="20.5869108"><ele>480.20000000000005</ele><time>2026-05-01T09:05:45.836Z</time></trkpt><trkpt lat="38.6985273" lon="20.5869178"><ele>478.40000000000003</ele><time>2026-05-01T09:05:46.834Z</time></trkpt><trkpt lat="38.6984166" lon="20.5869085"><ele>476.59999999999997</ele><time>2026-05-01T09:05:47.833Z</time></trkpt><trkpt lat="38.6983107" lon="20.5868609"><ele>474.79999999999995</ele><time>2026-05-01T09:05:48.831Z</time></trkpt><trkpt lat="38.6982183" lon="20.5867709"><ele>473.0</ele><time>2026-05-01T09:05:49.831Z</time></trkpt><trkpt lat="38.6981256" lon="20.5866506"><ele>473.0</ele><time>2026-05-01T09:05:50.835Z</time></trkpt><trkpt lat="38.6980367" lon="20.58651"><ele>473.0</ele><time>2026-05-01T09:05:51.832Z</time></trkpt><trkpt lat="38.6979437" lon="20.5863791"><ele>473.0</ele><time>2026-05-01T09:05:52.834Z</time></trkpt><trkpt lat="38.6978432" lon="20.5862509"><ele>473.0</ele><time>2026-05-01T09:05:53.834Z</time></trkpt><trkpt lat="38.6977442" lon="20.5861133"><ele>472.25</ele><time>2026-05-01T09:05:54.832Z</time></trkpt><trkpt lat="38.6976513" lon="20.5859835"><ele>471.5</ele><time>2026-05-01T09:05:55.835Z</time></trkpt><trkpt lat="38.6975616" lon="20.5858435"><ele>470.75</ele><time>2026-05-01T09:05:56.834Z</time></trkpt><trkpt lat="38.6974715" lon="20.5857202"><ele>470.0</ele><time>2026-05-01T09:05:57.833Z</time></trkpt><trkpt lat="38.697383" lon="20.585606"><ele>470.0</ele><time>2026-05-01T09:05:58.832Z</time></trkpt><trkpt lat="38.6973009" lon="20.5854975"><ele>470.0</ele><time>2026-05-01T09:05:59.833Z</time></trkpt><trkpt lat="38.6972179" lon="20.5854017"><ele>470.0</ele><time>2026-05-01T09:06:00.832Z</time></trkpt><trkpt lat="38.6971284" lon="20.5853459"><ele>470.0</ele><time>2026-05-01T09:06:01.832Z</time></trkpt><trkpt lat="38.6970261" lon="20.5853221"><ele>470.0</ele><time>2026-05-01T09:06:02.833Z</time></trkpt><trkpt lat="38.6969193" lon="20.5853364"><ele>470.4</ele><time>2026-05-01T09:06:03.829Z</time></trkpt><trkpt lat="38.6968121" lon="20.5853651"><ele>470.8</ele><time>2026-05-01T09:06:04.835Z</time></trkpt><trkpt lat="38.6967024" lon="20.5853977"><ele>471.20000000000005</ele><time>2026-05-01T09:06:05.834Z</time></trkpt><trkpt lat="38.6965947" lon="20.5854322"><ele>471.6</ele><time>2026-05-01T09:06:06.832Z</time></trkpt><trkpt lat="38.6964874" lon="20.5854465"><ele>472.0</ele><time>2026-05-01T09:06:07.835Z</time></trkpt><trkpt lat="38.6964044" lon="20.5854259"><ele>472.0</ele><time>2026-05-01T09:06:08.832Z</time></trkpt><trkpt lat="38.6963243" lon="20.5853663"><ele>472.00000000000006</ele><time>2026-05-01T09:06:09.834Z</time></trkpt><trkpt lat="38.6962593" lon="20.5852769"><ele>472.00000000000006</ele><time>2026-05-01T09:06:10.834Z</time></trkpt><trkpt lat="38.696196" lon="20.5851787"><ele>472.0</ele><time>2026-05-01T09:06:11.833Z</time></trkpt><trkpt lat="38.696125" lon="20.585073"><ele>472.0</ele><time>2026-05-01T09:06:12.834Z</time></trkpt><trkpt lat="38.6960536" lon="20.584964"><ele>471.0</ele><time>2026-05-01T09:06:13.832Z</time></trkpt><trkpt lat="38.6959746" lon="20.5848786"><ele>470.00000000000006</ele><time>2026-05-01T09:06:14.835Z</time></trkpt><trkpt lat="38.6958876" lon="20.5848271"><ele>469.00000000000006</ele><time>2026-05-01T09:06:15.834Z</time></trkpt><trkpt lat="38.6957861" lon="20.5848086"><ele>468.0</ele><time>2026-05-01T09:06:16.834Z</time></trkpt><trkpt lat="38.6956753" lon="20.5848141"><ele>467.0</ele><time>2026-05-01T09:06:17.833Z</time></trkpt><trkpt lat="38.6955651" lon="20.5848231"><ele>467.0</ele><time>2026-05-01T09:06:18.834Z</time></trkpt><trkpt lat="38.6954631" lon="20.5847944"><ele>467.0</ele><time>2026-05-01T09:06:19.834Z</time></trkpt><trkpt lat="38.6953705" lon="20.5847384"><ele>467.0</ele><time>2026-05-01T09:06:20.832Z</time></trkpt><trkpt lat="38.6952649" lon="20.5846378"><ele>467.0</ele><time>2026-05-01T09:06:21.833Z</time></trkpt><trkpt lat="38.6951538" lon="20.5845313"><ele>463.0</ele><time>2026-05-01T09:06:22.834Z</time></trkpt><trkpt lat="38.6950376" lon="20.584407"><ele>459.0</ele><time>2026-05-01T09:06:23.835Z</time></trkpt><trkpt lat="38.6949064" lon="20.5842684"><ele>455.0</ele><time>2026-05-01T09:06:24.833Z</time></trkpt><trkpt lat="38.6947822" lon="20.5841391"><ele>455.0</ele><time>2026-05-01T09:06:25.833Z</time></trkpt><trkpt lat="38.6946743" lon="20.5840033"><ele>455.0</ele><time>2026-05-01T09:06:26.833Z</time></trkpt><trkpt lat="38.6945719" lon="20.5838528"><ele>455.0</ele><time>2026-05-01T09:06:27.833Z</time></trkpt><trkpt lat="38.6944741" lon="20.58369"><ele>454.0</ele><time>2026-05-01T09:06:28.833Z</time></trkpt><trkpt lat="38.6943813" lon="20.5835193"><ele>453.0</ele><time>2026-05-01T09:06:29.833Z</time></trkpt><trkpt lat="38.6942897" lon="20.5833543"><ele>452.0</ele><time>2026-05-01T09:06:30.832Z</time></trkpt><trkpt lat="38.6942035" lon="20.5831864"><ele>452.0</ele><time>2026-05-01T09:06:31.835Z</time></trkpt><trkpt lat="38.6941213" lon="20.5830161"><ele>452.0</ele><time>2026-05-01T09:06:32.834Z</time></trkpt><trkpt lat="38.6940296" lon="20.5828493"><ele>452.0</ele><time>2026-05-01T09:06:33.832Z</time></trkpt><trkpt lat="38.6939409" lon="20.5826947"><ele>450.5</ele><time>2026-05-01T09:06:34.833Z</time></trkpt><trkpt lat="38.6938597" lon="20.5825553"><ele>449.0</ele><time>2026-05-01T09:06:35.833Z</time></trkpt><trkpt lat="38.6937761" lon="20.5824322"><ele>447.5</ele><time>2026-05-01T09:06:36.835Z</time></trkpt><trkpt lat="38.6936866" lon="20.5823311"><ele>446.0</ele><time>2026-05-01T09:06:37.831Z</time></trkpt><trkpt lat="38.6935894" lon="20.5822641"><ele>445.0</ele><time>2026-05-01T09:06:38.831Z</time></trkpt><trkpt lat="38.6934929" lon="20.5822349"><ele>444.0</ele><time>2026-05-01T09:06:39.835Z</time></trkpt><trkpt lat="38.6933977" lon="20.5822663"><ele>443.0</ele><time>2026-05-01T09:06:40.835Z</time></trkpt><trkpt lat="38.6933111" lon="20.582331"><ele>442.0</ele><time>2026-05-01T09:06:41.833Z</time></trkpt><trkpt lat="38.6932307" lon="20.5824398"><ele>441.0</ele><time>2026-05-01T09:06:42.832Z</time></trkpt><trkpt lat="38.6931667" lon="20.5825666"><ele>441.0</ele><time>2026-05-01T09:06:43.835Z</time></trkpt><trkpt lat="38.6931061" lon="20.5826953"><ele>441.0</ele><time>2026-05-01T09:06:44.834Z</time></trkpt><trkpt lat="38.6930383" lon="20.5828101"><ele>441.0</ele><time>2026-05-01T09:06:45.833Z</time></trkpt><trkpt lat="38.6929643" lon="20.5829136"><ele>441.0</ele><time>2026-05-01T09:06:46.833Z</time></trkpt><trkpt lat="38.6929" lon="20.5829842"><ele>441.0</ele><time>2026-05-01T09:06:47.833Z</time></trkpt><trkpt lat="38.6928433" lon="20.5830204"><ele>441.20000000000005</ele><time>2026-05-01T09:06:48.832Z</time></trkpt><trkpt lat="38.6927638" lon="20.5830564"><ele>441.40000000000003</ele><time>2026-05-01T09:06:49.833Z</time></trkpt><trkpt lat="38.6926763" lon="20.5830371"><ele>441.6</ele><time>2026-05-01T09:06:50.833Z</time></trkpt><trkpt lat="38.6925882" lon="20.5830158"><ele>441.8</ele><time>2026-05-01T09:06:51.836Z</time></trkpt><trkpt lat="38.692504" lon="20.5829202"><ele>442.0</ele><time>2026-05-01T09:06:52.833Z</time></trkpt><trkpt lat="38.6924155" lon="20.5828596"><ele>442.00000000000006</ele><time>2026-05-01T09:06:53.834Z</time></trkpt><trkpt lat="38.6923331" lon="20.5828287"><ele>442.0</ele><time>2026-05-01T09:06:54.833Z</time></trkpt><trkpt lat="38.6922435" lon="20.5828211"><ele>442.0</ele><time>2026-05-01T09:06:55.833Z</time></trkpt><trkpt lat="38.692163" lon="20.5828511"><ele>442.0</ele><time>2026-05-01T09:06:56.834Z</time></trkpt><trkpt lat="38.6920998" lon="20.5829269"><ele>442.00000000000006</ele><time>2026-05-01T09:06:57.835Z</time></trkpt><trkpt lat="38.6920637" lon="20.5830401"><ele>442.0</ele><time>2026-05-01T09:06:58.835Z</time></trkpt><trkpt lat="38.6920374" lon="20.5831756"><ele>442.0</ele><time>2026-05-01T09:06:59.833Z</time></trkpt><trkpt lat="38.6920148" lon="20.5832959"><ele>442.00000000000006</ele><time>2026-05-01T09:07:00.833Z</time></trkpt><trkpt lat="38.6919504" lon="20.5833778"><ele>442.00000000000006</ele><time>2026-05-01T09:07:01.832Z</time></trkpt><trkpt lat="38.6918761" lon="20.5834524"><ele>442.0</ele><time>2026-05-01T09:07:02.831Z</time></trkpt><trkpt lat="38.6917765" lon="20.5834797"><ele>442.0</ele><time>2026-05-01T09:07:03.834Z</time></trkpt><trkpt lat="38.6916654" lon="20.5834739"><ele>440.25</ele><time>2026-05-01T09:07:04.834Z</time></trkpt><trkpt lat="38.6915482" lon="20.5834284"><ele>438.5</ele><time>2026-05-01T09:07:05.833Z</time></trkpt><trkpt lat="38.691436" lon="20.5833438"><ele>436.75</ele><time>2026-05-01T09:07:06.836Z</time></trkpt><trkpt lat="38.6913216" lon="20.5832442"><ele>435.0</ele><time>2026-05-01T09:07:07.833Z</time></trkpt><trkpt lat="38.6912035" lon="20.5831308"><ele>437.33333333333337</ele><time>2026-05-01T09:07:08.833Z</time></trkpt><trkpt lat="38.6910856" lon="20.5829946"><ele>439.6666666666667</ele><time>2026-05-01T09:07:09.834Z</time></trkpt><trkpt lat="38.6909614" lon="20.5828453"><ele>442.0</ele><time>2026-05-01T09:07:10.832Z</time></trkpt><trkpt lat="38.6908463" lon="20.5826988"><ele>436.6666666666667</ele><time>2026-05-01T09:07:11.834Z</time></trkpt><trkpt lat="38.6907207" lon="20.5825582"><ele>431.33333333333337</ele><time>2026-05-01T09:07:12.836Z</time></trkpt><trkpt lat="38.6906115" lon="20.5824167"><ele>426.0</ele><time>2026-05-01T09:07:13.832Z</time></trkpt><trkpt lat="38.690506" lon="20.5822793"><ele>426.0</ele><time>2026-05-01T09:07:14.836Z</time></trkpt><trkpt lat="38.6903925" lon="20.5821518"><ele>426.0</ele><time>2026-05-01T09:07:15.835Z</time></trkpt><trkpt lat="38.6902636" lon="20.5820431"><ele>426.0</ele><time>2026-05-01T09:07:16.834Z</time></trkpt><trkpt lat="38.6901274" lon="20.581947"><ele>422.5</ele><time>2026-05-01T09:07:17.833Z</time></trkpt><trkpt lat="38.6900038" lon="20.5818517"><ele>419.0</ele><time>2026-05-01T09:07:18.831Z</time></trkpt><trkpt lat="38.6898829" lon="20.5817461"><ele>415.5</ele><time>2026-05-01T09:07:19.83Z</time></trkpt><trkpt lat="38.6897689" lon="20.5816498"><ele>412.0</ele><time>2026-05-01T09:07:20.835Z</time></trkpt><trkpt lat="38.6896592" lon="20.5815695"><ele>412.0</ele><time>2026-05-01T09:07:21.833Z</time></trkpt><trkpt lat="38.6895257" lon="20.5815198"><ele>412.0</ele><time>2026-05-01T09:07:22.833Z</time></trkpt><trkpt lat="38.6893839" lon="20.5814935"><ele>412.0</ele><time>2026-05-01T09:07:23.833Z</time></trkpt><trkpt lat="38.6892443" lon="20.5814749"><ele>412.0</ele><time>2026-05-01T09:07:24.832Z</time></trkpt><trkpt lat="38.689092" lon="20.5814464"><ele>412.6666666666667</ele><time>2026-05-01T09:07:25.832Z</time></trkpt><trkpt lat="38.6889513" lon="20.5814145"><ele>413.33333333333337</ele><time>2026-05-01T09:07:26.831Z</time></trkpt><trkpt lat="38.6888133" lon="20.5813022"><ele>414.0</ele><time>2026-05-01T09:07:27.833Z</time></trkpt><trkpt lat="38.6886722" lon="20.5812112"><ele>410.33333333333337</ele><time>2026-05-01T09:07:28.833Z</time></trkpt><trkpt lat="38.6885316" lon="20.5811264"><ele>406.6666666666667</ele><time>2026-05-01T09:07:29.832Z</time></trkpt><trkpt lat="38.6883935" lon="20.5810185"><ele>403.0</ele><time>2026-05-01T09:07:30.833Z</time></trkpt><trkpt lat="38.6882366" lon="20.5809107"><ele>403.0</ele><time>2026-05-01T09:07:31.834Z</time></trkpt><trkpt lat="38.688078" lon="20.5808112"><ele>403.0</ele><time>2026-05-01T09:07:32.834Z</time></trkpt><trkpt lat="38.6879116" lon="20.5807119"><ele>403.0</ele><time>2026-05-01T09:07:33.832Z</time></trkpt><trkpt lat="38.6877462" lon="20.580617"><ele>403.33333333333337</ele><time>2026-05-01T09:07:34.831Z</time></trkpt><trkpt lat="38.6875796" lon="20.5805138"><ele>403.66666666666663</ele><time>2026-05-01T09:07:35.832Z</time></trkpt><trkpt lat="38.687438" lon="20.5803766"><ele>404.0</ele><time>2026-05-01T09:07:36.831Z</time></trkpt><trkpt lat="38.687293" lon="20.5802499"><ele>401.3333333333333</ele><time>2026-05-01T09:07:37.832Z</time></trkpt><trkpt lat="38.6871507" lon="20.5801243"><ele>398.66666666666663</ele><time>2026-05-01T09:07:38.835Z</time></trkpt><trkpt lat="38.6870304" lon="20.5800024"><ele>396.0</ele><time>2026-05-01T09:07:39.834Z</time></trkpt><trkpt lat="38.6869141" lon="20.5798972"><ele>396.0</ele><time>2026-05-01T09:07:40.833Z</time></trkpt><trkpt lat="38.6868008" lon="20.5798006"><ele>396.0</ele><time>2026-05-01T09:07:41.833Z</time></trkpt><trkpt lat="38.6866775" lon="20.5797221"><ele>396.0</ele><time>2026-05-01T09:07:42.833Z</time></trkpt><trkpt lat="38.6865387" lon="20.5796705"><ele>396.0</ele><time>2026-05-01T09:07:43.834Z</time></trkpt><trkpt lat="38.6863852" lon="20.5796297"><ele>396.0</ele><time>2026-05-01T09:07:44.834Z</time></trkpt><trkpt lat="38.6862194" lon="20.5796082"><ele>396.0</ele><time>2026-05-01T09:07:45.833Z</time></trkpt><trkpt lat="38.6860597" lon="20.5795998"><ele>396.0</ele><time>2026-05-01T09:07:46.833Z</time></trkpt><trkpt lat="38.6858959" lon="20.5796076"><ele>396.0</ele><time>2026-05-01T09:07:47.834Z</time></trkpt><trkpt lat="38.6857369" lon="20.5796205"><ele>396.0</ele><time>2026-05-01T09:07:48.832Z</time></trkpt><trkpt lat="38.6855763" lon="20.5796257"><ele>396.0</ele><time>2026-05-01T09:07:49.834Z</time></trkpt><trkpt lat="38.6854249" lon="20.5796114"><ele>396.0</ele><time>2026-05-01T09:07:50.83Z</time></trkpt><trkpt lat="38.6852794" lon="20.5795756"><ele>396.0</ele><time>2026-05-01T09:07:51.834Z</time></trkpt><trkpt lat="38.6851315" lon="20.5795147"><ele>396.0</ele><time>2026-05-01T09:07:52.835Z</time></trkpt><trkpt lat="38.6849854" lon="20.5794501"><ele>390.6666666666667</ele><time>2026-05-01T09:07:53.834Z</time></trkpt><trkpt lat="38.6848473" lon="20.5793763"><ele>385.33333333333337</ele><time>2026-05-01T09:07:54.834Z</time></trkpt><trkpt lat="38.6847046" lon="20.5792924"><ele>380.0</ele><time>2026-05-01T09:07:55.831Z</time></trkpt><trkpt lat="38.6845678" lon="20.5792087"><ele>380.0</ele><time>2026-05-01T09:07:56.833Z</time></trkpt><trkpt lat="38.6844358" lon="20.5791141"><ele>380.0</ele><time>2026-05-01T09:07:57.836Z</time></trkpt><trkpt lat="38.684314" lon="20.5790061"><ele>380.0</ele><time>2026-05-01T09:07:58.831Z</time></trkpt><trkpt lat="38.6842005" lon="20.5788827"><ele>380.0</ele><time>2026-05-01T09:07:59.833Z</time></trkpt><trkpt lat="38.6840841" lon="20.5787499"><ele>375.6666666666667</ele><time>2026-05-01T09:08:00.833Z</time></trkpt><trkpt lat="38.6839778" lon="20.5786153"><ele>371.3333333333333</ele><time>2026-05-01T09:08:01.832Z</time></trkpt><trkpt lat="38.6838806" lon="20.5784665"><ele>367.0</ele><time>2026-05-01T09:08:02.833Z</time></trkpt><trkpt lat="38.6837846" lon="20.5783083"><ele>367.0</ele><time>2026-05-01T09:08:03.834Z</time></trkpt><trkpt lat="38.6836954" lon="20.5781463"><ele>367.0</ele><time>2026-05-01T09:08:04.831Z</time></trkpt><trkpt lat="38.6836075" lon="20.5779859"><ele>367.0</ele><time>2026-05-01T09:08:05.833Z</time></trkpt><trkpt lat="38.6835135" lon="20.5778263"><ele>366.75</ele><time>2026-05-01T09:08:06.83Z</time></trkpt><trkpt lat="38.683432" lon="20.577664"><ele>366.5</ele><time>2026-05-01T09:08:07.836Z</time></trkpt><trkpt lat="38.6833492" lon="20.5775009"><ele>366.25</ele><time>2026-05-01T09:08:08.833Z</time></trkpt><trkpt lat="38.6832792" lon="20.577344"><ele>366.0</ele><time>2026-05-01T09:08:09.831Z</time></trkpt><trkpt lat="38.6832237" lon="20.5771823"><ele>365.25</ele><time>2026-05-01T09:08:10.834Z</time></trkpt><trkpt lat="38.6831731" lon="20.577019"><ele>364.5</ele><time>2026-05-01T09:08:11.835Z</time></trkpt><trkpt lat="38.6831391" lon="20.5768594"><ele>363.75</ele><time>2026-05-01T09:08:12.832Z</time></trkpt><trkpt lat="38.683102" lon="20.5767127"><ele>363.0</ele><time>2026-05-01T09:08:13.832Z</time></trkpt><trkpt lat="38.6830539" lon="20.5765958"><ele>363.0</ele><time>2026-05-01T09:08:14.832Z</time></trkpt><trkpt lat="38.6829823" lon="20.5764996"><ele>363.0</ele><time>2026-05-01T09:08:15.833Z</time></trkpt><trkpt lat="38.6829047" lon="20.5764358"><ele>363.0</ele><time>2026-05-01T09:08:16.832Z</time></trkpt><trkpt lat="38.6828044" lon="20.576396"><ele>363.0</ele><time>2026-05-01T09:08:17.833Z</time></trkpt><trkpt lat="38.6826937" lon="20.5763743"><ele>363.0</ele><time>2026-05-01T09:08:18.832Z</time></trkpt><trkpt lat="38.6825793" lon="20.576349"><ele>363.25</ele><time>2026-05-01T09:08:19.83Z</time></trkpt><trkpt lat="38.682459" lon="20.5763199"><ele>363.5</ele><time>2026-05-01T09:08:20.834Z</time></trkpt><trkpt lat="38.6823463" lon="20.5763044"><ele>363.75</ele><time>2026-05-01T09:08:21.832Z</time></trkpt><trkpt lat="38.6822298" lon="20.5762921"><ele>364.0</ele><time>2026-05-01T09:08:22.83Z</time></trkpt><trkpt lat="38.6821198" lon="20.5762846"><ele>364.0</ele><time>2026-05-01T09:08:23.835Z</time></trkpt><trkpt lat="38.6820086" lon="20.5762626"><ele>364.0</ele><time>2026-05-01T09:08:24.835Z</time></trkpt><trkpt lat="38.6819022" lon="20.5762362"><ele>364.0</ele><time>2026-05-01T09:08:25.834Z</time></trkpt><trkpt lat="38.6817951" lon="20.5761947"><ele>364.0</ele><time>2026-05-01T09:08:26.831Z</time></trkpt><trkpt lat="38.6816895" lon="20.5761435"><ele>364.0</ele><time>2026-05-01T09:08:27.832Z</time></trkpt><trkpt lat="38.6815874" lon="20.5760687"><ele>363.25</ele><time>2026-05-01T09:08:28.832Z</time></trkpt><trkpt lat="38.6814839" lon="20.5759856"><ele>362.5</ele><time>2026-05-01T09:08:29.832Z</time></trkpt><trkpt lat="38.6813837" lon="20.5759018"><ele>361.75</ele><time>2026-05-01T09:08:30.83Z</time></trkpt><trkpt lat="38.6812757" lon="20.5758056"><ele>361.0</ele><time>2026-05-01T09:08:31.834Z</time></trkpt><trkpt lat="38.6811597" lon="20.5757139"><ele>361.0</ele><time>2026-05-01T09:08:32.833Z</time></trkpt><trkpt lat="38.6810514" lon="20.5756247"><ele>361.0</ele><time>2026-05-01T09:08:33.831Z</time></trkpt><trkpt lat="38.6809449" lon="20.5755387"><ele>361.0</ele><time>2026-05-01T09:08:34.834Z</time></trkpt><trkpt lat="38.6808344" lon="20.5754569"><ele>361.0</ele><time>2026-05-01T09:08:35.834Z</time></trkpt><trkpt lat="38.6807221" lon="20.5753935"><ele>361.0</ele><time>2026-05-01T09:08:36.833Z</time></trkpt><trkpt lat="38.6806162" lon="20.5753319"><ele>361.0</ele><time>2026-05-01T09:08:37.832Z</time></trkpt><trkpt lat="38.6805104" lon="20.5752755"><ele>361.0</ele><time>2026-05-01T09:08:38.831Z</time></trkpt><trkpt lat="38.6804001" lon="20.5752404"><ele>361.0</ele><time>2026-05-01T09:08:39.835Z</time></trkpt><trkpt lat="38.6802905" lon="20.5751979"><ele>361.6</ele><time>2026-05-01T09:08:40.833Z</time></trkpt><trkpt lat="38.6801787" lon="20.5751631"><ele>362.20000000000005</ele><time>2026-05-01T09:08:41.832Z</time></trkpt><trkpt lat="38.6800676" lon="20.5751304"><ele>362.79999999999995</ele><time>2026-05-01T09:08:42.834Z</time></trkpt><trkpt lat="38.679964" lon="20.5751059"><ele>363.4</ele><time>2026-05-01T09:08:43.833Z</time></trkpt><trkpt lat="38.6798594" lon="20.5750782"><ele>364.0</ele><time>2026-05-01T09:08:44.83Z</time></trkpt><trkpt lat="38.6797556" lon="20.5750495"><ele>364.0</ele><time>2026-05-01T09:08:45.833Z</time></trkpt><trkpt lat="38.679661" lon="20.5750234"><ele>364.0</ele><time>2026-05-01T09:08:46.83Z</time></trkpt><trkpt lat="38.6795723" lon="20.5749926"><ele>364.0</ele><time>2026-05-01T09:08:47.835Z</time></trkpt><trkpt lat="38.6794851" lon="20.5749612"><ele>364.0</ele><time>2026-05-01T09:08:48.83Z</time></trkpt><trkpt lat="38.6793955" lon="20.5749147"><ele>364.0</ele><time>2026-05-01T09:08:49.832Z</time></trkpt><trkpt lat="38.6792976" lon="20.5748766"><ele>363.2</ele><time>2026-05-01T09:08:50.833Z</time></trkpt><trkpt lat="38.6792117" lon="20.5748297"><ele>362.4</ele><time>2026-05-01T09:08:51.835Z</time></trkpt><trkpt lat="38.6791214" lon="20.5747794"><ele>361.6</ele><time>2026-05-01T09:08:52.836Z</time></trkpt><trkpt lat="38.6790248" lon="20.574732"><ele>360.8</ele><time>2026-05-01T09:08:53.832Z</time></trkpt><trkpt lat="38.6789323" lon="20.574696"><ele>360.0</ele><time>2026-05-01T09:08:54.832Z</time></trkpt><trkpt lat="38.6788433" lon="20.5746669"><ele>360.0</ele><time>2026-05-01T09:08:55.834Z</time></trkpt><trkpt lat="38.6787546" lon="20.5746433"><ele>360.0</ele><time>2026-05-01T09:08:56.832Z</time></trkpt><trkpt lat="38.6786714" lon="20.574627"><ele>360.0</ele><time>2026-05-01T09:08:57.836Z</time></trkpt><trkpt lat="38.6785888" lon="20.5746162"><ele>360.0</ele><time>2026-05-01T09:08:58.833Z</time></trkpt><trkpt lat="38.6785135" lon="20.5746012"><ele>360.0</ele><time>2026-05-01T09:08:59.832Z</time></trkpt><trkpt lat="38.6784329" lon="20.5745893"><ele>360.0</ele><time>2026-05-01T09:09:00.832Z</time></trkpt><trkpt lat="38.6783571" lon="20.5745824"><ele>359.8</ele><time>2026-05-01T09:09:01.832Z</time></trkpt><trkpt lat="38.6782747" lon="20.5745682"><ele>359.6</ele><time>2026-05-01T09:09:02.833Z</time></trkpt><trkpt lat="38.6781897" lon="20.5745572"><ele>359.4</ele><time>2026-05-01T09:09:03.831Z</time></trkpt><trkpt lat="38.6781116" lon="20.5745574"><ele>359.2</ele><time>2026-05-01T09:09:04.832Z</time></trkpt><trkpt lat="38.6779802" lon="20.5745575"><ele>359.0</ele><time>2026-05-01T09:09:06.834Z</time></trkpt><trkpt lat="38.6778571" lon="20.5745698"><ele>358.79999999999995</ele><time>2026-05-01T09:09:08.832Z</time></trkpt><trkpt lat="38.677741" lon="20.5745846"><ele>358.59999999999997</ele><time>2026-05-01T09:09:10.831Z</time></trkpt><trkpt lat="38.6776302" lon="20.5745846"><ele>358.4</ele><time>2026-05-01T09:09:12.835Z</time></trkpt><trkpt lat="38.6775574" lon="20.5745273"><ele>358.2</ele><time>2026-05-01T09:09:14.836Z</time></trkpt><trkpt lat="38.6774931" lon="20.5744387"><ele>358.0</ele><time>2026-05-01T09:09:16.835Z</time></trkpt><trkpt lat="38.6774071" lon="20.5743375"><ele>358.0</ele><time>2026-05-01T09:09:18.83Z</time></trkpt><trkpt lat="38.6773371" lon="20.5742088"><ele>358.0</ele><time>2026-05-01T09:09:20.831Z</time></trkpt><trkpt lat="38.6773091" lon="20.5741183"><ele>358.0</ele><time>2026-05-01T09:09:21.834Z</time></trkpt><trkpt lat="38.6772916" lon="20.5740352"><ele>358.0</ele><time>2026-05-01T09:09:22.833Z</time></trkpt><trkpt lat="38.6772711" lon="20.5739504"><ele>358.0</ele><time>2026-05-01T09:09:23.833Z</time></trkpt><trkpt lat="38.6772496" lon="20.5738641"><ele>358.0</ele><time>2026-05-01T09:09:24.834Z</time></trkpt><trkpt lat="38.6772108" lon="20.5737666"><ele>357.2</ele><time>2026-05-01T09:09:25.833Z</time></trkpt><trkpt lat="38.6771837" lon="20.5736837"><ele>356.4</ele><time>2026-05-01T09:09:26.831Z</time></trkpt><trkpt lat="38.6771599" lon="20.5735993"><ele>355.59999999999997</ele><time>2026-05-01T09:09:27.833Z</time></trkpt><trkpt lat="38.6771926" lon="20.5734578"><ele>354.79999999999995</ele><time>2026-05-01T09:09:29.832Z</time></trkpt><trkpt lat="38.6772694" lon="20.5733491"><ele>354.0</ele><time>2026-05-01T09:09:31.83Z</time></trkpt><trkpt lat="38.6773513" lon="20.5732278"><ele>354.0</ele><time>2026-05-01T09:09:33.833Z</time></trkpt><trkpt lat="38.6773794" lon="20.5731517"><ele>354.0</ele><time>2026-05-01T09:09:34.833Z</time></trkpt><trkpt lat="38.6773983" lon="20.5730731"><ele>354.0</ele><time>2026-05-01T09:09:35.836Z</time></trkpt><trkpt lat="38.6773985" lon="20.5729897"><ele>354.0</ele><time>2026-05-01T09:09:36.836Z</time></trkpt><trkpt lat="38.6773931" lon="20.5729066"><ele>354.0</ele><time>2026-05-01T09:09:37.832Z</time></trkpt><trkpt lat="38.6773807" lon="20.5728107"><ele>354.0</ele><time>2026-05-01T09:09:38.83Z</time></trkpt><trkpt lat="38.6773681" lon="20.5727189"><ele>354.0</ele><time>2026-05-01T09:09:39.833Z</time></trkpt><trkpt lat="38.6773584" lon="20.5726299"><ele>352.8333333333333</ele><time>2026-05-01T09:09:40.831Z</time></trkpt><trkpt lat="38.6773574" lon="20.5725304"><ele>351.6666666666667</ele><time>2026-05-01T09:09:41.833Z</time></trkpt><trkpt lat="38.6773548" lon="20.5724321"><ele>350.5</ele><time>2026-05-01T09:09:42.831Z</time></trkpt><trkpt lat="38.6773512" lon="20.5723352"><ele>349.33333333333337</ele><time>2026-05-01T09:09:43.832Z</time></trkpt><trkpt lat="38.6773496" lon="20.5722424"><ele>348.1666666666667</ele><time>2026-05-01T09:09:44.833Z</time></trkpt><trkpt lat="38.677338" lon="20.5720883"><ele>347.0</ele><time>2026-05-01T09:09:46.831Z</time></trkpt><trkpt lat="38.6772922" lon="20.5719456"><ele>346.0</ele><time>2026-05-01T09:09:48.832Z</time></trkpt><trkpt lat="38.6772515" lon="20.5718594"><ele>345.0</ele><time>2026-05-01T09:09:49.832Z</time></trkpt><trkpt lat="38.6772019" lon="20.571775"><ele>344.0</ele><time>2026-05-01T09:09:50.833Z</time></trkpt><trkpt lat="38.6771562" lon="20.5716681"><ele>343.0</ele><time>2026-05-01T09:09:51.835Z</time></trkpt><trkpt lat="38.6771129" lon="20.5715609"><ele>342.0</ele><time>2026-05-01T09:09:52.834Z</time></trkpt><trkpt lat="38.6770729" lon="20.5714564"><ele>341.0</ele><time>2026-05-01T09:09:53.836Z</time></trkpt><trkpt lat="38.6770268" lon="20.5713641"><ele>341.0</ele><time>2026-05-01T09:09:54.832Z</time></trkpt><trkpt lat="38.6769732" lon="20.5712912"><ele>341.0</ele><time>2026-05-01T09:09:55.833Z</time></trkpt><trkpt lat="38.6769059" lon="20.5712336"><ele>341.0</ele><time>2026-05-01T09:09:56.834Z</time></trkpt><trkpt lat="38.6768199" lon="20.5711931"><ele>341.0</ele><time>2026-05-01T09:09:57.834Z</time></trkpt><trkpt lat="38.6767314" lon="20.5711706"><ele>341.0</ele><time>2026-05-01T09:09:58.836Z</time></trkpt><trkpt lat="38.6766602" lon="20.571135"><ele>341.0</ele><time>2026-05-01T09:09:59.833Z</time></trkpt><trkpt lat="38.6765844" lon="20.5710813"><ele>340.0</ele><time>2026-05-01T09:10:00.832Z</time></trkpt><trkpt lat="38.676506" lon="20.5710497"><ele>339.0</ele><time>2026-05-01T09:10:01.831Z</time></trkpt><trkpt lat="38.6764226" lon="20.5710396"><ele>338.0</ele><time>2026-05-01T09:10:02.834Z</time></trkpt><trkpt lat="38.6763449" lon="20.5710439"><ele>337.0</ele><time>2026-05-01T09:10:03.834Z</time></trkpt><trkpt lat="38.6762796" lon="20.5710831"><ele>336.0</ele><time>2026-05-01T09:10:04.833Z</time></trkpt><trkpt lat="38.6762212" lon="20.5711457"><ele>335.0</ele><time>2026-05-01T09:10:05.832Z</time></trkpt><trkpt lat="38.6761721" lon="20.5712228"><ele>335.0</ele><time>2026-05-01T09:10:06.831Z</time></trkpt><trkpt lat="38.6761089" lon="20.5713075"><ele>335.0</ele><time>2026-05-01T09:10:07.833Z</time></trkpt><trkpt lat="38.6760531" lon="20.5713976"><ele>335.0</ele><time>2026-05-01T09:10:08.831Z</time></trkpt><trkpt lat="38.6759849" lon="20.571478"><ele>335.0</ele><time>2026-05-01T09:10:09.833Z</time></trkpt><trkpt lat="38.6759161" lon="20.5715473"><ele>335.0</ele><time>2026-05-01T09:10:10.83Z</time></trkpt><trkpt lat="38.6758408" lon="20.5716033"><ele>335.0</ele><time>2026-05-01T09:10:11.833Z</time></trkpt><trkpt lat="38.6757723" lon="20.5716399"><ele>334.1666666666667</ele><time>2026-05-01T09:10:12.833Z</time></trkpt><trkpt lat="38.6756915" lon="20.5716542"><ele>333.33333333333337</ele><time>2026-05-01T09:10:13.833Z</time></trkpt><trkpt lat="38.6756103" lon="20.5716588"><ele>332.5</ele><time>2026-05-01T09:10:14.833Z</time></trkpt><trkpt lat="38.6755245" lon="20.5716569"><ele>331.6666666666667</ele><time>2026-05-01T09:10:15.834Z</time></trkpt><trkpt lat="38.6754361" lon="20.5716511"><ele>330.8333333333333</ele><time>2026-05-01T09:10:16.832Z</time></trkpt><trkpt lat="38.6753423" lon="20.5716259"><ele>330.0</ele><time>2026-05-01T09:10:17.834Z</time></trkpt><trkpt lat="38.6752444" lon="20.5715845"><ele>329.0</ele><time>2026-05-01T09:10:18.829Z</time></trkpt><trkpt lat="38.6751418" lon="20.5715397"><ele>328.0</ele><time>2026-05-01T09:10:19.834Z</time></trkpt><trkpt lat="38.6750428" lon="20.5714961"><ele>327.0</ele><time>2026-05-01T09:10:20.834Z</time></trkpt><trkpt lat="38.6749516" lon="20.5714643"><ele>326.0</ele><time>2026-05-01T09:10:21.834Z</time></trkpt><trkpt lat="38.6748638" lon="20.571425"><ele>325.0</ele><time>2026-05-01T09:10:22.833Z</time></trkpt><trkpt lat="38.6747827" lon="20.5714112"><ele>325.0</ele><time>2026-05-01T09:10:23.831Z</time></trkpt><trkpt lat="38.6747069" lon="20.5713928"><ele>325.0</ele><time>2026-05-01T09:10:24.832Z</time></trkpt><trkpt lat="38.6746361" lon="20.5713779"><ele>325.0</ele><time>2026-05-01T09:10:25.832Z</time></trkpt><trkpt lat="38.6745123" lon="20.571344"><ele>325.0</ele><time>2026-05-01T09:10:27.833Z</time></trkpt><trkpt lat="38.6744496" lon="20.5713207"><ele>325.0</ele><time>2026-05-01T09:10:28.831Z</time></trkpt><trkpt lat="38.6743829" lon="20.5713133"><ele>325.0</ele><time>2026-05-01T09:10:29.834Z</time></trkpt><trkpt lat="38.6743146" lon="20.5712793"><ele>324.5</ele><time>2026-05-01T09:10:30.83Z</time></trkpt><trkpt lat="38.6742388" lon="20.5712612"><ele>324.0</ele><time>2026-05-01T09:10:31.83Z</time></trkpt><trkpt lat="38.6741657" lon="20.5712375"><ele>323.5</ele><time>2026-05-01T09:10:32.834Z</time></trkpt><trkpt lat="38.6740939" lon="20.5712324"><ele>323.0</ele><time>2026-05-01T09:10:33.832Z</time></trkpt><trkpt lat="38.6740196" lon="20.5712383"><ele>322.5</ele><time>2026-05-01T09:10:34.834Z</time></trkpt><trkpt lat="38.6739421" lon="20.5712534"><ele>322.0</ele><time>2026-05-01T09:10:35.832Z</time></trkpt><trkpt lat="38.6738641" lon="20.5712815"><ele>322.0</ele><time>2026-05-01T09:10:36.835Z</time></trkpt><trkpt lat="38.6737813" lon="20.5713008"><ele>322.0</ele><time>2026-05-01T09:10:37.83Z</time></trkpt><trkpt lat="38.6736952" lon="20.571308"><ele>322.0</ele><time>2026-05-01T09:10:38.831Z</time></trkpt><trkpt lat="38.6736034" lon="20.5712937"><ele>322.0</ele><time>2026-05-01T09:10:39.834Z</time></trkpt><trkpt lat="38.6735078" lon="20.5712749"><ele>322.0</ele><time>2026-05-01T09:10:40.831Z</time></trkpt><trkpt lat="38.6734185" lon="20.5712178"><ele>319.40000000000003</ele><time>2026-05-01T09:10:41.831Z</time></trkpt><trkpt lat="38.6733353" lon="20.571146"><ele>316.8</ele><time>2026-05-01T09:10:42.833Z</time></trkpt><trkpt lat="38.673247" lon="20.5710899"><ele>314.2</ele><time>2026-05-01T09:10:43.832Z</time></trkpt><trkpt lat="38.6731565" lon="20.5710352"><ele>311.6</ele><time>2026-05-01T09:10:44.835Z</time></trkpt><trkpt lat="38.6730656" lon="20.5709819"><ele>309.0</ele><time>2026-05-01T09:10:45.833Z</time></trkpt><trkpt lat="38.672972" lon="20.570922"><ele>309.0</ele><time>2026-05-01T09:10:46.833Z</time></trkpt><trkpt lat="38.672873" lon="20.5708634"><ele>309.0</ele><time>2026-05-01T09:10:47.832Z</time></trkpt><trkpt lat="38.6727754" lon="20.5708022"><ele>309.0</ele><time>2026-05-01T09:10:48.832Z</time></trkpt><trkpt lat="38.672689" lon="20.5707272"><ele>309.0</ele><time>2026-05-01T09:10:49.831Z</time></trkpt><trkpt lat="38.672599" lon="20.5706567"><ele>309.0</ele><time>2026-05-01T09:10:50.834Z</time></trkpt><trkpt lat="38.6725092" lon="20.5706019"><ele>309.8333333333333</ele><time>2026-05-01T09:10:51.833Z</time></trkpt><trkpt lat="38.6724199" lon="20.5705594"><ele>310.6666666666667</ele><time>2026-05-01T09:10:52.833Z</time></trkpt><trkpt lat="38.6723315" lon="20.5705296"><ele>311.5</ele><time>2026-05-01T09:10:53.832Z</time></trkpt><trkpt lat="38.6722491" lon="20.5705276"><ele>312.33333333333337</ele><time>2026-05-01T09:10:54.833Z</time></trkpt><trkpt lat="38.672161" lon="20.5705475"><ele>313.1666666666667</ele><time>2026-05-01T09:10:55.832Z</time></trkpt><trkpt lat="38.6720848" lon="20.5705718"><ele>314.0</ele><time>2026-05-01T09:10:56.833Z</time></trkpt><trkpt lat="38.6720057" lon="20.5706017"><ele>314.0</ele><time>2026-05-01T09:10:57.834Z</time></trkpt><trkpt lat="38.6719177" lon="20.5706198"><ele>314.0</ele><time>2026-05-01T09:10:58.832Z</time></trkpt><trkpt lat="38.6718256" lon="20.5706216"><ele>314.0</ele><time>2026-05-01T09:10:59.832Z</time></trkpt><trkpt lat="38.6717389" lon="20.5706142"><ele>314.0</ele><time>2026-05-01T09:11:00.833Z</time></trkpt><trkpt lat="38.6716596" lon="20.5706045"><ele>314.0</ele><time>2026-05-01T09:11:01.833Z</time></trkpt><trkpt lat="38.6715751" lon="20.5705863"><ele>314.0</ele><time>2026-05-01T09:11:02.832Z</time></trkpt><trkpt lat="38.6714929" lon="20.5705661"><ele>314.0</ele><time>2026-05-01T09:11:03.835Z</time></trkpt><trkpt lat="38.6714123" lon="20.5705204"><ele>314.0</ele><time>2026-05-01T09:11:04.831Z</time></trkpt><trkpt lat="38.6713391" lon="20.5704813"><ele>314.0</ele><time>2026-05-01T09:11:05.834Z</time></trkpt><trkpt lat="38.6712652" lon="20.5704406"><ele>314.0</ele><time>2026-05-01T09:11:06.835Z</time></trkpt><trkpt lat="38.6711742" lon="20.5704076"><ele>314.0</ele><time>2026-05-01T09:11:07.834Z</time></trkpt><trkpt lat="38.6710831" lon="20.5703922"><ele>314.0</ele><time>2026-05-01T09:11:08.831Z</time></trkpt><trkpt lat="38.6709921" lon="20.5703879"><ele>315.4</ele><time>2026-05-01T09:11:09.833Z</time></trkpt><trkpt lat="38.6709034" lon="20.5703702"><ele>316.79999999999995</ele><time>2026-05-01T09:11:10.83Z</time></trkpt><trkpt lat="38.6708185" lon="20.5703284"><ele>318.20000000000005</ele><time>2026-05-01T09:11:11.832Z</time></trkpt><trkpt lat="38.6707418" lon="20.5702706"><ele>319.6</ele><time>2026-05-01T09:11:12.834Z</time></trkpt><trkpt lat="38.67065" lon="20.5702325"><ele>321.0</ele><time>2026-05-01T09:11:13.835Z</time></trkpt><trkpt lat="38.6705533" lon="20.5701915"><ele>318.8</ele><time>2026-05-01T09:11:14.834Z</time></trkpt><trkpt lat="38.6704554" lon="20.5701676"><ele>316.6</ele><time>2026-05-01T09:11:15.833Z</time></trkpt><trkpt lat="38.6703625" lon="20.5701529"><ele>314.4</ele><time>2026-05-01T09:11:16.833Z</time></trkpt><trkpt lat="38.670261" lon="20.5701241"><ele>312.2</ele><time>2026-05-01T09:11:17.834Z</time></trkpt><trkpt lat="38.6701618" lon="20.5700871"><ele>310.0</ele><time>2026-05-01T09:11:18.831Z</time></trkpt><trkpt lat="38.670061" lon="20.5700354"><ele>310.0</ele><time>2026-05-01T09:11:19.834Z</time></trkpt><trkpt lat="38.6699663" lon="20.5699808"><ele>310.0</ele><time>2026-05-01T09:11:20.833Z</time></trkpt><trkpt lat="38.6698753" lon="20.5699268"><ele>310.0</ele><time>2026-05-01T09:11:21.83Z</time></trkpt><trkpt lat="38.6697901" lon="20.5698692"><ele>310.0</ele><time>2026-05-01T09:11:22.836Z</time></trkpt><trkpt lat="38.6697182" lon="20.569817"><ele>310.0</ele><time>2026-05-01T09:11:23.834Z</time></trkpt><trkpt lat="38.6696394" lon="20.5697705"><ele>310.0</ele><time>2026-05-01T09:11:24.833Z</time></trkpt><trkpt lat="38.6695736" lon="20.5697096"><ele>310.0</ele><time>2026-05-01T09:11:25.832Z</time></trkpt><trkpt lat="38.66952" lon="20.5696221"><ele>310.0</ele><time>2026-05-01T09:11:26.835Z</time></trkpt><trkpt lat="38.669458" lon="20.5695232"><ele>310.0</ele><time>2026-05-01T09:11:27.834Z</time></trkpt><trkpt lat="38.6694115" lon="20.5694387"><ele>310.0</ele><time>2026-05-01T09:11:28.835Z</time></trkpt><trkpt lat="38.6693672" lon="20.5693493"><ele>310.0</ele><time>2026-05-01T09:11:29.834Z</time></trkpt><trkpt lat="38.6693168" lon="20.5692636"><ele>308.16666666666663</ele><time>2026-05-01T09:11:30.831Z</time></trkpt><trkpt lat="38.6692529" lon="20.5691867"><ele>306.3333333333333</ele><time>2026-05-01T09:11:31.833Z</time></trkpt><trkpt lat="38.6691836" lon="20.5691266"><ele>304.5</ele><time>2026-05-01T09:11:32.831Z</time></trkpt><trkpt lat="38.6691012" lon="20.5690756"><ele>302.6666666666667</ele><time>2026-05-01T09:11:33.831Z</time></trkpt><trkpt lat="38.6690295" lon="20.569035"><ele>300.83333333333337</ele><time>2026-05-01T09:11:34.83Z</time></trkpt><trkpt lat="38.6689497" lon="20.5690083"><ele>299.0</ele><time>2026-05-01T09:11:35.831Z</time></trkpt><trkpt lat="38.6688591" lon="20.5689892"><ele>299.0</ele><time>2026-05-01T09:11:36.832Z</time></trkpt><trkpt lat="38.6687668" lon="20.5689927"><ele>299.0</ele><time>2026-05-01T09:11:37.832Z</time></trkpt><trkpt lat="38.6686747" lon="20.5690175"><ele>299.0</ele><time>2026-05-01T09:11:38.832Z</time></trkpt><trkpt lat="38.6685817" lon="20.5690413"><ele>299.0</ele><time>2026-05-01T09:11:39.835Z</time></trkpt><trkpt lat="38.6684918" lon="20.569057"><ele>299.0</ele><time>2026-05-01T09:11:40.832Z</time></trkpt><trkpt lat="38.6684093" lon="20.5690629"><ele>300.0</ele><time>2026-05-01T09:11:41.831Z</time></trkpt><trkpt lat="38.6683381" lon="20.5690703"><ele>301.0</ele><time>2026-05-01T09:11:42.831Z</time></trkpt><trkpt lat="38.6682751" lon="20.5690849"><ele>302.0</ele><time>2026-05-01T09:11:43.832Z</time></trkpt><trkpt lat="38.6681883" lon="20.5690704"><ele>303.0</ele><time>2026-05-01T09:11:45.834Z</time></trkpt><trkpt lat="38.6681652" lon="20.5689951"><ele>304.0</ele><time>2026-05-01T09:11:46.836Z</time></trkpt><trkpt lat="38.6681428" lon="20.5689035"><ele>305.0</ele><time>2026-05-01T09:11:47.835Z</time></trkpt><trkpt lat="38.6681117" lon="20.5688062"><ele>306.0</ele><time>2026-05-01T09:11:48.832Z</time></trkpt><trkpt lat="38.6680714" lon="20.5687225"><ele>303.6666666666667</ele><time>2026-05-01T09:11:49.832Z</time></trkpt><trkpt lat="38.6680206" lon="20.5686257"><ele>301.3333333333333</ele><time>2026-05-01T09:11:50.832Z</time></trkpt><trkpt lat="38.6679741" lon="20.5685335"><ele>299.0</ele><time>2026-05-01T09:11:51.831Z</time></trkpt><trkpt lat="38.6679348" lon="20.5684392"><ele>296.66666666666663</ele><time>2026-05-01T09:11:52.834Z</time></trkpt><trkpt lat="38.6679143" lon="20.5683577"><ele>294.3333333333333</ele><time>2026-05-01T09:11:53.834Z</time></trkpt><trkpt lat="38.6679089" lon="20.5682737"><ele>292.0</ele><time>2026-05-01T09:11:54.832Z</time></trkpt><trkpt lat="38.6679246" lon="20.5681925"><ele>292.0</ele><time>2026-05-01T09:11:55.833Z</time></trkpt><trkpt lat="38.6679456" lon="20.568113"><ele>292.0</ele><time>2026-05-01T09:11:56.832Z</time></trkpt><trkpt lat="38.6679801" lon="20.5679602"><ele>292.0</ele><time>2026-05-01T09:11:58.832Z</time></trkpt><trkpt lat="38.6679826" lon="20.5678637"><ele>292.0</ele><time>2026-05-01T09:11:59.834Z</time></trkpt><trkpt lat="38.6679603" lon="20.5677862"><ele>292.0</ele><time>2026-05-01T09:12:00.834Z</time></trkpt><trkpt lat="38.6679143" lon="20.567705"><ele>292.0</ele><time>2026-05-01T09:12:01.835Z</time></trkpt><trkpt lat="38.6678402" lon="20.5676225"><ele>290.66666666666663</ele><time>2026-05-01T09:12:03.832Z</time></trkpt><trkpt lat="38.6677503" lon="20.5676032"><ele>289.3333333333333</ele><time>2026-05-01T09:12:05.835Z</time></trkpt><trkpt lat="38.6676447" lon="20.5676089"><ele>288.0</ele><time>2026-05-01T09:12:07.833Z</time></trkpt><trkpt lat="38.6675807" lon="20.5675576"><ele>286.6666666666667</ele><time>2026-05-01T09:12:09.835Z</time></trkpt><trkpt lat="38.6675788" lon="20.5674705"><ele>285.33333333333337</ele><time>2026-05-01T09:12:11.832Z</time></trkpt><trkpt lat="38.667644" lon="20.5673678"><ele>284.0</ele><time>2026-05-01T09:12:13.831Z</time></trkpt><trkpt lat="38.6677359" lon="20.5672548"><ele>283.6666666666667</ele><time>2026-05-01T09:12:15.835Z</time></trkpt><trkpt lat="38.6677979" lon="20.5671992"><ele>283.33333333333337</ele><time>2026-05-01T09:12:16.833Z</time></trkpt><trkpt lat="38.6678624" lon="20.5671395"><ele>283.0</ele><time>2026-05-01T09:12:17.834Z</time></trkpt><trkpt lat="38.6679295" lon="20.5670724"><ele>282.6666666666667</ele><time>2026-05-01T09:12:18.833Z</time></trkpt><trkpt lat="38.667997" lon="20.5670026"><ele>282.3333333333333</ele><time>2026-05-01T09:12:19.832Z</time></trkpt><trkpt lat="38.668071" lon="20.5669316"><ele>282.0</ele><time>2026-05-01T09:12:20.833Z</time></trkpt><trkpt lat="38.668142" lon="20.5668628"><ele>280.6666666666667</ele><time>2026-05-01T09:12:21.832Z</time></trkpt><trkpt lat="38.6682091" lon="20.5668162"><ele>279.3333333333333</ele><time>2026-05-01T09:12:22.833Z</time></trkpt><trkpt lat="38.6682827" lon="20.5667695"><ele>278.0</ele><time>2026-05-01T09:12:23.834Z</time></trkpt><trkpt lat="38.6683439" lon="20.5667324"><ele>276.66666666666663</ele><time>2026-05-01T09:12:24.834Z</time></trkpt><trkpt lat="38.6684427" lon="20.5666308"><ele>275.3333333333333</ele><time>2026-05-01T09:12:26.831Z</time></trkpt><trkpt lat="38.6684824" lon="20.566548"><ele>274.0</ele><time>2026-05-01T09:12:27.834Z</time></trkpt><trkpt lat="38.6685154" lon="20.5664669"><ele>274.0</ele><time>2026-05-01T09:12:28.832Z</time></trkpt><trkpt lat="38.6685526" lon="20.5662959"><ele>274.0</ele><time>2026-05-01T09:12:30.833Z</time></trkpt><trkpt lat="38.6685434" lon="20.5661429"><ele>274.0</ele><time>2026-05-01T09:12:32.834Z</time></trkpt><trkpt lat="38.6685474" lon="20.5660579"><ele>274.0</ele><time>2026-05-01T09:12:33.832Z</time></trkpt><trkpt lat="38.6685501" lon="20.5659702"><ele>274.0</ele><time>2026-05-01T09:12:34.835Z</time></trkpt><trkpt lat="38.6685552" lon="20.5658802"><ele>273.8333333333333</ele><time>2026-05-01T09:12:35.833Z</time></trkpt><trkpt lat="38.6685569" lon="20.5657869"><ele>273.66666666666663</ele><time>2026-05-01T09:12:36.833Z</time></trkpt><trkpt lat="38.6685386" lon="20.5656728"><ele>273.5</ele><time>2026-05-01T09:12:37.832Z</time></trkpt><trkpt lat="38.6685055" lon="20.5655594"><ele>273.3333333333333</ele><time>2026-05-01T09:12:38.83Z</time></trkpt><trkpt lat="38.6684712" lon="20.5654549"><ele>273.1666666666667</ele><time>2026-05-01T09:12:39.833Z</time></trkpt><trkpt lat="38.6684365" lon="20.5653428"><ele>273.0</ele><time>2026-05-01T09:12:40.832Z</time></trkpt><trkpt lat="38.6684109" lon="20.5652337"><ele>273.3333333333333</ele><time>2026-05-01T09:12:41.834Z</time></trkpt><trkpt lat="38.6683979" lon="20.5651234"><ele>273.6666666666667</ele><time>2026-05-01T09:12:42.833Z</time></trkpt><trkpt lat="38.668408" lon="20.5650209"><ele>274.0</ele><time>2026-05-01T09:12:43.833Z</time></trkpt><trkpt lat="38.6684232" lon="20.5649252"><ele>274.33333333333337</ele><time>2026-05-01T09:12:44.834Z</time></trkpt><trkpt lat="38.6684459" lon="20.5648315"><ele>274.6666666666667</ele><time>2026-05-01T09:12:45.831Z</time></trkpt><trkpt lat="38.6684756" lon="20.5647585"><ele>275.0</ele><time>2026-05-01T09:12:46.831Z</time></trkpt><trkpt lat="38.6685247" lon="20.5646794"><ele>275.0</ele><time>2026-05-01T09:12:47.835Z</time></trkpt><trkpt lat="38.6685609" lon="20.5646018"><ele>275.0</ele><time>2026-05-01T09:12:48.835Z</time></trkpt><trkpt lat="38.6685785" lon="20.5645236"><ele>275.0</ele><time>2026-05-01T09:12:49.832Z</time></trkpt><trkpt lat="38.6685782" lon="20.5644405"><ele>275.0</ele><time>2026-05-01T09:12:50.833Z</time></trkpt><trkpt lat="38.6685567" lon="20.5643537"><ele>275.0</ele><time>2026-05-01T09:12:51.833Z</time></trkpt><trkpt lat="38.6685193" lon="20.5642596"><ele>275.0</ele><time>2026-05-01T09:12:52.833Z</time></trkpt><trkpt lat="38.6684688" lon="20.5641744"><ele>275.0</ele><time>2026-05-01T09:12:53.833Z</time></trkpt><trkpt lat="38.6684304" lon="20.5640867"><ele>275.8</ele><time>2026-05-01T09:12:54.832Z</time></trkpt><trkpt lat="38.6684252" lon="20.5639283"><ele>276.6</ele><time>2026-05-01T09:12:56.834Z</time></trkpt><trkpt lat="38.6685106" lon="20.5638352"><ele>277.4</ele><time>2026-05-01T09:12:58.834Z</time></trkpt><trkpt lat="38.6685903" lon="20.5637941"><ele>278.2</ele><time>2026-05-01T09:13:00.835Z</time></trkpt><trkpt lat="38.668677" lon="20.5637369"><ele>279.0</ele><time>2026-05-01T09:13:02.835Z</time></trkpt><trkpt lat="38.6687381" lon="20.5636955"><ele>279.0</ele><time>2026-05-01T09:13:03.833Z</time></trkpt><trkpt lat="38.6688191" lon="20.5636689"><ele>279.0</ele><time>2026-05-01T09:13:04.832Z</time></trkpt><trkpt lat="38.6689153" lon="20.5636402"><ele>279.0</ele><time>2026-05-01T09:13:05.832Z</time></trkpt><trkpt lat="38.6690024" lon="20.5636142"><ele>279.0</ele><time>2026-05-01T09:13:06.831Z</time></trkpt><trkpt lat="38.6690858" lon="20.5635898"><ele>279.0</ele><time>2026-05-01T09:13:07.832Z</time></trkpt><trkpt lat="38.6691563" lon="20.563552"><ele>279.0</ele><time>2026-05-01T09:13:08.834Z</time></trkpt><trkpt lat="38.6692178" lon="20.5634884"><ele>278.99999999999994</ele><time>2026-05-01T09:13:09.832Z</time></trkpt><trkpt lat="38.669271" lon="20.56342"><ele>279.0</ele><time>2026-05-01T09:13:10.833Z</time></trkpt><trkpt lat="38.6693273" lon="20.5633547"><ele>279.0</ele><time>2026-05-01T09:13:11.835Z</time></trkpt><trkpt lat="38.6693858" lon="20.5632984"><ele>279.0</ele><time>2026-05-01T09:13:12.832Z</time></trkpt><trkpt lat="38.6694483" lon="20.5632437"><ele>279.0</ele><time>2026-05-01T09:13:13.831Z</time></trkpt><trkpt lat="38.6695139" lon="20.563205"><ele>278.99999999999994</ele><time>2026-05-01T09:13:14.834Z</time></trkpt><trkpt lat="38.6695822" lon="20.5631797"><ele>279.0</ele><time>2026-05-01T09:13:15.831Z</time></trkpt><trkpt lat="38.6696558" lon="20.5631677"><ele>282.2</ele><time>2026-05-01T09:13:16.831Z</time></trkpt><trkpt lat="38.6697217" lon="20.5631783"><ele>285.4</ele><time>2026-05-01T09:13:17.831Z</time></trkpt><trkpt lat="38.6698458" lon="20.5632278"><ele>288.6</ele><time>2026-05-01T09:13:19.831Z</time></trkpt><trkpt lat="38.6699159" lon="20.5632516"><ele>291.8</ele><time>2026-05-01T09:13:20.833Z</time></trkpt><trkpt lat="38.6700252" lon="20.5632599"><ele>295.0</ele><time>2026-05-01T09:13:22.832Z</time></trkpt><trkpt lat="38.6701175" lon="20.5632451"><ele>295.0</ele><time>2026-05-01T09:13:24.831Z</time></trkpt><trkpt lat="38.6702128" lon="20.5632227"><ele>295.0</ele><time>2026-05-01T09:13:26.83Z</time></trkpt><trkpt lat="38.6703047" lon="20.5631718"><ele>295.0</ele><time>2026-05-01T09:13:28.832Z</time></trkpt><trkpt lat="38.6703689" lon="20.5631455"><ele>295.0</ele><time>2026-05-01T09:13:29.834Z</time></trkpt><trkpt lat="38.6704784" lon="20.5630994"><ele>295.0</ele><time>2026-05-01T09:13:31.831Z</time></trkpt><trkpt lat="38.6706054" lon="20.5630761"><ele>293.5</ele><time>2026-05-01T09:13:33.834Z</time></trkpt><trkpt lat="38.6707078" lon="20.5631866"><ele>292.0</ele><time>2026-05-01T09:13:34.832Z</time></trkpt><trkpt lat="38.6707907" lon="20.5632289"><ele>290.5</ele><time>2026-05-01T09:13:35.831Z</time></trkpt><trkpt lat="38.6708702" lon="20.5632603"><ele>289.0</ele><time>2026-05-01T09:13:36.829Z</time></trkpt><trkpt lat="38.6709421" lon="20.5632774"><ele>287.5</ele><time>2026-05-01T09:13:37.833Z</time></trkpt><trkpt lat="38.6710058" lon="20.5633023"><ele>286.0</ele><time>2026-05-01T09:13:38.833Z</time></trkpt><trkpt lat="38.6710687" lon="20.5632412"><ele>283.8333333333333</ele><time>2026-05-01T09:13:39.831Z</time></trkpt><trkpt lat="38.6711657" lon="20.5631665"><ele>281.66666666666663</ele><time>2026-05-01T09:13:41.833Z</time></trkpt><trkpt lat="38.6712303" lon="20.56313"><ele>279.5</ele><time>2026-05-01T09:13:42.832Z</time></trkpt><trkpt lat="38.6712896" lon="20.5631009"><ele>277.3333333333333</ele><time>2026-05-01T09:13:43.832Z</time></trkpt><trkpt lat="38.6713574" lon="20.5630842"><ele>275.1666666666667</ele><time>2026-05-01T09:13:44.833Z</time></trkpt><trkpt lat="38.6714324" lon="20.5630767"><ele>273.0</ele><time>2026-05-01T09:13:45.83Z</time></trkpt><trkpt lat="38.6715092" lon="20.5630568"><ele>273.0</ele><time>2026-05-01T09:13:46.832Z</time></trkpt><trkpt lat="38.6715915" lon="20.5630318"><ele>273.0</ele><time>2026-05-01T09:13:47.833Z</time></trkpt><trkpt lat="38.6716767" lon="20.5630025"><ele>273.0</ele><time>2026-05-01T09:13:48.834Z</time></trkpt><trkpt lat="38.6717492" lon="20.5629577"><ele>273.0</ele><time>2026-05-01T09:13:49.832Z</time></trkpt><trkpt lat="38.6718154" lon="20.562911"><ele>273.0</ele><time>2026-05-01T09:13:50.832Z</time></trkpt><trkpt lat="38.6718858" lon="20.5628905"><ele>273.0</ele><time>2026-05-01T09:13:51.831Z</time></trkpt><trkpt lat="38.6719501" lon="20.5628714"><ele>265.0</ele><time>2026-05-01T09:13:52.832Z</time></trkpt><trkpt lat="38.6720609" lon="20.5628391"><ele>257.0</ele><time>2026-05-01T09:13:54.831Z</time></trkpt><trkpt lat="38.6721459" lon="20.5628277"><ele>249.0</ele><time>2026-05-01T09:13:56.831Z</time></trkpt><trkpt lat="38.6722039" lon="20.5627543"><ele>241.0</ele><time>2026-05-01T09:13:58.833Z</time></trkpt><trkpt lat="38.6722404" lon="20.5626735"><ele>233.0</ele><time>2026-05-01T09:14:00.831Z</time></trkpt><trkpt lat="38.672251" lon="20.5625923"><ele>225.0</ele><time>2026-05-01T09:14:03.834Z</time></trkpt><trkpt lat="38.67217" lon="20.5624987"><ele>225.0</ele><time>2026-05-01T09:14:19.832Z</time></trkpt><trkpt lat="38.6720672" lon="20.5624446"><ele>225.0</ele><time>2026-05-01T09:14:21.83Z</time></trkpt><trkpt lat="38.6719934" lon="20.5624508"><ele>225.0</ele><time>2026-05-01T09:14:22.832Z</time></trkpt><trkpt lat="38.671914" lon="20.5624743"><ele>225.0</ele><time>2026-05-01T09:14:23.833Z</time></trkpt><trkpt lat="38.6718352" lon="20.5625159"><ele>225.0</ele><time>2026-05-01T09:14:24.834Z</time></trkpt><trkpt lat="38.6717565" lon="20.5625683"><ele>225.0</ele><time>2026-05-01T09:14:25.835Z</time></trkpt><trkpt lat="38.671676" lon="20.5626153"><ele>227.4</ele><time>2026-05-01T09:14:26.829Z</time></trkpt><trkpt lat="38.671592" lon="20.5626452"><ele>229.8</ele><time>2026-05-01T09:14:27.832Z</time></trkpt><trkpt lat="38.6715037" lon="20.5626652"><ele>232.2</ele><time>2026-05-01T09:14:28.833Z</time></trkpt><trkpt lat="38.6714088" lon="20.5626573"><ele>234.6</ele><time>2026-05-01T09:14:29.831Z</time></trkpt><trkpt lat="38.6713157" lon="20.5626464"><ele>237.0</ele><time>2026-05-01T09:14:30.831Z</time></trkpt><trkpt lat="38.6712243" lon="20.5626329"><ele>237.0</ele><time>2026-05-01T09:14:31.832Z</time></trkpt><trkpt lat="38.6711326" lon="20.5626319"><ele>237.0</ele><time>2026-05-01T09:14:32.831Z</time></trkpt><trkpt lat="38.6710475" lon="20.5626382"><ele>237.0</ele><time>2026-05-01T09:14:33.833Z</time></trkpt><trkpt lat="38.6709701" lon="20.5626027"><ele>237.0</ele><time>2026-05-01T09:14:34.833Z</time></trkpt><trkpt lat="38.6709063" lon="20.5625514"><ele>237.0</ele><time>2026-05-01T09:14:35.831Z</time></trkpt><trkpt lat="38.6708404" lon="20.5625026"><ele>237.0</ele><time>2026-05-01T09:14:36.832Z</time></trkpt><trkpt lat="38.6707787" lon="20.5624604"><ele>237.0</ele><time>2026-05-01T09:14:37.829Z</time></trkpt><trkpt lat="38.6707148" lon="20.562423"><ele>237.0</ele><time>2026-05-01T09:14:38.831Z</time></trkpt><trkpt lat="38.6706548" lon="20.5623849"><ele>237.0</ele><time>2026-05-01T09:14:39.833Z</time></trkpt><trkpt lat="38.6705939" lon="20.5623587"><ele>237.0</ele><time>2026-05-01T09:14:40.831Z</time></trkpt><trkpt lat="38.6704801" lon="20.5623471"><ele>237.0</ele><time>2026-05-01T09:14:42.832Z</time></trkpt><trkpt lat="38.6703894" lon="20.5623716"><ele>237.0</ele><time>2026-05-01T09:14:44.835Z</time></trkpt><trkpt lat="38.6702924" lon="20.5623844"><ele>237.16666666666666</ele><time>2026-05-01T09:14:46.833Z</time></trkpt><trkpt lat="38.6701969" lon="20.5623756"><ele>237.33333333333331</ele><time>2026-05-01T09:14:48.836Z</time></trkpt><trkpt lat="38.6701048" lon="20.5623412"><ele>237.5</ele><time>2026-05-01T09:14:50.833Z</time></trkpt><trkpt lat="38.6700143" lon="20.5622612"><ele>237.66666666666666</ele><time>2026-05-01T09:14:52.833Z</time></trkpt><trkpt lat="38.669962" lon="20.5622138"><ele>237.83333333333331</ele><time>2026-05-01T09:14:53.83Z</time></trkpt><trkpt lat="38.6699035" lon="20.5621715"><ele>238.0</ele><time>2026-05-01T09:14:54.831Z</time></trkpt><trkpt lat="38.6698475" lon="20.5621338"><ele>238.0</ele><time>2026-05-01T09:14:55.832Z</time></trkpt><trkpt lat="38.6697877" lon="20.562089"><ele>238.0</ele><time>2026-05-01T09:14:56.831Z</time></trkpt><trkpt lat="38.6697086" lon="20.5620498"><ele>238.0</ele><time>2026-05-01T09:14:57.832Z</time></trkpt><trkpt lat="38.6696305" lon="20.5620321"><ele>238.0</ele><time>2026-05-01T09:14:58.835Z</time></trkpt><trkpt lat="38.6695527" lon="20.5620261"><ele>238.0</ele><time>2026-05-01T09:14:59.832Z</time></trkpt><trkpt lat="38.6694861" lon="20.5620283"><ele>238.0</ele><time>2026-05-01T09:15:00.832Z</time></trkpt><trkpt lat="38.6694185" lon="20.5620284"><ele>238.0</ele><time>2026-05-01T09:15:01.829Z</time></trkpt><trkpt lat="38.6692922" lon="20.5620503"><ele>235.4</ele><time>2026-05-01T09:15:03.831Z</time></trkpt><trkpt lat="38.6691866" lon="20.5620807"><ele>232.8</ele><time>2026-05-01T09:15:05.832Z</time></trkpt><trkpt lat="38.6691212" lon="20.562069"><ele>230.2</ele><time>2026-05-01T09:15:07.834Z</time></trkpt><trkpt lat="38.66914" lon="20.5619672"><ele>227.6</ele><time>2026-05-01T09:15:10.832Z</time></trkpt><trkpt lat="38.6692465" lon="20.5619021"><ele>225.0</ele><time>2026-05-01T09:15:12.833Z</time></trkpt><trkpt lat="38.6693674" lon="20.5618618"><ele>218.83333333333334</ele><time>2026-05-01T09:15:14.833Z</time></trkpt><trkpt lat="38.6694316" lon="20.5618321"><ele>212.66666666666666</ele><time>2026-05-01T09:15:15.836Z</time></trkpt><trkpt lat="38.6694983" lon="20.5618039"><ele>206.5</ele><time>2026-05-01T09:15:16.834Z</time></trkpt><trkpt lat="38.6696247" lon="20.5617773"><ele>200.33333333333331</ele><time>2026-05-01T09:15:18.833Z</time></trkpt><trkpt lat="38.6696849" lon="20.5617516"><ele>194.16666666666666</ele><time>2026-05-01T09:15:19.833Z</time></trkpt><trkpt lat="38.6697427" lon="20.5617187"><ele>188.0</ele><time>2026-05-01T09:15:20.832Z</time></trkpt><trkpt lat="38.6698543" lon="20.5616906"><ele>188.0</ele><time>2026-05-01T09:15:22.832Z</time></trkpt><trkpt lat="38.6699679" lon="20.561747"><ele>188.0</ele><time>2026-05-01T09:15:24.832Z</time></trkpt><trkpt lat="38.670027" lon="20.5617879"><ele>188.0</ele><time>2026-05-01T09:15:25.832Z</time></trkpt><trkpt lat="38.6701304" lon="20.5618676"><ele>188.0</ele><time>2026-05-01T09:15:27.834Z</time></trkpt><trkpt lat="38.6701919" lon="20.5618999"><ele>188.0</ele><time>2026-05-01T09:15:28.834Z</time></trkpt><trkpt lat="38.6702916" lon="20.5619066"><ele>186.4</ele><time>2026-05-01T09:15:30.833Z</time></trkpt><trkpt lat="38.6704039" lon="20.5618198"><ele>184.8</ele><time>2026-05-01T09:15:32.836Z</time></trkpt><trkpt lat="38.6705192" lon="20.5617672"><ele>183.2</ele><time>2026-05-01T09:15:34.833Z</time></trkpt><trkpt lat="38.6705957" lon="20.5617573"><ele>181.6</ele><time>2026-05-01T09:15:35.831Z</time></trkpt><trkpt lat="38.670678" lon="20.5617492"><ele>180.0</ele><time>2026-05-01T09:15:36.832Z</time></trkpt><trkpt lat="38.670759" lon="20.5617441"><ele>180.0</ele><time>2026-05-01T09:15:37.833Z</time></trkpt><trkpt lat="38.670844" lon="20.5617534"><ele>180.0</ele><time>2026-05-01T09:15:38.834Z</time></trkpt><trkpt lat="38.6709279" lon="20.5617797"><ele>180.0</ele><time>2026-05-01T09:15:39.835Z</time></trkpt><trkpt lat="38.6710067" lon="20.5617923"><ele>180.0</ele><time>2026-05-01T09:15:40.831Z</time></trkpt><trkpt lat="38.6710838" lon="20.5617895"><ele>180.0</ele><time>2026-05-01T09:15:41.832Z</time></trkpt><trkpt lat="38.6711559" lon="20.5617716"><ele>180.0</ele><time>2026-05-01T09:15:42.831Z</time></trkpt><trkpt lat="38.6712663" lon="20.561746"><ele>180.0</ele><time>2026-05-01T09:15:44.835Z</time></trkpt><trkpt lat="38.6713512" lon="20.561718"><ele>180.0</ele><time>2026-05-01T09:15:46.832Z</time></trkpt><trkpt lat="38.6713253" lon="20.5616385"><ele>180.0</ele><time>2026-05-01T09:15:49.833Z</time></trkpt><trkpt lat="38.6712283" lon="20.5616274"><ele>180.0</ele><time>2026-05-01T09:15:51.832Z</time></trkpt><trkpt lat="38.6711644" lon="20.5616097"><ele>180.0</ele><time>2026-05-01T09:15:52.832Z</time></trkpt><trkpt lat="38.6710529" lon="20.5615489"><ele>180.0</ele><time>2026-05-01T09:15:54.832Z</time></trkpt><trkpt lat="38.6709569" lon="20.5614371"><ele>180.0</ele><time>2026-05-01T09:15:56.833Z</time></trkpt><trkpt lat="38.6709033" lon="20.5613881"><ele>180.0</ele><time>2026-05-01T09:15:57.834Z</time></trkpt><trkpt lat="38.6708514" lon="20.5613406"><ele>180.0</ele><time>2026-05-01T09:15:58.832Z</time></trkpt><trkpt lat="38.6707919" lon="20.5613128"><ele>180.0</ele><time>2026-05-01T09:15:59.833Z</time></trkpt><trkpt lat="38.6706875" lon="20.5612688"><ele>180.0</ele><time>2026-05-01T09:16:01.831Z</time></trkpt><trkpt lat="38.6706095" lon="20.5612121"><ele>180.0</ele><time>2026-05-01T09:16:03.83Z</time></trkpt><trkpt lat="38.6706416" lon="20.5611275"><ele>180.0</ele><time>2026-05-01T09:16:06.833Z</time></trkpt><trkpt lat="38.6707513" lon="20.5611303"><ele>180.0</ele><time>2026-05-01T09:16:08.836Z</time></trkpt><trkpt lat="38.6708187" lon="20.5611592"><ele>180.0</ele><time>2026-05-01T09:16:09.828Z</time></trkpt><trkpt lat="38.6708949" lon="20.5611907"><ele>180.0</ele><time>2026-05-01T09:16:10.835Z</time></trkpt><trkpt lat="38.6709779" lon="20.5612148"><ele>180.0</ele><time>2026-05-01T09:16:11.831Z</time></trkpt><trkpt lat="38.6710543" lon="20.5612243"><ele>180.0</ele><time>2026-05-01T09:16:12.831Z</time></trkpt><trkpt lat="38.6711315" lon="20.5612159"><ele>174.33333333333334</ele><time>2026-05-01T09:16:13.829Z</time></trkpt><trkpt lat="38.6712091" lon="20.5611975"><ele>168.66666666666666</ele><time>2026-05-01T09:16:14.833Z</time></trkpt><trkpt lat="38.6712833" lon="20.5611794"><ele>163.0</ele><time>2026-05-01T09:16:15.831Z</time></trkpt><trkpt lat="38.6713523" lon="20.5611421"><ele>157.33333333333331</ele><time>2026-05-01T09:16:16.832Z</time></trkpt><trkpt lat="38.671415" lon="20.5610959"><ele>151.66666666666666</ele><time>2026-05-01T09:16:17.833Z</time></trkpt><trkpt lat="38.6714671" lon="20.5610377"><ele>146.0</ele><time>2026-05-01T09:16:18.832Z</time></trkpt><trkpt lat="38.6715187" lon="20.5609614"><ele>146.0</ele><time>2026-05-01T09:16:19.834Z</time></trkpt><trkpt lat="38.6715762" lon="20.5608957"><ele>146.0</ele><time>2026-05-01T09:16:20.834Z</time></trkpt><trkpt lat="38.6716419" lon="20.5608513"><ele>146.0</ele><time>2026-05-01T09:16:21.83Z</time></trkpt><trkpt lat="38.671714" lon="20.5608375"><ele>146.0</ele><time>2026-05-01T09:16:22.831Z</time></trkpt><trkpt lat="38.6717845" lon="20.5608299"><ele>146.0</ele><time>2026-05-01T09:16:23.83Z</time></trkpt><trkpt lat="38.6718522" lon="20.5608055"><ele>146.0</ele><time>2026-05-01T09:16:24.832Z</time></trkpt><trkpt lat="38.6719409" lon="20.5606958"><ele>147.16666666666666</ele><time>2026-05-01T09:16:26.833Z</time></trkpt><trkpt lat="38.6719753" lon="20.5606143"><ele>148.33333333333331</ele><time>2026-05-01T09:16:27.831Z</time></trkpt><trkpt lat="38.6720249" lon="20.5605385"><ele>149.5</ele><time>2026-05-01T09:16:28.832Z</time></trkpt><trkpt lat="38.6720867" lon="20.5604761"><ele>150.66666666666666</ele><time>2026-05-01T09:16:29.831Z</time></trkpt><trkpt lat="38.6721523" lon="20.5604188"><ele>151.83333333333334</ele><time>2026-05-01T09:16:30.83Z</time></trkpt><trkpt lat="38.6722195" lon="20.5603679"><ele>153.0</ele><time>2026-05-01T09:16:31.831Z</time></trkpt><trkpt lat="38.6722778" lon="20.5603269"><ele>145.16666666666666</ele><time>2026-05-01T09:16:32.832Z</time></trkpt><trkpt lat="38.6723622" lon="20.560292"><ele>137.33333333333334</ele><time>2026-05-01T09:16:34.83Z</time></trkpt><trkpt lat="38.672368" lon="20.5601882"><ele>129.5</ele><time>2026-05-01T09:16:36.835Z</time></trkpt><trkpt lat="38.6722995" lon="20.5601378"><ele>121.66666666666667</ele><time>2026-05-01T09:16:38.833Z</time></trkpt><trkpt lat="38.6721762" lon="20.5601219"><ele>113.83333333333334</ele><time>2026-05-01T09:16:40.831Z</time></trkpt><trkpt lat="38.672103" lon="20.5601103"><ele>106.0</ele><time>2026-05-01T09:16:41.832Z</time></trkpt><trkpt lat="38.672039" lon="20.5600808"><ele>106.0</ele><time>2026-05-01T09:16:42.831Z</time></trkpt><trkpt lat="38.6719747" lon="20.5600392"><ele>106.0</ele><time>2026-05-01T09:16:43.834Z</time></trkpt><trkpt lat="38.6719047" lon="20.5599976"><ele>106.0</ele><time>2026-05-01T09:16:44.831Z</time></trkpt><trkpt lat="38.6718308" lon="20.5599712"><ele>106.0</ele><time>2026-05-01T09:16:45.833Z</time></trkpt><trkpt lat="38.6717633" lon="20.5599603"><ele>106.0</ele><time>2026-05-01T09:16:46.831Z</time></trkpt><trkpt lat="38.6716904" lon="20.559969"><ele>106.0</ele><time>2026-05-01T09:16:47.833Z</time></trkpt><trkpt lat="38.671624" lon="20.5599801"><ele>106.0</ele><time>2026-05-01T09:16:48.832Z</time></trkpt><trkpt lat="38.6715106" lon="20.5599935"><ele>108.19999999999999</ele><time>2026-05-01T09:16:50.833Z</time></trkpt><trkpt lat="38.6714411" lon="20.5599326"><ele>110.39999999999999</ele><time>2026-05-01T09:16:52.832Z</time></trkpt><trkpt lat="38.6715332" lon="20.5598547"><ele>112.6</ele><time>2026-05-01T09:16:54.835Z</time></trkpt><trkpt lat="38.6715969" lon="20.5598093"><ele>114.8</ele><time>2026-05-01T09:16:55.834Z</time></trkpt><trkpt lat="38.6717051" lon="20.5597324"><ele>117.0</ele><time>2026-05-01T09:16:57.832Z</time></trkpt><trkpt lat="38.6717547" lon="20.5596808"><ele>117.0</ele><time>2026-05-01T09:16:58.832Z</time></trkpt><trkpt lat="38.6717544" lon="20.5595685"><ele>117.0</ele><time>2026-05-01T09:17:00.83Z</time></trkpt><trkpt lat="38.6716417" lon="20.5595201"><ele>117.0</ele><time>2026-05-01T09:17:02.827Z</time></trkpt><trkpt lat="38.6715655" lon="20.5595049"><ele>117.0</ele><time>2026-05-01T09:17:03.831Z</time></trkpt><trkpt lat="38.671485" lon="20.5594951"><ele>117.0</ele><time>2026-05-01T09:17:04.832Z</time></trkpt><trkpt lat="38.6714143" lon="20.5594852"><ele>117.0</ele><time>2026-05-01T09:17:05.832Z</time></trkpt><trkpt lat="38.6713117" lon="20.5594517"><ele>113.33333333333333</ele><time>2026-05-01T09:17:07.831Z</time></trkpt><trkpt lat="38.6713008" lon="20.5593447"><ele>109.66666666666667</ele><time>2026-05-01T09:17:09.834Z</time></trkpt><trkpt lat="38.671385" lon="20.5592429"><ele>106.0</ele><time>2026-05-01T09:17:11.828Z</time></trkpt><trkpt lat="38.6714442" lon="20.5592106"><ele>102.33333333333334</ele><time>2026-05-01T09:17:12.831Z</time></trkpt><trkpt lat="38.6715092" lon="20.5592056"><ele>98.66666666666667</ele><time>2026-05-01T09:17:13.833Z</time></trkpt><trkpt lat="38.6715809" lon="20.5592184"><ele>95.0</ele><time>2026-05-01T09:17:14.834Z</time></trkpt><trkpt lat="38.6716622" lon="20.5592457"><ele>95.0</ele><time>2026-05-01T09:17:15.832Z</time></trkpt><trkpt lat="38.6717462" lon="20.5592852"><ele>95.0</ele><time>2026-05-01T09:17:16.834Z</time></trkpt><trkpt lat="38.6718391" lon="20.5593352"><ele>95.0</ele><time>2026-05-01T09:17:17.83Z</time></trkpt><trkpt lat="38.6719377" lon="20.5593678"><ele>95.0</ele><time>2026-05-01T09:17:18.832Z</time></trkpt><trkpt lat="38.6720384" lon="20.5593899"><ele>95.0</ele><time>2026-05-01T09:17:19.832Z</time></trkpt><trkpt lat="38.6721314" lon="20.5594122"><ele>96.83333333333334</ele><time>2026-05-01T09:17:20.836Z</time></trkpt><trkpt lat="38.6722103" lon="20.5594512"><ele>98.66666666666667</ele><time>2026-05-01T09:17:21.832Z</time></trkpt><trkpt lat="38.6722973" lon="20.559507"><ele>100.5</ele><time>2026-05-01T09:17:22.83Z</time></trkpt><trkpt lat="38.6723572" lon="20.5595643"><ele>102.33333333333334</ele><time>2026-05-01T09:17:23.834Z</time></trkpt><trkpt lat="38.6724166" lon="20.5596453"><ele>104.16666666666667</ele><time>2026-05-01T09:17:24.834Z</time></trkpt><trkpt lat="38.6725098" lon="20.5596871"><ele>106.0</ele><time>2026-05-01T09:17:25.831Z</time></trkpt><trkpt lat="38.6725984" lon="20.5597059"><ele>106.00000000000001</ele><time>2026-05-01T09:17:26.833Z</time></trkpt><trkpt lat="38.6727012" lon="20.559693"><ele>106.0</ele><time>2026-05-01T09:17:27.829Z</time></trkpt><trkpt lat="38.672809" lon="20.5596877"><ele>106.0</ele><time>2026-05-01T09:17:28.832Z</time></trkpt><trkpt lat="38.6728874" lon="20.5596916"><ele>106.0</ele><time>2026-05-01T09:17:29.834Z</time></trkpt><trkpt lat="38.6729618" lon="20.5596986"><ele>106.00000000000001</ele><time>2026-05-01T09:17:30.831Z</time></trkpt><trkpt lat="38.6730255" lon="20.5596948"><ele>106.0</ele><time>2026-05-01T09:17:31.832Z</time></trkpt><trkpt lat="38.6731141" lon="20.559649"><ele>99.50000000000001</ele><time>2026-05-01T09:17:33.831Z</time></trkpt><trkpt lat="38.6731048" lon="20.5595143"><ele>93.0</ele><time>2026-05-01T09:17:35.836Z</time></trkpt><trkpt lat="38.6730715" lon="20.5593651"><ele>86.5</ele><time>2026-05-01T09:17:37.831Z</time></trkpt><trkpt lat="38.673048" lon="20.5592879"><ele>80.0</ele><time>2026-05-01T09:17:38.831Z</time></trkpt><trkpt lat="38.6730293" lon="20.5592048"><ele>73.5</ele><time>2026-05-01T09:17:39.834Z</time></trkpt><trkpt lat="38.67301" lon="20.5591279"><ele>67.0</ele><time>2026-05-01T09:17:40.83Z</time></trkpt><trkpt lat="38.6729808" lon="20.5590107"><ele>67.0</ele><time>2026-05-01T09:17:42.832Z</time></trkpt><trkpt lat="38.672961" lon="20.5589137"><ele>67.0</ele><time>2026-05-01T09:17:44.831Z</time></trkpt><trkpt lat="38.6729861" lon="20.5588376"><ele>67.0</ele><time>2026-05-01T09:17:48.833Z</time></trkpt><trkpt lat="38.6730918" lon="20.5588328"><ele>67.0</ele><time>2026-05-01T09:19:18.832Z</time></trkpt><trkpt lat="38.6731636" lon="20.5589296"><ele>67.0</ele><time>2026-05-01T09:19:19.834Z</time></trkpt><trkpt lat="38.6732393" lon="20.5589768"><ele>67.0</ele><time>2026-05-01T09:19:20.832Z</time></trkpt><trkpt lat="38.6733052" lon="20.5590106"><ele>67.0</ele><time>2026-05-01T09:19:21.828Z</time></trkpt><trkpt lat="38.6733649" lon="20.5590535"><ele>67.0</ele><time>2026-05-01T09:19:22.829Z</time></trkpt><trkpt lat="38.6734309" lon="20.5591079"><ele>67.0</ele><time>2026-05-01T09:19:23.832Z</time></trkpt><trkpt lat="38.6735317" lon="20.5591854"><ele>67.0</ele><time>2026-05-01T09:19:25.833Z</time></trkpt><trkpt lat="38.6735869" lon="20.5591338"><ele>67.0</ele><time>2026-05-01T09:19:27.831Z</time></trkpt><trkpt lat="38.6735419" lon="20.5590222"><ele>67.0</ele><time>2026-05-01T09:19:29.831Z</time></trkpt><trkpt lat="38.6734889" lon="20.5589605"><ele>67.0</ele><time>2026-05-01T09:19:30.83Z</time></trkpt><trkpt lat="38.673441" lon="20.5588937"><ele>67.0</ele><time>2026-05-01T09:19:31.831Z</time></trkpt><trkpt lat="38.6734003" lon="20.5588191"><ele>67.0</ele><time>2026-05-01T09:19:32.831Z</time></trkpt><trkpt lat="38.6733597" lon="20.5587354"><ele>67.0</ele><time>2026-05-01T09:19:33.829Z</time></trkpt><trkpt lat="38.6733294" lon="20.5586575"><ele>67.0</ele><time>2026-05-01T09:19:34.831Z</time></trkpt><trkpt lat="38.6732995" lon="20.5585851"><ele>67.0</ele><time>2026-05-01T09:19:35.83Z</time></trkpt><trkpt lat="38.6732582" lon="20.5585169"><ele>67.0</ele><time>2026-05-01T09:19:36.827Z</time></trkpt><trkpt lat="38.6731644" lon="20.5584479"><ele>62.83333333333333</ele><time>2026-05-01T09:19:38.833Z</time></trkpt><trkpt lat="38.6730781" lon="20.5584386"><ele>58.666666666666664</ele><time>2026-05-01T09:19:40.828Z</time></trkpt><trkpt lat="38.6729965" lon="20.5584282"><ele>54.5</ele><time>2026-05-01T09:19:43.829Z</time></trkpt><trkpt lat="38.6729179" lon="20.5584267"><ele>50.33333333333333</ele><time>2026-05-01T09:19:45.833Z</time></trkpt><trkpt lat="38.6728296" lon="20.5584253"><ele>46.166666666666664</ele><time>2026-05-01T09:19:48.83Z</time></trkpt><trkpt lat="38.6727568" lon="20.5584268"><ele>42.0</ele><time>2026-05-01T09:19:51.831Z</time></trkpt><trkpt lat="38.6726974" lon="20.5583988"><ele>42.0</ele><time>2026-05-01T09:19:59.829Z</time></trkpt><trkpt lat="38.6727057" lon="20.5583147"><ele>42.0</ele><time>2026-05-01T09:20:12.83Z</time></trkpt><trkpt lat="38.6727754" lon="20.5582993"><ele>42.0</ele><time>2026-05-01T09:22:53.832Z</time></trkpt><trkpt lat="38.6728591" lon="20.5582823"><ele>42.0</ele><time>2026-05-01T09:22:55.829Z</time></trkpt><trkpt lat="38.6729531" lon="20.5582334"><ele>42.0</ele><time>2026-05-01T09:22:57.831Z</time></trkpt><trkpt lat="38.6730388" lon="20.5581769"><ele>42.0</ele><time>2026-05-01T09:22:59.836Z</time></trkpt><trkpt lat="38.6731189" lon="20.5581134"><ele>42.0</ele><time>2026-05-01T09:23:01.833Z</time></trkpt><trkpt lat="38.6731958" lon="20.5580622"><ele>42.0</ele><time>2026-05-01T09:23:03.831Z</time></trkpt><trkpt lat="38.6732585" lon="20.5580176"><ele>42.0</ele><time>2026-05-01T09:23:05.827Z</time></trkpt><trkpt lat="38.6733028" lon="20.5579371"><ele>42.0</ele><time>2026-05-01T09:23:07.831Z</time></trkpt><trkpt lat="38.6733092" lon="20.5578241"><ele>42.0</ele><time>2026-05-01T09:23:09.835Z</time></trkpt><trkpt lat="38.6733018" lon="20.5576906"><ele>42.0</ele><time>2026-05-01T09:23:11.831Z</time></trkpt><trkpt lat="38.6732855" lon="20.5575624"><ele>38.2</ele><time>2026-05-01T09:23:13.829Z</time></trkpt><trkpt lat="38.673259" lon="20.5574471"><ele>34.400000000000006</ele><time>2026-05-01T09:23:15.831Z</time></trkpt><trkpt lat="38.6731823" lon="20.5573717"><ele>30.6</ele><time>2026-05-01T09:23:17.831Z</time></trkpt><trkpt lat="38.6730935" lon="20.5573582"><ele>26.799999999999997</ele><time>2026-05-01T09:23:19.828Z</time></trkpt><trkpt lat="38.6729908" lon="20.5574131"><ele>23.0</ele><time>2026-05-01T09:23:21.829Z</time></trkpt><trkpt lat="38.6729098" lon="20.5574872"><ele>23.0</ele><time>2026-05-01T09:23:23.83Z</time></trkpt><trkpt lat="38.6728163" lon="20.5575823"><ele>23.0</ele><time>2026-05-01T09:23:25.83Z</time></trkpt><trkpt lat="38.6727451" lon="20.5577041"><ele>23.0</ele><time>2026-05-01T09:23:27.83Z</time></trkpt><trkpt lat="38.6726719" lon="20.5578066"><ele>23.0</ele><time>2026-05-01T09:23:29.831Z</time></trkpt><trkpt lat="38.6725824" lon="20.5578802"><ele>21.2</ele><time>2026-05-01T09:23:31.831Z</time></trkpt><trkpt lat="38.6725028" lon="20.5579096"><ele>19.4</ele><time>2026-05-01T09:23:33.831Z</time></trkpt><trkpt lat="38.6724236" lon="20.5578952"><ele>17.599999999999998</ele><time>2026-05-01T09:23:35.829Z</time></trkpt><trkpt lat="38.6723379" lon="20.557847"><ele>15.799999999999999</ele><time>2026-05-01T09:23:37.834Z</time></trkpt><trkpt lat="38.6722275" lon="20.5577582"><ele>14.0</ele><time>2026-05-01T09:23:39.831Z</time></trkpt><trkpt lat="38.6721679" lon="20.5577162"><ele>14.0</ele><time>2026-05-01T09:23:40.83Z</time></trkpt><trkpt lat="38.6721083" lon="20.5576743"><ele>14.0</ele><time>2026-05-01T09:23:41.829Z</time></trkpt><trkpt lat="38.6720444" lon="20.5576396"><ele>14.0</ele><time>2026-05-01T09:23:42.829Z</time></trkpt><trkpt lat="38.6719748" lon="20.5576074"><ele>14.0</ele><time>2026-05-01T09:23:43.829Z</time></trkpt><trkpt lat="38.6719038" lon="20.5575823"><ele>14.0</ele><time>2026-05-01T09:23:44.831Z</time></trkpt><trkpt lat="38.6718271" lon="20.5575591"><ele>14.0</ele><time>2026-05-01T09:23:45.829Z</time></trkpt><trkpt lat="38.6717571" lon="20.5575376"><ele>14.0</ele><time>2026-05-01T09:23:46.828Z</time></trkpt><trkpt lat="38.6716893" lon="20.5575318"><ele>14.166666666666668</ele><time>2026-05-01T09:23:47.83Z</time></trkpt><trkpt lat="38.6716217" lon="20.5575272"><ele>14.333333333333334</ele><time>2026-05-01T09:23:48.828Z</time></trkpt><trkpt lat="38.6715567" lon="20.5575174"><ele>14.5</ele><time>2026-05-01T09:23:49.83Z</time></trkpt><trkpt lat="38.6714898" lon="20.557507"><ele>14.666666666666668</ele><time>2026-05-01T09:23:50.829Z</time></trkpt><trkpt lat="38.6713654" lon="20.5574799"><ele>14.833333333333334</ele><time>2026-05-01T09:23:52.829Z</time></trkpt><trkpt lat="38.6712483" lon="20.557451"><ele>15.0</ele><time>2026-05-01T09:23:54.831Z</time></trkpt><trkpt lat="38.6711462" lon="20.5574201"><ele>15.166666666666666</ele><time>2026-05-01T09:23:56.829Z</time></trkpt><trkpt lat="38.67106" lon="20.5574074"><ele>15.333333333333332</ele><time>2026-05-01T09:23:58.828Z</time></trkpt><trkpt lat="38.6709859" lon="20.5573867"><ele>15.5</ele><time>2026-05-01T09:24:00.828Z</time></trkpt><trkpt lat="38.6709265" lon="20.5573252"><ele>15.666666666666666</ele><time>2026-05-01T09:24:02.83Z</time></trkpt><trkpt lat="38.6708723" lon="20.5572615"><ele>15.833333333333332</ele><time>2026-05-01T09:24:04.831Z</time></trkpt><trkpt lat="38.6708037" lon="20.557211"><ele>16.0</ele><time>2026-05-01T09:24:06.828Z</time></trkpt><trkpt lat="38.6707417" lon="20.5571638"><ele>15.999999999999998</ele><time>2026-05-01T09:24:08.83Z</time></trkpt><trkpt lat="38.6706619" lon="20.5571142"><ele>16.0</ele><time>2026-05-01T09:24:11.83Z</time></trkpt><trkpt lat="38.6705951" lon="20.5571056"><ele>16.0</ele><time>2026-05-01T09:24:15.831Z</time></trkpt><trkpt lat="38.6706026" lon="20.5572003"><ele>16.0</ele><time>2026-05-01T09:25:01.828Z</time></trkpt><trkpt lat="38.6706691" lon="20.5572181"><ele>15.999999999999998</ele><time>2026-05-01T09:25:03.829Z</time></trkpt><trkpt lat="38.6707443" lon="20.5572179"><ele>16.0</ele><time>2026-05-01T09:25:06.829Z</time></trkpt><trkpt lat="38.6708091" lon="20.5572708"><ele>16.0</ele><time>2026-05-01T09:25:09.829Z</time></trkpt><trkpt lat="38.6708608" lon="20.5573619"><ele>15.999999999999998</ele><time>2026-05-01T09:25:12.827Z</time></trkpt><trkpt lat="38.6708855" lon="20.5572813"><ele>16.0</ele><time>2026-05-01T09:28:24.832Z</time></trkpt><trkpt lat="38.6708613" lon="20.5572042"><ele>16.0</ele><time>2026-05-01T09:28:31.828Z</time></trkpt><trkpt lat="38.6708567" lon="20.5571089"><ele>15.999999999999998</ele><time>2026-05-01T09:29:42.828Z</time></trkpt><trkpt lat="38.6708234" lon="20.5570297"><ele>16.0</ele><time>2026-05-01T09:43:46.831Z</time></trkpt><trkpt lat="38.6707713" lon="20.5569806"><ele>16.0</ele><time>2026-05-01T09:43:53.831Z</time></trkpt><trkpt lat="38.6707331" lon="20.5569102"><ele>14.142857142857142</ele><time>2026-05-01T09:44:02.83Z</time></trkpt><trkpt lat="38.670733" lon="20.556823"><ele>12.285714285714285</ele><time>2026-05-01T09:44:28.833Z</time></trkpt><trkpt lat="38.6707288" lon="20.5567392"><ele>10.428571428571427</ele><time>2026-05-01T09:44:35.833Z</time></trkpt><trkpt lat="38.6707359" lon="20.5566531"><ele>8.571428571428571</ele><time>2026-05-01T09:44:43.83Z</time></trkpt><trkpt lat="38.6707397" lon="20.5565707"><ele>6.7142857142857135</ele><time>2026-05-01T09:44:52.829Z</time></trkpt><trkpt lat="38.6707049" lon="20.5566491"><ele>4.857142857142857</ele><time>2026-05-01T09:52:15.791Z</time></trkpt><trkpt lat="38.6706863" lon="20.5567275"><ele>3.0</ele><time>2026-05-01T09:52:22.829Z</time></trkpt><trkpt lat="38.67066" lon="20.5568059"><ele>2.9999999999999996</ele><time>2026-05-01T09:52:32.83Z</time></trkpt><trkpt lat="38.6706001" lon="20.5568396"><ele>3.0</ele><time>2026-05-01T09:52:47.825Z</time></trkpt><trkpt lat="38.6705147" lon="20.5568675"><ele>3.0</ele><time>2026-05-01T09:53:21.819Z</time></trkpt><trkpt lat="38.6705015" lon="20.5569655"><ele>3.0</ele><time>2026-05-01T09:53:36.824Z</time></trkpt><trkpt lat="38.6704668" lon="20.5570399"><ele>3.0</ele><time>2026-05-01T09:53:47.826Z</time></trkpt><trkpt lat="38.6704082" lon="20.5570788"><ele>2.9999999999999996</ele><time>2026-05-01T09:54:38.827Z</time></trkpt><trkpt lat="38.6704008" lon="20.5571613"><ele>3.0</ele><time>2026-05-01T09:54:55.819Z</time></trkpt><trkpt lat="38.6704273" lon="20.557243"><ele>4.857142857142857</ele><time>2026-05-01T09:55:06.815Z</time></trkpt><trkpt lat="38.6704945" lon="20.5572355"><ele>6.7142857142857135</ele><time>2026-05-01T09:55:16.728Z</time></trkpt><trkpt lat="38.6705525" lon="20.5572014"><ele>8.571428571428571</ele><time>2026-05-01T09:55:26.825Z</time></trkpt><trkpt lat="38.6706095" lon="20.5571655"><ele>10.428571428571427</ele><time>2026-05-01T09:55:33.826Z</time></trkpt><trkpt lat="38.6706789" lon="20.5571352"><ele>12.285714285714285</ele><time>2026-05-01T09:56:00.815Z</time></trkpt><trkpt lat="38.6707396" lon="20.5571052"><ele>14.142857142857142</ele><time>2026-05-01T09:56:06.824Z</time></trkpt><trkpt lat="38.6708075" lon="20.5571084"><ele>16.0</ele><time>2026-05-01T09:56:12.825Z</time></trkpt><trkpt lat="38.6708723" lon="20.5571357"><ele>15.999999999999998</ele><time>2026-05-01T09:56:18.827Z</time></trkpt><trkpt lat="38.6708424" lon="20.5572148"><ele>16.0</ele><time>2026-05-01T10:23:43.744Z</time></trkpt><trkpt lat="38.67086" lon="20.557301"><ele>16.0</ele><time>2026-05-01T10:23:49.816Z</time></trkpt><trkpt lat="38.6708709" lon="20.5573811"><ele>16.0</ele><time>2026-05-01T10:23:56.816Z</time></trkpt><trkpt lat="38.6709992" lon="20.5574416"><ele>15.999999999999998</ele><time>2026-05-01T10:26:31.822Z</time></trkpt><trkpt lat="38.6710689" lon="20.5574559"><ele>16.0</ele><time>2026-05-01T10:26:32.734Z</time></trkpt><trkpt lat="38.6711437" lon="20.5574811"><ele>15.833333333333332</ele><time>2026-05-01T10:26:34.821Z</time></trkpt><trkpt lat="38.6712135" lon="20.5575081"><ele>15.666666666666666</ele><time>2026-05-01T10:26:35.821Z</time></trkpt><trkpt lat="38.6712902" lon="20.5575235"><ele>15.5</ele><time>2026-05-01T10:27:35.822Z</time></trkpt><trkpt lat="38.6714117" lon="20.557537"><ele>15.333333333333332</ele><time>2026-05-01T10:27:37.821Z</time></trkpt><trkpt lat="38.6714783" lon="20.557557"><ele>15.166666666666666</ele><time>2026-05-01T10:27:38.821Z</time></trkpt><trkpt lat="38.6715411" lon="20.5575683"><ele>15.0</ele><time>2026-05-01T10:27:39.821Z</time></trkpt><trkpt lat="38.6716034" lon="20.5575832"><ele>15.0</ele><time>2026-05-01T10:27:40.822Z</time></trkpt><trkpt lat="38.6716793" lon="20.5575846"><ele>15.0</ele><time>2026-05-01T10:27:41.821Z</time></trkpt><trkpt lat="38.6717574" lon="20.5575973"><ele>15.0</ele><time>2026-05-01T10:27:42.822Z</time></trkpt><trkpt lat="38.6718339" lon="20.5576075"><ele>15.0</ele><time>2026-05-01T10:27:43.822Z</time></trkpt><trkpt lat="38.6719058" lon="20.5576248"><ele>15.0</ele><time>2026-05-01T10:27:44.821Z</time></trkpt><trkpt lat="38.6719789" lon="20.5576499"><ele>15.0</ele><time>2026-05-01T10:27:45.821Z</time></trkpt><trkpt lat="38.6720468" lon="20.5576823"><ele>14.833333333333334</ele><time>2026-05-01T10:27:46.822Z</time></trkpt><trkpt lat="38.6721082" lon="20.5577174"><ele>14.666666666666668</ele><time>2026-05-01T10:27:47.821Z</time></trkpt><trkpt lat="38.6722213" lon="20.5577948"><ele>14.5</ele><time>2026-05-01T10:27:49.821Z</time></trkpt><trkpt lat="38.6722958" lon="20.5578459"><ele>14.333333333333334</ele><time>2026-05-01T10:27:51.822Z</time></trkpt><trkpt lat="38.6723698" lon="20.5579076"><ele>14.166666666666668</ele><time>2026-05-01T10:27:53.822Z</time></trkpt><trkpt lat="38.6724425" lon="20.5579471"><ele>14.0</ele><time>2026-05-01T10:27:55.821Z</time></trkpt><trkpt lat="38.6725442" lon="20.5579655"><ele>14.000000000000002</ele><time>2026-05-01T10:27:57.822Z</time></trkpt><trkpt lat="38.6726581" lon="20.5579296"><ele>14.0</ele><time>2026-05-01T10:27:59.822Z</time></trkpt><trkpt lat="38.6727104" lon="20.5578829"><ele>14.0</ele><time>2026-05-01T10:28:00.822Z</time></trkpt><trkpt lat="38.6727539" lon="20.5578086"><ele>14.0</ele><time>2026-05-01T10:28:01.821Z</time></trkpt><trkpt lat="38.6728008" lon="20.557734"><ele>14.000000000000002</ele><time>2026-05-01T10:28:02.821Z</time></trkpt><trkpt lat="38.6728473" lon="20.5576583"><ele>14.0</ele><time>2026-05-01T10:28:03.822Z</time></trkpt><trkpt lat="38.6728963" lon="20.5575786"><ele>15.799999999999999</ele><time>2026-05-01T10:28:04.821Z</time></trkpt><trkpt lat="38.6729454" lon="20.5575255"><ele>17.599999999999998</ele><time>2026-05-01T10:28:05.821Z</time></trkpt><trkpt lat="38.6730455" lon="20.5574425"><ele>19.4</ele><time>2026-05-01T10:28:07.822Z</time></trkpt><trkpt lat="38.67312" lon="20.5573756"><ele>21.2</ele><time>2026-05-01T10:28:08.822Z</time></trkpt><trkpt lat="38.6732297" lon="20.5573518"><ele>23.0</ele><time>2026-05-01T10:28:10.821Z</time></trkpt><trkpt lat="38.6733023" lon="20.5574402"><ele>23.0</ele><time>2026-05-01T10:28:12.822Z</time></trkpt><trkpt lat="38.6733364" lon="20.5575893"><ele>23.0</ele><time>2026-05-01T10:28:14.822Z</time></trkpt><trkpt lat="38.6733435" lon="20.5576826"><ele>23.0</ele><time>2026-05-01T10:28:15.821Z</time></trkpt><trkpt lat="38.6733326" lon="20.5578364"><ele>23.0</ele><time>2026-05-01T10:28:17.822Z</time></trkpt><trkpt lat="38.6732852" lon="20.5579667"><ele>23.0</ele><time>2026-05-01T10:28:19.821Z</time></trkpt><trkpt lat="38.6731873" lon="20.5580691"><ele>25.166666666666668</ele><time>2026-05-01T10:28:21.821Z</time></trkpt><trkpt lat="38.6731248" lon="20.5581134"><ele>27.333333333333336</ele><time>2026-05-01T10:28:22.822Z</time></trkpt><trkpt lat="38.6730638" lon="20.5581612"><ele>29.5</ele><time>2026-05-01T10:28:23.822Z</time></trkpt><trkpt lat="38.6730062" lon="20.5581978"><ele>31.666666666666668</ele><time>2026-05-01T10:28:24.822Z</time></trkpt><trkpt lat="38.6729471" lon="20.5582376"><ele>33.833333333333336</ele><time>2026-05-01T10:28:25.821Z</time></trkpt><trkpt lat="38.6728464" lon="20.5582803"><ele>36.0</ele><time>2026-05-01T10:28:27.822Z</time></trkpt><trkpt lat="38.6727523" lon="20.5583158"><ele>36.0</ele><time>2026-05-01T10:28:29.821Z</time></trkpt><trkpt lat="38.6726981" lon="20.5583874"><ele>36.0</ele><time>2026-05-01T10:28:31.822Z</time></trkpt><trkpt lat="38.6727468" lon="20.5584744"><ele>36.0</ele><time>2026-05-01T10:28:34.822Z</time></trkpt><trkpt lat="38.6728372" lon="20.5584734"><ele>36.0</ele><time>2026-05-01T10:28:36.822Z</time></trkpt><trkpt lat="38.6729567" lon="20.5584807"><ele>36.0</ele><time>2026-05-01T10:28:38.822Z</time></trkpt><trkpt lat="38.6730321" lon="20.5584972"><ele>36.0</ele><time>2026-05-01T10:28:39.821Z</time></trkpt><trkpt lat="38.6730965" lon="20.5585048"><ele>37.0</ele><time>2026-05-01T10:28:40.821Z</time></trkpt><trkpt lat="38.6732134" lon="20.5585401"><ele>38.0</ele><time>2026-05-01T10:28:42.821Z</time></trkpt><trkpt lat="38.6732578" lon="20.5586037"><ele>39.0</ele><time>2026-05-01T10:28:43.821Z</time></trkpt><trkpt lat="38.6733081" lon="20.558657"><ele>40.0</ele><time>2026-05-01T10:28:44.821Z</time></trkpt><trkpt lat="38.6733349" lon="20.5587317"><ele>41.0</ele><time>2026-05-01T10:28:45.821Z</time></trkpt><trkpt lat="38.6733661" lon="20.5588125"><ele>42.0</ele><time>2026-05-01T10:28:46.821Z</time></trkpt><trkpt lat="38.6734035" lon="20.5588976"><ele>46.166666666666664</ele><time>2026-05-01T10:28:47.822Z</time></trkpt><trkpt lat="38.6734463" lon="20.5589815"><ele>50.33333333333333</ele><time>2026-05-01T10:28:48.822Z</time></trkpt><trkpt lat="38.673495" lon="20.559047"><ele>54.5</ele><time>2026-05-01T10:28:49.821Z</time></trkpt><trkpt lat="38.6735756" lon="20.5591522"><ele>58.666666666666664</ele><time>2026-05-01T10:28:51.822Z</time></trkpt><trkpt lat="38.673573" lon="20.5592432"><ele>62.83333333333333</ele><time>2026-05-01T10:28:53.822Z</time></trkpt><trkpt lat="38.6735057" lon="20.5592333"><ele>67.0</ele><time>2026-05-01T10:28:55.822Z</time></trkpt><trkpt lat="38.67341" lon="20.5591393"><ele>67.0</ele><time>2026-05-01T10:28:57.821Z</time></trkpt><trkpt lat="38.6733519" lon="20.5590969"><ele>67.0</ele><time>2026-05-01T10:28:58.821Z</time></trkpt><trkpt lat="38.6732976" lon="20.5590555"><ele>67.0</ele><time>2026-05-01T10:28:59.821Z</time></trkpt><trkpt lat="38.673186" lon="20.5589526"><ele>67.0</ele><time>2026-05-01T10:29:01.822Z</time></trkpt><trkpt lat="38.6730852" lon="20.5588867"><ele>67.0</ele><time>2026-05-01T10:29:03.821Z</time></trkpt><trkpt lat="38.6729789" lon="20.5588976"><ele>67.0</ele><time>2026-05-01T10:29:05.822Z</time></trkpt><trkpt lat="38.6729337" lon="20.5590336"><ele>67.0</ele><time>2026-05-01T10:29:07.821Z</time></trkpt><trkpt lat="38.6729568" lon="20.5591302"><ele>67.0</ele><time>2026-05-01T10:29:08.822Z</time></trkpt><trkpt lat="38.6730055" lon="20.5592277"><ele>67.0</ele><time>2026-05-01T10:29:09.822Z</time></trkpt><trkpt lat="38.6730507" lon="20.5593307"><ele>67.0</ele><time>2026-05-01T10:29:10.822Z</time></trkpt><trkpt lat="38.6730824" lon="20.5594273"><ele>67.0</ele><time>2026-05-01T10:29:11.822Z</time></trkpt><trkpt lat="38.6731188" lon="20.559499"><ele>67.0</ele><time>2026-05-01T10:29:12.822Z</time></trkpt><trkpt lat="38.6730962" lon="20.5596143"><ele>67.0</ele><time>2026-05-01T10:29:14.822Z</time></trkpt><trkpt lat="38.6729631" lon="20.5596484"><ele>67.0</ele><time>2026-05-01T10:29:16.822Z</time></trkpt><trkpt lat="38.6728639" lon="20.5596521"><ele>67.0</ele><time>2026-05-01T10:29:17.821Z</time></trkpt><trkpt lat="38.6727612" lon="20.5596637"><ele>74.8</ele><time>2026-05-01T10:29:18.821Z</time></trkpt><trkpt lat="38.6726403" lon="20.5596753"><ele>82.6</ele><time>2026-05-01T10:29:19.822Z</time></trkpt><trkpt lat="38.6725486" lon="20.5596825"><ele>90.39999999999999</ele><time>2026-05-01T10:29:20.822Z</time></trkpt><trkpt lat="38.6724562" lon="20.5596612"><ele>98.2</ele><time>2026-05-01T10:29:21.822Z</time></trkpt><trkpt lat="38.6723744" lon="20.5596111"><ele>106.0</ele><time>2026-05-01T10:29:22.822Z</time></trkpt><trkpt lat="38.6722923" lon="20.5595443"><ele>103.25</ele><time>2026-05-01T10:29:23.821Z</time></trkpt><trkpt lat="38.6721983" lon="20.5594865"><ele>100.5</ele><time>2026-05-01T10:29:24.821Z</time></trkpt><trkpt lat="38.6720899" lon="20.5594531"><ele>97.75</ele><time>2026-05-01T10:29:25.822Z</time></trkpt><trkpt lat="38.6719595" lon="20.5594243"><ele>95.0</ele><time>2026-05-01T10:29:26.821Z</time></trkpt><trkpt lat="38.6718424" lon="20.5593902"><ele>95.0</ele><time>2026-05-01T10:29:27.822Z</time></trkpt><trkpt lat="38.6717377" lon="20.55934"><ele>95.0</ele><time>2026-05-01T10:29:28.822Z</time></trkpt><trkpt lat="38.6716445" lon="20.5592904"><ele>95.0</ele><time>2026-05-01T10:29:29.822Z</time></trkpt><trkpt lat="38.6715531" lon="20.5592483"><ele>95.0</ele><time>2026-05-01T10:29:30.822Z</time></trkpt><trkpt lat="38.6714679" lon="20.5592307"><ele>95.0</ele><time>2026-05-01T10:29:31.822Z</time></trkpt><trkpt lat="38.6713794" lon="20.5592403"><ele>95.0</ele><time>2026-05-01T10:29:32.82Z</time></trkpt><trkpt lat="38.6713043" lon="20.5592829"><ele>95.0</ele><time>2026-05-01T10:29:33.821Z</time></trkpt><trkpt lat="38.6712496" lon="20.5593398"><ele>95.0</ele><time>2026-05-01T10:29:34.821Z</time></trkpt><trkpt lat="38.6712308" lon="20.5594493"><ele>95.0</ele><time>2026-05-01T10:29:36.821Z</time></trkpt><trkpt lat="38.6713036" lon="20.5595327"><ele>95.0</ele><time>2026-05-01T10:29:38.821Z</time></trkpt><trkpt lat="38.6713682" lon="20.5595302"><ele>95.0</ele><time>2026-05-01T10:29:39.821Z</time></trkpt><trkpt lat="38.6714454" lon="20.559546"><ele>98.66666666666667</ele><time>2026-05-01T10:29:40.821Z</time></trkpt><trkpt lat="38.6715238" lon="20.5595508"><ele>102.33333333333334</ele><time>2026-05-01T10:29:41.822Z</time></trkpt><trkpt lat="38.6715979" lon="20.5595692"><ele>106.0</ele><time>2026-05-01T10:29:42.822Z</time></trkpt><trkpt lat="38.6716634" lon="20.5595785"><ele>109.66666666666667</ele><time>2026-05-01T10:29:43.821Z</time></trkpt><trkpt lat="38.6717442" lon="20.559603"><ele>113.33333333333333</ele><time>2026-05-01T10:29:45.822Z</time></trkpt><trkpt lat="38.6717236" lon="20.559701"><ele>117.0</ele><time>2026-05-01T10:29:47.822Z</time></trkpt><trkpt lat="38.6716216" lon="20.5597701"><ele>117.0</ele><time>2026-05-01T10:29:49.821Z</time></trkpt><trkpt lat="38.6715563" lon="20.5598102"><ele>117.0</ele><time>2026-05-01T10:29:50.821Z</time></trkpt><trkpt lat="38.6714973" lon="20.5598407"><ele>117.0</ele><time>2026-05-01T10:29:51.822Z</time></trkpt><trkpt lat="38.6714218" lon="20.55992"><ele>117.0</ele><time>2026-05-01T10:29:53.821Z</time></trkpt><trkpt lat="38.6714459" lon="20.5600152"><ele>117.0</ele><time>2026-05-01T10:29:55.822Z</time></trkpt><trkpt lat="38.6715733" lon="20.5600225"><ele>117.0</ele><time>2026-05-01T10:29:57.821Z</time></trkpt><trkpt lat="38.6716396" lon="20.560013"><ele>117.0</ele><time>2026-05-01T10:29:58.821Z</time></trkpt><trkpt lat="38.6717183" lon="20.5600339"><ele>117.0</ele><time>2026-05-01T10:29:59.822Z</time></trkpt><trkpt lat="38.6717825" lon="20.5600427"><ele>117.0</ele><time>2026-05-01T10:30:00.821Z</time></trkpt><trkpt lat="38.6718491" lon="20.5600569"><ele>117.0</ele><time>2026-05-01T10:30:01.822Z</time></trkpt><trkpt lat="38.6719595" lon="20.5601179"><ele>117.0</ele><time>2026-05-01T10:30:03.822Z</time></trkpt><trkpt lat="38.672067" lon="20.5601673"><ele>117.0</ele><time>2026-05-01T10:30:05.822Z</time></trkpt><trkpt lat="38.672132" lon="20.5601882"><ele>114.8</ele><time>2026-05-01T10:30:06.822Z</time></trkpt><trkpt lat="38.6722389" lon="20.5601877"><ele>112.6</ele><time>2026-05-01T10:30:08.821Z</time></trkpt><trkpt lat="38.672319" lon="20.5601905"><ele>110.39999999999999</ele><time>2026-05-01T10:30:10.822Z</time></trkpt><trkpt lat="38.672362" lon="20.5602846"><ele>108.19999999999999</ele><time>2026-05-01T10:30:13.822Z</time></trkpt><trkpt lat="38.6723072" lon="20.5603301"><ele>106.0</ele><time>2026-05-01T10:30:15.821Z</time></trkpt><trkpt lat="38.6721952" lon="20.5603661"><ele>112.66666666666667</ele><time>2026-05-01T10:30:17.822Z</time></trkpt><trkpt lat="38.6721371" lon="20.5604108"><ele>119.33333333333334</ele><time>2026-05-01T10:30:18.821Z</time></trkpt><trkpt lat="38.6720722" lon="20.5604652"><ele>126.0</ele><time>2026-05-01T10:30:19.821Z</time></trkpt><trkpt lat="38.6720159" lon="20.5605413"><ele>132.66666666666666</ele><time>2026-05-01T10:30:20.822Z</time></trkpt><trkpt lat="38.6719708" lon="20.5606407"><ele>139.33333333333331</ele><time>2026-05-01T10:30:21.821Z</time></trkpt><trkpt lat="38.67193" lon="20.560733"><ele>146.0</ele><time>2026-05-01T10:30:22.821Z</time></trkpt><trkpt lat="38.6718811" lon="20.5608242"><ele>146.0</ele><time>2026-05-01T10:30:23.822Z</time></trkpt><trkpt lat="38.671814" lon="20.5608598"><ele>146.0</ele><time>2026-05-01T10:30:24.821Z</time></trkpt><trkpt lat="38.6717385" lon="20.5608536"><ele>146.0</ele><time>2026-05-01T10:30:25.821Z</time></trkpt><trkpt lat="38.6716658" lon="20.5608736"><ele>146.0</ele><time>2026-05-01T10:30:26.822Z</time></trkpt><trkpt lat="38.6715957" lon="20.5609174"><ele>146.0</ele><time>2026-05-01T10:30:27.821Z</time></trkpt><trkpt lat="38.6715379" lon="20.5609911"><ele>146.0</ele><time>2026-05-01T10:30:28.821Z</time></trkpt><trkpt lat="38.6714687" lon="20.56106"><ele>146.0</ele><time>2026-05-01T10:30:29.822Z</time></trkpt><trkpt lat="38.6713965" lon="20.5611278"><ele>146.0</ele><time>2026-05-01T10:30:30.821Z</time></trkpt><trkpt lat="38.6713102" lon="20.5611778"><ele>146.0</ele><time>2026-05-01T10:30:31.822Z</time></trkpt><trkpt lat="38.6712199" lon="20.5612095"><ele>146.0</ele><time>2026-05-01T10:30:32.822Z</time></trkpt><trkpt lat="38.6711266" lon="20.5612297"><ele>146.0</ele><time>2026-05-01T10:30:33.822Z</time></trkpt><trkpt lat="38.6710343" lon="20.5612132"><ele>145.2</ele><time>2026-05-01T10:30:34.821Z</time></trkpt><trkpt lat="38.6709416" lon="20.5611718"><ele>144.39999999999998</ele><time>2026-05-01T10:30:35.821Z</time></trkpt><trkpt lat="38.6708514" lon="20.5611274"><ele>143.6</ele><time>2026-05-01T10:30:36.822Z</time></trkpt><trkpt lat="38.6707564" lon="20.5611039"><ele>142.79999999999998</ele><time>2026-05-01T10:30:37.821Z</time></trkpt><trkpt lat="38.6706823" lon="20.5610797"><ele>142.0</ele><time>2026-05-01T10:30:38.822Z</time></trkpt><trkpt lat="38.6705744" lon="20.5611207"><ele>149.6</ele><time>2026-05-01T10:30:40.821Z</time></trkpt><trkpt lat="38.6705666" lon="20.561224"><ele>157.2</ele><time>2026-05-01T10:30:42.821Z</time></trkpt><trkpt lat="38.670659" lon="20.561275"><ele>164.8</ele><time>2026-05-01T10:30:44.822Z</time></trkpt><trkpt lat="38.6707882" lon="20.5613314"><ele>172.4</ele><time>2026-05-01T10:30:46.822Z</time></trkpt><trkpt lat="38.6708662" lon="20.5613788"><ele>180.0</ele><time>2026-05-01T10:30:47.822Z</time></trkpt><trkpt lat="38.6709427" lon="20.5614419"><ele>180.0</ele><time>2026-05-01T10:30:48.821Z</time></trkpt><trkpt lat="38.6710203" lon="20.5615185"><ele>180.0</ele><time>2026-05-01T10:30:49.821Z</time></trkpt><trkpt lat="38.6711018" lon="20.5615755"><ele>180.0</ele><time>2026-05-01T10:30:50.821Z</time></trkpt><trkpt lat="38.6711821" lon="20.5616141"><ele>180.0</ele><time>2026-05-01T10:30:51.822Z</time></trkpt><trkpt lat="38.6712592" lon="20.5616195"><ele>180.0</ele><time>2026-05-01T10:30:52.822Z</time></trkpt><trkpt lat="38.6713249" lon="20.5616256"><ele>180.0</ele><time>2026-05-01T10:30:53.822Z</time></trkpt><trkpt lat="38.6714088" lon="20.5616583"><ele>180.0</ele><time>2026-05-01T10:30:55.821Z</time></trkpt><trkpt lat="38.6713854" lon="20.5617382"><ele>180.0</ele><time>2026-05-01T10:30:57.821Z</time></trkpt><trkpt lat="38.6712747" lon="20.5617719"><ele>180.0</ele><time>2026-05-01T10:30:59.821Z</time></trkpt><trkpt lat="38.6711979" lon="20.5617818"><ele>180.0</ele><time>2026-05-01T10:31:00.822Z</time></trkpt><trkpt lat="38.6711056" lon="20.5617837"><ele>180.0</ele><time>2026-05-01T10:31:01.822Z</time></trkpt><trkpt lat="38.6710113" lon="20.561777"><ele>180.0</ele><time>2026-05-01T10:31:02.821Z</time></trkpt><trkpt lat="38.6709159" lon="20.5617662"><ele>180.0</ele><time>2026-05-01T10:31:03.822Z</time></trkpt><trkpt lat="38.6708274" lon="20.5617503"><ele>180.0</ele><time>2026-05-01T10:31:04.822Z</time></trkpt><trkpt lat="38.6707343" lon="20.5617428"><ele>180.0</ele><time>2026-05-01T10:31:05.821Z</time></trkpt><trkpt lat="38.6706397" lon="20.5617419"><ele>180.0</ele><time>2026-05-01T10:31:06.821Z</time></trkpt><trkpt lat="38.6705504" lon="20.5617558"><ele>180.0</ele><time>2026-05-01T10:31:07.821Z</time></trkpt><trkpt lat="38.6704606" lon="20.5617967"><ele>180.0</ele><time>2026-05-01T10:31:08.822Z</time></trkpt><trkpt lat="38.6703808" lon="20.5618499"><ele>180.0</ele><time>2026-05-01T10:31:09.822Z</time></trkpt><trkpt lat="38.670311" lon="20.561914"><ele>180.0</ele><time>2026-05-01T10:31:10.821Z</time></trkpt><trkpt lat="38.670227" lon="20.5619609"><ele>180.0</ele><time>2026-05-01T10:31:11.822Z</time></trkpt><trkpt lat="38.6701691" lon="20.5618834"><ele>180.0</ele><time>2026-05-01T10:31:12.822Z</time></trkpt><trkpt lat="38.670104" lon="20.561856"><ele>180.0</ele><time>2026-05-01T10:31:13.821Z</time></trkpt><trkpt lat="38.6700301" lon="20.5618166"><ele>181.33333333333334</ele><time>2026-05-01T10:31:14.821Z</time></trkpt><trkpt lat="38.66996" lon="20.5617618"><ele>182.66666666666666</ele><time>2026-05-01T10:31:15.822Z</time></trkpt><trkpt lat="38.6698999" lon="20.5617161"><ele>184.0</ele><time>2026-05-01T10:31:16.822Z</time></trkpt><trkpt lat="38.6697771" lon="20.5617079"><ele>185.33333333333331</ele><time>2026-05-01T10:31:18.822Z</time></trkpt><trkpt lat="38.6697088" lon="20.5617397"><ele>186.66666666666666</ele><time>2026-05-01T10:31:19.822Z</time></trkpt><trkpt lat="38.6696317" lon="20.5617856"><ele>188.0</ele><time>2026-05-01T10:31:20.822Z</time></trkpt><trkpt lat="38.6695436" lon="20.5618337"><ele>188.0</ele><time>2026-05-01T10:31:21.821Z</time></trkpt><trkpt lat="38.6694455" lon="20.5618596"><ele>188.0</ele><time>2026-05-01T10:31:22.821Z</time></trkpt><trkpt lat="38.6693464" lon="20.5618864"><ele>188.0</ele><time>2026-05-01T10:31:23.822Z</time></trkpt><trkpt lat="38.6692601" lon="20.5619027"><ele>188.0</ele><time>2026-05-01T10:31:24.822Z</time></trkpt><trkpt lat="38.6691862" lon="20.5619196"><ele>188.0</ele><time>2026-05-01T10:31:25.822Z</time></trkpt><trkpt lat="38.6691201" lon="20.5619533"><ele>188.0</ele><time>2026-05-01T10:31:26.821Z</time></trkpt><trkpt lat="38.6690679" lon="20.5620053"><ele>194.16666666666666</ele><time>2026-05-01T10:31:27.822Z</time></trkpt><trkpt lat="38.669063" lon="20.5621032"><ele>200.33333333333331</ele><time>2026-05-01T10:31:29.821Z</time></trkpt><trkpt lat="38.6691355" lon="20.5621372"><ele>206.5</ele><time>2026-05-01T10:31:31.822Z</time></trkpt><trkpt lat="38.6692045" lon="20.562126"><ele>212.66666666666666</ele><time>2026-05-01T10:31:32.822Z</time></trkpt><trkpt lat="38.6693167" lon="20.5620992"><ele>218.83333333333334</ele><time>2026-05-01T10:31:33.821Z</time></trkpt><trkpt lat="38.6694041" lon="20.5620828"><ele>225.0</ele><time>2026-05-01T10:31:34.822Z</time></trkpt><trkpt lat="38.6694846" lon="20.5620703"><ele>227.6</ele><time>2026-05-01T10:31:35.821Z</time></trkpt><trkpt lat="38.6695684" lon="20.5620568"><ele>230.2</ele><time>2026-05-01T10:31:36.822Z</time></trkpt><trkpt lat="38.6696552" lon="20.5620642"><ele>232.8</ele><time>2026-05-01T10:31:37.821Z</time></trkpt><trkpt lat="38.6697446" lon="20.5621259"><ele>235.4</ele><time>2026-05-01T10:31:38.822Z</time></trkpt><trkpt lat="38.6698259" lon="20.5621892"><ele>238.0</ele><time>2026-05-01T10:31:39.821Z</time></trkpt><trkpt lat="38.6698988" lon="20.5622431"><ele>238.0</ele><time>2026-05-01T10:31:40.822Z</time></trkpt><trkpt lat="38.6699524" lon="20.5622923"><ele>238.0</ele><time>2026-05-01T10:31:41.822Z</time></trkpt><trkpt lat="38.6700002" lon="20.5623463"><ele>238.0</ele><time>2026-05-01T10:31:42.821Z</time></trkpt><trkpt lat="38.6700829" lon="20.5624498"><ele>238.0</ele><time>2026-05-01T10:31:44.822Z</time></trkpt><trkpt lat="38.6701947" lon="20.5624618"><ele>238.0</ele><time>2026-05-01T10:31:46.821Z</time></trkpt><trkpt lat="38.6703247" lon="20.5624224"><ele>237.83333333333331</ele><time>2026-05-01T10:31:48.821Z</time></trkpt><trkpt lat="38.6703908" lon="20.5624124"><ele>237.66666666666666</ele><time>2026-05-01T10:31:49.821Z</time></trkpt><trkpt lat="38.670462" lon="20.5624137"><ele>237.5</ele><time>2026-05-01T10:31:50.822Z</time></trkpt><trkpt lat="38.670542" lon="20.5624281"><ele>237.33333333333331</ele><time>2026-05-01T10:31:51.822Z</time></trkpt><trkpt lat="38.6706288" lon="20.5624577"><ele>237.16666666666666</ele><time>2026-05-01T10:31:52.822Z</time></trkpt><trkpt lat="38.6707206" lon="20.5624947"><ele>237.0</ele><time>2026-05-01T10:31:53.821Z</time></trkpt><trkpt lat="38.6708207" lon="20.562544"><ele>237.0</ele><time>2026-05-01T10:31:54.822Z</time></trkpt><trkpt lat="38.6708986" lon="20.5625988"><ele>237.0</ele><time>2026-05-01T10:31:55.821Z</time></trkpt><trkpt lat="38.670964" lon="20.562639"><ele>237.0</ele><time>2026-05-01T10:31:56.822Z</time></trkpt><trkpt lat="38.6710414" lon="20.5626699"><ele>237.0</ele><time>2026-05-01T10:31:57.822Z</time></trkpt><trkpt lat="38.6711325" lon="20.5626755"><ele>237.0</ele><time>2026-05-01T10:31:58.82Z</time></trkpt><trkpt lat="38.6712247" lon="20.5626925"><ele>237.0</ele><time>2026-05-01T10:31:59.822Z</time></trkpt><trkpt lat="38.6713385" lon="20.5627398"><ele>237.0</ele><time>2026-05-01T10:32:00.821Z</time></trkpt><trkpt lat="38.6714517" lon="20.5627864"><ele>237.0</ele><time>2026-05-01T10:32:01.822Z</time></trkpt><trkpt lat="38.6715531" lon="20.5627983"><ele>237.0</ele><time>2026-05-01T10:32:02.821Z</time></trkpt><trkpt lat="38.671677" lon="20.5627795"><ele>237.0</ele><time>2026-05-01T10:32:03.821Z</time></trkpt><trkpt lat="38.6717747" lon="20.5626811"><ele>237.0</ele><time>2026-05-01T10:32:04.821Z</time></trkpt><trkpt lat="38.6718766" lon="20.5626058"><ele>237.0</ele><time>2026-05-01T10:32:05.822Z</time></trkpt><trkpt lat="38.6719598" lon="20.5625656"><ele>237.0</ele><time>2026-05-01T10:32:06.821Z</time></trkpt><trkpt lat="38.6720443" lon="20.5625285"><ele>237.0</ele><time>2026-05-01T10:32:07.821Z</time></trkpt><trkpt lat="38.6721624" lon="20.5625545"><ele>237.0</ele><time>2026-05-01T10:32:09.822Z</time></trkpt><trkpt lat="38.67226" lon="20.5626245"><ele>237.0</ele><time>2026-05-01T10:32:11.821Z</time></trkpt><trkpt lat="38.6722414" lon="20.5627376"><ele>237.0</ele><time>2026-05-01T10:32:13.821Z</time></trkpt><trkpt lat="38.672143" lon="20.5628217"><ele>237.0</ele><time>2026-05-01T10:32:15.821Z</time></trkpt><trkpt lat="38.6720737" lon="20.5628365"><ele>237.0</ele><time>2026-05-01T10:32:16.821Z</time></trkpt><trkpt lat="38.672001" lon="20.5628461"><ele>237.0</ele><time>2026-05-01T10:32:17.822Z</time></trkpt><trkpt lat="38.6718878" lon="20.5628479"><ele>243.0</ele><time>2026-05-01T10:32:18.822Z</time></trkpt><trkpt lat="38.6718168" lon="20.5628785"><ele>249.0</ele><time>2026-05-01T10:32:19.821Z</time></trkpt><trkpt lat="38.6717382" lon="20.5629219"><ele>255.0</ele><time>2026-05-01T10:32:20.822Z</time></trkpt><trkpt lat="38.6716744" lon="20.5629646"><ele>261.0</ele><time>2026-05-01T10:32:21.822Z</time></trkpt><trkpt lat="38.6716042" lon="20.5630006"><ele>267.0</ele><time>2026-05-01T10:32:22.822Z</time></trkpt><trkpt lat="38.6715229" lon="20.5630325"><ele>273.0</ele><time>2026-05-01T10:32:23.821Z</time></trkpt><trkpt lat="38.6714403" lon="20.5630505"><ele>273.0</ele><time>2026-05-01T10:32:24.821Z</time></trkpt><trkpt lat="38.6713666" lon="20.5630689"><ele>273.0</ele><time>2026-05-01T10:32:25.822Z</time></trkpt><trkpt lat="38.6712956" lon="20.5630901"><ele>273.0</ele><time>2026-05-01T10:32:26.822Z</time></trkpt><trkpt lat="38.6712276" lon="20.5631289"><ele>273.0</ele><time>2026-05-01T10:32:27.821Z</time></trkpt><trkpt lat="38.6711511" lon="20.5631723"><ele>273.0</ele><time>2026-05-01T10:32:28.821Z</time></trkpt><trkpt lat="38.6710841" lon="20.5632299"><ele>273.0</ele><time>2026-05-01T10:32:29.821Z</time></trkpt><trkpt lat="38.6710179" lon="20.5632785"><ele>275.1666666666667</ele><time>2026-05-01T10:32:30.822Z</time></trkpt><trkpt lat="38.6709395" lon="20.5632931"><ele>277.3333333333333</ele><time>2026-05-01T10:32:31.821Z</time></trkpt><trkpt lat="38.670852" lon="20.5632607"><ele>279.5</ele><time>2026-05-01T10:32:32.821Z</time></trkpt><trkpt lat="38.6707665" lon="20.5632364"><ele>281.66666666666663</ele><time>2026-05-01T10:32:33.821Z</time></trkpt><trkpt lat="38.6706917" lon="20.5631675"><ele>283.8333333333333</ele><time>2026-05-01T10:32:34.822Z</time></trkpt><trkpt lat="38.6706116" lon="20.5631095"><ele>286.0</ele><time>2026-05-01T10:32:35.821Z</time></trkpt><trkpt lat="38.670532" lon="20.5630839"><ele>286.0</ele><time>2026-05-01T10:32:36.822Z</time></trkpt><trkpt lat="38.6704445" lon="20.5630797"><ele>286.0</ele><time>2026-05-01T10:32:37.822Z</time></trkpt><trkpt lat="38.6703499" lon="20.5631206"><ele>286.0</ele><time>2026-05-01T10:32:38.822Z</time></trkpt><trkpt lat="38.6702767" lon="20.5631734"><ele>286.0</ele><time>2026-05-01T10:32:39.82Z</time></trkpt><trkpt lat="38.6702127" lon="20.5632109"><ele>286.0</ele><time>2026-05-01T10:32:40.822Z</time></trkpt><trkpt lat="38.6701445" lon="20.5632467"><ele>286.0</ele><time>2026-05-01T10:32:41.822Z</time></trkpt><trkpt lat="38.6700705" lon="20.5632767"><ele>287.5</ele><time>2026-05-01T10:32:42.822Z</time></trkpt><trkpt lat="38.6700023" lon="20.5632963"><ele>289.0</ele><time>2026-05-01T10:32:43.822Z</time></trkpt><trkpt lat="38.6699226" lon="20.5632773"><ele>290.5</ele><time>2026-05-01T10:32:44.821Z</time></trkpt><trkpt lat="38.6698599" lon="20.5632596"><ele>292.0</ele><time>2026-05-01T10:32:45.822Z</time></trkpt><trkpt lat="38.669779" lon="20.5632083"><ele>293.5</ele><time>2026-05-01T10:32:46.822Z</time></trkpt><trkpt lat="38.6697046" lon="20.5631789"><ele>295.0</ele><time>2026-05-01T10:32:47.821Z</time></trkpt><trkpt lat="38.669631" lon="20.5631599"><ele>295.0</ele><time>2026-05-01T10:32:48.821Z</time></trkpt><trkpt lat="38.6695504" lon="20.5631673"><ele>295.0</ele><time>2026-05-01T10:32:49.822Z</time></trkpt><trkpt lat="38.6694727" lon="20.5631957"><ele>295.0</ele><time>2026-05-01T10:32:50.821Z</time></trkpt><trkpt lat="38.6694005" lon="20.5632419"><ele>295.0</ele><time>2026-05-01T10:32:51.821Z</time></trkpt><trkpt lat="38.6693294" lon="20.563305"><ele>295.0</ele><time>2026-05-01T10:32:52.822Z</time></trkpt><trkpt lat="38.6692614" lon="20.5633823"><ele>295.0</ele><time>2026-05-01T10:32:53.821Z</time></trkpt><trkpt lat="38.6692108" lon="20.5634479"><ele>292.3333333333333</ele><time>2026-05-01T10:32:54.821Z</time></trkpt><trkpt lat="38.6691504" lon="20.5635081"><ele>289.66666666666663</ele><time>2026-05-01T10:32:55.822Z</time></trkpt><trkpt lat="38.6690859" lon="20.563544"><ele>287.0</ele><time>2026-05-01T10:32:56.821Z</time></trkpt><trkpt lat="38.66901" lon="20.5635806"><ele>284.3333333333333</ele><time>2026-05-01T10:32:57.821Z</time></trkpt><trkpt lat="38.668921" lon="20.5635854"><ele>281.6666666666667</ele><time>2026-05-01T10:32:58.821Z</time></trkpt><trkpt lat="38.6688369" lon="20.5636022"><ele>279.0</ele><time>2026-05-01T10:32:59.822Z</time></trkpt><trkpt lat="38.6687604" lon="20.5636307"><ele>278.99999999999994</ele><time>2026-05-01T10:33:00.822Z</time></trkpt><trkpt lat="38.6686862" lon="20.563672"><ele>279.0</ele><time>2026-05-01T10:33:01.821Z</time></trkpt><trkpt lat="38.6686215" lon="20.5637081"><ele>279.0</ele><time>2026-05-01T10:33:02.822Z</time></trkpt><trkpt lat="38.6685523" lon="20.5637412"><ele>279.0</ele><time>2026-05-01T10:33:03.822Z</time></trkpt><trkpt lat="38.6684847" lon="20.5637758"><ele>279.0</ele><time>2026-05-01T10:33:04.821Z</time></trkpt><trkpt lat="38.6684224" lon="20.5638014"><ele>278.99999999999994</ele><time>2026-05-01T10:33:05.822Z</time></trkpt><trkpt lat="38.6683757" lon="20.5638593"><ele>279.0</ele><time>2026-05-01T10:33:06.821Z</time></trkpt><trkpt lat="38.6683508" lon="20.5639348"><ele>279.5</ele><time>2026-05-01T10:33:07.821Z</time></trkpt><trkpt lat="38.6683509" lon="20.5640234"><ele>280.0</ele><time>2026-05-01T10:33:08.822Z</time></trkpt><trkpt lat="38.6683766" lon="20.5641067"><ele>280.5</ele><time>2026-05-01T10:33:09.821Z</time></trkpt><trkpt lat="38.6684163" lon="20.5641871"><ele>281.0</ele><time>2026-05-01T10:33:10.821Z</time></trkpt><trkpt lat="38.6684828" lon="20.564289"><ele>281.5</ele><time>2026-05-01T10:33:11.821Z</time></trkpt><trkpt lat="38.6685175" lon="20.5643816"><ele>282.0</ele><time>2026-05-01T10:33:12.821Z</time></trkpt><trkpt lat="38.6685351" lon="20.5644786"><ele>281.0</ele><time>2026-05-01T10:33:13.821Z</time></trkpt><trkpt lat="38.6685297" lon="20.5645713"><ele>280.0</ele><time>2026-05-01T10:33:14.82Z</time></trkpt><trkpt lat="38.668525" lon="20.5646612"><ele>279.0</ele><time>2026-05-01T10:33:15.822Z</time></trkpt><trkpt lat="38.6684808" lon="20.5647337"><ele>278.0</ele><time>2026-05-01T10:33:16.822Z</time></trkpt><trkpt lat="38.6684411" lon="20.5648109"><ele>277.0</ele><time>2026-05-01T10:33:17.822Z</time></trkpt><trkpt lat="38.668412" lon="20.5648925"><ele>276.0</ele><time>2026-05-01T10:33:18.821Z</time></trkpt><trkpt lat="38.668387" lon="20.5649778"><ele>275.0</ele><time>2026-05-01T10:33:19.821Z</time></trkpt><trkpt lat="38.6683731" lon="20.5650794"><ele>275.0</ele><time>2026-05-01T10:33:20.822Z</time></trkpt><trkpt lat="38.6683878" lon="20.5651796"><ele>275.0</ele><time>2026-05-01T10:33:21.821Z</time></trkpt><trkpt lat="38.668396" lon="20.5652766"><ele>275.0</ele><time>2026-05-01T10:33:22.822Z</time></trkpt><trkpt lat="38.6684264" lon="20.5653685"><ele>275.0</ele><time>2026-05-01T10:33:23.822Z</time></trkpt><trkpt lat="38.6684623" lon="20.5654568"><ele>275.0</ele><time>2026-05-01T10:33:24.822Z</time></trkpt><trkpt lat="38.6684926" lon="20.5655384"><ele>275.0</ele><time>2026-05-01T10:33:25.822Z</time></trkpt><trkpt lat="38.6685195" lon="20.5656295"><ele>274.83333333333337</ele><time>2026-05-01T10:33:26.822Z</time></trkpt><trkpt lat="38.6685408" lon="20.5657365"><ele>274.6666666666667</ele><time>2026-05-01T10:33:27.822Z</time></trkpt><trkpt lat="38.668549" lon="20.5658516"><ele>274.5</ele><time>2026-05-01T10:33:28.821Z</time></trkpt><trkpt lat="38.6685512" lon="20.5659736"><ele>274.3333333333333</ele><time>2026-05-01T10:33:29.822Z</time></trkpt><trkpt lat="38.66855" lon="20.5660861"><ele>274.16666666666663</ele><time>2026-05-01T10:33:30.822Z</time></trkpt><trkpt lat="38.6685544" lon="20.5661851"><ele>274.0</ele><time>2026-05-01T10:33:31.822Z</time></trkpt><trkpt lat="38.6685593" lon="20.5662836"><ele>274.0</ele><time>2026-05-01T10:33:32.822Z</time></trkpt><trkpt lat="38.6685411" lon="20.5663902"><ele>274.0</ele><time>2026-05-01T10:33:33.822Z</time></trkpt><trkpt lat="38.6685161" lon="20.5664868"><ele>274.0</ele><time>2026-05-01T10:33:34.822Z</time></trkpt><trkpt lat="38.668485" lon="20.5665713"><ele>274.0</ele><time>2026-05-01T10:33:35.822Z</time></trkpt><trkpt lat="38.6684432" lon="20.566649"><ele>274.0</ele><time>2026-05-01T10:33:36.822Z</time></trkpt><trkpt lat="38.6683928" lon="20.5667029"><ele>274.0</ele><time>2026-05-01T10:33:37.821Z</time></trkpt><trkpt lat="38.6683227" lon="20.5667524"><ele>274.0</ele><time>2026-05-01T10:33:38.822Z</time></trkpt><trkpt lat="38.6682436" lon="20.5667793"><ele>274.0</ele><time>2026-05-01T10:33:39.822Z</time></trkpt><trkpt lat="38.6681663" lon="20.566836"><ele>274.0</ele><time>2026-05-01T10:33:40.821Z</time></trkpt><trkpt lat="38.6680933" lon="20.5668933"><ele>274.0</ele><time>2026-05-01T10:33:41.822Z</time></trkpt><trkpt lat="38.668018" lon="20.5669605"><ele>274.0</ele><time>2026-05-01T10:33:42.821Z</time></trkpt><trkpt lat="38.6679507" lon="20.567031"><ele>274.0</ele><time>2026-05-01T10:33:43.821Z</time></trkpt><trkpt lat="38.6678918" lon="20.5670942"><ele>275.14285714285717</ele><time>2026-05-01T10:33:44.821Z</time></trkpt><trkpt lat="38.6678305" lon="20.5671523"><ele>276.2857142857143</ele><time>2026-05-01T10:33:45.821Z</time></trkpt><trkpt lat="38.6677675" lon="20.5671968"><ele>277.42857142857144</ele><time>2026-05-01T10:33:46.822Z</time></trkpt><trkpt lat="38.6677054" lon="20.5672496"><ele>278.57142857142856</ele><time>2026-05-01T10:33:47.821Z</time></trkpt><trkpt lat="38.6676507" lon="20.5673137"><ele>279.7142857142857</ele><time>2026-05-01T10:33:48.821Z</time></trkpt><trkpt lat="38.6676028" lon="20.5673795"><ele>280.8571428571429</ele><time>2026-05-01T10:33:49.821Z</time></trkpt><trkpt lat="38.6675573" lon="20.5674397"><ele>282.0</ele><time>2026-05-01T10:33:50.821Z</time></trkpt><trkpt lat="38.6675072" lon="20.5674984"><ele>282.2857142857143</ele><time>2026-05-01T10:33:51.821Z</time></trkpt><trkpt lat="38.6674551" lon="20.567544"><ele>282.57142857142856</ele><time>2026-05-01T10:33:52.821Z</time></trkpt><trkpt lat="38.6673982" lon="20.5675938"><ele>282.85714285714283</ele><time>2026-05-01T10:33:53.821Z</time></trkpt><trkpt lat="38.667329" lon="20.5675796"><ele>283.1428571428571</ele><time>2026-05-01T10:33:54.821Z</time></trkpt><trkpt lat="38.6672632" lon="20.5675339"><ele>283.4285714285714</ele><time>2026-05-01T10:33:55.821Z</time></trkpt><trkpt lat="38.6671948" lon="20.567495"><ele>283.7142857142857</ele><time>2026-05-01T10:33:56.822Z</time></trkpt><trkpt lat="38.6671308" lon="20.5674435"><ele>284.0</ele><time>2026-05-01T10:33:57.822Z</time></trkpt><trkpt lat="38.6670252" lon="20.5673782"><ele>284.0</ele><time>2026-05-01T10:33:59.821Z</time></trkpt><trkpt lat="38.6669632" lon="20.5673531"><ele>284.0</ele><time>2026-05-01T10:34:00.822Z</time></trkpt><trkpt lat="38.666899" lon="20.5673259"><ele>284.0</ele><time>2026-05-01T10:34:01.821Z</time></trkpt><trkpt lat="38.666837" lon="20.5673066"><ele>284.0</ele><time>2026-05-01T10:34:02.821Z</time></trkpt><trkpt lat="38.6667354" lon="20.5672639"><ele>284.0</ele><time>2026-05-01T10:34:04.822Z</time></trkpt><trkpt lat="38.6666332" lon="20.567233"><ele>284.0</ele><time>2026-05-01T10:34:06.822Z</time></trkpt><trkpt lat="38.6665215" lon="20.5672159"><ele>284.4</ele><time>2026-05-01T10:34:08.822Z</time></trkpt><trkpt lat="38.666392" lon="20.567195"><ele>284.79999999999995</ele><time>2026-05-01T10:34:10.821Z</time></trkpt><trkpt lat="38.6662686" lon="20.5671699"><ele>285.20000000000005</ele><time>2026-05-01T10:34:12.822Z</time></trkpt><trkpt lat="38.6661445" lon="20.5671363"><ele>285.6</ele><time>2026-05-01T10:34:14.822Z</time></trkpt><trkpt lat="38.6660812" lon="20.5671162"><ele>286.0</ele><time>2026-05-01T10:34:15.821Z</time></trkpt><trkpt lat="38.6660088" lon="20.5670953"><ele>287.2</ele><time>2026-05-01T10:34:16.822Z</time></trkpt><trkpt lat="38.6659396" lon="20.5670716"><ele>288.40000000000003</ele><time>2026-05-01T10:34:17.821Z</time></trkpt><trkpt lat="38.6658058" lon="20.5670293"><ele>289.6</ele><time>2026-05-01T10:34:19.821Z</time></trkpt><trkpt lat="38.6657224" lon="20.5670124"><ele>290.8</ele><time>2026-05-01T10:34:20.822Z</time></trkpt><trkpt lat="38.6656344" lon="20.5670075"><ele>292.0</ele><time>2026-05-01T10:34:21.821Z</time></trkpt><trkpt lat="38.6655443" lon="20.5670121"><ele>292.0</ele><time>2026-05-01T10:34:22.821Z</time></trkpt><trkpt lat="38.6654371" lon="20.5670239"><ele>292.0</ele><time>2026-05-01T10:34:23.822Z</time></trkpt><trkpt lat="38.6653492" lon="20.5670333"><ele>292.0</ele><time>2026-05-01T10:34:24.822Z</time></trkpt><trkpt lat="38.665266" lon="20.5670193"><ele>292.0</ele><time>2026-05-01T10:34:25.822Z</time></trkpt><trkpt lat="38.6651825" lon="20.5670163"><ele>292.0</ele><time>2026-05-01T10:34:26.821Z</time></trkpt><trkpt lat="38.6650974" lon="20.5669973"><ele>290.57142857142856</ele><time>2026-05-01T10:34:27.821Z</time></trkpt><trkpt lat="38.6650183" lon="20.5669867"><ele>289.14285714285717</ele><time>2026-05-01T10:34:28.821Z</time></trkpt><trkpt lat="38.6649418" lon="20.5669622"><ele>287.7142857142857</ele><time>2026-05-01T10:34:29.822Z</time></trkpt><trkpt lat="38.6648782" lon="20.5669533"><ele>286.2857142857143</ele><time>2026-05-01T10:34:30.821Z</time></trkpt><trkpt lat="38.6648169" lon="20.5669233"><ele>284.85714285714283</ele><time>2026-05-01T10:34:31.822Z</time></trkpt><trkpt lat="38.6647489" lon="20.5668984"><ele>283.42857142857144</ele><time>2026-05-01T10:34:32.821Z</time></trkpt><trkpt lat="38.6646715" lon="20.566885"><ele>282.0</ele><time>2026-05-01T10:34:33.821Z</time></trkpt><trkpt lat="38.6645807" lon="20.5668896"><ele>282.0</ele><time>2026-05-01T10:34:34.821Z</time></trkpt><trkpt lat="38.6644925" lon="20.566905"><ele>282.0</ele><time>2026-05-01T10:34:35.821Z</time></trkpt><trkpt lat="38.6644066" lon="20.5669235"><ele>282.0</ele><time>2026-05-01T10:34:36.822Z</time></trkpt><trkpt lat="38.6643289" lon="20.5669397"><ele>282.0</ele><time>2026-05-01T10:34:37.821Z</time></trkpt><trkpt lat="38.664259" lon="20.5669688"><ele>282.0</ele><time>2026-05-01T10:34:38.822Z</time></trkpt><trkpt lat="38.6641897" lon="20.5670102"><ele>282.0</ele><time>2026-05-01T10:34:39.822Z</time></trkpt><trkpt lat="38.6641287" lon="20.5670521"><ele>283.5</ele><time>2026-05-01T10:34:40.822Z</time></trkpt><trkpt lat="38.6640135" lon="20.5671133"><ele>285.0</ele><time>2026-05-01T10:34:42.821Z</time></trkpt><trkpt lat="38.663949" lon="20.5671372"><ele>286.5</ele><time>2026-05-01T10:34:43.822Z</time></trkpt><trkpt lat="38.6638846" lon="20.5671228"><ele>288.0</ele><time>2026-05-01T10:34:44.822Z</time></trkpt><trkpt lat="38.6638214" lon="20.567079"><ele>289.5</ele><time>2026-05-01T10:34:45.821Z</time></trkpt><trkpt lat="38.6637472" lon="20.5670236"><ele>291.0</ele><time>2026-05-01T10:34:46.821Z</time></trkpt><trkpt lat="38.6636755" lon="20.5669961"><ele>292.0</ele><time>2026-05-01T10:34:47.822Z</time></trkpt><trkpt lat="38.6635908" lon="20.5669886"><ele>293.0</ele><time>2026-05-01T10:34:48.822Z</time></trkpt><trkpt lat="38.6635059" lon="20.5670087"><ele>294.0</ele><time>2026-05-01T10:34:49.821Z</time></trkpt><trkpt lat="38.6634184" lon="20.5670293"><ele>295.0</ele><time>2026-05-01T10:34:50.821Z</time></trkpt><trkpt lat="38.6633341" lon="20.567051"><ele>296.0</ele><time>2026-05-01T10:34:51.822Z</time></trkpt><trkpt lat="38.6632572" lon="20.5670661"><ele>297.0</ele><time>2026-05-01T10:34:52.822Z</time></trkpt><trkpt lat="38.6631717" lon="20.5670594"><ele>297.0</ele><time>2026-05-01T10:34:53.821Z</time></trkpt><trkpt lat="38.6630917" lon="20.5670424"><ele>297.0</ele><time>2026-05-01T10:34:54.821Z</time></trkpt><trkpt lat="38.6630159" lon="20.5670285"><ele>297.0</ele><time>2026-05-01T10:34:55.822Z</time></trkpt><trkpt lat="38.6629389" lon="20.5670156"><ele>297.0</ele><time>2026-05-01T10:34:56.822Z</time></trkpt><trkpt lat="38.6628403" lon="20.5670142"><ele>297.0</ele><time>2026-05-01T10:34:57.821Z</time></trkpt><trkpt lat="38.6627751" lon="20.5669936"><ele>297.0</ele><time>2026-05-01T10:34:58.821Z</time></trkpt><trkpt lat="38.6626561" lon="20.5669561"><ele>297.2857142857143</ele><time>2026-05-01T10:35:00.822Z</time></trkpt><trkpt lat="38.6625888" lon="20.5669412"><ele>297.5714285714286</ele><time>2026-05-01T10:35:01.822Z</time></trkpt><trkpt lat="38.6625102" lon="20.5669301"><ele>297.8571428571429</ele><time>2026-05-01T10:35:02.822Z</time></trkpt><trkpt lat="38.6624338" lon="20.5669215"><ele>298.14285714285717</ele><time>2026-05-01T10:35:03.822Z</time></trkpt><trkpt lat="38.6623596" lon="20.5669261"><ele>298.42857142857144</ele><time>2026-05-01T10:35:04.822Z</time></trkpt><trkpt lat="38.6622846" lon="20.5669348"><ele>298.7142857142857</ele><time>2026-05-01T10:35:05.821Z</time></trkpt><trkpt lat="38.6622136" lon="20.5669512"><ele>299.0</ele><time>2026-05-01T10:35:06.821Z</time></trkpt><trkpt lat="38.6621394" lon="20.566976"><ele>301.4</ele><time>2026-05-01T10:35:07.821Z</time></trkpt><trkpt lat="38.6620289" lon="20.5670345"><ele>303.79999999999995</ele><time>2026-05-01T10:35:09.822Z</time></trkpt><trkpt lat="38.6619772" lon="20.5671267"><ele>306.20000000000005</ele><time>2026-05-01T10:35:11.821Z</time></trkpt><trkpt lat="38.6619985" lon="20.5672583"><ele>308.6</ele><time>2026-05-01T10:35:13.822Z</time></trkpt><trkpt lat="38.6620612" lon="20.5673814"><ele>311.0</ele><time>2026-05-01T10:35:15.821Z</time></trkpt><trkpt lat="38.662106" lon="20.5674413"><ele>311.0</ele><time>2026-05-01T10:35:16.822Z</time></trkpt><trkpt lat="38.6621409" lon="20.5675093"><ele>311.0</ele><time>2026-05-01T10:35:17.821Z</time></trkpt><trkpt lat="38.6621709" lon="20.5675937"><ele>311.0</ele><time>2026-05-01T10:35:18.821Z</time></trkpt><trkpt lat="38.6621853" lon="20.5676858"><ele>311.0</ele><time>2026-05-01T10:35:19.822Z</time></trkpt><trkpt lat="38.6621933" lon="20.567776"><ele>311.0</ele><time>2026-05-01T10:35:20.821Z</time></trkpt><trkpt lat="38.6622073" lon="20.5678635"><ele>311.0</ele><time>2026-05-01T10:35:21.822Z</time></trkpt><trkpt lat="38.662229" lon="20.5680106"><ele>312.5</ele><time>2026-05-01T10:35:23.821Z</time></trkpt><trkpt lat="38.6622682" lon="20.5681464"><ele>314.0</ele><time>2026-05-01T10:35:25.821Z</time></trkpt><trkpt lat="38.6623151" lon="20.5682023"><ele>315.5</ele><time>2026-05-01T10:35:26.821Z</time></trkpt><trkpt lat="38.6623751" lon="20.5682318"><ele>317.0</ele><time>2026-05-01T10:35:27.822Z</time></trkpt><trkpt lat="38.6624475" lon="20.5682474"><ele>318.5</ele><time>2026-05-01T10:35:28.822Z</time></trkpt><trkpt lat="38.6625473" lon="20.5682283"><ele>320.0</ele><time>2026-05-01T10:35:29.821Z</time></trkpt><trkpt lat="38.6626352" lon="20.5682177"><ele>320.0</ele><time>2026-05-01T10:35:30.821Z</time></trkpt><trkpt lat="38.6627156" lon="20.5682269"><ele>320.0</ele><time>2026-05-01T10:35:31.822Z</time></trkpt><trkpt lat="38.6628136" lon="20.5683146"><ele>320.0</ele><time>2026-05-01T10:35:33.822Z</time></trkpt><trkpt lat="38.6628304" lon="20.5684008"><ele>320.0</ele><time>2026-05-01T10:35:34.821Z</time></trkpt><trkpt lat="38.6628254" lon="20.5685061"><ele>320.0</ele><time>2026-05-01T10:35:35.821Z</time></trkpt><trkpt lat="38.6628101" lon="20.5686103"><ele>320.0</ele><time>2026-05-01T10:35:36.821Z</time></trkpt><trkpt lat="38.6627685" lon="20.5686942"><ele>322.83333333333337</ele><time>2026-05-01T10:35:37.822Z</time></trkpt><trkpt lat="38.6627113" lon="20.5687633"><ele>325.6666666666667</ele><time>2026-05-01T10:35:38.821Z</time></trkpt><trkpt lat="38.6626313" lon="20.5688285"><ele>328.5</ele><time>2026-05-01T10:35:39.822Z</time></trkpt><trkpt lat="38.6625538" lon="20.5688941"><ele>331.3333333333333</ele><time>2026-05-01T10:35:40.822Z</time></trkpt><trkpt lat="38.6624716" lon="20.5689385"><ele>334.16666666666663</ele><time>2026-05-01T10:35:41.821Z</time></trkpt><trkpt lat="38.6623868" lon="20.5689838"><ele>337.0</ele><time>2026-05-01T10:35:42.821Z</time></trkpt><trkpt lat="38.6623061" lon="20.569018"><ele>337.0</ele><time>2026-05-01T10:35:43.821Z</time></trkpt><trkpt lat="38.6622275" lon="20.5690498"><ele>337.0</ele><time>2026-05-01T10:35:44.822Z</time></trkpt><trkpt lat="38.662155" lon="20.5690472"><ele>337.0</ele><time>2026-05-01T10:35:45.822Z</time></trkpt><trkpt lat="38.6620789" lon="20.5690147"><ele>337.0</ele><time>2026-05-01T10:35:46.822Z</time></trkpt><trkpt lat="38.6620025" lon="20.5690132"><ele>337.0</ele><time>2026-05-01T10:35:47.821Z</time></trkpt><trkpt lat="38.6619287" lon="20.5690178"><ele>337.0</ele><time>2026-05-01T10:35:48.822Z</time></trkpt><trkpt lat="38.6618781" lon="20.5690945"><ele>337.16666666666663</ele><time>2026-05-01T10:35:49.822Z</time></trkpt><trkpt lat="38.6618093" lon="20.5691798"><ele>337.3333333333333</ele><time>2026-05-01T10:35:51.821Z</time></trkpt><trkpt lat="38.6617528" lon="20.569229"><ele>337.5</ele><time>2026-05-01T10:35:53.821Z</time></trkpt><trkpt lat="38.6616672" lon="20.5691846"><ele>337.6666666666667</ele><time>2026-05-01T10:35:55.822Z</time></trkpt><trkpt lat="38.6616092" lon="20.5691259"><ele>337.83333333333337</ele><time>2026-05-01T10:35:56.822Z</time></trkpt><trkpt lat="38.6615369" lon="20.5690575"><ele>338.0</ele><time>2026-05-01T10:35:57.821Z</time></trkpt><trkpt lat="38.6614642" lon="20.5690011"><ele>338.0</ele><time>2026-05-01T10:35:58.822Z</time></trkpt><trkpt lat="38.6613811" lon="20.5689411"><ele>338.0</ele><time>2026-05-01T10:35:59.821Z</time></trkpt><trkpt lat="38.6612861" lon="20.5688988"><ele>338.0</ele><time>2026-05-01T10:36:00.821Z</time></trkpt><trkpt lat="38.6611893" lon="20.5688572"><ele>338.0</ele><time>2026-05-01T10:36:01.822Z</time></trkpt><trkpt lat="38.661086" lon="20.5688186"><ele>338.0</ele><time>2026-05-01T10:36:02.822Z</time></trkpt><trkpt lat="38.6609806" lon="20.568776"><ele>339.75</ele><time>2026-05-01T10:36:03.822Z</time></trkpt><trkpt lat="38.6608789" lon="20.5687147"><ele>341.5</ele><time>2026-05-01T10:36:04.822Z</time></trkpt><trkpt lat="38.6607697" lon="20.5686575"><ele>343.25</ele><time>2026-05-01T10:36:05.822Z</time></trkpt><trkpt lat="38.6606845" lon="20.568575"><ele>345.0</ele><time>2026-05-01T10:36:06.822Z</time></trkpt><trkpt lat="38.6605975" lon="20.5684809"><ele>342.8</ele><time>2026-05-01T10:36:07.822Z</time></trkpt><trkpt lat="38.660509" lon="20.5683938"><ele>340.6</ele><time>2026-05-01T10:36:08.822Z</time></trkpt><trkpt lat="38.6604209" lon="20.5683218"><ele>338.4</ele><time>2026-05-01T10:36:09.822Z</time></trkpt><trkpt lat="38.6603293" lon="20.568247"><ele>336.2</ele><time>2026-05-01T10:36:10.822Z</time></trkpt><trkpt lat="38.660237" lon="20.5681797"><ele>334.0</ele><time>2026-05-01T10:36:11.822Z</time></trkpt><trkpt lat="38.6601422" lon="20.5681311"><ele>334.0</ele><time>2026-05-01T10:36:12.822Z</time></trkpt><trkpt lat="38.660047" lon="20.5680746"><ele>334.0</ele><time>2026-05-01T10:36:13.821Z</time></trkpt><trkpt lat="38.65995" lon="20.5680295"><ele>334.0</ele><time>2026-05-01T10:36:14.822Z</time></trkpt><trkpt lat="38.6598558" lon="20.5679913"><ele>334.0</ele><time>2026-05-01T10:36:15.822Z</time></trkpt><trkpt lat="38.6597551" lon="20.5679398"><ele>334.0</ele><time>2026-05-01T10:36:16.822Z</time></trkpt><trkpt lat="38.6596483" lon="20.5679018"><ele>334.0</ele><time>2026-05-01T10:36:17.821Z</time></trkpt><trkpt lat="38.6595382" lon="20.5678622"><ele>334.0</ele><time>2026-05-01T10:36:18.822Z</time></trkpt><trkpt lat="38.6594215" lon="20.5678236"><ele>334.0</ele><time>2026-05-01T10:36:19.821Z</time></trkpt><trkpt lat="38.6593037" lon="20.5677817"><ele>334.0</ele><time>2026-05-01T10:36:20.822Z</time></trkpt><trkpt lat="38.6591889" lon="20.5677473"><ele>329.0</ele><time>2026-05-01T10:36:21.822Z</time></trkpt><trkpt lat="38.6590758" lon="20.5676931"><ele>324.0</ele><time>2026-05-01T10:36:22.822Z</time></trkpt><trkpt lat="38.6589723" lon="20.5676253"><ele>319.0</ele><time>2026-05-01T10:36:23.821Z</time></trkpt><trkpt lat="38.6588728" lon="20.5675408"><ele>314.0</ele><time>2026-05-01T10:36:24.822Z</time></trkpt><trkpt lat="38.6587762" lon="20.5674548"><ele>314.0</ele><time>2026-05-01T10:36:25.821Z</time></trkpt><trkpt lat="38.6586798" lon="20.5673758"><ele>314.0</ele><time>2026-05-01T10:36:26.822Z</time></trkpt><trkpt lat="38.6585748" lon="20.5673104"><ele>314.0</ele><time>2026-05-01T10:36:27.821Z</time></trkpt><trkpt lat="38.6584686" lon="20.5672507"><ele>314.0</ele><time>2026-05-01T10:36:28.822Z</time></trkpt><trkpt lat="38.6583624" lon="20.5671918"><ele>314.5</ele><time>2026-05-01T10:36:29.821Z</time></trkpt><trkpt lat="38.6582572" lon="20.56714"><ele>315.0</ele><time>2026-05-01T10:36:30.821Z</time></trkpt><trkpt lat="38.6581456" lon="20.5670843"><ele>315.5</ele><time>2026-05-01T10:36:31.822Z</time></trkpt><trkpt lat="38.6580326" lon="20.5670306"><ele>316.0</ele><time>2026-05-01T10:36:32.822Z</time></trkpt><trkpt lat="38.6579119" lon="20.5669706"><ele>311.75</ele><time>2026-05-01T10:36:33.822Z</time></trkpt><trkpt lat="38.6577891" lon="20.5669191"><ele>307.5</ele><time>2026-05-01T10:36:34.822Z</time></trkpt><trkpt lat="38.6576724" lon="20.5668707"><ele>303.25</ele><time>2026-05-01T10:36:35.821Z</time></trkpt><trkpt lat="38.6575557" lon="20.5668139"><ele>299.0</ele><time>2026-05-01T10:36:36.822Z</time></trkpt><trkpt lat="38.6574286" lon="20.5667632"><ele>299.0</ele><time>2026-05-01T10:36:37.821Z</time></trkpt><trkpt lat="38.6573052" lon="20.5667122"><ele>299.0</ele><time>2026-05-01T10:36:38.822Z</time></trkpt><trkpt lat="38.6572012" lon="20.5666535"><ele>299.0</ele><time>2026-05-01T10:36:39.822Z</time></trkpt><trkpt lat="38.6570857" lon="20.5666042"><ele>299.0</ele><time>2026-05-01T10:36:40.822Z</time></trkpt><trkpt lat="38.6569837" lon="20.5665403"><ele>300.75</ele><time>2026-05-01T10:36:41.821Z</time></trkpt><trkpt lat="38.656884" lon="20.5664599"><ele>302.5</ele><time>2026-05-01T10:36:42.821Z</time></trkpt><trkpt lat="38.6567915" lon="20.566372"><ele>304.25</ele><time>2026-05-01T10:36:43.822Z</time></trkpt><trkpt lat="38.6567024" lon="20.5662786"><ele>306.0</ele><time>2026-05-01T10:36:44.821Z</time></trkpt><trkpt lat="38.6566195" lon="20.5661874"><ele>302.0</ele><time>2026-05-01T10:36:45.821Z</time></trkpt><trkpt lat="38.6565307" lon="20.5661018"><ele>298.0</ele><time>2026-05-01T10:36:46.822Z</time></trkpt><trkpt lat="38.6564499" lon="20.5660254"><ele>294.0</ele><time>2026-05-01T10:36:47.821Z</time></trkpt><trkpt lat="38.6563618" lon="20.565959"><ele>290.0</ele><time>2026-05-01T10:36:48.822Z</time></trkpt><trkpt lat="38.6562708" lon="20.5659063"><ele>286.0</ele><time>2026-05-01T10:36:49.821Z</time></trkpt><trkpt lat="38.6561676" lon="20.5658595"><ele>287.40000000000003</ele><time>2026-05-01T10:36:50.821Z</time></trkpt><trkpt lat="38.6560625" lon="20.5658222"><ele>288.8</ele><time>2026-05-01T10:36:51.822Z</time></trkpt><trkpt lat="38.6559543" lon="20.5657781"><ele>290.20000000000005</ele><time>2026-05-01T10:36:52.822Z</time></trkpt><trkpt lat="38.6558507" lon="20.5657427"><ele>291.6</ele><time>2026-05-01T10:36:53.822Z</time></trkpt><trkpt lat="38.6557448" lon="20.5657047"><ele>293.0</ele><time>2026-05-01T10:36:54.822Z</time></trkpt><trkpt lat="38.6556381" lon="20.5656783"><ele>293.0</ele><time>2026-05-01T10:36:55.821Z</time></trkpt><trkpt lat="38.6555275" lon="20.565645"><ele>293.0</ele><time>2026-05-01T10:36:56.821Z</time></trkpt><trkpt lat="38.6554232" lon="20.5656047"><ele>293.0</ele><time>2026-05-01T10:36:57.821Z</time></trkpt><trkpt lat="38.6553173" lon="20.5655507"><ele>293.0</ele><time>2026-05-01T10:36:58.821Z</time></trkpt><trkpt lat="38.6552141" lon="20.5655171"><ele>293.0</ele><time>2026-05-01T10:36:59.822Z</time></trkpt><trkpt lat="38.6551138" lon="20.5654848"><ele>292.8</ele><time>2026-05-01T10:37:00.821Z</time></trkpt><trkpt lat="38.6550059" lon="20.5654572"><ele>292.6</ele><time>2026-05-01T10:37:01.821Z</time></trkpt><trkpt lat="38.6549149" lon="20.5654302"><ele>292.4</ele><time>2026-05-01T10:37:02.821Z</time></trkpt><trkpt lat="38.6548199" lon="20.5653986"><ele>292.2</ele><time>2026-05-01T10:37:03.821Z</time></trkpt><trkpt lat="38.6547196" lon="20.5653678"><ele>292.0</ele><time>2026-05-01T10:37:04.821Z</time></trkpt><trkpt lat="38.6546262" lon="20.5653414"><ele>290.4</ele><time>2026-05-01T10:37:05.821Z</time></trkpt><trkpt lat="38.6545257" lon="20.565313"><ele>288.79999999999995</ele><time>2026-05-01T10:37:06.822Z</time></trkpt><trkpt lat="38.6544216" lon="20.5652933"><ele>287.2</ele><time>2026-05-01T10:37:07.822Z</time></trkpt><trkpt lat="38.6543232" lon="20.5652905"><ele>285.59999999999997</ele><time>2026-05-01T10:37:08.821Z</time></trkpt><trkpt lat="38.6542394" lon="20.565289"><ele>284.0</ele><time>2026-05-01T10:37:09.822Z</time></trkpt><trkpt lat="38.6541597" lon="20.5652899"><ele>284.0</ele><time>2026-05-01T10:37:10.821Z</time></trkpt><trkpt lat="38.6540803" lon="20.5652931"><ele>284.0</ele><time>2026-05-01T10:37:11.822Z</time></trkpt><trkpt lat="38.6540047" lon="20.565299"><ele>284.0</ele><time>2026-05-01T10:37:12.822Z</time></trkpt><trkpt lat="38.6539197" lon="20.5653011"><ele>284.0</ele><time>2026-05-01T10:37:13.822Z</time></trkpt><trkpt lat="38.6538319" lon="20.5653088"><ele>284.0</ele><time>2026-05-01T10:37:14.821Z</time></trkpt><trkpt lat="38.6537264" lon="20.5653118"><ele>284.0</ele><time>2026-05-01T10:37:15.821Z</time></trkpt><trkpt lat="38.6536268" lon="20.5653199"><ele>283.2</ele><time>2026-05-01T10:37:16.821Z</time></trkpt><trkpt lat="38.6535148" lon="20.5653344"><ele>282.4</ele><time>2026-05-01T10:37:17.821Z</time></trkpt><trkpt lat="38.6534222" lon="20.5653416"><ele>281.6</ele><time>2026-05-01T10:37:18.821Z</time></trkpt><trkpt lat="38.6533301" lon="20.5653052"><ele>280.8</ele><time>2026-05-01T10:37:19.821Z</time></trkpt><trkpt lat="38.6532254" lon="20.5652985"><ele>280.0</ele><time>2026-05-01T10:37:20.822Z</time></trkpt><trkpt lat="38.6531147" lon="20.5652928"><ele>280.0</ele><time>2026-05-01T10:37:21.822Z</time></trkpt><trkpt lat="38.653018" lon="20.5652866"><ele>280.0</ele><time>2026-05-01T10:37:22.821Z</time></trkpt><trkpt lat="38.6528979" lon="20.5652835"><ele>280.0</ele><time>2026-05-01T10:37:23.822Z</time></trkpt><trkpt lat="38.6527798" lon="20.5652906"><ele>280.0</ele><time>2026-05-01T10:37:24.822Z</time></trkpt><trkpt lat="38.652656" lon="20.5653075"><ele>280.5</ele><time>2026-05-01T10:37:25.821Z</time></trkpt><trkpt lat="38.652536" lon="20.565334"><ele>281.0</ele><time>2026-05-01T10:37:26.822Z</time></trkpt><trkpt lat="38.6524252" lon="20.5653697"><ele>281.5</ele><time>2026-05-01T10:37:27.822Z</time></trkpt><trkpt lat="38.6523042" lon="20.5654077"><ele>282.0</ele><time>2026-05-01T10:37:28.821Z</time></trkpt><trkpt lat="38.6521868" lon="20.5654337"><ele>285.75</ele><time>2026-05-01T10:37:29.822Z</time></trkpt><trkpt lat="38.6520755" lon="20.5654677"><ele>289.5</ele><time>2026-05-01T10:37:30.821Z</time></trkpt><trkpt lat="38.651972" lon="20.5655016"><ele>293.25</ele><time>2026-05-01T10:37:31.821Z</time></trkpt><trkpt lat="38.6518493" lon="20.565559"><ele>297.0</ele><time>2026-05-01T10:37:32.821Z</time></trkpt><trkpt lat="38.651749" lon="20.5656087"><ele>297.0</ele><time>2026-05-01T10:37:33.822Z</time></trkpt><trkpt lat="38.6516528" lon="20.5656761"><ele>297.0</ele><time>2026-05-01T10:37:34.822Z</time></trkpt><trkpt lat="38.6515552" lon="20.5657661"><ele>297.0</ele><time>2026-05-01T10:37:35.821Z</time></trkpt><trkpt lat="38.6514794" lon="20.5658542"><ele>297.0</ele><time>2026-05-01T10:37:36.822Z</time></trkpt><trkpt lat="38.6514293" lon="20.5659525"><ele>297.0</ele><time>2026-05-01T10:37:37.822Z</time></trkpt><trkpt lat="38.6513905" lon="20.5660612"><ele>297.0</ele><time>2026-05-01T10:37:38.822Z</time></trkpt><trkpt lat="38.6513389" lon="20.566157"><ele>297.0</ele><time>2026-05-01T10:37:39.822Z</time></trkpt><trkpt lat="38.6512776" lon="20.5662234"><ele>297.0</ele><time>2026-05-01T10:37:40.822Z</time></trkpt><trkpt lat="38.6512118" lon="20.5662487"><ele>297.0</ele><time>2026-05-01T10:37:41.821Z</time></trkpt><trkpt lat="38.6511438" lon="20.5662282"><ele>297.0</ele><time>2026-05-01T10:37:42.822Z</time></trkpt><trkpt lat="38.6510702" lon="20.5661828"><ele>297.0</ele><time>2026-05-01T10:37:43.821Z</time></trkpt><trkpt lat="38.6510057" lon="20.5660869"><ele>295.0</ele><time>2026-05-01T10:37:44.821Z</time></trkpt><trkpt lat="38.6509132" lon="20.5660405"><ele>293.0</ele><time>2026-05-01T10:37:45.821Z</time></trkpt><trkpt lat="38.6508293" lon="20.5660322"><ele>291.0</ele><time>2026-05-01T10:37:46.821Z</time></trkpt><trkpt lat="38.6507346" lon="20.5660558"><ele>289.0</ele><time>2026-05-01T10:37:47.822Z</time></trkpt><trkpt lat="38.6506468" lon="20.5660874"><ele>287.0</ele><time>2026-05-01T10:37:48.821Z</time></trkpt><trkpt lat="38.6505578" lon="20.5661002"><ele>287.0</ele><time>2026-05-01T10:37:49.822Z</time></trkpt><trkpt lat="38.650462" lon="20.5660961"><ele>287.0</ele><time>2026-05-01T10:37:50.821Z</time></trkpt><trkpt lat="38.650358" lon="20.5660676"><ele>287.0</ele><time>2026-05-01T10:37:51.821Z</time></trkpt><trkpt lat="38.6502475" lon="20.5660046"><ele>287.0</ele><time>2026-05-01T10:37:52.821Z</time></trkpt><trkpt lat="38.6501581" lon="20.5659319"><ele>287.0</ele><time>2026-05-01T10:37:53.822Z</time></trkpt><trkpt lat="38.6500704" lon="20.5658518"><ele>289.5</ele><time>2026-05-01T10:37:54.822Z</time></trkpt><trkpt lat="38.650005" lon="20.5657466"><ele>292.0</ele><time>2026-05-01T10:37:55.822Z</time></trkpt><trkpt lat="38.6499182" lon="20.5656363"><ele>294.5</ele><time>2026-05-01T10:37:56.822Z</time></trkpt><trkpt lat="38.6498048" lon="20.5655253"><ele>297.0</ele><time>2026-05-01T10:37:57.821Z</time></trkpt><trkpt lat="38.6496645" lon="20.5654243"><ele>295.25</ele><time>2026-05-01T10:37:58.822Z</time></trkpt><trkpt lat="38.6495363" lon="20.5653347"><ele>293.5</ele><time>2026-05-01T10:37:59.821Z</time></trkpt><trkpt lat="38.649405" lon="20.5652542"><ele>291.75</ele><time>2026-05-01T10:38:00.821Z</time></trkpt><trkpt lat="38.649284" lon="20.5651888"><ele>290.0</ele><time>2026-05-01T10:38:01.821Z</time></trkpt><trkpt lat="38.6491561" lon="20.5651339"><ele>290.0</ele><time>2026-05-01T10:38:02.821Z</time></trkpt><trkpt lat="38.6490303" lon="20.5650858"><ele>290.0</ele><time>2026-05-01T10:38:03.821Z</time></trkpt><trkpt lat="38.6489026" lon="20.5650422"><ele>290.0</ele><time>2026-05-01T10:38:04.822Z</time></trkpt><trkpt lat="38.6487609" lon="20.5650118"><ele>290.0</ele><time>2026-05-01T10:38:05.822Z</time></trkpt><trkpt lat="38.648628" lon="20.5649801"><ele>291.0</ele><time>2026-05-01T10:38:06.822Z</time></trkpt><trkpt lat="38.6485057" lon="20.5649382"><ele>292.0</ele><time>2026-05-01T10:38:07.821Z</time></trkpt><trkpt lat="38.6483789" lon="20.5648958"><ele>293.0</ele><time>2026-05-01T10:38:08.822Z</time></trkpt><trkpt lat="38.6482558" lon="20.5648511"><ele>294.0</ele><time>2026-05-01T10:38:09.821Z</time></trkpt><trkpt lat="38.6481323" lon="20.5648094"><ele>294.0</ele><time>2026-05-01T10:38:10.821Z</time></trkpt><trkpt lat="38.6480096" lon="20.5647771"><ele>294.0</ele><time>2026-05-01T10:38:11.822Z</time></trkpt><trkpt lat="38.6478798" lon="20.5647571"><ele>294.0</ele><time>2026-05-01T10:38:12.821Z</time></trkpt><trkpt lat="38.6477646" lon="20.5647549"><ele>294.0</ele><time>2026-05-01T10:38:13.822Z</time></trkpt><trkpt lat="38.6476456" lon="20.5647608"><ele>293.4</ele><time>2026-05-01T10:38:14.821Z</time></trkpt><trkpt lat="38.6475385" lon="20.5647792"><ele>292.79999999999995</ele><time>2026-05-01T10:38:15.822Z</time></trkpt><trkpt lat="38.6474256" lon="20.5648077"><ele>292.20000000000005</ele><time>2026-05-01T10:38:16.822Z</time></trkpt><trkpt lat="38.6473187" lon="20.5648568"><ele>291.6</ele><time>2026-05-01T10:38:17.822Z</time></trkpt><trkpt lat="38.6472171" lon="20.5649171"><ele>291.0</ele><time>2026-05-01T10:38:18.821Z</time></trkpt><trkpt lat="38.6471327" lon="20.5649803"><ele>291.0</ele><time>2026-05-01T10:38:19.822Z</time></trkpt><trkpt lat="38.6470547" lon="20.5650606"><ele>291.0</ele><time>2026-05-01T10:38:20.821Z</time></trkpt><trkpt lat="38.6469864" lon="20.5651569"><ele>291.0</ele><time>2026-05-01T10:38:21.822Z</time></trkpt><trkpt lat="38.6469188" lon="20.5652711"><ele>291.0</ele><time>2026-05-01T10:38:22.821Z</time></trkpt><trkpt lat="38.6468631" lon="20.5654072"><ele>291.0</ele><time>2026-05-01T10:38:23.822Z</time></trkpt><trkpt lat="38.6468137" lon="20.5655325"><ele>290.8</ele><time>2026-05-01T10:38:24.822Z</time></trkpt><trkpt lat="38.6467759" lon="20.5656752"><ele>290.6</ele><time>2026-05-01T10:38:25.821Z</time></trkpt><trkpt lat="38.6467484" lon="20.5658291"><ele>290.4</ele><time>2026-05-01T10:38:26.821Z</time></trkpt><trkpt lat="38.646753" lon="20.5659648"><ele>290.2</ele><time>2026-05-01T10:38:27.821Z</time></trkpt><trkpt lat="38.6467531" lon="20.566087"><ele>290.0</ele><time>2026-05-01T10:38:28.821Z</time></trkpt><trkpt lat="38.6467264" lon="20.5661826"><ele>290.0</ele><time>2026-05-01T10:38:29.821Z</time></trkpt><trkpt lat="38.6466874" lon="20.5662552"><ele>290.0</ele><time>2026-05-01T10:38:30.822Z</time></trkpt><trkpt lat="38.6466196" lon="20.5662917"><ele>290.0</ele><time>2026-05-01T10:38:31.822Z</time></trkpt><trkpt lat="38.6465351" lon="20.5662731"><ele>290.0</ele><time>2026-05-01T10:38:32.821Z</time></trkpt><trkpt lat="38.6464263" lon="20.566229"><ele>290.0</ele><time>2026-05-01T10:38:33.821Z</time></trkpt><trkpt lat="38.646308" lon="20.5661933"><ele>290.0</ele><time>2026-05-01T10:38:34.822Z</time></trkpt><trkpt lat="38.6461762" lon="20.5661336"><ele>290.0</ele><time>2026-05-01T10:38:35.821Z</time></trkpt><trkpt lat="38.6460434" lon="20.566087"><ele>290.0</ele><time>2026-05-01T10:38:36.822Z</time></trkpt><trkpt lat="38.6459101" lon="20.566038"><ele>290.0</ele><time>2026-05-01T10:38:37.821Z</time></trkpt><trkpt lat="38.6457712" lon="20.5660114"><ele>289.75</ele><time>2026-05-01T10:38:38.821Z</time></trkpt><trkpt lat="38.6456314" lon="20.5659813"><ele>289.5</ele><time>2026-05-01T10:38:39.822Z</time></trkpt><trkpt lat="38.645491" lon="20.565947"><ele>289.25</ele><time>2026-05-01T10:38:40.821Z</time></trkpt><trkpt lat="38.6453652" lon="20.5659124"><ele>289.0</ele><time>2026-05-01T10:38:41.822Z</time></trkpt><trkpt lat="38.6452498" lon="20.5658648"><ele>291.0</ele><time>2026-05-01T10:38:42.821Z</time></trkpt><trkpt lat="38.6451397" lon="20.5658314"><ele>293.0</ele><time>2026-05-01T10:38:43.822Z</time></trkpt><trkpt lat="38.6450195" lon="20.5658113"><ele>295.0</ele><time>2026-05-01T10:38:44.822Z</time></trkpt><trkpt lat="38.644901" lon="20.565818"><ele>297.0</ele><time>2026-05-01T10:38:45.822Z</time></trkpt><trkpt lat="38.6447793" lon="20.5658429"><ele>297.0</ele><time>2026-05-01T10:38:46.822Z</time></trkpt><trkpt lat="38.6446514" lon="20.5658929"><ele>297.0</ele><time>2026-05-01T10:38:47.822Z</time></trkpt><trkpt lat="38.6445275" lon="20.5659593"><ele>297.0</ele><time>2026-05-01T10:38:48.821Z</time></trkpt><trkpt lat="38.6444179" lon="20.5660405"><ele>297.0</ele><time>2026-05-01T10:38:49.821Z</time></trkpt><trkpt lat="38.6443189" lon="20.5661291"><ele>300.8</ele><time>2026-05-01T10:38:50.822Z</time></trkpt><trkpt lat="38.6442351" lon="20.5662428"><ele>304.6</ele><time>2026-05-01T10:38:51.821Z</time></trkpt><trkpt lat="38.6441768" lon="20.5663537"><ele>308.40000000000003</ele><time>2026-05-01T10:38:52.822Z</time></trkpt><trkpt lat="38.6441274" lon="20.5664544"><ele>312.2</ele><time>2026-05-01T10:38:53.821Z</time></trkpt><trkpt lat="38.644067" lon="20.5665172"><ele>316.0</ele><time>2026-05-01T10:38:54.822Z</time></trkpt><trkpt lat="38.6439993" lon="20.566545"><ele>316.0</ele><time>2026-05-01T10:38:55.822Z</time></trkpt><trkpt lat="38.6439347" lon="20.566533"><ele>316.0</ele><time>2026-05-01T10:38:56.822Z</time></trkpt><trkpt lat="38.6438787" lon="20.5664585"><ele>316.0</ele><time>2026-05-01T10:38:57.822Z</time></trkpt><trkpt lat="38.6438422" lon="20.5663449"><ele>316.0</ele><time>2026-05-01T10:38:58.821Z</time></trkpt><trkpt lat="38.6438068" lon="20.5661942"><ele>316.0</ele><time>2026-05-01T10:38:59.821Z</time></trkpt><trkpt lat="38.6437836" lon="20.5660298"><ele>310.5</ele><time>2026-05-01T10:39:00.822Z</time></trkpt><trkpt lat="38.6437724" lon="20.565866"><ele>305.0</ele><time>2026-05-01T10:39:01.821Z</time></trkpt><trkpt lat="38.6437719" lon="20.5657041"><ele>299.5</ele><time>2026-05-01T10:39:02.821Z</time></trkpt><trkpt lat="38.6437612" lon="20.5655796"><ele>294.0</ele><time>2026-05-01T10:39:03.821Z</time></trkpt><trkpt lat="38.6437145" lon="20.5654632"><ele>295.5</ele><time>2026-05-01T10:39:04.822Z</time></trkpt><trkpt lat="38.6436357" lon="20.565353"><ele>297.0</ele><time>2026-05-01T10:39:05.822Z</time></trkpt><trkpt lat="38.6435336" lon="20.5652557"><ele>298.5</ele><time>2026-05-01T10:39:06.821Z</time></trkpt><trkpt lat="38.643425" lon="20.5651626"><ele>300.0</ele><time>2026-05-01T10:39:07.821Z</time></trkpt><trkpt lat="38.6433009" lon="20.5650645"><ele>300.0</ele><time>2026-05-01T10:39:08.821Z</time></trkpt><trkpt lat="38.64317" lon="20.5649783"><ele>300.0</ele><time>2026-05-01T10:39:09.821Z</time></trkpt><trkpt lat="38.6430293" lon="20.5648965"><ele>300.0</ele><time>2026-05-01T10:39:10.821Z</time></trkpt><trkpt lat="38.6428863" lon="20.5648358"><ele>302.5</ele><time>2026-05-01T10:39:11.822Z</time></trkpt><trkpt lat="38.6427618" lon="20.5647909"><ele>305.0</ele><time>2026-05-01T10:39:12.822Z</time></trkpt><trkpt lat="38.6426303" lon="20.5647657"><ele>307.5</ele><time>2026-05-01T10:39:13.822Z</time></trkpt><trkpt lat="38.6425015" lon="20.5647631"><ele>310.0</ele><time>2026-05-01T10:39:14.822Z</time></trkpt><trkpt lat="38.6423753" lon="20.5647782"><ele>310.0</ele><time>2026-05-01T10:39:15.821Z</time></trkpt><trkpt lat="38.6422545" lon="20.5648123"><ele>310.0</ele><time>2026-05-01T10:39:16.821Z</time></trkpt><trkpt lat="38.6421361" lon="20.5648661"><ele>310.0</ele><time>2026-05-01T10:39:17.821Z</time></trkpt><trkpt lat="38.6420337" lon="20.5649219"><ele>310.0</ele><time>2026-05-01T10:39:18.822Z</time></trkpt><trkpt lat="38.6419476" lon="20.5650012"><ele>311.0</ele><time>2026-05-01T10:39:19.822Z</time></trkpt><trkpt lat="38.6418793" lon="20.5650922"><ele>312.0</ele><time>2026-05-01T10:39:20.821Z</time></trkpt><trkpt lat="38.6418241" lon="20.565228"><ele>313.0</ele><time>2026-05-01T10:39:21.822Z</time></trkpt><trkpt lat="38.6417776" lon="20.5653675"><ele>314.0</ele><time>2026-05-01T10:39:22.822Z</time></trkpt><trkpt lat="38.64175" lon="20.5655229"><ele>314.0</ele><time>2026-05-01T10:39:23.821Z</time></trkpt><trkpt lat="38.6417297" lon="20.5656649"><ele>314.0</ele><time>2026-05-01T10:39:24.822Z</time></trkpt><trkpt lat="38.6417196" lon="20.5658033"><ele>314.0</ele><time>2026-05-01T10:39:25.821Z</time></trkpt><trkpt lat="38.6417281" lon="20.5659325"><ele>314.0</ele><time>2026-05-01T10:39:26.822Z</time></trkpt><trkpt lat="38.641741" lon="20.5660537"><ele>314.0</ele><time>2026-05-01T10:39:27.822Z</time></trkpt><trkpt lat="38.6417295" lon="20.5661558"><ele>314.0</ele><time>2026-05-01T10:39:28.822Z</time></trkpt><trkpt lat="38.6416974" lon="20.566237"><ele>314.0</ele><time>2026-05-01T10:39:29.821Z</time></trkpt><trkpt lat="38.6416325" lon="20.5662818"><ele>314.0</ele><time>2026-05-01T10:39:30.822Z</time></trkpt><trkpt lat="38.6415502" lon="20.5662792"><ele>314.0</ele><time>2026-05-01T10:39:31.822Z</time></trkpt><trkpt lat="38.6414424" lon="20.5662075"><ele>314.0</ele><time>2026-05-01T10:39:32.821Z</time></trkpt><trkpt lat="38.6413309" lon="20.566126"><ele>314.0</ele><time>2026-05-01T10:39:33.822Z</time></trkpt><trkpt lat="38.6412182" lon="20.5659957"><ele>314.0</ele><time>2026-05-01T10:39:34.821Z</time></trkpt><trkpt lat="38.641126" lon="20.5658354"><ele>314.0</ele><time>2026-05-01T10:39:35.821Z</time></trkpt><trkpt lat="38.6410381" lon="20.565677"><ele>316.6666666666667</ele><time>2026-05-01T10:39:36.822Z</time></trkpt><trkpt lat="38.6409254" lon="20.5655108"><ele>319.3333333333333</ele><time>2026-05-01T10:39:37.822Z</time></trkpt><trkpt lat="38.640793" lon="20.5653668"><ele>322.0</ele><time>2026-05-01T10:39:38.821Z</time></trkpt><trkpt lat="38.6406496" lon="20.5652275"><ele>323.66666666666663</ele><time>2026-05-01T10:39:39.82Z</time></trkpt><trkpt lat="38.6405126" lon="20.5650764"><ele>325.3333333333333</ele><time>2026-05-01T10:39:40.822Z</time></trkpt><trkpt lat="38.6403775" lon="20.5649187"><ele>327.0</ele><time>2026-05-01T10:39:41.82Z</time></trkpt><trkpt lat="38.6402584" lon="20.5647699"><ele>327.0</ele><time>2026-05-01T10:39:42.82Z</time></trkpt><trkpt lat="38.6401291" lon="20.5646429"><ele>327.0</ele><time>2026-05-01T10:39:43.822Z</time></trkpt><trkpt lat="38.6400052" lon="20.5645237"><ele>327.0</ele><time>2026-05-01T10:39:44.821Z</time></trkpt><trkpt lat="38.6398557" lon="20.5644349"><ele>324.5</ele><time>2026-05-01T10:39:45.821Z</time></trkpt><trkpt lat="38.6397083" lon="20.5643659"><ele>322.0</ele><time>2026-05-01T10:39:46.822Z</time></trkpt><trkpt lat="38.639565" lon="20.5643243"><ele>319.5</ele><time>2026-05-01T10:39:47.822Z</time></trkpt><trkpt lat="38.6394246" lon="20.5642983"><ele>317.0</ele><time>2026-05-01T10:39:48.822Z</time></trkpt><trkpt lat="38.6392936" lon="20.564288"><ele>317.0</ele><time>2026-05-01T10:39:49.821Z</time></trkpt><trkpt lat="38.6391507" lon="20.5642972"><ele>317.0</ele><time>2026-05-01T10:39:50.822Z</time></trkpt><trkpt lat="38.6390055" lon="20.5643228"><ele>317.0</ele><time>2026-05-01T10:39:51.821Z</time></trkpt><trkpt lat="38.6388354" lon="20.5643905"><ele>317.0</ele><time>2026-05-01T10:39:52.821Z</time></trkpt><trkpt lat="38.6386686" lon="20.5644739"><ele>317.0</ele><time>2026-05-01T10:39:53.821Z</time></trkpt><trkpt lat="38.6384975" lon="20.5645577"><ele>317.0</ele><time>2026-05-01T10:39:54.822Z</time></trkpt><trkpt lat="38.6383314" lon="20.5646214"><ele>321.33333333333337</ele><time>2026-05-01T10:39:55.821Z</time></trkpt><trkpt lat="38.6381559" lon="20.5646666"><ele>325.6666666666667</ele><time>2026-05-01T10:39:56.822Z</time></trkpt><trkpt lat="38.6380094" lon="20.5647175"><ele>330.0</ele><time>2026-05-01T10:39:57.822Z</time></trkpt><trkpt lat="38.6378831" lon="20.5647832"><ele>329.4</ele><time>2026-05-01T10:39:58.821Z</time></trkpt><trkpt lat="38.6377854" lon="20.5648596"><ele>328.8</ele><time>2026-05-01T10:39:59.82Z</time></trkpt><trkpt lat="38.6376954" lon="20.5649304"><ele>328.20000000000005</ele><time>2026-05-01T10:40:00.821Z</time></trkpt><trkpt lat="38.6376177" lon="20.5649792"><ele>327.6</ele><time>2026-05-01T10:40:01.822Z</time></trkpt><trkpt lat="38.6375334" lon="20.5649881"><ele>327.0</ele><time>2026-05-01T10:40:02.821Z</time></trkpt><trkpt lat="38.6374613" lon="20.5649558"><ele>327.0</ele><time>2026-05-01T10:40:03.822Z</time></trkpt><trkpt lat="38.6374203" lon="20.5648441"><ele>327.0</ele><time>2026-05-01T10:40:04.822Z</time></trkpt><trkpt lat="38.6373808" lon="20.5647138"><ele>327.0</ele><time>2026-05-01T10:40:05.821Z</time></trkpt><trkpt lat="38.637319" lon="20.5645946"><ele>327.0</ele><time>2026-05-01T10:40:06.821Z</time></trkpt><trkpt lat="38.6372271" lon="20.5644779"><ele>327.0</ele><time>2026-05-01T10:40:07.822Z</time></trkpt><trkpt lat="38.6371316" lon="20.5643695"><ele>323.25</ele><time>2026-05-01T10:40:08.821Z</time></trkpt><trkpt lat="38.6370304" lon="20.5642676"><ele>319.5</ele><time>2026-05-01T10:40:09.822Z</time></trkpt><trkpt lat="38.6369252" lon="20.5641808"><ele>315.75</ele><time>2026-05-01T10:40:10.822Z</time></trkpt><trkpt lat="38.6368214" lon="20.5641219"><ele>312.0</ele><time>2026-05-01T10:40:11.82Z</time></trkpt><trkpt lat="38.6367003" lon="20.5640855"><ele>312.0</ele><time>2026-05-01T10:40:12.82Z</time></trkpt><trkpt lat="38.6365742" lon="20.5640717"><ele>312.0</ele><time>2026-05-01T10:40:13.821Z</time></trkpt><trkpt lat="38.636414" lon="20.5640803"><ele>312.0</ele><time>2026-05-01T10:40:14.821Z</time></trkpt><trkpt lat="38.6362648" lon="20.5640957"><ele>312.0</ele><time>2026-05-01T10:40:15.822Z</time></trkpt><trkpt lat="38.6361165" lon="20.5640961"><ele>311.75</ele><time>2026-05-01T10:40:16.822Z</time></trkpt><trkpt lat="38.6359729" lon="20.5640958"><ele>311.5</ele><time>2026-05-01T10:40:17.821Z</time></trkpt><trkpt lat="38.6358242" lon="20.5640913"><ele>311.25</ele><time>2026-05-01T10:40:18.822Z</time></trkpt><trkpt lat="38.6356961" lon="20.5640507"><ele>311.0</ele><time>2026-05-01T10:40:19.821Z</time></trkpt><trkpt lat="38.6355674" lon="20.5639808"><ele>311.0</ele><time>2026-05-01T10:40:20.821Z</time></trkpt><trkpt lat="38.6354468" lon="20.5638793"><ele>311.0</ele><time>2026-05-01T10:40:21.821Z</time></trkpt><trkpt lat="38.6353224" lon="20.5637938"><ele>311.0</ele><time>2026-05-01T10:40:22.822Z</time></trkpt><trkpt lat="38.6351986" lon="20.5637232"><ele>311.0</ele><time>2026-05-01T10:40:23.821Z</time></trkpt><trkpt lat="38.635073" lon="20.5636678"><ele>305.5</ele><time>2026-05-01T10:40:24.821Z</time></trkpt><trkpt lat="38.6349414" lon="20.5636225"><ele>300.0</ele><time>2026-05-01T10:40:25.821Z</time></trkpt><trkpt lat="38.634815" lon="20.5636029"><ele>294.5</ele><time>2026-05-01T10:40:26.822Z</time></trkpt><trkpt lat="38.6346983" lon="20.5636014"><ele>289.0</ele><time>2026-05-01T10:40:27.822Z</time></trkpt><trkpt lat="38.6345892" lon="20.5636186"><ele>289.0</ele><time>2026-05-01T10:40:28.821Z</time></trkpt><trkpt lat="38.6344734" lon="20.5636609"><ele>289.0</ele><time>2026-05-01T10:40:29.821Z</time></trkpt><trkpt lat="38.6343686" lon="20.5637047"><ele>289.0</ele><time>2026-05-01T10:40:30.821Z</time></trkpt><trkpt lat="38.6342802" lon="20.5637725"><ele>289.0</ele><time>2026-05-01T10:40:31.822Z</time></trkpt><trkpt lat="38.6342203" lon="20.5638971"><ele>289.0</ele><time>2026-05-01T10:40:32.82Z</time></trkpt><trkpt lat="38.6341817" lon="20.5640306"><ele>290.25</ele><time>2026-05-01T10:40:33.821Z</time></trkpt><trkpt lat="38.6341549" lon="20.5641846"><ele>291.5</ele><time>2026-05-01T10:40:34.822Z</time></trkpt><trkpt lat="38.6341313" lon="20.5643478"><ele>292.75</ele><time>2026-05-01T10:40:35.822Z</time></trkpt><trkpt lat="38.6341051" lon="20.5645126"><ele>294.0</ele><time>2026-05-01T10:40:36.821Z</time></trkpt><trkpt lat="38.6340767" lon="20.5646639"><ele>295.8</ele><time>2026-05-01T10:40:37.821Z</time></trkpt><trkpt lat="38.6340548" lon="20.5648097"><ele>297.59999999999997</ele><time>2026-05-01T10:40:38.822Z</time></trkpt><trkpt lat="38.6340129" lon="20.5649414"><ele>299.4</ele><time>2026-05-01T10:40:39.821Z</time></trkpt><trkpt lat="38.6339564" lon="20.5650546"><ele>301.2</ele><time>2026-05-01T10:40:40.821Z</time></trkpt><trkpt lat="38.6338764" lon="20.5651534"><ele>303.0</ele><time>2026-05-01T10:40:41.821Z</time></trkpt><trkpt lat="38.6337958" lon="20.5652381"><ele>303.0</ele><time>2026-05-01T10:40:42.822Z</time></trkpt><trkpt lat="38.6337006" lon="20.5652915"><ele>303.0</ele><time>2026-05-01T10:40:43.821Z</time></trkpt><trkpt lat="38.6336163" lon="20.5653284"><ele>303.0</ele><time>2026-05-01T10:40:44.821Z</time></trkpt><trkpt lat="38.6335503" lon="20.5653801"><ele>303.0</ele><time>2026-05-01T10:40:45.822Z</time></trkpt><trkpt lat="38.6334991" lon="20.565462"><ele>303.0</ele><time>2026-05-01T10:40:46.822Z</time></trkpt><trkpt lat="38.6334684" lon="20.5655655"><ele>303.0</ele><time>2026-05-01T10:40:47.822Z</time></trkpt><trkpt lat="38.6334607" lon="20.5656798"><ele>303.1666666666667</ele><time>2026-05-01T10:40:48.822Z</time></trkpt><trkpt lat="38.6334582" lon="20.565799"><ele>303.3333333333333</ele><time>2026-05-01T10:40:49.822Z</time></trkpt><trkpt lat="38.6334473" lon="20.5659041"><ele>303.5</ele><time>2026-05-01T10:40:50.822Z</time></trkpt><trkpt lat="38.6334168" lon="20.5659837"><ele>303.66666666666663</ele><time>2026-05-01T10:40:51.822Z</time></trkpt><trkpt lat="38.6333043" lon="20.5660125"><ele>303.8333333333333</ele><time>2026-05-01T10:40:53.821Z</time></trkpt><trkpt lat="38.6332427" lon="20.5659777"><ele>304.0</ele><time>2026-05-01T10:40:54.821Z</time></trkpt><trkpt lat="38.633161" lon="20.5658811"><ele>304.0</ele><time>2026-05-01T10:40:55.821Z</time></trkpt><trkpt lat="38.6330644" lon="20.5657968"><ele>304.0</ele><time>2026-05-01T10:40:56.822Z</time></trkpt><trkpt lat="38.6329645" lon="20.5657351"><ele>304.0</ele><time>2026-05-01T10:40:57.822Z</time></trkpt><trkpt lat="38.6328593" lon="20.56568"><ele>304.0</ele><time>2026-05-01T10:40:58.821Z</time></trkpt><trkpt lat="38.6327511" lon="20.5656185"><ele>306.59999999999997</ele><time>2026-05-01T10:40:59.821Z</time></trkpt><trkpt lat="38.6326484" lon="20.5655655"><ele>309.2</ele><time>2026-05-01T10:41:00.821Z</time></trkpt><trkpt lat="38.6325555" lon="20.5655159"><ele>311.79999999999995</ele><time>2026-05-01T10:41:01.821Z</time></trkpt><trkpt lat="38.6324754" lon="20.5654671"><ele>314.4</ele><time>2026-05-01T10:41:02.821Z</time></trkpt><trkpt lat="38.6323926" lon="20.565425"><ele>317.0</ele><time>2026-05-01T10:41:03.821Z</time></trkpt><trkpt lat="38.6323039" lon="20.565382"><ele>314.6666666666667</ele><time>2026-05-01T10:41:04.822Z</time></trkpt><trkpt lat="38.6322195" lon="20.5653356"><ele>312.33333333333337</ele><time>2026-05-01T10:41:05.822Z</time></trkpt><trkpt lat="38.6321302" lon="20.5652959"><ele>310.0</ele><time>2026-05-01T10:41:06.822Z</time></trkpt><trkpt lat="38.632044" lon="20.5652562"><ele>307.6666666666667</ele><time>2026-05-01T10:41:07.822Z</time></trkpt><trkpt lat="38.6319599" lon="20.5652303"><ele>305.3333333333333</ele><time>2026-05-01T10:41:08.821Z</time></trkpt><trkpt lat="38.631879" lon="20.5652074"><ele>303.0</ele><time>2026-05-01T10:41:09.821Z</time></trkpt><trkpt lat="38.6317998" lon="20.5651827"><ele>303.0</ele><time>2026-05-01T10:41:10.821Z</time></trkpt><trkpt lat="38.6317163" lon="20.565182"><ele>303.0</ele><time>2026-05-01T10:41:11.821Z</time></trkpt><trkpt lat="38.6316278" lon="20.565197"><ele>303.0</ele><time>2026-05-01T10:41:12.821Z</time></trkpt><trkpt lat="38.6315275" lon="20.5652217"><ele>303.0</ele><time>2026-05-01T10:41:13.822Z</time></trkpt><trkpt lat="38.631413" lon="20.5652641"><ele>303.0</ele><time>2026-05-01T10:41:14.822Z</time></trkpt><trkpt lat="38.6312822" lon="20.5653285"><ele>309.0</ele><time>2026-05-01T10:41:15.821Z</time></trkpt><trkpt lat="38.6311623" lon="20.5653869"><ele>315.0</ele><time>2026-05-01T10:41:16.821Z</time></trkpt><trkpt lat="38.631049" lon="20.5654607"><ele>321.0</ele><time>2026-05-01T10:41:17.822Z</time></trkpt><trkpt lat="38.630947" lon="20.565524"><ele>327.0</ele><time>2026-05-01T10:41:18.822Z</time></trkpt><trkpt lat="38.6308569" lon="20.5655475"><ele>327.0</ele><time>2026-05-01T10:41:19.821Z</time></trkpt><trkpt lat="38.6307713" lon="20.5655422"><ele>327.0</ele><time>2026-05-01T10:41:20.822Z</time></trkpt><trkpt lat="38.6307074" lon="20.5654972"><ele>327.0</ele><time>2026-05-01T10:41:21.822Z</time></trkpt><trkpt lat="38.6306492" lon="20.5654158"><ele>327.0</ele><time>2026-05-01T10:41:22.822Z</time></trkpt><trkpt lat="38.6306089" lon="20.5653144"><ele>327.0</ele><time>2026-05-01T10:41:23.821Z</time></trkpt><trkpt lat="38.6305867" lon="20.5651617"><ele>326.8</ele><time>2026-05-01T10:41:24.821Z</time></trkpt><trkpt lat="38.6305232" lon="20.5650508"><ele>326.6</ele><time>2026-05-01T10:41:25.821Z</time></trkpt><trkpt lat="38.6304425" lon="20.5649678"><ele>326.40000000000003</ele><time>2026-05-01T10:41:26.821Z</time></trkpt><trkpt lat="38.6303364" lon="20.5649168"><ele>326.20000000000005</ele><time>2026-05-01T10:41:27.822Z</time></trkpt><trkpt lat="38.6302214" lon="20.5648861"><ele>326.0</ele><time>2026-05-01T10:41:28.822Z</time></trkpt><trkpt lat="38.6301201" lon="20.5648794"><ele>326.0</ele><time>2026-05-01T10:41:29.821Z</time></trkpt><trkpt lat="38.6300181" lon="20.5648707"><ele>326.0</ele><time>2026-05-01T10:41:30.821Z</time></trkpt><trkpt lat="38.629914" lon="20.5648464"><ele>326.0</ele><time>2026-05-01T10:41:31.821Z</time></trkpt><trkpt lat="38.6298508" lon="20.5647721"><ele>326.0</ele><time>2026-05-01T10:41:32.821Z</time></trkpt><trkpt lat="38.6297943" lon="20.564679"><ele>326.0</ele><time>2026-05-01T10:41:33.822Z</time></trkpt><trkpt lat="38.6297323" lon="20.5645676"><ele>324.25</ele><time>2026-05-01T10:41:34.822Z</time></trkpt><trkpt lat="38.6296515" lon="20.5644591"><ele>322.5</ele><time>2026-05-01T10:41:35.821Z</time></trkpt><trkpt lat="38.6295439" lon="20.5643815"><ele>320.75</ele><time>2026-05-01T10:41:36.822Z</time></trkpt><trkpt lat="38.6294249" lon="20.5643232"><ele>319.0</ele><time>2026-05-01T10:41:37.821Z</time></trkpt><trkpt lat="38.6292986" lon="20.5642669"><ele>319.0</ele><time>2026-05-01T10:41:38.821Z</time></trkpt><trkpt lat="38.6291776" lon="20.5642141"><ele>319.0</ele><time>2026-05-01T10:41:39.821Z</time></trkpt><trkpt lat="38.6290701" lon="20.5641533"><ele>319.0</ele><time>2026-05-01T10:41:40.821Z</time></trkpt><trkpt lat="38.62898" lon="20.5640843"><ele>319.0</ele><time>2026-05-01T10:41:41.822Z</time></trkpt><trkpt lat="38.62892" lon="20.5639834"><ele>319.0</ele><time>2026-05-01T10:41:42.82Z</time></trkpt><trkpt lat="38.628878" lon="20.5638616"><ele>319.0</ele><time>2026-05-01T10:41:43.821Z</time></trkpt><trkpt lat="38.6288812" lon="20.5637592"><ele>319.0</ele><time>2026-05-01T10:41:44.82Z</time></trkpt><trkpt lat="38.6289102" lon="20.5636446"><ele>319.0</ele><time>2026-05-01T10:41:45.822Z</time></trkpt><trkpt lat="38.6289554" lon="20.5635348"><ele>319.0</ele><time>2026-05-01T10:41:46.822Z</time></trkpt><trkpt lat="38.6290003" lon="20.5634326"><ele>319.0</ele><time>2026-05-01T10:41:47.82Z</time></trkpt><trkpt lat="38.6290418" lon="20.5633217"><ele>318.8</ele><time>2026-05-01T10:41:48.821Z</time></trkpt><trkpt lat="38.6290654" lon="20.5632065"><ele>318.59999999999997</ele><time>2026-05-01T10:41:49.821Z</time></trkpt><trkpt lat="38.6290828" lon="20.5630833"><ele>318.4</ele><time>2026-05-01T10:41:50.82Z</time></trkpt><trkpt lat="38.6290882" lon="20.5629639"><ele>318.2</ele><time>2026-05-01T10:41:51.821Z</time></trkpt><trkpt lat="38.6290787" lon="20.5628463"><ele>318.0</ele><time>2026-05-01T10:41:52.821Z</time></trkpt><trkpt lat="38.6290507" lon="20.5627257"><ele>318.0</ele><time>2026-05-01T10:41:53.821Z</time></trkpt><trkpt lat="38.6290097" lon="20.5626166"><ele>318.0</ele><time>2026-05-01T10:41:54.821Z</time></trkpt><trkpt lat="38.6289621" lon="20.5624945"><ele>318.0</ele><time>2026-05-01T10:41:55.821Z</time></trkpt><trkpt lat="38.6289183" lon="20.5623825"><ele>318.0</ele><time>2026-05-01T10:41:56.821Z</time></trkpt><trkpt lat="38.6288732" lon="20.5622693"><ele>318.0</ele><time>2026-05-01T10:41:57.821Z</time></trkpt><trkpt lat="38.6288284" lon="20.5621715"><ele>318.0</ele><time>2026-05-01T10:41:58.82Z</time></trkpt><trkpt lat="38.6287758" lon="20.5620799"><ele>318.0</ele><time>2026-05-01T10:41:59.821Z</time></trkpt><trkpt lat="38.6287198" lon="20.5620021"><ele>318.0</ele><time>2026-05-01T10:42:00.821Z</time></trkpt><trkpt lat="38.6286625" lon="20.5619512"><ele>318.0</ele><time>2026-05-01T10:42:01.819Z</time></trkpt><trkpt lat="38.6285963" lon="20.561902"><ele>318.0</ele><time>2026-05-01T10:42:02.821Z</time></trkpt><trkpt lat="38.6285364" lon="20.561865"><ele>318.0</ele><time>2026-05-01T10:42:03.822Z</time></trkpt><trkpt lat="38.6284614" lon="20.561847"><ele>317.8333333333333</ele><time>2026-05-01T10:42:04.822Z</time></trkpt><trkpt lat="38.6283744" lon="20.561858"><ele>317.6666666666667</ele><time>2026-05-01T10:42:05.821Z</time></trkpt><trkpt lat="38.6282966" lon="20.5618949"><ele>317.5</ele><time>2026-05-01T10:42:06.821Z</time></trkpt><trkpt lat="38.6282194" lon="20.5619376"><ele>317.33333333333337</ele><time>2026-05-01T10:42:07.822Z</time></trkpt><trkpt lat="38.6281549" lon="20.5619839"><ele>317.1666666666667</ele><time>2026-05-01T10:42:08.821Z</time></trkpt><trkpt lat="38.6280723" lon="20.5620629"><ele>317.0</ele><time>2026-05-01T10:42:10.82Z</time></trkpt><trkpt lat="38.6281515" lon="20.562018"><ele>317.0</ele><time>2026-05-01T10:44:06.821Z</time></trkpt><trkpt lat="38.6282132" lon="20.5619687"><ele>317.0</ele><time>2026-05-01T10:44:07.822Z</time></trkpt><trkpt lat="38.6282693" lon="20.5619318"><ele>317.0</ele><time>2026-05-01T10:44:08.821Z</time></trkpt><trkpt lat="38.6283596" lon="20.5618847"><ele>317.0</ele><time>2026-05-01T10:44:10.821Z</time></trkpt><trkpt lat="38.6284205" lon="20.5618039"><ele>317.0</ele><time>2026-05-01T10:44:12.821Z</time></trkpt><trkpt lat="38.6284049" lon="20.5617223"><ele>317.0</ele><time>2026-05-01T10:44:14.822Z</time></trkpt><trkpt lat="38.6283325" lon="20.5617021"><ele>317.0</ele><time>2026-05-01T10:44:16.821Z</time></trkpt><trkpt lat="38.6282099" lon="20.5617006"><ele>317.0</ele><time>2026-05-01T10:44:18.821Z</time></trkpt><trkpt lat="38.6281411" lon="20.5617128"><ele>317.0</ele><time>2026-05-01T10:44:19.821Z</time></trkpt><trkpt lat="38.6280676" lon="20.5617384"><ele>317.0</ele><time>2026-05-01T10:44:20.821Z</time></trkpt><trkpt lat="38.6279953" lon="20.561772"><ele>317.0</ele><time>2026-05-01T10:44:21.822Z</time></trkpt><trkpt lat="38.6279249" lon="20.5618104"><ele>317.0</ele><time>2026-05-01T10:44:22.822Z</time></trkpt><trkpt lat="38.6278574" lon="20.5618484"><ele>317.6</ele><time>2026-05-01T10:44:23.821Z</time></trkpt><trkpt lat="38.6277831" lon="20.5618927"><ele>318.2</ele><time>2026-05-01T10:44:24.821Z</time></trkpt><trkpt lat="38.6277021" lon="20.5619528"><ele>318.8</ele><time>2026-05-01T10:44:25.822Z</time></trkpt><trkpt lat="38.6276305" lon="20.5620246"><ele>319.4</ele><time>2026-05-01T10:44:26.82Z</time></trkpt><trkpt lat="38.6275703" lon="20.5621147"><ele>320.0</ele><time>2026-05-01T10:44:27.822Z</time></trkpt><trkpt lat="38.6275382" lon="20.5622292"><ele>320.0</ele><time>2026-05-01T10:44:28.819Z</time></trkpt><trkpt lat="38.6274991" lon="20.5623422"><ele>320.0</ele><time>2026-05-01T10:44:29.821Z</time></trkpt><trkpt lat="38.6274762" lon="20.5624442"><ele>320.0</ele><time>2026-05-01T10:44:30.821Z</time></trkpt><trkpt lat="38.6274447" lon="20.5625394"><ele>320.0</ele><time>2026-05-01T10:44:31.821Z</time></trkpt><trkpt lat="38.6274087" lon="20.562644"><ele>320.0</ele><time>2026-05-01T10:44:32.821Z</time></trkpt><trkpt lat="38.6273694" lon="20.5627429"><ele>320.0</ele><time>2026-05-01T10:44:33.821Z</time></trkpt><trkpt lat="38.6273291" lon="20.5628459"><ele>320.1666666666667</ele><time>2026-05-01T10:44:34.822Z</time></trkpt><trkpt lat="38.6272718" lon="20.5629375"><ele>320.33333333333337</ele><time>2026-05-01T10:44:35.821Z</time></trkpt><trkpt lat="38.6272087" lon="20.563018"><ele>320.5</ele><time>2026-05-01T10:44:36.821Z</time></trkpt><trkpt lat="38.6271342" lon="20.563083"><ele>320.6666666666667</ele><time>2026-05-01T10:44:37.822Z</time></trkpt><trkpt lat="38.6270566" lon="20.5631356"><ele>320.8333333333333</ele><time>2026-05-01T10:44:38.822Z</time></trkpt><trkpt lat="38.6269768" lon="20.5631624"><ele>321.0</ele><time>2026-05-01T10:44:39.821Z</time></trkpt><trkpt lat="38.626894" lon="20.5631833"><ele>321.0</ele><time>2026-05-01T10:44:40.822Z</time></trkpt><trkpt lat="38.6268093" lon="20.5631906"><ele>321.0</ele><time>2026-05-01T10:44:41.821Z</time></trkpt><trkpt lat="38.626722" lon="20.5631799"><ele>321.0</ele><time>2026-05-01T10:44:42.821Z</time></trkpt><trkpt lat="38.6266391" lon="20.5631526"><ele>321.0</ele><time>2026-05-01T10:44:43.822Z</time></trkpt><trkpt lat="38.6265689" lon="20.5631052"><ele>321.0</ele><time>2026-05-01T10:44:44.82Z</time></trkpt><trkpt lat="38.626501" lon="20.5630346"><ele>321.0</ele><time>2026-05-01T10:44:45.821Z</time></trkpt><trkpt lat="38.6264498" lon="20.5629529"><ele>317.8</ele><time>2026-05-01T10:44:46.821Z</time></trkpt><trkpt lat="38.6263984" lon="20.562853"><ele>314.6</ele><time>2026-05-01T10:44:47.821Z</time></trkpt><trkpt lat="38.6263525" lon="20.5627542"><ele>311.4</ele><time>2026-05-01T10:44:48.821Z</time></trkpt><trkpt lat="38.6263174" lon="20.5626289"><ele>308.2</ele><time>2026-05-01T10:44:49.822Z</time></trkpt><trkpt lat="38.6262846" lon="20.5624943"><ele>305.0</ele><time>2026-05-01T10:44:50.821Z</time></trkpt><trkpt lat="38.6262644" lon="20.5623596"><ele>305.0</ele><time>2026-05-01T10:44:51.822Z</time></trkpt><trkpt lat="38.626251" lon="20.5622207"><ele>305.0</ele><time>2026-05-01T10:44:52.822Z</time></trkpt><trkpt lat="38.6262353" lon="20.5620948"><ele>305.0</ele><time>2026-05-01T10:44:53.821Z</time></trkpt><trkpt lat="38.6262208" lon="20.5619707"><ele>305.0</ele><time>2026-05-01T10:44:54.822Z</time></trkpt><trkpt lat="38.6262017" lon="20.5618563"><ele>305.0</ele><time>2026-05-01T10:44:55.822Z</time></trkpt><trkpt lat="38.6261678" lon="20.5617649"><ele>303.5</ele><time>2026-05-01T10:44:56.821Z</time></trkpt><trkpt lat="38.6261186" lon="20.5617001"><ele>302.0</ele><time>2026-05-01T10:44:57.822Z</time></trkpt><trkpt lat="38.6260539" lon="20.5616503"><ele>300.5</ele><time>2026-05-01T10:44:58.822Z</time></trkpt><trkpt lat="38.6259764" lon="20.5616229"><ele>299.0</ele><time>2026-05-01T10:44:59.821Z</time></trkpt><trkpt lat="38.625897" lon="20.5616202"><ele>297.5</ele><time>2026-05-01T10:45:00.821Z</time></trkpt><trkpt lat="38.6257985" lon="20.561641"><ele>296.0</ele><time>2026-05-01T10:45:01.822Z</time></trkpt><trkpt lat="38.625714" lon="20.5617189"><ele>296.0</ele><time>2026-05-01T10:45:02.822Z</time></trkpt><trkpt lat="38.6256384" lon="20.5617926"><ele>296.0</ele><time>2026-05-01T10:45:03.822Z</time></trkpt><trkpt lat="38.625553" lon="20.5618574"><ele>296.0</ele><time>2026-05-01T10:45:04.822Z</time></trkpt><trkpt lat="38.6254692" lon="20.5619114"><ele>296.0</ele><time>2026-05-01T10:45:05.821Z</time></trkpt><trkpt lat="38.6253914" lon="20.5619789"><ele>296.0</ele><time>2026-05-01T10:45:06.821Z</time></trkpt><trkpt lat="38.6253109" lon="20.5620471"><ele>295.0</ele><time>2026-05-01T10:45:07.822Z</time></trkpt><trkpt lat="38.6252633" lon="20.5621321"><ele>294.0</ele><time>2026-05-01T10:45:08.821Z</time></trkpt><trkpt lat="38.625245" lon="20.562223"><ele>293.0</ele><time>2026-05-01T10:45:09.822Z</time></trkpt><trkpt lat="38.6252458" lon="20.5623157"><ele>292.0</ele><time>2026-05-01T10:45:10.821Z</time></trkpt><trkpt lat="38.6252654" lon="20.5624478"><ele>291.0</ele><time>2026-05-01T10:45:11.822Z</time></trkpt><trkpt lat="38.6252997" lon="20.5625842"><ele>290.0</ele><time>2026-05-01T10:45:12.821Z</time></trkpt><trkpt lat="38.6253325" lon="20.5627204"><ele>295.0</ele><time>2026-05-01T10:45:13.821Z</time></trkpt><trkpt lat="38.6253704" lon="20.5628654"><ele>300.0</ele><time>2026-05-01T10:45:14.821Z</time></trkpt><trkpt lat="38.6254238" lon="20.5629978"><ele>305.0</ele><time>2026-05-01T10:45:15.822Z</time></trkpt><trkpt lat="38.6254904" lon="20.5631363"><ele>310.0</ele><time>2026-05-01T10:45:16.822Z</time></trkpt><trkpt lat="38.6255341" lon="20.5632526"><ele>310.0</ele><time>2026-05-01T10:45:17.822Z</time></trkpt><trkpt lat="38.6255688" lon="20.5633755"><ele>310.0</ele><time>2026-05-01T10:45:18.821Z</time></trkpt><trkpt lat="38.6255958" lon="20.5634895"><ele>310.0</ele><time>2026-05-01T10:45:19.822Z</time></trkpt><trkpt lat="38.625618" lon="20.5635865"><ele>310.0</ele><time>2026-05-01T10:45:20.822Z</time></trkpt><trkpt lat="38.6256268" lon="20.5636688"><ele>310.0</ele><time>2026-05-01T10:45:21.822Z</time></trkpt><trkpt lat="38.6256004" lon="20.563785"><ele>310.0</ele><time>2026-05-01T10:45:23.822Z</time></trkpt><trkpt lat="38.6255131" lon="20.5637664"><ele>310.0</ele><time>2026-05-01T10:45:25.822Z</time></trkpt><trkpt lat="38.6254475" lon="20.563714"><ele>310.0</ele><time>2026-05-01T10:45:26.822Z</time></trkpt><trkpt lat="38.6253401" lon="20.5636515"><ele>310.0</ele><time>2026-05-01T10:45:27.821Z</time></trkpt><trkpt lat="38.6252263" lon="20.563574"><ele>310.0</ele><time>2026-05-01T10:45:28.821Z</time></trkpt><trkpt lat="38.6250904" lon="20.5635148"><ele>308.5</ele><time>2026-05-01T10:45:29.822Z</time></trkpt><trkpt lat="38.6249665" lon="20.5634238"><ele>307.0</ele><time>2026-05-01T10:45:30.821Z</time></trkpt><trkpt lat="38.6248351" lon="20.5633388"><ele>305.5</ele><time>2026-05-01T10:45:31.822Z</time></trkpt><trkpt lat="38.6247002" lon="20.5632533"><ele>304.0</ele><time>2026-05-01T10:45:32.821Z</time></trkpt><trkpt lat="38.6245864" lon="20.5631849"><ele>307.0</ele><time>2026-05-01T10:45:33.821Z</time></trkpt><trkpt lat="38.6244434" lon="20.5631149"><ele>310.0</ele><time>2026-05-01T10:45:34.821Z</time></trkpt><trkpt lat="38.6242941" lon="20.563047"><ele>313.0</ele><time>2026-05-01T10:45:35.822Z</time></trkpt><trkpt lat="38.6241377" lon="20.5629875"><ele>313.0</ele><time>2026-05-01T10:45:36.821Z</time></trkpt><trkpt lat="38.6240017" lon="20.5629271"><ele>313.0</ele><time>2026-05-01T10:45:37.821Z</time></trkpt><trkpt lat="38.6238673" lon="20.5628587"><ele>313.0</ele><time>2026-05-01T10:45:38.822Z</time></trkpt><trkpt lat="38.6237456" lon="20.5628001"><ele>313.0</ele><time>2026-05-01T10:45:39.821Z</time></trkpt><trkpt lat="38.6236324" lon="20.5627248"><ele>309.75</ele><time>2026-05-01T10:45:40.821Z</time></trkpt><trkpt lat="38.6235255" lon="20.5626583"><ele>306.5</ele><time>2026-05-01T10:45:41.822Z</time></trkpt><trkpt lat="38.6234159" lon="20.5625955"><ele>303.25</ele><time>2026-05-01T10:45:42.821Z</time></trkpt><trkpt lat="38.6233134" lon="20.5625581"><ele>300.0</ele><time>2026-05-01T10:45:43.822Z</time></trkpt><trkpt lat="38.6232027" lon="20.5625281"><ele>300.0</ele><time>2026-05-01T10:45:44.822Z</time></trkpt><trkpt lat="38.6230833" lon="20.5625272"><ele>300.0</ele><time>2026-05-01T10:45:45.821Z</time></trkpt><trkpt lat="38.6229838" lon="20.5625323"><ele>300.0</ele><time>2026-05-01T10:45:46.822Z</time></trkpt><trkpt lat="38.6229011" lon="20.5625646"><ele>300.0</ele><time>2026-05-01T10:45:47.819Z</time></trkpt><trkpt lat="38.622827" lon="20.5626227"><ele>300.0</ele><time>2026-05-01T10:45:48.821Z</time></trkpt><trkpt lat="38.6227652" lon="20.5627131"><ele>300.1666666666667</ele><time>2026-05-01T10:45:49.82Z</time></trkpt><trkpt lat="38.6227059" lon="20.5627944"><ele>300.3333333333333</ele><time>2026-05-01T10:45:50.822Z</time></trkpt><trkpt lat="38.6226589" lon="20.5628666"><ele>300.5</ele><time>2026-05-01T10:45:51.822Z</time></trkpt><trkpt lat="38.6226002" lon="20.5629048"><ele>300.66666666666663</ele><time>2026-05-01T10:45:52.82Z</time></trkpt><trkpt lat="38.6224816" lon="20.5628924"><ele>300.8333333333333</ele><time>2026-05-01T10:45:54.821Z</time></trkpt><trkpt lat="38.6224277" lon="20.5628239"><ele>301.0</ele><time>2026-05-01T10:45:55.822Z</time></trkpt><trkpt lat="38.6223638" lon="20.562764"><ele>301.0</ele><time>2026-05-01T10:45:56.822Z</time></trkpt><trkpt lat="38.6222818" lon="20.5627165"><ele>301.0</ele><time>2026-05-01T10:45:57.821Z</time></trkpt><trkpt lat="38.6221913" lon="20.5626973"><ele>301.0</ele><time>2026-05-01T10:45:58.821Z</time></trkpt><trkpt lat="38.6220782" lon="20.5626902"><ele>301.0</ele><time>2026-05-01T10:45:59.822Z</time></trkpt><trkpt lat="38.6219659" lon="20.5626905"><ele>301.0</ele><time>2026-05-01T10:46:00.822Z</time></trkpt><trkpt lat="38.6218622" lon="20.5627006"><ele>302.6</ele><time>2026-05-01T10:46:01.822Z</time></trkpt><trkpt lat="38.6217662" lon="20.5627152"><ele>304.20000000000005</ele><time>2026-05-01T10:46:02.822Z</time></trkpt><trkpt lat="38.6216968" lon="20.5627135"><ele>305.79999999999995</ele><time>2026-05-01T10:46:03.821Z</time></trkpt><trkpt lat="38.6216122" lon="20.5626724"><ele>307.4</ele><time>2026-05-01T10:46:05.821Z</time></trkpt><trkpt lat="38.6216294" lon="20.5625253"><ele>309.0</ele><time>2026-05-01T10:46:07.822Z</time></trkpt><trkpt lat="38.6216726" lon="20.5624294"><ele>309.0</ele><time>2026-05-01T10:46:08.822Z</time></trkpt><trkpt lat="38.6217051" lon="20.5623216"><ele>309.0</ele><time>2026-05-01T10:46:09.821Z</time></trkpt><trkpt lat="38.6217295" lon="20.5622042"><ele>309.0</ele><time>2026-05-01T10:46:10.822Z</time></trkpt><trkpt lat="38.6217312" lon="20.5620763"><ele>309.0</ele><time>2026-05-01T10:46:11.822Z</time></trkpt><trkpt lat="38.6217072" lon="20.56195"><ele>309.0</ele><time>2026-05-01T10:46:12.821Z</time></trkpt><trkpt lat="38.6216664" lon="20.5618091"><ele>306.25</ele><time>2026-05-01T10:46:13.821Z</time></trkpt><trkpt lat="38.6216112" lon="20.5616794"><ele>303.5</ele><time>2026-05-01T10:46:14.82Z</time></trkpt><trkpt lat="38.6215361" lon="20.5615553"><ele>300.75</ele><time>2026-05-01T10:46:15.822Z</time></trkpt><trkpt lat="38.6214477" lon="20.5614464"><ele>298.0</ele><time>2026-05-01T10:46:16.821Z</time></trkpt><trkpt lat="38.6213463" lon="20.5613417"><ele>298.0</ele><time>2026-05-01T10:46:17.822Z</time></trkpt><trkpt lat="38.6211924" lon="20.5612251"><ele>298.0</ele><time>2026-05-01T10:46:18.821Z</time></trkpt><trkpt lat="38.6210849" lon="20.5611242"><ele>298.0</ele><time>2026-05-01T10:46:19.822Z</time></trkpt><trkpt lat="38.6209849" lon="20.5610226"><ele>298.0</ele><time>2026-05-01T10:46:20.821Z</time></trkpt><trkpt lat="38.6208889" lon="20.5609203"><ele>298.0</ele><time>2026-05-01T10:46:21.821Z</time></trkpt><trkpt lat="38.6208021" lon="20.5608162"><ele>298.0</ele><time>2026-05-01T10:46:22.822Z</time></trkpt><trkpt lat="38.6207251" lon="20.5607149"><ele>298.0</ele><time>2026-05-01T10:46:23.821Z</time></trkpt><trkpt lat="38.6206601" lon="20.5606098"><ele>298.0</ele><time>2026-05-01T10:46:24.82Z</time></trkpt><trkpt lat="38.6205967" lon="20.5605126"><ele>298.0</ele><time>2026-05-01T10:46:25.822Z</time></trkpt><trkpt lat="38.6205406" lon="20.5604216"><ele>297.2</ele><time>2026-05-01T10:46:26.822Z</time></trkpt><trkpt lat="38.6204738" lon="20.5603286"><ele>296.4</ele><time>2026-05-01T10:46:27.821Z</time></trkpt><trkpt lat="38.6204102" lon="20.5602399"><ele>295.59999999999997</ele><time>2026-05-01T10:46:28.821Z</time></trkpt><trkpt lat="38.6203441" lon="20.5601664"><ele>294.8</ele><time>2026-05-01T10:46:29.822Z</time></trkpt><trkpt lat="38.6202732" lon="20.5601201"><ele>294.0</ele><time>2026-05-01T10:46:30.821Z</time></trkpt><trkpt lat="38.6201845" lon="20.5600957"><ele>294.0</ele><time>2026-05-01T10:46:31.821Z</time></trkpt><trkpt lat="38.6200874" lon="20.5600937"><ele>294.0</ele><time>2026-05-01T10:46:32.822Z</time></trkpt><trkpt lat="38.6199857" lon="20.5600866"><ele>294.0</ele><time>2026-05-01T10:46:33.822Z</time></trkpt><trkpt lat="38.6198794" lon="20.5600695"><ele>294.0</ele><time>2026-05-01T10:46:34.821Z</time></trkpt><trkpt lat="38.6197832" lon="20.5600372"><ele>294.0</ele><time>2026-05-01T10:46:35.821Z</time></trkpt><trkpt lat="38.6196889" lon="20.5599878"><ele>294.0</ele><time>2026-05-01T10:46:36.821Z</time></trkpt><trkpt lat="38.6195996" lon="20.5599329"><ele>294.0</ele><time>2026-05-01T10:46:37.822Z</time></trkpt><trkpt lat="38.6195205" lon="20.5598788"><ele>294.0</ele><time>2026-05-01T10:46:38.822Z</time></trkpt><trkpt lat="38.6194419" lon="20.5598193"><ele>294.0</ele><time>2026-05-01T10:46:39.822Z</time></trkpt><trkpt lat="38.6193721" lon="20.5597662"><ele>294.0</ele><time>2026-05-01T10:46:40.821Z</time></trkpt><trkpt lat="38.6192869" lon="20.559728"><ele>294.8</ele><time>2026-05-01T10:46:41.822Z</time></trkpt><trkpt lat="38.6191963" lon="20.5597038"><ele>295.59999999999997</ele><time>2026-05-01T10:46:42.822Z</time></trkpt><trkpt lat="38.6190997" lon="20.5596962"><ele>296.4</ele><time>2026-05-01T10:46:43.821Z</time></trkpt><trkpt lat="38.6190026" lon="20.5596786"><ele>297.2</ele><time>2026-05-01T10:46:44.822Z</time></trkpt><trkpt lat="38.6188991" lon="20.5596519"><ele>298.0</ele><time>2026-05-01T10:46:45.822Z</time></trkpt><trkpt lat="38.6187972" lon="20.5596289"><ele>298.0</ele><time>2026-05-01T10:46:46.822Z</time></trkpt><trkpt lat="38.6186918" lon="20.5596125"><ele>298.0</ele><time>2026-05-01T10:46:47.821Z</time></trkpt><trkpt lat="38.6185689" lon="20.5596287"><ele>298.0</ele><time>2026-05-01T10:46:48.821Z</time></trkpt><trkpt lat="38.6184424" lon="20.5596581"><ele>298.0</ele><time>2026-05-01T10:46:49.822Z</time></trkpt><trkpt lat="38.6183312" lon="20.5596888"><ele>296.25</ele><time>2026-05-01T10:46:50.822Z</time></trkpt><trkpt lat="38.6182055" lon="20.559723"><ele>294.5</ele><time>2026-05-01T10:46:51.822Z</time></trkpt><trkpt lat="38.61809" lon="20.5597562"><ele>292.75</ele><time>2026-05-01T10:46:52.821Z</time></trkpt><trkpt lat="38.6179805" lon="20.5598031"><ele>291.0</ele><time>2026-05-01T10:46:53.822Z</time></trkpt><trkpt lat="38.6178698" lon="20.5598649"><ele>286.75</ele><time>2026-05-01T10:46:54.821Z</time></trkpt><trkpt lat="38.6177627" lon="20.5599374"><ele>282.5</ele><time>2026-05-01T10:46:55.822Z</time></trkpt><trkpt lat="38.6176532" lon="20.5600452"><ele>278.25</ele><time>2026-05-01T10:46:56.82Z</time></trkpt><trkpt lat="38.6175581" lon="20.5601783"><ele>274.0</ele><time>2026-05-01T10:46:57.819Z</time></trkpt><trkpt lat="38.6174583" lon="20.5602823"><ele>277.25</ele><time>2026-05-01T10:46:58.821Z</time></trkpt><trkpt lat="38.617365" lon="20.5603749"><ele>280.5</ele><time>2026-05-01T10:46:59.822Z</time></trkpt><trkpt lat="38.6172574" lon="20.5604577"><ele>283.75</ele><time>2026-05-01T10:47:00.822Z</time></trkpt><trkpt lat="38.6171693" lon="20.5605565"><ele>287.0</ele><time>2026-05-01T10:47:01.822Z</time></trkpt><trkpt lat="38.617105" lon="20.560649"><ele>287.0</ele><time>2026-05-01T10:47:02.82Z</time></trkpt><trkpt lat="38.6170614" lon="20.5607448"><ele>287.0</ele><time>2026-05-01T10:47:03.821Z</time></trkpt><trkpt lat="38.6170252" lon="20.5608325"><ele>287.0</ele><time>2026-05-01T10:47:04.821Z</time></trkpt><trkpt lat="38.6169986" lon="20.5609173"><ele>287.0</ele><time>2026-05-01T10:47:05.82Z</time></trkpt><trkpt lat="38.6169119" lon="20.5609464"><ele>287.0</ele><time>2026-05-01T10:47:07.821Z</time></trkpt><trkpt lat="38.6168508" lon="20.5608186"><ele>287.0</ele><time>2026-05-01T10:47:09.822Z</time></trkpt><trkpt lat="38.6168441" lon="20.5606961"><ele>286.0</ele><time>2026-05-01T10:47:10.821Z</time></trkpt><trkpt lat="38.6168388" lon="20.5605609"><ele>285.0</ele><time>2026-05-01T10:47:11.821Z</time></trkpt><trkpt lat="38.6168335" lon="20.5604135"><ele>284.0</ele><time>2026-05-01T10:47:12.822Z</time></trkpt><trkpt lat="38.6168197" lon="20.5602523"><ele>283.0</ele><time>2026-05-01T10:47:13.822Z</time></trkpt><trkpt lat="38.6167862" lon="20.5600798"><ele>279.25</ele><time>2026-05-01T10:47:14.822Z</time></trkpt><trkpt lat="38.6167391" lon="20.5599211"><ele>275.5</ele><time>2026-05-01T10:47:15.819Z</time></trkpt><trkpt lat="38.6166924" lon="20.5597865"><ele>271.75</ele><time>2026-05-01T10:47:16.821Z</time></trkpt><trkpt lat="38.6166225" lon="20.559667"><ele>268.0</ele><time>2026-05-01T10:47:17.822Z</time></trkpt><trkpt lat="38.6165513" lon="20.5595756"><ele>264.6</ele><time>2026-05-01T10:47:18.822Z</time></trkpt><trkpt lat="38.6164746" lon="20.5595051"><ele>261.20000000000005</ele><time>2026-05-01T10:47:19.821Z</time></trkpt><trkpt lat="38.6163801" lon="20.5594788"><ele>257.8</ele><time>2026-05-01T10:47:20.822Z</time></trkpt><trkpt lat="38.6162639" lon="20.5594652"><ele>254.4</ele><time>2026-05-01T10:47:21.822Z</time></trkpt><trkpt lat="38.6161432" lon="20.5594668"><ele>251.0</ele><time>2026-05-01T10:47:22.822Z</time></trkpt><trkpt lat="38.6160112" lon="20.5594541"><ele>250.0</ele><time>2026-05-01T10:47:23.822Z</time></trkpt><trkpt lat="38.6158601" lon="20.5594399"><ele>249.0</ele><time>2026-05-01T10:47:24.822Z</time></trkpt><trkpt lat="38.6156976" lon="20.5594283"><ele>248.0</ele><time>2026-05-01T10:47:25.822Z</time></trkpt><trkpt lat="38.6155392" lon="20.5594255"><ele>248.0</ele><time>2026-05-01T10:47:26.821Z</time></trkpt><trkpt lat="38.6153631" lon="20.5594662"><ele>248.0</ele><time>2026-05-01T10:47:27.821Z</time></trkpt><trkpt lat="38.6152072" lon="20.559461"><ele>248.0</ele><time>2026-05-01T10:47:28.822Z</time></trkpt><trkpt lat="38.6150614" lon="20.5594504"><ele>247.60000000000002</ele><time>2026-05-01T10:47:29.821Z</time></trkpt><trkpt lat="38.6149181" lon="20.5594468"><ele>247.20000000000002</ele><time>2026-05-01T10:47:30.819Z</time></trkpt><trkpt lat="38.6148015" lon="20.5594391"><ele>246.8</ele><time>2026-05-01T10:47:31.821Z</time></trkpt><trkpt lat="38.6147025" lon="20.5594489"><ele>246.4</ele><time>2026-05-01T10:47:32.822Z</time></trkpt><trkpt lat="38.6146294" lon="20.5594547"><ele>246.0</ele><time>2026-05-01T10:47:33.821Z</time></trkpt><trkpt lat="38.6145607" lon="20.5594228"><ele>246.0</ele><time>2026-05-01T10:47:34.822Z</time></trkpt><trkpt lat="38.6145223" lon="20.5593519"><ele>246.00000000000003</ele><time>2026-05-01T10:47:35.82Z</time></trkpt><trkpt lat="38.6144959" lon="20.5591834"><ele>246.00000000000003</ele><time>2026-05-01T10:47:37.822Z</time></trkpt><trkpt lat="38.6145298" lon="20.5590823"><ele>246.0</ele><time>2026-05-01T10:47:38.822Z</time></trkpt><trkpt lat="38.6145809" lon="20.5589904"><ele>246.0</ele><time>2026-05-01T10:47:39.821Z</time></trkpt><trkpt lat="38.6146453" lon="20.5589005"><ele>246.0</ele><time>2026-05-01T10:47:40.822Z</time></trkpt><trkpt lat="38.6147055" lon="20.5588104"><ele>246.0</ele><time>2026-05-01T10:47:41.822Z</time></trkpt><trkpt lat="38.6147619" lon="20.5587227"><ele>246.0</ele><time>2026-05-01T10:47:42.822Z</time></trkpt><trkpt lat="38.6148126" lon="20.5586487"><ele>246.0</ele><time>2026-05-01T10:47:43.821Z</time></trkpt><trkpt lat="38.6148514" lon="20.5585587"><ele>246.0</ele><time>2026-05-01T10:47:44.821Z</time></trkpt><trkpt lat="38.6148861" lon="20.5584759"><ele>246.0</ele><time>2026-05-01T10:47:45.821Z</time></trkpt><trkpt lat="38.6149169" lon="20.5583817"><ele>244.8571428571429</ele><time>2026-05-01T10:47:46.821Z</time></trkpt><trkpt lat="38.6149491" lon="20.5583075"><ele>243.71428571428572</ele><time>2026-05-01T10:47:47.821Z</time></trkpt><trkpt lat="38.6149719" lon="20.5582297"><ele>242.57142857142858</ele><time>2026-05-01T10:47:48.821Z</time></trkpt><trkpt lat="38.6149808" lon="20.5581431"><ele>241.42857142857144</ele><time>2026-05-01T10:47:49.822Z</time></trkpt><trkpt lat="38.6149778" lon="20.5580595"><ele>240.28571428571428</ele><time>2026-05-01T10:47:50.822Z</time></trkpt><trkpt lat="38.6149657" lon="20.5579705"><ele>239.14285714285714</ele><time>2026-05-01T10:47:51.822Z</time></trkpt><trkpt lat="38.6149315" lon="20.5578734"><ele>238.0</ele><time>2026-05-01T10:47:52.822Z</time></trkpt><trkpt lat="38.6148874" lon="20.5577904"><ele>236.8</ele><time>2026-05-01T10:47:53.821Z</time></trkpt><trkpt lat="38.6148255" lon="20.557724"><ele>235.60000000000002</ele><time>2026-05-01T10:47:54.821Z</time></trkpt><trkpt lat="38.6147552" lon="20.5576823"><ele>234.39999999999998</ele><time>2026-05-01T10:47:55.822Z</time></trkpt><trkpt lat="38.6146677" lon="20.557649"><ele>233.2</ele><time>2026-05-01T10:47:56.822Z</time></trkpt><trkpt lat="38.6145615" lon="20.5576286"><ele>232.0</ele><time>2026-05-01T10:47:57.822Z</time></trkpt><trkpt lat="38.6144614" lon="20.5576169"><ele>231.6</ele><time>2026-05-01T10:47:58.821Z</time></trkpt><trkpt lat="38.6143494" lon="20.5576128"><ele>231.2</ele><time>2026-05-01T10:47:59.822Z</time></trkpt><trkpt lat="38.6142494" lon="20.5576166"><ele>230.8</ele><time>2026-05-01T10:48:00.821Z</time></trkpt><trkpt lat="38.6141414" lon="20.5576126"><ele>230.4</ele><time>2026-05-01T10:48:01.821Z</time></trkpt><trkpt lat="38.6140244" lon="20.5576061"><ele>230.0</ele><time>2026-05-01T10:48:02.821Z</time></trkpt><trkpt lat="38.6139083" lon="20.55759"><ele>230.0</ele><time>2026-05-01T10:48:03.822Z</time></trkpt><trkpt lat="38.6137901" lon="20.55757"><ele>230.0</ele><time>2026-05-01T10:48:04.821Z</time></trkpt><trkpt lat="38.6136719" lon="20.5575357"><ele>230.0</ele><time>2026-05-01T10:48:05.821Z</time></trkpt><trkpt lat="38.6135588" lon="20.5574963"><ele>230.0</ele><time>2026-05-01T10:48:06.822Z</time></trkpt><trkpt lat="38.6134345" lon="20.5574458"><ele>230.25</ele><time>2026-05-01T10:48:07.821Z</time></trkpt><trkpt lat="38.6133207" lon="20.5573892"><ele>230.5</ele><time>2026-05-01T10:48:08.822Z</time></trkpt><trkpt lat="38.6131809" lon="20.5573389"><ele>230.75</ele><time>2026-05-01T10:48:09.821Z</time></trkpt><trkpt lat="38.6130479" lon="20.5572941"><ele>231.0</ele><time>2026-05-01T10:48:10.821Z</time></trkpt><trkpt lat="38.6129151" lon="20.5572566"><ele>231.5</ele><time>2026-05-01T10:48:11.822Z</time></trkpt><trkpt lat="38.612792" lon="20.5572056"><ele>232.0</ele><time>2026-05-01T10:48:12.821Z</time></trkpt><trkpt lat="38.6126672" lon="20.5571644"><ele>232.5</ele><time>2026-05-01T10:48:13.821Z</time></trkpt><trkpt lat="38.6125501" lon="20.557128"><ele>233.0</ele><time>2026-05-01T10:48:14.822Z</time></trkpt><trkpt lat="38.6124412" lon="20.5570846"><ele>233.0</ele><time>2026-05-01T10:48:15.822Z</time></trkpt><trkpt lat="38.6123405" lon="20.5570443"><ele>233.0</ele><time>2026-05-01T10:48:16.822Z</time></trkpt><trkpt lat="38.6122587" lon="20.5569947"><ele>233.0</ele><time>2026-05-01T10:48:17.822Z</time></trkpt><trkpt lat="38.6121872" lon="20.5569317"><ele>233.0</ele><time>2026-05-01T10:48:18.821Z</time></trkpt><trkpt lat="38.6121483" lon="20.556837"><ele>233.0</ele><time>2026-05-01T10:48:19.822Z</time></trkpt><trkpt lat="38.6121298" lon="20.5567186"><ele>231.4</ele><time>2026-05-01T10:48:20.821Z</time></trkpt><trkpt lat="38.612113" lon="20.5565925"><ele>229.8</ele><time>2026-05-01T10:48:21.822Z</time></trkpt><trkpt lat="38.6120845" lon="20.5564633"><ele>228.2</ele><time>2026-05-01T10:48:22.822Z</time></trkpt><trkpt lat="38.6120374" lon="20.5563423"><ele>226.6</ele><time>2026-05-01T10:48:23.822Z</time></trkpt><trkpt lat="38.6119866" lon="20.5562267"><ele>225.0</ele><time>2026-05-01T10:48:24.82Z</time></trkpt><trkpt lat="38.6119007" lon="20.5561052"><ele>223.0</ele><time>2026-05-01T10:48:25.821Z</time></trkpt><trkpt lat="38.6118147" lon="20.5560073"><ele>221.0</ele><time>2026-05-01T10:48:26.822Z</time></trkpt><trkpt lat="38.6117203" lon="20.5559238"><ele>219.0</ele><time>2026-05-01T10:48:27.822Z</time></trkpt><trkpt lat="38.6116264" lon="20.5558459"><ele>217.0</ele><time>2026-05-01T10:48:28.819Z</time></trkpt><trkpt lat="38.6115321" lon="20.5557827"><ele>215.0</ele><time>2026-05-01T10:48:29.822Z</time></trkpt><trkpt lat="38.6114378" lon="20.5557252"><ele>215.00000000000003</ele><time>2026-05-01T10:48:30.82Z</time></trkpt><trkpt lat="38.6113519" lon="20.5556804"><ele>215.0</ele><time>2026-05-01T10:48:31.822Z</time></trkpt><trkpt lat="38.6112704" lon="20.5556325"><ele>215.0</ele><time>2026-05-01T10:48:32.821Z</time></trkpt><trkpt lat="38.6111945" lon="20.5556038"><ele>215.0</ele><time>2026-05-01T10:48:33.821Z</time></trkpt><trkpt lat="38.6111141" lon="20.5555968"><ele>215.00000000000003</ele><time>2026-05-01T10:48:34.821Z</time></trkpt><trkpt lat="38.611039" lon="20.5556111"><ele>215.0</ele><time>2026-05-01T10:48:35.822Z</time></trkpt><trkpt lat="38.6109717" lon="20.5556534"><ele>214.2</ele><time>2026-05-01T10:48:36.822Z</time></trkpt><trkpt lat="38.6109108" lon="20.5557359"><ele>213.4</ele><time>2026-05-01T10:48:37.822Z</time></trkpt><trkpt lat="38.6108621" lon="20.5558373"><ele>212.60000000000002</ele><time>2026-05-01T10:48:38.82Z</time></trkpt><trkpt lat="38.6108182" lon="20.5559514"><ele>211.8</ele><time>2026-05-01T10:48:39.822Z</time></trkpt><trkpt lat="38.6107744" lon="20.5560705"><ele>211.0</ele><time>2026-05-01T10:48:40.821Z</time></trkpt><trkpt lat="38.6107308" lon="20.55618"><ele>212.83333333333331</ele><time>2026-05-01T10:48:41.821Z</time></trkpt><trkpt lat="38.610686" lon="20.5562755"><ele>214.66666666666666</ele><time>2026-05-01T10:48:42.822Z</time></trkpt><trkpt lat="38.6106361" lon="20.5563489"><ele>216.5</ele><time>2026-05-01T10:48:43.822Z</time></trkpt><trkpt lat="38.6105793" lon="20.5563837"><ele>218.33333333333331</ele><time>2026-05-01T10:48:44.822Z</time></trkpt><trkpt lat="38.610505" lon="20.5563799"><ele>220.16666666666666</ele><time>2026-05-01T10:48:45.822Z</time></trkpt><trkpt lat="38.6104297" lon="20.5563358"><ele>222.0</ele><time>2026-05-01T10:48:46.821Z</time></trkpt><trkpt lat="38.6103609" lon="20.5562725"><ele>217.75</ele><time>2026-05-01T10:48:47.821Z</time></trkpt><trkpt lat="38.6102743" lon="20.5561816"><ele>213.5</ele><time>2026-05-01T10:48:48.821Z</time></trkpt><trkpt lat="38.6101857" lon="20.5560968"><ele>209.25</ele><time>2026-05-01T10:48:49.822Z</time></trkpt><trkpt lat="38.6100784" lon="20.5560129"><ele>205.0</ele><time>2026-05-01T10:48:50.821Z</time></trkpt><trkpt lat="38.6099751" lon="20.5559311"><ele>205.0</ele><time>2026-05-01T10:48:51.822Z</time></trkpt><trkpt lat="38.6098677" lon="20.5558585"><ele>205.0</ele><time>2026-05-01T10:48:52.819Z</time></trkpt><trkpt lat="38.6097644" lon="20.5557936"><ele>205.0</ele><time>2026-05-01T10:48:53.822Z</time></trkpt><trkpt lat="38.6096579" lon="20.5557335"><ele>205.0</ele><time>2026-05-01T10:48:54.821Z</time></trkpt><trkpt lat="38.6095481" lon="20.5556809"><ele>205.75</ele><time>2026-05-01T10:48:55.822Z</time></trkpt><trkpt lat="38.6094349" lon="20.5556411"><ele>206.5</ele><time>2026-05-01T10:48:56.821Z</time></trkpt><trkpt lat="38.6093223" lon="20.5556083"><ele>207.25</ele><time>2026-05-01T10:48:57.822Z</time></trkpt><trkpt lat="38.6092147" lon="20.5555778"><ele>208.0</ele><time>2026-05-01T10:48:58.822Z</time></trkpt><trkpt lat="38.6091009" lon="20.5555312"><ele>208.0</ele><time>2026-05-01T10:48:59.821Z</time></trkpt><trkpt lat="38.6089939" lon="20.555469"><ele>208.0</ele><time>2026-05-01T10:49:00.822Z</time></trkpt><trkpt lat="38.6088799" lon="20.555397"><ele>208.0</ele><time>2026-05-01T10:49:01.822Z</time></trkpt><trkpt lat="38.6087732" lon="20.5553222"><ele>208.0</ele><time>2026-05-01T10:49:02.821Z</time></trkpt><trkpt lat="38.6086762" lon="20.5552542"><ele>204.2</ele><time>2026-05-01T10:49:03.821Z</time></trkpt><trkpt lat="38.6085818" lon="20.5551842"><ele>200.4</ele><time>2026-05-01T10:49:04.821Z</time></trkpt><trkpt lat="38.6084949" lon="20.5551311"><ele>196.6</ele><time>2026-05-01T10:49:05.821Z</time></trkpt><trkpt lat="38.6084131" lon="20.5550985"><ele>192.79999999999998</ele><time>2026-05-01T10:49:06.821Z</time></trkpt><trkpt lat="38.6083324" lon="20.5550668"><ele>189.0</ele><time>2026-05-01T10:49:07.822Z</time></trkpt><trkpt lat="38.6082382" lon="20.5550785"><ele>189.0</ele><time>2026-05-01T10:49:08.821Z</time></trkpt><trkpt lat="38.6081466" lon="20.555107"><ele>189.0</ele><time>2026-05-01T10:49:09.821Z</time></trkpt><trkpt lat="38.6080503" lon="20.5551496"><ele>189.0</ele><time>2026-05-01T10:49:10.821Z</time></trkpt><trkpt lat="38.6079538" lon="20.5551914"><ele>189.0</ele><time>2026-05-01T10:49:11.82Z</time></trkpt><trkpt lat="38.6078593" lon="20.5552328"><ele>189.0</ele><time>2026-05-01T10:49:12.821Z</time></trkpt><trkpt lat="38.6077658" lon="20.5552767"><ele>188.79999999999998</ele><time>2026-05-01T10:49:13.821Z</time></trkpt><trkpt lat="38.6076585" lon="20.5553382"><ele>188.6</ele><time>2026-05-01T10:49:14.821Z</time></trkpt><trkpt lat="38.6075619" lon="20.5554044"><ele>188.4</ele><time>2026-05-01T10:49:15.822Z</time></trkpt><trkpt lat="38.6074699" lon="20.5554747"><ele>188.2</ele><time>2026-05-01T10:49:16.821Z</time></trkpt><trkpt lat="38.6073839" lon="20.5555471"><ele>188.0</ele><time>2026-05-01T10:49:17.821Z</time></trkpt><trkpt lat="38.6073048" lon="20.5556206"><ele>188.0</ele><time>2026-05-01T10:49:18.82Z</time></trkpt><trkpt lat="38.6072382" lon="20.5557002"><ele>188.0</ele><time>2026-05-01T10:49:19.822Z</time></trkpt><trkpt lat="38.6071916" lon="20.5557919"><ele>188.0</ele><time>2026-05-01T10:49:20.821Z</time></trkpt><trkpt lat="38.6071664" lon="20.555892"><ele>188.0</ele><time>2026-05-01T10:49:21.821Z</time></trkpt><trkpt lat="38.6071533" lon="20.5560115"><ele>188.0</ele><time>2026-05-01T10:49:22.822Z</time></trkpt><trkpt lat="38.6071683" lon="20.5561256"><ele>188.0</ele><time>2026-05-01T10:49:23.821Z</time></trkpt><trkpt lat="38.607194" lon="20.556244"><ele>188.60000000000002</ele><time>2026-05-01T10:49:24.822Z</time></trkpt><trkpt lat="38.6072252" lon="20.5563503"><ele>189.20000000000002</ele><time>2026-05-01T10:49:25.82Z</time></trkpt><trkpt lat="38.6072567" lon="20.5564481"><ele>189.8</ele><time>2026-05-01T10:49:26.82Z</time></trkpt><trkpt lat="38.6072847" lon="20.5565321"><ele>190.4</ele><time>2026-05-01T10:49:27.82Z</time></trkpt><trkpt lat="38.607293" lon="20.5566588"><ele>191.0</ele><time>2026-05-01T10:49:29.822Z</time></trkpt><trkpt lat="38.6071857" lon="20.5566853"><ele>191.0</ele><time>2026-05-01T10:49:31.821Z</time></trkpt><trkpt lat="38.6071084" lon="20.5566733"><ele>191.0</ele><time>2026-05-01T10:49:32.82Z</time></trkpt><trkpt lat="38.6070203" lon="20.5566349"><ele>191.0</ele><time>2026-05-01T10:49:33.822Z</time></trkpt><trkpt lat="38.6069371" lon="20.5565844"><ele>191.0</ele><time>2026-05-01T10:49:34.82Z</time></trkpt><trkpt lat="38.60685" lon="20.5565168"><ele>191.0</ele><time>2026-05-01T10:49:35.822Z</time></trkpt><trkpt lat="38.6067602" lon="20.5564614"><ele>189.4</ele><time>2026-05-01T10:49:36.822Z</time></trkpt><trkpt lat="38.6066827" lon="20.5564002"><ele>187.8</ele><time>2026-05-01T10:49:37.821Z</time></trkpt><trkpt lat="38.6066062" lon="20.5563393"><ele>186.20000000000002</ele><time>2026-05-01T10:49:38.822Z</time></trkpt><trkpt lat="38.6065423" lon="20.5562586"><ele>184.60000000000002</ele><time>2026-05-01T10:49:39.822Z</time></trkpt><trkpt lat="38.6064754" lon="20.5561676"><ele>183.0</ele><time>2026-05-01T10:49:40.821Z</time></trkpt><trkpt lat="38.60641" lon="20.5560819"><ele>180.0</ele><time>2026-05-01T10:49:41.821Z</time></trkpt><trkpt lat="38.6063478" lon="20.5560056"><ele>177.0</ele><time>2026-05-01T10:49:42.821Z</time></trkpt><trkpt lat="38.6062804" lon="20.5559394"><ele>174.0</ele><time>2026-05-01T10:49:43.822Z</time></trkpt><trkpt lat="38.6062059" lon="20.5558876"><ele>171.0</ele><time>2026-05-01T10:49:44.822Z</time></trkpt><trkpt lat="38.6061187" lon="20.5558498"><ele>168.0</ele><time>2026-05-01T10:49:45.821Z</time></trkpt><trkpt lat="38.6060315" lon="20.5558195"><ele>165.0</ele><time>2026-05-01T10:49:46.82Z</time></trkpt><trkpt lat="38.6059345" lon="20.5557894"><ele>164.8</ele><time>2026-05-01T10:49:47.822Z</time></trkpt><trkpt lat="38.6058315" lon="20.5557656"><ele>164.6</ele><time>2026-05-01T10:49:48.822Z</time></trkpt><trkpt lat="38.6057235" lon="20.5557496"><ele>164.39999999999998</ele><time>2026-05-01T10:49:49.822Z</time></trkpt><trkpt lat="38.6056098" lon="20.5557391"><ele>164.2</ele><time>2026-05-01T10:49:50.819Z</time></trkpt><trkpt lat="38.6055033" lon="20.555731"><ele>164.0</ele><time>2026-05-01T10:49:51.821Z</time></trkpt><trkpt lat="38.6053964" lon="20.5557296"><ele>163.25</ele><time>2026-05-01T10:49:52.822Z</time></trkpt><trkpt lat="38.6052919" lon="20.5557346"><ele>162.5</ele><time>2026-05-01T10:49:53.821Z</time></trkpt><trkpt lat="38.6051783" lon="20.5557354"><ele>161.75</ele><time>2026-05-01T10:49:54.821Z</time></trkpt><trkpt lat="38.6050655" lon="20.5557222"><ele>161.0</ele><time>2026-05-01T10:49:55.821Z</time></trkpt><trkpt lat="38.6049481" lon="20.5557004"><ele>161.0</ele><time>2026-05-01T10:49:56.821Z</time></trkpt><trkpt lat="38.6048326" lon="20.5556945"><ele>161.0</ele><time>2026-05-01T10:49:57.822Z</time></trkpt><trkpt lat="38.6047148" lon="20.555689"><ele>161.0</ele><time>2026-05-01T10:49:58.822Z</time></trkpt><trkpt lat="38.6045998" lon="20.5556601"><ele>161.0</ele><time>2026-05-01T10:49:59.82Z</time></trkpt><trkpt lat="38.6044901" lon="20.55561"><ele>161.8</ele><time>2026-05-01T10:50:00.822Z</time></trkpt><trkpt lat="38.6043871" lon="20.5555481"><ele>162.60000000000002</ele><time>2026-05-01T10:50:01.821Z</time></trkpt><trkpt lat="38.6042844" lon="20.5554745"><ele>163.4</ele><time>2026-05-01T10:50:02.822Z</time></trkpt><trkpt lat="38.6041881" lon="20.5554091"><ele>164.2</ele><time>2026-05-01T10:50:03.821Z</time></trkpt><trkpt lat="38.6040935" lon="20.5553525"><ele>165.0</ele><time>2026-05-01T10:50:04.821Z</time></trkpt><trkpt lat="38.6040013" lon="20.5553113"><ele>160.83333333333334</ele><time>2026-05-01T10:50:05.821Z</time></trkpt><trkpt lat="38.6039237" lon="20.5552798"><ele>156.66666666666666</ele><time>2026-05-01T10:50:06.821Z</time></trkpt><trkpt lat="38.6038562" lon="20.555258"><ele>152.5</ele><time>2026-05-01T10:50:07.822Z</time></trkpt><trkpt lat="38.6037849" lon="20.5552437"><ele>148.33333333333331</ele><time>2026-05-01T10:50:08.822Z</time></trkpt><trkpt lat="38.6036961" lon="20.5551781"><ele>144.16666666666666</ele><time>2026-05-01T10:50:10.822Z</time></trkpt><trkpt lat="38.6037128" lon="20.5550912"><ele>140.0</ele><time>2026-05-01T10:50:12.82Z</time></trkpt><trkpt lat="38.603823" lon="20.5550716"><ele>140.0</ele><time>2026-05-01T10:50:14.822Z</time></trkpt><trkpt lat="38.6039001" lon="20.5550612"><ele>140.0</ele><time>2026-05-01T10:50:15.821Z</time></trkpt><trkpt lat="38.6039879" lon="20.5550445"><ele>140.0</ele><time>2026-05-01T10:50:16.822Z</time></trkpt><trkpt lat="38.6040836" lon="20.5550266"><ele>140.0</ele><time>2026-05-01T10:50:17.822Z</time></trkpt><trkpt lat="38.6041835" lon="20.5550052"><ele>140.0</ele><time>2026-05-01T10:50:18.821Z</time></trkpt><trkpt lat="38.6042779" lon="20.5549733"><ele>140.0</ele><time>2026-05-01T10:50:19.822Z</time></trkpt><trkpt lat="38.6043704" lon="20.5549324"><ele>140.0</ele><time>2026-05-01T10:50:20.821Z</time></trkpt><trkpt lat="38.6044564" lon="20.5548729"><ele>140.0</ele><time>2026-05-01T10:50:21.822Z</time></trkpt><trkpt lat="38.6045457" lon="20.5547796"><ele>140.0</ele><time>2026-05-01T10:50:22.821Z</time></trkpt><trkpt lat="38.6046227" lon="20.5547047"><ele>140.0</ele><time>2026-05-01T10:50:23.822Z</time></trkpt><trkpt lat="38.6047034" lon="20.5546169"><ele>140.6</ele><time>2026-05-01T10:50:24.821Z</time></trkpt><trkpt lat="38.6047978" lon="20.5545414"><ele>141.2</ele><time>2026-05-01T10:50:25.822Z</time></trkpt><trkpt lat="38.6048852" lon="20.5544604"><ele>141.8</ele><time>2026-05-01T10:50:26.822Z</time></trkpt><trkpt lat="38.6049755" lon="20.5543812"><ele>142.4</ele><time>2026-05-01T10:50:27.822Z</time></trkpt><trkpt lat="38.6050656" lon="20.5542978"><ele>143.0</ele><time>2026-05-01T10:50:28.821Z</time></trkpt><trkpt lat="38.6051515" lon="20.5542033"><ele>140.4</ele><time>2026-05-01T10:50:29.822Z</time></trkpt><trkpt lat="38.6052335" lon="20.5541228"><ele>137.8</ele><time>2026-05-01T10:50:30.821Z</time></trkpt><trkpt lat="38.605316" lon="20.5540421"><ele>135.2</ele><time>2026-05-01T10:50:31.821Z</time></trkpt><trkpt lat="38.6054072" lon="20.5539729"><ele>132.6</ele><time>2026-05-01T10:50:32.821Z</time></trkpt><trkpt lat="38.6054901" lon="20.5539094"><ele>130.0</ele><time>2026-05-01T10:50:33.822Z</time></trkpt><trkpt lat="38.605567" lon="20.5538545"><ele>130.0</ele><time>2026-05-01T10:50:34.822Z</time></trkpt><trkpt lat="38.6056317" lon="20.553815"><ele>130.0</ele><time>2026-05-01T10:50:35.821Z</time></trkpt><trkpt lat="38.6057115" lon="20.5537301"><ele>130.0</ele><time>2026-05-01T10:50:37.821Z</time></trkpt><trkpt lat="38.6056843" lon="20.5536046"><ele>130.0</ele><time>2026-05-01T10:50:39.821Z</time></trkpt><trkpt lat="38.6056331" lon="20.5535392"><ele>130.0</ele><time>2026-05-01T10:50:40.821Z</time></trkpt><trkpt lat="38.6055706" lon="20.5534569"><ele>130.0</ele><time>2026-05-01T10:50:41.822Z</time></trkpt><trkpt lat="38.605513" lon="20.5533703"><ele>127.4</ele><time>2026-05-01T10:50:42.822Z</time></trkpt><trkpt lat="38.6054584" lon="20.5532785"><ele>124.8</ele><time>2026-05-01T10:50:43.822Z</time></trkpt><trkpt lat="38.6054027" lon="20.5531869"><ele>122.19999999999999</ele><time>2026-05-01T10:50:44.822Z</time></trkpt><trkpt lat="38.6053459" lon="20.5530891"><ele>119.6</ele><time>2026-05-01T10:50:45.822Z</time></trkpt><trkpt lat="38.6052973" lon="20.5529851"><ele>117.0</ele><time>2026-05-01T10:50:46.821Z</time></trkpt><trkpt lat="38.6052552" lon="20.5528824"><ele>114.0</ele><time>2026-05-01T10:50:47.822Z</time></trkpt><trkpt lat="38.6052036" lon="20.5527745"><ele>110.99999999999999</ele><time>2026-05-01T10:50:48.822Z</time></trkpt><trkpt lat="38.6051443" lon="20.5526718"><ele>108.0</ele><time>2026-05-01T10:50:49.821Z</time></trkpt><trkpt lat="38.6050829" lon="20.5525819"><ele>105.0</ele><time>2026-05-01T10:50:50.821Z</time></trkpt><trkpt lat="38.6050178" lon="20.5524929"><ele>102.0</ele><time>2026-05-01T10:50:51.822Z</time></trkpt><trkpt lat="38.6049477" lon="20.5524165"><ele>102.0</ele><time>2026-05-01T10:50:52.822Z</time></trkpt><trkpt lat="38.6048783" lon="20.5523622"><ele>102.0</ele><time>2026-05-01T10:50:53.822Z</time></trkpt><trkpt lat="38.6048092" lon="20.5523346"><ele>102.0</ele><time>2026-05-01T10:50:54.822Z</time></trkpt><trkpt lat="38.6047264" lon="20.5523062"><ele>102.0</ele><time>2026-05-01T10:50:56.822Z</time></trkpt><trkpt lat="38.6046565" lon="20.5522987"><ele>102.0</ele><time>2026-05-01T10:50:59.821Z</time></trkpt><trkpt lat="38.6045834" lon="20.5523086"><ele>102.0</ele><time>2026-05-01T10:51:03.821Z</time></trkpt><trkpt lat="38.60452" lon="20.5523399"><ele>100.33333333333333</ele><time>2026-05-01T10:51:06.821Z</time></trkpt><trkpt lat="38.6044546" lon="20.5523793"><ele>98.66666666666667</ele><time>2026-05-01T10:51:08.822Z</time></trkpt><trkpt lat="38.6043445" lon="20.5524711"><ele>97.0</ele><time>2026-05-01T10:51:10.821Z</time></trkpt><trkpt lat="38.6042868" lon="20.5525315"><ele>95.33333333333334</ele><time>2026-05-01T10:51:11.821Z</time></trkpt><trkpt lat="38.6042316" lon="20.5525948"><ele>93.66666666666667</ele><time>2026-05-01T10:51:12.821Z</time></trkpt><trkpt lat="38.6041713" lon="20.5526669"><ele>92.0</ele><time>2026-05-01T10:51:13.821Z</time></trkpt><trkpt lat="38.6041183" lon="20.5527502"><ele>92.0</ele><time>2026-05-01T10:51:14.821Z</time></trkpt><trkpt lat="38.6040585" lon="20.5528269"><ele>92.0</ele><time>2026-05-01T10:51:15.821Z</time></trkpt><trkpt lat="38.6039987" lon="20.5529124"><ele>92.0</ele><time>2026-05-01T10:51:16.822Z</time></trkpt><trkpt lat="38.6039362" lon="20.5529974"><ele>92.0</ele><time>2026-05-01T10:51:17.821Z</time></trkpt><trkpt lat="38.603871" lon="20.5530723"><ele>92.0</ele><time>2026-05-01T10:51:18.821Z</time></trkpt><trkpt lat="38.6038013" lon="20.5531469"><ele>92.0</ele><time>2026-05-01T10:51:19.821Z</time></trkpt><trkpt lat="38.6037366" lon="20.5532158"><ele>92.28571428571429</ele><time>2026-05-01T10:51:20.821Z</time></trkpt><trkpt lat="38.6036765" lon="20.5532772"><ele>92.57142857142857</ele><time>2026-05-01T10:51:21.821Z</time></trkpt><trkpt lat="38.6036169" lon="20.5533254"><ele>92.85714285714286</ele><time>2026-05-01T10:51:22.822Z</time></trkpt><trkpt lat="38.6035547" lon="20.5533483"><ele>93.14285714285714</ele><time>2026-05-01T10:51:23.822Z</time></trkpt><trkpt lat="38.6034859" lon="20.553321"><ele>93.42857142857142</ele><time>2026-05-01T10:51:24.821Z</time></trkpt><trkpt lat="38.6034264" lon="20.5532767"><ele>93.71428571428571</ele><time>2026-05-01T10:51:25.822Z</time></trkpt><trkpt lat="38.6033809" lon="20.5532019"><ele>94.0</ele><time>2026-05-01T10:51:26.821Z</time></trkpt><trkpt lat="38.6033493" lon="20.5531071"><ele>94.0</ele><time>2026-05-01T10:51:27.82Z</time></trkpt><trkpt lat="38.6033187" lon="20.5530153"><ele>94.0</ele><time>2026-05-01T10:51:28.821Z</time></trkpt><trkpt lat="38.6032745" lon="20.552928"><ele>94.0</ele><time>2026-05-01T10:51:29.821Z</time></trkpt><trkpt lat="38.6032095" lon="20.5528546"><ele>94.0</ele><time>2026-05-01T10:51:30.822Z</time></trkpt><trkpt lat="38.6031257" lon="20.5527873"><ele>94.0</ele><time>2026-05-01T10:51:31.822Z</time></trkpt><trkpt lat="38.6030401" lon="20.5527361"><ele>94.0</ele><time>2026-05-01T10:51:32.822Z</time></trkpt><trkpt lat="38.602966" lon="20.5527014"><ele>90.2</ele><time>2026-05-01T10:51:33.82Z</time></trkpt><trkpt lat="38.602872" lon="20.552674"><ele>86.4</ele><time>2026-05-01T10:51:35.822Z</time></trkpt><trkpt lat="38.6028568" lon="20.5525802"><ele>82.6</ele><time>2026-05-01T10:51:38.822Z</time></trkpt><trkpt lat="38.6029335" lon="20.5525138"><ele>78.8</ele><time>2026-05-01T10:51:40.821Z</time></trkpt><trkpt lat="38.6030393" lon="20.5524397"><ele>75.0</ele><time>2026-05-01T10:51:42.821Z</time></trkpt><trkpt lat="38.6031378" lon="20.5523947"><ele>75.0</ele><time>2026-05-01T10:51:44.821Z</time></trkpt><trkpt lat="38.6031818" lon="20.552321"><ele>75.0</ele><time>2026-05-01T10:51:46.821Z</time></trkpt><trkpt lat="38.603111" lon="20.5522345"><ele>75.0</ele><time>2026-05-01T10:51:49.82Z</time></trkpt><trkpt lat="38.6030225" lon="20.5522222"><ele>75.0</ele><time>2026-05-01T10:51:51.822Z</time></trkpt><trkpt lat="38.6029433" lon="20.5521835"><ele>75.0</ele><time>2026-05-01T10:51:54.821Z</time></trkpt><trkpt lat="38.6029646" lon="20.5520778"><ele>75.0</ele><time>2026-05-01T10:51:56.821Z</time></trkpt><trkpt lat="38.6030328" lon="20.551987"><ele>71.2</ele><time>2026-05-01T10:51:58.821Z</time></trkpt><trkpt lat="38.6031318" lon="20.5519693"><ele>67.4</ele><time>2026-05-01T10:52:00.821Z</time></trkpt><trkpt lat="38.6032415" lon="20.5519805"><ele>63.599999999999994</ele><time>2026-05-01T10:52:02.821Z</time></trkpt><trkpt lat="38.6033589" lon="20.5520085"><ele>59.8</ele><time>2026-05-01T10:52:04.821Z</time></trkpt><trkpt lat="38.6034787" lon="20.5520026"><ele>56.0</ele><time>2026-05-01T10:52:06.822Z</time></trkpt><trkpt lat="38.6035657" lon="20.5519084"><ele>56.0</ele><time>2026-05-01T10:52:08.822Z</time></trkpt><trkpt lat="38.6035607" lon="20.5517752"><ele>55.99999999999999</ele><time>2026-05-01T10:52:10.821Z</time></trkpt><trkpt lat="38.6034757" lon="20.5516931"><ele>55.99999999999999</ele><time>2026-05-01T10:52:12.822Z</time></trkpt><trkpt lat="38.603373" lon="20.5516374"><ele>56.0</ele><time>2026-05-01T10:52:14.821Z</time></trkpt><trkpt lat="38.6032918" lon="20.5515408"><ele>56.0</ele><time>2026-05-01T10:52:16.821Z</time></trkpt><trkpt lat="38.6032379" lon="20.5514233"><ele>56.00000000000001</ele><time>2026-05-01T10:52:18.822Z</time></trkpt><trkpt lat="38.6031835" lon="20.5513404"><ele>56.0</ele><time>2026-05-01T10:52:20.822Z</time></trkpt><trkpt lat="38.6031244" lon="20.5513084"><ele>56.0</ele><time>2026-05-01T10:52:33.822Z</time></trkpt><trkpt lat="38.6030837" lon="20.5512416"><ele>56.0</ele><time>2026-05-01T10:52:36.821Z</time></trkpt><trkpt lat="38.6031242" lon="20.5511261"><ele>56.00000000000001</ele><time>2026-05-01T10:52:39.821Z</time></trkpt><trkpt lat="38.6031705" lon="20.5510109"><ele>56.0</ele><time>2026-05-01T10:52:41.822Z</time></trkpt><trkpt lat="38.6031821" lon="20.550861"><ele>54.4</ele><time>2026-05-01T10:52:43.822Z</time></trkpt><trkpt lat="38.6031751" lon="20.5507195"><ele>52.8</ele><time>2026-05-01T10:52:45.821Z</time></trkpt><trkpt lat="38.6031625" lon="20.5505971"><ele>51.199999999999996</ele><time>2026-05-01T10:52:47.822Z</time></trkpt><trkpt lat="38.6031372" lon="20.5504706"><ele>49.599999999999994</ele><time>2026-05-01T10:52:49.82Z</time></trkpt><trkpt lat="38.6031005" lon="20.5503544"><ele>48.0</ele><time>2026-05-01T10:52:51.821Z</time></trkpt><trkpt lat="38.6030655" lon="20.5502759"><ele>47.833333333333336</ele><time>2026-05-01T10:52:53.821Z</time></trkpt><trkpt lat="38.6030439" lon="20.5501691"><ele>47.666666666666664</ele><time>2026-05-01T10:52:56.821Z</time></trkpt><trkpt lat="38.6030148" lon="20.5500894"><ele>47.5</ele><time>2026-05-01T10:52:58.822Z</time></trkpt><trkpt lat="38.6029668" lon="20.5499981"><ele>47.33333333333333</ele><time>2026-05-01T10:53:00.821Z</time></trkpt><trkpt lat="38.6029306" lon="20.5499238"><ele>47.166666666666664</ele><time>2026-05-01T10:53:02.822Z</time></trkpt><trkpt lat="38.6028678" lon="20.5498824"><ele>47.0</ele><time>2026-05-01T10:53:05.821Z</time></trkpt><trkpt lat="38.602798" lon="20.5499536"><ele>43.33333333333333</ele><time>2026-05-01T10:53:08.822Z</time></trkpt><trkpt lat="38.6027368" lon="20.5500293"><ele>39.666666666666664</ele><time>2026-05-01T10:53:10.821Z</time></trkpt><trkpt lat="38.602671" lon="20.5501017"><ele>36.0</ele><time>2026-05-01T10:53:12.821Z</time></trkpt><trkpt lat="38.6026168" lon="20.5501607"><ele>32.333333333333336</ele><time>2026-05-01T10:53:16.82Z</time></trkpt><trkpt lat="38.6026138" lon="20.550253"><ele>28.666666666666668</ele><time>2026-05-01T10:53:33.822Z</time></trkpt><trkpt lat="38.6025528" lon="20.5502117"><ele>25.0</ele><time>2026-05-01T10:54:38.82Z</time></trkpt><trkpt lat="38.6024358" lon="20.5501394"><ele>25.000000000000004</ele><time>2026-05-01T10:55:30.821Z</time></trkpt><trkpt lat="38.6023871" lon="20.5500728"><ele>25.0</ele><time>2026-05-01T10:55:36.821Z</time></trkpt><trkpt lat="38.6023215" lon="20.5500972"><ele>25.0</ele><time>2026-05-01T10:55:42.822Z</time></trkpt><trkpt lat="38.6022557" lon="20.5500629"><ele>25.0</ele><time>2026-05-01T10:56:41.806Z</time></trkpt><trkpt lat="38.6023142" lon="20.5501012"><ele>25.0</ele><time>2026-05-01T11:04:48.801Z</time></trkpt><trkpt lat="38.6023764" lon="20.5500863"><ele>25.000000000000004</ele><time>2026-05-01T11:05:15.726Z</time></trkpt><trkpt lat="38.6024124" lon="20.5501548"><ele>25.0</ele><time>2026-05-01T11:05:23.822Z</time></trkpt><trkpt lat="38.6024005" lon="20.5502451"><ele>25.000000000000004</ele><time>2026-05-01T11:05:31.821Z</time></trkpt><trkpt lat="38.6023396" lon="20.5502103"><ele>25.0</ele><time>2026-05-01T11:09:19.821Z</time></trkpt><trkpt lat="38.6023703" lon="20.5502897"><ele>25.0</ele><time>2026-05-01T11:36:10.781Z</time></trkpt><trkpt lat="38.6024213" lon="20.5502342"><ele>25.0</ele><time>2026-05-01T11:36:21.821Z</time></trkpt><trkpt lat="38.602488" lon="20.5502338"><ele>25.0</ele><time>2026-05-01T11:36:27.72Z</time></trkpt><trkpt lat="38.6025466" lon="20.5501899"><ele>25.000000000000004</ele><time>2026-05-01T11:36:33.817Z</time></trkpt><trkpt lat="38.6025989" lon="20.5502497"><ele>25.0</ele><time>2026-05-01T11:36:40.818Z</time></trkpt><trkpt lat="38.6025248" lon="20.5502694"><ele>25.000000000000004</ele><time>2026-05-01T11:37:09.821Z</time></trkpt><trkpt lat="38.6024671" lon="20.5503191"><ele>25.0</ele><time>2026-05-01T11:37:16.756Z</time></trkpt><trkpt lat="38.6024027" lon="20.5503113"><ele>25.0</ele><time>2026-05-01T11:37:23.763Z</time></trkpt><trkpt lat="38.6023632" lon="20.5502398"><ele>25.0</ele><time>2026-05-01T11:37:29.817Z</time></trkpt><trkpt lat="38.6024117" lon="20.5501513"><ele>25.0</ele><time>2026-05-01T11:40:39.82Z</time></trkpt><trkpt lat="38.6024751" lon="20.5501597"><ele>25.000000000000004</ele><time>2026-05-01T11:42:16.819Z</time></trkpt><trkpt lat="38.6025393" lon="20.550171"><ele>25.0</ele><time>2026-05-01T11:42:31.818Z</time></trkpt><trkpt lat="38.6025885" lon="20.5502232"><ele>25.000000000000004</ele><time>2026-05-01T11:42:50.822Z</time></trkpt><trkpt lat="38.6026329" lon="20.5501645"><ele>25.0</ele><time>2026-05-01T11:44:40.809Z</time></trkpt><trkpt lat="38.6026816" lon="20.5501112"><ele>25.0</ele><time>2026-05-01T11:44:50.81Z</time></trkpt><trkpt lat="38.6027542" lon="20.5500031"><ele>25.0</ele><time>2026-05-01T11:47:56.808Z</time></trkpt><trkpt lat="38.6028259" lon="20.5499272"><ele>25.000000000000004</ele><time>2026-05-01T11:47:58.809Z</time></trkpt><trkpt lat="38.6028939" lon="20.5499469"><ele>25.0</ele><time>2026-05-01T11:48:00.808Z</time></trkpt><trkpt lat="38.602944" lon="20.5500571"><ele>28.666666666666668</ele><time>2026-05-01T11:48:02.809Z</time></trkpt><trkpt lat="38.6029907" lon="20.5501591"><ele>32.333333333333336</ele><time>2026-05-01T11:48:04.809Z</time></trkpt><trkpt lat="38.6030278" lon="20.550264"><ele>36.0</ele><time>2026-05-01T11:48:06.808Z</time></trkpt><trkpt lat="38.6030648" lon="20.5503729"><ele>39.666666666666664</ele><time>2026-05-01T11:48:08.809Z</time></trkpt><trkpt lat="38.6030953" lon="20.5504677"><ele>43.33333333333333</ele><time>2026-05-01T11:48:10.808Z</time></trkpt><trkpt lat="38.603119" lon="20.5505597"><ele>47.0</ele><time>2026-05-01T11:48:12.808Z</time></trkpt><trkpt lat="38.6031303" lon="20.5506544"><ele>47.166666666666664</ele><time>2026-05-01T11:48:14.808Z</time></trkpt><trkpt lat="38.603146" lon="20.550752"><ele>47.33333333333333</ele><time>2026-05-01T11:48:16.809Z</time></trkpt><trkpt lat="38.6031518" lon="20.5508517"><ele>47.5</ele><time>2026-05-01T11:48:18.808Z</time></trkpt><trkpt lat="38.6031491" lon="20.5509417"><ele>47.666666666666664</ele><time>2026-05-01T11:48:20.808Z</time></trkpt><trkpt lat="38.6031419" lon="20.5510342"><ele>47.833333333333336</ele><time>2026-05-01T11:48:22.808Z</time></trkpt><trkpt lat="38.6030885" lon="20.5511385"><ele>48.0</ele><time>2026-05-01T11:48:24.809Z</time></trkpt><trkpt lat="38.6030055" lon="20.5511884"><ele>48.0</ele><time>2026-05-01T11:48:26.808Z</time></trkpt><trkpt lat="38.6029384" lon="20.5511913"><ele>48.0</ele><time>2026-05-01T11:49:14.809Z</time></trkpt><trkpt lat="38.6028472" lon="20.5512253"><ele>48.0</ele><time>2026-05-01T11:49:16.809Z</time></trkpt><trkpt lat="38.602735" lon="20.5512921"><ele>48.0</ele><time>2026-05-01T11:49:18.809Z</time></trkpt><trkpt lat="38.6026776" lon="20.5513359"><ele>48.0</ele><time>2026-05-01T11:49:19.808Z</time></trkpt><trkpt lat="38.6026111" lon="20.5513769"><ele>48.0</ele><time>2026-05-01T11:49:20.808Z</time></trkpt><trkpt lat="38.6025455" lon="20.5514195"><ele>49.4</ele><time>2026-05-01T11:49:21.809Z</time></trkpt><trkpt lat="38.6024747" lon="20.5514485"><ele>50.8</ele><time>2026-05-01T11:49:22.808Z</time></trkpt><trkpt lat="38.6023511" lon="20.5514445"><ele>52.2</ele><time>2026-05-01T11:49:24.809Z</time></trkpt><trkpt lat="38.6022612" lon="20.5513418"><ele>53.6</ele><time>2026-05-01T11:49:26.808Z</time></trkpt><trkpt lat="38.6022301" lon="20.5512616"><ele>55.0</ele><time>2026-05-01T11:49:27.809Z</time></trkpt><trkpt lat="38.6021918" lon="20.5511746"><ele>55.4</ele><time>2026-05-01T11:49:28.808Z</time></trkpt><trkpt lat="38.6021518" lon="20.5510908"><ele>55.8</ele><time>2026-05-01T11:49:29.808Z</time></trkpt><trkpt lat="38.6021074" lon="20.5510072"><ele>56.2</ele><time>2026-05-01T11:49:30.808Z</time></trkpt><trkpt lat="38.6020267" lon="20.5509239"><ele>56.6</ele><time>2026-05-01T11:49:32.808Z</time></trkpt><trkpt lat="38.6019454" lon="20.5509802"><ele>57.0</ele><time>2026-05-01T11:49:34.809Z</time></trkpt><trkpt lat="38.6019522" lon="20.5511051"><ele>57.0</ele><time>2026-05-01T11:49:36.809Z</time></trkpt><trkpt lat="38.6019767" lon="20.5511882"><ele>57.0</ele><time>2026-05-01T11:49:37.809Z</time></trkpt><trkpt lat="38.6020029" lon="20.5512977"><ele>57.0</ele><time>2026-05-01T11:49:38.808Z</time></trkpt><trkpt lat="38.6020275" lon="20.5514117"><ele>57.0</ele><time>2026-05-01T11:49:39.808Z</time></trkpt><trkpt lat="38.6020465" lon="20.5515361"><ele>57.0</ele><time>2026-05-01T11:49:40.809Z</time></trkpt><trkpt lat="38.6020722" lon="20.551656"><ele>57.0</ele><time>2026-05-01T11:49:41.808Z</time></trkpt><trkpt lat="38.6021032" lon="20.5517869"><ele>56.6</ele><time>2026-05-01T11:49:42.808Z</time></trkpt><trkpt lat="38.6021386" lon="20.5519177"><ele>56.2</ele><time>2026-05-01T11:49:43.808Z</time></trkpt><trkpt lat="38.6021739" lon="20.5520495"><ele>55.8</ele><time>2026-05-01T11:49:44.809Z</time></trkpt><trkpt lat="38.6021922" lon="20.5521846"><ele>55.4</ele><time>2026-05-01T11:49:45.808Z</time></trkpt><trkpt lat="38.6022043" lon="20.5523182"><ele>55.0</ele><time>2026-05-01T11:49:46.809Z</time></trkpt><trkpt lat="38.6022226" lon="20.5524642"><ele>58.166666666666664</ele><time>2026-05-01T11:49:47.809Z</time></trkpt><trkpt lat="38.6022439" lon="20.5525922"><ele>61.33333333333333</ele><time>2026-05-01T11:49:48.808Z</time></trkpt><trkpt lat="38.6022716" lon="20.5526925"><ele>64.5</ele><time>2026-05-01T11:49:49.809Z</time></trkpt><trkpt lat="38.6022933" lon="20.5527738"><ele>67.66666666666667</ele><time>2026-05-01T11:49:50.808Z</time></trkpt><trkpt lat="38.6023788" lon="20.5528786"><ele>70.83333333333334</ele><time>2026-05-01T11:49:52.808Z</time></trkpt><trkpt lat="38.6024491" lon="20.5528693"><ele>74.0</ele><time>2026-05-01T11:49:53.809Z</time></trkpt><trkpt lat="38.6025157" lon="20.552849"><ele>74.0</ele><time>2026-05-01T11:49:54.809Z</time></trkpt><trkpt lat="38.6025835" lon="20.5527984"><ele>74.0</ele><time>2026-05-01T11:49:55.809Z</time></trkpt><trkpt lat="38.6026477" lon="20.5527481"><ele>74.0</ele><time>2026-05-01T11:49:56.808Z</time></trkpt><trkpt lat="38.6027077" lon="20.5527089"><ele>74.0</ele><time>2026-05-01T11:49:57.809Z</time></trkpt><trkpt lat="38.60277" lon="20.5526799"><ele>74.0</ele><time>2026-05-01T11:49:58.808Z</time></trkpt><trkpt lat="38.6028433" lon="20.5527011"><ele>74.0</ele><time>2026-05-01T11:49:59.808Z</time></trkpt><trkpt lat="38.6029199" lon="20.5527296"><ele>74.0</ele><time>2026-05-01T11:50:00.808Z</time></trkpt><trkpt lat="38.6030121" lon="20.5527669"><ele>74.2</ele><time>2026-05-01T11:50:01.808Z</time></trkpt><trkpt lat="38.603102" lon="20.5528153"><ele>74.4</ele><time>2026-05-01T11:50:02.808Z</time></trkpt><trkpt lat="38.6031826" lon="20.5528675"><ele>74.6</ele><time>2026-05-01T11:50:03.809Z</time></trkpt><trkpt lat="38.6032498" lon="20.5529457"><ele>74.8</ele><time>2026-05-01T11:50:04.808Z</time></trkpt><trkpt lat="38.6033043" lon="20.5530426"><ele>75.0</ele><time>2026-05-01T11:50:05.808Z</time></trkpt><trkpt lat="38.603358" lon="20.5531352"><ele>78.16666666666667</ele><time>2026-05-01T11:50:06.809Z</time></trkpt><trkpt lat="38.6033907" lon="20.5532421"><ele>81.33333333333333</ele><time>2026-05-01T11:50:07.808Z</time></trkpt><trkpt lat="38.6034366" lon="20.5533375"><ele>84.5</ele><time>2026-05-01T11:50:08.808Z</time></trkpt><trkpt lat="38.6035031" lon="20.5533943"><ele>87.66666666666666</ele><time>2026-05-01T11:50:09.808Z</time></trkpt><trkpt lat="38.6035765" lon="20.5534129"><ele>90.83333333333333</ele><time>2026-05-01T11:50:10.808Z</time></trkpt><trkpt lat="38.6036467" lon="20.5533951"><ele>94.0</ele><time>2026-05-01T11:50:11.809Z</time></trkpt><trkpt lat="38.6037193" lon="20.5533162"><ele>93.6</ele><time>2026-05-01T11:50:12.809Z</time></trkpt><trkpt lat="38.6037942" lon="20.5532445"><ele>93.2</ele><time>2026-05-01T11:50:13.809Z</time></trkpt><trkpt lat="38.6038663" lon="20.5531525"><ele>92.8</ele><time>2026-05-01T11:50:14.809Z</time></trkpt><trkpt lat="38.6039457" lon="20.5530409"><ele>92.39999999999999</ele><time>2026-05-01T11:50:15.809Z</time></trkpt><trkpt lat="38.6040289" lon="20.5529194"><ele>92.0</ele><time>2026-05-01T11:50:16.808Z</time></trkpt><trkpt lat="38.6041175" lon="20.5527945"><ele>92.0</ele><time>2026-05-01T11:50:17.809Z</time></trkpt><trkpt lat="38.6042088" lon="20.5526705"><ele>92.0</ele><time>2026-05-01T11:50:18.808Z</time></trkpt><trkpt lat="38.604299" lon="20.5525623"><ele>92.0</ele><time>2026-05-01T11:50:19.808Z</time></trkpt><trkpt lat="38.6043876" lon="20.5524644"><ele>92.0</ele><time>2026-05-01T11:50:20.809Z</time></trkpt><trkpt lat="38.6044792" lon="20.5523802"><ele>94.0</ele><time>2026-05-01T11:50:21.809Z</time></trkpt><trkpt lat="38.6045649" lon="20.55233"><ele>96.0</ele><time>2026-05-01T11:50:22.808Z</time></trkpt><trkpt lat="38.6046564" lon="20.5523016"><ele>98.0</ele><time>2026-05-01T11:50:23.809Z</time></trkpt><trkpt lat="38.6047469" lon="20.5523142"><ele>100.0</ele><time>2026-05-01T11:50:24.808Z</time></trkpt><trkpt lat="38.6048335" lon="20.5523463"><ele>102.0</ele><time>2026-05-01T11:50:25.808Z</time></trkpt><trkpt lat="38.6049126" lon="20.5524061"><ele>102.0</ele><time>2026-05-01T11:50:26.808Z</time></trkpt><trkpt lat="38.6050022" lon="20.5524979"><ele>102.0</ele><time>2026-05-01T11:50:27.808Z</time></trkpt><trkpt lat="38.6050779" lon="20.5526002"><ele>102.0</ele><time>2026-05-01T11:50:28.809Z</time></trkpt><trkpt lat="38.6051394" lon="20.5527277"><ele>102.0</ele><time>2026-05-01T11:50:29.809Z</time></trkpt><trkpt lat="38.6051995" lon="20.5528559"><ele>104.39999999999999</ele><time>2026-05-01T11:50:30.809Z</time></trkpt><trkpt lat="38.6052553" lon="20.5529754"><ele>106.8</ele><time>2026-05-01T11:50:31.808Z</time></trkpt><trkpt lat="38.6053106" lon="20.5531019"><ele>109.2</ele><time>2026-05-01T11:50:32.809Z</time></trkpt><trkpt lat="38.6053689" lon="20.5532038"><ele>111.6</ele><time>2026-05-01T11:50:33.809Z</time></trkpt><trkpt lat="38.6054283" lon="20.5533173"><ele>114.0</ele><time>2026-05-01T11:50:34.808Z</time></trkpt><trkpt lat="38.6054886" lon="20.5534179"><ele>114.0</ele><time>2026-05-01T11:50:35.809Z</time></trkpt><trkpt lat="38.6055502" lon="20.5534958"><ele>114.0</ele><time>2026-05-01T11:50:36.809Z</time></trkpt><trkpt lat="38.6056042" lon="20.5535628"><ele>114.0</ele><time>2026-05-01T11:50:37.808Z</time></trkpt><trkpt lat="38.6056753" lon="20.5536554"><ele>114.0</ele><time>2026-05-01T11:50:39.809Z</time></trkpt><trkpt lat="38.6056785" lon="20.5537653"><ele>114.0</ele><time>2026-05-01T11:50:41.809Z</time></trkpt><trkpt lat="38.6055606" lon="20.5538592"><ele>117.0</ele><time>2026-05-01T11:50:43.809Z</time></trkpt><trkpt lat="38.6054751" lon="20.5539194"><ele>120.0</ele><time>2026-05-01T11:50:44.809Z</time></trkpt><trkpt lat="38.6053668" lon="20.5539974"><ele>123.0</ele><time>2026-05-01T11:50:45.809Z</time></trkpt><trkpt lat="38.6052459" lon="20.5541094"><ele>126.0</ele><time>2026-05-01T11:50:46.809Z</time></trkpt><trkpt lat="38.6050991" lon="20.5542646"><ele>126.0</ele><time>2026-05-01T11:50:47.808Z</time></trkpt><trkpt lat="38.6049614" lon="20.5544024"><ele>126.0</ele><time>2026-05-01T11:50:48.808Z</time></trkpt><trkpt lat="38.6048279" lon="20.5545234"><ele>126.0</ele><time>2026-05-01T11:50:49.809Z</time></trkpt><trkpt lat="38.6047025" lon="20.5546314"><ele>129.5</ele><time>2026-05-01T11:50:50.808Z</time></trkpt><trkpt lat="38.6045886" lon="20.5547365"><ele>133.0</ele><time>2026-05-01T11:50:51.809Z</time></trkpt><trkpt lat="38.6044937" lon="20.5548239"><ele>136.5</ele><time>2026-05-01T11:50:52.809Z</time></trkpt><trkpt lat="38.6043918" lon="20.5548976"><ele>140.0</ele><time>2026-05-01T11:50:53.809Z</time></trkpt><trkpt lat="38.6042837" lon="20.5549497"><ele>140.0</ele><time>2026-05-01T11:50:54.809Z</time></trkpt><trkpt lat="38.6041783" lon="20.5549856"><ele>140.0</ele><time>2026-05-01T11:50:55.808Z</time></trkpt><trkpt lat="38.6040735" lon="20.555006"><ele>140.0</ele><time>2026-05-01T11:50:56.808Z</time></trkpt><trkpt lat="38.6039778" lon="20.5550246"><ele>140.0</ele><time>2026-05-01T11:50:57.809Z</time></trkpt><trkpt lat="38.6038896" lon="20.5550272"><ele>140.0</ele><time>2026-05-01T11:50:58.808Z</time></trkpt><trkpt lat="38.6038123" lon="20.5550324"><ele>140.0</ele><time>2026-05-01T11:50:59.809Z</time></trkpt><trkpt lat="38.6037461" lon="20.5550232"><ele>140.0</ele><time>2026-05-01T11:51:00.809Z</time></trkpt><trkpt lat="38.6036817" lon="20.5551152"><ele>140.0</ele><time>2026-05-01T11:51:02.808Z</time></trkpt><trkpt lat="38.6037553" lon="20.5552307"><ele>140.0</ele><time>2026-05-01T11:51:04.809Z</time></trkpt><trkpt lat="38.6038344" lon="20.5552607"><ele>140.0</ele><time>2026-05-01T11:51:05.809Z</time></trkpt><trkpt lat="38.6039322" lon="20.5552746"><ele>140.0</ele><time>2026-05-01T11:51:06.808Z</time></trkpt><trkpt lat="38.6040455" lon="20.5553325"><ele>140.0</ele><time>2026-05-01T11:51:07.809Z</time></trkpt><trkpt lat="38.6041749" lon="20.5554173"><ele>140.0</ele><time>2026-05-01T11:51:08.808Z</time></trkpt><trkpt lat="38.6042978" lon="20.5555015"><ele>140.0</ele><time>2026-05-01T11:51:09.809Z</time></trkpt><trkpt lat="38.6044223" lon="20.5556041"><ele>145.25</ele><time>2026-05-01T11:51:10.808Z</time></trkpt><trkpt lat="38.6045473" lon="20.5556621"><ele>150.5</ele><time>2026-05-01T11:51:11.809Z</time></trkpt><trkpt lat="38.6046861" lon="20.5556942"><ele>155.75</ele><time>2026-05-01T11:51:12.808Z</time></trkpt><trkpt lat="38.6048275" lon="20.5557223"><ele>161.0</ele><time>2026-05-01T11:51:13.808Z</time></trkpt><trkpt lat="38.6049734" lon="20.5557419"><ele>161.0</ele><time>2026-05-01T11:51:14.808Z</time></trkpt><trkpt lat="38.6051187" lon="20.5557633"><ele>161.0</ele><time>2026-05-01T11:51:15.808Z</time></trkpt><trkpt lat="38.6052628" lon="20.5557644"><ele>161.0</ele><time>2026-05-01T11:51:16.809Z</time></trkpt><trkpt lat="38.6053911" lon="20.5557667"><ele>161.0</ele><time>2026-05-01T11:51:17.809Z</time></trkpt><trkpt lat="38.605515" lon="20.5557796"><ele>161.75</ele><time>2026-05-01T11:51:18.809Z</time></trkpt><trkpt lat="38.6056255" lon="20.5557924"><ele>162.5</ele><time>2026-05-01T11:51:19.808Z</time></trkpt><trkpt lat="38.6057415" lon="20.5557967"><ele>163.25</ele><time>2026-05-01T11:51:20.808Z</time></trkpt><trkpt lat="38.6058616" lon="20.5558251"><ele>164.0</ele><time>2026-05-01T11:51:21.808Z</time></trkpt><trkpt lat="38.6059748" lon="20.5558567"><ele>164.0</ele><time>2026-05-01T11:51:22.808Z</time></trkpt><trkpt lat="38.6060753" lon="20.5558949"><ele>164.0</ele><time>2026-05-01T11:51:23.809Z</time></trkpt><trkpt lat="38.6061624" lon="20.5559345"><ele>164.0</ele><time>2026-05-01T11:51:24.808Z</time></trkpt><trkpt lat="38.6062558" lon="20.5559972"><ele>164.0</ele><time>2026-05-01T11:51:25.808Z</time></trkpt><trkpt lat="38.6063381" lon="20.5560761"><ele>164.0</ele><time>2026-05-01T11:51:26.808Z</time></trkpt><trkpt lat="38.6064213" lon="20.5561657"><ele>168.75</ele><time>2026-05-01T11:51:27.809Z</time></trkpt><trkpt lat="38.6065022" lon="20.556288"><ele>173.5</ele><time>2026-05-01T11:51:28.808Z</time></trkpt><trkpt lat="38.6065841" lon="20.5563921"><ele>178.25</ele><time>2026-05-01T11:51:29.808Z</time></trkpt><trkpt lat="38.6066727" lon="20.5564738"><ele>183.0</ele><time>2026-05-01T11:51:30.809Z</time></trkpt><trkpt lat="38.6067656" lon="20.5565493"><ele>183.0</ele><time>2026-05-01T11:51:31.808Z</time></trkpt><trkpt lat="38.6068597" lon="20.5566179"><ele>183.0</ele><time>2026-05-01T11:51:32.808Z</time></trkpt><trkpt lat="38.6069525" lon="20.5566765"><ele>183.0</ele><time>2026-05-01T11:51:33.809Z</time></trkpt><trkpt lat="38.6070455" lon="20.5567247"><ele>183.0</ele><time>2026-05-01T11:51:34.808Z</time></trkpt><trkpt lat="38.6071251" lon="20.5567591"><ele>183.0</ele><time>2026-05-01T11:51:35.808Z</time></trkpt><trkpt lat="38.6071967" lon="20.5567771"><ele>184.60000000000002</ele><time>2026-05-01T11:51:36.808Z</time></trkpt><trkpt lat="38.6073077" lon="20.5567545"><ele>186.20000000000002</ele><time>2026-05-01T11:51:38.809Z</time></trkpt><trkpt lat="38.6073404" lon="20.5566263"><ele>187.8</ele><time>2026-05-01T11:51:40.808Z</time></trkpt><trkpt lat="38.6073192" lon="20.5565395"><ele>189.4</ele><time>2026-05-01T11:51:41.809Z</time></trkpt><trkpt lat="38.6072875" lon="20.5564408"><ele>191.0</ele><time>2026-05-01T11:51:42.809Z</time></trkpt><trkpt lat="38.607253" lon="20.5563239"><ele>191.0</ele><time>2026-05-01T11:51:43.809Z</time></trkpt><trkpt lat="38.607224" lon="20.5562037"><ele>191.0</ele><time>2026-05-01T11:51:44.808Z</time></trkpt><trkpt lat="38.6072076" lon="20.5560579"><ele>191.0</ele><time>2026-05-01T11:51:45.809Z</time></trkpt><trkpt lat="38.6072017" lon="20.5559406"><ele>191.0</ele><time>2026-05-01T11:51:46.809Z</time></trkpt><trkpt lat="38.6072266" lon="20.555836"><ele>191.0</ele><time>2026-05-01T11:51:47.809Z</time></trkpt><trkpt lat="38.607272" lon="20.5557385"><ele>190.25</ele><time>2026-05-01T11:51:48.809Z</time></trkpt><trkpt lat="38.6073391" lon="20.5556431"><ele>189.5</ele><time>2026-05-01T11:51:49.808Z</time></trkpt><trkpt lat="38.6074347" lon="20.5555558"><ele>188.75</ele><time>2026-05-01T11:51:50.808Z</time></trkpt><trkpt lat="38.6075279" lon="20.5554594"><ele>188.0</ele><time>2026-05-01T11:51:51.809Z</time></trkpt><trkpt lat="38.6076406" lon="20.5553726"><ele>188.25</ele><time>2026-05-01T11:51:52.809Z</time></trkpt><trkpt lat="38.6077587" lon="20.5553047"><ele>188.5</ele><time>2026-05-01T11:51:53.809Z</time></trkpt><trkpt lat="38.607879" lon="20.5552416"><ele>188.75</ele><time>2026-05-01T11:51:54.808Z</time></trkpt><trkpt lat="38.6080015" lon="20.5551921"><ele>189.0</ele><time>2026-05-01T11:51:55.809Z</time></trkpt><trkpt lat="38.6081145" lon="20.5551504"><ele>189.0</ele><time>2026-05-01T11:51:56.808Z</time></trkpt><trkpt lat="38.6082162" lon="20.555114"><ele>189.0</ele><time>2026-05-01T11:51:57.808Z</time></trkpt><trkpt lat="38.6083097" lon="20.555102"><ele>189.0</ele><time>2026-05-01T11:51:58.808Z</time></trkpt><trkpt lat="38.6084105" lon="20.5551294"><ele>189.0</ele><time>2026-05-01T11:51:59.808Z</time></trkpt><trkpt lat="38.6085278" lon="20.5551897"><ele>189.0</ele><time>2026-05-01T11:52:00.809Z</time></trkpt><trkpt lat="38.6086768" lon="20.5552865"><ele>195.33333333333331</ele><time>2026-05-01T11:52:01.809Z</time></trkpt><trkpt lat="38.6088309" lon="20.5553954"><ele>201.66666666666666</ele><time>2026-05-01T11:52:02.809Z</time></trkpt><trkpt lat="38.6089844" lon="20.555498"><ele>208.0</ele><time>2026-05-01T11:52:03.808Z</time></trkpt><trkpt lat="38.6091238" lon="20.5555707"><ele>208.0</ele><time>2026-05-01T11:52:04.809Z</time></trkpt><trkpt lat="38.6092883" lon="20.5556289"><ele>208.0</ele><time>2026-05-01T11:52:05.808Z</time></trkpt><trkpt lat="38.6094406" lon="20.555686"><ele>208.0</ele><time>2026-05-01T11:52:06.808Z</time></trkpt><trkpt lat="38.6095982" lon="20.5557356"><ele>207.25</ele><time>2026-05-01T11:52:07.809Z</time></trkpt><trkpt lat="38.6097282" lon="20.5558199"><ele>206.5</ele><time>2026-05-01T11:52:08.809Z</time></trkpt><trkpt lat="38.6098584" lon="20.5559046"><ele>205.75</ele><time>2026-05-01T11:52:09.809Z</time></trkpt><trkpt lat="38.609983" lon="20.5559998"><ele>205.0</ele><time>2026-05-01T11:52:10.808Z</time></trkpt><trkpt lat="38.6101009" lon="20.5561064"><ele>205.0</ele><time>2026-05-01T11:52:11.809Z</time></trkpt><trkpt lat="38.6102103" lon="20.5561952"><ele>205.0</ele><time>2026-05-01T11:52:12.809Z</time></trkpt><trkpt lat="38.6103083" lon="20.556281"><ele>205.0</ele><time>2026-05-01T11:52:13.808Z</time></trkpt><trkpt lat="38.6103873" lon="20.5563758"><ele>205.0</ele><time>2026-05-01T11:52:14.808Z</time></trkpt><trkpt lat="38.6104506" lon="20.5564339"><ele>205.0</ele><time>2026-05-01T11:52:15.809Z</time></trkpt><trkpt lat="38.6105366" lon="20.5564625"><ele>206.2</ele><time>2026-05-01T11:52:16.808Z</time></trkpt><trkpt lat="38.6106159" lon="20.5564553"><ele>207.4</ele><time>2026-05-01T11:52:17.808Z</time></trkpt><trkpt lat="38.610682" lon="20.5563879"><ele>208.60000000000002</ele><time>2026-05-01T11:52:18.809Z</time></trkpt><trkpt lat="38.610736" lon="20.5562908"><ele>209.8</ele><time>2026-05-01T11:52:19.809Z</time></trkpt><trkpt lat="38.6107865" lon="20.5561715"><ele>211.0</ele><time>2026-05-01T11:52:20.809Z</time></trkpt><trkpt lat="38.6108348" lon="20.5560431"><ele>210.99999999999997</ele><time>2026-05-01T11:52:21.809Z</time></trkpt><trkpt lat="38.610885" lon="20.5559265"><ele>211.0</ele><time>2026-05-01T11:52:22.808Z</time></trkpt><trkpt lat="38.6109319" lon="20.5558179"><ele>211.0</ele><time>2026-05-01T11:52:23.808Z</time></trkpt><trkpt lat="38.6109829" lon="20.5557257"><ele>211.0</ele><time>2026-05-01T11:52:24.808Z</time></trkpt><trkpt lat="38.6110447" lon="20.5556743"><ele>210.99999999999997</ele><time>2026-05-01T11:52:25.809Z</time></trkpt><trkpt lat="38.6111233" lon="20.5556829"><ele>211.0</ele><time>2026-05-01T11:52:26.809Z</time></trkpt><trkpt lat="38.6112159" lon="20.5556943"><ele>212.0</ele><time>2026-05-01T11:52:27.809Z</time></trkpt><trkpt lat="38.6113237" lon="20.5557563"><ele>213.0</ele><time>2026-05-01T11:52:28.808Z</time></trkpt><trkpt lat="38.6114685" lon="20.5558038"><ele>214.0</ele><time>2026-05-01T11:52:29.808Z</time></trkpt><trkpt lat="38.6115968" lon="20.5558806"><ele>215.0</ele><time>2026-05-01T11:52:30.808Z</time></trkpt><trkpt lat="38.6117191" lon="20.5559512"><ele>215.0</ele><time>2026-05-01T11:52:31.809Z</time></trkpt><trkpt lat="38.6118206" lon="20.5560472"><ele>215.0</ele><time>2026-05-01T11:52:32.808Z</time></trkpt><trkpt lat="38.6119125" lon="20.556148"><ele>215.0</ele><time>2026-05-01T11:52:33.808Z</time></trkpt><trkpt lat="38.6119817" lon="20.556249"><ele>215.0</ele><time>2026-05-01T11:52:34.808Z</time></trkpt><trkpt lat="38.6120487" lon="20.5563798"><ele>215.0</ele><time>2026-05-01T11:52:35.809Z</time></trkpt><trkpt lat="38.6120929" lon="20.556515"><ele>215.0</ele><time>2026-05-01T11:52:36.809Z</time></trkpt><trkpt lat="38.6121154" lon="20.5566596"><ele>215.0</ele><time>2026-05-01T11:52:37.808Z</time></trkpt><trkpt lat="38.6121349" lon="20.5567984"><ele>215.0</ele><time>2026-05-01T11:52:38.809Z</time></trkpt><trkpt lat="38.6121469" lon="20.5569172"><ele>215.0</ele><time>2026-05-01T11:52:39.808Z</time></trkpt><trkpt lat="38.6122556" lon="20.557001"><ele>219.0</ele><time>2026-05-01T11:52:40.808Z</time></trkpt><trkpt lat="38.6123753" lon="20.5570692"><ele>223.0</ele><time>2026-05-01T11:52:41.808Z</time></trkpt><trkpt lat="38.6125277" lon="20.5571322"><ele>227.0</ele><time>2026-05-01T11:52:42.808Z</time></trkpt><trkpt lat="38.6126759" lon="20.5572001"><ele>231.0</ele><time>2026-05-01T11:52:43.809Z</time></trkpt><trkpt lat="38.6128322" lon="20.5572564"><ele>231.0</ele><time>2026-05-01T11:52:44.808Z</time></trkpt><trkpt lat="38.6129867" lon="20.5573055"><ele>231.0</ele><time>2026-05-01T11:52:45.809Z</time></trkpt><trkpt lat="38.6131286" lon="20.5573615"><ele>231.0</ele><time>2026-05-01T11:52:46.809Z</time></trkpt><trkpt lat="38.6132799" lon="20.5574286"><ele>231.0</ele><time>2026-05-01T11:52:47.809Z</time></trkpt><trkpt lat="38.613428" lon="20.5574831"><ele>231.0</ele><time>2026-05-01T11:52:48.809Z</time></trkpt><trkpt lat="38.6135797" lon="20.5575308"><ele>231.0</ele><time>2026-05-01T11:52:49.809Z</time></trkpt><trkpt lat="38.6137341" lon="20.5575835"><ele>230.75</ele><time>2026-05-01T11:52:50.809Z</time></trkpt><trkpt lat="38.6138721" lon="20.5576216"><ele>230.5</ele><time>2026-05-01T11:52:51.809Z</time></trkpt><trkpt lat="38.6140137" lon="20.5576426"><ele>230.25</ele><time>2026-05-01T11:52:52.808Z</time></trkpt><trkpt lat="38.6141625" lon="20.5576465"><ele>230.0</ele><time>2026-05-01T11:52:53.808Z</time></trkpt><trkpt lat="38.6143046" lon="20.5576521"><ele>230.0</ele><time>2026-05-01T11:52:54.808Z</time></trkpt><trkpt lat="38.6144355" lon="20.557654"><ele>230.0</ele><time>2026-05-01T11:52:55.808Z</time></trkpt><trkpt lat="38.6145548" lon="20.5576611"><ele>230.0</ele><time>2026-05-01T11:52:56.808Z</time></trkpt><trkpt lat="38.6146605" lon="20.557682"><ele>230.0</ele><time>2026-05-01T11:52:57.809Z</time></trkpt><trkpt lat="38.6147489" lon="20.5577412"><ele>230.33333333333334</ele><time>2026-05-01T11:52:58.809Z</time></trkpt><trkpt lat="38.6148341" lon="20.5577921"><ele>230.66666666666669</ele><time>2026-05-01T11:52:59.809Z</time></trkpt><trkpt lat="38.6149052" lon="20.557855"><ele>231.0</ele><time>2026-05-01T11:53:00.809Z</time></trkpt><trkpt lat="38.6149596" lon="20.5579365"><ele>231.33333333333331</ele><time>2026-05-01T11:53:01.808Z</time></trkpt><trkpt lat="38.6149916" lon="20.5580383"><ele>231.66666666666666</ele><time>2026-05-01T11:53:02.808Z</time></trkpt><trkpt lat="38.6150078" lon="20.5581419"><ele>232.0</ele><time>2026-05-01T11:53:03.808Z</time></trkpt><trkpt lat="38.6149809" lon="20.5582515"><ele>233.5</ele><time>2026-05-01T11:53:04.809Z</time></trkpt><trkpt lat="38.6149442" lon="20.558403"><ele>235.0</ele><time>2026-05-01T11:53:05.809Z</time></trkpt><trkpt lat="38.6148769" lon="20.5585354"><ele>236.5</ele><time>2026-05-01T11:53:06.808Z</time></trkpt><trkpt lat="38.6147921" lon="20.5586629"><ele>238.0</ele><time>2026-05-01T11:53:07.808Z</time></trkpt><trkpt lat="38.6147117" lon="20.5587807"><ele>239.60000000000002</ele><time>2026-05-01T11:53:08.809Z</time></trkpt><trkpt lat="38.6146312" lon="20.5588795"><ele>241.20000000000002</ele><time>2026-05-01T11:53:09.809Z</time></trkpt><trkpt lat="38.6145652" lon="20.5589797"><ele>242.8</ele><time>2026-05-01T11:53:10.809Z</time></trkpt><trkpt lat="38.6145178" lon="20.5590887"><ele>244.4</ele><time>2026-05-01T11:53:11.809Z</time></trkpt><trkpt lat="38.6144939" lon="20.5591932"><ele>246.0</ele><time>2026-05-01T11:53:12.809Z</time></trkpt><trkpt lat="38.6144885" lon="20.5592966"><ele>246.0</ele><time>2026-05-01T11:53:13.809Z</time></trkpt><trkpt lat="38.6145172" lon="20.5593935"><ele>246.00000000000003</ele><time>2026-05-01T11:53:14.808Z</time></trkpt><trkpt lat="38.6145746" lon="20.5594691"><ele>246.00000000000003</ele><time>2026-05-01T11:53:15.809Z</time></trkpt><trkpt lat="38.6146672" lon="20.5594966"><ele>246.0</ele><time>2026-05-01T11:53:16.809Z</time></trkpt><trkpt lat="38.6147668" lon="20.5594991"><ele>246.0</ele><time>2026-05-01T11:53:17.809Z</time></trkpt><trkpt lat="38.614916" lon="20.559481"><ele>246.0</ele><time>2026-05-01T11:53:18.809Z</time></trkpt><trkpt lat="38.6150915" lon="20.5594786"><ele>246.0</ele><time>2026-05-01T11:53:19.809Z</time></trkpt><trkpt lat="38.6152983" lon="20.559496"><ele>246.0</ele><time>2026-05-01T11:53:20.808Z</time></trkpt><trkpt lat="38.6155097" lon="20.5595023"><ele>246.66666666666669</ele><time>2026-05-01T11:53:21.808Z</time></trkpt><trkpt lat="38.6156823" lon="20.5594983"><ele>247.33333333333334</ele><time>2026-05-01T11:53:22.809Z</time></trkpt><trkpt lat="38.6158556" lon="20.5594901"><ele>248.0</ele><time>2026-05-01T11:53:23.809Z</time></trkpt><trkpt lat="38.6160203" lon="20.5594907"><ele>248.75</ele><time>2026-05-01T11:53:24.809Z</time></trkpt><trkpt lat="38.6161556" lon="20.5594935"><ele>249.5</ele><time>2026-05-01T11:53:25.809Z</time></trkpt><trkpt lat="38.6162977" lon="20.5594895"><ele>250.25</ele><time>2026-05-01T11:53:26.809Z</time></trkpt><trkpt lat="38.616378" lon="20.5594891"><ele>251.0</ele><time>2026-05-01T11:53:27.809Z</time></trkpt><trkpt lat="38.6164757" lon="20.5594861"><ele>251.0</ele><time>2026-05-01T11:53:28.808Z</time></trkpt><trkpt lat="38.6165664" lon="20.5595206"><ele>251.0</ele><time>2026-05-01T11:53:29.809Z</time></trkpt><trkpt lat="38.6166141" lon="20.5596848"><ele>251.0</ele><time>2026-05-01T11:53:30.809Z</time></trkpt><trkpt lat="38.6166864" lon="20.5597901"><ele>251.0</ele><time>2026-05-01T11:53:31.808Z</time></trkpt><trkpt lat="38.6167528" lon="20.5599318"><ele>255.25</ele><time>2026-05-01T11:53:32.809Z</time></trkpt><trkpt lat="38.6167992" lon="20.5600868"><ele>259.5</ele><time>2026-05-01T11:53:33.809Z</time></trkpt><trkpt lat="38.6168176" lon="20.5602555"><ele>263.75</ele><time>2026-05-01T11:53:34.809Z</time></trkpt><trkpt lat="38.6168124" lon="20.5604123"><ele>268.0</ele><time>2026-05-01T11:53:35.809Z</time></trkpt><trkpt lat="38.616821" lon="20.5605586"><ele>271.0</ele><time>2026-05-01T11:53:36.809Z</time></trkpt><trkpt lat="38.6168215" lon="20.5607113"><ele>274.0</ele><time>2026-05-01T11:53:37.809Z</time></trkpt><trkpt lat="38.6168327" lon="20.560832"><ele>277.0</ele><time>2026-05-01T11:53:38.808Z</time></trkpt><trkpt lat="38.6168551" lon="20.5609304"><ele>280.0</ele><time>2026-05-01T11:53:39.809Z</time></trkpt><trkpt lat="38.6168759" lon="20.5610269"><ele>283.0</ele><time>2026-05-01T11:53:40.808Z</time></trkpt><trkpt lat="38.6169824" lon="20.5609217"><ele>284.0</ele><time>2026-05-01T11:53:43.808Z</time></trkpt><trkpt lat="38.6170881" lon="20.5608111"><ele>285.0</ele><time>2026-05-01T11:53:44.809Z</time></trkpt><trkpt lat="38.6171908" lon="20.5607201"><ele>286.0</ele><time>2026-05-01T11:53:45.809Z</time></trkpt><trkpt lat="38.617304" lon="20.5606393"><ele>287.0</ele><time>2026-05-01T11:53:46.809Z</time></trkpt><trkpt lat="38.6174076" lon="20.5605109"><ele>287.0</ele><time>2026-05-01T11:53:47.808Z</time></trkpt><trkpt lat="38.6174999" lon="20.5604204"><ele>287.0</ele><time>2026-05-01T11:53:48.809Z</time></trkpt><trkpt lat="38.6175872" lon="20.560292"><ele>287.0</ele><time>2026-05-01T11:53:49.809Z</time></trkpt><trkpt lat="38.6176919" lon="20.5601793"><ele>287.0</ele><time>2026-05-01T11:53:50.808Z</time></trkpt><trkpt lat="38.617798" lon="20.5600726"><ele>288.0</ele><time>2026-05-01T11:53:51.808Z</time></trkpt><trkpt lat="38.6178829" lon="20.5599778"><ele>289.0</ele><time>2026-05-01T11:53:52.809Z</time></trkpt><trkpt lat="38.6179762" lon="20.5598838"><ele>290.0</ele><time>2026-05-01T11:53:53.809Z</time></trkpt><trkpt lat="38.6180679" lon="20.5598179"><ele>291.0</ele><time>2026-05-01T11:53:54.808Z</time></trkpt><trkpt lat="38.6181848" lon="20.5597683"><ele>291.0</ele><time>2026-05-01T11:53:55.808Z</time></trkpt><trkpt lat="38.6183023" lon="20.5597199"><ele>291.0</ele><time>2026-05-01T11:53:56.809Z</time></trkpt><trkpt lat="38.6184198" lon="20.5596793"><ele>291.0</ele><time>2026-05-01T11:53:57.808Z</time></trkpt><trkpt lat="38.6185196" lon="20.5596491"><ele>291.0</ele><time>2026-05-01T11:53:58.808Z</time></trkpt><trkpt lat="38.6186292" lon="20.5596249"><ele>292.75</ele><time>2026-05-01T11:53:59.809Z</time></trkpt><trkpt lat="38.6187318" lon="20.5596116"><ele>294.5</ele><time>2026-05-01T11:54:00.808Z</time></trkpt><trkpt lat="38.6188429" lon="20.5596241"><ele>296.25</ele><time>2026-05-01T11:54:01.808Z</time></trkpt><trkpt lat="38.6189851" lon="20.5596532"><ele>298.0</ele><time>2026-05-01T11:54:02.809Z</time></trkpt><trkpt lat="38.6191263" lon="20.559704"><ele>298.0</ele><time>2026-05-01T11:54:03.808Z</time></trkpt><trkpt lat="38.6192559" lon="20.5597207"><ele>298.0</ele><time>2026-05-01T11:54:04.808Z</time></trkpt><trkpt lat="38.6193662" lon="20.5597801"><ele>298.0</ele><time>2026-05-01T11:54:05.808Z</time></trkpt><trkpt lat="38.6194825" lon="20.5598759"><ele>298.0</ele><time>2026-05-01T11:54:06.808Z</time></trkpt><trkpt lat="38.6195974" lon="20.5599529"><ele>297.0</ele><time>2026-05-01T11:54:07.809Z</time></trkpt><trkpt lat="38.6197074" lon="20.5600184"><ele>296.0</ele><time>2026-05-01T11:54:08.808Z</time></trkpt><trkpt lat="38.6198178" lon="20.560064"><ele>295.0</ele><time>2026-05-01T11:54:09.808Z</time></trkpt><trkpt lat="38.6199323" lon="20.5600963"><ele>294.0</ele><time>2026-05-01T11:54:10.809Z</time></trkpt><trkpt lat="38.6200492" lon="20.560098"><ele>294.0</ele><time>2026-05-01T11:54:11.809Z</time></trkpt><trkpt lat="38.6201539" lon="20.5601103"><ele>294.0</ele><time>2026-05-01T11:54:12.809Z</time></trkpt><trkpt lat="38.6202461" lon="20.5601308"><ele>294.0</ele><time>2026-05-01T11:54:13.808Z</time></trkpt><trkpt lat="38.6203337" lon="20.5601776"><ele>294.0</ele><time>2026-05-01T11:54:14.808Z</time></trkpt><trkpt lat="38.6204175" lon="20.5602616"><ele>294.0</ele><time>2026-05-01T11:54:15.808Z</time></trkpt><trkpt lat="38.6204963" lon="20.5603762"><ele>295.0</ele><time>2026-05-01T11:54:16.808Z</time></trkpt><trkpt lat="38.6205815" lon="20.560503"><ele>296.0</ele><time>2026-05-01T11:54:17.809Z</time></trkpt><trkpt lat="38.6206645" lon="20.5606232"><ele>297.0</ele><time>2026-05-01T11:54:18.809Z</time></trkpt><trkpt lat="38.6207479" lon="20.5607385"><ele>298.0</ele><time>2026-05-01T11:54:19.809Z</time></trkpt><trkpt lat="38.6208283" lon="20.5608486"><ele>298.0</ele><time>2026-05-01T11:54:20.809Z</time></trkpt><trkpt lat="38.620911" lon="20.5609449"><ele>298.0</ele><time>2026-05-01T11:54:21.808Z</time></trkpt><trkpt lat="38.6209988" lon="20.561035"><ele>298.0</ele><time>2026-05-01T11:54:22.808Z</time></trkpt><trkpt lat="38.6210888" lon="20.5611215"><ele>298.0</ele><time>2026-05-01T11:54:23.809Z</time></trkpt><trkpt lat="38.621183" lon="20.5612044"><ele>298.0</ele><time>2026-05-01T11:54:24.808Z</time></trkpt><trkpt lat="38.6212763" lon="20.561286"><ele>298.0</ele><time>2026-05-01T11:54:25.809Z</time></trkpt><trkpt lat="38.6213688" lon="20.5613699"><ele>298.0</ele><time>2026-05-01T11:54:26.808Z</time></trkpt><trkpt lat="38.6214472" lon="20.561459"><ele>298.0</ele><time>2026-05-01T11:54:27.808Z</time></trkpt><trkpt lat="38.6215225" lon="20.5615445"><ele>298.0</ele><time>2026-05-01T11:54:28.809Z</time></trkpt><trkpt lat="38.6215869" lon="20.5616485"><ele>298.0</ele><time>2026-05-01T11:54:29.808Z</time></trkpt><trkpt lat="38.6216402" lon="20.5617684"><ele>298.0</ele><time>2026-05-01T11:54:30.809Z</time></trkpt><trkpt lat="38.6216827" lon="20.5618898"><ele>298.0</ele><time>2026-05-01T11:54:31.808Z</time></trkpt><trkpt lat="38.6217086" lon="20.5620044"><ele>298.0</ele><time>2026-05-01T11:54:32.808Z</time></trkpt><trkpt lat="38.6217151" lon="20.5621203"><ele>298.0</ele><time>2026-05-01T11:54:33.809Z</time></trkpt><trkpt lat="38.621702" lon="20.5622445"><ele>299.8333333333333</ele><time>2026-05-01T11:54:34.809Z</time></trkpt><trkpt lat="38.6216706" lon="20.562352"><ele>301.66666666666663</ele><time>2026-05-01T11:54:35.808Z</time></trkpt><trkpt lat="38.6216365" lon="20.5624362"><ele>303.5</ele><time>2026-05-01T11:54:36.808Z</time></trkpt><trkpt lat="38.6215983" lon="20.5625281"><ele>305.3333333333333</ele><time>2026-05-01T11:54:37.809Z</time></trkpt><trkpt lat="38.6215774" lon="20.5626102"><ele>307.1666666666667</ele><time>2026-05-01T11:54:38.808Z</time></trkpt><trkpt lat="38.6215786" lon="20.5626911"><ele>309.0</ele><time>2026-05-01T11:54:39.808Z</time></trkpt><trkpt lat="38.6217012" lon="20.5627694"><ele>309.0</ele><time>2026-05-01T11:54:41.809Z</time></trkpt><trkpt lat="38.6217778" lon="20.5627778"><ele>309.0</ele><time>2026-05-01T11:54:42.808Z</time></trkpt><trkpt lat="38.6218828" lon="20.562773"><ele>309.0</ele><time>2026-05-01T11:54:43.808Z</time></trkpt><trkpt lat="38.6219978" lon="20.562775"><ele>309.0</ele><time>2026-05-01T11:54:44.809Z</time></trkpt><trkpt lat="38.6221378" lon="20.5628074"><ele>309.0</ele><time>2026-05-01T11:54:45.808Z</time></trkpt><trkpt lat="38.6222554" lon="20.5628219"><ele>307.4</ele><time>2026-05-01T11:54:46.808Z</time></trkpt><trkpt lat="38.6223536" lon="20.5628615"><ele>305.79999999999995</ele><time>2026-05-01T11:54:47.808Z</time></trkpt><trkpt lat="38.6224343" lon="20.5629208"><ele>304.20000000000005</ele><time>2026-05-01T11:54:48.809Z</time></trkpt><trkpt lat="38.6225103" lon="20.5629716"><ele>302.6</ele><time>2026-05-01T11:54:49.808Z</time></trkpt><trkpt lat="38.622558" lon="20.563027"><ele>301.0</ele><time>2026-05-01T11:54:50.809Z</time></trkpt><trkpt lat="38.6226727" lon="20.5630213"><ele>300.8</ele><time>2026-05-01T11:54:52.808Z</time></trkpt><trkpt lat="38.6227547" lon="20.5629529"><ele>300.6</ele><time>2026-05-01T11:54:53.809Z</time></trkpt><trkpt lat="38.6228197" lon="20.5628565"><ele>300.4</ele><time>2026-05-01T11:54:54.808Z</time></trkpt><trkpt lat="38.6228753" lon="20.5627504"><ele>300.2</ele><time>2026-05-01T11:54:55.809Z</time></trkpt><trkpt lat="38.6229449" lon="20.5627099"><ele>300.0</ele><time>2026-05-01T11:54:56.808Z</time></trkpt><trkpt lat="38.6230513" lon="20.5626561"><ele>300.0</ele><time>2026-05-01T11:54:57.809Z</time></trkpt><trkpt lat="38.623177" lon="20.5626545"><ele>300.0</ele><time>2026-05-01T11:54:58.808Z</time></trkpt><trkpt lat="38.6232983" lon="20.5626464"><ele>300.0</ele><time>2026-05-01T11:54:59.809Z</time></trkpt><trkpt lat="38.6234269" lon="20.5626828"><ele>300.0</ele><time>2026-05-01T11:55:00.808Z</time></trkpt><trkpt lat="38.6235551" lon="20.5627118"><ele>297.75</ele><time>2026-05-01T11:55:01.809Z</time></trkpt><trkpt lat="38.6236787" lon="20.5627944"><ele>295.5</ele><time>2026-05-01T11:55:02.809Z</time></trkpt><trkpt lat="38.6238066" lon="20.5628678"><ele>293.25</ele><time>2026-05-01T11:55:03.808Z</time></trkpt><trkpt lat="38.6239406" lon="20.5629362"><ele>291.0</ele><time>2026-05-01T11:55:04.809Z</time></trkpt><trkpt lat="38.6240787" lon="20.5629915"><ele>294.25</ele><time>2026-05-01T11:55:05.808Z</time></trkpt><trkpt lat="38.6242087" lon="20.5630522"><ele>297.5</ele><time>2026-05-01T11:55:06.808Z</time></trkpt><trkpt lat="38.6243376" lon="20.5631001"><ele>300.75</ele><time>2026-05-01T11:55:07.809Z</time></trkpt><trkpt lat="38.6244686" lon="20.5631559"><ele>304.0</ele><time>2026-05-01T11:55:08.809Z</time></trkpt><trkpt lat="38.6245848" lon="20.5632221"><ele>304.0</ele><time>2026-05-01T11:55:09.808Z</time></trkpt><trkpt lat="38.6247079" lon="20.5632908"><ele>304.0</ele><time>2026-05-01T11:55:10.808Z</time></trkpt><trkpt lat="38.6248292" lon="20.5633534"><ele>304.0</ele><time>2026-05-01T11:55:11.809Z</time></trkpt><trkpt lat="38.6249461" lon="20.5634359"><ele>304.0</ele><time>2026-05-01T11:55:12.809Z</time></trkpt><trkpt lat="38.6250593" lon="20.5635184"><ele>304.0</ele><time>2026-05-01T11:55:13.809Z</time></trkpt><trkpt lat="38.6251618" lon="20.5635888"><ele>304.0</ele><time>2026-05-01T11:55:14.808Z</time></trkpt><trkpt lat="38.6252722" lon="20.5636435"><ele>304.0</ele><time>2026-05-01T11:55:15.809Z</time></trkpt><trkpt lat="38.6253542" lon="20.5636985"><ele>304.0</ele><time>2026-05-01T11:55:16.809Z</time></trkpt><trkpt lat="38.625416" lon="20.5637591"><ele>304.0</ele><time>2026-05-01T11:55:17.808Z</time></trkpt><trkpt lat="38.625475" lon="20.5637962"><ele>305.2</ele><time>2026-05-01T11:55:18.808Z</time></trkpt><trkpt lat="38.6255793" lon="20.5638494"><ele>306.4</ele><time>2026-05-01T11:55:20.809Z</time></trkpt><trkpt lat="38.6256435" lon="20.5637503"><ele>307.6</ele><time>2026-05-01T11:55:22.808Z</time></trkpt><trkpt lat="38.6256435" lon="20.5636533"><ele>308.8</ele><time>2026-05-01T11:55:23.809Z</time></trkpt><trkpt lat="38.6256268" lon="20.5635308"><ele>310.0</ele><time>2026-05-01T11:55:24.809Z</time></trkpt><trkpt lat="38.6256003" lon="20.5634117"><ele>310.0</ele><time>2026-05-01T11:55:25.808Z</time></trkpt><trkpt lat="38.625562" lon="20.5632772"><ele>310.0</ele><time>2026-05-01T11:55:26.808Z</time></trkpt><trkpt lat="38.625508" lon="20.5631392"><ele>310.0</ele><time>2026-05-01T11:55:27.808Z</time></trkpt><trkpt lat="38.6254565" lon="20.5629811"><ele>310.0</ele><time>2026-05-01T11:55:28.809Z</time></trkpt><trkpt lat="38.6254138" lon="20.5628321"><ele>308.6</ele><time>2026-05-01T11:55:29.808Z</time></trkpt><trkpt lat="38.6253702" lon="20.562691"><ele>307.2</ele><time>2026-05-01T11:55:30.809Z</time></trkpt><trkpt lat="38.6253308" lon="20.5625559"><ele>305.8</ele><time>2026-05-01T11:55:31.809Z</time></trkpt><trkpt lat="38.6253045" lon="20.5624376"><ele>304.4</ele><time>2026-05-01T11:55:32.809Z</time></trkpt><trkpt lat="38.6252889" lon="20.5623216"><ele>303.0</ele><time>2026-05-01T11:55:33.808Z</time></trkpt><trkpt lat="38.6252921" lon="20.5622185"><ele>303.0</ele><time>2026-05-01T11:55:34.809Z</time></trkpt><trkpt lat="38.6252985" lon="20.5621317"><ele>303.0</ele><time>2026-05-01T11:55:35.809Z</time></trkpt><trkpt lat="38.6253457" lon="20.5620393"><ele>303.0</ele><time>2026-05-01T11:55:36.809Z</time></trkpt><trkpt lat="38.6253935" lon="20.5619738"><ele>303.0</ele><time>2026-05-01T11:55:37.809Z</time></trkpt><trkpt lat="38.6255082" lon="20.5619263"><ele>303.0</ele><time>2026-05-01T11:55:38.809Z</time></trkpt><trkpt lat="38.6255947" lon="20.5618676"><ele>303.0</ele><time>2026-05-01T11:55:39.809Z</time></trkpt><trkpt lat="38.6256886" lon="20.5617993"><ele>301.6</ele><time>2026-05-01T11:55:40.809Z</time></trkpt><trkpt lat="38.6257747" lon="20.5617322"><ele>300.20000000000005</ele><time>2026-05-01T11:55:41.808Z</time></trkpt><trkpt lat="38.6258598" lon="20.561685"><ele>298.8</ele><time>2026-05-01T11:55:42.809Z</time></trkpt><trkpt lat="38.6259401" lon="20.5616632"><ele>297.40000000000003</ele><time>2026-05-01T11:55:43.809Z</time></trkpt><trkpt lat="38.6260241" lon="20.5616586"><ele>296.0</ele><time>2026-05-01T11:55:44.809Z</time></trkpt><trkpt lat="38.6260982" lon="20.5617248"><ele>295.8</ele><time>2026-05-01T11:55:45.809Z</time></trkpt><trkpt lat="38.6261454" lon="20.5618006"><ele>295.6</ele><time>2026-05-01T11:55:46.809Z</time></trkpt><trkpt lat="38.6261974" lon="20.5618523"><ele>295.4</ele><time>2026-05-01T11:55:47.808Z</time></trkpt><trkpt lat="38.6261861" lon="20.5620019"><ele>295.2</ele><time>2026-05-01T11:55:48.809Z</time></trkpt><trkpt lat="38.6262089" lon="20.5621537"><ele>295.0</ele><time>2026-05-01T11:55:49.808Z</time></trkpt><trkpt lat="38.6262227" lon="20.5623247"><ele>297.0</ele><time>2026-05-01T11:55:50.808Z</time></trkpt><trkpt lat="38.6262435" lon="20.5624783"><ele>299.0</ele><time>2026-05-01T11:55:51.808Z</time></trkpt><trkpt lat="38.6262804" lon="20.5626192"><ele>301.0</ele><time>2026-05-01T11:55:52.808Z</time></trkpt><trkpt lat="38.6263221" lon="20.5627492"><ele>303.0</ele><time>2026-05-01T11:55:53.808Z</time></trkpt><trkpt lat="38.6263676" lon="20.5628604"><ele>305.0</ele><time>2026-05-01T11:55:54.809Z</time></trkpt><trkpt lat="38.6264181" lon="20.56296"><ele>308.2</ele><time>2026-05-01T11:55:55.808Z</time></trkpt><trkpt lat="38.6264728" lon="20.5630444"><ele>311.4</ele><time>2026-05-01T11:55:56.808Z</time></trkpt><trkpt lat="38.626533" lon="20.5631133"><ele>314.6</ele><time>2026-05-01T11:55:57.808Z</time></trkpt><trkpt lat="38.6266187" lon="20.5631667"><ele>317.8</ele><time>2026-05-01T11:55:58.808Z</time></trkpt><trkpt lat="38.6267201" lon="20.563199"><ele>321.0</ele><time>2026-05-01T11:55:59.808Z</time></trkpt><trkpt lat="38.6268223" lon="20.5632317"><ele>321.0</ele><time>2026-05-01T11:56:00.808Z</time></trkpt><trkpt lat="38.62691" lon="20.5632359"><ele>321.0</ele><time>2026-05-01T11:56:01.809Z</time></trkpt><trkpt lat="38.6270114" lon="20.5632089"><ele>321.0</ele><time>2026-05-01T11:56:02.809Z</time></trkpt><trkpt lat="38.6271029" lon="20.5631631"><ele>321.0</ele><time>2026-05-01T11:56:03.809Z</time></trkpt><trkpt lat="38.6271837" lon="20.5631001"><ele>321.0</ele><time>2026-05-01T11:56:04.809Z</time></trkpt><trkpt lat="38.6272555" lon="20.5630173"><ele>320.8</ele><time>2026-05-01T11:56:05.808Z</time></trkpt><trkpt lat="38.627316" lon="20.5629156"><ele>320.6</ele><time>2026-05-01T11:56:06.808Z</time></trkpt><trkpt lat="38.6273653" lon="20.56279"><ele>320.4</ele><time>2026-05-01T11:56:07.809Z</time></trkpt><trkpt lat="38.6274123" lon="20.5626571"><ele>320.2</ele><time>2026-05-01T11:56:08.809Z</time></trkpt><trkpt lat="38.6274482" lon="20.5625357"><ele>320.0</ele><time>2026-05-01T11:56:09.809Z</time></trkpt><trkpt lat="38.6274784" lon="20.5624162"><ele>320.0</ele><time>2026-05-01T11:56:10.808Z</time></trkpt><trkpt lat="38.6275086" lon="20.5623069"><ele>320.0</ele><time>2026-05-01T11:56:11.809Z</time></trkpt><trkpt lat="38.627556" lon="20.5622059"><ele>320.0</ele><time>2026-05-01T11:56:12.809Z</time></trkpt><trkpt lat="38.6276175" lon="20.5621079"><ele>320.0</ele><time>2026-05-01T11:56:13.808Z</time></trkpt><trkpt lat="38.627689" lon="20.5620094"><ele>320.0</ele><time>2026-05-01T11:56:14.808Z</time></trkpt><trkpt lat="38.6277587" lon="20.5619483"><ele>319.4</ele><time>2026-05-01T11:56:15.809Z</time></trkpt><trkpt lat="38.6278538" lon="20.5618908"><ele>318.8</ele><time>2026-05-01T11:56:16.808Z</time></trkpt><trkpt lat="38.6279438" lon="20.5618455"><ele>318.2</ele><time>2026-05-01T11:56:17.808Z</time></trkpt><trkpt lat="38.6280322" lon="20.5617959"><ele>317.6</ele><time>2026-05-01T11:56:18.809Z</time></trkpt><trkpt lat="38.6281203" lon="20.5617478"><ele>317.0</ele><time>2026-05-01T11:56:19.808Z</time></trkpt><trkpt lat="38.628206" lon="20.561721"><ele>317.0</ele><time>2026-05-01T11:56:20.808Z</time></trkpt><trkpt lat="38.6282802" lon="20.5617285"><ele>317.0</ele><time>2026-05-01T11:56:21.809Z</time></trkpt><trkpt lat="38.6283476" lon="20.5617417"><ele>317.0</ele><time>2026-05-01T11:56:22.809Z</time></trkpt><trkpt lat="38.6284379" lon="20.5617705"><ele>317.0</ele><time>2026-05-01T11:56:24.809Z</time></trkpt><trkpt lat="38.6284169" lon="20.5618685"><ele>317.0</ele><time>2026-05-01T11:56:28.808Z</time></trkpt><trkpt lat="38.628328" lon="20.5618918"><ele>317.0</ele><time>2026-05-01T11:56:30.808Z</time></trkpt><trkpt lat="38.6282389" lon="20.5619503"><ele>317.0</ele><time>2026-05-01T11:56:32.808Z</time></trkpt><trkpt lat="38.6281858" lon="20.5619967"><ele>317.0</ele><time>2026-05-01T11:56:33.808Z</time></trkpt><trkpt lat="38.6281319" lon="20.5620637"><ele>317.0</ele><time>2026-05-01T11:56:34.809Z</time></trkpt><trkpt lat="38.6280725" lon="20.5621568"><ele>317.0</ele><time>2026-05-01T11:56:35.808Z</time></trkpt><trkpt lat="38.6280157" lon="20.5622395"><ele>317.0</ele><time>2026-05-01T11:56:36.808Z</time></trkpt><trkpt lat="38.6279694" lon="20.5623384"><ele>317.0</ele><time>2026-05-01T11:56:37.808Z</time></trkpt><trkpt lat="38.627929" lon="20.5624717"><ele>319.75</ele><time>2026-05-01T11:56:38.809Z</time></trkpt><trkpt lat="38.6278903" lon="20.562628"><ele>322.5</ele><time>2026-05-01T11:56:39.809Z</time></trkpt><trkpt lat="38.6278549" lon="20.5627983"><ele>325.25</ele><time>2026-05-01T11:56:40.808Z</time></trkpt><trkpt lat="38.6278175" lon="20.562969"><ele>328.0</ele><time>2026-05-01T11:56:41.808Z</time></trkpt><trkpt lat="38.6277828" lon="20.5631345"><ele>328.2</ele><time>2026-05-01T11:56:42.809Z</time></trkpt><trkpt lat="38.627748" lon="20.5632905"><ele>328.4</ele><time>2026-05-01T11:56:43.808Z</time></trkpt><trkpt lat="38.6277174" lon="20.5634185"><ele>328.59999999999997</ele><time>2026-05-01T11:56:44.808Z</time></trkpt><trkpt lat="38.6276775" lon="20.5635175"><ele>328.79999999999995</ele><time>2026-05-01T11:56:45.809Z</time></trkpt><trkpt lat="38.6276215" lon="20.5636093"><ele>329.0</ele><time>2026-05-01T11:56:46.808Z</time></trkpt><trkpt lat="38.6275386" lon="20.5636741"><ele>331.79999999999995</ele><time>2026-05-01T11:56:47.809Z</time></trkpt><trkpt lat="38.6274391" lon="20.5637122"><ele>334.59999999999997</ele><time>2026-05-01T11:56:48.808Z</time></trkpt><trkpt lat="38.6273302" lon="20.5637333"><ele>337.4</ele><time>2026-05-01T11:56:49.809Z</time></trkpt><trkpt lat="38.6272196" lon="20.5637484"><ele>340.2</ele><time>2026-05-01T11:56:50.808Z</time></trkpt><trkpt lat="38.627108" lon="20.5637505"><ele>343.0</ele><time>2026-05-01T11:56:51.809Z</time></trkpt><trkpt lat="38.6269979" lon="20.5637747"><ele>341.59999999999997</ele><time>2026-05-01T11:56:52.808Z</time></trkpt><trkpt lat="38.6268924" lon="20.5637947"><ele>340.2</ele><time>2026-05-01T11:56:53.808Z</time></trkpt><trkpt lat="38.6267916" lon="20.5638313"><ele>338.8</ele><time>2026-05-01T11:56:54.808Z</time></trkpt><trkpt lat="38.6267062" lon="20.5638891"><ele>337.4</ele><time>2026-05-01T11:56:55.809Z</time></trkpt><trkpt lat="38.6266238" lon="20.5639505"><ele>336.0</ele><time>2026-05-01T11:56:56.808Z</time></trkpt><trkpt lat="38.6265579" lon="20.5640356"><ele>336.0</ele><time>2026-05-01T11:56:57.809Z</time></trkpt><trkpt lat="38.6265019" lon="20.5641578"><ele>336.0</ele><time>2026-05-01T11:56:58.808Z</time></trkpt><trkpt lat="38.6264614" lon="20.5643006"><ele>336.0</ele><time>2026-05-01T11:56:59.809Z</time></trkpt><trkpt lat="38.6264132" lon="20.5644526"><ele>336.0</ele><time>2026-05-01T11:57:00.809Z</time></trkpt><trkpt lat="38.6263682" lon="20.5646054"><ele>338.6</ele><time>2026-05-01T11:57:01.809Z</time></trkpt><trkpt lat="38.6263316" lon="20.5647579"><ele>341.20000000000005</ele><time>2026-05-01T11:57:02.808Z</time></trkpt><trkpt lat="38.6262905" lon="20.5648997"><ele>343.79999999999995</ele><time>2026-05-01T11:57:03.809Z</time></trkpt><trkpt lat="38.6262527" lon="20.5650255"><ele>346.4</ele><time>2026-05-01T11:57:04.809Z</time></trkpt><trkpt lat="38.6262183" lon="20.5651311"><ele>349.0</ele><time>2026-05-01T11:57:05.809Z</time></trkpt><trkpt lat="38.6261903" lon="20.5652198"><ele>345.79999999999995</ele><time>2026-05-01T11:57:06.809Z</time></trkpt><trkpt lat="38.6260941" lon="20.5653016"><ele>342.59999999999997</ele><time>2026-05-01T11:57:08.809Z</time></trkpt><trkpt lat="38.6260291" lon="20.5652942"><ele>339.4</ele><time>2026-05-01T11:57:09.809Z</time></trkpt><trkpt lat="38.6259357" lon="20.5652322"><ele>336.2</ele><time>2026-05-01T11:57:10.809Z</time></trkpt><trkpt lat="38.625842" lon="20.5651523"><ele>333.0</ele><time>2026-05-01T11:57:11.809Z</time></trkpt><trkpt lat="38.6257547" lon="20.5650511"><ele>333.0</ele><time>2026-05-01T11:57:12.808Z</time></trkpt><trkpt lat="38.6256612" lon="20.5649544"><ele>333.0</ele><time>2026-05-01T11:57:13.809Z</time></trkpt><trkpt lat="38.6255766" lon="20.5648636"><ele>333.0</ele><time>2026-05-01T11:57:14.809Z</time></trkpt><trkpt lat="38.6254916" lon="20.5647776"><ele>333.0</ele><time>2026-05-01T11:57:15.808Z</time></trkpt><trkpt lat="38.6253985" lon="20.5646965"><ele>331.75</ele><time>2026-05-01T11:57:16.809Z</time></trkpt><trkpt lat="38.6252874" lon="20.5646348"><ele>330.5</ele><time>2026-05-01T11:57:17.809Z</time></trkpt><trkpt lat="38.6251526" lon="20.5645714"><ele>329.25</ele><time>2026-05-01T11:57:18.808Z</time></trkpt><trkpt lat="38.6250043" lon="20.5645146"><ele>328.0</ele><time>2026-05-01T11:57:19.809Z</time></trkpt><trkpt lat="38.6248633" lon="20.5644595"><ele>328.0</ele><time>2026-05-01T11:57:20.809Z</time></trkpt><trkpt lat="38.6247084" lon="20.56443"><ele>328.0</ele><time>2026-05-01T11:57:21.808Z</time></trkpt><trkpt lat="38.624564" lon="20.5644151"><ele>328.0</ele><time>2026-05-01T11:57:22.808Z</time></trkpt><trkpt lat="38.6244244" lon="20.5644057"><ele>328.0</ele><time>2026-05-01T11:57:23.809Z</time></trkpt><trkpt lat="38.6242841" lon="20.564395"><ele>330.75</ele><time>2026-05-01T11:57:24.809Z</time></trkpt><trkpt lat="38.6241525" lon="20.5643798"><ele>333.5</ele><time>2026-05-01T11:57:25.809Z</time></trkpt><trkpt lat="38.6240047" lon="20.5643652"><ele>336.25</ele><time>2026-05-01T11:57:26.808Z</time></trkpt><trkpt lat="38.6238783" lon="20.5643494"><ele>339.0</ele><time>2026-05-01T11:57:27.808Z</time></trkpt><trkpt lat="38.6237373" lon="20.5643439"><ele>340.25</ele><time>2026-05-01T11:57:28.809Z</time></trkpt><trkpt lat="38.6236129" lon="20.5643509"><ele>341.5</ele><time>2026-05-01T11:57:29.809Z</time></trkpt><trkpt lat="38.6234897" lon="20.5643594"><ele>342.75</ele><time>2026-05-01T11:57:30.808Z</time></trkpt><trkpt lat="38.6233731" lon="20.564367"><ele>344.0</ele><time>2026-05-01T11:57:31.808Z</time></trkpt><trkpt lat="38.6232686" lon="20.5643772"><ele>344.0</ele><time>2026-05-01T11:57:32.809Z</time></trkpt><trkpt lat="38.623173" lon="20.5643891"><ele>344.0</ele><time>2026-05-01T11:57:33.808Z</time></trkpt><trkpt lat="38.6230758" lon="20.5644116"><ele>344.0</ele><time>2026-05-01T11:57:34.809Z</time></trkpt><trkpt lat="38.6229824" lon="20.5644506"><ele>344.0</ele><time>2026-05-01T11:57:35.809Z</time></trkpt><trkpt lat="38.6228927" lon="20.5645053"><ele>344.0</ele><time>2026-05-01T11:57:36.809Z</time></trkpt><trkpt lat="38.622805" lon="20.56455"><ele>344.0</ele><time>2026-05-01T11:57:37.809Z</time></trkpt><trkpt lat="38.6227028" lon="20.5645544"><ele>344.0</ele><time>2026-05-01T11:57:38.809Z</time></trkpt><trkpt lat="38.6225955" lon="20.5645431"><ele>344.0</ele><time>2026-05-01T11:57:39.809Z</time></trkpt><trkpt lat="38.6224839" lon="20.5645207"><ele>344.0</ele><time>2026-05-01T11:57:40.808Z</time></trkpt><trkpt lat="38.6223724" lon="20.5644823"><ele>344.0</ele><time>2026-05-01T11:57:41.808Z</time></trkpt><trkpt lat="38.622264" lon="20.5644432"><ele>344.0</ele><time>2026-05-01T11:57:42.808Z</time></trkpt><trkpt lat="38.622163" lon="20.5644039"><ele>344.0</ele><time>2026-05-01T11:57:43.808Z</time></trkpt><trkpt lat="38.6220627" lon="20.5643718"><ele>344.0</ele><time>2026-05-01T11:57:44.809Z</time></trkpt><trkpt lat="38.6219578" lon="20.5643535"><ele>344.0</ele><time>2026-05-01T11:57:45.808Z</time></trkpt><trkpt lat="38.6218533" lon="20.564344"><ele>344.0</ele><time>2026-05-01T11:57:46.808Z</time></trkpt><trkpt lat="38.6217457" lon="20.5643433"><ele>344.79999999999995</ele><time>2026-05-01T11:57:47.808Z</time></trkpt><trkpt lat="38.6216415" lon="20.5643481"><ele>345.59999999999997</ele><time>2026-05-01T11:57:48.809Z</time></trkpt><trkpt lat="38.6215346" lon="20.5643573"><ele>346.4</ele><time>2026-05-01T11:57:49.809Z</time></trkpt><trkpt lat="38.621428" lon="20.5643684"><ele>347.2</ele><time>2026-05-01T11:57:50.809Z</time></trkpt><trkpt lat="38.6213298" lon="20.5643803"><ele>348.0</ele><time>2026-05-01T11:57:51.809Z</time></trkpt><trkpt lat="38.6212336" lon="20.5644015"><ele>348.4</ele><time>2026-05-01T11:57:52.808Z</time></trkpt><trkpt lat="38.6211299" lon="20.5644427"><ele>348.79999999999995</ele><time>2026-05-01T11:57:53.809Z</time></trkpt><trkpt lat="38.6210369" lon="20.5644917"><ele>349.2</ele><time>2026-05-01T11:57:54.809Z</time></trkpt><trkpt lat="38.6209518" lon="20.5645526"><ele>349.6</ele><time>2026-05-01T11:57:55.808Z</time></trkpt><trkpt lat="38.6208756" lon="20.5646466"><ele>350.0</ele><time>2026-05-01T11:57:56.808Z</time></trkpt><trkpt lat="38.6208194" lon="20.5647543"><ele>354.2</ele><time>2026-05-01T11:57:57.808Z</time></trkpt><trkpt lat="38.6207766" lon="20.5648656"><ele>358.4</ele><time>2026-05-01T11:57:58.808Z</time></trkpt><trkpt lat="38.6207401" lon="20.5649688"><ele>362.6</ele><time>2026-05-01T11:57:59.809Z</time></trkpt><trkpt lat="38.6206962" lon="20.5650486"><ele>366.8</ele><time>2026-05-01T11:58:00.808Z</time></trkpt><trkpt lat="38.6206388" lon="20.5650946"><ele>371.0</ele><time>2026-05-01T11:58:01.808Z</time></trkpt><trkpt lat="38.6204981" lon="20.5650349"><ele>371.0</ele><time>2026-05-01T11:58:03.808Z</time></trkpt><trkpt lat="38.6204176" lon="20.5649328"><ele>371.0</ele><time>2026-05-01T11:58:04.809Z</time></trkpt><trkpt lat="38.6203318" lon="20.564821"><ele>371.0</ele><time>2026-05-01T11:58:05.809Z</time></trkpt><trkpt lat="38.6202433" lon="20.564728"><ele>371.0</ele><time>2026-05-01T11:58:06.808Z</time></trkpt><trkpt lat="38.6201567" lon="20.5646399"><ele>370.4</ele><time>2026-05-01T11:58:07.808Z</time></trkpt><trkpt lat="38.6200801" lon="20.5645597"><ele>369.8</ele><time>2026-05-01T11:58:08.808Z</time></trkpt><trkpt lat="38.6199909" lon="20.5645118"><ele>369.2</ele><time>2026-05-01T11:58:09.809Z</time></trkpt><trkpt lat="38.6198886" lon="20.5644855"><ele>368.59999999999997</ele><time>2026-05-01T11:58:10.808Z</time></trkpt><trkpt lat="38.6197853" lon="20.5644858"><ele>368.0</ele><time>2026-05-01T11:58:11.808Z</time></trkpt><trkpt lat="38.6196863" lon="20.564511"><ele>369.2</ele><time>2026-05-01T11:58:12.809Z</time></trkpt><trkpt lat="38.6195902" lon="20.5645482"><ele>370.4</ele><time>2026-05-01T11:58:13.809Z</time></trkpt><trkpt lat="38.6194991" lon="20.5645979"><ele>371.59999999999997</ele><time>2026-05-01T11:58:14.809Z</time></trkpt><trkpt lat="38.6194097" lon="20.5646502"><ele>372.79999999999995</ele><time>2026-05-01T11:58:15.809Z</time></trkpt><trkpt lat="38.6193212" lon="20.5647105"><ele>374.0</ele><time>2026-05-01T11:58:16.809Z</time></trkpt><trkpt lat="38.6192203" lon="20.5647691"><ele>374.0</ele><time>2026-05-01T11:58:17.808Z</time></trkpt><trkpt lat="38.6191188" lon="20.5648259"><ele>374.0</ele><time>2026-05-01T11:58:18.809Z</time></trkpt><trkpt lat="38.6190138" lon="20.5648754"><ele>374.0</ele><time>2026-05-01T11:58:19.809Z</time></trkpt><trkpt lat="38.6189043" lon="20.5649431"><ele>374.0</ele><time>2026-05-01T11:58:20.808Z</time></trkpt><trkpt lat="38.618783" lon="20.5649832"><ele>374.0</ele><time>2026-05-01T11:58:21.808Z</time></trkpt><trkpt lat="38.6186665" lon="20.5650302"><ele>374.0</ele><time>2026-05-01T11:58:22.809Z</time></trkpt><trkpt lat="38.6185649" lon="20.5650822"><ele>374.0</ele><time>2026-05-01T11:58:23.808Z</time></trkpt><trkpt lat="38.6184691" lon="20.5651435"><ele>374.0</ele><time>2026-05-01T11:58:24.808Z</time></trkpt><trkpt lat="38.618372" lon="20.5652252"><ele>374.0</ele><time>2026-05-01T11:58:25.809Z</time></trkpt><trkpt lat="38.6182885" lon="20.5653184"><ele>374.0</ele><time>2026-05-01T11:58:26.808Z</time></trkpt><trkpt lat="38.6182122" lon="20.5654192"><ele>374.0</ele><time>2026-05-01T11:58:27.809Z</time></trkpt><trkpt lat="38.6181341" lon="20.5655113"><ele>374.0</ele><time>2026-05-01T11:58:28.809Z</time></trkpt><trkpt lat="38.6180499" lon="20.5656152"><ele>374.0</ele><time>2026-05-01T11:58:29.808Z</time></trkpt><trkpt lat="38.6179685" lon="20.5656846"><ele>374.0</ele><time>2026-05-01T11:58:30.809Z</time></trkpt><trkpt lat="38.617899" lon="20.5657685"><ele>374.0</ele><time>2026-05-01T11:58:31.809Z</time></trkpt><trkpt lat="38.6178334" lon="20.5658355"><ele>374.0</ele><time>2026-05-01T11:58:32.809Z</time></trkpt><trkpt lat="38.6177702" lon="20.5658589"><ele>374.0</ele><time>2026-05-01T11:58:33.808Z</time></trkpt><trkpt lat="38.6176932" lon="20.5658788"><ele>374.0</ele><time>2026-05-01T11:58:34.809Z</time></trkpt><trkpt lat="38.6176206" lon="20.5658577"><ele>374.0</ele><time>2026-05-01T11:58:35.809Z</time></trkpt><trkpt lat="38.6175372" lon="20.5658048"><ele>372.6</ele><time>2026-05-01T11:58:36.808Z</time></trkpt><trkpt lat="38.6174488" lon="20.5657476"><ele>371.2</ele><time>2026-05-01T11:58:37.808Z</time></trkpt><trkpt lat="38.6173564" lon="20.565695"><ele>369.8</ele><time>2026-05-01T11:58:38.808Z</time></trkpt><trkpt lat="38.6172732" lon="20.5656467"><ele>368.40000000000003</ele><time>2026-05-01T11:58:39.808Z</time></trkpt><trkpt lat="38.617191" lon="20.5656035"><ele>367.0</ele><time>2026-05-01T11:58:40.808Z</time></trkpt><trkpt lat="38.6171082" lon="20.5655778"><ele>367.0</ele><time>2026-05-01T11:58:41.809Z</time></trkpt><trkpt lat="38.6170074" lon="20.5655783"><ele>367.0</ele><time>2026-05-01T11:58:42.808Z</time></trkpt><trkpt lat="38.6168986" lon="20.5655849"><ele>367.0</ele><time>2026-05-01T11:58:43.809Z</time></trkpt><trkpt lat="38.6167943" lon="20.5655897"><ele>367.0</ele><time>2026-05-01T11:58:44.808Z</time></trkpt><trkpt lat="38.6166922" lon="20.5655849"><ele>367.0</ele><time>2026-05-01T11:58:45.808Z</time></trkpt><trkpt lat="38.61661" lon="20.565552"><ele>367.0</ele><time>2026-05-01T11:58:46.809Z</time></trkpt><trkpt lat="38.6165176" lon="20.5654791"><ele>367.0</ele><time>2026-05-01T11:58:47.808Z</time></trkpt><trkpt lat="38.6164479" lon="20.5653899"><ele>367.0</ele><time>2026-05-01T11:58:48.809Z</time></trkpt><trkpt lat="38.6163659" lon="20.5653175"><ele>367.0</ele><time>2026-05-01T11:58:49.808Z</time></trkpt><trkpt lat="38.6162654" lon="20.5652602"><ele>367.0</ele><time>2026-05-01T11:58:50.809Z</time></trkpt><trkpt lat="38.616158" lon="20.5652171"><ele>364.75</ele><time>2026-05-01T11:58:51.808Z</time></trkpt><trkpt lat="38.6160425" lon="20.5651755"><ele>362.5</ele><time>2026-05-01T11:58:52.809Z</time></trkpt><trkpt lat="38.6159259" lon="20.5651399"><ele>360.25</ele><time>2026-05-01T11:58:53.809Z</time></trkpt><trkpt lat="38.6158067" lon="20.5651022"><ele>358.0</ele><time>2026-05-01T11:58:54.809Z</time></trkpt><trkpt lat="38.6156924" lon="20.5650673"><ele>358.0</ele><time>2026-05-01T11:58:55.809Z</time></trkpt><trkpt lat="38.615588" lon="20.5650477"><ele>358.0</ele><time>2026-05-01T11:58:56.809Z</time></trkpt><trkpt lat="38.6154888" lon="20.5650206"><ele>358.0</ele><time>2026-05-01T11:58:57.809Z</time></trkpt><trkpt lat="38.6153887" lon="20.5649773"><ele>358.0</ele><time>2026-05-01T11:58:58.808Z</time></trkpt><trkpt lat="38.6153058" lon="20.5649156"><ele>358.0</ele><time>2026-05-01T11:58:59.809Z</time></trkpt><trkpt lat="38.6152274" lon="20.5648457"><ele>359.0</ele><time>2026-05-01T11:59:00.808Z</time></trkpt><trkpt lat="38.615145" lon="20.5647892"><ele>360.0</ele><time>2026-05-01T11:59:01.809Z</time></trkpt><trkpt lat="38.6150514" lon="20.5647445"><ele>361.0</ele><time>2026-05-01T11:59:02.808Z</time></trkpt><trkpt lat="38.6149426" lon="20.5647129"><ele>362.0</ele><time>2026-05-01T11:59:03.809Z</time></trkpt><trkpt lat="38.614827" lon="20.5646938"><ele>363.0</ele><time>2026-05-01T11:59:04.809Z</time></trkpt><trkpt lat="38.6147018" lon="20.5646909"><ele>363.0</ele><time>2026-05-01T11:59:05.808Z</time></trkpt><trkpt lat="38.6145757" lon="20.5646876"><ele>363.0</ele><time>2026-05-01T11:59:06.809Z</time></trkpt><trkpt lat="38.6144382" lon="20.5646998"><ele>363.0</ele><time>2026-05-01T11:59:07.808Z</time></trkpt><trkpt lat="38.6143018" lon="20.5647199"><ele>363.0</ele><time>2026-05-01T11:59:08.809Z</time></trkpt><trkpt lat="38.614161" lon="20.5647405"><ele>362.5</ele><time>2026-05-01T11:59:09.808Z</time></trkpt><trkpt lat="38.6140142" lon="20.564764"><ele>362.0</ele><time>2026-05-01T11:59:10.809Z</time></trkpt><trkpt lat="38.6138709" lon="20.5647871"><ele>361.5</ele><time>2026-05-01T11:59:11.809Z</time></trkpt><trkpt lat="38.6137208" lon="20.5648049"><ele>361.0</ele><time>2026-05-01T11:59:12.809Z</time></trkpt><trkpt lat="38.613574" lon="20.5648159"><ele>360.25</ele><time>2026-05-01T11:59:13.808Z</time></trkpt><trkpt lat="38.6134311" lon="20.5648148"><ele>359.5</ele><time>2026-05-01T11:59:14.808Z</time></trkpt><trkpt lat="38.6132929" lon="20.5647889"><ele>358.75</ele><time>2026-05-01T11:59:15.809Z</time></trkpt><trkpt lat="38.6131729" lon="20.5647411"><ele>358.0</ele><time>2026-05-01T11:59:16.809Z</time></trkpt><trkpt lat="38.6130538" lon="20.5646928"><ele>358.0</ele><time>2026-05-01T11:59:17.809Z</time></trkpt><trkpt lat="38.6129452" lon="20.5646595"><ele>358.0</ele><time>2026-05-01T11:59:18.809Z</time></trkpt><trkpt lat="38.6128342" lon="20.5646267"><ele>358.0</ele><time>2026-05-01T11:59:19.809Z</time></trkpt><trkpt lat="38.6127194" lon="20.5645993"><ele>358.0</ele><time>2026-05-01T11:59:20.809Z</time></trkpt><trkpt lat="38.6126001" lon="20.5645711"><ele>359.0</ele><time>2026-05-01T11:59:21.809Z</time></trkpt><trkpt lat="38.6124815" lon="20.5645429"><ele>360.0</ele><time>2026-05-01T11:59:22.808Z</time></trkpt><trkpt lat="38.6123704" lon="20.5645273"><ele>361.0</ele><time>2026-05-01T11:59:23.808Z</time></trkpt><trkpt lat="38.6122747" lon="20.5645287"><ele>362.0</ele><time>2026-05-01T11:59:24.809Z</time></trkpt><trkpt lat="38.6121892" lon="20.5645396"><ele>363.0</ele><time>2026-05-01T11:59:25.809Z</time></trkpt><trkpt lat="38.6121045" lon="20.5645779"><ele>363.0</ele><time>2026-05-01T11:59:26.808Z</time></trkpt><trkpt lat="38.612024" lon="20.5646414"><ele>363.0</ele><time>2026-05-01T11:59:27.808Z</time></trkpt><trkpt lat="38.6119497" lon="20.5647028"><ele>363.0</ele><time>2026-05-01T11:59:28.809Z</time></trkpt><trkpt lat="38.6118718" lon="20.5647522"><ele>363.0</ele><time>2026-05-01T11:59:29.808Z</time></trkpt><trkpt lat="38.6118055" lon="20.5647402"><ele>363.0</ele><time>2026-05-01T11:59:30.808Z</time></trkpt><trkpt lat="38.6117295" lon="20.5647089"><ele>363.0</ele><time>2026-05-01T11:59:31.809Z</time></trkpt><trkpt lat="38.6116382" lon="20.5646347"><ele>361.79999999999995</ele><time>2026-05-01T11:59:32.809Z</time></trkpt><trkpt lat="38.6115506" lon="20.5645694"><ele>360.6</ele><time>2026-05-01T11:59:33.809Z</time></trkpt><trkpt lat="38.6114639" lon="20.564528"><ele>359.4</ele><time>2026-05-01T11:59:34.809Z</time></trkpt><trkpt lat="38.61135" lon="20.5644999"><ele>358.20000000000005</ele><time>2026-05-01T11:59:35.808Z</time></trkpt><trkpt lat="38.6112317" lon="20.5644843"><ele>357.0</ele><time>2026-05-01T11:59:36.809Z</time></trkpt><trkpt lat="38.6110945" lon="20.5644948"><ele>356.75</ele><time>2026-05-01T11:59:37.808Z</time></trkpt><trkpt lat="38.6109733" lon="20.5645129"><ele>356.5</ele><time>2026-05-01T11:59:38.808Z</time></trkpt><trkpt lat="38.610851" lon="20.5645376"><ele>356.25</ele><time>2026-05-01T11:59:39.808Z</time></trkpt><trkpt lat="38.6107447" lon="20.564567"><ele>356.0</ele><time>2026-05-01T11:59:40.808Z</time></trkpt><trkpt lat="38.6106531" lon="20.5646039"><ele>356.0</ele><time>2026-05-01T11:59:41.808Z</time></trkpt><trkpt lat="38.6105682" lon="20.5646649"><ele>356.0</ele><time>2026-05-01T11:59:42.809Z</time></trkpt><trkpt lat="38.6104806" lon="20.5647436"><ele>356.0</ele><time>2026-05-01T11:59:43.808Z</time></trkpt><trkpt lat="38.6104033" lon="20.5648321"><ele>356.0</ele><time>2026-05-01T11:59:44.808Z</time></trkpt><trkpt lat="38.6103264" lon="20.5649298"><ele>356.0</ele><time>2026-05-01T11:59:45.809Z</time></trkpt><trkpt lat="38.6102582" lon="20.565047"><ele>354.25</ele><time>2026-05-01T11:59:46.808Z</time></trkpt><trkpt lat="38.6102081" lon="20.5651914"><ele>352.5</ele><time>2026-05-01T11:59:47.809Z</time></trkpt><trkpt lat="38.6101448" lon="20.5653487"><ele>350.75</ele><time>2026-05-01T11:59:48.808Z</time></trkpt><trkpt lat="38.6100799" lon="20.5655029"><ele>349.0</ele><time>2026-05-01T11:59:49.809Z</time></trkpt><trkpt lat="38.6100035" lon="20.5656397"><ele>348.75</ele><time>2026-05-01T11:59:50.809Z</time></trkpt><trkpt lat="38.6099203" lon="20.5657632"><ele>348.5</ele><time>2026-05-01T11:59:51.808Z</time></trkpt><trkpt lat="38.6098277" lon="20.565883"><ele>348.25</ele><time>2026-05-01T11:59:52.808Z</time></trkpt><trkpt lat="38.6097376" lon="20.566013"><ele>348.0</ele><time>2026-05-01T11:59:53.809Z</time></trkpt><trkpt lat="38.6096576" lon="20.5661521"><ele>347.75</ele><time>2026-05-01T11:59:54.808Z</time></trkpt><trkpt lat="38.6095844" lon="20.5662927"><ele>347.5</ele><time>2026-05-01T11:59:55.808Z</time></trkpt><trkpt lat="38.6095218" lon="20.5664236"><ele>347.25</ele><time>2026-05-01T11:59:56.809Z</time></trkpt><trkpt lat="38.6094611" lon="20.5665498"><ele>347.0</ele><time>2026-05-01T11:59:57.809Z</time></trkpt><trkpt lat="38.6093995" lon="20.5666536"><ele>346.20000000000005</ele><time>2026-05-01T11:59:58.808Z</time></trkpt><trkpt lat="38.6093304" lon="20.5667329"><ele>345.4</ele><time>2026-05-01T11:59:59.808Z</time></trkpt><trkpt lat="38.6092484" lon="20.5667907"><ele>344.6</ele><time>2026-05-01T12:00:00.809Z</time></trkpt><trkpt lat="38.6091577" lon="20.5668167"><ele>343.79999999999995</ele><time>2026-05-01T12:00:01.808Z</time></trkpt><trkpt lat="38.6090576" lon="20.5668206"><ele>343.0</ele><time>2026-05-01T12:00:02.809Z</time></trkpt><trkpt lat="38.6089532" lon="20.5668061"><ele>343.0</ele><time>2026-05-01T12:00:03.809Z</time></trkpt><trkpt lat="38.6088428" lon="20.5667685"><ele>343.0</ele><time>2026-05-01T12:00:04.809Z</time></trkpt><trkpt lat="38.608735" lon="20.5667264"><ele>343.0</ele><time>2026-05-01T12:00:05.809Z</time></trkpt><trkpt lat="38.6086296" lon="20.5666747"><ele>343.0</ele><time>2026-05-01T12:00:06.808Z</time></trkpt><trkpt lat="38.6085203" lon="20.5665949"><ele>343.0</ele><time>2026-05-01T12:00:07.808Z</time></trkpt><trkpt lat="38.6084128" lon="20.5665327"><ele>343.0</ele><time>2026-05-01T12:00:08.809Z</time></trkpt><trkpt lat="38.6083342" lon="20.5664531"><ele>343.0</ele><time>2026-05-01T12:00:09.808Z</time></trkpt><trkpt lat="38.6082858" lon="20.5663715"><ele>343.0</ele><time>2026-05-01T12:00:10.809Z</time></trkpt><trkpt lat="38.6082503" lon="20.5662668"><ele>343.0</ele><time>2026-05-01T12:00:11.808Z</time></trkpt><trkpt lat="38.6082294" lon="20.5661535"><ele>342.0</ele><time>2026-05-01T12:00:12.808Z</time></trkpt><trkpt lat="38.6082405" lon="20.566009"><ele>341.0</ele><time>2026-05-01T12:00:13.809Z</time></trkpt><trkpt lat="38.6082561" lon="20.5658672"><ele>340.0</ele><time>2026-05-01T12:00:14.809Z</time></trkpt><trkpt lat="38.6082779" lon="20.5657021"><ele>339.0</ele><time>2026-05-01T12:00:15.808Z</time></trkpt><trkpt lat="38.6082957" lon="20.5655412"><ele>339.0</ele><time>2026-05-01T12:00:16.809Z</time></trkpt><trkpt lat="38.6083102" lon="20.5653665"><ele>339.0</ele><time>2026-05-01T12:00:17.808Z</time></trkpt><trkpt lat="38.6083198" lon="20.5652013"><ele>339.0</ele><time>2026-05-01T12:00:18.809Z</time></trkpt><trkpt lat="38.6083144" lon="20.5650257"><ele>339.0</ele><time>2026-05-01T12:00:19.808Z</time></trkpt><trkpt lat="38.6082973" lon="20.5648559"><ele>338.25</ele><time>2026-05-01T12:00:20.808Z</time></trkpt><trkpt lat="38.6082685" lon="20.5646701"><ele>337.5</ele><time>2026-05-01T12:00:21.809Z</time></trkpt><trkpt lat="38.6082285" lon="20.5644919"><ele>336.75</ele><time>2026-05-01T12:00:22.809Z</time></trkpt><trkpt lat="38.6081843" lon="20.5643172"><ele>336.0</ele><time>2026-05-01T12:00:23.809Z</time></trkpt><trkpt lat="38.6081448" lon="20.5641323"><ele>335.25</ele><time>2026-05-01T12:00:24.809Z</time></trkpt><trkpt lat="38.6081057" lon="20.563946"><ele>334.5</ele><time>2026-05-01T12:00:25.809Z</time></trkpt><trkpt lat="38.6080653" lon="20.5637684"><ele>333.75</ele><time>2026-05-01T12:00:26.808Z</time></trkpt><trkpt lat="38.6080213" lon="20.5635957"><ele>333.0</ele><time>2026-05-01T12:00:27.809Z</time></trkpt><trkpt lat="38.6079675" lon="20.5634314"><ele>331.25</ele><time>2026-05-01T12:00:28.809Z</time></trkpt><trkpt lat="38.6078995" lon="20.5632742"><ele>329.5</ele><time>2026-05-01T12:00:29.808Z</time></trkpt><trkpt lat="38.6078163" lon="20.5631125"><ele>327.75</ele><time>2026-05-01T12:00:30.808Z</time></trkpt><trkpt lat="38.6077321" lon="20.5629644"><ele>326.0</ele><time>2026-05-01T12:00:31.809Z</time></trkpt><trkpt lat="38.6076482" lon="20.5628199"><ele>329.75</ele><time>2026-05-01T12:00:32.808Z</time></trkpt><trkpt lat="38.607569" lon="20.5626691"><ele>333.5</ele><time>2026-05-01T12:00:33.808Z</time></trkpt><trkpt lat="38.6074921" lon="20.5625226"><ele>337.25</ele><time>2026-05-01T12:00:34.809Z</time></trkpt><trkpt lat="38.6074112" lon="20.5623765"><ele>341.0</ele><time>2026-05-01T12:00:35.808Z</time></trkpt><trkpt lat="38.6073327" lon="20.5622311"><ele>341.0</ele><time>2026-05-01T12:00:36.809Z</time></trkpt><trkpt lat="38.6072467" lon="20.5620876"><ele>341.0</ele><time>2026-05-01T12:00:37.809Z</time></trkpt><trkpt lat="38.6071547" lon="20.5619442"><ele>341.0</ele><time>2026-05-01T12:00:38.809Z</time></trkpt><trkpt lat="38.6070755" lon="20.561798"><ele>341.0</ele><time>2026-05-01T12:00:39.809Z</time></trkpt><trkpt lat="38.6069901" lon="20.5616563"><ele>338.75</ele><time>2026-05-01T12:00:40.808Z</time></trkpt><trkpt lat="38.6069051" lon="20.5615264"><ele>336.5</ele><time>2026-05-01T12:00:41.809Z</time></trkpt><trkpt lat="38.6068147" lon="20.5614105"><ele>334.25</ele><time>2026-05-01T12:00:42.809Z</time></trkpt><trkpt lat="38.6067168" lon="20.5612948"><ele>332.0</ele><time>2026-05-01T12:00:43.808Z</time></trkpt><trkpt lat="38.6066183" lon="20.5611903"><ele>332.0</ele><time>2026-05-01T12:00:44.808Z</time></trkpt><trkpt lat="38.6065119" lon="20.5610933"><ele>332.0</ele><time>2026-05-01T12:00:45.809Z</time></trkpt><trkpt lat="38.6063998" lon="20.5610061"><ele>332.0</ele><time>2026-05-01T12:00:46.808Z</time></trkpt><trkpt lat="38.6062788" lon="20.5609378"><ele>332.0</ele><time>2026-05-01T12:00:47.809Z</time></trkpt><trkpt lat="38.6061565" lon="20.5608756"><ele>334.75</ele><time>2026-05-01T12:00:48.809Z</time></trkpt><trkpt lat="38.6060319" lon="20.5608223"><ele>337.5</ele><time>2026-05-01T12:00:49.808Z</time></trkpt><trkpt lat="38.6058962" lon="20.5607766"><ele>340.25</ele><time>2026-05-01T12:00:50.809Z</time></trkpt><trkpt lat="38.6057738" lon="20.5607336"><ele>343.0</ele><time>2026-05-01T12:00:51.809Z</time></trkpt><trkpt lat="38.6056496" lon="20.5606928"><ele>343.0</ele><time>2026-05-01T12:00:52.808Z</time></trkpt><trkpt lat="38.6055252" lon="20.560653"><ele>343.0</ele><time>2026-05-01T12:00:53.809Z</time></trkpt><trkpt lat="38.6054037" lon="20.5606183"><ele>343.0</ele><time>2026-05-01T12:00:54.808Z</time></trkpt><trkpt lat="38.6052813" lon="20.5605868"><ele>343.0</ele><time>2026-05-01T12:00:55.809Z</time></trkpt><trkpt lat="38.6051595" lon="20.5605574"><ele>345.25</ele><time>2026-05-01T12:00:56.809Z</time></trkpt><trkpt lat="38.6050374" lon="20.5605286"><ele>347.5</ele><time>2026-05-01T12:00:57.808Z</time></trkpt><trkpt lat="38.6049123" lon="20.5605007"><ele>349.75</ele><time>2026-05-01T12:00:58.809Z</time></trkpt><trkpt lat="38.6047864" lon="20.5604731"><ele>352.0</ele><time>2026-05-01T12:00:59.808Z</time></trkpt><trkpt lat="38.6046583" lon="20.5604466"><ele>352.0</ele><time>2026-05-01T12:01:00.809Z</time></trkpt><trkpt lat="38.6045378" lon="20.5604234"><ele>352.0</ele><time>2026-05-01T12:01:01.809Z</time></trkpt><trkpt lat="38.6044175" lon="20.5603929"><ele>352.0</ele><time>2026-05-01T12:01:02.808Z</time></trkpt><trkpt lat="38.6043045" lon="20.5603594"><ele>352.0</ele><time>2026-05-01T12:01:03.808Z</time></trkpt><trkpt lat="38.6041968" lon="20.5602942"><ele>345.5</ele><time>2026-05-01T12:01:04.808Z</time></trkpt><trkpt lat="38.6040961" lon="20.5602157"><ele>339.0</ele><time>2026-05-01T12:01:05.809Z</time></trkpt><trkpt lat="38.6040033" lon="20.5601067"><ele>332.5</ele><time>2026-05-01T12:01:06.808Z</time></trkpt><trkpt lat="38.6039161" lon="20.5600033"><ele>326.0</ele><time>2026-05-01T12:01:07.809Z</time></trkpt><trkpt lat="38.6038315" lon="20.5599082"><ele>326.0</ele><time>2026-05-01T12:01:08.809Z</time></trkpt><trkpt lat="38.6037439" lon="20.5598156"><ele>326.0</ele><time>2026-05-01T12:01:09.808Z</time></trkpt><trkpt lat="38.6036516" lon="20.5597346"><ele>326.0</ele><time>2026-05-01T12:01:10.809Z</time></trkpt><trkpt lat="38.6035599" lon="20.559674"><ele>326.0</ele><time>2026-05-01T12:01:11.808Z</time></trkpt><trkpt lat="38.6034626" lon="20.5596057"><ele>326.0</ele><time>2026-05-01T12:01:12.809Z</time></trkpt><trkpt lat="38.6033641" lon="20.5595353"><ele>324.6</ele><time>2026-05-01T12:01:13.809Z</time></trkpt><trkpt lat="38.6032628" lon="20.5594744"><ele>323.20000000000005</ele><time>2026-05-01T12:01:14.808Z</time></trkpt><trkpt lat="38.603158" lon="20.5594225"><ele>321.79999999999995</ele><time>2026-05-01T12:01:15.808Z</time></trkpt><trkpt lat="38.6030555" lon="20.559376"><ele>320.4</ele><time>2026-05-01T12:01:16.808Z</time></trkpt><trkpt lat="38.6029538" lon="20.5593267"><ele>319.0</ele><time>2026-05-01T12:01:17.809Z</time></trkpt><trkpt lat="38.60286" lon="20.5592774"><ele>320.0</ele><time>2026-05-01T12:01:18.809Z</time></trkpt><trkpt lat="38.6027597" lon="20.5592503"><ele>321.0</ele><time>2026-05-01T12:01:19.809Z</time></trkpt><trkpt lat="38.6026575" lon="20.5592524"><ele>322.0</ele><time>2026-05-01T12:01:20.808Z</time></trkpt><trkpt lat="38.602559" lon="20.5592773"><ele>323.0</ele><time>2026-05-01T12:01:21.808Z</time></trkpt><trkpt lat="38.6024633" lon="20.5593282"><ele>324.0</ele><time>2026-05-01T12:01:22.809Z</time></trkpt><trkpt lat="38.6023723" lon="20.5594058"><ele>324.0</ele><time>2026-05-01T12:01:23.809Z</time></trkpt><trkpt lat="38.6022839" lon="20.5594907"><ele>324.0</ele><time>2026-05-01T12:01:24.808Z</time></trkpt><trkpt lat="38.6021957" lon="20.5595853"><ele>324.0</ele><time>2026-05-01T12:01:25.809Z</time></trkpt><trkpt lat="38.6021041" lon="20.5596848"><ele>324.0</ele><time>2026-05-01T12:01:26.809Z</time></trkpt><trkpt lat="38.6020032" lon="20.5597681"><ele>324.75</ele><time>2026-05-01T12:01:27.808Z</time></trkpt><trkpt lat="38.6018942" lon="20.5598269"><ele>325.5</ele><time>2026-05-01T12:01:28.808Z</time></trkpt><trkpt lat="38.6017751" lon="20.559878"><ele>326.25</ele><time>2026-05-01T12:01:29.809Z</time></trkpt><trkpt lat="38.6016566" lon="20.5599164"><ele>327.0</ele><time>2026-05-01T12:01:30.809Z</time></trkpt><trkpt lat="38.6015481" lon="20.5599411"><ele>327.0</ele><time>2026-05-01T12:01:31.809Z</time></trkpt><trkpt lat="38.601445" lon="20.5599735"><ele>327.0</ele><time>2026-05-01T12:01:32.809Z</time></trkpt><trkpt lat="38.6013517" lon="20.5599844"><ele>327.0</ele><time>2026-05-01T12:01:33.809Z</time></trkpt><trkpt lat="38.6012716" lon="20.5599472"><ele>327.0</ele><time>2026-05-01T12:01:34.808Z</time></trkpt><trkpt lat="38.6011925" lon="20.5598773"><ele>327.0</ele><time>2026-05-01T12:01:35.808Z</time></trkpt><trkpt lat="38.6011265" lon="20.5597876"><ele>327.25</ele><time>2026-05-01T12:01:36.809Z</time></trkpt><trkpt lat="38.6010542" lon="20.5596941"><ele>327.5</ele><time>2026-05-01T12:01:37.809Z</time></trkpt><trkpt lat="38.6009868" lon="20.5595769"><ele>327.75</ele><time>2026-05-01T12:01:38.808Z</time></trkpt><trkpt lat="38.6009317" lon="20.5594292"><ele>328.0</ele><time>2026-05-01T12:01:39.809Z</time></trkpt><trkpt lat="38.6008706" lon="20.5592948"><ele>324.75</ele><time>2026-05-01T12:01:40.808Z</time></trkpt><trkpt lat="38.6008071" lon="20.5591694"><ele>321.5</ele><time>2026-05-01T12:01:41.809Z</time></trkpt><trkpt lat="38.6007314" lon="20.5590496"><ele>318.25</ele><time>2026-05-01T12:01:42.808Z</time></trkpt><trkpt lat="38.600651" lon="20.5589499"><ele>315.0</ele><time>2026-05-01T12:01:43.808Z</time></trkpt><trkpt lat="38.6005667" lon="20.5588574"><ele>315.0</ele><time>2026-05-01T12:01:44.808Z</time></trkpt><trkpt lat="38.600481" lon="20.5587659"><ele>315.0</ele><time>2026-05-01T12:01:45.809Z</time></trkpt><trkpt lat="38.6003949" lon="20.5586815"><ele>315.0</ele><time>2026-05-01T12:01:46.809Z</time></trkpt><trkpt lat="38.6003016" lon="20.5586081"><ele>315.0</ele><time>2026-05-01T12:01:47.809Z</time></trkpt><trkpt lat="38.6002011" lon="20.5585513"><ele>315.0</ele><time>2026-05-01T12:01:48.809Z</time></trkpt><trkpt lat="38.600102" lon="20.5585129"><ele>313.2</ele><time>2026-05-01T12:01:49.809Z</time></trkpt><trkpt lat="38.6000001" lon="20.5584815"><ele>311.4</ele><time>2026-05-01T12:01:50.808Z</time></trkpt><trkpt lat="38.5999006" lon="20.5584502"><ele>309.6</ele><time>2026-05-01T12:01:51.809Z</time></trkpt><trkpt lat="38.5997949" lon="20.5584203"><ele>307.8</ele><time>2026-05-01T12:01:52.809Z</time></trkpt><trkpt lat="38.5996887" lon="20.55839"><ele>306.0</ele><time>2026-05-01T12:01:53.809Z</time></trkpt><trkpt lat="38.5995786" lon="20.5583562"><ele>305.75</ele><time>2026-05-01T12:01:54.808Z</time></trkpt><trkpt lat="38.5994771" lon="20.5582922"><ele>305.5</ele><time>2026-05-01T12:01:55.808Z</time></trkpt><trkpt lat="38.5993905" lon="20.5582075"><ele>305.25</ele><time>2026-05-01T12:01:56.809Z</time></trkpt><trkpt lat="38.5993014" lon="20.5581104"><ele>305.0</ele><time>2026-05-01T12:01:57.808Z</time></trkpt><trkpt lat="38.5992058" lon="20.5580088"><ele>305.0</ele><time>2026-05-01T12:01:58.808Z</time></trkpt><trkpt lat="38.5991098" lon="20.5579097"><ele>305.0</ele><time>2026-05-01T12:01:59.808Z</time></trkpt><trkpt lat="38.5990163" lon="20.557816"><ele>305.0</ele><time>2026-05-01T12:02:00.809Z</time></trkpt><trkpt lat="38.5989126" lon="20.5577203"><ele>305.0</ele><time>2026-05-01T12:02:01.809Z</time></trkpt><trkpt lat="38.5988231" lon="20.5576158"><ele>304.0</ele><time>2026-05-01T12:02:02.809Z</time></trkpt><trkpt lat="38.5987324" lon="20.5575041"><ele>303.0</ele><time>2026-05-01T12:02:03.808Z</time></trkpt><trkpt lat="38.5986543" lon="20.5573767"><ele>302.0</ele><time>2026-05-01T12:02:04.809Z</time></trkpt><trkpt lat="38.5985763" lon="20.5572496"><ele>301.0</ele><time>2026-05-01T12:02:05.809Z</time></trkpt><trkpt lat="38.5984921" lon="20.5571251"><ele>298.75</ele><time>2026-05-01T12:02:06.809Z</time></trkpt><trkpt lat="38.5984139" lon="20.5569995"><ele>296.5</ele><time>2026-05-01T12:02:07.809Z</time></trkpt><trkpt lat="38.5983442" lon="20.5568773"><ele>294.25</ele><time>2026-05-01T12:02:08.809Z</time></trkpt><trkpt lat="38.5982788" lon="20.5567499"><ele>292.0</ele><time>2026-05-01T12:02:09.808Z</time></trkpt><trkpt lat="38.5982263" lon="20.5566255"><ele>292.0</ele><time>2026-05-01T12:02:10.809Z</time></trkpt><trkpt lat="38.5981891" lon="20.5564991"><ele>292.0</ele><time>2026-05-01T12:02:11.809Z</time></trkpt><trkpt lat="38.598156" lon="20.5563798"><ele>292.0</ele><time>2026-05-01T12:02:12.809Z</time></trkpt><trkpt lat="38.5981137" lon="20.5562677"><ele>292.0</ele><time>2026-05-01T12:02:13.809Z</time></trkpt><trkpt lat="38.5980494" lon="20.5561744"><ele>292.0</ele><time>2026-05-01T12:02:14.809Z</time></trkpt><trkpt lat="38.5979638" lon="20.5561031"><ele>292.6</ele><time>2026-05-01T12:02:15.809Z</time></trkpt><trkpt lat="38.5978719" lon="20.5560604"><ele>293.2</ele><time>2026-05-01T12:02:16.809Z</time></trkpt><trkpt lat="38.5977735" lon="20.5560348"><ele>293.8</ele><time>2026-05-01T12:02:17.809Z</time></trkpt><trkpt lat="38.5976714" lon="20.5560222"><ele>294.4</ele><time>2026-05-01T12:02:18.809Z</time></trkpt><trkpt lat="38.597572" lon="20.5560101"><ele>295.0</ele><time>2026-05-01T12:02:19.809Z</time></trkpt><trkpt lat="38.5974745" lon="20.5559848"><ele>293.4</ele><time>2026-05-01T12:02:20.809Z</time></trkpt><trkpt lat="38.5973821" lon="20.5559484"><ele>291.8</ele><time>2026-05-01T12:02:21.809Z</time></trkpt><trkpt lat="38.5973006" lon="20.5559028"><ele>290.2</ele><time>2026-05-01T12:02:22.809Z</time></trkpt><trkpt lat="38.5972308" lon="20.5558382"><ele>288.6</ele><time>2026-05-01T12:02:23.808Z</time></trkpt><trkpt lat="38.5971617" lon="20.5557484"><ele>287.0</ele><time>2026-05-01T12:02:24.809Z</time></trkpt><trkpt lat="38.5971111" lon="20.5556402"><ele>287.0</ele><time>2026-05-01T12:02:25.808Z</time></trkpt><trkpt lat="38.5970461" lon="20.5555353"><ele>287.0</ele><time>2026-05-01T12:02:26.809Z</time></trkpt><trkpt lat="38.5969918" lon="20.5554164"><ele>287.0</ele><time>2026-05-01T12:02:27.809Z</time></trkpt><trkpt lat="38.5969265" lon="20.5553049"><ele>287.0</ele><time>2026-05-01T12:02:28.809Z</time></trkpt><trkpt lat="38.5968461" lon="20.5552017"><ele>287.0</ele><time>2026-05-01T12:02:29.809Z</time></trkpt><trkpt lat="38.5967539" lon="20.5551157"><ele>284.6</ele><time>2026-05-01T12:02:30.808Z</time></trkpt><trkpt lat="38.5966731" lon="20.5550417"><ele>282.2</ele><time>2026-05-01T12:02:31.809Z</time></trkpt><trkpt lat="38.5965884" lon="20.5549727"><ele>279.8</ele><time>2026-05-01T12:02:32.809Z</time></trkpt><trkpt lat="38.5964974" lon="20.5549046"><ele>277.4</ele><time>2026-05-01T12:02:33.808Z</time></trkpt><trkpt lat="38.5964238" lon="20.5548251"><ele>275.0</ele><time>2026-05-01T12:02:34.808Z</time></trkpt><trkpt lat="38.5963599" lon="20.5547388"><ele>275.0</ele><time>2026-05-01T12:02:35.809Z</time></trkpt><trkpt lat="38.5963026" lon="20.5546443"><ele>275.0</ele><time>2026-05-01T12:02:36.809Z</time></trkpt><trkpt lat="38.5962503" lon="20.5545386"><ele>275.0</ele><time>2026-05-01T12:02:37.809Z</time></trkpt><trkpt lat="38.5962084" lon="20.5544346"><ele>275.0</ele><time>2026-05-01T12:02:38.809Z</time></trkpt><trkpt lat="38.5961668" lon="20.5543259"><ele>275.0</ele><time>2026-05-01T12:02:39.809Z</time></trkpt><trkpt lat="38.5961163" lon="20.5542176"><ele>273.0</ele><time>2026-05-01T12:02:40.809Z</time></trkpt><trkpt lat="38.5960571" lon="20.5541174"><ele>271.0</ele><time>2026-05-01T12:02:41.809Z</time></trkpt><trkpt lat="38.596" lon="20.554014"><ele>269.0</ele><time>2026-05-01T12:02:42.808Z</time></trkpt><trkpt lat="38.5959427" lon="20.5539119"><ele>267.0</ele><time>2026-05-01T12:02:43.809Z</time></trkpt><trkpt lat="38.5958856" lon="20.5538108"><ele>265.0</ele><time>2026-05-01T12:02:44.809Z</time></trkpt><trkpt lat="38.5958309" lon="20.5536905"><ele>265.0</ele><time>2026-05-01T12:02:45.809Z</time></trkpt><trkpt lat="38.5957741" lon="20.5535803"><ele>265.0</ele><time>2026-05-01T12:02:46.808Z</time></trkpt><trkpt lat="38.5957203" lon="20.5534773"><ele>265.0</ele><time>2026-05-01T12:02:47.808Z</time></trkpt><trkpt lat="38.5956647" lon="20.5533661"><ele>265.0</ele><time>2026-05-01T12:02:48.809Z</time></trkpt><trkpt lat="38.5956029" lon="20.5532624"><ele>265.0</ele><time>2026-05-01T12:02:49.808Z</time></trkpt><trkpt lat="38.5955553" lon="20.5531495"><ele>265.0</ele><time>2026-05-01T12:02:50.809Z</time></trkpt><trkpt lat="38.5955032" lon="20.5530347"><ele>265.0</ele><time>2026-05-01T12:02:51.809Z</time></trkpt><trkpt lat="38.5954466" lon="20.5529269"><ele>265.0</ele><time>2026-05-01T12:02:52.809Z</time></trkpt><trkpt lat="38.5953909" lon="20.5528177"><ele>265.0</ele><time>2026-05-01T12:02:53.809Z</time></trkpt><trkpt lat="38.5953384" lon="20.5527128"><ele>265.0</ele><time>2026-05-01T12:02:54.809Z</time></trkpt><trkpt lat="38.5952803" lon="20.552611"><ele>261.5</ele><time>2026-05-01T12:02:55.809Z</time></trkpt><trkpt lat="38.5952251" lon="20.5525177"><ele>258.0</ele><time>2026-05-01T12:02:56.809Z</time></trkpt><trkpt lat="38.59517" lon="20.5524495"><ele>254.5</ele><time>2026-05-01T12:02:57.808Z</time></trkpt><trkpt lat="38.595133" lon="20.5523762"><ele>251.0</ele><time>2026-05-01T12:02:58.809Z</time></trkpt><trkpt lat="38.5951008" lon="20.5522993"><ele>247.49999999999997</ele><time>2026-05-01T12:02:59.808Z</time></trkpt><trkpt lat="38.5950349" lon="20.552186"><ele>244.0</ele><time>2026-05-01T12:03:01.809Z</time></trkpt><trkpt lat="38.594947" lon="20.5521933"><ele>244.0</ele><time>2026-05-01T12:03:03.809Z</time></trkpt><trkpt lat="38.5949206" lon="20.552307"><ele>243.99999999999997</ele><time>2026-05-01T12:03:05.808Z</time></trkpt><trkpt lat="38.594931" lon="20.5524677"><ele>243.99999999999997</ele><time>2026-05-01T12:03:07.809Z</time></trkpt><trkpt lat="38.5949461" lon="20.5525701"><ele>244.0</ele><time>2026-05-01T12:03:08.808Z</time></trkpt><trkpt lat="38.5949545" lon="20.5526771"><ele>244.0</ele><time>2026-05-01T12:03:09.808Z</time></trkpt><trkpt lat="38.5949625" lon="20.5527886"><ele>242.79999999999998</ele><time>2026-05-01T12:03:10.808Z</time></trkpt><trkpt lat="38.5949906" lon="20.5529093"><ele>241.59999999999997</ele><time>2026-05-01T12:03:11.809Z</time></trkpt><trkpt lat="38.5949982" lon="20.5530354"><ele>240.4</ele><time>2026-05-01T12:03:12.809Z</time></trkpt><trkpt lat="38.5950039" lon="20.5531764"><ele>239.2</ele><time>2026-05-01T12:03:13.809Z</time></trkpt><trkpt lat="38.5950063" lon="20.5533112"><ele>238.0</ele><time>2026-05-01T12:03:14.809Z</time></trkpt><trkpt lat="38.595008" lon="20.5534448"><ele>238.0</ele><time>2026-05-01T12:03:15.809Z</time></trkpt><trkpt lat="38.5950086" lon="20.553582"><ele>238.0</ele><time>2026-05-01T12:03:16.809Z</time></trkpt><trkpt lat="38.5950151" lon="20.5537219"><ele>238.0</ele><time>2026-05-01T12:03:17.808Z</time></trkpt><trkpt lat="38.5950222" lon="20.5538595"><ele>238.0</ele><time>2026-05-01T12:03:18.809Z</time></trkpt><trkpt lat="38.5950236" lon="20.5539982"><ele>238.0</ele><time>2026-05-01T12:03:19.808Z</time></trkpt><trkpt lat="38.5950311" lon="20.5541419"><ele>237.0</ele><time>2026-05-01T12:03:20.808Z</time></trkpt><trkpt lat="38.5950427" lon="20.5542751"><ele>236.0</ele><time>2026-05-01T12:03:21.808Z</time></trkpt><trkpt lat="38.5950551" lon="20.5544134"><ele>235.0</ele><time>2026-05-01T12:03:22.808Z</time></trkpt><trkpt lat="38.5950576" lon="20.5545487"><ele>234.0</ele><time>2026-05-01T12:03:23.808Z</time></trkpt><trkpt lat="38.5950542" lon="20.5546933"><ele>233.0</ele><time>2026-05-01T12:03:24.808Z</time></trkpt><trkpt lat="38.5950461" lon="20.5548407"><ele>232.2</ele><time>2026-05-01T12:03:25.809Z</time></trkpt><trkpt lat="38.5950277" lon="20.5549853"><ele>231.4</ele><time>2026-05-01T12:03:26.809Z</time></trkpt><trkpt lat="38.5950288" lon="20.5551409"><ele>230.59999999999997</ele><time>2026-05-01T12:03:27.808Z</time></trkpt><trkpt lat="38.595005" lon="20.5552746"><ele>229.79999999999998</ele><time>2026-05-01T12:03:28.809Z</time></trkpt><trkpt lat="38.5949738" lon="20.5554031"><ele>229.0</ele><time>2026-05-01T12:03:29.809Z</time></trkpt><trkpt lat="38.5949421" lon="20.5555345"><ele>228.0</ele><time>2026-05-01T12:03:30.808Z</time></trkpt><trkpt lat="38.5949182" lon="20.5556716"><ele>226.99999999999997</ele><time>2026-05-01T12:03:31.809Z</time></trkpt><trkpt lat="38.5948978" lon="20.5557963"><ele>225.99999999999997</ele><time>2026-05-01T12:03:32.808Z</time></trkpt><trkpt lat="38.5948841" lon="20.555923"><ele>225.0</ele><time>2026-05-01T12:03:33.809Z</time></trkpt><trkpt lat="38.5948747" lon="20.5560263"><ele>224.0</ele><time>2026-05-01T12:03:34.809Z</time></trkpt><trkpt lat="38.5948792" lon="20.556114"><ele>224.00000000000003</ele><time>2026-05-01T12:03:35.808Z</time></trkpt><trkpt lat="38.5948452" lon="20.5562203"><ele>224.0</ele><time>2026-05-01T12:03:37.808Z</time></trkpt><trkpt lat="38.5947621" lon="20.5561909"><ele>224.0</ele><time>2026-05-01T12:03:39.809Z</time></trkpt><trkpt lat="38.5947183" lon="20.556118"><ele>224.0</ele><time>2026-05-01T12:03:40.809Z</time></trkpt><trkpt lat="38.5946789" lon="20.5560147"><ele>224.00000000000003</ele><time>2026-05-01T12:03:41.808Z</time></trkpt><trkpt lat="38.594647" lon="20.5559011"><ele>224.0</ele><time>2026-05-01T12:03:42.809Z</time></trkpt><trkpt lat="38.5946156" lon="20.5557777"><ele>224.0</ele><time>2026-05-01T12:03:43.808Z</time></trkpt><trkpt lat="38.5945803" lon="20.5556489"><ele>224.0</ele><time>2026-05-01T12:03:44.809Z</time></trkpt><trkpt lat="38.5945512" lon="20.5554968"><ele>224.0</ele><time>2026-05-01T12:03:45.809Z</time></trkpt><trkpt lat="38.5945099" lon="20.5553609"><ele>224.0</ele><time>2026-05-01T12:03:46.808Z</time></trkpt><trkpt lat="38.5944726" lon="20.555227"><ele>219.75</ele><time>2026-05-01T12:03:47.808Z</time></trkpt><trkpt lat="38.594438" lon="20.5550987"><ele>215.5</ele><time>2026-05-01T12:03:48.808Z</time></trkpt><trkpt lat="38.594401" lon="20.5549628"><ele>211.25</ele><time>2026-05-01T12:03:49.809Z</time></trkpt><trkpt lat="38.5943541" lon="20.5548327"><ele>207.0</ele><time>2026-05-01T12:03:50.808Z</time></trkpt><trkpt lat="38.5942978" lon="20.5546866"><ele>207.0</ele><time>2026-05-01T12:03:51.808Z</time></trkpt><trkpt lat="38.5942528" lon="20.5545523"><ele>207.0</ele><time>2026-05-01T12:03:52.809Z</time></trkpt><trkpt lat="38.5942058" lon="20.5544225"><ele>207.0</ele><time>2026-05-01T12:03:53.809Z</time></trkpt><trkpt lat="38.5941492" lon="20.5543002"><ele>207.0</ele><time>2026-05-01T12:03:54.808Z</time></trkpt><trkpt lat="38.5941037" lon="20.5541679"><ele>207.0</ele><time>2026-05-01T12:03:55.809Z</time></trkpt><trkpt lat="38.594051" lon="20.5540438"><ele>207.0</ele><time>2026-05-01T12:03:56.809Z</time></trkpt><trkpt lat="38.5939978" lon="20.553911"><ele>207.0</ele><time>2026-05-01T12:03:57.808Z</time></trkpt><trkpt lat="38.5939421" lon="20.5537828"><ele>207.0</ele><time>2026-05-01T12:03:58.809Z</time></trkpt><trkpt lat="38.5938793" lon="20.5536657"><ele>208.0</ele><time>2026-05-01T12:03:59.808Z</time></trkpt><trkpt lat="38.5938221" lon="20.5535425"><ele>209.0</ele><time>2026-05-01T12:04:00.809Z</time></trkpt><trkpt lat="38.5937663" lon="20.5534235"><ele>210.0</ele><time>2026-05-01T12:04:01.808Z</time></trkpt><trkpt lat="38.5937195" lon="20.5532967"><ele>211.0</ele><time>2026-05-01T12:04:02.808Z</time></trkpt><trkpt lat="38.5936755" lon="20.5531625"><ele>212.0</ele><time>2026-05-01T12:04:03.808Z</time></trkpt><trkpt lat="38.5936248" lon="20.5530281"><ele>208.0</ele><time>2026-05-01T12:04:04.809Z</time></trkpt><trkpt lat="38.5935823" lon="20.5529017"><ele>204.0</ele><time>2026-05-01T12:04:05.809Z</time></trkpt><trkpt lat="38.5935446" lon="20.5527776"><ele>200.0</ele><time>2026-05-01T12:04:06.809Z</time></trkpt><trkpt lat="38.5935133" lon="20.5526534"><ele>196.0</ele><time>2026-05-01T12:04:07.808Z</time></trkpt><trkpt lat="38.5934935" lon="20.5525365"><ele>192.0</ele><time>2026-05-01T12:04:08.808Z</time></trkpt><trkpt lat="38.5934858" lon="20.5524355"><ele>192.0</ele><time>2026-05-01T12:04:09.808Z</time></trkpt><trkpt lat="38.593442" lon="20.5523049"><ele>192.0</ele><time>2026-05-01T12:04:11.809Z</time></trkpt><trkpt lat="38.5933766" lon="20.5522954"><ele>192.0</ele><time>2026-05-01T12:04:13.809Z</time></trkpt><trkpt lat="38.593325" lon="20.5524218"><ele>192.0</ele><time>2026-05-01T12:04:15.809Z</time></trkpt><trkpt lat="38.5932999" lon="20.5525083"><ele>192.0</ele><time>2026-05-01T12:04:16.808Z</time></trkpt><trkpt lat="38.5932678" lon="20.552595"><ele>192.0</ele><time>2026-05-01T12:04:17.809Z</time></trkpt><trkpt lat="38.5932225" lon="20.5526633"><ele>191.99999999999997</ele><time>2026-05-01T12:04:18.808Z</time></trkpt><trkpt lat="38.5931665" lon="20.5527256"><ele>192.0</ele><time>2026-05-01T12:04:19.808Z</time></trkpt><trkpt lat="38.5931063" lon="20.5527942"><ele>192.0</ele><time>2026-05-01T12:04:20.809Z</time></trkpt><trkpt lat="38.5930581" lon="20.5528581"><ele>192.0</ele><time>2026-05-01T12:04:21.808Z</time></trkpt><trkpt lat="38.5930021" lon="20.5529087"><ele>192.0</ele><time>2026-05-01T12:04:22.809Z</time></trkpt><trkpt lat="38.5929343" lon="20.5529395"><ele>191.99999999999997</ele><time>2026-05-01T12:04:23.808Z</time></trkpt><trkpt lat="38.5928643" lon="20.5529537"><ele>192.0</ele><time>2026-05-01T12:04:24.809Z</time></trkpt><trkpt lat="38.5927895" lon="20.5529569"><ele>189.16666666666666</ele><time>2026-05-01T12:04:25.808Z</time></trkpt><trkpt lat="38.5927029" lon="20.5529572"><ele>186.33333333333334</ele><time>2026-05-01T12:04:26.808Z</time></trkpt><trkpt lat="38.5926352" lon="20.5529504"><ele>183.5</ele><time>2026-05-01T12:04:27.808Z</time></trkpt><trkpt lat="38.5925716" lon="20.55295"><ele>180.66666666666669</ele><time>2026-05-01T12:04:28.808Z</time></trkpt><trkpt lat="38.592493" lon="20.5529528"><ele>177.83333333333334</ele><time>2026-05-01T12:04:30.809Z</time></trkpt><trkpt lat="38.5924127" lon="20.5529878"><ele>175.0</ele><time>2026-05-01T12:04:35.808Z</time></trkpt><trkpt lat="38.5923099" lon="20.553035"><ele>175.0</ele><time>2026-05-01T12:04:37.809Z</time></trkpt><trkpt lat="38.5922507" lon="20.5530743"><ele>175.0</ele><time>2026-05-01T12:04:38.809Z</time></trkpt><trkpt lat="38.5921861" lon="20.5531154"><ele>175.0</ele><time>2026-05-01T12:04:39.808Z</time></trkpt><trkpt lat="38.5921187" lon="20.5531543"><ele>175.0</ele><time>2026-05-01T12:04:40.809Z</time></trkpt><trkpt lat="38.5920495" lon="20.5532056"><ele>175.0</ele><time>2026-05-01T12:04:41.809Z</time></trkpt><trkpt lat="38.5919824" lon="20.5532598"><ele>175.0</ele><time>2026-05-01T12:04:42.809Z</time></trkpt><trkpt lat="38.5919078" lon="20.5533085"><ele>174.66666666666669</ele><time>2026-05-01T12:04:43.809Z</time></trkpt><trkpt lat="38.591842" lon="20.5533573"><ele>174.33333333333334</ele><time>2026-05-01T12:04:44.808Z</time></trkpt><trkpt lat="38.5917752" lon="20.5534138"><ele>174.0</ele><time>2026-05-01T12:04:45.808Z</time></trkpt><trkpt lat="38.5917027" lon="20.5534718"><ele>173.66666666666666</ele><time>2026-05-01T12:04:46.809Z</time></trkpt><trkpt lat="38.5916368" lon="20.5535364"><ele>173.33333333333331</ele><time>2026-05-01T12:04:47.808Z</time></trkpt><trkpt lat="38.5915597" lon="20.5535853"><ele>173.0</ele><time>2026-05-01T12:04:48.808Z</time></trkpt><trkpt lat="38.5914707" lon="20.5535967"><ele>173.0</ele><time>2026-05-01T12:04:49.808Z</time></trkpt><trkpt lat="38.5913898" lon="20.5536053"><ele>173.0</ele><time>2026-05-01T12:04:50.809Z</time></trkpt><trkpt lat="38.5913205" lon="20.5536177"><ele>173.0</ele><time>2026-05-01T12:04:51.808Z</time></trkpt><trkpt lat="38.5912576" lon="20.5536284"><ele>173.0</ele><time>2026-05-01T12:04:52.809Z</time></trkpt><trkpt lat="38.59115" lon="20.5536489"><ele>173.0</ele><time>2026-05-01T12:04:54.809Z</time></trkpt><trkpt lat="38.5910577" lon="20.5536318"><ele>173.0</ele><time>2026-05-01T12:04:56.809Z</time></trkpt><trkpt lat="38.5910005" lon="20.5535873"><ele>172.83333333333331</ele><time>2026-05-01T12:04:57.808Z</time></trkpt><trkpt lat="38.5909249" lon="20.5535317"><ele>172.66666666666666</ele><time>2026-05-01T12:04:58.808Z</time></trkpt><trkpt lat="38.5908617" lon="20.5534751"><ele>172.5</ele><time>2026-05-01T12:04:59.808Z</time></trkpt><trkpt lat="38.5907897" lon="20.5533965"><ele>172.33333333333334</ele><time>2026-05-01T12:05:00.808Z</time></trkpt><trkpt lat="38.5907242" lon="20.5533279"><ele>172.16666666666669</ele><time>2026-05-01T12:05:01.808Z</time></trkpt><trkpt lat="38.5906612" lon="20.55326"><ele>172.0</ele><time>2026-05-01T12:05:02.808Z</time></trkpt><trkpt lat="38.5906047" lon="20.5531936"><ele>172.0</ele><time>2026-05-01T12:05:03.809Z</time></trkpt><trkpt lat="38.5905426" lon="20.5531275"><ele>172.0</ele><time>2026-05-01T12:05:04.809Z</time></trkpt><trkpt lat="38.5904589" lon="20.5530671"><ele>172.0</ele><time>2026-05-01T12:05:05.809Z</time></trkpt><trkpt lat="38.5903816" lon="20.5529965"><ele>172.0</ele><time>2026-05-01T12:05:06.809Z</time></trkpt><trkpt lat="38.5902998" lon="20.5529261"><ele>172.0</ele><time>2026-05-01T12:05:07.808Z</time></trkpt><trkpt lat="38.5902128" lon="20.5528603"><ele>171.2</ele><time>2026-05-01T12:05:08.809Z</time></trkpt><trkpt lat="38.590126" lon="20.552804"><ele>170.39999999999998</ele><time>2026-05-01T12:05:09.808Z</time></trkpt><trkpt lat="38.5900309" lon="20.5527513"><ele>169.60000000000002</ele><time>2026-05-01T12:05:10.808Z</time></trkpt><trkpt lat="38.5899344" lon="20.5527116"><ele>168.8</ele><time>2026-05-01T12:05:11.808Z</time></trkpt><trkpt lat="38.5898321" lon="20.5526784"><ele>168.0</ele><time>2026-05-01T12:05:12.809Z</time></trkpt><trkpt lat="38.5897116" lon="20.5526508"><ele>168.0</ele><time>2026-05-01T12:05:13.808Z</time></trkpt><trkpt lat="38.5896038" lon="20.5526276"><ele>168.0</ele><time>2026-05-01T12:05:14.808Z</time></trkpt><trkpt lat="38.5894971" lon="20.5525974"><ele>168.0</ele><time>2026-05-01T12:05:15.809Z</time></trkpt><trkpt lat="38.5893957" lon="20.5525779"><ele>168.0</ele><time>2026-05-01T12:05:16.808Z</time></trkpt><trkpt lat="38.5893019" lon="20.5525422"><ele>168.0</ele><time>2026-05-01T12:05:17.808Z</time></trkpt><trkpt lat="38.5892163" lon="20.5525026"><ele>168.0</ele><time>2026-05-01T12:05:18.808Z</time></trkpt><trkpt lat="38.5891308" lon="20.5524671"><ele>168.0</ele><time>2026-05-01T12:05:19.808Z</time></trkpt><trkpt lat="38.589047" lon="20.5524272"><ele>168.0</ele><time>2026-05-01T12:05:20.808Z</time></trkpt><trkpt lat="38.5889775" lon="20.5523624"><ele>168.0</ele><time>2026-05-01T12:05:21.809Z</time></trkpt><trkpt lat="38.5889098" lon="20.5522895"><ele>168.0</ele><time>2026-05-01T12:05:22.808Z</time></trkpt><trkpt lat="38.5888559" lon="20.5522038"><ele>168.0</ele><time>2026-05-01T12:05:23.809Z</time></trkpt><trkpt lat="38.5887904" lon="20.5521107"><ele>167.0</ele><time>2026-05-01T12:05:24.809Z</time></trkpt><trkpt lat="38.5887406" lon="20.552003"><ele>166.0</ele><time>2026-05-01T12:05:25.809Z</time></trkpt><trkpt lat="38.5886852" lon="20.5518974"><ele>165.0</ele><time>2026-05-01T12:05:26.809Z</time></trkpt><trkpt lat="38.5886356" lon="20.5517899"><ele>164.0</ele><time>2026-05-01T12:05:27.809Z</time></trkpt><trkpt lat="38.5886047" lon="20.5516831"><ele>163.0</ele><time>2026-05-01T12:05:28.808Z</time></trkpt><trkpt lat="38.5885855" lon="20.5515684"><ele>164.60000000000002</ele><time>2026-05-01T12:05:29.808Z</time></trkpt><trkpt lat="38.588567" lon="20.5514511"><ele>166.20000000000002</ele><time>2026-05-01T12:05:30.809Z</time></trkpt><trkpt lat="38.5885368" lon="20.5513432"><ele>167.8</ele><time>2026-05-01T12:05:31.808Z</time></trkpt><trkpt lat="38.5884991" lon="20.5512364"><ele>169.4</ele><time>2026-05-01T12:05:32.808Z</time></trkpt><trkpt lat="38.5884541" lon="20.551135"><ele>171.0</ele><time>2026-05-01T12:05:33.809Z</time></trkpt><trkpt lat="38.5884049" lon="20.5510279"><ele>171.0</ele><time>2026-05-01T12:05:34.809Z</time></trkpt><trkpt lat="38.5883484" lon="20.5509176"><ele>171.0</ele><time>2026-05-01T12:05:35.809Z</time></trkpt><trkpt lat="38.5882894" lon="20.5508034"><ele>171.0</ele><time>2026-05-01T12:05:36.809Z</time></trkpt><trkpt lat="38.5882262" lon="20.5506874"><ele>171.0</ele><time>2026-05-01T12:05:37.809Z</time></trkpt><trkpt lat="38.5881604" lon="20.5505695"><ele>171.0</ele><time>2026-05-01T12:05:38.809Z</time></trkpt><trkpt lat="38.5881" lon="20.5504553"><ele>170.0</ele><time>2026-05-01T12:05:39.808Z</time></trkpt><trkpt lat="38.5880313" lon="20.5503391"><ele>169.0</ele><time>2026-05-01T12:05:40.809Z</time></trkpt><trkpt lat="38.5879378" lon="20.5502334"><ele>168.0</ele><time>2026-05-01T12:05:41.808Z</time></trkpt><trkpt lat="38.5878583" lon="20.5501342"><ele>167.0</ele><time>2026-05-01T12:05:42.809Z</time></trkpt><trkpt lat="38.5877698" lon="20.5500457"><ele>167.0</ele><time>2026-05-01T12:05:43.808Z</time></trkpt><trkpt lat="38.5876766" lon="20.5499646"><ele>167.0</ele><time>2026-05-01T12:05:44.809Z</time></trkpt><trkpt lat="38.5875778" lon="20.5499065"><ele>167.0</ele><time>2026-05-01T12:05:45.808Z</time></trkpt><trkpt lat="38.5874766" lon="20.5498647"><ele>167.0</ele><time>2026-05-01T12:05:46.809Z</time></trkpt><trkpt lat="38.5873753" lon="20.5498359"><ele>167.0</ele><time>2026-05-01T12:05:47.809Z</time></trkpt><trkpt lat="38.5872689" lon="20.5498232"><ele>167.0</ele><time>2026-05-01T12:05:48.809Z</time></trkpt><trkpt lat="38.5871624" lon="20.5498216"><ele>167.0</ele><time>2026-05-01T12:05:49.809Z</time></trkpt><trkpt lat="38.5870565" lon="20.5498353"><ele>167.0</ele><time>2026-05-01T12:05:50.809Z</time></trkpt><trkpt lat="38.5869693" lon="20.5498819"><ele>167.0</ele><time>2026-05-01T12:05:51.809Z</time></trkpt><trkpt lat="38.5868709" lon="20.5499113"><ele>167.0</ele><time>2026-05-01T12:05:52.808Z</time></trkpt><trkpt lat="38.5867773" lon="20.5499488"><ele>165.6</ele><time>2026-05-01T12:05:53.808Z</time></trkpt><trkpt lat="38.5866881" lon="20.5499804"><ele>164.2</ele><time>2026-05-01T12:05:54.809Z</time></trkpt><trkpt lat="38.5865998" lon="20.5500148"><ele>162.8</ele><time>2026-05-01T12:05:55.808Z</time></trkpt><trkpt lat="38.5865057" lon="20.5500509"><ele>161.4</ele><time>2026-05-01T12:05:56.808Z</time></trkpt><trkpt lat="38.5864206" lon="20.5500806"><ele>160.0</ele><time>2026-05-01T12:05:57.808Z</time></trkpt><trkpt lat="38.5863309" lon="20.5501345"><ele>160.0</ele><time>2026-05-01T12:05:58.809Z</time></trkpt><trkpt lat="38.5862368" lon="20.5501973"><ele>160.0</ele><time>2026-05-01T12:05:59.809Z</time></trkpt><trkpt lat="38.5861451" lon="20.5502758"><ele>160.0</ele><time>2026-05-01T12:06:00.808Z</time></trkpt><trkpt lat="38.5860607" lon="20.5503652"><ele>160.0</ele><time>2026-05-01T12:06:01.809Z</time></trkpt><trkpt lat="38.5859813" lon="20.5504684"><ele>160.0</ele><time>2026-05-01T12:06:02.808Z</time></trkpt><trkpt lat="38.5858976" lon="20.5505687"><ele>159.0</ele><time>2026-05-01T12:06:03.808Z</time></trkpt><trkpt lat="38.5858105" lon="20.5506589"><ele>158.0</ele><time>2026-05-01T12:06:04.808Z</time></trkpt><trkpt lat="38.5857262" lon="20.5507536"><ele>157.0</ele><time>2026-05-01T12:06:05.808Z</time></trkpt><trkpt lat="38.5856304" lon="20.5508138"><ele>156.0</ele><time>2026-05-01T12:06:06.809Z</time></trkpt><trkpt lat="38.5855448" lon="20.5508287"><ele>155.0</ele><time>2026-05-01T12:06:07.809Z</time></trkpt><trkpt lat="38.5854601" lon="20.5508135"><ele>155.0</ele><time>2026-05-01T12:06:08.809Z</time></trkpt><trkpt lat="38.5853916" lon="20.5507784"><ele>155.0</ele><time>2026-05-01T12:06:09.808Z</time></trkpt><trkpt lat="38.5853291" lon="20.5507322"><ele>155.0</ele><time>2026-05-01T12:06:10.809Z</time></trkpt><trkpt lat="38.5852641" lon="20.5506781"><ele>155.0</ele><time>2026-05-01T12:06:11.809Z</time></trkpt><trkpt lat="38.5852118" lon="20.5506268"><ele>155.0</ele><time>2026-05-01T12:06:12.809Z</time></trkpt><trkpt lat="38.5851517" lon="20.5505699"><ele>155.0</ele><time>2026-05-01T12:06:13.808Z</time></trkpt><trkpt lat="38.5850867" lon="20.5505124"><ele>155.0</ele><time>2026-05-01T12:06:14.808Z</time></trkpt><trkpt lat="38.5850079" lon="20.5504694"><ele>154.6</ele><time>2026-05-01T12:06:15.809Z</time></trkpt><trkpt lat="38.5849167" lon="20.5504533"><ele>154.2</ele><time>2026-05-01T12:06:16.809Z</time></trkpt><trkpt lat="38.5848195" lon="20.5504541"><ele>153.8</ele><time>2026-05-01T12:06:17.808Z</time></trkpt><trkpt lat="38.5847255" lon="20.5504734"><ele>153.4</ele><time>2026-05-01T12:06:18.808Z</time></trkpt><trkpt lat="38.5846222" lon="20.5505024"><ele>153.0</ele><time>2026-05-01T12:06:19.808Z</time></trkpt><trkpt lat="38.5845159" lon="20.5505348"><ele>150.6</ele><time>2026-05-01T12:06:20.808Z</time></trkpt><trkpt lat="38.5844295" lon="20.5505854"><ele>148.20000000000002</ele><time>2026-05-01T12:06:21.809Z</time></trkpt><trkpt lat="38.5843425" lon="20.5506374"><ele>145.8</ele><time>2026-05-01T12:06:22.809Z</time></trkpt><trkpt lat="38.5842561" lon="20.5506993"><ele>143.4</ele><time>2026-05-01T12:06:23.809Z</time></trkpt><trkpt lat="38.5841695" lon="20.550765"><ele>141.0</ele><time>2026-05-01T12:06:24.809Z</time></trkpt><trkpt lat="38.5840918" lon="20.5508343"><ele>141.0</ele><time>2026-05-01T12:06:25.809Z</time></trkpt><trkpt lat="38.5840071" lon="20.5509064"><ele>141.0</ele><time>2026-05-01T12:06:26.809Z</time></trkpt><trkpt lat="38.5839188" lon="20.5509765"><ele>141.0</ele><time>2026-05-01T12:06:27.808Z</time></trkpt><trkpt lat="38.5838247" lon="20.5510352"><ele>141.0</ele><time>2026-05-01T12:06:28.809Z</time></trkpt><trkpt lat="38.58373" lon="20.5510763"><ele>141.0</ele><time>2026-05-01T12:06:29.808Z</time></trkpt><trkpt lat="38.5836384" lon="20.5510877"><ele>139.4</ele><time>2026-05-01T12:06:30.808Z</time></trkpt><trkpt lat="38.5835533" lon="20.5510375"><ele>137.8</ele><time>2026-05-01T12:06:31.808Z</time></trkpt><trkpt lat="38.5834756" lon="20.5509696"><ele>136.20000000000002</ele><time>2026-05-01T12:06:32.809Z</time></trkpt><trkpt lat="38.5833998" lon="20.5508977"><ele>134.6</ele><time>2026-05-01T12:06:33.808Z</time></trkpt><trkpt lat="38.5833229" lon="20.5508334"><ele>133.0</ele><time>2026-05-01T12:06:34.808Z</time></trkpt><trkpt lat="38.5832396" lon="20.5507721"><ele>133.0</ele><time>2026-05-01T12:06:35.808Z</time></trkpt><trkpt lat="38.5831521" lon="20.5507177"><ele>133.0</ele><time>2026-05-01T12:06:36.808Z</time></trkpt><trkpt lat="38.5830682" lon="20.5506715"><ele>133.0</ele><time>2026-05-01T12:06:37.808Z</time></trkpt><trkpt lat="38.5829798" lon="20.5506347"><ele>133.0</ele><time>2026-05-01T12:06:38.809Z</time></trkpt><trkpt lat="38.5828876" lon="20.5506072"><ele>133.0</ele><time>2026-05-01T12:06:39.808Z</time></trkpt><trkpt lat="38.582782" lon="20.5505896"><ele>131.0</ele><time>2026-05-01T12:06:40.808Z</time></trkpt><trkpt lat="38.5826823" lon="20.5505803"><ele>129.0</ele><time>2026-05-01T12:06:41.808Z</time></trkpt><trkpt lat="38.582559" lon="20.5505793"><ele>127.0</ele><time>2026-05-01T12:06:42.809Z</time></trkpt><trkpt lat="38.5824455" lon="20.5505853"><ele>125.0</ele><time>2026-05-01T12:06:43.808Z</time></trkpt><trkpt lat="38.5823254" lon="20.5505917"><ele>125.0</ele><time>2026-05-01T12:06:44.808Z</time></trkpt><trkpt lat="38.5822047" lon="20.5505972"><ele>125.0</ele><time>2026-05-01T12:06:45.809Z</time></trkpt><trkpt lat="38.5820766" lon="20.5506025"><ele>125.0</ele><time>2026-05-01T12:06:46.809Z</time></trkpt><trkpt lat="38.581942" lon="20.5506042"><ele>125.0</ele><time>2026-05-01T12:06:47.808Z</time></trkpt><trkpt lat="38.5818032" lon="20.5506028"><ele>122.25</ele><time>2026-05-01T12:06:48.808Z</time></trkpt><trkpt lat="38.5816547" lon="20.5506142"><ele>119.5</ele><time>2026-05-01T12:06:49.809Z</time></trkpt><trkpt lat="38.5815081" lon="20.5506215"><ele>116.75</ele><time>2026-05-01T12:06:50.809Z</time></trkpt><trkpt lat="38.581365" lon="20.550638"><ele>114.0</ele><time>2026-05-01T12:06:51.808Z</time></trkpt><trkpt lat="38.581214" lon="20.5506633"><ele>113.25</ele><time>2026-05-01T12:06:52.808Z</time></trkpt><trkpt lat="38.5810701" lon="20.5506784"><ele>112.5</ele><time>2026-05-01T12:06:53.808Z</time></trkpt><trkpt lat="38.5809358" lon="20.5506917"><ele>111.75</ele><time>2026-05-01T12:06:54.809Z</time></trkpt><trkpt lat="38.5808118" lon="20.5507006"><ele>111.0</ele><time>2026-05-01T12:06:55.809Z</time></trkpt><trkpt lat="38.5806834" lon="20.5507137"><ele>111.0</ele><time>2026-05-01T12:06:56.808Z</time></trkpt><trkpt lat="38.5805679" lon="20.5507279"><ele>111.0</ele><time>2026-05-01T12:06:57.808Z</time></trkpt><trkpt lat="38.5804542" lon="20.5507322"><ele>111.0</ele><time>2026-05-01T12:06:58.809Z</time></trkpt><trkpt lat="38.5803516" lon="20.5507452"><ele>111.0</ele><time>2026-05-01T12:06:59.808Z</time></trkpt><trkpt lat="38.5802584" lon="20.5507823"><ele>111.0</ele><time>2026-05-01T12:07:00.809Z</time></trkpt><trkpt lat="38.5801792" lon="20.5508593"><ele>111.0</ele><time>2026-05-01T12:07:01.809Z</time></trkpt><trkpt lat="38.580115" lon="20.5509535"><ele>111.0</ele><time>2026-05-01T12:07:02.809Z</time></trkpt><trkpt lat="38.5800553" lon="20.5510647"><ele>111.0</ele><time>2026-05-01T12:07:03.808Z</time></trkpt><trkpt lat="38.5799981" lon="20.5511936"><ele>111.0</ele><time>2026-05-01T12:07:04.809Z</time></trkpt><trkpt lat="38.5799499" lon="20.5513264"><ele>111.0</ele><time>2026-05-01T12:07:05.809Z</time></trkpt><trkpt lat="38.5799073" lon="20.5514644"><ele>111.0</ele><time>2026-05-01T12:07:06.808Z</time></trkpt><trkpt lat="38.5798551" lon="20.5516011"><ele>111.0</ele><time>2026-05-01T12:07:07.809Z</time></trkpt><trkpt lat="38.5798005" lon="20.5517343"><ele>111.0</ele><time>2026-05-01T12:07:08.808Z</time></trkpt><trkpt lat="38.5797432" lon="20.5518661"><ele>111.0</ele><time>2026-05-01T12:07:09.809Z</time></trkpt><trkpt lat="38.5796786" lon="20.551985"><ele>113.4</ele><time>2026-05-01T12:07:10.809Z</time></trkpt><trkpt lat="38.5796155" lon="20.5521015"><ele>115.8</ele><time>2026-05-01T12:07:11.809Z</time></trkpt><trkpt lat="38.5795571" lon="20.5522146"><ele>118.20000000000002</ele><time>2026-05-01T12:07:12.809Z</time></trkpt><trkpt lat="38.5795101" lon="20.5523334"><ele>120.60000000000001</ele><time>2026-05-01T12:07:13.808Z</time></trkpt><trkpt lat="38.5794551" lon="20.5524389"><ele>123.0</ele><time>2026-05-01T12:07:14.808Z</time></trkpt><trkpt lat="38.579393" lon="20.5525336"><ele>123.0</ele><time>2026-05-01T12:07:15.809Z</time></trkpt><trkpt lat="38.5793277" lon="20.5526203"><ele>123.00000000000001</ele><time>2026-05-01T12:07:16.808Z</time></trkpt><trkpt lat="38.5792624" lon="20.5527198"><ele>123.00000000000001</ele><time>2026-05-01T12:07:17.809Z</time></trkpt><trkpt lat="38.579195" lon="20.5528105"><ele>123.0</ele><time>2026-05-01T12:07:18.808Z</time></trkpt><trkpt lat="38.579114" lon="20.5528927"><ele>123.0</ele><time>2026-05-01T12:07:19.808Z</time></trkpt><trkpt lat="38.579041" lon="20.5529623"><ele>119.60000000000001</ele><time>2026-05-01T12:07:20.808Z</time></trkpt><trkpt lat="38.5789691" lon="20.5530301"><ele>116.20000000000002</ele><time>2026-05-01T12:07:21.809Z</time></trkpt><trkpt lat="38.5789028" lon="20.5531072"><ele>112.8</ele><time>2026-05-01T12:07:22.809Z</time></trkpt><trkpt lat="38.5788427" lon="20.553193"><ele>109.4</ele><time>2026-05-01T12:07:23.809Z</time></trkpt><trkpt lat="38.5787857" lon="20.553286"><ele>106.0</ele><time>2026-05-01T12:07:24.809Z</time></trkpt><trkpt lat="38.5787307" lon="20.5533797"><ele>108.0</ele><time>2026-05-01T12:07:25.809Z</time></trkpt><trkpt lat="38.5786737" lon="20.5534752"><ele>110.0</ele><time>2026-05-01T12:07:26.809Z</time></trkpt><trkpt lat="38.5786227" lon="20.5535794"><ele>112.0</ele><time>2026-05-01T12:07:27.809Z</time></trkpt><trkpt lat="38.5785655" lon="20.5536728"><ele>114.0</ele><time>2026-05-01T12:07:28.809Z</time></trkpt><trkpt lat="38.5785076" lon="20.5537797"><ele>116.0</ele><time>2026-05-01T12:07:29.809Z</time></trkpt><trkpt lat="38.5784557" lon="20.5538721"><ele>115.99999999999999</ele><time>2026-05-01T12:07:30.808Z</time></trkpt><trkpt lat="38.5784051" lon="20.5539622"><ele>116.0</ele><time>2026-05-01T12:07:31.809Z</time></trkpt><trkpt lat="38.5783604" lon="20.5540612"><ele>116.0</ele><time>2026-05-01T12:07:32.809Z</time></trkpt><trkpt lat="38.5783104" lon="20.5541485"><ele>116.0</ele><time>2026-05-01T12:07:33.809Z</time></trkpt><trkpt lat="38.5782488" lon="20.5542269"><ele>115.99999999999999</ele><time>2026-05-01T12:07:34.809Z</time></trkpt><trkpt lat="38.5781844" lon="20.5543001"><ele>116.0</ele><time>2026-05-01T12:07:35.809Z</time></trkpt><trkpt lat="38.5781194" lon="20.5543641"><ele>115.99999999999999</ele><time>2026-05-01T12:07:36.809Z</time></trkpt><trkpt lat="38.5780418" lon="20.5544123"><ele>116.0</ele><time>2026-05-01T12:07:37.809Z</time></trkpt><trkpt lat="38.5779764" lon="20.5544514"><ele>116.0</ele><time>2026-05-01T12:07:38.808Z</time></trkpt><trkpt lat="38.577914" lon="20.5544726"><ele>116.0</ele><time>2026-05-01T12:07:39.809Z</time></trkpt><trkpt lat="38.5778528" lon="20.5544449"><ele>115.99999999999999</ele><time>2026-05-01T12:07:40.808Z</time></trkpt><trkpt lat="38.5777252" lon="20.5543853"><ele>116.0</ele><time>2026-05-01T12:07:42.809Z</time></trkpt><trkpt lat="38.577644" lon="20.5543503"><ele>117.8</ele><time>2026-05-01T12:07:43.808Z</time></trkpt><trkpt lat="38.5775537" lon="20.5543099"><ele>119.6</ele><time>2026-05-01T12:07:44.809Z</time></trkpt><trkpt lat="38.5774613" lon="20.5542734"><ele>121.4</ele><time>2026-05-01T12:07:45.808Z</time></trkpt><trkpt lat="38.577376" lon="20.5542483"><ele>123.2</ele><time>2026-05-01T12:07:46.809Z</time></trkpt><trkpt lat="38.5772899" lon="20.5542244"><ele>125.0</ele><time>2026-05-01T12:07:47.809Z</time></trkpt><trkpt lat="38.5772065" lon="20.5541938"><ele>125.0</ele><time>2026-05-01T12:07:48.808Z</time></trkpt><trkpt lat="38.5771268" lon="20.5541609"><ele>125.0</ele><time>2026-05-01T12:07:49.809Z</time></trkpt><trkpt lat="38.5770441" lon="20.5541258"><ele>125.0</ele><time>2026-05-01T12:07:50.809Z</time></trkpt><trkpt lat="38.5769504" lon="20.5540646"><ele>125.0</ele><time>2026-05-01T12:07:51.808Z</time></trkpt><trkpt lat="38.5768602" lon="20.5540038"><ele>125.0</ele><time>2026-05-01T12:07:52.809Z</time></trkpt><trkpt lat="38.5767769" lon="20.5539399"><ele>126.16666666666666</ele><time>2026-05-01T12:07:53.808Z</time></trkpt><trkpt lat="38.5767078" lon="20.5538713"><ele>127.33333333333333</ele><time>2026-05-01T12:07:54.808Z</time></trkpt><trkpt lat="38.5766353" lon="20.5538155"><ele>128.5</ele><time>2026-05-01T12:07:55.809Z</time></trkpt><trkpt lat="38.5765556" lon="20.5537528"><ele>129.66666666666666</ele><time>2026-05-01T12:07:56.808Z</time></trkpt><trkpt lat="38.5764812" lon="20.5536963"><ele>130.83333333333334</ele><time>2026-05-01T12:07:57.809Z</time></trkpt><trkpt lat="38.5764058" lon="20.5536294"><ele>132.0</ele><time>2026-05-01T12:07:58.808Z</time></trkpt><trkpt lat="38.5763296" lon="20.55355"><ele>132.0</ele><time>2026-05-01T12:07:59.808Z</time></trkpt><trkpt lat="38.5762602" lon="20.5534622"><ele>132.0</ele><time>2026-05-01T12:08:00.809Z</time></trkpt><trkpt lat="38.5761944" lon="20.5533585"><ele>132.0</ele><time>2026-05-01T12:08:01.808Z</time></trkpt><trkpt lat="38.5761197" lon="20.5532569"><ele>132.0</ele><time>2026-05-01T12:08:02.809Z</time></trkpt><trkpt lat="38.5760567" lon="20.5531579"><ele>132.0</ele><time>2026-05-01T12:08:03.808Z</time></trkpt><trkpt lat="38.5759981" lon="20.5530609"><ele>130.16666666666666</ele><time>2026-05-01T12:08:04.809Z</time></trkpt><trkpt lat="38.5759345" lon="20.5529715"><ele>128.33333333333334</ele><time>2026-05-01T12:08:05.809Z</time></trkpt><trkpt lat="38.5758794" lon="20.5528827"><ele>126.5</ele><time>2026-05-01T12:08:06.809Z</time></trkpt><trkpt lat="38.5758205" lon="20.5528109"><ele>124.66666666666667</ele><time>2026-05-01T12:08:07.809Z</time></trkpt><trkpt lat="38.5757532" lon="20.5527667"><ele>122.83333333333334</ele><time>2026-05-01T12:08:08.808Z</time></trkpt><trkpt lat="38.5756756" lon="20.5527446"><ele>121.0</ele><time>2026-05-01T12:08:09.808Z</time></trkpt><trkpt lat="38.5755946" lon="20.5527218"><ele>121.0</ele><time>2026-05-01T12:08:10.808Z</time></trkpt><trkpt lat="38.575512" lon="20.5527022"><ele>121.0</ele><time>2026-05-01T12:08:11.809Z</time></trkpt><trkpt lat="38.5754217" lon="20.5526833"><ele>121.0</ele><time>2026-05-01T12:08:12.809Z</time></trkpt><trkpt lat="38.5753332" lon="20.5526561"><ele>121.0</ele><time>2026-05-01T12:08:13.809Z</time></trkpt><trkpt lat="38.5752378" lon="20.5526213"><ele>121.0</ele><time>2026-05-01T12:08:14.808Z</time></trkpt><trkpt lat="38.5751417" lon="20.5525899"><ele>118.19999999999999</ele><time>2026-05-01T12:08:15.808Z</time></trkpt><trkpt lat="38.5750582" lon="20.5525555"><ele>115.39999999999999</ele><time>2026-05-01T12:08:16.808Z</time></trkpt><trkpt lat="38.5749665" lon="20.5525146"><ele>112.6</ele><time>2026-05-01T12:08:17.808Z</time></trkpt><trkpt lat="38.574879" lon="20.5524661"><ele>109.8</ele><time>2026-05-01T12:08:18.808Z</time></trkpt><trkpt lat="38.574784" lon="20.5524123"><ele>107.0</ele><time>2026-05-01T12:08:19.808Z</time></trkpt><trkpt lat="38.5746936" lon="20.5523489"><ele>107.0</ele><time>2026-05-01T12:08:20.808Z</time></trkpt><trkpt lat="38.574603" lon="20.5522849"><ele>106.99999999999999</ele><time>2026-05-01T12:08:21.809Z</time></trkpt><trkpt lat="38.5745091" lon="20.5522297"><ele>106.99999999999999</ele><time>2026-05-01T12:08:22.808Z</time></trkpt><trkpt lat="38.5744126" lon="20.552174"><ele>107.0</ele><time>2026-05-01T12:08:23.808Z</time></trkpt><trkpt lat="38.5743147" lon="20.5521177"><ele>107.0</ele><time>2026-05-01T12:08:24.808Z</time></trkpt><trkpt lat="38.5742195" lon="20.5520604"><ele>107.39999999999999</ele><time>2026-05-01T12:08:25.808Z</time></trkpt><trkpt lat="38.5741276" lon="20.5519953"><ele>107.79999999999998</ele><time>2026-05-01T12:08:26.809Z</time></trkpt><trkpt lat="38.5740293" lon="20.5519268"><ele>108.2</ele><time>2026-05-01T12:08:27.809Z</time></trkpt><trkpt lat="38.5739378" lon="20.551858"><ele>108.6</ele><time>2026-05-01T12:08:28.809Z</time></trkpt><trkpt lat="38.5738461" lon="20.5517941"><ele>109.0</ele><time>2026-05-01T12:08:29.809Z</time></trkpt><trkpt lat="38.573753" lon="20.5517205"><ele>103.5</ele><time>2026-05-01T12:08:30.809Z</time></trkpt><trkpt lat="38.5736531" lon="20.5516378"><ele>98.0</ele><time>2026-05-01T12:08:31.809Z</time></trkpt><trkpt lat="38.5735523" lon="20.5515656"><ele>92.5</ele><time>2026-05-01T12:08:32.808Z</time></trkpt><trkpt lat="38.5734464" lon="20.5514925"><ele>87.0</ele><time>2026-05-01T12:08:33.808Z</time></trkpt><trkpt lat="38.5733499" lon="20.5514129"><ele>87.0</ele><time>2026-05-01T12:08:34.808Z</time></trkpt><trkpt lat="38.573255" lon="20.5513274"><ele>87.0</ele><time>2026-05-01T12:08:35.808Z</time></trkpt><trkpt lat="38.5731598" lon="20.5512275"><ele>87.0</ele><time>2026-05-01T12:08:36.808Z</time></trkpt><trkpt lat="38.5730695" lon="20.5511384"><ele>87.0</ele><time>2026-05-01T12:08:37.808Z</time></trkpt><trkpt lat="38.572973" lon="20.55104"><ele>84.75</ele><time>2026-05-01T12:08:38.809Z</time></trkpt><trkpt lat="38.5728854" lon="20.5509409"><ele>82.5</ele><time>2026-05-01T12:08:39.808Z</time></trkpt><trkpt lat="38.5727939" lon="20.5508503"><ele>80.25</ele><time>2026-05-01T12:08:40.809Z</time></trkpt><trkpt lat="38.572701" lon="20.5507752"><ele>78.0</ele><time>2026-05-01T12:08:41.808Z</time></trkpt><trkpt lat="38.5726067" lon="20.5507089"><ele>78.0</ele><time>2026-05-01T12:08:42.809Z</time></trkpt><trkpt lat="38.5725074" lon="20.5506353"><ele>78.0</ele><time>2026-05-01T12:08:43.808Z</time></trkpt><trkpt lat="38.5724193" lon="20.5505648"><ele>78.0</ele><time>2026-05-01T12:08:44.808Z</time></trkpt><trkpt lat="38.5723337" lon="20.5504832"><ele>78.0</ele><time>2026-05-01T12:08:45.809Z</time></trkpt><trkpt lat="38.5722463" lon="20.5503785"><ele>78.0</ele><time>2026-05-01T12:08:46.809Z</time></trkpt><trkpt lat="38.5721728" lon="20.5502772"><ele>76.2</ele><time>2026-05-01T12:08:47.809Z</time></trkpt><trkpt lat="38.5720959" lon="20.5501702"><ele>74.4</ele><time>2026-05-01T12:08:48.809Z</time></trkpt><trkpt lat="38.5720174" lon="20.5500742"><ele>72.60000000000001</ele><time>2026-05-01T12:08:49.808Z</time></trkpt><trkpt lat="38.5719282" lon="20.5499802"><ele>70.8</ele><time>2026-05-01T12:08:50.809Z</time></trkpt><trkpt lat="38.5718395" lon="20.54991"><ele>69.0</ele><time>2026-05-01T12:08:51.809Z</time></trkpt><trkpt lat="38.5717308" lon="20.5498334"><ele>69.0</ele><time>2026-05-01T12:08:52.808Z</time></trkpt><trkpt lat="38.5716167" lon="20.5497387"><ele>69.0</ele><time>2026-05-01T12:08:53.808Z</time></trkpt><trkpt lat="38.5715042" lon="20.5496447"><ele>69.0</ele><time>2026-05-01T12:08:54.809Z</time></trkpt><trkpt lat="38.5713966" lon="20.5495456"><ele>69.0</ele><time>2026-05-01T12:08:55.808Z</time></trkpt><trkpt lat="38.5712844" lon="20.5494489"><ele>67.5</ele><time>2026-05-01T12:08:56.808Z</time></trkpt><trkpt lat="38.5711648" lon="20.5493613"><ele>66.0</ele><time>2026-05-01T12:08:57.808Z</time></trkpt><trkpt lat="38.5710509" lon="20.5492812"><ele>64.5</ele><time>2026-05-01T12:08:58.809Z</time></trkpt><trkpt lat="38.5709354" lon="20.5492067"><ele>63.0</ele><time>2026-05-01T12:08:59.809Z</time></trkpt><trkpt lat="38.5708199" lon="20.5491275"><ele>63.0</ele><time>2026-05-01T12:09:00.809Z</time></trkpt><trkpt lat="38.5706984" lon="20.5490433"><ele>63.0</ele><time>2026-05-01T12:09:01.808Z</time></trkpt><trkpt lat="38.5705956" lon="20.5489496"><ele>63.0</ele><time>2026-05-01T12:09:02.808Z</time></trkpt><trkpt lat="38.5705119" lon="20.5488532"><ele>63.0</ele><time>2026-05-01T12:09:03.808Z</time></trkpt><trkpt lat="38.5704303" lon="20.5487556"><ele>61.2</ele><time>2026-05-01T12:09:04.808Z</time></trkpt><trkpt lat="38.5703667" lon="20.5486578"><ele>59.4</ele><time>2026-05-01T12:09:05.808Z</time></trkpt><trkpt lat="38.5703041" lon="20.548557"><ele>57.60000000000001</ele><time>2026-05-01T12:09:06.809Z</time></trkpt><trkpt lat="38.570236" lon="20.5484663"><ele>55.800000000000004</ele><time>2026-05-01T12:09:07.809Z</time></trkpt><trkpt lat="38.5701662" lon="20.5483845"><ele>54.0</ele><time>2026-05-01T12:09:08.809Z</time></trkpt><trkpt lat="38.5700988" lon="20.5483091"><ele>54.0</ele><time>2026-05-01T12:09:09.809Z</time></trkpt><trkpt lat="38.5700346" lon="20.5482303"><ele>54.0</ele><time>2026-05-01T12:09:10.809Z</time></trkpt><trkpt lat="38.5699768" lon="20.5481516"><ele>54.0</ele><time>2026-05-01T12:09:11.809Z</time></trkpt><trkpt lat="38.5699108" lon="20.5480771"><ele>54.0</ele><time>2026-05-01T12:09:12.809Z</time></trkpt><trkpt lat="38.5698455" lon="20.5480033"><ele>54.0</ele><time>2026-05-01T12:09:13.809Z</time></trkpt><trkpt lat="38.569777" lon="20.5479457"><ele>54.0</ele><time>2026-05-01T12:09:14.809Z</time></trkpt><trkpt lat="38.5697038" lon="20.5479282"><ele>54.0</ele><time>2026-05-01T12:09:15.809Z</time></trkpt><trkpt lat="38.5696353" lon="20.547949"><ele>54.0</ele><time>2026-05-01T12:09:16.809Z</time></trkpt><trkpt lat="38.5695826" lon="20.5480116"><ele>54.0</ele><time>2026-05-01T12:09:17.809Z</time></trkpt><trkpt lat="38.5695327" lon="20.548102"><ele>54.0</ele><time>2026-05-01T12:09:18.809Z</time></trkpt><trkpt lat="38.5694979" lon="20.5482099"><ele>54.0</ele><time>2026-05-01T12:09:19.809Z</time></trkpt><trkpt lat="38.5694624" lon="20.5483254"><ele>54.0</ele><time>2026-05-01T12:09:20.809Z</time></trkpt><trkpt lat="38.5694275" lon="20.5484468"><ele>54.800000000000004</ele><time>2026-05-01T12:09:21.808Z</time></trkpt><trkpt lat="38.5693928" lon="20.548556"><ele>55.60000000000001</ele><time>2026-05-01T12:09:22.809Z</time></trkpt><trkpt lat="38.5693574" lon="20.5486559"><ele>56.4</ele><time>2026-05-01T12:09:23.808Z</time></trkpt><trkpt lat="38.5693126" lon="20.5487606"><ele>57.2</ele><time>2026-05-01T12:09:24.808Z</time></trkpt><trkpt lat="38.5692633" lon="20.5488677"><ele>58.0</ele><time>2026-05-01T12:09:25.808Z</time></trkpt><trkpt lat="38.5692133" lon="20.5489845"><ele>53.6</ele><time>2026-05-01T12:09:26.809Z</time></trkpt><trkpt lat="38.5691591" lon="20.5490838"><ele>49.199999999999996</ele><time>2026-05-01T12:09:27.808Z</time></trkpt><trkpt lat="38.5690919" lon="20.5491847"><ele>44.8</ele><time>2026-05-01T12:09:28.809Z</time></trkpt><trkpt lat="38.5690216" lon="20.5492786"><ele>40.4</ele><time>2026-05-01T12:09:29.809Z</time></trkpt><trkpt lat="38.5689358" lon="20.5493377"><ele>36.0</ele><time>2026-05-01T12:09:30.809Z</time></trkpt><trkpt lat="38.5688505" lon="20.5493808"><ele>36.0</ele><time>2026-05-01T12:09:31.808Z</time></trkpt><trkpt lat="38.56875" lon="20.5493946"><ele>36.0</ele><time>2026-05-01T12:09:32.808Z</time></trkpt><trkpt lat="38.568647" lon="20.5493921"><ele>36.0</ele><time>2026-05-01T12:09:33.808Z</time></trkpt><trkpt lat="38.5685443" lon="20.5493644"><ele>36.0</ele><time>2026-05-01T12:09:34.809Z</time></trkpt><trkpt lat="38.5684354" lon="20.5493247"><ele>36.0</ele><time>2026-05-01T12:09:35.809Z</time></trkpt><trkpt lat="38.5683364" lon="20.549283"><ele>36.25</ele><time>2026-05-01T12:09:36.808Z</time></trkpt><trkpt lat="38.5682356" lon="20.5492421"><ele>36.5</ele><time>2026-05-01T12:09:37.809Z</time></trkpt><trkpt lat="38.5681433" lon="20.5491815"><ele>36.75</ele><time>2026-05-01T12:09:38.808Z</time></trkpt><trkpt lat="38.5680146" lon="20.5490933"><ele>37.0</ele><time>2026-05-01T12:09:39.808Z</time></trkpt><trkpt lat="38.5679348" lon="20.5489921"><ele>37.0</ele><time>2026-05-01T12:09:40.808Z</time></trkpt><trkpt lat="38.5678716" lon="20.5488796"><ele>37.0</ele><time>2026-05-01T12:09:41.809Z</time></trkpt><trkpt lat="38.5678087" lon="20.5487546"><ele>37.0</ele><time>2026-05-01T12:09:42.808Z</time></trkpt><trkpt lat="38.5677608" lon="20.5486266"><ele>37.0</ele><time>2026-05-01T12:09:43.808Z</time></trkpt><trkpt lat="38.5677061" lon="20.5485108"><ele>37.0</ele><time>2026-05-01T12:09:44.808Z</time></trkpt><trkpt lat="38.5676503" lon="20.5483931"><ele>35.4</ele><time>2026-05-01T12:09:45.808Z</time></trkpt><trkpt lat="38.5675865" lon="20.5482814"><ele>33.800000000000004</ele><time>2026-05-01T12:09:46.808Z</time></trkpt><trkpt lat="38.5675109" lon="20.5481908"><ele>32.2</ele><time>2026-05-01T12:09:47.808Z</time></trkpt><trkpt lat="38.5674408" lon="20.5481047"><ele>30.6</ele><time>2026-05-01T12:09:48.808Z</time></trkpt><trkpt lat="38.5673705" lon="20.5480196"><ele>29.0</ele><time>2026-05-01T12:09:49.809Z</time></trkpt><trkpt lat="38.5673011" lon="20.5479324"><ele>30.999999999999996</ele><time>2026-05-01T12:09:50.809Z</time></trkpt><trkpt lat="38.567244" lon="20.5478516"><ele>33.0</ele><time>2026-05-01T12:09:51.809Z</time></trkpt><trkpt lat="38.56721" lon="20.5477486"><ele>35.0</ele><time>2026-05-01T12:09:52.809Z</time></trkpt><trkpt lat="38.5671755" lon="20.5476347"><ele>37.0</ele><time>2026-05-01T12:09:53.808Z</time></trkpt><trkpt lat="38.567136" lon="20.5475308"><ele>39.0</ele><time>2026-05-01T12:09:54.808Z</time></trkpt><trkpt lat="38.5671001" lon="20.5474279"><ele>41.0</ele><time>2026-05-01T12:09:55.809Z</time></trkpt><trkpt lat="38.5670637" lon="20.5473292"><ele>41.0</ele><time>2026-05-01T12:09:56.808Z</time></trkpt><trkpt lat="38.567035" lon="20.5472308"><ele>41.0</ele><time>2026-05-01T12:09:57.809Z</time></trkpt><trkpt lat="38.5670018" lon="20.5471374"><ele>41.0</ele><time>2026-05-01T12:09:58.808Z</time></trkpt><trkpt lat="38.5669746" lon="20.5470644"><ele>41.0</ele><time>2026-05-01T12:09:59.808Z</time></trkpt><trkpt lat="38.5669278" lon="20.5469603"><ele>41.0</ele><time>2026-05-01T12:10:01.809Z</time></trkpt><trkpt lat="38.56689" lon="20.5468846"><ele>41.0</ele><time>2026-05-01T12:10:22.808Z</time></trkpt><trkpt lat="38.5668274" lon="20.5468548"><ele>38.599999999999994</ele><time>2026-05-01T12:10:25.808Z</time></trkpt><trkpt lat="38.5667623" lon="20.5468853"><ele>36.199999999999996</ele><time>2026-05-01T12:10:30.809Z</time></trkpt><trkpt lat="38.566714" lon="20.5469569"><ele>33.8</ele><time>2026-05-01T12:10:32.808Z</time></trkpt><trkpt lat="38.5666238" lon="20.5470867"><ele>31.4</ele><time>2026-05-01T12:10:34.809Z</time></trkpt><trkpt lat="38.5665654" lon="20.5471618"><ele>29.0</ele><time>2026-05-01T12:10:35.808Z</time></trkpt><trkpt lat="38.5664998" lon="20.5472497"><ele>27.4</ele><time>2026-05-01T12:10:36.808Z</time></trkpt><trkpt lat="38.5664308" lon="20.5473456"><ele>25.799999999999997</ele><time>2026-05-01T12:10:37.809Z</time></trkpt><trkpt lat="38.5663615" lon="20.5474566"><ele>24.200000000000003</ele><time>2026-05-01T12:10:38.808Z</time></trkpt><trkpt lat="38.5662837" lon="20.5475445"><ele>22.6</ele><time>2026-05-01T12:10:39.808Z</time></trkpt><trkpt lat="38.566218" lon="20.5476364"><ele>21.0</ele><time>2026-05-01T12:10:40.809Z</time></trkpt><trkpt lat="38.5661538" lon="20.5477201"><ele>21.5</ele><time>2026-05-01T12:10:41.809Z</time></trkpt><trkpt lat="38.5660881" lon="20.5478006"><ele>22.0</ele><time>2026-05-01T12:10:42.808Z</time></trkpt><trkpt lat="38.5660246" lon="20.5478643"><ele>22.5</ele><time>2026-05-01T12:10:43.809Z</time></trkpt><trkpt lat="38.5659603" lon="20.5479298"><ele>23.0</ele><time>2026-05-01T12:10:44.808Z</time></trkpt><trkpt lat="38.5659015" lon="20.5479837"><ele>23.5</ele><time>2026-05-01T12:10:45.809Z</time></trkpt><trkpt lat="38.5657831" lon="20.5480002"><ele>24.0</ele><time>2026-05-01T12:10:47.809Z</time></trkpt><trkpt lat="38.5656611" lon="20.5479661"><ele>24.0</ele><time>2026-05-01T12:10:49.809Z</time></trkpt><trkpt lat="38.5656009" lon="20.5479089"><ele>24.0</ele><time>2026-05-01T12:10:50.809Z</time></trkpt><trkpt lat="38.5655443" lon="20.5478419"><ele>24.0</ele><time>2026-05-01T12:10:51.809Z</time></trkpt><trkpt lat="38.5654905" lon="20.5477502"><ele>24.0</ele><time>2026-05-01T12:10:52.809Z</time></trkpt><trkpt lat="38.5654367" lon="20.5476424"><ele>24.0</ele><time>2026-05-01T12:10:53.809Z</time></trkpt><trkpt lat="38.565382" lon="20.5475276"><ele>24.0</ele><time>2026-05-01T12:10:54.809Z</time></trkpt><trkpt lat="38.5653217" lon="20.5473951"><ele>24.0</ele><time>2026-05-01T12:10:55.809Z</time></trkpt><trkpt lat="38.5652593" lon="20.5472233"><ele>24.0</ele><time>2026-05-01T12:10:56.809Z</time></trkpt><trkpt lat="38.5652002" lon="20.5470378"><ele>24.0</ele><time>2026-05-01T12:10:57.809Z</time></trkpt><trkpt lat="38.5651119" lon="20.5468432"><ele>28.666666666666664</ele><time>2026-05-01T12:10:58.809Z</time></trkpt><trkpt lat="38.5650005" lon="20.5466322"><ele>33.33333333333333</ele><time>2026-05-01T12:10:59.808Z</time></trkpt><trkpt lat="38.5648897" lon="20.5464409"><ele>38.0</ele><time>2026-05-01T12:11:00.808Z</time></trkpt><trkpt lat="38.5647894" lon="20.5462545"><ele>42.33333333333333</ele><time>2026-05-01T12:11:01.808Z</time></trkpt><trkpt lat="38.5647036" lon="20.5460732"><ele>46.666666666666664</ele><time>2026-05-01T12:11:02.809Z</time></trkpt><trkpt lat="38.5646389" lon="20.5458911"><ele>51.0</ele><time>2026-05-01T12:11:03.808Z</time></trkpt><trkpt lat="38.5645731" lon="20.5457287"><ele>46.5</ele><time>2026-05-01T12:11:04.809Z</time></trkpt><trkpt lat="38.564487" lon="20.5455838"><ele>42.0</ele><time>2026-05-01T12:11:05.808Z</time></trkpt><trkpt lat="38.5643993" lon="20.5454403"><ele>37.5</ele><time>2026-05-01T12:11:06.808Z</time></trkpt><trkpt lat="38.5643276" lon="20.5452858"><ele>33.0</ele><time>2026-05-01T12:11:07.808Z</time></trkpt><trkpt lat="38.5642618" lon="20.5451246"><ele>33.0</ele><time>2026-05-01T12:11:08.808Z</time></trkpt><trkpt lat="38.5642043" lon="20.544964"><ele>33.0</ele><time>2026-05-01T12:11:09.808Z</time></trkpt><trkpt lat="38.5641574" lon="20.5448011"><ele>33.0</ele><time>2026-05-01T12:11:10.809Z</time></trkpt><trkpt lat="38.5641165" lon="20.544632"><ele>33.0</ele><time>2026-05-01T12:11:11.809Z</time></trkpt><trkpt lat="38.5640829" lon="20.544454"><ele>31.75</ele><time>2026-05-01T12:11:12.809Z</time></trkpt><trkpt lat="38.5640505" lon="20.5442867"><ele>30.5</ele><time>2026-05-01T12:11:13.809Z</time></trkpt><trkpt lat="38.5640262" lon="20.5441147"><ele>29.25</ele><time>2026-05-01T12:11:14.809Z</time></trkpt><trkpt lat="38.5640088" lon="20.5439555"><ele>28.0</ele><time>2026-05-01T12:11:15.809Z</time></trkpt><trkpt lat="38.563994" lon="20.543819"><ele>28.0</ele><time>2026-05-01T12:11:16.808Z</time></trkpt><trkpt lat="38.5639713" lon="20.5437169"><ele>27.999999999999996</ele><time>2026-05-01T12:11:17.809Z</time></trkpt><trkpt lat="38.5639223" lon="20.5436404"><ele>27.999999999999996</ele><time>2026-05-01T12:11:18.808Z</time></trkpt><trkpt lat="38.5638406" lon="20.5436073"><ele>28.0</ele><time>2026-05-01T12:11:19.809Z</time></trkpt><trkpt lat="38.5637364" lon="20.5435897"><ele>28.0</ele><time>2026-05-01T12:11:20.809Z</time></trkpt><trkpt lat="38.5636274" lon="20.5435777"><ele>29.0</ele><time>2026-05-01T12:11:21.809Z</time></trkpt><trkpt lat="38.5635211" lon="20.5435711"><ele>29.999999999999996</ele><time>2026-05-01T12:11:22.808Z</time></trkpt><trkpt lat="38.5634235" lon="20.5435717"><ele>30.999999999999996</ele><time>2026-05-01T12:11:23.809Z</time></trkpt><trkpt lat="38.5633477" lon="20.5435403"><ele>32.0</ele><time>2026-05-01T12:11:24.808Z</time></trkpt><trkpt lat="38.5632834" lon="20.5434813"><ele>33.0</ele><time>2026-05-01T12:11:25.808Z</time></trkpt><trkpt lat="38.5632268" lon="20.543379"><ele>33.0</ele><time>2026-05-01T12:11:26.808Z</time></trkpt><trkpt lat="38.5631844" lon="20.5432723"><ele>33.0</ele><time>2026-05-01T12:11:27.809Z</time></trkpt><trkpt lat="38.5631545" lon="20.5431782"><ele>33.0</ele><time>2026-05-01T12:11:28.809Z</time></trkpt><trkpt lat="38.5631293" lon="20.5430919"><ele>33.0</ele><time>2026-05-01T12:11:29.808Z</time></trkpt><trkpt lat="38.5630942" lon="20.5430127"><ele>33.0</ele><time>2026-05-01T12:11:30.808Z</time></trkpt><trkpt lat="38.5630501" lon="20.5429372"><ele>33.0</ele><time>2026-05-01T12:11:31.808Z</time></trkpt><trkpt lat="38.5630063" lon="20.5428268"><ele>32.5</ele><time>2026-05-01T12:11:33.809Z</time></trkpt><trkpt lat="38.5630441" lon="20.5427581"><ele>32.0</ele><time>2026-05-01T12:11:58.808Z</time></trkpt><trkpt lat="38.5630139" lon="20.5426855"><ele>31.5</ele><time>2026-05-01T12:12:22.808Z</time></trkpt><trkpt lat="38.5629594" lon="20.5426227"><ele>31.0</ele><time>2026-05-01T12:12:24.808Z</time></trkpt><trkpt lat="38.5628907" lon="20.5425305"><ele>30.5</ele><time>2026-05-01T12:13:15.808Z</time></trkpt><trkpt lat="38.5628406" lon="20.5424536"><ele>30.0</ele><time>2026-05-01T12:13:17.809Z</time></trkpt><trkpt lat="38.5627863" lon="20.5423601"><ele>30.0</ele><time>2026-05-01T12:13:19.809Z</time></trkpt><trkpt lat="38.5627361" lon="20.5422914"><ele>30.0</ele><time>2026-05-01T12:13:21.808Z</time></trkpt><trkpt lat="38.5626777" lon="20.542224"><ele>30.0</ele><time>2026-05-01T12:13:24.808Z</time></trkpt><trkpt lat="38.5627477" lon="20.5421909"><ele>30.0</ele><time>2026-05-01T12:14:45.808Z</time></trkpt><trkpt lat="38.5628065" lon="20.5422713"><ele>30.0</ele><time>2026-05-01T12:14:47.809Z</time></trkpt><trkpt lat="38.5628967" lon="20.5423577"><ele>30.0</ele><time>2026-05-01T12:14:49.809Z</time></trkpt><trkpt lat="38.5629894" lon="20.5424334"><ele>30.0</ele><time>2026-05-01T12:14:51.808Z</time></trkpt><trkpt lat="38.5630576" lon="20.5424817"><ele>30.0</ele><time>2026-05-01T12:14:53.809Z</time></trkpt><trkpt lat="38.5631193" lon="20.5425317"><ele>30.0</ele><time>2026-05-01T12:14:55.809Z</time></trkpt><trkpt lat="38.5631738" lon="20.5426073"><ele>30.0</ele><time>2026-05-01T12:14:58.808Z</time></trkpt><trkpt lat="38.5631365" lon="20.5425196"><ele>30.0</ele><time>2026-05-01T12:15:55.808Z</time></trkpt><trkpt lat="38.5630754" lon="20.5424651"><ele>30.0</ele><time>2026-05-01T12:15:57.809Z</time></trkpt><trkpt lat="38.5630104" lon="20.5424147"><ele>30.0</ele><time>2026-05-01T12:15:59.809Z</time></trkpt><trkpt lat="38.5629324" lon="20.5423482"><ele>30.0</ele><time>2026-05-01T12:16:01.808Z</time></trkpt><trkpt lat="38.5628638" lon="20.5422894"><ele>30.0</ele><time>2026-05-01T12:16:03.809Z</time></trkpt><trkpt lat="38.562805" lon="20.5422266"><ele>30.0</ele><time>2026-05-01T12:16:05.808Z</time></trkpt><trkpt lat="38.5627487" lon="20.5421846"><ele>30.0</ele><time>2026-05-01T12:16:07.809Z</time></trkpt><trkpt lat="38.5626815" lon="20.542163"><ele>30.0</ele><time>2026-05-01T12:16:11.809Z</time></trkpt><trkpt lat="38.5626926" lon="20.5422633"><ele>30.0</ele><time>2026-05-01T12:17:06.809Z</time></trkpt><trkpt lat="38.5627404" lon="20.5423162"><ele>30.0</ele><time>2026-05-01T12:17:08.808Z</time></trkpt><trkpt lat="38.5627978" lon="20.5423897"><ele>30.0</ele><time>2026-05-01T12:17:10.809Z</time></trkpt><trkpt lat="38.562853" lon="20.5424752"><ele>30.0</ele><time>2026-05-01T12:17:12.809Z</time></trkpt><trkpt lat="38.562896" lon="20.5425533"><ele>30.0</ele><time>2026-05-01T12:17:14.808Z</time></trkpt><trkpt lat="38.5629337" lon="20.5426217"><ele>30.0</ele><time>2026-05-01T12:17:16.808Z</time></trkpt><trkpt lat="38.5629989" lon="20.542742"><ele>30.0</ele><time>2026-05-01T12:17:20.794Z</time></trkpt><trkpt lat="38.5630542" lon="20.5427866"><ele>30.0</ele><time>2026-05-01T12:17:23.799Z</time></trkpt><trkpt lat="38.5629976" lon="20.5427336"><ele>30.0</ele><time>2026-05-01T12:18:58.799Z</time></trkpt><trkpt lat="38.5629742" lon="20.5426485"><ele>30.0</ele><time>2026-05-01T12:19:04.799Z</time></trkpt><trkpt lat="38.5629358" lon="20.5425721"><ele>30.0</ele><time>2026-05-01T12:19:09.8Z</time></trkpt><trkpt lat="38.5629109" lon="20.5424957"><ele>30.0</ele><time>2026-05-01T12:19:14.807Z</time></trkpt><trkpt lat="38.5628622" lon="20.5424318"><ele>30.0</ele><time>2026-05-01T12:19:21.8Z</time></trkpt><trkpt lat="38.5628203" lon="20.5423588"><ele>29.0</ele><time>2026-05-01T12:19:27.8Z</time></trkpt><trkpt lat="38.5627746" lon="20.542296"><ele>28.0</ele><time>2026-05-01T12:19:33.799Z</time></trkpt><trkpt lat="38.5627209" lon="20.5422414"><ele>27.0</ele><time>2026-05-01T12:19:39.802Z</time></trkpt><trkpt lat="38.5626858" lon="20.5421635"><ele>26.0</ele><time>2026-05-01T12:19:46.8Z</time></trkpt><trkpt lat="38.5626193" lon="20.5421379"><ele>25.0</ele><time>2026-05-01T12:20:01.799Z</time></trkpt><trkpt lat="38.5626867" lon="20.5421538"><ele>24.0</ele><time>2026-05-01T12:21:48.799Z</time></trkpt><trkpt lat="38.5627456" lon="20.5421955"><ele>23.0</ele><time>2026-05-01T12:22:32.799Z</time></trkpt><trkpt lat="38.5628091" lon="20.5422437"><ele>23.0</ele><time>2026-05-01T12:22:46.799Z</time></trkpt><trkpt lat="38.5628492" lon="20.5423169"><ele>23.0</ele><time>2026-05-01T12:22:52.799Z</time></trkpt><trkpt lat="38.5629022" lon="20.5423732"><ele>23.0</ele><time>2026-05-01T12:22:58.799Z</time></trkpt><trkpt lat="38.5629571" lon="20.5424232"><ele>23.0</ele><time>2026-05-01T12:23:04.799Z</time></trkpt><trkpt lat="38.5630075" lon="20.5424755"><ele>23.0</ele><time>2026-05-01T12:23:12.8Z</time></trkpt><trkpt lat="38.5630651" lon="20.5425299"><ele>23.0</ele><time>2026-05-01T12:23:20.8Z</time></trkpt><trkpt lat="38.5631229" lon="20.5425811"><ele>23.0</ele><time>2026-05-01T12:23:29.799Z</time></trkpt><trkpt lat="38.5631677" lon="20.5426469"><ele>24.0</ele><time>2026-05-01T12:23:37.661Z</time></trkpt><trkpt lat="38.5632055" lon="20.5427162"><ele>25.0</ele><time>2026-05-01T12:23:56.8Z</time></trkpt><trkpt lat="38.5632638" lon="20.5427681"><ele>26.0</ele><time>2026-05-01T12:24:03.823Z</time></trkpt><trkpt lat="38.5632587" lon="20.5426811"><ele>27.0</ele><time>2026-05-01T12:24:37.8Z</time></trkpt><trkpt lat="38.5632692" lon="20.5425997"><ele>28.0</ele><time>2026-05-01T12:24:48.799Z</time></trkpt><trkpt lat="38.563265" lon="20.5425166"><ele>29.0</ele><time>2026-05-01T12:24:54.799Z</time></trkpt><trkpt lat="38.5632632" lon="20.5424193"><ele>30.0</ele><time>2026-05-01T12:25:13.799Z</time></trkpt><trkpt lat="38.5632272" lon="20.5423498"><ele>30.0</ele><time>2026-05-01T12:25:29.799Z</time></trkpt><trkpt lat="38.5632119" lon="20.5422714"><ele>30.0</ele><time>2026-05-01T12:25:34.743Z</time></trkpt><trkpt lat="38.5631951" lon="20.5421863"><ele>30.0</ele><time>2026-05-01T12:25:40.8Z</time></trkpt><trkpt lat="38.5632331" lon="20.5422601"><ele>30.0</ele><time>2026-05-01T12:26:22.8Z</time></trkpt><trkpt lat="38.5632935" lon="20.5422972"><ele>30.0</ele><time>2026-05-01T12:26:32.799Z</time></trkpt><trkpt lat="38.5633545" lon="20.5423364"><ele>30.0</ele><time>2026-05-01T12:27:07.799Z</time></trkpt><trkpt lat="38.5634088" lon="20.5423843"><ele>30.0</ele><time>2026-05-01T12:27:14.8Z</time></trkpt><trkpt lat="38.5634608" lon="20.542447"><ele>30.0</ele><time>2026-05-01T12:27:59.799Z</time></trkpt><trkpt lat="38.5635241" lon="20.5424698"><ele>30.0</ele><time>2026-05-01T12:28:05.8Z</time></trkpt><trkpt lat="38.5635802" lon="20.5425142"><ele>30.0</ele><time>2026-05-01T12:28:13.799Z</time></trkpt><trkpt lat="38.5636397" lon="20.5425567"><ele>30.0</ele><time>2026-05-01T12:28:20.803Z</time></trkpt><trkpt lat="38.5636915" lon="20.5426211"><ele>30.0</ele><time>2026-05-01T12:28:44.8Z</time></trkpt><trkpt lat="38.5636297" lon="20.5426702"><ele>30.0</ele><time>2026-05-01T12:29:06.8Z</time></trkpt><trkpt lat="38.5635694" lon="20.5427126"><ele>30.0</ele><time>2026-05-01T12:29:12.799Z</time></trkpt><trkpt lat="38.5636343" lon="20.5427018"><ele>30.0</ele><time>2026-05-01T12:29:40.8Z</time></trkpt><trkpt lat="38.5636736" lon="20.5426379"><ele>30.0</ele><time>2026-05-01T12:30:11.8Z</time></trkpt><trkpt lat="38.5636675" lon="20.5425569"><ele>30.0</ele><time>2026-05-01T12:30:25.799Z</time></trkpt><trkpt lat="38.5636031" lon="20.5425017"><ele>30.0</ele><time>2026-05-01T12:34:59.799Z</time></trkpt><trkpt lat="38.5635537" lon="20.5424475"><ele>30.0</ele><time>2026-05-01T12:35:05.74Z</time></trkpt><trkpt lat="38.5634904" lon="20.5424483"><ele>30.0</ele><time>2026-05-01T12:35:13.765Z</time></trkpt><trkpt lat="38.5634239" lon="20.5424159"><ele>30.0</ele><time>2026-05-01T12:35:28.82Z</time></trkpt><trkpt lat="38.5633828" lon="20.5423519"><ele>30.0</ele><time>2026-05-01T12:35:44.799Z</time></trkpt><trkpt lat="38.5634271" lon="20.5424175"><ele>30.0</ele><time>2026-05-01T12:35:53.799Z</time></trkpt><trkpt lat="38.5633639" lon="20.542369"><ele>30.0</ele><time>2026-05-01T12:36:56.8Z</time></trkpt><trkpt lat="38.5633094" lon="20.5423081"><ele>30.0</ele><time>2026-05-01T12:37:02.8Z</time></trkpt><trkpt lat="38.5632554" lon="20.5422663"><ele>30.0</ele><time>2026-05-01T12:37:36.799Z</time></trkpt><trkpt lat="38.5632005" lon="20.5422196"><ele>30.0</ele><time>2026-05-01T12:37:41.794Z</time></trkpt><trkpt lat="38.5631819" lon="20.5422979"><ele>30.0</ele><time>2026-05-01T12:37:55.8Z</time></trkpt><trkpt lat="38.5632211" lon="20.542372"><ele>30.0</ele><time>2026-05-01T12:38:02.799Z</time></trkpt><trkpt lat="38.5632371" lon="20.5424531"><ele>30.0</ele><time>2026-05-01T12:38:09.8Z</time></trkpt><trkpt lat="38.56324" lon="20.5425374"><ele>30.0</ele><time>2026-05-01T12:38:19.699Z</time></trkpt><trkpt lat="38.5632616" lon="20.5426215"><ele>30.0</ele><time>2026-05-01T12:38:25.743Z</time></trkpt><trkpt lat="38.5633287" lon="20.5426479"><ele>30.0</ele><time>2026-05-01T12:38:35.741Z</time></trkpt><trkpt lat="38.5633503" lon="20.5427274"><ele>30.0</ele><time>2026-05-01T12:38:42.8Z</time></trkpt><trkpt lat="38.5632862" lon="20.5427142"><ele>30.0</ele><time>2026-05-01T12:38:52.799Z</time></trkpt><trkpt lat="38.5632416" lon="20.5426399"><ele>30.0</ele><time>2026-05-01T12:38:59.764Z</time></trkpt><trkpt lat="38.5631894" lon="20.5425797"><ele>30.0</ele><time>2026-05-01T12:39:06.744Z</time></trkpt><trkpt lat="38.563144" lon="20.5425231"><ele>30.0</ele><time>2026-05-01T12:39:13.799Z</time></trkpt><trkpt lat="38.5630783" lon="20.5424853"><ele>30.0</ele><time>2026-05-01T12:39:21.799Z</time></trkpt><trkpt lat="38.5630175" lon="20.5424644"><ele>30.0</ele><time>2026-05-01T12:39:28.782Z</time></trkpt><trkpt lat="38.5629955" lon="20.5423864"><ele>30.0</ele><time>2026-05-01T12:39:54.799Z</time></trkpt><trkpt lat="38.5629329" lon="20.5423435"><ele>30.0</ele><time>2026-05-01T12:39:59.816Z</time></trkpt><trkpt lat="38.5628798" lon="20.5422799"><ele>29.0</ele><time>2026-05-01T12:40:05.8Z</time></trkpt><trkpt lat="38.5628252" lon="20.5422393"><ele>28.0</ele><time>2026-05-01T12:40:12.8Z</time></trkpt><trkpt lat="38.5627746" lon="20.542179"><ele>27.0</ele><time>2026-05-01T12:40:19.799Z</time></trkpt><trkpt lat="38.5627037" lon="20.5421684"><ele>26.0</ele><time>2026-05-01T12:40:26.799Z</time></trkpt><trkpt lat="38.562665" lon="20.5421034"><ele>25.0</ele><time>2026-05-01T12:41:19.799Z</time></trkpt><trkpt lat="38.5627361" lon="20.5421324"><ele>24.0</ele><time>2026-05-01T12:41:27.8Z</time></trkpt><trkpt lat="38.562778" lon="20.5422072"><ele>23.0</ele><time>2026-05-01T12:41:33.8Z</time></trkpt><trkpt lat="38.5628139" lon="20.5422857"><ele>23.0</ele><time>2026-05-01T12:41:40.799Z</time></trkpt><trkpt lat="38.5628531" lon="20.5423659"><ele>23.0</ele><time>2026-05-01T12:41:47.8Z</time></trkpt><trkpt lat="38.5628891" lon="20.5424385"><ele>23.0</ele><time>2026-05-01T12:41:53.8Z</time></trkpt><trkpt lat="38.5629321" lon="20.5425037"><ele>23.0</ele><time>2026-05-01T12:41:59.799Z</time></trkpt><trkpt lat="38.5629707" lon="20.542572"><ele>23.0</ele><time>2026-05-01T12:42:05.799Z</time></trkpt><trkpt lat="38.5630081" lon="20.5426442"><ele>23.0</ele><time>2026-05-01T12:42:11.8Z</time></trkpt><trkpt lat="38.5630548" lon="20.5427081"><ele>23.0</ele><time>2026-05-01T12:42:17.8Z</time></trkpt><trkpt lat="38.5630739" lon="20.542788"><ele>24.666666666666668</ele><time>2026-05-01T12:48:07.799Z</time></trkpt><trkpt lat="38.5630806" lon="20.5428842"><ele>26.333333333333336</ele><time>2026-05-01T12:48:10.799Z</time></trkpt><trkpt lat="38.5631136" lon="20.5429837"><ele>28.0</ele><time>2026-05-01T12:50:43.799Z</time></trkpt><trkpt lat="38.5631404" lon="20.5430685"><ele>29.666666666666668</ele><time>2026-05-01T12:50:45.8Z</time></trkpt><trkpt lat="38.5631993" lon="20.5431963"><ele>31.333333333333332</ele><time>2026-05-01T12:50:47.799Z</time></trkpt><trkpt lat="38.5632316" lon="20.5432734"><ele>33.0</ele><time>2026-05-01T12:50:48.799Z</time></trkpt><trkpt lat="38.5632577" lon="20.5433481"><ele>33.0</ele><time>2026-05-01T12:50:49.799Z</time></trkpt><trkpt lat="38.5633146" lon="20.5434935"><ele>33.0</ele><time>2026-05-01T12:50:51.8Z</time></trkpt><trkpt lat="38.5633602" lon="20.5435557"><ele>33.0</ele><time>2026-05-01T12:50:52.8Z</time></trkpt><trkpt lat="38.5634189" lon="20.5436"><ele>33.0</ele><time>2026-05-01T12:50:53.799Z</time></trkpt><trkpt lat="38.5634986" lon="20.5436276"><ele>33.0</ele><time>2026-05-01T12:50:54.799Z</time></trkpt><trkpt lat="38.5635795" lon="20.5436305"><ele>33.0</ele><time>2026-05-01T12:50:55.799Z</time></trkpt><trkpt lat="38.5636689" lon="20.5436277"><ele>32.166666666666664</ele><time>2026-05-01T12:50:56.799Z</time></trkpt><trkpt lat="38.563747" lon="20.5436289"><ele>31.333333333333336</ele><time>2026-05-01T12:50:57.799Z</time></trkpt><trkpt lat="38.5638181" lon="20.5436324"><ele>30.5</ele><time>2026-05-01T12:50:58.8Z</time></trkpt><trkpt lat="38.5639151" lon="20.5436713"><ele>29.666666666666668</ele><time>2026-05-01T12:51:00.757Z</time></trkpt><trkpt lat="38.5639579" lon="20.5437364"><ele>28.833333333333336</ele><time>2026-05-01T12:51:01.807Z</time></trkpt><trkpt lat="38.5639912" lon="20.5438085"><ele>28.0</ele><time>2026-05-01T12:51:02.807Z</time></trkpt><trkpt lat="38.5640043" lon="20.5439055"><ele>28.0</ele><time>2026-05-01T12:51:03.807Z</time></trkpt><trkpt lat="38.5640104" lon="20.5440123"><ele>27.999999999999996</ele><time>2026-05-01T12:51:04.807Z</time></trkpt><trkpt lat="38.5640268" lon="20.5441366"><ele>27.999999999999996</ele><time>2026-05-01T12:51:05.807Z</time></trkpt><trkpt lat="38.5640512" lon="20.5442851"><ele>28.0</ele><time>2026-05-01T12:51:06.807Z</time></trkpt><trkpt lat="38.5640806" lon="20.5444295"><ele>28.0</ele><time>2026-05-01T12:51:07.806Z</time></trkpt><trkpt lat="38.564115" lon="20.5445798"><ele>29.25</ele><time>2026-05-01T12:51:08.806Z</time></trkpt><trkpt lat="38.5641502" lon="20.5447221"><ele>30.5</ele><time>2026-05-01T12:51:09.806Z</time></trkpt><trkpt lat="38.5641866" lon="20.5448602"><ele>31.75</ele><time>2026-05-01T12:51:10.806Z</time></trkpt><trkpt lat="38.5642233" lon="20.5449968"><ele>33.0</ele><time>2026-05-01T12:51:11.807Z</time></trkpt><trkpt lat="38.5642801" lon="20.5451247"><ele>33.0</ele><time>2026-05-01T12:51:12.807Z</time></trkpt><trkpt lat="38.5643332" lon="20.5452553"><ele>33.0</ele><time>2026-05-01T12:51:13.806Z</time></trkpt><trkpt lat="38.5643933" lon="20.5453838"><ele>33.0</ele><time>2026-05-01T12:51:14.807Z</time></trkpt><trkpt lat="38.5644602" lon="20.5455008"><ele>33.0</ele><time>2026-05-01T12:51:15.807Z</time></trkpt><trkpt lat="38.5645325" lon="20.5456143"><ele>37.5</ele><time>2026-05-01T12:51:16.806Z</time></trkpt><trkpt lat="38.5646033" lon="20.5457353"><ele>42.0</ele><time>2026-05-01T12:51:17.807Z</time></trkpt><trkpt lat="38.5646567" lon="20.5458686"><ele>46.5</ele><time>2026-05-01T12:51:18.807Z</time></trkpt><trkpt lat="38.5646982" lon="20.5460096"><ele>51.0</ele><time>2026-05-01T12:51:19.807Z</time></trkpt><trkpt lat="38.5647483" lon="20.5461432"><ele>47.75</ele><time>2026-05-01T12:51:20.806Z</time></trkpt><trkpt lat="38.5648082" lon="20.5462715"><ele>44.5</ele><time>2026-05-01T12:51:21.806Z</time></trkpt><trkpt lat="38.5648746" lon="20.5463936"><ele>41.25</ele><time>2026-05-01T12:51:22.806Z</time></trkpt><trkpt lat="38.5649485" lon="20.5465167"><ele>38.0</ele><time>2026-05-01T12:51:23.806Z</time></trkpt><trkpt lat="38.5650201" lon="20.5466341"><ele>38.0</ele><time>2026-05-01T12:51:24.807Z</time></trkpt><trkpt lat="38.5650964" lon="20.5467508"><ele>38.0</ele><time>2026-05-01T12:51:25.806Z</time></trkpt><trkpt lat="38.5651704" lon="20.5468739"><ele>38.0</ele><time>2026-05-01T12:51:26.807Z</time></trkpt><trkpt lat="38.5652313" lon="20.547008"><ele>38.0</ele><time>2026-05-01T12:51:27.807Z</time></trkpt><trkpt lat="38.5652825" lon="20.5471479"><ele>38.199999999999996</ele><time>2026-05-01T12:51:28.806Z</time></trkpt><trkpt lat="38.5653236" lon="20.5472842"><ele>38.4</ele><time>2026-05-01T12:51:29.807Z</time></trkpt><trkpt lat="38.565375" lon="20.5473959"><ele>38.599999999999994</ele><time>2026-05-01T12:51:30.806Z</time></trkpt><trkpt lat="38.5654244" lon="20.5475124"><ele>38.8</ele><time>2026-05-01T12:51:31.807Z</time></trkpt><trkpt lat="38.5654683" lon="20.547626"><ele>39.0</ele><time>2026-05-01T12:51:32.807Z</time></trkpt><trkpt lat="38.5655162" lon="20.5477303"><ele>39.0</ele><time>2026-05-01T12:51:33.806Z</time></trkpt><trkpt lat="38.5655714" lon="20.5478211"><ele>39.0</ele><time>2026-05-01T12:51:34.807Z</time></trkpt><trkpt lat="38.565627" lon="20.5478935"><ele>39.0</ele><time>2026-05-01T12:51:35.806Z</time></trkpt><trkpt lat="38.5656863" lon="20.5479459"><ele>39.0</ele><time>2026-05-01T12:51:36.807Z</time></trkpt><trkpt lat="38.5657517" lon="20.5479753"><ele>39.0</ele><time>2026-05-01T12:51:37.807Z</time></trkpt><trkpt lat="38.5658289" lon="20.5479896"><ele>39.0</ele><time>2026-05-01T12:51:38.806Z</time></trkpt><trkpt lat="38.5659095" lon="20.5479749"><ele>39.0</ele><time>2026-05-01T12:51:39.806Z</time></trkpt><trkpt lat="38.565991" lon="20.5479262"><ele>39.0</ele><time>2026-05-01T12:51:40.806Z</time></trkpt><trkpt lat="38.5660707" lon="20.5478543"><ele>39.0</ele><time>2026-05-01T12:51:41.806Z</time></trkpt><trkpt lat="38.5661414" lon="20.5477672"><ele>39.0</ele><time>2026-05-01T12:51:42.807Z</time></trkpt><trkpt lat="38.5662199" lon="20.5476755"><ele>39.0</ele><time>2026-05-01T12:51:43.807Z</time></trkpt><trkpt lat="38.5662933" lon="20.5475765"><ele>35.4</ele><time>2026-05-01T12:51:44.806Z</time></trkpt><trkpt lat="38.5663689" lon="20.5474711"><ele>31.799999999999997</ele><time>2026-05-01T12:51:45.806Z</time></trkpt><trkpt lat="38.5664433" lon="20.5473638"><ele>28.200000000000003</ele><time>2026-05-01T12:51:46.807Z</time></trkpt><trkpt lat="38.5665203" lon="20.5472605"><ele>24.6</ele><time>2026-05-01T12:51:47.807Z</time></trkpt><trkpt lat="38.5665957" lon="20.5471673"><ele>21.0</ele><time>2026-05-01T12:51:48.806Z</time></trkpt><trkpt lat="38.5666667" lon="20.5470781"><ele>21.0</ele><time>2026-05-01T12:51:49.807Z</time></trkpt><trkpt lat="38.5667313" lon="20.5469934"><ele>21.0</ele><time>2026-05-01T12:51:50.806Z</time></trkpt><trkpt lat="38.5667894" lon="20.5469239"><ele>21.0</ele><time>2026-05-01T12:51:51.806Z</time></trkpt><trkpt lat="38.5668793" lon="20.5468708"><ele>21.0</ele><time>2026-05-01T12:51:53.807Z</time></trkpt><trkpt lat="38.566978" lon="20.546972"><ele>21.0</ele><time>2026-05-01T12:51:55.807Z</time></trkpt><trkpt lat="38.5670236" lon="20.5470631"><ele>25.0</ele><time>2026-05-01T12:51:56.807Z</time></trkpt><trkpt lat="38.5670517" lon="20.5471959"><ele>29.0</ele><time>2026-05-01T12:51:57.806Z</time></trkpt><trkpt lat="38.5670941" lon="20.5472868"><ele>33.0</ele><time>2026-05-01T12:51:58.806Z</time></trkpt><trkpt lat="38.5671175" lon="20.5474036"><ele>37.0</ele><time>2026-05-01T12:51:59.806Z</time></trkpt><trkpt lat="38.5671468" lon="20.5475046"><ele>41.0</ele><time>2026-05-01T12:52:00.807Z</time></trkpt><trkpt lat="38.5671735" lon="20.5476077"><ele>41.0</ele><time>2026-05-01T12:52:01.807Z</time></trkpt><trkpt lat="38.5672088" lon="20.5477171"><ele>41.0</ele><time>2026-05-01T12:52:02.806Z</time></trkpt><trkpt lat="38.5672546" lon="20.5478174"><ele>41.0</ele><time>2026-05-01T12:52:03.806Z</time></trkpt><trkpt lat="38.5672971" lon="20.5479074"><ele>41.0</ele><time>2026-05-01T12:52:04.807Z</time></trkpt><trkpt lat="38.5673536" lon="20.5480033"><ele>41.0</ele><time>2026-05-01T12:52:05.806Z</time></trkpt><trkpt lat="38.5674347" lon="20.5480893"><ele>38.0</ele><time>2026-05-01T12:52:06.807Z</time></trkpt><trkpt lat="38.5675374" lon="20.5481729"><ele>35.0</ele><time>2026-05-01T12:52:07.807Z</time></trkpt><trkpt lat="38.5676182" lon="20.5482697"><ele>32.0</ele><time>2026-05-01T12:52:08.807Z</time></trkpt><trkpt lat="38.567679" lon="20.5483949"><ele>29.0</ele><time>2026-05-01T12:52:09.806Z</time></trkpt><trkpt lat="38.5677413" lon="20.5485251"><ele>29.0</ele><time>2026-05-01T12:52:10.807Z</time></trkpt><trkpt lat="38.567817" lon="20.5486607"><ele>29.0</ele><time>2026-05-01T12:52:11.807Z</time></trkpt><trkpt lat="38.5678765" lon="20.5488023"><ele>29.0</ele><time>2026-05-01T12:52:12.807Z</time></trkpt><trkpt lat="38.5679428" lon="20.5489345"><ele>29.0</ele><time>2026-05-01T12:52:13.807Z</time></trkpt><trkpt lat="38.5680224" lon="20.5490471"><ele>31.0</ele><time>2026-05-01T12:52:14.807Z</time></trkpt><trkpt lat="38.5681036" lon="20.5491337"><ele>33.0</ele><time>2026-05-01T12:52:15.807Z</time></trkpt><trkpt lat="38.568198" lon="20.5492001"><ele>35.0</ele><time>2026-05-01T12:52:16.807Z</time></trkpt><trkpt lat="38.568309" lon="20.5492509"><ele>37.0</ele><time>2026-05-01T12:52:17.806Z</time></trkpt><trkpt lat="38.5684219" lon="20.5493014"><ele>37.0</ele><time>2026-05-01T12:52:18.806Z</time></trkpt><trkpt lat="38.5685215" lon="20.549357"><ele>37.0</ele><time>2026-05-01T12:52:19.806Z</time></trkpt><trkpt lat="38.5686204" lon="20.5493936"><ele>37.0</ele><time>2026-05-01T12:52:20.806Z</time></trkpt><trkpt lat="38.5687275" lon="20.5494128"><ele>37.0</ele><time>2026-05-01T12:52:21.806Z</time></trkpt><trkpt lat="38.5688366" lon="20.5494012"><ele>37.0</ele><time>2026-05-01T12:52:22.807Z</time></trkpt><trkpt lat="38.568941" lon="20.5493624"><ele>36.75</ele><time>2026-05-01T12:52:23.806Z</time></trkpt><trkpt lat="38.5690453" lon="20.5492949"><ele>36.5</ele><time>2026-05-01T12:52:24.806Z</time></trkpt><trkpt lat="38.5691466" lon="20.549197"><ele>36.25</ele><time>2026-05-01T12:52:25.807Z</time></trkpt><trkpt lat="38.5692324" lon="20.5490712"><ele>36.0</ele><time>2026-05-01T12:52:26.806Z</time></trkpt><trkpt lat="38.5693021" lon="20.5489379"><ele>36.0</ele><time>2026-05-01T12:52:27.806Z</time></trkpt><trkpt lat="38.5693638" lon="20.5487855"><ele>36.0</ele><time>2026-05-01T12:52:28.807Z</time></trkpt><trkpt lat="38.5694256" lon="20.5486269"><ele>36.0</ele><time>2026-05-01T12:52:29.807Z</time></trkpt><trkpt lat="38.5694824" lon="20.5484656"><ele>36.0</ele><time>2026-05-01T12:52:30.806Z</time></trkpt><trkpt lat="38.569528" lon="20.5483129"><ele>39.6</ele><time>2026-05-01T12:52:31.807Z</time></trkpt><trkpt lat="38.5695634" lon="20.5481727"><ele>43.2</ele><time>2026-05-01T12:52:32.806Z</time></trkpt><trkpt lat="38.5696027" lon="20.5480549"><ele>46.800000000000004</ele><time>2026-05-01T12:52:33.807Z</time></trkpt><trkpt lat="38.569648" lon="20.5479775"><ele>50.400000000000006</ele><time>2026-05-01T12:52:34.806Z</time></trkpt><trkpt lat="38.5697046" lon="20.5479204"><ele>54.0</ele><time>2026-05-01T12:52:35.806Z</time></trkpt><trkpt lat="38.5698373" lon="20.5479692"><ele>54.0</ele><time>2026-05-01T12:52:37.807Z</time></trkpt><trkpt lat="38.5699122" lon="20.5480195"><ele>54.00000000000001</ele><time>2026-05-01T12:52:38.806Z</time></trkpt><trkpt lat="38.5699911" lon="20.5481057"><ele>54.00000000000001</ele><time>2026-05-01T12:52:39.807Z</time></trkpt><trkpt lat="38.5700796" lon="20.5482248"><ele>54.0</ele><time>2026-05-01T12:52:40.807Z</time></trkpt><trkpt lat="38.5701624" lon="20.5483492"><ele>54.0</ele><time>2026-05-01T12:52:41.807Z</time></trkpt><trkpt lat="38.5702488" lon="20.5484654"><ele>54.0</ele><time>2026-05-01T12:52:42.807Z</time></trkpt><trkpt lat="38.5703366" lon="20.5485884"><ele>54.0</ele><time>2026-05-01T12:52:43.806Z</time></trkpt><trkpt lat="38.5704197" lon="20.5487098"><ele>54.0</ele><time>2026-05-01T12:52:44.806Z</time></trkpt><trkpt lat="38.5705335" lon="20.5488181"><ele>54.0</ele><time>2026-05-01T12:52:45.807Z</time></trkpt><trkpt lat="38.5706314" lon="20.5489311"><ele>56.25</ele><time>2026-05-01T12:52:46.806Z</time></trkpt><trkpt lat="38.5707378" lon="20.5490371"><ele>58.5</ele><time>2026-05-01T12:52:47.806Z</time></trkpt><trkpt lat="38.5708534" lon="20.5491341"><ele>60.75</ele><time>2026-05-01T12:52:48.807Z</time></trkpt><trkpt lat="38.5709795" lon="20.5492141"><ele>63.0</ele><time>2026-05-01T12:52:49.807Z</time></trkpt><trkpt lat="38.5711092" lon="20.5493015"><ele>65.0</ele><time>2026-05-01T12:52:50.807Z</time></trkpt><trkpt lat="38.5712433" lon="20.5493952"><ele>67.0</ele><time>2026-05-01T12:52:51.806Z</time></trkpt><trkpt lat="38.5713786" lon="20.5494966"><ele>69.0</ele><time>2026-05-01T12:52:52.806Z</time></trkpt><trkpt lat="38.5715024" lon="20.549604"><ele>69.0</ele><time>2026-05-01T12:52:53.807Z</time></trkpt><trkpt lat="38.5716301" lon="20.5497065"><ele>69.0</ele><time>2026-05-01T12:52:54.806Z</time></trkpt><trkpt lat="38.5717568" lon="20.5498077"><ele>69.0</ele><time>2026-05-01T12:52:55.807Z</time></trkpt><trkpt lat="38.571887" lon="20.5499026"><ele>69.0</ele><time>2026-05-01T12:52:56.806Z</time></trkpt><trkpt lat="38.5720082" lon="20.5500086"><ele>69.0</ele><time>2026-05-01T12:52:57.807Z</time></trkpt><trkpt lat="38.5721057" lon="20.5501391"><ele>69.0</ele><time>2026-05-01T12:52:58.806Z</time></trkpt><trkpt lat="38.5721892" lon="20.55029"><ele>69.0</ele><time>2026-05-01T12:52:59.807Z</time></trkpt><trkpt lat="38.5722757" lon="20.5504173"><ele>71.25</ele><time>2026-05-01T12:53:00.807Z</time></trkpt><trkpt lat="38.5723715" lon="20.5505255"><ele>73.5</ele><time>2026-05-01T12:53:01.807Z</time></trkpt><trkpt lat="38.572481" lon="20.5506186"><ele>75.75</ele><time>2026-05-01T12:53:02.807Z</time></trkpt><trkpt lat="38.5726037" lon="20.5507004"><ele>78.0</ele><time>2026-05-01T12:53:03.807Z</time></trkpt><trkpt lat="38.5727241" lon="20.5508036"><ele>78.0</ele><time>2026-05-01T12:53:04.806Z</time></trkpt><trkpt lat="38.5728526" lon="20.5509252"><ele>78.0</ele><time>2026-05-01T12:53:05.806Z</time></trkpt><trkpt lat="38.5729846" lon="20.5510686"><ele>78.0</ele><time>2026-05-01T12:53:06.807Z</time></trkpt><trkpt lat="38.5731228" lon="20.5512118"><ele>81.0</ele><time>2026-05-01T12:53:07.806Z</time></trkpt><trkpt lat="38.5732706" lon="20.5513523"><ele>84.0</ele><time>2026-05-01T12:53:08.807Z</time></trkpt><trkpt lat="38.5734187" lon="20.5514815"><ele>87.0</ele><time>2026-05-01T12:53:09.807Z</time></trkpt><trkpt lat="38.5735794" lon="20.5516026"><ele>94.33333333333334</ele><time>2026-05-01T12:53:10.806Z</time></trkpt><trkpt lat="38.5737366" lon="20.551721"><ele>101.66666666666667</ele><time>2026-05-01T12:53:11.807Z</time></trkpt><trkpt lat="38.5738855" lon="20.5518355"><ele>109.0</ele><time>2026-05-01T12:53:12.806Z</time></trkpt><trkpt lat="38.5740246" lon="20.5519528"><ele>102.0</ele><time>2026-05-01T12:53:13.806Z</time></trkpt><trkpt lat="38.5741676" lon="20.5520684"><ele>95.0</ele><time>2026-05-01T12:53:14.806Z</time></trkpt><trkpt lat="38.5743163" lon="20.5521647"><ele>88.0</ele><time>2026-05-01T12:53:15.807Z</time></trkpt><trkpt lat="38.5744748" lon="20.5522576"><ele>94.33333333333333</ele><time>2026-05-01T12:53:16.806Z</time></trkpt><trkpt lat="38.5746299" lon="20.5523533"><ele>100.66666666666666</ele><time>2026-05-01T12:53:17.807Z</time></trkpt><trkpt lat="38.5747741" lon="20.5524506"><ele>107.0</ele><time>2026-05-01T12:53:18.807Z</time></trkpt><trkpt lat="38.5749187" lon="20.5525273"><ele>107.0</ele><time>2026-05-01T12:53:19.807Z</time></trkpt><trkpt lat="38.5750727" lon="20.5525886"><ele>107.0</ele><time>2026-05-01T12:53:20.807Z</time></trkpt><trkpt lat="38.5752261" lon="20.5526429"><ele>107.0</ele><time>2026-05-01T12:53:21.807Z</time></trkpt><trkpt lat="38.5753863" lon="20.5526852"><ele>110.5</ele><time>2026-05-01T12:53:22.807Z</time></trkpt><trkpt lat="38.5755353" lon="20.5527205"><ele>114.0</ele><time>2026-05-01T12:53:23.807Z</time></trkpt><trkpt lat="38.5756679" lon="20.5527442"><ele>117.5</ele><time>2026-05-01T12:53:24.806Z</time></trkpt><trkpt lat="38.5757788" lon="20.5527811"><ele>121.0</ele><time>2026-05-01T12:53:25.806Z</time></trkpt><trkpt lat="38.5758928" lon="20.5528224"><ele>123.75</ele><time>2026-05-01T12:53:26.806Z</time></trkpt><trkpt lat="38.5759441" lon="20.5529573"><ele>126.5</ele><time>2026-05-01T12:53:27.807Z</time></trkpt><trkpt lat="38.5760223" lon="20.5530859"><ele>129.25</ele><time>2026-05-01T12:53:28.806Z</time></trkpt><trkpt lat="38.5761076" lon="20.5532218"><ele>132.0</ele><time>2026-05-01T12:53:29.807Z</time></trkpt><trkpt lat="38.5761894" lon="20.5533646"><ele>132.0</ele><time>2026-05-01T12:53:30.806Z</time></trkpt><trkpt lat="38.576269" lon="20.5534878"><ele>132.0</ele><time>2026-05-01T12:53:31.807Z</time></trkpt><trkpt lat="38.5763532" lon="20.5535908"><ele>132.0</ele><time>2026-05-01T12:53:32.807Z</time></trkpt><trkpt lat="38.576445" lon="20.5536875"><ele>132.0</ele><time>2026-05-01T12:53:33.806Z</time></trkpt><trkpt lat="38.5765545" lon="20.55378"><ele>127.75</ele><time>2026-05-01T12:53:34.806Z</time></trkpt><trkpt lat="38.5766608" lon="20.5538639"><ele>123.5</ele><time>2026-05-01T12:53:35.807Z</time></trkpt><trkpt lat="38.5767675" lon="20.5539499"><ele>119.25</ele><time>2026-05-01T12:53:36.807Z</time></trkpt><trkpt lat="38.5768699" lon="20.5540316"><ele>115.0</ele><time>2026-05-01T12:53:37.807Z</time></trkpt><trkpt lat="38.5769734" lon="20.5540985"><ele>117.5</ele><time>2026-05-01T12:53:38.806Z</time></trkpt><trkpt lat="38.5770876" lon="20.5541507"><ele>120.0</ele><time>2026-05-01T12:53:39.807Z</time></trkpt><trkpt lat="38.5772196" lon="20.5541874"><ele>122.5</ele><time>2026-05-01T12:53:40.806Z</time></trkpt><trkpt lat="38.5773427" lon="20.5542274"><ele>125.0</ele><time>2026-05-01T12:53:41.806Z</time></trkpt><trkpt lat="38.5774652" lon="20.5542711"><ele>125.0</ele><time>2026-05-01T12:53:42.807Z</time></trkpt><trkpt lat="38.5775783" lon="20.5543198"><ele>125.0</ele><time>2026-05-01T12:53:43.807Z</time></trkpt><trkpt lat="38.577685" lon="20.5543687"><ele>125.0</ele><time>2026-05-01T12:53:44.806Z</time></trkpt><trkpt lat="38.5777817" lon="20.5544085"><ele>125.0</ele><time>2026-05-01T12:53:45.807Z</time></trkpt><trkpt lat="38.57787" lon="20.5544321"><ele>125.0</ele><time>2026-05-01T12:53:46.806Z</time></trkpt><trkpt lat="38.5779584" lon="20.554433"><ele>122.75</ele><time>2026-05-01T12:53:47.807Z</time></trkpt><trkpt lat="38.5780557" lon="20.5543877"><ele>120.5</ele><time>2026-05-01T12:53:48.807Z</time></trkpt><trkpt lat="38.5781527" lon="20.5543184"><ele>118.25</ele><time>2026-05-01T12:53:49.807Z</time></trkpt><trkpt lat="38.5782545" lon="20.554201"><ele>116.0</ele><time>2026-05-01T12:53:50.807Z</time></trkpt><trkpt lat="38.5783651" lon="20.5540279"><ele>116.0</ele><time>2026-05-01T12:53:51.807Z</time></trkpt><trkpt lat="38.5784864" lon="20.553815"><ele>116.0</ele><time>2026-05-01T12:53:52.806Z</time></trkpt><trkpt lat="38.5786119" lon="20.5535988"><ele>116.0</ele><time>2026-05-01T12:53:53.806Z</time></trkpt><trkpt lat="38.5787219" lon="20.5533991"><ele>112.66666666666666</ele><time>2026-05-01T12:53:54.806Z</time></trkpt><trkpt lat="38.5788319" lon="20.5532147"><ele>109.33333333333334</ele><time>2026-05-01T12:53:55.806Z</time></trkpt><trkpt lat="38.5789456" lon="20.5530547"><ele>106.0</ele><time>2026-05-01T12:53:56.806Z</time></trkpt><trkpt lat="38.5790578" lon="20.5529231"><ele>110.25</ele><time>2026-05-01T12:53:57.807Z</time></trkpt><trkpt lat="38.5791884" lon="20.5528014"><ele>114.5</ele><time>2026-05-01T12:53:58.807Z</time></trkpt><trkpt lat="38.5792977" lon="20.5526776"><ele>118.75</ele><time>2026-05-01T12:53:59.807Z</time></trkpt><trkpt lat="38.5793955" lon="20.5525521"><ele>123.0</ele><time>2026-05-01T12:54:00.806Z</time></trkpt><trkpt lat="38.5794828" lon="20.5524115"><ele>120.0</ele><time>2026-05-01T12:54:01.806Z</time></trkpt><trkpt lat="38.5795633" lon="20.5522645"><ele>117.0</ele><time>2026-05-01T12:54:02.806Z</time></trkpt><trkpt lat="38.5796424" lon="20.552115"><ele>114.0</ele><time>2026-05-01T12:54:03.806Z</time></trkpt><trkpt lat="38.5797261" lon="20.5519672"><ele>111.0</ele><time>2026-05-01T12:54:04.807Z</time></trkpt><trkpt lat="38.5798063" lon="20.5518261"><ele>111.0</ele><time>2026-05-01T12:54:05.807Z</time></trkpt><trkpt lat="38.5798791" lon="20.5516787"><ele>111.0</ele><time>2026-05-01T12:54:06.806Z</time></trkpt><trkpt lat="38.57994" lon="20.5515208"><ele>111.0</ele><time>2026-05-01T12:54:07.807Z</time></trkpt><trkpt lat="38.5799902" lon="20.5513635"><ele>111.0</ele><time>2026-05-01T12:54:08.806Z</time></trkpt><trkpt lat="38.5800387" lon="20.5512066"><ele>111.0</ele><time>2026-05-01T12:54:09.807Z</time></trkpt><trkpt lat="38.5800952" lon="20.5510702"><ele>111.0</ele><time>2026-05-01T12:54:10.806Z</time></trkpt><trkpt lat="38.5801573" lon="20.550952"><ele>111.0</ele><time>2026-05-01T12:54:11.806Z</time></trkpt><trkpt lat="38.5802214" lon="20.5508497"><ele>111.0</ele><time>2026-05-01T12:54:12.807Z</time></trkpt><trkpt lat="38.5802906" lon="20.5507726"><ele>111.0</ele><time>2026-05-01T12:54:13.806Z</time></trkpt><trkpt lat="38.5803632" lon="20.5507211"><ele>111.0</ele><time>2026-05-01T12:54:14.807Z</time></trkpt><trkpt lat="38.5804514" lon="20.5507131"><ele>111.0</ele><time>2026-05-01T12:54:15.807Z</time></trkpt><trkpt lat="38.5805513" lon="20.5507147"><ele>111.0</ele><time>2026-05-01T12:54:16.806Z</time></trkpt><trkpt lat="38.5806484" lon="20.5507128"><ele>111.0</ele><time>2026-05-01T12:54:17.806Z</time></trkpt><trkpt lat="38.5807433" lon="20.5507105"><ele>111.0</ele><time>2026-05-01T12:54:18.807Z</time></trkpt><trkpt lat="38.5808342" lon="20.5507039"><ele>111.0</ele><time>2026-05-01T12:54:19.807Z</time></trkpt><trkpt lat="38.5809274" lon="20.5507013"><ele>111.0</ele><time>2026-05-01T12:54:20.806Z</time></trkpt><trkpt lat="38.5810287" lon="20.5506952"><ele>111.0</ele><time>2026-05-01T12:54:21.807Z</time></trkpt><trkpt lat="38.581139" lon="20.55068"><ele>111.0</ele><time>2026-05-01T12:54:22.807Z</time></trkpt><trkpt lat="38.5812653" lon="20.5506673"><ele>111.0</ele><time>2026-05-01T12:54:23.807Z</time></trkpt><trkpt lat="38.5813962" lon="20.5506587"><ele>111.75</ele><time>2026-05-01T12:54:24.807Z</time></trkpt><trkpt lat="38.5815284" lon="20.5506508"><ele>112.5</ele><time>2026-05-01T12:54:25.807Z</time></trkpt><trkpt lat="38.5816795" lon="20.5506376"><ele>113.25</ele><time>2026-05-01T12:54:26.806Z</time></trkpt><trkpt lat="38.581838" lon="20.5506254"><ele>114.0</ele><time>2026-05-01T12:54:27.806Z</time></trkpt><trkpt lat="38.5820006" lon="20.5506207"><ele>116.75</ele><time>2026-05-01T12:54:28.806Z</time></trkpt><trkpt lat="38.5821567" lon="20.550611"><ele>119.5</ele><time>2026-05-01T12:54:29.806Z</time></trkpt><trkpt lat="38.5823032" lon="20.5505967"><ele>122.25</ele><time>2026-05-01T12:54:30.807Z</time></trkpt><trkpt lat="38.5824405" lon="20.550585"><ele>125.0</ele><time>2026-05-01T12:54:31.807Z</time></trkpt><trkpt lat="38.5825713" lon="20.5505849"><ele>125.0</ele><time>2026-05-01T12:54:32.807Z</time></trkpt><trkpt lat="38.5826925" lon="20.5505865"><ele>125.0</ele><time>2026-05-01T12:54:33.807Z</time></trkpt><trkpt lat="38.5828131" lon="20.5506041"><ele>125.0</ele><time>2026-05-01T12:54:34.806Z</time></trkpt><trkpt lat="38.5829233" lon="20.5506255"><ele>125.0</ele><time>2026-05-01T12:54:35.806Z</time></trkpt><trkpt lat="38.5830322" lon="20.5506608"><ele>127.0</ele><time>2026-05-01T12:54:36.807Z</time></trkpt><trkpt lat="38.5831414" lon="20.5507085"><ele>129.0</ele><time>2026-05-01T12:54:37.807Z</time></trkpt><trkpt lat="38.5832473" lon="20.5507796"><ele>131.0</ele><time>2026-05-01T12:54:38.807Z</time></trkpt><trkpt lat="38.5833471" lon="20.5508598"><ele>133.0</ele><time>2026-05-01T12:54:39.807Z</time></trkpt><trkpt lat="38.5834419" lon="20.5509398"><ele>133.0</ele><time>2026-05-01T12:54:40.807Z</time></trkpt><trkpt lat="38.5835295" lon="20.5510115"><ele>133.0</ele><time>2026-05-01T12:54:41.807Z</time></trkpt><trkpt lat="38.5836166" lon="20.5510553"><ele>133.0</ele><time>2026-05-01T12:54:42.807Z</time></trkpt><trkpt lat="38.5837206" lon="20.5510636"><ele>133.0</ele><time>2026-05-01T12:54:43.806Z</time></trkpt><trkpt lat="38.583831" lon="20.5510326"><ele>133.0</ele><time>2026-05-01T12:54:44.807Z</time></trkpt><trkpt lat="38.5839422" lon="20.5509638"><ele>135.0</ele><time>2026-05-01T12:54:45.806Z</time></trkpt><trkpt lat="38.5840571" lon="20.550865"><ele>137.0</ele><time>2026-05-01T12:54:46.806Z</time></trkpt><trkpt lat="38.5841756" lon="20.5507656"><ele>139.0</ele><time>2026-05-01T12:54:47.806Z</time></trkpt><trkpt lat="38.5842974" lon="20.5506788"><ele>141.0</ele><time>2026-05-01T12:54:48.807Z</time></trkpt><trkpt lat="38.5844276" lon="20.5506057"><ele>144.0</ele><time>2026-05-01T12:54:49.806Z</time></trkpt><trkpt lat="38.5845623" lon="20.5505524"><ele>147.0</ele><time>2026-05-01T12:54:50.807Z</time></trkpt><trkpt lat="38.5846985" lon="20.5505138"><ele>150.0</ele><time>2026-05-01T12:54:51.807Z</time></trkpt><trkpt lat="38.5848188" lon="20.5504815"><ele>153.0</ele><time>2026-05-01T12:54:52.807Z</time></trkpt><trkpt lat="38.5849424" lon="20.5504658"><ele>153.0</ele><time>2026-05-01T12:54:53.807Z</time></trkpt><trkpt lat="38.5850315" lon="20.5505188"><ele>153.0</ele><time>2026-05-01T12:54:54.807Z</time></trkpt><trkpt lat="38.5851289" lon="20.5505745"><ele>153.0</ele><time>2026-05-01T12:54:55.807Z</time></trkpt><trkpt lat="38.5852188" lon="20.5506537"><ele>153.0</ele><time>2026-05-01T12:54:56.807Z</time></trkpt><trkpt lat="38.5852986" lon="20.5507335"><ele>153.0</ele><time>2026-05-01T12:54:57.806Z</time></trkpt><trkpt lat="38.5853861" lon="20.5508012"><ele>153.4</ele><time>2026-05-01T12:54:58.806Z</time></trkpt><trkpt lat="38.5854772" lon="20.5508456"><ele>153.8</ele><time>2026-05-01T12:54:59.806Z</time></trkpt><trkpt lat="38.5855643" lon="20.5508702"><ele>154.2</ele><time>2026-05-01T12:55:00.806Z</time></trkpt><trkpt lat="38.5856488" lon="20.5508567"><ele>154.6</ele><time>2026-05-01T12:55:01.806Z</time></trkpt><trkpt lat="38.5857386" lon="20.5507992"><ele>155.0</ele><time>2026-05-01T12:55:02.806Z</time></trkpt><trkpt lat="38.5858437" lon="20.5507"><ele>155.0</ele><time>2026-05-01T12:55:03.807Z</time></trkpt><trkpt lat="38.5859476" lon="20.5505865"><ele>155.0</ele><time>2026-05-01T12:55:04.807Z</time></trkpt><trkpt lat="38.586049" lon="20.5504392"><ele>155.0</ele><time>2026-05-01T12:55:05.806Z</time></trkpt><trkpt lat="38.5861457" lon="20.5503263"><ele>155.0</ele><time>2026-05-01T12:55:06.806Z</time></trkpt><trkpt lat="38.5862375" lon="20.5502363"><ele>156.25</ele><time>2026-05-01T12:55:07.807Z</time></trkpt><trkpt lat="38.5863345" lon="20.5501531"><ele>157.5</ele><time>2026-05-01T12:55:08.807Z</time></trkpt><trkpt lat="38.5864338" lon="20.5500789"><ele>158.75</ele><time>2026-05-01T12:55:09.807Z</time></trkpt><trkpt lat="38.5865611" lon="20.5500088"><ele>160.0</ele><time>2026-05-01T12:55:10.806Z</time></trkpt><trkpt lat="38.5867085" lon="20.5499506"><ele>160.0</ele><time>2026-05-01T12:55:11.807Z</time></trkpt><trkpt lat="38.5868639" lon="20.5498885"><ele>160.0</ele><time>2026-05-01T12:55:12.807Z</time></trkpt><trkpt lat="38.5870105" lon="20.5498339"><ele>160.0</ele><time>2026-05-01T12:55:13.807Z</time></trkpt><trkpt lat="38.5871459" lon="20.5498003"><ele>161.75</ele><time>2026-05-01T12:55:14.807Z</time></trkpt><trkpt lat="38.587277" lon="20.5497861"><ele>163.5</ele><time>2026-05-01T12:55:15.807Z</time></trkpt><trkpt lat="38.5874052" lon="20.5497848"><ele>165.25</ele><time>2026-05-01T12:55:16.807Z</time></trkpt><trkpt lat="38.5875194" lon="20.5498149"><ele>167.0</ele><time>2026-05-01T12:55:17.807Z</time></trkpt><trkpt lat="38.5876268" lon="20.5498553"><ele>167.0</ele><time>2026-05-01T12:55:18.807Z</time></trkpt><trkpt lat="38.5877287" lon="20.5499232"><ele>167.0</ele><time>2026-05-01T12:55:19.806Z</time></trkpt><trkpt lat="38.5878196" lon="20.5500094"><ele>167.0</ele><time>2026-05-01T12:55:20.806Z</time></trkpt><trkpt lat="38.5879111" lon="20.5501006"><ele>167.0</ele><time>2026-05-01T12:55:21.807Z</time></trkpt><trkpt lat="38.5879985" lon="20.5502124"><ele>168.0</ele><time>2026-05-01T12:55:22.806Z</time></trkpt><trkpt lat="38.5880817" lon="20.5503397"><ele>169.0</ele><time>2026-05-01T12:55:23.806Z</time></trkpt><trkpt lat="38.588159" lon="20.5504742"><ele>170.0</ele><time>2026-05-01T12:55:24.806Z</time></trkpt><trkpt lat="38.5882447" lon="20.5506134"><ele>171.0</ele><time>2026-05-01T12:55:25.806Z</time></trkpt><trkpt lat="38.5883107" lon="20.5507593"><ele>171.0</ele><time>2026-05-01T12:55:26.806Z</time></trkpt><trkpt lat="38.5883798" lon="20.5508883"><ele>171.0</ele><time>2026-05-01T12:55:27.807Z</time></trkpt><trkpt lat="38.5884502" lon="20.5510089"><ele>171.0</ele><time>2026-05-01T12:55:28.807Z</time></trkpt><trkpt lat="38.5885068" lon="20.5511179"><ele>171.0</ele><time>2026-05-01T12:55:29.806Z</time></trkpt><trkpt lat="38.5885582" lon="20.5512274"><ele>171.0</ele><time>2026-05-01T12:55:30.806Z</time></trkpt><trkpt lat="38.5886014" lon="20.5513543"><ele>172.4</ele><time>2026-05-01T12:55:31.807Z</time></trkpt><trkpt lat="38.5886312" lon="20.5515008"><ele>173.8</ele><time>2026-05-01T12:55:32.807Z</time></trkpt><trkpt lat="38.5886588" lon="20.5516376"><ele>175.20000000000002</ele><time>2026-05-01T12:55:33.807Z</time></trkpt><trkpt lat="38.5886996" lon="20.5517645"><ele>176.60000000000002</ele><time>2026-05-01T12:55:34.806Z</time></trkpt><trkpt lat="38.5887448" lon="20.5518822"><ele>178.0</ele><time>2026-05-01T12:55:35.806Z</time></trkpt><trkpt lat="38.5888019" lon="20.5519921"><ele>176.0</ele><time>2026-05-01T12:55:36.806Z</time></trkpt><trkpt lat="38.5888693" lon="20.5520933"><ele>174.0</ele><time>2026-05-01T12:55:37.806Z</time></trkpt><trkpt lat="38.5889366" lon="20.5521839"><ele>172.0</ele><time>2026-05-01T12:55:38.806Z</time></trkpt><trkpt lat="38.5890085" lon="20.5522863"><ele>170.0</ele><time>2026-05-01T12:55:39.806Z</time></trkpt><trkpt lat="38.5890927" lon="20.5523759"><ele>168.0</ele><time>2026-05-01T12:55:40.806Z</time></trkpt><trkpt lat="38.5891893" lon="20.5524496"><ele>168.0</ele><time>2026-05-01T12:55:41.806Z</time></trkpt><trkpt lat="38.5893023" lon="20.5525055"><ele>168.0</ele><time>2026-05-01T12:55:42.806Z</time></trkpt><trkpt lat="38.589417" lon="20.5525509"><ele>168.0</ele><time>2026-05-01T12:55:43.806Z</time></trkpt><trkpt lat="38.5895443" lon="20.5525818"><ele>168.0</ele><time>2026-05-01T12:55:44.807Z</time></trkpt><trkpt lat="38.5896554" lon="20.5526016"><ele>168.0</ele><time>2026-05-01T12:55:45.806Z</time></trkpt><trkpt lat="38.589777" lon="20.55263"><ele>168.0</ele><time>2026-05-01T12:55:46.807Z</time></trkpt><trkpt lat="38.5898968" lon="20.5526686"><ele>168.0</ele><time>2026-05-01T12:55:47.806Z</time></trkpt><trkpt lat="38.5900184" lon="20.5527094"><ele>168.0</ele><time>2026-05-01T12:55:48.807Z</time></trkpt><trkpt lat="38.5901343" lon="20.5527602"><ele>168.0</ele><time>2026-05-01T12:55:49.807Z</time></trkpt><trkpt lat="38.5902418" lon="20.5528308"><ele>168.0</ele><time>2026-05-01T12:55:50.807Z</time></trkpt><trkpt lat="38.5903442" lon="20.5529133"><ele>168.0</ele><time>2026-05-01T12:55:51.806Z</time></trkpt><trkpt lat="38.5904402" lon="20.5530065"><ele>168.0</ele><time>2026-05-01T12:55:52.806Z</time></trkpt><trkpt lat="38.5905469" lon="20.5531174"><ele>169.0</ele><time>2026-05-01T12:55:53.807Z</time></trkpt><trkpt lat="38.5906504" lon="20.5532277"><ele>170.0</ele><time>2026-05-01T12:55:54.807Z</time></trkpt><trkpt lat="38.5907456" lon="20.5533365"><ele>171.0</ele><time>2026-05-01T12:55:55.807Z</time></trkpt><trkpt lat="38.5908323" lon="20.5534427"><ele>172.0</ele><time>2026-05-01T12:55:56.806Z</time></trkpt><trkpt lat="38.590914" lon="20.5535358"><ele>172.0</ele><time>2026-05-01T12:55:57.806Z</time></trkpt><trkpt lat="38.5909944" lon="20.5536094"><ele>172.0</ele><time>2026-05-01T12:55:58.806Z</time></trkpt><trkpt lat="38.5910793" lon="20.553656"><ele>172.0</ele><time>2026-05-01T12:55:59.807Z</time></trkpt><trkpt lat="38.5911712" lon="20.553674"><ele>172.0</ele><time>2026-05-01T12:56:00.807Z</time></trkpt><trkpt lat="38.5912706" lon="20.5536634"><ele>172.0</ele><time>2026-05-01T12:56:01.807Z</time></trkpt><trkpt lat="38.5913808" lon="20.5536508"><ele>172.25</ele><time>2026-05-01T12:56:02.807Z</time></trkpt><trkpt lat="38.5914893" lon="20.5536387"><ele>172.5</ele><time>2026-05-01T12:56:03.807Z</time></trkpt><trkpt lat="38.5915939" lon="20.5535935"><ele>172.75</ele><time>2026-05-01T12:56:04.806Z</time></trkpt><trkpt lat="38.591693" lon="20.5535291"><ele>173.0</ele><time>2026-05-01T12:56:05.806Z</time></trkpt><trkpt lat="38.5917966" lon="20.5534465"><ele>173.0</ele><time>2026-05-01T12:56:06.807Z</time></trkpt><trkpt lat="38.5919081" lon="20.5533573"><ele>173.0</ele><time>2026-05-01T12:56:07.806Z</time></trkpt><trkpt lat="38.5920208" lon="20.5532741"><ele>173.0</ele><time>2026-05-01T12:56:08.806Z</time></trkpt><trkpt lat="38.5921343" lon="20.5531898"><ele>173.0</ele><time>2026-05-01T12:56:09.807Z</time></trkpt><trkpt lat="38.5922424" lon="20.553113"><ele>173.5</ele><time>2026-05-01T12:56:10.806Z</time></trkpt><trkpt lat="38.5923503" lon="20.5530543"><ele>174.0</ele><time>2026-05-01T12:56:11.807Z</time></trkpt><trkpt lat="38.592452" lon="20.5529873"><ele>174.5</ele><time>2026-05-01T12:56:12.806Z</time></trkpt><trkpt lat="38.592565" lon="20.5529655"><ele>175.0</ele><time>2026-05-01T12:56:13.806Z</time></trkpt><trkpt lat="38.59268" lon="20.5529678"><ele>175.0</ele><time>2026-05-01T12:56:14.807Z</time></trkpt><trkpt lat="38.5927831" lon="20.552982"><ele>175.0</ele><time>2026-05-01T12:56:15.807Z</time></trkpt><trkpt lat="38.5928825" lon="20.5529712"><ele>175.0</ele><time>2026-05-01T12:56:16.807Z</time></trkpt><trkpt lat="38.5929662" lon="20.5529354"><ele>175.0</ele><time>2026-05-01T12:56:17.806Z</time></trkpt><trkpt lat="38.5930478" lon="20.5528697"><ele>175.0</ele><time>2026-05-01T12:56:18.807Z</time></trkpt><trkpt lat="38.5931317" lon="20.5527865"><ele>177.83333333333334</ele><time>2026-05-01T12:56:19.806Z</time></trkpt><trkpt lat="38.5932063" lon="20.5527018"><ele>180.66666666666669</ele><time>2026-05-01T12:56:20.807Z</time></trkpt><trkpt lat="38.5932577" lon="20.5526242"><ele>183.5</ele><time>2026-05-01T12:56:21.807Z</time></trkpt><trkpt lat="38.5932932" lon="20.5525329"><ele>186.33333333333334</ele><time>2026-05-01T12:56:22.806Z</time></trkpt><trkpt lat="38.5933217" lon="20.5524432"><ele>189.16666666666666</ele><time>2026-05-01T12:56:23.807Z</time></trkpt><trkpt lat="38.5933521" lon="20.5523521"><ele>192.0</ele><time>2026-05-01T12:56:24.807Z</time></trkpt><trkpt lat="38.5934197" lon="20.5522727"><ele>192.0</ele><time>2026-05-01T12:56:26.807Z</time></trkpt><trkpt lat="38.5934827" lon="20.5523593"><ele>192.0</ele><time>2026-05-01T12:56:28.807Z</time></trkpt><trkpt lat="38.5934843" lon="20.5524579"><ele>192.0</ele><time>2026-05-01T12:56:29.807Z</time></trkpt><trkpt lat="38.5935043" lon="20.5525747"><ele>192.0</ele><time>2026-05-01T12:56:30.807Z</time></trkpt><trkpt lat="38.5935307" lon="20.5527106"><ele>192.0</ele><time>2026-05-01T12:56:31.807Z</time></trkpt><trkpt lat="38.5935687" lon="20.5528474"><ele>191.5</ele><time>2026-05-01T12:56:32.806Z</time></trkpt><trkpt lat="38.593608" lon="20.55299"><ele>191.0</ele><time>2026-05-01T12:56:33.807Z</time></trkpt><trkpt lat="38.593663" lon="20.553136"><ele>190.5</ele><time>2026-05-01T12:56:34.807Z</time></trkpt><trkpt lat="38.5937026" lon="20.5532761"><ele>190.0</ele><time>2026-05-01T12:56:35.807Z</time></trkpt><trkpt lat="38.5937449" lon="20.5534092"><ele>193.4</ele><time>2026-05-01T12:56:36.807Z</time></trkpt><trkpt lat="38.5937946" lon="20.5535349"><ele>196.8</ele><time>2026-05-01T12:56:37.807Z</time></trkpt><trkpt lat="38.593847" lon="20.5536618"><ele>200.2</ele><time>2026-05-01T12:56:38.806Z</time></trkpt><trkpt lat="38.593898" lon="20.5537865"><ele>203.6</ele><time>2026-05-01T12:56:39.806Z</time></trkpt><trkpt lat="38.5939459" lon="20.5539121"><ele>207.0</ele><time>2026-05-01T12:56:40.807Z</time></trkpt><trkpt lat="38.593999" lon="20.554039"><ele>207.0</ele><time>2026-05-01T12:56:41.806Z</time></trkpt><trkpt lat="38.5940461" lon="20.5541712"><ele>207.0</ele><time>2026-05-01T12:56:42.806Z</time></trkpt><trkpt lat="38.5941012" lon="20.5543014"><ele>207.0</ele><time>2026-05-01T12:56:43.806Z</time></trkpt><trkpt lat="38.5941508" lon="20.5544472"><ele>207.0</ele><time>2026-05-01T12:56:44.807Z</time></trkpt><trkpt lat="38.5942044" lon="20.5546022"><ele>207.0</ele><time>2026-05-01T12:56:45.807Z</time></trkpt><trkpt lat="38.5942579" lon="20.5547614"><ele>207.0</ele><time>2026-05-01T12:56:46.807Z</time></trkpt><trkpt lat="38.5943107" lon="20.5549304"><ele>207.0</ele><time>2026-05-01T12:56:47.806Z</time></trkpt><trkpt lat="38.5943647" lon="20.5550982"><ele>207.0</ele><time>2026-05-01T12:56:48.806Z</time></trkpt><trkpt lat="38.5944107" lon="20.5552665"><ele>206.75</ele><time>2026-05-01T12:56:49.806Z</time></trkpt><trkpt lat="38.5944538" lon="20.5554332"><ele>206.5</ele><time>2026-05-01T12:56:50.806Z</time></trkpt><trkpt lat="38.5944945" lon="20.5556011"><ele>206.25</ele><time>2026-05-01T12:56:51.806Z</time></trkpt><trkpt lat="38.5945348" lon="20.5557628"><ele>206.0</ele><time>2026-05-01T12:56:52.806Z</time></trkpt><trkpt lat="38.5945708" lon="20.5559066"><ele>208.16666666666669</ele><time>2026-05-01T12:56:53.806Z</time></trkpt><trkpt lat="38.5946175" lon="20.5560329"><ele>210.33333333333334</ele><time>2026-05-01T12:56:54.807Z</time></trkpt><trkpt lat="38.5946581" lon="20.5561334"><ele>212.5</ele><time>2026-05-01T12:56:55.807Z</time></trkpt><trkpt lat="38.5946956" lon="20.5561984"><ele>214.66666666666669</ele><time>2026-05-01T12:56:56.806Z</time></trkpt><trkpt lat="38.5947808" lon="20.5562229"><ele>216.83333333333334</ele><time>2026-05-01T12:56:58.806Z</time></trkpt><trkpt lat="38.5948299" lon="20.5561122"><ele>219.0</ele><time>2026-05-01T12:57:00.806Z</time></trkpt><trkpt lat="38.5948388" lon="20.5560294"><ele>220.0</ele><time>2026-05-01T12:57:01.806Z</time></trkpt><trkpt lat="38.5948619" lon="20.5559163"><ele>220.99999999999997</ele><time>2026-05-01T12:57:02.806Z</time></trkpt><trkpt lat="38.594889" lon="20.5557943"><ele>221.99999999999997</ele><time>2026-05-01T12:57:03.806Z</time></trkpt><trkpt lat="38.5949244" lon="20.5556493"><ele>223.0</ele><time>2026-05-01T12:57:04.807Z</time></trkpt><trkpt lat="38.5949592" lon="20.5554867"><ele>224.0</ele><time>2026-05-01T12:57:05.807Z</time></trkpt><trkpt lat="38.5950012" lon="20.5553388"><ele>225.25</ele><time>2026-05-01T12:57:06.807Z</time></trkpt><trkpt lat="38.5950307" lon="20.5551948"><ele>226.5</ele><time>2026-05-01T12:57:07.807Z</time></trkpt><trkpt lat="38.595058" lon="20.5550589"><ele>227.75</ele><time>2026-05-01T12:57:08.807Z</time></trkpt><trkpt lat="38.5950696" lon="20.5549075"><ele>229.0</ele><time>2026-05-01T12:57:09.806Z</time></trkpt><trkpt lat="38.5950804" lon="20.5547553"><ele>229.0</ele><time>2026-05-01T12:57:10.806Z</time></trkpt><trkpt lat="38.5950851" lon="20.5546184"><ele>228.99999999999997</ele><time>2026-05-01T12:57:11.807Z</time></trkpt><trkpt lat="38.5950816" lon="20.5544867"><ele>228.99999999999997</ele><time>2026-05-01T12:57:12.806Z</time></trkpt><trkpt lat="38.5950738" lon="20.5543602"><ele>229.0</ele><time>2026-05-01T12:57:13.807Z</time></trkpt><trkpt lat="38.5950646" lon="20.5542282"><ele>229.0</ele><time>2026-05-01T12:57:14.806Z</time></trkpt><trkpt lat="38.5950594" lon="20.5540954"><ele>229.79999999999998</ele><time>2026-05-01T12:57:15.807Z</time></trkpt><trkpt lat="38.5950533" lon="20.5539604"><ele>230.59999999999997</ele><time>2026-05-01T12:57:16.807Z</time></trkpt><trkpt lat="38.5950516" lon="20.5538286"><ele>231.4</ele><time>2026-05-01T12:57:17.807Z</time></trkpt><trkpt lat="38.5950487" lon="20.5536883"><ele>232.2</ele><time>2026-05-01T12:57:18.806Z</time></trkpt><trkpt lat="38.5950437" lon="20.5535529"><ele>233.0</ele><time>2026-05-01T12:57:19.807Z</time></trkpt><trkpt lat="38.5950411" lon="20.5533979"><ele>234.25</ele><time>2026-05-01T12:57:20.807Z</time></trkpt><trkpt lat="38.5950449" lon="20.5532503"><ele>235.5</ele><time>2026-05-01T12:57:21.806Z</time></trkpt><trkpt lat="38.5950396" lon="20.5530852"><ele>236.75</ele><time>2026-05-01T12:57:22.807Z</time></trkpt><trkpt lat="38.5950297" lon="20.5529185"><ele>238.0</ele><time>2026-05-01T12:57:23.807Z</time></trkpt><trkpt lat="38.5950093" lon="20.5527585"><ele>239.2</ele><time>2026-05-01T12:57:24.807Z</time></trkpt><trkpt lat="38.5949946" lon="20.552618"><ele>240.4</ele><time>2026-05-01T12:57:25.807Z</time></trkpt><trkpt lat="38.5949812" lon="20.5524959"><ele>241.59999999999997</ele><time>2026-05-01T12:57:26.807Z</time></trkpt><trkpt lat="38.5949629" lon="20.5523753"><ele>242.79999999999998</ele><time>2026-05-01T12:57:27.807Z</time></trkpt><trkpt lat="38.5949579" lon="20.5522917"><ele>244.0</ele><time>2026-05-01T12:57:28.806Z</time></trkpt><trkpt lat="38.5949891" lon="20.5521883"><ele>243.99999999999997</ele><time>2026-05-01T12:57:30.806Z</time></trkpt><trkpt lat="38.5950714" lon="20.5522083"><ele>244.0</ele><time>2026-05-01T12:57:32.806Z</time></trkpt><trkpt lat="38.5951177" lon="20.5522667"><ele>244.0</ele><time>2026-05-01T12:57:33.806Z</time></trkpt><trkpt lat="38.5951642" lon="20.5523563"><ele>244.0</ele><time>2026-05-01T12:57:34.805Z</time></trkpt><trkpt lat="38.5952187" lon="20.5524607"><ele>243.99999999999997</ele><time>2026-05-01T12:57:35.806Z</time></trkpt><trkpt lat="38.5952755" lon="20.552584"><ele>244.0</ele><time>2026-05-01T12:57:36.806Z</time></trkpt><trkpt lat="38.5953468" lon="20.5527245"><ele>248.25</ele><time>2026-05-01T12:57:37.806Z</time></trkpt><trkpt lat="38.5954275" lon="20.5528575"><ele>252.5</ele><time>2026-05-01T12:57:38.806Z</time></trkpt><trkpt lat="38.5955032" lon="20.5530036"><ele>256.75</ele><time>2026-05-01T12:57:39.807Z</time></trkpt><trkpt lat="38.5955876" lon="20.5531712"><ele>261.0</ele><time>2026-05-01T12:57:40.807Z</time></trkpt><trkpt lat="38.5956749" lon="20.5533508"><ele>260.6666666666667</ele><time>2026-05-01T12:57:41.807Z</time></trkpt><trkpt lat="38.5957701" lon="20.5535452"><ele>260.33333333333337</ele><time>2026-05-01T12:57:42.807Z</time></trkpt><trkpt lat="38.5958595" lon="20.5537086"><ele>260.0</ele><time>2026-05-01T12:57:43.807Z</time></trkpt><trkpt lat="38.5959487" lon="20.5538729"><ele>260.0</ele><time>2026-05-01T12:57:44.807Z</time></trkpt><trkpt lat="38.5960359" lon="20.5540342"><ele>260.0</ele><time>2026-05-01T12:57:45.807Z</time></trkpt><trkpt lat="38.5961115" lon="20.5541987"><ele>260.0</ele><time>2026-05-01T12:57:46.806Z</time></trkpt><trkpt lat="38.5961824" lon="20.554358"><ele>260.0</ele><time>2026-05-01T12:57:47.807Z</time></trkpt><trkpt lat="38.5962471" lon="20.5545112"><ele>263.75</ele><time>2026-05-01T12:57:48.807Z</time></trkpt><trkpt lat="38.5963098" lon="20.5546548"><ele>267.5</ele><time>2026-05-01T12:57:49.807Z</time></trkpt><trkpt lat="38.5963948" lon="20.5547825"><ele>271.25</ele><time>2026-05-01T12:57:50.807Z</time></trkpt><trkpt lat="38.5964844" lon="20.5548923"><ele>275.0</ele><time>2026-05-01T12:57:51.806Z</time></trkpt><trkpt lat="38.5965934" lon="20.5549824"><ele>275.0</ele><time>2026-05-01T12:57:52.806Z</time></trkpt><trkpt lat="38.5967076" lon="20.5550691"><ele>275.0</ele><time>2026-05-01T12:57:53.806Z</time></trkpt><trkpt lat="38.596813" lon="20.555177"><ele>275.0</ele><time>2026-05-01T12:57:54.807Z</time></trkpt><trkpt lat="38.5969082" lon="20.5553005"><ele>275.0</ele><time>2026-05-01T12:57:55.807Z</time></trkpt><trkpt lat="38.5969842" lon="20.5554367"><ele>278.0</ele><time>2026-05-01T12:57:56.806Z</time></trkpt><trkpt lat="38.5970629" lon="20.555575"><ele>281.0</ele><time>2026-05-01T12:57:57.806Z</time></trkpt><trkpt lat="38.5971146" lon="20.5557132"><ele>284.0</ele><time>2026-05-01T12:57:58.807Z</time></trkpt><trkpt lat="38.5971965" lon="20.5558318"><ele>287.0</ele><time>2026-05-01T12:57:59.806Z</time></trkpt><trkpt lat="38.5972874" lon="20.5559189"><ele>287.0</ele><time>2026-05-01T12:58:00.806Z</time></trkpt><trkpt lat="38.5973985" lon="20.5559897"><ele>287.0</ele><time>2026-05-01T12:58:01.807Z</time></trkpt><trkpt lat="38.5975289" lon="20.5560306"><ele>287.0</ele><time>2026-05-01T12:58:02.806Z</time></trkpt><trkpt lat="38.5976802" lon="20.5560478"><ele>287.0</ele><time>2026-05-01T12:58:03.807Z</time></trkpt><trkpt lat="38.5978282" lon="20.5560671"><ele>288.25</ele><time>2026-05-01T12:58:04.807Z</time></trkpt><trkpt lat="38.5979523" lon="20.556108"><ele>289.5</ele><time>2026-05-01T12:58:05.807Z</time></trkpt><trkpt lat="38.598052" lon="20.5561776"><ele>290.75</ele><time>2026-05-01T12:58:06.807Z</time></trkpt><trkpt lat="38.5981341" lon="20.5562821"><ele>292.0</ele><time>2026-05-01T12:58:07.807Z</time></trkpt><trkpt lat="38.5981874" lon="20.5564283"><ele>292.0</ele><time>2026-05-01T12:58:08.806Z</time></trkpt><trkpt lat="38.5982481" lon="20.5565745"><ele>292.0</ele><time>2026-05-01T12:58:09.806Z</time></trkpt><trkpt lat="38.5983404" lon="20.5567409"><ele>292.0</ele><time>2026-05-01T12:58:10.807Z</time></trkpt><trkpt lat="38.5984341" lon="20.55693"><ele>292.3333333333333</ele><time>2026-05-01T12:58:11.806Z</time></trkpt><trkpt lat="38.5985344" lon="20.5571516"><ele>292.6666666666667</ele><time>2026-05-01T12:58:12.806Z</time></trkpt><trkpt lat="38.5986573" lon="20.5573544"><ele>293.0</ele><time>2026-05-01T12:58:13.806Z</time></trkpt><trkpt lat="38.5987821" lon="20.5575472"><ele>295.6666666666667</ele><time>2026-05-01T12:58:14.807Z</time></trkpt><trkpt lat="38.5989156" lon="20.5577174"><ele>298.3333333333333</ele><time>2026-05-01T12:58:15.806Z</time></trkpt><trkpt lat="38.5990816" lon="20.557888"><ele>301.0</ele><time>2026-05-01T12:58:16.806Z</time></trkpt><trkpt lat="38.5992274" lon="20.5580398"><ele>302.3333333333333</ele><time>2026-05-01T12:58:17.806Z</time></trkpt><trkpt lat="38.5993744" lon="20.5581783"><ele>303.6666666666667</ele><time>2026-05-01T12:58:18.806Z</time></trkpt><trkpt lat="38.5994915" lon="20.5582963"><ele>305.0</ele><time>2026-05-01T12:58:19.807Z</time></trkpt><trkpt lat="38.5996112" lon="20.5583811"><ele>305.25</ele><time>2026-05-01T12:58:20.806Z</time></trkpt><trkpt lat="38.599746" lon="20.558433"><ele>305.5</ele><time>2026-05-01T12:58:21.807Z</time></trkpt><trkpt lat="38.5998919" lon="20.5584709"><ele>305.75</ele><time>2026-05-01T12:58:22.805Z</time></trkpt><trkpt lat="38.6000356" lon="20.558497"><ele>306.0</ele><time>2026-05-01T12:58:23.806Z</time></trkpt><trkpt lat="38.6001699" lon="20.5585524"><ele>306.0</ele><time>2026-05-01T12:58:24.806Z</time></trkpt><trkpt lat="38.6003016" lon="20.5586165"><ele>306.0</ele><time>2026-05-01T12:58:25.807Z</time></trkpt><trkpt lat="38.6004251" lon="20.5587055"><ele>306.0</ele><time>2026-05-01T12:58:26.807Z</time></trkpt><trkpt lat="38.6005524" lon="20.558809"><ele>306.0</ele><time>2026-05-01T12:58:27.807Z</time></trkpt><trkpt lat="38.6006541" lon="20.5589358"><ele>308.25</ele><time>2026-05-01T12:58:28.807Z</time></trkpt><trkpt lat="38.6007523" lon="20.5590611"><ele>310.5</ele><time>2026-05-01T12:58:29.807Z</time></trkpt><trkpt lat="38.600835" lon="20.5592089"><ele>312.75</ele><time>2026-05-01T12:58:30.806Z</time></trkpt><trkpt lat="38.6009132" lon="20.5593631"><ele>315.0</ele><time>2026-05-01T12:58:31.806Z</time></trkpt><trkpt lat="38.6009848" lon="20.5595055"><ele>317.4</ele><time>2026-05-01T12:58:32.807Z</time></trkpt><trkpt lat="38.6010506" lon="20.5596391"><ele>319.8</ele><time>2026-05-01T12:58:33.807Z</time></trkpt><trkpt lat="38.6011039" lon="20.5597632"><ele>322.20000000000005</ele><time>2026-05-01T12:58:34.806Z</time></trkpt><trkpt lat="38.6011632" lon="20.5598596"><ele>324.6</ele><time>2026-05-01T12:58:35.806Z</time></trkpt><trkpt lat="38.6012096" lon="20.559939"><ele>327.0</ele><time>2026-05-01T12:58:36.806Z</time></trkpt><trkpt lat="38.6012682" lon="20.5599866"><ele>327.0</ele><time>2026-05-01T12:58:37.806Z</time></trkpt><trkpt lat="38.6013916" lon="20.5600379"><ele>327.0</ele><time>2026-05-01T12:58:39.806Z</time></trkpt><trkpt lat="38.6014677" lon="20.5600208"><ele>327.0</ele><time>2026-05-01T12:58:40.806Z</time></trkpt><trkpt lat="38.6015559" lon="20.5599908"><ele>327.0</ele><time>2026-05-01T12:58:41.806Z</time></trkpt><trkpt lat="38.6016592" lon="20.5599532"><ele>327.0</ele><time>2026-05-01T12:58:42.806Z</time></trkpt><trkpt lat="38.6017622" lon="20.5599225"><ele>327.0</ele><time>2026-05-01T12:58:43.807Z</time></trkpt><trkpt lat="38.6018639" lon="20.5598845"><ele>327.0</ele><time>2026-05-01T12:58:44.807Z</time></trkpt><trkpt lat="38.6019621" lon="20.559837"><ele>327.0</ele><time>2026-05-01T12:58:45.807Z</time></trkpt><trkpt lat="38.6020562" lon="20.5597732"><ele>327.0</ele><time>2026-05-01T12:58:46.807Z</time></trkpt><trkpt lat="38.6021398" lon="20.5597001"><ele>327.0</ele><time>2026-05-01T12:58:47.806Z</time></trkpt><trkpt lat="38.602217" lon="20.5596165"><ele>326.5</ele><time>2026-05-01T12:58:48.806Z</time></trkpt><trkpt lat="38.6022832" lon="20.559533"><ele>326.0</ele><time>2026-05-01T12:58:49.806Z</time></trkpt><trkpt lat="38.6023471" lon="20.5594585"><ele>325.5</ele><time>2026-05-01T12:58:50.806Z</time></trkpt><trkpt lat="38.6024211" lon="20.5593972"><ele>325.0</ele><time>2026-05-01T12:58:51.807Z</time></trkpt><trkpt lat="38.6024805" lon="20.5593282"><ele>324.5</ele><time>2026-05-01T12:58:52.807Z</time></trkpt><trkpt lat="38.6025599" lon="20.5592984"><ele>324.0</ele><time>2026-05-01T12:58:53.806Z</time></trkpt><trkpt lat="38.602653" lon="20.5592779"><ele>324.0</ele><time>2026-05-01T12:58:54.807Z</time></trkpt><trkpt lat="38.6027408" lon="20.5592618"><ele>324.0</ele><time>2026-05-01T12:58:55.807Z</time></trkpt><trkpt lat="38.6028382" lon="20.5592733"><ele>324.0</ele><time>2026-05-01T12:58:56.806Z</time></trkpt><trkpt lat="38.602936" lon="20.5593091"><ele>324.0</ele><time>2026-05-01T12:58:57.807Z</time></trkpt><trkpt lat="38.60303" lon="20.559361"><ele>324.0</ele><time>2026-05-01T12:58:58.807Z</time></trkpt><trkpt lat="38.6031207" lon="20.5594172"><ele>323.0</ele><time>2026-05-01T12:58:59.806Z</time></trkpt><trkpt lat="38.6032032" lon="20.5594646"><ele>322.0</ele><time>2026-05-01T12:59:00.807Z</time></trkpt><trkpt lat="38.6033054" lon="20.5595087"><ele>321.0</ele><time>2026-05-01T12:59:01.806Z</time></trkpt><trkpt lat="38.6034033" lon="20.5595618"><ele>320.0</ele><time>2026-05-01T12:59:02.806Z</time></trkpt><trkpt lat="38.6035016" lon="20.5596321"><ele>319.0</ele><time>2026-05-01T12:59:03.807Z</time></trkpt><trkpt lat="38.6035996" lon="20.5596994"><ele>320.4</ele><time>2026-05-01T12:59:04.807Z</time></trkpt><trkpt lat="38.603692" lon="20.5597745"><ele>321.79999999999995</ele><time>2026-05-01T12:59:05.806Z</time></trkpt><trkpt lat="38.6037805" lon="20.5598618"><ele>323.20000000000005</ele><time>2026-05-01T12:59:06.807Z</time></trkpt><trkpt lat="38.6038628" lon="20.5599633"><ele>324.6</ele><time>2026-05-01T12:59:07.806Z</time></trkpt><trkpt lat="38.6039394" lon="20.5600573"><ele>326.0</ele><time>2026-05-01T12:59:08.806Z</time></trkpt><trkpt lat="38.6040218" lon="20.5601479"><ele>326.0</ele><time>2026-05-01T12:59:09.807Z</time></trkpt><trkpt lat="38.6041073" lon="20.5602401"><ele>326.0</ele><time>2026-05-01T12:59:10.806Z</time></trkpt><trkpt lat="38.6042013" lon="20.5603204"><ele>326.0</ele><time>2026-05-01T12:59:11.807Z</time></trkpt><trkpt lat="38.6043039" lon="20.5603852"><ele>326.0</ele><time>2026-05-01T12:59:12.806Z</time></trkpt><trkpt lat="38.6044093" lon="20.5604284"><ele>332.5</ele><time>2026-05-01T12:59:13.807Z</time></trkpt><trkpt lat="38.6045221" lon="20.5604597"><ele>339.0</ele><time>2026-05-01T12:59:14.806Z</time></trkpt><trkpt lat="38.6046401" lon="20.5604839"><ele>345.5</ele><time>2026-05-01T12:59:15.807Z</time></trkpt><trkpt lat="38.6047597" lon="20.5605089"><ele>352.0</ele><time>2026-05-01T12:59:16.806Z</time></trkpt><trkpt lat="38.6048826" lon="20.5605316"><ele>352.0</ele><time>2026-05-01T12:59:17.807Z</time></trkpt><trkpt lat="38.6050076" lon="20.5605562"><ele>352.0</ele><time>2026-05-01T12:59:18.806Z</time></trkpt><trkpt lat="38.605124" lon="20.5605789"><ele>352.0</ele><time>2026-05-01T12:59:19.805Z</time></trkpt><trkpt lat="38.6052284" lon="20.5606009"><ele>352.0</ele><time>2026-05-01T12:59:20.807Z</time></trkpt><trkpt lat="38.6053335" lon="20.5606283"><ele>350.5</ele><time>2026-05-01T12:59:21.807Z</time></trkpt><trkpt lat="38.6054186" lon="20.560648"><ele>349.0</ele><time>2026-05-01T12:59:22.806Z</time></trkpt><trkpt lat="38.6054963" lon="20.5606728"><ele>347.5</ele><time>2026-05-01T12:59:23.807Z</time></trkpt><trkpt lat="38.605562" lon="20.5606953"><ele>346.0</ele><time>2026-05-01T12:59:24.807Z</time></trkpt><trkpt lat="38.6056698" lon="20.5607239"><ele>344.5</ele><time>2026-05-01T12:59:26.806Z</time></trkpt><trkpt lat="38.6057554" lon="20.5607434"><ele>343.0</ele><time>2026-05-01T12:59:28.807Z</time></trkpt><trkpt lat="38.6058373" lon="20.5607697"><ele>343.0</ele><time>2026-05-01T12:59:30.807Z</time></trkpt><trkpt lat="38.6059357" lon="20.5608091"><ele>343.0</ele><time>2026-05-01T12:59:32.806Z</time></trkpt><trkpt lat="38.6059992" lon="20.5608291"><ele>343.0</ele><time>2026-05-01T12:59:33.807Z</time></trkpt><trkpt lat="38.6060661" lon="20.5608549"><ele>343.0</ele><time>2026-05-01T12:59:34.806Z</time></trkpt><trkpt lat="38.6061382" lon="20.5608838"><ele>343.0</ele><time>2026-05-01T12:59:35.806Z</time></trkpt><trkpt lat="38.6061976" lon="20.5609228"><ele>343.0</ele><time>2026-05-01T12:59:36.807Z</time></trkpt><trkpt lat="38.6062776" lon="20.5609594"><ele>344.5</ele><time>2026-05-01T12:59:37.807Z</time></trkpt><trkpt lat="38.6063547" lon="20.5609921"><ele>346.0</ele><time>2026-05-01T12:59:38.807Z</time></trkpt><trkpt lat="38.6064334" lon="20.56103"><ele>347.5</ele><time>2026-05-01T12:59:39.807Z</time></trkpt><trkpt lat="38.6064921" lon="20.5610771"><ele>349.0</ele><time>2026-05-01T12:59:40.807Z</time></trkpt><trkpt lat="38.6065872" lon="20.5611705"><ele>350.5</ele><time>2026-05-01T12:59:42.806Z</time></trkpt><trkpt lat="38.6066329" lon="20.5612262"><ele>352.0</ele><time>2026-05-01T12:59:43.807Z</time></trkpt><trkpt lat="38.6066858" lon="20.5612825"><ele>352.0</ele><time>2026-05-01T12:59:44.805Z</time></trkpt><trkpt lat="38.6067371" lon="20.5613458"><ele>352.0</ele><time>2026-05-01T12:59:45.807Z</time></trkpt><trkpt lat="38.6067919" lon="20.561419"><ele>352.0</ele><time>2026-05-01T12:59:46.806Z</time></trkpt><trkpt lat="38.6068505" lon="20.5614976"><ele>352.0</ele><time>2026-05-01T12:59:47.807Z</time></trkpt><trkpt lat="38.6069125" lon="20.5615866"><ele>352.0</ele><time>2026-05-01T12:59:48.807Z</time></trkpt><trkpt lat="38.6069764" lon="20.5616633"><ele>352.0</ele><time>2026-05-01T12:59:49.807Z</time></trkpt><trkpt lat="38.6070271" lon="20.5617373"><ele>350.42857142857144</ele><time>2026-05-01T12:59:50.807Z</time></trkpt><trkpt lat="38.6070795" lon="20.5618181"><ele>348.85714285714283</ele><time>2026-05-01T12:59:51.806Z</time></trkpt><trkpt lat="38.6071228" lon="20.5618913"><ele>347.2857142857143</ele><time>2026-05-01T12:59:52.806Z</time></trkpt><trkpt lat="38.6071617" lon="20.5619611"><ele>345.7142857142857</ele><time>2026-05-01T12:59:53.806Z</time></trkpt><trkpt lat="38.6072095" lon="20.5620269"><ele>344.14285714285717</ele><time>2026-05-01T12:59:54.806Z</time></trkpt><trkpt lat="38.6072448" lon="20.5621"><ele>342.57142857142856</ele><time>2026-05-01T12:59:55.806Z</time></trkpt><trkpt lat="38.6072791" lon="20.5621747"><ele>341.0</ele><time>2026-05-01T12:59:56.806Z</time></trkpt><trkpt lat="38.6073318" lon="20.5622566"><ele>341.0</ele><time>2026-05-01T12:59:57.806Z</time></trkpt><trkpt lat="38.6073809" lon="20.5623514"><ele>341.0</ele><time>2026-05-01T12:59:58.807Z</time></trkpt><trkpt lat="38.6074371" lon="20.5624462"><ele>341.0</ele><time>2026-05-01T12:59:59.806Z</time></trkpt><trkpt lat="38.6074998" lon="20.5625549"><ele>341.0</ele><time>2026-05-01T13:00:00.806Z</time></trkpt><trkpt lat="38.6075608" lon="20.5626575"><ele>341.0</ele><time>2026-05-01T13:00:01.807Z</time></trkpt><trkpt lat="38.6076242" lon="20.5627668"><ele>343.25</ele><time>2026-05-01T13:00:02.806Z</time></trkpt><trkpt lat="38.607704" lon="20.5628668"><ele>345.5</ele><time>2026-05-01T13:00:03.806Z</time></trkpt><trkpt lat="38.6077663" lon="20.5629842"><ele>347.75</ele><time>2026-05-01T13:00:04.806Z</time></trkpt><trkpt lat="38.6078317" lon="20.5630977"><ele>350.0</ele><time>2026-05-01T13:00:05.807Z</time></trkpt><trkpt lat="38.6078936" lon="20.5632306"><ele>345.75</ele><time>2026-05-01T13:00:06.806Z</time></trkpt><trkpt lat="38.6079499" lon="20.5633623"><ele>341.5</ele><time>2026-05-01T13:00:07.806Z</time></trkpt><trkpt lat="38.6079939" lon="20.5634891"><ele>337.25</ele><time>2026-05-01T13:00:08.806Z</time></trkpt><trkpt lat="38.6080393" lon="20.5636326"><ele>333.0</ele><time>2026-05-01T13:00:09.807Z</time></trkpt><trkpt lat="38.6080734" lon="20.5637868"><ele>333.0</ele><time>2026-05-01T13:00:10.807Z</time></trkpt><trkpt lat="38.6081097" lon="20.5639533"><ele>333.0</ele><time>2026-05-01T13:00:11.807Z</time></trkpt><trkpt lat="38.6081431" lon="20.5641173"><ele>333.0</ele><time>2026-05-01T13:00:12.807Z</time></trkpt><trkpt lat="38.6081786" lon="20.5642792"><ele>333.0</ele><time>2026-05-01T13:00:13.806Z</time></trkpt><trkpt lat="38.6082088" lon="20.5644409"><ele>333.59999999999997</ele><time>2026-05-01T13:00:14.806Z</time></trkpt><trkpt lat="38.6082417" lon="20.5645851"><ele>334.2</ele><time>2026-05-01T13:00:15.807Z</time></trkpt><trkpt lat="38.6082862" lon="20.5647213"><ele>334.8</ele><time>2026-05-01T13:00:16.806Z</time></trkpt><trkpt lat="38.6083131" lon="20.564857"><ele>335.4</ele><time>2026-05-01T13:00:17.807Z</time></trkpt><trkpt lat="38.6083255" lon="20.5649924"><ele>336.0</ele><time>2026-05-01T13:00:18.806Z</time></trkpt><trkpt lat="38.6083199" lon="20.5651237"><ele>336.0</ele><time>2026-05-01T13:00:19.807Z</time></trkpt><trkpt lat="38.6083117" lon="20.5652516"><ele>336.0</ele><time>2026-05-01T13:00:20.806Z</time></trkpt><trkpt lat="38.6083015" lon="20.565369"><ele>336.0</ele><time>2026-05-01T13:00:21.807Z</time></trkpt><trkpt lat="38.6082891" lon="20.565476"><ele>336.0</ele><time>2026-05-01T13:00:22.806Z</time></trkpt><trkpt lat="38.6082757" lon="20.5655757"><ele>336.0</ele><time>2026-05-01T13:00:23.807Z</time></trkpt><trkpt lat="38.6082542" lon="20.5656788"><ele>336.0</ele><time>2026-05-01T13:00:24.807Z</time></trkpt><trkpt lat="38.6082345" lon="20.5657836"><ele>336.5</ele><time>2026-05-01T13:00:25.807Z</time></trkpt><trkpt lat="38.6082277" lon="20.5658831"><ele>337.0</ele><time>2026-05-01T13:00:26.807Z</time></trkpt><trkpt lat="38.6082152" lon="20.5659826"><ele>337.5</ele><time>2026-05-01T13:00:27.806Z</time></trkpt><trkpt lat="38.6082137" lon="20.566075"><ele>338.0</ele><time>2026-05-01T13:00:28.806Z</time></trkpt><trkpt lat="38.6082139" lon="20.5661594"><ele>338.5</ele><time>2026-05-01T13:00:29.807Z</time></trkpt><trkpt lat="38.6082253" lon="20.5662526"><ele>339.0</ele><time>2026-05-01T13:00:30.807Z</time></trkpt><trkpt lat="38.6082616" lon="20.5663501"><ele>339.79999999999995</ele><time>2026-05-01T13:00:31.807Z</time></trkpt><trkpt lat="38.6083203" lon="20.5664391"><ele>340.59999999999997</ele><time>2026-05-01T13:00:32.806Z</time></trkpt><trkpt lat="38.6083969" lon="20.5665177"><ele>341.4</ele><time>2026-05-01T13:00:33.807Z</time></trkpt><trkpt lat="38.6084929" lon="20.5665788"><ele>342.2</ele><time>2026-05-01T13:00:34.807Z</time></trkpt><trkpt lat="38.6085814" lon="20.5666274"><ele>343.0</ele><time>2026-05-01T13:00:35.807Z</time></trkpt><trkpt lat="38.6086627" lon="20.566668"><ele>343.0</ele><time>2026-05-01T13:00:36.806Z</time></trkpt><trkpt lat="38.6087415" lon="20.5667021"><ele>343.0</ele><time>2026-05-01T13:00:37.807Z</time></trkpt><trkpt lat="38.6088125" lon="20.5667337"><ele>343.0</ele><time>2026-05-01T13:00:38.806Z</time></trkpt><trkpt lat="38.6088856" lon="20.5667619"><ele>343.0</ele><time>2026-05-01T13:00:39.807Z</time></trkpt><trkpt lat="38.6089563" lon="20.5667744"><ele>343.0</ele><time>2026-05-01T13:00:40.806Z</time></trkpt><trkpt lat="38.6090732" lon="20.566795"><ele>343.0</ele><time>2026-05-01T13:00:42.807Z</time></trkpt><trkpt lat="38.6091659" lon="20.5667929"><ele>343.0</ele><time>2026-05-01T13:00:44.807Z</time></trkpt><trkpt lat="38.6092419" lon="20.566769"><ele>343.0</ele><time>2026-05-01T13:00:46.807Z</time></trkpt><trkpt lat="38.6093043" lon="20.5667417"><ele>343.0</ele><time>2026-05-01T13:00:48.807Z</time></trkpt><trkpt lat="38.6093674" lon="20.5667772"><ele>343.0</ele><time>2026-05-01T13:00:50.807Z</time></trkpt><trkpt lat="38.6093806" lon="20.5669146"><ele>343.0</ele><time>2026-05-01T13:00:52.806Z</time></trkpt><trkpt lat="38.6093695" lon="20.5670017"><ele>343.0</ele><time>2026-05-01T13:00:53.807Z</time></trkpt><trkpt lat="38.609344" lon="20.5670776"><ele>343.42857142857144</ele><time>2026-05-01T13:00:54.807Z</time></trkpt><trkpt lat="38.6093042" lon="20.5671774"><ele>343.8571428571429</ele><time>2026-05-01T13:00:55.806Z</time></trkpt><trkpt lat="38.6092761" lon="20.5672516"><ele>344.2857142857143</ele><time>2026-05-01T13:00:56.806Z</time></trkpt><trkpt lat="38.6092362" lon="20.5673175"><ele>344.7142857142857</ele><time>2026-05-01T13:00:57.806Z</time></trkpt><trkpt lat="38.6091921" lon="20.5673912"><ele>345.14285714285717</ele><time>2026-05-01T13:00:58.807Z</time></trkpt><trkpt lat="38.60915" lon="20.5674629"><ele>345.57142857142856</ele><time>2026-05-01T13:00:59.807Z</time></trkpt><trkpt lat="38.6091071" lon="20.5675492"><ele>346.0</ele><time>2026-05-01T13:01:00.805Z</time></trkpt><trkpt lat="38.6090568" lon="20.5676717"><ele>346.0</ele><time>2026-05-01T13:01:01.806Z</time></trkpt><trkpt lat="38.6089904" lon="20.5678294"><ele>346.0</ele><time>2026-05-01T13:01:02.806Z</time></trkpt><trkpt lat="38.6089184" lon="20.5679968"><ele>346.0</ele><time>2026-05-01T13:01:03.806Z</time></trkpt><trkpt lat="38.608846" lon="20.5681576"><ele>346.0</ele><time>2026-05-01T13:01:04.804Z</time></trkpt><trkpt lat="38.608773" lon="20.5683053"><ele>346.20000000000005</ele><time>2026-05-01T13:01:05.806Z</time></trkpt><trkpt lat="38.6087021" lon="20.5684438"><ele>346.40000000000003</ele><time>2026-05-01T13:01:06.807Z</time></trkpt><trkpt lat="38.6086452" lon="20.5685646"><ele>346.6</ele><time>2026-05-01T13:01:07.806Z</time></trkpt><trkpt lat="38.6086254" lon="20.5686973"><ele>346.8</ele><time>2026-05-01T13:01:08.807Z</time></trkpt><trkpt lat="38.6086075" lon="20.5688001"><ele>347.0</ele><time>2026-05-01T13:01:09.806Z</time></trkpt><trkpt lat="38.6086266" lon="20.5689116"><ele>347.20000000000005</ele><time>2026-05-01T13:01:10.806Z</time></trkpt><trkpt lat="38.6086578" lon="20.5690207"><ele>347.4</ele><time>2026-05-01T13:01:11.804Z</time></trkpt><trkpt lat="38.6087081" lon="20.5691106"><ele>347.6</ele><time>2026-05-01T13:01:12.806Z</time></trkpt><trkpt lat="38.6087923" lon="20.5692089"><ele>347.79999999999995</ele><time>2026-05-01T13:01:13.806Z</time></trkpt><trkpt lat="38.608896" lon="20.569285"><ele>348.0</ele><time>2026-05-01T13:01:14.806Z</time></trkpt><trkpt lat="38.6090136" lon="20.5693532"><ele>348.0</ele><time>2026-05-01T13:01:15.806Z</time></trkpt><trkpt lat="38.6091356" lon="20.5694162"><ele>348.0</ele><time>2026-05-01T13:01:16.807Z</time></trkpt><trkpt lat="38.6092639" lon="20.5694715"><ele>348.0</ele><time>2026-05-01T13:01:17.807Z</time></trkpt><trkpt lat="38.6093772" lon="20.5695194"><ele>348.0</ele><time>2026-05-01T13:01:18.807Z</time></trkpt><trkpt lat="38.6094923" lon="20.5695728"><ele>348.4</ele><time>2026-05-01T13:01:19.807Z</time></trkpt><trkpt lat="38.6096005" lon="20.5696332"><ele>348.79999999999995</ele><time>2026-05-01T13:01:20.806Z</time></trkpt><trkpt lat="38.6096832" lon="20.5696963"><ele>349.2</ele><time>2026-05-01T13:01:21.805Z</time></trkpt><trkpt lat="38.6097395" lon="20.569774"><ele>349.6</ele><time>2026-05-01T13:01:22.806Z</time></trkpt><trkpt lat="38.6097695" lon="20.5698747"><ele>350.0</ele><time>2026-05-01T13:01:23.806Z</time></trkpt><trkpt lat="38.6097671" lon="20.5699981"><ele>350.0</ele><time>2026-05-01T13:01:24.807Z</time></trkpt><trkpt lat="38.6097697" lon="20.5701282"><ele>350.0</ele><time>2026-05-01T13:01:25.806Z</time></trkpt><trkpt lat="38.6097847" lon="20.5702373"><ele>350.0</ele><time>2026-05-01T13:01:26.806Z</time></trkpt><trkpt lat="38.6097973" lon="20.5703524"><ele>350.0</ele><time>2026-05-01T13:01:27.806Z</time></trkpt><trkpt lat="38.6098245" lon="20.5704501"><ele>350.0</ele><time>2026-05-01T13:01:28.806Z</time></trkpt><trkpt lat="38.6098386" lon="20.5705767"><ele>349.6</ele><time>2026-05-01T13:01:29.806Z</time></trkpt><trkpt lat="38.6098534" lon="20.5707051"><ele>349.2</ele><time>2026-05-01T13:01:30.806Z</time></trkpt><trkpt lat="38.6098887" lon="20.5708398"><ele>348.79999999999995</ele><time>2026-05-01T13:01:31.807Z</time></trkpt><trkpt lat="38.6099391" lon="20.5709706"><ele>348.4</ele><time>2026-05-01T13:01:32.807Z</time></trkpt><trkpt lat="38.6099936" lon="20.571107"><ele>348.0</ele><time>2026-05-01T13:01:33.806Z</time></trkpt><trkpt lat="38.6100554" lon="20.5712427"><ele>348.0</ele><time>2026-05-01T13:01:34.806Z</time></trkpt><trkpt lat="38.6101195" lon="20.5713838"><ele>348.0</ele><time>2026-05-01T13:01:35.806Z</time></trkpt><trkpt lat="38.6101809" lon="20.5715283"><ele>348.0</ele><time>2026-05-01T13:01:36.807Z</time></trkpt><trkpt lat="38.610242" lon="20.5716675"><ele>348.0</ele><time>2026-05-01T13:01:37.806Z</time></trkpt><trkpt lat="38.6103041" lon="20.5718008"><ele>349.5</ele><time>2026-05-01T13:01:38.807Z</time></trkpt><trkpt lat="38.6103782" lon="20.5719311"><ele>351.0</ele><time>2026-05-01T13:01:39.807Z</time></trkpt><trkpt lat="38.6104561" lon="20.5720628"><ele>352.5</ele><time>2026-05-01T13:01:40.807Z</time></trkpt><trkpt lat="38.6105333" lon="20.5721608"><ele>354.0</ele><time>2026-05-01T13:01:41.807Z</time></trkpt><trkpt lat="38.610612" lon="20.572245"><ele>350.79999999999995</ele><time>2026-05-01T13:01:42.806Z</time></trkpt><trkpt lat="38.6107076" lon="20.5723129"><ele>347.59999999999997</ele><time>2026-05-01T13:01:43.807Z</time></trkpt><trkpt lat="38.6107947" lon="20.5723576"><ele>344.4</ele><time>2026-05-01T13:01:44.807Z</time></trkpt><trkpt lat="38.6108798" lon="20.5723818"><ele>341.2</ele><time>2026-05-01T13:01:45.806Z</time></trkpt><trkpt lat="38.6109693" lon="20.5723787"><ele>338.0</ele><time>2026-05-01T13:01:46.807Z</time></trkpt><trkpt lat="38.611061" lon="20.572362"><ele>338.75</ele><time>2026-05-01T13:01:47.807Z</time></trkpt><trkpt lat="38.6111605" lon="20.5723423"><ele>339.5</ele><time>2026-05-01T13:01:48.807Z</time></trkpt><trkpt lat="38.6112704" lon="20.5723252"><ele>340.25</ele><time>2026-05-01T13:01:49.806Z</time></trkpt><trkpt lat="38.6113893" lon="20.5723245"><ele>341.0</ele><time>2026-05-01T13:01:50.807Z</time></trkpt><trkpt lat="38.6115072" lon="20.5723514"><ele>341.0</ele><time>2026-05-01T13:01:51.806Z</time></trkpt><trkpt lat="38.6116272" lon="20.5723957"><ele>341.0</ele><time>2026-05-01T13:01:52.806Z</time></trkpt><trkpt lat="38.611743" lon="20.5724391"><ele>341.0</ele><time>2026-05-01T13:01:53.807Z</time></trkpt><trkpt lat="38.6118621" lon="20.5724981"><ele>341.0</ele><time>2026-05-01T13:01:54.806Z</time></trkpt><trkpt lat="38.6119684" lon="20.5725618"><ele>343.1666666666667</ele><time>2026-05-01T13:01:55.807Z</time></trkpt><trkpt lat="38.612057" lon="20.5726135"><ele>345.33333333333337</ele><time>2026-05-01T13:01:56.807Z</time></trkpt><trkpt lat="38.6121358" lon="20.5726649"><ele>347.5</ele><time>2026-05-01T13:01:57.807Z</time></trkpt><trkpt lat="38.6121612" lon="20.5727634"><ele>349.6666666666667</ele><time>2026-05-01T13:01:58.807Z</time></trkpt><trkpt lat="38.6121127" lon="20.572848"><ele>351.8333333333333</ele><time>2026-05-01T13:01:59.807Z</time></trkpt><trkpt lat="38.6120843" lon="20.5729503"><ele>354.0</ele><time>2026-05-01T13:02:00.805Z</time></trkpt><trkpt lat="38.6120661" lon="20.5730683"><ele>354.0</ele><time>2026-05-01T13:02:01.806Z</time></trkpt><trkpt lat="38.612059" lon="20.5731889"><ele>354.0</ele><time>2026-05-01T13:02:02.806Z</time></trkpt><trkpt lat="38.6120657" lon="20.5733205"><ele>354.0</ele><time>2026-05-01T13:02:03.807Z</time></trkpt><trkpt lat="38.6120895" lon="20.5734519"><ele>354.0</ele><time>2026-05-01T13:02:04.806Z</time></trkpt><trkpt lat="38.6121464" lon="20.5735796"><ele>354.0</ele><time>2026-05-01T13:02:05.806Z</time></trkpt><trkpt lat="38.612211" lon="20.5737012"><ele>346.25</ele><time>2026-05-01T13:02:06.807Z</time></trkpt><trkpt lat="38.6122843" lon="20.5738338"><ele>338.5</ele><time>2026-05-01T13:02:07.807Z</time></trkpt><trkpt lat="38.6123728" lon="20.5739672"><ele>330.75</ele><time>2026-05-01T13:02:08.806Z</time></trkpt><trkpt lat="38.6124712" lon="20.5740858"><ele>323.0</ele><time>2026-05-01T13:02:09.807Z</time></trkpt><trkpt lat="38.6125599" lon="20.5742054"><ele>323.0</ele><time>2026-05-01T13:02:10.807Z</time></trkpt><trkpt lat="38.6126483" lon="20.5743329"><ele>323.0</ele><time>2026-05-01T13:02:11.807Z</time></trkpt><trkpt lat="38.6127479" lon="20.5744594"><ele>323.0</ele><time>2026-05-01T13:02:12.806Z</time></trkpt><trkpt lat="38.6128391" lon="20.57459"><ele>323.0</ele><time>2026-05-01T13:02:13.806Z</time></trkpt><trkpt lat="38.6129213" lon="20.5747193"><ele>324.75</ele><time>2026-05-01T13:02:14.806Z</time></trkpt><trkpt lat="38.6129997" lon="20.5748438"><ele>326.5</ele><time>2026-05-01T13:02:15.806Z</time></trkpt><trkpt lat="38.6130708" lon="20.5749744"><ele>328.25</ele><time>2026-05-01T13:02:16.807Z</time></trkpt><trkpt lat="38.613139" lon="20.5750959"><ele>330.0</ele><time>2026-05-01T13:02:17.807Z</time></trkpt><trkpt lat="38.6132178" lon="20.5752032"><ele>330.0</ele><time>2026-05-01T13:02:18.807Z</time></trkpt><trkpt lat="38.6132881" lon="20.5752773"><ele>330.0</ele><time>2026-05-01T13:02:19.806Z</time></trkpt><trkpt lat="38.6133707" lon="20.5753455"><ele>330.0</ele><time>2026-05-01T13:02:20.807Z</time></trkpt><trkpt lat="38.6134577" lon="20.5754106"><ele>330.0</ele><time>2026-05-01T13:02:21.807Z</time></trkpt><trkpt lat="38.6135303" lon="20.5755002"><ele>330.0</ele><time>2026-05-01T13:02:22.807Z</time></trkpt><trkpt lat="38.6135903" lon="20.5756149"><ele>329.25</ele><time>2026-05-01T13:02:23.803Z</time></trkpt><trkpt lat="38.6136536" lon="20.5757369"><ele>328.5</ele><time>2026-05-01T13:02:24.806Z</time></trkpt><trkpt lat="38.6137151" lon="20.5758724"><ele>327.75</ele><time>2026-05-01T13:02:25.807Z</time></trkpt><trkpt lat="38.613784" lon="20.5760048"><ele>327.0</ele><time>2026-05-01T13:02:26.807Z</time></trkpt><trkpt lat="38.6138855" lon="20.5761386"><ele>318.25</ele><time>2026-05-01T13:02:27.806Z</time></trkpt><trkpt lat="38.6139647" lon="20.5762641"><ele>309.5</ele><time>2026-05-01T13:02:28.806Z</time></trkpt><trkpt lat="38.6140376" lon="20.5763952"><ele>300.75</ele><time>2026-05-01T13:02:29.807Z</time></trkpt><trkpt lat="38.6141062" lon="20.5765304"><ele>292.0</ele><time>2026-05-01T13:02:30.806Z</time></trkpt><trkpt lat="38.6141801" lon="20.5766741"><ele>292.0</ele><time>2026-05-01T13:02:31.807Z</time></trkpt><trkpt lat="38.6142517" lon="20.5767993"><ele>292.0</ele><time>2026-05-01T13:02:32.807Z</time></trkpt><trkpt lat="38.6143378" lon="20.5769234"><ele>292.0</ele><time>2026-05-01T13:02:33.806Z</time></trkpt><trkpt lat="38.6144263" lon="20.5770489"><ele>292.0</ele><time>2026-05-01T13:02:34.806Z</time></trkpt><trkpt lat="38.6145124" lon="20.5771751"><ele>293.25</ele><time>2026-05-01T13:02:35.806Z</time></trkpt><trkpt lat="38.6145986" lon="20.5772972"><ele>294.5</ele><time>2026-05-01T13:02:36.807Z</time></trkpt><trkpt lat="38.6146836" lon="20.5774217"><ele>295.75</ele><time>2026-05-01T13:02:37.806Z</time></trkpt><trkpt lat="38.6147737" lon="20.5775421"><ele>297.0</ele><time>2026-05-01T13:02:38.806Z</time></trkpt><trkpt lat="38.6148552" lon="20.5776607"><ele>297.0</ele><time>2026-05-01T13:02:39.807Z</time></trkpt><trkpt lat="38.6149311" lon="20.5777811"><ele>297.0</ele><time>2026-05-01T13:02:40.807Z</time></trkpt><trkpt lat="38.615007" lon="20.5779047"><ele>297.0</ele><time>2026-05-01T13:02:41.806Z</time></trkpt><trkpt lat="38.6150875" lon="20.5780193"><ele>297.0</ele><time>2026-05-01T13:02:42.807Z</time></trkpt><trkpt lat="38.6151725" lon="20.5781346"><ele>293.5</ele><time>2026-05-01T13:02:43.807Z</time></trkpt><trkpt lat="38.6152567" lon="20.5782481"><ele>290.0</ele><time>2026-05-01T13:02:44.806Z</time></trkpt><trkpt lat="38.6153574" lon="20.5783461"><ele>286.5</ele><time>2026-05-01T13:02:45.805Z</time></trkpt><trkpt lat="38.6154654" lon="20.5784383"><ele>283.0</ele><time>2026-05-01T13:02:46.806Z</time></trkpt><trkpt lat="38.6155874" lon="20.5785211"><ele>283.0</ele><time>2026-05-01T13:02:47.805Z</time></trkpt><trkpt lat="38.6157077" lon="20.5786058"><ele>283.0</ele><time>2026-05-01T13:02:48.803Z</time></trkpt><trkpt lat="38.6158298" lon="20.5786892"><ele>283.0</ele><time>2026-05-01T13:02:49.804Z</time></trkpt><trkpt lat="38.6159546" lon="20.5787698"><ele>283.0</ele><time>2026-05-01T13:02:50.806Z</time></trkpt><trkpt lat="38.6160817" lon="20.5788461"><ele>276.25</ele><time>2026-05-01T13:02:51.805Z</time></trkpt><trkpt lat="38.6162158" lon="20.5789283"><ele>269.5</ele><time>2026-05-01T13:02:52.806Z</time></trkpt><trkpt lat="38.6163264" lon="20.5790198"><ele>262.75</ele><time>2026-05-01T13:02:53.807Z</time></trkpt><trkpt lat="38.6164272" lon="20.5791192"><ele>256.0</ele><time>2026-05-01T13:02:54.806Z</time></trkpt><trkpt lat="38.616513" lon="20.5792311"><ele>256.0</ele><time>2026-05-01T13:02:55.806Z</time></trkpt><trkpt lat="38.6165895" lon="20.5793456"><ele>256.0</ele><time>2026-05-01T13:02:56.806Z</time></trkpt><trkpt lat="38.6166703" lon="20.5794209"><ele>256.0</ele><time>2026-05-01T13:02:57.805Z</time></trkpt><trkpt lat="38.6167528" lon="20.5794745"><ele>256.0</ele><time>2026-05-01T13:02:58.805Z</time></trkpt><trkpt lat="38.6168468" lon="20.5794963"><ele>256.0</ele><time>2026-05-01T13:02:59.806Z</time></trkpt><trkpt lat="38.6169501" lon="20.5794812"><ele>254.0</ele><time>2026-05-01T13:03:00.805Z</time></trkpt><trkpt lat="38.6170534" lon="20.5794376"><ele>252.0</ele><time>2026-05-01T13:03:01.806Z</time></trkpt><trkpt lat="38.6171557" lon="20.5793751"><ele>250.0</ele><time>2026-05-01T13:03:02.807Z</time></trkpt><trkpt lat="38.617271" lon="20.5792776"><ele>248.0</ele><time>2026-05-01T13:03:03.806Z</time></trkpt><trkpt lat="38.6173752" lon="20.5791928"><ele>248.0</ele><time>2026-05-01T13:03:04.806Z</time></trkpt><trkpt lat="38.6174801" lon="20.5791116"><ele>248.0</ele><time>2026-05-01T13:03:05.806Z</time></trkpt><trkpt lat="38.6175839" lon="20.5790367"><ele>248.0</ele><time>2026-05-01T13:03:06.807Z</time></trkpt><trkpt lat="38.6176734" lon="20.5789935"><ele>248.0</ele><time>2026-05-01T13:03:07.805Z</time></trkpt><trkpt lat="38.6177613" lon="20.5789742"><ele>248.0</ele><time>2026-05-01T13:03:08.806Z</time></trkpt><trkpt lat="38.6178527" lon="20.5789891"><ele>253.25</ele><time>2026-05-01T13:03:09.806Z</time></trkpt><trkpt lat="38.6179374" lon="20.5790588"><ele>258.5</ele><time>2026-05-01T13:03:10.807Z</time></trkpt><trkpt lat="38.6180079" lon="20.5791695"><ele>263.75</ele><time>2026-05-01T13:03:11.805Z</time></trkpt><trkpt lat="38.6180454" lon="20.579317"><ele>269.0</ele><time>2026-05-01T13:03:12.807Z</time></trkpt><trkpt lat="38.6180924" lon="20.57946"><ele>261.25</ele><time>2026-05-01T13:03:13.806Z</time></trkpt><trkpt lat="38.6181369" lon="20.5796141"><ele>253.5</ele><time>2026-05-01T13:03:14.805Z</time></trkpt><trkpt lat="38.6181912" lon="20.5797627"><ele>245.75</ele><time>2026-05-01T13:03:15.806Z</time></trkpt><trkpt lat="38.6182496" lon="20.579917"><ele>238.0</ele><time>2026-05-01T13:03:16.807Z</time></trkpt><trkpt lat="38.6183153" lon="20.5800716"><ele>238.0</ele><time>2026-05-01T13:03:17.807Z</time></trkpt><trkpt lat="38.6183922" lon="20.5802173"><ele>238.0</ele><time>2026-05-01T13:03:18.806Z</time></trkpt><trkpt lat="38.6184765" lon="20.5803525"><ele>238.0</ele><time>2026-05-01T13:03:19.806Z</time></trkpt><trkpt lat="38.6185514" lon="20.5804853"><ele>238.0</ele><time>2026-05-01T13:03:20.806Z</time></trkpt><trkpt lat="38.6186237" lon="20.5806156"><ele>234.0</ele><time>2026-05-01T13:03:21.806Z</time></trkpt><trkpt lat="38.6187047" lon="20.5807531"><ele>230.0</ele><time>2026-05-01T13:03:22.806Z</time></trkpt><trkpt lat="38.6187926" lon="20.5808644"><ele>226.0</ele><time>2026-05-01T13:03:23.806Z</time></trkpt><trkpt lat="38.6188865" lon="20.5809597"><ele>222.0</ele><time>2026-05-01T13:03:24.807Z</time></trkpt><trkpt lat="38.6189783" lon="20.5810323"><ele>222.0</ele><time>2026-05-01T13:03:25.807Z</time></trkpt><trkpt lat="38.6190823" lon="20.5810932"><ele>222.0</ele><time>2026-05-01T13:03:26.807Z</time></trkpt><trkpt lat="38.6191863" lon="20.5811139"><ele>222.0</ele><time>2026-05-01T13:03:27.807Z</time></trkpt><trkpt lat="38.6192848" lon="20.5810934"><ele>222.0</ele><time>2026-05-01T13:03:28.807Z</time></trkpt><trkpt lat="38.6193653" lon="20.5810377"><ele>222.0</ele><time>2026-05-01T13:03:29.806Z</time></trkpt><trkpt lat="38.6194393" lon="20.5809548"><ele>224.33333333333334</ele><time>2026-05-01T13:03:30.806Z</time></trkpt><trkpt lat="38.6194975" lon="20.5808742"><ele>226.66666666666669</ele><time>2026-05-01T13:03:31.806Z</time></trkpt><trkpt lat="38.6195629" lon="20.5807909"><ele>229.0</ele><time>2026-05-01T13:03:32.807Z</time></trkpt><trkpt lat="38.6196244" lon="20.5807609"><ele>231.33333333333334</ele><time>2026-05-01T13:03:33.806Z</time></trkpt><trkpt lat="38.6196907" lon="20.5807397"><ele>233.66666666666669</ele><time>2026-05-01T13:03:34.806Z</time></trkpt><trkpt lat="38.6197625" lon="20.5807938"><ele>236.0</ele><time>2026-05-01T13:03:35.807Z</time></trkpt><trkpt lat="38.6198339" lon="20.5808671"><ele>236.0</ele><time>2026-05-01T13:03:36.807Z</time></trkpt><trkpt lat="38.6199033" lon="20.5809525"><ele>236.00000000000003</ele><time>2026-05-01T13:03:37.806Z</time></trkpt><trkpt lat="38.6199692" lon="20.5810522"><ele>236.00000000000003</ele><time>2026-05-01T13:03:38.807Z</time></trkpt><trkpt lat="38.6200381" lon="20.5811593"><ele>236.0</ele><time>2026-05-01T13:03:39.807Z</time></trkpt><trkpt lat="38.6200986" lon="20.5812697"><ele>236.0</ele><time>2026-05-01T13:03:40.807Z</time></trkpt><trkpt lat="38.6201581" lon="20.5813921"><ele>236.5</ele><time>2026-05-01T13:03:41.807Z</time></trkpt><trkpt lat="38.6202346" lon="20.5815142"><ele>237.0</ele><time>2026-05-01T13:03:42.805Z</time></trkpt><trkpt lat="38.6202812" lon="20.5816552"><ele>237.5</ele><time>2026-05-01T13:03:43.806Z</time></trkpt><trkpt lat="38.6203412" lon="20.5817947"><ele>238.0</ele><time>2026-05-01T13:03:44.807Z</time></trkpt><trkpt lat="38.62041" lon="20.5819308"><ele>229.25</ele><time>2026-05-01T13:03:45.806Z</time></trkpt><trkpt lat="38.6204792" lon="20.5820642"><ele>220.5</ele><time>2026-05-01T13:03:46.807Z</time></trkpt><trkpt lat="38.620548" lon="20.5821993"><ele>211.75</ele><time>2026-05-01T13:03:47.807Z</time></trkpt><trkpt lat="38.6206149" lon="20.5823341"><ele>203.0</ele><time>2026-05-01T13:03:48.806Z</time></trkpt><trkpt lat="38.6206798" lon="20.5824623"><ele>203.0</ele><time>2026-05-01T13:03:49.806Z</time></trkpt><trkpt lat="38.620763" lon="20.5825715"><ele>203.0</ele><time>2026-05-01T13:03:50.806Z</time></trkpt><trkpt lat="38.620855" lon="20.5826646"><ele>203.0</ele><time>2026-05-01T13:03:51.807Z</time></trkpt><trkpt lat="38.6209539" lon="20.5827498"><ele>203.0</ele><time>2026-05-01T13:03:52.806Z</time></trkpt><trkpt lat="38.6210623" lon="20.5828315"><ele>198.25</ele><time>2026-05-01T13:03:53.807Z</time></trkpt><trkpt lat="38.6211723" lon="20.5829165"><ele>193.5</ele><time>2026-05-01T13:03:54.807Z</time></trkpt><trkpt lat="38.6212821" lon="20.5830072"><ele>188.75</ele><time>2026-05-01T13:03:55.807Z</time></trkpt><trkpt lat="38.6213907" lon="20.5830971"><ele>184.0</ele><time>2026-05-01T13:03:56.807Z</time></trkpt><trkpt lat="38.6214951" lon="20.5831992"><ele>184.0</ele><time>2026-05-01T13:03:57.807Z</time></trkpt><trkpt lat="38.6216016" lon="20.5832945"><ele>184.0</ele><time>2026-05-01T13:03:58.806Z</time></trkpt><trkpt lat="38.6217012" lon="20.583356"><ele>184.0</ele><time>2026-05-01T13:03:59.807Z</time></trkpt><trkpt lat="38.621806" lon="20.5833771"><ele>184.0</ele><time>2026-05-01T13:04:00.806Z</time></trkpt><trkpt lat="38.6218942" lon="20.5833596"><ele>184.0</ele><time>2026-05-01T13:04:01.806Z</time></trkpt><trkpt lat="38.6219678" lon="20.5833241"><ele>182.0</ele><time>2026-05-01T13:04:02.807Z</time></trkpt><trkpt lat="38.6220342" lon="20.5832968"><ele>180.0</ele><time>2026-05-01T13:04:03.806Z</time></trkpt><trkpt lat="38.622104" lon="20.5833077"><ele>178.0</ele><time>2026-05-01T13:04:04.807Z</time></trkpt><trkpt lat="38.622163" lon="20.5833594"><ele>176.0</ele><time>2026-05-01T13:04:05.806Z</time></trkpt><trkpt lat="38.6222367" lon="20.5834479"><ele>174.0</ele><time>2026-05-01T13:04:06.806Z</time></trkpt><trkpt lat="38.6222829" lon="20.5835691"><ele>172.0</ele><time>2026-05-01T13:04:07.807Z</time></trkpt><trkpt lat="38.6223338" lon="20.5837178"><ele>172.0</ele><time>2026-05-01T13:04:08.806Z</time></trkpt><trkpt lat="38.6223841" lon="20.5838671"><ele>172.0</ele><time>2026-05-01T13:04:09.807Z</time></trkpt><trkpt lat="38.6224367" lon="20.5840189"><ele>172.0</ele><time>2026-05-01T13:04:10.806Z</time></trkpt><trkpt lat="38.622488" lon="20.584165"><ele>172.0</ele><time>2026-05-01T13:04:11.806Z</time></trkpt><trkpt lat="38.6225398" lon="20.5843096"><ele>172.0</ele><time>2026-05-01T13:04:12.806Z</time></trkpt><trkpt lat="38.6225954" lon="20.5844267"><ele>172.0</ele><time>2026-05-01T13:04:13.805Z</time></trkpt><trkpt lat="38.6226711" lon="20.5845159"><ele>172.0</ele><time>2026-05-01T13:04:14.806Z</time></trkpt><trkpt lat="38.6227617" lon="20.5845645"><ele>172.0</ele><time>2026-05-01T13:04:15.806Z</time></trkpt><trkpt lat="38.6228671" lon="20.5845922"><ele>172.0</ele><time>2026-05-01T13:04:16.806Z</time></trkpt><trkpt lat="38.6229805" lon="20.5846178"><ele>163.25</ele><time>2026-05-01T13:04:17.807Z</time></trkpt><trkpt lat="38.6230973" lon="20.5846583"><ele>154.5</ele><time>2026-05-01T13:04:18.807Z</time></trkpt><trkpt lat="38.6232266" lon="20.584706"><ele>145.75</ele><time>2026-05-01T13:04:19.807Z</time></trkpt><trkpt lat="38.6233632" lon="20.584737"><ele>137.0</ele><time>2026-05-01T13:04:20.806Z</time></trkpt><trkpt lat="38.6235004" lon="20.5847806"><ele>139.75</ele><time>2026-05-01T13:04:21.806Z</time></trkpt><trkpt lat="38.6236478" lon="20.5848066"><ele>142.5</ele><time>2026-05-01T13:04:22.804Z</time></trkpt><trkpt lat="38.6237823" lon="20.5848371"><ele>145.25</ele><time>2026-05-01T13:04:23.807Z</time></trkpt><trkpt lat="38.6239189" lon="20.5848427"><ele>148.0</ele><time>2026-05-01T13:04:24.806Z</time></trkpt><trkpt lat="38.6240449" lon="20.5848509"><ele>148.0</ele><time>2026-05-01T13:04:25.807Z</time></trkpt><trkpt lat="38.6241515" lon="20.5848497"><ele>148.0</ele><time>2026-05-01T13:04:26.807Z</time></trkpt><trkpt lat="38.6242437" lon="20.5848789"><ele>148.0</ele><time>2026-05-01T13:04:27.807Z</time></trkpt><trkpt lat="38.6243305" lon="20.5849431"><ele>148.0</ele><time>2026-05-01T13:04:28.806Z</time></trkpt><trkpt lat="38.6244189" lon="20.5850329"><ele>148.0</ele><time>2026-05-01T13:04:29.806Z</time></trkpt><trkpt lat="38.6245192" lon="20.5851219"><ele>150.25</ele><time>2026-05-01T13:04:30.806Z</time></trkpt><trkpt lat="38.6246258" lon="20.5852083"><ele>152.5</ele><time>2026-05-01T13:04:31.806Z</time></trkpt><trkpt lat="38.6247383" lon="20.5852897"><ele>154.75</ele><time>2026-05-01T13:04:32.806Z</time></trkpt><trkpt lat="38.6248603" lon="20.5853578"><ele>157.0</ele><time>2026-05-01T13:04:33.806Z</time></trkpt><trkpt lat="38.624987" lon="20.585405"><ele>153.0</ele><time>2026-05-01T13:04:34.806Z</time></trkpt><trkpt lat="38.6251173" lon="20.5854547"><ele>149.0</ele><time>2026-05-01T13:04:35.806Z</time></trkpt><trkpt lat="38.6252361" lon="20.5855262"><ele>145.0</ele><time>2026-05-01T13:04:36.805Z</time></trkpt><trkpt lat="38.6253574" lon="20.5856158"><ele>141.0</ele><time>2026-05-01T13:04:37.806Z</time></trkpt><trkpt lat="38.6254513" lon="20.5857448"><ele>141.0</ele><time>2026-05-01T13:04:38.807Z</time></trkpt><trkpt lat="38.6255528" lon="20.5858735"><ele>141.0</ele><time>2026-05-01T13:04:39.807Z</time></trkpt><trkpt lat="38.6256574" lon="20.5860002"><ele>141.0</ele><time>2026-05-01T13:04:40.807Z</time></trkpt><trkpt lat="38.6257704" lon="20.5861208"><ele>141.0</ele><time>2026-05-01T13:04:41.806Z</time></trkpt><trkpt lat="38.6258818" lon="20.5862439"><ele>138.25</ele><time>2026-05-01T13:04:42.807Z</time></trkpt><trkpt lat="38.625987" lon="20.5863637"><ele>135.5</ele><time>2026-05-01T13:04:43.805Z</time></trkpt><trkpt lat="38.6260881" lon="20.5864924"><ele>132.75</ele><time>2026-05-01T13:04:44.806Z</time></trkpt><trkpt lat="38.6261769" lon="20.5866233"><ele>130.0</ele><time>2026-05-01T13:04:45.805Z</time></trkpt><trkpt lat="38.6262785" lon="20.5867538"><ele>130.0</ele><time>2026-05-01T13:04:46.804Z</time></trkpt><trkpt lat="38.6263835" lon="20.5868782"><ele>130.0</ele><time>2026-05-01T13:04:47.806Z</time></trkpt><trkpt lat="38.6264968" lon="20.5869969"><ele>130.0</ele><time>2026-05-01T13:04:48.807Z</time></trkpt><trkpt lat="38.6266209" lon="20.5871052"><ele>130.0</ele><time>2026-05-01T13:04:49.806Z</time></trkpt><trkpt lat="38.6267446" lon="20.5871988"><ele>124.75</ele><time>2026-05-01T13:04:50.807Z</time></trkpt><trkpt lat="38.6268685" lon="20.5872904"><ele>119.5</ele><time>2026-05-01T13:04:51.806Z</time></trkpt><trkpt lat="38.6269953" lon="20.5873859"><ele>114.25</ele><time>2026-05-01T13:04:52.807Z</time></trkpt><trkpt lat="38.6271208" lon="20.5874759"><ele>109.0</ele><time>2026-05-01T13:04:53.807Z</time></trkpt><trkpt lat="38.6272422" lon="20.5875499"><ele>109.0</ele><time>2026-05-01T13:04:54.806Z</time></trkpt><trkpt lat="38.6273572" lon="20.5876355"><ele>109.0</ele><time>2026-05-01T13:04:55.806Z</time></trkpt><trkpt lat="38.6274686" lon="20.587738"><ele>109.0</ele><time>2026-05-01T13:04:56.806Z</time></trkpt><trkpt lat="38.62758" lon="20.5878497"><ele>109.0</ele><time>2026-05-01T13:04:57.806Z</time></trkpt><trkpt lat="38.6277001" lon="20.5879545"><ele>103.0</ele><time>2026-05-01T13:04:58.806Z</time></trkpt><trkpt lat="38.6278229" lon="20.5880612"><ele>97.0</ele><time>2026-05-01T13:04:59.807Z</time></trkpt><trkpt lat="38.6279449" lon="20.5881591"><ele>91.0</ele><time>2026-05-01T13:05:00.807Z</time></trkpt><trkpt lat="38.628076" lon="20.5882489"><ele>85.0</ele><time>2026-05-01T13:05:01.806Z</time></trkpt><trkpt lat="38.6282044" lon="20.5883347"><ele>85.0</ele><time>2026-05-01T13:05:02.805Z</time></trkpt><trkpt lat="38.628333" lon="20.5884283"><ele>85.0</ele><time>2026-05-01T13:05:03.807Z</time></trkpt><trkpt lat="38.628467" lon="20.5885211"><ele>85.0</ele><time>2026-05-01T13:05:04.807Z</time></trkpt><trkpt lat="38.6286098" lon="20.5885974"><ele>89.0</ele><time>2026-05-01T13:05:05.806Z</time></trkpt><trkpt lat="38.6287545" lon="20.588672"><ele>93.0</ele><time>2026-05-01T13:05:06.807Z</time></trkpt><trkpt lat="38.6288912" lon="20.5887296"><ele>97.0</ele><time>2026-05-01T13:05:07.807Z</time></trkpt><trkpt lat="38.6290206" lon="20.5887735"><ele>101.0</ele><time>2026-05-01T13:05:08.806Z</time></trkpt><trkpt lat="38.6291537" lon="20.5887909"><ele>95.75</ele><time>2026-05-01T13:05:09.807Z</time></trkpt><trkpt lat="38.6292819" lon="20.5888068"><ele>90.5</ele><time>2026-05-01T13:05:10.806Z</time></trkpt><trkpt lat="38.6294044" lon="20.5888233"><ele>85.25</ele><time>2026-05-01T13:05:11.807Z</time></trkpt><trkpt lat="38.6295382" lon="20.5888509"><ele>80.0</ele><time>2026-05-01T13:05:12.806Z</time></trkpt><trkpt lat="38.6296791" lon="20.5888852"><ele>80.0</ele><time>2026-05-01T13:05:13.807Z</time></trkpt><trkpt lat="38.629815" lon="20.5889246"><ele>80.0</ele><time>2026-05-01T13:05:14.805Z</time></trkpt><trkpt lat="38.629956" lon="20.5889664"><ele>80.0</ele><time>2026-05-01T13:05:15.807Z</time></trkpt><trkpt lat="38.6301038" lon="20.589033"><ele>80.0</ele><time>2026-05-01T13:05:16.807Z</time></trkpt><trkpt lat="38.6302515" lon="20.5891085"><ele>88.0</ele><time>2026-05-01T13:05:17.807Z</time></trkpt><trkpt lat="38.6304044" lon="20.5891866"><ele>96.0</ele><time>2026-05-01T13:05:18.807Z</time></trkpt><trkpt lat="38.6305545" lon="20.5892602"><ele>104.0</ele><time>2026-05-01T13:05:19.806Z</time></trkpt><trkpt lat="38.6306991" lon="20.5893563"><ele>104.0</ele><time>2026-05-01T13:05:20.806Z</time></trkpt><trkpt lat="38.6308348" lon="20.5894457"><ele>104.0</ele><time>2026-05-01T13:05:21.806Z</time></trkpt><trkpt lat="38.6309589" lon="20.5895297"><ele>104.0</ele><time>2026-05-01T13:05:22.807Z</time></trkpt><trkpt lat="38.6310685" lon="20.5896186"><ele>104.0</ele><time>2026-05-01T13:05:23.805Z</time></trkpt><trkpt lat="38.6311795" lon="20.5896999"><ele>103.2</ele><time>2026-05-01T13:05:24.807Z</time></trkpt><trkpt lat="38.6312683" lon="20.5897708"><ele>102.4</ele><time>2026-05-01T13:05:25.807Z</time></trkpt><trkpt lat="38.6313691" lon="20.5898303"><ele>101.6</ele><time>2026-05-01T13:05:26.806Z</time></trkpt><trkpt lat="38.6314734" lon="20.5898752"><ele>100.8</ele><time>2026-05-01T13:05:27.806Z</time></trkpt><trkpt lat="38.6315808" lon="20.5899162"><ele>100.0</ele><time>2026-05-01T13:05:28.807Z</time></trkpt><trkpt lat="38.631687" lon="20.5899583"><ele>100.0</ele><time>2026-05-01T13:05:29.806Z</time></trkpt><trkpt lat="38.6317883" lon="20.5900122"><ele>100.0</ele><time>2026-05-01T13:05:30.806Z</time></trkpt><trkpt lat="38.6318887" lon="20.5900747"><ele>100.0</ele><time>2026-05-01T13:05:31.807Z</time></trkpt><trkpt lat="38.6319937" lon="20.5901458"><ele>100.0</ele><time>2026-05-01T13:05:32.807Z</time></trkpt><trkpt lat="38.6320971" lon="20.5902275"><ele>100.0</ele><time>2026-05-01T13:05:33.804Z</time></trkpt><trkpt lat="38.632204" lon="20.5903182"><ele>100.0</ele><time>2026-05-01T13:05:34.807Z</time></trkpt><trkpt lat="38.632303" lon="20.5904151"><ele>100.0</ele><time>2026-05-01T13:05:35.805Z</time></trkpt><trkpt lat="38.6324124" lon="20.5905066"><ele>100.0</ele><time>2026-05-01T13:05:36.807Z</time></trkpt><trkpt lat="38.6325154" lon="20.5906001"><ele>100.0</ele><time>2026-05-01T13:05:37.806Z</time></trkpt><trkpt lat="38.6326106" lon="20.5906901"><ele>100.0</ele><time>2026-05-01T13:05:38.806Z</time></trkpt><trkpt lat="38.6327107" lon="20.590769"><ele>100.0</ele><time>2026-05-01T13:05:39.807Z</time></trkpt><trkpt lat="38.6327997" lon="20.5908682"><ele>100.0</ele><time>2026-05-01T13:05:40.806Z</time></trkpt><trkpt lat="38.6329086" lon="20.5909804"><ele>101.5</ele><time>2026-05-01T13:05:41.807Z</time></trkpt><trkpt lat="38.6330056" lon="20.5910917"><ele>103.0</ele><time>2026-05-01T13:05:42.805Z</time></trkpt><trkpt lat="38.6331027" lon="20.5911981"><ele>104.5</ele><time>2026-05-01T13:05:43.807Z</time></trkpt><trkpt lat="38.6331943" lon="20.5913015"><ele>106.0</ele><time>2026-05-01T13:05:44.807Z</time></trkpt><trkpt lat="38.6332863" lon="20.5913975"><ele>106.0</ele><time>2026-05-01T13:05:45.806Z</time></trkpt><trkpt lat="38.6333705" lon="20.5914903"><ele>106.0</ele><time>2026-05-01T13:05:46.807Z</time></trkpt><trkpt lat="38.6334587" lon="20.5915846"><ele>106.0</ele><time>2026-05-01T13:05:47.807Z</time></trkpt><trkpt lat="38.6335402" lon="20.5916777"><ele>106.0</ele><time>2026-05-01T13:05:48.807Z</time></trkpt><trkpt lat="38.6336294" lon="20.5917821"><ele>106.75</ele><time>2026-05-01T13:05:49.806Z</time></trkpt><trkpt lat="38.6337269" lon="20.5918904"><ele>107.5</ele><time>2026-05-01T13:05:50.806Z</time></trkpt><trkpt lat="38.6338292" lon="20.591985"><ele>108.25</ele><time>2026-05-01T13:05:51.807Z</time></trkpt><trkpt lat="38.6339278" lon="20.5920675"><ele>109.0</ele><time>2026-05-01T13:05:52.806Z</time></trkpt><trkpt lat="38.6340249" lon="20.5921273"><ele>109.0</ele><time>2026-05-01T13:05:53.807Z</time></trkpt><trkpt lat="38.6341454" lon="20.5921812"><ele>109.0</ele><time>2026-05-01T13:05:54.806Z</time></trkpt><trkpt lat="38.6342632" lon="20.5922272"><ele>109.0</ele><time>2026-05-01T13:05:55.806Z</time></trkpt><trkpt lat="38.6343862" lon="20.59226"><ele>109.0</ele><time>2026-05-01T13:05:56.806Z</time></trkpt><trkpt lat="38.6345013" lon="20.5922907"><ele>110.5</ele><time>2026-05-01T13:05:57.806Z</time></trkpt><trkpt lat="38.6346165" lon="20.592317"><ele>112.0</ele><time>2026-05-01T13:05:58.806Z</time></trkpt><trkpt lat="38.6347265" lon="20.5923338"><ele>113.5</ele><time>2026-05-01T13:05:59.806Z</time></trkpt><trkpt lat="38.6348457" lon="20.5923619"><ele>115.0</ele><time>2026-05-01T13:06:00.806Z</time></trkpt><trkpt lat="38.6349597" lon="20.5923932"><ele>115.0</ele><time>2026-05-01T13:06:01.806Z</time></trkpt><trkpt lat="38.6350696" lon="20.592423"><ele>115.0</ele><time>2026-05-01T13:06:02.807Z</time></trkpt><trkpt lat="38.6351756" lon="20.5924631"><ele>115.0</ele><time>2026-05-01T13:06:03.806Z</time></trkpt><trkpt lat="38.6352865" lon="20.5924938"><ele>115.0</ele><time>2026-05-01T13:06:04.807Z</time></trkpt><trkpt lat="38.6353809" lon="20.5925341"><ele>115.0</ele><time>2026-05-01T13:06:05.807Z</time></trkpt><trkpt lat="38.6354748" lon="20.5926036"><ele>112.6</ele><time>2026-05-01T13:06:06.807Z</time></trkpt><trkpt lat="38.6355626" lon="20.5926898"><ele>110.2</ele><time>2026-05-01T13:06:07.807Z</time></trkpt><trkpt lat="38.6356456" lon="20.5927666"><ele>107.80000000000001</ele><time>2026-05-01T13:06:08.807Z</time></trkpt><trkpt lat="38.6357307" lon="20.5928355"><ele>105.4</ele><time>2026-05-01T13:06:09.807Z</time></trkpt><trkpt lat="38.6358084" lon="20.5929105"><ele>103.0</ele><time>2026-05-01T13:06:10.807Z</time></trkpt><trkpt lat="38.6358896" lon="20.5929956"><ele>103.0</ele><time>2026-05-01T13:06:11.807Z</time></trkpt><trkpt lat="38.6359709" lon="20.5930771"><ele>103.0</ele><time>2026-05-01T13:06:12.806Z</time></trkpt><trkpt lat="38.6360625" lon="20.5931538"><ele>103.0</ele><time>2026-05-01T13:06:13.806Z</time></trkpt><trkpt lat="38.6361561" lon="20.5932344"><ele>103.0</ele><time>2026-05-01T13:06:14.807Z</time></trkpt><trkpt lat="38.6362503" lon="20.5933243"><ele>103.0</ele><time>2026-05-01T13:06:15.806Z</time></trkpt><trkpt lat="38.6363348" lon="20.5934181"><ele>102.2</ele><time>2026-05-01T13:06:16.807Z</time></trkpt><trkpt lat="38.6364051" lon="20.5935199"><ele>101.4</ele><time>2026-05-01T13:06:17.807Z</time></trkpt><trkpt lat="38.6364743" lon="20.5936289"><ele>100.60000000000001</ele><time>2026-05-01T13:06:18.806Z</time></trkpt><trkpt lat="38.636557" lon="20.5937297"><ele>99.80000000000001</ele><time>2026-05-01T13:06:19.807Z</time></trkpt><trkpt lat="38.6366529" lon="20.5938075"><ele>99.0</ele><time>2026-05-01T13:06:20.806Z</time></trkpt><trkpt lat="38.6367372" lon="20.5938748"><ele>99.0</ele><time>2026-05-01T13:06:21.807Z</time></trkpt><trkpt lat="38.6368175" lon="20.5939525"><ele>99.0</ele><time>2026-05-01T13:06:22.805Z</time></trkpt><trkpt lat="38.6368792" lon="20.5940613"><ele>99.0</ele><time>2026-05-01T13:06:23.806Z</time></trkpt><trkpt lat="38.6369311" lon="20.594177"><ele>99.0</ele><time>2026-05-01T13:06:24.806Z</time></trkpt><trkpt lat="38.6369839" lon="20.5942987"><ele>99.0</ele><time>2026-05-01T13:06:25.806Z</time></trkpt><trkpt lat="38.6370463" lon="20.5944123"><ele>98.6</ele><time>2026-05-01T13:06:26.807Z</time></trkpt><trkpt lat="38.6371156" lon="20.5945112"><ele>98.2</ele><time>2026-05-01T13:06:27.807Z</time></trkpt><trkpt lat="38.6371917" lon="20.594594"><ele>97.8</ele><time>2026-05-01T13:06:28.807Z</time></trkpt><trkpt lat="38.6372778" lon="20.594654"><ele>97.39999999999999</ele><time>2026-05-01T13:06:29.807Z</time></trkpt><trkpt lat="38.6373815" lon="20.5946945"><ele>97.0</ele><time>2026-05-01T13:06:30.806Z</time></trkpt><trkpt lat="38.6374808" lon="20.5947296"><ele>97.0</ele><time>2026-05-01T13:06:31.806Z</time></trkpt><trkpt lat="38.6375722" lon="20.5947783"><ele>97.0</ele><time>2026-05-01T13:06:32.807Z</time></trkpt><trkpt lat="38.6376534" lon="20.5948466"><ele>97.0</ele><time>2026-05-01T13:06:33.807Z</time></trkpt><trkpt lat="38.6377026" lon="20.5949535"><ele>97.0</ele><time>2026-05-01T13:06:34.806Z</time></trkpt><trkpt lat="38.6377545" lon="20.5950704"><ele>97.0</ele><time>2026-05-01T13:06:35.806Z</time></trkpt><trkpt lat="38.6378108" lon="20.5951792"><ele>97.0</ele><time>2026-05-01T13:06:36.807Z</time></trkpt><trkpt lat="38.6378722" lon="20.5952979"><ele>97.0</ele><time>2026-05-01T13:06:37.806Z</time></trkpt><trkpt lat="38.6379195" lon="20.5954237"><ele>97.0</ele><time>2026-05-01T13:06:38.807Z</time></trkpt><trkpt lat="38.6379648" lon="20.5955407"><ele>97.0</ele><time>2026-05-01T13:06:39.806Z</time></trkpt><trkpt lat="38.6379941" lon="20.5956448"><ele>97.0</ele><time>2026-05-01T13:06:40.807Z</time></trkpt><trkpt lat="38.6380278" lon="20.5957206"><ele>97.00000000000001</ele><time>2026-05-01T13:06:41.806Z</time></trkpt><trkpt lat="38.6380644" lon="20.5957898"><ele>97.0</ele><time>2026-05-01T13:06:42.807Z</time></trkpt><trkpt lat="38.6381305" lon="20.59587"><ele>97.0</ele><time>2026-05-01T13:06:44.806Z</time></trkpt><trkpt lat="38.6381507" lon="20.5959624"><ele>97.0</ele><time>2026-05-01T13:06:48.807Z</time></trkpt><trkpt lat="38.6380388" lon="20.5959538"><ele>97.00000000000001</ele><time>2026-05-01T13:06:51.806Z</time></trkpt><trkpt lat="38.6379671" lon="20.5959433"><ele>97.0</ele><time>2026-05-01T13:06:52.807Z</time></trkpt><trkpt lat="38.637884" lon="20.5958814"><ele>91.75</ele><time>2026-05-01T13:06:53.805Z</time></trkpt><trkpt lat="38.6377902" lon="20.5958237"><ele>86.5</ele><time>2026-05-01T13:06:54.806Z</time></trkpt><trkpt lat="38.6376894" lon="20.5957657"><ele>81.25</ele><time>2026-05-01T13:06:55.806Z</time></trkpt><trkpt lat="38.6375772" lon="20.595711"><ele>76.0</ele><time>2026-05-01T13:06:56.807Z</time></trkpt><trkpt lat="38.6374503" lon="20.5956455"><ele>76.0</ele><time>2026-05-01T13:06:57.807Z</time></trkpt><trkpt lat="38.6373053" lon="20.5955856"><ele>76.0</ele><time>2026-05-01T13:06:58.807Z</time></trkpt><trkpt lat="38.6371661" lon="20.5955276"><ele>76.0</ele><time>2026-05-01T13:06:59.807Z</time></trkpt><trkpt lat="38.6370181" lon="20.5954583"><ele>77.75</ele><time>2026-05-01T13:07:00.807Z</time></trkpt><trkpt lat="38.6368763" lon="20.5953993"><ele>79.5</ele><time>2026-05-01T13:07:01.807Z</time></trkpt><trkpt lat="38.6367465" lon="20.5953377"><ele>81.25</ele><time>2026-05-01T13:07:02.805Z</time></trkpt><trkpt lat="38.6366189" lon="20.5952769"><ele>83.0</ele><time>2026-05-01T13:07:03.806Z</time></trkpt><trkpt lat="38.636491" lon="20.5952162"><ele>83.0</ele><time>2026-05-01T13:07:04.806Z</time></trkpt><trkpt lat="38.6363641" lon="20.5951544"><ele>83.0</ele><time>2026-05-01T13:07:05.806Z</time></trkpt><trkpt lat="38.6362337" lon="20.5950976"><ele>83.0</ele><time>2026-05-01T13:07:06.807Z</time></trkpt><trkpt lat="38.636103" lon="20.5950492"><ele>83.0</ele><time>2026-05-01T13:07:07.807Z</time></trkpt><trkpt lat="38.6359793" lon="20.5949914"><ele>77.5</ele><time>2026-05-01T13:07:08.807Z</time></trkpt><trkpt lat="38.6358621" lon="20.5949423"><ele>72.0</ele><time>2026-05-01T13:07:09.807Z</time></trkpt><trkpt lat="38.6357441" lon="20.5948973"><ele>66.5</ele><time>2026-05-01T13:07:10.805Z</time></trkpt><trkpt lat="38.6356313" lon="20.594855"><ele>61.0</ele><time>2026-05-01T13:07:11.807Z</time></trkpt><trkpt lat="38.6355173" lon="20.5948181"><ele>61.0</ele><time>2026-05-01T13:07:12.804Z</time></trkpt><trkpt lat="38.6353983" lon="20.5947763"><ele>61.0</ele><time>2026-05-01T13:07:13.807Z</time></trkpt><trkpt lat="38.6352817" lon="20.5947338"><ele>61.0</ele><time>2026-05-01T13:07:14.806Z</time></trkpt><trkpt lat="38.6351648" lon="20.5946961"><ele>61.0</ele><time>2026-05-01T13:07:15.806Z</time></trkpt><trkpt lat="38.6350493" lon="20.594664"><ele>58.0</ele><time>2026-05-01T13:07:16.806Z</time></trkpt><trkpt lat="38.6349336" lon="20.5946278"><ele>55.0</ele><time>2026-05-01T13:07:17.805Z</time></trkpt><trkpt lat="38.6348128" lon="20.5945934"><ele>52.0</ele><time>2026-05-01T13:07:18.805Z</time></trkpt><trkpt lat="38.634689" lon="20.5945588"><ele>49.0</ele><time>2026-05-01T13:07:19.806Z</time></trkpt><trkpt lat="38.6345751" lon="20.5945156"><ele>50.25</ele><time>2026-05-01T13:07:20.807Z</time></trkpt><trkpt lat="38.6344592" lon="20.5944656"><ele>51.5</ele><time>2026-05-01T13:07:21.806Z</time></trkpt><trkpt lat="38.6343473" lon="20.5944089"><ele>52.75</ele><time>2026-05-01T13:07:22.807Z</time></trkpt><trkpt lat="38.6342371" lon="20.5943554"><ele>54.0</ele><time>2026-05-01T13:07:23.806Z</time></trkpt><trkpt lat="38.6341221" lon="20.5942911"><ele>54.0</ele><time>2026-05-01T13:07:24.806Z</time></trkpt><trkpt lat="38.6339978" lon="20.5942199"><ele>54.0</ele><time>2026-05-01T13:07:25.807Z</time></trkpt><trkpt lat="38.6338869" lon="20.5941629"><ele>54.0</ele><time>2026-05-01T13:07:26.807Z</time></trkpt><trkpt lat="38.6337773" lon="20.5941098"><ele>54.0</ele><time>2026-05-01T13:07:27.806Z</time></trkpt><trkpt lat="38.6336603" lon="20.5940619"><ele>49.5</ele><time>2026-05-01T13:07:28.807Z</time></trkpt><trkpt lat="38.6335457" lon="20.5940154"><ele>45.0</ele><time>2026-05-01T13:07:29.806Z</time></trkpt><trkpt lat="38.6334325" lon="20.593967"><ele>40.5</ele><time>2026-05-01T13:07:30.806Z</time></trkpt><trkpt lat="38.6333214" lon="20.59392"><ele>36.0</ele><time>2026-05-01T13:07:31.807Z</time></trkpt><trkpt lat="38.633205" lon="20.593866"><ele>36.0</ele><time>2026-05-01T13:07:32.807Z</time></trkpt><trkpt lat="38.6330891" lon="20.593811"><ele>36.0</ele><time>2026-05-01T13:07:33.806Z</time></trkpt><trkpt lat="38.6329812" lon="20.5937456"><ele>36.0</ele><time>2026-05-01T13:07:34.806Z</time></trkpt><trkpt lat="38.6328772" lon="20.5936714"><ele>36.0</ele><time>2026-05-01T13:07:35.807Z</time></trkpt><trkpt lat="38.6327658" lon="20.5935761"><ele>35.5</ele><time>2026-05-01T13:07:36.807Z</time></trkpt><trkpt lat="38.6326637" lon="20.593473"><ele>35.0</ele><time>2026-05-01T13:07:37.806Z</time></trkpt><trkpt lat="38.6325608" lon="20.5933755"><ele>34.5</ele><time>2026-05-01T13:07:38.806Z</time></trkpt><trkpt lat="38.6324595" lon="20.5932771"><ele>34.0</ele><time>2026-05-01T13:07:39.806Z</time></trkpt><trkpt lat="38.6323512" lon="20.5931726"><ele>34.0</ele><time>2026-05-01T13:07:40.806Z</time></trkpt><trkpt lat="38.632244" lon="20.5930811"><ele>34.0</ele><time>2026-05-01T13:07:41.804Z</time></trkpt><trkpt lat="38.6321474" lon="20.5929872"><ele>34.0</ele><time>2026-05-01T13:07:42.806Z</time></trkpt><trkpt lat="38.6320454" lon="20.5929001"><ele>34.0</ele><time>2026-05-01T13:07:43.806Z</time></trkpt><trkpt lat="38.6319442" lon="20.5928199"><ele>33.25</ele><time>2026-05-01T13:07:44.806Z</time></trkpt><trkpt lat="38.6318416" lon="20.592742"><ele>32.5</ele><time>2026-05-01T13:07:45.806Z</time></trkpt><trkpt lat="38.6317328" lon="20.5926747"><ele>31.75</ele><time>2026-05-01T13:07:46.807Z</time></trkpt><trkpt lat="38.6316179" lon="20.5926214"><ele>31.0</ele><time>2026-05-01T13:07:47.807Z</time></trkpt><trkpt lat="38.6314974" lon="20.59258"><ele>31.0</ele><time>2026-05-01T13:07:48.807Z</time></trkpt><trkpt lat="38.6313709" lon="20.5925516"><ele>31.0</ele><time>2026-05-01T13:07:49.806Z</time></trkpt><trkpt lat="38.6312457" lon="20.5925214"><ele>31.0</ele><time>2026-05-01T13:07:50.806Z</time></trkpt><trkpt lat="38.631124" lon="20.5924895"><ele>31.0</ele><time>2026-05-01T13:07:51.805Z</time></trkpt><trkpt lat="38.6310069" lon="20.5924558"><ele>28.500000000000004</ele><time>2026-05-01T13:07:52.805Z</time></trkpt><trkpt lat="38.6309063" lon="20.5924254"><ele>26.0</ele><time>2026-05-01T13:07:53.806Z</time></trkpt><trkpt lat="38.6308193" lon="20.5923935"><ele>23.5</ele><time>2026-05-01T13:07:54.806Z</time></trkpt><trkpt lat="38.6307524" lon="20.592376"><ele>21.0</ele><time>2026-05-01T13:07:55.806Z</time></trkpt><trkpt lat="38.6306876" lon="20.5923834"><ele>18.5</ele><time>2026-05-01T13:07:56.806Z</time></trkpt><trkpt lat="38.6306311" lon="20.5924871"><ele>16.0</ele><time>2026-05-01T13:07:58.807Z</time></trkpt><trkpt lat="38.6306939" lon="20.5926438"><ele>16.0</ele><time>2026-05-01T13:08:00.807Z</time></trkpt><trkpt lat="38.6307572" lon="20.5927274"><ele>16.0</ele><time>2026-05-01T13:08:01.807Z</time></trkpt><trkpt lat="38.6308296" lon="20.5928097"><ele>16.0</ele><time>2026-05-01T13:08:02.807Z</time></trkpt><trkpt lat="38.6309055" lon="20.592891"><ele>16.0</ele><time>2026-05-01T13:08:03.806Z</time></trkpt><trkpt lat="38.6309857" lon="20.5929716"><ele>16.0</ele><time>2026-05-01T13:08:04.807Z</time></trkpt><trkpt lat="38.631072" lon="20.5930607"><ele>15.5</ele><time>2026-05-01T13:08:05.806Z</time></trkpt><trkpt lat="38.6311668" lon="20.5931524"><ele>15.0</ele><time>2026-05-01T13:08:06.805Z</time></trkpt><trkpt lat="38.6312581" lon="20.5932468"><ele>14.5</ele><time>2026-05-01T13:08:07.807Z</time></trkpt><trkpt lat="38.6313501" lon="20.5933379"><ele>14.0</ele><time>2026-05-01T13:08:08.806Z</time></trkpt><trkpt lat="38.6314403" lon="20.5934311"><ele>14.0</ele><time>2026-05-01T13:08:09.806Z</time></trkpt><trkpt lat="38.6315237" lon="20.593523"><ele>13.999999999999998</ele><time>2026-05-01T13:08:10.806Z</time></trkpt><trkpt lat="38.6316048" lon="20.5936136"><ele>13.999999999999998</ele><time>2026-05-01T13:08:11.807Z</time></trkpt><trkpt lat="38.6316708" lon="20.5937021"><ele>14.0</ele><time>2026-05-01T13:08:12.806Z</time></trkpt><trkpt lat="38.6317371" lon="20.5937932"><ele>14.0</ele><time>2026-05-01T13:08:13.806Z</time></trkpt><trkpt lat="38.6317967" lon="20.5938877"><ele>14.799999999999999</ele><time>2026-05-01T13:08:14.806Z</time></trkpt><trkpt lat="38.6318487" lon="20.5939934"><ele>15.599999999999998</ele><time>2026-05-01T13:08:15.807Z</time></trkpt><trkpt lat="38.6318984" lon="20.5941117"><ele>16.4</ele><time>2026-05-01T13:08:16.806Z</time></trkpt><trkpt lat="38.6319456" lon="20.5942384"><ele>17.2</ele><time>2026-05-01T13:08:17.806Z</time></trkpt><trkpt lat="38.6319966" lon="20.5943623"><ele>18.0</ele><time>2026-05-01T13:08:18.806Z</time></trkpt><trkpt lat="38.6320487" lon="20.5944871"><ele>15.8</ele><time>2026-05-01T13:08:19.807Z</time></trkpt><trkpt lat="38.6321065" lon="20.5946049"><ele>13.600000000000001</ele><time>2026-05-01T13:08:20.806Z</time></trkpt><trkpt lat="38.6321736" lon="20.5947173"><ele>11.399999999999999</ele><time>2026-05-01T13:08:21.806Z</time></trkpt><trkpt lat="38.6322416" lon="20.5948246"><ele>9.2</ele><time>2026-05-01T13:08:22.806Z</time></trkpt><trkpt lat="38.6322964" lon="20.5949236"><ele>7.0</ele><time>2026-05-01T13:08:23.807Z</time></trkpt><trkpt lat="38.6323536" lon="20.5950186"><ele>7.0</ele><time>2026-05-01T13:08:24.807Z</time></trkpt><trkpt lat="38.6324224" lon="20.5951252"><ele>6.999999999999999</ele><time>2026-05-01T13:08:25.806Z</time></trkpt><trkpt lat="38.6324716" lon="20.5952388"><ele>6.999999999999999</ele><time>2026-05-01T13:08:26.806Z</time></trkpt><trkpt lat="38.6325141" lon="20.5953517"><ele>7.0</ele><time>2026-05-01T13:08:27.807Z</time></trkpt><trkpt lat="38.6325571" lon="20.5954664"><ele>7.0</ele><time>2026-05-01T13:08:28.806Z</time></trkpt><trkpt lat="38.6326078" lon="20.595585"><ele>6.199999999999999</ele><time>2026-05-01T13:08:29.806Z</time></trkpt><trkpt lat="38.6326597" lon="20.5957059"><ele>5.3999999999999995</ele><time>2026-05-01T13:08:30.804Z</time></trkpt><trkpt lat="38.6327046" lon="20.5958169"><ele>4.6</ele><time>2026-05-01T13:08:31.807Z</time></trkpt><trkpt lat="38.6327501" lon="20.5959291"><ele>3.8</ele><time>2026-05-01T13:08:32.805Z</time></trkpt><trkpt lat="38.6327941" lon="20.5960511"><ele>3.0</ele><time>2026-05-01T13:08:33.806Z</time></trkpt><trkpt lat="38.6328392" lon="20.5961703"><ele>2.6</ele><time>2026-05-01T13:08:34.806Z</time></trkpt><trkpt lat="38.6328819" lon="20.5963023"><ele>2.1999999999999997</ele><time>2026-05-01T13:08:35.807Z</time></trkpt><trkpt lat="38.6329215" lon="20.5964353"><ele>1.8</ele><time>2026-05-01T13:08:36.807Z</time></trkpt><trkpt lat="38.6329561" lon="20.5965599"><ele>1.4</ele><time>2026-05-01T13:08:37.806Z</time></trkpt><trkpt lat="38.632985" lon="20.5966789"><ele>1.0</ele><time>2026-05-01T13:08:38.805Z</time></trkpt><trkpt lat="38.6330143" lon="20.596794"><ele>1.0</ele><time>2026-05-01T13:08:39.806Z</time></trkpt><trkpt lat="38.6330407" lon="20.5969122"><ele>1.0</ele><time>2026-05-01T13:08:40.807Z</time></trkpt><trkpt lat="38.6330515" lon="20.5970399"><ele>1.0</ele><time>2026-05-01T13:08:41.807Z</time></trkpt><trkpt lat="38.6330556" lon="20.5971755"><ele>1.0</ele><time>2026-05-01T13:08:42.806Z</time></trkpt><trkpt lat="38.633058" lon="20.597318"><ele>1.0</ele><time>2026-05-01T13:08:43.806Z</time></trkpt><trkpt lat="38.6330245" lon="20.5974916"><ele>0.75</ele><time>2026-05-01T13:08:44.806Z</time></trkpt><trkpt lat="38.6329968" lon="20.597662"><ele>0.5</ele><time>2026-05-01T13:08:45.807Z</time></trkpt><trkpt lat="38.6329707" lon="20.5978228"><ele>0.25</ele><time>2026-05-01T13:08:46.805Z</time></trkpt><trkpt lat="38.6329622" lon="20.5979676"><ele>0.0</ele><time>2026-05-01T13:08:47.806Z</time></trkpt><trkpt lat="38.6329417" lon="20.5981113"><ele>-0.25</ele><time>2026-05-01T13:08:48.806Z</time></trkpt><trkpt lat="38.6329238" lon="20.5982542"><ele>-0.5</ele><time>2026-05-01T13:08:49.807Z</time></trkpt><trkpt lat="38.6329061" lon="20.5983934"><ele>-0.75</ele><time>2026-05-01T13:08:50.807Z</time></trkpt><trkpt lat="38.6329012" lon="20.5985628"><ele>-1.0</ele><time>2026-05-01T13:08:51.807Z</time></trkpt><trkpt lat="38.632882" lon="20.5987033"><ele>-1.0</ele><time>2026-05-01T13:08:52.806Z</time></trkpt><trkpt lat="38.6328611" lon="20.5988469"><ele>-1.0</ele><time>2026-05-01T13:08:53.806Z</time></trkpt><trkpt lat="38.6328468" lon="20.5990136"><ele>-1.0</ele><time>2026-05-01T13:08:54.807Z</time></trkpt><trkpt lat="38.6328271" lon="20.5991574"><ele>-1.0</ele><time>2026-05-01T13:08:55.806Z</time></trkpt><trkpt lat="38.6328084" lon="20.5992911"><ele>-1.0</ele><time>2026-05-01T13:08:56.806Z</time></trkpt><trkpt lat="38.6327921" lon="20.5994207"><ele>-1.0</ele><time>2026-05-01T13:08:57.806Z</time></trkpt><trkpt lat="38.6327822" lon="20.5995655"><ele>-1.0</ele><time>2026-05-01T13:08:58.807Z</time></trkpt><trkpt lat="38.6327578" lon="20.5996956"><ele>-1.0</ele><time>2026-05-01T13:08:59.806Z</time></trkpt><trkpt lat="38.6327394" lon="20.5998257"><ele>-1.0</ele><time>2026-05-01T13:09:00.806Z</time></trkpt><trkpt lat="38.6327175" lon="20.5999597"><ele>-0.6000000000000001</ele><time>2026-05-01T13:09:01.807Z</time></trkpt><trkpt lat="38.6326989" lon="20.6000886"><ele>-0.20000000000000007</ele><time>2026-05-01T13:09:02.807Z</time></trkpt><trkpt lat="38.632685" lon="20.6002185"><ele>0.20000000000000007</ele><time>2026-05-01T13:09:03.807Z</time></trkpt><trkpt lat="38.632679" lon="20.6003497"><ele>0.6000000000000001</ele><time>2026-05-01T13:09:04.806Z</time></trkpt><trkpt lat="38.6326612" lon="20.6004839"><ele>1.0</ele><time>2026-05-01T13:09:05.807Z</time></trkpt><trkpt lat="38.6326378" lon="20.6006145"><ele>1.0</ele><time>2026-05-01T13:09:06.807Z</time></trkpt><trkpt lat="38.6326179" lon="20.6007502"><ele>1.0</ele><time>2026-05-01T13:09:07.807Z</time></trkpt><trkpt lat="38.6325959" lon="20.6008833"><ele>1.0</ele><time>2026-05-01T13:09:08.806Z</time></trkpt><trkpt lat="38.632579" lon="20.6010143"><ele>1.0</ele><time>2026-05-01T13:09:09.806Z</time></trkpt><trkpt lat="38.6325567" lon="20.6011472"><ele>1.0</ele><time>2026-05-01T13:09:10.806Z</time></trkpt><trkpt lat="38.632538" lon="20.6012836"><ele>1.0</ele><time>2026-05-01T13:09:11.806Z</time></trkpt><trkpt lat="38.632518" lon="20.6014266"><ele>1.0</ele><time>2026-05-01T13:09:12.807Z</time></trkpt><trkpt lat="38.6324935" lon="20.6015676"><ele>1.0</ele><time>2026-05-01T13:09:13.807Z</time></trkpt><trkpt lat="38.6324742" lon="20.6017261"><ele>1.0</ele><time>2026-05-01T13:09:14.807Z</time></trkpt><trkpt lat="38.6324579" lon="20.6018784"><ele>1.0</ele><time>2026-05-01T13:09:15.806Z</time></trkpt><trkpt lat="38.6324398" lon="20.6020229"><ele>1.0</ele><time>2026-05-01T13:09:16.806Z</time></trkpt><trkpt lat="38.6324249" lon="20.6021541"><ele>1.0</ele><time>2026-05-01T13:09:17.806Z</time></trkpt><trkpt lat="38.6324086" lon="20.6022816"><ele>1.0</ele><time>2026-05-01T13:09:18.806Z</time></trkpt><trkpt lat="38.6323929" lon="20.6023932"><ele>1.0</ele><time>2026-05-01T13:09:19.805Z</time></trkpt><trkpt lat="38.6323767" lon="20.6024984"><ele>1.0</ele><time>2026-05-01T13:09:20.806Z</time></trkpt><trkpt lat="38.6323672" lon="20.6026074"><ele>1.0</ele><time>2026-05-01T13:09:21.807Z</time></trkpt><trkpt lat="38.6323532" lon="20.6027107"><ele>1.0</ele><time>2026-05-01T13:09:22.807Z</time></trkpt><trkpt lat="38.6323334" lon="20.6028262"><ele>1.0</ele><time>2026-05-01T13:09:23.807Z</time></trkpt><trkpt lat="38.6323125" lon="20.602956"><ele>1.0</ele><time>2026-05-01T13:09:24.807Z</time></trkpt><trkpt lat="38.6322865" lon="20.6030968"><ele>1.25</ele><time>2026-05-01T13:09:25.805Z</time></trkpt><trkpt lat="38.6322591" lon="20.6032515"><ele>1.5</ele><time>2026-05-01T13:09:26.806Z</time></trkpt><trkpt lat="38.6322286" lon="20.6033937"><ele>1.75</ele><time>2026-05-01T13:09:27.807Z</time></trkpt><trkpt lat="38.6321918" lon="20.6035378"><ele>2.0</ele><time>2026-05-01T13:09:28.807Z</time></trkpt><trkpt lat="38.6321537" lon="20.6036831"><ele>2.25</ele><time>2026-05-01T13:09:29.805Z</time></trkpt><trkpt lat="38.6321188" lon="20.6038325"><ele>2.5</ele><time>2026-05-01T13:09:30.806Z</time></trkpt><trkpt lat="38.6320837" lon="20.6039859"><ele>2.75</ele><time>2026-05-01T13:09:31.806Z</time></trkpt><trkpt lat="38.6320426" lon="20.6041464"><ele>3.0</ele><time>2026-05-01T13:09:32.807Z</time></trkpt><trkpt lat="38.6319877" lon="20.6043037"><ele>3.0</ele><time>2026-05-01T13:09:33.807Z</time></trkpt><trkpt lat="38.6319449" lon="20.604464"><ele>3.0</ele><time>2026-05-01T13:09:34.804Z</time></trkpt><trkpt lat="38.6319019" lon="20.6046312"><ele>3.0</ele><time>2026-05-01T13:09:35.806Z</time></trkpt><trkpt lat="38.6318553" lon="20.6047912"><ele>3.0</ele><time>2026-05-01T13:09:36.806Z</time></trkpt><trkpt lat="38.6318198" lon="20.6049615"><ele>3.0</ele><time>2026-05-01T13:09:37.805Z</time></trkpt><trkpt lat="38.6317766" lon="20.6051226"><ele>3.0</ele><time>2026-05-01T13:09:38.806Z</time></trkpt><trkpt lat="38.6317312" lon="20.6052787"><ele>3.0</ele><time>2026-05-01T13:09:39.807Z</time></trkpt><trkpt lat="38.6316949" lon="20.6054282"><ele>3.0</ele><time>2026-05-01T13:09:40.806Z</time></trkpt><trkpt lat="38.6316542" lon="20.6055812"><ele>3.5</ele><time>2026-05-01T13:09:41.805Z</time></trkpt><trkpt lat="38.6316261" lon="20.6057307"><ele>4.0</ele><time>2026-05-01T13:09:42.806Z</time></trkpt><trkpt lat="38.6315989" lon="20.6058813"><ele>4.5</ele><time>2026-05-01T13:09:43.805Z</time></trkpt><trkpt lat="38.6315765" lon="20.6060227"><ele>5.0</ele><time>2026-05-01T13:09:44.807Z</time></trkpt><trkpt lat="38.6315515" lon="20.6061663"><ele>5.0</ele><time>2026-05-01T13:09:45.807Z</time></trkpt><trkpt lat="38.6315287" lon="20.6063184"><ele>5.0</ele><time>2026-05-01T13:09:46.804Z</time></trkpt><trkpt lat="38.6314877" lon="20.6064562"><ele>5.0</ele><time>2026-05-01T13:09:47.806Z</time></trkpt><trkpt lat="38.6314197" lon="20.6065708"><ele>5.0</ele><time>2026-05-01T13:09:48.806Z</time></trkpt><trkpt lat="38.6313363" lon="20.6066713"><ele>5.0</ele><time>2026-05-01T13:09:49.807Z</time></trkpt><trkpt lat="38.6312393" lon="20.6067704"><ele>5.0</ele><time>2026-05-01T13:09:50.806Z</time></trkpt><trkpt lat="38.6311412" lon="20.6068679"><ele>5.0</ele><time>2026-05-01T13:09:51.806Z</time></trkpt><trkpt lat="38.631042" lon="20.6069913"><ele>5.0</ele><time>2026-05-01T13:09:52.806Z</time></trkpt><trkpt lat="38.6309466" lon="20.6070808"><ele>4.4</ele><time>2026-05-01T13:09:53.805Z</time></trkpt><trkpt lat="38.6308621" lon="20.6071749"><ele>3.8</ele><time>2026-05-01T13:09:54.806Z</time></trkpt><trkpt lat="38.6307662" lon="20.6072366"><ele>3.2</ele><time>2026-05-01T13:09:55.806Z</time></trkpt><trkpt lat="38.6306866" lon="20.6073161"><ele>2.6</ele><time>2026-05-01T13:09:56.806Z</time></trkpt><trkpt lat="38.6306102" lon="20.6073858"><ele>2.0</ele><time>2026-05-01T13:09:57.805Z</time></trkpt><trkpt lat="38.6305343" lon="20.6074581"><ele>2.0</ele><time>2026-05-01T13:09:58.805Z</time></trkpt><trkpt lat="38.6304539" lon="20.6075355"><ele>2.0</ele><time>2026-05-01T13:09:59.806Z</time></trkpt><trkpt lat="38.6303757" lon="20.6076073"><ele>2.0</ele><time>2026-05-01T13:10:00.804Z</time></trkpt><trkpt lat="38.6302906" lon="20.6076817"><ele>2.0</ele><time>2026-05-01T13:10:01.806Z</time></trkpt><trkpt lat="38.6302059" lon="20.6077461"><ele>2.0</ele><time>2026-05-01T13:10:02.807Z</time></trkpt><trkpt lat="38.6301203" lon="20.6078317"><ele>2.0</ele><time>2026-05-01T13:10:03.806Z</time></trkpt><trkpt lat="38.6300383" lon="20.6079115"><ele>2.0</ele><time>2026-05-01T13:10:04.806Z</time></trkpt><trkpt lat="38.6299579" lon="20.6079891"><ele>2.0</ele><time>2026-05-01T13:10:05.805Z</time></trkpt><trkpt lat="38.6298745" lon="20.6080671"><ele>2.0</ele><time>2026-05-01T13:10:06.806Z</time></trkpt><trkpt lat="38.6297919" lon="20.6081455"><ele>2.0</ele><time>2026-05-01T13:10:07.806Z</time></trkpt><trkpt lat="38.6297103" lon="20.6082207"><ele>2.0</ele><time>2026-05-01T13:10:08.805Z</time></trkpt><trkpt lat="38.6296225" lon="20.6083088"><ele>2.0</ele><time>2026-05-01T13:10:09.805Z</time></trkpt><trkpt lat="38.6295327" lon="20.6083855"><ele>2.0</ele><time>2026-05-01T13:10:10.806Z</time></trkpt><trkpt lat="38.6294452" lon="20.6084719"><ele>2.0</ele><time>2026-05-01T13:10:11.805Z</time></trkpt><trkpt lat="38.629355" lon="20.608551"><ele>2.0</ele><time>2026-05-01T13:10:12.806Z</time></trkpt><trkpt lat="38.629269" lon="20.6086366"><ele>2.0</ele><time>2026-05-01T13:10:13.805Z</time></trkpt><trkpt lat="38.6291851" lon="20.6087155"><ele>2.0</ele><time>2026-05-01T13:10:14.807Z</time></trkpt><trkpt lat="38.6290987" lon="20.6087983"><ele>2.0</ele><time>2026-05-01T13:10:15.806Z</time></trkpt><trkpt lat="38.6290218" lon="20.608872"><ele>2.0</ele><time>2026-05-01T13:10:16.806Z</time></trkpt><trkpt lat="38.6289656" lon="20.6089429"><ele>2.0</ele><time>2026-05-01T13:10:17.807Z</time></trkpt><trkpt lat="38.6288979" lon="20.6090028"><ele>1.9999999999999998</ele><time>2026-05-01T13:10:18.806Z</time></trkpt><trkpt lat="38.628832" lon="20.609054"><ele>2.0</ele><time>2026-05-01T13:10:19.807Z</time></trkpt><trkpt lat="38.6287717" lon="20.6091702"><ele>2.0</ele><time>2026-05-01T13:10:21.807Z</time></trkpt><trkpt lat="38.6287884" lon="20.6092507"><ele>2.0</ele><time>2026-05-01T13:10:22.805Z</time></trkpt><trkpt lat="38.6288181" lon="20.6093261"><ele>1.9999999999999998</ele><time>2026-05-01T13:10:23.807Z</time></trkpt><trkpt lat="38.6288625" lon="20.6094252"><ele>2.0</ele><time>2026-05-01T13:10:24.806Z</time></trkpt><trkpt lat="38.6289107" lon="20.6095215"><ele>2.0</ele><time>2026-05-01T13:10:25.807Z</time></trkpt><trkpt lat="38.628965" lon="20.6096253"><ele>2.0</ele><time>2026-05-01T13:10:26.807Z</time></trkpt><trkpt lat="38.6290186" lon="20.6097362"><ele>2.0</ele><time>2026-05-01T13:10:27.806Z</time></trkpt><trkpt lat="38.629074" lon="20.6098476"><ele>2.0</ele><time>2026-05-01T13:10:28.807Z</time></trkpt><trkpt lat="38.6291159" lon="20.6099685"><ele>2.0</ele><time>2026-05-01T13:10:29.807Z</time></trkpt><trkpt lat="38.6291521" lon="20.6100859"><ele>2.0</ele><time>2026-05-01T13:10:30.803Z</time></trkpt><trkpt lat="38.629189" lon="20.6102178"><ele>2.0</ele><time>2026-05-01T13:10:31.807Z</time></trkpt><trkpt lat="38.62921" lon="20.6103484"><ele>2.0</ele><time>2026-05-01T13:10:32.805Z</time></trkpt><trkpt lat="38.6292268" lon="20.6104803"><ele>2.0</ele><time>2026-05-01T13:10:33.807Z</time></trkpt><trkpt lat="38.6292374" lon="20.6106163"><ele>2.0</ele><time>2026-05-01T13:10:34.807Z</time></trkpt><trkpt lat="38.6292355" lon="20.6107513"><ele>2.4000000000000004</ele><time>2026-05-01T13:10:35.806Z</time></trkpt><trkpt lat="38.6292418" lon="20.610895"><ele>2.8000000000000003</ele><time>2026-05-01T13:10:36.806Z</time></trkpt><trkpt lat="38.6292278" lon="20.6110241"><ele>3.2</ele><time>2026-05-01T13:10:37.807Z</time></trkpt><trkpt lat="38.6292063" lon="20.6111585"><ele>3.6</ele><time>2026-05-01T13:10:38.805Z</time></trkpt><trkpt lat="38.6291749" lon="20.6112772"><ele>4.0</ele><time>2026-05-01T13:10:39.807Z</time></trkpt><trkpt lat="38.629143" lon="20.6113767"><ele>5.0</ele><time>2026-05-01T13:10:40.805Z</time></trkpt><trkpt lat="38.6291146" lon="20.6114538"><ele>6.0</ele><time>2026-05-01T13:10:41.806Z</time></trkpt><trkpt lat="38.629083" lon="20.6115918"><ele>7.0</ele><time>2026-05-01T13:10:43.807Z</time></trkpt><trkpt lat="38.629075" lon="20.6117025"><ele>8.0</ele><time>2026-05-01T13:10:45.806Z</time></trkpt><trkpt lat="38.6291004" lon="20.6117764"><ele>9.0</ele><time>2026-05-01T13:10:46.807Z</time></trkpt><trkpt lat="38.6291513" lon="20.6118504"><ele>10.0</ele><time>2026-05-01T13:10:47.806Z</time></trkpt><trkpt lat="38.6292179" lon="20.6119279"><ele>9.75</ele><time>2026-05-01T13:10:48.806Z</time></trkpt><trkpt lat="38.6293052" lon="20.6120024"><ele>9.5</ele><time>2026-05-01T13:10:49.805Z</time></trkpt><trkpt lat="38.6294168" lon="20.6121055"><ele>9.25</ele><time>2026-05-01T13:10:50.806Z</time></trkpt><trkpt lat="38.6295484" lon="20.61224"><ele>9.0</ele><time>2026-05-01T13:10:51.805Z</time></trkpt><trkpt lat="38.6296785" lon="20.6123828"><ele>9.0</ele><time>2026-05-01T13:10:52.805Z</time></trkpt><trkpt lat="38.6298066" lon="20.612528"><ele>9.0</ele><time>2026-05-01T13:10:53.805Z</time></trkpt><trkpt lat="38.6299274" lon="20.6126686"><ele>9.0</ele><time>2026-05-01T13:10:54.804Z</time></trkpt><trkpt lat="38.6300376" lon="20.6127956"><ele>8.75</ele><time>2026-05-01T13:10:55.805Z</time></trkpt><trkpt lat="38.6301398" lon="20.6129214"><ele>8.5</ele><time>2026-05-01T13:10:56.805Z</time></trkpt><trkpt lat="38.630232" lon="20.6130595"><ele>8.25</ele><time>2026-05-01T13:10:57.804Z</time></trkpt><trkpt lat="38.6303353" lon="20.613218"><ele>8.0</ele><time>2026-05-01T13:10:58.806Z</time></trkpt><trkpt lat="38.6304237" lon="20.61339"><ele>8.0</ele><time>2026-05-01T13:10:59.806Z</time></trkpt><trkpt lat="38.6305138" lon="20.6135721"><ele>8.0</ele><time>2026-05-01T13:11:00.805Z</time></trkpt><trkpt lat="38.6305904" lon="20.6137683"><ele>8.0</ele><time>2026-05-01T13:11:01.807Z</time></trkpt><trkpt lat="38.6306676" lon="20.6139595"><ele>10.0</ele><time>2026-05-01T13:11:02.806Z</time></trkpt><trkpt lat="38.6307454" lon="20.6141471"><ele>12.0</ele><time>2026-05-01T13:11:03.807Z</time></trkpt><trkpt lat="38.6308273" lon="20.6143217"><ele>14.0</ele><time>2026-05-01T13:11:04.806Z</time></trkpt><trkpt lat="38.6309094" lon="20.6144873"><ele>14.5</ele><time>2026-05-01T13:11:05.805Z</time></trkpt><trkpt lat="38.6309967" lon="20.6146367"><ele>15.0</ele><time>2026-05-01T13:11:06.806Z</time></trkpt><trkpt lat="38.6310908" lon="20.6147705"><ele>15.5</ele><time>2026-05-01T13:11:07.806Z</time></trkpt><trkpt lat="38.6311879" lon="20.614878"><ele>16.0</ele><time>2026-05-01T13:11:08.806Z</time></trkpt><trkpt lat="38.63129" lon="20.6149718"><ele>16.0</ele><time>2026-05-01T13:11:09.807Z</time></trkpt><trkpt lat="38.6313929" lon="20.6150566"><ele>16.0</ele><time>2026-05-01T13:11:10.805Z</time></trkpt><trkpt lat="38.6314983" lon="20.6151401"><ele>16.0</ele><time>2026-05-01T13:11:11.806Z</time></trkpt><trkpt lat="38.6316067" lon="20.6152167"><ele>16.0</ele><time>2026-05-01T13:11:12.806Z</time></trkpt><trkpt lat="38.6317227" lon="20.6152892"><ele>16.5</ele><time>2026-05-01T13:11:13.807Z</time></trkpt><trkpt lat="38.6318413" lon="20.6153578"><ele>17.0</ele><time>2026-05-01T13:11:14.807Z</time></trkpt><trkpt lat="38.6319557" lon="20.6154242"><ele>17.5</ele><time>2026-05-01T13:11:15.806Z</time></trkpt><trkpt lat="38.6320833" lon="20.6154945"><ele>18.0</ele><time>2026-05-01T13:11:16.806Z</time></trkpt><trkpt lat="38.6322034" lon="20.6155734"><ele>18.0</ele><time>2026-05-01T13:11:17.805Z</time></trkpt><trkpt lat="38.6323267" lon="20.6156606"><ele>18.0</ele><time>2026-05-01T13:11:18.805Z</time></trkpt><trkpt lat="38.6324517" lon="20.6157516"><ele>18.0</ele><time>2026-05-01T13:11:19.805Z</time></trkpt><trkpt lat="38.6325804" lon="20.6158418"><ele>18.0</ele><time>2026-05-01T13:11:20.806Z</time></trkpt><trkpt lat="38.6327002" lon="20.6159451"><ele>18.75</ele><time>2026-05-01T13:11:21.804Z</time></trkpt><trkpt lat="38.6328135" lon="20.6160527"><ele>19.5</ele><time>2026-05-01T13:11:22.806Z</time></trkpt><trkpt lat="38.6329089" lon="20.6161667"><ele>20.25</ele><time>2026-05-01T13:11:23.805Z</time></trkpt><trkpt lat="38.6330156" lon="20.6162773"><ele>21.0</ele><time>2026-05-01T13:11:24.805Z</time></trkpt><trkpt lat="38.6331245" lon="20.6163951"><ele>21.0</ele><time>2026-05-01T13:11:25.806Z</time></trkpt><trkpt lat="38.6332225" lon="20.6165108"><ele>21.0</ele><time>2026-05-01T13:11:26.803Z</time></trkpt><trkpt lat="38.6333165" lon="20.6166334"><ele>21.0</ele><time>2026-05-01T13:11:27.806Z</time></trkpt><trkpt lat="38.6334212" lon="20.616762"><ele>21.0</ele><time>2026-05-01T13:11:28.806Z</time></trkpt><trkpt lat="38.6335248" lon="20.6169044"><ele>20.333333333333332</ele><time>2026-05-01T13:11:29.805Z</time></trkpt><trkpt lat="38.6336309" lon="20.6170414"><ele>19.666666666666664</ele><time>2026-05-01T13:11:30.806Z</time></trkpt><trkpt lat="38.6337488" lon="20.6171824"><ele>19.0</ele><time>2026-05-01T13:11:31.807Z</time></trkpt><trkpt lat="38.6338554" lon="20.6173255"><ele>19.0</ele><time>2026-05-01T13:11:32.805Z</time></trkpt><trkpt lat="38.6339687" lon="20.6174808"><ele>19.0</ele><time>2026-05-01T13:11:33.806Z</time></trkpt><trkpt lat="38.6340814" lon="20.6176491"><ele>19.0</ele><time>2026-05-01T13:11:34.805Z</time></trkpt><trkpt lat="38.6341897" lon="20.6178268"><ele>17.0</ele><time>2026-05-01T13:11:35.806Z</time></trkpt><trkpt lat="38.6342983" lon="20.6180025"><ele>15.0</ele><time>2026-05-01T13:11:36.805Z</time></trkpt><trkpt lat="38.6343955" lon="20.6181873"><ele>13.0</ele><time>2026-05-01T13:11:37.806Z</time></trkpt><trkpt lat="38.6344873" lon="20.6183798"><ele>13.0</ele><time>2026-05-01T13:11:38.804Z</time></trkpt><trkpt lat="38.6345854" lon="20.61857"><ele>13.0</ele><time>2026-05-01T13:11:39.807Z</time></trkpt><trkpt lat="38.6346755" lon="20.6187699"><ele>13.0</ele><time>2026-05-01T13:11:40.804Z</time></trkpt><trkpt lat="38.6347596" lon="20.618956"><ele>16.0</ele><time>2026-05-01T13:11:41.804Z</time></trkpt><trkpt lat="38.6348396" lon="20.6191474"><ele>19.0</ele><time>2026-05-01T13:11:42.804Z</time></trkpt><trkpt lat="38.6349181" lon="20.6193387"><ele>22.0</ele><time>2026-05-01T13:11:43.807Z</time></trkpt><trkpt lat="38.6349929" lon="20.6195262"><ele>25.666666666666664</ele><time>2026-05-01T13:11:44.804Z</time></trkpt><trkpt lat="38.6350597" lon="20.619716"><ele>29.333333333333332</ele><time>2026-05-01T13:11:45.806Z</time></trkpt><trkpt lat="38.6351264" lon="20.6199045"><ele>33.0</ele><time>2026-05-01T13:11:46.805Z</time></trkpt><trkpt lat="38.635192" lon="20.6200892"><ele>33.0</ele><time>2026-05-01T13:11:47.807Z</time></trkpt><trkpt lat="38.6352595" lon="20.6202722"><ele>33.0</ele><time>2026-05-01T13:11:48.806Z</time></trkpt><trkpt lat="38.6353278" lon="20.6204691"><ele>33.0</ele><time>2026-05-01T13:11:49.805Z</time></trkpt><trkpt lat="38.6354002" lon="20.6206638"><ele>32.666666666666664</ele><time>2026-05-01T13:11:50.806Z</time></trkpt><trkpt lat="38.6354726" lon="20.6208669"><ele>32.33333333333333</ele><time>2026-05-01T13:11:51.806Z</time></trkpt><trkpt lat="38.635533" lon="20.6210533"><ele>32.0</ele><time>2026-05-01T13:11:52.807Z</time></trkpt><trkpt lat="38.6355905" lon="20.6212467"><ele>35.33333333333333</ele><time>2026-05-01T13:11:53.806Z</time></trkpt><trkpt lat="38.6356539" lon="20.6214507"><ele>38.666666666666664</ele><time>2026-05-01T13:11:54.806Z</time></trkpt><trkpt lat="38.6356825" lon="20.6216333"><ele>42.0</ele><time>2026-05-01T13:11:55.804Z</time></trkpt><trkpt lat="38.6356984" lon="20.6218101"><ele>42.25</ele><time>2026-05-01T13:11:56.806Z</time></trkpt><trkpt lat="38.6356958" lon="20.6219868"><ele>42.5</ele><time>2026-05-01T13:11:57.806Z</time></trkpt><trkpt lat="38.6356801" lon="20.6221824"><ele>42.75</ele><time>2026-05-01T13:11:58.805Z</time></trkpt><trkpt lat="38.635645" lon="20.6223498"><ele>43.0</ele><time>2026-05-01T13:11:59.806Z</time></trkpt><trkpt lat="38.6355891" lon="20.6225187"><ele>43.0</ele><time>2026-05-01T13:12:00.806Z</time></trkpt><trkpt lat="38.6355263" lon="20.622689"><ele>43.0</ele><time>2026-05-01T13:12:01.806Z</time></trkpt><trkpt lat="38.6354678" lon="20.6228556"><ele>43.0</ele><time>2026-05-01T13:12:02.806Z</time></trkpt><trkpt lat="38.6354124" lon="20.6230298"><ele>43.0</ele><time>2026-05-01T13:12:03.806Z</time></trkpt><trkpt lat="38.6353568" lon="20.623211"><ele>47.5</ele><time>2026-05-01T13:12:04.806Z</time></trkpt><trkpt lat="38.6352921" lon="20.6233793"><ele>52.0</ele><time>2026-05-01T13:12:05.806Z</time></trkpt><trkpt lat="38.6352306" lon="20.6235455"><ele>56.5</ele><time>2026-05-01T13:12:06.804Z</time></trkpt><trkpt lat="38.6351769" lon="20.6237314"><ele>61.0</ele><time>2026-05-01T13:12:07.807Z</time></trkpt><trkpt lat="38.635129" lon="20.6239259"><ele>61.0</ele><time>2026-05-01T13:12:08.806Z</time></trkpt><trkpt lat="38.6351017" lon="20.6241263"><ele>61.0</ele><time>2026-05-01T13:12:09.807Z</time></trkpt><trkpt lat="38.6350958" lon="20.624351"><ele>61.0</ele><time>2026-05-01T13:12:10.806Z</time></trkpt><trkpt lat="38.6351046" lon="20.6245769"><ele>63.33333333333333</ele><time>2026-05-01T13:12:11.807Z</time></trkpt><trkpt lat="38.635121" lon="20.6248051"><ele>65.66666666666667</ele><time>2026-05-01T13:12:12.807Z</time></trkpt><trkpt lat="38.6351248" lon="20.6250257"><ele>68.0</ele><time>2026-05-01T13:12:13.805Z</time></trkpt><trkpt lat="38.6351237" lon="20.6252415"><ele>68.0</ele><time>2026-05-01T13:12:14.806Z</time></trkpt><trkpt lat="38.6351082" lon="20.6254493"><ele>68.0</ele><time>2026-05-01T13:12:15.805Z</time></trkpt><trkpt lat="38.6350764" lon="20.6256251"><ele>68.0</ele><time>2026-05-01T13:12:16.806Z</time></trkpt><trkpt lat="38.6350386" lon="20.6258165"><ele>68.0</ele><time>2026-05-01T13:12:17.804Z</time></trkpt><trkpt lat="38.6349924" lon="20.6259942"><ele>68.0</ele><time>2026-05-01T13:12:18.807Z</time></trkpt><trkpt lat="38.6349358" lon="20.6261705"><ele>68.0</ele><time>2026-05-01T13:12:19.806Z</time></trkpt><trkpt lat="38.6348786" lon="20.6263584"><ele>69.0</ele><time>2026-05-01T13:12:20.807Z</time></trkpt><trkpt lat="38.6348155" lon="20.626567"><ele>70.0</ele><time>2026-05-01T13:12:21.807Z</time></trkpt><trkpt lat="38.6347511" lon="20.6268111"><ele>71.0</ele><time>2026-05-01T13:12:22.805Z</time></trkpt><trkpt lat="38.6346885" lon="20.6270781"><ele>71.0</ele><time>2026-05-01T13:12:23.806Z</time></trkpt><trkpt lat="38.634623" lon="20.6273469"><ele>71.0</ele><time>2026-05-01T13:12:24.805Z</time></trkpt><trkpt lat="38.6345589" lon="20.6276001"><ele>71.0</ele><time>2026-05-01T13:12:25.806Z</time></trkpt><trkpt lat="38.6345174" lon="20.6278328"><ele>76.0</ele><time>2026-05-01T13:12:26.805Z</time></trkpt><trkpt lat="38.6344869" lon="20.6280413"><ele>81.0</ele><time>2026-05-01T13:12:27.805Z</time></trkpt><trkpt lat="38.6344783" lon="20.6282247"><ele>86.0</ele><time>2026-05-01T13:12:28.805Z</time></trkpt><trkpt lat="38.6345134" lon="20.6284235"><ele>86.0</ele><time>2026-05-01T13:12:29.805Z</time></trkpt><trkpt lat="38.6345693" lon="20.6286096"><ele>86.0</ele><time>2026-05-01T13:12:30.805Z</time></trkpt><trkpt lat="38.6346628" lon="20.6287934"><ele>86.0</ele><time>2026-05-01T13:12:31.804Z</time></trkpt><trkpt lat="38.6347813" lon="20.6289781"><ele>87.66666666666667</ele><time>2026-05-01T13:12:32.803Z</time></trkpt><trkpt lat="38.6349077" lon="20.6291605"><ele>89.33333333333333</ele><time>2026-05-01T13:12:33.804Z</time></trkpt><trkpt lat="38.6350447" lon="20.6293382"><ele>91.0</ele><time>2026-05-01T13:12:34.805Z</time></trkpt><trkpt lat="38.6351773" lon="20.6295127"><ele>92.66666666666666</ele><time>2026-05-01T13:12:35.805Z</time></trkpt><trkpt lat="38.6353036" lon="20.6296784"><ele>94.33333333333333</ele><time>2026-05-01T13:12:36.805Z</time></trkpt><trkpt lat="38.6354136" lon="20.6298466"><ele>96.0</ele><time>2026-05-01T13:12:37.806Z</time></trkpt><trkpt lat="38.6355096" lon="20.6300239"><ele>96.66666666666666</ele><time>2026-05-01T13:12:38.806Z</time></trkpt><trkpt lat="38.6355817" lon="20.6302119"><ele>97.33333333333333</ele><time>2026-05-01T13:12:39.807Z</time></trkpt><trkpt lat="38.6356226" lon="20.6304059"><ele>98.0</ele><time>2026-05-01T13:12:40.805Z</time></trkpt><trkpt lat="38.6356321" lon="20.6306007"><ele>98.5</ele><time>2026-05-01T13:12:41.805Z</time></trkpt><trkpt lat="38.6355842" lon="20.6307533"><ele>99.0</ele><time>2026-05-01T13:12:42.806Z</time></trkpt><trkpt lat="38.6355164" lon="20.6308955"><ele>99.5</ele><time>2026-05-01T13:12:43.806Z</time></trkpt><trkpt lat="38.6354039" lon="20.6309821"><ele>100.0</ele><time>2026-05-01T13:12:44.806Z</time></trkpt><trkpt lat="38.6352751" lon="20.6310386"><ele>101.25</ele><time>2026-05-01T13:12:45.807Z</time></trkpt><trkpt lat="38.6351295" lon="20.6310473"><ele>102.5</ele><time>2026-05-01T13:12:46.807Z</time></trkpt><trkpt lat="38.6349928" lon="20.6310134"><ele>103.75</ele><time>2026-05-01T13:12:47.807Z</time></trkpt><trkpt lat="38.6348515" lon="20.6309505"><ele>105.0</ele><time>2026-05-01T13:12:48.806Z</time></trkpt><trkpt lat="38.6347121" lon="20.6307834"><ele>105.0</ele><time>2026-05-01T13:12:49.806Z</time></trkpt><trkpt lat="38.6345854" lon="20.6306075"><ele>105.0</ele><time>2026-05-01T13:12:50.807Z</time></trkpt><trkpt lat="38.6344571" lon="20.6303928"><ele>105.0</ele><time>2026-05-01T13:12:51.805Z</time></trkpt><trkpt lat="38.6343228" lon="20.63015"><ele>106.5</ele><time>2026-05-01T13:12:52.806Z</time></trkpt><trkpt lat="38.6341993" lon="20.6298868"><ele>108.0</ele><time>2026-05-01T13:12:53.806Z</time></trkpt><trkpt lat="38.6340729" lon="20.6296472"><ele>106.33333333333334</ele><time>2026-05-01T13:12:54.805Z</time></trkpt><trkpt lat="38.6339607" lon="20.6294137"><ele>104.66666666666667</ele><time>2026-05-01T13:12:55.804Z</time></trkpt><trkpt lat="38.63386" lon="20.6292044"><ele>103.0</ele><time>2026-05-01T13:12:56.804Z</time></trkpt><trkpt lat="38.6337666" lon="20.628998"><ele>103.0</ele><time>2026-05-01T13:12:57.807Z</time></trkpt><trkpt lat="38.6336736" lon="20.6288053"><ele>103.0</ele><time>2026-05-01T13:12:58.807Z</time></trkpt><trkpt lat="38.6335714" lon="20.6286121"><ele>103.0</ele><time>2026-05-01T13:12:59.806Z</time></trkpt><trkpt lat="38.633478" lon="20.6284158"><ele>109.0</ele><time>2026-05-01T13:13:00.804Z</time></trkpt><trkpt lat="38.6333871" lon="20.62822"><ele>115.0</ele><time>2026-05-01T13:13:01.805Z</time></trkpt><trkpt lat="38.6332922" lon="20.6280253"><ele>121.0</ele><time>2026-05-01T13:13:02.804Z</time></trkpt><trkpt lat="38.6331982" lon="20.6278386"><ele>120.0</ele><time>2026-05-01T13:13:03.804Z</time></trkpt><trkpt lat="38.6331099" lon="20.6276495"><ele>119.0</ele><time>2026-05-01T13:13:04.804Z</time></trkpt><trkpt lat="38.6330178" lon="20.6274631"><ele>118.0</ele><time>2026-05-01T13:13:05.804Z</time></trkpt><trkpt lat="38.6329161" lon="20.6272813"><ele>118.0</ele><time>2026-05-01T13:13:06.805Z</time></trkpt><trkpt lat="38.6328189" lon="20.6271021"><ele>118.0</ele><time>2026-05-01T13:13:07.806Z</time></trkpt><trkpt lat="38.6327143" lon="20.6269205"><ele>118.0</ele><time>2026-05-01T13:13:08.804Z</time></trkpt><trkpt lat="38.632608" lon="20.6267384"><ele>123.66666666666667</ele><time>2026-05-01T13:13:09.804Z</time></trkpt><trkpt lat="38.6324956" lon="20.6265521"><ele>129.33333333333334</ele><time>2026-05-01T13:13:10.805Z</time></trkpt><trkpt lat="38.6323847" lon="20.6263753"><ele>135.0</ele><time>2026-05-01T13:13:11.807Z</time></trkpt><trkpt lat="38.6322777" lon="20.6262031"><ele>135.66666666666666</ele><time>2026-05-01T13:13:12.805Z</time></trkpt><trkpt lat="38.6321643" lon="20.6260325"><ele>136.33333333333331</ele><time>2026-05-01T13:13:13.807Z</time></trkpt><trkpt lat="38.6320563" lon="20.6258736"><ele>137.0</ele><time>2026-05-01T13:13:14.805Z</time></trkpt><trkpt lat="38.6319382" lon="20.6257333"><ele>137.0</ele><time>2026-05-01T13:13:15.806Z</time></trkpt><trkpt lat="38.6318204" lon="20.6256094"><ele>137.0</ele><time>2026-05-01T13:13:16.807Z</time></trkpt><trkpt lat="38.6316987" lon="20.6255106"><ele>137.0</ele><time>2026-05-01T13:13:17.806Z</time></trkpt><trkpt lat="38.6315599" lon="20.6254404"><ele>137.0</ele><time>2026-05-01T13:13:18.804Z</time></trkpt><trkpt lat="38.631394" lon="20.6254175"><ele>137.0</ele><time>2026-05-01T13:13:19.807Z</time></trkpt><trkpt lat="38.6312304" lon="20.6254069"><ele>137.0</ele><time>2026-05-01T13:13:20.807Z</time></trkpt><trkpt lat="38.6310734" lon="20.6254141"><ele>137.0</ele><time>2026-05-01T13:13:21.806Z</time></trkpt><trkpt lat="38.6309204" lon="20.6254434"><ele>135.0</ele><time>2026-05-01T13:13:22.807Z</time></trkpt><trkpt lat="38.6307663" lon="20.6254926"><ele>133.0</ele><time>2026-05-01T13:13:23.806Z</time></trkpt><trkpt lat="38.6306106" lon="20.6255605"><ele>131.0</ele><time>2026-05-01T13:13:24.806Z</time></trkpt><trkpt lat="38.630466" lon="20.6256308"><ele>131.0</ele><time>2026-05-01T13:13:25.805Z</time></trkpt><trkpt lat="38.6303269" lon="20.625702"><ele>131.0</ele><time>2026-05-01T13:13:26.806Z</time></trkpt><trkpt lat="38.6301898" lon="20.6257599"><ele>131.0</ele><time>2026-05-01T13:13:27.806Z</time></trkpt><trkpt lat="38.6300433" lon="20.6258112"><ele>131.0</ele><time>2026-05-01T13:13:28.807Z</time></trkpt><trkpt lat="38.6298944" lon="20.6258399"><ele>128.33333333333331</ele><time>2026-05-01T13:13:29.807Z</time></trkpt><trkpt lat="38.6297408" lon="20.6258427"><ele>125.66666666666666</ele><time>2026-05-01T13:13:30.807Z</time></trkpt><trkpt lat="38.6295821" lon="20.6258586"><ele>123.0</ele><time>2026-05-01T13:13:31.806Z</time></trkpt><trkpt lat="38.6294373" lon="20.6258398"><ele>121.75</ele><time>2026-05-01T13:13:32.806Z</time></trkpt><trkpt lat="38.6292955" lon="20.6258282"><ele>120.5</ele><time>2026-05-01T13:13:33.807Z</time></trkpt><trkpt lat="38.6291673" lon="20.6258192"><ele>119.25</ele><time>2026-05-01T13:13:34.805Z</time></trkpt><trkpt lat="38.6290635" lon="20.6258104"><ele>118.0</ele><time>2026-05-01T13:13:35.807Z</time></trkpt><trkpt lat="38.6289602" lon="20.6258243"><ele>118.0</ele><time>2026-05-01T13:13:36.804Z</time></trkpt><trkpt lat="38.628862" lon="20.6258689"><ele>118.0</ele><time>2026-05-01T13:13:37.806Z</time></trkpt><trkpt lat="38.6287719" lon="20.6259623"><ele>118.0</ele><time>2026-05-01T13:13:38.807Z</time></trkpt><trkpt lat="38.6286863" lon="20.6260782"><ele>118.0</ele><time>2026-05-01T13:13:39.807Z</time></trkpt><trkpt lat="38.6286018" lon="20.6262195"><ele>116.66666666666667</ele><time>2026-05-01T13:13:40.804Z</time></trkpt><trkpt lat="38.6285075" lon="20.6263661"><ele>115.33333333333334</ele><time>2026-05-01T13:13:41.806Z</time></trkpt><trkpt lat="38.6284081" lon="20.626515"><ele>114.0</ele><time>2026-05-01T13:13:42.806Z</time></trkpt><trkpt lat="38.6283032" lon="20.6266726"><ele>114.0</ele><time>2026-05-01T13:13:43.806Z</time></trkpt><trkpt lat="38.6282009" lon="20.626846"><ele>114.0</ele><time>2026-05-01T13:13:44.806Z</time></trkpt><trkpt lat="38.6281014" lon="20.626994"><ele>114.0</ele><time>2026-05-01T13:13:45.806Z</time></trkpt><trkpt lat="38.6280155" lon="20.6271411"><ele>113.0</ele><time>2026-05-01T13:13:46.806Z</time></trkpt><trkpt lat="38.6279479" lon="20.6272963"><ele>112.0</ele><time>2026-05-01T13:13:47.804Z</time></trkpt><trkpt lat="38.627897" lon="20.6274644"><ele>111.0</ele><time>2026-05-01T13:13:48.806Z</time></trkpt><trkpt lat="38.6278682" lon="20.6276505"><ele>110.0</ele><time>2026-05-01T13:13:49.804Z</time></trkpt><trkpt lat="38.6278563" lon="20.627833"><ele>109.66666666666666</ele><time>2026-05-01T13:13:50.805Z</time></trkpt><trkpt lat="38.6278508" lon="20.6280241"><ele>109.33333333333334</ele><time>2026-05-01T13:13:51.804Z</time></trkpt><trkpt lat="38.6278489" lon="20.628218"><ele>109.0</ele><time>2026-05-01T13:13:52.806Z</time></trkpt><trkpt lat="38.6278601" lon="20.6284123"><ele>109.0</ele><time>2026-05-01T13:13:53.806Z</time></trkpt><trkpt lat="38.6278712" lon="20.6286053"><ele>109.0</ele><time>2026-05-01T13:13:54.806Z</time></trkpt><trkpt lat="38.6279029" lon="20.6287872"><ele>109.0</ele><time>2026-05-01T13:13:55.804Z</time></trkpt><trkpt lat="38.6279574" lon="20.6289582"><ele>109.0</ele><time>2026-05-01T13:13:56.806Z</time></trkpt><trkpt lat="38.6280211" lon="20.6291276"><ele>109.0</ele><time>2026-05-01T13:13:57.804Z</time></trkpt><trkpt lat="38.6281097" lon="20.6292967"><ele>109.0</ele><time>2026-05-01T13:13:58.804Z</time></trkpt><trkpt lat="38.6282073" lon="20.6294573"><ele>109.0</ele><time>2026-05-01T13:13:59.805Z</time></trkpt><trkpt lat="38.6283146" lon="20.6296151"><ele>110.66666666666667</ele><time>2026-05-01T13:14:00.804Z</time></trkpt><trkpt lat="38.6284214" lon="20.6297734"><ele>112.33333333333334</ele><time>2026-05-01T13:14:01.803Z</time></trkpt><trkpt lat="38.6285247" lon="20.6299155"><ele>114.0</ele><time>2026-05-01T13:14:02.805Z</time></trkpt><trkpt lat="38.6286207" lon="20.6300474"><ele>111.75</ele><time>2026-05-01T13:14:03.805Z</time></trkpt><trkpt lat="38.6287184" lon="20.6301778"><ele>109.5</ele><time>2026-05-01T13:14:04.807Z</time></trkpt><trkpt lat="38.6288082" lon="20.6303182"><ele>107.25</ele><time>2026-05-01T13:14:05.806Z</time></trkpt><trkpt lat="38.6288971" lon="20.6304585"><ele>105.0</ele><time>2026-05-01T13:14:06.805Z</time></trkpt><trkpt lat="38.6289805" lon="20.6306091"><ele>105.0</ele><time>2026-05-01T13:14:07.807Z</time></trkpt><trkpt lat="38.6290639" lon="20.6307677"><ele>105.0</ele><time>2026-05-01T13:14:08.806Z</time></trkpt><trkpt lat="38.6291459" lon="20.6309368"><ele>105.0</ele><time>2026-05-01T13:14:09.807Z</time></trkpt><trkpt lat="38.6292427" lon="20.6311169"><ele>105.0</ele><time>2026-05-01T13:14:10.806Z</time></trkpt><trkpt lat="38.6293096" lon="20.6312907"><ele>105.0</ele><time>2026-05-01T13:14:11.807Z</time></trkpt><trkpt lat="38.6293718" lon="20.6314898"><ele>105.0</ele><time>2026-05-01T13:14:12.807Z</time></trkpt><trkpt lat="38.6294154" lon="20.6316884"><ele>105.0</ele><time>2026-05-01T13:14:13.807Z</time></trkpt><trkpt lat="38.6294488" lon="20.6319034"><ele>105.0</ele><time>2026-05-01T13:14:14.807Z</time></trkpt><trkpt lat="38.6294796" lon="20.6321159"><ele>105.0</ele><time>2026-05-01T13:14:15.807Z</time></trkpt><trkpt lat="38.6295029" lon="20.6323335"><ele>102.33333333333334</ele><time>2026-05-01T13:14:16.807Z</time></trkpt><trkpt lat="38.6295294" lon="20.6325419"><ele>99.66666666666667</ele><time>2026-05-01T13:14:17.807Z</time></trkpt><trkpt lat="38.6295508" lon="20.6327527"><ele>97.0</ele><time>2026-05-01T13:14:18.806Z</time></trkpt><trkpt lat="38.6295756" lon="20.6329665"><ele>96.66666666666667</ele><time>2026-05-01T13:14:19.806Z</time></trkpt><trkpt lat="38.6296048" lon="20.6331792"><ele>96.33333333333334</ele><time>2026-05-01T13:14:20.806Z</time></trkpt><trkpt lat="38.629633" lon="20.6333946"><ele>96.0</ele><time>2026-05-01T13:14:21.804Z</time></trkpt><trkpt lat="38.6296593" lon="20.6336148"><ele>95.66666666666667</ele><time>2026-05-01T13:14:22.807Z</time></trkpt><trkpt lat="38.6296863" lon="20.6338314"><ele>95.33333333333334</ele><time>2026-05-01T13:14:23.805Z</time></trkpt><trkpt lat="38.6297123" lon="20.6340512"><ele>95.0</ele><time>2026-05-01T13:14:24.807Z</time></trkpt><trkpt lat="38.6297394" lon="20.634272"><ele>95.33333333333334</ele><time>2026-05-01T13:14:25.807Z</time></trkpt><trkpt lat="38.6297523" lon="20.6344859"><ele>95.66666666666667</ele><time>2026-05-01T13:14:26.807Z</time></trkpt><trkpt lat="38.6297591" lon="20.6347049"><ele>96.0</ele><time>2026-05-01T13:14:27.806Z</time></trkpt><trkpt lat="38.6297476" lon="20.6349167"><ele>96.0</ele><time>2026-05-01T13:14:28.806Z</time></trkpt><trkpt lat="38.6297296" lon="20.6351336"><ele>96.0</ele><time>2026-05-01T13:14:29.806Z</time></trkpt><trkpt lat="38.6297057" lon="20.6353511"><ele>96.0</ele><time>2026-05-01T13:14:30.806Z</time></trkpt><trkpt lat="38.6297043" lon="20.6355732"><ele>95.66666666666667</ele><time>2026-05-01T13:14:31.805Z</time></trkpt><trkpt lat="38.6297179" lon="20.6357967"><ele>95.33333333333334</ele><time>2026-05-01T13:14:32.805Z</time></trkpt><trkpt lat="38.6297242" lon="20.6360051"><ele>95.0</ele><time>2026-05-01T13:14:33.805Z</time></trkpt><trkpt lat="38.6297481" lon="20.6362106"><ele>93.66666666666667</ele><time>2026-05-01T13:14:34.807Z</time></trkpt><trkpt lat="38.6297485" lon="20.6364053"><ele>92.33333333333333</ele><time>2026-05-01T13:14:35.807Z</time></trkpt><trkpt lat="38.6297394" lon="20.6365995"><ele>91.0</ele><time>2026-05-01T13:14:36.805Z</time></trkpt><trkpt lat="38.6297213" lon="20.6367942"><ele>91.0</ele><time>2026-05-01T13:14:37.807Z</time></trkpt><trkpt lat="38.629664" lon="20.6369691"><ele>91.0</ele><time>2026-05-01T13:14:38.807Z</time></trkpt><trkpt lat="38.6295895" lon="20.6371409"><ele>91.0</ele><time>2026-05-01T13:14:39.805Z</time></trkpt><trkpt lat="38.6295011" lon="20.6373111"><ele>90.0</ele><time>2026-05-01T13:14:40.804Z</time></trkpt><trkpt lat="38.6294032" lon="20.6374724"><ele>89.0</ele><time>2026-05-01T13:14:41.805Z</time></trkpt><trkpt lat="38.6293244" lon="20.6376361"><ele>88.0</ele><time>2026-05-01T13:14:42.806Z</time></trkpt><trkpt lat="38.6292669" lon="20.6378183"><ele>85.33333333333333</ele><time>2026-05-01T13:14:43.803Z</time></trkpt><trkpt lat="38.6292203" lon="20.6380158"><ele>82.66666666666667</ele><time>2026-05-01T13:14:44.806Z</time></trkpt><trkpt lat="38.6291823" lon="20.6382212"><ele>80.0</ele><time>2026-05-01T13:14:45.803Z</time></trkpt><trkpt lat="38.6291549" lon="20.6384341"><ele>79.33333333333334</ele><time>2026-05-01T13:14:46.804Z</time></trkpt><trkpt lat="38.6291396" lon="20.6386564"><ele>78.66666666666667</ele><time>2026-05-01T13:14:47.805Z</time></trkpt><trkpt lat="38.6291322" lon="20.6388765"><ele>78.0</ele><time>2026-05-01T13:14:48.805Z</time></trkpt><trkpt lat="38.6291349" lon="20.6391073"><ele>78.0</ele><time>2026-05-01T13:14:49.804Z</time></trkpt><trkpt lat="38.6291431" lon="20.6393406"><ele>78.0</ele><time>2026-05-01T13:14:50.805Z</time></trkpt><trkpt lat="38.6291633" lon="20.6395845"><ele>78.0</ele><time>2026-05-01T13:14:51.806Z</time></trkpt><trkpt lat="38.6291831" lon="20.6398229"><ele>77.66666666666667</ele><time>2026-05-01T13:14:52.804Z</time></trkpt><trkpt lat="38.6292054" lon="20.6400644"><ele>77.33333333333334</ele><time>2026-05-01T13:14:53.806Z</time></trkpt><trkpt lat="38.6292208" lon="20.6403054"><ele>77.0</ele><time>2026-05-01T13:14:54.806Z</time></trkpt><trkpt lat="38.6292365" lon="20.6405412"><ele>76.66666666666667</ele><time>2026-05-01T13:14:55.805Z</time></trkpt><trkpt lat="38.6292516" lon="20.6407746"><ele>76.33333333333333</ele><time>2026-05-01T13:14:56.806Z</time></trkpt><trkpt lat="38.6292598" lon="20.6409861"><ele>76.0</ele><time>2026-05-01T13:14:57.806Z</time></trkpt><trkpt lat="38.629257" lon="20.6411948"><ele>76.0</ele><time>2026-05-01T13:14:58.806Z</time></trkpt><trkpt lat="38.6292464" lon="20.6414033"><ele>76.0</ele><time>2026-05-01T13:14:59.806Z</time></trkpt><trkpt lat="38.629245" lon="20.6415841"><ele>76.0</ele><time>2026-05-01T13:15:00.805Z</time></trkpt><trkpt lat="38.6292483" lon="20.6417538"><ele>76.0</ele><time>2026-05-01T13:15:01.806Z</time></trkpt><trkpt lat="38.6292538" lon="20.6419146"><ele>76.75</ele><time>2026-05-01T13:15:02.805Z</time></trkpt><trkpt lat="38.6292601" lon="20.6420719"><ele>77.5</ele><time>2026-05-01T13:15:03.804Z</time></trkpt><trkpt lat="38.6292743" lon="20.6422368"><ele>78.25</ele><time>2026-05-01T13:15:04.805Z</time></trkpt><trkpt lat="38.6292977" lon="20.6424065"><ele>79.0</ele><time>2026-05-01T13:15:05.804Z</time></trkpt><trkpt lat="38.6293218" lon="20.6425723"><ele>79.0</ele><time>2026-05-01T13:15:06.805Z</time></trkpt><trkpt lat="38.6293522" lon="20.6427354"><ele>79.0</ele><time>2026-05-01T13:15:07.804Z</time></trkpt><trkpt lat="38.6293815" lon="20.642905"><ele>79.0</ele><time>2026-05-01T13:15:08.805Z</time></trkpt><trkpt lat="38.6294137" lon="20.64308"><ele>79.0</ele><time>2026-05-01T13:15:09.805Z</time></trkpt><trkpt lat="38.6294483" lon="20.6432565"><ele>82.0</ele><time>2026-05-01T13:15:10.804Z</time></trkpt><trkpt lat="38.6294862" lon="20.6434224"><ele>85.0</ele><time>2026-05-01T13:15:11.805Z</time></trkpt><trkpt lat="38.6295318" lon="20.6435843"><ele>88.0</ele><time>2026-05-01T13:15:12.807Z</time></trkpt><trkpt lat="38.6295831" lon="20.6437482"><ele>91.0</ele><time>2026-05-01T13:15:13.805Z</time></trkpt><trkpt lat="38.6296349" lon="20.6439144"><ele>91.0</ele><time>2026-05-01T13:15:14.805Z</time></trkpt><trkpt lat="38.6296764" lon="20.6440804"><ele>91.0</ele><time>2026-05-01T13:15:15.807Z</time></trkpt><trkpt lat="38.6297041" lon="20.6442573"><ele>91.0</ele><time>2026-05-01T13:15:16.807Z</time></trkpt><trkpt lat="38.6297214" lon="20.644442"><ele>91.0</ele><time>2026-05-01T13:15:17.804Z</time></trkpt><trkpt lat="38.6297203" lon="20.6446308"><ele>90.25</ele><time>2026-05-01T13:15:18.806Z</time></trkpt><trkpt lat="38.6297181" lon="20.6448192"><ele>89.5</ele><time>2026-05-01T13:15:19.806Z</time></trkpt><trkpt lat="38.6297235" lon="20.6450065"><ele>88.75</ele><time>2026-05-01T13:15:20.805Z</time></trkpt><trkpt lat="38.629731" lon="20.6452038"><ele>88.0</ele><time>2026-05-01T13:15:21.804Z</time></trkpt><trkpt lat="38.6297524" lon="20.6453966"><ele>86.66666666666666</ele><time>2026-05-01T13:15:22.805Z</time></trkpt><trkpt lat="38.6297762" lon="20.6455933"><ele>85.33333333333333</ele><time>2026-05-01T13:15:23.806Z</time></trkpt><trkpt lat="38.6297989" lon="20.645797"><ele>84.0</ele><time>2026-05-01T13:15:24.804Z</time></trkpt><trkpt lat="38.6298226" lon="20.6460041"><ele>83.33333333333333</ele><time>2026-05-01T13:15:25.805Z</time></trkpt><trkpt lat="38.629844" lon="20.6462017"><ele>82.66666666666666</ele><time>2026-05-01T13:15:26.804Z</time></trkpt><trkpt lat="38.6298598" lon="20.6464"><ele>82.0</ele><time>2026-05-01T13:15:27.805Z</time></trkpt><trkpt lat="38.6298813" lon="20.6465866"><ele>82.0</ele><time>2026-05-01T13:15:28.805Z</time></trkpt><trkpt lat="38.6299" lon="20.6467692"><ele>82.0</ele><time>2026-05-01T13:15:29.807Z</time></trkpt><trkpt lat="38.6299203" lon="20.6469444"><ele>82.0</ele><time>2026-05-01T13:15:30.806Z</time></trkpt><trkpt lat="38.6299376" lon="20.6471137"><ele>82.0</ele><time>2026-05-01T13:15:31.804Z</time></trkpt><trkpt lat="38.6299577" lon="20.6472829"><ele>81.5</ele><time>2026-05-01T13:15:32.805Z</time></trkpt><trkpt lat="38.6299735" lon="20.6474496"><ele>81.0</ele><time>2026-05-01T13:15:33.805Z</time></trkpt><trkpt lat="38.6299901" lon="20.6476114"><ele>80.5</ele><time>2026-05-01T13:15:34.803Z</time></trkpt><trkpt lat="38.6300121" lon="20.647781"><ele>80.0</ele><time>2026-05-01T13:15:35.805Z</time></trkpt><trkpt lat="38.6300211" lon="20.6479496"><ele>80.0</ele><time>2026-05-01T13:15:36.805Z</time></trkpt><trkpt lat="38.6300369" lon="20.6481269"><ele>80.0</ele><time>2026-05-01T13:15:37.805Z</time></trkpt><trkpt lat="38.6300504" lon="20.6483069"><ele>80.0</ele><time>2026-05-01T13:15:38.807Z</time></trkpt><trkpt lat="38.6300644" lon="20.6485034"><ele>80.0</ele><time>2026-05-01T13:15:39.806Z</time></trkpt><trkpt lat="38.630072" lon="20.6486944"><ele>80.0</ele><time>2026-05-01T13:15:40.806Z</time></trkpt><trkpt lat="38.6300814" lon="20.6488851"><ele>80.0</ele><time>2026-05-01T13:15:41.805Z</time></trkpt><trkpt lat="38.6300824" lon="20.6490541"><ele>80.0</ele><time>2026-05-01T13:15:42.807Z</time></trkpt><trkpt lat="38.6300901" lon="20.6492086"><ele>80.0</ele><time>2026-05-01T13:15:43.805Z</time></trkpt><trkpt lat="38.6301239" lon="20.6493461"><ele>80.0</ele><time>2026-05-01T13:15:44.804Z</time></trkpt><trkpt lat="38.630174" lon="20.6494309"><ele>80.0</ele><time>2026-05-01T13:15:45.806Z</time></trkpt><trkpt lat="38.6302442" lon="20.6494874"><ele>80.0</ele><time>2026-05-01T13:15:46.805Z</time></trkpt><trkpt lat="38.6303506" lon="20.6495356"><ele>80.0</ele><time>2026-05-01T13:15:47.804Z</time></trkpt><trkpt lat="38.630497" lon="20.6495642"><ele>80.0</ele><time>2026-05-01T13:15:48.805Z</time></trkpt><trkpt lat="38.6306359" lon="20.6495948"><ele>82.66666666666667</ele><time>2026-05-01T13:15:49.806Z</time></trkpt><trkpt lat="38.6307811" lon="20.6496328"><ele>85.33333333333333</ele><time>2026-05-01T13:15:50.805Z</time></trkpt><trkpt lat="38.6309358" lon="20.6496739"><ele>88.0</ele><time>2026-05-01T13:15:51.805Z</time></trkpt><trkpt lat="38.6310968" lon="20.6497142"><ele>88.33333333333333</ele><time>2026-05-01T13:15:52.804Z</time></trkpt><trkpt lat="38.6312531" lon="20.6497627"><ele>88.66666666666667</ele><time>2026-05-01T13:15:53.806Z</time></trkpt><trkpt lat="38.631394" lon="20.6498313"><ele>89.0</ele><time>2026-05-01T13:15:54.806Z</time></trkpt><trkpt lat="38.6315167" lon="20.6499325"><ele>89.0</ele><time>2026-05-01T13:15:55.806Z</time></trkpt><trkpt lat="38.6316225" lon="20.6500622"><ele>89.0</ele><time>2026-05-01T13:15:56.806Z</time></trkpt><trkpt lat="38.6317063" lon="20.650216"><ele>89.0</ele><time>2026-05-01T13:15:57.806Z</time></trkpt><trkpt lat="38.6317699" lon="20.6503988"><ele>89.0</ele><time>2026-05-01T13:15:58.805Z</time></trkpt><trkpt lat="38.6318063" lon="20.6505988"><ele>90.66666666666667</ele><time>2026-05-01T13:15:59.806Z</time></trkpt><trkpt lat="38.6318346" lon="20.6508031"><ele>92.33333333333333</ele><time>2026-05-01T13:16:00.804Z</time></trkpt><trkpt lat="38.6318834" lon="20.6510014"><ele>94.0</ele><time>2026-05-01T13:16:01.806Z</time></trkpt><trkpt lat="38.6319493" lon="20.6512088"><ele>94.0</ele><time>2026-05-01T13:16:02.805Z</time></trkpt><trkpt lat="38.6320272" lon="20.6514121"><ele>94.0</ele><time>2026-05-01T13:16:03.806Z</time></trkpt><trkpt lat="38.6321036" lon="20.6516109"><ele>94.0</ele><time>2026-05-01T13:16:04.804Z</time></trkpt><trkpt lat="38.6321855" lon="20.6518091"><ele>96.0</ele><time>2026-05-01T13:16:05.804Z</time></trkpt><trkpt lat="38.6322626" lon="20.6520036"><ele>98.0</ele><time>2026-05-01T13:16:06.807Z</time></trkpt><trkpt lat="38.632333" lon="20.6522189"><ele>100.0</ele><time>2026-05-01T13:16:07.807Z</time></trkpt><trkpt lat="38.6323864" lon="20.65245"><ele>100.0</ele><time>2026-05-01T13:16:08.806Z</time></trkpt><trkpt lat="38.6324362" lon="20.6527053"><ele>100.0</ele><time>2026-05-01T13:16:09.805Z</time></trkpt><trkpt lat="38.6324816" lon="20.6529464"><ele>100.0</ele><time>2026-05-01T13:16:10.806Z</time></trkpt><trkpt lat="38.6325201" lon="20.6531737"><ele>102.33333333333334</ele><time>2026-05-01T13:16:11.807Z</time></trkpt><trkpt lat="38.6325646" lon="20.6533898"><ele>104.66666666666666</ele><time>2026-05-01T13:16:12.806Z</time></trkpt><trkpt lat="38.6326245" lon="20.6536105"><ele>107.0</ele><time>2026-05-01T13:16:13.807Z</time></trkpt><trkpt lat="38.6326942" lon="20.65382"><ele>108.66666666666666</ele><time>2026-05-01T13:16:14.805Z</time></trkpt><trkpt lat="38.6327757" lon="20.6540258"><ele>110.33333333333334</ele><time>2026-05-01T13:16:15.805Z</time></trkpt><trkpt lat="38.6328552" lon="20.6542159"><ele>112.0</ele><time>2026-05-01T13:16:16.806Z</time></trkpt><trkpt lat="38.632938" lon="20.6543794"><ele>115.0</ele><time>2026-05-01T13:16:17.805Z</time></trkpt><trkpt lat="38.6330288" lon="20.6545165"><ele>118.0</ele><time>2026-05-01T13:16:18.804Z</time></trkpt><trkpt lat="38.6331476" lon="20.6546334"><ele>121.0</ele><time>2026-05-01T13:16:19.805Z</time></trkpt><trkpt lat="38.6332828" lon="20.6547397"><ele>124.0</ele><time>2026-05-01T13:16:20.806Z</time></trkpt><trkpt lat="38.6334299" lon="20.6548323"><ele>124.0</ele><time>2026-05-01T13:16:21.805Z</time></trkpt><trkpt lat="38.6335763" lon="20.6549232"><ele>124.0</ele><time>2026-05-01T13:16:22.806Z</time></trkpt><trkpt lat="38.6337239" lon="20.6550153"><ele>124.0</ele><time>2026-05-01T13:16:23.806Z</time></trkpt><trkpt lat="38.6338613" lon="20.6551103"><ele>123.0</ele><time>2026-05-01T13:16:24.803Z</time></trkpt><trkpt lat="38.6339868" lon="20.6552116"><ele>122.0</ele><time>2026-05-01T13:16:25.806Z</time></trkpt><trkpt lat="38.6341002" lon="20.6553342"><ele>121.0</ele><time>2026-05-01T13:16:26.806Z</time></trkpt><trkpt lat="38.6341993" lon="20.6554853"><ele>120.75</ele><time>2026-05-01T13:16:27.805Z</time></trkpt><trkpt lat="38.6342927" lon="20.6556539"><ele>120.5</ele><time>2026-05-01T13:16:28.805Z</time></trkpt><trkpt lat="38.6343753" lon="20.655812"><ele>120.25</ele><time>2026-05-01T13:16:29.805Z</time></trkpt><trkpt lat="38.6344418" lon="20.65596"><ele>120.0</ele><time>2026-05-01T13:16:30.805Z</time></trkpt><trkpt lat="38.6345058" lon="20.65611"><ele>119.0</ele><time>2026-05-01T13:16:31.806Z</time></trkpt><trkpt lat="38.6345163" lon="20.6562695"><ele>118.0</ele><time>2026-05-01T13:16:32.807Z</time></trkpt><trkpt lat="38.6345074" lon="20.6564403"><ele>117.0</ele><time>2026-05-01T13:16:33.806Z</time></trkpt><trkpt lat="38.6344602" lon="20.6565979"><ele>116.0</ele><time>2026-05-01T13:16:34.805Z</time></trkpt><trkpt lat="38.6343953" lon="20.6567618"><ele>118.0</ele><time>2026-05-01T13:16:35.805Z</time></trkpt><trkpt lat="38.6343213" lon="20.6569156"><ele>120.0</ele><time>2026-05-01T13:16:36.805Z</time></trkpt><trkpt lat="38.634239" lon="20.6570656"><ele>122.0</ele><time>2026-05-01T13:16:37.804Z</time></trkpt><trkpt lat="38.6341592" lon="20.6572236"><ele>124.0</ele><time>2026-05-01T13:16:38.803Z</time></trkpt><trkpt lat="38.6340903" lon="20.6573979"><ele>124.0</ele><time>2026-05-01T13:16:39.806Z</time></trkpt><trkpt lat="38.6340261" lon="20.6575792"><ele>124.0</ele><time>2026-05-01T13:16:40.804Z</time></trkpt><trkpt lat="38.633967" lon="20.657758"><ele>124.0</ele><time>2026-05-01T13:16:41.805Z</time></trkpt><trkpt lat="38.6339077" lon="20.6579258"><ele>121.25</ele><time>2026-05-01T13:16:42.805Z</time></trkpt><trkpt lat="38.6338468" lon="20.6580901"><ele>118.5</ele><time>2026-05-01T13:16:43.804Z</time></trkpt><trkpt lat="38.6337872" lon="20.6582458"><ele>115.75</ele><time>2026-05-01T13:16:44.805Z</time></trkpt><trkpt lat="38.6337228" lon="20.6584061"><ele>113.0</ele><time>2026-05-01T13:16:45.804Z</time></trkpt><trkpt lat="38.6336507" lon="20.6585637"><ele>117.0</ele><time>2026-05-01T13:16:46.806Z</time></trkpt><trkpt lat="38.6335699" lon="20.6587097"><ele>121.0</ele><time>2026-05-01T13:16:47.805Z</time></trkpt><trkpt lat="38.6334821" lon="20.6588507"><ele>125.0</ele><time>2026-05-01T13:16:48.807Z</time></trkpt><trkpt lat="38.6333807" lon="20.6589771"><ele>129.0</ele><time>2026-05-01T13:16:49.806Z</time></trkpt><trkpt lat="38.6332853" lon="20.6591076"><ele>129.0</ele><time>2026-05-01T13:16:50.807Z</time></trkpt><trkpt lat="38.6331907" lon="20.6592331"><ele>129.0</ele><time>2026-05-01T13:16:51.805Z</time></trkpt><trkpt lat="38.6330908" lon="20.6593561"><ele>129.0</ele><time>2026-05-01T13:16:52.807Z</time></trkpt><trkpt lat="38.632997" lon="20.659485"><ele>129.0</ele><time>2026-05-01T13:16:53.804Z</time></trkpt><trkpt lat="38.6329174" lon="20.6596236"><ele>126.0</ele><time>2026-05-01T13:16:54.805Z</time></trkpt><trkpt lat="38.6328511" lon="20.6597697"><ele>123.0</ele><time>2026-05-01T13:16:55.805Z</time></trkpt><trkpt lat="38.6328089" lon="20.6599545"><ele>120.0</ele><time>2026-05-01T13:16:56.807Z</time></trkpt><trkpt lat="38.6327773" lon="20.6601516"><ele>117.0</ele><time>2026-05-01T13:16:57.804Z</time></trkpt><trkpt lat="38.6327735" lon="20.6604317"><ele>130.0</ele><time>2026-05-01T13:16:58.807Z</time></trkpt><trkpt lat="38.6327707" lon="20.6607049"><ele>143.0</ele><time>2026-05-01T13:16:59.807Z</time></trkpt><trkpt lat="38.6327733" lon="20.6609781"><ele>156.0</ele><time>2026-05-01T13:17:00.805Z</time></trkpt><trkpt lat="38.6327698" lon="20.6612558"><ele>156.66666666666666</ele><time>2026-05-01T13:17:01.806Z</time></trkpt><trkpt lat="38.6327706" lon="20.661516"><ele>157.33333333333331</ele><time>2026-05-01T13:17:02.802Z</time></trkpt><trkpt lat="38.6327686" lon="20.661778"><ele>158.0</ele><time>2026-05-01T13:17:03.806Z</time></trkpt><trkpt lat="38.6327641" lon="20.6620176"><ele>159.0</ele><time>2026-05-01T13:17:04.807Z</time></trkpt><trkpt lat="38.6327837" lon="20.6622604"><ele>160.0</ele><time>2026-05-01T13:17:05.807Z</time></trkpt><trkpt lat="38.6328171" lon="20.6624993"><ele>161.0</ele><time>2026-05-01T13:17:06.804Z</time></trkpt><trkpt lat="38.6328497" lon="20.662726"><ele>152.66666666666666</ele><time>2026-05-01T13:17:07.807Z</time></trkpt><trkpt lat="38.6328967" lon="20.6629472"><ele>144.33333333333334</ele><time>2026-05-01T13:17:08.807Z</time></trkpt><trkpt lat="38.632941" lon="20.6631622"><ele>136.0</ele><time>2026-05-01T13:17:09.806Z</time></trkpt><trkpt lat="38.6329872" lon="20.6633651"><ele>136.0</ele><time>2026-05-01T13:17:10.806Z</time></trkpt><trkpt lat="38.6330178" lon="20.6635651"><ele>136.0</ele><time>2026-05-01T13:17:11.804Z</time></trkpt><trkpt lat="38.6330413" lon="20.6637633"><ele>136.0</ele><time>2026-05-01T13:17:12.806Z</time></trkpt><trkpt lat="38.6330523" lon="20.6639517"><ele>139.66666666666669</ele><time>2026-05-01T13:17:13.807Z</time></trkpt><trkpt lat="38.63306" lon="20.6641716"><ele>143.33333333333334</ele><time>2026-05-01T13:17:14.806Z</time></trkpt><trkpt lat="38.6330511" lon="20.6644016"><ele>147.0</ele><time>2026-05-01T13:17:15.804Z</time></trkpt><trkpt lat="38.633034" lon="20.6646248"><ele>150.0</ele><time>2026-05-01T13:17:16.805Z</time></trkpt><trkpt lat="38.6330171" lon="20.66483"><ele>153.0</ele><time>2026-05-01T13:17:17.804Z</time></trkpt><trkpt lat="38.6330096" lon="20.6650369"><ele>156.0</ele><time>2026-05-01T13:17:18.804Z</time></trkpt><trkpt lat="38.6330147" lon="20.6652466"><ele>160.66666666666666</ele><time>2026-05-01T13:17:19.806Z</time></trkpt><trkpt lat="38.6330367" lon="20.6654546"><ele>165.33333333333331</ele><time>2026-05-01T13:17:20.806Z</time></trkpt><trkpt lat="38.633069" lon="20.6656736"><ele>170.0</ele><time>2026-05-01T13:17:21.804Z</time></trkpt><trkpt lat="38.6330853" lon="20.665889"><ele>170.0</ele><time>2026-05-01T13:17:22.807Z</time></trkpt><trkpt lat="38.633098" lon="20.6661098"><ele>170.0</ele><time>2026-05-01T13:17:23.807Z</time></trkpt><trkpt lat="38.6330804" lon="20.6663513"><ele>170.0</ele><time>2026-05-01T13:17:24.806Z</time></trkpt><trkpt lat="38.633037" lon="20.6665743"><ele>173.66666666666666</ele><time>2026-05-01T13:17:25.807Z</time></trkpt><trkpt lat="38.633007" lon="20.6668165"><ele>177.33333333333334</ele><time>2026-05-01T13:17:26.806Z</time></trkpt><trkpt lat="38.6329836" lon="20.6670578"><ele>181.0</ele><time>2026-05-01T13:17:27.806Z</time></trkpt><trkpt lat="38.6329661" lon="20.6673007"><ele>183.66666666666669</ele><time>2026-05-01T13:17:28.806Z</time></trkpt><trkpt lat="38.6329626" lon="20.6675453"><ele>186.33333333333334</ele><time>2026-05-01T13:17:29.807Z</time></trkpt><trkpt lat="38.6329581" lon="20.6677938"><ele>189.0</ele><time>2026-05-01T13:17:30.807Z</time></trkpt><trkpt lat="38.6329586" lon="20.6680496"><ele>189.33333333333334</ele><time>2026-05-01T13:17:31.806Z</time></trkpt><trkpt lat="38.6329552" lon="20.6683073"><ele>189.66666666666669</ele><time>2026-05-01T13:17:32.807Z</time></trkpt><trkpt lat="38.6329492" lon="20.6685639"><ele>190.0</ele><time>2026-05-01T13:17:33.805Z</time></trkpt><trkpt lat="38.632947" lon="20.6688166"><ele>190.33333333333334</ele><time>2026-05-01T13:17:34.807Z</time></trkpt><trkpt lat="38.6329497" lon="20.6690411"><ele>190.66666666666666</ele><time>2026-05-01T13:17:35.805Z</time></trkpt><trkpt lat="38.6329393" lon="20.6692556"><ele>191.0</ele><time>2026-05-01T13:17:36.807Z</time></trkpt><trkpt lat="38.6329231" lon="20.6694469"><ele>190.20000000000002</ele><time>2026-05-01T13:17:37.806Z</time></trkpt><trkpt lat="38.632913" lon="20.6696214"><ele>189.4</ele><time>2026-05-01T13:17:38.806Z</time></trkpt><trkpt lat="38.6329079" lon="20.6697652"><ele>188.6</ele><time>2026-05-01T13:17:39.807Z</time></trkpt><trkpt lat="38.6329285" lon="20.6698877"><ele>187.8</ele><time>2026-05-01T13:17:40.807Z</time></trkpt><trkpt lat="38.6329648" lon="20.6700103"><ele>187.0</ele><time>2026-05-01T13:17:41.805Z</time></trkpt><trkpt lat="38.6330236" lon="20.6701191"><ele>187.0</ele><time>2026-05-01T13:17:42.805Z</time></trkpt><trkpt lat="38.6331083" lon="20.6702306"><ele>187.0</ele><time>2026-05-01T13:17:43.806Z</time></trkpt><trkpt lat="38.633217" lon="20.6703529"><ele>187.0</ele><time>2026-05-01T13:17:44.806Z</time></trkpt><trkpt lat="38.6333381" lon="20.6704745"><ele>187.0</ele><time>2026-05-01T13:17:45.804Z</time></trkpt><trkpt lat="38.633481" lon="20.6705873"><ele>186.0</ele><time>2026-05-01T13:17:46.806Z</time></trkpt><trkpt lat="38.6336133" lon="20.6706994"><ele>185.0</ele><time>2026-05-01T13:17:47.804Z</time></trkpt><trkpt lat="38.633774" lon="20.6707859"><ele>184.0</ele><time>2026-05-01T13:17:48.805Z</time></trkpt><trkpt lat="38.6339504" lon="20.6708387"><ele>184.0</ele><time>2026-05-01T13:17:49.805Z</time></trkpt><trkpt lat="38.6341298" lon="20.6708612"><ele>184.0</ele><time>2026-05-01T13:17:50.804Z</time></trkpt><trkpt lat="38.6343145" lon="20.6708688"><ele>184.0</ele><time>2026-05-01T13:17:51.806Z</time></trkpt><trkpt lat="38.6344928" lon="20.6708784"><ele>186.0</ele><time>2026-05-01T13:17:52.807Z</time></trkpt><trkpt lat="38.6346551" lon="20.6709196"><ele>188.0</ele><time>2026-05-01T13:17:53.806Z</time></trkpt><trkpt lat="38.6348188" lon="20.670978"><ele>190.0</ele><time>2026-05-01T13:17:54.806Z</time></trkpt><trkpt lat="38.6349743" lon="20.671076"><ele>190.0</ele><time>2026-05-01T13:17:55.806Z</time></trkpt><trkpt lat="38.6351276" lon="20.6711931"><ele>190.0</ele><time>2026-05-01T13:17:56.804Z</time></trkpt><trkpt lat="38.6352879" lon="20.6713236"><ele>190.0</ele><time>2026-05-01T13:17:57.805Z</time></trkpt><trkpt lat="38.6354345" lon="20.6714912"><ele>191.66666666666669</ele><time>2026-05-01T13:17:58.807Z</time></trkpt><trkpt lat="38.6355904" lon="20.6716562"><ele>193.33333333333334</ele><time>2026-05-01T13:17:59.804Z</time></trkpt><trkpt lat="38.6357459" lon="20.6718357"><ele>195.0</ele><time>2026-05-01T13:18:00.807Z</time></trkpt><trkpt lat="38.6359083" lon="20.6720164"><ele>195.0</ele><time>2026-05-01T13:18:01.807Z</time></trkpt><trkpt lat="38.6360679" lon="20.6721951"><ele>195.0</ele><time>2026-05-01T13:18:02.807Z</time></trkpt><trkpt lat="38.6362274" lon="20.6723641"><ele>195.0</ele><time>2026-05-01T13:18:03.806Z</time></trkpt><trkpt lat="38.6363877" lon="20.6725328"><ele>196.33333333333331</ele><time>2026-05-01T13:18:04.804Z</time></trkpt><trkpt lat="38.6365436" lon="20.6727021"><ele>197.66666666666666</ele><time>2026-05-01T13:18:05.807Z</time></trkpt><trkpt lat="38.6366964" lon="20.6728632"><ele>199.0</ele><time>2026-05-01T13:18:06.804Z</time></trkpt><trkpt lat="38.6368475" lon="20.6730298"><ele>201.0</ele><time>2026-05-01T13:18:07.807Z</time></trkpt><trkpt lat="38.6369929" lon="20.6731887"><ele>203.0</ele><time>2026-05-01T13:18:08.806Z</time></trkpt><trkpt lat="38.6371352" lon="20.6733479"><ele>205.0</ele><time>2026-05-01T13:18:09.807Z</time></trkpt><trkpt lat="38.6372733" lon="20.6734967"><ele>203.66666666666666</ele><time>2026-05-01T13:18:10.805Z</time></trkpt><trkpt lat="38.6374124" lon="20.6736497"><ele>202.33333333333331</ele><time>2026-05-01T13:18:11.806Z</time></trkpt><trkpt lat="38.6375602" lon="20.6738085"><ele>201.0</ele><time>2026-05-01T13:18:12.807Z</time></trkpt><trkpt lat="38.6376904" lon="20.6739717"><ele>201.66666666666669</ele><time>2026-05-01T13:18:13.805Z</time></trkpt><trkpt lat="38.6378308" lon="20.6741272"><ele>202.33333333333334</ele><time>2026-05-01T13:18:14.805Z</time></trkpt><trkpt lat="38.6379695" lon="20.674283"><ele>203.0</ele><time>2026-05-01T13:18:15.805Z</time></trkpt><trkpt lat="38.6381028" lon="20.6744318"><ele>201.66666666666669</ele><time>2026-05-01T13:18:16.807Z</time></trkpt><trkpt lat="38.6382316" lon="20.674576"><ele>200.33333333333331</ele><time>2026-05-01T13:18:17.804Z</time></trkpt><trkpt lat="38.638359" lon="20.6747052"><ele>199.0</ele><time>2026-05-01T13:18:18.807Z</time></trkpt><trkpt lat="38.6384951" lon="20.6748232"><ele>199.0</ele><time>2026-05-01T13:18:19.807Z</time></trkpt><trkpt lat="38.6386469" lon="20.6749084"><ele>199.0</ele><time>2026-05-01T13:18:20.806Z</time></trkpt><trkpt lat="38.6388204" lon="20.674978"><ele>199.0</ele><time>2026-05-01T13:18:21.804Z</time></trkpt><trkpt lat="38.6390178" lon="20.6750272"><ele>199.0</ele><time>2026-05-01T13:18:22.806Z</time></trkpt><trkpt lat="38.6392585" lon="20.6750533"><ele>199.0</ele><time>2026-05-01T13:18:23.807Z</time></trkpt><trkpt lat="38.6394948" lon="20.6750758"><ele>199.5</ele><time>2026-05-01T13:18:24.806Z</time></trkpt><trkpt lat="38.6397266" lon="20.6750986"><ele>200.0</ele><time>2026-05-01T13:18:25.807Z</time></trkpt><trkpt lat="38.6399675" lon="20.6751017"><ele>200.0</ele><time>2026-05-01T13:18:26.805Z</time></trkpt><trkpt lat="38.6402206" lon="20.6751001"><ele>200.0</ele><time>2026-05-01T13:18:27.807Z</time></trkpt><trkpt lat="38.6404629" lon="20.6751109"><ele>202.0</ele><time>2026-05-01T13:18:28.807Z</time></trkpt><trkpt lat="38.6406864" lon="20.6751378"><ele>204.0</ele><time>2026-05-01T13:18:29.804Z</time></trkpt><trkpt lat="38.6408911" lon="20.6751685"><ele>206.0</ele><time>2026-05-01T13:18:30.805Z</time></trkpt><trkpt lat="38.6410845" lon="20.6751909"><ele>207.33333333333334</ele><time>2026-05-01T13:18:31.806Z</time></trkpt><trkpt lat="38.6412673" lon="20.6752084"><ele>208.66666666666669</ele><time>2026-05-01T13:18:32.807Z</time></trkpt><trkpt lat="38.6414418" lon="20.6752219"><ele>210.0</ele><time>2026-05-01T13:18:33.807Z</time></trkpt><trkpt lat="38.6416156" lon="20.6752361"><ele>210.0</ele><time>2026-05-01T13:18:34.807Z</time></trkpt><trkpt lat="38.6417808" lon="20.6752587"><ele>210.0</ele><time>2026-05-01T13:18:35.806Z</time></trkpt><trkpt lat="38.6419399" lon="20.6752877"><ele>210.0</ele><time>2026-05-01T13:18:36.806Z</time></trkpt><trkpt lat="38.6421002" lon="20.6753354"><ele>207.66666666666669</ele><time>2026-05-01T13:18:37.806Z</time></trkpt><trkpt lat="38.6422642" lon="20.6754064"><ele>205.33333333333334</ele><time>2026-05-01T13:18:38.805Z</time></trkpt><trkpt lat="38.6424404" lon="20.6754915"><ele>203.0</ele><time>2026-05-01T13:18:39.806Z</time></trkpt><trkpt lat="38.6426168" lon="20.6755925"><ele>203.0</ele><time>2026-05-01T13:18:40.806Z</time></trkpt><trkpt lat="38.642788" lon="20.6756967"><ele>203.0</ele><time>2026-05-01T13:18:41.805Z</time></trkpt><trkpt lat="38.6429576" lon="20.6758003"><ele>203.0</ele><time>2026-05-01T13:18:42.806Z</time></trkpt><trkpt lat="38.6431248" lon="20.6759006"><ele>203.66666666666669</ele><time>2026-05-01T13:18:43.807Z</time></trkpt><trkpt lat="38.6432884" lon="20.6759994"><ele>204.33333333333331</ele><time>2026-05-01T13:18:44.806Z</time></trkpt><trkpt lat="38.6434605" lon="20.6760812"><ele>205.0</ele><time>2026-05-01T13:18:45.807Z</time></trkpt><trkpt lat="38.6436345" lon="20.6761497"><ele>205.0</ele><time>2026-05-01T13:18:46.804Z</time></trkpt><trkpt lat="38.6438159" lon="20.6762131"><ele>205.0</ele><time>2026-05-01T13:18:47.807Z</time></trkpt><trkpt lat="38.6439837" lon="20.6762773"><ele>205.0</ele><time>2026-05-01T13:18:48.806Z</time></trkpt><trkpt lat="38.6441342" lon="20.6763547"><ele>205.0</ele><time>2026-05-01T13:18:49.807Z</time></trkpt><trkpt lat="38.6442758" lon="20.6764266"><ele>205.0</ele><time>2026-05-01T13:18:50.805Z</time></trkpt><trkpt lat="38.6444257" lon="20.6764779"><ele>205.0</ele><time>2026-05-01T13:18:51.806Z</time></trkpt><trkpt lat="38.6445878" lon="20.676504"><ele>209.0</ele><time>2026-05-01T13:18:52.806Z</time></trkpt><trkpt lat="38.6447689" lon="20.6764973"><ele>213.0</ele><time>2026-05-01T13:18:53.806Z</time></trkpt><trkpt lat="38.6449406" lon="20.6764889"><ele>217.0</ele><time>2026-05-01T13:18:54.804Z</time></trkpt><trkpt lat="38.6451343" lon="20.6764926"><ele>219.33333333333331</ele><time>2026-05-01T13:18:55.805Z</time></trkpt><trkpt lat="38.6453353" lon="20.6765342"><ele>221.66666666666669</ele><time>2026-05-01T13:18:56.805Z</time></trkpt><trkpt lat="38.6455224" lon="20.6765871"><ele>224.0</ele><time>2026-05-01T13:18:57.807Z</time></trkpt><trkpt lat="38.645695" lon="20.6766265"><ele>224.0</ele><time>2026-05-01T13:18:58.806Z</time></trkpt><trkpt lat="38.6458583" lon="20.6766666"><ele>224.0</ele><time>2026-05-01T13:18:59.806Z</time></trkpt><trkpt lat="38.6460154" lon="20.6767058"><ele>224.0</ele><time>2026-05-01T13:19:00.804Z</time></trkpt><trkpt lat="38.6461774" lon="20.6767341"><ele>226.66666666666669</ele><time>2026-05-01T13:19:01.804Z</time></trkpt><trkpt lat="38.6463425" lon="20.6767429"><ele>229.33333333333331</ele><time>2026-05-01T13:19:02.806Z</time></trkpt><trkpt lat="38.6465043" lon="20.6767472"><ele>232.0</ele><time>2026-05-01T13:19:03.807Z</time></trkpt><trkpt lat="38.6466667" lon="20.67675"><ele>232.0</ele><time>2026-05-01T13:19:04.807Z</time></trkpt><trkpt lat="38.6468265" lon="20.6767578"><ele>232.0</ele><time>2026-05-01T13:19:05.806Z</time></trkpt><trkpt lat="38.6469845" lon="20.6767743"><ele>232.0</ele><time>2026-05-01T13:19:06.806Z</time></trkpt><trkpt lat="38.6471235" lon="20.6767923"><ele>232.25</ele><time>2026-05-01T13:19:07.806Z</time></trkpt><trkpt lat="38.6472629" lon="20.6768137"><ele>232.5</ele><time>2026-05-01T13:19:08.807Z</time></trkpt><trkpt lat="38.6473918" lon="20.6768228"><ele>232.75</ele><time>2026-05-01T13:19:09.807Z</time></trkpt><trkpt lat="38.6475289" lon="20.6768023"><ele>233.0</ele><time>2026-05-01T13:19:10.805Z</time></trkpt><trkpt lat="38.6476601" lon="20.676747"><ele>233.0</ele><time>2026-05-01T13:19:11.804Z</time></trkpt><trkpt lat="38.6477875" lon="20.6766658"><ele>233.0</ele><time>2026-05-01T13:19:12.807Z</time></trkpt><trkpt lat="38.6479025" lon="20.6765642"><ele>233.0</ele><time>2026-05-01T13:19:13.807Z</time></trkpt><trkpt lat="38.6480121" lon="20.6764577"><ele>233.0</ele><time>2026-05-01T13:19:14.807Z</time></trkpt><trkpt lat="38.6481221" lon="20.6763749"><ele>232.0</ele><time>2026-05-01T13:19:15.804Z</time></trkpt><trkpt lat="38.648245" lon="20.6763297"><ele>231.0</ele><time>2026-05-01T13:19:16.807Z</time></trkpt><trkpt lat="38.6483768" lon="20.6763299"><ele>230.0</ele><time>2026-05-01T13:19:17.806Z</time></trkpt><trkpt lat="38.6485144" lon="20.676359"><ele>229.0</ele><time>2026-05-01T13:19:18.803Z</time></trkpt><trkpt lat="38.6486596" lon="20.6763572"><ele>229.0</ele><time>2026-05-01T13:19:19.807Z</time></trkpt><trkpt lat="38.6488039" lon="20.6763276"><ele>229.0</ele><time>2026-05-01T13:19:20.806Z</time></trkpt><trkpt lat="38.648945" lon="20.6762989"><ele>229.0</ele><time>2026-05-01T13:19:21.806Z</time></trkpt><trkpt lat="38.6490796" lon="20.6762542"><ele>229.0</ele><time>2026-05-01T13:19:22.806Z</time></trkpt><trkpt lat="38.6492135" lon="20.6762107"><ele>229.0</ele><time>2026-05-01T13:19:23.805Z</time></trkpt><trkpt lat="38.6493408" lon="20.6761784"><ele>229.0</ele><time>2026-05-01T13:19:24.807Z</time></trkpt><trkpt lat="38.6494645" lon="20.6761625"><ele>229.0</ele><time>2026-05-01T13:19:25.807Z</time></trkpt><trkpt lat="38.6495733" lon="20.6761741"><ele>229.0</ele><time>2026-05-01T13:19:26.806Z</time></trkpt><trkpt lat="38.6496606" lon="20.6762143"><ele>231.0</ele><time>2026-05-01T13:19:27.807Z</time></trkpt><trkpt lat="38.6497416" lon="20.6762975"><ele>232.99999999999997</ele><time>2026-05-01T13:19:28.807Z</time></trkpt><trkpt lat="38.6497699" lon="20.6763939"><ele>234.99999999999997</ele><time>2026-05-01T13:19:29.806Z</time></trkpt><trkpt lat="38.6497587" lon="20.6764926"><ele>237.0</ele><time>2026-05-01T13:19:30.804Z</time></trkpt><trkpt lat="38.6497037" lon="20.6765815"><ele>239.0</ele><time>2026-05-01T13:19:31.806Z</time></trkpt><trkpt lat="38.649625" lon="20.6766683"><ele>239.0</ele><time>2026-05-01T13:19:32.806Z</time></trkpt><trkpt lat="38.649534" lon="20.6767856"><ele>239.0</ele><time>2026-05-01T13:19:33.805Z</time></trkpt><trkpt lat="38.6494518" lon="20.6769155"><ele>239.0</ele><time>2026-05-01T13:19:34.805Z</time></trkpt><trkpt lat="38.6493687" lon="20.6770773"><ele>239.0</ele><time>2026-05-01T13:19:35.804Z</time></trkpt><trkpt lat="38.6492884" lon="20.6772367"><ele>240.25</ele><time>2026-05-01T13:19:36.806Z</time></trkpt><trkpt lat="38.6492039" lon="20.6773887"><ele>241.5</ele><time>2026-05-01T13:19:37.806Z</time></trkpt><trkpt lat="38.6491206" lon="20.6775361"><ele>242.75</ele><time>2026-05-01T13:19:38.806Z</time></trkpt><trkpt lat="38.6490322" lon="20.6776905"><ele>244.0</ele><time>2026-05-01T13:19:39.805Z</time></trkpt><trkpt lat="38.6489447" lon="20.6778274"><ele>244.0</ele><time>2026-05-01T13:19:40.806Z</time></trkpt><trkpt lat="38.6488517" lon="20.6779433"><ele>244.0</ele><time>2026-05-01T13:19:41.806Z</time></trkpt><trkpt lat="38.6487626" lon="20.6780617"><ele>244.0</ele><time>2026-05-01T13:19:42.804Z</time></trkpt><trkpt lat="38.6486774" lon="20.6781963"><ele>244.0</ele><time>2026-05-01T13:19:43.807Z</time></trkpt><trkpt lat="38.6486141" lon="20.6783412"><ele>241.75</ele><time>2026-05-01T13:19:44.806Z</time></trkpt><trkpt lat="38.6485628" lon="20.6784993"><ele>239.5</ele><time>2026-05-01T13:19:45.807Z</time></trkpt><trkpt lat="38.6485262" lon="20.678653"><ele>237.25</ele><time>2026-05-01T13:19:46.806Z</time></trkpt><trkpt lat="38.6485064" lon="20.6788198"><ele>235.0</ele><time>2026-05-01T13:19:47.805Z</time></trkpt><trkpt lat="38.6484919" lon="20.6789867"><ele>235.0</ele><time>2026-05-01T13:19:48.806Z</time></trkpt><trkpt lat="38.6484897" lon="20.6791374"><ele>235.0</ele><time>2026-05-01T13:19:49.805Z</time></trkpt><trkpt lat="38.6485037" lon="20.6792896"><ele>235.0</ele><time>2026-05-01T13:19:50.805Z</time></trkpt><trkpt lat="38.6485378" lon="20.6794446"><ele>235.0</ele><time>2026-05-01T13:19:51.804Z</time></trkpt><trkpt lat="38.6485776" lon="20.6795948"><ele>238.25</ele><time>2026-05-01T13:19:52.804Z</time></trkpt><trkpt lat="38.6486309" lon="20.6797351"><ele>241.5</ele><time>2026-05-01T13:19:53.804Z</time></trkpt><trkpt lat="38.6486867" lon="20.6798838"><ele>244.75</ele><time>2026-05-01T13:19:54.807Z</time></trkpt><trkpt lat="38.6487581" lon="20.6800388"><ele>248.0</ele><time>2026-05-01T13:19:55.805Z</time></trkpt><trkpt lat="38.6488428" lon="20.6802154"><ele>247.75</ele><time>2026-05-01T13:19:56.805Z</time></trkpt><trkpt lat="38.6489129" lon="20.6803969"><ele>247.5</ele><time>2026-05-01T13:19:57.804Z</time></trkpt><trkpt lat="38.6489847" lon="20.6805585"><ele>247.25</ele><time>2026-05-01T13:19:58.806Z</time></trkpt><trkpt lat="38.6490542" lon="20.6807121"><ele>247.0</ele><time>2026-05-01T13:19:59.807Z</time></trkpt><trkpt lat="38.6491241" lon="20.6808605"><ele>247.0</ele><time>2026-05-01T13:20:00.804Z</time></trkpt><trkpt lat="38.6491958" lon="20.6809979"><ele>247.0</ele><time>2026-05-01T13:20:01.803Z</time></trkpt><trkpt lat="38.6492732" lon="20.6810955"><ele>247.0</ele><time>2026-05-01T13:20:02.806Z</time></trkpt><trkpt lat="38.6493528" lon="20.681171"><ele>247.0</ele><time>2026-05-01T13:20:03.806Z</time></trkpt><trkpt lat="38.6494453" lon="20.6812053"><ele>247.0</ele><time>2026-05-01T13:20:04.805Z</time></trkpt><trkpt lat="38.6495504" lon="20.6812101"><ele>249.0</ele><time>2026-05-01T13:20:05.805Z</time></trkpt><trkpt lat="38.6496692" lon="20.6811762"><ele>251.0</ele><time>2026-05-01T13:20:06.806Z</time></trkpt><trkpt lat="38.6497739" lon="20.681097"><ele>253.0</ele><time>2026-05-01T13:20:07.807Z</time></trkpt><trkpt lat="38.6498716" lon="20.6809759"><ele>255.0</ele><time>2026-05-01T13:20:08.806Z</time></trkpt><trkpt lat="38.6499575" lon="20.6808235"><ele>255.25</ele><time>2026-05-01T13:20:09.806Z</time></trkpt><trkpt lat="38.6500342" lon="20.6806662"><ele>255.5</ele><time>2026-05-01T13:20:10.805Z</time></trkpt><trkpt lat="38.6501168" lon="20.6805108"><ele>255.75</ele><time>2026-05-01T13:20:11.806Z</time></trkpt><trkpt lat="38.6502031" lon="20.6803677"><ele>256.0</ele><time>2026-05-01T13:20:12.807Z</time></trkpt><trkpt lat="38.6503048" lon="20.6802543"><ele>257.0</ele><time>2026-05-01T13:20:13.804Z</time></trkpt><trkpt lat="38.6504172" lon="20.6802246"><ele>258.0</ele><time>2026-05-01T13:20:14.806Z</time></trkpt><trkpt lat="38.6505252" lon="20.6802137"><ele>259.0</ele><time>2026-05-01T13:20:15.807Z</time></trkpt><trkpt lat="38.6506288" lon="20.6802401"><ele>260.0</ele><time>2026-05-01T13:20:16.806Z</time></trkpt><trkpt lat="38.6507338" lon="20.6803053"><ele>261.0</ele><time>2026-05-01T13:20:17.807Z</time></trkpt><trkpt lat="38.650837" lon="20.6803939"><ele>261.0</ele><time>2026-05-01T13:20:18.806Z</time></trkpt><trkpt lat="38.6509386" lon="20.6804829"><ele>261.0</ele><time>2026-05-01T13:20:19.805Z</time></trkpt><trkpt lat="38.6510453" lon="20.6805818"><ele>261.0</ele><time>2026-05-01T13:20:20.805Z</time></trkpt><trkpt lat="38.6511586" lon="20.6806808"><ele>261.0</ele><time>2026-05-01T13:20:21.804Z</time></trkpt><trkpt lat="38.6512632" lon="20.6807919"><ele>262.0</ele><time>2026-05-01T13:20:22.805Z</time></trkpt><trkpt lat="38.6513599" lon="20.6808994"><ele>263.0</ele><time>2026-05-01T13:20:23.806Z</time></trkpt><trkpt lat="38.6514322" lon="20.6810325"><ele>264.0</ele><time>2026-05-01T13:20:24.804Z</time></trkpt><trkpt lat="38.6514969" lon="20.6811707"><ele>265.0</ele><time>2026-05-01T13:20:25.806Z</time></trkpt><trkpt lat="38.6515445" lon="20.681317"><ele>265.0</ele><time>2026-05-01T13:20:26.804Z</time></trkpt><trkpt lat="38.6515772" lon="20.68147"><ele>265.0</ele><time>2026-05-01T13:20:27.807Z</time></trkpt><trkpt lat="38.6516022" lon="20.6816263"><ele>265.0</ele><time>2026-05-01T13:20:28.806Z</time></trkpt><trkpt lat="38.6516094" lon="20.6817822"><ele>265.0</ele><time>2026-05-01T13:20:29.806Z</time></trkpt><trkpt lat="38.6515975" lon="20.6819412"><ele>265.75</ele><time>2026-05-01T13:20:30.805Z</time></trkpt><trkpt lat="38.6515537" lon="20.6820883"><ele>266.5</ele><time>2026-05-01T13:20:31.807Z</time></trkpt><trkpt lat="38.6514861" lon="20.6822138"><ele>267.25</ele><time>2026-05-01T13:20:32.803Z</time></trkpt><trkpt lat="38.6514037" lon="20.6823343"><ele>268.0</ele><time>2026-05-01T13:20:33.807Z</time></trkpt><trkpt lat="38.6513283" lon="20.6824538"><ele>268.0</ele><time>2026-05-01T13:20:34.805Z</time></trkpt><trkpt lat="38.6512713" lon="20.682596"><ele>268.0</ele><time>2026-05-01T13:20:35.807Z</time></trkpt><trkpt lat="38.6512377" lon="20.6827523"><ele>268.0</ele><time>2026-05-01T13:20:36.805Z</time></trkpt><trkpt lat="38.6512325" lon="20.6829276"><ele>268.0</ele><time>2026-05-01T13:20:37.806Z</time></trkpt><trkpt lat="38.6512076" lon="20.683101"><ele>270.0</ele><time>2026-05-01T13:20:38.805Z</time></trkpt><trkpt lat="38.6511709" lon="20.6832597"><ele>272.0</ele><time>2026-05-01T13:20:39.806Z</time></trkpt><trkpt lat="38.6511238" lon="20.6834082"><ele>274.0</ele><time>2026-05-01T13:20:40.807Z</time></trkpt><trkpt lat="38.6510318" lon="20.6835383"><ele>276.0</ele><time>2026-05-01T13:20:41.805Z</time></trkpt><trkpt lat="38.6509271" lon="20.6836455"><ele>271.0</ele><time>2026-05-01T13:20:42.806Z</time></trkpt><trkpt lat="38.6508115" lon="20.6837469"><ele>266.0</ele><time>2026-05-01T13:20:43.807Z</time></trkpt><trkpt lat="38.6506849" lon="20.683847"><ele>261.0</ele><time>2026-05-01T13:20:44.804Z</time></trkpt><trkpt lat="38.6505627" lon="20.6839551"><ele>256.0</ele><time>2026-05-01T13:20:45.805Z</time></trkpt><trkpt lat="38.6504431" lon="20.6840717"><ele>256.0</ele><time>2026-05-01T13:20:46.805Z</time></trkpt><trkpt lat="38.6503408" lon="20.6842092"><ele>256.0</ele><time>2026-05-01T13:20:47.806Z</time></trkpt><trkpt lat="38.6502564" lon="20.6843696"><ele>256.0</ele><time>2026-05-01T13:20:48.807Z</time></trkpt><trkpt lat="38.6501877" lon="20.6845635"><ele>248.66666666666666</ele><time>2026-05-01T13:20:49.807Z</time></trkpt><trkpt lat="38.6501438" lon="20.6847684"><ele>241.33333333333331</ele><time>2026-05-01T13:20:50.806Z</time></trkpt><trkpt lat="38.6501034" lon="20.684989"><ele>234.0</ele><time>2026-05-01T13:20:51.805Z</time></trkpt><trkpt lat="38.6500836" lon="20.6852281"><ele>234.0</ele><time>2026-05-01T13:20:52.806Z</time></trkpt><trkpt lat="38.6500611" lon="20.6854625"><ele>234.0</ele><time>2026-05-01T13:20:53.806Z</time></trkpt><trkpt lat="38.6500325" lon="20.6856949"><ele>234.0</ele><time>2026-05-01T13:20:54.805Z</time></trkpt><trkpt lat="38.6500067" lon="20.6859183"><ele>237.33333333333331</ele><time>2026-05-01T13:20:55.805Z</time></trkpt><trkpt lat="38.6499597" lon="20.6861418"><ele>240.66666666666666</ele><time>2026-05-01T13:20:56.806Z</time></trkpt><trkpt lat="38.6498918" lon="20.6863572"><ele>244.0</ele><time>2026-05-01T13:20:57.805Z</time></trkpt><trkpt lat="38.6498084" lon="20.6865711"><ele>244.0</ele><time>2026-05-01T13:20:58.807Z</time></trkpt><trkpt lat="38.6497181" lon="20.6867842"><ele>244.0</ele><time>2026-05-01T13:20:59.807Z</time></trkpt><trkpt lat="38.6496284" lon="20.6869863"><ele>244.0</ele><time>2026-05-01T13:21:00.806Z</time></trkpt><trkpt lat="38.6495455" lon="20.687179"><ele>246.0</ele><time>2026-05-01T13:21:01.806Z</time></trkpt><trkpt lat="38.6494643" lon="20.6873618"><ele>248.0</ele><time>2026-05-01T13:21:02.806Z</time></trkpt><trkpt lat="38.6493973" lon="20.687529"><ele>250.0</ele><time>2026-05-01T13:21:03.807Z</time></trkpt><trkpt lat="38.6493409" lon="20.6876806"><ele>252.0</ele><time>2026-05-01T13:21:04.806Z</time></trkpt><trkpt lat="38.6493134" lon="20.6878379"><ele>250.5</ele><time>2026-05-01T13:21:05.805Z</time></trkpt><trkpt lat="38.6493212" lon="20.6880062"><ele>249.0</ele><time>2026-05-01T13:21:06.807Z</time></trkpt><trkpt lat="38.649361" lon="20.6881742"><ele>247.5</ele><time>2026-05-01T13:21:07.803Z</time></trkpt><trkpt lat="38.6494349" lon="20.6883553"><ele>246.0</ele><time>2026-05-01T13:21:08.804Z</time></trkpt><trkpt lat="38.6495188" lon="20.6885354"><ele>239.0</ele><time>2026-05-01T13:21:09.806Z</time></trkpt><trkpt lat="38.6496061" lon="20.6887139"><ele>232.0</ele><time>2026-05-01T13:21:10.804Z</time></trkpt><trkpt lat="38.6496987" lon="20.6889019"><ele>225.0</ele><time>2026-05-01T13:21:11.804Z</time></trkpt><trkpt lat="38.6497879" lon="20.6890839"><ele>225.0</ele><time>2026-05-01T13:21:12.807Z</time></trkpt><trkpt lat="38.6498757" lon="20.6892607"><ele>225.0</ele><time>2026-05-01T13:21:13.807Z</time></trkpt><trkpt lat="38.649964" lon="20.6894234"><ele>225.0</ele><time>2026-05-01T13:21:14.804Z</time></trkpt><trkpt lat="38.6500661" lon="20.6895591"><ele>222.0</ele><time>2026-05-01T13:21:15.807Z</time></trkpt><trkpt lat="38.6501893" lon="20.6896649"><ele>219.0</ele><time>2026-05-01T13:21:16.805Z</time></trkpt><trkpt lat="38.6503326" lon="20.6897333"><ele>216.0</ele><time>2026-05-01T13:21:17.805Z</time></trkpt><trkpt lat="38.6504897" lon="20.6897833"><ele>216.0</ele><time>2026-05-01T13:21:18.803Z</time></trkpt><trkpt lat="38.6506533" lon="20.6898448"><ele>216.0</ele><time>2026-05-01T13:21:19.806Z</time></trkpt><trkpt lat="38.6508101" lon="20.6899288"><ele>216.0</ele><time>2026-05-01T13:21:20.804Z</time></trkpt><trkpt lat="38.6509795" lon="20.6900494"><ele>212.0</ele><time>2026-05-01T13:21:21.805Z</time></trkpt><trkpt lat="38.6511515" lon="20.6902021"><ele>208.0</ele><time>2026-05-01T13:21:22.805Z</time></trkpt><trkpt lat="38.6513219" lon="20.6903639"><ele>204.0</ele><time>2026-05-01T13:21:23.807Z</time></trkpt><trkpt lat="38.6514822" lon="20.6905214"><ele>204.0</ele><time>2026-05-01T13:21:24.805Z</time></trkpt><trkpt lat="38.6516349" lon="20.6906701"><ele>204.0</ele><time>2026-05-01T13:21:25.802Z</time></trkpt><trkpt lat="38.6517849" lon="20.6908161"><ele>204.0</ele><time>2026-05-01T13:21:26.804Z</time></trkpt><trkpt lat="38.651922" lon="20.6909639"><ele>205.0</ele><time>2026-05-01T13:21:27.803Z</time></trkpt><trkpt lat="38.6520421" lon="20.6911216"><ele>206.0</ele><time>2026-05-01T13:21:28.805Z</time></trkpt><trkpt lat="38.6521536" lon="20.6912875"><ele>207.0</ele><time>2026-05-01T13:21:29.807Z</time></trkpt><trkpt lat="38.6522461" lon="20.6914648"><ele>207.0</ele><time>2026-05-01T13:21:30.805Z</time></trkpt><trkpt lat="38.6523326" lon="20.6916247"><ele>207.0</ele><time>2026-05-01T13:21:31.805Z</time></trkpt><trkpt lat="38.6524405" lon="20.6917704"><ele>207.0</ele><time>2026-05-01T13:21:32.805Z</time></trkpt><trkpt lat="38.652564" lon="20.6918903"><ele>202.66666666666669</ele><time>2026-05-01T13:21:33.806Z</time></trkpt><trkpt lat="38.6527103" lon="20.6919919"><ele>198.33333333333334</ele><time>2026-05-01T13:21:34.804Z</time></trkpt><trkpt lat="38.6528598" lon="20.6920782"><ele>194.0</ele><time>2026-05-01T13:21:35.806Z</time></trkpt><trkpt lat="38.6530249" lon="20.6921683"><ele>194.0</ele><time>2026-05-01T13:21:36.805Z</time></trkpt><trkpt lat="38.6532004" lon="20.6922603"><ele>194.0</ele><time>2026-05-01T13:21:37.807Z</time></trkpt><trkpt lat="38.6533745" lon="20.6923395"><ele>194.0</ele><time>2026-05-01T13:21:38.805Z</time></trkpt><trkpt lat="38.653541" lon="20.6924242"><ele>195.33333333333334</ele><time>2026-05-01T13:21:39.807Z</time></trkpt><trkpt lat="38.6537032" lon="20.6925042"><ele>196.66666666666669</ele><time>2026-05-01T13:21:40.805Z</time></trkpt><trkpt lat="38.6538605" lon="20.6925816"><ele>198.0</ele><time>2026-05-01T13:21:41.804Z</time></trkpt><trkpt lat="38.6540075" lon="20.6926381"><ele>198.0</ele><time>2026-05-01T13:21:42.805Z</time></trkpt><trkpt lat="38.6541466" lon="20.6926543"><ele>198.0</ele><time>2026-05-01T13:21:43.806Z</time></trkpt><trkpt lat="38.6542878" lon="20.6926261"><ele>198.0</ele><time>2026-05-01T13:21:44.807Z</time></trkpt><trkpt lat="38.6544249" lon="20.6925694"><ele>198.0</ele><time>2026-05-01T13:21:45.804Z</time></trkpt><trkpt lat="38.654551" lon="20.6925184"><ele>197.25</ele><time>2026-05-01T13:21:46.807Z</time></trkpt><trkpt lat="38.6546741" lon="20.6924875"><ele>196.5</ele><time>2026-05-01T13:21:47.807Z</time></trkpt><trkpt lat="38.6547942" lon="20.6925015"><ele>195.75</ele><time>2026-05-01T13:21:48.805Z</time></trkpt><trkpt lat="38.6549155" lon="20.6925467"><ele>195.0</ele><time>2026-05-01T13:21:49.805Z</time></trkpt><trkpt lat="38.6550284" lon="20.6926253"><ele>195.0</ele><time>2026-05-01T13:21:50.804Z</time></trkpt><trkpt lat="38.6551189" lon="20.6927522"><ele>195.0</ele><time>2026-05-01T13:21:51.804Z</time></trkpt><trkpt lat="38.6552078" lon="20.6928949"><ele>195.0</ele><time>2026-05-01T13:21:52.807Z</time></trkpt><trkpt lat="38.6552637" lon="20.6930747"><ele>195.0</ele><time>2026-05-01T13:21:53.807Z</time></trkpt><trkpt lat="38.6553046" lon="20.6932744"><ele>194.33333333333331</ele><time>2026-05-01T13:21:54.806Z</time></trkpt><trkpt lat="38.6553664" lon="20.6934795"><ele>193.66666666666666</ele><time>2026-05-01T13:21:55.804Z</time></trkpt><trkpt lat="38.655429" lon="20.6936635"><ele>193.0</ele><time>2026-05-01T13:21:56.806Z</time></trkpt><trkpt lat="38.6554893" lon="20.6938306"><ele>193.0</ele><time>2026-05-01T13:21:57.806Z</time></trkpt><trkpt lat="38.6555387" lon="20.6939833"><ele>193.0</ele><time>2026-05-01T13:21:58.804Z</time></trkpt><trkpt lat="38.6555552" lon="20.6941409"><ele>193.0</ele><time>2026-05-01T13:21:59.806Z</time></trkpt><trkpt lat="38.6555469" lon="20.6943108"><ele>193.0</ele><time>2026-05-01T13:22:00.805Z</time></trkpt><trkpt lat="38.6554846" lon="20.694484"><ele>194.33333333333331</ele><time>2026-05-01T13:22:01.806Z</time></trkpt><trkpt lat="38.655407" lon="20.6946491"><ele>195.66666666666669</ele><time>2026-05-01T13:22:02.806Z</time></trkpt><trkpt lat="38.6553101" lon="20.6948241"><ele>197.0</ele><time>2026-05-01T13:22:03.802Z</time></trkpt><trkpt lat="38.6551966" lon="20.6949927"><ele>190.66666666666669</ele><time>2026-05-01T13:22:04.803Z</time></trkpt><trkpt lat="38.6551051" lon="20.6951666"><ele>184.33333333333334</ele><time>2026-05-01T13:22:05.805Z</time></trkpt><trkpt lat="38.6550153" lon="20.6953438"><ele>178.0</ele><time>2026-05-01T13:22:06.804Z</time></trkpt><trkpt lat="38.654933" lon="20.6955016"><ele>178.0</ele><time>2026-05-01T13:22:07.805Z</time></trkpt><trkpt lat="38.6548703" lon="20.6956662"><ele>178.0</ele><time>2026-05-01T13:22:08.806Z</time></trkpt><trkpt lat="38.654835" lon="20.6958494"><ele>178.0</ele><time>2026-05-01T13:22:09.806Z</time></trkpt><trkpt lat="38.6548223" lon="20.6960272"><ele>178.0</ele><time>2026-05-01T13:22:10.807Z</time></trkpt><trkpt lat="38.6548449" lon="20.6962221"><ele>174.33333333333334</ele><time>2026-05-01T13:22:11.806Z</time></trkpt><trkpt lat="38.6549124" lon="20.6964235"><ele>170.66666666666666</ele><time>2026-05-01T13:22:12.805Z</time></trkpt><trkpt lat="38.6549945" lon="20.6966203"><ele>167.0</ele><time>2026-05-01T13:22:13.804Z</time></trkpt><trkpt lat="38.6550875" lon="20.6968166"><ele>166.33333333333331</ele><time>2026-05-01T13:22:14.802Z</time></trkpt><trkpt lat="38.6551748" lon="20.6970001"><ele>165.66666666666666</ele><time>2026-05-01T13:22:15.805Z</time></trkpt><trkpt lat="38.6552727" lon="20.6971699"><ele>165.0</ele><time>2026-05-01T13:22:16.806Z</time></trkpt><trkpt lat="38.6553863" lon="20.6973265"><ele>165.0</ele><time>2026-05-01T13:22:17.806Z</time></trkpt><trkpt lat="38.6555141" lon="20.6974661"><ele>165.0</ele><time>2026-05-01T13:22:18.806Z</time></trkpt><trkpt lat="38.655637" lon="20.6975872"><ele>165.0</ele><time>2026-05-01T13:22:19.806Z</time></trkpt><trkpt lat="38.6557634" lon="20.6977002"><ele>162.75</ele><time>2026-05-01T13:22:20.807Z</time></trkpt><trkpt lat="38.6558829" lon="20.6978075"><ele>160.5</ele><time>2026-05-01T13:22:21.806Z</time></trkpt><trkpt lat="38.6560014" lon="20.6978951"><ele>158.25</ele><time>2026-05-01T13:22:22.807Z</time></trkpt><trkpt lat="38.6561144" lon="20.6979648"><ele>156.0</ele><time>2026-05-01T13:22:23.805Z</time></trkpt><trkpt lat="38.6562317" lon="20.6980027"><ele>154.75</ele><time>2026-05-01T13:22:24.806Z</time></trkpt><trkpt lat="38.6563548" lon="20.6980011"><ele>153.5</ele><time>2026-05-01T13:22:25.805Z</time></trkpt><trkpt lat="38.6564913" lon="20.6979505"><ele>152.25</ele><time>2026-05-01T13:22:26.806Z</time></trkpt><trkpt lat="38.6566552" lon="20.6978667"><ele>151.0</ele><time>2026-05-01T13:22:27.806Z</time></trkpt><trkpt lat="38.6568276" lon="20.6977655"><ele>150.66666666666669</ele><time>2026-05-01T13:22:28.804Z</time></trkpt><trkpt lat="38.6570192" lon="20.6976616"><ele>150.33333333333334</ele><time>2026-05-01T13:22:29.805Z</time></trkpt><trkpt lat="38.657214" lon="20.6975583"><ele>150.0</ele><time>2026-05-01T13:22:30.805Z</time></trkpt><trkpt lat="38.6574056" lon="20.697454"><ele>150.0</ele><time>2026-05-01T13:22:31.806Z</time></trkpt><trkpt lat="38.6575958" lon="20.6973478"><ele>150.0</ele><time>2026-05-01T13:22:32.806Z</time></trkpt><trkpt lat="38.657776" lon="20.6972272"><ele>150.0</ele><time>2026-05-01T13:22:33.805Z</time></trkpt><trkpt lat="38.6579446" lon="20.6971187"><ele>151.0</ele><time>2026-05-01T13:22:34.805Z</time></trkpt><trkpt lat="38.6581046" lon="20.6970139"><ele>152.0</ele><time>2026-05-01T13:22:35.805Z</time></trkpt><trkpt lat="38.6582593" lon="20.6969223"><ele>153.0</ele><time>2026-05-01T13:22:36.805Z</time></trkpt><trkpt lat="38.6584148" lon="20.6968442"><ele>153.0</ele><time>2026-05-01T13:22:37.805Z</time></trkpt><trkpt lat="38.6585639" lon="20.6968"><ele>153.0</ele><time>2026-05-01T13:22:38.803Z</time></trkpt><trkpt lat="38.6587114" lon="20.6967692"><ele>153.0</ele><time>2026-05-01T13:22:39.802Z</time></trkpt><trkpt lat="38.6588506" lon="20.6967367"><ele>153.0</ele><time>2026-05-01T13:22:40.805Z</time></trkpt><trkpt lat="38.6589873" lon="20.6967002"><ele>150.0</ele><time>2026-05-01T13:22:41.804Z</time></trkpt><trkpt lat="38.6591148" lon="20.6966446"><ele>147.0</ele><time>2026-05-01T13:22:42.803Z</time></trkpt><trkpt lat="38.6592207" lon="20.6965535"><ele>144.0</ele><time>2026-05-01T13:22:43.806Z</time></trkpt><trkpt lat="38.6592977" lon="20.6964237"><ele>141.0</ele><time>2026-05-01T13:22:44.804Z</time></trkpt><trkpt lat="38.6593564" lon="20.696258"><ele>139.75</ele><time>2026-05-01T13:22:45.804Z</time></trkpt><trkpt lat="38.6594055" lon="20.6960813"><ele>138.5</ele><time>2026-05-01T13:22:46.801Z</time></trkpt><trkpt lat="38.6594551" lon="20.6959129"><ele>137.25</ele><time>2026-05-01T13:22:47.805Z</time></trkpt><trkpt lat="38.6595094" lon="20.6957612"><ele>136.0</ele><time>2026-05-01T13:22:48.805Z</time></trkpt><trkpt lat="38.659571" lon="20.6956288"><ele>136.0</ele><time>2026-05-01T13:22:49.807Z</time></trkpt><trkpt lat="38.659642" lon="20.6955143"><ele>136.0</ele><time>2026-05-01T13:22:50.804Z</time></trkpt><trkpt lat="38.6597315" lon="20.6954287"><ele>136.0</ele><time>2026-05-01T13:22:51.805Z</time></trkpt><trkpt lat="38.6598315" lon="20.6953718"><ele>136.0</ele><time>2026-05-01T13:22:52.804Z</time></trkpt><trkpt lat="38.6599432" lon="20.6953301"><ele>136.0</ele><time>2026-05-01T13:22:53.806Z</time></trkpt><trkpt lat="38.6600521" lon="20.6953028"><ele>136.0</ele><time>2026-05-01T13:22:54.804Z</time></trkpt><trkpt lat="38.6601576" lon="20.6952752"><ele>136.0</ele><time>2026-05-01T13:22:55.804Z</time></trkpt><trkpt lat="38.6602585" lon="20.6952429"><ele>136.0</ele><time>2026-05-01T13:22:56.803Z</time></trkpt><trkpt lat="38.6603612" lon="20.6951957"><ele>136.0</ele><time>2026-05-01T13:22:57.807Z</time></trkpt><trkpt lat="38.6604739" lon="20.6951098"><ele>134.5</ele><time>2026-05-01T13:22:58.805Z</time></trkpt><trkpt lat="38.6605908" lon="20.6950074"><ele>133.0</ele><time>2026-05-01T13:22:59.805Z</time></trkpt><trkpt lat="38.6607079" lon="20.6948966"><ele>131.5</ele><time>2026-05-01T13:23:00.805Z</time></trkpt><trkpt lat="38.6608208" lon="20.6947829"><ele>130.0</ele><time>2026-05-01T13:23:01.804Z</time></trkpt><trkpt lat="38.6609289" lon="20.6946725"><ele>130.0</ele><time>2026-05-01T13:23:02.804Z</time></trkpt><trkpt lat="38.6610411" lon="20.6945631"><ele>130.0</ele><time>2026-05-01T13:23:03.805Z</time></trkpt><trkpt lat="38.661164" lon="20.6944526"><ele>130.0</ele><time>2026-05-01T13:23:04.806Z</time></trkpt><trkpt lat="38.6612966" lon="20.6943328"><ele>130.0</ele><time>2026-05-01T13:23:05.805Z</time></trkpt><trkpt lat="38.6614332" lon="20.6942425"><ele>130.0</ele><time>2026-05-01T13:23:06.807Z</time></trkpt><trkpt lat="38.6615631" lon="20.6941622"><ele>130.0</ele><time>2026-05-01T13:23:07.804Z</time></trkpt><trkpt lat="38.661682" lon="20.6940919"><ele>130.0</ele><time>2026-05-01T13:23:08.804Z</time></trkpt><trkpt lat="38.661801" lon="20.6940167"><ele>130.0</ele><time>2026-05-01T13:23:09.803Z</time></trkpt><trkpt lat="38.6619081" lon="20.6939377"><ele>130.0</ele><time>2026-05-01T13:23:10.806Z</time></trkpt><trkpt lat="38.662007" lon="20.6938474"><ele>130.0</ele><time>2026-05-01T13:23:11.806Z</time></trkpt><trkpt lat="38.6621034" lon="20.693752"><ele>130.0</ele><time>2026-05-01T13:23:12.804Z</time></trkpt><trkpt lat="38.6621998" lon="20.6936573"><ele>129.0</ele><time>2026-05-01T13:23:13.805Z</time></trkpt><trkpt lat="38.6622938" lon="20.6935596"><ele>128.0</ele><time>2026-05-01T13:23:14.805Z</time></trkpt><trkpt lat="38.6623892" lon="20.6934568"><ele>127.0</ele><time>2026-05-01T13:23:15.807Z</time></trkpt><trkpt lat="38.6624835" lon="20.6933553"><ele>126.0</ele><time>2026-05-01T13:23:16.806Z</time></trkpt><trkpt lat="38.6625777" lon="20.6932619"><ele>126.0</ele><time>2026-05-01T13:23:17.803Z</time></trkpt><trkpt lat="38.6626699" lon="20.6931685"><ele>126.0</ele><time>2026-05-01T13:23:18.805Z</time></trkpt><trkpt lat="38.6627571" lon="20.6930767"><ele>126.0</ele><time>2026-05-01T13:23:19.805Z</time></trkpt><trkpt lat="38.6628453" lon="20.6929849"><ele>126.0</ele><time>2026-05-01T13:23:20.805Z</time></trkpt><trkpt lat="38.6629316" lon="20.6929017"><ele>124.0</ele><time>2026-05-01T13:23:21.804Z</time></trkpt><trkpt lat="38.6630168" lon="20.692811"><ele>122.0</ele><time>2026-05-01T13:23:22.804Z</time></trkpt><trkpt lat="38.6631009" lon="20.6927234"><ele>120.0</ele><time>2026-05-01T13:23:23.806Z</time></trkpt><trkpt lat="38.6631811" lon="20.6926409"><ele>118.0</ele><time>2026-05-01T13:23:24.803Z</time></trkpt><trkpt lat="38.6632606" lon="20.6925673"><ele>116.0</ele><time>2026-05-01T13:23:25.807Z</time></trkpt><trkpt lat="38.6633408" lon="20.6924961"><ele>116.0</ele><time>2026-05-01T13:23:26.805Z</time></trkpt><trkpt lat="38.6634209" lon="20.6924386"><ele>116.0</ele><time>2026-05-01T13:23:27.804Z</time></trkpt><trkpt lat="38.6635032" lon="20.692386"><ele>116.0</ele><time>2026-05-01T13:23:28.806Z</time></trkpt><trkpt lat="38.6635987" lon="20.6923516"><ele>116.0</ele><time>2026-05-01T13:23:29.802Z</time></trkpt><trkpt lat="38.6636956" lon="20.6923254"><ele>116.0</ele><time>2026-05-01T13:23:30.806Z</time></trkpt><trkpt lat="38.6637924" lon="20.6923123"><ele>114.8</ele><time>2026-05-01T13:23:31.802Z</time></trkpt><trkpt lat="38.66389" lon="20.6923068"><ele>113.6</ele><time>2026-05-01T13:23:32.806Z</time></trkpt><trkpt lat="38.6639913" lon="20.6923211"><ele>112.4</ele><time>2026-05-01T13:23:33.805Z</time></trkpt><trkpt lat="38.6640931" lon="20.6923449"><ele>111.2</ele><time>2026-05-01T13:23:34.805Z</time></trkpt><trkpt lat="38.6641933" lon="20.692369"><ele>110.0</ele><time>2026-05-01T13:23:35.804Z</time></trkpt><trkpt lat="38.6643001" lon="20.6924051"><ele>110.0</ele><time>2026-05-01T13:23:36.806Z</time></trkpt><trkpt lat="38.6644066" lon="20.6924246"><ele>110.0</ele><time>2026-05-01T13:23:37.805Z</time></trkpt><trkpt lat="38.6645019" lon="20.6924604"><ele>110.0</ele><time>2026-05-01T13:23:38.805Z</time></trkpt><trkpt lat="38.6645985" lon="20.6925014"><ele>110.0</ele><time>2026-05-01T13:23:39.806Z</time></trkpt><trkpt lat="38.6646899" lon="20.6925401"><ele>110.0</ele><time>2026-05-01T13:23:40.805Z</time></trkpt><trkpt lat="38.66478" lon="20.6925836"><ele>110.8</ele><time>2026-05-01T13:23:41.805Z</time></trkpt><trkpt lat="38.6648708" lon="20.6926123"><ele>111.6</ele><time>2026-05-01T13:23:42.804Z</time></trkpt><trkpt lat="38.6649674" lon="20.6926405"><ele>112.4</ele><time>2026-05-01T13:23:43.804Z</time></trkpt><trkpt lat="38.6650638" lon="20.6926603"><ele>113.2</ele><time>2026-05-01T13:23:44.804Z</time></trkpt><trkpt lat="38.6651532" lon="20.692705"><ele>114.0</ele><time>2026-05-01T13:23:45.806Z</time></trkpt><trkpt lat="38.6652316" lon="20.6927623"><ele>114.80000000000001</ele><time>2026-05-01T13:23:46.804Z</time></trkpt><trkpt lat="38.665304" lon="20.6928244"><ele>115.60000000000001</ele><time>2026-05-01T13:23:47.806Z</time></trkpt><trkpt lat="38.665363" lon="20.692905"><ele>116.4</ele><time>2026-05-01T13:23:48.803Z</time></trkpt><trkpt lat="38.6654204" lon="20.6929996"><ele>117.2</ele><time>2026-05-01T13:23:49.803Z</time></trkpt><trkpt lat="38.665478" lon="20.6931042"><ele>118.0</ele><time>2026-05-01T13:23:50.804Z</time></trkpt><trkpt lat="38.6655194" lon="20.6932122"><ele>118.0</ele><time>2026-05-01T13:23:51.806Z</time></trkpt><trkpt lat="38.6655558" lon="20.6933243"><ele>118.00000000000001</ele><time>2026-05-01T13:23:52.806Z</time></trkpt><trkpt lat="38.6655628" lon="20.6934453"><ele>118.00000000000001</ele><time>2026-05-01T13:23:53.807Z</time></trkpt><trkpt lat="38.6655582" lon="20.6935595"><ele>118.0</ele><time>2026-05-01T13:23:54.806Z</time></trkpt><trkpt lat="38.6655412" lon="20.6936773"><ele>118.0</ele><time>2026-05-01T13:23:55.806Z</time></trkpt><trkpt lat="38.6655188" lon="20.6937936"><ele>116.33333333333334</ele><time>2026-05-01T13:23:56.805Z</time></trkpt><trkpt lat="38.6654953" lon="20.6939013"><ele>114.66666666666667</ele><time>2026-05-01T13:23:57.805Z</time></trkpt><trkpt lat="38.6654687" lon="20.6940101"><ele>113.0</ele><time>2026-05-01T13:23:58.803Z</time></trkpt><trkpt lat="38.6654485" lon="20.694114"><ele>111.33333333333334</ele><time>2026-05-01T13:23:59.805Z</time></trkpt><trkpt lat="38.6654353" lon="20.6942175"><ele>109.66666666666667</ele><time>2026-05-01T13:24:00.804Z</time></trkpt><trkpt lat="38.6654437" lon="20.6943221"><ele>108.0</ele><time>2026-05-01T13:24:01.803Z</time></trkpt><trkpt lat="38.6654728" lon="20.6944228"><ele>102.2</ele><time>2026-05-01T13:24:02.806Z</time></trkpt><trkpt lat="38.6655313" lon="20.6945159"><ele>96.4</ele><time>2026-05-01T13:24:03.806Z</time></trkpt><trkpt lat="38.6656168" lon="20.694584"><ele>90.60000000000001</ele><time>2026-05-01T13:24:04.806Z</time></trkpt><trkpt lat="38.6657199" lon="20.6946367"><ele>84.80000000000001</ele><time>2026-05-01T13:24:05.803Z</time></trkpt><trkpt lat="38.6658319" lon="20.6946779"><ele>79.0</ele><time>2026-05-01T13:24:06.803Z</time></trkpt><trkpt lat="38.6659419" lon="20.6947103"><ele>79.0</ele><time>2026-05-01T13:24:07.806Z</time></trkpt><trkpt lat="38.6660522" lon="20.6947413"><ele>79.0</ele><time>2026-05-01T13:24:08.807Z</time></trkpt><trkpt lat="38.6661611" lon="20.6947662"><ele>79.0</ele><time>2026-05-01T13:24:09.802Z</time></trkpt><trkpt lat="38.6662712" lon="20.6947965"><ele>79.0</ele><time>2026-05-01T13:24:10.806Z</time></trkpt><trkpt lat="38.6663843" lon="20.6948226"><ele>80.5</ele><time>2026-05-01T13:24:11.803Z</time></trkpt><trkpt lat="38.6664888" lon="20.6948471"><ele>82.0</ele><time>2026-05-01T13:24:12.807Z</time></trkpt><trkpt lat="38.6666006" lon="20.6948569"><ele>83.5</ele><time>2026-05-01T13:24:13.805Z</time></trkpt><trkpt lat="38.66672" lon="20.6948543"><ele>85.0</ele><time>2026-05-01T13:24:14.805Z</time></trkpt><trkpt lat="38.6668356" lon="20.6948318"><ele>81.0</ele><time>2026-05-01T13:24:15.805Z</time></trkpt><trkpt lat="38.6669534" lon="20.6947932"><ele>77.0</ele><time>2026-05-01T13:24:16.805Z</time></trkpt><trkpt lat="38.6670709" lon="20.6947439"><ele>73.0</ele><time>2026-05-01T13:24:17.807Z</time></trkpt><trkpt lat="38.6671869" lon="20.6946854"><ele>69.0</ele><time>2026-05-01T13:24:18.806Z</time></trkpt><trkpt lat="38.6673019" lon="20.6946219"><ele>69.0</ele><time>2026-05-01T13:24:19.805Z</time></trkpt><trkpt lat="38.6674148" lon="20.6945512"><ele>69.0</ele><time>2026-05-01T13:24:20.806Z</time></trkpt><trkpt lat="38.6675285" lon="20.6944745"><ele>69.0</ele><time>2026-05-01T13:24:21.806Z</time></trkpt><trkpt lat="38.6676374" lon="20.6944211"><ele>69.0</ele><time>2026-05-01T13:24:22.807Z</time></trkpt><trkpt lat="38.667754" lon="20.6943719"><ele>73.5</ele><time>2026-05-01T13:24:23.807Z</time></trkpt><trkpt lat="38.6678717" lon="20.694338"><ele>78.0</ele><time>2026-05-01T13:24:24.806Z</time></trkpt><trkpt lat="38.6679948" lon="20.6943183"><ele>82.5</ele><time>2026-05-01T13:24:25.807Z</time></trkpt><trkpt lat="38.6681222" lon="20.6943177"><ele>87.0</ele><time>2026-05-01T13:24:26.805Z</time></trkpt><trkpt lat="38.6682505" lon="20.69432"><ele>87.0</ele><time>2026-05-01T13:24:27.807Z</time></trkpt><trkpt lat="38.6683789" lon="20.6943293"><ele>87.0</ele><time>2026-05-01T13:24:28.806Z</time></trkpt><trkpt lat="38.6685067" lon="20.6943292"><ele>87.0</ele><time>2026-05-01T13:24:29.805Z</time></trkpt><trkpt lat="38.6686361" lon="20.6943112"><ele>87.0</ele><time>2026-05-01T13:24:30.803Z</time></trkpt><trkpt lat="38.6687692" lon="20.6942708"><ele>83.0</ele><time>2026-05-01T13:24:31.806Z</time></trkpt><trkpt lat="38.6689018" lon="20.6942081"><ele>79.0</ele><time>2026-05-01T13:24:32.806Z</time></trkpt><trkpt lat="38.669044" lon="20.6941323"><ele>75.0</ele><time>2026-05-01T13:24:33.805Z</time></trkpt><trkpt lat="38.6691969" lon="20.6940379"><ele>75.0</ele><time>2026-05-01T13:24:34.806Z</time></trkpt><trkpt lat="38.6693422" lon="20.6939492"><ele>75.0</ele><time>2026-05-01T13:24:35.806Z</time></trkpt><trkpt lat="38.6694774" lon="20.6938602"><ele>75.0</ele><time>2026-05-01T13:24:36.805Z</time></trkpt><trkpt lat="38.669611" lon="20.6937671"><ele>76.5</ele><time>2026-05-01T13:24:37.807Z</time></trkpt><trkpt lat="38.6697427" lon="20.6936763"><ele>78.0</ele><time>2026-05-01T13:24:38.804Z</time></trkpt><trkpt lat="38.6698703" lon="20.6935921"><ele>79.5</ele><time>2026-05-01T13:24:39.806Z</time></trkpt><trkpt lat="38.6699995" lon="20.6935134"><ele>81.0</ele><time>2026-05-01T13:24:40.806Z</time></trkpt><trkpt lat="38.6701307" lon="20.6934415"><ele>81.0</ele><time>2026-05-01T13:24:41.806Z</time></trkpt><trkpt lat="38.6702693" lon="20.693378"><ele>81.0</ele><time>2026-05-01T13:24:42.806Z</time></trkpt><trkpt lat="38.6704158" lon="20.6933216"><ele>81.0</ele><time>2026-05-01T13:24:43.806Z</time></trkpt><trkpt lat="38.6705667" lon="20.6932773"><ele>77.5</ele><time>2026-05-01T13:24:44.805Z</time></trkpt><trkpt lat="38.6707141" lon="20.6932546"><ele>74.0</ele><time>2026-05-01T13:24:45.804Z</time></trkpt><trkpt lat="38.6708562" lon="20.6932288"><ele>70.5</ele><time>2026-05-01T13:24:46.804Z</time></trkpt><trkpt lat="38.670994" lon="20.6932216"><ele>67.0</ele><time>2026-05-01T13:24:47.804Z</time></trkpt><trkpt lat="38.6711284" lon="20.693205"><ele>66.25</ele><time>2026-05-01T13:24:48.806Z</time></trkpt><trkpt lat="38.6712618" lon="20.6931958"><ele>65.5</ele><time>2026-05-01T13:24:49.804Z</time></trkpt><trkpt lat="38.6713935" lon="20.6931768"><ele>64.75</ele><time>2026-05-01T13:24:50.806Z</time></trkpt><trkpt lat="38.6715288" lon="20.6931554"><ele>64.0</ele><time>2026-05-01T13:24:51.804Z</time></trkpt><trkpt lat="38.671661" lon="20.6931345"><ele>64.0</ele><time>2026-05-01T13:24:52.806Z</time></trkpt><trkpt lat="38.6718015" lon="20.6931103"><ele>64.0</ele><time>2026-05-01T13:24:53.807Z</time></trkpt><trkpt lat="38.6719413" lon="20.693095"><ele>64.0</ele><time>2026-05-01T13:24:54.805Z</time></trkpt><trkpt lat="38.6720845" lon="20.6930897"><ele>64.0</ele><time>2026-05-01T13:24:55.806Z</time></trkpt><trkpt lat="38.6722298" lon="20.6931033"><ele>62.33333333333333</ele><time>2026-05-01T13:24:56.805Z</time></trkpt><trkpt lat="38.6723897" lon="20.693123"><ele>60.66666666666667</ele><time>2026-05-01T13:24:57.804Z</time></trkpt><trkpt lat="38.6725682" lon="20.6931673"><ele>59.0</ele><time>2026-05-01T13:24:58.807Z</time></trkpt><trkpt lat="38.6727627" lon="20.6932311"><ele>62.5</ele><time>2026-05-01T13:24:59.806Z</time></trkpt><trkpt lat="38.6730204" lon="20.6933264"><ele>66.0</ele><time>2026-05-01T13:25:00.805Z</time></trkpt><trkpt lat="38.6732695" lon="20.6934219"><ele>66.0</ele><time>2026-05-01T13:25:01.806Z</time></trkpt><trkpt lat="38.6735026" lon="20.6935146"><ele>66.0</ele><time>2026-05-01T13:25:02.805Z</time></trkpt><trkpt lat="38.6737226" lon="20.6936003"><ele>58.666666666666664</ele><time>2026-05-01T13:25:03.804Z</time></trkpt><trkpt lat="38.6739272" lon="20.6936933"><ele>51.33333333333333</ele><time>2026-05-01T13:25:04.807Z</time></trkpt><trkpt lat="38.6741094" lon="20.6937897"><ele>44.0</ele><time>2026-05-01T13:25:05.804Z</time></trkpt><trkpt lat="38.6742801" lon="20.6938952"><ele>44.0</ele><time>2026-05-01T13:25:06.802Z</time></trkpt><trkpt lat="38.6744338" lon="20.6940057"><ele>44.0</ele><time>2026-05-01T13:25:07.806Z</time></trkpt><trkpt lat="38.6745865" lon="20.6941441"><ele>44.0</ele><time>2026-05-01T13:25:08.804Z</time></trkpt><trkpt lat="38.6747271" lon="20.694287"><ele>40.0</ele><time>2026-05-01T13:25:09.802Z</time></trkpt><trkpt lat="38.6748647" lon="20.6944308"><ele>36.0</ele><time>2026-05-01T13:25:10.804Z</time></trkpt><trkpt lat="38.6750075" lon="20.6945609"><ele>32.0</ele><time>2026-05-01T13:25:11.805Z</time></trkpt><trkpt lat="38.6751703" lon="20.6946673"><ele>34.666666666666664</ele><time>2026-05-01T13:25:12.806Z</time></trkpt><trkpt lat="38.6753496" lon="20.6947504"><ele>37.333333333333336</ele><time>2026-05-01T13:25:13.805Z</time></trkpt><trkpt lat="38.6755535" lon="20.6948088"><ele>40.0</ele><time>2026-05-01T13:25:14.805Z</time></trkpt><trkpt lat="38.6757751" lon="20.6948489"><ele>40.0</ele><time>2026-05-01T13:25:15.806Z</time></trkpt><trkpt lat="38.6759934" lon="20.6948716"><ele>40.0</ele><time>2026-05-01T13:25:16.806Z</time></trkpt><trkpt lat="38.6761982" lon="20.6948966"><ele>40.0</ele><time>2026-05-01T13:25:17.804Z</time></trkpt><trkpt lat="38.6763937" lon="20.6949389"><ele>43.0</ele><time>2026-05-01T13:25:18.804Z</time></trkpt><trkpt lat="38.6765808" lon="20.6949796"><ele>46.0</ele><time>2026-05-01T13:25:19.802Z</time></trkpt><trkpt lat="38.6767578" lon="20.6950169"><ele>49.0</ele><time>2026-05-01T13:25:20.802Z</time></trkpt><trkpt lat="38.6769296" lon="20.6950458"><ele>51.5</ele><time>2026-05-01T13:25:21.805Z</time></trkpt><trkpt lat="38.6770889" lon="20.6950647"><ele>54.0</ele><time>2026-05-01T13:25:22.804Z</time></trkpt><trkpt lat="38.6772351" lon="20.6950627"><ele>56.5</ele><time>2026-05-01T13:25:23.804Z</time></trkpt><trkpt lat="38.6773645" lon="20.6950578"><ele>59.0</ele><time>2026-05-01T13:25:24.805Z</time></trkpt><trkpt lat="38.6774755" lon="20.6950512"><ele>59.00000000000001</ele><time>2026-05-01T13:25:25.802Z</time></trkpt><trkpt lat="38.677568" lon="20.6950591"><ele>59.0</ele><time>2026-05-01T13:25:26.804Z</time></trkpt><trkpt lat="38.6776459" lon="20.6950875"><ele>59.0</ele><time>2026-05-01T13:25:27.805Z</time></trkpt><trkpt lat="38.6777017" lon="20.6951413"><ele>59.0</ele><time>2026-05-01T13:25:28.806Z</time></trkpt><trkpt lat="38.6777293" lon="20.6952151"><ele>59.00000000000001</ele><time>2026-05-01T13:25:29.805Z</time></trkpt><trkpt lat="38.6776378" lon="20.6953184"><ele>59.0</ele><time>2026-05-01T13:25:31.804Z</time></trkpt><trkpt lat="38.6775345" lon="20.6953391"><ele>47.66666666666667</ele><time>2026-05-01T13:25:32.807Z</time></trkpt><trkpt lat="38.6774223" lon="20.6953402"><ele>36.333333333333336</ele><time>2026-05-01T13:25:33.806Z</time></trkpt><trkpt lat="38.6772495" lon="20.6953104"><ele>25.0</ele><time>2026-05-01T13:25:34.807Z</time></trkpt><trkpt lat="38.6770749" lon="20.695292"><ele>23.333333333333336</ele><time>2026-05-01T13:25:35.806Z</time></trkpt><trkpt lat="38.6768842" lon="20.6952707"><ele>21.666666666666668</ele><time>2026-05-01T13:25:36.807Z</time></trkpt><trkpt lat="38.6766978" lon="20.6952468"><ele>20.0</ele><time>2026-05-01T13:25:37.804Z</time></trkpt><trkpt lat="38.6765293" lon="20.6952331"><ele>26.666666666666668</ele><time>2026-05-01T13:25:38.806Z</time></trkpt><trkpt lat="38.6763653" lon="20.6952254"><ele>33.333333333333336</ele><time>2026-05-01T13:25:39.805Z</time></trkpt><trkpt lat="38.6762051" lon="20.6952234"><ele>40.0</ele><time>2026-05-01T13:25:40.805Z</time></trkpt><trkpt lat="38.6760436" lon="20.6952288"><ele>40.0</ele><time>2026-05-01T13:25:41.806Z</time></trkpt><trkpt lat="38.6758923" lon="20.6952357"><ele>40.0</ele><time>2026-05-01T13:25:42.807Z</time></trkpt><trkpt lat="38.6757384" lon="20.6952433"><ele>40.0</ele><time>2026-05-01T13:25:43.804Z</time></trkpt><trkpt lat="38.6755997" lon="20.695255"><ele>40.0</ele><time>2026-05-01T13:25:44.803Z</time></trkpt><trkpt lat="38.6754605" lon="20.6952505"><ele>40.0</ele><time>2026-05-01T13:25:45.803Z</time></trkpt><trkpt lat="38.6753297" lon="20.6952474"><ele>40.0</ele><time>2026-05-01T13:25:46.804Z</time></trkpt><trkpt lat="38.6751976" lon="20.6952262"><ele>40.0</ele><time>2026-05-01T13:25:47.803Z</time></trkpt><trkpt lat="38.6750691" lon="20.6951883"><ele>40.0</ele><time>2026-05-01T13:25:48.805Z</time></trkpt><trkpt lat="38.6749375" lon="20.6951471"><ele>38.0</ele><time>2026-05-01T13:25:49.804Z</time></trkpt><trkpt lat="38.6748141" lon="20.6950915"><ele>36.0</ele><time>2026-05-01T13:25:50.805Z</time></trkpt><trkpt lat="38.6746801" lon="20.6950399"><ele>34.0</ele><time>2026-05-01T13:25:51.805Z</time></trkpt><trkpt lat="38.6745499" lon="20.6949769"><ele>32.0</ele><time>2026-05-01T13:25:52.803Z</time></trkpt><trkpt lat="38.6744163" lon="20.6948945"><ele>28.75</ele><time>2026-05-01T13:25:53.805Z</time></trkpt><trkpt lat="38.6742877" lon="20.6948129"><ele>25.5</ele><time>2026-05-01T13:25:54.805Z</time></trkpt><trkpt lat="38.6741637" lon="20.6947355"><ele>22.25</ele><time>2026-05-01T13:25:55.805Z</time></trkpt><trkpt lat="38.6740419" lon="20.6946621"><ele>19.0</ele><time>2026-05-01T13:25:56.804Z</time></trkpt><trkpt lat="38.6739245" lon="20.694601"><ele>19.0</ele><time>2026-05-01T13:25:57.805Z</time></trkpt><trkpt lat="38.6738021" lon="20.6945658"><ele>19.0</ele><time>2026-05-01T13:25:58.805Z</time></trkpt><trkpt lat="38.6736981" lon="20.694561"><ele>19.0</ele><time>2026-05-01T13:25:59.805Z</time></trkpt><trkpt lat="38.6736033" lon="20.6945855"><ele>19.0</ele><time>2026-05-01T13:26:00.803Z</time></trkpt><trkpt lat="38.6735227" lon="20.694669"><ele>19.0</ele><time>2026-05-01T13:26:01.804Z</time></trkpt><trkpt lat="38.6734533" lon="20.6947794"><ele>17.75</ele><time>2026-05-01T13:26:02.805Z</time></trkpt><trkpt lat="38.673405" lon="20.694912"><ele>16.5</ele><time>2026-05-01T13:26:03.805Z</time></trkpt><trkpt lat="38.6733862" lon="20.6950583"><ele>15.25</ele><time>2026-05-01T13:26:04.804Z</time></trkpt><trkpt lat="38.6733963" lon="20.69522"><ele>14.0</ele><time>2026-05-01T13:26:05.802Z</time></trkpt><trkpt lat="38.6734295" lon="20.6953753"><ele>13.25</ele><time>2026-05-01T13:26:06.803Z</time></trkpt><trkpt lat="38.6734891" lon="20.6955169"><ele>12.5</ele><time>2026-05-01T13:26:07.803Z</time></trkpt><trkpt lat="38.6735769" lon="20.6956412"><ele>11.75</ele><time>2026-05-01T13:26:08.805Z</time></trkpt><trkpt lat="38.673708" lon="20.6957198"><ele>11.0</ele><time>2026-05-01T13:26:09.804Z</time></trkpt><trkpt lat="38.6738608" lon="20.6957797"><ele>11.0</ele><time>2026-05-01T13:26:10.804Z</time></trkpt><trkpt lat="38.674015" lon="20.6958206"><ele>11.0</ele><time>2026-05-01T13:26:11.804Z</time></trkpt><trkpt lat="38.6741805" lon="20.6958696"><ele>11.0</ele><time>2026-05-01T13:26:12.806Z</time></trkpt><trkpt lat="38.6743375" lon="20.6959216"><ele>12.0</ele><time>2026-05-01T13:26:13.804Z</time></trkpt><trkpt lat="38.6744934" lon="20.6959746"><ele>13.0</ele><time>2026-05-01T13:26:14.804Z</time></trkpt><trkpt lat="38.6746505" lon="20.6960242"><ele>14.0</ele><time>2026-05-01T13:26:15.803Z</time></trkpt><trkpt lat="38.6748064" lon="20.6960848"><ele>12.333333333333334</ele><time>2026-05-01T13:26:16.806Z</time></trkpt><trkpt lat="38.6749708" lon="20.6961647"><ele>10.666666666666668</ele><time>2026-05-01T13:26:17.803Z</time></trkpt><trkpt lat="38.6751325" lon="20.6962481"><ele>9.0</ele><time>2026-05-01T13:26:18.805Z</time></trkpt><trkpt lat="38.6752901" lon="20.6963459"><ele>7.666666666666667</ele><time>2026-05-01T13:26:19.802Z</time></trkpt><trkpt lat="38.675442" lon="20.696444"><ele>6.333333333333334</ele><time>2026-05-01T13:26:20.803Z</time></trkpt><trkpt lat="38.6755913" lon="20.6965395"><ele>5.0</ele><time>2026-05-01T13:26:21.804Z</time></trkpt><trkpt lat="38.6757389" lon="20.6966322"><ele>5.0</ele><time>2026-05-01T13:26:22.804Z</time></trkpt><trkpt lat="38.675884" lon="20.6967264"><ele>5.0</ele><time>2026-05-01T13:26:23.803Z</time></trkpt><trkpt lat="38.6760242" lon="20.6968177"><ele>5.0</ele><time>2026-05-01T13:26:24.805Z</time></trkpt><trkpt lat="38.6761682" lon="20.6969129"><ele>5.333333333333334</ele><time>2026-05-01T13:26:25.805Z</time></trkpt><trkpt lat="38.6763059" lon="20.6970038"><ele>5.666666666666667</ele><time>2026-05-01T13:26:26.807Z</time></trkpt><trkpt lat="38.6764423" lon="20.6970913"><ele>6.0</ele><time>2026-05-01T13:26:27.803Z</time></trkpt><trkpt lat="38.6765734" lon="20.6971787"><ele>6.0</ele><time>2026-05-01T13:26:28.804Z</time></trkpt><trkpt lat="38.6767034" lon="20.6972541"><ele>6.0</ele><time>2026-05-01T13:26:29.806Z</time></trkpt><trkpt lat="38.6768325" lon="20.6973398"><ele>6.0</ele><time>2026-05-01T13:26:30.804Z</time></trkpt><trkpt lat="38.6769603" lon="20.6974237"><ele>6.0</ele><time>2026-05-01T13:26:31.804Z</time></trkpt><trkpt lat="38.6770881" lon="20.6975112"><ele>5.25</ele><time>2026-05-01T13:26:32.805Z</time></trkpt><trkpt lat="38.6772207" lon="20.6975984"><ele>4.5</ele><time>2026-05-01T13:26:33.803Z</time></trkpt><trkpt lat="38.6773493" lon="20.6976845"><ele>3.75</ele><time>2026-05-01T13:26:34.805Z</time></trkpt><trkpt lat="38.6774763" lon="20.6977625"><ele>3.0</ele><time>2026-05-01T13:26:35.806Z</time></trkpt><trkpt lat="38.6775961" lon="20.6978421"><ele>2.3333333333333335</ele><time>2026-05-01T13:26:36.803Z</time></trkpt><trkpt lat="38.6777255" lon="20.6979172"><ele>1.6666666666666665</ele><time>2026-05-01T13:26:37.803Z</time></trkpt><trkpt lat="38.6778598" lon="20.6979972"><ele>1.0</ele><time>2026-05-01T13:26:38.805Z</time></trkpt><trkpt lat="38.6780118" lon="20.6980829"><ele>0.6666666666666666</ele><time>2026-05-01T13:26:39.806Z</time></trkpt><trkpt lat="38.6781714" lon="20.6981605"><ele>0.3333333333333333</ele><time>2026-05-01T13:26:40.806Z</time></trkpt><trkpt lat="38.6783157" lon="20.6982299"><ele>0.0</ele><time>2026-05-01T13:26:41.802Z</time></trkpt><trkpt lat="38.678458" lon="20.6982853"><ele>0.0</ele><time>2026-05-01T13:26:42.803Z</time></trkpt><trkpt lat="38.6785921" lon="20.6983263"><ele>0.0</ele><time>2026-05-01T13:26:43.804Z</time></trkpt><trkpt lat="38.6787269" lon="20.6983471"><ele>0.0</ele><time>2026-05-01T13:26:44.803Z</time></trkpt><trkpt lat="38.6788705" lon="20.6983531"><ele>0.0</ele><time>2026-05-01T13:26:45.802Z</time></trkpt><trkpt lat="38.6790081" lon="20.6983429"><ele>0.0</ele><time>2026-05-01T13:26:46.802Z</time></trkpt><trkpt lat="38.6791499" lon="20.6983275"><ele>0.0</ele><time>2026-05-01T13:26:47.805Z</time></trkpt><trkpt lat="38.6792916" lon="20.6983114"><ele>0.0</ele><time>2026-05-01T13:26:48.804Z</time></trkpt><trkpt lat="38.6794383" lon="20.6982928"><ele>0.0</ele><time>2026-05-01T13:26:49.805Z</time></trkpt><trkpt lat="38.6795795" lon="20.6982715"><ele>0.0</ele><time>2026-05-01T13:26:50.805Z</time></trkpt><trkpt lat="38.6797235" lon="20.6982516"><ele>0.0</ele><time>2026-05-01T13:26:51.806Z</time></trkpt><trkpt lat="38.6798649" lon="20.6982349"><ele>0.0</ele><time>2026-05-01T13:26:52.805Z</time></trkpt><trkpt lat="38.6800089" lon="20.6982147"><ele>0.0</ele><time>2026-05-01T13:26:53.805Z</time></trkpt><trkpt lat="38.6801453" lon="20.6981972"><ele>0.0</ele><time>2026-05-01T13:26:54.804Z</time></trkpt><trkpt lat="38.6802834" lon="20.6981745"><ele>0.0</ele><time>2026-05-01T13:26:55.804Z</time></trkpt><trkpt lat="38.6804186" lon="20.6981531"><ele>0.0</ele><time>2026-05-01T13:26:56.805Z</time></trkpt><trkpt lat="38.680557" lon="20.6981379"><ele>0.0</ele><time>2026-05-01T13:26:57.803Z</time></trkpt><trkpt lat="38.6806945" lon="20.6981252"><ele>0.0</ele><time>2026-05-01T13:26:58.805Z</time></trkpt><trkpt lat="38.6808354" lon="20.6981081"><ele>0.0</ele><time>2026-05-01T13:26:59.803Z</time></trkpt><trkpt lat="38.6809761" lon="20.6981038"><ele>0.0</ele><time>2026-05-01T13:27:00.804Z</time></trkpt><trkpt lat="38.6811112" lon="20.6981084"><ele>0.0</ele><time>2026-05-01T13:27:01.803Z</time></trkpt><trkpt lat="38.6812428" lon="20.6981252"><ele>0.5</ele><time>2026-05-01T13:27:02.803Z</time></trkpt><trkpt lat="38.6813758" lon="20.6981413"><ele>1.0</ele><time>2026-05-01T13:27:03.803Z</time></trkpt><trkpt lat="38.6815043" lon="20.6981591"><ele>1.5</ele><time>2026-05-01T13:27:04.805Z</time></trkpt><trkpt lat="38.6816293" lon="20.6981802"><ele>2.0</ele><time>2026-05-01T13:27:05.805Z</time></trkpt><trkpt lat="38.6817586" lon="20.6982094"><ele>2.0</ele><time>2026-05-01T13:27:06.805Z</time></trkpt><trkpt lat="38.6818924" lon="20.6982133"><ele>2.0</ele><time>2026-05-01T13:27:07.804Z</time></trkpt><trkpt lat="38.6820156" lon="20.6982395"><ele>2.0</ele><time>2026-05-01T13:27:08.805Z</time></trkpt><trkpt lat="38.6821365" lon="20.6982632"><ele>2.0</ele><time>2026-05-01T13:27:09.804Z</time></trkpt><trkpt lat="38.6822536" lon="20.6982868"><ele>2.2</ele><time>2026-05-01T13:27:10.802Z</time></trkpt><trkpt lat="38.6823598" lon="20.6982995"><ele>2.4000000000000004</ele><time>2026-05-01T13:27:11.804Z</time></trkpt><trkpt lat="38.6824675" lon="20.6983126"><ele>2.5999999999999996</ele><time>2026-05-01T13:27:12.803Z</time></trkpt><trkpt lat="38.682579" lon="20.698322"><ele>2.8</ele><time>2026-05-01T13:27:13.803Z</time></trkpt><trkpt lat="38.6826887" lon="20.6983315"><ele>3.0</ele><time>2026-05-01T13:27:14.804Z</time></trkpt><trkpt lat="38.6828019" lon="20.6983479"><ele>3.0</ele><time>2026-05-01T13:27:15.805Z</time></trkpt><trkpt lat="38.682914" lon="20.6983595"><ele>3.0</ele><time>2026-05-01T13:27:16.804Z</time></trkpt><trkpt lat="38.6830301" lon="20.6983707"><ele>3.0</ele><time>2026-05-01T13:27:17.804Z</time></trkpt><trkpt lat="38.6831516" lon="20.6983828"><ele>3.0</ele><time>2026-05-01T13:27:18.804Z</time></trkpt><trkpt lat="38.6832696" lon="20.698391"><ele>3.0</ele><time>2026-05-01T13:27:19.806Z</time></trkpt><trkpt lat="38.6834025" lon="20.6983944"><ele>3.0</ele><time>2026-05-01T13:27:20.804Z</time></trkpt><trkpt lat="38.6835394" lon="20.6983972"><ele>3.0</ele><time>2026-05-01T13:27:21.805Z</time></trkpt><trkpt lat="38.6836762" lon="20.6983992"><ele>3.0</ele><time>2026-05-01T13:27:22.806Z</time></trkpt><trkpt lat="38.6838049" lon="20.6984039"><ele>3.25</ele><time>2026-05-01T13:27:23.804Z</time></trkpt><trkpt lat="38.6839342" lon="20.6984073"><ele>3.5</ele><time>2026-05-01T13:27:24.804Z</time></trkpt><trkpt lat="38.6840671" lon="20.6984077"><ele>3.75</ele><time>2026-05-01T13:27:25.806Z</time></trkpt><trkpt lat="38.6841985" lon="20.6984082"><ele>4.0</ele><time>2026-05-01T13:27:26.804Z</time></trkpt><trkpt lat="38.6843414" lon="20.6984066"><ele>4.0</ele><time>2026-05-01T13:27:27.803Z</time></trkpt><trkpt lat="38.6844754" lon="20.6984103"><ele>4.0</ele><time>2026-05-01T13:27:28.804Z</time></trkpt><trkpt lat="38.6846125" lon="20.6984143"><ele>4.0</ele><time>2026-05-01T13:27:29.803Z</time></trkpt><trkpt lat="38.6847523" lon="20.6984223"><ele>4.0</ele><time>2026-05-01T13:27:30.803Z</time></trkpt><trkpt lat="38.6848931" lon="20.6984363"><ele>4.0</ele><time>2026-05-01T13:27:31.805Z</time></trkpt><trkpt lat="38.6850299" lon="20.6984589"><ele>4.0</ele><time>2026-05-01T13:27:32.803Z</time></trkpt><trkpt lat="38.6851665" lon="20.6984884"><ele>4.0</ele><time>2026-05-01T13:27:33.803Z</time></trkpt><trkpt lat="38.6853083" lon="20.6984895"><ele>4.0</ele><time>2026-05-01T13:27:34.802Z</time></trkpt><trkpt lat="38.6854421" lon="20.6985051"><ele>4.25</ele><time>2026-05-01T13:27:35.805Z</time></trkpt><trkpt lat="38.6855781" lon="20.6985197"><ele>4.5</ele><time>2026-05-01T13:27:36.805Z</time></trkpt><trkpt lat="38.6857133" lon="20.6985244"><ele>4.75</ele><time>2026-05-01T13:27:37.806Z</time></trkpt><trkpt lat="38.6858491" lon="20.6985245"><ele>5.0</ele><time>2026-05-01T13:27:38.807Z</time></trkpt><trkpt lat="38.6859817" lon="20.6985223"><ele>5.5</ele><time>2026-05-01T13:27:39.806Z</time></trkpt><trkpt lat="38.6861125" lon="20.6985255"><ele>6.0</ele><time>2026-05-01T13:27:40.806Z</time></trkpt><trkpt lat="38.6862422" lon="20.6985243"><ele>6.5</ele><time>2026-05-01T13:27:41.804Z</time></trkpt><trkpt lat="38.6863681" lon="20.6985349"><ele>7.0</ele><time>2026-05-01T13:27:42.803Z</time></trkpt><trkpt lat="38.6864964" lon="20.6985416"><ele>7.0</ele><time>2026-05-01T13:27:43.804Z</time></trkpt><trkpt lat="38.6866224" lon="20.6985554"><ele>7.0</ele><time>2026-05-01T13:27:44.805Z</time></trkpt><trkpt lat="38.6867454" lon="20.6985689"><ele>7.0</ele><time>2026-05-01T13:27:45.807Z</time></trkpt><trkpt lat="38.6868664" lon="20.698585"><ele>7.0</ele><time>2026-05-01T13:27:46.803Z</time></trkpt><trkpt lat="38.6869932" lon="20.6986028"><ele>5.5</ele><time>2026-05-01T13:27:47.803Z</time></trkpt><trkpt lat="38.6871174" lon="20.6986185"><ele>4.0</ele><time>2026-05-01T13:27:48.805Z</time></trkpt><trkpt lat="38.6872431" lon="20.6986364"><ele>2.5</ele><time>2026-05-01T13:27:49.804Z</time></trkpt><trkpt lat="38.6873697" lon="20.6986461"><ele>1.0</ele><time>2026-05-01T13:27:50.803Z</time></trkpt><trkpt lat="38.6875004" lon="20.6986496"><ele>1.0</ele><time>2026-05-01T13:27:51.803Z</time></trkpt><trkpt lat="38.6876274" lon="20.698661"><ele>1.0</ele><time>2026-05-01T13:27:52.804Z</time></trkpt><trkpt lat="38.687757" lon="20.6986722"><ele>1.0</ele><time>2026-05-01T13:27:53.805Z</time></trkpt><trkpt lat="38.687886" lon="20.6986816"><ele>1.0</ele><time>2026-05-01T13:27:54.804Z</time></trkpt><trkpt lat="38.6880135" lon="20.6986922"><ele>2.25</ele><time>2026-05-01T13:27:55.803Z</time></trkpt><trkpt lat="38.6881437" lon="20.6986923"><ele>3.5</ele><time>2026-05-01T13:27:56.804Z</time></trkpt><trkpt lat="38.6882712" lon="20.6987022"><ele>4.75</ele><time>2026-05-01T13:27:57.806Z</time></trkpt><trkpt lat="38.6884021" lon="20.6987098"><ele>6.0</ele><time>2026-05-01T13:27:58.804Z</time></trkpt><trkpt lat="38.688532" lon="20.6987168"><ele>6.25</ele><time>2026-05-01T13:27:59.803Z</time></trkpt><trkpt lat="38.6886628" lon="20.6987339"><ele>6.5</ele><time>2026-05-01T13:28:00.803Z</time></trkpt><trkpt lat="38.6887938" lon="20.6987408"><ele>6.75</ele><time>2026-05-01T13:28:01.804Z</time></trkpt><trkpt lat="38.6889206" lon="20.6987457"><ele>7.0</ele><time>2026-05-01T13:28:02.804Z</time></trkpt><trkpt lat="38.6890458" lon="20.6987546"><ele>7.0</ele><time>2026-05-01T13:28:03.804Z</time></trkpt><trkpt lat="38.6891705" lon="20.6987635"><ele>7.0</ele><time>2026-05-01T13:28:04.805Z</time></trkpt><trkpt lat="38.6892892" lon="20.6987682"><ele>7.0</ele><time>2026-05-01T13:28:05.806Z</time></trkpt><trkpt lat="38.689409" lon="20.6987689"><ele>7.0</ele><time>2026-05-01T13:28:06.804Z</time></trkpt><trkpt lat="38.6895306" lon="20.6987604"><ele>6.0</ele><time>2026-05-01T13:28:07.804Z</time></trkpt><trkpt lat="38.6896537" lon="20.6987388"><ele>5.0</ele><time>2026-05-01T13:28:08.803Z</time></trkpt><trkpt lat="38.6897749" lon="20.6987019"><ele>4.0</ele><time>2026-05-01T13:28:09.803Z</time></trkpt><trkpt lat="38.6898935" lon="20.6986595"><ele>3.0</ele><time>2026-05-01T13:28:10.804Z</time></trkpt><trkpt lat="38.6900076" lon="20.6986088"><ele>3.75</ele><time>2026-05-01T13:28:11.804Z</time></trkpt><trkpt lat="38.6901163" lon="20.6985552"><ele>4.5</ele><time>2026-05-01T13:28:12.804Z</time></trkpt><trkpt lat="38.6902234" lon="20.6985031"><ele>5.25</ele><time>2026-05-01T13:28:13.802Z</time></trkpt><trkpt lat="38.6903287" lon="20.698451"><ele>6.0</ele><time>2026-05-01T13:28:14.805Z</time></trkpt><trkpt lat="38.6904366" lon="20.6984062"><ele>6.0</ele><time>2026-05-01T13:28:15.804Z</time></trkpt><trkpt lat="38.6905501" lon="20.6983765"><ele>6.0</ele><time>2026-05-01T13:28:16.803Z</time></trkpt><trkpt lat="38.6906675" lon="20.6983477"><ele>6.0</ele><time>2026-05-01T13:28:17.804Z</time></trkpt><trkpt lat="38.6907809" lon="20.6983358"><ele>6.0</ele><time>2026-05-01T13:28:18.804Z</time></trkpt><trkpt lat="38.6908951" lon="20.6983696"><ele>6.0</ele><time>2026-05-01T13:28:19.804Z</time></trkpt><trkpt lat="38.6909984" lon="20.6984168"><ele>6.0</ele><time>2026-05-01T13:28:20.804Z</time></trkpt><trkpt lat="38.6910981" lon="20.698474"><ele>6.0</ele><time>2026-05-01T13:28:21.804Z</time></trkpt><trkpt lat="38.6912024" lon="20.6985499"><ele>6.0</ele><time>2026-05-01T13:28:22.803Z</time></trkpt><trkpt lat="38.6913131" lon="20.6986235"><ele>5.25</ele><time>2026-05-01T13:28:23.803Z</time></trkpt><trkpt lat="38.6914229" lon="20.6987082"><ele>4.5</ele><time>2026-05-01T13:28:24.804Z</time></trkpt><trkpt lat="38.6915383" lon="20.6987985"><ele>3.75</ele><time>2026-05-01T13:28:25.806Z</time></trkpt><trkpt lat="38.691656" lon="20.6988852"><ele>3.0</ele><time>2026-05-01T13:28:26.804Z</time></trkpt><trkpt lat="38.6917754" lon="20.6989719"><ele>3.0</ele><time>2026-05-01T13:28:27.805Z</time></trkpt><trkpt lat="38.6919015" lon="20.699059"><ele>3.0</ele><time>2026-05-01T13:28:28.802Z</time></trkpt><trkpt lat="38.6920207" lon="20.6991525"><ele>3.0</ele><time>2026-05-01T13:28:29.805Z</time></trkpt><trkpt lat="38.6921414" lon="20.6992473"><ele>3.0</ele><time>2026-05-01T13:28:30.803Z</time></trkpt><trkpt lat="38.6922662" lon="20.6993366"><ele>3.75</ele><time>2026-05-01T13:28:31.802Z</time></trkpt><trkpt lat="38.6923912" lon="20.6994295"><ele>4.5</ele><time>2026-05-01T13:28:32.803Z</time></trkpt><trkpt lat="38.6925141" lon="20.6995254"><ele>5.25</ele><time>2026-05-01T13:28:33.803Z</time></trkpt><trkpt lat="38.6926377" lon="20.6996105"><ele>6.0</ele><time>2026-05-01T13:28:34.805Z</time></trkpt><trkpt lat="38.6927617" lon="20.6996962"><ele>6.75</ele><time>2026-05-01T13:28:35.804Z</time></trkpt><trkpt lat="38.6928938" lon="20.6997834"><ele>7.5</ele><time>2026-05-01T13:28:36.803Z</time></trkpt><trkpt lat="38.6930231" lon="20.6998654"><ele>8.25</ele><time>2026-05-01T13:28:37.807Z</time></trkpt><trkpt lat="38.6931519" lon="20.699949"><ele>9.0</ele><time>2026-05-01T13:28:38.803Z</time></trkpt><trkpt lat="38.6932835" lon="20.7000358"><ele>9.0</ele><time>2026-05-01T13:28:39.804Z</time></trkpt><trkpt lat="38.6934141" lon="20.7001246"><ele>9.0</ele><time>2026-05-01T13:28:40.804Z</time></trkpt><trkpt lat="38.6935478" lon="20.700216"><ele>9.0</ele><time>2026-05-01T13:28:41.805Z</time></trkpt><trkpt lat="38.6936872" lon="20.70032"><ele>9.0</ele><time>2026-05-01T13:28:42.804Z</time></trkpt><trkpt lat="38.6938351" lon="20.7004245"><ele>9.0</ele><time>2026-05-01T13:28:43.804Z</time></trkpt><trkpt lat="38.693991" lon="20.7005315"><ele>9.0</ele><time>2026-05-01T13:28:44.807Z</time></trkpt><trkpt lat="38.6941509" lon="20.7006422"><ele>9.0</ele><time>2026-05-01T13:28:45.805Z</time></trkpt><trkpt lat="38.6943067" lon="20.7007484"><ele>9.0</ele><time>2026-05-01T13:28:46.804Z</time></trkpt><trkpt lat="38.6944616" lon="20.7008538"><ele>9.0</ele><time>2026-05-01T13:28:47.803Z</time></trkpt><trkpt lat="38.69461" lon="20.7009646"><ele>9.666666666666666</ele><time>2026-05-01T13:28:48.804Z</time></trkpt><trkpt lat="38.6947594" lon="20.7010776"><ele>10.333333333333332</ele><time>2026-05-01T13:28:49.805Z</time></trkpt><trkpt lat="38.6949099" lon="20.7011832"><ele>11.0</ele><time>2026-05-01T13:28:50.805Z</time></trkpt><trkpt lat="38.6950573" lon="20.7012862"><ele>11.0</ele><time>2026-05-01T13:28:51.803Z</time></trkpt><trkpt lat="38.6952103" lon="20.7013822"><ele>11.0</ele><time>2026-05-01T13:28:52.804Z</time></trkpt><trkpt lat="38.6953586" lon="20.7014831"><ele>11.0</ele><time>2026-05-01T13:28:53.803Z</time></trkpt><trkpt lat="38.6955072" lon="20.7015868"><ele>10.333333333333332</ele><time>2026-05-01T13:28:54.802Z</time></trkpt><trkpt lat="38.6956566" lon="20.7016939"><ele>9.666666666666666</ele><time>2026-05-01T13:28:55.806Z</time></trkpt><trkpt lat="38.6958145" lon="20.7018144"><ele>9.0</ele><time>2026-05-01T13:28:56.804Z</time></trkpt><trkpt lat="38.6959694" lon="20.7019311"><ele>9.666666666666666</ele><time>2026-05-01T13:28:57.804Z</time></trkpt><trkpt lat="38.6961252" lon="20.7020489"><ele>10.333333333333332</ele><time>2026-05-01T13:28:58.803Z</time></trkpt><trkpt lat="38.6962881" lon="20.7021656"><ele>11.0</ele><time>2026-05-01T13:28:59.803Z</time></trkpt><trkpt lat="38.6964497" lon="20.702279"><ele>11.0</ele><time>2026-05-01T13:29:00.803Z</time></trkpt><trkpt lat="38.6966126" lon="20.7023916"><ele>11.0</ele><time>2026-05-01T13:29:01.805Z</time></trkpt><trkpt lat="38.6967714" lon="20.7025073"><ele>11.0</ele><time>2026-05-01T13:29:02.803Z</time></trkpt><trkpt lat="38.6969321" lon="20.7026267"><ele>11.0</ele><time>2026-05-01T13:29:03.803Z</time></trkpt><trkpt lat="38.6970929" lon="20.7027389"><ele>11.0</ele><time>2026-05-01T13:29:04.802Z</time></trkpt><trkpt lat="38.6972533" lon="20.7028536"><ele>11.0</ele><time>2026-05-01T13:29:05.806Z</time></trkpt><trkpt lat="38.697412" lon="20.7029671"><ele>10.333333333333332</ele><time>2026-05-01T13:29:06.802Z</time></trkpt><trkpt lat="38.6975687" lon="20.7030807"><ele>9.666666666666666</ele><time>2026-05-01T13:29:07.804Z</time></trkpt><trkpt lat="38.6977265" lon="20.7031962"><ele>9.0</ele><time>2026-05-01T13:29:08.804Z</time></trkpt><trkpt lat="38.6978843" lon="20.7033127"><ele>9.0</ele><time>2026-05-01T13:29:09.804Z</time></trkpt><trkpt lat="38.6980421" lon="20.7034387"><ele>9.0</ele><time>2026-05-01T13:29:10.802Z</time></trkpt><trkpt lat="38.6981977" lon="20.7035467"><ele>9.0</ele><time>2026-05-01T13:29:11.804Z</time></trkpt><trkpt lat="38.6983496" lon="20.7036631"><ele>8.333333333333334</ele><time>2026-05-01T13:29:12.805Z</time></trkpt><trkpt lat="38.6984993" lon="20.7037752"><ele>7.666666666666667</ele><time>2026-05-01T13:29:13.803Z</time></trkpt><trkpt lat="38.698645" lon="20.7038813"><ele>7.0</ele><time>2026-05-01T13:29:14.805Z</time></trkpt><trkpt lat="38.6987672" lon="20.7039724"><ele>6.8</ele><time>2026-05-01T13:29:15.804Z</time></trkpt><trkpt lat="38.698886" lon="20.7040582"><ele>6.6</ele><time>2026-05-01T13:29:16.803Z</time></trkpt><trkpt lat="38.6989849" lon="20.7041322"><ele>6.3999999999999995</ele><time>2026-05-01T13:29:17.803Z</time></trkpt><trkpt lat="38.6990697" lon="20.7041908"><ele>6.199999999999999</ele><time>2026-05-01T13:29:18.802Z</time></trkpt><trkpt lat="38.6991527" lon="20.7042187"><ele>6.0</ele><time>2026-05-01T13:29:19.804Z</time></trkpt><trkpt lat="38.699232" lon="20.7042235"><ele>6.0</ele><time>2026-05-01T13:29:20.803Z</time></trkpt><trkpt lat="38.6993126" lon="20.7041999"><ele>6.0</ele><time>2026-05-01T13:29:21.802Z</time></trkpt><trkpt lat="38.6993955" lon="20.704156"><ele>6.0</ele><time>2026-05-01T13:29:22.805Z</time></trkpt><trkpt lat="38.6994882" lon="20.7041093"><ele>6.0</ele><time>2026-05-01T13:29:23.802Z</time></trkpt><trkpt lat="38.699601" lon="20.7040734"><ele>6.0</ele><time>2026-05-01T13:29:24.803Z</time></trkpt><trkpt lat="38.6997271" lon="20.7040412"><ele>5.5</ele><time>2026-05-01T13:29:25.804Z</time></trkpt><trkpt lat="38.6998642" lon="20.7040075"><ele>5.0</ele><time>2026-05-01T13:29:26.803Z</time></trkpt><trkpt lat="38.7000033" lon="20.7039734"><ele>4.5</ele><time>2026-05-01T13:29:27.804Z</time></trkpt><trkpt lat="38.7001461" lon="20.7039381"><ele>4.0</ele><time>2026-05-01T13:29:28.803Z</time></trkpt><trkpt lat="38.7002908" lon="20.7039058"><ele>3.6666666666666665</ele><time>2026-05-01T13:29:29.805Z</time></trkpt><trkpt lat="38.7004411" lon="20.7038701"><ele>3.333333333333333</ele><time>2026-05-01T13:29:30.804Z</time></trkpt><trkpt lat="38.7006029" lon="20.7038422"><ele>3.0</ele><time>2026-05-01T13:29:31.803Z</time></trkpt><trkpt lat="38.700767" lon="20.7038291"><ele>3.0</ele><time>2026-05-01T13:29:32.805Z</time></trkpt><trkpt lat="38.7009383" lon="20.703818"><ele>3.0</ele><time>2026-05-01T13:29:33.804Z</time></trkpt><trkpt lat="38.7011271" lon="20.7038097"><ele>3.0</ele><time>2026-05-01T13:29:34.802Z</time></trkpt><trkpt lat="38.7013286" lon="20.7038051"><ele>3.0</ele><time>2026-05-01T13:29:35.805Z</time></trkpt><trkpt lat="38.7015477" lon="20.7038054"><ele>3.0</ele><time>2026-05-01T13:29:36.804Z</time></trkpt><trkpt lat="38.7017895" lon="20.7038023"><ele>3.0</ele><time>2026-05-01T13:29:37.801Z</time></trkpt><trkpt lat="38.7020195" lon="20.7037952"><ele>3.0</ele><time>2026-05-01T13:29:38.803Z</time></trkpt><trkpt lat="38.7022465" lon="20.7038059"><ele>3.0</ele><time>2026-05-01T13:29:39.804Z</time></trkpt><trkpt lat="38.7024665" lon="20.7038075"><ele>3.0</ele><time>2026-05-01T13:29:40.803Z</time></trkpt><trkpt lat="38.7026825" lon="20.70381"><ele>3.0</ele><time>2026-05-01T13:29:41.803Z</time></trkpt><trkpt lat="38.702902" lon="20.7038116"><ele>2.6666666666666665</ele><time>2026-05-01T13:29:42.802Z</time></trkpt><trkpt lat="38.703113" lon="20.7038103"><ele>2.333333333333333</ele><time>2026-05-01T13:29:43.806Z</time></trkpt><trkpt lat="38.7033193" lon="20.7038068"><ele>2.0</ele><time>2026-05-01T13:29:44.804Z</time></trkpt><trkpt lat="38.7035238" lon="20.7038026"><ele>2.333333333333333</ele><time>2026-05-01T13:29:45.803Z</time></trkpt><trkpt lat="38.7037255" lon="20.7038003"><ele>2.6666666666666665</ele><time>2026-05-01T13:29:46.802Z</time></trkpt><trkpt lat="38.7039238" lon="20.7037997"><ele>3.0</ele><time>2026-05-01T13:29:47.805Z</time></trkpt><trkpt lat="38.7041218" lon="20.703801"><ele>3.0</ele><time>2026-05-01T13:29:48.805Z</time></trkpt><trkpt lat="38.7043159" lon="20.7038107"><ele>3.0</ele><time>2026-05-01T13:29:49.803Z</time></trkpt><trkpt lat="38.7045081" lon="20.7038137"><ele>3.0</ele><time>2026-05-01T13:29:50.802Z</time></trkpt><trkpt lat="38.7046999" lon="20.7038129"><ele>3.333333333333333</ele><time>2026-05-01T13:29:51.804Z</time></trkpt><trkpt lat="38.7048876" lon="20.7038142"><ele>3.6666666666666665</ele><time>2026-05-01T13:29:52.804Z</time></trkpt><trkpt lat="38.7050664" lon="20.703815"><ele>4.0</ele><time>2026-05-01T13:29:53.804Z</time></trkpt><trkpt lat="38.7052402" lon="20.7038135"><ele>4.333333333333333</ele><time>2026-05-01T13:29:54.804Z</time></trkpt><trkpt lat="38.7054106" lon="20.7038169"><ele>4.666666666666667</ele><time>2026-05-01T13:29:55.803Z</time></trkpt><trkpt lat="38.7055796" lon="20.7038192"><ele>5.0</ele><time>2026-05-01T13:29:56.806Z</time></trkpt><trkpt lat="38.7057384" lon="20.7038214"><ele>5.0</ele><time>2026-05-01T13:29:57.803Z</time></trkpt><trkpt lat="38.705891" lon="20.7038243"><ele>5.0</ele><time>2026-05-01T13:29:58.803Z</time></trkpt><trkpt lat="38.7060533" lon="20.7038463"><ele>5.0</ele><time>2026-05-01T13:29:59.804Z</time></trkpt><trkpt lat="38.7062222" lon="20.7038778"><ele>5.333333333333334</ele><time>2026-05-01T13:30:00.802Z</time></trkpt><trkpt lat="38.7063982" lon="20.7039205"><ele>5.666666666666667</ele><time>2026-05-01T13:30:01.804Z</time></trkpt><trkpt lat="38.7065697" lon="20.7039715"><ele>6.0</ele><time>2026-05-01T13:30:02.802Z</time></trkpt><trkpt lat="38.7067408" lon="20.7040259"><ele>6.0</ele><time>2026-05-01T13:30:03.804Z</time></trkpt><trkpt lat="38.7069057" lon="20.704081"><ele>6.0</ele><time>2026-05-01T13:30:04.803Z</time></trkpt><trkpt lat="38.7070715" lon="20.7041348"><ele>6.0</ele><time>2026-05-01T13:30:05.803Z</time></trkpt><trkpt lat="38.7072403" lon="20.704196"><ele>6.333333333333334</ele><time>2026-05-01T13:30:06.804Z</time></trkpt><trkpt lat="38.707411" lon="20.7042519"><ele>6.666666666666667</ele><time>2026-05-01T13:30:07.802Z</time></trkpt><trkpt lat="38.7075811" lon="20.7043099"><ele>7.0</ele><time>2026-05-01T13:30:08.806Z</time></trkpt><trkpt lat="38.7077493" lon="20.7043698"><ele>6.666666666666667</ele><time>2026-05-01T13:30:09.807Z</time></trkpt><trkpt lat="38.7079223" lon="20.7044239"><ele>6.333333333333334</ele><time>2026-05-01T13:30:10.804Z</time></trkpt><trkpt lat="38.7080972" lon="20.7044814"><ele>6.0</ele><time>2026-05-01T13:30:11.803Z</time></trkpt><trkpt lat="38.7082733" lon="20.7045346"><ele>6.0</ele><time>2026-05-01T13:30:12.804Z</time></trkpt><trkpt lat="38.7084384" lon="20.7045995"><ele>6.0</ele><time>2026-05-01T13:30:13.804Z</time></trkpt><trkpt lat="38.7085952" lon="20.7046824"><ele>6.0</ele><time>2026-05-01T13:30:14.804Z</time></trkpt><trkpt lat="38.7087503" lon="20.7047804"><ele>6.666666666666666</ele><time>2026-05-01T13:30:15.803Z</time></trkpt><trkpt lat="38.7089039" lon="20.7048773"><ele>7.333333333333333</ele><time>2026-05-01T13:30:16.805Z</time></trkpt><trkpt lat="38.7090566" lon="20.7049785"><ele>8.0</ele><time>2026-05-01T13:30:17.804Z</time></trkpt><trkpt lat="38.7092037" lon="20.7050773"><ele>8.0</ele><time>2026-05-01T13:30:18.803Z</time></trkpt><trkpt lat="38.7093463" lon="20.7051747"><ele>8.0</ele><time>2026-05-01T13:30:19.803Z</time></trkpt><trkpt lat="38.7094876" lon="20.7052822"><ele>8.0</ele><time>2026-05-01T13:30:20.805Z</time></trkpt><trkpt lat="38.7096277" lon="20.7054095"><ele>8.666666666666666</ele><time>2026-05-01T13:30:21.804Z</time></trkpt><trkpt lat="38.7097682" lon="20.7055532"><ele>9.333333333333334</ele><time>2026-05-01T13:30:22.803Z</time></trkpt><trkpt lat="38.7099111" lon="20.7057"><ele>10.0</ele><time>2026-05-01T13:30:23.806Z</time></trkpt><trkpt lat="38.710055" lon="20.705855"><ele>10.0</ele><time>2026-05-01T13:30:24.803Z</time></trkpt><trkpt lat="38.7101995" lon="20.7060074"><ele>10.0</ele><time>2026-05-01T13:30:25.803Z</time></trkpt><trkpt lat="38.7103433" lon="20.7061638"><ele>10.0</ele><time>2026-05-01T13:30:26.802Z</time></trkpt><trkpt lat="38.7104881" lon="20.7063256"><ele>9.333333333333334</ele><time>2026-05-01T13:30:27.807Z</time></trkpt><trkpt lat="38.7106406" lon="20.7064849"><ele>8.666666666666666</ele><time>2026-05-01T13:30:28.803Z</time></trkpt><trkpt lat="38.7107959" lon="20.7066463"><ele>8.0</ele><time>2026-05-01T13:30:29.804Z</time></trkpt><trkpt lat="38.710948" lon="20.7068102"><ele>9.0</ele><time>2026-05-01T13:30:30.801Z</time></trkpt><trkpt lat="38.7110952" lon="20.7069742"><ele>10.0</ele><time>2026-05-01T13:30:31.803Z</time></trkpt><trkpt lat="38.7112421" lon="20.7071443"><ele>11.0</ele><time>2026-05-01T13:30:32.803Z</time></trkpt><trkpt lat="38.7113866" lon="20.7073039"><ele>11.0</ele><time>2026-05-01T13:30:33.802Z</time></trkpt><trkpt lat="38.7115365" lon="20.7074586"><ele>11.0</ele><time>2026-05-01T13:30:34.804Z</time></trkpt><trkpt lat="38.7116823" lon="20.7076107"><ele>11.0</ele><time>2026-05-01T13:30:35.804Z</time></trkpt><trkpt lat="38.7118258" lon="20.7077628"><ele>10.666666666666666</ele><time>2026-05-01T13:30:36.803Z</time></trkpt><trkpt lat="38.7119718" lon="20.7079048"><ele>10.333333333333334</ele><time>2026-05-01T13:30:37.802Z</time></trkpt><trkpt lat="38.7121079" lon="20.7080568"><ele>10.0</ele><time>2026-05-01T13:30:38.805Z</time></trkpt><trkpt lat="38.712249" lon="20.7082125"><ele>10.0</ele><time>2026-05-01T13:30:39.805Z</time></trkpt><trkpt lat="38.7123881" lon="20.7083597"><ele>10.0</ele><time>2026-05-01T13:30:40.804Z</time></trkpt><trkpt lat="38.7125281" lon="20.7085067"><ele>10.0</ele><time>2026-05-01T13:30:41.804Z</time></trkpt><trkpt lat="38.7126659" lon="20.7086621"><ele>10.0</ele><time>2026-05-01T13:30:42.804Z</time></trkpt><trkpt lat="38.7128091" lon="20.7088106"><ele>10.0</ele><time>2026-05-01T13:30:43.803Z</time></trkpt><trkpt lat="38.7129451" lon="20.7089591"><ele>10.0</ele><time>2026-05-01T13:30:44.803Z</time></trkpt><trkpt lat="38.7130776" lon="20.7091007"><ele>10.0</ele><time>2026-05-01T13:30:45.802Z</time></trkpt><trkpt lat="38.7132039" lon="20.7092323"><ele>10.0</ele><time>2026-05-01T13:30:46.802Z</time></trkpt><trkpt lat="38.7133244" lon="20.7093604"><ele>10.0</ele><time>2026-05-01T13:30:47.804Z</time></trkpt><trkpt lat="38.7134379" lon="20.7094844"><ele>10.0</ele><time>2026-05-01T13:30:48.802Z</time></trkpt><trkpt lat="38.7135418" lon="20.7095989"><ele>10.0</ele><time>2026-05-01T13:30:49.805Z</time></trkpt><trkpt lat="38.713631" lon="20.7097215"><ele>10.0</ele><time>2026-05-01T13:30:50.802Z</time></trkpt><trkpt lat="38.7137335" lon="20.7098276"><ele>10.0</ele><time>2026-05-01T13:30:51.803Z</time></trkpt><trkpt lat="38.713838" lon="20.7099366"><ele>10.25</ele><time>2026-05-01T13:30:52.804Z</time></trkpt><trkpt lat="38.7139481" lon="20.7100454"><ele>10.5</ele><time>2026-05-01T13:30:53.806Z</time></trkpt><trkpt lat="38.7140584" lon="20.7101538"><ele>10.75</ele><time>2026-05-01T13:30:54.803Z</time></trkpt><trkpt lat="38.7141665" lon="20.7102668"><ele>11.0</ele><time>2026-05-01T13:30:55.805Z</time></trkpt><trkpt lat="38.7142812" lon="20.7103815"><ele>11.0</ele><time>2026-05-01T13:30:56.804Z</time></trkpt><trkpt lat="38.71439" lon="20.7104934"><ele>11.0</ele><time>2026-05-01T13:30:57.805Z</time></trkpt><trkpt lat="38.7144931" lon="20.7106028"><ele>11.0</ele><time>2026-05-01T13:30:58.805Z</time></trkpt><trkpt lat="38.7145863" lon="20.7107037"><ele>11.0</ele><time>2026-05-01T13:30:59.804Z</time></trkpt><trkpt lat="38.7146724" lon="20.7107985"><ele>10.200000000000001</ele><time>2026-05-01T13:31:00.802Z</time></trkpt><trkpt lat="38.7147524" lon="20.7108925"><ele>9.4</ele><time>2026-05-01T13:31:01.805Z</time></trkpt><trkpt lat="38.7148254" lon="20.7109857"><ele>8.6</ele><time>2026-05-01T13:31:02.804Z</time></trkpt><trkpt lat="38.7148957" lon="20.7110776"><ele>7.8</ele><time>2026-05-01T13:31:03.803Z</time></trkpt><trkpt lat="38.7149682" lon="20.7111731"><ele>7.0</ele><time>2026-05-01T13:31:04.804Z</time></trkpt><trkpt lat="38.7150416" lon="20.7112678"><ele>7.0</ele><time>2026-05-01T13:31:05.806Z</time></trkpt><trkpt lat="38.7151144" lon="20.7113621"><ele>6.999999999999999</ele><time>2026-05-01T13:31:06.802Z</time></trkpt><trkpt lat="38.7151825" lon="20.7114525"><ele>6.999999999999999</ele><time>2026-05-01T13:31:07.804Z</time></trkpt><trkpt lat="38.7152491" lon="20.711554"><ele>7.0</ele><time>2026-05-01T13:31:08.805Z</time></trkpt><trkpt lat="38.7153191" lon="20.7116757"><ele>7.0</ele><time>2026-05-01T13:31:09.802Z</time></trkpt><trkpt lat="38.7153945" lon="20.7118098"><ele>8.0</ele><time>2026-05-01T13:31:10.802Z</time></trkpt><trkpt lat="38.7154709" lon="20.7119608"><ele>9.0</ele><time>2026-05-01T13:31:11.806Z</time></trkpt><trkpt lat="38.7155671" lon="20.7121326"><ele>10.0</ele><time>2026-05-01T13:31:12.805Z</time></trkpt><trkpt lat="38.7156648" lon="20.7123271"><ele>10.0</ele><time>2026-05-01T13:31:13.805Z</time></trkpt><trkpt lat="38.7157542" lon="20.7125232"><ele>10.0</ele><time>2026-05-01T13:31:14.804Z</time></trkpt><trkpt lat="38.7158357" lon="20.7127181"><ele>10.0</ele><time>2026-05-01T13:31:15.805Z</time></trkpt><trkpt lat="38.7159212" lon="20.7129136"><ele>9.666666666666668</ele><time>2026-05-01T13:31:16.805Z</time></trkpt><trkpt lat="38.7160078" lon="20.7130981"><ele>9.333333333333334</ele><time>2026-05-01T13:31:17.804Z</time></trkpt><trkpt lat="38.7160936" lon="20.7132851"><ele>9.0</ele><time>2026-05-01T13:31:18.803Z</time></trkpt><trkpt lat="38.7161701" lon="20.7134584"><ele>9.666666666666666</ele><time>2026-05-01T13:31:19.804Z</time></trkpt><trkpt lat="38.7162443" lon="20.7136304"><ele>10.333333333333332</ele><time>2026-05-01T13:31:20.805Z</time></trkpt><trkpt lat="38.7163067" lon="20.7138085"><ele>11.0</ele><time>2026-05-01T13:31:21.804Z</time></trkpt><trkpt lat="38.7163562" lon="20.7139997"><ele>11.0</ele><time>2026-05-01T13:31:22.804Z</time></trkpt><trkpt lat="38.7163986" lon="20.7141919"><ele>11.0</ele><time>2026-05-01T13:31:23.801Z</time></trkpt><trkpt lat="38.71644" lon="20.7143873"><ele>11.0</ele><time>2026-05-01T13:31:24.803Z</time></trkpt><trkpt lat="38.7164846" lon="20.7145903"><ele>10.333333333333332</ele><time>2026-05-01T13:31:25.805Z</time></trkpt><trkpt lat="38.7165243" lon="20.7147935"><ele>9.666666666666666</ele><time>2026-05-01T13:31:26.803Z</time></trkpt><trkpt lat="38.7165634" lon="20.7149929"><ele>9.0</ele><time>2026-05-01T13:31:27.804Z</time></trkpt><trkpt lat="38.7166035" lon="20.7151939"><ele>8.333333333333334</ele><time>2026-05-01T13:31:28.804Z</time></trkpt><trkpt lat="38.7166373" lon="20.7153854"><ele>7.666666666666667</ele><time>2026-05-01T13:31:29.804Z</time></trkpt><trkpt lat="38.7166869" lon="20.7155796"><ele>7.0</ele><time>2026-05-01T13:31:30.804Z</time></trkpt><trkpt lat="38.7167126" lon="20.7157582"><ele>7.0</ele><time>2026-05-01T13:31:31.804Z</time></trkpt><trkpt lat="38.7167418" lon="20.7159341"><ele>7.0</ele><time>2026-05-01T13:31:32.806Z</time></trkpt><trkpt lat="38.716767" lon="20.7161057"><ele>7.0</ele><time>2026-05-01T13:31:33.805Z</time></trkpt><trkpt lat="38.7167939" lon="20.7162657"><ele>7.0</ele><time>2026-05-01T13:31:34.803Z</time></trkpt><trkpt lat="38.7168272" lon="20.7164251"><ele>6.6</ele><time>2026-05-01T13:31:35.804Z</time></trkpt><trkpt lat="38.7168607" lon="20.7165704"><ele>6.199999999999999</ele><time>2026-05-01T13:31:36.805Z</time></trkpt><trkpt lat="38.7168896" lon="20.7167076"><ele>5.8</ele><time>2026-05-01T13:31:37.803Z</time></trkpt><trkpt lat="38.7168995" lon="20.716814"><ele>5.4</ele><time>2026-05-01T13:31:38.804Z</time></trkpt><trkpt lat="38.7169036" lon="20.716907"><ele>5.0</ele><time>2026-05-01T13:31:39.804Z</time></trkpt><trkpt lat="38.7168803" lon="20.7170136"><ele>4.833333333333334</ele><time>2026-05-01T13:31:41.804Z</time></trkpt><trkpt lat="38.7168916" lon="20.7171209"><ele>4.666666666666667</ele><time>2026-05-01T13:31:44.804Z</time></trkpt><trkpt lat="38.7169436" lon="20.7172418"><ele>4.5</ele><time>2026-05-01T13:31:46.807Z</time></trkpt><trkpt lat="38.717006" lon="20.7173182"><ele>4.333333333333333</ele><time>2026-05-01T13:31:47.806Z</time></trkpt><trkpt lat="38.7170669" lon="20.7173884"><ele>4.166666666666666</ele><time>2026-05-01T13:31:48.805Z</time></trkpt><trkpt lat="38.7171305" lon="20.7174534"><ele>4.0</ele><time>2026-05-01T13:31:49.805Z</time></trkpt><trkpt lat="38.7172013" lon="20.7175338"><ele>4.5</ele><time>2026-05-01T13:31:50.803Z</time></trkpt><trkpt lat="38.7172735" lon="20.7176336"><ele>5.0</ele><time>2026-05-01T13:31:51.805Z</time></trkpt><trkpt lat="38.7173461" lon="20.717749"><ele>5.5</ele><time>2026-05-01T13:31:52.805Z</time></trkpt><trkpt lat="38.7174121" lon="20.7178728"><ele>6.0</ele><time>2026-05-01T13:31:53.803Z</time></trkpt><trkpt lat="38.7174807" lon="20.7179888"><ele>6.0</ele><time>2026-05-01T13:31:54.802Z</time></trkpt><trkpt lat="38.7175513" lon="20.7181064"><ele>6.0</ele><time>2026-05-01T13:31:55.804Z</time></trkpt><trkpt lat="38.7176265" lon="20.7182231"><ele>6.0</ele><time>2026-05-01T13:31:56.802Z</time></trkpt><trkpt lat="38.7177089" lon="20.7183431"><ele>6.0</ele><time>2026-05-01T13:31:57.803Z</time></trkpt><trkpt lat="38.7177921" lon="20.7184727"><ele>8.0</ele><time>2026-05-01T13:31:58.803Z</time></trkpt><trkpt lat="38.7178632" lon="20.7186051"><ele>10.0</ele><time>2026-05-01T13:31:59.803Z</time></trkpt><trkpt lat="38.7179237" lon="20.7187405"><ele>12.0</ele><time>2026-05-01T13:32:00.804Z</time></trkpt><trkpt lat="38.7179713" lon="20.7188792"><ele>14.0</ele><time>2026-05-01T13:32:01.805Z</time></trkpt><trkpt lat="38.7180073" lon="20.7190155"><ele>14.0</ele><time>2026-05-01T13:32:02.804Z</time></trkpt><trkpt lat="38.7180324" lon="20.7191632"><ele>14.0</ele><time>2026-05-01T13:32:03.804Z</time></trkpt><trkpt lat="38.7180513" lon="20.7193211"><ele>14.0</ele><time>2026-05-01T13:32:04.802Z</time></trkpt><trkpt lat="38.7180654" lon="20.7194893"><ele>14.0</ele><time>2026-05-01T13:32:05.802Z</time></trkpt><trkpt lat="38.7180674" lon="20.7196662"><ele>13.75</ele><time>2026-05-01T13:32:06.802Z</time></trkpt><trkpt lat="38.7180817" lon="20.7198502"><ele>13.5</ele><time>2026-05-01T13:32:07.804Z</time></trkpt><trkpt lat="38.7180833" lon="20.7200258"><ele>13.25</ele><time>2026-05-01T13:32:08.806Z</time></trkpt><trkpt lat="38.7180847" lon="20.7202069"><ele>13.0</ele><time>2026-05-01T13:32:09.802Z</time></trkpt><trkpt lat="38.7180733" lon="20.7203891"><ele>13.0</ele><time>2026-05-01T13:32:10.802Z</time></trkpt><trkpt lat="38.7180676" lon="20.7205656"><ele>13.0</ele><time>2026-05-01T13:32:11.805Z</time></trkpt><trkpt lat="38.7180624" lon="20.7207396"><ele>13.0</ele><time>2026-05-01T13:32:12.804Z</time></trkpt><trkpt lat="38.718057" lon="20.7209062"><ele>13.0</ele><time>2026-05-01T13:32:13.802Z</time></trkpt><trkpt lat="38.718057" lon="20.7210651"><ele>12.75</ele><time>2026-05-01T13:32:14.803Z</time></trkpt><trkpt lat="38.7180589" lon="20.7212198"><ele>12.5</ele><time>2026-05-01T13:32:15.803Z</time></trkpt><trkpt lat="38.718063" lon="20.7213669"><ele>12.25</ele><time>2026-05-01T13:32:16.805Z</time></trkpt><trkpt lat="38.7180583" lon="20.7215179"><ele>12.0</ele><time>2026-05-01T13:32:17.804Z</time></trkpt><trkpt lat="38.7180717" lon="20.7216639"><ele>12.0</ele><time>2026-05-01T13:32:18.805Z</time></trkpt><trkpt lat="38.7181072" lon="20.7218133"><ele>12.0</ele><time>2026-05-01T13:32:19.807Z</time></trkpt><trkpt lat="38.7181574" lon="20.7219506"><ele>12.0</ele><time>2026-05-01T13:32:20.804Z</time></trkpt><trkpt lat="38.7182381" lon="20.7220886"><ele>12.0</ele><time>2026-05-01T13:32:21.802Z</time></trkpt><trkpt lat="38.7183291" lon="20.7222172"><ele>11.0</ele><time>2026-05-01T13:32:22.804Z</time></trkpt><trkpt lat="38.7184273" lon="20.722347"><ele>10.0</ele><time>2026-05-01T13:32:23.804Z</time></trkpt><trkpt lat="38.7185279" lon="20.7224752"><ele>9.0</ele><time>2026-05-01T13:32:24.802Z</time></trkpt><trkpt lat="38.7186334" lon="20.7225962"><ele>8.0</ele><time>2026-05-01T13:32:25.805Z</time></trkpt><trkpt lat="38.7187399" lon="20.722716"><ele>8.0</ele><time>2026-05-01T13:32:26.804Z</time></trkpt><trkpt lat="38.718851" lon="20.7228379"><ele>8.0</ele><time>2026-05-01T13:32:27.805Z</time></trkpt><trkpt lat="38.7189531" lon="20.7229631"><ele>8.0</ele><time>2026-05-01T13:32:28.804Z</time></trkpt><trkpt lat="38.7190583" lon="20.7230832"><ele>8.0</ele><time>2026-05-01T13:32:29.802Z</time></trkpt><trkpt lat="38.7191664" lon="20.7232005"><ele>8.0</ele><time>2026-05-01T13:32:30.803Z</time></trkpt><trkpt lat="38.7192848" lon="20.7233084"><ele>8.0</ele><time>2026-05-01T13:32:31.804Z</time></trkpt><trkpt lat="38.7194117" lon="20.7234096"><ele>8.0</ele><time>2026-05-01T13:32:32.804Z</time></trkpt><trkpt lat="38.7195507" lon="20.7235017"><ele>7.333333333333333</ele><time>2026-05-01T13:32:33.804Z</time></trkpt><trkpt lat="38.7196929" lon="20.7235965"><ele>6.666666666666666</ele><time>2026-05-01T13:32:34.802Z</time></trkpt><trkpt lat="38.7198351" lon="20.723689"><ele>6.0</ele><time>2026-05-01T13:32:35.804Z</time></trkpt><trkpt lat="38.7199811" lon="20.723779"><ele>6.0</ele><time>2026-05-01T13:32:36.804Z</time></trkpt><trkpt lat="38.7201229" lon="20.723862"><ele>6.0</ele><time>2026-05-01T13:32:37.806Z</time></trkpt><trkpt lat="38.7202711" lon="20.7239405"><ele>6.0</ele><time>2026-05-01T13:32:38.804Z</time></trkpt><trkpt lat="38.720416" lon="20.7240117"><ele>7.25</ele><time>2026-05-01T13:32:39.805Z</time></trkpt><trkpt lat="38.7205603" lon="20.724079"><ele>8.5</ele><time>2026-05-01T13:32:40.804Z</time></trkpt><trkpt lat="38.7206987" lon="20.7241415"><ele>9.75</ele><time>2026-05-01T13:32:41.804Z</time></trkpt><trkpt lat="38.7208329" lon="20.7242017"><ele>11.0</ele><time>2026-05-01T13:32:42.804Z</time></trkpt><trkpt lat="38.7209632" lon="20.7242704"><ele>10.5</ele><time>2026-05-01T13:32:43.804Z</time></trkpt><trkpt lat="38.7210889" lon="20.7243442"><ele>10.0</ele><time>2026-05-01T13:32:44.804Z</time></trkpt><trkpt lat="38.7212081" lon="20.7244373"><ele>9.5</ele><time>2026-05-01T13:32:45.802Z</time></trkpt><trkpt lat="38.7213175" lon="20.7245542"><ele>9.0</ele><time>2026-05-01T13:32:46.801Z</time></trkpt><trkpt lat="38.7214217" lon="20.7246873"><ele>9.0</ele><time>2026-05-01T13:32:47.804Z</time></trkpt><trkpt lat="38.7215251" lon="20.7248334"><ele>9.0</ele><time>2026-05-01T13:32:48.803Z</time></trkpt><trkpt lat="38.7216127" lon="20.724993"><ele>9.0</ele><time>2026-05-01T13:32:49.805Z</time></trkpt><trkpt lat="38.7217101" lon="20.7251503"><ele>8.0</ele><time>2026-05-01T13:32:50.802Z</time></trkpt><trkpt lat="38.7218012" lon="20.725315"><ele>7.0</ele><time>2026-05-01T13:32:51.805Z</time></trkpt><trkpt lat="38.7218882" lon="20.7254687"><ele>6.0</ele><time>2026-05-01T13:32:52.802Z</time></trkpt><trkpt lat="38.721974" lon="20.7256325"><ele>8.0</ele><time>2026-05-01T13:32:53.805Z</time></trkpt><trkpt lat="38.7220572" lon="20.7257909"><ele>10.0</ele><time>2026-05-01T13:32:54.805Z</time></trkpt><trkpt lat="38.7221391" lon="20.7259466"><ele>12.0</ele><time>2026-05-01T13:32:55.801Z</time></trkpt><trkpt lat="38.7222237" lon="20.7261029"><ele>14.0</ele><time>2026-05-01T13:32:56.802Z</time></trkpt><trkpt lat="38.7223049" lon="20.7262543"><ele>14.0</ele><time>2026-05-01T13:32:57.804Z</time></trkpt><trkpt lat="38.7223793" lon="20.7264172"><ele>14.0</ele><time>2026-05-01T13:32:58.801Z</time></trkpt><trkpt lat="38.7224567" lon="20.7265745"><ele>14.0</ele><time>2026-05-01T13:32:59.805Z</time></trkpt><trkpt lat="38.72253" lon="20.726734"><ele>14.0</ele><time>2026-05-01T13:33:00.803Z</time></trkpt><trkpt lat="38.7226031" lon="20.7268854"><ele>12.5</ele><time>2026-05-01T13:33:01.803Z</time></trkpt><trkpt lat="38.7226797" lon="20.7270393"><ele>11.0</ele><time>2026-05-01T13:33:02.803Z</time></trkpt><trkpt lat="38.7227515" lon="20.7271896"><ele>9.5</ele><time>2026-05-01T13:33:03.803Z</time></trkpt><trkpt lat="38.7228286" lon="20.7273447"><ele>8.0</ele><time>2026-05-01T13:33:04.803Z</time></trkpt><trkpt lat="38.7229068" lon="20.7275005"><ele>10.25</ele><time>2026-05-01T13:33:05.801Z</time></trkpt><trkpt lat="38.7229872" lon="20.7276544"><ele>12.5</ele><time>2026-05-01T13:33:06.803Z</time></trkpt><trkpt lat="38.7230747" lon="20.7278071"><ele>14.75</ele><time>2026-05-01T13:33:07.805Z</time></trkpt><trkpt lat="38.7231549" lon="20.7279662"><ele>17.0</ele><time>2026-05-01T13:33:08.804Z</time></trkpt><trkpt lat="38.7232363" lon="20.7281216"><ele>17.0</ele><time>2026-05-01T13:33:09.803Z</time></trkpt><trkpt lat="38.7233094" lon="20.7282665"><ele>17.0</ele><time>2026-05-01T13:33:10.804Z</time></trkpt><trkpt lat="38.7233627" lon="20.7284294"><ele>17.0</ele><time>2026-05-01T13:33:11.804Z</time></trkpt><trkpt lat="38.7234093" lon="20.7285855"><ele>17.0</ele><time>2026-05-01T13:33:12.804Z</time></trkpt><trkpt lat="38.72344" lon="20.7287188"><ele>17.0</ele><time>2026-05-01T13:33:13.804Z</time></trkpt><trkpt lat="38.7234745" lon="20.7288507"><ele>17.0</ele><time>2026-05-01T13:33:14.802Z</time></trkpt><trkpt lat="38.7235298" lon="20.7289685"><ele>17.0</ele><time>2026-05-01T13:33:15.804Z</time></trkpt><trkpt lat="38.7236038" lon="20.729076"><ele>17.0</ele><time>2026-05-01T13:33:16.802Z</time></trkpt><trkpt lat="38.723709" lon="20.7291616"><ele>17.0</ele><time>2026-05-01T13:33:17.804Z</time></trkpt><trkpt lat="38.7238334" lon="20.7292345"><ele>17.0</ele><time>2026-05-01T13:33:18.803Z</time></trkpt><trkpt lat="38.7239743" lon="20.7292983"><ele>17.0</ele><time>2026-05-01T13:33:19.806Z</time></trkpt><trkpt lat="38.7241131" lon="20.7293655"><ele>17.0</ele><time>2026-05-01T13:33:20.801Z</time></trkpt><trkpt lat="38.7242617" lon="20.7294306"><ele>16.0</ele><time>2026-05-01T13:33:21.804Z</time></trkpt><trkpt lat="38.7244049" lon="20.7294833"><ele>15.0</ele><time>2026-05-01T13:33:22.803Z</time></trkpt><trkpt lat="38.7245453" lon="20.729544"><ele>14.0</ele><time>2026-05-01T13:33:23.803Z</time></trkpt><trkpt lat="38.7246849" lon="20.7296031"><ele>13.0</ele><time>2026-05-01T13:33:24.803Z</time></trkpt><trkpt lat="38.7248298" lon="20.7296707"><ele>13.0</ele><time>2026-05-01T13:33:25.803Z</time></trkpt><trkpt lat="38.7249808" lon="20.7297364"><ele>13.0</ele><time>2026-05-01T13:33:26.803Z</time></trkpt><trkpt lat="38.725139" lon="20.7297922"><ele>13.0</ele><time>2026-05-01T13:33:27.802Z</time></trkpt><trkpt lat="38.725298" lon="20.7298448"><ele>14.666666666666666</ele><time>2026-05-01T13:33:28.802Z</time></trkpt><trkpt lat="38.7254537" lon="20.7298904"><ele>16.333333333333332</ele><time>2026-05-01T13:33:29.805Z</time></trkpt><trkpt lat="38.7256026" lon="20.7299366"><ele>18.0</ele><time>2026-05-01T13:33:30.802Z</time></trkpt><trkpt lat="38.7257488" lon="20.729983"><ele>18.0</ele><time>2026-05-01T13:33:31.803Z</time></trkpt><trkpt lat="38.725888" lon="20.730022"><ele>18.0</ele><time>2026-05-01T13:33:32.802Z</time></trkpt><trkpt lat="38.7260222" lon="20.7300601"><ele>18.0</ele><time>2026-05-01T13:33:33.803Z</time></trkpt><trkpt lat="38.7261579" lon="20.7300986"><ele>18.0</ele><time>2026-05-01T13:33:34.804Z</time></trkpt><trkpt lat="38.7262908" lon="20.7301382"><ele>19.75</ele><time>2026-05-01T13:33:35.803Z</time></trkpt><trkpt lat="38.7264255" lon="20.7301788"><ele>21.5</ele><time>2026-05-01T13:33:36.804Z</time></trkpt><trkpt lat="38.7265569" lon="20.730216"><ele>23.25</ele><time>2026-05-01T13:33:37.801Z</time></trkpt><trkpt lat="38.7266922" lon="20.7302401"><ele>25.0</ele><time>2026-05-01T13:33:38.802Z</time></trkpt><trkpt lat="38.7268133" lon="20.7302729"><ele>21.5</ele><time>2026-05-01T13:33:39.805Z</time></trkpt><trkpt lat="38.7269368" lon="20.7302925"><ele>18.0</ele><time>2026-05-01T13:33:40.803Z</time></trkpt><trkpt lat="38.7270585" lon="20.7303027"><ele>14.5</ele><time>2026-05-01T13:33:41.803Z</time></trkpt><trkpt lat="38.7271804" lon="20.7302998"><ele>11.0</ele><time>2026-05-01T13:33:42.802Z</time></trkpt><trkpt lat="38.7273036" lon="20.7302963"><ele>11.0</ele><time>2026-05-01T13:33:43.803Z</time></trkpt><trkpt lat="38.7274292" lon="20.7303014"><ele>11.0</ele><time>2026-05-01T13:33:44.804Z</time></trkpt><trkpt lat="38.7275555" lon="20.7303308"><ele>11.0</ele><time>2026-05-01T13:33:45.804Z</time></trkpt><trkpt lat="38.7276738" lon="20.730395"><ele>11.0</ele><time>2026-05-01T13:33:46.802Z</time></trkpt><trkpt lat="38.7277931" lon="20.7304773"><ele>15.25</ele><time>2026-05-01T13:33:47.803Z</time></trkpt><trkpt lat="38.7279111" lon="20.7305634"><ele>19.5</ele><time>2026-05-01T13:33:48.804Z</time></trkpt><trkpt lat="38.7280306" lon="20.7306541"><ele>23.75</ele><time>2026-05-01T13:33:49.803Z</time></trkpt><trkpt lat="38.7281495" lon="20.7307438"><ele>28.0</ele><time>2026-05-01T13:33:50.803Z</time></trkpt><trkpt lat="38.7282693" lon="20.7308374"><ele>28.0</ele><time>2026-05-01T13:33:51.806Z</time></trkpt><trkpt lat="38.7283843" lon="20.7309433"><ele>28.0</ele><time>2026-05-01T13:33:52.803Z</time></trkpt><trkpt lat="38.7284937" lon="20.7310465"><ele>28.0</ele><time>2026-05-01T13:33:53.805Z</time></trkpt><trkpt lat="38.7285954" lon="20.7311516"><ele>28.0</ele><time>2026-05-01T13:33:54.805Z</time></trkpt><trkpt lat="38.7286951" lon="20.7312628"><ele>26.0</ele><time>2026-05-01T13:33:55.804Z</time></trkpt><trkpt lat="38.7288078" lon="20.7313557"><ele>24.0</ele><time>2026-05-01T13:33:56.805Z</time></trkpt><trkpt lat="38.7289297" lon="20.7314408"><ele>22.0</ele><time>2026-05-01T13:33:57.8Z</time></trkpt><trkpt lat="38.7290649" lon="20.7315185"><ele>20.0</ele><time>2026-05-01T13:33:58.804Z</time></trkpt><trkpt lat="38.729194" lon="20.7315975"><ele>20.0</ele><time>2026-05-01T13:33:59.804Z</time></trkpt><trkpt lat="38.7293199" lon="20.7316702"><ele>20.0</ele><time>2026-05-01T13:34:00.802Z</time></trkpt><trkpt lat="38.7294473" lon="20.7317389"><ele>20.0</ele><time>2026-05-01T13:34:01.806Z</time></trkpt><trkpt lat="38.7295665" lon="20.7318047"><ele>20.0</ele><time>2026-05-01T13:34:02.804Z</time></trkpt><trkpt lat="38.7296837" lon="20.7318683"><ele>18.0</ele><time>2026-05-01T13:34:03.805Z</time></trkpt><trkpt lat="38.7298038" lon="20.7319291"><ele>16.0</ele><time>2026-05-01T13:34:04.803Z</time></trkpt><trkpt lat="38.7299224" lon="20.7319827"><ele>14.0</ele><time>2026-05-01T13:34:05.803Z</time></trkpt><trkpt lat="38.7300367" lon="20.7320417"><ele>12.0</ele><time>2026-05-01T13:34:06.805Z</time></trkpt><trkpt lat="38.7301597" lon="20.7320881"><ele>11.5</ele><time>2026-05-01T13:34:07.806Z</time></trkpt><trkpt lat="38.7302956" lon="20.7321253"><ele>11.0</ele><time>2026-05-01T13:34:08.807Z</time></trkpt><trkpt lat="38.7304335" lon="20.7321512"><ele>10.5</ele><time>2026-05-01T13:34:09.805Z</time></trkpt><trkpt lat="38.7305714" lon="20.7321672"><ele>10.0</ele><time>2026-05-01T13:34:10.805Z</time></trkpt><trkpt lat="38.7307135" lon="20.7321738"><ele>10.0</ele><time>2026-05-01T13:34:11.802Z</time></trkpt><trkpt lat="38.730855" lon="20.7321592"><ele>10.0</ele><time>2026-05-01T13:34:12.803Z</time></trkpt><trkpt lat="38.7309935" lon="20.7321378"><ele>10.0</ele><time>2026-05-01T13:34:13.804Z</time></trkpt><trkpt lat="38.7311308" lon="20.732117"><ele>10.0</ele><time>2026-05-01T13:34:14.802Z</time></trkpt><trkpt lat="38.7312721" lon="20.7320868"><ele>8.75</ele><time>2026-05-01T13:34:15.806Z</time></trkpt><trkpt lat="38.731409" lon="20.7320579"><ele>7.5</ele><time>2026-05-01T13:34:16.805Z</time></trkpt><trkpt lat="38.7315434" lon="20.7320274"><ele>6.25</ele><time>2026-05-01T13:34:17.802Z</time></trkpt><trkpt lat="38.7316781" lon="20.7319935"><ele>5.0</ele><time>2026-05-01T13:34:18.804Z</time></trkpt><trkpt lat="38.7318083" lon="20.7319671"><ele>5.25</ele><time>2026-05-01T13:34:19.804Z</time></trkpt><trkpt lat="38.7319398" lon="20.7319413"><ele>5.5</ele><time>2026-05-01T13:34:20.802Z</time></trkpt><trkpt lat="38.7320662" lon="20.7319175"><ele>5.75</ele><time>2026-05-01T13:34:21.803Z</time></trkpt><trkpt lat="38.7321844" lon="20.7318993"><ele>6.0</ele><time>2026-05-01T13:34:22.805Z</time></trkpt><trkpt lat="38.7323004" lon="20.7319043"><ele>6.0</ele><time>2026-05-01T13:34:23.804Z</time></trkpt><trkpt lat="38.7324062" lon="20.7319311"><ele>6.0</ele><time>2026-05-01T13:34:24.803Z</time></trkpt><trkpt lat="38.7325086" lon="20.7319808"><ele>6.0</ele><time>2026-05-01T13:34:25.804Z</time></trkpt><trkpt lat="38.7325982" lon="20.7320597"><ele>6.0</ele><time>2026-05-01T13:34:26.807Z</time></trkpt><trkpt lat="38.7326902" lon="20.7321543"><ele>6.0</ele><time>2026-05-01T13:34:27.802Z</time></trkpt><trkpt lat="38.7327785" lon="20.7322482"><ele>8.25</ele><time>2026-05-01T13:34:28.806Z</time></trkpt><trkpt lat="38.7328786" lon="20.7323299"><ele>10.5</ele><time>2026-05-01T13:34:29.801Z</time></trkpt><trkpt lat="38.7329878" lon="20.732404"><ele>12.75</ele><time>2026-05-01T13:34:30.801Z</time></trkpt><trkpt lat="38.7331034" lon="20.7324619"><ele>15.0</ele><time>2026-05-01T13:34:31.805Z</time></trkpt><trkpt lat="38.7332313" lon="20.7324942"><ele>15.0</ele><time>2026-05-01T13:34:32.803Z</time></trkpt><trkpt lat="38.73336" lon="20.7325025"><ele>15.0</ele><time>2026-05-01T13:34:33.805Z</time></trkpt><trkpt lat="38.7334872" lon="20.7324822"><ele>15.0</ele><time>2026-05-01T13:34:34.804Z</time></trkpt><trkpt lat="38.7336096" lon="20.7324328"><ele>15.0</ele><time>2026-05-01T13:34:35.802Z</time></trkpt><trkpt lat="38.733722" lon="20.7323484"><ele>14.0</ele><time>2026-05-01T13:34:36.804Z</time></trkpt><trkpt lat="38.7338327" lon="20.7322325"><ele>13.0</ele><time>2026-05-01T13:34:37.802Z</time></trkpt><trkpt lat="38.7339367" lon="20.7321051"><ele>12.0</ele><time>2026-05-01T13:34:38.803Z</time></trkpt><trkpt lat="38.7340381" lon="20.7319786"><ele>11.0</ele><time>2026-05-01T13:34:39.802Z</time></trkpt><trkpt lat="38.7341349" lon="20.7318443"><ele>12.25</ele><time>2026-05-01T13:34:40.805Z</time></trkpt><trkpt lat="38.7342252" lon="20.7317183"><ele>13.5</ele><time>2026-05-01T13:34:41.804Z</time></trkpt><trkpt lat="38.7343013" lon="20.731593"><ele>14.75</ele><time>2026-05-01T13:34:42.804Z</time></trkpt><trkpt lat="38.7343679" lon="20.7314568"><ele>16.0</ele><time>2026-05-01T13:34:43.804Z</time></trkpt><trkpt lat="38.7344312" lon="20.7313145"><ele>16.0</ele><time>2026-05-01T13:34:44.804Z</time></trkpt><trkpt lat="38.7344948" lon="20.7311723"><ele>16.0</ele><time>2026-05-01T13:34:45.804Z</time></trkpt><trkpt lat="38.7345709" lon="20.7310361"><ele>16.0</ele><time>2026-05-01T13:34:46.803Z</time></trkpt><trkpt lat="38.7346485" lon="20.7308918"><ele>16.0</ele><time>2026-05-01T13:34:47.803Z</time></trkpt><trkpt lat="38.7347291" lon="20.7307557"><ele>18.5</ele><time>2026-05-01T13:34:48.803Z</time></trkpt><trkpt lat="38.7348273" lon="20.7306167"><ele>21.0</ele><time>2026-05-01T13:34:49.804Z</time></trkpt><trkpt lat="38.7349267" lon="20.7305148"><ele>23.5</ele><time>2026-05-01T13:34:50.803Z</time></trkpt><trkpt lat="38.7350301" lon="20.7304175"><ele>26.0</ele><time>2026-05-01T13:34:51.806Z</time></trkpt><trkpt lat="38.7351348" lon="20.7303358"><ele>24.75</ele><time>2026-05-01T13:34:52.803Z</time></trkpt><trkpt lat="38.7352431" lon="20.7302605"><ele>23.5</ele><time>2026-05-01T13:34:53.804Z</time></trkpt><trkpt lat="38.7353509" lon="20.7301796"><ele>22.25</ele><time>2026-05-01T13:34:54.804Z</time></trkpt><trkpt lat="38.7354585" lon="20.7301181"><ele>21.0</ele><time>2026-05-01T13:34:55.804Z</time></trkpt><trkpt lat="38.7355674" lon="20.7300671"><ele>24.25</ele><time>2026-05-01T13:34:56.802Z</time></trkpt><trkpt lat="38.7356851" lon="20.7300187"><ele>27.5</ele><time>2026-05-01T13:34:57.806Z</time></trkpt><trkpt lat="38.7358058" lon="20.7299636"><ele>30.75</ele><time>2026-05-01T13:34:58.804Z</time></trkpt><trkpt lat="38.7359269" lon="20.7299069"><ele>34.0</ele><time>2026-05-01T13:34:59.804Z</time></trkpt><trkpt lat="38.7360519" lon="20.7298418"><ele>32.25</ele><time>2026-05-01T13:35:00.801Z</time></trkpt><trkpt lat="38.736168" lon="20.7297599"><ele>30.5</ele><time>2026-05-01T13:35:01.807Z</time></trkpt><trkpt lat="38.736278" lon="20.7296763"><ele>28.75</ele><time>2026-05-01T13:35:02.804Z</time></trkpt><trkpt lat="38.7363902" lon="20.7295865"><ele>27.0</ele><time>2026-05-01T13:35:03.807Z</time></trkpt><trkpt lat="38.7365047" lon="20.7294964"><ele>27.0</ele><time>2026-05-01T13:35:04.807Z</time></trkpt><trkpt lat="38.736622" lon="20.7294238"><ele>27.0</ele><time>2026-05-01T13:35:05.807Z</time></trkpt><trkpt lat="38.7367472" lon="20.7293634"><ele>27.0</ele><time>2026-05-01T13:35:06.805Z</time></trkpt><trkpt lat="38.7368688" lon="20.7293361"><ele>27.0</ele><time>2026-05-01T13:35:07.802Z</time></trkpt><trkpt lat="38.7369868" lon="20.7293283"><ele>26.5</ele><time>2026-05-01T13:35:08.804Z</time></trkpt><trkpt lat="38.737106" lon="20.729343"><ele>26.0</ele><time>2026-05-01T13:35:09.805Z</time></trkpt><trkpt lat="38.7372204" lon="20.729393"><ele>25.5</ele><time>2026-05-01T13:35:10.803Z</time></trkpt><trkpt lat="38.7373408" lon="20.7294442"><ele>25.0</ele><time>2026-05-01T13:35:11.802Z</time></trkpt><trkpt lat="38.7374608" lon="20.7294969"><ele>25.0</ele><time>2026-05-01T13:35:12.803Z</time></trkpt><trkpt lat="38.7375858" lon="20.7295477"><ele>25.0</ele><time>2026-05-01T13:35:13.806Z</time></trkpt><trkpt lat="38.7377117" lon="20.729604"><ele>25.0</ele><time>2026-05-01T13:35:14.801Z</time></trkpt><trkpt lat="38.7378362" lon="20.72966"><ele>25.0</ele><time>2026-05-01T13:35:15.804Z</time></trkpt><trkpt lat="38.7379509" lon="20.7297287"><ele>29.5</ele><time>2026-05-01T13:35:16.804Z</time></trkpt><trkpt lat="38.7380503" lon="20.729808"><ele>34.0</ele><time>2026-05-01T13:35:17.806Z</time></trkpt><trkpt lat="38.7381362" lon="20.7299094"><ele>38.5</ele><time>2026-05-01T13:35:18.803Z</time></trkpt><trkpt lat="38.7382129" lon="20.7300143"><ele>43.0</ele><time>2026-05-01T13:35:19.805Z</time></trkpt><trkpt lat="38.7382914" lon="20.730123"><ele>41.25</ele><time>2026-05-01T13:35:20.802Z</time></trkpt><trkpt lat="38.7383728" lon="20.7302309"><ele>39.5</ele><time>2026-05-01T13:35:21.801Z</time></trkpt><trkpt lat="38.7384536" lon="20.7303365"><ele>37.75</ele><time>2026-05-01T13:35:22.806Z</time></trkpt><trkpt lat="38.7385371" lon="20.730441"><ele>36.0</ele><time>2026-05-01T13:35:23.803Z</time></trkpt><trkpt lat="38.7386271" lon="20.7305321"><ele>36.0</ele><time>2026-05-01T13:35:24.802Z</time></trkpt><trkpt lat="38.7387371" lon="20.7305957"><ele>36.0</ele><time>2026-05-01T13:35:25.804Z</time></trkpt><trkpt lat="38.7388501" lon="20.7306408"><ele>36.0</ele><time>2026-05-01T13:35:26.804Z</time></trkpt><trkpt lat="38.7389728" lon="20.7306593"><ele>36.0</ele><time>2026-05-01T13:35:27.804Z</time></trkpt><trkpt lat="38.7391015" lon="20.7306584"><ele>36.0</ele><time>2026-05-01T13:35:28.804Z</time></trkpt><trkpt lat="38.7392291" lon="20.7306453"><ele>36.0</ele><time>2026-05-01T13:35:29.804Z</time></trkpt><trkpt lat="38.73936" lon="20.7306427"><ele>36.0</ele><time>2026-05-01T13:35:30.804Z</time></trkpt><trkpt lat="38.7394929" lon="20.7306265"><ele>36.0</ele><time>2026-05-01T13:35:31.806Z</time></trkpt><trkpt lat="38.7396164" lon="20.7306108"><ele>36.25</ele><time>2026-05-01T13:35:32.805Z</time></trkpt><trkpt lat="38.7397401" lon="20.7305902"><ele>36.5</ele><time>2026-05-01T13:35:33.801Z</time></trkpt><trkpt lat="38.7398617" lon="20.7305657"><ele>36.75</ele><time>2026-05-01T13:35:34.802Z</time></trkpt><trkpt lat="38.7399779" lon="20.7305487"><ele>37.0</ele><time>2026-05-01T13:35:35.803Z</time></trkpt><trkpt lat="38.7400971" lon="20.7305222"><ele>37.0</ele><time>2026-05-01T13:35:36.804Z</time></trkpt><trkpt lat="38.7402139" lon="20.7304967"><ele>37.0</ele><time>2026-05-01T13:35:37.805Z</time></trkpt><trkpt lat="38.7403272" lon="20.730479"><ele>37.0</ele><time>2026-05-01T13:35:38.805Z</time></trkpt><trkpt lat="38.7404453" lon="20.7304593"><ele>37.0</ele><time>2026-05-01T13:35:39.806Z</time></trkpt><trkpt lat="38.7405627" lon="20.7304372"><ele>36.25</ele><time>2026-05-01T13:35:40.805Z</time></trkpt><trkpt lat="38.7406782" lon="20.7304108"><ele>35.5</ele><time>2026-05-01T13:35:41.803Z</time></trkpt><trkpt lat="38.7407932" lon="20.7303685"><ele>34.75</ele><time>2026-05-01T13:35:42.802Z</time></trkpt><trkpt lat="38.7409006" lon="20.7302991"><ele>34.0</ele><time>2026-05-01T13:35:43.802Z</time></trkpt><trkpt lat="38.7410043" lon="20.7302049"><ele>35.5</ele><time>2026-05-01T13:35:44.805Z</time></trkpt><trkpt lat="38.7411086" lon="20.7300918"><ele>37.0</ele><time>2026-05-01T13:35:45.805Z</time></trkpt><trkpt lat="38.741199" lon="20.7299727"><ele>38.5</ele><time>2026-05-01T13:35:46.804Z</time></trkpt><trkpt lat="38.7412875" lon="20.7298482"><ele>40.0</ele><time>2026-05-01T13:35:47.806Z</time></trkpt><trkpt lat="38.7413731" lon="20.7297329"><ele>40.0</ele><time>2026-05-01T13:35:48.804Z</time></trkpt><trkpt lat="38.7414625" lon="20.7296323"><ele>40.0</ele><time>2026-05-01T13:35:49.805Z</time></trkpt><trkpt lat="38.7415645" lon="20.7295387"><ele>40.0</ele><time>2026-05-01T13:35:50.806Z</time></trkpt><trkpt lat="38.7416752" lon="20.7294777"><ele>40.0</ele><time>2026-05-01T13:35:51.805Z</time></trkpt><trkpt lat="38.7417949" lon="20.729438"><ele>39.75</ele><time>2026-05-01T13:35:52.806Z</time></trkpt><trkpt lat="38.7419191" lon="20.7294051"><ele>39.5</ele><time>2026-05-01T13:35:53.805Z</time></trkpt><trkpt lat="38.7420408" lon="20.7293945"><ele>39.25</ele><time>2026-05-01T13:35:54.805Z</time></trkpt><trkpt lat="38.7421652" lon="20.7293754"><ele>39.0</ele><time>2026-05-01T13:35:55.806Z</time></trkpt><trkpt lat="38.7422907" lon="20.7293549"><ele>42.75</ele><time>2026-05-01T13:35:56.804Z</time></trkpt><trkpt lat="38.7424082" lon="20.7293203"><ele>46.5</ele><time>2026-05-01T13:35:57.804Z</time></trkpt><trkpt lat="38.7425185" lon="20.7292648"><ele>50.25</ele><time>2026-05-01T13:35:58.803Z</time></trkpt><trkpt lat="38.7426206" lon="20.7292022"><ele>54.0</ele><time>2026-05-01T13:35:59.803Z</time></trkpt><trkpt lat="38.7427066" lon="20.7291174"><ele>50.0</ele><time>2026-05-01T13:36:00.802Z</time></trkpt><trkpt lat="38.7427893" lon="20.7290037"><ele>46.0</ele><time>2026-05-01T13:36:01.803Z</time></trkpt><trkpt lat="38.7428647" lon="20.728873"><ele>42.0</ele><time>2026-05-01T13:36:02.804Z</time></trkpt><trkpt lat="38.742929" lon="20.7287362"><ele>38.0</ele><time>2026-05-01T13:36:03.806Z</time></trkpt><trkpt lat="38.7429962" lon="20.7286021"><ele>42.5</ele><time>2026-05-01T13:36:04.804Z</time></trkpt><trkpt lat="38.7430639" lon="20.7284619"><ele>47.0</ele><time>2026-05-01T13:36:05.801Z</time></trkpt><trkpt lat="38.7431243" lon="20.7283219"><ele>51.5</ele><time>2026-05-01T13:36:06.802Z</time></trkpt><trkpt lat="38.7431863" lon="20.7281779"><ele>56.0</ele><time>2026-05-01T13:36:07.803Z</time></trkpt><trkpt lat="38.7432484" lon="20.7280371"><ele>56.0</ele><time>2026-05-01T13:36:08.803Z</time></trkpt><trkpt lat="38.7433134" lon="20.7279098"><ele>56.0</ele><time>2026-05-01T13:36:09.805Z</time></trkpt><trkpt lat="38.7433789" lon="20.7277842"><ele>56.0</ele><time>2026-05-01T13:36:10.804Z</time></trkpt><trkpt lat="38.7434417" lon="20.7276616"><ele>56.0</ele><time>2026-05-01T13:36:11.804Z</time></trkpt><trkpt lat="38.7435085" lon="20.7275471"><ele>55.0</ele><time>2026-05-01T13:36:12.805Z</time></trkpt><trkpt lat="38.7435852" lon="20.7274482"><ele>53.99999999999999</ele><time>2026-05-01T13:36:13.803Z</time></trkpt><trkpt lat="38.7436728" lon="20.7273726"><ele>53.0</ele><time>2026-05-01T13:36:14.803Z</time></trkpt><trkpt lat="38.7437672" lon="20.7273106"><ele>52.0</ele><time>2026-05-01T13:36:15.803Z</time></trkpt><trkpt lat="38.7438743" lon="20.7272854"><ele>51.0</ele><time>2026-05-01T13:36:16.805Z</time></trkpt><trkpt lat="38.7439887" lon="20.7272729"><ele>51.0</ele><time>2026-05-01T13:36:17.805Z</time></trkpt><trkpt lat="38.7441004" lon="20.7272786"><ele>51.0</ele><time>2026-05-01T13:36:18.805Z</time></trkpt><trkpt lat="38.7442097" lon="20.7272668"><ele>51.0</ele><time>2026-05-01T13:36:19.805Z</time></trkpt><trkpt lat="38.7443086" lon="20.7272501"><ele>51.0</ele><time>2026-05-01T13:36:20.805Z</time></trkpt><trkpt lat="38.7444022" lon="20.7272071"><ele>51.0</ele><time>2026-05-01T13:36:21.804Z</time></trkpt><trkpt lat="38.7444835" lon="20.7271334"><ele>50.8</ele><time>2026-05-01T13:36:22.802Z</time></trkpt><trkpt lat="38.7445502" lon="20.7270356"><ele>50.599999999999994</ele><time>2026-05-01T13:36:23.803Z</time></trkpt><trkpt lat="38.7446097" lon="20.726929"><ele>50.4</ele><time>2026-05-01T13:36:24.803Z</time></trkpt><trkpt lat="38.744667" lon="20.7268188"><ele>50.2</ele><time>2026-05-01T13:36:25.803Z</time></trkpt><trkpt lat="38.74473" lon="20.7267183"><ele>50.0</ele><time>2026-05-01T13:36:26.802Z</time></trkpt><trkpt lat="38.7447962" lon="20.7266316"><ele>50.0</ele><time>2026-05-01T13:36:27.805Z</time></trkpt><trkpt lat="38.7448738" lon="20.7265616"><ele>50.0</ele><time>2026-05-01T13:36:28.804Z</time></trkpt><trkpt lat="38.7449589" lon="20.7265112"><ele>50.0</ele><time>2026-05-01T13:36:29.803Z</time></trkpt><trkpt lat="38.7450514" lon="20.7264792"><ele>50.0</ele><time>2026-05-01T13:36:30.801Z</time></trkpt><trkpt lat="38.7451457" lon="20.7264558"><ele>50.0</ele><time>2026-05-01T13:36:31.806Z</time></trkpt><trkpt lat="38.7452385" lon="20.726434"><ele>47.6</ele><time>2026-05-01T13:36:32.805Z</time></trkpt><trkpt lat="38.7453293" lon="20.726422"><ele>45.2</ele><time>2026-05-01T13:36:33.805Z</time></trkpt><trkpt lat="38.7454204" lon="20.7263945"><ele>42.8</ele><time>2026-05-01T13:36:34.805Z</time></trkpt><trkpt lat="38.7455038" lon="20.7263517"><ele>40.4</ele><time>2026-05-01T13:36:35.804Z</time></trkpt><trkpt lat="38.7455869" lon="20.726295"><ele>38.0</ele><time>2026-05-01T13:36:36.804Z</time></trkpt><trkpt lat="38.7456659" lon="20.7262288"><ele>38.0</ele><time>2026-05-01T13:36:37.806Z</time></trkpt><trkpt lat="38.7457378" lon="20.7261372"><ele>38.0</ele><time>2026-05-01T13:36:38.802Z</time></trkpt><trkpt lat="38.7458133" lon="20.7260407"><ele>38.0</ele><time>2026-05-01T13:36:39.805Z</time></trkpt><trkpt lat="38.7458881" lon="20.7259432"><ele>38.0</ele><time>2026-05-01T13:36:40.804Z</time></trkpt><trkpt lat="38.7459674" lon="20.7258414"><ele>38.0</ele><time>2026-05-01T13:36:41.805Z</time></trkpt><trkpt lat="38.7460444" lon="20.7257343"><ele>36.75</ele><time>2026-05-01T13:36:42.804Z</time></trkpt><trkpt lat="38.7461264" lon="20.725628"><ele>35.5</ele><time>2026-05-01T13:36:43.804Z</time></trkpt><trkpt lat="38.7462128" lon="20.7255323"><ele>34.25</ele><time>2026-05-01T13:36:44.804Z</time></trkpt><trkpt lat="38.7462972" lon="20.7254229"><ele>33.0</ele><time>2026-05-01T13:36:45.803Z</time></trkpt><trkpt lat="38.7463849" lon="20.7253202"><ele>34.5</ele><time>2026-05-01T13:36:46.803Z</time></trkpt><trkpt lat="38.7464785" lon="20.7252162"><ele>36.0</ele><time>2026-05-01T13:36:47.804Z</time></trkpt><trkpt lat="38.7465777" lon="20.7251096"><ele>37.5</ele><time>2026-05-01T13:36:48.803Z</time></trkpt><trkpt lat="38.7466776" lon="20.725004"><ele>39.0</ele><time>2026-05-01T13:36:49.805Z</time></trkpt><trkpt lat="38.74677" lon="20.7249053"><ele>39.0</ele><time>2026-05-01T13:36:50.804Z</time></trkpt><trkpt lat="38.7468551" lon="20.7248133"><ele>39.0</ele><time>2026-05-01T13:36:51.805Z</time></trkpt><trkpt lat="38.7469397" lon="20.724734"><ele>39.0</ele><time>2026-05-01T13:36:52.805Z</time></trkpt><trkpt lat="38.7470191" lon="20.7246712"><ele>39.0</ele><time>2026-05-01T13:36:53.803Z</time></trkpt><trkpt lat="38.747097" lon="20.72461"><ele>39.0</ele><time>2026-05-01T13:36:54.803Z</time></trkpt><trkpt lat="38.7471809" lon="20.7245656"><ele>37.333333333333336</ele><time>2026-05-01T13:36:55.805Z</time></trkpt><trkpt lat="38.7472696" lon="20.724531"><ele>35.666666666666664</ele><time>2026-05-01T13:36:56.803Z</time></trkpt><trkpt lat="38.7473587" lon="20.724495"><ele>34.0</ele><time>2026-05-01T13:36:57.805Z</time></trkpt><trkpt lat="38.7474422" lon="20.7244631"><ele>32.33333333333333</ele><time>2026-05-01T13:36:58.806Z</time></trkpt><trkpt lat="38.7475239" lon="20.7244401"><ele>30.666666666666664</ele><time>2026-05-01T13:36:59.803Z</time></trkpt><trkpt lat="38.747602" lon="20.7244346"><ele>29.0</ele><time>2026-05-01T13:37:00.804Z</time></trkpt><trkpt lat="38.7476837" lon="20.7244442"><ele>28.799999999999997</ele><time>2026-05-01T13:37:01.804Z</time></trkpt><trkpt lat="38.7477684" lon="20.7244645"><ele>28.599999999999998</ele><time>2026-05-01T13:37:02.803Z</time></trkpt><trkpt lat="38.7478534" lon="20.7244998"><ele>28.4</ele><time>2026-05-01T13:37:03.804Z</time></trkpt><trkpt lat="38.7479353" lon="20.7245467"><ele>28.2</ele><time>2026-05-01T13:37:04.806Z</time></trkpt><trkpt lat="38.7480141" lon="20.7246069"><ele>28.0</ele><time>2026-05-01T13:37:05.806Z</time></trkpt><trkpt lat="38.7480855" lon="20.724683"><ele>28.000000000000004</ele><time>2026-05-01T13:37:06.805Z</time></trkpt><trkpt lat="38.7481476" lon="20.7247617"><ele>28.0</ele><time>2026-05-01T13:37:07.804Z</time></trkpt><trkpt lat="38.7482009" lon="20.7248354"><ele>28.0</ele><time>2026-05-01T13:37:08.805Z</time></trkpt><trkpt lat="38.7482537" lon="20.7249106"><ele>28.0</ele><time>2026-05-01T13:37:09.806Z</time></trkpt><trkpt lat="38.7482976" lon="20.7249834"><ele>28.000000000000004</ele><time>2026-05-01T13:37:10.803Z</time></trkpt><trkpt lat="38.7483462" lon="20.7250386"><ele>28.0</ele><time>2026-05-01T13:37:11.806Z</time></trkpt><trkpt lat="38.7484098" lon="20.7250735"><ele>28.000000000000004</ele><time>2026-05-01T13:37:12.805Z</time></trkpt><trkpt lat="38.7484876" lon="20.7250841"><ele>28.0</ele><time>2026-05-01T13:37:13.804Z</time></trkpt><trkpt lat="38.7485635" lon="20.7250724"><ele>28.0</ele><time>2026-05-01T13:37:14.805Z</time></trkpt><trkpt lat="38.7486292" lon="20.7250253"><ele>28.0</ele><time>2026-05-01T13:37:15.803Z</time></trkpt><trkpt lat="38.74869" lon="20.7249415"><ele>28.000000000000004</ele><time>2026-05-01T13:37:16.803Z</time></trkpt><trkpt lat="38.7487387" lon="20.724847"><ele>28.0</ele><time>2026-05-01T13:37:17.802Z</time></trkpt><trkpt lat="38.7487826" lon="20.724729"><ele>26.599999999999998</ele><time>2026-05-01T13:37:18.803Z</time></trkpt><trkpt lat="38.7488227" lon="20.7246067"><ele>25.199999999999996</ele><time>2026-05-01T13:37:19.804Z</time></trkpt><trkpt lat="38.7488569" lon="20.7244872"><ele>23.8</ele><time>2026-05-01T13:37:20.804Z</time></trkpt><trkpt lat="38.748892" lon="20.7243744"><ele>22.4</ele><time>2026-05-01T13:37:21.804Z</time></trkpt><trkpt lat="38.7489296" lon="20.7242734"><ele>21.0</ele><time>2026-05-01T13:37:22.805Z</time></trkpt><trkpt lat="38.7489731" lon="20.7241814"><ele>21.0</ele><time>2026-05-01T13:37:23.804Z</time></trkpt><trkpt lat="38.7490205" lon="20.724094"><ele>21.0</ele><time>2026-05-01T13:37:24.803Z</time></trkpt><trkpt lat="38.7490867" lon="20.7240303"><ele>21.0</ele><time>2026-05-01T13:37:25.805Z</time></trkpt><trkpt lat="38.7491725" lon="20.7239953"><ele>21.0</ele><time>2026-05-01T13:37:26.803Z</time></trkpt><trkpt lat="38.7492574" lon="20.7239928"><ele>21.0</ele><time>2026-05-01T13:37:27.804Z</time></trkpt><trkpt lat="38.7493503" lon="20.7240219"><ele>21.0</ele><time>2026-05-01T13:37:28.805Z</time></trkpt><trkpt lat="38.7494387" lon="20.7240527"><ele>18.8</ele><time>2026-05-01T13:37:29.804Z</time></trkpt><trkpt lat="38.7495384" lon="20.7240798"><ele>16.6</ele><time>2026-05-01T13:37:30.807Z</time></trkpt><trkpt lat="38.7496424" lon="20.7240701"><ele>14.4</ele><time>2026-05-01T13:37:31.805Z</time></trkpt><trkpt lat="38.7497385" lon="20.7240532"><ele>12.2</ele><time>2026-05-01T13:37:32.804Z</time></trkpt><trkpt lat="38.7498356" lon="20.7240127"><ele>10.0</ele><time>2026-05-01T13:37:33.803Z</time></trkpt><trkpt lat="38.7499379" lon="20.7239486"><ele>10.0</ele><time>2026-05-01T13:37:34.804Z</time></trkpt><trkpt lat="38.7500355" lon="20.7238769"><ele>10.0</ele><time>2026-05-01T13:37:35.804Z</time></trkpt><trkpt lat="38.7501221" lon="20.7237996"><ele>10.0</ele><time>2026-05-01T13:37:36.805Z</time></trkpt><trkpt lat="38.7502039" lon="20.7237316"><ele>10.0</ele><time>2026-05-01T13:37:37.802Z</time></trkpt><trkpt lat="38.7502928" lon="20.7236304"><ele>10.0</ele><time>2026-05-01T13:37:38.805Z</time></trkpt><trkpt lat="38.7503728" lon="20.7235371"><ele>9.2</ele><time>2026-05-01T13:37:39.804Z</time></trkpt><trkpt lat="38.7504435" lon="20.7234293"><ele>8.4</ele><time>2026-05-01T13:37:40.804Z</time></trkpt><trkpt lat="38.7505044" lon="20.7233132"><ele>7.6</ele><time>2026-05-01T13:37:41.804Z</time></trkpt><trkpt lat="38.7505492" lon="20.7231757"><ele>6.8</ele><time>2026-05-01T13:37:42.802Z</time></trkpt><trkpt lat="38.7505905" lon="20.7230423"><ele>6.0</ele><time>2026-05-01T13:37:43.806Z</time></trkpt><trkpt lat="38.7506195" lon="20.7228586"><ele>6.333333333333334</ele><time>2026-05-01T13:37:44.804Z</time></trkpt><trkpt lat="38.7506556" lon="20.7226523"><ele>6.666666666666667</ele><time>2026-05-01T13:37:45.804Z</time></trkpt><trkpt lat="38.7506974" lon="20.722464"><ele>7.0</ele><time>2026-05-01T13:37:46.805Z</time></trkpt><trkpt lat="38.7507387" lon="20.7222858"><ele>7.0</ele><time>2026-05-01T13:37:47.802Z</time></trkpt><trkpt lat="38.7507749" lon="20.7221165"><ele>7.0</ele><time>2026-05-01T13:37:48.803Z</time></trkpt><trkpt lat="38.7508076" lon="20.721961"><ele>7.0</ele><time>2026-05-01T13:37:49.803Z</time></trkpt><trkpt lat="38.7508356" lon="20.7218197"><ele>7.0</ele><time>2026-05-01T13:37:50.802Z</time></trkpt><trkpt lat="38.7508587" lon="20.7216847"><ele>8.0</ele><time>2026-05-01T13:37:51.803Z</time></trkpt><trkpt lat="38.7508709" lon="20.72155"><ele>9.0</ele><time>2026-05-01T13:37:52.804Z</time></trkpt><trkpt lat="38.750891" lon="20.7214225"><ele>10.0</ele><time>2026-05-01T13:37:53.802Z</time></trkpt><trkpt lat="38.7509203" lon="20.7213008"><ele>11.0</ele><time>2026-05-01T13:37:54.805Z</time></trkpt><trkpt lat="38.7509576" lon="20.7211813"><ele>12.0</ele><time>2026-05-01T13:37:55.804Z</time></trkpt><trkpt lat="38.751008" lon="20.7210724"><ele>12.6</ele><time>2026-05-01T13:37:56.804Z</time></trkpt><trkpt lat="38.7510734" lon="20.7209731"><ele>13.2</ele><time>2026-05-01T13:37:57.806Z</time></trkpt><trkpt lat="38.7511453" lon="20.7208832"><ele>13.8</ele><time>2026-05-01T13:37:58.804Z</time></trkpt><trkpt lat="38.751225" lon="20.7208024"><ele>14.4</ele><time>2026-05-01T13:37:59.803Z</time></trkpt><trkpt lat="38.7513083" lon="20.7207437"><ele>15.0</ele><time>2026-05-01T13:38:00.801Z</time></trkpt><trkpt lat="38.7513922" lon="20.7207036"><ele>15.0</ele><time>2026-05-01T13:38:01.805Z</time></trkpt><trkpt lat="38.7514818" lon="20.720675"><ele>15.0</ele><time>2026-05-01T13:38:02.803Z</time></trkpt><trkpt lat="38.7515765" lon="20.7206692"><ele>15.0</ele><time>2026-05-01T13:38:03.805Z</time></trkpt><trkpt lat="38.7516743" lon="20.7206958"><ele>15.0</ele><time>2026-05-01T13:38:04.804Z</time></trkpt><trkpt lat="38.7517736" lon="20.720711"><ele>15.0</ele><time>2026-05-01T13:38:05.804Z</time></trkpt><trkpt lat="38.7518723" lon="20.7207414"><ele>14.5</ele><time>2026-05-01T13:38:06.802Z</time></trkpt><trkpt lat="38.751954" lon="20.7207837"><ele>14.0</ele><time>2026-05-01T13:38:07.804Z</time></trkpt><trkpt lat="38.7520329" lon="20.7208113"><ele>13.5</ele><time>2026-05-01T13:38:08.805Z</time></trkpt><trkpt lat="38.752116" lon="20.7208321"><ele>13.0</ele><time>2026-05-01T13:38:09.803Z</time></trkpt><trkpt lat="38.7521948" lon="20.7208244"><ele>12.5</ele><time>2026-05-01T13:38:10.807Z</time></trkpt><trkpt lat="38.7522653" lon="20.7207925"><ele>12.0</ele><time>2026-05-01T13:38:11.805Z</time></trkpt><trkpt lat="38.7523332" lon="20.7207562"><ele>12.0</ele><time>2026-05-01T13:38:12.803Z</time></trkpt><trkpt lat="38.7523933" lon="20.7207004"><ele>12.0</ele><time>2026-05-01T13:38:13.803Z</time></trkpt><trkpt lat="38.7524556" lon="20.7206423"><ele>12.0</ele><time>2026-05-01T13:38:14.804Z</time></trkpt><trkpt lat="38.7525291" lon="20.7205772"><ele>12.0</ele><time>2026-05-01T13:38:15.805Z</time></trkpt><trkpt lat="38.7526016" lon="20.7205145"><ele>12.0</ele><time>2026-05-01T13:38:16.806Z</time></trkpt><trkpt lat="38.7526914" lon="20.7204391"><ele>12.0</ele><time>2026-05-01T13:38:17.805Z</time></trkpt><trkpt lat="38.7527808" lon="20.720392"><ele>11.4</ele><time>2026-05-01T13:38:18.803Z</time></trkpt><trkpt lat="38.7528853" lon="20.7203522"><ele>10.799999999999999</ele><time>2026-05-01T13:38:19.805Z</time></trkpt><trkpt lat="38.7529795" lon="20.7203308"><ele>10.2</ele><time>2026-05-01T13:38:20.805Z</time></trkpt><trkpt lat="38.753074" lon="20.7203234"><ele>9.6</ele><time>2026-05-01T13:38:21.804Z</time></trkpt><trkpt lat="38.7531693" lon="20.7203201"><ele>9.0</ele><time>2026-05-01T13:38:22.803Z</time></trkpt><trkpt lat="38.7532688" lon="20.7203254"><ele>9.0</ele><time>2026-05-01T13:38:23.804Z</time></trkpt><trkpt lat="38.7533823" lon="20.7203283"><ele>9.0</ele><time>2026-05-01T13:38:24.806Z</time></trkpt><trkpt lat="38.753485" lon="20.7203363"><ele>9.0</ele><time>2026-05-01T13:38:25.805Z</time></trkpt><trkpt lat="38.753596" lon="20.7203424"><ele>9.0</ele><time>2026-05-01T13:38:26.804Z</time></trkpt><trkpt lat="38.7536997" lon="20.7203436"><ele>9.0</ele><time>2026-05-01T13:38:27.803Z</time></trkpt><trkpt lat="38.7537978" lon="20.7203496"><ele>8.6</ele><time>2026-05-01T13:38:28.805Z</time></trkpt><trkpt lat="38.7538944" lon="20.7203582"><ele>8.2</ele><time>2026-05-01T13:38:29.805Z</time></trkpt><trkpt lat="38.7539896" lon="20.7203667"><ele>7.799999999999999</ele><time>2026-05-01T13:38:30.801Z</time></trkpt><trkpt lat="38.7540827" lon="20.7203701"><ele>7.3999999999999995</ele><time>2026-05-01T13:38:31.804Z</time></trkpt><trkpt lat="38.7541742" lon="20.7203763"><ele>7.0</ele><time>2026-05-01T13:38:32.805Z</time></trkpt><trkpt lat="38.7542682" lon="20.720379"><ele>7.0</ele><time>2026-05-01T13:38:33.802Z</time></trkpt><trkpt lat="38.7543714" lon="20.7203753"><ele>6.999999999999999</ele><time>2026-05-01T13:38:34.804Z</time></trkpt><trkpt lat="38.7544725" lon="20.7203705"><ele>6.999999999999999</ele><time>2026-05-01T13:38:35.805Z</time></trkpt><trkpt lat="38.7545725" lon="20.7203672"><ele>7.0</ele><time>2026-05-01T13:38:36.802Z</time></trkpt><trkpt lat="38.7546697" lon="20.7203542"><ele>7.0</ele><time>2026-05-01T13:38:37.803Z</time></trkpt><trkpt lat="38.7547635" lon="20.720338"><ele>7.500000000000001</ele><time>2026-05-01T13:38:38.801Z</time></trkpt><trkpt lat="38.754852" lon="20.7203107"><ele>8.0</ele><time>2026-05-01T13:38:39.804Z</time></trkpt><trkpt lat="38.7549322" lon="20.7202771"><ele>8.5</ele><time>2026-05-01T13:38:40.806Z</time></trkpt><trkpt lat="38.7550122" lon="20.7202412"><ele>9.0</ele><time>2026-05-01T13:38:41.802Z</time></trkpt><trkpt lat="38.7550917" lon="20.7201893"><ele>9.5</ele><time>2026-05-01T13:38:42.805Z</time></trkpt><trkpt lat="38.7551684" lon="20.7201294"><ele>10.0</ele><time>2026-05-01T13:38:43.803Z</time></trkpt><trkpt lat="38.7552474" lon="20.720068"><ele>8.2</ele><time>2026-05-01T13:38:44.804Z</time></trkpt><trkpt lat="38.7553296" lon="20.7200401"><ele>6.4</ele><time>2026-05-01T13:38:45.805Z</time></trkpt><trkpt lat="38.7554128" lon="20.7199928"><ele>4.6</ele><time>2026-05-01T13:38:46.8Z</time></trkpt><trkpt lat="38.7554949" lon="20.7199302"><ele>2.8</ele><time>2026-05-01T13:38:47.803Z</time></trkpt><trkpt lat="38.7555801" lon="20.7198694"><ele>1.0</ele><time>2026-05-01T13:38:48.804Z</time></trkpt><trkpt lat="38.7556639" lon="20.7198161"><ele>1.0</ele><time>2026-05-01T13:38:49.805Z</time></trkpt><trkpt lat="38.7557465" lon="20.719772"><ele>1.0</ele><time>2026-05-01T13:38:50.802Z</time></trkpt><trkpt lat="38.7558354" lon="20.719732"><ele>1.0</ele><time>2026-05-01T13:38:51.805Z</time></trkpt><trkpt lat="38.755919" lon="20.7197001"><ele>1.0</ele><time>2026-05-01T13:38:52.803Z</time></trkpt><trkpt lat="38.7560052" lon="20.7196794"><ele>1.0</ele><time>2026-05-01T13:38:53.804Z</time></trkpt><trkpt lat="38.756097" lon="20.7196607"><ele>1.8</ele><time>2026-05-01T13:38:54.802Z</time></trkpt><trkpt lat="38.7561875" lon="20.719652"><ele>2.6</ele><time>2026-05-01T13:38:55.804Z</time></trkpt><trkpt lat="38.7562819" lon="20.7196495"><ele>3.4</ele><time>2026-05-01T13:38:56.804Z</time></trkpt><trkpt lat="38.7563704" lon="20.719641"><ele>4.2</ele><time>2026-05-01T13:38:57.803Z</time></trkpt><trkpt lat="38.7564596" lon="20.7196442"><ele>5.0</ele><time>2026-05-01T13:38:58.805Z</time></trkpt><trkpt lat="38.7565484" lon="20.7196401"><ele>5.0</ele><time>2026-05-01T13:38:59.806Z</time></trkpt><trkpt lat="38.7566397" lon="20.7196412"><ele>5.0</ele><time>2026-05-01T13:39:00.806Z</time></trkpt><trkpt lat="38.7567371" lon="20.7196383"><ele>5.0</ele><time>2026-05-01T13:39:01.804Z</time></trkpt><trkpt lat="38.7568232" lon="20.7196377"><ele>5.0</ele><time>2026-05-01T13:39:02.802Z</time></trkpt><trkpt lat="38.7569019" lon="20.7196554"><ele>5.0</ele><time>2026-05-01T13:39:03.806Z</time></trkpt><trkpt lat="38.7569873" lon="20.7196516"><ele>5.0</ele><time>2026-05-01T13:39:04.802Z</time></trkpt><trkpt lat="38.7570699" lon="20.7196486"><ele>5.0</ele><time>2026-05-01T13:39:05.805Z</time></trkpt><trkpt lat="38.7571556" lon="20.7196451"><ele>5.0</ele><time>2026-05-01T13:39:06.804Z</time></trkpt><trkpt lat="38.7572548" lon="20.7196355"><ele>5.0</ele><time>2026-05-01T13:39:07.803Z</time></trkpt><trkpt lat="38.7573508" lon="20.7196297"><ele>5.0</ele><time>2026-05-01T13:39:08.804Z</time></trkpt><trkpt lat="38.7574469" lon="20.7196234"><ele>5.0</ele><time>2026-05-01T13:39:09.804Z</time></trkpt><trkpt lat="38.7575444" lon="20.7196182"><ele>5.0</ele><time>2026-05-01T13:39:10.802Z</time></trkpt><trkpt lat="38.7576458" lon="20.7196103"><ele>5.0</ele><time>2026-05-01T13:39:11.804Z</time></trkpt><trkpt lat="38.7577458" lon="20.7196087"><ele>5.0</ele><time>2026-05-01T13:39:12.807Z</time></trkpt><trkpt lat="38.7578465" lon="20.7195967"><ele>5.0</ele><time>2026-05-01T13:39:13.803Z</time></trkpt><trkpt lat="38.7579406" lon="20.71959"><ele>5.0</ele><time>2026-05-01T13:39:14.803Z</time></trkpt><trkpt lat="38.7580295" lon="20.7195846"><ele>5.0</ele><time>2026-05-01T13:39:15.801Z</time></trkpt><trkpt lat="38.7581205" lon="20.7195735"><ele>5.0</ele><time>2026-05-01T13:39:16.803Z</time></trkpt><trkpt lat="38.7582176" lon="20.7195558"><ele>5.0</ele><time>2026-05-01T13:39:17.802Z</time></trkpt><trkpt lat="38.7583073" lon="20.7195459"><ele>5.0</ele><time>2026-05-01T13:39:18.803Z</time></trkpt><trkpt lat="38.7583966" lon="20.7195513"><ele>5.0</ele><time>2026-05-01T13:39:19.802Z</time></trkpt><trkpt lat="38.7584798" lon="20.7195598"><ele>4.833333333333334</ele><time>2026-05-01T13:39:20.805Z</time></trkpt><trkpt lat="38.7585706" lon="20.7195413"><ele>4.666666666666667</ele><time>2026-05-01T13:39:21.803Z</time></trkpt><trkpt lat="38.758657" lon="20.7195276"><ele>4.5</ele><time>2026-05-01T13:39:22.805Z</time></trkpt><trkpt lat="38.7587436" lon="20.7195234"><ele>4.333333333333333</ele><time>2026-05-01T13:39:23.805Z</time></trkpt><trkpt lat="38.7588329" lon="20.7195185"><ele>4.166666666666666</ele><time>2026-05-01T13:39:24.803Z</time></trkpt><trkpt lat="38.7589219" lon="20.7195185"><ele>4.0</ele><time>2026-05-01T13:39:25.802Z</time></trkpt><trkpt lat="38.7590143" lon="20.7195252"><ele>4.0</ele><time>2026-05-01T13:39:26.802Z</time></trkpt><trkpt lat="38.7591065" lon="20.7195256"><ele>4.0</ele><time>2026-05-01T13:39:27.805Z</time></trkpt><trkpt lat="38.7592004" lon="20.7195204"><ele>4.0</ele><time>2026-05-01T13:39:28.805Z</time></trkpt><trkpt lat="38.7592983" lon="20.7195126"><ele>4.0</ele><time>2026-05-01T13:39:29.805Z</time></trkpt><trkpt lat="38.7593998" lon="20.7195047"><ele>4.0</ele><time>2026-05-01T13:39:30.803Z</time></trkpt><trkpt lat="38.7595081" lon="20.7194907"><ele>4.2</ele><time>2026-05-01T13:39:31.804Z</time></trkpt><trkpt lat="38.759609" lon="20.7194816"><ele>4.4</ele><time>2026-05-01T13:39:32.802Z</time></trkpt><trkpt lat="38.7597107" lon="20.7194725"><ele>4.6</ele><time>2026-05-01T13:39:33.804Z</time></trkpt><trkpt lat="38.7598108" lon="20.7194617"><ele>4.8</ele><time>2026-05-01T13:39:34.803Z</time></trkpt><trkpt lat="38.7598972" lon="20.7194565"><ele>5.0</ele><time>2026-05-01T13:39:35.804Z</time></trkpt><trkpt lat="38.7599905" lon="20.7194491"><ele>5.0</ele><time>2026-05-01T13:39:36.802Z</time></trkpt><trkpt lat="38.7600692" lon="20.7194438"><ele>5.0</ele><time>2026-05-01T13:39:37.804Z</time></trkpt><trkpt lat="38.7601523" lon="20.7194421"><ele>5.0</ele><time>2026-05-01T13:39:38.804Z</time></trkpt><trkpt lat="38.7602391" lon="20.7194428"><ele>5.0</ele><time>2026-05-01T13:39:39.803Z</time></trkpt><trkpt lat="38.7603346" lon="20.7194349"><ele>5.0</ele><time>2026-05-01T13:39:40.802Z</time></trkpt><trkpt lat="38.7604358" lon="20.7194303"><ele>5.0</ele><time>2026-05-01T13:39:41.804Z</time></trkpt><trkpt lat="38.7605405" lon="20.7194351"><ele>5.2</ele><time>2026-05-01T13:39:42.801Z</time></trkpt><trkpt lat="38.7606402" lon="20.719432"><ele>5.4</ele><time>2026-05-01T13:39:43.803Z</time></trkpt><trkpt lat="38.7607411" lon="20.7194263"><ele>5.6</ele><time>2026-05-01T13:39:44.803Z</time></trkpt><trkpt lat="38.7608365" lon="20.7194113"><ele>5.8</ele><time>2026-05-01T13:39:45.803Z</time></trkpt><trkpt lat="38.7609243" lon="20.7193859"><ele>6.0</ele><time>2026-05-01T13:39:46.805Z</time></trkpt><trkpt lat="38.7610004" lon="20.7193471"><ele>5.5</ele><time>2026-05-01T13:39:47.805Z</time></trkpt><trkpt lat="38.7610682" lon="20.7193014"><ele>5.0</ele><time>2026-05-01T13:39:48.803Z</time></trkpt><trkpt lat="38.7611326" lon="20.7192516"><ele>4.5</ele><time>2026-05-01T13:39:49.803Z</time></trkpt><trkpt lat="38.7611951" lon="20.719193"><ele>4.0</ele><time>2026-05-01T13:39:50.801Z</time></trkpt><trkpt lat="38.7612569" lon="20.7191143"><ele>3.5</ele><time>2026-05-01T13:39:51.803Z</time></trkpt><trkpt lat="38.7613165" lon="20.719019"><ele>3.0</ele><time>2026-05-01T13:39:52.803Z</time></trkpt><trkpt lat="38.76138" lon="20.7189201"><ele>3.0</ele><time>2026-05-01T13:39:53.805Z</time></trkpt><trkpt lat="38.761448" lon="20.7188176"><ele>3.0</ele><time>2026-05-01T13:39:54.803Z</time></trkpt><trkpt lat="38.761526" lon="20.7187267"><ele>3.0</ele><time>2026-05-01T13:39:55.806Z</time></trkpt><trkpt lat="38.761608" lon="20.7186515"><ele>3.0</ele><time>2026-05-01T13:39:56.804Z</time></trkpt><trkpt lat="38.7617034" lon="20.7185874"><ele>3.0</ele><time>2026-05-01T13:39:57.805Z</time></trkpt><trkpt lat="38.7618088" lon="20.7185223"><ele>4.4</ele><time>2026-05-01T13:39:58.802Z</time></trkpt><trkpt lat="38.7619085" lon="20.7184909"><ele>5.8</ele><time>2026-05-01T13:39:59.806Z</time></trkpt><trkpt lat="38.7620138" lon="20.7184674"><ele>7.2</ele><time>2026-05-01T13:40:00.803Z</time></trkpt><trkpt lat="38.7621248" lon="20.718439"><ele>8.6</ele><time>2026-05-01T13:40:01.805Z</time></trkpt><trkpt lat="38.7622393" lon="20.7184275"><ele>10.0</ele><time>2026-05-01T13:40:02.804Z</time></trkpt><trkpt lat="38.7623556" lon="20.7184228"><ele>10.0</ele><time>2026-05-01T13:40:03.804Z</time></trkpt><trkpt lat="38.7624667" lon="20.7184346"><ele>10.0</ele><time>2026-05-01T13:40:04.804Z</time></trkpt><trkpt lat="38.7625793" lon="20.7184482"><ele>10.0</ele><time>2026-05-01T13:40:05.803Z</time></trkpt><trkpt lat="38.7626933" lon="20.7184715"><ele>10.0</ele><time>2026-05-01T13:40:06.804Z</time></trkpt><trkpt lat="38.7628181" lon="20.7184877"><ele>10.5</ele><time>2026-05-01T13:40:07.805Z</time></trkpt><trkpt lat="38.7629524" lon="20.718508"><ele>11.0</ele><time>2026-05-01T13:40:08.805Z</time></trkpt><trkpt lat="38.7630851" lon="20.7185287"><ele>11.5</ele><time>2026-05-01T13:40:09.803Z</time></trkpt><trkpt lat="38.7632216" lon="20.7185284"><ele>12.0</ele><time>2026-05-01T13:40:10.804Z</time></trkpt><trkpt lat="38.7633584" lon="20.7185197"><ele>12.0</ele><time>2026-05-01T13:40:11.804Z</time></trkpt><trkpt lat="38.7634858" lon="20.7184989"><ele>12.0</ele><time>2026-05-01T13:40:12.804Z</time></trkpt><trkpt lat="38.763605" lon="20.7184754"><ele>12.0</ele><time>2026-05-01T13:40:13.803Z</time></trkpt><trkpt lat="38.7637234" lon="20.7184434"><ele>12.0</ele><time>2026-05-01T13:40:14.801Z</time></trkpt><trkpt lat="38.7638413" lon="20.7184278"><ele>11.75</ele><time>2026-05-01T13:40:15.804Z</time></trkpt><trkpt lat="38.7639563" lon="20.718434"><ele>11.5</ele><time>2026-05-01T13:40:16.802Z</time></trkpt><trkpt lat="38.7640728" lon="20.7184583"><ele>11.25</ele><time>2026-05-01T13:40:17.802Z</time></trkpt><trkpt lat="38.7641977" lon="20.7185029"><ele>11.0</ele><time>2026-05-01T13:40:18.806Z</time></trkpt><trkpt lat="38.7643231" lon="20.7185582"><ele>9.333333333333332</ele><time>2026-05-01T13:40:19.803Z</time></trkpt><trkpt lat="38.7644586" lon="20.7186171"><ele>7.666666666666666</ele><time>2026-05-01T13:40:20.804Z</time></trkpt><trkpt lat="38.7646159" lon="20.7186884"><ele>6.0</ele><time>2026-05-01T13:40:21.804Z</time></trkpt><trkpt lat="38.7647587" lon="20.7187531"><ele>6.0</ele><time>2026-05-01T13:40:22.802Z</time></trkpt><trkpt lat="38.7648757" lon="20.7188084"><ele>6.0</ele><time>2026-05-01T13:40:23.803Z</time></trkpt><trkpt lat="38.7649782" lon="20.7188615"><ele>6.0</ele><time>2026-05-01T13:40:24.804Z</time></trkpt><trkpt lat="38.7650779" lon="20.7189096"><ele>6.0</ele><time>2026-05-01T13:40:25.804Z</time></trkpt><trkpt lat="38.7651858" lon="20.7189583"><ele>6.0</ele><time>2026-05-01T13:40:26.805Z</time></trkpt><trkpt lat="38.7653143" lon="20.7190111"><ele>6.0</ele><time>2026-05-01T13:40:27.804Z</time></trkpt><trkpt lat="38.7654749" lon="20.7190523"><ele>6.0</ele><time>2026-05-01T13:40:28.804Z</time></trkpt><trkpt lat="38.7656551" lon="20.7190987"><ele>6.0</ele><time>2026-05-01T13:40:29.806Z</time></trkpt><trkpt lat="38.7658828" lon="20.7191329"><ele>6.0</ele><time>2026-05-01T13:40:30.801Z</time></trkpt><trkpt lat="38.7661339" lon="20.7191609"><ele>6.5</ele><time>2026-05-01T13:40:31.803Z</time></trkpt><trkpt lat="38.7663799" lon="20.7192008"><ele>7.0</ele><time>2026-05-01T13:40:32.805Z</time></trkpt><trkpt lat="38.7666048" lon="20.7192651"><ele>7.0</ele><time>2026-05-01T13:40:33.804Z</time></trkpt><trkpt lat="38.7668177" lon="20.7193262"><ele>7.0</ele><time>2026-05-01T13:40:34.804Z</time></trkpt><trkpt lat="38.7670176" lon="20.7193822"><ele>7.0</ele><time>2026-05-01T13:40:35.804Z</time></trkpt><trkpt lat="38.7672091" lon="20.719432"><ele>6.666666666666667</ele><time>2026-05-01T13:40:36.801Z</time></trkpt><trkpt lat="38.7673892" lon="20.7194693"><ele>6.333333333333334</ele><time>2026-05-01T13:40:37.804Z</time></trkpt><trkpt lat="38.7675672" lon="20.7194949"><ele>6.0</ele><time>2026-05-01T13:40:38.805Z</time></trkpt><trkpt lat="38.76772" lon="20.7195286"><ele>7.0</ele><time>2026-05-01T13:40:39.806Z</time></trkpt><trkpt lat="38.767864" lon="20.7195647"><ele>8.0</ele><time>2026-05-01T13:40:40.802Z</time></trkpt><trkpt lat="38.7679912" lon="20.7196092"><ele>9.0</ele><time>2026-05-01T13:40:41.804Z</time></trkpt><trkpt lat="38.768107" lon="20.7196695"><ele>10.0</ele><time>2026-05-01T13:40:42.804Z</time></trkpt><trkpt lat="38.7682174" lon="20.7197514"><ele>10.0</ele><time>2026-05-01T13:40:43.806Z</time></trkpt><trkpt lat="38.7683042" lon="20.7198652"><ele>10.0</ele><time>2026-05-01T13:40:44.803Z</time></trkpt><trkpt lat="38.7683905" lon="20.7200167"><ele>10.0</ele><time>2026-05-01T13:40:45.802Z</time></trkpt><trkpt lat="38.7684689" lon="20.7201816"><ele>10.0</ele><time>2026-05-01T13:40:46.802Z</time></trkpt><trkpt lat="38.7685441" lon="20.7203333"><ele>9.5</ele><time>2026-05-01T13:40:47.804Z</time></trkpt><trkpt lat="38.7686271" lon="20.7204807"><ele>9.0</ele><time>2026-05-01T13:40:48.805Z</time></trkpt><trkpt lat="38.7687222" lon="20.7206255"><ele>8.5</ele><time>2026-05-01T13:40:49.802Z</time></trkpt><trkpt lat="38.7688338" lon="20.7207592"><ele>8.0</ele><time>2026-05-01T13:40:50.804Z</time></trkpt><trkpt lat="38.7689603" lon="20.7208953"><ele>8.0</ele><time>2026-05-01T13:40:51.802Z</time></trkpt><trkpt lat="38.7690956" lon="20.7210026"><ele>8.0</ele><time>2026-05-01T13:40:52.803Z</time></trkpt><trkpt lat="38.7692489" lon="20.7211063"><ele>8.0</ele><time>2026-05-01T13:40:53.805Z</time></trkpt><trkpt lat="38.7694076" lon="20.7212014"><ele>7.666666666666666</ele><time>2026-05-01T13:40:54.803Z</time></trkpt><trkpt lat="38.7695658" lon="20.7212937"><ele>7.333333333333334</ele><time>2026-05-01T13:40:55.805Z</time></trkpt><trkpt lat="38.7697346" lon="20.7213923"><ele>7.0</ele><time>2026-05-01T13:40:56.803Z</time></trkpt><trkpt lat="38.7699067" lon="20.7214961"><ele>7.0</ele><time>2026-05-01T13:40:57.805Z</time></trkpt><trkpt lat="38.7700816" lon="20.7216006"><ele>7.0</ele><time>2026-05-01T13:40:58.805Z</time></trkpt><trkpt lat="38.7702581" lon="20.7217033"><ele>7.0</ele><time>2026-05-01T13:40:59.803Z</time></trkpt><trkpt lat="38.7704319" lon="20.7218052"><ele>6.333333333333334</ele><time>2026-05-01T13:41:00.8Z</time></trkpt><trkpt lat="38.7706146" lon="20.7218991"><ele>5.666666666666667</ele><time>2026-05-01T13:41:01.804Z</time></trkpt><trkpt lat="38.7707786" lon="20.721989"><ele>5.0</ele><time>2026-05-01T13:41:02.802Z</time></trkpt><trkpt lat="38.7709415" lon="20.7220842"><ele>4.666666666666667</ele><time>2026-05-01T13:41:03.804Z</time></trkpt><trkpt lat="38.7711011" lon="20.7221831"><ele>4.333333333333333</ele><time>2026-05-01T13:41:04.803Z</time></trkpt><trkpt lat="38.7712497" lon="20.722273"><ele>4.0</ele><time>2026-05-01T13:41:05.805Z</time></trkpt><trkpt lat="38.7714022" lon="20.722359"><ele>4.0</ele><time>2026-05-01T13:41:06.803Z</time></trkpt><trkpt lat="38.7715426" lon="20.7224221"><ele>4.0</ele><time>2026-05-01T13:41:07.803Z</time></trkpt><trkpt lat="38.7716835" lon="20.722471"><ele>4.0</ele><time>2026-05-01T13:41:08.804Z</time></trkpt><trkpt lat="38.7718358" lon="20.7224818"><ele>4.0</ele><time>2026-05-01T13:41:09.802Z</time></trkpt><trkpt lat="38.7719969" lon="20.7224789"><ele>4.0</ele><time>2026-05-01T13:41:10.806Z</time></trkpt><trkpt lat="38.7721608" lon="20.7224385"><ele>4.0</ele><time>2026-05-01T13:41:11.801Z</time></trkpt><trkpt lat="38.7723213" lon="20.7223909"><ele>4.0</ele><time>2026-05-01T13:41:12.804Z</time></trkpt><trkpt lat="38.772485" lon="20.7223291"><ele>4.0</ele><time>2026-05-01T13:41:13.802Z</time></trkpt><trkpt lat="38.7726489" lon="20.7222901"><ele>4.0</ele><time>2026-05-01T13:41:14.801Z</time></trkpt><trkpt lat="38.7728127" lon="20.7222727"><ele>4.0</ele><time>2026-05-01T13:41:15.803Z</time></trkpt><trkpt lat="38.7729804" lon="20.7222994"><ele>6.333333333333333</ele><time>2026-05-01T13:41:16.804Z</time></trkpt><trkpt lat="38.7731445" lon="20.7223443"><ele>8.666666666666666</ele><time>2026-05-01T13:41:17.804Z</time></trkpt><trkpt lat="38.7733079" lon="20.7224139"><ele>11.0</ele><time>2026-05-01T13:41:18.801Z</time></trkpt><trkpt lat="38.7734725" lon="20.7224929"><ele>8.666666666666666</ele><time>2026-05-01T13:41:19.801Z</time></trkpt><trkpt lat="38.7736395" lon="20.7225782"><ele>6.333333333333333</ele><time>2026-05-01T13:41:20.803Z</time></trkpt><trkpt lat="38.7738085" lon="20.7226681"><ele>4.0</ele><time>2026-05-01T13:41:21.803Z</time></trkpt><trkpt lat="38.7739811" lon="20.7227445"><ele>4.0</ele><time>2026-05-01T13:41:22.803Z</time></trkpt><trkpt lat="38.7741552" lon="20.7227996"><ele>4.0</ele><time>2026-05-01T13:41:23.802Z</time></trkpt><trkpt lat="38.7743317" lon="20.7228383"><ele>4.0</ele><time>2026-05-01T13:41:24.803Z</time></trkpt><trkpt lat="38.7745126" lon="20.7228482"><ele>4.333333333333333</ele><time>2026-05-01T13:41:25.802Z</time></trkpt><trkpt lat="38.7746958" lon="20.7228546"><ele>4.666666666666667</ele><time>2026-05-01T13:41:26.801Z</time></trkpt><trkpt lat="38.7748783" lon="20.7228651"><ele>5.0</ele><time>2026-05-01T13:41:27.803Z</time></trkpt><trkpt lat="38.7750434" lon="20.7228825"><ele>4.666666666666667</ele><time>2026-05-01T13:41:28.804Z</time></trkpt><trkpt lat="38.7752039" lon="20.7229047"><ele>4.333333333333333</ele><time>2026-05-01T13:41:29.803Z</time></trkpt><trkpt lat="38.7753544" lon="20.7229125"><ele>4.0</ele><time>2026-05-01T13:41:30.807Z</time></trkpt><trkpt lat="38.7754964" lon="20.722885"><ele>4.0</ele><time>2026-05-01T13:41:31.803Z</time></trkpt><trkpt lat="38.775631" lon="20.7228279"><ele>4.0</ele><time>2026-05-01T13:41:32.804Z</time></trkpt><trkpt lat="38.7757517" lon="20.7227429"><ele>4.0</ele><time>2026-05-01T13:41:33.801Z</time></trkpt><trkpt lat="38.7758721" lon="20.7226432"><ele>4.0</ele><time>2026-05-01T13:41:34.802Z</time></trkpt><trkpt lat="38.7760038" lon="20.7225493"><ele>6.75</ele><time>2026-05-01T13:41:35.804Z</time></trkpt><trkpt lat="38.7761321" lon="20.7224962"><ele>9.5</ele><time>2026-05-01T13:41:36.803Z</time></trkpt><trkpt lat="38.7762632" lon="20.7224706"><ele>12.25</ele><time>2026-05-01T13:41:37.802Z</time></trkpt><trkpt lat="38.7764027" lon="20.7224995"><ele>15.0</ele><time>2026-05-01T13:41:38.802Z</time></trkpt><trkpt lat="38.7765411" lon="20.7225515"><ele>15.0</ele><time>2026-05-01T13:41:39.805Z</time></trkpt><trkpt lat="38.7766781" lon="20.7226259"><ele>15.0</ele><time>2026-05-01T13:41:40.805Z</time></trkpt><trkpt lat="38.7768103" lon="20.7227166"><ele>15.0</ele><time>2026-05-01T13:41:41.805Z</time></trkpt><trkpt lat="38.7769513" lon="20.7227792"><ele>15.0</ele><time>2026-05-01T13:41:42.802Z</time></trkpt><trkpt lat="38.777091" lon="20.7228087"><ele>14.333333333333332</ele><time>2026-05-01T13:41:43.805Z</time></trkpt><trkpt lat="38.777234" lon="20.7228096"><ele>13.666666666666666</ele><time>2026-05-01T13:41:44.805Z</time></trkpt><trkpt lat="38.7773832" lon="20.722777"><ele>13.0</ele><time>2026-05-01T13:41:45.803Z</time></trkpt><trkpt lat="38.777536" lon="20.7227134"><ele>9.0</ele><time>2026-05-01T13:41:46.804Z</time></trkpt><trkpt lat="38.7776862" lon="20.7226189"><ele>5.0</ele><time>2026-05-01T13:41:47.806Z</time></trkpt><trkpt lat="38.7778416" lon="20.7225103"><ele>1.0</ele><time>2026-05-01T13:41:48.803Z</time></trkpt><trkpt lat="38.7779922" lon="20.7223942"><ele>1.0</ele><time>2026-05-01T13:41:49.803Z</time></trkpt><trkpt lat="38.7781436" lon="20.7222692"><ele>1.0</ele><time>2026-05-01T13:41:50.803Z</time></trkpt><trkpt lat="38.7782969" lon="20.7221408"><ele>1.0</ele><time>2026-05-01T13:41:51.804Z</time></trkpt><trkpt lat="38.7784521" lon="20.7220031"><ele>2.0</ele><time>2026-05-01T13:41:52.802Z</time></trkpt><trkpt lat="38.7786053" lon="20.721877"><ele>3.0</ele><time>2026-05-01T13:41:53.803Z</time></trkpt><trkpt lat="38.7787648" lon="20.7217455"><ele>4.0</ele><time>2026-05-01T13:41:54.803Z</time></trkpt><trkpt lat="38.7789339" lon="20.7216049"><ele>4.0</ele><time>2026-05-01T13:41:55.802Z</time></trkpt><trkpt lat="38.7790992" lon="20.7214654"><ele>4.0</ele><time>2026-05-01T13:41:56.801Z</time></trkpt><trkpt lat="38.779266" lon="20.7213311"><ele>4.0</ele><time>2026-05-01T13:41:57.803Z</time></trkpt><trkpt lat="38.7794362" lon="20.7211945"><ele>3.333333333333333</ele><time>2026-05-01T13:41:58.802Z</time></trkpt><trkpt lat="38.7796046" lon="20.7210664"><ele>2.6666666666666665</ele><time>2026-05-01T13:41:59.803Z</time></trkpt><trkpt lat="38.7797749" lon="20.7209462"><ele>2.0</ele><time>2026-05-01T13:42:00.803Z</time></trkpt><trkpt lat="38.7799439" lon="20.7208473"><ele>2.0</ele><time>2026-05-01T13:42:01.803Z</time></trkpt><trkpt lat="38.780119" lon="20.72076"><ele>2.0</ele><time>2026-05-01T13:42:02.804Z</time></trkpt><trkpt lat="38.7802937" lon="20.7207016"><ele>2.0</ele><time>2026-05-01T13:42:03.806Z</time></trkpt><trkpt lat="38.7804782" lon="20.7206689"><ele>2.6666666666666665</ele><time>2026-05-01T13:42:04.803Z</time></trkpt><trkpt lat="38.7806639" lon="20.7206502"><ele>3.333333333333333</ele><time>2026-05-01T13:42:05.802Z</time></trkpt><trkpt lat="38.7808521" lon="20.7206629"><ele>4.0</ele><time>2026-05-01T13:42:06.802Z</time></trkpt><trkpt lat="38.7810369" lon="20.7206836"><ele>4.0</ele><time>2026-05-01T13:42:07.801Z</time></trkpt><trkpt lat="38.7812269" lon="20.720691"><ele>4.0</ele><time>2026-05-01T13:42:08.801Z</time></trkpt><trkpt lat="38.7814133" lon="20.7207158"><ele>4.0</ele><time>2026-05-01T13:42:09.803Z</time></trkpt><trkpt lat="38.7815968" lon="20.7207417"><ele>4.0</ele><time>2026-05-01T13:42:10.802Z</time></trkpt><trkpt lat="38.7817803" lon="20.7207691"><ele>4.0</ele><time>2026-05-01T13:42:11.803Z</time></trkpt><trkpt lat="38.7819658" lon="20.720772"><ele>4.0</ele><time>2026-05-01T13:42:12.8Z</time></trkpt><trkpt lat="38.7821542" lon="20.720754"><ele>5.333333333333333</ele><time>2026-05-01T13:42:13.802Z</time></trkpt><trkpt lat="38.78234" lon="20.720727"><ele>6.666666666666666</ele><time>2026-05-01T13:42:14.801Z</time></trkpt><trkpt lat="38.7825248" lon="20.7206906"><ele>8.0</ele><time>2026-05-01T13:42:15.803Z</time></trkpt><trkpt lat="38.7827015" lon="20.720656"><ele>8.0</ele><time>2026-05-01T13:42:16.807Z</time></trkpt><trkpt lat="38.782865" lon="20.7206438"><ele>8.0</ele><time>2026-05-01T13:42:17.802Z</time></trkpt><trkpt lat="38.7830381" lon="20.7206496"><ele>8.0</ele><time>2026-05-01T13:42:18.801Z</time></trkpt><trkpt lat="38.7832227" lon="20.7206825"><ele>8.0</ele><time>2026-05-01T13:42:19.802Z</time></trkpt><trkpt lat="38.7834122" lon="20.720728"><ele>8.0</ele><time>2026-05-01T13:42:20.801Z</time></trkpt><trkpt lat="38.7835974" lon="20.720787"><ele>8.0</ele><time>2026-05-01T13:42:21.8Z</time></trkpt><trkpt lat="38.7837828" lon="20.7208492"><ele>8.0</ele><time>2026-05-01T13:42:22.803Z</time></trkpt><trkpt lat="38.7839707" lon="20.7209134"><ele>8.0</ele><time>2026-05-01T13:42:23.801Z</time></trkpt><trkpt lat="38.7841593" lon="20.7209789"><ele>8.0</ele><time>2026-05-01T13:42:24.802Z</time></trkpt><trkpt lat="38.7843484" lon="20.7210438"><ele>6.666666666666666</ele><time>2026-05-01T13:42:25.803Z</time></trkpt><trkpt lat="38.7845395" lon="20.7211072"><ele>5.333333333333333</ele><time>2026-05-01T13:42:26.801Z</time></trkpt><trkpt lat="38.7847284" lon="20.7211649"><ele>4.0</ele><time>2026-05-01T13:42:27.802Z</time></trkpt><trkpt lat="38.7849168" lon="20.7212281"><ele>4.0</ele><time>2026-05-01T13:42:28.802Z</time></trkpt><trkpt lat="38.7851115" lon="20.7212877"><ele>4.0</ele><time>2026-05-01T13:42:29.8Z</time></trkpt><trkpt lat="38.785296" lon="20.7213481"><ele>4.0</ele><time>2026-05-01T13:42:30.802Z</time></trkpt><trkpt lat="38.7854678" lon="20.7214121"><ele>5.666666666666666</ele><time>2026-05-01T13:42:31.803Z</time></trkpt><trkpt lat="38.7856405" lon="20.7214663"><ele>7.333333333333333</ele><time>2026-05-01T13:42:32.803Z</time></trkpt><trkpt lat="38.7858076" lon="20.7215203"><ele>9.0</ele><time>2026-05-01T13:42:33.802Z</time></trkpt><trkpt lat="38.7859583" lon="20.7215686"><ele>8.0</ele><time>2026-05-01T13:42:34.803Z</time></trkpt><trkpt lat="38.7860955" lon="20.72161"><ele>7.0</ele><time>2026-05-01T13:42:35.803Z</time></trkpt><trkpt lat="38.7862089" lon="20.7216397"><ele>6.0</ele><time>2026-05-01T13:42:36.803Z</time></trkpt><trkpt lat="38.7863169" lon="20.7216523"><ele>5.0</ele><time>2026-05-01T13:42:37.803Z</time></trkpt><trkpt lat="38.7864201" lon="20.7216291"><ele>5.0</ele><time>2026-05-01T13:42:38.801Z</time></trkpt><trkpt lat="38.7865124" lon="20.7215802"><ele>5.0</ele><time>2026-05-01T13:42:39.803Z</time></trkpt><trkpt lat="38.7866033" lon="20.7215094"><ele>5.0</ele><time>2026-05-01T13:42:40.802Z</time></trkpt><trkpt lat="38.786694" lon="20.7214179"><ele>5.0</ele><time>2026-05-01T13:42:41.803Z</time></trkpt><trkpt lat="38.7867829" lon="20.7213219"><ele>5.0</ele><time>2026-05-01T13:42:42.803Z</time></trkpt><trkpt lat="38.7868667" lon="20.7212356"><ele>4.0</ele><time>2026-05-01T13:42:43.804Z</time></trkpt><trkpt lat="38.7869423" lon="20.7211521"><ele>3.0</ele><time>2026-05-01T13:42:44.803Z</time></trkpt><trkpt lat="38.7870119" lon="20.7210757"><ele>2.0</ele><time>2026-05-01T13:42:45.802Z</time></trkpt><trkpt lat="38.7870751" lon="20.7210005"><ele>1.0</ele><time>2026-05-01T13:42:46.801Z</time></trkpt><trkpt lat="38.7871356" lon="20.72092"><ele>1.1102230246251565E-16</ele><time>2026-05-01T13:42:47.8Z</time></trkpt><trkpt lat="38.7871876" lon="20.7208427"><ele>-1.0</ele><time>2026-05-01T13:42:48.805Z</time></trkpt><trkpt lat="38.7872412" lon="20.7207626"><ele>-1.2000000000000002</ele><time>2026-05-01T13:42:49.803Z</time></trkpt><trkpt lat="38.7872933" lon="20.7206777"><ele>-1.4000000000000001</ele><time>2026-05-01T13:42:50.8Z</time></trkpt><trkpt lat="38.787343" lon="20.7205894"><ele>-1.6</ele><time>2026-05-01T13:42:51.805Z</time></trkpt><trkpt lat="38.7874243" lon="20.7204841"><ele>-1.8</ele><time>2026-05-01T13:42:53.801Z</time></trkpt><trkpt lat="38.7874944" lon="20.7204187"><ele>-2.0</ele><time>2026-05-01T13:42:55.803Z</time></trkpt><trkpt lat="38.7875759" lon="20.7203413"><ele>-2.0</ele><time>2026-05-01T13:42:57.802Z</time></trkpt><trkpt lat="38.7876723" lon="20.7202622"><ele>-2.0</ele><time>2026-05-01T13:42:59.806Z</time></trkpt><trkpt lat="38.7877313" lon="20.7202059"><ele>-2.0</ele><time>2026-05-01T13:43:00.804Z</time></trkpt><trkpt lat="38.787836" lon="20.7201387"><ele>-2.0</ele><time>2026-05-01T13:43:02.802Z</time></trkpt><trkpt lat="38.7879289" lon="20.7200851"><ele>-2.0</ele><time>2026-05-01T13:43:04.804Z</time></trkpt><trkpt lat="38.7880085" lon="20.7200657"><ele>3.0</ele><time>2026-05-01T13:43:19.805Z</time></trkpt><trkpt lat="38.787963" lon="20.7201273"><ele>3.0</ele><time>2026-05-01T13:45:23.807Z</time></trkpt><trkpt lat="38.7879092" lon="20.7201703"><ele>3.0</ele><time>2026-05-01T13:45:30.806Z</time></trkpt><trkpt lat="38.7878887" lon="20.7202472"><ele>3.0</ele><time>2026-05-01T13:45:45.804Z</time></trkpt></trkseg><trkseg><trkpt lat="38.7879409" lon="20.7202096"><ele>3.0</ele><time>2026-05-01T14:45:31.788Z</time></trkpt><trkpt lat="38.7879522" lon="20.7201125"><ele>3.0</ele><time>2026-05-01T14:45:37.751Z</time></trkpt><trkpt lat="38.788016" lon="20.7201236"><ele>3.0</ele><time>2026-05-01T14:46:50.795Z</time></trkpt><trkpt lat="38.7880834" lon="20.7199554"><ele>3.0</ele><time>2026-05-01T14:46:54.794Z</time></trkpt><trkpt lat="38.7881503" lon="20.7198982"><ele>3.0</ele><time>2026-05-01T14:46:55.795Z</time></trkpt><trkpt lat="38.7882508" lon="20.7198491"><ele>3.0</ele><time>2026-05-01T14:46:56.794Z</time></trkpt><trkpt lat="38.7883435" lon="20.7197933"><ele>3.0</ele><time>2026-05-01T14:46:57.792Z</time></trkpt><trkpt lat="38.7884356" lon="20.7197349"><ele>3.0</ele><time>2026-05-01T14:46:58.794Z</time></trkpt><trkpt lat="38.7885257" lon="20.7196775"><ele>3.0</ele><time>2026-05-01T14:46:59.795Z</time></trkpt><trkpt lat="38.7886173" lon="20.7196174"><ele>3.0</ele><time>2026-05-01T14:47:00.794Z</time></trkpt><trkpt lat="38.7887095" lon="20.7195625"><ele>2.6</ele><time>2026-05-01T14:47:01.794Z</time></trkpt><trkpt lat="38.7888041" lon="20.7195089"><ele>2.1999999999999997</ele><time>2026-05-01T14:47:02.795Z</time></trkpt><trkpt lat="38.7889009" lon="20.7194557"><ele>1.8</ele><time>2026-05-01T14:47:03.795Z</time></trkpt><trkpt lat="38.789004" lon="20.7193997"><ele>1.4</ele><time>2026-05-01T14:47:04.795Z</time></trkpt><trkpt lat="38.7891137" lon="20.719345"><ele>1.0</ele><time>2026-05-01T14:47:05.794Z</time></trkpt><trkpt lat="38.7892278" lon="20.7192937"><ele>1.0</ele><time>2026-05-01T14:47:06.795Z</time></trkpt><trkpt lat="38.7893475" lon="20.7192456"><ele>1.0</ele><time>2026-05-01T14:47:07.793Z</time></trkpt><trkpt lat="38.7894736" lon="20.7191967"><ele>1.0</ele><time>2026-05-01T14:47:08.795Z</time></trkpt><trkpt lat="38.7896035" lon="20.7191477"><ele>1.0</ele><time>2026-05-01T14:47:09.795Z</time></trkpt><trkpt lat="38.7897239" lon="20.7191058"><ele>1.0</ele><time>2026-05-01T14:47:10.795Z</time></trkpt><trkpt lat="38.7898474" lon="20.7190618"><ele>1.0</ele><time>2026-05-01T14:47:11.795Z</time></trkpt><trkpt lat="38.7899756" lon="20.7190225"><ele>1.0</ele><time>2026-05-01T14:47:12.794Z</time></trkpt><trkpt lat="38.7901046" lon="20.7189795"><ele>1.0</ele><time>2026-05-01T14:47:13.795Z</time></trkpt><trkpt lat="38.7902348" lon="20.718934"><ele>1.25</ele><time>2026-05-01T14:47:14.795Z</time></trkpt><trkpt lat="38.7903607" lon="20.7188946"><ele>1.5</ele><time>2026-05-01T14:47:15.795Z</time></trkpt><trkpt lat="38.7904807" lon="20.7188605"><ele>1.75</ele><time>2026-05-01T14:47:16.794Z</time></trkpt><trkpt lat="38.7905947" lon="20.7188322"><ele>2.0</ele><time>2026-05-01T14:47:17.795Z</time></trkpt><trkpt lat="38.7906966" lon="20.7188054"><ele>2.0</ele><time>2026-05-01T14:47:18.794Z</time></trkpt><trkpt lat="38.7907978" lon="20.7187765"><ele>2.0</ele><time>2026-05-01T14:47:19.795Z</time></trkpt><trkpt lat="38.790904" lon="20.7187423"><ele>2.0</ele><time>2026-05-01T14:47:20.795Z</time></trkpt><trkpt lat="38.7910205" lon="20.7187068"><ele>2.0</ele><time>2026-05-01T14:47:21.794Z</time></trkpt><trkpt lat="38.7911409" lon="20.7186674"><ele>2.0</ele><time>2026-05-01T14:47:22.795Z</time></trkpt><trkpt lat="38.7912708" lon="20.7186261"><ele>2.0</ele><time>2026-05-01T14:47:23.794Z</time></trkpt><trkpt lat="38.7913973" lon="20.7185839"><ele>2.0</ele><time>2026-05-01T14:47:24.795Z</time></trkpt><trkpt lat="38.7915231" lon="20.7185461"><ele>2.0</ele><time>2026-05-01T14:47:25.795Z</time></trkpt><trkpt lat="38.7916494" lon="20.7185128"><ele>2.5</ele><time>2026-05-01T14:47:26.795Z</time></trkpt><trkpt lat="38.7917867" lon="20.7184741"><ele>3.0</ele><time>2026-05-01T14:47:27.795Z</time></trkpt><trkpt lat="38.7919199" lon="20.7184391"><ele>3.5</ele><time>2026-05-01T14:47:28.795Z</time></trkpt><trkpt lat="38.7920578" lon="20.7184051"><ele>4.0</ele><time>2026-05-01T14:47:29.795Z</time></trkpt><trkpt lat="38.7921944" lon="20.7183638"><ele>4.0</ele><time>2026-05-01T14:47:30.794Z</time></trkpt><trkpt lat="38.7923267" lon="20.7183231"><ele>4.0</ele><time>2026-05-01T14:47:31.795Z</time></trkpt><trkpt lat="38.7924509" lon="20.718291"><ele>4.0</ele><time>2026-05-01T14:47:32.795Z</time></trkpt><trkpt lat="38.7925681" lon="20.71826"><ele>4.0</ele><time>2026-05-01T14:47:33.795Z</time></trkpt><trkpt lat="38.7926879" lon="20.7182292"><ele>4.25</ele><time>2026-05-01T14:47:34.794Z</time></trkpt><trkpt lat="38.7928065" lon="20.7181961"><ele>4.5</ele><time>2026-05-01T14:47:35.795Z</time></trkpt><trkpt lat="38.7929304" lon="20.7181532"><ele>4.75</ele><time>2026-05-01T14:47:36.793Z</time></trkpt><trkpt lat="38.7930571" lon="20.7181126"><ele>5.0</ele><time>2026-05-01T14:47:37.794Z</time></trkpt><trkpt lat="38.793186" lon="20.7180727"><ele>5.0</ele><time>2026-05-01T14:47:38.794Z</time></trkpt><trkpt lat="38.7933149" lon="20.7180304"><ele>5.0</ele><time>2026-05-01T14:47:39.793Z</time></trkpt><trkpt lat="38.7934406" lon="20.7179974"><ele>5.0</ele><time>2026-05-01T14:47:40.793Z</time></trkpt><trkpt lat="38.793564" lon="20.7179595"><ele>5.0</ele><time>2026-05-01T14:47:41.795Z</time></trkpt><trkpt lat="38.7936854" lon="20.7179264"><ele>4.75</ele><time>2026-05-01T14:47:42.794Z</time></trkpt><trkpt lat="38.7938053" lon="20.7178815"><ele>4.5</ele><time>2026-05-01T14:47:43.793Z</time></trkpt><trkpt lat="38.7939212" lon="20.7178424"><ele>4.25</ele><time>2026-05-01T14:47:44.794Z</time></trkpt><trkpt lat="38.7940299" lon="20.7178055"><ele>4.0</ele><time>2026-05-01T14:47:45.795Z</time></trkpt><trkpt lat="38.7941377" lon="20.7177731"><ele>4.0</ele><time>2026-05-01T14:47:46.794Z</time></trkpt><trkpt lat="38.7942417" lon="20.7177394"><ele>4.0</ele><time>2026-05-01T14:47:47.794Z</time></trkpt><trkpt lat="38.7943432" lon="20.7177104"><ele>4.0</ele><time>2026-05-01T14:47:48.794Z</time></trkpt><trkpt lat="38.7944517" lon="20.7176817"><ele>4.0</ele><time>2026-05-01T14:47:49.794Z</time></trkpt><trkpt lat="38.7945549" lon="20.7176529"><ele>4.0</ele><time>2026-05-01T14:47:50.795Z</time></trkpt><trkpt lat="38.7946756" lon="20.7176138"><ele>4.25</ele><time>2026-05-01T14:47:51.795Z</time></trkpt><trkpt lat="38.7947861" lon="20.7175785"><ele>4.5</ele><time>2026-05-01T14:47:52.795Z</time></trkpt><trkpt lat="38.7948983" lon="20.7175423"><ele>4.75</ele><time>2026-05-01T14:47:53.794Z</time></trkpt><trkpt lat="38.7950116" lon="20.7175094"><ele>5.0</ele><time>2026-05-01T14:47:54.795Z</time></trkpt><trkpt lat="38.7951293" lon="20.7174729"><ele>4.75</ele><time>2026-05-01T14:47:55.794Z</time></trkpt><trkpt lat="38.7952415" lon="20.7174395"><ele>4.5</ele><time>2026-05-01T14:47:56.795Z</time></trkpt><trkpt lat="38.7953638" lon="20.71741"><ele>4.25</ele><time>2026-05-01T14:47:57.795Z</time></trkpt><trkpt lat="38.79548" lon="20.7173793"><ele>4.0</ele><time>2026-05-01T14:47:58.794Z</time></trkpt><trkpt lat="38.7955946" lon="20.7173577"><ele>4.0</ele><time>2026-05-01T14:47:59.794Z</time></trkpt><trkpt lat="38.7957156" lon="20.7173116"><ele>4.0</ele><time>2026-05-01T14:48:00.794Z</time></trkpt><trkpt lat="38.7958416" lon="20.7172844"><ele>4.0</ele><time>2026-05-01T14:48:01.794Z</time></trkpt><trkpt lat="38.7959643" lon="20.7172467"><ele>4.0</ele><time>2026-05-01T14:48:02.795Z</time></trkpt><trkpt lat="38.7960937" lon="20.7172078"><ele>3.75</ele><time>2026-05-01T14:48:03.795Z</time></trkpt><trkpt lat="38.7962226" lon="20.7171575"><ele>3.5</ele><time>2026-05-01T14:48:04.794Z</time></trkpt><trkpt lat="38.7963547" lon="20.7171136"><ele>3.25</ele><time>2026-05-01T14:48:05.794Z</time></trkpt><trkpt lat="38.7964928" lon="20.7170711"><ele>3.0</ele><time>2026-05-01T14:48:06.794Z</time></trkpt><trkpt lat="38.7966368" lon="20.7170281"><ele>3.0</ele><time>2026-05-01T14:48:07.794Z</time></trkpt><trkpt lat="38.7967851" lon="20.7169892"><ele>3.0</ele><time>2026-05-01T14:48:08.794Z</time></trkpt><trkpt lat="38.7969236" lon="20.7169589"><ele>3.0</ele><time>2026-05-01T14:48:09.794Z</time></trkpt><trkpt lat="38.7970724" lon="20.716924"><ele>3.0</ele><time>2026-05-01T14:48:10.794Z</time></trkpt><trkpt lat="38.7972234" lon="20.7168707"><ele>3.0</ele><time>2026-05-01T14:48:11.795Z</time></trkpt><trkpt lat="38.7973798" lon="20.7168236"><ele>3.0</ele><time>2026-05-01T14:48:12.794Z</time></trkpt><trkpt lat="38.7975261" lon="20.7167931"><ele>3.0</ele><time>2026-05-01T14:48:13.795Z</time></trkpt><trkpt lat="38.7976738" lon="20.7167493"><ele>2.6666666666666665</ele><time>2026-05-01T14:48:14.794Z</time></trkpt><trkpt lat="38.7978198" lon="20.7167115"><ele>2.333333333333333</ele><time>2026-05-01T14:48:15.794Z</time></trkpt><trkpt lat="38.7979722" lon="20.7166566"><ele>2.0</ele><time>2026-05-01T14:48:16.795Z</time></trkpt><trkpt lat="38.7981232" lon="20.7166074"><ele>2.0</ele><time>2026-05-01T14:48:17.794Z</time></trkpt><trkpt lat="38.7982647" lon="20.7165639"><ele>2.0</ele><time>2026-05-01T14:48:18.794Z</time></trkpt><trkpt lat="38.7984118" lon="20.7165068"><ele>2.0</ele><time>2026-05-01T14:48:19.795Z</time></trkpt><trkpt lat="38.7985537" lon="20.7164638"><ele>2.0</ele><time>2026-05-01T14:48:20.795Z</time></trkpt><trkpt lat="38.7986985" lon="20.7164226"><ele>2.25</ele><time>2026-05-01T14:48:21.795Z</time></trkpt><trkpt lat="38.7988336" lon="20.7163749"><ele>2.5</ele><time>2026-05-01T14:48:22.794Z</time></trkpt><trkpt lat="38.7989672" lon="20.7163404"><ele>2.75</ele><time>2026-05-01T14:48:23.794Z</time></trkpt><trkpt lat="38.7991122" lon="20.716299"><ele>3.0</ele><time>2026-05-01T14:48:24.795Z</time></trkpt><trkpt lat="38.7992461" lon="20.7162661"><ele>2.75</ele><time>2026-05-01T14:48:25.795Z</time></trkpt><trkpt lat="38.7993781" lon="20.7162221"><ele>2.5</ele><time>2026-05-01T14:48:26.795Z</time></trkpt><trkpt lat="38.7995038" lon="20.7161854"><ele>2.25</ele><time>2026-05-01T14:48:27.794Z</time></trkpt><trkpt lat="38.7996212" lon="20.7161471"><ele>2.0</ele><time>2026-05-01T14:48:28.794Z</time></trkpt><trkpt lat="38.7997466" lon="20.7161109"><ele>2.0</ele><time>2026-05-01T14:48:29.795Z</time></trkpt><trkpt lat="38.799868" lon="20.7160821"><ele>2.0</ele><time>2026-05-01T14:48:30.795Z</time></trkpt><trkpt lat="38.7999914" lon="20.7160514"><ele>2.0</ele><time>2026-05-01T14:48:31.795Z</time></trkpt><trkpt lat="38.800115" lon="20.7160179"><ele>2.0</ele><time>2026-05-01T14:48:32.794Z</time></trkpt><trkpt lat="38.8002441" lon="20.7160077"><ele>2.5</ele><time>2026-05-01T14:48:33.795Z</time></trkpt><trkpt lat="38.8003717" lon="20.7159546"><ele>3.0</ele><time>2026-05-01T14:48:34.794Z</time></trkpt><trkpt lat="38.8004914" lon="20.7159086"><ele>3.5</ele><time>2026-05-01T14:48:35.794Z</time></trkpt><trkpt lat="38.8006152" lon="20.7158687"><ele>4.0</ele><time>2026-05-01T14:48:36.795Z</time></trkpt><trkpt lat="38.8007428" lon="20.7158381"><ele>4.0</ele><time>2026-05-01T14:48:37.795Z</time></trkpt><trkpt lat="38.8008809" lon="20.7157893"><ele>4.0</ele><time>2026-05-01T14:48:38.794Z</time></trkpt><trkpt lat="38.8010227" lon="20.715743"><ele>4.0</ele><time>2026-05-01T14:48:39.794Z</time></trkpt><trkpt lat="38.8011559" lon="20.7157022"><ele>4.0</ele><time>2026-05-01T14:48:40.795Z</time></trkpt><trkpt lat="38.8012932" lon="20.7156688"><ele>4.0</ele><time>2026-05-01T14:48:41.794Z</time></trkpt><trkpt lat="38.8014259" lon="20.7156395"><ele>4.0</ele><time>2026-05-01T14:48:42.794Z</time></trkpt><trkpt lat="38.8015684" lon="20.7155993"><ele>4.0</ele><time>2026-05-01T14:48:43.794Z</time></trkpt><trkpt lat="38.8017007" lon="20.7155641"><ele>4.0</ele><time>2026-05-01T14:48:44.795Z</time></trkpt><trkpt lat="38.8018476" lon="20.7155225"><ele>4.0</ele><time>2026-05-01T14:48:45.795Z</time></trkpt><trkpt lat="38.80199" lon="20.7154861"><ele>4.0</ele><time>2026-05-01T14:48:46.794Z</time></trkpt><trkpt lat="38.8021326" lon="20.71545"><ele>4.0</ele><time>2026-05-01T14:48:47.795Z</time></trkpt><trkpt lat="38.8022753" lon="20.7154125"><ele>4.0</ele><time>2026-05-01T14:48:48.794Z</time></trkpt><trkpt lat="38.8024208" lon="20.7153676"><ele>4.0</ele><time>2026-05-01T14:48:49.794Z</time></trkpt><trkpt lat="38.8025679" lon="20.7153275"><ele>4.0</ele><time>2026-05-01T14:48:50.794Z</time></trkpt><trkpt lat="38.8027065" lon="20.7153045"><ele>4.0</ele><time>2026-05-01T14:48:51.794Z</time></trkpt><trkpt lat="38.8028599" lon="20.7152689"><ele>4.0</ele><time>2026-05-01T14:48:52.795Z</time></trkpt><trkpt lat="38.8030056" lon="20.7152385"><ele>5.0</ele><time>2026-05-01T14:48:53.795Z</time></trkpt><trkpt lat="38.8031543" lon="20.7152053"><ele>6.0</ele><time>2026-05-01T14:48:54.794Z</time></trkpt><trkpt lat="38.8032986" lon="20.7151822"><ele>7.0</ele><time>2026-05-01T14:48:55.794Z</time></trkpt><trkpt lat="38.8034504" lon="20.7151473"><ele>7.0</ele><time>2026-05-01T14:48:56.794Z</time></trkpt><trkpt lat="38.8035982" lon="20.7151054"><ele>7.0</ele><time>2026-05-01T14:48:57.795Z</time></trkpt><trkpt lat="38.8037527" lon="20.7150506"><ele>7.0</ele><time>2026-05-01T14:48:58.794Z</time></trkpt><trkpt lat="38.8038942" lon="20.7150045"><ele>7.0</ele><time>2026-05-01T14:48:59.794Z</time></trkpt><trkpt lat="38.8040345" lon="20.714958"><ele>7.0</ele><time>2026-05-01T14:49:00.794Z</time></trkpt><trkpt lat="38.8041656" lon="20.714914"><ele>7.0</ele><time>2026-05-01T14:49:01.794Z</time></trkpt><trkpt lat="38.8042924" lon="20.7148737"><ele>7.0</ele><time>2026-05-01T14:49:02.794Z</time></trkpt><trkpt lat="38.8044183" lon="20.7148541"><ele>7.0</ele><time>2026-05-01T14:49:03.795Z</time></trkpt><trkpt lat="38.8045452" lon="20.7148555"><ele>7.0</ele><time>2026-05-01T14:49:04.794Z</time></trkpt><trkpt lat="38.8046787" lon="20.7148618"><ele>7.0</ele><time>2026-05-01T14:49:05.794Z</time></trkpt><trkpt lat="38.8048152" lon="20.714883"><ele>7.0</ele><time>2026-05-01T14:49:06.793Z</time></trkpt><trkpt lat="38.8049548" lon="20.7149195"><ele>7.0</ele><time>2026-05-01T14:49:07.794Z</time></trkpt><trkpt lat="38.8050891" lon="20.7149626"><ele>7.0</ele><time>2026-05-01T14:49:08.795Z</time></trkpt><trkpt lat="38.8052273" lon="20.7150134"><ele>7.0</ele><time>2026-05-01T14:49:09.794Z</time></trkpt><trkpt lat="38.8053832" lon="20.7150629"><ele>7.0</ele><time>2026-05-01T14:49:10.795Z</time></trkpt><trkpt lat="38.8055355" lon="20.7151244"><ele>7.0</ele><time>2026-05-01T14:49:11.795Z</time></trkpt><trkpt lat="38.8056915" lon="20.7151842"><ele>7.0</ele><time>2026-05-01T14:49:12.794Z</time></trkpt><trkpt lat="38.805851" lon="20.7152481"><ele>7.0</ele><time>2026-05-01T14:49:13.795Z</time></trkpt><trkpt lat="38.8060219" lon="20.7153061"><ele>7.0</ele><time>2026-05-01T14:49:14.794Z</time></trkpt><trkpt lat="38.8061837" lon="20.7153632"><ele>7.0</ele><time>2026-05-01T14:49:15.795Z</time></trkpt><trkpt lat="38.8063425" lon="20.7154251"><ele>7.0</ele><time>2026-05-01T14:49:16.794Z</time></trkpt><trkpt lat="38.806514" lon="20.7154763"><ele>7.0</ele><time>2026-05-01T14:49:17.794Z</time></trkpt><trkpt lat="38.8066814" lon="20.715529"><ele>7.0</ele><time>2026-05-01T14:49:18.793Z</time></trkpt><trkpt lat="38.8068528" lon="20.7155797"><ele>7.0</ele><time>2026-05-01T14:49:19.794Z</time></trkpt><trkpt lat="38.8070254" lon="20.7156194"><ele>7.0</ele><time>2026-05-01T14:49:20.794Z</time></trkpt><trkpt lat="38.8072052" lon="20.7156628"><ele>7.0</ele><time>2026-05-01T14:49:21.795Z</time></trkpt><trkpt lat="38.8073883" lon="20.7157008"><ele>7.0</ele><time>2026-05-01T14:49:22.795Z</time></trkpt><trkpt lat="38.8075744" lon="20.7157361"><ele>7.333333333333334</ele><time>2026-05-01T14:49:23.795Z</time></trkpt><trkpt lat="38.8077622" lon="20.7157787"><ele>7.666666666666666</ele><time>2026-05-01T14:49:24.795Z</time></trkpt><trkpt lat="38.8079351" lon="20.7158265"><ele>8.0</ele><time>2026-05-01T14:49:25.794Z</time></trkpt><trkpt lat="38.8081185" lon="20.7158679"><ele>8.0</ele><time>2026-05-01T14:49:26.794Z</time></trkpt><trkpt lat="38.8082876" lon="20.7159066"><ele>8.0</ele><time>2026-05-01T14:49:27.795Z</time></trkpt><trkpt lat="38.8084464" lon="20.7159308"><ele>8.0</ele><time>2026-05-01T14:49:28.795Z</time></trkpt><trkpt lat="38.8086028" lon="20.7159678"><ele>8.0</ele><time>2026-05-01T14:49:29.794Z</time></trkpt><trkpt lat="38.8087675" lon="20.7159942"><ele>8.0</ele><time>2026-05-01T14:49:30.795Z</time></trkpt><trkpt lat="38.8089293" lon="20.7160157"><ele>8.0</ele><time>2026-05-01T14:49:31.794Z</time></trkpt><trkpt lat="38.8091044" lon="20.7160361"><ele>8.0</ele><time>2026-05-01T14:49:32.794Z</time></trkpt><trkpt lat="38.8092842" lon="20.7160376"><ele>8.0</ele><time>2026-05-01T14:49:33.795Z</time></trkpt><trkpt lat="38.809476" lon="20.716028"><ele>8.0</ele><time>2026-05-01T14:49:34.795Z</time></trkpt><trkpt lat="38.8096789" lon="20.7159945"><ele>8.0</ele><time>2026-05-01T14:49:35.795Z</time></trkpt><trkpt lat="38.8098903" lon="20.7159457"><ele>8.0</ele><time>2026-05-01T14:49:36.794Z</time></trkpt><trkpt lat="38.8101049" lon="20.7158775"><ele>8.0</ele><time>2026-05-01T14:49:37.795Z</time></trkpt><trkpt lat="38.810332" lon="20.715809"><ele>7.0</ele><time>2026-05-01T14:49:38.794Z</time></trkpt><trkpt lat="38.8105421" lon="20.7157438"><ele>6.0</ele><time>2026-05-01T14:49:39.794Z</time></trkpt><trkpt lat="38.8107457" lon="20.7156713"><ele>5.0</ele><time>2026-05-01T14:49:40.795Z</time></trkpt><trkpt lat="38.8109498" lon="20.7155944"><ele>5.0</ele><time>2026-05-01T14:49:41.795Z</time></trkpt><trkpt lat="38.81115" lon="20.7155179"><ele>5.0</ele><time>2026-05-01T14:49:42.794Z</time></trkpt><trkpt lat="38.8113603" lon="20.7154346"><ele>5.0</ele><time>2026-05-01T14:49:43.795Z</time></trkpt><trkpt lat="38.8115625" lon="20.715344"><ele>5.0</ele><time>2026-05-01T14:49:44.795Z</time></trkpt><trkpt lat="38.8117555" lon="20.7152529"><ele>5.0</ele><time>2026-05-01T14:49:45.794Z</time></trkpt><trkpt lat="38.8119482" lon="20.7151578"><ele>5.0</ele><time>2026-05-01T14:49:46.795Z</time></trkpt><trkpt lat="38.8121305" lon="20.7150614"><ele>5.333333333333334</ele><time>2026-05-01T14:49:47.794Z</time></trkpt><trkpt lat="38.8123151" lon="20.7149574"><ele>5.666666666666667</ele><time>2026-05-01T14:49:48.795Z</time></trkpt><trkpt lat="38.8124959" lon="20.7148519"><ele>6.0</ele><time>2026-05-01T14:49:49.794Z</time></trkpt><trkpt lat="38.8126693" lon="20.7147524"><ele>6.0</ele><time>2026-05-01T14:49:50.795Z</time></trkpt><trkpt lat="38.8128477" lon="20.7146431"><ele>6.0</ele><time>2026-05-01T14:49:51.794Z</time></trkpt><trkpt lat="38.8130258" lon="20.7145386"><ele>6.0</ele><time>2026-05-01T14:49:52.794Z</time></trkpt><trkpt lat="38.8131954" lon="20.7144354"><ele>6.333333333333334</ele><time>2026-05-01T14:49:53.795Z</time></trkpt><trkpt lat="38.8133577" lon="20.7143443"><ele>6.666666666666667</ele><time>2026-05-01T14:49:54.794Z</time></trkpt><trkpt lat="38.8135143" lon="20.7142462"><ele>7.0</ele><time>2026-05-01T14:49:55.794Z</time></trkpt><trkpt lat="38.813669" lon="20.7141298"><ele>7.0</ele><time>2026-05-01T14:49:56.794Z</time></trkpt><trkpt lat="38.8138232" lon="20.7140289"><ele>7.0</ele><time>2026-05-01T14:49:57.794Z</time></trkpt><trkpt lat="38.8139795" lon="20.7139272"><ele>7.0</ele><time>2026-05-01T14:49:58.793Z</time></trkpt><trkpt lat="38.8141343" lon="20.7138146"><ele>7.0</ele><time>2026-05-01T14:49:59.794Z</time></trkpt><trkpt lat="38.8142828" lon="20.7136768"><ele>7.0</ele><time>2026-05-01T14:50:00.795Z</time></trkpt><trkpt lat="38.8144302" lon="20.7135464"><ele>7.0</ele><time>2026-05-01T14:50:01.794Z</time></trkpt><trkpt lat="38.8145815" lon="20.7134066"><ele>7.666666666666667</ele><time>2026-05-01T14:50:02.795Z</time></trkpt><trkpt lat="38.8147326" lon="20.7132705"><ele>8.333333333333334</ele><time>2026-05-01T14:50:03.795Z</time></trkpt><trkpt lat="38.8148804" lon="20.7131335"><ele>9.0</ele><time>2026-05-01T14:50:04.794Z</time></trkpt><trkpt lat="38.8150065" lon="20.7130026"><ele>9.0</ele><time>2026-05-01T14:50:05.794Z</time></trkpt><trkpt lat="38.8151378" lon="20.7128874"><ele>9.0</ele><time>2026-05-01T14:50:06.795Z</time></trkpt><trkpt lat="38.8152593" lon="20.7127758"><ele>9.0</ele><time>2026-05-01T14:50:07.794Z</time></trkpt><trkpt lat="38.8153677" lon="20.7126726"><ele>9.0</ele><time>2026-05-01T14:50:08.794Z</time></trkpt><trkpt lat="38.8154648" lon="20.712578"><ele>9.5</ele><time>2026-05-01T14:50:09.795Z</time></trkpt><trkpt lat="38.8155595" lon="20.7124946"><ele>10.0</ele><time>2026-05-01T14:50:10.793Z</time></trkpt><trkpt lat="38.8156315" lon="20.7124292"><ele>10.5</ele><time>2026-05-01T14:50:11.794Z</time></trkpt><trkpt lat="38.8156991" lon="20.7123663"><ele>11.0</ele><time>2026-05-01T14:50:12.794Z</time></trkpt><trkpt lat="38.81577" lon="20.7123109"><ele>11.5</ele><time>2026-05-01T14:50:13.794Z</time></trkpt><trkpt lat="38.8158439" lon="20.7122785"><ele>12.0</ele><time>2026-05-01T14:50:14.795Z</time></trkpt><trkpt lat="38.815928" lon="20.7122923"><ele>11.2</ele><time>2026-05-01T14:50:15.794Z</time></trkpt><trkpt lat="38.8160265" lon="20.7123105"><ele>10.399999999999999</ele><time>2026-05-01T14:50:16.794Z</time></trkpt><trkpt lat="38.8161329" lon="20.7123407"><ele>9.600000000000001</ele><time>2026-05-01T14:50:17.794Z</time></trkpt><trkpt lat="38.8162414" lon="20.7123912"><ele>8.8</ele><time>2026-05-01T14:50:18.794Z</time></trkpt><trkpt lat="38.8163548" lon="20.7124381"><ele>8.0</ele><time>2026-05-01T14:50:19.795Z</time></trkpt><trkpt lat="38.8164656" lon="20.7124873"><ele>8.0</ele><time>2026-05-01T14:50:20.795Z</time></trkpt><trkpt lat="38.8165826" lon="20.712525"><ele>8.0</ele><time>2026-05-01T14:50:21.795Z</time></trkpt><trkpt lat="38.8167016" lon="20.7125601"><ele>8.0</ele><time>2026-05-01T14:50:22.794Z</time></trkpt><trkpt lat="38.8168276" lon="20.7125796"><ele>8.0</ele><time>2026-05-01T14:50:23.795Z</time></trkpt><trkpt lat="38.816943" lon="20.7125903"><ele>7.5</ele><time>2026-05-01T14:50:24.795Z</time></trkpt><trkpt lat="38.8170593" lon="20.7125764"><ele>7.0</ele><time>2026-05-01T14:50:25.794Z</time></trkpt><trkpt lat="38.8171734" lon="20.7125603"><ele>6.5</ele><time>2026-05-01T14:50:26.795Z</time></trkpt><trkpt lat="38.8172885" lon="20.7125308"><ele>6.0</ele><time>2026-05-01T14:50:27.795Z</time></trkpt><trkpt lat="38.8174022" lon="20.7124845"><ele>6.0</ele><time>2026-05-01T14:50:28.795Z</time></trkpt><trkpt lat="38.8175163" lon="20.7124291"><ele>6.0</ele><time>2026-05-01T14:50:29.794Z</time></trkpt><trkpt lat="38.8176196" lon="20.7123718"><ele>6.0</ele><time>2026-05-01T14:50:30.795Z</time></trkpt><trkpt lat="38.8177331" lon="20.7123042"><ele>6.0</ele><time>2026-05-01T14:50:31.795Z</time></trkpt><trkpt lat="38.81785" lon="20.7122343"><ele>6.0</ele><time>2026-05-01T14:50:32.795Z</time></trkpt><trkpt lat="38.8179727" lon="20.712143"><ele>6.0</ele><time>2026-05-01T14:50:33.795Z</time></trkpt><trkpt lat="38.8180965" lon="20.7120745"><ele>6.0</ele><time>2026-05-01T14:50:34.795Z</time></trkpt><trkpt lat="38.8182339" lon="20.711992"><ele>6.0</ele><time>2026-05-01T14:50:35.795Z</time></trkpt><trkpt lat="38.8183779" lon="20.7119093"><ele>5.333333333333333</ele><time>2026-05-01T14:50:36.795Z</time></trkpt><trkpt lat="38.8185227" lon="20.7118213"><ele>4.666666666666666</ele><time>2026-05-01T14:50:37.794Z</time></trkpt><trkpt lat="38.8186861" lon="20.7117271"><ele>4.0</ele><time>2026-05-01T14:50:38.794Z</time></trkpt><trkpt lat="38.8188416" lon="20.7116528"><ele>4.0</ele><time>2026-05-01T14:50:39.795Z</time></trkpt><trkpt lat="38.8189907" lon="20.7115804"><ele>4.0</ele><time>2026-05-01T14:50:40.795Z</time></trkpt><trkpt lat="38.8191235" lon="20.711515"><ele>4.0</ele><time>2026-05-01T14:50:41.795Z</time></trkpt><trkpt lat="38.8192524" lon="20.7114425"><ele>4.0</ele><time>2026-05-01T14:50:42.795Z</time></trkpt><trkpt lat="38.8193965" lon="20.7114049"><ele>4.25</ele><time>2026-05-01T14:50:43.795Z</time></trkpt><trkpt lat="38.8195448" lon="20.711364"><ele>4.5</ele><time>2026-05-01T14:50:44.794Z</time></trkpt><trkpt lat="38.819686" lon="20.7113134"><ele>4.75</ele><time>2026-05-01T14:50:45.794Z</time></trkpt><trkpt lat="38.819833" lon="20.7112814"><ele>5.0</ele><time>2026-05-01T14:50:46.795Z</time></trkpt><trkpt lat="38.8199793" lon="20.7112168"><ele>5.0</ele><time>2026-05-01T14:50:47.794Z</time></trkpt><trkpt lat="38.8201224" lon="20.711139"><ele>5.0</ele><time>2026-05-01T14:50:48.795Z</time></trkpt><trkpt lat="38.8202685" lon="20.7110632"><ele>5.0</ele><time>2026-05-01T14:50:49.794Z</time></trkpt><trkpt lat="38.820409" lon="20.7109733"><ele>5.0</ele><time>2026-05-01T14:50:50.793Z</time></trkpt><trkpt lat="38.8205555" lon="20.7108879"><ele>5.0</ele><time>2026-05-01T14:50:51.794Z</time></trkpt><trkpt lat="38.8207006" lon="20.7108014"><ele>5.0</ele><time>2026-05-01T14:50:52.794Z</time></trkpt><trkpt lat="38.8208457" lon="20.7107089"><ele>4.666666666666667</ele><time>2026-05-01T14:50:53.793Z</time></trkpt><trkpt lat="38.8209935" lon="20.7106108"><ele>4.333333333333333</ele><time>2026-05-01T14:50:54.793Z</time></trkpt><trkpt lat="38.8211296" lon="20.7105287"><ele>4.0</ele><time>2026-05-01T14:50:55.794Z</time></trkpt><trkpt lat="38.821274" lon="20.7104458"><ele>4.0</ele><time>2026-05-01T14:50:56.794Z</time></trkpt><trkpt lat="38.821421" lon="20.7103661"><ele>4.0</ele><time>2026-05-01T14:50:57.795Z</time></trkpt><trkpt lat="38.8215552" lon="20.7102864"><ele>4.0</ele><time>2026-05-01T14:50:58.794Z</time></trkpt><trkpt lat="38.821686" lon="20.710213"><ele>4.0</ele><time>2026-05-01T14:50:59.795Z</time></trkpt><trkpt lat="38.8218209" lon="20.7101335"><ele>4.0</ele><time>2026-05-01T14:51:00.794Z</time></trkpt><trkpt lat="38.8219433" lon="20.7100565"><ele>4.0</ele><time>2026-05-01T14:51:01.794Z</time></trkpt><trkpt lat="38.8220639" lon="20.709983"><ele>4.0</ele><time>2026-05-01T14:51:02.795Z</time></trkpt><trkpt lat="38.8221728" lon="20.709935"><ele>4.0</ele><time>2026-05-01T14:51:03.795Z</time></trkpt><trkpt lat="38.8222913" lon="20.7098982"><ele>4.0</ele><time>2026-05-01T14:51:04.794Z</time></trkpt><trkpt lat="38.8224179" lon="20.709883"><ele>4.0</ele><time>2026-05-01T14:51:05.794Z</time></trkpt><trkpt lat="38.8225404" lon="20.7098754"><ele>4.0</ele><time>2026-05-01T14:51:06.795Z</time></trkpt><trkpt lat="38.8226645" lon="20.7098855"><ele>4.0</ele><time>2026-05-01T14:51:07.794Z</time></trkpt><trkpt lat="38.8227926" lon="20.7098736"><ele>4.0</ele><time>2026-05-01T14:51:08.795Z</time></trkpt><trkpt lat="38.8229186" lon="20.7098538"><ele>4.0</ele><time>2026-05-01T14:51:09.795Z</time></trkpt><trkpt lat="38.8230409" lon="20.7098391"><ele>4.0</ele><time>2026-05-01T14:51:10.795Z</time></trkpt><trkpt lat="38.823163" lon="20.7097988"><ele>4.0</ele><time>2026-05-01T14:51:11.795Z</time></trkpt><trkpt lat="38.8232838" lon="20.7097446"><ele>4.0</ele><time>2026-05-01T14:51:12.794Z</time></trkpt><trkpt lat="38.8234069" lon="20.7096834"><ele>4.0</ele><time>2026-05-01T14:51:13.795Z</time></trkpt><trkpt lat="38.8235209" lon="20.7096016"><ele>4.0</ele><time>2026-05-01T14:51:14.794Z</time></trkpt><trkpt lat="38.8236173" lon="20.7095077"><ele>3.8000000000000003</ele><time>2026-05-01T14:51:15.794Z</time></trkpt><trkpt lat="38.823703" lon="20.7094191"><ele>3.6000000000000005</ele><time>2026-05-01T14:51:16.792Z</time></trkpt><trkpt lat="38.8237826" lon="20.7093361"><ele>3.4</ele><time>2026-05-01T14:51:17.795Z</time></trkpt><trkpt lat="38.8238536" lon="20.7092547"><ele>3.2</ele><time>2026-05-01T14:51:18.795Z</time></trkpt><trkpt lat="38.823922" lon="20.7092056"><ele>3.0</ele><time>2026-05-01T14:51:19.794Z</time></trkpt><trkpt lat="38.8240154" lon="20.7091752"><ele>3.0</ele><time>2026-05-01T14:51:21.794Z</time></trkpt><trkpt lat="38.8240729" lon="20.7092097"><ele>3.0</ele><time>2026-05-01T14:51:22.795Z</time></trkpt><trkpt lat="38.8241068" lon="20.7092876"><ele>3.0</ele><time>2026-05-01T14:51:23.795Z</time></trkpt><trkpt lat="38.8241427" lon="20.7093904"><ele>3.0</ele><time>2026-05-01T14:51:24.795Z</time></trkpt><trkpt lat="38.8241894" lon="20.7095052"><ele>3.0</ele><time>2026-05-01T14:51:25.793Z</time></trkpt><trkpt lat="38.8242522" lon="20.7096372"><ele>3.0</ele><time>2026-05-01T14:51:26.794Z</time></trkpt><trkpt lat="38.8243155" lon="20.7097579"><ele>2.75</ele><time>2026-05-01T14:51:27.794Z</time></trkpt><trkpt lat="38.8243785" lon="20.7098925"><ele>2.5</ele><time>2026-05-01T14:51:28.794Z</time></trkpt><trkpt lat="38.8244561" lon="20.7100205"><ele>2.25</ele><time>2026-05-01T14:51:29.794Z</time></trkpt><trkpt lat="38.8245278" lon="20.7101662"><ele>2.0</ele><time>2026-05-01T14:51:30.793Z</time></trkpt><trkpt lat="38.8246085" lon="20.7103157"><ele>2.0</ele><time>2026-05-01T14:51:31.794Z</time></trkpt><trkpt lat="38.8246872" lon="20.7104746"><ele>2.0</ele><time>2026-05-01T14:51:32.795Z</time></trkpt><trkpt lat="38.8247621" lon="20.7106316"><ele>2.0</ele><time>2026-05-01T14:51:33.794Z</time></trkpt><trkpt lat="38.824839" lon="20.7107912"><ele>2.0</ele><time>2026-05-01T14:51:34.795Z</time></trkpt><trkpt lat="38.8249229" lon="20.7109577"><ele>2.0</ele><time>2026-05-01T14:51:35.795Z</time></trkpt><trkpt lat="38.8250054" lon="20.7111222"><ele>2.0</ele><time>2026-05-01T14:51:36.794Z</time></trkpt><trkpt lat="38.8250924" lon="20.7112934"><ele>2.0</ele><time>2026-05-01T14:51:37.793Z</time></trkpt><trkpt lat="38.8251772" lon="20.7114689"><ele>2.0</ele><time>2026-05-01T14:51:38.793Z</time></trkpt><trkpt lat="38.8252667" lon="20.7116359"><ele>2.0</ele><time>2026-05-01T14:51:39.794Z</time></trkpt><trkpt lat="38.8253405" lon="20.7117734"><ele>2.0</ele><time>2026-05-01T14:51:40.794Z</time></trkpt><trkpt lat="38.8254085" lon="20.7119021"><ele>2.0</ele><time>2026-05-01T14:51:41.795Z</time></trkpt><trkpt lat="38.8254802" lon="20.7120376"><ele>2.2</ele><time>2026-05-01T14:51:42.795Z</time></trkpt><trkpt lat="38.8255554" lon="20.7121668"><ele>2.4000000000000004</ele><time>2026-05-01T14:51:43.794Z</time></trkpt><trkpt lat="38.8256161" lon="20.7122898"><ele>2.5999999999999996</ele><time>2026-05-01T14:51:44.795Z</time></trkpt><trkpt lat="38.8256777" lon="20.7123877"><ele>2.8</ele><time>2026-05-01T14:51:45.794Z</time></trkpt><trkpt lat="38.8257214" lon="20.7124773"><ele>3.0</ele><time>2026-05-01T14:51:46.792Z</time></trkpt><trkpt lat="38.8257797" lon="20.7125295"><ele>3.0</ele><time>2026-05-01T14:51:47.794Z</time></trkpt><trkpt lat="38.8259168" lon="20.7125191"><ele>3.0</ele><time>2026-05-01T14:51:49.794Z</time></trkpt><trkpt lat="38.8259955" lon="20.7124666"><ele>3.0</ele><time>2026-05-01T14:51:50.794Z</time></trkpt><trkpt lat="38.8260832" lon="20.7123991"><ele>3.0</ele><time>2026-05-01T14:51:51.795Z</time></trkpt><trkpt lat="38.8261787" lon="20.7123236"><ele>3.0</ele><time>2026-05-01T14:51:52.795Z</time></trkpt><trkpt lat="38.8262715" lon="20.7122523"><ele>2.75</ele><time>2026-05-01T14:51:53.795Z</time></trkpt><trkpt lat="38.8263665" lon="20.7121792"><ele>2.5</ele><time>2026-05-01T14:51:54.794Z</time></trkpt><trkpt lat="38.8264665" lon="20.7120993"><ele>2.25</ele><time>2026-05-01T14:51:55.794Z</time></trkpt><trkpt lat="38.8265777" lon="20.7120149"><ele>2.0</ele><time>2026-05-01T14:51:56.795Z</time></trkpt><trkpt lat="38.8266939" lon="20.7119257"><ele>2.0</ele><time>2026-05-01T14:51:57.795Z</time></trkpt><trkpt lat="38.8268093" lon="20.7118335"><ele>2.0</ele><time>2026-05-01T14:51:58.795Z</time></trkpt><trkpt lat="38.8269299" lon="20.7117366"><ele>2.0</ele><time>2026-05-01T14:51:59.795Z</time></trkpt><trkpt lat="38.8270481" lon="20.7116361"><ele>2.0</ele><time>2026-05-01T14:52:00.795Z</time></trkpt><trkpt lat="38.8271634" lon="20.7115507"><ele>1.75</ele><time>2026-05-01T14:52:01.795Z</time></trkpt><trkpt lat="38.8272761" lon="20.7114589"><ele>1.5</ele><time>2026-05-01T14:52:02.794Z</time></trkpt><trkpt lat="38.8274002" lon="20.7113618"><ele>1.25</ele><time>2026-05-01T14:52:03.795Z</time></trkpt><trkpt lat="38.8275124" lon="20.7112709"><ele>1.0</ele><time>2026-05-01T14:52:04.795Z</time></trkpt><trkpt lat="38.8276272" lon="20.7111744"><ele>1.0</ele><time>2026-05-01T14:52:05.795Z</time></trkpt><trkpt lat="38.8277359" lon="20.7110893"><ele>1.0</ele><time>2026-05-01T14:52:06.794Z</time></trkpt><trkpt lat="38.8278489" lon="20.710995"><ele>1.0</ele><time>2026-05-01T14:52:07.795Z</time></trkpt><trkpt lat="38.8279671" lon="20.7109028"><ele>1.0</ele><time>2026-05-01T14:52:08.794Z</time></trkpt><trkpt lat="38.828085" lon="20.7108083"><ele>1.0</ele><time>2026-05-01T14:52:09.794Z</time></trkpt><trkpt lat="38.8282066" lon="20.7106917"><ele>1.0</ele><time>2026-05-01T14:52:10.794Z</time></trkpt><trkpt lat="38.8283268" lon="20.7105934"><ele>1.0</ele><time>2026-05-01T14:52:11.795Z</time></trkpt><trkpt lat="38.8284501" lon="20.7104911"><ele>1.0</ele><time>2026-05-01T14:52:12.793Z</time></trkpt><trkpt lat="38.8285725" lon="20.7103944"><ele>1.0</ele><time>2026-05-01T14:52:13.794Z</time></trkpt><trkpt lat="38.828702" lon="20.7102915"><ele>1.0</ele><time>2026-05-01T14:52:14.794Z</time></trkpt><trkpt lat="38.8288266" lon="20.7101994"><ele>1.0</ele><time>2026-05-01T14:52:15.795Z</time></trkpt><trkpt lat="38.8289514" lon="20.7100987"><ele>1.0</ele><time>2026-05-01T14:52:16.795Z</time></trkpt><trkpt lat="38.8290807" lon="20.7099966"><ele>1.25</ele><time>2026-05-01T14:52:17.794Z</time></trkpt><trkpt lat="38.8292065" lon="20.7098896"><ele>1.5</ele><time>2026-05-01T14:52:18.794Z</time></trkpt><trkpt lat="38.8293307" lon="20.7097769"><ele>1.75</ele><time>2026-05-01T14:52:19.794Z</time></trkpt><trkpt lat="38.829446" lon="20.709677"><ele>2.0</ele><time>2026-05-01T14:52:20.794Z</time></trkpt><trkpt lat="38.829572" lon="20.709575"><ele>2.0</ele><time>2026-05-01T14:52:21.795Z</time></trkpt><trkpt lat="38.8296995" lon="20.7094716"><ele>2.0</ele><time>2026-05-01T14:52:22.795Z</time></trkpt><trkpt lat="38.8298253" lon="20.7093611"><ele>2.0</ele><time>2026-05-01T14:52:23.794Z</time></trkpt><trkpt lat="38.8299505" lon="20.7092624"><ele>2.0</ele><time>2026-05-01T14:52:24.795Z</time></trkpt><trkpt lat="38.8300764" lon="20.7091766"><ele>2.0</ele><time>2026-05-01T14:52:25.795Z</time></trkpt><trkpt lat="38.8301911" lon="20.7090947"><ele>2.0</ele><time>2026-05-01T14:52:26.794Z</time></trkpt><trkpt lat="38.8303027" lon="20.7090017"><ele>2.0</ele><time>2026-05-01T14:52:27.795Z</time></trkpt><trkpt lat="38.8304111" lon="20.7089117"><ele>1.75</ele><time>2026-05-01T14:52:28.794Z</time></trkpt><trkpt lat="38.8305193" lon="20.7088242"><ele>1.5</ele><time>2026-05-01T14:52:29.794Z</time></trkpt><trkpt lat="38.8306248" lon="20.708743"><ele>1.25</ele><time>2026-05-01T14:52:30.794Z</time></trkpt><trkpt lat="38.8307232" lon="20.7086659"><ele>1.0</ele><time>2026-05-01T14:52:31.795Z</time></trkpt><trkpt lat="38.8308114" lon="20.7085934"><ele>1.1666666666666665</ele><time>2026-05-01T14:52:32.795Z</time></trkpt><trkpt lat="38.8308833" lon="20.7085359"><ele>1.3333333333333333</ele><time>2026-05-01T14:52:33.794Z</time></trkpt><trkpt lat="38.8309587" lon="20.7084786"><ele>1.5</ele><time>2026-05-01T14:52:34.793Z</time></trkpt><trkpt lat="38.8310194" lon="20.7084352"><ele>1.6666666666666665</ele><time>2026-05-01T14:52:35.794Z</time></trkpt><trkpt lat="38.8310882" lon="20.7083869"><ele>1.8333333333333333</ele><time>2026-05-01T14:52:36.794Z</time></trkpt><trkpt lat="38.8311543" lon="20.7083371"><ele>2.0</ele><time>2026-05-01T14:52:37.794Z</time></trkpt><trkpt lat="38.8312127" lon="20.7082906"><ele>2.333333333333333</ele><time>2026-05-01T14:52:38.794Z</time></trkpt><trkpt lat="38.8312749" lon="20.7082406"><ele>2.6666666666666665</ele><time>2026-05-01T14:52:39.795Z</time></trkpt><trkpt lat="38.8313347" lon="20.7081891"><ele>3.0</ele><time>2026-05-01T14:52:40.794Z</time></trkpt><trkpt lat="38.831395" lon="20.7081395"><ele>3.333333333333333</ele><time>2026-05-01T14:52:41.794Z</time></trkpt><trkpt lat="38.83149" lon="20.7080705"><ele>3.6666666666666665</ele><time>2026-05-01T14:52:43.795Z</time></trkpt><trkpt lat="38.8315717" lon="20.7080137"><ele>4.0</ele><time>2026-05-01T14:52:45.795Z</time></trkpt><trkpt lat="38.8316729" lon="20.7079812"><ele>3.9999999999999996</ele><time>2026-05-01T14:52:47.795Z</time></trkpt><trkpt lat="38.831733" lon="20.7079066"><ele>4.0</ele><time>2026-05-01T14:52:49.794Z</time></trkpt><trkpt lat="38.8317183" lon="20.7078225"><ele>4.0</ele><time>2026-05-01T14:52:51.795Z</time></trkpt><trkpt lat="38.8316809" lon="20.7077147"><ele>4.0</ele><time>2026-05-01T14:52:58.795Z</time></trkpt><trkpt lat="38.8316244" lon="20.7075826"><ele>3.9999999999999996</ele><time>2026-05-01T14:53:00.794Z</time></trkpt><trkpt lat="38.8315692" lon="20.707517"><ele>4.0</ele><time>2026-05-01T14:53:01.795Z</time></trkpt><trkpt lat="38.831534" lon="20.7074152"><ele>4.2</ele><time>2026-05-01T14:53:02.794Z</time></trkpt><trkpt lat="38.8314984" lon="20.7073181"><ele>4.4</ele><time>2026-05-01T14:53:03.793Z</time></trkpt><trkpt lat="38.8314532" lon="20.7072125"><ele>4.6</ele><time>2026-05-01T14:53:04.795Z</time></trkpt><trkpt lat="38.8314058" lon="20.7071066"><ele>4.8</ele><time>2026-05-01T14:53:05.794Z</time></trkpt><trkpt lat="38.8313639" lon="20.7069981"><ele>5.0</ele><time>2026-05-01T14:53:06.794Z</time></trkpt><trkpt lat="38.8313167" lon="20.706887"><ele>5.0</ele><time>2026-05-01T14:53:07.795Z</time></trkpt><trkpt lat="38.8312658" lon="20.7067657"><ele>5.0</ele><time>2026-05-01T14:53:08.795Z</time></trkpt><trkpt lat="38.8312166" lon="20.7066606"><ele>5.0</ele><time>2026-05-01T14:53:09.794Z</time></trkpt><trkpt lat="38.8311662" lon="20.706556"><ele>5.0</ele><time>2026-05-01T14:53:10.795Z</time></trkpt><trkpt lat="38.8311172" lon="20.7064504"><ele>5.0</ele><time>2026-05-01T14:53:11.795Z</time></trkpt><trkpt lat="38.8310704" lon="20.7063465"><ele>5.0</ele><time>2026-05-01T14:53:12.794Z</time></trkpt><trkpt lat="38.8310243" lon="20.7062472"><ele>5.0</ele><time>2026-05-01T14:53:13.794Z</time></trkpt><trkpt lat="38.8309718" lon="20.7061521"><ele>5.0</ele><time>2026-05-01T14:53:14.794Z</time></trkpt><trkpt lat="38.830926" lon="20.7060544"><ele>5.0</ele><time>2026-05-01T14:53:15.794Z</time></trkpt><trkpt lat="38.8308849" lon="20.7059562"><ele>5.0</ele><time>2026-05-01T14:53:16.794Z</time></trkpt><trkpt lat="38.8308474" lon="20.7058609"><ele>5.0</ele><time>2026-05-01T14:53:17.795Z</time></trkpt><trkpt lat="38.8308041" lon="20.7057651"><ele>4.833333333333334</ele><time>2026-05-01T14:53:18.794Z</time></trkpt><trkpt lat="38.8307653" lon="20.7056667"><ele>4.666666666666667</ele><time>2026-05-01T14:53:19.794Z</time></trkpt><trkpt lat="38.8307222" lon="20.7055694"><ele>4.5</ele><time>2026-05-01T14:53:20.795Z</time></trkpt><trkpt lat="38.8306902" lon="20.7054776"><ele>4.333333333333333</ele><time>2026-05-01T14:53:21.795Z</time></trkpt><trkpt lat="38.8306549" lon="20.7053862"><ele>4.166666666666666</ele><time>2026-05-01T14:53:22.794Z</time></trkpt><trkpt lat="38.8306269" lon="20.70529"><ele>4.0</ele><time>2026-05-01T14:53:23.795Z</time></trkpt><trkpt lat="38.8305435" lon="20.7052164"><ele>4.333333333333333</ele><time>2026-05-01T14:53:24.795Z</time></trkpt><trkpt lat="38.8304947" lon="20.7051062"><ele>4.666666666666666</ele><time>2026-05-01T14:53:26.794Z</time></trkpt><trkpt lat="38.8304862" lon="20.7050179"><ele>5.0</ele><time>2026-05-01T14:53:28.794Z</time></trkpt><trkpt lat="38.8304669" lon="20.7048843"><ele>5.333333333333333</ele><time>2026-05-01T14:53:31.794Z</time></trkpt><trkpt lat="38.8304606" lon="20.7047685"><ele>5.666666666666667</ele><time>2026-05-01T14:53:33.795Z</time></trkpt><trkpt lat="38.8304637" lon="20.7046869"><ele>6.0</ele><time>2026-05-01T14:53:35.794Z</time></trkpt><trkpt lat="38.8304796" lon="20.7046052"><ele>6.0</ele><time>2026-05-01T14:53:40.794Z</time></trkpt><trkpt lat="38.8305117" lon="20.7044985"><ele>6.0</ele><time>2026-05-01T14:53:44.795Z</time></trkpt><trkpt lat="38.8305497" lon="20.7044252"><ele>6.0</ele><time>2026-05-01T14:53:46.794Z</time></trkpt><trkpt lat="38.830602" lon="20.7043417"><ele>6.0</ele><time>2026-05-01T14:53:48.795Z</time></trkpt><trkpt lat="38.8306728" lon="20.7042122"><ele>6.0</ele><time>2026-05-01T14:53:50.794Z</time></trkpt><trkpt lat="38.8307083" lon="20.7041424"><ele>6.0</ele><time>2026-05-01T14:53:51.794Z</time></trkpt><trkpt lat="38.8307443" lon="20.7040724"><ele>6.0</ele><time>2026-05-01T14:53:52.794Z</time></trkpt><trkpt lat="38.8307806" lon="20.7040015"><ele>6.0</ele><time>2026-05-01T14:53:53.795Z</time></trkpt><trkpt lat="38.8308201" lon="20.7039226"><ele>6.0</ele><time>2026-05-01T14:53:54.795Z</time></trkpt><trkpt lat="38.8308746" lon="20.7038379"><ele>6.0</ele><time>2026-05-01T14:53:55.794Z</time></trkpt><trkpt lat="38.8309315" lon="20.7037427"><ele>6.0</ele><time>2026-05-01T14:53:56.795Z</time></trkpt><trkpt lat="38.8309789" lon="20.7036503"><ele>6.0</ele><time>2026-05-01T14:53:57.793Z</time></trkpt><trkpt lat="38.8310231" lon="20.7035607"><ele>5.666666666666667</ele><time>2026-05-01T14:53:58.795Z</time></trkpt><trkpt lat="38.8310728" lon="20.7034841"><ele>5.333333333333333</ele><time>2026-05-01T14:53:59.795Z</time></trkpt><trkpt lat="38.8311225" lon="20.7033876"><ele>5.0</ele><time>2026-05-01T14:54:00.795Z</time></trkpt><trkpt lat="38.8311632" lon="20.7033011"><ele>4.666666666666666</ele><time>2026-05-01T14:54:01.795Z</time></trkpt><trkpt lat="38.8312046" lon="20.7032171"><ele>4.333333333333333</ele><time>2026-05-01T14:54:02.794Z</time></trkpt><trkpt lat="38.8312411" lon="20.7031435"><ele>4.0</ele><time>2026-05-01T14:54:03.794Z</time></trkpt><trkpt lat="38.8312913" lon="20.703085"><ele>4.0</ele><time>2026-05-01T14:54:04.794Z</time></trkpt><trkpt lat="38.8313962" lon="20.7030431"><ele>4.0</ele><time>2026-05-01T14:54:06.795Z</time></trkpt><trkpt lat="38.8315288" lon="20.7030323"><ele>4.0</ele><time>2026-05-01T14:54:08.795Z</time></trkpt><trkpt lat="38.8316136" lon="20.7030356"><ele>4.0</ele><time>2026-05-01T14:54:09.795Z</time></trkpt><trkpt lat="38.8317045" lon="20.7030294"><ele>4.0</ele><time>2026-05-01T14:54:10.794Z</time></trkpt><trkpt lat="38.831796" lon="20.7030182"><ele>3.6666666666666665</ele><time>2026-05-01T14:54:11.794Z</time></trkpt><trkpt lat="38.8318847" lon="20.7030069"><ele>3.333333333333333</ele><time>2026-05-01T14:54:12.795Z</time></trkpt><trkpt lat="38.8319791" lon="20.7030157"><ele>3.0</ele><time>2026-05-01T14:54:13.795Z</time></trkpt><trkpt lat="38.8320554" lon="20.7030015"><ele>2.6666666666666665</ele><time>2026-05-01T14:54:14.795Z</time></trkpt><trkpt lat="38.8321529" lon="20.7029869"><ele>2.333333333333333</ele><time>2026-05-01T14:54:15.794Z</time></trkpt><trkpt lat="38.8322345" lon="20.7029769"><ele>2.0</ele><time>2026-05-01T14:54:16.795Z</time></trkpt><trkpt lat="38.8323188" lon="20.7029692"><ele>2.0</ele><time>2026-05-01T14:54:17.792Z</time></trkpt><trkpt lat="38.8324081" lon="20.7029657"><ele>2.0</ele><time>2026-05-01T14:54:18.795Z</time></trkpt><trkpt lat="38.8324928" lon="20.7029586"><ele>2.0</ele><time>2026-05-01T14:54:19.795Z</time></trkpt><trkpt lat="38.8325943" lon="20.7029301"><ele>2.0</ele><time>2026-05-01T14:54:20.795Z</time></trkpt><trkpt lat="38.832699" lon="20.7029186"><ele>2.0</ele><time>2026-05-01T14:54:21.793Z</time></trkpt><trkpt lat="38.8328048" lon="20.7029088"><ele>2.4000000000000004</ele><time>2026-05-01T14:54:22.794Z</time></trkpt><trkpt lat="38.8329066" lon="20.7028957"><ele>2.8000000000000003</ele><time>2026-05-01T14:54:23.795Z</time></trkpt><trkpt lat="38.8330047" lon="20.7028809"><ele>3.2</ele><time>2026-05-01T14:54:24.795Z</time></trkpt><trkpt lat="38.8330983" lon="20.7028799"><ele>3.6</ele><time>2026-05-01T14:54:25.794Z</time></trkpt><trkpt lat="38.8331905" lon="20.7028802"><ele>4.0</ele><time>2026-05-01T14:54:26.795Z</time></trkpt><trkpt lat="38.833278" lon="20.7029094"><ele>3.9999999999999996</ele><time>2026-05-01T14:54:27.795Z</time></trkpt><trkpt lat="38.8333564" lon="20.702943"><ele>4.0</ele><time>2026-05-01T14:54:28.793Z</time></trkpt><trkpt lat="38.8334262" lon="20.7029831"><ele>4.0</ele><time>2026-05-01T14:54:29.794Z</time></trkpt><trkpt lat="38.8334981" lon="20.7030433"><ele>4.0</ele><time>2026-05-01T14:54:30.795Z</time></trkpt><trkpt lat="38.8335657" lon="20.7031131"><ele>3.9999999999999996</ele><time>2026-05-01T14:54:31.794Z</time></trkpt><trkpt lat="38.833642" lon="20.7032103"><ele>4.0</ele><time>2026-05-01T14:54:32.795Z</time></trkpt><trkpt lat="38.8337166" lon="20.7033012"><ele>3.75</ele><time>2026-05-01T14:54:33.795Z</time></trkpt><trkpt lat="38.8337932" lon="20.7034053"><ele>3.5</ele><time>2026-05-01T14:54:34.794Z</time></trkpt><trkpt lat="38.8338823" lon="20.7034957"><ele>3.25</ele><time>2026-05-01T14:54:35.795Z</time></trkpt><trkpt lat="38.8339718" lon="20.7035953"><ele>3.0</ele><time>2026-05-01T14:54:36.792Z</time></trkpt><trkpt lat="38.8340592" lon="20.7037"><ele>3.0</ele><time>2026-05-01T14:54:37.794Z</time></trkpt><trkpt lat="38.8341406" lon="20.7037919"><ele>3.0</ele><time>2026-05-01T14:54:38.795Z</time></trkpt><trkpt lat="38.8342194" lon="20.7038829"><ele>3.0</ele><time>2026-05-01T14:54:39.795Z</time></trkpt><trkpt lat="38.8342931" lon="20.7039593"><ele>3.0</ele><time>2026-05-01T14:54:40.795Z</time></trkpt><trkpt lat="38.8343657" lon="20.7040326"><ele>3.0</ele><time>2026-05-01T14:54:41.795Z</time></trkpt><trkpt lat="38.8344269" lon="20.7041028"><ele>2.6</ele><time>2026-05-01T14:54:42.795Z</time></trkpt><trkpt lat="38.8344798" lon="20.7041583"><ele>2.1999999999999997</ele><time>2026-05-01T14:54:43.794Z</time></trkpt><trkpt lat="38.8345912" lon="20.704184"><ele>1.8</ele><time>2026-05-01T14:54:45.795Z</time></trkpt><trkpt lat="38.834677" lon="20.7041235"><ele>1.4</ele><time>2026-05-01T14:54:47.794Z</time></trkpt><trkpt lat="38.8347342" lon="20.7040412"><ele>1.0</ele><time>2026-05-01T14:54:49.795Z</time></trkpt><trkpt lat="38.8347854" lon="20.7039531"><ele>0.9999999999999999</ele><time>2026-05-01T14:54:51.795Z</time></trkpt><trkpt lat="38.8348525" lon="20.7038237"><ele>1.0</ele><time>2026-05-01T14:54:53.794Z</time></trkpt><trkpt lat="38.8348872" lon="20.7037418"><ele>1.0</ele><time>2026-05-01T14:54:54.795Z</time></trkpt><trkpt lat="38.8349081" lon="20.703655"><ele>1.0</ele><time>2026-05-01T14:54:55.795Z</time></trkpt><trkpt lat="38.8349263" lon="20.7035571"><ele>0.9999999999999999</ele><time>2026-05-01T14:54:56.795Z</time></trkpt><trkpt lat="38.8349419" lon="20.7034489"><ele>1.0</ele><time>2026-05-01T14:54:57.795Z</time></trkpt><trkpt lat="38.8349556" lon="20.7033421"><ele>1.2000000000000002</ele><time>2026-05-01T14:54:58.795Z</time></trkpt><trkpt lat="38.8349701" lon="20.7032233"><ele>1.4000000000000001</ele><time>2026-05-01T14:54:59.795Z</time></trkpt><trkpt lat="38.8349777" lon="20.703099"><ele>1.6</ele><time>2026-05-01T14:55:00.795Z</time></trkpt><trkpt lat="38.8349949" lon="20.7029754"><ele>1.8</ele><time>2026-05-01T14:55:01.794Z</time></trkpt><trkpt lat="38.8350123" lon="20.7028481"><ele>2.0</ele><time>2026-05-01T14:55:02.794Z</time></trkpt><trkpt lat="38.8350364" lon="20.7027097"><ele>2.0</ele><time>2026-05-01T14:55:03.795Z</time></trkpt><trkpt lat="38.8350555" lon="20.7025736"><ele>2.0</ele><time>2026-05-01T14:55:04.794Z</time></trkpt><trkpt lat="38.8350717" lon="20.702446"><ele>2.0</ele><time>2026-05-01T14:55:05.795Z</time></trkpt><trkpt lat="38.8350897" lon="20.7023229"><ele>2.0</ele><time>2026-05-01T14:55:06.795Z</time></trkpt><trkpt lat="38.8351018" lon="20.7022193"><ele>2.0</ele><time>2026-05-01T14:55:07.795Z</time></trkpt><trkpt lat="38.8351174" lon="20.7021195"><ele>1.9999999999999998</ele><time>2026-05-01T14:55:08.794Z</time></trkpt><trkpt lat="38.835131" lon="20.7020165"><ele>2.0</ele><time>2026-05-01T14:55:09.794Z</time></trkpt><trkpt lat="38.8351445" lon="20.7019141"><ele>2.0</ele><time>2026-05-01T14:55:10.792Z</time></trkpt><trkpt lat="38.8351612" lon="20.7018082"><ele>2.0</ele><time>2026-05-01T14:55:11.795Z</time></trkpt><trkpt lat="38.8351712" lon="20.7016891"><ele>1.9999999999999998</ele><time>2026-05-01T14:55:12.793Z</time></trkpt><trkpt lat="38.8351817" lon="20.7015798"><ele>2.0</ele><time>2026-05-01T14:55:13.795Z</time></trkpt><trkpt lat="38.8351907" lon="20.7014676"><ele>1.8333333333333333</ele><time>2026-05-01T14:55:14.794Z</time></trkpt><trkpt lat="38.8352097" lon="20.7013587"><ele>1.6666666666666665</ele><time>2026-05-01T14:55:15.795Z</time></trkpt><trkpt lat="38.8352174" lon="20.7012518"><ele>1.5</ele><time>2026-05-01T14:55:16.792Z</time></trkpt><trkpt lat="38.8352315" lon="20.7011448"><ele>1.3333333333333333</ele><time>2026-05-01T14:55:17.794Z</time></trkpt><trkpt lat="38.835245" lon="20.7010378"><ele>1.1666666666666665</ele><time>2026-05-01T14:55:18.795Z</time></trkpt><trkpt lat="38.8352553" lon="20.7009305"><ele>1.0</ele><time>2026-05-01T14:55:19.795Z</time></trkpt><trkpt lat="38.8352696" lon="20.7008209"><ele>1.0</ele><time>2026-05-01T14:55:20.794Z</time></trkpt><trkpt lat="38.8352846" lon="20.7007114"><ele>1.0</ele><time>2026-05-01T14:55:21.795Z</time></trkpt><trkpt lat="38.835299" lon="20.7005888"><ele>1.0</ele><time>2026-05-01T14:55:22.794Z</time></trkpt><trkpt lat="38.8353127" lon="20.7004682"><ele>1.0</ele><time>2026-05-01T14:55:23.794Z</time></trkpt><trkpt lat="38.8353293" lon="20.7003408"><ele>1.0</ele><time>2026-05-01T14:55:24.794Z</time></trkpt><trkpt lat="38.8353289" lon="20.7002284"><ele>0.8</ele><time>2026-05-01T14:55:25.795Z</time></trkpt><trkpt lat="38.8353444" lon="20.7001386"><ele>0.6000000000000001</ele><time>2026-05-01T14:55:26.793Z</time></trkpt><trkpt lat="38.8353716" lon="20.6999836"><ele>0.4</ele><time>2026-05-01T14:55:28.795Z</time></trkpt><trkpt lat="38.8353894" lon="20.6998525"><ele>0.2</ele><time>2026-05-01T14:55:30.795Z</time></trkpt><trkpt lat="38.8354149" lon="20.6997003"><ele>0.0</ele><time>2026-05-01T14:55:32.794Z</time></trkpt><trkpt lat="38.8354485" lon="20.6995408"><ele>0.0</ele><time>2026-05-01T14:55:34.794Z</time></trkpt><trkpt lat="38.8354562" lon="20.6994569"><ele>0.0</ele><time>2026-05-01T14:55:35.794Z</time></trkpt><trkpt lat="38.8354879" lon="20.6993321"><ele>0.0</ele><time>2026-05-01T14:55:37.794Z</time></trkpt><trkpt lat="38.8355111" lon="20.6992234"><ele>0.0</ele><time>2026-05-01T14:55:39.795Z</time></trkpt><trkpt lat="38.8355281" lon="20.6991012"><ele>0.0</ele><time>2026-05-01T14:55:41.795Z</time></trkpt><trkpt lat="38.8355573" lon="20.6989583"><ele>0.16666666666666666</ele><time>2026-05-01T14:55:43.795Z</time></trkpt><trkpt lat="38.8355797" lon="20.6988651"><ele>0.3333333333333333</ele><time>2026-05-01T14:55:44.795Z</time></trkpt><trkpt lat="38.8355972" lon="20.6987569"><ele>0.5</ele><time>2026-05-01T14:55:45.794Z</time></trkpt><trkpt lat="38.8356242" lon="20.6986501"><ele>0.6666666666666666</ele><time>2026-05-01T14:55:46.795Z</time></trkpt><trkpt lat="38.8356479" lon="20.6985486"><ele>0.8333333333333333</ele><time>2026-05-01T14:55:47.795Z</time></trkpt><trkpt lat="38.8356696" lon="20.6984498"><ele>1.0</ele><time>2026-05-01T14:55:48.795Z</time></trkpt><trkpt lat="38.8356846" lon="20.6983535"><ele>0.9999999999999999</ele><time>2026-05-01T14:55:49.792Z</time></trkpt><trkpt lat="38.8356976" lon="20.6982555"><ele>1.0</ele><time>2026-05-01T14:55:50.793Z</time></trkpt><trkpt lat="38.8357193" lon="20.6981581"><ele>1.0</ele><time>2026-05-01T14:55:51.795Z</time></trkpt><trkpt lat="38.8357348" lon="20.6980504"><ele>1.0</ele><time>2026-05-01T14:55:52.794Z</time></trkpt><trkpt lat="38.8357473" lon="20.6979521"><ele>0.9999999999999999</ele><time>2026-05-01T14:55:53.794Z</time></trkpt><trkpt lat="38.8357633" lon="20.6978515"><ele>1.0</ele><time>2026-05-01T14:55:54.795Z</time></trkpt><trkpt lat="38.8357823" lon="20.6977393"><ele>1.0</ele><time>2026-05-01T14:55:55.795Z</time></trkpt><trkpt lat="38.8357974" lon="20.6976297"><ele>1.0</ele><time>2026-05-01T14:55:56.794Z</time></trkpt><trkpt lat="38.8358112" lon="20.6975144"><ele>1.0</ele><time>2026-05-01T14:55:57.792Z</time></trkpt><trkpt lat="38.8358303" lon="20.6973959"><ele>1.0</ele><time>2026-05-01T14:55:58.791Z</time></trkpt><trkpt lat="38.8358502" lon="20.6972763"><ele>1.0</ele><time>2026-05-01T14:55:59.795Z</time></trkpt><trkpt lat="38.8358705" lon="20.6971648"><ele>1.0</ele><time>2026-05-01T14:56:00.792Z</time></trkpt><trkpt lat="38.835884" lon="20.6970638"><ele>1.0</ele><time>2026-05-01T14:56:01.794Z</time></trkpt><trkpt lat="38.8358908" lon="20.6969589"><ele>1.0</ele><time>2026-05-01T14:56:02.794Z</time></trkpt><trkpt lat="38.8359196" lon="20.6968112"><ele>1.0</ele><time>2026-05-01T14:56:04.794Z</time></trkpt><trkpt lat="38.835946" lon="20.696675"><ele>1.0</ele><time>2026-05-01T14:56:06.795Z</time></trkpt><trkpt lat="38.8359581" lon="20.6965523"><ele>0.9999999999999999</ele><time>2026-05-01T14:56:08.793Z</time></trkpt><trkpt lat="38.8359776" lon="20.6964262"><ele>1.0</ele><time>2026-05-01T14:56:10.793Z</time></trkpt><trkpt lat="38.8360113" lon="20.6962733"><ele>1.0</ele><time>2026-05-01T14:56:12.795Z</time></trkpt><trkpt lat="38.8360323" lon="20.6961918"><ele>1.0</ele><time>2026-05-01T14:56:13.793Z</time></trkpt><trkpt lat="38.8360504" lon="20.6960924"><ele>0.9999999999999999</ele><time>2026-05-01T14:56:14.793Z</time></trkpt><trkpt lat="38.8360625" lon="20.6959923"><ele>1.0</ele><time>2026-05-01T14:56:15.794Z</time></trkpt><trkpt lat="38.8360852" lon="20.6958739"><ele>1.0</ele><time>2026-05-01T14:56:16.794Z</time></trkpt><trkpt lat="38.8361071" lon="20.6957605"><ele>1.0</ele><time>2026-05-01T14:56:17.791Z</time></trkpt><trkpt lat="38.8361269" lon="20.6956485"><ele>1.0</ele><time>2026-05-01T14:56:18.795Z</time></trkpt><trkpt lat="38.8361406" lon="20.6955214"><ele>1.0</ele><time>2026-05-01T14:56:19.794Z</time></trkpt><trkpt lat="38.8361623" lon="20.6953968"><ele>1.0</ele><time>2026-05-01T14:56:20.792Z</time></trkpt><trkpt lat="38.8361928" lon="20.6952617"><ele>1.25</ele><time>2026-05-01T14:56:21.795Z</time></trkpt><trkpt lat="38.8362194" lon="20.6951228"><ele>1.5</ele><time>2026-05-01T14:56:22.795Z</time></trkpt><trkpt lat="38.8362411" lon="20.69498"><ele>1.75</ele><time>2026-05-01T14:56:23.794Z</time></trkpt><trkpt lat="38.8362578" lon="20.6948354"><ele>2.0</ele><time>2026-05-01T14:56:24.794Z</time></trkpt><trkpt lat="38.8362728" lon="20.6946913"><ele>2.0</ele><time>2026-05-01T14:56:25.795Z</time></trkpt><trkpt lat="38.8362925" lon="20.6945445"><ele>2.0</ele><time>2026-05-01T14:56:26.794Z</time></trkpt><trkpt lat="38.8363073" lon="20.694401"><ele>2.0</ele><time>2026-05-01T14:56:27.794Z</time></trkpt><trkpt lat="38.8363183" lon="20.694245"><ele>2.0</ele><time>2026-05-01T14:56:28.795Z</time></trkpt><trkpt lat="38.8363225" lon="20.6940852"><ele>1.75</ele><time>2026-05-01T14:56:29.792Z</time></trkpt><trkpt lat="38.8363145" lon="20.6939261"><ele>1.5</ele><time>2026-05-01T14:56:30.795Z</time></trkpt><trkpt lat="38.8363052" lon="20.6937693"><ele>1.25</ele><time>2026-05-01T14:56:31.795Z</time></trkpt><trkpt lat="38.8362846" lon="20.6936073"><ele>1.0</ele><time>2026-05-01T14:56:32.794Z</time></trkpt><trkpt lat="38.8362523" lon="20.693439"><ele>1.0</ele><time>2026-05-01T14:56:33.794Z</time></trkpt><trkpt lat="38.8362194" lon="20.6932761"><ele>1.0</ele><time>2026-05-01T14:56:34.794Z</time></trkpt><trkpt lat="38.8361743" lon="20.6931146"><ele>1.0</ele><time>2026-05-01T14:56:35.794Z</time></trkpt><trkpt lat="38.8361258" lon="20.6929523"><ele>1.0</ele><time>2026-05-01T14:56:36.794Z</time></trkpt><trkpt lat="38.8360682" lon="20.6927994"><ele>0.75</ele><time>2026-05-01T14:56:37.795Z</time></trkpt><trkpt lat="38.8360093" lon="20.6926437"><ele>0.5</ele><time>2026-05-01T14:56:38.794Z</time></trkpt><trkpt lat="38.8359508" lon="20.6924932"><ele>0.25</ele><time>2026-05-01T14:56:39.795Z</time></trkpt><trkpt lat="38.835895" lon="20.692344"><ele>0.0</ele><time>2026-05-01T14:56:40.794Z</time></trkpt><trkpt lat="38.8358363" lon="20.6921923"><ele>0.0</ele><time>2026-05-01T14:56:41.794Z</time></trkpt><trkpt lat="38.835773" lon="20.6920397"><ele>0.0</ele><time>2026-05-01T14:56:42.795Z</time></trkpt><trkpt lat="38.8357116" lon="20.691892"><ele>0.0</ele><time>2026-05-01T14:56:43.794Z</time></trkpt><trkpt lat="38.8356475" lon="20.6917439"><ele>0.0</ele><time>2026-05-01T14:56:44.795Z</time></trkpt><trkpt lat="38.8355847" lon="20.6916027"><ele>0.0</ele><time>2026-05-01T14:56:45.794Z</time></trkpt><trkpt lat="38.8355187" lon="20.6914586"><ele>0.0</ele><time>2026-05-01T14:56:46.793Z</time></trkpt><trkpt lat="38.8354265" lon="20.6913148"><ele>0.0</ele><time>2026-05-01T14:56:47.795Z</time></trkpt><trkpt lat="38.8353618" lon="20.6911655"><ele>0.0</ele><time>2026-05-01T14:56:48.795Z</time></trkpt><trkpt lat="38.8352951" lon="20.6910173"><ele>0.25</ele><time>2026-05-01T14:56:49.794Z</time></trkpt><trkpt lat="38.8352377" lon="20.6908667"><ele>0.5</ele><time>2026-05-01T14:56:50.795Z</time></trkpt><trkpt lat="38.835168" lon="20.6907132"><ele>0.75</ele><time>2026-05-01T14:56:51.795Z</time></trkpt><trkpt lat="38.8351063" lon="20.6905598"><ele>1.0</ele><time>2026-05-01T14:56:52.794Z</time></trkpt><trkpt lat="38.8350373" lon="20.6904063"><ele>1.25</ele><time>2026-05-01T14:56:53.794Z</time></trkpt><trkpt lat="38.8349676" lon="20.6902535"><ele>1.5</ele><time>2026-05-01T14:56:54.794Z</time></trkpt><trkpt lat="38.8349039" lon="20.690096"><ele>1.75</ele><time>2026-05-01T14:56:55.793Z</time></trkpt><trkpt lat="38.8348263" lon="20.6899414"><ele>2.0</ele><time>2026-05-01T14:56:56.792Z</time></trkpt><trkpt lat="38.8347661" lon="20.6897765"><ele>2.0</ele><time>2026-05-01T14:56:57.794Z</time></trkpt><trkpt lat="38.8347094" lon="20.6896095"><ele>2.0</ele><time>2026-05-01T14:56:58.792Z</time></trkpt><trkpt lat="38.8346577" lon="20.6894403"><ele>2.0</ele><time>2026-05-01T14:56:59.792Z</time></trkpt><trkpt lat="38.8346157" lon="20.6892771"><ele>2.0</ele><time>2026-05-01T14:57:00.794Z</time></trkpt><trkpt lat="38.8345783" lon="20.6891187"><ele>2.0</ele><time>2026-05-01T14:57:01.793Z</time></trkpt><trkpt lat="38.8345463" lon="20.6889666"><ele>2.0</ele><time>2026-05-01T14:57:02.794Z</time></trkpt><trkpt lat="38.8345133" lon="20.688812"><ele>2.0</ele><time>2026-05-01T14:57:03.795Z</time></trkpt><trkpt lat="38.8344862" lon="20.6886483"><ele>2.0</ele><time>2026-05-01T14:57:04.794Z</time></trkpt><trkpt lat="38.834458" lon="20.6884776"><ele>1.5</ele><time>2026-05-01T14:57:05.794Z</time></trkpt><trkpt lat="38.8344369" lon="20.6883079"><ele>1.0</ele><time>2026-05-01T14:57:06.795Z</time></trkpt><trkpt lat="38.8344265" lon="20.6881015"><ele>0.5</ele><time>2026-05-01T14:57:07.791Z</time></trkpt><trkpt lat="38.8344106" lon="20.6879177"><ele>0.0</ele><time>2026-05-01T14:57:08.792Z</time></trkpt><trkpt lat="38.834392" lon="20.687737"><ele>0.0</ele><time>2026-05-01T14:57:09.794Z</time></trkpt><trkpt lat="38.8343812" lon="20.6875582"><ele>0.0</ele><time>2026-05-01T14:57:10.793Z</time></trkpt><trkpt lat="38.8343756" lon="20.6873781"><ele>0.0</ele><time>2026-05-01T14:57:11.795Z</time></trkpt><trkpt lat="38.8343744" lon="20.6871984"><ele>0.0</ele><time>2026-05-01T14:57:12.795Z</time></trkpt><trkpt lat="38.8343803" lon="20.687028"><ele>0.5</ele><time>2026-05-01T14:57:13.795Z</time></trkpt><trkpt lat="38.8343943" lon="20.6868561"><ele>1.0</ele><time>2026-05-01T14:57:14.795Z</time></trkpt><trkpt lat="38.8344109" lon="20.6866841"><ele>1.5</ele><time>2026-05-01T14:57:15.794Z</time></trkpt><trkpt lat="38.8344192" lon="20.6865314"><ele>2.0</ele><time>2026-05-01T14:57:16.794Z</time></trkpt><trkpt lat="38.8344494" lon="20.6863673"><ele>2.0</ele><time>2026-05-01T14:57:17.794Z</time></trkpt><trkpt lat="38.8344839" lon="20.6862042"><ele>2.0</ele><time>2026-05-01T14:57:18.795Z</time></trkpt><trkpt lat="38.8345234" lon="20.6860431"><ele>2.0</ele><time>2026-05-01T14:57:19.795Z</time></trkpt><trkpt lat="38.8345654" lon="20.6858834"><ele>2.0</ele><time>2026-05-01T14:57:20.794Z</time></trkpt><trkpt lat="38.8346138" lon="20.6857273"><ele>2.0</ele><time>2026-05-01T14:57:21.794Z</time></trkpt><trkpt lat="38.8346582" lon="20.6855698"><ele>2.0</ele><time>2026-05-01T14:57:22.794Z</time></trkpt><trkpt lat="38.8346976" lon="20.6854269"><ele>2.0</ele><time>2026-05-01T14:57:23.795Z</time></trkpt><trkpt lat="38.8347353" lon="20.6852954"><ele>2.0</ele><time>2026-05-01T14:57:24.794Z</time></trkpt><trkpt lat="38.8347692" lon="20.6851832"><ele>1.9999999999999998</ele><time>2026-05-01T14:57:25.795Z</time></trkpt><trkpt lat="38.8347896" lon="20.6851026"><ele>2.0</ele><time>2026-05-01T14:57:26.794Z</time></trkpt><trkpt lat="38.8347712" lon="20.6850048"><ele>2.0</ele><time>2026-05-01T14:57:28.794Z</time></trkpt><trkpt lat="38.8346951" lon="20.6849632"><ele>2.0</ele><time>2026-05-01T14:57:30.795Z</time></trkpt><trkpt lat="38.8345932" lon="20.6849202"><ele>1.9999999999999998</ele><time>2026-05-01T14:57:32.793Z</time></trkpt><trkpt lat="38.8344932" lon="20.6848855"><ele>2.0</ele><time>2026-05-01T14:57:34.795Z</time></trkpt><trkpt lat="38.8343931" lon="20.6848394"><ele>1.8</ele><time>2026-05-01T14:57:36.795Z</time></trkpt><trkpt lat="38.8342841" lon="20.684792"><ele>1.6</ele><time>2026-05-01T14:57:38.795Z</time></trkpt><trkpt lat="38.8341851" lon="20.6847304"><ele>1.4000000000000001</ele><time>2026-05-01T14:57:40.793Z</time></trkpt><trkpt lat="38.8340919" lon="20.6846689"><ele>1.2000000000000002</ele><time>2026-05-01T14:57:42.794Z</time></trkpt><trkpt lat="38.8340128" lon="20.6846361"><ele>1.0</ele><time>2026-05-01T14:57:44.794Z</time></trkpt><trkpt lat="38.83395" lon="20.684612"><ele>1.0</ele><time>2026-05-01T14:57:46.794Z</time></trkpt><trkpt lat="38.8339169" lon="20.6846906"><ele>0.9999999999999999</ele><time>2026-05-01T14:57:50.794Z</time></trkpt><trkpt lat="38.8338778" lon="20.6847811"><ele>1.0</ele><time>2026-05-01T14:57:53.793Z</time></trkpt><trkpt lat="38.8338248" lon="20.6848316"><ele>1.0</ele><time>2026-05-01T14:57:56.794Z</time></trkpt><trkpt lat="38.8337691" lon="20.6847817"><ele>0.9999999999999999</ele><time>2026-05-01T14:57:59.795Z</time></trkpt><trkpt lat="38.8337069" lon="20.6847269"><ele>1.0</ele><time>2026-05-01T14:58:02.792Z</time></trkpt><trkpt lat="38.8336508" lon="20.68469"><ele>1.0</ele><time>2026-05-01T14:58:06.794Z</time></trkpt><trkpt lat="38.8336678" lon="20.6845802"><ele>1.0</ele><time>2026-05-01T15:00:46.747Z</time></trkpt><trkpt lat="38.8337034" lon="20.6845028"><ele>1.0</ele><time>2026-05-01T15:02:06.731Z</time></trkpt></trkseg><trkseg><trkpt lat="38.8346607" lon="20.6854424"><ele>0.9999999999999999</ele><time>2026-05-02T08:04:17.791Z</time></trkpt><trkpt lat="38.8346342" lon="20.6856057"><ele>1.0</ele><time>2026-05-02T08:04:19.79Z</time></trkpt><trkpt lat="38.8346106" lon="20.6856857"><ele>1.0</ele><time>2026-05-02T08:04:20.79Z</time></trkpt><trkpt lat="38.8345966" lon="20.6857851"><ele>1.0</ele><time>2026-05-02T08:04:21.791Z</time></trkpt><trkpt lat="38.8345671" lon="20.6858862"><ele>0.9999999999999999</ele><time>2026-05-02T08:04:22.791Z</time></trkpt><trkpt lat="38.8345328" lon="20.6859908"><ele>1.0</ele><time>2026-05-02T08:04:23.79Z</time></trkpt><trkpt lat="38.8345016" lon="20.6861052"><ele>1.2000000000000002</ele><time>2026-05-02T08:04:24.79Z</time></trkpt><trkpt lat="38.8344709" lon="20.686218"><ele>1.4000000000000001</ele><time>2026-05-02T08:04:25.79Z</time></trkpt><trkpt lat="38.8344467" lon="20.6863385"><ele>1.6</ele><time>2026-05-02T08:04:26.79Z</time></trkpt><trkpt lat="38.8344258" lon="20.6864695"><ele>1.8</ele><time>2026-05-02T08:04:27.791Z</time></trkpt><trkpt lat="38.8344047" lon="20.6866044"><ele>2.0</ele><time>2026-05-02T08:04:28.791Z</time></trkpt><trkpt lat="38.8343775" lon="20.6867462"><ele>2.0</ele><time>2026-05-02T08:04:29.79Z</time></trkpt><trkpt lat="38.834357" lon="20.6868988"><ele>2.0</ele><time>2026-05-02T08:04:30.79Z</time></trkpt><trkpt lat="38.83435" lon="20.6870506"><ele>2.0</ele><time>2026-05-02T08:04:31.79Z</time></trkpt><trkpt lat="38.8343455" lon="20.6872009"><ele>2.0</ele><time>2026-05-02T08:04:32.791Z</time></trkpt><trkpt lat="38.8343446" lon="20.6873495"><ele>1.5</ele><time>2026-05-02T08:04:33.791Z</time></trkpt><trkpt lat="38.8343419" lon="20.6875018"><ele>1.0</ele><time>2026-05-02T08:04:34.791Z</time></trkpt><trkpt lat="38.8343515" lon="20.6876576"><ele>0.5</ele><time>2026-05-02T08:04:35.791Z</time></trkpt><trkpt lat="38.8343635" lon="20.6878141"><ele>0.0</ele><time>2026-05-02T08:04:36.791Z</time></trkpt><trkpt lat="38.8343779" lon="20.687979"><ele>0.0</ele><time>2026-05-02T08:04:37.79Z</time></trkpt><trkpt lat="38.8343958" lon="20.6881423"><ele>0.0</ele><time>2026-05-02T08:04:38.791Z</time></trkpt><trkpt lat="38.8344127" lon="20.6883126"><ele>0.0</ele><time>2026-05-02T08:04:39.791Z</time></trkpt><trkpt lat="38.8344403" lon="20.6884852"><ele>0.0</ele><time>2026-05-02T08:04:40.79Z</time></trkpt><trkpt lat="38.8344677" lon="20.6886527"><ele>0.5</ele><time>2026-05-02T08:04:41.791Z</time></trkpt><trkpt lat="38.8345051" lon="20.6888166"><ele>1.0</ele><time>2026-05-02T08:04:42.791Z</time></trkpt><trkpt lat="38.8345346" lon="20.6889798"><ele>1.5</ele><time>2026-05-02T08:04:43.791Z</time></trkpt><trkpt lat="38.8345684" lon="20.6891453"><ele>2.0</ele><time>2026-05-02T08:04:44.791Z</time></trkpt><trkpt lat="38.8346069" lon="20.6893097"><ele>2.0</ele><time>2026-05-02T08:04:45.791Z</time></trkpt><trkpt lat="38.8346504" lon="20.6894729"><ele>2.0</ele><time>2026-05-02T08:04:46.79Z</time></trkpt><trkpt lat="38.8347025" lon="20.689633"><ele>2.0</ele><time>2026-05-02T08:04:47.791Z</time></trkpt><trkpt lat="38.8347587" lon="20.6897985"><ele>2.0</ele><time>2026-05-02T08:04:48.79Z</time></trkpt><trkpt lat="38.8348152" lon="20.6899663"><ele>2.0</ele><time>2026-05-02T08:04:49.79Z</time></trkpt><trkpt lat="38.8348848" lon="20.6901226"><ele>2.0</ele><time>2026-05-02T08:04:50.79Z</time></trkpt><trkpt lat="38.8349588" lon="20.6902826"><ele>2.0</ele><time>2026-05-02T08:04:51.79Z</time></trkpt><trkpt lat="38.8350211" lon="20.6904466"><ele>2.0</ele><time>2026-05-02T08:04:52.791Z</time></trkpt><trkpt lat="38.8350925" lon="20.6906084"><ele>1.75</ele><time>2026-05-02T08:04:53.79Z</time></trkpt><trkpt lat="38.8351633" lon="20.6907641"><ele>1.5</ele><time>2026-05-02T08:04:54.791Z</time></trkpt><trkpt lat="38.8352317" lon="20.6909198"><ele>1.25</ele><time>2026-05-02T08:04:55.79Z</time></trkpt><trkpt lat="38.8353022" lon="20.6910779"><ele>1.0</ele><time>2026-05-02T08:04:56.791Z</time></trkpt><trkpt lat="38.8353774" lon="20.6912379"><ele>0.75</ele><time>2026-05-02T08:04:57.79Z</time></trkpt><trkpt lat="38.8354449" lon="20.6914032"><ele>0.5</ele><time>2026-05-02T08:04:58.791Z</time></trkpt><trkpt lat="38.8355174" lon="20.6915618"><ele>0.25</ele><time>2026-05-02T08:04:59.79Z</time></trkpt><trkpt lat="38.835592" lon="20.6917226"><ele>0.0</ele><time>2026-05-02T08:05:00.791Z</time></trkpt><trkpt lat="38.8356636" lon="20.6918905"><ele>0.0</ele><time>2026-05-02T08:05:01.791Z</time></trkpt><trkpt lat="38.8357341" lon="20.6920557"><ele>0.0</ele><time>2026-05-02T08:05:02.791Z</time></trkpt><trkpt lat="38.835808" lon="20.6922218"><ele>0.0</ele><time>2026-05-02T08:05:03.791Z</time></trkpt><trkpt lat="38.8358714" lon="20.6923906"><ele>0.0</ele><time>2026-05-02T08:05:04.79Z</time></trkpt><trkpt lat="38.8359364" lon="20.6925594"><ele>0.0</ele><time>2026-05-02T08:05:05.791Z</time></trkpt><trkpt lat="38.8359969" lon="20.6927294"><ele>0.0</ele><time>2026-05-02T08:05:06.79Z</time></trkpt><trkpt lat="38.8360591" lon="20.692904"><ele>0.0</ele><time>2026-05-02T08:05:07.791Z</time></trkpt><trkpt lat="38.8361226" lon="20.6930749"><ele>0.0</ele><time>2026-05-02T08:05:08.791Z</time></trkpt><trkpt lat="38.8361785" lon="20.6932555"><ele>0.25</ele><time>2026-05-02T08:05:09.791Z</time></trkpt><trkpt lat="38.8362192" lon="20.6934398"><ele>0.5</ele><time>2026-05-02T08:05:10.791Z</time></trkpt><trkpt lat="38.8362483" lon="20.6936269"><ele>0.75</ele><time>2026-05-02T08:05:11.791Z</time></trkpt><trkpt lat="38.8362659" lon="20.6938175"><ele>1.0</ele><time>2026-05-02T08:05:12.79Z</time></trkpt><trkpt lat="38.8362733" lon="20.6940126"><ele>1.0</ele><time>2026-05-02T08:05:13.791Z</time></trkpt><trkpt lat="38.8362684" lon="20.6942166"><ele>1.0</ele><time>2026-05-02T08:05:14.79Z</time></trkpt><trkpt lat="38.8362562" lon="20.6944195"><ele>1.0</ele><time>2026-05-02T08:05:15.79Z</time></trkpt><trkpt lat="38.8362408" lon="20.6946177"><ele>1.3333333333333333</ele><time>2026-05-02T08:05:16.791Z</time></trkpt><trkpt lat="38.8362228" lon="20.6948234"><ele>1.6666666666666665</ele><time>2026-05-02T08:05:17.791Z</time></trkpt><trkpt lat="38.8361974" lon="20.6950242"><ele>2.0</ele><time>2026-05-02T08:05:18.791Z</time></trkpt><trkpt lat="38.8361668" lon="20.6952246"><ele>1.6666666666666665</ele><time>2026-05-02T08:05:19.79Z</time></trkpt><trkpt lat="38.8361234" lon="20.695418"><ele>1.3333333333333333</ele><time>2026-05-02T08:05:20.791Z</time></trkpt><trkpt lat="38.8360884" lon="20.6956149"><ele>1.0</ele><time>2026-05-02T08:05:21.79Z</time></trkpt><trkpt lat="38.8360602" lon="20.6958091"><ele>1.0</ele><time>2026-05-02T08:05:22.79Z</time></trkpt><trkpt lat="38.8360284" lon="20.696016"><ele>1.0</ele><time>2026-05-02T08:05:23.79Z</time></trkpt><trkpt lat="38.8359902" lon="20.6962201"><ele>1.0</ele><time>2026-05-02T08:05:24.791Z</time></trkpt><trkpt lat="38.8359524" lon="20.6964188"><ele>1.0</ele><time>2026-05-02T08:05:25.79Z</time></trkpt><trkpt lat="38.8359198" lon="20.696615"><ele>1.0</ele><time>2026-05-02T08:05:26.791Z</time></trkpt><trkpt lat="38.8358878" lon="20.6968054"><ele>1.0</ele><time>2026-05-02T08:05:27.79Z</time></trkpt><trkpt lat="38.8358497" lon="20.6969946"><ele>1.0</ele><time>2026-05-02T08:05:28.791Z</time></trkpt><trkpt lat="38.8358222" lon="20.6971824"><ele>1.0</ele><time>2026-05-02T08:05:29.791Z</time></trkpt><trkpt lat="38.8357946" lon="20.6973722"><ele>1.0</ele><time>2026-05-02T08:05:30.791Z</time></trkpt><trkpt lat="38.835756" lon="20.6975636"><ele>1.0</ele><time>2026-05-02T08:05:31.791Z</time></trkpt><trkpt lat="38.8357242" lon="20.6977604"><ele>1.0</ele><time>2026-05-02T08:05:32.791Z</time></trkpt><trkpt lat="38.8356931" lon="20.6979389"><ele>1.0</ele><time>2026-05-02T08:05:33.79Z</time></trkpt><trkpt lat="38.8356584" lon="20.6981231"><ele>1.0</ele><time>2026-05-02T08:05:34.791Z</time></trkpt><trkpt lat="38.8356273" lon="20.6983031"><ele>1.0</ele><time>2026-05-02T08:05:35.791Z</time></trkpt><trkpt lat="38.8355915" lon="20.6984843"><ele>1.0</ele><time>2026-05-02T08:05:36.791Z</time></trkpt><trkpt lat="38.8355593" lon="20.6986661"><ele>1.0</ele><time>2026-05-02T08:05:37.79Z</time></trkpt><trkpt lat="38.835522" lon="20.6988448"><ele>1.0</ele><time>2026-05-02T08:05:38.791Z</time></trkpt><trkpt lat="38.8354916" lon="20.6990341"><ele>1.0</ele><time>2026-05-02T08:05:39.791Z</time></trkpt><trkpt lat="38.8354539" lon="20.6992201"><ele>1.0</ele><time>2026-05-02T08:05:40.791Z</time></trkpt><trkpt lat="38.8354244" lon="20.699402"><ele>1.0</ele><time>2026-05-02T08:05:41.791Z</time></trkpt><trkpt lat="38.8353939" lon="20.6995909"><ele>1.0</ele><time>2026-05-02T08:05:42.79Z</time></trkpt><trkpt lat="38.8353648" lon="20.6997785"><ele>1.0</ele><time>2026-05-02T08:05:43.79Z</time></trkpt><trkpt lat="38.8353413" lon="20.6999535"><ele>1.0</ele><time>2026-05-02T08:05:44.791Z</time></trkpt><trkpt lat="38.8353127" lon="20.7001298"><ele>1.0</ele><time>2026-05-02T08:05:45.79Z</time></trkpt><trkpt lat="38.835284" lon="20.7003144"><ele>1.0</ele><time>2026-05-02T08:05:46.791Z</time></trkpt><trkpt lat="38.8352545" lon="20.7005026"><ele>1.0</ele><time>2026-05-02T08:05:47.79Z</time></trkpt><trkpt lat="38.8352315" lon="20.7006852"><ele>1.0</ele><time>2026-05-02T08:05:48.791Z</time></trkpt><trkpt lat="38.8352094" lon="20.7008616"><ele>1.0</ele><time>2026-05-02T08:05:49.79Z</time></trkpt><trkpt lat="38.8351897" lon="20.7010414"><ele>1.0</ele><time>2026-05-02T08:05:50.79Z</time></trkpt><trkpt lat="38.8351671" lon="20.7012158"><ele>0.75</ele><time>2026-05-02T08:05:51.79Z</time></trkpt><trkpt lat="38.8351498" lon="20.7013936"><ele>0.5</ele><time>2026-05-02T08:05:52.791Z</time></trkpt><trkpt lat="38.8351343" lon="20.7015702"><ele>0.25</ele><time>2026-05-02T08:05:53.79Z</time></trkpt><trkpt lat="38.8351257" lon="20.7017422"><ele>0.0</ele><time>2026-05-02T08:05:54.79Z</time></trkpt><trkpt lat="38.8351027" lon="20.7019157"><ele>0.5</ele><time>2026-05-02T08:05:55.79Z</time></trkpt><trkpt lat="38.8350772" lon="20.7020795"><ele>1.0</ele><time>2026-05-02T08:05:56.791Z</time></trkpt><trkpt lat="38.8350632" lon="20.7022496"><ele>1.5</ele><time>2026-05-02T08:05:57.79Z</time></trkpt><trkpt lat="38.8350485" lon="20.7024112"><ele>2.0</ele><time>2026-05-02T08:05:58.79Z</time></trkpt><trkpt lat="38.8350238" lon="20.7025713"><ele>2.0</ele><time>2026-05-02T08:05:59.791Z</time></trkpt><trkpt lat="38.835002" lon="20.7027331"><ele>2.0</ele><time>2026-05-02T08:06:00.79Z</time></trkpt><trkpt lat="38.8349744" lon="20.7028868"><ele>2.0</ele><time>2026-05-02T08:06:01.791Z</time></trkpt><trkpt lat="38.8349499" lon="20.7030473"><ele>2.0</ele><time>2026-05-02T08:06:02.79Z</time></trkpt><trkpt lat="38.8349274" lon="20.7031985"><ele>2.2</ele><time>2026-05-02T08:06:03.79Z</time></trkpt><trkpt lat="38.8349146" lon="20.7033417"><ele>2.4000000000000004</ele><time>2026-05-02T08:06:04.791Z</time></trkpt><trkpt lat="38.8348994" lon="20.7034764"><ele>2.5999999999999996</ele><time>2026-05-02T08:06:05.79Z</time></trkpt><trkpt lat="38.8348818" lon="20.7035968"><ele>2.8</ele><time>2026-05-02T08:06:06.791Z</time></trkpt><trkpt lat="38.8348641" lon="20.7037003"><ele>3.0</ele><time>2026-05-02T08:06:07.791Z</time></trkpt><trkpt lat="38.8348347" lon="20.7037913"><ele>2.5</ele><time>2026-05-02T08:06:08.791Z</time></trkpt><trkpt lat="38.8347445" lon="20.7038852"><ele>2.0</ele><time>2026-05-02T08:06:10.791Z</time></trkpt><trkpt lat="38.8346325" lon="20.7039444"><ele>1.5</ele><time>2026-05-02T08:06:12.79Z</time></trkpt><trkpt lat="38.8345262" lon="20.7039942"><ele>1.0</ele><time>2026-05-02T08:06:14.791Z</time></trkpt><trkpt lat="38.834429" lon="20.703964"><ele>0.9999999999999999</ele><time>2026-05-02T08:06:16.791Z</time></trkpt><trkpt lat="38.834354" lon="20.7038809"><ele>1.0</ele><time>2026-05-02T08:06:18.791Z</time></trkpt><trkpt lat="38.8343039" lon="20.7038177"><ele>1.0</ele><time>2026-05-02T08:06:19.79Z</time></trkpt><trkpt lat="38.8342484" lon="20.7037485"><ele>1.0</ele><time>2026-05-02T08:06:20.791Z</time></trkpt><trkpt lat="38.8341892" lon="20.7036867"><ele>0.9999999999999999</ele><time>2026-05-02T08:06:21.791Z</time></trkpt><trkpt lat="38.8341206" lon="20.7036102"><ele>1.0</ele><time>2026-05-02T08:06:22.791Z</time></trkpt><trkpt lat="38.8340515" lon="20.703547"><ele>1.3333333333333333</ele><time>2026-05-02T08:06:23.79Z</time></trkpt><trkpt lat="38.8339863" lon="20.7034658"><ele>1.6666666666666665</ele><time>2026-05-02T08:06:24.79Z</time></trkpt><trkpt lat="38.8339168" lon="20.7033868"><ele>2.0</ele><time>2026-05-02T08:06:25.79Z</time></trkpt><trkpt lat="38.8338596" lon="20.7033195"><ele>2.3333333333333335</ele><time>2026-05-02T08:06:26.79Z</time></trkpt><trkpt lat="38.8337937" lon="20.7032409"><ele>2.6666666666666665</ele><time>2026-05-02T08:06:27.79Z</time></trkpt><trkpt lat="38.8337299" lon="20.7031679"><ele>3.0</ele><time>2026-05-02T08:06:28.791Z</time></trkpt><trkpt lat="38.8336626" lon="20.7030895"><ele>3.0</ele><time>2026-05-02T08:06:29.79Z</time></trkpt><trkpt lat="38.8336022" lon="20.7030154"><ele>3.0</ele><time>2026-05-02T08:06:30.79Z</time></trkpt><trkpt lat="38.8335329" lon="20.7029588"><ele>3.0</ele><time>2026-05-02T08:06:31.79Z</time></trkpt><trkpt lat="38.8334641" lon="20.7029121"><ele>3.0</ele><time>2026-05-02T08:06:32.791Z</time></trkpt><trkpt lat="38.8333838" lon="20.7028797"><ele>3.0</ele><time>2026-05-02T08:06:33.791Z</time></trkpt><trkpt lat="38.8333023" lon="20.7028581"><ele>3.0</ele><time>2026-05-02T08:06:34.791Z</time></trkpt><trkpt lat="38.8332233" lon="20.7028413"><ele>3.1666666666666665</ele><time>2026-05-02T08:06:35.79Z</time></trkpt><trkpt lat="38.8331441" lon="20.702834"><ele>3.333333333333333</ele><time>2026-05-02T08:06:36.79Z</time></trkpt><trkpt lat="38.8330672" lon="20.7028268"><ele>3.5</ele><time>2026-05-02T08:06:37.79Z</time></trkpt><trkpt lat="38.8329927" lon="20.7028285"><ele>3.6666666666666665</ele><time>2026-05-02T08:06:38.79Z</time></trkpt><trkpt lat="38.8329195" lon="20.7028363"><ele>3.833333333333333</ele><time>2026-05-02T08:06:39.79Z</time></trkpt><trkpt lat="38.8328543" lon="20.7028428"><ele>4.0</ele><time>2026-05-02T08:06:40.791Z</time></trkpt><trkpt lat="38.8327328" lon="20.7028619"><ele>3.9999999999999996</ele><time>2026-05-02T08:06:42.791Z</time></trkpt><trkpt lat="38.8326429" lon="20.7028779"><ele>4.0</ele><time>2026-05-02T08:06:44.791Z</time></trkpt><trkpt lat="38.8325752" lon="20.7028917"><ele>4.0</ele><time>2026-05-02T08:06:46.791Z</time></trkpt><trkpt lat="38.8324826" lon="20.702896"><ele>4.0</ele><time>2026-05-02T08:06:48.791Z</time></trkpt><trkpt lat="38.8323652" lon="20.7029049"><ele>3.9999999999999996</ele><time>2026-05-02T08:06:50.791Z</time></trkpt><trkpt lat="38.8322944" lon="20.7029094"><ele>4.0</ele><time>2026-05-02T08:06:51.79Z</time></trkpt><trkpt lat="38.8322256" lon="20.7029096"><ele>4.0</ele><time>2026-05-02T08:06:52.79Z</time></trkpt><trkpt lat="38.8321425" lon="20.7029163"><ele>3.9999999999999996</ele><time>2026-05-02T08:06:53.791Z</time></trkpt><trkpt lat="38.8320739" lon="20.7029309"><ele>4.0</ele><time>2026-05-02T08:06:54.79Z</time></trkpt><trkpt lat="38.832" lon="20.7029275"><ele>4.0</ele><time>2026-05-02T08:06:55.79Z</time></trkpt><trkpt lat="38.8319286" lon="20.7029362"><ele>3.9999999999999996</ele><time>2026-05-02T08:06:56.791Z</time></trkpt><trkpt lat="38.8318554" lon="20.7029385"><ele>4.0</ele><time>2026-05-02T08:06:57.791Z</time></trkpt><trkpt lat="38.8317888" lon="20.7029483"><ele>4.0</ele><time>2026-05-02T08:06:58.79Z</time></trkpt><trkpt lat="38.8317227" lon="20.7029498"><ele>4.0</ele><time>2026-05-02T08:06:59.791Z</time></trkpt><trkpt lat="38.8316067" lon="20.7029658"><ele>4.0</ele><time>2026-05-02T08:07:01.791Z</time></trkpt><trkpt lat="38.831503" lon="20.7029639"><ele>4.0</ele><time>2026-05-02T08:07:03.79Z</time></trkpt><trkpt lat="38.8314071" lon="20.7029747"><ele>4.0</ele><time>2026-05-02T08:07:05.79Z</time></trkpt><trkpt lat="38.8313201" lon="20.7029986"><ele>4.0</ele><time>2026-05-02T08:07:08.79Z</time></trkpt><trkpt lat="38.8312614" lon="20.7030318"><ele>4.0</ele><time>2026-05-02T08:07:10.791Z</time></trkpt><trkpt lat="38.8312039" lon="20.7030934"><ele>3.9999999999999996</ele><time>2026-05-02T08:07:13.79Z</time></trkpt><trkpt lat="38.8311428" lon="20.7031538"><ele>4.0</ele><time>2026-05-02T08:07:30.79Z</time></trkpt><trkpt lat="38.8310909" lon="20.7032325"><ele>4.0</ele><time>2026-05-02T08:07:33.791Z</time></trkpt><trkpt lat="38.8310605" lon="20.7033073"><ele>3.9999999999999996</ele><time>2026-05-02T08:07:48.79Z</time></trkpt><trkpt lat="38.8310015" lon="20.7033529"><ele>4.0</ele><time>2026-05-02T08:07:52.791Z</time></trkpt><trkpt lat="38.8309303" lon="20.7033021"><ele>4.0</ele><time>2026-05-02T08:07:54.791Z</time></trkpt><trkpt lat="38.8308536" lon="20.7032206"><ele>4.166666666666666</ele><time>2026-05-02T08:07:56.791Z</time></trkpt><trkpt lat="38.8307917" lon="20.7031558"><ele>4.333333333333333</ele><time>2026-05-02T08:07:58.791Z</time></trkpt><trkpt lat="38.8307179" lon="20.7031454"><ele>4.5</ele><time>2026-05-02T08:08:02.79Z</time></trkpt><trkpt lat="38.8306558" lon="20.7032287"><ele>4.666666666666667</ele><time>2026-05-02T08:08:05.791Z</time></trkpt><trkpt lat="38.8306101" lon="20.7032983"><ele>4.833333333333334</ele><time>2026-05-02T08:08:07.79Z</time></trkpt><trkpt lat="38.8305428" lon="20.7033783"><ele>5.0</ele><time>2026-05-02T08:08:10.785Z</time></trkpt><trkpt lat="38.8304937" lon="20.7034362"><ele>5.0</ele><time>2026-05-02T08:08:13.784Z</time></trkpt><trkpt lat="38.8304387" lon="20.7035062"><ele>5.0</ele><time>2026-05-02T08:08:17.784Z</time></trkpt><trkpt lat="38.8304226" lon="20.7035888"><ele>5.0</ele><time>2026-05-02T08:08:24.784Z</time></trkpt><trkpt lat="38.8304948" lon="20.7036441"><ele>5.0</ele><time>2026-05-02T08:09:53.784Z</time></trkpt><trkpt lat="38.8305439" lon="20.7037176"><ele>5.0</ele><time>2026-05-02T08:09:57.785Z</time></trkpt><trkpt lat="38.8305996" lon="20.7037724"><ele>5.0</ele><time>2026-05-02T08:10:01.784Z</time></trkpt><trkpt lat="38.8306571" lon="20.7038294"><ele>5.0</ele><time>2026-05-02T08:10:06.785Z</time></trkpt><trkpt lat="38.8307242" lon="20.7038359"><ele>5.142857142857142</ele><time>2026-05-02T08:10:11.784Z</time></trkpt><trkpt lat="38.8307186" lon="20.7039247"><ele>5.285714285714286</ele><time>2026-05-02T08:10:22.785Z</time></trkpt><trkpt lat="38.8306718" lon="20.7039988"><ele>5.428571428571429</ele><time>2026-05-02T08:10:27.785Z</time></trkpt><trkpt lat="38.8306414" lon="20.704081"><ele>5.571428571428571</ele><time>2026-05-02T08:10:32.784Z</time></trkpt><trkpt lat="38.8306166" lon="20.7041731"><ele>5.714285714285714</ele><time>2026-05-02T08:10:38.785Z</time></trkpt><trkpt lat="38.830587" lon="20.7042587"><ele>5.857142857142857</ele><time>2026-05-02T08:10:44.784Z</time></trkpt><trkpt lat="38.8305994" lon="20.7043434"><ele>6.0</ele><time>2026-05-02T08:10:52.784Z</time></trkpt><trkpt lat="38.8305551" lon="20.7044083"><ele>5.999999999999999</ele><time>2026-05-02T08:10:56.784Z</time></trkpt><trkpt lat="38.8305397" lon="20.7044953"><ele>6.0</ele><time>2026-05-02T08:11:01.784Z</time></trkpt><trkpt lat="38.8305199" lon="20.7044157"><ele>6.0</ele><time>2026-05-02T08:12:13.784Z</time></trkpt><trkpt lat="38.8304951" lon="20.7043271"><ele>6.0</ele><time>2026-05-02T08:12:19.784Z</time></trkpt><trkpt lat="38.8305033" lon="20.7042399"><ele>6.0</ele><time>2026-05-02T08:12:25.788Z</time></trkpt><trkpt lat="38.8305523" lon="20.7041874"><ele>5.999999999999999</ele><time>2026-05-02T08:12:29.785Z</time></trkpt><trkpt lat="38.8306049" lon="20.7041282"><ele>6.0</ele><time>2026-05-02T08:12:34.665Z</time></trkpt><trkpt lat="38.8306649" lon="20.7040751"><ele>5.999999999999999</ele><time>2026-05-02T08:12:39.78Z</time></trkpt><trkpt lat="38.8306972" lon="20.7040032"><ele>6.0</ele><time>2026-05-02T08:12:46.785Z</time></trkpt><trkpt lat="38.8307425" lon="20.7039319"><ele>6.0</ele><time>2026-05-02T08:12:51.687Z</time></trkpt><trkpt lat="38.8307861" lon="20.7038729"><ele>6.0</ele><time>2026-05-02T08:12:55.785Z</time></trkpt><trkpt lat="38.8307462" lon="20.7038064"><ele>6.0</ele><time>2026-05-02T08:13:02.702Z</time></trkpt><trkpt lat="38.8306772" lon="20.7038221"><ele>5.999999999999999</ele><time>2026-05-02T08:26:21.784Z</time></trkpt><trkpt lat="38.8306144" lon="20.7038106"><ele>6.0</ele><time>2026-05-02T08:26:25.784Z</time></trkpt><trkpt lat="38.830568" lon="20.7037391"><ele>6.0</ele><time>2026-05-02T08:26:29.785Z</time></trkpt><trkpt lat="38.8305083" lon="20.7036694"><ele>6.0</ele><time>2026-05-02T08:26:34.785Z</time></trkpt><trkpt lat="38.8304553" lon="20.7036201"><ele>6.0</ele><time>2026-05-02T08:26:38.784Z</time></trkpt><trkpt lat="38.8305185" lon="20.7036074"><ele>6.0</ele><time>2026-05-02T08:28:12.785Z</time></trkpt><trkpt lat="38.8304668" lon="20.7035503"><ele>6.0</ele><time>2026-05-02T08:29:31.784Z</time></trkpt><trkpt lat="38.8305241" lon="20.7036277"><ele>6.0</ele><time>2026-05-02T08:51:37.785Z</time></trkpt><trkpt lat="38.8305949" lon="20.7037002"><ele>6.0</ele><time>2026-05-02T08:51:40.784Z</time></trkpt><trkpt lat="38.8306476" lon="20.703774"><ele>6.0</ele><time>2026-05-02T08:51:43.785Z</time></trkpt><trkpt lat="38.8306986" lon="20.7038334"><ele>6.0</ele><time>2026-05-02T08:51:46.784Z</time></trkpt><trkpt lat="38.8307635" lon="20.7038721"><ele>6.0</ele><time>2026-05-02T08:52:05.784Z</time></trkpt><trkpt lat="38.830837" lon="20.7038431"><ele>6.0</ele><time>2026-05-02T08:52:07.785Z</time></trkpt><trkpt lat="38.8309081" lon="20.7037411"><ele>6.0</ele><time>2026-05-02T08:52:09.785Z</time></trkpt><trkpt lat="38.8309651" lon="20.7036264"><ele>5.6</ele><time>2026-05-02T08:52:11.785Z</time></trkpt><trkpt lat="38.8310305" lon="20.7035027"><ele>5.199999999999999</ele><time>2026-05-02T08:52:13.784Z</time></trkpt><trkpt lat="38.8310957" lon="20.7033827"><ele>4.800000000000001</ele><time>2026-05-02T08:52:15.785Z</time></trkpt><trkpt lat="38.8311505" lon="20.7032711"><ele>4.4</ele><time>2026-05-02T08:52:17.785Z</time></trkpt><trkpt lat="38.8312055" lon="20.7031631"><ele>4.0</ele><time>2026-05-02T08:52:19.785Z</time></trkpt><trkpt lat="38.8312791" lon="20.703065"><ele>4.0</ele><time>2026-05-02T08:52:21.785Z</time></trkpt><trkpt lat="38.8313853" lon="20.7030183"><ele>4.0</ele><time>2026-05-02T08:52:23.785Z</time></trkpt><trkpt lat="38.8315013" lon="20.703012"><ele>4.0</ele><time>2026-05-02T08:52:25.784Z</time></trkpt><trkpt lat="38.8316177" lon="20.7030081"><ele>4.0</ele><time>2026-05-02T08:52:27.784Z</time></trkpt><trkpt lat="38.831725" lon="20.7029885"><ele>3.6</ele><time>2026-05-02T08:52:29.784Z</time></trkpt><trkpt lat="38.8318365" lon="20.7029736"><ele>3.2</ele><time>2026-05-02T08:52:31.785Z</time></trkpt><trkpt lat="38.8319457" lon="20.702971"><ele>2.8000000000000003</ele><time>2026-05-02T08:52:33.785Z</time></trkpt><trkpt lat="38.8320512" lon="20.7029584"><ele>2.4000000000000004</ele><time>2026-05-02T08:52:35.785Z</time></trkpt><trkpt lat="38.832152" lon="20.7029501"><ele>2.0</ele><time>2026-05-02T08:52:37.785Z</time></trkpt><trkpt lat="38.8322491" lon="20.7029471"><ele>2.0</ele><time>2026-05-02T08:52:39.785Z</time></trkpt><trkpt lat="38.8323568" lon="20.7029364"><ele>2.0</ele><time>2026-05-02T08:52:41.784Z</time></trkpt><trkpt lat="38.8324788" lon="20.7029216"><ele>2.0</ele><time>2026-05-02T08:52:43.784Z</time></trkpt><trkpt lat="38.832542" lon="20.7029198"><ele>2.0</ele><time>2026-05-02T08:52:44.785Z</time></trkpt><trkpt lat="38.8326675" lon="20.7028958"><ele>2.0</ele><time>2026-05-02T08:52:46.784Z</time></trkpt><trkpt lat="38.8327961" lon="20.7028798"><ele>2.4000000000000004</ele><time>2026-05-02T08:52:48.785Z</time></trkpt><trkpt lat="38.8329206" lon="20.7028607"><ele>2.8000000000000003</ele><time>2026-05-02T08:52:50.784Z</time></trkpt><trkpt lat="38.8329837" lon="20.7028551"><ele>3.2</ele><time>2026-05-02T08:52:51.784Z</time></trkpt><trkpt lat="38.8331105" lon="20.7028543"><ele>3.6</ele><time>2026-05-02T08:52:53.785Z</time></trkpt><trkpt lat="38.8331768" lon="20.7028664"><ele>4.0</ele><time>2026-05-02T08:52:54.784Z</time></trkpt><trkpt lat="38.8332458" lon="20.7028805"><ele>4.0</ele><time>2026-05-02T08:52:55.784Z</time></trkpt><trkpt lat="38.8333749" lon="20.7029266"><ele>4.0</ele><time>2026-05-02T08:52:57.784Z</time></trkpt><trkpt lat="38.8334445" lon="20.7029688"><ele>4.0</ele><time>2026-05-02T08:52:58.785Z</time></trkpt><trkpt lat="38.8335148" lon="20.7030309"><ele>4.0</ele><time>2026-05-02T08:52:59.785Z</time></trkpt><trkpt lat="38.8335869" lon="20.7030904"><ele>4.0</ele><time>2026-05-02T08:53:00.784Z</time></trkpt><trkpt lat="38.8336587" lon="20.7031674"><ele>3.8000000000000003</ele><time>2026-05-02T08:53:01.784Z</time></trkpt><trkpt lat="38.8337243" lon="20.7032474"><ele>3.6000000000000005</ele><time>2026-05-02T08:53:02.784Z</time></trkpt><trkpt lat="38.8337984" lon="20.7033387"><ele>3.4</ele><time>2026-05-02T08:53:03.785Z</time></trkpt><trkpt lat="38.833876" lon="20.7034271"><ele>3.2</ele><time>2026-05-02T08:53:04.784Z</time></trkpt><trkpt lat="38.8339467" lon="20.7035121"><ele>3.0</ele><time>2026-05-02T08:53:05.785Z</time></trkpt><trkpt lat="38.8340143" lon="20.7035903"><ele>3.0</ele><time>2026-05-02T08:53:06.785Z</time></trkpt><trkpt lat="38.83408" lon="20.703669"><ele>3.0</ele><time>2026-05-02T08:53:07.785Z</time></trkpt><trkpt lat="38.8341417" lon="20.7037486"><ele>3.0</ele><time>2026-05-02T08:53:08.785Z</time></trkpt><trkpt lat="38.8342035" lon="20.7038235"><ele>3.0</ele><time>2026-05-02T08:53:09.784Z</time></trkpt><trkpt lat="38.8342661" lon="20.7038914"><ele>3.0</ele><time>2026-05-02T08:53:10.785Z</time></trkpt><trkpt lat="38.8343316" lon="20.7039578"><ele>3.0</ele><time>2026-05-02T08:53:11.785Z</time></trkpt><trkpt lat="38.8343977" lon="20.7040193"><ele>2.6666666666666665</ele><time>2026-05-02T08:53:12.784Z</time></trkpt><trkpt lat="38.8344611" lon="20.7040772"><ele>2.3333333333333335</ele><time>2026-05-02T08:53:13.784Z</time></trkpt><trkpt lat="38.8345215" lon="20.7041126"><ele>2.0</ele><time>2026-05-02T08:53:14.784Z</time></trkpt><trkpt lat="38.8345852" lon="20.7041368"><ele>1.6666666666666665</ele><time>2026-05-02T08:53:15.784Z</time></trkpt><trkpt lat="38.834699" lon="20.704093"><ele>1.3333333333333333</ele><time>2026-05-02T08:53:17.784Z</time></trkpt><trkpt lat="38.8347507" lon="20.7040309"><ele>1.0</ele><time>2026-05-02T08:53:18.785Z</time></trkpt><trkpt lat="38.8348012" lon="20.7039503"><ele>1.0</ele><time>2026-05-02T08:53:19.784Z</time></trkpt><trkpt lat="38.8348476" lon="20.7038446"><ele>1.0</ele><time>2026-05-02T08:53:20.785Z</time></trkpt><trkpt lat="38.8348883" lon="20.7037238"><ele>1.0</ele><time>2026-05-02T08:53:21.785Z</time></trkpt><trkpt lat="38.8349165" lon="20.7035983"><ele>1.0</ele><time>2026-05-02T08:53:22.784Z</time></trkpt><trkpt lat="38.834936" lon="20.7034724"><ele>1.0</ele><time>2026-05-02T08:53:23.785Z</time></trkpt><trkpt lat="38.834958" lon="20.7033353"><ele>1.5</ele><time>2026-05-02T08:53:24.784Z</time></trkpt><trkpt lat="38.8349781" lon="20.7031984"><ele>2.0</ele><time>2026-05-02T08:53:25.784Z</time></trkpt><trkpt lat="38.8349999" lon="20.7030559"><ele>2.5</ele><time>2026-05-02T08:53:26.784Z</time></trkpt><trkpt lat="38.8350217" lon="20.7029087"><ele>3.0</ele><time>2026-05-02T08:53:27.784Z</time></trkpt><trkpt lat="38.8350417" lon="20.7027596"><ele>2.8</ele><time>2026-05-02T08:53:28.785Z</time></trkpt><trkpt lat="38.8350621" lon="20.7026148"><ele>2.5999999999999996</ele><time>2026-05-02T08:53:29.785Z</time></trkpt><trkpt lat="38.8350825" lon="20.7024742"><ele>2.4000000000000004</ele><time>2026-05-02T08:53:30.785Z</time></trkpt><trkpt lat="38.8351006" lon="20.7023335"><ele>2.2</ele><time>2026-05-02T08:53:31.784Z</time></trkpt><trkpt lat="38.835117" lon="20.7021952"><ele>2.0</ele><time>2026-05-02T08:53:32.784Z</time></trkpt><trkpt lat="38.8351326" lon="20.702059"><ele>1.6</ele><time>2026-05-02T08:53:33.785Z</time></trkpt><trkpt lat="38.8351488" lon="20.7019249"><ele>1.2000000000000002</ele><time>2026-05-02T08:53:34.784Z</time></trkpt><trkpt lat="38.835164" lon="20.7017949"><ele>0.8</ele><time>2026-05-02T08:53:35.785Z</time></trkpt><trkpt lat="38.835177" lon="20.7016588"><ele>0.4</ele><time>2026-05-02T08:53:36.785Z</time></trkpt><trkpt lat="38.8351947" lon="20.7015099"><ele>0.0</ele><time>2026-05-02T08:53:37.784Z</time></trkpt><trkpt lat="38.8352079" lon="20.7013636"><ele>0.0</ele><time>2026-05-02T08:53:38.784Z</time></trkpt><trkpt lat="38.8352229" lon="20.7012162"><ele>0.0</ele><time>2026-05-02T08:53:39.785Z</time></trkpt><trkpt lat="38.835239" lon="20.7010596"><ele>0.0</ele><time>2026-05-02T08:53:40.785Z</time></trkpt><trkpt lat="38.835259" lon="20.7008971"><ele>0.0</ele><time>2026-05-02T08:53:41.785Z</time></trkpt><trkpt lat="38.8352811" lon="20.7007333"><ele>0.0</ele><time>2026-05-02T08:53:42.785Z</time></trkpt><trkpt lat="38.8353086" lon="20.7005485"><ele>0.0</ele><time>2026-05-02T08:53:43.785Z</time></trkpt><trkpt lat="38.8353324" lon="20.7003757"><ele>0.0</ele><time>2026-05-02T08:53:44.785Z</time></trkpt><trkpt lat="38.8353629" lon="20.7002048"><ele>0.0</ele><time>2026-05-02T08:53:45.784Z</time></trkpt><trkpt lat="38.8353909" lon="20.7000277"><ele>0.0</ele><time>2026-05-02T08:53:46.785Z</time></trkpt><trkpt lat="38.8354199" lon="20.6998555"><ele>0.0</ele><time>2026-05-02T08:53:47.784Z</time></trkpt><trkpt lat="38.8354532" lon="20.6996795"><ele>0.0</ele><time>2026-05-02T08:53:48.785Z</time></trkpt><trkpt lat="38.8354804" lon="20.6995121"><ele>0.0</ele><time>2026-05-02T08:53:49.784Z</time></trkpt><trkpt lat="38.8355091" lon="20.6993479"><ele>0.25</ele><time>2026-05-02T08:53:50.784Z</time></trkpt><trkpt lat="38.8355412" lon="20.6991783"><ele>0.5</ele><time>2026-05-02T08:53:51.784Z</time></trkpt><trkpt lat="38.8355714" lon="20.6990065"><ele>0.75</ele><time>2026-05-02T08:53:52.784Z</time></trkpt><trkpt lat="38.8356086" lon="20.6988441"><ele>1.0</ele><time>2026-05-02T08:53:53.784Z</time></trkpt><trkpt lat="38.8356425" lon="20.6986802"><ele>1.0</ele><time>2026-05-02T08:53:54.785Z</time></trkpt><trkpt lat="38.8356787" lon="20.6985129"><ele>1.0</ele><time>2026-05-02T08:53:55.784Z</time></trkpt><trkpt lat="38.8357085" lon="20.6983482"><ele>1.0</ele><time>2026-05-02T08:53:56.784Z</time></trkpt><trkpt lat="38.8357362" lon="20.6981856"><ele>1.0</ele><time>2026-05-02T08:53:57.785Z</time></trkpt><trkpt lat="38.8357643" lon="20.6980228"><ele>1.0</ele><time>2026-05-02T08:53:58.785Z</time></trkpt><trkpt lat="38.8357868" lon="20.6978613"><ele>1.0</ele><time>2026-05-02T08:53:59.784Z</time></trkpt><trkpt lat="38.8358115" lon="20.6976949"><ele>1.0</ele><time>2026-05-02T08:54:00.784Z</time></trkpt><trkpt lat="38.8358346" lon="20.6975279"><ele>1.0</ele><time>2026-05-02T08:54:01.785Z</time></trkpt><trkpt lat="38.8358597" lon="20.697358"><ele>1.0</ele><time>2026-05-02T08:54:02.784Z</time></trkpt><trkpt lat="38.8358885" lon="20.6971799"><ele>1.0</ele><time>2026-05-02T08:54:03.784Z</time></trkpt><trkpt lat="38.8359187" lon="20.6970011"><ele>1.0</ele><time>2026-05-02T08:54:04.785Z</time></trkpt><trkpt lat="38.8359522" lon="20.6968233"><ele>1.0</ele><time>2026-05-02T08:54:05.784Z</time></trkpt><trkpt lat="38.8359863" lon="20.6966438"><ele>1.0</ele><time>2026-05-02T08:54:06.784Z</time></trkpt><trkpt lat="38.8360184" lon="20.6964622"><ele>1.0</ele><time>2026-05-02T08:54:07.784Z</time></trkpt><trkpt lat="38.8360502" lon="20.696281"><ele>1.0</ele><time>2026-05-02T08:54:08.784Z</time></trkpt><trkpt lat="38.8360825" lon="20.6961001"><ele>1.0</ele><time>2026-05-02T08:54:09.785Z</time></trkpt><trkpt lat="38.8361156" lon="20.6959204"><ele>1.0</ele><time>2026-05-02T08:54:10.784Z</time></trkpt><trkpt lat="38.8361487" lon="20.6957412"><ele>1.0</ele><time>2026-05-02T08:54:11.785Z</time></trkpt><trkpt lat="38.8361791" lon="20.6955611"><ele>1.0</ele><time>2026-05-02T08:54:12.785Z</time></trkpt><trkpt lat="38.8362084" lon="20.6953759"><ele>1.0</ele><time>2026-05-02T08:54:13.785Z</time></trkpt><trkpt lat="38.8362417" lon="20.6951849"><ele>1.25</ele><time>2026-05-02T08:54:14.785Z</time></trkpt><trkpt lat="38.8362703" lon="20.6949924"><ele>1.5</ele><time>2026-05-02T08:54:15.785Z</time></trkpt><trkpt lat="38.8362922" lon="20.6948094"><ele>1.75</ele><time>2026-05-02T08:54:16.785Z</time></trkpt><trkpt lat="38.8363072" lon="20.6946207"><ele>2.0</ele><time>2026-05-02T08:54:17.785Z</time></trkpt><trkpt lat="38.8363235" lon="20.6944419"><ele>1.75</ele><time>2026-05-02T08:54:18.785Z</time></trkpt><trkpt lat="38.8363377" lon="20.694259"><ele>1.5</ele><time>2026-05-02T08:54:19.785Z</time></trkpt><trkpt lat="38.8363448" lon="20.6940766"><ele>1.25</ele><time>2026-05-02T08:54:20.784Z</time></trkpt><trkpt lat="38.8363426" lon="20.6938902"><ele>1.0</ele><time>2026-05-02T08:54:21.784Z</time></trkpt><trkpt lat="38.8363301" lon="20.6936996"><ele>1.0</ele><time>2026-05-02T08:54:22.784Z</time></trkpt><trkpt lat="38.8363082" lon="20.6935055"><ele>1.0</ele><time>2026-05-02T08:54:23.784Z</time></trkpt><trkpt lat="38.8362676" lon="20.6933093"><ele>1.0</ele><time>2026-05-02T08:54:24.785Z</time></trkpt><trkpt lat="38.8362091" lon="20.6931172"><ele>1.0</ele><time>2026-05-02T08:54:25.785Z</time></trkpt><trkpt lat="38.8361392" lon="20.6929311"><ele>1.0</ele><time>2026-05-02T08:54:26.784Z</time></trkpt><trkpt lat="38.8360595" lon="20.6927404"><ele>1.0</ele><time>2026-05-02T08:54:27.784Z</time></trkpt><trkpt lat="38.8359884" lon="20.6925515"><ele>0.6666666666666666</ele><time>2026-05-02T08:54:28.785Z</time></trkpt><trkpt lat="38.8359099" lon="20.69237"><ele>0.3333333333333333</ele><time>2026-05-02T08:54:29.785Z</time></trkpt><trkpt lat="38.835837" lon="20.6921871"><ele>0.0</ele><time>2026-05-02T08:54:30.785Z</time></trkpt><trkpt lat="38.8357657" lon="20.6920056"><ele>0.0</ele><time>2026-05-02T08:54:31.784Z</time></trkpt><trkpt lat="38.8356921" lon="20.6918271"><ele>0.0</ele><time>2026-05-02T08:54:32.784Z</time></trkpt><trkpt lat="38.8356166" lon="20.6916485"><ele>0.0</ele><time>2026-05-02T08:54:33.784Z</time></trkpt><trkpt lat="38.8355403" lon="20.6914758"><ele>0.0</ele><time>2026-05-02T08:54:34.785Z</time></trkpt><trkpt lat="38.8354645" lon="20.6913068"><ele>0.0</ele><time>2026-05-02T08:54:35.784Z</time></trkpt><trkpt lat="38.8353851" lon="20.6911343"><ele>0.0</ele><time>2026-05-02T08:54:36.784Z</time></trkpt><trkpt lat="38.8353074" lon="20.6909627"><ele>0.3333333333333333</ele><time>2026-05-02T08:54:37.784Z</time></trkpt><trkpt lat="38.8352346" lon="20.6907865"><ele>0.6666666666666666</ele><time>2026-05-02T08:54:38.785Z</time></trkpt><trkpt lat="38.8351535" lon="20.6906126"><ele>1.0</ele><time>2026-05-02T08:54:39.785Z</time></trkpt><trkpt lat="38.8350768" lon="20.6904389"><ele>1.3333333333333333</ele><time>2026-05-02T08:54:40.785Z</time></trkpt><trkpt lat="38.8349927" lon="20.690262"><ele>1.6666666666666665</ele><time>2026-05-02T08:54:41.784Z</time></trkpt><trkpt lat="38.8349197" lon="20.6900838"><ele>2.0</ele><time>2026-05-02T08:54:42.785Z</time></trkpt><trkpt lat="38.8348475" lon="20.6899017"><ele>2.0</ele><time>2026-05-02T08:54:43.785Z</time></trkpt><trkpt lat="38.8347803" lon="20.6897102"><ele>2.0</ele><time>2026-05-02T08:54:44.784Z</time></trkpt><trkpt lat="38.8347198" lon="20.6895254"><ele>2.0</ele><time>2026-05-02T08:54:45.784Z</time></trkpt><trkpt lat="38.8346686" lon="20.6893211"><ele>2.0</ele><time>2026-05-02T08:54:46.785Z</time></trkpt><trkpt lat="38.8346205" lon="20.689117"><ele>2.0</ele><time>2026-05-02T08:54:47.785Z</time></trkpt><trkpt lat="38.8345766" lon="20.6889097"><ele>2.0</ele><time>2026-05-02T08:54:48.785Z</time></trkpt><trkpt lat="38.8345378" lon="20.6886952"><ele>1.3333333333333333</ele><time>2026-05-02T08:54:49.785Z</time></trkpt><trkpt lat="38.8345015" lon="20.6884824"><ele>0.6666666666666666</ele><time>2026-05-02T08:54:50.784Z</time></trkpt><trkpt lat="38.8344679" lon="20.6882714"><ele>0.0</ele><time>2026-05-02T08:54:51.784Z</time></trkpt><trkpt lat="38.834438" lon="20.6880594"><ele>0.0</ele><time>2026-05-02T08:54:52.785Z</time></trkpt><trkpt lat="38.8344155" lon="20.6878464"><ele>0.0</ele><time>2026-05-02T08:54:53.785Z</time></trkpt><trkpt lat="38.8343974" lon="20.687634"><ele>0.0</ele><time>2026-05-02T08:54:54.785Z</time></trkpt><trkpt lat="38.8343877" lon="20.6874263"><ele>0.0</ele><time>2026-05-02T08:54:55.784Z</time></trkpt><trkpt lat="38.834384" lon="20.6872125"><ele>0.0</ele><time>2026-05-02T08:54:56.785Z</time></trkpt><trkpt lat="38.8343903" lon="20.6869995"><ele>0.0</ele><time>2026-05-02T08:54:57.785Z</time></trkpt><trkpt lat="38.8344122" lon="20.6867898"><ele>0.6666666666666666</ele><time>2026-05-02T08:54:58.784Z</time></trkpt><trkpt lat="38.8344409" lon="20.6865814"><ele>1.3333333333333333</ele><time>2026-05-02T08:54:59.785Z</time></trkpt><trkpt lat="38.8344806" lon="20.6863691"><ele>2.0</ele><time>2026-05-02T08:55:00.785Z</time></trkpt><trkpt lat="38.8345312" lon="20.6861594"><ele>1.6666666666666665</ele><time>2026-05-02T08:55:01.784Z</time></trkpt><trkpt lat="38.8345822" lon="20.6859556"><ele>1.3333333333333333</ele><time>2026-05-02T08:55:02.785Z</time></trkpt><trkpt lat="38.8346406" lon="20.6857516"><ele>1.0</ele><time>2026-05-02T08:55:03.784Z</time></trkpt><trkpt lat="38.8346974" lon="20.6855512"><ele>1.0</ele><time>2026-05-02T08:55:04.785Z</time></trkpt><trkpt lat="38.8347593" lon="20.6853505"><ele>1.0</ele><time>2026-05-02T08:55:05.784Z</time></trkpt><trkpt lat="38.834819" lon="20.6851549"><ele>1.0</ele><time>2026-05-02T08:55:06.785Z</time></trkpt><trkpt lat="38.8348752" lon="20.6849646"><ele>1.3333333333333333</ele><time>2026-05-02T08:55:07.785Z</time></trkpt><trkpt lat="38.8349336" lon="20.6847794"><ele>1.6666666666666665</ele><time>2026-05-02T08:55:08.784Z</time></trkpt><trkpt lat="38.8349947" lon="20.6845901"><ele>2.0</ele><time>2026-05-02T08:55:09.785Z</time></trkpt><trkpt lat="38.8350581" lon="20.6843992"><ele>1.3333333333333333</ele><time>2026-05-02T08:55:10.785Z</time></trkpt><trkpt lat="38.8351276" lon="20.6842056"><ele>0.6666666666666666</ele><time>2026-05-02T08:55:11.785Z</time></trkpt><trkpt lat="38.8351997" lon="20.6840046"><ele>0.0</ele><time>2026-05-02T08:55:12.784Z</time></trkpt><trkpt lat="38.8352711" lon="20.6838072"><ele>0.0</ele><time>2026-05-02T08:55:13.785Z</time></trkpt><trkpt lat="38.8353406" lon="20.6836088"><ele>0.0</ele><time>2026-05-02T08:55:14.785Z</time></trkpt><trkpt lat="38.8354123" lon="20.683412"><ele>0.0</ele><time>2026-05-02T08:55:15.785Z</time></trkpt><trkpt lat="38.8354819" lon="20.6832183"><ele>0.0</ele><time>2026-05-02T08:55:16.784Z</time></trkpt><trkpt lat="38.8355531" lon="20.6830256"><ele>0.0</ele><time>2026-05-02T08:55:17.785Z</time></trkpt><trkpt lat="38.8356256" lon="20.6828423"><ele>0.0</ele><time>2026-05-02T08:55:18.784Z</time></trkpt><trkpt lat="38.8357021" lon="20.6826677"><ele>0.0</ele><time>2026-05-02T08:55:19.785Z</time></trkpt><trkpt lat="38.8357859" lon="20.6825102"><ele>0.0</ele><time>2026-05-02T08:55:20.785Z</time></trkpt><trkpt lat="38.8358838" lon="20.6823674"><ele>0.0</ele><time>2026-05-02T08:55:21.784Z</time></trkpt><trkpt lat="38.8359974" lon="20.6822392"><ele>0.0</ele><time>2026-05-02T08:55:22.785Z</time></trkpt><trkpt lat="38.8361222" lon="20.6821317"><ele>0.6666666666666666</ele><time>2026-05-02T08:55:23.784Z</time></trkpt><trkpt lat="38.8362602" lon="20.6820201"><ele>1.3333333333333333</ele><time>2026-05-02T08:55:24.784Z</time></trkpt><trkpt lat="38.836395" lon="20.6819424"><ele>2.0</ele><time>2026-05-02T08:55:25.785Z</time></trkpt><trkpt lat="38.8365374" lon="20.6818712"><ele>2.0</ele><time>2026-05-02T08:55:26.785Z</time></trkpt><trkpt lat="38.8366775" lon="20.6818184"><ele>2.0</ele><time>2026-05-02T08:55:27.784Z</time></trkpt><trkpt lat="38.8368199" lon="20.6817798"><ele>2.0</ele><time>2026-05-02T08:55:28.785Z</time></trkpt><trkpt lat="38.8369649" lon="20.6817563"><ele>2.0</ele><time>2026-05-02T08:55:29.784Z</time></trkpt><trkpt lat="38.8371044" lon="20.6817384"><ele>2.25</ele><time>2026-05-02T08:55:30.784Z</time></trkpt><trkpt lat="38.837243" lon="20.6817177"><ele>2.5</ele><time>2026-05-02T08:55:31.785Z</time></trkpt><trkpt lat="38.8373759" lon="20.6817065"><ele>2.75</ele><time>2026-05-02T08:55:32.784Z</time></trkpt><trkpt lat="38.8375067" lon="20.6816941"><ele>3.0</ele><time>2026-05-02T08:55:33.785Z</time></trkpt><trkpt lat="38.8376427" lon="20.6816908"><ele>2.5</ele><time>2026-05-02T08:55:34.784Z</time></trkpt><trkpt lat="38.8377835" lon="20.681691"><ele>2.0</ele><time>2026-05-02T08:55:35.784Z</time></trkpt><trkpt lat="38.8379257" lon="20.6817093"><ele>1.5</ele><time>2026-05-02T08:55:36.785Z</time></trkpt><trkpt lat="38.8380665" lon="20.6817211"><ele>1.0</ele><time>2026-05-02T08:55:37.785Z</time></trkpt><trkpt lat="38.838207" lon="20.6817438"><ele>1.0</ele><time>2026-05-02T08:55:38.785Z</time></trkpt><trkpt lat="38.8383509" lon="20.6817807"><ele>1.0</ele><time>2026-05-02T08:55:39.784Z</time></trkpt><trkpt lat="38.83849" lon="20.681826"><ele>1.0</ele><time>2026-05-02T08:55:40.785Z</time></trkpt><trkpt lat="38.8386276" lon="20.6818826"><ele>1.0</ele><time>2026-05-02T08:55:41.784Z</time></trkpt><trkpt lat="38.8387689" lon="20.681941"><ele>1.0</ele><time>2026-05-02T08:55:42.784Z</time></trkpt><trkpt lat="38.8388991" lon="20.6820017"><ele>1.0</ele><time>2026-05-02T08:55:43.784Z</time></trkpt><trkpt lat="38.839025" lon="20.6820672"><ele>1.0</ele><time>2026-05-02T08:55:44.785Z</time></trkpt><trkpt lat="38.8391512" lon="20.6821169"><ele>1.0</ele><time>2026-05-02T08:55:45.785Z</time></trkpt><trkpt lat="38.8392782" lon="20.682181"><ele>1.0</ele><time>2026-05-02T08:55:46.785Z</time></trkpt><trkpt lat="38.8394017" lon="20.682239"><ele>1.0</ele><time>2026-05-02T08:55:47.784Z</time></trkpt><trkpt lat="38.8395284" lon="20.6823042"><ele>1.0</ele><time>2026-05-02T08:55:48.784Z</time></trkpt><trkpt lat="38.8396597" lon="20.682365"><ele>1.0</ele><time>2026-05-02T08:55:49.785Z</time></trkpt><trkpt lat="38.8397972" lon="20.6824337"><ele>1.0</ele><time>2026-05-02T08:55:50.785Z</time></trkpt><trkpt lat="38.839931" lon="20.6825039"><ele>1.0</ele><time>2026-05-02T08:55:51.784Z</time></trkpt><trkpt lat="38.8400678" lon="20.6825766"><ele>1.0</ele><time>2026-05-02T08:55:52.784Z</time></trkpt><trkpt lat="38.840203" lon="20.6826476"><ele>1.0</ele><time>2026-05-02T08:55:53.784Z</time></trkpt><trkpt lat="38.8403417" lon="20.6827166"><ele>1.0</ele><time>2026-05-02T08:55:54.784Z</time></trkpt><trkpt lat="38.8404816" lon="20.6827901"><ele>1.0</ele><time>2026-05-02T08:55:55.785Z</time></trkpt><trkpt lat="38.840627" lon="20.6828669"><ele>1.0</ele><time>2026-05-02T08:55:56.784Z</time></trkpt><trkpt lat="38.8407692" lon="20.6829452"><ele>1.0</ele><time>2026-05-02T08:55:57.784Z</time></trkpt><trkpt lat="38.8409099" lon="20.6830239"><ele>1.0</ele><time>2026-05-02T08:55:58.785Z</time></trkpt><trkpt lat="38.8410499" lon="20.6831101"><ele>1.0</ele><time>2026-05-02T08:55:59.784Z</time></trkpt><trkpt lat="38.841186" lon="20.6831989"><ele>1.6666666666666665</ele><time>2026-05-02T08:56:00.785Z</time></trkpt><trkpt lat="38.8413236" lon="20.6832882"><ele>2.3333333333333335</ele><time>2026-05-02T08:56:01.784Z</time></trkpt><trkpt lat="38.8414617" lon="20.6833786"><ele>3.0</ele><time>2026-05-02T08:56:02.785Z</time></trkpt><trkpt lat="38.8415883" lon="20.6834666"><ele>3.0</ele><time>2026-05-02T08:56:03.785Z</time></trkpt><trkpt lat="38.8417221" lon="20.6835555"><ele>3.0</ele><time>2026-05-02T08:56:04.785Z</time></trkpt><trkpt lat="38.841862" lon="20.683646"><ele>3.0</ele><time>2026-05-02T08:56:05.785Z</time></trkpt><trkpt lat="38.8420009" lon="20.6837347"><ele>2.75</ele><time>2026-05-02T08:56:06.785Z</time></trkpt><trkpt lat="38.8421352" lon="20.6838213"><ele>2.5</ele><time>2026-05-02T08:56:07.784Z</time></trkpt><trkpt lat="38.8422673" lon="20.6839118"><ele>2.25</ele><time>2026-05-02T08:56:08.785Z</time></trkpt><trkpt lat="38.8423974" lon="20.6839972"><ele>2.0</ele><time>2026-05-02T08:56:09.784Z</time></trkpt><trkpt lat="38.8425265" lon="20.6840839"><ele>1.5</ele><time>2026-05-02T08:56:10.785Z</time></trkpt><trkpt lat="38.8426545" lon="20.6841678"><ele>1.0</ele><time>2026-05-02T08:56:11.784Z</time></trkpt><trkpt lat="38.8427807" lon="20.6842517"><ele>0.5</ele><time>2026-05-02T08:56:12.784Z</time></trkpt><trkpt lat="38.8429122" lon="20.6843324"><ele>0.0</ele><time>2026-05-02T08:56:13.785Z</time></trkpt><trkpt lat="38.8430456" lon="20.684402"><ele>0.75</ele><time>2026-05-02T08:56:14.785Z</time></trkpt><trkpt lat="38.8431793" lon="20.6844674"><ele>1.5</ele><time>2026-05-02T08:56:15.785Z</time></trkpt><trkpt lat="38.8433201" lon="20.6845329"><ele>2.25</ele><time>2026-05-02T08:56:16.785Z</time></trkpt><trkpt lat="38.8434643" lon="20.6845883"><ele>3.0</ele><time>2026-05-02T08:56:17.785Z</time></trkpt><trkpt lat="38.8436119" lon="20.6846401"><ele>3.0</ele><time>2026-05-02T08:56:18.785Z</time></trkpt><trkpt lat="38.8437609" lon="20.6846817"><ele>3.0</ele><time>2026-05-02T08:56:19.784Z</time></trkpt><trkpt lat="38.8439067" lon="20.6847212"><ele>3.0</ele><time>2026-05-02T08:56:20.784Z</time></trkpt><trkpt lat="38.8440574" lon="20.6847623"><ele>3.0</ele><time>2026-05-02T08:56:21.785Z</time></trkpt><trkpt lat="38.8442043" lon="20.6847965"><ele>3.0</ele><time>2026-05-02T08:56:22.785Z</time></trkpt><trkpt lat="38.8443584" lon="20.6848324"><ele>3.0</ele><time>2026-05-02T08:56:23.785Z</time></trkpt><trkpt lat="38.8445146" lon="20.6848699"><ele>2.3333333333333335</ele><time>2026-05-02T08:56:24.785Z</time></trkpt><trkpt lat="38.8446695" lon="20.6849136"><ele>1.6666666666666665</ele><time>2026-05-02T08:56:25.784Z</time></trkpt><trkpt lat="38.8448299" lon="20.6849578"><ele>1.0</ele><time>2026-05-02T08:56:26.785Z</time></trkpt><trkpt lat="38.8449868" lon="20.6849944"><ele>1.3333333333333333</ele><time>2026-05-02T08:56:27.785Z</time></trkpt><trkpt lat="38.8451452" lon="20.6850392"><ele>1.6666666666666665</ele><time>2026-05-02T08:56:28.785Z</time></trkpt><trkpt lat="38.8453039" lon="20.6850839"><ele>2.0</ele><time>2026-05-02T08:56:29.785Z</time></trkpt><trkpt lat="38.8454609" lon="20.685131"><ele>2.0</ele><time>2026-05-02T08:56:30.784Z</time></trkpt><trkpt lat="38.8456211" lon="20.685184"><ele>2.0</ele><time>2026-05-02T08:56:31.785Z</time></trkpt><trkpt lat="38.8457791" lon="20.6852391"><ele>2.0</ele><time>2026-05-02T08:56:32.784Z</time></trkpt><trkpt lat="38.8459354" lon="20.6852933"><ele>2.0</ele><time>2026-05-02T08:56:33.785Z</time></trkpt><trkpt lat="38.8460869" lon="20.6853487"><ele>2.0</ele><time>2026-05-02T08:56:34.785Z</time></trkpt><trkpt lat="38.8462429" lon="20.685407"><ele>2.0</ele><time>2026-05-02T08:56:35.784Z</time></trkpt><trkpt lat="38.8463994" lon="20.6854642"><ele>2.0</ele><time>2026-05-02T08:56:36.785Z</time></trkpt><trkpt lat="38.846556" lon="20.6855244"><ele>2.0</ele><time>2026-05-02T08:56:37.785Z</time></trkpt><trkpt lat="38.8467109" lon="20.6855839"><ele>2.0</ele><time>2026-05-02T08:56:38.785Z</time></trkpt><trkpt lat="38.8468684" lon="20.6856442"><ele>1.6666666666666665</ele><time>2026-05-02T08:56:39.785Z</time></trkpt><trkpt lat="38.8470275" lon="20.6857034"><ele>1.3333333333333333</ele><time>2026-05-02T08:56:40.784Z</time></trkpt><trkpt lat="38.8471803" lon="20.6857622"><ele>1.0</ele><time>2026-05-02T08:56:41.785Z</time></trkpt><trkpt lat="38.8473267" lon="20.685823"><ele>1.0</ele><time>2026-05-02T08:56:42.784Z</time></trkpt><trkpt lat="38.8474743" lon="20.6858855"><ele>1.0</ele><time>2026-05-02T08:56:43.784Z</time></trkpt><trkpt lat="38.8476172" lon="20.6859495"><ele>1.0</ele><time>2026-05-02T08:56:44.784Z</time></trkpt><trkpt lat="38.8477659" lon="20.6860185"><ele>1.3333333333333333</ele><time>2026-05-02T08:56:45.785Z</time></trkpt><trkpt lat="38.8479124" lon="20.6860973"><ele>1.6666666666666665</ele><time>2026-05-02T08:56:46.784Z</time></trkpt><trkpt lat="38.8480476" lon="20.686201"><ele>2.0</ele><time>2026-05-02T08:56:47.784Z</time></trkpt><trkpt lat="38.8481805" lon="20.6863195"><ele>2.0</ele><time>2026-05-02T08:56:48.784Z</time></trkpt><trkpt lat="38.8483053" lon="20.6864493"><ele>2.0</ele><time>2026-05-02T08:56:49.785Z</time></trkpt><trkpt lat="38.8484189" lon="20.6865928"><ele>2.0</ele><time>2026-05-02T08:56:50.784Z</time></trkpt><trkpt lat="38.8485235" lon="20.6867426"><ele>1.6666666666666665</ele><time>2026-05-02T08:56:51.785Z</time></trkpt><trkpt lat="38.8486236" lon="20.6869113"><ele>1.3333333333333333</ele><time>2026-05-02T08:56:52.785Z</time></trkpt><trkpt lat="38.8487139" lon="20.6870799"><ele>1.0</ele><time>2026-05-02T08:56:53.784Z</time></trkpt><trkpt lat="38.8488046" lon="20.6872576"><ele>0.6666666666666666</ele><time>2026-05-02T08:56:54.785Z</time></trkpt><trkpt lat="38.8488991" lon="20.6874416"><ele>0.3333333333333333</ele><time>2026-05-02T08:56:55.785Z</time></trkpt><trkpt lat="38.8489926" lon="20.6876288"><ele>0.0</ele><time>2026-05-02T08:56:56.785Z</time></trkpt><trkpt lat="38.8490883" lon="20.6878222"><ele>0.0</ele><time>2026-05-02T08:56:57.785Z</time></trkpt><trkpt lat="38.8491878" lon="20.6880228"><ele>0.0</ele><time>2026-05-02T08:56:58.785Z</time></trkpt><trkpt lat="38.8492868" lon="20.6882146"><ele>0.0</ele><time>2026-05-02T08:56:59.785Z</time></trkpt><trkpt lat="38.8493812" lon="20.6884069"><ele>1.0</ele><time>2026-05-02T08:57:00.784Z</time></trkpt><trkpt lat="38.8494795" lon="20.688598"><ele>2.0</ele><time>2026-05-02T08:57:01.785Z</time></trkpt><trkpt lat="38.8495674" lon="20.6887907"><ele>3.0</ele><time>2026-05-02T08:57:02.784Z</time></trkpt><trkpt lat="38.8496638" lon="20.6889973"><ele>3.0</ele><time>2026-05-02T08:57:03.785Z</time></trkpt><trkpt lat="38.8497533" lon="20.6891881"><ele>3.0</ele><time>2026-05-02T08:57:04.784Z</time></trkpt><trkpt lat="38.8498372" lon="20.6893974"><ele>3.0</ele><time>2026-05-02T08:57:05.784Z</time></trkpt><trkpt lat="38.8499119" lon="20.6895989"><ele>2.6666666666666665</ele><time>2026-05-02T08:57:06.785Z</time></trkpt><trkpt lat="38.8499744" lon="20.6898121"><ele>2.333333333333333</ele><time>2026-05-02T08:57:07.785Z</time></trkpt><trkpt lat="38.8500346" lon="20.6900226"><ele>2.0</ele><time>2026-05-02T08:57:08.785Z</time></trkpt><trkpt lat="38.8500886" lon="20.6902325"><ele>2.0</ele><time>2026-05-02T08:57:09.785Z</time></trkpt><trkpt lat="38.8501432" lon="20.6904461"><ele>2.0</ele><time>2026-05-02T08:57:10.785Z</time></trkpt><trkpt lat="38.8501932" lon="20.6906604"><ele>2.0</ele><time>2026-05-02T08:57:11.784Z</time></trkpt><trkpt lat="38.8502402" lon="20.6908751"><ele>1.3333333333333333</ele><time>2026-05-02T08:57:12.784Z</time></trkpt><trkpt lat="38.8502759" lon="20.6910978"><ele>0.6666666666666666</ele><time>2026-05-02T08:57:13.784Z</time></trkpt><trkpt lat="38.8502999" lon="20.6913212"><ele>0.0</ele><time>2026-05-02T08:57:14.785Z</time></trkpt><trkpt lat="38.850316" lon="20.6915498"><ele>0.0</ele><time>2026-05-02T08:57:15.784Z</time></trkpt><trkpt lat="38.8503267" lon="20.6917733"><ele>0.0</ele><time>2026-05-02T08:57:16.785Z</time></trkpt><trkpt lat="38.8503369" lon="20.6919965"><ele>0.0</ele><time>2026-05-02T08:57:17.784Z</time></trkpt><trkpt lat="38.8503434" lon="20.6922229"><ele>0.0</ele><time>2026-05-02T08:57:18.784Z</time></trkpt><trkpt lat="38.8503483" lon="20.6924556"><ele>0.0</ele><time>2026-05-02T08:57:19.784Z</time></trkpt><trkpt lat="38.8503548" lon="20.6926863"><ele>0.0</ele><time>2026-05-02T08:57:20.785Z</time></trkpt><trkpt lat="38.8503625" lon="20.6929124"><ele>0.0</ele><time>2026-05-02T08:57:21.785Z</time></trkpt><trkpt lat="38.8503701" lon="20.6931431"><ele>0.0</ele><time>2026-05-02T08:57:22.784Z</time></trkpt><trkpt lat="38.8503744" lon="20.6933783"><ele>0.0</ele><time>2026-05-02T08:57:23.784Z</time></trkpt><trkpt lat="38.8503732" lon="20.6936106"><ele>0.0</ele><time>2026-05-02T08:57:24.784Z</time></trkpt><trkpt lat="38.850372" lon="20.6938378"><ele>0.0</ele><time>2026-05-02T08:57:25.785Z</time></trkpt><trkpt lat="38.8503601" lon="20.6940667"><ele>0.0</ele><time>2026-05-02T08:57:26.785Z</time></trkpt><trkpt lat="38.8503299" lon="20.6942941"><ele>0.3333333333333333</ele><time>2026-05-02T08:57:27.785Z</time></trkpt><trkpt lat="38.8502914" lon="20.694518"><ele>0.6666666666666666</ele><time>2026-05-02T08:57:28.784Z</time></trkpt><trkpt lat="38.850236" lon="20.6947405"><ele>1.0</ele><time>2026-05-02T08:57:29.785Z</time></trkpt><trkpt lat="38.8501736" lon="20.6949522"><ele>0.6666666666666666</ele><time>2026-05-02T08:57:30.784Z</time></trkpt><trkpt lat="38.8501079" lon="20.6951581"><ele>0.3333333333333333</ele><time>2026-05-02T08:57:31.784Z</time></trkpt><trkpt lat="38.8500449" lon="20.6953522"><ele>0.0</ele><time>2026-05-02T08:57:32.785Z</time></trkpt><trkpt lat="38.8499811" lon="20.6955396"><ele>0.0</ele><time>2026-05-02T08:57:33.785Z</time></trkpt><trkpt lat="38.8499186" lon="20.6957266"><ele>0.0</ele><time>2026-05-02T08:57:34.785Z</time></trkpt><trkpt lat="38.849855" lon="20.6959156"><ele>0.0</ele><time>2026-05-02T08:57:35.784Z</time></trkpt><trkpt lat="38.8497966" lon="20.6961071"><ele>0.6666666666666666</ele><time>2026-05-02T08:57:36.784Z</time></trkpt><trkpt lat="38.8497432" lon="20.6962995"><ele>1.3333333333333333</ele><time>2026-05-02T08:57:37.784Z</time></trkpt><trkpt lat="38.8496954" lon="20.6964949"><ele>2.0</ele><time>2026-05-02T08:57:38.785Z</time></trkpt><trkpt lat="38.8496496" lon="20.6966906"><ele>2.0</ele><time>2026-05-02T08:57:39.784Z</time></trkpt><trkpt lat="38.8496056" lon="20.6968939"><ele>2.0</ele><time>2026-05-02T08:57:40.785Z</time></trkpt><trkpt lat="38.8495675" lon="20.6971036"><ele>2.0</ele><time>2026-05-02T08:57:41.784Z</time></trkpt><trkpt lat="38.8495296" lon="20.6973141"><ele>1.6666666666666665</ele><time>2026-05-02T08:57:42.785Z</time></trkpt><trkpt lat="38.8494897" lon="20.6975246"><ele>1.3333333333333333</ele><time>2026-05-02T08:57:43.785Z</time></trkpt><trkpt lat="38.8494513" lon="20.6977362"><ele>1.0</ele><time>2026-05-02T08:57:44.785Z</time></trkpt><trkpt lat="38.8494116" lon="20.6979473"><ele>0.6666666666666666</ele><time>2026-05-02T08:57:45.785Z</time></trkpt><trkpt lat="38.8493747" lon="20.6981625"><ele>0.3333333333333333</ele><time>2026-05-02T08:57:46.785Z</time></trkpt><trkpt lat="38.849332" lon="20.6983879"><ele>0.0</ele><time>2026-05-02T08:57:47.784Z</time></trkpt><trkpt lat="38.849291" lon="20.6986086"><ele>0.6666666666666666</ele><time>2026-05-02T08:57:48.784Z</time></trkpt><trkpt lat="38.8492364" lon="20.6988396"><ele>1.3333333333333333</ele><time>2026-05-02T08:57:49.784Z</time></trkpt><trkpt lat="38.8491813" lon="20.6990616"><ele>2.0</ele><time>2026-05-02T08:57:50.784Z</time></trkpt><trkpt lat="38.849116" lon="20.6992822"><ele>2.0</ele><time>2026-05-02T08:57:51.785Z</time></trkpt><trkpt lat="38.8490517" lon="20.6995008"><ele>2.0</ele><time>2026-05-02T08:57:52.785Z</time></trkpt><trkpt lat="38.8489854" lon="20.6997133"><ele>2.0</ele><time>2026-05-02T08:57:53.784Z</time></trkpt><trkpt lat="38.8489205" lon="20.699922"><ele>2.0</ele><time>2026-05-02T08:57:54.785Z</time></trkpt><trkpt lat="38.8488536" lon="20.7001306"><ele>2.0</ele><time>2026-05-02T08:57:55.784Z</time></trkpt><trkpt lat="38.8487895" lon="20.700347"><ele>2.0</ele><time>2026-05-02T08:57:56.784Z</time></trkpt><trkpt lat="38.8487338" lon="20.7005644"><ele>1.6666666666666665</ele><time>2026-05-02T08:57:57.784Z</time></trkpt><trkpt lat="38.8486853" lon="20.7007848"><ele>1.3333333333333333</ele><time>2026-05-02T08:57:58.784Z</time></trkpt><trkpt lat="38.8486328" lon="20.7010108"><ele>1.0</ele><time>2026-05-02T08:57:59.785Z</time></trkpt><trkpt lat="38.8485878" lon="20.701244"><ele>0.6666666666666666</ele><time>2026-05-02T08:58:00.784Z</time></trkpt><trkpt lat="38.8485441" lon="20.7014782"><ele>0.3333333333333333</ele><time>2026-05-02T08:58:01.785Z</time></trkpt><trkpt lat="38.8485035" lon="20.7017108"><ele>0.0</ele><time>2026-05-02T08:58:02.785Z</time></trkpt><trkpt lat="38.8484604" lon="20.7019502"><ele>0.0</ele><time>2026-05-02T08:58:03.784Z</time></trkpt><trkpt lat="38.8484176" lon="20.7021959"><ele>0.0</ele><time>2026-05-02T08:58:04.785Z</time></trkpt><trkpt lat="38.8483755" lon="20.7024423"><ele>0.0</ele><time>2026-05-02T08:58:05.785Z</time></trkpt><trkpt lat="38.8483325" lon="20.7026864"><ele>0.0</ele><time>2026-05-02T08:58:06.785Z</time></trkpt><trkpt lat="38.8482881" lon="20.7029317"><ele>0.0</ele><time>2026-05-02T08:58:07.784Z</time></trkpt><trkpt lat="38.8482461" lon="20.7031824"><ele>0.0</ele><time>2026-05-02T08:58:08.785Z</time></trkpt><trkpt lat="38.8482011" lon="20.7034302"><ele>0.3333333333333333</ele><time>2026-05-02T08:58:09.784Z</time></trkpt><trkpt lat="38.8481609" lon="20.7036788"><ele>0.6666666666666666</ele><time>2026-05-02T08:58:10.785Z</time></trkpt><trkpt lat="38.8481223" lon="20.7039269"><ele>1.0</ele><time>2026-05-02T08:58:11.785Z</time></trkpt><trkpt lat="38.8480845" lon="20.704172"><ele>0.6666666666666666</ele><time>2026-05-02T08:58:12.784Z</time></trkpt><trkpt lat="38.8480533" lon="20.7044155"><ele>0.3333333333333333</ele><time>2026-05-02T08:58:13.784Z</time></trkpt><trkpt lat="38.8480264" lon="20.7046531"><ele>0.0</ele><time>2026-05-02T08:58:14.784Z</time></trkpt><trkpt lat="38.8480021" lon="20.7048894"><ele>0.0</ele><time>2026-05-02T08:58:15.785Z</time></trkpt><trkpt lat="38.8479818" lon="20.7051183"><ele>0.0</ele><time>2026-05-02T08:58:16.784Z</time></trkpt><trkpt lat="38.847959" lon="20.7053506"><ele>0.0</ele><time>2026-05-02T08:58:17.785Z</time></trkpt><trkpt lat="38.8479382" lon="20.7055849"><ele>0.0</ele><time>2026-05-02T08:58:18.784Z</time></trkpt><trkpt lat="38.8479151" lon="20.7058198"><ele>0.0</ele><time>2026-05-02T08:58:19.785Z</time></trkpt><trkpt lat="38.8478941" lon="20.706056"><ele>0.0</ele><time>2026-05-02T08:58:20.784Z</time></trkpt><trkpt lat="38.847869" lon="20.7062942"><ele>0.0</ele><time>2026-05-02T08:58:21.785Z</time></trkpt><trkpt lat="38.8478475" lon="20.7065224"><ele>0.0</ele><time>2026-05-02T08:58:22.784Z</time></trkpt><trkpt lat="38.847827" lon="20.7067539"><ele>0.0</ele><time>2026-05-02T08:58:23.784Z</time></trkpt><trkpt lat="38.847811" lon="20.7070113"><ele>0.0</ele><time>2026-05-02T08:58:24.784Z</time></trkpt><trkpt lat="38.8477925" lon="20.7072844"><ele>0.0</ele><time>2026-05-02T08:58:25.784Z</time></trkpt><trkpt lat="38.8477644" lon="20.7075706"><ele>0.0</ele><time>2026-05-02T08:58:26.784Z</time></trkpt><trkpt lat="38.8477343" lon="20.7078647"><ele>0.0</ele><time>2026-05-02T08:58:27.784Z</time></trkpt><trkpt lat="38.8477043" lon="20.7081595"><ele>0.0</ele><time>2026-05-02T08:58:28.785Z</time></trkpt><trkpt lat="38.8476696" lon="20.7084594"><ele>0.0</ele><time>2026-05-02T08:58:29.785Z</time></trkpt><trkpt lat="38.8476429" lon="20.7087471"><ele>0.0</ele><time>2026-05-02T08:58:30.785Z</time></trkpt><trkpt lat="38.847616" lon="20.7090338"><ele>0.3333333333333333</ele><time>2026-05-02T08:58:31.785Z</time></trkpt><trkpt lat="38.8475887" lon="20.7093098"><ele>0.6666666666666666</ele><time>2026-05-02T08:58:32.785Z</time></trkpt><trkpt lat="38.8475664" lon="20.7095823"><ele>1.0</ele><time>2026-05-02T08:58:33.784Z</time></trkpt><trkpt lat="38.8475376" lon="20.7098531"><ele>1.0</ele><time>2026-05-02T08:58:34.784Z</time></trkpt><trkpt lat="38.8475066" lon="20.7101202"><ele>1.0</ele><time>2026-05-02T08:58:35.785Z</time></trkpt><trkpt lat="38.8474707" lon="20.7103833"><ele>1.0</ele><time>2026-05-02T08:58:36.784Z</time></trkpt><trkpt lat="38.8474323" lon="20.7106465"><ele>1.0</ele><time>2026-05-02T08:58:37.785Z</time></trkpt><trkpt lat="38.8473865" lon="20.710907"><ele>1.0</ele><time>2026-05-02T08:58:38.785Z</time></trkpt><trkpt lat="38.8473487" lon="20.7111652"><ele>1.0</ele><time>2026-05-02T08:58:39.785Z</time></trkpt><trkpt lat="38.8473075" lon="20.7114189"><ele>0.6666666666666666</ele><time>2026-05-02T08:58:40.785Z</time></trkpt><trkpt lat="38.8472671" lon="20.71167"><ele>0.3333333333333333</ele><time>2026-05-02T08:58:41.784Z</time></trkpt><trkpt lat="38.8472227" lon="20.7119174"><ele>0.0</ele><time>2026-05-02T08:58:42.784Z</time></trkpt><trkpt lat="38.847173" lon="20.7121487"><ele>0.0</ele><time>2026-05-02T08:58:43.785Z</time></trkpt><trkpt lat="38.8471162" lon="20.7123656"><ele>0.0</ele><time>2026-05-02T08:58:44.785Z</time></trkpt><trkpt lat="38.8470545" lon="20.7125824"><ele>0.0</ele><time>2026-05-02T08:58:45.785Z</time></trkpt><trkpt lat="38.8469914" lon="20.7127884"><ele>0.0</ele><time>2026-05-02T08:58:46.785Z</time></trkpt><trkpt lat="38.846925" lon="20.7129995"><ele>0.0</ele><time>2026-05-02T08:58:47.784Z</time></trkpt><trkpt lat="38.8468599" lon="20.7132084"><ele>0.0</ele><time>2026-05-02T08:58:48.785Z</time></trkpt><trkpt lat="38.846792" lon="20.7134149"><ele>0.0</ele><time>2026-05-02T08:58:49.784Z</time></trkpt><trkpt lat="38.8467274" lon="20.7136181"><ele>0.0</ele><time>2026-05-02T08:58:50.784Z</time></trkpt><trkpt lat="38.846664" lon="20.7138141"><ele>0.0</ele><time>2026-05-02T08:58:51.785Z</time></trkpt><trkpt lat="38.8465996" lon="20.7140124"><ele>0.0</ele><time>2026-05-02T08:58:52.784Z</time></trkpt><trkpt lat="38.8465363" lon="20.7142059"><ele>0.0</ele><time>2026-05-02T08:58:53.785Z</time></trkpt><trkpt lat="38.8464724" lon="20.7143939"><ele>0.0</ele><time>2026-05-02T08:58:54.785Z</time></trkpt><trkpt lat="38.8464073" lon="20.7145789"><ele>0.0</ele><time>2026-05-02T08:58:55.784Z</time></trkpt><trkpt lat="38.8463418" lon="20.7147663"><ele>0.0</ele><time>2026-05-02T08:58:56.785Z</time></trkpt><trkpt lat="38.8462706" lon="20.714946"><ele>0.0</ele><time>2026-05-02T08:58:57.784Z</time></trkpt><trkpt lat="38.8461954" lon="20.7151256"><ele>-1.0</ele><time>2026-05-02T08:58:58.784Z</time></trkpt><trkpt lat="38.8461165" lon="20.7153084"><ele>-2.0</ele><time>2026-05-02T08:58:59.784Z</time></trkpt><trkpt lat="38.8460408" lon="20.7154983"><ele>-3.0</ele><time>2026-05-02T08:59:00.785Z</time></trkpt><trkpt lat="38.8459619" lon="20.7156916"><ele>-2.3333333333333335</ele><time>2026-05-02T08:59:01.785Z</time></trkpt><trkpt lat="38.8458837" lon="20.7158859"><ele>-1.6666666666666665</ele><time>2026-05-02T08:59:02.785Z</time></trkpt><trkpt lat="38.845803" lon="20.716086"><ele>-1.0</ele><time>2026-05-02T08:59:03.784Z</time></trkpt><trkpt lat="38.8457166" lon="20.7162866"><ele>-0.6666666666666666</ele><time>2026-05-02T08:59:04.784Z</time></trkpt><trkpt lat="38.8456337" lon="20.7164863"><ele>-0.3333333333333333</ele><time>2026-05-02T08:59:05.785Z</time></trkpt><trkpt lat="38.8455525" lon="20.7166883"><ele>0.0</ele><time>2026-05-02T08:59:06.784Z</time></trkpt><trkpt lat="38.8454726" lon="20.7168735"><ele>0.5</ele><time>2026-05-02T08:59:07.785Z</time></trkpt><trkpt lat="38.8453959" lon="20.7170538"><ele>1.0</ele><time>2026-05-02T08:59:08.785Z</time></trkpt><trkpt lat="38.8453292" lon="20.7171964"><ele>1.5</ele><time>2026-05-02T08:59:09.784Z</time></trkpt><trkpt lat="38.8452607" lon="20.7173257"><ele>2.0</ele><time>2026-05-02T08:59:10.784Z</time></trkpt><trkpt lat="38.8451915" lon="20.717432"><ele>1.9999999999999998</ele><time>2026-05-02T08:59:11.785Z</time></trkpt><trkpt lat="38.8451342" lon="20.7174974"><ele>2.0</ele><time>2026-05-02T08:59:12.784Z</time></trkpt><trkpt lat="38.8450767" lon="20.7175449"><ele>2.0</ele><time>2026-05-02T08:59:13.785Z</time></trkpt><trkpt lat="38.8449734" lon="20.7175953"><ele>2.0</ele><time>2026-05-02T08:59:15.784Z</time></trkpt><trkpt lat="38.8448912" lon="20.7176152"><ele>1.9999999999999998</ele><time>2026-05-02T08:59:17.784Z</time></trkpt><trkpt lat="38.8448043" lon="20.7176123"><ele>2.0</ele><time>2026-05-02T08:59:19.784Z</time></trkpt><trkpt lat="38.8447126" lon="20.7175993"><ele>1.6666666666666665</ele><time>2026-05-02T08:59:21.784Z</time></trkpt><trkpt lat="38.8446234" lon="20.7175754"><ele>1.3333333333333333</ele><time>2026-05-02T08:59:23.785Z</time></trkpt><trkpt lat="38.844549" lon="20.7176022"><ele>1.0</ele><time>2026-05-02T08:59:25.785Z</time></trkpt><trkpt lat="38.8445051" lon="20.7176858"><ele>0.6666666666666666</ele><time>2026-05-02T08:59:28.785Z</time></trkpt><trkpt lat="38.8444836" lon="20.7178043"><ele>0.3333333333333333</ele><time>2026-05-02T08:59:31.785Z</time></trkpt><trkpt lat="38.84447" lon="20.7179172"><ele>0.0</ele><time>2026-05-02T08:59:33.785Z</time></trkpt><trkpt lat="38.8444527" lon="20.7180632"><ele>-0.2</ele><time>2026-05-02T08:59:35.784Z</time></trkpt><trkpt lat="38.8444434" lon="20.7181978"><ele>-0.4</ele><time>2026-05-02T08:59:37.785Z</time></trkpt><trkpt lat="38.844423" lon="20.7183574"><ele>-0.6000000000000001</ele><time>2026-05-02T08:59:39.784Z</time></trkpt><trkpt lat="38.8444124" lon="20.7184428"><ele>-0.8</ele><time>2026-05-02T08:59:40.785Z</time></trkpt><trkpt lat="38.8443948" lon="20.7185329"><ele>-1.0</ele><time>2026-05-02T08:59:41.784Z</time></trkpt><trkpt lat="38.8443696" lon="20.7186352"><ele>-0.6000000000000001</ele><time>2026-05-02T08:59:42.785Z</time></trkpt><trkpt lat="38.8443328" lon="20.7187436"><ele>-0.20000000000000007</ele><time>2026-05-02T08:59:43.785Z</time></trkpt><trkpt lat="38.8442819" lon="20.7188583"><ele>0.20000000000000007</ele><time>2026-05-02T08:59:44.785Z</time></trkpt><trkpt lat="38.8442102" lon="20.7189871"><ele>0.6000000000000001</ele><time>2026-05-02T08:59:45.785Z</time></trkpt><trkpt lat="38.8441362" lon="20.7191218"><ele>1.0</ele><time>2026-05-02T08:59:46.784Z</time></trkpt><trkpt lat="38.8440618" lon="20.7192549"><ele>1.25</ele><time>2026-05-02T08:59:47.784Z</time></trkpt><trkpt lat="38.84398" lon="20.7193841"><ele>1.5</ele><time>2026-05-02T08:59:48.784Z</time></trkpt><trkpt lat="38.8438999" lon="20.7195143"><ele>1.75</ele><time>2026-05-02T08:59:49.785Z</time></trkpt><trkpt lat="38.8438215" lon="20.7196469"><ele>2.0</ele><time>2026-05-02T08:59:50.784Z</time></trkpt><trkpt lat="38.8437424" lon="20.719769"><ele>2.0</ele><time>2026-05-02T08:59:51.784Z</time></trkpt><trkpt lat="38.8436631" lon="20.7198992"><ele>2.0</ele><time>2026-05-02T08:59:52.784Z</time></trkpt><trkpt lat="38.8435846" lon="20.7200243"><ele>2.0</ele><time>2026-05-02T08:59:53.785Z</time></trkpt><trkpt lat="38.843503" lon="20.7201458"><ele>2.0</ele><time>2026-05-02T08:59:54.785Z</time></trkpt><trkpt lat="38.8434238" lon="20.720272"><ele>2.25</ele><time>2026-05-02T08:59:55.785Z</time></trkpt><trkpt lat="38.8433446" lon="20.720396"><ele>2.5</ele><time>2026-05-02T08:59:56.785Z</time></trkpt><trkpt lat="38.8432706" lon="20.7205147"><ele>2.75</ele><time>2026-05-02T08:59:57.784Z</time></trkpt><trkpt lat="38.8432027" lon="20.7206274"><ele>3.0</ele><time>2026-05-02T08:59:58.784Z</time></trkpt><trkpt lat="38.8431399" lon="20.7207375"><ele>3.0</ele><time>2026-05-02T08:59:59.784Z</time></trkpt><trkpt lat="38.8430796" lon="20.7208524"><ele>3.0</ele><time>2026-05-02T09:00:00.784Z</time></trkpt><trkpt lat="38.8430271" lon="20.7209744"><ele>3.0</ele><time>2026-05-02T09:00:01.785Z</time></trkpt><trkpt lat="38.8429873" lon="20.7211026"><ele>3.0</ele><time>2026-05-02T09:00:02.784Z</time></trkpt><trkpt lat="38.8429615" lon="20.7212562"><ele>3.0</ele><time>2026-05-02T09:00:03.784Z</time></trkpt><trkpt lat="38.8429571" lon="20.7214193"><ele>3.0</ele><time>2026-05-02T09:00:04.785Z</time></trkpt><trkpt lat="38.8429761" lon="20.7215864"><ele>3.0</ele><time>2026-05-02T09:00:05.784Z</time></trkpt><trkpt lat="38.8430189" lon="20.7217596"><ele>3.0</ele><time>2026-05-02T09:00:06.785Z</time></trkpt><trkpt lat="38.843068" lon="20.7219533"><ele>3.0</ele><time>2026-05-02T09:00:07.785Z</time></trkpt><trkpt lat="38.8431091" lon="20.7221529"><ele>3.333333333333333</ele><time>2026-05-02T09:00:08.784Z</time></trkpt><trkpt lat="38.8431607" lon="20.7223522"><ele>3.6666666666666665</ele><time>2026-05-02T09:00:09.784Z</time></trkpt><trkpt lat="38.8432063" lon="20.7225552"><ele>4.0</ele><time>2026-05-02T09:00:10.784Z</time></trkpt><trkpt lat="38.8432581" lon="20.7227541"><ele>4.0</ele><time>2026-05-02T09:00:11.784Z</time></trkpt><trkpt lat="38.8433123" lon="20.7229624"><ele>4.0</ele><time>2026-05-02T09:00:12.785Z</time></trkpt><trkpt lat="38.8433669" lon="20.723179"><ele>4.0</ele><time>2026-05-02T09:00:13.784Z</time></trkpt><trkpt lat="38.8434215" lon="20.7233933"><ele>2.6666666666666665</ele><time>2026-05-02T09:00:14.785Z</time></trkpt><trkpt lat="38.8434779" lon="20.7236123"><ele>1.3333333333333333</ele><time>2026-05-02T09:00:15.785Z</time></trkpt><trkpt lat="38.8435355" lon="20.7238363"><ele>0.0</ele><time>2026-05-02T09:00:16.785Z</time></trkpt><trkpt lat="38.8435912" lon="20.7240616"><ele>0.0</ele><time>2026-05-02T09:00:17.785Z</time></trkpt><trkpt lat="38.8436473" lon="20.7242848"><ele>0.0</ele><time>2026-05-02T09:00:18.784Z</time></trkpt><trkpt lat="38.8437055" lon="20.7245102"><ele>0.0</ele><time>2026-05-02T09:00:19.785Z</time></trkpt><trkpt lat="38.8437624" lon="20.7247389"><ele>0.3333333333333333</ele><time>2026-05-02T09:00:20.785Z</time></trkpt><trkpt lat="38.8438181" lon="20.7249715"><ele>0.6666666666666666</ele><time>2026-05-02T09:00:21.784Z</time></trkpt><trkpt lat="38.8438753" lon="20.7252001"><ele>1.0</ele><time>2026-05-02T09:00:22.784Z</time></trkpt><trkpt lat="38.8439344" lon="20.7254338"><ele>1.0</ele><time>2026-05-02T09:00:23.785Z</time></trkpt><trkpt lat="38.8439906" lon="20.7256658"><ele>1.0</ele><time>2026-05-02T09:00:24.785Z</time></trkpt><trkpt lat="38.8440482" lon="20.725901"><ele>1.0</ele><time>2026-05-02T09:00:25.785Z</time></trkpt><trkpt lat="38.8441064" lon="20.7261416"><ele>0.6666666666666666</ele><time>2026-05-02T09:00:26.784Z</time></trkpt><trkpt lat="38.844167" lon="20.7263915"><ele>0.3333333333333333</ele><time>2026-05-02T09:00:27.784Z</time></trkpt><trkpt lat="38.844228" lon="20.7266397"><ele>0.0</ele><time>2026-05-02T09:00:28.784Z</time></trkpt><trkpt lat="38.8442905" lon="20.7268881"><ele>-0.3333333333333333</ele><time>2026-05-02T09:00:29.785Z</time></trkpt><trkpt lat="38.8443527" lon="20.7271406"><ele>-0.6666666666666666</ele><time>2026-05-02T09:00:30.785Z</time></trkpt><trkpt lat="38.8444198" lon="20.7273935"><ele>-1.0</ele><time>2026-05-02T09:00:31.784Z</time></trkpt><trkpt lat="38.8444878" lon="20.7276543"><ele>-2.0</ele><time>2026-05-02T09:00:32.785Z</time></trkpt><trkpt lat="38.8445565" lon="20.7279161"><ele>-3.0</ele><time>2026-05-02T09:00:33.785Z</time></trkpt><trkpt lat="38.8446223" lon="20.7281891"><ele>-4.0</ele><time>2026-05-02T09:00:34.784Z</time></trkpt><trkpt lat="38.8446919" lon="20.7284618"><ele>-3.0</ele><time>2026-05-02T09:00:35.785Z</time></trkpt><trkpt lat="38.8447581" lon="20.7287357"><ele>-2.0</ele><time>2026-05-02T09:00:36.785Z</time></trkpt><trkpt lat="38.8448257" lon="20.7290007"><ele>-1.0</ele><time>2026-05-02T09:00:37.784Z</time></trkpt><trkpt lat="38.844891" lon="20.7292722"><ele>-0.6666666666666666</ele><time>2026-05-02T09:00:38.784Z</time></trkpt><trkpt lat="38.8449611" lon="20.7295429"><ele>-0.3333333333333333</ele><time>2026-05-02T09:00:39.784Z</time></trkpt><trkpt lat="38.8450321" lon="20.729813"><ele>0.0</ele><time>2026-05-02T09:00:40.785Z</time></trkpt><trkpt lat="38.845101" lon="20.7300744"><ele>0.0</ele><time>2026-05-02T09:00:41.784Z</time></trkpt><trkpt lat="38.8451662" lon="20.730338"><ele>0.0</ele><time>2026-05-02T09:00:42.784Z</time></trkpt><trkpt lat="38.8452296" lon="20.7306064"><ele>0.0</ele><time>2026-05-02T09:00:43.785Z</time></trkpt><trkpt lat="38.8452946" lon="20.7308578"><ele>0.0</ele><time>2026-05-02T09:00:44.785Z</time></trkpt><trkpt lat="38.845355" lon="20.7311168"><ele>0.0</ele><time>2026-05-02T09:00:45.785Z</time></trkpt><trkpt lat="38.8454165" lon="20.7313742"><ele>0.0</ele><time>2026-05-02T09:00:46.784Z</time></trkpt><trkpt lat="38.8454797" lon="20.7316261"><ele>0.0</ele><time>2026-05-02T09:00:47.785Z</time></trkpt><trkpt lat="38.8455373" lon="20.731871"><ele>0.0</ele><time>2026-05-02T09:00:48.785Z</time></trkpt><trkpt lat="38.8455982" lon="20.7321162"><ele>0.0</ele><time>2026-05-02T09:00:49.784Z</time></trkpt><trkpt lat="38.8456605" lon="20.7323666"><ele>0.0</ele><time>2026-05-02T09:00:50.784Z</time></trkpt><trkpt lat="38.8457302" lon="20.7326163"><ele>0.0</ele><time>2026-05-02T09:00:51.784Z</time></trkpt><trkpt lat="38.8458003" lon="20.7328683"><ele>0.0</ele><time>2026-05-02T09:00:52.785Z</time></trkpt><trkpt lat="38.8458738" lon="20.7331249"><ele>0.3333333333333333</ele><time>2026-05-02T09:00:53.784Z</time></trkpt><trkpt lat="38.845955" lon="20.7333816"><ele>0.6666666666666666</ele><time>2026-05-02T09:00:54.784Z</time></trkpt><trkpt lat="38.8460415" lon="20.7336407"><ele>1.0</ele><time>2026-05-02T09:00:55.785Z</time></trkpt><trkpt lat="38.8461275" lon="20.7339011"><ele>1.0</ele><time>2026-05-02T09:00:56.784Z</time></trkpt><trkpt lat="38.8462165" lon="20.734157"><ele>1.0</ele><time>2026-05-02T09:00:57.784Z</time></trkpt><trkpt lat="38.8463027" lon="20.734419"><ele>1.0</ele><time>2026-05-02T09:00:58.785Z</time></trkpt><trkpt lat="38.8463936" lon="20.7346792"><ele>1.0</ele><time>2026-05-02T09:00:59.785Z</time></trkpt><trkpt lat="38.8464897" lon="20.7349356"><ele>1.0</ele><time>2026-05-02T09:01:00.784Z</time></trkpt><trkpt lat="38.8465891" lon="20.7351849"><ele>1.0</ele><time>2026-05-02T09:01:01.784Z</time></trkpt><trkpt lat="38.8466914" lon="20.7354394"><ele>-0.5</ele><time>2026-05-02T09:01:02.785Z</time></trkpt><trkpt lat="38.8467946" lon="20.7356939"><ele>-2.0</ele><time>2026-05-02T09:01:03.785Z</time></trkpt><trkpt lat="38.8469038" lon="20.7359504"><ele>-1.3333333333333333</ele><time>2026-05-02T09:01:04.784Z</time></trkpt><trkpt lat="38.8470094" lon="20.7361986"><ele>-0.6666666666666666</ele><time>2026-05-02T09:01:05.784Z</time></trkpt><trkpt lat="38.8471162" lon="20.7364388"><ele>0.0</ele><time>2026-05-02T09:01:06.785Z</time></trkpt><trkpt lat="38.8472196" lon="20.7366622"><ele>0.0</ele><time>2026-05-02T09:01:07.784Z</time></trkpt><trkpt lat="38.8473165" lon="20.7368841"><ele>0.0</ele><time>2026-05-02T09:01:08.785Z</time></trkpt><trkpt lat="38.8474124" lon="20.7370972"><ele>0.0</ele><time>2026-05-02T09:01:09.784Z</time></trkpt><trkpt lat="38.8475046" lon="20.7373101"><ele>0.0</ele><time>2026-05-02T09:01:10.785Z</time></trkpt><trkpt lat="38.8476024" lon="20.7375265"><ele>0.0</ele><time>2026-05-02T09:01:11.785Z</time></trkpt><trkpt lat="38.8476924" lon="20.7377407"><ele>0.0</ele><time>2026-05-02T09:01:12.784Z</time></trkpt><trkpt lat="38.847787" lon="20.7379565"><ele>0.0</ele><time>2026-05-02T09:01:13.785Z</time></trkpt><trkpt lat="38.84788" lon="20.7381682"><ele>0.0</ele><time>2026-05-02T09:01:14.784Z</time></trkpt><trkpt lat="38.84798" lon="20.7383795"><ele>0.0</ele><time>2026-05-02T09:01:15.784Z</time></trkpt><trkpt lat="38.8480704" lon="20.7385855"><ele>0.6666666666666666</ele><time>2026-05-02T09:01:16.784Z</time></trkpt><trkpt lat="38.8481626" lon="20.7387897"><ele>1.3333333333333333</ele><time>2026-05-02T09:01:17.785Z</time></trkpt><trkpt lat="38.8482501" lon="20.7389952"><ele>2.0</ele><time>2026-05-02T09:01:18.785Z</time></trkpt><trkpt lat="38.848348" lon="20.7391994"><ele>2.333333333333333</ele><time>2026-05-02T09:01:19.785Z</time></trkpt><trkpt lat="38.8484407" lon="20.7393978"><ele>2.6666666666666665</ele><time>2026-05-02T09:01:20.784Z</time></trkpt><trkpt lat="38.8485358" lon="20.7395958"><ele>3.0</ele><time>2026-05-02T09:01:21.785Z</time></trkpt><trkpt lat="38.8486333" lon="20.7397974"><ele>2.3333333333333335</ele><time>2026-05-02T09:01:22.784Z</time></trkpt><trkpt lat="38.8487353" lon="20.740002"><ele>1.6666666666666665</ele><time>2026-05-02T09:01:23.785Z</time></trkpt><trkpt lat="38.848829" lon="20.7402163"><ele>1.0</ele><time>2026-05-02T09:01:24.784Z</time></trkpt><trkpt lat="38.8489196" lon="20.7404228"><ele>1.0</ele><time>2026-05-02T09:01:25.784Z</time></trkpt><trkpt lat="38.8490175" lon="20.7406342"><ele>1.0</ele><time>2026-05-02T09:01:26.785Z</time></trkpt><trkpt lat="38.8491119" lon="20.7408472"><ele>1.0</ele><time>2026-05-02T09:01:27.784Z</time></trkpt><trkpt lat="38.8492141" lon="20.7410619"><ele>0.3333333333333333</ele><time>2026-05-02T09:01:28.784Z</time></trkpt><trkpt lat="38.8493122" lon="20.7412775"><ele>-0.3333333333333333</ele><time>2026-05-02T09:01:29.785Z</time></trkpt><trkpt lat="38.8494079" lon="20.7414983"><ele>-1.0</ele><time>2026-05-02T09:01:30.784Z</time></trkpt><trkpt lat="38.8495071" lon="20.741714"><ele>-1.0</ele><time>2026-05-02T09:01:31.784Z</time></trkpt><trkpt lat="38.8496002" lon="20.7419316"><ele>-1.0</ele><time>2026-05-02T09:01:32.784Z</time></trkpt><trkpt lat="38.849698" lon="20.7421495"><ele>-1.0</ele><time>2026-05-02T09:01:33.785Z</time></trkpt><trkpt lat="38.8497991" lon="20.7423636"><ele>-1.0</ele><time>2026-05-02T09:01:34.784Z</time></trkpt><trkpt lat="38.8499014" lon="20.7425787"><ele>-1.0</ele><time>2026-05-02T09:01:35.784Z</time></trkpt><trkpt lat="38.8500019" lon="20.7427971"><ele>-1.0</ele><time>2026-05-02T09:01:36.785Z</time></trkpt><trkpt lat="38.8501063" lon="20.7430131"><ele>-0.6666666666666666</ele><time>2026-05-02T09:01:37.785Z</time></trkpt><trkpt lat="38.850212" lon="20.743233"><ele>-0.3333333333333333</ele><time>2026-05-02T09:01:38.785Z</time></trkpt><trkpt lat="38.8503106" lon="20.7434529"><ele>0.0</ele><time>2026-05-02T09:01:39.785Z</time></trkpt><trkpt lat="38.8504119" lon="20.7436761"><ele>0.6666666666666666</ele><time>2026-05-02T09:01:40.785Z</time></trkpt><trkpt lat="38.8505182" lon="20.7439015"><ele>1.3333333333333333</ele><time>2026-05-02T09:01:41.785Z</time></trkpt><trkpt lat="38.8506225" lon="20.7441259"><ele>2.0</ele><time>2026-05-02T09:01:42.784Z</time></trkpt><trkpt lat="38.8507303" lon="20.7443586"><ele>1.6666666666666665</ele><time>2026-05-02T09:01:43.785Z</time></trkpt><trkpt lat="38.8508381" lon="20.7445776"><ele>1.3333333333333333</ele><time>2026-05-02T09:01:44.785Z</time></trkpt><trkpt lat="38.850951" lon="20.7447988"><ele>1.0</ele><time>2026-05-02T09:01:45.784Z</time></trkpt><trkpt lat="38.8510812" lon="20.7450132"><ele>5.0</ele><time>2026-05-02T09:01:46.785Z</time></trkpt><trkpt lat="38.8512014" lon="20.7452173"><ele>9.0</ele><time>2026-05-02T09:01:47.784Z</time></trkpt><trkpt lat="38.8513311" lon="20.7454265"><ele>13.0</ele><time>2026-05-02T09:01:48.785Z</time></trkpt><trkpt lat="38.8514596" lon="20.745622"><ele>13.0</ele><time>2026-05-02T09:01:49.785Z</time></trkpt><trkpt lat="38.8515918" lon="20.745836"><ele>13.0</ele><time>2026-05-02T09:01:50.784Z</time></trkpt><trkpt lat="38.8517293" lon="20.746028"><ele>13.0</ele><time>2026-05-02T09:01:51.785Z</time></trkpt><trkpt lat="38.8518644" lon="20.7462165"><ele>10.333333333333332</ele><time>2026-05-02T09:01:52.785Z</time></trkpt><trkpt lat="38.8520067" lon="20.746433"><ele>7.666666666666666</ele><time>2026-05-02T09:01:53.784Z</time></trkpt><trkpt lat="38.8521504" lon="20.7466136"><ele>5.0</ele><time>2026-05-02T09:01:54.784Z</time></trkpt><trkpt lat="38.8522925" lon="20.7467919"><ele>5.0</ele><time>2026-05-02T09:01:55.785Z</time></trkpt><trkpt lat="38.8524267" lon="20.7469625"><ele>5.0</ele><time>2026-05-02T09:01:56.785Z</time></trkpt><trkpt lat="38.8525696" lon="20.7471358"><ele>5.0</ele><time>2026-05-02T09:01:57.784Z</time></trkpt><trkpt lat="38.8527156" lon="20.7472946"><ele>5.0</ele><time>2026-05-02T09:01:58.784Z</time></trkpt><trkpt lat="38.8528638" lon="20.7474513"><ele>5.0</ele><time>2026-05-02T09:01:59.785Z</time></trkpt><trkpt lat="38.85302" lon="20.7475942"><ele>5.0</ele><time>2026-05-02T09:02:00.784Z</time></trkpt><trkpt lat="38.8531783" lon="20.7477194"><ele>8.0</ele><time>2026-05-02T09:02:01.784Z</time></trkpt><trkpt lat="38.8533371" lon="20.747837"><ele>11.0</ele><time>2026-05-02T09:02:02.784Z</time></trkpt><trkpt lat="38.8535059" lon="20.7479472"><ele>14.0</ele><time>2026-05-02T09:02:03.785Z</time></trkpt><trkpt lat="38.8536752" lon="20.7480459"><ele>14.0</ele><time>2026-05-02T09:02:04.784Z</time></trkpt><trkpt lat="38.8538483" lon="20.748134"><ele>14.0</ele><time>2026-05-02T09:02:05.784Z</time></trkpt><trkpt lat="38.8540248" lon="20.7482155"><ele>14.0</ele><time>2026-05-02T09:02:06.784Z</time></trkpt><trkpt lat="38.8541985" lon="20.7482923"><ele>10.333333333333334</ele><time>2026-05-02T09:02:07.784Z</time></trkpt><trkpt lat="38.854376" lon="20.7483684"><ele>6.666666666666667</ele><time>2026-05-02T09:02:08.784Z</time></trkpt><trkpt lat="38.8545572" lon="20.7484606"><ele>3.0</ele><time>2026-05-02T09:02:09.785Z</time></trkpt><trkpt lat="38.8547288" lon="20.7485517"><ele>4.0</ele><time>2026-05-02T09:02:10.785Z</time></trkpt><trkpt lat="38.8548953" lon="20.7486556"><ele>5.0</ele><time>2026-05-02T09:02:11.785Z</time></trkpt><trkpt lat="38.8550558" lon="20.7487619"><ele>6.0</ele><time>2026-05-02T09:02:12.784Z</time></trkpt><trkpt lat="38.8552158" lon="20.7488875"><ele>6.0</ele><time>2026-05-02T09:02:13.784Z</time></trkpt><trkpt lat="38.8553662" lon="20.7490245"><ele>6.0</ele><time>2026-05-02T09:02:14.785Z</time></trkpt><trkpt lat="38.8555119" lon="20.7491943"><ele>6.0</ele><time>2026-05-02T09:02:15.784Z</time></trkpt><trkpt lat="38.8556573" lon="20.7493507"><ele>7.0</ele><time>2026-05-02T09:02:16.785Z</time></trkpt><trkpt lat="38.8558097" lon="20.7495242"><ele>8.0</ele><time>2026-05-02T09:02:17.785Z</time></trkpt><trkpt lat="38.8559541" lon="20.74969"><ele>9.0</ele><time>2026-05-02T09:02:18.785Z</time></trkpt><trkpt lat="38.8561023" lon="20.7498561"><ele>9.0</ele><time>2026-05-02T09:02:19.784Z</time></trkpt><trkpt lat="38.8562511" lon="20.750024"><ele>9.0</ele><time>2026-05-02T09:02:20.785Z</time></trkpt><trkpt lat="38.8563828" lon="20.7502039"><ele>9.0</ele><time>2026-05-02T09:02:21.784Z</time></trkpt><trkpt lat="38.85653" lon="20.7503731"><ele>7.666666666666667</ele><time>2026-05-02T09:02:22.785Z</time></trkpt><trkpt lat="38.856679" lon="20.7505438"><ele>6.333333333333334</ele><time>2026-05-02T09:02:23.785Z</time></trkpt><trkpt lat="38.8568173" lon="20.7507377"><ele>5.0</ele><time>2026-05-02T09:02:24.785Z</time></trkpt><trkpt lat="38.8569603" lon="20.7509063"><ele>11.666666666666668</ele><time>2026-05-02T09:02:25.784Z</time></trkpt><trkpt lat="38.8571022" lon="20.7510722"><ele>18.333333333333336</ele><time>2026-05-02T09:02:26.784Z</time></trkpt><trkpt lat="38.8572446" lon="20.7512426"><ele>25.0</ele><time>2026-05-02T09:02:27.784Z</time></trkpt><trkpt lat="38.8573921" lon="20.7514364"><ele>25.0</ele><time>2026-05-02T09:02:28.784Z</time></trkpt><trkpt lat="38.8575204" lon="20.7516008"><ele>25.0</ele><time>2026-05-02T09:02:29.785Z</time></trkpt><trkpt lat="38.8576337" lon="20.7517594"><ele>25.0</ele><time>2026-05-02T09:02:30.784Z</time></trkpt><trkpt lat="38.8577625" lon="20.7519329"><ele>20.666666666666668</ele><time>2026-05-02T09:02:31.784Z</time></trkpt><trkpt lat="38.8578882" lon="20.7521076"><ele>16.333333333333336</ele><time>2026-05-02T09:02:32.785Z</time></trkpt><trkpt lat="38.8580079" lon="20.7522761"><ele>12.0</ele><time>2026-05-02T09:02:33.784Z</time></trkpt><trkpt lat="38.8581317" lon="20.7524792"><ele>12.0</ele><time>2026-05-02T09:02:34.785Z</time></trkpt><trkpt lat="38.8582546" lon="20.7526708"><ele>12.0</ele><time>2026-05-02T09:02:35.785Z</time></trkpt><trkpt lat="38.8583739" lon="20.7528447"><ele>12.0</ele><time>2026-05-02T09:02:36.784Z</time></trkpt><trkpt lat="38.8584944" lon="20.7530349"><ele>9.666666666666666</ele><time>2026-05-02T09:02:37.785Z</time></trkpt><trkpt lat="38.8586166" lon="20.7532393"><ele>7.333333333333334</ele><time>2026-05-02T09:02:38.784Z</time></trkpt><trkpt lat="38.8587369" lon="20.7534348"><ele>5.0</ele><time>2026-05-02T09:02:39.784Z</time></trkpt><trkpt lat="38.8588585" lon="20.7536152"><ele>10.666666666666666</ele><time>2026-05-02T09:02:40.785Z</time></trkpt><trkpt lat="38.8589742" lon="20.7538031"><ele>16.333333333333332</ele><time>2026-05-02T09:02:41.785Z</time></trkpt><trkpt lat="38.8590891" lon="20.7539882"><ele>22.0</ele><time>2026-05-02T09:02:42.785Z</time></trkpt><trkpt lat="38.8592058" lon="20.754169"><ele>17.0</ele><time>2026-05-02T09:02:43.784Z</time></trkpt><trkpt lat="38.8593195" lon="20.7543504"><ele>12.0</ele><time>2026-05-02T09:02:44.785Z</time></trkpt><trkpt lat="38.859444" lon="20.7545453"><ele>7.0</ele><time>2026-05-02T09:02:45.785Z</time></trkpt><trkpt lat="38.8595646" lon="20.7547405"><ele>7.0</ele><time>2026-05-02T09:02:46.785Z</time></trkpt><trkpt lat="38.85969" lon="20.7549456"><ele>7.0</ele><time>2026-05-02T09:02:47.785Z</time></trkpt><trkpt lat="38.8598009" lon="20.7551308"><ele>7.0</ele><time>2026-05-02T09:02:48.784Z</time></trkpt><trkpt lat="38.8599199" lon="20.7553279"><ele>5.0</ele><time>2026-05-02T09:02:49.785Z</time></trkpt><trkpt lat="38.8600371" lon="20.7555273"><ele>3.0</ele><time>2026-05-02T09:02:50.785Z</time></trkpt><trkpt lat="38.8601476" lon="20.7557316"><ele>1.0</ele><time>2026-05-02T09:02:51.785Z</time></trkpt><trkpt lat="38.8602483" lon="20.7559435"><ele>2.3333333333333335</ele><time>2026-05-02T09:02:52.785Z</time></trkpt><trkpt lat="38.8603322" lon="20.7561547"><ele>3.666666666666667</ele><time>2026-05-02T09:02:53.784Z</time></trkpt><trkpt lat="38.8604102" lon="20.7563791"><ele>5.0</ele><time>2026-05-02T09:02:54.784Z</time></trkpt><trkpt lat="38.8604834" lon="20.7566033"><ele>5.0</ele><time>2026-05-02T09:02:55.784Z</time></trkpt><trkpt lat="38.8605528" lon="20.75684"><ele>5.0</ele><time>2026-05-02T09:02:56.785Z</time></trkpt><trkpt lat="38.8605957" lon="20.7570907"><ele>5.0</ele><time>2026-05-02T09:02:57.785Z</time></trkpt><trkpt lat="38.8606362" lon="20.7573411"><ele>6.333333333333334</ele><time>2026-05-02T09:02:58.785Z</time></trkpt><trkpt lat="38.8606748" lon="20.7575895"><ele>7.666666666666667</ele><time>2026-05-02T09:02:59.784Z</time></trkpt><trkpt lat="38.8607236" lon="20.7578297"><ele>9.0</ele><time>2026-05-02T09:03:00.784Z</time></trkpt><trkpt lat="38.8607695" lon="20.7580639"><ele>12.333333333333332</ele><time>2026-05-02T09:03:01.784Z</time></trkpt><trkpt lat="38.860814" lon="20.7582927"><ele>15.666666666666666</ele><time>2026-05-02T09:03:02.785Z</time></trkpt><trkpt lat="38.8608654" lon="20.7585211"><ele>19.0</ele><time>2026-05-02T09:03:03.785Z</time></trkpt><trkpt lat="38.8609179" lon="20.7587489"><ele>15.0</ele><time>2026-05-02T09:03:04.785Z</time></trkpt><trkpt lat="38.8609753" lon="20.7589741"><ele>11.0</ele><time>2026-05-02T09:03:05.784Z</time></trkpt><trkpt lat="38.8610375" lon="20.7591928"><ele>7.0</ele><time>2026-05-02T09:03:06.784Z</time></trkpt><trkpt lat="38.8611014" lon="20.7594076"><ele>7.0</ele><time>2026-05-02T09:03:07.784Z</time></trkpt><trkpt lat="38.8611667" lon="20.7596283"><ele>7.0</ele><time>2026-05-02T09:03:08.785Z</time></trkpt><trkpt lat="38.8612383" lon="20.7598432"><ele>7.0</ele><time>2026-05-02T09:03:09.785Z</time></trkpt><trkpt lat="38.8613165" lon="20.7600594"><ele>10.333333333333334</ele><time>2026-05-02T09:03:10.784Z</time></trkpt><trkpt lat="38.8613957" lon="20.7602852"><ele>13.666666666666668</ele><time>2026-05-02T09:03:11.784Z</time></trkpt><trkpt lat="38.861476" lon="20.7604964"><ele>17.0</ele><time>2026-05-02T09:03:12.785Z</time></trkpt><trkpt lat="38.8615581" lon="20.7607088"><ele>17.0</ele><time>2026-05-02T09:03:13.785Z</time></trkpt><trkpt lat="38.8616461" lon="20.7609254"><ele>17.0</ele><time>2026-05-02T09:03:14.784Z</time></trkpt><trkpt lat="38.8617207" lon="20.7611277"><ele>17.0</ele><time>2026-05-02T09:03:15.785Z</time></trkpt><trkpt lat="38.8617991" lon="20.7613314"><ele>14.0</ele><time>2026-05-02T09:03:16.785Z</time></trkpt><trkpt lat="38.8618785" lon="20.7615391"><ele>11.0</ele><time>2026-05-02T09:03:17.785Z</time></trkpt><trkpt lat="38.8619487" lon="20.7617459"><ele>8.0</ele><time>2026-05-02T09:03:18.785Z</time></trkpt><trkpt lat="38.8620248" lon="20.76196"><ele>8.0</ele><time>2026-05-02T09:03:19.784Z</time></trkpt><trkpt lat="38.8620957" lon="20.7621736"><ele>8.0</ele><time>2026-05-02T09:03:20.785Z</time></trkpt><trkpt lat="38.8621585" lon="20.7623948"><ele>8.0</ele><time>2026-05-02T09:03:21.785Z</time></trkpt><trkpt lat="38.862214" lon="20.7626315"><ele>9.0</ele><time>2026-05-02T09:03:22.784Z</time></trkpt><trkpt lat="38.862258" lon="20.7628592"><ele>10.0</ele><time>2026-05-02T09:03:23.785Z</time></trkpt><trkpt lat="38.8622899" lon="20.7630895"><ele>11.0</ele><time>2026-05-02T09:03:24.784Z</time></trkpt><trkpt lat="38.8623166" lon="20.7633228"><ele>11.333333333333332</ele><time>2026-05-02T09:03:25.784Z</time></trkpt><trkpt lat="38.8623413" lon="20.7635627"><ele>11.666666666666666</ele><time>2026-05-02T09:03:26.784Z</time></trkpt><trkpt lat="38.8623593" lon="20.7638047"><ele>12.0</ele><time>2026-05-02T09:03:27.785Z</time></trkpt><trkpt lat="38.8623921" lon="20.7640435"><ele>12.0</ele><time>2026-05-02T09:03:28.785Z</time></trkpt><trkpt lat="38.8624271" lon="20.7642818"><ele>12.0</ele><time>2026-05-02T09:03:29.785Z</time></trkpt><trkpt lat="38.8624766" lon="20.7645161"><ele>12.0</ele><time>2026-05-02T09:03:30.784Z</time></trkpt><trkpt lat="38.8625343" lon="20.7647419"><ele>10.333333333333334</ele><time>2026-05-02T09:03:31.785Z</time></trkpt><trkpt lat="38.8626055" lon="20.7649673"><ele>8.666666666666668</ele><time>2026-05-02T09:03:32.785Z</time></trkpt><trkpt lat="38.8626832" lon="20.7651905"><ele>7.0</ele><time>2026-05-02T09:03:33.784Z</time></trkpt><trkpt lat="38.8627619" lon="20.7654135"><ele>7.0</ele><time>2026-05-02T09:03:34.785Z</time></trkpt><trkpt lat="38.862851" lon="20.7656286"><ele>7.0</ele><time>2026-05-02T09:03:35.784Z</time></trkpt><trkpt lat="38.8629355" lon="20.7658524"><ele>7.0</ele><time>2026-05-02T09:03:36.785Z</time></trkpt><trkpt lat="38.8630192" lon="20.7660768"><ele>9.333333333333334</ele><time>2026-05-02T09:03:37.785Z</time></trkpt><trkpt lat="38.8630984" lon="20.7663035"><ele>11.666666666666668</ele><time>2026-05-02T09:03:38.784Z</time></trkpt><trkpt lat="38.8631688" lon="20.766531"><ele>14.0</ele><time>2026-05-02T09:03:39.785Z</time></trkpt><trkpt lat="38.8632297" lon="20.76677"><ele>15.0</ele><time>2026-05-02T09:03:40.785Z</time></trkpt><trkpt lat="38.863277" lon="20.7669681"><ele>16.0</ele><time>2026-05-02T09:03:41.785Z</time></trkpt><trkpt lat="38.8633207" lon="20.767209"><ele>17.0</ele><time>2026-05-02T09:03:42.785Z</time></trkpt><trkpt lat="38.863341" lon="20.767459"><ele>16.666666666666668</ele><time>2026-05-02T09:03:43.785Z</time></trkpt><trkpt lat="38.8633509" lon="20.7677007"><ele>16.333333333333332</ele><time>2026-05-02T09:03:44.784Z</time></trkpt><trkpt lat="38.8633582" lon="20.7679556"><ele>16.0</ele><time>2026-05-02T09:03:45.784Z</time></trkpt><trkpt lat="38.8633668" lon="20.7682157"><ele>16.0</ele><time>2026-05-02T09:03:46.785Z</time></trkpt><trkpt lat="38.8633629" lon="20.7684663"><ele>16.0</ele><time>2026-05-02T09:03:47.784Z</time></trkpt><trkpt lat="38.8633714" lon="20.7687311"><ele>16.0</ele><time>2026-05-02T09:03:48.785Z</time></trkpt><trkpt lat="38.8633914" lon="20.7689771"><ele>16.0</ele><time>2026-05-02T09:03:49.784Z</time></trkpt><trkpt lat="38.8634203" lon="20.7692286"><ele>16.0</ele><time>2026-05-02T09:03:50.785Z</time></trkpt><trkpt lat="38.863456" lon="20.7694736"><ele>16.0</ele><time>2026-05-02T09:03:51.785Z</time></trkpt><trkpt lat="38.8635064" lon="20.76971"><ele>13.0</ele><time>2026-05-02T09:03:52.785Z</time></trkpt><trkpt lat="38.8635634" lon="20.7699476"><ele>10.0</ele><time>2026-05-02T09:03:53.785Z</time></trkpt><trkpt lat="38.8636277" lon="20.7701823"><ele>7.0</ele><time>2026-05-02T09:03:54.784Z</time></trkpt><trkpt lat="38.8636854" lon="20.7704081"><ele>7.0</ele><time>2026-05-02T09:03:55.785Z</time></trkpt><trkpt lat="38.8637375" lon="20.7706493"><ele>7.0</ele><time>2026-05-02T09:03:56.784Z</time></trkpt><trkpt lat="38.8637796" lon="20.7708899"><ele>7.0</ele><time>2026-05-02T09:03:57.784Z</time></trkpt><trkpt lat="38.8638096" lon="20.7711346"><ele>6.666666666666667</ele><time>2026-05-02T09:03:58.785Z</time></trkpt><trkpt lat="38.8638252" lon="20.7713869"><ele>6.333333333333334</ele><time>2026-05-02T09:03:59.785Z</time></trkpt><trkpt lat="38.863834" lon="20.7716297"><ele>6.0</ele><time>2026-05-02T09:04:00.784Z</time></trkpt><trkpt lat="38.8638286" lon="20.7718602"><ele>6.0</ele><time>2026-05-02T09:04:01.785Z</time></trkpt><trkpt lat="38.8638131" lon="20.7721079"><ele>6.0</ele><time>2026-05-02T09:04:02.785Z</time></trkpt><trkpt lat="38.8637946" lon="20.7723536"><ele>6.0</ele><time>2026-05-02T09:04:03.784Z</time></trkpt><trkpt lat="38.8637799" lon="20.7725962"><ele>6.666666666666666</ele><time>2026-05-02T09:04:04.784Z</time></trkpt><trkpt lat="38.8637787" lon="20.7728375"><ele>7.333333333333333</ele><time>2026-05-02T09:04:05.784Z</time></trkpt><trkpt lat="38.8637876" lon="20.7730773"><ele>8.0</ele><time>2026-05-02T09:04:06.785Z</time></trkpt><trkpt lat="38.8638108" lon="20.7733152"><ele>9.333333333333332</ele><time>2026-05-02T09:04:07.784Z</time></trkpt><trkpt lat="38.8638459" lon="20.7735567"><ele>10.666666666666666</ele><time>2026-05-02T09:04:08.785Z</time></trkpt><trkpt lat="38.8638936" lon="20.7738004"><ele>12.0</ele><time>2026-05-02T09:04:09.785Z</time></trkpt><trkpt lat="38.8639488" lon="20.7740383"><ele>12.0</ele><time>2026-05-02T09:04:10.784Z</time></trkpt><trkpt lat="38.8640029" lon="20.7742742"><ele>12.0</ele><time>2026-05-02T09:04:11.785Z</time></trkpt><trkpt lat="38.8640579" lon="20.7745138"><ele>12.0</ele><time>2026-05-02T09:04:12.785Z</time></trkpt><trkpt lat="38.8641053" lon="20.7747574"><ele>13.666666666666668</ele><time>2026-05-02T09:04:13.784Z</time></trkpt><trkpt lat="38.8641446" lon="20.7750077"><ele>15.333333333333334</ele><time>2026-05-02T09:04:14.785Z</time></trkpt><trkpt lat="38.8641715" lon="20.7752586"><ele>17.0</ele><time>2026-05-02T09:04:15.784Z</time></trkpt><trkpt lat="38.864192" lon="20.7755017"><ele>17.333333333333336</ele><time>2026-05-02T09:04:16.784Z</time></trkpt><trkpt lat="38.8641978" lon="20.7757623"><ele>17.666666666666668</ele><time>2026-05-02T09:04:17.784Z</time></trkpt><trkpt lat="38.8641863" lon="20.7760101"><ele>18.0</ele><time>2026-05-02T09:04:18.785Z</time></trkpt><trkpt lat="38.8641686" lon="20.7762546"><ele>16.666666666666668</ele><time>2026-05-02T09:04:19.784Z</time></trkpt><trkpt lat="38.8641344" lon="20.776496"><ele>15.333333333333334</ele><time>2026-05-02T09:04:20.785Z</time></trkpt><trkpt lat="38.8640949" lon="20.7767289"><ele>14.0</ele><time>2026-05-02T09:04:21.784Z</time></trkpt><trkpt lat="38.8640444" lon="20.7769583"><ele>12.333333333333334</ele><time>2026-05-02T09:04:22.785Z</time></trkpt><trkpt lat="38.8639828" lon="20.7771753"><ele>10.666666666666668</ele><time>2026-05-02T09:04:23.784Z</time></trkpt><trkpt lat="38.8639135" lon="20.777389"><ele>9.0</ele><time>2026-05-02T09:04:24.785Z</time></trkpt><trkpt lat="38.8638347" lon="20.7776019"><ele>7.333333333333333</ele><time>2026-05-02T09:04:25.785Z</time></trkpt><trkpt lat="38.8637561" lon="20.7778115"><ele>5.666666666666666</ele><time>2026-05-02T09:04:26.784Z</time></trkpt><trkpt lat="38.8636774" lon="20.7780192"><ele>4.0</ele><time>2026-05-02T09:04:27.784Z</time></trkpt><trkpt lat="38.863605" lon="20.7782393"><ele>4.0</ele><time>2026-05-02T09:04:28.784Z</time></trkpt><trkpt lat="38.8635425" lon="20.7784658"><ele>4.0</ele><time>2026-05-02T09:04:29.784Z</time></trkpt><trkpt lat="38.8634932" lon="20.7786921"><ele>4.0</ele><time>2026-05-02T09:04:30.785Z</time></trkpt><trkpt lat="38.8634584" lon="20.7789187"><ele>9.333333333333334</ele><time>2026-05-02T09:04:31.784Z</time></trkpt><trkpt lat="38.8634292" lon="20.779151"><ele>14.666666666666668</ele><time>2026-05-02T09:04:32.785Z</time></trkpt><trkpt lat="38.8634165" lon="20.7793813"><ele>20.0</ele><time>2026-05-02T09:04:33.785Z</time></trkpt><trkpt lat="38.863414" lon="20.7796128"><ele>21.0</ele><time>2026-05-02T09:04:34.785Z</time></trkpt><trkpt lat="38.8634179" lon="20.7798447"><ele>22.0</ele><time>2026-05-02T09:04:35.785Z</time></trkpt><trkpt lat="38.8634259" lon="20.7800805"><ele>23.0</ele><time>2026-05-02T09:04:36.785Z</time></trkpt><trkpt lat="38.8634319" lon="20.780313"><ele>23.0</ele><time>2026-05-02T09:04:37.785Z</time></trkpt><trkpt lat="38.863447" lon="20.7805424"><ele>23.0</ele><time>2026-05-02T09:04:38.785Z</time></trkpt><trkpt lat="38.8634533" lon="20.7807798"><ele>23.0</ele><time>2026-05-02T09:04:39.785Z</time></trkpt><trkpt lat="38.8634551" lon="20.781022"><ele>16.333333333333336</ele><time>2026-05-02T09:04:40.785Z</time></trkpt><trkpt lat="38.8634628" lon="20.7812556"><ele>9.666666666666668</ele><time>2026-05-02T09:04:41.784Z</time></trkpt><trkpt lat="38.8634707" lon="20.7814899"><ele>3.0</ele><time>2026-05-02T09:04:42.785Z</time></trkpt><trkpt lat="38.8634747" lon="20.7817213"><ele>3.0</ele><time>2026-05-02T09:04:43.785Z</time></trkpt><trkpt lat="38.8634732" lon="20.7819579"><ele>3.0</ele><time>2026-05-02T09:04:44.784Z</time></trkpt><trkpt lat="38.8634641" lon="20.7821845"><ele>3.0</ele><time>2026-05-02T09:04:45.784Z</time></trkpt><trkpt lat="38.8634537" lon="20.7824141"><ele>7.666666666666667</ele><time>2026-05-02T09:04:46.785Z</time></trkpt><trkpt lat="38.8634439" lon="20.7826355"><ele>12.333333333333334</ele><time>2026-05-02T09:04:47.784Z</time></trkpt><trkpt lat="38.8634344" lon="20.7828579"><ele>17.0</ele><time>2026-05-02T09:04:48.784Z</time></trkpt><trkpt lat="38.86342" lon="20.7830786"><ele>17.0</ele><time>2026-05-02T09:04:49.785Z</time></trkpt><trkpt lat="38.8634062" lon="20.7832963"><ele>17.0</ele><time>2026-05-02T09:04:50.784Z</time></trkpt><trkpt lat="38.8633936" lon="20.7835168"><ele>17.0</ele><time>2026-05-02T09:04:51.785Z</time></trkpt><trkpt lat="38.8633793" lon="20.7837419"><ele>15.666666666666668</ele><time>2026-05-02T09:04:52.784Z</time></trkpt><trkpt lat="38.8633659" lon="20.7839644"><ele>14.333333333333332</ele><time>2026-05-02T09:04:53.784Z</time></trkpt><trkpt lat="38.8633526" lon="20.7841924"><ele>13.0</ele><time>2026-05-02T09:04:54.784Z</time></trkpt><trkpt lat="38.8633401" lon="20.7844165"><ele>13.0</ele><time>2026-05-02T09:04:55.784Z</time></trkpt><trkpt lat="38.8633241" lon="20.7846414"><ele>13.0</ele><time>2026-05-02T09:04:56.785Z</time></trkpt><trkpt lat="38.8633079" lon="20.7848599"><ele>13.0</ele><time>2026-05-02T09:04:57.785Z</time></trkpt><trkpt lat="38.8632918" lon="20.7850731"><ele>12.666666666666666</ele><time>2026-05-02T09:04:58.785Z</time></trkpt><trkpt lat="38.8632778" lon="20.7852821"><ele>12.333333333333332</ele><time>2026-05-02T09:04:59.785Z</time></trkpt><trkpt lat="38.863262" lon="20.7854858"><ele>12.0</ele><time>2026-05-02T09:05:00.784Z</time></trkpt><trkpt lat="38.863246" lon="20.7856898"><ele>12.0</ele><time>2026-05-02T09:05:01.784Z</time></trkpt><trkpt lat="38.863218" lon="20.7858778"><ele>12.0</ele><time>2026-05-02T09:05:02.784Z</time></trkpt><trkpt lat="38.8631925" lon="20.7860555"><ele>12.0</ele><time>2026-05-02T09:05:03.784Z</time></trkpt><trkpt lat="38.8631571" lon="20.7862215"><ele>12.0</ele><time>2026-05-02T09:05:04.784Z</time></trkpt><trkpt lat="38.863118" lon="20.7863836"><ele>11.25</ele><time>2026-05-02T09:05:05.785Z</time></trkpt><trkpt lat="38.8630761" lon="20.7865423"><ele>10.5</ele><time>2026-05-02T09:05:06.785Z</time></trkpt><trkpt lat="38.8630391" lon="20.7866949"><ele>9.75</ele><time>2026-05-02T09:05:07.785Z</time></trkpt><trkpt lat="38.8629991" lon="20.7868422"><ele>9.0</ele><time>2026-05-02T09:05:08.785Z</time></trkpt><trkpt lat="38.8629533" lon="20.7869809"><ele>8.0</ele><time>2026-05-02T09:05:09.785Z</time></trkpt><trkpt lat="38.8629029" lon="20.7871301"><ele>7.0</ele><time>2026-05-02T09:05:10.784Z</time></trkpt><trkpt lat="38.862847" lon="20.7872833"><ele>6.0</ele><time>2026-05-02T09:05:11.784Z</time></trkpt><trkpt lat="38.8627821" lon="20.787436"><ele>5.0</ele><time>2026-05-02T09:05:12.785Z</time></trkpt><trkpt lat="38.8627115" lon="20.7875859"><ele>5.0</ele><time>2026-05-02T09:05:13.785Z</time></trkpt><trkpt lat="38.862633" lon="20.7877447"><ele>5.0</ele><time>2026-05-02T09:05:14.784Z</time></trkpt><trkpt lat="38.8625419" lon="20.7879112"><ele>5.0</ele><time>2026-05-02T09:05:15.785Z</time></trkpt><trkpt lat="38.8624385" lon="20.7880864"><ele>5.0</ele><time>2026-05-02T09:05:16.785Z</time></trkpt><trkpt lat="38.8623213" lon="20.7882695"><ele>5.0</ele><time>2026-05-02T09:05:17.785Z</time></trkpt><trkpt lat="38.8622017" lon="20.7884479"><ele>5.0</ele><time>2026-05-02T09:05:18.785Z</time></trkpt><trkpt lat="38.8620706" lon="20.7886113"><ele>5.666666666666667</ele><time>2026-05-02T09:05:19.785Z</time></trkpt><trkpt lat="38.8619289" lon="20.7887678"><ele>6.333333333333334</ele><time>2026-05-02T09:05:20.785Z</time></trkpt><trkpt lat="38.8617837" lon="20.7889204"><ele>7.0</ele><time>2026-05-02T09:05:21.785Z</time></trkpt><trkpt lat="38.861639" lon="20.7890734"><ele>7.0</ele><time>2026-05-02T09:05:22.784Z</time></trkpt><trkpt lat="38.861495" lon="20.7892259"><ele>7.0</ele><time>2026-05-02T09:05:23.785Z</time></trkpt><trkpt lat="38.8613531" lon="20.7893757"><ele>7.0</ele><time>2026-05-02T09:05:24.784Z</time></trkpt><trkpt lat="38.8612114" lon="20.7895243"><ele>8.333333333333334</ele><time>2026-05-02T09:05:25.784Z</time></trkpt><trkpt lat="38.8610701" lon="20.7896739"><ele>9.666666666666666</ele><time>2026-05-02T09:05:26.785Z</time></trkpt><trkpt lat="38.8609291" lon="20.7898271"><ele>11.0</ele><time>2026-05-02T09:05:27.785Z</time></trkpt><trkpt lat="38.8607864" lon="20.7899812"><ele>11.0</ele><time>2026-05-02T09:05:28.785Z</time></trkpt><trkpt lat="38.8606439" lon="20.7901313"><ele>11.0</ele><time>2026-05-02T09:05:29.784Z</time></trkpt><trkpt lat="38.8604939" lon="20.7902848"><ele>11.0</ele><time>2026-05-02T09:05:30.784Z</time></trkpt><trkpt lat="38.8603419" lon="20.7904433"><ele>11.666666666666666</ele><time>2026-05-02T09:05:31.784Z</time></trkpt><trkpt lat="38.8601946" lon="20.7905999"><ele>12.333333333333332</ele><time>2026-05-02T09:05:32.784Z</time></trkpt><trkpt lat="38.8600487" lon="20.7907561"><ele>13.0</ele><time>2026-05-02T09:05:33.784Z</time></trkpt><trkpt lat="38.8599013" lon="20.7909099"><ele>11.333333333333332</ele><time>2026-05-02T09:05:34.784Z</time></trkpt><trkpt lat="38.8597507" lon="20.7910678"><ele>9.666666666666666</ele><time>2026-05-02T09:05:35.785Z</time></trkpt><trkpt lat="38.8596027" lon="20.7912248"><ele>8.0</ele><time>2026-05-02T09:05:36.784Z</time></trkpt><trkpt lat="38.8594573" lon="20.7913737"><ele>8.0</ele><time>2026-05-02T09:05:37.784Z</time></trkpt><trkpt lat="38.8593097" lon="20.7915262"><ele>8.0</ele><time>2026-05-02T09:05:38.784Z</time></trkpt><trkpt lat="38.8591653" lon="20.7916843"><ele>8.0</ele><time>2026-05-02T09:05:39.785Z</time></trkpt><trkpt lat="38.8590236" lon="20.7918469"><ele>9.0</ele><time>2026-05-02T09:05:40.784Z</time></trkpt><trkpt lat="38.8588856" lon="20.7920162"><ele>10.0</ele><time>2026-05-02T09:05:41.784Z</time></trkpt><trkpt lat="38.8587526" lon="20.7921916"><ele>11.0</ele><time>2026-05-02T09:05:42.784Z</time></trkpt><trkpt lat="38.8586243" lon="20.7923747"><ele>11.0</ele><time>2026-05-02T09:05:43.785Z</time></trkpt><trkpt lat="38.8585002" lon="20.7925675"><ele>11.0</ele><time>2026-05-02T09:05:44.785Z</time></trkpt><trkpt lat="38.8583847" lon="20.7927669"><ele>11.0</ele><time>2026-05-02T09:05:45.785Z</time></trkpt><trkpt lat="38.858276" lon="20.7929779"><ele>12.0</ele><time>2026-05-02T09:05:46.784Z</time></trkpt><trkpt lat="38.8581733" lon="20.793189"><ele>13.0</ele><time>2026-05-02T09:05:47.784Z</time></trkpt><trkpt lat="38.8580819" lon="20.7934082"><ele>14.0</ele><time>2026-05-02T09:05:48.785Z</time></trkpt><trkpt lat="38.8579964" lon="20.7936302"><ele>14.333333333333334</ele><time>2026-05-02T09:05:49.784Z</time></trkpt><trkpt lat="38.8579167" lon="20.7938553"><ele>14.666666666666668</ele><time>2026-05-02T09:05:50.784Z</time></trkpt><trkpt lat="38.8578466" lon="20.7940798"><ele>15.0</ele><time>2026-05-02T09:05:51.785Z</time></trkpt><trkpt lat="38.8577873" lon="20.794315"><ele>15.0</ele><time>2026-05-02T09:05:52.785Z</time></trkpt><trkpt lat="38.857736" lon="20.794559"><ele>15.0</ele><time>2026-05-02T09:05:53.785Z</time></trkpt><trkpt lat="38.8576955" lon="20.7948102"><ele>15.0</ele><time>2026-05-02T09:05:54.785Z</time></trkpt><trkpt lat="38.8576641" lon="20.7950713"><ele>14.333333333333332</ele><time>2026-05-02T09:05:55.784Z</time></trkpt><trkpt lat="38.8576457" lon="20.7953358"><ele>13.666666666666666</ele><time>2026-05-02T09:05:56.785Z</time></trkpt><trkpt lat="38.8576333" lon="20.7956069"><ele>13.0</ele><time>2026-05-02T09:05:57.784Z</time></trkpt><trkpt lat="38.857631" lon="20.7958719"><ele>14.0</ele><time>2026-05-02T09:05:58.784Z</time></trkpt><trkpt lat="38.8576424" lon="20.796139"><ele>15.0</ele><time>2026-05-02T09:05:59.784Z</time></trkpt><trkpt lat="38.8576601" lon="20.7964038"><ele>16.0</ele><time>2026-05-02T09:06:00.785Z</time></trkpt><trkpt lat="38.8576897" lon="20.7966617"><ele>16.666666666666664</ele><time>2026-05-02T09:06:01.784Z</time></trkpt><trkpt lat="38.857728" lon="20.796914"><ele>17.333333333333332</ele><time>2026-05-02T09:06:02.784Z</time></trkpt><trkpt lat="38.8577762" lon="20.7971592"><ele>18.0</ele><time>2026-05-02T09:06:03.785Z</time></trkpt><trkpt lat="38.8578259" lon="20.7974026"><ele>18.0</ele><time>2026-05-02T09:06:04.785Z</time></trkpt><trkpt lat="38.85788" lon="20.7976448"><ele>18.0</ele><time>2026-05-02T09:06:05.784Z</time></trkpt><trkpt lat="38.8579392" lon="20.797897"><ele>18.0</ele><time>2026-05-02T09:06:06.784Z</time></trkpt><trkpt lat="38.8579908" lon="20.7981468"><ele>18.666666666666668</ele><time>2026-05-02T09:06:07.784Z</time></trkpt><trkpt lat="38.8580396" lon="20.7983973"><ele>19.333333333333336</ele><time>2026-05-02T09:06:08.785Z</time></trkpt><trkpt lat="38.8580945" lon="20.7986431"><ele>20.0</ele><time>2026-05-02T09:06:09.785Z</time></trkpt><trkpt lat="38.8581496" lon="20.7988942"><ele>21.666666666666668</ele><time>2026-05-02T09:06:10.785Z</time></trkpt><trkpt lat="38.8582027" lon="20.7991352"><ele>23.333333333333336</ele><time>2026-05-02T09:06:11.784Z</time></trkpt><trkpt lat="38.8582535" lon="20.7993807"><ele>25.0</ele><time>2026-05-02T09:06:12.785Z</time></trkpt><trkpt lat="38.8583078" lon="20.7996209"><ele>27.333333333333336</ele><time>2026-05-02T09:06:13.784Z</time></trkpt><trkpt lat="38.8583573" lon="20.7998605"><ele>29.666666666666664</ele><time>2026-05-02T09:06:14.784Z</time></trkpt><trkpt lat="38.8584094" lon="20.8000997"><ele>32.0</ele><time>2026-05-02T09:06:15.784Z</time></trkpt><trkpt lat="38.8584601" lon="20.8003354"><ele>33.666666666666664</ele><time>2026-05-02T09:06:16.785Z</time></trkpt><trkpt lat="38.8585134" lon="20.8005761"><ele>35.333333333333336</ele><time>2026-05-02T09:06:17.784Z</time></trkpt><trkpt lat="38.8585672" lon="20.8008186"><ele>37.0</ele><time>2026-05-02T09:06:18.785Z</time></trkpt><trkpt lat="38.8586198" lon="20.80106"><ele>39.0</ele><time>2026-05-02T09:06:19.785Z</time></trkpt><trkpt lat="38.858668" lon="20.8013038"><ele>41.0</ele><time>2026-05-02T09:06:20.784Z</time></trkpt><trkpt lat="38.8587204" lon="20.8015445"><ele>43.0</ele><time>2026-05-02T09:06:21.784Z</time></trkpt><trkpt lat="38.8587738" lon="20.8017834"><ele>44.66666666666667</ele><time>2026-05-02T09:06:22.785Z</time></trkpt><trkpt lat="38.8588233" lon="20.8020212"><ele>46.333333333333336</ele><time>2026-05-02T09:06:23.785Z</time></trkpt><trkpt lat="38.858877" lon="20.8022622"><ele>48.0</ele><time>2026-05-02T09:06:24.784Z</time></trkpt><trkpt lat="38.8589253" lon="20.8025073"><ele>46.666666666666664</ele><time>2026-05-02T09:06:25.784Z</time></trkpt><trkpt lat="38.8589812" lon="20.8027496"><ele>45.33333333333333</ele><time>2026-05-02T09:06:26.785Z</time></trkpt><trkpt lat="38.8590328" lon="20.8029886"><ele>44.0</ele><time>2026-05-02T09:06:27.784Z</time></trkpt><trkpt lat="38.8590863" lon="20.8032243"><ele>44.0</ele><time>2026-05-02T09:06:28.784Z</time></trkpt><trkpt lat="38.8591367" lon="20.8034619"><ele>44.0</ele><time>2026-05-02T09:06:29.784Z</time></trkpt><trkpt lat="38.8591879" lon="20.8036951"><ele>44.0</ele><time>2026-05-02T09:06:30.784Z</time></trkpt><trkpt lat="38.8592422" lon="20.8039261"><ele>44.666666666666664</ele><time>2026-05-02T09:06:31.785Z</time></trkpt><trkpt lat="38.8592933" lon="20.8041613"><ele>45.333333333333336</ele><time>2026-05-02T09:06:32.785Z</time></trkpt><trkpt lat="38.8593459" lon="20.8043947"><ele>46.0</ele><time>2026-05-02T09:06:33.785Z</time></trkpt><trkpt lat="38.8593989" lon="20.8046326"><ele>43.333333333333336</ele><time>2026-05-02T09:06:34.785Z</time></trkpt><trkpt lat="38.8594508" lon="20.8048657"><ele>40.666666666666664</ele><time>2026-05-02T09:06:35.785Z</time></trkpt><trkpt lat="38.859503" lon="20.805099"><ele>38.0</ele><time>2026-05-02T09:06:36.785Z</time></trkpt><trkpt lat="38.8595603" lon="20.8053376"><ele>33.666666666666664</ele><time>2026-05-02T09:06:37.785Z</time></trkpt><trkpt lat="38.8596325" lon="20.8055618"><ele>29.333333333333336</ele><time>2026-05-02T09:06:38.784Z</time></trkpt><trkpt lat="38.8597171" lon="20.8057897"><ele>25.0</ele><time>2026-05-02T09:06:39.785Z</time></trkpt><trkpt lat="38.8598135" lon="20.8060187"><ele>21.0</ele><time>2026-05-02T09:06:40.785Z</time></trkpt><trkpt lat="38.8599223" lon="20.8062427"><ele>17.0</ele><time>2026-05-02T09:06:41.785Z</time></trkpt><trkpt lat="38.8600369" lon="20.8064623"><ele>13.0</ele><time>2026-05-02T09:06:42.785Z</time></trkpt><trkpt lat="38.8601676" lon="20.8066775"><ele>10.333333333333332</ele><time>2026-05-02T09:06:43.785Z</time></trkpt><trkpt lat="38.8603053" lon="20.8068901"><ele>7.666666666666666</ele><time>2026-05-02T09:06:44.785Z</time></trkpt><trkpt lat="38.8604528" lon="20.8070808"><ele>5.0</ele><time>2026-05-02T09:06:45.785Z</time></trkpt><trkpt lat="38.8606148" lon="20.8072624"><ele>5.0</ele><time>2026-05-02T09:06:46.785Z</time></trkpt><trkpt lat="38.860784" lon="20.8074357"><ele>5.0</ele><time>2026-05-02T09:06:47.784Z</time></trkpt><trkpt lat="38.8609596" lon="20.8075995"><ele>5.0</ele><time>2026-05-02T09:06:48.785Z</time></trkpt><trkpt lat="38.8611464" lon="20.8077481"><ele>3.3333333333333335</ele><time>2026-05-02T09:06:49.784Z</time></trkpt><trkpt lat="38.8613405" lon="20.8078825"><ele>1.6666666666666667</ele><time>2026-05-02T09:06:50.785Z</time></trkpt><trkpt lat="38.8615396" lon="20.8080038"><ele>0.0</ele><time>2026-05-02T09:06:51.784Z</time></trkpt><trkpt lat="38.8617457" lon="20.8081107"><ele>1.0</ele><time>2026-05-02T09:06:52.784Z</time></trkpt><trkpt lat="38.8619566" lon="20.8081992"><ele>2.0</ele><time>2026-05-02T09:06:53.785Z</time></trkpt><trkpt lat="38.8621801" lon="20.8082716"><ele>2.0</ele><time>2026-05-02T09:06:54.784Z</time></trkpt><trkpt lat="38.8624007" lon="20.8083282"><ele>2.0</ele><time>2026-05-02T09:06:55.785Z</time></trkpt><trkpt lat="38.8626292" lon="20.8083687"><ele>2.5</ele><time>2026-05-02T09:06:56.784Z</time></trkpt><trkpt lat="38.8628578" lon="20.808395"><ele>3.0</ele><time>2026-05-02T09:06:57.784Z</time></trkpt><trkpt lat="38.8630804" lon="20.8084138"><ele>3.0</ele><time>2026-05-02T09:06:58.784Z</time></trkpt><trkpt lat="38.8633041" lon="20.8084272"><ele>3.0</ele><time>2026-05-02T09:06:59.784Z</time></trkpt><trkpt lat="38.8635239" lon="20.808448"><ele>3.0</ele><time>2026-05-02T09:07:00.785Z</time></trkpt><trkpt lat="38.8637501" lon="20.8084681"><ele>3.0</ele><time>2026-05-02T09:07:01.785Z</time></trkpt><trkpt lat="38.8639707" lon="20.8084863"><ele>3.0</ele><time>2026-05-02T09:07:02.785Z</time></trkpt><trkpt lat="38.8641874" lon="20.8085048"><ele>3.0</ele><time>2026-05-02T09:07:03.785Z</time></trkpt><trkpt lat="38.8644151" lon="20.8085186"><ele>3.0</ele><time>2026-05-02T09:07:04.785Z</time></trkpt><trkpt lat="38.8646445" lon="20.8085305"><ele>3.0</ele><time>2026-05-02T09:07:05.784Z</time></trkpt><trkpt lat="38.8648747" lon="20.808547"><ele>3.0</ele><time>2026-05-02T09:07:06.784Z</time></trkpt><trkpt lat="38.8651052" lon="20.8085601"><ele>3.0</ele><time>2026-05-02T09:07:07.785Z</time></trkpt><trkpt lat="38.8653382" lon="20.8085759"><ele>3.0</ele><time>2026-05-02T09:07:08.784Z</time></trkpt><trkpt lat="38.8655655" lon="20.8085878"><ele>3.0</ele><time>2026-05-02T09:07:09.785Z</time></trkpt><trkpt lat="38.8657918" lon="20.8086002"><ele>3.333333333333333</ele><time>2026-05-02T09:07:10.784Z</time></trkpt><trkpt lat="38.8660171" lon="20.8086162"><ele>3.6666666666666665</ele><time>2026-05-02T09:07:11.784Z</time></trkpt><trkpt lat="38.8662371" lon="20.8086296"><ele>4.0</ele><time>2026-05-02T09:07:12.785Z</time></trkpt><trkpt lat="38.8664498" lon="20.8086378"><ele>4.0</ele><time>2026-05-02T09:07:13.785Z</time></trkpt><trkpt lat="38.8666672" lon="20.8086483"><ele>4.0</ele><time>2026-05-02T09:07:14.784Z</time></trkpt><trkpt lat="38.8668837" lon="20.8086629"><ele>4.0</ele><time>2026-05-02T09:07:15.785Z</time></trkpt><trkpt lat="38.8671014" lon="20.8086777"><ele>4.333333333333333</ele><time>2026-05-02T09:07:16.785Z</time></trkpt><trkpt lat="38.8673117" lon="20.8086962"><ele>4.666666666666667</ele><time>2026-05-02T09:07:17.785Z</time></trkpt><trkpt lat="38.8675227" lon="20.8087087"><ele>5.0</ele><time>2026-05-02T09:07:18.784Z</time></trkpt><trkpt lat="38.8677325" lon="20.8087255"><ele>5.333333333333334</ele><time>2026-05-02T09:07:19.784Z</time></trkpt><trkpt lat="38.8679465" lon="20.8087355"><ele>5.666666666666667</ele><time>2026-05-02T09:07:20.785Z</time></trkpt><trkpt lat="38.8681542" lon="20.8087529"><ele>6.0</ele><time>2026-05-02T09:07:21.784Z</time></trkpt><trkpt lat="38.8683587" lon="20.808783"><ele>6.0</ele><time>2026-05-02T09:07:22.785Z</time></trkpt><trkpt lat="38.8685573" lon="20.8088286"><ele>6.0</ele><time>2026-05-02T09:07:23.785Z</time></trkpt><trkpt lat="38.8687577" lon="20.8088826"><ele>6.0</ele><time>2026-05-02T09:07:24.785Z</time></trkpt><trkpt lat="38.868958" lon="20.8089505"><ele>6.0</ele><time>2026-05-02T09:07:25.785Z</time></trkpt><trkpt lat="38.8691623" lon="20.8090285"><ele>6.0</ele><time>2026-05-02T09:07:26.784Z</time></trkpt><trkpt lat="38.8693634" lon="20.8091223"><ele>6.0</ele><time>2026-05-02T09:07:27.784Z</time></trkpt><trkpt lat="38.8695642" lon="20.809228"><ele>6.666666666666666</ele><time>2026-05-02T09:07:28.785Z</time></trkpt><trkpt lat="38.8697619" lon="20.809344"><ele>7.333333333333333</ele><time>2026-05-02T09:07:29.785Z</time></trkpt><trkpt lat="38.8699572" lon="20.809474"><ele>8.0</ele><time>2026-05-02T09:07:30.785Z</time></trkpt><trkpt lat="38.870144" lon="20.8096149"><ele>8.0</ele><time>2026-05-02T09:07:31.785Z</time></trkpt><trkpt lat="38.8703213" lon="20.8097691"><ele>8.0</ele><time>2026-05-02T09:07:32.785Z</time></trkpt><trkpt lat="38.8704873" lon="20.8099246"><ele>8.0</ele><time>2026-05-02T09:07:33.784Z</time></trkpt><trkpt lat="38.8706541" lon="20.8100887"><ele>7.666666666666666</ele><time>2026-05-02T09:07:34.785Z</time></trkpt><trkpt lat="38.870808" lon="20.8102623"><ele>7.333333333333334</ele><time>2026-05-02T09:07:35.784Z</time></trkpt><trkpt lat="38.8709522" lon="20.8104423"><ele>7.0</ele><time>2026-05-02T09:07:36.784Z</time></trkpt><trkpt lat="38.8710849" lon="20.8106294"><ele>7.0</ele><time>2026-05-02T09:07:37.784Z</time></trkpt><trkpt lat="38.8712097" lon="20.8108308"><ele>7.0</ele><time>2026-05-02T09:07:38.785Z</time></trkpt><trkpt lat="38.8713239" lon="20.8110327"><ele>7.0</ele><time>2026-05-02T09:07:39.784Z</time></trkpt><trkpt lat="38.8714281" lon="20.8112414"><ele>7.0</ele><time>2026-05-02T09:07:40.784Z</time></trkpt><trkpt lat="38.8715279" lon="20.8114575"><ele>7.0</ele><time>2026-05-02T09:07:41.784Z</time></trkpt><trkpt lat="38.8716148" lon="20.8116639"><ele>7.0</ele><time>2026-05-02T09:07:42.784Z</time></trkpt><trkpt lat="38.8716953" lon="20.8118586"><ele>8.0</ele><time>2026-05-02T09:07:43.784Z</time></trkpt><trkpt lat="38.8717697" lon="20.8120535"><ele>9.0</ele><time>2026-05-02T09:07:44.784Z</time></trkpt><trkpt lat="38.8718386" lon="20.8122376"><ele>10.0</ele><time>2026-05-02T09:07:45.785Z</time></trkpt><trkpt lat="38.8719062" lon="20.8124039"><ele>10.0</ele><time>2026-05-02T09:07:46.784Z</time></trkpt><trkpt lat="38.8719735" lon="20.812545"><ele>10.0</ele><time>2026-05-02T09:07:47.784Z</time></trkpt><trkpt lat="38.872035" lon="20.8126769"><ele>10.0</ele><time>2026-05-02T09:07:48.785Z</time></trkpt><trkpt lat="38.8720913" lon="20.8127977"><ele>10.0</ele><time>2026-05-02T09:07:49.784Z</time></trkpt><trkpt lat="38.8721337" lon="20.8129324"><ele>10.0</ele><time>2026-05-02T09:07:50.785Z</time></trkpt><trkpt lat="38.8721735" lon="20.8130502"><ele>10.0</ele><time>2026-05-02T09:07:51.785Z</time></trkpt><trkpt lat="38.8722108" lon="20.8131505"><ele>10.0</ele><time>2026-05-02T09:07:52.785Z</time></trkpt><trkpt lat="38.8722655" lon="20.8132358"><ele>10.0</ele><time>2026-05-02T09:07:53.785Z</time></trkpt><trkpt lat="38.8723317" lon="20.8132907"><ele>10.0</ele><time>2026-05-02T09:07:54.784Z</time></trkpt><trkpt lat="38.8724123" lon="20.8133091"><ele>10.0</ele><time>2026-05-02T09:07:55.785Z</time></trkpt><trkpt lat="38.8724952" lon="20.8132947"><ele>10.0</ele><time>2026-05-02T09:07:56.785Z</time></trkpt><trkpt lat="38.8725697" lon="20.813241"><ele>10.0</ele><time>2026-05-02T09:07:57.785Z</time></trkpt><trkpt lat="38.8726256" lon="20.8131533"><ele>10.0</ele><time>2026-05-02T09:07:58.785Z</time></trkpt><trkpt lat="38.8726663" lon="20.8130462"><ele>10.0</ele><time>2026-05-02T09:07:59.784Z</time></trkpt><trkpt lat="38.8727089" lon="20.8129376"><ele>10.0</ele><time>2026-05-02T09:08:00.784Z</time></trkpt><trkpt lat="38.8727738" lon="20.812842"><ele>10.5</ele><time>2026-05-02T09:08:01.784Z</time></trkpt><trkpt lat="38.8728644" lon="20.8127692"><ele>11.0</ele><time>2026-05-02T09:08:02.785Z</time></trkpt><trkpt lat="38.8729882" lon="20.8127092"><ele>11.5</ele><time>2026-05-02T09:08:03.785Z</time></trkpt><trkpt lat="38.8731346" lon="20.8126419"><ele>12.0</ele><time>2026-05-02T09:08:04.784Z</time></trkpt><trkpt lat="38.8732776" lon="20.8125775"><ele>12.333333333333332</ele><time>2026-05-02T09:08:05.785Z</time></trkpt><trkpt lat="38.8734292" lon="20.8124962"><ele>12.666666666666666</ele><time>2026-05-02T09:08:06.784Z</time></trkpt><trkpt lat="38.8735865" lon="20.812393"><ele>13.0</ele><time>2026-05-02T09:08:07.785Z</time></trkpt><trkpt lat="38.873747" lon="20.8122874"><ele>13.0</ele><time>2026-05-02T09:08:08.785Z</time></trkpt><trkpt lat="38.8739048" lon="20.8121804"><ele>13.0</ele><time>2026-05-02T09:08:09.784Z</time></trkpt><trkpt lat="38.8740649" lon="20.8120686"><ele>13.0</ele><time>2026-05-02T09:08:10.785Z</time></trkpt><trkpt lat="38.8742253" lon="20.8119479"><ele>13.333333333333332</ele><time>2026-05-02T09:08:11.784Z</time></trkpt><trkpt lat="38.874386" lon="20.8118211"><ele>13.666666666666668</ele><time>2026-05-02T09:08:12.784Z</time></trkpt><trkpt lat="38.8745495" lon="20.8116777"><ele>14.0</ele><time>2026-05-02T09:08:13.785Z</time></trkpt><trkpt lat="38.8747072" lon="20.8115202"><ele>14.0</ele><time>2026-05-02T09:08:14.784Z</time></trkpt><trkpt lat="38.8748564" lon="20.8113656"><ele>14.0</ele><time>2026-05-02T09:08:15.784Z</time></trkpt><trkpt lat="38.8749946" lon="20.8111952"><ele>14.0</ele><time>2026-05-02T09:08:16.785Z</time></trkpt><trkpt lat="38.8751308" lon="20.8110202"><ele>15.0</ele><time>2026-05-02T09:08:17.784Z</time></trkpt><trkpt lat="38.8752693" lon="20.8108426"><ele>16.0</ele><time>2026-05-02T09:08:18.785Z</time></trkpt><trkpt lat="38.8754027" lon="20.8106572"><ele>17.0</ele><time>2026-05-02T09:08:19.785Z</time></trkpt><trkpt lat="38.8755397" lon="20.8104765"><ele>17.0</ele><time>2026-05-02T09:08:20.784Z</time></trkpt><trkpt lat="38.8756778" lon="20.8103032"><ele>17.0</ele><time>2026-05-02T09:08:21.784Z</time></trkpt><trkpt lat="38.8758099" lon="20.8101189"><ele>17.0</ele><time>2026-05-02T09:08:22.785Z</time></trkpt><trkpt lat="38.8759461" lon="20.8099415"><ele>18.0</ele><time>2026-05-02T09:08:23.785Z</time></trkpt><trkpt lat="38.8760831" lon="20.8097636"><ele>19.0</ele><time>2026-05-02T09:08:24.785Z</time></trkpt><trkpt lat="38.8762227" lon="20.8095834"><ele>20.0</ele><time>2026-05-02T09:08:25.785Z</time></trkpt><trkpt lat="38.8763629" lon="20.8094084"><ele>21.0</ele><time>2026-05-02T09:08:26.785Z</time></trkpt><trkpt lat="38.8764963" lon="20.8092291"><ele>22.0</ele><time>2026-05-02T09:08:27.785Z</time></trkpt><trkpt lat="38.8766291" lon="20.8090561"><ele>23.0</ele><time>2026-05-02T09:08:28.785Z</time></trkpt><trkpt lat="38.8767579" lon="20.8088783"><ele>25.0</ele><time>2026-05-02T09:08:29.784Z</time></trkpt><trkpt lat="38.8768912" lon="20.8087024"><ele>27.0</ele><time>2026-05-02T09:08:30.784Z</time></trkpt><trkpt lat="38.8770245" lon="20.8085288"><ele>29.0</ele><time>2026-05-02T09:08:31.784Z</time></trkpt><trkpt lat="38.8771597" lon="20.8083523"><ele>29.666666666666664</ele><time>2026-05-02T09:08:32.785Z</time></trkpt><trkpt lat="38.8772959" lon="20.8081732"><ele>30.333333333333336</ele><time>2026-05-02T09:08:33.784Z</time></trkpt><trkpt lat="38.8774319" lon="20.8079956"><ele>31.0</ele><time>2026-05-02T09:08:34.785Z</time></trkpt><trkpt lat="38.8775697" lon="20.8078233"><ele>35.0</ele><time>2026-05-02T09:08:35.785Z</time></trkpt><trkpt lat="38.8777144" lon="20.8076516"><ele>39.0</ele><time>2026-05-02T09:08:36.784Z</time></trkpt><trkpt lat="38.8778665" lon="20.8074889"><ele>43.0</ele><time>2026-05-02T09:08:37.785Z</time></trkpt><trkpt lat="38.8780267" lon="20.8073327"><ele>43.0</ele><time>2026-05-02T09:08:38.784Z</time></trkpt><trkpt lat="38.8781872" lon="20.8071849"><ele>43.0</ele><time>2026-05-02T09:08:39.784Z</time></trkpt><trkpt lat="38.8783618" lon="20.8070424"><ele>43.0</ele><time>2026-05-02T09:08:40.785Z</time></trkpt><trkpt lat="38.8785399" lon="20.8069065"><ele>42.0</ele><time>2026-05-02T09:08:41.784Z</time></trkpt><trkpt lat="38.8787121" lon="20.8067771"><ele>41.0</ele><time>2026-05-02T09:08:42.785Z</time></trkpt><trkpt lat="38.8788964" lon="20.806666"><ele>40.0</ele><time>2026-05-02T09:08:43.784Z</time></trkpt><trkpt lat="38.8790831" lon="20.8065601"><ele>41.333333333333336</ele><time>2026-05-02T09:08:44.784Z</time></trkpt><trkpt lat="38.8792745" lon="20.8064629"><ele>42.666666666666664</ele><time>2026-05-02T09:08:45.784Z</time></trkpt><trkpt lat="38.8794687" lon="20.8063738"><ele>44.0</ele><time>2026-05-02T09:08:46.784Z</time></trkpt><trkpt lat="38.8796663" lon="20.8062845"><ele>44.0</ele><time>2026-05-02T09:08:47.784Z</time></trkpt><trkpt lat="38.8798565" lon="20.8062001"><ele>44.0</ele><time>2026-05-02T09:08:48.784Z</time></trkpt><trkpt lat="38.8800538" lon="20.8061021"><ele>44.0</ele><time>2026-05-02T09:08:49.784Z</time></trkpt><trkpt lat="38.8802501" lon="20.8059959"><ele>44.666666666666664</ele><time>2026-05-02T09:08:50.784Z</time></trkpt><trkpt lat="38.8804412" lon="20.8058777"><ele>45.333333333333336</ele><time>2026-05-02T09:08:51.785Z</time></trkpt><trkpt lat="38.8806319" lon="20.8057504"><ele>46.0</ele><time>2026-05-02T09:08:52.785Z</time></trkpt><trkpt lat="38.8808189" lon="20.8056112"><ele>47.333333333333336</ele><time>2026-05-02T09:08:53.785Z</time></trkpt><trkpt lat="38.8809987" lon="20.8054591"><ele>48.66666666666667</ele><time>2026-05-02T09:08:54.785Z</time></trkpt><trkpt lat="38.8811753" lon="20.8052956"><ele>50.0</ele><time>2026-05-02T09:08:55.785Z</time></trkpt><trkpt lat="38.8813433" lon="20.8051193"><ele>50.0</ele><time>2026-05-02T09:08:56.784Z</time></trkpt><trkpt lat="38.8815024" lon="20.8049294"><ele>50.0</ele><time>2026-05-02T09:08:57.785Z</time></trkpt><trkpt lat="38.8816588" lon="20.8047262"><ele>50.0</ele><time>2026-05-02T09:08:58.784Z</time></trkpt><trkpt lat="38.8818115" lon="20.8045104"><ele>53.0</ele><time>2026-05-02T09:08:59.785Z</time></trkpt><trkpt lat="38.8819469" lon="20.8042928"><ele>56.0</ele><time>2026-05-02T09:09:00.784Z</time></trkpt><trkpt lat="38.8820783" lon="20.804076"><ele>59.0</ele><time>2026-05-02T09:09:01.785Z</time></trkpt><trkpt lat="38.8822062" lon="20.8038626"><ele>59.0</ele><time>2026-05-02T09:09:02.784Z</time></trkpt><trkpt lat="38.8823344" lon="20.8036518"><ele>59.0</ele><time>2026-05-02T09:09:03.784Z</time></trkpt><trkpt lat="38.8824592" lon="20.8034369"><ele>59.0</ele><time>2026-05-02T09:09:04.785Z</time></trkpt><trkpt lat="38.8825828" lon="20.8032257"><ele>59.333333333333336</ele><time>2026-05-02T09:09:05.784Z</time></trkpt><trkpt lat="38.8827003" lon="20.8030155"><ele>59.66666666666667</ele><time>2026-05-02T09:09:06.785Z</time></trkpt><trkpt lat="38.8828266" lon="20.8028128"><ele>60.0</ele><time>2026-05-02T09:09:07.785Z</time></trkpt><trkpt lat="38.8829559" lon="20.8026213"><ele>62.66666666666667</ele><time>2026-05-02T09:09:08.785Z</time></trkpt><trkpt lat="38.8831004" lon="20.8024521"><ele>65.33333333333334</ele><time>2026-05-02T09:09:09.784Z</time></trkpt><trkpt lat="38.8832637" lon="20.802307"><ele>68.0</ele><time>2026-05-02T09:09:10.785Z</time></trkpt><trkpt lat="38.8834275" lon="20.802167"><ele>68.0</ele><time>2026-05-02T09:09:11.785Z</time></trkpt><trkpt lat="38.8835998" lon="20.8020417"><ele>68.0</ele><time>2026-05-02T09:09:12.785Z</time></trkpt><trkpt lat="38.8837836" lon="20.8019385"><ele>68.0</ele><time>2026-05-02T09:09:13.784Z</time></trkpt><trkpt lat="38.8839702" lon="20.8018567"><ele>71.0</ele><time>2026-05-02T09:09:14.785Z</time></trkpt><trkpt lat="38.8841695" lon="20.8017882"><ele>74.0</ele><time>2026-05-02T09:09:15.785Z</time></trkpt><trkpt lat="38.8843722" lon="20.8017474"><ele>77.0</ele><time>2026-05-02T09:09:16.785Z</time></trkpt><trkpt lat="38.8845791" lon="20.8017238"><ele>78.0</ele><time>2026-05-02T09:09:17.784Z</time></trkpt><trkpt lat="38.8847851" lon="20.8017251"><ele>79.0</ele><time>2026-05-02T09:09:18.784Z</time></trkpt><trkpt lat="38.8849907" lon="20.8017459"><ele>80.0</ele><time>2026-05-02T09:09:19.784Z</time></trkpt><trkpt lat="38.8851923" lon="20.8017886"><ele>81.0</ele><time>2026-05-02T09:09:20.785Z</time></trkpt><trkpt lat="38.8853897" lon="20.8018539"><ele>82.0</ele><time>2026-05-02T09:09:21.785Z</time></trkpt><trkpt lat="38.8855826" lon="20.8019363"><ele>83.0</ele><time>2026-05-02T09:09:22.785Z</time></trkpt><trkpt lat="38.8857664" lon="20.8020411"><ele>88.33333333333334</ele><time>2026-05-02T09:09:23.785Z</time></trkpt><trkpt lat="38.8859453" lon="20.8021596"><ele>93.66666666666667</ele><time>2026-05-02T09:09:24.785Z</time></trkpt><trkpt lat="38.8861123" lon="20.802294"><ele>99.0</ele><time>2026-05-02T09:09:25.784Z</time></trkpt><trkpt lat="38.8862793" lon="20.8024321"><ele>99.0</ele><time>2026-05-02T09:09:26.785Z</time></trkpt><trkpt lat="38.8864426" lon="20.8025815"><ele>99.0</ele><time>2026-05-02T09:09:27.785Z</time></trkpt><trkpt lat="38.8866135" lon="20.8027332"><ele>99.0</ele><time>2026-05-02T09:09:28.784Z</time></trkpt><trkpt lat="38.8867877" lon="20.8028714"><ele>100.66666666666666</ele><time>2026-05-02T09:09:29.784Z</time></trkpt><trkpt lat="38.8869748" lon="20.8029876"><ele>102.33333333333333</ele><time>2026-05-02T09:09:30.784Z</time></trkpt><trkpt lat="38.8871734" lon="20.8030883"><ele>104.0</ele><time>2026-05-02T09:09:31.785Z</time></trkpt><trkpt lat="38.8873784" lon="20.8031698"><ele>104.0</ele><time>2026-05-02T09:09:32.784Z</time></trkpt><trkpt lat="38.8875909" lon="20.8032245"><ele>104.0</ele><time>2026-05-02T09:09:33.785Z</time></trkpt><trkpt lat="38.8878077" lon="20.8032585"><ele>104.0</ele><time>2026-05-02T09:09:34.785Z</time></trkpt><trkpt lat="38.8880221" lon="20.8032676"><ele>106.33333333333333</ele><time>2026-05-02T09:09:35.785Z</time></trkpt><trkpt lat="38.8882321" lon="20.8032626"><ele>108.66666666666666</ele><time>2026-05-02T09:09:36.785Z</time></trkpt><trkpt lat="38.8884463" lon="20.8032364"><ele>111.0</ele><time>2026-05-02T09:09:37.785Z</time></trkpt><trkpt lat="38.8886627" lon="20.8031813"><ele>113.5</ele><time>2026-05-02T09:09:38.784Z</time></trkpt><trkpt lat="38.8888894" lon="20.8030993"><ele>116.0</ele><time>2026-05-02T09:09:39.784Z</time></trkpt><trkpt lat="38.889108" lon="20.8029846"><ele>115.5</ele><time>2026-05-02T09:09:40.784Z</time></trkpt><trkpt lat="38.8893145" lon="20.8028503"><ele>115.0</ele><time>2026-05-02T09:09:41.784Z</time></trkpt><trkpt lat="38.8895167" lon="20.8026973"><ele>113.5</ele><time>2026-05-02T09:09:42.784Z</time></trkpt><trkpt lat="38.8897128" lon="20.8025329"><ele>112.0</ele><time>2026-05-02T09:09:43.784Z</time></trkpt><trkpt lat="38.8899096" lon="20.8023604"><ele>112.0</ele><time>2026-05-02T09:09:44.784Z</time></trkpt><trkpt lat="38.8901155" lon="20.8021904"><ele>112.0</ele><time>2026-05-02T09:09:45.785Z</time></trkpt><trkpt lat="38.8903147" lon="20.8020238"><ele>112.0</ele><time>2026-05-02T09:09:46.784Z</time></trkpt><trkpt lat="38.8905086" lon="20.8018593"><ele>112.0</ele><time>2026-05-02T09:09:47.785Z</time></trkpt><trkpt lat="38.890707" lon="20.8016964"><ele>107.0</ele><time>2026-05-02T09:09:48.784Z</time></trkpt><trkpt lat="38.8908995" lon="20.8015414"><ele>102.0</ele><time>2026-05-02T09:09:49.785Z</time></trkpt><trkpt lat="38.8910914" lon="20.801372"><ele>100.66666666666666</ele><time>2026-05-02T09:09:50.785Z</time></trkpt><trkpt lat="38.8912778" lon="20.8012119"><ele>99.33333333333333</ele><time>2026-05-02T09:09:51.784Z</time></trkpt><trkpt lat="38.8914598" lon="20.8010553"><ele>98.0</ele><time>2026-05-02T09:09:52.784Z</time></trkpt><trkpt lat="38.8916409" lon="20.8008953"><ele>95.0</ele><time>2026-05-02T09:09:53.785Z</time></trkpt><trkpt lat="38.8918253" lon="20.8007313"><ele>92.0</ele><time>2026-05-02T09:09:54.785Z</time></trkpt><trkpt lat="38.8920061" lon="20.8005661"><ele>89.0</ele><time>2026-05-02T09:09:55.784Z</time></trkpt><trkpt lat="38.8921832" lon="20.8004013"><ele>89.0</ele><time>2026-05-02T09:09:56.785Z</time></trkpt><trkpt lat="38.8923615" lon="20.8002406"><ele>89.0</ele><time>2026-05-02T09:09:57.785Z</time></trkpt><trkpt lat="38.8925437" lon="20.8000775"><ele>89.0</ele><time>2026-05-02T09:09:58.785Z</time></trkpt><trkpt lat="38.8927318" lon="20.7999184"><ele>84.33333333333334</ele><time>2026-05-02T09:09:59.784Z</time></trkpt><trkpt lat="38.8929151" lon="20.7997596"><ele>79.66666666666667</ele><time>2026-05-02T09:10:00.784Z</time></trkpt><trkpt lat="38.8930897" lon="20.7996057"><ele>75.0</ele><time>2026-05-02T09:10:01.784Z</time></trkpt><trkpt lat="38.89327" lon="20.7994483"><ele>77.66666666666667</ele><time>2026-05-02T09:10:02.784Z</time></trkpt><trkpt lat="38.8934521" lon="20.799288"><ele>80.33333333333334</ele><time>2026-05-02T09:10:03.785Z</time></trkpt><trkpt lat="38.8936326" lon="20.7991321"><ele>83.0</ele><time>2026-05-02T09:10:04.784Z</time></trkpt><trkpt lat="38.8938103" lon="20.7989773"><ele>83.0</ele><time>2026-05-02T09:10:05.784Z</time></trkpt><trkpt lat="38.893986" lon="20.7988261"><ele>83.0</ele><time>2026-05-02T09:10:06.784Z</time></trkpt><trkpt lat="38.8941609" lon="20.7986846"><ele>83.0</ele><time>2026-05-02T09:10:07.784Z</time></trkpt><trkpt lat="38.894335" lon="20.7985404"><ele>83.66666666666667</ele><time>2026-05-02T09:10:08.784Z</time></trkpt><trkpt lat="38.8945069" lon="20.7983958"><ele>84.33333333333333</ele><time>2026-05-02T09:10:09.785Z</time></trkpt><trkpt lat="38.8946831" lon="20.7982589"><ele>85.0</ele><time>2026-05-02T09:10:10.784Z</time></trkpt><trkpt lat="38.8948625" lon="20.7981271"><ele>85.0</ele><time>2026-05-02T09:10:11.784Z</time></trkpt><trkpt lat="38.8950432" lon="20.7979942"><ele>85.0</ele><time>2026-05-02T09:10:12.785Z</time></trkpt><trkpt lat="38.8952239" lon="20.7978737"><ele>85.0</ele><time>2026-05-02T09:10:13.784Z</time></trkpt><trkpt lat="38.8954091" lon="20.7977716"><ele>84.66666666666666</ele><time>2026-05-02T09:10:14.785Z</time></trkpt><trkpt lat="38.8955999" lon="20.7976795"><ele>84.33333333333333</ele><time>2026-05-02T09:10:15.785Z</time></trkpt><trkpt lat="38.8958003" lon="20.7975874"><ele>84.0</ele><time>2026-05-02T09:10:16.785Z</time></trkpt><trkpt lat="38.8960029" lon="20.7975065"><ele>84.66666666666667</ele><time>2026-05-02T09:10:17.785Z</time></trkpt><trkpt lat="38.8962016" lon="20.7974433"><ele>85.33333333333334</ele><time>2026-05-02T09:10:18.785Z</time></trkpt><trkpt lat="38.8964014" lon="20.7973867"><ele>86.0</ele><time>2026-05-02T09:10:19.785Z</time></trkpt><trkpt lat="38.8966122" lon="20.7973342"><ele>85.66666666666667</ele><time>2026-05-02T09:10:20.784Z</time></trkpt><trkpt lat="38.8968264" lon="20.797299"><ele>85.33333333333333</ele><time>2026-05-02T09:10:21.785Z</time></trkpt><trkpt lat="38.8970396" lon="20.7972762"><ele>85.0</ele><time>2026-05-02T09:10:22.784Z</time></trkpt><trkpt lat="38.8972524" lon="20.7972604"><ele>85.0</ele><time>2026-05-02T09:10:23.785Z</time></trkpt><trkpt lat="38.8974642" lon="20.7972553"><ele>85.0</ele><time>2026-05-02T09:10:24.785Z</time></trkpt><trkpt lat="38.8976812" lon="20.7972613"><ele>85.0</ele><time>2026-05-02T09:10:25.784Z</time></trkpt><trkpt lat="38.8978998" lon="20.7972826"><ele>85.0</ele><time>2026-05-02T09:10:26.785Z</time></trkpt><trkpt lat="38.8981234" lon="20.7973114"><ele>85.0</ele><time>2026-05-02T09:10:27.784Z</time></trkpt><trkpt lat="38.8983496" lon="20.7973507"><ele>81.5</ele><time>2026-05-02T09:10:28.785Z</time></trkpt><trkpt lat="38.8985761" lon="20.797407"><ele>78.0</ele><time>2026-05-02T09:10:29.784Z</time></trkpt><trkpt lat="38.8988027" lon="20.7974788"><ele>78.0</ele><time>2026-05-02T09:10:30.784Z</time></trkpt><trkpt lat="38.8990302" lon="20.7975636"><ele>78.0</ele><time>2026-05-02T09:10:31.785Z</time></trkpt><trkpt lat="38.8992535" lon="20.7976579"><ele>75.0</ele><time>2026-05-02T09:10:32.784Z</time></trkpt><trkpt lat="38.8994721" lon="20.7977657"><ele>72.0</ele><time>2026-05-02T09:10:33.784Z</time></trkpt><trkpt lat="38.8996893" lon="20.7978767"><ele>72.0</ele><time>2026-05-02T09:10:34.785Z</time></trkpt><trkpt lat="38.8999058" lon="20.7979885"><ele>72.0</ele><time>2026-05-02T09:10:35.785Z</time></trkpt><trkpt lat="38.9001211" lon="20.798096"><ele>69.0</ele><time>2026-05-02T09:10:36.785Z</time></trkpt><trkpt lat="38.9003307" lon="20.7982029"><ele>66.0</ele><time>2026-05-02T09:10:37.785Z</time></trkpt><trkpt lat="38.9005373" lon="20.7983102"><ele>63.0</ele><time>2026-05-02T09:10:38.784Z</time></trkpt><trkpt lat="38.9007393" lon="20.7984175"><ele>63.0</ele><time>2026-05-02T09:10:39.784Z</time></trkpt><trkpt lat="38.9009389" lon="20.7985281"><ele>63.0</ele><time>2026-05-02T09:10:40.785Z</time></trkpt><trkpt lat="38.9011407" lon="20.7986339"><ele>63.0</ele><time>2026-05-02T09:10:41.784Z</time></trkpt><trkpt lat="38.9013393" lon="20.7987388"><ele>63.0</ele><time>2026-05-02T09:10:42.784Z</time></trkpt><trkpt lat="38.9015361" lon="20.7988446"><ele>63.0</ele><time>2026-05-02T09:10:43.785Z</time></trkpt><trkpt lat="38.9017326" lon="20.7989511"><ele>63.0</ele><time>2026-05-02T09:10:44.785Z</time></trkpt><trkpt lat="38.9019331" lon="20.7990597"><ele>64.0</ele><time>2026-05-02T09:10:45.784Z</time></trkpt><trkpt lat="38.9021424" lon="20.799166"><ele>65.0</ele><time>2026-05-02T09:10:46.784Z</time></trkpt><trkpt lat="38.9023505" lon="20.7992718"><ele>66.0</ele><time>2026-05-02T09:10:47.785Z</time></trkpt><trkpt lat="38.9025606" lon="20.7993784"><ele>60.0</ele><time>2026-05-02T09:10:48.785Z</time></trkpt><trkpt lat="38.9027703" lon="20.7994852"><ele>54.0</ele><time>2026-05-02T09:10:49.785Z</time></trkpt><trkpt lat="38.902981" lon="20.7995918"><ele>54.0</ele><time>2026-05-02T09:10:50.784Z</time></trkpt><trkpt lat="38.9031975" lon="20.799704"><ele>54.0</ele><time>2026-05-02T09:10:51.785Z</time></trkpt><trkpt lat="38.9034138" lon="20.7998166"><ele>52.5</ele><time>2026-05-02T09:10:52.784Z</time></trkpt><trkpt lat="38.9036277" lon="20.7999326"><ele>51.0</ele><time>2026-05-02T09:10:53.784Z</time></trkpt><trkpt lat="38.9038382" lon="20.8000377"><ele>51.0</ele><time>2026-05-02T09:10:54.785Z</time></trkpt><trkpt lat="38.9040486" lon="20.8001434"><ele>51.0</ele><time>2026-05-02T09:10:55.784Z</time></trkpt><trkpt lat="38.9042594" lon="20.8002386"><ele>51.0</ele><time>2026-05-02T09:10:56.785Z</time></trkpt><trkpt lat="38.9044679" lon="20.8003297"><ele>49.666666666666664</ele><time>2026-05-02T09:10:57.785Z</time></trkpt><trkpt lat="38.9046809" lon="20.8004169"><ele>48.33333333333333</ele><time>2026-05-02T09:10:58.785Z</time></trkpt><trkpt lat="38.904895" lon="20.8005035"><ele>47.0</ele><time>2026-05-02T09:10:59.784Z</time></trkpt><trkpt lat="38.9051148" lon="20.8005733"><ele>47.0</ele><time>2026-05-02T09:11:00.785Z</time></trkpt><trkpt lat="38.9053307" lon="20.8006348"><ele>47.0</ele><time>2026-05-02T09:11:01.784Z</time></trkpt><trkpt lat="38.9055489" lon="20.8007004"><ele>47.0</ele><time>2026-05-02T09:11:02.785Z</time></trkpt><trkpt lat="38.9057658" lon="20.8007621"><ele>44.666666666666664</ele><time>2026-05-02T09:11:03.785Z</time></trkpt><trkpt lat="38.9059789" lon="20.8008216"><ele>42.333333333333336</ele><time>2026-05-02T09:11:04.785Z</time></trkpt><trkpt lat="38.9061912" lon="20.8008844"><ele>40.0</ele><time>2026-05-02T09:11:05.785Z</time></trkpt><trkpt lat="38.9064014" lon="20.8009435"><ele>41.0</ele><time>2026-05-02T09:11:06.785Z</time></trkpt><trkpt lat="38.906612" lon="20.8010023"><ele>42.0</ele><time>2026-05-02T09:11:07.785Z</time></trkpt><trkpt lat="38.9068174" lon="20.8010658"><ele>43.0</ele><time>2026-05-02T09:11:08.785Z</time></trkpt><trkpt lat="38.9070243" lon="20.8011276"><ele>39.0</ele><time>2026-05-02T09:11:09.785Z</time></trkpt><trkpt lat="38.9072258" lon="20.8011944"><ele>35.0</ele><time>2026-05-02T09:11:10.785Z</time></trkpt><trkpt lat="38.9074236" lon="20.8012715"><ele>31.0</ele><time>2026-05-02T09:11:11.784Z</time></trkpt><trkpt lat="38.9076211" lon="20.8013596"><ele>29.666666666666668</ele><time>2026-05-02T09:11:12.784Z</time></trkpt><trkpt lat="38.9078143" lon="20.801457"><ele>28.333333333333336</ele><time>2026-05-02T09:11:13.785Z</time></trkpt><trkpt lat="38.9080058" lon="20.8015593"><ele>27.0</ele><time>2026-05-02T09:11:14.784Z</time></trkpt><trkpt lat="38.9081944" lon="20.8016728"><ele>27.0</ele><time>2026-05-02T09:11:15.785Z</time></trkpt><trkpt lat="38.9083817" lon="20.801797"><ele>27.0</ele><time>2026-05-02T09:11:16.784Z</time></trkpt><trkpt lat="38.908565" lon="20.8019328"><ele>27.0</ele><time>2026-05-02T09:11:17.785Z</time></trkpt><trkpt lat="38.9087458" lon="20.8020731"><ele>25.666666666666668</ele><time>2026-05-02T09:11:18.785Z</time></trkpt><trkpt lat="38.9089199" lon="20.8022215"><ele>24.333333333333336</ele><time>2026-05-02T09:11:19.784Z</time></trkpt><trkpt lat="38.9090936" lon="20.8023742"><ele>23.0</ele><time>2026-05-02T09:11:20.784Z</time></trkpt><trkpt lat="38.9092639" lon="20.8025383"><ele>23.0</ele><time>2026-05-02T09:11:21.785Z</time></trkpt><trkpt lat="38.9094333" lon="20.802704"><ele>23.0</ele><time>2026-05-02T09:11:22.784Z</time></trkpt><trkpt lat="38.9095933" lon="20.8028723"><ele>23.0</ele><time>2026-05-02T09:11:23.784Z</time></trkpt><trkpt lat="38.9097524" lon="20.8030425"><ele>23.0</ele><time>2026-05-02T09:11:24.785Z</time></trkpt><trkpt lat="38.9099103" lon="20.8032095"><ele>23.0</ele><time>2026-05-02T09:11:25.784Z</time></trkpt><trkpt lat="38.9100621" lon="20.8033739"><ele>23.0</ele><time>2026-05-02T09:11:26.785Z</time></trkpt><trkpt lat="38.9102136" lon="20.8035341"><ele>23.0</ele><time>2026-05-02T09:11:27.784Z</time></trkpt><trkpt lat="38.9103657" lon="20.8036838"><ele>23.0</ele><time>2026-05-02T09:11:28.785Z</time></trkpt><trkpt lat="38.9105128" lon="20.8038244"><ele>23.0</ele><time>2026-05-02T09:11:29.785Z</time></trkpt><trkpt lat="38.9106641" lon="20.8039531"><ele>23.0</ele><time>2026-05-02T09:11:30.784Z</time></trkpt><trkpt lat="38.9108184" lon="20.8040868"><ele>23.0</ele><time>2026-05-02T09:11:31.785Z</time></trkpt><trkpt lat="38.9109813" lon="20.8042153"><ele>23.0</ele><time>2026-05-02T09:11:32.784Z</time></trkpt><trkpt lat="38.9111501" lon="20.8043363"><ele>22.666666666666668</ele><time>2026-05-02T09:11:33.785Z</time></trkpt><trkpt lat="38.9113235" lon="20.8044547"><ele>22.333333333333332</ele><time>2026-05-02T09:11:34.784Z</time></trkpt><trkpt lat="38.9115068" lon="20.8045698"><ele>22.0</ele><time>2026-05-02T09:11:35.784Z</time></trkpt><trkpt lat="38.9116868" lon="20.8046849"><ele>21.333333333333332</ele><time>2026-05-02T09:11:36.785Z</time></trkpt><trkpt lat="38.9118721" lon="20.8048005"><ele>20.666666666666668</ele><time>2026-05-02T09:11:37.784Z</time></trkpt><trkpt lat="38.9120554" lon="20.8049208"><ele>20.0</ele><time>2026-05-02T09:11:38.785Z</time></trkpt><trkpt lat="38.9122391" lon="20.805039"><ele>20.0</ele><time>2026-05-02T09:11:39.784Z</time></trkpt><trkpt lat="38.9124266" lon="20.8051583"><ele>20.0</ele><time>2026-05-02T09:11:40.784Z</time></trkpt><trkpt lat="38.9126127" lon="20.8052761"><ele>20.0</ele><time>2026-05-02T09:11:41.784Z</time></trkpt><trkpt lat="38.9127954" lon="20.8053906"><ele>19.0</ele><time>2026-05-02T09:11:42.784Z</time></trkpt><trkpt lat="38.9129699" lon="20.8054974"><ele>18.0</ele><time>2026-05-02T09:11:43.784Z</time></trkpt><trkpt lat="38.9131487" lon="20.8056133"><ele>17.0</ele><time>2026-05-02T09:11:44.785Z</time></trkpt><trkpt lat="38.9133103" lon="20.8057222"><ele>16.666666666666668</ele><time>2026-05-02T09:11:45.785Z</time></trkpt><trkpt lat="38.9134652" lon="20.8058212"><ele>16.333333333333332</ele><time>2026-05-02T09:11:46.784Z</time></trkpt><trkpt lat="38.9136119" lon="20.8059214"><ele>16.0</ele><time>2026-05-02T09:11:47.784Z</time></trkpt><trkpt lat="38.9137538" lon="20.806011"><ele>16.666666666666664</ele><time>2026-05-02T09:11:48.785Z</time></trkpt><trkpt lat="38.9138949" lon="20.8060983"><ele>17.333333333333332</ele><time>2026-05-02T09:11:49.784Z</time></trkpt><trkpt lat="38.9140366" lon="20.8061955"><ele>18.0</ele><time>2026-05-02T09:11:50.785Z</time></trkpt><trkpt lat="38.9141781" lon="20.8063035"><ele>16.333333333333332</ele><time>2026-05-02T09:11:51.784Z</time></trkpt><trkpt lat="38.9143261" lon="20.8064216"><ele>14.666666666666666</ele><time>2026-05-02T09:11:52.784Z</time></trkpt><trkpt lat="38.9144623" lon="20.80656"><ele>13.0</ele><time>2026-05-02T09:11:53.784Z</time></trkpt><trkpt lat="38.9145919" lon="20.8067154"><ele>13.666666666666666</ele><time>2026-05-02T09:11:54.785Z</time></trkpt><trkpt lat="38.9147124" lon="20.8068913"><ele>14.333333333333332</ele><time>2026-05-02T09:11:55.784Z</time></trkpt><trkpt lat="38.9148274" lon="20.8070804"><ele>15.0</ele><time>2026-05-02T09:11:56.785Z</time></trkpt><trkpt lat="38.9149376" lon="20.8072843"><ele>15.0</ele><time>2026-05-02T09:11:57.785Z</time></trkpt><trkpt lat="38.9150372" lon="20.8074825"><ele>15.0</ele><time>2026-05-02T09:11:58.785Z</time></trkpt><trkpt lat="38.9151384" lon="20.8076901"><ele>15.0</ele><time>2026-05-02T09:11:59.784Z</time></trkpt><trkpt lat="38.9152384" lon="20.8078871"><ele>14.333333333333332</ele><time>2026-05-02T09:12:00.785Z</time></trkpt><trkpt lat="38.9153356" lon="20.8080834"><ele>13.666666666666666</ele><time>2026-05-02T09:12:01.784Z</time></trkpt><trkpt lat="38.9154352" lon="20.8082764"><ele>13.0</ele><time>2026-05-02T09:12:02.784Z</time></trkpt><trkpt lat="38.9155275" lon="20.8084714"><ele>13.0</ele><time>2026-05-02T09:12:03.785Z</time></trkpt><trkpt lat="38.9156164" lon="20.8086623"><ele>13.0</ele><time>2026-05-02T09:12:04.785Z</time></trkpt><trkpt lat="38.9156977" lon="20.8088483"><ele>13.0</ele><time>2026-05-02T09:12:05.785Z</time></trkpt><trkpt lat="38.9157689" lon="20.8090434"><ele>13.0</ele><time>2026-05-02T09:12:06.785Z</time></trkpt><trkpt lat="38.9158246" lon="20.8092438"><ele>13.0</ele><time>2026-05-02T09:12:07.784Z</time></trkpt><trkpt lat="38.9158512" lon="20.8094529"><ele>13.0</ele><time>2026-05-02T09:12:08.785Z</time></trkpt><trkpt lat="38.9158595" lon="20.8096677"><ele>13.0</ele><time>2026-05-02T09:12:09.785Z</time></trkpt><trkpt lat="38.9158586" lon="20.8098848"><ele>13.0</ele><time>2026-05-02T09:12:10.785Z</time></trkpt><trkpt lat="38.9158506" lon="20.8101022"><ele>13.0</ele><time>2026-05-02T09:12:11.785Z</time></trkpt><trkpt lat="38.9158475" lon="20.8103201"><ele>13.0</ele><time>2026-05-02T09:12:12.785Z</time></trkpt><trkpt lat="38.9158459" lon="20.8105375"><ele>13.0</ele><time>2026-05-02T09:12:13.784Z</time></trkpt><trkpt lat="38.9158455" lon="20.8107543"><ele>13.0</ele><time>2026-05-02T09:12:14.785Z</time></trkpt><trkpt lat="38.9158486" lon="20.8109606"><ele>13.333333333333332</ele><time>2026-05-02T09:12:15.784Z</time></trkpt><trkpt lat="38.9158596" lon="20.8111658"><ele>13.666666666666668</ele><time>2026-05-02T09:12:16.785Z</time></trkpt><trkpt lat="38.9158754" lon="20.8113682"><ele>14.0</ele><time>2026-05-02T09:12:17.785Z</time></trkpt><trkpt lat="38.9158976" lon="20.8115654"><ele>13.333333333333334</ele><time>2026-05-02T09:12:18.784Z</time></trkpt><trkpt lat="38.9159306" lon="20.8117573"><ele>12.666666666666668</ele><time>2026-05-02T09:12:19.785Z</time></trkpt><trkpt lat="38.9159716" lon="20.8119446"><ele>12.0</ele><time>2026-05-02T09:12:20.785Z</time></trkpt><trkpt lat="38.9160223" lon="20.8121357"><ele>11.666666666666666</ele><time>2026-05-02T09:12:21.785Z</time></trkpt><trkpt lat="38.9160849" lon="20.812327"><ele>11.333333333333332</ele><time>2026-05-02T09:12:22.784Z</time></trkpt><trkpt lat="38.9161573" lon="20.8125241"><ele>11.0</ele><time>2026-05-02T09:12:23.785Z</time></trkpt><trkpt lat="38.9162362" lon="20.8127281"><ele>10.333333333333332</ele><time>2026-05-02T09:12:24.785Z</time></trkpt><trkpt lat="38.91631" lon="20.8129283"><ele>9.666666666666666</ele><time>2026-05-02T09:12:25.785Z</time></trkpt><trkpt lat="38.9163908" lon="20.8131278"><ele>9.0</ele><time>2026-05-02T09:12:26.785Z</time></trkpt><trkpt lat="38.9164798" lon="20.8133295"><ele>10.0</ele><time>2026-05-02T09:12:27.784Z</time></trkpt><trkpt lat="38.9165589" lon="20.8135303"><ele>11.0</ele><time>2026-05-02T09:12:28.784Z</time></trkpt><trkpt lat="38.9166423" lon="20.8137323"><ele>12.0</ele><time>2026-05-02T09:12:29.784Z</time></trkpt><trkpt lat="38.9167227" lon="20.813929"><ele>12.0</ele><time>2026-05-02T09:12:30.785Z</time></trkpt><trkpt lat="38.9168002" lon="20.8141248"><ele>12.0</ele><time>2026-05-02T09:12:31.784Z</time></trkpt><trkpt lat="38.9168768" lon="20.8143133"><ele>12.0</ele><time>2026-05-02T09:12:32.785Z</time></trkpt><trkpt lat="38.9169597" lon="20.8144934"><ele>12.666666666666668</ele><time>2026-05-02T09:12:33.785Z</time></trkpt><trkpt lat="38.9170333" lon="20.8146747"><ele>13.333333333333334</ele><time>2026-05-02T09:12:34.785Z</time></trkpt><trkpt lat="38.9171019" lon="20.8148445"><ele>14.0</ele><time>2026-05-02T09:12:35.784Z</time></trkpt><trkpt lat="38.9171702" lon="20.8150137"><ele>14.25</ele><time>2026-05-02T09:12:36.784Z</time></trkpt><trkpt lat="38.9172286" lon="20.8151868"><ele>14.5</ele><time>2026-05-02T09:12:37.784Z</time></trkpt><trkpt lat="38.9172761" lon="20.8153629"><ele>14.75</ele><time>2026-05-02T09:12:38.785Z</time></trkpt><trkpt lat="38.9173124" lon="20.8155441"><ele>15.0</ele><time>2026-05-02T09:12:39.785Z</time></trkpt><trkpt lat="38.9173258" lon="20.8157303"><ele>15.0</ele><time>2026-05-02T09:12:40.785Z</time></trkpt><trkpt lat="38.9173139" lon="20.8159171"><ele>15.0</ele><time>2026-05-02T09:12:41.784Z</time></trkpt><trkpt lat="38.9172869" lon="20.8161061"><ele>15.0</ele><time>2026-05-02T09:12:42.785Z</time></trkpt><trkpt lat="38.9172479" lon="20.8162953"><ele>15.0</ele><time>2026-05-02T09:12:43.785Z</time></trkpt><trkpt lat="38.9171985" lon="20.816485"><ele>15.0</ele><time>2026-05-02T09:12:44.784Z</time></trkpt><trkpt lat="38.9171403" lon="20.8166665"><ele>15.0</ele><time>2026-05-02T09:12:45.785Z</time></trkpt><trkpt lat="38.9170762" lon="20.8168407"><ele>15.0</ele><time>2026-05-02T09:12:46.785Z</time></trkpt><trkpt lat="38.9169898" lon="20.8169988"><ele>15.0</ele><time>2026-05-02T09:12:47.785Z</time></trkpt><trkpt lat="38.9168842" lon="20.817143"><ele>15.0</ele><time>2026-05-02T09:12:48.785Z</time></trkpt><trkpt lat="38.9167642" lon="20.8172843"><ele>15.0</ele><time>2026-05-02T09:12:49.785Z</time></trkpt><trkpt lat="38.916635" lon="20.8174273"><ele>16.0</ele><time>2026-05-02T09:12:50.784Z</time></trkpt><trkpt lat="38.916497" lon="20.817574"><ele>17.0</ele><time>2026-05-02T09:12:51.784Z</time></trkpt><trkpt lat="38.9163605" lon="20.8177194"><ele>18.0</ele><time>2026-05-02T09:12:52.784Z</time></trkpt><trkpt lat="38.9162318" lon="20.8178535"><ele>19.0</ele><time>2026-05-02T09:12:53.784Z</time></trkpt><trkpt lat="38.9161117" lon="20.8179819"><ele>20.0</ele><time>2026-05-02T09:12:54.785Z</time></trkpt><trkpt lat="38.9160025" lon="20.8180952"><ele>21.0</ele><time>2026-05-02T09:12:55.785Z</time></trkpt><trkpt lat="38.9159054" lon="20.8182011"><ele>22.0</ele><time>2026-05-02T09:12:56.784Z</time></trkpt><trkpt lat="38.9158308" lon="20.8183016"><ele>22.200000000000003</ele><time>2026-05-02T09:12:57.785Z</time></trkpt><trkpt lat="38.91578" lon="20.8184077"><ele>22.4</ele><time>2026-05-02T09:12:58.785Z</time></trkpt><trkpt lat="38.9157682" lon="20.8185168"><ele>22.6</ele><time>2026-05-02T09:12:59.785Z</time></trkpt><trkpt lat="38.9157912" lon="20.8186201"><ele>22.799999999999997</ele><time>2026-05-02T09:13:00.784Z</time></trkpt><trkpt lat="38.9158574" lon="20.8187092"><ele>23.0</ele><time>2026-05-02T09:13:01.784Z</time></trkpt><trkpt lat="38.9159716" lon="20.8187757"><ele>26.333333333333336</ele><time>2026-05-02T09:13:02.785Z</time></trkpt><trkpt lat="38.9161057" lon="20.8188245"><ele>29.666666666666668</ele><time>2026-05-02T09:13:03.785Z</time></trkpt><trkpt lat="38.9162568" lon="20.8188506"><ele>33.0</ele><time>2026-05-02T09:13:04.785Z</time></trkpt><trkpt lat="38.9164208" lon="20.8188625"><ele>33.0</ele><time>2026-05-02T09:13:05.785Z</time></trkpt><trkpt lat="38.9165853" lon="20.8188455"><ele>33.0</ele><time>2026-05-02T09:13:06.784Z</time></trkpt><trkpt lat="38.9167373" lon="20.818802"><ele>33.0</ele><time>2026-05-02T09:13:07.784Z</time></trkpt><trkpt lat="38.9168712" lon="20.8187742"><ele>32.0</ele><time>2026-05-02T09:13:08.785Z</time></trkpt><trkpt lat="38.916993" lon="20.8187678"><ele>31.0</ele><time>2026-05-02T09:13:09.784Z</time></trkpt><trkpt lat="38.9171136" lon="20.8188002"><ele>30.0</ele><time>2026-05-02T09:13:10.785Z</time></trkpt><trkpt lat="38.9172204" lon="20.8188671"><ele>29.0</ele><time>2026-05-02T09:13:11.785Z</time></trkpt><trkpt lat="38.91731" lon="20.8189689"><ele>29.0</ele><time>2026-05-02T09:13:12.784Z</time></trkpt><trkpt lat="38.9173993" lon="20.819106"><ele>29.0</ele><time>2026-05-02T09:13:13.784Z</time></trkpt><trkpt lat="38.917487" lon="20.8192704"><ele>29.0</ele><time>2026-05-02T09:13:14.784Z</time></trkpt><trkpt lat="38.9175807" lon="20.8194565"><ele>27.666666666666664</ele><time>2026-05-02T09:13:15.784Z</time></trkpt><trkpt lat="38.9176761" lon="20.8196533"><ele>26.333333333333336</ele><time>2026-05-02T09:13:16.784Z</time></trkpt><trkpt lat="38.917771" lon="20.8198379"><ele>25.0</ele><time>2026-05-02T09:13:17.784Z</time></trkpt><trkpt lat="38.9178699" lon="20.8200154"><ele>27.0</ele><time>2026-05-02T09:13:18.785Z</time></trkpt><trkpt lat="38.9179663" lon="20.8201882"><ele>29.0</ele><time>2026-05-02T09:13:19.785Z</time></trkpt><trkpt lat="38.9180605" lon="20.8203467"><ele>31.0</ele><time>2026-05-02T09:13:20.784Z</time></trkpt><trkpt lat="38.9181478" lon="20.8204843"><ele>31.0</ele><time>2026-05-02T09:13:21.785Z</time></trkpt><trkpt lat="38.9182244" lon="20.8205988"><ele>31.0</ele><time>2026-05-02T09:13:22.784Z</time></trkpt><trkpt lat="38.9182922" lon="20.8206985"><ele>31.0</ele><time>2026-05-02T09:13:23.784Z</time></trkpt><trkpt lat="38.9183383" lon="20.8208071"><ele>31.0</ele><time>2026-05-02T09:13:24.784Z</time></trkpt><trkpt lat="38.9183391" lon="20.8209027"><ele>31.0</ele><time>2026-05-02T09:13:25.784Z</time></trkpt><trkpt lat="38.9183185" lon="20.8209807"><ele>31.0</ele><time>2026-05-02T09:13:26.785Z</time></trkpt><trkpt lat="38.9182555" lon="20.8210098"><ele>31.0</ele><time>2026-05-02T09:13:27.785Z</time></trkpt><trkpt lat="38.9181886" lon="20.8209639"><ele>31.0</ele><time>2026-05-02T09:13:28.784Z</time></trkpt><trkpt lat="38.9181193" lon="20.8208712"><ele>31.0</ele><time>2026-05-02T09:13:29.785Z</time></trkpt><trkpt lat="38.9180346" lon="20.8207378"><ele>31.0</ele><time>2026-05-02T09:13:30.784Z</time></trkpt><trkpt lat="38.9179375" lon="20.8205907"><ele>31.0</ele><time>2026-05-02T09:13:31.784Z</time></trkpt><trkpt lat="38.9178357" lon="20.8204512"><ele>31.0</ele><time>2026-05-02T09:13:32.785Z</time></trkpt><trkpt lat="38.9177197" lon="20.820328"><ele>31.0</ele><time>2026-05-02T09:13:33.785Z</time></trkpt><trkpt lat="38.9176031" lon="20.8202062"><ele>32.0</ele><time>2026-05-02T09:13:34.785Z</time></trkpt><trkpt lat="38.9174942" lon="20.820101"><ele>33.0</ele><time>2026-05-02T09:13:35.785Z</time></trkpt><trkpt lat="38.9173859" lon="20.8200024"><ele>34.0</ele><time>2026-05-02T09:13:36.784Z</time></trkpt><trkpt lat="38.9172768" lon="20.8199228"><ele>35.0</ele><time>2026-05-02T09:13:37.785Z</time></trkpt><trkpt lat="38.9171601" lon="20.8198603"><ele>35.0</ele><time>2026-05-02T09:13:38.785Z</time></trkpt><trkpt lat="38.9170286" lon="20.8198177"><ele>35.0</ele><time>2026-05-02T09:13:39.785Z</time></trkpt><trkpt lat="38.9168938" lon="20.8198008"><ele>35.0</ele><time>2026-05-02T09:13:40.784Z</time></trkpt><trkpt lat="38.9167564" lon="20.8198146"><ele>35.0</ele><time>2026-05-02T09:13:41.784Z</time></trkpt><trkpt lat="38.9166187" lon="20.8198469"><ele>36.0</ele><time>2026-05-02T09:13:42.785Z</time></trkpt><trkpt lat="38.9164916" lon="20.8199039"><ele>37.0</ele><time>2026-05-02T09:13:43.785Z</time></trkpt><trkpt lat="38.916371" lon="20.8199903"><ele>38.0</ele><time>2026-05-02T09:13:44.785Z</time></trkpt><trkpt lat="38.9162586" lon="20.8201042"><ele>39.0</ele><time>2026-05-02T09:13:45.785Z</time></trkpt><trkpt lat="38.9161582" lon="20.8202398"><ele>39.0</ele><time>2026-05-02T09:13:46.784Z</time></trkpt><trkpt lat="38.916064" lon="20.8204"><ele>39.0</ele><time>2026-05-02T09:13:47.784Z</time></trkpt><trkpt lat="38.9159805" lon="20.8205607"><ele>39.0</ele><time>2026-05-02T09:13:48.784Z</time></trkpt><trkpt lat="38.915911" lon="20.8207333"><ele>41.0</ele><time>2026-05-02T09:13:49.784Z</time></trkpt><trkpt lat="38.9158681" lon="20.8209105"><ele>43.0</ele><time>2026-05-02T09:13:50.784Z</time></trkpt><trkpt lat="38.915846" lon="20.8211013"><ele>45.0</ele><time>2026-05-02T09:13:51.785Z</time></trkpt><trkpt lat="38.9158578" lon="20.8212966"><ele>47.0</ele><time>2026-05-02T09:13:52.785Z</time></trkpt><trkpt lat="38.9158917" lon="20.8214989"><ele>47.33333333333333</ele><time>2026-05-02T09:13:53.785Z</time></trkpt><trkpt lat="38.9159349" lon="20.8216992"><ele>47.666666666666664</ele><time>2026-05-02T09:13:54.785Z</time></trkpt><trkpt lat="38.915969" lon="20.8218957"><ele>48.0</ele><time>2026-05-02T09:13:55.784Z</time></trkpt><trkpt lat="38.9159761" lon="20.8221001"><ele>48.0</ele><time>2026-05-02T09:13:56.784Z</time></trkpt><trkpt lat="38.9159491" lon="20.822306"><ele>48.0</ele><time>2026-05-02T09:13:57.785Z</time></trkpt><trkpt lat="38.915899" lon="20.822506"><ele>48.0</ele><time>2026-05-02T09:13:58.785Z</time></trkpt><trkpt lat="38.9158383" lon="20.8227097"><ele>42.0</ele><time>2026-05-02T09:13:59.785Z</time></trkpt><trkpt lat="38.9157726" lon="20.8229313"><ele>36.0</ele><time>2026-05-02T09:14:00.785Z</time></trkpt><trkpt lat="38.9157081" lon="20.823139"><ele>30.0</ele><time>2026-05-02T09:14:01.784Z</time></trkpt><trkpt lat="38.9156502" lon="20.8233443"><ele>27.333333333333332</ele><time>2026-05-02T09:14:02.785Z</time></trkpt><trkpt lat="38.9156151" lon="20.8235528"><ele>24.666666666666664</ele><time>2026-05-02T09:14:03.784Z</time></trkpt><trkpt lat="38.9156056" lon="20.8237684"><ele>22.0</ele><time>2026-05-02T09:14:04.785Z</time></trkpt><trkpt lat="38.9156214" lon="20.8239794"><ele>22.0</ele><time>2026-05-02T09:14:05.785Z</time></trkpt><trkpt lat="38.9156581" lon="20.8241773"><ele>22.0</ele><time>2026-05-02T09:14:06.784Z</time></trkpt><trkpt lat="38.9156976" lon="20.8243609"><ele>22.0</ele><time>2026-05-02T09:14:07.784Z</time></trkpt><trkpt lat="38.9157212" lon="20.8245416"><ele>22.0</ele><time>2026-05-02T09:14:08.785Z</time></trkpt><trkpt lat="38.9157201" lon="20.8247222"><ele>20.75</ele><time>2026-05-02T09:14:09.785Z</time></trkpt><trkpt lat="38.9156882" lon="20.8248941"><ele>19.5</ele><time>2026-05-02T09:14:10.784Z</time></trkpt><trkpt lat="38.9156245" lon="20.8250638"><ele>18.25</ele><time>2026-05-02T09:14:11.784Z</time></trkpt><trkpt lat="38.9155331" lon="20.825234"><ele>17.0</ele><time>2026-05-02T09:14:12.784Z</time></trkpt><trkpt lat="38.9154278" lon="20.8253872"><ele>14.666666666666668</ele><time>2026-05-02T09:14:13.785Z</time></trkpt><trkpt lat="38.9153101" lon="20.8255343"><ele>12.333333333333334</ele><time>2026-05-02T09:14:14.785Z</time></trkpt><trkpt lat="38.9151953" lon="20.8256891"><ele>10.0</ele><time>2026-05-02T09:14:15.785Z</time></trkpt><trkpt lat="38.9150874" lon="20.8258732"><ele>10.0</ele><time>2026-05-02T09:14:16.785Z</time></trkpt><trkpt lat="38.9150023" lon="20.8260783"><ele>10.0</ele><time>2026-05-02T09:14:17.785Z</time></trkpt><trkpt lat="38.914943" lon="20.8263"><ele>10.0</ele><time>2026-05-02T09:14:18.785Z</time></trkpt><trkpt lat="38.9149" lon="20.826543"><ele>10.0</ele><time>2026-05-02T09:14:19.785Z</time></trkpt><trkpt lat="38.9148563" lon="20.8267891"><ele>10.0</ele><time>2026-05-02T09:14:20.785Z</time></trkpt><trkpt lat="38.9148111" lon="20.8270487"><ele>10.0</ele><time>2026-05-02T09:14:21.785Z</time></trkpt><trkpt lat="38.9147604" lon="20.827314"><ele>11.333333333333334</ele><time>2026-05-02T09:14:22.785Z</time></trkpt><trkpt lat="38.9146916" lon="20.8275706"><ele>12.666666666666668</ele><time>2026-05-02T09:14:23.784Z</time></trkpt><trkpt lat="38.9146112" lon="20.8278213"><ele>14.0</ele><time>2026-05-02T09:14:24.784Z</time></trkpt><trkpt lat="38.9145202" lon="20.8280628"><ele>14.666666666666668</ele><time>2026-05-02T09:14:25.784Z</time></trkpt><trkpt lat="38.9144238" lon="20.8283014"><ele>15.333333333333332</ele><time>2026-05-02T09:14:26.785Z</time></trkpt><trkpt lat="38.9143276" lon="20.8285284"><ele>16.0</ele><time>2026-05-02T09:14:27.784Z</time></trkpt><trkpt lat="38.9142334" lon="20.8287507"><ele>16.0</ele><time>2026-05-02T09:14:28.784Z</time></trkpt><trkpt lat="38.914141" lon="20.8289682"><ele>16.0</ele><time>2026-05-02T09:14:29.784Z</time></trkpt><trkpt lat="38.9140456" lon="20.8291859"><ele>16.0</ele><time>2026-05-02T09:14:30.784Z</time></trkpt><trkpt lat="38.9139532" lon="20.8293938"><ele>15.666666666666666</ele><time>2026-05-02T09:14:31.784Z</time></trkpt><trkpt lat="38.9138625" lon="20.8295889"><ele>15.333333333333332</ele><time>2026-05-02T09:14:32.784Z</time></trkpt><trkpt lat="38.9137608" lon="20.8297662"><ele>15.0</ele><time>2026-05-02T09:14:33.784Z</time></trkpt><trkpt lat="38.9136455" lon="20.8299386"><ele>15.0</ele><time>2026-05-02T09:14:34.785Z</time></trkpt><trkpt lat="38.9135181" lon="20.8301142"><ele>15.0</ele><time>2026-05-02T09:14:35.785Z</time></trkpt><trkpt lat="38.9133877" lon="20.8302952"><ele>15.0</ele><time>2026-05-02T09:14:36.785Z</time></trkpt><trkpt lat="38.9132498" lon="20.8304767"><ele>12.666666666666666</ele><time>2026-05-02T09:14:37.785Z</time></trkpt><trkpt lat="38.9131048" lon="20.8306578"><ele>10.333333333333332</ele><time>2026-05-02T09:14:38.784Z</time></trkpt><trkpt lat="38.912957" lon="20.8308403"><ele>8.0</ele><time>2026-05-02T09:14:39.784Z</time></trkpt><trkpt lat="38.9128107" lon="20.8310231"><ele>6.666666666666666</ele><time>2026-05-02T09:14:40.784Z</time></trkpt><trkpt lat="38.9126699" lon="20.8312088"><ele>5.333333333333333</ele><time>2026-05-02T09:14:41.785Z</time></trkpt><trkpt lat="38.9125303" lon="20.8313924"><ele>4.0</ele><time>2026-05-02T09:14:42.784Z</time></trkpt><trkpt lat="38.9123971" lon="20.8315645"><ele>4.0</ele><time>2026-05-02T09:14:43.784Z</time></trkpt><trkpt lat="38.9122739" lon="20.8317284"><ele>4.0</ele><time>2026-05-02T09:14:44.784Z</time></trkpt><trkpt lat="38.9121578" lon="20.8318885"><ele>4.0</ele><time>2026-05-02T09:14:45.784Z</time></trkpt><trkpt lat="38.9120535" lon="20.832057"><ele>3.333333333333333</ele><time>2026-05-02T09:14:46.784Z</time></trkpt><trkpt lat="38.911967" lon="20.8322398"><ele>2.6666666666666665</ele><time>2026-05-02T09:14:47.784Z</time></trkpt><trkpt lat="38.9118986" lon="20.8324188"><ele>2.0</ele><time>2026-05-02T09:14:48.784Z</time></trkpt><trkpt lat="38.9118491" lon="20.8326067"><ele>1.6666666666666665</ele><time>2026-05-02T09:14:49.784Z</time></trkpt><trkpt lat="38.9118195" lon="20.8327997"><ele>1.3333333333333333</ele><time>2026-05-02T09:14:50.785Z</time></trkpt><trkpt lat="38.9118036" lon="20.8330001"><ele>1.0</ele><time>2026-05-02T09:14:51.784Z</time></trkpt><trkpt lat="38.9118068" lon="20.8332181"><ele>1.0</ele><time>2026-05-02T09:14:52.785Z</time></trkpt><trkpt lat="38.9118194" lon="20.8334627"><ele>1.0</ele><time>2026-05-02T09:14:53.785Z</time></trkpt><trkpt lat="38.9118368" lon="20.8337246"><ele>1.0</ele><time>2026-05-02T09:14:54.785Z</time></trkpt><trkpt lat="38.9118605" lon="20.8339813"><ele>0.6666666666666666</ele><time>2026-05-02T09:14:55.784Z</time></trkpt><trkpt lat="38.9118863" lon="20.834239"><ele>0.3333333333333333</ele><time>2026-05-02T09:14:56.784Z</time></trkpt><trkpt lat="38.9119115" lon="20.8344915"><ele>0.0</ele><time>2026-05-02T09:14:57.785Z</time></trkpt><trkpt lat="38.9119361" lon="20.8347419"><ele>0.0</ele><time>2026-05-02T09:14:58.784Z</time></trkpt><trkpt lat="38.9119611" lon="20.8349929"><ele>0.0</ele><time>2026-05-02T09:14:59.784Z</time></trkpt><trkpt lat="38.911981" lon="20.8352445"><ele>0.0</ele><time>2026-05-02T09:15:00.784Z</time></trkpt><trkpt lat="38.911999" lon="20.8354958"><ele>0.0</ele><time>2026-05-02T09:15:01.785Z</time></trkpt><trkpt lat="38.9120221" lon="20.835746"><ele>0.0</ele><time>2026-05-02T09:15:02.784Z</time></trkpt><trkpt lat="38.9120441" lon="20.8359965"><ele>0.0</ele><time>2026-05-02T09:15:03.784Z</time></trkpt><trkpt lat="38.9120674" lon="20.836247"><ele>0.0</ele><time>2026-05-02T09:15:04.784Z</time></trkpt><trkpt lat="38.912087" lon="20.8365"><ele>0.0</ele><time>2026-05-02T09:15:05.784Z</time></trkpt><trkpt lat="38.9121082" lon="20.8367563"><ele>0.0</ele><time>2026-05-02T09:15:06.784Z</time></trkpt><trkpt lat="38.9121312" lon="20.8370121"><ele>0.3333333333333333</ele><time>2026-05-02T09:15:07.785Z</time></trkpt><trkpt lat="38.9121512" lon="20.8372739"><ele>0.6666666666666666</ele><time>2026-05-02T09:15:08.784Z</time></trkpt><trkpt lat="38.9121758" lon="20.8375316"><ele>1.0</ele><time>2026-05-02T09:15:09.785Z</time></trkpt><trkpt lat="38.9122027" lon="20.8377905"><ele>2.0</ele><time>2026-05-02T09:15:10.784Z</time></trkpt><trkpt lat="38.912227" lon="20.8380406"><ele>3.0</ele><time>2026-05-02T09:15:11.784Z</time></trkpt><trkpt lat="38.9122519" lon="20.8382978"><ele>4.0</ele><time>2026-05-02T09:15:12.784Z</time></trkpt><trkpt lat="38.9122713" lon="20.838549"><ele>4.333333333333333</ele><time>2026-05-02T09:15:13.785Z</time></trkpt><trkpt lat="38.9122935" lon="20.8387955"><ele>4.666666666666667</ele><time>2026-05-02T09:15:14.785Z</time></trkpt><trkpt lat="38.9123214" lon="20.8390426"><ele>5.0</ele><time>2026-05-02T09:15:15.784Z</time></trkpt><trkpt lat="38.9123435" lon="20.8392969"><ele>5.0</ele><time>2026-05-02T09:15:16.785Z</time></trkpt><trkpt lat="38.9123662" lon="20.8395529"><ele>5.0</ele><time>2026-05-02T09:15:17.784Z</time></trkpt><trkpt lat="38.9123885" lon="20.8398102"><ele>5.0</ele><time>2026-05-02T09:15:18.784Z</time></trkpt><trkpt lat="38.9124098" lon="20.8400549"><ele>5.0</ele><time>2026-05-02T09:15:19.785Z</time></trkpt><trkpt lat="38.9124321" lon="20.8403075"><ele>5.0</ele><time>2026-05-02T09:15:20.785Z</time></trkpt><trkpt lat="38.9124558" lon="20.840561"><ele>5.0</ele><time>2026-05-02T09:15:21.785Z</time></trkpt><trkpt lat="38.9124776" lon="20.8408132"><ele>5.666666666666667</ele><time>2026-05-02T09:15:22.784Z</time></trkpt><trkpt lat="38.9124974" lon="20.8410647"><ele>6.333333333333334</ele><time>2026-05-02T09:15:23.784Z</time></trkpt><trkpt lat="38.912522" lon="20.841314"><ele>7.0</ele><time>2026-05-02T09:15:24.785Z</time></trkpt><trkpt lat="38.9125393" lon="20.8415584"><ele>7.666666666666667</ele><time>2026-05-02T09:15:25.784Z</time></trkpt><trkpt lat="38.9125596" lon="20.8418076"><ele>8.333333333333334</ele><time>2026-05-02T09:15:26.784Z</time></trkpt><trkpt lat="38.9125799" lon="20.8420571"><ele>9.0</ele><time>2026-05-02T09:15:27.784Z</time></trkpt><trkpt lat="38.9125993" lon="20.8423059"><ele>9.0</ele><time>2026-05-02T09:15:28.785Z</time></trkpt><trkpt lat="38.912621" lon="20.8425456"><ele>9.0</ele><time>2026-05-02T09:15:29.785Z</time></trkpt><trkpt lat="38.912641" lon="20.8427876"><ele>9.0</ele><time>2026-05-02T09:15:30.785Z</time></trkpt><trkpt lat="38.9126693" lon="20.8430268"><ele>10.0</ele><time>2026-05-02T09:15:31.784Z</time></trkpt><trkpt lat="38.9126889" lon="20.8432685"><ele>11.0</ele><time>2026-05-02T09:15:32.784Z</time></trkpt><trkpt lat="38.9127123" lon="20.8435074"><ele>12.0</ele><time>2026-05-02T09:15:33.785Z</time></trkpt><trkpt lat="38.9127394" lon="20.8437404"><ele>13.0</ele><time>2026-05-02T09:15:34.785Z</time></trkpt><trkpt lat="38.9127638" lon="20.8439792"><ele>14.0</ele><time>2026-05-02T09:15:35.785Z</time></trkpt><trkpt lat="38.9127796" lon="20.8442098"><ele>15.0</ele><time>2026-05-02T09:15:36.785Z</time></trkpt><trkpt lat="38.9127977" lon="20.844429"><ele>15.333333333333332</ele><time>2026-05-02T09:15:37.785Z</time></trkpt><trkpt lat="38.9128156" lon="20.8446325"><ele>15.666666666666666</ele><time>2026-05-02T09:15:38.785Z</time></trkpt><trkpt lat="38.912827" lon="20.8448289"><ele>16.0</ele><time>2026-05-02T09:15:39.785Z</time></trkpt><trkpt lat="38.912846" lon="20.845025"><ele>16.0</ele><time>2026-05-02T09:15:40.785Z</time></trkpt><trkpt lat="38.9128646" lon="20.8452063"><ele>16.0</ele><time>2026-05-02T09:15:41.785Z</time></trkpt><trkpt lat="38.9128907" lon="20.8453785"><ele>16.0</ele><time>2026-05-02T09:15:42.784Z</time></trkpt><trkpt lat="38.9129337" lon="20.8455435"><ele>16.0</ele><time>2026-05-02T09:15:43.785Z</time></trkpt><trkpt lat="38.9129908" lon="20.8457047"><ele>16.0</ele><time>2026-05-02T09:15:44.784Z</time></trkpt><trkpt lat="38.913076" lon="20.8458535"><ele>16.0</ele><time>2026-05-02T09:15:45.785Z</time></trkpt><trkpt lat="38.9131771" lon="20.845996"><ele>16.0</ele><time>2026-05-02T09:15:46.784Z</time></trkpt><trkpt lat="38.9132951" lon="20.8461366"><ele>16.333333333333332</ele><time>2026-05-02T09:15:47.784Z</time></trkpt><trkpt lat="38.9134309" lon="20.8462726"><ele>16.666666666666668</ele><time>2026-05-02T09:15:48.784Z</time></trkpt><trkpt lat="38.9135727" lon="20.8464125"><ele>17.0</ele><time>2026-05-02T09:15:49.784Z</time></trkpt><trkpt lat="38.9137136" lon="20.8465553"><ele>17.0</ele><time>2026-05-02T09:15:50.784Z</time></trkpt><trkpt lat="38.9138488" lon="20.8467054"><ele>17.0</ele><time>2026-05-02T09:15:51.785Z</time></trkpt><trkpt lat="38.9139864" lon="20.8468625"><ele>17.0</ele><time>2026-05-02T09:15:52.785Z</time></trkpt><trkpt lat="38.9141168" lon="20.8470227"><ele>17.0</ele><time>2026-05-02T09:15:53.784Z</time></trkpt><trkpt lat="38.9142356" lon="20.8471838"><ele>17.0</ele><time>2026-05-02T09:15:54.785Z</time></trkpt><trkpt lat="38.9143459" lon="20.8473535"><ele>17.0</ele><time>2026-05-02T09:15:55.784Z</time></trkpt><trkpt lat="38.9144507" lon="20.8475119"><ele>16.666666666666668</ele><time>2026-05-02T09:15:56.784Z</time></trkpt><trkpt lat="38.914536" lon="20.847681"><ele>16.333333333333332</ele><time>2026-05-02T09:15:57.784Z</time></trkpt><trkpt lat="38.9146093" lon="20.8478615"><ele>16.0</ele><time>2026-05-02T09:15:58.785Z</time></trkpt><trkpt lat="38.9146737" lon="20.8480493"><ele>16.0</ele><time>2026-05-02T09:15:59.785Z</time></trkpt><trkpt lat="38.9147404" lon="20.8482418"><ele>16.0</ele><time>2026-05-02T09:16:00.785Z</time></trkpt><trkpt lat="38.9148036" lon="20.8484461"><ele>16.0</ele><time>2026-05-02T09:16:01.784Z</time></trkpt><trkpt lat="38.914867" lon="20.8486534"><ele>14.666666666666666</ele><time>2026-05-02T09:16:02.784Z</time></trkpt><trkpt lat="38.914933" lon="20.8488689"><ele>13.333333333333332</ele><time>2026-05-02T09:16:03.784Z</time></trkpt><trkpt lat="38.9149952" lon="20.849087"><ele>12.0</ele><time>2026-05-02T09:16:04.785Z</time></trkpt><trkpt lat="38.915055" lon="20.8493101"><ele>10.333333333333334</ele><time>2026-05-02T09:16:05.784Z</time></trkpt><trkpt lat="38.9151181" lon="20.8495401"><ele>8.666666666666668</ele><time>2026-05-02T09:16:06.785Z</time></trkpt><trkpt lat="38.9151825" lon="20.849772"><ele>7.0</ele><time>2026-05-02T09:16:07.784Z</time></trkpt><trkpt lat="38.9152462" lon="20.8500024"><ele>6.666666666666667</ele><time>2026-05-02T09:16:08.785Z</time></trkpt><trkpt lat="38.9153114" lon="20.8502322"><ele>6.333333333333334</ele><time>2026-05-02T09:16:09.784Z</time></trkpt><trkpt lat="38.9153771" lon="20.8504672"><ele>6.0</ele><time>2026-05-02T09:16:10.785Z</time></trkpt><trkpt lat="38.9154439" lon="20.8506979"><ele>6.0</ele><time>2026-05-02T09:16:11.785Z</time></trkpt><trkpt lat="38.9155069" lon="20.8509292"><ele>6.0</ele><time>2026-05-02T09:16:12.785Z</time></trkpt><trkpt lat="38.9155728" lon="20.8511562"><ele>6.0</ele><time>2026-05-02T09:16:13.785Z</time></trkpt><trkpt lat="38.9156359" lon="20.8513779"><ele>6.0</ele><time>2026-05-02T09:16:14.785Z</time></trkpt><trkpt lat="38.9156943" lon="20.8516019"><ele>6.0</ele><time>2026-05-02T09:16:15.785Z</time></trkpt><trkpt lat="38.9157477" lon="20.8518349"><ele>6.0</ele><time>2026-05-02T09:16:16.785Z</time></trkpt><trkpt lat="38.9157991" lon="20.8520628"><ele>6.333333333333334</ele><time>2026-05-02T09:16:17.785Z</time></trkpt><trkpt lat="38.9158533" lon="20.8522943"><ele>6.666666666666667</ele><time>2026-05-02T09:16:18.784Z</time></trkpt><trkpt lat="38.9159008" lon="20.8525302"><ele>7.0</ele><time>2026-05-02T09:16:19.785Z</time></trkpt><trkpt lat="38.9159508" lon="20.8527693"><ele>5.0</ele><time>2026-05-02T09:16:20.785Z</time></trkpt><trkpt lat="38.9159797" lon="20.8530176"><ele>3.0</ele><time>2026-05-02T09:16:21.785Z</time></trkpt><trkpt lat="38.9160164" lon="20.8532737"><ele>1.0</ele><time>2026-05-02T09:16:22.784Z</time></trkpt><trkpt lat="38.9160538" lon="20.8535272"><ele>1.0</ele><time>2026-05-02T09:16:23.785Z</time></trkpt><trkpt lat="38.9160881" lon="20.85378"><ele>1.0</ele><time>2026-05-02T09:16:24.784Z</time></trkpt><trkpt lat="38.9161241" lon="20.8540258"><ele>1.0</ele><time>2026-05-02T09:16:25.785Z</time></trkpt><trkpt lat="38.9161617" lon="20.8542804"><ele>1.0</ele><time>2026-05-02T09:16:26.784Z</time></trkpt><trkpt lat="38.9162054" lon="20.8545353"><ele>1.0</ele><time>2026-05-02T09:16:27.785Z</time></trkpt><trkpt lat="38.9162494" lon="20.8547926"><ele>1.0</ele><time>2026-05-02T09:16:28.785Z</time></trkpt><trkpt lat="38.9162907" lon="20.8550529"><ele>1.3333333333333333</ele><time>2026-05-02T09:16:29.785Z</time></trkpt><trkpt lat="38.9163307" lon="20.8553084"><ele>1.6666666666666665</ele><time>2026-05-02T09:16:30.785Z</time></trkpt><trkpt lat="38.9163711" lon="20.8555579"><ele>2.0</ele><time>2026-05-02T09:16:31.784Z</time></trkpt><trkpt lat="38.9164135" lon="20.8557958"><ele>4.0</ele><time>2026-05-02T09:16:32.784Z</time></trkpt><trkpt lat="38.9164546" lon="20.8560343"><ele>6.0</ele><time>2026-05-02T09:16:33.784Z</time></trkpt><trkpt lat="38.9164901" lon="20.8562738"><ele>8.0</ele><time>2026-05-02T09:16:34.784Z</time></trkpt><trkpt lat="38.9165253" lon="20.8565132"><ele>8.0</ele><time>2026-05-02T09:16:35.784Z</time></trkpt><trkpt lat="38.9165612" lon="20.8567481"><ele>8.0</ele><time>2026-05-02T09:16:36.784Z</time></trkpt><trkpt lat="38.9165912" lon="20.8569732"><ele>8.0</ele><time>2026-05-02T09:16:37.784Z</time></trkpt><trkpt lat="38.9166162" lon="20.8571902"><ele>8.666666666666666</ele><time>2026-05-02T09:16:38.784Z</time></trkpt><trkpt lat="38.9166295" lon="20.8573991"><ele>9.333333333333334</ele><time>2026-05-02T09:16:39.785Z</time></trkpt><trkpt lat="38.916637" lon="20.8576021"><ele>10.0</ele><time>2026-05-02T09:16:40.784Z</time></trkpt><trkpt lat="38.9166262" lon="20.8578137"><ele>11.0</ele><time>2026-05-02T09:16:41.785Z</time></trkpt><trkpt lat="38.9166034" lon="20.8580311"><ele>12.0</ele><time>2026-05-02T09:16:42.785Z</time></trkpt><trkpt lat="38.9165827" lon="20.8582289"><ele>13.0</ele><time>2026-05-02T09:16:43.784Z</time></trkpt><trkpt lat="38.9165659" lon="20.8584303"><ele>12.5</ele><time>2026-05-02T09:16:44.785Z</time></trkpt><trkpt lat="38.9165547" lon="20.8586097"><ele>12.0</ele><time>2026-05-02T09:16:45.785Z</time></trkpt><trkpt lat="38.9165488" lon="20.8587746"><ele>11.5</ele><time>2026-05-02T09:16:46.785Z</time></trkpt><trkpt lat="38.9165705" lon="20.8589257"><ele>11.0</ele><time>2026-05-02T09:16:47.785Z</time></trkpt><trkpt lat="38.9166192" lon="20.8590839"><ele>11.0</ele><time>2026-05-02T09:16:48.784Z</time></trkpt><trkpt lat="38.9166982" lon="20.8592336"><ele>11.0</ele><time>2026-05-02T09:16:49.785Z</time></trkpt><trkpt lat="38.9167861" lon="20.8593805"><ele>11.0</ele><time>2026-05-02T09:16:50.784Z</time></trkpt><trkpt lat="38.9168872" lon="20.8595181"><ele>11.0</ele><time>2026-05-02T09:16:51.784Z</time></trkpt><trkpt lat="38.9169862" lon="20.8596562"><ele>11.0</ele><time>2026-05-02T09:16:52.785Z</time></trkpt><trkpt lat="38.9170905" lon="20.8597991"><ele>11.0</ele><time>2026-05-02T09:16:53.784Z</time></trkpt><trkpt lat="38.9171962" lon="20.8599408"><ele>11.0</ele><time>2026-05-02T09:16:54.785Z</time></trkpt><trkpt lat="38.917301" lon="20.8600835"><ele>10.333333333333332</ele><time>2026-05-02T09:16:55.785Z</time></trkpt><trkpt lat="38.9174096" lon="20.8602223"><ele>9.666666666666666</ele><time>2026-05-02T09:16:56.784Z</time></trkpt><trkpt lat="38.9175002" lon="20.8603795"><ele>9.0</ele><time>2026-05-02T09:16:57.784Z</time></trkpt><trkpt lat="38.9175744" lon="20.8605489"><ele>7.0</ele><time>2026-05-02T09:16:58.785Z</time></trkpt><trkpt lat="38.9176499" lon="20.8607063"><ele>5.0</ele><time>2026-05-02T09:16:59.784Z</time></trkpt><trkpt lat="38.9177285" lon="20.8608614"><ele>3.0</ele><time>2026-05-02T09:17:00.784Z</time></trkpt><trkpt lat="38.9178088" lon="20.8609948"><ele>1.0</ele><time>2026-05-02T09:17:01.785Z</time></trkpt><trkpt lat="38.9178842" lon="20.861109"><ele>1.0</ele><time>2026-05-02T09:17:02.784Z</time></trkpt><trkpt lat="38.9179706" lon="20.861224"><ele>1.0</ele><time>2026-05-02T09:17:03.784Z</time></trkpt><trkpt lat="38.9180534" lon="20.8613492"><ele>1.0</ele><time>2026-05-02T09:17:04.784Z</time></trkpt><trkpt lat="38.9181177" lon="20.8614861"><ele>1.0</ele><time>2026-05-02T09:17:05.784Z</time></trkpt><trkpt lat="38.9181516" lon="20.8616233"><ele>1.0</ele><time>2026-05-02T09:17:06.784Z</time></trkpt><trkpt lat="38.9181426" lon="20.861768"><ele>1.0</ele><time>2026-05-02T09:17:07.785Z</time></trkpt><trkpt lat="38.9181067" lon="20.8619243"><ele>1.0</ele><time>2026-05-02T09:17:08.785Z</time></trkpt><trkpt lat="38.9180502" lon="20.86209"><ele>1.0</ele><time>2026-05-02T09:17:09.784Z</time></trkpt><trkpt lat="38.9179969" lon="20.8622845"><ele>0.3333333333333333</ele><time>2026-05-02T09:17:10.784Z</time></trkpt><trkpt lat="38.9179502" lon="20.8624954"><ele>-0.3333333333333333</ele><time>2026-05-02T09:17:11.784Z</time></trkpt><trkpt lat="38.9179156" lon="20.8627032"><ele>-1.0</ele><time>2026-05-02T09:17:12.785Z</time></trkpt><trkpt lat="38.9179003" lon="20.862917"><ele>-1.0</ele><time>2026-05-02T09:17:13.784Z</time></trkpt><trkpt lat="38.9179054" lon="20.8631331"><ele>-1.0</ele><time>2026-05-02T09:17:14.785Z</time></trkpt><trkpt lat="38.9179299" lon="20.8633345"><ele>-1.0</ele><time>2026-05-02T09:17:15.784Z</time></trkpt><trkpt lat="38.9179617" lon="20.8635354"><ele>-1.0</ele><time>2026-05-02T09:17:16.784Z</time></trkpt><trkpt lat="38.9179811" lon="20.8637387"><ele>-1.0</ele><time>2026-05-02T09:17:17.785Z</time></trkpt><trkpt lat="38.9179929" lon="20.8639461"><ele>-1.0</ele><time>2026-05-02T09:17:18.785Z</time></trkpt><trkpt lat="38.9179947" lon="20.8641549"><ele>-1.3333333333333333</ele><time>2026-05-02T09:17:19.784Z</time></trkpt><trkpt lat="38.9179878" lon="20.8643623"><ele>-1.6666666666666665</ele><time>2026-05-02T09:17:20.784Z</time></trkpt><trkpt lat="38.9179771" lon="20.8645847"><ele>-2.0</ele><time>2026-05-02T09:17:21.785Z</time></trkpt><trkpt lat="38.917969" lon="20.8648008"><ele>-2.0</ele><time>2026-05-02T09:17:22.784Z</time></trkpt><trkpt lat="38.9179697" lon="20.8650168"><ele>-2.0</ele><time>2026-05-02T09:17:23.785Z</time></trkpt><trkpt lat="38.9179708" lon="20.8652284"><ele>-2.0</ele><time>2026-05-02T09:17:24.785Z</time></trkpt><trkpt lat="38.9179664" lon="20.865434"><ele>-2.333333333333333</ele><time>2026-05-02T09:17:25.784Z</time></trkpt><trkpt lat="38.9179472" lon="20.8656553"><ele>-2.6666666666666665</ele><time>2026-05-02T09:17:26.785Z</time></trkpt><trkpt lat="38.9179204" lon="20.8658802"><ele>-3.0</ele><time>2026-05-02T09:17:27.784Z</time></trkpt><trkpt lat="38.9178911" lon="20.8660989"><ele>-3.333333333333333</ele><time>2026-05-02T09:17:28.785Z</time></trkpt><trkpt lat="38.9178628" lon="20.8663079"><ele>-3.6666666666666665</ele><time>2026-05-02T09:17:29.784Z</time></trkpt><trkpt lat="38.9178285" lon="20.8664974"><ele>-4.0</ele><time>2026-05-02T09:17:30.784Z</time></trkpt><trkpt lat="38.9177705" lon="20.8666846"><ele>-3.0</ele><time>2026-05-02T09:17:31.785Z</time></trkpt><trkpt lat="38.9176866" lon="20.8668706"><ele>-2.0</ele><time>2026-05-02T09:17:32.785Z</time></trkpt><trkpt lat="38.9175929" lon="20.867036"><ele>-1.0</ele><time>2026-05-02T09:17:33.785Z</time></trkpt><trkpt lat="38.9174902" lon="20.8671997"><ele>-0.3333333333333333</ele><time>2026-05-02T09:17:34.785Z</time></trkpt><trkpt lat="38.9173964" lon="20.8673619"><ele>0.3333333333333333</ele><time>2026-05-02T09:17:35.785Z</time></trkpt><trkpt lat="38.9173174" lon="20.8675445"><ele>1.0</ele><time>2026-05-02T09:17:36.785Z</time></trkpt><trkpt lat="38.917261" lon="20.8677513"><ele>1.0</ele><time>2026-05-02T09:17:37.785Z</time></trkpt><trkpt lat="38.9172118" lon="20.8679728"><ele>1.0</ele><time>2026-05-02T09:17:38.784Z</time></trkpt><trkpt lat="38.9171685" lon="20.868213"><ele>1.0</ele><time>2026-05-02T09:17:39.784Z</time></trkpt><trkpt lat="38.9171516" lon="20.8684569"><ele>0.3333333333333333</ele><time>2026-05-02T09:17:40.784Z</time></trkpt><trkpt lat="38.9171494" lon="20.8686996"><ele>-0.3333333333333333</ele><time>2026-05-02T09:17:41.784Z</time></trkpt><trkpt lat="38.9171571" lon="20.8689414"><ele>-1.0</ele><time>2026-05-02T09:17:42.785Z</time></trkpt><trkpt lat="38.9171652" lon="20.8691814"><ele>-1.0</ele><time>2026-05-02T09:17:43.785Z</time></trkpt><trkpt lat="38.9171644" lon="20.8694089"><ele>-1.0</ele><time>2026-05-02T09:17:44.784Z</time></trkpt><trkpt lat="38.9171529" lon="20.8696166"><ele>-1.0</ele><time>2026-05-02T09:17:45.785Z</time></trkpt><trkpt lat="38.9171252" lon="20.8698117"><ele>-1.0</ele><time>2026-05-02T09:17:46.785Z</time></trkpt><trkpt lat="38.9170734" lon="20.8699862"><ele>-1.0</ele><time>2026-05-02T09:17:47.784Z</time></trkpt><trkpt lat="38.916991" lon="20.8701573"><ele>-1.0</ele><time>2026-05-02T09:17:48.784Z</time></trkpt><trkpt lat="38.9168916" lon="20.8703219"><ele>-1.3333333333333333</ele><time>2026-05-02T09:17:49.785Z</time></trkpt><trkpt lat="38.9167796" lon="20.8704947"><ele>-1.6666666666666665</ele><time>2026-05-02T09:17:50.785Z</time></trkpt><trkpt lat="38.9166729" lon="20.8706878"><ele>-2.0</ele><time>2026-05-02T09:17:51.785Z</time></trkpt><trkpt lat="38.916567" lon="20.8709037"><ele>-2.0</ele><time>2026-05-02T09:17:52.785Z</time></trkpt><trkpt lat="38.9164678" lon="20.8711258"><ele>-2.0</ele><time>2026-05-02T09:17:53.784Z</time></trkpt><trkpt lat="38.916376" lon="20.8713501"><ele>-2.0</ele><time>2026-05-02T09:17:54.785Z</time></trkpt><trkpt lat="38.9162931" lon="20.871579"><ele>-2.0</ele><time>2026-05-02T09:17:55.785Z</time></trkpt><trkpt lat="38.9162285" lon="20.8718043"><ele>-2.0</ele><time>2026-05-02T09:17:56.784Z</time></trkpt><trkpt lat="38.9161645" lon="20.8720382"><ele>-2.0</ele><time>2026-05-02T09:17:57.785Z</time></trkpt><trkpt lat="38.9160948" lon="20.8722662"><ele>-2.0</ele><time>2026-05-02T09:17:58.785Z</time></trkpt><trkpt lat="38.916013" lon="20.8724923"><ele>-2.0</ele><time>2026-05-02T09:17:59.784Z</time></trkpt><trkpt lat="38.915928" lon="20.8727185"><ele>-2.0</ele><time>2026-05-02T09:18:00.785Z</time></trkpt><trkpt lat="38.9158427" lon="20.8729515"><ele>-1.3333333333333333</ele><time>2026-05-02T09:18:01.785Z</time></trkpt><trkpt lat="38.9157549" lon="20.8731883"><ele>-0.6666666666666666</ele><time>2026-05-02T09:18:02.784Z</time></trkpt><trkpt lat="38.9156626" lon="20.8734225"><ele>0.0</ele><time>2026-05-02T09:18:03.785Z</time></trkpt><trkpt lat="38.9155681" lon="20.8736532"><ele>0.0</ele><time>2026-05-02T09:18:04.785Z</time></trkpt><trkpt lat="38.9154712" lon="20.8738826"><ele>0.0</ele><time>2026-05-02T09:18:05.785Z</time></trkpt><trkpt lat="38.9153774" lon="20.8740993"><ele>0.0</ele><time>2026-05-02T09:18:06.785Z</time></trkpt><trkpt lat="38.9152885" lon="20.8743039"><ele>-0.6666666666666666</ele><time>2026-05-02T09:18:07.784Z</time></trkpt><trkpt lat="38.9152069" lon="20.8745042"><ele>-1.3333333333333333</ele><time>2026-05-02T09:18:08.785Z</time></trkpt><trkpt lat="38.9151346" lon="20.8747054"><ele>-2.0</ele><time>2026-05-02T09:18:09.785Z</time></trkpt><trkpt lat="38.9150631" lon="20.8748964"><ele>-1.3333333333333333</ele><time>2026-05-02T09:18:10.784Z</time></trkpt><trkpt lat="38.9149857" lon="20.8750728"><ele>-0.6666666666666666</ele><time>2026-05-02T09:18:11.784Z</time></trkpt><trkpt lat="38.9148962" lon="20.8752317"><ele>0.0</ele><time>2026-05-02T09:18:12.785Z</time></trkpt><trkpt lat="38.9147929" lon="20.8753753"><ele>0.0</ele><time>2026-05-02T09:18:13.784Z</time></trkpt><trkpt lat="38.9146838" lon="20.8755184"><ele>0.0</ele><time>2026-05-02T09:18:14.784Z</time></trkpt><trkpt lat="38.9145787" lon="20.8756769"><ele>0.0</ele><time>2026-05-02T09:18:15.785Z</time></trkpt><trkpt lat="38.9144803" lon="20.8758475"><ele>0.75</ele><time>2026-05-02T09:18:16.785Z</time></trkpt><trkpt lat="38.914393" lon="20.8760131"><ele>1.5</ele><time>2026-05-02T09:18:17.784Z</time></trkpt><trkpt lat="38.9143162" lon="20.8761672"><ele>2.25</ele><time>2026-05-02T09:18:18.785Z</time></trkpt><trkpt lat="38.9142464" lon="20.8763123"><ele>3.0</ele><time>2026-05-02T09:18:19.785Z</time></trkpt><trkpt lat="38.9141989" lon="20.8764572"><ele>3.0</ele><time>2026-05-02T09:18:20.785Z</time></trkpt><trkpt lat="38.9141742" lon="20.8766082"><ele>3.0</ele><time>2026-05-02T09:18:21.785Z</time></trkpt><trkpt lat="38.9141773" lon="20.8767701"><ele>3.0</ele><time>2026-05-02T09:18:22.784Z</time></trkpt><trkpt lat="38.9141975" lon="20.8769532"><ele>3.0</ele><time>2026-05-02T09:18:23.785Z</time></trkpt><trkpt lat="38.9142351" lon="20.8771511"><ele>3.333333333333333</ele><time>2026-05-02T09:18:24.785Z</time></trkpt><trkpt lat="38.9142756" lon="20.8773549"><ele>3.6666666666666665</ele><time>2026-05-02T09:18:25.784Z</time></trkpt><trkpt lat="38.9143129" lon="20.8775693"><ele>4.0</ele><time>2026-05-02T09:18:26.785Z</time></trkpt><trkpt lat="38.9143548" lon="20.8777825"><ele>3.0</ele><time>2026-05-02T09:18:27.785Z</time></trkpt><trkpt lat="38.914399" lon="20.8780094"><ele>2.0</ele><time>2026-05-02T09:18:28.784Z</time></trkpt><trkpt lat="38.9144539" lon="20.8782314"><ele>1.0</ele><time>2026-05-02T09:18:29.784Z</time></trkpt><trkpt lat="38.9145106" lon="20.8784523"><ele>1.0</ele><time>2026-05-02T09:18:30.784Z</time></trkpt><trkpt lat="38.9145765" lon="20.8786791"><ele>1.0</ele><time>2026-05-02T09:18:31.784Z</time></trkpt><trkpt lat="38.9146367" lon="20.8789134"><ele>1.0</ele><time>2026-05-02T09:18:32.784Z</time></trkpt><trkpt lat="38.9147001" lon="20.8791415"><ele>1.0</ele><time>2026-05-02T09:18:33.785Z</time></trkpt><trkpt lat="38.9147613" lon="20.8793679"><ele>1.0</ele><time>2026-05-02T09:18:34.784Z</time></trkpt><trkpt lat="38.9148191" lon="20.879582"><ele>1.0</ele><time>2026-05-02T09:18:35.785Z</time></trkpt><trkpt lat="38.9148714" lon="20.8797805"><ele>1.0</ele><time>2026-05-02T09:18:36.784Z</time></trkpt><trkpt lat="38.9149271" lon="20.8799873"><ele>1.0</ele><time>2026-05-02T09:18:37.785Z</time></trkpt><trkpt lat="38.9149842" lon="20.8801922"><ele>1.0</ele><time>2026-05-02T09:18:38.784Z</time></trkpt><trkpt lat="38.9150455" lon="20.8803886"><ele>0.75</ele><time>2026-05-02T09:18:39.785Z</time></trkpt><trkpt lat="38.9150963" lon="20.8805763"><ele>0.5</ele><time>2026-05-02T09:18:40.785Z</time></trkpt><trkpt lat="38.9151438" lon="20.8807472"><ele>0.25</ele><time>2026-05-02T09:18:41.785Z</time></trkpt><trkpt lat="38.9151743" lon="20.8809098"><ele>0.0</ele><time>2026-05-02T09:18:42.785Z</time></trkpt><trkpt lat="38.9151828" lon="20.8810611"><ele>0.0</ele><time>2026-05-02T09:18:43.784Z</time></trkpt><trkpt lat="38.9151586" lon="20.8811952"><ele>0.0</ele><time>2026-05-02T09:18:44.785Z</time></trkpt><trkpt lat="38.9151061" lon="20.8813349"><ele>0.0</ele><time>2026-05-02T09:18:45.784Z</time></trkpt><trkpt lat="38.9150384" lon="20.8814575"><ele>0.0</ele><time>2026-05-02T09:18:46.785Z</time></trkpt><trkpt lat="38.9149326" lon="20.8815758"><ele>0.0</ele><time>2026-05-02T09:18:47.785Z</time></trkpt><trkpt lat="38.9148076" lon="20.8817003"><ele>0.0</ele><time>2026-05-02T09:18:48.784Z</time></trkpt><trkpt lat="38.9146599" lon="20.8818562"><ele>0.0</ele><time>2026-05-02T09:18:49.785Z</time></trkpt><trkpt lat="38.9144807" lon="20.8820266"><ele>0.0</ele><time>2026-05-02T09:18:50.785Z</time></trkpt><trkpt lat="38.9143094" lon="20.8821992"><ele>0.0</ele><time>2026-05-02T09:18:51.784Z</time></trkpt><trkpt lat="38.9141392" lon="20.8823671"><ele>0.0</ele><time>2026-05-02T09:18:52.785Z</time></trkpt><trkpt lat="38.9139807" lon="20.8825359"><ele>0.0</ele><time>2026-05-02T09:18:53.785Z</time></trkpt><trkpt lat="38.9138146" lon="20.8826999"><ele>0.0</ele><time>2026-05-02T09:18:54.784Z</time></trkpt><trkpt lat="38.913654" lon="20.8828595"><ele>0.0</ele><time>2026-05-02T09:18:55.785Z</time></trkpt><trkpt lat="38.9134974" lon="20.8830172"><ele>1.0</ele><time>2026-05-02T09:18:56.785Z</time></trkpt><trkpt lat="38.9133554" lon="20.8831613"><ele>2.0</ele><time>2026-05-02T09:18:57.785Z</time></trkpt><trkpt lat="38.9132292" lon="20.8833021"><ele>3.0</ele><time>2026-05-02T09:18:58.784Z</time></trkpt><trkpt lat="38.9131026" lon="20.8834323"><ele>3.0</ele><time>2026-05-02T09:18:59.785Z</time></trkpt><trkpt lat="38.9129702" lon="20.8835556"><ele>3.0</ele><time>2026-05-02T09:19:00.785Z</time></trkpt><trkpt lat="38.9128328" lon="20.8836917"><ele>3.0</ele><time>2026-05-02T09:19:01.784Z</time></trkpt><trkpt lat="38.9126877" lon="20.883829"><ele>3.0</ele><time>2026-05-02T09:19:02.784Z</time></trkpt><trkpt lat="38.9125435" lon="20.8839688"><ele>3.0</ele><time>2026-05-02T09:19:03.785Z</time></trkpt><trkpt lat="38.9123968" lon="20.8841178"><ele>3.0</ele><time>2026-05-02T09:19:04.784Z</time></trkpt><trkpt lat="38.9122465" lon="20.8842611"><ele>3.0</ele><time>2026-05-02T09:19:05.785Z</time></trkpt><trkpt lat="38.9120989" lon="20.8844092"><ele>3.0</ele><time>2026-05-02T09:19:06.785Z</time></trkpt><trkpt lat="38.9119555" lon="20.8845546"><ele>3.0</ele><time>2026-05-02T09:19:07.785Z</time></trkpt><trkpt lat="38.9118169" lon="20.8846918"><ele>3.0</ele><time>2026-05-02T09:19:08.785Z</time></trkpt><trkpt lat="38.9116815" lon="20.8848296"><ele>3.0</ele><time>2026-05-02T09:19:09.784Z</time></trkpt><trkpt lat="38.9115557" lon="20.884974"><ele>3.0</ele><time>2026-05-02T09:19:10.784Z</time></trkpt><trkpt lat="38.9114363" lon="20.8851247"><ele>3.0</ele><time>2026-05-02T09:19:11.785Z</time></trkpt><trkpt lat="38.9113189" lon="20.8852792"><ele>3.0</ele><time>2026-05-02T09:19:12.784Z</time></trkpt><trkpt lat="38.9111988" lon="20.8854463"><ele>3.0</ele><time>2026-05-02T09:19:13.784Z</time></trkpt><trkpt lat="38.9110825" lon="20.885601"><ele>3.0</ele><time>2026-05-02T09:19:14.784Z</time></trkpt><trkpt lat="38.9109707" lon="20.885741"><ele>3.0</ele><time>2026-05-02T09:19:15.785Z</time></trkpt><trkpt lat="38.9108578" lon="20.8858755"><ele>3.0</ele><time>2026-05-02T09:19:16.784Z</time></trkpt><trkpt lat="38.91075" lon="20.8860087"><ele>3.75</ele><time>2026-05-02T09:19:17.784Z</time></trkpt><trkpt lat="38.9106445" lon="20.8861306"><ele>4.5</ele><time>2026-05-02T09:19:18.785Z</time></trkpt><trkpt lat="38.9105399" lon="20.8862438"><ele>5.25</ele><time>2026-05-02T09:19:19.784Z</time></trkpt><trkpt lat="38.9104432" lon="20.8863623"><ele>6.0</ele><time>2026-05-02T09:19:20.784Z</time></trkpt><trkpt lat="38.9103522" lon="20.8864672"><ele>6.0</ele><time>2026-05-02T09:19:21.784Z</time></trkpt><trkpt lat="38.9102769" lon="20.8865673"><ele>6.0</ele><time>2026-05-02T09:19:22.785Z</time></trkpt><trkpt lat="38.9102179" lon="20.886658"><ele>6.0</ele><time>2026-05-02T09:19:23.785Z</time></trkpt><trkpt lat="38.9101719" lon="20.8867335"><ele>6.0</ele><time>2026-05-02T09:19:24.784Z</time></trkpt><trkpt lat="38.9101337" lon="20.8867988"><ele>6.0</ele><time>2026-05-02T09:19:25.784Z</time></trkpt><trkpt lat="38.9100871" lon="20.8868922"><ele>6.0</ele><time>2026-05-02T09:19:27.785Z</time></trkpt><trkpt lat="38.9100868" lon="20.8870135"><ele>6.4</ele><time>2026-05-02T09:19:30.784Z</time></trkpt><trkpt lat="38.9101253" lon="20.8870847"><ele>6.8</ele><time>2026-05-02T09:19:31.784Z</time></trkpt><trkpt lat="38.9101942" lon="20.8871556"><ele>7.200000000000001</ele><time>2026-05-02T09:19:32.784Z</time></trkpt><trkpt lat="38.9102655" lon="20.8872266"><ele>7.6000000000000005</ele><time>2026-05-02T09:19:33.785Z</time></trkpt><trkpt lat="38.9103496" lon="20.8872985"><ele>8.0</ele><time>2026-05-02T09:19:34.784Z</time></trkpt><trkpt lat="38.9104516" lon="20.8873793"><ele>8.0</ele><time>2026-05-02T09:19:35.785Z</time></trkpt><trkpt lat="38.9105646" lon="20.8874668"><ele>8.0</ele><time>2026-05-02T09:19:36.785Z</time></trkpt><trkpt lat="38.9106785" lon="20.8875563"><ele>8.0</ele><time>2026-05-02T09:19:37.784Z</time></trkpt><trkpt lat="38.9107889" lon="20.8876462"><ele>8.0</ele><time>2026-05-02T09:19:38.784Z</time></trkpt><trkpt lat="38.9109029" lon="20.8877377"><ele>7.75</ele><time>2026-05-02T09:19:39.785Z</time></trkpt><trkpt lat="38.9110153" lon="20.8878332"><ele>7.5</ele><time>2026-05-02T09:19:40.784Z</time></trkpt><trkpt lat="38.9111272" lon="20.8879348"><ele>7.25</ele><time>2026-05-02T09:19:41.785Z</time></trkpt><trkpt lat="38.9112395" lon="20.8880285"><ele>7.0</ele><time>2026-05-02T09:19:42.785Z</time></trkpt><trkpt lat="38.9113511" lon="20.8881185"><ele>7.0</ele><time>2026-05-02T09:19:43.784Z</time></trkpt><trkpt lat="38.9114593" lon="20.8882105"><ele>7.0</ele><time>2026-05-02T09:19:44.785Z</time></trkpt><trkpt lat="38.9115693" lon="20.8883003"><ele>7.0</ele><time>2026-05-02T09:19:45.785Z</time></trkpt><trkpt lat="38.9116781" lon="20.8883865"><ele>7.0</ele><time>2026-05-02T09:19:46.784Z</time></trkpt><trkpt lat="38.9117774" lon="20.8884735"><ele>7.199999999999999</ele><time>2026-05-02T09:19:47.785Z</time></trkpt><trkpt lat="38.9118764" lon="20.8885531"><ele>7.3999999999999995</ele><time>2026-05-02T09:19:48.785Z</time></trkpt><trkpt lat="38.911963" lon="20.8886295"><ele>7.6000000000000005</ele><time>2026-05-02T09:19:49.785Z</time></trkpt><trkpt lat="38.9120485" lon="20.8887034"><ele>7.800000000000001</ele><time>2026-05-02T09:19:50.785Z</time></trkpt><trkpt lat="38.9121393" lon="20.8887717"><ele>8.0</ele><time>2026-05-02T09:19:51.785Z</time></trkpt><trkpt lat="38.9122216" lon="20.8888408"><ele>8.0</ele><time>2026-05-02T09:19:52.785Z</time></trkpt><trkpt lat="38.912306" lon="20.8889026"><ele>8.0</ele><time>2026-05-02T09:19:53.785Z</time></trkpt><trkpt lat="38.9123906" lon="20.8889775"><ele>8.0</ele><time>2026-05-02T09:19:54.784Z</time></trkpt><trkpt lat="38.9124902" lon="20.8890554"><ele>8.0</ele><time>2026-05-02T09:19:55.784Z</time></trkpt><trkpt lat="38.9125854" lon="20.8891353"><ele>8.0</ele><time>2026-05-02T09:19:56.784Z</time></trkpt><trkpt lat="38.9126739" lon="20.8892077"><ele>7.999999999999999</ele><time>2026-05-02T09:19:57.785Z</time></trkpt><trkpt lat="38.9127543" lon="20.8892754"><ele>8.0</ele><time>2026-05-02T09:19:58.784Z</time></trkpt><trkpt lat="38.9128291" lon="20.8893407"><ele>8.0</ele><time>2026-05-02T09:19:59.785Z</time></trkpt><trkpt lat="38.9129034" lon="20.8894023"><ele>8.0</ele><time>2026-05-02T09:20:00.785Z</time></trkpt><trkpt lat="38.9129722" lon="20.8894565"><ele>7.999999999999999</ele><time>2026-05-02T09:20:01.785Z</time></trkpt><trkpt lat="38.9130313" lon="20.8895061"><ele>8.0</ele><time>2026-05-02T09:20:02.784Z</time></trkpt><trkpt lat="38.9130969" lon="20.889557"><ele>8.0</ele><time>2026-05-02T09:20:03.785Z</time></trkpt><trkpt lat="38.9131835" lon="20.8896078"><ele>8.0</ele><time>2026-05-02T09:20:05.784Z</time></trkpt><trkpt lat="38.9132492" lon="20.8896547"><ele>8.0</ele><time>2026-05-02T09:20:07.785Z</time></trkpt><trkpt lat="38.9133135" lon="20.889706"><ele>8.0</ele><time>2026-05-02T09:20:10.785Z</time></trkpt><trkpt lat="38.9133924" lon="20.889766"><ele>8.0</ele><time>2026-05-02T09:20:13.785Z</time></trkpt><trkpt lat="38.9134923" lon="20.8898491"><ele>7.999999999999999</ele><time>2026-05-02T09:20:15.784Z</time></trkpt><trkpt lat="38.9135467" lon="20.8898928"><ele>8.0</ele><time>2026-05-02T09:20:16.784Z</time></trkpt><trkpt lat="38.9135951" lon="20.8899526"><ele>8.0</ele><time>2026-05-02T09:20:17.784Z</time></trkpt><trkpt lat="38.913647" lon="20.8900025"><ele>8.0</ele><time>2026-05-02T09:20:18.785Z</time></trkpt><trkpt lat="38.9136974" lon="20.8900518"><ele>7.999999999999999</ele><time>2026-05-02T09:20:19.784Z</time></trkpt><trkpt lat="38.9137953" lon="20.8901311"><ele>8.0</ele><time>2026-05-02T09:20:21.784Z</time></trkpt><trkpt lat="38.9138755" lon="20.8902176"><ele>7.800000000000001</ele><time>2026-05-02T09:20:23.785Z</time></trkpt><trkpt lat="38.9139528" lon="20.8902839"><ele>7.6000000000000005</ele><time>2026-05-02T09:20:25.785Z</time></trkpt><trkpt lat="38.9140695" lon="20.8903326"><ele>7.3999999999999995</ele><time>2026-05-02T09:20:27.785Z</time></trkpt><trkpt lat="38.9141628" lon="20.8903352"><ele>7.199999999999999</ele><time>2026-05-02T09:20:29.785Z</time></trkpt><trkpt lat="38.9142312" lon="20.8903757"><ele>7.0</ele><time>2026-05-02T09:20:31.784Z</time></trkpt><trkpt lat="38.9143196" lon="20.8904112"><ele>6.833333333333334</ele><time>2026-05-02T09:20:40.785Z</time></trkpt><trkpt lat="38.9143821" lon="20.8903469"><ele>6.666666666666667</ele><time>2026-05-02T09:20:43.784Z</time></trkpt><trkpt lat="38.9143998" lon="20.8902631"><ele>6.5</ele><time>2026-05-02T09:20:48.784Z</time></trkpt><trkpt lat="38.9144633" lon="20.8901902"><ele>6.333333333333334</ele><time>2026-05-02T09:20:52.784Z</time></trkpt><trkpt lat="38.9145288" lon="20.8901566"><ele>6.166666666666667</ele><time>2026-05-02T09:20:53.784Z</time></trkpt><trkpt lat="38.9145983" lon="20.8901193"><ele>6.0</ele><time>2026-05-02T09:20:54.784Z</time></trkpt><trkpt lat="38.9146619" lon="20.8900732"><ele>6.0</ele><time>2026-05-02T09:20:55.785Z</time></trkpt><trkpt lat="38.9147338" lon="20.8900315"><ele>6.0</ele><time>2026-05-02T09:20:56.785Z</time></trkpt><trkpt lat="38.9148139" lon="20.8899886"><ele>6.0</ele><time>2026-05-02T09:20:57.785Z</time></trkpt><trkpt lat="38.9148773" lon="20.8899531"><ele>6.0</ele><time>2026-05-02T09:20:58.784Z</time></trkpt><trkpt lat="38.9149425" lon="20.889911"><ele>6.0</ele><time>2026-05-02T09:20:59.785Z</time></trkpt><trkpt lat="38.9150126" lon="20.8898734"><ele>6.0</ele><time>2026-05-02T09:21:00.785Z</time></trkpt><trkpt lat="38.9150822" lon="20.8898378"><ele>6.0</ele><time>2026-05-02T09:21:01.784Z</time></trkpt><trkpt lat="38.915147" lon="20.8898055"><ele>6.0</ele><time>2026-05-02T09:21:02.785Z</time></trkpt><trkpt lat="38.915207" lon="20.8897713"><ele>6.0</ele><time>2026-05-02T09:21:03.784Z</time></trkpt><trkpt lat="38.915302" lon="20.8897275"><ele>6.0</ele><time>2026-05-02T09:21:05.784Z</time></trkpt><trkpt lat="38.9153737" lon="20.8897274"><ele>6.0</ele><time>2026-05-02T09:21:07.785Z</time></trkpt><trkpt lat="38.915442" lon="20.889754"><ele>6.0</ele><time>2026-05-02T09:21:10.785Z</time></trkpt><trkpt lat="38.9154947" lon="20.8896668"><ele>6.0</ele><time>2026-05-02T09:27:10.785Z</time></trkpt><trkpt lat="38.9155602" lon="20.8895948"><ele>6.0</ele><time>2026-05-02T09:27:12.786Z</time></trkpt><trkpt lat="38.9156261" lon="20.889546"><ele>6.0</ele><time>2026-05-02T09:27:14.786Z</time></trkpt><trkpt lat="38.9156966" lon="20.8895076"><ele>6.0</ele><time>2026-05-02T09:27:16.785Z</time></trkpt><trkpt lat="38.9157643" lon="20.8894753"><ele>6.0</ele><time>2026-05-02T09:27:18.785Z</time></trkpt><trkpt lat="38.9158254" lon="20.8894499"><ele>6.0</ele><time>2026-05-02T09:27:20.785Z</time></trkpt><trkpt lat="38.9159011" lon="20.8894208"><ele>5.5</ele><time>2026-05-02T09:27:22.785Z</time></trkpt><trkpt lat="38.9160196" lon="20.8893637"><ele>5.0</ele><time>2026-05-02T09:27:24.784Z</time></trkpt><trkpt lat="38.9160841" lon="20.889341"><ele>4.5</ele><time>2026-05-02T09:27:25.785Z</time></trkpt><trkpt lat="38.916159" lon="20.8893212"><ele>4.0</ele><time>2026-05-02T09:27:26.785Z</time></trkpt><trkpt lat="38.9162521" lon="20.889295"><ele>3.5</ele><time>2026-05-02T09:27:27.785Z</time></trkpt><trkpt lat="38.9163243" lon="20.8892792"><ele>3.0</ele><time>2026-05-02T09:27:28.786Z</time></trkpt><trkpt lat="38.9164014" lon="20.8892618"><ele>2.9999999999999996</ele><time>2026-05-02T09:27:29.785Z</time></trkpt><trkpt lat="38.9164758" lon="20.8892487"><ele>3.0</ele><time>2026-05-02T09:27:30.783Z</time></trkpt><trkpt lat="38.9165488" lon="20.8892391"><ele>3.0</ele><time>2026-05-02T09:27:31.785Z</time></trkpt><trkpt lat="38.9166302" lon="20.8892276"><ele>3.0</ele><time>2026-05-02T09:27:32.784Z</time></trkpt><trkpt lat="38.9167045" lon="20.8892113"><ele>3.0</ele><time>2026-05-02T09:27:33.784Z</time></trkpt><trkpt lat="38.9167711" lon="20.8892016"><ele>2.9999999999999996</ele><time>2026-05-02T09:27:34.784Z</time></trkpt><trkpt lat="38.9168458" lon="20.8891886"><ele>3.0</ele><time>2026-05-02T09:27:35.784Z</time></trkpt><trkpt lat="38.9169126" lon="20.8891759"><ele>2.8333333333333335</ele><time>2026-05-02T09:27:36.786Z</time></trkpt><trkpt lat="38.9169798" lon="20.8891616"><ele>2.6666666666666665</ele><time>2026-05-02T09:27:37.786Z</time></trkpt><trkpt lat="38.9170553" lon="20.8891476"><ele>2.5</ele><time>2026-05-02T09:27:38.785Z</time></trkpt><trkpt lat="38.9171233" lon="20.8891363"><ele>2.333333333333333</ele><time>2026-05-02T09:27:39.784Z</time></trkpt><trkpt lat="38.9171893" lon="20.8891238"><ele>2.1666666666666665</ele><time>2026-05-02T09:27:40.786Z</time></trkpt><trkpt lat="38.9173075" lon="20.8891038"><ele>2.0</ele><time>2026-05-02T09:27:42.785Z</time></trkpt><trkpt lat="38.9174307" lon="20.8890999"><ele>2.0</ele><time>2026-05-02T09:27:44.786Z</time></trkpt><trkpt lat="38.917542" lon="20.8890904"><ele>2.0</ele><time>2026-05-02T09:27:46.785Z</time></trkpt><trkpt lat="38.9176247" lon="20.8890729"><ele>2.0</ele><time>2026-05-02T09:27:48.785Z</time></trkpt><trkpt lat="38.91771" lon="20.8890667"><ele>2.0</ele><time>2026-05-02T09:27:50.782Z</time></trkpt><trkpt lat="38.917804" lon="20.889056"><ele>2.0</ele><time>2026-05-02T09:27:52.784Z</time></trkpt><trkpt lat="38.9179201" lon="20.8890377"><ele>2.2</ele><time>2026-05-02T09:27:54.786Z</time></trkpt><trkpt lat="38.917983" lon="20.8890281"><ele>2.4000000000000004</ele><time>2026-05-02T09:27:55.786Z</time></trkpt><trkpt lat="38.9180972" lon="20.8890014"><ele>2.5999999999999996</ele><time>2026-05-02T09:27:57.785Z</time></trkpt><trkpt lat="38.9182125" lon="20.8889893"><ele>2.8</ele><time>2026-05-02T09:27:59.786Z</time></trkpt><trkpt lat="38.9183248" lon="20.888979"><ele>3.0</ele><time>2026-05-02T09:28:01.783Z</time></trkpt><trkpt lat="38.9183883" lon="20.8889743"><ele>3.0</ele><time>2026-05-02T09:28:02.784Z</time></trkpt><trkpt lat="38.918507" lon="20.8889687"><ele>3.0</ele><time>2026-05-02T09:28:04.786Z</time></trkpt><trkpt lat="38.9186096" lon="20.8889562"><ele>3.0</ele><time>2026-05-02T09:28:06.785Z</time></trkpt><trkpt lat="38.9187124" lon="20.8889354"><ele>3.0</ele><time>2026-05-02T09:28:08.785Z</time></trkpt><trkpt lat="38.9188165" lon="20.8889106"><ele>3.0</ele><time>2026-05-02T09:28:10.784Z</time></trkpt><trkpt lat="38.9189307" lon="20.8888934"><ele>3.0</ele><time>2026-05-02T09:28:12.785Z</time></trkpt><trkpt lat="38.9190264" lon="20.8889218"><ele>3.0</ele><time>2026-05-02T09:28:14.783Z</time></trkpt><trkpt lat="38.9190676" lon="20.8890078"><ele>3.0</ele><time>2026-05-02T09:28:19.784Z</time></trkpt><trkpt lat="38.9190759" lon="20.8890998"><ele>3.0</ele><time>2026-05-02T09:28:22.784Z</time></trkpt><trkpt lat="38.9190814" lon="20.8891865"><ele>3.0</ele><time>2026-05-02T09:28:24.783Z</time></trkpt><trkpt lat="38.9190852" lon="20.8893038"><ele>3.0</ele><time>2026-05-02T09:28:26.785Z</time></trkpt><trkpt lat="38.9190908" lon="20.88944"><ele>2.8</ele><time>2026-05-02T09:28:28.784Z</time></trkpt><trkpt lat="38.9191062" lon="20.8895805"><ele>2.5999999999999996</ele><time>2026-05-02T09:28:30.784Z</time></trkpt><trkpt lat="38.919126" lon="20.8897317"><ele>2.4000000000000004</ele><time>2026-05-02T09:28:32.784Z</time></trkpt><trkpt lat="38.919153" lon="20.8898742"><ele>2.2</ele><time>2026-05-02T09:28:34.785Z</time></trkpt><trkpt lat="38.9191684" lon="20.8899749"><ele>2.0</ele><time>2026-05-02T09:28:35.785Z</time></trkpt><trkpt lat="38.919188" lon="20.8900926"><ele>1.8</ele><time>2026-05-02T09:28:36.785Z</time></trkpt><trkpt lat="38.9191947" lon="20.8902128"><ele>1.6</ele><time>2026-05-02T09:28:37.785Z</time></trkpt><trkpt lat="38.9192057" lon="20.8903517"><ele>1.4000000000000001</ele><time>2026-05-02T09:28:38.784Z</time></trkpt><trkpt lat="38.9192131" lon="20.8905001"><ele>1.2000000000000002</ele><time>2026-05-02T09:28:39.785Z</time></trkpt><trkpt lat="38.9192297" lon="20.8906487"><ele>1.0</ele><time>2026-05-02T09:28:40.785Z</time></trkpt><trkpt lat="38.9192389" lon="20.8908136"><ele>1.0</ele><time>2026-05-02T09:28:41.786Z</time></trkpt><trkpt lat="38.9192557" lon="20.8909773"><ele>1.0</ele><time>2026-05-02T09:28:42.785Z</time></trkpt><trkpt lat="38.9192661" lon="20.8911308"><ele>1.0</ele><time>2026-05-02T09:28:43.785Z</time></trkpt><trkpt lat="38.9192798" lon="20.8912817"><ele>1.0</ele><time>2026-05-02T09:28:44.786Z</time></trkpt><trkpt lat="38.9192844" lon="20.8914364"><ele>1.0</ele><time>2026-05-02T09:28:45.784Z</time></trkpt><trkpt lat="38.9192981" lon="20.8915806"><ele>1.0</ele><time>2026-05-02T09:28:46.785Z</time></trkpt><trkpt lat="38.9193132" lon="20.891721"><ele>1.0</ele><time>2026-05-02T09:28:47.786Z</time></trkpt><trkpt lat="38.9193271" lon="20.891846"><ele>1.0</ele><time>2026-05-02T09:28:48.786Z</time></trkpt><trkpt lat="38.9193359" lon="20.8919779"><ele>1.0</ele><time>2026-05-02T09:28:49.784Z</time></trkpt><trkpt lat="38.9193428" lon="20.8921068"><ele>1.4</ele><time>2026-05-02T09:28:50.786Z</time></trkpt><trkpt lat="38.9193504" lon="20.8922356"><ele>1.8</ele><time>2026-05-02T09:28:51.785Z</time></trkpt><trkpt lat="38.9193589" lon="20.8923559"><ele>2.1999999999999997</ele><time>2026-05-02T09:28:52.785Z</time></trkpt><trkpt lat="38.9193673" lon="20.8924787"><ele>2.6</ele><time>2026-05-02T09:28:53.785Z</time></trkpt><trkpt lat="38.9193721" lon="20.8926017"><ele>3.0</ele><time>2026-05-02T09:28:54.784Z</time></trkpt><trkpt lat="38.9193741" lon="20.89272"><ele>3.0</ele><time>2026-05-02T09:28:55.785Z</time></trkpt><trkpt lat="38.9193808" lon="20.8928241"><ele>3.0</ele><time>2026-05-02T09:28:56.785Z</time></trkpt><trkpt lat="38.9193808" lon="20.8929649"><ele>3.0</ele><time>2026-05-02T09:28:58.785Z</time></trkpt><trkpt lat="38.9193214" lon="20.8931023"><ele>3.0</ele><time>2026-05-02T09:29:00.786Z</time></trkpt><trkpt lat="38.9192994" lon="20.8931824"><ele>3.0</ele><time>2026-05-02T09:29:01.785Z</time></trkpt><trkpt lat="38.9192903" lon="20.8932666"><ele>3.0</ele><time>2026-05-02T09:29:02.786Z</time></trkpt><trkpt lat="38.9193023" lon="20.893357"><ele>2.8333333333333335</ele><time>2026-05-02T09:29:03.785Z</time></trkpt><trkpt lat="38.919331" lon="20.8934446"><ele>2.6666666666666665</ele><time>2026-05-02T09:29:04.786Z</time></trkpt><trkpt lat="38.9193671" lon="20.8935219"><ele>2.5</ele><time>2026-05-02T09:29:05.785Z</time></trkpt><trkpt lat="38.9193932" lon="20.8936028"><ele>2.333333333333333</ele><time>2026-05-02T09:29:06.785Z</time></trkpt><trkpt lat="38.9194037" lon="20.8936966"><ele>2.1666666666666665</ele><time>2026-05-02T09:29:07.785Z</time></trkpt><trkpt lat="38.9194046" lon="20.8938066"><ele>2.0</ele><time>2026-05-02T09:29:08.785Z</time></trkpt><trkpt lat="38.9194113" lon="20.8939353"><ele>2.0</ele><time>2026-05-02T09:29:09.786Z</time></trkpt><trkpt lat="38.919417" lon="20.8940727"><ele>2.0</ele><time>2026-05-02T09:29:10.785Z</time></trkpt><trkpt lat="38.9194208" lon="20.8942145"><ele>2.0</ele><time>2026-05-02T09:29:11.785Z</time></trkpt><trkpt lat="38.9194323" lon="20.8943538"><ele>2.0</ele><time>2026-05-02T09:29:12.786Z</time></trkpt><trkpt lat="38.919438" lon="20.8944962"><ele>2.0</ele><time>2026-05-02T09:29:13.786Z</time></trkpt><trkpt lat="38.9194445" lon="20.8946364"><ele>1.75</ele><time>2026-05-02T09:29:14.785Z</time></trkpt><trkpt lat="38.9194573" lon="20.8947861"><ele>1.5</ele><time>2026-05-02T09:29:15.785Z</time></trkpt><trkpt lat="38.9194578" lon="20.8949453"><ele>1.25</ele><time>2026-05-02T09:29:16.786Z</time></trkpt><trkpt lat="38.9194614" lon="20.8951109"><ele>1.0</ele><time>2026-05-02T09:29:17.786Z</time></trkpt><trkpt lat="38.9194672" lon="20.8952851"><ele>0.75</ele><time>2026-05-02T09:29:18.784Z</time></trkpt><trkpt lat="38.9194692" lon="20.8954707"><ele>0.5</ele><time>2026-05-02T09:29:19.786Z</time></trkpt><trkpt lat="38.9194778" lon="20.8956561"><ele>0.25</ele><time>2026-05-02T09:29:20.785Z</time></trkpt><trkpt lat="38.9194846" lon="20.8958486"><ele>0.0</ele><time>2026-05-02T09:29:21.786Z</time></trkpt><trkpt lat="38.9194978" lon="20.896047"><ele>0.0</ele><time>2026-05-02T09:29:22.786Z</time></trkpt><trkpt lat="38.9194976" lon="20.8962469"><ele>0.0</ele><time>2026-05-02T09:29:23.786Z</time></trkpt><trkpt lat="38.9195014" lon="20.8964534"><ele>0.0</ele><time>2026-05-02T09:29:24.785Z</time></trkpt><trkpt lat="38.9195065" lon="20.8966661"><ele>0.0</ele><time>2026-05-02T09:29:25.785Z</time></trkpt><trkpt lat="38.9195123" lon="20.896873"><ele>0.0</ele><time>2026-05-02T09:29:26.784Z</time></trkpt><trkpt lat="38.9195188" lon="20.8970851"><ele>0.0</ele><time>2026-05-02T09:29:27.785Z</time></trkpt><trkpt lat="38.919528" lon="20.8972945"><ele>0.0</ele><time>2026-05-02T09:29:28.786Z</time></trkpt><trkpt lat="38.9195366" lon="20.8975071"><ele>0.0</ele><time>2026-05-02T09:29:29.784Z</time></trkpt><trkpt lat="38.9195419" lon="20.8977197"><ele>0.0</ele><time>2026-05-02T09:29:30.786Z</time></trkpt><trkpt lat="38.9195504" lon="20.8979364"><ele>-0.3333333333333333</ele><time>2026-05-02T09:29:31.785Z</time></trkpt><trkpt lat="38.9195555" lon="20.8981504"><ele>-0.6666666666666666</ele><time>2026-05-02T09:29:32.784Z</time></trkpt><trkpt lat="38.9195613" lon="20.8983759"><ele>-1.0</ele><time>2026-05-02T09:29:33.785Z</time></trkpt><trkpt lat="38.91957" lon="20.8986045"><ele>-1.3333333333333333</ele><time>2026-05-02T09:29:34.785Z</time></trkpt><trkpt lat="38.9195798" lon="20.8988347"><ele>-1.6666666666666665</ele><time>2026-05-02T09:29:35.785Z</time></trkpt><trkpt lat="38.919587" lon="20.8990667"><ele>-2.0</ele><time>2026-05-02T09:29:36.786Z</time></trkpt><trkpt lat="38.919602" lon="20.8992954"><ele>-1.3333333333333333</ele><time>2026-05-02T09:29:37.785Z</time></trkpt><trkpt lat="38.9196097" lon="20.8995139"><ele>-0.6666666666666666</ele><time>2026-05-02T09:29:38.785Z</time></trkpt><trkpt lat="38.9196142" lon="20.8997262"><ele>0.0</ele><time>2026-05-02T09:29:39.785Z</time></trkpt><trkpt lat="38.9196254" lon="20.8999315"><ele>0.0</ele><time>2026-05-02T09:29:40.785Z</time></trkpt><trkpt lat="38.9196356" lon="20.9001379"><ele>0.0</ele><time>2026-05-02T09:29:41.786Z</time></trkpt><trkpt lat="38.919645" lon="20.9003459"><ele>0.0</ele><time>2026-05-02T09:29:42.785Z</time></trkpt><trkpt lat="38.9196624" lon="20.9005486"><ele>0.0</ele><time>2026-05-02T09:29:43.785Z</time></trkpt><trkpt lat="38.9196677" lon="20.9007564"><ele>0.0</ele><time>2026-05-02T09:29:44.786Z</time></trkpt><trkpt lat="38.9196699" lon="20.9009624"><ele>0.0</ele><time>2026-05-02T09:29:45.786Z</time></trkpt><trkpt lat="38.9196741" lon="20.901171"><ele>-0.3333333333333333</ele><time>2026-05-02T09:29:46.785Z</time></trkpt><trkpt lat="38.9196801" lon="20.9013756"><ele>-0.6666666666666666</ele><time>2026-05-02T09:29:47.785Z</time></trkpt><trkpt lat="38.9196858" lon="20.9015854"><ele>-1.0</ele><time>2026-05-02T09:29:48.786Z</time></trkpt><trkpt lat="38.9196923" lon="20.9018"><ele>-1.0</ele><time>2026-05-02T09:29:49.786Z</time></trkpt><trkpt lat="38.9197005" lon="20.9020142"><ele>-1.0</ele><time>2026-05-02T09:29:50.785Z</time></trkpt><trkpt lat="38.9197074" lon="20.9022316"><ele>-1.0</ele><time>2026-05-02T09:29:51.783Z</time></trkpt><trkpt lat="38.919713" lon="20.9024418"><ele>-1.0</ele><time>2026-05-02T09:29:52.785Z</time></trkpt><trkpt lat="38.9197227" lon="20.9026517"><ele>-1.0</ele><time>2026-05-02T09:29:53.786Z</time></trkpt><trkpt lat="38.9197251" lon="20.9028554"><ele>-1.0</ele><time>2026-05-02T09:29:54.786Z</time></trkpt><trkpt lat="38.9197292" lon="20.9030602"><ele>-1.0</ele><time>2026-05-02T09:29:55.786Z</time></trkpt><trkpt lat="38.9197345" lon="20.9032646"><ele>-1.0</ele><time>2026-05-02T09:29:56.785Z</time></trkpt><trkpt lat="38.9197366" lon="20.9034703"><ele>-1.0</ele><time>2026-05-02T09:29:57.785Z</time></trkpt><trkpt lat="38.9197449" lon="20.9036702"><ele>-1.0</ele><time>2026-05-02T09:29:58.785Z</time></trkpt><trkpt lat="38.9197503" lon="20.9038701"><ele>-1.0</ele><time>2026-05-02T09:29:59.786Z</time></trkpt><trkpt lat="38.919755" lon="20.9040808"><ele>-1.0</ele><time>2026-05-02T09:30:00.786Z</time></trkpt><trkpt lat="38.9197636" lon="20.9042977"><ele>-1.0</ele><time>2026-05-02T09:30:01.785Z</time></trkpt><trkpt lat="38.9197723" lon="20.9045169"><ele>-1.0</ele><time>2026-05-02T09:30:02.786Z</time></trkpt><trkpt lat="38.9197826" lon="20.9047368"><ele>-1.0</ele><time>2026-05-02T09:30:03.785Z</time></trkpt><trkpt lat="38.9197905" lon="20.9049614"><ele>-0.3333333333333333</ele><time>2026-05-02T09:30:04.786Z</time></trkpt><trkpt lat="38.9197969" lon="20.9051924"><ele>0.3333333333333333</ele><time>2026-05-02T09:30:05.785Z</time></trkpt><trkpt lat="38.9198035" lon="20.9054256"><ele>1.0</ele><time>2026-05-02T09:30:06.786Z</time></trkpt><trkpt lat="38.919811" lon="20.9056617"><ele>1.0</ele><time>2026-05-02T09:30:07.785Z</time></trkpt><trkpt lat="38.9198185" lon="20.9058919"><ele>1.0</ele><time>2026-05-02T09:30:08.786Z</time></trkpt><trkpt lat="38.9198257" lon="20.9061093"><ele>1.0</ele><time>2026-05-02T09:30:09.785Z</time></trkpt><trkpt lat="38.919841" lon="20.9063078"><ele>1.0</ele><time>2026-05-02T09:30:10.785Z</time></trkpt><trkpt lat="38.9198461" lon="20.9064994"><ele>1.0</ele><time>2026-05-02T09:30:11.785Z</time></trkpt><trkpt lat="38.9198529" lon="20.9066918"><ele>1.0</ele><time>2026-05-02T09:30:12.785Z</time></trkpt><trkpt lat="38.9198649" lon="20.9068832"><ele>1.0</ele><time>2026-05-02T09:30:13.785Z</time></trkpt><trkpt lat="38.9198879" lon="20.907068"><ele>1.0</ele><time>2026-05-02T09:30:14.783Z</time></trkpt><trkpt lat="38.9199325" lon="20.9072529"><ele>1.0</ele><time>2026-05-02T09:30:15.786Z</time></trkpt><trkpt lat="38.9199973" lon="20.9074328"><ele>1.0</ele><time>2026-05-02T09:30:16.785Z</time></trkpt><trkpt lat="38.9200886" lon="20.9075998"><ele>8.333333333333334</ele><time>2026-05-02T09:30:17.785Z</time></trkpt><trkpt lat="38.9202049" lon="20.9077373"><ele>15.666666666666668</ele><time>2026-05-02T09:30:18.786Z</time></trkpt><trkpt lat="38.9203455" lon="20.9078526"><ele>23.0</ele><time>2026-05-02T09:30:19.785Z</time></trkpt><trkpt lat="38.9205056" lon="20.9079431"><ele>23.0</ele><time>2026-05-02T09:30:20.785Z</time></trkpt><trkpt lat="38.9206892" lon="20.9080213"><ele>23.0</ele><time>2026-05-02T09:30:21.785Z</time></trkpt><trkpt lat="38.9208822" lon="20.9080806"><ele>23.0</ele><time>2026-05-02T09:30:22.786Z</time></trkpt><trkpt lat="38.9210857" lon="20.9081287"><ele>21.666666666666668</ele><time>2026-05-02T09:30:23.786Z</time></trkpt><trkpt lat="38.9212898" lon="20.9081721"><ele>20.333333333333332</ele><time>2026-05-02T09:30:24.785Z</time></trkpt><trkpt lat="38.9214977" lon="20.908218"><ele>19.0</ele><time>2026-05-02T09:30:25.786Z</time></trkpt><trkpt lat="38.9217065" lon="20.9082582"><ele>16.333333333333332</ele><time>2026-05-02T09:30:26.786Z</time></trkpt><trkpt lat="38.9219074" lon="20.9082832"><ele>13.666666666666666</ele><time>2026-05-02T09:30:27.784Z</time></trkpt><trkpt lat="38.9221006" lon="20.9083075"><ele>11.0</ele><time>2026-05-02T09:30:28.786Z</time></trkpt><trkpt lat="38.9222815" lon="20.9083318"><ele>11.0</ele><time>2026-05-02T09:30:29.785Z</time></trkpt><trkpt lat="38.9224606" lon="20.908367"><ele>11.0</ele><time>2026-05-02T09:30:30.784Z</time></trkpt><trkpt lat="38.922639" lon="20.9084253"><ele>11.0</ele><time>2026-05-02T09:30:31.786Z</time></trkpt><trkpt lat="38.9228223" lon="20.9084956"><ele>18.333333333333332</ele><time>2026-05-02T09:30:32.785Z</time></trkpt><trkpt lat="38.9230009" lon="20.9085681"><ele>25.666666666666668</ele><time>2026-05-02T09:30:33.786Z</time></trkpt><trkpt lat="38.9231845" lon="20.9086451"><ele>33.0</ele><time>2026-05-02T09:30:34.786Z</time></trkpt><trkpt lat="38.9233763" lon="20.9087045"><ele>35.0</ele><time>2026-05-02T09:30:35.785Z</time></trkpt><trkpt lat="38.9235775" lon="20.9087458"><ele>37.0</ele><time>2026-05-02T09:30:36.786Z</time></trkpt><trkpt lat="38.9237893" lon="20.9087517"><ele>39.0</ele><time>2026-05-02T09:30:37.784Z</time></trkpt><trkpt lat="38.923996" lon="20.9087667"><ele>39.0</ele><time>2026-05-02T09:30:38.786Z</time></trkpt><trkpt lat="38.9241899" lon="20.9087711"><ele>39.0</ele><time>2026-05-02T09:30:39.786Z</time></trkpt><trkpt lat="38.9243701" lon="20.908781"><ele>39.0</ele><time>2026-05-02T09:30:40.786Z</time></trkpt><trkpt lat="38.9245341" lon="20.9088228"><ele>40.25</ele><time>2026-05-02T09:30:41.786Z</time></trkpt><trkpt lat="38.9246731" lon="20.9088696"><ele>41.5</ele><time>2026-05-02T09:30:42.785Z</time></trkpt><trkpt lat="38.9247975" lon="20.9089699"><ele>42.75</ele><time>2026-05-02T09:30:43.785Z</time></trkpt><trkpt lat="38.9248999" lon="20.9091161"><ele>44.0</ele><time>2026-05-02T09:30:44.786Z</time></trkpt><trkpt lat="38.9249879" lon="20.9093069"><ele>44.0</ele><time>2026-05-02T09:30:45.786Z</time></trkpt><trkpt lat="38.9250449" lon="20.9095158"><ele>44.0</ele><time>2026-05-02T09:30:46.786Z</time></trkpt><trkpt lat="38.9250843" lon="20.9097337"><ele>44.0</ele><time>2026-05-02T09:30:47.785Z</time></trkpt><trkpt lat="38.9251247" lon="20.90994"><ele>42.666666666666664</ele><time>2026-05-02T09:30:48.786Z</time></trkpt><trkpt lat="38.9251746" lon="20.9101341"><ele>41.333333333333336</ele><time>2026-05-02T09:30:49.785Z</time></trkpt><trkpt lat="38.9252375" lon="20.9103195"><ele>40.0</ele><time>2026-05-02T09:30:50.786Z</time></trkpt><trkpt lat="38.9253534" lon="20.910461"><ele>40.0</ele><time>2026-05-02T09:30:51.785Z</time></trkpt><trkpt lat="38.9254804" lon="20.9105748"><ele>40.0</ele><time>2026-05-02T09:30:52.786Z</time></trkpt><trkpt lat="38.9256356" lon="20.9106582"><ele>40.0</ele><time>2026-05-02T09:30:53.786Z</time></trkpt><trkpt lat="38.9258065" lon="20.9107271"><ele>41.66666666666667</ele><time>2026-05-02T09:30:54.786Z</time></trkpt><trkpt lat="38.9259805" lon="20.9107796"><ele>43.333333333333336</ele><time>2026-05-02T09:30:55.786Z</time></trkpt><trkpt lat="38.9261509" lon="20.9108333"><ele>45.0</ele><time>2026-05-02T09:30:56.786Z</time></trkpt><trkpt lat="38.9263185" lon="20.9108884"><ele>45.333333333333336</ele><time>2026-05-02T09:30:57.786Z</time></trkpt><trkpt lat="38.9264828" lon="20.9109521"><ele>45.66666666666667</ele><time>2026-05-02T09:30:58.785Z</time></trkpt><trkpt lat="38.9266364" lon="20.9110252"><ele>46.0</ele><time>2026-05-02T09:30:59.786Z</time></trkpt><trkpt lat="38.926778" lon="20.9111083"><ele>46.0</ele><time>2026-05-02T09:31:00.786Z</time></trkpt><trkpt lat="38.9269155" lon="20.9112158"><ele>46.0</ele><time>2026-05-02T09:31:01.783Z</time></trkpt><trkpt lat="38.9270471" lon="20.911347"><ele>46.0</ele><time>2026-05-02T09:31:02.785Z</time></trkpt><trkpt lat="38.927162" lon="20.9114937"><ele>46.0</ele><time>2026-05-02T09:31:03.785Z</time></trkpt><trkpt lat="38.9272586" lon="20.9116675"><ele>46.0</ele><time>2026-05-02T09:31:04.786Z</time></trkpt><trkpt lat="38.9273438" lon="20.911856"><ele>46.0</ele><time>2026-05-02T09:31:05.786Z</time></trkpt><trkpt lat="38.9274112" lon="20.9120578"><ele>48.333333333333336</ele><time>2026-05-02T09:31:06.786Z</time></trkpt><trkpt lat="38.9274653" lon="20.9122848"><ele>50.66666666666667</ele><time>2026-05-02T09:31:07.785Z</time></trkpt><trkpt lat="38.9275106" lon="20.9125234"><ele>53.0</ele><time>2026-05-02T09:31:08.785Z</time></trkpt><trkpt lat="38.9275516" lon="20.912775"><ele>53.0</ele><time>2026-05-02T09:31:09.785Z</time></trkpt><trkpt lat="38.9275909" lon="20.9130121"><ele>53.0</ele><time>2026-05-02T09:31:10.785Z</time></trkpt><trkpt lat="38.9276318" lon="20.9132573"><ele>53.0</ele><time>2026-05-02T09:31:11.786Z</time></trkpt><trkpt lat="38.927672" lon="20.9134966"><ele>53.0</ele><time>2026-05-02T09:31:12.785Z</time></trkpt><trkpt lat="38.9277124" lon="20.9137418"><ele>53.0</ele><time>2026-05-02T09:31:13.786Z</time></trkpt><trkpt lat="38.9277512" lon="20.91399"><ele>53.0</ele><time>2026-05-02T09:31:14.785Z</time></trkpt><trkpt lat="38.9277848" lon="20.9142316"><ele>55.333333333333336</ele><time>2026-05-02T09:31:15.785Z</time></trkpt><trkpt lat="38.9278193" lon="20.9144642"><ele>57.66666666666667</ele><time>2026-05-02T09:31:16.785Z</time></trkpt><trkpt lat="38.9278629" lon="20.9146865"><ele>60.0</ele><time>2026-05-02T09:31:17.785Z</time></trkpt><trkpt lat="38.9279266" lon="20.914897"><ele>65.66666666666667</ele><time>2026-05-02T09:31:18.785Z</time></trkpt><trkpt lat="38.9280024" lon="20.9150955"><ele>71.33333333333334</ele><time>2026-05-02T09:31:19.786Z</time></trkpt><trkpt lat="38.9281001" lon="20.9152768"><ele>77.0</ele><time>2026-05-02T09:31:20.785Z</time></trkpt><trkpt lat="38.9282181" lon="20.9154434"><ele>77.0</ele><time>2026-05-02T09:31:21.785Z</time></trkpt><trkpt lat="38.9283581" lon="20.9156031"><ele>77.0</ele><time>2026-05-02T09:31:22.785Z</time></trkpt><trkpt lat="38.9284896" lon="20.9157703"><ele>77.0</ele><time>2026-05-02T09:31:23.785Z</time></trkpt><trkpt lat="38.9286108" lon="20.9159432"><ele>74.0</ele><time>2026-05-02T09:31:24.786Z</time></trkpt><trkpt lat="38.9287131" lon="20.9161254"><ele>71.0</ele><time>2026-05-02T09:31:25.785Z</time></trkpt><trkpt lat="38.9287908" lon="20.9163173"><ele>68.0</ele><time>2026-05-02T09:31:26.785Z</time></trkpt><trkpt lat="38.9288459" lon="20.9165218"><ele>68.66666666666667</ele><time>2026-05-02T09:31:27.786Z</time></trkpt><trkpt lat="38.928872" lon="20.9167577"><ele>69.33333333333333</ele><time>2026-05-02T09:31:28.786Z</time></trkpt><trkpt lat="38.9288838" lon="20.9169938"><ele>70.0</ele><time>2026-05-02T09:31:29.786Z</time></trkpt><trkpt lat="38.9288727" lon="20.9172591"><ele>70.0</ele><time>2026-05-02T09:31:30.785Z</time></trkpt><trkpt lat="38.9288673" lon="20.9175326"><ele>70.0</ele><time>2026-05-02T09:31:31.784Z</time></trkpt><trkpt lat="38.9288644" lon="20.9178149"><ele>70.0</ele><time>2026-05-02T09:31:32.786Z</time></trkpt><trkpt lat="38.928854" lon="20.918111"><ele>72.5</ele><time>2026-05-02T09:31:33.786Z</time></trkpt><trkpt lat="38.9288486" lon="20.9184128"><ele>75.0</ele><time>2026-05-02T09:31:34.784Z</time></trkpt><trkpt lat="38.9288424" lon="20.918711"><ele>75.0</ele><time>2026-05-02T09:31:35.786Z</time></trkpt><trkpt lat="38.9288278" lon="20.9190122"><ele>75.0</ele><time>2026-05-02T09:31:36.786Z</time></trkpt><trkpt lat="38.9288162" lon="20.9193142"><ele>77.0</ele><time>2026-05-02T09:31:37.785Z</time></trkpt><trkpt lat="38.9288158" lon="20.9196265"><ele>79.0</ele><time>2026-05-02T09:31:38.785Z</time></trkpt><trkpt lat="38.9288154" lon="20.9199213"><ele>80.33333333333333</ele><time>2026-05-02T09:31:39.785Z</time></trkpt><trkpt lat="38.9288198" lon="20.9202064"><ele>81.66666666666667</ele><time>2026-05-02T09:31:40.786Z</time></trkpt><trkpt lat="38.9288293" lon="20.9204785"><ele>83.0</ele><time>2026-05-02T09:31:41.783Z</time></trkpt><trkpt lat="38.9288381" lon="20.9207514"><ele>84.66666666666667</ele><time>2026-05-02T09:31:42.785Z</time></trkpt><trkpt lat="38.9288405" lon="20.9210203"><ele>86.33333333333333</ele><time>2026-05-02T09:31:43.785Z</time></trkpt><trkpt lat="38.9288382" lon="20.9212863"><ele>88.0</ele><time>2026-05-02T09:31:44.786Z</time></trkpt><trkpt lat="38.9288275" lon="20.9215557"><ele>89.33333333333333</ele><time>2026-05-02T09:31:45.784Z</time></trkpt><trkpt lat="38.9288101" lon="20.9218192"><ele>90.66666666666667</ele><time>2026-05-02T09:31:46.786Z</time></trkpt><trkpt lat="38.9287915" lon="20.9220775"><ele>92.0</ele><time>2026-05-02T09:31:47.785Z</time></trkpt><trkpt lat="38.9287661" lon="20.9223329"><ele>92.33333333333334</ele><time>2026-05-02T09:31:48.786Z</time></trkpt><trkpt lat="38.9287408" lon="20.9225876"><ele>92.66666666666667</ele><time>2026-05-02T09:31:49.784Z</time></trkpt><trkpt lat="38.9287088" lon="20.9228357"><ele>93.0</ele><time>2026-05-02T09:31:50.785Z</time></trkpt><trkpt lat="38.9286692" lon="20.9230825"><ele>93.0</ele><time>2026-05-02T09:31:51.786Z</time></trkpt><trkpt lat="38.9286291" lon="20.9233332"><ele>93.0</ele><time>2026-05-02T09:31:52.786Z</time></trkpt><trkpt lat="38.9285833" lon="20.9235834"><ele>93.0</ele><time>2026-05-02T09:31:53.785Z</time></trkpt><trkpt lat="38.9285414" lon="20.9238372"><ele>93.66666666666667</ele><time>2026-05-02T09:31:54.785Z</time></trkpt><trkpt lat="38.9284958" lon="20.9240838"><ele>94.33333333333334</ele><time>2026-05-02T09:31:55.785Z</time></trkpt><trkpt lat="38.9284571" lon="20.9243394"><ele>95.0</ele><time>2026-05-02T09:31:56.785Z</time></trkpt><trkpt lat="38.9284222" lon="20.9246032"><ele>101.0</ele><time>2026-05-02T09:31:57.786Z</time></trkpt><trkpt lat="38.9283894" lon="20.9248716"><ele>107.0</ele><time>2026-05-02T09:31:58.784Z</time></trkpt><trkpt lat="38.9283573" lon="20.9251372"><ele>113.0</ele><time>2026-05-02T09:31:59.786Z</time></trkpt><trkpt lat="38.9283329" lon="20.9253971"><ele>113.0</ele><time>2026-05-02T09:32:00.785Z</time></trkpt><trkpt lat="38.9283057" lon="20.9256447"><ele>113.0</ele><time>2026-05-02T09:32:01.786Z</time></trkpt><trkpt lat="38.9282753" lon="20.9258787"><ele>113.0</ele><time>2026-05-02T09:32:02.786Z</time></trkpt><trkpt lat="38.9282436" lon="20.9261021"><ele>114.33333333333333</ele><time>2026-05-02T09:32:03.786Z</time></trkpt><trkpt lat="38.9282015" lon="20.9263125"><ele>115.66666666666666</ele><time>2026-05-02T09:32:04.786Z</time></trkpt><trkpt lat="38.9281464" lon="20.9265287"><ele>117.0</ele><time>2026-05-02T09:32:05.785Z</time></trkpt><trkpt lat="38.9280826" lon="20.9267211"><ele>116.0</ele><time>2026-05-02T09:32:06.785Z</time></trkpt><trkpt lat="38.9279998" lon="20.9268944"><ele>115.0</ele><time>2026-05-02T09:32:07.783Z</time></trkpt><trkpt lat="38.9279004" lon="20.9270551"><ele>114.0</ele><time>2026-05-02T09:32:08.785Z</time></trkpt><trkpt lat="38.9277758" lon="20.9272016"><ele>114.0</ele><time>2026-05-02T09:32:09.783Z</time></trkpt><trkpt lat="38.9276375" lon="20.9273346"><ele>114.0</ele><time>2026-05-02T09:32:10.786Z</time></trkpt><trkpt lat="38.9274894" lon="20.9274582"><ele>114.0</ele><time>2026-05-02T09:32:11.784Z</time></trkpt><trkpt lat="38.927334" lon="20.927571"><ele>107.0</ele><time>2026-05-02T09:32:12.784Z</time></trkpt><trkpt lat="38.9271765" lon="20.9276794"><ele>100.0</ele><time>2026-05-02T09:32:13.786Z</time></trkpt><trkpt lat="38.9270249" lon="20.9277952"><ele>93.0</ele><time>2026-05-02T09:32:14.784Z</time></trkpt><trkpt lat="38.9268786" lon="20.9279417"><ele>93.0</ele><time>2026-05-02T09:32:15.782Z</time></trkpt><trkpt lat="38.9267483" lon="20.9281147"><ele>93.0</ele><time>2026-05-02T09:32:16.786Z</time></trkpt><trkpt lat="38.9266307" lon="20.928324"><ele>93.0</ele><time>2026-05-02T09:32:17.784Z</time></trkpt><trkpt lat="38.9265272" lon="20.9285452"><ele>92.33333333333333</ele><time>2026-05-02T09:32:18.784Z</time></trkpt><trkpt lat="38.9264349" lon="20.9287913"><ele>91.66666666666666</ele><time>2026-05-02T09:32:19.786Z</time></trkpt><trkpt lat="38.9263528" lon="20.9290404"><ele>91.0</ele><time>2026-05-02T09:32:20.784Z</time></trkpt><trkpt lat="38.9262628" lon="20.9293018"><ele>91.0</ele><time>2026-05-02T09:32:21.784Z</time></trkpt><trkpt lat="38.9261706" lon="20.9295644"><ele>91.0</ele><time>2026-05-02T09:32:22.785Z</time></trkpt><trkpt lat="38.9260799" lon="20.9298175"><ele>91.0</ele><time>2026-05-02T09:32:23.782Z</time></trkpt><trkpt lat="38.9259913" lon="20.9300646"><ele>92.0</ele><time>2026-05-02T09:32:24.785Z</time></trkpt><trkpt lat="38.9259051" lon="20.9303019"><ele>93.0</ele><time>2026-05-02T09:32:25.785Z</time></trkpt><trkpt lat="38.9258142" lon="20.9305308"><ele>94.0</ele><time>2026-05-02T09:32:26.786Z</time></trkpt><trkpt lat="38.9257157" lon="20.9307503"><ele>89.0</ele><time>2026-05-02T09:32:27.785Z</time></trkpt><trkpt lat="38.9256121" lon="20.9309518"><ele>84.0</ele><time>2026-05-02T09:32:28.785Z</time></trkpt><trkpt lat="38.9255012" lon="20.931133"><ele>79.0</ele><time>2026-05-02T09:32:29.783Z</time></trkpt><trkpt lat="38.9253767" lon="20.9312947"><ele>79.0</ele><time>2026-05-02T09:32:30.785Z</time></trkpt><trkpt lat="38.925229" lon="20.931438"><ele>79.0</ele><time>2026-05-02T09:32:31.785Z</time></trkpt><trkpt lat="38.9250667" lon="20.9315657"><ele>79.0</ele><time>2026-05-02T09:32:32.783Z</time></trkpt><trkpt lat="38.9248961" lon="20.9316888"><ele>76.33333333333333</ele><time>2026-05-02T09:32:33.784Z</time></trkpt><trkpt lat="38.9247265" lon="20.9318096"><ele>73.66666666666667</ele><time>2026-05-02T09:32:34.786Z</time></trkpt><trkpt lat="38.9245579" lon="20.9319336"><ele>71.0</ele><time>2026-05-02T09:32:35.785Z</time></trkpt><trkpt lat="38.9243946" lon="20.9320721"><ele>71.0</ele><time>2026-05-02T09:32:36.785Z</time></trkpt><trkpt lat="38.9242376" lon="20.9322252"><ele>71.0</ele><time>2026-05-02T09:32:37.785Z</time></trkpt><trkpt lat="38.9240892" lon="20.9323959"><ele>71.0</ele><time>2026-05-02T09:32:38.784Z</time></trkpt><trkpt lat="38.9239555" lon="20.932591"><ele>71.66666666666667</ele><time>2026-05-02T09:32:39.785Z</time></trkpt><trkpt lat="38.9238233" lon="20.9328081"><ele>72.33333333333333</ele><time>2026-05-02T09:32:40.784Z</time></trkpt><trkpt lat="38.9236997" lon="20.9330407"><ele>73.0</ele><time>2026-05-02T09:32:41.783Z</time></trkpt><trkpt lat="38.9235819" lon="20.9332817"><ele>74.0</ele><time>2026-05-02T09:32:42.783Z</time></trkpt><trkpt lat="38.9234638" lon="20.9335269"><ele>75.0</ele><time>2026-05-02T09:32:43.785Z</time></trkpt><trkpt lat="38.9233411" lon="20.9337844"><ele>75.0</ele><time>2026-05-02T09:32:44.785Z</time></trkpt><trkpt lat="38.9232151" lon="20.9340384"><ele>75.0</ele><time>2026-05-02T09:32:45.783Z</time></trkpt><trkpt lat="38.9230879" lon="20.9342976"><ele>70.0</ele><time>2026-05-02T09:32:46.784Z</time></trkpt><trkpt lat="38.9229588" lon="20.9345587"><ele>65.0</ele><time>2026-05-02T09:32:47.785Z</time></trkpt><trkpt lat="38.9228295" lon="20.9348239"><ele>59.0</ele><time>2026-05-02T09:32:48.784Z</time></trkpt><trkpt lat="38.9227003" lon="20.9350861"><ele>53.0</ele><time>2026-05-02T09:32:49.783Z</time></trkpt><trkpt lat="38.9225747" lon="20.935352"><ele>55.0</ele><time>2026-05-02T09:32:50.785Z</time></trkpt><trkpt lat="38.9224462" lon="20.9356221"><ele>57.0</ele><time>2026-05-02T09:32:51.784Z</time></trkpt><trkpt lat="38.9223175" lon="20.935893"><ele>57.0</ele><time>2026-05-02T09:32:52.786Z</time></trkpt><trkpt lat="38.9221887" lon="20.9361626"><ele>57.0</ele><time>2026-05-02T09:32:53.785Z</time></trkpt><trkpt lat="38.9220608" lon="20.9364298"><ele>57.0</ele><time>2026-05-02T09:32:54.785Z</time></trkpt><trkpt lat="38.9219374" lon="20.9366959"><ele>57.0</ele><time>2026-05-02T09:32:55.785Z</time></trkpt><trkpt lat="38.9218097" lon="20.9369581"><ele>64.0</ele><time>2026-05-02T09:32:56.784Z</time></trkpt><trkpt lat="38.9216826" lon="20.9372218"><ele>71.0</ele><time>2026-05-02T09:32:57.785Z</time></trkpt><trkpt lat="38.9215564" lon="20.9374799"><ele>68.5</ele><time>2026-05-02T09:32:58.784Z</time></trkpt><trkpt lat="38.9214332" lon="20.9377293"><ele>66.0</ele><time>2026-05-02T09:32:59.786Z</time></trkpt><trkpt lat="38.9213073" lon="20.9379861"><ele>66.0</ele><time>2026-05-02T09:33:00.783Z</time></trkpt><trkpt lat="38.9211862" lon="20.9382477"><ele>66.0</ele><time>2026-05-02T09:33:01.784Z</time></trkpt><trkpt lat="38.921065" lon="20.9385058"><ele>63.5</ele><time>2026-05-02T09:33:02.783Z</time></trkpt><trkpt lat="38.9209427" lon="20.938769"><ele>61.0</ele><time>2026-05-02T09:33:03.784Z</time></trkpt><trkpt lat="38.9208181" lon="20.9390261"><ele>56.0</ele><time>2026-05-02T09:33:04.785Z</time></trkpt><trkpt lat="38.9206905" lon="20.9392858"><ele>51.0</ele><time>2026-05-02T09:33:05.785Z</time></trkpt><trkpt lat="38.9205637" lon="20.9395428"><ele>51.0</ele><time>2026-05-02T09:33:06.785Z</time></trkpt><trkpt lat="38.9204355" lon="20.9397995"><ele>51.0</ele><time>2026-05-02T09:33:07.784Z</time></trkpt><trkpt lat="38.920306" lon="20.9400578"><ele>54.0</ele><time>2026-05-02T09:33:08.783Z</time></trkpt><trkpt lat="38.9201795" lon="20.9403176"><ele>57.0</ele><time>2026-05-02T09:33:09.785Z</time></trkpt><trkpt lat="38.9200536" lon="20.9405764"><ele>57.0</ele><time>2026-05-02T09:33:10.785Z</time></trkpt><trkpt lat="38.9199265" lon="20.9408366"><ele>57.0</ele><time>2026-05-02T09:33:11.784Z</time></trkpt><trkpt lat="38.9198009" lon="20.9410922"><ele>55.0</ele><time>2026-05-02T09:33:12.784Z</time></trkpt><trkpt lat="38.9196758" lon="20.9413536"><ele>53.0</ele><time>2026-05-02T09:33:13.785Z</time></trkpt><trkpt lat="38.9195506" lon="20.9416141"><ele>54.5</ele><time>2026-05-02T09:33:14.784Z</time></trkpt><trkpt lat="38.9194225" lon="20.9418713"><ele>56.0</ele><time>2026-05-02T09:33:15.783Z</time></trkpt><trkpt lat="38.9192939" lon="20.9421353"><ele>60.0</ele><time>2026-05-02T09:33:16.784Z</time></trkpt><trkpt lat="38.9191637" lon="20.9424049"><ele>64.0</ele><time>2026-05-02T09:33:17.784Z</time></trkpt><trkpt lat="38.919034" lon="20.9426787"><ele>66.0</ele><time>2026-05-02T09:33:18.783Z</time></trkpt><trkpt lat="38.918896" lon="20.9429627"><ele>68.0</ele><time>2026-05-02T09:33:19.786Z</time></trkpt><trkpt lat="38.9187647" lon="20.9432333"><ele>68.0</ele><time>2026-05-02T09:33:20.785Z</time></trkpt><trkpt lat="38.9186405" lon="20.9435079"><ele>68.0</ele><time>2026-05-02T09:33:21.784Z</time></trkpt><trkpt lat="38.9185115" lon="20.9437759"><ele>67.5</ele><time>2026-05-02T09:33:22.786Z</time></trkpt><trkpt lat="38.9183835" lon="20.944044"><ele>67.0</ele><time>2026-05-02T09:33:23.785Z</time></trkpt><trkpt lat="38.9182575" lon="20.9443094"><ele>64.5</ele><time>2026-05-02T09:33:24.786Z</time></trkpt><trkpt lat="38.9181288" lon="20.9445644"><ele>62.0</ele><time>2026-05-02T09:33:25.785Z</time></trkpt><trkpt lat="38.9180062" lon="20.9448162"><ele>60.0</ele><time>2026-05-02T09:33:26.784Z</time></trkpt><trkpt lat="38.9178776" lon="20.945057"><ele>58.0</ele><time>2026-05-02T09:33:27.785Z</time></trkpt><trkpt lat="38.9177492" lon="20.9452905"><ele>58.0</ele><time>2026-05-02T09:33:28.783Z</time></trkpt><trkpt lat="38.9176208" lon="20.9455082"><ele>58.0</ele><time>2026-05-02T09:33:29.784Z</time></trkpt><trkpt lat="38.9174906" lon="20.9457277"><ele>58.0</ele><time>2026-05-02T09:33:30.785Z</time></trkpt><trkpt lat="38.917343" lon="20.945927"><ele>60.33333333333333</ele><time>2026-05-02T09:33:31.786Z</time></trkpt><trkpt lat="38.9171783" lon="20.9461122"><ele>62.66666666666667</ele><time>2026-05-02T09:33:32.786Z</time></trkpt><trkpt lat="38.9169897" lon="20.9462674"><ele>65.0</ele><time>2026-05-02T09:33:33.784Z</time></trkpt><trkpt lat="38.9167845" lon="20.946416"><ele>71.0</ele><time>2026-05-02T09:33:34.784Z</time></trkpt><trkpt lat="38.9165729" lon="20.946543"><ele>77.0</ele><time>2026-05-02T09:33:35.785Z</time></trkpt><trkpt lat="38.9163594" lon="20.9466544"><ele>71.5</ele><time>2026-05-02T09:33:36.786Z</time></trkpt><trkpt lat="38.9161365" lon="20.9467276"><ele>66.0</ele><time>2026-05-02T09:33:37.784Z</time></trkpt><trkpt lat="38.9159068" lon="20.9467944"><ele>69.5</ele><time>2026-05-02T09:33:38.784Z</time></trkpt><trkpt lat="38.915668" lon="20.9468517"><ele>73.0</ele><time>2026-05-02T09:33:39.784Z</time></trkpt><trkpt lat="38.915413" lon="20.946897"><ele>73.0</ele><time>2026-05-02T09:33:40.785Z</time></trkpt><trkpt lat="38.9151501" lon="20.9469308"><ele>73.0</ele><time>2026-05-02T09:33:41.785Z</time></trkpt><trkpt lat="38.9148784" lon="20.9469801"><ele>76.5</ele><time>2026-05-02T09:33:42.785Z</time></trkpt><trkpt lat="38.9146085" lon="20.9470238"><ele>80.0</ele><time>2026-05-02T09:33:43.783Z</time></trkpt><trkpt lat="38.9143447" lon="20.9470684"><ele>85.0</ele><time>2026-05-02T09:33:44.784Z</time></trkpt><trkpt lat="38.9140827" lon="20.9471137"><ele>90.0</ele><time>2026-05-02T09:33:45.784Z</time></trkpt><trkpt lat="38.9138207" lon="20.9471618"><ele>90.0</ele><time>2026-05-02T09:33:46.785Z</time></trkpt><trkpt lat="38.9135647" lon="20.9472115"><ele>90.0</ele><time>2026-05-02T09:33:47.783Z</time></trkpt><trkpt lat="38.9133088" lon="20.9472552"><ele>94.5</ele><time>2026-05-02T09:33:48.786Z</time></trkpt><trkpt lat="38.9130722" lon="20.947299"><ele>99.0</ele><time>2026-05-02T09:33:49.784Z</time></trkpt><trkpt lat="38.9128201" lon="20.9473343"><ele>99.0</ele><time>2026-05-02T09:33:50.781Z</time></trkpt><trkpt lat="38.9125785" lon="20.9473696"><ele>99.0</ele><time>2026-05-02T09:33:51.786Z</time></trkpt><trkpt lat="38.9123467" lon="20.9474153"><ele>102.66666666666666</ele><time>2026-05-02T09:33:52.785Z</time></trkpt><trkpt lat="38.9121207" lon="20.9474586"><ele>106.33333333333333</ele><time>2026-05-02T09:33:53.785Z</time></trkpt><trkpt lat="38.9119035" lon="20.9474959"><ele>110.0</ele><time>2026-05-02T09:33:54.785Z</time></trkpt><trkpt lat="38.9116998" lon="20.9475264"><ele>106.33333333333333</ele><time>2026-05-02T09:33:55.783Z</time></trkpt><trkpt lat="38.9115001" lon="20.9475556"><ele>102.66666666666666</ele><time>2026-05-02T09:33:56.783Z</time></trkpt><trkpt lat="38.9113076" lon="20.9475601"><ele>99.0</ele><time>2026-05-02T09:33:57.785Z</time></trkpt><trkpt lat="38.9111075" lon="20.9475468"><ele>106.0</ele><time>2026-05-02T09:33:58.783Z</time></trkpt><trkpt lat="38.9108968" lon="20.9475141"><ele>113.0</ele><time>2026-05-02T09:33:59.786Z</time></trkpt><trkpt lat="38.9106934" lon="20.947461"><ele>120.0</ele><time>2026-05-02T09:34:00.782Z</time></trkpt><trkpt lat="38.9104894" lon="20.9473798"><ele>120.0</ele><time>2026-05-02T09:34:01.785Z</time></trkpt><trkpt lat="38.9103041" lon="20.9472899"><ele>120.0</ele><time>2026-05-02T09:34:02.785Z</time></trkpt><trkpt lat="38.9101309" lon="20.9471888"><ele>120.0</ele><time>2026-05-02T09:34:03.784Z</time></trkpt><trkpt lat="38.9099742" lon="20.9470993"><ele>120.75</ele><time>2026-05-02T09:34:04.784Z</time></trkpt><trkpt lat="38.9098305" lon="20.947026"><ele>121.5</ele><time>2026-05-02T09:34:05.786Z</time></trkpt><trkpt lat="38.9096931" lon="20.9469603"><ele>122.25</ele><time>2026-05-02T09:34:06.784Z</time></trkpt><trkpt lat="38.9095612" lon="20.9469241"><ele>123.0</ele><time>2026-05-02T09:34:07.783Z</time></trkpt><trkpt lat="38.9094336" lon="20.9469305"><ele>123.0</ele><time>2026-05-02T09:34:08.784Z</time></trkpt><trkpt lat="38.9093263" lon="20.9469798"><ele>123.0</ele><time>2026-05-02T09:34:09.783Z</time></trkpt><trkpt lat="38.9092344" lon="20.9470666"><ele>123.0</ele><time>2026-05-02T09:34:10.784Z</time></trkpt><trkpt lat="38.9091701" lon="20.9471832"><ele>123.0</ele><time>2026-05-02T09:34:11.786Z</time></trkpt><trkpt lat="38.9091399" lon="20.9473282"><ele>123.0</ele><time>2026-05-02T09:34:12.786Z</time></trkpt><trkpt lat="38.9091475" lon="20.9474811"><ele>123.0</ele><time>2026-05-02T09:34:13.783Z</time></trkpt><trkpt lat="38.9091911" lon="20.9476419"><ele>123.0</ele><time>2026-05-02T09:34:14.784Z</time></trkpt><trkpt lat="38.9092782" lon="20.9477999"><ele>123.0</ele><time>2026-05-02T09:34:15.784Z</time></trkpt><trkpt lat="38.9094147" lon="20.9479707"><ele>123.0</ele><time>2026-05-02T09:34:16.784Z</time></trkpt><trkpt lat="38.9095679" lon="20.9481541"><ele>123.0</ele><time>2026-05-02T09:34:17.784Z</time></trkpt><trkpt lat="38.9097371" lon="20.9483383"><ele>123.0</ele><time>2026-05-02T09:34:18.785Z</time></trkpt><trkpt lat="38.9099023" lon="20.9485107"><ele>120.0</ele><time>2026-05-02T09:34:19.785Z</time></trkpt><trkpt lat="38.910047" lon="20.9486796"><ele>117.0</ele><time>2026-05-02T09:34:20.786Z</time></trkpt><trkpt lat="38.9101701" lon="20.9488483"><ele>114.0</ele><time>2026-05-02T09:34:21.783Z</time></trkpt><trkpt lat="38.910257" lon="20.9490147"><ele>114.0</ele><time>2026-05-02T09:34:22.783Z</time></trkpt><trkpt lat="38.9103227" lon="20.9491948"><ele>114.0</ele><time>2026-05-02T09:34:23.785Z</time></trkpt><trkpt lat="38.9103458" lon="20.949379"><ele>114.0</ele><time>2026-05-02T09:34:24.786Z</time></trkpt><trkpt lat="38.910345" lon="20.9495668"><ele>114.0</ele><time>2026-05-02T09:34:25.783Z</time></trkpt><trkpt lat="38.910298" lon="20.9497642"><ele>116.0</ele><time>2026-05-02T09:34:26.785Z</time></trkpt><trkpt lat="38.9102335" lon="20.9499534"><ele>118.0</ele><time>2026-05-02T09:34:27.783Z</time></trkpt><trkpt lat="38.9101525" lon="20.9501385"><ele>120.0</ele><time>2026-05-02T09:34:28.785Z</time></trkpt><trkpt lat="38.9100621" lon="20.9503222"><ele>126.0</ele><time>2026-05-02T09:34:29.785Z</time></trkpt><trkpt lat="38.9099618" lon="20.9505187"><ele>132.0</ele><time>2026-05-02T09:34:30.784Z</time></trkpt><trkpt lat="38.9098537" lon="20.950714"><ele>138.0</ele><time>2026-05-02T09:34:31.785Z</time></trkpt><trkpt lat="38.9097496" lon="20.9509095"><ele>139.0</ele><time>2026-05-02T09:34:32.784Z</time></trkpt><trkpt lat="38.9096409" lon="20.9511079"><ele>140.0</ele><time>2026-05-02T09:34:33.784Z</time></trkpt><trkpt lat="38.9095339" lon="20.9513082"><ele>141.0</ele><time>2026-05-02T09:34:34.785Z</time></trkpt><trkpt lat="38.9094217" lon="20.9515093"><ele>140.66666666666666</ele><time>2026-05-02T09:34:35.783Z</time></trkpt><trkpt lat="38.9093128" lon="20.9517149"><ele>140.33333333333331</ele><time>2026-05-02T09:34:36.785Z</time></trkpt><trkpt lat="38.9091999" lon="20.9519236"><ele>140.0</ele><time>2026-05-02T09:34:37.784Z</time></trkpt><trkpt lat="38.9090856" lon="20.9521257"><ele>139.66666666666666</ele><time>2026-05-02T09:34:38.785Z</time></trkpt><trkpt lat="38.9089713" lon="20.952332"><ele>139.33333333333334</ele><time>2026-05-02T09:34:39.784Z</time></trkpt><trkpt lat="38.9088594" lon="20.9525408"><ele>139.0</ele><time>2026-05-02T09:34:40.784Z</time></trkpt><trkpt lat="38.9087486" lon="20.9527497"><ele>135.33333333333334</ele><time>2026-05-02T09:34:41.785Z</time></trkpt><trkpt lat="38.9086368" lon="20.9529618"><ele>131.66666666666666</ele><time>2026-05-02T09:34:42.784Z</time></trkpt><trkpt lat="38.9085322" lon="20.9531792"><ele>128.0</ele><time>2026-05-02T09:34:43.784Z</time></trkpt><trkpt lat="38.9084399" lon="20.9534041"><ele>127.0</ele><time>2026-05-02T09:34:44.784Z</time></trkpt><trkpt lat="38.9083651" lon="20.9536342"><ele>126.0</ele><time>2026-05-02T09:34:45.784Z</time></trkpt><trkpt lat="38.9083104" lon="20.9538561"><ele>125.0</ele><time>2026-05-02T09:34:46.786Z</time></trkpt><trkpt lat="38.908271" lon="20.954083"><ele>122.66666666666666</ele><time>2026-05-02T09:34:47.782Z</time></trkpt><trkpt lat="38.908254" lon="20.9543044"><ele>120.33333333333334</ele><time>2026-05-02T09:34:48.786Z</time></trkpt><trkpt lat="38.9082577" lon="20.9545254"><ele>118.0</ele><time>2026-05-02T09:34:49.783Z</time></trkpt><trkpt lat="38.9082802" lon="20.9547579"><ele>118.0</ele><time>2026-05-02T09:34:50.784Z</time></trkpt><trkpt lat="38.9083267" lon="20.9550076"><ele>118.0</ele><time>2026-05-02T09:34:51.783Z</time></trkpt><trkpt lat="38.9083919" lon="20.9552711"><ele>118.0</ele><time>2026-05-02T09:34:52.783Z</time></trkpt><trkpt lat="38.9084776" lon="20.9555397"><ele>114.0</ele><time>2026-05-02T09:34:53.786Z</time></trkpt><trkpt lat="38.9085832" lon="20.9558262"><ele>110.0</ele><time>2026-05-02T09:34:54.785Z</time></trkpt><trkpt lat="38.9087065" lon="20.956128"><ele>110.0</ele><time>2026-05-02T09:34:55.784Z</time></trkpt><trkpt lat="38.9088256" lon="20.9564286"><ele>110.0</ele><time>2026-05-02T09:34:56.785Z</time></trkpt><trkpt lat="38.9089392" lon="20.956724"><ele>114.0</ele><time>2026-05-02T09:34:57.783Z</time></trkpt><trkpt lat="38.9090428" lon="20.9570043"><ele>118.0</ele><time>2026-05-02T09:34:58.785Z</time></trkpt><trkpt lat="38.9091429" lon="20.95727"><ele>117.33333333333334</ele><time>2026-05-02T09:34:59.784Z</time></trkpt><trkpt lat="38.9092431" lon="20.9575221"><ele>116.66666666666666</ele><time>2026-05-02T09:35:00.783Z</time></trkpt><trkpt lat="38.9093383" lon="20.957764"><ele>116.0</ele><time>2026-05-02T09:35:01.784Z</time></trkpt><trkpt lat="38.9094313" lon="20.9580003"><ele>117.66666666666666</ele><time>2026-05-02T09:35:02.783Z</time></trkpt><trkpt lat="38.9095289" lon="20.9582398"><ele>119.33333333333334</ele><time>2026-05-02T09:35:03.784Z</time></trkpt><trkpt lat="38.9096181" lon="20.9584685"><ele>121.0</ele><time>2026-05-02T09:35:04.784Z</time></trkpt><trkpt lat="38.9097057" lon="20.9586941"><ele>123.33333333333334</ele><time>2026-05-02T09:35:05.783Z</time></trkpt><trkpt lat="38.9097941" lon="20.9589123"><ele>125.66666666666666</ele><time>2026-05-02T09:35:06.785Z</time></trkpt><trkpt lat="38.9098832" lon="20.9591369"><ele>128.0</ele><time>2026-05-02T09:35:07.783Z</time></trkpt><trkpt lat="38.9099722" lon="20.9593701"><ele>128.33333333333331</ele><time>2026-05-02T09:35:08.786Z</time></trkpt><trkpt lat="38.9100646" lon="20.9595978"><ele>128.66666666666666</ele><time>2026-05-02T09:35:09.783Z</time></trkpt><trkpt lat="38.910157" lon="20.9598404"><ele>129.0</ele><time>2026-05-02T09:35:10.785Z</time></trkpt><trkpt lat="38.9102532" lon="20.9600779"><ele>129.0</ele><time>2026-05-02T09:35:11.785Z</time></trkpt><trkpt lat="38.9103548" lon="20.9603185"><ele>129.0</ele><time>2026-05-02T09:35:12.783Z</time></trkpt><trkpt lat="38.9104623" lon="20.9605562"><ele>129.0</ele><time>2026-05-02T09:35:13.786Z</time></trkpt><trkpt lat="38.9105762" lon="20.9607958"><ele>129.66666666666666</ele><time>2026-05-02T09:35:14.785Z</time></trkpt><trkpt lat="38.9106951" lon="20.9610281"><ele>130.33333333333331</ele><time>2026-05-02T09:35:15.786Z</time></trkpt><trkpt lat="38.910818" lon="20.9612595"><ele>131.0</ele><time>2026-05-02T09:35:16.784Z</time></trkpt><trkpt lat="38.9109461" lon="20.9614929"><ele>128.5</ele><time>2026-05-02T09:35:17.784Z</time></trkpt><trkpt lat="38.9110783" lon="20.9617227"><ele>126.0</ele><time>2026-05-02T09:35:18.784Z</time></trkpt><trkpt lat="38.9112234" lon="20.9619504"><ele>126.0</ele><time>2026-05-02T09:35:19.785Z</time></trkpt><trkpt lat="38.9113632" lon="20.962183"><ele>126.0</ele><time>2026-05-02T09:35:20.784Z</time></trkpt><trkpt lat="38.9115007" lon="20.9624206"><ele>127.0</ele><time>2026-05-02T09:35:21.784Z</time></trkpt><trkpt lat="38.911643" lon="20.9626549"><ele>128.0</ele><time>2026-05-02T09:35:22.784Z</time></trkpt><trkpt lat="38.911781" lon="20.9628903"><ele>128.0</ele><time>2026-05-02T09:35:23.785Z</time></trkpt><trkpt lat="38.9119193" lon="20.9631275"><ele>128.0</ele><time>2026-05-02T09:35:24.784Z</time></trkpt><trkpt lat="38.9120582" lon="20.963363"><ele>126.5</ele><time>2026-05-02T09:35:25.783Z</time></trkpt><trkpt lat="38.9121967" lon="20.9636"><ele>125.0</ele><time>2026-05-02T09:35:26.785Z</time></trkpt><trkpt lat="38.912335" lon="20.9638282"><ele>125.0</ele><time>2026-05-02T09:35:27.785Z</time></trkpt><trkpt lat="38.9124799" lon="20.9640438"><ele>125.0</ele><time>2026-05-02T09:35:28.785Z</time></trkpt><trkpt lat="38.9126069" lon="20.9642545"><ele>125.0</ele><time>2026-05-02T09:35:29.782Z</time></trkpt><trkpt lat="38.9127269" lon="20.9644556"><ele>122.0</ele><time>2026-05-02T09:35:30.784Z</time></trkpt><trkpt lat="38.9128337" lon="20.9646412"><ele>119.0</ele><time>2026-05-02T09:35:31.786Z</time></trkpt><trkpt lat="38.9129263" lon="20.9648157"><ele>116.0</ele><time>2026-05-02T09:35:32.783Z</time></trkpt><trkpt lat="38.9129901" lon="20.9649895"><ele>115.25</ele><time>2026-05-02T09:35:33.785Z</time></trkpt><trkpt lat="38.9130267" lon="20.9651691"><ele>114.5</ele><time>2026-05-02T09:35:34.783Z</time></trkpt><trkpt lat="38.9130354" lon="20.9653475"><ele>113.75</ele><time>2026-05-02T09:35:35.784Z</time></trkpt><trkpt lat="38.9130028" lon="20.9655129"><ele>113.0</ele><time>2026-05-02T09:35:36.785Z</time></trkpt><trkpt lat="38.9129444" lon="20.9656669"><ele>113.0</ele><time>2026-05-02T09:35:37.783Z</time></trkpt><trkpt lat="38.9128559" lon="20.9658048"><ele>113.0</ele><time>2026-05-02T09:35:38.785Z</time></trkpt><trkpt lat="38.9127393" lon="20.9659119"><ele>113.0</ele><time>2026-05-02T09:35:39.783Z</time></trkpt><trkpt lat="38.9125818" lon="20.9659717"><ele>113.0</ele><time>2026-05-02T09:35:40.783Z</time></trkpt><trkpt lat="38.9124133" lon="20.966023"><ele>104.33333333333333</ele><time>2026-05-02T09:35:41.783Z</time></trkpt><trkpt lat="38.9122193" lon="20.9660789"><ele>95.66666666666666</ele><time>2026-05-02T09:35:42.782Z</time></trkpt><trkpt lat="38.9120228" lon="20.9661319"><ele>87.0</ele><time>2026-05-02T09:35:43.784Z</time></trkpt><trkpt lat="38.9118191" lon="20.9661761"><ele>89.0</ele><time>2026-05-02T09:35:44.786Z</time></trkpt><trkpt lat="38.9116128" lon="20.9662214"><ele>91.0</ele><time>2026-05-02T09:35:45.786Z</time></trkpt><trkpt lat="38.9114113" lon="20.9662599"><ele>93.0</ele><time>2026-05-02T09:35:46.782Z</time></trkpt><trkpt lat="38.9112159" lon="20.9663016"><ele>93.0</ele><time>2026-05-02T09:35:47.783Z</time></trkpt><trkpt lat="38.9110333" lon="20.9663405"><ele>93.0</ele><time>2026-05-02T09:35:48.786Z</time></trkpt><trkpt lat="38.9108631" lon="20.9663769"><ele>93.0</ele><time>2026-05-02T09:35:49.783Z</time></trkpt><trkpt lat="38.9107067" lon="20.9664257"><ele>95.0</ele><time>2026-05-02T09:35:50.785Z</time></trkpt><trkpt lat="38.9105698" lon="20.9664986"><ele>97.0</ele><time>2026-05-02T09:35:51.783Z</time></trkpt><trkpt lat="38.9104444" lon="20.9665954"><ele>99.0</ele><time>2026-05-02T09:35:52.785Z</time></trkpt><trkpt lat="38.9103339" lon="20.9667261"><ele>101.0</ele><time>2026-05-02T09:35:53.785Z</time></trkpt><trkpt lat="38.9102481" lon="20.9668862"><ele>92.33333333333333</ele><time>2026-05-02T09:35:54.783Z</time></trkpt><trkpt lat="38.9101859" lon="20.9670838"><ele>83.66666666666666</ele><time>2026-05-02T09:35:55.785Z</time></trkpt><trkpt lat="38.9101398" lon="20.9672959"><ele>75.0</ele><time>2026-05-02T09:35:56.784Z</time></trkpt><trkpt lat="38.910104" lon="20.9675263"><ele>80.66666666666667</ele><time>2026-05-02T09:35:57.785Z</time></trkpt><trkpt lat="38.9100648" lon="20.967745"><ele>86.33333333333334</ele><time>2026-05-02T09:35:58.786Z</time></trkpt><trkpt lat="38.91001" lon="20.9679518"><ele>92.0</ele><time>2026-05-02T09:35:59.785Z</time></trkpt><trkpt lat="38.9099287" lon="20.9681489"><ele>92.0</ele><time>2026-05-02T09:36:00.784Z</time></trkpt><trkpt lat="38.9098217" lon="20.9683315"><ele>92.0</ele><time>2026-05-02T09:36:01.785Z</time></trkpt><trkpt lat="38.9096728" lon="20.968531"><ele>92.0</ele><time>2026-05-02T09:36:02.783Z</time></trkpt><trkpt lat="38.9095055" lon="20.9687293"><ele>92.5</ele><time>2026-05-02T09:36:03.786Z</time></trkpt><trkpt lat="38.9093267" lon="20.9689292"><ele>93.0</ele><time>2026-05-02T09:36:04.785Z</time></trkpt><trkpt lat="38.9091507" lon="20.969123"><ele>88.0</ele><time>2026-05-02T09:36:05.786Z</time></trkpt><trkpt lat="38.9089808" lon="20.9693186"><ele>83.0</ele><time>2026-05-02T09:36:06.785Z</time></trkpt><trkpt lat="38.9088106" lon="20.969508"><ele>83.0</ele><time>2026-05-02T09:36:07.785Z</time></trkpt><trkpt lat="38.9086481" lon="20.9696971"><ele>83.0</ele><time>2026-05-02T09:36:08.786Z</time></trkpt><trkpt lat="38.9084857" lon="20.9698791"><ele>83.0</ele><time>2026-05-02T09:36:09.784Z</time></trkpt><trkpt lat="38.9083265" lon="20.9700627"><ele>82.33333333333334</ele><time>2026-05-02T09:36:10.786Z</time></trkpt><trkpt lat="38.9081666" lon="20.9702453"><ele>81.66666666666667</ele><time>2026-05-02T09:36:11.785Z</time></trkpt><trkpt lat="38.9080005" lon="20.9704282"><ele>81.0</ele><time>2026-05-02T09:36:12.785Z</time></trkpt><trkpt lat="38.9078354" lon="20.970614"><ele>81.0</ele><time>2026-05-02T09:36:13.783Z</time></trkpt><trkpt lat="38.9076694" lon="20.9707995"><ele>81.0</ele><time>2026-05-02T09:36:14.786Z</time></trkpt><trkpt lat="38.907509" lon="20.9709833"><ele>81.0</ele><time>2026-05-02T09:36:15.786Z</time></trkpt><trkpt lat="38.9073609" lon="20.9711587"><ele>84.33333333333333</ele><time>2026-05-02T09:36:16.786Z</time></trkpt><trkpt lat="38.9072203" lon="20.9713152"><ele>87.66666666666666</ele><time>2026-05-02T09:36:17.784Z</time></trkpt><trkpt lat="38.9070964" lon="20.9714758"><ele>91.0</ele><time>2026-05-02T09:36:18.785Z</time></trkpt><trkpt lat="38.9069914" lon="20.971652"><ele>94.0</ele><time>2026-05-02T09:36:19.784Z</time></trkpt><trkpt lat="38.9069072" lon="20.9718467"><ele>97.0</ele><time>2026-05-02T09:36:20.784Z</time></trkpt><trkpt lat="38.906847" lon="20.972066"><ele>100.0</ele><time>2026-05-02T09:36:21.785Z</time></trkpt><trkpt lat="38.9068096" lon="20.9723193"><ele>97.33333333333334</ele><time>2026-05-02T09:36:22.783Z</time></trkpt><trkpt lat="38.9067843" lon="20.9725944"><ele>94.66666666666667</ele><time>2026-05-02T09:36:23.785Z</time></trkpt><trkpt lat="38.9067695" lon="20.9728918"><ele>92.0</ele><time>2026-05-02T09:36:24.786Z</time></trkpt><trkpt lat="38.9067672" lon="20.973209"><ele>91.0</ele><time>2026-05-02T09:36:25.783Z</time></trkpt><trkpt lat="38.9067499" lon="20.9735428"><ele>90.0</ele><time>2026-05-02T09:36:26.784Z</time></trkpt><trkpt lat="38.9067339" lon="20.9738796"><ele>90.0</ele><time>2026-05-02T09:36:27.786Z</time></trkpt><trkpt lat="38.9067177" lon="20.9742156"><ele>90.0</ele><time>2026-05-02T09:36:28.786Z</time></trkpt><trkpt lat="38.9066997" lon="20.9745431"><ele>90.0</ele><time>2026-05-02T09:36:29.786Z</time></trkpt><trkpt lat="38.9066866" lon="20.9748533"><ele>90.0</ele><time>2026-05-02T09:36:30.783Z</time></trkpt><trkpt lat="38.9066721" lon="20.9751488"><ele>91.0</ele><time>2026-05-02T09:36:31.786Z</time></trkpt><trkpt lat="38.9066546" lon="20.975437"><ele>92.0</ele><time>2026-05-02T09:36:32.784Z</time></trkpt><trkpt lat="38.9066448" lon="20.9757139"><ele>93.0</ele><time>2026-05-02T09:36:33.785Z</time></trkpt><trkpt lat="38.9066329" lon="20.9759925"><ele>93.33333333333333</ele><time>2026-05-02T09:36:34.786Z</time></trkpt><trkpt lat="38.9066254" lon="20.9762628"><ele>93.66666666666666</ele><time>2026-05-02T09:36:35.785Z</time></trkpt><trkpt lat="38.906611" lon="20.9765286"><ele>94.0</ele><time>2026-05-02T09:36:36.785Z</time></trkpt><trkpt lat="38.9066016" lon="20.9767929"><ele>93.0</ele><time>2026-05-02T09:36:37.784Z</time></trkpt><trkpt lat="38.9065967" lon="20.977062"><ele>92.0</ele><time>2026-05-02T09:36:38.785Z</time></trkpt><trkpt lat="38.9066043" lon="20.9773295"><ele>91.0</ele><time>2026-05-02T09:36:39.785Z</time></trkpt><trkpt lat="38.9066326" lon="20.9775845"><ele>90.0</ele><time>2026-05-02T09:36:40.784Z</time></trkpt><trkpt lat="38.9066819" lon="20.9778359"><ele>89.0</ele><time>2026-05-02T09:36:41.785Z</time></trkpt><trkpt lat="38.9067559" lon="20.9780969"><ele>88.0</ele><time>2026-05-02T09:36:42.785Z</time></trkpt><trkpt lat="38.9068433" lon="20.9783531"><ele>91.5</ele><time>2026-05-02T09:36:43.786Z</time></trkpt><trkpt lat="38.9069399" lon="20.9786174"><ele>95.0</ele><time>2026-05-02T09:36:44.785Z</time></trkpt><trkpt lat="38.9070378" lon="20.978877"><ele>95.0</ele><time>2026-05-02T09:36:45.785Z</time></trkpt><trkpt lat="38.9071373" lon="20.9791306"><ele>95.0</ele><time>2026-05-02T09:36:46.785Z</time></trkpt><trkpt lat="38.9072383" lon="20.9793867"><ele>95.0</ele><time>2026-05-02T09:36:47.783Z</time></trkpt><trkpt lat="38.9073394" lon="20.9796334"><ele>92.66666666666667</ele><time>2026-05-02T09:36:48.786Z</time></trkpt><trkpt lat="38.9074378" lon="20.9798712"><ele>90.33333333333333</ele><time>2026-05-02T09:36:49.786Z</time></trkpt><trkpt lat="38.9075278" lon="20.9800985"><ele>88.0</ele><time>2026-05-02T09:36:50.785Z</time></trkpt><trkpt lat="38.9076129" lon="20.9803228"><ele>88.0</ele><time>2026-05-02T09:36:51.786Z</time></trkpt><trkpt lat="38.9076869" lon="20.9805376"><ele>88.0</ele><time>2026-05-02T09:36:52.785Z</time></trkpt><trkpt lat="38.9077441" lon="20.9807431"><ele>88.0</ele><time>2026-05-02T09:36:53.785Z</time></trkpt><trkpt lat="38.9077726" lon="20.9809443"><ele>90.0</ele><time>2026-05-02T09:36:54.784Z</time></trkpt><trkpt lat="38.9077708" lon="20.9811477"><ele>92.0</ele><time>2026-05-02T09:36:55.782Z</time></trkpt><trkpt lat="38.9077375" lon="20.981347"><ele>94.0</ele><time>2026-05-02T09:36:56.784Z</time></trkpt><trkpt lat="38.9076821" lon="20.9815422"><ele>95.66666666666666</ele><time>2026-05-02T09:36:57.785Z</time></trkpt><trkpt lat="38.9075996" lon="20.9817251"><ele>97.33333333333333</ele><time>2026-05-02T09:36:58.785Z</time></trkpt><trkpt lat="38.9074933" lon="20.9818963"><ele>99.0</ele><time>2026-05-02T09:36:59.785Z</time></trkpt><trkpt lat="38.9073503" lon="20.9820332"><ele>99.0</ele><time>2026-05-02T09:37:00.786Z</time></trkpt><trkpt lat="38.9071732" lon="20.9821671"><ele>99.0</ele><time>2026-05-02T09:37:01.786Z</time></trkpt><trkpt lat="38.9069673" lon="20.982307"><ele>99.0</ele><time>2026-05-02T09:37:02.784Z</time></trkpt><trkpt lat="38.9067579" lon="20.982446"><ele>96.33333333333333</ele><time>2026-05-02T09:37:03.785Z</time></trkpt><trkpt lat="38.9065547" lon="20.9825805"><ele>93.66666666666666</ele><time>2026-05-02T09:37:04.783Z</time></trkpt><trkpt lat="38.9063577" lon="20.9827085"><ele>91.0</ele><time>2026-05-02T09:37:05.783Z</time></trkpt><trkpt lat="38.9061718" lon="20.9828316"><ele>91.0</ele><time>2026-05-02T09:37:06.785Z</time></trkpt><trkpt lat="38.9059944" lon="20.982946"><ele>91.0</ele><time>2026-05-02T09:37:07.784Z</time></trkpt><trkpt lat="38.9058163" lon="20.9830393"><ele>91.0</ele><time>2026-05-02T09:37:08.786Z</time></trkpt><trkpt lat="38.9056454" lon="20.9831168"><ele>88.66666666666666</ele><time>2026-05-02T09:37:09.785Z</time></trkpt><trkpt lat="38.9054749" lon="20.9831767"><ele>86.33333333333333</ele><time>2026-05-02T09:37:10.783Z</time></trkpt><trkpt lat="38.905295" lon="20.9832295"><ele>84.0</ele><time>2026-05-02T09:37:11.785Z</time></trkpt><trkpt lat="38.9051125" lon="20.9832784"><ele>84.33333333333333</ele><time>2026-05-02T09:37:12.782Z</time></trkpt><trkpt lat="38.9049357" lon="20.9833088"><ele>84.66666666666666</ele><time>2026-05-02T09:37:13.786Z</time></trkpt><trkpt lat="38.904768" lon="20.9833214"><ele>85.0</ele><time>2026-05-02T09:37:14.785Z</time></trkpt><trkpt lat="38.9045968" lon="20.983308"><ele>85.0</ele><time>2026-05-02T09:37:15.786Z</time></trkpt><trkpt lat="38.904427" lon="20.9832852"><ele>85.0</ele><time>2026-05-02T09:37:16.785Z</time></trkpt><trkpt lat="38.9042454" lon="20.9832476"><ele>85.0</ele><time>2026-05-02T09:37:17.783Z</time></trkpt><trkpt lat="38.9040594" lon="20.983202"><ele>84.33333333333333</ele><time>2026-05-02T09:37:18.783Z</time></trkpt><trkpt lat="38.9038815" lon="20.9831445"><ele>83.66666666666667</ele><time>2026-05-02T09:37:19.785Z</time></trkpt><trkpt lat="38.9036838" lon="20.9830613"><ele>83.0</ele><time>2026-05-02T09:37:20.784Z</time></trkpt><trkpt lat="38.9034782" lon="20.982957"><ele>78.0</ele><time>2026-05-02T09:37:21.785Z</time></trkpt><trkpt lat="38.9032652" lon="20.9828561"><ele>73.0</ele><time>2026-05-02T09:37:22.784Z</time></trkpt><trkpt lat="38.903062" lon="20.9827475"><ele>68.0</ele><time>2026-05-02T09:37:23.784Z</time></trkpt><trkpt lat="38.9028604" lon="20.9826463"><ele>68.0</ele><time>2026-05-02T09:37:24.786Z</time></trkpt><trkpt lat="38.9026678" lon="20.9825497"><ele>68.0</ele><time>2026-05-02T09:37:25.786Z</time></trkpt><trkpt lat="38.902488" lon="20.9824476"><ele>68.0</ele><time>2026-05-02T09:37:26.785Z</time></trkpt><trkpt lat="38.9023061" lon="20.9823404"><ele>69.66666666666667</ele><time>2026-05-02T09:37:27.786Z</time></trkpt><trkpt lat="38.9021327" lon="20.9822272"><ele>71.33333333333333</ele><time>2026-05-02T09:37:28.786Z</time></trkpt><trkpt lat="38.9019661" lon="20.982099"><ele>73.0</ele><time>2026-05-02T09:37:29.783Z</time></trkpt><trkpt lat="38.9018182" lon="20.981971"><ele>74.25</ele><time>2026-05-02T09:37:30.785Z</time></trkpt><trkpt lat="38.9016925" lon="20.9818562"><ele>75.5</ele><time>2026-05-02T09:37:31.782Z</time></trkpt><trkpt lat="38.9015705" lon="20.9817612"><ele>76.75</ele><time>2026-05-02T09:37:32.782Z</time></trkpt><trkpt lat="38.9014452" lon="20.9816868"><ele>78.0</ele><time>2026-05-02T09:37:33.785Z</time></trkpt><trkpt lat="38.90132" lon="20.981644"><ele>78.0</ele><time>2026-05-02T09:37:34.783Z</time></trkpt><trkpt lat="38.9011944" lon="20.9816422"><ele>78.0</ele><time>2026-05-02T09:37:35.783Z</time></trkpt><trkpt lat="38.901075" lon="20.9816793"><ele>78.0</ele><time>2026-05-02T09:37:36.786Z</time></trkpt><trkpt lat="38.9009739" lon="20.9817619"><ele>78.0</ele><time>2026-05-02T09:37:37.784Z</time></trkpt><trkpt lat="38.900889" lon="20.9818815"><ele>75.0</ele><time>2026-05-02T09:37:38.785Z</time></trkpt><trkpt lat="38.9008286" lon="20.9820431"><ele>72.0</ele><time>2026-05-02T09:37:39.784Z</time></trkpt><trkpt lat="38.9007947" lon="20.9822503"><ele>69.0</ele><time>2026-05-02T09:37:40.784Z</time></trkpt><trkpt lat="38.9008039" lon="20.9824759"><ele>69.0</ele><time>2026-05-02T09:37:41.784Z</time></trkpt><trkpt lat="38.9008441" lon="20.9827224"><ele>69.0</ele><time>2026-05-02T09:37:42.782Z</time></trkpt><trkpt lat="38.9008978" lon="20.9829716"><ele>69.0</ele><time>2026-05-02T09:37:43.786Z</time></trkpt><trkpt lat="38.9009477" lon="20.983214"><ele>61.333333333333336</ele><time>2026-05-02T09:37:44.786Z</time></trkpt><trkpt lat="38.9009885" lon="20.9834397"><ele>53.66666666666667</ele><time>2026-05-02T09:37:45.785Z</time></trkpt><trkpt lat="38.9010178" lon="20.9836531"><ele>46.0</ele><time>2026-05-02T09:37:46.786Z</time></trkpt><trkpt lat="38.9010373" lon="20.9838546"><ele>46.0</ele><time>2026-05-02T09:37:47.784Z</time></trkpt><trkpt lat="38.9010282" lon="20.9840526"><ele>46.0</ele><time>2026-05-02T09:37:48.785Z</time></trkpt><trkpt lat="38.9009911" lon="20.9842401"><ele>46.0</ele><time>2026-05-02T09:37:49.783Z</time></trkpt><trkpt lat="38.9009315" lon="20.9844298"><ele>48.0</ele><time>2026-05-02T09:37:50.783Z</time></trkpt><trkpt lat="38.9008552" lon="20.9846113"><ele>50.0</ele><time>2026-05-02T09:37:51.783Z</time></trkpt><trkpt lat="38.9007717" lon="20.984785"><ele>52.0</ele><time>2026-05-02T09:37:52.785Z</time></trkpt><trkpt lat="38.9006702" lon="20.9849636"><ele>47.0</ele><time>2026-05-02T09:37:53.782Z</time></trkpt><trkpt lat="38.9005671" lon="20.9851358"><ele>42.0</ele><time>2026-05-02T09:37:54.786Z</time></trkpt><trkpt lat="38.9004658" lon="20.9852956"><ele>37.0</ele><time>2026-05-02T09:37:55.785Z</time></trkpt><trkpt lat="38.9003768" lon="20.985448"><ele>37.0</ele><time>2026-05-02T09:37:56.786Z</time></trkpt><trkpt lat="38.9002768" lon="20.9855864"><ele>37.0</ele><time>2026-05-02T09:37:57.786Z</time></trkpt><trkpt lat="38.900169" lon="20.9857125"><ele>37.0</ele><time>2026-05-02T09:37:58.784Z</time></trkpt><trkpt lat="38.9000464" lon="20.9858131"><ele>37.0</ele><time>2026-05-02T09:37:59.785Z</time></trkpt><trkpt lat="38.8999065" lon="20.9858876"><ele>33.0</ele><time>2026-05-02T09:38:00.786Z</time></trkpt><trkpt lat="38.8997316" lon="20.9859426"><ele>29.0</ele><time>2026-05-02T09:38:01.786Z</time></trkpt><trkpt lat="38.899532" lon="20.985962"><ele>25.0</ele><time>2026-05-02T09:38:02.784Z</time></trkpt><trkpt lat="38.8993236" lon="20.9859496"><ele>25.0</ele><time>2026-05-02T09:38:03.785Z</time></trkpt><trkpt lat="38.8991209" lon="20.9859193"><ele>25.0</ele><time>2026-05-02T09:38:04.785Z</time></trkpt><trkpt lat="38.8989235" lon="20.9858837"><ele>25.0</ele><time>2026-05-02T09:38:05.785Z</time></trkpt><trkpt lat="38.8987336" lon="20.9858519"><ele>29.0</ele><time>2026-05-02T09:38:06.783Z</time></trkpt><trkpt lat="38.898559" lon="20.9858251"><ele>33.0</ele><time>2026-05-02T09:38:07.785Z</time></trkpt><trkpt lat="38.8983843" lon="20.9858033"><ele>37.0</ele><time>2026-05-02T09:38:08.785Z</time></trkpt><trkpt lat="38.8982225" lon="20.9857836"><ele>37.0</ele><time>2026-05-02T09:38:09.782Z</time></trkpt><trkpt lat="38.8980562" lon="20.9857657"><ele>37.0</ele><time>2026-05-02T09:38:10.786Z</time></trkpt><trkpt lat="38.8979002" lon="20.9857667"><ele>37.0</ele><time>2026-05-02T09:38:11.784Z</time></trkpt><trkpt lat="38.8977515" lon="20.9857936"><ele>32.333333333333336</ele><time>2026-05-02T09:38:12.785Z</time></trkpt><trkpt lat="38.8976073" lon="20.985849"><ele>27.666666666666668</ele><time>2026-05-02T09:38:13.786Z</time></trkpt><trkpt lat="38.897468" lon="20.9859329"><ele>23.0</ele><time>2026-05-02T09:38:14.781Z</time></trkpt><trkpt lat="38.897337" lon="20.9860451"><ele>22.333333333333336</ele><time>2026-05-02T09:38:15.784Z</time></trkpt><trkpt lat="38.8972317" lon="20.9861807"><ele>21.666666666666668</ele><time>2026-05-02T09:38:16.782Z</time></trkpt><trkpt lat="38.8971443" lon="20.9863498"><ele>21.0</ele><time>2026-05-02T09:38:17.786Z</time></trkpt><trkpt lat="38.8970734" lon="20.9865569"><ele>19.0</ele><time>2026-05-02T09:38:18.785Z</time></trkpt><trkpt lat="38.897023" lon="20.9867982"><ele>17.0</ele><time>2026-05-02T09:38:19.784Z</time></trkpt><trkpt lat="38.89699" lon="20.9870689"><ele>15.0</ele><time>2026-05-02T09:38:20.785Z</time></trkpt><trkpt lat="38.8969675" lon="20.9873466"><ele>14.0</ele><time>2026-05-02T09:38:21.784Z</time></trkpt><trkpt lat="38.89695" lon="20.9876347"><ele>13.0</ele><time>2026-05-02T09:38:22.784Z</time></trkpt><trkpt lat="38.8969328" lon="20.9879286"><ele>13.0</ele><time>2026-05-02T09:38:23.784Z</time></trkpt><trkpt lat="38.8969146" lon="20.9882207"><ele>13.0</ele><time>2026-05-02T09:38:24.785Z</time></trkpt><trkpt lat="38.8968965" lon="20.9885025"><ele>13.0</ele><time>2026-05-02T09:38:25.784Z</time></trkpt><trkpt lat="38.89688" lon="20.9887851"><ele>12.666666666666666</ele><time>2026-05-02T09:38:26.786Z</time></trkpt><trkpt lat="38.8968617" lon="20.9890726"><ele>12.333333333333332</ele><time>2026-05-02T09:38:27.785Z</time></trkpt><trkpt lat="38.8968431" lon="20.9893582"><ele>12.0</ele><time>2026-05-02T09:38:28.785Z</time></trkpt><trkpt lat="38.8968306" lon="20.9896463"><ele>12.0</ele><time>2026-05-02T09:38:29.785Z</time></trkpt><trkpt lat="38.8968179" lon="20.989931"><ele>12.0</ele><time>2026-05-02T09:38:30.784Z</time></trkpt><trkpt lat="38.8967968" lon="20.9902201"><ele>12.0</ele><time>2026-05-02T09:38:31.784Z</time></trkpt><trkpt lat="38.8967847" lon="20.9905156"><ele>12.0</ele><time>2026-05-02T09:38:32.782Z</time></trkpt><trkpt lat="38.8967637" lon="20.9907914"><ele>12.0</ele><time>2026-05-02T09:38:33.784Z</time></trkpt><trkpt lat="38.8967383" lon="20.9910594"><ele>12.0</ele><time>2026-05-02T09:38:34.786Z</time></trkpt><trkpt lat="38.8967021" lon="20.9913312"><ele>12.666666666666668</ele><time>2026-05-02T09:38:35.784Z</time></trkpt><trkpt lat="38.8966675" lon="20.9915987"><ele>13.333333333333334</ele><time>2026-05-02T09:38:36.783Z</time></trkpt><trkpt lat="38.8966231" lon="20.9918729"><ele>14.0</ele><time>2026-05-02T09:38:37.781Z</time></trkpt><trkpt lat="38.8965733" lon="20.9921475"><ele>14.333333333333334</ele><time>2026-05-02T09:38:38.783Z</time></trkpt><trkpt lat="38.8965171" lon="20.9924237"><ele>14.666666666666668</ele><time>2026-05-02T09:38:39.785Z</time></trkpt><trkpt lat="38.8964539" lon="20.9927006"><ele>15.0</ele><time>2026-05-02T09:38:40.786Z</time></trkpt><trkpt lat="38.8963846" lon="20.9929801"><ele>14.5</ele><time>2026-05-02T09:38:41.784Z</time></trkpt><trkpt lat="38.8963234" lon="20.9932682"><ele>14.0</ele><time>2026-05-02T09:38:42.786Z</time></trkpt><trkpt lat="38.8962471" lon="20.9935478"><ele>14.0</ele><time>2026-05-02T09:38:43.785Z</time></trkpt><trkpt lat="38.8961713" lon="20.9938238"><ele>14.0</ele><time>2026-05-02T09:38:44.786Z</time></trkpt><trkpt lat="38.8960912" lon="20.9941033"><ele>14.0</ele><time>2026-05-02T09:38:45.784Z</time></trkpt><trkpt lat="38.8960159" lon="20.9943924"><ele>14.0</ele><time>2026-05-02T09:38:46.783Z</time></trkpt><trkpt lat="38.8959384" lon="20.9946817"><ele>15.5</ele><time>2026-05-02T09:38:47.785Z</time></trkpt><trkpt lat="38.8958597" lon="20.9949693"><ele>17.0</ele><time>2026-05-02T09:38:48.786Z</time></trkpt><trkpt lat="38.895781" lon="20.9952555"><ele>17.0</ele><time>2026-05-02T09:38:49.785Z</time></trkpt><trkpt lat="38.8957039" lon="20.9955474"><ele>17.0</ele><time>2026-05-02T09:38:50.785Z</time></trkpt><trkpt lat="38.895624" lon="20.9958337"><ele>16.0</ele><time>2026-05-02T09:38:51.784Z</time></trkpt><trkpt lat="38.8955461" lon="20.9961196"><ele>15.0</ele><time>2026-05-02T09:38:52.784Z</time></trkpt><trkpt lat="38.8954673" lon="20.9964109"><ele>13.5</ele><time>2026-05-02T09:38:53.785Z</time></trkpt><trkpt lat="38.8953855" lon="20.9967052"><ele>12.0</ele><time>2026-05-02T09:38:54.782Z</time></trkpt><trkpt lat="38.8953089" lon="20.9969987"><ele>12.0</ele><time>2026-05-02T09:38:55.785Z</time></trkpt><trkpt lat="38.8952314" lon="20.9972902"><ele>12.0</ele><time>2026-05-02T09:38:56.786Z</time></trkpt><trkpt lat="38.8951519" lon="20.9975816"><ele>13.5</ele><time>2026-05-02T09:38:57.785Z</time></trkpt><trkpt lat="38.895074" lon="20.9978715"><ele>15.0</ele><time>2026-05-02T09:38:58.786Z</time></trkpt><trkpt lat="38.894997" lon="20.9981629"><ele>14.5</ele><time>2026-05-02T09:38:59.786Z</time></trkpt><trkpt lat="38.8949121" lon="20.9984595"><ele>14.0</ele><time>2026-05-02T09:39:00.784Z</time></trkpt><trkpt lat="38.8948296" lon="20.9987634"><ele>14.0</ele><time>2026-05-02T09:39:01.786Z</time></trkpt><trkpt lat="38.894745" lon="20.9990656"><ele>14.0</ele><time>2026-05-02T09:39:02.784Z</time></trkpt><trkpt lat="38.8946625" lon="20.9993698"><ele>14.0</ele><time>2026-05-02T09:39:03.785Z</time></trkpt><trkpt lat="38.8945801" lon="20.9996776"><ele>14.0</ele><time>2026-05-02T09:39:04.786Z</time></trkpt><trkpt lat="38.8944977" lon="20.9999782"><ele>14.0</ele><time>2026-05-02T09:39:05.784Z</time></trkpt><trkpt lat="38.8944185" lon="21.0002725"><ele>14.0</ele><time>2026-05-02T09:39:06.785Z</time></trkpt><trkpt lat="38.8943409" lon="21.0005618"><ele>13.5</ele><time>2026-05-02T09:39:07.784Z</time></trkpt><trkpt lat="38.894264" lon="21.0008468"><ele>13.0</ele><time>2026-05-02T09:39:08.784Z</time></trkpt><trkpt lat="38.8941945" lon="21.0011251"><ele>14.5</ele><time>2026-05-02T09:39:09.784Z</time></trkpt><trkpt lat="38.8941294" lon="21.0014056"><ele>16.0</ele><time>2026-05-02T09:39:10.783Z</time></trkpt><trkpt lat="38.894067" lon="21.0016903"><ele>16.0</ele><time>2026-05-02T09:39:11.784Z</time></trkpt><trkpt lat="38.8939932" lon="21.0019714"><ele>16.0</ele><time>2026-05-02T09:39:12.785Z</time></trkpt><trkpt lat="38.8939172" lon="21.0022599"><ele>16.0</ele><time>2026-05-02T09:39:13.786Z</time></trkpt><trkpt lat="38.8938397" lon="21.0025487"><ele>16.0</ele><time>2026-05-02T09:39:14.786Z</time></trkpt><trkpt lat="38.8937637" lon="21.0028221"><ele>16.0</ele><time>2026-05-02T09:39:15.785Z</time></trkpt><trkpt lat="38.8936914" lon="21.0030863"><ele>16.0</ele><time>2026-05-02T09:39:16.785Z</time></trkpt><trkpt lat="38.8936228" lon="21.0033319"><ele>16.0</ele><time>2026-05-02T09:39:17.785Z</time></trkpt><trkpt lat="38.8935647" lon="21.0035711"><ele>15.0</ele><time>2026-05-02T09:39:18.785Z</time></trkpt><trkpt lat="38.8935205" lon="21.0037888"><ele>14.0</ele><time>2026-05-02T09:39:19.785Z</time></trkpt><trkpt lat="38.893486" lon="21.003991"><ele>13.0</ele><time>2026-05-02T09:39:20.784Z</time></trkpt><trkpt lat="38.8934864" lon="21.0041829"><ele>12.75</ele><time>2026-05-02T09:39:21.782Z</time></trkpt><trkpt lat="38.8935122" lon="21.0043761"><ele>12.5</ele><time>2026-05-02T09:39:22.785Z</time></trkpt><trkpt lat="38.8935661" lon="21.0045545"><ele>12.25</ele><time>2026-05-02T09:39:23.784Z</time></trkpt><trkpt lat="38.8936342" lon="21.0047211"><ele>12.0</ele><time>2026-05-02T09:39:24.785Z</time></trkpt><trkpt lat="38.8937132" lon="21.004862"><ele>12.0</ele><time>2026-05-02T09:39:25.785Z</time></trkpt><trkpt lat="38.8937805" lon="21.0049911"><ele>12.0</ele><time>2026-05-02T09:39:26.783Z</time></trkpt><trkpt lat="38.8938258" lon="21.0051285"><ele>12.0</ele><time>2026-05-02T09:39:27.784Z</time></trkpt><trkpt lat="38.8938476" lon="21.0052549"><ele>12.0</ele><time>2026-05-02T09:39:28.786Z</time></trkpt><trkpt lat="38.8938493" lon="21.0053691"><ele>12.0</ele><time>2026-05-02T09:39:29.782Z</time></trkpt><trkpt lat="38.8938347" lon="21.0054801"><ele>11.4</ele><time>2026-05-02T09:39:30.786Z</time></trkpt><trkpt lat="38.8938082" lon="21.0055678"><ele>10.799999999999999</ele><time>2026-05-02T09:39:31.786Z</time></trkpt><trkpt lat="38.8937267" lon="21.0056445"><ele>10.2</ele><time>2026-05-02T09:39:33.785Z</time></trkpt><trkpt lat="38.8936503" lon="21.0056593"><ele>9.6</ele><time>2026-05-02T09:39:34.786Z</time></trkpt><trkpt lat="38.8935631" lon="21.00563"><ele>9.0</ele><time>2026-05-02T09:39:35.784Z</time></trkpt><trkpt lat="38.8934459" lon="21.0055694"><ele>9.75</ele><time>2026-05-02T09:39:36.783Z</time></trkpt><trkpt lat="38.8933209" lon="21.0055136"><ele>10.5</ele><time>2026-05-02T09:39:37.786Z</time></trkpt><trkpt lat="38.8932019" lon="21.0054585"><ele>11.25</ele><time>2026-05-02T09:39:38.785Z</time></trkpt><trkpt lat="38.893058" lon="21.005395"><ele>12.0</ele><time>2026-05-02T09:39:39.784Z</time></trkpt><trkpt lat="38.8928991" lon="21.0053221"><ele>12.0</ele><time>2026-05-02T09:39:40.786Z</time></trkpt><trkpt lat="38.8927373" lon="21.0052552"><ele>12.0</ele><time>2026-05-02T09:39:41.784Z</time></trkpt><trkpt lat="38.8925872" lon="21.0051981"><ele>12.0</ele><time>2026-05-02T09:39:42.783Z</time></trkpt><trkpt lat="38.892452" lon="21.0051483"><ele>12.75</ele><time>2026-05-02T09:39:43.784Z</time></trkpt><trkpt lat="38.8923252" lon="21.0050971"><ele>13.5</ele><time>2026-05-02T09:39:44.784Z</time></trkpt><trkpt lat="38.8921981" lon="21.0050319"><ele>14.25</ele><time>2026-05-02T09:39:45.784Z</time></trkpt><trkpt lat="38.8920928" lon="21.0049818"><ele>15.0</ele><time>2026-05-02T09:39:46.784Z</time></trkpt><trkpt lat="38.8920049" lon="21.0049346"><ele>15.0</ele><time>2026-05-02T09:39:47.783Z</time></trkpt><trkpt lat="38.8919074" lon="21.004891"><ele>15.0</ele><time>2026-05-02T09:39:48.785Z</time></trkpt><trkpt lat="38.8917969" lon="21.0048393"><ele>15.0</ele><time>2026-05-02T09:39:49.785Z</time></trkpt><trkpt lat="38.8916841" lon="21.0047729"><ele>15.0</ele><time>2026-05-02T09:39:50.784Z</time></trkpt><trkpt lat="38.8915649" lon="21.0046922"><ele>16.5</ele><time>2026-05-02T09:39:51.783Z</time></trkpt><trkpt lat="38.8914686" lon="21.0045841"><ele>18.0</ele><time>2026-05-02T09:39:52.784Z</time></trkpt><trkpt lat="38.8913775" lon="21.0044646"><ele>19.5</ele><time>2026-05-02T09:39:53.784Z</time></trkpt><trkpt lat="38.8913025" lon="21.0043303"><ele>21.0</ele><time>2026-05-02T09:39:54.785Z</time></trkpt><trkpt lat="38.8912429" lon="21.0041761"><ele>21.25</ele><time>2026-05-02T09:39:55.785Z</time></trkpt><trkpt lat="38.8912161" lon="21.0040139"><ele>21.5</ele><time>2026-05-02T09:39:56.785Z</time></trkpt><trkpt lat="38.8911991" lon="21.0038561"><ele>21.75</ele><time>2026-05-02T09:39:57.786Z</time></trkpt><trkpt lat="38.8911999" lon="21.0036898"><ele>22.0</ele><time>2026-05-02T09:39:58.784Z</time></trkpt><trkpt lat="38.8912149" lon="21.0035209"><ele>22.0</ele><time>2026-05-02T09:39:59.786Z</time></trkpt><trkpt lat="38.8912545" lon="21.0033582"><ele>22.0</ele><time>2026-05-02T09:40:00.786Z</time></trkpt><trkpt lat="38.8913157" lon="21.0032041"><ele>22.0</ele><time>2026-05-02T09:40:01.783Z</time></trkpt><trkpt lat="38.8913938" lon="21.0030478"><ele>22.0</ele><time>2026-05-02T09:40:02.786Z</time></trkpt><trkpt lat="38.8914824" lon="21.0028857"><ele>22.0</ele><time>2026-05-02T09:40:03.786Z</time></trkpt><trkpt lat="38.891579" lon="21.002719"><ele>22.0</ele><time>2026-05-02T09:40:04.785Z</time></trkpt><trkpt lat="38.8916735" lon="21.0025531"><ele>22.0</ele><time>2026-05-02T09:40:05.784Z</time></trkpt><trkpt lat="38.8917712" lon="21.0023883"><ele>22.0</ele><time>2026-05-02T09:40:06.785Z</time></trkpt><trkpt lat="38.8918645" lon="21.0022202"><ele>22.0</ele><time>2026-05-02T09:40:07.784Z</time></trkpt><trkpt lat="38.8919579" lon="21.0020603"><ele>22.0</ele><time>2026-05-02T09:40:08.786Z</time></trkpt><trkpt lat="38.8920398" lon="21.001899"><ele>22.0</ele><time>2026-05-02T09:40:09.784Z</time></trkpt><trkpt lat="38.8921055" lon="21.0017344"><ele>22.0</ele><time>2026-05-02T09:40:10.786Z</time></trkpt><trkpt lat="38.8921514" lon="21.0015652"><ele>22.0</ele><time>2026-05-02T09:40:11.786Z</time></trkpt><trkpt lat="38.8921785" lon="21.0013869"><ele>22.0</ele><time>2026-05-02T09:40:12.783Z</time></trkpt><trkpt lat="38.8921833" lon="21.0012043"><ele>22.5</ele><time>2026-05-02T09:40:13.784Z</time></trkpt><trkpt lat="38.8921637" lon="21.0010253"><ele>23.0</ele><time>2026-05-02T09:40:14.785Z</time></trkpt><trkpt lat="38.8921199" lon="21.0008407"><ele>23.5</ele><time>2026-05-02T09:40:15.784Z</time></trkpt><trkpt lat="38.8920567" lon="21.0006562"><ele>24.0</ele><time>2026-05-02T09:40:16.785Z</time></trkpt><trkpt lat="38.8919781" lon="21.0004908"><ele>24.25</ele><time>2026-05-02T09:40:17.784Z</time></trkpt><trkpt lat="38.8918947" lon="21.0003281"><ele>24.5</ele><time>2026-05-02T09:40:18.784Z</time></trkpt><trkpt lat="38.8918141" lon="21.0001855"><ele>24.75</ele><time>2026-05-02T09:40:19.786Z</time></trkpt><trkpt lat="38.8917214" lon="21.0000669"><ele>25.0</ele><time>2026-05-02T09:40:20.783Z</time></trkpt><trkpt lat="38.891619" lon="20.9999714"><ele>26.75</ele><time>2026-05-02T09:40:21.785Z</time></trkpt><trkpt lat="38.8915054" lon="20.9998923"><ele>28.5</ele><time>2026-05-02T09:40:22.784Z</time></trkpt><trkpt lat="38.8913833" lon="20.9998256"><ele>30.25</ele><time>2026-05-02T09:40:23.785Z</time></trkpt><trkpt lat="38.8912684" lon="20.9997558"><ele>32.0</ele><time>2026-05-02T09:40:24.786Z</time></trkpt><trkpt lat="38.891163" lon="20.9997049"><ele>32.0</ele><time>2026-05-02T09:40:25.785Z</time></trkpt><trkpt lat="38.8910416" lon="20.9996727"><ele>32.0</ele><time>2026-05-02T09:40:26.784Z</time></trkpt><trkpt lat="38.8909223" lon="20.9996416"><ele>32.0</ele><time>2026-05-02T09:40:27.786Z</time></trkpt><trkpt lat="38.8907928" lon="20.999632"><ele>32.0</ele><time>2026-05-02T09:40:28.783Z</time></trkpt><trkpt lat="38.8906633" lon="20.999642"><ele>33.5</ele><time>2026-05-02T09:40:29.785Z</time></trkpt><trkpt lat="38.8905375" lon="20.9996556"><ele>35.0</ele><time>2026-05-02T09:40:30.784Z</time></trkpt><trkpt lat="38.8904166" lon="20.9996664"><ele>36.5</ele><time>2026-05-02T09:40:31.786Z</time></trkpt><trkpt lat="38.8903035" lon="20.9996816"><ele>38.0</ele><time>2026-05-02T09:40:32.781Z</time></trkpt><trkpt lat="38.8902019" lon="20.999683"><ele>38.0</ele><time>2026-05-02T09:40:33.785Z</time></trkpt><trkpt lat="38.8901157" lon="20.9996797"><ele>38.0</ele><time>2026-05-02T09:40:34.786Z</time></trkpt><trkpt lat="38.8900473" lon="20.9996743"><ele>38.0</ele><time>2026-05-02T09:40:35.785Z</time></trkpt><trkpt lat="38.8899726" lon="20.9996729"><ele>38.0</ele><time>2026-05-02T09:40:37.783Z</time></trkpt><trkpt lat="38.8899338" lon="20.9997865"><ele>38.0</ele><time>2026-05-02T09:40:56.785Z</time></trkpt><trkpt lat="38.8899437" lon="20.9998665"><ele>38.0</ele><time>2026-05-02T09:40:57.786Z</time></trkpt><trkpt lat="38.8899421" lon="20.999968"><ele>39.599999999999994</ele><time>2026-05-02T09:40:58.785Z</time></trkpt><trkpt lat="38.8899344" lon="21.0000724"><ele>41.199999999999996</ele><time>2026-05-02T09:40:59.785Z</time></trkpt><trkpt lat="38.8899292" lon="21.0001952"><ele>42.8</ele><time>2026-05-02T09:41:00.785Z</time></trkpt><trkpt lat="38.8899167" lon="21.0003133"><ele>44.4</ele><time>2026-05-02T09:41:01.785Z</time></trkpt><trkpt lat="38.8899088" lon="21.000433"><ele>46.0</ele><time>2026-05-02T09:41:02.784Z</time></trkpt><trkpt lat="38.8898939" lon="21.0005473"><ele>46.0</ele><time>2026-05-02T09:41:03.784Z</time></trkpt><trkpt lat="38.8898755" lon="21.0006588"><ele>46.0</ele><time>2026-05-02T09:41:04.786Z</time></trkpt><trkpt lat="38.8898469" lon="21.0007641"><ele>46.0</ele><time>2026-05-02T09:41:05.785Z</time></trkpt><trkpt lat="38.8898048" lon="21.0008543"><ele>46.0</ele><time>2026-05-02T09:41:06.785Z</time></trkpt><trkpt lat="38.8897662" lon="21.000941"><ele>46.0</ele><time>2026-05-02T09:41:07.784Z</time></trkpt><trkpt lat="38.8897219" lon="21.0010269"><ele>46.0</ele><time>2026-05-02T09:41:08.786Z</time></trkpt><trkpt lat="38.8896658" lon="21.0011021"><ele>45.599999999999994</ele><time>2026-05-02T09:41:09.783Z</time></trkpt><trkpt lat="38.8896158" lon="21.001159"><ele>45.2</ele><time>2026-05-02T09:41:10.782Z</time></trkpt><trkpt lat="38.8895299" lon="21.0012415"><ele>44.8</ele><time>2026-05-02T09:41:12.785Z</time></trkpt><trkpt lat="38.8894558" lon="21.0013211"><ele>44.400000000000006</ele><time>2026-05-02T09:41:14.786Z</time></trkpt><trkpt lat="38.8893698" lon="21.0014002"><ele>44.0</ele><time>2026-05-02T09:41:16.784Z</time></trkpt><trkpt lat="38.8892807" lon="21.0014874"><ele>44.0</ele><time>2026-05-02T09:41:18.784Z</time></trkpt><trkpt lat="38.8892006" lon="21.0015628"><ele>44.0</ele><time>2026-05-02T09:41:20.784Z</time></trkpt><trkpt lat="38.8891242" lon="21.0016505"><ele>44.0</ele><time>2026-05-02T09:41:22.785Z</time></trkpt><trkpt lat="38.8890603" lon="21.0017608"><ele>44.0</ele><time>2026-05-02T09:41:24.785Z</time></trkpt><trkpt lat="38.8890169" lon="21.0018619"><ele>44.0</ele><time>2026-05-02T09:41:26.784Z</time></trkpt><trkpt lat="38.8890023" lon="21.0019835"><ele>44.0</ele><time>2026-05-02T09:41:28.785Z</time></trkpt><trkpt lat="38.888996" lon="21.002109"><ele>44.0</ele><time>2026-05-02T09:41:30.786Z</time></trkpt><trkpt lat="38.8890188" lon="21.0022393"><ele>44.0</ele><time>2026-05-02T09:41:32.784Z</time></trkpt><trkpt lat="38.8890318" lon="21.0023936"><ele>44.0</ele><time>2026-05-02T09:41:34.785Z</time></trkpt><trkpt lat="38.889033" lon="21.0024808"><ele>44.0</ele><time>2026-05-02T09:41:35.786Z</time></trkpt><trkpt lat="38.8890373" lon="21.0025641"><ele>43.666666666666664</ele><time>2026-05-02T09:41:36.785Z</time></trkpt><trkpt lat="38.8890364" lon="21.0026468"><ele>43.33333333333333</ele><time>2026-05-02T09:41:37.783Z</time></trkpt><trkpt lat="38.8890338" lon="21.0027297"><ele>43.0</ele><time>2026-05-02T09:41:38.786Z</time></trkpt><trkpt lat="38.8890181" lon="21.002894"><ele>42.666666666666664</ele><time>2026-05-02T09:41:40.785Z</time></trkpt><trkpt lat="38.8890101" lon="21.0029851"><ele>42.333333333333336</ele><time>2026-05-02T09:41:41.783Z</time></trkpt><trkpt lat="38.889" lon="21.0030684"><ele>42.0</ele><time>2026-05-02T09:41:42.783Z</time></trkpt><trkpt lat="38.888982" lon="21.0032246"><ele>41.0</ele><time>2026-05-02T09:41:44.784Z</time></trkpt><trkpt lat="38.8889685" lon="21.0033556"><ele>40.0</ele><time>2026-05-02T09:41:46.785Z</time></trkpt><trkpt lat="38.8889505" lon="21.003488"><ele>39.0</ele><time>2026-05-02T09:41:48.784Z</time></trkpt><trkpt lat="38.8889439" lon="21.0036283"><ele>38.0</ele><time>2026-05-02T09:41:50.782Z</time></trkpt><trkpt lat="38.8889296" lon="21.0037679"><ele>37.0</ele><time>2026-05-02T09:41:52.786Z</time></trkpt><trkpt lat="38.888914" lon="21.0039"><ele>37.0</ele><time>2026-05-02T09:41:54.784Z</time></trkpt><trkpt lat="38.888893" lon="21.0040342"><ele>37.0</ele><time>2026-05-02T09:41:56.785Z</time></trkpt><trkpt lat="38.8888632" lon="21.0041827"><ele>37.0</ele><time>2026-05-02T09:41:58.784Z</time></trkpt><trkpt lat="38.8888457" lon="21.0043163"><ele>37.0</ele><time>2026-05-02T09:42:00.783Z</time></trkpt><trkpt lat="38.8888237" lon="21.0044558"><ele>37.0</ele><time>2026-05-02T09:42:02.786Z</time></trkpt><trkpt lat="38.8888116" lon="21.0045808"><ele>35.6</ele><time>2026-05-02T09:42:04.783Z</time></trkpt><trkpt lat="38.8888001" lon="21.0047034"><ele>34.2</ele><time>2026-05-02T09:42:06.782Z</time></trkpt><trkpt lat="38.8887996" lon="21.0048189"><ele>32.8</ele><time>2026-05-02T09:42:08.785Z</time></trkpt><trkpt lat="38.8887975" lon="21.004941"><ele>31.4</ele><time>2026-05-02T09:42:10.785Z</time></trkpt><trkpt lat="38.8887873" lon="21.0050719"><ele>30.0</ele><time>2026-05-02T09:42:12.785Z</time></trkpt><trkpt lat="38.8887757" lon="21.0052214"><ele>29.6</ele><time>2026-05-02T09:42:14.784Z</time></trkpt><trkpt lat="38.8887606" lon="21.0053011"><ele>29.2</ele><time>2026-05-02T09:42:15.783Z</time></trkpt><trkpt lat="38.8887284" lon="21.0054544"><ele>28.799999999999997</ele><time>2026-05-02T09:42:17.785Z</time></trkpt><trkpt lat="38.8886944" lon="21.0055951"><ele>28.4</ele><time>2026-05-02T09:42:19.786Z</time></trkpt><trkpt lat="38.8886588" lon="21.0057452"><ele>28.0</ele><time>2026-05-02T09:42:21.784Z</time></trkpt><trkpt lat="38.888629" lon="21.0058881"><ele>27.4</ele><time>2026-05-02T09:42:23.785Z</time></trkpt><trkpt lat="38.8886079" lon="21.0060263"><ele>26.799999999999997</ele><time>2026-05-02T09:42:25.785Z</time></trkpt><trkpt lat="38.8885921" lon="21.0061611"><ele>26.2</ele><time>2026-05-02T09:42:27.785Z</time></trkpt><trkpt lat="38.888555" lon="21.006306"><ele>25.6</ele><time>2026-05-02T09:42:29.784Z</time></trkpt><trkpt lat="38.8885089" lon="21.0064359"><ele>25.0</ele><time>2026-05-02T09:42:31.785Z</time></trkpt><trkpt lat="38.8884494" lon="21.0065303"><ele>25.0</ele><time>2026-05-02T09:42:33.786Z</time></trkpt><trkpt lat="38.888343" lon="21.0066081"><ele>25.0</ele><time>2026-05-02T09:42:35.784Z</time></trkpt><trkpt lat="38.8882115" lon="21.0066693"><ele>25.0</ele><time>2026-05-02T09:42:37.786Z</time></trkpt><trkpt lat="38.8881491" lon="21.0066929"><ele>25.0</ele><time>2026-05-02T09:42:38.783Z</time></trkpt><trkpt lat="38.8880868" lon="21.0067162"><ele>25.0</ele><time>2026-05-02T09:42:39.785Z</time></trkpt><trkpt lat="38.8879748" lon="21.0067604"><ele>25.0</ele><time>2026-05-02T09:42:41.785Z</time></trkpt><trkpt lat="38.887871" lon="21.0068037"><ele>25.0</ele><time>2026-05-02T09:42:43.784Z</time></trkpt><trkpt lat="38.8877793" lon="21.0068431"><ele>25.0</ele><time>2026-05-02T09:42:45.783Z</time></trkpt><trkpt lat="38.887707" lon="21.0068939"><ele>25.0</ele><time>2026-05-02T09:42:47.783Z</time></trkpt><trkpt lat="38.887662" lon="21.0069782"><ele>25.0</ele><time>2026-05-02T09:42:49.785Z</time></trkpt><trkpt lat="38.8876334" lon="21.0070877"><ele>25.000000000000004</ele><time>2026-05-02T09:42:51.785Z</time></trkpt><trkpt lat="38.8876122" lon="21.0072044"><ele>25.0</ele><time>2026-05-02T09:42:53.783Z</time></trkpt><trkpt lat="38.887603" lon="21.0073186"><ele>25.0</ele><time>2026-05-02T09:42:55.785Z</time></trkpt><trkpt lat="38.8875786" lon="21.0074446"><ele>25.0</ele><time>2026-05-02T09:42:57.784Z</time></trkpt><trkpt lat="38.8875686" lon="21.0075484"><ele>25.000000000000004</ele><time>2026-05-02T09:42:59.784Z</time></trkpt><trkpt lat="38.8875583" lon="21.0076343"><ele>25.0</ele><time>2026-05-02T09:43:01.784Z</time></trkpt><trkpt lat="38.8875355" lon="21.0077261"><ele>25.5</ele><time>2026-05-02T09:43:03.786Z</time></trkpt><trkpt lat="38.8874915" lon="21.0078591"><ele>26.0</ele><time>2026-05-02T09:43:05.784Z</time></trkpt><trkpt lat="38.8874194" lon="21.0079779"><ele>26.5</ele><time>2026-05-02T09:43:07.783Z</time></trkpt><trkpt lat="38.887341" lon="21.0080798"><ele>27.0</ele><time>2026-05-02T09:43:09.784Z</time></trkpt><trkpt lat="38.887254" lon="21.0081677"><ele>27.0</ele><time>2026-05-02T09:43:11.783Z</time></trkpt><trkpt lat="38.8871609" lon="21.0082539"><ele>27.000000000000004</ele><time>2026-05-02T09:43:13.785Z</time></trkpt><trkpt lat="38.8870859" lon="21.0083459"><ele>27.000000000000004</ele><time>2026-05-02T09:43:15.784Z</time></trkpt><trkpt lat="38.8870161" lon="21.008434"><ele>27.0</ele><time>2026-05-02T09:43:17.783Z</time></trkpt><trkpt lat="38.8869472" lon="21.008542"><ele>27.0</ele><time>2026-05-02T09:43:19.783Z</time></trkpt><trkpt lat="38.8869012" lon="21.0086566"><ele>26.666666666666668</ele><time>2026-05-02T09:43:21.784Z</time></trkpt><trkpt lat="38.8868655" lon="21.0087429"><ele>26.333333333333336</ele><time>2026-05-02T09:43:23.785Z</time></trkpt><trkpt lat="38.8868357" lon="21.0088404"><ele>26.0</ele><time>2026-05-02T09:43:26.785Z</time></trkpt><trkpt lat="38.886803" lon="21.0089098"><ele>25.666666666666668</ele><time>2026-05-02T09:43:29.783Z</time></trkpt><trkpt lat="38.8867517" lon="21.0089977"><ele>25.333333333333336</ele><time>2026-05-02T09:43:32.784Z</time></trkpt><trkpt lat="38.8866841" lon="21.0090418"><ele>25.0</ele><time>2026-05-02T09:43:35.783Z</time></trkpt><trkpt lat="38.8865928" lon="21.0090795"><ele>26.500000000000004</ele><time>2026-05-02T09:43:38.783Z</time></trkpt><trkpt lat="38.8865144" lon="21.0090886"><ele>28.0</ele><time>2026-05-02T09:43:40.784Z</time></trkpt><trkpt lat="38.8864389" lon="21.0091007"><ele>29.5</ele><time>2026-05-02T09:43:42.783Z</time></trkpt><trkpt lat="38.886355" lon="21.009116"><ele>31.0</ele><time>2026-05-02T09:43:45.784Z</time></trkpt><trkpt lat="38.8862867" lon="21.0091264"><ele>32.5</ele><time>2026-05-02T09:43:48.785Z</time></trkpt><trkpt lat="38.8862052" lon="21.0091397"><ele>34.0</ele><time>2026-05-02T09:43:51.783Z</time></trkpt><trkpt lat="38.8861413" lon="21.0091515"><ele>34.16666666666667</ele><time>2026-05-02T09:43:53.785Z</time></trkpt><trkpt lat="38.8860544" lon="21.009197"><ele>34.333333333333336</ele><time>2026-05-02T09:43:56.783Z</time></trkpt><trkpt lat="38.8860032" lon="21.0092691"><ele>34.5</ele><time>2026-05-02T09:43:58.784Z</time></trkpt><trkpt lat="38.8859549" lon="21.0093485"><ele>34.666666666666664</ele><time>2026-05-02T09:44:00.786Z</time></trkpt><trkpt lat="38.885934" lon="21.0094353"><ele>34.83333333333333</ele><time>2026-05-02T09:44:02.784Z</time></trkpt><trkpt lat="38.8859215" lon="21.0095221"><ele>35.0</ele><time>2026-05-02T09:44:04.785Z</time></trkpt><trkpt lat="38.8859028" lon="21.0096275"><ele>35.0</ele><time>2026-05-02T09:44:06.782Z</time></trkpt><trkpt lat="38.8858682" lon="21.0097591"><ele>35.0</ele><time>2026-05-02T09:44:08.784Z</time></trkpt><trkpt lat="38.8858511" lon="21.0098385"><ele>35.0</ele><time>2026-05-02T09:44:09.785Z</time></trkpt><trkpt lat="38.885842" lon="21.0099261"><ele>35.0</ele><time>2026-05-02T09:44:10.783Z</time></trkpt><trkpt lat="38.8858223" lon="21.0100824"><ele>35.0</ele><time>2026-05-02T09:44:12.785Z</time></trkpt><trkpt lat="38.8858139" lon="21.0101667"><ele>35.0</ele><time>2026-05-02T09:44:13.785Z</time></trkpt><trkpt lat="38.8857944" lon="21.0103267"><ele>34.5</ele><time>2026-05-02T09:44:15.786Z</time></trkpt><trkpt lat="38.885789" lon="21.0104077"><ele>34.0</ele><time>2026-05-02T09:44:16.785Z</time></trkpt><trkpt lat="38.8857828" lon="21.0104912"><ele>33.5</ele><time>2026-05-02T09:44:17.783Z</time></trkpt><trkpt lat="38.8857799" lon="21.0105774"><ele>33.0</ele><time>2026-05-02T09:44:18.784Z</time></trkpt><trkpt lat="38.8857651" lon="21.0107331"><ele>32.5</ele><time>2026-05-02T09:44:20.785Z</time></trkpt><trkpt lat="38.8857572" lon="21.0108161"><ele>32.0</ele><time>2026-05-02T09:44:21.784Z</time></trkpt><trkpt lat="38.8857487" lon="21.010976"><ele>31.833333333333332</ele><time>2026-05-02T09:44:23.784Z</time></trkpt><trkpt lat="38.8857357" lon="21.0111333"><ele>31.666666666666664</ele><time>2026-05-02T09:44:25.783Z</time></trkpt><trkpt lat="38.8857269" lon="21.0112219"><ele>31.5</ele><time>2026-05-02T09:44:26.784Z</time></trkpt><trkpt lat="38.8857163" lon="21.0113094"><ele>31.333333333333336</ele><time>2026-05-02T09:44:27.784Z</time></trkpt><trkpt lat="38.8857058" lon="21.0113977"><ele>31.166666666666668</ele><time>2026-05-02T09:44:28.784Z</time></trkpt><trkpt lat="38.8856877" lon="21.0114861"><ele>31.0</ele><time>2026-05-02T09:44:29.784Z</time></trkpt><trkpt lat="38.8856678" lon="21.0115666"><ele>31.000000000000004</ele><time>2026-05-02T09:44:30.784Z</time></trkpt><trkpt lat="38.8856411" lon="21.011649"><ele>31.0</ele><time>2026-05-02T09:44:31.786Z</time></trkpt><trkpt lat="38.8855973" lon="21.0117186"><ele>31.0</ele><time>2026-05-02T09:44:32.784Z</time></trkpt><trkpt lat="38.8855561" lon="21.0117913"><ele>31.0</ele><time>2026-05-02T09:44:33.783Z</time></trkpt><trkpt lat="38.8854755" lon="21.0118968"><ele>31.000000000000004</ele><time>2026-05-02T09:44:35.784Z</time></trkpt><trkpt lat="38.8854156" lon="21.0119506"><ele>31.0</ele><time>2026-05-02T09:44:36.785Z</time></trkpt><trkpt lat="38.8853562" lon="21.0120025"><ele>31.000000000000004</ele><time>2026-05-02T09:44:37.786Z</time></trkpt><trkpt lat="38.8853023" lon="21.0120476"><ele>31.0</ele><time>2026-05-02T09:44:38.783Z</time></trkpt><trkpt lat="38.8852388" lon="21.0120858"><ele>31.0</ele><time>2026-05-02T09:44:39.785Z</time></trkpt><trkpt lat="38.8851769" lon="21.0121325"><ele>31.0</ele><time>2026-05-02T09:44:40.784Z</time></trkpt><trkpt lat="38.8851131" lon="21.012172"><ele>31.000000000000004</ele><time>2026-05-02T09:44:41.785Z</time></trkpt><trkpt lat="38.8850509" lon="21.0122037"><ele>31.0</ele><time>2026-05-02T09:44:42.784Z</time></trkpt><trkpt lat="38.8849389" lon="21.0122443"><ele>32.0</ele><time>2026-05-02T09:44:44.785Z</time></trkpt><trkpt lat="38.8848345" lon="21.0122968"><ele>33.0</ele><time>2026-05-02T09:44:46.785Z</time></trkpt><trkpt lat="38.8847239" lon="21.0123468"><ele>34.0</ele><time>2026-05-02T09:44:48.783Z</time></trkpt><trkpt lat="38.8846433" lon="21.0123821"><ele>35.0</ele><time>2026-05-02T09:44:49.783Z</time></trkpt><trkpt lat="38.8845781" lon="21.0124047"><ele>36.0</ele><time>2026-05-02T09:44:50.785Z</time></trkpt><trkpt lat="38.8845038" lon="21.0124291"><ele>36.0</ele><time>2026-05-02T09:44:51.783Z</time></trkpt><trkpt lat="38.8844371" lon="21.0124469"><ele>36.0</ele><time>2026-05-02T09:44:52.786Z</time></trkpt><trkpt lat="38.8843732" lon="21.0124709"><ele>36.0</ele><time>2026-05-02T09:44:53.784Z</time></trkpt><trkpt lat="38.8843071" lon="21.0124944"><ele>36.0</ele><time>2026-05-02T09:44:54.784Z</time></trkpt><trkpt lat="38.8842085" lon="21.0125585"><ele>36.0</ele><time>2026-05-02T09:44:56.782Z</time></trkpt><trkpt lat="38.8841352" lon="21.0126598"><ele>36.0</ele><time>2026-05-02T09:44:58.784Z</time></trkpt><trkpt lat="38.8840802" lon="21.0127754"><ele>36.6</ele><time>2026-05-02T09:45:00.784Z</time></trkpt><trkpt lat="38.8840301" lon="21.0129173"><ele>37.2</ele><time>2026-05-02T09:45:02.783Z</time></trkpt><trkpt lat="38.8839816" lon="21.0130582"><ele>37.8</ele><time>2026-05-02T09:45:04.785Z</time></trkpt><trkpt lat="38.8839186" lon="21.0131929"><ele>38.4</ele><time>2026-05-02T09:45:06.785Z</time></trkpt><trkpt lat="38.8838786" lon="21.0132598"><ele>39.0</ele><time>2026-05-02T09:45:07.784Z</time></trkpt><trkpt lat="38.8838101" lon="21.0133874"><ele>37.5</ele><time>2026-05-02T09:45:09.785Z</time></trkpt><trkpt lat="38.8837717" lon="21.0135118"><ele>36.0</ele><time>2026-05-02T09:45:11.785Z</time></trkpt><trkpt lat="38.8837526" lon="21.0136733"><ele>34.5</ele><time>2026-05-02T09:45:13.784Z</time></trkpt><trkpt lat="38.883766" lon="21.0138344"><ele>33.0</ele><time>2026-05-02T09:45:15.785Z</time></trkpt><trkpt lat="38.8838061" lon="21.0139791"><ele>33.0</ele><time>2026-05-02T09:45:17.785Z</time></trkpt><trkpt lat="38.8838292" lon="21.0141419"><ele>33.0</ele><time>2026-05-02T09:45:19.785Z</time></trkpt><trkpt lat="38.8838312" lon="21.0142269"><ele>33.0</ele><time>2026-05-02T09:45:20.785Z</time></trkpt><trkpt lat="38.8838339" lon="21.0143133"><ele>33.0</ele><time>2026-05-02T09:45:21.784Z</time></trkpt><trkpt lat="38.8838285" lon="21.0143999"><ele>33.0</ele><time>2026-05-02T09:45:22.782Z</time></trkpt><trkpt lat="38.8838146" lon="21.0145113"><ele>33.0</ele><time>2026-05-02T09:45:24.785Z</time></trkpt><trkpt lat="38.8837709" lon="21.0146431"><ele>32.6</ele><time>2026-05-02T09:45:26.786Z</time></trkpt><trkpt lat="38.8837422" lon="21.0147164"><ele>32.199999999999996</ele><time>2026-05-02T09:45:27.784Z</time></trkpt><trkpt lat="38.8837026" lon="21.0147918"><ele>31.8</ele><time>2026-05-02T09:45:28.784Z</time></trkpt><trkpt lat="38.8836283" lon="21.0149276"><ele>31.4</ele><time>2026-05-02T09:45:30.782Z</time></trkpt><trkpt lat="38.8835509" lon="21.0150646"><ele>31.0</ele><time>2026-05-02T09:45:32.784Z</time></trkpt><trkpt lat="38.8835089" lon="21.0151356"><ele>30.714285714285715</ele><time>2026-05-02T09:45:33.783Z</time></trkpt><trkpt lat="38.883468" lon="21.0152024"><ele>30.42857142857143</ele><time>2026-05-02T09:45:34.782Z</time></trkpt><trkpt lat="38.8834251" lon="21.015268"><ele>30.142857142857146</ele><time>2026-05-02T09:45:35.784Z</time></trkpt><trkpt lat="38.8833771" lon="21.0153258"><ele>29.85714285714286</ele><time>2026-05-02T09:45:36.786Z</time></trkpt><trkpt lat="38.8833246" lon="21.0153783"><ele>29.571428571428573</ele><time>2026-05-02T09:45:37.785Z</time></trkpt><trkpt lat="38.8832691" lon="21.0154337"><ele>29.285714285714292</ele><time>2026-05-02T09:45:38.784Z</time></trkpt><trkpt lat="38.8832146" lon="21.01549"><ele>29.000000000000004</ele><time>2026-05-02T09:45:39.783Z</time></trkpt><trkpt lat="38.8831598" lon="21.0155471"><ele>29.333333333333332</ele><time>2026-05-02T09:45:40.782Z</time></trkpt><trkpt lat="38.8831127" lon="21.0156231"><ele>29.666666666666664</ele><time>2026-05-02T09:45:41.785Z</time></trkpt><trkpt lat="38.8830675" lon="21.0157008"><ele>30.0</ele><time>2026-05-02T09:45:42.783Z</time></trkpt><trkpt lat="38.8830284" lon="21.0157887"><ele>30.333333333333336</ele><time>2026-05-02T09:45:43.784Z</time></trkpt><trkpt lat="38.8829883" lon="21.0158791"><ele>30.666666666666668</ele><time>2026-05-02T09:45:44.784Z</time></trkpt><trkpt lat="38.882948" lon="21.0159723"><ele>31.0</ele><time>2026-05-02T09:45:45.784Z</time></trkpt><trkpt lat="38.8829036" lon="21.0160586"><ele>31.000000000000004</ele><time>2026-05-02T09:45:46.782Z</time></trkpt><trkpt lat="38.8828618" lon="21.0161421"><ele>31.0</ele><time>2026-05-02T09:45:47.785Z</time></trkpt><trkpt lat="38.8828118" lon="21.0162165"><ele>31.0</ele><time>2026-05-02T09:45:48.783Z</time></trkpt><trkpt lat="38.8827596" lon="21.016299"><ele>31.0</ele><time>2026-05-02T09:45:49.783Z</time></trkpt><trkpt lat="38.8827165" lon="21.0163685"><ele>31.000000000000004</ele><time>2026-05-02T09:45:50.783Z</time></trkpt><trkpt lat="38.8826701" lon="21.0164361"><ele>31.0</ele><time>2026-05-02T09:45:51.786Z</time></trkpt><trkpt lat="38.8826241" lon="21.0165129"><ele>31.571428571428573</ele><time>2026-05-02T09:45:52.782Z</time></trkpt><trkpt lat="38.8825798" lon="21.01658"><ele>32.142857142857146</ele><time>2026-05-02T09:45:53.782Z</time></trkpt><trkpt lat="38.8825276" lon="21.0166582"><ele>32.714285714285715</ele><time>2026-05-02T09:45:54.782Z</time></trkpt><trkpt lat="38.8824732" lon="21.0167344"><ele>33.285714285714285</ele><time>2026-05-02T09:45:55.784Z</time></trkpt><trkpt lat="38.8824217" lon="21.0168059"><ele>33.85714285714286</ele><time>2026-05-02T09:45:56.783Z</time></trkpt><trkpt lat="38.8823755" lon="21.0168801"><ele>34.42857142857143</ele><time>2026-05-02T09:45:57.783Z</time></trkpt><trkpt lat="38.882335" lon="21.0169455"><ele>35.0</ele><time>2026-05-02T09:45:58.782Z</time></trkpt><trkpt lat="38.8822808" lon="21.0170833"><ele>35.0</ele><time>2026-05-02T09:46:00.784Z</time></trkpt><trkpt lat="38.8822309" lon="21.0171958"><ele>35.0</ele><time>2026-05-02T09:46:02.783Z</time></trkpt><trkpt lat="38.882196" lon="21.0172883"><ele>35.0</ele><time>2026-05-02T09:46:04.786Z</time></trkpt><trkpt lat="38.8821839" lon="21.0173772"><ele>35.0</ele><time>2026-05-02T09:46:07.783Z</time></trkpt><trkpt lat="38.8822245" lon="21.0174543"><ele>35.0</ele><time>2026-05-02T09:46:09.784Z</time></trkpt><trkpt lat="38.8822865" lon="21.0175091"><ele>35.0</ele><time>2026-05-02T09:46:11.786Z</time></trkpt><trkpt lat="38.8823409" lon="21.0175565"><ele>34.714285714285715</ele><time>2026-05-02T09:46:13.784Z</time></trkpt><trkpt lat="38.8824006" lon="21.0176067"><ele>34.42857142857143</ele><time>2026-05-02T09:46:15.784Z</time></trkpt><trkpt lat="38.8824746" lon="21.017658"><ele>34.14285714285714</ele><time>2026-05-02T09:46:17.785Z</time></trkpt><trkpt lat="38.8825367" lon="21.0177134"><ele>33.85714285714286</ele><time>2026-05-02T09:46:19.786Z</time></trkpt><trkpt lat="38.8825913" lon="21.0177565"><ele>33.57142857142857</ele><time>2026-05-02T09:46:21.784Z</time></trkpt><trkpt lat="38.882643" lon="21.0178044"><ele>33.285714285714285</ele><time>2026-05-02T09:46:23.782Z</time></trkpt><trkpt lat="38.8827104" lon="21.0178602"><ele>33.0</ele><time>2026-05-02T09:46:25.784Z</time></trkpt><trkpt lat="38.8827945" lon="21.0179144"><ele>32.166666666666664</ele><time>2026-05-02T09:46:27.784Z</time></trkpt><trkpt lat="38.8828831" lon="21.017988"><ele>31.333333333333336</ele><time>2026-05-02T09:46:29.784Z</time></trkpt><trkpt lat="38.8829488" lon="21.0180515"><ele>30.5</ele><time>2026-05-02T09:46:31.784Z</time></trkpt><trkpt lat="38.882965" lon="21.0181545"><ele>29.666666666666668</ele><time>2026-05-02T09:46:33.785Z</time></trkpt><trkpt lat="38.8829243" lon="21.0182805"><ele>28.833333333333336</ele><time>2026-05-02T09:46:35.785Z</time></trkpt><trkpt lat="38.8828879" lon="21.0183546"><ele>28.0</ele><time>2026-05-02T09:46:36.784Z</time></trkpt><trkpt lat="38.8828493" lon="21.0184327"><ele>27.714285714285715</ele><time>2026-05-02T09:46:37.782Z</time></trkpt><trkpt lat="38.8828137" lon="21.018507"><ele>27.42857142857143</ele><time>2026-05-02T09:46:38.783Z</time></trkpt><trkpt lat="38.8827765" lon="21.0185821"><ele>27.142857142857142</ele><time>2026-05-02T09:46:39.784Z</time></trkpt><trkpt lat="38.8827451" lon="21.0186644"><ele>26.857142857142858</ele><time>2026-05-02T09:46:40.785Z</time></trkpt><trkpt lat="38.8827148" lon="21.0187396"><ele>26.571428571428573</ele><time>2026-05-02T09:46:41.784Z</time></trkpt><trkpt lat="38.882681" lon="21.0188111"><ele>26.285714285714285</ele><time>2026-05-02T09:46:42.784Z</time></trkpt><trkpt lat="38.8826452" lon="21.0188796"><ele>26.0</ele><time>2026-05-02T09:46:43.784Z</time></trkpt><trkpt lat="38.8826068" lon="21.0189467"><ele>26.333333333333332</ele><time>2026-05-02T09:46:44.785Z</time></trkpt><trkpt lat="38.8825725" lon="21.0190204"><ele>26.666666666666664</ele><time>2026-05-02T09:46:45.783Z</time></trkpt><trkpt lat="38.8825137" lon="21.0191617"><ele>27.0</ele><time>2026-05-02T09:46:47.785Z</time></trkpt><trkpt lat="38.8824785" lon="21.0192376"><ele>27.333333333333336</ele><time>2026-05-02T09:46:48.783Z</time></trkpt><trkpt lat="38.8824431" lon="21.019314"><ele>27.666666666666668</ele><time>2026-05-02T09:46:49.784Z</time></trkpt><trkpt lat="38.8824106" lon="21.0193892"><ele>28.0</ele><time>2026-05-02T09:46:50.782Z</time></trkpt><trkpt lat="38.8823671" lon="21.0194679"><ele>28.000000000000004</ele><time>2026-05-02T09:46:51.786Z</time></trkpt><trkpt lat="38.8823334" lon="21.0195494"><ele>28.0</ele><time>2026-05-02T09:46:52.783Z</time></trkpt><trkpt lat="38.8822939" lon="21.019631"><ele>28.0</ele><time>2026-05-02T09:46:53.784Z</time></trkpt><trkpt lat="38.8822553" lon="21.0197107"><ele>28.0</ele><time>2026-05-02T09:46:54.783Z</time></trkpt><trkpt lat="38.8822212" lon="21.0197831"><ele>28.000000000000004</ele><time>2026-05-02T09:46:55.785Z</time></trkpt><trkpt lat="38.8821535" lon="21.0199091"><ele>28.0</ele><time>2026-05-02T09:46:57.784Z</time></trkpt><trkpt lat="38.8820935" lon="21.0200417"><ele>27.666666666666668</ele><time>2026-05-02T09:46:59.785Z</time></trkpt><trkpt lat="38.8820321" lon="21.020178"><ele>27.333333333333336</ele><time>2026-05-02T09:47:01.783Z</time></trkpt><trkpt lat="38.8819995" lon="21.0202497"><ele>27.0</ele><time>2026-05-02T09:47:02.784Z</time></trkpt><trkpt lat="38.8819651" lon="21.0203267"><ele>26.666666666666664</ele><time>2026-05-02T09:47:03.784Z</time></trkpt><trkpt lat="38.8819257" lon="21.0204062"><ele>26.333333333333332</ele><time>2026-05-02T09:47:04.784Z</time></trkpt><trkpt lat="38.8818871" lon="21.0204989"><ele>26.0</ele><time>2026-05-02T09:47:05.782Z</time></trkpt><trkpt lat="38.8818396" lon="21.0205903"><ele>26.0</ele><time>2026-05-02T09:47:06.783Z</time></trkpt><trkpt lat="38.881792" lon="21.020684"><ele>26.0</ele><time>2026-05-02T09:47:07.783Z</time></trkpt><trkpt lat="38.8817417" lon="21.0207866"><ele>26.0</ele><time>2026-05-02T09:47:08.786Z</time></trkpt><trkpt lat="38.8816901" lon="21.0208922"><ele>26.0</ele><time>2026-05-02T09:47:09.782Z</time></trkpt><trkpt lat="38.8816414" lon="21.0209917"><ele>26.0</ele><time>2026-05-02T09:47:10.782Z</time></trkpt><trkpt lat="38.8815965" lon="21.0210877"><ele>25.833333333333332</ele><time>2026-05-02T09:47:11.782Z</time></trkpt><trkpt lat="38.8815507" lon="21.0211775"><ele>25.666666666666664</ele><time>2026-05-02T09:47:12.783Z</time></trkpt><trkpt lat="38.8815026" lon="21.0212644"><ele>25.5</ele><time>2026-05-02T09:47:13.783Z</time></trkpt><trkpt lat="38.8814603" lon="21.0213498"><ele>25.333333333333336</ele><time>2026-05-02T09:47:14.784Z</time></trkpt><trkpt lat="38.8814158" lon="21.021441"><ele>25.166666666666668</ele><time>2026-05-02T09:47:15.781Z</time></trkpt><trkpt lat="38.8813692" lon="21.0215377"><ele>25.0</ele><time>2026-05-02T09:47:16.784Z</time></trkpt><trkpt lat="38.8813271" lon="21.0216419"><ele>24.4</ele><time>2026-05-02T09:47:17.782Z</time></trkpt><trkpt lat="38.8812828" lon="21.0217573"><ele>23.8</ele><time>2026-05-02T09:47:18.785Z</time></trkpt><trkpt lat="38.881238" lon="21.0218785"><ele>23.200000000000003</ele><time>2026-05-02T09:47:19.782Z</time></trkpt><trkpt lat="38.8811971" lon="21.0220063"><ele>22.6</ele><time>2026-05-02T09:47:20.782Z</time></trkpt><trkpt lat="38.8811668" lon="21.0221488"><ele>22.0</ele><time>2026-05-02T09:47:21.784Z</time></trkpt><trkpt lat="38.8811315" lon="21.022295"><ele>22.0</ele><time>2026-05-02T09:47:22.784Z</time></trkpt><trkpt lat="38.881092" lon="21.0224473"><ele>22.0</ele><time>2026-05-02T09:47:23.785Z</time></trkpt><trkpt lat="38.8810508" lon="21.0226045"><ele>22.0</ele><time>2026-05-02T09:47:24.785Z</time></trkpt><trkpt lat="38.880996" lon="21.0227781"><ele>22.0</ele><time>2026-05-02T09:47:25.784Z</time></trkpt><trkpt lat="38.8809337" lon="21.0229431"><ele>21.666666666666664</ele><time>2026-05-02T09:47:26.783Z</time></trkpt><trkpt lat="38.8808644" lon="21.0231142"><ele>21.333333333333332</ele><time>2026-05-02T09:47:27.784Z</time></trkpt><trkpt lat="38.8807842" lon="21.0232831"><ele>21.0</ele><time>2026-05-02T09:47:28.785Z</time></trkpt><trkpt lat="38.8807049" lon="21.0234526"><ele>21.0</ele><time>2026-05-02T09:47:29.783Z</time></trkpt><trkpt lat="38.8806253" lon="21.0236203"><ele>21.0</ele><time>2026-05-02T09:47:30.782Z</time></trkpt><trkpt lat="38.880544" lon="21.0237859"><ele>21.0</ele><time>2026-05-02T09:47:31.785Z</time></trkpt><trkpt lat="38.8804601" lon="21.023952"><ele>21.0</ele><time>2026-05-02T09:47:32.782Z</time></trkpt><trkpt lat="38.8803787" lon="21.0241145"><ele>21.0</ele><time>2026-05-02T09:47:33.783Z</time></trkpt><trkpt lat="38.8802956" lon="21.0242802"><ele>21.0</ele><time>2026-05-02T09:47:34.783Z</time></trkpt><trkpt lat="38.8802071" lon="21.024429"><ele>21.25</ele><time>2026-05-02T09:47:35.783Z</time></trkpt><trkpt lat="38.8801104" lon="21.0245705"><ele>21.5</ele><time>2026-05-02T09:47:36.785Z</time></trkpt><trkpt lat="38.8800079" lon="21.0247033"><ele>21.75</ele><time>2026-05-02T09:47:37.785Z</time></trkpt><trkpt lat="38.8798899" lon="21.0248286"><ele>22.0</ele><time>2026-05-02T09:47:38.784Z</time></trkpt><trkpt lat="38.8797679" lon="21.024961"><ele>23.666666666666664</ele><time>2026-05-02T09:47:39.783Z</time></trkpt><trkpt lat="38.8796417" lon="21.0251008"><ele>25.333333333333332</ele><time>2026-05-02T09:47:40.785Z</time></trkpt><trkpt lat="38.8795136" lon="21.025237"><ele>27.0</ele><time>2026-05-02T09:47:41.784Z</time></trkpt><trkpt lat="38.8793853" lon="21.0253797"><ele>27.666666666666664</ele><time>2026-05-02T09:47:42.785Z</time></trkpt><trkpt lat="38.8792548" lon="21.0255203"><ele>28.333333333333332</ele><time>2026-05-02T09:47:43.786Z</time></trkpt><trkpt lat="38.8791296" lon="21.0256513"><ele>29.0</ele><time>2026-05-02T09:47:44.784Z</time></trkpt><trkpt lat="38.8790067" lon="21.0257831"><ele>29.0</ele><time>2026-05-02T09:47:45.783Z</time></trkpt><trkpt lat="38.8788836" lon="21.0259159"><ele>29.0</ele><time>2026-05-02T09:47:46.785Z</time></trkpt><trkpt lat="38.8787669" lon="21.0260458"><ele>29.0</ele><time>2026-05-02T09:47:47.785Z</time></trkpt><trkpt lat="38.8786526" lon="21.0261738"><ele>29.0</ele><time>2026-05-02T09:47:48.784Z</time></trkpt><trkpt lat="38.8785379" lon="21.0262969"><ele>29.0</ele><time>2026-05-02T09:47:49.783Z</time></trkpt><trkpt lat="38.8784225" lon="21.026421"><ele>29.0</ele><time>2026-05-02T09:47:50.78Z</time></trkpt><trkpt lat="38.8783096" lon="21.02654"><ele>29.0</ele><time>2026-05-02T09:47:51.784Z</time></trkpt><trkpt lat="38.8781983" lon="21.0266714"><ele>30.25</ele><time>2026-05-02T09:47:52.781Z</time></trkpt><trkpt lat="38.8780902" lon="21.0267923"><ele>31.5</ele><time>2026-05-02T09:47:53.783Z</time></trkpt><trkpt lat="38.8779781" lon="21.0269131"><ele>32.75</ele><time>2026-05-02T09:47:54.783Z</time></trkpt><trkpt lat="38.8778678" lon="21.0270362"><ele>34.0</ele><time>2026-05-02T09:47:55.784Z</time></trkpt><trkpt lat="38.8777569" lon="21.0271634"><ele>34.0</ele><time>2026-05-02T09:47:56.785Z</time></trkpt><trkpt lat="38.8776548" lon="21.0272889"><ele>34.0</ele><time>2026-05-02T09:47:57.784Z</time></trkpt><trkpt lat="38.877547" lon="21.0274206"><ele>34.0</ele><time>2026-05-02T09:47:58.781Z</time></trkpt><trkpt lat="38.8774351" lon="21.0275551"><ele>34.0</ele><time>2026-05-02T09:47:59.783Z</time></trkpt><trkpt lat="38.8773263" lon="21.0276897"><ele>35.25</ele><time>2026-05-02T09:48:00.784Z</time></trkpt><trkpt lat="38.877223" lon="21.0278223"><ele>36.5</ele><time>2026-05-02T09:48:01.784Z</time></trkpt><trkpt lat="38.8771285" lon="21.027954"><ele>37.75</ele><time>2026-05-02T09:48:02.784Z</time></trkpt><trkpt lat="38.8770292" lon="21.0280897"><ele>39.0</ele><time>2026-05-02T09:48:03.784Z</time></trkpt><trkpt lat="38.8769309" lon="21.0282285"><ele>38.75</ele><time>2026-05-02T09:48:04.783Z</time></trkpt><trkpt lat="38.8768312" lon="21.0283611"><ele>38.5</ele><time>2026-05-02T09:48:05.784Z</time></trkpt><trkpt lat="38.8767332" lon="21.0284994"><ele>38.25</ele><time>2026-05-02T09:48:06.786Z</time></trkpt><trkpt lat="38.8766395" lon="21.0286399"><ele>38.0</ele><time>2026-05-02T09:48:07.784Z</time></trkpt><trkpt lat="38.8765367" lon="21.0287805"><ele>40.666666666666664</ele><time>2026-05-02T09:48:08.784Z</time></trkpt><trkpt lat="38.8764302" lon="21.0289216"><ele>43.333333333333336</ele><time>2026-05-02T09:48:09.785Z</time></trkpt><trkpt lat="38.8763112" lon="21.0290723"><ele>46.0</ele><time>2026-05-02T09:48:10.785Z</time></trkpt><trkpt lat="38.8761819" lon="21.0292362"><ele>46.0</ele><time>2026-05-02T09:48:11.784Z</time></trkpt><trkpt lat="38.8760507" lon="21.0293956"><ele>46.0</ele><time>2026-05-02T09:48:12.783Z</time></trkpt><trkpt lat="38.8759229" lon="21.029542"><ele>46.0</ele><time>2026-05-02T09:48:13.783Z</time></trkpt><trkpt lat="38.87579" lon="21.0296928"><ele>47.333333333333336</ele><time>2026-05-02T09:48:14.784Z</time></trkpt><trkpt lat="38.8756691" lon="21.0298305"><ele>48.66666666666667</ele><time>2026-05-02T09:48:15.783Z</time></trkpt><trkpt lat="38.8755465" lon="21.0299695"><ele>50.0</ele><time>2026-05-02T09:48:16.784Z</time></trkpt><trkpt lat="38.875438" lon="21.0300948"><ele>50.0</ele><time>2026-05-02T09:48:17.782Z</time></trkpt><trkpt lat="38.8753317" lon="21.0302088"><ele>50.0</ele><time>2026-05-02T09:48:18.784Z</time></trkpt><trkpt lat="38.8752312" lon="21.0303129"><ele>50.0</ele><time>2026-05-02T09:48:19.781Z</time></trkpt><trkpt lat="38.875127" lon="21.0304194"><ele>50.0</ele><time>2026-05-02T09:48:20.782Z</time></trkpt><trkpt lat="38.8750277" lon="21.0305325"><ele>50.75</ele><time>2026-05-02T09:48:21.784Z</time></trkpt><trkpt lat="38.8749243" lon="21.0306454"><ele>51.5</ele><time>2026-05-02T09:48:22.782Z</time></trkpt><trkpt lat="38.874818" lon="21.030762"><ele>52.25</ele><time>2026-05-02T09:48:23.783Z</time></trkpt><trkpt lat="38.8747117" lon="21.0308897"><ele>53.0</ele><time>2026-05-02T09:48:24.783Z</time></trkpt><trkpt lat="38.8746138" lon="21.0310163"><ele>53.0</ele><time>2026-05-02T09:48:25.784Z</time></trkpt><trkpt lat="38.8745177" lon="21.0311516"><ele>53.0</ele><time>2026-05-02T09:48:26.784Z</time></trkpt><trkpt lat="38.8744311" lon="21.031296"><ele>53.0</ele><time>2026-05-02T09:48:27.782Z</time></trkpt><trkpt lat="38.8743493" lon="21.0314624"><ele>53.0</ele><time>2026-05-02T09:48:28.784Z</time></trkpt><trkpt lat="38.8742789" lon="21.0316555"><ele>53.333333333333336</ele><time>2026-05-02T09:48:29.784Z</time></trkpt><trkpt lat="38.8742127" lon="21.0318717"><ele>53.66666666666667</ele><time>2026-05-02T09:48:30.783Z</time></trkpt><trkpt lat="38.8741541" lon="21.0320996"><ele>54.0</ele><time>2026-05-02T09:48:31.782Z</time></trkpt><trkpt lat="38.8741135" lon="21.032351"><ele>52.66666666666667</ele><time>2026-05-02T09:48:32.782Z</time></trkpt><trkpt lat="38.8740596" lon="21.0325929"><ele>51.333333333333336</ele><time>2026-05-02T09:48:33.785Z</time></trkpt><trkpt lat="38.8740036" lon="21.0328371"><ele>50.0</ele><time>2026-05-02T09:48:34.783Z</time></trkpt><trkpt lat="38.8739438" lon="21.033099"><ele>48.333333333333336</ele><time>2026-05-02T09:48:35.785Z</time></trkpt><trkpt lat="38.8738669" lon="21.0333528"><ele>46.66666666666667</ele><time>2026-05-02T09:48:36.783Z</time></trkpt><trkpt lat="38.8737756" lon="21.0336105"><ele>45.0</ele><time>2026-05-02T09:48:37.784Z</time></trkpt><trkpt lat="38.8736728" lon="21.0338796"><ele>45.0</ele><time>2026-05-02T09:48:38.782Z</time></trkpt><trkpt lat="38.8735658" lon="21.0341373"><ele>45.0</ele><time>2026-05-02T09:48:39.783Z</time></trkpt><trkpt lat="38.8734555" lon="21.0343845"><ele>45.0</ele><time>2026-05-02T09:48:40.782Z</time></trkpt><trkpt lat="38.8733458" lon="21.0346221"><ele>44.666666666666664</ele><time>2026-05-02T09:48:41.784Z</time></trkpt><trkpt lat="38.8732413" lon="21.0348578"><ele>44.33333333333333</ele><time>2026-05-02T09:48:42.784Z</time></trkpt><trkpt lat="38.8731378" lon="21.0350943"><ele>44.0</ele><time>2026-05-02T09:48:43.782Z</time></trkpt><trkpt lat="38.8730449" lon="21.0353282"><ele>44.0</ele><time>2026-05-02T09:48:44.784Z</time></trkpt><trkpt lat="38.8729523" lon="21.0355484"><ele>44.0</ele><time>2026-05-02T09:48:45.785Z</time></trkpt><trkpt lat="38.8728705" lon="21.0357546"><ele>44.0</ele><time>2026-05-02T09:48:46.781Z</time></trkpt><trkpt lat="38.8727885" lon="21.0359555"><ele>41.666666666666664</ele><time>2026-05-02T09:48:47.783Z</time></trkpt><trkpt lat="38.8727173" lon="21.0361437"><ele>39.333333333333336</ele><time>2026-05-02T09:48:48.785Z</time></trkpt><trkpt lat="38.8726533" lon="21.036343"><ele>37.0</ele><time>2026-05-02T09:48:49.784Z</time></trkpt><trkpt lat="38.8726141" lon="21.0365505"><ele>44.0</ele><time>2026-05-02T09:48:50.783Z</time></trkpt><trkpt lat="38.8725826" lon="21.0367679"><ele>51.0</ele><time>2026-05-02T09:48:51.783Z</time></trkpt><trkpt lat="38.8725717" lon="21.0369943"><ele>58.0</ele><time>2026-05-02T09:48:52.785Z</time></trkpt><trkpt lat="38.8725883" lon="21.0372268"><ele>50.0</ele><time>2026-05-02T09:48:53.781Z</time></trkpt><trkpt lat="38.8726254" lon="21.0374719"><ele>42.0</ele><time>2026-05-02T09:48:54.782Z</time></trkpt><trkpt lat="38.8726706" lon="21.0377284"><ele>34.0</ele><time>2026-05-02T09:48:55.783Z</time></trkpt><trkpt lat="38.8727256" lon="21.0379837"><ele>34.0</ele><time>2026-05-02T09:48:56.783Z</time></trkpt><trkpt lat="38.8727928" lon="21.0382261"><ele>34.0</ele><time>2026-05-02T09:48:57.785Z</time></trkpt><trkpt lat="38.8728497" lon="21.0384714"><ele>34.0</ele><time>2026-05-02T09:48:58.785Z</time></trkpt><trkpt lat="38.8729054" lon="21.0387129"><ele>34.66666666666667</ele><time>2026-05-02T09:48:59.785Z</time></trkpt><trkpt lat="38.8729622" lon="21.0389496"><ele>35.333333333333336</ele><time>2026-05-02T09:49:00.782Z</time></trkpt><trkpt lat="38.8729989" lon="21.0391814"><ele>36.0</ele><time>2026-05-02T09:49:01.784Z</time></trkpt><trkpt lat="38.8730169" lon="21.0394064"><ele>35.666666666666664</ele><time>2026-05-02T09:49:02.784Z</time></trkpt><trkpt lat="38.8730188" lon="21.0396178"><ele>35.33333333333333</ele><time>2026-05-02T09:49:03.783Z</time></trkpt><trkpt lat="38.8729945" lon="21.0398168"><ele>35.0</ele><time>2026-05-02T09:49:04.785Z</time></trkpt><trkpt lat="38.8729446" lon="21.0400183"><ele>35.0</ele><time>2026-05-02T09:49:05.783Z</time></trkpt><trkpt lat="38.8728685" lon="21.040226"><ele>35.0</ele><time>2026-05-02T09:49:06.784Z</time></trkpt><trkpt lat="38.8727774" lon="21.0404504"><ele>35.0</ele><time>2026-05-02T09:49:07.783Z</time></trkpt><trkpt lat="38.8726757" lon="21.0406786"><ele>40.33333333333333</ele><time>2026-05-02T09:49:08.785Z</time></trkpt><trkpt lat="38.87257" lon="21.040909"><ele>45.666666666666664</ele><time>2026-05-02T09:49:09.783Z</time></trkpt><trkpt lat="38.8724547" lon="21.0411454"><ele>51.0</ele><time>2026-05-02T09:49:10.783Z</time></trkpt><trkpt lat="38.8723385" lon="21.0413835"><ele>51.0</ele><time>2026-05-02T09:49:11.785Z</time></trkpt><trkpt lat="38.8722241" lon="21.0416262"><ele>51.0</ele><time>2026-05-02T09:49:12.784Z</time></trkpt><trkpt lat="38.8721137" lon="21.0418735"><ele>51.0</ele><time>2026-05-02T09:49:13.784Z</time></trkpt><trkpt lat="38.8720101" lon="21.0421275"><ele>49.0</ele><time>2026-05-02T09:49:14.785Z</time></trkpt><trkpt lat="38.8719217" lon="21.0423679"><ele>47.0</ele><time>2026-05-02T09:49:15.781Z</time></trkpt><trkpt lat="38.8718295" lon="21.0426169"><ele>45.0</ele><time>2026-05-02T09:49:16.784Z</time></trkpt><trkpt lat="38.871741" lon="21.0428699"><ele>45.0</ele><time>2026-05-02T09:49:17.783Z</time></trkpt><trkpt lat="38.87166" lon="21.0431197"><ele>45.0</ele><time>2026-05-02T09:49:18.781Z</time></trkpt><trkpt lat="38.8715897" lon="21.0433652"><ele>45.0</ele><time>2026-05-02T09:49:19.783Z</time></trkpt><trkpt lat="38.8715189" lon="21.0436081"><ele>40.666666666666664</ele><time>2026-05-02T09:49:20.784Z</time></trkpt><trkpt lat="38.8714511" lon="21.0438548"><ele>36.33333333333333</ele><time>2026-05-02T09:49:21.784Z</time></trkpt><trkpt lat="38.8714028" lon="21.0441189"><ele>32.0</ele><time>2026-05-02T09:49:22.783Z</time></trkpt><trkpt lat="38.871379" lon="21.0443765"><ele>29.0</ele><time>2026-05-02T09:49:23.783Z</time></trkpt><trkpt lat="38.8713791" lon="21.0446555"><ele>26.0</ele><time>2026-05-02T09:49:24.784Z</time></trkpt><trkpt lat="38.8713823" lon="21.0449477"><ele>23.0</ele><time>2026-05-02T09:49:25.782Z</time></trkpt><trkpt lat="38.8713978" lon="21.0452386"><ele>21.333333333333336</ele><time>2026-05-02T09:49:26.782Z</time></trkpt><trkpt lat="38.8714096" lon="21.0455199"><ele>19.666666666666668</ele><time>2026-05-02T09:49:27.782Z</time></trkpt><trkpt lat="38.8714279" lon="21.0457902"><ele>18.0</ele><time>2026-05-02T09:49:28.783Z</time></trkpt><trkpt lat="38.8714409" lon="21.0460627"><ele>17.333333333333332</ele><time>2026-05-02T09:49:29.784Z</time></trkpt><trkpt lat="38.8714461" lon="21.0463288"><ele>16.666666666666664</ele><time>2026-05-02T09:49:30.783Z</time></trkpt><trkpt lat="38.8714447" lon="21.0465773"><ele>16.0</ele><time>2026-05-02T09:49:31.783Z</time></trkpt><trkpt lat="38.8714405" lon="21.0468113"><ele>16.0</ele><time>2026-05-02T09:49:32.783Z</time></trkpt><trkpt lat="38.8714085" lon="21.0470386"><ele>16.0</ele><time>2026-05-02T09:49:33.783Z</time></trkpt><trkpt lat="38.8713699" lon="21.0472561"><ele>16.0</ele><time>2026-05-02T09:49:34.783Z</time></trkpt><trkpt lat="38.8713138" lon="21.0474622"><ele>15.0</ele><time>2026-05-02T09:49:35.782Z</time></trkpt><trkpt lat="38.8712349" lon="21.0476707"><ele>14.0</ele><time>2026-05-02T09:49:36.786Z</time></trkpt><trkpt lat="38.8711436" lon="21.0478651"><ele>13.0</ele><time>2026-05-02T09:49:37.781Z</time></trkpt><trkpt lat="38.8710437" lon="21.0480567"><ele>16.0</ele><time>2026-05-02T09:49:38.782Z</time></trkpt><trkpt lat="38.8709358" lon="21.0482648"><ele>19.0</ele><time>2026-05-02T09:49:39.784Z</time></trkpt><trkpt lat="38.8708033" lon="21.0484885"><ele>22.0</ele><time>2026-05-02T09:49:40.782Z</time></trkpt><trkpt lat="38.8706695" lon="21.0487132"><ele>22.0</ele><time>2026-05-02T09:49:41.785Z</time></trkpt><trkpt lat="38.8705304" lon="21.0489469"><ele>22.0</ele><time>2026-05-02T09:49:42.781Z</time></trkpt><trkpt lat="38.8704022" lon="21.0491747"><ele>22.0</ele><time>2026-05-02T09:49:43.785Z</time></trkpt><trkpt lat="38.870281" lon="21.0494086"><ele>21.0</ele><time>2026-05-02T09:49:44.784Z</time></trkpt><trkpt lat="38.8701677" lon="21.0496541"><ele>20.0</ele><time>2026-05-02T09:49:45.783Z</time></trkpt><trkpt lat="38.8700629" lon="21.0499036"><ele>19.0</ele><time>2026-05-02T09:49:46.785Z</time></trkpt><trkpt lat="38.8699723" lon="21.0501502"><ele>18.333333333333332</ele><time>2026-05-02T09:49:47.784Z</time></trkpt><trkpt lat="38.8698994" lon="21.0504047"><ele>17.666666666666668</ele><time>2026-05-02T09:49:48.784Z</time></trkpt><trkpt lat="38.8698433" lon="21.0506806"><ele>17.0</ele><time>2026-05-02T09:49:49.78Z</time></trkpt><trkpt lat="38.869788" lon="21.0509688"><ele>16.5</ele><time>2026-05-02T09:49:50.781Z</time></trkpt><trkpt lat="38.8697396" lon="21.05126"><ele>16.0</ele><time>2026-05-02T09:49:51.783Z</time></trkpt><trkpt lat="38.8696931" lon="21.0515542"><ele>16.0</ele><time>2026-05-02T09:49:52.784Z</time></trkpt><trkpt lat="38.869651" lon="21.05186"><ele>16.0</ele><time>2026-05-02T09:49:53.784Z</time></trkpt><trkpt lat="38.8696111" lon="21.0521706"><ele>17.5</ele><time>2026-05-02T09:49:54.782Z</time></trkpt><trkpt lat="38.8695631" lon="21.0524795"><ele>19.0</ele><time>2026-05-02T09:49:55.784Z</time></trkpt><trkpt lat="38.8695222" lon="21.0528073"><ele>19.0</ele><time>2026-05-02T09:49:56.784Z</time></trkpt><trkpt lat="38.8694641" lon="21.053145"><ele>19.0</ele><time>2026-05-02T09:49:57.783Z</time></trkpt><trkpt lat="38.8693965" lon="21.0534819"><ele>19.5</ele><time>2026-05-02T09:49:58.782Z</time></trkpt><trkpt lat="38.8693206" lon="21.0538258"><ele>20.0</ele><time>2026-05-02T09:49:59.783Z</time></trkpt><trkpt lat="38.8692452" lon="21.0541667"><ele>25.0</ele><time>2026-05-02T09:50:00.783Z</time></trkpt><trkpt lat="38.8691571" lon="21.0545019"><ele>30.0</ele><time>2026-05-02T09:50:01.783Z</time></trkpt><trkpt lat="38.8690614" lon="21.0548139"><ele>29.0</ele><time>2026-05-02T09:50:02.783Z</time></trkpt><trkpt lat="38.8689825" lon="21.0551035"><ele>28.0</ele><time>2026-05-02T09:50:03.783Z</time></trkpt><trkpt lat="38.8689034" lon="21.0553707"><ele>28.0</ele><time>2026-05-02T09:50:04.783Z</time></trkpt><trkpt lat="38.8688423" lon="21.0555958"><ele>28.0</ele><time>2026-05-02T09:50:05.783Z</time></trkpt><trkpt lat="38.8687877" lon="21.0558041"><ele>28.0</ele><time>2026-05-02T09:50:06.781Z</time></trkpt><trkpt lat="38.868748" lon="21.0559563"><ele>27.25</ele><time>2026-05-02T09:50:07.782Z</time></trkpt><trkpt lat="38.8687134" lon="21.0561246"><ele>26.5</ele><time>2026-05-02T09:50:08.783Z</time></trkpt><trkpt lat="38.8686909" lon="21.0562975"><ele>25.75</ele><time>2026-05-02T09:50:09.783Z</time></trkpt><trkpt lat="38.8686883" lon="21.0564772"><ele>25.0</ele><time>2026-05-02T09:50:10.783Z</time></trkpt><trkpt lat="38.8687003" lon="21.0566671"><ele>23.333333333333336</ele><time>2026-05-02T09:50:11.782Z</time></trkpt><trkpt lat="38.8687228" lon="21.0568553"><ele>21.666666666666668</ele><time>2026-05-02T09:50:12.782Z</time></trkpt><trkpt lat="38.8687677" lon="21.057051"><ele>20.0</ele><time>2026-05-02T09:50:13.781Z</time></trkpt><trkpt lat="38.8688273" lon="21.0572462"><ele>20.0</ele><time>2026-05-02T09:50:14.781Z</time></trkpt><trkpt lat="38.8689028" lon="21.0574324"><ele>20.0</ele><time>2026-05-02T09:50:15.781Z</time></trkpt><trkpt lat="38.8689971" lon="21.0576225"><ele>20.0</ele><time>2026-05-02T09:50:16.783Z</time></trkpt><trkpt lat="38.8691015" lon="21.0578074"><ele>20.0</ele><time>2026-05-02T09:50:17.785Z</time></trkpt><trkpt lat="38.8692103" lon="21.0579963"><ele>20.0</ele><time>2026-05-02T09:50:18.783Z</time></trkpt><trkpt lat="38.8693287" lon="21.0581839"><ele>20.0</ele><time>2026-05-02T09:50:19.784Z</time></trkpt><trkpt lat="38.8694505" lon="21.0583847"><ele>18.666666666666668</ele><time>2026-05-02T09:50:20.784Z</time></trkpt><trkpt lat="38.8695661" lon="21.058595"><ele>17.333333333333332</ele><time>2026-05-02T09:50:21.784Z</time></trkpt><trkpt lat="38.8696872" lon="21.0588002"><ele>16.0</ele><time>2026-05-02T09:50:22.782Z</time></trkpt><trkpt lat="38.8698043" lon="21.0589984"><ele>15.666666666666666</ele><time>2026-05-02T09:50:23.782Z</time></trkpt><trkpt lat="38.8699192" lon="21.0592015"><ele>15.333333333333332</ele><time>2026-05-02T09:50:24.783Z</time></trkpt><trkpt lat="38.8700359" lon="21.0594016"><ele>15.0</ele><time>2026-05-02T09:50:25.783Z</time></trkpt><trkpt lat="38.8701442" lon="21.0595971"><ele>15.0</ele><time>2026-05-02T09:50:26.784Z</time></trkpt><trkpt lat="38.8702529" lon="21.0597851"><ele>15.0</ele><time>2026-05-02T09:50:27.783Z</time></trkpt><trkpt lat="38.8703387" lon="21.0599656"><ele>15.0</ele><time>2026-05-02T09:50:28.781Z</time></trkpt><trkpt lat="38.8704149" lon="21.0601481"><ele>14.333333333333332</ele><time>2026-05-02T09:50:29.782Z</time></trkpt><trkpt lat="38.8704684" lon="21.0603493"><ele>13.666666666666666</ele><time>2026-05-02T09:50:30.782Z</time></trkpt><trkpt lat="38.8705099" lon="21.0605603"><ele>13.0</ele><time>2026-05-02T09:50:31.781Z</time></trkpt><trkpt lat="38.8705343" lon="21.0607778"><ele>13.0</ele><time>2026-05-02T09:50:32.782Z</time></trkpt><trkpt lat="38.8705409" lon="21.0610002"><ele>13.0</ele><time>2026-05-02T09:50:33.783Z</time></trkpt><trkpt lat="38.870529" lon="21.0612268"><ele>13.0</ele><time>2026-05-02T09:50:34.783Z</time></trkpt><trkpt lat="38.8704973" lon="21.0614511"><ele>13.0</ele><time>2026-05-02T09:50:35.782Z</time></trkpt><trkpt lat="38.8704424" lon="21.0616621"><ele>13.0</ele><time>2026-05-02T09:50:36.785Z</time></trkpt><trkpt lat="38.8703667" lon="21.0618626"><ele>13.0</ele><time>2026-05-02T09:50:37.78Z</time></trkpt><trkpt lat="38.8702831" lon="21.0620528"><ele>13.0</ele><time>2026-05-02T09:50:38.78Z</time></trkpt><trkpt lat="38.8701887" lon="21.0622261"><ele>13.0</ele><time>2026-05-02T09:50:39.783Z</time></trkpt><trkpt lat="38.8700947" lon="21.0623795"><ele>13.0</ele><time>2026-05-02T09:50:40.782Z</time></trkpt><trkpt lat="38.8699843" lon="21.0625295"><ele>15.0</ele><time>2026-05-02T09:50:41.782Z</time></trkpt><trkpt lat="38.8698701" lon="21.0626851"><ele>17.0</ele><time>2026-05-02T09:50:42.78Z</time></trkpt><trkpt lat="38.8697447" lon="21.0628611"><ele>19.0</ele><time>2026-05-02T09:50:43.782Z</time></trkpt><trkpt lat="38.8696023" lon="21.0630554"><ele>19.0</ele><time>2026-05-02T09:50:44.782Z</time></trkpt><trkpt lat="38.8694444" lon="21.0632644"><ele>19.0</ele><time>2026-05-02T09:50:45.783Z</time></trkpt><trkpt lat="38.8692813" lon="21.0634785"><ele>20.0</ele><time>2026-05-02T09:50:46.781Z</time></trkpt><trkpt lat="38.8691168" lon="21.063705"><ele>21.0</ele><time>2026-05-02T09:50:47.783Z</time></trkpt><trkpt lat="38.8689502" lon="21.0639356"><ele>21.5</ele><time>2026-05-02T09:50:48.781Z</time></trkpt><trkpt lat="38.8687863" lon="21.064165"><ele>22.0</ele><time>2026-05-02T09:50:49.782Z</time></trkpt><trkpt lat="38.8686248" lon="21.0643884"><ele>22.0</ele><time>2026-05-02T09:50:50.783Z</time></trkpt><trkpt lat="38.8684686" lon="21.0645965"><ele>22.0</ele><time>2026-05-02T09:50:51.779Z</time></trkpt><trkpt lat="38.868325" lon="21.0648028"><ele>22.0</ele><time>2026-05-02T09:50:52.783Z</time></trkpt><trkpt lat="38.8681969" lon="21.0650107"><ele>23.333333333333332</ele><time>2026-05-02T09:50:53.782Z</time></trkpt><trkpt lat="38.8680722" lon="21.0652302"><ele>24.666666666666664</ele><time>2026-05-02T09:50:54.781Z</time></trkpt><trkpt lat="38.8679659" lon="21.0654688"><ele>26.0</ele><time>2026-05-02T09:50:55.782Z</time></trkpt><trkpt lat="38.8678783" lon="21.0657445"><ele>26.5</ele><time>2026-05-02T09:50:56.784Z</time></trkpt><trkpt lat="38.8677931" lon="21.0660488"><ele>27.0</ele><time>2026-05-02T09:50:57.783Z</time></trkpt><trkpt lat="38.867709" lon="21.0663788"><ele>26.0</ele><time>2026-05-02T09:50:58.782Z</time></trkpt><trkpt lat="38.8676325" lon="21.0667406"><ele>25.0</ele><time>2026-05-02T09:50:59.784Z</time></trkpt><trkpt lat="38.8675474" lon="21.0670998"><ele>24.0</ele><time>2026-05-02T09:51:00.784Z</time></trkpt><trkpt lat="38.8674639" lon="21.0674738"><ele>23.0</ele><time>2026-05-02T09:51:01.784Z</time></trkpt><trkpt lat="38.8673816" lon="21.0678362"><ele>23.0</ele><time>2026-05-02T09:51:02.782Z</time></trkpt><trkpt lat="38.8673008" lon="21.0681896"><ele>23.0</ele><time>2026-05-02T09:51:03.782Z</time></trkpt><trkpt lat="38.8672258" lon="21.0685334"><ele>23.0</ele><time>2026-05-02T09:51:04.783Z</time></trkpt><trkpt lat="38.8671519" lon="21.0688642"><ele>23.0</ele><time>2026-05-02T09:51:05.782Z</time></trkpt><trkpt lat="38.8670769" lon="21.0691785"><ele>22.5</ele><time>2026-05-02T09:51:06.782Z</time></trkpt><trkpt lat="38.8670033" lon="21.0694935"><ele>22.0</ele><time>2026-05-02T09:51:07.782Z</time></trkpt><trkpt lat="38.866933" lon="21.069804"><ele>22.5</ele><time>2026-05-02T09:51:08.784Z</time></trkpt><trkpt lat="38.8668603" lon="21.0701088"><ele>23.0</ele><time>2026-05-02T09:51:09.781Z</time></trkpt><trkpt lat="38.8667909" lon="21.0704114"><ele>27.0</ele><time>2026-05-02T09:51:10.783Z</time></trkpt><trkpt lat="38.8667208" lon="21.070713"><ele>31.0</ele><time>2026-05-02T09:51:11.782Z</time></trkpt><trkpt lat="38.8666594" lon="21.0710148"><ele>32.5</ele><time>2026-05-02T09:51:12.783Z</time></trkpt><trkpt lat="38.8665944" lon="21.0713053"><ele>34.0</ele><time>2026-05-02T09:51:13.782Z</time></trkpt><trkpt lat="38.866527" lon="21.0715994"><ele>35.5</ele><time>2026-05-02T09:51:14.785Z</time></trkpt><trkpt lat="38.866459" lon="21.0718943"><ele>37.0</ele><time>2026-05-02T09:51:15.782Z</time></trkpt><trkpt lat="38.8663889" lon="21.0721898"><ele>35.0</ele><time>2026-05-02T09:51:16.784Z</time></trkpt><trkpt lat="38.8663206" lon="21.0724821"><ele>33.0</ele><time>2026-05-02T09:51:17.782Z</time></trkpt><trkpt lat="38.8662579" lon="21.0727699"><ele>33.0</ele><time>2026-05-02T09:51:18.781Z</time></trkpt><trkpt lat="38.866194" lon="21.0730416"><ele>33.0</ele><time>2026-05-02T09:51:19.782Z</time></trkpt><trkpt lat="38.8661372" lon="21.0732999"><ele>33.0</ele><time>2026-05-02T09:51:20.782Z</time></trkpt><trkpt lat="38.8660789" lon="21.0735523"><ele>33.0</ele><time>2026-05-02T09:51:21.781Z</time></trkpt><trkpt lat="38.8660157" lon="21.0738"><ele>33.0</ele><time>2026-05-02T09:51:22.782Z</time></trkpt><trkpt lat="38.8659389" lon="21.0740423"><ele>33.0</ele><time>2026-05-02T09:51:23.782Z</time></trkpt><trkpt lat="38.8658465" lon="21.0742888"><ele>33.0</ele><time>2026-05-02T09:51:24.783Z</time></trkpt><trkpt lat="38.8657313" lon="21.0745369"><ele>33.0</ele><time>2026-05-02T09:51:25.784Z</time></trkpt><trkpt lat="38.8655982" lon="21.0748018"><ele>30.5</ele><time>2026-05-02T09:51:26.78Z</time></trkpt><trkpt lat="38.8654576" lon="21.075062"><ele>28.0</ele><time>2026-05-02T09:51:27.783Z</time></trkpt><trkpt lat="38.865306" lon="21.0753257"><ele>28.0</ele><time>2026-05-02T09:51:28.781Z</time></trkpt><trkpt lat="38.8651465" lon="21.0755817"><ele>28.0</ele><time>2026-05-02T09:51:29.783Z</time></trkpt><trkpt lat="38.8649925" lon="21.0758326"><ele>32.0</ele><time>2026-05-02T09:51:30.782Z</time></trkpt><trkpt lat="38.8648415" lon="21.0760765"><ele>36.0</ele><time>2026-05-02T09:51:31.782Z</time></trkpt><trkpt lat="38.8646949" lon="21.0763174"><ele>36.0</ele><time>2026-05-02T09:51:32.782Z</time></trkpt><trkpt lat="38.8645519" lon="21.0765596"><ele>36.0</ele><time>2026-05-02T09:51:33.782Z</time></trkpt><trkpt lat="38.8644151" lon="21.0767904"><ele>33.666666666666664</ele><time>2026-05-02T09:51:34.78Z</time></trkpt><trkpt lat="38.8642816" lon="21.0770195"><ele>31.333333333333332</ele><time>2026-05-02T09:51:35.781Z</time></trkpt><trkpt lat="38.8641537" lon="21.0772318"><ele>29.0</ele><time>2026-05-02T09:51:36.781Z</time></trkpt><trkpt lat="38.8640405" lon="21.0774358"><ele>29.0</ele><time>2026-05-02T09:51:37.781Z</time></trkpt><trkpt lat="38.863922" lon="21.0776425"><ele>29.0</ele><time>2026-05-02T09:51:38.784Z</time></trkpt><trkpt lat="38.8638211" lon="21.0778667"><ele>29.0</ele><time>2026-05-02T09:51:39.784Z</time></trkpt><trkpt lat="38.8637295" lon="21.0781187"><ele>20.0</ele><time>2026-05-02T09:51:40.782Z</time></trkpt><trkpt lat="38.8636533" lon="21.0783892"><ele>11.0</ele><time>2026-05-02T09:51:41.782Z</time></trkpt><trkpt lat="38.8635789" lon="21.0786849"><ele>11.0</ele><time>2026-05-02T09:51:42.781Z</time></trkpt><trkpt lat="38.8635042" lon="21.0789735"><ele>11.0</ele><time>2026-05-02T09:51:43.783Z</time></trkpt><trkpt lat="38.863429" lon="21.0792644"><ele>18.5</ele><time>2026-05-02T09:51:44.781Z</time></trkpt><trkpt lat="38.8633457" lon="21.0795559"><ele>26.0</ele><time>2026-05-02T09:51:45.78Z</time></trkpt><trkpt lat="38.8632414" lon="21.0798523"><ele>19.5</ele><time>2026-05-02T09:51:46.783Z</time></trkpt><trkpt lat="38.8631205" lon="21.0801725"><ele>13.0</ele><time>2026-05-02T09:51:47.782Z</time></trkpt><trkpt lat="38.862989" lon="21.0804739"><ele>13.0</ele><time>2026-05-02T09:51:48.781Z</time></trkpt><trkpt lat="38.8628594" lon="21.080765"><ele>13.0</ele><time>2026-05-02T09:51:49.782Z</time></trkpt><trkpt lat="38.8627318" lon="21.081031"><ele>19.0</ele><time>2026-05-02T09:51:50.783Z</time></trkpt><trkpt lat="38.8626103" lon="21.0812936"><ele>25.0</ele><time>2026-05-02T09:51:51.781Z</time></trkpt><trkpt lat="38.8624884" lon="21.0815382"><ele>20.0</ele><time>2026-05-02T09:51:52.78Z</time></trkpt><trkpt lat="38.8623851" lon="21.0817534"><ele>15.0</ele><time>2026-05-02T09:51:53.782Z</time></trkpt><trkpt lat="38.8623013" lon="21.0819569"><ele>10.0</ele><time>2026-05-02T09:51:54.782Z</time></trkpt><trkpt lat="38.8622305" lon="21.0821501"><ele>10.0</ele><time>2026-05-02T09:51:55.782Z</time></trkpt><trkpt lat="38.8621845" lon="21.0823476"><ele>10.0</ele><time>2026-05-02T09:51:56.78Z</time></trkpt><trkpt lat="38.8621629" lon="21.0825554"><ele>10.0</ele><time>2026-05-02T09:51:57.783Z</time></trkpt><trkpt lat="38.8621708" lon="21.0827709"><ele>9.666666666666668</ele><time>2026-05-02T09:51:58.783Z</time></trkpt><trkpt lat="38.8622101" lon="21.0829736"><ele>9.333333333333334</ele><time>2026-05-02T09:51:59.783Z</time></trkpt><trkpt lat="38.8622757" lon="21.0831627"><ele>9.0</ele><time>2026-05-02T09:52:00.783Z</time></trkpt><trkpt lat="38.8623678" lon="21.0833408"><ele>9.0</ele><time>2026-05-02T09:52:01.781Z</time></trkpt><trkpt lat="38.8624807" lon="21.0834903"><ele>9.0</ele><time>2026-05-02T09:52:02.783Z</time></trkpt><trkpt lat="38.8626193" lon="21.0836166"><ele>9.0</ele><time>2026-05-02T09:52:03.783Z</time></trkpt><trkpt lat="38.8627765" lon="21.0837138"><ele>11.0</ele><time>2026-05-02T09:52:04.783Z</time></trkpt><trkpt lat="38.8629602" lon="21.0837691"><ele>13.0</ele><time>2026-05-02T09:52:05.782Z</time></trkpt><trkpt lat="38.8631735" lon="21.0837999"><ele>15.0</ele><time>2026-05-02T09:52:06.785Z</time></trkpt><trkpt lat="38.8634309" lon="21.0838018"><ele>18.0</ele><time>2026-05-02T09:52:07.784Z</time></trkpt><trkpt lat="38.8637051" lon="21.0838017"><ele>21.0</ele><time>2026-05-02T09:52:08.784Z</time></trkpt><trkpt lat="38.8640035" lon="21.0837927"><ele>20.5</ele><time>2026-05-02T09:52:09.784Z</time></trkpt><trkpt lat="38.8643279" lon="21.0837958"><ele>20.0</ele><time>2026-05-02T09:52:10.782Z</time></trkpt><trkpt lat="38.864639" lon="21.0837893"><ele>20.0</ele><time>2026-05-02T09:52:11.783Z</time></trkpt><trkpt lat="38.8649158" lon="21.0837757"><ele>20.0</ele><time>2026-05-02T09:52:12.784Z</time></trkpt><trkpt lat="38.8651837" lon="21.0837676"><ele>24.0</ele><time>2026-05-02T09:52:13.782Z</time></trkpt><trkpt lat="38.8654558" lon="21.0837599"><ele>28.0</ele><time>2026-05-02T09:52:14.781Z</time></trkpt><trkpt lat="38.8657332" lon="21.0837586"><ele>31.0</ele><time>2026-05-02T09:52:15.785Z</time></trkpt><trkpt lat="38.8660251" lon="21.0837735"><ele>34.0</ele><time>2026-05-02T09:52:16.783Z</time></trkpt><trkpt lat="38.8663269" lon="21.0837958"><ele>34.0</ele><time>2026-05-02T09:52:17.784Z</time></trkpt><trkpt lat="38.8666005" lon="21.0838282"><ele>34.0</ele><time>2026-05-02T09:52:18.783Z</time></trkpt><trkpt lat="38.866849" lon="21.0838621"><ele>35.0</ele><time>2026-05-02T09:52:19.783Z</time></trkpt><trkpt lat="38.8670839" lon="21.0838963"><ele>36.0</ele><time>2026-05-02T09:52:20.783Z</time></trkpt><trkpt lat="38.867298" lon="21.0839413"><ele>36.0</ele><time>2026-05-02T09:52:21.784Z</time></trkpt><trkpt lat="38.8674996" lon="21.0839705"><ele>36.0</ele><time>2026-05-02T09:52:22.782Z</time></trkpt><trkpt lat="38.8676778" lon="21.0839912"><ele>36.0</ele><time>2026-05-02T09:52:23.784Z</time></trkpt><trkpt lat="38.8678602" lon="21.0839713"><ele>40.66666666666667</ele><time>2026-05-02T09:52:24.783Z</time></trkpt><trkpt lat="38.8680421" lon="21.0839158"><ele>45.333333333333336</ele><time>2026-05-02T09:52:25.784Z</time></trkpt><trkpt lat="38.868235" lon="21.0838178"><ele>50.0</ele><time>2026-05-02T09:52:26.783Z</time></trkpt><trkpt lat="38.8684279" lon="21.0836984"><ele>56.333333333333336</ele><time>2026-05-02T09:52:27.783Z</time></trkpt><trkpt lat="38.8686056" lon="21.0835911"><ele>62.66666666666667</ele><time>2026-05-02T09:52:28.783Z</time></trkpt><trkpt lat="38.868771" lon="21.0834858"><ele>69.0</ele><time>2026-05-02T09:52:29.784Z</time></trkpt><trkpt lat="38.8689469" lon="21.0834124"><ele>69.0</ele><time>2026-05-02T09:52:30.781Z</time></trkpt><trkpt lat="38.8691511" lon="21.0833858"><ele>69.0</ele><time>2026-05-02T09:52:31.782Z</time></trkpt><trkpt lat="38.869375" lon="21.0833907"><ele>69.0</ele><time>2026-05-02T09:52:32.784Z</time></trkpt><trkpt lat="38.8696228" lon="21.0834347"><ele>70.5</ele><time>2026-05-02T09:52:33.782Z</time></trkpt><trkpt lat="38.869898" lon="21.08348"><ele>72.0</ele><time>2026-05-02T09:52:34.782Z</time></trkpt><trkpt lat="38.8701967" lon="21.0835299"><ele>72.0</ele><time>2026-05-02T09:52:35.783Z</time></trkpt><trkpt lat="38.8705176" lon="21.083583"><ele>72.0</ele><time>2026-05-02T09:52:36.782Z</time></trkpt><trkpt lat="38.8708231" lon="21.0836367"><ele>72.0</ele><time>2026-05-02T09:52:37.783Z</time></trkpt><trkpt lat="38.871113" lon="21.083691"><ele>72.0</ele><time>2026-05-02T09:52:38.781Z</time></trkpt><trkpt lat="38.8713774" lon="21.0837338"><ele>72.0</ele><time>2026-05-02T09:52:39.784Z</time></trkpt><trkpt lat="38.8716237" lon="21.0837781"><ele>72.0</ele><time>2026-05-02T09:52:40.78Z</time></trkpt><trkpt lat="38.871844" lon="21.0838132"><ele>75.33333333333333</ele><time>2026-05-02T09:52:41.781Z</time></trkpt><trkpt lat="38.8720434" lon="21.0838423"><ele>78.66666666666666</ele><time>2026-05-02T09:52:42.782Z</time></trkpt><trkpt lat="38.8722236" lon="21.0838844"><ele>82.0</ele><time>2026-05-02T09:52:43.783Z</time></trkpt><trkpt lat="38.8723839" lon="21.0839383"><ele>82.0</ele><time>2026-05-02T09:52:44.782Z</time></trkpt><trkpt lat="38.8725377" lon="21.0840313"><ele>82.0</ele><time>2026-05-02T09:52:45.784Z</time></trkpt><trkpt lat="38.8726995" lon="21.084156"><ele>82.0</ele><time>2026-05-02T09:52:46.783Z</time></trkpt><trkpt lat="38.8728572" lon="21.0843108"><ele>85.33333333333333</ele><time>2026-05-02T09:52:47.785Z</time></trkpt><trkpt lat="38.8730046" lon="21.0844855"><ele>88.66666666666667</ele><time>2026-05-02T09:52:48.783Z</time></trkpt><trkpt lat="38.8731463" lon="21.0846506"><ele>92.0</ele><time>2026-05-02T09:52:49.784Z</time></trkpt><trkpt lat="38.8732767" lon="21.0848109"><ele>93.66666666666667</ele><time>2026-05-02T09:52:50.784Z</time></trkpt><trkpt lat="38.8733901" lon="21.0849736"><ele>95.33333333333334</ele><time>2026-05-02T09:52:51.782Z</time></trkpt><trkpt lat="38.8734922" lon="21.0851366"><ele>97.0</ele><time>2026-05-02T09:52:52.784Z</time></trkpt><trkpt lat="38.8735733" lon="21.0852991"><ele>97.0</ele><time>2026-05-02T09:52:53.783Z</time></trkpt><trkpt lat="38.8736545" lon="21.0854786"><ele>97.0</ele><time>2026-05-02T09:52:54.782Z</time></trkpt><trkpt lat="38.8737069" lon="21.0856738"><ele>97.0</ele><time>2026-05-02T09:52:55.782Z</time></trkpt><trkpt lat="38.8737469" lon="21.0858782"><ele>97.66666666666667</ele><time>2026-05-02T09:52:56.785Z</time></trkpt><trkpt lat="38.8737664" lon="21.0861023"><ele>98.33333333333334</ele><time>2026-05-02T09:52:57.782Z</time></trkpt><trkpt lat="38.8737612" lon="21.086329"><ele>99.0</ele><time>2026-05-02T09:52:58.784Z</time></trkpt><trkpt lat="38.8737287" lon="21.0865801"><ele>96.5</ele><time>2026-05-02T09:52:59.782Z</time></trkpt><trkpt lat="38.8736805" lon="21.0868529"><ele>94.0</ele><time>2026-05-02T09:53:00.783Z</time></trkpt><trkpt lat="38.8736163" lon="21.0871544"><ele>90.5</ele><time>2026-05-02T09:53:01.783Z</time></trkpt><trkpt lat="38.8735249" lon="21.0874778"><ele>87.0</ele><time>2026-05-02T09:53:02.784Z</time></trkpt><trkpt lat="38.8733917" lon="21.087855"><ele>94.5</ele><time>2026-05-02T09:53:03.785Z</time></trkpt><trkpt lat="38.8732745" lon="21.0882371"><ele>102.0</ele><time>2026-05-02T09:53:04.782Z</time></trkpt><trkpt lat="38.8731594" lon="21.0886377"><ele>102.0</ele><time>2026-05-02T09:53:05.782Z</time></trkpt><trkpt lat="38.8730436" lon="21.0890034"><ele>102.0</ele><time>2026-05-02T09:53:06.78Z</time></trkpt><trkpt lat="38.8729286" lon="21.0893503"><ele>95.5</ele><time>2026-05-02T09:53:07.782Z</time></trkpt><trkpt lat="38.8728192" lon="21.0896945"><ele>89.0</ele><time>2026-05-02T09:53:08.782Z</time></trkpt><trkpt lat="38.8727132" lon="21.0900428"><ele>96.0</ele><time>2026-05-02T09:53:09.784Z</time></trkpt><trkpt lat="38.8726008" lon="21.0903609"><ele>103.0</ele><time>2026-05-02T09:53:10.783Z</time></trkpt><trkpt lat="38.8724957" lon="21.0906683"><ele>99.5</ele><time>2026-05-02T09:53:11.783Z</time></trkpt><trkpt lat="38.8724018" lon="21.0909692"><ele>96.0</ele><time>2026-05-02T09:53:12.784Z</time></trkpt><trkpt lat="38.872311" lon="21.0912717"><ele>96.0</ele><time>2026-05-02T09:53:13.783Z</time></trkpt><trkpt lat="38.872222" lon="21.0915603"><ele>96.0</ele><time>2026-05-02T09:53:14.783Z</time></trkpt><trkpt lat="38.8721377" lon="21.0918299"><ele>95.0</ele><time>2026-05-02T09:53:15.784Z</time></trkpt><trkpt lat="38.8720599" lon="21.0920905"><ele>94.0</ele><time>2026-05-02T09:53:16.783Z</time></trkpt><trkpt lat="38.8719879" lon="21.0923533"><ele>93.0</ele><time>2026-05-02T09:53:17.783Z</time></trkpt><trkpt lat="38.8719279" lon="21.0926176"><ele>91.66666666666667</ele><time>2026-05-02T09:53:18.782Z</time></trkpt><trkpt lat="38.8718887" lon="21.092865"><ele>90.33333333333334</ele><time>2026-05-02T09:53:19.783Z</time></trkpt><trkpt lat="38.8718671" lon="21.0931165"><ele>89.0</ele><time>2026-05-02T09:53:20.783Z</time></trkpt><trkpt lat="38.8718647" lon="21.0933648"><ele>88.66666666666667</ele><time>2026-05-02T09:53:21.784Z</time></trkpt><trkpt lat="38.8718806" lon="21.0936127"><ele>88.33333333333333</ele><time>2026-05-02T09:53:22.782Z</time></trkpt><trkpt lat="38.8719363" lon="21.0938718"><ele>88.0</ele><time>2026-05-02T09:53:23.784Z</time></trkpt><trkpt lat="38.8720067" lon="21.0941377"><ele>91.0</ele><time>2026-05-02T09:53:24.782Z</time></trkpt><trkpt lat="38.8720974" lon="21.0944253"><ele>94.0</ele><time>2026-05-02T09:53:25.783Z</time></trkpt><trkpt lat="38.8721874" lon="21.0947142"><ele>98.5</ele><time>2026-05-02T09:53:26.781Z</time></trkpt><trkpt lat="38.8722805" lon="21.0949898"><ele>103.0</ele><time>2026-05-02T09:53:27.782Z</time></trkpt><trkpt lat="38.8723911" lon="21.0952465"><ele>103.0</ele><time>2026-05-02T09:53:28.782Z</time></trkpt><trkpt lat="38.8725051" lon="21.0954946"><ele>103.0</ele><time>2026-05-02T09:53:29.78Z</time></trkpt><trkpt lat="38.8726187" lon="21.0957132"><ele>103.0</ele><time>2026-05-02T09:53:30.781Z</time></trkpt><trkpt lat="38.8727399" lon="21.0959044"><ele>102.0</ele><time>2026-05-02T09:53:31.782Z</time></trkpt><trkpt lat="38.8728754" lon="21.0960734"><ele>101.0</ele><time>2026-05-02T09:53:32.782Z</time></trkpt><trkpt lat="38.8730193" lon="21.0962242"><ele>100.0</ele><time>2026-05-02T09:53:33.781Z</time></trkpt><trkpt lat="38.8731796" lon="21.0963571"><ele>100.0</ele><time>2026-05-02T09:53:34.782Z</time></trkpt><trkpt lat="38.8733539" lon="21.0964729"><ele>100.0</ele><time>2026-05-02T09:53:35.785Z</time></trkpt><trkpt lat="38.8735294" lon="21.0965645"><ele>100.0</ele><time>2026-05-02T09:53:36.783Z</time></trkpt><trkpt lat="38.8737248" lon="21.0966314"><ele>103.0</ele><time>2026-05-02T09:53:37.782Z</time></trkpt><trkpt lat="38.8739564" lon="21.0966688"><ele>106.0</ele><time>2026-05-02T09:53:38.784Z</time></trkpt><trkpt lat="38.8742114" lon="21.0966884"><ele>109.0</ele><time>2026-05-02T09:53:39.784Z</time></trkpt><trkpt lat="38.8744891" lon="21.0966857"><ele>112.0</ele><time>2026-05-02T09:53:40.786Z</time></trkpt><trkpt lat="38.8747919" lon="21.0966749"><ele>112.0</ele><time>2026-05-02T09:53:41.781Z</time></trkpt><trkpt lat="38.8750864" lon="21.0966506"><ele>112.0</ele><time>2026-05-02T09:53:42.781Z</time></trkpt><trkpt lat="38.8753499" lon="21.0966359"><ele>116.0</ele><time>2026-05-02T09:53:43.781Z</time></trkpt><trkpt lat="38.8756034" lon="21.0966275"><ele>120.0</ele><time>2026-05-02T09:53:44.781Z</time></trkpt><trkpt lat="38.8758534" lon="21.0966168"><ele>120.5</ele><time>2026-05-02T09:53:45.784Z</time></trkpt><trkpt lat="38.876105" lon="21.0966006"><ele>121.0</ele><time>2026-05-02T09:53:46.783Z</time></trkpt><trkpt lat="38.8763516" lon="21.0965791"><ele>109.0</ele><time>2026-05-02T09:53:47.785Z</time></trkpt><trkpt lat="38.8765929" lon="21.0965658"><ele>97.0</ele><time>2026-05-02T09:53:48.781Z</time></trkpt><trkpt lat="38.8768332" lon="21.0965675"><ele>97.0</ele><time>2026-05-02T09:53:49.783Z</time></trkpt><trkpt lat="38.8770738" lon="21.0965714"><ele>97.0</ele><time>2026-05-02T09:53:50.782Z</time></trkpt><trkpt lat="38.8773097" lon="21.0965788"><ele>107.0</ele><time>2026-05-02T09:53:51.784Z</time></trkpt><trkpt lat="38.8775448" lon="21.0965877"><ele>117.0</ele><time>2026-05-02T09:53:52.784Z</time></trkpt><trkpt lat="38.8777767" lon="21.0966073"><ele>117.0</ele><time>2026-05-02T09:53:53.784Z</time></trkpt><trkpt lat="38.878009" lon="21.0966391"><ele>117.0</ele><time>2026-05-02T09:53:54.783Z</time></trkpt><trkpt lat="38.8782403" lon="21.0966822"><ele>115.0</ele><time>2026-05-02T09:53:55.783Z</time></trkpt><trkpt lat="38.8784702" lon="21.0967401"><ele>113.0</ele><time>2026-05-02T09:53:56.783Z</time></trkpt><trkpt lat="38.8787081" lon="21.0967915"><ele>113.0</ele><time>2026-05-02T09:53:57.781Z</time></trkpt><trkpt lat="38.8789567" lon="21.0968495"><ele>113.0</ele><time>2026-05-02T09:53:58.781Z</time></trkpt><trkpt lat="38.8792156" lon="21.0969099"><ele>111.0</ele><time>2026-05-02T09:53:59.783Z</time></trkpt><trkpt lat="38.879477" lon="21.0969707"><ele>109.0</ele><time>2026-05-02T09:54:00.785Z</time></trkpt><trkpt lat="38.8797383" lon="21.0970246"><ele>109.0</ele><time>2026-05-02T09:54:01.782Z</time></trkpt><trkpt lat="38.8799984" lon="21.0970848"><ele>109.0</ele><time>2026-05-02T09:54:02.782Z</time></trkpt><trkpt lat="38.8802515" lon="21.0971409"><ele>108.5</ele><time>2026-05-02T09:54:03.781Z</time></trkpt><trkpt lat="38.8805088" lon="21.0971998"><ele>108.0</ele><time>2026-05-02T09:54:04.782Z</time></trkpt><trkpt lat="38.8807692" lon="21.0972497"><ele>107.5</ele><time>2026-05-02T09:54:05.783Z</time></trkpt><trkpt lat="38.8810343" lon="21.097302"><ele>107.0</ele><time>2026-05-02T09:54:06.784Z</time></trkpt><trkpt lat="38.8812923" lon="21.0973542"><ele>107.0</ele><time>2026-05-02T09:54:07.783Z</time></trkpt><trkpt lat="38.8815516" lon="21.0974152"><ele>107.0</ele><time>2026-05-02T09:54:08.782Z</time></trkpt><trkpt lat="38.8818194" lon="21.0974729"><ele>113.0</ele><time>2026-05-02T09:54:09.784Z</time></trkpt><trkpt lat="38.882086" lon="21.0975367"><ele>119.0</ele><time>2026-05-02T09:54:10.784Z</time></trkpt><trkpt lat="38.8823494" lon="21.0976013"><ele>117.0</ele><time>2026-05-02T09:54:11.783Z</time></trkpt><trkpt lat="38.8826068" lon="21.0976594"><ele>115.0</ele><time>2026-05-02T09:54:12.784Z</time></trkpt><trkpt lat="38.8828532" lon="21.0977185"><ele>115.0</ele><time>2026-05-02T09:54:13.782Z</time></trkpt><trkpt lat="38.8830916" lon="21.097781"><ele>115.0</ele><time>2026-05-02T09:54:14.78Z</time></trkpt><trkpt lat="38.8833212" lon="21.0978494"><ele>112.0</ele><time>2026-05-02T09:54:15.783Z</time></trkpt><trkpt lat="38.8835439" lon="21.0979207"><ele>109.0</ele><time>2026-05-02T09:54:16.783Z</time></trkpt><trkpt lat="38.8837642" lon="21.0979999"><ele>109.0</ele><time>2026-05-02T09:54:17.784Z</time></trkpt><trkpt lat="38.8839866" lon="21.0980871"><ele>109.0</ele><time>2026-05-02T09:54:18.784Z</time></trkpt><trkpt lat="38.8842158" lon="21.098172"><ele>111.0</ele><time>2026-05-02T09:54:19.786Z</time></trkpt><trkpt lat="38.8844428" lon="21.0982777"><ele>113.0</ele><time>2026-05-02T09:54:20.782Z</time></trkpt><trkpt lat="38.8846739" lon="21.0983958"><ele>113.0</ele><time>2026-05-02T09:54:21.783Z</time></trkpt><trkpt lat="38.8849071" lon="21.0985158"><ele>113.0</ele><time>2026-05-02T09:54:22.781Z</time></trkpt><trkpt lat="38.8851407" lon="21.098638"><ele>108.5</ele><time>2026-05-02T09:54:23.784Z</time></trkpt><trkpt lat="38.8853743" lon="21.0987668"><ele>104.0</ele><time>2026-05-02T09:54:24.782Z</time></trkpt><trkpt lat="38.8856044" lon="21.0988948"><ele>104.0</ele><time>2026-05-02T09:54:25.784Z</time></trkpt><trkpt lat="38.885838" lon="21.0990216"><ele>104.0</ele><time>2026-05-02T09:54:26.783Z</time></trkpt><trkpt lat="38.8860684" lon="21.0991473"><ele>104.5</ele><time>2026-05-02T09:54:27.781Z</time></trkpt><trkpt lat="38.8862993" lon="21.0992862"><ele>105.0</ele><time>2026-05-02T09:54:28.781Z</time></trkpt><trkpt lat="38.8865294" lon="21.0994159"><ele>101.5</ele><time>2026-05-02T09:54:29.78Z</time></trkpt><trkpt lat="38.8867634" lon="21.0995336"><ele>98.0</ele><time>2026-05-02T09:54:30.783Z</time></trkpt><trkpt lat="38.886999" lon="21.0996503"><ele>98.0</ele><time>2026-05-02T09:54:31.784Z</time></trkpt><trkpt lat="38.8872326" lon="21.0997637"><ele>98.0</ele><time>2026-05-02T09:54:32.783Z</time></trkpt><trkpt lat="38.8874688" lon="21.0998695"><ele>107.5</ele><time>2026-05-02T09:54:33.784Z</time></trkpt><trkpt lat="38.8877111" lon="21.0999468"><ele>117.0</ele><time>2026-05-02T09:54:34.783Z</time></trkpt><trkpt lat="38.8879576" lon="21.1000148"><ele>117.0</ele><time>2026-05-02T09:54:35.782Z</time></trkpt><trkpt lat="38.8882098" lon="21.1000645"><ele>117.0</ele><time>2026-05-02T09:54:36.783Z</time></trkpt><trkpt lat="38.8884671" lon="21.1000989"><ele>117.0</ele><time>2026-05-02T09:54:37.782Z</time></trkpt><trkpt lat="38.8887196" lon="21.1001201"><ele>117.0</ele><time>2026-05-02T09:54:38.783Z</time></trkpt><trkpt lat="38.8889699" lon="21.100135"><ele>117.0</ele><time>2026-05-02T09:54:39.781Z</time></trkpt><trkpt lat="38.8892104" lon="21.1001438"><ele>117.0</ele><time>2026-05-02T09:54:40.784Z</time></trkpt><trkpt lat="38.8894536" lon="21.1001434"><ele>113.5</ele><time>2026-05-02T09:54:41.786Z</time></trkpt><trkpt lat="38.8896962" lon="21.100146"><ele>110.0</ele><time>2026-05-02T09:54:42.781Z</time></trkpt><trkpt lat="38.8899438" lon="21.1001458"><ele>109.0</ele><time>2026-05-02T09:54:43.784Z</time></trkpt><trkpt lat="38.8901919" lon="21.100154"><ele>108.0</ele><time>2026-05-02T09:54:44.782Z</time></trkpt><trkpt lat="38.8904432" lon="21.1001651"><ele>108.0</ele><time>2026-05-02T09:54:45.782Z</time></trkpt><trkpt lat="38.8906928" lon="21.10017"><ele>108.0</ele><time>2026-05-02T09:54:46.783Z</time></trkpt><trkpt lat="38.8909392" lon="21.1001768"><ele>109.0</ele><time>2026-05-02T09:54:47.784Z</time></trkpt><trkpt lat="38.8911871" lon="21.1001823"><ele>110.0</ele><time>2026-05-02T09:54:48.781Z</time></trkpt><trkpt lat="38.8914305" lon="21.1001918"><ele>110.0</ele><time>2026-05-02T09:54:49.781Z</time></trkpt><trkpt lat="38.891677" lon="21.1002012"><ele>110.0</ele><time>2026-05-02T09:54:50.782Z</time></trkpt><trkpt lat="38.8919235" lon="21.1002123"><ele>110.0</ele><time>2026-05-02T09:54:51.784Z</time></trkpt><trkpt lat="38.8921705" lon="21.1002223"><ele>110.0</ele><time>2026-05-02T09:54:52.781Z</time></trkpt><trkpt lat="38.8924201" lon="21.1002259"><ele>108.5</ele><time>2026-05-02T09:54:53.781Z</time></trkpt><trkpt lat="38.8926672" lon="21.1002311"><ele>107.0</ele><time>2026-05-02T09:54:54.783Z</time></trkpt><trkpt lat="38.8929152" lon="21.100245"><ele>107.0</ele><time>2026-05-02T09:54:55.78Z</time></trkpt><trkpt lat="38.8931638" lon="21.1002516"><ele>107.0</ele><time>2026-05-02T09:54:56.781Z</time></trkpt><trkpt lat="38.8934081" lon="21.1002631"><ele>106.0</ele><time>2026-05-02T09:54:57.779Z</time></trkpt><trkpt lat="38.893653" lon="21.1002672"><ele>105.0</ele><time>2026-05-02T09:54:58.783Z</time></trkpt><trkpt lat="38.8938941" lon="21.1002728"><ele>105.0</ele><time>2026-05-02T09:54:59.783Z</time></trkpt><trkpt lat="38.8941362" lon="21.1002749"><ele>105.0</ele><time>2026-05-02T09:55:00.783Z</time></trkpt><trkpt lat="38.8943638" lon="21.1002829"><ele>105.5</ele><time>2026-05-02T09:55:01.781Z</time></trkpt><trkpt lat="38.8945935" lon="21.100291"><ele>106.0</ele><time>2026-05-02T09:55:02.781Z</time></trkpt><trkpt lat="38.8948166" lon="21.1002995"><ele>106.0</ele><time>2026-05-02T09:55:03.781Z</time></trkpt><trkpt lat="38.8950349" lon="21.1003134"><ele>106.0</ele><time>2026-05-02T09:55:04.782Z</time></trkpt><trkpt lat="38.8952495" lon="21.1003222"><ele>106.0</ele><time>2026-05-02T09:55:05.781Z</time></trkpt><trkpt lat="38.8954572" lon="21.1003279"><ele>105.66666666666667</ele><time>2026-05-02T09:55:06.783Z</time></trkpt><trkpt lat="38.8956552" lon="21.1003449"><ele>105.33333333333334</ele><time>2026-05-02T09:55:07.782Z</time></trkpt><trkpt lat="38.8958549" lon="21.1003801"><ele>105.0</ele><time>2026-05-02T09:55:08.782Z</time></trkpt><trkpt lat="38.8960398" lon="21.100436"><ele>100.66666666666667</ele><time>2026-05-02T09:55:09.779Z</time></trkpt><trkpt lat="38.89622" lon="21.1005113"><ele>96.33333333333334</ele><time>2026-05-02T09:55:10.781Z</time></trkpt><trkpt lat="38.8963894" lon="21.1006167"><ele>92.0</ele><time>2026-05-02T09:55:11.781Z</time></trkpt><trkpt lat="38.8965626" lon="21.1007432"><ele>94.66666666666667</ele><time>2026-05-02T09:55:12.783Z</time></trkpt><trkpt lat="38.8967356" lon="21.1008988"><ele>97.33333333333334</ele><time>2026-05-02T09:55:13.783Z</time></trkpt><trkpt lat="38.8969127" lon="21.1010826"><ele>100.0</ele><time>2026-05-02T09:55:14.783Z</time></trkpt><trkpt lat="38.8970966" lon="21.1012835"><ele>100.0</ele><time>2026-05-02T09:55:15.783Z</time></trkpt><trkpt lat="38.8972871" lon="21.1014867"><ele>100.0</ele><time>2026-05-02T09:55:16.782Z</time></trkpt><trkpt lat="38.8974761" lon="21.1017001"><ele>106.5</ele><time>2026-05-02T09:55:17.781Z</time></trkpt><trkpt lat="38.8976554" lon="21.1019014"><ele>113.0</ele><time>2026-05-02T09:55:18.782Z</time></trkpt><trkpt lat="38.8978349" lon="21.1020989"><ele>113.0</ele><time>2026-05-02T09:55:19.781Z</time></trkpt><trkpt lat="38.8980077" lon="21.1022923"><ele>113.0</ele><time>2026-05-02T09:55:20.782Z</time></trkpt><trkpt lat="38.898174" lon="21.1024786"><ele>111.33333333333333</ele><time>2026-05-02T09:55:21.784Z</time></trkpt><trkpt lat="38.8983315" lon="21.1026556"><ele>109.66666666666666</ele><time>2026-05-02T09:55:22.782Z</time></trkpt><trkpt lat="38.8984766" lon="21.1028179"><ele>108.0</ele><time>2026-05-02T09:55:23.782Z</time></trkpt><trkpt lat="38.898609" lon="21.1029604"><ele>107.33333333333334</ele><time>2026-05-02T09:55:24.781Z</time></trkpt><trkpt lat="38.8987344" lon="21.1030865"><ele>106.66666666666667</ele><time>2026-05-02T09:55:25.783Z</time></trkpt><trkpt lat="38.8988661" lon="21.1031824"><ele>106.0</ele><time>2026-05-02T09:55:26.781Z</time></trkpt><trkpt lat="38.8989987" lon="21.1032594"><ele>104.0</ele><time>2026-05-02T09:55:27.783Z</time></trkpt><trkpt lat="38.8991423" lon="21.1032994"><ele>102.0</ele><time>2026-05-02T09:55:28.783Z</time></trkpt><trkpt lat="38.8993038" lon="21.1033011"><ele>100.0</ele><time>2026-05-02T09:55:29.783Z</time></trkpt><trkpt lat="38.8994717" lon="21.1032571"><ele>99.0</ele><time>2026-05-02T09:55:30.784Z</time></trkpt><trkpt lat="38.8996398" lon="21.1031731"><ele>98.0</ele><time>2026-05-02T09:55:31.785Z</time></trkpt><trkpt lat="38.8998104" lon="21.1030784"><ele>97.0</ele><time>2026-05-02T09:55:32.784Z</time></trkpt><trkpt lat="38.899973" lon="21.1029766"><ele>93.66666666666667</ele><time>2026-05-02T09:55:33.783Z</time></trkpt><trkpt lat="38.9001266" lon="21.1028747"><ele>90.33333333333334</ele><time>2026-05-02T09:55:34.78Z</time></trkpt><trkpt lat="38.9002882" lon="21.1028117"><ele>87.0</ele><time>2026-05-02T09:55:35.783Z</time></trkpt><trkpt lat="38.9004467" lon="21.1027891"><ele>87.0</ele><time>2026-05-02T09:55:36.782Z</time></trkpt><trkpt lat="38.9006038" lon="21.1028079"><ele>87.0</ele><time>2026-05-02T09:55:37.781Z</time></trkpt><trkpt lat="38.9007524" lon="21.1028596"><ele>87.0</ele><time>2026-05-02T09:55:38.782Z</time></trkpt><trkpt lat="38.9009028" lon="21.1029666"><ele>84.33333333333333</ele><time>2026-05-02T09:55:39.784Z</time></trkpt><trkpt lat="38.9010497" lon="21.103116"><ele>81.66666666666666</ele><time>2026-05-02T09:55:40.782Z</time></trkpt><trkpt lat="38.9011915" lon="21.1033025"><ele>79.0</ele><time>2026-05-02T09:55:41.78Z</time></trkpt><trkpt lat="38.9013198" lon="21.1034902"><ele>79.0</ele><time>2026-05-02T09:55:42.781Z</time></trkpt><trkpt lat="38.9014383" lon="21.1036648"><ele>79.0</ele><time>2026-05-02T09:55:43.783Z</time></trkpt><trkpt lat="38.9015497" lon="21.1038324"><ele>79.0</ele><time>2026-05-02T09:55:44.781Z</time></trkpt><trkpt lat="38.9016517" lon="21.104007"><ele>79.66666666666666</ele><time>2026-05-02T09:55:45.783Z</time></trkpt><trkpt lat="38.9017455" lon="21.1041739"><ele>80.33333333333333</ele><time>2026-05-02T09:55:46.784Z</time></trkpt><trkpt lat="38.9018189" lon="21.1043512"><ele>81.0</ele><time>2026-05-02T09:55:47.782Z</time></trkpt><trkpt lat="38.9018672" lon="21.1045392"><ele>75.66666666666667</ele><time>2026-05-02T09:55:48.783Z</time></trkpt><trkpt lat="38.9018799" lon="21.1047449"><ele>70.33333333333334</ele><time>2026-05-02T09:55:49.785Z</time></trkpt><trkpt lat="38.9018876" lon="21.1049379"><ele>65.0</ele><time>2026-05-02T09:55:50.783Z</time></trkpt><trkpt lat="38.9018981" lon="21.1051542"><ele>65.0</ele><time>2026-05-02T09:55:51.783Z</time></trkpt><trkpt lat="38.9019269" lon="21.1053741"><ele>65.0</ele><time>2026-05-02T09:55:52.782Z</time></trkpt><trkpt lat="38.9019746" lon="21.1055937"><ele>65.0</ele><time>2026-05-02T09:55:53.781Z</time></trkpt><trkpt lat="38.9020391" lon="21.105807"><ele>64.0</ele><time>2026-05-02T09:55:54.784Z</time></trkpt><trkpt lat="38.902107" lon="21.1060039"><ele>63.0</ele><time>2026-05-02T09:55:55.785Z</time></trkpt><trkpt lat="38.9021788" lon="21.1061897"><ele>62.0</ele><time>2026-05-02T09:55:56.78Z</time></trkpt><trkpt lat="38.9022331" lon="21.1063683"><ele>62.0</ele><time>2026-05-02T09:55:57.782Z</time></trkpt><trkpt lat="38.9022675" lon="21.106528"><ele>62.0</ele><time>2026-05-02T09:55:58.782Z</time></trkpt><trkpt lat="38.9022858" lon="21.1066776"><ele>62.0</ele><time>2026-05-02T09:55:59.785Z</time></trkpt><trkpt lat="38.9022759" lon="21.1068269"><ele>62.0</ele><time>2026-05-02T09:56:00.783Z</time></trkpt><trkpt lat="38.902247" lon="21.1069836"><ele>62.0</ele><time>2026-05-02T09:56:01.783Z</time></trkpt><trkpt lat="38.9021968" lon="21.1071489"><ele>62.0</ele><time>2026-05-02T09:56:02.784Z</time></trkpt><trkpt lat="38.9021547" lon="21.1073139"><ele>62.0</ele><time>2026-05-02T09:56:03.782Z</time></trkpt><trkpt lat="38.9021074" lon="21.1074758"><ele>62.0</ele><time>2026-05-02T09:56:04.782Z</time></trkpt><trkpt lat="38.9020789" lon="21.1076613"><ele>62.0</ele><time>2026-05-02T09:56:05.782Z</time></trkpt><trkpt lat="38.9020314" lon="21.1078378"><ele>62.0</ele><time>2026-05-02T09:56:06.78Z</time></trkpt><trkpt lat="38.9019829" lon="21.1080107"><ele>62.0</ele><time>2026-05-02T09:56:07.783Z</time></trkpt><trkpt lat="38.901935" lon="21.1081883"><ele>62.0</ele><time>2026-05-02T09:56:08.782Z</time></trkpt><trkpt lat="38.9018826" lon="21.1083697"><ele>61.333333333333336</ele><time>2026-05-02T09:56:09.782Z</time></trkpt><trkpt lat="38.901834" lon="21.1085522"><ele>60.66666666666667</ele><time>2026-05-02T09:56:10.783Z</time></trkpt><trkpt lat="38.9017762" lon="21.1087264"><ele>60.0</ele><time>2026-05-02T09:56:11.782Z</time></trkpt><trkpt lat="38.9017247" lon="21.1089129"><ele>60.0</ele><time>2026-05-02T09:56:12.782Z</time></trkpt><trkpt lat="38.9016763" lon="21.1091081"><ele>60.0</ele><time>2026-05-02T09:56:13.783Z</time></trkpt><trkpt lat="38.9016279" lon="21.1093059"><ele>60.0</ele><time>2026-05-02T09:56:14.781Z</time></trkpt><trkpt lat="38.9015746" lon="21.1095103"><ele>60.0</ele><time>2026-05-02T09:56:15.782Z</time></trkpt><trkpt lat="38.9015232" lon="21.1097207"><ele>60.0</ele><time>2026-05-02T09:56:16.783Z</time></trkpt><trkpt lat="38.9014724" lon="21.1099308"><ele>60.0</ele><time>2026-05-02T09:56:17.782Z</time></trkpt><trkpt lat="38.9014187" lon="21.1101431"><ele>59.33333333333333</ele><time>2026-05-02T09:56:18.781Z</time></trkpt><trkpt lat="38.9013608" lon="21.1103536"><ele>58.666666666666664</ele><time>2026-05-02T09:56:19.782Z</time></trkpt><trkpt lat="38.9013086" lon="21.110568"><ele>58.0</ele><time>2026-05-02T09:56:20.782Z</time></trkpt><trkpt lat="38.9012591" lon="21.1107887"><ele>56.666666666666664</ele><time>2026-05-02T09:56:21.784Z</time></trkpt><trkpt lat="38.9012052" lon="21.1110111"><ele>55.33333333333333</ele><time>2026-05-02T09:56:22.782Z</time></trkpt><trkpt lat="38.901151" lon="21.1112396"><ele>54.0</ele><time>2026-05-02T09:56:23.782Z</time></trkpt><trkpt lat="38.9010943" lon="21.1114646"><ele>53.0</ele><time>2026-05-02T09:56:24.783Z</time></trkpt><trkpt lat="38.9010367" lon="21.1116902"><ele>52.0</ele><time>2026-05-02T09:56:25.783Z</time></trkpt><trkpt lat="38.9009792" lon="21.1119175"><ele>51.0</ele><time>2026-05-02T09:56:26.784Z</time></trkpt><trkpt lat="38.9009218" lon="21.1121457"><ele>51.66666666666667</ele><time>2026-05-02T09:56:27.782Z</time></trkpt><trkpt lat="38.9008666" lon="21.1123876"><ele>52.333333333333336</ele><time>2026-05-02T09:56:28.783Z</time></trkpt><trkpt lat="38.9008044" lon="21.1126282"><ele>53.0</ele><time>2026-05-02T09:56:29.783Z</time></trkpt><trkpt lat="38.9007406" lon="21.1128761"><ele>53.0</ele><time>2026-05-02T09:56:30.781Z</time></trkpt><trkpt lat="38.9006814" lon="21.1131331"><ele>53.0</ele><time>2026-05-02T09:56:31.784Z</time></trkpt><trkpt lat="38.9006186" lon="21.1133839"><ele>53.0</ele><time>2026-05-02T09:56:32.782Z</time></trkpt><trkpt lat="38.9005524" lon="21.1136315"><ele>51.0</ele><time>2026-05-02T09:56:33.782Z</time></trkpt><trkpt lat="38.9004854" lon="21.1138818"><ele>49.0</ele><time>2026-05-02T09:56:34.785Z</time></trkpt><trkpt lat="38.9004124" lon="21.1141353"><ele>47.0</ele><time>2026-05-02T09:56:35.781Z</time></trkpt><trkpt lat="38.9003472" lon="21.1143914"><ele>45.33333333333333</ele><time>2026-05-02T09:56:36.782Z</time></trkpt><trkpt lat="38.90028" lon="21.1146433"><ele>43.666666666666664</ele><time>2026-05-02T09:56:37.781Z</time></trkpt><trkpt lat="38.9002156" lon="21.1148961"><ele>42.0</ele><time>2026-05-02T09:56:38.78Z</time></trkpt><trkpt lat="38.9001587" lon="21.1151529"><ele>41.333333333333336</ele><time>2026-05-02T09:56:39.781Z</time></trkpt><trkpt lat="38.9000909" lon="21.1154077"><ele>40.66666666666667</ele><time>2026-05-02T09:56:40.782Z</time></trkpt><trkpt lat="38.9000201" lon="21.1156661"><ele>40.0</ele><time>2026-05-02T09:56:41.782Z</time></trkpt><trkpt lat="38.89996" lon="21.1159276"><ele>40.0</ele><time>2026-05-02T09:56:42.783Z</time></trkpt><trkpt lat="38.8999001" lon="21.1161943"><ele>40.0</ele><time>2026-05-02T09:56:43.784Z</time></trkpt><trkpt lat="38.8998355" lon="21.1164426"><ele>40.0</ele><time>2026-05-02T09:56:44.783Z</time></trkpt><trkpt lat="38.8997682" lon="21.1167001"><ele>38.333333333333336</ele><time>2026-05-02T09:56:45.783Z</time></trkpt><trkpt lat="38.8997015" lon="21.1169575"><ele>36.666666666666664</ele><time>2026-05-02T09:56:46.78Z</time></trkpt><trkpt lat="38.8996384" lon="21.1172144"><ele>35.0</ele><time>2026-05-02T09:56:47.782Z</time></trkpt><trkpt lat="38.8995736" lon="21.1174669"><ele>34.0</ele><time>2026-05-02T09:56:48.781Z</time></trkpt><trkpt lat="38.8995102" lon="21.1177178"><ele>33.0</ele><time>2026-05-02T09:56:49.781Z</time></trkpt><trkpt lat="38.8994496" lon="21.1179833"><ele>32.0</ele><time>2026-05-02T09:56:50.781Z</time></trkpt><trkpt lat="38.899392" lon="21.1182333"><ele>31.0</ele><time>2026-05-02T09:56:51.782Z</time></trkpt><trkpt lat="38.8993334" lon="21.1184934"><ele>30.0</ele><time>2026-05-02T09:56:52.781Z</time></trkpt><trkpt lat="38.8992647" lon="21.118731"><ele>29.0</ele><time>2026-05-02T09:56:53.781Z</time></trkpt><trkpt lat="38.8992062" lon="21.1189712"><ele>30.0</ele><time>2026-05-02T09:56:54.781Z</time></trkpt><trkpt lat="38.899148" lon="21.1192037"><ele>31.0</ele><time>2026-05-02T09:56:55.785Z</time></trkpt><trkpt lat="38.899087" lon="21.1194359"><ele>32.0</ele><time>2026-05-02T09:56:56.781Z</time></trkpt><trkpt lat="38.899035" lon="21.1196679"><ele>32.0</ele><time>2026-05-02T09:56:57.785Z</time></trkpt><trkpt lat="38.8989741" lon="21.1198992"><ele>32.0</ele><time>2026-05-02T09:56:58.784Z</time></trkpt><trkpt lat="38.8989108" lon="21.1201308"><ele>32.0</ele><time>2026-05-02T09:56:59.782Z</time></trkpt><trkpt lat="38.8988525" lon="21.1203627"><ele>30.0</ele><time>2026-05-02T09:57:00.784Z</time></trkpt><trkpt lat="38.8987838" lon="21.1205876"><ele>28.0</ele><time>2026-05-02T09:57:01.783Z</time></trkpt><trkpt lat="38.8987089" lon="21.1208186"><ele>26.0</ele><time>2026-05-02T09:57:02.783Z</time></trkpt><trkpt lat="38.8986188" lon="21.1210499"><ele>26.333333333333332</ele><time>2026-05-02T09:57:03.779Z</time></trkpt><trkpt lat="38.8985269" lon="21.1212626"><ele>26.666666666666664</ele><time>2026-05-02T09:57:04.783Z</time></trkpt><trkpt lat="38.8984122" lon="21.1214863"><ele>27.0</ele><time>2026-05-02T09:57:05.783Z</time></trkpt><trkpt lat="38.8982796" lon="21.1216943"><ele>27.0</ele><time>2026-05-02T09:57:06.781Z</time></trkpt><trkpt lat="38.8981361" lon="21.1219078"><ele>27.0</ele><time>2026-05-02T09:57:07.781Z</time></trkpt><trkpt lat="38.8979836" lon="21.1221181"><ele>27.0</ele><time>2026-05-02T09:57:08.78Z</time></trkpt><trkpt lat="38.897829" lon="21.1223337"><ele>31.0</ele><time>2026-05-02T09:57:09.783Z</time></trkpt><trkpt lat="38.8976687" lon="21.1225477"><ele>35.0</ele><time>2026-05-02T09:57:10.782Z</time></trkpt><trkpt lat="38.8975106" lon="21.1227629"><ele>35.0</ele><time>2026-05-02T09:57:11.786Z</time></trkpt><trkpt lat="38.8973519" lon="21.1229774"><ele>35.0</ele><time>2026-05-02T09:57:12.783Z</time></trkpt><trkpt lat="38.8972033" lon="21.1231784"><ele>35.0</ele><time>2026-05-02T09:57:13.784Z</time></trkpt><trkpt lat="38.89706" lon="21.1233773"><ele>35.666666666666664</ele><time>2026-05-02T09:57:14.784Z</time></trkpt><trkpt lat="38.89692" lon="21.1235604"><ele>36.333333333333336</ele><time>2026-05-02T09:57:15.783Z</time></trkpt><trkpt lat="38.89679" lon="21.1237336"><ele>37.0</ele><time>2026-05-02T09:57:16.784Z</time></trkpt><trkpt lat="38.8966657" lon="21.1239086"><ele>31.666666666666668</ele><time>2026-05-02T09:57:17.784Z</time></trkpt><trkpt lat="38.8965617" lon="21.1240835"><ele>26.333333333333336</ele><time>2026-05-02T09:57:18.783Z</time></trkpt><trkpt lat="38.8964811" lon="21.1242793"><ele>21.0</ele><time>2026-05-02T09:57:19.781Z</time></trkpt><trkpt lat="38.8964316" lon="21.1244861"><ele>21.0</ele><time>2026-05-02T09:57:20.783Z</time></trkpt><trkpt lat="38.8964123" lon="21.1247037"><ele>21.0</ele><time>2026-05-02T09:57:21.782Z</time></trkpt><trkpt lat="38.8964279" lon="21.1249457"><ele>21.0</ele><time>2026-05-02T09:57:22.782Z</time></trkpt><trkpt lat="38.8964395" lon="21.1251638"><ele>18.333333333333332</ele><time>2026-05-02T09:57:23.784Z</time></trkpt><trkpt lat="38.8964452" lon="21.1253761"><ele>15.666666666666666</ele><time>2026-05-02T09:57:24.782Z</time></trkpt><trkpt lat="38.8964309" lon="21.1255902"><ele>13.0</ele><time>2026-05-02T09:57:25.784Z</time></trkpt><trkpt lat="38.8963902" lon="21.1258468"><ele>12.666666666666666</ele><time>2026-05-02T09:57:26.78Z</time></trkpt><trkpt lat="38.8962139" lon="21.1260047"><ele>12.333333333333332</ele><time>2026-05-02T09:57:27.782Z</time></trkpt><trkpt lat="38.8961006" lon="21.1261928"><ele>12.0</ele><time>2026-05-02T09:57:28.783Z</time></trkpt><trkpt lat="38.895999" lon="21.1263768"><ele>16.0</ele><time>2026-05-02T09:57:29.782Z</time></trkpt><trkpt lat="38.8959095" lon="21.1265561"><ele>20.0</ele><time>2026-05-02T09:57:30.783Z</time></trkpt><trkpt lat="38.8958488" lon="21.1267352"><ele>24.0</ele><time>2026-05-02T09:57:31.783Z</time></trkpt><trkpt lat="38.8958191" lon="21.1269306"><ele>24.0</ele><time>2026-05-02T09:57:32.782Z</time></trkpt><trkpt lat="38.8958359" lon="21.127122"><ele>24.0</ele><time>2026-05-02T09:57:33.781Z</time></trkpt><trkpt lat="38.8958969" lon="21.1273025"><ele>24.0</ele><time>2026-05-02T09:57:34.783Z</time></trkpt><trkpt lat="38.8960001" lon="21.1274829"><ele>15.0</ele><time>2026-05-02T09:57:35.784Z</time></trkpt><trkpt lat="38.8961645" lon="21.1276713"><ele>6.0</ele><time>2026-05-02T09:57:36.783Z</time></trkpt><trkpt lat="38.8963326" lon="21.1278835"><ele>6.0</ele><time>2026-05-02T09:57:37.781Z</time></trkpt><trkpt lat="38.8965166" lon="21.1280817"><ele>6.0</ele><time>2026-05-02T09:57:38.781Z</time></trkpt><trkpt lat="38.8966952" lon="21.1283062"><ele>4.666666666666667</ele><time>2026-05-02T09:57:39.782Z</time></trkpt><trkpt lat="38.8968731" lon="21.1284933"><ele>3.333333333333333</ele><time>2026-05-02T09:57:40.783Z</time></trkpt><trkpt lat="38.8970246" lon="21.1286905"><ele>2.0</ele><time>2026-05-02T09:57:41.784Z</time></trkpt><trkpt lat="38.8971575" lon="21.1288713"><ele>2.0</ele><time>2026-05-02T09:57:42.781Z</time></trkpt><trkpt lat="38.8972741" lon="21.1290525"><ele>2.0</ele><time>2026-05-02T09:57:43.783Z</time></trkpt><trkpt lat="38.8973592" lon="21.1292354"><ele>2.0</ele><time>2026-05-02T09:57:44.782Z</time></trkpt><trkpt lat="38.8974198" lon="21.1294208"><ele>3.0</ele><time>2026-05-02T09:57:45.782Z</time></trkpt><trkpt lat="38.8974524" lon="21.1296162"><ele>4.0</ele><time>2026-05-02T09:57:46.784Z</time></trkpt><trkpt lat="38.8974711" lon="21.1298227"><ele>5.0</ele><time>2026-05-02T09:57:47.784Z</time></trkpt><trkpt lat="38.8974707" lon="21.130024"><ele>5.0</ele><time>2026-05-02T09:57:48.782Z</time></trkpt><trkpt lat="38.8974179" lon="21.1302361"><ele>5.0</ele><time>2026-05-02T09:57:49.782Z</time></trkpt><trkpt lat="38.8973523" lon="21.1304435"><ele>5.0</ele><time>2026-05-02T09:57:50.782Z</time></trkpt><trkpt lat="38.8972199" lon="21.1306102"><ele>4.333333333333334</ele><time>2026-05-02T09:57:51.785Z</time></trkpt><trkpt lat="38.8970896" lon="21.1307594"><ele>3.666666666666667</ele><time>2026-05-02T09:57:52.783Z</time></trkpt><trkpt lat="38.8969331" lon="21.1308602"><ele>3.0</ele><time>2026-05-02T09:57:53.782Z</time></trkpt><trkpt lat="38.8967793" lon="21.1309446"><ele>6.666666666666667</ele><time>2026-05-02T09:57:54.784Z</time></trkpt><trkpt lat="38.896587" lon="21.1309532"><ele>10.333333333333334</ele><time>2026-05-02T09:57:55.781Z</time></trkpt><trkpt lat="38.8963768" lon="21.1309174"><ele>14.0</ele><time>2026-05-02T09:57:56.785Z</time></trkpt><trkpt lat="38.8961585" lon="21.1308751"><ele>14.0</ele><time>2026-05-02T09:57:57.78Z</time></trkpt><trkpt lat="38.8959578" lon="21.1308337"><ele>14.0</ele><time>2026-05-02T09:57:58.782Z</time></trkpt><trkpt lat="38.8957749" lon="21.1307923"><ele>14.0</ele><time>2026-05-02T09:57:59.782Z</time></trkpt><trkpt lat="38.895602" lon="21.1307643"><ele>13.333333333333334</ele><time>2026-05-02T09:58:00.783Z</time></trkpt><trkpt lat="38.8954258" lon="21.1307698"><ele>12.666666666666668</ele><time>2026-05-02T09:58:01.779Z</time></trkpt><trkpt lat="38.8952549" lon="21.1308249"><ele>12.0</ele><time>2026-05-02T09:58:02.781Z</time></trkpt><trkpt lat="38.8950764" lon="21.1309269"><ele>11.333333333333334</ele><time>2026-05-02T09:58:03.782Z</time></trkpt><trkpt lat="38.8949038" lon="21.1310743"><ele>10.666666666666668</ele><time>2026-05-02T09:58:04.783Z</time></trkpt><trkpt lat="38.8947398" lon="21.1312272"><ele>10.0</ele><time>2026-05-02T09:58:05.784Z</time></trkpt><trkpt lat="38.8945806" lon="21.1313911"><ele>10.0</ele><time>2026-05-02T09:58:06.781Z</time></trkpt><trkpt lat="38.8944464" lon="21.1315508"><ele>10.0</ele><time>2026-05-02T09:58:07.784Z</time></trkpt><trkpt lat="38.8943315" lon="21.1317119"><ele>10.0</ele><time>2026-05-02T09:58:08.782Z</time></trkpt><trkpt lat="38.8942416" lon="21.1318957"><ele>10.0</ele><time>2026-05-02T09:58:09.782Z</time></trkpt><trkpt lat="38.8941745" lon="21.132095"><ele>10.0</ele><time>2026-05-02T09:58:10.785Z</time></trkpt><trkpt lat="38.8941371" lon="21.1323118"><ele>10.0</ele><time>2026-05-02T09:58:11.781Z</time></trkpt><trkpt lat="38.8941366" lon="21.1325289"><ele>8.333333333333334</ele><time>2026-05-02T09:58:12.783Z</time></trkpt><trkpt lat="38.8941784" lon="21.1327432"><ele>6.666666666666667</ele><time>2026-05-02T09:58:13.78Z</time></trkpt><trkpt lat="38.8942565" lon="21.1329757"><ele>5.0</ele><time>2026-05-02T09:58:14.784Z</time></trkpt><trkpt lat="38.8943658" lon="21.1332101"><ele>3.3333333333333335</ele><time>2026-05-02T09:58:15.783Z</time></trkpt><trkpt lat="38.8944779" lon="21.1334227"><ele>1.6666666666666667</ele><time>2026-05-02T09:58:16.783Z</time></trkpt><trkpt lat="38.8945916" lon="21.1336263"><ele>0.0</ele><time>2026-05-02T09:58:17.783Z</time></trkpt><trkpt lat="38.8946863" lon="21.1338257"><ele>0.0</ele><time>2026-05-02T09:58:18.783Z</time></trkpt><trkpt lat="38.8947553" lon="21.1340304"><ele>0.0</ele><time>2026-05-02T09:58:19.783Z</time></trkpt><trkpt lat="38.8948027" lon="21.1342388"><ele>0.0</ele><time>2026-05-02T09:58:20.782Z</time></trkpt><trkpt lat="38.8948291" lon="21.1344438"><ele>0.3333333333333333</ele><time>2026-05-02T09:58:21.779Z</time></trkpt><trkpt lat="38.8948307" lon="21.13465"><ele>0.6666666666666666</ele><time>2026-05-02T09:58:22.783Z</time></trkpt><trkpt lat="38.894804" lon="21.1348481"><ele>1.0</ele><time>2026-05-02T09:58:23.784Z</time></trkpt><trkpt lat="38.8947594" lon="21.1350437"><ele>2.0</ele><time>2026-05-02T09:58:24.783Z</time></trkpt><trkpt lat="38.8946925" lon="21.1352499"><ele>3.0</ele><time>2026-05-02T09:58:25.783Z</time></trkpt><trkpt lat="38.8946072" lon="21.1354307"><ele>4.0</ele><time>2026-05-02T09:58:26.782Z</time></trkpt><trkpt lat="38.8944932" lon="21.1355868"><ele>3.0</ele><time>2026-05-02T09:58:27.783Z</time></trkpt><trkpt lat="38.8943671" lon="21.1357275"><ele>2.0</ele><time>2026-05-02T09:58:28.782Z</time></trkpt><trkpt lat="38.894214" lon="21.135858"><ele>1.0</ele><time>2026-05-02T09:58:29.783Z</time></trkpt><trkpt lat="38.894021" lon="21.1359856"><ele>5.0</ele><time>2026-05-02T09:58:30.781Z</time></trkpt><trkpt lat="38.89381" lon="21.1360953"><ele>9.0</ele><time>2026-05-02T09:58:31.782Z</time></trkpt><trkpt lat="38.8935909" lon="21.1362035"><ele>11.0</ele><time>2026-05-02T09:58:32.785Z</time></trkpt><trkpt lat="38.8933717" lon="21.1363114"><ele>13.0</ele><time>2026-05-02T09:58:33.782Z</time></trkpt><trkpt lat="38.8931647" lon="21.1364152"><ele>13.0</ele><time>2026-05-02T09:58:34.784Z</time></trkpt><trkpt lat="38.8929698" lon="21.1365093"><ele>13.0</ele><time>2026-05-02T09:58:35.781Z</time></trkpt><trkpt lat="38.892787" lon="21.1366007"><ele>13.0</ele><time>2026-05-02T09:58:36.782Z</time></trkpt><trkpt lat="38.8926021" lon="21.1366896"><ele>11.333333333333332</ele><time>2026-05-02T09:58:37.78Z</time></trkpt><trkpt lat="38.8924234" lon="21.1367758"><ele>9.666666666666666</ele><time>2026-05-02T09:58:38.782Z</time></trkpt><trkpt lat="38.8922516" lon="21.1368693"><ele>8.0</ele><time>2026-05-02T09:58:39.78Z</time></trkpt><trkpt lat="38.8920943" lon="21.1369744"><ele>8.0</ele><time>2026-05-02T09:58:40.783Z</time></trkpt><trkpt lat="38.8919557" lon="21.1370957"><ele>8.0</ele><time>2026-05-02T09:58:41.783Z</time></trkpt><trkpt lat="38.8918341" lon="21.1372334"><ele>8.0</ele><time>2026-05-02T09:58:42.784Z</time></trkpt><trkpt lat="38.8917424" lon="21.1374168"><ele>7.666666666666666</ele><time>2026-05-02T09:58:43.782Z</time></trkpt><trkpt lat="38.8916698" lon="21.1376145"><ele>7.333333333333334</ele><time>2026-05-02T09:58:44.783Z</time></trkpt><trkpt lat="38.8916234" lon="21.1378325"><ele>7.0</ele><time>2026-05-02T09:58:45.78Z</time></trkpt><trkpt lat="38.8916089" lon="21.1380619"><ele>6.666666666666667</ele><time>2026-05-02T09:58:46.781Z</time></trkpt><trkpt lat="38.8916311" lon="21.138312"><ele>6.333333333333334</ele><time>2026-05-02T09:58:47.783Z</time></trkpt><trkpt lat="38.8916861" lon="21.1385902"><ele>6.0</ele><time>2026-05-02T09:58:48.779Z</time></trkpt><trkpt lat="38.8917206" lon="21.1388682"><ele>3.5</ele><time>2026-05-02T09:58:49.781Z</time></trkpt><trkpt lat="38.8917578" lon="21.1391654"><ele>1.0</ele><time>2026-05-02T09:58:50.784Z</time></trkpt><trkpt lat="38.8917958" lon="21.1394723"><ele>1.0</ele><time>2026-05-02T09:58:51.78Z</time></trkpt><trkpt lat="38.8918305" lon="21.1397721"><ele>1.0</ele><time>2026-05-02T09:58:52.781Z</time></trkpt><trkpt lat="38.8918592" lon="21.1400652"><ele>1.0</ele><time>2026-05-02T09:58:53.781Z</time></trkpt><trkpt lat="38.8918915" lon="21.140337"><ele>1.0</ele><time>2026-05-02T09:58:54.78Z</time></trkpt><trkpt lat="38.8919242" lon="21.1406052"><ele>1.0</ele><time>2026-05-02T09:58:55.78Z</time></trkpt><trkpt lat="38.8919597" lon="21.1408738"><ele>1.0</ele><time>2026-05-02T09:58:56.783Z</time></trkpt><trkpt lat="38.891998" lon="21.1411417"><ele>1.0</ele><time>2026-05-02T09:58:57.781Z</time></trkpt><trkpt lat="38.8920431" lon="21.1413965"><ele>1.0</ele><time>2026-05-02T09:58:58.781Z</time></trkpt><trkpt lat="38.8921002" lon="21.1416448"><ele>1.0</ele><time>2026-05-02T09:58:59.782Z</time></trkpt><trkpt lat="38.8921678" lon="21.1418788"><ele>1.0</ele><time>2026-05-02T09:59:00.783Z</time></trkpt><trkpt lat="38.8922495" lon="21.1420902"><ele>1.0</ele><time>2026-05-02T09:59:01.783Z</time></trkpt><trkpt lat="38.8923493" lon="21.1422909"><ele>1.0</ele><time>2026-05-02T09:59:02.782Z</time></trkpt><trkpt lat="38.8924645" lon="21.1424838"><ele>1.0</ele><time>2026-05-02T09:59:03.781Z</time></trkpt><trkpt lat="38.8926001" lon="21.1426604"><ele>1.0</ele><time>2026-05-02T09:59:04.782Z</time></trkpt><trkpt lat="38.8927527" lon="21.1428248"><ele>1.0</ele><time>2026-05-02T09:59:05.783Z</time></trkpt><trkpt lat="38.8929142" lon="21.1429823"><ele>1.0</ele><time>2026-05-02T09:59:06.784Z</time></trkpt><trkpt lat="38.89307" lon="21.1431342"><ele>1.0</ele><time>2026-05-02T09:59:07.78Z</time></trkpt><trkpt lat="38.8932255" lon="21.1432712"><ele>2.3333333333333335</ele><time>2026-05-02T09:59:08.784Z</time></trkpt><trkpt lat="38.8933672" lon="21.1433985"><ele>3.666666666666667</ele><time>2026-05-02T09:59:09.781Z</time></trkpt><trkpt lat="38.8935092" lon="21.1435173"><ele>5.0</ele><time>2026-05-02T09:59:10.783Z</time></trkpt><trkpt lat="38.8936419" lon="21.1436393"><ele>5.0</ele><time>2026-05-02T09:59:11.784Z</time></trkpt><trkpt lat="38.8937798" lon="21.1437718"><ele>5.0</ele><time>2026-05-02T09:59:12.782Z</time></trkpt><trkpt lat="38.8939053" lon="21.1439273"><ele>5.0</ele><time>2026-05-02T09:59:13.782Z</time></trkpt><trkpt lat="38.894021" lon="21.1440772"><ele>4.333333333333334</ele><time>2026-05-02T09:59:14.782Z</time></trkpt><trkpt lat="38.8941167" lon="21.1442424"><ele>3.666666666666667</ele><time>2026-05-02T09:59:15.782Z</time></trkpt><trkpt lat="38.8941965" lon="21.1444115"><ele>3.0</ele><time>2026-05-02T09:59:16.784Z</time></trkpt><trkpt lat="38.8942737" lon="21.1445741"><ele>3.0</ele><time>2026-05-02T09:59:17.784Z</time></trkpt><trkpt lat="38.8943308" lon="21.1447518"><ele>3.0</ele><time>2026-05-02T09:59:18.784Z</time></trkpt><trkpt lat="38.8943773" lon="21.1449301"><ele>3.0</ele><time>2026-05-02T09:59:19.783Z</time></trkpt><trkpt lat="38.8944183" lon="21.1451049"><ele>3.0</ele><time>2026-05-02T09:59:20.783Z</time></trkpt><trkpt lat="38.894441" lon="21.1452791"><ele>4.0</ele><time>2026-05-02T09:59:21.784Z</time></trkpt><trkpt lat="38.8944502" lon="21.1454497"><ele>5.0</ele><time>2026-05-02T09:59:22.784Z</time></trkpt><trkpt lat="38.8944542" lon="21.1456189"><ele>6.0</ele><time>2026-05-02T09:59:23.782Z</time></trkpt><trkpt lat="38.8944432" lon="21.1457889"><ele>7.0</ele><time>2026-05-02T09:59:24.782Z</time></trkpt><trkpt lat="38.8944243" lon="21.1459562"><ele>7.5</ele><time>2026-05-02T09:59:25.783Z</time></trkpt><trkpt lat="38.8943947" lon="21.1461185"><ele>8.0</ele><time>2026-05-02T09:59:26.78Z</time></trkpt><trkpt lat="38.8943599" lon="21.1462725"><ele>8.5</ele><time>2026-05-02T09:59:27.784Z</time></trkpt><trkpt lat="38.8943185" lon="21.1464254"><ele>9.0</ele><time>2026-05-02T09:59:28.784Z</time></trkpt><trkpt lat="38.8942692" lon="21.1465937"><ele>13.0</ele><time>2026-05-02T09:59:29.784Z</time></trkpt><trkpt lat="38.8942103" lon="21.1467965"><ele>17.0</ele><time>2026-05-02T09:59:30.781Z</time></trkpt><trkpt lat="38.8941306" lon="21.1470223"><ele>21.0</ele><time>2026-05-02T09:59:31.783Z</time></trkpt><trkpt lat="38.894045" lon="21.1472901"><ele>18.0</ele><time>2026-05-02T09:59:32.782Z</time></trkpt><trkpt lat="38.8939531" lon="21.1475782"><ele>15.0</ele><time>2026-05-02T09:59:33.783Z</time></trkpt><trkpt lat="38.8938478" lon="21.1479056"><ele>11.0</ele><time>2026-05-02T09:59:34.783Z</time></trkpt><trkpt lat="38.8937271" lon="21.1482394"><ele>7.0</ele><time>2026-05-02T09:59:35.782Z</time></trkpt><trkpt lat="38.8936062" lon="21.1485553"><ele>7.0</ele><time>2026-05-02T09:59:36.782Z</time></trkpt><trkpt lat="38.8935051" lon="21.1488331"><ele>7.0</ele><time>2026-05-02T09:59:37.782Z</time></trkpt><trkpt lat="38.893407" lon="21.1490946"><ele>8.666666666666668</ele><time>2026-05-02T09:59:38.783Z</time></trkpt><trkpt lat="38.8933111" lon="21.1493401"><ele>10.333333333333334</ele><time>2026-05-02T09:59:39.783Z</time></trkpt><trkpt lat="38.8932249" lon="21.1495641"><ele>12.0</ele><time>2026-05-02T09:59:40.781Z</time></trkpt><trkpt lat="38.8931357" lon="21.1497897"><ele>10.0</ele><time>2026-05-02T09:59:41.784Z</time></trkpt><trkpt lat="38.8930373" lon="21.1499865"><ele>8.0</ele><time>2026-05-02T09:59:42.782Z</time></trkpt><trkpt lat="38.8929208" lon="21.1501763"><ele>6.0</ele><time>2026-05-02T09:59:43.784Z</time></trkpt><trkpt lat="38.8927993" lon="21.1503474"><ele>6.0</ele><time>2026-05-02T09:59:44.783Z</time></trkpt><trkpt lat="38.8926645" lon="21.1505092"><ele>6.0</ele><time>2026-05-02T09:59:45.782Z</time></trkpt><trkpt lat="38.8925309" lon="21.1506364"><ele>6.0</ele><time>2026-05-02T09:59:46.782Z</time></trkpt><trkpt lat="38.8924002" lon="21.1507565"><ele>6.666666666666666</ele><time>2026-05-02T09:59:47.781Z</time></trkpt><trkpt lat="38.8922572" lon="21.1508628"><ele>7.333333333333333</ele><time>2026-05-02T09:59:48.783Z</time></trkpt><trkpt lat="38.8921045" lon="21.150958"><ele>8.0</ele><time>2026-05-02T09:59:49.78Z</time></trkpt><trkpt lat="38.8919534" lon="21.1510571"><ele>8.0</ele><time>2026-05-02T09:59:50.78Z</time></trkpt><trkpt lat="38.8917794" lon="21.1511241"><ele>8.0</ele><time>2026-05-02T09:59:51.783Z</time></trkpt><trkpt lat="38.8916004" lon="21.1511899"><ele>8.0</ele><time>2026-05-02T09:59:52.782Z</time></trkpt><trkpt lat="38.8914213" lon="21.1512582"><ele>12.333333333333332</ele><time>2026-05-02T09:59:53.784Z</time></trkpt><trkpt lat="38.891241" lon="21.1513248"><ele>16.666666666666668</ele><time>2026-05-02T09:59:54.779Z</time></trkpt><trkpt lat="38.8910651" lon="21.1513932"><ele>21.0</ele><time>2026-05-02T09:59:55.784Z</time></trkpt><trkpt lat="38.8908808" lon="21.1514646"><ele>23.333333333333336</ele><time>2026-05-02T09:59:56.782Z</time></trkpt><trkpt lat="38.8906987" lon="21.1515366"><ele>25.666666666666668</ele><time>2026-05-02T09:59:57.782Z</time></trkpt><trkpt lat="38.8905146" lon="21.151609"><ele>28.0</ele><time>2026-05-02T09:59:58.781Z</time></trkpt><trkpt lat="38.8903278" lon="21.1516844"><ele>23.666666666666668</ele><time>2026-05-02T09:59:59.784Z</time></trkpt><trkpt lat="38.8901448" lon="21.1517559"><ele>19.333333333333336</ele><time>2026-05-02T10:00:00.782Z</time></trkpt><trkpt lat="38.8899603" lon="21.1518203"><ele>15.0</ele><time>2026-05-02T10:00:01.782Z</time></trkpt><trkpt lat="38.889772" lon="21.1518847"><ele>15.0</ele><time>2026-05-02T10:00:02.782Z</time></trkpt><trkpt lat="38.8895839" lon="21.1519534"><ele>15.0</ele><time>2026-05-02T10:00:03.782Z</time></trkpt><trkpt lat="38.8893962" lon="21.1520243"><ele>15.0</ele><time>2026-05-02T10:00:04.783Z</time></trkpt><trkpt lat="38.8892082" lon="21.1520916"><ele>19.0</ele><time>2026-05-02T10:00:05.783Z</time></trkpt><trkpt lat="38.8890266" lon="21.1521495"><ele>23.0</ele><time>2026-05-02T10:00:06.78Z</time></trkpt><trkpt lat="38.8888403" lon="21.1522232"><ele>27.0</ele><time>2026-05-02T10:00:07.78Z</time></trkpt><trkpt lat="38.8886544" lon="21.1522827"><ele>27.0</ele><time>2026-05-02T10:00:08.783Z</time></trkpt><trkpt lat="38.8884752" lon="21.1523535"><ele>27.0</ele><time>2026-05-02T10:00:09.785Z</time></trkpt><trkpt lat="38.8882909" lon="21.1524194"><ele>27.0</ele><time>2026-05-02T10:00:10.782Z</time></trkpt><trkpt lat="38.8881051" lon="21.1524915"><ele>24.333333333333332</ele><time>2026-05-02T10:00:11.783Z</time></trkpt><trkpt lat="38.8879201" lon="21.1525589"><ele>21.666666666666664</ele><time>2026-05-02T10:00:12.782Z</time></trkpt><trkpt lat="38.8877383" lon="21.1526266"><ele>19.0</ele><time>2026-05-02T10:00:13.782Z</time></trkpt><trkpt lat="38.8875611" lon="21.1526907"><ele>19.0</ele><time>2026-05-02T10:00:14.78Z</time></trkpt><trkpt lat="38.8873694" lon="21.1527633"><ele>19.0</ele><time>2026-05-02T10:00:15.783Z</time></trkpt><trkpt lat="38.8871854" lon="21.152833"><ele>19.0</ele><time>2026-05-02T10:00:16.782Z</time></trkpt><trkpt lat="38.8870025" lon="21.1528951"><ele>19.0</ele><time>2026-05-02T10:00:17.782Z</time></trkpt><trkpt lat="38.8868153" lon="21.1529531"><ele>19.0</ele><time>2026-05-02T10:00:18.78Z</time></trkpt><trkpt lat="38.8866337" lon="21.1530211"><ele>19.0</ele><time>2026-05-02T10:00:19.782Z</time></trkpt><trkpt lat="38.886447" lon="21.1530867"><ele>21.333333333333332</ele><time>2026-05-02T10:00:20.782Z</time></trkpt><trkpt lat="38.8862693" lon="21.1531565"><ele>23.666666666666664</ele><time>2026-05-02T10:00:21.781Z</time></trkpt><trkpt lat="38.8860872" lon="21.1532384"><ele>26.0</ele><time>2026-05-02T10:00:22.78Z</time></trkpt><trkpt lat="38.8859" lon="21.1533038"><ele>21.0</ele><time>2026-05-02T10:00:23.781Z</time></trkpt><trkpt lat="38.8857142" lon="21.1533695"><ele>16.0</ele><time>2026-05-02T10:00:24.782Z</time></trkpt><trkpt lat="38.8855218" lon="21.1534416"><ele>11.0</ele><time>2026-05-02T10:00:25.783Z</time></trkpt><trkpt lat="38.8853245" lon="21.1535201"><ele>11.0</ele><time>2026-05-02T10:00:26.782Z</time></trkpt><trkpt lat="38.8851291" lon="21.1535798"><ele>11.0</ele><time>2026-05-02T10:00:27.784Z</time></trkpt><trkpt lat="38.8849354" lon="21.1536278"><ele>11.0</ele><time>2026-05-02T10:00:28.782Z</time></trkpt><trkpt lat="38.884734" lon="21.1536773"><ele>12.333333333333332</ele><time>2026-05-02T10:00:29.78Z</time></trkpt><trkpt lat="38.8845353" lon="21.1537159"><ele>13.666666666666666</ele><time>2026-05-02T10:00:30.783Z</time></trkpt><trkpt lat="38.8843401" lon="21.1537588"><ele>15.0</ele><time>2026-05-02T10:00:31.783Z</time></trkpt><trkpt lat="38.8841495" lon="21.1538034"><ele>15.666666666666668</ele><time>2026-05-02T10:00:32.781Z</time></trkpt><trkpt lat="38.8839582" lon="21.1538553"><ele>16.333333333333336</ele><time>2026-05-02T10:00:33.783Z</time></trkpt><trkpt lat="38.8837642" lon="21.1539056"><ele>17.0</ele><time>2026-05-02T10:00:34.782Z</time></trkpt><trkpt lat="38.8835785" lon="21.153974"><ele>12.333333333333334</ele><time>2026-05-02T10:00:35.782Z</time></trkpt><trkpt lat="38.8833964" lon="21.1540598"><ele>7.666666666666667</ele><time>2026-05-02T10:00:36.782Z</time></trkpt><trkpt lat="38.8832184" lon="21.1541527"><ele>3.0</ele><time>2026-05-02T10:00:37.78Z</time></trkpt><trkpt lat="38.8830428" lon="21.1542527"><ele>3.0</ele><time>2026-05-02T10:00:38.781Z</time></trkpt><trkpt lat="38.882869" lon="21.1543605"><ele>3.0</ele><time>2026-05-02T10:00:39.783Z</time></trkpt><trkpt lat="38.8826984" lon="21.1544643"><ele>3.0</ele><time>2026-05-02T10:00:40.782Z</time></trkpt><trkpt lat="38.8825259" lon="21.1545837"><ele>3.333333333333333</ele><time>2026-05-02T10:00:41.785Z</time></trkpt><trkpt lat="38.8823596" lon="21.1547021"><ele>3.6666666666666665</ele><time>2026-05-02T10:00:42.782Z</time></trkpt><trkpt lat="38.882194" lon="21.1548153"><ele>4.0</ele><time>2026-05-02T10:00:43.781Z</time></trkpt><trkpt lat="38.8820248" lon="21.1549435"><ele>4.0</ele><time>2026-05-02T10:00:44.782Z</time></trkpt><trkpt lat="38.8818543" lon="21.1550607"><ele>4.0</ele><time>2026-05-02T10:00:45.782Z</time></trkpt><trkpt lat="38.8816811" lon="21.1551765"><ele>4.0</ele><time>2026-05-02T10:00:46.78Z</time></trkpt><trkpt lat="38.8815031" lon="21.1552917"><ele>8.666666666666666</ele><time>2026-05-02T10:00:47.782Z</time></trkpt><trkpt lat="38.8813269" lon="21.1554231"><ele>13.333333333333334</ele><time>2026-05-02T10:00:48.781Z</time></trkpt><trkpt lat="38.8811464" lon="21.155546"><ele>18.0</ele><time>2026-05-02T10:00:49.78Z</time></trkpt><trkpt lat="38.8809685" lon="21.155663"><ele>16.0</ele><time>2026-05-02T10:00:50.783Z</time></trkpt><trkpt lat="38.8807879" lon="21.1557831"><ele>14.0</ele><time>2026-05-02T10:00:51.781Z</time></trkpt><trkpt lat="38.8806043" lon="21.1558932"><ele>12.0</ele><time>2026-05-02T10:00:52.782Z</time></trkpt><trkpt lat="38.8804175" lon="21.1560019"><ele>12.0</ele><time>2026-05-02T10:00:53.782Z</time></trkpt><trkpt lat="38.8802359" lon="21.1561027"><ele>12.0</ele><time>2026-05-02T10:00:54.78Z</time></trkpt><trkpt lat="38.8800535" lon="21.156202"><ele>12.0</ele><time>2026-05-02T10:00:55.782Z</time></trkpt><trkpt lat="38.8798719" lon="21.1563036"><ele>9.0</ele><time>2026-05-02T10:00:56.782Z</time></trkpt><trkpt lat="38.8796944" lon="21.1564021"><ele>6.0</ele><time>2026-05-02T10:00:57.784Z</time></trkpt><trkpt lat="38.8795207" lon="21.1565037"><ele>3.0</ele><time>2026-05-02T10:00:58.783Z</time></trkpt><trkpt lat="38.8793428" lon="21.1565984"><ele>7.333333333333333</ele><time>2026-05-02T10:00:59.782Z</time></trkpt><trkpt lat="38.8791628" lon="21.1566927"><ele>11.666666666666666</ele><time>2026-05-02T10:01:00.782Z</time></trkpt><trkpt lat="38.8789765" lon="21.1567904"><ele>16.0</ele><time>2026-05-02T10:01:01.783Z</time></trkpt><trkpt lat="38.8787897" lon="21.1568808"><ele>16.0</ele><time>2026-05-02T10:01:02.781Z</time></trkpt><trkpt lat="38.8786064" lon="21.1569671"><ele>16.0</ele><time>2026-05-02T10:01:03.782Z</time></trkpt><trkpt lat="38.8784109" lon="21.1570496"><ele>16.0</ele><time>2026-05-02T10:01:04.783Z</time></trkpt><trkpt lat="38.8782199" lon="21.1571323"><ele>18.666666666666664</ele><time>2026-05-02T10:01:05.782Z</time></trkpt><trkpt lat="38.8780241" lon="21.1572062"><ele>21.333333333333332</ele><time>2026-05-02T10:01:06.783Z</time></trkpt><trkpt lat="38.8778265" lon="21.1572772"><ele>24.0</ele><time>2026-05-02T10:01:07.785Z</time></trkpt><trkpt lat="38.8776321" lon="21.1573363"><ele>17.666666666666668</ele><time>2026-05-02T10:01:08.781Z</time></trkpt><trkpt lat="38.8774361" lon="21.1573908"><ele>11.333333333333334</ele><time>2026-05-02T10:01:09.781Z</time></trkpt><trkpt lat="38.8772335" lon="21.1574437"><ele>5.0</ele><time>2026-05-02T10:01:10.782Z</time></trkpt><trkpt lat="38.8770286" lon="21.1574895"><ele>5.0</ele><time>2026-05-02T10:01:11.781Z</time></trkpt><trkpt lat="38.8768077" lon="21.1575347"><ele>5.0</ele><time>2026-05-02T10:01:12.783Z</time></trkpt><trkpt lat="38.8765812" lon="21.1575739"><ele>6.666666666666667</ele><time>2026-05-02T10:01:13.781Z</time></trkpt><trkpt lat="38.8763594" lon="21.1576089"><ele>8.333333333333334</ele><time>2026-05-02T10:01:14.784Z</time></trkpt><trkpt lat="38.8761366" lon="21.1576463"><ele>10.0</ele><time>2026-05-02T10:01:15.782Z</time></trkpt><trkpt lat="38.8759168" lon="21.1576858"><ele>11.333333333333334</ele><time>2026-05-02T10:01:16.781Z</time></trkpt><trkpt lat="38.8757022" lon="21.1577243"><ele>12.666666666666668</ele><time>2026-05-02T10:01:17.783Z</time></trkpt><trkpt lat="38.8754915" lon="21.1577626"><ele>14.0</ele><time>2026-05-02T10:01:18.781Z</time></trkpt><trkpt lat="38.8752825" lon="21.1577967"><ele>15.0</ele><time>2026-05-02T10:01:19.782Z</time></trkpt><trkpt lat="38.875076" lon="21.1578381"><ele>16.0</ele><time>2026-05-02T10:01:20.783Z</time></trkpt><trkpt lat="38.8748767" lon="21.1578838"><ele>17.0</ele><time>2026-05-02T10:01:21.782Z</time></trkpt><trkpt lat="38.874681" lon="21.1579348"><ele>17.0</ele><time>2026-05-02T10:01:22.783Z</time></trkpt><trkpt lat="38.8744923" lon="21.1579901"><ele>17.0</ele><time>2026-05-02T10:01:23.781Z</time></trkpt><trkpt lat="38.8743056" lon="21.1580529"><ele>17.0</ele><time>2026-05-02T10:01:24.782Z</time></trkpt><trkpt lat="38.874119" lon="21.1581266"><ele>13.0</ele><time>2026-05-02T10:01:25.784Z</time></trkpt><trkpt lat="38.8739341" lon="21.158206"><ele>9.0</ele><time>2026-05-02T10:01:26.781Z</time></trkpt><trkpt lat="38.8737389" lon="21.1582878"><ele>5.0</ele><time>2026-05-02T10:01:27.784Z</time></trkpt><trkpt lat="38.8735507" lon="21.1583718"><ele>8.0</ele><time>2026-05-02T10:01:28.782Z</time></trkpt><trkpt lat="38.8733583" lon="21.1584586"><ele>11.0</ele><time>2026-05-02T10:01:29.781Z</time></trkpt><trkpt lat="38.873166" lon="21.1585508"><ele>14.0</ele><time>2026-05-02T10:01:30.785Z</time></trkpt><trkpt lat="38.8729763" lon="21.1586589"><ele>14.0</ele><time>2026-05-02T10:01:31.784Z</time></trkpt><trkpt lat="38.8727885" lon="21.1587617"><ele>14.0</ele><time>2026-05-02T10:01:32.782Z</time></trkpt><trkpt lat="38.872602" lon="21.1588735"><ele>14.0</ele><time>2026-05-02T10:01:33.781Z</time></trkpt><trkpt lat="38.8724163" lon="21.1589816"><ele>13.0</ele><time>2026-05-02T10:01:34.782Z</time></trkpt><trkpt lat="38.872235" lon="21.1590954"><ele>12.0</ele><time>2026-05-02T10:01:35.786Z</time></trkpt><trkpt lat="38.8720506" lon="21.159207"><ele>11.0</ele><time>2026-05-02T10:01:36.783Z</time></trkpt><trkpt lat="38.8718766" lon="21.1592981"><ele>14.0</ele><time>2026-05-02T10:01:37.783Z</time></trkpt><trkpt lat="38.8717034" lon="21.1594028"><ele>17.0</ele><time>2026-05-02T10:01:38.781Z</time></trkpt><trkpt lat="38.8715252" lon="21.1595028"><ele>20.0</ele><time>2026-05-02T10:01:39.784Z</time></trkpt><trkpt lat="38.8713499" lon="21.1596049"><ele>20.0</ele><time>2026-05-02T10:01:40.785Z</time></trkpt><trkpt lat="38.8711708" lon="21.1597028"><ele>20.0</ele><time>2026-05-02T10:01:41.782Z</time></trkpt><trkpt lat="38.8709971" lon="21.1598131"><ele>20.0</ele><time>2026-05-02T10:01:42.782Z</time></trkpt><trkpt lat="38.8708188" lon="21.1599093"><ele>17.0</ele><time>2026-05-02T10:01:43.782Z</time></trkpt><trkpt lat="38.8706463" lon="21.1600057"><ele>14.0</ele><time>2026-05-02T10:01:44.783Z</time></trkpt><trkpt lat="38.8704813" lon="21.1600925"><ele>11.0</ele><time>2026-05-02T10:01:45.783Z</time></trkpt><trkpt lat="38.8703174" lon="21.1601743"><ele>11.0</ele><time>2026-05-02T10:01:46.781Z</time></trkpt><trkpt lat="38.8701542" lon="21.160267"><ele>11.0</ele><time>2026-05-02T10:01:47.783Z</time></trkpt><trkpt lat="38.8699947" lon="21.1603632"><ele>11.0</ele><time>2026-05-02T10:01:48.782Z</time></trkpt><trkpt lat="38.8698382" lon="21.1604739"><ele>9.666666666666666</ele><time>2026-05-02T10:01:49.782Z</time></trkpt><trkpt lat="38.8696845" lon="21.1606032"><ele>8.333333333333334</ele><time>2026-05-02T10:01:50.781Z</time></trkpt><trkpt lat="38.8695385" lon="21.1607392"><ele>7.0</ele><time>2026-05-02T10:01:51.782Z</time></trkpt><trkpt lat="38.8693987" lon="21.1608818"><ele>10.0</ele><time>2026-05-02T10:01:52.783Z</time></trkpt><trkpt lat="38.8692616" lon="21.1610257"><ele>13.0</ele><time>2026-05-02T10:01:53.782Z</time></trkpt><trkpt lat="38.8691305" lon="21.1611626"><ele>16.0</ele><time>2026-05-02T10:01:54.783Z</time></trkpt><trkpt lat="38.8690064" lon="21.1612919"><ele>16.0</ele><time>2026-05-02T10:01:55.784Z</time></trkpt><trkpt lat="38.8688954" lon="21.1614229"><ele>16.0</ele><time>2026-05-02T10:01:56.782Z</time></trkpt><trkpt lat="38.8687943" lon="21.1615464"><ele>16.0</ele><time>2026-05-02T10:01:57.782Z</time></trkpt><trkpt lat="38.8686951" lon="21.1616685"><ele>16.0</ele><time>2026-05-02T10:01:58.782Z</time></trkpt><trkpt lat="38.868601" lon="21.1617933"><ele>15.25</ele><time>2026-05-02T10:01:59.783Z</time></trkpt><trkpt lat="38.8685127" lon="21.1619178"><ele>14.5</ele><time>2026-05-02T10:02:00.785Z</time></trkpt><trkpt lat="38.8684237" lon="21.1620355"><ele>13.75</ele><time>2026-05-02T10:02:01.783Z</time></trkpt><trkpt lat="38.8683411" lon="21.1621484"><ele>13.0</ele><time>2026-05-02T10:02:02.781Z</time></trkpt><trkpt lat="38.8682527" lon="21.1622403"><ele>13.0</ele><time>2026-05-02T10:02:03.781Z</time></trkpt><trkpt lat="38.8681638" lon="21.162308"><ele>13.0</ele><time>2026-05-02T10:02:04.782Z</time></trkpt><trkpt lat="38.8680757" lon="21.1623717"><ele>13.0</ele><time>2026-05-02T10:02:05.782Z</time></trkpt><trkpt lat="38.8679808" lon="21.1624256"><ele>13.0</ele><time>2026-05-02T10:02:06.78Z</time></trkpt><trkpt lat="38.8678737" lon="21.1624651"><ele>13.0</ele><time>2026-05-02T10:02:07.781Z</time></trkpt><trkpt lat="38.8677601" lon="21.1624993"><ele>11.0</ele><time>2026-05-02T10:02:08.782Z</time></trkpt><trkpt lat="38.8676391" lon="21.1625511"><ele>9.0</ele><time>2026-05-02T10:02:09.782Z</time></trkpt><trkpt lat="38.8675192" lon="21.1625832"><ele>7.0</ele><time>2026-05-02T10:02:10.782Z</time></trkpt><trkpt lat="38.8673951" lon="21.1626149"><ele>5.0</ele><time>2026-05-02T10:02:11.782Z</time></trkpt><trkpt lat="38.8672697" lon="21.1626471"><ele>5.0</ele><time>2026-05-02T10:02:12.783Z</time></trkpt><trkpt lat="38.8671488" lon="21.1626732"><ele>5.0</ele><time>2026-05-02T10:02:13.782Z</time></trkpt><trkpt lat="38.867025" lon="21.162701"><ele>5.0</ele><time>2026-05-02T10:02:14.78Z</time></trkpt><trkpt lat="38.8669074" lon="21.1627309"><ele>5.0</ele><time>2026-05-02T10:02:15.782Z</time></trkpt><trkpt lat="38.8667994" lon="21.1627521"><ele>5.6</ele><time>2026-05-02T10:02:16.786Z</time></trkpt><trkpt lat="38.8666919" lon="21.1627791"><ele>6.2</ele><time>2026-05-02T10:02:17.783Z</time></trkpt><trkpt lat="38.8665894" lon="21.1628055"><ele>6.800000000000001</ele><time>2026-05-02T10:02:18.782Z</time></trkpt><trkpt lat="38.8664846" lon="21.1628324"><ele>7.4</ele><time>2026-05-02T10:02:19.782Z</time></trkpt><trkpt lat="38.8663832" lon="21.16287"><ele>8.0</ele><time>2026-05-02T10:02:20.783Z</time></trkpt><trkpt lat="38.8662924" lon="21.1629235"><ele>7.999999999999999</ele><time>2026-05-02T10:02:21.781Z</time></trkpt><trkpt lat="38.8662107" lon="21.1629788"><ele>8.0</ele><time>2026-05-02T10:02:22.782Z</time></trkpt><trkpt lat="38.8661393" lon="21.1630474"><ele>8.0</ele><time>2026-05-02T10:02:23.783Z</time></trkpt><trkpt lat="38.8660731" lon="21.1631165"><ele>8.0</ele><time>2026-05-02T10:02:24.782Z</time></trkpt><trkpt lat="38.8660117" lon="21.1631947"><ele>7.999999999999999</ele><time>2026-05-02T10:02:25.783Z</time></trkpt><trkpt lat="38.8659551" lon="21.1632723"><ele>8.0</ele><time>2026-05-02T10:02:26.782Z</time></trkpt><trkpt lat="38.8659098" lon="21.1633332"><ele>7.571428571428571</ele><time>2026-05-02T10:02:27.783Z</time></trkpt><trkpt lat="38.8658582" lon="21.1634073"><ele>7.142857142857142</ele><time>2026-05-02T10:02:28.781Z</time></trkpt><trkpt lat="38.8658074" lon="21.1634753"><ele>6.7142857142857135</ele><time>2026-05-02T10:02:29.782Z</time></trkpt><trkpt lat="38.8657583" lon="21.1635497"><ele>6.285714285714286</ele><time>2026-05-02T10:02:30.782Z</time></trkpt><trkpt lat="38.8657134" lon="21.1636208"><ele>5.857142857142858</ele><time>2026-05-02T10:02:31.783Z</time></trkpt><trkpt lat="38.865665" lon="21.1636904"><ele>5.428571428571429</ele><time>2026-05-02T10:02:32.782Z</time></trkpt><trkpt lat="38.865621" lon="21.1637627"><ele>5.0</ele><time>2026-05-02T10:02:33.784Z</time></trkpt><trkpt lat="38.865536" lon="21.163861"><ele>5.0</ele><time>2026-05-02T10:02:35.783Z</time></trkpt><trkpt lat="38.8654397" lon="21.1639697"><ele>5.0</ele><time>2026-05-02T10:02:37.781Z</time></trkpt><trkpt lat="38.8653624" lon="21.1640983"><ele>5.0</ele><time>2026-05-02T10:02:39.784Z</time></trkpt><trkpt lat="38.8653227" lon="21.1641718"><ele>5.0</ele><time>2026-05-02T10:02:40.786Z</time></trkpt><trkpt lat="38.8652818" lon="21.1642462"><ele>5.0</ele><time>2026-05-02T10:02:41.784Z</time></trkpt><trkpt lat="38.8652364" lon="21.1643132"><ele>5.142857142857142</ele><time>2026-05-02T10:02:42.782Z</time></trkpt><trkpt lat="38.8651672" lon="21.1643742"><ele>5.285714285714286</ele><time>2026-05-02T10:02:43.783Z</time></trkpt><trkpt lat="38.8650968" lon="21.1644106"><ele>5.428571428571429</ele><time>2026-05-02T10:02:44.783Z</time></trkpt><trkpt lat="38.8650239" lon="21.1644417"><ele>5.571428571428571</ele><time>2026-05-02T10:02:45.783Z</time></trkpt><trkpt lat="38.8649666" lon="21.1644801"><ele>5.714285714285714</ele><time>2026-05-02T10:02:46.782Z</time></trkpt><trkpt lat="38.8649092" lon="21.164519"><ele>5.857142857142857</ele><time>2026-05-02T10:02:47.783Z</time></trkpt><trkpt lat="38.8648491" lon="21.1645459"><ele>6.0</ele><time>2026-05-02T10:02:48.783Z</time></trkpt><trkpt lat="38.8647902" lon="21.1645772"><ele>5.999999999999999</ele><time>2026-05-02T10:02:49.783Z</time></trkpt><trkpt lat="38.8647326" lon="21.1646241"><ele>6.0</ele><time>2026-05-02T10:02:50.784Z</time></trkpt><trkpt lat="38.8646656" lon="21.1646574"><ele>6.0</ele><time>2026-05-02T10:02:51.781Z</time></trkpt><trkpt lat="38.8646039" lon="21.1646919"><ele>6.0</ele><time>2026-05-02T10:02:52.782Z</time></trkpt><trkpt lat="38.8645432" lon="21.164723"><ele>6.0</ele><time>2026-05-02T10:02:53.782Z</time></trkpt><trkpt lat="38.8644824" lon="21.1647572"><ele>5.999999999999999</ele><time>2026-05-02T10:02:54.781Z</time></trkpt><trkpt lat="38.8644167" lon="21.1647821"><ele>6.0</ele><time>2026-05-02T10:02:55.78Z</time></trkpt><trkpt lat="38.8643517" lon="21.164816"><ele>6.0</ele><time>2026-05-02T10:02:56.78Z</time></trkpt><trkpt lat="38.8642923" lon="21.1648553"><ele>6.0</ele><time>2026-05-02T10:02:57.783Z</time></trkpt><trkpt lat="38.8642362" lon="21.1649069"><ele>6.0</ele><time>2026-05-02T10:02:58.781Z</time></trkpt><trkpt lat="38.8641937" lon="21.1649755"><ele>6.0</ele><time>2026-05-02T10:02:59.783Z</time></trkpt><trkpt lat="38.8641088" lon="21.1650719"><ele>6.0</ele><time>2026-05-02T10:03:01.782Z</time></trkpt><trkpt lat="38.8640734" lon="21.1651392"><ele>6.0</ele><time>2026-05-02T10:03:02.781Z</time></trkpt><trkpt lat="38.8640014" lon="21.1652644"><ele>5.8</ele><time>2026-05-02T10:03:04.781Z</time></trkpt><trkpt lat="38.8639244" lon="21.165401"><ele>5.6</ele><time>2026-05-02T10:03:06.786Z</time></trkpt><trkpt lat="38.8638798" lon="21.1654674"><ele>5.4</ele><time>2026-05-02T10:03:07.782Z</time></trkpt><trkpt lat="38.8638024" lon="21.1655943"><ele>5.2</ele><time>2026-05-02T10:03:09.781Z</time></trkpt><trkpt lat="38.8637378" lon="21.1657039"><ele>5.0</ele><time>2026-05-02T10:03:11.784Z</time></trkpt><trkpt lat="38.8636804" lon="21.1658163"><ele>5.0</ele><time>2026-05-02T10:03:13.783Z</time></trkpt><trkpt lat="38.8636165" lon="21.165927"><ele>5.0</ele><time>2026-05-02T10:03:15.782Z</time></trkpt><trkpt lat="38.863577" lon="21.1660259"><ele>5.0</ele><time>2026-05-02T10:03:17.784Z</time></trkpt><trkpt lat="38.8635382" lon="21.1661294"><ele>5.0</ele><time>2026-05-02T10:03:19.782Z</time></trkpt><trkpt lat="38.8634973" lon="21.1662096"><ele>5.0</ele><time>2026-05-02T10:03:21.782Z</time></trkpt><trkpt lat="38.863465" lon="21.1662932"><ele>5.0</ele><time>2026-05-02T10:03:23.782Z</time></trkpt><trkpt lat="38.8634422" lon="21.166405"><ele>5.0</ele><time>2026-05-02T10:03:25.783Z</time></trkpt><trkpt lat="38.8634078" lon="21.1665177"><ele>5.0</ele><time>2026-05-02T10:03:27.784Z</time></trkpt><trkpt lat="38.8633904" lon="21.1666165"><ele>5.0</ele><time>2026-05-02T10:03:29.782Z</time></trkpt><trkpt lat="38.8634081" lon="21.1667133"><ele>5.0</ele><time>2026-05-02T10:03:31.782Z</time></trkpt><trkpt lat="38.863437" lon="21.1668486"><ele>5.0</ele><time>2026-05-02T10:03:33.782Z</time></trkpt><trkpt lat="38.8634755" lon="21.1670008"><ele>4.833333333333334</ele><time>2026-05-02T10:03:35.781Z</time></trkpt><trkpt lat="38.8635191" lon="21.1671521"><ele>4.666666666666667</ele><time>2026-05-02T10:03:37.782Z</time></trkpt><trkpt lat="38.8635553" lon="21.1672266"><ele>4.5</ele><time>2026-05-02T10:03:38.782Z</time></trkpt><trkpt lat="38.8636256" lon="21.1673636"><ele>4.333333333333333</ele><time>2026-05-02T10:03:40.785Z</time></trkpt><trkpt lat="38.8636564" lon="21.1674346"><ele>4.166666666666666</ele><time>2026-05-02T10:03:41.781Z</time></trkpt><trkpt lat="38.8636881" lon="21.1675046"><ele>4.0</ele><time>2026-05-02T10:03:42.781Z</time></trkpt><trkpt lat="38.8637513" lon="21.1676445"><ele>3.9999999999999996</ele><time>2026-05-02T10:03:44.782Z</time></trkpt><trkpt lat="38.8638162" lon="21.1677817"><ele>4.0</ele><time>2026-05-02T10:03:46.784Z</time></trkpt><trkpt lat="38.8638543" lon="21.1678531"><ele>4.0</ele><time>2026-05-02T10:03:47.782Z</time></trkpt><trkpt lat="38.863892" lon="21.1679295"><ele>4.0</ele><time>2026-05-02T10:03:48.783Z</time></trkpt><trkpt lat="38.8639299" lon="21.1680122"><ele>3.9999999999999996</ele><time>2026-05-02T10:03:49.78Z</time></trkpt><trkpt lat="38.8639651" lon="21.1680997"><ele>4.0</ele><time>2026-05-02T10:03:50.78Z</time></trkpt><trkpt lat="38.8640002" lon="21.1681832"><ele>4.333333333333333</ele><time>2026-05-02T10:03:51.783Z</time></trkpt><trkpt lat="38.8640378" lon="21.1682685"><ele>4.666666666666666</ele><time>2026-05-02T10:03:52.782Z</time></trkpt><trkpt lat="38.8640748" lon="21.168353"><ele>5.0</ele><time>2026-05-02T10:03:53.78Z</time></trkpt><trkpt lat="38.8641236" lon="21.1684377"><ele>5.333333333333333</ele><time>2026-05-02T10:03:54.782Z</time></trkpt><trkpt lat="38.8641627" lon="21.1685225"><ele>5.666666666666667</ele><time>2026-05-02T10:03:55.781Z</time></trkpt><trkpt lat="38.8642025" lon="21.1686113"><ele>6.0</ele><time>2026-05-02T10:03:56.783Z</time></trkpt><trkpt lat="38.8642456" lon="21.1686983"><ele>5.7142857142857135</ele><time>2026-05-02T10:03:57.782Z</time></trkpt><trkpt lat="38.8642822" lon="21.1687854"><ele>5.428571428571429</ele><time>2026-05-02T10:03:58.78Z</time></trkpt><trkpt lat="38.8643163" lon="21.1688698"><ele>5.142857142857142</ele><time>2026-05-02T10:03:59.78Z</time></trkpt><trkpt lat="38.8643558" lon="21.1689489"><ele>4.857142857142857</ele><time>2026-05-02T10:04:00.782Z</time></trkpt><trkpt lat="38.8643925" lon="21.1690272"><ele>4.571428571428571</ele><time>2026-05-02T10:04:01.782Z</time></trkpt><trkpt lat="38.8644381" lon="21.1691043"><ele>4.285714285714286</ele><time>2026-05-02T10:04:02.781Z</time></trkpt><trkpt lat="38.8644754" lon="21.1691834"><ele>4.0</ele><time>2026-05-02T10:04:03.779Z</time></trkpt><trkpt lat="38.8645154" lon="21.1692672"><ele>3.9999999999999996</ele><time>2026-05-02T10:04:04.782Z</time></trkpt><trkpt lat="38.8645479" lon="21.1693565"><ele>4.0</ele><time>2026-05-02T10:04:05.782Z</time></trkpt><trkpt lat="38.8645789" lon="21.1694487"><ele>4.0</ele><time>2026-05-02T10:04:06.78Z</time></trkpt><trkpt lat="38.8646074" lon="21.1695402"><ele>4.0</ele><time>2026-05-02T10:04:07.782Z</time></trkpt><trkpt lat="38.8646403" lon="21.1696304"><ele>3.9999999999999996</ele><time>2026-05-02T10:04:08.782Z</time></trkpt><trkpt lat="38.8646699" lon="21.1697156"><ele>4.0</ele><time>2026-05-02T10:04:09.782Z</time></trkpt><trkpt lat="38.8646999" lon="21.1697963"><ele>4.166666666666666</ele><time>2026-05-02T10:04:10.782Z</time></trkpt><trkpt lat="38.8647288" lon="21.1698837"><ele>4.333333333333333</ele><time>2026-05-02T10:04:11.78Z</time></trkpt><trkpt lat="38.8647608" lon="21.1699782"><ele>4.5</ele><time>2026-05-02T10:04:12.783Z</time></trkpt><trkpt lat="38.864793" lon="21.1700734"><ele>4.666666666666667</ele><time>2026-05-02T10:04:13.781Z</time></trkpt><trkpt lat="38.8648279" lon="21.1701713"><ele>4.833333333333334</ele><time>2026-05-02T10:04:14.782Z</time></trkpt><trkpt lat="38.8648592" lon="21.1702812"><ele>5.0</ele><time>2026-05-02T10:04:15.782Z</time></trkpt><trkpt lat="38.8648872" lon="21.1703753"><ele>5.0</ele><time>2026-05-02T10:04:16.781Z</time></trkpt><trkpt lat="38.8649141" lon="21.1704635"><ele>5.0</ele><time>2026-05-02T10:04:17.782Z</time></trkpt><trkpt lat="38.8649439" lon="21.1705401"><ele>5.0</ele><time>2026-05-02T10:04:18.782Z</time></trkpt><trkpt lat="38.8649744" lon="21.1706255"><ele>5.0</ele><time>2026-05-02T10:04:19.783Z</time></trkpt><trkpt lat="38.8650021" lon="21.1707102"><ele>5.0</ele><time>2026-05-02T10:04:20.782Z</time></trkpt><trkpt lat="38.8650333" lon="21.1707968"><ele>5.0</ele><time>2026-05-02T10:04:21.781Z</time></trkpt><trkpt lat="38.8650685" lon="21.1708842"><ele>5.0</ele><time>2026-05-02T10:04:22.781Z</time></trkpt><trkpt lat="38.8651132" lon="21.1709695"><ele>4.428571428571429</ele><time>2026-05-02T10:04:23.779Z</time></trkpt><trkpt lat="38.8651509" lon="21.1710491"><ele>3.857142857142857</ele><time>2026-05-02T10:04:24.782Z</time></trkpt><trkpt lat="38.865191" lon="21.1711211"><ele>3.2857142857142856</ele><time>2026-05-02T10:04:25.78Z</time></trkpt><trkpt lat="38.8652296" lon="21.1711871"><ele>2.7142857142857144</ele><time>2026-05-02T10:04:26.783Z</time></trkpt><trkpt lat="38.8652639" lon="21.1712568"><ele>2.142857142857143</ele><time>2026-05-02T10:04:27.781Z</time></trkpt><trkpt lat="38.8653042" lon="21.1713381"><ele>1.5714285714285714</ele><time>2026-05-02T10:04:28.782Z</time></trkpt><trkpt lat="38.865339" lon="21.17142"><ele>1.0</ele><time>2026-05-02T10:04:29.781Z</time></trkpt><trkpt lat="38.8653819" lon="21.1715016"><ele>1.1666666666666665</ele><time>2026-05-02T10:04:30.781Z</time></trkpt><trkpt lat="38.865423" lon="21.1715767"><ele>1.3333333333333333</ele><time>2026-05-02T10:04:31.782Z</time></trkpt><trkpt lat="38.8654641" lon="21.1716548"><ele>1.5</ele><time>2026-05-02T10:04:32.78Z</time></trkpt><trkpt lat="38.865502" lon="21.1717614"><ele>1.6666666666666665</ele><time>2026-05-02T10:04:33.781Z</time></trkpt><trkpt lat="38.8655437" lon="21.171848"><ele>1.8333333333333333</ele><time>2026-05-02T10:04:34.782Z</time></trkpt><trkpt lat="38.8655867" lon="21.1719328"><ele>2.0</ele><time>2026-05-02T10:04:35.782Z</time></trkpt><trkpt lat="38.8656306" lon="21.1720142"><ele>2.0</ele><time>2026-05-02T10:04:36.78Z</time></trkpt><trkpt lat="38.8656736" lon="21.17209"><ele>1.9999999999999998</ele><time>2026-05-02T10:04:37.783Z</time></trkpt><trkpt lat="38.8657279" lon="21.1721626"><ele>2.0</ele><time>2026-05-02T10:04:38.78Z</time></trkpt><trkpt lat="38.8657668" lon="21.172247"><ele>2.0</ele><time>2026-05-02T10:04:39.78Z</time></trkpt><trkpt lat="38.8658045" lon="21.1723238"><ele>1.9999999999999998</ele><time>2026-05-02T10:04:40.782Z</time></trkpt><trkpt lat="38.865841" lon="21.1723967"><ele>2.0</ele><time>2026-05-02T10:04:41.781Z</time></trkpt><trkpt lat="38.8658842" lon="21.1724728"><ele>2.0</ele><time>2026-05-02T10:04:42.782Z</time></trkpt><trkpt lat="38.8659302" lon="21.172555"><ele>1.6666666666666665</ele><time>2026-05-02T10:04:43.782Z</time></trkpt><trkpt lat="38.865978" lon="21.1726384"><ele>1.3333333333333333</ele><time>2026-05-02T10:04:44.782Z</time></trkpt><trkpt lat="38.8660201" lon="21.1727357"><ele>1.0</ele><time>2026-05-02T10:04:45.78Z</time></trkpt><trkpt lat="38.8660562" lon="21.1728236"><ele>0.6666666666666666</ele><time>2026-05-02T10:04:46.782Z</time></trkpt><trkpt lat="38.866094" lon="21.1729085"><ele>0.3333333333333333</ele><time>2026-05-02T10:04:47.783Z</time></trkpt><trkpt lat="38.8661287" lon="21.1729884"><ele>0.0</ele><time>2026-05-02T10:04:48.78Z</time></trkpt><trkpt lat="38.8661598" lon="21.1730651"><ele>0.0</ele><time>2026-05-02T10:04:49.781Z</time></trkpt><trkpt lat="38.8661853" lon="21.1731427"><ele>0.0</ele><time>2026-05-02T10:04:50.781Z</time></trkpt><trkpt lat="38.8662179" lon="21.1732152"><ele>0.0</ele><time>2026-05-02T10:04:51.783Z</time></trkpt><trkpt lat="38.866231" lon="21.1733068"><ele>0.0</ele><time>2026-05-02T10:04:52.781Z</time></trkpt><trkpt lat="38.8662747" lon="21.1734546"><ele>0.0</ele><time>2026-05-02T10:04:54.781Z</time></trkpt><trkpt lat="38.8663037" lon="21.17353"><ele>0.0</ele><time>2026-05-02T10:04:55.781Z</time></trkpt><trkpt lat="38.8663252" lon="21.1736109"><ele>0.42857142857142855</ele><time>2026-05-02T10:04:56.78Z</time></trkpt><trkpt lat="38.8663529" lon="21.173711"><ele>0.8571428571428571</ele><time>2026-05-02T10:04:57.781Z</time></trkpt><trkpt lat="38.8663843" lon="21.1737871"><ele>1.2857142857142856</ele><time>2026-05-02T10:04:58.781Z</time></trkpt><trkpt lat="38.866418" lon="21.1738573"><ele>1.7142857142857142</ele><time>2026-05-02T10:04:59.782Z</time></trkpt><trkpt lat="38.8664498" lon="21.1739477"><ele>2.142857142857143</ele><time>2026-05-02T10:05:00.782Z</time></trkpt><trkpt lat="38.8664817" lon="21.1740328"><ele>2.571428571428571</ele><time>2026-05-02T10:05:01.781Z</time></trkpt><trkpt lat="38.8665082" lon="21.1741153"><ele>3.0</ele><time>2026-05-02T10:05:02.781Z</time></trkpt><trkpt lat="38.8665389" lon="21.1741937"><ele>3.5</ele><time>2026-05-02T10:05:03.78Z</time></trkpt><trkpt lat="38.8666042" lon="21.1743338"><ele>4.0</ele><time>2026-05-02T10:05:05.781Z</time></trkpt><trkpt lat="38.8666344" lon="21.1744106"><ele>4.5</ele><time>2026-05-02T10:05:06.783Z</time></trkpt><trkpt lat="38.8666757" lon="21.1744854"><ele>5.0</ele><time>2026-05-02T10:05:07.782Z</time></trkpt><trkpt lat="38.8667004" lon="21.1745634"><ele>5.5</ele><time>2026-05-02T10:05:08.782Z</time></trkpt><trkpt lat="38.8667348" lon="21.1746375"><ele>6.0</ele><time>2026-05-02T10:05:09.78Z</time></trkpt><trkpt lat="38.8667711" lon="21.1747093"><ele>5.428571428571428</ele><time>2026-05-02T10:05:10.781Z</time></trkpt><trkpt lat="38.8668094" lon="21.1747871"><ele>4.857142857142857</ele><time>2026-05-02T10:05:11.781Z</time></trkpt><trkpt lat="38.8668522" lon="21.1748632"><ele>4.285714285714286</ele><time>2026-05-02T10:05:12.782Z</time></trkpt><trkpt lat="38.866902" lon="21.1749349"><ele>3.714285714285714</ele><time>2026-05-02T10:05:13.782Z</time></trkpt><trkpt lat="38.8669533" lon="21.1750051"><ele>3.1428571428571423</ele><time>2026-05-02T10:05:14.782Z</time></trkpt><trkpt lat="38.8669988" lon="21.1750736"><ele>2.571428571428571</ele><time>2026-05-02T10:05:15.781Z</time></trkpt><trkpt lat="38.8670595" lon="21.1751346"><ele>2.0</ele><time>2026-05-02T10:05:16.782Z</time></trkpt><trkpt lat="38.8671192" lon="21.1751911"><ele>1.9999999999999998</ele><time>2026-05-02T10:05:17.783Z</time></trkpt><trkpt lat="38.8671795" lon="21.1752534"><ele>2.0</ele><time>2026-05-02T10:05:18.782Z</time></trkpt><trkpt lat="38.8672478" lon="21.175317"><ele>2.0</ele><time>2026-05-02T10:05:19.783Z</time></trkpt><trkpt lat="38.867318" lon="21.1753724"><ele>2.0</ele><time>2026-05-02T10:05:20.781Z</time></trkpt><trkpt lat="38.8673911" lon="21.1754257"><ele>1.9999999999999998</ele><time>2026-05-02T10:05:21.78Z</time></trkpt><trkpt lat="38.8674774" lon="21.17548"><ele>2.0</ele><time>2026-05-02T10:05:22.781Z</time></trkpt><trkpt lat="38.8675633" lon="21.1755335"><ele>2.2</ele><time>2026-05-02T10:05:23.781Z</time></trkpt><trkpt lat="38.8676543" lon="21.1755889"><ele>2.4000000000000004</ele><time>2026-05-02T10:05:24.782Z</time></trkpt><trkpt lat="38.8677397" lon="21.1756379"><ele>2.5999999999999996</ele><time>2026-05-02T10:05:25.781Z</time></trkpt><trkpt lat="38.8678307" lon="21.175682"><ele>2.8</ele><time>2026-05-02T10:05:26.782Z</time></trkpt><trkpt lat="38.8679337" lon="21.1757187"><ele>3.0</ele><time>2026-05-02T10:05:27.782Z</time></trkpt><trkpt lat="38.8680312" lon="21.1757463"><ele>5.4</ele><time>2026-05-02T10:05:28.78Z</time></trkpt><trkpt lat="38.8681284" lon="21.1757666"><ele>7.8</ele><time>2026-05-02T10:05:29.781Z</time></trkpt><trkpt lat="38.8682288" lon="21.1757642"><ele>10.2</ele><time>2026-05-02T10:05:30.783Z</time></trkpt><trkpt lat="38.8683369" lon="21.1757674"><ele>12.6</ele><time>2026-05-02T10:05:31.78Z</time></trkpt><trkpt lat="38.8684334" lon="21.1757753"><ele>15.0</ele><time>2026-05-02T10:05:32.784Z</time></trkpt><trkpt lat="38.8685309" lon="21.1757788"><ele>15.2</ele><time>2026-05-02T10:05:33.779Z</time></trkpt><trkpt lat="38.8686309" lon="21.1757753"><ele>15.4</ele><time>2026-05-02T10:05:34.781Z</time></trkpt><trkpt lat="38.8687344" lon="21.1757679"><ele>15.600000000000001</ele><time>2026-05-02T10:05:35.779Z</time></trkpt><trkpt lat="38.8688389" lon="21.1757596"><ele>15.8</ele><time>2026-05-02T10:05:36.782Z</time></trkpt><trkpt lat="38.8689428" lon="21.1757641"><ele>16.0</ele><time>2026-05-02T10:05:37.782Z</time></trkpt><trkpt lat="38.8690497" lon="21.175757"><ele>16.0</ele><time>2026-05-02T10:05:38.781Z</time></trkpt><trkpt lat="38.8691671" lon="21.1757325"><ele>16.0</ele><time>2026-05-02T10:05:39.781Z</time></trkpt><trkpt lat="38.8692831" lon="21.1757261"><ele>16.0</ele><time>2026-05-02T10:05:40.78Z</time></trkpt><trkpt lat="38.8694061" lon="21.1757128"><ele>16.0</ele><time>2026-05-02T10:05:41.781Z</time></trkpt><trkpt lat="38.8695273" lon="21.1757064"><ele>16.0</ele><time>2026-05-02T10:05:42.782Z</time></trkpt><trkpt lat="38.8696504" lon="21.1756993"><ele>16.0</ele><time>2026-05-02T10:05:43.781Z</time></trkpt><trkpt lat="38.8697821" lon="21.17569"><ele>16.0</ele><time>2026-05-02T10:05:44.782Z</time></trkpt><trkpt lat="38.8699019" lon="21.1756795"><ele>16.0</ele><time>2026-05-02T10:05:45.781Z</time></trkpt><trkpt lat="38.8700222" lon="21.1756672"><ele>12.25</ele><time>2026-05-02T10:05:46.781Z</time></trkpt><trkpt lat="38.8701458" lon="21.1756622"><ele>8.5</ele><time>2026-05-02T10:05:47.782Z</time></trkpt><trkpt lat="38.8702662" lon="21.1756502"><ele>4.75</ele><time>2026-05-02T10:05:48.783Z</time></trkpt><trkpt lat="38.8704054" lon="21.175634"><ele>1.0</ele><time>2026-05-02T10:05:49.781Z</time></trkpt><trkpt lat="38.8705305" lon="21.1756216"><ele>1.0</ele><time>2026-05-02T10:05:50.78Z</time></trkpt><trkpt lat="38.8706613" lon="21.1756078"><ele>1.0</ele><time>2026-05-02T10:05:51.782Z</time></trkpt><trkpt lat="38.8707923" lon="21.1756"><ele>1.0</ele><time>2026-05-02T10:05:52.779Z</time></trkpt><trkpt lat="38.8709344" lon="21.1755899"><ele>1.0</ele><time>2026-05-02T10:05:53.78Z</time></trkpt><trkpt lat="38.8710916" lon="21.1755818"><ele>2.3333333333333335</ele><time>2026-05-02T10:05:54.781Z</time></trkpt><trkpt lat="38.8712489" lon="21.1755713"><ele>3.666666666666667</ele><time>2026-05-02T10:05:55.78Z</time></trkpt><trkpt lat="38.8714047" lon="21.1755587"><ele>5.0</ele><time>2026-05-02T10:05:56.782Z</time></trkpt><trkpt lat="38.8715578" lon="21.1755516"><ele>5.0</ele><time>2026-05-02T10:05:57.781Z</time></trkpt><trkpt lat="38.8717055" lon="21.1755329"><ele>5.0</ele><time>2026-05-02T10:05:58.781Z</time></trkpt><trkpt lat="38.8718568" lon="21.1755204"><ele>5.0</ele><time>2026-05-02T10:05:59.781Z</time></trkpt><trkpt lat="38.8720097" lon="21.1755017"><ele>5.0</ele><time>2026-05-02T10:06:00.781Z</time></trkpt><trkpt lat="38.8721599" lon="21.1754905"><ele>5.0</ele><time>2026-05-02T10:06:01.782Z</time></trkpt><trkpt lat="38.8723029" lon="21.1754823"><ele>5.0</ele><time>2026-05-02T10:06:02.784Z</time></trkpt><trkpt lat="38.8724599" lon="21.1754688"><ele>5.0</ele><time>2026-05-02T10:06:03.782Z</time></trkpt><trkpt lat="38.8726161" lon="21.1754494"><ele>5.0</ele><time>2026-05-02T10:06:04.781Z</time></trkpt><trkpt lat="38.8727676" lon="21.1754359"><ele>5.0</ele><time>2026-05-02T10:06:05.782Z</time></trkpt><trkpt lat="38.8729181" lon="21.1754318"><ele>5.0</ele><time>2026-05-02T10:06:06.78Z</time></trkpt><trkpt lat="38.8730665" lon="21.1754248"><ele>5.0</ele><time>2026-05-02T10:06:07.782Z</time></trkpt><trkpt lat="38.8732227" lon="21.1754231"><ele>5.0</ele><time>2026-05-02T10:06:08.786Z</time></trkpt><trkpt lat="38.8733669" lon="21.1754247"><ele>5.0</ele><time>2026-05-02T10:06:09.78Z</time></trkpt><trkpt lat="38.8735126" lon="21.1754344"><ele>5.0</ele><time>2026-05-02T10:06:10.782Z</time></trkpt><trkpt lat="38.8736642" lon="21.175452"><ele>5.0</ele><time>2026-05-02T10:06:11.783Z</time></trkpt><trkpt lat="38.8738175" lon="21.1754701"><ele>5.0</ele><time>2026-05-02T10:06:12.781Z</time></trkpt><trkpt lat="38.8739872" lon="21.1754744"><ele>5.0</ele><time>2026-05-02T10:06:13.781Z</time></trkpt><trkpt lat="38.8741463" lon="21.1754933"><ele>5.0</ele><time>2026-05-02T10:06:14.78Z</time></trkpt><trkpt lat="38.8743057" lon="21.1755152"><ele>5.0</ele><time>2026-05-02T10:06:15.783Z</time></trkpt><trkpt lat="38.8744596" lon="21.1755404"><ele>3.3333333333333335</ele><time>2026-05-02T10:06:16.782Z</time></trkpt><trkpt lat="38.8746077" lon="21.1755701"><ele>1.6666666666666667</ele><time>2026-05-02T10:06:17.782Z</time></trkpt><trkpt lat="38.8747591" lon="21.1755998"><ele>0.0</ele><time>2026-05-02T10:06:18.781Z</time></trkpt><trkpt lat="38.8749076" lon="21.1756336"><ele>0.0</ele><time>2026-05-02T10:06:19.782Z</time></trkpt><trkpt lat="38.8750643" lon="21.1756758"><ele>0.0</ele><time>2026-05-02T10:06:20.782Z</time></trkpt><trkpt lat="38.8752224" lon="21.1757301"><ele>0.0</ele><time>2026-05-02T10:06:21.781Z</time></trkpt><trkpt lat="38.8753771" lon="21.1757954"><ele>4.333333333333333</ele><time>2026-05-02T10:06:22.78Z</time></trkpt><trkpt lat="38.8755327" lon="21.1758634"><ele>8.666666666666666</ele><time>2026-05-02T10:06:23.781Z</time></trkpt><trkpt lat="38.875677" lon="21.1759349"><ele>13.0</ele><time>2026-05-02T10:06:24.782Z</time></trkpt><trkpt lat="38.8758291" lon="21.1760043"><ele>9.666666666666666</ele><time>2026-05-02T10:06:25.783Z</time></trkpt><trkpt lat="38.8759752" lon="21.1760725"><ele>6.333333333333333</ele><time>2026-05-02T10:06:26.78Z</time></trkpt><trkpt lat="38.8761201" lon="21.1761403"><ele>3.0</ele><time>2026-05-02T10:06:27.78Z</time></trkpt><trkpt lat="38.8762667" lon="21.1761979"><ele>3.0</ele><time>2026-05-02T10:06:28.782Z</time></trkpt><trkpt lat="38.8764125" lon="21.1762532"><ele>3.0</ele><time>2026-05-02T10:06:29.78Z</time></trkpt><trkpt lat="38.8765609" lon="21.1762894"><ele>3.0</ele><time>2026-05-02T10:06:30.78Z</time></trkpt><trkpt lat="38.8767131" lon="21.176306"><ele>6.333333333333333</ele><time>2026-05-02T10:06:31.783Z</time></trkpt><trkpt lat="38.8768685" lon="21.1762975"><ele>9.666666666666666</ele><time>2026-05-02T10:06:32.781Z</time></trkpt><trkpt lat="38.8770246" lon="21.1762675"><ele>13.0</ele><time>2026-05-02T10:06:33.782Z</time></trkpt><trkpt lat="38.8771813" lon="21.1762159"><ele>13.0</ele><time>2026-05-02T10:06:34.784Z</time></trkpt><trkpt lat="38.8773332" lon="21.1761429"><ele>13.0</ele><time>2026-05-02T10:06:35.782Z</time></trkpt><trkpt lat="38.8774791" lon="21.1760562"><ele>13.0</ele><time>2026-05-02T10:06:36.782Z</time></trkpt><trkpt lat="38.8776192" lon="21.1759585"><ele>17.333333333333332</ele><time>2026-05-02T10:06:37.78Z</time></trkpt><trkpt lat="38.8777557" lon="21.1758523"><ele>21.666666666666664</ele><time>2026-05-02T10:06:38.781Z</time></trkpt><trkpt lat="38.8778993" lon="21.1757664"><ele>26.0</ele><time>2026-05-02T10:06:39.783Z</time></trkpt><trkpt lat="38.8780293" lon="21.1756918"><ele>20.75</ele><time>2026-05-02T10:06:40.782Z</time></trkpt><trkpt lat="38.8781649" lon="21.1756305"><ele>15.5</ele><time>2026-05-02T10:06:41.782Z</time></trkpt><trkpt lat="38.8783083" lon="21.1755758"><ele>10.25</ele><time>2026-05-02T10:06:42.782Z</time></trkpt><trkpt lat="38.8784591" lon="21.1755511"><ele>5.0</ele><time>2026-05-02T10:06:43.782Z</time></trkpt><trkpt lat="38.8786135" lon="21.1755363"><ele>4.666666666666667</ele><time>2026-05-02T10:06:44.781Z</time></trkpt><trkpt lat="38.8787673" lon="21.1755345"><ele>4.333333333333333</ele><time>2026-05-02T10:06:45.78Z</time></trkpt><trkpt lat="38.8789281" lon="21.1755419"><ele>4.0</ele><time>2026-05-02T10:06:46.78Z</time></trkpt><trkpt lat="38.8791089" lon="21.1755449"><ele>6.0</ele><time>2026-05-02T10:06:47.782Z</time></trkpt><trkpt lat="38.8792967" lon="21.1755588"><ele>8.0</ele><time>2026-05-02T10:06:48.782Z</time></trkpt><trkpt lat="38.8794818" lon="21.175557"><ele>10.0</ele><time>2026-05-02T10:06:49.782Z</time></trkpt><trkpt lat="38.879658" lon="21.1755197"><ele>10.0</ele><time>2026-05-02T10:06:50.783Z</time></trkpt><trkpt lat="38.8798263" lon="21.1754439"><ele>10.0</ele><time>2026-05-02T10:06:51.78Z</time></trkpt><trkpt lat="38.8799841" lon="21.1753257"><ele>10.0</ele><time>2026-05-02T10:06:52.783Z</time></trkpt><trkpt lat="38.8801318" lon="21.175184"><ele>11.666666666666668</ele><time>2026-05-02T10:06:53.781Z</time></trkpt><trkpt lat="38.8802705" lon="21.1750288"><ele>13.333333333333334</ele><time>2026-05-02T10:06:54.782Z</time></trkpt><trkpt lat="38.8803989" lon="21.1748579"><ele>15.0</ele><time>2026-05-02T10:06:55.783Z</time></trkpt><trkpt lat="38.8805267" lon="21.1746514"><ele>15.0</ele><time>2026-05-02T10:06:56.78Z</time></trkpt><trkpt lat="38.8806531" lon="21.1744666"><ele>15.0</ele><time>2026-05-02T10:06:57.779Z</time></trkpt><trkpt lat="38.8807803" lon="21.1742775"><ele>15.0</ele><time>2026-05-02T10:06:58.782Z</time></trkpt><trkpt lat="38.880917" lon="21.1741056"><ele>14.0</ele><time>2026-05-02T10:06:59.783Z</time></trkpt><trkpt lat="38.8810632" lon="21.1739384"><ele>13.0</ele><time>2026-05-02T10:07:00.78Z</time></trkpt><trkpt lat="38.881223" lon="21.1737823"><ele>12.0</ele><time>2026-05-02T10:07:01.781Z</time></trkpt><trkpt lat="38.8813919" lon="21.173623"><ele>12.0</ele><time>2026-05-02T10:07:02.78Z</time></trkpt><trkpt lat="38.881564" lon="21.17349"><ele>12.0</ele><time>2026-05-02T10:07:03.783Z</time></trkpt><trkpt lat="38.8817576" lon="21.1733734"><ele>12.0</ele><time>2026-05-02T10:07:04.78Z</time></trkpt><trkpt lat="38.881963" lon="21.1732806"><ele>7.5</ele><time>2026-05-02T10:07:05.783Z</time></trkpt><trkpt lat="38.8821743" lon="21.1731992"><ele>3.0</ele><time>2026-05-02T10:07:06.78Z</time></trkpt><trkpt lat="38.8824014" lon="21.1731323"><ele>4.5</ele><time>2026-05-02T10:07:07.782Z</time></trkpt><trkpt lat="38.8826191" lon="21.1730793"><ele>6.0</ele><time>2026-05-02T10:07:08.781Z</time></trkpt><trkpt lat="38.8828554" lon="21.1730213"><ele>6.0</ele><time>2026-05-02T10:07:09.782Z</time></trkpt><trkpt lat="38.8830872" lon="21.1729849"><ele>6.0</ele><time>2026-05-02T10:07:10.781Z</time></trkpt><trkpt lat="38.8833122" lon="21.1729525"><ele>6.5</ele><time>2026-05-02T10:07:11.782Z</time></trkpt><trkpt lat="38.8835415" lon="21.1729165"><ele>7.0</ele><time>2026-05-02T10:07:12.783Z</time></trkpt><trkpt lat="38.8837701" lon="21.1728882"><ele>7.0</ele><time>2026-05-02T10:07:13.783Z</time></trkpt><trkpt lat="38.8839816" lon="21.1728552"><ele>7.0</ele><time>2026-05-02T10:07:14.782Z</time></trkpt><trkpt lat="38.8841829" lon="21.1727906"><ele>7.0</ele><time>2026-05-02T10:07:15.786Z</time></trkpt><trkpt lat="38.8843826" lon="21.1727027"><ele>6.666666666666667</ele><time>2026-05-02T10:07:16.781Z</time></trkpt><trkpt lat="38.8845718" lon="21.1725751"><ele>6.333333333333334</ele><time>2026-05-02T10:07:17.782Z</time></trkpt><trkpt lat="38.8847557" lon="21.1724046"><ele>6.0</ele><time>2026-05-02T10:07:18.783Z</time></trkpt><trkpt lat="38.8849301" lon="21.1722344"><ele>9.666666666666668</ele><time>2026-05-02T10:07:19.782Z</time></trkpt><trkpt lat="38.8850979" lon="21.172062"><ele>13.333333333333334</ele><time>2026-05-02T10:07:20.785Z</time></trkpt><trkpt lat="38.8852692" lon="21.1718922"><ele>17.0</ele><time>2026-05-02T10:07:21.781Z</time></trkpt><trkpt lat="38.8854452" lon="21.1717331"><ele>17.0</ele><time>2026-05-02T10:07:22.782Z</time></trkpt><trkpt lat="38.8856294" lon="21.1715958"><ele>17.0</ele><time>2026-05-02T10:07:23.78Z</time></trkpt><trkpt lat="38.8858217" lon="21.1714772"><ele>17.0</ele><time>2026-05-02T10:07:24.781Z</time></trkpt><trkpt lat="38.8860205" lon="21.1713743"><ele>12.0</ele><time>2026-05-02T10:07:25.781Z</time></trkpt><trkpt lat="38.8862222" lon="21.1712855"><ele>7.0</ele><time>2026-05-02T10:07:26.779Z</time></trkpt><trkpt lat="38.8864205" lon="21.1712248"><ele>2.0</ele><time>2026-05-02T10:07:27.781Z</time></trkpt><trkpt lat="38.8866309" lon="21.1711782"><ele>2.0</ele><time>2026-05-02T10:07:28.781Z</time></trkpt><trkpt lat="38.8868451" lon="21.171158"><ele>2.0</ele><time>2026-05-02T10:07:29.78Z</time></trkpt><trkpt lat="38.8870678" lon="21.1711538"><ele>2.0</ele><time>2026-05-02T10:07:30.782Z</time></trkpt><trkpt lat="38.8872889" lon="21.1711515"><ele>2.0</ele><time>2026-05-02T10:07:31.782Z</time></trkpt><trkpt lat="38.8875198" lon="21.1711622"><ele>2.0</ele><time>2026-05-02T10:07:32.782Z</time></trkpt><trkpt lat="38.8877493" lon="21.1711716"><ele>3.0</ele><time>2026-05-02T10:07:33.782Z</time></trkpt><trkpt lat="38.8879813" lon="21.1711729"><ele>4.0</ele><time>2026-05-02T10:07:34.779Z</time></trkpt><trkpt lat="38.8882111" lon="21.1711789"><ele>6.0</ele><time>2026-05-02T10:07:35.78Z</time></trkpt><trkpt lat="38.8884356" lon="21.1711955"><ele>8.0</ele><time>2026-05-02T10:07:36.781Z</time></trkpt><trkpt lat="38.8886578" lon="21.1712048"><ele>10.0</ele><time>2026-05-02T10:07:37.781Z</time></trkpt><trkpt lat="38.8888726" lon="21.1712017"><ele>10.0</ele><time>2026-05-02T10:07:38.781Z</time></trkpt><trkpt lat="38.8890821" lon="21.1711809"><ele>10.0</ele><time>2026-05-02T10:07:39.781Z</time></trkpt><trkpt lat="38.889287" lon="21.1711356"><ele>10.0</ele><time>2026-05-02T10:07:40.781Z</time></trkpt><trkpt lat="38.8895009" lon="21.1710627"><ele>11.333333333333334</ele><time>2026-05-02T10:07:41.78Z</time></trkpt><trkpt lat="38.8896969" lon="21.1709651"><ele>12.666666666666668</ele><time>2026-05-02T10:07:42.781Z</time></trkpt><trkpt lat="38.8898931" lon="21.1708527"><ele>14.0</ele><time>2026-05-02T10:07:43.783Z</time></trkpt><trkpt lat="38.8900937" lon="21.1707219"><ele>13.0</ele><time>2026-05-02T10:07:44.781Z</time></trkpt><trkpt lat="38.8902851" lon="21.1705899"><ele>12.0</ele><time>2026-05-02T10:07:45.783Z</time></trkpt><trkpt lat="38.8904774" lon="21.1704597"><ele>11.0</ele><time>2026-05-02T10:07:46.782Z</time></trkpt><trkpt lat="38.8906656" lon="21.1703346"><ele>11.0</ele><time>2026-05-02T10:07:47.782Z</time></trkpt><trkpt lat="38.8908522" lon="21.1702229"><ele>11.0</ele><time>2026-05-02T10:07:48.782Z</time></trkpt><trkpt lat="38.8910437" lon="21.1701001"><ele>11.0</ele><time>2026-05-02T10:07:49.782Z</time></trkpt><trkpt lat="38.8912389" lon="21.1700145"><ele>14.333333333333332</ele><time>2026-05-02T10:07:50.78Z</time></trkpt><trkpt lat="38.8914554" lon="21.1699425"><ele>17.666666666666668</ele><time>2026-05-02T10:07:51.782Z</time></trkpt><trkpt lat="38.8916693" lon="21.1699144"><ele>21.0</ele><time>2026-05-02T10:07:52.78Z</time></trkpt><trkpt lat="38.8918959" lon="21.1698969"><ele>24.5</ele><time>2026-05-02T10:07:53.781Z</time></trkpt><trkpt lat="38.8921268" lon="21.1698859"><ele>28.0</ele><time>2026-05-02T10:07:54.781Z</time></trkpt><trkpt lat="38.8923537" lon="21.1698925"><ele>26.5</ele><time>2026-05-02T10:07:55.782Z</time></trkpt><trkpt lat="38.8925897" lon="21.1698838"><ele>25.0</ele><time>2026-05-02T10:07:56.783Z</time></trkpt><trkpt lat="38.8928248" lon="21.1698854"><ele>25.0</ele><time>2026-05-02T10:07:57.781Z</time></trkpt><trkpt lat="38.8930573" lon="21.1698781"><ele>25.0</ele><time>2026-05-02T10:07:58.78Z</time></trkpt><trkpt lat="38.8932872" lon="21.169851"><ele>17.5</ele><time>2026-05-02T10:07:59.781Z</time></trkpt><trkpt lat="38.8935137" lon="21.1697942"><ele>10.0</ele><time>2026-05-02T10:08:00.781Z</time></trkpt><trkpt lat="38.8937394" lon="21.1697396"><ele>10.0</ele><time>2026-05-02T10:08:01.779Z</time></trkpt><trkpt lat="38.8939731" lon="21.1696825"><ele>10.0</ele><time>2026-05-02T10:08:02.78Z</time></trkpt><trkpt lat="38.8941972" lon="21.1696248"><ele>15.5</ele><time>2026-05-02T10:08:03.782Z</time></trkpt><trkpt lat="38.8944188" lon="21.1695674"><ele>21.0</ele><time>2026-05-02T10:08:04.78Z</time></trkpt><trkpt lat="38.894639" lon="21.1695068"><ele>21.0</ele><time>2026-05-02T10:08:05.78Z</time></trkpt><trkpt lat="38.8948624" lon="21.1694445"><ele>21.0</ele><time>2026-05-02T10:08:06.779Z</time></trkpt><trkpt lat="38.8950739" lon="21.1694052"><ele>21.0</ele><time>2026-05-02T10:08:07.78Z</time></trkpt><trkpt lat="38.8952919" lon="21.1693481"><ele>22.666666666666664</ele><time>2026-05-02T10:08:08.782Z</time></trkpt><trkpt lat="38.8955057" lon="21.1692786"><ele>24.333333333333332</ele><time>2026-05-02T10:08:09.779Z</time></trkpt><trkpt lat="38.8957188" lon="21.1692181"><ele>26.0</ele><time>2026-05-02T10:08:10.782Z</time></trkpt><trkpt lat="38.8959313" lon="21.169162"><ele>29.0</ele><time>2026-05-02T10:08:11.782Z</time></trkpt><trkpt lat="38.896148" lon="21.1691126"><ele>32.0</ele><time>2026-05-02T10:08:12.78Z</time></trkpt><trkpt lat="38.8963681" lon="21.1690626"><ele>35.0</ele><time>2026-05-02T10:08:13.78Z</time></trkpt><trkpt lat="38.8965835" lon="21.1690225"><ele>27.333333333333332</ele><time>2026-05-02T10:08:14.78Z</time></trkpt><trkpt lat="38.8968049" lon="21.1689956"><ele>19.666666666666664</ele><time>2026-05-02T10:08:15.78Z</time></trkpt><trkpt lat="38.8970305" lon="21.1689741"><ele>12.0</ele><time>2026-05-02T10:08:16.783Z</time></trkpt><trkpt lat="38.897249" lon="21.1689567"><ele>12.0</ele><time>2026-05-02T10:08:17.78Z</time></trkpt><trkpt lat="38.8974639" lon="21.1689422"><ele>12.0</ele><time>2026-05-02T10:08:18.78Z</time></trkpt><trkpt lat="38.8976859" lon="21.1689457"><ele>12.0</ele><time>2026-05-02T10:08:19.78Z</time></trkpt><trkpt lat="38.8979095" lon="21.1689445"><ele>12.0</ele><time>2026-05-02T10:08:20.78Z</time></trkpt><trkpt lat="38.8981268" lon="21.1689476"><ele>12.0</ele><time>2026-05-02T10:08:21.78Z</time></trkpt><trkpt lat="38.8983448" lon="21.168953"><ele>12.0</ele><time>2026-05-02T10:08:22.779Z</time></trkpt><trkpt lat="38.8985651" lon="21.1689398"><ele>12.666666666666668</ele><time>2026-05-02T10:08:23.779Z</time></trkpt><trkpt lat="38.8987847" lon="21.1689414"><ele>13.333333333333334</ele><time>2026-05-02T10:08:24.781Z</time></trkpt><trkpt lat="38.8990042" lon="21.1689473"><ele>14.0</ele><time>2026-05-02T10:08:25.779Z</time></trkpt><trkpt lat="38.8992153" lon="21.1689532"><ele>15.666666666666668</ele><time>2026-05-02T10:08:26.779Z</time></trkpt><trkpt lat="38.899429" lon="21.1689627"><ele>17.333333333333332</ele><time>2026-05-02T10:08:27.781Z</time></trkpt><trkpt lat="38.8996513" lon="21.1689666"><ele>19.0</ele><time>2026-05-02T10:08:28.781Z</time></trkpt><trkpt lat="38.8998636" lon="21.1689817"><ele>19.0</ele><time>2026-05-02T10:08:29.781Z</time></trkpt><trkpt lat="38.9000804" lon="21.1689901"><ele>19.0</ele><time>2026-05-02T10:08:30.779Z</time></trkpt><trkpt lat="38.9002941" lon="21.1690002"><ele>19.0</ele><time>2026-05-02T10:08:31.781Z</time></trkpt><trkpt lat="38.9005051" lon="21.1690026"><ele>23.0</ele><time>2026-05-02T10:08:32.78Z</time></trkpt><trkpt lat="38.900717" lon="21.1690066"><ele>27.0</ele><time>2026-05-02T10:08:33.781Z</time></trkpt><trkpt lat="38.9009363" lon="21.168999"><ele>31.0</ele><time>2026-05-02T10:08:34.78Z</time></trkpt><trkpt lat="38.901154" lon="21.1690065"><ele>31.333333333333336</ele><time>2026-05-02T10:08:35.78Z</time></trkpt><trkpt lat="38.9013666" lon="21.1690168"><ele>31.666666666666664</ele><time>2026-05-02T10:08:36.779Z</time></trkpt><trkpt lat="38.9015746" lon="21.1690316"><ele>32.0</ele><time>2026-05-02T10:08:37.778Z</time></trkpt><trkpt lat="38.9017876" lon="21.1690523"><ele>34.666666666666664</ele><time>2026-05-02T10:08:38.778Z</time></trkpt><trkpt lat="38.9019995" lon="21.1690747"><ele>37.333333333333336</ele><time>2026-05-02T10:08:39.779Z</time></trkpt><trkpt lat="38.9022153" lon="21.169108"><ele>40.0</ele><time>2026-05-02T10:08:40.78Z</time></trkpt><trkpt lat="38.9024185" lon="21.1691494"><ele>41.66666666666667</ele><time>2026-05-02T10:08:41.781Z</time></trkpt><trkpt lat="38.9026275" lon="21.1691913"><ele>43.333333333333336</ele><time>2026-05-02T10:08:42.78Z</time></trkpt><trkpt lat="38.9028337" lon="21.1692357"><ele>45.0</ele><time>2026-05-02T10:08:43.779Z</time></trkpt><trkpt lat="38.903047" lon="21.1692817"><ele>45.0</ele><time>2026-05-02T10:08:44.78Z</time></trkpt><trkpt lat="38.9032554" lon="21.1693301"><ele>45.0</ele><time>2026-05-02T10:08:45.78Z</time></trkpt><trkpt lat="38.9034635" lon="21.1693757"><ele>45.0</ele><time>2026-05-02T10:08:46.779Z</time></trkpt><trkpt lat="38.9036764" lon="21.1694225"><ele>46.66666666666667</ele><time>2026-05-02T10:08:47.778Z</time></trkpt><trkpt lat="38.9038895" lon="21.1694669"><ele>48.333333333333336</ele><time>2026-05-02T10:08:48.78Z</time></trkpt><trkpt lat="38.9041149" lon="21.1694637"><ele>50.0</ele><time>2026-05-02T10:08:49.779Z</time></trkpt><trkpt lat="38.9043227" lon="21.1694976"><ele>50.66666666666667</ele><time>2026-05-02T10:08:50.779Z</time></trkpt><trkpt lat="38.9045267" lon="21.1695235"><ele>51.33333333333333</ele><time>2026-05-02T10:08:51.779Z</time></trkpt><trkpt lat="38.904731" lon="21.1695471"><ele>52.0</ele><time>2026-05-02T10:08:52.779Z</time></trkpt><trkpt lat="38.9049297" lon="21.1695637"><ele>52.0</ele><time>2026-05-02T10:08:53.781Z</time></trkpt><trkpt lat="38.9051206" lon="21.1695644"><ele>52.0</ele><time>2026-05-02T10:08:54.779Z</time></trkpt><trkpt lat="38.9052989" lon="21.1695612"><ele>52.0</ele><time>2026-05-02T10:08:55.78Z</time></trkpt><trkpt lat="38.9054682" lon="21.1695545"><ele>52.0</ele><time>2026-05-02T10:08:56.781Z</time></trkpt><trkpt lat="38.9056292" lon="21.1695519"><ele>52.0</ele><time>2026-05-02T10:08:57.779Z</time></trkpt><trkpt lat="38.9057844" lon="21.1695588"><ele>52.0</ele><time>2026-05-02T10:08:58.78Z</time></trkpt><trkpt lat="38.9059192" lon="21.169548"><ele>51.400000000000006</ele><time>2026-05-02T10:08:59.779Z</time></trkpt><trkpt lat="38.9060381" lon="21.1695327"><ele>50.800000000000004</ele><time>2026-05-02T10:09:00.78Z</time></trkpt><trkpt lat="38.9061387" lon="21.1695194"><ele>50.2</ele><time>2026-05-02T10:09:01.782Z</time></trkpt><trkpt lat="38.9062198" lon="21.1695053"><ele>49.6</ele><time>2026-05-02T10:09:02.779Z</time></trkpt><trkpt lat="38.9063169" lon="21.169484"><ele>49.0</ele><time>2026-05-02T10:09:04.78Z</time></trkpt><trkpt lat="38.9063811" lon="21.1694728"><ele>48.99999999999999</ele><time>2026-05-02T10:09:33.78Z</time></trkpt><trkpt lat="38.9064684" lon="21.1694311"><ele>49.0</ele><time>2026-05-02T10:09:35.785Z</time></trkpt><trkpt lat="38.9065355" lon="21.1694217"><ele>49.0</ele><time>2026-05-02T10:09:36.78Z</time></trkpt><trkpt lat="38.9066001" lon="21.1694149"><ele>49.0</ele><time>2026-05-02T10:09:37.782Z</time></trkpt><trkpt lat="38.9066787" lon="21.1693998"><ele>48.99999999999999</ele><time>2026-05-02T10:09:38.783Z</time></trkpt><trkpt lat="38.9067668" lon="21.1693825"><ele>49.0</ele><time>2026-05-02T10:09:39.783Z</time></trkpt><trkpt lat="38.9068688" lon="21.169358"><ele>48.0</ele><time>2026-05-02T10:09:40.783Z</time></trkpt><trkpt lat="38.9069899" lon="21.1693403"><ele>47.0</ele><time>2026-05-02T10:09:41.782Z</time></trkpt><trkpt lat="38.9071187" lon="21.1693121"><ele>46.0</ele><time>2026-05-02T10:09:42.751Z</time></trkpt><trkpt lat="38.9072516" lon="21.1692812"><ele>45.0</ele><time>2026-05-02T10:09:43.752Z</time></trkpt><trkpt lat="38.9073994" lon="21.1692478"><ele>45.0</ele><time>2026-05-02T10:09:44.752Z</time></trkpt><trkpt lat="38.9075571" lon="21.1692193"><ele>45.0</ele><time>2026-05-02T10:09:45.752Z</time></trkpt><trkpt lat="38.9076983" lon="21.16919"><ele>45.0</ele><time>2026-05-02T10:09:46.753Z</time></trkpt><trkpt lat="38.9078531" lon="21.1691599"><ele>43.0</ele><time>2026-05-02T10:09:47.753Z</time></trkpt><trkpt lat="38.9080065" lon="21.1691283"><ele>41.0</ele><time>2026-05-02T10:09:48.752Z</time></trkpt><trkpt lat="38.9081605" lon="21.169097"><ele>39.0</ele><time>2026-05-02T10:09:49.752Z</time></trkpt><trkpt lat="38.9083168" lon="21.1690594"><ele>37.333333333333336</ele><time>2026-05-02T10:09:50.753Z</time></trkpt><trkpt lat="38.9084759" lon="21.1690262"><ele>35.66666666666667</ele><time>2026-05-02T10:09:51.753Z</time></trkpt><trkpt lat="38.9086434" lon="21.1689918"><ele>34.0</ele><time>2026-05-02T10:09:52.752Z</time></trkpt><trkpt lat="38.9088129" lon="21.1689576"><ele>36.66666666666667</ele><time>2026-05-02T10:09:53.752Z</time></trkpt><trkpt lat="38.9089871" lon="21.1689257"><ele>39.333333333333336</ele><time>2026-05-02T10:09:54.753Z</time></trkpt><trkpt lat="38.9091603" lon="21.1688938"><ele>42.0</ele><time>2026-05-02T10:09:55.753Z</time></trkpt><trkpt lat="38.9093339" lon="21.1688627"><ele>42.0</ele><time>2026-05-02T10:09:56.752Z</time></trkpt><trkpt lat="38.9095099" lon="21.1688277"><ele>42.0</ele><time>2026-05-02T10:09:57.753Z</time></trkpt><trkpt lat="38.9096851" lon="21.1687963"><ele>42.0</ele><time>2026-05-02T10:09:58.753Z</time></trkpt><trkpt lat="38.9098625" lon="21.1687635"><ele>42.0</ele><time>2026-05-02T10:09:59.752Z</time></trkpt><trkpt lat="38.9100387" lon="21.1687298"><ele>42.0</ele><time>2026-05-02T10:10:00.752Z</time></trkpt><trkpt lat="38.9102294" lon="21.1686878"><ele>42.0</ele><time>2026-05-02T10:10:01.753Z</time></trkpt><trkpt lat="38.9103953" lon="21.1686539"><ele>41.333333333333336</ele><time>2026-05-02T10:10:02.752Z</time></trkpt><trkpt lat="38.9105727" lon="21.1686167"><ele>40.66666666666667</ele><time>2026-05-02T10:10:03.752Z</time></trkpt><trkpt lat="38.9107496" lon="21.1685813"><ele>40.0</ele><time>2026-05-02T10:10:04.753Z</time></trkpt><trkpt lat="38.9109245" lon="21.1685484"><ele>40.0</ele><time>2026-05-02T10:10:05.753Z</time></trkpt><trkpt lat="38.9111011" lon="21.1685179"><ele>40.0</ele><time>2026-05-02T10:10:06.752Z</time></trkpt><trkpt lat="38.9112835" lon="21.1684892"><ele>40.0</ele><time>2026-05-02T10:10:07.753Z</time></trkpt><trkpt lat="38.9114702" lon="21.1684713"><ele>40.0</ele><time>2026-05-02T10:10:08.752Z</time></trkpt><trkpt lat="38.9116596" lon="21.1684632"><ele>40.0</ele><time>2026-05-02T10:10:09.752Z</time></trkpt><trkpt lat="38.911849" lon="21.1684616"><ele>40.0</ele><time>2026-05-02T10:10:10.752Z</time></trkpt><trkpt lat="38.9120402" lon="21.1684794"><ele>39.333333333333336</ele><time>2026-05-02T10:10:11.752Z</time></trkpt><trkpt lat="38.912232" lon="21.1685124"><ele>38.666666666666664</ele><time>2026-05-02T10:10:12.753Z</time></trkpt><trkpt lat="38.9124221" lon="21.1685662"><ele>38.0</ele><time>2026-05-02T10:10:13.753Z</time></trkpt><trkpt lat="38.9126061" lon="21.1686388"><ele>39.33333333333333</ele><time>2026-05-02T10:10:14.752Z</time></trkpt><trkpt lat="38.9127937" lon="21.1687191"><ele>40.666666666666664</ele><time>2026-05-02T10:10:15.752Z</time></trkpt><trkpt lat="38.9129713" lon="21.1688238"><ele>42.0</ele><time>2026-05-02T10:10:16.752Z</time></trkpt><trkpt lat="38.9131554" lon="21.1689523"><ele>40.666666666666664</ele><time>2026-05-02T10:10:17.753Z</time></trkpt><trkpt lat="38.9133104" lon="21.1690839"><ele>39.33333333333333</ele><time>2026-05-02T10:10:18.752Z</time></trkpt><trkpt lat="38.9134647" lon="21.169239"><ele>38.0</ele><time>2026-05-02T10:10:19.752Z</time></trkpt><trkpt lat="38.9136097" lon="21.1694107"><ele>38.0</ele><time>2026-05-02T10:10:20.752Z</time></trkpt><trkpt lat="38.9137495" lon="21.1695964"><ele>38.0</ele><time>2026-05-02T10:10:21.752Z</time></trkpt><trkpt lat="38.9138831" lon="21.1697915"><ele>38.0</ele><time>2026-05-02T10:10:22.753Z</time></trkpt><trkpt lat="38.9140108" lon="21.1699995"><ele>36.666666666666664</ele><time>2026-05-02T10:10:23.752Z</time></trkpt><trkpt lat="38.9141339" lon="21.1702119"><ele>35.333333333333336</ele><time>2026-05-02T10:10:24.753Z</time></trkpt><trkpt lat="38.9142534" lon="21.1704244"><ele>34.0</ele><time>2026-05-02T10:10:25.753Z</time></trkpt><trkpt lat="38.9143718" lon="21.1706379"><ele>36.0</ele><time>2026-05-02T10:10:26.752Z</time></trkpt><trkpt lat="38.9144907" lon="21.1708499"><ele>38.0</ele><time>2026-05-02T10:10:27.752Z</time></trkpt><trkpt lat="38.9146083" lon="21.1710646"><ele>40.0</ele><time>2026-05-02T10:10:28.753Z</time></trkpt><trkpt lat="38.9147283" lon="21.1712755"><ele>40.0</ele><time>2026-05-02T10:10:29.753Z</time></trkpt><trkpt lat="38.9148436" lon="21.1714906"><ele>40.0</ele><time>2026-05-02T10:10:30.752Z</time></trkpt><trkpt lat="38.9149585" lon="21.1717062"><ele>40.0</ele><time>2026-05-02T10:10:31.752Z</time></trkpt><trkpt lat="38.9150752" lon="21.1719229"><ele>39.66666666666667</ele><time>2026-05-02T10:10:32.752Z</time></trkpt><trkpt lat="38.9152023" lon="21.1721532"><ele>39.333333333333336</ele><time>2026-05-02T10:10:33.752Z</time></trkpt><trkpt lat="38.9153147" lon="21.1723548"><ele>39.0</ele><time>2026-05-02T10:10:34.753Z</time></trkpt><trkpt lat="38.9154362" lon="21.1725725"><ele>39.0</ele><time>2026-05-02T10:10:35.752Z</time></trkpt><trkpt lat="38.9155592" lon="21.1727874"><ele>39.0</ele><time>2026-05-02T10:10:36.753Z</time></trkpt><trkpt lat="38.9156793" lon="21.173005"><ele>39.0</ele><time>2026-05-02T10:10:37.752Z</time></trkpt><trkpt lat="38.9157998" lon="21.1732219"><ele>39.333333333333336</ele><time>2026-05-02T10:10:38.753Z</time></trkpt><trkpt lat="38.9159205" lon="21.1734366"><ele>39.66666666666667</ele><time>2026-05-02T10:10:39.752Z</time></trkpt><trkpt lat="38.9160417" lon="21.173653"><ele>40.0</ele><time>2026-05-02T10:10:40.752Z</time></trkpt><trkpt lat="38.9161632" lon="21.1738694"><ele>38.66666666666667</ele><time>2026-05-02T10:10:41.752Z</time></trkpt><trkpt lat="38.9162835" lon="21.1740851"><ele>37.333333333333336</ele><time>2026-05-02T10:10:42.753Z</time></trkpt><trkpt lat="38.9164031" lon="21.1742985"><ele>36.0</ele><time>2026-05-02T10:10:43.752Z</time></trkpt><trkpt lat="38.9165217" lon="21.1745111"><ele>36.0</ele><time>2026-05-02T10:10:44.752Z</time></trkpt><trkpt lat="38.9166397" lon="21.1747231"><ele>36.0</ele><time>2026-05-02T10:10:45.752Z</time></trkpt><trkpt lat="38.9167594" lon="21.1749337"><ele>36.0</ele><time>2026-05-02T10:10:46.753Z</time></trkpt><trkpt lat="38.9168775" lon="21.1751484"><ele>35.666666666666664</ele><time>2026-05-02T10:10:47.752Z</time></trkpt><trkpt lat="38.9169949" lon="21.1753635"><ele>35.33333333333333</ele><time>2026-05-02T10:10:48.753Z</time></trkpt><trkpt lat="38.9171184" lon="21.1755901"><ele>35.0</ele><time>2026-05-02T10:10:49.752Z</time></trkpt><trkpt lat="38.9172282" lon="21.1757865"><ele>34.666666666666664</ele><time>2026-05-02T10:10:50.753Z</time></trkpt><trkpt lat="38.9173439" lon="21.1759983"><ele>34.333333333333336</ele><time>2026-05-02T10:10:51.753Z</time></trkpt><trkpt lat="38.9174582" lon="21.176212"><ele>34.0</ele><time>2026-05-02T10:10:52.752Z</time></trkpt><trkpt lat="38.9175712" lon="21.1764266"><ele>33.66666666666667</ele><time>2026-05-02T10:10:53.752Z</time></trkpt><trkpt lat="38.9176838" lon="21.1766419"><ele>33.333333333333336</ele><time>2026-05-02T10:10:54.753Z</time></trkpt><trkpt lat="38.9177946" lon="21.1768555"><ele>33.0</ele><time>2026-05-02T10:10:55.752Z</time></trkpt><trkpt lat="38.9179041" lon="21.1770682"><ele>33.0</ele><time>2026-05-02T10:10:56.753Z</time></trkpt><trkpt lat="38.9180107" lon="21.1772808"><ele>33.0</ele><time>2026-05-02T10:10:57.753Z</time></trkpt><trkpt lat="38.9181175" lon="21.1774919"><ele>33.0</ele><time>2026-05-02T10:10:58.753Z</time></trkpt><trkpt lat="38.9182226" lon="21.1777011"><ele>32.0</ele><time>2026-05-02T10:10:59.752Z</time></trkpt><trkpt lat="38.9183317" lon="21.1779061"><ele>31.0</ele><time>2026-05-02T10:11:00.753Z</time></trkpt><trkpt lat="38.9184326" lon="21.1781011"><ele>30.0</ele><time>2026-05-02T10:11:01.752Z</time></trkpt><trkpt lat="38.9185335" lon="21.1782883"><ele>28.0</ele><time>2026-05-02T10:11:02.752Z</time></trkpt><trkpt lat="38.9186446" lon="21.1784654"><ele>26.0</ele><time>2026-05-02T10:11:03.752Z</time></trkpt><trkpt lat="38.9187692" lon="21.1786287"><ele>24.0</ele><time>2026-05-02T10:11:04.753Z</time></trkpt><trkpt lat="38.9189161" lon="21.178787"><ele>24.0</ele><time>2026-05-02T10:11:05.752Z</time></trkpt><trkpt lat="38.919064" lon="21.1789055"><ele>24.0</ele><time>2026-05-02T10:11:06.753Z</time></trkpt><trkpt lat="38.9192363" lon="21.1790063"><ele>24.0</ele><time>2026-05-02T10:11:07.753Z</time></trkpt><trkpt lat="38.9194179" lon="21.1790777"><ele>24.333333333333336</ele><time>2026-05-02T10:11:08.753Z</time></trkpt><trkpt lat="38.9196035" lon="21.1791196"><ele>24.666666666666668</ele><time>2026-05-02T10:11:09.752Z</time></trkpt><trkpt lat="38.9197915" lon="21.1791213"><ele>25.0</ele><time>2026-05-02T10:11:10.753Z</time></trkpt><trkpt lat="38.9199895" lon="21.179086"><ele>24.666666666666668</ele><time>2026-05-02T10:11:11.753Z</time></trkpt><trkpt lat="38.9201957" lon="21.1790261"><ele>24.333333333333336</ele><time>2026-05-02T10:11:12.753Z</time></trkpt><trkpt lat="38.9204161" lon="21.1789516"><ele>24.0</ele><time>2026-05-02T10:11:13.753Z</time></trkpt><trkpt lat="38.9206483" lon="21.178865"><ele>23.5</ele><time>2026-05-02T10:11:14.753Z</time></trkpt><trkpt lat="38.9208802" lon="21.1787716"><ele>23.0</ele><time>2026-05-02T10:11:15.752Z</time></trkpt><trkpt lat="38.9211121" lon="21.1786783"><ele>22.5</ele><time>2026-05-02T10:11:16.752Z</time></trkpt><trkpt lat="38.9213468" lon="21.1785816"><ele>22.0</ele><time>2026-05-02T10:11:17.752Z</time></trkpt><trkpt lat="38.9215745" lon="21.1784904"><ele>23.0</ele><time>2026-05-02T10:11:18.753Z</time></trkpt><trkpt lat="38.9217929" lon="21.178401"><ele>24.0</ele><time>2026-05-02T10:11:19.752Z</time></trkpt><trkpt lat="38.922011" lon="21.1783094"><ele>24.0</ele><time>2026-05-02T10:11:20.753Z</time></trkpt><trkpt lat="38.9222431" lon="21.1782161"><ele>24.0</ele><time>2026-05-02T10:11:21.752Z</time></trkpt><trkpt lat="38.9224478" lon="21.1781343"><ele>23.5</ele><time>2026-05-02T10:11:22.752Z</time></trkpt><trkpt lat="38.9226674" lon="21.178049"><ele>23.0</ele><time>2026-05-02T10:11:23.752Z</time></trkpt><trkpt lat="38.9228867" lon="21.1779653"><ele>23.0</ele><time>2026-05-02T10:11:24.752Z</time></trkpt><trkpt lat="38.9231067" lon="21.1778771"><ele>23.0</ele><time>2026-05-02T10:11:25.753Z</time></trkpt><trkpt lat="38.9233321" lon="21.1777942"><ele>22.5</ele><time>2026-05-02T10:11:26.752Z</time></trkpt><trkpt lat="38.9235708" lon="21.177726"><ele>22.0</ele><time>2026-05-02T10:11:27.752Z</time></trkpt><trkpt lat="38.9238088" lon="21.1776755"><ele>22.0</ele><time>2026-05-02T10:11:28.752Z</time></trkpt><trkpt lat="38.924038" lon="21.1776363"><ele>22.0</ele><time>2026-05-02T10:11:29.752Z</time></trkpt><trkpt lat="38.9242582" lon="21.1775943"><ele>22.0</ele><time>2026-05-02T10:11:30.752Z</time></trkpt><trkpt lat="38.9244728" lon="21.1775632"><ele>22.0</ele><time>2026-05-02T10:11:31.752Z</time></trkpt><trkpt lat="38.9246844" lon="21.1775394"><ele>22.0</ele><time>2026-05-02T10:11:32.752Z</time></trkpt><trkpt lat="38.9248961" lon="21.1775218"><ele>22.333333333333332</ele><time>2026-05-02T10:11:33.752Z</time></trkpt><trkpt lat="38.9251093" lon="21.1775049"><ele>22.666666666666668</ele><time>2026-05-02T10:11:34.753Z</time></trkpt><trkpt lat="38.9253248" lon="21.1774858"><ele>23.0</ele><time>2026-05-02T10:11:35.753Z</time></trkpt><trkpt lat="38.9255405" lon="21.1774719"><ele>23.0</ele><time>2026-05-02T10:11:36.753Z</time></trkpt><trkpt lat="38.9257689" lon="21.1774602"><ele>23.0</ele><time>2026-05-02T10:11:37.752Z</time></trkpt><trkpt lat="38.9259699" lon="21.1774487"><ele>23.0</ele><time>2026-05-02T10:11:38.753Z</time></trkpt><trkpt lat="38.9261836" lon="21.1774408"><ele>22.666666666666668</ele><time>2026-05-02T10:11:39.752Z</time></trkpt><trkpt lat="38.926399" lon="21.1774356"><ele>22.333333333333332</ele><time>2026-05-02T10:11:40.752Z</time></trkpt><trkpt lat="38.9266189" lon="21.177431"><ele>22.0</ele><time>2026-05-02T10:11:41.752Z</time></trkpt><trkpt lat="38.9268407" lon="21.1774214"><ele>21.333333333333332</ele><time>2026-05-02T10:11:42.752Z</time></trkpt><trkpt lat="38.9270634" lon="21.1774098"><ele>20.666666666666668</ele><time>2026-05-02T10:11:43.752Z</time></trkpt><trkpt lat="38.9272842" lon="21.1773986"><ele>20.0</ele><time>2026-05-02T10:11:44.753Z</time></trkpt><trkpt lat="38.9275047" lon="21.1773901"><ele>20.0</ele><time>2026-05-02T10:11:45.752Z</time></trkpt><trkpt lat="38.927722" lon="21.1773817"><ele>20.0</ele><time>2026-05-02T10:11:46.752Z</time></trkpt><trkpt lat="38.9279376" lon="21.1773733"><ele>20.0</ele><time>2026-05-02T10:11:47.753Z</time></trkpt><trkpt lat="38.9281484" lon="21.1773654"><ele>20.0</ele><time>2026-05-02T10:11:48.753Z</time></trkpt><trkpt lat="38.9283576" lon="21.1773555"><ele>20.0</ele><time>2026-05-02T10:11:49.752Z</time></trkpt><trkpt lat="38.9285666" lon="21.1773475"><ele>20.0</ele><time>2026-05-02T10:11:50.752Z</time></trkpt><trkpt lat="38.9287774" lon="21.1773441"><ele>20.333333333333336</ele><time>2026-05-02T10:11:51.752Z</time></trkpt><trkpt lat="38.9289917" lon="21.1773418"><ele>20.666666666666668</ele><time>2026-05-02T10:11:52.753Z</time></trkpt><trkpt lat="38.9292167" lon="21.1773417"><ele>21.0</ele><time>2026-05-02T10:11:53.753Z</time></trkpt><trkpt lat="38.9294088" lon="21.1773344"><ele>20.333333333333332</ele><time>2026-05-02T10:11:54.753Z</time></trkpt><trkpt lat="38.9296032" lon="21.1773302"><ele>19.666666666666664</ele><time>2026-05-02T10:11:55.752Z</time></trkpt><trkpt lat="38.9297846" lon="21.1773251"><ele>19.0</ele><time>2026-05-02T10:11:56.752Z</time></trkpt><trkpt lat="38.9299544" lon="21.1773193"><ele>18.75</ele><time>2026-05-02T10:11:57.753Z</time></trkpt><trkpt lat="38.9301109" lon="21.1773145"><ele>18.5</ele><time>2026-05-02T10:11:58.753Z</time></trkpt><trkpt lat="38.9302514" lon="21.1773084"><ele>18.25</ele><time>2026-05-02T10:11:59.752Z</time></trkpt><trkpt lat="38.9303789" lon="21.1773021"><ele>18.0</ele><time>2026-05-02T10:12:00.753Z</time></trkpt><trkpt lat="38.9304891" lon="21.177295"><ele>18.0</ele><time>2026-05-02T10:12:01.753Z</time></trkpt><trkpt lat="38.9305789" lon="21.1772905"><ele>18.0</ele><time>2026-05-02T10:12:02.752Z</time></trkpt><trkpt lat="38.9306518" lon="21.1772859"><ele>18.0</ele><time>2026-05-02T10:12:03.752Z</time></trkpt><trkpt lat="38.9307666" lon="21.1772824"><ele>18.0</ele><time>2026-05-02T10:12:05.752Z</time></trkpt><trkpt lat="38.9308889" lon="21.1772761"><ele>18.0</ele><time>2026-05-02T10:12:07.753Z</time></trkpt><trkpt lat="38.9309667" lon="21.1772701"><ele>17.8</ele><time>2026-05-02T10:12:08.752Z</time></trkpt><trkpt lat="38.9310655" lon="21.1772625"><ele>17.6</ele><time>2026-05-02T10:12:09.752Z</time></trkpt><trkpt lat="38.9311628" lon="21.1772553"><ele>17.4</ele><time>2026-05-02T10:12:10.752Z</time></trkpt><trkpt lat="38.9312704" lon="21.1772513"><ele>17.2</ele><time>2026-05-02T10:12:11.753Z</time></trkpt><trkpt lat="38.9313868" lon="21.1772405"><ele>17.0</ele><time>2026-05-02T10:12:12.752Z</time></trkpt><trkpt lat="38.9315144" lon="21.1772303"><ele>17.0</ele><time>2026-05-02T10:12:13.753Z</time></trkpt><trkpt lat="38.9316499" lon="21.1772222"><ele>17.0</ele><time>2026-05-02T10:12:14.753Z</time></trkpt><trkpt lat="38.9317948" lon="21.1772129"><ele>17.0</ele><time>2026-05-02T10:12:15.753Z</time></trkpt><trkpt lat="38.9319501" lon="21.1772043"><ele>17.0</ele><time>2026-05-02T10:12:16.753Z</time></trkpt><trkpt lat="38.9321065" lon="21.1771959"><ele>17.0</ele><time>2026-05-02T10:12:17.753Z</time></trkpt><trkpt lat="38.9322674" lon="21.1771912"><ele>17.0</ele><time>2026-05-02T10:12:18.753Z</time></trkpt><trkpt lat="38.9324385" lon="21.1771865"><ele>17.0</ele><time>2026-05-02T10:12:19.753Z</time></trkpt><trkpt lat="38.932619" lon="21.1771738"><ele>16.666666666666668</ele><time>2026-05-02T10:12:20.753Z</time></trkpt><trkpt lat="38.9328055" lon="21.1771642"><ele>16.333333333333332</ele><time>2026-05-02T10:12:21.752Z</time></trkpt><trkpt lat="38.9329929" lon="21.1771551"><ele>16.0</ele><time>2026-05-02T10:12:22.753Z</time></trkpt><trkpt lat="38.9331809" lon="21.1771453"><ele>16.0</ele><time>2026-05-02T10:12:23.752Z</time></trkpt><trkpt lat="38.933372" lon="21.1771335"><ele>16.0</ele><time>2026-05-02T10:12:24.752Z</time></trkpt><trkpt lat="38.9335819" lon="21.1771201"><ele>16.0</ele><time>2026-05-02T10:12:25.753Z</time></trkpt><trkpt lat="38.933769" lon="21.1771125"><ele>16.0</ele><time>2026-05-02T10:12:26.752Z</time></trkpt><trkpt lat="38.9339726" lon="21.1771073"><ele>16.0</ele><time>2026-05-02T10:12:27.752Z</time></trkpt><trkpt lat="38.9341701" lon="21.1770992"><ele>16.0</ele><time>2026-05-02T10:12:28.753Z</time></trkpt><trkpt lat="38.9343642" lon="21.1770898"><ele>15.333333333333332</ele><time>2026-05-02T10:12:29.753Z</time></trkpt><trkpt lat="38.9345583" lon="21.1770794"><ele>14.666666666666668</ele><time>2026-05-02T10:12:30.752Z</time></trkpt><trkpt lat="38.934756" lon="21.177068"><ele>14.0</ele><time>2026-05-02T10:12:31.752Z</time></trkpt><trkpt lat="38.9349585" lon="21.1770593"><ele>14.0</ele><time>2026-05-02T10:12:32.752Z</time></trkpt><trkpt lat="38.9351625" lon="21.1770494"><ele>14.0</ele><time>2026-05-02T10:12:33.752Z</time></trkpt><trkpt lat="38.9353652" lon="21.1770427"><ele>14.0</ele><time>2026-05-02T10:12:34.753Z</time></trkpt><trkpt lat="38.9355676" lon="21.1770349"><ele>14.0</ele><time>2026-05-02T10:12:35.752Z</time></trkpt><trkpt lat="38.9357682" lon="21.1770263"><ele>14.0</ele><time>2026-05-02T10:12:36.753Z</time></trkpt><trkpt lat="38.9359669" lon="21.1770182"><ele>14.0</ele><time>2026-05-02T10:12:37.753Z</time></trkpt><trkpt lat="38.9361641" lon="21.1770106"><ele>14.0</ele><time>2026-05-02T10:12:38.752Z</time></trkpt><trkpt lat="38.9363602" lon="21.1770026"><ele>14.0</ele><time>2026-05-02T10:12:39.753Z</time></trkpt><trkpt lat="38.9365555" lon="21.1769962"><ele>14.0</ele><time>2026-05-02T10:12:40.753Z</time></trkpt><trkpt lat="38.9367606" lon="21.176987"><ele>13.666666666666668</ele><time>2026-05-02T10:12:41.752Z</time></trkpt><trkpt lat="38.9369429" lon="21.1769773"><ele>13.333333333333332</ele><time>2026-05-02T10:12:42.753Z</time></trkpt><trkpt lat="38.9371399" lon="21.1769672"><ele>13.0</ele><time>2026-05-02T10:12:43.753Z</time></trkpt><trkpt lat="38.937339" lon="21.176956"><ele>13.0</ele><time>2026-05-02T10:12:44.753Z</time></trkpt><trkpt lat="38.9375415" lon="21.1769453"><ele>13.0</ele><time>2026-05-02T10:12:45.752Z</time></trkpt><trkpt lat="38.9377441" lon="21.176935"><ele>13.0</ele><time>2026-05-02T10:12:46.752Z</time></trkpt><trkpt lat="38.9379465" lon="21.1769214"><ele>13.0</ele><time>2026-05-02T10:12:47.752Z</time></trkpt><trkpt lat="38.9381492" lon="21.1769037"><ele>13.0</ele><time>2026-05-02T10:12:48.753Z</time></trkpt><trkpt lat="38.9383362" lon="21.1768951"><ele>13.0</ele><time>2026-05-02T10:12:49.752Z</time></trkpt><trkpt lat="38.9385453" lon="21.1768866"><ele>13.0</ele><time>2026-05-02T10:12:50.753Z</time></trkpt><trkpt lat="38.9387383" lon="21.1768785"><ele>13.0</ele><time>2026-05-02T10:12:51.753Z</time></trkpt><trkpt lat="38.9389267" lon="21.1768736"><ele>13.0</ele><time>2026-05-02T10:12:52.752Z</time></trkpt><trkpt lat="38.9391124" lon="21.1768683"><ele>12.666666666666666</ele><time>2026-05-02T10:12:53.753Z</time></trkpt><trkpt lat="38.9392946" lon="21.1768609"><ele>12.333333333333332</ele><time>2026-05-02T10:12:54.753Z</time></trkpt><trkpt lat="38.9394761" lon="21.1768542"><ele>12.0</ele><time>2026-05-02T10:12:55.753Z</time></trkpt><trkpt lat="38.939658" lon="21.1768473"><ele>12.0</ele><time>2026-05-02T10:12:56.753Z</time></trkpt><trkpt lat="38.9398495" lon="21.1768421"><ele>12.0</ele><time>2026-05-02T10:12:57.752Z</time></trkpt><trkpt lat="38.9400228" lon="21.1768338"><ele>12.0</ele><time>2026-05-02T10:12:58.753Z</time></trkpt><trkpt lat="38.940209" lon="21.1768268"><ele>12.0</ele><time>2026-05-02T10:12:59.753Z</time></trkpt><trkpt lat="38.9403966" lon="21.1768154"><ele>12.0</ele><time>2026-05-02T10:13:00.753Z</time></trkpt><trkpt lat="38.9405841" lon="21.1768041"><ele>12.0</ele><time>2026-05-02T10:13:01.752Z</time></trkpt><trkpt lat="38.9407685" lon="21.1767947"><ele>11.666666666666666</ele><time>2026-05-02T10:13:02.753Z</time></trkpt><trkpt lat="38.9409511" lon="21.1767844"><ele>11.333333333333332</ele><time>2026-05-02T10:13:03.753Z</time></trkpt><trkpt lat="38.9411321" lon="21.1767787"><ele>11.0</ele><time>2026-05-02T10:13:04.752Z</time></trkpt><trkpt lat="38.9413057" lon="21.1767703"><ele>11.0</ele><time>2026-05-02T10:13:05.752Z</time></trkpt><trkpt lat="38.9414714" lon="21.1767618"><ele>11.0</ele><time>2026-05-02T10:13:06.753Z</time></trkpt><trkpt lat="38.9416298" lon="21.176753"><ele>11.0</ele><time>2026-05-02T10:13:07.753Z</time></trkpt><trkpt lat="38.9417819" lon="21.1767446"><ele>11.5</ele><time>2026-05-02T10:13:08.752Z</time></trkpt><trkpt lat="38.9419298" lon="21.1767334"><ele>12.0</ele><time>2026-05-02T10:13:09.752Z</time></trkpt><trkpt lat="38.9420764" lon="21.1767216"><ele>12.5</ele><time>2026-05-02T10:13:10.752Z</time></trkpt><trkpt lat="38.9422246" lon="21.17671"><ele>13.0</ele><time>2026-05-02T10:13:11.753Z</time></trkpt><trkpt lat="38.9423734" lon="21.1767013"><ele>13.0</ele><time>2026-05-02T10:13:12.752Z</time></trkpt><trkpt lat="38.9425321" lon="21.1766918"><ele>13.0</ele><time>2026-05-02T10:13:13.753Z</time></trkpt><trkpt lat="38.9426738" lon="21.1766825"><ele>13.0</ele><time>2026-05-02T10:13:14.753Z</time></trkpt><trkpt lat="38.9428268" lon="21.1766714"><ele>13.333333333333332</ele><time>2026-05-02T10:13:15.752Z</time></trkpt><trkpt lat="38.9429806" lon="21.1766576"><ele>13.666666666666668</ele><time>2026-05-02T10:13:16.753Z</time></trkpt><trkpt lat="38.9431348" lon="21.176643"><ele>14.0</ele><time>2026-05-02T10:13:17.753Z</time></trkpt><trkpt lat="38.9432901" lon="21.1766291"><ele>14.333333333333334</ele><time>2026-05-02T10:13:18.752Z</time></trkpt><trkpt lat="38.9434446" lon="21.1766171"><ele>14.666666666666668</ele><time>2026-05-02T10:13:19.752Z</time></trkpt><trkpt lat="38.9435984" lon="21.1766049"><ele>15.0</ele><time>2026-05-02T10:13:20.753Z</time></trkpt><trkpt lat="38.9437432" lon="21.1765915"><ele>15.0</ele><time>2026-05-02T10:13:21.753Z</time></trkpt><trkpt lat="38.943912" lon="21.1765786"><ele>15.0</ele><time>2026-05-02T10:13:22.752Z</time></trkpt><trkpt lat="38.9440742" lon="21.1765661"><ele>15.0</ele><time>2026-05-02T10:13:23.753Z</time></trkpt><trkpt lat="38.9442383" lon="21.1765556"><ele>15.333333333333332</ele><time>2026-05-02T10:13:24.753Z</time></trkpt><trkpt lat="38.9444041" lon="21.176545"><ele>15.666666666666666</ele><time>2026-05-02T10:13:25.753Z</time></trkpt><trkpt lat="38.9445717" lon="21.1765337"><ele>16.0</ele><time>2026-05-02T10:13:26.753Z</time></trkpt><trkpt lat="38.94474" lon="21.1765221"><ele>15.666666666666666</ele><time>2026-05-02T10:13:27.753Z</time></trkpt><trkpt lat="38.9449094" lon="21.1765062"><ele>15.333333333333332</ele><time>2026-05-02T10:13:28.752Z</time></trkpt><trkpt lat="38.9450779" lon="21.17649"><ele>15.0</ele><time>2026-05-02T10:13:29.752Z</time></trkpt><trkpt lat="38.9452435" lon="21.176475"><ele>15.666666666666668</ele><time>2026-05-02T10:13:30.752Z</time></trkpt><trkpt lat="38.9454073" lon="21.1764598"><ele>16.333333333333336</ele><time>2026-05-02T10:13:31.753Z</time></trkpt><trkpt lat="38.9455696" lon="21.1764454"><ele>17.0</ele><time>2026-05-02T10:13:32.752Z</time></trkpt><trkpt lat="38.9457302" lon="21.1764337"><ele>17.0</ele><time>2026-05-02T10:13:33.752Z</time></trkpt><trkpt lat="38.9458898" lon="21.1764204"><ele>17.0</ele><time>2026-05-02T10:13:34.752Z</time></trkpt><trkpt lat="38.946049" lon="21.1764083"><ele>17.0</ele><time>2026-05-02T10:13:35.753Z</time></trkpt><trkpt lat="38.9462077" lon="21.176394"><ele>17.0</ele><time>2026-05-02T10:13:36.752Z</time></trkpt><trkpt lat="38.946365" lon="21.1763826"><ele>17.0</ele><time>2026-05-02T10:13:37.753Z</time></trkpt><trkpt lat="38.9465223" lon="21.1763652"><ele>17.0</ele><time>2026-05-02T10:13:38.753Z</time></trkpt><trkpt lat="38.9466777" lon="21.1763533"><ele>17.333333333333336</ele><time>2026-05-02T10:13:39.753Z</time></trkpt><trkpt lat="38.9468334" lon="21.1763409"><ele>17.666666666666668</ele><time>2026-05-02T10:13:40.752Z</time></trkpt><trkpt lat="38.9469869" lon="21.176328"><ele>18.0</ele><time>2026-05-02T10:13:41.752Z</time></trkpt><trkpt lat="38.9471472" lon="21.1763081"><ele>18.0</ele><time>2026-05-02T10:13:42.753Z</time></trkpt><trkpt lat="38.9473194" lon="21.1762832"><ele>18.0</ele><time>2026-05-02T10:13:43.753Z</time></trkpt><trkpt lat="38.947502" lon="21.1762602"><ele>18.0</ele><time>2026-05-02T10:13:44.752Z</time></trkpt><trkpt lat="38.9476906" lon="21.1762451"><ele>18.0</ele><time>2026-05-02T10:13:45.752Z</time></trkpt><trkpt lat="38.9478754" lon="21.1762376"><ele>18.0</ele><time>2026-05-02T10:13:46.752Z</time></trkpt><trkpt lat="38.9480563" lon="21.1762309"><ele>18.0</ele><time>2026-05-02T10:13:47.753Z</time></trkpt><trkpt lat="38.9482345" lon="21.1762194"><ele>17.666666666666668</ele><time>2026-05-02T10:13:48.752Z</time></trkpt><trkpt lat="38.9484124" lon="21.1762083"><ele>17.333333333333336</ele><time>2026-05-02T10:13:49.753Z</time></trkpt><trkpt lat="38.9485902" lon="21.1761951"><ele>17.0</ele><time>2026-05-02T10:13:50.752Z</time></trkpt><trkpt lat="38.9487691" lon="21.1761772"><ele>17.0</ele><time>2026-05-02T10:13:51.752Z</time></trkpt><trkpt lat="38.9489491" lon="21.1761594"><ele>17.0</ele><time>2026-05-02T10:13:52.753Z</time></trkpt><trkpt lat="38.9491188" lon="21.1761417"><ele>17.0</ele><time>2026-05-02T10:13:53.753Z</time></trkpt><trkpt lat="38.9493096" lon="21.1761202"><ele>16.333333333333336</ele><time>2026-05-02T10:13:54.752Z</time></trkpt><trkpt lat="38.949489" lon="21.1761047"><ele>15.666666666666668</ele><time>2026-05-02T10:13:55.752Z</time></trkpt><trkpt lat="38.9496674" lon="21.1760928"><ele>15.0</ele><time>2026-05-02T10:13:56.753Z</time></trkpt><trkpt lat="38.9498449" lon="21.1760828"><ele>15.0</ele><time>2026-05-02T10:13:57.753Z</time></trkpt><trkpt lat="38.9500199" lon="21.1760691"><ele>15.0</ele><time>2026-05-02T10:13:58.752Z</time></trkpt><trkpt lat="38.9501945" lon="21.176054"><ele>15.0</ele><time>2026-05-02T10:13:59.752Z</time></trkpt><trkpt lat="38.9503689" lon="21.1760395"><ele>15.333333333333332</ele><time>2026-05-02T10:14:00.753Z</time></trkpt><trkpt lat="38.9505445" lon="21.1760256"><ele>15.666666666666666</ele><time>2026-05-02T10:14:01.753Z</time></trkpt><trkpt lat="38.9507166" lon="21.1760123"><ele>16.0</ele><time>2026-05-02T10:14:02.752Z</time></trkpt><trkpt lat="38.9508873" lon="21.1759965"><ele>16.0</ele><time>2026-05-02T10:14:03.752Z</time></trkpt><trkpt lat="38.9510597" lon="21.1759788"><ele>16.0</ele><time>2026-05-02T10:14:04.752Z</time></trkpt><trkpt lat="38.9512327" lon="21.1759599"><ele>16.0</ele><time>2026-05-02T10:14:05.752Z</time></trkpt><trkpt lat="38.9514064" lon="21.1759447"><ele>16.0</ele><time>2026-05-02T10:14:06.753Z</time></trkpt><trkpt lat="38.9515803" lon="21.1759346"><ele>16.0</ele><time>2026-05-02T10:14:07.752Z</time></trkpt><trkpt lat="38.9517544" lon="21.1759302"><ele>16.0</ele><time>2026-05-02T10:14:08.753Z</time></trkpt><trkpt lat="38.9519207" lon="21.1759249"><ele>16.333333333333332</ele><time>2026-05-02T10:14:09.752Z</time></trkpt><trkpt lat="38.9521113" lon="21.1759143"><ele>16.666666666666668</ele><time>2026-05-02T10:14:10.753Z</time></trkpt><trkpt lat="38.9522918" lon="21.1759033"><ele>17.0</ele><time>2026-05-02T10:14:11.752Z</time></trkpt><trkpt lat="38.9524734" lon="21.1758903"><ele>17.666666666666668</ele><time>2026-05-02T10:14:12.753Z</time></trkpt><trkpt lat="38.9526572" lon="21.1758775"><ele>18.333333333333332</ele><time>2026-05-02T10:14:13.753Z</time></trkpt><trkpt lat="38.95284" lon="21.1758648"><ele>19.0</ele><time>2026-05-02T10:14:14.753Z</time></trkpt><trkpt lat="38.9530246" lon="21.175849"><ele>19.0</ele><time>2026-05-02T10:14:15.752Z</time></trkpt><trkpt lat="38.9532081" lon="21.1758327"><ele>19.0</ele><time>2026-05-02T10:14:16.752Z</time></trkpt><trkpt lat="38.9533899" lon="21.1758151"><ele>19.0</ele><time>2026-05-02T10:14:17.753Z</time></trkpt><trkpt lat="38.9535726" lon="21.1757972"><ele>18.333333333333332</ele><time>2026-05-02T10:14:18.752Z</time></trkpt><trkpt lat="38.9537575" lon="21.1757794"><ele>17.666666666666668</ele><time>2026-05-02T10:14:19.753Z</time></trkpt><trkpt lat="38.9539446" lon="21.1757579"><ele>17.0</ele><time>2026-05-02T10:14:20.752Z</time></trkpt><trkpt lat="38.9541324" lon="21.1757346"><ele>17.333333333333336</ele><time>2026-05-02T10:14:21.753Z</time></trkpt><trkpt lat="38.954323" lon="21.1757118"><ele>17.666666666666668</ele><time>2026-05-02T10:14:22.753Z</time></trkpt><trkpt lat="38.9545173" lon="21.1756811"><ele>18.0</ele><time>2026-05-02T10:14:23.752Z</time></trkpt><trkpt lat="38.954716" lon="21.1756349"><ele>17.0</ele><time>2026-05-02T10:14:24.752Z</time></trkpt><trkpt lat="38.9549049" lon="21.1755755"><ele>16.0</ele><time>2026-05-02T10:14:25.752Z</time></trkpt><trkpt lat="38.9551158" lon="21.1754934"><ele>15.0</ele><time>2026-05-02T10:14:26.753Z</time></trkpt><trkpt lat="38.955314" lon="21.1754023"><ele>14.666666666666668</ele><time>2026-05-02T10:14:27.752Z</time></trkpt><trkpt lat="38.9555079" lon="21.175305"><ele>14.333333333333334</ele><time>2026-05-02T10:14:28.752Z</time></trkpt><trkpt lat="38.9556984" lon="21.175199"><ele>14.0</ele><time>2026-05-02T10:14:29.753Z</time></trkpt><trkpt lat="38.955885" lon="21.175086"><ele>13.666666666666668</ele><time>2026-05-02T10:14:30.752Z</time></trkpt><trkpt lat="38.9560695" lon="21.1749742"><ele>13.333333333333332</ele><time>2026-05-02T10:14:31.752Z</time></trkpt><trkpt lat="38.9562533" lon="21.1748612"><ele>13.0</ele><time>2026-05-02T10:14:32.753Z</time></trkpt><trkpt lat="38.9564374" lon="21.1747466"><ele>13.0</ele><time>2026-05-02T10:14:33.752Z</time></trkpt><trkpt lat="38.9566228" lon="21.1746318"><ele>13.0</ele><time>2026-05-02T10:14:34.752Z</time></trkpt><trkpt lat="38.9568084" lon="21.1745164"><ele>13.0</ele><time>2026-05-02T10:14:35.753Z</time></trkpt><trkpt lat="38.9569946" lon="21.1744007"><ele>13.333333333333332</ele><time>2026-05-02T10:14:36.752Z</time></trkpt><trkpt lat="38.9571827" lon="21.1742808"><ele>13.666666666666668</ele><time>2026-05-02T10:14:37.753Z</time></trkpt><trkpt lat="38.9573703" lon="21.1741647"><ele>14.0</ele><time>2026-05-02T10:14:38.753Z</time></trkpt><trkpt lat="38.9575568" lon="21.174048"><ele>13.666666666666668</ele><time>2026-05-02T10:14:39.752Z</time></trkpt><trkpt lat="38.9577448" lon="21.1739338"><ele>13.333333333333332</ele><time>2026-05-02T10:14:40.753Z</time></trkpt><trkpt lat="38.9579213" lon="21.1738253"><ele>13.0</ele><time>2026-05-02T10:14:41.753Z</time></trkpt><trkpt lat="38.9581233" lon="21.1736977"><ele>13.0</ele><time>2026-05-02T10:14:42.753Z</time></trkpt><trkpt lat="38.9583131" lon="21.1735777"><ele>13.0</ele><time>2026-05-02T10:14:43.753Z</time></trkpt><trkpt lat="38.9585037" lon="21.1734591"><ele>13.0</ele><time>2026-05-02T10:14:44.753Z</time></trkpt><trkpt lat="38.9586942" lon="21.1733426"><ele>13.0</ele><time>2026-05-02T10:14:45.752Z</time></trkpt><trkpt lat="38.9588853" lon="21.173224"><ele>13.0</ele><time>2026-05-02T10:14:46.752Z</time></trkpt><trkpt lat="38.9590767" lon="21.1731023"><ele>13.0</ele><time>2026-05-02T10:14:47.753Z</time></trkpt><trkpt lat="38.9592676" lon="21.1729806"><ele>13.0</ele><time>2026-05-02T10:14:48.753Z</time></trkpt><trkpt lat="38.9594609" lon="21.1728582"><ele>13.0</ele><time>2026-05-02T10:14:49.752Z</time></trkpt><trkpt lat="38.959657" lon="21.1727337"><ele>13.0</ele><time>2026-05-02T10:14:50.752Z</time></trkpt><trkpt lat="38.9598561" lon="21.1726065"><ele>14.0</ele><time>2026-05-02T10:14:51.753Z</time></trkpt><trkpt lat="38.9600581" lon="21.1724801"><ele>15.0</ele><time>2026-05-02T10:14:52.752Z</time></trkpt><trkpt lat="38.9602621" lon="21.172356"><ele>13.0</ele><time>2026-05-02T10:14:53.752Z</time></trkpt><trkpt lat="38.9604656" lon="21.1722333"><ele>11.0</ele><time>2026-05-02T10:14:54.752Z</time></trkpt><trkpt lat="38.9606693" lon="21.1721097"><ele>11.0</ele><time>2026-05-02T10:14:55.752Z</time></trkpt><trkpt lat="38.9608725" lon="21.1719851"><ele>11.0</ele><time>2026-05-02T10:14:56.753Z</time></trkpt><trkpt lat="38.9610603" lon="21.1718679"><ele>11.0</ele><time>2026-05-02T10:14:57.752Z</time></trkpt><trkpt lat="38.9612709" lon="21.1717322"><ele>11.0</ele><time>2026-05-02T10:14:58.752Z</time></trkpt><trkpt lat="38.9614685" lon="21.171608"><ele>11.0</ele><time>2026-05-02T10:14:59.753Z</time></trkpt><trkpt lat="38.9616656" lon="21.1714846"><ele>11.0</ele><time>2026-05-02T10:15:00.753Z</time></trkpt><trkpt lat="38.9618639" lon="21.1713629"><ele>10.0</ele><time>2026-05-02T10:15:01.753Z</time></trkpt><trkpt lat="38.9620608" lon="21.1712417"><ele>9.0</ele><time>2026-05-02T10:15:02.753Z</time></trkpt><trkpt lat="38.9622551" lon="21.1711192"><ele>8.0</ele><time>2026-05-02T10:15:03.752Z</time></trkpt><trkpt lat="38.962448" lon="21.1709962"><ele>8.333333333333332</ele><time>2026-05-02T10:15:04.753Z</time></trkpt><trkpt lat="38.9626453" lon="21.1708719"><ele>8.666666666666666</ele><time>2026-05-02T10:15:05.752Z</time></trkpt><trkpt lat="38.9628451" lon="21.1707501"><ele>9.0</ele><time>2026-05-02T10:15:06.752Z</time></trkpt><trkpt lat="38.963046" lon="21.1706279"><ele>9.0</ele><time>2026-05-02T10:15:07.753Z</time></trkpt><trkpt lat="38.9632458" lon="21.1705052"><ele>9.0</ele><time>2026-05-02T10:15:08.753Z</time></trkpt><trkpt lat="38.963444" lon="21.1703791"><ele>9.0</ele><time>2026-05-02T10:15:09.753Z</time></trkpt><trkpt lat="38.9636429" lon="21.170256"><ele>8.666666666666666</ele><time>2026-05-02T10:15:10.753Z</time></trkpt><trkpt lat="38.9638399" lon="21.1701333"><ele>8.333333333333332</ele><time>2026-05-02T10:15:11.753Z</time></trkpt><trkpt lat="38.9640378" lon="21.1700094"><ele>8.0</ele><time>2026-05-02T10:15:12.752Z</time></trkpt><trkpt lat="38.9642219" lon="21.1698941"><ele>8.0</ele><time>2026-05-02T10:15:13.753Z</time></trkpt><trkpt lat="38.9644304" lon="21.1697632"><ele>8.0</ele><time>2026-05-02T10:15:14.752Z</time></trkpt><trkpt lat="38.9646267" lon="21.1696418"><ele>8.0</ele><time>2026-05-02T10:15:15.753Z</time></trkpt><trkpt lat="38.9648235" lon="21.1695239"><ele>8.0</ele><time>2026-05-02T10:15:16.753Z</time></trkpt><trkpt lat="38.9650191" lon="21.1694025"><ele>8.0</ele><time>2026-05-02T10:15:17.752Z</time></trkpt><trkpt lat="38.9652124" lon="21.1692885"><ele>7.666666666666666</ele><time>2026-05-02T10:15:18.75Z</time></trkpt><trkpt lat="38.9654068" lon="21.1691689"><ele>7.333333333333334</ele><time>2026-05-02T10:15:19.753Z</time></trkpt><trkpt lat="38.9656049" lon="21.1690572"><ele>7.0</ele><time>2026-05-02T10:15:20.753Z</time></trkpt><trkpt lat="38.9658076" lon="21.1689584"><ele>6.666666666666667</ele><time>2026-05-02T10:15:21.753Z</time></trkpt><trkpt lat="38.9660153" lon="21.168872"><ele>6.333333333333334</ele><time>2026-05-02T10:15:22.752Z</time></trkpt><trkpt lat="38.966225" lon="21.1687995"><ele>6.0</ele><time>2026-05-02T10:15:23.752Z</time></trkpt><trkpt lat="38.9664369" lon="21.1687355"><ele>6.0</ele><time>2026-05-02T10:15:24.752Z</time></trkpt><trkpt lat="38.9666531" lon="21.1686762"><ele>6.0</ele><time>2026-05-02T10:15:25.752Z</time></trkpt><trkpt lat="38.9668722" lon="21.1686161"><ele>6.0</ele><time>2026-05-02T10:15:26.752Z</time></trkpt><trkpt lat="38.9670925" lon="21.1685578"><ele>5.333333333333333</ele><time>2026-05-02T10:15:27.753Z</time></trkpt><trkpt lat="38.9673123" lon="21.1685033"><ele>4.666666666666666</ele><time>2026-05-02T10:15:28.752Z</time></trkpt><trkpt lat="38.967517" lon="21.1684558"><ele>4.0</ele><time>2026-05-02T10:15:29.753Z</time></trkpt><trkpt lat="38.9677479" lon="21.168396"><ele>4.0</ele><time>2026-05-02T10:15:30.752Z</time></trkpt><trkpt lat="38.9679625" lon="21.1683454"><ele>4.0</ele><time>2026-05-02T10:15:31.753Z</time></trkpt><trkpt lat="38.968173" lon="21.1682876"><ele>4.0</ele><time>2026-05-02T10:15:32.752Z</time></trkpt><trkpt lat="38.9683835" lon="21.1682306"><ele>3.6666666666666665</ele><time>2026-05-02T10:15:33.753Z</time></trkpt><trkpt lat="38.9685906" lon="21.1681747"><ele>3.333333333333333</ele><time>2026-05-02T10:15:34.752Z</time></trkpt><trkpt lat="38.9688014" lon="21.1681204"><ele>3.0</ele><time>2026-05-02T10:15:35.753Z</time></trkpt><trkpt lat="38.9690082" lon="21.1680668"><ele>3.0</ele><time>2026-05-02T10:15:36.752Z</time></trkpt><trkpt lat="38.9692145" lon="21.1680089"><ele>3.0</ele><time>2026-05-02T10:15:37.752Z</time></trkpt><trkpt lat="38.9694209" lon="21.1679586"><ele>3.0</ele><time>2026-05-02T10:15:38.753Z</time></trkpt><trkpt lat="38.9696243" lon="21.1679115"><ele>3.0</ele><time>2026-05-02T10:15:39.752Z</time></trkpt><trkpt lat="38.9698243" lon="21.1678648"><ele>3.0</ele><time>2026-05-02T10:15:40.752Z</time></trkpt><trkpt lat="38.970023" lon="21.1678154"><ele>3.0</ele><time>2026-05-02T10:15:41.753Z</time></trkpt><trkpt lat="38.9702216" lon="21.1677665"><ele>3.333333333333333</ele><time>2026-05-02T10:15:42.753Z</time></trkpt><trkpt lat="38.9704177" lon="21.1677184"><ele>3.6666666666666665</ele><time>2026-05-02T10:15:43.753Z</time></trkpt><trkpt lat="38.9706133" lon="21.1676743"><ele>4.0</ele><time>2026-05-02T10:15:44.752Z</time></trkpt><trkpt lat="38.9707961" lon="21.1676391"><ele>3.6666666666666665</ele><time>2026-05-02T10:15:45.753Z</time></trkpt><trkpt lat="38.9710025" lon="21.1676085"><ele>3.333333333333333</ele><time>2026-05-02T10:15:46.752Z</time></trkpt><trkpt lat="38.9712001" lon="21.1675859"><ele>3.0</ele><time>2026-05-02T10:15:47.753Z</time></trkpt><trkpt lat="38.9713995" lon="21.1675689"><ele>3.0</ele><time>2026-05-02T10:15:48.752Z</time></trkpt><trkpt lat="38.9716085" lon="21.1675605"><ele>3.0</ele><time>2026-05-02T10:15:49.753Z</time></trkpt><trkpt lat="38.9718231" lon="21.1675604"><ele>3.0</ele><time>2026-05-02T10:15:50.753Z</time></trkpt><trkpt lat="38.9720392" lon="21.1675642"><ele>2.6666666666666665</ele><time>2026-05-02T10:15:51.753Z</time></trkpt><trkpt lat="38.9722574" lon="21.1675689"><ele>2.333333333333333</ele><time>2026-05-02T10:15:52.752Z</time></trkpt><trkpt lat="38.9724748" lon="21.1675734"><ele>2.0</ele><time>2026-05-02T10:15:53.752Z</time></trkpt><trkpt lat="38.9726914" lon="21.1675781"><ele>2.0</ele><time>2026-05-02T10:15:54.753Z</time></trkpt><trkpt lat="38.972906" lon="21.1675818"><ele>2.0</ele><time>2026-05-02T10:15:55.753Z</time></trkpt><trkpt lat="38.9731213" lon="21.1675816"><ele>2.0</ele><time>2026-05-02T10:15:56.753Z</time></trkpt><trkpt lat="38.9733346" lon="21.1675835"><ele>1.6666666666666665</ele><time>2026-05-02T10:15:57.752Z</time></trkpt><trkpt lat="38.9735467" lon="21.1675879"><ele>1.3333333333333333</ele><time>2026-05-02T10:15:58.752Z</time></trkpt><trkpt lat="38.9737585" lon="21.167592"><ele>1.0</ele><time>2026-05-02T10:15:59.752Z</time></trkpt><trkpt lat="38.9739678" lon="21.1675928"><ele>1.0</ele><time>2026-05-02T10:16:00.752Z</time></trkpt><trkpt lat="38.9741613" lon="21.1675942"><ele>1.0</ele><time>2026-05-02T10:16:01.752Z</time></trkpt><trkpt lat="38.9743801" lon="21.1675956"><ele>1.0</ele><time>2026-05-02T10:16:02.752Z</time></trkpt><trkpt lat="38.9745821" lon="21.1675957"><ele>2.0</ele><time>2026-05-02T10:16:03.753Z</time></trkpt><trkpt lat="38.974787" lon="21.1675836"><ele>3.0</ele><time>2026-05-02T10:16:04.752Z</time></trkpt><trkpt lat="38.9749917" lon="21.1675618"><ele>4.0</ele><time>2026-05-02T10:16:05.752Z</time></trkpt><trkpt lat="38.9751967" lon="21.1675278"><ele>4.666666666666666</ele><time>2026-05-02T10:16:06.753Z</time></trkpt><trkpt lat="38.975401" lon="21.1674729"><ele>5.333333333333333</ele><time>2026-05-02T10:16:07.753Z</time></trkpt><trkpt lat="38.9756021" lon="21.1673991"><ele>6.0</ele><time>2026-05-02T10:16:08.753Z</time></trkpt><trkpt lat="38.9757994" lon="21.1673058"><ele>6.666666666666666</ele><time>2026-05-02T10:16:09.753Z</time></trkpt><trkpt lat="38.9759952" lon="21.1671892"><ele>7.333333333333333</ele><time>2026-05-02T10:16:10.753Z</time></trkpt><trkpt lat="38.9761912" lon="21.1670498"><ele>8.0</ele><time>2026-05-02T10:16:11.753Z</time></trkpt><trkpt lat="38.9763799" lon="21.1668913"><ele>8.0</ele><time>2026-05-02T10:16:12.753Z</time></trkpt><trkpt lat="38.9765601" lon="21.1667141"><ele>8.0</ele><time>2026-05-02T10:16:13.752Z</time></trkpt><trkpt lat="38.9767385" lon="21.1665295"><ele>8.0</ele><time>2026-05-02T10:16:14.752Z</time></trkpt><trkpt lat="38.9769141" lon="21.1663389"><ele>8.0</ele><time>2026-05-02T10:16:15.752Z</time></trkpt><trkpt lat="38.9770886" lon="21.166147"><ele>8.0</ele><time>2026-05-02T10:16:16.753Z</time></trkpt><trkpt lat="38.9772522" lon="21.1659667"><ele>8.0</ele><time>2026-05-02T10:16:17.753Z</time></trkpt><trkpt lat="38.9774346" lon="21.1657631"><ele>8.0</ele><time>2026-05-02T10:16:18.753Z</time></trkpt><trkpt lat="38.9776019" lon="21.1655743"><ele>8.0</ele><time>2026-05-02T10:16:19.753Z</time></trkpt><trkpt lat="38.9777698" lon="21.1653842"><ele>8.0</ele><time>2026-05-02T10:16:20.753Z</time></trkpt><trkpt lat="38.9779341" lon="21.1651988"><ele>8.0</ele><time>2026-05-02T10:16:21.753Z</time></trkpt><trkpt lat="38.9780968" lon="21.165019"><ele>8.0</ele><time>2026-05-02T10:16:22.752Z</time></trkpt><trkpt lat="38.9782616" lon="21.1648469"><ele>8.0</ele><time>2026-05-02T10:16:23.753Z</time></trkpt><trkpt lat="38.9784323" lon="21.1646873"><ele>9.0</ele><time>2026-05-02T10:16:24.752Z</time></trkpt><trkpt lat="38.9786089" lon="21.1645394"><ele>10.0</ele><time>2026-05-02T10:16:25.753Z</time></trkpt><trkpt lat="38.9787935" lon="21.164405"><ele>11.0</ele><time>2026-05-02T10:16:26.753Z</time></trkpt><trkpt lat="38.9789899" lon="21.1642827"><ele>8.333333333333332</ele><time>2026-05-02T10:16:27.753Z</time></trkpt><trkpt lat="38.979192" lon="21.1641714"><ele>5.666666666666666</ele><time>2026-05-02T10:16:28.753Z</time></trkpt><trkpt lat="38.9794041" lon="21.1640604"><ele>3.0</ele><time>2026-05-02T10:16:29.753Z</time></trkpt><trkpt lat="38.9796204" lon="21.1639524"><ele>3.0</ele><time>2026-05-02T10:16:30.753Z</time></trkpt><trkpt lat="38.9798288" lon="21.1638478"><ele>3.0</ele><time>2026-05-02T10:16:31.753Z</time></trkpt><trkpt lat="38.9800315" lon="21.1637437"><ele>3.0</ele><time>2026-05-02T10:16:32.752Z</time></trkpt><trkpt lat="38.980218" lon="21.1636536"><ele>3.0</ele><time>2026-05-02T10:16:33.753Z</time></trkpt><trkpt lat="38.9804293" lon="21.1635441"><ele>3.0</ele><time>2026-05-02T10:16:34.752Z</time></trkpt><trkpt lat="38.9806259" lon="21.1634497"><ele>3.0</ele><time>2026-05-02T10:16:35.752Z</time></trkpt><trkpt lat="38.9808207" lon="21.1633578"><ele>2.3333333333333335</ele><time>2026-05-02T10:16:36.753Z</time></trkpt><trkpt lat="38.9810161" lon="21.1632611"><ele>1.6666666666666665</ele><time>2026-05-02T10:16:37.753Z</time></trkpt><trkpt lat="38.981214" lon="21.1631648"><ele>1.0</ele><time>2026-05-02T10:16:38.752Z</time></trkpt><trkpt lat="38.9814153" lon="21.1630698"><ele>1.0</ele><time>2026-05-02T10:16:39.752Z</time></trkpt><trkpt lat="38.9816197" lon="21.1629753"><ele>1.0</ele><time>2026-05-02T10:16:40.753Z</time></trkpt><trkpt lat="38.9818256" lon="21.1628777"><ele>1.0</ele><time>2026-05-02T10:16:41.753Z</time></trkpt><trkpt lat="38.9820322" lon="21.1627777"><ele>3.0</ele><time>2026-05-02T10:16:42.752Z</time></trkpt><trkpt lat="38.9822399" lon="21.1626812"><ele>5.0</ele><time>2026-05-02T10:16:43.752Z</time></trkpt><trkpt lat="38.9824456" lon="21.1625918"><ele>7.0</ele><time>2026-05-02T10:16:44.752Z</time></trkpt><trkpt lat="38.9826546" lon="21.1625112"><ele>8.666666666666668</ele><time>2026-05-02T10:16:45.752Z</time></trkpt><trkpt lat="38.9828645" lon="21.1624432"><ele>10.333333333333334</ele><time>2026-05-02T10:16:46.753Z</time></trkpt><trkpt lat="38.9830751" lon="21.1623869"><ele>12.0</ele><time>2026-05-02T10:16:47.752Z</time></trkpt><trkpt lat="38.9832852" lon="21.1623366"><ele>8.333333333333334</ele><time>2026-05-02T10:16:48.752Z</time></trkpt><trkpt lat="38.9834847" lon="21.1622903"><ele>4.666666666666667</ele><time>2026-05-02T10:16:49.752Z</time></trkpt><trkpt lat="38.983712" lon="21.1622447"><ele>1.0</ele><time>2026-05-02T10:16:50.753Z</time></trkpt><trkpt lat="38.9839264" lon="21.1622012"><ele>1.0</ele><time>2026-05-02T10:16:51.753Z</time></trkpt><trkpt lat="38.9841312" lon="21.1621616"><ele>1.0</ele><time>2026-05-02T10:16:52.752Z</time></trkpt><trkpt lat="38.9843636" lon="21.162114"><ele>1.0</ele><time>2026-05-02T10:16:53.753Z</time></trkpt><trkpt lat="38.9845797" lon="21.162067"><ele>1.3333333333333333</ele><time>2026-05-02T10:16:54.753Z</time></trkpt><trkpt lat="38.9847968" lon="21.1620225"><ele>1.6666666666666665</ele><time>2026-05-02T10:16:55.752Z</time></trkpt><trkpt lat="38.9850112" lon="21.1619784"><ele>2.0</ele><time>2026-05-02T10:16:56.753Z</time></trkpt><trkpt lat="38.9852253" lon="21.1619252"><ele>2.333333333333333</ele><time>2026-05-02T10:16:57.753Z</time></trkpt><trkpt lat="38.9854382" lon="21.1618799"><ele>2.6666666666666665</ele><time>2026-05-02T10:16:58.753Z</time></trkpt><trkpt lat="38.9856505" lon="21.1618349"><ele>3.0</ele><time>2026-05-02T10:16:59.752Z</time></trkpt><trkpt lat="38.9858611" lon="21.1617916"><ele>3.666666666666667</ele><time>2026-05-02T10:17:00.752Z</time></trkpt><trkpt lat="38.9860703" lon="21.1617476"><ele>4.333333333333334</ele><time>2026-05-02T10:17:01.753Z</time></trkpt><trkpt lat="38.9862782" lon="21.1617056"><ele>5.0</ele><time>2026-05-02T10:17:02.752Z</time></trkpt><trkpt lat="38.9864855" lon="21.1616661"><ele>4.333333333333334</ele><time>2026-05-02T10:17:03.752Z</time></trkpt><trkpt lat="38.9866943" lon="21.1616277"><ele>3.666666666666667</ele><time>2026-05-02T10:17:04.753Z</time></trkpt><trkpt lat="38.9868899" lon="21.1615876"><ele>3.0</ele><time>2026-05-02T10:17:05.753Z</time></trkpt><trkpt lat="38.9871149" lon="21.161541"><ele>2.0</ele><time>2026-05-02T10:17:06.753Z</time></trkpt><trkpt lat="38.9873269" lon="21.1614971"><ele>1.0</ele><time>2026-05-02T10:17:07.753Z</time></trkpt><trkpt lat="38.9875401" lon="21.1614512"><ele>0.0</ele><time>2026-05-02T10:17:08.753Z</time></trkpt><trkpt lat="38.9877526" lon="21.1614079"><ele>0.0</ele><time>2026-05-02T10:17:09.753Z</time></trkpt><trkpt lat="38.9879661" lon="21.1613651"><ele>0.0</ele><time>2026-05-02T10:17:10.752Z</time></trkpt><trkpt lat="38.9881771" lon="21.161325"><ele>0.0</ele><time>2026-05-02T10:17:11.752Z</time></trkpt><trkpt lat="38.9883862" lon="21.1612776"><ele>1.0</ele><time>2026-05-02T10:17:12.752Z</time></trkpt><trkpt lat="38.9885864" lon="21.1612143"><ele>2.0</ele><time>2026-05-02T10:17:13.752Z</time></trkpt><trkpt lat="38.9887687" lon="21.1611226"><ele>3.0</ele><time>2026-05-02T10:17:14.752Z</time></trkpt><trkpt lat="38.9889277" lon="21.1610046"><ele>3.0</ele><time>2026-05-02T10:17:15.753Z</time></trkpt><trkpt lat="38.9890553" lon="21.1608664"><ele>3.0</ele><time>2026-05-02T10:17:16.752Z</time></trkpt><trkpt lat="38.989172" lon="21.1606749"><ele>3.0</ele><time>2026-05-02T10:17:17.753Z</time></trkpt><trkpt lat="38.9892622" lon="21.1604572"><ele>3.333333333333333</ele><time>2026-05-02T10:17:18.752Z</time></trkpt><trkpt lat="38.9893389" lon="21.1602065"><ele>3.6666666666666665</ele><time>2026-05-02T10:17:19.752Z</time></trkpt><trkpt lat="38.9894053" lon="21.1599495"><ele>4.0</ele><time>2026-05-02T10:17:20.752Z</time></trkpt><trkpt lat="38.9894642" lon="21.1597037"><ele>4.333333333333333</ele><time>2026-05-02T10:17:21.752Z</time></trkpt><trkpt lat="38.9895316" lon="21.159423"><ele>4.666666666666667</ele><time>2026-05-02T10:17:22.752Z</time></trkpt><trkpt lat="38.9895929" lon="21.1591605"><ele>5.0</ele><time>2026-05-02T10:17:23.752Z</time></trkpt><trkpt lat="38.9896495" lon="21.1589212"><ele>5.0</ele><time>2026-05-02T10:17:24.752Z</time></trkpt><trkpt lat="38.9897112" lon="21.1586489"><ele>5.0</ele><time>2026-05-02T10:17:25.752Z</time></trkpt><trkpt lat="38.9897695" lon="21.1583889"><ele>5.0</ele><time>2026-05-02T10:17:26.753Z</time></trkpt><trkpt lat="38.9898302" lon="21.1581419"><ele>5.0</ele><time>2026-05-02T10:17:27.752Z</time></trkpt><trkpt lat="38.9899026" lon="21.1578694"><ele>5.0</ele><time>2026-05-02T10:17:28.752Z</time></trkpt><trkpt lat="38.9899782" lon="21.1576275"><ele>5.0</ele><time>2026-05-02T10:17:29.753Z</time></trkpt><trkpt lat="38.9900693" lon="21.157409"><ele>7.333333333333334</ele><time>2026-05-02T10:17:30.753Z</time></trkpt><trkpt lat="38.9901794" lon="21.1572123"><ele>9.666666666666666</ele><time>2026-05-02T10:17:31.753Z</time></trkpt><trkpt lat="38.9903156" lon="21.1570469"><ele>12.0</ele><time>2026-05-02T10:17:32.753Z</time></trkpt><trkpt lat="38.9904773" lon="21.1569081"><ele>12.0</ele><time>2026-05-02T10:17:33.753Z</time></trkpt><trkpt lat="38.9906599" lon="21.1567872"><ele>12.0</ele><time>2026-05-02T10:17:34.753Z</time></trkpt><trkpt lat="38.9908633" lon="21.1566758"><ele>12.0</ele><time>2026-05-02T10:17:35.753Z</time></trkpt><trkpt lat="38.9910713" lon="21.1565651"><ele>15.5</ele><time>2026-05-02T10:17:36.752Z</time></trkpt><trkpt lat="38.991268" lon="21.1564589"><ele>19.0</ele><time>2026-05-02T10:17:37.752Z</time></trkpt><trkpt lat="38.991491" lon="21.1563386"><ele>18.5</ele><time>2026-05-02T10:17:38.752Z</time></trkpt><trkpt lat="38.9917032" lon="21.1562248"><ele>18.0</ele><time>2026-05-02T10:17:39.753Z</time></trkpt><trkpt lat="38.991916" lon="21.1561133"><ele>18.0</ele><time>2026-05-02T10:17:40.753Z</time></trkpt><trkpt lat="38.9921283" lon="21.1559977"><ele>18.0</ele><time>2026-05-02T10:17:41.752Z</time></trkpt><trkpt lat="38.9923422" lon="21.1558828"><ele>16.0</ele><time>2026-05-02T10:17:42.753Z</time></trkpt><trkpt lat="38.9925568" lon="21.1557579"><ele>14.0</ele><time>2026-05-02T10:17:43.753Z</time></trkpt><trkpt lat="38.9927729" lon="21.1556222"><ele>21.5</ele><time>2026-05-02T10:17:44.752Z</time></trkpt><trkpt lat="38.9929914" lon="21.155472"><ele>29.0</ele><time>2026-05-02T10:17:45.753Z</time></trkpt><trkpt lat="38.9932068" lon="21.1553103"><ele>24.5</ele><time>2026-05-02T10:17:46.752Z</time></trkpt><trkpt lat="38.9934203" lon="21.1551442"><ele>20.0</ele><time>2026-05-02T10:17:47.752Z</time></trkpt><trkpt lat="38.9936168" lon="21.1549876"><ele>23.0</ele><time>2026-05-02T10:17:48.752Z</time></trkpt><trkpt lat="38.9938366" lon="21.154806"><ele>26.0</ele><time>2026-05-02T10:17:49.752Z</time></trkpt><trkpt lat="38.9940359" lon="21.1546361"><ele>26.5</ele><time>2026-05-02T10:17:50.753Z</time></trkpt><trkpt lat="38.9942293" lon="21.1544694"><ele>27.0</ele><time>2026-05-02T10:17:51.753Z</time></trkpt><trkpt lat="38.9944185" lon="21.1543109"><ele>27.0</ele><time>2026-05-02T10:17:52.753Z</time></trkpt><trkpt lat="38.9945919" lon="21.154168"><ele>27.0</ele><time>2026-05-02T10:17:53.753Z</time></trkpt><trkpt lat="38.9947832" lon="21.1539989"><ele>27.0</ele><time>2026-05-02T10:17:54.752Z</time></trkpt><trkpt lat="38.9949541" lon="21.1538401"><ele>31.0</ele><time>2026-05-02T10:17:55.753Z</time></trkpt><trkpt lat="38.9951058" lon="21.1536926"><ele>35.0</ele><time>2026-05-02T10:17:56.753Z</time></trkpt><trkpt lat="38.9952726" lon="21.1535207"><ele>39.0</ele><time>2026-05-02T10:17:57.753Z</time></trkpt><trkpt lat="38.9954302" lon="21.1533494"><ele>41.0</ele><time>2026-05-02T10:17:58.752Z</time></trkpt><trkpt lat="38.9955803" lon="21.1531878"><ele>43.0</ele><time>2026-05-02T10:17:59.753Z</time></trkpt><trkpt lat="38.9957544" lon="21.1530085"><ele>45.0</ele><time>2026-05-02T10:18:00.752Z</time></trkpt><trkpt lat="38.9959279" lon="21.1528478"><ele>45.0</ele><time>2026-05-02T10:18:01.753Z</time></trkpt><trkpt lat="38.9961103" lon="21.1526925"><ele>45.0</ele><time>2026-05-02T10:18:02.753Z</time></trkpt><trkpt lat="38.9963015" lon="21.1525393"><ele>45.0</ele><time>2026-05-02T10:18:03.752Z</time></trkpt><trkpt lat="38.9964854" lon="21.1524058"><ele>44.0</ele><time>2026-05-02T10:18:04.753Z</time></trkpt><trkpt lat="38.9966928" lon="21.1522583"><ele>43.0</ele><time>2026-05-02T10:18:05.752Z</time></trkpt><trkpt lat="38.996889" lon="21.1521193"><ele>43.0</ele><time>2026-05-02T10:18:06.753Z</time></trkpt><trkpt lat="38.9970805" lon="21.1519845"><ele>43.0</ele><time>2026-05-02T10:18:07.753Z</time></trkpt><trkpt lat="38.9972696" lon="21.15185"><ele>43.0</ele><time>2026-05-02T10:18:08.753Z</time></trkpt><trkpt lat="38.9974382" lon="21.1517285"><ele>41.333333333333336</ele><time>2026-05-02T10:18:09.753Z</time></trkpt><trkpt lat="38.9976311" lon="21.1515907"><ele>39.666666666666664</ele><time>2026-05-02T10:18:10.753Z</time></trkpt><trkpt lat="38.9978102" lon="21.1514624"><ele>38.0</ele><time>2026-05-02T10:18:11.752Z</time></trkpt><trkpt lat="38.9979795" lon="21.1513379"><ele>38.0</ele><time>2026-05-02T10:18:12.753Z</time></trkpt><trkpt lat="38.9981692" lon="21.1512036"><ele>38.0</ele><time>2026-05-02T10:18:13.752Z</time></trkpt><trkpt lat="38.9983519" lon="21.1510796"><ele>38.0</ele><time>2026-05-02T10:18:14.753Z</time></trkpt><trkpt lat="38.9985264" lon="21.1509788"><ele>41.0</ele><time>2026-05-02T10:18:15.752Z</time></trkpt><trkpt lat="38.9987381" lon="21.1508798"><ele>44.0</ele><time>2026-05-02T10:18:16.752Z</time></trkpt><trkpt lat="38.9989527" lon="21.1508111"><ele>47.0</ele><time>2026-05-02T10:18:17.753Z</time></trkpt><trkpt lat="38.9991748" lon="21.150757"><ele>45.33333333333333</ele><time>2026-05-02T10:18:18.752Z</time></trkpt><trkpt lat="38.9993881" lon="21.1506999"><ele>43.666666666666664</ele><time>2026-05-02T10:18:19.753Z</time></trkpt><trkpt lat="38.9995726" lon="21.1506459"><ele>42.0</ele><time>2026-05-02T10:18:20.752Z</time></trkpt><trkpt lat="38.9997632" lon="21.1505661"><ele>42.0</ele><time>2026-05-02T10:18:21.753Z</time></trkpt><trkpt lat="38.9999257" lon="21.1504473"><ele>42.0</ele><time>2026-05-02T10:18:22.753Z</time></trkpt><trkpt lat="39.0000691" lon="21.1502983"><ele>42.0</ele><time>2026-05-02T10:18:23.753Z</time></trkpt><trkpt lat="39.0002192" lon="21.1500986"><ele>42.0</ele><time>2026-05-02T10:18:24.753Z</time></trkpt><trkpt lat="39.0003452" lon="21.1499109"><ele>42.0</ele><time>2026-05-02T10:18:25.753Z</time></trkpt><trkpt lat="39.0004846" lon="21.1496969"><ele>42.0</ele><time>2026-05-02T10:18:26.753Z</time></trkpt><trkpt lat="39.0006266" lon="21.1495099"><ele>44.0</ele><time>2026-05-02T10:18:27.752Z</time></trkpt><trkpt lat="39.0007782" lon="21.149344"><ele>46.0</ele><time>2026-05-02T10:18:28.752Z</time></trkpt><trkpt lat="39.0009569" lon="21.1491618"><ele>48.0</ele><time>2026-05-02T10:18:29.753Z</time></trkpt><trkpt lat="39.0011323" lon="21.1489981"><ele>45.666666666666664</ele><time>2026-05-02T10:18:30.752Z</time></trkpt><trkpt lat="39.001298" lon="21.1488523"><ele>43.33333333333333</ele><time>2026-05-02T10:18:31.752Z</time></trkpt><trkpt lat="39.0014907" lon="21.1487103"><ele>41.0</ele><time>2026-05-02T10:18:32.752Z</time></trkpt><trkpt lat="39.0016812" lon="21.1486096"><ele>41.0</ele><time>2026-05-02T10:18:33.753Z</time></trkpt><trkpt lat="39.0018757" lon="21.1485367"><ele>41.0</ele><time>2026-05-02T10:18:34.753Z</time></trkpt><trkpt lat="39.0020717" lon="21.1484634"><ele>41.0</ele><time>2026-05-02T10:18:35.753Z</time></trkpt><trkpt lat="39.0022546" lon="21.1483851"><ele>41.0</ele><time>2026-05-02T10:18:36.753Z</time></trkpt><trkpt lat="39.0024421" lon="21.1482664"><ele>41.0</ele><time>2026-05-02T10:18:37.753Z</time></trkpt><trkpt lat="39.0026066" lon="21.1481252"><ele>41.0</ele><time>2026-05-02T10:18:38.752Z</time></trkpt><trkpt lat="39.0027599" lon="21.1479702"><ele>37.666666666666664</ele><time>2026-05-02T10:18:39.752Z</time></trkpt><trkpt lat="39.002913" lon="21.1478301"><ele>34.333333333333336</ele><time>2026-05-02T10:18:40.752Z</time></trkpt><trkpt lat="39.0030647" lon="21.1477336"><ele>31.0</ele><time>2026-05-02T10:18:41.753Z</time></trkpt><trkpt lat="39.0032482" lon="21.1476648"><ele>37.333333333333336</ele><time>2026-05-02T10:18:42.752Z</time></trkpt><trkpt lat="39.0034311" lon="21.1476395"><ele>43.66666666666667</ele><time>2026-05-02T10:18:43.752Z</time></trkpt><trkpt lat="39.0036089" lon="21.1476335"><ele>50.0</ele><time>2026-05-02T10:18:44.752Z</time></trkpt><trkpt lat="39.0038118" lon="21.1476275"><ele>50.0</ele><time>2026-05-02T10:18:45.753Z</time></trkpt><trkpt lat="39.0040011" lon="21.1476188"><ele>50.0</ele><time>2026-05-02T10:18:46.752Z</time></trkpt><trkpt lat="39.0041857" lon="21.1475969"><ele>50.0</ele><time>2026-05-02T10:18:47.752Z</time></trkpt><trkpt lat="39.0043925" lon="21.1475627"><ele>51.333333333333336</ele><time>2026-05-02T10:18:48.753Z</time></trkpt><trkpt lat="39.0045881" lon="21.1475112"><ele>52.66666666666667</ele><time>2026-05-02T10:18:49.752Z</time></trkpt><trkpt lat="39.0047871" lon="21.1474462"><ele>54.0</ele><time>2026-05-02T10:18:50.753Z</time></trkpt><trkpt lat="39.0049833" lon="21.1473731"><ele>48.333333333333336</ele><time>2026-05-02T10:18:51.753Z</time></trkpt><trkpt lat="39.0051631" lon="21.1473055"><ele>42.66666666666667</ele><time>2026-05-02T10:18:52.753Z</time></trkpt><trkpt lat="39.0053648" lon="21.147229"><ele>37.0</ele><time>2026-05-02T10:18:53.753Z</time></trkpt><trkpt lat="39.0055444" lon="21.1471523"><ele>37.0</ele><time>2026-05-02T10:18:54.752Z</time></trkpt><trkpt lat="39.0057098" lon="21.1470609"><ele>37.0</ele><time>2026-05-02T10:18:55.753Z</time></trkpt><trkpt lat="39.0058597" lon="21.1469437"><ele>37.0</ele><time>2026-05-02T10:18:56.752Z</time></trkpt><trkpt lat="39.0059859" lon="21.1468135"><ele>41.333333333333336</ele><time>2026-05-02T10:18:57.752Z</time></trkpt><trkpt lat="39.006105" lon="21.1466416"><ele>45.66666666666667</ele><time>2026-05-02T10:18:58.752Z</time></trkpt><trkpt lat="39.0061857" lon="21.1464568"><ele>50.0</ele><time>2026-05-02T10:18:59.752Z</time></trkpt><trkpt lat="39.0062295" lon="21.1462664"><ele>50.0</ele><time>2026-05-02T10:19:00.752Z</time></trkpt><trkpt lat="39.0062456" lon="21.1460378"><ele>50.0</ele><time>2026-05-02T10:19:01.753Z</time></trkpt><trkpt lat="39.0062414" lon="21.1458203"><ele>50.0</ele><time>2026-05-02T10:19:02.752Z</time></trkpt><trkpt lat="39.0062312" lon="21.1456173"><ele>48.333333333333336</ele><time>2026-05-02T10:19:03.753Z</time></trkpt><trkpt lat="39.0062299" lon="21.1453864"><ele>46.66666666666667</ele><time>2026-05-02T10:19:04.753Z</time></trkpt><trkpt lat="39.0062555" lon="21.145171"><ele>45.0</ele><time>2026-05-02T10:19:05.752Z</time></trkpt><trkpt lat="39.0063109" lon="21.1449684"><ele>38.0</ele><time>2026-05-02T10:19:06.752Z</time></trkpt><trkpt lat="39.0063931" lon="21.144776"><ele>31.0</ele><time>2026-05-02T10:19:07.752Z</time></trkpt><trkpt lat="39.0064865" lon="21.1446167"><ele>24.0</ele><time>2026-05-02T10:19:08.753Z</time></trkpt><trkpt lat="39.0066144" lon="21.1444741"><ele>36.0</ele><time>2026-05-02T10:19:09.753Z</time></trkpt><trkpt lat="39.0067513" lon="21.1443801"><ele>48.0</ele><time>2026-05-02T10:19:10.752Z</time></trkpt><trkpt lat="39.0069006" lon="21.1443313"><ele>60.0</ele><time>2026-05-02T10:19:11.753Z</time></trkpt><trkpt lat="39.0070633" lon="21.1443172"><ele>60.0</ele><time>2026-05-02T10:19:12.753Z</time></trkpt><trkpt lat="39.0072272" lon="21.1443184"><ele>60.0</ele><time>2026-05-02T10:19:13.752Z</time></trkpt><trkpt lat="39.007424" lon="21.1443333"><ele>60.0</ele><time>2026-05-02T10:19:14.752Z</time></trkpt><trkpt lat="39.0076111" lon="21.1443562"><ele>61.33333333333333</ele><time>2026-05-02T10:19:15.752Z</time></trkpt><trkpt lat="39.0077881" lon="21.1443911"><ele>62.666666666666664</ele><time>2026-05-02T10:19:16.752Z</time></trkpt><trkpt lat="39.0079981" lon="21.1444397"><ele>64.0</ele><time>2026-05-02T10:19:17.753Z</time></trkpt><trkpt lat="39.008191" lon="21.1444947"><ele>64.0</ele><time>2026-05-02T10:19:18.752Z</time></trkpt><trkpt lat="39.0083662" lon="21.1445447"><ele>64.0</ele><time>2026-05-02T10:19:19.753Z</time></trkpt><trkpt lat="39.00856" lon="21.1446009"><ele>64.0</ele><time>2026-05-02T10:19:20.753Z</time></trkpt><trkpt lat="39.0087371" lon="21.14464"><ele>64.0</ele><time>2026-05-02T10:19:21.753Z</time></trkpt><trkpt lat="39.0089103" lon="21.1446478"><ele>64.0</ele><time>2026-05-02T10:19:22.752Z</time></trkpt><trkpt lat="39.0090841" lon="21.1446092"><ele>64.0</ele><time>2026-05-02T10:19:23.752Z</time></trkpt><trkpt lat="39.0092429" lon="21.1445285"><ele>65.66666666666666</ele><time>2026-05-02T10:19:24.753Z</time></trkpt><trkpt lat="39.0094272" lon="21.1444203"><ele>67.33333333333333</ele><time>2026-05-02T10:19:25.752Z</time></trkpt><trkpt lat="39.0096054" lon="21.1443074"><ele>69.0</ele><time>2026-05-02T10:19:26.752Z</time></trkpt><trkpt lat="39.0097831" lon="21.1441901"><ele>69.0</ele><time>2026-05-02T10:19:27.753Z</time></trkpt><trkpt lat="39.0099558" lon="21.1440787"><ele>69.0</ele><time>2026-05-02T10:19:28.752Z</time></trkpt><trkpt lat="39.0101122" lon="21.1439805"><ele>69.0</ele><time>2026-05-02T10:19:29.753Z</time></trkpt><trkpt lat="39.0102797" lon="21.1438817"><ele>65.33333333333333</ele><time>2026-05-02T10:19:30.752Z</time></trkpt><trkpt lat="39.0104243" lon="21.1437929"><ele>61.666666666666664</ele><time>2026-05-02T10:19:31.752Z</time></trkpt><trkpt lat="39.0105566" lon="21.1437175"><ele>58.0</ele><time>2026-05-02T10:19:32.752Z</time></trkpt><trkpt lat="39.0107025" lon="21.1436443"><ele>61.75</ele><time>2026-05-02T10:19:33.752Z</time></trkpt><trkpt lat="39.0108378" lon="21.1435817"><ele>65.5</ele><time>2026-05-02T10:19:34.752Z</time></trkpt><trkpt lat="39.0109697" lon="21.1435286"><ele>69.25</ele><time>2026-05-02T10:19:35.752Z</time></trkpt><trkpt lat="39.0111226" lon="21.1434835"><ele>73.0</ele><time>2026-05-02T10:19:36.752Z</time></trkpt><trkpt lat="39.0112568" lon="21.1434647"><ele>73.0</ele><time>2026-05-02T10:19:37.753Z</time></trkpt><trkpt lat="39.0113844" lon="21.1434529"><ele>73.0</ele><time>2026-05-02T10:19:38.753Z</time></trkpt><trkpt lat="39.0115008" lon="21.1434511"><ele>73.0</ele><time>2026-05-02T10:19:39.753Z</time></trkpt><trkpt lat="39.0116023" lon="21.1434499"><ele>73.0</ele><time>2026-05-02T10:19:40.753Z</time></trkpt><trkpt lat="39.0117154" lon="21.1434462"><ele>74.2</ele><time>2026-05-02T10:19:41.752Z</time></trkpt><trkpt lat="39.0118199" lon="21.143436"><ele>75.4</ele><time>2026-05-02T10:19:42.753Z</time></trkpt><trkpt lat="39.0119219" lon="21.1434096"><ele>76.60000000000001</ele><time>2026-05-02T10:19:43.752Z</time></trkpt><trkpt lat="39.0120177" lon="21.1433605"><ele>77.8</ele><time>2026-05-02T10:19:44.753Z</time></trkpt><trkpt lat="39.0120971" lon="21.143282"><ele>79.0</ele><time>2026-05-02T10:19:45.753Z</time></trkpt><trkpt lat="39.0121613" lon="21.143168"><ele>73.8</ele><time>2026-05-02T10:19:46.753Z</time></trkpt><trkpt lat="39.0121993" lon="21.143048"><ele>68.60000000000001</ele><time>2026-05-02T10:19:47.752Z</time></trkpt><trkpt lat="39.0122244" lon="21.1429303"><ele>63.4</ele><time>2026-05-02T10:19:48.753Z</time></trkpt><trkpt lat="39.0122361" lon="21.1427845"><ele>58.2</ele><time>2026-05-02T10:19:49.753Z</time></trkpt><trkpt lat="39.0122423" lon="21.1426553"><ele>53.0</ele><time>2026-05-02T10:19:50.752Z</time></trkpt><trkpt lat="39.0122491" lon="21.142535"><ele>53.0</ele><time>2026-05-02T10:19:51.752Z</time></trkpt><trkpt lat="39.0122536" lon="21.1423949"><ele>53.0</ele><time>2026-05-02T10:19:52.752Z</time></trkpt><trkpt lat="39.012259" lon="21.1422697"><ele>53.0</ele><time>2026-05-02T10:19:53.753Z</time></trkpt><trkpt lat="39.0122662" lon="21.1421477"><ele>53.0</ele><time>2026-05-02T10:19:54.753Z</time></trkpt><trkpt lat="39.0122782" lon="21.1420266"><ele>53.0</ele><time>2026-05-02T10:19:55.753Z</time></trkpt><trkpt lat="39.0123007" lon="21.1419138"><ele>53.0</ele><time>2026-05-02T10:19:56.753Z</time></trkpt><trkpt lat="39.0123418" lon="21.141789"><ele>53.0</ele><time>2026-05-02T10:19:57.753Z</time></trkpt><trkpt lat="39.0123941" lon="21.1416665"><ele>53.0</ele><time>2026-05-02T10:19:58.753Z</time></trkpt><trkpt lat="39.012466" lon="21.141555"><ele>53.0</ele><time>2026-05-02T10:19:59.753Z</time></trkpt><trkpt lat="39.0125578" lon="21.141465"><ele>53.0</ele><time>2026-05-02T10:20:00.753Z</time></trkpt><trkpt lat="39.0126478" lon="21.1414053"><ele>53.0</ele><time>2026-05-02T10:20:01.753Z</time></trkpt><trkpt lat="39.0127478" lon="21.1413442"><ele>53.0</ele><time>2026-05-02T10:20:02.752Z</time></trkpt><trkpt lat="39.0128476" lon="21.1412918"><ele>53.0</ele><time>2026-05-02T10:20:03.752Z</time></trkpt><trkpt lat="39.0129416" lon="21.1412416"><ele>53.0</ele><time>2026-05-02T10:20:04.753Z</time></trkpt><trkpt lat="39.0130445" lon="21.1411849"><ele>53.0</ele><time>2026-05-02T10:20:05.752Z</time></trkpt><trkpt lat="39.0131405" lon="21.1411303"><ele>53.0</ele><time>2026-05-02T10:20:06.753Z</time></trkpt><trkpt lat="39.0132282" lon="21.1410781"><ele>53.0</ele><time>2026-05-02T10:20:07.753Z</time></trkpt><trkpt lat="39.0133286" lon="21.1410182"><ele>53.0</ele><time>2026-05-02T10:20:08.753Z</time></trkpt><trkpt lat="39.0134233" lon="21.1409588"><ele>53.0</ele><time>2026-05-02T10:20:09.752Z</time></trkpt><trkpt lat="39.0135161" lon="21.140905"><ele>53.0</ele><time>2026-05-02T10:20:10.752Z</time></trkpt><trkpt lat="39.0136174" lon="21.1408563"><ele>56.5</ele><time>2026-05-02T10:20:11.752Z</time></trkpt><trkpt lat="39.013722" lon="21.1408258"><ele>60.0</ele><time>2026-05-02T10:20:12.753Z</time></trkpt><trkpt lat="39.013853" lon="21.1408002"><ele>63.5</ele><time>2026-05-02T10:20:13.753Z</time></trkpt><trkpt lat="39.0139794" lon="21.1407839"><ele>67.0</ele><time>2026-05-02T10:20:14.752Z</time></trkpt><trkpt lat="39.014107" lon="21.140781"><ele>69.5</ele><time>2026-05-02T10:20:15.753Z</time></trkpt><trkpt lat="39.0142368" lon="21.1407796"><ele>72.0</ele><time>2026-05-02T10:20:16.753Z</time></trkpt><trkpt lat="39.0143571" lon="21.1407824"><ele>74.5</ele><time>2026-05-02T10:20:17.752Z</time></trkpt><trkpt lat="39.0144956" lon="21.1407802"><ele>77.0</ele><time>2026-05-02T10:20:18.753Z</time></trkpt><trkpt lat="39.0146447" lon="21.1407752"><ele>77.0</ele><time>2026-05-02T10:20:19.753Z</time></trkpt><trkpt lat="39.0148109" lon="21.1407753"><ele>77.0</ele><time>2026-05-02T10:20:20.752Z</time></trkpt><trkpt lat="39.0150351" lon="21.140782"><ele>77.0</ele><time>2026-05-02T10:20:21.753Z</time></trkpt><trkpt lat="39.0152392" lon="21.140797"><ele>77.66666666666667</ele><time>2026-05-02T10:20:22.752Z</time></trkpt><trkpt lat="39.0154129" lon="21.1408155"><ele>78.33333333333333</ele><time>2026-05-02T10:20:23.753Z</time></trkpt><trkpt lat="39.015593" lon="21.1408337"><ele>79.0</ele><time>2026-05-02T10:20:24.753Z</time></trkpt><trkpt lat="39.0157466" lon="21.1408377"><ele>78.75</ele><time>2026-05-02T10:20:25.752Z</time></trkpt><trkpt lat="39.0158854" lon="21.1408325"><ele>78.5</ele><time>2026-05-02T10:20:26.752Z</time></trkpt><trkpt lat="39.01601" lon="21.1408067"><ele>78.25</ele><time>2026-05-02T10:20:27.752Z</time></trkpt><trkpt lat="39.0161085" lon="21.1407572"><ele>78.0</ele><time>2026-05-02T10:20:28.753Z</time></trkpt><trkpt lat="39.0161997" lon="21.1406635"><ele>72.0</ele><time>2026-05-02T10:20:29.752Z</time></trkpt><trkpt lat="39.0162634" lon="21.140544"><ele>66.0</ele><time>2026-05-02T10:20:30.753Z</time></trkpt><trkpt lat="39.0162975" lon="21.1404018"><ele>60.0</ele><time>2026-05-02T10:20:31.753Z</time></trkpt><trkpt lat="39.0163236" lon="21.1402253"><ele>54.0</ele><time>2026-05-02T10:20:32.752Z</time></trkpt><trkpt lat="39.0163389" lon="21.1400638"><ele>54.0</ele><time>2026-05-02T10:20:33.753Z</time></trkpt><trkpt lat="39.0163634" lon="21.1398876"><ele>54.0</ele><time>2026-05-02T10:20:34.753Z</time></trkpt><trkpt lat="39.0163984" lon="21.1397339"><ele>54.0</ele><time>2026-05-02T10:20:35.752Z</time></trkpt><trkpt lat="39.016449" lon="21.1396062"><ele>54.0</ele><time>2026-05-02T10:20:36.752Z</time></trkpt><trkpt lat="39.0165314" lon="21.1394753"><ele>57.25</ele><time>2026-05-02T10:20:37.752Z</time></trkpt><trkpt lat="39.0166307" lon="21.1393694"><ele>60.5</ele><time>2026-05-02T10:20:38.752Z</time></trkpt><trkpt lat="39.016735" lon="21.1392907"><ele>63.75</ele><time>2026-05-02T10:20:39.752Z</time></trkpt><trkpt lat="39.0168668" lon="21.1392176"><ele>67.0</ele><time>2026-05-02T10:20:40.753Z</time></trkpt><trkpt lat="39.0169976" lon="21.139154"><ele>67.0</ele><time>2026-05-02T10:20:41.752Z</time></trkpt><trkpt lat="39.0171252" lon="21.1390953"><ele>67.0</ele><time>2026-05-02T10:20:42.753Z</time></trkpt><trkpt lat="39.0172423" lon="21.1390302"><ele>67.0</ele><time>2026-05-02T10:20:43.753Z</time></trkpt><trkpt lat="39.0173374" lon="21.1389574"><ele>67.0</ele><time>2026-05-02T10:20:44.752Z</time></trkpt><trkpt lat="39.017412" lon="21.1388417"><ele>65.8</ele><time>2026-05-02T10:20:45.753Z</time></trkpt><trkpt lat="39.0174466" lon="21.1387096"><ele>64.6</ele><time>2026-05-02T10:20:46.752Z</time></trkpt><trkpt lat="39.0174425" lon="21.1385714"><ele>63.39999999999999</ele><time>2026-05-02T10:20:47.753Z</time></trkpt><trkpt lat="39.0173979" lon="21.1384357"><ele>62.199999999999996</ele><time>2026-05-02T10:20:48.753Z</time></trkpt><trkpt lat="39.0173223" lon="21.1383233"><ele>61.0</ele><time>2026-05-02T10:20:49.752Z</time></trkpt><trkpt lat="39.0172078" lon="21.1382136"><ele>61.0</ele><time>2026-05-02T10:20:50.753Z</time></trkpt><trkpt lat="39.0170836" lon="21.1381052"><ele>61.0</ele><time>2026-05-02T10:20:51.752Z</time></trkpt><trkpt lat="39.0169876" lon="21.138007"><ele>61.0</ele><time>2026-05-02T10:20:52.753Z</time></trkpt><trkpt lat="39.0169137" lon="21.137873"><ele>61.0</ele><time>2026-05-02T10:20:53.752Z</time></trkpt><trkpt lat="39.0168848" lon="21.1377267"><ele>61.0</ele><time>2026-05-02T10:20:54.753Z</time></trkpt><trkpt lat="39.0168978" lon="21.1376028"><ele>61.0</ele><time>2026-05-02T10:20:55.752Z</time></trkpt><trkpt lat="39.0169602" lon="21.1374611"><ele>61.0</ele><time>2026-05-02T10:20:56.752Z</time></trkpt><trkpt lat="39.0170682" lon="21.1373324"><ele>61.0</ele><time>2026-05-02T10:20:57.753Z</time></trkpt><trkpt lat="39.0171899" lon="21.1372135"><ele>62.33333333333333</ele><time>2026-05-02T10:20:58.752Z</time></trkpt><trkpt lat="39.0173251" lon="21.1370918"><ele>63.66666666666667</ele><time>2026-05-02T10:20:59.752Z</time></trkpt><trkpt lat="39.0174473" lon="21.1369836"><ele>65.0</ele><time>2026-05-02T10:21:00.753Z</time></trkpt><trkpt lat="39.0175854" lon="21.1368637"><ele>65.0</ele><time>2026-05-02T10:21:01.752Z</time></trkpt><trkpt lat="39.017715" lon="21.1367427"><ele>65.0</ele><time>2026-05-02T10:21:02.752Z</time></trkpt><trkpt lat="39.0178377" lon="21.136629"><ele>65.0</ele><time>2026-05-02T10:21:03.752Z</time></trkpt><trkpt lat="39.0179661" lon="21.1365272"><ele>63.25</ele><time>2026-05-02T10:21:04.752Z</time></trkpt><trkpt lat="39.0180934" lon="21.1364435"><ele>61.5</ele><time>2026-05-02T10:21:05.752Z</time></trkpt><trkpt lat="39.0182319" lon="21.1363618"><ele>59.75</ele><time>2026-05-02T10:21:06.753Z</time></trkpt><trkpt lat="39.0183685" lon="21.1363069"><ele>58.0</ele><time>2026-05-02T10:21:07.753Z</time></trkpt><trkpt lat="39.0185051" lon="21.1362838"><ele>58.0</ele><time>2026-05-02T10:21:08.752Z</time></trkpt><trkpt lat="39.0186661" lon="21.1362886"><ele>58.0</ele><time>2026-05-02T10:21:09.752Z</time></trkpt><trkpt lat="39.018824" lon="21.1363093"><ele>58.0</ele><time>2026-05-02T10:21:10.753Z</time></trkpt><trkpt lat="39.0189662" lon="21.1363363"><ele>58.0</ele><time>2026-05-02T10:21:11.752Z</time></trkpt><trkpt lat="39.0191226" lon="21.136371"><ele>58.0</ele><time>2026-05-02T10:21:12.752Z</time></trkpt><trkpt lat="39.0192641" lon="21.136399"><ele>58.0</ele><time>2026-05-02T10:21:13.752Z</time></trkpt><trkpt lat="39.019401" lon="21.1364165"><ele>58.0</ele><time>2026-05-02T10:21:14.752Z</time></trkpt><trkpt lat="39.0195302" lon="21.1364096"><ele>58.25</ele><time>2026-05-02T10:21:15.753Z</time></trkpt><trkpt lat="39.0196466" lon="21.136382"><ele>58.5</ele><time>2026-05-02T10:21:16.753Z</time></trkpt><trkpt lat="39.0197661" lon="21.1363082"><ele>58.75</ele><time>2026-05-02T10:21:17.753Z</time></trkpt><trkpt lat="39.0198652" lon="21.1362016"><ele>59.0</ele><time>2026-05-02T10:21:18.753Z</time></trkpt><trkpt lat="39.0199502" lon="21.1360598"><ele>58.66666666666667</ele><time>2026-05-02T10:21:19.753Z</time></trkpt><trkpt lat="39.0200203" lon="21.1358877"><ele>58.33333333333333</ele><time>2026-05-02T10:21:20.753Z</time></trkpt><trkpt lat="39.0200749" lon="21.1356991"><ele>58.0</ele><time>2026-05-02T10:21:21.752Z</time></trkpt><trkpt lat="39.0201262" lon="21.135481"><ele>58.0</ele><time>2026-05-02T10:21:22.752Z</time></trkpt><trkpt lat="39.0201666" lon="21.1352827"><ele>58.0</ele><time>2026-05-02T10:21:23.752Z</time></trkpt><trkpt lat="39.0202096" lon="21.1351116"><ele>58.0</ele><time>2026-05-02T10:21:24.752Z</time></trkpt><trkpt lat="39.0202757" lon="21.1349424"><ele>58.0</ele><time>2026-05-02T10:21:25.752Z</time></trkpt><trkpt lat="39.0203603" lon="21.1348097"><ele>56.75</ele><time>2026-05-02T10:21:26.752Z</time></trkpt><trkpt lat="39.0204645" lon="21.1347111"><ele>55.5</ele><time>2026-05-02T10:21:27.753Z</time></trkpt><trkpt lat="39.0205936" lon="21.1346408"><ele>54.25</ele><time>2026-05-02T10:21:28.753Z</time></trkpt><trkpt lat="39.0207264" lon="21.1346209"><ele>53.0</ele><time>2026-05-02T10:21:29.753Z</time></trkpt><trkpt lat="39.0208704" lon="21.1346405"><ele>53.0</ele><time>2026-05-02T10:21:30.752Z</time></trkpt><trkpt lat="39.0210556" lon="21.1346935"><ele>53.0</ele><time>2026-05-02T10:21:31.752Z</time></trkpt><trkpt lat="39.0212351" lon="21.1347659"><ele>53.0</ele><time>2026-05-02T10:21:32.753Z</time></trkpt><trkpt lat="39.0214314" lon="21.1348327"><ele>53.0</ele><time>2026-05-02T10:21:33.753Z</time></trkpt><trkpt lat="39.0216175" lon="21.1348794"><ele>53.0</ele><time>2026-05-02T10:21:34.752Z</time></trkpt><trkpt lat="39.0218021" lon="21.1349147"><ele>53.0</ele><time>2026-05-02T10:21:35.753Z</time></trkpt><trkpt lat="39.0219834" lon="21.134945"><ele>58.0</ele><time>2026-05-02T10:21:36.752Z</time></trkpt><trkpt lat="39.0221469" lon="21.1349698"><ele>63.0</ele><time>2026-05-02T10:21:37.752Z</time></trkpt><trkpt lat="39.022333" lon="21.134991"><ele>68.0</ele><time>2026-05-02T10:21:38.753Z</time></trkpt><trkpt lat="39.022501" lon="21.1349874"><ele>68.0</ele><time>2026-05-02T10:21:39.752Z</time></trkpt><trkpt lat="39.0226542" lon="21.1349657"><ele>68.0</ele><time>2026-05-02T10:21:40.752Z</time></trkpt><trkpt lat="39.0228075" lon="21.1349019"><ele>68.0</ele><time>2026-05-02T10:21:41.753Z</time></trkpt><trkpt lat="39.0229432" lon="21.134817"><ele>61.5</ele><time>2026-05-02T10:21:42.753Z</time></trkpt><trkpt lat="39.02305" lon="21.1347048"><ele>55.0</ele><time>2026-05-02T10:21:43.753Z</time></trkpt><trkpt lat="39.0231498" lon="21.1345468"><ele>48.5</ele><time>2026-05-02T10:21:44.752Z</time></trkpt><trkpt lat="39.0232179" lon="21.1343774"><ele>42.0</ele><time>2026-05-02T10:21:45.752Z</time></trkpt><trkpt lat="39.0232655" lon="21.1341955"><ele>44.75</ele><time>2026-05-02T10:21:46.752Z</time></trkpt><trkpt lat="39.0232971" lon="21.1340045"><ele>47.5</ele><time>2026-05-02T10:21:47.752Z</time></trkpt><trkpt lat="39.0233191" lon="21.133825"><ele>50.25</ele><time>2026-05-02T10:21:48.752Z</time></trkpt><trkpt lat="39.0233518" lon="21.1336281"><ele>53.0</ele><time>2026-05-02T10:21:49.753Z</time></trkpt><trkpt lat="39.0234054" lon="21.1334546"><ele>53.0</ele><time>2026-05-02T10:21:50.752Z</time></trkpt><trkpt lat="39.023478" lon="21.1333006"><ele>53.0</ele><time>2026-05-02T10:21:51.752Z</time></trkpt><trkpt lat="39.0235746" lon="21.1331573"><ele>53.0</ele><time>2026-05-02T10:21:52.752Z</time></trkpt><trkpt lat="39.0236865" lon="21.1330302"><ele>53.0</ele><time>2026-05-02T10:21:53.753Z</time></trkpt><trkpt lat="39.0238201" lon="21.1329047"><ele>51.333333333333336</ele><time>2026-05-02T10:21:54.753Z</time></trkpt><trkpt lat="39.0239758" lon="21.1327777"><ele>49.66666666666667</ele><time>2026-05-02T10:21:55.752Z</time></trkpt><trkpt lat="39.0241169" lon="21.1326814"><ele>48.0</ele><time>2026-05-02T10:21:56.753Z</time></trkpt><trkpt lat="39.0242704" lon="21.1325863"><ele>48.0</ele><time>2026-05-02T10:21:57.752Z</time></trkpt><trkpt lat="39.0244134" lon="21.1325242"><ele>48.0</ele><time>2026-05-02T10:21:58.753Z</time></trkpt><trkpt lat="39.0245451" lon="21.13249"><ele>48.0</ele><time>2026-05-02T10:21:59.752Z</time></trkpt><trkpt lat="39.0247017" lon="21.1324861"><ele>48.0</ele><time>2026-05-02T10:22:00.752Z</time></trkpt><trkpt lat="39.0248501" lon="21.1325113"><ele>48.66666666666667</ele><time>2026-05-02T10:22:01.753Z</time></trkpt><trkpt lat="39.0249896" lon="21.1325607"><ele>49.333333333333336</ele><time>2026-05-02T10:22:02.753Z</time></trkpt><trkpt lat="39.0251532" lon="21.1326295"><ele>50.0</ele><time>2026-05-02T10:22:03.753Z</time></trkpt><trkpt lat="39.0252946" lon="21.1326966"><ele>50.0</ele><time>2026-05-02T10:22:04.752Z</time></trkpt><trkpt lat="39.0254536" lon="21.132759"><ele>50.0</ele><time>2026-05-02T10:22:05.753Z</time></trkpt><trkpt lat="39.025598" lon="21.1327904"><ele>50.0</ele><time>2026-05-02T10:22:06.752Z</time></trkpt><trkpt lat="39.0257313" lon="21.1327912"><ele>50.0</ele><time>2026-05-02T10:22:07.753Z</time></trkpt><trkpt lat="39.0258782" lon="21.1327562"><ele>48.25</ele><time>2026-05-02T10:22:08.752Z</time></trkpt><trkpt lat="39.0259965" lon="21.1326863"><ele>46.5</ele><time>2026-05-02T10:22:09.752Z</time></trkpt><trkpt lat="39.0261142" lon="21.1325773"><ele>44.75</ele><time>2026-05-02T10:22:10.753Z</time></trkpt><trkpt lat="39.026228" lon="21.1324235"><ele>43.0</ele><time>2026-05-02T10:22:11.753Z</time></trkpt><trkpt lat="39.026319" lon="21.1322657"><ele>37.0</ele><time>2026-05-02T10:22:12.753Z</time></trkpt><trkpt lat="39.0264124" lon="21.1320705"><ele>31.0</ele><time>2026-05-02T10:22:13.753Z</time></trkpt><trkpt lat="39.0264891" lon="21.1318847"><ele>25.0</ele><time>2026-05-02T10:22:14.753Z</time></trkpt><trkpt lat="39.0265504" lon="21.131705"><ele>25.333333333333336</ele><time>2026-05-02T10:22:15.752Z</time></trkpt><trkpt lat="39.0266062" lon="21.131499"><ele>25.666666666666664</ele><time>2026-05-02T10:22:16.753Z</time></trkpt><trkpt lat="39.0266347" lon="21.131299"><ele>26.0</ele><time>2026-05-02T10:22:17.752Z</time></trkpt><trkpt lat="39.0266447" lon="21.1311003"><ele>26.0</ele><time>2026-05-02T10:22:18.753Z</time></trkpt><trkpt lat="39.0266263" lon="21.1308999"><ele>26.0</ele><time>2026-05-02T10:22:19.752Z</time></trkpt><trkpt lat="39.0265816" lon="21.130717"><ele>26.0</ele><time>2026-05-02T10:22:20.753Z</time></trkpt><trkpt lat="39.0264938" lon="21.1305143"><ele>31.666666666666664</ele><time>2026-05-02T10:22:21.753Z</time></trkpt><trkpt lat="39.0263758" lon="21.1303273"><ele>37.333333333333336</ele><time>2026-05-02T10:22:22.752Z</time></trkpt><trkpt lat="39.0262371" lon="21.1301425"><ele>43.0</ele><time>2026-05-02T10:22:23.752Z</time></trkpt><trkpt lat="39.0260849" lon="21.129959"><ele>42.66666666666667</ele><time>2026-05-02T10:22:24.753Z</time></trkpt><trkpt lat="39.025941" lon="21.1297912"><ele>42.333333333333336</ele><time>2026-05-02T10:22:25.752Z</time></trkpt><trkpt lat="39.0257786" lon="21.1296033"><ele>42.0</ele><time>2026-05-02T10:22:26.752Z</time></trkpt><trkpt lat="39.0256327" lon="21.1294325"><ele>42.0</ele><time>2026-05-02T10:22:27.752Z</time></trkpt><trkpt lat="39.0255072" lon="21.1292776"><ele>42.0</ele><time>2026-05-02T10:22:28.752Z</time></trkpt><trkpt lat="39.0253758" lon="21.1291049"><ele>42.0</ele><time>2026-05-02T10:22:29.752Z</time></trkpt><trkpt lat="39.0252673" lon="21.1289413"><ele>43.666666666666664</ele><time>2026-05-02T10:22:30.752Z</time></trkpt><trkpt lat="39.0251882" lon="21.1287816"><ele>45.33333333333333</ele><time>2026-05-02T10:22:31.752Z</time></trkpt><trkpt lat="39.0251254" lon="21.1285864"><ele>47.0</ele><time>2026-05-02T10:22:32.752Z</time></trkpt><trkpt lat="39.0251011" lon="21.1283991"><ele>41.33333333333333</ele><time>2026-05-02T10:22:33.752Z</time></trkpt><trkpt lat="39.0251203" lon="21.1282135"><ele>35.666666666666664</ele><time>2026-05-02T10:22:34.753Z</time></trkpt><trkpt lat="39.0251662" lon="21.1280147"><ele>30.0</ele><time>2026-05-02T10:22:35.753Z</time></trkpt><trkpt lat="39.0252384" lon="21.1278542"><ele>30.0</ele><time>2026-05-02T10:22:36.752Z</time></trkpt><trkpt lat="39.0253493" lon="21.127691"><ele>30.0</ele><time>2026-05-02T10:22:37.752Z</time></trkpt><trkpt lat="39.0254819" lon="21.1275691"><ele>30.0</ele><time>2026-05-02T10:22:38.753Z</time></trkpt><trkpt lat="39.0256274" lon="21.1274854"><ele>28.0</ele><time>2026-05-02T10:22:39.752Z</time></trkpt><trkpt lat="39.0258234" lon="21.127411"><ele>26.0</ele><time>2026-05-02T10:22:40.752Z</time></trkpt><trkpt lat="39.0260143" lon="21.1273552"><ele>24.0</ele><time>2026-05-02T10:22:41.752Z</time></trkpt><trkpt lat="39.0262246" lon="21.1272984"><ele>24.0</ele><time>2026-05-02T10:22:42.752Z</time></trkpt><trkpt lat="39.0264483" lon="21.1272306"><ele>24.0</ele><time>2026-05-02T10:22:43.753Z</time></trkpt><trkpt lat="39.0266499" lon="21.127173"><ele>24.0</ele><time>2026-05-02T10:22:44.753Z</time></trkpt><trkpt lat="39.0268787" lon="21.127107"><ele>27.0</ele><time>2026-05-02T10:22:45.752Z</time></trkpt><trkpt lat="39.0270896" lon="21.1270378"><ele>30.0</ele><time>2026-05-02T10:22:46.752Z</time></trkpt><trkpt lat="39.0272801" lon="21.1269685"><ele>33.0</ele><time>2026-05-02T10:22:47.753Z</time></trkpt><trkpt lat="39.0274877" lon="21.1269011"><ele>38.66666666666667</ele><time>2026-05-02T10:22:48.753Z</time></trkpt><trkpt lat="39.0276615" lon="21.1268217"><ele>44.333333333333336</ele><time>2026-05-02T10:22:49.753Z</time></trkpt><trkpt lat="39.0278045" lon="21.1267241"><ele>50.0</ele><time>2026-05-02T10:22:50.753Z</time></trkpt><trkpt lat="39.0279409" lon="21.1265761"><ele>42.333333333333336</ele><time>2026-05-02T10:22:51.752Z</time></trkpt><trkpt lat="39.0280388" lon="21.126414"><ele>34.66666666666667</ele><time>2026-05-02T10:22:52.753Z</time></trkpt><trkpt lat="39.0281405" lon="21.1262124"><ele>27.0</ele><time>2026-05-02T10:22:53.752Z</time></trkpt><trkpt lat="39.0282322" lon="21.1260198"><ele>29.666666666666664</ele><time>2026-05-02T10:22:54.752Z</time></trkpt><trkpt lat="39.028325" lon="21.1258521"><ele>32.33333333333333</ele><time>2026-05-02T10:22:55.752Z</time></trkpt><trkpt lat="39.0284413" lon="21.1256851"><ele>35.0</ele><time>2026-05-02T10:22:56.753Z</time></trkpt><trkpt lat="39.0285663" lon="21.1255708"><ele>35.0</ele><time>2026-05-02T10:22:57.752Z</time></trkpt><trkpt lat="39.0287216" lon="21.1254946"><ele>35.0</ele><time>2026-05-02T10:22:58.752Z</time></trkpt><trkpt lat="39.0289141" lon="21.1254662"><ele>35.0</ele><time>2026-05-02T10:22:59.752Z</time></trkpt><trkpt lat="39.0291026" lon="21.1254629"><ele>37.33333333333333</ele><time>2026-05-02T10:23:00.752Z</time></trkpt><trkpt lat="39.0293355" lon="21.1254794"><ele>39.666666666666664</ele><time>2026-05-02T10:23:01.753Z</time></trkpt><trkpt lat="39.0295435" lon="21.125497"><ele>42.0</ele><time>2026-05-02T10:23:02.752Z</time></trkpt><trkpt lat="39.0297253" lon="21.1255164"><ele>42.0</ele><time>2026-05-02T10:23:03.752Z</time></trkpt><trkpt lat="39.0299213" lon="21.1255504"><ele>42.0</ele><time>2026-05-02T10:23:04.753Z</time></trkpt><trkpt lat="39.030092" lon="21.1256234"><ele>42.0</ele><time>2026-05-02T10:23:05.752Z</time></trkpt><trkpt lat="39.0302439" lon="21.1257261"><ele>52.0</ele><time>2026-05-02T10:23:06.752Z</time></trkpt><trkpt lat="39.0303911" lon="21.125865"><ele>62.0</ele><time>2026-05-02T10:23:07.753Z</time></trkpt><trkpt lat="39.0305001" lon="21.1260233"><ele>72.0</ele><time>2026-05-02T10:23:08.752Z</time></trkpt><trkpt lat="39.0306125" lon="21.1262203"><ele>72.0</ele><time>2026-05-02T10:23:09.753Z</time></trkpt><trkpt lat="39.0307172" lon="21.1264076"><ele>72.0</ele><time>2026-05-02T10:23:10.753Z</time></trkpt><trkpt lat="39.0308112" lon="21.1265922"><ele>72.0</ele><time>2026-05-02T10:23:11.752Z</time></trkpt><trkpt lat="39.0309206" lon="21.1267928"><ele>65.66666666666667</ele><time>2026-05-02T10:23:12.753Z</time></trkpt><trkpt lat="39.0310246" lon="21.1269585"><ele>59.333333333333336</ele><time>2026-05-02T10:23:13.753Z</time></trkpt><trkpt lat="39.0311485" lon="21.1271198"><ele>53.0</ele><time>2026-05-02T10:23:14.752Z</time></trkpt><trkpt lat="39.0312969" lon="21.1272688"><ele>53.0</ele><time>2026-05-02T10:23:15.753Z</time></trkpt><trkpt lat="39.0314397" lon="21.1273826"><ele>53.0</ele><time>2026-05-02T10:23:16.752Z</time></trkpt><trkpt lat="39.0316047" lon="21.1275032"><ele>53.0</ele><time>2026-05-02T10:23:17.752Z</time></trkpt><trkpt lat="39.0317429" lon="21.1276053"><ele>52.5</ele><time>2026-05-02T10:23:18.752Z</time></trkpt><trkpt lat="39.0318694" lon="21.1276964"><ele>52.0</ele><time>2026-05-02T10:23:19.752Z</time></trkpt><trkpt lat="39.0319964" lon="21.1277858"><ele>51.5</ele><time>2026-05-02T10:23:20.753Z</time></trkpt><trkpt lat="39.0321078" lon="21.127842"><ele>51.0</ele><time>2026-05-02T10:23:21.753Z</time></trkpt><trkpt lat="39.0322068" lon="21.1278854"><ele>51.0</ele><time>2026-05-02T10:23:22.752Z</time></trkpt><trkpt lat="39.0323176" lon="21.1279102"><ele>51.0</ele><time>2026-05-02T10:23:23.752Z</time></trkpt><trkpt lat="39.032416" lon="21.1279036"><ele>51.0</ele><time>2026-05-02T10:23:24.752Z</time></trkpt><trkpt lat="39.0325201" lon="21.1278545"><ele>51.0</ele><time>2026-05-02T10:23:25.753Z</time></trkpt><trkpt lat="39.0326057" lon="21.1277673"><ele>51.0</ele><time>2026-05-02T10:23:26.752Z</time></trkpt><trkpt lat="39.0326717" lon="21.1276609"><ele>48.25</ele><time>2026-05-02T10:23:27.752Z</time></trkpt><trkpt lat="39.0327341" lon="21.1275273"><ele>45.5</ele><time>2026-05-02T10:23:28.752Z</time></trkpt><trkpt lat="39.0327829" lon="21.1273973"><ele>42.75</ele><time>2026-05-02T10:23:29.753Z</time></trkpt><trkpt lat="39.0328305" lon="21.1272546"><ele>40.0</ele><time>2026-05-02T10:23:30.752Z</time></trkpt><trkpt lat="39.0328791" lon="21.1271048"><ele>36.0</ele><time>2026-05-02T10:23:31.753Z</time></trkpt><trkpt lat="39.0329239" lon="21.1269736"><ele>32.0</ele><time>2026-05-02T10:23:32.752Z</time></trkpt><trkpt lat="39.0329805" lon="21.1268226"><ele>28.0</ele><time>2026-05-02T10:23:33.752Z</time></trkpt><trkpt lat="39.0330496" lon="21.1266821"><ele>24.0</ele><time>2026-05-02T10:23:34.752Z</time></trkpt><trkpt lat="39.0331281" lon="21.1265568"><ele>24.25</ele><time>2026-05-02T10:23:35.753Z</time></trkpt><trkpt lat="39.0332215" lon="21.1264365"><ele>24.5</ele><time>2026-05-02T10:23:36.753Z</time></trkpt><trkpt lat="39.0333264" lon="21.1263536"><ele>24.75</ele><time>2026-05-02T10:23:37.753Z</time></trkpt><trkpt lat="39.0334351" lon="21.1263054"><ele>25.0</ele><time>2026-05-02T10:23:38.753Z</time></trkpt><trkpt lat="39.0335706" lon="21.1262768"><ele>25.0</ele><time>2026-05-02T10:23:39.752Z</time></trkpt><trkpt lat="39.0337058" lon="21.126269"><ele>25.0</ele><time>2026-05-02T10:23:40.753Z</time></trkpt><trkpt lat="39.0338534" lon="21.1262696"><ele>25.0</ele><time>2026-05-02T10:23:41.752Z</time></trkpt><trkpt lat="39.0340073" lon="21.1262841"><ele>25.0</ele><time>2026-05-02T10:23:42.752Z</time></trkpt><trkpt lat="39.0341291" lon="21.1262945"><ele>25.6</ele><time>2026-05-02T10:23:43.753Z</time></trkpt><trkpt lat="39.0342523" lon="21.1263006"><ele>26.2</ele><time>2026-05-02T10:23:44.753Z</time></trkpt><trkpt lat="39.0343505" lon="21.1262954"><ele>26.799999999999997</ele><time>2026-05-02T10:23:45.752Z</time></trkpt><trkpt lat="39.0344428" lon="21.1262731"><ele>27.4</ele><time>2026-05-02T10:23:46.752Z</time></trkpt><trkpt lat="39.0345318" lon="21.1262175"><ele>28.0</ele><time>2026-05-02T10:23:47.752Z</time></trkpt><trkpt lat="39.0345949" lon="21.1261356"><ele>28.0</ele><time>2026-05-02T10:23:48.752Z</time></trkpt><trkpt lat="39.0346403" lon="21.1260121"><ele>28.0</ele><time>2026-05-02T10:23:49.753Z</time></trkpt><trkpt lat="39.0346513" lon="21.1258752"><ele>28.0</ele><time>2026-05-02T10:23:50.753Z</time></trkpt><trkpt lat="39.034638" lon="21.125738"><ele>28.0</ele><time>2026-05-02T10:23:51.753Z</time></trkpt><trkpt lat="39.0346017" lon="21.1255784"><ele>27.5</ele><time>2026-05-02T10:23:52.753Z</time></trkpt><trkpt lat="39.0345589" lon="21.125427"><ele>27.0</ele><time>2026-05-02T10:23:53.752Z</time></trkpt><trkpt lat="39.0345104" lon="21.1252865"><ele>26.5</ele><time>2026-05-02T10:23:54.752Z</time></trkpt><trkpt lat="39.034453" lon="21.1251265"><ele>26.0</ele><time>2026-05-02T10:23:55.752Z</time></trkpt><trkpt lat="39.0344045" lon="21.1249852"><ele>26.5</ele><time>2026-05-02T10:23:56.753Z</time></trkpt><trkpt lat="39.0343549" lon="21.1248218"><ele>27.0</ele><time>2026-05-02T10:23:57.753Z</time></trkpt><trkpt lat="39.034317" lon="21.1246635"><ele>27.5</ele><time>2026-05-02T10:23:58.752Z</time></trkpt><trkpt lat="39.0342941" lon="21.1245055"><ele>28.0</ele><time>2026-05-02T10:23:59.753Z</time></trkpt><trkpt lat="39.0342891" lon="21.1243157"><ele>28.0</ele><time>2026-05-02T10:24:00.753Z</time></trkpt><trkpt lat="39.0343164" lon="21.1241425"><ele>28.0</ele><time>2026-05-02T10:24:01.753Z</time></trkpt><trkpt lat="39.034362" lon="21.1239642"><ele>28.0</ele><time>2026-05-02T10:24:02.753Z</time></trkpt><trkpt lat="39.0344273" lon="21.1237803"><ele>28.0</ele><time>2026-05-02T10:24:03.753Z</time></trkpt><trkpt lat="39.0344873" lon="21.1236124"><ele>28.0</ele><time>2026-05-02T10:24:04.753Z</time></trkpt><trkpt lat="39.0345506" lon="21.1234322"><ele>28.0</ele><time>2026-05-02T10:24:05.753Z</time></trkpt><trkpt lat="39.0346054" lon="21.1232741"><ele>28.0</ele><time>2026-05-02T10:24:06.753Z</time></trkpt><trkpt lat="39.0346542" lon="21.1231323"><ele>28.0</ele><time>2026-05-02T10:24:07.753Z</time></trkpt><trkpt lat="39.0347059" lon="21.1229908"><ele>28.0</ele><time>2026-05-02T10:24:08.752Z</time></trkpt><trkpt lat="39.0347477" lon="21.1228664"><ele>27.999999999999996</ele><time>2026-05-02T10:24:09.752Z</time></trkpt><trkpt lat="39.0347749" lon="21.1227518"><ele>27.999999999999996</ele><time>2026-05-02T10:24:10.752Z</time></trkpt><trkpt lat="39.0347883" lon="21.1226187"><ele>28.0</ele><time>2026-05-02T10:24:11.753Z</time></trkpt><trkpt lat="39.034776" lon="21.1225063"><ele>28.0</ele><time>2026-05-02T10:24:12.753Z</time></trkpt><trkpt lat="39.0347288" lon="21.1223899"><ele>31.4</ele><time>2026-05-02T10:24:13.752Z</time></trkpt><trkpt lat="39.0346589" lon="21.1222995"><ele>34.8</ele><time>2026-05-02T10:24:14.753Z</time></trkpt><trkpt lat="39.0345721" lon="21.1222318"><ele>38.2</ele><time>2026-05-02T10:24:15.753Z</time></trkpt><trkpt lat="39.0344524" lon="21.1221791"><ele>41.6</ele><time>2026-05-02T10:24:16.752Z</time></trkpt><trkpt lat="39.0343412" lon="21.1221393"><ele>45.0</ele><time>2026-05-02T10:24:17.753Z</time></trkpt><trkpt lat="39.034224" lon="21.1221024"><ele>38.5</ele><time>2026-05-02T10:24:18.753Z</time></trkpt><trkpt lat="39.0341012" lon="21.1220615"><ele>32.0</ele><time>2026-05-02T10:24:19.753Z</time></trkpt><trkpt lat="39.0339996" lon="21.122016"><ele>25.5</ele><time>2026-05-02T10:24:20.752Z</time></trkpt><trkpt lat="39.033897" lon="21.1219417"><ele>19.0</ele><time>2026-05-02T10:24:21.753Z</time></trkpt><trkpt lat="39.0338147" lon="21.12184"><ele>19.0</ele><time>2026-05-02T10:24:22.753Z</time></trkpt><trkpt lat="39.033758" lon="21.1217261"><ele>19.0</ele><time>2026-05-02T10:24:23.752Z</time></trkpt><trkpt lat="39.0337197" lon="21.1215825"><ele>19.0</ele><time>2026-05-02T10:24:24.752Z</time></trkpt><trkpt lat="39.0337168" lon="21.1214393"><ele>19.0</ele><time>2026-05-02T10:24:25.753Z</time></trkpt><trkpt lat="39.0337394" lon="21.1212982"><ele>19.0</ele><time>2026-05-02T10:24:26.752Z</time></trkpt><trkpt lat="39.0337882" lon="21.1211223"><ele>18.0</ele><time>2026-05-02T10:24:27.753Z</time></trkpt><trkpt lat="39.0338358" lon="21.1209711"><ele>17.0</ele><time>2026-05-02T10:24:28.753Z</time></trkpt><trkpt lat="39.0338869" lon="21.1208037"><ele>16.0</ele><time>2026-05-02T10:24:29.753Z</time></trkpt><trkpt lat="39.0339375" lon="21.1206422"><ele>15.0</ele><time>2026-05-02T10:24:30.752Z</time></trkpt><trkpt lat="39.0339856" lon="21.1204896"><ele>16.0</ele><time>2026-05-02T10:24:31.753Z</time></trkpt><trkpt lat="39.034039" lon="21.1203185"><ele>17.0</ele><time>2026-05-02T10:24:32.752Z</time></trkpt><trkpt lat="39.034089" lon="21.1201663"><ele>18.0</ele><time>2026-05-02T10:24:33.753Z</time></trkpt><trkpt lat="39.0341403" lon="21.1200077"><ele>19.0</ele><time>2026-05-02T10:24:34.753Z</time></trkpt><trkpt lat="39.0341925" lon="21.1198476"><ele>19.0</ele><time>2026-05-02T10:24:35.753Z</time></trkpt><trkpt lat="39.0342421" lon="21.1197139"><ele>19.0</ele><time>2026-05-02T10:24:36.752Z</time></trkpt><trkpt lat="39.0343161" lon="21.1195689"><ele>19.0</ele><time>2026-05-02T10:24:37.752Z</time></trkpt><trkpt lat="39.0343983" lon="21.1194473"><ele>19.0</ele><time>2026-05-02T10:24:38.752Z</time></trkpt><trkpt lat="39.0344937" lon="21.1193578"><ele>19.0</ele><time>2026-05-02T10:24:39.753Z</time></trkpt><trkpt lat="39.0346154" lon="21.119287"><ele>19.0</ele><time>2026-05-02T10:24:40.753Z</time></trkpt><trkpt lat="39.0347415" lon="21.1192432"><ele>19.0</ele><time>2026-05-02T10:24:41.752Z</time></trkpt><trkpt lat="39.0348589" lon="21.1192255"><ele>19.0</ele><time>2026-05-02T10:24:42.752Z</time></trkpt><trkpt lat="39.0349967" lon="21.1192397"><ele>22.5</ele><time>2026-05-02T10:24:43.752Z</time></trkpt><trkpt lat="39.0351164" lon="21.1192766"><ele>26.0</ele><time>2026-05-02T10:24:44.753Z</time></trkpt><trkpt lat="39.03523" lon="21.1193556"><ele>29.5</ele><time>2026-05-02T10:24:45.752Z</time></trkpt><trkpt lat="39.0353276" lon="21.1194577"><ele>33.0</ele><time>2026-05-02T10:24:46.753Z</time></trkpt><trkpt lat="39.0353997" lon="21.1195747"><ele>33.0</ele><time>2026-05-02T10:24:47.752Z</time></trkpt><trkpt lat="39.0354693" lon="21.1197221"><ele>33.0</ele><time>2026-05-02T10:24:48.752Z</time></trkpt><trkpt lat="39.0355295" lon="21.1198602"><ele>33.0</ele><time>2026-05-02T10:24:49.753Z</time></trkpt><trkpt lat="39.0355959" lon="21.1200028"><ele>33.0</ele><time>2026-05-02T10:24:50.753Z</time></trkpt><trkpt lat="39.0356676" lon="21.1201575"><ele>33.5</ele><time>2026-05-02T10:24:51.752Z</time></trkpt><trkpt lat="39.0357307" lon="21.120281"><ele>34.0</ele><time>2026-05-02T10:24:52.752Z</time></trkpt><trkpt lat="39.0358187" lon="21.1204021"><ele>34.5</ele><time>2026-05-02T10:24:53.753Z</time></trkpt><trkpt lat="39.0359153" lon="21.1204896"><ele>35.0</ele><time>2026-05-02T10:24:54.753Z</time></trkpt><trkpt lat="39.0360159" lon="21.1205432"><ele>35.0</ele><time>2026-05-02T10:24:55.753Z</time></trkpt><trkpt lat="39.0361424" lon="21.1205626"><ele>35.0</ele><time>2026-05-02T10:24:56.753Z</time></trkpt><trkpt lat="39.0362633" lon="21.1205371"><ele>35.0</ele><time>2026-05-02T10:24:57.752Z</time></trkpt><trkpt lat="39.0363718" lon="21.1204747"><ele>35.0</ele><time>2026-05-02T10:24:58.752Z</time></trkpt><trkpt lat="39.03649" lon="21.1203696"><ele>35.0</ele><time>2026-05-02T10:24:59.753Z</time></trkpt><trkpt lat="39.0365963" lon="21.1202557"><ele>35.0</ele><time>2026-05-02T10:25:00.752Z</time></trkpt><trkpt lat="39.036719" lon="21.1201175"><ele>35.0</ele><time>2026-05-02T10:25:01.753Z</time></trkpt><trkpt lat="39.036834" lon="21.1199826"><ele>29.75</ele><time>2026-05-02T10:25:02.752Z</time></trkpt><trkpt lat="39.0369361" lon="21.1198496"><ele>24.5</ele><time>2026-05-02T10:25:03.752Z</time></trkpt><trkpt lat="39.037046" lon="21.1197086"><ele>19.25</ele><time>2026-05-02T10:25:04.753Z</time></trkpt><trkpt lat="39.0371415" lon="21.1195883"><ele>14.0</ele><time>2026-05-02T10:25:05.753Z</time></trkpt><trkpt lat="39.0372459" lon="21.1194682"><ele>14.0</ele><time>2026-05-02T10:25:06.752Z</time></trkpt><trkpt lat="39.0373613" lon="21.1193391"><ele>14.0</ele><time>2026-05-02T10:25:07.753Z</time></trkpt><trkpt lat="39.0374664" lon="21.1192324"><ele>14.0</ele><time>2026-05-02T10:25:08.753Z</time></trkpt><trkpt lat="39.0375996" lon="21.1191285"><ele>14.0</ele><time>2026-05-02T10:25:09.753Z</time></trkpt><trkpt lat="39.0377394" lon="21.119046"><ele>13.666666666666668</ele><time>2026-05-02T10:25:10.753Z</time></trkpt><trkpt lat="39.0378777" lon="21.1189874"><ele>13.333333333333332</ele><time>2026-05-02T10:25:11.752Z</time></trkpt><trkpt lat="39.0380475" lon="21.1189401"><ele>13.0</ele><time>2026-05-02T10:25:12.752Z</time></trkpt><trkpt lat="39.0382032" lon="21.1189147"><ele>14.333333333333332</ele><time>2026-05-02T10:25:13.753Z</time></trkpt><trkpt lat="39.0383508" lon="21.118899"><ele>15.666666666666668</ele><time>2026-05-02T10:25:14.752Z</time></trkpt><trkpt lat="39.0385164" lon="21.1188822"><ele>17.0</ele><time>2026-05-02T10:25:15.753Z</time></trkpt><trkpt lat="39.0386583" lon="21.1188746"><ele>17.0</ele><time>2026-05-02T10:25:16.752Z</time></trkpt><trkpt lat="39.0388158" lon="21.118878"><ele>17.0</ele><time>2026-05-02T10:25:17.753Z</time></trkpt><trkpt lat="39.0389523" lon="21.1189052"><ele>17.0</ele><time>2026-05-02T10:25:18.753Z</time></trkpt><trkpt lat="39.0390694" lon="21.1189593"><ele>17.0</ele><time>2026-05-02T10:25:19.752Z</time></trkpt><trkpt lat="39.0391819" lon="21.1190557"><ele>20.75</ele><time>2026-05-02T10:25:20.753Z</time></trkpt><trkpt lat="39.0392688" lon="21.1191609"><ele>24.5</ele><time>2026-05-02T10:25:21.753Z</time></trkpt><trkpt lat="39.0393423" lon="21.1192981"><ele>28.25</ele><time>2026-05-02T10:25:22.752Z</time></trkpt><trkpt lat="39.0394017" lon="21.119467"><ele>32.0</ele><time>2026-05-02T10:25:23.752Z</time></trkpt><trkpt lat="39.0394397" lon="21.1196307"><ele>32.0</ele><time>2026-05-02T10:25:24.753Z</time></trkpt><trkpt lat="39.0394749" lon="21.1198339"><ele>32.0</ele><time>2026-05-02T10:25:25.753Z</time></trkpt><trkpt lat="39.0395013" lon="21.1200355"><ele>32.0</ele><time>2026-05-02T10:25:26.752Z</time></trkpt><trkpt lat="39.0395232" lon="21.1202228"><ele>31.75</ele><time>2026-05-02T10:25:27.753Z</time></trkpt><trkpt lat="39.0395514" lon="21.1204293"><ele>31.5</ele><time>2026-05-02T10:25:28.753Z</time></trkpt><trkpt lat="39.0395842" lon="21.1206146"><ele>31.25</ele><time>2026-05-02T10:25:29.752Z</time></trkpt><trkpt lat="39.0396257" lon="21.1207771"><ele>31.0</ele><time>2026-05-02T10:25:30.752Z</time></trkpt><trkpt lat="39.039687" lon="21.1209467"><ele>31.5</ele><time>2026-05-02T10:25:31.753Z</time></trkpt><trkpt lat="39.0397636" lon="21.1210777"><ele>32.0</ele><time>2026-05-02T10:25:32.752Z</time></trkpt><trkpt lat="39.0398694" lon="21.1212001"><ele>32.5</ele><time>2026-05-02T10:25:33.752Z</time></trkpt><trkpt lat="39.0399817" lon="21.1212824"><ele>33.0</ele><time>2026-05-02T10:25:34.753Z</time></trkpt><trkpt lat="39.0400978" lon="21.1213306"><ele>29.0</ele><time>2026-05-02T10:25:35.753Z</time></trkpt><trkpt lat="39.0402357" lon="21.1213458"><ele>25.0</ele><time>2026-05-02T10:25:36.752Z</time></trkpt><trkpt lat="39.040358" lon="21.1213265"><ele>21.0</ele><time>2026-05-02T10:25:37.753Z</time></trkpt><trkpt lat="39.0404849" lon="21.1212712"><ele>17.0</ele><time>2026-05-02T10:25:38.753Z</time></trkpt><trkpt lat="39.040617" lon="21.1211716"><ele>17.0</ele><time>2026-05-02T10:25:39.752Z</time></trkpt><trkpt lat="39.0407319" lon="21.1210461"><ele>17.0</ele><time>2026-05-02T10:25:40.753Z</time></trkpt><trkpt lat="39.040851" lon="21.1208919"><ele>17.0</ele><time>2026-05-02T10:25:41.752Z</time></trkpt><trkpt lat="39.0409613" lon="21.1207386"><ele>14.666666666666668</ele><time>2026-05-02T10:25:42.752Z</time></trkpt><trkpt lat="39.0410646" lon="21.1205866"><ele>12.333333333333334</ele><time>2026-05-02T10:25:43.752Z</time></trkpt><trkpt lat="39.0411834" lon="21.1204116"><ele>10.0</ele><time>2026-05-02T10:25:44.753Z</time></trkpt><trkpt lat="39.0412963" lon="21.1202382"><ele>10.0</ele><time>2026-05-02T10:25:45.753Z</time></trkpt><trkpt lat="39.0414041" lon="21.1200702"><ele>10.0</ele><time>2026-05-02T10:25:46.753Z</time></trkpt><trkpt lat="39.0415286" lon="21.1198739"><ele>10.0</ele><time>2026-05-02T10:25:47.753Z</time></trkpt><trkpt lat="39.0416384" lon="21.1197017"><ele>9.666666666666668</ele><time>2026-05-02T10:25:48.753Z</time></trkpt><trkpt lat="39.0417617" lon="21.119507"><ele>9.333333333333334</ele><time>2026-05-02T10:25:49.753Z</time></trkpt><trkpt lat="39.041877" lon="21.1193268"><ele>9.0</ele><time>2026-05-02T10:25:50.753Z</time></trkpt><trkpt lat="39.0419814" lon="21.1191591"><ele>8.0</ele><time>2026-05-02T10:25:51.752Z</time></trkpt><trkpt lat="39.0420987" lon="21.1189735"><ele>7.0</ele><time>2026-05-02T10:25:52.753Z</time></trkpt><trkpt lat="39.0422017" lon="21.1188095"><ele>6.0</ele><time>2026-05-02T10:25:53.753Z</time></trkpt><trkpt lat="39.0423146" lon="21.118635"><ele>6.0</ele><time>2026-05-02T10:25:54.753Z</time></trkpt><trkpt lat="39.042443" lon="21.1184431"><ele>6.0</ele><time>2026-05-02T10:25:55.752Z</time></trkpt><trkpt lat="39.0425632" lon="21.1182687"><ele>6.0</ele><time>2026-05-02T10:25:56.753Z</time></trkpt><trkpt lat="39.0427095" lon="21.1180739"><ele>6.333333333333334</ele><time>2026-05-02T10:25:57.753Z</time></trkpt><trkpt lat="39.0428477" lon="21.1178891"><ele>6.666666666666667</ele><time>2026-05-02T10:25:58.753Z</time></trkpt><trkpt lat="39.04298" lon="21.1177185"><ele>7.0</ele><time>2026-05-02T10:25:59.752Z</time></trkpt><trkpt lat="39.0431346" lon="21.117522"><ele>7.0</ele><time>2026-05-02T10:26:00.753Z</time></trkpt><trkpt lat="39.0432813" lon="21.1173418"><ele>7.0</ele><time>2026-05-02T10:26:01.753Z</time></trkpt><trkpt lat="39.0434161" lon="21.1171752"><ele>7.0</ele><time>2026-05-02T10:26:02.752Z</time></trkpt><trkpt lat="39.0435665" lon="21.1169874"><ele>7.0</ele><time>2026-05-02T10:26:03.752Z</time></trkpt><trkpt lat="39.0436978" lon="21.1168243"><ele>7.0</ele><time>2026-05-02T10:26:04.753Z</time></trkpt><trkpt lat="39.0438441" lon="21.1166405"><ele>7.0</ele><time>2026-05-02T10:26:05.752Z</time></trkpt><trkpt lat="39.0439821" lon="21.1164675"><ele>6.666666666666667</ele><time>2026-05-02T10:26:06.752Z</time></trkpt><trkpt lat="39.0441108" lon="21.1163069"><ele>6.333333333333334</ele><time>2026-05-02T10:26:07.752Z</time></trkpt><trkpt lat="39.0442552" lon="21.1161253"><ele>6.0</ele><time>2026-05-02T10:26:08.753Z</time></trkpt><trkpt lat="39.0443698" lon="21.1159748"><ele>7.5</ele><time>2026-05-02T10:26:09.753Z</time></trkpt><trkpt lat="39.0444823" lon="21.1158313"><ele>9.0</ele><time>2026-05-02T10:26:10.752Z</time></trkpt><trkpt lat="39.0445796" lon="21.1156797"><ele>10.5</ele><time>2026-05-02T10:26:11.752Z</time></trkpt><trkpt lat="39.0446405" lon="21.1155433"><ele>12.0</ele><time>2026-05-02T10:26:12.753Z</time></trkpt><trkpt lat="39.0446754" lon="21.1153703"><ele>12.5</ele><time>2026-05-02T10:26:13.753Z</time></trkpt><trkpt lat="39.0446764" lon="21.1152061"><ele>13.0</ele><time>2026-05-02T10:26:14.752Z</time></trkpt><trkpt lat="39.0446515" lon="21.1150557"><ele>13.5</ele><time>2026-05-02T10:26:15.752Z</time></trkpt><trkpt lat="39.0446015" lon="21.1148957"><ele>14.0</ele><time>2026-05-02T10:26:16.753Z</time></trkpt><trkpt lat="39.0445333" lon="21.1147561"><ele>16.25</ele><time>2026-05-02T10:26:17.752Z</time></trkpt><trkpt lat="39.04446" lon="21.1146416"><ele>18.5</ele><time>2026-05-02T10:26:18.752Z</time></trkpt><trkpt lat="39.0443649" lon="21.11452"><ele>20.75</ele><time>2026-05-02T10:26:19.753Z</time></trkpt><trkpt lat="39.0442768" lon="21.1144141"><ele>23.0</ele><time>2026-05-02T10:26:20.753Z</time></trkpt><trkpt lat="39.0441804" lon="21.1142896"><ele>19.5</ele><time>2026-05-02T10:26:21.753Z</time></trkpt><trkpt lat="39.0441018" lon="21.114161"><ele>16.0</ele><time>2026-05-02T10:26:22.753Z</time></trkpt><trkpt lat="39.0440428" lon="21.114034"><ele>12.5</ele><time>2026-05-02T10:26:23.753Z</time></trkpt><trkpt lat="39.0439987" lon="21.1138806"><ele>9.0</ele><time>2026-05-02T10:26:24.753Z</time></trkpt><trkpt lat="39.0439884" lon="21.1137437"><ele>9.2</ele><time>2026-05-02T10:26:25.753Z</time></trkpt><trkpt lat="39.0440047" lon="21.113606"><ele>9.4</ele><time>2026-05-02T10:26:26.753Z</time></trkpt><trkpt lat="39.0440524" lon="21.1134711"><ele>9.6</ele><time>2026-05-02T10:26:27.753Z</time></trkpt><trkpt lat="39.0441163" lon="21.1133714"><ele>9.8</ele><time>2026-05-02T10:26:28.752Z</time></trkpt><trkpt lat="39.0442119" lon="21.1132671"><ele>10.0</ele><time>2026-05-02T10:26:29.753Z</time></trkpt><trkpt lat="39.0443177" lon="21.1131732"><ele>10.0</ele><time>2026-05-02T10:26:30.753Z</time></trkpt><trkpt lat="39.0444252" lon="21.1130873"><ele>10.0</ele><time>2026-05-02T10:26:31.753Z</time></trkpt><trkpt lat="39.0445448" lon="21.1129885"><ele>10.0</ele><time>2026-05-02T10:26:32.753Z</time></trkpt><trkpt lat="39.0446605" lon="21.1129018"><ele>10.0</ele><time>2026-05-02T10:26:33.752Z</time></trkpt><trkpt lat="39.0447753" lon="21.1128215"><ele>10.0</ele><time>2026-05-02T10:26:34.753Z</time></trkpt><trkpt lat="39.0449043" lon="21.1127214"><ele>10.0</ele><time>2026-05-02T10:26:35.753Z</time></trkpt><trkpt lat="39.04502" lon="21.1126352"><ele>10.0</ele><time>2026-05-02T10:26:36.753Z</time></trkpt><trkpt lat="39.045156" lon="21.112536"><ele>10.0</ele><time>2026-05-02T10:26:37.753Z</time></trkpt><trkpt lat="39.0452882" lon="21.1124406"><ele>9.666666666666668</ele><time>2026-05-02T10:26:38.753Z</time></trkpt><trkpt lat="39.0454194" lon="21.1123465"><ele>9.333333333333334</ele><time>2026-05-02T10:26:39.752Z</time></trkpt><trkpt lat="39.045578" lon="21.1122348"><ele>9.0</ele><time>2026-05-02T10:26:40.753Z</time></trkpt><trkpt lat="39.0457135" lon="21.1121297"><ele>14.666666666666666</ele><time>2026-05-02T10:26:41.753Z</time></trkpt><trkpt lat="39.0458558" lon="21.1120181"><ele>20.333333333333332</ele><time>2026-05-02T10:26:42.752Z</time></trkpt><trkpt lat="39.0460039" lon="21.111884"><ele>26.0</ele><time>2026-05-02T10:26:43.753Z</time></trkpt><trkpt lat="39.0461295" lon="21.1117534"><ele>26.0</ele><time>2026-05-02T10:26:44.753Z</time></trkpt><trkpt lat="39.0462612" lon="21.1116029"><ele>26.0</ele><time>2026-05-02T10:26:45.752Z</time></trkpt><trkpt lat="39.046394" lon="21.1114382"><ele>26.0</ele><time>2026-05-02T10:26:46.752Z</time></trkpt><trkpt lat="39.046505" lon="21.1112828"><ele>28.666666666666664</ele><time>2026-05-02T10:26:47.753Z</time></trkpt><trkpt lat="39.0466233" lon="21.1111055"><ele>31.333333333333336</ele><time>2026-05-02T10:26:48.752Z</time></trkpt><trkpt lat="39.0467311" lon="21.1109372"><ele>34.0</ele><time>2026-05-02T10:26:49.753Z</time></trkpt><trkpt lat="39.0468356" lon="21.1107749"><ele>27.666666666666668</ele><time>2026-05-02T10:26:50.752Z</time></trkpt><trkpt lat="39.046962" lon="21.1105928"><ele>21.333333333333336</ele><time>2026-05-02T10:26:51.752Z</time></trkpt><trkpt lat="39.0470806" lon="21.1104353"><ele>15.0</ele><time>2026-05-02T10:26:52.752Z</time></trkpt><trkpt lat="39.0472242" lon="21.1102689"><ele>15.0</ele><time>2026-05-02T10:26:53.752Z</time></trkpt><trkpt lat="39.0473692" lon="21.1101247"><ele>15.0</ele><time>2026-05-02T10:26:54.753Z</time></trkpt><trkpt lat="39.0475125" lon="21.1100023"><ele>15.0</ele><time>2026-05-02T10:26:55.753Z</time></trkpt><trkpt lat="39.0476833" lon="21.1098778"><ele>18.666666666666664</ele><time>2026-05-02T10:26:56.752Z</time></trkpt><trkpt lat="39.0478361" lon="21.1097751"><ele>22.333333333333332</ele><time>2026-05-02T10:26:57.752Z</time></trkpt><trkpt lat="39.0480058" lon="21.109667"><ele>26.0</ele><time>2026-05-02T10:26:58.752Z</time></trkpt><trkpt lat="39.0481893" lon="21.1095514"><ele>33.0</ele><time>2026-05-02T10:26:59.753Z</time></trkpt><trkpt lat="39.0483517" lon="21.1094472"><ele>40.0</ele><time>2026-05-02T10:27:00.752Z</time></trkpt><trkpt lat="39.0485363" lon="21.1093389"><ele>47.0</ele><time>2026-05-02T10:27:01.753Z</time></trkpt><trkpt lat="39.0487095" lon="21.1092356"><ele>47.0</ele><time>2026-05-02T10:27:02.752Z</time></trkpt><trkpt lat="39.0488748" lon="21.1091349"><ele>47.0</ele><time>2026-05-02T10:27:03.752Z</time></trkpt><trkpt lat="39.049068" lon="21.1090243"><ele>47.0</ele><time>2026-05-02T10:27:04.753Z</time></trkpt><trkpt lat="39.0492505" lon="21.1089145"><ele>48.33333333333333</ele><time>2026-05-02T10:27:05.752Z</time></trkpt><trkpt lat="39.0494254" lon="21.1088124"><ele>49.666666666666664</ele><time>2026-05-02T10:27:06.752Z</time></trkpt><trkpt lat="39.0496333" lon="21.1086878"><ele>51.0</ele><time>2026-05-02T10:27:07.752Z</time></trkpt><trkpt lat="39.0498255" lon="21.1085713"><ele>48.0</ele><time>2026-05-02T10:27:08.752Z</time></trkpt><trkpt lat="39.0500648" lon="21.1084157"><ele>45.0</ele><time>2026-05-02T10:27:09.752Z</time></trkpt><trkpt lat="39.050314" lon="21.1082691"><ele>48.0</ele><time>2026-05-02T10:27:10.752Z</time></trkpt><trkpt lat="39.0505495" lon="21.1081343"><ele>51.0</ele><time>2026-05-02T10:27:11.752Z</time></trkpt><trkpt lat="39.0507903" lon="21.1079975"><ele>49.0</ele><time>2026-05-02T10:27:12.753Z</time></trkpt><trkpt lat="39.050988" lon="21.1078908"><ele>47.0</ele><time>2026-05-02T10:27:13.752Z</time></trkpt><trkpt lat="39.0511901" lon="21.1077742"><ele>45.0</ele><time>2026-05-02T10:27:14.753Z</time></trkpt><trkpt lat="39.0513981" lon="21.1076458"><ele>45.0</ele><time>2026-05-02T10:27:15.752Z</time></trkpt><trkpt lat="39.0515831" lon="21.1075376"><ele>45.0</ele><time>2026-05-02T10:27:16.752Z</time></trkpt><trkpt lat="39.0517817" lon="21.1074437"><ele>45.0</ele><time>2026-05-02T10:27:17.753Z</time></trkpt><trkpt lat="39.0519946" lon="21.1073673"><ele>43.333333333333336</ele><time>2026-05-02T10:27:18.752Z</time></trkpt><trkpt lat="39.0521808" lon="21.1073135"><ele>41.66666666666667</ele><time>2026-05-02T10:27:19.752Z</time></trkpt><trkpt lat="39.0524021" lon="21.1072701"><ele>40.0</ele><time>2026-05-02T10:27:20.753Z</time></trkpt><trkpt lat="39.0526147" lon="21.1072415"><ele>38.0</ele><time>2026-05-02T10:27:21.752Z</time></trkpt><trkpt lat="39.0528175" lon="21.1072218"><ele>36.0</ele><time>2026-05-02T10:27:22.753Z</time></trkpt><trkpt lat="39.0530585" lon="21.1071997"><ele>34.0</ele><time>2026-05-02T10:27:23.753Z</time></trkpt><trkpt lat="39.0532729" lon="21.1071807"><ele>30.5</ele><time>2026-05-02T10:27:24.753Z</time></trkpt><trkpt lat="39.0535065" lon="21.1071598"><ele>27.0</ele><time>2026-05-02T10:27:25.753Z</time></trkpt><trkpt lat="39.053756" lon="21.1071361"><ele>27.0</ele><time>2026-05-02T10:27:26.753Z</time></trkpt><trkpt lat="39.0539746" lon="21.1071141"><ele>27.0</ele><time>2026-05-02T10:27:27.753Z</time></trkpt><trkpt lat="39.0542233" lon="21.107089"><ele>26.0</ele><time>2026-05-02T10:27:28.752Z</time></trkpt><trkpt lat="39.054446" lon="21.1070691"><ele>25.0</ele><time>2026-05-02T10:27:29.752Z</time></trkpt><trkpt lat="39.0546822" lon="21.1070504"><ele>25.0</ele><time>2026-05-02T10:27:30.753Z</time></trkpt><trkpt lat="39.0549417" lon="21.1070156"><ele>25.0</ele><time>2026-05-02T10:27:31.752Z</time></trkpt><trkpt lat="39.0551636" lon="21.1069934"><ele>25.0</ele><time>2026-05-02T10:27:32.752Z</time></trkpt><trkpt lat="39.0554143" lon="21.1069694"><ele>25.0</ele><time>2026-05-02T10:27:33.752Z</time></trkpt><trkpt lat="39.055654" lon="21.1069436"><ele>23.5</ele><time>2026-05-02T10:27:34.753Z</time></trkpt><trkpt lat="39.0558798" lon="21.106922"><ele>22.0</ele><time>2026-05-02T10:27:35.752Z</time></trkpt><trkpt lat="39.0561381" lon="21.1068984"><ele>22.0</ele><time>2026-05-02T10:27:36.753Z</time></trkpt><trkpt lat="39.056378" lon="21.1068773"><ele>22.0</ele><time>2026-05-02T10:27:37.752Z</time></trkpt><trkpt lat="39.0566007" lon="21.1068579"><ele>22.0</ele><time>2026-05-02T10:27:38.752Z</time></trkpt><trkpt lat="39.0568541" lon="21.1068278"><ele>22.0</ele><time>2026-05-02T10:27:39.752Z</time></trkpt><trkpt lat="39.0570674" lon="21.1068058"><ele>22.0</ele><time>2026-05-02T10:27:40.753Z</time></trkpt><trkpt lat="39.0573011" lon="21.1067828"><ele>22.0</ele><time>2026-05-02T10:27:41.752Z</time></trkpt><trkpt lat="39.0575103" lon="21.1067659"><ele>22.0</ele><time>2026-05-02T10:27:42.753Z</time></trkpt><trkpt lat="39.0577023" lon="21.1067501"><ele>22.0</ele><time>2026-05-02T10:27:43.752Z</time></trkpt><trkpt lat="39.0579163" lon="21.1067244"><ele>22.0</ele><time>2026-05-02T10:27:44.753Z</time></trkpt><trkpt lat="39.0581052" lon="21.1066914"><ele>22.0</ele><time>2026-05-02T10:27:45.752Z</time></trkpt><trkpt lat="39.058298" lon="21.106638"><ele>20.666666666666664</ele><time>2026-05-02T10:27:46.752Z</time></trkpt><trkpt lat="39.0584823" lon="21.1065504"><ele>19.333333333333332</ele><time>2026-05-02T10:27:47.752Z</time></trkpt><trkpt lat="39.0586281" lon="21.1064431"><ele>18.0</ele><time>2026-05-02T10:27:48.752Z</time></trkpt><trkpt lat="39.0587645" lon="21.1062968"><ele>18.0</ele><time>2026-05-02T10:27:49.752Z</time></trkpt><trkpt lat="39.0588927" lon="21.106106"><ele>18.0</ele><time>2026-05-02T10:27:50.753Z</time></trkpt><trkpt lat="39.0589929" lon="21.1059172"><ele>18.0</ele><time>2026-05-02T10:27:51.753Z</time></trkpt><trkpt lat="39.0591021" lon="21.1056898"><ele>17.666666666666668</ele><time>2026-05-02T10:27:52.753Z</time></trkpt><trkpt lat="39.0592044" lon="21.1054706"><ele>17.333333333333336</ele><time>2026-05-02T10:27:53.752Z</time></trkpt><trkpt lat="39.0592985" lon="21.1052642"><ele>17.0</ele><time>2026-05-02T10:27:54.753Z</time></trkpt><trkpt lat="39.0594039" lon="21.1050356"><ele>16.333333333333336</ele><time>2026-05-02T10:27:55.753Z</time></trkpt><trkpt lat="39.059498" lon="21.104833"><ele>15.666666666666668</ele><time>2026-05-02T10:27:56.752Z</time></trkpt><trkpt lat="39.0595997" lon="21.1046152"><ele>15.0</ele><time>2026-05-02T10:27:57.752Z</time></trkpt><trkpt lat="39.0597086" lon="21.1043775"><ele>15.0</ele><time>2026-05-02T10:27:58.753Z</time></trkpt><trkpt lat="39.0598083" lon="21.1041689"><ele>15.0</ele><time>2026-05-02T10:27:59.752Z</time></trkpt><trkpt lat="39.0599318" lon="21.1039272"><ele>15.0</ele><time>2026-05-02T10:28:00.753Z</time></trkpt><trkpt lat="39.0600488" lon="21.103725"><ele>14.666666666666668</ele><time>2026-05-02T10:28:01.753Z</time></trkpt><trkpt lat="39.0601812" lon="21.1035071"><ele>14.333333333333334</ele><time>2026-05-02T10:28:02.752Z</time></trkpt><trkpt lat="39.0603326" lon="21.1032971"><ele>14.0</ele><time>2026-05-02T10:28:03.753Z</time></trkpt><trkpt lat="39.0604762" lon="21.1031218"><ele>13.5</ele><time>2026-05-02T10:28:04.752Z</time></trkpt><trkpt lat="39.0606459" lon="21.1029363"><ele>13.0</ele><time>2026-05-02T10:28:05.752Z</time></trkpt><trkpt lat="39.0608368" lon="21.102741"><ele>13.0</ele><time>2026-05-02T10:28:06.752Z</time></trkpt><trkpt lat="39.0610097" lon="21.1025713"><ele>13.0</ele><time>2026-05-02T10:28:07.753Z</time></trkpt><trkpt lat="39.0612108" lon="21.102382"><ele>11.5</ele><time>2026-05-02T10:28:08.752Z</time></trkpt><trkpt lat="39.0614013" lon="21.1022048"><ele>10.0</ele><time>2026-05-02T10:28:09.753Z</time></trkpt><trkpt lat="39.0615831" lon="21.1020361"><ele>10.5</ele><time>2026-05-02T10:28:10.753Z</time></trkpt><trkpt lat="39.0617834" lon="21.1018469"><ele>11.0</ele><time>2026-05-02T10:28:11.752Z</time></trkpt><trkpt lat="39.0619573" lon="21.1016876"><ele>9.5</ele><time>2026-05-02T10:28:12.753Z</time></trkpt><trkpt lat="39.06214" lon="21.1015192"><ele>8.0</ele><time>2026-05-02T10:28:13.752Z</time></trkpt><trkpt lat="39.0623293" lon="21.1013412"><ele>8.333333333333332</ele><time>2026-05-02T10:28:14.753Z</time></trkpt><trkpt lat="39.0624945" lon="21.1011889"><ele>8.666666666666666</ele><time>2026-05-02T10:28:15.753Z</time></trkpt><trkpt lat="39.0626812" lon="21.1010187"><ele>9.0</ele><time>2026-05-02T10:28:16.752Z</time></trkpt><trkpt lat="39.0628458" lon="21.1008674"><ele>8.333333333333334</ele><time>2026-05-02T10:28:17.752Z</time></trkpt><trkpt lat="39.0630214" lon="21.1007053"><ele>7.666666666666667</ele><time>2026-05-02T10:28:18.752Z</time></trkpt><trkpt lat="39.0632067" lon="21.1005319"><ele>7.0</ele><time>2026-05-02T10:28:19.752Z</time></trkpt><trkpt lat="39.0633717" lon="21.1003793"><ele>7.0</ele><time>2026-05-02T10:28:20.753Z</time></trkpt><trkpt lat="39.063548" lon="21.1002185"><ele>7.0</ele><time>2026-05-02T10:28:21.753Z</time></trkpt><trkpt lat="39.0637337" lon="21.1000467"><ele>7.0</ele><time>2026-05-02T10:28:22.753Z</time></trkpt><trkpt lat="39.0638934" lon="21.099899"><ele>6.333333333333334</ele><time>2026-05-02T10:28:23.753Z</time></trkpt><trkpt lat="39.0640672" lon="21.099732"><ele>5.666666666666667</ele><time>2026-05-02T10:28:24.753Z</time></trkpt><trkpt lat="39.0642274" lon="21.0995854"><ele>5.0</ele><time>2026-05-02T10:28:25.753Z</time></trkpt><trkpt lat="39.0643793" lon="21.0994576"><ele>5.0</ele><time>2026-05-02T10:28:26.753Z</time></trkpt><trkpt lat="39.0645535" lon="21.0993173"><ele>5.0</ele><time>2026-05-02T10:28:27.752Z</time></trkpt><trkpt lat="39.0647076" lon="21.0991915"><ele>5.0</ele><time>2026-05-02T10:28:28.752Z</time></trkpt><trkpt lat="39.0648749" lon="21.0990567"><ele>5.666666666666667</ele><time>2026-05-02T10:28:29.752Z</time></trkpt><trkpt lat="39.0650582" lon="21.0989149"><ele>6.333333333333334</ele><time>2026-05-02T10:28:30.753Z</time></trkpt><trkpt lat="39.0652231" lon="21.0987945"><ele>7.0</ele><time>2026-05-02T10:28:31.753Z</time></trkpt><trkpt lat="39.0654117" lon="21.0986529"><ele>7.0</ele><time>2026-05-02T10:28:32.753Z</time></trkpt><trkpt lat="39.0655817" lon="21.0985288"><ele>7.0</ele><time>2026-05-02T10:28:33.753Z</time></trkpt><trkpt lat="39.0657663" lon="21.0983998"><ele>7.0</ele><time>2026-05-02T10:28:34.753Z</time></trkpt><trkpt lat="39.0659613" lon="21.0982693"><ele>6.0</ele><time>2026-05-02T10:28:35.753Z</time></trkpt><trkpt lat="39.0661316" lon="21.0981592"><ele>5.0</ele><time>2026-05-02T10:28:36.752Z</time></trkpt><trkpt lat="39.0663141" lon="21.0980394"><ele>4.0</ele><time>2026-05-02T10:28:37.753Z</time></trkpt><trkpt lat="39.0665092" lon="21.097913"><ele>5.0</ele><time>2026-05-02T10:28:38.753Z</time></trkpt><trkpt lat="39.0666828" lon="21.0977985"><ele>6.0</ele><time>2026-05-02T10:28:39.753Z</time></trkpt><trkpt lat="39.0668773" lon="21.0976668"><ele>7.0</ele><time>2026-05-02T10:28:40.753Z</time></trkpt><trkpt lat="39.0670598" lon="21.0975444"><ele>7.0</ele><time>2026-05-02T10:28:41.753Z</time></trkpt><trkpt lat="39.0672333" lon="21.0974302"><ele>7.0</ele><time>2026-05-02T10:28:42.752Z</time></trkpt><trkpt lat="39.0674355" lon="21.0972961"><ele>7.0</ele><time>2026-05-02T10:28:43.752Z</time></trkpt><trkpt lat="39.0676182" lon="21.0971759"><ele>7.0</ele><time>2026-05-02T10:28:44.753Z</time></trkpt><trkpt lat="39.0678186" lon="21.0970433"><ele>7.0</ele><time>2026-05-02T10:28:45.753Z</time></trkpt><trkpt lat="39.0680341" lon="21.0968977"><ele>7.0</ele><time>2026-05-02T10:28:46.752Z</time></trkpt><trkpt lat="39.0682256" lon="21.0967685"><ele>7.0</ele><time>2026-05-02T10:28:47.753Z</time></trkpt><trkpt lat="39.0684454" lon="21.09662"><ele>6.5</ele><time>2026-05-02T10:28:48.752Z</time></trkpt><trkpt lat="39.0686419" lon="21.0964853"><ele>6.0</ele><time>2026-05-02T10:28:49.753Z</time></trkpt><trkpt lat="39.0688526" lon="21.0963449"><ele>6.0</ele><time>2026-05-02T10:28:50.753Z</time></trkpt><trkpt lat="39.0690786" lon="21.096195"><ele>6.0</ele><time>2026-05-02T10:28:51.752Z</time></trkpt><trkpt lat="39.069281" lon="21.0960638"><ele>7.5</ele><time>2026-05-02T10:28:52.752Z</time></trkpt><trkpt lat="39.0694916" lon="21.0959219"><ele>9.0</ele><time>2026-05-02T10:28:53.753Z</time></trkpt><trkpt lat="39.0697154" lon="21.0957638"><ele>8.0</ele><time>2026-05-02T10:28:54.753Z</time></trkpt><trkpt lat="39.0699112" lon="21.0956309"><ele>7.0</ele><time>2026-05-02T10:28:55.752Z</time></trkpt><trkpt lat="39.0701332" lon="21.0954824"><ele>7.0</ele><time>2026-05-02T10:28:56.753Z</time></trkpt><trkpt lat="39.0703428" lon="21.0953428"><ele>7.0</ele><time>2026-05-02T10:28:57.752Z</time></trkpt><trkpt lat="39.070538" lon="21.095213"><ele>7.0</ele><time>2026-05-02T10:28:58.753Z</time></trkpt><trkpt lat="39.0707581" lon="21.0950667"><ele>7.0</ele><time>2026-05-02T10:28:59.753Z</time></trkpt><trkpt lat="39.0709514" lon="21.0949378"><ele>6.0</ele><time>2026-05-02T10:29:00.752Z</time></trkpt><trkpt lat="39.0711569" lon="21.0947992"><ele>5.0</ele><time>2026-05-02T10:29:01.753Z</time></trkpt><trkpt lat="39.0713761" lon="21.0946531"><ele>5.0</ele><time>2026-05-02T10:29:02.753Z</time></trkpt><trkpt lat="39.0715673" lon="21.0945263"><ele>5.0</ele><time>2026-05-02T10:29:03.753Z</time></trkpt><trkpt lat="39.0717836" lon="21.0943849"><ele>4.666666666666667</ele><time>2026-05-02T10:29:04.753Z</time></trkpt><trkpt lat="39.0719719" lon="21.0942577"><ele>4.333333333333333</ele><time>2026-05-02T10:29:05.753Z</time></trkpt><trkpt lat="39.0721725" lon="21.0941216"><ele>4.0</ele><time>2026-05-02T10:29:06.752Z</time></trkpt><trkpt lat="39.0723866" lon="21.0939777"><ele>5.0</ele><time>2026-05-02T10:29:07.752Z</time></trkpt><trkpt lat="39.0725752" lon="21.0938512"><ele>6.0</ele><time>2026-05-02T10:29:08.753Z</time></trkpt><trkpt lat="39.0727775" lon="21.093721"><ele>7.0</ele><time>2026-05-02T10:29:09.753Z</time></trkpt><trkpt lat="39.0729934" lon="21.0935801"><ele>7.0</ele><time>2026-05-02T10:29:10.752Z</time></trkpt><trkpt lat="39.0731802" lon="21.0934602"><ele>7.0</ele><time>2026-05-02T10:29:11.752Z</time></trkpt><trkpt lat="39.0733896" lon="21.0933237"><ele>7.0</ele><time>2026-05-02T10:29:12.753Z</time></trkpt><trkpt lat="39.0735822" lon="21.0931944"><ele>7.0</ele><time>2026-05-02T10:29:13.752Z</time></trkpt><trkpt lat="39.0737596" lon="21.0930735"><ele>7.0</ele><time>2026-05-02T10:29:14.752Z</time></trkpt><trkpt lat="39.0739587" lon="21.0929381"><ele>7.0</ele><time>2026-05-02T10:29:15.753Z</time></trkpt><trkpt lat="39.074132" lon="21.0928199"><ele>7.666666666666667</ele><time>2026-05-02T10:29:16.752Z</time></trkpt><trkpt lat="39.074317" lon="21.0926979"><ele>8.333333333333334</ele><time>2026-05-02T10:29:17.752Z</time></trkpt><trkpt lat="39.0745112" lon="21.0925689"><ele>9.0</ele><time>2026-05-02T10:29:18.752Z</time></trkpt><trkpt lat="39.0746816" lon="21.0924506"><ele>9.333333333333334</ele><time>2026-05-02T10:29:19.753Z</time></trkpt><trkpt lat="39.0748751" lon="21.0923175"><ele>9.666666666666668</ele><time>2026-05-02T10:29:20.753Z</time></trkpt><trkpt lat="39.0750438" lon="21.0922029"><ele>10.0</ele><time>2026-05-02T10:29:21.753Z</time></trkpt><trkpt lat="39.0752249" lon="21.0920761"><ele>10.0</ele><time>2026-05-02T10:29:22.753Z</time></trkpt><trkpt lat="39.0754179" lon="21.0919411"><ele>10.0</ele><time>2026-05-02T10:29:23.752Z</time></trkpt><trkpt lat="39.0755866" lon="21.0918194"><ele>10.0</ele><time>2026-05-02T10:29:24.752Z</time></trkpt><trkpt lat="39.0757653" lon="21.0916857"><ele>9.666666666666668</ele><time>2026-05-02T10:29:25.752Z</time></trkpt><trkpt lat="39.0759541" lon="21.0915362"><ele>9.333333333333334</ele><time>2026-05-02T10:29:26.752Z</time></trkpt><trkpt lat="39.0761203" lon="21.0913961"><ele>9.0</ele><time>2026-05-02T10:29:27.753Z</time></trkpt><trkpt lat="39.0763047" lon="21.091231"><ele>9.0</ele><time>2026-05-02T10:29:28.752Z</time></trkpt><trkpt lat="39.0764745" lon="21.0910775"><ele>9.0</ele><time>2026-05-02T10:29:29.752Z</time></trkpt><trkpt lat="39.0766337" lon="21.0909354"><ele>9.0</ele><time>2026-05-02T10:29:30.753Z</time></trkpt><trkpt lat="39.0768128" lon="21.090774"><ele>10.0</ele><time>2026-05-02T10:29:31.752Z</time></trkpt><trkpt lat="39.0769648" lon="21.0906273"><ele>11.0</ele><time>2026-05-02T10:29:32.752Z</time></trkpt><trkpt lat="39.0771283" lon="21.0904677"><ele>12.0</ele><time>2026-05-02T10:29:33.753Z</time></trkpt><trkpt lat="39.0772987" lon="21.0902973"><ele>12.333333333333332</ele><time>2026-05-02T10:29:34.752Z</time></trkpt><trkpt lat="39.0774454" lon="21.0901484"><ele>12.666666666666666</ele><time>2026-05-02T10:29:35.753Z</time></trkpt><trkpt lat="39.0776132" lon="21.0899791"><ele>13.0</ele><time>2026-05-02T10:29:36.753Z</time></trkpt><trkpt lat="39.0777589" lon="21.0898299"><ele>13.0</ele><time>2026-05-02T10:29:37.752Z</time></trkpt><trkpt lat="39.0779147" lon="21.0896687"><ele>13.0</ele><time>2026-05-02T10:29:38.752Z</time></trkpt><trkpt lat="39.0780813" lon="21.0894923"><ele>13.0</ele><time>2026-05-02T10:29:39.753Z</time></trkpt><trkpt lat="39.0782311" lon="21.0893371"><ele>12.666666666666666</ele><time>2026-05-02T10:29:40.752Z</time></trkpt><trkpt lat="39.0783926" lon="21.0891673"><ele>12.333333333333332</ele><time>2026-05-02T10:29:41.752Z</time></trkpt><trkpt lat="39.0785633" lon="21.0889928"><ele>12.0</ele><time>2026-05-02T10:29:42.752Z</time></trkpt><trkpt lat="39.0787114" lon="21.0888459"><ele>12.0</ele><time>2026-05-02T10:29:43.752Z</time></trkpt><trkpt lat="39.0788824" lon="21.0886829"><ele>12.0</ele><time>2026-05-02T10:29:44.753Z</time></trkpt><trkpt lat="39.0790429" lon="21.0885428"><ele>12.0</ele><time>2026-05-02T10:29:45.753Z</time></trkpt><trkpt lat="39.079203" lon="21.0884316"><ele>12.666666666666668</ele><time>2026-05-02T10:29:46.752Z</time></trkpt><trkpt lat="39.0793959" lon="21.0883246"><ele>13.333333333333334</ele><time>2026-05-02T10:29:47.753Z</time></trkpt><trkpt lat="39.0795781" lon="21.0882556"><ele>14.0</ele><time>2026-05-02T10:29:48.752Z</time></trkpt><trkpt lat="39.0797886" lon="21.0882015"><ele>14.0</ele><time>2026-05-02T10:29:49.753Z</time></trkpt><trkpt lat="39.080015" lon="21.0881639"><ele>14.0</ele><time>2026-05-02T10:29:50.753Z</time></trkpt><trkpt lat="39.0802111" lon="21.0881369"><ele>14.0</ele><time>2026-05-02T10:29:51.752Z</time></trkpt><trkpt lat="39.0804208" lon="21.08811"><ele>14.0</ele><time>2026-05-02T10:29:52.752Z</time></trkpt><trkpt lat="39.0805975" lon="21.088067"><ele>14.0</ele><time>2026-05-02T10:29:53.753Z</time></trkpt><trkpt lat="39.0807858" lon="21.0879945"><ele>14.0</ele><time>2026-05-02T10:29:54.752Z</time></trkpt><trkpt lat="39.0809882" lon="21.0878843"><ele>14.0</ele><time>2026-05-02T10:29:55.753Z</time></trkpt><trkpt lat="39.0811695" lon="21.0877607"><ele>14.0</ele><time>2026-05-02T10:29:56.752Z</time></trkpt><trkpt lat="39.0813589" lon="21.0876168"><ele>14.0</ele><time>2026-05-02T10:29:57.753Z</time></trkpt><trkpt lat="39.0815547" lon="21.0874584"><ele>14.0</ele><time>2026-05-02T10:29:58.753Z</time></trkpt><trkpt lat="39.0817295" lon="21.0873126"><ele>14.0</ele><time>2026-05-02T10:29:59.752Z</time></trkpt><trkpt lat="39.0819296" lon="21.0871437"><ele>14.0</ele><time>2026-05-02T10:30:00.752Z</time></trkpt><trkpt lat="39.0821205" lon="21.086986"><ele>14.0</ele><time>2026-05-02T10:30:01.752Z</time></trkpt><trkpt lat="39.0822991" lon="21.0868376"><ele>14.0</ele><time>2026-05-02T10:30:02.753Z</time></trkpt><trkpt lat="39.0825033" lon="21.086671"><ele>13.666666666666668</ele><time>2026-05-02T10:30:03.752Z</time></trkpt><trkpt lat="39.0826808" lon="21.0865256"><ele>13.333333333333332</ele><time>2026-05-02T10:30:04.752Z</time></trkpt><trkpt lat="39.0828705" lon="21.0863675"><ele>13.0</ele><time>2026-05-02T10:30:05.752Z</time></trkpt><trkpt lat="39.0830731" lon="21.0861993"><ele>13.0</ele><time>2026-05-02T10:30:06.752Z</time></trkpt><trkpt lat="39.0832488" lon="21.0860522"><ele>13.0</ele><time>2026-05-02T10:30:07.753Z</time></trkpt><trkpt lat="39.08345" lon="21.0858871"><ele>13.0</ele><time>2026-05-02T10:30:08.752Z</time></trkpt><trkpt lat="39.0836252" lon="21.0857442"><ele>13.0</ele><time>2026-05-02T10:30:09.752Z</time></trkpt><trkpt lat="39.0838133" lon="21.0855879"><ele>13.0</ele><time>2026-05-02T10:30:10.752Z</time></trkpt><trkpt lat="39.0840131" lon="21.0854246"><ele>13.0</ele><time>2026-05-02T10:30:11.752Z</time></trkpt><trkpt lat="39.0841893" lon="21.0852767"><ele>13.0</ele><time>2026-05-02T10:30:12.753Z</time></trkpt><trkpt lat="39.0843772" lon="21.0851168"><ele>13.0</ele><time>2026-05-02T10:30:13.752Z</time></trkpt><trkpt lat="39.08458" lon="21.0849494"><ele>13.0</ele><time>2026-05-02T10:30:14.752Z</time></trkpt><trkpt lat="39.0847605" lon="21.0848043"><ele>13.0</ele><time>2026-05-02T10:30:15.752Z</time></trkpt><trkpt lat="39.0849718" lon="21.0846281"><ele>13.0</ele><time>2026-05-02T10:30:16.753Z</time></trkpt><trkpt lat="39.0851657" lon="21.084451"><ele>13.0</ele><time>2026-05-02T10:30:17.753Z</time></trkpt><trkpt lat="39.0853368" lon="21.0842745"><ele>13.5</ele><time>2026-05-02T10:30:18.753Z</time></trkpt><trkpt lat="39.0855223" lon="21.0840579"><ele>14.0</ele><time>2026-05-02T10:30:19.753Z</time></trkpt><trkpt lat="39.0856792" lon="21.0838563"><ele>13.5</ele><time>2026-05-02T10:30:20.752Z</time></trkpt><trkpt lat="39.0858409" lon="21.0836315"><ele>13.0</ele><time>2026-05-02T10:30:21.753Z</time></trkpt><trkpt lat="39.0860057" lon="21.0833843"><ele>13.333333333333332</ele><time>2026-05-02T10:30:22.753Z</time></trkpt><trkpt lat="39.0861451" lon="21.08318"><ele>13.666666666666668</ele><time>2026-05-02T10:30:23.753Z</time></trkpt><trkpt lat="39.0862949" lon="21.0829577"><ele>14.0</ele><time>2026-05-02T10:30:24.752Z</time></trkpt><trkpt lat="39.0864224" lon="21.0827756"><ele>14.0</ele><time>2026-05-02T10:30:25.752Z</time></trkpt><trkpt lat="39.086547" lon="21.0825878"><ele>14.0</ele><time>2026-05-02T10:30:26.752Z</time></trkpt><trkpt lat="39.0866824" lon="21.0824005"><ele>14.0</ele><time>2026-05-02T10:30:27.753Z</time></trkpt><trkpt lat="39.0867889" lon="21.0822422"><ele>14.25</ele><time>2026-05-02T10:30:28.753Z</time></trkpt><trkpt lat="39.0868907" lon="21.0820876"><ele>14.5</ele><time>2026-05-02T10:30:29.752Z</time></trkpt><trkpt lat="39.0869852" lon="21.0819529"><ele>14.75</ele><time>2026-05-02T10:30:30.752Z</time></trkpt><trkpt lat="39.0870581" lon="21.081865"><ele>15.0</ele><time>2026-05-02T10:30:31.753Z</time></trkpt><trkpt lat="39.0871402" lon="21.0817888"><ele>15.0</ele><time>2026-05-02T10:30:32.752Z</time></trkpt><trkpt lat="39.0872181" lon="21.0817473"><ele>15.0</ele><time>2026-05-02T10:30:33.752Z</time></trkpt><trkpt lat="39.0872885" lon="21.0817103"><ele>15.0</ele><time>2026-05-02T10:30:34.752Z</time></trkpt><trkpt lat="39.0873614" lon="21.0816371"><ele>15.0</ele><time>2026-05-02T10:30:35.753Z</time></trkpt><trkpt lat="39.0874229" lon="21.0815426"><ele>15.0</ele><time>2026-05-02T10:30:36.752Z</time></trkpt><trkpt lat="39.0875077" lon="21.081452"><ele>14.75</ele><time>2026-05-02T10:30:37.752Z</time></trkpt><trkpt lat="39.0876119" lon="21.0813506"><ele>14.5</ele><time>2026-05-02T10:30:38.752Z</time></trkpt><trkpt lat="39.0877267" lon="21.0812839"><ele>14.25</ele><time>2026-05-02T10:30:39.753Z</time></trkpt><trkpt lat="39.0878671" lon="21.0812123"><ele>14.0</ele><time>2026-05-02T10:30:40.753Z</time></trkpt><trkpt lat="39.0879684" lon="21.0811646"><ele>14.0</ele><time>2026-05-02T10:30:41.753Z</time></trkpt><trkpt lat="39.0880574" lon="21.0811268"><ele>13.999999999999998</ele><time>2026-05-02T10:30:42.753Z</time></trkpt><trkpt lat="39.0881407" lon="21.0811205"><ele>13.999999999999998</ele><time>2026-05-02T10:30:43.752Z</time></trkpt><trkpt lat="39.0882717" lon="21.0811219"><ele>14.0</ele><time>2026-05-02T10:30:45.752Z</time></trkpt><trkpt lat="39.0883391" lon="21.0810846"><ele>14.0</ele><time>2026-05-02T10:30:46.752Z</time></trkpt><trkpt lat="39.0884003" lon="21.0809274"><ele>14.2</ele><time>2026-05-02T10:30:48.753Z</time></trkpt><trkpt lat="39.0883899" lon="21.0808118"><ele>14.399999999999999</ele><time>2026-05-02T10:30:49.753Z</time></trkpt><trkpt lat="39.0883695" lon="21.0806989"><ele>14.6</ele><time>2026-05-02T10:30:50.752Z</time></trkpt><trkpt lat="39.0883676" lon="21.0805301"><ele>14.8</ele><time>2026-05-02T10:30:51.753Z</time></trkpt><trkpt lat="39.0883964" lon="21.0803659"><ele>15.0</ele><time>2026-05-02T10:30:52.752Z</time></trkpt><trkpt lat="39.0884497" lon="21.0801495"><ele>14.333333333333332</ele><time>2026-05-02T10:30:53.753Z</time></trkpt><trkpt lat="39.0885196" lon="21.0799154"><ele>13.666666666666666</ele><time>2026-05-02T10:30:54.753Z</time></trkpt><trkpt lat="39.0885984" lon="21.079714"><ele>13.0</ele><time>2026-05-02T10:30:55.753Z</time></trkpt><trkpt lat="39.0886931" lon="21.0795049"><ele>13.0</ele><time>2026-05-02T10:30:56.753Z</time></trkpt><trkpt lat="39.0887953" lon="21.0793076"><ele>13.0</ele><time>2026-05-02T10:30:57.752Z</time></trkpt><trkpt lat="39.0889039" lon="21.0791307"><ele>13.0</ele><time>2026-05-02T10:30:58.752Z</time></trkpt><trkpt lat="39.0890144" lon="21.0789627"><ele>14.666666666666666</ele><time>2026-05-02T10:30:59.752Z</time></trkpt><trkpt lat="39.0891083" lon="21.0788196"><ele>16.333333333333332</ele><time>2026-05-02T10:31:00.753Z</time></trkpt><trkpt lat="39.0892072" lon="21.0786708"><ele>18.0</ele><time>2026-05-02T10:31:01.752Z</time></trkpt><trkpt lat="39.0893105" lon="21.0785179"><ele>18.0</ele><time>2026-05-02T10:31:02.753Z</time></trkpt><trkpt lat="39.0894013" lon="21.078384"><ele>18.0</ele><time>2026-05-02T10:31:03.752Z</time></trkpt><trkpt lat="39.0895014" lon="21.0782293"><ele>18.0</ele><time>2026-05-02T10:31:04.752Z</time></trkpt><trkpt lat="39.0896151" lon="21.0780394"><ele>18.0</ele><time>2026-05-02T10:31:05.752Z</time></trkpt><trkpt lat="39.089742" lon="21.0778532"><ele>18.0</ele><time>2026-05-02T10:31:06.753Z</time></trkpt><trkpt lat="39.0899019" lon="21.0776238"><ele>18.0</ele><time>2026-05-02T10:31:07.752Z</time></trkpt><trkpt lat="39.0900637" lon="21.0773932"><ele>18.0</ele><time>2026-05-02T10:31:08.752Z</time></trkpt><trkpt lat="39.0902447" lon="21.0771451"><ele>18.0</ele><time>2026-05-02T10:31:09.753Z</time></trkpt><trkpt lat="39.0904382" lon="21.0768821"><ele>18.0</ele><time>2026-05-02T10:31:10.752Z</time></trkpt><trkpt lat="39.090607" lon="21.0766608"><ele>18.0</ele><time>2026-05-02T10:31:11.752Z</time></trkpt><trkpt lat="39.0907897" lon="21.0764346"><ele>18.0</ele><time>2026-05-02T10:31:12.753Z</time></trkpt><trkpt lat="39.0909708" lon="21.076218"><ele>18.0</ele><time>2026-05-02T10:31:13.753Z</time></trkpt><trkpt lat="39.0911565" lon="21.0760063"><ele>18.0</ele><time>2026-05-02T10:31:14.752Z</time></trkpt><trkpt lat="39.091353" lon="21.0757837"><ele>18.0</ele><time>2026-05-02T10:31:15.752Z</time></trkpt><trkpt lat="39.0915316" lon="21.0756005"><ele>18.5</ele><time>2026-05-02T10:31:16.752Z</time></trkpt><trkpt lat="39.0917256" lon="21.0754202"><ele>19.0</ele><time>2026-05-02T10:31:17.752Z</time></trkpt><trkpt lat="39.0919338" lon="21.0752389"><ele>19.0</ele><time>2026-05-02T10:31:18.753Z</time></trkpt><trkpt lat="39.0921169" lon="21.0750872"><ele>19.0</ele><time>2026-05-02T10:31:19.752Z</time></trkpt><trkpt lat="39.0923249" lon="21.0749267"><ele>19.333333333333332</ele><time>2026-05-02T10:31:20.753Z</time></trkpt><trkpt lat="39.092518" lon="21.0747881"><ele>19.666666666666668</ele><time>2026-05-02T10:31:21.752Z</time></trkpt><trkpt lat="39.0927027" lon="21.0746644"><ele>20.0</ele><time>2026-05-02T10:31:22.753Z</time></trkpt><trkpt lat="39.0929148" lon="21.0745327"><ele>20.0</ele><time>2026-05-02T10:31:23.752Z</time></trkpt><trkpt lat="39.0931032" lon="21.0744237"><ele>20.0</ele><time>2026-05-02T10:31:24.753Z</time></trkpt><trkpt lat="39.0933082" lon="21.0743134"><ele>20.0</ele><time>2026-05-02T10:31:25.752Z</time></trkpt><trkpt lat="39.0935319" lon="21.0741977"><ele>20.0</ele><time>2026-05-02T10:31:26.753Z</time></trkpt><trkpt lat="39.0937303" lon="21.0741031"><ele>20.0</ele><time>2026-05-02T10:31:27.752Z</time></trkpt><trkpt lat="39.0939422" lon="21.0740093"><ele>20.0</ele><time>2026-05-02T10:31:28.753Z</time></trkpt><trkpt lat="39.0941506" lon="21.0739153"><ele>20.666666666666668</ele><time>2026-05-02T10:31:29.753Z</time></trkpt><trkpt lat="39.0943562" lon="21.0738209"><ele>21.333333333333332</ele><time>2026-05-02T10:31:30.753Z</time></trkpt><trkpt lat="39.094561" lon="21.0737332"><ele>22.0</ele><time>2026-05-02T10:31:31.753Z</time></trkpt><trkpt lat="39.0947684" lon="21.0736429"><ele>23.0</ele><time>2026-05-02T10:31:32.752Z</time></trkpt><trkpt lat="39.0949775" lon="21.0735526"><ele>24.0</ele><time>2026-05-02T10:31:33.752Z</time></trkpt><trkpt lat="39.0952" lon="21.0734579"><ele>24.0</ele><time>2026-05-02T10:31:34.753Z</time></trkpt><trkpt lat="39.0953958" lon="21.0733694"><ele>24.0</ele><time>2026-05-02T10:31:35.753Z</time></trkpt><trkpt lat="39.0956067" lon="21.073277"><ele>24.0</ele><time>2026-05-02T10:31:36.753Z</time></trkpt><trkpt lat="39.0958364" lon="21.0731801"><ele>24.5</ele><time>2026-05-02T10:31:37.752Z</time></trkpt><trkpt lat="39.0960401" lon="21.0730934"><ele>25.0</ele><time>2026-05-02T10:31:38.752Z</time></trkpt><trkpt lat="39.0962738" lon="21.0729928"><ele>25.0</ele><time>2026-05-02T10:31:39.753Z</time></trkpt><trkpt lat="39.096479" lon="21.0729056"><ele>25.0</ele><time>2026-05-02T10:31:40.752Z</time></trkpt><trkpt lat="39.0966983" lon="21.0728133"><ele>25.0</ele><time>2026-05-02T10:31:41.753Z</time></trkpt><trkpt lat="39.0969177" lon="21.0727125"><ele>25.0</ele><time>2026-05-02T10:31:42.753Z</time></trkpt><trkpt lat="39.0971092" lon="21.0726142"><ele>25.0</ele><time>2026-05-02T10:31:43.753Z</time></trkpt><trkpt lat="39.097306" lon="21.072497"><ele>25.0</ele><time>2026-05-02T10:31:44.753Z</time></trkpt><trkpt lat="39.0974931" lon="21.0723657"><ele>26.0</ele><time>2026-05-02T10:31:45.753Z</time></trkpt><trkpt lat="39.0976765" lon="21.0722139"><ele>27.0</ele><time>2026-05-02T10:31:46.753Z</time></trkpt><trkpt lat="39.0978645" lon="21.0720312"><ele>27.0</ele><time>2026-05-02T10:31:47.753Z</time></trkpt><trkpt lat="39.0980247" lon="21.0718584"><ele>27.0</ele><time>2026-05-02T10:31:48.753Z</time></trkpt><trkpt lat="39.0981919" lon="21.0716593"><ele>27.0</ele><time>2026-05-02T10:31:49.752Z</time></trkpt><trkpt lat="39.0983641" lon="21.0714343"><ele>27.0</ele><time>2026-05-02T10:31:50.753Z</time></trkpt><trkpt lat="39.0985101" lon="21.0712455"><ele>27.0</ele><time>2026-05-02T10:31:51.753Z</time></trkpt><trkpt lat="39.0986616" lon="21.0710426"><ele>27.0</ele><time>2026-05-02T10:31:52.753Z</time></trkpt><trkpt lat="39.0988243" lon="21.0708256"><ele>27.0</ele><time>2026-05-02T10:31:53.753Z</time></trkpt><trkpt lat="39.0989639" lon="21.0706367"><ele>27.0</ele><time>2026-05-02T10:31:54.753Z</time></trkpt><trkpt lat="39.0991155" lon="21.0704385"><ele>27.0</ele><time>2026-05-02T10:31:55.752Z</time></trkpt><trkpt lat="39.0992599" lon="21.0702403"><ele>27.0</ele><time>2026-05-02T10:31:56.753Z</time></trkpt><trkpt lat="39.0994058" lon="21.0700488"><ele>27.0</ele><time>2026-05-02T10:31:57.753Z</time></trkpt><trkpt lat="39.0995618" lon="21.0698366"><ele>27.0</ele><time>2026-05-02T10:31:58.752Z</time></trkpt><trkpt lat="39.0996924" lon="21.0696587"><ele>27.333333333333336</ele><time>2026-05-02T10:31:59.752Z</time></trkpt><trkpt lat="39.0998335" lon="21.0694652"><ele>27.666666666666668</ele><time>2026-05-02T10:32:00.752Z</time></trkpt><trkpt lat="39.099982" lon="21.0692678"><ele>28.0</ele><time>2026-05-02T10:32:01.752Z</time></trkpt><trkpt lat="39.1001147" lon="21.069091"><ele>28.333333333333336</ele><time>2026-05-02T10:32:02.753Z</time></trkpt><trkpt lat="39.1002377" lon="21.0689235"><ele>28.666666666666664</ele><time>2026-05-02T10:32:03.752Z</time></trkpt><trkpt lat="39.1003533" lon="21.068767"><ele>29.0</ele><time>2026-05-02T10:32:04.752Z</time></trkpt><trkpt lat="39.1004602" lon="21.0686231"><ele>29.0</ele><time>2026-05-02T10:32:05.753Z</time></trkpt><trkpt lat="39.1005613" lon="21.0684853"><ele>29.0</ele><time>2026-05-02T10:32:06.753Z</time></trkpt><trkpt lat="39.1006482" lon="21.0683666"><ele>29.0</ele><time>2026-05-02T10:32:07.753Z</time></trkpt><trkpt lat="39.1007435" lon="21.0682408"><ele>29.0</ele><time>2026-05-02T10:32:08.753Z</time></trkpt><trkpt lat="39.1008423" lon="21.0681153"><ele>29.4</ele><time>2026-05-02T10:32:09.752Z</time></trkpt><trkpt lat="39.100925" lon="21.0680142"><ele>29.799999999999997</ele><time>2026-05-02T10:32:10.753Z</time></trkpt><trkpt lat="39.101006" lon="21.067911"><ele>30.200000000000003</ele><time>2026-05-02T10:32:11.753Z</time></trkpt><trkpt lat="39.1010734" lon="21.0678212"><ele>30.6</ele><time>2026-05-02T10:32:12.753Z</time></trkpt><trkpt lat="39.1011342" lon="21.0677519"><ele>31.0</ele><time>2026-05-02T10:32:13.753Z</time></trkpt><trkpt lat="39.1011861" lon="21.0676907"><ele>31.0</ele><time>2026-05-02T10:32:14.752Z</time></trkpt><trkpt lat="39.1012527" lon="21.0676276"><ele>31.000000000000004</ele><time>2026-05-02T10:32:16.753Z</time></trkpt><trkpt lat="39.1013152" lon="21.0676431"><ele>31.0</ele><time>2026-05-02T10:32:24.752Z</time></trkpt><trkpt lat="39.1013206" lon="21.0677278"><ele>31.0</ele><time>2026-05-02T10:36:02.783Z</time></trkpt><trkpt lat="39.1013162" lon="21.0678216"><ele>31.000000000000004</ele><time>2026-05-02T10:36:08.769Z</time></trkpt><trkpt lat="39.1012609" lon="21.0678651"><ele>31.0</ele><time>2026-05-02T10:36:21.772Z</time></trkpt><trkpt lat="39.1011955" lon="21.0679011"><ele>31.0</ele><time>2026-05-02T10:36:28.768Z</time></trkpt><trkpt lat="39.1012167" lon="21.0679825"><ele>31.0</ele><time>2026-05-02T10:36:35.773Z</time></trkpt><trkpt lat="39.1011672" lon="21.0680328"><ele>31.000000000000004</ele><time>2026-05-02T10:36:44.771Z</time></trkpt><trkpt lat="39.101117" lon="21.0679682"><ele>31.0</ele><time>2026-05-02T11:48:42.758Z</time></trkpt><trkpt lat="39.1011723" lon="21.0680127"><ele>31.0</ele><time>2026-05-02T12:42:46.752Z</time></trkpt><trkpt lat="39.1012278" lon="21.0679703"><ele>31.000000000000004</ele><time>2026-05-02T12:43:02.752Z</time></trkpt><trkpt lat="39.1013386" lon="21.06796"><ele>31.0</ele><time>2026-05-02T12:44:43.751Z</time></trkpt><trkpt lat="39.1013168" lon="21.0678681"><ele>31.0</ele><time>2026-05-02T12:44:52.697Z</time></trkpt><trkpt lat="39.101256" lon="21.0678968"><ele>31.0</ele><time>2026-05-02T12:45:05.752Z</time></trkpt><trkpt lat="39.1011914" lon="21.0679104"><ele>31.000000000000004</ele><time>2026-05-02T12:45:10.753Z</time></trkpt><trkpt lat="39.1011641" lon="21.0679952"><ele>31.0</ele><time>2026-05-02T12:45:19.751Z</time></trkpt><trkpt lat="39.1010965" lon="21.0679846"><ele>31.0</ele><time>2026-05-02T12:45:32.752Z</time></trkpt><trkpt lat="39.1011479" lon="21.0680412"><ele>31.000000000000004</ele><time>2026-05-02T12:47:22.752Z</time></trkpt><trkpt lat="39.1011929" lon="21.0679709"><ele>31.0</ele><time>2026-05-02T12:48:26.753Z</time></trkpt><trkpt lat="39.1012589" lon="21.0679674"><ele>31.0</ele><time>2026-05-02T12:48:35.753Z</time></trkpt><trkpt lat="39.1013221" lon="21.0680202"><ele>31.0</ele><time>2026-05-02T12:48:41.752Z</time></trkpt><trkpt lat="39.1012605" lon="21.0679528"><ele>31.000000000000004</ele><time>2026-05-02T12:49:03.663Z</time></trkpt><trkpt lat="39.1012075" lon="21.0680025"><ele>31.0</ele><time>2026-05-02T12:49:09.678Z</time></trkpt><trkpt lat="39.101241" lon="21.0679272"><ele>31.0</ele><time>2026-05-02T12:53:37.751Z</time></trkpt><trkpt lat="39.101298" lon="21.0678852"><ele>31.000000000000004</ele><time>2026-05-02T12:53:49.664Z</time></trkpt><trkpt lat="39.1012813" lon="21.0677965"><ele>31.0</ele><time>2026-05-02T12:53:54.75Z</time></trkpt><trkpt lat="39.1012571" lon="21.067707"><ele>31.0</ele><time>2026-05-02T12:54:00.752Z</time></trkpt><trkpt lat="39.1013212" lon="21.0677383"><ele>31.0</ele><time>2026-05-02T12:56:39.752Z</time></trkpt><trkpt lat="39.1013483" lon="21.0678378"><ele>31.000000000000004</ele><time>2026-05-02T12:56:42.75Z</time></trkpt><trkpt lat="39.1013213" lon="21.0677635"><ele>31.0</ele><time>2026-05-02T12:56:47.751Z</time></trkpt><trkpt lat="39.1013208" lon="21.0676792"><ele>31.0</ele><time>2026-05-02T12:56:50.751Z</time></trkpt><trkpt lat="39.1013043" lon="21.067591"><ele>31.000000000000004</ele><time>2026-05-02T12:57:40.75Z</time></trkpt><trkpt lat="39.1013439" lon="21.0674778"><ele>31.0</ele><time>2026-05-02T12:57:42.751Z</time></trkpt><trkpt lat="39.1013865" lon="21.0674109"><ele>31.0</ele><time>2026-05-02T12:57:43.751Z</time></trkpt><trkpt lat="39.1014347" lon="21.067344"><ele>30.833333333333336</ele><time>2026-05-02T12:57:44.751Z</time></trkpt><trkpt lat="39.1015085" lon="21.0672641"><ele>30.666666666666668</ele><time>2026-05-02T12:57:45.752Z</time></trkpt><trkpt lat="39.1015603" lon="21.0671965"><ele>30.5</ele><time>2026-05-02T12:57:46.751Z</time></trkpt><trkpt lat="39.1016166" lon="21.0671197"><ele>30.333333333333336</ele><time>2026-05-02T12:57:47.751Z</time></trkpt><trkpt lat="39.1016707" lon="21.0670486"><ele>30.166666666666668</ele><time>2026-05-02T12:57:48.751Z</time></trkpt><trkpt lat="39.1017262" lon="21.0669738"><ele>30.0</ele><time>2026-05-02T12:57:49.751Z</time></trkpt><trkpt lat="39.1017853" lon="21.0668979"><ele>30.0</ele><time>2026-05-02T12:57:50.751Z</time></trkpt><trkpt lat="39.1018448" lon="21.0668175"><ele>30.0</ele><time>2026-05-02T12:57:51.752Z</time></trkpt><trkpt lat="39.1019049" lon="21.0667347"><ele>30.0</ele><time>2026-05-02T12:57:52.75Z</time></trkpt><trkpt lat="39.1019665" lon="21.0666512"><ele>30.0</ele><time>2026-05-02T12:57:53.751Z</time></trkpt><trkpt lat="39.1020328" lon="21.0665628"><ele>30.0</ele><time>2026-05-02T12:57:54.75Z</time></trkpt><trkpt lat="39.1020989" lon="21.0664758"><ele>30.2</ele><time>2026-05-02T12:57:55.749Z</time></trkpt><trkpt lat="39.1021662" lon="21.0663893"><ele>30.4</ele><time>2026-05-02T12:57:56.751Z</time></trkpt><trkpt lat="39.1022366" lon="21.0663024"><ele>30.6</ele><time>2026-05-02T12:57:57.75Z</time></trkpt><trkpt lat="39.1023087" lon="21.0662078"><ele>30.8</ele><time>2026-05-02T12:57:58.749Z</time></trkpt><trkpt lat="39.1023857" lon="21.0661032"><ele>31.0</ele><time>2026-05-02T12:57:59.75Z</time></trkpt><trkpt lat="39.1024671" lon="21.0659936"><ele>31.0</ele><time>2026-05-02T12:58:00.751Z</time></trkpt><trkpt lat="39.1025581" lon="21.0658751"><ele>31.0</ele><time>2026-05-02T12:58:01.749Z</time></trkpt><trkpt lat="39.1026466" lon="21.0657533"><ele>31.0</ele><time>2026-05-02T12:58:02.749Z</time></trkpt><trkpt lat="39.1027367" lon="21.0656354"><ele>31.0</ele><time>2026-05-02T12:58:03.75Z</time></trkpt><trkpt lat="39.102829" lon="21.0655121"><ele>30.5</ele><time>2026-05-02T12:58:04.751Z</time></trkpt><trkpt lat="39.1029226" lon="21.0653792"><ele>30.0</ele><time>2026-05-02T12:58:05.75Z</time></trkpt><trkpt lat="39.1030195" lon="21.0652477"><ele>29.5</ele><time>2026-05-02T12:58:06.75Z</time></trkpt><trkpt lat="39.1031205" lon="21.0651145"><ele>29.0</ele><time>2026-05-02T12:58:07.75Z</time></trkpt><trkpt lat="39.103224" lon="21.0649768"><ele>28.0</ele><time>2026-05-02T12:58:08.749Z</time></trkpt><trkpt lat="39.1033278" lon="21.0648293"><ele>27.0</ele><time>2026-05-02T12:58:09.749Z</time></trkpt><trkpt lat="39.1034333" lon="21.0646858"><ele>26.0</ele><time>2026-05-02T12:58:10.75Z</time></trkpt><trkpt lat="39.1035434" lon="21.0645344"><ele>26.0</ele><time>2026-05-02T12:58:11.75Z</time></trkpt><trkpt lat="39.1036542" lon="21.0643867"><ele>26.0</ele><time>2026-05-02T12:58:12.75Z</time></trkpt><trkpt lat="39.1037686" lon="21.0642348"><ele>26.0</ele><time>2026-05-02T12:58:13.749Z</time></trkpt><trkpt lat="39.1038859" lon="21.0640801"><ele>25.333333333333332</ele><time>2026-05-02T12:58:14.749Z</time></trkpt><trkpt lat="39.1040068" lon="21.06392"><ele>24.666666666666664</ele><time>2026-05-02T12:58:15.75Z</time></trkpt><trkpt lat="39.1041306" lon="21.0637553"><ele>24.0</ele><time>2026-05-02T12:58:16.749Z</time></trkpt><trkpt lat="39.1042541" lon="21.0635925"><ele>24.0</ele><time>2026-05-02T12:58:17.749Z</time></trkpt><trkpt lat="39.1043816" lon="21.0634261"><ele>24.0</ele><time>2026-05-02T12:58:18.749Z</time></trkpt><trkpt lat="39.1045084" lon="21.06326"><ele>24.0</ele><time>2026-05-02T12:58:19.75Z</time></trkpt><trkpt lat="39.1046362" lon="21.0630895"><ele>24.0</ele><time>2026-05-02T12:58:20.751Z</time></trkpt><trkpt lat="39.1047623" lon="21.0629198"><ele>24.0</ele><time>2026-05-02T12:58:21.75Z</time></trkpt><trkpt lat="39.1048919" lon="21.0627491"><ele>24.0</ele><time>2026-05-02T12:58:22.75Z</time></trkpt><trkpt lat="39.1050246" lon="21.0625708"><ele>24.333333333333336</ele><time>2026-05-02T12:58:23.749Z</time></trkpt><trkpt lat="39.1051577" lon="21.062388"><ele>24.666666666666668</ele><time>2026-05-02T12:58:24.751Z</time></trkpt><trkpt lat="39.1052885" lon="21.0621962"><ele>25.0</ele><time>2026-05-02T12:58:25.75Z</time></trkpt><trkpt lat="39.1054185" lon="21.0619993"><ele>25.0</ele><time>2026-05-02T12:58:26.75Z</time></trkpt><trkpt lat="39.1055462" lon="21.0618001"><ele>25.0</ele><time>2026-05-02T12:58:27.75Z</time></trkpt><trkpt lat="39.1056703" lon="21.0616005"><ele>25.0</ele><time>2026-05-02T12:58:28.75Z</time></trkpt><trkpt lat="39.1057919" lon="21.0613911"><ele>25.0</ele><time>2026-05-02T12:58:29.749Z</time></trkpt><trkpt lat="39.1059097" lon="21.0611789"><ele>25.0</ele><time>2026-05-02T12:58:30.749Z</time></trkpt><trkpt lat="39.1060258" lon="21.0609682"><ele>25.0</ele><time>2026-05-02T12:58:31.751Z</time></trkpt><trkpt lat="39.1061399" lon="21.0607474"><ele>24.333333333333336</ele><time>2026-05-02T12:58:32.749Z</time></trkpt><trkpt lat="39.106249" lon="21.0605275"><ele>23.666666666666668</ele><time>2026-05-02T12:58:33.751Z</time></trkpt><trkpt lat="39.1063546" lon="21.0603036"><ele>23.0</ele><time>2026-05-02T12:58:34.749Z</time></trkpt><trkpt lat="39.1064595" lon="21.0600764"><ele>23.0</ele><time>2026-05-02T12:58:35.75Z</time></trkpt><trkpt lat="39.1065656" lon="21.0598495"><ele>23.0</ele><time>2026-05-02T12:58:36.751Z</time></trkpt><trkpt lat="39.1066722" lon="21.0596181"><ele>23.0</ele><time>2026-05-02T12:58:37.75Z</time></trkpt><trkpt lat="39.1067809" lon="21.0593846"><ele>23.0</ele><time>2026-05-02T12:58:38.749Z</time></trkpt><trkpt lat="39.1068908" lon="21.0591487"><ele>23.0</ele><time>2026-05-02T12:58:39.751Z</time></trkpt><trkpt lat="39.106998" lon="21.0589165"><ele>23.0</ele><time>2026-05-02T12:58:40.75Z</time></trkpt><trkpt lat="39.107101" lon="21.0586848"><ele>23.333333333333336</ele><time>2026-05-02T12:58:41.749Z</time></trkpt><trkpt lat="39.1072051" lon="21.0584535"><ele>23.666666666666668</ele><time>2026-05-02T12:58:42.75Z</time></trkpt><trkpt lat="39.1073066" lon="21.0582248"><ele>24.0</ele><time>2026-05-02T12:58:43.75Z</time></trkpt><trkpt lat="39.1074058" lon="21.0580066"><ele>24.0</ele><time>2026-05-02T12:58:44.749Z</time></trkpt><trkpt lat="39.1075058" lon="21.0577861"><ele>24.0</ele><time>2026-05-02T12:58:45.75Z</time></trkpt><trkpt lat="39.1076036" lon="21.0575712"><ele>24.0</ele><time>2026-05-02T12:58:46.75Z</time></trkpt><trkpt lat="39.1076992" lon="21.0573525"><ele>24.0</ele><time>2026-05-02T12:58:47.751Z</time></trkpt><trkpt lat="39.1077945" lon="21.0571363"><ele>24.0</ele><time>2026-05-02T12:58:48.749Z</time></trkpt><trkpt lat="39.1078859" lon="21.0569254"><ele>24.0</ele><time>2026-05-02T12:58:49.75Z</time></trkpt><trkpt lat="39.1079752" lon="21.0567121"><ele>23.666666666666668</ele><time>2026-05-02T12:58:50.751Z</time></trkpt><trkpt lat="39.10807" lon="21.0565017"><ele>23.333333333333336</ele><time>2026-05-02T12:58:51.749Z</time></trkpt><trkpt lat="39.108168" lon="21.0562922"><ele>23.0</ele><time>2026-05-02T12:58:52.751Z</time></trkpt><trkpt lat="39.1082738" lon="21.0560776"><ele>23.666666666666668</ele><time>2026-05-02T12:58:53.75Z</time></trkpt><trkpt lat="39.1083829" lon="21.0558701"><ele>24.333333333333336</ele><time>2026-05-02T12:58:54.75Z</time></trkpt><trkpt lat="39.1084931" lon="21.0556703"><ele>25.0</ele><time>2026-05-02T12:58:55.75Z</time></trkpt><trkpt lat="39.1086043" lon="21.0554763"><ele>25.333333333333336</ele><time>2026-05-02T12:58:56.75Z</time></trkpt><trkpt lat="39.1087194" lon="21.0552932"><ele>25.666666666666664</ele><time>2026-05-02T12:58:57.751Z</time></trkpt><trkpt lat="39.1088409" lon="21.0551175"><ele>26.0</ele><time>2026-05-02T12:58:58.749Z</time></trkpt><trkpt lat="39.1089658" lon="21.0549487"><ele>26.333333333333332</ele><time>2026-05-02T12:58:59.75Z</time></trkpt><trkpt lat="39.1090914" lon="21.0547863"><ele>26.666666666666664</ele><time>2026-05-02T12:59:00.75Z</time></trkpt><trkpt lat="39.1092141" lon="21.0546329"><ele>27.0</ele><time>2026-05-02T12:59:01.75Z</time></trkpt><trkpt lat="39.1093365" lon="21.0544819"><ele>27.0</ele><time>2026-05-02T12:59:02.75Z</time></trkpt><trkpt lat="39.1094611" lon="21.0543315"><ele>27.0</ele><time>2026-05-02T12:59:03.75Z</time></trkpt><trkpt lat="39.1095902" lon="21.0541925"><ele>27.0</ele><time>2026-05-02T12:59:04.75Z</time></trkpt><trkpt lat="39.1097293" lon="21.0540678"><ele>26.666666666666664</ele><time>2026-05-02T12:59:05.75Z</time></trkpt><trkpt lat="39.1098721" lon="21.0539529"><ele>26.333333333333332</ele><time>2026-05-02T12:59:06.75Z</time></trkpt><trkpt lat="39.1100199" lon="21.0538405"><ele>26.0</ele><time>2026-05-02T12:59:07.75Z</time></trkpt><trkpt lat="39.1101696" lon="21.0537256"><ele>26.0</ele><time>2026-05-02T12:59:08.749Z</time></trkpt><trkpt lat="39.1103226" lon="21.0536093"><ele>26.0</ele><time>2026-05-02T12:59:09.75Z</time></trkpt><trkpt lat="39.1104795" lon="21.0534962"><ele>26.0</ele><time>2026-05-02T12:59:10.751Z</time></trkpt><trkpt lat="39.1106408" lon="21.053385"><ele>25.333333333333332</ele><time>2026-05-02T12:59:11.75Z</time></trkpt><trkpt lat="39.110806" lon="21.0532695"><ele>24.666666666666664</ele><time>2026-05-02T12:59:12.75Z</time></trkpt><trkpt lat="39.110973" lon="21.0531486"><ele>24.0</ele><time>2026-05-02T12:59:13.75Z</time></trkpt><trkpt lat="39.111143" lon="21.0530274"><ele>24.0</ele><time>2026-05-02T12:59:14.75Z</time></trkpt><trkpt lat="39.1113132" lon="21.0529052"><ele>24.0</ele><time>2026-05-02T12:59:15.75Z</time></trkpt><trkpt lat="39.1114839" lon="21.0527826"><ele>24.0</ele><time>2026-05-02T12:59:16.751Z</time></trkpt><trkpt lat="39.1116526" lon="21.0526568"><ele>24.333333333333336</ele><time>2026-05-02T12:59:17.75Z</time></trkpt><trkpt lat="39.1118245" lon="21.052532"><ele>24.666666666666668</ele><time>2026-05-02T12:59:18.75Z</time></trkpt><trkpt lat="39.1119991" lon="21.0524065"><ele>25.0</ele><time>2026-05-02T12:59:19.751Z</time></trkpt><trkpt lat="39.1121769" lon="21.0522785"><ele>25.0</ele><time>2026-05-02T12:59:20.749Z</time></trkpt><trkpt lat="39.1123549" lon="21.0521486"><ele>25.0</ele><time>2026-05-02T12:59:21.75Z</time></trkpt><trkpt lat="39.1125348" lon="21.0520182"><ele>25.0</ele><time>2026-05-02T12:59:22.75Z</time></trkpt><trkpt lat="39.1127145" lon="21.0518879"><ele>24.333333333333336</ele><time>2026-05-02T12:59:23.749Z</time></trkpt><trkpt lat="39.1128952" lon="21.0517561"><ele>23.666666666666668</ele><time>2026-05-02T12:59:24.751Z</time></trkpt><trkpt lat="39.1130763" lon="21.0516257"><ele>23.0</ele><time>2026-05-02T12:59:25.75Z</time></trkpt><trkpt lat="39.1132603" lon="21.051491"><ele>22.666666666666668</ele><time>2026-05-02T12:59:26.75Z</time></trkpt><trkpt lat="39.1134449" lon="21.051357"><ele>22.333333333333332</ele><time>2026-05-02T12:59:27.749Z</time></trkpt><trkpt lat="39.1136285" lon="21.0512187"><ele>22.0</ele><time>2026-05-02T12:59:28.75Z</time></trkpt><trkpt lat="39.1138145" lon="21.0510862"><ele>22.0</ele><time>2026-05-02T12:59:29.751Z</time></trkpt><trkpt lat="39.1139999" lon="21.0509491"><ele>22.0</ele><time>2026-05-02T12:59:30.75Z</time></trkpt><trkpt lat="39.1141883" lon="21.0508113"><ele>22.0</ele><time>2026-05-02T12:59:31.751Z</time></trkpt><trkpt lat="39.1143794" lon="21.0506731"><ele>22.333333333333332</ele><time>2026-05-02T12:59:32.75Z</time></trkpt><trkpt lat="39.1145682" lon="21.0505398"><ele>22.666666666666668</ele><time>2026-05-02T12:59:33.749Z</time></trkpt><trkpt lat="39.1147558" lon="21.0504085"><ele>23.0</ele><time>2026-05-02T12:59:34.75Z</time></trkpt><trkpt lat="39.1149412" lon="21.0502776"><ele>22.333333333333336</ele><time>2026-05-02T12:59:35.749Z</time></trkpt><trkpt lat="39.1151247" lon="21.050148"><ele>21.666666666666668</ele><time>2026-05-02T12:59:36.751Z</time></trkpt><trkpt lat="39.1153067" lon="21.0500168"><ele>21.0</ele><time>2026-05-02T12:59:37.75Z</time></trkpt><trkpt lat="39.1154868" lon="21.0498866"><ele>20.666666666666668</ele><time>2026-05-02T12:59:38.751Z</time></trkpt><trkpt lat="39.1156657" lon="21.049759"><ele>20.333333333333336</ele><time>2026-05-02T12:59:39.75Z</time></trkpt><trkpt lat="39.1158461" lon="21.0496263"><ele>20.0</ele><time>2026-05-02T12:59:40.75Z</time></trkpt><trkpt lat="39.1160277" lon="21.0494946"><ele>20.666666666666668</ele><time>2026-05-02T12:59:41.75Z</time></trkpt><trkpt lat="39.1162114" lon="21.0493635"><ele>21.333333333333332</ele><time>2026-05-02T12:59:42.749Z</time></trkpt><trkpt lat="39.1163961" lon="21.0492342"><ele>22.0</ele><time>2026-05-02T12:59:43.75Z</time></trkpt><trkpt lat="39.116582" lon="21.0491011"><ele>22.333333333333332</ele><time>2026-05-02T12:59:44.75Z</time></trkpt><trkpt lat="39.1167743" lon="21.0489658"><ele>22.666666666666668</ele><time>2026-05-02T12:59:45.75Z</time></trkpt><trkpt lat="39.1169752" lon="21.0488241"><ele>23.0</ele><time>2026-05-02T12:59:46.75Z</time></trkpt><trkpt lat="39.1171778" lon="21.0486746"><ele>23.0</ele><time>2026-05-02T12:59:47.749Z</time></trkpt><trkpt lat="39.1173805" lon="21.0485299"><ele>23.0</ele><time>2026-05-02T12:59:48.749Z</time></trkpt><trkpt lat="39.1175833" lon="21.0483814"><ele>22.0</ele><time>2026-05-02T12:59:49.749Z</time></trkpt><trkpt lat="39.1177859" lon="21.0482336"><ele>21.0</ele><time>2026-05-02T12:59:50.751Z</time></trkpt><trkpt lat="39.1179902" lon="21.0480909"><ele>21.0</ele><time>2026-05-02T12:59:51.749Z</time></trkpt><trkpt lat="39.1182026" lon="21.0479428"><ele>21.0</ele><time>2026-05-02T12:59:52.751Z</time></trkpt><trkpt lat="39.1184181" lon="21.0477876"><ele>22.5</ele><time>2026-05-02T12:59:53.749Z</time></trkpt><trkpt lat="39.1186329" lon="21.0476309"><ele>24.0</ele><time>2026-05-02T12:59:54.75Z</time></trkpt><trkpt lat="39.1188474" lon="21.0474722"><ele>23.5</ele><time>2026-05-02T12:59:55.749Z</time></trkpt><trkpt lat="39.1190598" lon="21.0473186"><ele>23.0</ele><time>2026-05-02T12:59:56.751Z</time></trkpt><trkpt lat="39.1192679" lon="21.047167"><ele>23.0</ele><time>2026-05-02T12:59:57.749Z</time></trkpt><trkpt lat="39.1194717" lon="21.0470128"><ele>23.0</ele><time>2026-05-02T12:59:58.751Z</time></trkpt><trkpt lat="39.1196763" lon="21.0468627"><ele>23.0</ele><time>2026-05-02T12:59:59.75Z</time></trkpt><trkpt lat="39.1198765" lon="21.0467168"><ele>23.0</ele><time>2026-05-02T13:00:00.749Z</time></trkpt><trkpt lat="39.1200699" lon="21.0465748"><ele>23.0</ele><time>2026-05-02T13:00:01.75Z</time></trkpt><trkpt lat="39.120264" lon="21.0464295"><ele>23.0</ele><time>2026-05-02T13:00:02.75Z</time></trkpt><trkpt lat="39.1204616" lon="21.046277"><ele>23.0</ele><time>2026-05-02T13:00:03.749Z</time></trkpt><trkpt lat="39.1206638" lon="21.0461189"><ele>23.0</ele><time>2026-05-02T13:00:04.751Z</time></trkpt><trkpt lat="39.1208725" lon="21.0459568"><ele>24.5</ele><time>2026-05-02T13:00:05.75Z</time></trkpt><trkpt lat="39.1210869" lon="21.0458003"><ele>26.0</ele><time>2026-05-02T13:00:06.75Z</time></trkpt><trkpt lat="39.1212973" lon="21.0456538"><ele>26.0</ele><time>2026-05-02T13:00:07.751Z</time></trkpt><trkpt lat="39.1214952" lon="21.045524"><ele>26.0</ele><time>2026-05-02T13:00:08.749Z</time></trkpt><trkpt lat="39.1216878" lon="21.0454024"><ele>26.0</ele><time>2026-05-02T13:00:09.75Z</time></trkpt><trkpt lat="39.1218749" lon="21.0452796"><ele>26.333333333333332</ele><time>2026-05-02T13:00:10.751Z</time></trkpt><trkpt lat="39.1220555" lon="21.0451537"><ele>26.666666666666664</ele><time>2026-05-02T13:00:11.75Z</time></trkpt><trkpt lat="39.1222323" lon="21.0450238"><ele>27.0</ele><time>2026-05-02T13:00:12.75Z</time></trkpt><trkpt lat="39.1224091" lon="21.0448958"><ele>26.333333333333336</ele><time>2026-05-02T13:00:13.749Z</time></trkpt><trkpt lat="39.1225871" lon="21.0447688"><ele>25.666666666666668</ele><time>2026-05-02T13:00:14.751Z</time></trkpt><trkpt lat="39.1227666" lon="21.0446383"><ele>25.0</ele><time>2026-05-02T13:00:15.75Z</time></trkpt><trkpt lat="39.1229471" lon="21.0445061"><ele>25.0</ele><time>2026-05-02T13:00:16.749Z</time></trkpt><trkpt lat="39.1231261" lon="21.0443774"><ele>25.0</ele><time>2026-05-02T13:00:17.75Z</time></trkpt><trkpt lat="39.123305" lon="21.0442475"><ele>25.0</ele><time>2026-05-02T13:00:18.751Z</time></trkpt><trkpt lat="39.1234861" lon="21.0441155"><ele>25.333333333333336</ele><time>2026-05-02T13:00:19.75Z</time></trkpt><trkpt lat="39.1236648" lon="21.0439878"><ele>25.666666666666664</ele><time>2026-05-02T13:00:20.751Z</time></trkpt><trkpt lat="39.1238426" lon="21.0438588"><ele>26.0</ele><time>2026-05-02T13:00:21.75Z</time></trkpt><trkpt lat="39.1240224" lon="21.0437304"><ele>27.0</ele><time>2026-05-02T13:00:22.749Z</time></trkpt><trkpt lat="39.1242022" lon="21.0435985"><ele>28.0</ele><time>2026-05-02T13:00:23.749Z</time></trkpt><trkpt lat="39.1243797" lon="21.0434592"><ele>29.0</ele><time>2026-05-02T13:00:24.751Z</time></trkpt><trkpt lat="39.1245612" lon="21.0433268"><ele>27.666666666666664</ele><time>2026-05-02T13:00:25.749Z</time></trkpt><trkpt lat="39.1247404" lon="21.0431966"><ele>26.333333333333336</ele><time>2026-05-02T13:00:26.749Z</time></trkpt><trkpt lat="39.1249177" lon="21.0430693"><ele>25.0</ele><time>2026-05-02T13:00:27.749Z</time></trkpt><trkpt lat="39.1250973" lon="21.042943"><ele>25.0</ele><time>2026-05-02T13:00:28.751Z</time></trkpt><trkpt lat="39.1252766" lon="21.0428159"><ele>25.0</ele><time>2026-05-02T13:00:29.751Z</time></trkpt><trkpt lat="39.1254569" lon="21.0426869"><ele>25.0</ele><time>2026-05-02T13:00:30.75Z</time></trkpt><trkpt lat="39.1256387" lon="21.0425576"><ele>26.0</ele><time>2026-05-02T13:00:31.751Z</time></trkpt><trkpt lat="39.1258224" lon="21.0424302"><ele>27.0</ele><time>2026-05-02T13:00:32.749Z</time></trkpt><trkpt lat="39.1260055" lon="21.0422969"><ele>28.0</ele><time>2026-05-02T13:00:33.749Z</time></trkpt><trkpt lat="39.1261893" lon="21.0421624"><ele>28.0</ele><time>2026-05-02T13:00:34.75Z</time></trkpt><trkpt lat="39.1263769" lon="21.0420284"><ele>28.0</ele><time>2026-05-02T13:00:35.749Z</time></trkpt><trkpt lat="39.1265629" lon="21.0418936"><ele>28.0</ele><time>2026-05-02T13:00:36.749Z</time></trkpt><trkpt lat="39.1267501" lon="21.0417613"><ele>27.666666666666668</ele><time>2026-05-02T13:00:37.75Z</time></trkpt><trkpt lat="39.1269341" lon="21.0416313"><ele>27.333333333333336</ele><time>2026-05-02T13:00:38.751Z</time></trkpt><trkpt lat="39.1271194" lon="21.0415003"><ele>27.0</ele><time>2026-05-02T13:00:39.749Z</time></trkpt><trkpt lat="39.1273034" lon="21.0413728"><ele>27.333333333333336</ele><time>2026-05-02T13:00:40.75Z</time></trkpt><trkpt lat="39.1274846" lon="21.0412428"><ele>27.666666666666668</ele><time>2026-05-02T13:00:41.75Z</time></trkpt><trkpt lat="39.1276626" lon="21.041114"><ele>28.0</ele><time>2026-05-02T13:00:42.75Z</time></trkpt><trkpt lat="39.1278417" lon="21.0409898"><ele>28.0</ele><time>2026-05-02T13:00:43.75Z</time></trkpt><trkpt lat="39.1280178" lon="21.0408656"><ele>28.0</ele><time>2026-05-02T13:00:44.749Z</time></trkpt><trkpt lat="39.1281945" lon="21.0407414"><ele>28.0</ele><time>2026-05-02T13:00:45.749Z</time></trkpt><trkpt lat="39.1283684" lon="21.0406113"><ele>28.0</ele><time>2026-05-02T13:00:46.75Z</time></trkpt><trkpt lat="39.1285435" lon="21.0404866"><ele>28.0</ele><time>2026-05-02T13:00:47.75Z</time></trkpt><trkpt lat="39.1287187" lon="21.0403608"><ele>28.0</ele><time>2026-05-02T13:00:48.75Z</time></trkpt><trkpt lat="39.1288973" lon="21.0402328"><ele>28.0</ele><time>2026-05-02T13:00:49.749Z</time></trkpt><trkpt lat="39.1290725" lon="21.040104"><ele>28.0</ele><time>2026-05-02T13:00:50.751Z</time></trkpt><trkpt lat="39.1292478" lon="21.0399729"><ele>28.0</ele><time>2026-05-02T13:00:51.75Z</time></trkpt><trkpt lat="39.1294264" lon="21.0398423"><ele>28.0</ele><time>2026-05-02T13:00:52.75Z</time></trkpt><trkpt lat="39.1296057" lon="21.0397112"><ele>28.0</ele><time>2026-05-02T13:00:53.749Z</time></trkpt><trkpt lat="39.1297856" lon="21.039579"><ele>28.0</ele><time>2026-05-02T13:00:54.751Z</time></trkpt><trkpt lat="39.1299638" lon="21.0394522"><ele>28.0</ele><time>2026-05-02T13:00:55.75Z</time></trkpt><trkpt lat="39.1301449" lon="21.0393173"><ele>28.0</ele><time>2026-05-02T13:00:56.749Z</time></trkpt><trkpt lat="39.1303239" lon="21.0391816"><ele>28.0</ele><time>2026-05-02T13:00:57.751Z</time></trkpt><trkpt lat="39.1305017" lon="21.0390526"><ele>27.666666666666668</ele><time>2026-05-02T13:00:58.75Z</time></trkpt><trkpt lat="39.1306788" lon="21.038925"><ele>27.333333333333336</ele><time>2026-05-02T13:00:59.75Z</time></trkpt><trkpt lat="39.130855" lon="21.0387979"><ele>27.0</ele><time>2026-05-02T13:01:00.751Z</time></trkpt><trkpt lat="39.1310293" lon="21.0386707"><ele>27.333333333333336</ele><time>2026-05-02T13:01:01.749Z</time></trkpt><trkpt lat="39.1311999" lon="21.0385426"><ele>27.666666666666668</ele><time>2026-05-02T13:01:02.749Z</time></trkpt><trkpt lat="39.131366" lon="21.0384053"><ele>28.0</ele><time>2026-05-02T13:01:03.749Z</time></trkpt><trkpt lat="39.1315273" lon="21.0382589"><ele>28.666666666666668</ele><time>2026-05-02T13:01:04.749Z</time></trkpt><trkpt lat="39.1316804" lon="21.0381016"><ele>29.333333333333336</ele><time>2026-05-02T13:01:05.749Z</time></trkpt><trkpt lat="39.1318283" lon="21.0379373"><ele>30.0</ele><time>2026-05-02T13:01:06.751Z</time></trkpt><trkpt lat="39.1319693" lon="21.0377599"><ele>30.0</ele><time>2026-05-02T13:01:07.75Z</time></trkpt><trkpt lat="39.1321084" lon="21.0375731"><ele>30.0</ele><time>2026-05-02T13:01:08.75Z</time></trkpt><trkpt lat="39.1322468" lon="21.0373745"><ele>30.0</ele><time>2026-05-02T13:01:09.75Z</time></trkpt><trkpt lat="39.1323851" lon="21.0371785"><ele>30.333333333333336</ele><time>2026-05-02T13:01:10.75Z</time></trkpt><trkpt lat="39.1325233" lon="21.0369772"><ele>30.666666666666668</ele><time>2026-05-02T13:01:11.75Z</time></trkpt><trkpt lat="39.1326649" lon="21.0367719"><ele>31.0</ele><time>2026-05-02T13:01:12.75Z</time></trkpt><trkpt lat="39.1327992" lon="21.0365631"><ele>30.333333333333336</ele><time>2026-05-02T13:01:13.749Z</time></trkpt><trkpt lat="39.1329397" lon="21.0363635"><ele>29.666666666666664</ele><time>2026-05-02T13:01:14.749Z</time></trkpt><trkpt lat="39.1330832" lon="21.0361625"><ele>29.0</ele><time>2026-05-02T13:01:15.75Z</time></trkpt><trkpt lat="39.133222" lon="21.0359605"><ele>29.333333333333332</ele><time>2026-05-02T13:01:16.749Z</time></trkpt><trkpt lat="39.1333639" lon="21.0357589"><ele>29.666666666666664</ele><time>2026-05-02T13:01:17.749Z</time></trkpt><trkpt lat="39.1335026" lon="21.0355639"><ele>30.0</ele><time>2026-05-02T13:01:18.75Z</time></trkpt><trkpt lat="39.1336413" lon="21.0353625"><ele>30.0</ele><time>2026-05-02T13:01:19.751Z</time></trkpt><trkpt lat="39.1337805" lon="21.0351654"><ele>30.0</ele><time>2026-05-02T13:01:20.749Z</time></trkpt><trkpt lat="39.1339186" lon="21.0349689"><ele>30.0</ele><time>2026-05-02T13:01:21.75Z</time></trkpt><trkpt lat="39.1340569" lon="21.034772"><ele>29.333333333333336</ele><time>2026-05-02T13:01:22.75Z</time></trkpt><trkpt lat="39.1341944" lon="21.0345776"><ele>28.666666666666668</ele><time>2026-05-02T13:01:23.75Z</time></trkpt><trkpt lat="39.1343333" lon="21.0343793"><ele>28.0</ele><time>2026-05-02T13:01:24.749Z</time></trkpt><trkpt lat="39.1344695" lon="21.0341808"><ele>28.333333333333336</ele><time>2026-05-02T13:01:25.75Z</time></trkpt><trkpt lat="39.1346067" lon="21.0339858"><ele>28.666666666666664</ele><time>2026-05-02T13:01:26.75Z</time></trkpt><trkpt lat="39.1347456" lon="21.0337865"><ele>29.0</ele><time>2026-05-02T13:01:27.751Z</time></trkpt><trkpt lat="39.1348821" lon="21.0335853"><ele>29.333333333333332</ele><time>2026-05-02T13:01:28.75Z</time></trkpt><trkpt lat="39.1350194" lon="21.0333884"><ele>29.666666666666664</ele><time>2026-05-02T13:01:29.749Z</time></trkpt><trkpt lat="39.1351579" lon="21.0331886"><ele>30.0</ele><time>2026-05-02T13:01:30.75Z</time></trkpt><trkpt lat="39.1352979" lon="21.0329887"><ele>30.0</ele><time>2026-05-02T13:01:31.749Z</time></trkpt><trkpt lat="39.1354354" lon="21.0327914"><ele>30.0</ele><time>2026-05-02T13:01:32.75Z</time></trkpt><trkpt lat="39.1355742" lon="21.032594"><ele>30.0</ele><time>2026-05-02T13:01:33.75Z</time></trkpt><trkpt lat="39.1357125" lon="21.0323955"><ele>30.333333333333336</ele><time>2026-05-02T13:01:34.749Z</time></trkpt><trkpt lat="39.1358471" lon="21.0321963"><ele>30.666666666666668</ele><time>2026-05-02T13:01:35.75Z</time></trkpt><trkpt lat="39.1359791" lon="21.0320016"><ele>31.0</ele><time>2026-05-02T13:01:36.75Z</time></trkpt><trkpt lat="39.1361172" lon="21.0318081"><ele>30.666666666666668</ele><time>2026-05-02T13:01:37.751Z</time></trkpt><trkpt lat="39.1362461" lon="21.0316201"><ele>30.333333333333336</ele><time>2026-05-02T13:01:38.751Z</time></trkpt><trkpt lat="39.1363773" lon="21.0314297"><ele>30.0</ele><time>2026-05-02T13:01:39.75Z</time></trkpt><trkpt lat="39.1365059" lon="21.0312492"><ele>31.0</ele><time>2026-05-02T13:01:40.75Z</time></trkpt><trkpt lat="39.1366322" lon="21.0310661"><ele>32.0</ele><time>2026-05-02T13:01:41.75Z</time></trkpt><trkpt lat="39.1367576" lon="21.0308869"><ele>33.0</ele><time>2026-05-02T13:01:42.75Z</time></trkpt><trkpt lat="39.1368775" lon="21.0307127"><ele>33.0</ele><time>2026-05-02T13:01:43.75Z</time></trkpt><trkpt lat="39.1369981" lon="21.0305374"><ele>33.0</ele><time>2026-05-02T13:01:44.75Z</time></trkpt><trkpt lat="39.13712" lon="21.030359"><ele>33.0</ele><time>2026-05-02T13:01:45.75Z</time></trkpt><trkpt lat="39.1372416" lon="21.0301879"><ele>33.0</ele><time>2026-05-02T13:01:46.751Z</time></trkpt><trkpt lat="39.1373607" lon="21.0300153"><ele>33.0</ele><time>2026-05-02T13:01:47.75Z</time></trkpt><trkpt lat="39.1374738" lon="21.0298453"><ele>33.0</ele><time>2026-05-02T13:01:48.749Z</time></trkpt><trkpt lat="39.137586" lon="21.0296871"><ele>32.666666666666664</ele><time>2026-05-02T13:01:49.75Z</time></trkpt><trkpt lat="39.137693" lon="21.0295388"><ele>32.33333333333333</ele><time>2026-05-02T13:01:50.75Z</time></trkpt><trkpt lat="39.1377952" lon="21.0293902"><ele>32.0</ele><time>2026-05-02T13:01:51.751Z</time></trkpt><trkpt lat="39.1378922" lon="21.0292506"><ele>32.25</ele><time>2026-05-02T13:01:52.75Z</time></trkpt><trkpt lat="39.1379852" lon="21.0291142"><ele>32.5</ele><time>2026-05-02T13:01:53.749Z</time></trkpt><trkpt lat="39.1380765" lon="21.0289773"><ele>32.75</ele><time>2026-05-02T13:01:54.751Z</time></trkpt><trkpt lat="39.1381666" lon="21.028846"><ele>33.0</ele><time>2026-05-02T13:01:55.75Z</time></trkpt><trkpt lat="39.138257" lon="21.0287115"><ele>32.75</ele><time>2026-05-02T13:01:56.75Z</time></trkpt><trkpt lat="39.1383438" lon="21.0285825"><ele>32.5</ele><time>2026-05-02T13:01:57.75Z</time></trkpt><trkpt lat="39.1384316" lon="21.0284551"><ele>32.25</ele><time>2026-05-02T13:01:58.75Z</time></trkpt><trkpt lat="39.1385198" lon="21.0283255"><ele>32.0</ele><time>2026-05-02T13:01:59.75Z</time></trkpt><trkpt lat="39.1386117" lon="21.0281871"><ele>32.0</ele><time>2026-05-02T13:02:00.75Z</time></trkpt><trkpt lat="39.1387099" lon="21.0280442"><ele>32.0</ele><time>2026-05-02T13:02:01.749Z</time></trkpt><trkpt lat="39.1388089" lon="21.0278992"><ele>32.0</ele><time>2026-05-02T13:02:02.75Z</time></trkpt><trkpt lat="39.1389111" lon="21.0277492"><ele>32.0</ele><time>2026-05-02T13:02:03.75Z</time></trkpt><trkpt lat="39.1390136" lon="21.0275918"><ele>32.0</ele><time>2026-05-02T13:02:04.75Z</time></trkpt><trkpt lat="39.1391165" lon="21.0274355"><ele>32.0</ele><time>2026-05-02T13:02:05.75Z</time></trkpt><trkpt lat="39.1392244" lon="21.027278"><ele>32.666666666666664</ele><time>2026-05-02T13:02:06.749Z</time></trkpt><trkpt lat="39.1393329" lon="21.0271211"><ele>33.333333333333336</ele><time>2026-05-02T13:02:07.75Z</time></trkpt><trkpt lat="39.1394411" lon="21.0269633"><ele>34.0</ele><time>2026-05-02T13:02:08.749Z</time></trkpt><trkpt lat="39.1395496" lon="21.0268028"><ele>34.0</ele><time>2026-05-02T13:02:09.751Z</time></trkpt><trkpt lat="39.1396548" lon="21.0266458"><ele>34.0</ele><time>2026-05-02T13:02:10.749Z</time></trkpt><trkpt lat="39.1397675" lon="21.0264873"><ele>34.0</ele><time>2026-05-02T13:02:11.751Z</time></trkpt><trkpt lat="39.1398748" lon="21.0263245"><ele>34.66666666666667</ele><time>2026-05-02T13:02:12.749Z</time></trkpt><trkpt lat="39.1399845" lon="21.02616"><ele>35.333333333333336</ele><time>2026-05-02T13:02:13.749Z</time></trkpt><trkpt lat="39.1400971" lon="21.0259972"><ele>36.0</ele><time>2026-05-02T13:02:14.751Z</time></trkpt><trkpt lat="39.14021" lon="21.0258329"><ele>36.0</ele><time>2026-05-02T13:02:15.75Z</time></trkpt><trkpt lat="39.1403182" lon="21.0256624"><ele>36.0</ele><time>2026-05-02T13:02:16.75Z</time></trkpt><trkpt lat="39.1404328" lon="21.0254957"><ele>36.0</ele><time>2026-05-02T13:02:17.749Z</time></trkpt><trkpt lat="39.140552" lon="21.025328"><ele>36.0</ele><time>2026-05-02T13:02:18.75Z</time></trkpt><trkpt lat="39.1406732" lon="21.0251541"><ele>36.0</ele><time>2026-05-02T13:02:19.749Z</time></trkpt><trkpt lat="39.1407951" lon="21.0249761"><ele>36.0</ele><time>2026-05-02T13:02:20.75Z</time></trkpt><trkpt lat="39.1409188" lon="21.0247974"><ele>35.666666666666664</ele><time>2026-05-02T13:02:21.751Z</time></trkpt><trkpt lat="39.1410404" lon="21.0246234"><ele>35.33333333333333</ele><time>2026-05-02T13:02:22.749Z</time></trkpt><trkpt lat="39.1411635" lon="21.0244444"><ele>35.0</ele><time>2026-05-02T13:02:23.75Z</time></trkpt><trkpt lat="39.1412839" lon="21.0242646"><ele>34.666666666666664</ele><time>2026-05-02T13:02:24.75Z</time></trkpt><trkpt lat="39.1414072" lon="21.0240904"><ele>34.333333333333336</ele><time>2026-05-02T13:02:25.75Z</time></trkpt><trkpt lat="39.1415311" lon="21.023914"><ele>34.0</ele><time>2026-05-02T13:02:26.751Z</time></trkpt><trkpt lat="39.1416519" lon="21.0237347"><ele>34.0</ele><time>2026-05-02T13:02:27.751Z</time></trkpt><trkpt lat="39.14177" lon="21.0235575"><ele>34.0</ele><time>2026-05-02T13:02:28.749Z</time></trkpt><trkpt lat="39.1418911" lon="21.0233776"><ele>34.0</ele><time>2026-05-02T13:02:29.75Z</time></trkpt><trkpt lat="39.1420077" lon="21.0231967"><ele>34.333333333333336</ele><time>2026-05-02T13:02:30.751Z</time></trkpt><trkpt lat="39.1421271" lon="21.0230167"><ele>34.666666666666664</ele><time>2026-05-02T13:02:31.75Z</time></trkpt><trkpt lat="39.142243" lon="21.0228383"><ele>35.0</ele><time>2026-05-02T13:02:32.75Z</time></trkpt><trkpt lat="39.1423591" lon="21.0226581"><ele>35.0</ele><time>2026-05-02T13:02:33.749Z</time></trkpt><trkpt lat="39.1424787" lon="21.0224821"><ele>35.0</ele><time>2026-05-02T13:02:34.749Z</time></trkpt><trkpt lat="39.142599" lon="21.0223033"><ele>35.0</ele><time>2026-05-02T13:02:35.751Z</time></trkpt><trkpt lat="39.1427184" lon="21.0221258"><ele>35.33333333333333</ele><time>2026-05-02T13:02:36.749Z</time></trkpt><trkpt lat="39.1428353" lon="21.0219493"><ele>35.666666666666664</ele><time>2026-05-02T13:02:37.749Z</time></trkpt><trkpt lat="39.1429491" lon="21.0217737"><ele>36.0</ele><time>2026-05-02T13:02:38.75Z</time></trkpt><trkpt lat="39.14306" lon="21.0215933"><ele>35.333333333333336</ele><time>2026-05-02T13:02:39.75Z</time></trkpt><trkpt lat="39.1431793" lon="21.0214137"><ele>34.66666666666667</ele><time>2026-05-02T13:02:40.75Z</time></trkpt><trkpt lat="39.1432978" lon="21.0212371"><ele>34.0</ele><time>2026-05-02T13:02:41.749Z</time></trkpt><trkpt lat="39.1434146" lon="21.0210647"><ele>34.0</ele><time>2026-05-02T13:02:42.749Z</time></trkpt><trkpt lat="39.1435331" lon="21.0208965"><ele>34.0</ele><time>2026-05-02T13:02:43.749Z</time></trkpt><trkpt lat="39.1436493" lon="21.0207315"><ele>34.0</ele><time>2026-05-02T13:02:44.75Z</time></trkpt><trkpt lat="39.1437616" lon="21.0205717"><ele>34.333333333333336</ele><time>2026-05-02T13:02:45.75Z</time></trkpt><trkpt lat="39.1438727" lon="21.0204127"><ele>34.666666666666664</ele><time>2026-05-02T13:02:46.749Z</time></trkpt><trkpt lat="39.1439796" lon="21.0202604"><ele>35.0</ele><time>2026-05-02T13:02:47.751Z</time></trkpt><trkpt lat="39.1440883" lon="21.0201093"><ele>35.0</ele><time>2026-05-02T13:02:48.75Z</time></trkpt><trkpt lat="39.144194" lon="21.0199565"><ele>35.0</ele><time>2026-05-02T13:02:49.751Z</time></trkpt><trkpt lat="39.1443068" lon="21.0198014"><ele>35.0</ele><time>2026-05-02T13:02:50.75Z</time></trkpt><trkpt lat="39.1444198" lon="21.019648"><ele>35.0</ele><time>2026-05-02T13:02:51.749Z</time></trkpt><trkpt lat="39.1445374" lon="21.0194951"><ele>35.0</ele><time>2026-05-02T13:02:52.751Z</time></trkpt><trkpt lat="39.144653" lon="21.0193433"><ele>35.0</ele><time>2026-05-02T13:02:53.749Z</time></trkpt><trkpt lat="39.1447714" lon="21.0191923"><ele>35.0</ele><time>2026-05-02T13:02:54.75Z</time></trkpt><trkpt lat="39.1448886" lon="21.0190413"><ele>35.0</ele><time>2026-05-02T13:02:55.749Z</time></trkpt><trkpt lat="39.1450093" lon="21.0188918"><ele>35.0</ele><time>2026-05-02T13:02:56.749Z</time></trkpt><trkpt lat="39.1451272" lon="21.018739"><ele>35.0</ele><time>2026-05-02T13:02:57.75Z</time></trkpt><trkpt lat="39.1452469" lon="21.0185864"><ele>35.0</ele><time>2026-05-02T13:02:58.75Z</time></trkpt><trkpt lat="39.1453671" lon="21.0184346"><ele>35.0</ele><time>2026-05-02T13:02:59.75Z</time></trkpt><trkpt lat="39.1454893" lon="21.0182733"><ele>34.666666666666664</ele><time>2026-05-02T13:03:00.751Z</time></trkpt><trkpt lat="39.1456131" lon="21.0181106"><ele>34.333333333333336</ele><time>2026-05-02T13:03:01.749Z</time></trkpt><trkpt lat="39.1457422" lon="21.0179458"><ele>34.0</ele><time>2026-05-02T13:03:02.749Z</time></trkpt><trkpt lat="39.1458715" lon="21.0177811"><ele>34.0</ele><time>2026-05-02T13:03:03.751Z</time></trkpt><trkpt lat="39.146001" lon="21.0176136"><ele>34.0</ele><time>2026-05-02T13:03:04.75Z</time></trkpt><trkpt lat="39.1461332" lon="21.0174519"><ele>34.0</ele><time>2026-05-02T13:03:05.751Z</time></trkpt><trkpt lat="39.1462622" lon="21.0172887"><ele>34.333333333333336</ele><time>2026-05-02T13:03:06.75Z</time></trkpt><trkpt lat="39.1463954" lon="21.0171177"><ele>34.666666666666664</ele><time>2026-05-02T13:03:07.749Z</time></trkpt><trkpt lat="39.1465278" lon="21.0169435"><ele>35.0</ele><time>2026-05-02T13:03:08.751Z</time></trkpt><trkpt lat="39.1466617" lon="21.0167721"><ele>34.0</ele><time>2026-05-02T13:03:09.751Z</time></trkpt><trkpt lat="39.1467959" lon="21.0166014"><ele>33.0</ele><time>2026-05-02T13:03:10.749Z</time></trkpt><trkpt lat="39.1469301" lon="21.0164332"><ele>32.0</ele><time>2026-05-02T13:03:11.75Z</time></trkpt><trkpt lat="39.1470645" lon="21.016265"><ele>32.0</ele><time>2026-05-02T13:03:12.749Z</time></trkpt><trkpt lat="39.1471964" lon="21.0160944"><ele>32.0</ele><time>2026-05-02T13:03:13.749Z</time></trkpt><trkpt lat="39.1473285" lon="21.0159213"><ele>32.0</ele><time>2026-05-02T13:03:14.751Z</time></trkpt><trkpt lat="39.1474619" lon="21.0157488"><ele>32.33333333333333</ele><time>2026-05-02T13:03:15.75Z</time></trkpt><trkpt lat="39.1475983" lon="21.0155696"><ele>32.666666666666664</ele><time>2026-05-02T13:03:16.75Z</time></trkpt><trkpt lat="39.1477271" lon="21.0153887"><ele>33.0</ele><time>2026-05-02T13:03:17.751Z</time></trkpt><trkpt lat="39.1478493" lon="21.0151936"><ele>33.0</ele><time>2026-05-02T13:03:18.749Z</time></trkpt><trkpt lat="39.1479661" lon="21.0149909"><ele>33.0</ele><time>2026-05-02T13:03:19.751Z</time></trkpt><trkpt lat="39.1480762" lon="21.0147862"><ele>33.0</ele><time>2026-05-02T13:03:20.75Z</time></trkpt><trkpt lat="39.148178" lon="21.0145769"><ele>33.0</ele><time>2026-05-02T13:03:21.749Z</time></trkpt><trkpt lat="39.1482812" lon="21.0143631"><ele>33.0</ele><time>2026-05-02T13:03:22.75Z</time></trkpt><trkpt lat="39.1483852" lon="21.014156"><ele>33.0</ele><time>2026-05-02T13:03:23.749Z</time></trkpt><trkpt lat="39.1484889" lon="21.0139497"><ele>33.333333333333336</ele><time>2026-05-02T13:03:24.75Z</time></trkpt><trkpt lat="39.1485864" lon="21.0137451"><ele>33.66666666666667</ele><time>2026-05-02T13:03:25.75Z</time></trkpt><trkpt lat="39.1486893" lon="21.0135402"><ele>34.0</ele><time>2026-05-02T13:03:26.751Z</time></trkpt><trkpt lat="39.1487872" lon="21.0133344"><ele>34.0</ele><time>2026-05-02T13:03:27.749Z</time></trkpt><trkpt lat="39.1488842" lon="21.0131284"><ele>34.0</ele><time>2026-05-02T13:03:28.749Z</time></trkpt><trkpt lat="39.1489842" lon="21.0129183"><ele>34.0</ele><time>2026-05-02T13:03:29.751Z</time></trkpt><trkpt lat="39.1490852" lon="21.0127111"><ele>34.333333333333336</ele><time>2026-05-02T13:03:30.75Z</time></trkpt><trkpt lat="39.1491865" lon="21.0124996"><ele>34.666666666666664</ele><time>2026-05-02T13:03:31.75Z</time></trkpt><trkpt lat="39.1492913" lon="21.0122868"><ele>35.0</ele><time>2026-05-02T13:03:32.749Z</time></trkpt><trkpt lat="39.1493975" lon="21.0120734"><ele>35.0</ele><time>2026-05-02T13:03:33.75Z</time></trkpt><trkpt lat="39.1495046" lon="21.01186"><ele>35.0</ele><time>2026-05-02T13:03:34.751Z</time></trkpt><trkpt lat="39.1496132" lon="21.0116525"><ele>35.0</ele><time>2026-05-02T13:03:35.75Z</time></trkpt><trkpt lat="39.1497285" lon="21.0114441"><ele>34.666666666666664</ele><time>2026-05-02T13:03:36.751Z</time></trkpt><trkpt lat="39.1498461" lon="21.0112342"><ele>34.333333333333336</ele><time>2026-05-02T13:03:37.749Z</time></trkpt><trkpt lat="39.1499697" lon="21.0110267"><ele>34.0</ele><time>2026-05-02T13:03:38.75Z</time></trkpt><trkpt lat="39.1500878" lon="21.0108164"><ele>33.66666666666667</ele><time>2026-05-02T13:03:39.75Z</time></trkpt><trkpt lat="39.1502073" lon="21.0106017"><ele>33.333333333333336</ele><time>2026-05-02T13:03:40.75Z</time></trkpt><trkpt lat="39.1503261" lon="21.0103888"><ele>33.0</ele><time>2026-05-02T13:03:41.751Z</time></trkpt><trkpt lat="39.1504423" lon="21.0101791"><ele>32.666666666666664</ele><time>2026-05-02T13:03:42.749Z</time></trkpt><trkpt lat="39.1505639" lon="21.0099645"><ele>32.33333333333333</ele><time>2026-05-02T13:03:43.751Z</time></trkpt><trkpt lat="39.1506845" lon="21.0097499"><ele>32.0</ele><time>2026-05-02T13:03:44.749Z</time></trkpt><trkpt lat="39.1508065" lon="21.0095417"><ele>32.0</ele><time>2026-05-02T13:03:45.751Z</time></trkpt><trkpt lat="39.1509289" lon="21.0093322"><ele>32.0</ele><time>2026-05-02T13:03:46.75Z</time></trkpt><trkpt lat="39.1510494" lon="21.0091231"><ele>32.0</ele><time>2026-05-02T13:03:47.75Z</time></trkpt><trkpt lat="39.151172" lon="21.0089126"><ele>32.666666666666664</ele><time>2026-05-02T13:03:48.749Z</time></trkpt><trkpt lat="39.1512914" lon="21.0087039"><ele>33.333333333333336</ele><time>2026-05-02T13:03:49.75Z</time></trkpt><trkpt lat="39.1514095" lon="21.0084959"><ele>34.0</ele><time>2026-05-02T13:03:50.75Z</time></trkpt><trkpt lat="39.1515297" lon="21.0082877"><ele>33.66666666666667</ele><time>2026-05-02T13:03:51.75Z</time></trkpt><trkpt lat="39.1516473" lon="21.0080789"><ele>33.333333333333336</ele><time>2026-05-02T13:03:52.749Z</time></trkpt><trkpt lat="39.1517667" lon="21.0078691"><ele>33.0</ele><time>2026-05-02T13:03:53.75Z</time></trkpt><trkpt lat="39.1518841" lon="21.0076537"><ele>33.0</ele><time>2026-05-02T13:03:54.751Z</time></trkpt><trkpt lat="39.1520096" lon="21.0074464"><ele>33.0</ele><time>2026-05-02T13:03:55.749Z</time></trkpt><trkpt lat="39.1521339" lon="21.0072358"><ele>33.0</ele><time>2026-05-02T13:03:56.75Z</time></trkpt><trkpt lat="39.1522537" lon="21.0070256"><ele>33.0</ele><time>2026-05-02T13:03:57.749Z</time></trkpt><trkpt lat="39.1523708" lon="21.0068173"><ele>33.0</ele><time>2026-05-02T13:03:58.749Z</time></trkpt><trkpt lat="39.1524879" lon="21.0066083"><ele>33.0</ele><time>2026-05-02T13:03:59.75Z</time></trkpt><trkpt lat="39.1526076" lon="21.0063999"><ele>32.666666666666664</ele><time>2026-05-02T13:04:00.749Z</time></trkpt><trkpt lat="39.152727" lon="21.006196"><ele>32.33333333333333</ele><time>2026-05-02T13:04:01.75Z</time></trkpt><trkpt lat="39.1528451" lon="21.0059923"><ele>32.0</ele><time>2026-05-02T13:04:02.749Z</time></trkpt><trkpt lat="39.1529697" lon="21.0057924"><ele>31.666666666666664</ele><time>2026-05-02T13:04:03.75Z</time></trkpt><trkpt lat="39.1531007" lon="21.0056016"><ele>31.333333333333336</ele><time>2026-05-02T13:04:04.75Z</time></trkpt><trkpt lat="39.153246" lon="21.0054259"><ele>31.0</ele><time>2026-05-02T13:04:05.749Z</time></trkpt><trkpt lat="39.1533977" lon="21.0052532"><ele>30.666666666666668</ele><time>2026-05-02T13:04:06.75Z</time></trkpt><trkpt lat="39.1535529" lon="21.0050844"><ele>30.333333333333336</ele><time>2026-05-02T13:04:07.751Z</time></trkpt><trkpt lat="39.1537055" lon="21.0049145"><ele>30.0</ele><time>2026-05-02T13:04:08.749Z</time></trkpt><trkpt lat="39.1538558" lon="21.0047461"><ele>30.0</ele><time>2026-05-02T13:04:09.749Z</time></trkpt><trkpt lat="39.1540087" lon="21.0045744"><ele>30.0</ele><time>2026-05-02T13:04:10.751Z</time></trkpt><trkpt lat="39.1541588" lon="21.0044078"><ele>30.0</ele><time>2026-05-02T13:04:11.75Z</time></trkpt><trkpt lat="39.1543064" lon="21.0042388"><ele>29.333333333333336</ele><time>2026-05-02T13:04:12.751Z</time></trkpt><trkpt lat="39.1544502" lon="21.0040767"><ele>28.666666666666668</ele><time>2026-05-02T13:04:13.749Z</time></trkpt><trkpt lat="39.1545852" lon="21.003924"><ele>28.0</ele><time>2026-05-02T13:04:14.751Z</time></trkpt><trkpt lat="39.1547138" lon="21.0037783"><ele>28.0</ele><time>2026-05-02T13:04:15.75Z</time></trkpt><trkpt lat="39.154833" lon="21.0036484"><ele>28.0</ele><time>2026-05-02T13:04:16.751Z</time></trkpt><trkpt lat="39.1549344" lon="21.0035345"><ele>28.0</ele><time>2026-05-02T13:04:17.749Z</time></trkpt><trkpt lat="39.1550267" lon="21.0034387"><ele>28.0</ele><time>2026-05-02T13:04:18.75Z</time></trkpt><trkpt lat="39.1551219" lon="21.0033543"><ele>28.4</ele><time>2026-05-02T13:04:19.75Z</time></trkpt><trkpt lat="39.1552209" lon="21.0032864"><ele>28.799999999999997</ele><time>2026-05-02T13:04:20.75Z</time></trkpt><trkpt lat="39.1553152" lon="21.0032211"><ele>29.2</ele><time>2026-05-02T13:04:21.749Z</time></trkpt><trkpt lat="39.1554002" lon="21.0031485"><ele>29.6</ele><time>2026-05-02T13:04:22.749Z</time></trkpt><trkpt lat="39.1554663" lon="21.0030368"><ele>30.0</ele><time>2026-05-02T13:04:23.75Z</time></trkpt><trkpt lat="39.155518" lon="21.0029091"><ele>30.0</ele><time>2026-05-02T13:04:24.749Z</time></trkpt><trkpt lat="39.1555722" lon="21.0027747"><ele>30.0</ele><time>2026-05-02T13:04:25.75Z</time></trkpt><trkpt lat="39.1556273" lon="21.0026338"><ele>30.0</ele><time>2026-05-02T13:04:26.749Z</time></trkpt><trkpt lat="39.1556915" lon="21.0024915"><ele>30.0</ele><time>2026-05-02T13:04:27.749Z</time></trkpt><trkpt lat="39.1557604" lon="21.0023475"><ele>30.0</ele><time>2026-05-02T13:04:28.751Z</time></trkpt><trkpt lat="39.1558322" lon="21.0021996"><ele>30.0</ele><time>2026-05-02T13:04:29.75Z</time></trkpt><trkpt lat="39.155905" lon="21.0020491"><ele>30.0</ele><time>2026-05-02T13:04:30.75Z</time></trkpt><trkpt lat="39.1559773" lon="21.001895"><ele>30.0</ele><time>2026-05-02T13:04:31.75Z</time></trkpt><trkpt lat="39.1560423" lon="21.0017432"><ele>30.0</ele><time>2026-05-02T13:04:32.75Z</time></trkpt><trkpt lat="39.1560963" lon="21.0015914"><ele>30.0</ele><time>2026-05-02T13:04:33.751Z</time></trkpt><trkpt lat="39.1561408" lon="21.0014489"><ele>30.0</ele><time>2026-05-02T13:04:34.75Z</time></trkpt><trkpt lat="39.1561814" lon="21.0013119"><ele>30.0</ele><time>2026-05-02T13:04:35.751Z</time></trkpt><trkpt lat="39.1562171" lon="21.0011871"><ele>30.0</ele><time>2026-05-02T13:04:36.749Z</time></trkpt><trkpt lat="39.15625" lon="21.0010719"><ele>30.0</ele><time>2026-05-02T13:04:37.75Z</time></trkpt><trkpt lat="39.1562766" lon="21.0009801"><ele>30.0</ele><time>2026-05-02T13:04:38.75Z</time></trkpt><trkpt lat="39.1562921" lon="21.0008996"><ele>30.0</ele><time>2026-05-02T13:04:39.75Z</time></trkpt><trkpt lat="39.1563175" lon="21.0008024"><ele>30.0</ele><time>2026-05-02T13:04:41.75Z</time></trkpt><trkpt lat="39.1563606" lon="21.0006749"><ele>30.0</ele><time>2026-05-02T13:05:05.749Z</time></trkpt><trkpt lat="39.1563859" lon="21.0005892"><ele>30.333333333333332</ele><time>2026-05-02T13:05:06.749Z</time></trkpt><trkpt lat="39.1564094" lon="21.000503"><ele>30.666666666666664</ele><time>2026-05-02T13:05:07.748Z</time></trkpt><trkpt lat="39.1564386" lon="21.0004082"><ele>31.0</ele><time>2026-05-02T13:05:08.749Z</time></trkpt><trkpt lat="39.1564703" lon="21.0002967"><ele>31.333333333333332</ele><time>2026-05-02T13:05:09.75Z</time></trkpt><trkpt lat="39.1565049" lon="21.0001754"><ele>31.666666666666664</ele><time>2026-05-02T13:05:10.75Z</time></trkpt><trkpt lat="39.1565381" lon="21.0000597"><ele>32.0</ele><time>2026-05-02T13:05:11.749Z</time></trkpt><trkpt lat="39.1565708" lon="20.9999377"><ele>32.0</ele><time>2026-05-02T13:05:12.749Z</time></trkpt><trkpt lat="39.1566085" lon="20.9998108"><ele>32.0</ele><time>2026-05-02T13:05:13.749Z</time></trkpt><trkpt lat="39.1566423" lon="20.9996794"><ele>32.0</ele><time>2026-05-02T13:05:14.749Z</time></trkpt><trkpt lat="39.156673" lon="20.9995412"><ele>32.0</ele><time>2026-05-02T13:05:15.749Z</time></trkpt><trkpt lat="39.1567032" lon="20.9993951"><ele>32.0</ele><time>2026-05-02T13:05:16.748Z</time></trkpt><trkpt lat="39.1567331" lon="20.999243"><ele>32.0</ele><time>2026-05-02T13:05:17.731Z</time></trkpt><trkpt lat="39.1567644" lon="20.999073"><ele>32.0</ele><time>2026-05-02T13:05:18.727Z</time></trkpt><trkpt lat="39.1567899" lon="20.99892"><ele>32.0</ele><time>2026-05-02T13:05:19.729Z</time></trkpt><trkpt lat="39.1568194" lon="20.9987585"><ele>32.0</ele><time>2026-05-02T13:05:20.728Z</time></trkpt><trkpt lat="39.1568482" lon="20.998594"><ele>32.0</ele><time>2026-05-02T13:05:21.728Z</time></trkpt><trkpt lat="39.1568764" lon="20.9984262"><ele>32.0</ele><time>2026-05-02T13:05:22.73Z</time></trkpt><trkpt lat="39.1569049" lon="20.9982558"><ele>32.0</ele><time>2026-05-02T13:05:23.729Z</time></trkpt><trkpt lat="39.1569331" lon="20.9980856"><ele>32.0</ele><time>2026-05-02T13:05:24.729Z</time></trkpt><trkpt lat="39.1569646" lon="20.9979162"><ele>32.0</ele><time>2026-05-02T13:05:25.73Z</time></trkpt><trkpt lat="39.1569972" lon="20.9977372"><ele>32.0</ele><time>2026-05-02T13:05:26.729Z</time></trkpt><trkpt lat="39.1570255" lon="20.9975813"><ele>32.0</ele><time>2026-05-02T13:05:27.73Z</time></trkpt><trkpt lat="39.1570596" lon="20.9974158"><ele>32.0</ele><time>2026-05-02T13:05:28.73Z</time></trkpt><trkpt lat="39.1570991" lon="20.9972419"><ele>32.0</ele><time>2026-05-02T13:05:29.729Z</time></trkpt><trkpt lat="39.1571376" lon="20.9970941"><ele>32.0</ele><time>2026-05-02T13:05:30.729Z</time></trkpt><trkpt lat="39.157186" lon="20.9969444"><ele>32.0</ele><time>2026-05-02T13:05:31.729Z</time></trkpt><trkpt lat="39.1572428" lon="20.9968025"><ele>32.0</ele><time>2026-05-02T13:05:32.73Z</time></trkpt><trkpt lat="39.1573072" lon="20.9966683"><ele>32.0</ele><time>2026-05-02T13:05:33.729Z</time></trkpt><trkpt lat="39.1573822" lon="20.9965335"><ele>32.0</ele><time>2026-05-02T13:05:34.73Z</time></trkpt><trkpt lat="39.157452" lon="20.9964214"><ele>32.0</ele><time>2026-05-02T13:05:35.729Z</time></trkpt><trkpt lat="39.1575327" lon="20.9963106"><ele>32.0</ele><time>2026-05-02T13:05:36.73Z</time></trkpt><trkpt lat="39.1576195" lon="20.9962085"><ele>32.0</ele><time>2026-05-02T13:05:37.729Z</time></trkpt><trkpt lat="39.1577112" lon="20.9961141"><ele>32.0</ele><time>2026-05-02T13:05:38.729Z</time></trkpt><trkpt lat="39.1578064" lon="20.9960285"><ele>32.0</ele><time>2026-05-02T13:05:39.73Z</time></trkpt><trkpt lat="39.1579008" lon="20.9959529"><ele>32.0</ele><time>2026-05-02T13:05:40.73Z</time></trkpt><trkpt lat="39.1579921" lon="20.9958864"><ele>32.0</ele><time>2026-05-02T13:05:41.73Z</time></trkpt><trkpt lat="39.1580878" lon="20.995821"><ele>32.0</ele><time>2026-05-02T13:05:42.73Z</time></trkpt><trkpt lat="39.1581725" lon="20.9957687"><ele>32.0</ele><time>2026-05-02T13:05:43.729Z</time></trkpt><trkpt lat="39.1582611" lon="20.9957204"><ele>32.0</ele><time>2026-05-02T13:05:44.73Z</time></trkpt><trkpt lat="39.1583537" lon="20.99568"><ele>32.0</ele><time>2026-05-02T13:05:45.73Z</time></trkpt><trkpt lat="39.1584316" lon="20.9956506"><ele>32.0</ele><time>2026-05-02T13:05:46.729Z</time></trkpt><trkpt lat="39.1585125" lon="20.995624"><ele>31.999999999999996</ele><time>2026-05-02T13:05:47.73Z</time></trkpt><trkpt lat="39.1585865" lon="20.9956"><ele>32.0</ele><time>2026-05-02T13:05:48.73Z</time></trkpt><trkpt lat="39.1586519" lon="20.9955783"><ele>32.0</ele><time>2026-05-02T13:05:49.73Z</time></trkpt><trkpt lat="39.1587144" lon="20.9955576"><ele>32.0</ele><time>2026-05-02T13:05:50.729Z</time></trkpt><trkpt lat="39.1588325" lon="20.995517"><ele>31.999999999999996</ele><time>2026-05-02T13:05:52.73Z</time></trkpt><trkpt lat="39.1589033" lon="20.9954937"><ele>32.0</ele><time>2026-05-02T13:05:53.729Z</time></trkpt><trkpt lat="39.158982" lon="20.9954694"><ele>31.8</ele><time>2026-05-02T13:05:54.73Z</time></trkpt><trkpt lat="39.1590672" lon="20.9954432"><ele>31.6</ele><time>2026-05-02T13:05:55.73Z</time></trkpt><trkpt lat="39.1591577" lon="20.9954164"><ele>31.400000000000002</ele><time>2026-05-02T13:05:56.73Z</time></trkpt><trkpt lat="39.159251" lon="20.9953877"><ele>31.200000000000003</ele><time>2026-05-02T13:05:57.73Z</time></trkpt><trkpt lat="39.1593516" lon="20.9953559"><ele>31.0</ele><time>2026-05-02T13:05:58.73Z</time></trkpt><trkpt lat="39.1594393" lon="20.9953268"><ele>31.0</ele><time>2026-05-02T13:05:59.73Z</time></trkpt><trkpt lat="39.1595322" lon="20.9952956"><ele>31.0</ele><time>2026-05-02T13:06:00.729Z</time></trkpt><trkpt lat="39.1596289" lon="20.9952631"><ele>31.0</ele><time>2026-05-02T13:06:01.73Z</time></trkpt><trkpt lat="39.1597143" lon="20.9952341"><ele>31.0</ele><time>2026-05-02T13:06:02.73Z</time></trkpt><trkpt lat="39.1598075" lon="20.9952037"><ele>31.0</ele><time>2026-05-02T13:06:03.73Z</time></trkpt><trkpt lat="39.1599019" lon="20.9951728"><ele>31.200000000000003</ele><time>2026-05-02T13:06:04.73Z</time></trkpt><trkpt lat="39.1599947" lon="20.9951387"><ele>31.400000000000002</ele><time>2026-05-02T13:06:05.729Z</time></trkpt><trkpt lat="39.1600928" lon="20.9950977"><ele>31.6</ele><time>2026-05-02T13:06:06.73Z</time></trkpt><trkpt lat="39.1601799" lon="20.9950538"><ele>31.8</ele><time>2026-05-02T13:06:07.73Z</time></trkpt><trkpt lat="39.1602724" lon="20.994998"><ele>32.0</ele><time>2026-05-02T13:06:08.73Z</time></trkpt><trkpt lat="39.160363" lon="20.994933"><ele>32.2</ele><time>2026-05-02T13:06:09.73Z</time></trkpt><trkpt lat="39.1604538" lon="20.9948598"><ele>32.400000000000006</ele><time>2026-05-02T13:06:10.73Z</time></trkpt><trkpt lat="39.1605459" lon="20.9947821"><ele>32.599999999999994</ele><time>2026-05-02T13:06:11.729Z</time></trkpt><trkpt lat="39.1606392" lon="20.994699"><ele>32.8</ele><time>2026-05-02T13:06:12.73Z</time></trkpt><trkpt lat="39.1607324" lon="20.9946115"><ele>33.0</ele><time>2026-05-02T13:06:13.73Z</time></trkpt><trkpt lat="39.1608318" lon="20.9945163"><ele>33.0</ele><time>2026-05-02T13:06:14.729Z</time></trkpt><trkpt lat="39.1609176" lon="20.9944334"><ele>33.0</ele><time>2026-05-02T13:06:15.73Z</time></trkpt><trkpt lat="39.1610083" lon="20.9943447"><ele>33.0</ele><time>2026-05-02T13:06:16.73Z</time></trkpt><trkpt lat="39.1611066" lon="20.9942494"><ele>33.0</ele><time>2026-05-02T13:06:17.73Z</time></trkpt><trkpt lat="39.1611936" lon="20.9941658"><ele>32.8</ele><time>2026-05-02T13:06:18.73Z</time></trkpt><trkpt lat="39.1612862" lon="20.994077"><ele>32.599999999999994</ele><time>2026-05-02T13:06:19.729Z</time></trkpt><trkpt lat="39.1613747" lon="20.9939931"><ele>32.400000000000006</ele><time>2026-05-02T13:06:20.729Z</time></trkpt><trkpt lat="39.1614589" lon="20.9939129"><ele>32.2</ele><time>2026-05-02T13:06:21.73Z</time></trkpt><trkpt lat="39.1615451" lon="20.9938317"><ele>32.0</ele><time>2026-05-02T13:06:22.73Z</time></trkpt><trkpt lat="39.161619" lon="20.9937649"><ele>31.999999999999996</ele><time>2026-05-02T13:06:23.729Z</time></trkpt><trkpt lat="39.161695" lon="20.993702"><ele>32.0</ele><time>2026-05-02T13:06:24.729Z</time></trkpt><trkpt lat="39.1617677" lon="20.9936471"><ele>32.0</ele><time>2026-05-02T13:06:25.729Z</time></trkpt><trkpt lat="39.1618359" lon="20.9935987"><ele>32.0</ele><time>2026-05-02T13:06:26.73Z</time></trkpt><trkpt lat="39.1618974" lon="20.9935555"><ele>31.999999999999996</ele><time>2026-05-02T13:06:27.73Z</time></trkpt><trkpt lat="39.1619897" lon="20.9935003"><ele>32.0</ele><time>2026-05-02T13:06:29.73Z</time></trkpt><trkpt lat="39.162059" lon="20.9934795"><ele>32.0</ele><time>2026-05-02T13:06:31.729Z</time></trkpt><trkpt lat="39.1621475" lon="20.993471"><ele>32.0</ele><time>2026-05-02T13:06:33.73Z</time></trkpt><trkpt lat="39.1622466" lon="20.9934065"><ele>32.0</ele><time>2026-05-02T13:06:35.73Z</time></trkpt><trkpt lat="39.1623061" lon="20.9932747"><ele>32.0</ele><time>2026-05-02T13:06:37.73Z</time></trkpt><trkpt lat="39.1623339" lon="20.993192"><ele>32.0</ele><time>2026-05-02T13:06:38.729Z</time></trkpt><trkpt lat="39.1623706" lon="20.9931148"><ele>31.200000000000003</ele><time>2026-05-02T13:06:39.73Z</time></trkpt><trkpt lat="39.1624232" lon="20.9930307"><ele>30.400000000000002</ele><time>2026-05-02T13:06:40.73Z</time></trkpt><trkpt lat="39.1624866" lon="20.9929478"><ele>29.599999999999998</ele><time>2026-05-02T13:06:41.73Z</time></trkpt><trkpt lat="39.1625567" lon="20.9928639"><ele>28.799999999999997</ele><time>2026-05-02T13:06:42.73Z</time></trkpt><trkpt lat="39.162629" lon="20.9927791"><ele>28.0</ele><time>2026-05-02T13:06:43.73Z</time></trkpt><trkpt lat="39.1627014" lon="20.9926969"><ele>28.0</ele><time>2026-05-02T13:06:44.729Z</time></trkpt><trkpt lat="39.1627771" lon="20.9926141"><ele>27.999999999999996</ele><time>2026-05-02T13:06:45.729Z</time></trkpt><trkpt lat="39.1628629" lon="20.9925231"><ele>27.999999999999996</ele><time>2026-05-02T13:06:46.73Z</time></trkpt><trkpt lat="39.1629363" lon="20.9924453"><ele>28.0</ele><time>2026-05-02T13:06:47.73Z</time></trkpt><trkpt lat="39.1630103" lon="20.9923656"><ele>28.0</ele><time>2026-05-02T13:06:48.73Z</time></trkpt><trkpt lat="39.1630886" lon="20.992281"><ele>27.599999999999998</ele><time>2026-05-02T13:06:49.729Z</time></trkpt><trkpt lat="39.1631599" lon="20.9922062"><ele>27.199999999999996</ele><time>2026-05-02T13:06:50.729Z</time></trkpt><trkpt lat="39.1632382" lon="20.9921252"><ele>26.8</ele><time>2026-05-02T13:06:51.729Z</time></trkpt><trkpt lat="39.1633172" lon="20.9920437"><ele>26.4</ele><time>2026-05-02T13:06:52.729Z</time></trkpt><trkpt lat="39.1633935" lon="20.9919655"><ele>26.0</ele><time>2026-05-02T13:06:53.729Z</time></trkpt><trkpt lat="39.1634745" lon="20.9918826"><ele>26.0</ele><time>2026-05-02T13:06:54.73Z</time></trkpt><trkpt lat="39.1635463" lon="20.9918092"><ele>26.0</ele><time>2026-05-02T13:06:55.729Z</time></trkpt><trkpt lat="39.1636241" lon="20.9917303"><ele>26.0</ele><time>2026-05-02T13:06:56.729Z</time></trkpt><trkpt lat="39.1637035" lon="20.9916482"><ele>26.0</ele><time>2026-05-02T13:06:57.73Z</time></trkpt><trkpt lat="39.1637846" lon="20.9915632"><ele>26.0</ele><time>2026-05-02T13:06:58.73Z</time></trkpt><trkpt lat="39.1638686" lon="20.9914757"><ele>26.0</ele><time>2026-05-02T13:06:59.729Z</time></trkpt><trkpt lat="39.1639521" lon="20.9913883"><ele>26.0</ele><time>2026-05-02T13:07:00.73Z</time></trkpt><trkpt lat="39.1640346" lon="20.9913017"><ele>26.0</ele><time>2026-05-02T13:07:01.73Z</time></trkpt><trkpt lat="39.1641205" lon="20.9912101"><ele>26.0</ele><time>2026-05-02T13:07:02.729Z</time></trkpt><trkpt lat="39.1641976" lon="20.9911285"><ele>26.0</ele><time>2026-05-02T13:07:03.729Z</time></trkpt><trkpt lat="39.1642829" lon="20.9910389"><ele>26.0</ele><time>2026-05-02T13:07:04.73Z</time></trkpt><trkpt lat="39.164377" lon="20.9909407"><ele>26.0</ele><time>2026-05-02T13:07:05.73Z</time></trkpt><trkpt lat="39.1644633" lon="20.9908503"><ele>26.0</ele><time>2026-05-02T13:07:06.729Z</time></trkpt><trkpt lat="39.1645608" lon="20.9907463"><ele>26.0</ele><time>2026-05-02T13:07:07.729Z</time></trkpt><trkpt lat="39.164664" lon="20.9906367"><ele>25.75</ele><time>2026-05-02T13:07:08.729Z</time></trkpt><trkpt lat="39.1647705" lon="20.9905241"><ele>25.5</ele><time>2026-05-02T13:07:09.73Z</time></trkpt><trkpt lat="39.1648833" lon="20.9904054"><ele>25.25</ele><time>2026-05-02T13:07:10.73Z</time></trkpt><trkpt lat="39.1649851" lon="20.990299"><ele>25.0</ele><time>2026-05-02T13:07:11.73Z</time></trkpt><trkpt lat="39.1650966" lon="20.9901826"><ele>25.0</ele><time>2026-05-02T13:07:12.729Z</time></trkpt><trkpt lat="39.1652105" lon="20.9900633"><ele>25.0</ele><time>2026-05-02T13:07:13.729Z</time></trkpt><trkpt lat="39.1653261" lon="20.9899424"><ele>25.0</ele><time>2026-05-02T13:07:14.73Z</time></trkpt><trkpt lat="39.1654424" lon="20.9898199"><ele>25.0</ele><time>2026-05-02T13:07:15.73Z</time></trkpt><trkpt lat="39.165559" lon="20.9896982"><ele>25.25</ele><time>2026-05-02T13:07:16.73Z</time></trkpt><trkpt lat="39.1656743" lon="20.9895775"><ele>25.5</ele><time>2026-05-02T13:07:17.73Z</time></trkpt><trkpt lat="39.1657965" lon="20.9894494"><ele>25.75</ele><time>2026-05-02T13:07:18.73Z</time></trkpt><trkpt lat="39.1659025" lon="20.9893383"><ele>26.0</ele><time>2026-05-02T13:07:19.73Z</time></trkpt><trkpt lat="39.166014" lon="20.9892221"><ele>27.75</ele><time>2026-05-02T13:07:20.73Z</time></trkpt><trkpt lat="39.166131" lon="20.9890984"><ele>29.5</ele><time>2026-05-02T13:07:21.73Z</time></trkpt><trkpt lat="39.1662333" lon="20.9889902"><ele>31.25</ele><time>2026-05-02T13:07:22.73Z</time></trkpt><trkpt lat="39.1663408" lon="20.9888745"><ele>33.0</ele><time>2026-05-02T13:07:23.73Z</time></trkpt><trkpt lat="39.1664463" lon="20.9887587"><ele>32.25</ele><time>2026-05-02T13:07:24.73Z</time></trkpt><trkpt lat="39.1665512" lon="20.9886441"><ele>31.5</ele><time>2026-05-02T13:07:25.73Z</time></trkpt><trkpt lat="39.1666601" lon="20.9885166"><ele>30.75</ele><time>2026-05-02T13:07:26.73Z</time></trkpt><trkpt lat="39.1667514" lon="20.9883989"><ele>30.0</ele><time>2026-05-02T13:07:27.73Z</time></trkpt><trkpt lat="39.1668399" lon="20.9882612"><ele>30.0</ele><time>2026-05-02T13:07:28.729Z</time></trkpt><trkpt lat="39.1669173" lon="20.9881127"><ele>30.0</ele><time>2026-05-02T13:07:29.729Z</time></trkpt><trkpt lat="39.1669814" lon="20.9879544"><ele>30.0</ele><time>2026-05-02T13:07:30.73Z</time></trkpt><trkpt lat="39.1670323" lon="20.9877888"><ele>30.0</ele><time>2026-05-02T13:07:31.73Z</time></trkpt><trkpt lat="39.1670726" lon="20.9876195"><ele>30.25</ele><time>2026-05-02T13:07:32.73Z</time></trkpt><trkpt lat="39.1671018" lon="20.9874482"><ele>30.5</ele><time>2026-05-02T13:07:33.729Z</time></trkpt><trkpt lat="39.1671183" lon="20.9872666"><ele>30.75</ele><time>2026-05-02T13:07:34.73Z</time></trkpt><trkpt lat="39.1671159" lon="20.9871085"><ele>31.0</ele><time>2026-05-02T13:07:35.73Z</time></trkpt><trkpt lat="39.1670989" lon="20.9869382"><ele>31.0</ele><time>2026-05-02T13:07:36.73Z</time></trkpt><trkpt lat="39.1670662" lon="20.9867542"><ele>31.0</ele><time>2026-05-02T13:07:37.73Z</time></trkpt><trkpt lat="39.1670269" lon="20.9865935"><ele>31.0</ele><time>2026-05-02T13:07:38.73Z</time></trkpt><trkpt lat="39.166976" lon="20.9864292"><ele>31.0</ele><time>2026-05-02T13:07:39.729Z</time></trkpt><trkpt lat="39.1669181" lon="20.9862727"><ele>30.25</ele><time>2026-05-02T13:07:40.729Z</time></trkpt><trkpt lat="39.1668521" lon="20.9861184"><ele>29.5</ele><time>2026-05-02T13:07:41.729Z</time></trkpt><trkpt lat="39.1667764" lon="20.9859539"><ele>28.75</ele><time>2026-05-02T13:07:42.73Z</time></trkpt><trkpt lat="39.1667065" lon="20.9858093"><ele>28.0</ele><time>2026-05-02T13:07:43.729Z</time></trkpt><trkpt lat="39.1666318" lon="20.9856554"><ele>27.75</ele><time>2026-05-02T13:07:44.73Z</time></trkpt><trkpt lat="39.1665569" lon="20.9854996"><ele>27.5</ele><time>2026-05-02T13:07:45.729Z</time></trkpt><trkpt lat="39.1664815" lon="20.9853418"><ele>27.25</ele><time>2026-05-02T13:07:46.729Z</time></trkpt><trkpt lat="39.1664059" lon="20.9851818"><ele>27.0</ele><time>2026-05-02T13:07:47.73Z</time></trkpt><trkpt lat="39.1663291" lon="20.9850191"><ele>27.0</ele><time>2026-05-02T13:07:48.729Z</time></trkpt><trkpt lat="39.166252" lon="20.9848569"><ele>27.0</ele><time>2026-05-02T13:07:49.73Z</time></trkpt><trkpt lat="39.1661741" lon="20.9846929"><ele>27.0</ele><time>2026-05-02T13:07:50.73Z</time></trkpt><trkpt lat="39.1660994" lon="20.984532"><ele>27.0</ele><time>2026-05-02T13:07:51.73Z</time></trkpt><trkpt lat="39.1660279" lon="20.9843756"><ele>27.0</ele><time>2026-05-02T13:07:52.729Z</time></trkpt><trkpt lat="39.1659561" lon="20.984217"><ele>27.0</ele><time>2026-05-02T13:07:53.729Z</time></trkpt><trkpt lat="39.1658965" lon="20.9840846"><ele>27.0</ele><time>2026-05-02T13:07:54.73Z</time></trkpt><trkpt lat="39.1658347" lon="20.9839499"><ele>27.0</ele><time>2026-05-02T13:07:55.729Z</time></trkpt><trkpt lat="39.1657742" lon="20.9838187"><ele>27.0</ele><time>2026-05-02T13:07:56.729Z</time></trkpt><trkpt lat="39.165717" lon="20.9836896"><ele>27.000000000000004</ele><time>2026-05-02T13:07:57.729Z</time></trkpt><trkpt lat="39.1656594" lon="20.9835566"><ele>27.000000000000004</ele><time>2026-05-02T13:07:58.729Z</time></trkpt><trkpt lat="39.1656098" lon="20.9834397"><ele>27.0</ele><time>2026-05-02T13:07:59.729Z</time></trkpt><trkpt lat="39.1655589" lon="20.9833227"><ele>27.0</ele><time>2026-05-02T13:08:00.729Z</time></trkpt><trkpt lat="39.1655096" lon="20.9832117"><ele>27.0</ele><time>2026-05-02T13:08:01.73Z</time></trkpt><trkpt lat="39.1654628" lon="20.9831069"><ele>27.0</ele><time>2026-05-02T13:08:02.73Z</time></trkpt><trkpt lat="39.1654185" lon="20.9830105"><ele>27.0</ele><time>2026-05-02T13:08:03.73Z</time></trkpt><trkpt lat="39.1653787" lon="20.9829264"><ele>27.0</ele><time>2026-05-02T13:08:04.729Z</time></trkpt><trkpt lat="39.1653438" lon="20.9828542"><ele>27.0</ele><time>2026-05-02T13:08:05.729Z</time></trkpt><trkpt lat="39.1652858" lon="20.9827407"><ele>27.0</ele><time>2026-05-02T13:08:07.729Z</time></trkpt><trkpt lat="39.1652497" lon="20.9826611"><ele>27.0</ele><time>2026-05-02T13:08:09.73Z</time></trkpt><trkpt lat="39.1652017" lon="20.9825656"><ele>27.0</ele><time>2026-05-02T13:08:24.729Z</time></trkpt><trkpt lat="39.1651431" lon="20.9824535"><ele>27.0</ele><time>2026-05-02T13:08:26.729Z</time></trkpt><trkpt lat="39.1650958" lon="20.9823787"><ele>27.0</ele><time>2026-05-02T13:08:27.73Z</time></trkpt><trkpt lat="39.1650433" lon="20.9823022"><ele>27.0</ele><time>2026-05-02T13:08:28.729Z</time></trkpt><trkpt lat="39.1649835" lon="20.9822236"><ele>27.0</ele><time>2026-05-02T13:08:29.729Z</time></trkpt><trkpt lat="39.1649113" lon="20.9821397"><ele>27.0</ele><time>2026-05-02T13:08:30.729Z</time></trkpt><trkpt lat="39.1648394" lon="20.9820669"><ele>27.000000000000004</ele><time>2026-05-02T13:08:31.73Z</time></trkpt><trkpt lat="39.1647528" lon="20.9819879"><ele>27.000000000000004</ele><time>2026-05-02T13:08:32.729Z</time></trkpt><trkpt lat="39.1646631" lon="20.981913"><ele>27.0</ele><time>2026-05-02T13:08:33.729Z</time></trkpt><trkpt lat="39.1645682" lon="20.9818396"><ele>27.0</ele><time>2026-05-02T13:08:34.729Z</time></trkpt><trkpt lat="39.164467" lon="20.981771"><ele>27.0</ele><time>2026-05-02T13:08:35.729Z</time></trkpt><trkpt lat="39.1643566" lon="20.9817094"><ele>27.0</ele><time>2026-05-02T13:08:36.73Z</time></trkpt><trkpt lat="39.1642364" lon="20.981655"><ele>27.0</ele><time>2026-05-02T13:08:37.729Z</time></trkpt><trkpt lat="39.1640978" lon="20.9816056"><ele>27.0</ele><time>2026-05-02T13:08:38.729Z</time></trkpt><trkpt lat="39.1639696" lon="20.9815673"><ele>27.0</ele><time>2026-05-02T13:08:39.73Z</time></trkpt><trkpt lat="39.1638324" lon="20.9815297"><ele>27.0</ele><time>2026-05-02T13:08:40.729Z</time></trkpt><trkpt lat="39.1636869" lon="20.9814912"><ele>27.0</ele><time>2026-05-02T13:08:41.73Z</time></trkpt><trkpt lat="39.163559" lon="20.9814577"><ele>27.0</ele><time>2026-05-02T13:08:42.73Z</time></trkpt><trkpt lat="39.1634264" lon="20.9814247"><ele>27.0</ele><time>2026-05-02T13:08:43.729Z</time></trkpt><trkpt lat="39.1633" lon="20.981392"><ele>27.0</ele><time>2026-05-02T13:08:44.729Z</time></trkpt><trkpt lat="39.1631788" lon="20.9813604"><ele>27.0</ele><time>2026-05-02T13:08:45.729Z</time></trkpt><trkpt lat="39.1630539" lon="20.9813298"><ele>27.0</ele><time>2026-05-02T13:08:46.73Z</time></trkpt><trkpt lat="39.1629479" lon="20.9813038"><ele>27.0</ele><time>2026-05-02T13:08:47.73Z</time></trkpt><trkpt lat="39.1628351" lon="20.9812764"><ele>27.0</ele><time>2026-05-02T13:08:48.73Z</time></trkpt><trkpt lat="39.16272" lon="20.9812476"><ele>27.0</ele><time>2026-05-02T13:08:49.73Z</time></trkpt><trkpt lat="39.1626013" lon="20.9812155"><ele>27.0</ele><time>2026-05-02T13:08:50.73Z</time></trkpt><trkpt lat="39.162481" lon="20.9811774"><ele>27.25</ele><time>2026-05-02T13:08:51.729Z</time></trkpt><trkpt lat="39.1623602" lon="20.9811356"><ele>27.5</ele><time>2026-05-02T13:08:52.729Z</time></trkpt><trkpt lat="39.1622387" lon="20.9810892"><ele>27.75</ele><time>2026-05-02T13:08:53.729Z</time></trkpt><trkpt lat="39.1621101" lon="20.9810384"><ele>28.0</ele><time>2026-05-02T13:08:54.729Z</time></trkpt><trkpt lat="39.1619979" lon="20.9809953"><ele>28.0</ele><time>2026-05-02T13:08:55.729Z</time></trkpt><trkpt lat="39.161874" lon="20.9809469"><ele>28.0</ele><time>2026-05-02T13:08:56.73Z</time></trkpt><trkpt lat="39.1617546" lon="20.9808999"><ele>28.0</ele><time>2026-05-02T13:08:57.729Z</time></trkpt><trkpt lat="39.1616428" lon="20.9808555"><ele>28.0</ele><time>2026-05-02T13:08:58.729Z</time></trkpt><trkpt lat="39.1615148" lon="20.9808058"><ele>27.25</ele><time>2026-05-02T13:08:59.729Z</time></trkpt><trkpt lat="39.1614005" lon="20.9807634"><ele>26.5</ele><time>2026-05-02T13:09:00.73Z</time></trkpt><trkpt lat="39.16127" lon="20.9807131"><ele>25.75</ele><time>2026-05-02T13:09:01.73Z</time></trkpt><trkpt lat="39.1611453" lon="20.9806664"><ele>25.0</ele><time>2026-05-02T13:09:02.73Z</time></trkpt><trkpt lat="39.1610299" lon="20.9806233"><ele>25.0</ele><time>2026-05-02T13:09:03.73Z</time></trkpt><trkpt lat="39.1609049" lon="20.9805786"><ele>25.0</ele><time>2026-05-02T13:09:04.729Z</time></trkpt><trkpt lat="39.160798" lon="20.9805402"><ele>25.0</ele><time>2026-05-02T13:09:05.73Z</time></trkpt><trkpt lat="39.1606881" lon="20.9805048"><ele>25.0</ele><time>2026-05-02T13:09:06.729Z</time></trkpt><trkpt lat="39.1605835" lon="20.9804677"><ele>25.000000000000004</ele><time>2026-05-02T13:09:07.73Z</time></trkpt><trkpt lat="39.1605082" lon="20.9804235"><ele>25.0</ele><time>2026-05-02T13:09:08.729Z</time></trkpt><trkpt lat="39.1604392" lon="20.9803542"><ele>25.0</ele><time>2026-05-02T13:09:09.73Z</time></trkpt><trkpt lat="39.1603825" lon="20.980292"><ele>25.0</ele><time>2026-05-02T13:09:10.729Z</time></trkpt><trkpt lat="39.1603249" lon="20.9802474"><ele>25.000000000000004</ele><time>2026-05-02T13:09:11.729Z</time></trkpt><trkpt lat="39.1602484" lon="20.9802307"><ele>25.0</ele><time>2026-05-02T13:09:12.729Z</time></trkpt><trkpt lat="39.1601619" lon="20.9802376"><ele>25.0</ele><time>2026-05-02T13:09:13.73Z</time></trkpt><trkpt lat="39.1600731" lon="20.9802446"><ele>25.0</ele><time>2026-05-02T13:09:14.73Z</time></trkpt><trkpt lat="39.159969" lon="20.9802421"><ele>25.0</ele><time>2026-05-02T13:09:15.73Z</time></trkpt><trkpt lat="39.1598724" lon="20.980224"><ele>25.0</ele><time>2026-05-02T13:09:16.73Z</time></trkpt><trkpt lat="39.1597567" lon="20.9801839"><ele>25.0</ele><time>2026-05-02T13:09:17.729Z</time></trkpt><trkpt lat="39.1596429" lon="20.9801379"><ele>25.25</ele><time>2026-05-02T13:09:18.73Z</time></trkpt><trkpt lat="39.1595314" lon="20.9800941"><ele>25.5</ele><time>2026-05-02T13:09:19.729Z</time></trkpt><trkpt lat="39.1594008" lon="20.9800454"><ele>25.75</ele><time>2026-05-02T13:09:20.729Z</time></trkpt><trkpt lat="39.1592843" lon="20.9800032"><ele>26.0</ele><time>2026-05-02T13:09:21.73Z</time></trkpt><trkpt lat="39.1591635" lon="20.9799574"><ele>25.5</ele><time>2026-05-02T13:09:22.73Z</time></trkpt><trkpt lat="39.159036" lon="20.979907"><ele>25.0</ele><time>2026-05-02T13:09:23.729Z</time></trkpt><trkpt lat="39.1589228" lon="20.9798631"><ele>24.5</ele><time>2026-05-02T13:09:24.729Z</time></trkpt><trkpt lat="39.1587919" lon="20.9798132"><ele>24.0</ele><time>2026-05-02T13:09:25.73Z</time></trkpt><trkpt lat="39.1586648" lon="20.9797673"><ele>23.75</ele><time>2026-05-02T13:09:26.729Z</time></trkpt><trkpt lat="39.1585418" lon="20.9797234"><ele>23.5</ele><time>2026-05-02T13:09:27.729Z</time></trkpt><trkpt lat="39.1583988" lon="20.9796735"><ele>23.25</ele><time>2026-05-02T13:09:28.73Z</time></trkpt><trkpt lat="39.1582628" lon="20.9796237"><ele>23.0</ele><time>2026-05-02T13:09:29.73Z</time></trkpt><trkpt lat="39.1581347" lon="20.9795758"><ele>23.0</ele><time>2026-05-02T13:09:30.729Z</time></trkpt><trkpt lat="39.157991" lon="20.9795204"><ele>23.0</ele><time>2026-05-02T13:09:31.729Z</time></trkpt><trkpt lat="39.1578706" lon="20.9794719"><ele>23.0</ele><time>2026-05-02T13:09:32.729Z</time></trkpt><trkpt lat="39.1577441" lon="20.9794205"><ele>23.0</ele><time>2026-05-02T13:09:33.729Z</time></trkpt><trkpt lat="39.157638" lon="20.9793769"><ele>23.0</ele><time>2026-05-02T13:09:34.73Z</time></trkpt><trkpt lat="39.1575547" lon="20.9793438"><ele>23.0</ele><time>2026-05-02T13:09:35.73Z</time></trkpt><trkpt lat="39.1574822" lon="20.9793155"><ele>23.0</ele><time>2026-05-02T13:09:36.729Z</time></trkpt><trkpt lat="39.1574028" lon="20.9792877"><ele>23.0</ele><time>2026-05-02T13:09:38.729Z</time></trkpt><trkpt lat="39.1573121" lon="20.9792581"><ele>23.0</ele><time>2026-05-02T13:10:11.73Z</time></trkpt><trkpt lat="39.1571879" lon="20.979211"><ele>22.799999999999997</ele><time>2026-05-02T13:10:13.73Z</time></trkpt><trkpt lat="39.1571102" lon="20.9791847"><ele>22.6</ele><time>2026-05-02T13:10:14.73Z</time></trkpt><trkpt lat="39.1570232" lon="20.9791556"><ele>22.4</ele><time>2026-05-02T13:10:15.73Z</time></trkpt><trkpt lat="39.156927" lon="20.979122"><ele>22.200000000000003</ele><time>2026-05-02T13:10:16.729Z</time></trkpt><trkpt lat="39.1568176" lon="20.9790832"><ele>22.0</ele><time>2026-05-02T13:10:17.729Z</time></trkpt><trkpt lat="39.1567024" lon="20.9790399"><ele>22.0</ele><time>2026-05-02T13:10:18.73Z</time></trkpt><trkpt lat="39.1565866" lon="20.9789956"><ele>22.0</ele><time>2026-05-02T13:10:19.729Z</time></trkpt><trkpt lat="39.1564703" lon="20.978951"><ele>22.0</ele><time>2026-05-02T13:10:20.729Z</time></trkpt><trkpt lat="39.1563511" lon="20.9789048"><ele>22.0</ele><time>2026-05-02T13:10:21.73Z</time></trkpt><trkpt lat="39.1562277" lon="20.9788592"><ele>22.0</ele><time>2026-05-02T13:10:22.729Z</time></trkpt><trkpt lat="39.1561006" lon="20.9788154"><ele>22.0</ele><time>2026-05-02T13:10:23.73Z</time></trkpt><trkpt lat="39.155971" lon="20.978771"><ele>22.0</ele><time>2026-05-02T13:10:24.73Z</time></trkpt><trkpt lat="39.1558475" lon="20.9787281"><ele>22.0</ele><time>2026-05-02T13:10:25.73Z</time></trkpt><trkpt lat="39.1557088" lon="20.9786792"><ele>21.75</ele><time>2026-05-02T13:10:26.73Z</time></trkpt><trkpt lat="39.1555777" lon="20.9786333"><ele>21.5</ele><time>2026-05-02T13:10:27.73Z</time></trkpt><trkpt lat="39.1554465" lon="20.9785878"><ele>21.25</ele><time>2026-05-02T13:10:28.729Z</time></trkpt><trkpt lat="39.1553207" lon="20.9785425"><ele>21.0</ele><time>2026-05-02T13:10:29.73Z</time></trkpt><trkpt lat="39.155198" lon="20.9784982"><ele>21.0</ele><time>2026-05-02T13:10:30.73Z</time></trkpt><trkpt lat="39.1550788" lon="20.978456"><ele>21.0</ele><time>2026-05-02T13:10:31.73Z</time></trkpt><trkpt lat="39.154959" lon="20.9784142"><ele>21.0</ele><time>2026-05-02T13:10:32.73Z</time></trkpt><trkpt lat="39.1548399" lon="20.9783732"><ele>21.0</ele><time>2026-05-02T13:10:33.73Z</time></trkpt><trkpt lat="39.1547178" lon="20.9783323"><ele>21.0</ele><time>2026-05-02T13:10:34.73Z</time></trkpt><trkpt lat="39.1545961" lon="20.9782912"><ele>21.0</ele><time>2026-05-02T13:10:35.729Z</time></trkpt><trkpt lat="39.1544782" lon="20.9782513"><ele>21.0</ele><time>2026-05-02T13:10:36.73Z</time></trkpt><trkpt lat="39.1543439" lon="20.9782047"><ele>21.0</ele><time>2026-05-02T13:10:37.729Z</time></trkpt><trkpt lat="39.1542158" lon="20.9781627"><ele>21.0</ele><time>2026-05-02T13:10:38.729Z</time></trkpt><trkpt lat="39.1541277" lon="20.9781341"><ele>21.0</ele><time>2026-05-02T13:10:39.73Z</time></trkpt><trkpt lat="39.1540525" lon="20.9781088"><ele>21.0</ele><time>2026-05-02T13:10:41.73Z</time></trkpt><trkpt lat="39.1539914" lon="20.9780812"><ele>21.0</ele><time>2026-05-02T13:11:24.73Z</time></trkpt><trkpt lat="39.1538939" lon="20.9780443"><ele>21.0</ele><time>2026-05-02T13:11:26.73Z</time></trkpt><trkpt lat="39.1538258" lon="20.9780205"><ele>21.0</ele><time>2026-05-02T13:11:27.73Z</time></trkpt><trkpt lat="39.1537516" lon="20.9779951"><ele>20.833333333333332</ele><time>2026-05-02T13:11:28.729Z</time></trkpt><trkpt lat="39.1536821" lon="20.9779694"><ele>20.666666666666668</ele><time>2026-05-02T13:11:29.729Z</time></trkpt><trkpt lat="39.1535989" lon="20.9779407"><ele>20.5</ele><time>2026-05-02T13:11:30.73Z</time></trkpt><trkpt lat="39.153516" lon="20.9779149"><ele>20.333333333333336</ele><time>2026-05-02T13:11:31.73Z</time></trkpt><trkpt lat="39.153435" lon="20.9778866"><ele>20.166666666666668</ele><time>2026-05-02T13:11:32.73Z</time></trkpt><trkpt lat="39.1533406" lon="20.9778524"><ele>20.0</ele><time>2026-05-02T13:11:33.729Z</time></trkpt><trkpt lat="39.1532499" lon="20.9778178"><ele>20.2</ele><time>2026-05-02T13:11:34.729Z</time></trkpt><trkpt lat="39.1531579" lon="20.9777811"><ele>20.4</ele><time>2026-05-02T13:11:35.73Z</time></trkpt><trkpt lat="39.1530626" lon="20.9777408"><ele>20.6</ele><time>2026-05-02T13:11:36.729Z</time></trkpt><trkpt lat="39.152966" lon="20.9776969"><ele>20.8</ele><time>2026-05-02T13:11:37.73Z</time></trkpt><trkpt lat="39.1528685" lon="20.9776486"><ele>21.0</ele><time>2026-05-02T13:11:38.73Z</time></trkpt><trkpt lat="39.1527711" lon="20.9775948"><ele>21.0</ele><time>2026-05-02T13:11:39.73Z</time></trkpt><trkpt lat="39.1526809" lon="20.9775407"><ele>21.0</ele><time>2026-05-02T13:11:40.73Z</time></trkpt><trkpt lat="39.1525805" lon="20.9774746"><ele>21.0</ele><time>2026-05-02T13:11:41.729Z</time></trkpt><trkpt lat="39.1524892" lon="20.9774074"><ele>21.0</ele><time>2026-05-02T13:11:42.73Z</time></trkpt><trkpt lat="39.1523968" lon="20.9773347"><ele>21.0</ele><time>2026-05-02T13:11:43.729Z</time></trkpt><trkpt lat="39.1523072" lon="20.977256"><ele>21.0</ele><time>2026-05-02T13:11:44.729Z</time></trkpt><trkpt lat="39.1522218" lon="20.9771742"><ele>21.0</ele><time>2026-05-02T13:11:45.73Z</time></trkpt><trkpt lat="39.1521244" lon="20.9770711"><ele>21.0</ele><time>2026-05-02T13:11:46.729Z</time></trkpt><trkpt lat="39.1520317" lon="20.9769592"><ele>21.0</ele><time>2026-05-02T13:11:47.729Z</time></trkpt><trkpt lat="39.1519418" lon="20.9768437"><ele>21.0</ele><time>2026-05-02T13:11:48.729Z</time></trkpt><trkpt lat="39.1518451" lon="20.9767068"><ele>21.0</ele><time>2026-05-02T13:11:49.729Z</time></trkpt><trkpt lat="39.1517563" lon="20.9765723"><ele>21.0</ele><time>2026-05-02T13:11:50.729Z</time></trkpt><trkpt lat="39.1516679" lon="20.9764334"><ele>21.0</ele><time>2026-05-02T13:11:51.73Z</time></trkpt><trkpt lat="39.1515814" lon="20.9762924"><ele>19.75</ele><time>2026-05-02T13:11:52.73Z</time></trkpt><trkpt lat="39.1514964" lon="20.9761483"><ele>18.5</ele><time>2026-05-02T13:11:53.729Z</time></trkpt><trkpt lat="39.1514126" lon="20.9760045"><ele>17.25</ele><time>2026-05-02T13:11:54.73Z</time></trkpt><trkpt lat="39.1513282" lon="20.9758584"><ele>16.0</ele><time>2026-05-02T13:11:55.73Z</time></trkpt><trkpt lat="39.1512514" lon="20.975724"><ele>15.25</ele><time>2026-05-02T13:11:56.729Z</time></trkpt><trkpt lat="39.1511644" lon="20.9755713"><ele>14.5</ele><time>2026-05-02T13:11:57.73Z</time></trkpt><trkpt lat="39.1510831" lon="20.9754296"><ele>13.75</ele><time>2026-05-02T13:11:58.729Z</time></trkpt><trkpt lat="39.151007" lon="20.9752977"><ele>13.0</ele><time>2026-05-02T13:11:59.73Z</time></trkpt><trkpt lat="39.1509205" lon="20.9751494"><ele>13.0</ele><time>2026-05-02T13:12:00.73Z</time></trkpt><trkpt lat="39.1508477" lon="20.9750234"><ele>13.0</ele><time>2026-05-02T13:12:01.73Z</time></trkpt><trkpt lat="39.1507752" lon="20.9748955"><ele>13.0</ele><time>2026-05-02T13:12:02.73Z</time></trkpt><trkpt lat="39.1507032" lon="20.974767"><ele>13.0</ele><time>2026-05-02T13:12:03.73Z</time></trkpt><trkpt lat="39.1506433" lon="20.9746555"><ele>14.0</ele><time>2026-05-02T13:12:04.73Z</time></trkpt><trkpt lat="39.1505825" lon="20.9745313"><ele>15.0</ele><time>2026-05-02T13:12:05.73Z</time></trkpt><trkpt lat="39.150535" lon="20.974407"><ele>16.0</ele><time>2026-05-02T13:12:06.729Z</time></trkpt><trkpt lat="39.1505048" lon="20.9742816"><ele>17.0</ele><time>2026-05-02T13:12:07.73Z</time></trkpt><trkpt lat="39.1504952" lon="20.9741326"><ele>18.0</ele><time>2026-05-02T13:12:08.73Z</time></trkpt><trkpt lat="39.150509" lon="20.9739897"><ele>18.2</ele><time>2026-05-02T13:12:09.73Z</time></trkpt><trkpt lat="39.150539" lon="20.9738554"><ele>18.4</ele><time>2026-05-02T13:12:10.73Z</time></trkpt><trkpt lat="39.150587" lon="20.9737053"><ele>18.599999999999998</ele><time>2026-05-02T13:12:11.73Z</time></trkpt><trkpt lat="39.1506418" lon="20.9735837"><ele>18.8</ele><time>2026-05-02T13:12:12.73Z</time></trkpt><trkpt lat="39.1507043" lon="20.9734748"><ele>19.0</ele><time>2026-05-02T13:12:13.73Z</time></trkpt><trkpt lat="39.1507695" lon="20.9733858"><ele>19.2</ele><time>2026-05-02T13:12:14.73Z</time></trkpt><trkpt lat="39.1508183" lon="20.9733293"><ele>19.4</ele><time>2026-05-02T13:12:15.729Z</time></trkpt><trkpt lat="39.1508731" lon="20.9732714"><ele>19.6</ele><time>2026-05-02T13:12:17.73Z</time></trkpt><trkpt lat="39.1509559" lon="20.9731866"><ele>19.8</ele><time>2026-05-02T13:13:02.73Z</time></trkpt><trkpt lat="39.151063" lon="20.9730804"><ele>20.0</ele><time>2026-05-02T13:13:04.73Z</time></trkpt><trkpt lat="39.1511256" lon="20.9730184"><ele>20.0</ele><time>2026-05-02T13:13:05.73Z</time></trkpt><trkpt lat="39.1511943" lon="20.972951"><ele>20.0</ele><time>2026-05-02T13:13:06.73Z</time></trkpt><trkpt lat="39.1512709" lon="20.9728767"><ele>20.0</ele><time>2026-05-02T13:13:07.729Z</time></trkpt><trkpt lat="39.1513565" lon="20.9727931"><ele>20.0</ele><time>2026-05-02T13:13:08.73Z</time></trkpt><trkpt lat="39.1514518" lon="20.9727"><ele>20.0</ele><time>2026-05-02T13:13:09.729Z</time></trkpt><trkpt lat="39.1515612" lon="20.9725952"><ele>20.0</ele><time>2026-05-02T13:13:10.73Z</time></trkpt><trkpt lat="39.151664" lon="20.9724927"><ele>20.0</ele><time>2026-05-02T13:13:11.729Z</time></trkpt><trkpt lat="39.1517766" lon="20.9723782"><ele>20.0</ele><time>2026-05-02T13:13:12.729Z</time></trkpt><trkpt lat="39.1519023" lon="20.972251"><ele>20.0</ele><time>2026-05-02T13:13:13.73Z</time></trkpt><trkpt lat="39.1520163" lon="20.9721345"><ele>20.0</ele><time>2026-05-02T13:13:14.729Z</time></trkpt><trkpt lat="39.1521378" lon="20.9720103"><ele>20.0</ele><time>2026-05-02T13:13:15.73Z</time></trkpt><trkpt lat="39.1522568" lon="20.9718824"><ele>20.0</ele><time>2026-05-02T13:13:16.73Z</time></trkpt><trkpt lat="39.1523691" lon="20.9717478"><ele>20.333333333333336</ele><time>2026-05-02T13:13:17.729Z</time></trkpt><trkpt lat="39.1524831" lon="20.9715896"><ele>20.666666666666668</ele><time>2026-05-02T13:13:18.73Z</time></trkpt><trkpt lat="39.1525754" lon="20.9714341"><ele>21.0</ele><time>2026-05-02T13:13:19.73Z</time></trkpt><trkpt lat="39.1526663" lon="20.9712508"><ele>21.0</ele><time>2026-05-02T13:13:20.729Z</time></trkpt><trkpt lat="39.152746" lon="20.9710505"><ele>21.0</ele><time>2026-05-02T13:13:21.73Z</time></trkpt><trkpt lat="39.152813" lon="20.9708362"><ele>21.0</ele><time>2026-05-02T13:13:22.729Z</time></trkpt><trkpt lat="39.1528691" lon="20.9706108"><ele>21.0</ele><time>2026-05-02T13:13:23.729Z</time></trkpt><trkpt lat="39.1529176" lon="20.9703777"><ele>21.0</ele><time>2026-05-02T13:13:24.729Z</time></trkpt><trkpt lat="39.152961" lon="20.9701471"><ele>21.0</ele><time>2026-05-02T13:13:25.73Z</time></trkpt><trkpt lat="39.1530065" lon="20.9699053"><ele>21.0</ele><time>2026-05-02T13:13:26.73Z</time></trkpt><trkpt lat="39.1530456" lon="20.9696967"><ele>21.0</ele><time>2026-05-02T13:13:27.729Z</time></trkpt><trkpt lat="39.1530872" lon="20.9694736"><ele>21.0</ele><time>2026-05-02T13:13:28.73Z</time></trkpt><trkpt lat="39.1531338" lon="20.9692357"><ele>21.0</ele><time>2026-05-02T13:13:29.729Z</time></trkpt><trkpt lat="39.1531761" lon="20.9690246"><ele>21.0</ele><time>2026-05-02T13:13:30.73Z</time></trkpt><trkpt lat="39.1532223" lon="20.9687992"><ele>21.0</ele><time>2026-05-02T13:13:31.729Z</time></trkpt><trkpt lat="39.1532673" lon="20.9685734"><ele>21.0</ele><time>2026-05-02T13:13:32.729Z</time></trkpt><trkpt lat="39.1533124" lon="20.9683461"><ele>21.0</ele><time>2026-05-02T13:13:33.729Z</time></trkpt><trkpt lat="39.1533604" lon="20.968103"><ele>21.0</ele><time>2026-05-02T13:13:34.729Z</time></trkpt><trkpt lat="39.153403" lon="20.967888"><ele>21.0</ele><time>2026-05-02T13:13:35.729Z</time></trkpt><trkpt lat="39.1534491" lon="20.967658"><ele>21.0</ele><time>2026-05-02T13:13:36.729Z</time></trkpt><trkpt lat="39.1534953" lon="20.9674274"><ele>21.0</ele><time>2026-05-02T13:13:37.73Z</time></trkpt><trkpt lat="39.1535413" lon="20.9671975"><ele>21.0</ele><time>2026-05-02T13:13:38.73Z</time></trkpt><trkpt lat="39.1535883" lon="20.9669696"><ele>21.0</ele><time>2026-05-02T13:13:39.73Z</time></trkpt><trkpt lat="39.1536347" lon="20.9667436"><ele>21.0</ele><time>2026-05-02T13:13:40.729Z</time></trkpt><trkpt lat="39.1536808" lon="20.9665201"><ele>20.333333333333332</ele><time>2026-05-02T13:13:41.729Z</time></trkpt><trkpt lat="39.1537277" lon="20.9662845"><ele>19.666666666666664</ele><time>2026-05-02T13:13:42.73Z</time></trkpt><trkpt lat="39.1537666" lon="20.9660819"><ele>19.0</ele><time>2026-05-02T13:13:43.73Z</time></trkpt><trkpt lat="39.1538061" lon="20.9658757"><ele>19.0</ele><time>2026-05-02T13:13:44.73Z</time></trkpt><trkpt lat="39.1538447" lon="20.9656671"><ele>19.0</ele><time>2026-05-02T13:13:45.73Z</time></trkpt><trkpt lat="39.1538745" lon="20.965493"><ele>19.0</ele><time>2026-05-02T13:13:46.73Z</time></trkpt><trkpt lat="39.1539039" lon="20.9653164"><ele>19.0</ele><time>2026-05-02T13:13:47.729Z</time></trkpt><trkpt lat="39.153935" lon="20.9651532"><ele>19.0</ele><time>2026-05-02T13:13:48.729Z</time></trkpt><trkpt lat="39.1539778" lon="20.9650077"><ele>19.0</ele><time>2026-05-02T13:13:49.73Z</time></trkpt><trkpt lat="39.1540368" lon="20.9648721"><ele>19.0</ele><time>2026-05-02T13:13:50.73Z</time></trkpt><trkpt lat="39.1540822" lon="20.9647548"><ele>19.0</ele><time>2026-05-02T13:13:51.729Z</time></trkpt><trkpt lat="39.1541172" lon="20.9646175"><ele>19.0</ele><time>2026-05-02T13:13:52.729Z</time></trkpt><trkpt lat="39.1541446" lon="20.9644607"><ele>19.0</ele><time>2026-05-02T13:13:53.73Z</time></trkpt><trkpt lat="39.1541733" lon="20.9642867"><ele>19.0</ele><time>2026-05-02T13:13:54.73Z</time></trkpt><trkpt lat="39.1542069" lon="20.9640962"><ele>19.0</ele><time>2026-05-02T13:13:55.73Z</time></trkpt><trkpt lat="39.1542441" lon="20.9638924"><ele>19.333333333333332</ele><time>2026-05-02T13:13:56.73Z</time></trkpt><trkpt lat="39.1542821" lon="20.9636911"><ele>19.666666666666668</ele><time>2026-05-02T13:13:57.73Z</time></trkpt><trkpt lat="39.1543231" lon="20.9634802"><ele>20.0</ele><time>2026-05-02T13:13:58.729Z</time></trkpt><trkpt lat="39.154359" lon="20.9632966"><ele>19.333333333333336</ele><time>2026-05-02T13:13:59.729Z</time></trkpt><trkpt lat="39.1543984" lon="20.9631023"><ele>18.666666666666668</ele><time>2026-05-02T13:14:00.729Z</time></trkpt><trkpt lat="39.154439" lon="20.9628993"><ele>18.0</ele><time>2026-05-02T13:14:01.73Z</time></trkpt><trkpt lat="39.1544734" lon="20.9627247"><ele>18.0</ele><time>2026-05-02T13:14:02.729Z</time></trkpt><trkpt lat="39.1545092" lon="20.9625425"><ele>18.0</ele><time>2026-05-02T13:14:03.73Z</time></trkpt><trkpt lat="39.1545428" lon="20.9623634"><ele>18.0</ele><time>2026-05-02T13:14:04.729Z</time></trkpt><trkpt lat="39.1545729" lon="20.9621901"><ele>18.0</ele><time>2026-05-02T13:14:05.729Z</time></trkpt><trkpt lat="39.1546011" lon="20.9620148"><ele>17.8</ele><time>2026-05-02T13:14:06.729Z</time></trkpt><trkpt lat="39.154622" lon="20.961875"><ele>17.6</ele><time>2026-05-02T13:14:07.729Z</time></trkpt><trkpt lat="39.1546446" lon="20.9617377"><ele>17.4</ele><time>2026-05-02T13:14:08.73Z</time></trkpt><trkpt lat="39.1546749" lon="20.9616189"><ele>17.2</ele><time>2026-05-02T13:14:09.73Z</time></trkpt><trkpt lat="39.1547201" lon="20.9615229"><ele>17.0</ele><time>2026-05-02T13:14:10.729Z</time></trkpt><trkpt lat="39.1547699" lon="20.9614334"><ele>17.0</ele><time>2026-05-02T13:14:11.729Z</time></trkpt><trkpt lat="39.1548136" lon="20.961329"><ele>17.0</ele><time>2026-05-02T13:14:12.729Z</time></trkpt><trkpt lat="39.1548496" lon="20.9612008"><ele>17.0</ele><time>2026-05-02T13:14:13.729Z</time></trkpt><trkpt lat="39.1548863" lon="20.9610322"><ele>17.0</ele><time>2026-05-02T13:14:14.729Z</time></trkpt><trkpt lat="39.1549228" lon="20.9608562"><ele>16.666666666666668</ele><time>2026-05-02T13:14:15.729Z</time></trkpt><trkpt lat="39.1549631" lon="20.9606526"><ele>16.333333333333332</ele><time>2026-05-02T13:14:16.729Z</time></trkpt><trkpt lat="39.1550112" lon="20.9604248"><ele>16.0</ele><time>2026-05-02T13:14:17.73Z</time></trkpt><trkpt lat="39.1550621" lon="20.9602229"><ele>16.0</ele><time>2026-05-02T13:14:18.729Z</time></trkpt><trkpt lat="39.1551236" lon="20.9600113"><ele>16.0</ele><time>2026-05-02T13:14:19.729Z</time></trkpt><trkpt lat="39.1551878" lon="20.9597982"><ele>16.0</ele><time>2026-05-02T13:14:20.73Z</time></trkpt><trkpt lat="39.1552559" lon="20.9595719"><ele>16.0</ele><time>2026-05-02T13:14:21.729Z</time></trkpt><trkpt lat="39.1553347" lon="20.959312"><ele>16.0</ele><time>2026-05-02T13:14:22.729Z</time></trkpt><trkpt lat="39.155406" lon="20.9590782"><ele>16.0</ele><time>2026-05-02T13:14:23.73Z</time></trkpt><trkpt lat="39.155484" lon="20.9588248"><ele>16.0</ele><time>2026-05-02T13:14:24.73Z</time></trkpt><trkpt lat="39.1555626" lon="20.958572"><ele>16.0</ele><time>2026-05-02T13:14:25.73Z</time></trkpt><trkpt lat="39.1556413" lon="20.9583128"><ele>16.0</ele><time>2026-05-02T13:14:26.729Z</time></trkpt><trkpt lat="39.1557229" lon="20.9580349"><ele>16.0</ele><time>2026-05-02T13:14:27.729Z</time></trkpt><trkpt lat="39.1558072" lon="20.9577464"><ele>16.0</ele><time>2026-05-02T13:14:28.73Z</time></trkpt><trkpt lat="39.1558926" lon="20.9574565"><ele>16.0</ele><time>2026-05-02T13:14:29.73Z</time></trkpt><trkpt lat="39.1559829" lon="20.9571571"><ele>16.0</ele><time>2026-05-02T13:14:30.729Z</time></trkpt><trkpt lat="39.1560609" lon="20.9569007"><ele>16.0</ele><time>2026-05-02T13:14:31.729Z</time></trkpt><trkpt lat="39.1561446" lon="20.9566329"><ele>16.0</ele><time>2026-05-02T13:14:32.729Z</time></trkpt><trkpt lat="39.1562345" lon="20.9563528"><ele>16.0</ele><time>2026-05-02T13:14:33.73Z</time></trkpt><trkpt lat="39.1563107" lon="20.9561132"><ele>16.0</ele><time>2026-05-02T13:14:34.73Z</time></trkpt><trkpt lat="39.1563912" lon="20.9558628"><ele>16.0</ele><time>2026-05-02T13:14:35.729Z</time></trkpt><trkpt lat="39.1564708" lon="20.9556164"><ele>16.333333333333332</ele><time>2026-05-02T13:14:36.73Z</time></trkpt><trkpt lat="39.1565498" lon="20.955373"><ele>16.666666666666668</ele><time>2026-05-02T13:14:37.729Z</time></trkpt><trkpt lat="39.1566313" lon="20.9551167"><ele>17.0</ele><time>2026-05-02T13:14:38.729Z</time></trkpt><trkpt lat="39.1567024" lon="20.9548903"><ele>17.0</ele><time>2026-05-02T13:14:39.73Z</time></trkpt><trkpt lat="39.1567777" lon="20.9546473"><ele>17.0</ele><time>2026-05-02T13:14:40.729Z</time></trkpt><trkpt lat="39.1568522" lon="20.9544041"><ele>17.0</ele><time>2026-05-02T13:14:41.729Z</time></trkpt><trkpt lat="39.1569281" lon="20.9541586"><ele>17.333333333333336</ele><time>2026-05-02T13:14:42.73Z</time></trkpt><trkpt lat="39.1570072" lon="20.953911"><ele>17.666666666666668</ele><time>2026-05-02T13:14:43.73Z</time></trkpt><trkpt lat="39.1570848" lon="20.9536606"><ele>18.0</ele><time>2026-05-02T13:14:44.73Z</time></trkpt><trkpt lat="39.1571622" lon="20.9534113"><ele>17.333333333333332</ele><time>2026-05-02T13:14:45.73Z</time></trkpt><trkpt lat="39.1572436" lon="20.9531426"><ele>16.666666666666664</ele><time>2026-05-02T13:14:46.729Z</time></trkpt><trkpt lat="39.1573148" lon="20.9529052"><ele>16.0</ele><time>2026-05-02T13:14:47.729Z</time></trkpt><trkpt lat="39.1573899" lon="20.9526516"><ele>15.666666666666666</ele><time>2026-05-02T13:14:48.729Z</time></trkpt><trkpt lat="39.157471" lon="20.9523818"><ele>15.333333333333332</ele><time>2026-05-02T13:14:49.73Z</time></trkpt><trkpt lat="39.1575445" lon="20.9521441"><ele>15.0</ele><time>2026-05-02T13:14:50.729Z</time></trkpt><trkpt lat="39.1576234" lon="20.9518898"><ele>15.333333333333332</ele><time>2026-05-02T13:14:51.73Z</time></trkpt><trkpt lat="39.1577022" lon="20.9516353"><ele>15.666666666666666</ele><time>2026-05-02T13:14:52.729Z</time></trkpt><trkpt lat="39.1577826" lon="20.9513819"><ele>16.0</ele><time>2026-05-02T13:14:53.73Z</time></trkpt><trkpt lat="39.157868" lon="20.9511127"><ele>16.0</ele><time>2026-05-02T13:14:54.729Z</time></trkpt><trkpt lat="39.1579427" lon="20.9508762"><ele>16.0</ele><time>2026-05-02T13:14:55.729Z</time></trkpt><trkpt lat="39.1580205" lon="20.9506248"><ele>16.0</ele><time>2026-05-02T13:14:56.729Z</time></trkpt><trkpt lat="39.1580959" lon="20.9503758"><ele>16.0</ele><time>2026-05-02T13:14:57.73Z</time></trkpt><trkpt lat="39.1581721" lon="20.9501256"><ele>16.0</ele><time>2026-05-02T13:14:58.729Z</time></trkpt><trkpt lat="39.158247" lon="20.9498822"><ele>16.0</ele><time>2026-05-02T13:14:59.73Z</time></trkpt><trkpt lat="39.1583216" lon="20.9496348"><ele>16.333333333333332</ele><time>2026-05-02T13:15:00.73Z</time></trkpt><trkpt lat="39.1583967" lon="20.9493859"><ele>16.666666666666668</ele><time>2026-05-02T13:15:01.73Z</time></trkpt><trkpt lat="39.1584775" lon="20.9491184"><ele>17.0</ele><time>2026-05-02T13:15:02.73Z</time></trkpt><trkpt lat="39.1585508" lon="20.9488789"><ele>17.333333333333336</ele><time>2026-05-02T13:15:03.73Z</time></trkpt><trkpt lat="39.1586296" lon="20.9486234"><ele>17.666666666666668</ele><time>2026-05-02T13:15:04.73Z</time></trkpt><trkpt lat="39.1587129" lon="20.9483529"><ele>18.0</ele><time>2026-05-02T13:15:05.73Z</time></trkpt><trkpt lat="39.1587876" lon="20.9481128"><ele>17.333333333333332</ele><time>2026-05-02T13:15:06.73Z</time></trkpt><trkpt lat="39.1588685" lon="20.9478537"><ele>16.666666666666664</ele><time>2026-05-02T13:15:07.729Z</time></trkpt><trkpt lat="39.1589485" lon="20.9476008"><ele>16.0</ele><time>2026-05-02T13:15:08.73Z</time></trkpt><trkpt lat="39.1590284" lon="20.9473465"><ele>16.0</ele><time>2026-05-02T13:15:09.73Z</time></trkpt><trkpt lat="39.1591115" lon="20.9470788"><ele>16.0</ele><time>2026-05-02T13:15:10.73Z</time></trkpt><trkpt lat="39.1591834" lon="20.9468442"><ele>16.0</ele><time>2026-05-02T13:15:11.73Z</time></trkpt><trkpt lat="39.15926" lon="20.9465944"><ele>16.0</ele><time>2026-05-02T13:15:12.729Z</time></trkpt><trkpt lat="39.1593364" lon="20.9463457"><ele>16.0</ele><time>2026-05-02T13:15:13.729Z</time></trkpt><trkpt lat="39.1594125" lon="20.9460966"><ele>16.0</ele><time>2026-05-02T13:15:14.729Z</time></trkpt><trkpt lat="39.1594875" lon="20.9458478"><ele>16.0</ele><time>2026-05-02T13:15:15.729Z</time></trkpt><trkpt lat="39.1595618" lon="20.9455984"><ele>16.0</ele><time>2026-05-02T13:15:16.729Z</time></trkpt><trkpt lat="39.1596345" lon="20.9453544"><ele>16.0</ele><time>2026-05-02T13:15:17.73Z</time></trkpt><trkpt lat="39.1597077" lon="20.9451141"><ele>16.0</ele><time>2026-05-02T13:15:18.729Z</time></trkpt><trkpt lat="39.1597821" lon="20.9448764"><ele>16.0</ele><time>2026-05-02T13:15:19.73Z</time></trkpt><trkpt lat="39.159857" lon="20.9446422"><ele>16.0</ele><time>2026-05-02T13:15:20.729Z</time></trkpt><trkpt lat="39.1599344" lon="20.9443921"><ele>16.666666666666664</ele><time>2026-05-02T13:15:21.729Z</time></trkpt><trkpt lat="39.1600021" lon="20.9441712"><ele>17.333333333333332</ele><time>2026-05-02T13:15:22.73Z</time></trkpt><trkpt lat="39.1600753" lon="20.943934"><ele>18.0</ele><time>2026-05-02T13:15:23.729Z</time></trkpt><trkpt lat="39.1601482" lon="20.943696"><ele>18.0</ele><time>2026-05-02T13:15:24.729Z</time></trkpt><trkpt lat="39.1602211" lon="20.9434583"><ele>18.0</ele><time>2026-05-02T13:15:25.729Z</time></trkpt><trkpt lat="39.1602991" lon="20.9432094"><ele>18.0</ele><time>2026-05-02T13:15:26.73Z</time></trkpt><trkpt lat="39.160369" lon="20.94299"><ele>17.666666666666668</ele><time>2026-05-02T13:15:27.73Z</time></trkpt><trkpt lat="39.160443" lon="20.9427556"><ele>17.333333333333336</ele><time>2026-05-02T13:15:28.73Z</time></trkpt><trkpt lat="39.1605165" lon="20.9425207"><ele>17.0</ele><time>2026-05-02T13:15:29.729Z</time></trkpt><trkpt lat="39.1605883" lon="20.9422871"><ele>17.0</ele><time>2026-05-02T13:15:30.729Z</time></trkpt><trkpt lat="39.1606595" lon="20.9420547"><ele>17.0</ele><time>2026-05-02T13:15:31.729Z</time></trkpt><trkpt lat="39.1607307" lon="20.9418235"><ele>17.0</ele><time>2026-05-02T13:15:32.73Z</time></trkpt><trkpt lat="39.1608017" lon="20.9415936"><ele>16.666666666666668</ele><time>2026-05-02T13:15:33.73Z</time></trkpt><trkpt lat="39.1608772" lon="20.9413507"><ele>16.333333333333332</ele><time>2026-05-02T13:15:34.729Z</time></trkpt><trkpt lat="39.1609453" lon="20.9411367"><ele>16.0</ele><time>2026-05-02T13:15:35.73Z</time></trkpt><trkpt lat="39.1610178" lon="20.9409067"><ele>15.666666666666666</ele><time>2026-05-02T13:15:36.729Z</time></trkpt><trkpt lat="39.1610941" lon="20.9406608"><ele>15.333333333333332</ele><time>2026-05-02T13:15:37.73Z</time></trkpt><trkpt lat="39.16116" lon="20.9404442"><ele>15.0</ele><time>2026-05-02T13:15:38.73Z</time></trkpt><trkpt lat="39.161231" lon="20.940214"><ele>14.666666666666668</ele><time>2026-05-02T13:15:39.73Z</time></trkpt><trkpt lat="39.1613018" lon="20.9399817"><ele>14.333333333333334</ele><time>2026-05-02T13:15:40.729Z</time></trkpt><trkpt lat="39.161373" lon="20.939748"><ele>14.0</ele><time>2026-05-02T13:15:41.729Z</time></trkpt><trkpt lat="39.1614498" lon="20.9395001"><ele>14.0</ele><time>2026-05-02T13:15:42.73Z</time></trkpt><trkpt lat="39.1615158" lon="20.9392811"><ele>14.0</ele><time>2026-05-02T13:15:43.729Z</time></trkpt><trkpt lat="39.161585" lon="20.9390475"><ele>14.0</ele><time>2026-05-02T13:15:44.73Z</time></trkpt><trkpt lat="39.1616531" lon="20.9388161"><ele>14.333333333333334</ele><time>2026-05-02T13:15:45.729Z</time></trkpt><trkpt lat="39.1617208" lon="20.938587"><ele>14.666666666666668</ele><time>2026-05-02T13:15:46.73Z</time></trkpt><trkpt lat="39.1617904" lon="20.9383601"><ele>15.0</ele><time>2026-05-02T13:15:47.729Z</time></trkpt><trkpt lat="39.1618586" lon="20.9381383"><ele>15.0</ele><time>2026-05-02T13:15:48.73Z</time></trkpt><trkpt lat="39.1619254" lon="20.9379202"><ele>15.0</ele><time>2026-05-02T13:15:49.729Z</time></trkpt><trkpt lat="39.1619911" lon="20.9377028"><ele>15.0</ele><time>2026-05-02T13:15:50.73Z</time></trkpt><trkpt lat="39.1620562" lon="20.9374873"><ele>15.0</ele><time>2026-05-02T13:15:51.73Z</time></trkpt><trkpt lat="39.1621216" lon="20.937271"><ele>15.0</ele><time>2026-05-02T13:15:52.73Z</time></trkpt><trkpt lat="39.1621895" lon="20.9370423"><ele>15.0</ele><time>2026-05-02T13:15:53.73Z</time></trkpt><trkpt lat="39.162247" lon="20.9368462"><ele>15.0</ele><time>2026-05-02T13:15:54.729Z</time></trkpt><trkpt lat="39.1623062" lon="20.9366452"><ele>15.0</ele><time>2026-05-02T13:15:55.729Z</time></trkpt><trkpt lat="39.1623647" lon="20.936449"><ele>15.0</ele><time>2026-05-02T13:15:56.729Z</time></trkpt><trkpt lat="39.1624196" lon="20.9362642"><ele>15.0</ele><time>2026-05-02T13:15:57.73Z</time></trkpt><trkpt lat="39.1624735" lon="20.9360793"><ele>15.0</ele><time>2026-05-02T13:15:58.73Z</time></trkpt><trkpt lat="39.1625252" lon="20.9359007"><ele>15.0</ele><time>2026-05-02T13:15:59.73Z</time></trkpt><trkpt lat="39.1625753" lon="20.9357235"><ele>15.0</ele><time>2026-05-02T13:16:00.73Z</time></trkpt><trkpt lat="39.1626244" lon="20.9355534"><ele>15.0</ele><time>2026-05-02T13:16:01.729Z</time></trkpt><trkpt lat="39.1626714" lon="20.9353914"><ele>15.0</ele><time>2026-05-02T13:16:02.73Z</time></trkpt><trkpt lat="39.1627169" lon="20.9352356"><ele>15.0</ele><time>2026-05-02T13:16:03.729Z</time></trkpt><trkpt lat="39.1627619" lon="20.935085"><ele>15.0</ele><time>2026-05-02T13:16:04.729Z</time></trkpt><trkpt lat="39.162807" lon="20.9349371"><ele>15.0</ele><time>2026-05-02T13:16:05.729Z</time></trkpt><trkpt lat="39.1628546" lon="20.9347818"><ele>15.0</ele><time>2026-05-02T13:16:06.73Z</time></trkpt><trkpt lat="39.1628957" lon="20.9346459"><ele>15.0</ele><time>2026-05-02T13:16:07.729Z</time></trkpt><trkpt lat="39.1629375" lon="20.9345036"><ele>15.0</ele><time>2026-05-02T13:16:08.73Z</time></trkpt><trkpt lat="39.1629814" lon="20.9343531"><ele>15.0</ele><time>2026-05-02T13:16:09.73Z</time></trkpt><trkpt lat="39.1630209" lon="20.9342162"><ele>15.0</ele><time>2026-05-02T13:16:10.73Z</time></trkpt><trkpt lat="39.1630681" lon="20.9340528"><ele>15.0</ele><time>2026-05-02T13:16:11.73Z</time></trkpt><trkpt lat="39.16312" lon="20.9338713"><ele>15.0</ele><time>2026-05-02T13:16:12.729Z</time></trkpt><trkpt lat="39.1631745" lon="20.9336821"><ele>14.666666666666668</ele><time>2026-05-02T13:16:13.73Z</time></trkpt><trkpt lat="39.1632336" lon="20.9334793"><ele>14.333333333333334</ele><time>2026-05-02T13:16:14.729Z</time></trkpt><trkpt lat="39.1632931" lon="20.933281"><ele>14.0</ele><time>2026-05-02T13:16:15.729Z</time></trkpt><trkpt lat="39.1633499" lon="20.9330922"><ele>14.5</ele><time>2026-05-02T13:16:16.729Z</time></trkpt><trkpt lat="39.1634003" lon="20.9329277"><ele>15.0</ele><time>2026-05-02T13:16:17.73Z</time></trkpt><trkpt lat="39.163453" lon="20.932757"><ele>15.5</ele><time>2026-05-02T13:16:18.73Z</time></trkpt><trkpt lat="39.1634966" lon="20.9326131"><ele>16.0</ele><time>2026-05-02T13:16:19.729Z</time></trkpt><trkpt lat="39.1635316" lon="20.9324925"><ele>16.0</ele><time>2026-05-02T13:16:20.729Z</time></trkpt><trkpt lat="39.1635584" lon="20.9323962"><ele>16.0</ele><time>2026-05-02T13:16:21.73Z</time></trkpt><trkpt lat="39.1635944" lon="20.9322642"><ele>16.0</ele><time>2026-05-02T13:16:23.73Z</time></trkpt><trkpt lat="39.1636235" lon="20.9321676"><ele>16.0</ele><time>2026-05-02T13:17:17.729Z</time></trkpt><trkpt lat="39.1636617" lon="20.9320454"><ele>16.0</ele><time>2026-05-02T13:17:19.73Z</time></trkpt><trkpt lat="39.163692" lon="20.9319506"><ele>16.0</ele><time>2026-05-02T13:17:20.73Z</time></trkpt><trkpt lat="39.1637169" lon="20.9318592"><ele>16.0</ele><time>2026-05-02T13:17:21.73Z</time></trkpt><trkpt lat="39.1637462" lon="20.9317512"><ele>16.0</ele><time>2026-05-02T13:17:22.729Z</time></trkpt><trkpt lat="39.1637786" lon="20.9316242"><ele>16.0</ele><time>2026-05-02T13:17:23.729Z</time></trkpt><trkpt lat="39.1638089" lon="20.9314999"><ele>16.0</ele><time>2026-05-02T13:17:24.73Z</time></trkpt><trkpt lat="39.1638404" lon="20.9313577"><ele>16.0</ele><time>2026-05-02T13:17:25.729Z</time></trkpt><trkpt lat="39.1638763" lon="20.9311958"><ele>16.0</ele><time>2026-05-02T13:17:26.73Z</time></trkpt><trkpt lat="39.16391" lon="20.9310436"><ele>16.0</ele><time>2026-05-02T13:17:27.73Z</time></trkpt><trkpt lat="39.1639511" lon="20.9308623"><ele>16.0</ele><time>2026-05-02T13:17:28.73Z</time></trkpt><trkpt lat="39.1639902" lon="20.9306939"><ele>16.0</ele><time>2026-05-02T13:17:29.73Z</time></trkpt><trkpt lat="39.1640262" lon="20.9305382"><ele>16.0</ele><time>2026-05-02T13:17:30.729Z</time></trkpt><trkpt lat="39.1640656" lon="20.9303649"><ele>16.0</ele><time>2026-05-02T13:17:31.729Z</time></trkpt><trkpt lat="39.1641003" lon="20.930212"><ele>16.0</ele><time>2026-05-02T13:17:32.73Z</time></trkpt><trkpt lat="39.1641379" lon="20.9300473"><ele>15.75</ele><time>2026-05-02T13:17:33.73Z</time></trkpt><trkpt lat="39.1641772" lon="20.9298726"><ele>15.5</ele><time>2026-05-02T13:17:34.729Z</time></trkpt><trkpt lat="39.1642106" lon="20.9297172"><ele>15.25</ele><time>2026-05-02T13:17:35.729Z</time></trkpt><trkpt lat="39.1642508" lon="20.9295361"><ele>15.0</ele><time>2026-05-02T13:17:36.729Z</time></trkpt><trkpt lat="39.1642875" lon="20.9293698"><ele>14.666666666666668</ele><time>2026-05-02T13:17:37.729Z</time></trkpt><trkpt lat="39.1643295" lon="20.9291822"><ele>14.333333333333334</ele><time>2026-05-02T13:17:38.73Z</time></trkpt><trkpt lat="39.1643775" lon="20.9289698"><ele>14.0</ele><time>2026-05-02T13:17:39.73Z</time></trkpt><trkpt lat="39.1644239" lon="20.9287677"><ele>14.0</ele><time>2026-05-02T13:17:40.73Z</time></trkpt><trkpt lat="39.1644792" lon="20.9285273"><ele>14.0</ele><time>2026-05-02T13:17:41.729Z</time></trkpt><trkpt lat="39.1645306" lon="20.9282997"><ele>14.0</ele><time>2026-05-02T13:17:42.73Z</time></trkpt><trkpt lat="39.1645807" lon="20.92808"><ele>13.666666666666668</ele><time>2026-05-02T13:17:43.73Z</time></trkpt><trkpt lat="39.1646391" lon="20.927822"><ele>13.333333333333332</ele><time>2026-05-02T13:17:44.729Z</time></trkpt><trkpt lat="39.1646943" lon="20.9275729"><ele>13.0</ele><time>2026-05-02T13:17:45.73Z</time></trkpt><trkpt lat="39.1647476" lon="20.9273359"><ele>13.0</ele><time>2026-05-02T13:17:46.729Z</time></trkpt><trkpt lat="39.16481" lon="20.9270622"><ele>13.0</ele><time>2026-05-02T13:17:47.73Z</time></trkpt><trkpt lat="39.1648644" lon="20.9268197"><ele>13.0</ele><time>2026-05-02T13:17:48.73Z</time></trkpt><trkpt lat="39.1649262" lon="20.9265547"><ele>13.333333333333332</ele><time>2026-05-02T13:17:49.73Z</time></trkpt><trkpt lat="39.1649904" lon="20.9262729"><ele>13.666666666666668</ele><time>2026-05-02T13:17:50.73Z</time></trkpt><trkpt lat="39.165048" lon="20.9260177"><ele>14.0</ele><time>2026-05-02T13:17:51.729Z</time></trkpt><trkpt lat="39.1651137" lon="20.9257205"><ele>14.5</ele><time>2026-05-02T13:17:52.73Z</time></trkpt><trkpt lat="39.1651738" lon="20.9254536"><ele>15.0</ele><time>2026-05-02T13:17:53.73Z</time></trkpt><trkpt lat="39.1652391" lon="20.9251637"><ele>14.5</ele><time>2026-05-02T13:17:54.729Z</time></trkpt><trkpt lat="39.1653105" lon="20.9248525"><ele>14.0</ele><time>2026-05-02T13:17:55.729Z</time></trkpt><trkpt lat="39.1653749" lon="20.9245772"><ele>14.0</ele><time>2026-05-02T13:17:56.73Z</time></trkpt><trkpt lat="39.165443" lon="20.9242815"><ele>14.0</ele><time>2026-05-02T13:17:57.73Z</time></trkpt><trkpt lat="39.1655149" lon="20.9239661"><ele>13.5</ele><time>2026-05-02T13:17:58.73Z</time></trkpt><trkpt lat="39.1655776" lon="20.9236881"><ele>13.0</ele><time>2026-05-02T13:17:59.73Z</time></trkpt><trkpt lat="39.1656447" lon="20.9233909"><ele>13.0</ele><time>2026-05-02T13:18:00.73Z</time></trkpt><trkpt lat="39.1657163" lon="20.9230745"><ele>13.0</ele><time>2026-05-02T13:18:01.729Z</time></trkpt><trkpt lat="39.1657789" lon="20.9227963"><ele>12.5</ele><time>2026-05-02T13:18:02.73Z</time></trkpt><trkpt lat="39.1658494" lon="20.9224807"><ele>12.0</ele><time>2026-05-02T13:18:03.73Z</time></trkpt><trkpt lat="39.1659117" lon="20.922203"><ele>12.0</ele><time>2026-05-02T13:18:04.73Z</time></trkpt><trkpt lat="39.1659781" lon="20.9219053"><ele>12.0</ele><time>2026-05-02T13:18:05.729Z</time></trkpt><trkpt lat="39.1660494" lon="20.9215888"><ele>12.5</ele><time>2026-05-02T13:18:06.729Z</time></trkpt><trkpt lat="39.1661108" lon="20.9213101"><ele>13.0</ele><time>2026-05-02T13:18:07.73Z</time></trkpt><trkpt lat="39.1661814" lon="20.9209952"><ele>12.0</ele><time>2026-05-02T13:18:08.729Z</time></trkpt><trkpt lat="39.1662433" lon="20.9207202"><ele>11.0</ele><time>2026-05-02T13:18:09.73Z</time></trkpt><trkpt lat="39.1663107" lon="20.9204286"><ele>11.0</ele><time>2026-05-02T13:18:10.729Z</time></trkpt><trkpt lat="39.166383" lon="20.9201189"><ele>11.0</ele><time>2026-05-02T13:18:11.73Z</time></trkpt><trkpt lat="39.1664455" lon="20.9198464"><ele>10.5</ele><time>2026-05-02T13:18:12.73Z</time></trkpt><trkpt lat="39.1665103" lon="20.9195566"><ele>10.0</ele><time>2026-05-02T13:18:13.73Z</time></trkpt><trkpt lat="39.1665787" lon="20.9192487"><ele>10.333333333333334</ele><time>2026-05-02T13:18:14.73Z</time></trkpt><trkpt lat="39.1666385" lon="20.91898"><ele>10.666666666666666</ele><time>2026-05-02T13:18:15.73Z</time></trkpt><trkpt lat="39.1667028" lon="20.9186958"><ele>11.0</ele><time>2026-05-02T13:18:16.73Z</time></trkpt><trkpt lat="39.1667723" lon="20.9183949"><ele>11.0</ele><time>2026-05-02T13:18:17.729Z</time></trkpt><trkpt lat="39.1668335" lon="20.9181314"><ele>11.0</ele><time>2026-05-02T13:18:18.729Z</time></trkpt><trkpt lat="39.1669025" lon="20.9178328"><ele>11.0</ele><time>2026-05-02T13:18:19.73Z</time></trkpt><trkpt lat="39.1669626" lon="20.9175714"><ele>11.0</ele><time>2026-05-02T13:18:20.73Z</time></trkpt><trkpt lat="39.1670261" lon="20.9172928"><ele>11.0</ele><time>2026-05-02T13:18:21.73Z</time></trkpt><trkpt lat="39.1670933" lon="20.916997"><ele>11.333333333333332</ele><time>2026-05-02T13:18:22.73Z</time></trkpt><trkpt lat="39.1671529" lon="20.9167362"><ele>11.666666666666666</ele><time>2026-05-02T13:18:23.73Z</time></trkpt><trkpt lat="39.1672173" lon="20.9164556"><ele>12.0</ele><time>2026-05-02T13:18:24.73Z</time></trkpt><trkpt lat="39.1672817" lon="20.916172"><ele>11.5</ele><time>2026-05-02T13:18:25.729Z</time></trkpt><trkpt lat="39.1673448" lon="20.9158876"><ele>11.0</ele><time>2026-05-02T13:18:26.73Z</time></trkpt><trkpt lat="39.167412" lon="20.9155858"><ele>11.333333333333332</ele><time>2026-05-02T13:18:27.73Z</time></trkpt><trkpt lat="39.1674713" lon="20.9153216"><ele>11.666666666666666</ele><time>2026-05-02T13:18:28.729Z</time></trkpt><trkpt lat="39.1675355" lon="20.9150405"><ele>12.0</ele><time>2026-05-02T13:18:29.729Z</time></trkpt><trkpt lat="39.1676041" lon="20.9147422"><ele>12.0</ele><time>2026-05-02T13:18:30.73Z</time></trkpt><trkpt lat="39.1676664" lon="20.9144814"><ele>12.0</ele><time>2026-05-02T13:18:31.73Z</time></trkpt><trkpt lat="39.1677319" lon="20.9142035"><ele>12.0</ele><time>2026-05-02T13:18:32.729Z</time></trkpt><trkpt lat="39.1678004" lon="20.9139053"><ele>12.0</ele><time>2026-05-02T13:18:33.73Z</time></trkpt><trkpt lat="39.1678602" lon="20.9136428"><ele>12.0</ele><time>2026-05-02T13:18:34.73Z</time></trkpt><trkpt lat="39.1679275" lon="20.9133426"><ele>12.0</ele><time>2026-05-02T13:18:35.729Z</time></trkpt><trkpt lat="39.1679869" lon="20.9130785"><ele>12.0</ele><time>2026-05-02T13:18:36.729Z</time></trkpt><trkpt lat="39.1680508" lon="20.9127962"><ele>12.0</ele><time>2026-05-02T13:18:37.729Z</time></trkpt><trkpt lat="39.1681182" lon="20.9124952"><ele>11.666666666666666</ele><time>2026-05-02T13:18:38.73Z</time></trkpt><trkpt lat="39.1681774" lon="20.9122307"><ele>11.333333333333332</ele><time>2026-05-02T13:18:39.73Z</time></trkpt><trkpt lat="39.168241" lon="20.91195"><ele>11.0</ele><time>2026-05-02T13:18:40.73Z</time></trkpt><trkpt lat="39.1683038" lon="20.91167"><ele>10.5</ele><time>2026-05-02T13:18:41.73Z</time></trkpt><trkpt lat="39.1683668" lon="20.9113914"><ele>10.0</ele><time>2026-05-02T13:18:42.73Z</time></trkpt><trkpt lat="39.1684331" lon="20.9110962"><ele>10.333333333333334</ele><time>2026-05-02T13:18:43.73Z</time></trkpt><trkpt lat="39.1684913" lon="20.9108372"><ele>10.666666666666666</ele><time>2026-05-02T13:18:44.729Z</time></trkpt><trkpt lat="39.1685532" lon="20.9105615"><ele>11.0</ele><time>2026-05-02T13:18:45.73Z</time></trkpt><trkpt lat="39.1686188" lon="20.9102694"><ele>10.333333333333332</ele><time>2026-05-02T13:18:46.729Z</time></trkpt><trkpt lat="39.1686772" lon="20.9100141"><ele>9.666666666666666</ele><time>2026-05-02T13:18:47.73Z</time></trkpt><trkpt lat="39.1687398" lon="20.9097417"><ele>9.0</ele><time>2026-05-02T13:18:48.73Z</time></trkpt><trkpt lat="39.168805" lon="20.9094535"><ele>9.333333333333334</ele><time>2026-05-02T13:18:49.73Z</time></trkpt><trkpt lat="39.1688622" lon="20.9092022"><ele>9.666666666666668</ele><time>2026-05-02T13:18:50.73Z</time></trkpt><trkpt lat="39.1689266" lon="20.9089186"><ele>10.0</ele><time>2026-05-02T13:18:51.73Z</time></trkpt><trkpt lat="39.1689822" lon="20.9086723"><ele>10.0</ele><time>2026-05-02T13:18:52.729Z</time></trkpt><trkpt lat="39.1690427" lon="20.90841"><ele>10.0</ele><time>2026-05-02T13:18:53.73Z</time></trkpt><trkpt lat="39.1691073" lon="20.9081295"><ele>10.0</ele><time>2026-05-02T13:18:54.729Z</time></trkpt><trkpt lat="39.1691636" lon="20.9078813"><ele>10.0</ele><time>2026-05-02T13:18:55.73Z</time></trkpt><trkpt lat="39.1692222" lon="20.9076154"><ele>10.0</ele><time>2026-05-02T13:18:56.729Z</time></trkpt><trkpt lat="39.1692808" lon="20.9073489"><ele>10.0</ele><time>2026-05-02T13:18:57.729Z</time></trkpt><trkpt lat="39.16934" lon="20.9070812"><ele>10.0</ele><time>2026-05-02T13:18:58.729Z</time></trkpt><trkpt lat="39.1694045" lon="20.906796"><ele>10.0</ele><time>2026-05-02T13:18:59.73Z</time></trkpt><trkpt lat="39.1694613" lon="20.9065452"><ele>10.0</ele><time>2026-05-02T13:19:00.729Z</time></trkpt><trkpt lat="39.1695218" lon="20.9062748"><ele>10.666666666666668</ele><time>2026-05-02T13:19:01.73Z</time></trkpt><trkpt lat="39.1695868" lon="20.9059833"><ele>11.333333333333334</ele><time>2026-05-02T13:19:02.729Z</time></trkpt><trkpt lat="39.169645" lon="20.905723"><ele>12.0</ele><time>2026-05-02T13:19:03.73Z</time></trkpt><trkpt lat="39.1697091" lon="20.9054426"><ele>12.0</ele><time>2026-05-02T13:19:04.729Z</time></trkpt><trkpt lat="39.1697788" lon="20.90514"><ele>12.0</ele><time>2026-05-02T13:19:05.729Z</time></trkpt><trkpt lat="39.1698407" lon="20.9048737"><ele>12.0</ele><time>2026-05-02T13:19:06.73Z</time></trkpt><trkpt lat="39.1699108" lon="20.9045696"><ele>12.0</ele><time>2026-05-02T13:19:07.73Z</time></trkpt><trkpt lat="39.1699715" lon="20.904303"><ele>11.0</ele><time>2026-05-02T13:19:08.73Z</time></trkpt><trkpt lat="39.1700355" lon="20.9040202"><ele>10.0</ele><time>2026-05-02T13:19:09.729Z</time></trkpt><trkpt lat="39.1701029" lon="20.9037213"><ele>10.0</ele><time>2026-05-02T13:19:10.729Z</time></trkpt><trkpt lat="39.1701625" lon="20.9034612"><ele>10.0</ele><time>2026-05-02T13:19:11.729Z</time></trkpt><trkpt lat="39.1702263" lon="20.9031856"><ele>10.0</ele><time>2026-05-02T13:19:12.729Z</time></trkpt><trkpt lat="39.1702901" lon="20.9029107"><ele>10.0</ele><time>2026-05-02T13:19:13.73Z</time></trkpt><trkpt lat="39.1703525" lon="20.9026358"><ele>10.0</ele><time>2026-05-02T13:19:14.729Z</time></trkpt><trkpt lat="39.1704183" lon="20.9023421"><ele>10.0</ele><time>2026-05-02T13:19:15.729Z</time></trkpt><trkpt lat="39.1704765" lon="20.9020837"><ele>10.0</ele><time>2026-05-02T13:19:16.729Z</time></trkpt><trkpt lat="39.1705392" lon="20.9018089"><ele>10.0</ele><time>2026-05-02T13:19:17.729Z</time></trkpt><trkpt lat="39.1706052" lon="20.9015178"><ele>9.333333333333334</ele><time>2026-05-02T13:19:18.729Z</time></trkpt><trkpt lat="39.1706633" lon="20.9012627"><ele>8.666666666666666</ele><time>2026-05-02T13:19:19.729Z</time></trkpt><trkpt lat="39.1707247" lon="20.9009897"><ele>8.0</ele><time>2026-05-02T13:19:20.73Z</time></trkpt><trkpt lat="39.1707902" lon="20.9006973"><ele>8.0</ele><time>2026-05-02T13:19:21.73Z</time></trkpt><trkpt lat="39.1708477" lon="20.9004387"><ele>8.0</ele><time>2026-05-02T13:19:22.729Z</time></trkpt><trkpt lat="39.170914" lon="20.9001432"><ele>8.0</ele><time>2026-05-02T13:19:23.73Z</time></trkpt><trkpt lat="39.1709735" lon="20.8998825"><ele>8.0</ele><time>2026-05-02T13:19:24.73Z</time></trkpt><trkpt lat="39.1710371" lon="20.8996024"><ele>8.0</ele><time>2026-05-02T13:19:25.73Z</time></trkpt><trkpt lat="39.171105" lon="20.8993034"><ele>8.666666666666666</ele><time>2026-05-02T13:19:26.73Z</time></trkpt><trkpt lat="39.1711644" lon="20.89904"><ele>9.333333333333334</ele><time>2026-05-02T13:19:27.73Z</time></trkpt><trkpt lat="39.1712279" lon="20.8987597"><ele>10.0</ele><time>2026-05-02T13:19:28.729Z</time></trkpt><trkpt lat="39.1712903" lon="20.8984798"><ele>9.0</ele><time>2026-05-02T13:19:29.729Z</time></trkpt><trkpt lat="39.1713537" lon="20.898201"><ele>8.0</ele><time>2026-05-02T13:19:30.729Z</time></trkpt><trkpt lat="39.1714201" lon="20.8979049"><ele>8.0</ele><time>2026-05-02T13:19:31.729Z</time></trkpt><trkpt lat="39.1714781" lon="20.897645"><ele>8.0</ele><time>2026-05-02T13:19:32.73Z</time></trkpt><trkpt lat="39.1715422" lon="20.8973674"><ele>8.0</ele><time>2026-05-02T13:19:33.729Z</time></trkpt><trkpt lat="39.171612" lon="20.8970716"><ele>7.666666666666666</ele><time>2026-05-02T13:19:34.729Z</time></trkpt><trkpt lat="39.1716723" lon="20.8968117"><ele>7.333333333333334</ele><time>2026-05-02T13:19:35.729Z</time></trkpt><trkpt lat="39.1717359" lon="20.8965358"><ele>7.0</ele><time>2026-05-02T13:19:36.73Z</time></trkpt><trkpt lat="39.1718006" lon="20.8962421"><ele>7.0</ele><time>2026-05-02T13:19:37.729Z</time></trkpt><trkpt lat="39.1718569" lon="20.8959846"><ele>7.0</ele><time>2026-05-02T13:19:38.73Z</time></trkpt><trkpt lat="39.1719202" lon="20.8956935"><ele>7.0</ele><time>2026-05-02T13:19:39.73Z</time></trkpt><trkpt lat="39.1719776" lon="20.8954391"><ele>7.5</ele><time>2026-05-02T13:19:40.729Z</time></trkpt><trkpt lat="39.1720395" lon="20.8951683"><ele>8.0</ele><time>2026-05-02T13:19:41.729Z</time></trkpt><trkpt lat="39.1721049" lon="20.8948814"><ele>8.0</ele><time>2026-05-02T13:19:42.73Z</time></trkpt><trkpt lat="39.1721613" lon="20.8946305"><ele>8.0</ele><time>2026-05-02T13:19:43.73Z</time></trkpt><trkpt lat="39.1722223" lon="20.8943645"><ele>8.0</ele><time>2026-05-02T13:19:44.729Z</time></trkpt><trkpt lat="39.1722839" lon="20.8941021"><ele>7.666666666666666</ele><time>2026-05-02T13:19:45.729Z</time></trkpt><trkpt lat="39.1723448" lon="20.8938422"><ele>7.333333333333334</ele><time>2026-05-02T13:19:46.73Z</time></trkpt><trkpt lat="39.1724082" lon="20.8935691"><ele>7.0</ele><time>2026-05-02T13:19:47.729Z</time></trkpt><trkpt lat="39.1724638" lon="20.8933308"><ele>7.0</ele><time>2026-05-02T13:19:48.73Z</time></trkpt><trkpt lat="39.1725224" lon="20.8930782"><ele>7.0</ele><time>2026-05-02T13:19:49.729Z</time></trkpt><trkpt lat="39.1725831" lon="20.8928093"><ele>7.0</ele><time>2026-05-02T13:19:50.73Z</time></trkpt><trkpt lat="39.1726365" lon="20.8925748"><ele>7.0</ele><time>2026-05-02T13:19:51.729Z</time></trkpt><trkpt lat="39.1726962" lon="20.892327"><ele>7.0</ele><time>2026-05-02T13:19:52.729Z</time></trkpt><trkpt lat="39.1727647" lon="20.8920646"><ele>7.0</ele><time>2026-05-02T13:19:53.729Z</time></trkpt><trkpt lat="39.1728303" lon="20.8918345"><ele>7.0</ele><time>2026-05-02T13:19:54.73Z</time></trkpt><trkpt lat="39.1729129" lon="20.8915715"><ele>7.0</ele><time>2026-05-02T13:19:55.729Z</time></trkpt><trkpt lat="39.1729912" lon="20.891338"><ele>7.0</ele><time>2026-05-02T13:19:56.729Z</time></trkpt><trkpt lat="39.1730777" lon="20.8910895"><ele>6.333333333333334</ele><time>2026-05-02T13:19:57.729Z</time></trkpt><trkpt lat="39.1731747" lon="20.8908279"><ele>5.666666666666667</ele><time>2026-05-02T13:19:58.729Z</time></trkpt><trkpt lat="39.1732669" lon="20.8906026"><ele>5.0</ele><time>2026-05-02T13:19:59.729Z</time></trkpt><trkpt lat="39.1733724" lon="20.8903663"><ele>5.0</ele><time>2026-05-02T13:20:00.729Z</time></trkpt><trkpt lat="39.1734848" lon="20.8901336"><ele>5.0</ele><time>2026-05-02T13:20:01.73Z</time></trkpt><trkpt lat="39.1736025" lon="20.8899037"><ele>5.0</ele><time>2026-05-02T13:20:02.73Z</time></trkpt><trkpt lat="39.173731" lon="20.8896619"><ele>5.333333333333334</ele><time>2026-05-02T13:20:03.729Z</time></trkpt><trkpt lat="39.1738503" lon="20.8894524"><ele>5.666666666666667</ele><time>2026-05-02T13:20:04.729Z</time></trkpt><trkpt lat="39.1739846" lon="20.8892288"><ele>6.0</ele><time>2026-05-02T13:20:05.729Z</time></trkpt><trkpt lat="39.1741321" lon="20.8889973"><ele>6.333333333333334</ele><time>2026-05-02T13:20:06.73Z</time></trkpt><trkpt lat="39.1742679" lon="20.8887922"><ele>6.666666666666667</ele><time>2026-05-02T13:20:07.73Z</time></trkpt><trkpt lat="39.1744176" lon="20.8885771"><ele>7.0</ele><time>2026-05-02T13:20:08.729Z</time></trkpt><trkpt lat="39.1745782" lon="20.8883517"><ele>7.0</ele><time>2026-05-02T13:20:09.73Z</time></trkpt><trkpt lat="39.1747222" lon="20.8881567"><ele>7.0</ele><time>2026-05-02T13:20:10.729Z</time></trkpt><trkpt lat="39.1748859" lon="20.8879377"><ele>7.0</ele><time>2026-05-02T13:20:11.73Z</time></trkpt><trkpt lat="39.1750283" lon="20.8877486"><ele>6.0</ele><time>2026-05-02T13:20:12.73Z</time></trkpt><trkpt lat="39.1751793" lon="20.8875505"><ele>5.0</ele><time>2026-05-02T13:20:13.729Z</time></trkpt><trkpt lat="39.1753392" lon="20.8873465"><ele>4.0</ele><time>2026-05-02T13:20:14.73Z</time></trkpt><trkpt lat="39.1754797" lon="20.8871728"><ele>4.0</ele><time>2026-05-02T13:20:15.729Z</time></trkpt><trkpt lat="39.1756311" lon="20.8869957"><ele>4.0</ele><time>2026-05-02T13:20:16.73Z</time></trkpt><trkpt lat="39.1757889" lon="20.886827"><ele>4.0</ele><time>2026-05-02T13:20:17.729Z</time></trkpt><trkpt lat="39.1759553" lon="20.8866672"><ele>4.666666666666666</ele><time>2026-05-02T13:20:18.729Z</time></trkpt><trkpt lat="39.1761406" lon="20.8865091"><ele>5.333333333333333</ele><time>2026-05-02T13:20:19.729Z</time></trkpt><trkpt lat="39.1763092" lon="20.8863798"><ele>6.0</ele><time>2026-05-02T13:20:20.729Z</time></trkpt><trkpt lat="39.1764933" lon="20.8862489"><ele>6.0</ele><time>2026-05-02T13:20:21.729Z</time></trkpt><trkpt lat="39.1766928" lon="20.8861154"><ele>6.0</ele><time>2026-05-02T13:20:22.73Z</time></trkpt><trkpt lat="39.1768705" lon="20.8860002"><ele>6.0</ele><time>2026-05-02T13:20:23.729Z</time></trkpt><trkpt lat="39.1770619" lon="20.8858764"><ele>6.666666666666666</ele><time>2026-05-02T13:20:24.73Z</time></trkpt><trkpt lat="39.1772682" lon="20.8857439"><ele>7.333333333333333</ele><time>2026-05-02T13:20:25.729Z</time></trkpt><trkpt lat="39.1774525" lon="20.8856278"><ele>8.0</ele><time>2026-05-02T13:20:26.729Z</time></trkpt><trkpt lat="39.1776634" lon="20.885497"><ele>8.333333333333332</ele><time>2026-05-02T13:20:27.73Z</time></trkpt><trkpt lat="39.1778484" lon="20.8853816"><ele>8.666666666666666</ele><time>2026-05-02T13:20:28.729Z</time></trkpt><trkpt lat="39.1780458" lon="20.8852567"><ele>9.0</ele><time>2026-05-02T13:20:29.73Z</time></trkpt><trkpt lat="39.1782562" lon="20.8851228"><ele>8.0</ele><time>2026-05-02T13:20:30.729Z</time></trkpt><trkpt lat="39.1784427" lon="20.8850055"><ele>7.0</ele><time>2026-05-02T13:20:31.729Z</time></trkpt><trkpt lat="39.1786376" lon="20.884885"><ele>6.0</ele><time>2026-05-02T13:20:32.73Z</time></trkpt><trkpt lat="39.178824" lon="20.8847665"><ele>6.0</ele><time>2026-05-02T13:20:33.729Z</time></trkpt><trkpt lat="39.1789995" lon="20.8846551"><ele>6.0</ele><time>2026-05-02T13:20:34.729Z</time></trkpt><trkpt lat="39.1791701" lon="20.8845464"><ele>6.0</ele><time>2026-05-02T13:20:35.729Z</time></trkpt><trkpt lat="39.1793052" lon="20.884459"><ele>5.75</ele><time>2026-05-02T13:20:36.729Z</time></trkpt><trkpt lat="39.1794401" lon="20.8843731"><ele>5.5</ele><time>2026-05-02T13:20:37.729Z</time></trkpt><trkpt lat="39.1795751" lon="20.8842888"><ele>5.25</ele><time>2026-05-02T13:20:38.73Z</time></trkpt><trkpt lat="39.1796841" lon="20.884223"><ele>5.0</ele><time>2026-05-02T13:20:39.73Z</time></trkpt><trkpt lat="39.1797855" lon="20.884162"><ele>5.166666666666667</ele><time>2026-05-02T13:20:40.729Z</time></trkpt><trkpt lat="39.1798629" lon="20.8841143"><ele>5.333333333333334</ele><time>2026-05-02T13:20:41.73Z</time></trkpt><trkpt lat="39.1799228" lon="20.8840754"><ele>5.5</ele><time>2026-05-02T13:20:43.729Z</time></trkpt><trkpt lat="39.1799663" lon="20.8839911"><ele>5.666666666666667</ele><time>2026-05-02T13:20:49.73Z</time></trkpt><trkpt lat="39.1799723" lon="20.8839071"><ele>5.833333333333333</ele><time>2026-05-02T13:20:50.73Z</time></trkpt><trkpt lat="39.1799567" lon="20.8838106"><ele>6.0</ele><time>2026-05-02T13:20:51.729Z</time></trkpt><trkpt lat="39.179917" lon="20.883708"><ele>6.0</ele><time>2026-05-02T13:20:52.73Z</time></trkpt><trkpt lat="39.1798509" lon="20.8836031"><ele>6.0</ele><time>2026-05-02T13:20:53.73Z</time></trkpt><trkpt lat="39.1797545" lon="20.8835002"><ele>6.0</ele><time>2026-05-02T13:20:54.73Z</time></trkpt><trkpt lat="39.1796492" lon="20.883419"><ele>6.0</ele><time>2026-05-02T13:20:55.73Z</time></trkpt><trkpt lat="39.1795197" lon="20.8833414"><ele>7.666666666666666</ele><time>2026-05-02T13:20:56.73Z</time></trkpt><trkpt lat="39.1793656" lon="20.8832646"><ele>9.333333333333332</ele><time>2026-05-02T13:20:57.73Z</time></trkpt><trkpt lat="39.1792227" lon="20.8832"><ele>11.0</ele><time>2026-05-02T13:20:58.729Z</time></trkpt><trkpt lat="39.1790698" lon="20.8831269"><ele>10.333333333333332</ele><time>2026-05-02T13:20:59.729Z</time></trkpt><trkpt lat="39.1789223" lon="20.8830425"><ele>9.666666666666666</ele><time>2026-05-02T13:21:00.729Z</time></trkpt><trkpt lat="39.1787845" lon="20.8829349"><ele>9.0</ele><time>2026-05-02T13:21:01.73Z</time></trkpt><trkpt lat="39.1786508" lon="20.8827868"><ele>9.0</ele><time>2026-05-02T13:21:02.729Z</time></trkpt><trkpt lat="39.1785385" lon="20.8826226"><ele>9.0</ele><time>2026-05-02T13:21:03.73Z</time></trkpt><trkpt lat="39.178418" lon="20.8824226"><ele>9.0</ele><time>2026-05-02T13:21:04.729Z</time></trkpt><trkpt lat="39.1782989" lon="20.8822105"><ele>8.333333333333334</ele><time>2026-05-02T13:21:05.73Z</time></trkpt><trkpt lat="39.1781814" lon="20.8819995"><ele>7.666666666666667</ele><time>2026-05-02T13:21:06.73Z</time></trkpt><trkpt lat="39.1780647" lon="20.8817953"><ele>7.0</ele><time>2026-05-02T13:21:07.729Z</time></trkpt><trkpt lat="39.1779415" lon="20.8815998"><ele>8.666666666666668</ele><time>2026-05-02T13:21:08.729Z</time></trkpt><trkpt lat="39.1778028" lon="20.8814129"><ele>10.333333333333334</ele><time>2026-05-02T13:21:09.73Z</time></trkpt><trkpt lat="39.1776307" lon="20.8812263"><ele>12.0</ele><time>2026-05-02T13:21:10.73Z</time></trkpt><trkpt lat="39.177458" lon="20.8810683"><ele>12.5</ele><time>2026-05-02T13:21:11.73Z</time></trkpt><trkpt lat="39.1772628" lon="20.8809141"><ele>13.0</ele><time>2026-05-02T13:21:12.729Z</time></trkpt><trkpt lat="39.1770372" lon="20.8807529"><ele>13.0</ele><time>2026-05-02T13:21:13.73Z</time></trkpt><trkpt lat="39.1768279" lon="20.8806122"><ele>13.0</ele><time>2026-05-02T13:21:14.729Z</time></trkpt><trkpt lat="39.1765986" lon="20.8804563"><ele>10.5</ele><time>2026-05-02T13:21:15.729Z</time></trkpt><trkpt lat="39.176367" lon="20.8803007"><ele>8.0</ele><time>2026-05-02T13:21:16.729Z</time></trkpt><trkpt lat="39.1761379" lon="20.8801442"><ele>8.0</ele><time>2026-05-02T13:21:17.73Z</time></trkpt><trkpt lat="39.1758949" lon="20.8799768"><ele>8.0</ele><time>2026-05-02T13:21:18.73Z</time></trkpt><trkpt lat="39.1756824" lon="20.87983"><ele>8.0</ele><time>2026-05-02T13:21:19.73Z</time></trkpt><trkpt lat="39.1754563" lon="20.8796734"><ele>8.0</ele><time>2026-05-02T13:21:20.729Z</time></trkpt><trkpt lat="39.175232" lon="20.8795181"><ele>8.0</ele><time>2026-05-02T13:21:21.73Z</time></trkpt><trkpt lat="39.1750097" lon="20.8793645"><ele>8.0</ele><time>2026-05-02T13:21:22.73Z</time></trkpt><trkpt lat="39.1747903" lon="20.8792127"><ele>10.5</ele><time>2026-05-02T13:21:23.729Z</time></trkpt><trkpt lat="39.1745743" lon="20.8790641"><ele>13.0</ele><time>2026-05-02T13:21:24.729Z</time></trkpt><trkpt lat="39.1743624" lon="20.878916"><ele>13.0</ele><time>2026-05-02T13:21:25.729Z</time></trkpt><trkpt lat="39.1741454" lon="20.878756"><ele>13.0</ele><time>2026-05-02T13:21:26.73Z</time></trkpt><trkpt lat="39.1739649" lon="20.8786096"><ele>13.5</ele><time>2026-05-02T13:21:27.729Z</time></trkpt><trkpt lat="39.1737848" lon="20.8784406"><ele>14.0</ele><time>2026-05-02T13:21:28.729Z</time></trkpt><trkpt lat="39.1736076" lon="20.8782413"><ele>14.0</ele><time>2026-05-02T13:21:29.73Z</time></trkpt><trkpt lat="39.1734664" lon="20.8780446"><ele>14.0</ele><time>2026-05-02T13:21:30.729Z</time></trkpt><trkpt lat="39.1733273" lon="20.8778141"><ele>14.0</ele><time>2026-05-02T13:21:31.73Z</time></trkpt><trkpt lat="39.1731922" lon="20.8775692"><ele>12.0</ele><time>2026-05-02T13:21:32.729Z</time></trkpt><trkpt lat="39.1730577" lon="20.8773162"><ele>10.0</ele><time>2026-05-02T13:21:33.73Z</time></trkpt><trkpt lat="39.1729146" lon="20.877047"><ele>10.0</ele><time>2026-05-02T13:21:34.73Z</time></trkpt><trkpt lat="39.1727867" lon="20.8768147"><ele>10.0</ele><time>2026-05-02T13:21:35.73Z</time></trkpt><trkpt lat="39.1726377" lon="20.8765882"><ele>10.0</ele><time>2026-05-02T13:21:36.73Z</time></trkpt><trkpt lat="39.1724701" lon="20.8763836"><ele>10.0</ele><time>2026-05-02T13:21:37.73Z</time></trkpt><trkpt lat="39.1722815" lon="20.8762031"><ele>10.0</ele><time>2026-05-02T13:21:38.73Z</time></trkpt><trkpt lat="39.1720776" lon="20.8760448"><ele>10.0</ele><time>2026-05-02T13:21:39.729Z</time></trkpt><trkpt lat="39.1718645" lon="20.8759058"><ele>11.5</ele><time>2026-05-02T13:21:40.729Z</time></trkpt><trkpt lat="39.1716524" lon="20.8757825"><ele>13.0</ele><time>2026-05-02T13:21:41.73Z</time></trkpt><trkpt lat="39.1714303" lon="20.8756498"><ele>13.0</ele><time>2026-05-02T13:21:42.73Z</time></trkpt><trkpt lat="39.1712426" lon="20.8755116"><ele>13.0</ele><time>2026-05-02T13:21:43.729Z</time></trkpt><trkpt lat="39.1710517" lon="20.8753385"><ele>13.0</ele><time>2026-05-02T13:21:44.729Z</time></trkpt><trkpt lat="39.1708659" lon="20.8751228"><ele>12.5</ele><time>2026-05-02T13:21:45.729Z</time></trkpt><trkpt lat="39.1707211" lon="20.8749061"><ele>12.0</ele><time>2026-05-02T13:21:46.73Z</time></trkpt><trkpt lat="39.1705844" lon="20.8746436"><ele>12.0</ele><time>2026-05-02T13:21:47.73Z</time></trkpt><trkpt lat="39.1704577" lon="20.8743531"><ele>12.0</ele><time>2026-05-02T13:21:48.729Z</time></trkpt><trkpt lat="39.1703326" lon="20.8740414"><ele>12.0</ele><time>2026-05-02T13:21:49.729Z</time></trkpt><trkpt lat="39.1701959" lon="20.8736956"><ele>12.0</ele><time>2026-05-02T13:21:50.729Z</time></trkpt><trkpt lat="39.1700712" lon="20.8733886"><ele>12.0</ele><time>2026-05-02T13:21:51.73Z</time></trkpt><trkpt lat="39.169932" lon="20.8730624"><ele>12.0</ele><time>2026-05-02T13:21:52.729Z</time></trkpt><trkpt lat="39.1697866" lon="20.8727445"><ele>11.0</ele><time>2026-05-02T13:21:53.73Z</time></trkpt><trkpt lat="39.1696326" lon="20.8724327"><ele>10.0</ele><time>2026-05-02T13:21:54.729Z</time></trkpt><trkpt lat="39.1694715" lon="20.8721209"><ele>10.0</ele><time>2026-05-02T13:21:55.729Z</time></trkpt><trkpt lat="39.1693092" lon="20.8718081"><ele>10.0</ele><time>2026-05-02T13:21:56.73Z</time></trkpt><trkpt lat="39.1691469" lon="20.8714957"><ele>9.5</ele><time>2026-05-02T13:21:57.73Z</time></trkpt><trkpt lat="39.1689725" lon="20.8711655"><ele>9.0</ele><time>2026-05-02T13:21:58.73Z</time></trkpt><trkpt lat="39.1688155" lon="20.8708814"><ele>8.5</ele><time>2026-05-02T13:21:59.729Z</time></trkpt><trkpt lat="39.1686425" lon="20.8705871"><ele>8.0</ele><time>2026-05-02T13:22:00.729Z</time></trkpt><trkpt lat="39.168454" lon="20.870284"><ele>7.5</ele><time>2026-05-02T13:22:01.73Z</time></trkpt><trkpt lat="39.168283" lon="20.870027"><ele>7.0</ele><time>2026-05-02T13:22:02.729Z</time></trkpt><trkpt lat="39.1680956" lon="20.8697638"><ele>7.0</ele><time>2026-05-02T13:22:03.73Z</time></trkpt><trkpt lat="39.1679043" lon="20.869512"><ele>7.0</ele><time>2026-05-02T13:22:04.729Z</time></trkpt><trkpt lat="39.1677091" lon="20.8692716"><ele>8.5</ele><time>2026-05-02T13:22:05.729Z</time></trkpt><trkpt lat="39.1674962" lon="20.8690287"><ele>10.0</ele><time>2026-05-02T13:22:06.729Z</time></trkpt><trkpt lat="39.1673055" lon="20.8688244"><ele>10.0</ele><time>2026-05-02T13:22:07.73Z</time></trkpt><trkpt lat="39.1670976" lon="20.8686155"><ele>10.0</ele><time>2026-05-02T13:22:08.73Z</time></trkpt><trkpt lat="39.1668845" lon="20.8684141"><ele>10.5</ele><time>2026-05-02T13:22:09.729Z</time></trkpt><trkpt lat="39.1666703" lon="20.8682207"><ele>11.0</ele><time>2026-05-02T13:22:10.729Z</time></trkpt><trkpt lat="39.1664567" lon="20.8680349"><ele>10.0</ele><time>2026-05-02T13:22:11.73Z</time></trkpt><trkpt lat="39.1662465" lon="20.867858"><ele>9.0</ele><time>2026-05-02T13:22:12.73Z</time></trkpt><trkpt lat="39.1660385" lon="20.8676856"><ele>8.0</ele><time>2026-05-02T13:22:13.73Z</time></trkpt><trkpt lat="39.1658222" lon="20.8675019"><ele>7.0</ele><time>2026-05-02T13:22:14.73Z</time></trkpt><trkpt lat="39.1656348" lon="20.8673379"><ele>7.0</ele><time>2026-05-02T13:22:15.73Z</time></trkpt><trkpt lat="39.1654386" lon="20.867159"><ele>7.0</ele><time>2026-05-02T13:22:16.73Z</time></trkpt><trkpt lat="39.1652354" lon="20.8669628"><ele>7.0</ele><time>2026-05-02T13:22:17.73Z</time></trkpt><trkpt lat="39.1650611" lon="20.8667849"><ele>7.0</ele><time>2026-05-02T13:22:18.73Z</time></trkpt><trkpt lat="39.1648783" lon="20.8665872"><ele>9.0</ele><time>2026-05-02T13:22:19.73Z</time></trkpt><trkpt lat="39.1646961" lon="20.8663791"><ele>11.0</ele><time>2026-05-02T13:22:20.729Z</time></trkpt><trkpt lat="39.1645146" lon="20.8661588"><ele>13.0</ele><time>2026-05-02T13:22:21.73Z</time></trkpt><trkpt lat="39.1643187" lon="20.8659137"><ele>15.0</ele><time>2026-05-02T13:22:22.73Z</time></trkpt><trkpt lat="39.1641491" lon="20.8656924"><ele>12.0</ele><time>2026-05-02T13:22:23.729Z</time></trkpt><trkpt lat="39.1639679" lon="20.8654514"><ele>9.0</ele><time>2026-05-02T13:22:24.73Z</time></trkpt><trkpt lat="39.1637863" lon="20.8652085"><ele>9.5</ele><time>2026-05-02T13:22:25.729Z</time></trkpt><trkpt lat="39.1636034" lon="20.8649646"><ele>10.0</ele><time>2026-05-02T13:22:26.73Z</time></trkpt><trkpt lat="39.1634209" lon="20.8647232"><ele>10.0</ele><time>2026-05-02T13:22:27.73Z</time></trkpt><trkpt lat="39.1632377" lon="20.8644812"><ele>10.0</ele><time>2026-05-02T13:22:28.73Z</time></trkpt><trkpt lat="39.1630551" lon="20.8642405"><ele>9.0</ele><time>2026-05-02T13:22:29.73Z</time></trkpt><trkpt lat="39.1628614" lon="20.8639856"><ele>8.0</ele><time>2026-05-02T13:22:30.73Z</time></trkpt><trkpt lat="39.1626917" lon="20.8637626"><ele>8.0</ele><time>2026-05-02T13:22:31.73Z</time></trkpt><trkpt lat="39.1625102" lon="20.8635267"><ele>8.0</ele><time>2026-05-02T13:22:32.73Z</time></trkpt><trkpt lat="39.1623175" lon="20.8632766"><ele>8.5</ele><time>2026-05-02T13:22:33.73Z</time></trkpt><trkpt lat="39.1621504" lon="20.8630563"><ele>9.0</ele><time>2026-05-02T13:22:34.73Z</time></trkpt><trkpt lat="39.1619724" lon="20.8628214"><ele>12.0</ele><time>2026-05-02T13:22:35.73Z</time></trkpt><trkpt lat="39.1617955" lon="20.8625879"><ele>15.0</ele><time>2026-05-02T13:22:36.729Z</time></trkpt><trkpt lat="39.1616208" lon="20.8623555"><ele>14.0</ele><time>2026-05-02T13:22:37.73Z</time></trkpt><trkpt lat="39.1614374" lon="20.8621087"><ele>13.0</ele><time>2026-05-02T13:22:38.729Z</time></trkpt><trkpt lat="39.1612796" lon="20.8618867"><ele>16.5</ele><time>2026-05-02T13:22:39.73Z</time></trkpt><trkpt lat="39.1611166" lon="20.8616415"><ele>20.0</ele><time>2026-05-02T13:22:40.73Z</time></trkpt><trkpt lat="39.1609606" lon="20.8613891"><ele>20.0</ele><time>2026-05-02T13:22:41.729Z</time></trkpt><trkpt lat="39.1608098" lon="20.8611318"><ele>20.0</ele><time>2026-05-02T13:22:42.73Z</time></trkpt><trkpt lat="39.1606635" lon="20.8608719"><ele>20.5</ele><time>2026-05-02T13:22:43.73Z</time></trkpt><trkpt lat="39.1605221" lon="20.8606098"><ele>21.0</ele><time>2026-05-02T13:22:44.73Z</time></trkpt><trkpt lat="39.1603879" lon="20.8603443"><ele>22.0</ele><time>2026-05-02T13:22:45.729Z</time></trkpt><trkpt lat="39.1602523" lon="20.860056"><ele>23.0</ele><time>2026-05-02T13:22:46.73Z</time></trkpt><trkpt lat="39.1601376" lon="20.859796"><ele>23.0</ele><time>2026-05-02T13:22:47.73Z</time></trkpt><trkpt lat="39.160019" lon="20.8595097"><ele>23.0</ele><time>2026-05-02T13:22:48.729Z</time></trkpt><trkpt lat="39.1598953" lon="20.8591998"><ele>22.0</ele><time>2026-05-02T13:22:49.729Z</time></trkpt><trkpt lat="39.1597889" lon="20.8589242"><ele>21.0</ele><time>2026-05-02T13:22:50.73Z</time></trkpt><trkpt lat="39.1596754" lon="20.8586255"><ele>22.5</ele><time>2026-05-02T13:22:51.729Z</time></trkpt><trkpt lat="39.1595607" lon="20.8583226"><ele>24.0</ele><time>2026-05-02T13:22:52.729Z</time></trkpt><trkpt lat="39.1594433" lon="20.8580202"><ele>24.0</ele><time>2026-05-02T13:22:53.73Z</time></trkpt><trkpt lat="39.1593163" lon="20.8577001"><ele>24.0</ele><time>2026-05-02T13:22:54.73Z</time></trkpt><trkpt lat="39.1592036" lon="20.8574205"><ele>25.0</ele><time>2026-05-02T13:22:55.73Z</time></trkpt><trkpt lat="39.1590847" lon="20.8571233"><ele>26.0</ele><time>2026-05-02T13:22:56.73Z</time></trkpt><trkpt lat="39.1589669" lon="20.8568278"><ele>24.5</ele><time>2026-05-02T13:22:57.729Z</time></trkpt><trkpt lat="39.1588494" lon="20.8565339"><ele>23.0</ele><time>2026-05-02T13:22:58.729Z</time></trkpt><trkpt lat="39.1587325" lon="20.8562404"><ele>23.5</ele><time>2026-05-02T13:22:59.729Z</time></trkpt><trkpt lat="39.1586163" lon="20.8559477"><ele>24.0</ele><time>2026-05-02T13:23:00.73Z</time></trkpt><trkpt lat="39.1585028" lon="20.8556595"><ele>24.0</ele><time>2026-05-02T13:23:01.73Z</time></trkpt><trkpt lat="39.1583842" lon="20.8553588"><ele>24.0</ele><time>2026-05-02T13:23:02.73Z</time></trkpt><trkpt lat="39.1582824" lon="20.855098"><ele>23.5</ele><time>2026-05-02T13:23:03.729Z</time></trkpt><trkpt lat="39.1581801" lon="20.8548302"><ele>23.0</ele><time>2026-05-02T13:23:04.73Z</time></trkpt><trkpt lat="39.1580859" lon="20.854571"><ele>23.0</ele><time>2026-05-02T13:23:05.729Z</time></trkpt><trkpt lat="39.1580068" lon="20.8543236"><ele>23.0</ele><time>2026-05-02T13:23:06.729Z</time></trkpt><trkpt lat="39.1579515" lon="20.8540812"><ele>23.0</ele><time>2026-05-02T13:23:07.729Z</time></trkpt><trkpt lat="39.1579221" lon="20.8538384"><ele>25.0</ele><time>2026-05-02T13:23:08.73Z</time></trkpt><trkpt lat="39.1579224" lon="20.8535924"><ele>27.0</ele><time>2026-05-02T13:23:09.729Z</time></trkpt><trkpt lat="39.1579571" lon="20.8533472"><ele>29.0</ele><time>2026-05-02T13:23:10.729Z</time></trkpt><trkpt lat="39.1580218" lon="20.8531369"><ele>29.0</ele><time>2026-05-02T13:23:11.73Z</time></trkpt><trkpt lat="39.1581266" lon="20.8529132"><ele>29.0</ele><time>2026-05-02T13:23:12.73Z</time></trkpt><trkpt lat="39.1582664" lon="20.8526855"><ele>29.0</ele><time>2026-05-02T13:23:13.729Z</time></trkpt><trkpt lat="39.1584326" lon="20.8524473"><ele>30.5</ele><time>2026-05-02T13:23:14.73Z</time></trkpt><trkpt lat="39.1586108" lon="20.8522062"><ele>32.0</ele><time>2026-05-02T13:23:15.73Z</time></trkpt><trkpt lat="39.158794" lon="20.8519642"><ele>29.5</ele><time>2026-05-02T13:23:16.729Z</time></trkpt><trkpt lat="39.158978" lon="20.8517225"><ele>27.0</ele><time>2026-05-02T13:23:17.73Z</time></trkpt><trkpt lat="39.1591748" lon="20.8514639"><ele>27.0</ele><time>2026-05-02T13:23:18.729Z</time></trkpt><trkpt lat="39.1593476" lon="20.8512372"><ele>27.0</ele><time>2026-05-02T13:23:19.73Z</time></trkpt><trkpt lat="39.1595311" lon="20.8509947"><ele>23.5</ele><time>2026-05-02T13:23:20.73Z</time></trkpt><trkpt lat="39.1597241" lon="20.85074"><ele>20.0</ele><time>2026-05-02T13:23:21.73Z</time></trkpt><trkpt lat="39.1598875" lon="20.8505246"><ele>20.0</ele><time>2026-05-02T13:23:22.73Z</time></trkpt><trkpt lat="39.1600574" lon="20.850302"><ele>20.0</ele><time>2026-05-02T13:23:23.729Z</time></trkpt><trkpt lat="39.1602236" lon="20.8500869"><ele>16.0</ele><time>2026-05-02T13:23:24.729Z</time></trkpt><trkpt lat="39.1603841" lon="20.8498783"><ele>12.0</ele><time>2026-05-02T13:23:25.729Z</time></trkpt><trkpt lat="39.1605524" lon="20.8496535"><ele>12.5</ele><time>2026-05-02T13:23:26.73Z</time></trkpt><trkpt lat="39.1607021" lon="20.8494482"><ele>13.0</ele><time>2026-05-02T13:23:27.73Z</time></trkpt><trkpt lat="39.1608681" lon="20.849221"><ele>13.5</ele><time>2026-05-02T13:23:28.73Z</time></trkpt><trkpt lat="39.1610385" lon="20.8489897"><ele>14.0</ele><time>2026-05-02T13:23:29.73Z</time></trkpt><trkpt lat="39.161216" lon="20.8487534"><ele>14.0</ele><time>2026-05-02T13:23:30.729Z</time></trkpt><trkpt lat="39.1613965" lon="20.8485149"><ele>14.0</ele><time>2026-05-02T13:23:31.73Z</time></trkpt><trkpt lat="39.1615807" lon="20.8482763"><ele>15.0</ele><time>2026-05-02T13:23:32.729Z</time></trkpt><trkpt lat="39.1617665" lon="20.848041"><ele>16.0</ele><time>2026-05-02T13:23:33.729Z</time></trkpt><trkpt lat="39.1619626" lon="20.8477956"><ele>13.0</ele><time>2026-05-02T13:23:34.73Z</time></trkpt><trkpt lat="39.1621321" lon="20.8475801"><ele>10.0</ele><time>2026-05-02T13:23:35.73Z</time></trkpt><trkpt lat="39.1623097" lon="20.8473517"><ele>16.0</ele><time>2026-05-02T13:23:36.729Z</time></trkpt><trkpt lat="39.1624978" lon="20.8471069"><ele>22.0</ele><time>2026-05-02T13:23:37.73Z</time></trkpt><trkpt lat="39.1626619" lon="20.8468918"><ele>18.0</ele><time>2026-05-02T13:23:38.73Z</time></trkpt><trkpt lat="39.1628343" lon="20.8466652"><ele>14.0</ele><time>2026-05-02T13:23:39.73Z</time></trkpt><trkpt lat="39.1630076" lon="20.8464389"><ele>14.0</ele><time>2026-05-02T13:23:40.73Z</time></trkpt><trkpt lat="39.1631837" lon="20.8462082"><ele>14.0</ele><time>2026-05-02T13:23:41.729Z</time></trkpt><trkpt lat="39.1633721" lon="20.8459592"><ele>15.5</ele><time>2026-05-02T13:23:42.729Z</time></trkpt><trkpt lat="39.163538" lon="20.8457386"><ele>17.0</ele><time>2026-05-02T13:23:43.73Z</time></trkpt><trkpt lat="39.1637173" lon="20.8455017"><ele>17.0</ele><time>2026-05-02T13:23:44.73Z</time></trkpt><trkpt lat="39.1638944" lon="20.8452638"><ele>17.0</ele><time>2026-05-02T13:23:45.73Z</time></trkpt><trkpt lat="39.1640749" lon="20.8450216"><ele>18.0</ele><time>2026-05-02T13:23:46.729Z</time></trkpt><trkpt lat="39.1642624" lon="20.8447727"><ele>19.0</ele><time>2026-05-02T13:23:47.73Z</time></trkpt><trkpt lat="39.1644588" lon="20.8445194"><ele>20.0</ele><time>2026-05-02T13:23:48.73Z</time></trkpt><trkpt lat="39.1646599" lon="20.8442661"><ele>21.0</ele><time>2026-05-02T13:23:49.729Z</time></trkpt><trkpt lat="39.1648746" lon="20.8439944"><ele>22.5</ele><time>2026-05-02T13:23:50.73Z</time></trkpt><trkpt lat="39.165065" lon="20.8437533"><ele>24.0</ele><time>2026-05-02T13:23:51.73Z</time></trkpt><trkpt lat="39.1652676" lon="20.8434943"><ele>21.5</ele><time>2026-05-02T13:23:52.729Z</time></trkpt><trkpt lat="39.16548" lon="20.8432172"><ele>19.0</ele><time>2026-05-02T13:23:53.73Z</time></trkpt><trkpt lat="39.1656647" lon="20.8429743"><ele>18.0</ele><time>2026-05-02T13:23:54.73Z</time></trkpt><trkpt lat="39.1658614" lon="20.8427152"><ele>17.0</ele><time>2026-05-02T13:23:55.73Z</time></trkpt><trkpt lat="39.1660578" lon="20.8424597"><ele>11.5</ele><time>2026-05-02T13:23:56.73Z</time></trkpt><trkpt lat="39.1662526" lon="20.8422076"><ele>6.0</ele><time>2026-05-02T13:23:57.729Z</time></trkpt><trkpt lat="39.1664462" lon="20.8419571"><ele>8.5</ele><time>2026-05-02T13:23:58.729Z</time></trkpt><trkpt lat="39.1666312" lon="20.8417166"><ele>11.0</ele><time>2026-05-02T13:23:59.729Z</time></trkpt><trkpt lat="39.1668152" lon="20.8414792"><ele>11.0</ele><time>2026-05-02T13:24:00.729Z</time></trkpt><trkpt lat="39.1669792" lon="20.8412681"><ele>11.0</ele><time>2026-05-02T13:24:01.73Z</time></trkpt><trkpt lat="39.1671597" lon="20.8410376"><ele>10.0</ele><time>2026-05-02T13:24:02.729Z</time></trkpt><trkpt lat="39.1673246" lon="20.8408242"><ele>9.0</ele><time>2026-05-02T13:24:03.73Z</time></trkpt><trkpt lat="39.1674797" lon="20.8406079"><ele>9.0</ele><time>2026-05-02T13:24:04.729Z</time></trkpt><trkpt lat="39.1676219" lon="20.8403872"><ele>9.0</ele><time>2026-05-02T13:24:05.729Z</time></trkpt><trkpt lat="39.1677501" lon="20.8401555"><ele>9.0</ele><time>2026-05-02T13:24:06.73Z</time></trkpt><trkpt lat="39.1678606" lon="20.8399084"><ele>7.333333333333333</ele><time>2026-05-02T13:24:07.73Z</time></trkpt><trkpt lat="39.1679461" lon="20.8396479"><ele>5.666666666666666</ele><time>2026-05-02T13:24:08.73Z</time></trkpt><trkpt lat="39.1680028" lon="20.8393781"><ele>4.0</ele><time>2026-05-02T13:24:09.729Z</time></trkpt><trkpt lat="39.1680309" lon="20.8391013"><ele>4.0</ele><time>2026-05-02T13:24:10.729Z</time></trkpt><trkpt lat="39.168034" lon="20.8388209"><ele>4.0</ele><time>2026-05-02T13:24:11.729Z</time></trkpt><trkpt lat="39.1680131" lon="20.8385442"><ele>4.0</ele><time>2026-05-02T13:24:12.729Z</time></trkpt><trkpt lat="39.1679681" lon="20.8382751"><ele>4.0</ele><time>2026-05-02T13:24:13.73Z</time></trkpt><trkpt lat="39.1678952" lon="20.8380062"><ele>4.0</ele><time>2026-05-02T13:24:14.729Z</time></trkpt><trkpt lat="39.1678075" lon="20.8377825"><ele>4.0</ele><time>2026-05-02T13:24:15.729Z</time></trkpt><trkpt lat="39.1676905" lon="20.8375554"><ele>5.0</ele><time>2026-05-02T13:24:16.73Z</time></trkpt><trkpt lat="39.1675517" lon="20.8373383"><ele>6.0</ele><time>2026-05-02T13:24:17.73Z</time></trkpt><trkpt lat="39.1673962" lon="20.8371303"><ele>7.0</ele><time>2026-05-02T13:24:18.73Z</time></trkpt><trkpt lat="39.1672371" lon="20.8369307"><ele>5.333333333333334</ele><time>2026-05-02T13:24:19.73Z</time></trkpt><trkpt lat="39.1670823" lon="20.8367328"><ele>3.666666666666667</ele><time>2026-05-02T13:24:20.729Z</time></trkpt><trkpt lat="39.1669402" lon="20.8365359"><ele>2.0</ele><time>2026-05-02T13:24:21.729Z</time></trkpt><trkpt lat="39.1668026" lon="20.8363186"><ele>2.0</ele><time>2026-05-02T13:24:22.729Z</time></trkpt><trkpt lat="39.166694" lon="20.8361157"><ele>2.0</ele><time>2026-05-02T13:24:23.73Z</time></trkpt><trkpt lat="39.1665904" lon="20.8358881"><ele>2.0</ele><time>2026-05-02T13:24:24.729Z</time></trkpt><trkpt lat="39.1664952" lon="20.8356338"><ele>1.3333333333333333</ele><time>2026-05-02T13:24:25.729Z</time></trkpt><trkpt lat="39.1664257" lon="20.8354032"><ele>0.6666666666666666</ele><time>2026-05-02T13:24:26.73Z</time></trkpt><trkpt lat="39.1663648" lon="20.8351508"><ele>0.0</ele><time>2026-05-02T13:24:27.73Z</time></trkpt><trkpt lat="39.1663188" lon="20.8348943"><ele>1.3333333333333333</ele><time>2026-05-02T13:24:28.73Z</time></trkpt><trkpt lat="39.1662883" lon="20.8346378"><ele>2.6666666666666665</ele><time>2026-05-02T13:24:29.73Z</time></trkpt><trkpt lat="39.1662736" lon="20.8343746"><ele>4.0</ele><time>2026-05-02T13:24:30.73Z</time></trkpt><trkpt lat="39.1662725" lon="20.8341255"><ele>4.0</ele><time>2026-05-02T13:24:31.73Z</time></trkpt><trkpt lat="39.1662838" lon="20.8338409"><ele>4.0</ele><time>2026-05-02T13:24:32.73Z</time></trkpt><trkpt lat="39.1663109" lon="20.8335504"><ele>4.0</ele><time>2026-05-02T13:24:33.73Z</time></trkpt><trkpt lat="39.166357" lon="20.8332082"><ele>4.5</ele><time>2026-05-02T13:24:34.729Z</time></trkpt><trkpt lat="39.1664056" lon="20.8329029"><ele>5.0</ele><time>2026-05-02T13:24:35.73Z</time></trkpt><trkpt lat="39.1664534" lon="20.8326183"><ele>2.666666666666667</ele><time>2026-05-02T13:24:36.73Z</time></trkpt><trkpt lat="39.1664971" lon="20.8323546"><ele>0.3333333333333335</ele><time>2026-05-02T13:24:37.729Z</time></trkpt><trkpt lat="39.1665362" lon="20.8321026"><ele>-2.0</ele><time>2026-05-02T13:24:38.729Z</time></trkpt><trkpt lat="39.1665704" lon="20.8318499"><ele>4.333333333333334</ele><time>2026-05-02T13:24:39.73Z</time></trkpt><trkpt lat="39.1666082" lon="20.8316003"><ele>10.666666666666668</ele><time>2026-05-02T13:24:40.73Z</time></trkpt><trkpt lat="39.1666579" lon="20.8313565"><ele>17.0</ele><time>2026-05-02T13:24:41.73Z</time></trkpt><trkpt lat="39.1667234" lon="20.8311007"><ele>14.0</ele><time>2026-05-02T13:24:42.729Z</time></trkpt><trkpt lat="39.166808" lon="20.8308317"><ele>11.0</ele><time>2026-05-02T13:24:43.729Z</time></trkpt><trkpt lat="39.1669134" lon="20.8305579"><ele>11.0</ele><time>2026-05-02T13:24:44.73Z</time></trkpt><trkpt lat="39.1670374" lon="20.8302834"><ele>11.0</ele><time>2026-05-02T13:24:45.73Z</time></trkpt><trkpt lat="39.1671782" lon="20.8299972"><ele>7.5</ele><time>2026-05-02T13:24:46.729Z</time></trkpt><trkpt lat="39.1673044" lon="20.8297454"><ele>4.0</ele><time>2026-05-02T13:24:47.73Z</time></trkpt><trkpt lat="39.1674362" lon="20.8294826"><ele>9.0</ele><time>2026-05-02T13:24:48.729Z</time></trkpt><trkpt lat="39.1675549" lon="20.8292453"><ele>14.0</ele><time>2026-05-02T13:24:49.73Z</time></trkpt><trkpt lat="39.167682" lon="20.828986"><ele>14.0</ele><time>2026-05-02T13:24:50.73Z</time></trkpt><trkpt lat="39.1677931" lon="20.8287487"><ele>14.0</ele><time>2026-05-02T13:24:51.729Z</time></trkpt><trkpt lat="39.1678917" lon="20.8285184"><ele>14.0</ele><time>2026-05-02T13:24:52.729Z</time></trkpt><trkpt lat="39.1679769" lon="20.8282884"><ele>12.0</ele><time>2026-05-02T13:24:53.73Z</time></trkpt><trkpt lat="39.1680412" lon="20.828057"><ele>10.0</ele><time>2026-05-02T13:24:54.73Z</time></trkpt><trkpt lat="39.1680815" lon="20.827821"><ele>8.0</ele><time>2026-05-02T13:24:55.729Z</time></trkpt><trkpt lat="39.1680998" lon="20.8275895"><ele>6.333333333333333</ele><time>2026-05-02T13:24:56.73Z</time></trkpt><trkpt lat="39.1681061" lon="20.8273621"><ele>4.666666666666666</ele><time>2026-05-02T13:24:57.729Z</time></trkpt><trkpt lat="39.1681138" lon="20.8271336"><ele>3.0</ele><time>2026-05-02T13:24:58.73Z</time></trkpt><trkpt lat="39.1681345" lon="20.8268965"><ele>3.333333333333333</ele><time>2026-05-02T13:24:59.729Z</time></trkpt><trkpt lat="39.168169" lon="20.8266511"><ele>3.6666666666666665</ele><time>2026-05-02T13:25:00.73Z</time></trkpt><trkpt lat="39.1682129" lon="20.8264096"><ele>4.0</ele><time>2026-05-02T13:25:01.73Z</time></trkpt><trkpt lat="39.1682654" lon="20.8261696"><ele>5.333333333333333</ele><time>2026-05-02T13:25:02.73Z</time></trkpt><trkpt lat="39.1683253" lon="20.8259363"><ele>6.666666666666666</ele><time>2026-05-02T13:25:03.729Z</time></trkpt><trkpt lat="39.1683958" lon="20.8257156"><ele>8.0</ele><time>2026-05-02T13:25:04.73Z</time></trkpt><trkpt lat="39.1684762" lon="20.8255236"><ele>8.0</ele><time>2026-05-02T13:25:05.73Z</time></trkpt><trkpt lat="39.168584" lon="20.8253264"><ele>8.0</ele><time>2026-05-02T13:25:06.729Z</time></trkpt><trkpt lat="39.1686987" lon="20.8251627"><ele>8.0</ele><time>2026-05-02T13:25:07.729Z</time></trkpt><trkpt lat="39.1688246" lon="20.8250159"><ele>6.333333333333333</ele><time>2026-05-02T13:25:08.729Z</time></trkpt><trkpt lat="39.168966" lon="20.8248835"><ele>4.666666666666666</ele><time>2026-05-02T13:25:09.73Z</time></trkpt><trkpt lat="39.1691198" lon="20.824764"><ele>3.0</ele><time>2026-05-02T13:25:10.73Z</time></trkpt><trkpt lat="39.1692881" lon="20.8246573"><ele>6.333333333333333</ele><time>2026-05-02T13:25:11.729Z</time></trkpt><trkpt lat="39.1694692" lon="20.8245594"><ele>9.666666666666666</ele><time>2026-05-02T13:25:12.73Z</time></trkpt><trkpt lat="39.1696608" lon="20.8244687"><ele>13.0</ele><time>2026-05-02T13:25:13.729Z</time></trkpt><trkpt lat="39.1698573" lon="20.8243799"><ele>11.0</ele><time>2026-05-02T13:25:14.73Z</time></trkpt><trkpt lat="39.1700519" lon="20.8242923"><ele>9.0</ele><time>2026-05-02T13:25:15.729Z</time></trkpt><trkpt lat="39.17024" lon="20.824201"><ele>7.0</ele><time>2026-05-02T13:25:16.73Z</time></trkpt><trkpt lat="39.1704232" lon="20.8241009"><ele>7.0</ele><time>2026-05-02T13:25:17.73Z</time></trkpt><trkpt lat="39.1706033" lon="20.8239834"><ele>7.0</ele><time>2026-05-02T13:25:18.729Z</time></trkpt><trkpt lat="39.1707848" lon="20.8238475"><ele>7.0</ele><time>2026-05-02T13:25:19.73Z</time></trkpt><trkpt lat="39.1709732" lon="20.8236884"><ele>6.0</ele><time>2026-05-02T13:25:20.729Z</time></trkpt><trkpt lat="39.1711578" lon="20.8235196"><ele>5.0</ele><time>2026-05-02T13:25:21.73Z</time></trkpt><trkpt lat="39.1713764" lon="20.8233074"><ele>12.5</ele><time>2026-05-02T13:25:22.73Z</time></trkpt><trkpt lat="39.1715864" lon="20.8230979"><ele>20.0</ele><time>2026-05-02T13:25:23.729Z</time></trkpt><trkpt lat="39.1717939" lon="20.8228885"><ele>20.0</ele><time>2026-05-02T13:25:24.73Z</time></trkpt><trkpt lat="39.1719963" lon="20.8226844"><ele>20.0</ele><time>2026-05-02T13:25:25.729Z</time></trkpt><trkpt lat="39.1721947" lon="20.8224803"><ele>20.0</ele><time>2026-05-02T13:25:26.729Z</time></trkpt><trkpt lat="39.172394" lon="20.8222734"><ele>20.0</ele><time>2026-05-02T13:25:27.729Z</time></trkpt><trkpt lat="39.1725947" lon="20.8220677"><ele>20.0</ele><time>2026-05-02T13:25:28.729Z</time></trkpt><trkpt lat="39.1727924" lon="20.8218701"><ele>20.0</ele><time>2026-05-02T13:25:29.73Z</time></trkpt><trkpt lat="39.1729829" lon="20.8216841"><ele>21.666666666666668</ele><time>2026-05-02T13:25:30.729Z</time></trkpt><trkpt lat="39.1731647" lon="20.8215091"><ele>23.333333333333336</ele><time>2026-05-02T13:25:31.729Z</time></trkpt><trkpt lat="39.1733376" lon="20.8213427"><ele>25.0</ele><time>2026-05-02T13:25:32.73Z</time></trkpt><trkpt lat="39.1735018" lon="20.8211813"><ele>25.0</ele><time>2026-05-02T13:25:33.729Z</time></trkpt><trkpt lat="39.1736582" lon="20.821021"><ele>25.0</ele><time>2026-05-02T13:25:34.73Z</time></trkpt><trkpt lat="39.1738085" lon="20.8208566"><ele>25.0</ele><time>2026-05-02T13:25:35.729Z</time></trkpt><trkpt lat="39.1739507" lon="20.8206828"><ele>22.0</ele><time>2026-05-02T13:25:36.729Z</time></trkpt><trkpt lat="39.1740763" lon="20.8205071"><ele>19.0</ele><time>2026-05-02T13:25:37.729Z</time></trkpt><trkpt lat="39.1742079" lon="20.82029"><ele>16.0</ele><time>2026-05-02T13:25:38.73Z</time></trkpt><trkpt lat="39.1743171" lon="20.8200684"><ele>12.0</ele><time>2026-05-02T13:25:39.73Z</time></trkpt><trkpt lat="39.1744082" lon="20.8198351"><ele>8.0</ele><time>2026-05-02T13:25:40.73Z</time></trkpt><trkpt lat="39.1744825" lon="20.8195863"><ele>4.0</ele><time>2026-05-02T13:25:41.729Z</time></trkpt><trkpt lat="39.1745422" lon="20.8193257"><ele>4.333333333333333</ele><time>2026-05-02T13:25:42.73Z</time></trkpt><trkpt lat="39.1745915" lon="20.8190593"><ele>4.666666666666667</ele><time>2026-05-02T13:25:43.73Z</time></trkpt><trkpt lat="39.1746318" lon="20.8187936"><ele>5.0</ele><time>2026-05-02T13:25:44.729Z</time></trkpt><trkpt lat="39.1746652" lon="20.8185276"><ele>4.333333333333334</ele><time>2026-05-02T13:25:45.729Z</time></trkpt><trkpt lat="39.1746951" lon="20.8182613"><ele>3.666666666666667</ele><time>2026-05-02T13:25:46.73Z</time></trkpt><trkpt lat="39.1747226" lon="20.8179913"><ele>3.0</ele><time>2026-05-02T13:25:47.73Z</time></trkpt><trkpt lat="39.1747515" lon="20.8177129"><ele>3.0</ele><time>2026-05-02T13:25:48.73Z</time></trkpt><trkpt lat="39.1747823" lon="20.8174262"><ele>3.0</ele><time>2026-05-02T13:25:49.729Z</time></trkpt><trkpt lat="39.1748137" lon="20.8171359"><ele>3.0</ele><time>2026-05-02T13:25:50.73Z</time></trkpt><trkpt lat="39.1748447" lon="20.8168456"><ele>3.0</ele><time>2026-05-02T13:25:51.729Z</time></trkpt><trkpt lat="39.1748751" lon="20.8165582"><ele>5.0</ele><time>2026-05-02T13:25:52.73Z</time></trkpt><trkpt lat="39.1749017" lon="20.8162993"><ele>7.0</ele><time>2026-05-02T13:25:53.73Z</time></trkpt><trkpt lat="39.1749303" lon="20.8160168"><ele>9.0</ele><time>2026-05-02T13:25:54.73Z</time></trkpt><trkpt lat="39.1749556" lon="20.8157613"><ele>9.0</ele><time>2026-05-02T13:25:55.729Z</time></trkpt><trkpt lat="39.1749807" lon="20.8155175"><ele>9.0</ele><time>2026-05-02T13:25:56.729Z</time></trkpt><trkpt lat="39.1750052" lon="20.8152836"><ele>9.0</ele><time>2026-05-02T13:25:57.729Z</time></trkpt><trkpt lat="39.1750287" lon="20.81506"><ele>8.666666666666666</ele><time>2026-05-02T13:25:58.729Z</time></trkpt><trkpt lat="39.1750505" lon="20.8148562"><ele>8.333333333333332</ele><time>2026-05-02T13:25:59.73Z</time></trkpt><trkpt lat="39.175071" lon="20.8146646"><ele>8.0</ele><time>2026-05-02T13:26:00.729Z</time></trkpt><trkpt lat="39.1750901" lon="20.8144775"><ele>8.0</ele><time>2026-05-02T13:26:01.729Z</time></trkpt><trkpt lat="39.1751103" lon="20.8142907"><ele>8.0</ele><time>2026-05-02T13:26:02.73Z</time></trkpt><trkpt lat="39.1751293" lon="20.8140987"><ele>8.0</ele><time>2026-05-02T13:26:03.73Z</time></trkpt><trkpt lat="39.175148" lon="20.81389"><ele>8.0</ele><time>2026-05-02T13:26:04.73Z</time></trkpt><trkpt lat="39.1751694" lon="20.8136636"><ele>8.0</ele><time>2026-05-02T13:26:05.73Z</time></trkpt><trkpt lat="39.1751945" lon="20.8134313"><ele>8.0</ele><time>2026-05-02T13:26:06.73Z</time></trkpt><trkpt lat="39.1752187" lon="20.813212"><ele>7.75</ele><time>2026-05-02T13:26:07.73Z</time></trkpt><trkpt lat="39.1752358" lon="20.813017"><ele>7.5</ele><time>2026-05-02T13:26:08.73Z</time></trkpt><trkpt lat="39.1752481" lon="20.8128564"><ele>7.25</ele><time>2026-05-02T13:26:09.73Z</time></trkpt><trkpt lat="39.1752569" lon="20.8126743"><ele>7.0</ele><time>2026-05-02T13:26:10.729Z</time></trkpt><trkpt lat="39.1752647" lon="20.8125317"><ele>6.6</ele><time>2026-05-02T13:26:11.729Z</time></trkpt><trkpt lat="39.1752762" lon="20.8124017"><ele>6.199999999999999</ele><time>2026-05-02T13:26:12.73Z</time></trkpt><trkpt lat="39.1752883" lon="20.8122715"><ele>5.8</ele><time>2026-05-02T13:26:13.729Z</time></trkpt><trkpt lat="39.1752972" lon="20.8121298"><ele>5.4</ele><time>2026-05-02T13:26:14.729Z</time></trkpt><trkpt lat="39.1752956" lon="20.811965"><ele>5.0</ele><time>2026-05-02T13:26:15.73Z</time></trkpt><trkpt lat="39.1752845" lon="20.8117576"><ele>5.0</ele><time>2026-05-02T13:26:16.729Z</time></trkpt><trkpt lat="39.1752733" lon="20.8115248"><ele>5.0</ele><time>2026-05-02T13:26:17.73Z</time></trkpt><trkpt lat="39.17526" lon="20.8112565"><ele>5.0</ele><time>2026-05-02T13:26:18.73Z</time></trkpt><trkpt lat="39.1752389" lon="20.8109692"><ele>5.0</ele><time>2026-05-02T13:26:19.729Z</time></trkpt><trkpt lat="39.1752047" lon="20.8106637"><ele>5.0</ele><time>2026-05-02T13:26:20.729Z</time></trkpt><trkpt lat="39.1751619" lon="20.8103461"><ele>6.0</ele><time>2026-05-02T13:26:21.73Z</time></trkpt><trkpt lat="39.1751163" lon="20.8100269"><ele>7.0</ele><time>2026-05-02T13:26:22.73Z</time></trkpt><trkpt lat="39.1750711" lon="20.809714"><ele>7.0</ele><time>2026-05-02T13:26:23.73Z</time></trkpt><trkpt lat="39.1750274" lon="20.809409"><ele>7.0</ele><time>2026-05-02T13:26:24.729Z</time></trkpt><trkpt lat="39.1749862" lon="20.8091295"><ele>8.0</ele><time>2026-05-02T13:26:25.729Z</time></trkpt><trkpt lat="39.1749363" lon="20.8088183"><ele>9.0</ele><time>2026-05-02T13:26:26.73Z</time></trkpt><trkpt lat="39.1748815" lon="20.8085328"><ele>6.0</ele><time>2026-05-02T13:26:27.729Z</time></trkpt><trkpt lat="39.174813" lon="20.8082511"><ele>3.0</ele><time>2026-05-02T13:26:28.73Z</time></trkpt><trkpt lat="39.1747313" lon="20.8079744"><ele>3.0</ele><time>2026-05-02T13:26:29.729Z</time></trkpt><trkpt lat="39.1746362" lon="20.8077052"><ele>3.0</ele><time>2026-05-02T13:26:30.73Z</time></trkpt><trkpt lat="39.1745302" lon="20.8074419"><ele>4.5</ele><time>2026-05-02T13:26:31.729Z</time></trkpt><trkpt lat="39.1744214" lon="20.807183"><ele>6.0</ele><time>2026-05-02T13:26:32.729Z</time></trkpt><trkpt lat="39.1743154" lon="20.8069273"><ele>6.666666666666666</ele><time>2026-05-02T13:26:33.729Z</time></trkpt><trkpt lat="39.1742168" lon="20.8066734"><ele>7.333333333333333</ele><time>2026-05-02T13:26:34.729Z</time></trkpt><trkpt lat="39.1741327" lon="20.8064227"><ele>8.0</ele><time>2026-05-02T13:26:35.73Z</time></trkpt><trkpt lat="39.174068" lon="20.8061678"><ele>9.666666666666666</ele><time>2026-05-02T13:26:36.729Z</time></trkpt><trkpt lat="39.1740263" lon="20.8058991"><ele>11.333333333333332</ele><time>2026-05-02T13:26:37.73Z</time></trkpt><trkpt lat="39.1740057" lon="20.8056059"><ele>13.0</ele><time>2026-05-02T13:26:38.73Z</time></trkpt><trkpt lat="39.1739982" lon="20.8052948"><ele>8.5</ele><time>2026-05-02T13:26:39.729Z</time></trkpt><trkpt lat="39.1739949" lon="20.8049718"><ele>4.0</ele><time>2026-05-02T13:26:40.73Z</time></trkpt><trkpt lat="39.1739933" lon="20.804662"><ele>3.5</ele><time>2026-05-02T13:26:41.729Z</time></trkpt><trkpt lat="39.1739903" lon="20.8043071"><ele>3.0</ele><time>2026-05-02T13:26:42.729Z</time></trkpt><trkpt lat="39.1739863" lon="20.8039742"><ele>3.0</ele><time>2026-05-02T13:26:43.729Z</time></trkpt><trkpt lat="39.1739791" lon="20.8036418"><ele>3.0</ele><time>2026-05-02T13:26:44.729Z</time></trkpt><trkpt lat="39.17397" lon="20.8033153"><ele>5.0</ele><time>2026-05-02T13:26:45.73Z</time></trkpt><trkpt lat="39.1739578" lon="20.8029854"><ele>7.0</ele><time>2026-05-02T13:26:46.729Z</time></trkpt><trkpt lat="39.1739414" lon="20.8026515"><ele>8.0</ele><time>2026-05-02T13:26:47.73Z</time></trkpt><trkpt lat="39.1739207" lon="20.802313"><ele>9.0</ele><time>2026-05-02T13:26:48.73Z</time></trkpt><trkpt lat="39.1738966" lon="20.8019739"><ele>7.5</ele><time>2026-05-02T13:26:49.73Z</time></trkpt><trkpt lat="39.1738681" lon="20.8016331"><ele>6.0</ele><time>2026-05-02T13:26:50.729Z</time></trkpt><trkpt lat="39.1738336" lon="20.8012878"><ele>5.0</ele><time>2026-05-02T13:26:51.729Z</time></trkpt><trkpt lat="39.1737951" lon="20.8009489"><ele>4.0</ele><time>2026-05-02T13:26:52.729Z</time></trkpt><trkpt lat="39.1737539" lon="20.8006051"><ele>4.0</ele><time>2026-05-02T13:26:53.73Z</time></trkpt><trkpt lat="39.173713" lon="20.8002598"><ele>4.0</ele><time>2026-05-02T13:26:54.729Z</time></trkpt><trkpt lat="39.1736716" lon="20.799913"><ele>5.0</ele><time>2026-05-02T13:26:55.73Z</time></trkpt><trkpt lat="39.1736302" lon="20.7995654"><ele>6.0</ele><time>2026-05-02T13:26:56.729Z</time></trkpt><trkpt lat="39.1735947" lon="20.7992396"><ele>6.0</ele><time>2026-05-02T13:26:57.73Z</time></trkpt><trkpt lat="39.1735555" lon="20.7988693"><ele>6.0</ele><time>2026-05-02T13:26:58.729Z</time></trkpt><trkpt lat="39.1735265" lon="20.7985225"><ele>7.0</ele><time>2026-05-02T13:26:59.729Z</time></trkpt><trkpt lat="39.1735092" lon="20.7981786"><ele>8.0</ele><time>2026-05-02T13:27:00.725Z</time></trkpt><trkpt lat="39.1735016" lon="20.7978375"><ele>9.5</ele><time>2026-05-02T13:27:01.73Z</time></trkpt><trkpt lat="39.1735026" lon="20.7975011"><ele>11.0</ele><time>2026-05-02T13:27:02.729Z</time></trkpt><trkpt lat="39.1735137" lon="20.797168"><ele>11.0</ele><time>2026-05-02T13:27:03.729Z</time></trkpt><trkpt lat="39.1735354" lon="20.7968363"><ele>11.0</ele><time>2026-05-02T13:27:04.73Z</time></trkpt><trkpt lat="39.1735694" lon="20.7965064"><ele>10.5</ele><time>2026-05-02T13:27:05.729Z</time></trkpt><trkpt lat="39.1736139" lon="20.7961803"><ele>10.0</ele><time>2026-05-02T13:27:06.73Z</time></trkpt><trkpt lat="39.1736703" lon="20.7958583"><ele>9.0</ele><time>2026-05-02T13:27:07.729Z</time></trkpt><trkpt lat="39.1737366" lon="20.7955385"><ele>8.0</ele><time>2026-05-02T13:27:08.729Z</time></trkpt><trkpt lat="39.1738121" lon="20.7952216"><ele>7.5</ele><time>2026-05-02T13:27:09.73Z</time></trkpt><trkpt lat="39.1738976" lon="20.7949073"><ele>7.0</ele><time>2026-05-02T13:27:10.729Z</time></trkpt><trkpt lat="39.1739922" lon="20.7945985"><ele>10.0</ele><time>2026-05-02T13:27:11.729Z</time></trkpt><trkpt lat="39.1740949" lon="20.7942952"><ele>13.0</ele><time>2026-05-02T13:27:12.729Z</time></trkpt><trkpt lat="39.1741968" lon="20.7940174"><ele>13.0</ele><time>2026-05-02T13:27:13.729Z</time></trkpt><trkpt lat="39.1743167" lon="20.7937053"><ele>13.0</ele><time>2026-05-02T13:27:14.73Z</time></trkpt><trkpt lat="39.1744323" lon="20.7934136"><ele>12.0</ele><time>2026-05-02T13:27:15.729Z</time></trkpt><trkpt lat="39.1745493" lon="20.7931258"><ele>11.0</ele><time>2026-05-02T13:27:16.729Z</time></trkpt><trkpt lat="39.1746695" lon="20.7928391"><ele>10.5</ele><time>2026-05-02T13:27:17.73Z</time></trkpt><trkpt lat="39.1747915" lon="20.7925617"><ele>10.0</ele><time>2026-05-02T13:27:18.73Z</time></trkpt><trkpt lat="39.1749223" lon="20.7922908"><ele>9.5</ele><time>2026-05-02T13:27:19.729Z</time></trkpt><trkpt lat="39.1750612" lon="20.7920274"><ele>9.0</ele><time>2026-05-02T13:27:20.73Z</time></trkpt><trkpt lat="39.1752129" lon="20.791771"><ele>9.0</ele><time>2026-05-02T13:27:21.729Z</time></trkpt><trkpt lat="39.1753767" lon="20.7915213"><ele>9.0</ele><time>2026-05-02T13:27:22.73Z</time></trkpt><trkpt lat="39.1755506" lon="20.7912749"><ele>10.0</ele><time>2026-05-02T13:27:23.729Z</time></trkpt><trkpt lat="39.1757295" lon="20.7910318"><ele>11.0</ele><time>2026-05-02T13:27:24.73Z</time></trkpt><trkpt lat="39.175908" lon="20.7907922"><ele>11.0</ele><time>2026-05-02T13:27:25.729Z</time></trkpt><trkpt lat="39.1760854" lon="20.7905572"><ele>11.0</ele><time>2026-05-02T13:27:26.729Z</time></trkpt><trkpt lat="39.1762628" lon="20.7903244"><ele>10.0</ele><time>2026-05-02T13:27:27.729Z</time></trkpt><trkpt lat="39.1764424" lon="20.7900951"><ele>9.0</ele><time>2026-05-02T13:27:28.73Z</time></trkpt><trkpt lat="39.1766121" lon="20.7898839"><ele>11.0</ele><time>2026-05-02T13:27:29.729Z</time></trkpt><trkpt lat="39.1768056" lon="20.7896472"><ele>13.0</ele><time>2026-05-02T13:27:30.73Z</time></trkpt><trkpt lat="39.1769834" lon="20.789425"><ele>11.0</ele><time>2026-05-02T13:27:31.729Z</time></trkpt><trkpt lat="39.177155" lon="20.7892007"><ele>9.0</ele><time>2026-05-02T13:27:32.73Z</time></trkpt><trkpt lat="39.1773183" lon="20.788971"><ele>9.5</ele><time>2026-05-02T13:27:33.73Z</time></trkpt><trkpt lat="39.1774708" lon="20.7887301"><ele>10.0</ele><time>2026-05-02T13:27:34.729Z</time></trkpt><trkpt lat="39.1776092" lon="20.7884657"><ele>10.0</ele><time>2026-05-02T13:27:35.73Z</time></trkpt><trkpt lat="39.1777323" lon="20.7881759"><ele>10.0</ele><time>2026-05-02T13:27:36.73Z</time></trkpt><trkpt lat="39.1778448" lon="20.7878632"><ele>9.0</ele><time>2026-05-02T13:27:37.73Z</time></trkpt><trkpt lat="39.1779513" lon="20.7875338"><ele>8.0</ele><time>2026-05-02T13:27:38.729Z</time></trkpt><trkpt lat="39.1780563" lon="20.7871977"><ele>8.0</ele><time>2026-05-02T13:27:39.73Z</time></trkpt><trkpt lat="39.1781561" lon="20.7868724"><ele>8.0</ele><time>2026-05-02T13:27:40.73Z</time></trkpt><trkpt lat="39.1782508" lon="20.786559"><ele>7.5</ele><time>2026-05-02T13:27:41.73Z</time></trkpt><trkpt lat="39.1783447" lon="20.7862552"><ele>7.0</ele><time>2026-05-02T13:27:42.73Z</time></trkpt><trkpt lat="39.1784376" lon="20.7859554"><ele>8.0</ele><time>2026-05-02T13:27:43.73Z</time></trkpt><trkpt lat="39.178531" lon="20.7856595"><ele>9.0</ele><time>2026-05-02T13:27:44.729Z</time></trkpt><trkpt lat="39.1786175" lon="20.7853857"><ele>7.5</ele><time>2026-05-02T13:27:45.73Z</time></trkpt><trkpt lat="39.1787125" lon="20.7850848"><ele>6.0</ele><time>2026-05-02T13:27:46.729Z</time></trkpt><trkpt lat="39.1787964" lon="20.7848166"><ele>6.0</ele><time>2026-05-02T13:27:47.73Z</time></trkpt><trkpt lat="39.178876" lon="20.7845599"><ele>6.0</ele><time>2026-05-02T13:27:48.73Z</time></trkpt><trkpt lat="39.1789516" lon="20.7843164"><ele>6.0</ele><time>2026-05-02T13:27:49.73Z</time></trkpt><trkpt lat="39.1790223" lon="20.7840845"><ele>6.0</ele><time>2026-05-02T13:27:50.729Z</time></trkpt><trkpt lat="39.1790887" lon="20.7838598"><ele>6.0</ele><time>2026-05-02T13:27:51.73Z</time></trkpt><trkpt lat="39.1791504" lon="20.7836325"><ele>6.0</ele><time>2026-05-02T13:27:52.73Z</time></trkpt><trkpt lat="39.1792034" lon="20.7833888"><ele>6.0</ele><time>2026-05-02T13:27:53.73Z</time></trkpt><trkpt lat="39.1792442" lon="20.7831371"><ele>6.0</ele><time>2026-05-02T13:27:54.73Z</time></trkpt><trkpt lat="39.1792649" lon="20.7828922"><ele>6.0</ele><time>2026-05-02T13:27:55.73Z</time></trkpt><trkpt lat="39.1792617" lon="20.7826435"><ele>6.333333333333334</ele><time>2026-05-02T13:27:56.729Z</time></trkpt><trkpt lat="39.17923" lon="20.7823839"><ele>6.666666666666667</ele><time>2026-05-02T13:27:57.729Z</time></trkpt><trkpt lat="39.1791746" lon="20.7821128"><ele>7.0</ele><time>2026-05-02T13:27:58.73Z</time></trkpt><trkpt lat="39.1791059" lon="20.7818384"><ele>6.666666666666667</ele><time>2026-05-02T13:27:59.729Z</time></trkpt><trkpt lat="39.1790347" lon="20.7815778"><ele>6.333333333333334</ele><time>2026-05-02T13:28:00.73Z</time></trkpt><trkpt lat="39.1789681" lon="20.7813476"><ele>6.0</ele><time>2026-05-02T13:28:01.73Z</time></trkpt><trkpt lat="39.1788955" lon="20.7811044"><ele>6.333333333333334</ele><time>2026-05-02T13:28:02.73Z</time></trkpt><trkpt lat="39.1788305" lon="20.7808923"><ele>6.666666666666667</ele><time>2026-05-02T13:28:03.73Z</time></trkpt><trkpt lat="39.1787716" lon="20.7807015"><ele>7.0</ele><time>2026-05-02T13:28:04.729Z</time></trkpt><trkpt lat="39.1787055" lon="20.7804905"><ele>7.0</ele><time>2026-05-02T13:28:05.73Z</time></trkpt><trkpt lat="39.1786441" lon="20.7803006"><ele>7.0</ele><time>2026-05-02T13:28:06.729Z</time></trkpt><trkpt lat="39.1785861" lon="20.7801187"><ele>7.0</ele><time>2026-05-02T13:28:07.729Z</time></trkpt><trkpt lat="39.1785301" lon="20.7799397"><ele>7.333333333333334</ele><time>2026-05-02T13:28:08.729Z</time></trkpt><trkpt lat="39.1784721" lon="20.7797555"><ele>7.666666666666666</ele><time>2026-05-02T13:28:09.73Z</time></trkpt><trkpt lat="39.1784093" lon="20.7795612"><ele>8.0</ele><time>2026-05-02T13:28:10.73Z</time></trkpt><trkpt lat="39.1783348" lon="20.7793365"><ele>8.5</ele><time>2026-05-02T13:28:11.73Z</time></trkpt><trkpt lat="39.1782497" lon="20.7790754"><ele>9.0</ele><time>2026-05-02T13:28:12.729Z</time></trkpt><trkpt lat="39.1781599" lon="20.778791"><ele>7.5</ele><time>2026-05-02T13:28:13.73Z</time></trkpt><trkpt lat="39.1780669" lon="20.7784933"><ele>6.0</ele><time>2026-05-02T13:28:14.729Z</time></trkpt><trkpt lat="39.1779797" lon="20.7782"><ele>6.0</ele><time>2026-05-02T13:28:15.729Z</time></trkpt><trkpt lat="39.1778973" lon="20.7779183"><ele>6.0</ele><time>2026-05-02T13:28:16.73Z</time></trkpt><trkpt lat="39.1778216" lon="20.7776636"><ele>6.0</ele><time>2026-05-02T13:28:17.73Z</time></trkpt><trkpt lat="39.1777339" lon="20.7773815"><ele>6.0</ele><time>2026-05-02T13:28:18.73Z</time></trkpt><trkpt lat="39.177653" lon="20.7771214"><ele>6.0</ele><time>2026-05-02T13:28:19.73Z</time></trkpt><trkpt lat="39.1775738" lon="20.7768687"><ele>6.0</ele><time>2026-05-02T13:28:20.73Z</time></trkpt><trkpt lat="39.1774953" lon="20.7766206"><ele>6.0</ele><time>2026-05-02T13:28:21.729Z</time></trkpt><trkpt lat="39.1774149" lon="20.7763782"><ele>6.0</ele><time>2026-05-02T13:28:22.729Z</time></trkpt><trkpt lat="39.1773337" lon="20.7761445"><ele>6.0</ele><time>2026-05-02T13:28:23.73Z</time></trkpt><trkpt lat="39.1772455" lon="20.7758828"><ele>4.0</ele><time>2026-05-02T13:28:24.729Z</time></trkpt><trkpt lat="39.1771524" lon="20.7755927"><ele>2.0</ele><time>2026-05-02T13:28:25.73Z</time></trkpt><trkpt lat="39.1770527" lon="20.7752724"><ele>4.0</ele><time>2026-05-02T13:28:26.729Z</time></trkpt><trkpt lat="39.1769464" lon="20.7749266"><ele>6.0</ele><time>2026-05-02T13:28:27.73Z</time></trkpt><trkpt lat="39.1768417" lon="20.7745826"><ele>6.5</ele><time>2026-05-02T13:28:28.729Z</time></trkpt><trkpt lat="39.1767247" lon="20.774197"><ele>7.0</ele><time>2026-05-02T13:28:29.729Z</time></trkpt><trkpt lat="39.1766145" lon="20.773841"><ele>6.0</ele><time>2026-05-02T13:28:30.729Z</time></trkpt><trkpt lat="39.1764986" lon="20.7734769"><ele>5.0</ele><time>2026-05-02T13:28:31.729Z</time></trkpt><trkpt lat="39.1763848" lon="20.7731123"><ele>5.0</ele><time>2026-05-02T13:28:32.73Z</time></trkpt><trkpt lat="39.1762817" lon="20.7727859"><ele>5.0</ele><time>2026-05-02T13:28:33.729Z</time></trkpt><trkpt lat="39.1761855" lon="20.7724308"><ele>5.0</ele><time>2026-05-02T13:28:34.73Z</time></trkpt><trkpt lat="39.1761176" lon="20.7721235"><ele>5.0</ele><time>2026-05-02T13:28:35.729Z</time></trkpt><trkpt lat="39.1760773" lon="20.7718346"><ele>5.333333333333334</ele><time>2026-05-02T13:28:36.729Z</time></trkpt><trkpt lat="39.1760611" lon="20.7715478"><ele>5.666666666666667</ele><time>2026-05-02T13:28:37.73Z</time></trkpt><trkpt lat="39.1760715" lon="20.7712593"><ele>6.0</ele><time>2026-05-02T13:28:38.73Z</time></trkpt><trkpt lat="39.1761093" lon="20.770967"><ele>6.0</ele><time>2026-05-02T13:28:39.73Z</time></trkpt><trkpt lat="39.1761588" lon="20.7706747"><ele>6.0</ele><time>2026-05-02T13:28:40.73Z</time></trkpt><trkpt lat="39.1762086" lon="20.7703828"><ele>6.0</ele><time>2026-05-02T13:28:41.73Z</time></trkpt><trkpt lat="39.1762491" lon="20.7700849"><ele>6.0</ele><time>2026-05-02T13:28:42.73Z</time></trkpt><trkpt lat="39.176275" lon="20.7697716"><ele>6.0</ele><time>2026-05-02T13:28:43.73Z</time></trkpt><trkpt lat="39.1762824" lon="20.7694585"><ele>6.0</ele><time>2026-05-02T13:28:44.729Z</time></trkpt><trkpt lat="39.176269" lon="20.769139"><ele>5.5</ele><time>2026-05-02T13:28:45.73Z</time></trkpt><trkpt lat="39.1762379" lon="20.7688108"><ele>5.0</ele><time>2026-05-02T13:28:46.729Z</time></trkpt><trkpt lat="39.1761966" lon="20.7684815"><ele>6.0</ele><time>2026-05-02T13:28:47.73Z</time></trkpt><trkpt lat="39.1761501" lon="20.7681478"><ele>7.0</ele><time>2026-05-02T13:28:48.729Z</time></trkpt><trkpt lat="39.1761061" lon="20.7678395"><ele>8.0</ele><time>2026-05-02T13:28:49.73Z</time></trkpt><trkpt lat="39.1760576" lon="20.7674984"><ele>9.0</ele><time>2026-05-02T13:28:50.73Z</time></trkpt><trkpt lat="39.1760135" lon="20.7671833"><ele>9.0</ele><time>2026-05-02T13:28:51.73Z</time></trkpt><trkpt lat="39.1759743" lon="20.7668914"><ele>9.0</ele><time>2026-05-02T13:28:52.729Z</time></trkpt><trkpt lat="39.1759278" lon="20.7665659"><ele>8.5</ele><time>2026-05-02T13:28:53.73Z</time></trkpt><trkpt lat="39.1758749" lon="20.7662644"><ele>8.0</ele><time>2026-05-02T13:28:54.73Z</time></trkpt><trkpt lat="39.1758051" lon="20.7659747"><ele>9.0</ele><time>2026-05-02T13:28:55.729Z</time></trkpt><trkpt lat="39.1757159" lon="20.7656995"><ele>10.0</ele><time>2026-05-02T13:28:56.73Z</time></trkpt><trkpt lat="39.175602" lon="20.7654375"><ele>9.0</ele><time>2026-05-02T13:28:57.729Z</time></trkpt><trkpt lat="39.1754722" lon="20.7652052"><ele>8.0</ele><time>2026-05-02T13:28:58.729Z</time></trkpt><trkpt lat="39.1753211" lon="20.7649933"><ele>7.0</ele><time>2026-05-02T13:28:59.73Z</time></trkpt><trkpt lat="39.1751546" lon="20.7648008"><ele>7.0</ele><time>2026-05-02T13:29:00.729Z</time></trkpt><trkpt lat="39.1749717" lon="20.7646131"><ele>7.0</ele><time>2026-05-02T13:29:01.73Z</time></trkpt><trkpt lat="39.1747863" lon="20.7644372"><ele>6.5</ele><time>2026-05-02T13:29:02.729Z</time></trkpt><trkpt lat="39.1745967" lon="20.7642633"><ele>6.0</ele><time>2026-05-02T13:29:03.73Z</time></trkpt><trkpt lat="39.1744155" lon="20.7640983"><ele>6.0</ele><time>2026-05-02T13:29:04.729Z</time></trkpt><trkpt lat="39.1742522" lon="20.7639506"><ele>6.0</ele><time>2026-05-02T13:29:05.729Z</time></trkpt><trkpt lat="39.1740721" lon="20.7637883"><ele>6.0</ele><time>2026-05-02T13:29:06.729Z</time></trkpt><trkpt lat="39.1739054" lon="20.7636371"><ele>6.0</ele><time>2026-05-02T13:29:07.729Z</time></trkpt><trkpt lat="39.1737513" lon="20.7634982"><ele>6.0</ele><time>2026-05-02T13:29:08.729Z</time></trkpt><trkpt lat="39.173578" lon="20.7633399"><ele>6.0</ele><time>2026-05-02T13:29:09.729Z</time></trkpt><trkpt lat="39.1734148" lon="20.7631894"><ele>6.0</ele><time>2026-05-02T13:29:10.729Z</time></trkpt><trkpt lat="39.1732487" lon="20.7630385"><ele>6.0</ele><time>2026-05-02T13:29:11.73Z</time></trkpt><trkpt lat="39.1730795" lon="20.7628868"><ele>6.0</ele><time>2026-05-02T13:29:12.729Z</time></trkpt><trkpt lat="39.1729098" lon="20.7627352"><ele>6.333333333333334</ele><time>2026-05-02T13:29:13.73Z</time></trkpt><trkpt lat="39.1727403" lon="20.7625842"><ele>6.666666666666667</ele><time>2026-05-02T13:29:14.729Z</time></trkpt><trkpt lat="39.1725709" lon="20.7624316"><ele>7.0</ele><time>2026-05-02T13:29:15.729Z</time></trkpt><trkpt lat="39.1724132" lon="20.7622892"><ele>7.0</ele><time>2026-05-02T13:29:16.73Z</time></trkpt><trkpt lat="39.172236" lon="20.7621286"><ele>7.0</ele><time>2026-05-02T13:29:17.729Z</time></trkpt><trkpt lat="39.1720722" lon="20.7619807"><ele>7.0</ele><time>2026-05-02T13:29:18.73Z</time></trkpt><trkpt lat="39.1719103" lon="20.7618341"><ele>7.0</ele><time>2026-05-02T13:29:19.729Z</time></trkpt><trkpt lat="39.1717501" lon="20.7616885"><ele>7.0</ele><time>2026-05-02T13:29:20.729Z</time></trkpt><trkpt lat="39.1716009" lon="20.7615545"><ele>7.0</ele><time>2026-05-02T13:29:21.73Z</time></trkpt><trkpt lat="39.1714316" lon="20.7614043"><ele>7.0</ele><time>2026-05-02T13:29:22.729Z</time></trkpt><trkpt lat="39.1712673" lon="20.7612595"><ele>7.0</ele><time>2026-05-02T13:29:23.73Z</time></trkpt><trkpt lat="39.1711022" lon="20.7611181"><ele>7.0</ele><time>2026-05-02T13:29:24.73Z</time></trkpt><trkpt lat="39.1709321" lon="20.760975"><ele>7.0</ele><time>2026-05-02T13:29:25.73Z</time></trkpt><trkpt lat="39.1707647" lon="20.760842"><ele>7.0</ele><time>2026-05-02T13:29:26.73Z</time></trkpt><trkpt lat="39.1705933" lon="20.760714"><ele>7.0</ele><time>2026-05-02T13:29:27.729Z</time></trkpt><trkpt lat="39.1704244" lon="20.7605945"><ele>7.0</ele><time>2026-05-02T13:29:28.73Z</time></trkpt><trkpt lat="39.1702518" lon="20.7604752"><ele>7.0</ele><time>2026-05-02T13:29:29.73Z</time></trkpt><trkpt lat="39.1700797" lon="20.7603597"><ele>7.0</ele><time>2026-05-02T13:29:30.729Z</time></trkpt><trkpt lat="39.1699069" lon="20.7602451"><ele>8.333333333333334</ele><time>2026-05-02T13:29:31.73Z</time></trkpt><trkpt lat="39.1697473" lon="20.760139"><ele>9.666666666666666</ele><time>2026-05-02T13:29:32.729Z</time></trkpt><trkpt lat="39.169566" lon="20.7600193"><ele>11.0</ele><time>2026-05-02T13:29:33.729Z</time></trkpt><trkpt lat="39.1693954" lon="20.7599097"><ele>11.0</ele><time>2026-05-02T13:29:34.729Z</time></trkpt><trkpt lat="39.169226" lon="20.7598005"><ele>11.0</ele><time>2026-05-02T13:29:35.73Z</time></trkpt><trkpt lat="39.1690589" lon="20.759692"><ele>11.0</ele><time>2026-05-02T13:29:36.73Z</time></trkpt><trkpt lat="39.1689042" lon="20.7595901"><ele>10.666666666666666</ele><time>2026-05-02T13:29:37.73Z</time></trkpt><trkpt lat="39.1687324" lon="20.7594767"><ele>10.333333333333334</ele><time>2026-05-02T13:29:38.73Z</time></trkpt><trkpt lat="39.1685767" lon="20.7593736"><ele>10.0</ele><time>2026-05-02T13:29:39.729Z</time></trkpt><trkpt lat="39.1684321" lon="20.759277"><ele>10.0</ele><time>2026-05-02T13:29:40.73Z</time></trkpt><trkpt lat="39.1682695" lon="20.7591645"><ele>10.0</ele><time>2026-05-02T13:29:41.73Z</time></trkpt><trkpt lat="39.168124" lon="20.7590579"><ele>10.0</ele><time>2026-05-02T13:29:42.729Z</time></trkpt><trkpt lat="39.1679884" lon="20.7589487"><ele>10.0</ele><time>2026-05-02T13:29:43.73Z</time></trkpt><trkpt lat="39.1678585" lon="20.7588361"><ele>10.0</ele><time>2026-05-02T13:29:44.729Z</time></trkpt><trkpt lat="39.167739" lon="20.7587253"><ele>10.0</ele><time>2026-05-02T13:29:45.73Z</time></trkpt><trkpt lat="39.1676308" lon="20.7586182"><ele>10.0</ele><time>2026-05-02T13:29:46.73Z</time></trkpt><trkpt lat="39.1675337" lon="20.7585154"><ele>10.0</ele><time>2026-05-02T13:29:47.73Z</time></trkpt><trkpt lat="39.1674461" lon="20.7584159"><ele>10.0</ele><time>2026-05-02T13:29:48.729Z</time></trkpt><trkpt lat="39.1673463" lon="20.7582964"><ele>10.0</ele><time>2026-05-02T13:29:49.729Z</time></trkpt><trkpt lat="39.1672494" lon="20.7581748"><ele>10.0</ele><time>2026-05-02T13:29:50.73Z</time></trkpt><trkpt lat="39.1671469" lon="20.7580406"><ele>9.666666666666668</ele><time>2026-05-02T13:29:51.729Z</time></trkpt><trkpt lat="39.1670415" lon="20.7578985"><ele>9.333333333333334</ele><time>2026-05-02T13:29:52.729Z</time></trkpt><trkpt lat="39.1669387" lon="20.757758"><ele>9.0</ele><time>2026-05-02T13:29:53.73Z</time></trkpt><trkpt lat="39.1668168" lon="20.7575895"><ele>9.0</ele><time>2026-05-02T13:29:54.729Z</time></trkpt><trkpt lat="39.1666962" lon="20.7574235"><ele>9.0</ele><time>2026-05-02T13:29:55.729Z</time></trkpt><trkpt lat="39.1665825" lon="20.7572679"><ele>9.0</ele><time>2026-05-02T13:29:56.73Z</time></trkpt><trkpt lat="39.166455" lon="20.7570913"><ele>8.666666666666666</ele><time>2026-05-02T13:29:57.729Z</time></trkpt><trkpt lat="39.1663392" lon="20.7569301"><ele>8.333333333333332</ele><time>2026-05-02T13:29:58.729Z</time></trkpt><trkpt lat="39.166225" lon="20.7567708"><ele>8.0</ele><time>2026-05-02T13:29:59.73Z</time></trkpt><trkpt lat="39.16611" lon="20.7566125"><ele>8.0</ele><time>2026-05-02T13:30:00.73Z</time></trkpt><trkpt lat="39.1659949" lon="20.7564519"><ele>8.0</ele><time>2026-05-02T13:30:01.73Z</time></trkpt><trkpt lat="39.165879" lon="20.7562914"><ele>8.0</ele><time>2026-05-02T13:30:02.73Z</time></trkpt><trkpt lat="39.1657622" lon="20.7561335"><ele>9.0</ele><time>2026-05-02T13:30:03.729Z</time></trkpt><trkpt lat="39.1656511" lon="20.7559895"><ele>10.0</ele><time>2026-05-02T13:30:04.729Z</time></trkpt><trkpt lat="39.1655191" lon="20.7558338"><ele>11.0</ele><time>2026-05-02T13:30:05.73Z</time></trkpt><trkpt lat="39.1653871" lon="20.7556954"><ele>11.0</ele><time>2026-05-02T13:30:06.73Z</time></trkpt><trkpt lat="39.1652484" lon="20.7555665"><ele>11.0</ele><time>2026-05-02T13:30:07.73Z</time></trkpt><trkpt lat="39.1651034" lon="20.7554515"><ele>11.0</ele><time>2026-05-02T13:30:08.73Z</time></trkpt><trkpt lat="39.1649608" lon="20.7553544"><ele>10.0</ele><time>2026-05-02T13:30:09.73Z</time></trkpt><trkpt lat="39.1647912" lon="20.755257"><ele>9.0</ele><time>2026-05-02T13:30:10.729Z</time></trkpt><trkpt lat="39.1646275" lon="20.755178"><ele>8.0</ele><time>2026-05-02T13:30:11.729Z</time></trkpt><trkpt lat="39.1644737" lon="20.7551133"><ele>8.333333333333332</ele><time>2026-05-02T13:30:12.73Z</time></trkpt><trkpt lat="39.1642998" lon="20.7550447"><ele>8.666666666666666</ele><time>2026-05-02T13:30:13.73Z</time></trkpt><trkpt lat="39.1641388" lon="20.7549843"><ele>9.0</ele><time>2026-05-02T13:30:14.729Z</time></trkpt><trkpt lat="39.1639805" lon="20.7549277"><ele>9.0</ele><time>2026-05-02T13:30:15.73Z</time></trkpt><trkpt lat="39.163827" lon="20.7548748"><ele>9.0</ele><time>2026-05-02T13:30:16.729Z</time></trkpt><trkpt lat="39.1636808" lon="20.7548238"><ele>9.0</ele><time>2026-05-02T13:30:17.729Z</time></trkpt><trkpt lat="39.1635437" lon="20.7547765"><ele>9.0</ele><time>2026-05-02T13:30:18.729Z</time></trkpt><trkpt lat="39.1634133" lon="20.7547316"><ele>9.0</ele><time>2026-05-02T13:30:19.73Z</time></trkpt><trkpt lat="39.1632946" lon="20.7546898"><ele>9.0</ele><time>2026-05-02T13:30:20.729Z</time></trkpt><trkpt lat="39.1631615" lon="20.7546433"><ele>9.0</ele><time>2026-05-02T13:30:21.729Z</time></trkpt><trkpt lat="39.1630365" lon="20.7545995"><ele>9.25</ele><time>2026-05-02T13:30:22.73Z</time></trkpt><trkpt lat="39.1629118" lon="20.7545557"><ele>9.5</ele><time>2026-05-02T13:30:23.73Z</time></trkpt><trkpt lat="39.1627866" lon="20.7545114"><ele>9.75</ele><time>2026-05-02T13:30:24.73Z</time></trkpt><trkpt lat="39.162669" lon="20.75447"><ele>10.0</ele><time>2026-05-02T13:30:25.73Z</time></trkpt><trkpt lat="39.1625354" lon="20.7544235"><ele>10.0</ele><time>2026-05-02T13:30:26.73Z</time></trkpt><trkpt lat="39.1624107" lon="20.7543799"><ele>10.0</ele><time>2026-05-02T13:30:27.729Z</time></trkpt><trkpt lat="39.1622953" lon="20.7543392"><ele>10.0</ele><time>2026-05-02T13:30:28.73Z</time></trkpt><trkpt lat="39.1621617" lon="20.7542924"><ele>10.0</ele><time>2026-05-02T13:30:29.729Z</time></trkpt><trkpt lat="39.1620325" lon="20.7542474"><ele>10.0</ele><time>2026-05-02T13:30:30.729Z</time></trkpt><trkpt lat="39.1619001" lon="20.7542006"><ele>10.0</ele><time>2026-05-02T13:30:31.73Z</time></trkpt><trkpt lat="39.1617648" lon="20.7541532"><ele>10.0</ele><time>2026-05-02T13:30:32.73Z</time></trkpt><trkpt lat="39.1616292" lon="20.7541059"><ele>10.0</ele><time>2026-05-02T13:30:33.729Z</time></trkpt><trkpt lat="39.1614951" lon="20.7540597"><ele>10.0</ele><time>2026-05-02T13:30:34.73Z</time></trkpt><trkpt lat="39.1613683" lon="20.7540148"><ele>10.0</ele><time>2026-05-02T13:30:35.73Z</time></trkpt><trkpt lat="39.1612576" lon="20.753975"><ele>10.0</ele><time>2026-05-02T13:30:36.729Z</time></trkpt><trkpt lat="39.1611409" lon="20.7539328"><ele>10.0</ele><time>2026-05-02T13:30:37.73Z</time></trkpt><trkpt lat="39.1610409" lon="20.7538973"><ele>10.0</ele><time>2026-05-02T13:30:38.729Z</time></trkpt><trkpt lat="39.1609532" lon="20.753867"><ele>10.0</ele><time>2026-05-02T13:30:39.729Z</time></trkpt><trkpt lat="39.1608748" lon="20.7538392"><ele>10.0</ele><time>2026-05-02T13:30:40.729Z</time></trkpt><trkpt lat="39.1608079" lon="20.7538163"><ele>10.0</ele><time>2026-05-02T13:30:41.729Z</time></trkpt><trkpt lat="39.1607354" lon="20.7537928"><ele>10.0</ele><time>2026-05-02T13:30:42.73Z</time></trkpt><trkpt lat="39.1606705" lon="20.7537729"><ele>10.0</ele><time>2026-05-02T13:30:43.73Z</time></trkpt><trkpt lat="39.1605629" lon="20.7537416"><ele>10.0</ele><time>2026-05-02T13:30:45.729Z</time></trkpt><trkpt lat="39.1604792" lon="20.7537194"><ele>10.0</ele><time>2026-05-02T13:30:47.729Z</time></trkpt><trkpt lat="39.1604045" lon="20.7537014"><ele>10.0</ele><time>2026-05-02T13:30:49.73Z</time></trkpt><trkpt lat="39.1603404" lon="20.7536909"><ele>10.0</ele><time>2026-05-02T13:30:51.73Z</time></trkpt><trkpt lat="39.1602524" lon="20.7536809"><ele>10.0</ele><time>2026-05-02T13:30:53.729Z</time></trkpt><trkpt lat="39.1601756" lon="20.7536677"><ele>10.0</ele><time>2026-05-02T13:30:54.729Z</time></trkpt><trkpt lat="39.1600984" lon="20.7536483"><ele>10.0</ele><time>2026-05-02T13:30:55.73Z</time></trkpt><trkpt lat="39.1600029" lon="20.7536257"><ele>10.0</ele><time>2026-05-02T13:30:56.73Z</time></trkpt><trkpt lat="39.1598975" lon="20.7536061"><ele>10.0</ele><time>2026-05-02T13:30:57.73Z</time></trkpt><trkpt lat="39.1597838" lon="20.7535896"><ele>10.0</ele><time>2026-05-02T13:30:58.73Z</time></trkpt><trkpt lat="39.1596616" lon="20.7535785"><ele>10.0</ele><time>2026-05-02T13:30:59.729Z</time></trkpt><trkpt lat="39.1595392" lon="20.7535734"><ele>10.0</ele><time>2026-05-02T13:31:00.73Z</time></trkpt><trkpt lat="39.1594132" lon="20.7535729"><ele>10.0</ele><time>2026-05-02T13:31:01.73Z</time></trkpt><trkpt lat="39.1592793" lon="20.7535766"><ele>10.0</ele><time>2026-05-02T13:31:02.73Z</time></trkpt><trkpt lat="39.1591354" lon="20.7535813"><ele>10.0</ele><time>2026-05-02T13:31:03.729Z</time></trkpt><trkpt lat="39.158978" lon="20.7535844"><ele>10.0</ele><time>2026-05-02T13:31:04.73Z</time></trkpt><trkpt lat="39.1587956" lon="20.7535846"><ele>10.0</ele><time>2026-05-02T13:31:05.729Z</time></trkpt><trkpt lat="39.1586267" lon="20.753584"><ele>10.0</ele><time>2026-05-02T13:31:06.73Z</time></trkpt><trkpt lat="39.1584368" lon="20.7535832"><ele>10.0</ele><time>2026-05-02T13:31:07.73Z</time></trkpt><trkpt lat="39.1582376" lon="20.753582"><ele>10.0</ele><time>2026-05-02T13:31:08.73Z</time></trkpt><trkpt lat="39.1580295" lon="20.75358"><ele>10.0</ele><time>2026-05-02T13:31:09.73Z</time></trkpt><trkpt lat="39.1578041" lon="20.7535776"><ele>10.0</ele><time>2026-05-02T13:31:10.729Z</time></trkpt><trkpt lat="39.1575984" lon="20.7535747"><ele>10.0</ele><time>2026-05-02T13:31:11.729Z</time></trkpt><trkpt lat="39.15737" lon="20.7535713"><ele>10.0</ele><time>2026-05-02T13:31:12.73Z</time></trkpt><trkpt lat="39.1571362" lon="20.7535673"><ele>11.0</ele><time>2026-05-02T13:31:13.73Z</time></trkpt><trkpt lat="39.1568978" lon="20.7535639"><ele>12.0</ele><time>2026-05-02T13:31:14.73Z</time></trkpt><trkpt lat="39.1566621" lon="20.7535605"><ele>11.0</ele><time>2026-05-02T13:31:15.73Z</time></trkpt><trkpt lat="39.1564259" lon="20.7535563"><ele>10.0</ele><time>2026-05-02T13:31:16.729Z</time></trkpt><trkpt lat="39.1561875" lon="20.7535511"><ele>10.0</ele><time>2026-05-02T13:31:17.729Z</time></trkpt><trkpt lat="39.1559434" lon="20.7535468"><ele>10.0</ele><time>2026-05-02T13:31:18.73Z</time></trkpt><trkpt lat="39.155692" lon="20.7535441"><ele>9.5</ele><time>2026-05-02T13:31:19.729Z</time></trkpt><trkpt lat="39.1554343" lon="20.7535417"><ele>9.0</ele><time>2026-05-02T13:31:20.73Z</time></trkpt><trkpt lat="39.1551554" lon="20.7535384"><ele>9.0</ele><time>2026-05-02T13:31:21.73Z</time></trkpt><trkpt lat="39.1549037" lon="20.7535341"><ele>9.0</ele><time>2026-05-02T13:31:22.73Z</time></trkpt><trkpt lat="39.1546242" lon="20.7535294"><ele>9.5</ele><time>2026-05-02T13:31:23.73Z</time></trkpt><trkpt lat="39.1543331" lon="20.7535256"><ele>10.0</ele><time>2026-05-02T13:31:24.73Z</time></trkpt><trkpt lat="39.1540306" lon="20.7535214"><ele>9.0</ele><time>2026-05-02T13:31:25.73Z</time></trkpt><trkpt lat="39.1536979" lon="20.7535188"><ele>8.0</ele><time>2026-05-02T13:31:26.73Z</time></trkpt><trkpt lat="39.1534074" lon="20.7535157"><ele>8.0</ele><time>2026-05-02T13:31:27.729Z</time></trkpt><trkpt lat="39.1531082" lon="20.7535084"><ele>8.0</ele><time>2026-05-02T13:31:28.729Z</time></trkpt><trkpt lat="39.152818" lon="20.7534955"><ele>8.0</ele><time>2026-05-02T13:31:29.729Z</time></trkpt><trkpt lat="39.1525329" lon="20.7534801"><ele>8.0</ele><time>2026-05-02T13:31:30.729Z</time></trkpt><trkpt lat="39.1522511" lon="20.7534669"><ele>7.5</ele><time>2026-05-02T13:31:31.73Z</time></trkpt><trkpt lat="39.1519727" lon="20.7534579"><ele>7.0</ele><time>2026-05-02T13:31:32.73Z</time></trkpt><trkpt lat="39.1516991" lon="20.7534492"><ele>7.0</ele><time>2026-05-02T13:31:33.729Z</time></trkpt><trkpt lat="39.1514316" lon="20.7534406"><ele>7.0</ele><time>2026-05-02T13:31:34.73Z</time></trkpt><trkpt lat="39.1511711" lon="20.7534323"><ele>7.0</ele><time>2026-05-02T13:31:35.729Z</time></trkpt><trkpt lat="39.150918" lon="20.7534262"><ele>7.0</ele><time>2026-05-02T13:31:36.729Z</time></trkpt><trkpt lat="39.1506556" lon="20.7534218"><ele>7.5</ele><time>2026-05-02T13:31:37.73Z</time></trkpt><trkpt lat="39.1504288" lon="20.7534175"><ele>8.0</ele><time>2026-05-02T13:31:38.729Z</time></trkpt><trkpt lat="39.1501889" lon="20.7534116"><ele>8.0</ele><time>2026-05-02T13:31:39.729Z</time></trkpt><trkpt lat="39.1499494" lon="20.7534064"><ele>8.0</ele><time>2026-05-02T13:31:40.73Z</time></trkpt><trkpt lat="39.1497085" lon="20.7534016"><ele>8.5</ele><time>2026-05-02T13:31:41.73Z</time></trkpt><trkpt lat="39.1494512" lon="20.7533963"><ele>9.0</ele><time>2026-05-02T13:31:42.729Z</time></trkpt><trkpt lat="39.1492238" lon="20.7533911"><ele>8.5</ele><time>2026-05-02T13:31:43.73Z</time></trkpt><trkpt lat="39.1489802" lon="20.7533842"><ele>8.0</ele><time>2026-05-02T13:31:44.729Z</time></trkpt><trkpt lat="39.1487337" lon="20.7533758"><ele>8.0</ele><time>2026-05-02T13:31:45.73Z</time></trkpt><trkpt lat="39.1484845" lon="20.7533671"><ele>8.0</ele><time>2026-05-02T13:31:46.73Z</time></trkpt><trkpt lat="39.1482327" lon="20.7533596"><ele>8.5</ele><time>2026-05-02T13:31:47.73Z</time></trkpt><trkpt lat="39.1479765" lon="20.7533536"><ele>9.0</ele><time>2026-05-02T13:31:48.73Z</time></trkpt><trkpt lat="39.1477183" lon="20.7533486"><ele>9.0</ele><time>2026-05-02T13:31:49.729Z</time></trkpt><trkpt lat="39.1474605" lon="20.7533445"><ele>9.0</ele><time>2026-05-02T13:31:50.73Z</time></trkpt><trkpt lat="39.1472014" lon="20.75334"><ele>7.5</ele><time>2026-05-02T13:31:51.73Z</time></trkpt><trkpt lat="39.1469411" lon="20.7533343"><ele>6.0</ele><time>2026-05-02T13:31:52.729Z</time></trkpt><trkpt lat="39.1466615" lon="20.7533278"><ele>6.0</ele><time>2026-05-02T13:31:53.73Z</time></trkpt><trkpt lat="39.1464138" lon="20.7533216"><ele>6.0</ele><time>2026-05-02T13:31:54.73Z</time></trkpt><trkpt lat="39.1461488" lon="20.7533146"><ele>6.0</ele><time>2026-05-02T13:31:55.73Z</time></trkpt><trkpt lat="39.1458846" lon="20.7533074"><ele>6.0</ele><time>2026-05-02T13:31:56.729Z</time></trkpt><trkpt lat="39.1456218" lon="20.7532996"><ele>5.0</ele><time>2026-05-02T13:31:57.73Z</time></trkpt><trkpt lat="39.1453445" lon="20.7532922"><ele>4.0</ele><time>2026-05-02T13:31:58.73Z</time></trkpt><trkpt lat="39.1451024" lon="20.753286"><ele>4.5</ele><time>2026-05-02T13:31:59.73Z</time></trkpt><trkpt lat="39.1448433" lon="20.753281"><ele>5.0</ele><time>2026-05-02T13:32:00.729Z</time></trkpt><trkpt lat="39.1445848" lon="20.7532758"><ele>5.0</ele><time>2026-05-02T13:32:01.73Z</time></trkpt><trkpt lat="39.1443273" lon="20.7532705"><ele>5.0</ele><time>2026-05-02T13:32:02.73Z</time></trkpt><trkpt lat="39.1440698" lon="20.7532639"><ele>5.0</ele><time>2026-05-02T13:32:03.73Z</time></trkpt><trkpt lat="39.1438135" lon="20.7532567"><ele>5.0</ele><time>2026-05-02T13:32:04.729Z</time></trkpt><trkpt lat="39.1435583" lon="20.7532506"><ele>5.0</ele><time>2026-05-02T13:32:05.729Z</time></trkpt><trkpt lat="39.1433033" lon="20.753246"><ele>5.0</ele><time>2026-05-02T13:32:06.729Z</time></trkpt><trkpt lat="39.1430497" lon="20.7532406"><ele>5.0</ele><time>2026-05-02T13:32:07.73Z</time></trkpt><trkpt lat="39.1427971" lon="20.7532344"><ele>5.0</ele><time>2026-05-02T13:32:08.73Z</time></trkpt><trkpt lat="39.14253" lon="20.7532272"><ele>5.0</ele><time>2026-05-02T13:32:09.73Z</time></trkpt><trkpt lat="39.1422956" lon="20.7532198"><ele>5.0</ele><time>2026-05-02T13:32:10.729Z</time></trkpt><trkpt lat="39.1420466" lon="20.7532101"><ele>5.0</ele><time>2026-05-02T13:32:11.73Z</time></trkpt><trkpt lat="39.141798" lon="20.7532024"><ele>5.0</ele><time>2026-05-02T13:32:12.73Z</time></trkpt><trkpt lat="39.1415508" lon="20.7531959"><ele>5.0</ele><time>2026-05-02T13:32:13.73Z</time></trkpt><trkpt lat="39.1412892" lon="20.7531902"><ele>5.0</ele><time>2026-05-02T13:32:14.73Z</time></trkpt><trkpt lat="39.1410588" lon="20.7531871"><ele>5.0</ele><time>2026-05-02T13:32:15.73Z</time></trkpt><trkpt lat="39.1408126" lon="20.7531837"><ele>5.0</ele><time>2026-05-02T13:32:16.729Z</time></trkpt><trkpt lat="39.1405684" lon="20.7531799"><ele>6.5</ele><time>2026-05-02T13:32:17.73Z</time></trkpt><trkpt lat="39.1403252" lon="20.7531758"><ele>8.0</ele><time>2026-05-02T13:32:18.729Z</time></trkpt><trkpt lat="39.1400839" lon="20.7531717"><ele>6.5</ele><time>2026-05-02T13:32:19.73Z</time></trkpt><trkpt lat="39.1398465" lon="20.7531659"><ele>5.0</ele><time>2026-05-02T13:32:20.729Z</time></trkpt><trkpt lat="39.1396122" lon="20.75316"><ele>5.0</ele><time>2026-05-02T13:32:21.729Z</time></trkpt><trkpt lat="39.1393778" lon="20.7531537"><ele>5.0</ele><time>2026-05-02T13:32:22.729Z</time></trkpt><trkpt lat="39.1391435" lon="20.7531482"><ele>4.0</ele><time>2026-05-02T13:32:23.73Z</time></trkpt><trkpt lat="39.1389077" lon="20.7531433"><ele>3.0</ele><time>2026-05-02T13:32:24.73Z</time></trkpt><trkpt lat="39.1386575" lon="20.7531382"><ele>3.0</ele><time>2026-05-02T13:32:25.729Z</time></trkpt><trkpt lat="39.1384383" lon="20.7531334"><ele>3.0</ele><time>2026-05-02T13:32:26.73Z</time></trkpt><trkpt lat="39.1382053" lon="20.7531284"><ele>3.0</ele><time>2026-05-02T13:32:27.73Z</time></trkpt><trkpt lat="39.1379726" lon="20.7531222"><ele>3.0</ele><time>2026-05-02T13:32:28.73Z</time></trkpt><trkpt lat="39.1377385" lon="20.7531143"><ele>3.0</ele><time>2026-05-02T13:32:29.729Z</time></trkpt><trkpt lat="39.1374887" lon="20.7531069"><ele>3.0</ele><time>2026-05-02T13:32:30.729Z</time></trkpt><trkpt lat="39.1372679" lon="20.7531007"><ele>4.0</ele><time>2026-05-02T13:32:31.73Z</time></trkpt><trkpt lat="39.1370318" lon="20.7530941"><ele>5.0</ele><time>2026-05-02T13:32:32.729Z</time></trkpt><trkpt lat="39.1367946" lon="20.7530873"><ele>5.0</ele><time>2026-05-02T13:32:33.729Z</time></trkpt><trkpt lat="39.1365556" lon="20.7530808"><ele>5.0</ele><time>2026-05-02T13:32:34.73Z</time></trkpt><trkpt lat="39.1363148" lon="20.7530743"><ele>3.0</ele><time>2026-05-02T13:32:35.729Z</time></trkpt><trkpt lat="39.1360738" lon="20.7530684"><ele>1.0</ele><time>2026-05-02T13:32:36.73Z</time></trkpt><trkpt lat="39.1358305" lon="20.7530622"><ele>0.5</ele><time>2026-05-02T13:32:37.729Z</time></trkpt><trkpt lat="39.1355875" lon="20.7530552"><ele>0.0</ele><time>2026-05-02T13:32:38.73Z</time></trkpt><trkpt lat="39.1353422" lon="20.7530492"><ele>0.0</ele><time>2026-05-02T13:32:39.73Z</time></trkpt><trkpt lat="39.1350937" lon="20.7530435"><ele>0.0</ele><time>2026-05-02T13:32:40.73Z</time></trkpt><trkpt lat="39.1348268" lon="20.7530371"><ele>0.0</ele><time>2026-05-02T13:32:41.73Z</time></trkpt><trkpt lat="39.1345912" lon="20.7530306"><ele>0.0</ele><time>2026-05-02T13:32:42.73Z</time></trkpt><trkpt lat="39.1343383" lon="20.7530229"><ele>0.0</ele><time>2026-05-02T13:32:43.729Z</time></trkpt><trkpt lat="39.1340851" lon="20.7530158"><ele>0.0</ele><time>2026-05-02T13:32:44.729Z</time></trkpt><trkpt lat="39.1338326" lon="20.7530097"><ele>1.0</ele><time>2026-05-02T13:32:45.729Z</time></trkpt><trkpt lat="39.1335642" lon="20.7530035"><ele>2.0</ele><time>2026-05-02T13:32:46.729Z</time></trkpt><trkpt lat="39.1333288" lon="20.7529977"><ele>1.0</ele><time>2026-05-02T13:32:47.729Z</time></trkpt><trkpt lat="39.1330779" lon="20.7529918"><ele>0.0</ele><time>2026-05-02T13:32:48.729Z</time></trkpt><trkpt lat="39.1328283" lon="20.7529848"><ele>0.0</ele><time>2026-05-02T13:32:49.73Z</time></trkpt><trkpt lat="39.1325785" lon="20.7529785"><ele>0.0</ele><time>2026-05-02T13:32:50.729Z</time></trkpt><trkpt lat="39.1323277" lon="20.7529737"><ele>-1.0</ele><time>2026-05-02T13:32:51.729Z</time></trkpt><trkpt lat="39.1320757" lon="20.7529698"><ele>-2.0</ele><time>2026-05-02T13:32:52.73Z</time></trkpt><trkpt lat="39.1318244" lon="20.7529647"><ele>-2.0</ele><time>2026-05-02T13:32:53.73Z</time></trkpt><trkpt lat="39.1315731" lon="20.752958"><ele>-2.0</ele><time>2026-05-02T13:32:54.729Z</time></trkpt><trkpt lat="39.1313208" lon="20.7529514"><ele>-1.5</ele><time>2026-05-02T13:32:55.73Z</time></trkpt><trkpt lat="39.131069" lon="20.7529462"><ele>-1.0</ele><time>2026-05-02T13:32:56.729Z</time></trkpt><trkpt lat="39.1308017" lon="20.7529414"><ele>-1.5</ele><time>2026-05-02T13:32:57.729Z</time></trkpt><trkpt lat="39.1305676" lon="20.752936"><ele>-2.0</ele><time>2026-05-02T13:32:58.73Z</time></trkpt><trkpt lat="39.1303173" lon="20.7529292"><ele>-2.0</ele><time>2026-05-02T13:32:59.73Z</time></trkpt><trkpt lat="39.1300668" lon="20.7529216"><ele>-2.0</ele><time>2026-05-02T13:33:00.729Z</time></trkpt><trkpt lat="39.1298178" lon="20.7529134"><ele>-1.5</ele><time>2026-05-02T13:33:01.73Z</time></trkpt><trkpt lat="39.1295549" lon="20.7529037"><ele>-1.0</ele><time>2026-05-02T13:33:02.73Z</time></trkpt><trkpt lat="39.1293259" lon="20.7528956"><ele>-1.0</ele><time>2026-05-02T13:33:03.729Z</time></trkpt><trkpt lat="39.1290809" lon="20.7528884"><ele>-1.0</ele><time>2026-05-02T13:33:04.73Z</time></trkpt><trkpt lat="39.1288362" lon="20.7528818"><ele>-1.5</ele><time>2026-05-02T13:33:05.73Z</time></trkpt><trkpt lat="39.1285929" lon="20.7528754"><ele>-2.0</ele><time>2026-05-02T13:33:06.729Z</time></trkpt><trkpt lat="39.1283506" lon="20.7528684"><ele>-2.0</ele><time>2026-05-02T13:33:07.729Z</time></trkpt><trkpt lat="39.1281086" lon="20.7528618"><ele>-2.0</ele><time>2026-05-02T13:33:08.73Z</time></trkpt><trkpt lat="39.1278675" lon="20.7528545"><ele>-2.0</ele><time>2026-05-02T13:33:09.729Z</time></trkpt><trkpt lat="39.1276266" lon="20.7528475"><ele>-2.0</ele><time>2026-05-02T13:33:10.729Z</time></trkpt><trkpt lat="39.1273838" lon="20.752841"><ele>-2.0</ele><time>2026-05-02T13:33:11.73Z</time></trkpt><trkpt lat="39.1271366" lon="20.7528354"><ele>-2.0</ele><time>2026-05-02T13:33:12.73Z</time></trkpt><trkpt lat="39.1268654" lon="20.7528287"><ele>-2.0</ele><time>2026-05-02T13:33:13.73Z</time></trkpt><trkpt lat="39.1266194" lon="20.7528234"><ele>-2.0</ele><time>2026-05-02T13:33:14.729Z</time></trkpt><trkpt lat="39.1263481" lon="20.7528176"><ele>-3.0</ele><time>2026-05-02T13:33:15.73Z</time></trkpt><trkpt lat="39.1260667" lon="20.7528117"><ele>-4.0</ele><time>2026-05-02T13:33:16.729Z</time></trkpt><trkpt lat="39.1257771" lon="20.7528052"><ele>-3.0</ele><time>2026-05-02T13:33:17.729Z</time></trkpt><trkpt lat="39.1254612" lon="20.752798"><ele>-2.0</ele><time>2026-05-02T13:33:18.729Z</time></trkpt><trkpt lat="39.1251774" lon="20.7527917"><ele>-1.5</ele><time>2026-05-02T13:33:19.729Z</time></trkpt><trkpt lat="39.1248769" lon="20.7527847"><ele>-1.0</ele><time>2026-05-02T13:33:20.73Z</time></trkpt><trkpt lat="39.124583" lon="20.7527763"><ele>-1.0</ele><time>2026-05-02T13:33:21.729Z</time></trkpt><trkpt lat="39.1242969" lon="20.752767"><ele>-1.0</ele><time>2026-05-02T13:33:22.73Z</time></trkpt><trkpt lat="39.1240197" lon="20.7527603"><ele>-0.5</ele><time>2026-05-02T13:33:23.73Z</time></trkpt><trkpt lat="39.123754" lon="20.7527567"><ele>0.0</ele><time>2026-05-02T13:33:24.729Z</time></trkpt><trkpt lat="39.1235042" lon="20.7527534"><ele>0.0</ele><time>2026-05-02T13:33:25.73Z</time></trkpt><trkpt lat="39.1232766" lon="20.7527492"><ele>0.0</ele><time>2026-05-02T13:33:26.729Z</time></trkpt><trkpt lat="39.1230992" lon="20.7527452"><ele>0.0</ele><time>2026-05-02T13:33:27.73Z</time></trkpt><trkpt lat="39.1229532" lon="20.7527378"><ele>-0.3333333333333333</ele><time>2026-05-02T13:33:28.73Z</time></trkpt><trkpt lat="39.1228064" lon="20.7527285"><ele>-0.6666666666666666</ele><time>2026-05-02T13:33:29.73Z</time></trkpt><trkpt lat="39.1226607" lon="20.7527217"><ele>-1.0</ele><time>2026-05-02T13:33:30.73Z</time></trkpt><trkpt lat="39.1224857" lon="20.752717"><ele>-1.0</ele><time>2026-05-02T13:33:31.73Z</time></trkpt><trkpt lat="39.1222899" lon="20.752714"><ele>-1.0</ele><time>2026-05-02T13:33:32.73Z</time></trkpt><trkpt lat="39.1220754" lon="20.7527112"><ele>-1.0</ele><time>2026-05-02T13:33:33.73Z</time></trkpt><trkpt lat="39.1218316" lon="20.7527075"><ele>-1.0</ele><time>2026-05-02T13:33:34.729Z</time></trkpt><trkpt lat="39.1216071" lon="20.7527012"><ele>-1.0</ele><time>2026-05-02T13:33:35.729Z</time></trkpt><trkpt lat="39.1213588" lon="20.752695"><ele>-1.0</ele><time>2026-05-02T13:33:36.729Z</time></trkpt><trkpt lat="39.1211031" lon="20.7526881"><ele>-1.0</ele><time>2026-05-02T13:33:37.729Z</time></trkpt><trkpt lat="39.1208427" lon="20.7526802"><ele>-0.5</ele><time>2026-05-02T13:33:38.729Z</time></trkpt><trkpt lat="39.1205793" lon="20.7526732"><ele>0.0</ele><time>2026-05-02T13:33:39.73Z</time></trkpt><trkpt lat="39.1203176" lon="20.7526669"><ele>0.0</ele><time>2026-05-02T13:33:40.73Z</time></trkpt><trkpt lat="39.1200563" lon="20.7526613"><ele>0.0</ele><time>2026-05-02T13:33:41.729Z</time></trkpt><trkpt lat="39.1197957" lon="20.7526541"><ele>0.5</ele><time>2026-05-02T13:33:42.729Z</time></trkpt><trkpt lat="39.1195328" lon="20.7526455"><ele>1.0</ele><time>2026-05-02T13:33:43.73Z</time></trkpt><trkpt lat="39.1192692" lon="20.7526379"><ele>1.0</ele><time>2026-05-02T13:33:44.73Z</time></trkpt><trkpt lat="39.1189884" lon="20.752633"><ele>1.0</ele><time>2026-05-02T13:33:45.729Z</time></trkpt><trkpt lat="39.1187447" lon="20.7526286"><ele>1.0</ele><time>2026-05-02T13:33:46.729Z</time></trkpt><trkpt lat="39.1184883" lon="20.7526238"><ele>1.0</ele><time>2026-05-02T13:33:47.729Z</time></trkpt><trkpt lat="39.1182362" lon="20.7526184"><ele>1.5</ele><time>2026-05-02T13:33:48.729Z</time></trkpt><trkpt lat="39.1179889" lon="20.7526132"><ele>2.0</ele><time>2026-05-02T13:33:49.73Z</time></trkpt><trkpt lat="39.1177286" lon="20.7526072"><ele>2.0</ele><time>2026-05-02T13:33:50.73Z</time></trkpt><trkpt lat="39.1175041" lon="20.7526016"><ele>2.0</ele><time>2026-05-02T13:33:51.729Z</time></trkpt><trkpt lat="39.1172642" lon="20.7525958"><ele>0.5</ele><time>2026-05-02T13:33:52.73Z</time></trkpt><trkpt lat="39.1170232" lon="20.7525901"><ele>-1.0</ele><time>2026-05-02T13:33:53.729Z</time></trkpt><trkpt lat="39.1167825" lon="20.7525837"><ele>-0.5</ele><time>2026-05-02T13:33:54.73Z</time></trkpt><trkpt lat="39.116543" lon="20.7525762"><ele>0.0</ele><time>2026-05-02T13:33:55.73Z</time></trkpt><trkpt lat="39.1163052" lon="20.7525682"><ele>0.0</ele><time>2026-05-02T13:33:56.73Z</time></trkpt><trkpt lat="39.11607" lon="20.7525612"><ele>0.0</ele><time>2026-05-02T13:33:57.73Z</time></trkpt><trkpt lat="39.1158374" lon="20.7525553"><ele>-1.0</ele><time>2026-05-02T13:33:58.73Z</time></trkpt><trkpt lat="39.1156059" lon="20.7525499"><ele>-2.0</ele><time>2026-05-02T13:33:59.729Z</time></trkpt><trkpt lat="39.1153723" lon="20.7525438"><ele>-2.0</ele><time>2026-05-02T13:34:00.73Z</time></trkpt><trkpt lat="39.1151219" lon="20.7525363"><ele>-2.0</ele><time>2026-05-02T13:34:01.729Z</time></trkpt><trkpt lat="39.1148999" lon="20.7525292"><ele>-1.5</ele><time>2026-05-02T13:34:02.73Z</time></trkpt><trkpt lat="39.1146624" lon="20.7525229"><ele>-1.0</ele><time>2026-05-02T13:34:03.729Z</time></trkpt><trkpt lat="39.1144244" lon="20.7525175"><ele>-1.0</ele><time>2026-05-02T13:34:04.729Z</time></trkpt><trkpt lat="39.1141865" lon="20.7525125"><ele>-1.0</ele><time>2026-05-02T13:34:05.729Z</time></trkpt><trkpt lat="39.1139366" lon="20.7525062"><ele>-0.6666666666666666</ele><time>2026-05-02T13:34:06.729Z</time></trkpt><trkpt lat="39.1137191" lon="20.7525005"><ele>-0.3333333333333333</ele><time>2026-05-02T13:34:07.729Z</time></trkpt><trkpt lat="39.1134892" lon="20.7524944"><ele>0.0</ele><time>2026-05-02T13:34:08.73Z</time></trkpt><trkpt lat="39.1132618" lon="20.752489"><ele>-0.6666666666666666</ele><time>2026-05-02T13:34:09.73Z</time></trkpt><trkpt lat="39.1130369" lon="20.7524843"><ele>-1.3333333333333333</ele><time>2026-05-02T13:34:10.73Z</time></trkpt><trkpt lat="39.1128193" lon="20.7524814"><ele>-2.0</ele><time>2026-05-02T13:34:11.73Z</time></trkpt><trkpt lat="39.112612" lon="20.7524804"><ele>-2.0</ele><time>2026-05-02T13:34:12.73Z</time></trkpt><trkpt lat="39.1124169" lon="20.7524834"><ele>-2.0</ele><time>2026-05-02T13:34:13.729Z</time></trkpt><trkpt lat="39.1122334" lon="20.7524904"><ele>-2.0</ele><time>2026-05-02T13:34:14.729Z</time></trkpt><trkpt lat="39.1120623" lon="20.7524982"><ele>-1.5</ele><time>2026-05-02T13:34:15.729Z</time></trkpt><trkpt lat="39.1119116" lon="20.7525064"><ele>-1.0</ele><time>2026-05-02T13:34:16.729Z</time></trkpt><trkpt lat="39.111772" lon="20.7525112"><ele>-0.5</ele><time>2026-05-02T13:34:17.73Z</time></trkpt><trkpt lat="39.1116728" lon="20.7524968"><ele>0.0</ele><time>2026-05-02T13:34:18.73Z</time></trkpt><trkpt lat="39.1115764" lon="20.7524573"><ele>0.0</ele><time>2026-05-02T13:34:19.73Z</time></trkpt><trkpt lat="39.1114832" lon="20.7523906"><ele>0.0</ele><time>2026-05-02T13:34:20.73Z</time></trkpt><trkpt lat="39.1113806" lon="20.7522909"><ele>0.0</ele><time>2026-05-02T13:34:21.729Z</time></trkpt><trkpt lat="39.111267" lon="20.752172"><ele>0.0</ele><time>2026-05-02T13:34:22.73Z</time></trkpt><trkpt lat="39.1111657" lon="20.7520518"><ele>0.0</ele><time>2026-05-02T13:34:23.73Z</time></trkpt><trkpt lat="39.1110642" lon="20.7518983"><ele>0.0</ele><time>2026-05-02T13:34:24.729Z</time></trkpt><trkpt lat="39.110977" lon="20.7517193"><ele>0.0</ele><time>2026-05-02T13:34:25.729Z</time></trkpt><trkpt lat="39.1109057" lon="20.751523"><ele>0.0</ele><time>2026-05-02T13:34:26.73Z</time></trkpt><trkpt lat="39.1108385" lon="20.7513141"><ele>0.0</ele><time>2026-05-02T13:34:27.73Z</time></trkpt><trkpt lat="39.110763" lon="20.7510934"><ele>0.0</ele><time>2026-05-02T13:34:28.729Z</time></trkpt><trkpt lat="39.1106696" lon="20.7508677"><ele>0.0</ele><time>2026-05-02T13:34:29.73Z</time></trkpt><trkpt lat="39.1105619" lon="20.7506346"><ele>0.0</ele><time>2026-05-02T13:34:30.729Z</time></trkpt><trkpt lat="39.1104464" lon="20.7503996"><ele>0.0</ele><time>2026-05-02T13:34:31.73Z</time></trkpt><trkpt lat="39.1103266" lon="20.7501637"><ele>1.0</ele><time>2026-05-02T13:34:32.729Z</time></trkpt><trkpt lat="39.1101945" lon="20.7499083"><ele>2.0</ele><time>2026-05-02T13:34:33.729Z</time></trkpt><trkpt lat="39.1100757" lon="20.7496799"><ele>2.0</ele><time>2026-05-02T13:34:34.73Z</time></trkpt><trkpt lat="39.1099469" lon="20.7494311"><ele>2.0</ele><time>2026-05-02T13:34:35.729Z</time></trkpt><trkpt lat="39.1098165" lon="20.7491804"><ele>1.5</ele><time>2026-05-02T13:34:36.729Z</time></trkpt><trkpt lat="39.109687" lon="20.7489295"><ele>1.0</ele><time>2026-05-02T13:34:37.729Z</time></trkpt><trkpt lat="39.1095549" lon="20.7486759"><ele>1.5</ele><time>2026-05-02T13:34:38.73Z</time></trkpt><trkpt lat="39.1094182" lon="20.7484159"><ele>2.0</ele><time>2026-05-02T13:34:39.73Z</time></trkpt><trkpt lat="39.1092759" lon="20.7481457"><ele>2.0</ele><time>2026-05-02T13:34:40.729Z</time></trkpt><trkpt lat="39.1091276" lon="20.7478648"><ele>2.0</ele><time>2026-05-02T13:34:41.73Z</time></trkpt><trkpt lat="39.1089732" lon="20.7475718"><ele>1.5</ele><time>2026-05-02T13:34:42.729Z</time></trkpt><trkpt lat="39.1088162" lon="20.7472729"><ele>1.0</ele><time>2026-05-02T13:34:43.729Z</time></trkpt><trkpt lat="39.1086591" lon="20.7469716"><ele>0.5</ele><time>2026-05-02T13:34:44.729Z</time></trkpt><trkpt lat="39.1085028" lon="20.7466722"><ele>0.0</ele><time>2026-05-02T13:34:45.729Z</time></trkpt><trkpt lat="39.1083484" lon="20.7463751"><ele>0.0</ele><time>2026-05-02T13:34:46.73Z</time></trkpt><trkpt lat="39.1081954" lon="20.7460815"><ele>0.0</ele><time>2026-05-02T13:34:47.729Z</time></trkpt><trkpt lat="39.1080443" lon="20.7457894"><ele>1.0</ele><time>2026-05-02T13:34:48.73Z</time></trkpt><trkpt lat="39.1078842" lon="20.7454801"><ele>2.0</ele><time>2026-05-02T13:34:49.729Z</time></trkpt><trkpt lat="39.1077421" lon="20.7452051"><ele>2.0</ele><time>2026-05-02T13:34:50.729Z</time></trkpt><trkpt lat="39.1075915" lon="20.7449141"><ele>2.0</ele><time>2026-05-02T13:34:51.729Z</time></trkpt><trkpt lat="39.1074422" lon="20.7446251"><ele>2.0</ele><time>2026-05-02T13:34:52.73Z</time></trkpt><trkpt lat="39.1072944" lon="20.7443398"><ele>2.0</ele><time>2026-05-02T13:34:53.73Z</time></trkpt><trkpt lat="39.1071476" lon="20.7440581"><ele>2.0</ele><time>2026-05-02T13:34:54.73Z</time></trkpt><trkpt lat="39.1070012" lon="20.74378"><ele>2.0</ele><time>2026-05-02T13:34:55.73Z</time></trkpt><trkpt lat="39.1068579" lon="20.7435062"><ele>2.0</ele><time>2026-05-02T13:34:56.729Z</time></trkpt><trkpt lat="39.1067141" lon="20.7432312"><ele>2.0</ele><time>2026-05-02T13:34:57.729Z</time></trkpt><trkpt lat="39.1065714" lon="20.7429565"><ele>2.5</ele><time>2026-05-02T13:34:58.729Z</time></trkpt><trkpt lat="39.1064287" lon="20.7426815"><ele>3.0</ele><time>2026-05-02T13:34:59.729Z</time></trkpt><trkpt lat="39.1062848" lon="20.7424054"><ele>3.0</ele><time>2026-05-02T13:35:00.729Z</time></trkpt><trkpt lat="39.106141" lon="20.742129"><ele>3.0</ele><time>2026-05-02T13:35:01.73Z</time></trkpt><trkpt lat="39.1059966" lon="20.7418521"><ele>3.0</ele><time>2026-05-02T13:35:02.73Z</time></trkpt><trkpt lat="39.1058515" lon="20.7415736"><ele>3.0</ele><time>2026-05-02T13:35:03.73Z</time></trkpt><trkpt lat="39.1057058" lon="20.7412929"><ele>4.0</ele><time>2026-05-02T13:35:04.729Z</time></trkpt><trkpt lat="39.1055493" lon="20.7409929"><ele>5.0</ele><time>2026-05-02T13:35:05.73Z</time></trkpt><trkpt lat="39.1054123" lon="20.740728"><ele>5.0</ele><time>2026-05-02T13:35:06.73Z</time></trkpt><trkpt lat="39.1052653" lon="20.7404465"><ele>5.0</ele><time>2026-05-02T13:35:07.729Z</time></trkpt><trkpt lat="39.1051197" lon="20.7401659"><ele>5.5</ele><time>2026-05-02T13:35:08.73Z</time></trkpt><trkpt lat="39.1049754" lon="20.7398874"><ele>6.0</ele><time>2026-05-02T13:35:09.73Z</time></trkpt><trkpt lat="39.1048323" lon="20.739612"><ele>5.5</ele><time>2026-05-02T13:35:10.729Z</time></trkpt><trkpt lat="39.1046892" lon="20.7393384"><ele>5.0</ele><time>2026-05-02T13:35:11.729Z</time></trkpt><trkpt lat="39.1045466" lon="20.7390664"><ele>5.0</ele><time>2026-05-02T13:35:12.729Z</time></trkpt><trkpt lat="39.1044042" lon="20.7387943"><ele>5.0</ele><time>2026-05-02T13:35:13.729Z</time></trkpt><trkpt lat="39.1042634" lon="20.7385223"><ele>5.0</ele><time>2026-05-02T13:35:14.729Z</time></trkpt><trkpt lat="39.1041216" lon="20.7382455"><ele>5.0</ele><time>2026-05-02T13:35:15.729Z</time></trkpt><trkpt lat="39.103983" lon="20.7379739"><ele>4.5</ele><time>2026-05-02T13:35:16.73Z</time></trkpt><trkpt lat="39.1038403" lon="20.7376973"><ele>4.0</ele><time>2026-05-02T13:35:17.729Z</time></trkpt><trkpt lat="39.1036999" lon="20.7374275"><ele>4.0</ele><time>2026-05-02T13:35:18.729Z</time></trkpt><trkpt lat="39.1035576" lon="20.7371567"><ele>4.0</ele><time>2026-05-02T13:35:19.729Z</time></trkpt><trkpt lat="39.1034136" lon="20.7368843"><ele>4.5</ele><time>2026-05-02T13:35:20.73Z</time></trkpt><trkpt lat="39.1032721" lon="20.7366154"><ele>5.0</ele><time>2026-05-02T13:35:21.729Z</time></trkpt><trkpt lat="39.1031316" lon="20.7363466"><ele>5.0</ele><time>2026-05-02T13:35:22.73Z</time></trkpt><trkpt lat="39.1029915" lon="20.7360788"><ele>5.0</ele><time>2026-05-02T13:35:23.73Z</time></trkpt><trkpt lat="39.1028526" lon="20.7358114"><ele>6.5</ele><time>2026-05-02T13:35:24.73Z</time></trkpt><trkpt lat="39.1027144" lon="20.7355452"><ele>8.0</ele><time>2026-05-02T13:35:25.729Z</time></trkpt><trkpt lat="39.1025772" lon="20.7352829"><ele>8.0</ele><time>2026-05-02T13:35:26.73Z</time></trkpt><trkpt lat="39.1024392" lon="20.735019"><ele>8.0</ele><time>2026-05-02T13:35:27.729Z</time></trkpt><trkpt lat="39.1023015" lon="20.7347541"><ele>7.5</ele><time>2026-05-02T13:35:28.729Z</time></trkpt><trkpt lat="39.1021628" lon="20.7344877"><ele>7.0</ele><time>2026-05-02T13:35:29.73Z</time></trkpt><trkpt lat="39.1020216" lon="20.7342173"><ele>8.5</ele><time>2026-05-02T13:35:30.729Z</time></trkpt><trkpt lat="39.1018784" lon="20.7339439"><ele>10.0</ele><time>2026-05-02T13:35:31.73Z</time></trkpt><trkpt lat="39.1017344" lon="20.7336681"><ele>10.5</ele><time>2026-05-02T13:35:32.73Z</time></trkpt><trkpt lat="39.1015895" lon="20.7333911"><ele>11.0</ele><time>2026-05-02T13:35:33.729Z</time></trkpt><trkpt lat="39.1014447" lon="20.7331126"><ele>8.5</ele><time>2026-05-02T13:35:34.729Z</time></trkpt><trkpt lat="39.1012997" lon="20.7328348"><ele>6.0</ele><time>2026-05-02T13:35:35.73Z</time></trkpt><trkpt lat="39.1011557" lon="20.7325568"><ele>6.0</ele><time>2026-05-02T13:35:36.73Z</time></trkpt><trkpt lat="39.1010029" lon="20.7322613"><ele>6.0</ele><time>2026-05-02T13:35:37.73Z</time></trkpt><trkpt lat="39.1008687" lon="20.7320016"><ele>5.5</ele><time>2026-05-02T13:35:38.73Z</time></trkpt><trkpt lat="39.1007252" lon="20.7317248"><ele>5.0</ele><time>2026-05-02T13:35:39.729Z</time></trkpt><trkpt lat="39.100582" lon="20.7314494"><ele>5.0</ele><time>2026-05-02T13:35:40.729Z</time></trkpt><trkpt lat="39.1004382" lon="20.7311751"><ele>5.0</ele><time>2026-05-02T13:35:41.729Z</time></trkpt><trkpt lat="39.1002952" lon="20.7309009"><ele>6.5</ele><time>2026-05-02T13:35:42.729Z</time></trkpt><trkpt lat="39.1001516" lon="20.7306278"><ele>8.0</ele><time>2026-05-02T13:35:43.729Z</time></trkpt><trkpt lat="39.1000082" lon="20.7303549"><ele>7.5</ele><time>2026-05-02T13:35:44.73Z</time></trkpt><trkpt lat="39.0998653" lon="20.7300818"><ele>7.0</ele><time>2026-05-02T13:35:45.73Z</time></trkpt><trkpt lat="39.099721" lon="20.7298056"><ele>7.0</ele><time>2026-05-02T13:35:46.73Z</time></trkpt><trkpt lat="39.0995769" lon="20.7295298"><ele>7.0</ele><time>2026-05-02T13:35:47.73Z</time></trkpt><trkpt lat="39.0994316" lon="20.7292508"><ele>9.5</ele><time>2026-05-02T13:35:48.729Z</time></trkpt><trkpt lat="39.0992851" lon="20.7289698"><ele>12.0</ele><time>2026-05-02T13:35:49.73Z</time></trkpt><trkpt lat="39.0991386" lon="20.7286884"><ele>10.5</ele><time>2026-05-02T13:35:50.73Z</time></trkpt><trkpt lat="39.0989924" lon="20.7284092"><ele>9.0</ele><time>2026-05-02T13:35:51.73Z</time></trkpt><trkpt lat="39.0988479" lon="20.728132"><ele>9.0</ele><time>2026-05-02T13:35:52.73Z</time></trkpt><trkpt lat="39.0987046" lon="20.7278566"><ele>9.0</ele><time>2026-05-02T13:35:53.73Z</time></trkpt><trkpt lat="39.0985624" lon="20.7275817"><ele>10.5</ele><time>2026-05-02T13:35:54.729Z</time></trkpt><trkpt lat="39.0984232" lon="20.7273098"><ele>12.0</ele><time>2026-05-02T13:35:55.73Z</time></trkpt><trkpt lat="39.0982839" lon="20.7270362"><ele>11.5</ele><time>2026-05-02T13:35:56.729Z</time></trkpt><trkpt lat="39.0981456" lon="20.7267622"><ele>11.0</ele><time>2026-05-02T13:35:57.73Z</time></trkpt><trkpt lat="39.0980075" lon="20.7264861"><ele>11.0</ele><time>2026-05-02T13:35:58.73Z</time></trkpt><trkpt lat="39.0978673" lon="20.7262053"><ele>11.0</ele><time>2026-05-02T13:35:59.729Z</time></trkpt><trkpt lat="39.0977273" lon="20.7259225"><ele>11.0</ele><time>2026-05-02T13:36:00.73Z</time></trkpt><trkpt lat="39.0975953" lon="20.7256556"><ele>11.0</ele><time>2026-05-02T13:36:01.73Z</time></trkpt><trkpt lat="39.0974449" lon="20.7253492"><ele>11.0</ele><time>2026-05-02T13:36:02.73Z</time></trkpt><trkpt lat="39.0973047" lon="20.7250631"><ele>11.0</ele><time>2026-05-02T13:36:03.729Z</time></trkpt><trkpt lat="39.0971638" lon="20.7247719"><ele>11.0</ele><time>2026-05-02T13:36:04.73Z</time></trkpt><trkpt lat="39.0970232" lon="20.724477"><ele>11.0</ele><time>2026-05-02T13:36:05.729Z</time></trkpt><trkpt lat="39.0968859" lon="20.7241844"><ele>11.5</ele><time>2026-05-02T13:36:06.729Z</time></trkpt><trkpt lat="39.0967503" lon="20.7238919"><ele>12.0</ele><time>2026-05-02T13:36:07.73Z</time></trkpt><trkpt lat="39.0966164" lon="20.7235999"><ele>13.0</ele><time>2026-05-02T13:36:08.73Z</time></trkpt><trkpt lat="39.0964849" lon="20.7233083"><ele>14.0</ele><time>2026-05-02T13:36:09.729Z</time></trkpt><trkpt lat="39.0963557" lon="20.7230145"><ele>14.0</ele><time>2026-05-02T13:36:10.73Z</time></trkpt><trkpt lat="39.0962276" lon="20.7227187"><ele>14.0</ele><time>2026-05-02T13:36:11.73Z</time></trkpt><trkpt lat="39.0961008" lon="20.72242"><ele>14.0</ele><time>2026-05-02T13:36:12.729Z</time></trkpt><trkpt lat="39.0959753" lon="20.7221187"><ele>14.0</ele><time>2026-05-02T13:36:13.73Z</time></trkpt><trkpt lat="39.0958519" lon="20.7218154"><ele>13.5</ele><time>2026-05-02T13:36:14.73Z</time></trkpt><trkpt lat="39.0957287" lon="20.7215112"><ele>13.0</ele><time>2026-05-02T13:36:15.729Z</time></trkpt><trkpt lat="39.0956037" lon="20.7212051"><ele>13.5</ele><time>2026-05-02T13:36:16.729Z</time></trkpt><trkpt lat="39.0954851" lon="20.7209139"><ele>14.0</ele><time>2026-05-02T13:36:17.73Z</time></trkpt><trkpt lat="39.0953503" lon="20.7205771"><ele>14.0</ele><time>2026-05-02T13:36:18.73Z</time></trkpt><trkpt lat="39.0952229" lon="20.7202537"><ele>14.0</ele><time>2026-05-02T13:36:19.73Z</time></trkpt><trkpt lat="39.0950933" lon="20.7199253"><ele>14.0</ele><time>2026-05-02T13:36:20.729Z</time></trkpt><trkpt lat="39.0949613" lon="20.7195956"><ele>14.0</ele><time>2026-05-02T13:36:21.729Z</time></trkpt><trkpt lat="39.0948273" lon="20.7192687"><ele>14.0</ele><time>2026-05-02T13:36:22.729Z</time></trkpt><trkpt lat="39.0946921" lon="20.7189482"><ele>14.0</ele><time>2026-05-02T13:36:23.73Z</time></trkpt><trkpt lat="39.0945608" lon="20.7186355"><ele>13.5</ele><time>2026-05-02T13:36:24.73Z</time></trkpt><trkpt lat="39.0944215" lon="20.7183031"><ele>13.0</ele><time>2026-05-02T13:36:25.729Z</time></trkpt><trkpt lat="39.0943004" lon="20.7180115"><ele>13.5</ele><time>2026-05-02T13:36:26.73Z</time></trkpt><trkpt lat="39.0941728" lon="20.7176963"><ele>14.0</ele><time>2026-05-02T13:36:27.729Z</time></trkpt><trkpt lat="39.0940477" lon="20.7173827"><ele>14.0</ele><time>2026-05-02T13:36:28.729Z</time></trkpt><trkpt lat="39.0939234" lon="20.7170688"><ele>14.0</ele><time>2026-05-02T13:36:29.73Z</time></trkpt><trkpt lat="39.0937987" lon="20.716755"><ele>15.0</ele><time>2026-05-02T13:36:30.73Z</time></trkpt><trkpt lat="39.0936741" lon="20.716445"><ele>16.0</ele><time>2026-05-02T13:36:31.729Z</time></trkpt><trkpt lat="39.0935474" lon="20.716133"><ele>16.5</ele><time>2026-05-02T13:36:32.73Z</time></trkpt><trkpt lat="39.0934203" lon="20.7158222"><ele>17.0</ele><time>2026-05-02T13:36:33.729Z</time></trkpt><trkpt lat="39.0932924" lon="20.7155082"><ele>17.0</ele><time>2026-05-02T13:36:34.73Z</time></trkpt><trkpt lat="39.0931662" lon="20.7151981"><ele>17.0</ele><time>2026-05-02T13:36:35.729Z</time></trkpt><trkpt lat="39.0930399" lon="20.7148886"><ele>17.0</ele><time>2026-05-02T13:36:36.729Z</time></trkpt><trkpt lat="39.092914" lon="20.7145813"><ele>17.0</ele><time>2026-05-02T13:36:37.73Z</time></trkpt><trkpt lat="39.0927882" lon="20.7142748"><ele>16.5</ele><time>2026-05-02T13:36:38.729Z</time></trkpt><trkpt lat="39.0926633" lon="20.7139685"><ele>16.0</ele><time>2026-05-02T13:36:39.73Z</time></trkpt><trkpt lat="39.0925392" lon="20.7136607"><ele>17.0</ele><time>2026-05-02T13:36:40.73Z</time></trkpt><trkpt lat="39.0924151" lon="20.7133534"><ele>18.0</ele><time>2026-05-02T13:36:41.729Z</time></trkpt><trkpt lat="39.0922916" lon="20.7130466"><ele>17.5</ele><time>2026-05-02T13:36:42.729Z</time></trkpt><trkpt lat="39.0921671" lon="20.7127393"><ele>17.0</ele><time>2026-05-02T13:36:43.73Z</time></trkpt><trkpt lat="39.0920426" lon="20.7124307"><ele>17.0</ele><time>2026-05-02T13:36:44.729Z</time></trkpt><trkpt lat="39.0919179" lon="20.7121215"><ele>17.0</ele><time>2026-05-02T13:36:45.73Z</time></trkpt><trkpt lat="39.0917944" lon="20.711813"><ele>16.5</ele><time>2026-05-02T13:36:46.73Z</time></trkpt><trkpt lat="39.0916705" lon="20.7115053"><ele>16.0</ele><time>2026-05-02T13:36:47.729Z</time></trkpt><trkpt lat="39.0915479" lon="20.7111987"><ele>16.5</ele><time>2026-05-02T13:36:48.73Z</time></trkpt><trkpt lat="39.0914333" lon="20.7109126"><ele>17.0</ele><time>2026-05-02T13:36:49.73Z</time></trkpt><trkpt lat="39.0913025" lon="20.7105888"><ele>17.0</ele><time>2026-05-02T13:36:50.73Z</time></trkpt><trkpt lat="39.0911785" lon="20.7102851"><ele>17.0</ele><time>2026-05-02T13:36:51.729Z</time></trkpt><trkpt lat="39.0910545" lon="20.7099805"><ele>18.0</ele><time>2026-05-02T13:36:52.729Z</time></trkpt><trkpt lat="39.0909301" lon="20.7096769"><ele>19.0</ele><time>2026-05-02T13:36:53.73Z</time></trkpt><trkpt lat="39.0908084" lon="20.7093721"><ele>20.5</ele><time>2026-05-02T13:36:54.729Z</time></trkpt><trkpt lat="39.0906873" lon="20.7090686"><ele>22.0</ele><time>2026-05-02T13:36:55.729Z</time></trkpt><trkpt lat="39.0905664" lon="20.7087676"><ele>22.0</ele><time>2026-05-02T13:36:56.73Z</time></trkpt><trkpt lat="39.0904456" lon="20.7084699"><ele>22.0</ele><time>2026-05-02T13:36:57.73Z</time></trkpt><trkpt lat="39.0903259" lon="20.7081752"><ele>22.0</ele><time>2026-05-02T13:36:58.73Z</time></trkpt><trkpt lat="39.0902079" lon="20.7078828"><ele>22.0</ele><time>2026-05-02T13:36:59.729Z</time></trkpt><trkpt lat="39.0900899" lon="20.7075931"><ele>22.5</ele><time>2026-05-02T13:37:00.729Z</time></trkpt><trkpt lat="39.0899733" lon="20.7073055"><ele>23.0</ele><time>2026-05-02T13:37:01.73Z</time></trkpt><trkpt lat="39.0898569" lon="20.7070191"><ele>23.5</ele><time>2026-05-02T13:37:02.73Z</time></trkpt><trkpt lat="39.0897391" lon="20.7067333"><ele>24.0</ele><time>2026-05-02T13:37:03.729Z</time></trkpt><trkpt lat="39.0896204" lon="20.7064489"><ele>24.0</ele><time>2026-05-02T13:37:04.729Z</time></trkpt><trkpt lat="39.0895092" lon="20.7061875"><ele>24.0</ele><time>2026-05-02T13:37:05.73Z</time></trkpt><trkpt lat="39.0893813" lon="20.7058955"><ele>23.0</ele><time>2026-05-02T13:37:06.73Z</time></trkpt><trkpt lat="39.0892609" lon="20.7056233"><ele>22.0</ele><time>2026-05-02T13:37:07.729Z</time></trkpt><trkpt lat="39.0891399" lon="20.7053523"><ele>25.5</ele><time>2026-05-02T13:37:08.73Z</time></trkpt><trkpt lat="39.0890174" lon="20.7050786"><ele>29.0</ele><time>2026-05-02T13:37:09.73Z</time></trkpt><trkpt lat="39.0888928" lon="20.7048039"><ele>29.0</ele><time>2026-05-02T13:37:10.73Z</time></trkpt><trkpt lat="39.0887655" lon="20.7045289"><ele>29.0</ele><time>2026-05-02T13:37:11.729Z</time></trkpt><trkpt lat="39.0886344" lon="20.7042525"><ele>30.0</ele><time>2026-05-02T13:37:12.73Z</time></trkpt><trkpt lat="39.0885016" lon="20.7039781"><ele>31.0</ele><time>2026-05-02T13:37:13.73Z</time></trkpt><trkpt lat="39.08837" lon="20.7037072"><ele>31.5</ele><time>2026-05-02T13:37:14.729Z</time></trkpt><trkpt lat="39.0882412" lon="20.7034396"><ele>32.0</ele><time>2026-05-02T13:37:15.73Z</time></trkpt><trkpt lat="39.088115" lon="20.7031721"><ele>32.0</ele><time>2026-05-02T13:37:16.729Z</time></trkpt><trkpt lat="39.0879897" lon="20.7029072"><ele>32.0</ele><time>2026-05-02T13:37:17.73Z</time></trkpt><trkpt lat="39.0878643" lon="20.7026436"><ele>31.0</ele><time>2026-05-02T13:37:18.729Z</time></trkpt><trkpt lat="39.0877405" lon="20.7023802"><ele>30.0</ele><time>2026-05-02T13:37:19.729Z</time></trkpt><trkpt lat="39.0876159" lon="20.7021181"><ele>28.0</ele><time>2026-05-02T13:37:20.73Z</time></trkpt><trkpt lat="39.087498" lon="20.70187"><ele>26.0</ele><time>2026-05-02T13:37:21.729Z</time></trkpt><trkpt lat="39.0873599" lon="20.7015826"><ele>25.5</ele><time>2026-05-02T13:37:22.73Z</time></trkpt><trkpt lat="39.087228" lon="20.701308"><ele>25.0</ele><time>2026-05-02T13:37:23.73Z</time></trkpt><trkpt lat="39.0870955" lon="20.7010312"><ele>25.0</ele><time>2026-05-02T13:37:24.73Z</time></trkpt><trkpt lat="39.0869638" lon="20.7007524"><ele>25.0</ele><time>2026-05-02T13:37:25.73Z</time></trkpt><trkpt lat="39.0868313" lon="20.7004727"><ele>25.5</ele><time>2026-05-02T13:37:26.729Z</time></trkpt><trkpt lat="39.0866989" lon="20.7001905"><ele>26.0</ele><time>2026-05-02T13:37:27.73Z</time></trkpt><trkpt lat="39.0865664" lon="20.6999076"><ele>26.5</ele><time>2026-05-02T13:37:28.73Z</time></trkpt><trkpt lat="39.0864332" lon="20.6996235"><ele>27.0</ele><time>2026-05-02T13:37:29.729Z</time></trkpt><trkpt lat="39.0862995" lon="20.6993385"><ele>27.0</ele><time>2026-05-02T13:37:30.73Z</time></trkpt><trkpt lat="39.0861624" lon="20.6990522"><ele>27.0</ele><time>2026-05-02T13:37:31.729Z</time></trkpt><trkpt lat="39.0860263" lon="20.69877"><ele>26.5</ele><time>2026-05-02T13:37:32.729Z</time></trkpt><trkpt lat="39.0858956" lon="20.6985002"><ele>26.0</ele><time>2026-05-02T13:37:33.729Z</time></trkpt><trkpt lat="39.0857727" lon="20.6982429"><ele>27.0</ele><time>2026-05-02T13:37:34.729Z</time></trkpt><trkpt lat="39.08565" lon="20.6979882"><ele>28.0</ele><time>2026-05-02T13:37:35.73Z</time></trkpt><trkpt lat="39.0855295" lon="20.6977349"><ele>28.0</ele><time>2026-05-02T13:37:36.73Z</time></trkpt><trkpt lat="39.0854187" lon="20.6974973"><ele>28.0</ele><time>2026-05-02T13:37:37.73Z</time></trkpt><trkpt lat="39.0852944" lon="20.6972284"><ele>28.0</ele><time>2026-05-02T13:37:38.73Z</time></trkpt><trkpt lat="39.0851738" lon="20.6969641"><ele>28.0</ele><time>2026-05-02T13:37:39.729Z</time></trkpt><trkpt lat="39.0850498" lon="20.6966821"><ele>30.5</ele><time>2026-05-02T13:37:40.729Z</time></trkpt><trkpt lat="39.0849251" lon="20.6963872"><ele>33.0</ele><time>2026-05-02T13:37:41.73Z</time></trkpt><trkpt lat="39.0848011" lon="20.6960814"><ele>33.0</ele><time>2026-05-02T13:37:42.73Z</time></trkpt><trkpt lat="39.084681" lon="20.6957694"><ele>33.0</ele><time>2026-05-02T13:37:43.729Z</time></trkpt><trkpt lat="39.0845677" lon="20.6954536"><ele>31.5</ele><time>2026-05-02T13:37:44.729Z</time></trkpt><trkpt lat="39.084467" lon="20.6951385"><ele>30.0</ele><time>2026-05-02T13:37:45.73Z</time></trkpt><trkpt lat="39.084378" lon="20.6948309"><ele>30.0</ele><time>2026-05-02T13:37:46.73Z</time></trkpt><trkpt lat="39.0842992" lon="20.6945228"><ele>30.0</ele><time>2026-05-02T13:37:47.73Z</time></trkpt><trkpt lat="39.0842264" lon="20.6942091"><ele>27.5</ele><time>2026-05-02T13:37:48.73Z</time></trkpt><trkpt lat="39.0841582" lon="20.6938933"><ele>25.0</ele><time>2026-05-02T13:37:49.73Z</time></trkpt><trkpt lat="39.0840933" lon="20.6935812"><ele>32.0</ele><time>2026-05-02T13:37:50.729Z</time></trkpt><trkpt lat="39.0840283" lon="20.6932702"><ele>39.0</ele><time>2026-05-02T13:37:51.729Z</time></trkpt><trkpt lat="39.0839641" lon="20.6929577"><ele>37.0</ele><time>2026-05-02T13:37:52.73Z</time></trkpt><trkpt lat="39.0839031" lon="20.6926683"><ele>35.0</ele><time>2026-05-02T13:37:53.729Z</time></trkpt><trkpt lat="39.0838308" lon="20.6923455"><ele>35.0</ele><time>2026-05-02T13:37:54.73Z</time></trkpt><trkpt lat="39.0837586" lon="20.6920517"><ele>35.0</ele><time>2026-05-02T13:37:55.73Z</time></trkpt><trkpt lat="39.0836782" lon="20.6917743"><ele>33.0</ele><time>2026-05-02T13:37:56.729Z</time></trkpt><trkpt lat="39.0835863" lon="20.6915134"><ele>31.0</ele><time>2026-05-02T13:37:57.73Z</time></trkpt><trkpt lat="39.0834821" lon="20.691266"><ele>29.0</ele><time>2026-05-02T13:37:58.729Z</time></trkpt><trkpt lat="39.0833648" lon="20.6910272"><ele>28.666666666666664</ele><time>2026-05-02T13:37:59.73Z</time></trkpt><trkpt lat="39.0832368" lon="20.6907949"><ele>28.333333333333336</ele><time>2026-05-02T13:38:00.729Z</time></trkpt><trkpt lat="39.0830996" lon="20.6905737"><ele>28.0</ele><time>2026-05-02T13:38:01.73Z</time></trkpt><trkpt lat="39.0829537" lon="20.690366"><ele>26.0</ele><time>2026-05-02T13:38:02.73Z</time></trkpt><trkpt lat="39.0828048" lon="20.690176"><ele>24.0</ele><time>2026-05-02T13:38:03.73Z</time></trkpt><trkpt lat="39.0826499" lon="20.6899992"><ele>22.0</ele><time>2026-05-02T13:38:04.729Z</time></trkpt><trkpt lat="39.0824801" lon="20.6898297"><ele>25.0</ele><time>2026-05-02T13:38:05.73Z</time></trkpt><trkpt lat="39.0822916" lon="20.6896572"><ele>28.0</ele><time>2026-05-02T13:38:06.73Z</time></trkpt><trkpt lat="39.0820871" lon="20.6894695"><ele>24.5</ele><time>2026-05-02T13:38:07.73Z</time></trkpt><trkpt lat="39.0818783" lon="20.6892731"><ele>21.0</ele><time>2026-05-02T13:38:08.73Z</time></trkpt><trkpt lat="39.0816799" lon="20.6890839"><ele>22.5</ele><time>2026-05-02T13:38:09.729Z</time></trkpt><trkpt lat="39.0814545" lon="20.6888703"><ele>24.0</ele><time>2026-05-02T13:38:10.729Z</time></trkpt><trkpt lat="39.0812485" lon="20.688677"><ele>20.0</ele><time>2026-05-02T13:38:11.729Z</time></trkpt><trkpt lat="39.0810475" lon="20.6884913"><ele>16.0</ele><time>2026-05-02T13:38:12.73Z</time></trkpt><trkpt lat="39.0808502" lon="20.6883126"><ele>20.5</ele><time>2026-05-02T13:38:13.73Z</time></trkpt><trkpt lat="39.0806602" lon="20.6881422"><ele>25.0</ele><time>2026-05-02T13:38:14.729Z</time></trkpt><trkpt lat="39.0804765" lon="20.6879792"><ele>25.0</ele><time>2026-05-02T13:38:15.73Z</time></trkpt><trkpt lat="39.0802994" lon="20.6878199"><ele>25.0</ele><time>2026-05-02T13:38:16.73Z</time></trkpt><trkpt lat="39.0801234" lon="20.6876597"><ele>25.0</ele><time>2026-05-02T13:38:17.73Z</time></trkpt><trkpt lat="39.079947" lon="20.6874986"><ele>21.333333333333336</ele><time>2026-05-02T13:38:18.73Z</time></trkpt><trkpt lat="39.079777" lon="20.6873404"><ele>17.666666666666668</ele><time>2026-05-02T13:38:19.73Z</time></trkpt><trkpt lat="39.079615" lon="20.6871863"><ele>14.0</ele><time>2026-05-02T13:38:20.73Z</time></trkpt><trkpt lat="39.0794602" lon="20.6870366"><ele>12.333333333333334</ele><time>2026-05-02T13:38:21.73Z</time></trkpt><trkpt lat="39.0793132" lon="20.6868927"><ele>10.666666666666668</ele><time>2026-05-02T13:38:22.73Z</time></trkpt><trkpt lat="39.0791746" lon="20.686757"><ele>9.0</ele><time>2026-05-02T13:38:23.729Z</time></trkpt><trkpt lat="39.0790461" lon="20.6866289"><ele>9.0</ele><time>2026-05-02T13:38:24.729Z</time></trkpt><trkpt lat="39.0789335" lon="20.6865168"><ele>9.0</ele><time>2026-05-02T13:38:25.729Z</time></trkpt><trkpt lat="39.078819" lon="20.6864001"><ele>9.0</ele><time>2026-05-02T13:38:26.729Z</time></trkpt><trkpt lat="39.0787261" lon="20.686308"><ele>9.0</ele><time>2026-05-02T13:38:27.729Z</time></trkpt><trkpt lat="39.0786512" lon="20.6862292"><ele>9.0</ele><time>2026-05-02T13:38:28.73Z</time></trkpt><trkpt lat="39.0785909" lon="20.6861602"><ele>9.0</ele><time>2026-05-02T13:38:29.73Z</time></trkpt><trkpt lat="39.078546" lon="20.6861003"><ele>9.0</ele><time>2026-05-02T13:38:30.73Z</time></trkpt><trkpt lat="39.0784966" lon="20.6860251"><ele>9.0</ele><time>2026-05-02T13:38:32.729Z</time></trkpt><trkpt lat="39.0784519" lon="20.6859395"><ele>9.0</ele><time>2026-05-02T13:38:37.73Z</time></trkpt><trkpt lat="39.0784426" lon="20.6858245"><ele>9.0</ele><time>2026-05-02T13:38:39.729Z</time></trkpt><trkpt lat="39.0784694" lon="20.685745"><ele>9.0</ele><time>2026-05-02T13:38:40.729Z</time></trkpt><trkpt lat="39.0785266" lon="20.6856493"><ele>9.0</ele><time>2026-05-02T13:38:41.73Z</time></trkpt><trkpt lat="39.0786204" lon="20.6855407"><ele>9.0</ele><time>2026-05-02T13:38:42.73Z</time></trkpt><trkpt lat="39.0787523" lon="20.6854066"><ele>9.0</ele><time>2026-05-02T13:38:43.73Z</time></trkpt><trkpt lat="39.0789223" lon="20.6852462"><ele>10.5</ele><time>2026-05-02T13:38:44.73Z</time></trkpt><trkpt lat="39.0791176" lon="20.6850616"><ele>12.0</ele><time>2026-05-02T13:38:45.73Z</time></trkpt><trkpt lat="39.0793291" lon="20.6848494"><ele>12.0</ele><time>2026-05-02T13:38:46.729Z</time></trkpt><trkpt lat="39.0795533" lon="20.6846094"><ele>12.0</ele><time>2026-05-02T13:38:47.729Z</time></trkpt><trkpt lat="39.0797964" lon="20.6843563"><ele>14.5</ele><time>2026-05-02T13:38:48.729Z</time></trkpt><trkpt lat="39.0800656" lon="20.6840831"><ele>17.0</ele><time>2026-05-02T13:38:49.729Z</time></trkpt><trkpt lat="39.0802933" lon="20.6838549"><ele>17.0</ele><time>2026-05-02T13:38:50.729Z</time></trkpt><trkpt lat="39.0805234" lon="20.6836228"><ele>17.0</ele><time>2026-05-02T13:38:51.729Z</time></trkpt><trkpt lat="39.0807384" lon="20.6833999"><ele>17.5</ele><time>2026-05-02T13:38:52.729Z</time></trkpt><trkpt lat="39.0809356" lon="20.6831874"><ele>18.0</ele><time>2026-05-02T13:38:53.729Z</time></trkpt><trkpt lat="39.0811222" lon="20.6829819"><ele>18.0</ele><time>2026-05-02T13:38:54.729Z</time></trkpt><trkpt lat="39.0813029" lon="20.6827873"><ele>18.0</ele><time>2026-05-02T13:38:55.729Z</time></trkpt><trkpt lat="39.0814786" lon="20.6825983"><ele>19.666666666666668</ele><time>2026-05-02T13:38:56.729Z</time></trkpt><trkpt lat="39.081652" lon="20.6824172"><ele>21.333333333333336</ele><time>2026-05-02T13:38:57.729Z</time></trkpt><trkpt lat="39.0818218" lon="20.682238"><ele>23.0</ele><time>2026-05-02T13:38:58.73Z</time></trkpt><trkpt lat="39.0819883" lon="20.6820611"><ele>22.666666666666668</ele><time>2026-05-02T13:38:59.729Z</time></trkpt><trkpt lat="39.0821488" lon="20.6818888"><ele>22.333333333333332</ele><time>2026-05-02T13:39:00.73Z</time></trkpt><trkpt lat="39.0823033" lon="20.6817216"><ele>22.0</ele><time>2026-05-02T13:39:01.73Z</time></trkpt><trkpt lat="39.082457" lon="20.6815578"><ele>22.0</ele><time>2026-05-02T13:39:02.73Z</time></trkpt><trkpt lat="39.0826084" lon="20.6813942"><ele>22.0</ele><time>2026-05-02T13:39:03.73Z</time></trkpt><trkpt lat="39.082758" lon="20.6812296"><ele>22.0</ele><time>2026-05-02T13:39:04.729Z</time></trkpt><trkpt lat="39.0829147" lon="20.6810562"><ele>21.333333333333332</ele><time>2026-05-02T13:39:05.73Z</time></trkpt><trkpt lat="39.0830529" lon="20.6809035"><ele>20.666666666666668</ele><time>2026-05-02T13:39:06.73Z</time></trkpt><trkpt lat="39.0832002" lon="20.6807399"><ele>20.0</ele><time>2026-05-02T13:39:07.73Z</time></trkpt><trkpt lat="39.0833502" lon="20.6805756"><ele>20.666666666666668</ele><time>2026-05-02T13:39:08.73Z</time></trkpt><trkpt lat="39.0835" lon="20.680409"><ele>21.333333333333332</ele><time>2026-05-02T13:39:09.729Z</time></trkpt><trkpt lat="39.083644" lon="20.680242"><ele>22.0</ele><time>2026-05-02T13:39:10.73Z</time></trkpt><trkpt lat="39.0837813" lon="20.6800753"><ele>22.0</ele><time>2026-05-02T13:39:11.73Z</time></trkpt><trkpt lat="39.083914" lon="20.6799093"><ele>22.0</ele><time>2026-05-02T13:39:12.729Z</time></trkpt><trkpt lat="39.0840412" lon="20.6797422"><ele>22.0</ele><time>2026-05-02T13:39:13.73Z</time></trkpt><trkpt lat="39.0841634" lon="20.6795767"><ele>22.0</ele><time>2026-05-02T13:39:14.729Z</time></trkpt><trkpt lat="39.0842801" lon="20.6794101"><ele>22.0</ele><time>2026-05-02T13:39:15.73Z</time></trkpt><trkpt lat="39.0843924" lon="20.6792464"><ele>22.0</ele><time>2026-05-02T13:39:16.729Z</time></trkpt><trkpt lat="39.0845035" lon="20.6790833"><ele>22.0</ele><time>2026-05-02T13:39:17.729Z</time></trkpt><trkpt lat="39.0846134" lon="20.6789225"><ele>22.0</ele><time>2026-05-02T13:39:18.729Z</time></trkpt><trkpt lat="39.0847233" lon="20.6787609"><ele>22.0</ele><time>2026-05-02T13:39:19.729Z</time></trkpt><trkpt lat="39.0848347" lon="20.6786005"><ele>22.666666666666664</ele><time>2026-05-02T13:39:20.729Z</time></trkpt><trkpt lat="39.0849512" lon="20.6784278"><ele>23.333333333333332</ele><time>2026-05-02T13:39:21.73Z</time></trkpt><trkpt lat="39.0850521" lon="20.6782781"><ele>24.0</ele><time>2026-05-02T13:39:22.73Z</time></trkpt><trkpt lat="39.0851558" lon="20.6781193"><ele>24.0</ele><time>2026-05-02T13:39:23.73Z</time></trkpt><trkpt lat="39.0852561" lon="20.677957"><ele>24.0</ele><time>2026-05-02T13:39:24.729Z</time></trkpt><trkpt lat="39.0853564" lon="20.6777913"><ele>24.0</ele><time>2026-05-02T13:39:25.729Z</time></trkpt><trkpt lat="39.0854594" lon="20.677627"><ele>23.0</ele><time>2026-05-02T13:39:26.729Z</time></trkpt><trkpt lat="39.0855622" lon="20.6774616"><ele>22.0</ele><time>2026-05-02T13:39:27.729Z</time></trkpt><trkpt lat="39.0856617" lon="20.6772934"><ele>21.0</ele><time>2026-05-02T13:39:28.729Z</time></trkpt><trkpt lat="39.0857575" lon="20.6771237"><ele>21.666666666666668</ele><time>2026-05-02T13:39:29.73Z</time></trkpt><trkpt lat="39.0858497" lon="20.6769509"><ele>22.333333333333336</ele><time>2026-05-02T13:39:30.73Z</time></trkpt><trkpt lat="39.085941" lon="20.6767786"><ele>23.0</ele><time>2026-05-02T13:39:31.729Z</time></trkpt><trkpt lat="39.0860347" lon="20.6766066"><ele>23.0</ele><time>2026-05-02T13:39:32.729Z</time></trkpt><trkpt lat="39.0861276" lon="20.6764325"><ele>23.0</ele><time>2026-05-02T13:39:33.73Z</time></trkpt><trkpt lat="39.0862243" lon="20.6762498"><ele>23.0</ele><time>2026-05-02T13:39:34.729Z</time></trkpt><trkpt lat="39.0863239" lon="20.6760544"><ele>23.333333333333336</ele><time>2026-05-02T13:39:35.73Z</time></trkpt><trkpt lat="39.0864254" lon="20.6758479"><ele>23.666666666666668</ele><time>2026-05-02T13:39:36.729Z</time></trkpt><trkpt lat="39.0865357" lon="20.6756188"><ele>24.0</ele><time>2026-05-02T13:39:37.73Z</time></trkpt><trkpt lat="39.0866341" lon="20.6754075"><ele>24.333333333333336</ele><time>2026-05-02T13:39:38.729Z</time></trkpt><trkpt lat="39.0867427" lon="20.6751747"><ele>24.666666666666668</ele><time>2026-05-02T13:39:39.729Z</time></trkpt><trkpt lat="39.0868554" lon="20.6749312"><ele>25.0</ele><time>2026-05-02T13:39:40.729Z</time></trkpt><trkpt lat="39.0869695" lon="20.6746783"><ele>21.0</ele><time>2026-05-02T13:39:41.73Z</time></trkpt><trkpt lat="39.0870844" lon="20.6744158"><ele>17.0</ele><time>2026-05-02T13:39:42.73Z</time></trkpt><trkpt lat="39.0871981" lon="20.6741452"><ele>17.0</ele><time>2026-05-02T13:39:43.729Z</time></trkpt><trkpt lat="39.0873077" lon="20.673868"><ele>17.0</ele><time>2026-05-02T13:39:44.729Z</time></trkpt><trkpt lat="39.0874113" lon="20.6735858"><ele>19.0</ele><time>2026-05-02T13:39:45.73Z</time></trkpt><trkpt lat="39.0875078" lon="20.6733057"><ele>21.0</ele><time>2026-05-02T13:39:46.729Z</time></trkpt><trkpt lat="39.0876028" lon="20.6730216"><ele>20.0</ele><time>2026-05-02T13:39:47.73Z</time></trkpt><trkpt lat="39.0876951" lon="20.6727417"><ele>19.0</ele><time>2026-05-02T13:39:48.729Z</time></trkpt><trkpt lat="39.0877867" lon="20.672455"><ele>19.0</ele><time>2026-05-02T13:39:49.73Z</time></trkpt><trkpt lat="39.087876" lon="20.6721634"><ele>19.0</ele><time>2026-05-02T13:39:50.729Z</time></trkpt><trkpt lat="39.0879614" lon="20.6718669"><ele>18.5</ele><time>2026-05-02T13:39:51.729Z</time></trkpt><trkpt lat="39.0880423" lon="20.6715695"><ele>18.0</ele><time>2026-05-02T13:39:52.729Z</time></trkpt><trkpt lat="39.0881253" lon="20.6712514"><ele>18.5</ele><time>2026-05-02T13:39:53.729Z</time></trkpt><trkpt lat="39.0881965" lon="20.6709738"><ele>19.0</ele><time>2026-05-02T13:39:54.729Z</time></trkpt><trkpt lat="39.0882694" lon="20.6706797"><ele>20.0</ele><time>2026-05-02T13:39:55.729Z</time></trkpt><trkpt lat="39.0883389" lon="20.6703877"><ele>21.0</ele><time>2026-05-02T13:39:56.729Z</time></trkpt><trkpt lat="39.0884039" lon="20.6700979"><ele>21.0</ele><time>2026-05-02T13:39:57.729Z</time></trkpt><trkpt lat="39.0884643" lon="20.6698108"><ele>21.0</ele><time>2026-05-02T13:39:58.73Z</time></trkpt><trkpt lat="39.088521" lon="20.6695275"><ele>20.5</ele><time>2026-05-02T13:39:59.729Z</time></trkpt><trkpt lat="39.0885754" lon="20.669243"><ele>20.0</ele><time>2026-05-02T13:40:00.73Z</time></trkpt><trkpt lat="39.0886277" lon="20.668957"><ele>20.0</ele><time>2026-05-02T13:40:01.729Z</time></trkpt><trkpt lat="39.0886775" lon="20.6686709"><ele>20.0</ele><time>2026-05-02T13:40:02.73Z</time></trkpt><trkpt lat="39.0887235" lon="20.6683881"><ele>19.666666666666668</ele><time>2026-05-02T13:40:03.73Z</time></trkpt><trkpt lat="39.0887662" lon="20.6681116"><ele>19.333333333333332</ele><time>2026-05-02T13:40:04.73Z</time></trkpt><trkpt lat="39.0888073" lon="20.6678434"><ele>19.0</ele><time>2026-05-02T13:40:05.73Z</time></trkpt><trkpt lat="39.0888494" lon="20.6675776"><ele>19.0</ele><time>2026-05-02T13:40:06.73Z</time></trkpt><trkpt lat="39.0888928" lon="20.667312"><ele>19.0</ele><time>2026-05-02T13:40:07.73Z</time></trkpt><trkpt lat="39.0889361" lon="20.6670463"><ele>19.0</ele><time>2026-05-02T13:40:08.729Z</time></trkpt><trkpt lat="39.0889817" lon="20.666763"><ele>18.333333333333332</ele><time>2026-05-02T13:40:09.73Z</time></trkpt><trkpt lat="39.0890222" lon="20.6665133"><ele>17.666666666666668</ele><time>2026-05-02T13:40:10.73Z</time></trkpt><trkpt lat="39.089066" lon="20.6662445"><ele>17.0</ele><time>2026-05-02T13:40:11.73Z</time></trkpt><trkpt lat="39.089109" lon="20.6659816"><ele>18.666666666666668</ele><time>2026-05-02T13:40:12.729Z</time></trkpt><trkpt lat="39.0891528" lon="20.6657164"><ele>20.333333333333332</ele><time>2026-05-02T13:40:13.73Z</time></trkpt><trkpt lat="39.089198" lon="20.6654519"><ele>22.0</ele><time>2026-05-02T13:40:14.73Z</time></trkpt><trkpt lat="39.0892469" lon="20.6651863"><ele>22.0</ele><time>2026-05-02T13:40:15.73Z</time></trkpt><trkpt lat="39.0893005" lon="20.6649228"><ele>22.0</ele><time>2026-05-02T13:40:16.729Z</time></trkpt><trkpt lat="39.0893603" lon="20.6646635"><ele>22.0</ele><time>2026-05-02T13:40:17.73Z</time></trkpt><trkpt lat="39.089428" lon="20.6644099"><ele>20.333333333333332</ele><time>2026-05-02T13:40:18.73Z</time></trkpt><trkpt lat="39.0895055" lon="20.6641621"><ele>18.666666666666668</ele><time>2026-05-02T13:40:19.729Z</time></trkpt><trkpt lat="39.0895917" lon="20.6639161"><ele>17.0</ele><time>2026-05-02T13:40:20.73Z</time></trkpt><trkpt lat="39.0896859" lon="20.6636711"><ele>16.333333333333336</ele><time>2026-05-02T13:40:21.729Z</time></trkpt><trkpt lat="39.0897879" lon="20.663428"><ele>15.666666666666668</ele><time>2026-05-02T13:40:22.73Z</time></trkpt><trkpt lat="39.0898961" lon="20.6631897"><ele>15.0</ele><time>2026-05-02T13:40:23.729Z</time></trkpt><trkpt lat="39.090009" lon="20.6629638"><ele>14.666666666666668</ele><time>2026-05-02T13:40:24.73Z</time></trkpt><trkpt lat="39.0901311" lon="20.6627379"><ele>14.333333333333334</ele><time>2026-05-02T13:40:25.729Z</time></trkpt><trkpt lat="39.090238" lon="20.6625515"><ele>14.0</ele><time>2026-05-02T13:40:26.73Z</time></trkpt><trkpt lat="39.0903544" lon="20.6623576"><ele>14.0</ele><time>2026-05-02T13:40:27.73Z</time></trkpt><trkpt lat="39.0904725" lon="20.6621674"><ele>14.0</ele><time>2026-05-02T13:40:28.729Z</time></trkpt><trkpt lat="39.0905919" lon="20.661979"><ele>14.0</ele><time>2026-05-02T13:40:29.73Z</time></trkpt><trkpt lat="39.0907116" lon="20.6617912"><ele>15.666666666666668</ele><time>2026-05-02T13:40:30.73Z</time></trkpt><trkpt lat="39.0908324" lon="20.6616042"><ele>17.333333333333332</ele><time>2026-05-02T13:40:31.73Z</time></trkpt><trkpt lat="39.0909566" lon="20.6614177"><ele>19.0</ele><time>2026-05-02T13:40:32.729Z</time></trkpt><trkpt lat="39.0910841" lon="20.6612308"><ele>16.666666666666664</ele><time>2026-05-02T13:40:33.729Z</time></trkpt><trkpt lat="39.0912138" lon="20.6610435"><ele>14.333333333333332</ele><time>2026-05-02T13:40:34.729Z</time></trkpt><trkpt lat="39.0913445" lon="20.6608557"><ele>12.0</ele><time>2026-05-02T13:40:35.73Z</time></trkpt><trkpt lat="39.0914754" lon="20.6606703"><ele>13.0</ele><time>2026-05-02T13:40:36.729Z</time></trkpt><trkpt lat="39.0916078" lon="20.6604888"><ele>14.0</ele><time>2026-05-02T13:40:37.73Z</time></trkpt><trkpt lat="39.0917434" lon="20.660312"><ele>15.0</ele><time>2026-05-02T13:40:38.729Z</time></trkpt><trkpt lat="39.0918838" lon="20.6601384"><ele>12.666666666666666</ele><time>2026-05-02T13:40:39.73Z</time></trkpt><trkpt lat="39.0920284" lon="20.6599613"><ele>10.333333333333332</ele><time>2026-05-02T13:40:40.729Z</time></trkpt><trkpt lat="39.092186" lon="20.6597692"><ele>8.0</ele><time>2026-05-02T13:40:41.729Z</time></trkpt><trkpt lat="39.0923328" lon="20.6595941"><ele>7.0</ele><time>2026-05-02T13:40:42.729Z</time></trkpt><trkpt lat="39.0924991" lon="20.6593997"><ele>6.0</ele><time>2026-05-02T13:40:43.729Z</time></trkpt><trkpt lat="39.0926699" lon="20.6592044"><ele>6.0</ele><time>2026-05-02T13:40:44.73Z</time></trkpt><trkpt lat="39.0928431" lon="20.6590106"><ele>6.0</ele><time>2026-05-02T13:40:45.73Z</time></trkpt><trkpt lat="39.0930194" lon="20.658815"><ele>6.0</ele><time>2026-05-02T13:40:46.729Z</time></trkpt><trkpt lat="39.0931988" lon="20.6586171"><ele>6.0</ele><time>2026-05-02T13:40:47.729Z</time></trkpt><trkpt lat="39.0933828" lon="20.6584171"><ele>6.0</ele><time>2026-05-02T13:40:48.73Z</time></trkpt><trkpt lat="39.093565" lon="20.6582195"><ele>6.0</ele><time>2026-05-02T13:40:49.73Z</time></trkpt><trkpt lat="39.0937507" lon="20.6580189"><ele>6.0</ele><time>2026-05-02T13:40:50.729Z</time></trkpt><trkpt lat="39.0939396" lon="20.6578168"><ele>6.0</ele><time>2026-05-02T13:40:51.729Z</time></trkpt><trkpt lat="39.0941283" lon="20.6576151"><ele>5.5</ele><time>2026-05-02T13:40:52.729Z</time></trkpt><trkpt lat="39.0943187" lon="20.6574147"><ele>5.0</ele><time>2026-05-02T13:40:53.729Z</time></trkpt><trkpt lat="39.0945115" lon="20.6572125"><ele>5.0</ele><time>2026-05-02T13:40:54.73Z</time></trkpt><trkpt lat="39.0947067" lon="20.6570065"><ele>5.0</ele><time>2026-05-02T13:40:55.729Z</time></trkpt><trkpt lat="39.0949031" lon="20.6567966"><ele>7.0</ele><time>2026-05-02T13:40:56.729Z</time></trkpt><trkpt lat="39.0951" lon="20.6565858"><ele>9.0</ele><time>2026-05-02T13:40:57.73Z</time></trkpt><trkpt lat="39.095297" lon="20.656374"><ele>9.0</ele><time>2026-05-02T13:40:58.73Z</time></trkpt><trkpt lat="39.0954942" lon="20.656162"><ele>9.0</ele><time>2026-05-02T13:40:59.73Z</time></trkpt><trkpt lat="39.0956884" lon="20.6559541"><ele>13.0</ele><time>2026-05-02T13:41:00.729Z</time></trkpt><trkpt lat="39.0958834" lon="20.655746"><ele>17.0</ele><time>2026-05-02T13:41:01.729Z</time></trkpt><trkpt lat="39.0960781" lon="20.6555378"><ele>17.0</ele><time>2026-05-02T13:41:02.73Z</time></trkpt><trkpt lat="39.0962714" lon="20.6553286"><ele>17.0</ele><time>2026-05-02T13:41:03.73Z</time></trkpt><trkpt lat="39.0964627" lon="20.655116"><ele>18.0</ele><time>2026-05-02T13:41:04.729Z</time></trkpt><trkpt lat="39.0966512" lon="20.6549003"><ele>19.0</ele><time>2026-05-02T13:41:05.73Z</time></trkpt><trkpt lat="39.0968361" lon="20.654685"><ele>19.0</ele><time>2026-05-02T13:41:06.73Z</time></trkpt><trkpt lat="39.0970178" lon="20.6544729"><ele>19.0</ele><time>2026-05-02T13:41:07.729Z</time></trkpt><trkpt lat="39.0971958" lon="20.6542642"><ele>19.5</ele><time>2026-05-02T13:41:08.73Z</time></trkpt><trkpt lat="39.0973699" lon="20.6540556"><ele>20.0</ele><time>2026-05-02T13:41:09.73Z</time></trkpt><trkpt lat="39.0975396" lon="20.6538444"><ele>20.0</ele><time>2026-05-02T13:41:10.73Z</time></trkpt><trkpt lat="39.0977053" lon="20.6536306"><ele>20.0</ele><time>2026-05-02T13:41:11.729Z</time></trkpt><trkpt lat="39.097867" lon="20.6534139"><ele>24.0</ele><time>2026-05-02T13:41:12.73Z</time></trkpt><trkpt lat="39.0980343" lon="20.6531802"><ele>28.0</ele><time>2026-05-02T13:41:13.729Z</time></trkpt><trkpt lat="39.0981798" lon="20.6529709"><ele>32.0</ele><time>2026-05-02T13:41:14.73Z</time></trkpt><trkpt lat="39.0983301" lon="20.6527458"><ele>36.0</ele><time>2026-05-02T13:41:15.729Z</time></trkpt><trkpt lat="39.0984784" lon="20.6525177"><ele>36.0</ele><time>2026-05-02T13:41:16.73Z</time></trkpt><trkpt lat="39.0986244" lon="20.6522854"><ele>36.0</ele><time>2026-05-02T13:41:17.73Z</time></trkpt><trkpt lat="39.098768" lon="20.6520531"><ele>38.0</ele><time>2026-05-02T13:41:18.729Z</time></trkpt><trkpt lat="39.0989049" lon="20.6518206"><ele>40.0</ele><time>2026-05-02T13:41:19.73Z</time></trkpt><trkpt lat="39.0990381" lon="20.6515854"><ele>40.0</ele><time>2026-05-02T13:41:20.73Z</time></trkpt><trkpt lat="39.0991601" lon="20.6513653"><ele>40.0</ele><time>2026-05-02T13:41:21.729Z</time></trkpt><trkpt lat="39.0992967" lon="20.6511153"><ele>40.0</ele><time>2026-05-02T13:41:22.729Z</time></trkpt><trkpt lat="39.0994193" lon="20.6508812"><ele>40.0</ele><time>2026-05-02T13:41:23.73Z</time></trkpt><trkpt lat="39.0995394" lon="20.6506441"><ele>40.0</ele><time>2026-05-02T13:41:24.729Z</time></trkpt><trkpt lat="39.0996547" lon="20.6504051"><ele>40.0</ele><time>2026-05-02T13:41:25.73Z</time></trkpt><trkpt lat="39.0997703" lon="20.6501557"><ele>40.0</ele><time>2026-05-02T13:41:26.73Z</time></trkpt><trkpt lat="39.099883" lon="20.6498943"><ele>40.0</ele><time>2026-05-02T13:41:27.729Z</time></trkpt><trkpt lat="39.0999964" lon="20.6496226"><ele>42.5</ele><time>2026-05-02T13:41:28.729Z</time></trkpt><trkpt lat="39.1001177" lon="20.6493274"><ele>45.0</ele><time>2026-05-02T13:41:29.729Z</time></trkpt><trkpt lat="39.1002233" lon="20.6490651"><ele>45.0</ele><time>2026-05-02T13:41:30.73Z</time></trkpt><trkpt lat="39.1003341" lon="20.6487841"><ele>45.0</ele><time>2026-05-02T13:41:31.729Z</time></trkpt><trkpt lat="39.1004427" lon="20.648505"><ele>46.0</ele><time>2026-05-02T13:41:32.729Z</time></trkpt><trkpt lat="39.1005487" lon="20.6482269"><ele>47.0</ele><time>2026-05-02T13:41:33.729Z</time></trkpt><trkpt lat="39.1006514" lon="20.6479466"><ele>47.0</ele><time>2026-05-02T13:41:34.73Z</time></trkpt><trkpt lat="39.1007475" lon="20.6476736"><ele>47.0</ele><time>2026-05-02T13:41:35.73Z</time></trkpt><trkpt lat="39.1008401" lon="20.6473957"><ele>50.5</ele><time>2026-05-02T13:41:36.729Z</time></trkpt><trkpt lat="39.100923" lon="20.647131"><ele>54.0</ele><time>2026-05-02T13:41:37.729Z</time></trkpt><trkpt lat="39.1010126" lon="20.6468302"><ele>55.0</ele><time>2026-05-02T13:41:38.73Z</time></trkpt><trkpt lat="39.1010928" lon="20.6465432"><ele>56.0</ele><time>2026-05-02T13:41:39.729Z</time></trkpt><trkpt lat="39.1011708" lon="20.6462497"><ele>54.5</ele><time>2026-05-02T13:41:40.729Z</time></trkpt><trkpt lat="39.1012472" lon="20.6459517"><ele>53.0</ele><time>2026-05-02T13:41:41.729Z</time></trkpt><trkpt lat="39.1013219" lon="20.6456503"><ele>53.0</ele><time>2026-05-02T13:41:42.729Z</time></trkpt><trkpt lat="39.1013935" lon="20.6453479"><ele>53.0</ele><time>2026-05-02T13:41:43.73Z</time></trkpt><trkpt lat="39.1014654" lon="20.6450438"><ele>52.0</ele><time>2026-05-02T13:41:44.729Z</time></trkpt><trkpt lat="39.1015406" lon="20.6447253"><ele>51.0</ele><time>2026-05-02T13:41:45.729Z</time></trkpt><trkpt lat="39.101605" lon="20.6444428"><ele>59.5</ele><time>2026-05-02T13:41:46.73Z</time></trkpt><trkpt lat="39.1016711" lon="20.6441386"><ele>68.0</ele><time>2026-05-02T13:41:47.729Z</time></trkpt><trkpt lat="39.1017341" lon="20.643836"><ele>66.0</ele><time>2026-05-02T13:41:48.73Z</time></trkpt><trkpt lat="39.1017954" lon="20.643534"><ele>64.0</ele><time>2026-05-02T13:41:49.73Z</time></trkpt><trkpt lat="39.1018546" lon="20.6432349"><ele>64.0</ele><time>2026-05-02T13:41:50.729Z</time></trkpt><trkpt lat="39.1019132" lon="20.6429412"><ele>64.0</ele><time>2026-05-02T13:41:51.73Z</time></trkpt><trkpt lat="39.1019735" lon="20.6426515"><ele>63.0</ele><time>2026-05-02T13:41:52.729Z</time></trkpt><trkpt lat="39.1020328" lon="20.6423809"><ele>62.0</ele><time>2026-05-02T13:41:53.729Z</time></trkpt><trkpt lat="39.1021044" lon="20.6420754"><ele>63.5</ele><time>2026-05-02T13:41:54.73Z</time></trkpt><trkpt lat="39.1021798" lon="20.6417912"><ele>65.0</ele><time>2026-05-02T13:41:55.73Z</time></trkpt><trkpt lat="39.1022628" lon="20.6415116"><ele>65.0</ele><time>2026-05-02T13:41:56.73Z</time></trkpt><trkpt lat="39.1023558" lon="20.6412357"><ele>65.0</ele><time>2026-05-02T13:41:57.73Z</time></trkpt><trkpt lat="39.1024565" lon="20.6409632"><ele>76.5</ele><time>2026-05-02T13:41:58.729Z</time></trkpt><trkpt lat="39.1025626" lon="20.640699"><ele>88.0</ele><time>2026-05-02T13:41:59.73Z</time></trkpt><trkpt lat="39.1026761" lon="20.640446"><ele>82.5</ele><time>2026-05-02T13:42:00.73Z</time></trkpt><trkpt lat="39.102796" lon="20.6402009"><ele>77.0</ele><time>2026-05-02T13:42:01.729Z</time></trkpt><trkpt lat="39.1029217" lon="20.6399566"><ele>77.0</ele><time>2026-05-02T13:42:02.73Z</time></trkpt><trkpt lat="39.1030544" lon="20.6397137"><ele>77.0</ele><time>2026-05-02T13:42:03.729Z</time></trkpt><trkpt lat="39.1031937" lon="20.6394733"><ele>83.5</ele><time>2026-05-02T13:42:04.73Z</time></trkpt><trkpt lat="39.1033401" lon="20.6392375"><ele>90.0</ele><time>2026-05-02T13:42:05.73Z</time></trkpt><trkpt lat="39.1034958" lon="20.6390057"><ele>90.0</ele><time>2026-05-02T13:42:06.729Z</time></trkpt><trkpt lat="39.1036632" lon="20.6387792"><ele>90.0</ele><time>2026-05-02T13:42:07.73Z</time></trkpt><trkpt lat="39.1038429" lon="20.6385591"><ele>86.0</ele><time>2026-05-02T13:42:08.73Z</time></trkpt><trkpt lat="39.1040248" lon="20.6383585"><ele>82.0</ele><time>2026-05-02T13:42:09.729Z</time></trkpt><trkpt lat="39.1042391" lon="20.6381396"><ele>84.0</ele><time>2026-05-02T13:42:10.729Z</time></trkpt><trkpt lat="39.1044506" lon="20.6379356"><ele>86.0</ele><time>2026-05-02T13:42:11.729Z</time></trkpt><trkpt lat="39.1046694" lon="20.6377337"><ele>86.0</ele><time>2026-05-02T13:42:12.73Z</time></trkpt><trkpt lat="39.1048951" lon="20.6375343"><ele>86.0</ele><time>2026-05-02T13:42:13.729Z</time></trkpt><trkpt lat="39.1051274" lon="20.6373368"><ele>84.5</ele><time>2026-05-02T13:42:14.73Z</time></trkpt><trkpt lat="39.105365" lon="20.6371399"><ele>83.0</ele><time>2026-05-02T13:42:15.729Z</time></trkpt><trkpt lat="39.1056085" lon="20.6369409"><ele>92.5</ele><time>2026-05-02T13:42:16.729Z</time></trkpt><trkpt lat="39.1058551" lon="20.6367343"><ele>102.0</ele><time>2026-05-02T13:42:17.73Z</time></trkpt><trkpt lat="39.1061042" lon="20.6365231"><ele>102.0</ele><time>2026-05-02T13:42:18.73Z</time></trkpt><trkpt lat="39.1063515" lon="20.6363136"><ele>102.0</ele><time>2026-05-02T13:42:19.73Z</time></trkpt><trkpt lat="39.1065964" lon="20.6361066"><ele>103.5</ele><time>2026-05-02T13:42:20.73Z</time></trkpt><trkpt lat="39.1068398" lon="20.6359013"><ele>105.0</ele><time>2026-05-02T13:42:21.73Z</time></trkpt><trkpt lat="39.1070798" lon="20.6356943"><ele>105.0</ele><time>2026-05-02T13:42:22.73Z</time></trkpt><trkpt lat="39.1073146" lon="20.635484"><ele>105.0</ele><time>2026-05-02T13:42:23.73Z</time></trkpt><trkpt lat="39.1075444" lon="20.6352695"><ele>108.0</ele><time>2026-05-02T13:42:24.73Z</time></trkpt><trkpt lat="39.1077579" lon="20.6350664"><ele>111.0</ele><time>2026-05-02T13:42:25.73Z</time></trkpt><trkpt lat="39.107997" lon="20.6348319"><ele>111.0</ele><time>2026-05-02T13:42:26.729Z</time></trkpt><trkpt lat="39.1082179" lon="20.6346075"><ele>111.0</ele><time>2026-05-02T13:42:27.73Z</time></trkpt><trkpt lat="39.1084357" lon="20.6343806"><ele>119.0</ele><time>2026-05-02T13:42:28.73Z</time></trkpt><trkpt lat="39.1086518" lon="20.6341516"><ele>127.0</ele><time>2026-05-02T13:42:29.73Z</time></trkpt><trkpt lat="39.1088661" lon="20.6339219"><ele>133.0</ele><time>2026-05-02T13:42:30.73Z</time></trkpt><trkpt lat="39.1090783" lon="20.6336919"><ele>139.0</ele><time>2026-05-02T13:42:31.73Z</time></trkpt><trkpt lat="39.1092914" lon="20.6334575"><ele>139.0</ele><time>2026-05-02T13:42:32.729Z</time></trkpt><trkpt lat="39.1095033" lon="20.6332168"><ele>139.0</ele><time>2026-05-02T13:42:33.73Z</time></trkpt><trkpt lat="39.1097116" lon="20.6329733"><ele>140.5</ele><time>2026-05-02T13:42:34.729Z</time></trkpt><trkpt lat="39.1099159" lon="20.6327262"><ele>142.0</ele><time>2026-05-02T13:42:35.729Z</time></trkpt><trkpt lat="39.1101196" lon="20.6324763"><ele>142.0</ele><time>2026-05-02T13:42:36.73Z</time></trkpt><trkpt lat="39.1103231" lon="20.6322234"><ele>142.0</ele><time>2026-05-02T13:42:37.73Z</time></trkpt><trkpt lat="39.1105254" lon="20.6319664"><ele>141.0</ele><time>2026-05-02T13:42:38.729Z</time></trkpt><trkpt lat="39.1107253" lon="20.631704"><ele>140.0</ele><time>2026-05-02T13:42:39.729Z</time></trkpt><trkpt lat="39.1109228" lon="20.6314398"><ele>140.0</ele><time>2026-05-02T13:42:40.73Z</time></trkpt><trkpt lat="39.1111065" lon="20.6311877"><ele>140.0</ele><time>2026-05-02T13:42:41.73Z</time></trkpt><trkpt lat="39.1113141" lon="20.6308961"><ele>140.0</ele><time>2026-05-02T13:42:42.729Z</time></trkpt><trkpt lat="39.1115065" lon="20.63062"><ele>140.0</ele><time>2026-05-02T13:42:43.73Z</time></trkpt><trkpt lat="39.111699" lon="20.6303369"><ele>145.5</ele><time>2026-05-02T13:42:44.73Z</time></trkpt><trkpt lat="39.1118893" lon="20.630049"><ele>151.0</ele><time>2026-05-02T13:42:45.73Z</time></trkpt><trkpt lat="39.1120783" lon="20.6297577"><ele>148.5</ele><time>2026-05-02T13:42:46.729Z</time></trkpt><trkpt lat="39.1122669" lon="20.6294676"><ele>146.0</ele><time>2026-05-02T13:42:47.73Z</time></trkpt><trkpt lat="39.1124533" lon="20.629177"><ele>149.0</ele><time>2026-05-02T13:42:48.729Z</time></trkpt><trkpt lat="39.1126365" lon="20.628882"><ele>152.0</ele><time>2026-05-02T13:42:49.73Z</time></trkpt><trkpt lat="39.1128138" lon="20.6285824"><ele>152.0</ele><time>2026-05-02T13:42:50.729Z</time></trkpt><trkpt lat="39.1129908" lon="20.6282789"><ele>152.0</ele><time>2026-05-02T13:42:51.73Z</time></trkpt><trkpt lat="39.1131677" lon="20.6279726"><ele>156.5</ele><time>2026-05-02T13:42:52.73Z</time></trkpt><trkpt lat="39.1133413" lon="20.627662"><ele>161.0</ele><time>2026-05-02T13:42:53.729Z</time></trkpt><trkpt lat="39.1135109" lon="20.6273493"><ele>161.0</ele><time>2026-05-02T13:42:54.73Z</time></trkpt><trkpt lat="39.1136777" lon="20.627035"><ele>161.0</ele><time>2026-05-02T13:42:55.729Z</time></trkpt><trkpt lat="39.1138412" lon="20.6267195"><ele>163.5</ele><time>2026-05-02T13:42:56.729Z</time></trkpt><trkpt lat="39.1139934" lon="20.6264211"><ele>166.0</ele><time>2026-05-02T13:42:57.73Z</time></trkpt><trkpt lat="39.1141651" lon="20.626076"><ele>166.0</ele><time>2026-05-02T13:42:58.729Z</time></trkpt><trkpt lat="39.1143264" lon="20.6257481"><ele>166.0</ele><time>2026-05-02T13:42:59.729Z</time></trkpt><trkpt lat="39.1144843" lon="20.6254183"><ele>160.5</ele><time>2026-05-02T13:43:00.73Z</time></trkpt><trkpt lat="39.1146386" lon="20.6250841"><ele>155.0</ele><time>2026-05-02T13:43:01.729Z</time></trkpt><trkpt lat="39.1147919" lon="20.6247422"><ele>168.0</ele><time>2026-05-02T13:43:02.729Z</time></trkpt><trkpt lat="39.1149437" lon="20.6243968"><ele>181.0</ele><time>2026-05-02T13:43:03.729Z</time></trkpt><trkpt lat="39.1150943" lon="20.6240465"><ele>181.0</ele><time>2026-05-02T13:43:04.729Z</time></trkpt><trkpt lat="39.1152427" lon="20.6236938"><ele>181.0</ele><time>2026-05-02T13:43:05.729Z</time></trkpt><trkpt lat="39.1153883" lon="20.6233382"><ele>177.5</ele><time>2026-05-02T13:43:06.73Z</time></trkpt><trkpt lat="39.1155312" lon="20.6229766"><ele>174.0</ele><time>2026-05-02T13:43:07.73Z</time></trkpt><trkpt lat="39.1156711" lon="20.6226091"><ele>177.5</ele><time>2026-05-02T13:43:08.729Z</time></trkpt><trkpt lat="39.1158089" lon="20.6222354"><ele>181.0</ele><time>2026-05-02T13:43:09.729Z</time></trkpt><trkpt lat="39.1159435" lon="20.6218588"><ele>181.0</ele><time>2026-05-02T13:43:10.729Z</time></trkpt><trkpt lat="39.1160731" lon="20.6214847"><ele>181.0</ele><time>2026-05-02T13:43:11.73Z</time></trkpt><trkpt lat="39.1161992" lon="20.6211133"><ele>173.0</ele><time>2026-05-02T13:43:12.73Z</time></trkpt><trkpt lat="39.1163147" lon="20.6207689"><ele>165.0</ele><time>2026-05-02T13:43:13.73Z</time></trkpt><trkpt lat="39.1164428" lon="20.6203823"><ele>163.0</ele><time>2026-05-02T13:43:14.729Z</time></trkpt><trkpt lat="39.1165602" lon="20.6200221"><ele>161.0</ele><time>2026-05-02T13:43:15.729Z</time></trkpt><trkpt lat="39.1166792" lon="20.6196605"><ele>174.5</ele><time>2026-05-02T13:43:16.73Z</time></trkpt><trkpt lat="39.1167986" lon="20.6192967"><ele>188.0</ele><time>2026-05-02T13:43:17.729Z</time></trkpt><trkpt lat="39.1169183" lon="20.6189372"><ele>185.5</ele><time>2026-05-02T13:43:18.729Z</time></trkpt><trkpt lat="39.1170397" lon="20.6185782"><ele>183.0</ele><time>2026-05-02T13:43:19.73Z</time></trkpt><trkpt lat="39.1171664" lon="20.618218"><ele>183.0</ele><time>2026-05-02T13:43:20.729Z</time></trkpt><trkpt lat="39.1173018" lon="20.6178548"><ele>183.0</ele><time>2026-05-02T13:43:21.73Z</time></trkpt><trkpt lat="39.1174424" lon="20.6174928"><ele>188.0</ele><time>2026-05-02T13:43:22.729Z</time></trkpt><trkpt lat="39.1175848" lon="20.6171351"><ele>193.0</ele><time>2026-05-02T13:43:23.73Z</time></trkpt><trkpt lat="39.1177301" lon="20.6167901"><ele>193.0</ele><time>2026-05-02T13:43:24.729Z</time></trkpt><trkpt lat="39.1178837" lon="20.6164577"><ele>193.0</ele><time>2026-05-02T13:43:25.73Z</time></trkpt><trkpt lat="39.1180457" lon="20.6161279"><ele>188.5</ele><time>2026-05-02T13:43:26.729Z</time></trkpt><trkpt lat="39.1182227" lon="20.6157966"><ele>184.0</ele><time>2026-05-02T13:43:27.73Z</time></trkpt><trkpt lat="39.1184078" lon="20.6154665"><ele>183.0</ele><time>2026-05-02T13:43:28.729Z</time></trkpt><trkpt lat="39.1185885" lon="20.6151652"><ele>182.0</ele><time>2026-05-02T13:43:29.729Z</time></trkpt><trkpt lat="39.1188038" lon="20.6148314"><ele>182.0</ele><time>2026-05-02T13:43:30.73Z</time></trkpt><trkpt lat="39.1190128" lon="20.6145294"><ele>182.0</ele><time>2026-05-02T13:43:31.73Z</time></trkpt><trkpt lat="39.1192282" lon="20.6142382"><ele>187.0</ele><time>2026-05-02T13:43:32.729Z</time></trkpt><trkpt lat="39.1194435" lon="20.6139626"><ele>192.0</ele><time>2026-05-02T13:43:33.73Z</time></trkpt><trkpt lat="39.1196578" lon="20.6136972"><ele>194.0</ele><time>2026-05-02T13:43:34.73Z</time></trkpt><trkpt lat="39.1198721" lon="20.6134407"><ele>196.0</ele><time>2026-05-02T13:43:35.73Z</time></trkpt><trkpt lat="39.1200876" lon="20.6131876"><ele>196.0</ele><time>2026-05-02T13:43:36.73Z</time></trkpt><trkpt lat="39.1203011" lon="20.6129362"><ele>196.0</ele><time>2026-05-02T13:43:37.729Z</time></trkpt><trkpt lat="39.1205108" lon="20.6126851"><ele>196.0</ele><time>2026-05-02T13:43:38.729Z</time></trkpt><trkpt lat="39.1207168" lon="20.6124282"><ele>196.0</ele><time>2026-05-02T13:43:39.729Z</time></trkpt><trkpt lat="39.1209176" lon="20.612164"><ele>182.5</ele><time>2026-05-02T13:43:40.729Z</time></trkpt><trkpt lat="39.121115" lon="20.6118956"><ele>169.0</ele><time>2026-05-02T13:43:41.73Z</time></trkpt><trkpt lat="39.1213062" lon="20.6116232"><ele>169.0</ele><time>2026-05-02T13:43:42.73Z</time></trkpt><trkpt lat="39.1214938" lon="20.6113396"><ele>169.0</ele><time>2026-05-02T13:43:43.729Z</time></trkpt><trkpt lat="39.1216763" lon="20.6110422"><ele>173.0</ele><time>2026-05-02T13:43:44.73Z</time></trkpt><trkpt lat="39.1218388" lon="20.6107556"><ele>177.0</ele><time>2026-05-02T13:43:45.73Z</time></trkpt><trkpt lat="39.1220195" lon="20.6104259"><ele>170.5</ele><time>2026-05-02T13:43:46.729Z</time></trkpt><trkpt lat="39.1221897" lon="20.6101118"><ele>164.0</ele><time>2026-05-02T13:43:47.729Z</time></trkpt><trkpt lat="39.1223546" lon="20.6098103"><ele>163.0</ele><time>2026-05-02T13:43:48.73Z</time></trkpt><trkpt lat="39.1225415" lon="20.6094711"><ele>162.0</ele><time>2026-05-02T13:43:49.729Z</time></trkpt><trkpt lat="39.1227149" lon="20.6091574"><ele>162.0</ele><time>2026-05-02T13:43:50.729Z</time></trkpt><trkpt lat="39.122883" lon="20.6088552"><ele>162.0</ele><time>2026-05-02T13:43:51.729Z</time></trkpt><trkpt lat="39.1230439" lon="20.6085636"><ele>168.0</ele><time>2026-05-02T13:43:52.729Z</time></trkpt><trkpt lat="39.1231993" lon="20.6082825"><ele>174.0</ele><time>2026-05-02T13:43:53.73Z</time></trkpt><trkpt lat="39.1233491" lon="20.608011"><ele>160.5</ele><time>2026-05-02T13:43:54.73Z</time></trkpt><trkpt lat="39.1234937" lon="20.6077466"><ele>147.0</ele><time>2026-05-02T13:43:55.729Z</time></trkpt><trkpt lat="39.1236382" lon="20.6074823"><ele>147.0</ele><time>2026-05-02T13:43:56.73Z</time></trkpt><trkpt lat="39.1237861" lon="20.6072116"><ele>147.0</ele><time>2026-05-02T13:43:57.73Z</time></trkpt><trkpt lat="39.123937" lon="20.606935"><ele>154.0</ele><time>2026-05-02T13:43:58.729Z</time></trkpt><trkpt lat="39.1240915" lon="20.6066533"><ele>161.0</ele><time>2026-05-02T13:43:59.729Z</time></trkpt><trkpt lat="39.12425" lon="20.6063664"><ele>154.0</ele><time>2026-05-02T13:44:00.73Z</time></trkpt><trkpt lat="39.1243992" lon="20.606096"><ele>147.0</ele><time>2026-05-02T13:44:01.729Z</time></trkpt><trkpt lat="39.1245688" lon="20.6057912"><ele>147.0</ele><time>2026-05-02T13:44:02.73Z</time></trkpt><trkpt lat="39.1247288" lon="20.6055087"><ele>147.0</ele><time>2026-05-02T13:44:03.729Z</time></trkpt><trkpt lat="39.1248904" lon="20.6052306"><ele>149.5</ele><time>2026-05-02T13:44:04.73Z</time></trkpt><trkpt lat="39.1250584" lon="20.6049571"><ele>152.0</ele><time>2026-05-02T13:44:05.73Z</time></trkpt><trkpt lat="39.1252323" lon="20.6046887"><ele>140.0</ele><time>2026-05-02T13:44:06.73Z</time></trkpt><trkpt lat="39.12541" lon="20.6044265"><ele>128.0</ele><time>2026-05-02T13:44:07.729Z</time></trkpt><trkpt lat="39.1255926" lon="20.6041688"><ele>131.0</ele><time>2026-05-02T13:44:08.73Z</time></trkpt><trkpt lat="39.125787" lon="20.6039052"><ele>134.0</ele><time>2026-05-02T13:44:09.73Z</time></trkpt><trkpt lat="39.1259964" lon="20.6036341"><ele>134.0</ele><time>2026-05-02T13:44:10.729Z</time></trkpt><trkpt lat="39.1262245" lon="20.6033538"><ele>134.0</ele><time>2026-05-02T13:44:11.73Z</time></trkpt><trkpt lat="39.1264634" lon="20.6030779"><ele>131.5</ele><time>2026-05-02T13:44:12.73Z</time></trkpt><trkpt lat="39.1266974" lon="20.6028164"><ele>129.0</ele><time>2026-05-02T13:44:13.729Z</time></trkpt><trkpt lat="39.1269281" lon="20.6025644"><ele>129.0</ele><time>2026-05-02T13:44:14.729Z</time></trkpt><trkpt lat="39.1271524" lon="20.6023244"><ele>129.0</ele><time>2026-05-02T13:44:15.729Z</time></trkpt><trkpt lat="39.1273678" lon="20.6020874"><ele>126.0</ele><time>2026-05-02T13:44:16.729Z</time></trkpt><trkpt lat="39.1275645" lon="20.6018625"><ele>123.0</ele><time>2026-05-02T13:44:17.729Z</time></trkpt><trkpt lat="39.1277852" lon="20.6015961"><ele>123.0</ele><time>2026-05-02T13:44:18.73Z</time></trkpt><trkpt lat="39.1279901" lon="20.6013341"><ele>123.0</ele><time>2026-05-02T13:44:19.73Z</time></trkpt><trkpt lat="39.128191" lon="20.6010637"><ele>125.5</ele><time>2026-05-02T13:44:20.73Z</time></trkpt><trkpt lat="39.1283836" lon="20.6007901"><ele>128.0</ele><time>2026-05-02T13:44:21.73Z</time></trkpt><trkpt lat="39.1285663" lon="20.6005187"><ele>118.0</ele><time>2026-05-02T13:44:22.729Z</time></trkpt><trkpt lat="39.1287369" lon="20.6002531"><ele>108.0</ele><time>2026-05-02T13:44:23.729Z</time></trkpt><trkpt lat="39.1288992" lon="20.5999916"><ele>108.0</ele><time>2026-05-02T13:44:24.73Z</time></trkpt><trkpt lat="39.1290564" lon="20.5997364"><ele>108.0</ele><time>2026-05-02T13:44:25.729Z</time></trkpt><trkpt lat="39.1292077" lon="20.599489"><ele>107.0</ele><time>2026-05-02T13:44:26.73Z</time></trkpt><trkpt lat="39.1293552" lon="20.5992497"><ele>106.0</ele><time>2026-05-02T13:44:27.73Z</time></trkpt><trkpt lat="39.1294983" lon="20.599023"><ele>106.0</ele><time>2026-05-02T13:44:28.73Z</time></trkpt><trkpt lat="39.1296351" lon="20.5988119"><ele>106.0</ele><time>2026-05-02T13:44:29.73Z</time></trkpt><trkpt lat="39.1297657" lon="20.5986154"><ele>106.0</ele><time>2026-05-02T13:44:30.729Z</time></trkpt><trkpt lat="39.1298867" lon="20.5984398"><ele>107.33333333333334</ele><time>2026-05-02T13:44:31.73Z</time></trkpt><trkpt lat="39.1300039" lon="20.5982777"><ele>108.66666666666666</ele><time>2026-05-02T13:44:32.73Z</time></trkpt><trkpt lat="39.1301085" lon="20.5981403"><ele>110.0</ele><time>2026-05-02T13:44:33.73Z</time></trkpt><trkpt lat="39.1302222" lon="20.5979955"><ele>110.0</ele><time>2026-05-02T13:44:34.73Z</time></trkpt><trkpt lat="39.1303224" lon="20.5978697"><ele>110.0</ele><time>2026-05-02T13:44:35.729Z</time></trkpt><trkpt lat="39.1304122" lon="20.5977579"><ele>110.0</ele><time>2026-05-02T13:44:36.729Z</time></trkpt><trkpt lat="39.1304975" lon="20.5976669"><ele>110.0</ele><time>2026-05-02T13:44:37.73Z</time></trkpt><trkpt lat="39.1305868" lon="20.5976067"><ele>109.4</ele><time>2026-05-02T13:44:38.729Z</time></trkpt><trkpt lat="39.1306802" lon="20.5975736"><ele>108.8</ele><time>2026-05-02T13:44:39.729Z</time></trkpt><trkpt lat="39.1307685" lon="20.5975437"><ele>108.19999999999999</ele><time>2026-05-02T13:44:40.73Z</time></trkpt><trkpt lat="39.1308462" lon="20.5974869"><ele>107.6</ele><time>2026-05-02T13:44:41.729Z</time></trkpt><trkpt lat="39.1309018" lon="20.5974034"><ele>107.0</ele><time>2026-05-02T13:44:42.729Z</time></trkpt><trkpt lat="39.1309386" lon="20.5972971"><ele>107.0</ele><time>2026-05-02T13:44:43.729Z</time></trkpt><trkpt lat="39.130971" lon="20.5971833"><ele>107.0</ele><time>2026-05-02T13:44:44.73Z</time></trkpt><trkpt lat="39.1310234" lon="20.5970713"><ele>107.0</ele><time>2026-05-02T13:44:45.729Z</time></trkpt><trkpt lat="39.1311066" lon="20.5969602"><ele>107.0</ele><time>2026-05-02T13:44:46.729Z</time></trkpt><trkpt lat="39.1312146" lon="20.5968475"><ele>103.66666666666666</ele><time>2026-05-02T13:44:47.729Z</time></trkpt><trkpt lat="39.1313461" lon="20.5967193"><ele>100.33333333333334</ele><time>2026-05-02T13:44:48.73Z</time></trkpt><trkpt lat="39.1314949" lon="20.5965759"><ele>97.0</ele><time>2026-05-02T13:44:49.729Z</time></trkpt><trkpt lat="39.1316982" lon="20.5963994"><ele>97.0</ele><time>2026-05-02T13:44:50.729Z</time></trkpt><trkpt lat="39.1319208" lon="20.5962162"><ele>97.0</ele><time>2026-05-02T13:44:51.73Z</time></trkpt><trkpt lat="39.1321542" lon="20.596026"><ele>93.0</ele><time>2026-05-02T13:44:52.73Z</time></trkpt><trkpt lat="39.1323881" lon="20.5958318"><ele>89.0</ele><time>2026-05-02T13:44:53.729Z</time></trkpt><trkpt lat="39.132624" lon="20.5956234"><ele>89.0</ele><time>2026-05-02T13:44:54.73Z</time></trkpt><trkpt lat="39.1328588" lon="20.5953973"><ele>89.0</ele><time>2026-05-02T13:44:55.729Z</time></trkpt><trkpt lat="39.1330885" lon="20.5951552"><ele>87.0</ele><time>2026-05-02T13:44:56.729Z</time></trkpt><trkpt lat="39.1333115" lon="20.5948947"><ele>85.0</ele><time>2026-05-02T13:44:57.729Z</time></trkpt><trkpt lat="39.1335298" lon="20.5946156"><ele>83.0</ele><time>2026-05-02T13:44:58.729Z</time></trkpt><trkpt lat="39.1337391" lon="20.5943174"><ele>81.0</ele><time>2026-05-02T13:44:59.73Z</time></trkpt><trkpt lat="39.1339401" lon="20.5940022"><ele>74.5</ele><time>2026-05-02T13:45:00.729Z</time></trkpt><trkpt lat="39.1341321" lon="20.5936715"><ele>68.0</ele><time>2026-05-02T13:45:01.729Z</time></trkpt><trkpt lat="39.1343108" lon="20.5933254"><ele>77.0</ele><time>2026-05-02T13:45:02.73Z</time></trkpt><trkpt lat="39.1346699" lon="20.592555"><ele>60.0</ele><time>2026-05-02T13:45:04.869Z</time></trkpt><trkpt lat="39.134928" lon="20.591847"><ele>60.0</ele><time>2026-05-02T13:45:06.739Z</time></trkpt><trkpt lat="39.1350559" lon="20.5914682"><ele>60.0</ele><time>2026-05-02T13:45:07.739Z</time></trkpt><trkpt lat="39.1351822" lon="20.5910898"><ele>56.5</ele><time>2026-05-02T13:45:08.74Z</time></trkpt><trkpt lat="39.1353088" lon="20.5907103"><ele>53.0</ele><time>2026-05-02T13:45:09.74Z</time></trkpt><trkpt lat="39.1354373" lon="20.5903365"><ele>43.0</ele><time>2026-05-02T13:45:10.739Z</time></trkpt><trkpt lat="39.1355654" lon="20.5899649"><ele>33.0</ele><time>2026-05-02T13:45:11.74Z</time></trkpt><trkpt lat="39.1356941" lon="20.5895972"><ele>34.0</ele><time>2026-05-02T13:45:12.739Z</time></trkpt><trkpt lat="39.1358269" lon="20.5892383"><ele>35.0</ele><time>2026-05-02T13:45:13.74Z</time></trkpt><trkpt lat="39.1359625" lon="20.5888879"><ele>38.5</ele><time>2026-05-02T13:45:14.74Z</time></trkpt><trkpt lat="39.1361042" lon="20.5885394"><ele>42.0</ele><time>2026-05-02T13:45:15.74Z</time></trkpt><trkpt lat="39.1362565" lon="20.5881905"><ele>39.0</ele><time>2026-05-02T13:45:16.74Z</time></trkpt><trkpt lat="39.1364079" lon="20.5878405"><ele>36.0</ele><time>2026-05-02T13:45:17.739Z</time></trkpt><trkpt lat="39.1365779" lon="20.5874949"><ele>34.5</ele><time>2026-05-02T13:45:18.739Z</time></trkpt><trkpt lat="39.1367506" lon="20.5871675"><ele>33.0</ele><time>2026-05-02T13:45:19.739Z</time></trkpt><trkpt lat="39.1369233" lon="20.5868367"><ele>33.0</ele><time>2026-05-02T13:45:20.74Z</time></trkpt><trkpt lat="39.137104" lon="20.5865138"><ele>33.0</ele><time>2026-05-02T13:45:21.74Z</time></trkpt><trkpt lat="39.1372974" lon="20.5861921"><ele>34.5</ele><time>2026-05-02T13:45:22.74Z</time></trkpt><trkpt lat="39.1374976" lon="20.5858781"><ele>36.0</ele><time>2026-05-02T13:45:23.74Z</time></trkpt><trkpt lat="39.1377009" lon="20.585564"><ele>33.5</ele><time>2026-05-02T13:45:24.74Z</time></trkpt><trkpt lat="39.1379117" lon="20.5852519"><ele>31.0</ele><time>2026-05-02T13:45:25.739Z</time></trkpt><trkpt lat="39.1381291" lon="20.5849422"><ele>34.0</ele><time>2026-05-02T13:45:26.74Z</time></trkpt><trkpt lat="39.1383478" lon="20.5846451"><ele>37.0</ele><time>2026-05-02T13:45:27.739Z</time></trkpt><trkpt lat="39.1385718" lon="20.5843568"><ele>37.0</ele><time>2026-05-02T13:45:28.739Z</time></trkpt><trkpt lat="39.1387989" lon="20.5840729"><ele>37.0</ele><time>2026-05-02T13:45:29.739Z</time></trkpt><trkpt lat="39.1390369" lon="20.583796"><ele>42.5</ele><time>2026-05-02T13:45:30.739Z</time></trkpt><trkpt lat="39.1392855" lon="20.5835225"><ele>48.0</ele><time>2026-05-02T13:45:31.739Z</time></trkpt><trkpt lat="39.1395352" lon="20.5832603"><ele>48.0</ele><time>2026-05-02T13:45:32.739Z</time></trkpt><trkpt lat="39.1397964" lon="20.5829977"><ele>48.0</ele><time>2026-05-02T13:45:33.74Z</time></trkpt><trkpt lat="39.1400626" lon="20.5827299"><ele>44.5</ele><time>2026-05-02T13:45:34.74Z</time></trkpt><trkpt lat="39.1403441" lon="20.5824957"><ele>41.0</ele><time>2026-05-02T13:45:35.739Z</time></trkpt><trkpt lat="39.1406252" lon="20.5822563"><ele>45.0</ele><time>2026-05-02T13:45:36.739Z</time></trkpt><trkpt lat="39.1409105" lon="20.5820295"><ele>49.0</ele><time>2026-05-02T13:45:37.739Z</time></trkpt><trkpt lat="39.1412058" lon="20.5818068"><ele>49.0</ele><time>2026-05-02T13:45:38.739Z</time></trkpt><trkpt lat="39.1415046" lon="20.5815882"><ele>49.0</ele><time>2026-05-02T13:45:39.739Z</time></trkpt><trkpt lat="39.1418012" lon="20.581385"><ele>48.0</ele><time>2026-05-02T13:45:40.739Z</time></trkpt><trkpt lat="39.1420852" lon="20.5812065"><ele>47.0</ele><time>2026-05-02T13:45:41.739Z</time></trkpt><trkpt lat="39.1423662" lon="20.5810397"><ele>50.0</ele><time>2026-05-02T13:45:42.74Z</time></trkpt><trkpt lat="39.1426387" lon="20.5808775"><ele>53.0</ele><time>2026-05-02T13:45:43.74Z</time></trkpt><trkpt lat="39.1429076" lon="20.580718"><ele>53.0</ele><time>2026-05-02T13:45:44.74Z</time></trkpt><trkpt lat="39.143166" lon="20.5805699"><ele>53.0</ele><time>2026-05-02T13:45:45.74Z</time></trkpt><trkpt lat="39.1434181" lon="20.5804286"><ele>53.5</ele><time>2026-05-02T13:45:46.739Z</time></trkpt><trkpt lat="39.1436634" lon="20.5802903"><ele>54.0</ele><time>2026-05-02T13:45:47.74Z</time></trkpt><trkpt lat="39.1439069" lon="20.5801541"><ele>62.0</ele><time>2026-05-02T13:45:48.739Z</time></trkpt><trkpt lat="39.1441453" lon="20.5800217"><ele>70.0</ele><time>2026-05-02T13:45:49.739Z</time></trkpt><trkpt lat="39.1443857" lon="20.5798901"><ele>70.0</ele><time>2026-05-02T13:45:50.74Z</time></trkpt><trkpt lat="39.1446352" lon="20.5797505"><ele>70.0</ele><time>2026-05-02T13:45:51.739Z</time></trkpt><trkpt lat="39.1448937" lon="20.5795989"><ele>69.0</ele><time>2026-05-02T13:45:52.74Z</time></trkpt><trkpt lat="39.1451566" lon="20.5794454"><ele>68.0</ele><time>2026-05-02T13:45:53.74Z</time></trkpt><trkpt lat="39.1454184" lon="20.5792962"><ele>68.0</ele><time>2026-05-02T13:45:54.739Z</time></trkpt><trkpt lat="39.1456787" lon="20.5791495"><ele>68.0</ele><time>2026-05-02T13:45:55.739Z</time></trkpt><trkpt lat="39.1459315" lon="20.5790093"><ele>65.0</ele><time>2026-05-02T13:45:56.74Z</time></trkpt><trkpt lat="39.1461779" lon="20.5788721"><ele>62.0</ele><time>2026-05-02T13:45:57.739Z</time></trkpt><trkpt lat="39.1464277" lon="20.5787311"><ele>56.5</ele><time>2026-05-02T13:45:58.739Z</time></trkpt><trkpt lat="39.1466791" lon="20.5785842"><ele>51.0</ele><time>2026-05-02T13:45:59.739Z</time></trkpt><trkpt lat="39.1469311" lon="20.5784409"><ele>51.0</ele><time>2026-05-02T13:46:00.739Z</time></trkpt><trkpt lat="39.1471824" lon="20.5782977"><ele>51.0</ele><time>2026-05-02T13:46:01.739Z</time></trkpt><trkpt lat="39.1474228" lon="20.5781502"><ele>58.0</ele><time>2026-05-02T13:46:02.739Z</time></trkpt><trkpt lat="39.1476457" lon="20.5780013"><ele>65.0</ele><time>2026-05-02T13:46:03.739Z</time></trkpt><trkpt lat="39.1478692" lon="20.5778436"><ele>65.5</ele><time>2026-05-02T13:46:04.74Z</time></trkpt><trkpt lat="39.1480848" lon="20.577678"><ele>66.0</ele><time>2026-05-02T13:46:05.739Z</time></trkpt><trkpt lat="39.1483005" lon="20.5774988"><ele>67.5</ele><time>2026-05-02T13:46:06.74Z</time></trkpt><trkpt lat="39.1485284" lon="20.5772905"><ele>69.0</ele><time>2026-05-02T13:46:07.74Z</time></trkpt><trkpt lat="39.1487611" lon="20.5770607"><ele>68.0</ele><time>2026-05-02T13:46:08.739Z</time></trkpt><trkpt lat="39.1490073" lon="20.5768195"><ele>67.0</ele><time>2026-05-02T13:46:09.739Z</time></trkpt><trkpt lat="39.1492435" lon="20.5765656"><ele>67.0</ele><time>2026-05-02T13:46:10.739Z</time></trkpt><trkpt lat="39.1494642" lon="20.5763111"><ele>67.0</ele><time>2026-05-02T13:46:11.74Z</time></trkpt><trkpt lat="39.1496719" lon="20.576057"><ele>66.5</ele><time>2026-05-02T13:46:12.739Z</time></trkpt><trkpt lat="39.1498698" lon="20.5758067"><ele>66.0</ele><time>2026-05-02T13:46:13.739Z</time></trkpt><trkpt lat="39.1500717" lon="20.5755594"><ele>68.5</ele><time>2026-05-02T13:46:14.739Z</time></trkpt><trkpt lat="39.1502627" lon="20.5753162"><ele>71.0</ele><time>2026-05-02T13:46:15.74Z</time></trkpt><trkpt lat="39.1504496" lon="20.5750802"><ele>71.0</ele><time>2026-05-02T13:46:16.74Z</time></trkpt><trkpt lat="39.1506343" lon="20.5748443"><ele>71.0</ele><time>2026-05-02T13:46:17.739Z</time></trkpt><trkpt lat="39.1508232" lon="20.574619"><ele>67.5</ele><time>2026-05-02T13:46:18.74Z</time></trkpt><trkpt lat="39.1510211" lon="20.5744094"><ele>64.0</ele><time>2026-05-02T13:46:19.74Z</time></trkpt><trkpt lat="39.1512205" lon="20.5742189"><ele>64.0</ele><time>2026-05-02T13:46:20.74Z</time></trkpt><trkpt lat="39.1514328" lon="20.5740426"><ele>64.0</ele><time>2026-05-02T13:46:21.739Z</time></trkpt><trkpt lat="39.1516581" lon="20.5738771"><ele>61.5</ele><time>2026-05-02T13:46:22.739Z</time></trkpt><trkpt lat="39.1518939" lon="20.5737191"><ele>59.0</ele><time>2026-05-02T13:46:23.74Z</time></trkpt><trkpt lat="39.1521334" lon="20.5735696"><ele>59.0</ele><time>2026-05-02T13:46:24.739Z</time></trkpt><trkpt lat="39.1523728" lon="20.5734253"><ele>59.0</ele><time>2026-05-02T13:46:25.74Z</time></trkpt><trkpt lat="39.152608" lon="20.5732887"><ele>63.0</ele><time>2026-05-02T13:46:26.739Z</time></trkpt><trkpt lat="39.1528453" lon="20.5731601"><ele>67.0</ele><time>2026-05-02T13:46:27.74Z</time></trkpt><trkpt lat="39.1530864" lon="20.5730455"><ele>70.0</ele><time>2026-05-02T13:46:28.74Z</time></trkpt><trkpt lat="39.1533297" lon="20.5729398"><ele>73.0</ele><time>2026-05-02T13:46:29.739Z</time></trkpt><trkpt lat="39.1535758" lon="20.5728498"><ele>73.0</ele><time>2026-05-02T13:46:30.74Z</time></trkpt><trkpt lat="39.1538277" lon="20.5727782"><ele>73.0</ele><time>2026-05-02T13:46:31.739Z</time></trkpt><trkpt lat="39.1540829" lon="20.5727176"><ele>76.5</ele><time>2026-05-02T13:46:32.739Z</time></trkpt><trkpt lat="39.1543448" lon="20.572671"><ele>80.0</ele><time>2026-05-02T13:46:33.74Z</time></trkpt><trkpt lat="39.1546115" lon="20.572636"><ele>81.0</ele><time>2026-05-02T13:46:34.739Z</time></trkpt><trkpt lat="39.1548836" lon="20.5726133"><ele>82.0</ele><time>2026-05-02T13:46:35.739Z</time></trkpt><trkpt lat="39.1551551" lon="20.5725987"><ele>82.0</ele><time>2026-05-02T13:46:36.74Z</time></trkpt><trkpt lat="39.1554249" lon="20.5725991"><ele>82.0</ele><time>2026-05-02T13:46:37.74Z</time></trkpt><trkpt lat="39.1556936" lon="20.5725962"><ele>79.0</ele><time>2026-05-02T13:46:38.74Z</time></trkpt><trkpt lat="39.1559606" lon="20.5725893"><ele>76.0</ele><time>2026-05-02T13:46:39.74Z</time></trkpt><trkpt lat="39.1562267" lon="20.5725738"><ele>76.0</ele><time>2026-05-02T13:46:40.739Z</time></trkpt><trkpt lat="39.1564804" lon="20.5725471"><ele>76.0</ele><time>2026-05-02T13:46:41.74Z</time></trkpt><trkpt lat="39.1567272" lon="20.5724998"><ele>80.5</ele><time>2026-05-02T13:46:42.74Z</time></trkpt><trkpt lat="39.1569727" lon="20.5724277"><ele>85.0</ele><time>2026-05-02T13:46:43.74Z</time></trkpt><trkpt lat="39.1572207" lon="20.5723308"><ele>92.5</ele><time>2026-05-02T13:46:44.74Z</time></trkpt><trkpt lat="39.1574667" lon="20.5722097"><ele>100.0</ele><time>2026-05-02T13:46:45.74Z</time></trkpt><trkpt lat="39.1577006" lon="20.5720686"><ele>88.5</ele><time>2026-05-02T13:46:46.74Z</time></trkpt><trkpt lat="39.1579267" lon="20.5719076"><ele>77.0</ele><time>2026-05-02T13:46:47.739Z</time></trkpt><trkpt lat="39.158145" lon="20.5717252"><ele>83.5</ele><time>2026-05-02T13:46:48.739Z</time></trkpt><trkpt lat="39.1583509" lon="20.5715257"><ele>90.0</ele><time>2026-05-02T13:46:49.74Z</time></trkpt><trkpt lat="39.1585428" lon="20.5713096"><ele>84.0</ele><time>2026-05-02T13:46:50.74Z</time></trkpt><trkpt lat="39.1587209" lon="20.5710771"><ele>78.0</ele><time>2026-05-02T13:46:51.74Z</time></trkpt><trkpt lat="39.1588822" lon="20.5708363"><ele>78.0</ele><time>2026-05-02T13:46:52.74Z</time></trkpt><trkpt lat="39.1590289" lon="20.570578"><ele>78.0</ele><time>2026-05-02T13:46:53.74Z</time></trkpt><trkpt lat="39.1591592" lon="20.5703159"><ele>84.5</ele><time>2026-05-02T13:46:54.74Z</time></trkpt><trkpt lat="39.159273" lon="20.5700433"><ele>91.0</ele><time>2026-05-02T13:46:55.74Z</time></trkpt><trkpt lat="39.1593814" lon="20.5697423"><ele>87.5</ele><time>2026-05-02T13:46:56.74Z</time></trkpt><trkpt lat="39.1594748" lon="20.5694142"><ele>84.0</ele><time>2026-05-02T13:46:57.74Z</time></trkpt><trkpt lat="39.1595589" lon="20.5690627"><ele>84.0</ele><time>2026-05-02T13:46:58.74Z</time></trkpt><trkpt lat="39.1596264" lon="20.5686981"><ele>84.0</ele><time>2026-05-02T13:46:59.739Z</time></trkpt><trkpt lat="39.1596856" lon="20.5683342"><ele>82.5</ele><time>2026-05-02T13:47:00.739Z</time></trkpt><trkpt lat="39.1597375" lon="20.5679657"><ele>81.0</ele><time>2026-05-02T13:47:01.739Z</time></trkpt><trkpt lat="39.1597899" lon="20.5676005"><ele>81.0</ele><time>2026-05-02T13:47:02.74Z</time></trkpt><trkpt lat="39.1598387" lon="20.5672422"><ele>81.0</ele><time>2026-05-02T13:47:03.74Z</time></trkpt><trkpt lat="39.1598921" lon="20.5668887"><ele>95.5</ele><time>2026-05-02T13:47:04.74Z</time></trkpt><trkpt lat="39.1599468" lon="20.5665492"><ele>110.0</ele><time>2026-05-02T13:47:05.739Z</time></trkpt><trkpt lat="39.1600164" lon="20.5662195"><ele>106.5</ele><time>2026-05-02T13:47:06.74Z</time></trkpt><trkpt lat="39.160099" lon="20.5658941"><ele>103.0</ele><time>2026-05-02T13:47:07.74Z</time></trkpt><trkpt lat="39.1601999" lon="20.5655788"><ele>104.0</ele><time>2026-05-02T13:47:08.74Z</time></trkpt><trkpt lat="39.1603181" lon="20.5652765"><ele>105.0</ele><time>2026-05-02T13:47:09.74Z</time></trkpt><trkpt lat="39.1604499" lon="20.5649941"><ele>105.0</ele><time>2026-05-02T13:47:10.74Z</time></trkpt><trkpt lat="39.1606023" lon="20.5647179"><ele>105.0</ele><time>2026-05-02T13:47:11.739Z</time></trkpt><trkpt lat="39.1607749" lon="20.564461"><ele>104.0</ele><time>2026-05-02T13:47:12.74Z</time></trkpt><trkpt lat="39.1609692" lon="20.5642226"><ele>103.0</ele><time>2026-05-02T13:47:13.739Z</time></trkpt><trkpt lat="39.1611655" lon="20.5639965"><ele>103.0</ele><time>2026-05-02T13:47:14.74Z</time></trkpt><trkpt lat="39.1613793" lon="20.5637865"><ele>103.0</ele><time>2026-05-02T13:47:15.74Z</time></trkpt><trkpt lat="39.1616108" lon="20.5635884"><ele>102.0</ele><time>2026-05-02T13:47:16.74Z</time></trkpt><trkpt lat="39.1618473" lon="20.5634021"><ele>101.0</ele><time>2026-05-02T13:47:17.739Z</time></trkpt><trkpt lat="39.1620866" lon="20.5632265"><ele>101.0</ele><time>2026-05-02T13:47:18.739Z</time></trkpt><trkpt lat="39.1623268" lon="20.5630529"><ele>101.0</ele><time>2026-05-02T13:47:19.739Z</time></trkpt><trkpt lat="39.1625709" lon="20.5628814"><ele>97.0</ele><time>2026-05-02T13:47:20.739Z</time></trkpt><trkpt lat="39.162812" lon="20.5627089"><ele>93.0</ele><time>2026-05-02T13:47:21.74Z</time></trkpt><trkpt lat="39.1630533" lon="20.562535"><ele>100.0</ele><time>2026-05-02T13:47:22.74Z</time></trkpt><trkpt lat="39.1632946" lon="20.5623608"><ele>107.0</ele><time>2026-05-02T13:47:23.739Z</time></trkpt><trkpt lat="39.163535" lon="20.5621896"><ele>101.0</ele><time>2026-05-02T13:47:24.74Z</time></trkpt><trkpt lat="39.163774" lon="20.5620201"><ele>95.0</ele><time>2026-05-02T13:47:25.739Z</time></trkpt><trkpt lat="39.164011" lon="20.5618481"><ele>103.0</ele><time>2026-05-02T13:47:26.74Z</time></trkpt><trkpt lat="39.1642468" lon="20.5616755"><ele>111.0</ele><time>2026-05-02T13:47:27.74Z</time></trkpt><trkpt lat="39.1644856" lon="20.5615025"><ele>111.0</ele><time>2026-05-02T13:47:28.739Z</time></trkpt><trkpt lat="39.1647217" lon="20.5613323"><ele>111.0</ele><time>2026-05-02T13:47:29.739Z</time></trkpt><trkpt lat="39.1649561" lon="20.561162"><ele>114.5</ele><time>2026-05-02T13:47:30.74Z</time></trkpt><trkpt lat="39.1651883" lon="20.5610121"><ele>118.0</ele><time>2026-05-02T13:47:31.74Z</time></trkpt><trkpt lat="39.1654135" lon="20.5608482"><ele>118.0</ele><time>2026-05-02T13:47:32.74Z</time></trkpt><trkpt lat="39.1656396" lon="20.5606854"><ele>118.0</ele><time>2026-05-02T13:47:33.739Z</time></trkpt><trkpt lat="39.1664675" lon="20.5600604"><ele>119.0</ele><time>2026-05-02T13:47:37.74Z</time></trkpt><trkpt lat="39.1666897" lon="20.5599019"><ele>120.0</ele><time>2026-05-02T13:47:38.739Z</time></trkpt><trkpt lat="39.1669266" lon="20.559742"><ele>120.0</ele><time>2026-05-02T13:47:39.74Z</time></trkpt><trkpt lat="39.1671733" lon="20.5595831"><ele>120.0</ele><time>2026-05-02T13:47:40.739Z</time></trkpt><trkpt lat="39.1674243" lon="20.5594054"><ele>116.0</ele><time>2026-05-02T13:47:41.74Z</time></trkpt><trkpt lat="39.1676791" lon="20.5592165"><ele>112.0</ele><time>2026-05-02T13:47:42.74Z</time></trkpt><trkpt lat="39.1679356" lon="20.5590128"><ele>112.0</ele><time>2026-05-02T13:47:43.74Z</time></trkpt><trkpt lat="39.1681868" lon="20.5588065"><ele>112.0</ele><time>2026-05-02T13:47:44.74Z</time></trkpt><trkpt lat="39.1684264" lon="20.5586125"><ele>113.5</ele><time>2026-05-02T13:47:45.739Z</time></trkpt><trkpt lat="39.1686684" lon="20.5584165"><ele>115.0</ele><time>2026-05-02T13:47:46.739Z</time></trkpt><trkpt lat="39.1689205" lon="20.5582288"><ele>116.0</ele><time>2026-05-02T13:47:47.739Z</time></trkpt><trkpt lat="39.1691849" lon="20.5580537"><ele>117.0</ele><time>2026-05-02T13:47:48.74Z</time></trkpt><trkpt lat="39.1694566" lon="20.5578873"><ele>115.5</ele><time>2026-05-02T13:47:49.739Z</time></trkpt><trkpt lat="39.1697327" lon="20.5577309"><ele>114.0</ele><time>2026-05-02T13:47:50.739Z</time></trkpt><trkpt lat="39.1700122" lon="20.5575882"><ele>114.0</ele><time>2026-05-02T13:47:51.739Z</time></trkpt><trkpt lat="39.1702838" lon="20.5574598"><ele>114.0</ele><time>2026-05-02T13:47:52.739Z</time></trkpt><trkpt lat="39.1705513" lon="20.5573408"><ele>121.0</ele><time>2026-05-02T13:47:53.74Z</time></trkpt><trkpt lat="39.1708186" lon="20.5572327"><ele>128.0</ele><time>2026-05-02T13:47:54.739Z</time></trkpt><trkpt lat="39.1710835" lon="20.5571401"><ele>128.0</ele><time>2026-05-02T13:47:55.739Z</time></trkpt><trkpt lat="39.1713502" lon="20.5570665"><ele>128.0</ele><time>2026-05-02T13:47:56.74Z</time></trkpt><trkpt lat="39.1716165" lon="20.5570084"><ele>125.0</ele><time>2026-05-02T13:47:57.739Z</time></trkpt><trkpt lat="39.1718955" lon="20.5569655"><ele>122.0</ele><time>2026-05-02T13:47:58.739Z</time></trkpt><trkpt lat="39.1721827" lon="20.5569403"><ele>123.5</ele><time>2026-05-02T13:47:59.739Z</time></trkpt><trkpt lat="39.1724742" lon="20.5569282"><ele>125.0</ele><time>2026-05-02T13:48:00.74Z</time></trkpt><trkpt lat="39.1727712" lon="20.5569168"><ele>125.0</ele><time>2026-05-02T13:48:01.74Z</time></trkpt><trkpt lat="39.173054" lon="20.5569107"><ele>125.0</ele><time>2026-05-02T13:48:02.739Z</time></trkpt><trkpt lat="39.1733268" lon="20.5569089"><ele>125.5</ele><time>2026-05-02T13:48:03.74Z</time></trkpt><trkpt lat="39.1736022" lon="20.5569083"><ele>126.0</ele><time>2026-05-02T13:48:04.74Z</time></trkpt><trkpt lat="39.1738784" lon="20.5569026"><ele>127.0</ele><time>2026-05-02T13:48:05.739Z</time></trkpt><trkpt lat="39.1741578" lon="20.556894"><ele>128.0</ele><time>2026-05-02T13:48:06.739Z</time></trkpt><trkpt lat="39.174428" lon="20.5568846"><ele>128.0</ele><time>2026-05-02T13:48:07.739Z</time></trkpt><trkpt lat="39.1746877" lon="20.5568737"><ele>128.0</ele><time>2026-05-02T13:48:08.739Z</time></trkpt><trkpt lat="39.1749501" lon="20.55686"><ele>128.5</ele><time>2026-05-02T13:48:09.739Z</time></trkpt><trkpt lat="39.1752175" lon="20.5568403"><ele>129.0</ele><time>2026-05-02T13:48:10.74Z</time></trkpt><trkpt lat="39.1754846" lon="20.5568081"><ele>128.0</ele><time>2026-05-02T13:48:11.74Z</time></trkpt><trkpt lat="39.1757524" lon="20.5567593"><ele>127.0</ele><time>2026-05-02T13:48:12.74Z</time></trkpt><trkpt lat="39.1760209" lon="20.5566955"><ele>127.0</ele><time>2026-05-02T13:48:13.74Z</time></trkpt><trkpt lat="39.1762869" lon="20.5566215"><ele>127.0</ele><time>2026-05-02T13:48:14.74Z</time></trkpt><trkpt lat="39.1765565" lon="20.5565304"><ele>130.5</ele><time>2026-05-02T13:48:15.739Z</time></trkpt><trkpt lat="39.1768247" lon="20.5564197"><ele>134.0</ele><time>2026-05-02T13:48:16.74Z</time></trkpt><trkpt lat="39.1770908" lon="20.5562956"><ele>135.5</ele><time>2026-05-02T13:48:17.74Z</time></trkpt><trkpt lat="39.1773553" lon="20.556152"><ele>137.0</ele><time>2026-05-02T13:48:18.74Z</time></trkpt><trkpt lat="39.1776175" lon="20.5559912"><ele>137.0</ele><time>2026-05-02T13:48:19.74Z</time></trkpt><trkpt lat="39.1778805" lon="20.5558128"><ele>137.0</ele><time>2026-05-02T13:48:20.74Z</time></trkpt><trkpt lat="39.1781457" lon="20.5556134"><ele>134.5</ele><time>2026-05-02T13:48:21.739Z</time></trkpt><trkpt lat="39.178408" lon="20.5553974"><ele>132.0</ele><time>2026-05-02T13:48:22.74Z</time></trkpt><trkpt lat="39.1786631" lon="20.5551727"><ele>132.0</ele><time>2026-05-02T13:48:23.739Z</time></trkpt><trkpt lat="39.1789131" lon="20.5549383"><ele>132.0</ele><time>2026-05-02T13:48:24.739Z</time></trkpt><trkpt lat="39.179158" lon="20.5547087"><ele>135.5</ele><time>2026-05-02T13:48:25.74Z</time></trkpt><trkpt lat="39.1793988" lon="20.5544812"><ele>139.0</ele><time>2026-05-02T13:48:26.739Z</time></trkpt><trkpt lat="39.1796399" lon="20.5542627"><ele>144.0</ele><time>2026-05-02T13:48:27.74Z</time></trkpt><trkpt lat="39.1798683" lon="20.5540609"><ele>149.0</ele><time>2026-05-02T13:48:28.739Z</time></trkpt><trkpt lat="39.1800925" lon="20.553869"><ele>143.5</ele><time>2026-05-02T13:48:29.739Z</time></trkpt><trkpt lat="39.1803169" lon="20.5536873"><ele>138.0</ele><time>2026-05-02T13:48:30.74Z</time></trkpt><trkpt lat="39.1805373" lon="20.553513"><ele>145.5</ele><time>2026-05-02T13:48:31.74Z</time></trkpt><trkpt lat="39.1807557" lon="20.553345"><ele>153.0</ele><time>2026-05-02T13:48:32.74Z</time></trkpt><trkpt lat="39.1809738" lon="20.5531872"><ele>153.0</ele><time>2026-05-02T13:48:33.74Z</time></trkpt><trkpt lat="39.1811902" lon="20.5530287"><ele>153.0</ele><time>2026-05-02T13:48:34.739Z</time></trkpt><trkpt lat="39.1814102" lon="20.5528768"><ele>149.5</ele><time>2026-05-02T13:48:35.739Z</time></trkpt><trkpt lat="39.1816303" lon="20.5527301"><ele>146.0</ele><time>2026-05-02T13:48:36.739Z</time></trkpt><trkpt lat="39.1818534" lon="20.5525831"><ele>146.0</ele><time>2026-05-02T13:48:37.739Z</time></trkpt><trkpt lat="39.1820616" lon="20.5524492"><ele>146.0</ele><time>2026-05-02T13:48:38.739Z</time></trkpt><trkpt lat="39.1822662" lon="20.5523194"><ele>155.0</ele><time>2026-05-02T13:48:39.74Z</time></trkpt><trkpt lat="39.1824688" lon="20.5521913"><ele>164.0</ele><time>2026-05-02T13:48:40.74Z</time></trkpt><trkpt lat="39.1826724" lon="20.552062"><ele>154.5</ele><time>2026-05-02T13:48:41.74Z</time></trkpt><trkpt lat="39.1828816" lon="20.5519279"><ele>145.0</ele><time>2026-05-02T13:48:42.739Z</time></trkpt><trkpt lat="39.1830861" lon="20.5517871"><ele>147.0</ele><time>2026-05-02T13:48:43.74Z</time></trkpt><trkpt lat="39.1832934" lon="20.551646"><ele>149.0</ele><time>2026-05-02T13:48:44.739Z</time></trkpt><trkpt lat="39.1835" lon="20.5515008"><ele>149.0</ele><time>2026-05-02T13:48:45.739Z</time></trkpt><trkpt lat="39.1837049" lon="20.5513509"><ele>149.0</ele><time>2026-05-02T13:48:46.74Z</time></trkpt><trkpt lat="39.1839075" lon="20.5511939"><ele>149.0</ele><time>2026-05-02T13:48:47.739Z</time></trkpt><trkpt lat="39.1841116" lon="20.5510279"><ele>149.0</ele><time>2026-05-02T13:48:48.739Z</time></trkpt><trkpt lat="39.184312" lon="20.5508571"><ele>149.0</ele><time>2026-05-02T13:48:49.74Z</time></trkpt><trkpt lat="39.1845077" lon="20.5506827"><ele>149.0</ele><time>2026-05-02T13:48:50.739Z</time></trkpt><trkpt lat="39.1846984" lon="20.5505092"><ele>153.5</ele><time>2026-05-02T13:48:51.74Z</time></trkpt><trkpt lat="39.1848823" lon="20.5503308"><ele>158.0</ele><time>2026-05-02T13:48:52.74Z</time></trkpt><trkpt lat="39.1850586" lon="20.550146"><ele>158.0</ele><time>2026-05-02T13:48:53.74Z</time></trkpt><trkpt lat="39.1852327" lon="20.5499627"><ele>158.0</ele><time>2026-05-02T13:48:54.74Z</time></trkpt><trkpt lat="39.185404" lon="20.5497788"><ele>158.0</ele><time>2026-05-02T13:48:55.739Z</time></trkpt><trkpt lat="39.1855747" lon="20.5495944"><ele>155.66666666666666</ele><time>2026-05-02T13:48:56.74Z</time></trkpt><trkpt lat="39.1857387" lon="20.5494116"><ele>153.33333333333334</ele><time>2026-05-02T13:48:57.739Z</time></trkpt><trkpt lat="39.1858992" lon="20.5492302"><ele>151.0</ele><time>2026-05-02T13:48:58.74Z</time></trkpt><trkpt lat="39.186059" lon="20.5490504"><ele>151.0</ele><time>2026-05-02T13:48:59.739Z</time></trkpt><trkpt lat="39.1862188" lon="20.5488725"><ele>151.0</ele><time>2026-05-02T13:49:00.739Z</time></trkpt><trkpt lat="39.1863793" lon="20.5486926"><ele>151.0</ele><time>2026-05-02T13:49:01.74Z</time></trkpt><trkpt lat="39.1865474" lon="20.5485084"><ele>156.0</ele><time>2026-05-02T13:49:02.739Z</time></trkpt><trkpt lat="39.1867182" lon="20.5483162"><ele>161.0</ele><time>2026-05-02T13:49:03.739Z</time></trkpt><trkpt lat="39.1868913" lon="20.5481239"><ele>161.0</ele><time>2026-05-02T13:49:04.74Z</time></trkpt><trkpt lat="39.1870644" lon="20.5479394"><ele>161.0</ele><time>2026-05-02T13:49:05.74Z</time></trkpt><trkpt lat="39.1872371" lon="20.5477606"><ele>161.0</ele><time>2026-05-02T13:49:06.74Z</time></trkpt><trkpt lat="39.1874093" lon="20.54759"><ele>161.66666666666666</ele><time>2026-05-02T13:49:07.739Z</time></trkpt><trkpt lat="39.1875775" lon="20.5474163"><ele>162.33333333333334</ele><time>2026-05-02T13:49:08.74Z</time></trkpt><trkpt lat="39.1877485" lon="20.5472446"><ele>163.0</ele><time>2026-05-02T13:49:09.739Z</time></trkpt><trkpt lat="39.1879183" lon="20.5470778"><ele>163.0</ele><time>2026-05-02T13:49:10.74Z</time></trkpt><trkpt lat="39.1880857" lon="20.5469145"><ele>163.0</ele><time>2026-05-02T13:49:11.739Z</time></trkpt><trkpt lat="39.1882573" lon="20.546758"><ele>163.0</ele><time>2026-05-02T13:49:12.74Z</time></trkpt><trkpt lat="39.1884347" lon="20.5465987"><ele>163.0</ele><time>2026-05-02T13:49:13.74Z</time></trkpt><trkpt lat="39.1886217" lon="20.5464338"><ele>163.0</ele><time>2026-05-02T13:49:14.739Z</time></trkpt><trkpt lat="39.1888205" lon="20.5462653"><ele>162.5</ele><time>2026-05-02T13:49:15.739Z</time></trkpt><trkpt lat="39.189023" lon="20.5460981"><ele>162.0</ele><time>2026-05-02T13:49:16.739Z</time></trkpt><trkpt lat="39.189228" lon="20.5459264"><ele>162.0</ele><time>2026-05-02T13:49:17.74Z</time></trkpt><trkpt lat="39.1894401" lon="20.5457472"><ele>162.0</ele><time>2026-05-02T13:49:18.739Z</time></trkpt><trkpt lat="39.189661" lon="20.5455576"><ele>159.0</ele><time>2026-05-02T13:49:19.74Z</time></trkpt><trkpt lat="39.1898915" lon="20.5453589"><ele>156.0</ele><time>2026-05-02T13:49:20.74Z</time></trkpt><trkpt lat="39.1901264" lon="20.5451587"><ele>156.0</ele><time>2026-05-02T13:49:21.74Z</time></trkpt><trkpt lat="39.1903564" lon="20.5449588"><ele>156.0</ele><time>2026-05-02T13:49:22.739Z</time></trkpt><trkpt lat="39.1905849" lon="20.5447613"><ele>151.0</ele><time>2026-05-02T13:49:23.739Z</time></trkpt><trkpt lat="39.1908142" lon="20.5445687"><ele>146.0</ele><time>2026-05-02T13:49:24.74Z</time></trkpt><trkpt lat="39.1910338" lon="20.5443647"><ele>146.0</ele><time>2026-05-02T13:49:25.74Z</time></trkpt><trkpt lat="39.1912476" lon="20.544157"><ele>146.0</ele><time>2026-05-02T13:49:26.739Z</time></trkpt><trkpt lat="39.1914481" lon="20.5439484"><ele>145.0</ele><time>2026-05-02T13:49:27.739Z</time></trkpt><trkpt lat="39.1916394" lon="20.543733"><ele>144.0</ele><time>2026-05-02T13:49:28.739Z</time></trkpt><trkpt lat="39.1918231" lon="20.5435132"><ele>141.0</ele><time>2026-05-02T13:49:29.739Z</time></trkpt><trkpt lat="39.1919981" lon="20.5432885"><ele>138.0</ele><time>2026-05-02T13:49:30.739Z</time></trkpt><trkpt lat="39.1921664" lon="20.5430427"><ele>140.5</ele><time>2026-05-02T13:49:31.739Z</time></trkpt><trkpt lat="39.1923307" lon="20.5427738"><ele>143.0</ele><time>2026-05-02T13:49:32.74Z</time></trkpt><trkpt lat="39.1924889" lon="20.5424776"><ele>143.0</ele><time>2026-05-02T13:49:33.739Z</time></trkpt><trkpt lat="39.1926429" lon="20.5421559"><ele>143.0</ele><time>2026-05-02T13:49:34.739Z</time></trkpt><trkpt lat="39.1927947" lon="20.5418082"><ele>132.5</ele><time>2026-05-02T13:49:35.739Z</time></trkpt><trkpt lat="39.1929391" lon="20.5414526"><ele>122.0</ele><time>2026-05-02T13:49:36.74Z</time></trkpt><trkpt lat="39.1930602" lon="20.5411151"><ele>117.5</ele><time>2026-05-02T13:49:37.74Z</time></trkpt><trkpt lat="39.1931646" lon="20.5407879"><ele>113.0</ele><time>2026-05-02T13:49:38.739Z</time></trkpt><trkpt lat="39.1932462" lon="20.5404551"><ele>128.0</ele><time>2026-05-02T13:49:39.74Z</time></trkpt><trkpt lat="39.1933092" lon="20.5401231"><ele>143.0</ele><time>2026-05-02T13:49:40.739Z</time></trkpt><trkpt lat="39.1933596" lon="20.5398"><ele>137.5</ele><time>2026-05-02T13:49:41.74Z</time></trkpt><trkpt lat="39.1933995" lon="20.5394851"><ele>132.0</ele><time>2026-05-02T13:49:42.74Z</time></trkpt><trkpt lat="39.1934235" lon="20.539186"><ele>132.0</ele><time>2026-05-02T13:49:43.74Z</time></trkpt><trkpt lat="39.193433" lon="20.5388771"><ele>132.0</ele><time>2026-05-02T13:49:44.739Z</time></trkpt><trkpt lat="39.1934303" lon="20.5385475"><ele>136.0</ele><time>2026-05-02T13:49:45.74Z</time></trkpt><trkpt lat="39.1934116" lon="20.538193"><ele>140.0</ele><time>2026-05-02T13:49:46.74Z</time></trkpt><trkpt lat="39.1933858" lon="20.5378192"><ele>140.0</ele><time>2026-05-02T13:49:47.739Z</time></trkpt><trkpt lat="39.193361" lon="20.5374578"><ele>140.0</ele><time>2026-05-02T13:49:48.74Z</time></trkpt><trkpt lat="39.1933219" lon="20.5370972"><ele>149.0</ele><time>2026-05-02T13:49:49.74Z</time></trkpt><trkpt lat="39.1932712" lon="20.5367436"><ele>158.0</ele><time>2026-05-02T13:49:50.739Z</time></trkpt><trkpt lat="39.1932221" lon="20.5364122"><ele>163.0</ele><time>2026-05-02T13:49:51.739Z</time></trkpt><trkpt lat="39.1931776" lon="20.53608"><ele>168.0</ele><time>2026-05-02T13:49:52.739Z</time></trkpt><trkpt lat="39.1931413" lon="20.5357471"><ele>150.5</ele><time>2026-05-02T13:49:53.74Z</time></trkpt><trkpt lat="39.1931266" lon="20.535422"><ele>133.0</ele><time>2026-05-02T13:49:54.739Z</time></trkpt><trkpt lat="39.1931324" lon="20.5351079"><ele>133.0</ele><time>2026-05-02T13:49:55.74Z</time></trkpt><trkpt lat="39.1931593" lon="20.5348009"><ele>133.0</ele><time>2026-05-02T13:49:56.74Z</time></trkpt><trkpt lat="39.1932029" lon="20.5345048"><ele>153.0</ele><time>2026-05-02T13:49:57.739Z</time></trkpt><trkpt lat="39.1932681" lon="20.5342248"><ele>173.0</ele><time>2026-05-02T13:49:58.739Z</time></trkpt><trkpt lat="39.1933522" lon="20.5339437"><ele>178.5</ele><time>2026-05-02T13:49:59.74Z</time></trkpt><trkpt lat="39.1934584" lon="20.5336742"><ele>184.0</ele><time>2026-05-02T13:50:00.739Z</time></trkpt><trkpt lat="39.1935889" lon="20.5334028"><ele>184.0</ele><time>2026-05-02T13:50:01.74Z</time></trkpt><trkpt lat="39.1937507" lon="20.5331299"><ele>184.0</ele><time>2026-05-02T13:50:02.74Z</time></trkpt><trkpt lat="39.1939222" lon="20.5328628"><ele>183.0</ele><time>2026-05-02T13:50:03.74Z</time></trkpt><trkpt lat="39.194093" lon="20.5326076"><ele>182.0</ele><time>2026-05-02T13:50:04.74Z</time></trkpt><trkpt lat="39.1942676" lon="20.53235"><ele>182.0</ele><time>2026-05-02T13:50:05.739Z</time></trkpt><trkpt lat="39.194439" lon="20.5320857"><ele>182.0</ele><time>2026-05-02T13:50:06.739Z</time></trkpt><trkpt lat="39.194602" lon="20.5318191"><ele>184.0</ele><time>2026-05-02T13:50:07.739Z</time></trkpt><trkpt lat="39.194757" lon="20.531545"><ele>186.0</ele><time>2026-05-02T13:50:08.739Z</time></trkpt><trkpt lat="39.1949026" lon="20.5312726"><ele>183.5</ele><time>2026-05-02T13:50:09.739Z</time></trkpt><trkpt lat="39.1950349" lon="20.5309941"><ele>181.0</ele><time>2026-05-02T13:50:10.739Z</time></trkpt><trkpt lat="39.1951567" lon="20.5307115"><ele>181.0</ele><time>2026-05-02T13:50:11.739Z</time></trkpt><trkpt lat="39.1952701" lon="20.5304284"><ele>181.0</ele><time>2026-05-02T13:50:12.739Z</time></trkpt><trkpt lat="39.1953699" lon="20.5301402"><ele>180.5</ele><time>2026-05-02T13:50:13.739Z</time></trkpt><trkpt lat="39.1954658" lon="20.5298538"><ele>180.0</ele><time>2026-05-02T13:50:14.74Z</time></trkpt><trkpt lat="39.1955523" lon="20.5295699"><ele>177.5</ele><time>2026-05-02T13:50:15.74Z</time></trkpt><trkpt lat="39.1956324" lon="20.5292811"><ele>175.0</ele><time>2026-05-02T13:50:16.74Z</time></trkpt><trkpt lat="39.1956995" lon="20.5290109"><ele>178.0</ele><time>2026-05-02T13:50:17.74Z</time></trkpt><trkpt lat="39.1957359" lon="20.5287187"><ele>181.0</ele><time>2026-05-02T13:50:18.74Z</time></trkpt><trkpt lat="39.1957842" lon="20.528456"><ele>184.0</ele><time>2026-05-02T13:50:19.739Z</time></trkpt><trkpt lat="39.1958271" lon="20.5281964"><ele>184.0</ele><time>2026-05-02T13:50:20.74Z</time></trkpt><trkpt lat="39.1958663" lon="20.5279472"><ele>184.0</ele><time>2026-05-02T13:50:21.739Z</time></trkpt><trkpt lat="39.1958984" lon="20.5277039"><ele>184.0</ele><time>2026-05-02T13:50:22.74Z</time></trkpt><trkpt lat="39.1959261" lon="20.5274735"><ele>183.33333333333334</ele><time>2026-05-02T13:50:23.739Z</time></trkpt><trkpt lat="39.195951" lon="20.5272606"><ele>182.66666666666666</ele><time>2026-05-02T13:50:24.739Z</time></trkpt><trkpt lat="39.1959752" lon="20.5270654"><ele>182.0</ele><time>2026-05-02T13:50:25.74Z</time></trkpt><trkpt lat="39.1960082" lon="20.5268846"><ele>182.0</ele><time>2026-05-02T13:50:26.74Z</time></trkpt><trkpt lat="39.1960595" lon="20.5267366"><ele>182.0</ele><time>2026-05-02T13:50:27.74Z</time></trkpt><trkpt lat="39.1961157" lon="20.5266082"><ele>182.0</ele><time>2026-05-02T13:50:28.739Z</time></trkpt><trkpt lat="39.1961502" lon="20.5264681"><ele>182.0</ele><time>2026-05-02T13:50:29.74Z</time></trkpt><trkpt lat="39.1961632" lon="20.5262873"><ele>181.33333333333331</ele><time>2026-05-02T13:50:30.739Z</time></trkpt><trkpt lat="39.1961655" lon="20.5260813"><ele>180.66666666666666</ele><time>2026-05-02T13:50:31.739Z</time></trkpt><trkpt lat="39.1961836" lon="20.5258568"><ele>180.0</ele><time>2026-05-02T13:50:32.74Z</time></trkpt><trkpt lat="39.1962232" lon="20.5256244"><ele>174.0</ele><time>2026-05-02T13:50:33.74Z</time></trkpt><trkpt lat="39.1963012" lon="20.5253494"><ele>168.0</ele><time>2026-05-02T13:50:34.739Z</time></trkpt><trkpt lat="39.19637" lon="20.5250811"><ele>162.0</ele><time>2026-05-02T13:50:35.74Z</time></trkpt><trkpt lat="39.1964634" lon="20.524832"><ele>167.66666666666666</ele><time>2026-05-02T13:50:36.739Z</time></trkpt><trkpt lat="39.1965599" lon="20.5245827"><ele>173.33333333333331</ele><time>2026-05-02T13:50:37.739Z</time></trkpt><trkpt lat="39.1966601" lon="20.5243462"><ele>179.0</ele><time>2026-05-02T13:50:38.74Z</time></trkpt><trkpt lat="39.1967667" lon="20.5241274"><ele>179.0</ele><time>2026-05-02T13:50:39.74Z</time></trkpt><trkpt lat="39.1968747" lon="20.5239211"><ele>179.0</ele><time>2026-05-02T13:50:40.739Z</time></trkpt><trkpt lat="39.1969869" lon="20.5237167"><ele>179.0</ele><time>2026-05-02T13:50:41.739Z</time></trkpt><trkpt lat="39.1971067" lon="20.5235182"><ele>181.0</ele><time>2026-05-02T13:50:42.74Z</time></trkpt><trkpt lat="39.1972271" lon="20.5233252"><ele>183.0</ele><time>2026-05-02T13:50:43.74Z</time></trkpt><trkpt lat="39.1973636" lon="20.5231382"><ele>185.0</ele><time>2026-05-02T13:50:44.739Z</time></trkpt><trkpt lat="39.1974995" lon="20.5229539"><ele>175.33333333333331</ele><time>2026-05-02T13:50:45.739Z</time></trkpt><trkpt lat="39.197635" lon="20.5227727"><ele>165.66666666666666</ele><time>2026-05-02T13:50:46.74Z</time></trkpt><trkpt lat="39.1977732" lon="20.5226034"><ele>156.0</ele><time>2026-05-02T13:50:47.74Z</time></trkpt><trkpt lat="39.1979111" lon="20.5224366"><ele>156.0</ele><time>2026-05-02T13:50:48.739Z</time></trkpt><trkpt lat="39.1980455" lon="20.5222759"><ele>156.0</ele><time>2026-05-02T13:50:49.739Z</time></trkpt><trkpt lat="39.1981759" lon="20.5221192"><ele>156.0</ele><time>2026-05-02T13:50:50.74Z</time></trkpt><trkpt lat="39.1983086" lon="20.5219637"><ele>158.0</ele><time>2026-05-02T13:50:51.74Z</time></trkpt><trkpt lat="39.1984463" lon="20.5218015"><ele>160.0</ele><time>2026-05-02T13:50:52.74Z</time></trkpt><trkpt lat="39.1985895" lon="20.5216379"><ele>162.0</ele><time>2026-05-02T13:50:53.74Z</time></trkpt><trkpt lat="39.1987381" lon="20.5214621"><ele>162.0</ele><time>2026-05-02T13:50:54.74Z</time></trkpt><trkpt lat="39.1988853" lon="20.5212799"><ele>162.0</ele><time>2026-05-02T13:50:55.739Z</time></trkpt><trkpt lat="39.1990433" lon="20.5210874"><ele>162.0</ele><time>2026-05-02T13:50:56.739Z</time></trkpt><trkpt lat="39.1992" lon="20.5208978"><ele>162.33333333333334</ele><time>2026-05-02T13:50:57.739Z</time></trkpt><trkpt lat="39.1993616" lon="20.5207102"><ele>162.66666666666669</ele><time>2026-05-02T13:50:58.739Z</time></trkpt><trkpt lat="39.1995255" lon="20.5205203"><ele>163.0</ele><time>2026-05-02T13:50:59.74Z</time></trkpt><trkpt lat="39.1996904" lon="20.5203244"><ele>160.0</ele><time>2026-05-02T13:51:00.74Z</time></trkpt><trkpt lat="39.1998541" lon="20.5201258"><ele>157.0</ele><time>2026-05-02T13:51:01.74Z</time></trkpt><trkpt lat="39.2000099" lon="20.519913"><ele>157.0</ele><time>2026-05-02T13:51:02.739Z</time></trkpt><trkpt lat="39.2001742" lon="20.5197029"><ele>157.0</ele><time>2026-05-02T13:51:03.74Z</time></trkpt><trkpt lat="39.2003342" lon="20.5194823"><ele>152.5</ele><time>2026-05-02T13:51:04.74Z</time></trkpt><trkpt lat="39.2004959" lon="20.5192694"><ele>148.0</ele><time>2026-05-02T13:51:05.739Z</time></trkpt><trkpt lat="39.2006539" lon="20.5190534"><ele>149.0</ele><time>2026-05-02T13:51:06.739Z</time></trkpt><trkpt lat="39.20081" lon="20.5188359"><ele>150.0</ele><time>2026-05-02T13:51:07.74Z</time></trkpt><trkpt lat="39.2009685" lon="20.5186129"><ele>150.0</ele><time>2026-05-02T13:51:08.739Z</time></trkpt><trkpt lat="39.2011274" lon="20.5183872"><ele>150.0</ele><time>2026-05-02T13:51:09.74Z</time></trkpt><trkpt lat="39.2012879" lon="20.5181601"><ele>150.0</ele><time>2026-05-02T13:51:10.74Z</time></trkpt><trkpt lat="39.2014475" lon="20.5179345"><ele>150.0</ele><time>2026-05-02T13:51:11.74Z</time></trkpt><trkpt lat="39.2016096" lon="20.5177104"><ele>145.5</ele><time>2026-05-02T13:51:12.739Z</time></trkpt><trkpt lat="39.201773" lon="20.5174953"><ele>141.0</ele><time>2026-05-02T13:51:13.74Z</time></trkpt><trkpt lat="39.201932" lon="20.5172939"><ele>141.0</ele><time>2026-05-02T13:51:14.739Z</time></trkpt><trkpt lat="39.2021049" lon="20.5171118"><ele>141.0</ele><time>2026-05-02T13:51:15.74Z</time></trkpt><trkpt lat="39.2022887" lon="20.5169504"><ele>141.0</ele><time>2026-05-02T13:51:16.74Z</time></trkpt><trkpt lat="39.2024824" lon="20.5168099"><ele>139.0</ele><time>2026-05-02T13:51:17.74Z</time></trkpt><trkpt lat="39.2026809" lon="20.5166805"><ele>137.0</ele><time>2026-05-02T13:51:18.74Z</time></trkpt><trkpt lat="39.2028889" lon="20.5165679"><ele>135.0</ele><time>2026-05-02T13:51:19.739Z</time></trkpt><trkpt lat="39.2031002" lon="20.5164767"><ele>137.0</ele><time>2026-05-02T13:51:20.74Z</time></trkpt><trkpt lat="39.2033165" lon="20.5164075"><ele>139.0</ele><time>2026-05-02T13:51:21.739Z</time></trkpt><trkpt lat="39.2035347" lon="20.5163531"><ele>141.0</ele><time>2026-05-02T13:51:22.739Z</time></trkpt><trkpt lat="39.2037564" lon="20.5163181"><ele>141.0</ele><time>2026-05-02T13:51:23.74Z</time></trkpt><trkpt lat="39.2039847" lon="20.5162998"><ele>141.0</ele><time>2026-05-02T13:51:24.739Z</time></trkpt><trkpt lat="39.2042144" lon="20.5162911"><ele>139.0</ele><time>2026-05-02T13:51:25.739Z</time></trkpt><trkpt lat="39.2044424" lon="20.5163018"><ele>137.0</ele><time>2026-05-02T13:51:26.739Z</time></trkpt><trkpt lat="39.2046718" lon="20.5163015"><ele>134.0</ele><time>2026-05-02T13:51:27.74Z</time></trkpt><trkpt lat="39.2049009" lon="20.5162911"><ele>131.0</ele><time>2026-05-02T13:51:28.74Z</time></trkpt><trkpt lat="39.205128" lon="20.5162662"><ele>123.0</ele><time>2026-05-02T13:51:29.74Z</time></trkpt><trkpt lat="39.2053567" lon="20.5162237"><ele>115.0</ele><time>2026-05-02T13:51:30.74Z</time></trkpt><trkpt lat="39.2055856" lon="20.5161677"><ele>111.5</ele><time>2026-05-02T13:51:31.74Z</time></trkpt><trkpt lat="39.2058183" lon="20.516107"><ele>108.0</ele><time>2026-05-02T13:51:32.74Z</time></trkpt><trkpt lat="39.2060556" lon="20.5160388"><ele>108.0</ele><time>2026-05-02T13:51:33.74Z</time></trkpt><trkpt lat="39.2062894" lon="20.5159688"><ele>108.0</ele><time>2026-05-02T13:51:34.74Z</time></trkpt><trkpt lat="39.2065178" lon="20.5159068"><ele>110.0</ele><time>2026-05-02T13:51:35.739Z</time></trkpt><trkpt lat="39.2067484" lon="20.5158698"><ele>112.0</ele><time>2026-05-02T13:51:36.739Z</time></trkpt><trkpt lat="39.2069809" lon="20.5158594"><ele>112.0</ele><time>2026-05-02T13:51:37.739Z</time></trkpt><trkpt lat="39.2072223" lon="20.5158696"><ele>112.0</ele><time>2026-05-02T13:51:38.74Z</time></trkpt><trkpt lat="39.2074562" lon="20.5158992"><ele>109.5</ele><time>2026-05-02T13:51:39.739Z</time></trkpt><trkpt lat="39.2076799" lon="20.5159528"><ele>107.0</ele><time>2026-05-02T13:51:40.739Z</time></trkpt><trkpt lat="39.2079058" lon="20.5160399"><ele>107.0</ele><time>2026-05-02T13:51:41.74Z</time></trkpt><trkpt lat="39.2081234" lon="20.5161397"><ele>107.0</ele><time>2026-05-02T13:51:42.739Z</time></trkpt><trkpt lat="39.2083324" lon="20.5162636"><ele>107.0</ele><time>2026-05-02T13:51:43.739Z</time></trkpt><trkpt lat="39.2085342" lon="20.5164155"><ele>107.0</ele><time>2026-05-02T13:51:44.739Z</time></trkpt><trkpt lat="39.2087187" lon="20.5165867"><ele>107.0</ele><time>2026-05-02T13:51:45.74Z</time></trkpt><trkpt lat="39.2088948" lon="20.5167847"><ele>107.0</ele><time>2026-05-02T13:51:46.739Z</time></trkpt><trkpt lat="39.209054" lon="20.5169894"><ele>104.0</ele><time>2026-05-02T13:51:47.74Z</time></trkpt><trkpt lat="39.2091966" lon="20.5172092"><ele>101.0</ele><time>2026-05-02T13:51:48.74Z</time></trkpt><trkpt lat="39.2093288" lon="20.5174461"><ele>98.0</ele><time>2026-05-02T13:51:49.74Z</time></trkpt><trkpt lat="39.2094582" lon="20.5176878"><ele>102.0</ele><time>2026-05-02T13:51:50.74Z</time></trkpt><trkpt lat="39.2095849" lon="20.5179309"><ele>106.0</ele><time>2026-05-02T13:51:51.74Z</time></trkpt><trkpt lat="39.2097133" lon="20.51818"><ele>92.5</ele><time>2026-05-02T13:51:52.739Z</time></trkpt><trkpt lat="39.209843" lon="20.5184266"><ele>79.0</ele><time>2026-05-02T13:51:53.74Z</time></trkpt><trkpt lat="39.2099701" lon="20.5186753"><ele>82.0</ele><time>2026-05-02T13:51:54.74Z</time></trkpt><trkpt lat="39.2100978" lon="20.5189322"><ele>85.0</ele><time>2026-05-02T13:51:55.74Z</time></trkpt><trkpt lat="39.2102274" lon="20.5191945"><ele>85.0</ele><time>2026-05-02T13:51:56.74Z</time></trkpt><trkpt lat="39.2103647" lon="20.5194555"><ele>85.0</ele><time>2026-05-02T13:51:57.74Z</time></trkpt><trkpt lat="39.2105013" lon="20.5197242"><ele>87.0</ele><time>2026-05-02T13:51:58.74Z</time></trkpt><trkpt lat="39.2106393" lon="20.5199949"><ele>89.0</ele><time>2026-05-02T13:51:59.74Z</time></trkpt><trkpt lat="39.2107744" lon="20.5202624"><ele>82.0</ele><time>2026-05-02T13:52:00.739Z</time></trkpt><trkpt lat="39.2109115" lon="20.520531"><ele>75.0</ele><time>2026-05-02T13:52:01.739Z</time></trkpt><trkpt lat="39.2110496" lon="20.5207978"><ele>75.0</ele><time>2026-05-02T13:52:02.74Z</time></trkpt><trkpt lat="39.2111935" lon="20.5210646"><ele>75.0</ele><time>2026-05-02T13:52:03.739Z</time></trkpt><trkpt lat="39.2113464" lon="20.5213303"><ele>69.5</ele><time>2026-05-02T13:52:04.74Z</time></trkpt><trkpt lat="39.2115072" lon="20.5215928"><ele>64.0</ele><time>2026-05-02T13:52:05.74Z</time></trkpt><trkpt lat="39.2116791" lon="20.5218541"><ele>62.0</ele><time>2026-05-02T13:52:06.74Z</time></trkpt><trkpt lat="39.2118593" lon="20.5221119"><ele>60.0</ele><time>2026-05-02T13:52:07.739Z</time></trkpt><trkpt lat="39.2120454" lon="20.5223622"><ele>60.0</ele><time>2026-05-02T13:52:08.739Z</time></trkpt><trkpt lat="39.2122372" lon="20.5226005"><ele>60.0</ele><time>2026-05-02T13:52:09.74Z</time></trkpt><trkpt lat="39.2124367" lon="20.5228293"><ele>56.0</ele><time>2026-05-02T13:52:10.74Z</time></trkpt><trkpt lat="39.2126415" lon="20.5230479"><ele>52.0</ele><time>2026-05-02T13:52:11.74Z</time></trkpt><trkpt lat="39.2128481" lon="20.5232599"><ele>52.0</ele><time>2026-05-02T13:52:12.74Z</time></trkpt><trkpt lat="39.2130683" lon="20.5234621"><ele>52.0</ele><time>2026-05-02T13:52:13.739Z</time></trkpt><trkpt lat="39.2132904" lon="20.523652"><ele>56.0</ele><time>2026-05-02T13:52:14.739Z</time></trkpt><trkpt lat="39.2135224" lon="20.5238265"><ele>60.0</ele><time>2026-05-02T13:52:15.739Z</time></trkpt><trkpt lat="39.2137578" lon="20.5239903"><ele>53.5</ele><time>2026-05-02T13:52:16.74Z</time></trkpt><trkpt lat="39.2139954" lon="20.524144"><ele>47.0</ele><time>2026-05-02T13:52:17.739Z</time></trkpt><trkpt lat="39.214239" lon="20.5242887"><ele>47.0</ele><time>2026-05-02T13:52:18.74Z</time></trkpt><trkpt lat="39.214478" lon="20.5244266"><ele>47.0</ele><time>2026-05-02T13:52:19.739Z</time></trkpt><trkpt lat="39.2147177" lon="20.5245622"><ele>45.5</ele><time>2026-05-02T13:52:20.74Z</time></trkpt><trkpt lat="39.2149494" lon="20.5246947"><ele>44.0</ele><time>2026-05-02T13:52:21.739Z</time></trkpt><trkpt lat="39.2151771" lon="20.5248225"><ele>44.0</ele><time>2026-05-02T13:52:22.739Z</time></trkpt><trkpt lat="39.2153953" lon="20.524944"><ele>44.0</ele><time>2026-05-02T13:52:23.74Z</time></trkpt><trkpt lat="39.215607" lon="20.5250656"><ele>38.0</ele><time>2026-05-02T13:52:24.739Z</time></trkpt><trkpt lat="39.2158144" lon="20.5251854"><ele>32.0</ele><time>2026-05-02T13:52:25.739Z</time></trkpt><trkpt lat="39.2160209" lon="20.5252971"><ele>37.5</ele><time>2026-05-02T13:52:26.74Z</time></trkpt><trkpt lat="39.2162298" lon="20.5254126"><ele>43.0</ele><time>2026-05-02T13:52:27.74Z</time></trkpt><trkpt lat="39.2164352" lon="20.525526"><ele>37.0</ele><time>2026-05-02T13:52:28.74Z</time></trkpt><trkpt lat="39.2166436" lon="20.5256447"><ele>31.0</ele><time>2026-05-02T13:52:29.739Z</time></trkpt><trkpt lat="39.2168561" lon="20.5257665"><ele>31.0</ele><time>2026-05-02T13:52:30.74Z</time></trkpt><trkpt lat="39.2170733" lon="20.525889"><ele>31.0</ele><time>2026-05-02T13:52:31.74Z</time></trkpt><trkpt lat="39.2172956" lon="20.5260123"><ele>31.0</ele><time>2026-05-02T13:52:32.74Z</time></trkpt><trkpt lat="39.217519" lon="20.5261398"><ele>31.0</ele><time>2026-05-02T13:52:33.74Z</time></trkpt><trkpt lat="39.2177442" lon="20.5262664"><ele>31.0</ele><time>2026-05-02T13:52:34.74Z</time></trkpt><trkpt lat="39.2179722" lon="20.5263971"><ele>31.0</ele><time>2026-05-02T13:52:35.739Z</time></trkpt><trkpt lat="39.2181988" lon="20.526526"><ele>24.0</ele><time>2026-05-02T13:52:36.74Z</time></trkpt><trkpt lat="39.2184223" lon="20.5266516"><ele>17.0</ele><time>2026-05-02T13:52:37.74Z</time></trkpt><trkpt lat="39.218628" lon="20.5267704"><ele>17.0</ele><time>2026-05-02T13:52:38.74Z</time></trkpt><trkpt lat="39.218823" lon="20.5268819"><ele>17.0</ele><time>2026-05-02T13:52:39.74Z</time></trkpt><trkpt lat="39.2190023" lon="20.5269819"><ele>17.0</ele><time>2026-05-02T13:52:40.74Z</time></trkpt><trkpt lat="39.2191814" lon="20.5270761"><ele>16.333333333333336</ele><time>2026-05-02T13:52:41.74Z</time></trkpt><trkpt lat="39.2193386" lon="20.5271549"><ele>15.666666666666668</ele><time>2026-05-02T13:52:42.74Z</time></trkpt><trkpt lat="39.219477" lon="20.527226"><ele>15.0</ele><time>2026-05-02T13:52:43.74Z</time></trkpt><trkpt lat="39.219598" lon="20.527304"><ele>15.0</ele><time>2026-05-02T13:52:44.74Z</time></trkpt><trkpt lat="39.219697" lon="20.5274007"><ele>15.0</ele><time>2026-05-02T13:52:45.74Z</time></trkpt><trkpt lat="39.2197803" lon="20.5275016"><ele>15.0</ele><time>2026-05-02T13:52:46.739Z</time></trkpt><trkpt lat="39.2198634" lon="20.527575"><ele>15.0</ele><time>2026-05-02T13:52:47.74Z</time></trkpt><trkpt lat="39.2199624" lon="20.5276161"><ele>15.0</ele><time>2026-05-02T13:52:48.74Z</time></trkpt><trkpt lat="39.2200788" lon="20.5276312"><ele>13.75</ele><time>2026-05-02T13:52:49.74Z</time></trkpt><trkpt lat="39.2202057" lon="20.5276291"><ele>12.5</ele><time>2026-05-02T13:52:50.739Z</time></trkpt><trkpt lat="39.2203482" lon="20.5276259"><ele>11.25</ele><time>2026-05-02T13:52:51.74Z</time></trkpt><trkpt lat="39.2204945" lon="20.5276448"><ele>10.0</ele><time>2026-05-02T13:52:52.74Z</time></trkpt><trkpt lat="39.2206476" lon="20.5276668"><ele>8.333333333333334</ele><time>2026-05-02T13:52:53.739Z</time></trkpt><trkpt lat="39.2208097" lon="20.5276929"><ele>6.666666666666667</ele><time>2026-05-02T13:52:54.739Z</time></trkpt><trkpt lat="39.2209814" lon="20.5277206"><ele>5.0</ele><time>2026-05-02T13:52:55.739Z</time></trkpt><trkpt lat="39.2211571" lon="20.527753"><ele>5.0</ele><time>2026-05-02T13:52:56.74Z</time></trkpt><trkpt lat="39.2213285" lon="20.5277847"><ele>5.0</ele><time>2026-05-02T13:52:57.739Z</time></trkpt><trkpt lat="39.2215007" lon="20.5278107"><ele>5.0</ele><time>2026-05-02T13:52:58.739Z</time></trkpt><trkpt lat="39.2216731" lon="20.527832"><ele>4.666666666666667</ele><time>2026-05-02T13:52:59.739Z</time></trkpt><trkpt lat="39.2218486" lon="20.5278501"><ele>4.333333333333333</ele><time>2026-05-02T13:53:00.739Z</time></trkpt><trkpt lat="39.222029" lon="20.527863"><ele>4.0</ele><time>2026-05-02T13:53:01.74Z</time></trkpt><trkpt lat="39.2222119" lon="20.5278695"><ele>4.333333333333333</ele><time>2026-05-02T13:53:02.74Z</time></trkpt><trkpt lat="39.2224032" lon="20.5278725"><ele>4.666666666666667</ele><time>2026-05-02T13:53:03.74Z</time></trkpt><trkpt lat="39.2226022" lon="20.5278683"><ele>5.0</ele><time>2026-05-02T13:53:04.739Z</time></trkpt><trkpt lat="39.2227974" lon="20.5278606"><ele>5.0</ele><time>2026-05-02T13:53:05.74Z</time></trkpt><trkpt lat="39.222994" lon="20.5278494"><ele>5.0</ele><time>2026-05-02T13:53:06.739Z</time></trkpt><trkpt lat="39.2231901" lon="20.5278318"><ele>5.0</ele><time>2026-05-02T13:53:07.74Z</time></trkpt><trkpt lat="39.2233921" lon="20.5278102"><ele>4.666666666666667</ele><time>2026-05-02T13:53:08.739Z</time></trkpt><trkpt lat="39.2235974" lon="20.5277857"><ele>4.333333333333333</ele><time>2026-05-02T13:53:09.74Z</time></trkpt><trkpt lat="39.2238022" lon="20.5277538"><ele>4.0</ele><time>2026-05-02T13:53:10.74Z</time></trkpt><trkpt lat="39.224005" lon="20.5277232"><ele>4.0</ele><time>2026-05-02T13:53:11.74Z</time></trkpt><trkpt lat="39.2242074" lon="20.527693"><ele>4.0</ele><time>2026-05-02T13:53:12.74Z</time></trkpt><trkpt lat="39.2244068" lon="20.5276607"><ele>4.0</ele><time>2026-05-02T13:53:13.739Z</time></trkpt><trkpt lat="39.2246076" lon="20.5276283"><ele>4.0</ele><time>2026-05-02T13:53:14.739Z</time></trkpt><trkpt lat="39.2248138" lon="20.5275943"><ele>4.0</ele><time>2026-05-02T13:53:15.74Z</time></trkpt><trkpt lat="39.2250141" lon="20.5275648"><ele>4.0</ele><time>2026-05-02T13:53:16.74Z</time></trkpt><trkpt lat="39.2252137" lon="20.527535"><ele>4.0</ele><time>2026-05-02T13:53:17.74Z</time></trkpt><trkpt lat="39.2254201" lon="20.5275087"><ele>4.0</ele><time>2026-05-02T13:53:18.74Z</time></trkpt><trkpt lat="39.2256271" lon="20.5274786"><ele>4.0</ele><time>2026-05-02T13:53:19.739Z</time></trkpt><trkpt lat="39.2258396" lon="20.5274477"><ele>3.333333333333333</ele><time>2026-05-02T13:53:20.739Z</time></trkpt><trkpt lat="39.2260523" lon="20.5274158"><ele>2.6666666666666665</ele><time>2026-05-02T13:53:21.74Z</time></trkpt><trkpt lat="39.2262626" lon="20.5273852"><ele>2.0</ele><time>2026-05-02T13:53:22.739Z</time></trkpt><trkpt lat="39.2264746" lon="20.5273563"><ele>2.333333333333333</ele><time>2026-05-02T13:53:23.739Z</time></trkpt><trkpt lat="39.2266872" lon="20.5273269"><ele>2.6666666666666665</ele><time>2026-05-02T13:53:24.739Z</time></trkpt><trkpt lat="39.2269034" lon="20.5273067"><ele>3.0</ele><time>2026-05-02T13:53:25.739Z</time></trkpt><trkpt lat="39.2271184" lon="20.5272819"><ele>3.333333333333333</ele><time>2026-05-02T13:53:26.739Z</time></trkpt><trkpt lat="39.2273292" lon="20.5272553"><ele>3.6666666666666665</ele><time>2026-05-02T13:53:27.739Z</time></trkpt><trkpt lat="39.2275458" lon="20.5272302"><ele>4.0</ele><time>2026-05-02T13:53:28.739Z</time></trkpt><trkpt lat="39.2277632" lon="20.5272009"><ele>4.0</ele><time>2026-05-02T13:53:29.739Z</time></trkpt><trkpt lat="39.2279818" lon="20.5271692"><ele>4.0</ele><time>2026-05-02T13:53:30.74Z</time></trkpt><trkpt lat="39.2282073" lon="20.527144"><ele>4.0</ele><time>2026-05-02T13:53:31.739Z</time></trkpt><trkpt lat="39.2284364" lon="20.5271204"><ele>4.0</ele><time>2026-05-02T13:53:32.74Z</time></trkpt><trkpt lat="39.228669" lon="20.5270957"><ele>4.0</ele><time>2026-05-02T13:53:33.74Z</time></trkpt><trkpt lat="39.2289028" lon="20.5270702"><ele>3.5</ele><time>2026-05-02T13:53:34.739Z</time></trkpt><trkpt lat="39.229134" lon="20.5270486"><ele>3.0</ele><time>2026-05-02T13:53:35.739Z</time></trkpt><trkpt lat="39.2293605" lon="20.5270326"><ele>3.0</ele><time>2026-05-02T13:53:36.74Z</time></trkpt><trkpt lat="39.2295804" lon="20.5270168"><ele>3.0</ele><time>2026-05-02T13:53:37.74Z</time></trkpt><trkpt lat="39.2297961" lon="20.5269964"><ele>3.0</ele><time>2026-05-02T13:53:38.74Z</time></trkpt><trkpt lat="39.2300074" lon="20.5269747"><ele>3.333333333333333</ele><time>2026-05-02T13:53:39.74Z</time></trkpt><trkpt lat="39.2302098" lon="20.5269596"><ele>3.6666666666666665</ele><time>2026-05-02T13:53:40.739Z</time></trkpt><trkpt lat="39.2304104" lon="20.526943"><ele>4.0</ele><time>2026-05-02T13:53:41.74Z</time></trkpt><trkpt lat="39.230602" lon="20.5269298"><ele>4.666666666666666</ele><time>2026-05-02T13:53:42.74Z</time></trkpt><trkpt lat="39.2307953" lon="20.5269171"><ele>5.333333333333333</ele><time>2026-05-02T13:53:43.74Z</time></trkpt><trkpt lat="39.2309888" lon="20.5269067"><ele>6.0</ele><time>2026-05-02T13:53:44.74Z</time></trkpt><trkpt lat="39.2311843" lon="20.526896"><ele>6.0</ele><time>2026-05-02T13:53:45.739Z</time></trkpt><trkpt lat="39.2313791" lon="20.5268881"><ele>6.0</ele><time>2026-05-02T13:53:46.74Z</time></trkpt><trkpt lat="39.2315737" lon="20.5268722"><ele>6.0</ele><time>2026-05-02T13:53:47.739Z</time></trkpt><trkpt lat="39.2317709" lon="20.5268626"><ele>5.666666666666667</ele><time>2026-05-02T13:53:48.739Z</time></trkpt><trkpt lat="39.2319672" lon="20.5268591"><ele>5.333333333333334</ele><time>2026-05-02T13:53:49.739Z</time></trkpt><trkpt lat="39.2321617" lon="20.5268541"><ele>5.0</ele><time>2026-05-02T13:53:50.74Z</time></trkpt><trkpt lat="39.232356" lon="20.5268471"><ele>5.0</ele><time>2026-05-02T13:53:51.74Z</time></trkpt><trkpt lat="39.2325535" lon="20.5268403"><ele>5.0</ele><time>2026-05-02T13:53:52.74Z</time></trkpt><trkpt lat="39.2327568" lon="20.5268324"><ele>5.0</ele><time>2026-05-02T13:53:53.74Z</time></trkpt><trkpt lat="39.2329632" lon="20.526824"><ele>5.333333333333334</ele><time>2026-05-02T13:53:54.739Z</time></trkpt><trkpt lat="39.2331768" lon="20.5268179"><ele>5.666666666666667</ele><time>2026-05-02T13:53:55.74Z</time></trkpt><trkpt lat="39.2333977" lon="20.5268108"><ele>6.0</ele><time>2026-05-02T13:53:56.739Z</time></trkpt><trkpt lat="39.2336232" lon="20.5268058"><ele>6.0</ele><time>2026-05-02T13:53:57.739Z</time></trkpt><trkpt lat="39.2338494" lon="20.5268004"><ele>6.0</ele><time>2026-05-02T13:53:58.74Z</time></trkpt><trkpt lat="39.2340782" lon="20.5267953"><ele>5.0</ele><time>2026-05-02T13:53:59.74Z</time></trkpt><trkpt lat="39.2343079" lon="20.526794"><ele>4.0</ele><time>2026-05-02T13:54:00.74Z</time></trkpt><trkpt lat="39.234537" lon="20.5267957"><ele>4.0</ele><time>2026-05-02T13:54:01.739Z</time></trkpt><trkpt lat="39.2347679" lon="20.5267949"><ele>4.0</ele><time>2026-05-02T13:54:02.74Z</time></trkpt><trkpt lat="39.2350007" lon="20.5267915"><ele>5.5</ele><time>2026-05-02T13:54:03.74Z</time></trkpt><trkpt lat="39.2352346" lon="20.5267892"><ele>7.0</ele><time>2026-05-02T13:54:04.74Z</time></trkpt><trkpt lat="39.2354651" lon="20.5267867"><ele>7.5</ele><time>2026-05-02T13:54:05.74Z</time></trkpt><trkpt lat="39.2356971" lon="20.526791"><ele>8.0</ele><time>2026-05-02T13:54:06.74Z</time></trkpt><trkpt lat="39.2359217" lon="20.5267937"><ele>8.0</ele><time>2026-05-02T13:54:07.739Z</time></trkpt><trkpt lat="39.236143" lon="20.5268009"><ele>8.0</ele><time>2026-05-02T13:54:08.74Z</time></trkpt><trkpt lat="39.2363609" lon="20.5268051"><ele>8.0</ele><time>2026-05-02T13:54:09.739Z</time></trkpt><trkpt lat="39.2365725" lon="20.5268077"><ele>8.333333333333332</ele><time>2026-05-02T13:54:10.739Z</time></trkpt><trkpt lat="39.2367848" lon="20.5268084"><ele>8.666666666666666</ele><time>2026-05-02T13:54:11.739Z</time></trkpt><trkpt lat="39.236995" lon="20.5268166"><ele>9.0</ele><time>2026-05-02T13:54:12.74Z</time></trkpt><trkpt lat="39.2372078" lon="20.5268208"><ele>8.5</ele><time>2026-05-02T13:54:13.74Z</time></trkpt><trkpt lat="39.2374275" lon="20.5268278"><ele>8.0</ele><time>2026-05-02T13:54:14.74Z</time></trkpt><trkpt lat="39.2376576" lon="20.52683"><ele>8.0</ele><time>2026-05-02T13:54:15.74Z</time></trkpt><trkpt lat="39.2378959" lon="20.5268281"><ele>8.0</ele><time>2026-05-02T13:54:16.739Z</time></trkpt><trkpt lat="39.2381416" lon="20.5268262"><ele>6.0</ele><time>2026-05-02T13:54:17.739Z</time></trkpt><trkpt lat="39.23839" lon="20.5268243"><ele>4.0</ele><time>2026-05-02T13:54:18.739Z</time></trkpt><trkpt lat="39.2386389" lon="20.5268135"><ele>4.0</ele><time>2026-05-02T13:54:19.74Z</time></trkpt><trkpt lat="39.2388894" lon="20.5267958"><ele>4.0</ele><time>2026-05-02T13:54:20.74Z</time></trkpt><trkpt lat="39.2391443" lon="20.5267586"><ele>3.5</ele><time>2026-05-02T13:54:21.74Z</time></trkpt><trkpt lat="39.2393981" lon="20.5267068"><ele>3.0</ele><time>2026-05-02T13:54:22.74Z</time></trkpt><trkpt lat="39.2396525" lon="20.5266465"><ele>3.0</ele><time>2026-05-02T13:54:23.74Z</time></trkpt><trkpt lat="39.2399064" lon="20.5265744"><ele>3.0</ele><time>2026-05-02T13:54:24.74Z</time></trkpt><trkpt lat="39.2401599" lon="20.5264986"><ele>3.0</ele><time>2026-05-02T13:54:25.739Z</time></trkpt><trkpt lat="39.2404075" lon="20.5264069"><ele>3.0</ele><time>2026-05-02T13:54:26.739Z</time></trkpt><trkpt lat="39.240654" lon="20.5263015"><ele>2.5</ele><time>2026-05-02T13:54:27.739Z</time></trkpt><trkpt lat="39.2409006" lon="20.5261845"><ele>2.0</ele><time>2026-05-02T13:54:28.739Z</time></trkpt><trkpt lat="39.2411421" lon="20.5260545"><ele>2.0</ele><time>2026-05-02T13:54:29.739Z</time></trkpt><trkpt lat="39.2413835" lon="20.52591"><ele>2.0</ele><time>2026-05-02T13:54:30.74Z</time></trkpt><trkpt lat="39.2416176" lon="20.525758"><ele>3.5</ele><time>2026-05-02T13:54:31.739Z</time></trkpt><trkpt lat="39.2418455" lon="20.5256027"><ele>5.0</ele><time>2026-05-02T13:54:32.739Z</time></trkpt><trkpt lat="39.2420724" lon="20.5254322"><ele>5.5</ele><time>2026-05-02T13:54:33.739Z</time></trkpt><trkpt lat="39.242296" lon="20.5252525"><ele>6.0</ele><time>2026-05-02T13:54:34.739Z</time></trkpt><trkpt lat="39.2425125" lon="20.5250607"><ele>6.0</ele><time>2026-05-02T13:54:35.74Z</time></trkpt><trkpt lat="39.2427192" lon="20.5248653"><ele>6.0</ele><time>2026-05-02T13:54:36.74Z</time></trkpt><trkpt lat="39.2429158" lon="20.5246588"><ele>7.0</ele><time>2026-05-02T13:54:37.74Z</time></trkpt><trkpt lat="39.2431058" lon="20.5244453"><ele>8.0</ele><time>2026-05-02T13:54:38.739Z</time></trkpt><trkpt lat="39.2432891" lon="20.524224"><ele>8.0</ele><time>2026-05-02T13:54:39.74Z</time></trkpt><trkpt lat="39.2434654" lon="20.5239952"><ele>8.0</ele><time>2026-05-02T13:54:40.739Z</time></trkpt><trkpt lat="39.2436376" lon="20.5237572"><ele>7.5</ele><time>2026-05-02T13:54:41.739Z</time></trkpt><trkpt lat="39.2438034" lon="20.5235037"><ele>7.0</ele><time>2026-05-02T13:54:42.74Z</time></trkpt><trkpt lat="39.2439647" lon="20.5232415"><ele>9.5</ele><time>2026-05-02T13:54:43.739Z</time></trkpt><trkpt lat="39.2441228" lon="20.5229783"><ele>12.0</ele><time>2026-05-02T13:54:44.74Z</time></trkpt><trkpt lat="39.2442742" lon="20.522712"><ele>12.0</ele><time>2026-05-02T13:54:45.739Z</time></trkpt><trkpt lat="39.2444256" lon="20.5224454"><ele>12.0</ele><time>2026-05-02T13:54:46.739Z</time></trkpt><trkpt lat="39.2445734" lon="20.5221835"><ele>10.0</ele><time>2026-05-02T13:54:47.74Z</time></trkpt><trkpt lat="39.2447201" lon="20.5219261"><ele>8.0</ele><time>2026-05-02T13:54:48.74Z</time></trkpt><trkpt lat="39.2448638" lon="20.521671"><ele>13.0</ele><time>2026-05-02T13:54:49.74Z</time></trkpt><trkpt lat="39.2450072" lon="20.5214228"><ele>18.0</ele><time>2026-05-02T13:54:50.739Z</time></trkpt><trkpt lat="39.2451535" lon="20.5211787"><ele>18.0</ele><time>2026-05-02T13:54:51.74Z</time></trkpt><trkpt lat="39.2453033" lon="20.52094"><ele>18.0</ele><time>2026-05-02T13:54:52.739Z</time></trkpt><trkpt lat="39.2454572" lon="20.520706"><ele>18.0</ele><time>2026-05-02T13:54:53.739Z</time></trkpt><trkpt lat="39.2456135" lon="20.5204877"><ele>18.0</ele><time>2026-05-02T13:54:54.739Z</time></trkpt><trkpt lat="39.2457781" lon="20.5202697"><ele>21.0</ele><time>2026-05-02T13:54:55.74Z</time></trkpt><trkpt lat="39.2459464" lon="20.520059"><ele>24.0</ele><time>2026-05-02T13:54:56.739Z</time></trkpt><trkpt lat="39.2461195" lon="20.519853"><ele>24.0</ele><time>2026-05-02T13:54:57.739Z</time></trkpt><trkpt lat="39.2462953" lon="20.51965"><ele>24.0</ele><time>2026-05-02T13:54:58.74Z</time></trkpt><trkpt lat="39.2464749" lon="20.5194503"><ele>26.0</ele><time>2026-05-02T13:54:59.74Z</time></trkpt><trkpt lat="39.2466515" lon="20.5192527"><ele>28.0</ele><time>2026-05-02T13:55:00.74Z</time></trkpt><trkpt lat="39.2468307" lon="20.5190544"><ele>28.0</ele><time>2026-05-02T13:55:01.74Z</time></trkpt><trkpt lat="39.2470082" lon="20.5188568"><ele>28.0</ele><time>2026-05-02T13:55:02.74Z</time></trkpt><trkpt lat="39.247186" lon="20.5186565"><ele>29.5</ele><time>2026-05-02T13:55:03.74Z</time></trkpt><trkpt lat="39.2473653" lon="20.5184562"><ele>31.0</ele><time>2026-05-02T13:55:04.74Z</time></trkpt><trkpt lat="39.2475466" lon="20.5182548"><ele>31.0</ele><time>2026-05-02T13:55:05.74Z</time></trkpt><trkpt lat="39.2477278" lon="20.5180478"><ele>31.0</ele><time>2026-05-02T13:55:06.739Z</time></trkpt><trkpt lat="39.247908" lon="20.5178365"><ele>35.5</ele><time>2026-05-02T13:55:07.739Z</time></trkpt><trkpt lat="39.2480884" lon="20.5176178"><ele>40.0</ele><time>2026-05-02T13:55:08.74Z</time></trkpt><trkpt lat="39.2482681" lon="20.5173907"><ele>40.0</ele><time>2026-05-02T13:55:09.739Z</time></trkpt><trkpt lat="39.2484516" lon="20.517156"><ele>40.0</ele><time>2026-05-02T13:55:10.739Z</time></trkpt><trkpt lat="39.2486338" lon="20.51691"><ele>43.0</ele><time>2026-05-02T13:55:11.74Z</time></trkpt><trkpt lat="39.248811" lon="20.5166614"><ele>46.0</ele><time>2026-05-02T13:55:12.74Z</time></trkpt><trkpt lat="39.2489983" lon="20.5164007"><ele>38.5</ele><time>2026-05-02T13:55:13.739Z</time></trkpt><trkpt lat="39.2491804" lon="20.5161325"><ele>31.0</ele><time>2026-05-02T13:55:14.74Z</time></trkpt><trkpt lat="39.249366" lon="20.5158624"><ele>31.0</ele><time>2026-05-02T13:55:15.74Z</time></trkpt><trkpt lat="39.2495436" lon="20.5155844"><ele>31.0</ele><time>2026-05-02T13:55:16.739Z</time></trkpt><trkpt lat="39.2497227" lon="20.5153044"><ele>35.0</ele><time>2026-05-02T13:55:17.739Z</time></trkpt><trkpt lat="39.2499027" lon="20.5150248"><ele>39.0</ele><time>2026-05-02T13:55:18.74Z</time></trkpt><trkpt lat="39.2500779" lon="20.5147425"><ele>34.5</ele><time>2026-05-02T13:55:19.74Z</time></trkpt><trkpt lat="39.2502516" lon="20.5144536"><ele>30.0</ele><time>2026-05-02T13:55:20.739Z</time></trkpt><trkpt lat="39.2504257" lon="20.5141735"><ele>30.0</ele><time>2026-05-02T13:55:21.74Z</time></trkpt><trkpt lat="39.2505967" lon="20.5138868"><ele>30.0</ele><time>2026-05-02T13:55:22.739Z</time></trkpt><trkpt lat="39.2507621" lon="20.5135905"><ele>36.5</ele><time>2026-05-02T13:55:23.739Z</time></trkpt><trkpt lat="39.2509194" lon="20.513276"><ele>43.0</ele><time>2026-05-02T13:55:24.739Z</time></trkpt><trkpt lat="39.2510596" lon="20.5129417"><ele>37.5</ele><time>2026-05-02T13:55:25.74Z</time></trkpt><trkpt lat="39.2511865" lon="20.5125983"><ele>32.0</ele><time>2026-05-02T13:55:26.739Z</time></trkpt><trkpt lat="39.2512932" lon="20.5122446"><ele>30.5</ele><time>2026-05-02T13:55:27.74Z</time></trkpt><trkpt lat="39.2513872" lon="20.5118842"><ele>29.0</ele><time>2026-05-02T13:55:28.74Z</time></trkpt><trkpt lat="39.2514645" lon="20.5115202"><ele>40.0</ele><time>2026-05-02T13:55:29.74Z</time></trkpt><trkpt lat="39.2515145" lon="20.5111406"><ele>51.0</ele><time>2026-05-02T13:55:30.739Z</time></trkpt><trkpt lat="39.2515494" lon="20.5107561"><ele>50.5</ele><time>2026-05-02T13:55:31.739Z</time></trkpt><trkpt lat="39.251565" lon="20.5103666"><ele>50.0</ele><time>2026-05-02T13:55:32.74Z</time></trkpt><trkpt lat="39.2515693" lon="20.5099886"><ele>50.0</ele><time>2026-05-02T13:55:33.74Z</time></trkpt><trkpt lat="39.2515712" lon="20.5096213"><ele>50.0</ele><time>2026-05-02T13:55:34.74Z</time></trkpt><trkpt lat="39.2515819" lon="20.5092612"><ele>52.0</ele><time>2026-05-02T13:55:35.739Z</time></trkpt><trkpt lat="39.2516031" lon="20.5089129"><ele>54.0</ele><time>2026-05-02T13:55:36.74Z</time></trkpt><trkpt lat="39.2516447" lon="20.5085644"><ele>54.0</ele><time>2026-05-02T13:55:37.739Z</time></trkpt><trkpt lat="39.2517094" lon="20.5082173"><ele>54.0</ele><time>2026-05-02T13:55:38.74Z</time></trkpt><trkpt lat="39.2517917" lon="20.5078838"><ele>54.0</ele><time>2026-05-02T13:55:39.74Z</time></trkpt><trkpt lat="39.2518949" lon="20.5075557"><ele>54.0</ele><time>2026-05-02T13:55:40.739Z</time></trkpt><trkpt lat="39.2520157" lon="20.507233"><ele>51.5</ele><time>2026-05-02T13:55:41.74Z</time></trkpt><trkpt lat="39.2521481" lon="20.50691"><ele>49.0</ele><time>2026-05-02T13:55:42.74Z</time></trkpt><trkpt lat="39.2522857" lon="20.5065855"><ele>56.5</ele><time>2026-05-02T13:55:43.74Z</time></trkpt><trkpt lat="39.2524238" lon="20.5062576"><ele>64.0</ele><time>2026-05-02T13:55:44.74Z</time></trkpt><trkpt lat="39.2525662" lon="20.5059259"><ele>64.0</ele><time>2026-05-02T13:55:45.739Z</time></trkpt><trkpt lat="39.2527103" lon="20.5055926"><ele>64.0</ele><time>2026-05-02T13:55:46.739Z</time></trkpt><trkpt lat="39.2528538" lon="20.5052567"><ele>58.0</ele><time>2026-05-02T13:55:47.74Z</time></trkpt><trkpt lat="39.252996" lon="20.5049205"><ele>52.0</ele><time>2026-05-02T13:55:48.74Z</time></trkpt><trkpt lat="39.2531376" lon="20.5045842"><ele>62.0</ele><time>2026-05-02T13:55:49.739Z</time></trkpt><trkpt lat="39.2532757" lon="20.5042558"><ele>72.0</ele><time>2026-05-02T13:55:50.74Z</time></trkpt><trkpt lat="39.2534096" lon="20.5039435"><ele>67.5</ele><time>2026-05-02T13:55:51.74Z</time></trkpt><trkpt lat="39.2535415" lon="20.503645"><ele>63.0</ele><time>2026-05-02T13:55:52.74Z</time></trkpt><trkpt lat="39.2536801" lon="20.5033652"><ele>63.0</ele><time>2026-05-02T13:55:53.739Z</time></trkpt><trkpt lat="39.2538287" lon="20.5031018"><ele>63.0</ele><time>2026-05-02T13:55:54.74Z</time></trkpt><trkpt lat="39.2539894" lon="20.5028575"><ele>70.5</ele><time>2026-05-02T13:55:55.74Z</time></trkpt><trkpt lat="39.2541704" lon="20.5026162"><ele>78.0</ele><time>2026-05-02T13:55:56.74Z</time></trkpt><trkpt lat="39.2543689" lon="20.5023819"><ele>78.0</ele><time>2026-05-02T13:55:57.739Z</time></trkpt><trkpt lat="39.2545876" lon="20.5021594"><ele>78.0</ele><time>2026-05-02T13:55:58.74Z</time></trkpt><trkpt lat="39.2548107" lon="20.50195"><ele>79.5</ele><time>2026-05-02T13:55:59.739Z</time></trkpt><trkpt lat="39.255051" lon="20.5017253"><ele>81.0</ele><time>2026-05-02T13:56:00.74Z</time></trkpt><trkpt lat="39.2552854" lon="20.5015024"><ele>81.0</ele><time>2026-05-02T13:56:01.739Z</time></trkpt><trkpt lat="39.255517" lon="20.5012827"><ele>81.0</ele><time>2026-05-02T13:56:02.739Z</time></trkpt><trkpt lat="39.2557332" lon="20.5010626"><ele>83.5</ele><time>2026-05-02T13:56:03.74Z</time></trkpt><trkpt lat="39.2559342" lon="20.5008266"><ele>86.0</ele><time>2026-05-02T13:56:04.739Z</time></trkpt><trkpt lat="39.256122" lon="20.500569"><ele>78.5</ele><time>2026-05-02T13:56:05.739Z</time></trkpt><trkpt lat="39.2562935" lon="20.5002921"><ele>71.0</ele><time>2026-05-02T13:56:06.739Z</time></trkpt><trkpt lat="39.2564499" lon="20.4999933"><ele>80.5</ele><time>2026-05-02T13:56:07.74Z</time></trkpt><trkpt lat="39.2565921" lon="20.4996851"><ele>90.0</ele><time>2026-05-02T13:56:08.74Z</time></trkpt><trkpt lat="39.2567226" lon="20.4993641"><ele>90.0</ele><time>2026-05-02T13:56:09.74Z</time></trkpt><trkpt lat="39.2568487" lon="20.4990305"><ele>90.0</ele><time>2026-05-02T13:56:10.74Z</time></trkpt><trkpt lat="39.2569727" lon="20.4986944"><ele>85.0</ele><time>2026-05-02T13:56:11.74Z</time></trkpt><trkpt lat="39.2570894" lon="20.498381"><ele>80.0</ele><time>2026-05-02T13:56:12.739Z</time></trkpt><trkpt lat="39.2572014" lon="20.4980859"><ele>90.0</ele><time>2026-05-02T13:56:13.74Z</time></trkpt><trkpt lat="39.2573118" lon="20.4978105"><ele>100.0</ele><time>2026-05-02T13:56:14.739Z</time></trkpt><trkpt lat="39.2574219" lon="20.497556"><ele>100.0</ele><time>2026-05-02T13:56:15.74Z</time></trkpt><trkpt lat="39.2575473" lon="20.4973296"><ele>100.0</ele><time>2026-05-02T13:56:16.74Z</time></trkpt><trkpt lat="39.2576817" lon="20.4971209"><ele>100.0</ele><time>2026-05-02T13:56:17.74Z</time></trkpt><trkpt lat="39.2578391" lon="20.4969283"><ele>104.0</ele><time>2026-05-02T13:56:18.739Z</time></trkpt><trkpt lat="39.2580185" lon="20.4967591"><ele>108.0</ele><time>2026-05-02T13:56:19.739Z</time></trkpt><trkpt lat="39.2582216" lon="20.4966115"><ele>108.0</ele><time>2026-05-02T13:56:20.739Z</time></trkpt><trkpt lat="39.2584363" lon="20.4965023"><ele>108.0</ele><time>2026-05-02T13:56:21.74Z</time></trkpt><trkpt lat="39.2586579" lon="20.4964153"><ele>108.0</ele><time>2026-05-02T13:56:22.74Z</time></trkpt><trkpt lat="39.2588755" lon="20.4963315"><ele>108.0</ele><time>2026-05-02T13:56:23.739Z</time></trkpt><trkpt lat="39.2590852" lon="20.4962334"><ele>105.33333333333334</ele><time>2026-05-02T13:56:24.739Z</time></trkpt><trkpt lat="39.2592748" lon="20.4961031"><ele>102.66666666666667</ele><time>2026-05-02T13:56:25.739Z</time></trkpt><trkpt lat="39.2594491" lon="20.4959409"><ele>100.0</ele><time>2026-05-02T13:56:26.74Z</time></trkpt><trkpt lat="39.259602" lon="20.4957433"><ele>100.0</ele><time>2026-05-02T13:56:27.74Z</time></trkpt><trkpt lat="39.2597318" lon="20.4955064"><ele>100.0</ele><time>2026-05-02T13:56:28.739Z</time></trkpt><trkpt lat="39.2598418" lon="20.4952444"><ele>111.5</ele><time>2026-05-02T13:56:29.74Z</time></trkpt><trkpt lat="39.2599379" lon="20.4949696"><ele>123.0</ele><time>2026-05-02T13:56:30.739Z</time></trkpt><trkpt lat="39.2600405" lon="20.4947052"><ele>118.0</ele><time>2026-05-02T13:56:31.74Z</time></trkpt><trkpt lat="39.2601661" lon="20.4944575"><ele>113.0</ele><time>2026-05-02T13:56:32.739Z</time></trkpt><trkpt lat="39.2603185" lon="20.4942186"><ele>113.0</ele><time>2026-05-02T13:56:33.74Z</time></trkpt><trkpt lat="39.2605017" lon="20.4939905"><ele>113.0</ele><time>2026-05-02T13:56:34.74Z</time></trkpt><trkpt lat="39.2607033" lon="20.4937903"><ele>112.5</ele><time>2026-05-02T13:56:35.74Z</time></trkpt><trkpt lat="39.2608908" lon="20.4936058"><ele>112.0</ele><time>2026-05-02T13:56:36.739Z</time></trkpt><trkpt lat="39.2610678" lon="20.4934027"><ele>112.0</ele><time>2026-05-02T13:56:37.74Z</time></trkpt><trkpt lat="39.2612279" lon="20.4931786"><ele>112.0</ele><time>2026-05-02T13:56:38.74Z</time></trkpt><trkpt lat="39.2613611" lon="20.4929324"><ele>124.0</ele><time>2026-05-02T13:56:39.74Z</time></trkpt><trkpt lat="39.2614629" lon="20.4926639"><ele>136.0</ele><time>2026-05-02T13:56:40.74Z</time></trkpt><trkpt lat="39.2615391" lon="20.4923726"><ele>134.5</ele><time>2026-05-02T13:56:41.739Z</time></trkpt><trkpt lat="39.2615912" lon="20.4920674"><ele>133.0</ele><time>2026-05-02T13:56:42.739Z</time></trkpt><trkpt lat="39.2616187" lon="20.4917395"><ele>133.0</ele><time>2026-05-02T13:56:43.74Z</time></trkpt><trkpt lat="39.2616299" lon="20.4914037"><ele>133.0</ele><time>2026-05-02T13:56:44.74Z</time></trkpt><trkpt lat="39.2616297" lon="20.4910729"><ele>133.5</ele><time>2026-05-02T13:56:45.74Z</time></trkpt><trkpt lat="39.2616316" lon="20.4907293"><ele>134.0</ele><time>2026-05-02T13:56:46.74Z</time></trkpt><trkpt lat="39.2616335" lon="20.4903917"><ele>134.0</ele><time>2026-05-02T13:56:47.74Z</time></trkpt><trkpt lat="39.2616318" lon="20.4900619"><ele>134.0</ele><time>2026-05-02T13:56:48.739Z</time></trkpt><trkpt lat="39.2616379" lon="20.4897493"><ele>134.5</ele><time>2026-05-02T13:56:49.74Z</time></trkpt><trkpt lat="39.2616483" lon="20.4894444"><ele>135.0</ele><time>2026-05-02T13:56:50.74Z</time></trkpt><trkpt lat="39.2616646" lon="20.4891428"><ele>135.0</ele><time>2026-05-02T13:56:51.739Z</time></trkpt><trkpt lat="39.2616857" lon="20.4888543"><ele>135.0</ele><time>2026-05-02T13:56:52.739Z</time></trkpt><trkpt lat="39.2617122" lon="20.488588"><ele>135.0</ele><time>2026-05-02T13:56:53.739Z</time></trkpt><trkpt lat="39.2617399" lon="20.4883357"><ele>134.0</ele><time>2026-05-02T13:56:54.739Z</time></trkpt><trkpt lat="39.2617727" lon="20.4880992"><ele>133.0</ele><time>2026-05-02T13:56:55.74Z</time></trkpt><trkpt lat="39.2618031" lon="20.487876"><ele>132.0</ele><time>2026-05-02T13:56:56.739Z</time></trkpt><trkpt lat="39.2618321" lon="20.4876584"><ele>130.33333333333334</ele><time>2026-05-02T13:56:57.739Z</time></trkpt><trkpt lat="39.2618605" lon="20.4874382"><ele>128.66666666666669</ele><time>2026-05-02T13:56:58.74Z</time></trkpt><trkpt lat="39.2618902" lon="20.4872108"><ele>127.0</ele><time>2026-05-02T13:56:59.739Z</time></trkpt><trkpt lat="39.261926" lon="20.4869801"><ele>125.0</ele><time>2026-05-02T13:57:00.74Z</time></trkpt><trkpt lat="39.2619683" lon="20.4867289"><ele>123.0</ele><time>2026-05-02T13:57:01.739Z</time></trkpt><trkpt lat="39.2620074" lon="20.4864678"><ele>121.0</ele><time>2026-05-02T13:57:02.739Z</time></trkpt><trkpt lat="39.2620461" lon="20.4861961"><ele>118.5</ele><time>2026-05-02T13:57:03.739Z</time></trkpt><trkpt lat="39.262088" lon="20.4859119"><ele>116.0</ele><time>2026-05-02T13:57:04.739Z</time></trkpt><trkpt lat="39.262132" lon="20.4856157"><ele>113.0</ele><time>2026-05-02T13:57:05.739Z</time></trkpt><trkpt lat="39.262177" lon="20.4853114"><ele>110.0</ele><time>2026-05-02T13:57:06.739Z</time></trkpt><trkpt lat="39.2622245" lon="20.4849949"><ele>110.0</ele><time>2026-05-02T13:57:07.74Z</time></trkpt><trkpt lat="39.2622629" lon="20.4846809"><ele>110.0</ele><time>2026-05-02T13:57:08.739Z</time></trkpt><trkpt lat="39.2622994" lon="20.4843697"><ele>135.0</ele><time>2026-05-02T13:57:09.74Z</time></trkpt><trkpt lat="39.2623316" lon="20.484056"><ele>160.0</ele><time>2026-05-02T13:57:10.739Z</time></trkpt><trkpt lat="39.2623595" lon="20.4837406"><ele>160.5</ele><time>2026-05-02T13:57:11.739Z</time></trkpt><trkpt lat="39.262379" lon="20.4834374"><ele>161.0</ele><time>2026-05-02T13:57:12.739Z</time></trkpt><trkpt lat="39.2623966" lon="20.4831337"><ele>160.0</ele><time>2026-05-02T13:57:13.74Z</time></trkpt><trkpt lat="39.2624081" lon="20.4828384"><ele>159.0</ele><time>2026-05-02T13:57:14.739Z</time></trkpt><trkpt lat="39.2624227" lon="20.4825532"><ele>159.0</ele><time>2026-05-02T13:57:15.74Z</time></trkpt><trkpt lat="39.2624341" lon="20.4822753"><ele>159.0</ele><time>2026-05-02T13:57:16.739Z</time></trkpt><trkpt lat="39.2624478" lon="20.4819955"><ele>159.0</ele><time>2026-05-02T13:57:17.739Z</time></trkpt><trkpt lat="39.2624641" lon="20.4817118"><ele>158.33333333333334</ele><time>2026-05-02T13:57:18.74Z</time></trkpt><trkpt lat="39.2624822" lon="20.4814286"><ele>157.66666666666669</ele><time>2026-05-02T13:57:19.739Z</time></trkpt><trkpt lat="39.262506" lon="20.481137"><ele>157.0</ele><time>2026-05-02T13:57:20.739Z</time></trkpt><trkpt lat="39.2625412" lon="20.4808379"><ele>157.0</ele><time>2026-05-02T13:57:21.74Z</time></trkpt><trkpt lat="39.2625862" lon="20.480531"><ele>157.0</ele><time>2026-05-02T13:57:22.739Z</time></trkpt><trkpt lat="39.2626399" lon="20.4802319"><ele>154.0</ele><time>2026-05-02T13:57:23.74Z</time></trkpt><trkpt lat="39.2627082" lon="20.4799373"><ele>151.0</ele><time>2026-05-02T13:57:24.74Z</time></trkpt><trkpt lat="39.2627955" lon="20.4796679"><ele>148.66666666666669</ele><time>2026-05-02T13:57:25.74Z</time></trkpt><trkpt lat="39.2629004" lon="20.479418"><ele>146.33333333333334</ele><time>2026-05-02T13:57:26.739Z</time></trkpt><trkpt lat="39.2630276" lon="20.4791905"><ele>144.0</ele><time>2026-05-02T13:57:27.739Z</time></trkpt><trkpt lat="39.2631814" lon="20.4789884"><ele>148.33333333333334</ele><time>2026-05-02T13:57:28.739Z</time></trkpt><trkpt lat="39.2633603" lon="20.4788207"><ele>152.66666666666669</ele><time>2026-05-02T13:57:29.739Z</time></trkpt><trkpt lat="39.2635487" lon="20.4786799"><ele>157.0</ele><time>2026-05-02T13:57:30.739Z</time></trkpt><trkpt lat="39.2637605" lon="20.4785746"><ele>159.0</ele><time>2026-05-02T13:57:31.74Z</time></trkpt><trkpt lat="39.2639812" lon="20.4785114"><ele>161.0</ele><time>2026-05-02T13:57:32.74Z</time></trkpt><trkpt lat="39.2642085" lon="20.4784906"><ele>161.0</ele><time>2026-05-02T13:57:33.739Z</time></trkpt><trkpt lat="39.2644213" lon="20.4785077"><ele>161.0</ele><time>2026-05-02T13:57:34.74Z</time></trkpt><trkpt lat="39.2646223" lon="20.4785562"><ele>161.0</ele><time>2026-05-02T13:57:35.74Z</time></trkpt><trkpt lat="39.2648147" lon="20.4786291"><ele>158.66666666666666</ele><time>2026-05-02T13:57:36.739Z</time></trkpt><trkpt lat="39.2650046" lon="20.4787154"><ele>156.33333333333334</ele><time>2026-05-02T13:57:37.739Z</time></trkpt><trkpt lat="39.2652037" lon="20.4788196"><ele>154.0</ele><time>2026-05-02T13:57:38.74Z</time></trkpt><trkpt lat="39.2653967" lon="20.4789312"><ele>159.0</ele><time>2026-05-02T13:57:39.739Z</time></trkpt><trkpt lat="39.2655835" lon="20.4790525"><ele>164.0</ele><time>2026-05-02T13:57:40.739Z</time></trkpt><trkpt lat="39.2657599" lon="20.4791837"><ele>169.0</ele><time>2026-05-02T13:57:41.74Z</time></trkpt><trkpt lat="39.2659303" lon="20.4793178"><ele>169.0</ele><time>2026-05-02T13:57:42.739Z</time></trkpt><trkpt lat="39.2661008" lon="20.479459"><ele>169.0</ele><time>2026-05-02T13:57:43.739Z</time></trkpt><trkpt lat="39.2662718" lon="20.4796185"><ele>169.0</ele><time>2026-05-02T13:57:44.74Z</time></trkpt><trkpt lat="39.2664457" lon="20.4797941"><ele>170.0</ele><time>2026-05-02T13:57:45.74Z</time></trkpt><trkpt lat="39.2666206" lon="20.4799858"><ele>171.0</ele><time>2026-05-02T13:57:46.74Z</time></trkpt><trkpt lat="39.2668062" lon="20.4801891"><ele>171.0</ele><time>2026-05-02T13:57:47.74Z</time></trkpt><trkpt lat="39.2669956" lon="20.4804002"><ele>171.0</ele><time>2026-05-02T13:57:48.74Z</time></trkpt><trkpt lat="39.2671926" lon="20.4806068"><ele>171.0</ele><time>2026-05-02T13:57:49.74Z</time></trkpt><trkpt lat="39.2673977" lon="20.4808183"><ele>171.0</ele><time>2026-05-02T13:57:50.739Z</time></trkpt><trkpt lat="39.267603" lon="20.4810271"><ele>171.0</ele><time>2026-05-02T13:57:51.74Z</time></trkpt><trkpt lat="39.2678079" lon="20.4812381"><ele>171.0</ele><time>2026-05-02T13:57:52.739Z</time></trkpt><trkpt lat="39.268013" lon="20.4814512"><ele>169.5</ele><time>2026-05-02T13:57:53.739Z</time></trkpt><trkpt lat="39.2682209" lon="20.4816711"><ele>168.0</ele><time>2026-05-02T13:57:54.74Z</time></trkpt><trkpt lat="39.2684216" lon="20.4818828"><ele>168.0</ele><time>2026-05-02T13:57:55.739Z</time></trkpt><trkpt lat="39.2686168" lon="20.4820935"><ele>168.0</ele><time>2026-05-02T13:57:56.739Z</time></trkpt><trkpt lat="39.2688113" lon="20.482302"><ele>169.0</ele><time>2026-05-02T13:57:57.74Z</time></trkpt><trkpt lat="39.2690082" lon="20.4825008"><ele>170.0</ele><time>2026-05-02T13:57:58.739Z</time></trkpt><trkpt lat="39.2692061" lon="20.4826994"><ele>170.0</ele><time>2026-05-02T13:57:59.74Z</time></trkpt><trkpt lat="39.2694142" lon="20.4829025"><ele>170.0</ele><time>2026-05-02T13:58:00.739Z</time></trkpt><trkpt lat="39.2696264" lon="20.4831084"><ele>173.5</ele><time>2026-05-02T13:58:01.739Z</time></trkpt><trkpt lat="39.26985" lon="20.4833187"><ele>177.0</ele><time>2026-05-02T13:58:02.739Z</time></trkpt><trkpt lat="39.2700906" lon="20.4835347"><ele>177.0</ele><time>2026-05-02T13:58:03.739Z</time></trkpt><trkpt lat="39.270331" lon="20.4837498"><ele>177.0</ele><time>2026-05-02T13:58:04.74Z</time></trkpt><trkpt lat="39.2705556" lon="20.4839641"><ele>177.0</ele><time>2026-05-02T13:58:05.74Z</time></trkpt><trkpt lat="39.2707663" lon="20.4841709"><ele>177.0</ele><time>2026-05-02T13:58:06.739Z</time></trkpt><trkpt lat="39.2709725" lon="20.4843545"><ele>177.0</ele><time>2026-05-02T13:58:07.739Z</time></trkpt><trkpt lat="39.2711755" lon="20.4845104"><ele>177.0</ele><time>2026-05-02T13:58:08.739Z</time></trkpt><trkpt lat="39.2713831" lon="20.4846329"><ele>178.0</ele><time>2026-05-02T13:58:09.74Z</time></trkpt><trkpt lat="39.2715932" lon="20.484716"><ele>179.0</ele><time>2026-05-02T13:58:10.74Z</time></trkpt><trkpt lat="39.2717991" lon="20.4847593"><ele>180.0</ele><time>2026-05-02T13:58:11.74Z</time></trkpt><trkpt lat="39.2719954" lon="20.4847711"><ele>180.0</ele><time>2026-05-02T13:58:12.739Z</time></trkpt><trkpt lat="39.2721772" lon="20.4847474"><ele>180.0</ele><time>2026-05-02T13:58:13.74Z</time></trkpt><trkpt lat="39.2723591" lon="20.4846964"><ele>180.0</ele><time>2026-05-02T13:58:14.739Z</time></trkpt><trkpt lat="39.2725454" lon="20.4846097"><ele>180.33333333333334</ele><time>2026-05-02T13:58:15.739Z</time></trkpt><trkpt lat="39.2727322" lon="20.4844874"><ele>180.66666666666669</ele><time>2026-05-02T13:58:16.74Z</time></trkpt><trkpt lat="39.2729142" lon="20.4843354"><ele>181.0</ele><time>2026-05-02T13:58:17.74Z</time></trkpt><trkpt lat="39.2730868" lon="20.4841726"><ele>181.0</ele><time>2026-05-02T13:58:18.74Z</time></trkpt><trkpt lat="39.273245" lon="20.4840183"><ele>181.0</ele><time>2026-05-02T13:58:19.739Z</time></trkpt><trkpt lat="39.2733961" lon="20.4838683"><ele>181.0</ele><time>2026-05-02T13:58:20.74Z</time></trkpt><trkpt lat="39.2735437" lon="20.4837251"><ele>181.0</ele><time>2026-05-02T13:58:21.74Z</time></trkpt><trkpt lat="39.27369" lon="20.4835947"><ele>181.0</ele><time>2026-05-02T13:58:22.74Z</time></trkpt><trkpt lat="39.2738371" lon="20.4834761"><ele>181.0</ele><time>2026-05-02T13:58:23.74Z</time></trkpt><trkpt lat="39.2739867" lon="20.4833737"><ele>178.0</ele><time>2026-05-02T13:58:24.739Z</time></trkpt><trkpt lat="39.2741412" lon="20.4832661"><ele>175.0</ele><time>2026-05-02T13:58:25.74Z</time></trkpt><trkpt lat="39.2743214" lon="20.4831548"><ele>172.0</ele><time>2026-05-02T13:58:26.74Z</time></trkpt><trkpt lat="39.2745355" lon="20.4830534"><ele>172.0</ele><time>2026-05-02T13:58:27.74Z</time></trkpt><trkpt lat="39.2747625" lon="20.4829628"><ele>172.0</ele><time>2026-05-02T13:58:28.739Z</time></trkpt><trkpt lat="39.2750031" lon="20.4828566"><ele>176.5</ele><time>2026-05-02T13:58:29.74Z</time></trkpt><trkpt lat="39.2752353" lon="20.4827231"><ele>181.0</ele><time>2026-05-02T13:58:30.74Z</time></trkpt><trkpt lat="39.2754747" lon="20.4825436"><ele>181.5</ele><time>2026-05-02T13:58:31.74Z</time></trkpt><trkpt lat="39.2757154" lon="20.4823263"><ele>182.0</ele><time>2026-05-02T13:58:32.74Z</time></trkpt><trkpt lat="39.2759488" lon="20.4820927"><ele>183.5</ele><time>2026-05-02T13:58:33.74Z</time></trkpt><trkpt lat="39.2761629" lon="20.4818698"><ele>185.0</ele><time>2026-05-02T13:58:34.739Z</time></trkpt><trkpt lat="39.2763717" lon="20.4816501"><ele>181.5</ele><time>2026-05-02T13:58:35.74Z</time></trkpt><trkpt lat="39.2765742" lon="20.4814328"><ele>178.0</ele><time>2026-05-02T13:58:36.74Z</time></trkpt><trkpt lat="39.276774" lon="20.4812193"><ele>178.0</ele><time>2026-05-02T13:58:37.74Z</time></trkpt><trkpt lat="39.2769756" lon="20.481009"><ele>178.0</ele><time>2026-05-02T13:58:38.739Z</time></trkpt><trkpt lat="39.2771744" lon="20.4808032"><ele>174.0</ele><time>2026-05-02T13:58:39.74Z</time></trkpt><trkpt lat="39.2773763" lon="20.4806041"><ele>170.0</ele><time>2026-05-02T13:58:40.739Z</time></trkpt><trkpt lat="39.2775836" lon="20.480429"><ele>170.0</ele><time>2026-05-02T13:58:41.74Z</time></trkpt><trkpt lat="39.2777883" lon="20.4802573"><ele>170.0</ele><time>2026-05-02T13:58:42.74Z</time></trkpt><trkpt lat="39.2779958" lon="20.48009"><ele>188.5</ele><time>2026-05-02T13:58:43.74Z</time></trkpt><trkpt lat="39.2782053" lon="20.4799259"><ele>207.0</ele><time>2026-05-02T13:58:44.74Z</time></trkpt><trkpt lat="39.2784191" lon="20.4797713"><ele>207.0</ele><time>2026-05-02T13:58:45.739Z</time></trkpt><trkpt lat="39.2786365" lon="20.4796225"><ele>207.0</ele><time>2026-05-02T13:58:46.74Z</time></trkpt><trkpt lat="39.2788606" lon="20.4794854"><ele>195.0</ele><time>2026-05-02T13:58:47.74Z</time></trkpt><trkpt lat="39.2790899" lon="20.4793539"><ele>183.0</ele><time>2026-05-02T13:58:48.74Z</time></trkpt><trkpt lat="39.2793256" lon="20.4792221"><ele>183.0</ele><time>2026-05-02T13:58:49.739Z</time></trkpt><trkpt lat="39.2795641" lon="20.4790886"><ele>183.0</ele><time>2026-05-02T13:58:50.739Z</time></trkpt><trkpt lat="39.2798045" lon="20.478962"><ele>192.5</ele><time>2026-05-02T13:58:51.739Z</time></trkpt><trkpt lat="39.2800424" lon="20.4788369"><ele>202.0</ele><time>2026-05-02T13:58:52.739Z</time></trkpt><trkpt lat="39.2802857" lon="20.4787018"><ele>187.5</ele><time>2026-05-02T13:58:53.74Z</time></trkpt><trkpt lat="39.2805287" lon="20.478576"><ele>173.0</ele><time>2026-05-02T13:58:54.74Z</time></trkpt><trkpt lat="39.2807668" lon="20.4784502"><ele>173.0</ele><time>2026-05-02T13:58:55.74Z</time></trkpt><trkpt lat="39.2810079" lon="20.47833"><ele>173.0</ele><time>2026-05-02T13:58:56.739Z</time></trkpt><trkpt lat="39.2812466" lon="20.4782047"><ele>180.0</ele><time>2026-05-02T13:58:57.739Z</time></trkpt><trkpt lat="39.2814772" lon="20.4780772"><ele>187.0</ele><time>2026-05-02T13:58:58.74Z</time></trkpt><trkpt lat="39.2816969" lon="20.4779464"><ele>172.0</ele><time>2026-05-02T13:58:59.74Z</time></trkpt><trkpt lat="39.2819148" lon="20.4777981"><ele>157.0</ele><time>2026-05-02T13:59:00.74Z</time></trkpt><trkpt lat="39.282126" lon="20.4776174"><ele>162.5</ele><time>2026-05-02T13:59:01.739Z</time></trkpt><trkpt lat="39.2823242" lon="20.4774358"><ele>168.0</ele><time>2026-05-02T13:59:02.739Z</time></trkpt><trkpt lat="39.2825113" lon="20.4772536"><ele>163.0</ele><time>2026-05-02T13:59:03.739Z</time></trkpt><trkpt lat="39.2826888" lon="20.4770821"><ele>158.0</ele><time>2026-05-02T13:59:04.74Z</time></trkpt><trkpt lat="39.2828672" lon="20.4769242"><ele>153.0</ele><time>2026-05-02T13:59:05.739Z</time></trkpt><trkpt lat="39.2830444" lon="20.4767833"><ele>156.66666666666666</ele><time>2026-05-02T13:59:06.739Z</time></trkpt><trkpt lat="39.2832263" lon="20.4766684"><ele>160.33333333333331</ele><time>2026-05-02T13:59:07.74Z</time></trkpt><trkpt lat="39.2834137" lon="20.4765883"><ele>164.0</ele><time>2026-05-02T13:59:08.739Z</time></trkpt><trkpt lat="39.2836025" lon="20.4765327"><ele>164.0</ele><time>2026-05-02T13:59:09.74Z</time></trkpt><trkpt lat="39.2837972" lon="20.4765113"><ele>164.0</ele><time>2026-05-02T13:59:10.74Z</time></trkpt><trkpt lat="39.2839985" lon="20.476515"><ele>164.0</ele><time>2026-05-02T13:59:11.74Z</time></trkpt><trkpt lat="39.2842029" lon="20.4765565"><ele>167.33333333333331</ele><time>2026-05-02T13:59:12.74Z</time></trkpt><trkpt lat="39.2844146" lon="20.4766171"><ele>170.66666666666666</ele><time>2026-05-02T13:59:13.74Z</time></trkpt><trkpt lat="39.2846361" lon="20.4766934"><ele>174.0</ele><time>2026-05-02T13:59:14.74Z</time></trkpt><trkpt lat="39.2848472" lon="20.4767673"><ele>176.0</ele><time>2026-05-02T13:59:15.739Z</time></trkpt><trkpt lat="39.2850483" lon="20.4768352"><ele>178.0</ele><time>2026-05-02T13:59:16.74Z</time></trkpt><trkpt lat="39.2852449" lon="20.4769"><ele>180.0</ele><time>2026-05-02T13:59:17.739Z</time></trkpt><trkpt lat="39.2854407" lon="20.4769628"><ele>179.33333333333334</ele><time>2026-05-02T13:59:18.74Z</time></trkpt><trkpt lat="39.2856299" lon="20.4770161"><ele>178.66666666666669</ele><time>2026-05-02T13:59:19.739Z</time></trkpt><trkpt lat="39.2858152" lon="20.4770593"><ele>178.0</ele><time>2026-05-02T13:59:20.739Z</time></trkpt><trkpt lat="39.2860042" lon="20.4770946"><ele>174.66666666666669</ele><time>2026-05-02T13:59:21.74Z</time></trkpt><trkpt lat="39.2861911" lon="20.4771229"><ele>171.33333333333334</ele><time>2026-05-02T13:59:22.739Z</time></trkpt><trkpt lat="39.2863758" lon="20.4771472"><ele>168.0</ele><time>2026-05-02T13:59:23.74Z</time></trkpt><trkpt lat="39.2865565" lon="20.4771715"><ele>168.0</ele><time>2026-05-02T13:59:24.739Z</time></trkpt><trkpt lat="39.286744" lon="20.4771971"><ele>168.0</ele><time>2026-05-02T13:59:25.74Z</time></trkpt><trkpt lat="39.2869351" lon="20.4772212"><ele>168.0</ele><time>2026-05-02T13:59:26.74Z</time></trkpt><trkpt lat="39.28713" lon="20.4772464"><ele>167.66666666666666</ele><time>2026-05-02T13:59:27.739Z</time></trkpt><trkpt lat="39.2873236" lon="20.4772751"><ele>167.33333333333331</ele><time>2026-05-02T13:59:28.74Z</time></trkpt><trkpt lat="39.2875176" lon="20.4773049"><ele>167.0</ele><time>2026-05-02T13:59:29.739Z</time></trkpt><trkpt lat="39.2877122" lon="20.477337"><ele>167.0</ele><time>2026-05-02T13:59:30.74Z</time></trkpt><trkpt lat="39.2879064" lon="20.4773827"><ele>167.0</ele><time>2026-05-02T13:59:31.74Z</time></trkpt><trkpt lat="39.2880975" lon="20.4774392"><ele>167.0</ele><time>2026-05-02T13:59:32.74Z</time></trkpt><trkpt lat="39.2882859" lon="20.4775021"><ele>167.66666666666666</ele><time>2026-05-02T13:59:33.74Z</time></trkpt><trkpt lat="39.2884743" lon="20.4775781"><ele>168.33333333333334</ele><time>2026-05-02T13:59:34.739Z</time></trkpt><trkpt lat="39.2886663" lon="20.4776591"><ele>169.0</ele><time>2026-05-02T13:59:35.74Z</time></trkpt><trkpt lat="39.2888562" lon="20.477753"><ele>170.66666666666669</ele><time>2026-05-02T13:59:36.74Z</time></trkpt><trkpt lat="39.2890414" lon="20.4778556"><ele>172.33333333333334</ele><time>2026-05-02T13:59:37.739Z</time></trkpt><trkpt lat="39.2892303" lon="20.4779647"><ele>174.0</ele><time>2026-05-02T13:59:38.739Z</time></trkpt><trkpt lat="39.2894172" lon="20.478078"><ele>170.66666666666666</ele><time>2026-05-02T13:59:39.739Z</time></trkpt><trkpt lat="39.2896055" lon="20.4781893"><ele>167.33333333333331</ele><time>2026-05-02T13:59:40.739Z</time></trkpt><trkpt lat="39.2897944" lon="20.478306"><ele>164.0</ele><time>2026-05-02T13:59:41.74Z</time></trkpt><trkpt lat="39.2899838" lon="20.478421"><ele>164.0</ele><time>2026-05-02T13:59:42.74Z</time></trkpt><trkpt lat="39.2901761" lon="20.4785378"><ele>164.0</ele><time>2026-05-02T13:59:43.74Z</time></trkpt><trkpt lat="39.2903667" lon="20.4786499"><ele>164.0</ele><time>2026-05-02T13:59:44.739Z</time></trkpt><trkpt lat="39.2905585" lon="20.478753"><ele>161.33333333333331</ele><time>2026-05-02T13:59:45.739Z</time></trkpt><trkpt lat="39.2907511" lon="20.4788468"><ele>158.66666666666666</ele><time>2026-05-02T13:59:46.739Z</time></trkpt><trkpt lat="39.2909471" lon="20.4789306"><ele>156.0</ele><time>2026-05-02T13:59:47.739Z</time></trkpt><trkpt lat="39.2911462" lon="20.479009"><ele>156.0</ele><time>2026-05-02T13:59:48.739Z</time></trkpt><trkpt lat="39.2913473" lon="20.479076"><ele>156.0</ele><time>2026-05-02T13:59:49.74Z</time></trkpt><trkpt lat="39.2915532" lon="20.4791374"><ele>156.0</ele><time>2026-05-02T13:59:50.739Z</time></trkpt><trkpt lat="39.2917597" lon="20.4791866"><ele>156.0</ele><time>2026-05-02T13:59:51.739Z</time></trkpt><trkpt lat="39.291969" lon="20.479223"><ele>156.0</ele><time>2026-05-02T13:59:52.74Z</time></trkpt><trkpt lat="39.2921779" lon="20.4792489"><ele>156.0</ele><time>2026-05-02T13:59:53.739Z</time></trkpt><trkpt lat="39.2923896" lon="20.4792641"><ele>155.66666666666666</ele><time>2026-05-02T13:59:54.739Z</time></trkpt><trkpt lat="39.2926083" lon="20.4792681"><ele>155.33333333333331</ele><time>2026-05-02T13:59:55.74Z</time></trkpt><trkpt lat="39.2928306" lon="20.4792585"><ele>155.0</ele><time>2026-05-02T13:59:56.739Z</time></trkpt><trkpt lat="39.2930569" lon="20.4792411"><ele>155.0</ele><time>2026-05-02T13:59:57.74Z</time></trkpt><trkpt lat="39.2932805" lon="20.4792113"><ele>155.0</ele><time>2026-05-02T13:59:58.74Z</time></trkpt><trkpt lat="39.2934927" lon="20.4791701"><ele>155.0</ele><time>2026-05-02T13:59:59.74Z</time></trkpt><trkpt lat="39.2936988" lon="20.4791178"><ele>155.0</ele><time>2026-05-02T14:00:00.739Z</time></trkpt><trkpt lat="39.2939038" lon="20.4790527"><ele>155.0</ele><time>2026-05-02T14:00:01.74Z</time></trkpt><trkpt lat="39.2941009" lon="20.4789852"><ele>155.0</ele><time>2026-05-02T14:00:02.739Z</time></trkpt><trkpt lat="39.2942933" lon="20.4789128"><ele>155.0</ele><time>2026-05-02T14:00:03.739Z</time></trkpt><trkpt lat="39.2944821" lon="20.4788353"><ele>155.0</ele><time>2026-05-02T14:00:04.74Z</time></trkpt><trkpt lat="39.2946604" lon="20.4787493"><ele>155.0</ele><time>2026-05-02T14:00:05.739Z</time></trkpt><trkpt lat="39.2948325" lon="20.4786633"><ele>155.66666666666666</ele><time>2026-05-02T14:00:06.739Z</time></trkpt><trkpt lat="39.2949974" lon="20.4785789"><ele>156.33333333333334</ele><time>2026-05-02T14:00:07.739Z</time></trkpt><trkpt lat="39.2951593" lon="20.478495"><ele>157.0</ele><time>2026-05-02T14:00:08.74Z</time></trkpt><trkpt lat="39.2953147" lon="20.4784158"><ele>157.0</ele><time>2026-05-02T14:00:09.739Z</time></trkpt><trkpt lat="39.2954701" lon="20.4783372"><ele>157.0</ele><time>2026-05-02T14:00:10.739Z</time></trkpt><trkpt lat="39.2956255" lon="20.4782616"><ele>157.0</ele><time>2026-05-02T14:00:11.74Z</time></trkpt><trkpt lat="39.2957793" lon="20.478186"><ele>157.33333333333334</ele><time>2026-05-02T14:00:12.74Z</time></trkpt><trkpt lat="39.2959352" lon="20.4781084"><ele>157.66666666666666</ele><time>2026-05-02T14:00:13.739Z</time></trkpt><trkpt lat="39.2960879" lon="20.4780312"><ele>158.0</ele><time>2026-05-02T14:00:14.739Z</time></trkpt><trkpt lat="39.2962413" lon="20.4779527"><ele>155.0</ele><time>2026-05-02T14:00:15.74Z</time></trkpt><trkpt lat="39.2963942" lon="20.4778761"><ele>152.0</ele><time>2026-05-02T14:00:16.74Z</time></trkpt><trkpt lat="39.296545" lon="20.4778014"><ele>149.0</ele><time>2026-05-02T14:00:17.739Z</time></trkpt><trkpt lat="39.2967004" lon="20.4777188"><ele>146.66666666666666</ele><time>2026-05-02T14:00:18.74Z</time></trkpt><trkpt lat="39.2968543" lon="20.4776369"><ele>144.33333333333334</ele><time>2026-05-02T14:00:19.739Z</time></trkpt><trkpt lat="39.2970087" lon="20.4775503"><ele>142.0</ele><time>2026-05-02T14:00:20.74Z</time></trkpt><trkpt lat="39.2971644" lon="20.4774631"><ele>143.33333333333334</ele><time>2026-05-02T14:00:21.739Z</time></trkpt><trkpt lat="39.2973243" lon="20.4773822"><ele>144.66666666666666</ele><time>2026-05-02T14:00:22.739Z</time></trkpt><trkpt lat="39.2974854" lon="20.4773016"><ele>146.0</ele><time>2026-05-02T14:00:23.739Z</time></trkpt><trkpt lat="39.2976443" lon="20.4772193"><ele>146.0</ele><time>2026-05-02T14:00:24.739Z</time></trkpt><trkpt lat="39.2978078" lon="20.4771353"><ele>146.0</ele><time>2026-05-02T14:00:25.739Z</time></trkpt><trkpt lat="39.2979618" lon="20.4770544"><ele>146.0</ele><time>2026-05-02T14:00:26.74Z</time></trkpt><trkpt lat="39.2981117" lon="20.4769771"><ele>139.66666666666666</ele><time>2026-05-02T14:00:27.74Z</time></trkpt><trkpt lat="39.2982623" lon="20.4769002"><ele>133.33333333333334</ele><time>2026-05-02T14:00:28.739Z</time></trkpt><trkpt lat="39.2984102" lon="20.47683"><ele>127.0</ele><time>2026-05-02T14:00:29.739Z</time></trkpt><trkpt lat="39.2985591" lon="20.4767658"><ele>127.0</ele><time>2026-05-02T14:00:30.739Z</time></trkpt><trkpt lat="39.2987068" lon="20.4767113"><ele>127.0</ele><time>2026-05-02T14:00:31.739Z</time></trkpt><trkpt lat="39.2988595" lon="20.4766692"><ele>127.0</ele><time>2026-05-02T14:00:32.739Z</time></trkpt><trkpt lat="39.2990193" lon="20.4766355"><ele>129.33333333333334</ele><time>2026-05-02T14:00:33.74Z</time></trkpt><trkpt lat="39.2991874" lon="20.4766087"><ele>131.66666666666666</ele><time>2026-05-02T14:00:34.74Z</time></trkpt><trkpt lat="39.2993549" lon="20.4765909"><ele>134.0</ele><time>2026-05-02T14:00:35.74Z</time></trkpt><trkpt lat="39.2995309" lon="20.4765902"><ele>134.0</ele><time>2026-05-02T14:00:36.739Z</time></trkpt><trkpt lat="39.2997065" lon="20.4765999"><ele>134.0</ele><time>2026-05-02T14:00:37.74Z</time></trkpt><trkpt lat="39.2998795" lon="20.4766273"><ele>134.0</ele><time>2026-05-02T14:00:38.739Z</time></trkpt><trkpt lat="39.3000583" lon="20.476667"><ele>133.33333333333331</ele><time>2026-05-02T14:00:39.74Z</time></trkpt><trkpt lat="39.3002276" lon="20.4767148"><ele>132.66666666666666</ele><time>2026-05-02T14:00:40.739Z</time></trkpt><trkpt lat="39.300394" lon="20.4767752"><ele>132.0</ele><time>2026-05-02T14:00:41.739Z</time></trkpt><trkpt lat="39.3005575" lon="20.4768396"><ele>128.66666666666666</ele><time>2026-05-02T14:00:42.74Z</time></trkpt><trkpt lat="39.3007193" lon="20.4769017"><ele>125.33333333333333</ele><time>2026-05-02T14:00:43.739Z</time></trkpt><trkpt lat="39.3008802" lon="20.4769606"><ele>122.0</ele><time>2026-05-02T14:00:44.739Z</time></trkpt><trkpt lat="39.3010386" lon="20.4770176"><ele>122.0</ele><time>2026-05-02T14:00:45.739Z</time></trkpt><trkpt lat="39.3011987" lon="20.4770668"><ele>122.0</ele><time>2026-05-02T14:00:46.739Z</time></trkpt><trkpt lat="39.3013581" lon="20.4771095"><ele>122.0</ele><time>2026-05-02T14:00:47.739Z</time></trkpt><trkpt lat="39.3015206" lon="20.4771467"><ele>125.0</ele><time>2026-05-02T14:00:48.739Z</time></trkpt><trkpt lat="39.3016883" lon="20.4771804"><ele>128.0</ele><time>2026-05-02T14:00:49.74Z</time></trkpt><trkpt lat="39.3018641" lon="20.4772134"><ele>131.0</ele><time>2026-05-02T14:00:50.74Z</time></trkpt><trkpt lat="39.302046" lon="20.4772456"><ele>131.0</ele><time>2026-05-02T14:00:51.74Z</time></trkpt><trkpt lat="39.3022306" lon="20.477274"><ele>131.0</ele><time>2026-05-02T14:00:52.739Z</time></trkpt><trkpt lat="39.3024219" lon="20.4773003"><ele>131.0</ele><time>2026-05-02T14:00:53.74Z</time></trkpt><trkpt lat="39.3026075" lon="20.4773297"><ele>130.66666666666666</ele><time>2026-05-02T14:00:54.74Z</time></trkpt><trkpt lat="39.3027969" lon="20.4773566"><ele>130.33333333333334</ele><time>2026-05-02T14:00:55.739Z</time></trkpt><trkpt lat="39.3029831" lon="20.4773844"><ele>130.0</ele><time>2026-05-02T14:00:56.74Z</time></trkpt><trkpt lat="39.3031665" lon="20.4774124"><ele>130.0</ele><time>2026-05-02T14:00:57.739Z</time></trkpt><trkpt lat="39.3033498" lon="20.4774371"><ele>130.0</ele><time>2026-05-02T14:00:58.739Z</time></trkpt><trkpt lat="39.3035354" lon="20.4774603"><ele>130.0</ele><time>2026-05-02T14:00:59.74Z</time></trkpt><trkpt lat="39.3037246" lon="20.4774846"><ele>128.66666666666669</ele><time>2026-05-02T14:01:00.739Z</time></trkpt><trkpt lat="39.303914" lon="20.4775017"><ele>127.33333333333334</ele><time>2026-05-02T14:01:01.739Z</time></trkpt><trkpt lat="39.3041043" lon="20.4775109"><ele>126.0</ele><time>2026-05-02T14:01:02.739Z</time></trkpt><trkpt lat="39.304298" lon="20.4775104"><ele>126.0</ele><time>2026-05-02T14:01:03.74Z</time></trkpt><trkpt lat="39.3044906" lon="20.4775017"><ele>126.0</ele><time>2026-05-02T14:01:04.74Z</time></trkpt><trkpt lat="39.3046821" lon="20.4774791"><ele>126.0</ele><time>2026-05-02T14:01:05.739Z</time></trkpt><trkpt lat="39.3048801" lon="20.4774475"><ele>125.66666666666666</ele><time>2026-05-02T14:01:06.739Z</time></trkpt><trkpt lat="39.3050844" lon="20.4774064"><ele>125.33333333333333</ele><time>2026-05-02T14:01:07.74Z</time></trkpt><trkpt lat="39.3052889" lon="20.477353"><ele>125.0</ele><time>2026-05-02T14:01:08.74Z</time></trkpt><trkpt lat="39.3054954" lon="20.477288"><ele>126.0</ele><time>2026-05-02T14:01:09.74Z</time></trkpt><trkpt lat="39.3057005" lon="20.4772088"><ele>127.0</ele><time>2026-05-02T14:01:10.739Z</time></trkpt><trkpt lat="39.3059029" lon="20.477116"><ele>128.0</ele><time>2026-05-02T14:01:11.739Z</time></trkpt><trkpt lat="39.3061005" lon="20.4770067"><ele>126.33333333333333</ele><time>2026-05-02T14:01:12.74Z</time></trkpt><trkpt lat="39.306294" lon="20.4768869"><ele>124.66666666666666</ele><time>2026-05-02T14:01:13.74Z</time></trkpt><trkpt lat="39.3064794" lon="20.4767602"><ele>123.0</ele><time>2026-05-02T14:01:14.74Z</time></trkpt><trkpt lat="39.3066578" lon="20.4766248"><ele>123.0</ele><time>2026-05-02T14:01:15.74Z</time></trkpt><trkpt lat="39.3068311" lon="20.4764862"><ele>123.0</ele><time>2026-05-02T14:01:16.739Z</time></trkpt><trkpt lat="39.3069901" lon="20.4763439"><ele>123.0</ele><time>2026-05-02T14:01:17.74Z</time></trkpt><trkpt lat="39.3071411" lon="20.4761961"><ele>122.0</ele><time>2026-05-02T14:01:18.739Z</time></trkpt><trkpt lat="39.307289" lon="20.4760365"><ele>121.0</ele><time>2026-05-02T14:01:19.739Z</time></trkpt><trkpt lat="39.3074362" lon="20.4758587"><ele>120.0</ele><time>2026-05-02T14:01:20.739Z</time></trkpt><trkpt lat="39.3075826" lon="20.4756682"><ele>120.0</ele><time>2026-05-02T14:01:21.739Z</time></trkpt><trkpt lat="39.3077257" lon="20.4754691"><ele>120.0</ele><time>2026-05-02T14:01:22.74Z</time></trkpt><trkpt lat="39.3078692" lon="20.4752692"><ele>120.0</ele><time>2026-05-02T14:01:23.74Z</time></trkpt><trkpt lat="39.3080113" lon="20.4750745"><ele>119.66666666666666</ele><time>2026-05-02T14:01:24.74Z</time></trkpt><trkpt lat="39.3081518" lon="20.4748715"><ele>119.33333333333333</ele><time>2026-05-02T14:01:25.739Z</time></trkpt><trkpt lat="39.3082871" lon="20.4746691"><ele>119.0</ele><time>2026-05-02T14:01:26.74Z</time></trkpt><trkpt lat="39.3084184" lon="20.4744711"><ele>119.0</ele><time>2026-05-02T14:01:27.74Z</time></trkpt><trkpt lat="39.3085463" lon="20.4742774"><ele>119.0</ele><time>2026-05-02T14:01:28.739Z</time></trkpt><trkpt lat="39.3086746" lon="20.4740856"><ele>119.0</ele><time>2026-05-02T14:01:29.74Z</time></trkpt><trkpt lat="39.3088011" lon="20.473897"><ele>122.0</ele><time>2026-05-02T14:01:30.74Z</time></trkpt><trkpt lat="39.30893" lon="20.4737071"><ele>125.0</ele><time>2026-05-02T14:01:31.74Z</time></trkpt><trkpt lat="39.3090591" lon="20.4735225"><ele>128.0</ele><time>2026-05-02T14:01:32.74Z</time></trkpt><trkpt lat="39.3091926" lon="20.4733332"><ele>128.0</ele><time>2026-05-02T14:01:33.74Z</time></trkpt><trkpt lat="39.3093231" lon="20.4731403"><ele>128.0</ele><time>2026-05-02T14:01:34.74Z</time></trkpt><trkpt lat="39.3094529" lon="20.4729418"><ele>128.0</ele><time>2026-05-02T14:01:35.739Z</time></trkpt><trkpt lat="39.3095831" lon="20.4727425"><ele>128.66666666666666</ele><time>2026-05-02T14:01:36.739Z</time></trkpt><trkpt lat="39.3097177" lon="20.4725434"><ele>129.33333333333334</ele><time>2026-05-02T14:01:37.739Z</time></trkpt><trkpt lat="39.3098589" lon="20.4723469"><ele>130.0</ele><time>2026-05-02T14:01:38.74Z</time></trkpt><trkpt lat="39.3099987" lon="20.4721484"><ele>124.33333333333334</ele><time>2026-05-02T14:01:39.74Z</time></trkpt><trkpt lat="39.310139" lon="20.4719538"><ele>118.66666666666666</ele><time>2026-05-02T14:01:40.74Z</time></trkpt><trkpt lat="39.3102784" lon="20.4717599"><ele>113.0</ele><time>2026-05-02T14:01:41.74Z</time></trkpt><trkpt lat="39.3104152" lon="20.4715676"><ele>113.0</ele><time>2026-05-02T14:01:42.74Z</time></trkpt><trkpt lat="39.3105517" lon="20.4713757"><ele>113.0</ele><time>2026-05-02T14:01:43.74Z</time></trkpt><trkpt lat="39.3106861" lon="20.471186"><ele>113.0</ele><time>2026-05-02T14:01:44.74Z</time></trkpt><trkpt lat="39.3108239" lon="20.4710013"><ele>114.0</ele><time>2026-05-02T14:01:45.74Z</time></trkpt><trkpt lat="39.3109675" lon="20.4708197"><ele>115.0</ele><time>2026-05-02T14:01:46.739Z</time></trkpt><trkpt lat="39.311117" lon="20.4706383"><ele>116.0</ele><time>2026-05-02T14:01:47.739Z</time></trkpt><trkpt lat="39.3112705" lon="20.4704556"><ele>118.33333333333333</ele><time>2026-05-02T14:01:48.74Z</time></trkpt><trkpt lat="39.311425" lon="20.4702648"><ele>120.66666666666666</ele><time>2026-05-02T14:01:49.74Z</time></trkpt><trkpt lat="39.3115732" lon="20.4700697"><ele>123.0</ele><time>2026-05-02T14:01:50.74Z</time></trkpt><trkpt lat="39.3117127" lon="20.4698628"><ele>123.0</ele><time>2026-05-02T14:01:51.739Z</time></trkpt><trkpt lat="39.3118482" lon="20.4696481"><ele>123.0</ele><time>2026-05-02T14:01:52.739Z</time></trkpt><trkpt lat="39.3119768" lon="20.4694232"><ele>123.0</ele><time>2026-05-02T14:01:53.74Z</time></trkpt><trkpt lat="39.312105" lon="20.4691929"><ele>121.0</ele><time>2026-05-02T14:01:54.739Z</time></trkpt><trkpt lat="39.3122385" lon="20.4689615"><ele>119.0</ele><time>2026-05-02T14:01:55.74Z</time></trkpt><trkpt lat="39.3123756" lon="20.4687267"><ele>119.0</ele><time>2026-05-02T14:01:56.74Z</time></trkpt><trkpt lat="39.3125198" lon="20.4684914"><ele>119.0</ele><time>2026-05-02T14:01:57.739Z</time></trkpt><trkpt lat="39.3126705" lon="20.468255"><ele>119.0</ele><time>2026-05-02T14:01:58.739Z</time></trkpt><trkpt lat="39.3128217" lon="20.4680201"><ele>119.0</ele><time>2026-05-02T14:01:59.74Z</time></trkpt><trkpt lat="39.3129809" lon="20.4677846"><ele>126.0</ele><time>2026-05-02T14:02:00.74Z</time></trkpt><trkpt lat="39.3131442" lon="20.4675533"><ele>133.0</ele><time>2026-05-02T14:02:01.74Z</time></trkpt><trkpt lat="39.3133129" lon="20.4673279"><ele>123.0</ele><time>2026-05-02T14:02:02.739Z</time></trkpt><trkpt lat="39.3134814" lon="20.4671048"><ele>113.0</ele><time>2026-05-02T14:02:03.739Z</time></trkpt><trkpt lat="39.3136576" lon="20.4668834"><ele>113.0</ele><time>2026-05-02T14:02:04.74Z</time></trkpt><trkpt lat="39.3138345" lon="20.4666643"><ele>113.0</ele><time>2026-05-02T14:02:05.74Z</time></trkpt><trkpt lat="39.3140107" lon="20.4664363"><ele>116.5</ele><time>2026-05-02T14:02:06.739Z</time></trkpt><trkpt lat="39.3141807" lon="20.4662077"><ele>120.0</ele><time>2026-05-02T14:02:07.74Z</time></trkpt><trkpt lat="39.314357" lon="20.4659803"><ele>120.0</ele><time>2026-05-02T14:02:08.739Z</time></trkpt><trkpt lat="39.3145361" lon="20.4657539"><ele>120.0</ele><time>2026-05-02T14:02:09.739Z</time></trkpt><trkpt lat="39.3147146" lon="20.4655266"><ele>122.0</ele><time>2026-05-02T14:02:10.739Z</time></trkpt><trkpt lat="39.3148927" lon="20.4652976"><ele>124.0</ele><time>2026-05-02T14:02:11.74Z</time></trkpt><trkpt lat="39.3150738" lon="20.4650538"><ele>124.0</ele><time>2026-05-02T14:02:12.74Z</time></trkpt><trkpt lat="39.3152562" lon="20.4648129"><ele>124.0</ele><time>2026-05-02T14:02:13.739Z</time></trkpt><trkpt lat="39.3154413" lon="20.4645579"><ele>127.5</ele><time>2026-05-02T14:02:14.74Z</time></trkpt><trkpt lat="39.3156383" lon="20.4642945"><ele>131.0</ele><time>2026-05-02T14:02:15.739Z</time></trkpt><trkpt lat="39.3158344" lon="20.4640147"><ele>121.5</ele><time>2026-05-02T14:02:16.74Z</time></trkpt><trkpt lat="39.3160281" lon="20.463719"><ele>112.0</ele><time>2026-05-02T14:02:17.739Z</time></trkpt><trkpt lat="39.3162216" lon="20.4634141"><ele>118.0</ele><time>2026-05-02T14:02:18.74Z</time></trkpt><trkpt lat="39.3164089" lon="20.4630962"><ele>124.0</ele><time>2026-05-02T14:02:19.74Z</time></trkpt><trkpt lat="39.3165836" lon="20.4627752"><ele>124.0</ele><time>2026-05-02T14:02:20.74Z</time></trkpt><trkpt lat="39.3167571" lon="20.4624483"><ele>124.0</ele><time>2026-05-02T14:02:21.739Z</time></trkpt><trkpt lat="39.3169261" lon="20.4621143"><ele>117.5</ele><time>2026-05-02T14:02:22.739Z</time></trkpt><trkpt lat="39.3170914" lon="20.4617793"><ele>111.0</ele><time>2026-05-02T14:02:23.74Z</time></trkpt><trkpt lat="39.3172567" lon="20.4614452"><ele>117.0</ele><time>2026-05-02T14:02:24.74Z</time></trkpt><trkpt lat="39.3174238" lon="20.4611089"><ele>123.0</ele><time>2026-05-02T14:02:25.74Z</time></trkpt><trkpt lat="39.3175856" lon="20.4607747"><ele>119.0</ele><time>2026-05-02T14:02:26.739Z</time></trkpt><trkpt lat="39.3177458" lon="20.4604346"><ele>115.0</ele><time>2026-05-02T14:02:27.74Z</time></trkpt><trkpt lat="39.3178988" lon="20.4600902"><ele>115.0</ele><time>2026-05-02T14:02:28.74Z</time></trkpt><trkpt lat="39.3180456" lon="20.4597445"><ele>115.0</ele><time>2026-05-02T14:02:29.739Z</time></trkpt><trkpt lat="39.3181833" lon="20.459392"><ele>115.0</ele><time>2026-05-02T14:02:30.74Z</time></trkpt><trkpt lat="39.3183169" lon="20.4590365"><ele>115.0</ele><time>2026-05-02T14:02:31.74Z</time></trkpt><trkpt lat="39.3184444" lon="20.4586756"><ele>112.0</ele><time>2026-05-02T14:02:32.74Z</time></trkpt><trkpt lat="39.3185649" lon="20.45831"><ele>109.0</ele><time>2026-05-02T14:02:33.739Z</time></trkpt><trkpt lat="39.3186748" lon="20.4579412"><ele>109.0</ele><time>2026-05-02T14:02:34.739Z</time></trkpt><trkpt lat="39.318774" lon="20.4575716"><ele>109.0</ele><time>2026-05-02T14:02:35.739Z</time></trkpt><trkpt lat="39.3188644" lon="20.4572008"><ele>109.5</ele><time>2026-05-02T14:02:36.74Z</time></trkpt><trkpt lat="39.3189514" lon="20.4568317"><ele>110.0</ele><time>2026-05-02T14:02:37.74Z</time></trkpt><trkpt lat="39.3190297" lon="20.456461"><ele>111.0</ele><time>2026-05-02T14:02:38.739Z</time></trkpt><trkpt lat="39.3191015" lon="20.4560889"><ele>112.0</ele><time>2026-05-02T14:02:39.739Z</time></trkpt><trkpt lat="39.3191725" lon="20.45572"><ele>112.0</ele><time>2026-05-02T14:02:40.74Z</time></trkpt><trkpt lat="39.3192397" lon="20.4553566"><ele>112.0</ele><time>2026-05-02T14:02:41.74Z</time></trkpt><trkpt lat="39.3193051" lon="20.454996"><ele>112.0</ele><time>2026-05-02T14:02:42.739Z</time></trkpt><trkpt lat="39.3193697" lon="20.4546407"><ele>112.0</ele><time>2026-05-02T14:02:43.739Z</time></trkpt><trkpt lat="39.3194283" lon="20.454286"><ele>111.0</ele><time>2026-05-02T14:02:44.74Z</time></trkpt><trkpt lat="39.3194854" lon="20.4539366"><ele>110.0</ele><time>2026-05-02T14:02:45.739Z</time></trkpt><trkpt lat="39.3195337" lon="20.453588"><ele>110.0</ele><time>2026-05-02T14:02:46.739Z</time></trkpt><trkpt lat="39.3195727" lon="20.4532475"><ele>110.0</ele><time>2026-05-02T14:02:47.74Z</time></trkpt><trkpt lat="39.3195967" lon="20.4529082"><ele>110.0</ele><time>2026-05-02T14:02:48.74Z</time></trkpt><trkpt lat="39.3196087" lon="20.4525693"><ele>110.0</ele><time>2026-05-02T14:02:49.74Z</time></trkpt><trkpt lat="39.3196048" lon="20.452235"><ele>113.0</ele><time>2026-05-02T14:02:50.74Z</time></trkpt><trkpt lat="39.3195859" lon="20.4519008"><ele>116.0</ele><time>2026-05-02T14:02:51.74Z</time></trkpt><trkpt lat="39.3195565" lon="20.45157"><ele>118.5</ele><time>2026-05-02T14:02:52.739Z</time></trkpt><trkpt lat="39.3195192" lon="20.4512463"><ele>121.0</ele><time>2026-05-02T14:02:53.74Z</time></trkpt><trkpt lat="39.3194775" lon="20.4509285"><ele>121.0</ele><time>2026-05-02T14:02:54.74Z</time></trkpt><trkpt lat="39.3194325" lon="20.4506113"><ele>121.0</ele><time>2026-05-02T14:02:55.739Z</time></trkpt><trkpt lat="39.3193907" lon="20.4502986"><ele>120.5</ele><time>2026-05-02T14:02:56.74Z</time></trkpt><trkpt lat="39.3193461" lon="20.4499853"><ele>120.0</ele><time>2026-05-02T14:02:57.739Z</time></trkpt><trkpt lat="39.3193048" lon="20.4496775"><ele>119.5</ele><time>2026-05-02T14:02:58.739Z</time></trkpt><trkpt lat="39.3192635" lon="20.4493831"><ele>119.0</ele><time>2026-05-02T14:02:59.739Z</time></trkpt><trkpt lat="39.3192253" lon="20.4490942"><ele>119.0</ele><time>2026-05-02T14:03:00.74Z</time></trkpt><trkpt lat="39.3191936" lon="20.4488053"><ele>119.0</ele><time>2026-05-02T14:03:01.739Z</time></trkpt><trkpt lat="39.3191767" lon="20.4485151"><ele>118.66666666666666</ele><time>2026-05-02T14:03:02.739Z</time></trkpt><trkpt lat="39.3191674" lon="20.4482299"><ele>118.33333333333334</ele><time>2026-05-02T14:03:03.74Z</time></trkpt><trkpt lat="39.3191684" lon="20.4479594"><ele>118.0</ele><time>2026-05-02T14:03:04.739Z</time></trkpt><trkpt lat="39.3191733" lon="20.4477052"><ele>117.33333333333334</ele><time>2026-05-02T14:03:05.74Z</time></trkpt><trkpt lat="39.3191899" lon="20.4474621"><ele>116.66666666666666</ele><time>2026-05-02T14:03:06.739Z</time></trkpt><trkpt lat="39.3192077" lon="20.4472346"><ele>116.0</ele><time>2026-05-02T14:03:07.739Z</time></trkpt><trkpt lat="39.3192333" lon="20.4470268"><ele>116.0</ele><time>2026-05-02T14:03:08.74Z</time></trkpt><trkpt lat="39.3192603" lon="20.4468471"><ele>116.0</ele><time>2026-05-02T14:03:09.74Z</time></trkpt><trkpt lat="39.3192855" lon="20.4466935"><ele>116.0</ele><time>2026-05-02T14:03:10.74Z</time></trkpt><trkpt lat="39.3193071" lon="20.4465707"><ele>116.0</ele><time>2026-05-02T14:03:11.74Z</time></trkpt><trkpt lat="39.3193099" lon="20.4464717"><ele>116.0</ele><time>2026-05-02T14:03:12.739Z</time></trkpt><trkpt lat="39.3192876" lon="20.4463929"><ele>116.0</ele><time>2026-05-02T14:03:13.74Z</time></trkpt><trkpt lat="39.3191871" lon="20.4463143"><ele>116.0</ele><time>2026-05-02T14:03:15.739Z</time></trkpt><trkpt lat="39.3191131" lon="20.4462806"><ele>116.0</ele><time>2026-05-02T14:03:16.74Z</time></trkpt><trkpt lat="39.319025" lon="20.4462309"><ele>116.0</ele><time>2026-05-02T14:03:17.74Z</time></trkpt><trkpt lat="39.3189508" lon="20.4461519"><ele>116.0</ele><time>2026-05-02T14:03:18.739Z</time></trkpt><trkpt lat="39.3189047" lon="20.4460413"><ele>115.5</ele><time>2026-05-02T14:03:19.74Z</time></trkpt><trkpt lat="39.3188938" lon="20.4459188"><ele>115.0</ele><time>2026-05-02T14:03:20.739Z</time></trkpt><trkpt lat="39.3189201" lon="20.4457907"><ele>114.5</ele><time>2026-05-02T14:03:21.74Z</time></trkpt><trkpt lat="39.3189938" lon="20.445659"><ele>114.0</ele><time>2026-05-02T14:03:22.74Z</time></trkpt><trkpt lat="39.319086" lon="20.445533"><ele>113.0</ele><time>2026-05-02T14:03:23.74Z</time></trkpt><trkpt lat="39.3191865" lon="20.4453976"><ele>112.0</ele><time>2026-05-02T14:03:24.739Z</time></trkpt><trkpt lat="39.3192842" lon="20.4452398"><ele>111.0</ele><time>2026-05-02T14:03:25.74Z</time></trkpt><trkpt lat="39.3193703" lon="20.4450728"><ele>111.0</ele><time>2026-05-02T14:03:26.739Z</time></trkpt><trkpt lat="39.3194491" lon="20.4449055"><ele>111.0</ele><time>2026-05-02T14:03:27.74Z</time></trkpt><trkpt lat="39.3195115" lon="20.4447394"><ele>111.0</ele><time>2026-05-02T14:03:28.739Z</time></trkpt><trkpt lat="39.3195668" lon="20.444579"><ele>111.0</ele><time>2026-05-02T14:03:29.739Z</time></trkpt><trkpt lat="39.3196108" lon="20.4444159"><ele>111.25</ele><time>2026-05-02T14:03:30.739Z</time></trkpt><trkpt lat="39.3196375" lon="20.4442549"><ele>111.5</ele><time>2026-05-02T14:03:31.739Z</time></trkpt><trkpt lat="39.3196452" lon="20.4441038"><ele>111.75</ele><time>2026-05-02T14:03:32.739Z</time></trkpt><trkpt lat="39.3196259" lon="20.4439526"><ele>112.0</ele><time>2026-05-02T14:03:33.739Z</time></trkpt><trkpt lat="39.3196044" lon="20.4437922"><ele>113.25</ele><time>2026-05-02T14:03:34.739Z</time></trkpt><trkpt lat="39.3195938" lon="20.4436198"><ele>114.5</ele><time>2026-05-02T14:03:35.739Z</time></trkpt><trkpt lat="39.3195946" lon="20.4434457"><ele>115.75</ele><time>2026-05-02T14:03:36.74Z</time></trkpt><trkpt lat="39.3195967" lon="20.4432764"><ele>117.0</ele><time>2026-05-02T14:03:37.739Z</time></trkpt><trkpt lat="39.3195962" lon="20.4431138"><ele>117.0</ele><time>2026-05-02T14:03:38.74Z</time></trkpt><trkpt lat="39.3195752" lon="20.442968"><ele>117.0</ele><time>2026-05-02T14:03:39.739Z</time></trkpt><trkpt lat="39.3195392" lon="20.4428365"><ele>117.0</ele><time>2026-05-02T14:03:40.739Z</time></trkpt><trkpt lat="39.3194812" lon="20.442715"><ele>117.0</ele><time>2026-05-02T14:03:41.74Z</time></trkpt><trkpt lat="39.319401" lon="20.4426055"><ele>116.0</ele><time>2026-05-02T14:03:42.739Z</time></trkpt><trkpt lat="39.3193065" lon="20.442509"><ele>115.0</ele><time>2026-05-02T14:03:43.74Z</time></trkpt><trkpt lat="39.3192043" lon="20.4424166"><ele>114.0</ele><time>2026-05-02T14:03:44.74Z</time></trkpt><trkpt lat="39.3191046" lon="20.4423284"><ele>113.0</ele><time>2026-05-02T14:03:45.74Z</time></trkpt><trkpt lat="39.3190067" lon="20.4422419"><ele>113.0</ele><time>2026-05-02T14:03:46.739Z</time></trkpt><trkpt lat="39.3189109" lon="20.4421556"><ele>113.0</ele><time>2026-05-02T14:03:47.739Z</time></trkpt><trkpt lat="39.3188157" lon="20.4420706"><ele>113.0</ele><time>2026-05-02T14:03:48.739Z</time></trkpt><trkpt lat="39.3187175" lon="20.4419876"><ele>113.0</ele><time>2026-05-02T14:03:49.74Z</time></trkpt><trkpt lat="39.3186125" lon="20.441902"><ele>114.0</ele><time>2026-05-02T14:03:50.739Z</time></trkpt><trkpt lat="39.3185168" lon="20.4418032"><ele>115.0</ele><time>2026-05-02T14:03:51.739Z</time></trkpt><trkpt lat="39.3184199" lon="20.4417012"><ele>116.0</ele><time>2026-05-02T14:03:52.74Z</time></trkpt><trkpt lat="39.318319" lon="20.4416074"><ele>117.0</ele><time>2026-05-02T14:03:53.739Z</time></trkpt><trkpt lat="39.3182103" lon="20.4415271"><ele>117.0</ele><time>2026-05-02T14:03:54.739Z</time></trkpt><trkpt lat="39.318096" lon="20.4414614"><ele>117.0</ele><time>2026-05-02T14:03:55.739Z</time></trkpt><trkpt lat="39.317978" lon="20.4414123"><ele>117.0</ele><time>2026-05-02T14:03:56.739Z</time></trkpt><trkpt lat="39.3178634" lon="20.4413765"><ele>117.0</ele><time>2026-05-02T14:03:57.739Z</time></trkpt><trkpt lat="39.3177466" lon="20.4413667"><ele>118.75</ele><time>2026-05-02T14:03:58.74Z</time></trkpt><trkpt lat="39.317634" lon="20.4413605"><ele>120.5</ele><time>2026-05-02T14:03:59.739Z</time></trkpt><trkpt lat="39.3175245" lon="20.4413552"><ele>122.25</ele><time>2026-05-02T14:04:00.74Z</time></trkpt><trkpt lat="39.3174109" lon="20.4413474"><ele>124.0</ele><time>2026-05-02T14:04:01.74Z</time></trkpt><trkpt lat="39.3172919" lon="20.4413431"><ele>123.25</ele><time>2026-05-02T14:04:02.739Z</time></trkpt><trkpt lat="39.3171772" lon="20.4413482"><ele>122.5</ele><time>2026-05-02T14:04:03.739Z</time></trkpt><trkpt lat="39.3170649" lon="20.4413717"><ele>121.75</ele><time>2026-05-02T14:04:04.74Z</time></trkpt><trkpt lat="39.3169575" lon="20.4414132"><ele>121.0</ele><time>2026-05-02T14:04:05.74Z</time></trkpt><trkpt lat="39.3168497" lon="20.4414662"><ele>121.0</ele><time>2026-05-02T14:04:06.74Z</time></trkpt><trkpt lat="39.3167464" lon="20.4415249"><ele>121.0</ele><time>2026-05-02T14:04:07.739Z</time></trkpt><trkpt lat="39.3166377" lon="20.441591"><ele>121.0</ele><time>2026-05-02T14:04:08.74Z</time></trkpt><trkpt lat="39.3165262" lon="20.441665"><ele>121.0</ele><time>2026-05-02T14:04:09.739Z</time></trkpt><trkpt lat="39.3164144" lon="20.4417487"><ele>121.0</ele><time>2026-05-02T14:04:10.74Z</time></trkpt><trkpt lat="39.3162914" lon="20.4418577"><ele>121.0</ele><time>2026-05-02T14:04:11.74Z</time></trkpt><trkpt lat="39.3161561" lon="20.4419895"><ele>121.0</ele><time>2026-05-02T14:04:12.739Z</time></trkpt><trkpt lat="39.3160224" lon="20.4421372"><ele>121.0</ele><time>2026-05-02T14:04:13.74Z</time></trkpt><trkpt lat="39.3158909" lon="20.4422859"><ele>121.0</ele><time>2026-05-02T14:04:14.739Z</time></trkpt><trkpt lat="39.3157662" lon="20.4424243"><ele>121.0</ele><time>2026-05-02T14:04:15.739Z</time></trkpt><trkpt lat="39.3156497" lon="20.4425509"><ele>120.25</ele><time>2026-05-02T14:04:16.739Z</time></trkpt><trkpt lat="39.3155409" lon="20.4426607"><ele>119.5</ele><time>2026-05-02T14:04:17.739Z</time></trkpt><trkpt lat="39.315437" lon="20.4427536"><ele>118.75</ele><time>2026-05-02T14:04:18.74Z</time></trkpt><trkpt lat="39.3153367" lon="20.4428226"><ele>118.0</ele><time>2026-05-02T14:04:19.74Z</time></trkpt><trkpt lat="39.3152405" lon="20.442859"><ele>118.0</ele><time>2026-05-02T14:04:20.739Z</time></trkpt><trkpt lat="39.3151481" lon="20.4428663"><ele>118.00000000000001</ele><time>2026-05-02T14:04:21.74Z</time></trkpt><trkpt lat="39.315061" lon="20.4428497"><ele>118.00000000000001</ele><time>2026-05-02T14:04:22.74Z</time></trkpt><trkpt lat="39.3149764" lon="20.4428178"><ele>118.0</ele><time>2026-05-02T14:04:23.74Z</time></trkpt><trkpt lat="39.3148865" lon="20.4427822"><ele>118.0</ele><time>2026-05-02T14:04:24.739Z</time></trkpt><trkpt lat="39.3147962" lon="20.4427323"><ele>120.4</ele><time>2026-05-02T14:04:25.74Z</time></trkpt><trkpt lat="39.3147122" lon="20.4426724"><ele>122.80000000000001</ele><time>2026-05-02T14:04:26.74Z</time></trkpt><trkpt lat="39.3146238" lon="20.4425926"><ele>125.2</ele><time>2026-05-02T14:04:27.74Z</time></trkpt><trkpt lat="39.3145338" lon="20.4425039"><ele>127.6</ele><time>2026-05-02T14:04:28.74Z</time></trkpt><trkpt lat="39.3144429" lon="20.4424102"><ele>130.0</ele><time>2026-05-02T14:04:29.739Z</time></trkpt><trkpt lat="39.3143479" lon="20.44231"><ele>130.0</ele><time>2026-05-02T14:04:30.74Z</time></trkpt><trkpt lat="39.3142532" lon="20.4422061"><ele>130.0</ele><time>2026-05-02T14:04:31.74Z</time></trkpt><trkpt lat="39.3141637" lon="20.4421023"><ele>130.0</ele><time>2026-05-02T14:04:32.74Z</time></trkpt><trkpt lat="39.3140768" lon="20.441995"><ele>130.0</ele><time>2026-05-02T14:04:33.74Z</time></trkpt><trkpt lat="39.3139906" lon="20.4418916"><ele>128.4</ele><time>2026-05-02T14:04:34.739Z</time></trkpt><trkpt lat="39.3139064" lon="20.4417934"><ele>126.8</ele><time>2026-05-02T14:04:35.739Z</time></trkpt><trkpt lat="39.3138288" lon="20.4416941"><ele>125.19999999999999</ele><time>2026-05-02T14:04:36.74Z</time></trkpt><trkpt lat="39.3137518" lon="20.4415963"><ele>123.6</ele><time>2026-05-02T14:04:37.739Z</time></trkpt><trkpt lat="39.3136749" lon="20.4415052"><ele>122.0</ele><time>2026-05-02T14:04:38.739Z</time></trkpt><trkpt lat="39.313592" lon="20.4414214"><ele>123.0</ele><time>2026-05-02T14:04:39.739Z</time></trkpt><trkpt lat="39.3135064" lon="20.4413419"><ele>123.99999999999999</ele><time>2026-05-02T14:04:40.739Z</time></trkpt><trkpt lat="39.3134231" lon="20.4412704"><ele>124.99999999999999</ele><time>2026-05-02T14:04:41.739Z</time></trkpt><trkpt lat="39.3133436" lon="20.4412007"><ele>126.0</ele><time>2026-05-02T14:04:42.74Z</time></trkpt><trkpt lat="39.3132729" lon="20.4411346"><ele>127.0</ele><time>2026-05-02T14:04:43.74Z</time></trkpt><trkpt lat="39.3132314" lon="20.4410537"><ele>127.0</ele><time>2026-05-02T14:04:44.74Z</time></trkpt><trkpt lat="39.313204" lon="20.440954"><ele>126.99999999999999</ele><time>2026-05-02T14:04:45.739Z</time></trkpt><trkpt lat="39.3132009" lon="20.440844"><ele>126.99999999999999</ele><time>2026-05-02T14:04:46.74Z</time></trkpt><trkpt lat="39.3132147" lon="20.4407158"><ele>127.0</ele><time>2026-05-02T14:04:47.74Z</time></trkpt><trkpt lat="39.3132477" lon="20.440577"><ele>127.0</ele><time>2026-05-02T14:04:48.74Z</time></trkpt><trkpt lat="39.31329" lon="20.4404288"><ele>126.75</ele><time>2026-05-02T14:04:49.74Z</time></trkpt><trkpt lat="39.313338" lon="20.4402791"><ele>126.5</ele><time>2026-05-02T14:04:50.739Z</time></trkpt><trkpt lat="39.3133901" lon="20.440127"><ele>126.25</ele><time>2026-05-02T14:04:51.739Z</time></trkpt><trkpt lat="39.3134405" lon="20.4399799"><ele>126.0</ele><time>2026-05-02T14:04:52.74Z</time></trkpt><trkpt lat="39.3134855" lon="20.4398409"><ele>126.0</ele><time>2026-05-02T14:04:53.739Z</time></trkpt><trkpt lat="39.3135262" lon="20.4397156"><ele>126.0</ele><time>2026-05-02T14:04:54.74Z</time></trkpt><trkpt lat="39.3135583" lon="20.4395921"><ele>126.0</ele><time>2026-05-02T14:04:55.739Z</time></trkpt><trkpt lat="39.31358" lon="20.439466"><ele>126.0</ele><time>2026-05-02T14:04:56.739Z</time></trkpt><trkpt lat="39.3135823" lon="20.4393328"><ele>126.0</ele><time>2026-05-02T14:04:57.739Z</time></trkpt><trkpt lat="39.3135548" lon="20.4391991"><ele>126.0</ele><time>2026-05-02T14:04:58.74Z</time></trkpt><trkpt lat="39.3135086" lon="20.4390682"><ele>126.0</ele><time>2026-05-02T14:04:59.74Z</time></trkpt><trkpt lat="39.3134485" lon="20.4389399"><ele>126.0</ele><time>2026-05-02T14:05:00.74Z</time></trkpt><trkpt lat="39.3133849" lon="20.4388064"><ele>126.0</ele><time>2026-05-02T14:05:01.74Z</time></trkpt><trkpt lat="39.3133179" lon="20.4386701"><ele>126.0</ele><time>2026-05-02T14:05:02.74Z</time></trkpt><trkpt lat="39.3132552" lon="20.4385391"><ele>126.0</ele><time>2026-05-02T14:05:03.74Z</time></trkpt><trkpt lat="39.313192" lon="20.4384125"><ele>126.0</ele><time>2026-05-02T14:05:04.74Z</time></trkpt><trkpt lat="39.3131334" lon="20.4382943"><ele>126.0</ele><time>2026-05-02T14:05:05.74Z</time></trkpt><trkpt lat="39.3130806" lon="20.4381775"><ele>126.0</ele><time>2026-05-02T14:05:06.74Z</time></trkpt><trkpt lat="39.3130506" lon="20.4380571"><ele>126.0</ele><time>2026-05-02T14:05:07.74Z</time></trkpt><trkpt lat="39.3130477" lon="20.4379291"><ele>126.0</ele><time>2026-05-02T14:05:08.74Z</time></trkpt><trkpt lat="39.3130684" lon="20.4377917"><ele>126.0</ele><time>2026-05-02T14:05:09.739Z</time></trkpt><trkpt lat="39.3130959" lon="20.4376424"><ele>126.0</ele><time>2026-05-02T14:05:10.739Z</time></trkpt><trkpt lat="39.3131237" lon="20.4374847"><ele>126.0</ele><time>2026-05-02T14:05:11.74Z</time></trkpt><trkpt lat="39.3131536" lon="20.4373269"><ele>126.0</ele><time>2026-05-02T14:05:12.739Z</time></trkpt><trkpt lat="39.3131843" lon="20.437172"><ele>126.0</ele><time>2026-05-02T14:05:13.74Z</time></trkpt><trkpt lat="39.3132132" lon="20.4370205"><ele>126.0</ele><time>2026-05-02T14:05:14.74Z</time></trkpt><trkpt lat="39.3132368" lon="20.4368732"><ele>126.0</ele><time>2026-05-02T14:05:15.739Z</time></trkpt><trkpt lat="39.3132668" lon="20.4367205"><ele>126.0</ele><time>2026-05-02T14:05:16.739Z</time></trkpt><trkpt lat="39.3132941" lon="20.4365732"><ele>126.0</ele><time>2026-05-02T14:05:17.74Z</time></trkpt><trkpt lat="39.3133222" lon="20.4364361"><ele>126.0</ele><time>2026-05-02T14:05:18.739Z</time></trkpt><trkpt lat="39.3133449" lon="20.4363012"><ele>126.4</ele><time>2026-05-02T14:05:19.739Z</time></trkpt><trkpt lat="39.3133666" lon="20.4361717"><ele>126.8</ele><time>2026-05-02T14:05:20.74Z</time></trkpt><trkpt lat="39.3133903" lon="20.4360402"><ele>127.20000000000002</ele><time>2026-05-02T14:05:21.739Z</time></trkpt><trkpt lat="39.313422" lon="20.4359163"><ele>127.60000000000001</ele><time>2026-05-02T14:05:22.74Z</time></trkpt><trkpt lat="39.3134625" lon="20.4357893"><ele>128.0</ele><time>2026-05-02T14:05:23.74Z</time></trkpt><trkpt lat="39.3135092" lon="20.4356623"><ele>128.0</ele><time>2026-05-02T14:05:24.739Z</time></trkpt><trkpt lat="39.3135623" lon="20.4355281"><ele>128.0</ele><time>2026-05-02T14:05:25.74Z</time></trkpt><trkpt lat="39.3136202" lon="20.435388"><ele>128.0</ele><time>2026-05-02T14:05:26.74Z</time></trkpt><trkpt lat="39.3136775" lon="20.4352493"><ele>128.0</ele><time>2026-05-02T14:05:27.74Z</time></trkpt><trkpt lat="39.313734" lon="20.4351186"><ele>128.5</ele><time>2026-05-02T14:05:28.739Z</time></trkpt><trkpt lat="39.3138032" lon="20.4349979"><ele>129.0</ele><time>2026-05-02T14:05:29.74Z</time></trkpt><trkpt lat="39.3138809" lon="20.4348886"><ele>129.5</ele><time>2026-05-02T14:05:30.739Z</time></trkpt><trkpt lat="39.3139647" lon="20.4347844"><ele>130.0</ele><time>2026-05-02T14:05:31.739Z</time></trkpt><trkpt lat="39.3140426" lon="20.4346674"><ele>128.75</ele><time>2026-05-02T14:05:32.739Z</time></trkpt><trkpt lat="39.3141032" lon="20.4345454"><ele>127.5</ele><time>2026-05-02T14:05:33.739Z</time></trkpt><trkpt lat="39.3141592" lon="20.4344108"><ele>126.25</ele><time>2026-05-02T14:05:34.739Z</time></trkpt><trkpt lat="39.3142084" lon="20.4342714"><ele>125.0</ele><time>2026-05-02T14:05:35.739Z</time></trkpt><trkpt lat="39.3142544" lon="20.4341224"><ele>125.0</ele><time>2026-05-02T14:05:36.739Z</time></trkpt><trkpt lat="39.3142843" lon="20.4339753"><ele>125.0</ele><time>2026-05-02T14:05:37.739Z</time></trkpt><trkpt lat="39.3143196" lon="20.4338327"><ele>125.0</ele><time>2026-05-02T14:05:38.74Z</time></trkpt><trkpt lat="39.3143569" lon="20.4336902"><ele>125.0</ele><time>2026-05-02T14:05:39.74Z</time></trkpt><trkpt lat="39.3143842" lon="20.4335431"><ele>125.5</ele><time>2026-05-02T14:05:40.74Z</time></trkpt><trkpt lat="39.3143961" lon="20.4333862"><ele>126.0</ele><time>2026-05-02T14:05:41.739Z</time></trkpt><trkpt lat="39.314402" lon="20.4332317"><ele>126.5</ele><time>2026-05-02T14:05:42.74Z</time></trkpt><trkpt lat="39.3144127" lon="20.4330815"><ele>127.0</ele><time>2026-05-02T14:05:43.74Z</time></trkpt><trkpt lat="39.3144363" lon="20.4329424"><ele>127.66666666666667</ele><time>2026-05-02T14:05:44.74Z</time></trkpt><trkpt lat="39.3144699" lon="20.4328162"><ele>128.33333333333334</ele><time>2026-05-02T14:05:45.739Z</time></trkpt><trkpt lat="39.3145086" lon="20.4327099"><ele>129.0</ele><time>2026-05-02T14:05:46.74Z</time></trkpt><trkpt lat="39.314544" lon="20.4326314"><ele>129.66666666666666</ele><time>2026-05-02T14:05:47.74Z</time></trkpt><trkpt lat="39.3145958" lon="20.4325217"><ele>130.33333333333331</ele><time>2026-05-02T14:05:49.739Z</time></trkpt><trkpt lat="39.3146456" lon="20.4324468"><ele>131.0</ele><time>2026-05-02T14:05:52.74Z</time></trkpt><trkpt lat="39.3147008" lon="20.4323636"><ele>130.6</ele><time>2026-05-02T14:07:41.74Z</time></trkpt><trkpt lat="39.3147755" lon="20.4322818"><ele>130.2</ele><time>2026-05-02T14:07:43.739Z</time></trkpt><trkpt lat="39.31485" lon="20.4321934"><ele>129.8</ele><time>2026-05-02T14:07:45.74Z</time></trkpt><trkpt lat="39.3149247" lon="20.432103"><ele>129.4</ele><time>2026-05-02T14:07:47.739Z</time></trkpt><trkpt lat="39.3149784" lon="20.4320112"><ele>129.0</ele><time>2026-05-02T14:07:49.739Z</time></trkpt><trkpt lat="39.3150203" lon="20.4319329"><ele>128.99999999999997</ele><time>2026-05-02T14:07:51.739Z</time></trkpt><trkpt lat="39.3150605" lon="20.431865"><ele>129.0</ele><time>2026-05-02T14:07:53.74Z</time></trkpt><trkpt lat="39.3150922" lon="20.4317892"><ele>129.0</ele><time>2026-05-02T14:07:55.74Z</time></trkpt><trkpt lat="39.3151148" lon="20.4317122"><ele>129.0</ele><time>2026-05-02T14:07:57.74Z</time></trkpt><trkpt lat="39.315167" lon="20.431664"><ele>129.0</ele><time>2026-05-02T14:08:00.74Z</time></trkpt><trkpt lat="39.3151912" lon="20.4317476"><ele>128.99999999999997</ele><time>2026-05-02T14:08:03.74Z</time></trkpt><trkpt lat="39.3150991" lon="20.4318342"><ele>129.0</ele><time>2026-05-02T14:08:05.74Z</time></trkpt><trkpt lat="39.3150482" lon="20.431892"><ele>129.0</ele><time>2026-05-02T14:08:06.739Z</time></trkpt><trkpt lat="39.3149975" lon="20.4319604"><ele>129.0</ele><time>2026-05-02T14:08:07.74Z</time></trkpt><trkpt lat="39.3149426" lon="20.4320375"><ele>129.0</ele><time>2026-05-02T14:08:08.739Z</time></trkpt><trkpt lat="39.314885" lon="20.4321204"><ele>129.0</ele><time>2026-05-02T14:08:09.739Z</time></trkpt><trkpt lat="39.3148271" lon="20.4321974"><ele>129.0</ele><time>2026-05-02T14:08:10.739Z</time></trkpt><trkpt lat="39.3147639" lon="20.4322704"><ele>129.0</ele><time>2026-05-02T14:08:11.74Z</time></trkpt><trkpt lat="39.3146951" lon="20.4323465"><ele>129.4</ele><time>2026-05-02T14:08:12.739Z</time></trkpt><trkpt lat="39.3146293" lon="20.432438"><ele>129.8</ele><time>2026-05-02T14:08:13.74Z</time></trkpt><trkpt lat="39.3145708" lon="20.4325419"><ele>130.2</ele><time>2026-05-02T14:08:14.74Z</time></trkpt><trkpt lat="39.3145162" lon="20.4326514"><ele>130.6</ele><time>2026-05-02T14:08:15.74Z</time></trkpt><trkpt lat="39.3144663" lon="20.4327691"><ele>131.0</ele><time>2026-05-02T14:08:16.739Z</time></trkpt><trkpt lat="39.3144313" lon="20.432903"><ele>130.0</ele><time>2026-05-02T14:08:17.74Z</time></trkpt><trkpt lat="39.3144098" lon="20.4330484"><ele>129.0</ele><time>2026-05-02T14:08:18.739Z</time></trkpt><trkpt lat="39.3143982" lon="20.4331987"><ele>128.0</ele><time>2026-05-02T14:08:19.739Z</time></trkpt><trkpt lat="39.3143917" lon="20.4333522"><ele>127.0</ele><time>2026-05-02T14:08:20.739Z</time></trkpt><trkpt lat="39.314374" lon="20.433503"><ele>127.0</ele><time>2026-05-02T14:08:21.739Z</time></trkpt><trkpt lat="39.3143441" lon="20.4336586"><ele>127.0</ele><time>2026-05-02T14:08:22.739Z</time></trkpt><trkpt lat="39.3143078" lon="20.4338152"><ele>127.0</ele><time>2026-05-02T14:08:23.74Z</time></trkpt><trkpt lat="39.3142737" lon="20.4339714"><ele>127.0</ele><time>2026-05-02T14:08:24.74Z</time></trkpt><trkpt lat="39.3142384" lon="20.4341266"><ele>126.5</ele><time>2026-05-02T14:08:25.74Z</time></trkpt><trkpt lat="39.314197" lon="20.4342729"><ele>126.0</ele><time>2026-05-02T14:08:26.74Z</time></trkpt><trkpt lat="39.3141471" lon="20.4344073"><ele>125.5</ele><time>2026-05-02T14:08:27.74Z</time></trkpt><trkpt lat="39.3140906" lon="20.4345347"><ele>125.0</ele><time>2026-05-02T14:08:28.739Z</time></trkpt><trkpt lat="39.3140297" lon="20.4346551"><ele>124.5</ele><time>2026-05-02T14:08:29.74Z</time></trkpt><trkpt lat="39.3139577" lon="20.4347569"><ele>124.0</ele><time>2026-05-02T14:08:30.739Z</time></trkpt><trkpt lat="39.3138756" lon="20.4348606"><ele>123.5</ele><time>2026-05-02T14:08:31.739Z</time></trkpt><trkpt lat="39.3137984" lon="20.4349729"><ele>123.0</ele><time>2026-05-02T14:08:32.74Z</time></trkpt><trkpt lat="39.3137316" lon="20.4350972"><ele>124.25</ele><time>2026-05-02T14:08:33.74Z</time></trkpt><trkpt lat="39.3136782" lon="20.4352358"><ele>125.5</ele><time>2026-05-02T14:08:34.739Z</time></trkpt><trkpt lat="39.3136218" lon="20.4353734"><ele>126.75</ele><time>2026-05-02T14:08:35.74Z</time></trkpt><trkpt lat="39.3135714" lon="20.4355011"><ele>128.0</ele><time>2026-05-02T14:08:36.74Z</time></trkpt><trkpt lat="39.3135236" lon="20.43562"><ele>128.0</ele><time>2026-05-02T14:08:37.74Z</time></trkpt><trkpt lat="39.3134753" lon="20.4357336"><ele>128.0</ele><time>2026-05-02T14:08:38.739Z</time></trkpt><trkpt lat="39.3134287" lon="20.4358542"><ele>128.0</ele><time>2026-05-02T14:08:39.74Z</time></trkpt><trkpt lat="39.3133918" lon="20.435984"><ele>128.0</ele><time>2026-05-02T14:08:40.739Z</time></trkpt><trkpt lat="39.313358" lon="20.436127"><ele>128.0</ele><time>2026-05-02T14:08:41.74Z</time></trkpt><trkpt lat="39.3133296" lon="20.4362799"><ele>127.5</ele><time>2026-05-02T14:08:42.74Z</time></trkpt><trkpt lat="39.3133014" lon="20.4364384"><ele>127.0</ele><time>2026-05-02T14:08:43.739Z</time></trkpt><trkpt lat="39.3132691" lon="20.436596"><ele>126.5</ele><time>2026-05-02T14:08:44.74Z</time></trkpt><trkpt lat="39.3132403" lon="20.4367526"><ele>126.0</ele><time>2026-05-02T14:08:45.739Z</time></trkpt><trkpt lat="39.3132136" lon="20.4369094"><ele>126.0</ele><time>2026-05-02T14:08:46.739Z</time></trkpt><trkpt lat="39.3131872" lon="20.4370643"><ele>126.0</ele><time>2026-05-02T14:08:47.74Z</time></trkpt><trkpt lat="39.3131612" lon="20.4372219"><ele>126.0</ele><time>2026-05-02T14:08:48.739Z</time></trkpt><trkpt lat="39.313137" lon="20.4373732"><ele>126.0</ele><time>2026-05-02T14:08:49.74Z</time></trkpt><trkpt lat="39.3131085" lon="20.437514"><ele>126.0</ele><time>2026-05-02T14:08:50.74Z</time></trkpt><trkpt lat="39.3130839" lon="20.4376475"><ele>126.0</ele><time>2026-05-02T14:08:51.74Z</time></trkpt><trkpt lat="39.3130609" lon="20.4377757"><ele>126.0</ele><time>2026-05-02T14:08:52.739Z</time></trkpt><trkpt lat="39.3130409" lon="20.4379033"><ele>126.0</ele><time>2026-05-02T14:08:53.74Z</time></trkpt><trkpt lat="39.3130344" lon="20.4380307"><ele>126.0</ele><time>2026-05-02T14:08:54.74Z</time></trkpt><trkpt lat="39.3130554" lon="20.4381548"><ele>126.0</ele><time>2026-05-02T14:08:55.739Z</time></trkpt><trkpt lat="39.3130998" lon="20.4382768"><ele>126.0</ele><time>2026-05-02T14:08:56.739Z</time></trkpt><trkpt lat="39.3131578" lon="20.4383976"><ele>126.0</ele><time>2026-05-02T14:08:57.739Z</time></trkpt><trkpt lat="39.3132201" lon="20.4385238"><ele>126.0</ele><time>2026-05-02T14:08:58.74Z</time></trkpt><trkpt lat="39.3132828" lon="20.4386586"><ele>126.0</ele><time>2026-05-02T14:08:59.739Z</time></trkpt><trkpt lat="39.3133495" lon="20.4387953"><ele>126.0</ele><time>2026-05-02T14:09:00.739Z</time></trkpt><trkpt lat="39.3134147" lon="20.4389301"><ele>126.0</ele><time>2026-05-02T14:09:01.74Z</time></trkpt><trkpt lat="39.313475" lon="20.4390572"><ele>126.0</ele><time>2026-05-02T14:09:02.74Z</time></trkpt><trkpt lat="39.3135198" lon="20.4391819"><ele>126.0</ele><time>2026-05-02T14:09:03.739Z</time></trkpt><trkpt lat="39.3135464" lon="20.4393148"><ele>126.0</ele><time>2026-05-02T14:09:04.739Z</time></trkpt><trkpt lat="39.3135583" lon="20.4394572"><ele>126.0</ele><time>2026-05-02T14:09:05.739Z</time></trkpt><trkpt lat="39.3135373" lon="20.439599"><ele>126.0</ele><time>2026-05-02T14:09:06.74Z</time></trkpt><trkpt lat="39.3134933" lon="20.4397524"><ele>126.0</ele><time>2026-05-02T14:09:07.739Z</time></trkpt><trkpt lat="39.3134382" lon="20.4399139"><ele>126.0</ele><time>2026-05-02T14:09:08.74Z</time></trkpt><trkpt lat="39.3133803" lon="20.4400799"><ele>126.0</ele><time>2026-05-02T14:09:09.74Z</time></trkpt><trkpt lat="39.3133279" lon="20.4402402"><ele>126.0</ele><time>2026-05-02T14:09:10.74Z</time></trkpt><trkpt lat="39.3132764" lon="20.4403922"><ele>126.19999999999999</ele><time>2026-05-02T14:09:11.74Z</time></trkpt><trkpt lat="39.3132288" lon="20.4405365"><ele>126.39999999999999</ele><time>2026-05-02T14:09:12.739Z</time></trkpt><trkpt lat="39.313191" lon="20.4406675"><ele>126.6</ele><time>2026-05-02T14:09:13.74Z</time></trkpt><trkpt lat="39.3131621" lon="20.4407881"><ele>126.8</ele><time>2026-05-02T14:09:14.739Z</time></trkpt><trkpt lat="39.3131575" lon="20.440904"><ele>127.0</ele><time>2026-05-02T14:09:15.74Z</time></trkpt><trkpt lat="39.3131766" lon="20.4410139"><ele>127.0</ele><time>2026-05-02T14:09:16.739Z</time></trkpt><trkpt lat="39.3132258" lon="20.4411149"><ele>127.0</ele><time>2026-05-02T14:09:17.74Z</time></trkpt><trkpt lat="39.3133101" lon="20.4412184"><ele>127.0</ele><time>2026-05-02T14:09:18.739Z</time></trkpt><trkpt lat="39.3134122" lon="20.4413128"><ele>127.0</ele><time>2026-05-02T14:09:19.739Z</time></trkpt><trkpt lat="39.3135214" lon="20.4414125"><ele>125.75</ele><time>2026-05-02T14:09:20.739Z</time></trkpt><trkpt lat="39.3136299" lon="20.4415253"><ele>124.5</ele><time>2026-05-02T14:09:21.74Z</time></trkpt><trkpt lat="39.3137412" lon="20.4416517"><ele>123.25</ele><time>2026-05-02T14:09:22.739Z</time></trkpt><trkpt lat="39.31385" lon="20.4417907"><ele>122.0</ele><time>2026-05-02T14:09:23.74Z</time></trkpt><trkpt lat="39.3139637" lon="20.4419311"><ele>122.0</ele><time>2026-05-02T14:09:24.739Z</time></trkpt><trkpt lat="39.3140799" lon="20.442067"><ele>122.0</ele><time>2026-05-02T14:09:25.739Z</time></trkpt><trkpt lat="39.3141958" lon="20.4422018"><ele>122.0</ele><time>2026-05-02T14:09:26.74Z</time></trkpt><trkpt lat="39.3143129" lon="20.4423318"><ele>121.0</ele><time>2026-05-02T14:09:27.74Z</time></trkpt><trkpt lat="39.3144263" lon="20.4424532"><ele>120.0</ele><time>2026-05-02T14:09:28.74Z</time></trkpt><trkpt lat="39.3145336" lon="20.4425644"><ele>119.0</ele><time>2026-05-02T14:09:29.74Z</time></trkpt><trkpt lat="39.3146382" lon="20.442665"><ele>118.0</ele><time>2026-05-02T14:09:30.739Z</time></trkpt><trkpt lat="39.314742" lon="20.4427475"><ele>118.0</ele><time>2026-05-02T14:09:31.74Z</time></trkpt><trkpt lat="39.3148456" lon="20.442808"><ele>118.00000000000001</ele><time>2026-05-02T14:09:32.74Z</time></trkpt><trkpt lat="39.3149481" lon="20.442853"><ele>118.00000000000001</ele><time>2026-05-02T14:09:33.739Z</time></trkpt><trkpt lat="39.3150505" lon="20.4428841"><ele>118.0</ele><time>2026-05-02T14:09:34.739Z</time></trkpt><trkpt lat="39.3151558" lon="20.44289"><ele>118.0</ele><time>2026-05-02T14:09:35.739Z</time></trkpt><trkpt lat="39.3152615" lon="20.4428708"><ele>118.0</ele><time>2026-05-02T14:09:36.74Z</time></trkpt><trkpt lat="39.3153722" lon="20.4428183"><ele>118.0</ele><time>2026-05-02T14:09:37.739Z</time></trkpt><trkpt lat="39.3154871" lon="20.4427349"><ele>118.0</ele><time>2026-05-02T14:09:38.74Z</time></trkpt><trkpt lat="39.3156086" lon="20.4426202"><ele>118.0</ele><time>2026-05-02T14:09:39.74Z</time></trkpt><trkpt lat="39.3157379" lon="20.4424894"><ele>119.0</ele><time>2026-05-02T14:09:40.74Z</time></trkpt><trkpt lat="39.3158656" lon="20.4423464"><ele>120.0</ele><time>2026-05-02T14:09:41.74Z</time></trkpt><trkpt lat="39.3159932" lon="20.4421992"><ele>121.0</ele><time>2026-05-02T14:09:42.74Z</time></trkpt><trkpt lat="39.3161188" lon="20.4420614"><ele>121.0</ele><time>2026-05-02T14:09:43.74Z</time></trkpt><trkpt lat="39.3162463" lon="20.4419322"><ele>121.0</ele><time>2026-05-02T14:09:44.739Z</time></trkpt><trkpt lat="39.3163819" lon="20.4418135"><ele>121.0</ele><time>2026-05-02T14:09:45.739Z</time></trkpt><trkpt lat="39.3165183" lon="20.4417125"><ele>121.0</ele><time>2026-05-02T14:09:46.74Z</time></trkpt><trkpt lat="39.3166588" lon="20.4416194"><ele>121.0</ele><time>2026-05-02T14:09:47.739Z</time></trkpt><trkpt lat="39.3168028" lon="20.4415351"><ele>121.0</ele><time>2026-05-02T14:09:48.74Z</time></trkpt><trkpt lat="39.3169417" lon="20.4414643"><ele>121.0</ele><time>2026-05-02T14:09:49.739Z</time></trkpt><trkpt lat="39.3170787" lon="20.4414059"><ele>121.0</ele><time>2026-05-02T14:09:50.739Z</time></trkpt><trkpt lat="39.317219" lon="20.4413799"><ele>121.0</ele><time>2026-05-02T14:09:51.739Z</time></trkpt><trkpt lat="39.3173635" lon="20.4413719"><ele>121.0</ele><time>2026-05-02T14:09:52.74Z</time></trkpt><trkpt lat="39.3175101" lon="20.4413724"><ele>121.75</ele><time>2026-05-02T14:09:53.74Z</time></trkpt><trkpt lat="39.3176606" lon="20.4413794"><ele>122.5</ele><time>2026-05-02T14:09:54.739Z</time></trkpt><trkpt lat="39.3178085" lon="20.441398"><ele>123.25</ele><time>2026-05-02T14:09:55.74Z</time></trkpt><trkpt lat="39.3179485" lon="20.441431"><ele>124.0</ele><time>2026-05-02T14:09:56.74Z</time></trkpt><trkpt lat="39.3180792" lon="20.4414838"><ele>121.66666666666667</ele><time>2026-05-02T14:09:57.739Z</time></trkpt><trkpt lat="39.3182121" lon="20.4415649"><ele>119.33333333333334</ele><time>2026-05-02T14:09:58.739Z</time></trkpt><trkpt lat="39.3183437" lon="20.4416639"><ele>117.0</ele><time>2026-05-02T14:09:59.739Z</time></trkpt><trkpt lat="39.3184824" lon="20.4417902"><ele>117.0</ele><time>2026-05-02T14:10:00.74Z</time></trkpt><trkpt lat="39.318624" lon="20.4419286"><ele>117.0</ele><time>2026-05-02T14:10:01.74Z</time></trkpt><trkpt lat="39.3187727" lon="20.4420585"><ele>117.0</ele><time>2026-05-02T14:10:02.739Z</time></trkpt><trkpt lat="39.3189152" lon="20.4421827"><ele>115.66666666666666</ele><time>2026-05-02T14:10:03.739Z</time></trkpt><trkpt lat="39.3190524" lon="20.4423018"><ele>114.33333333333333</ele><time>2026-05-02T14:10:04.739Z</time></trkpt><trkpt lat="39.3191779" lon="20.442419"><ele>113.0</ele><time>2026-05-02T14:10:05.74Z</time></trkpt><trkpt lat="39.3192931" lon="20.4425364"><ele>113.0</ele><time>2026-05-02T14:10:06.739Z</time></trkpt><trkpt lat="39.3193948" lon="20.4426721"><ele>113.0</ele><time>2026-05-02T14:10:07.74Z</time></trkpt><trkpt lat="39.3194746" lon="20.4428011"><ele>113.0</ele><time>2026-05-02T14:10:08.74Z</time></trkpt><trkpt lat="39.3195247" lon="20.4429589"><ele>113.0</ele><time>2026-05-02T14:10:09.739Z</time></trkpt><trkpt lat="39.3195588" lon="20.4431351"><ele>114.33333333333333</ele><time>2026-05-02T14:10:10.74Z</time></trkpt><trkpt lat="39.3195707" lon="20.4433247"><ele>115.66666666666666</ele><time>2026-05-02T14:10:11.739Z</time></trkpt><trkpt lat="39.3195633" lon="20.4435204"><ele>117.0</ele><time>2026-05-02T14:10:12.74Z</time></trkpt><trkpt lat="39.319553" lon="20.4437215"><ele>115.75</ele><time>2026-05-02T14:10:13.739Z</time></trkpt><trkpt lat="39.319581" lon="20.4439032"><ele>114.5</ele><time>2026-05-02T14:10:14.739Z</time></trkpt><trkpt lat="39.3195952" lon="20.4440706"><ele>113.25</ele><time>2026-05-02T14:10:15.74Z</time></trkpt><trkpt lat="39.3195891" lon="20.444228"><ele>112.0</ele><time>2026-05-02T14:10:16.74Z</time></trkpt><trkpt lat="39.3195654" lon="20.444388"><ele>112.0</ele><time>2026-05-02T14:10:17.74Z</time></trkpt><trkpt lat="39.319524" lon="20.4445425"><ele>112.0</ele><time>2026-05-02T14:10:18.74Z</time></trkpt><trkpt lat="39.3194722" lon="20.4447033"><ele>112.0</ele><time>2026-05-02T14:10:19.74Z</time></trkpt><trkpt lat="39.319405" lon="20.444869"><ele>112.0</ele><time>2026-05-02T14:10:20.74Z</time></trkpt><trkpt lat="39.3193267" lon="20.4450353"><ele>111.75</ele><time>2026-05-02T14:10:21.739Z</time></trkpt><trkpt lat="39.3192407" lon="20.4451913"><ele>111.5</ele><time>2026-05-02T14:10:22.74Z</time></trkpt><trkpt lat="39.3191524" lon="20.4453367"><ele>111.25</ele><time>2026-05-02T14:10:23.74Z</time></trkpt><trkpt lat="39.3190615" lon="20.4454671"><ele>111.0</ele><time>2026-05-02T14:10:24.739Z</time></trkpt><trkpt lat="39.3189738" lon="20.4455784"><ele>111.6</ele><time>2026-05-02T14:10:25.74Z</time></trkpt><trkpt lat="39.3188958" lon="20.4456853"><ele>112.19999999999999</ele><time>2026-05-02T14:10:26.74Z</time></trkpt><trkpt lat="39.3188423" lon="20.4457912"><ele>112.80000000000001</ele><time>2026-05-02T14:10:27.739Z</time></trkpt><trkpt lat="39.3188113" lon="20.4459082"><ele>113.4</ele><time>2026-05-02T14:10:28.74Z</time></trkpt><trkpt lat="39.3188106" lon="20.4460239"><ele>114.0</ele><time>2026-05-02T14:10:29.74Z</time></trkpt><trkpt lat="39.3188458" lon="20.4461396"><ele>114.0</ele><time>2026-05-02T14:10:30.74Z</time></trkpt><trkpt lat="39.3189128" lon="20.4462405"><ele>114.0</ele><time>2026-05-02T14:10:31.739Z</time></trkpt><trkpt lat="39.3189951" lon="20.4463209"><ele>114.0</ele><time>2026-05-02T14:10:32.74Z</time></trkpt><trkpt lat="39.3190731" lon="20.4463749"><ele>114.0</ele><time>2026-05-02T14:10:33.74Z</time></trkpt><trkpt lat="39.3191383" lon="20.4464105"><ele>114.0</ele><time>2026-05-02T14:10:34.739Z</time></trkpt><trkpt lat="39.3192379" lon="20.4464484"><ele>114.0</ele><time>2026-05-02T14:10:36.74Z</time></trkpt><trkpt lat="39.3193284" lon="20.446422"><ele>114.0</ele><time>2026-05-02T14:10:38.739Z</time></trkpt><trkpt lat="39.3193806" lon="20.4463563"><ele>114.0</ele><time>2026-05-02T14:10:39.739Z</time></trkpt><trkpt lat="39.3194366" lon="20.4462469"><ele>114.0</ele><time>2026-05-02T14:10:40.739Z</time></trkpt><trkpt lat="39.3194946" lon="20.4460912"><ele>114.0</ele><time>2026-05-02T14:10:41.74Z</time></trkpt><trkpt lat="39.3195549" lon="20.4458996"><ele>114.0</ele><time>2026-05-02T14:10:42.739Z</time></trkpt><trkpt lat="39.3196196" lon="20.4456988"><ele>114.0</ele><time>2026-05-02T14:10:43.74Z</time></trkpt><trkpt lat="39.3196893" lon="20.4454983"><ele>114.0</ele><time>2026-05-02T14:10:44.739Z</time></trkpt><trkpt lat="39.3197704" lon="20.445296"><ele>114.33333333333334</ele><time>2026-05-02T14:10:45.739Z</time></trkpt><trkpt lat="39.3198672" lon="20.4450961"><ele>114.66666666666667</ele><time>2026-05-02T14:10:46.739Z</time></trkpt><trkpt lat="39.3199772" lon="20.444894"><ele>115.0</ele><time>2026-05-02T14:10:47.739Z</time></trkpt><trkpt lat="39.3200938" lon="20.4446975"><ele>114.66666666666667</ele><time>2026-05-02T14:10:48.739Z</time></trkpt><trkpt lat="39.3202198" lon="20.4445027"><ele>114.33333333333334</ele><time>2026-05-02T14:10:49.74Z</time></trkpt><trkpt lat="39.3203542" lon="20.4443133"><ele>114.0</ele><time>2026-05-02T14:10:50.74Z</time></trkpt><trkpt lat="39.3204974" lon="20.4441242"><ele>115.66666666666666</ele><time>2026-05-02T14:10:51.74Z</time></trkpt><trkpt lat="39.3206527" lon="20.4439386"><ele>117.33333333333333</ele><time>2026-05-02T14:10:52.74Z</time></trkpt><trkpt lat="39.3208208" lon="20.4437625"><ele>119.0</ele><time>2026-05-02T14:10:53.74Z</time></trkpt><trkpt lat="39.3209965" lon="20.4436023"><ele>119.0</ele><time>2026-05-02T14:10:54.739Z</time></trkpt><trkpt lat="39.32118" lon="20.4434483"><ele>119.0</ele><time>2026-05-02T14:10:55.74Z</time></trkpt><trkpt lat="39.3213696" lon="20.4433094"><ele>119.0</ele><time>2026-05-02T14:10:56.74Z</time></trkpt><trkpt lat="39.3215659" lon="20.4431796"><ele>115.5</ele><time>2026-05-02T14:10:57.739Z</time></trkpt><trkpt lat="39.3217694" lon="20.4430475"><ele>112.0</ele><time>2026-05-02T14:10:58.74Z</time></trkpt><trkpt lat="39.3219853" lon="20.4429284"><ele>112.0</ele><time>2026-05-02T14:10:59.74Z</time></trkpt><trkpt lat="39.3222114" lon="20.4428015"><ele>112.0</ele><time>2026-05-02T14:11:00.74Z</time></trkpt><trkpt lat="39.3224403" lon="20.442663"><ele>114.5</ele><time>2026-05-02T14:11:01.739Z</time></trkpt><trkpt lat="39.3226587" lon="20.4425222"><ele>117.0</ele><time>2026-05-02T14:11:02.74Z</time></trkpt><trkpt lat="39.3228717" lon="20.4423776"><ele>116.5</ele><time>2026-05-02T14:11:03.739Z</time></trkpt><trkpt lat="39.3230787" lon="20.442229"><ele>116.0</ele><time>2026-05-02T14:11:04.739Z</time></trkpt><trkpt lat="39.323283" lon="20.4420769"><ele>116.0</ele><time>2026-05-02T14:11:05.74Z</time></trkpt><trkpt lat="39.3234832" lon="20.4419232"><ele>116.0</ele><time>2026-05-02T14:11:06.74Z</time></trkpt><trkpt lat="39.3236831" lon="20.4417715"><ele>116.0</ele><time>2026-05-02T14:11:07.74Z</time></trkpt><trkpt lat="39.3238779" lon="20.4416256"><ele>116.0</ele><time>2026-05-02T14:11:08.739Z</time></trkpt><trkpt lat="39.3240734" lon="20.4414839"><ele>116.0</ele><time>2026-05-02T14:11:09.739Z</time></trkpt><trkpt lat="39.3242667" lon="20.4413385"><ele>117.5</ele><time>2026-05-02T14:11:10.739Z</time></trkpt><trkpt lat="39.3244598" lon="20.4411912"><ele>119.0</ele><time>2026-05-02T14:11:11.739Z</time></trkpt><trkpt lat="39.3246573" lon="20.4410427"><ele>121.5</ele><time>2026-05-02T14:11:12.74Z</time></trkpt><trkpt lat="39.3248526" lon="20.4408921"><ele>124.0</ele><time>2026-05-02T14:11:13.739Z</time></trkpt><trkpt lat="39.3250481" lon="20.440743"><ele>124.0</ele><time>2026-05-02T14:11:14.739Z</time></trkpt><trkpt lat="39.3252419" lon="20.4405911"><ele>124.0</ele><time>2026-05-02T14:11:15.739Z</time></trkpt><trkpt lat="39.325436" lon="20.4404409"><ele>121.5</ele><time>2026-05-02T14:11:16.739Z</time></trkpt><trkpt lat="39.3256328" lon="20.4402919"><ele>119.0</ele><time>2026-05-02T14:11:17.74Z</time></trkpt><trkpt lat="39.3258333" lon="20.4401488"><ele>119.0</ele><time>2026-05-02T14:11:18.74Z</time></trkpt><trkpt lat="39.3260379" lon="20.4400189"><ele>119.0</ele><time>2026-05-02T14:11:19.739Z</time></trkpt><trkpt lat="39.3262472" lon="20.4399025"><ele>120.33333333333333</ele><time>2026-05-02T14:11:20.739Z</time></trkpt><trkpt lat="39.3264612" lon="20.4398063"><ele>121.66666666666666</ele><time>2026-05-02T14:11:21.74Z</time></trkpt><trkpt lat="39.3266753" lon="20.4397309"><ele>123.0</ele><time>2026-05-02T14:11:22.74Z</time></trkpt><trkpt lat="39.3268948" lon="20.4396723"><ele>118.0</ele><time>2026-05-02T14:11:23.74Z</time></trkpt><trkpt lat="39.3271176" lon="20.4396288"><ele>113.0</ele><time>2026-05-02T14:11:24.739Z</time></trkpt><trkpt lat="39.327352" lon="20.4395916"><ele>113.0</ele><time>2026-05-02T14:11:25.74Z</time></trkpt><trkpt lat="39.3275962" lon="20.439563"><ele>113.0</ele><time>2026-05-02T14:11:26.74Z</time></trkpt><trkpt lat="39.3278449" lon="20.4395368"><ele>111.0</ele><time>2026-05-02T14:11:27.74Z</time></trkpt><trkpt lat="39.3280879" lon="20.4395112"><ele>109.0</ele><time>2026-05-02T14:11:28.74Z</time></trkpt><trkpt lat="39.328326" lon="20.4394851"><ele>109.0</ele><time>2026-05-02T14:11:29.74Z</time></trkpt><trkpt lat="39.3285597" lon="20.4394642"><ele>109.0</ele><time>2026-05-02T14:11:30.739Z</time></trkpt><trkpt lat="39.3287843" lon="20.4394452"><ele>109.66666666666667</ele><time>2026-05-02T14:11:31.74Z</time></trkpt><trkpt lat="39.3289987" lon="20.4394213"><ele>110.33333333333334</ele><time>2026-05-02T14:11:32.739Z</time></trkpt><trkpt lat="39.3292206" lon="20.4393994"><ele>111.0</ele><time>2026-05-02T14:11:33.74Z</time></trkpt><trkpt lat="39.3294418" lon="20.4393758"><ele>111.0</ele><time>2026-05-02T14:11:34.74Z</time></trkpt><trkpt lat="39.3296738" lon="20.4393484"><ele>111.0</ele><time>2026-05-02T14:11:35.74Z</time></trkpt><trkpt lat="39.3299117" lon="20.4393178"><ele>111.0</ele><time>2026-05-02T14:11:36.739Z</time></trkpt><trkpt lat="39.3301572" lon="20.4392844"><ele>111.0</ele><time>2026-05-02T14:11:37.74Z</time></trkpt><trkpt lat="39.3304019" lon="20.439257"><ele>110.0</ele><time>2026-05-02T14:11:38.739Z</time></trkpt><trkpt lat="39.3306499" lon="20.4392273"><ele>109.0</ele><time>2026-05-02T14:11:39.74Z</time></trkpt><trkpt lat="39.3308955" lon="20.4391836"><ele>109.0</ele><time>2026-05-02T14:11:40.739Z</time></trkpt><trkpt lat="39.3311347" lon="20.4391219"><ele>109.0</ele><time>2026-05-02T14:11:41.739Z</time></trkpt><trkpt lat="39.3313684" lon="20.4390469"><ele>110.0</ele><time>2026-05-02T14:11:42.74Z</time></trkpt><trkpt lat="39.331595" lon="20.4389508"><ele>111.0</ele><time>2026-05-02T14:11:43.74Z</time></trkpt><trkpt lat="39.3318096" lon="20.438831"><ele>109.5</ele><time>2026-05-02T14:11:44.74Z</time></trkpt><trkpt lat="39.332016" lon="20.438691"><ele>108.0</ele><time>2026-05-02T14:11:45.74Z</time></trkpt><trkpt lat="39.3322069" lon="20.4385404"><ele>110.0</ele><time>2026-05-02T14:11:46.74Z</time></trkpt><trkpt lat="39.3323918" lon="20.4383651"><ele>112.0</ele><time>2026-05-02T14:11:47.74Z</time></trkpt><trkpt lat="39.3325693" lon="20.4381774"><ele>112.0</ele><time>2026-05-02T14:11:48.74Z</time></trkpt><trkpt lat="39.3327424" lon="20.4379847"><ele>112.0</ele><time>2026-05-02T14:11:49.739Z</time></trkpt><trkpt lat="39.3329128" lon="20.4377894"><ele>113.5</ele><time>2026-05-02T14:11:50.739Z</time></trkpt><trkpt lat="39.3330807" lon="20.4375931"><ele>115.0</ele><time>2026-05-02T14:11:51.739Z</time></trkpt><trkpt lat="39.3332514" lon="20.4373999"><ele>115.0</ele><time>2026-05-02T14:11:52.74Z</time></trkpt><trkpt lat="39.3334175" lon="20.4372059"><ele>115.0</ele><time>2026-05-02T14:11:53.74Z</time></trkpt><trkpt lat="39.3335814" lon="20.4370059"><ele>115.0</ele><time>2026-05-02T14:11:54.739Z</time></trkpt><trkpt lat="39.3337503" lon="20.4368062"><ele>115.0</ele><time>2026-05-02T14:11:55.74Z</time></trkpt><trkpt lat="39.3339208" lon="20.4366055"><ele>115.0</ele><time>2026-05-02T14:11:56.74Z</time></trkpt><trkpt lat="39.3340933" lon="20.4363994"><ele>112.0</ele><time>2026-05-02T14:11:57.74Z</time></trkpt><trkpt lat="39.334268" lon="20.4361986"><ele>109.0</ele><time>2026-05-02T14:11:58.74Z</time></trkpt><trkpt lat="39.3344368" lon="20.4359995"><ele>109.0</ele><time>2026-05-02T14:11:59.74Z</time></trkpt><trkpt lat="39.3346085" lon="20.4357995"><ele>109.0</ele><time>2026-05-02T14:12:00.74Z</time></trkpt><trkpt lat="39.3347788" lon="20.4356047"><ele>110.0</ele><time>2026-05-02T14:12:01.74Z</time></trkpt><trkpt lat="39.3349444" lon="20.4354136"><ele>111.0</ele><time>2026-05-02T14:12:02.739Z</time></trkpt><trkpt lat="39.3351154" lon="20.4352284"><ele>112.0</ele><time>2026-05-02T14:12:03.739Z</time></trkpt><trkpt lat="39.3352903" lon="20.4350567"><ele>112.0</ele><time>2026-05-02T14:12:04.739Z</time></trkpt><trkpt lat="39.3354694" lon="20.434897"><ele>112.0</ele><time>2026-05-02T14:12:05.739Z</time></trkpt><trkpt lat="39.335661" lon="20.4347561"><ele>112.0</ele><time>2026-05-02T14:12:06.739Z</time></trkpt><trkpt lat="39.3358701" lon="20.4346342"><ele>113.0</ele><time>2026-05-02T14:12:07.739Z</time></trkpt><trkpt lat="39.3360808" lon="20.434524"><ele>114.0</ele><time>2026-05-02T14:12:08.74Z</time></trkpt><trkpt lat="39.3362961" lon="20.4344332"><ele>113.0</ele><time>2026-05-02T14:12:09.739Z</time></trkpt><trkpt lat="39.3365185" lon="20.4343625"><ele>112.0</ele><time>2026-05-02T14:12:10.739Z</time></trkpt><trkpt lat="39.3367463" lon="20.4343161"><ele>112.0</ele><time>2026-05-02T14:12:11.74Z</time></trkpt><trkpt lat="39.3369784" lon="20.4342893"><ele>112.0</ele><time>2026-05-02T14:12:12.739Z</time></trkpt><trkpt lat="39.3372123" lon="20.4342834"><ele>112.0</ele><time>2026-05-02T14:12:13.739Z</time></trkpt><trkpt lat="39.3374476" lon="20.4342972"><ele>112.0</ele><time>2026-05-02T14:12:14.74Z</time></trkpt><trkpt lat="39.3376803" lon="20.4343321"><ele>112.0</ele><time>2026-05-02T14:12:15.74Z</time></trkpt><trkpt lat="39.3379053" lon="20.4343928"><ele>112.0</ele><time>2026-05-02T14:12:16.739Z</time></trkpt><trkpt lat="39.3381271" lon="20.434475"><ele>111.5</ele><time>2026-05-02T14:12:17.739Z</time></trkpt><trkpt lat="39.3383392" lon="20.4345753"><ele>111.0</ele><time>2026-05-02T14:12:18.74Z</time></trkpt><trkpt lat="39.3385497" lon="20.4346992"><ele>111.5</ele><time>2026-05-02T14:12:19.739Z</time></trkpt><trkpt lat="39.3387602" lon="20.4348302"><ele>112.0</ele><time>2026-05-02T14:12:20.739Z</time></trkpt><trkpt lat="39.3389706" lon="20.434965"><ele>112.0</ele><time>2026-05-02T14:12:21.74Z</time></trkpt><trkpt lat="39.3391795" lon="20.4351023"><ele>112.0</ele><time>2026-05-02T14:12:22.74Z</time></trkpt><trkpt lat="39.339389" lon="20.4352401"><ele>112.0</ele><time>2026-05-02T14:12:23.739Z</time></trkpt><trkpt lat="39.3395972" lon="20.4353713"><ele>112.0</ele><time>2026-05-02T14:12:24.739Z</time></trkpt><trkpt lat="39.3398106" lon="20.4354866"><ele>112.5</ele><time>2026-05-02T14:12:25.739Z</time></trkpt><trkpt lat="39.3400232" lon="20.4355876"><ele>113.0</ele><time>2026-05-02T14:12:26.74Z</time></trkpt><trkpt lat="39.3402429" lon="20.4356751"><ele>113.0</ele><time>2026-05-02T14:12:27.74Z</time></trkpt><trkpt lat="39.3404604" lon="20.4357393"><ele>113.0</ele><time>2026-05-02T14:12:28.74Z</time></trkpt><trkpt lat="39.3406759" lon="20.4357825"><ele>113.0</ele><time>2026-05-02T14:12:29.739Z</time></trkpt><trkpt lat="39.3408954" lon="20.4358078"><ele>111.0</ele><time>2026-05-02T14:12:30.74Z</time></trkpt><trkpt lat="39.3411163" lon="20.4358169"><ele>109.0</ele><time>2026-05-02T14:12:31.74Z</time></trkpt><trkpt lat="39.3413344" lon="20.4358031"><ele>107.0</ele><time>2026-05-02T14:12:32.74Z</time></trkpt><trkpt lat="39.3415523" lon="20.4357737"><ele>107.0</ele><time>2026-05-02T14:12:33.74Z</time></trkpt><trkpt lat="39.34177" lon="20.4357304"><ele>107.0</ele><time>2026-05-02T14:12:34.739Z</time></trkpt><trkpt lat="39.3419807" lon="20.4356804"><ele>107.0</ele><time>2026-05-02T14:12:35.739Z</time></trkpt><trkpt lat="39.3421831" lon="20.4356288"><ele>109.33333333333333</ele><time>2026-05-02T14:12:36.74Z</time></trkpt><trkpt lat="39.3423806" lon="20.4355764"><ele>111.66666666666666</ele><time>2026-05-02T14:12:37.74Z</time></trkpt><trkpt lat="39.3425739" lon="20.4355235"><ele>114.0</ele><time>2026-05-02T14:12:38.74Z</time></trkpt><trkpt lat="39.3427608" lon="20.4354719"><ele>111.33333333333334</ele><time>2026-05-02T14:12:39.74Z</time></trkpt><trkpt lat="39.3429416" lon="20.4354222"><ele>108.66666666666667</ele><time>2026-05-02T14:12:40.739Z</time></trkpt><trkpt lat="39.3431136" lon="20.4353789"><ele>106.0</ele><time>2026-05-02T14:12:41.74Z</time></trkpt><trkpt lat="39.3432897" lon="20.4353382"><ele>106.0</ele><time>2026-05-02T14:12:42.739Z</time></trkpt><trkpt lat="39.3434586" lon="20.4353036"><ele>106.0</ele><time>2026-05-02T14:12:43.739Z</time></trkpt><trkpt lat="39.3436319" lon="20.4352635"><ele>106.0</ele><time>2026-05-02T14:12:44.739Z</time></trkpt><trkpt lat="39.3438187" lon="20.4352254"><ele>106.33333333333334</ele><time>2026-05-02T14:12:45.739Z</time></trkpt><trkpt lat="39.3440129" lon="20.43519"><ele>106.66666666666666</ele><time>2026-05-02T14:12:46.739Z</time></trkpt><trkpt lat="39.3442067" lon="20.4351583"><ele>107.0</ele><time>2026-05-02T14:12:47.74Z</time></trkpt><trkpt lat="39.3444011" lon="20.4351329"><ele>107.0</ele><time>2026-05-02T14:12:48.74Z</time></trkpt><trkpt lat="39.3445978" lon="20.4351126"><ele>107.0</ele><time>2026-05-02T14:12:49.739Z</time></trkpt><trkpt lat="39.3448051" lon="20.4350968"><ele>107.0</ele><time>2026-05-02T14:12:50.74Z</time></trkpt><trkpt lat="39.3450242" lon="20.4350866"><ele>104.5</ele><time>2026-05-02T14:12:51.74Z</time></trkpt><trkpt lat="39.3452514" lon="20.4350833"><ele>102.0</ele><time>2026-05-02T14:12:52.739Z</time></trkpt><trkpt lat="39.3454864" lon="20.435083"><ele>103.5</ele><time>2026-05-02T14:12:53.74Z</time></trkpt><trkpt lat="39.3457301" lon="20.435085"><ele>105.0</ele><time>2026-05-02T14:12:54.74Z</time></trkpt><trkpt lat="39.3459788" lon="20.4350822"><ele>105.0</ele><time>2026-05-02T14:12:55.739Z</time></trkpt><trkpt lat="39.3462408" lon="20.4350773"><ele>105.0</ele><time>2026-05-02T14:12:56.739Z</time></trkpt><trkpt lat="39.3465143" lon="20.4350745"><ele>105.0</ele><time>2026-05-02T14:12:57.739Z</time></trkpt><trkpt lat="39.3467838" lon="20.4350762"><ele>105.0</ele><time>2026-05-02T14:12:58.74Z</time></trkpt><trkpt lat="39.347058" lon="20.4350804"><ele>106.0</ele><time>2026-05-02T14:12:59.739Z</time></trkpt><trkpt lat="39.3473176" lon="20.4350836"><ele>107.0</ele><time>2026-05-02T14:13:00.739Z</time></trkpt><trkpt lat="39.3475496" lon="20.435092"><ele>107.0</ele><time>2026-05-02T14:13:01.74Z</time></trkpt><trkpt lat="39.3477446" lon="20.4350962"><ele>107.0</ele><time>2026-05-02T14:13:02.74Z</time></trkpt><trkpt lat="39.3479189" lon="20.4351035"><ele>107.0</ele><time>2026-05-02T14:13:03.74Z</time></trkpt><trkpt lat="39.3480909" lon="20.435106"><ele>107.33333333333333</ele><time>2026-05-02T14:13:04.739Z</time></trkpt><trkpt lat="39.3482459" lon="20.435111"><ele>107.66666666666666</ele><time>2026-05-02T14:13:05.739Z</time></trkpt><trkpt lat="39.3484034" lon="20.4351153"><ele>108.0</ele><time>2026-05-02T14:13:06.74Z</time></trkpt><trkpt lat="39.3485622" lon="20.4351176"><ele>108.0</ele><time>2026-05-02T14:13:07.74Z</time></trkpt><trkpt lat="39.348719" lon="20.4351214"><ele>108.0</ele><time>2026-05-02T14:13:08.739Z</time></trkpt><trkpt lat="39.3488754" lon="20.4351248"><ele>108.0</ele><time>2026-05-02T14:13:09.74Z</time></trkpt><trkpt lat="39.3490338" lon="20.435128"><ele>108.66666666666666</ele><time>2026-05-02T14:13:10.739Z</time></trkpt><trkpt lat="39.3491921" lon="20.4351314"><ele>109.33333333333333</ele><time>2026-05-02T14:13:11.74Z</time></trkpt><trkpt lat="39.3493512" lon="20.4351367"><ele>110.0</ele><time>2026-05-02T14:13:12.74Z</time></trkpt><trkpt lat="39.3495122" lon="20.4351453"><ele>110.0</ele><time>2026-05-02T14:13:13.74Z</time></trkpt><trkpt lat="39.3496773" lon="20.4351543"><ele>110.0</ele><time>2026-05-02T14:13:14.74Z</time></trkpt><trkpt lat="39.3498459" lon="20.4351662"><ele>110.0</ele><time>2026-05-02T14:13:15.739Z</time></trkpt><trkpt lat="39.3500105" lon="20.4351777"><ele>110.0</ele><time>2026-05-02T14:13:16.74Z</time></trkpt><trkpt lat="39.3501825" lon="20.43518"><ele>110.0</ele><time>2026-05-02T14:13:17.739Z</time></trkpt><trkpt lat="39.3503775" lon="20.4351691"><ele>110.0</ele><time>2026-05-02T14:13:18.739Z</time></trkpt><trkpt lat="39.3505959" lon="20.4351412"><ele>110.0</ele><time>2026-05-02T14:13:19.739Z</time></trkpt><trkpt lat="39.3508259" lon="20.4351024"><ele>110.0</ele><time>2026-05-02T14:13:20.74Z</time></trkpt><trkpt lat="39.351076" lon="20.4350377"><ele>110.0</ele><time>2026-05-02T14:13:21.74Z</time></trkpt><trkpt lat="39.3513268" lon="20.4349603"><ele>110.0</ele><time>2026-05-02T14:13:22.74Z</time></trkpt><trkpt lat="39.3515737" lon="20.4348585"><ele>110.5</ele><time>2026-05-02T14:13:23.739Z</time></trkpt><trkpt lat="39.3518238" lon="20.4347526"><ele>111.0</ele><time>2026-05-02T14:13:24.739Z</time></trkpt><trkpt lat="39.3520644" lon="20.4346403"><ele>112.5</ele><time>2026-05-02T14:13:25.74Z</time></trkpt><trkpt lat="39.3523009" lon="20.4345221"><ele>114.0</ele><time>2026-05-02T14:13:26.74Z</time></trkpt><trkpt lat="39.3525347" lon="20.4344087"><ele>114.0</ele><time>2026-05-02T14:13:27.739Z</time></trkpt><trkpt lat="39.3527679" lon="20.4342943"><ele>114.0</ele><time>2026-05-02T14:13:28.74Z</time></trkpt><trkpt lat="39.3529999" lon="20.434176"><ele>116.5</ele><time>2026-05-02T14:13:29.74Z</time></trkpt><trkpt lat="39.3532319" lon="20.4340603"><ele>119.0</ele><time>2026-05-02T14:13:30.739Z</time></trkpt><trkpt lat="39.3534613" lon="20.4339493"><ele>119.0</ele><time>2026-05-02T14:13:31.74Z</time></trkpt><trkpt lat="39.3536876" lon="20.4338373"><ele>119.0</ele><time>2026-05-02T14:13:32.74Z</time></trkpt><trkpt lat="39.3539122" lon="20.4337288"><ele>119.0</ele><time>2026-05-02T14:13:33.74Z</time></trkpt><trkpt lat="39.3541372" lon="20.4336186"><ele>119.0</ele><time>2026-05-02T14:13:34.739Z</time></trkpt><trkpt lat="39.354365" lon="20.4335128"><ele>119.0</ele><time>2026-05-02T14:13:35.74Z</time></trkpt><trkpt lat="39.3545889" lon="20.4333973"><ele>119.0</ele><time>2026-05-02T14:13:36.739Z</time></trkpt><trkpt lat="39.3548075" lon="20.433286"><ele>120.0</ele><time>2026-05-02T14:13:37.74Z</time></trkpt><trkpt lat="39.3550264" lon="20.4331804"><ele>121.0</ele><time>2026-05-02T14:13:38.739Z</time></trkpt><trkpt lat="39.3552466" lon="20.4330724"><ele>120.0</ele><time>2026-05-02T14:13:39.74Z</time></trkpt><trkpt lat="39.355461" lon="20.4329671"><ele>119.0</ele><time>2026-05-02T14:13:40.74Z</time></trkpt><trkpt lat="39.3556762" lon="20.4328629"><ele>119.0</ele><time>2026-05-02T14:13:41.739Z</time></trkpt><trkpt lat="39.35589" lon="20.4327568"><ele>119.0</ele><time>2026-05-02T14:13:42.74Z</time></trkpt><trkpt lat="39.3561001" lon="20.4326511"><ele>119.0</ele><time>2026-05-02T14:13:43.74Z</time></trkpt><trkpt lat="39.356308" lon="20.4325375"><ele>119.0</ele><time>2026-05-02T14:13:44.739Z</time></trkpt><trkpt lat="39.3565116" lon="20.4324137"><ele>120.0</ele><time>2026-05-02T14:13:45.74Z</time></trkpt><trkpt lat="39.356709" lon="20.4322793"><ele>121.0</ele><time>2026-05-02T14:13:46.74Z</time></trkpt><trkpt lat="39.3569006" lon="20.4321403"><ele>122.0</ele><time>2026-05-02T14:13:47.739Z</time></trkpt><trkpt lat="39.3570859" lon="20.4319914"><ele>123.66666666666666</ele><time>2026-05-02T14:13:48.739Z</time></trkpt><trkpt lat="39.3572667" lon="20.4318318"><ele>125.33333333333334</ele><time>2026-05-02T14:13:49.74Z</time></trkpt><trkpt lat="39.3574423" lon="20.4316623"><ele>127.0</ele><time>2026-05-02T14:13:50.74Z</time></trkpt><trkpt lat="39.3576112" lon="20.4314849"><ele>126.33333333333334</ele><time>2026-05-02T14:13:51.739Z</time></trkpt><trkpt lat="39.3577735" lon="20.4312979"><ele>125.66666666666666</ele><time>2026-05-02T14:13:52.74Z</time></trkpt><trkpt lat="39.3579286" lon="20.4311023"><ele>125.0</ele><time>2026-05-02T14:13:53.74Z</time></trkpt><trkpt lat="39.3580803" lon="20.4308987"><ele>125.0</ele><time>2026-05-02T14:13:54.74Z</time></trkpt><trkpt lat="39.3582301" lon="20.4306893"><ele>125.0</ele><time>2026-05-02T14:13:55.74Z</time></trkpt><trkpt lat="39.3583833" lon="20.4304768"><ele>125.0</ele><time>2026-05-02T14:13:56.74Z</time></trkpt><trkpt lat="39.3585357" lon="20.4302613"><ele>124.0</ele><time>2026-05-02T14:13:57.74Z</time></trkpt><trkpt lat="39.3586907" lon="20.4300479"><ele>123.0</ele><time>2026-05-02T14:13:58.739Z</time></trkpt><trkpt lat="39.358848" lon="20.4298341"><ele>121.5</ele><time>2026-05-02T14:13:59.739Z</time></trkpt><trkpt lat="39.3590094" lon="20.4296178"><ele>120.0</ele><time>2026-05-02T14:14:00.74Z</time></trkpt><trkpt lat="39.3591657" lon="20.429397"><ele>120.0</ele><time>2026-05-02T14:14:01.739Z</time></trkpt><trkpt lat="39.3593222" lon="20.4291772"><ele>120.0</ele><time>2026-05-02T14:14:02.739Z</time></trkpt><trkpt lat="39.3594795" lon="20.428958"><ele>119.0</ele><time>2026-05-02T14:14:03.739Z</time></trkpt><trkpt lat="39.3596382" lon="20.4287407"><ele>118.0</ele><time>2026-05-02T14:14:04.739Z</time></trkpt><trkpt lat="39.3597957" lon="20.4285223"><ele>118.0</ele><time>2026-05-02T14:14:05.74Z</time></trkpt><trkpt lat="39.3599545" lon="20.4283059"><ele>118.0</ele><time>2026-05-02T14:14:06.739Z</time></trkpt><trkpt lat="39.3601121" lon="20.428092"><ele>116.5</ele><time>2026-05-02T14:14:07.739Z</time></trkpt><trkpt lat="39.3602692" lon="20.42788"><ele>115.0</ele><time>2026-05-02T14:14:08.74Z</time></trkpt><trkpt lat="39.3604234" lon="20.4276696"><ele>115.33333333333334</ele><time>2026-05-02T14:14:09.739Z</time></trkpt><trkpt lat="39.3605761" lon="20.4274644"><ele>115.66666666666666</ele><time>2026-05-02T14:14:10.739Z</time></trkpt><trkpt lat="39.3607243" lon="20.4272616"><ele>116.0</ele><time>2026-05-02T14:14:11.74Z</time></trkpt><trkpt lat="39.3608731" lon="20.4270609"><ele>116.0</ele><time>2026-05-02T14:14:12.74Z</time></trkpt><trkpt lat="39.3610209" lon="20.4268586"><ele>116.0</ele><time>2026-05-02T14:14:13.739Z</time></trkpt><trkpt lat="39.3611671" lon="20.426659"><ele>116.0</ele><time>2026-05-02T14:14:14.74Z</time></trkpt><trkpt lat="39.3613133" lon="20.4264573"><ele>117.33333333333333</ele><time>2026-05-02T14:14:15.739Z</time></trkpt><trkpt lat="39.3614618" lon="20.4262526"><ele>118.66666666666666</ele><time>2026-05-02T14:14:16.74Z</time></trkpt><trkpt lat="39.3616184" lon="20.4260413"><ele>120.0</ele><time>2026-05-02T14:14:17.739Z</time></trkpt><trkpt lat="39.3617674" lon="20.4258344"><ele>120.0</ele><time>2026-05-02T14:14:18.739Z</time></trkpt><trkpt lat="39.3619189" lon="20.4256296"><ele>120.0</ele><time>2026-05-02T14:14:19.74Z</time></trkpt><trkpt lat="39.3620802" lon="20.4254136"><ele>119.5</ele><time>2026-05-02T14:14:20.739Z</time></trkpt><trkpt lat="39.3622354" lon="20.4251981"><ele>119.0</ele><time>2026-05-02T14:14:21.74Z</time></trkpt><trkpt lat="39.3623938" lon="20.4249808"><ele>119.0</ele><time>2026-05-02T14:14:22.74Z</time></trkpt><trkpt lat="39.3625515" lon="20.4247628"><ele>119.0</ele><time>2026-05-02T14:14:23.739Z</time></trkpt><trkpt lat="39.3627096" lon="20.4245473"><ele>118.5</ele><time>2026-05-02T14:14:24.739Z</time></trkpt><trkpt lat="39.3628667" lon="20.4243355"><ele>118.0</ele><time>2026-05-02T14:14:25.74Z</time></trkpt><trkpt lat="39.3630216" lon="20.4241216"><ele>118.33333333333334</ele><time>2026-05-02T14:14:26.74Z</time></trkpt><trkpt lat="39.3631745" lon="20.4239103"><ele>118.66666666666666</ele><time>2026-05-02T14:14:27.74Z</time></trkpt><trkpt lat="39.3633251" lon="20.4237032"><ele>119.0</ele><time>2026-05-02T14:14:28.739Z</time></trkpt><trkpt lat="39.3634763" lon="20.4234974"><ele>118.33333333333333</ele><time>2026-05-02T14:14:29.74Z</time></trkpt><trkpt lat="39.3636271" lon="20.4232913"><ele>117.66666666666666</ele><time>2026-05-02T14:14:30.74Z</time></trkpt><trkpt lat="39.3637807" lon="20.4230822"><ele>117.0</ele><time>2026-05-02T14:14:31.74Z</time></trkpt><trkpt lat="39.3639335" lon="20.4228739"><ele>117.0</ele><time>2026-05-02T14:14:32.74Z</time></trkpt><trkpt lat="39.3640905" lon="20.4226644"><ele>117.0</ele><time>2026-05-02T14:14:33.74Z</time></trkpt><trkpt lat="39.3642494" lon="20.4224569"><ele>117.0</ele><time>2026-05-02T14:14:34.74Z</time></trkpt><trkpt lat="39.3644078" lon="20.4222462"><ele>117.0</ele><time>2026-05-02T14:14:35.74Z</time></trkpt><trkpt lat="39.3645649" lon="20.4220329"><ele>117.0</ele><time>2026-05-02T14:14:36.74Z</time></trkpt><trkpt lat="39.3647231" lon="20.4218194"><ele>117.0</ele><time>2026-05-02T14:14:37.739Z</time></trkpt><trkpt lat="39.3648845" lon="20.4216027"><ele>117.0</ele><time>2026-05-02T14:14:38.739Z</time></trkpt><trkpt lat="39.3650468" lon="20.4213799"><ele>117.0</ele><time>2026-05-02T14:14:39.739Z</time></trkpt><trkpt lat="39.3652105" lon="20.4211553"><ele>117.0</ele><time>2026-05-02T14:14:40.74Z</time></trkpt><trkpt lat="39.3653794" lon="20.4209289"><ele>117.0</ele><time>2026-05-02T14:14:41.739Z</time></trkpt><trkpt lat="39.3655493" lon="20.4207017"><ele>116.0</ele><time>2026-05-02T14:14:42.74Z</time></trkpt><trkpt lat="39.3657203" lon="20.4204694"><ele>115.0</ele><time>2026-05-02T14:14:43.74Z</time></trkpt><trkpt lat="39.3658889" lon="20.4202316"><ele>115.0</ele><time>2026-05-02T14:14:44.74Z</time></trkpt><trkpt lat="39.3660578" lon="20.4199882"><ele>115.0</ele><time>2026-05-02T14:14:45.74Z</time></trkpt><trkpt lat="39.3662254" lon="20.4197402"><ele>115.0</ele><time>2026-05-02T14:14:46.74Z</time></trkpt><trkpt lat="39.3663874" lon="20.4194902"><ele>115.0</ele><time>2026-05-02T14:14:47.739Z</time></trkpt><trkpt lat="39.3665432" lon="20.4192359"><ele>115.0</ele><time>2026-05-02T14:14:48.74Z</time></trkpt><trkpt lat="39.3666938" lon="20.418977"><ele>115.0</ele><time>2026-05-02T14:14:49.739Z</time></trkpt><trkpt lat="39.3668399" lon="20.4187143"><ele>113.5</ele><time>2026-05-02T14:14:50.74Z</time></trkpt><trkpt lat="39.3669794" lon="20.418446"><ele>112.0</ele><time>2026-05-02T14:14:51.74Z</time></trkpt><trkpt lat="39.367113" lon="20.4181755"><ele>112.5</ele><time>2026-05-02T14:14:52.739Z</time></trkpt><trkpt lat="39.3672436" lon="20.4179048"><ele>113.0</ele><time>2026-05-02T14:14:53.74Z</time></trkpt><trkpt lat="39.3673711" lon="20.4176324"><ele>113.0</ele><time>2026-05-02T14:14:54.74Z</time></trkpt><trkpt lat="39.3675092" lon="20.4173456"><ele>113.0</ele><time>2026-05-02T14:14:55.74Z</time></trkpt><trkpt lat="39.3676302" lon="20.41707"><ele>112.5</ele><time>2026-05-02T14:14:56.74Z</time></trkpt><trkpt lat="39.3677516" lon="20.4167941"><ele>112.0</ele><time>2026-05-02T14:14:57.74Z</time></trkpt><trkpt lat="39.3678694" lon="20.4165171"><ele>111.5</ele><time>2026-05-02T14:14:58.74Z</time></trkpt><trkpt lat="39.3679888" lon="20.4162424"><ele>111.0</ele><time>2026-05-02T14:14:59.74Z</time></trkpt><trkpt lat="39.3681141" lon="20.4159612"><ele>110.5</ele><time>2026-05-02T14:15:00.74Z</time></trkpt><trkpt lat="39.3682286" lon="20.4156835"><ele>110.0</ele><time>2026-05-02T14:15:01.739Z</time></trkpt><trkpt lat="39.368351" lon="20.4154022"><ele>110.0</ele><time>2026-05-02T14:15:02.74Z</time></trkpt><trkpt lat="39.3684686" lon="20.4151275"><ele>110.0</ele><time>2026-05-02T14:15:03.739Z</time></trkpt><trkpt lat="39.3685874" lon="20.4148548"><ele>109.0</ele><time>2026-05-02T14:15:04.739Z</time></trkpt><trkpt lat="39.3687049" lon="20.4145815"><ele>108.0</ele><time>2026-05-02T14:15:05.74Z</time></trkpt><trkpt lat="39.3688241" lon="20.4143091"><ele>108.0</ele><time>2026-05-02T14:15:06.74Z</time></trkpt><trkpt lat="39.3689381" lon="20.414033"><ele>108.0</ele><time>2026-05-02T14:15:07.739Z</time></trkpt><trkpt lat="39.369056" lon="20.4137607"><ele>108.0</ele><time>2026-05-02T14:15:08.74Z</time></trkpt><trkpt lat="39.3691695" lon="20.4134869"><ele>108.0</ele><time>2026-05-02T14:15:09.739Z</time></trkpt><trkpt lat="39.3692856" lon="20.4132179"><ele>107.5</ele><time>2026-05-02T14:15:10.74Z</time></trkpt><trkpt lat="39.3694031" lon="20.4129491"><ele>107.0</ele><time>2026-05-02T14:15:11.739Z</time></trkpt><trkpt lat="39.3695188" lon="20.4126788"><ele>107.0</ele><time>2026-05-02T14:15:12.74Z</time></trkpt><trkpt lat="39.3696375" lon="20.4124114"><ele>107.0</ele><time>2026-05-02T14:15:13.74Z</time></trkpt><trkpt lat="39.3697529" lon="20.4121413"><ele>108.0</ele><time>2026-05-02T14:15:14.739Z</time></trkpt><trkpt lat="39.3698739" lon="20.4118701"><ele>109.0</ele><time>2026-05-02T14:15:15.739Z</time></trkpt><trkpt lat="39.3699928" lon="20.4116006"><ele>109.0</ele><time>2026-05-02T14:15:16.739Z</time></trkpt><trkpt lat="39.3701069" lon="20.4113303"><ele>109.0</ele><time>2026-05-02T14:15:17.74Z</time></trkpt><trkpt lat="39.3702185" lon="20.4110619"><ele>107.5</ele><time>2026-05-02T14:15:18.74Z</time></trkpt><trkpt lat="39.370338" lon="20.4107935"><ele>106.0</ele><time>2026-05-02T14:15:19.74Z</time></trkpt><trkpt lat="39.3704535" lon="20.4105252"><ele>106.0</ele><time>2026-05-02T14:15:20.739Z</time></trkpt><trkpt lat="39.3705706" lon="20.4102563"><ele>106.0</ele><time>2026-05-02T14:15:21.74Z</time></trkpt><trkpt lat="39.3706888" lon="20.4099884"><ele>106.0</ele><time>2026-05-02T14:15:22.74Z</time></trkpt><trkpt lat="39.3708106" lon="20.4097253"><ele>106.0</ele><time>2026-05-02T14:15:23.74Z</time></trkpt><trkpt lat="39.370932" lon="20.4094614"><ele>106.0</ele><time>2026-05-02T14:15:24.74Z</time></trkpt><trkpt lat="39.3710543" lon="20.4091955"><ele>106.0</ele><time>2026-05-02T14:15:25.74Z</time></trkpt><trkpt lat="39.371175" lon="20.4089207"><ele>106.0</ele><time>2026-05-02T14:15:26.74Z</time></trkpt><trkpt lat="39.3713013" lon="20.4086439"><ele>106.0</ele><time>2026-05-02T14:15:27.74Z</time></trkpt><trkpt lat="39.3714282" lon="20.4083677"><ele>105.5</ele><time>2026-05-02T14:15:28.739Z</time></trkpt><trkpt lat="39.371555" lon="20.4080913"><ele>105.0</ele><time>2026-05-02T14:15:29.74Z</time></trkpt><trkpt lat="39.3716854" lon="20.4078201"><ele>106.0</ele><time>2026-05-02T14:15:30.74Z</time></trkpt><trkpt lat="39.3718165" lon="20.4075521"><ele>107.0</ele><time>2026-05-02T14:15:31.739Z</time></trkpt><trkpt lat="39.3719482" lon="20.4072873"><ele>107.0</ele><time>2026-05-02T14:15:32.74Z</time></trkpt><trkpt lat="39.3720865" lon="20.4070276"><ele>107.0</ele><time>2026-05-02T14:15:33.739Z</time></trkpt><trkpt lat="39.3722273" lon="20.4067704"><ele>106.5</ele><time>2026-05-02T14:15:34.74Z</time></trkpt><trkpt lat="39.3723739" lon="20.406519"><ele>106.0</ele><time>2026-05-02T14:15:35.739Z</time></trkpt><trkpt lat="39.3725245" lon="20.406268"><ele>106.0</ele><time>2026-05-02T14:15:36.739Z</time></trkpt><trkpt lat="39.3726764" lon="20.4060184"><ele>106.0</ele><time>2026-05-02T14:15:37.739Z</time></trkpt><trkpt lat="39.3728301" lon="20.4057693"><ele>106.0</ele><time>2026-05-02T14:15:38.739Z</time></trkpt><trkpt lat="39.3729931" lon="20.4055247"><ele>106.0</ele><time>2026-05-02T14:15:39.739Z</time></trkpt><trkpt lat="39.3731605" lon="20.4052787"><ele>106.5</ele><time>2026-05-02T14:15:40.74Z</time></trkpt><trkpt lat="39.3733331" lon="20.4050367"><ele>107.0</ele><time>2026-05-02T14:15:41.739Z</time></trkpt><trkpt lat="39.3735081" lon="20.4047976"><ele>107.5</ele><time>2026-05-02T14:15:42.739Z</time></trkpt><trkpt lat="39.3736831" lon="20.4045626"><ele>108.0</ele><time>2026-05-02T14:15:43.74Z</time></trkpt><trkpt lat="39.3738632" lon="20.4043347"><ele>108.0</ele><time>2026-05-02T14:15:44.739Z</time></trkpt><trkpt lat="39.3740472" lon="20.4041114"><ele>108.0</ele><time>2026-05-02T14:15:45.74Z</time></trkpt><trkpt lat="39.3742311" lon="20.4038912"><ele>109.0</ele><time>2026-05-02T14:15:46.74Z</time></trkpt><trkpt lat="39.3744156" lon="20.403676"><ele>110.0</ele><time>2026-05-02T14:15:47.74Z</time></trkpt><trkpt lat="39.3746208" lon="20.4034431"><ele>109.5</ele><time>2026-05-02T14:15:48.74Z</time></trkpt><trkpt lat="39.3748188" lon="20.4032341"><ele>109.0</ele><time>2026-05-02T14:15:49.74Z</time></trkpt><trkpt lat="39.3750191" lon="20.4030257"><ele>109.0</ele><time>2026-05-02T14:15:50.74Z</time></trkpt><trkpt lat="39.3752227" lon="20.4028194"><ele>109.0</ele><time>2026-05-02T14:15:51.739Z</time></trkpt><trkpt lat="39.3754294" lon="20.4026153"><ele>109.5</ele><time>2026-05-02T14:15:52.74Z</time></trkpt><trkpt lat="39.3756385" lon="20.4024129"><ele>110.0</ele><time>2026-05-02T14:15:53.739Z</time></trkpt><trkpt lat="39.3758558" lon="20.4022095"><ele>114.0</ele><time>2026-05-02T14:15:54.739Z</time></trkpt><trkpt lat="39.3760808" lon="20.4020036"><ele>118.0</ele><time>2026-05-02T14:15:55.74Z</time></trkpt><trkpt lat="39.3763121" lon="20.4017982"><ele>118.5</ele><time>2026-05-02T14:15:56.739Z</time></trkpt><trkpt lat="39.3765464" lon="20.4015978"><ele>119.0</ele><time>2026-05-02T14:15:57.74Z</time></trkpt><trkpt lat="39.3767784" lon="20.4014045"><ele>121.0</ele><time>2026-05-02T14:15:58.74Z</time></trkpt><trkpt lat="39.3770028" lon="20.4012275"><ele>123.0</ele><time>2026-05-02T14:15:59.74Z</time></trkpt><trkpt lat="39.3772199" lon="20.4010559"><ele>123.0</ele><time>2026-05-02T14:16:00.739Z</time></trkpt><trkpt lat="39.3774258" lon="20.400891"><ele>123.0</ele><time>2026-05-02T14:16:01.74Z</time></trkpt><trkpt lat="39.3776261" lon="20.4007273"><ele>123.0</ele><time>2026-05-02T14:16:02.739Z</time></trkpt><trkpt lat="39.3778257" lon="20.4005688"><ele>123.0</ele><time>2026-05-02T14:16:03.74Z</time></trkpt><trkpt lat="39.3780276" lon="20.4004065"><ele>129.0</ele><time>2026-05-02T14:16:04.74Z</time></trkpt><trkpt lat="39.3782292" lon="20.40024"><ele>135.0</ele><time>2026-05-02T14:16:05.74Z</time></trkpt><trkpt lat="39.3784323" lon="20.4000736"><ele>135.0</ele><time>2026-05-02T14:16:06.74Z</time></trkpt><trkpt lat="39.3786368" lon="20.399909"><ele>135.0</ele><time>2026-05-02T14:16:07.739Z</time></trkpt><trkpt lat="39.3788409" lon="20.3997404"><ele>144.5</ele><time>2026-05-02T14:16:08.74Z</time></trkpt><trkpt lat="39.3790476" lon="20.3995726"><ele>154.0</ele><time>2026-05-02T14:16:09.739Z</time></trkpt><trkpt lat="39.3792576" lon="20.3994044"><ele>154.0</ele><time>2026-05-02T14:16:10.739Z</time></trkpt><trkpt lat="39.3794707" lon="20.3992378"><ele>154.0</ele><time>2026-05-02T14:16:11.739Z</time></trkpt><trkpt lat="39.379684" lon="20.3990648"><ele>154.5</ele><time>2026-05-02T14:16:12.74Z</time></trkpt><trkpt lat="39.3798985" lon="20.3988906"><ele>155.0</ele><time>2026-05-02T14:16:13.739Z</time></trkpt><trkpt lat="39.3801176" lon="20.3987118"><ele>155.0</ele><time>2026-05-02T14:16:14.739Z</time></trkpt><trkpt lat="39.3803378" lon="20.3985389"><ele>155.0</ele><time>2026-05-02T14:16:15.74Z</time></trkpt><trkpt lat="39.3805581" lon="20.3983651"><ele>148.0</ele><time>2026-05-02T14:16:16.74Z</time></trkpt><trkpt lat="39.3807804" lon="20.398188"><ele>141.0</ele><time>2026-05-02T14:16:17.74Z</time></trkpt><trkpt lat="39.3810018" lon="20.3980077"><ele>145.5</ele><time>2026-05-02T14:16:18.74Z</time></trkpt><trkpt lat="39.3812229" lon="20.3978255"><ele>150.0</ele><time>2026-05-02T14:16:19.739Z</time></trkpt><trkpt lat="39.3814493" lon="20.3976465"><ele>150.0</ele><time>2026-05-02T14:16:20.74Z</time></trkpt><trkpt lat="39.3816766" lon="20.3974663"><ele>150.0</ele><time>2026-05-02T14:16:21.74Z</time></trkpt><trkpt lat="39.3819009" lon="20.3972872"><ele>154.0</ele><time>2026-05-02T14:16:22.74Z</time></trkpt><trkpt lat="39.382122" lon="20.3971049"><ele>158.0</ele><time>2026-05-02T14:16:23.74Z</time></trkpt><trkpt lat="39.3823397" lon="20.3969204"><ele>158.0</ele><time>2026-05-02T14:16:24.74Z</time></trkpt><trkpt lat="39.3825506" lon="20.3967312"><ele>158.0</ele><time>2026-05-02T14:16:25.74Z</time></trkpt><trkpt lat="39.3827563" lon="20.3965345"><ele>157.5</ele><time>2026-05-02T14:16:26.74Z</time></trkpt><trkpt lat="39.3829577" lon="20.3963294"><ele>157.0</ele><time>2026-05-02T14:16:27.74Z</time></trkpt><trkpt lat="39.3831527" lon="20.396118"><ele>157.0</ele><time>2026-05-02T14:16:28.74Z</time></trkpt><trkpt lat="39.38334" lon="20.3958984"><ele>157.0</ele><time>2026-05-02T14:16:29.74Z</time></trkpt><trkpt lat="39.3835266" lon="20.395664"><ele>159.5</ele><time>2026-05-02T14:16:30.739Z</time></trkpt><trkpt lat="39.3837008" lon="20.3954337"><ele>162.0</ele><time>2026-05-02T14:16:31.74Z</time></trkpt><trkpt lat="39.3838664" lon="20.3951963"><ele>162.0</ele><time>2026-05-02T14:16:32.74Z</time></trkpt><trkpt lat="39.3840266" lon="20.3949547"><ele>162.0</ele><time>2026-05-02T14:16:33.739Z</time></trkpt><trkpt lat="39.3841791" lon="20.3947059"><ele>169.5</ele><time>2026-05-02T14:16:34.74Z</time></trkpt><trkpt lat="39.3843329" lon="20.3944503"><ele>177.0</ele><time>2026-05-02T14:16:35.739Z</time></trkpt><trkpt lat="39.384489" lon="20.3941898"><ele>177.0</ele><time>2026-05-02T14:16:36.739Z</time></trkpt><trkpt lat="39.3846413" lon="20.3939235"><ele>177.0</ele><time>2026-05-02T14:16:37.74Z</time></trkpt><trkpt lat="39.3847915" lon="20.3936551"><ele>175.0</ele><time>2026-05-02T14:16:38.74Z</time></trkpt><trkpt lat="39.384937" lon="20.3933834"><ele>173.0</ele><time>2026-05-02T14:16:39.74Z</time></trkpt><trkpt lat="39.3850755" lon="20.3931031"><ele>178.5</ele><time>2026-05-02T14:16:40.74Z</time></trkpt><trkpt lat="39.3852063" lon="20.3928162"><ele>184.0</ele><time>2026-05-02T14:16:41.74Z</time></trkpt><trkpt lat="39.3853272" lon="20.3925239"><ele>184.0</ele><time>2026-05-02T14:16:42.739Z</time></trkpt><trkpt lat="39.3854385" lon="20.3922245"><ele>184.0</ele><time>2026-05-02T14:16:43.74Z</time></trkpt><trkpt lat="39.3855443" lon="20.3919213"><ele>179.5</ele><time>2026-05-02T14:16:44.74Z</time></trkpt><trkpt lat="39.3856423" lon="20.391613"><ele>175.0</ele><time>2026-05-02T14:16:45.739Z</time></trkpt><trkpt lat="39.3857311" lon="20.3912985"><ele>172.5</ele><time>2026-05-02T14:16:46.739Z</time></trkpt><trkpt lat="39.3858096" lon="20.3909787"><ele>170.0</ele><time>2026-05-02T14:16:47.739Z</time></trkpt><trkpt lat="39.3858815" lon="20.3906552"><ele>169.5</ele><time>2026-05-02T14:16:48.74Z</time></trkpt><trkpt lat="39.385947" lon="20.3903294"><ele>169.0</ele><time>2026-05-02T14:16:49.739Z</time></trkpt><trkpt lat="39.3860084" lon="20.3899995"><ele>171.0</ele><time>2026-05-02T14:16:50.739Z</time></trkpt><trkpt lat="39.3860678" lon="20.3896694"><ele>173.0</ele><time>2026-05-02T14:16:51.74Z</time></trkpt><trkpt lat="39.3861254" lon="20.3893392"><ele>173.0</ele><time>2026-05-02T14:16:52.739Z</time></trkpt><trkpt lat="39.3861863" lon="20.3890106"><ele>173.0</ele><time>2026-05-02T14:16:53.739Z</time></trkpt><trkpt lat="39.3862466" lon="20.3886814"><ele>169.0</ele><time>2026-05-02T14:16:54.74Z</time></trkpt><trkpt lat="39.3863062" lon="20.3883501"><ele>165.0</ele><time>2026-05-02T14:16:55.74Z</time></trkpt><trkpt lat="39.3863681" lon="20.388018"><ele>156.0</ele><time>2026-05-02T14:16:56.739Z</time></trkpt><trkpt lat="39.3864288" lon="20.387685"><ele>147.0</ele><time>2026-05-02T14:16:57.739Z</time></trkpt><trkpt lat="39.3864932" lon="20.3873509"><ele>147.0</ele><time>2026-05-02T14:16:58.74Z</time></trkpt><trkpt lat="39.38656" lon="20.3870166"><ele>147.0</ele><time>2026-05-02T14:16:59.739Z</time></trkpt><trkpt lat="39.3866261" lon="20.3866825"><ele>146.5</ele><time>2026-05-02T14:17:00.74Z</time></trkpt><trkpt lat="39.3866906" lon="20.3863433"><ele>146.0</ele><time>2026-05-02T14:17:01.739Z</time></trkpt><trkpt lat="39.3867532" lon="20.3860039"><ele>146.0</ele><time>2026-05-02T14:17:02.74Z</time></trkpt><trkpt lat="39.3868155" lon="20.3856678"><ele>146.0</ele><time>2026-05-02T14:17:03.74Z</time></trkpt><trkpt lat="39.3868757" lon="20.3853407"><ele>143.0</ele><time>2026-05-02T14:17:04.74Z</time></trkpt><trkpt lat="39.3869316" lon="20.3850193"><ele>140.0</ele><time>2026-05-02T14:17:05.739Z</time></trkpt><trkpt lat="39.3869885" lon="20.3847067"><ele>137.0</ele><time>2026-05-02T14:17:06.739Z</time></trkpt><trkpt lat="39.3870457" lon="20.3843868"><ele>134.0</ele><time>2026-05-02T14:17:07.74Z</time></trkpt><trkpt lat="39.3871001" lon="20.3840484"><ele>133.5</ele><time>2026-05-02T14:17:08.739Z</time></trkpt><trkpt lat="39.3871605" lon="20.3837011"><ele>133.0</ele><time>2026-05-02T14:17:09.74Z</time></trkpt><trkpt lat="39.3872242" lon="20.3833539"><ele>133.0</ele><time>2026-05-02T14:17:10.739Z</time></trkpt><trkpt lat="39.3872881" lon="20.3830232"><ele>133.0</ele><time>2026-05-02T14:17:11.739Z</time></trkpt><trkpt lat="39.3873526" lon="20.3827059"><ele>133.0</ele><time>2026-05-02T14:17:12.739Z</time></trkpt><trkpt lat="39.3874153" lon="20.3823972"><ele>133.0</ele><time>2026-05-02T14:17:13.74Z</time></trkpt><trkpt lat="39.3874742" lon="20.3820973"><ele>132.5</ele><time>2026-05-02T14:17:14.739Z</time></trkpt><trkpt lat="39.3875292" lon="20.3818041"><ele>132.0</ele><time>2026-05-02T14:17:15.739Z</time></trkpt><trkpt lat="39.3875896" lon="20.3815146"><ele>130.0</ele><time>2026-05-02T14:17:16.74Z</time></trkpt><trkpt lat="39.3876427" lon="20.3812362"><ele>128.0</ele><time>2026-05-02T14:17:17.74Z</time></trkpt><trkpt lat="39.3876984" lon="20.380958"><ele>126.0</ele><time>2026-05-02T14:17:18.74Z</time></trkpt><trkpt lat="39.3877511" lon="20.3806854"><ele>124.66666666666666</ele><time>2026-05-02T14:17:19.739Z</time></trkpt><trkpt lat="39.3878049" lon="20.3804108"><ele>123.33333333333333</ele><time>2026-05-02T14:17:20.74Z</time></trkpt><trkpt lat="39.3878582" lon="20.3801406"><ele>122.0</ele><time>2026-05-02T14:17:21.739Z</time></trkpt><trkpt lat="39.3879121" lon="20.3798725"><ele>122.0</ele><time>2026-05-02T14:17:22.739Z</time></trkpt><trkpt lat="39.3879633" lon="20.3795986"><ele>122.0</ele><time>2026-05-02T14:17:23.74Z</time></trkpt><trkpt lat="39.3880175" lon="20.3793203"><ele>122.0</ele><time>2026-05-02T14:17:24.74Z</time></trkpt><trkpt lat="39.3880722" lon="20.379033"><ele>119.5</ele><time>2026-05-02T14:17:25.74Z</time></trkpt><trkpt lat="39.3881278" lon="20.3787416"><ele>117.0</ele><time>2026-05-02T14:17:26.739Z</time></trkpt><trkpt lat="39.3881803" lon="20.378447"><ele>117.0</ele><time>2026-05-02T14:17:27.739Z</time></trkpt><trkpt lat="39.3882328" lon="20.3781574"><ele>117.0</ele><time>2026-05-02T14:17:28.74Z</time></trkpt><trkpt lat="39.3882836" lon="20.3778687"><ele>117.33333333333334</ele><time>2026-05-02T14:17:29.74Z</time></trkpt><trkpt lat="39.3883321" lon="20.3775882"><ele>117.66666666666667</ele><time>2026-05-02T14:17:30.739Z</time></trkpt><trkpt lat="39.3883821" lon="20.377311"><ele>118.0</ele><time>2026-05-02T14:17:31.739Z</time></trkpt><trkpt lat="39.3884303" lon="20.3770396"><ele>118.33333333333334</ele><time>2026-05-02T14:17:32.74Z</time></trkpt><trkpt lat="39.388485" lon="20.3767687"><ele>118.66666666666666</ele><time>2026-05-02T14:17:33.74Z</time></trkpt><trkpt lat="39.388546" lon="20.3765001"><ele>119.0</ele><time>2026-05-02T14:17:34.74Z</time></trkpt><trkpt lat="39.3886201" lon="20.3762401"><ele>119.0</ele><time>2026-05-02T14:17:35.74Z</time></trkpt><trkpt lat="39.3887107" lon="20.375985"><ele>119.0</ele><time>2026-05-02T14:17:36.739Z</time></trkpt><trkpt lat="39.3888173" lon="20.3757331"><ele>119.0</ele><time>2026-05-02T14:17:37.739Z</time></trkpt><trkpt lat="39.3889392" lon="20.3754819"><ele>119.0</ele><time>2026-05-02T14:17:38.739Z</time></trkpt><trkpt lat="39.3890741" lon="20.3752381"><ele>119.0</ele><time>2026-05-02T14:17:39.739Z</time></trkpt><trkpt lat="39.3892292" lon="20.3750053"><ele>119.0</ele><time>2026-05-02T14:17:40.739Z</time></trkpt><trkpt lat="39.3893926" lon="20.3747848"><ele>119.0</ele><time>2026-05-02T14:17:41.739Z</time></trkpt><trkpt lat="39.3895683" lon="20.3745697"><ele>116.5</ele><time>2026-05-02T14:17:42.74Z</time></trkpt><trkpt lat="39.3897551" lon="20.3743552"><ele>114.0</ele><time>2026-05-02T14:17:43.739Z</time></trkpt><trkpt lat="39.3899576" lon="20.3741413"><ele>114.0</ele><time>2026-05-02T14:17:44.74Z</time></trkpt><trkpt lat="39.3901618" lon="20.3739278"><ele>114.0</ele><time>2026-05-02T14:17:45.739Z</time></trkpt><trkpt lat="39.3903643" lon="20.3737173"><ele>115.0</ele><time>2026-05-02T14:17:46.739Z</time></trkpt><trkpt lat="39.3905657" lon="20.3735126"><ele>116.0</ele><time>2026-05-02T14:17:47.74Z</time></trkpt><trkpt lat="39.3907701" lon="20.3733123"><ele>116.0</ele><time>2026-05-02T14:17:48.739Z</time></trkpt><trkpt lat="39.3909702" lon="20.3731147"><ele>116.0</ele><time>2026-05-02T14:17:49.74Z</time></trkpt><trkpt lat="39.3911687" lon="20.3729176"><ele>119.0</ele><time>2026-05-02T14:17:50.74Z</time></trkpt><trkpt lat="39.3913649" lon="20.372717"><ele>122.0</ele><time>2026-05-02T14:17:51.74Z</time></trkpt><trkpt lat="39.3915601" lon="20.3725103"><ele>122.0</ele><time>2026-05-02T14:17:52.74Z</time></trkpt><trkpt lat="39.391754" lon="20.3722974"><ele>122.0</ele><time>2026-05-02T14:17:53.739Z</time></trkpt><trkpt lat="39.3919466" lon="20.3720786"><ele>124.5</ele><time>2026-05-02T14:17:54.74Z</time></trkpt><trkpt lat="39.3921378" lon="20.3718543"><ele>127.0</ele><time>2026-05-02T14:17:55.74Z</time></trkpt><trkpt lat="39.3923336" lon="20.3716292"><ele>127.0</ele><time>2026-05-02T14:17:56.74Z</time></trkpt><trkpt lat="39.3925291" lon="20.371402"><ele>127.0</ele><time>2026-05-02T14:17:57.74Z</time></trkpt><trkpt lat="39.3927232" lon="20.3711742"><ele>124.5</ele><time>2026-05-02T14:17:58.739Z</time></trkpt><trkpt lat="39.3929194" lon="20.3709466"><ele>122.0</ele><time>2026-05-02T14:17:59.739Z</time></trkpt><trkpt lat="39.3931142" lon="20.3707194"><ele>117.5</ele><time>2026-05-02T14:18:00.739Z</time></trkpt><trkpt lat="39.3933091" lon="20.370491"><ele>113.0</ele><time>2026-05-02T14:18:01.739Z</time></trkpt><trkpt lat="39.3935026" lon="20.3702648"><ele>113.0</ele><time>2026-05-02T14:18:02.739Z</time></trkpt><trkpt lat="39.393698" lon="20.3700372"><ele>113.0</ele><time>2026-05-02T14:18:03.739Z</time></trkpt><trkpt lat="39.3938897" lon="20.3698091"><ele>113.0</ele><time>2026-05-02T14:18:04.739Z</time></trkpt><trkpt lat="39.3940759" lon="20.3695807"><ele>113.0</ele><time>2026-05-02T14:18:05.74Z</time></trkpt><trkpt lat="39.3942544" lon="20.3693458"><ele>113.0</ele><time>2026-05-02T14:18:06.74Z</time></trkpt><trkpt lat="39.3944226" lon="20.3691084"><ele>113.0</ele><time>2026-05-02T14:18:07.739Z</time></trkpt><trkpt lat="39.3945784" lon="20.3688607"><ele>116.0</ele><time>2026-05-02T14:18:08.74Z</time></trkpt><trkpt lat="39.3947184" lon="20.3686006"><ele>119.0</ele><time>2026-05-02T14:18:09.739Z</time></trkpt><trkpt lat="39.3948437" lon="20.3683223"><ele>119.0</ele><time>2026-05-02T14:18:10.74Z</time></trkpt><trkpt lat="39.3949542" lon="20.3680299"><ele>119.0</ele><time>2026-05-02T14:18:11.74Z</time></trkpt><trkpt lat="39.3950569" lon="20.3677164"><ele>117.0</ele><time>2026-05-02T14:18:12.739Z</time></trkpt><trkpt lat="39.3951561" lon="20.3673844"><ele>115.0</ele><time>2026-05-02T14:18:13.74Z</time></trkpt><trkpt lat="39.3952505" lon="20.3670333"><ele>114.5</ele><time>2026-05-02T14:18:14.739Z</time></trkpt><trkpt lat="39.3953531" lon="20.3666695"><ele>114.0</ele><time>2026-05-02T14:18:15.739Z</time></trkpt><trkpt lat="39.3954614" lon="20.3663055"><ele>124.5</ele><time>2026-05-02T14:18:16.739Z</time></trkpt><trkpt lat="39.3955672" lon="20.3659616"><ele>135.0</ele><time>2026-05-02T14:18:17.739Z</time></trkpt><trkpt lat="39.3956757" lon="20.3656399"><ele>128.5</ele><time>2026-05-02T14:18:18.74Z</time></trkpt><trkpt lat="39.3957891" lon="20.3653363"><ele>122.0</ele><time>2026-05-02T14:18:19.739Z</time></trkpt><trkpt lat="39.3959132" lon="20.3650576"><ele>122.0</ele><time>2026-05-02T14:18:20.739Z</time></trkpt><trkpt lat="39.3960547" lon="20.3648094"><ele>122.0</ele><time>2026-05-02T14:18:21.739Z</time></trkpt><trkpt lat="39.3962163" lon="20.3645831"><ele>123.5</ele><time>2026-05-02T14:18:22.74Z</time></trkpt><trkpt lat="39.3963972" lon="20.36438"><ele>125.0</ele><time>2026-05-02T14:18:23.74Z</time></trkpt><trkpt lat="39.3965965" lon="20.3641908"><ele>125.0</ele><time>2026-05-02T14:18:24.74Z</time></trkpt><trkpt lat="39.3968056" lon="20.3640264"><ele>125.0</ele><time>2026-05-02T14:18:25.739Z</time></trkpt><trkpt lat="39.3970227" lon="20.3638871"><ele>117.5</ele><time>2026-05-02T14:18:26.74Z</time></trkpt><trkpt lat="39.3972478" lon="20.3637558"><ele>110.0</ele><time>2026-05-02T14:18:27.739Z</time></trkpt><trkpt lat="39.3974765" lon="20.3636198"><ele>110.0</ele><time>2026-05-02T14:18:28.739Z</time></trkpt><trkpt lat="39.3976969" lon="20.3634775"><ele>110.0</ele><time>2026-05-02T14:18:29.739Z</time></trkpt><trkpt lat="39.3979035" lon="20.3632844"><ele>109.5</ele><time>2026-05-02T14:18:30.74Z</time></trkpt><trkpt lat="39.398098" lon="20.3630777"><ele>109.0</ele><time>2026-05-02T14:18:31.74Z</time></trkpt><trkpt lat="39.3982738" lon="20.3628404"><ele>109.0</ele><time>2026-05-02T14:18:32.739Z</time></trkpt><trkpt lat="39.398436" lon="20.3625796"><ele>109.0</ele><time>2026-05-02T14:18:33.739Z</time></trkpt><trkpt lat="39.3985884" lon="20.3623038"><ele>110.5</ele><time>2026-05-02T14:18:34.74Z</time></trkpt><trkpt lat="39.3987445" lon="20.3620272"><ele>112.0</ele><time>2026-05-02T14:18:35.739Z</time></trkpt><trkpt lat="39.3988976" lon="20.3617481"><ele>112.0</ele><time>2026-05-02T14:18:36.74Z</time></trkpt><trkpt lat="39.3990486" lon="20.3614707"><ele>112.0</ele><time>2026-05-02T14:18:37.74Z</time></trkpt><trkpt lat="39.3991977" lon="20.3612051"><ele>107.0</ele><time>2026-05-02T14:18:38.74Z</time></trkpt><trkpt lat="39.3993547" lon="20.3609468"><ele>102.0</ele><time>2026-05-02T14:18:39.74Z</time></trkpt><trkpt lat="39.3995246" lon="20.3607027"><ele>102.0</ele><time>2026-05-02T14:18:40.74Z</time></trkpt><trkpt lat="39.3997073" lon="20.3604718"><ele>102.0</ele><time>2026-05-02T14:18:41.74Z</time></trkpt><trkpt lat="39.3998953" lon="20.3602491"><ele>102.0</ele><time>2026-05-02T14:18:42.74Z</time></trkpt><trkpt lat="39.4000948" lon="20.360037"><ele>102.0</ele><time>2026-05-02T14:18:43.74Z</time></trkpt><trkpt lat="39.4002926" lon="20.3598231"><ele>101.5</ele><time>2026-05-02T14:18:44.74Z</time></trkpt><trkpt lat="39.4004902" lon="20.3596107"><ele>101.0</ele><time>2026-05-02T14:18:45.74Z</time></trkpt><trkpt lat="39.4006868" lon="20.3593961"><ele>101.0</ele><time>2026-05-02T14:18:46.739Z</time></trkpt><trkpt lat="39.4008823" lon="20.3591746"><ele>101.0</ele><time>2026-05-02T14:18:47.739Z</time></trkpt><trkpt lat="39.4010746" lon="20.3589372"><ele>101.5</ele><time>2026-05-02T14:18:48.739Z</time></trkpt><trkpt lat="39.4012646" lon="20.3586843"><ele>102.0</ele><time>2026-05-02T14:18:49.74Z</time></trkpt><trkpt lat="39.4014475" lon="20.358407"><ele>102.0</ele><time>2026-05-02T14:18:50.74Z</time></trkpt><trkpt lat="39.4016214" lon="20.3581073"><ele>102.0</ele><time>2026-05-02T14:18:51.74Z</time></trkpt><trkpt lat="39.4017871" lon="20.3577846"><ele>101.5</ele><time>2026-05-02T14:18:52.74Z</time></trkpt><trkpt lat="39.4019526" lon="20.3574508"><ele>101.0</ele><time>2026-05-02T14:18:53.739Z</time></trkpt><trkpt lat="39.4021183" lon="20.3571127"><ele>109.0</ele><time>2026-05-02T14:18:54.739Z</time></trkpt><trkpt lat="39.4022827" lon="20.356774"><ele>117.0</ele><time>2026-05-02T14:18:55.74Z</time></trkpt><trkpt lat="39.4024467" lon="20.3564404"><ele>111.0</ele><time>2026-05-02T14:18:56.74Z</time></trkpt><trkpt lat="39.4026059" lon="20.3561118"><ele>105.0</ele><time>2026-05-02T14:18:57.74Z</time></trkpt><trkpt lat="39.4027624" lon="20.3557876"><ele>102.5</ele><time>2026-05-02T14:18:58.74Z</time></trkpt><trkpt lat="39.4029137" lon="20.3554727"><ele>100.0</ele><time>2026-05-02T14:18:59.739Z</time></trkpt><trkpt lat="39.4030503" lon="20.3551623"><ele>106.0</ele><time>2026-05-02T14:19:00.74Z</time></trkpt><trkpt lat="39.4031669" lon="20.3548648"><ele>112.0</ele><time>2026-05-02T14:19:01.74Z</time></trkpt><trkpt lat="39.4032562" lon="20.3545642"><ele>112.0</ele><time>2026-05-02T14:19:02.74Z</time></trkpt><trkpt lat="39.4033238" lon="20.3542522"><ele>112.0</ele><time>2026-05-02T14:19:03.74Z</time></trkpt><trkpt lat="39.4033729" lon="20.3539281"><ele>112.5</ele><time>2026-05-02T14:19:04.739Z</time></trkpt><trkpt lat="39.4033997" lon="20.3535939"><ele>113.0</ele><time>2026-05-02T14:19:05.74Z</time></trkpt><trkpt lat="39.4034141" lon="20.3532601"><ele>113.0</ele><time>2026-05-02T14:19:06.74Z</time></trkpt><trkpt lat="39.4034227" lon="20.3529354"><ele>113.0</ele><time>2026-05-02T14:19:07.739Z</time></trkpt><trkpt lat="39.4034321" lon="20.3526241"><ele>113.0</ele><time>2026-05-02T14:19:08.739Z</time></trkpt><trkpt lat="39.4034588" lon="20.3523161"><ele>113.0</ele><time>2026-05-02T14:19:09.739Z</time></trkpt><trkpt lat="39.4035069" lon="20.3520191"><ele>110.0</ele><time>2026-05-02T14:19:10.74Z</time></trkpt><trkpt lat="39.4035829" lon="20.3517224"><ele>107.0</ele><time>2026-05-02T14:19:11.74Z</time></trkpt><trkpt lat="39.4036863" lon="20.3514241"><ele>105.5</ele><time>2026-05-02T14:19:12.739Z</time></trkpt><trkpt lat="39.4038139" lon="20.3511317"><ele>104.0</ele><time>2026-05-02T14:19:13.74Z</time></trkpt><trkpt lat="39.4039593" lon="20.350847"><ele>103.0</ele><time>2026-05-02T14:19:14.74Z</time></trkpt><trkpt lat="39.404113" lon="20.3505627"><ele>102.0</ele><time>2026-05-02T14:19:15.74Z</time></trkpt><trkpt lat="39.4042523" lon="20.3502713"><ele>102.0</ele><time>2026-05-02T14:19:16.74Z</time></trkpt><trkpt lat="39.4043668" lon="20.3499708"><ele>102.0</ele><time>2026-05-02T14:19:17.739Z</time></trkpt><trkpt lat="39.4044645" lon="20.3496337"><ele>98.5</ele><time>2026-05-02T14:19:18.739Z</time></trkpt><trkpt lat="39.4045364" lon="20.3492758"><ele>95.0</ele><time>2026-05-02T14:19:19.739Z</time></trkpt><trkpt lat="39.4045896" lon="20.3488959"><ele>88.5</ele><time>2026-05-02T14:19:20.74Z</time></trkpt><trkpt lat="39.4046246" lon="20.3485099"><ele>82.0</ele><time>2026-05-02T14:19:21.74Z</time></trkpt><trkpt lat="39.4046545" lon="20.3481203"><ele>89.0</ele><time>2026-05-02T14:19:22.739Z</time></trkpt><trkpt lat="39.4046796" lon="20.3477365"><ele>96.0</ele><time>2026-05-02T14:19:23.739Z</time></trkpt><trkpt lat="39.4047024" lon="20.3473643"><ele>92.0</ele><time>2026-05-02T14:19:24.74Z</time></trkpt><trkpt lat="39.4047199" lon="20.3470065"><ele>88.0</ele><time>2026-05-02T14:19:25.74Z</time></trkpt><trkpt lat="39.4047293" lon="20.3466563"><ele>86.5</ele><time>2026-05-02T14:19:26.74Z</time></trkpt><trkpt lat="39.4047297" lon="20.3463108"><ele>85.0</ele><time>2026-05-02T14:19:27.74Z</time></trkpt><trkpt lat="39.4047166" lon="20.3459664"><ele>85.0</ele><time>2026-05-02T14:19:28.74Z</time></trkpt><trkpt lat="39.404702" lon="20.3456331"><ele>85.0</ele><time>2026-05-02T14:19:29.74Z</time></trkpt><trkpt lat="39.4046925" lon="20.3453099"><ele>86.5</ele><time>2026-05-02T14:19:30.74Z</time></trkpt><trkpt lat="39.4046995" lon="20.3449919"><ele>88.0</ele><time>2026-05-02T14:19:31.74Z</time></trkpt><trkpt lat="39.4047282" lon="20.3446728"><ele>84.5</ele><time>2026-05-02T14:19:32.74Z</time></trkpt><trkpt lat="39.404772" lon="20.3443665"><ele>81.0</ele><time>2026-05-02T14:19:33.74Z</time></trkpt><trkpt lat="39.4048365" lon="20.3440659"><ele>80.0</ele><time>2026-05-02T14:19:34.74Z</time></trkpt><trkpt lat="39.4049204" lon="20.3437726"><ele>79.0</ele><time>2026-05-02T14:19:35.74Z</time></trkpt><trkpt lat="39.4050302" lon="20.3434873"><ele>79.0</ele><time>2026-05-02T14:19:36.739Z</time></trkpt><trkpt lat="39.405159" lon="20.3432136"><ele>79.0</ele><time>2026-05-02T14:19:37.739Z</time></trkpt><trkpt lat="39.4053121" lon="20.3429575"><ele>80.0</ele><time>2026-05-02T14:19:38.739Z</time></trkpt><trkpt lat="39.405478" lon="20.342719"><ele>81.0</ele><time>2026-05-02T14:19:39.739Z</time></trkpt><trkpt lat="39.4056661" lon="20.342502"><ele>81.0</ele><time>2026-05-02T14:19:40.74Z</time></trkpt><trkpt lat="39.4058756" lon="20.3423035"><ele>81.0</ele><time>2026-05-02T14:19:41.739Z</time></trkpt><trkpt lat="39.4061025" lon="20.3421066"><ele>79.0</ele><time>2026-05-02T14:19:42.739Z</time></trkpt><trkpt lat="39.4063387" lon="20.341914"><ele>77.0</ele><time>2026-05-02T14:19:43.74Z</time></trkpt><trkpt lat="39.4065752" lon="20.3417236"><ele>77.0</ele><time>2026-05-02T14:19:44.739Z</time></trkpt><trkpt lat="39.4068189" lon="20.3415314"><ele>77.0</ele><time>2026-05-02T14:19:45.74Z</time></trkpt><trkpt lat="39.4070637" lon="20.3413364"><ele>75.0</ele><time>2026-05-02T14:19:46.74Z</time></trkpt><trkpt lat="39.4073092" lon="20.3411423"><ele>73.0</ele><time>2026-05-02T14:19:47.739Z</time></trkpt><trkpt lat="39.4075517" lon="20.3409514"><ele>73.0</ele><time>2026-05-02T14:19:48.739Z</time></trkpt><trkpt lat="39.407791" lon="20.3407583"><ele>73.0</ele><time>2026-05-02T14:19:49.739Z</time></trkpt><trkpt lat="39.4080197" lon="20.3405583"><ele>70.5</ele><time>2026-05-02T14:19:50.74Z</time></trkpt><trkpt lat="39.4082433" lon="20.3403445"><ele>68.0</ele><time>2026-05-02T14:19:51.74Z</time></trkpt><trkpt lat="39.4084638" lon="20.3401071"><ele>68.0</ele><time>2026-05-02T14:19:52.739Z</time></trkpt><trkpt lat="39.4086776" lon="20.339846"><ele>68.0</ele><time>2026-05-02T14:19:53.739Z</time></trkpt><trkpt lat="39.4088832" lon="20.3395606"><ele>68.5</ele><time>2026-05-02T14:19:54.739Z</time></trkpt><trkpt lat="39.4090768" lon="20.3392459"><ele>69.0</ele><time>2026-05-02T14:19:55.739Z</time></trkpt><trkpt lat="39.4092606" lon="20.3389071"><ele>67.0</ele><time>2026-05-02T14:19:56.74Z</time></trkpt><trkpt lat="39.4094365" lon="20.3385632"><ele>65.0</ele><time>2026-05-02T14:19:57.74Z</time></trkpt><trkpt lat="39.4096043" lon="20.3382228"><ele>66.5</ele><time>2026-05-02T14:19:58.739Z</time></trkpt><trkpt lat="39.4097635" lon="20.3378979"><ele>68.0</ele><time>2026-05-02T14:19:59.739Z</time></trkpt><trkpt lat="39.4099167" lon="20.3375796"><ele>68.0</ele><time>2026-05-02T14:20:00.739Z</time></trkpt><trkpt lat="39.4100734" lon="20.3372671"><ele>68.0</ele><time>2026-05-02T14:20:01.739Z</time></trkpt><trkpt lat="39.4102423" lon="20.3369661"><ele>66.5</ele><time>2026-05-02T14:20:02.739Z</time></trkpt><trkpt lat="39.4104256" lon="20.3366758"><ele>65.0</ele><time>2026-05-02T14:20:03.74Z</time></trkpt><trkpt lat="39.4106244" lon="20.3363897"><ele>63.0</ele><time>2026-05-02T14:20:04.74Z</time></trkpt><trkpt lat="39.4108384" lon="20.3361107"><ele>61.0</ele><time>2026-05-02T14:20:05.74Z</time></trkpt><trkpt lat="39.4110616" lon="20.3358301"><ele>62.0</ele><time>2026-05-02T14:20:06.739Z</time></trkpt><trkpt lat="39.4112849" lon="20.3355476"><ele>63.0</ele><time>2026-05-02T14:20:07.74Z</time></trkpt><trkpt lat="39.4115055" lon="20.3352703"><ele>63.0</ele><time>2026-05-02T14:20:08.74Z</time></trkpt><trkpt lat="39.4117217" lon="20.3349993"><ele>63.0</ele><time>2026-05-02T14:20:09.739Z</time></trkpt><trkpt lat="39.4119368" lon="20.3347322"><ele>65.0</ele><time>2026-05-02T14:20:10.739Z</time></trkpt><trkpt lat="39.412149" lon="20.3344624"><ele>67.0</ele><time>2026-05-02T14:20:11.74Z</time></trkpt><trkpt lat="39.4123604" lon="20.3341918"><ele>67.0</ele><time>2026-05-02T14:20:12.74Z</time></trkpt><trkpt lat="39.4125652" lon="20.3339165"><ele>67.0</ele><time>2026-05-02T14:20:13.74Z</time></trkpt><trkpt lat="39.4127511" lon="20.3336354"><ele>63.0</ele><time>2026-05-02T14:20:14.739Z</time></trkpt><trkpt lat="39.4129145" lon="20.3333504"><ele>59.0</ele><time>2026-05-02T14:20:15.74Z</time></trkpt><trkpt lat="39.4130516" lon="20.3330493"><ele>59.0</ele><time>2026-05-02T14:20:16.739Z</time></trkpt><trkpt lat="39.413166" lon="20.3327309"><ele>59.0</ele><time>2026-05-02T14:20:17.739Z</time></trkpt><trkpt lat="39.4132581" lon="20.3323912"><ele>55.5</ele><time>2026-05-02T14:20:18.74Z</time></trkpt><trkpt lat="39.4133304" lon="20.3320316"><ele>52.0</ele><time>2026-05-02T14:20:19.74Z</time></trkpt><trkpt lat="39.4133906" lon="20.3316609"><ele>52.0</ele><time>2026-05-02T14:20:20.74Z</time></trkpt><trkpt lat="39.4134486" lon="20.3312964"><ele>52.0</ele><time>2026-05-02T14:20:21.74Z</time></trkpt><trkpt lat="39.4135094" lon="20.3309502"><ele>52.0</ele><time>2026-05-02T14:20:22.739Z</time></trkpt><trkpt lat="39.4135803" lon="20.3306114"><ele>52.0</ele><time>2026-05-02T14:20:23.74Z</time></trkpt><trkpt lat="39.4136758" lon="20.330285"><ele>51.5</ele><time>2026-05-02T14:20:24.74Z</time></trkpt><trkpt lat="39.4137938" lon="20.3299697"><ele>51.0</ele><time>2026-05-02T14:20:25.74Z</time></trkpt><trkpt lat="39.4139331" lon="20.3296689"><ele>52.0</ele><time>2026-05-02T14:20:26.74Z</time></trkpt><trkpt lat="39.4141" lon="20.329381"><ele>53.0</ele><time>2026-05-02T14:20:27.739Z</time></trkpt><trkpt lat="39.41429" lon="20.3291021"><ele>53.0</ele><time>2026-05-02T14:20:28.739Z</time></trkpt><trkpt lat="39.4144886" lon="20.328821"><ele>53.0</ele><time>2026-05-02T14:20:29.739Z</time></trkpt><trkpt lat="39.4146896" lon="20.3285351"><ele>54.0</ele><time>2026-05-02T14:20:30.74Z</time></trkpt><trkpt lat="39.414894" lon="20.3282424"><ele>55.0</ele><time>2026-05-02T14:20:31.74Z</time></trkpt><trkpt lat="39.4150938" lon="20.3279341"><ele>51.5</ele><time>2026-05-02T14:20:32.739Z</time></trkpt><trkpt lat="39.4152844" lon="20.3276057"><ele>48.0</ele><time>2026-05-02T14:20:33.74Z</time></trkpt><trkpt lat="39.4154703" lon="20.3272651"><ele>50.5</ele><time>2026-05-02T14:20:34.739Z</time></trkpt><trkpt lat="39.4156573" lon="20.3269218"><ele>53.0</ele><time>2026-05-02T14:20:35.739Z</time></trkpt><trkpt lat="39.4158474" lon="20.3265795"><ele>50.0</ele><time>2026-05-02T14:20:36.74Z</time></trkpt><trkpt lat="39.4160346" lon="20.3262375"><ele>47.0</ele><time>2026-05-02T14:20:37.739Z</time></trkpt><trkpt lat="39.4162231" lon="20.3258996"><ele>47.5</ele><time>2026-05-02T14:20:38.74Z</time></trkpt><trkpt lat="39.4164123" lon="20.3255637"><ele>48.0</ele><time>2026-05-02T14:20:39.739Z</time></trkpt><trkpt lat="39.416602" lon="20.325232"><ele>46.5</ele><time>2026-05-02T14:20:40.739Z</time></trkpt><trkpt lat="39.4167915" lon="20.3249087"><ele>45.0</ele><time>2026-05-02T14:20:41.739Z</time></trkpt><trkpt lat="39.4169827" lon="20.3245888"><ele>46.5</ele><time>2026-05-02T14:20:42.74Z</time></trkpt><trkpt lat="39.4171785" lon="20.3242702"><ele>48.0</ele><time>2026-05-02T14:20:43.739Z</time></trkpt><trkpt lat="39.4173831" lon="20.3239556"><ele>46.0</ele><time>2026-05-02T14:20:44.74Z</time></trkpt><trkpt lat="39.4175978" lon="20.3236405"><ele>44.0</ele><time>2026-05-02T14:20:45.74Z</time></trkpt><trkpt lat="39.4178131" lon="20.3233343"><ele>44.5</ele><time>2026-05-02T14:20:46.74Z</time></trkpt><trkpt lat="39.4180254" lon="20.3230323"><ele>45.0</ele><time>2026-05-02T14:20:47.74Z</time></trkpt><trkpt lat="39.4182363" lon="20.3227374"><ele>45.0</ele><time>2026-05-02T14:20:48.739Z</time></trkpt><trkpt lat="39.4184447" lon="20.3224488"><ele>45.0</ele><time>2026-05-02T14:20:49.74Z</time></trkpt><trkpt lat="39.4186491" lon="20.3221689"><ele>45.0</ele><time>2026-05-02T14:20:50.74Z</time></trkpt><trkpt lat="39.4188521" lon="20.3218933"><ele>45.0</ele><time>2026-05-02T14:20:51.74Z</time></trkpt><trkpt lat="39.4190503" lon="20.3216191"><ele>42.0</ele><time>2026-05-02T14:20:52.74Z</time></trkpt><trkpt lat="39.4192513" lon="20.3213467"><ele>39.0</ele><time>2026-05-02T14:20:53.74Z</time></trkpt><trkpt lat="39.4194533" lon="20.3210713"><ele>38.5</ele><time>2026-05-02T14:20:54.74Z</time></trkpt><trkpt lat="39.4196595" lon="20.3207889"><ele>38.0</ele><time>2026-05-02T14:20:55.739Z</time></trkpt><trkpt lat="39.4198661" lon="20.3204933"><ele>38.0</ele><time>2026-05-02T14:20:56.739Z</time></trkpt><trkpt lat="39.420079" lon="20.3201786"><ele>38.0</ele><time>2026-05-02T14:20:57.739Z</time></trkpt><trkpt lat="39.4202868" lon="20.3198538"><ele>37.5</ele><time>2026-05-02T14:20:58.739Z</time></trkpt><trkpt lat="39.4204909" lon="20.3195222"><ele>37.0</ele><time>2026-05-02T14:20:59.74Z</time></trkpt><trkpt lat="39.4206936" lon="20.3191905"><ele>37.0</ele><time>2026-05-02T14:21:00.74Z</time></trkpt><trkpt lat="39.4208948" lon="20.3188604"><ele>37.0</ele><time>2026-05-02T14:21:01.74Z</time></trkpt><trkpt lat="39.4210964" lon="20.3185293"><ele>37.0</ele><time>2026-05-02T14:21:02.74Z</time></trkpt><trkpt lat="39.4212915" lon="20.3182049"><ele>37.0</ele><time>2026-05-02T14:21:03.739Z</time></trkpt><trkpt lat="39.4214868" lon="20.3178778"><ele>36.5</ele><time>2026-05-02T14:21:04.74Z</time></trkpt><trkpt lat="39.4216801" lon="20.3175523"><ele>36.0</ele><time>2026-05-02T14:21:05.74Z</time></trkpt><trkpt lat="39.4218722" lon="20.317229"><ele>36.0</ele><time>2026-05-02T14:21:06.739Z</time></trkpt><trkpt lat="39.4220608" lon="20.3169103"><ele>36.0</ele><time>2026-05-02T14:21:07.739Z</time></trkpt><trkpt lat="39.422244" lon="20.316598"><ele>35.5</ele><time>2026-05-02T14:21:08.74Z</time></trkpt><trkpt lat="39.4224223" lon="20.3162883"><ele>35.0</ele><time>2026-05-02T14:21:09.739Z</time></trkpt><trkpt lat="39.422603" lon="20.3159887"><ele>35.0</ele><time>2026-05-02T14:21:10.74Z</time></trkpt><trkpt lat="39.4227788" lon="20.3156922"><ele>35.0</ele><time>2026-05-02T14:21:11.74Z</time></trkpt><trkpt lat="39.4229607" lon="20.3154045"><ele>36.5</ele><time>2026-05-02T14:21:12.74Z</time></trkpt><trkpt lat="39.4231477" lon="20.3151196"><ele>38.0</ele><time>2026-05-02T14:21:13.74Z</time></trkpt><trkpt lat="39.423346" lon="20.3148425"><ele>34.5</ele><time>2026-05-02T14:21:14.74Z</time></trkpt><trkpt lat="39.4235601" lon="20.3145643"><ele>31.0</ele><time>2026-05-02T14:21:15.739Z</time></trkpt><trkpt lat="39.4237759" lon="20.3142936"><ele>31.5</ele><time>2026-05-02T14:21:16.739Z</time></trkpt><trkpt lat="39.4239932" lon="20.3140284"><ele>32.0</ele><time>2026-05-02T14:21:17.739Z</time></trkpt><trkpt lat="39.4242071" lon="20.3137659"><ele>32.0</ele><time>2026-05-02T14:21:18.739Z</time></trkpt><trkpt lat="39.4244247" lon="20.3135064"><ele>32.0</ele><time>2026-05-02T14:21:19.739Z</time></trkpt><trkpt lat="39.4246439" lon="20.3132446"><ele>30.5</ele><time>2026-05-02T14:21:20.739Z</time></trkpt><trkpt lat="39.4248655" lon="20.3129826"><ele>29.0</ele><time>2026-05-02T14:21:21.74Z</time></trkpt><trkpt lat="39.4250832" lon="20.312723"><ele>29.0</ele><time>2026-05-02T14:21:22.739Z</time></trkpt><trkpt lat="39.4252994" lon="20.3124636"><ele>29.0</ele><time>2026-05-02T14:21:23.739Z</time></trkpt><trkpt lat="39.4255137" lon="20.3122019"><ele>29.5</ele><time>2026-05-02T14:21:24.739Z</time></trkpt><trkpt lat="39.4257245" lon="20.3119456"><ele>30.0</ele><time>2026-05-02T14:21:25.739Z</time></trkpt><trkpt lat="39.425933" lon="20.3116911"><ele>30.0</ele><time>2026-05-02T14:21:26.74Z</time></trkpt><trkpt lat="39.4261427" lon="20.311436"><ele>30.0</ele><time>2026-05-02T14:21:27.74Z</time></trkpt><trkpt lat="39.4263554" lon="20.3111774"><ele>30.5</ele><time>2026-05-02T14:21:28.739Z</time></trkpt><trkpt lat="39.426571" lon="20.3109173"><ele>31.0</ele><time>2026-05-02T14:21:29.739Z</time></trkpt><trkpt lat="39.4267836" lon="20.3106605"><ele>31.0</ele><time>2026-05-02T14:21:30.74Z</time></trkpt><trkpt lat="39.4269976" lon="20.3104019"><ele>31.0</ele><time>2026-05-02T14:21:31.74Z</time></trkpt><trkpt lat="39.4272091" lon="20.3101437"><ele>31.0</ele><time>2026-05-02T14:21:32.74Z</time></trkpt><trkpt lat="39.4274162" lon="20.3098917"><ele>31.0</ele><time>2026-05-02T14:21:33.739Z</time></trkpt><trkpt lat="39.4276179" lon="20.3096471"><ele>31.5</ele><time>2026-05-02T14:21:34.74Z</time></trkpt><trkpt lat="39.4278189" lon="20.3094034"><ele>32.0</ele><time>2026-05-02T14:21:35.74Z</time></trkpt><trkpt lat="39.4280211" lon="20.3091605"><ele>32.0</ele><time>2026-05-02T14:21:36.739Z</time></trkpt><trkpt lat="39.42822" lon="20.3089169"><ele>32.0</ele><time>2026-05-02T14:21:37.739Z</time></trkpt><trkpt lat="39.4284159" lon="20.3086719"><ele>32.0</ele><time>2026-05-02T14:21:38.739Z</time></trkpt><trkpt lat="39.4286139" lon="20.3084259"><ele>32.0</ele><time>2026-05-02T14:21:39.74Z</time></trkpt><trkpt lat="39.4288095" lon="20.3081757"><ele>28.0</ele><time>2026-05-02T14:21:40.739Z</time></trkpt><trkpt lat="39.429004" lon="20.3079144"><ele>24.0</ele><time>2026-05-02T14:21:41.739Z</time></trkpt><trkpt lat="39.4291886" lon="20.3076403"><ele>24.0</ele><time>2026-05-02T14:21:42.739Z</time></trkpt><trkpt lat="39.4293658" lon="20.307352"><ele>24.0</ele><time>2026-05-02T14:21:43.74Z</time></trkpt><trkpt lat="39.4295363" lon="20.3070532"><ele>24.5</ele><time>2026-05-02T14:21:44.74Z</time></trkpt><trkpt lat="39.4297026" lon="20.3067512"><ele>25.0</ele><time>2026-05-02T14:21:45.74Z</time></trkpt><trkpt lat="39.429868" lon="20.3064478"><ele>24.0</ele><time>2026-05-02T14:21:46.74Z</time></trkpt><trkpt lat="39.4300331" lon="20.3061419"><ele>23.0</ele><time>2026-05-02T14:21:47.739Z</time></trkpt><trkpt lat="39.430194" lon="20.3058393"><ele>23.0</ele><time>2026-05-02T14:21:48.74Z</time></trkpt><trkpt lat="39.4303604" lon="20.305533"><ele>23.0</ele><time>2026-05-02T14:21:49.74Z</time></trkpt><trkpt lat="39.4305215" lon="20.3052322"><ele>23.0</ele><time>2026-05-02T14:21:50.739Z</time></trkpt><trkpt lat="39.4306841" lon="20.3049326"><ele>23.0</ele><time>2026-05-02T14:21:51.739Z</time></trkpt><trkpt lat="39.4308439" lon="20.3046291"><ele>22.0</ele><time>2026-05-02T14:21:52.74Z</time></trkpt><trkpt lat="39.4310035" lon="20.3043278"><ele>21.0</ele><time>2026-05-02T14:21:53.739Z</time></trkpt><trkpt lat="39.4311652" lon="20.3040253"><ele>19.5</ele><time>2026-05-02T14:21:54.74Z</time></trkpt><trkpt lat="39.4313309" lon="20.3037182"><ele>18.0</ele><time>2026-05-02T14:21:55.74Z</time></trkpt><trkpt lat="39.4315023" lon="20.3034037"><ele>18.0</ele><time>2026-05-02T14:21:56.739Z</time></trkpt><trkpt lat="39.4316772" lon="20.3030873"><ele>18.0</ele><time>2026-05-02T14:21:57.74Z</time></trkpt><trkpt lat="39.4318596" lon="20.3027681"><ele>18.0</ele><time>2026-05-02T14:21:58.74Z</time></trkpt><trkpt lat="39.4320371" lon="20.302458"><ele>18.0</ele><time>2026-05-02T14:21:59.739Z</time></trkpt><trkpt lat="39.4322187" lon="20.3021509"><ele>18.0</ele><time>2026-05-02T14:22:00.74Z</time></trkpt><trkpt lat="39.4324025" lon="20.301849"><ele>18.0</ele><time>2026-05-02T14:22:01.74Z</time></trkpt><trkpt lat="39.4325876" lon="20.3015547"><ele>17.5</ele><time>2026-05-02T14:22:02.739Z</time></trkpt><trkpt lat="39.432772" lon="20.3012699"><ele>17.0</ele><time>2026-05-02T14:22:03.739Z</time></trkpt><trkpt lat="39.4329532" lon="20.3009898"><ele>17.0</ele><time>2026-05-02T14:22:04.74Z</time></trkpt><trkpt lat="39.4331324" lon="20.3007164"><ele>17.0</ele><time>2026-05-02T14:22:05.74Z</time></trkpt><trkpt lat="39.4333117" lon="20.3004483"><ele>17.0</ele><time>2026-05-02T14:22:06.739Z</time></trkpt><trkpt lat="39.4334897" lon="20.3001824"><ele>17.0</ele><time>2026-05-02T14:22:07.74Z</time></trkpt><trkpt lat="39.4336699" lon="20.2999143"><ele>16.5</ele><time>2026-05-02T14:22:08.74Z</time></trkpt><trkpt lat="39.4338475" lon="20.2996492"><ele>16.0</ele><time>2026-05-02T14:22:09.74Z</time></trkpt><trkpt lat="39.4340244" lon="20.2993849"><ele>16.0</ele><time>2026-05-02T14:22:10.739Z</time></trkpt><trkpt lat="39.4341999" lon="20.299121"><ele>16.0</ele><time>2026-05-02T14:22:11.74Z</time></trkpt><trkpt lat="39.4343757" lon="20.2988602"><ele>16.0</ele><time>2026-05-02T14:22:12.74Z</time></trkpt><trkpt lat="39.4345476" lon="20.2985995"><ele>16.0</ele><time>2026-05-02T14:22:13.74Z</time></trkpt><trkpt lat="39.4347184" lon="20.2983404"><ele>16.0</ele><time>2026-05-02T14:22:14.74Z</time></trkpt><trkpt lat="39.4348875" lon="20.2980846"><ele>16.0</ele><time>2026-05-02T14:22:15.739Z</time></trkpt><trkpt lat="39.4350576" lon="20.2978341"><ele>16.0</ele><time>2026-05-02T14:22:16.739Z</time></trkpt><trkpt lat="39.435226" lon="20.2975813"><ele>16.0</ele><time>2026-05-02T14:22:17.74Z</time></trkpt><trkpt lat="39.4353989" lon="20.2973222"><ele>15.5</ele><time>2026-05-02T14:22:18.74Z</time></trkpt><trkpt lat="39.4355783" lon="20.297061"><ele>15.0</ele><time>2026-05-02T14:22:19.739Z</time></trkpt><trkpt lat="39.435759" lon="20.2967935"><ele>15.0</ele><time>2026-05-02T14:22:20.739Z</time></trkpt><trkpt lat="39.4359427" lon="20.2965262"><ele>15.0</ele><time>2026-05-02T14:22:21.74Z</time></trkpt><trkpt lat="39.4361252" lon="20.2962619"><ele>14.5</ele><time>2026-05-02T14:22:22.739Z</time></trkpt><trkpt lat="39.4363114" lon="20.2960076"><ele>14.0</ele><time>2026-05-02T14:22:23.74Z</time></trkpt><trkpt lat="39.4364983" lon="20.2957555"><ele>13.5</ele><time>2026-05-02T14:22:24.74Z</time></trkpt><trkpt lat="39.4366838" lon="20.2955075"><ele>13.0</ele><time>2026-05-02T14:22:25.739Z</time></trkpt><trkpt lat="39.4368662" lon="20.2952592"><ele>13.0</ele><time>2026-05-02T14:22:26.739Z</time></trkpt><trkpt lat="39.437049" lon="20.2950121"><ele>13.0</ele><time>2026-05-02T14:22:27.739Z</time></trkpt><trkpt lat="39.437231" lon="20.2947665"><ele>12.5</ele><time>2026-05-02T14:22:28.74Z</time></trkpt><trkpt lat="39.4374096" lon="20.29452"><ele>12.0</ele><time>2026-05-02T14:22:29.739Z</time></trkpt><trkpt lat="39.4375876" lon="20.2942758"><ele>12.0</ele><time>2026-05-02T14:22:30.739Z</time></trkpt><trkpt lat="39.4377622" lon="20.2940284"><ele>12.0</ele><time>2026-05-02T14:22:31.739Z</time></trkpt><trkpt lat="39.4379357" lon="20.2937788"><ele>11.5</ele><time>2026-05-02T14:22:32.74Z</time></trkpt><trkpt lat="39.4381039" lon="20.2935293"><ele>11.0</ele><time>2026-05-02T14:22:33.739Z</time></trkpt><trkpt lat="39.43827" lon="20.2932806"><ele>11.0</ele><time>2026-05-02T14:22:34.74Z</time></trkpt><trkpt lat="39.4384347" lon="20.2930296"><ele>11.0</ele><time>2026-05-02T14:22:35.739Z</time></trkpt><trkpt lat="39.4386013" lon="20.2927789"><ele>11.0</ele><time>2026-05-02T14:22:36.739Z</time></trkpt><trkpt lat="39.4387707" lon="20.2925228"><ele>11.0</ele><time>2026-05-02T14:22:37.74Z</time></trkpt><trkpt lat="39.4389519" lon="20.2922492"><ele>10.0</ele><time>2026-05-02T14:22:38.74Z</time></trkpt><trkpt lat="39.439125" lon="20.2919929"><ele>9.0</ele><time>2026-05-02T14:22:39.74Z</time></trkpt><trkpt lat="39.4392995" lon="20.291738"><ele>9.0</ele><time>2026-05-02T14:22:40.739Z</time></trkpt><trkpt lat="39.4394713" lon="20.2914824"><ele>9.0</ele><time>2026-05-02T14:22:41.74Z</time></trkpt><trkpt lat="39.4396392" lon="20.291227"><ele>9.5</ele><time>2026-05-02T14:22:42.739Z</time></trkpt><trkpt lat="39.4398044" lon="20.2909709"><ele>10.0</ele><time>2026-05-02T14:22:43.739Z</time></trkpt><trkpt lat="39.4399701" lon="20.2907115"><ele>9.5</ele><time>2026-05-02T14:22:44.739Z</time></trkpt><trkpt lat="39.4401355" lon="20.2904504"><ele>9.0</ele><time>2026-05-02T14:22:45.739Z</time></trkpt><trkpt lat="39.4403043" lon="20.2901873"><ele>9.0</ele><time>2026-05-02T14:22:46.74Z</time></trkpt><trkpt lat="39.4404718" lon="20.2899228"><ele>9.0</ele><time>2026-05-02T14:22:47.74Z</time></trkpt><trkpt lat="39.4406546" lon="20.2896352"><ele>9.0</ele><time>2026-05-02T14:22:48.739Z</time></trkpt><trkpt lat="39.4408264" lon="20.2893643"><ele>9.0</ele><time>2026-05-02T14:22:49.739Z</time></trkpt><trkpt lat="39.4410019" lon="20.2890895"><ele>7.5</ele><time>2026-05-02T14:22:50.739Z</time></trkpt><trkpt lat="39.4411775" lon="20.288812"><ele>6.0</ele><time>2026-05-02T14:22:51.739Z</time></trkpt><trkpt lat="39.4413537" lon="20.2885344"><ele>6.0</ele><time>2026-05-02T14:22:52.739Z</time></trkpt><trkpt lat="39.4415314" lon="20.288256"><ele>6.0</ele><time>2026-05-02T14:22:53.739Z</time></trkpt><trkpt lat="39.4417067" lon="20.2879795"><ele>5.5</ele><time>2026-05-02T14:22:54.74Z</time></trkpt><trkpt lat="39.4418821" lon="20.2877023"><ele>5.0</ele><time>2026-05-02T14:22:55.739Z</time></trkpt><trkpt lat="39.4420595" lon="20.2874243"><ele>6.0</ele><time>2026-05-02T14:22:56.739Z</time></trkpt><trkpt lat="39.4422339" lon="20.2871464"><ele>7.0</ele><time>2026-05-02T14:22:57.74Z</time></trkpt><trkpt lat="39.4424122" lon="20.2868687"><ele>7.0</ele><time>2026-05-02T14:22:58.739Z</time></trkpt><trkpt lat="39.4425872" lon="20.2865904"><ele>7.0</ele><time>2026-05-02T14:22:59.74Z</time></trkpt><trkpt lat="39.4427614" lon="20.2863112"><ele>7.0</ele><time>2026-05-02T14:23:00.739Z</time></trkpt><trkpt lat="39.4429382" lon="20.2860338"><ele>7.0</ele><time>2026-05-02T14:23:01.739Z</time></trkpt><trkpt lat="39.4431148" lon="20.2857557"><ele>6.5</ele><time>2026-05-02T14:23:02.739Z</time></trkpt><trkpt lat="39.4432928" lon="20.2854762"><ele>6.0</ele><time>2026-05-02T14:23:03.74Z</time></trkpt><trkpt lat="39.4434726" lon="20.2851919"><ele>6.0</ele><time>2026-05-02T14:23:04.74Z</time></trkpt><trkpt lat="39.4436539" lon="20.2849059"><ele>6.0</ele><time>2026-05-02T14:23:05.739Z</time></trkpt><trkpt lat="39.4438352" lon="20.2846198"><ele>6.5</ele><time>2026-05-02T14:23:06.74Z</time></trkpt><trkpt lat="39.4440154" lon="20.2843371"><ele>7.0</ele><time>2026-05-02T14:23:07.74Z</time></trkpt><trkpt lat="39.4441941" lon="20.2840561"><ele>6.0</ele><time>2026-05-02T14:23:08.74Z</time></trkpt><trkpt lat="39.4443708" lon="20.2837772"><ele>5.0</ele><time>2026-05-02T14:23:09.74Z</time></trkpt><trkpt lat="39.4445469" lon="20.2834978"><ele>4.0</ele><time>2026-05-02T14:23:10.74Z</time></trkpt><trkpt lat="39.4447265" lon="20.2832207"><ele>3.0</ele><time>2026-05-02T14:23:11.74Z</time></trkpt><trkpt lat="39.4449097" lon="20.2829457"><ele>2.5</ele><time>2026-05-02T14:23:12.739Z</time></trkpt><trkpt lat="39.445099" lon="20.2826773"><ele>2.0</ele><time>2026-05-02T14:23:13.74Z</time></trkpt><trkpt lat="39.4452882" lon="20.2824153"><ele>2.0</ele><time>2026-05-02T14:23:14.74Z</time></trkpt><trkpt lat="39.4454819" lon="20.2821722"><ele>2.0</ele><time>2026-05-02T14:23:15.74Z</time></trkpt><trkpt lat="39.4456726" lon="20.2819493"><ele>2.0</ele><time>2026-05-02T14:23:16.74Z</time></trkpt><trkpt lat="39.4458631" lon="20.281748"><ele>2.0</ele><time>2026-05-02T14:23:17.74Z</time></trkpt><trkpt lat="39.4460528" lon="20.2815644"><ele>2.0</ele><time>2026-05-02T14:23:18.74Z</time></trkpt><trkpt lat="39.4462479" lon="20.2813878"><ele>2.0</ele><time>2026-05-02T14:23:19.74Z</time></trkpt><trkpt lat="39.4464358" lon="20.2812241"><ele>1.6666666666666665</ele><time>2026-05-02T14:23:20.74Z</time></trkpt><trkpt lat="39.446617" lon="20.2810682"><ele>1.3333333333333333</ele><time>2026-05-02T14:23:21.74Z</time></trkpt><trkpt lat="39.4467919" lon="20.2809184"><ele>1.0</ele><time>2026-05-02T14:23:22.74Z</time></trkpt><trkpt lat="39.446964" lon="20.2807751"><ele>1.0</ele><time>2026-05-02T14:23:23.739Z</time></trkpt><trkpt lat="39.4471348" lon="20.280633"><ele>1.0</ele><time>2026-05-02T14:23:24.739Z</time></trkpt><trkpt lat="39.4472926" lon="20.2805059"><ele>1.0</ele><time>2026-05-02T14:23:25.74Z</time></trkpt><trkpt lat="39.4474427" lon="20.2803916"><ele>1.0</ele><time>2026-05-02T14:23:26.74Z</time></trkpt><trkpt lat="39.4475895" lon="20.2802806"><ele>1.0</ele><time>2026-05-02T14:23:27.739Z</time></trkpt><trkpt lat="39.4477276" lon="20.2801714"><ele>1.0</ele><time>2026-05-02T14:23:28.739Z</time></trkpt><trkpt lat="39.4478603" lon="20.2800663"><ele>1.25</ele><time>2026-05-02T14:23:29.739Z</time></trkpt><trkpt lat="39.4479825" lon="20.2799721"><ele>1.5</ele><time>2026-05-02T14:23:30.74Z</time></trkpt><trkpt lat="39.4480886" lon="20.2798883"><ele>1.75</ele><time>2026-05-02T14:23:31.74Z</time></trkpt><trkpt lat="39.4481859" lon="20.2798143"><ele>2.0</ele><time>2026-05-02T14:23:32.74Z</time></trkpt><trkpt lat="39.4482798" lon="20.2797428"><ele>2.0</ele><time>2026-05-02T14:23:33.739Z</time></trkpt><trkpt lat="39.4483726" lon="20.2796802"><ele>2.0</ele><time>2026-05-02T14:23:34.739Z</time></trkpt><trkpt lat="39.4484681" lon="20.2796312"><ele>2.0</ele><time>2026-05-02T14:23:35.74Z</time></trkpt><trkpt lat="39.4485585" lon="20.2795928"><ele>2.0</ele><time>2026-05-02T14:23:36.739Z</time></trkpt><trkpt lat="39.4486464" lon="20.2795572"><ele>2.0</ele><time>2026-05-02T14:23:37.74Z</time></trkpt><trkpt lat="39.4487358" lon="20.2795217"><ele>1.8</ele><time>2026-05-02T14:23:38.74Z</time></trkpt><trkpt lat="39.4488296" lon="20.2794946"><ele>1.6</ele><time>2026-05-02T14:23:39.739Z</time></trkpt><trkpt lat="39.4489318" lon="20.2794823"><ele>1.4000000000000001</ele><time>2026-05-02T14:23:40.74Z</time></trkpt><trkpt lat="39.449043" lon="20.2794836"><ele>1.2000000000000002</ele><time>2026-05-02T14:23:41.739Z</time></trkpt><trkpt lat="39.4491643" lon="20.2794809"><ele>1.0</ele><time>2026-05-02T14:23:42.739Z</time></trkpt><trkpt lat="39.4492899" lon="20.2794777"><ele>1.0</ele><time>2026-05-02T14:23:43.74Z</time></trkpt><trkpt lat="39.4494136" lon="20.2794749"><ele>1.0</ele><time>2026-05-02T14:23:44.74Z</time></trkpt><trkpt lat="39.4495275" lon="20.2794679"><ele>1.0</ele><time>2026-05-02T14:23:45.74Z</time></trkpt><trkpt lat="39.4496339" lon="20.2794649"><ele>1.0</ele><time>2026-05-02T14:23:46.739Z</time></trkpt><trkpt lat="39.4497348" lon="20.2794643"><ele>1.0</ele><time>2026-05-02T14:23:47.739Z</time></trkpt><trkpt lat="39.4498381" lon="20.2794698"><ele>1.4</ele><time>2026-05-02T14:23:48.739Z</time></trkpt><trkpt lat="39.4499455" lon="20.2794712"><ele>1.8</ele><time>2026-05-02T14:23:49.74Z</time></trkpt><trkpt lat="39.4500494" lon="20.2794705"><ele>2.1999999999999997</ele><time>2026-05-02T14:23:50.74Z</time></trkpt><trkpt lat="39.4501571" lon="20.2794666"><ele>2.6</ele><time>2026-05-02T14:23:51.739Z</time></trkpt><trkpt lat="39.4502665" lon="20.2794634"><ele>3.0</ele><time>2026-05-02T14:23:52.739Z</time></trkpt><trkpt lat="39.4503749" lon="20.2794571"><ele>2.8</ele><time>2026-05-02T14:23:53.739Z</time></trkpt><trkpt lat="39.4504835" lon="20.2794543"><ele>2.5999999999999996</ele><time>2026-05-02T14:23:54.739Z</time></trkpt><trkpt lat="39.4505903" lon="20.2794516"><ele>2.4000000000000004</ele><time>2026-05-02T14:23:55.739Z</time></trkpt><trkpt lat="39.4507035" lon="20.2794503"><ele>2.2</ele><time>2026-05-02T14:23:56.74Z</time></trkpt><trkpt lat="39.4508199" lon="20.279453"><ele>2.0</ele><time>2026-05-02T14:23:57.739Z</time></trkpt><trkpt lat="39.4509402" lon="20.2794575"><ele>2.0</ele><time>2026-05-02T14:23:58.74Z</time></trkpt><trkpt lat="39.4510684" lon="20.2794566"><ele>2.0</ele><time>2026-05-02T14:23:59.74Z</time></trkpt><trkpt lat="39.4512048" lon="20.2794584"><ele>2.0</ele><time>2026-05-02T14:24:00.739Z</time></trkpt><trkpt lat="39.4513396" lon="20.2794574"><ele>2.0</ele><time>2026-05-02T14:24:01.739Z</time></trkpt><trkpt lat="39.4514741" lon="20.2794572"><ele>1.75</ele><time>2026-05-02T14:24:02.739Z</time></trkpt><trkpt lat="39.4516159" lon="20.279456"><ele>1.5</ele><time>2026-05-02T14:24:03.739Z</time></trkpt><trkpt lat="39.4517512" lon="20.2794531"><ele>1.25</ele><time>2026-05-02T14:24:04.74Z</time></trkpt><trkpt lat="39.4518916" lon="20.2794508"><ele>1.0</ele><time>2026-05-02T14:24:05.739Z</time></trkpt><trkpt lat="39.4520407" lon="20.2794458"><ele>1.3333333333333333</ele><time>2026-05-02T14:24:06.739Z</time></trkpt><trkpt lat="39.4521953" lon="20.2794461"><ele>1.6666666666666665</ele><time>2026-05-02T14:24:07.74Z</time></trkpt><trkpt lat="39.4523539" lon="20.2794524"><ele>2.0</ele><time>2026-05-02T14:24:08.74Z</time></trkpt><trkpt lat="39.4525176" lon="20.2794554"><ele>2.0</ele><time>2026-05-02T14:24:09.739Z</time></trkpt><trkpt lat="39.4526747" lon="20.2794502"><ele>2.0</ele><time>2026-05-02T14:24:10.739Z</time></trkpt><trkpt lat="39.4528284" lon="20.2794427"><ele>2.0</ele><time>2026-05-02T14:24:11.74Z</time></trkpt><trkpt lat="39.452982" lon="20.2794269"><ele>2.6666666666666665</ele><time>2026-05-02T14:24:12.739Z</time></trkpt><trkpt lat="39.453137" lon="20.2793976"><ele>3.333333333333333</ele><time>2026-05-02T14:24:13.739Z</time></trkpt><trkpt lat="39.4532958" lon="20.2793563"><ele>4.0</ele><time>2026-05-02T14:24:14.739Z</time></trkpt><trkpt lat="39.453456" lon="20.279298"><ele>4.0</ele><time>2026-05-02T14:24:15.74Z</time></trkpt><trkpt lat="39.45362" lon="20.2792219"><ele>4.0</ele><time>2026-05-02T14:24:16.74Z</time></trkpt><trkpt lat="39.4537834" lon="20.2791162"><ele>4.0</ele><time>2026-05-02T14:24:17.739Z</time></trkpt><trkpt lat="39.4539417" lon="20.2789836"><ele>5.333333333333333</ele><time>2026-05-02T14:24:18.74Z</time></trkpt><trkpt lat="39.4540924" lon="20.2788387"><ele>6.666666666666666</ele><time>2026-05-02T14:24:19.739Z</time></trkpt><trkpt lat="39.4542325" lon="20.2786877"><ele>8.0</ele><time>2026-05-02T14:24:20.739Z</time></trkpt><trkpt lat="39.4543689" lon="20.2785381"><ele>8.0</ele><time>2026-05-02T14:24:21.74Z</time></trkpt><trkpt lat="39.4545053" lon="20.2783912"><ele>8.0</ele><time>2026-05-02T14:24:22.74Z</time></trkpt><trkpt lat="39.4546377" lon="20.2782472"><ele>8.0</ele><time>2026-05-02T14:24:23.74Z</time></trkpt><trkpt lat="39.4547613" lon="20.2781102"><ele>9.0</ele><time>2026-05-02T14:24:24.739Z</time></trkpt><trkpt lat="39.4548777" lon="20.2779721"><ele>10.0</ele><time>2026-05-02T14:24:25.74Z</time></trkpt><trkpt lat="39.4549934" lon="20.2778354"><ele>11.0</ele><time>2026-05-02T14:24:26.74Z</time></trkpt><trkpt lat="39.4551015" lon="20.2776945"><ele>11.0</ele><time>2026-05-02T14:24:27.74Z</time></trkpt><trkpt lat="39.4551994" lon="20.2775494"><ele>11.0</ele><time>2026-05-02T14:24:28.739Z</time></trkpt><trkpt lat="39.4552816" lon="20.2773962"><ele>11.0</ele><time>2026-05-02T14:24:29.739Z</time></trkpt><trkpt lat="39.4553471" lon="20.2772324"><ele>11.0</ele><time>2026-05-02T14:24:30.74Z</time></trkpt><trkpt lat="39.4553878" lon="20.2770679"><ele>12.0</ele><time>2026-05-02T14:24:31.74Z</time></trkpt><trkpt lat="39.4554141" lon="20.2768827"><ele>13.0</ele><time>2026-05-02T14:24:32.739Z</time></trkpt><trkpt lat="39.4554207" lon="20.276684"><ele>14.0</ele><time>2026-05-02T14:24:33.74Z</time></trkpt><trkpt lat="39.4554084" lon="20.2764834"><ele>15.333333333333334</ele><time>2026-05-02T14:24:34.74Z</time></trkpt><trkpt lat="39.4553861" lon="20.2762835"><ele>16.666666666666668</ele><time>2026-05-02T14:24:35.74Z</time></trkpt><trkpt lat="39.4553578" lon="20.2760891"><ele>18.0</ele><time>2026-05-02T14:24:36.74Z</time></trkpt><trkpt lat="39.455328" lon="20.2758973"><ele>18.0</ele><time>2026-05-02T14:24:37.74Z</time></trkpt><trkpt lat="39.4552996" lon="20.2757097"><ele>18.0</ele><time>2026-05-02T14:24:38.739Z</time></trkpt><trkpt lat="39.4552689" lon="20.2755295"><ele>18.0</ele><time>2026-05-02T14:24:39.74Z</time></trkpt><trkpt lat="39.4552434" lon="20.2753498"><ele>18.0</ele><time>2026-05-02T14:24:40.739Z</time></trkpt><trkpt lat="39.4552285" lon="20.275172"><ele>18.5</ele><time>2026-05-02T14:24:41.739Z</time></trkpt><trkpt lat="39.4552295" lon="20.2749996"><ele>19.0</ele><time>2026-05-02T14:24:42.74Z</time></trkpt><trkpt lat="39.4552476" lon="20.274818"><ele>19.5</ele><time>2026-05-02T14:24:43.74Z</time></trkpt><trkpt lat="39.4552852" lon="20.2746309"><ele>20.0</ele><time>2026-05-02T14:24:44.739Z</time></trkpt><trkpt lat="39.4553428" lon="20.2744495"><ele>18.666666666666668</ele><time>2026-05-02T14:24:45.739Z</time></trkpt><trkpt lat="39.4554187" lon="20.2742744"><ele>17.333333333333332</ele><time>2026-05-02T14:24:46.739Z</time></trkpt><trkpt lat="39.4555149" lon="20.2741121"><ele>16.0</ele><time>2026-05-02T14:24:47.74Z</time></trkpt><trkpt lat="39.4556334" lon="20.2739616"><ele>19.666666666666664</ele><time>2026-05-02T14:24:48.74Z</time></trkpt><trkpt lat="39.4557625" lon="20.2738173"><ele>23.333333333333332</ele><time>2026-05-02T14:24:49.74Z</time></trkpt><trkpt lat="39.4558911" lon="20.2736672"><ele>27.0</ele><time>2026-05-02T14:24:50.74Z</time></trkpt><trkpt lat="39.4560128" lon="20.2735068"><ele>27.0</ele><time>2026-05-02T14:24:51.74Z</time></trkpt><trkpt lat="39.4561246" lon="20.2733368"><ele>27.0</ele><time>2026-05-02T14:24:52.739Z</time></trkpt><trkpt lat="39.4562273" lon="20.2731514"><ele>27.0</ele><time>2026-05-02T14:24:53.74Z</time></trkpt><trkpt lat="39.4563136" lon="20.2729539"><ele>33.0</ele><time>2026-05-02T14:24:54.74Z</time></trkpt><trkpt lat="39.4563879" lon="20.272748"><ele>39.0</ele><time>2026-05-02T14:24:55.739Z</time></trkpt><trkpt lat="39.4564487" lon="20.2725372"><ele>45.0</ele><time>2026-05-02T14:24:56.739Z</time></trkpt><trkpt lat="39.4564992" lon="20.2723188"><ele>45.0</ele><time>2026-05-02T14:24:57.739Z</time></trkpt><trkpt lat="39.4565342" lon="20.2721018"><ele>45.0</ele><time>2026-05-02T14:24:58.739Z</time></trkpt><trkpt lat="39.4565442" lon="20.2718855"><ele>45.0</ele><time>2026-05-02T14:24:59.74Z</time></trkpt><trkpt lat="39.4565291" lon="20.2716646"><ele>45.0</ele><time>2026-05-02T14:25:00.74Z</time></trkpt><trkpt lat="39.4565001" lon="20.2714545"><ele>45.0</ele><time>2026-05-02T14:25:01.739Z</time></trkpt><trkpt lat="39.4564662" lon="20.2712615"><ele>45.0</ele><time>2026-05-02T14:25:02.739Z</time></trkpt><trkpt lat="39.4564401" lon="20.2710696"><ele>45.333333333333336</ele><time>2026-05-02T14:25:03.739Z</time></trkpt><trkpt lat="39.4564492" lon="20.2708699"><ele>45.66666666666667</ele><time>2026-05-02T14:25:04.74Z</time></trkpt><trkpt lat="39.4564836" lon="20.2706781"><ele>46.0</ele><time>2026-05-02T14:25:05.74Z</time></trkpt><trkpt lat="39.4565543" lon="20.2704818"><ele>41.66666666666667</ele><time>2026-05-02T14:25:06.739Z</time></trkpt><trkpt lat="39.4566403" lon="20.2702846"><ele>37.333333333333336</ele><time>2026-05-02T14:25:07.739Z</time></trkpt><trkpt lat="39.4567318" lon="20.2700924"><ele>33.0</ele><time>2026-05-02T14:25:08.739Z</time></trkpt><trkpt lat="39.4568255" lon="20.2699056"><ele>34.0</ele><time>2026-05-02T14:25:09.74Z</time></trkpt><trkpt lat="39.456923" lon="20.269734"><ele>35.0</ele><time>2026-05-02T14:25:10.739Z</time></trkpt><trkpt lat="39.457028" lon="20.2695832"><ele>36.0</ele><time>2026-05-02T14:25:11.74Z</time></trkpt><trkpt lat="39.4571523" lon="20.2694629"><ele>36.0</ele><time>2026-05-02T14:25:12.739Z</time></trkpt><trkpt lat="39.4573058" lon="20.2693769"><ele>36.0</ele><time>2026-05-02T14:25:13.74Z</time></trkpt><trkpt lat="39.4574779" lon="20.269316"><ele>36.0</ele><time>2026-05-02T14:25:14.74Z</time></trkpt><trkpt lat="39.4576502" lon="20.2692749"><ele>36.0</ele><time>2026-05-02T14:25:15.74Z</time></trkpt><trkpt lat="39.457821" lon="20.2692339"><ele>36.0</ele><time>2026-05-02T14:25:16.74Z</time></trkpt><trkpt lat="39.4579751" lon="20.2691637"><ele>36.0</ele><time>2026-05-02T14:25:17.739Z</time></trkpt><trkpt lat="39.458114" lon="20.2690609"><ele>37.0</ele><time>2026-05-02T14:25:18.739Z</time></trkpt><trkpt lat="39.4582254" lon="20.2689108"><ele>38.0</ele><time>2026-05-02T14:25:19.739Z</time></trkpt><trkpt lat="39.4583237" lon="20.2687148"><ele>39.0</ele><time>2026-05-02T14:25:20.74Z</time></trkpt><trkpt lat="39.458408" lon="20.2684926"><ele>39.0</ele><time>2026-05-02T14:25:21.74Z</time></trkpt><trkpt lat="39.458484" lon="20.2682512"><ele>39.0</ele><time>2026-05-02T14:25:22.739Z</time></trkpt><trkpt lat="39.4585621" lon="20.2680051"><ele>39.0</ele><time>2026-05-02T14:25:23.74Z</time></trkpt><trkpt lat="39.4586447" lon="20.2677618"><ele>36.666666666666664</ele><time>2026-05-02T14:25:24.74Z</time></trkpt><trkpt lat="39.4587252" lon="20.267516"><ele>34.33333333333333</ele><time>2026-05-02T14:25:25.74Z</time></trkpt><trkpt lat="39.4588024" lon="20.2672678"><ele>32.0</ele><time>2026-05-02T14:25:26.74Z</time></trkpt><trkpt lat="39.4588821" lon="20.2670261"><ele>37.0</ele><time>2026-05-02T14:25:27.74Z</time></trkpt><trkpt lat="39.4589608" lon="20.2667863"><ele>42.0</ele><time>2026-05-02T14:25:28.739Z</time></trkpt><trkpt lat="39.4590394" lon="20.2665493"><ele>47.0</ele><time>2026-05-02T14:25:29.74Z</time></trkpt><trkpt lat="39.4591146" lon="20.2663183"><ele>47.0</ele><time>2026-05-02T14:25:30.74Z</time></trkpt><trkpt lat="39.4591964" lon="20.2660925"><ele>47.0</ele><time>2026-05-02T14:25:31.739Z</time></trkpt><trkpt lat="39.4592808" lon="20.2658713"><ele>47.0</ele><time>2026-05-02T14:25:32.739Z</time></trkpt><trkpt lat="39.4593733" lon="20.2656561"><ele>46.0</ele><time>2026-05-02T14:25:33.74Z</time></trkpt><trkpt lat="39.4594662" lon="20.265442"><ele>45.0</ele><time>2026-05-02T14:25:34.739Z</time></trkpt><trkpt lat="39.4595651" lon="20.2652337"><ele>44.0</ele><time>2026-05-02T14:25:35.74Z</time></trkpt><trkpt lat="39.4596662" lon="20.2650355"><ele>46.33333333333333</ele><time>2026-05-02T14:25:36.74Z</time></trkpt><trkpt lat="39.4597633" lon="20.2648461"><ele>48.666666666666664</ele><time>2026-05-02T14:25:37.739Z</time></trkpt><trkpt lat="39.4598582" lon="20.2646625"><ele>51.0</ele><time>2026-05-02T14:25:38.74Z</time></trkpt><trkpt lat="39.459946" lon="20.264478"><ele>51.0</ele><time>2026-05-02T14:25:39.739Z</time></trkpt><trkpt lat="39.4600235" lon="20.2642901"><ele>51.0</ele><time>2026-05-02T14:25:40.739Z</time></trkpt><trkpt lat="39.4600857" lon="20.264092"><ele>51.0</ele><time>2026-05-02T14:25:41.74Z</time></trkpt><trkpt lat="39.4601304" lon="20.2638881"><ele>48.666666666666664</ele><time>2026-05-02T14:25:42.74Z</time></trkpt><trkpt lat="39.460169" lon="20.2636813"><ele>46.33333333333333</ele><time>2026-05-02T14:25:43.739Z</time></trkpt><trkpt lat="39.4601948" lon="20.2634818"><ele>44.0</ele><time>2026-05-02T14:25:44.74Z</time></trkpt><trkpt lat="39.4602302" lon="20.2632822"><ele>41.0</ele><time>2026-05-02T14:25:45.739Z</time></trkpt><trkpt lat="39.4602749" lon="20.2630909"><ele>38.0</ele><time>2026-05-02T14:25:46.739Z</time></trkpt><trkpt lat="39.4603298" lon="20.262912"><ele>35.0</ele><time>2026-05-02T14:25:47.739Z</time></trkpt><trkpt lat="39.4603998" lon="20.262746"><ele>32.0</ele><time>2026-05-02T14:25:48.739Z</time></trkpt><trkpt lat="39.4604796" lon="20.2625978"><ele>31.75</ele><time>2026-05-02T14:25:49.739Z</time></trkpt><trkpt lat="39.4605763" lon="20.2624642"><ele>31.5</ele><time>2026-05-02T14:25:50.739Z</time></trkpt><trkpt lat="39.4606822" lon="20.2623536"><ele>31.25</ele><time>2026-05-02T14:25:51.74Z</time></trkpt><trkpt lat="39.4608001" lon="20.2622616"><ele>31.0</ele><time>2026-05-02T14:25:52.739Z</time></trkpt><trkpt lat="39.4609262" lon="20.2621869"><ele>31.0</ele><time>2026-05-02T14:25:53.74Z</time></trkpt><trkpt lat="39.4610511" lon="20.2621308"><ele>31.0</ele><time>2026-05-02T14:25:54.74Z</time></trkpt><trkpt lat="39.4611748" lon="20.2620853"><ele>31.0</ele><time>2026-05-02T14:25:55.74Z</time></trkpt><trkpt lat="39.4613033" lon="20.2620432"><ele>31.0</ele><time>2026-05-02T14:25:56.739Z</time></trkpt><trkpt lat="39.4614311" lon="20.2620016"><ele>33.75</ele><time>2026-05-02T14:25:57.74Z</time></trkpt><trkpt lat="39.4615613" lon="20.261961"><ele>36.5</ele><time>2026-05-02T14:25:58.74Z</time></trkpt><trkpt lat="39.4616887" lon="20.2619192"><ele>39.25</ele><time>2026-05-02T14:25:59.74Z</time></trkpt><trkpt lat="39.4618153" lon="20.2618786"><ele>42.0</ele><time>2026-05-02T14:26:00.74Z</time></trkpt><trkpt lat="39.4619401" lon="20.2618382"><ele>42.0</ele><time>2026-05-02T14:26:01.74Z</time></trkpt><trkpt lat="39.462062" lon="20.2617995"><ele>42.0</ele><time>2026-05-02T14:26:02.739Z</time></trkpt><trkpt lat="39.4621807" lon="20.2617616"><ele>42.0</ele><time>2026-05-02T14:26:03.74Z</time></trkpt><trkpt lat="39.4622984" lon="20.2617253"><ele>42.0</ele><time>2026-05-02T14:26:04.74Z</time></trkpt><trkpt lat="39.4624129" lon="20.2616904"><ele>45.25</ele><time>2026-05-02T14:26:05.739Z</time></trkpt><trkpt lat="39.4625253" lon="20.2616492"><ele>48.5</ele><time>2026-05-02T14:26:06.74Z</time></trkpt><trkpt lat="39.4626388" lon="20.2616018"><ele>51.75</ele><time>2026-05-02T14:26:07.739Z</time></trkpt><trkpt lat="39.462756" lon="20.2615444"><ele>55.0</ele><time>2026-05-02T14:26:08.739Z</time></trkpt><trkpt lat="39.4628728" lon="20.2614658"><ele>55.0</ele><time>2026-05-02T14:26:09.739Z</time></trkpt><trkpt lat="39.4629932" lon="20.2613673"><ele>55.0</ele><time>2026-05-02T14:26:10.74Z</time></trkpt><trkpt lat="39.4631051" lon="20.2612516"><ele>55.0</ele><time>2026-05-02T14:26:11.74Z</time></trkpt><trkpt lat="39.463209" lon="20.2611241"><ele>55.0</ele><time>2026-05-02T14:26:12.739Z</time></trkpt><trkpt lat="39.4633041" lon="20.2609719"><ele>55.0</ele><time>2026-05-02T14:26:13.74Z</time></trkpt><trkpt lat="39.4633856" lon="20.2608082"><ele>55.0</ele><time>2026-05-02T14:26:14.739Z</time></trkpt><trkpt lat="39.4634557" lon="20.2606271"><ele>55.0</ele><time>2026-05-02T14:26:15.739Z</time></trkpt><trkpt lat="39.4635134" lon="20.2604301"><ele>54.666666666666664</ele><time>2026-05-02T14:26:16.74Z</time></trkpt><trkpt lat="39.4635615" lon="20.2602218"><ele>54.33333333333333</ele><time>2026-05-02T14:26:17.739Z</time></trkpt><trkpt lat="39.4635998" lon="20.2600137"><ele>54.0</ele><time>2026-05-02T14:26:18.739Z</time></trkpt><trkpt lat="39.4636361" lon="20.2597971"><ele>52.33333333333333</ele><time>2026-05-02T14:26:19.739Z</time></trkpt><trkpt lat="39.4636729" lon="20.2595918"><ele>50.666666666666664</ele><time>2026-05-02T14:26:20.74Z</time></trkpt><trkpt lat="39.4637104" lon="20.259388"><ele>49.0</ele><time>2026-05-02T14:26:21.74Z</time></trkpt><trkpt lat="39.4637492" lon="20.2591851"><ele>55.0</ele><time>2026-05-02T14:26:22.739Z</time></trkpt><trkpt lat="39.4637851" lon="20.2589849"><ele>61.0</ele><time>2026-05-02T14:26:23.74Z</time></trkpt><trkpt lat="39.4638223" lon="20.258791"><ele>67.0</ele><time>2026-05-02T14:26:24.739Z</time></trkpt><trkpt lat="39.4638621" lon="20.2586039"><ele>67.0</ele><time>2026-05-02T14:26:25.739Z</time></trkpt><trkpt lat="39.4639104" lon="20.2584215"><ele>67.0</ele><time>2026-05-02T14:26:26.74Z</time></trkpt><trkpt lat="39.4639648" lon="20.2582553"><ele>67.0</ele><time>2026-05-02T14:26:27.74Z</time></trkpt><trkpt lat="39.4640375" lon="20.2580906"><ele>67.0</ele><time>2026-05-02T14:26:28.739Z</time></trkpt><trkpt lat="39.4641221" lon="20.2579346"><ele>65.25</ele><time>2026-05-02T14:26:29.74Z</time></trkpt><trkpt lat="39.4642133" lon="20.257783"><ele>63.5</ele><time>2026-05-02T14:26:30.739Z</time></trkpt><trkpt lat="39.4643044" lon="20.2576302"><ele>61.75</ele><time>2026-05-02T14:26:31.739Z</time></trkpt><trkpt lat="39.464396" lon="20.2574759"><ele>60.0</ele><time>2026-05-02T14:26:32.739Z</time></trkpt><trkpt lat="39.4644866" lon="20.2573232"><ele>59.5</ele><time>2026-05-02T14:26:33.74Z</time></trkpt><trkpt lat="39.4645753" lon="20.2571695"><ele>59.0</ele><time>2026-05-02T14:26:34.739Z</time></trkpt><trkpt lat="39.4646625" lon="20.257026"><ele>58.5</ele><time>2026-05-02T14:26:35.739Z</time></trkpt><trkpt lat="39.4647491" lon="20.2568841"><ele>58.0</ele><time>2026-05-02T14:26:36.739Z</time></trkpt><trkpt lat="39.4648393" lon="20.2567429"><ele>57.75</ele><time>2026-05-02T14:26:37.739Z</time></trkpt><trkpt lat="39.4649315" lon="20.2565977"><ele>57.5</ele><time>2026-05-02T14:26:38.74Z</time></trkpt><trkpt lat="39.4650239" lon="20.2564499"><ele>57.25</ele><time>2026-05-02T14:26:39.74Z</time></trkpt><trkpt lat="39.4651165" lon="20.2563012"><ele>57.0</ele><time>2026-05-02T14:26:40.74Z</time></trkpt><trkpt lat="39.4652087" lon="20.2561518"><ele>57.0</ele><time>2026-05-02T14:26:41.739Z</time></trkpt><trkpt lat="39.4652979" lon="20.2559955"><ele>57.0</ele><time>2026-05-02T14:26:42.739Z</time></trkpt><trkpt lat="39.4653799" lon="20.2558328"><ele>57.0</ele><time>2026-05-02T14:26:43.74Z</time></trkpt><trkpt lat="39.4654549" lon="20.2556614"><ele>57.0</ele><time>2026-05-02T14:26:44.74Z</time></trkpt><trkpt lat="39.4655212" lon="20.2554826"><ele>57.0</ele><time>2026-05-02T14:26:45.739Z</time></trkpt><trkpt lat="39.4655813" lon="20.2553014"><ele>57.0</ele><time>2026-05-02T14:26:46.74Z</time></trkpt><trkpt lat="39.4656377" lon="20.2551209"><ele>57.0</ele><time>2026-05-02T14:26:47.739Z</time></trkpt><trkpt lat="39.4656889" lon="20.2549395"><ele>57.0</ele><time>2026-05-02T14:26:48.739Z</time></trkpt><trkpt lat="39.4657357" lon="20.2547547"><ele>57.0</ele><time>2026-05-02T14:26:49.739Z</time></trkpt><trkpt lat="39.465784" lon="20.2545722"><ele>57.0</ele><time>2026-05-02T14:26:50.739Z</time></trkpt><trkpt lat="39.4658347" lon="20.2543878"><ele>56.0</ele><time>2026-05-02T14:26:51.739Z</time></trkpt><trkpt lat="39.4658827" lon="20.2542033"><ele>55.0</ele><time>2026-05-02T14:26:52.74Z</time></trkpt><trkpt lat="39.4659298" lon="20.2540185"><ele>54.0</ele><time>2026-05-02T14:26:53.74Z</time></trkpt><trkpt lat="39.4659768" lon="20.2538397"><ele>53.0</ele><time>2026-05-02T14:26:54.739Z</time></trkpt><trkpt lat="39.4660251" lon="20.2536526"><ele>51.0</ele><time>2026-05-02T14:26:55.739Z</time></trkpt><trkpt lat="39.4660708" lon="20.2534641"><ele>49.0</ele><time>2026-05-02T14:26:56.739Z</time></trkpt><trkpt lat="39.4661193" lon="20.2532741"><ele>47.0</ele><time>2026-05-02T14:26:57.739Z</time></trkpt><trkpt lat="39.4661699" lon="20.2530842"><ele>45.33333333333333</ele><time>2026-05-02T14:26:58.739Z</time></trkpt><trkpt lat="39.4662144" lon="20.2528974"><ele>43.666666666666664</ele><time>2026-05-02T14:26:59.74Z</time></trkpt><trkpt lat="39.4662674" lon="20.2527109"><ele>42.0</ele><time>2026-05-02T14:27:00.74Z</time></trkpt><trkpt lat="39.4663214" lon="20.2525284"><ele>43.666666666666664</ele><time>2026-05-02T14:27:01.74Z</time></trkpt><trkpt lat="39.4663894" lon="20.2523439"><ele>45.33333333333333</ele><time>2026-05-02T14:27:02.739Z</time></trkpt><trkpt lat="39.4664662" lon="20.2521726"><ele>47.0</ele><time>2026-05-02T14:27:03.739Z</time></trkpt><trkpt lat="39.4665532" lon="20.2520033"><ele>47.0</ele><time>2026-05-02T14:27:04.74Z</time></trkpt><trkpt lat="39.4666515" lon="20.2518384"><ele>47.0</ele><time>2026-05-02T14:27:05.74Z</time></trkpt><trkpt lat="39.4667615" lon="20.2516719"><ele>47.0</ele><time>2026-05-02T14:27:06.739Z</time></trkpt><trkpt lat="39.466877" lon="20.251504"><ele>46.33333333333333</ele><time>2026-05-02T14:27:07.74Z</time></trkpt><trkpt lat="39.4670012" lon="20.2513388"><ele>45.666666666666664</ele><time>2026-05-02T14:27:08.74Z</time></trkpt><trkpt lat="39.4671264" lon="20.2511655"><ele>45.0</ele><time>2026-05-02T14:27:09.74Z</time></trkpt><trkpt lat="39.4672558" lon="20.2509901"><ele>45.0</ele><time>2026-05-02T14:27:10.74Z</time></trkpt><trkpt lat="39.4673849" lon="20.2508125"><ele>45.0</ele><time>2026-05-02T14:27:11.739Z</time></trkpt><trkpt lat="39.4675133" lon="20.2506353"><ele>45.0</ele><time>2026-05-02T14:27:12.739Z</time></trkpt><trkpt lat="39.4676402" lon="20.2504594"><ele>44.0</ele><time>2026-05-02T14:27:13.739Z</time></trkpt><trkpt lat="39.4677684" lon="20.2502833"><ele>43.0</ele><time>2026-05-02T14:27:14.74Z</time></trkpt><trkpt lat="39.4678972" lon="20.2501072"><ele>42.0</ele><time>2026-05-02T14:27:15.74Z</time></trkpt><trkpt lat="39.4680259" lon="20.2499312"><ele>37.333333333333336</ele><time>2026-05-02T14:27:16.739Z</time></trkpt><trkpt lat="39.4681547" lon="20.2497581"><ele>32.66666666666667</ele><time>2026-05-02T14:27:17.74Z</time></trkpt><trkpt lat="39.4682788" lon="20.2495856"><ele>28.0</ele><time>2026-05-02T14:27:18.739Z</time></trkpt><trkpt lat="39.4684064" lon="20.2494118"><ele>28.0</ele><time>2026-05-02T14:27:19.74Z</time></trkpt><trkpt lat="39.4685324" lon="20.249238"><ele>28.0</ele><time>2026-05-02T14:27:20.74Z</time></trkpt><trkpt lat="39.468655" lon="20.2490669"><ele>28.0</ele><time>2026-05-02T14:27:21.74Z</time></trkpt><trkpt lat="39.4687774" lon="20.2488986"><ele>27.666666666666668</ele><time>2026-05-02T14:27:22.739Z</time></trkpt><trkpt lat="39.4688989" lon="20.2487365"><ele>27.333333333333336</ele><time>2026-05-02T14:27:23.739Z</time></trkpt><trkpt lat="39.4690165" lon="20.2485749"><ele>27.0</ele><time>2026-05-02T14:27:24.74Z</time></trkpt><trkpt lat="39.469135" lon="20.2484117"><ele>27.0</ele><time>2026-05-02T14:27:25.739Z</time></trkpt><trkpt lat="39.4692507" lon="20.2482492"><ele>27.0</ele><time>2026-05-02T14:27:26.739Z</time></trkpt><trkpt lat="39.4693714" lon="20.2480823"><ele>27.0</ele><time>2026-05-02T14:27:27.74Z</time></trkpt><trkpt lat="39.4694968" lon="20.2479153"><ele>27.0</ele><time>2026-05-02T14:27:28.739Z</time></trkpt><trkpt lat="39.4696245" lon="20.2477469"><ele>27.0</ele><time>2026-05-02T14:27:29.74Z</time></trkpt><trkpt lat="39.4697537" lon="20.2475716"><ele>27.0</ele><time>2026-05-02T14:27:30.739Z</time></trkpt><trkpt lat="39.469883" lon="20.2473911"><ele>22.333333333333332</ele><time>2026-05-02T14:27:31.74Z</time></trkpt><trkpt lat="39.4700166" lon="20.2472059"><ele>17.666666666666664</ele><time>2026-05-02T14:27:32.74Z</time></trkpt><trkpt lat="39.4701491" lon="20.2470229"><ele>13.0</ele><time>2026-05-02T14:27:33.739Z</time></trkpt><trkpt lat="39.4702852" lon="20.246835"><ele>13.0</ele><time>2026-05-02T14:27:34.739Z</time></trkpt><trkpt lat="39.470421" lon="20.246647"><ele>13.0</ele><time>2026-05-02T14:27:35.74Z</time></trkpt><trkpt lat="39.4705542" lon="20.2464611"><ele>13.0</ele><time>2026-05-02T14:27:36.739Z</time></trkpt><trkpt lat="39.470686" lon="20.2462753"><ele>14.666666666666666</ele><time>2026-05-02T14:27:37.74Z</time></trkpt><trkpt lat="39.4708231" lon="20.2460889"><ele>16.333333333333332</ele><time>2026-05-02T14:27:38.74Z</time></trkpt><trkpt lat="39.4709571" lon="20.2459033"><ele>18.0</ele><time>2026-05-02T14:27:39.74Z</time></trkpt><trkpt lat="39.4710804" lon="20.2457199"><ele>19.666666666666668</ele><time>2026-05-02T14:27:40.74Z</time></trkpt><trkpt lat="39.4712093" lon="20.2455248"><ele>21.333333333333336</ele><time>2026-05-02T14:27:41.739Z</time></trkpt><trkpt lat="39.4713356" lon="20.2453266"><ele>23.0</ele><time>2026-05-02T14:27:42.739Z</time></trkpt><trkpt lat="39.4714614" lon="20.2451295"><ele>23.0</ele><time>2026-05-02T14:27:43.74Z</time></trkpt><trkpt lat="39.4715838" lon="20.244938"><ele>23.0</ele><time>2026-05-02T14:27:44.74Z</time></trkpt><trkpt lat="39.4717019" lon="20.2447558"><ele>23.0</ele><time>2026-05-02T14:27:45.74Z</time></trkpt><trkpt lat="39.4718038" lon="20.2445966"><ele>24.0</ele><time>2026-05-02T14:27:46.74Z</time></trkpt><trkpt lat="39.4718953" lon="20.2444554"><ele>25.0</ele><time>2026-05-02T14:27:47.74Z</time></trkpt><trkpt lat="39.4719718" lon="20.2443346"><ele>26.0</ele><time>2026-05-02T14:27:48.739Z</time></trkpt><trkpt lat="39.4720408" lon="20.2442224"><ele>27.0</ele><time>2026-05-02T14:27:49.74Z</time></trkpt><trkpt lat="39.4721075" lon="20.2441144"><ele>27.0</ele><time>2026-05-02T14:27:50.74Z</time></trkpt><trkpt lat="39.472161" lon="20.2440156"><ele>27.0</ele><time>2026-05-02T14:27:51.74Z</time></trkpt><trkpt lat="39.472199" lon="20.2439171"><ele>27.0</ele><time>2026-05-02T14:27:52.739Z</time></trkpt><trkpt lat="39.4722286" lon="20.2438187"><ele>27.0</ele><time>2026-05-02T14:27:53.74Z</time></trkpt><trkpt lat="39.472254" lon="20.2437249"><ele>27.0</ele><time>2026-05-02T14:27:54.74Z</time></trkpt><trkpt lat="39.4722855" lon="20.243643"><ele>27.0</ele><time>2026-05-02T14:27:55.739Z</time></trkpt><trkpt lat="39.4723206" lon="20.2435588"><ele>25.0</ele><time>2026-05-02T14:27:56.74Z</time></trkpt><trkpt lat="39.4723657" lon="20.2434768"><ele>23.0</ele><time>2026-05-02T14:27:57.739Z</time></trkpt><trkpt lat="39.4724102" lon="20.24339"><ele>21.0</ele><time>2026-05-02T14:27:58.74Z</time></trkpt><trkpt lat="39.4724579" lon="20.2433015"><ele>19.0</ele><time>2026-05-02T14:27:59.74Z</time></trkpt><trkpt lat="39.4725116" lon="20.2432121"><ele>17.0</ele><time>2026-05-02T14:28:00.74Z</time></trkpt><trkpt lat="39.4725685" lon="20.2431131"><ele>15.0</ele><time>2026-05-02T14:28:01.74Z</time></trkpt><trkpt lat="39.4726229" lon="20.2430246"><ele>13.4</ele><time>2026-05-02T14:28:02.739Z</time></trkpt><trkpt lat="39.4726769" lon="20.2429269"><ele>11.8</ele><time>2026-05-02T14:28:03.739Z</time></trkpt><trkpt lat="39.4727311" lon="20.2428257"><ele>10.2</ele><time>2026-05-02T14:28:04.739Z</time></trkpt><trkpt lat="39.4727852" lon="20.2427216"><ele>8.6</ele><time>2026-05-02T14:28:05.74Z</time></trkpt><trkpt lat="39.4728402" lon="20.2426196"><ele>7.0</ele><time>2026-05-02T14:28:06.74Z</time></trkpt><trkpt lat="39.4728904" lon="20.2425191"><ele>7.000000000000001</ele><time>2026-05-02T14:28:07.74Z</time></trkpt><trkpt lat="39.4729365" lon="20.2424191"><ele>7.0</ele><time>2026-05-02T14:28:08.74Z</time></trkpt><trkpt lat="39.4729817" lon="20.2423163"><ele>7.0</ele><time>2026-05-02T14:28:09.739Z</time></trkpt><trkpt lat="39.4730235" lon="20.2422211"><ele>7.0</ele><time>2026-05-02T14:28:10.739Z</time></trkpt><trkpt lat="39.4730651" lon="20.2421299"><ele>7.000000000000001</ele><time>2026-05-02T14:28:11.739Z</time></trkpt><trkpt lat="39.4731118" lon="20.2420453"><ele>7.0</ele><time>2026-05-02T14:28:12.739Z</time></trkpt><trkpt lat="39.4731566" lon="20.2419652"><ele>6.666666666666667</ele><time>2026-05-02T14:28:13.739Z</time></trkpt><trkpt lat="39.4732083" lon="20.2418889"><ele>6.333333333333334</ele><time>2026-05-02T14:28:14.74Z</time></trkpt><trkpt lat="39.4732489" lon="20.241811"><ele>6.0</ele><time>2026-05-02T14:28:15.74Z</time></trkpt><trkpt lat="39.4733113" lon="20.2416961"><ele>5.666666666666667</ele><time>2026-05-02T14:28:17.74Z</time></trkpt><trkpt lat="39.4733703" lon="20.2415839"><ele>5.333333333333334</ele><time>2026-05-02T14:28:19.74Z</time></trkpt><trkpt lat="39.4734123" lon="20.2415092"><ele>5.0</ele><time>2026-05-02T14:28:21.739Z</time></trkpt><trkpt lat="39.4734552" lon="20.2414182"><ele>5.0</ele><time>2026-05-02T14:28:24.74Z</time></trkpt><trkpt lat="39.4734921" lon="20.2413459"><ele>5.0</ele><time>2026-05-02T14:28:26.739Z</time></trkpt><trkpt lat="39.4735374" lon="20.2412673"><ele>5.0</ele><time>2026-05-02T14:28:28.74Z</time></trkpt><trkpt lat="39.4735839" lon="20.2411877"><ele>5.0</ele><time>2026-05-02T14:28:30.74Z</time></trkpt><trkpt lat="39.4736251" lon="20.241117"><ele>5.0</ele><time>2026-05-02T14:28:32.739Z</time></trkpt><trkpt lat="39.4736749" lon="20.2410311"><ele>5.0</ele><time>2026-05-02T14:28:35.739Z</time></trkpt><trkpt lat="39.473713" lon="20.2409444"><ele>5.0</ele><time>2026-05-02T14:28:48.74Z</time></trkpt><trkpt lat="39.4737562" lon="20.2408637"><ele>5.0</ele><time>2026-05-02T14:28:52.74Z</time></trkpt><trkpt lat="39.473709" lon="20.2407976"><ele>5.0</ele><time>2026-05-02T14:29:04.74Z</time></trkpt><trkpt lat="39.4736933" lon="20.2409033"><ele>5.0</ele><time>2026-05-02T14:29:09.74Z</time></trkpt><trkpt lat="39.4736706" lon="20.2409826"><ele>5.0</ele><time>2026-05-02T14:29:11.739Z</time></trkpt><trkpt lat="39.473631" lon="20.2410624"><ele>5.0</ele><time>2026-05-02T14:29:13.74Z</time></trkpt><trkpt lat="39.4735783" lon="20.241152"><ele>5.0</ele><time>2026-05-02T14:29:15.74Z</time></trkpt><trkpt lat="39.4735153" lon="20.2412635"><ele>5.0</ele><time>2026-05-02T14:29:17.739Z</time></trkpt><trkpt lat="39.4734352" lon="20.2413961"><ele>5.0</ele><time>2026-05-02T14:29:19.739Z</time></trkpt><trkpt lat="39.473398" lon="20.24147"><ele>5.0</ele><time>2026-05-02T14:29:20.74Z</time></trkpt><trkpt lat="39.4733265" lon="20.241605"><ele>5.0</ele><time>2026-05-02T14:29:22.74Z</time></trkpt><trkpt lat="39.473289" lon="20.2416714"><ele>5.0</ele><time>2026-05-02T14:29:23.739Z</time></trkpt><trkpt lat="39.4732521" lon="20.2417391"><ele>6.833333333333334</ele><time>2026-05-02T14:29:24.739Z</time></trkpt><trkpt lat="39.4732153" lon="20.2418061"><ele>8.666666666666666</ele><time>2026-05-02T14:29:25.739Z</time></trkpt><trkpt lat="39.47318" lon="20.2418778"><ele>10.5</ele><time>2026-05-02T14:29:26.74Z</time></trkpt><trkpt lat="39.4731407" lon="20.2419541"><ele>12.333333333333332</ele><time>2026-05-02T14:29:27.739Z</time></trkpt><trkpt lat="39.4730974" lon="20.2420384"><ele>14.166666666666666</ele><time>2026-05-02T14:29:28.74Z</time></trkpt><trkpt lat="39.473053" lon="20.242129"><ele>16.0</ele><time>2026-05-02T14:29:29.739Z</time></trkpt><trkpt lat="39.4730063" lon="20.2422291"><ele>14.200000000000001</ele><time>2026-05-02T14:29:30.739Z</time></trkpt><trkpt lat="39.4729547" lon="20.2423352"><ele>12.400000000000002</ele><time>2026-05-02T14:29:31.74Z</time></trkpt><trkpt lat="39.472901" lon="20.2424385"><ele>10.6</ele><time>2026-05-02T14:29:32.74Z</time></trkpt><trkpt lat="39.4728487" lon="20.242547"><ele>8.8</ele><time>2026-05-02T14:29:33.74Z</time></trkpt><trkpt lat="39.4727925" lon="20.2426547"><ele>7.0</ele><time>2026-05-02T14:29:34.74Z</time></trkpt><trkpt lat="39.4727358" lon="20.2427642"><ele>7.0</ele><time>2026-05-02T14:29:35.739Z</time></trkpt><trkpt lat="39.4726824" lon="20.2428692"><ele>6.999999999999999</ele><time>2026-05-02T14:29:36.74Z</time></trkpt><trkpt lat="39.4726251" lon="20.2429764"><ele>6.999999999999999</ele><time>2026-05-02T14:29:37.74Z</time></trkpt><trkpt lat="39.4725662" lon="20.2430797"><ele>7.0</ele><time>2026-05-02T14:29:38.74Z</time></trkpt><trkpt lat="39.4725083" lon="20.2431785"><ele>7.0</ele><time>2026-05-02T14:29:39.739Z</time></trkpt><trkpt lat="39.4724478" lon="20.2432756"><ele>8.333333333333334</ele><time>2026-05-02T14:29:40.74Z</time></trkpt><trkpt lat="39.4723944" lon="20.2433576"><ele>9.666666666666668</ele><time>2026-05-02T14:29:41.74Z</time></trkpt><trkpt lat="39.472354" lon="20.243428"><ele>11.0</ele><time>2026-05-02T14:29:42.74Z</time></trkpt><trkpt lat="39.4722883" lon="20.2435522"><ele>12.333333333333334</ele><time>2026-05-02T14:29:44.739Z</time></trkpt><trkpt lat="39.4722413" lon="20.243669"><ele>13.666666666666666</ele><time>2026-05-02T14:29:46.739Z</time></trkpt><trkpt lat="39.472282" lon="20.2437534"><ele>15.0</ele><time>2026-05-02T14:29:49.739Z</time></trkpt><trkpt lat="39.472372" lon="20.2437221"><ele>15.0</ele><time>2026-05-02T14:29:51.74Z</time></trkpt><trkpt lat="39.4724266" lon="20.243662"><ele>15.0</ele><time>2026-05-02T14:29:52.74Z</time></trkpt><trkpt lat="39.4724809" lon="20.2435787"><ele>15.0</ele><time>2026-05-02T14:29:53.74Z</time></trkpt><trkpt lat="39.472537" lon="20.243474"><ele>15.0</ele><time>2026-05-02T14:29:54.74Z</time></trkpt><trkpt lat="39.4727816" lon="20.243082"><ele>12.333333333333334</ele><time>2026-05-02T14:29:55.739Z</time></trkpt><trkpt lat="39.4729209" lon="20.2428578"><ele>9.666666666666668</ele><time>2026-05-02T14:29:56.74Z</time></trkpt><trkpt lat="39.473043" lon="20.2426519"><ele>7.0</ele><time>2026-05-02T14:29:57.74Z</time></trkpt><trkpt lat="39.4731676" lon="20.242446"><ele>10.0</ele><time>2026-05-02T14:29:58.739Z</time></trkpt><trkpt lat="39.4732796" lon="20.2422555"><ele>13.0</ele><time>2026-05-02T14:29:59.74Z</time></trkpt><trkpt lat="39.473389" lon="20.2420664"><ele>16.0</ele><time>2026-05-02T14:30:00.74Z</time></trkpt><trkpt lat="39.4735021" lon="20.2418802"><ele>16.0</ele><time>2026-05-02T14:30:01.739Z</time></trkpt><trkpt lat="39.4736179" lon="20.2416921"><ele>16.0</ele><time>2026-05-02T14:30:02.74Z</time></trkpt><trkpt lat="39.4737278" lon="20.241512"><ele>16.0</ele><time>2026-05-02T14:30:03.74Z</time></trkpt><trkpt lat="39.4738374" lon="20.2413483"><ele>20.0</ele><time>2026-05-02T14:30:04.74Z</time></trkpt><trkpt lat="39.4739461" lon="20.241187"><ele>24.0</ele><time>2026-05-02T14:30:05.739Z</time></trkpt><trkpt lat="39.4740522" lon="20.2410424"><ele>28.0</ele><time>2026-05-02T14:30:06.739Z</time></trkpt><trkpt lat="39.4741681" lon="20.2409038"><ele>28.0</ele><time>2026-05-02T14:30:07.74Z</time></trkpt><trkpt lat="39.4742718" lon="20.240769"><ele>28.0</ele><time>2026-05-02T14:30:08.739Z</time></trkpt><trkpt lat="39.4743739" lon="20.2406325"><ele>28.0</ele><time>2026-05-02T14:30:09.739Z</time></trkpt><trkpt lat="39.4744669" lon="20.2404845"><ele>28.0</ele><time>2026-05-02T14:30:10.739Z</time></trkpt><trkpt lat="39.474536" lon="20.2403151"><ele>28.75</ele><time>2026-05-02T14:30:11.739Z</time></trkpt><trkpt lat="39.4745764" lon="20.2401304"><ele>29.5</ele><time>2026-05-02T14:30:12.739Z</time></trkpt><trkpt lat="39.47459" lon="20.2399421"><ele>30.25</ele><time>2026-05-02T14:30:13.74Z</time></trkpt><trkpt lat="39.4745795" lon="20.2397486"><ele>31.0</ele><time>2026-05-02T14:30:14.739Z</time></trkpt><trkpt lat="39.4745312" lon="20.2395561"><ele>31.0</ele><time>2026-05-02T14:30:15.739Z</time></trkpt><trkpt lat="39.4744719" lon="20.2393626"><ele>31.0</ele><time>2026-05-02T14:30:16.74Z</time></trkpt><trkpt lat="39.4744067" lon="20.2391644"><ele>31.0</ele><time>2026-05-02T14:30:17.74Z</time></trkpt><trkpt lat="39.4743445" lon="20.238967"><ele>34.0</ele><time>2026-05-02T14:30:18.739Z</time></trkpt><trkpt lat="39.4743008" lon="20.2387605"><ele>37.0</ele><time>2026-05-02T14:30:19.74Z</time></trkpt><trkpt lat="39.4742855" lon="20.2385512"><ele>40.0</ele><time>2026-05-02T14:30:20.739Z</time></trkpt><trkpt lat="39.4743042" lon="20.2383462"><ele>40.0</ele><time>2026-05-02T14:30:21.74Z</time></trkpt><trkpt lat="39.4743495" lon="20.2381408"><ele>40.0</ele><time>2026-05-02T14:30:22.74Z</time></trkpt><trkpt lat="39.4744209" lon="20.2379594"><ele>40.0</ele><time>2026-05-02T14:30:23.739Z</time></trkpt><trkpt lat="39.4745231" lon="20.2377978"><ele>44.0</ele><time>2026-05-02T14:30:24.739Z</time></trkpt><trkpt lat="39.4746457" lon="20.2376462"><ele>48.0</ele><time>2026-05-02T14:30:25.739Z</time></trkpt><trkpt lat="39.4747912" lon="20.2375152"><ele>52.0</ele><time>2026-05-02T14:30:26.739Z</time></trkpt><trkpt lat="39.4749493" lon="20.2373874"><ele>50.33333333333333</ele><time>2026-05-02T14:30:27.74Z</time></trkpt><trkpt lat="39.475111" lon="20.2372543"><ele>48.666666666666664</ele><time>2026-05-02T14:30:28.74Z</time></trkpt><trkpt lat="39.4752738" lon="20.2371177"><ele>47.0</ele><time>2026-05-02T14:30:29.739Z</time></trkpt><trkpt lat="39.4754338" lon="20.2369779"><ele>51.0</ele><time>2026-05-02T14:30:30.739Z</time></trkpt><trkpt lat="39.4755929" lon="20.2368431"><ele>55.0</ele><time>2026-05-02T14:30:31.74Z</time></trkpt><trkpt lat="39.4757473" lon="20.2367038"><ele>59.0</ele><time>2026-05-02T14:30:32.739Z</time></trkpt><trkpt lat="39.4758976" lon="20.2365594"><ele>62.0</ele><time>2026-05-02T14:30:33.739Z</time></trkpt><trkpt lat="39.4760393" lon="20.2364133"><ele>65.0</ele><time>2026-05-02T14:30:34.74Z</time></trkpt><trkpt lat="39.4761721" lon="20.2362604"><ele>68.0</ele><time>2026-05-02T14:30:35.739Z</time></trkpt><trkpt lat="39.4762952" lon="20.2361006"><ele>68.0</ele><time>2026-05-02T14:30:36.739Z</time></trkpt><trkpt lat="39.476411" lon="20.235938"><ele>68.0</ele><time>2026-05-02T14:30:37.739Z</time></trkpt><trkpt lat="39.4765191" lon="20.2357844"><ele>68.0</ele><time>2026-05-02T14:30:38.74Z</time></trkpt><trkpt lat="39.476619" lon="20.2356398"><ele>63.5</ele><time>2026-05-02T14:30:39.74Z</time></trkpt><trkpt lat="39.4767104" lon="20.2355049"><ele>59.0</ele><time>2026-05-02T14:30:40.74Z</time></trkpt><trkpt lat="39.476795" lon="20.2353776"><ele>54.5</ele><time>2026-05-02T14:30:41.739Z</time></trkpt><trkpt lat="39.4768789" lon="20.235251"><ele>50.0</ele><time>2026-05-02T14:30:42.74Z</time></trkpt><trkpt lat="39.4769605" lon="20.2351312"><ele>50.0</ele><time>2026-05-02T14:30:43.739Z</time></trkpt><trkpt lat="39.4770424" lon="20.2350175"><ele>50.0</ele><time>2026-05-02T14:30:44.739Z</time></trkpt><trkpt lat="39.4771359" lon="20.2349165"><ele>50.0</ele><time>2026-05-02T14:30:45.74Z</time></trkpt><trkpt lat="39.4772456" lon="20.2348296"><ele>50.0</ele><time>2026-05-02T14:30:46.74Z</time></trkpt><trkpt lat="39.4773661" lon="20.2347679"><ele>48.75</ele><time>2026-05-02T14:30:47.739Z</time></trkpt><trkpt lat="39.4774932" lon="20.2347143"><ele>47.5</ele><time>2026-05-02T14:30:48.739Z</time></trkpt><trkpt lat="39.4776158" lon="20.2346669"><ele>46.25</ele><time>2026-05-02T14:30:49.74Z</time></trkpt><trkpt lat="39.4777359" lon="20.2346231"><ele>45.0</ele><time>2026-05-02T14:30:50.74Z</time></trkpt><trkpt lat="39.4778486" lon="20.234564"><ele>54.25</ele><time>2026-05-02T14:30:51.74Z</time></trkpt><trkpt lat="39.4779527" lon="20.2344918"><ele>63.5</ele><time>2026-05-02T14:30:52.74Z</time></trkpt><trkpt lat="39.4780473" lon="20.2344023"><ele>72.75</ele><time>2026-05-02T14:30:53.74Z</time></trkpt><trkpt lat="39.4781208" lon="20.2342844"><ele>82.0</ele><time>2026-05-02T14:30:54.739Z</time></trkpt><trkpt lat="39.4781696" lon="20.2341492"><ele>82.0</ele><time>2026-05-02T14:30:55.74Z</time></trkpt><trkpt lat="39.4781989" lon="20.2339921"><ele>82.0</ele><time>2026-05-02T14:30:56.74Z</time></trkpt><trkpt lat="39.4782157" lon="20.2338165"><ele>82.0</ele><time>2026-05-02T14:30:57.739Z</time></trkpt><trkpt lat="39.4782261" lon="20.2336387"><ele>82.0</ele><time>2026-05-02T14:30:58.74Z</time></trkpt><trkpt lat="39.4782355" lon="20.2334592"><ele>81.75</ele><time>2026-05-02T14:30:59.739Z</time></trkpt><trkpt lat="39.4782502" lon="20.2332869"><ele>81.5</ele><time>2026-05-02T14:31:00.74Z</time></trkpt><trkpt lat="39.4782824" lon="20.2331157"><ele>81.25</ele><time>2026-05-02T14:31:01.74Z</time></trkpt><trkpt lat="39.4783368" lon="20.2329411"><ele>81.0</ele><time>2026-05-02T14:31:02.739Z</time></trkpt><trkpt lat="39.4784107" lon="20.2327668"><ele>75.0</ele><time>2026-05-02T14:31:03.739Z</time></trkpt><trkpt lat="39.4785019" lon="20.2325841"><ele>69.0</ele><time>2026-05-02T14:31:04.739Z</time></trkpt><trkpt lat="39.4785984" lon="20.2323984"><ele>63.0</ele><time>2026-05-02T14:31:05.74Z</time></trkpt><trkpt lat="39.4786907" lon="20.2322214"><ele>69.66666666666667</ele><time>2026-05-02T14:31:06.74Z</time></trkpt><trkpt lat="39.4787801" lon="20.2320542"><ele>76.33333333333334</ele><time>2026-05-02T14:31:07.74Z</time></trkpt><trkpt lat="39.478873" lon="20.2318979"><ele>83.0</ele><time>2026-05-02T14:31:08.74Z</time></trkpt><trkpt lat="39.4789752" lon="20.2317523"><ele>83.0</ele><time>2026-05-02T14:31:09.739Z</time></trkpt><trkpt lat="39.4790838" lon="20.2316105"><ele>83.0</ele><time>2026-05-02T14:31:10.739Z</time></trkpt><trkpt lat="39.4792015" lon="20.2314704"><ele>83.0</ele><time>2026-05-02T14:31:11.74Z</time></trkpt><trkpt lat="39.4793299" lon="20.2313321"><ele>83.33333333333334</ele><time>2026-05-02T14:31:12.739Z</time></trkpt><trkpt lat="39.4794673" lon="20.2312049"><ele>83.66666666666667</ele><time>2026-05-02T14:31:13.74Z</time></trkpt><trkpt lat="39.4796123" lon="20.2310982"><ele>84.0</ele><time>2026-05-02T14:31:14.74Z</time></trkpt><trkpt lat="39.4797664" lon="20.2310102"><ele>84.0</ele><time>2026-05-02T14:31:15.74Z</time></trkpt><trkpt lat="39.4799326" lon="20.230945"><ele>84.0</ele><time>2026-05-02T14:31:16.739Z</time></trkpt><trkpt lat="39.4801106" lon="20.2308973"><ele>84.0</ele><time>2026-05-02T14:31:17.74Z</time></trkpt><trkpt lat="39.4803055" lon="20.2308621"><ele>90.33333333333334</ele><time>2026-05-02T14:31:18.74Z</time></trkpt><trkpt lat="39.4804996" lon="20.2308385"><ele>96.66666666666667</ele><time>2026-05-02T14:31:19.739Z</time></trkpt><trkpt lat="39.4806917" lon="20.2308193"><ele>103.0</ele><time>2026-05-02T14:31:20.739Z</time></trkpt><trkpt lat="39.4808804" lon="20.2307828"><ele>103.0</ele><time>2026-05-02T14:31:21.74Z</time></trkpt><trkpt lat="39.4810737" lon="20.2307158"><ele>103.0</ele><time>2026-05-02T14:31:22.739Z</time></trkpt><trkpt lat="39.4812722" lon="20.2306257"><ele>103.0</ele><time>2026-05-02T14:31:23.74Z</time></trkpt><trkpt lat="39.4814761" lon="20.2305169"><ele>97.33333333333334</ele><time>2026-05-02T14:31:24.739Z</time></trkpt><trkpt lat="39.4816793" lon="20.2304032"><ele>91.66666666666667</ele><time>2026-05-02T14:31:25.739Z</time></trkpt><trkpt lat="39.4818773" lon="20.2302963"><ele>86.0</ele><time>2026-05-02T14:31:26.739Z</time></trkpt><trkpt lat="39.4820672" lon="20.2301904"><ele>94.66666666666667</ele><time>2026-05-02T14:31:27.74Z</time></trkpt><trkpt lat="39.4822522" lon="20.2300861"><ele>103.33333333333334</ele><time>2026-05-02T14:31:28.74Z</time></trkpt><trkpt lat="39.4824321" lon="20.2299842"><ele>112.0</ele><time>2026-05-02T14:31:29.739Z</time></trkpt><trkpt lat="39.4826047" lon="20.2298877"><ele>106.66666666666667</ele><time>2026-05-02T14:31:30.739Z</time></trkpt><trkpt lat="39.4827696" lon="20.2297952"><ele>101.33333333333334</ele><time>2026-05-02T14:31:31.74Z</time></trkpt><trkpt lat="39.4829325" lon="20.2297193"><ele>96.0</ele><time>2026-05-02T14:31:32.74Z</time></trkpt><trkpt lat="39.4830965" lon="20.2296589"><ele>96.0</ele><time>2026-05-02T14:31:33.74Z</time></trkpt><trkpt lat="39.4832666" lon="20.229626"><ele>96.0</ele><time>2026-05-02T14:31:34.739Z</time></trkpt><trkpt lat="39.483438" lon="20.2296246"><ele>96.0</ele><time>2026-05-02T14:31:35.74Z</time></trkpt><trkpt lat="39.4836034" lon="20.2296442"><ele>96.0</ele><time>2026-05-02T14:31:36.74Z</time></trkpt><trkpt lat="39.4837585" lon="20.2296576"><ele>96.0</ele><time>2026-05-02T14:31:37.739Z</time></trkpt><trkpt lat="39.4839082" lon="20.2296484"><ele>96.0</ele><time>2026-05-02T14:31:38.739Z</time></trkpt><trkpt lat="39.4840418" lon="20.2295909"><ele>96.0</ele><time>2026-05-02T14:31:39.739Z</time></trkpt><trkpt lat="39.4841703" lon="20.2294985"><ele>100.0</ele><time>2026-05-02T14:31:40.739Z</time></trkpt><trkpt lat="39.4842924" lon="20.2293743"><ele>104.0</ele><time>2026-05-02T14:31:41.739Z</time></trkpt><trkpt lat="39.4844095" lon="20.2292286"><ele>108.0</ele><time>2026-05-02T14:31:42.739Z</time></trkpt><trkpt lat="39.4845224" lon="20.2290811"><ele>110.33333333333334</ele><time>2026-05-02T14:31:43.74Z</time></trkpt><trkpt lat="39.4846301" lon="20.2289319"><ele>112.66666666666667</ele><time>2026-05-02T14:31:44.74Z</time></trkpt><trkpt lat="39.4847347" lon="20.2287801"><ele>115.0</ele><time>2026-05-02T14:31:45.74Z</time></trkpt><trkpt lat="39.4848296" lon="20.2286288"><ele>115.0</ele><time>2026-05-02T14:31:46.74Z</time></trkpt><trkpt lat="39.484914" lon="20.2284685"><ele>115.0</ele><time>2026-05-02T14:31:47.739Z</time></trkpt><trkpt lat="39.4849866" lon="20.2282924"><ele>115.0</ele><time>2026-05-02T14:31:48.74Z</time></trkpt><trkpt lat="39.4850306" lon="20.2281182"><ele>115.0</ele><time>2026-05-02T14:31:49.74Z</time></trkpt><trkpt lat="39.4850651" lon="20.2279514"><ele>112.5</ele><time>2026-05-02T14:31:50.739Z</time></trkpt><trkpt lat="39.4851038" lon="20.2278059"><ele>110.0</ele><time>2026-05-02T14:31:51.74Z</time></trkpt><trkpt lat="39.4851551" lon="20.227676"><ele>107.5</ele><time>2026-05-02T14:31:52.74Z</time></trkpt><trkpt lat="39.4852327" lon="20.2275598"><ele>105.0</ele><time>2026-05-02T14:31:53.74Z</time></trkpt><trkpt lat="39.4853336" lon="20.2274672"><ele>106.25</ele><time>2026-05-02T14:31:54.74Z</time></trkpt><trkpt lat="39.4854374" lon="20.2274188"><ele>107.5</ele><time>2026-05-02T14:31:55.739Z</time></trkpt><trkpt lat="39.4855494" lon="20.2273962"><ele>108.75</ele><time>2026-05-02T14:31:56.74Z</time></trkpt><trkpt lat="39.4856638" lon="20.2274514"><ele>110.0</ele><time>2026-05-02T14:31:57.74Z</time></trkpt><trkpt lat="39.4857634" lon="20.227522"><ele>110.0</ele><time>2026-05-02T14:31:58.739Z</time></trkpt><trkpt lat="39.4858603" lon="20.2276419"><ele>110.0</ele><time>2026-05-02T14:31:59.74Z</time></trkpt><trkpt lat="39.4859316" lon="20.2278053"><ele>110.0</ele><time>2026-05-02T14:32:00.739Z</time></trkpt><trkpt lat="39.4859866" lon="20.2279878"><ele>110.0</ele><time>2026-05-02T14:32:01.74Z</time></trkpt><trkpt lat="39.486037" lon="20.2281891"><ele>111.0</ele><time>2026-05-02T14:32:02.739Z</time></trkpt><trkpt lat="39.4860943" lon="20.2284093"><ele>112.0</ele><time>2026-05-02T14:32:03.739Z</time></trkpt><trkpt lat="39.4861592" lon="20.2286405"><ele>113.0</ele><time>2026-05-02T14:32:04.739Z</time></trkpt><trkpt lat="39.4862257" lon="20.2288754"><ele>107.0</ele><time>2026-05-02T14:32:05.74Z</time></trkpt><trkpt lat="39.4862906" lon="20.229097"><ele>101.0</ele><time>2026-05-02T14:32:06.739Z</time></trkpt><trkpt lat="39.4863521" lon="20.2293036"><ele>95.0</ele><time>2026-05-02T14:32:07.74Z</time></trkpt><trkpt lat="39.486418" lon="20.2294857"><ele>95.0</ele><time>2026-05-02T14:32:08.74Z</time></trkpt><trkpt lat="39.4865025" lon="20.229635"><ele>95.0</ele><time>2026-05-02T14:32:09.739Z</time></trkpt><trkpt lat="39.4866183" lon="20.229754"><ele>95.0</ele><time>2026-05-02T14:32:10.739Z</time></trkpt><trkpt lat="39.4867522" lon="20.2298434"><ele>95.0</ele><time>2026-05-02T14:32:11.74Z</time></trkpt><trkpt lat="39.486908" lon="20.2299016"><ele>97.66666666666667</ele><time>2026-05-02T14:32:12.739Z</time></trkpt><trkpt lat="39.4870782" lon="20.2299326"><ele>100.33333333333334</ele><time>2026-05-02T14:32:13.74Z</time></trkpt><trkpt lat="39.4872523" lon="20.2299575"><ele>103.0</ele><time>2026-05-02T14:32:14.739Z</time></trkpt><trkpt lat="39.4874269" lon="20.2299797"><ele>103.0</ele><time>2026-05-02T14:32:15.739Z</time></trkpt><trkpt lat="39.487607" lon="20.2300072"><ele>103.0</ele><time>2026-05-02T14:32:16.74Z</time></trkpt><trkpt lat="39.4877903" lon="20.230037"><ele>103.0</ele><time>2026-05-02T14:32:17.74Z</time></trkpt><trkpt lat="39.4879772" lon="20.2300692"><ele>99.66666666666667</ele><time>2026-05-02T14:32:18.739Z</time></trkpt><trkpt lat="39.4881579" lon="20.2301072"><ele>96.33333333333334</ele><time>2026-05-02T14:32:19.74Z</time></trkpt><trkpt lat="39.4883388" lon="20.2301519"><ele>93.0</ele><time>2026-05-02T14:32:20.739Z</time></trkpt><trkpt lat="39.4885173" lon="20.2302039"><ele>93.0</ele><time>2026-05-02T14:32:21.74Z</time></trkpt><trkpt lat="39.4886982" lon="20.2302612"><ele>93.0</ele><time>2026-05-02T14:32:22.739Z</time></trkpt><trkpt lat="39.4888804" lon="20.2303333"><ele>93.0</ele><time>2026-05-02T14:32:23.739Z</time></trkpt><trkpt lat="39.4890595" lon="20.2304171"><ele>90.0</ele><time>2026-05-02T14:32:24.74Z</time></trkpt><trkpt lat="39.4892324" lon="20.2305205"><ele>87.0</ele><time>2026-05-02T14:32:25.74Z</time></trkpt><trkpt lat="39.4893942" lon="20.2306452"><ele>84.0</ele><time>2026-05-02T14:32:26.739Z</time></trkpt><trkpt lat="39.4895468" lon="20.2307852"><ele>87.66666666666667</ele><time>2026-05-02T14:32:27.739Z</time></trkpt><trkpt lat="39.4896926" lon="20.2309352"><ele>91.33333333333334</ele><time>2026-05-02T14:32:28.74Z</time></trkpt><trkpt lat="39.4898299" lon="20.2310957"><ele>95.0</ele><time>2026-05-02T14:32:29.74Z</time></trkpt><trkpt lat="39.4899645" lon="20.2312628"><ele>95.0</ele><time>2026-05-02T14:32:30.74Z</time></trkpt><trkpt lat="39.490096" lon="20.2314322"><ele>95.0</ele><time>2026-05-02T14:32:31.739Z</time></trkpt><trkpt lat="39.4902266" lon="20.2315978"><ele>95.0</ele><time>2026-05-02T14:32:32.74Z</time></trkpt><trkpt lat="39.4903593" lon="20.2317666"><ele>90.0</ele><time>2026-05-02T14:32:33.74Z</time></trkpt><trkpt lat="39.4904887" lon="20.2319323"><ele>85.0</ele><time>2026-05-02T14:32:34.74Z</time></trkpt><trkpt lat="39.4906174" lon="20.2320925"><ele>80.0</ele><time>2026-05-02T14:32:35.739Z</time></trkpt><trkpt lat="39.4907459" lon="20.2322463"><ele>84.0</ele><time>2026-05-02T14:32:36.74Z</time></trkpt><trkpt lat="39.4908786" lon="20.2323883"><ele>88.0</ele><time>2026-05-02T14:32:37.739Z</time></trkpt><trkpt lat="39.4910114" lon="20.2325189"><ele>92.0</ele><time>2026-05-02T14:32:38.739Z</time></trkpt><trkpt lat="39.4911454" lon="20.2326432"><ele>86.0</ele><time>2026-05-02T14:32:39.74Z</time></trkpt><trkpt lat="39.4912868" lon="20.2327635"><ele>80.0</ele><time>2026-05-02T14:32:40.74Z</time></trkpt><trkpt lat="39.4914336" lon="20.2328775"><ele>74.0</ele><time>2026-05-02T14:32:41.739Z</time></trkpt><trkpt lat="39.4915903" lon="20.2329746"><ele>74.0</ele><time>2026-05-02T14:32:42.74Z</time></trkpt><trkpt lat="39.4917526" lon="20.2330668"><ele>74.0</ele><time>2026-05-02T14:32:43.739Z</time></trkpt><trkpt lat="39.491913" lon="20.2331527"><ele>74.0</ele><time>2026-05-02T14:32:44.739Z</time></trkpt><trkpt lat="39.4920773" lon="20.2332274"><ele>76.0</ele><time>2026-05-02T14:32:45.739Z</time></trkpt><trkpt lat="39.4922378" lon="20.2333079"><ele>78.0</ele><time>2026-05-02T14:32:46.74Z</time></trkpt><trkpt lat="39.4923979" lon="20.2333873"><ele>80.0</ele><time>2026-05-02T14:32:47.74Z</time></trkpt><trkpt lat="39.4925525" lon="20.2334602"><ele>80.0</ele><time>2026-05-02T14:32:48.74Z</time></trkpt><trkpt lat="39.4927006" lon="20.2335389"><ele>80.0</ele><time>2026-05-02T14:32:49.74Z</time></trkpt><trkpt lat="39.4928434" lon="20.2336197"><ele>80.0</ele><time>2026-05-02T14:32:50.74Z</time></trkpt><trkpt lat="39.4929799" lon="20.2337026"><ele>80.5</ele><time>2026-05-02T14:32:51.74Z</time></trkpt><trkpt lat="39.493107" lon="20.2337964"><ele>81.0</ele><time>2026-05-02T14:32:52.74Z</time></trkpt><trkpt lat="39.4932258" lon="20.2339056"><ele>81.5</ele><time>2026-05-02T14:32:53.739Z</time></trkpt><trkpt lat="39.4933326" lon="20.2340341"><ele>82.0</ele><time>2026-05-02T14:32:54.74Z</time></trkpt><trkpt lat="39.4934303" lon="20.2341736"><ele>82.0</ele><time>2026-05-02T14:32:55.74Z</time></trkpt><trkpt lat="39.4935262" lon="20.2343384"><ele>82.0</ele><time>2026-05-02T14:32:56.74Z</time></trkpt><trkpt lat="39.4936123" lon="20.2344918"><ele>82.0</ele><time>2026-05-02T14:32:57.74Z</time></trkpt><trkpt lat="39.4936941" lon="20.2346307"><ele>82.0</ele><time>2026-05-02T14:32:58.739Z</time></trkpt><trkpt lat="39.4937592" lon="20.2347736"><ele>74.75</ele><time>2026-05-02T14:32:59.74Z</time></trkpt><trkpt lat="39.4938062" lon="20.2349238"><ele>67.5</ele><time>2026-05-02T14:33:00.739Z</time></trkpt><trkpt lat="39.4938197" lon="20.235074"><ele>60.25</ele><time>2026-05-02T14:33:01.74Z</time></trkpt><trkpt lat="39.4938056" lon="20.2352318"><ele>53.0</ele><time>2026-05-02T14:33:02.739Z</time></trkpt><trkpt lat="39.4937625" lon="20.2353978"><ele>60.333333333333336</ele><time>2026-05-02T14:33:03.74Z</time></trkpt><trkpt lat="39.4936859" lon="20.2355577"><ele>67.66666666666667</ele><time>2026-05-02T14:33:04.739Z</time></trkpt><trkpt lat="39.4935846" lon="20.235714"><ele>75.0</ele><time>2026-05-02T14:33:05.74Z</time></trkpt><trkpt lat="39.4934633" lon="20.2358746"><ele>75.0</ele><time>2026-05-02T14:33:06.739Z</time></trkpt><trkpt lat="39.4933417" lon="20.2360263"><ele>75.0</ele><time>2026-05-02T14:33:07.74Z</time></trkpt><trkpt lat="39.4932245" lon="20.2361732"><ele>75.0</ele><time>2026-05-02T14:33:08.739Z</time></trkpt><trkpt lat="39.4931072" lon="20.2363148"><ele>75.0</ele><time>2026-05-02T14:33:09.74Z</time></trkpt><trkpt lat="39.4929966" lon="20.2364562"><ele>75.0</ele><time>2026-05-02T14:33:10.739Z</time></trkpt><trkpt lat="39.4928891" lon="20.2365941"><ele>75.0</ele><time>2026-05-02T14:33:11.739Z</time></trkpt><trkpt lat="39.4927803" lon="20.2367308"><ele>75.33333333333333</ele><time>2026-05-02T14:33:12.739Z</time></trkpt><trkpt lat="39.4926723" lon="20.2368626"><ele>75.66666666666666</ele><time>2026-05-02T14:33:13.74Z</time></trkpt><trkpt lat="39.4925567" lon="20.2369928"><ele>76.0</ele><time>2026-05-02T14:33:14.739Z</time></trkpt><trkpt lat="39.4924317" lon="20.2371193"><ele>76.0</ele><time>2026-05-02T14:33:15.74Z</time></trkpt><trkpt lat="39.4923047" lon="20.2372445"><ele>76.0</ele><time>2026-05-02T14:33:16.739Z</time></trkpt><trkpt lat="39.4921685" lon="20.2373599"><ele>76.0</ele><time>2026-05-02T14:33:17.739Z</time></trkpt><trkpt lat="39.4920234" lon="20.2374684"><ele>71.33333333333333</ele><time>2026-05-02T14:33:18.74Z</time></trkpt><trkpt lat="39.4918687" lon="20.2375646"><ele>66.66666666666667</ele><time>2026-05-02T14:33:19.74Z</time></trkpt><trkpt lat="39.4917102" lon="20.2376507"><ele>62.0</ele><time>2026-05-02T14:33:20.74Z</time></trkpt><trkpt lat="39.4915489" lon="20.2377281"><ele>62.0</ele><time>2026-05-02T14:33:21.74Z</time></trkpt><trkpt lat="39.4913835" lon="20.2377981"><ele>62.0</ele><time>2026-05-02T14:33:22.739Z</time></trkpt><trkpt lat="39.491227" lon="20.2378641"><ele>62.0</ele><time>2026-05-02T14:33:23.739Z</time></trkpt><trkpt lat="39.4910688" lon="20.237924"><ele>65.25</ele><time>2026-05-02T14:33:24.739Z</time></trkpt><trkpt lat="39.4909166" lon="20.2379844"><ele>68.5</ele><time>2026-05-02T14:33:25.739Z</time></trkpt><trkpt lat="39.4907872" lon="20.238048"><ele>71.75</ele><time>2026-05-02T14:33:26.74Z</time></trkpt><trkpt lat="39.4906743" lon="20.2381206"><ele>75.0</ele><time>2026-05-02T14:33:27.74Z</time></trkpt><trkpt lat="39.4905748" lon="20.2382176"><ele>67.0</ele><time>2026-05-02T14:33:28.739Z</time></trkpt><trkpt lat="39.4905147" lon="20.2383677"><ele>59.0</ele><time>2026-05-02T14:33:29.739Z</time></trkpt><trkpt lat="39.4904739" lon="20.2385419"><ele>51.0</ele><time>2026-05-02T14:33:30.74Z</time></trkpt><trkpt lat="39.4904663" lon="20.2387514"><ele>43.0</ele><time>2026-05-02T14:33:31.74Z</time></trkpt><trkpt lat="39.4904824" lon="20.2389564"><ele>42.333333333333336</ele><time>2026-05-02T14:33:32.74Z</time></trkpt><trkpt lat="39.490511" lon="20.2391829"><ele>41.666666666666664</ele><time>2026-05-02T14:33:33.739Z</time></trkpt><trkpt lat="39.490545" lon="20.2394203"><ele>41.0</ele><time>2026-05-02T14:33:34.739Z</time></trkpt><trkpt lat="39.4905803" lon="20.2396649"><ele>43.666666666666664</ele><time>2026-05-02T14:33:35.739Z</time></trkpt><trkpt lat="39.4906098" lon="20.2398983"><ele>46.33333333333333</ele><time>2026-05-02T14:33:36.739Z</time></trkpt><trkpt lat="39.4906307" lon="20.2401262"><ele>49.0</ele><time>2026-05-02T14:33:37.739Z</time></trkpt><trkpt lat="39.4906363" lon="20.2403504"><ele>49.0</ele><time>2026-05-02T14:33:38.74Z</time></trkpt><trkpt lat="39.4906236" lon="20.2405779"><ele>49.0</ele><time>2026-05-02T14:33:39.739Z</time></trkpt><trkpt lat="39.4905918" lon="20.2408098"><ele>49.0</ele><time>2026-05-02T14:33:40.739Z</time></trkpt><trkpt lat="39.490545" lon="20.2410389"><ele>48.0</ele><time>2026-05-02T14:33:41.739Z</time></trkpt><trkpt lat="39.4904638" lon="20.2412748"><ele>47.0</ele><time>2026-05-02T14:33:42.739Z</time></trkpt><trkpt lat="39.4903745" lon="20.2414962"><ele>46.0</ele><time>2026-05-02T14:33:43.74Z</time></trkpt><trkpt lat="39.4902879" lon="20.2417084"><ele>43.66666666666667</ele><time>2026-05-02T14:33:44.739Z</time></trkpt><trkpt lat="39.4902106" lon="20.241935"><ele>41.333333333333336</ele><time>2026-05-02T14:33:45.739Z</time></trkpt><trkpt lat="39.4901464" lon="20.2421842"><ele>39.0</ele><time>2026-05-02T14:33:46.739Z</time></trkpt><trkpt lat="39.4901068" lon="20.2424539"><ele>39.0</ele><time>2026-05-02T14:33:47.74Z</time></trkpt><trkpt lat="39.4900822" lon="20.2427219"><ele>39.0</ele><time>2026-05-02T14:33:48.739Z</time></trkpt><trkpt lat="39.4900615" lon="20.2429823"><ele>39.0</ele><time>2026-05-02T14:33:49.739Z</time></trkpt><trkpt lat="39.4900349" lon="20.2432311"><ele>36.333333333333336</ele><time>2026-05-02T14:33:50.739Z</time></trkpt><trkpt lat="39.4899923" lon="20.2434681"><ele>33.66666666666667</ele><time>2026-05-02T14:33:51.739Z</time></trkpt><trkpt lat="39.4899314" lon="20.243696"><ele>31.0</ele><time>2026-05-02T14:33:52.739Z</time></trkpt><trkpt lat="39.48985" lon="20.2439118"><ele>33.0</ele><time>2026-05-02T14:33:53.74Z</time></trkpt><trkpt lat="39.4897354" lon="20.2441308"><ele>35.0</ele><time>2026-05-02T14:33:54.739Z</time></trkpt><trkpt lat="39.4896117" lon="20.2443203"><ele>37.0</ele><time>2026-05-02T14:33:55.739Z</time></trkpt><trkpt lat="39.4894619" lon="20.2444856"><ele>37.0</ele><time>2026-05-02T14:33:56.74Z</time></trkpt><trkpt lat="39.4893008" lon="20.2446186"><ele>37.0</ele><time>2026-05-02T14:33:57.739Z</time></trkpt><trkpt lat="39.4891236" lon="20.2447423"><ele>37.0</ele><time>2026-05-02T14:33:58.739Z</time></trkpt><trkpt lat="39.4889355" lon="20.2448533"><ele>35.0</ele><time>2026-05-02T14:33:59.739Z</time></trkpt><trkpt lat="39.4887484" lon="20.2449534"><ele>33.0</ele><time>2026-05-02T14:34:00.74Z</time></trkpt><trkpt lat="39.4885791" lon="20.2450625"><ele>31.0</ele><time>2026-05-02T14:34:01.74Z</time></trkpt><trkpt lat="39.4884153" lon="20.2451807"><ele>31.0</ele><time>2026-05-02T14:34:02.74Z</time></trkpt><trkpt lat="39.4882639" lon="20.2453159"><ele>31.0</ele><time>2026-05-02T14:34:03.74Z</time></trkpt><trkpt lat="39.4881234" lon="20.2454656"><ele>31.0</ele><time>2026-05-02T14:34:04.739Z</time></trkpt><trkpt lat="39.4879912" lon="20.2456293"><ele>26.0</ele><time>2026-05-02T14:34:05.739Z</time></trkpt><trkpt lat="39.4878752" lon="20.2457985"><ele>21.0</ele><time>2026-05-02T14:34:06.74Z</time></trkpt><trkpt lat="39.4877794" lon="20.2459803"><ele>16.0</ele><time>2026-05-02T14:34:07.739Z</time></trkpt><trkpt lat="39.4877039" lon="20.2461816"><ele>16.0</ele><time>2026-05-02T14:34:08.74Z</time></trkpt><trkpt lat="39.4876444" lon="20.2464048"><ele>16.0</ele><time>2026-05-02T14:34:09.74Z</time></trkpt><trkpt lat="39.487601" lon="20.2466308"><ele>16.0</ele><time>2026-05-02T14:34:10.739Z</time></trkpt><trkpt lat="39.4875634" lon="20.2468593"><ele>15.333333333333332</ele><time>2026-05-02T14:34:11.74Z</time></trkpt><trkpt lat="39.4875202" lon="20.2470875"><ele>14.666666666666668</ele><time>2026-05-02T14:34:12.74Z</time></trkpt><trkpt lat="39.4874754" lon="20.2473104"><ele>14.0</ele><time>2026-05-02T14:34:13.74Z</time></trkpt><trkpt lat="39.4874195" lon="20.2475296"><ele>13.333333333333334</ele><time>2026-05-02T14:34:14.74Z</time></trkpt><trkpt lat="39.4873573" lon="20.2477447"><ele>12.666666666666668</ele><time>2026-05-02T14:34:15.739Z</time></trkpt><trkpt lat="39.487292" lon="20.2479585"><ele>12.0</ele><time>2026-05-02T14:34:16.739Z</time></trkpt><trkpt lat="39.4872259" lon="20.248168"><ele>13.0</ele><time>2026-05-02T14:34:17.739Z</time></trkpt><trkpt lat="39.4871631" lon="20.2483672"><ele>14.0</ele><time>2026-05-02T14:34:18.74Z</time></trkpt><trkpt lat="39.4870964" lon="20.2485649"><ele>15.0</ele><time>2026-05-02T14:34:19.739Z</time></trkpt><trkpt lat="39.4870344" lon="20.2487605"><ele>14.333333333333332</ele><time>2026-05-02T14:34:20.74Z</time></trkpt><trkpt lat="39.4869676" lon="20.2489608"><ele>13.666666666666666</ele><time>2026-05-02T14:34:21.739Z</time></trkpt><trkpt lat="39.4869002" lon="20.2491531"><ele>13.0</ele><time>2026-05-02T14:34:22.74Z</time></trkpt><trkpt lat="39.4868277" lon="20.2493342"><ele>13.0</ele><time>2026-05-02T14:34:23.739Z</time></trkpt><trkpt lat="39.4867453" lon="20.2495075"><ele>13.0</ele><time>2026-05-02T14:34:24.74Z</time></trkpt><trkpt lat="39.4866506" lon="20.2496703"><ele>13.0</ele><time>2026-05-02T14:34:25.74Z</time></trkpt><trkpt lat="39.4865423" lon="20.249825"><ele>10.666666666666666</ele><time>2026-05-02T14:34:26.739Z</time></trkpt><trkpt lat="39.4864175" lon="20.2499664"><ele>8.333333333333332</ele><time>2026-05-02T14:34:27.74Z</time></trkpt><trkpt lat="39.4862781" lon="20.2500953"><ele>6.0</ele><time>2026-05-02T14:34:28.739Z</time></trkpt><trkpt lat="39.4861209" lon="20.2502202"><ele>11.333333333333332</ele><time>2026-05-02T14:34:29.74Z</time></trkpt><trkpt lat="39.4859589" lon="20.2503321"><ele>16.666666666666664</ele><time>2026-05-02T14:34:30.74Z</time></trkpt><trkpt lat="39.4857986" lon="20.2504308"><ele>22.0</ele><time>2026-05-02T14:34:31.74Z</time></trkpt><trkpt lat="39.4856382" lon="20.250535"><ele>20.0</ele><time>2026-05-02T14:34:32.74Z</time></trkpt><trkpt lat="39.485489" lon="20.2506332"><ele>18.0</ele><time>2026-05-02T14:34:33.739Z</time></trkpt><trkpt lat="39.4853456" lon="20.2507322"><ele>16.0</ele><time>2026-05-02T14:34:34.74Z</time></trkpt><trkpt lat="39.4852118" lon="20.2508371"><ele>16.0</ele><time>2026-05-02T14:34:35.74Z</time></trkpt><trkpt lat="39.4850865" lon="20.2509452"><ele>16.0</ele><time>2026-05-02T14:34:36.739Z</time></trkpt><trkpt lat="39.4849686" lon="20.251057"><ele>16.0</ele><time>2026-05-02T14:34:37.74Z</time></trkpt><trkpt lat="39.4848542" lon="20.2511714"><ele>16.0</ele><time>2026-05-02T14:34:38.739Z</time></trkpt><trkpt lat="39.4847439" lon="20.251291"><ele>16.0</ele><time>2026-05-02T14:34:39.74Z</time></trkpt><trkpt lat="39.4846349" lon="20.2514177"><ele>16.0</ele><time>2026-05-02T14:34:40.739Z</time></trkpt><trkpt lat="39.4845291" lon="20.2515508"><ele>16.0</ele><time>2026-05-02T14:34:41.739Z</time></trkpt><trkpt lat="39.4844308" lon="20.2516962"><ele>16.0</ele><time>2026-05-02T14:34:42.739Z</time></trkpt><trkpt lat="39.4843372" lon="20.2518502"><ele>16.666666666666664</ele><time>2026-05-02T14:34:43.74Z</time></trkpt><trkpt lat="39.484247" lon="20.2520118"><ele>17.333333333333332</ele><time>2026-05-02T14:34:44.74Z</time></trkpt><trkpt lat="39.4841579" lon="20.2521709"><ele>18.0</ele><time>2026-05-02T14:34:45.74Z</time></trkpt><trkpt lat="39.4840793" lon="20.252336"><ele>15.5</ele><time>2026-05-02T14:34:46.74Z</time></trkpt><trkpt lat="39.4840081" lon="20.2525002"><ele>13.0</ele><time>2026-05-02T14:34:47.74Z</time></trkpt><trkpt lat="39.4839438" lon="20.2526594"><ele>10.5</ele><time>2026-05-02T14:34:48.74Z</time></trkpt><trkpt lat="39.4838888" lon="20.252812"><ele>8.0</ele><time>2026-05-02T14:34:49.739Z</time></trkpt><trkpt lat="39.4838396" lon="20.2529577"><ele>8.0</ele><time>2026-05-02T14:34:50.74Z</time></trkpt><trkpt lat="39.4837965" lon="20.2531008"><ele>8.0</ele><time>2026-05-02T14:34:51.739Z</time></trkpt><trkpt lat="39.4837571" lon="20.2532466"><ele>8.0</ele><time>2026-05-02T14:34:52.74Z</time></trkpt><trkpt lat="39.4837185" lon="20.2533876"><ele>8.0</ele><time>2026-05-02T14:34:53.74Z</time></trkpt><trkpt lat="39.4836797" lon="20.2535252"><ele>11.0</ele><time>2026-05-02T14:34:54.739Z</time></trkpt><trkpt lat="39.4836389" lon="20.253665"><ele>14.0</ele><time>2026-05-02T14:34:55.74Z</time></trkpt><trkpt lat="39.4835977" lon="20.2538051"><ele>17.0</ele><time>2026-05-02T14:34:56.739Z</time></trkpt><trkpt lat="39.4835587" lon="20.2539506"><ele>20.0</ele><time>2026-05-02T14:34:57.74Z</time></trkpt><trkpt lat="39.4835205" lon="20.2540963"><ele>20.0</ele><time>2026-05-02T14:34:58.74Z</time></trkpt><trkpt lat="39.4834809" lon="20.2542462"><ele>20.0</ele><time>2026-05-02T14:34:59.739Z</time></trkpt><trkpt lat="39.4834426" lon="20.2543942"><ele>20.0</ele><time>2026-05-02T14:35:00.74Z</time></trkpt><trkpt lat="39.4834112" lon="20.2545477"><ele>20.0</ele><time>2026-05-02T14:35:01.739Z</time></trkpt><trkpt lat="39.4833862" lon="20.2547058"><ele>18.5</ele><time>2026-05-02T14:35:02.739Z</time></trkpt><trkpt lat="39.4833677" lon="20.2548664"><ele>17.0</ele><time>2026-05-02T14:35:03.74Z</time></trkpt><trkpt lat="39.4833504" lon="20.2550368"><ele>15.5</ele><time>2026-05-02T14:35:04.74Z</time></trkpt><trkpt lat="39.4833399" lon="20.2552106"><ele>14.0</ele><time>2026-05-02T14:35:05.74Z</time></trkpt><trkpt lat="39.4833321" lon="20.2553889"><ele>14.0</ele><time>2026-05-02T14:35:06.739Z</time></trkpt><trkpt lat="39.4833336" lon="20.2555727"><ele>14.0</ele><time>2026-05-02T14:35:07.74Z</time></trkpt><trkpt lat="39.4833391" lon="20.2557591"><ele>14.0</ele><time>2026-05-02T14:35:08.739Z</time></trkpt><trkpt lat="39.4833554" lon="20.2559548"><ele>14.0</ele><time>2026-05-02T14:35:09.74Z</time></trkpt><trkpt lat="39.4833823" lon="20.2561555"><ele>13.666666666666668</ele><time>2026-05-02T14:35:10.74Z</time></trkpt><trkpt lat="39.4834155" lon="20.2563599"><ele>13.333333333333332</ele><time>2026-05-02T14:35:11.739Z</time></trkpt><trkpt lat="39.48346" lon="20.2565643"><ele>13.0</ele><time>2026-05-02T14:35:12.74Z</time></trkpt><trkpt lat="39.4835181" lon="20.2567664"><ele>13.0</ele><time>2026-05-02T14:35:13.74Z</time></trkpt><trkpt lat="39.4835878" lon="20.2569627"><ele>13.0</ele><time>2026-05-02T14:35:14.739Z</time></trkpt><trkpt lat="39.4836672" lon="20.2571569"><ele>13.0</ele><time>2026-05-02T14:35:15.74Z</time></trkpt><trkpt lat="39.483751" lon="20.2573469"><ele>9.0</ele><time>2026-05-02T14:35:16.74Z</time></trkpt><trkpt lat="39.4838458" lon="20.2575379"><ele>5.0</ele><time>2026-05-02T14:35:17.739Z</time></trkpt><trkpt lat="39.4839365" lon="20.2577281"><ele>1.0</ele><time>2026-05-02T14:35:18.739Z</time></trkpt><trkpt lat="39.4840233" lon="20.2579164"><ele>1.0</ele><time>2026-05-02T14:35:19.739Z</time></trkpt><trkpt lat="39.4841074" lon="20.2581075"><ele>1.0</ele><time>2026-05-02T14:35:20.74Z</time></trkpt><trkpt lat="39.4841819" lon="20.2582937"><ele>1.0</ele><time>2026-05-02T14:35:21.74Z</time></trkpt><trkpt lat="39.4842493" lon="20.2584762"><ele>1.3333333333333333</ele><time>2026-05-02T14:35:22.74Z</time></trkpt><trkpt lat="39.4843086" lon="20.2586574"><ele>1.6666666666666665</ele><time>2026-05-02T14:35:23.74Z</time></trkpt><trkpt lat="39.4843657" lon="20.2588388"><ele>2.0</ele><time>2026-05-02T14:35:24.739Z</time></trkpt><trkpt lat="39.4844172" lon="20.2590186"><ele>2.25</ele><time>2026-05-02T14:35:25.739Z</time></trkpt><trkpt lat="39.4844636" lon="20.2591982"><ele>2.5</ele><time>2026-05-02T14:35:26.74Z</time></trkpt><trkpt lat="39.4845095" lon="20.2593717"><ele>2.75</ele><time>2026-05-02T14:35:27.739Z</time></trkpt><trkpt lat="39.4845542" lon="20.2595425"><ele>3.0</ele><time>2026-05-02T14:35:28.739Z</time></trkpt><trkpt lat="39.4845989" lon="20.2597154"><ele>3.25</ele><time>2026-05-02T14:35:29.74Z</time></trkpt><trkpt lat="39.4846416" lon="20.2598874"><ele>3.5</ele><time>2026-05-02T14:35:30.74Z</time></trkpt><trkpt lat="39.4846902" lon="20.2600578"><ele>3.75</ele><time>2026-05-02T14:35:31.739Z</time></trkpt><trkpt lat="39.4847529" lon="20.260227"><ele>4.0</ele><time>2026-05-02T14:35:32.739Z</time></trkpt><trkpt lat="39.4848249" lon="20.2603894"><ele>4.0</ele><time>2026-05-02T14:35:33.74Z</time></trkpt><trkpt lat="39.4849035" lon="20.2605484"><ele>4.0</ele><time>2026-05-02T14:35:34.74Z</time></trkpt><trkpt lat="39.4849833" lon="20.2607097"><ele>4.0</ele><time>2026-05-02T14:35:35.74Z</time></trkpt><trkpt lat="39.4850671" lon="20.2608632"><ele>4.0</ele><time>2026-05-02T14:35:36.739Z</time></trkpt><trkpt lat="39.4851513" lon="20.2610013"><ele>4.25</ele><time>2026-05-02T14:35:37.739Z</time></trkpt><trkpt lat="39.4852353" lon="20.2611201"><ele>4.5</ele><time>2026-05-02T14:35:38.74Z</time></trkpt><trkpt lat="39.4853243" lon="20.2612338"><ele>4.75</ele><time>2026-05-02T14:35:39.739Z</time></trkpt><trkpt lat="39.4854089" lon="20.2613345"><ele>5.0</ele><time>2026-05-02T14:35:40.739Z</time></trkpt><trkpt lat="39.4854895" lon="20.2614221"><ele>5.4</ele><time>2026-05-02T14:35:41.74Z</time></trkpt><trkpt lat="39.4855745" lon="20.2615056"><ele>5.8</ele><time>2026-05-02T14:35:42.739Z</time></trkpt><trkpt lat="39.4856625" lon="20.2615876"><ele>6.199999999999999</ele><time>2026-05-02T14:35:43.74Z</time></trkpt><trkpt lat="39.4857526" lon="20.2616679"><ele>6.6</ele><time>2026-05-02T14:35:44.739Z</time></trkpt><trkpt lat="39.4858412" lon="20.2617458"><ele>7.0</ele><time>2026-05-02T14:35:45.74Z</time></trkpt><trkpt lat="39.4859285" lon="20.2618194"><ele>7.000000000000001</ele><time>2026-05-02T14:35:46.74Z</time></trkpt><trkpt lat="39.4860098" lon="20.2618869"><ele>7.0</ele><time>2026-05-02T14:35:47.739Z</time></trkpt><trkpt lat="39.4860799" lon="20.2619426"><ele>7.0</ele><time>2026-05-02T14:35:48.74Z</time></trkpt><trkpt lat="39.4861521" lon="20.2620031"><ele>7.0</ele><time>2026-05-02T14:35:49.739Z</time></trkpt><trkpt lat="39.4862215" lon="20.2620457"><ele>7.000000000000001</ele><time>2026-05-02T14:35:50.74Z</time></trkpt><trkpt lat="39.4863225" lon="20.2620033"><ele>7.0</ele><time>2026-05-02T14:35:52.74Z</time></trkpt><trkpt lat="39.4863715" lon="20.2618719"><ele>6.500000000000001</ele><time>2026-05-02T14:35:54.74Z</time></trkpt><trkpt lat="39.4863737" lon="20.2617789"><ele>6.0</ele><time>2026-05-02T14:35:55.739Z</time></trkpt><trkpt lat="39.4863718" lon="20.2616766"><ele>5.5</ele><time>2026-05-02T14:35:56.739Z</time></trkpt><trkpt lat="39.4863694" lon="20.2615729"><ele>5.0</ele><time>2026-05-02T14:35:57.74Z</time></trkpt><trkpt lat="39.4863699" lon="20.2614713"><ele>4.5</ele><time>2026-05-02T14:35:58.74Z</time></trkpt><trkpt lat="39.4863789" lon="20.2613669"><ele>4.0</ele><time>2026-05-02T14:35:59.74Z</time></trkpt><trkpt lat="39.4863958" lon="20.2612573"><ele>3.833333333333333</ele><time>2026-05-02T14:36:00.739Z</time></trkpt><trkpt lat="39.4864208" lon="20.2611475"><ele>3.6666666666666665</ele><time>2026-05-02T14:36:01.739Z</time></trkpt><trkpt lat="39.4864514" lon="20.2610411"><ele>3.5</ele><time>2026-05-02T14:36:02.74Z</time></trkpt><trkpt lat="39.4864919" lon="20.2609431"><ele>3.333333333333333</ele><time>2026-05-02T14:36:03.739Z</time></trkpt><trkpt lat="39.48654" lon="20.2608574"><ele>3.1666666666666665</ele><time>2026-05-02T14:36:04.739Z</time></trkpt><trkpt lat="39.4865907" lon="20.2607763"><ele>3.0</ele><time>2026-05-02T14:36:05.74Z</time></trkpt><trkpt lat="39.4866502" lon="20.2606987"><ele>3.0</ele><time>2026-05-02T14:36:06.74Z</time></trkpt><trkpt lat="39.486717" lon="20.2606218"><ele>3.0</ele><time>2026-05-02T14:36:07.739Z</time></trkpt><trkpt lat="39.4867932" lon="20.2605526"><ele>3.0</ele><time>2026-05-02T14:36:08.74Z</time></trkpt><trkpt lat="39.4868849" lon="20.2604908"><ele>3.0</ele><time>2026-05-02T14:36:09.739Z</time></trkpt><trkpt lat="39.4869802" lon="20.2604503"><ele>3.0</ele><time>2026-05-02T14:36:10.739Z</time></trkpt><trkpt lat="39.4870854" lon="20.2604252"><ele>3.0</ele><time>2026-05-02T14:36:11.74Z</time></trkpt><trkpt lat="39.4871896" lon="20.2604073"><ele>3.0</ele><time>2026-05-02T14:36:12.739Z</time></trkpt><trkpt lat="39.4872902" lon="20.2603861"><ele>3.0</ele><time>2026-05-02T14:36:13.739Z</time></trkpt><trkpt lat="39.4873903" lon="20.2603678"><ele>3.0</ele><time>2026-05-02T14:36:14.739Z</time></trkpt><trkpt lat="39.48749" lon="20.2603492"><ele>3.0</ele><time>2026-05-02T14:36:15.74Z</time></trkpt><trkpt lat="39.4875884" lon="20.2603292"><ele>3.0</ele><time>2026-05-02T14:36:16.74Z</time></trkpt><trkpt lat="39.4876908" lon="20.2603077"><ele>3.0</ele><time>2026-05-02T14:36:17.74Z</time></trkpt><trkpt lat="39.4877933" lon="20.26029"><ele>3.0</ele><time>2026-05-02T14:36:18.739Z</time></trkpt><trkpt lat="39.4878999" lon="20.2602713"><ele>3.0</ele><time>2026-05-02T14:36:19.74Z</time></trkpt><trkpt lat="39.4880003" lon="20.260252"><ele>3.0</ele><time>2026-05-02T14:36:20.739Z</time></trkpt><trkpt lat="39.4880939" lon="20.2602339"><ele>2.8333333333333335</ele><time>2026-05-02T14:36:21.74Z</time></trkpt><trkpt lat="39.4881789" lon="20.2602188"><ele>2.6666666666666665</ele><time>2026-05-02T14:36:22.739Z</time></trkpt><trkpt lat="39.4882564" lon="20.2602041"><ele>2.5</ele><time>2026-05-02T14:36:23.74Z</time></trkpt><trkpt lat="39.4883298" lon="20.2601872"><ele>2.333333333333333</ele><time>2026-05-02T14:36:24.74Z</time></trkpt><trkpt lat="39.4884013" lon="20.2601753"><ele>2.1666666666666665</ele><time>2026-05-02T14:36:25.74Z</time></trkpt><trkpt lat="39.4884717" lon="20.2601599"><ele>2.0</ele><time>2026-05-02T14:36:26.739Z</time></trkpt><trkpt lat="39.4885394" lon="20.2601469"><ele>1.9999999999999998</ele><time>2026-05-02T14:36:27.739Z</time></trkpt><trkpt lat="39.4886126" lon="20.2601339"><ele>2.0</ele><time>2026-05-02T14:36:28.74Z</time></trkpt><trkpt lat="39.4886875" lon="20.2601204"><ele>2.0</ele><time>2026-05-02T14:36:29.739Z</time></trkpt><trkpt lat="39.4887535" lon="20.2601077"><ele>2.0</ele><time>2026-05-02T14:36:30.74Z</time></trkpt><trkpt lat="39.48886" lon="20.2600979"><ele>1.9999999999999998</ele><time>2026-05-02T14:36:32.74Z</time></trkpt><trkpt lat="39.4889535" lon="20.2600856"><ele>2.0</ele><time>2026-05-02T14:36:34.739Z</time></trkpt><trkpt lat="39.4890654" lon="20.2600649"><ele>1.8333333333333333</ele><time>2026-05-02T14:36:36.74Z</time></trkpt><trkpt lat="39.4891832" lon="20.2600439"><ele>1.6666666666666665</ele><time>2026-05-02T14:36:38.74Z</time></trkpt><trkpt lat="39.4893006" lon="20.2600287"><ele>1.5</ele><time>2026-05-02T14:36:40.74Z</time></trkpt><trkpt lat="39.4893667" lon="20.2600153"><ele>1.3333333333333333</ele><time>2026-05-02T14:36:41.74Z</time></trkpt><trkpt lat="39.489437" lon="20.2599985"><ele>1.1666666666666665</ele><time>2026-05-02T14:36:42.739Z</time></trkpt><trkpt lat="39.4895055" lon="20.2599834"><ele>1.0</ele><time>2026-05-02T14:36:43.74Z</time></trkpt><trkpt lat="39.4895775" lon="20.2599669"><ele>1.0</ele><time>2026-05-02T14:36:44.74Z</time></trkpt><trkpt lat="39.4896527" lon="20.2599532"><ele>0.9999999999999999</ele><time>2026-05-02T14:36:45.74Z</time></trkpt><trkpt lat="39.48973" lon="20.2599394"><ele>1.0</ele><time>2026-05-02T14:36:46.74Z</time></trkpt><trkpt lat="39.4898066" lon="20.2599245"><ele>1.0</ele><time>2026-05-02T14:36:47.74Z</time></trkpt><trkpt lat="39.4898762" lon="20.2599125"><ele>0.9999999999999999</ele><time>2026-05-02T14:36:48.74Z</time></trkpt><trkpt lat="39.4899415" lon="20.259902"><ele>1.0</ele><time>2026-05-02T14:36:49.739Z</time></trkpt><trkpt lat="39.4900069" lon="20.2598953"><ele>1.0</ele><time>2026-05-02T14:36:50.739Z</time></trkpt><trkpt lat="39.4900746" lon="20.2598931"><ele>1.0</ele><time>2026-05-02T14:36:51.74Z</time></trkpt><trkpt lat="39.4901482" lon="20.2598963"><ele>0.9999999999999999</ele><time>2026-05-02T14:36:52.739Z</time></trkpt><trkpt lat="39.4902186" lon="20.2599008"><ele>1.0</ele><time>2026-05-02T14:36:53.739Z</time></trkpt><trkpt lat="39.4902906" lon="20.259906"><ele>1.0</ele><time>2026-05-02T14:36:54.739Z</time></trkpt><trkpt lat="39.4903625" lon="20.2599138"><ele>0.9999999999999999</ele><time>2026-05-02T14:36:55.739Z</time></trkpt><trkpt lat="39.4904372" lon="20.2599248"><ele>1.0</ele><time>2026-05-02T14:36:56.74Z</time></trkpt><trkpt lat="39.4905117" lon="20.2599406"><ele>1.0</ele><time>2026-05-02T14:36:57.74Z</time></trkpt><trkpt lat="39.4905852" lon="20.2599588"><ele>0.9999999999999999</ele><time>2026-05-02T14:36:58.739Z</time></trkpt><trkpt lat="39.4906611" lon="20.2599792"><ele>1.0</ele><time>2026-05-02T14:36:59.739Z</time></trkpt><trkpt lat="39.4907387" lon="20.2600039"><ele>1.0</ele><time>2026-05-02T14:37:00.739Z</time></trkpt><trkpt lat="39.4908139" lon="20.2600294"><ele>1.0</ele><time>2026-05-02T14:37:01.74Z</time></trkpt><trkpt lat="39.4908866" lon="20.2600602"><ele>0.9999999999999999</ele><time>2026-05-02T14:37:02.739Z</time></trkpt><trkpt lat="39.4909574" lon="20.2600886"><ele>1.0</ele><time>2026-05-02T14:37:03.74Z</time></trkpt><trkpt lat="39.491019" lon="20.2601157"><ele>1.0</ele><time>2026-05-02T14:37:04.74Z</time></trkpt><trkpt lat="39.4910847" lon="20.2601434"><ele>0.9999999999999999</ele><time>2026-05-02T14:37:05.74Z</time></trkpt><trkpt lat="39.4911552" lon="20.2601661"><ele>1.0</ele><time>2026-05-02T14:37:06.74Z</time></trkpt><trkpt lat="39.4912261" lon="20.2601865"><ele>1.0</ele><time>2026-05-02T14:37:07.74Z</time></trkpt><trkpt lat="39.4913" lon="20.2602024"><ele>0.9999999999999999</ele><time>2026-05-02T14:37:08.74Z</time></trkpt><trkpt lat="39.4913736" lon="20.2602236"><ele>1.0</ele><time>2026-05-02T14:37:09.74Z</time></trkpt><trkpt lat="39.4914374" lon="20.2602427"><ele>1.0</ele><time>2026-05-02T14:37:10.74Z</time></trkpt><trkpt lat="39.4915431" lon="20.2602786"><ele>0.9999999999999999</ele><time>2026-05-02T14:37:12.739Z</time></trkpt><trkpt lat="39.491626" lon="20.2602935"><ele>1.0</ele><time>2026-05-02T14:37:14.74Z</time></trkpt><trkpt lat="39.491688" lon="20.2603109"><ele>1.0</ele><time>2026-05-02T14:37:16.74Z</time></trkpt><trkpt lat="39.4917756" lon="20.2603663"><ele>1.0</ele><time>2026-05-02T14:37:59.74Z</time></trkpt><trkpt lat="39.4918626" lon="20.2604017"><ele>0.9999999999999999</ele><time>2026-05-02T14:38:01.74Z</time></trkpt><trkpt lat="39.4919137" lon="20.2603508"><ele>1.0</ele><time>2026-05-02T14:38:03.74Z</time></trkpt><trkpt lat="39.4918719" lon="20.2602793"><ele>0.9999999999999999</ele><time>2026-05-02T14:38:05.74Z</time></trkpt><trkpt lat="39.4917508" lon="20.2602284"><ele>1.0</ele><time>2026-05-02T14:38:07.739Z</time></trkpt><trkpt lat="39.4916843" lon="20.2602027"><ele>1.0</ele><time>2026-05-02T14:38:08.739Z</time></trkpt><trkpt lat="39.4916222" lon="20.2601706"><ele>1.0</ele><time>2026-05-02T14:38:09.739Z</time></trkpt><trkpt lat="39.4915532" lon="20.2601404"><ele>0.9999999999999999</ele><time>2026-05-02T14:38:10.74Z</time></trkpt><trkpt lat="39.4914782" lon="20.2601101"><ele>1.0</ele><time>2026-05-02T14:38:11.739Z</time></trkpt><trkpt lat="39.4914035" lon="20.2600746"><ele>0.9999999999999999</ele><time>2026-05-02T14:38:12.74Z</time></trkpt><trkpt lat="39.4913317" lon="20.2600435"><ele>1.0</ele><time>2026-05-02T14:38:13.74Z</time></trkpt><trkpt lat="39.4912599" lon="20.2600145"><ele>1.0</ele><time>2026-05-02T14:38:14.74Z</time></trkpt><trkpt lat="39.4911881" lon="20.2599843"><ele>1.0</ele><time>2026-05-02T14:38:15.74Z</time></trkpt><trkpt lat="39.4911133" lon="20.2599539"><ele>0.9999999999999999</ele><time>2026-05-02T14:38:16.739Z</time></trkpt><trkpt lat="39.4910323" lon="20.2599212"><ele>1.0</ele><time>2026-05-02T14:38:17.74Z</time></trkpt><trkpt lat="39.4909469" lon="20.2598817"><ele>1.0</ele><time>2026-05-02T14:38:18.739Z</time></trkpt><trkpt lat="39.4908582" lon="20.25984"><ele>1.0</ele><time>2026-05-02T14:38:19.74Z</time></trkpt><trkpt lat="39.490775" lon="20.259787"><ele>1.0</ele><time>2026-05-02T14:38:20.74Z</time></trkpt><trkpt lat="39.4907012" lon="20.2597256"><ele>1.0</ele><time>2026-05-02T14:38:21.739Z</time></trkpt><trkpt lat="39.4906299" lon="20.2596624"><ele>1.0</ele><time>2026-05-02T14:38:22.74Z</time></trkpt><trkpt lat="39.4905614" lon="20.2595882"><ele>0.6666666666666666</ele><time>2026-05-02T14:38:23.739Z</time></trkpt><trkpt lat="39.4904974" lon="20.2595131"><ele>0.3333333333333333</ele><time>2026-05-02T14:38:24.74Z</time></trkpt><trkpt lat="39.4904331" lon="20.2594385"><ele>0.0</ele><time>2026-05-02T14:38:25.74Z</time></trkpt><trkpt lat="39.4903584" lon="20.2593823"><ele>-0.3333333333333333</ele><time>2026-05-02T14:38:26.739Z</time></trkpt><trkpt lat="39.490276" lon="20.2593533"><ele>-0.6666666666666666</ele><time>2026-05-02T14:38:27.74Z</time></trkpt><trkpt lat="39.490189" lon="20.2593631"><ele>-1.0</ele><time>2026-05-02T14:38:28.739Z</time></trkpt><trkpt lat="39.4901099" lon="20.2594114"><ele>-1.2000000000000002</ele><time>2026-05-02T14:38:29.74Z</time></trkpt><trkpt lat="39.4900257" lon="20.2594813"><ele>-1.4000000000000001</ele><time>2026-05-02T14:38:30.739Z</time></trkpt><trkpt lat="39.4899354" lon="20.2595595"><ele>-1.6</ele><time>2026-05-02T14:38:31.739Z</time></trkpt><trkpt lat="39.4898376" lon="20.2596269"><ele>-1.8</ele><time>2026-05-02T14:38:32.739Z</time></trkpt><trkpt lat="39.4897385" lon="20.259682"><ele>-2.0</ele><time>2026-05-02T14:38:33.74Z</time></trkpt><trkpt lat="39.4896425" lon="20.2597212"><ele>-1.6</ele><time>2026-05-02T14:38:34.74Z</time></trkpt><trkpt lat="39.4895503" lon="20.2597491"><ele>-1.2000000000000002</ele><time>2026-05-02T14:38:35.739Z</time></trkpt><trkpt lat="39.4894522" lon="20.2597785"><ele>-0.8</ele><time>2026-05-02T14:38:36.74Z</time></trkpt><trkpt lat="39.4893603" lon="20.2598015"><ele>-0.4</ele><time>2026-05-02T14:38:37.74Z</time></trkpt><trkpt lat="39.4892799" lon="20.2598226"><ele>0.0</ele><time>2026-05-02T14:38:38.739Z</time></trkpt><trkpt lat="39.4892015" lon="20.2598318"><ele>0.0</ele><time>2026-05-02T14:38:39.739Z</time></trkpt><trkpt lat="39.489127" lon="20.2598251"><ele>0.0</ele><time>2026-05-02T14:38:40.739Z</time></trkpt><trkpt lat="39.4890196" lon="20.2597906"><ele>0.0</ele><time>2026-05-02T14:38:42.739Z</time></trkpt><trkpt lat="39.4889342" lon="20.2597656"><ele>0.0</ele><time>2026-05-02T14:38:44.74Z</time></trkpt><trkpt lat="39.4888626" lon="20.2597457"><ele>0.0</ele><time>2026-05-02T14:38:46.74Z</time></trkpt><trkpt lat="39.4887936" lon="20.2597315"><ele>0.0</ele><time>2026-05-02T14:38:48.739Z</time></trkpt><trkpt lat="39.4887089" lon="20.2597222"><ele>0.14285714285714285</ele><time>2026-05-02T14:38:51.739Z</time></trkpt><trkpt lat="39.4886405" lon="20.259703"><ele>0.2857142857142857</ele><time>2026-05-02T14:38:54.74Z</time></trkpt><trkpt lat="39.4885643" lon="20.259682"><ele>0.42857142857142855</ele><time>2026-05-02T14:38:59.74Z</time></trkpt><trkpt lat="39.4884917" lon="20.2596823"><ele>0.5714285714285714</ele><time>2026-05-02T14:39:04.739Z</time></trkpt><trkpt lat="39.4885567" lon="20.2597124"><ele>0.7142857142857142</ele><time>2026-05-02T14:50:09.753Z</time></trkpt><trkpt lat="39.4884866" lon="20.2596754"><ele>0.8571428571428571</ele><time>2026-05-02T15:02:31.74Z</time></trkpt><trkpt lat="39.4884331" lon="20.2596111"><ele>1.0</ele><time>2026-05-02T15:26:26.731Z</time></trkpt><trkpt lat="39.4883596" lon="20.2595897"><ele>1.0</ele><time>2026-05-02T15:26:30.731Z</time></trkpt><trkpt lat="39.4882957" lon="20.2595262"><ele>1.0</ele><time>2026-05-02T15:27:10.732Z</time></trkpt><trkpt lat="39.4882015" lon="20.2595142"><ele>1.0</ele><time>2026-05-02T15:27:13.732Z</time></trkpt><trkpt lat="39.4880974" lon="20.2595307"><ele>1.0</ele><time>2026-05-02T15:27:15.732Z</time></trkpt><trkpt lat="39.4879814" lon="20.2595902"><ele>1.0</ele><time>2026-05-02T15:27:17.732Z</time></trkpt><trkpt lat="39.4879196" lon="20.259651"><ele>0.9999999999999999</ele><time>2026-05-02T15:27:18.731Z</time></trkpt><trkpt lat="39.4878582" lon="20.259725"><ele>1.0</ele><time>2026-05-02T15:27:19.732Z</time></trkpt><trkpt lat="39.4878067" lon="20.2597938"><ele>1.0</ele><time>2026-05-02T15:27:20.732Z</time></trkpt><trkpt lat="39.4877644" lon="20.2598575"><ele>1.0</ele><time>2026-05-02T15:27:21.731Z</time></trkpt><trkpt lat="39.4876885" lon="20.2599766"><ele>0.9999999999999999</ele><time>2026-05-02T15:27:23.732Z</time></trkpt><trkpt lat="39.4876323" lon="20.2600555"><ele>1.0</ele><time>2026-05-02T15:27:25.732Z</time></trkpt><trkpt lat="39.4875877" lon="20.260123"><ele>1.3333333333333333</ele><time>2026-05-02T15:27:37.732Z</time></trkpt><trkpt lat="39.4875197" lon="20.2601607"><ele>1.6666666666666665</ele><time>2026-05-02T15:27:40.731Z</time></trkpt><trkpt lat="39.487454" lon="20.2601708"><ele>2.0</ele><time>2026-05-02T15:27:42.732Z</time></trkpt><trkpt lat="39.4873604" lon="20.2601839"><ele>2.3333333333333335</ele><time>2026-05-02T15:27:44.732Z</time></trkpt><trkpt lat="39.4872928" lon="20.2601924"><ele>2.6666666666666665</ele><time>2026-05-02T15:27:45.731Z</time></trkpt><trkpt lat="39.4872205" lon="20.2602022"><ele>3.0</ele><time>2026-05-02T15:27:46.731Z</time></trkpt><trkpt lat="39.4871404" lon="20.2602186"><ele>3.0</ele><time>2026-05-02T15:27:47.731Z</time></trkpt><trkpt lat="39.4870547" lon="20.2602298"><ele>3.0</ele><time>2026-05-02T15:27:48.731Z</time></trkpt><trkpt lat="39.4869657" lon="20.260238"><ele>3.0</ele><time>2026-05-02T15:27:49.731Z</time></trkpt><trkpt lat="39.4868795" lon="20.2602437"><ele>3.0</ele><time>2026-05-02T15:27:50.731Z</time></trkpt><trkpt lat="39.4867962" lon="20.2602479"><ele>3.0</ele><time>2026-05-02T15:27:51.732Z</time></trkpt><trkpt lat="39.4867108" lon="20.2602374"><ele>3.0</ele><time>2026-05-02T15:27:52.732Z</time></trkpt><trkpt lat="39.4866265" lon="20.2602095"><ele>3.0</ele><time>2026-05-02T15:27:53.731Z</time></trkpt><trkpt lat="39.4865549" lon="20.2601656"><ele>3.0</ele><time>2026-05-02T15:27:54.732Z</time></trkpt><trkpt lat="39.486496" lon="20.260115"><ele>3.0</ele><time>2026-05-02T15:27:55.731Z</time></trkpt><trkpt lat="39.4864425" lon="20.2600598"><ele>3.0</ele><time>2026-05-02T15:27:56.732Z</time></trkpt><trkpt lat="39.4863642" lon="20.2599416"><ele>3.0</ele><time>2026-05-02T15:27:58.731Z</time></trkpt><trkpt lat="39.4863215" lon="20.2598484"><ele>3.0</ele><time>2026-05-02T15:28:00.731Z</time></trkpt><trkpt lat="39.486296" lon="20.2597684"><ele>2.9999999999999996</ele><time>2026-05-02T15:28:02.732Z</time></trkpt><trkpt lat="39.4862549" lon="20.2597033"><ele>3.0</ele><time>2026-05-02T15:29:23.731Z</time></trkpt><trkpt lat="39.486304" lon="20.2596504"><ele>3.0</ele><time>2026-05-02T15:29:27.732Z</time></trkpt><trkpt lat="39.486388" lon="20.2596762"><ele>3.0</ele><time>2026-05-02T15:29:50.732Z</time></trkpt><trkpt lat="39.4864632" lon="20.259701"><ele>3.0</ele><time>2026-05-02T15:29:52.732Z</time></trkpt><trkpt lat="39.4865475" lon="20.259697"><ele>2.9999999999999996</ele><time>2026-05-02T15:29:54.732Z</time></trkpt><trkpt lat="39.4866177" lon="20.2596919"><ele>3.0</ele><time>2026-05-02T15:29:56.731Z</time></trkpt><trkpt lat="39.4866692" lon="20.259644"><ele>3.0</ele><time>2026-05-02T15:29:58.732Z</time></trkpt><trkpt lat="39.4866705" lon="20.2595399"><ele>3.0</ele><time>2026-05-02T15:30:00.731Z</time></trkpt><trkpt lat="39.4866616" lon="20.2594249"><ele>3.0</ele><time>2026-05-02T15:30:02.732Z</time></trkpt><trkpt lat="39.4866985" lon="20.2593137"><ele>3.0</ele><time>2026-05-02T15:30:04.731Z</time></trkpt><trkpt lat="39.4867723" lon="20.2592269"><ele>3.0</ele><time>2026-05-02T15:30:06.731Z</time></trkpt><trkpt lat="39.4868617" lon="20.2591329"><ele>3.0</ele><time>2026-05-02T15:30:08.732Z</time></trkpt><trkpt lat="39.4869566" lon="20.2590699"><ele>3.0</ele><time>2026-05-02T15:30:10.732Z</time></trkpt><trkpt lat="39.4870704" lon="20.259066"><ele>3.0</ele><time>2026-05-02T15:30:12.732Z</time></trkpt><trkpt lat="39.4871423" lon="20.2590793"><ele>3.0</ele><time>2026-05-02T15:30:13.732Z</time></trkpt><trkpt lat="39.4872096" lon="20.2590983"><ele>3.0</ele><time>2026-05-02T15:30:14.732Z</time></trkpt><trkpt lat="39.4873327" lon="20.2591197"><ele>2.6</ele><time>2026-05-02T15:30:16.732Z</time></trkpt><trkpt lat="39.4874532" lon="20.2591339"><ele>2.1999999999999997</ele><time>2026-05-02T15:30:18.732Z</time></trkpt><trkpt lat="39.4875638" lon="20.2591527"><ele>1.8</ele><time>2026-05-02T15:30:20.732Z</time></trkpt><trkpt lat="39.4876267" lon="20.2591667"><ele>1.4</ele><time>2026-05-02T15:30:21.732Z</time></trkpt><trkpt lat="39.4877483" lon="20.259194"><ele>1.0</ele><time>2026-05-02T15:30:23.732Z</time></trkpt><trkpt lat="39.4878169" lon="20.2592153"><ele>1.0</ele><time>2026-05-02T15:30:24.731Z</time></trkpt><trkpt lat="39.4879226" lon="20.2592517"><ele>1.0</ele><time>2026-05-02T15:30:26.731Z</time></trkpt><trkpt lat="39.4880049" lon="20.259321"><ele>1.0</ele><time>2026-05-02T15:30:28.732Z</time></trkpt><trkpt lat="39.4880381" lon="20.2594469"><ele>1.0</ele><time>2026-05-02T15:30:30.731Z</time></trkpt><trkpt lat="39.4879917" lon="20.2595746"><ele>1.0</ele><time>2026-05-02T15:30:32.731Z</time></trkpt><trkpt lat="39.4879435" lon="20.2596505"><ele>0.9999999999999999</ele><time>2026-05-02T15:30:33.732Z</time></trkpt><trkpt lat="39.4878819" lon="20.2597316"><ele>1.0</ele><time>2026-05-02T15:30:34.731Z</time></trkpt><trkpt lat="39.4878232" lon="20.2598158"><ele>1.0</ele><time>2026-05-02T15:30:35.732Z</time></trkpt><trkpt lat="39.487765" lon="20.2598962"><ele>1.0</ele><time>2026-05-02T15:30:36.731Z</time></trkpt><trkpt lat="39.4877061" lon="20.2599787"><ele>0.9999999999999999</ele><time>2026-05-02T15:30:37.731Z</time></trkpt><trkpt lat="39.4876537" lon="20.2600535"><ele>1.0</ele><time>2026-05-02T15:30:38.731Z</time></trkpt><trkpt lat="39.4875973" lon="20.2601008"><ele>1.4</ele><time>2026-05-02T15:30:39.732Z</time></trkpt><trkpt lat="39.4875327" lon="20.2601385"><ele>1.8</ele><time>2026-05-02T15:30:40.731Z</time></trkpt><trkpt lat="39.487458" lon="20.2601742"><ele>2.1999999999999997</ele><time>2026-05-02T15:30:41.732Z</time></trkpt><trkpt lat="39.4873748" lon="20.2602044"><ele>2.6</ele><time>2026-05-02T15:30:42.731Z</time></trkpt><trkpt lat="39.4872698" lon="20.260245"><ele>3.0</ele><time>2026-05-02T15:30:43.732Z</time></trkpt><trkpt lat="39.4871611" lon="20.2602654"><ele>3.0</ele><time>2026-05-02T15:30:44.732Z</time></trkpt><trkpt lat="39.4870674" lon="20.2602914"><ele>3.0</ele><time>2026-05-02T15:30:45.731Z</time></trkpt><trkpt lat="39.4869828" lon="20.2603101"><ele>3.0</ele><time>2026-05-02T15:30:46.732Z</time></trkpt><trkpt lat="39.4869141" lon="20.2603352"><ele>3.0</ele><time>2026-05-02T15:30:47.732Z</time></trkpt><trkpt lat="39.4868244" lon="20.2604022"><ele>3.0</ele><time>2026-05-02T15:30:49.731Z</time></trkpt><trkpt lat="39.4868683" lon="20.2605018"><ele>3.0</ele><time>2026-05-02T15:30:52.732Z</time></trkpt><trkpt lat="39.4869336" lon="20.2604902"><ele>3.0</ele><time>2026-05-02T15:30:53.731Z</time></trkpt><trkpt lat="39.4870197" lon="20.2604711"><ele>3.0</ele><time>2026-05-02T15:30:54.732Z</time></trkpt><trkpt lat="39.4871251" lon="20.2604377"><ele>3.0</ele><time>2026-05-02T15:30:55.731Z</time></trkpt><trkpt lat="39.4872725" lon="20.2604366"><ele>3.0</ele><time>2026-05-02T15:30:56.732Z</time></trkpt><trkpt lat="39.4874175" lon="20.2603933"><ele>3.0</ele><time>2026-05-02T15:30:57.731Z</time></trkpt><trkpt lat="39.4875816" lon="20.2603529"><ele>3.0</ele><time>2026-05-02T15:30:58.732Z</time></trkpt><trkpt lat="39.4877318" lon="20.2603159"><ele>3.0</ele><time>2026-05-02T15:30:59.731Z</time></trkpt><trkpt lat="39.4878809" lon="20.2602801"><ele>2.75</ele><time>2026-05-02T15:31:00.732Z</time></trkpt><trkpt lat="39.4880204" lon="20.260253"><ele>2.5</ele><time>2026-05-02T15:31:01.732Z</time></trkpt><trkpt lat="39.4881491" lon="20.2602305"><ele>2.25</ele><time>2026-05-02T15:31:02.731Z</time></trkpt><trkpt lat="39.4882756" lon="20.260212"><ele>2.0</ele><time>2026-05-02T15:31:03.732Z</time></trkpt><trkpt lat="39.4884095" lon="20.2601927"><ele>2.0</ele><time>2026-05-02T15:31:04.731Z</time></trkpt><trkpt lat="39.4885419" lon="20.2601703"><ele>2.0</ele><time>2026-05-02T15:31:05.732Z</time></trkpt><trkpt lat="39.4886688" lon="20.2601481"><ele>2.0</ele><time>2026-05-02T15:31:06.732Z</time></trkpt><trkpt lat="39.4887954" lon="20.2601266"><ele>2.0</ele><time>2026-05-02T15:31:07.731Z</time></trkpt><trkpt lat="39.4889246" lon="20.2601042"><ele>1.75</ele><time>2026-05-02T15:31:08.731Z</time></trkpt><trkpt lat="39.4890587" lon="20.2600773"><ele>1.5</ele><time>2026-05-02T15:31:09.732Z</time></trkpt><trkpt lat="39.4891878" lon="20.2600547"><ele>1.25</ele><time>2026-05-02T15:31:10.731Z</time></trkpt><trkpt lat="39.4893154" lon="20.2600299"><ele>1.0</ele><time>2026-05-02T15:31:11.731Z</time></trkpt><trkpt lat="39.4894379" lon="20.2600113"><ele>1.0</ele><time>2026-05-02T15:31:12.731Z</time></trkpt><trkpt lat="39.4895492" lon="20.2599889"><ele>1.0</ele><time>2026-05-02T15:31:13.732Z</time></trkpt><trkpt lat="39.4896546" lon="20.2599728"><ele>1.0</ele><time>2026-05-02T15:31:14.732Z</time></trkpt><trkpt lat="39.4897587" lon="20.2599547"><ele>1.0</ele><time>2026-05-02T15:31:15.731Z</time></trkpt><trkpt lat="39.489864" lon="20.2599367"><ele>1.0</ele><time>2026-05-02T15:31:16.731Z</time></trkpt><trkpt lat="39.489968" lon="20.2599235"><ele>1.0</ele><time>2026-05-02T15:31:17.731Z</time></trkpt><trkpt lat="39.4900699" lon="20.2599135"><ele>1.0</ele><time>2026-05-02T15:31:18.732Z</time></trkpt><trkpt lat="39.4901701" lon="20.2599085"><ele>1.0</ele><time>2026-05-02T15:31:19.731Z</time></trkpt><trkpt lat="39.4902701" lon="20.2599133"><ele>1.0</ele><time>2026-05-02T15:31:20.732Z</time></trkpt><trkpt lat="39.4903637" lon="20.259924"><ele>1.0</ele><time>2026-05-02T15:31:21.731Z</time></trkpt><trkpt lat="39.4904613" lon="20.2599326"><ele>1.0</ele><time>2026-05-02T15:31:22.731Z</time></trkpt><trkpt lat="39.4905555" lon="20.2599482"><ele>1.0</ele><time>2026-05-02T15:31:23.732Z</time></trkpt><trkpt lat="39.4906481" lon="20.2599717"><ele>1.0</ele><time>2026-05-02T15:31:24.732Z</time></trkpt><trkpt lat="39.4907329" lon="20.2599952"><ele>1.0</ele><time>2026-05-02T15:31:25.732Z</time></trkpt><trkpt lat="39.4908068" lon="20.2600314"><ele>1.0</ele><time>2026-05-02T15:31:26.732Z</time></trkpt><trkpt lat="39.4909005" lon="20.2600825"><ele>1.0</ele><time>2026-05-02T15:31:28.732Z</time></trkpt><trkpt lat="39.4909833" lon="20.2601295"><ele>1.0</ele><time>2026-05-02T15:31:30.732Z</time></trkpt><trkpt lat="39.4910736" lon="20.2601732"><ele>1.0</ele><time>2026-05-02T15:31:32.732Z</time></trkpt><trkpt lat="39.4911825" lon="20.2602135"><ele>1.0</ele><time>2026-05-02T15:31:34.731Z</time></trkpt><trkpt lat="39.4913016" lon="20.2602399"><ele>1.0</ele><time>2026-05-02T15:31:36.732Z</time></trkpt><trkpt lat="39.4914035" lon="20.2602723"><ele>0.9999999999999999</ele><time>2026-05-02T15:31:38.732Z</time></trkpt><trkpt lat="39.4914996" lon="20.2603268"><ele>1.0</ele><time>2026-05-02T15:31:40.732Z</time></trkpt><trkpt lat="39.491587" lon="20.2603499"><ele>1.0</ele><time>2026-05-02T15:31:42.731Z</time></trkpt><trkpt lat="39.49165" lon="20.2603856"><ele>1.0</ele><time>2026-05-02T15:31:44.731Z</time></trkpt><trkpt lat="39.4917305" lon="20.2604171"><ele>0.9999999999999999</ele><time>2026-05-02T15:31:47.732Z</time></trkpt><trkpt lat="39.4917735" lon="20.2604828"><ele>1.0</ele><time>2026-05-02T15:31:50.732Z</time></trkpt><trkpt lat="39.4917729" lon="20.2605733"><ele>1.0</ele><time>2026-05-02T15:31:56.732Z</time></trkpt><trkpt lat="39.4917804" lon="20.2606621"><ele>0.9999999999999999</ele><time>2026-05-02T15:32:00.732Z</time></trkpt><trkpt lat="39.4917771" lon="20.2607463"><ele>1.0</ele><time>2026-05-02T15:32:03.732Z</time></trkpt><trkpt lat="39.4917444" lon="20.2608248"><ele>1.0</ele><time>2026-05-02T15:32:09.732Z</time></trkpt><trkpt lat="39.4918146" lon="20.2608619"><ele>0.9999999999999999</ele><time>2026-05-02T15:32:13.732Z</time></trkpt><trkpt lat="39.4917903" lon="20.2607776"><ele>1.0</ele><time>2026-05-02T15:33:32.728Z</time></trkpt><trkpt lat="39.4917458" lon="20.2607138"><ele>1.0</ele><time>2026-05-02T15:33:39.729Z</time></trkpt><trkpt lat="39.4917787" lon="20.260639"><ele>1.0</ele><time>2026-05-02T15:34:31.673Z</time></trkpt><trkpt lat="39.4917147" lon="20.2606624"><ele>1.0</ele><time>2026-05-02T15:35:15.728Z</time></trkpt><trkpt lat="39.4917852" lon="20.2606513"><ele>1.0</ele><time>2026-05-02T15:36:30.717Z</time></trkpt><trkpt lat="39.4917217" lon="20.2606433"><ele>1.0</ele><time>2026-05-02T15:37:12.737Z</time></trkpt></trkseg><trkseg><trkpt lat="39.507964" lon="20.2621681"><ele>3.0</ele><time>2026-05-02T16:52:20.728Z</time></trkpt><trkpt lat="39.5080658" lon="20.2621104"><ele>3.0</ele><time>2026-05-02T16:52:22.728Z</time></trkpt><trkpt lat="39.5081268" lon="20.2620709"><ele>3.0</ele><time>2026-05-02T16:52:23.727Z</time></trkpt><trkpt lat="39.5081874" lon="20.2620394"><ele>3.0</ele><time>2026-05-02T16:52:24.728Z</time></trkpt><trkpt lat="39.5082462" lon="20.2619979"><ele>3.0</ele><time>2026-05-02T16:52:25.727Z</time></trkpt><trkpt lat="39.5083172" lon="20.2619665"><ele>3.0</ele><time>2026-05-02T16:52:26.728Z</time></trkpt><trkpt lat="39.5083815" lon="20.2619156"><ele>3.0</ele><time>2026-05-02T16:52:27.728Z</time></trkpt><trkpt lat="39.5084533" lon="20.2618589"><ele>3.0</ele><time>2026-05-02T16:52:28.728Z</time></trkpt><trkpt lat="39.5085313" lon="20.261797"><ele>3.0</ele><time>2026-05-02T16:52:29.728Z</time></trkpt><trkpt lat="39.508619" lon="20.2617404"><ele>3.0</ele><time>2026-05-02T16:52:30.727Z</time></trkpt><trkpt lat="39.5086974" lon="20.2616812"><ele>3.0</ele><time>2026-05-02T16:52:31.727Z</time></trkpt><trkpt lat="39.5087884" lon="20.2616216"><ele>3.0</ele><time>2026-05-02T16:52:32.727Z</time></trkpt><trkpt lat="39.5088746" lon="20.2615661"><ele>3.0</ele><time>2026-05-02T16:52:33.728Z</time></trkpt><trkpt lat="39.5089658" lon="20.2615088"><ele>3.0</ele><time>2026-05-02T16:52:34.727Z</time></trkpt><trkpt lat="39.5090455" lon="20.2614545"><ele>3.0</ele><time>2026-05-02T16:52:35.728Z</time></trkpt><trkpt lat="39.5091083" lon="20.2614056"><ele>3.0</ele><time>2026-05-02T16:52:36.728Z</time></trkpt><trkpt lat="39.50917" lon="20.2613467"><ele>3.0</ele><time>2026-05-02T16:52:37.728Z</time></trkpt><trkpt lat="39.5092422" lon="20.2612766"><ele>3.0</ele><time>2026-05-02T16:52:38.728Z</time></trkpt><trkpt lat="39.5093208" lon="20.2612104"><ele>3.0</ele><time>2026-05-02T16:52:39.727Z</time></trkpt><trkpt lat="39.5093978" lon="20.2611306"><ele>3.0</ele><time>2026-05-02T16:52:40.728Z</time></trkpt><trkpt lat="39.5094882" lon="20.2610546"><ele>3.0</ele><time>2026-05-02T16:52:41.728Z</time></trkpt><trkpt lat="39.5095753" lon="20.2609707"><ele>3.0</ele><time>2026-05-02T16:52:42.727Z</time></trkpt><trkpt lat="39.5096561" lon="20.2608916"><ele>3.8</ele><time>2026-05-02T16:52:43.727Z</time></trkpt><trkpt lat="39.5097393" lon="20.2608031"><ele>4.6</ele><time>2026-05-02T16:52:44.727Z</time></trkpt><trkpt lat="39.5098196" lon="20.2607069"><ele>5.3999999999999995</ele><time>2026-05-02T16:52:45.728Z</time></trkpt><trkpt lat="39.5098884" lon="20.2605993"><ele>6.199999999999999</ele><time>2026-05-02T16:52:46.728Z</time></trkpt><trkpt lat="39.5099516" lon="20.2604846"><ele>7.0</ele><time>2026-05-02T16:52:47.728Z</time></trkpt><trkpt lat="39.5100082" lon="20.2603569"><ele>7.0</ele><time>2026-05-02T16:52:48.728Z</time></trkpt><trkpt lat="39.5100601" lon="20.2602192"><ele>7.0</ele><time>2026-05-02T16:52:49.727Z</time></trkpt><trkpt lat="39.5101041" lon="20.2600878"><ele>7.0</ele><time>2026-05-02T16:52:50.728Z</time></trkpt><trkpt lat="39.5101374" lon="20.2599586"><ele>7.0</ele><time>2026-05-02T16:52:51.728Z</time></trkpt><trkpt lat="39.5101861" lon="20.2598174"><ele>6.3999999999999995</ele><time>2026-05-02T16:52:52.727Z</time></trkpt><trkpt lat="39.5102218" lon="20.2596974"><ele>5.799999999999999</ele><time>2026-05-02T16:52:53.727Z</time></trkpt><trkpt lat="39.5102571" lon="20.2595782"><ele>5.2</ele><time>2026-05-02T16:52:54.727Z</time></trkpt><trkpt lat="39.5102969" lon="20.2594595"><ele>4.6</ele><time>2026-05-02T16:52:55.727Z</time></trkpt><trkpt lat="39.5103397" lon="20.2593595"><ele>4.0</ele><time>2026-05-02T16:52:56.728Z</time></trkpt><trkpt lat="39.510392" lon="20.2592571"><ele>3.9999999999999996</ele><time>2026-05-02T16:52:57.728Z</time></trkpt><trkpt lat="39.5104353" lon="20.2591882"><ele>4.0</ele><time>2026-05-02T16:52:58.728Z</time></trkpt><trkpt lat="39.5105033" lon="20.2591074"><ele>4.0</ele><time>2026-05-02T16:52:59.728Z</time></trkpt><trkpt lat="39.510567" lon="20.2590566"><ele>4.0</ele><time>2026-05-02T16:53:00.728Z</time></trkpt><trkpt lat="39.5106547" lon="20.2589951"><ele>3.9999999999999996</ele><time>2026-05-02T16:53:01.728Z</time></trkpt><trkpt lat="39.5107554" lon="20.2589294"><ele>4.0</ele><time>2026-05-02T16:53:02.728Z</time></trkpt><trkpt lat="39.5108568" lon="20.2588645"><ele>4.0</ele><time>2026-05-02T16:53:03.728Z</time></trkpt><trkpt lat="39.510963" lon="20.2588061"><ele>4.0</ele><time>2026-05-02T16:53:04.727Z</time></trkpt><trkpt lat="39.5110706" lon="20.2587513"><ele>4.0</ele><time>2026-05-02T16:53:05.727Z</time></trkpt><trkpt lat="39.5111691" lon="20.2587088"><ele>4.0</ele><time>2026-05-02T16:53:06.728Z</time></trkpt><trkpt lat="39.5112586" lon="20.2586614"><ele>4.0</ele><time>2026-05-02T16:53:07.727Z</time></trkpt><trkpt lat="39.5113388" lon="20.2586271"><ele>4.5</ele><time>2026-05-02T16:53:08.728Z</time></trkpt><trkpt lat="39.5114457" lon="20.2585801"><ele>5.0</ele><time>2026-05-02T16:53:10.727Z</time></trkpt><trkpt lat="39.5115177" lon="20.2585637"><ele>5.5</ele><time>2026-05-02T16:53:14.728Z</time></trkpt><trkpt lat="39.5115369" lon="20.2584852"><ele>6.0</ele><time>2026-05-02T16:53:17.727Z</time></trkpt><trkpt lat="39.5115167" lon="20.2583957"><ele>6.500000000000001</ele><time>2026-05-02T16:53:18.728Z</time></trkpt><trkpt lat="39.5114864" lon="20.2582904"><ele>7.0</ele><time>2026-05-02T16:53:19.727Z</time></trkpt><trkpt lat="39.5114555" lon="20.2581638"><ele>7.0</ele><time>2026-05-02T16:53:20.728Z</time></trkpt><trkpt lat="39.5114226" lon="20.25802"><ele>7.0</ele><time>2026-05-02T16:53:21.728Z</time></trkpt><trkpt lat="39.5113848" lon="20.2578747"><ele>7.0</ele><time>2026-05-02T16:53:22.728Z</time></trkpt><trkpt lat="39.5113478" lon="20.2577224"><ele>7.0</ele><time>2026-05-02T16:53:23.727Z</time></trkpt><trkpt lat="39.5113269" lon="20.2575595"><ele>7.0</ele><time>2026-05-02T16:53:24.728Z</time></trkpt><trkpt lat="39.5112913" lon="20.2574045"><ele>7.0</ele><time>2026-05-02T16:53:25.727Z</time></trkpt><trkpt lat="39.5112508" lon="20.2572528"><ele>7.0</ele><time>2026-05-02T16:53:26.728Z</time></trkpt><trkpt lat="39.5112207" lon="20.2571129"><ele>7.0</ele><time>2026-05-02T16:53:27.727Z</time></trkpt><trkpt lat="39.5111876" lon="20.2569806"><ele>6.833333333333334</ele><time>2026-05-02T16:53:28.728Z</time></trkpt><trkpt lat="39.5111584" lon="20.2568741"><ele>6.666666666666667</ele><time>2026-05-02T16:53:29.727Z</time></trkpt><trkpt lat="39.5111479" lon="20.2567936"><ele>6.5</ele><time>2026-05-02T16:53:30.727Z</time></trkpt><trkpt lat="39.5111895" lon="20.2566786"><ele>6.333333333333334</ele><time>2026-05-02T16:53:32.727Z</time></trkpt><trkpt lat="39.5113036" lon="20.2566475"><ele>6.166666666666667</ele><time>2026-05-02T16:53:34.728Z</time></trkpt><trkpt lat="39.5113814" lon="20.2566225"><ele>6.0</ele><time>2026-05-02T16:53:35.727Z</time></trkpt><trkpt lat="39.5114845" lon="20.2566223"><ele>6.0</ele><time>2026-05-02T16:53:36.727Z</time></trkpt><trkpt lat="39.5115959" lon="20.2566417"><ele>6.0</ele><time>2026-05-02T16:53:37.728Z</time></trkpt><trkpt lat="39.5116958" lon="20.2566612"><ele>6.0</ele><time>2026-05-02T16:53:38.727Z</time></trkpt><trkpt lat="39.5118013" lon="20.2566864"><ele>6.0</ele><time>2026-05-02T16:53:39.727Z</time></trkpt><trkpt lat="39.5119008" lon="20.256698"><ele>6.0</ele><time>2026-05-02T16:53:40.727Z</time></trkpt><trkpt lat="39.5119988" lon="20.2567116"><ele>6.6</ele><time>2026-05-02T16:53:41.728Z</time></trkpt><trkpt lat="39.5121082" lon="20.2567377"><ele>7.199999999999999</ele><time>2026-05-02T16:53:42.727Z</time></trkpt><trkpt lat="39.5122162" lon="20.2567562"><ele>7.800000000000001</ele><time>2026-05-02T16:53:43.728Z</time></trkpt><trkpt lat="39.5123139" lon="20.2567661"><ele>8.4</ele><time>2026-05-02T16:53:44.728Z</time></trkpt><trkpt lat="39.5124078" lon="20.256786"><ele>9.0</ele><time>2026-05-02T16:53:45.727Z</time></trkpt><trkpt lat="39.5124979" lon="20.2568053"><ele>9.0</ele><time>2026-05-02T16:53:46.727Z</time></trkpt><trkpt lat="39.5125749" lon="20.2568194"><ele>9.0</ele><time>2026-05-02T16:53:47.728Z</time></trkpt><trkpt lat="39.5126844" lon="20.2568515"><ele>9.0</ele><time>2026-05-02T16:53:49.727Z</time></trkpt><trkpt lat="39.5127694" lon="20.2569017"><ele>9.0</ele><time>2026-05-02T16:53:52.728Z</time></trkpt><trkpt lat="39.5128658" lon="20.2568962"><ele>9.0</ele><time>2026-05-02T16:53:54.728Z</time></trkpt><trkpt lat="39.5129485" lon="20.2568745"><ele>9.8</ele><time>2026-05-02T16:53:55.727Z</time></trkpt><trkpt lat="39.5130196" lon="20.2568431"><ele>10.600000000000001</ele><time>2026-05-02T16:53:56.728Z</time></trkpt><trkpt lat="39.5131069" lon="20.2568067"><ele>11.4</ele><time>2026-05-02T16:53:57.728Z</time></trkpt><trkpt lat="39.5132083" lon="20.2567666"><ele>12.200000000000001</ele><time>2026-05-02T16:53:58.727Z</time></trkpt><trkpt lat="39.5133074" lon="20.2567248"><ele>13.0</ele><time>2026-05-02T16:53:59.727Z</time></trkpt><trkpt lat="39.5134131" lon="20.2566654"><ele>13.0</ele><time>2026-05-02T16:54:00.727Z</time></trkpt><trkpt lat="39.5135193" lon="20.2566122"><ele>13.0</ele><time>2026-05-02T16:54:01.727Z</time></trkpt><trkpt lat="39.51364" lon="20.2565603"><ele>13.0</ele><time>2026-05-02T16:54:02.728Z</time></trkpt><trkpt lat="39.5137555" lon="20.2564991"><ele>13.0</ele><time>2026-05-02T16:54:03.727Z</time></trkpt><trkpt lat="39.5138822" lon="20.2564433"><ele>13.0</ele><time>2026-05-02T16:54:04.728Z</time></trkpt><trkpt lat="39.513998" lon="20.2563818"><ele>13.0</ele><time>2026-05-02T16:54:05.728Z</time></trkpt><trkpt lat="39.5141204" lon="20.2563275"><ele>13.0</ele><time>2026-05-02T16:54:06.728Z</time></trkpt><trkpt lat="39.5142379" lon="20.2562804"><ele>13.0</ele><time>2026-05-02T16:54:07.727Z</time></trkpt><trkpt lat="39.5143596" lon="20.256239"><ele>13.0</ele><time>2026-05-02T16:54:08.727Z</time></trkpt><trkpt lat="39.5144768" lon="20.2562072"><ele>13.0</ele><time>2026-05-02T16:54:09.727Z</time></trkpt><trkpt lat="39.5145921" lon="20.2561806"><ele>13.0</ele><time>2026-05-02T16:54:10.727Z</time></trkpt><trkpt lat="39.5147095" lon="20.2561634"><ele>13.0</ele><time>2026-05-02T16:54:11.727Z</time></trkpt><trkpt lat="39.5148204" lon="20.2561458"><ele>13.2</ele><time>2026-05-02T16:54:12.728Z</time></trkpt><trkpt lat="39.5149296" lon="20.2561324"><ele>13.4</ele><time>2026-05-02T16:54:13.727Z</time></trkpt><trkpt lat="39.515034" lon="20.2561244"><ele>13.599999999999998</ele><time>2026-05-02T16:54:14.727Z</time></trkpt><trkpt lat="39.5151465" lon="20.2561255"><ele>13.799999999999999</ele><time>2026-05-02T16:54:15.727Z</time></trkpt><trkpt lat="39.5152538" lon="20.2561275"><ele>14.0</ele><time>2026-05-02T16:54:16.728Z</time></trkpt><trkpt lat="39.5153652" lon="20.2561266"><ele>13.75</ele><time>2026-05-02T16:54:17.727Z</time></trkpt><trkpt lat="39.5154978" lon="20.2561215"><ele>13.5</ele><time>2026-05-02T16:54:18.728Z</time></trkpt><trkpt lat="39.5156282" lon="20.2561179"><ele>13.25</ele><time>2026-05-02T16:54:19.727Z</time></trkpt><trkpt lat="39.5157517" lon="20.2561116"><ele>13.0</ele><time>2026-05-02T16:54:20.727Z</time></trkpt><trkpt lat="39.5158786" lon="20.2561078"><ele>13.0</ele><time>2026-05-02T16:54:21.727Z</time></trkpt><trkpt lat="39.5160015" lon="20.2561026"><ele>13.0</ele><time>2026-05-02T16:54:22.727Z</time></trkpt><trkpt lat="39.5161268" lon="20.2560992"><ele>13.0</ele><time>2026-05-02T16:54:23.727Z</time></trkpt><trkpt lat="39.5162625" lon="20.2560877"><ele>13.0</ele><time>2026-05-02T16:54:24.727Z</time></trkpt><trkpt lat="39.5163883" lon="20.2560746"><ele>13.25</ele><time>2026-05-02T16:54:25.728Z</time></trkpt><trkpt lat="39.5165145" lon="20.256052"><ele>13.5</ele><time>2026-05-02T16:54:26.728Z</time></trkpt><trkpt lat="39.5166384" lon="20.2560273"><ele>13.75</ele><time>2026-05-02T16:54:27.728Z</time></trkpt><trkpt lat="39.5167706" lon="20.2559965"><ele>14.0</ele><time>2026-05-02T16:54:28.727Z</time></trkpt><trkpt lat="39.5169041" lon="20.2559524"><ele>14.0</ele><time>2026-05-02T16:54:29.727Z</time></trkpt><trkpt lat="39.5170352" lon="20.2559124"><ele>14.0</ele><time>2026-05-02T16:54:30.727Z</time></trkpt><trkpt lat="39.5171694" lon="20.2558755"><ele>14.0</ele><time>2026-05-02T16:54:31.728Z</time></trkpt><trkpt lat="39.5172908" lon="20.2558325"><ele>14.0</ele><time>2026-05-02T16:54:32.728Z</time></trkpt><trkpt lat="39.5174018" lon="20.2557867"><ele>13.799999999999999</ele><time>2026-05-02T16:54:33.728Z</time></trkpt><trkpt lat="39.5175136" lon="20.255736"><ele>13.599999999999998</ele><time>2026-05-02T16:54:34.728Z</time></trkpt><trkpt lat="39.5176182" lon="20.2556993"><ele>13.4</ele><time>2026-05-02T16:54:35.728Z</time></trkpt><trkpt lat="39.5177207" lon="20.2556557"><ele>13.2</ele><time>2026-05-02T16:54:36.728Z</time></trkpt><trkpt lat="39.5178279" lon="20.2556212"><ele>13.0</ele><time>2026-05-02T16:54:37.727Z</time></trkpt><trkpt lat="39.5179304" lon="20.2555842"><ele>13.0</ele><time>2026-05-02T16:54:38.728Z</time></trkpt><trkpt lat="39.5180458" lon="20.2555557"><ele>13.0</ele><time>2026-05-02T16:54:39.727Z</time></trkpt><trkpt lat="39.5181637" lon="20.2555204"><ele>13.0</ele><time>2026-05-02T16:54:40.727Z</time></trkpt><trkpt lat="39.5182826" lon="20.2554798"><ele>13.0</ele><time>2026-05-02T16:54:41.728Z</time></trkpt><trkpt lat="39.518405" lon="20.2554313"><ele>13.0</ele><time>2026-05-02T16:54:42.728Z</time></trkpt><trkpt lat="39.5185154" lon="20.2553775"><ele>13.0</ele><time>2026-05-02T16:54:43.728Z</time></trkpt><trkpt lat="39.5186223" lon="20.2553147"><ele>13.0</ele><time>2026-05-02T16:54:44.728Z</time></trkpt><trkpt lat="39.5187325" lon="20.2552401"><ele>13.0</ele><time>2026-05-02T16:54:45.727Z</time></trkpt><trkpt lat="39.5188458" lon="20.2551671"><ele>13.25</ele><time>2026-05-02T16:54:46.728Z</time></trkpt><trkpt lat="39.5189724" lon="20.2550921"><ele>13.5</ele><time>2026-05-02T16:54:47.727Z</time></trkpt><trkpt lat="39.5191038" lon="20.255019"><ele>13.75</ele><time>2026-05-02T16:54:48.727Z</time></trkpt><trkpt lat="39.5192511" lon="20.2549512"><ele>14.0</ele><time>2026-05-02T16:54:49.728Z</time></trkpt><trkpt lat="39.5193852" lon="20.254881"><ele>14.0</ele><time>2026-05-02T16:54:50.728Z</time></trkpt><trkpt lat="39.5195204" lon="20.2548243"><ele>14.0</ele><time>2026-05-02T16:54:51.728Z</time></trkpt><trkpt lat="39.5196501" lon="20.2547835"><ele>14.0</ele><time>2026-05-02T16:54:52.727Z</time></trkpt><trkpt lat="39.5197734" lon="20.2547459"><ele>14.0</ele><time>2026-05-02T16:54:53.728Z</time></trkpt><trkpt lat="39.5198909" lon="20.2547298"><ele>13.75</ele><time>2026-05-02T16:54:54.728Z</time></trkpt><trkpt lat="39.5200108" lon="20.2547298"><ele>13.5</ele><time>2026-05-02T16:54:55.728Z</time></trkpt><trkpt lat="39.5201358" lon="20.254742"><ele>13.25</ele><time>2026-05-02T16:54:56.728Z</time></trkpt><trkpt lat="39.5202558" lon="20.2547632"><ele>13.0</ele><time>2026-05-02T16:54:57.728Z</time></trkpt><trkpt lat="39.520383" lon="20.254784"><ele>13.2</ele><time>2026-05-02T16:54:58.728Z</time></trkpt><trkpt lat="39.5204999" lon="20.2548036"><ele>13.4</ele><time>2026-05-02T16:54:59.728Z</time></trkpt><trkpt lat="39.5205941" lon="20.2548301"><ele>13.599999999999998</ele><time>2026-05-02T16:55:00.728Z</time></trkpt><trkpt lat="39.5206774" lon="20.2548652"><ele>13.799999999999999</ele><time>2026-05-02T16:55:01.728Z</time></trkpt><trkpt lat="39.5207527" lon="20.2549001"><ele>14.0</ele><time>2026-05-02T16:55:02.728Z</time></trkpt><trkpt lat="39.5208259" lon="20.2549298"><ele>14.000000000000002</ele><time>2026-05-02T16:55:03.728Z</time></trkpt><trkpt lat="39.5208888" lon="20.2549411"><ele>14.0</ele><time>2026-05-02T16:55:04.728Z</time></trkpt><trkpt lat="39.5210027" lon="20.254933"><ele>14.0</ele><time>2026-05-02T16:55:06.728Z</time></trkpt><trkpt lat="39.5210656" lon="20.2549086"><ele>14.0</ele><time>2026-05-02T16:55:07.728Z</time></trkpt><trkpt lat="39.5211267" lon="20.2548746"><ele>14.000000000000002</ele><time>2026-05-02T16:55:08.727Z</time></trkpt><trkpt lat="39.5211733" lon="20.2548044"><ele>14.0</ele><time>2026-05-02T16:55:09.727Z</time></trkpt><trkpt lat="39.5212163" lon="20.2547024"><ele>14.399999999999999</ele><time>2026-05-02T16:55:10.728Z</time></trkpt><trkpt lat="39.5212619" lon="20.2545809"><ele>14.799999999999999</ele><time>2026-05-02T16:55:11.727Z</time></trkpt><trkpt lat="39.5213014" lon="20.2544626"><ele>15.200000000000001</ele><time>2026-05-02T16:55:12.728Z</time></trkpt><trkpt lat="39.521334" lon="20.2543397"><ele>15.600000000000001</ele><time>2026-05-02T16:55:13.728Z</time></trkpt><trkpt lat="39.5213749" lon="20.2542107"><ele>16.0</ele><time>2026-05-02T16:55:14.728Z</time></trkpt><trkpt lat="39.5214259" lon="20.2540731"><ele>16.25</ele><time>2026-05-02T16:55:15.727Z</time></trkpt><trkpt lat="39.5214804" lon="20.2539449"><ele>16.5</ele><time>2026-05-02T16:55:16.727Z</time></trkpt><trkpt lat="39.5215425" lon="20.2538127"><ele>16.75</ele><time>2026-05-02T16:55:17.727Z</time></trkpt><trkpt lat="39.5215974" lon="20.2536844"><ele>17.0</ele><time>2026-05-02T16:55:18.728Z</time></trkpt><trkpt lat="39.5216555" lon="20.2535551"><ele>17.0</ele><time>2026-05-02T16:55:19.727Z</time></trkpt><trkpt lat="39.5217149" lon="20.253422"><ele>17.0</ele><time>2026-05-02T16:55:20.727Z</time></trkpt><trkpt lat="39.5217728" lon="20.2533013"><ele>17.0</ele><time>2026-05-02T16:55:21.728Z</time></trkpt><trkpt lat="39.5218401" lon="20.2531909"><ele>17.0</ele><time>2026-05-02T16:55:22.728Z</time></trkpt><trkpt lat="39.5219127" lon="20.2530792"><ele>17.0</ele><time>2026-05-02T16:55:23.727Z</time></trkpt><trkpt lat="39.5219924" lon="20.2529685"><ele>17.0</ele><time>2026-05-02T16:55:24.728Z</time></trkpt><trkpt lat="39.5220697" lon="20.2528515"><ele>17.0</ele><time>2026-05-02T16:55:25.727Z</time></trkpt><trkpt lat="39.5221497" lon="20.2527344"><ele>17.0</ele><time>2026-05-02T16:55:26.728Z</time></trkpt><trkpt lat="39.522228" lon="20.252618"><ele>17.0</ele><time>2026-05-02T16:55:27.727Z</time></trkpt><trkpt lat="39.5223169" lon="20.2525127"><ele>17.0</ele><time>2026-05-02T16:55:28.728Z</time></trkpt><trkpt lat="39.5223917" lon="20.2524042"><ele>17.0</ele><time>2026-05-02T16:55:29.727Z</time></trkpt><trkpt lat="39.52247" lon="20.252305"><ele>17.0</ele><time>2026-05-02T16:55:30.727Z</time></trkpt><trkpt lat="39.5225542" lon="20.2522094"><ele>17.0</ele><time>2026-05-02T16:55:31.727Z</time></trkpt><trkpt lat="39.5226334" lon="20.2521216"><ele>17.0</ele><time>2026-05-02T16:55:32.728Z</time></trkpt><trkpt lat="39.5227138" lon="20.2520313"><ele>16.75</ele><time>2026-05-02T16:55:33.727Z</time></trkpt><trkpt lat="39.5227969" lon="20.2519377"><ele>16.5</ele><time>2026-05-02T16:55:34.727Z</time></trkpt><trkpt lat="39.5228784" lon="20.2518383"><ele>16.25</ele><time>2026-05-02T16:55:35.728Z</time></trkpt><trkpt lat="39.52296" lon="20.2517371"><ele>16.0</ele><time>2026-05-02T16:55:36.728Z</time></trkpt><trkpt lat="39.5230441" lon="20.2516328"><ele>15.8</ele><time>2026-05-02T16:55:37.727Z</time></trkpt><trkpt lat="39.5231244" lon="20.2515345"><ele>15.600000000000001</ele><time>2026-05-02T16:55:38.727Z</time></trkpt><trkpt lat="39.5232023" lon="20.2514475"><ele>15.4</ele><time>2026-05-02T16:55:39.727Z</time></trkpt><trkpt lat="39.5232625" lon="20.2513697"><ele>15.2</ele><time>2026-05-02T16:55:40.728Z</time></trkpt><trkpt lat="39.5233373" lon="20.251271"><ele>15.0</ele><time>2026-05-02T16:55:42.727Z</time></trkpt><trkpt lat="39.5234027" lon="20.2512732"><ele>15.0</ele><time>2026-05-02T16:55:44.727Z</time></trkpt><trkpt lat="39.5234462" lon="20.2513477"><ele>15.0</ele><time>2026-05-02T16:55:46.728Z</time></trkpt><trkpt lat="39.5234789" lon="20.251516"><ele>15.0</ele><time>2026-05-02T16:55:48.727Z</time></trkpt><trkpt lat="39.5234992" lon="20.2516113"><ele>15.0</ele><time>2026-05-02T16:55:49.728Z</time></trkpt><trkpt lat="39.5235268" lon="20.2517173"><ele>15.0</ele><time>2026-05-02T16:55:50.728Z</time></trkpt><trkpt lat="39.523553" lon="20.2518276"><ele>15.5</ele><time>2026-05-02T16:55:51.728Z</time></trkpt><trkpt lat="39.523579" lon="20.2519447"><ele>16.0</ele><time>2026-05-02T16:55:52.727Z</time></trkpt><trkpt lat="39.5236285" lon="20.2520756"><ele>16.5</ele><time>2026-05-02T16:55:53.728Z</time></trkpt><trkpt lat="39.5236472" lon="20.2521732"><ele>17.0</ele><time>2026-05-02T16:55:54.728Z</time></trkpt><trkpt lat="39.5236563" lon="20.2522597"><ele>17.5</ele><time>2026-05-02T16:55:55.728Z</time></trkpt><trkpt lat="39.5236437" lon="20.2523568"><ele>18.0</ele><time>2026-05-02T16:55:57.727Z</time></trkpt><trkpt lat="39.5236417" lon="20.252474"><ele>18.5</ele><time>2026-05-02T16:56:00.727Z</time></trkpt><trkpt lat="39.5237034" lon="20.2525618"><ele>19.0</ele><time>2026-05-02T16:56:02.727Z</time></trkpt><trkpt lat="39.5237494" lon="20.2526461"><ele>19.5</ele><time>2026-05-02T16:56:04.727Z</time></trkpt><trkpt lat="39.5237931" lon="20.2527425"><ele>20.0</ele><time>2026-05-02T16:56:06.727Z</time></trkpt><trkpt lat="39.5238551" lon="20.252869"><ele>20.5</ele><time>2026-05-02T16:56:08.727Z</time></trkpt><trkpt lat="39.5238892" lon="20.252945"><ele>21.0</ele><time>2026-05-02T16:56:09.727Z</time></trkpt><trkpt lat="39.5239303" lon="20.2530492"><ele>21.666666666666668</ele><time>2026-05-02T16:56:11.728Z</time></trkpt><trkpt lat="39.5239862" lon="20.2531064"><ele>22.333333333333336</ele><time>2026-05-02T16:56:17.728Z</time></trkpt><trkpt lat="39.5240441" lon="20.2530566"><ele>23.0</ele><time>2026-05-02T16:56:19.728Z</time></trkpt><trkpt lat="39.524127" lon="20.2529812"><ele>23.666666666666668</ele><time>2026-05-02T16:56:21.727Z</time></trkpt><trkpt lat="39.5242031" lon="20.2529088"><ele>24.333333333333336</ele><time>2026-05-02T16:56:23.727Z</time></trkpt><trkpt lat="39.524281" lon="20.2528719"><ele>25.0</ele><time>2026-05-02T16:56:25.728Z</time></trkpt><trkpt lat="39.5243547" lon="20.2528909"><ele>25.000000000000004</ele><time>2026-05-02T16:56:27.728Z</time></trkpt><trkpt lat="39.5244266" lon="20.2530243"><ele>25.0</ele><time>2026-05-02T16:56:29.728Z</time></trkpt><trkpt lat="39.5244673" lon="20.2530913"><ele>25.0</ele><time>2026-05-02T16:56:30.727Z</time></trkpt><trkpt lat="39.5245113" lon="20.2531639"><ele>25.0</ele><time>2026-05-02T16:56:31.728Z</time></trkpt><trkpt lat="39.5245628" lon="20.2532413"><ele>25.000000000000004</ele><time>2026-05-02T16:56:32.728Z</time></trkpt><trkpt lat="39.5246117" lon="20.2533216"><ele>25.0</ele><time>2026-05-02T16:56:33.728Z</time></trkpt><trkpt lat="39.5246587" lon="20.253404"><ele>26.166666666666668</ele><time>2026-05-02T16:56:34.727Z</time></trkpt><trkpt lat="39.5247302" lon="20.2535136"><ele>27.333333333333336</ele><time>2026-05-02T16:56:36.727Z</time></trkpt><trkpt lat="39.5247732" lon="20.2535976"><ele>28.5</ele><time>2026-05-02T16:56:39.728Z</time></trkpt><trkpt lat="39.524835" lon="20.2537169"><ele>29.666666666666664</ele><time>2026-05-02T16:56:41.727Z</time></trkpt><trkpt lat="39.524869" lon="20.2537944"><ele>30.833333333333332</ele><time>2026-05-02T16:56:42.728Z</time></trkpt><trkpt lat="39.5249148" lon="20.2538699"><ele>32.0</ele><time>2026-05-02T16:56:43.728Z</time></trkpt><trkpt lat="39.5249565" lon="20.2539627"><ele>32.5</ele><time>2026-05-02T16:56:44.727Z</time></trkpt><trkpt lat="39.5250064" lon="20.2540549"><ele>33.0</ele><time>2026-05-02T16:56:45.728Z</time></trkpt><trkpt lat="39.5250551" lon="20.2541402"><ele>33.5</ele><time>2026-05-02T16:56:46.728Z</time></trkpt><trkpt lat="39.525105" lon="20.2542302"><ele>34.0</ele><time>2026-05-02T16:56:47.728Z</time></trkpt><trkpt lat="39.5251431" lon="20.2543038"><ele>34.5</ele><time>2026-05-02T16:56:48.727Z</time></trkpt><trkpt lat="39.5251879" lon="20.2543889"><ele>35.0</ele><time>2026-05-02T16:56:50.728Z</time></trkpt><trkpt lat="39.5252362" lon="20.2544652"><ele>35.0</ele><time>2026-05-02T16:56:52.728Z</time></trkpt><trkpt lat="39.5252682" lon="20.2545356"><ele>35.0</ele><time>2026-05-02T16:56:53.727Z</time></trkpt><trkpt lat="39.5253062" lon="20.2546131"><ele>35.0</ele><time>2026-05-02T16:56:54.728Z</time></trkpt><trkpt lat="39.5253489" lon="20.2546957"><ele>35.0</ele><time>2026-05-02T16:56:55.727Z</time></trkpt><trkpt lat="39.5253912" lon="20.2547842"><ele>35.0</ele><time>2026-05-02T16:56:56.728Z</time></trkpt><trkpt lat="39.525428" lon="20.254871"><ele>35.0</ele><time>2026-05-02T16:56:57.727Z</time></trkpt><trkpt lat="39.525469" lon="20.2549406"><ele>35.0</ele><time>2026-05-02T16:56:58.727Z</time></trkpt><trkpt lat="39.5255258" lon="20.2550438"><ele>45.0</ele><time>2026-05-02T16:57:00.727Z</time></trkpt><trkpt lat="39.525553" lon="20.255127"><ele>45.0</ele><time>2026-05-02T16:57:19.728Z</time></trkpt></trkseg><trkseg><trkpt lat="39.5260024" lon="20.2552822"><ele>45.0</ele><time>2026-05-03T05:12:26.743Z</time></trkpt><trkpt lat="39.5260173" lon="20.2551819"><ele>45.0</ele><time>2026-05-03T05:16:30.743Z</time></trkpt><trkpt lat="39.5258679" lon="20.2549969"><ele>45.0</ele><time>2026-05-03T05:16:32.742Z</time></trkpt><trkpt lat="39.5258108" lon="20.255061"><ele>45.0</ele><time>2026-05-03T05:16:34.742Z</time></trkpt><trkpt lat="39.5257504" lon="20.2551232"><ele>45.0</ele><time>2026-05-03T05:16:36.743Z</time></trkpt><trkpt lat="39.5256907" lon="20.2551778"><ele>45.0</ele><time>2026-05-03T05:16:38.743Z</time></trkpt><trkpt lat="39.5256255" lon="20.2552401"><ele>45.0</ele><time>2026-05-03T05:16:40.743Z</time></trkpt><trkpt lat="39.5255329" lon="20.2553406"><ele>45.0</ele><time>2026-05-03T05:16:42.743Z</time></trkpt><trkpt lat="39.5254776" lon="20.2553908"><ele>45.0</ele><time>2026-05-03T05:16:43.743Z</time></trkpt><trkpt lat="39.5253871" lon="20.255463"><ele>45.0</ele><time>2026-05-03T05:16:45.743Z</time></trkpt><trkpt lat="39.525334" lon="20.255513"><ele>45.0</ele><time>2026-05-03T05:16:47.742Z</time></trkpt><trkpt lat="39.525274" lon="20.2555695"><ele>43.4</ele><time>2026-05-03T05:16:50.742Z</time></trkpt><trkpt lat="39.5251983" lon="20.2556354"><ele>41.8</ele><time>2026-05-03T05:16:52.743Z</time></trkpt><trkpt lat="39.5251108" lon="20.2557166"><ele>40.2</ele><time>2026-05-03T05:16:54.742Z</time></trkpt><trkpt lat="39.5250083" lon="20.2557971"><ele>38.6</ele><time>2026-05-03T05:16:56.742Z</time></trkpt><trkpt lat="39.5249318" lon="20.2558662"><ele>37.0</ele><time>2026-05-03T05:16:58.742Z</time></trkpt><trkpt lat="39.5248616" lon="20.2559352"><ele>37.0</ele><time>2026-05-03T05:17:00.742Z</time></trkpt><trkpt lat="39.5247743" lon="20.2560096"><ele>37.0</ele><time>2026-05-03T05:17:02.743Z</time></trkpt><trkpt lat="39.5246737" lon="20.2560961"><ele>37.0</ele><time>2026-05-03T05:17:04.742Z</time></trkpt><trkpt lat="39.5246214" lon="20.2561439"><ele>37.0</ele><time>2026-05-03T05:17:05.742Z</time></trkpt><trkpt lat="39.5245702" lon="20.2561933"><ele>37.0</ele><time>2026-05-03T05:17:06.742Z</time></trkpt><trkpt lat="39.5244693" lon="20.2562961"><ele>36.333333333333336</ele><time>2026-05-03T05:17:08.743Z</time></trkpt><trkpt lat="39.5244168" lon="20.2563422"><ele>35.66666666666667</ele><time>2026-05-03T05:17:09.743Z</time></trkpt><trkpt lat="39.5243598" lon="20.2563827"><ele>35.0</ele><time>2026-05-03T05:17:10.742Z</time></trkpt><trkpt lat="39.5242739" lon="20.2564522"><ele>34.333333333333336</ele><time>2026-05-03T05:17:12.743Z</time></trkpt><trkpt lat="39.5242198" lon="20.2565194"><ele>33.666666666666664</ele><time>2026-05-03T05:17:15.743Z</time></trkpt><trkpt lat="39.5242029" lon="20.2566009"><ele>33.0</ele><time>2026-05-03T05:17:17.743Z</time></trkpt><trkpt lat="39.5242471" lon="20.256702"><ele>32.57142857142857</ele><time>2026-05-03T05:17:19.742Z</time></trkpt><trkpt lat="39.5242925" lon="20.2567745"><ele>32.142857142857146</ele><time>2026-05-03T05:17:20.743Z</time></trkpt><trkpt lat="39.524331" lon="20.2568451"><ele>31.714285714285715</ele><time>2026-05-03T05:17:21.743Z</time></trkpt><trkpt lat="39.5243708" lon="20.2569169"><ele>31.285714285714285</ele><time>2026-05-03T05:17:22.743Z</time></trkpt><trkpt lat="39.5244129" lon="20.256994"><ele>30.857142857142854</ele><time>2026-05-03T05:17:23.743Z</time></trkpt><trkpt lat="39.5244562" lon="20.2570716"><ele>30.42857142857143</ele><time>2026-05-03T05:17:24.743Z</time></trkpt><trkpt lat="39.5244896" lon="20.2571461"><ele>30.0</ele><time>2026-05-03T05:17:25.743Z</time></trkpt><trkpt lat="39.5245191" lon="20.2572804"><ele>29.4</ele><time>2026-05-03T05:17:27.743Z</time></trkpt><trkpt lat="39.5244807" lon="20.2573899"><ele>28.8</ele><time>2026-05-03T05:17:29.743Z</time></trkpt><trkpt lat="39.5243978" lon="20.2574745"><ele>28.200000000000003</ele><time>2026-05-03T05:17:31.742Z</time></trkpt><trkpt lat="39.5242985" lon="20.2575687"><ele>27.6</ele><time>2026-05-03T05:17:33.743Z</time></trkpt><trkpt lat="39.5242458" lon="20.2576156"><ele>27.0</ele><time>2026-05-03T05:17:34.743Z</time></trkpt><trkpt lat="39.5241268" lon="20.2576461"><ele>27.0</ele><time>2026-05-03T05:17:36.743Z</time></trkpt><trkpt lat="39.5240381" lon="20.2575678"><ele>27.000000000000004</ele><time>2026-05-03T05:17:38.743Z</time></trkpt><trkpt lat="39.5239739" lon="20.2574725"><ele>27.000000000000004</ele><time>2026-05-03T05:17:40.743Z</time></trkpt><trkpt lat="39.5238873" lon="20.257399"><ele>27.0</ele><time>2026-05-03T05:17:42.742Z</time></trkpt><trkpt lat="39.5237887" lon="20.2574586"><ele>27.0</ele><time>2026-05-03T05:17:44.743Z</time></trkpt><trkpt lat="39.5236846" lon="20.257573"><ele>26.333333333333332</ele><time>2026-05-03T05:17:46.743Z</time></trkpt><trkpt lat="39.5236234" lon="20.2576425"><ele>25.666666666666668</ele><time>2026-05-03T05:17:47.743Z</time></trkpt><trkpt lat="39.5235604" lon="20.257712"><ele>25.0</ele><time>2026-05-03T05:17:48.743Z</time></trkpt><trkpt lat="39.5234968" lon="20.2577782"><ele>24.333333333333336</ele><time>2026-05-03T05:17:49.742Z</time></trkpt><trkpt lat="39.5234296" lon="20.2578524"><ele>23.666666666666668</ele><time>2026-05-03T05:17:50.743Z</time></trkpt><trkpt lat="39.5233619" lon="20.2579233"><ele>23.0</ele><time>2026-05-03T05:17:51.742Z</time></trkpt><trkpt lat="39.5232974" lon="20.2580159"><ele>23.0</ele><time>2026-05-03T05:17:52.742Z</time></trkpt><trkpt lat="39.523224" lon="20.2580984"><ele>23.0</ele><time>2026-05-03T05:17:53.742Z</time></trkpt><trkpt lat="39.5231551" lon="20.258184"><ele>23.0</ele><time>2026-05-03T05:17:54.743Z</time></trkpt><trkpt lat="39.5230916" lon="20.2582749"><ele>23.0</ele><time>2026-05-03T05:17:55.743Z</time></trkpt><trkpt lat="39.5230399" lon="20.2583798"><ele>23.0</ele><time>2026-05-03T05:17:56.742Z</time></trkpt><trkpt lat="39.5230074" lon="20.2585013"><ele>23.0</ele><time>2026-05-03T05:17:57.742Z</time></trkpt><trkpt lat="39.5229742" lon="20.2586153"><ele>23.0</ele><time>2026-05-03T05:17:58.743Z</time></trkpt><trkpt lat="39.5229575" lon="20.258742"><ele>23.0</ele><time>2026-05-03T05:17:59.743Z</time></trkpt><trkpt lat="39.5229481" lon="20.2588721"><ele>23.0</ele><time>2026-05-03T05:18:00.742Z</time></trkpt><trkpt lat="39.5229466" lon="20.2590148"><ele>23.0</ele><time>2026-05-03T05:18:01.742Z</time></trkpt><trkpt lat="39.522949" lon="20.2591472"><ele>23.0</ele><time>2026-05-03T05:18:02.743Z</time></trkpt><trkpt lat="39.5229578" lon="20.2592951"><ele>23.0</ele><time>2026-05-03T05:18:03.743Z</time></trkpt><trkpt lat="39.5229572" lon="20.2594464"><ele>23.0</ele><time>2026-05-03T05:18:04.743Z</time></trkpt><trkpt lat="39.5229548" lon="20.2596023"><ele>23.0</ele><time>2026-05-03T05:18:05.743Z</time></trkpt><trkpt lat="39.522959" lon="20.2597609"><ele>23.75</ele><time>2026-05-03T05:18:06.742Z</time></trkpt><trkpt lat="39.5229566" lon="20.2599206"><ele>24.5</ele><time>2026-05-03T05:18:07.743Z</time></trkpt><trkpt lat="39.5229629" lon="20.2600853"><ele>25.25</ele><time>2026-05-03T05:18:08.742Z</time></trkpt><trkpt lat="39.5229617" lon="20.2602434"><ele>26.0</ele><time>2026-05-03T05:18:09.743Z</time></trkpt><trkpt lat="39.5229604" lon="20.2603979"><ele>26.0</ele><time>2026-05-03T05:18:10.743Z</time></trkpt><trkpt lat="39.5229655" lon="20.2605534"><ele>26.0</ele><time>2026-05-03T05:18:11.743Z</time></trkpt><trkpt lat="39.5229685" lon="20.2607046"><ele>26.0</ele><time>2026-05-03T05:18:12.743Z</time></trkpt><trkpt lat="39.5229667" lon="20.2608519"><ele>26.0</ele><time>2026-05-03T05:18:13.742Z</time></trkpt><trkpt lat="39.5229687" lon="20.2609834"><ele>26.666666666666664</ele><time>2026-05-03T05:18:14.742Z</time></trkpt><trkpt lat="39.5229663" lon="20.2610983"><ele>27.333333333333332</ele><time>2026-05-03T05:18:15.743Z</time></trkpt><trkpt lat="39.5229715" lon="20.2612099"><ele>28.0</ele><time>2026-05-03T05:18:16.742Z</time></trkpt><trkpt lat="39.5229705" lon="20.2613082"><ele>28.666666666666664</ele><time>2026-05-03T05:18:17.742Z</time></trkpt><trkpt lat="39.5229752" lon="20.2614008"><ele>29.333333333333332</ele><time>2026-05-03T05:18:18.743Z</time></trkpt><trkpt lat="39.5229853" lon="20.261482"><ele>30.0</ele><time>2026-05-03T05:18:19.743Z</time></trkpt><trkpt lat="39.5229836" lon="20.2615792"><ele>30.333333333333332</ele><time>2026-05-03T05:18:21.743Z</time></trkpt><trkpt lat="39.5229767" lon="20.2616894"><ele>30.666666666666664</ele><time>2026-05-03T05:18:24.743Z</time></trkpt><trkpt lat="39.5229755" lon="20.2617832"><ele>31.0</ele><time>2026-05-03T05:18:26.742Z</time></trkpt><trkpt lat="39.5230005" lon="20.2618794"><ele>31.333333333333332</ele><time>2026-05-03T05:18:28.743Z</time></trkpt><trkpt lat="39.5230816" lon="20.2619297"><ele>31.666666666666664</ele><time>2026-05-03T05:18:30.743Z</time></trkpt><trkpt lat="39.523185" lon="20.2619227"><ele>32.0</ele><time>2026-05-03T05:18:32.743Z</time></trkpt><trkpt lat="39.5232545" lon="20.2618847"><ele>32.0</ele><time>2026-05-03T05:18:33.743Z</time></trkpt><trkpt lat="39.5233264" lon="20.2618431"><ele>32.0</ele><time>2026-05-03T05:18:34.743Z</time></trkpt><trkpt lat="39.5234062" lon="20.2618113"><ele>32.0</ele><time>2026-05-03T05:18:35.743Z</time></trkpt><trkpt lat="39.5234979" lon="20.2617604"><ele>32.0</ele><time>2026-05-03T05:18:36.742Z</time></trkpt><trkpt lat="39.5235996" lon="20.2617366"><ele>32.0</ele><time>2026-05-03T05:18:37.742Z</time></trkpt><trkpt lat="39.5236992" lon="20.2617137"><ele>32.0</ele><time>2026-05-03T05:18:38.743Z</time></trkpt><trkpt lat="39.5238146" lon="20.2616885"><ele>32.0</ele><time>2026-05-03T05:18:39.743Z</time></trkpt><trkpt lat="39.5239331" lon="20.2616685"><ele>32.0</ele><time>2026-05-03T05:18:40.743Z</time></trkpt><trkpt lat="39.5240537" lon="20.2616601"><ele>32.0</ele><time>2026-05-03T05:18:41.742Z</time></trkpt><trkpt lat="39.5241759" lon="20.2616425"><ele>32.0</ele><time>2026-05-03T05:18:42.742Z</time></trkpt><trkpt lat="39.5243096" lon="20.2616312"><ele>32.0</ele><time>2026-05-03T05:18:43.742Z</time></trkpt><trkpt lat="39.5244394" lon="20.2616204"><ele>32.0</ele><time>2026-05-03T05:18:44.742Z</time></trkpt><trkpt lat="39.5245736" lon="20.2616127"><ele>32.0</ele><time>2026-05-03T05:18:45.742Z</time></trkpt><trkpt lat="39.524714" lon="20.26162"><ele>31.25</ele><time>2026-05-03T05:18:46.743Z</time></trkpt><trkpt lat="39.5248537" lon="20.2616441"><ele>30.5</ele><time>2026-05-03T05:18:47.743Z</time></trkpt><trkpt lat="39.5249838" lon="20.2616707"><ele>29.75</ele><time>2026-05-03T05:18:48.742Z</time></trkpt><trkpt lat="39.5251129" lon="20.2617161"><ele>29.0</ele><time>2026-05-03T05:18:49.743Z</time></trkpt><trkpt lat="39.5252439" lon="20.2617669"><ele>29.0</ele><time>2026-05-03T05:18:50.742Z</time></trkpt><trkpt lat="39.5253752" lon="20.2618249"><ele>29.0</ele><time>2026-05-03T05:18:51.743Z</time></trkpt><trkpt lat="39.5255005" lon="20.2618956"><ele>29.0</ele><time>2026-05-03T05:18:52.743Z</time></trkpt><trkpt lat="39.525628" lon="20.261976"><ele>29.0</ele><time>2026-05-03T05:18:53.742Z</time></trkpt><trkpt lat="39.525753" lon="20.2620716"><ele>29.0</ele><time>2026-05-03T05:18:54.742Z</time></trkpt><trkpt lat="39.525874" lon="20.2621758"><ele>29.0</ele><time>2026-05-03T05:18:55.742Z</time></trkpt><trkpt lat="39.5259904" lon="20.262288"><ele>29.0</ele><time>2026-05-03T05:18:56.742Z</time></trkpt><trkpt lat="39.5261054" lon="20.2624056"><ele>29.0</ele><time>2026-05-03T05:18:57.742Z</time></trkpt><trkpt lat="39.5262222" lon="20.2625244"><ele>29.5</ele><time>2026-05-03T05:18:58.743Z</time></trkpt><trkpt lat="39.5263356" lon="20.2626505"><ele>30.0</ele><time>2026-05-03T05:18:59.742Z</time></trkpt><trkpt lat="39.5264486" lon="20.2627779"><ele>30.5</ele><time>2026-05-03T05:19:00.743Z</time></trkpt><trkpt lat="39.5265611" lon="20.2629071"><ele>31.0</ele><time>2026-05-03T05:19:01.742Z</time></trkpt><trkpt lat="39.5266735" lon="20.2630304"><ele>31.75</ele><time>2026-05-03T05:19:02.742Z</time></trkpt><trkpt lat="39.5267856" lon="20.2631577"><ele>32.5</ele><time>2026-05-03T05:19:03.743Z</time></trkpt><trkpt lat="39.5268972" lon="20.2632851"><ele>33.25</ele><time>2026-05-03T05:19:04.742Z</time></trkpt><trkpt lat="39.5270098" lon="20.2634121"><ele>34.0</ele><time>2026-05-03T05:19:05.742Z</time></trkpt><trkpt lat="39.5271183" lon="20.263536"><ele>34.0</ele><time>2026-05-03T05:19:06.743Z</time></trkpt><trkpt lat="39.5272284" lon="20.2636615"><ele>34.0</ele><time>2026-05-03T05:19:07.742Z</time></trkpt><trkpt lat="39.5273385" lon="20.2637853"><ele>34.0</ele><time>2026-05-03T05:19:08.743Z</time></trkpt><trkpt lat="39.5274526" lon="20.263905"><ele>34.0</ele><time>2026-05-03T05:19:09.742Z</time></trkpt><trkpt lat="39.5275618" lon="20.2640267"><ele>34.5</ele><time>2026-05-03T05:19:10.742Z</time></trkpt><trkpt lat="39.527668" lon="20.2641473"><ele>35.0</ele><time>2026-05-03T05:19:11.743Z</time></trkpt><trkpt lat="39.5277712" lon="20.2642614"><ele>35.5</ele><time>2026-05-03T05:19:12.742Z</time></trkpt><trkpt lat="39.5278682" lon="20.264371"><ele>36.0</ele><time>2026-05-03T05:19:13.743Z</time></trkpt><trkpt lat="39.5279556" lon="20.2644772"><ele>36.0</ele><time>2026-05-03T05:19:14.742Z</time></trkpt><trkpt lat="39.5280299" lon="20.2645783"><ele>36.0</ele><time>2026-05-03T05:19:15.743Z</time></trkpt><trkpt lat="39.5280914" lon="20.2646658"><ele>36.0</ele><time>2026-05-03T05:19:16.743Z</time></trkpt><trkpt lat="39.5281436" lon="20.2647467"><ele>36.0</ele><time>2026-05-03T05:19:17.742Z</time></trkpt><trkpt lat="39.5281859" lon="20.2648306"><ele>36.0</ele><time>2026-05-03T05:19:18.743Z</time></trkpt><trkpt lat="39.528219" lon="20.2649113"><ele>36.0</ele><time>2026-05-03T05:19:19.743Z</time></trkpt><trkpt lat="39.5282381" lon="20.2650081"><ele>36.28571428571429</ele><time>2026-05-03T05:19:20.742Z</time></trkpt><trkpt lat="39.5282687" lon="20.265096"><ele>36.57142857142857</ele><time>2026-05-03T05:19:21.743Z</time></trkpt><trkpt lat="39.5283161" lon="20.2651584"><ele>36.85714285714286</ele><time>2026-05-03T05:19:22.743Z</time></trkpt><trkpt lat="39.5283768" lon="20.2651895"><ele>37.142857142857146</ele><time>2026-05-03T05:19:23.743Z</time></trkpt><trkpt lat="39.5284475" lon="20.2652108"><ele>37.42857142857143</ele><time>2026-05-03T05:19:24.743Z</time></trkpt><trkpt lat="39.5285202" lon="20.2652201"><ele>37.714285714285715</ele><time>2026-05-03T05:19:25.743Z</time></trkpt><trkpt lat="39.5285985" lon="20.2652218"><ele>38.0</ele><time>2026-05-03T05:19:26.742Z</time></trkpt><trkpt lat="39.5286655" lon="20.2652564"><ele>37.199999999999996</ele><time>2026-05-03T05:19:27.742Z</time></trkpt><trkpt lat="39.5287391" lon="20.2653007"><ele>36.4</ele><time>2026-05-03T05:19:28.742Z</time></trkpt><trkpt lat="39.5288066" lon="20.2653654"><ele>35.599999999999994</ele><time>2026-05-03T05:19:29.742Z</time></trkpt><trkpt lat="39.5288857" lon="20.2654369"><ele>34.8</ele><time>2026-05-03T05:19:30.743Z</time></trkpt><trkpt lat="39.5289635" lon="20.265514"><ele>34.0</ele><time>2026-05-03T05:19:31.742Z</time></trkpt><trkpt lat="39.5290406" lon="20.2655976"><ele>34.6</ele><time>2026-05-03T05:19:32.743Z</time></trkpt><trkpt lat="39.5291136" lon="20.2656884"><ele>35.2</ele><time>2026-05-03T05:19:33.743Z</time></trkpt><trkpt lat="39.5291836" lon="20.2657763"><ele>35.800000000000004</ele><time>2026-05-03T05:19:34.742Z</time></trkpt><trkpt lat="39.5292608" lon="20.2658605"><ele>36.4</ele><time>2026-05-03T05:19:35.742Z</time></trkpt><trkpt lat="39.5293386" lon="20.2659435"><ele>37.0</ele><time>2026-05-03T05:19:36.742Z</time></trkpt><trkpt lat="39.5294133" lon="20.2660265"><ele>37.0</ele><time>2026-05-03T05:19:37.742Z</time></trkpt><trkpt lat="39.5294846" lon="20.2661035"><ele>37.0</ele><time>2026-05-03T05:19:38.742Z</time></trkpt><trkpt lat="39.5295499" lon="20.2661693"><ele>37.0</ele><time>2026-05-03T05:19:39.743Z</time></trkpt><trkpt lat="39.5296056" lon="20.2662312"><ele>37.0</ele><time>2026-05-03T05:19:40.743Z</time></trkpt><trkpt lat="39.5296894" lon="20.2663114"><ele>37.0</ele><time>2026-05-03T05:19:42.742Z</time></trkpt><trkpt lat="39.5297519" lon="20.2663494"><ele>37.0</ele><time>2026-05-03T05:19:44.742Z</time></trkpt><trkpt lat="39.5298362" lon="20.2663382"><ele>37.16666666666667</ele><time>2026-05-03T05:19:46.743Z</time></trkpt><trkpt lat="39.5299195" lon="20.2663225"><ele>37.333333333333336</ele><time>2026-05-03T05:19:48.743Z</time></trkpt><trkpt lat="39.5299913" lon="20.2663058"><ele>37.5</ele><time>2026-05-03T05:19:50.742Z</time></trkpt><trkpt lat="39.5300544" lon="20.266257"><ele>37.666666666666664</ele><time>2026-05-03T05:19:52.742Z</time></trkpt><trkpt lat="39.5301142" lon="20.2662064"><ele>37.83333333333333</ele><time>2026-05-03T05:19:55.742Z</time></trkpt><trkpt lat="39.5301819" lon="20.2661999"><ele>38.0</ele><time>2026-05-03T05:19:59.743Z</time></trkpt><trkpt lat="39.530173" lon="20.266304"><ele>38.0</ele><time>2026-05-03T05:22:50.75Z</time></trkpt><trkpt lat="39.5301333" lon="20.2663796"><ele>38.0</ele><time>2026-05-03T05:22:51.75Z</time></trkpt><trkpt lat="39.530075" lon="20.2664844"><ele>38.0</ele><time>2026-05-03T05:22:53.75Z</time></trkpt><trkpt lat="39.5300472" lon="20.2665666"><ele>38.0</ele><time>2026-05-03T05:22:55.75Z</time></trkpt><trkpt lat="39.5300428" lon="20.2666572"><ele>38.0</ele><time>2026-05-03T05:22:57.75Z</time></trkpt><trkpt lat="39.5300953" lon="20.2668016"><ele>38.0</ele><time>2026-05-03T05:22:59.75Z</time></trkpt><trkpt lat="39.5301471" lon="20.2668726"><ele>38.0</ele><time>2026-05-03T05:23:00.749Z</time></trkpt><trkpt lat="39.530217" lon="20.2669505"><ele>38.0</ele><time>2026-05-03T05:23:01.75Z</time></trkpt><trkpt lat="39.5302993" lon="20.267035"><ele>38.0</ele><time>2026-05-03T05:23:02.749Z</time></trkpt><trkpt lat="39.5303845" lon="20.2671259"><ele>38.0</ele><time>2026-05-03T05:23:03.749Z</time></trkpt><trkpt lat="39.5304743" lon="20.2672272"><ele>38.0</ele><time>2026-05-03T05:23:04.749Z</time></trkpt><trkpt lat="39.5305651" lon="20.2673309"><ele>38.5</ele><time>2026-05-03T05:23:05.749Z</time></trkpt><trkpt lat="39.5306608" lon="20.2674392"><ele>39.0</ele><time>2026-05-03T05:23:06.75Z</time></trkpt><trkpt lat="39.5307603" lon="20.2675522"><ele>39.5</ele><time>2026-05-03T05:23:07.75Z</time></trkpt><trkpt lat="39.5308648" lon="20.2676673"><ele>40.0</ele><time>2026-05-03T05:23:08.75Z</time></trkpt><trkpt lat="39.5309689" lon="20.2677794"><ele>40.0</ele><time>2026-05-03T05:23:09.749Z</time></trkpt><trkpt lat="39.5310747" lon="20.2678958"><ele>40.0</ele><time>2026-05-03T05:23:10.749Z</time></trkpt><trkpt lat="39.5311804" lon="20.2680107"><ele>40.0</ele><time>2026-05-03T05:23:11.75Z</time></trkpt><trkpt lat="39.5312915" lon="20.2681212"><ele>40.0</ele><time>2026-05-03T05:23:12.75Z</time></trkpt><trkpt lat="39.5314073" lon="20.2682283"><ele>40.25</ele><time>2026-05-03T05:23:13.75Z</time></trkpt><trkpt lat="39.5315275" lon="20.268327"><ele>40.5</ele><time>2026-05-03T05:23:14.75Z</time></trkpt><trkpt lat="39.5316529" lon="20.2684237"><ele>40.75</ele><time>2026-05-03T05:23:15.75Z</time></trkpt><trkpt lat="39.5317828" lon="20.2685189"><ele>41.0</ele><time>2026-05-03T05:23:16.75Z</time></trkpt><trkpt lat="39.5319102" lon="20.2686116"><ele>41.0</ele><time>2026-05-03T05:23:17.749Z</time></trkpt><trkpt lat="39.5320399" lon="20.2687025"><ele>41.0</ele><time>2026-05-03T05:23:18.749Z</time></trkpt><trkpt lat="39.5321725" lon="20.2687906"><ele>41.0</ele><time>2026-05-03T05:23:19.75Z</time></trkpt><trkpt lat="39.5323071" lon="20.2688865"><ele>42.33333333333333</ele><time>2026-05-03T05:23:20.749Z</time></trkpt><trkpt lat="39.532437" lon="20.268976"><ele>43.666666666666664</ele><time>2026-05-03T05:23:21.75Z</time></trkpt><trkpt lat="39.5325734" lon="20.2690667"><ele>45.0</ele><time>2026-05-03T05:23:22.75Z</time></trkpt><trkpt lat="39.5327076" lon="20.2691558"><ele>45.0</ele><time>2026-05-03T05:23:23.75Z</time></trkpt><trkpt lat="39.5328411" lon="20.2692449"><ele>45.0</ele><time>2026-05-03T05:23:24.75Z</time></trkpt><trkpt lat="39.5329746" lon="20.2693367"><ele>45.0</ele><time>2026-05-03T05:23:25.749Z</time></trkpt><trkpt lat="39.5331089" lon="20.2694311"><ele>45.0</ele><time>2026-05-03T05:23:26.749Z</time></trkpt><trkpt lat="39.5332449" lon="20.2695213"><ele>45.0</ele><time>2026-05-03T05:23:27.749Z</time></trkpt><trkpt lat="39.5333779" lon="20.2696158"><ele>45.0</ele><time>2026-05-03T05:23:28.749Z</time></trkpt><trkpt lat="39.5335126" lon="20.2697066"><ele>46.33333333333333</ele><time>2026-05-03T05:23:29.75Z</time></trkpt><trkpt lat="39.5336523" lon="20.2697971"><ele>47.666666666666664</ele><time>2026-05-03T05:23:30.749Z</time></trkpt><trkpt lat="39.5337904" lon="20.2698905"><ele>49.0</ele><time>2026-05-03T05:23:31.749Z</time></trkpt><trkpt lat="39.5339319" lon="20.2699871"><ele>49.0</ele><time>2026-05-03T05:23:32.749Z</time></trkpt><trkpt lat="39.5340781" lon="20.2700768"><ele>49.0</ele><time>2026-05-03T05:23:33.75Z</time></trkpt><trkpt lat="39.53422" lon="20.2701755"><ele>49.0</ele><time>2026-05-03T05:23:34.748Z</time></trkpt><trkpt lat="39.5343627" lon="20.2702738"><ele>49.0</ele><time>2026-05-03T05:23:35.75Z</time></trkpt><trkpt lat="39.5345065" lon="20.2703732"><ele>49.0</ele><time>2026-05-03T05:23:36.75Z</time></trkpt><trkpt lat="39.5346506" lon="20.2704728"><ele>49.0</ele><time>2026-05-03T05:23:37.749Z</time></trkpt><trkpt lat="39.5347953" lon="20.2705754"><ele>50.33333333333333</ele><time>2026-05-03T05:23:38.75Z</time></trkpt><trkpt lat="39.5349415" lon="20.2706798"><ele>51.66666666666667</ele><time>2026-05-03T05:23:39.75Z</time></trkpt><trkpt lat="39.5350859" lon="20.270778"><ele>53.0</ele><time>2026-05-03T05:23:40.75Z</time></trkpt><trkpt lat="39.5352296" lon="20.2708773"><ele>53.0</ele><time>2026-05-03T05:23:41.749Z</time></trkpt><trkpt lat="39.5353737" lon="20.2709727"><ele>53.0</ele><time>2026-05-03T05:23:42.75Z</time></trkpt><trkpt lat="39.5355171" lon="20.2710668"><ele>53.0</ele><time>2026-05-03T05:23:43.749Z</time></trkpt><trkpt lat="39.5356568" lon="20.2711617"><ele>52.66666666666667</ele><time>2026-05-03T05:23:44.75Z</time></trkpt><trkpt lat="39.5357962" lon="20.2712581"><ele>52.33333333333333</ele><time>2026-05-03T05:23:45.749Z</time></trkpt><trkpt lat="39.5359343" lon="20.2713498"><ele>52.0</ele><time>2026-05-03T05:23:46.749Z</time></trkpt><trkpt lat="39.5360723" lon="20.2714453"><ele>52.0</ele><time>2026-05-03T05:23:47.749Z</time></trkpt><trkpt lat="39.5362078" lon="20.2715348"><ele>52.0</ele><time>2026-05-03T05:23:48.749Z</time></trkpt><trkpt lat="39.5363501" lon="20.2716269"><ele>52.0</ele><time>2026-05-03T05:23:49.749Z</time></trkpt><trkpt lat="39.5364917" lon="20.2717225"><ele>52.0</ele><time>2026-05-03T05:23:50.749Z</time></trkpt><trkpt lat="39.5366286" lon="20.2718172"><ele>52.0</ele><time>2026-05-03T05:23:51.75Z</time></trkpt><trkpt lat="39.5367646" lon="20.2719133"><ele>52.0</ele><time>2026-05-03T05:23:52.75Z</time></trkpt><trkpt lat="39.5369016" lon="20.272009"><ele>52.0</ele><time>2026-05-03T05:23:53.75Z</time></trkpt><trkpt lat="39.5370367" lon="20.272109"><ele>52.0</ele><time>2026-05-03T05:23:54.749Z</time></trkpt><trkpt lat="39.5371684" lon="20.2722129"><ele>52.0</ele><time>2026-05-03T05:23:55.749Z</time></trkpt><trkpt lat="39.537299" lon="20.2723207"><ele>53.0</ele><time>2026-05-03T05:23:56.75Z</time></trkpt><trkpt lat="39.5374242" lon="20.27244"><ele>54.0</ele><time>2026-05-03T05:23:57.749Z</time></trkpt><trkpt lat="39.5375422" lon="20.2725689"><ele>55.0</ele><time>2026-05-03T05:23:58.75Z</time></trkpt><trkpt lat="39.5376511" lon="20.2727072"><ele>55.0</ele><time>2026-05-03T05:23:59.75Z</time></trkpt><trkpt lat="39.5377538" lon="20.2728575"><ele>55.0</ele><time>2026-05-03T05:24:00.75Z</time></trkpt><trkpt lat="39.5378556" lon="20.2730134"><ele>55.0</ele><time>2026-05-03T05:24:01.75Z</time></trkpt><trkpt lat="39.537945" lon="20.2731747"><ele>56.0</ele><time>2026-05-03T05:24:02.75Z</time></trkpt><trkpt lat="39.5380351" lon="20.2733354"><ele>57.0</ele><time>2026-05-03T05:24:03.749Z</time></trkpt><trkpt lat="39.5381172" lon="20.2735025"><ele>58.0</ele><time>2026-05-03T05:24:04.748Z</time></trkpt><trkpt lat="39.5382002" lon="20.273669"><ele>58.0</ele><time>2026-05-03T05:24:05.75Z</time></trkpt><trkpt lat="39.5382761" lon="20.2738226"><ele>58.0</ele><time>2026-05-03T05:24:06.749Z</time></trkpt><trkpt lat="39.5383407" lon="20.2739568"><ele>58.0</ele><time>2026-05-03T05:24:07.749Z</time></trkpt><trkpt lat="39.5384018" lon="20.2740801"><ele>58.0</ele><time>2026-05-03T05:24:08.75Z</time></trkpt><trkpt lat="39.5384568" lon="20.2741952"><ele>58.0</ele><time>2026-05-03T05:24:09.749Z</time></trkpt><trkpt lat="39.5385109" lon="20.274311"><ele>58.0</ele><time>2026-05-03T05:24:10.749Z</time></trkpt><trkpt lat="39.5385769" lon="20.2744251"><ele>58.0</ele><time>2026-05-03T05:24:11.75Z</time></trkpt><trkpt lat="39.5386348" lon="20.2745471"><ele>58.0</ele><time>2026-05-03T05:24:12.75Z</time></trkpt><trkpt lat="39.538699" lon="20.2746739"><ele>58.0</ele><time>2026-05-03T05:24:13.749Z</time></trkpt><trkpt lat="39.5387687" lon="20.2748069"><ele>58.25</ele><time>2026-05-03T05:24:14.748Z</time></trkpt><trkpt lat="39.5388361" lon="20.2749432"><ele>58.5</ele><time>2026-05-03T05:24:15.749Z</time></trkpt><trkpt lat="39.5389042" lon="20.2750912"><ele>58.75</ele><time>2026-05-03T05:24:16.75Z</time></trkpt><trkpt lat="39.5389778" lon="20.2752383"><ele>59.0</ele><time>2026-05-03T05:24:17.75Z</time></trkpt><trkpt lat="39.5390513" lon="20.2753917"><ele>59.0</ele><time>2026-05-03T05:24:18.749Z</time></trkpt><trkpt lat="39.539129" lon="20.2755518"><ele>59.0</ele><time>2026-05-03T05:24:19.75Z</time></trkpt><trkpt lat="39.5392084" lon="20.2757078"><ele>59.0</ele><time>2026-05-03T05:24:20.749Z</time></trkpt><trkpt lat="39.5392876" lon="20.2758608"><ele>59.0</ele><time>2026-05-03T05:24:21.748Z</time></trkpt><trkpt lat="39.539366" lon="20.2760168"><ele>59.0</ele><time>2026-05-03T05:24:22.75Z</time></trkpt><trkpt lat="39.5394506" lon="20.2761734"><ele>59.0</ele><time>2026-05-03T05:24:23.749Z</time></trkpt><trkpt lat="39.5395321" lon="20.2763325"><ele>59.0</ele><time>2026-05-03T05:24:24.75Z</time></trkpt><trkpt lat="39.5396181" lon="20.2765012"><ele>60.66666666666667</ele><time>2026-05-03T05:24:25.75Z</time></trkpt><trkpt lat="39.5397" lon="20.276672"><ele>62.33333333333333</ele><time>2026-05-03T05:24:26.749Z</time></trkpt><trkpt lat="39.5397852" lon="20.2768393"><ele>64.0</ele><time>2026-05-03T05:24:27.75Z</time></trkpt><trkpt lat="39.5398736" lon="20.2770036"><ele>64.0</ele><time>2026-05-03T05:24:28.75Z</time></trkpt><trkpt lat="39.5399609" lon="20.2771693"><ele>64.0</ele><time>2026-05-03T05:24:29.75Z</time></trkpt><trkpt lat="39.5400518" lon="20.2773356"><ele>64.0</ele><time>2026-05-03T05:24:30.749Z</time></trkpt><trkpt lat="39.5401466" lon="20.2775041"><ele>64.33333333333333</ele><time>2026-05-03T05:24:31.75Z</time></trkpt><trkpt lat="39.5402381" lon="20.277673"><ele>64.66666666666667</ele><time>2026-05-03T05:24:32.749Z</time></trkpt><trkpt lat="39.5403322" lon="20.2778379"><ele>65.0</ele><time>2026-05-03T05:24:33.749Z</time></trkpt><trkpt lat="39.5404251" lon="20.2780063"><ele>66.33333333333334</ele><time>2026-05-03T05:24:34.749Z</time></trkpt><trkpt lat="39.5405126" lon="20.2781743"><ele>67.66666666666667</ele><time>2026-05-03T05:24:35.75Z</time></trkpt><trkpt lat="39.5406002" lon="20.2783364"><ele>69.0</ele><time>2026-05-03T05:24:36.749Z</time></trkpt><trkpt lat="39.5406928" lon="20.2784979"><ele>69.0</ele><time>2026-05-03T05:24:37.75Z</time></trkpt><trkpt lat="39.5407824" lon="20.2786579"><ele>69.0</ele><time>2026-05-03T05:24:38.748Z</time></trkpt><trkpt lat="39.5408635" lon="20.2788207"><ele>69.0</ele><time>2026-05-03T05:24:39.749Z</time></trkpt><trkpt lat="39.5409517" lon="20.278981"><ele>70.0</ele><time>2026-05-03T05:24:40.749Z</time></trkpt><trkpt lat="39.541036" lon="20.2791443"><ele>71.0</ele><time>2026-05-03T05:24:41.749Z</time></trkpt><trkpt lat="39.5411201" lon="20.2793086"><ele>72.0</ele><time>2026-05-03T05:24:42.749Z</time></trkpt><trkpt lat="39.5411998" lon="20.2794704"><ele>72.33333333333333</ele><time>2026-05-03T05:24:43.75Z</time></trkpt><trkpt lat="39.5412707" lon="20.2796368"><ele>72.66666666666666</ele><time>2026-05-03T05:24:44.749Z</time></trkpt><trkpt lat="39.5413443" lon="20.2798112"><ele>73.0</ele><time>2026-05-03T05:24:45.75Z</time></trkpt><trkpt lat="39.5414106" lon="20.2799889"><ele>73.33333333333333</ele><time>2026-05-03T05:24:46.749Z</time></trkpt><trkpt lat="39.5414694" lon="20.2801691"><ele>73.66666666666667</ele><time>2026-05-03T05:24:47.75Z</time></trkpt><trkpt lat="39.5415225" lon="20.280352"><ele>74.0</ele><time>2026-05-03T05:24:48.749Z</time></trkpt><trkpt lat="39.5415778" lon="20.2805353"><ele>74.66666666666667</ele><time>2026-05-03T05:24:49.75Z</time></trkpt><trkpt lat="39.5416363" lon="20.2807219"><ele>75.33333333333333</ele><time>2026-05-03T05:24:50.748Z</time></trkpt><trkpt lat="39.5416851" lon="20.2809072"><ele>76.0</ele><time>2026-05-03T05:24:51.749Z</time></trkpt><trkpt lat="39.5417426" lon="20.2810904"><ele>76.0</ele><time>2026-05-03T05:24:52.749Z</time></trkpt><trkpt lat="39.5417951" lon="20.2812737"><ele>76.0</ele><time>2026-05-03T05:24:53.749Z</time></trkpt><trkpt lat="39.5418511" lon="20.2814576"><ele>76.0</ele><time>2026-05-03T05:24:54.748Z</time></trkpt><trkpt lat="39.5419102" lon="20.2816434"><ele>77.0</ele><time>2026-05-03T05:24:55.749Z</time></trkpt><trkpt lat="39.5419621" lon="20.2818236"><ele>78.0</ele><time>2026-05-03T05:24:56.75Z</time></trkpt><trkpt lat="39.5420253" lon="20.2820031"><ele>79.0</ele><time>2026-05-03T05:24:57.749Z</time></trkpt><trkpt lat="39.5420912" lon="20.2821851"><ele>80.0</ele><time>2026-05-03T05:24:58.749Z</time></trkpt><trkpt lat="39.5421687" lon="20.2823692"><ele>81.0</ele><time>2026-05-03T05:24:59.75Z</time></trkpt><trkpt lat="39.5422483" lon="20.2825344"><ele>82.0</ele><time>2026-05-03T05:25:00.749Z</time></trkpt><trkpt lat="39.5423426" lon="20.2826883"><ele>82.0</ele><time>2026-05-03T05:25:01.749Z</time></trkpt><trkpt lat="39.5424313" lon="20.2828413"><ele>82.0</ele><time>2026-05-03T05:25:02.748Z</time></trkpt><trkpt lat="39.5425246" lon="20.2829793"><ele>82.0</ele><time>2026-05-03T05:25:03.749Z</time></trkpt><trkpt lat="39.5426169" lon="20.2831175"><ele>82.0</ele><time>2026-05-03T05:25:04.749Z</time></trkpt><trkpt lat="39.5427023" lon="20.2832488"><ele>82.39999999999999</ele><time>2026-05-03T05:25:05.749Z</time></trkpt><trkpt lat="39.5427834" lon="20.2833676"><ele>82.8</ele><time>2026-05-03T05:25:06.75Z</time></trkpt><trkpt lat="39.5428549" lon="20.2834737"><ele>83.2</ele><time>2026-05-03T05:25:07.749Z</time></trkpt><trkpt lat="39.5429258" lon="20.2835718"><ele>83.6</ele><time>2026-05-03T05:25:08.748Z</time></trkpt><trkpt lat="39.5429999" lon="20.2836748"><ele>84.0</ele><time>2026-05-03T05:25:09.749Z</time></trkpt><trkpt lat="39.5430715" lon="20.2837831"><ele>84.0</ele><time>2026-05-03T05:25:10.75Z</time></trkpt><trkpt lat="39.5431439" lon="20.283897"><ele>84.0</ele><time>2026-05-03T05:25:11.746Z</time></trkpt><trkpt lat="39.5432137" lon="20.2840164"><ele>84.0</ele><time>2026-05-03T05:25:12.75Z</time></trkpt><trkpt lat="39.5432775" lon="20.2841417"><ele>84.0</ele><time>2026-05-03T05:25:13.748Z</time></trkpt><trkpt lat="39.5433397" lon="20.284276"><ele>83.75</ele><time>2026-05-03T05:25:14.75Z</time></trkpt><trkpt lat="39.5433886" lon="20.2844169"><ele>83.5</ele><time>2026-05-03T05:25:15.749Z</time></trkpt><trkpt lat="39.5434275" lon="20.2845631"><ele>83.25</ele><time>2026-05-03T05:25:16.749Z</time></trkpt><trkpt lat="39.5434628" lon="20.2847199"><ele>83.0</ele><time>2026-05-03T05:25:17.75Z</time></trkpt><trkpt lat="39.5434892" lon="20.2848814"><ele>83.0</ele><time>2026-05-03T05:25:18.749Z</time></trkpt><trkpt lat="39.5435076" lon="20.2850494"><ele>83.0</ele><time>2026-05-03T05:25:19.749Z</time></trkpt><trkpt lat="39.5435214" lon="20.2852233"><ele>83.0</ele><time>2026-05-03T05:25:20.75Z</time></trkpt><trkpt lat="39.5435235" lon="20.2853987"><ele>83.0</ele><time>2026-05-03T05:25:21.75Z</time></trkpt><trkpt lat="39.5435115" lon="20.2855685"><ele>82.0</ele><time>2026-05-03T05:25:22.749Z</time></trkpt><trkpt lat="39.5434866" lon="20.2857425"><ele>81.0</ele><time>2026-05-03T05:25:23.75Z</time></trkpt><trkpt lat="39.5434487" lon="20.2859084"><ele>80.0</ele><time>2026-05-03T05:25:24.75Z</time></trkpt><trkpt lat="39.5434003" lon="20.2860705"><ele>79.0</ele><time>2026-05-03T05:25:25.749Z</time></trkpt><trkpt lat="39.5433412" lon="20.2862261"><ele>79.0</ele><time>2026-05-03T05:25:26.749Z</time></trkpt><trkpt lat="39.5432595" lon="20.2863707"><ele>79.0</ele><time>2026-05-03T05:25:27.75Z</time></trkpt><trkpt lat="39.5431714" lon="20.2865146"><ele>79.0</ele><time>2026-05-03T05:25:28.75Z</time></trkpt><trkpt lat="39.5430768" lon="20.2866524"><ele>79.0</ele><time>2026-05-03T05:25:29.748Z</time></trkpt><trkpt lat="39.5429857" lon="20.2867866"><ele>78.75</ele><time>2026-05-03T05:25:30.75Z</time></trkpt><trkpt lat="39.5428913" lon="20.2869155"><ele>78.5</ele><time>2026-05-03T05:25:31.75Z</time></trkpt><trkpt lat="39.542809" lon="20.2870504"><ele>78.25</ele><time>2026-05-03T05:25:32.75Z</time></trkpt><trkpt lat="39.5427316" lon="20.2871869"><ele>78.0</ele><time>2026-05-03T05:25:33.749Z</time></trkpt><trkpt lat="39.5426589" lon="20.2873263"><ele>75.5</ele><time>2026-05-03T05:25:34.75Z</time></trkpt><trkpt lat="39.542597" lon="20.2874708"><ele>73.0</ele><time>2026-05-03T05:25:35.75Z</time></trkpt><trkpt lat="39.5425355" lon="20.2876211"><ele>70.5</ele><time>2026-05-03T05:25:36.749Z</time></trkpt><trkpt lat="39.5424891" lon="20.2877863"><ele>68.0</ele><time>2026-05-03T05:25:37.75Z</time></trkpt><trkpt lat="39.5424481" lon="20.2879566"><ele>66.5</ele><time>2026-05-03T05:25:38.75Z</time></trkpt><trkpt lat="39.5424278" lon="20.28814"><ele>65.0</ele><time>2026-05-03T05:25:39.75Z</time></trkpt><trkpt lat="39.5424059" lon="20.2883281"><ele>63.5</ele><time>2026-05-03T05:25:40.749Z</time></trkpt><trkpt lat="39.5423955" lon="20.2885182"><ele>62.0</ele><time>2026-05-03T05:25:41.749Z</time></trkpt><trkpt lat="39.5423945" lon="20.2887067"><ele>62.0</ele><time>2026-05-03T05:25:42.749Z</time></trkpt><trkpt lat="39.5424137" lon="20.2888966"><ele>62.0</ele><time>2026-05-03T05:25:43.749Z</time></trkpt><trkpt lat="39.5424457" lon="20.2890855"><ele>62.0</ele><time>2026-05-03T05:25:44.749Z</time></trkpt><trkpt lat="39.5424854" lon="20.289276"><ele>62.0</ele><time>2026-05-03T05:25:45.749Z</time></trkpt><trkpt lat="39.5425364" lon="20.2894536"><ele>61.25</ele><time>2026-05-03T05:25:46.75Z</time></trkpt><trkpt lat="39.5425987" lon="20.2896266"><ele>60.5</ele><time>2026-05-03T05:25:47.75Z</time></trkpt><trkpt lat="39.5426706" lon="20.2897885"><ele>59.75</ele><time>2026-05-03T05:25:48.749Z</time></trkpt><trkpt lat="39.5427557" lon="20.2899439"><ele>59.0</ele><time>2026-05-03T05:25:49.749Z</time></trkpt><trkpt lat="39.5428449" lon="20.2900883"><ele>58.0</ele><time>2026-05-03T05:25:50.75Z</time></trkpt><trkpt lat="39.5429331" lon="20.2902309"><ele>57.0</ele><time>2026-05-03T05:25:51.749Z</time></trkpt><trkpt lat="39.5430238" lon="20.2903717"><ele>56.0</ele><time>2026-05-03T05:25:52.75Z</time></trkpt><trkpt lat="39.543112" lon="20.290509"><ele>55.0</ele><time>2026-05-03T05:25:53.749Z</time></trkpt><trkpt lat="39.543208" lon="20.2906524"><ele>57.25</ele><time>2026-05-03T05:25:54.75Z</time></trkpt><trkpt lat="39.5432993" lon="20.2907998"><ele>59.5</ele><time>2026-05-03T05:25:55.749Z</time></trkpt><trkpt lat="39.5433907" lon="20.2909404"><ele>61.75</ele><time>2026-05-03T05:25:56.749Z</time></trkpt><trkpt lat="39.5434824" lon="20.2910804"><ele>64.0</ele><time>2026-05-03T05:25:57.75Z</time></trkpt><trkpt lat="39.5435744" lon="20.2912334"><ele>64.0</ele><time>2026-05-03T05:25:58.749Z</time></trkpt><trkpt lat="39.5436638" lon="20.2913797"><ele>64.0</ele><time>2026-05-03T05:25:59.749Z</time></trkpt><trkpt lat="39.543747" lon="20.2915354"><ele>64.0</ele><time>2026-05-03T05:26:00.749Z</time></trkpt><trkpt lat="39.543836" lon="20.2916895"><ele>64.0</ele><time>2026-05-03T05:26:01.749Z</time></trkpt><trkpt lat="39.5439106" lon="20.2918462"><ele>63.0</ele><time>2026-05-03T05:26:02.749Z</time></trkpt><trkpt lat="39.5439861" lon="20.2920051"><ele>62.0</ele><time>2026-05-03T05:26:03.75Z</time></trkpt><trkpt lat="39.5440648" lon="20.2921626"><ele>61.0</ele><time>2026-05-03T05:26:04.75Z</time></trkpt><trkpt lat="39.5441445" lon="20.2923236"><ele>60.0</ele><time>2026-05-03T05:26:05.75Z</time></trkpt><trkpt lat="39.5442203" lon="20.2924873"><ele>60.0</ele><time>2026-05-03T05:26:06.749Z</time></trkpt><trkpt lat="39.5442981" lon="20.2926514"><ele>60.0</ele><time>2026-05-03T05:26:07.75Z</time></trkpt><trkpt lat="39.5443867" lon="20.2928198"><ele>60.0</ele><time>2026-05-03T05:26:08.75Z</time></trkpt><trkpt lat="39.5444717" lon="20.2929707"><ele>57.25</ele><time>2026-05-03T05:26:09.749Z</time></trkpt><trkpt lat="39.5445607" lon="20.2931221"><ele>54.5</ele><time>2026-05-03T05:26:10.749Z</time></trkpt><trkpt lat="39.5446545" lon="20.293262"><ele>51.75</ele><time>2026-05-03T05:26:11.749Z</time></trkpt><trkpt lat="39.544767" lon="20.2933903"><ele>49.0</ele><time>2026-05-03T05:26:12.75Z</time></trkpt><trkpt lat="39.5448837" lon="20.2935117"><ele>49.0</ele><time>2026-05-03T05:26:13.749Z</time></trkpt><trkpt lat="39.5450095" lon="20.2936245"><ele>49.0</ele><time>2026-05-03T05:26:14.749Z</time></trkpt><trkpt lat="39.5451423" lon="20.2937212"><ele>49.0</ele><time>2026-05-03T05:26:15.75Z</time></trkpt><trkpt lat="39.5452846" lon="20.2937968"><ele>49.666666666666664</ele><time>2026-05-03T05:26:16.749Z</time></trkpt><trkpt lat="39.5454395" lon="20.293861"><ele>50.33333333333333</ele><time>2026-05-03T05:26:17.75Z</time></trkpt><trkpt lat="39.5455878" lon="20.2939232"><ele>51.0</ele><time>2026-05-03T05:26:18.75Z</time></trkpt><trkpt lat="39.5457373" lon="20.2939851"><ele>51.0</ele><time>2026-05-03T05:26:19.75Z</time></trkpt><trkpt lat="39.5458856" lon="20.294049"><ele>51.0</ele><time>2026-05-03T05:26:20.75Z</time></trkpt><trkpt lat="39.546032" lon="20.2941153"><ele>51.0</ele><time>2026-05-03T05:26:21.75Z</time></trkpt><trkpt lat="39.5461795" lon="20.2941913"><ele>47.0</ele><time>2026-05-03T05:26:22.749Z</time></trkpt><trkpt lat="39.5463238" lon="20.2942772"><ele>43.0</ele><time>2026-05-03T05:26:23.75Z</time></trkpt><trkpt lat="39.5464593" lon="20.2943783"><ele>39.0</ele><time>2026-05-03T05:26:24.749Z</time></trkpt><trkpt lat="39.5465882" lon="20.2944945"><ele>39.0</ele><time>2026-05-03T05:26:25.749Z</time></trkpt><trkpt lat="39.5467088" lon="20.2946267"><ele>39.0</ele><time>2026-05-03T05:26:26.749Z</time></trkpt><trkpt lat="39.5468187" lon="20.2947757"><ele>39.0</ele><time>2026-05-03T05:26:27.75Z</time></trkpt><trkpt lat="39.5469237" lon="20.2949276"><ele>37.333333333333336</ele><time>2026-05-03T05:26:28.749Z</time></trkpt><trkpt lat="39.547043" lon="20.2950904"><ele>35.66666666666667</ele><time>2026-05-03T05:26:29.749Z</time></trkpt><trkpt lat="39.5471513" lon="20.2952514"><ele>34.0</ele><time>2026-05-03T05:26:30.749Z</time></trkpt><trkpt lat="39.5472612" lon="20.2954128"><ele>34.0</ele><time>2026-05-03T05:26:31.75Z</time></trkpt><trkpt lat="39.5473745" lon="20.2955724"><ele>34.0</ele><time>2026-05-03T05:26:32.749Z</time></trkpt><trkpt lat="39.5474848" lon="20.2957276"><ele>34.0</ele><time>2026-05-03T05:26:33.749Z</time></trkpt><trkpt lat="39.5475983" lon="20.295888"><ele>33.333333333333336</ele><time>2026-05-03T05:26:34.75Z</time></trkpt><trkpt lat="39.5477139" lon="20.2960411"><ele>32.666666666666664</ele><time>2026-05-03T05:26:35.75Z</time></trkpt><trkpt lat="39.5478286" lon="20.2961902"><ele>32.0</ele><time>2026-05-03T05:26:36.749Z</time></trkpt><trkpt lat="39.5479344" lon="20.2963427"><ele>32.666666666666664</ele><time>2026-05-03T05:26:37.75Z</time></trkpt><trkpt lat="39.548038" lon="20.2964896"><ele>33.333333333333336</ele><time>2026-05-03T05:26:38.748Z</time></trkpt><trkpt lat="39.5481417" lon="20.2966344"><ele>34.0</ele><time>2026-05-03T05:26:39.75Z</time></trkpt><trkpt lat="39.5482444" lon="20.2967795"><ele>34.0</ele><time>2026-05-03T05:26:40.749Z</time></trkpt><trkpt lat="39.548349" lon="20.2969237"><ele>34.0</ele><time>2026-05-03T05:26:41.75Z</time></trkpt><trkpt lat="39.5484526" lon="20.2970725"><ele>34.0</ele><time>2026-05-03T05:26:42.75Z</time></trkpt><trkpt lat="39.5485504" lon="20.2972192"><ele>36.333333333333336</ele><time>2026-05-03T05:26:43.75Z</time></trkpt><trkpt lat="39.5486447" lon="20.2973767"><ele>38.666666666666664</ele><time>2026-05-03T05:26:44.75Z</time></trkpt><trkpt lat="39.5487357" lon="20.2975338"><ele>41.0</ele><time>2026-05-03T05:26:45.75Z</time></trkpt><trkpt lat="39.54882" lon="20.2976897"><ele>37.25</ele><time>2026-05-03T05:26:46.75Z</time></trkpt><trkpt lat="39.5488954" lon="20.2978543"><ele>33.5</ele><time>2026-05-03T05:26:47.749Z</time></trkpt><trkpt lat="39.5489555" lon="20.2980254"><ele>29.75</ele><time>2026-05-03T05:26:48.749Z</time></trkpt><trkpt lat="39.5490108" lon="20.2982061"><ele>26.0</ele><time>2026-05-03T05:26:49.75Z</time></trkpt><trkpt lat="39.5490571" lon="20.2983895"><ele>26.0</ele><time>2026-05-03T05:26:50.75Z</time></trkpt><trkpt lat="39.5490862" lon="20.2985775"><ele>26.0</ele><time>2026-05-03T05:26:51.749Z</time></trkpt><trkpt lat="39.5490997" lon="20.2987756"><ele>26.0</ele><time>2026-05-03T05:26:52.749Z</time></trkpt><trkpt lat="39.5491143" lon="20.2989737"><ele>26.666666666666664</ele><time>2026-05-03T05:26:53.749Z</time></trkpt><trkpt lat="39.5491114" lon="20.2991692"><ele>27.333333333333336</ele><time>2026-05-03T05:26:54.75Z</time></trkpt><trkpt lat="39.549121" lon="20.2993706"><ele>28.0</ele><time>2026-05-03T05:26:55.75Z</time></trkpt><trkpt lat="39.5491237" lon="20.2995702"><ele>27.666666666666668</ele><time>2026-05-03T05:26:56.749Z</time></trkpt><trkpt lat="39.5491256" lon="20.2997742"><ele>27.333333333333336</ele><time>2026-05-03T05:26:57.75Z</time></trkpt><trkpt lat="39.5491275" lon="20.2999721"><ele>27.0</ele><time>2026-05-03T05:26:58.749Z</time></trkpt><trkpt lat="39.5491342" lon="20.3001713"><ele>27.0</ele><time>2026-05-03T05:26:59.749Z</time></trkpt><trkpt lat="39.5491372" lon="20.300374"><ele>27.0</ele><time>2026-05-03T05:27:00.749Z</time></trkpt><trkpt lat="39.5491392" lon="20.3005732"><ele>27.0</ele><time>2026-05-03T05:27:01.75Z</time></trkpt><trkpt lat="39.5491455" lon="20.3007785"><ele>27.0</ele><time>2026-05-03T05:27:02.748Z</time></trkpt><trkpt lat="39.5491504" lon="20.3009819"><ele>27.0</ele><time>2026-05-03T05:27:03.749Z</time></trkpt><trkpt lat="39.5491622" lon="20.3011845"><ele>27.0</ele><time>2026-05-03T05:27:04.749Z</time></trkpt><trkpt lat="39.5491752" lon="20.3013867"><ele>26.0</ele><time>2026-05-03T05:27:05.75Z</time></trkpt><trkpt lat="39.5492001" lon="20.3015932"><ele>25.0</ele><time>2026-05-03T05:27:06.75Z</time></trkpt><trkpt lat="39.549231" lon="20.301805"><ele>24.0</ele><time>2026-05-03T05:27:07.75Z</time></trkpt><trkpt lat="39.5492725" lon="20.3020193"><ele>24.0</ele><time>2026-05-03T05:27:08.75Z</time></trkpt><trkpt lat="39.5493304" lon="20.3022403"><ele>24.0</ele><time>2026-05-03T05:27:09.75Z</time></trkpt><trkpt lat="39.549389" lon="20.3024593"><ele>24.0</ele><time>2026-05-03T05:27:10.749Z</time></trkpt><trkpt lat="39.54945" lon="20.3026807"><ele>22.666666666666668</ele><time>2026-05-03T05:27:11.749Z</time></trkpt><trkpt lat="39.5495145" lon="20.3029009"><ele>21.333333333333336</ele><time>2026-05-03T05:27:12.749Z</time></trkpt><trkpt lat="39.5495782" lon="20.3031183"><ele>20.0</ele><time>2026-05-03T05:27:13.75Z</time></trkpt><trkpt lat="39.5496428" lon="20.3033415"><ele>20.0</ele><time>2026-05-03T05:27:14.75Z</time></trkpt><trkpt lat="39.5497092" lon="20.3035685"><ele>20.0</ele><time>2026-05-03T05:27:15.749Z</time></trkpt><trkpt lat="39.549781" lon="20.3037977"><ele>20.0</ele><time>2026-05-03T05:27:16.75Z</time></trkpt><trkpt lat="39.5498533" lon="20.3040222"><ele>21.333333333333336</ele><time>2026-05-03T05:27:17.749Z</time></trkpt><trkpt lat="39.5499222" lon="20.3042495"><ele>22.666666666666668</ele><time>2026-05-03T05:27:18.749Z</time></trkpt><trkpt lat="39.5499873" lon="20.3044672"><ele>24.0</ele><time>2026-05-03T05:27:19.749Z</time></trkpt><trkpt lat="39.5500504" lon="20.3046855"><ele>25.666666666666664</ele><time>2026-05-03T05:27:20.75Z</time></trkpt><trkpt lat="39.5501139" lon="20.3049047"><ele>27.333333333333332</ele><time>2026-05-03T05:27:21.75Z</time></trkpt><trkpt lat="39.550178" lon="20.3051299"><ele>29.0</ele><time>2026-05-03T05:27:22.75Z</time></trkpt><trkpt lat="39.5502461" lon="20.3053501"><ele>29.0</ele><time>2026-05-03T05:27:23.749Z</time></trkpt><trkpt lat="39.5503092" lon="20.3055752"><ele>29.0</ele><time>2026-05-03T05:27:24.75Z</time></trkpt><trkpt lat="39.5503721" lon="20.3057981"><ele>29.0</ele><time>2026-05-03T05:27:25.748Z</time></trkpt><trkpt lat="39.5504359" lon="20.3060147"><ele>27.333333333333332</ele><time>2026-05-03T05:27:26.75Z</time></trkpt><trkpt lat="39.5504991" lon="20.3062379"><ele>25.666666666666664</ele><time>2026-05-03T05:27:27.75Z</time></trkpt><trkpt lat="39.5505615" lon="20.3064612"><ele>24.0</ele><time>2026-05-03T05:27:28.75Z</time></trkpt><trkpt lat="39.5506261" lon="20.3066823"><ele>24.0</ele><time>2026-05-03T05:27:29.749Z</time></trkpt><trkpt lat="39.5506971" lon="20.3068995"><ele>24.0</ele><time>2026-05-03T05:27:30.749Z</time></trkpt><trkpt lat="39.5507781" lon="20.3071206"><ele>24.0</ele><time>2026-05-03T05:27:31.748Z</time></trkpt><trkpt lat="39.5508637" lon="20.3073326"><ele>24.666666666666664</ele><time>2026-05-03T05:27:32.749Z</time></trkpt><trkpt lat="39.5509541" lon="20.3075443"><ele>25.333333333333332</ele><time>2026-05-03T05:27:33.749Z</time></trkpt><trkpt lat="39.5510492" lon="20.3077572"><ele>26.0</ele><time>2026-05-03T05:27:34.749Z</time></trkpt><trkpt lat="39.5511462" lon="20.3079666"><ele>25.333333333333332</ele><time>2026-05-03T05:27:35.75Z</time></trkpt><trkpt lat="39.5512592" lon="20.3081762"><ele>24.666666666666664</ele><time>2026-05-03T05:27:36.75Z</time></trkpt><trkpt lat="39.5513727" lon="20.3083679"><ele>24.0</ele><time>2026-05-03T05:27:37.75Z</time></trkpt><trkpt lat="39.5514922" lon="20.3085606"><ele>24.0</ele><time>2026-05-03T05:27:38.749Z</time></trkpt><trkpt lat="39.5516201" lon="20.3087488"><ele>24.0</ele><time>2026-05-03T05:27:39.749Z</time></trkpt><trkpt lat="39.5517434" lon="20.3089323"><ele>24.0</ele><time>2026-05-03T05:27:40.75Z</time></trkpt><trkpt lat="39.5518649" lon="20.3091079"><ele>24.0</ele><time>2026-05-03T05:27:41.749Z</time></trkpt><trkpt lat="39.5519906" lon="20.3092865"><ele>24.0</ele><time>2026-05-03T05:27:42.749Z</time></trkpt><trkpt lat="39.5521174" lon="20.3094601"><ele>24.0</ele><time>2026-05-03T05:27:43.749Z</time></trkpt><trkpt lat="39.552243" lon="20.3096283"><ele>26.0</ele><time>2026-05-03T05:27:44.749Z</time></trkpt><trkpt lat="39.5523726" lon="20.3097949"><ele>28.0</ele><time>2026-05-03T05:27:45.75Z</time></trkpt><trkpt lat="39.5524979" lon="20.3099677"><ele>30.0</ele><time>2026-05-03T05:27:46.75Z</time></trkpt><trkpt lat="39.5526217" lon="20.3101354"><ele>30.0</ele><time>2026-05-03T05:27:47.75Z</time></trkpt><trkpt lat="39.5527444" lon="20.3103023"><ele>30.0</ele><time>2026-05-03T05:27:48.75Z</time></trkpt><trkpt lat="39.5528683" lon="20.3104667"><ele>30.0</ele><time>2026-05-03T05:27:49.75Z</time></trkpt><trkpt lat="39.5529909" lon="20.3106281"><ele>31.333333333333336</ele><time>2026-05-03T05:27:50.749Z</time></trkpt><trkpt lat="39.5531142" lon="20.3107928"><ele>32.66666666666667</ele><time>2026-05-03T05:27:51.75Z</time></trkpt><trkpt lat="39.5532323" lon="20.3109514"><ele>34.0</ele><time>2026-05-03T05:27:52.749Z</time></trkpt><trkpt lat="39.5533424" lon="20.3110984"><ele>34.0</ele><time>2026-05-03T05:27:53.75Z</time></trkpt><trkpt lat="39.5534499" lon="20.3112472"><ele>34.0</ele><time>2026-05-03T05:27:54.75Z</time></trkpt><trkpt lat="39.5535555" lon="20.3113864"><ele>34.0</ele><time>2026-05-03T05:27:55.75Z</time></trkpt><trkpt lat="39.5536549" lon="20.3115304"><ele>36.25</ele><time>2026-05-03T05:27:56.75Z</time></trkpt><trkpt lat="39.5537503" lon="20.3116744"><ele>38.5</ele><time>2026-05-03T05:27:57.749Z</time></trkpt><trkpt lat="39.553834" lon="20.3118279"><ele>40.75</ele><time>2026-05-03T05:27:58.749Z</time></trkpt><trkpt lat="39.5539018" lon="20.3119778"><ele>43.0</ele><time>2026-05-03T05:27:59.749Z</time></trkpt><trkpt lat="39.5539473" lon="20.3121338"><ele>45.0</ele><time>2026-05-03T05:28:00.749Z</time></trkpt><trkpt lat="39.5539605" lon="20.3122801"><ele>47.0</ele><time>2026-05-03T05:28:01.748Z</time></trkpt><trkpt lat="39.5539662" lon="20.3124297"><ele>49.0</ele><time>2026-05-03T05:28:02.749Z</time></trkpt><trkpt lat="39.5539321" lon="20.3125729"><ele>51.0</ele><time>2026-05-03T05:28:03.75Z</time></trkpt><trkpt lat="39.5538421" lon="20.3126965"><ele>51.0</ele><time>2026-05-03T05:28:04.75Z</time></trkpt><trkpt lat="39.5537437" lon="20.3128184"><ele>51.0</ele><time>2026-05-03T05:28:05.75Z</time></trkpt><trkpt lat="39.5536334" lon="20.3129344"><ele>51.0</ele><time>2026-05-03T05:28:06.749Z</time></trkpt><trkpt lat="39.5535128" lon="20.3130551"><ele>51.0</ele><time>2026-05-03T05:28:07.749Z</time></trkpt><trkpt lat="39.5533981" lon="20.313184"><ele>56.0</ele><time>2026-05-03T05:28:08.75Z</time></trkpt><trkpt lat="39.553288" lon="20.3133279"><ele>61.0</ele><time>2026-05-03T05:28:09.749Z</time></trkpt><trkpt lat="39.5531879" lon="20.3134857"><ele>66.0</ele><time>2026-05-03T05:28:10.75Z</time></trkpt><trkpt lat="39.5531041" lon="20.3136621"><ele>66.0</ele><time>2026-05-03T05:28:11.75Z</time></trkpt><trkpt lat="39.5530248" lon="20.3138545"><ele>66.0</ele><time>2026-05-03T05:28:12.75Z</time></trkpt><trkpt lat="39.552954" lon="20.3140643"><ele>66.0</ele><time>2026-05-03T05:28:13.749Z</time></trkpt><trkpt lat="39.5528903" lon="20.3142814"><ele>66.0</ele><time>2026-05-03T05:28:14.749Z</time></trkpt><trkpt lat="39.5528271" lon="20.3144974"><ele>66.0</ele><time>2026-05-03T05:28:15.75Z</time></trkpt><trkpt lat="39.5527653" lon="20.3147195"><ele>66.0</ele><time>2026-05-03T05:28:16.75Z</time></trkpt><trkpt lat="39.5527037" lon="20.3149435"><ele>66.0</ele><time>2026-05-03T05:28:17.749Z</time></trkpt><trkpt lat="39.5526455" lon="20.3151739"><ele>66.0</ele><time>2026-05-03T05:28:18.75Z</time></trkpt><trkpt lat="39.5525871" lon="20.3153948"><ele>66.0</ele><time>2026-05-03T05:28:19.748Z</time></trkpt><trkpt lat="39.5525307" lon="20.3156167"><ele>69.66666666666667</ele><time>2026-05-03T05:28:20.75Z</time></trkpt><trkpt lat="39.5524682" lon="20.3158351"><ele>73.33333333333334</ele><time>2026-05-03T05:28:21.749Z</time></trkpt><trkpt lat="39.5524092" lon="20.3160559"><ele>77.0</ele><time>2026-05-03T05:28:22.749Z</time></trkpt><trkpt lat="39.5523437" lon="20.3162692"><ele>81.33333333333334</ele><time>2026-05-03T05:28:23.75Z</time></trkpt><trkpt lat="39.5522757" lon="20.31648"><ele>85.66666666666667</ele><time>2026-05-03T05:28:24.75Z</time></trkpt><trkpt lat="39.552204" lon="20.3166833"><ele>90.0</ele><time>2026-05-03T05:28:25.75Z</time></trkpt><trkpt lat="39.5521237" lon="20.3168793"><ele>89.66666666666667</ele><time>2026-05-03T05:28:26.749Z</time></trkpt><trkpt lat="39.5520302" lon="20.3170582"><ele>89.33333333333334</ele><time>2026-05-03T05:28:27.75Z</time></trkpt><trkpt lat="39.5519123" lon="20.3172282"><ele>89.0</ele><time>2026-05-03T05:28:28.749Z</time></trkpt><trkpt lat="39.5517759" lon="20.3173827"><ele>89.0</ele><time>2026-05-03T05:28:29.75Z</time></trkpt><trkpt lat="39.551626" lon="20.3175315"><ele>89.0</ele><time>2026-05-03T05:28:30.749Z</time></trkpt><trkpt lat="39.5514661" lon="20.3176601"><ele>89.0</ele><time>2026-05-03T05:28:31.75Z</time></trkpt><trkpt lat="39.5513013" lon="20.3177834"><ele>91.66666666666667</ele><time>2026-05-03T05:28:32.749Z</time></trkpt><trkpt lat="39.5511327" lon="20.3179056"><ele>94.33333333333334</ele><time>2026-05-03T05:28:33.749Z</time></trkpt><trkpt lat="39.5509681" lon="20.3180229"><ele>97.0</ele><time>2026-05-03T05:28:34.749Z</time></trkpt><trkpt lat="39.5508027" lon="20.31814"><ele>97.0</ele><time>2026-05-03T05:28:35.749Z</time></trkpt><trkpt lat="39.5506409" lon="20.3182591"><ele>97.0</ele><time>2026-05-03T05:28:36.75Z</time></trkpt><trkpt lat="39.5504772" lon="20.3183827"><ele>97.0</ele><time>2026-05-03T05:28:37.75Z</time></trkpt><trkpt lat="39.5503203" lon="20.3185078"><ele>94.66666666666667</ele><time>2026-05-03T05:28:38.748Z</time></trkpt><trkpt lat="39.5501708" lon="20.318632"><ele>92.33333333333334</ele><time>2026-05-03T05:28:39.749Z</time></trkpt><trkpt lat="39.5500245" lon="20.3187608"><ele>90.0</ele><time>2026-05-03T05:28:40.749Z</time></trkpt><trkpt lat="39.5499053" lon="20.3188946"><ele>96.66666666666666</ele><time>2026-05-03T05:28:41.75Z</time></trkpt><trkpt lat="39.5497937" lon="20.3190495"><ele>103.33333333333333</ele><time>2026-05-03T05:28:42.749Z</time></trkpt><trkpt lat="39.5497011" lon="20.3192301"><ele>110.0</ele><time>2026-05-03T05:28:43.75Z</time></trkpt><trkpt lat="39.5496171" lon="20.3194331"><ele>110.0</ele><time>2026-05-03T05:28:44.749Z</time></trkpt><trkpt lat="39.5495456" lon="20.3196579"><ele>110.0</ele><time>2026-05-03T05:28:45.75Z</time></trkpt><trkpt lat="39.549485" lon="20.3198923"><ele>110.0</ele><time>2026-05-03T05:28:46.749Z</time></trkpt><trkpt lat="39.5494301" lon="20.3201366"><ele>109.66666666666666</ele><time>2026-05-03T05:28:47.749Z</time></trkpt><trkpt lat="39.5493759" lon="20.3203858"><ele>109.33333333333334</ele><time>2026-05-03T05:28:48.75Z</time></trkpt><trkpt lat="39.5493285" lon="20.3206437"><ele>109.0</ele><time>2026-05-03T05:28:49.75Z</time></trkpt><trkpt lat="39.5492843" lon="20.3208956"><ele>109.0</ele><time>2026-05-03T05:28:50.75Z</time></trkpt><trkpt lat="39.5492369" lon="20.3211431"><ele>109.0</ele><time>2026-05-03T05:28:51.749Z</time></trkpt><trkpt lat="39.5491923" lon="20.3213911"><ele>109.0</ele><time>2026-05-03T05:28:52.75Z</time></trkpt><trkpt lat="39.5491463" lon="20.3216354"><ele>112.0</ele><time>2026-05-03T05:28:53.748Z</time></trkpt><trkpt lat="39.549103" lon="20.321868"><ele>115.0</ele><time>2026-05-03T05:28:54.749Z</time></trkpt><trkpt lat="39.5490621" lon="20.322098"><ele>118.0</ele><time>2026-05-03T05:28:55.75Z</time></trkpt><trkpt lat="39.5490157" lon="20.322319"><ele>120.66666666666667</ele><time>2026-05-03T05:28:56.75Z</time></trkpt><trkpt lat="39.5489664" lon="20.322526"><ele>123.33333333333334</ele><time>2026-05-03T05:28:57.75Z</time></trkpt><trkpt lat="39.5489155" lon="20.3227282"><ele>126.0</ele><time>2026-05-03T05:28:58.749Z</time></trkpt><trkpt lat="39.5488594" lon="20.3229238"><ele>126.75</ele><time>2026-05-03T05:28:59.75Z</time></trkpt><trkpt lat="39.5487986" lon="20.3231004"><ele>127.5</ele><time>2026-05-03T05:29:00.75Z</time></trkpt><trkpt lat="39.548732" lon="20.3232691"><ele>128.25</ele><time>2026-05-03T05:29:01.749Z</time></trkpt><trkpt lat="39.5486548" lon="20.3234268"><ele>129.0</ele><time>2026-05-03T05:29:02.75Z</time></trkpt><trkpt lat="39.5485647" lon="20.3235727"><ele>129.0</ele><time>2026-05-03T05:29:03.75Z</time></trkpt><trkpt lat="39.5484649" lon="20.3237033"><ele>129.0</ele><time>2026-05-03T05:29:04.749Z</time></trkpt><trkpt lat="39.5483574" lon="20.3238176"><ele>129.0</ele><time>2026-05-03T05:29:05.749Z</time></trkpt><trkpt lat="39.5482413" lon="20.3239191"><ele>129.0</ele><time>2026-05-03T05:29:06.749Z</time></trkpt><trkpt lat="39.5481164" lon="20.3240034"><ele>129.0</ele><time>2026-05-03T05:29:07.75Z</time></trkpt><trkpt lat="39.5479772" lon="20.3240704"><ele>129.0</ele><time>2026-05-03T05:29:08.749Z</time></trkpt><trkpt lat="39.5478278" lon="20.324117"><ele>129.0</ele><time>2026-05-03T05:29:09.749Z</time></trkpt><trkpt lat="39.5476704" lon="20.3241495"><ele>129.66666666666666</ele><time>2026-05-03T05:29:10.749Z</time></trkpt><trkpt lat="39.5475115" lon="20.324172"><ele>130.33333333333331</ele><time>2026-05-03T05:29:11.75Z</time></trkpt><trkpt lat="39.5473513" lon="20.3241884"><ele>131.0</ele><time>2026-05-03T05:29:12.75Z</time></trkpt><trkpt lat="39.547196" lon="20.3242084"><ele>132.66666666666666</ele><time>2026-05-03T05:29:13.75Z</time></trkpt><trkpt lat="39.5470436" lon="20.3242276"><ele>134.33333333333334</ele><time>2026-05-03T05:29:14.749Z</time></trkpt><trkpt lat="39.5468959" lon="20.324246"><ele>136.0</ele><time>2026-05-03T05:29:15.75Z</time></trkpt><trkpt lat="39.5467472" lon="20.324261"><ele>136.0</ele><time>2026-05-03T05:29:16.749Z</time></trkpt><trkpt lat="39.5465956" lon="20.3242717"><ele>136.0</ele><time>2026-05-03T05:29:17.749Z</time></trkpt><trkpt lat="39.5464369" lon="20.3242786"><ele>136.0</ele><time>2026-05-03T05:29:18.75Z</time></trkpt><trkpt lat="39.5462756" lon="20.3242699"><ele>137.33333333333334</ele><time>2026-05-03T05:29:19.75Z</time></trkpt><trkpt lat="39.546116" lon="20.3242491"><ele>138.66666666666666</ele><time>2026-05-03T05:29:20.749Z</time></trkpt><trkpt lat="39.5459525" lon="20.3242157"><ele>140.0</ele><time>2026-05-03T05:29:21.749Z</time></trkpt><trkpt lat="39.5457934" lon="20.3241809"><ele>140.0</ele><time>2026-05-03T05:29:22.749Z</time></trkpt><trkpt lat="39.5456391" lon="20.324152"><ele>140.0</ele><time>2026-05-03T05:29:23.749Z</time></trkpt><trkpt lat="39.5454823" lon="20.3241332"><ele>140.0</ele><time>2026-05-03T05:29:24.75Z</time></trkpt><trkpt lat="39.545321" lon="20.324129"><ele>141.0</ele><time>2026-05-03T05:29:25.75Z</time></trkpt><trkpt lat="39.5451666" lon="20.3241556"><ele>142.0</ele><time>2026-05-03T05:29:26.75Z</time></trkpt><trkpt lat="39.5450162" lon="20.3241927"><ele>143.0</ele><time>2026-05-03T05:29:27.749Z</time></trkpt><trkpt lat="39.544872" lon="20.3242346"><ele>143.0</ele><time>2026-05-03T05:29:28.75Z</time></trkpt><trkpt lat="39.5447276" lon="20.3242708"><ele>143.0</ele><time>2026-05-03T05:29:29.749Z</time></trkpt><trkpt lat="39.5445833" lon="20.324284"><ele>143.0</ele><time>2026-05-03T05:29:30.75Z</time></trkpt><trkpt lat="39.5444354" lon="20.3242763"><ele>143.0</ele><time>2026-05-03T05:29:31.75Z</time></trkpt><trkpt lat="39.5442789" lon="20.3242512"><ele>143.66666666666666</ele><time>2026-05-03T05:29:32.75Z</time></trkpt><trkpt lat="39.544123" lon="20.3242015"><ele>144.33333333333334</ele><time>2026-05-03T05:29:33.749Z</time></trkpt><trkpt lat="39.5439738" lon="20.3241396"><ele>145.0</ele><time>2026-05-03T05:29:34.75Z</time></trkpt><trkpt lat="39.5438365" lon="20.3240734"><ele>143.0</ele><time>2026-05-03T05:29:35.749Z</time></trkpt><trkpt lat="39.5437049" lon="20.3240071"><ele>141.0</ele><time>2026-05-03T05:29:36.749Z</time></trkpt><trkpt lat="39.543567" lon="20.3239457"><ele>139.0</ele><time>2026-05-03T05:29:37.749Z</time></trkpt><trkpt lat="39.5434372" lon="20.3239056"><ele>137.0</ele><time>2026-05-03T05:29:38.75Z</time></trkpt><trkpt lat="39.5432939" lon="20.3238874"><ele>143.33333333333331</ele><time>2026-05-03T05:29:39.75Z</time></trkpt><trkpt lat="39.5431351" lon="20.3238969"><ele>149.66666666666666</ele><time>2026-05-03T05:29:40.75Z</time></trkpt><trkpt lat="39.5429673" lon="20.3239115"><ele>156.0</ele><time>2026-05-03T05:29:41.75Z</time></trkpt><trkpt lat="39.5427955" lon="20.3239342"><ele>156.66666666666666</ele><time>2026-05-03T05:29:42.75Z</time></trkpt><trkpt lat="39.5426216" lon="20.3239577"><ele>157.33333333333331</ele><time>2026-05-03T05:29:43.75Z</time></trkpt><trkpt lat="39.5424402" lon="20.3239895"><ele>158.0</ele><time>2026-05-03T05:29:44.75Z</time></trkpt><trkpt lat="39.54226" lon="20.3240215"><ele>158.0</ele><time>2026-05-03T05:29:45.749Z</time></trkpt><trkpt lat="39.5420847" lon="20.3240534"><ele>158.0</ele><time>2026-05-03T05:29:46.749Z</time></trkpt><trkpt lat="39.541909" lon="20.3240909"><ele>158.0</ele><time>2026-05-03T05:29:47.75Z</time></trkpt><trkpt lat="39.5417309" lon="20.3241259"><ele>158.33333333333331</ele><time>2026-05-03T05:29:48.75Z</time></trkpt><trkpt lat="39.5415528" lon="20.3241619"><ele>158.66666666666666</ele><time>2026-05-03T05:29:49.749Z</time></trkpt><trkpt lat="39.5413749" lon="20.3241886"><ele>159.0</ele><time>2026-05-03T05:29:50.749Z</time></trkpt><trkpt lat="39.5411939" lon="20.3242244"><ele>159.0</ele><time>2026-05-03T05:29:51.75Z</time></trkpt><trkpt lat="39.5410161" lon="20.324263"><ele>159.0</ele><time>2026-05-03T05:29:52.749Z</time></trkpt><trkpt lat="39.5408429" lon="20.3243007"><ele>159.0</ele><time>2026-05-03T05:29:53.75Z</time></trkpt><trkpt lat="39.540668" lon="20.3243385"><ele>159.0</ele><time>2026-05-03T05:29:54.749Z</time></trkpt><trkpt lat="39.5404932" lon="20.3243748"><ele>159.0</ele><time>2026-05-03T05:29:55.749Z</time></trkpt><trkpt lat="39.5403165" lon="20.3244098"><ele>159.0</ele><time>2026-05-03T05:29:56.749Z</time></trkpt><trkpt lat="39.5401407" lon="20.3244398"><ele>158.66666666666666</ele><time>2026-05-03T05:29:57.749Z</time></trkpt><trkpt lat="39.5399626" lon="20.3244694"><ele>158.33333333333331</ele><time>2026-05-03T05:29:58.75Z</time></trkpt><trkpt lat="39.5397861" lon="20.3245028"><ele>158.0</ele><time>2026-05-03T05:29:59.75Z</time></trkpt><trkpt lat="39.5396112" lon="20.3245269"><ele>158.66666666666666</ele><time>2026-05-03T05:30:00.749Z</time></trkpt><trkpt lat="39.5394301" lon="20.3245416"><ele>159.33333333333334</ele><time>2026-05-03T05:30:01.75Z</time></trkpt><trkpt lat="39.5392475" lon="20.3245513"><ele>160.0</ele><time>2026-05-03T05:30:02.75Z</time></trkpt><trkpt lat="39.5390639" lon="20.3245626"><ele>160.0</ele><time>2026-05-03T05:30:03.75Z</time></trkpt><trkpt lat="39.5388804" lon="20.3245739"><ele>160.0</ele><time>2026-05-03T05:30:04.75Z</time></trkpt><trkpt lat="39.5386975" lon="20.3245863"><ele>160.0</ele><time>2026-05-03T05:30:05.75Z</time></trkpt><trkpt lat="39.5385128" lon="20.3246035"><ele>160.33333333333334</ele><time>2026-05-03T05:30:06.749Z</time></trkpt><trkpt lat="39.5383344" lon="20.3246162"><ele>160.66666666666666</ele><time>2026-05-03T05:30:07.749Z</time></trkpt><trkpt lat="39.5381504" lon="20.3246269"><ele>161.0</ele><time>2026-05-03T05:30:08.75Z</time></trkpt><trkpt lat="39.5379711" lon="20.3246376"><ele>161.66666666666666</ele><time>2026-05-03T05:30:09.75Z</time></trkpt><trkpt lat="39.5377911" lon="20.3246498"><ele>162.33333333333334</ele><time>2026-05-03T05:30:10.75Z</time></trkpt><trkpt lat="39.5376086" lon="20.3246647"><ele>163.0</ele><time>2026-05-03T05:30:11.749Z</time></trkpt><trkpt lat="39.5374254" lon="20.3246854"><ele>163.0</ele><time>2026-05-03T05:30:12.749Z</time></trkpt><trkpt lat="39.5372389" lon="20.3247123"><ele>163.0</ele><time>2026-05-03T05:30:13.749Z</time></trkpt><trkpt lat="39.5370512" lon="20.3247442"><ele>163.0</ele><time>2026-05-03T05:30:14.75Z</time></trkpt><trkpt lat="39.5368623" lon="20.324785"><ele>172.33333333333334</ele><time>2026-05-03T05:30:15.75Z</time></trkpt><trkpt lat="39.5366735" lon="20.3248349"><ele>181.66666666666666</ele><time>2026-05-03T05:30:16.75Z</time></trkpt><trkpt lat="39.5364885" lon="20.324888"><ele>191.0</ele><time>2026-05-03T05:30:17.75Z</time></trkpt><trkpt lat="39.5363043" lon="20.32495"><ele>189.33333333333331</ele><time>2026-05-03T05:30:18.748Z</time></trkpt><trkpt lat="39.5361232" lon="20.325015"><ele>187.66666666666666</ele><time>2026-05-03T05:30:19.748Z</time></trkpt><trkpt lat="39.5359427" lon="20.3250919"><ele>186.0</ele><time>2026-05-03T05:30:20.749Z</time></trkpt><trkpt lat="39.5357652" lon="20.3251705"><ele>186.0</ele><time>2026-05-03T05:30:21.748Z</time></trkpt><trkpt lat="39.535587" lon="20.325262"><ele>186.0</ele><time>2026-05-03T05:30:22.749Z</time></trkpt><trkpt lat="39.5354071" lon="20.3253573"><ele>186.0</ele><time>2026-05-03T05:30:23.749Z</time></trkpt><trkpt lat="39.5352296" lon="20.3254655"><ele>191.66666666666669</ele><time>2026-05-03T05:30:24.749Z</time></trkpt><trkpt lat="39.5350517" lon="20.325576"><ele>197.33333333333334</ele><time>2026-05-03T05:30:25.75Z</time></trkpt><trkpt lat="39.5348728" lon="20.3256848"><ele>203.0</ele><time>2026-05-03T05:30:26.75Z</time></trkpt><trkpt lat="39.5346946" lon="20.3257923"><ele>200.33333333333334</ele><time>2026-05-03T05:30:27.749Z</time></trkpt><trkpt lat="39.5345198" lon="20.3258941"><ele>197.66666666666669</ele><time>2026-05-03T05:30:28.75Z</time></trkpt><trkpt lat="39.5343444" lon="20.326004"><ele>195.0</ele><time>2026-05-03T05:30:29.749Z</time></trkpt><trkpt lat="39.5341684" lon="20.3261126"><ele>195.0</ele><time>2026-05-03T05:30:30.75Z</time></trkpt><trkpt lat="39.5339822" lon="20.3262251"><ele>195.0</ele><time>2026-05-03T05:30:31.75Z</time></trkpt><trkpt lat="39.5338038" lon="20.3263369"><ele>195.0</ele><time>2026-05-03T05:30:32.749Z</time></trkpt><trkpt lat="39.5336218" lon="20.3264566"><ele>199.33333333333331</ele><time>2026-05-03T05:30:33.749Z</time></trkpt><trkpt lat="39.5334421" lon="20.3265868"><ele>203.66666666666666</ele><time>2026-05-03T05:30:34.749Z</time></trkpt><trkpt lat="39.5332638" lon="20.3267244"><ele>208.0</ele><time>2026-05-03T05:30:35.75Z</time></trkpt><trkpt lat="39.5330847" lon="20.3268653"><ele>208.0</ele><time>2026-05-03T05:30:36.749Z</time></trkpt><trkpt lat="39.5329016" lon="20.3270033"><ele>208.0</ele><time>2026-05-03T05:30:37.749Z</time></trkpt><trkpt lat="39.5327246" lon="20.3271246"><ele>208.0</ele><time>2026-05-03T05:30:38.749Z</time></trkpt><trkpt lat="39.5325516" lon="20.3272517"><ele>209.66666666666666</ele><time>2026-05-03T05:30:39.75Z</time></trkpt><trkpt lat="39.5323799" lon="20.327383"><ele>211.33333333333331</ele><time>2026-05-03T05:30:40.749Z</time></trkpt><trkpt lat="39.532211" lon="20.3275158"><ele>213.0</ele><time>2026-05-03T05:30:41.749Z</time></trkpt><trkpt lat="39.5320439" lon="20.3276489"><ele>213.33333333333331</ele><time>2026-05-03T05:30:42.749Z</time></trkpt><trkpt lat="39.5318888" lon="20.3277788"><ele>213.66666666666666</ele><time>2026-05-03T05:30:43.75Z</time></trkpt><trkpt lat="39.5317144" lon="20.3279067"><ele>214.0</ele><time>2026-05-03T05:30:44.75Z</time></trkpt><trkpt lat="39.531538" lon="20.3280332"><ele>214.66666666666666</ele><time>2026-05-03T05:30:45.749Z</time></trkpt><trkpt lat="39.5313632" lon="20.3281615"><ele>215.33333333333331</ele><time>2026-05-03T05:30:46.75Z</time></trkpt><trkpt lat="39.5311856" lon="20.3282764"><ele>216.0</ele><time>2026-05-03T05:30:47.749Z</time></trkpt><trkpt lat="39.5310153" lon="20.3283968"><ele>216.0</ele><time>2026-05-03T05:30:48.749Z</time></trkpt><trkpt lat="39.5308422" lon="20.3285141"><ele>216.0</ele><time>2026-05-03T05:30:49.749Z</time></trkpt><trkpt lat="39.5306713" lon="20.3286362"><ele>216.0</ele><time>2026-05-03T05:30:50.749Z</time></trkpt><trkpt lat="39.5305057" lon="20.3287583"><ele>215.33333333333331</ele><time>2026-05-03T05:30:51.75Z</time></trkpt><trkpt lat="39.5303454" lon="20.3288828"><ele>214.66666666666666</ele><time>2026-05-03T05:30:52.75Z</time></trkpt><trkpt lat="39.5301947" lon="20.3290122"><ele>214.0</ele><time>2026-05-03T05:30:53.75Z</time></trkpt><trkpt lat="39.5300533" lon="20.3291556"><ele>213.0</ele><time>2026-05-03T05:30:54.749Z</time></trkpt><trkpt lat="39.5299135" lon="20.3293114"><ele>212.0</ele><time>2026-05-03T05:30:55.749Z</time></trkpt><trkpt lat="39.5297805" lon="20.3294825"><ele>211.0</ele><time>2026-05-03T05:30:56.75Z</time></trkpt><trkpt lat="39.5296513" lon="20.3296671"><ele>209.33333333333331</ele><time>2026-05-03T05:30:57.749Z</time></trkpt><trkpt lat="39.5295291" lon="20.3298673"><ele>207.66666666666669</ele><time>2026-05-03T05:30:58.75Z</time></trkpt><trkpt lat="39.5294089" lon="20.330072"><ele>206.0</ele><time>2026-05-03T05:30:59.75Z</time></trkpt><trkpt lat="39.5292941" lon="20.3302862"><ele>206.0</ele><time>2026-05-03T05:31:00.749Z</time></trkpt><trkpt lat="39.5291873" lon="20.3305101"><ele>206.0</ele><time>2026-05-03T05:31:01.749Z</time></trkpt><trkpt lat="39.5290876" lon="20.3307406"><ele>206.0</ele><time>2026-05-03T05:31:02.749Z</time></trkpt><trkpt lat="39.5289916" lon="20.3309761"><ele>205.0</ele><time>2026-05-03T05:31:03.75Z</time></trkpt><trkpt lat="39.5289014" lon="20.3312134"><ele>204.0</ele><time>2026-05-03T05:31:04.75Z</time></trkpt><trkpt lat="39.5288119" lon="20.3314534"><ele>203.0</ele><time>2026-05-03T05:31:05.75Z</time></trkpt><trkpt lat="39.5287303" lon="20.3316894"><ele>201.0</ele><time>2026-05-03T05:31:06.75Z</time></trkpt><trkpt lat="39.5286487" lon="20.3319169"><ele>199.0</ele><time>2026-05-03T05:31:07.749Z</time></trkpt><trkpt lat="39.5285733" lon="20.3321401"><ele>197.0</ele><time>2026-05-03T05:31:08.75Z</time></trkpt><trkpt lat="39.5284954" lon="20.3323593"><ele>196.0</ele><time>2026-05-03T05:31:09.75Z</time></trkpt><trkpt lat="39.5284204" lon="20.3325793"><ele>195.0</ele><time>2026-05-03T05:31:10.75Z</time></trkpt><trkpt lat="39.5283412" lon="20.3327979"><ele>194.0</ele><time>2026-05-03T05:31:11.749Z</time></trkpt><trkpt lat="39.5282585" lon="20.3330157"><ele>194.33333333333334</ele><time>2026-05-03T05:31:12.749Z</time></trkpt><trkpt lat="39.5281718" lon="20.3332295"><ele>194.66666666666669</ele><time>2026-05-03T05:31:13.749Z</time></trkpt><trkpt lat="39.5280739" lon="20.3334409"><ele>195.0</ele><time>2026-05-03T05:31:14.75Z</time></trkpt><trkpt lat="39.5279747" lon="20.3336484"><ele>191.0</ele><time>2026-05-03T05:31:15.749Z</time></trkpt><trkpt lat="39.5278725" lon="20.3338566"><ele>187.0</ele><time>2026-05-03T05:31:16.75Z</time></trkpt><trkpt lat="39.5277718" lon="20.3340707"><ele>183.0</ele><time>2026-05-03T05:31:17.75Z</time></trkpt><trkpt lat="39.5276728" lon="20.3342833"><ele>182.66666666666666</ele><time>2026-05-03T05:31:18.75Z</time></trkpt><trkpt lat="39.5275811" lon="20.3344986"><ele>182.33333333333331</ele><time>2026-05-03T05:31:19.749Z</time></trkpt><trkpt lat="39.5274967" lon="20.3347207"><ele>182.0</ele><time>2026-05-03T05:31:20.749Z</time></trkpt><trkpt lat="39.5274227" lon="20.3349512"><ele>182.0</ele><time>2026-05-03T05:31:21.75Z</time></trkpt><trkpt lat="39.527359" lon="20.3351883"><ele>182.0</ele><time>2026-05-03T05:31:22.75Z</time></trkpt><trkpt lat="39.5272998" lon="20.3354247"><ele>182.0</ele><time>2026-05-03T05:31:23.75Z</time></trkpt><trkpt lat="39.5272422" lon="20.3356621"><ele>183.33333333333331</ele><time>2026-05-03T05:31:24.749Z</time></trkpt><trkpt lat="39.5271913" lon="20.335897"><ele>184.66666666666666</ele><time>2026-05-03T05:31:25.75Z</time></trkpt><trkpt lat="39.5271414" lon="20.3361391"><ele>186.0</ele><time>2026-05-03T05:31:26.749Z</time></trkpt><trkpt lat="39.5270988" lon="20.3363838"><ele>185.33333333333334</ele><time>2026-05-03T05:31:27.75Z</time></trkpt><trkpt lat="39.5270616" lon="20.3366269"><ele>184.66666666666669</ele><time>2026-05-03T05:31:28.75Z</time></trkpt><trkpt lat="39.527035" lon="20.336878"><ele>184.0</ele><time>2026-05-03T05:31:29.749Z</time></trkpt><trkpt lat="39.5270046" lon="20.3371214"><ele>176.0</ele><time>2026-05-03T05:31:30.749Z</time></trkpt><trkpt lat="39.5269721" lon="20.3373655"><ele>168.0</ele><time>2026-05-03T05:31:31.75Z</time></trkpt><trkpt lat="39.5269438" lon="20.3376126"><ele>160.0</ele><time>2026-05-03T05:31:32.75Z</time></trkpt><trkpt lat="39.5269177" lon="20.3378621"><ele>158.66666666666669</ele><time>2026-05-03T05:31:33.75Z</time></trkpt><trkpt lat="39.5268929" lon="20.338112"><ele>157.33333333333334</ele><time>2026-05-03T05:31:34.749Z</time></trkpt><trkpt lat="39.5268717" lon="20.3383625"><ele>156.0</ele><time>2026-05-03T05:31:35.75Z</time></trkpt><trkpt lat="39.5268477" lon="20.3386115"><ele>156.0</ele><time>2026-05-03T05:31:36.75Z</time></trkpt><trkpt lat="39.5268281" lon="20.3388587"><ele>156.0</ele><time>2026-05-03T05:31:37.75Z</time></trkpt><trkpt lat="39.5268096" lon="20.3391053"><ele>156.0</ele><time>2026-05-03T05:31:38.749Z</time></trkpt><trkpt lat="39.5267952" lon="20.3393494"><ele>155.33333333333334</ele><time>2026-05-03T05:31:39.75Z</time></trkpt><trkpt lat="39.5267881" lon="20.3396012"><ele>154.66666666666669</ele><time>2026-05-03T05:31:40.749Z</time></trkpt><trkpt lat="39.5267817" lon="20.3398451"><ele>154.0</ele><time>2026-05-03T05:31:41.75Z</time></trkpt><trkpt lat="39.5267735" lon="20.3400998"><ele>152.66666666666669</ele><time>2026-05-03T05:31:42.75Z</time></trkpt><trkpt lat="39.5267686" lon="20.3403454"><ele>151.33333333333334</ele><time>2026-05-03T05:31:43.749Z</time></trkpt><trkpt lat="39.5267639" lon="20.3405887"><ele>150.0</ele><time>2026-05-03T05:31:44.75Z</time></trkpt><trkpt lat="39.5267576" lon="20.3408388"><ele>148.33333333333334</ele><time>2026-05-03T05:31:45.749Z</time></trkpt><trkpt lat="39.5267557" lon="20.3410835"><ele>146.66666666666669</ele><time>2026-05-03T05:31:46.75Z</time></trkpt><trkpt lat="39.5267511" lon="20.3413291"><ele>145.0</ele><time>2026-05-03T05:31:47.749Z</time></trkpt><trkpt lat="39.5267456" lon="20.341577"><ele>144.0</ele><time>2026-05-03T05:31:48.749Z</time></trkpt><trkpt lat="39.5267364" lon="20.3418228"><ele>143.0</ele><time>2026-05-03T05:31:49.749Z</time></trkpt><trkpt lat="39.5267311" lon="20.342065"><ele>142.0</ele><time>2026-05-03T05:31:50.75Z</time></trkpt><trkpt lat="39.5267251" lon="20.3423051"><ele>140.66666666666669</ele><time>2026-05-03T05:31:51.749Z</time></trkpt><trkpt lat="39.5267181" lon="20.3425393"><ele>139.33333333333334</ele><time>2026-05-03T05:31:52.75Z</time></trkpt><trkpt lat="39.5267079" lon="20.3427753"><ele>138.0</ele><time>2026-05-03T05:31:53.75Z</time></trkpt><trkpt lat="39.5266981" lon="20.3430083"><ele>137.33333333333334</ele><time>2026-05-03T05:31:54.749Z</time></trkpt><trkpt lat="39.5266975" lon="20.3432424"><ele>136.66666666666669</ele><time>2026-05-03T05:31:55.749Z</time></trkpt><trkpt lat="39.52671" lon="20.3434727"><ele>136.0</ele><time>2026-05-03T05:31:56.75Z</time></trkpt><trkpt lat="39.5267348" lon="20.3436975"><ele>134.66666666666669</ele><time>2026-05-03T05:31:57.749Z</time></trkpt><trkpt lat="39.5267716" lon="20.3439152"><ele>133.33333333333334</ele><time>2026-05-03T05:31:58.749Z</time></trkpt><trkpt lat="39.5268144" lon="20.3441356"><ele>132.0</ele><time>2026-05-03T05:31:59.749Z</time></trkpt><trkpt lat="39.526865" lon="20.3443593"><ele>132.0</ele><time>2026-05-03T05:32:00.75Z</time></trkpt><trkpt lat="39.5269183" lon="20.344581"><ele>132.0</ele><time>2026-05-03T05:32:01.75Z</time></trkpt><trkpt lat="39.5269756" lon="20.344803"><ele>132.0</ele><time>2026-05-03T05:32:02.749Z</time></trkpt><trkpt lat="39.5270363" lon="20.3450314"><ele>132.0</ele><time>2026-05-03T05:32:03.75Z</time></trkpt><trkpt lat="39.5270955" lon="20.3452622"><ele>132.0</ele><time>2026-05-03T05:32:04.75Z</time></trkpt><trkpt lat="39.5271567" lon="20.3454943"><ele>132.0</ele><time>2026-05-03T05:32:05.749Z</time></trkpt><trkpt lat="39.5272138" lon="20.3457253"><ele>131.0</ele><time>2026-05-03T05:32:06.749Z</time></trkpt><trkpt lat="39.5272727" lon="20.3459575"><ele>130.0</ele><time>2026-05-03T05:32:07.749Z</time></trkpt><trkpt lat="39.5273339" lon="20.3461877"><ele>129.0</ele><time>2026-05-03T05:32:08.749Z</time></trkpt><trkpt lat="39.5273853" lon="20.3464073"><ele>127.33333333333334</ele><time>2026-05-03T05:32:09.749Z</time></trkpt><trkpt lat="39.5274379" lon="20.3466219"><ele>125.66666666666667</ele><time>2026-05-03T05:32:10.748Z</time></trkpt><trkpt lat="39.5274894" lon="20.3468214"><ele>124.0</ele><time>2026-05-03T05:32:11.75Z</time></trkpt><trkpt lat="39.5275531" lon="20.3470159"><ele>124.0</ele><time>2026-05-03T05:32:12.748Z</time></trkpt><trkpt lat="39.5276241" lon="20.3472004"><ele>124.0</ele><time>2026-05-03T05:32:13.75Z</time></trkpt><trkpt lat="39.527708" lon="20.3473766"><ele>124.0</ele><time>2026-05-03T05:32:14.75Z</time></trkpt><trkpt lat="39.5277983" lon="20.3475464"><ele>124.33333333333334</ele><time>2026-05-03T05:32:15.749Z</time></trkpt><trkpt lat="39.5279076" lon="20.3477085"><ele>124.66666666666666</ele><time>2026-05-03T05:32:16.75Z</time></trkpt><trkpt lat="39.5280151" lon="20.3478634"><ele>125.0</ele><time>2026-05-03T05:32:17.749Z</time></trkpt><trkpt lat="39.5281133" lon="20.3480052"><ele>120.33333333333333</ele><time>2026-05-03T05:32:18.75Z</time></trkpt><trkpt lat="39.5282282" lon="20.3481482"><ele>115.66666666666666</ele><time>2026-05-03T05:32:19.749Z</time></trkpt><trkpt lat="39.5283513" lon="20.3482728"><ele>111.0</ele><time>2026-05-03T05:32:20.749Z</time></trkpt><trkpt lat="39.5284859" lon="20.3483797"><ele>111.0</ele><time>2026-05-03T05:32:21.749Z</time></trkpt><trkpt lat="39.5286291" lon="20.3484724"><ele>111.0</ele><time>2026-05-03T05:32:22.75Z</time></trkpt><trkpt lat="39.5287767" lon="20.3485539"><ele>111.0</ele><time>2026-05-03T05:32:23.75Z</time></trkpt><trkpt lat="39.5289327" lon="20.3486292"><ele>111.5</ele><time>2026-05-03T05:32:24.75Z</time></trkpt><trkpt lat="39.5290879" lon="20.3487001"><ele>112.0</ele><time>2026-05-03T05:32:25.75Z</time></trkpt><trkpt lat="39.529225" lon="20.3487581"><ele>112.5</ele><time>2026-05-03T05:32:26.75Z</time></trkpt><trkpt lat="39.5293594" lon="20.3488122"><ele>113.0</ele><time>2026-05-03T05:32:27.749Z</time></trkpt><trkpt lat="39.529486" lon="20.3488728"><ele>110.0</ele><time>2026-05-03T05:32:28.749Z</time></trkpt><trkpt lat="39.5296192" lon="20.3489344"><ele>107.0</ele><time>2026-05-03T05:32:29.75Z</time></trkpt><trkpt lat="39.5297622" lon="20.3489988"><ele>104.0</ele><time>2026-05-03T05:32:30.748Z</time></trkpt><trkpt lat="39.5299091" lon="20.3490724"><ele>104.0</ele><time>2026-05-03T05:32:31.749Z</time></trkpt><trkpt lat="39.5300567" lon="20.3491418"><ele>104.0</ele><time>2026-05-03T05:32:32.749Z</time></trkpt><trkpt lat="39.5302085" lon="20.3492161"><ele>104.0</ele><time>2026-05-03T05:32:33.75Z</time></trkpt><trkpt lat="39.5303558" lon="20.3492879"><ele>107.0</ele><time>2026-05-03T05:32:34.749Z</time></trkpt><trkpt lat="39.5304949" lon="20.3493582"><ele>110.0</ele><time>2026-05-03T05:32:35.749Z</time></trkpt><trkpt lat="39.5306253" lon="20.3494271"><ele>113.0</ele><time>2026-05-03T05:32:36.749Z</time></trkpt><trkpt lat="39.5307446" lon="20.3495096"><ele>116.0</ele><time>2026-05-03T05:32:37.749Z</time></trkpt><trkpt lat="39.5308432" lon="20.3495928"><ele>116.0</ele><time>2026-05-03T05:32:38.749Z</time></trkpt><trkpt lat="39.5309219" lon="20.349707"><ele>116.0</ele><time>2026-05-03T05:32:39.749Z</time></trkpt><trkpt lat="39.5309803" lon="20.3498494"><ele>116.0</ele><time>2026-05-03T05:32:40.75Z</time></trkpt><trkpt lat="39.5309948" lon="20.35"><ele>116.0</ele><time>2026-05-03T05:32:41.748Z</time></trkpt><trkpt lat="39.5309801" lon="20.3501546"><ele>113.0</ele><time>2026-05-03T05:32:42.75Z</time></trkpt><trkpt lat="39.5309282" lon="20.3502887"><ele>110.0</ele><time>2026-05-03T05:32:43.749Z</time></trkpt><trkpt lat="39.5308519" lon="20.3503931"><ele>107.0</ele><time>2026-05-03T05:32:44.748Z</time></trkpt><trkpt lat="39.5307484" lon="20.3504685"><ele>104.0</ele><time>2026-05-03T05:32:45.75Z</time></trkpt><trkpt lat="39.5306235" lon="20.3505126"><ele>104.0</ele><time>2026-05-03T05:32:46.75Z</time></trkpt><trkpt lat="39.5304852" lon="20.3505207"><ele>104.0</ele><time>2026-05-03T05:32:47.749Z</time></trkpt><trkpt lat="39.5303235" lon="20.3504853"><ele>104.0</ele><time>2026-05-03T05:32:48.75Z</time></trkpt><trkpt lat="39.5301656" lon="20.3504561"><ele>101.0</ele><time>2026-05-03T05:32:49.749Z</time></trkpt><trkpt lat="39.5300015" lon="20.3504176"><ele>98.0</ele><time>2026-05-03T05:32:50.75Z</time></trkpt><trkpt lat="39.5298316" lon="20.3503762"><ele>95.0</ele><time>2026-05-03T05:32:51.749Z</time></trkpt><trkpt lat="39.5296616" lon="20.3503327"><ele>93.66666666666667</ele><time>2026-05-03T05:32:52.749Z</time></trkpt><trkpt lat="39.5294911" lon="20.3502849"><ele>92.33333333333333</ele><time>2026-05-03T05:32:53.75Z</time></trkpt><trkpt lat="39.5293206" lon="20.3502377"><ele>91.0</ele><time>2026-05-03T05:32:54.75Z</time></trkpt><trkpt lat="39.5291484" lon="20.3501976"><ele>91.0</ele><time>2026-05-03T05:32:55.75Z</time></trkpt><trkpt lat="39.5289741" lon="20.3501541"><ele>91.0</ele><time>2026-05-03T05:32:56.749Z</time></trkpt><trkpt lat="39.528798" lon="20.350121"><ele>91.0</ele><time>2026-05-03T05:32:57.75Z</time></trkpt><trkpt lat="39.528626" lon="20.3500958"><ele>89.66666666666666</ele><time>2026-05-03T05:32:58.75Z</time></trkpt><trkpt lat="39.5284488" lon="20.3500812"><ele>88.33333333333333</ele><time>2026-05-03T05:32:59.749Z</time></trkpt><trkpt lat="39.5282695" lon="20.3500715"><ele>87.0</ele><time>2026-05-03T05:33:00.75Z</time></trkpt><trkpt lat="39.5280899" lon="20.3500633"><ele>87.0</ele><time>2026-05-03T05:33:01.75Z</time></trkpt><trkpt lat="39.5279096" lon="20.3500536"><ele>87.0</ele><time>2026-05-03T05:33:02.749Z</time></trkpt><trkpt lat="39.5277376" lon="20.3500488"><ele>87.0</ele><time>2026-05-03T05:33:03.749Z</time></trkpt><trkpt lat="39.5275751" lon="20.3500453"><ele>86.0</ele><time>2026-05-03T05:33:04.75Z</time></trkpt><trkpt lat="39.5274157" lon="20.3500299"><ele>85.0</ele><time>2026-05-03T05:33:05.749Z</time></trkpt><trkpt lat="39.5272543" lon="20.3500001"><ele>84.0</ele><time>2026-05-03T05:33:06.749Z</time></trkpt><trkpt lat="39.5271001" lon="20.349949"><ele>81.0</ele><time>2026-05-03T05:33:07.75Z</time></trkpt><trkpt lat="39.526944" lon="20.3498932"><ele>78.0</ele><time>2026-05-03T05:33:08.749Z</time></trkpt><trkpt lat="39.5267929" lon="20.349833"><ele>75.0</ele><time>2026-05-03T05:33:09.75Z</time></trkpt><trkpt lat="39.5266444" lon="20.3497599"><ele>75.25</ele><time>2026-05-03T05:33:10.749Z</time></trkpt><trkpt lat="39.5265077" lon="20.3496862"><ele>75.5</ele><time>2026-05-03T05:33:11.75Z</time></trkpt><trkpt lat="39.5263781" lon="20.3495945"><ele>75.75</ele><time>2026-05-03T05:33:12.749Z</time></trkpt><trkpt lat="39.5262612" lon="20.3494834"><ele>76.0</ele><time>2026-05-03T05:33:13.749Z</time></trkpt><trkpt lat="39.5261502" lon="20.3493575"><ele>76.0</ele><time>2026-05-03T05:33:14.75Z</time></trkpt><trkpt lat="39.5260478" lon="20.3492254"><ele>76.0</ele><time>2026-05-03T05:33:15.75Z</time></trkpt><trkpt lat="39.5259384" lon="20.3491021"><ele>76.0</ele><time>2026-05-03T05:33:16.75Z</time></trkpt><trkpt lat="39.5258263" lon="20.3489898"><ele>76.0</ele><time>2026-05-03T05:33:17.749Z</time></trkpt><trkpt lat="39.5257004" lon="20.348892"><ele>76.25</ele><time>2026-05-03T05:33:18.75Z</time></trkpt><trkpt lat="39.5255718" lon="20.3488114"><ele>76.5</ele><time>2026-05-03T05:33:19.749Z</time></trkpt><trkpt lat="39.5254381" lon="20.3487474"><ele>76.75</ele><time>2026-05-03T05:33:20.75Z</time></trkpt><trkpt lat="39.5253015" lon="20.3487082"><ele>77.0</ele><time>2026-05-03T05:33:21.75Z</time></trkpt><trkpt lat="39.5251584" lon="20.3486788"><ele>77.0</ele><time>2026-05-03T05:33:22.75Z</time></trkpt><trkpt lat="39.5250199" lon="20.3486688"><ele>77.0</ele><time>2026-05-03T05:33:23.75Z</time></trkpt><trkpt lat="39.5248793" lon="20.3486529"><ele>77.0</ele><time>2026-05-03T05:33:24.749Z</time></trkpt><trkpt lat="39.5247324" lon="20.3486323"><ele>77.0</ele><time>2026-05-03T05:33:25.749Z</time></trkpt><trkpt lat="39.5245925" lon="20.3485898"><ele>75.33333333333334</ele><time>2026-05-03T05:33:26.749Z</time></trkpt><trkpt lat="39.5244519" lon="20.3485295"><ele>73.66666666666667</ele><time>2026-05-03T05:33:27.75Z</time></trkpt><trkpt lat="39.5243109" lon="20.3484645"><ele>72.0</ele><time>2026-05-03T05:33:28.749Z</time></trkpt><trkpt lat="39.524165" lon="20.3483871"><ele>72.0</ele><time>2026-05-03T05:33:29.749Z</time></trkpt><trkpt lat="39.524018" lon="20.3483066"><ele>72.0</ele><time>2026-05-03T05:33:30.75Z</time></trkpt><trkpt lat="39.5238701" lon="20.3482292"><ele>72.0</ele><time>2026-05-03T05:33:31.749Z</time></trkpt><trkpt lat="39.5237196" lon="20.3481388"><ele>71.0</ele><time>2026-05-03T05:33:32.75Z</time></trkpt><trkpt lat="39.5235668" lon="20.3480491"><ele>70.0</ele><time>2026-05-03T05:33:33.75Z</time></trkpt><trkpt lat="39.5234185" lon="20.3479658"><ele>69.0</ele><time>2026-05-03T05:33:34.75Z</time></trkpt><trkpt lat="39.5232754" lon="20.34788"><ele>69.0</ele><time>2026-05-03T05:33:35.75Z</time></trkpt><trkpt lat="39.5231388" lon="20.3478191"><ele>69.0</ele><time>2026-05-03T05:33:36.75Z</time></trkpt><trkpt lat="39.5229927" lon="20.3477587"><ele>69.0</ele><time>2026-05-03T05:33:37.75Z</time></trkpt><trkpt lat="39.5228467" lon="20.3477223"><ele>69.0</ele><time>2026-05-03T05:33:38.749Z</time></trkpt><trkpt lat="39.5227" lon="20.34772"><ele>68.0</ele><time>2026-05-03T05:33:39.75Z</time></trkpt><trkpt lat="39.5225532" lon="20.3477443"><ele>67.0</ele><time>2026-05-03T05:33:40.75Z</time></trkpt><trkpt lat="39.5224122" lon="20.3477992"><ele>66.0</ele><time>2026-05-03T05:33:41.75Z</time></trkpt><trkpt lat="39.5222782" lon="20.3478799"><ele>65.0</ele><time>2026-05-03T05:33:42.75Z</time></trkpt><trkpt lat="39.5221571" lon="20.3479915"><ele>62.66666666666667</ele><time>2026-05-03T05:33:43.75Z</time></trkpt><trkpt lat="39.5220509" lon="20.348133"><ele>60.33333333333333</ele><time>2026-05-03T05:33:44.75Z</time></trkpt><trkpt lat="39.5219647" lon="20.3482985"><ele>58.0</ele><time>2026-05-03T05:33:45.75Z</time></trkpt><trkpt lat="39.5218891" lon="20.348494"><ele>58.0</ele><time>2026-05-03T05:33:46.748Z</time></trkpt><trkpt lat="39.5218315" lon="20.3487038"><ele>58.0</ele><time>2026-05-03T05:33:47.749Z</time></trkpt><trkpt lat="39.5217854" lon="20.3489301"><ele>58.0</ele><time>2026-05-03T05:33:48.75Z</time></trkpt><trkpt lat="39.5217411" lon="20.3491705"><ele>55.33333333333333</ele><time>2026-05-03T05:33:49.749Z</time></trkpt><trkpt lat="39.5216956" lon="20.349419"><ele>52.66666666666667</ele><time>2026-05-03T05:33:50.748Z</time></trkpt><trkpt lat="39.5216485" lon="20.3496691"><ele>50.0</ele><time>2026-05-03T05:33:51.749Z</time></trkpt><trkpt lat="39.5216019" lon="20.3499199"><ele>48.333333333333336</ele><time>2026-05-03T05:33:52.749Z</time></trkpt><trkpt lat="39.5215559" lon="20.3501738"><ele>46.66666666666667</ele><time>2026-05-03T05:33:53.749Z</time></trkpt><trkpt lat="39.5215087" lon="20.3504272"><ele>45.0</ele><time>2026-05-03T05:33:54.747Z</time></trkpt><trkpt lat="39.5214581" lon="20.3506967"><ele>43.666666666666664</ele><time>2026-05-03T05:33:55.749Z</time></trkpt><trkpt lat="39.5214086" lon="20.3509603"><ele>42.33333333333333</ele><time>2026-05-03T05:33:56.749Z</time></trkpt><trkpt lat="39.5213593" lon="20.3512295"><ele>41.0</ele><time>2026-05-03T05:33:57.748Z</time></trkpt><trkpt lat="39.5213097" lon="20.3514904"><ele>41.0</ele><time>2026-05-03T05:33:58.749Z</time></trkpt><trkpt lat="39.5212582" lon="20.3517548"><ele>41.0</ele><time>2026-05-03T05:33:59.749Z</time></trkpt><trkpt lat="39.5212074" lon="20.3520108"><ele>41.0</ele><time>2026-05-03T05:34:00.749Z</time></trkpt><trkpt lat="39.5211598" lon="20.3522714"><ele>41.0</ele><time>2026-05-03T05:34:01.75Z</time></trkpt><trkpt lat="39.5211151" lon="20.3525292"><ele>41.0</ele><time>2026-05-03T05:34:02.75Z</time></trkpt><trkpt lat="39.5210649" lon="20.3527835"><ele>41.0</ele><time>2026-05-03T05:34:03.75Z</time></trkpt><trkpt lat="39.5210184" lon="20.3530363"><ele>40.33333333333333</ele><time>2026-05-03T05:34:04.75Z</time></trkpt><trkpt lat="39.520971" lon="20.3532841"><ele>39.666666666666664</ele><time>2026-05-03T05:34:05.75Z</time></trkpt><trkpt lat="39.5209209" lon="20.353531"><ele>39.0</ele><time>2026-05-03T05:34:06.749Z</time></trkpt><trkpt lat="39.5208743" lon="20.3537718"><ele>38.666666666666664</ele><time>2026-05-03T05:34:07.75Z</time></trkpt><trkpt lat="39.5208244" lon="20.354013"><ele>38.33333333333333</ele><time>2026-05-03T05:34:08.75Z</time></trkpt><trkpt lat="39.520769" lon="20.3542519"><ele>38.0</ele><time>2026-05-03T05:34:09.748Z</time></trkpt><trkpt lat="39.520705" lon="20.3544907"><ele>38.0</ele><time>2026-05-03T05:34:10.749Z</time></trkpt><trkpt lat="39.5206464" lon="20.3547316"><ele>38.0</ele><time>2026-05-03T05:34:11.75Z</time></trkpt><trkpt lat="39.5205745" lon="20.3549668"><ele>38.0</ele><time>2026-05-03T05:34:12.748Z</time></trkpt><trkpt lat="39.5204974" lon="20.3551985"><ele>38.0</ele><time>2026-05-03T05:34:13.749Z</time></trkpt><trkpt lat="39.5204166" lon="20.3554363"><ele>38.0</ele><time>2026-05-03T05:34:14.748Z</time></trkpt><trkpt lat="39.5203306" lon="20.3556651"><ele>38.0</ele><time>2026-05-03T05:34:15.749Z</time></trkpt><trkpt lat="39.520239" lon="20.3558851"><ele>39.0</ele><time>2026-05-03T05:34:16.75Z</time></trkpt><trkpt lat="39.5201473" lon="20.3561024"><ele>40.0</ele><time>2026-05-03T05:34:17.75Z</time></trkpt><trkpt lat="39.5200563" lon="20.3563073"><ele>41.0</ele><time>2026-05-03T05:34:18.749Z</time></trkpt><trkpt lat="39.5199706" lon="20.356509"><ele>38.0</ele><time>2026-05-03T05:34:19.749Z</time></trkpt><trkpt lat="39.51989" lon="20.3566996"><ele>35.0</ele><time>2026-05-03T05:34:20.749Z</time></trkpt><trkpt lat="39.5198202" lon="20.3568937"><ele>32.0</ele><time>2026-05-03T05:34:21.749Z</time></trkpt><trkpt lat="39.5197718" lon="20.3570992"><ele>31.0</ele><time>2026-05-03T05:34:22.748Z</time></trkpt><trkpt lat="39.5197465" lon="20.357322"><ele>30.0</ele><time>2026-05-03T05:34:23.75Z</time></trkpt><trkpt lat="39.5197393" lon="20.3575505"><ele>29.0</ele><time>2026-05-03T05:34:24.749Z</time></trkpt><trkpt lat="39.5197442" lon="20.3577905"><ele>29.0</ele><time>2026-05-03T05:34:25.749Z</time></trkpt><trkpt lat="39.5197616" lon="20.3580448"><ele>29.0</ele><time>2026-05-03T05:34:26.75Z</time></trkpt><trkpt lat="39.5197863" lon="20.3583054"><ele>29.0</ele><time>2026-05-03T05:34:27.75Z</time></trkpt><trkpt lat="39.5198129" lon="20.3585744"><ele>29.0</ele><time>2026-05-03T05:34:28.75Z</time></trkpt><trkpt lat="39.5198338" lon="20.3588369"><ele>29.0</ele><time>2026-05-03T05:34:29.75Z</time></trkpt><trkpt lat="39.519856" lon="20.3591019"><ele>29.0</ele><time>2026-05-03T05:34:30.749Z</time></trkpt><trkpt lat="39.5198811" lon="20.3593694"><ele>29.0</ele><time>2026-05-03T05:34:31.75Z</time></trkpt><trkpt lat="39.5199052" lon="20.3596366"><ele>29.0</ele><time>2026-05-03T05:34:32.75Z</time></trkpt><trkpt lat="39.5199281" lon="20.3599074"><ele>29.0</ele><time>2026-05-03T05:34:33.747Z</time></trkpt><trkpt lat="39.5199569" lon="20.3601786"><ele>28.666666666666664</ele><time>2026-05-03T05:34:34.748Z</time></trkpt><trkpt lat="39.519985" lon="20.3604489"><ele>28.333333333333336</ele><time>2026-05-03T05:34:35.75Z</time></trkpt><trkpt lat="39.5200086" lon="20.3607221"><ele>28.0</ele><time>2026-05-03T05:34:36.75Z</time></trkpt><trkpt lat="39.5200339" lon="20.360994"><ele>28.666666666666668</ele><time>2026-05-03T05:34:37.749Z</time></trkpt><trkpt lat="39.5200575" lon="20.361269"><ele>29.333333333333336</ele><time>2026-05-03T05:34:38.75Z</time></trkpt><trkpt lat="39.5200756" lon="20.3615452"><ele>30.0</ele><time>2026-05-03T05:34:39.747Z</time></trkpt><trkpt lat="39.5200897" lon="20.3618253"><ele>30.333333333333336</ele><time>2026-05-03T05:34:40.749Z</time></trkpt><trkpt lat="39.5200968" lon="20.3621072"><ele>30.666666666666668</ele><time>2026-05-03T05:34:41.749Z</time></trkpt><trkpt lat="39.5201" lon="20.3623864"><ele>31.0</ele><time>2026-05-03T05:34:42.75Z</time></trkpt><trkpt lat="39.5200945" lon="20.3626614"><ele>31.333333333333336</ele><time>2026-05-03T05:34:43.75Z</time></trkpt><trkpt lat="39.5200888" lon="20.3629392"><ele>31.666666666666664</ele><time>2026-05-03T05:34:44.748Z</time></trkpt><trkpt lat="39.5200796" lon="20.3632048"><ele>32.0</ele><time>2026-05-03T05:34:45.749Z</time></trkpt><trkpt lat="39.5200571" lon="20.3634637"><ele>33.33333333333333</ele><time>2026-05-03T05:34:46.747Z</time></trkpt><trkpt lat="39.5200269" lon="20.3637178"><ele>34.666666666666664</ele><time>2026-05-03T05:34:47.749Z</time></trkpt><trkpt lat="39.5199999" lon="20.363984"><ele>36.0</ele><time>2026-05-03T05:34:48.75Z</time></trkpt><trkpt lat="39.5199825" lon="20.364248"><ele>38.0</ele><time>2026-05-03T05:34:49.749Z</time></trkpt><trkpt lat="39.5199821" lon="20.3645158"><ele>40.0</ele><time>2026-05-03T05:34:50.75Z</time></trkpt><trkpt lat="39.5199979" lon="20.3647763"><ele>42.0</ele><time>2026-05-03T05:34:51.75Z</time></trkpt><trkpt lat="39.5200304" lon="20.3650374"><ele>43.333333333333336</ele><time>2026-05-03T05:34:52.75Z</time></trkpt><trkpt lat="39.5200704" lon="20.3653001"><ele>44.66666666666667</ele><time>2026-05-03T05:34:53.75Z</time></trkpt><trkpt lat="39.5201137" lon="20.3655644"><ele>46.0</ele><time>2026-05-03T05:34:54.748Z</time></trkpt><trkpt lat="39.5201553" lon="20.365831"><ele>46.333333333333336</ele><time>2026-05-03T05:34:55.749Z</time></trkpt><trkpt lat="39.5202014" lon="20.3660971"><ele>46.666666666666664</ele><time>2026-05-03T05:34:56.75Z</time></trkpt><trkpt lat="39.5202443" lon="20.3663642"><ele>47.0</ele><time>2026-05-03T05:34:57.75Z</time></trkpt><trkpt lat="39.5202876" lon="20.3666379"><ele>47.0</ele><time>2026-05-03T05:34:58.749Z</time></trkpt><trkpt lat="39.5203348" lon="20.366914"><ele>47.0</ele><time>2026-05-03T05:34:59.749Z</time></trkpt><trkpt lat="39.5203843" lon="20.3671837"><ele>47.0</ele><time>2026-05-03T05:35:00.75Z</time></trkpt><trkpt lat="39.5204249" lon="20.3674509"><ele>43.0</ele><time>2026-05-03T05:35:01.749Z</time></trkpt><trkpt lat="39.5204667" lon="20.3677211"><ele>39.0</ele><time>2026-05-03T05:35:02.749Z</time></trkpt><trkpt lat="39.5205011" lon="20.367991"><ele>35.0</ele><time>2026-05-03T05:35:03.75Z</time></trkpt><trkpt lat="39.5205306" lon="20.3682613"><ele>34.33333333333333</ele><time>2026-05-03T05:35:04.75Z</time></trkpt><trkpt lat="39.520554" lon="20.368529"><ele>33.666666666666664</ele><time>2026-05-03T05:35:05.75Z</time></trkpt><trkpt lat="39.520576" lon="20.3687968"><ele>33.0</ele><time>2026-05-03T05:35:06.748Z</time></trkpt><trkpt lat="39.5205936" lon="20.3690682"><ele>33.0</ele><time>2026-05-03T05:35:07.748Z</time></trkpt><trkpt lat="39.5206116" lon="20.3693376"><ele>33.0</ele><time>2026-05-03T05:35:08.75Z</time></trkpt><trkpt lat="39.5206226" lon="20.3696013"><ele>33.0</ele><time>2026-05-03T05:35:09.749Z</time></trkpt><trkpt lat="39.5206401" lon="20.3698397"><ele>34.666666666666664</ele><time>2026-05-03T05:35:10.749Z</time></trkpt><trkpt lat="39.52065" lon="20.3700691"><ele>36.33333333333333</ele><time>2026-05-03T05:35:11.749Z</time></trkpt><trkpt lat="39.5206552" lon="20.3702837"><ele>38.0</ele><time>2026-05-03T05:35:12.748Z</time></trkpt><trkpt lat="39.5206422" lon="20.3704906"><ele>38.666666666666664</ele><time>2026-05-03T05:35:13.75Z</time></trkpt><trkpt lat="39.520607" lon="20.3706917"><ele>39.333333333333336</ele><time>2026-05-03T05:35:14.749Z</time></trkpt><trkpt lat="39.5205592" lon="20.3708811"><ele>40.0</ele><time>2026-05-03T05:35:15.749Z</time></trkpt><trkpt lat="39.5204756" lon="20.3710505"><ele>39.0</ele><time>2026-05-03T05:35:16.749Z</time></trkpt><trkpt lat="39.5203761" lon="20.3712035"><ele>38.0</ele><time>2026-05-03T05:35:17.75Z</time></trkpt><trkpt lat="39.5202358" lon="20.3713287"><ele>37.0</ele><time>2026-05-03T05:35:18.747Z</time></trkpt><trkpt lat="39.5200861" lon="20.3714331"><ele>37.0</ele><time>2026-05-03T05:35:19.749Z</time></trkpt><trkpt lat="39.519922" lon="20.3715157"><ele>37.0</ele><time>2026-05-03T05:35:20.749Z</time></trkpt><trkpt lat="39.519743" lon="20.3715799"><ele>37.0</ele><time>2026-05-03T05:35:21.75Z</time></trkpt><trkpt lat="39.5195615" lon="20.3716387"><ele>38.66666666666667</ele><time>2026-05-03T05:35:22.749Z</time></trkpt><trkpt lat="39.5193697" lon="20.3716935"><ele>40.333333333333336</ele><time>2026-05-03T05:35:23.749Z</time></trkpt><trkpt lat="39.5191779" lon="20.371748"><ele>42.0</ele><time>2026-05-03T05:35:24.75Z</time></trkpt><trkpt lat="39.5189806" lon="20.3718074"><ele>42.0</ele><time>2026-05-03T05:35:25.748Z</time></trkpt><trkpt lat="39.518784" lon="20.3718786"><ele>42.0</ele><time>2026-05-03T05:35:26.749Z</time></trkpt><trkpt lat="39.5185897" lon="20.3719495"><ele>42.0</ele><time>2026-05-03T05:35:27.749Z</time></trkpt><trkpt lat="39.5183958" lon="20.3720213"><ele>40.0</ele><time>2026-05-03T05:35:28.749Z</time></trkpt><trkpt lat="39.518206" lon="20.3721007"><ele>38.0</ele><time>2026-05-03T05:35:29.75Z</time></trkpt><trkpt lat="39.5180286" lon="20.3721765"><ele>36.0</ele><time>2026-05-03T05:35:30.749Z</time></trkpt><trkpt lat="39.5178559" lon="20.3722537"><ele>36.0</ele><time>2026-05-03T05:35:31.75Z</time></trkpt><trkpt lat="39.5176962" lon="20.3723322"><ele>36.0</ele><time>2026-05-03T05:35:32.749Z</time></trkpt><trkpt lat="39.5175392" lon="20.3724106"><ele>36.0</ele><time>2026-05-03T05:35:33.749Z</time></trkpt><trkpt lat="39.517396" lon="20.3725018"><ele>36.0</ele><time>2026-05-03T05:35:34.748Z</time></trkpt><trkpt lat="39.5172617" lon="20.3726167"><ele>36.0</ele><time>2026-05-03T05:35:35.749Z</time></trkpt><trkpt lat="39.5171428" lon="20.3727525"><ele>36.0</ele><time>2026-05-03T05:35:36.75Z</time></trkpt><trkpt lat="39.5170381" lon="20.3729153"><ele>35.0</ele><time>2026-05-03T05:35:37.75Z</time></trkpt><trkpt lat="39.516954" lon="20.3730934"><ele>34.0</ele><time>2026-05-03T05:35:38.75Z</time></trkpt><trkpt lat="39.5168874" lon="20.3732825"><ele>33.0</ele><time>2026-05-03T05:35:39.749Z</time></trkpt><trkpt lat="39.5168457" lon="20.3734892"><ele>33.0</ele><time>2026-05-03T05:35:40.749Z</time></trkpt><trkpt lat="39.5168258" lon="20.3737034"><ele>33.0</ele><time>2026-05-03T05:35:41.749Z</time></trkpt><trkpt lat="39.5168269" lon="20.3739229"><ele>33.0</ele><time>2026-05-03T05:35:42.75Z</time></trkpt><trkpt lat="39.5168421" lon="20.3741526"><ele>33.0</ele><time>2026-05-03T05:35:43.749Z</time></trkpt><trkpt lat="39.516871" lon="20.3743831"><ele>33.0</ele><time>2026-05-03T05:35:44.75Z</time></trkpt><trkpt lat="39.5169067" lon="20.374611"><ele>33.0</ele><time>2026-05-03T05:35:45.749Z</time></trkpt><trkpt lat="39.5169405" lon="20.3748343"><ele>33.0</ele><time>2026-05-03T05:35:46.75Z</time></trkpt><trkpt lat="39.5169732" lon="20.3750549"><ele>33.0</ele><time>2026-05-03T05:35:47.748Z</time></trkpt><trkpt lat="39.5170127" lon="20.3752679"><ele>33.0</ele><time>2026-05-03T05:35:48.749Z</time></trkpt><trkpt lat="39.517053" lon="20.375481"><ele>31.666666666666664</ele><time>2026-05-03T05:35:49.749Z</time></trkpt><trkpt lat="39.5171088" lon="20.3756859"><ele>30.333333333333332</ele><time>2026-05-03T05:35:50.75Z</time></trkpt><trkpt lat="39.5171806" lon="20.3758937"><ele>29.0</ele><time>2026-05-03T05:35:51.748Z</time></trkpt><trkpt lat="39.5172557" lon="20.3761001"><ele>29.0</ele><time>2026-05-03T05:35:52.749Z</time></trkpt><trkpt lat="39.5173366" lon="20.3763018"><ele>29.0</ele><time>2026-05-03T05:35:53.748Z</time></trkpt><trkpt lat="39.5174329" lon="20.3765026"><ele>29.0</ele><time>2026-05-03T05:35:54.749Z</time></trkpt><trkpt lat="39.5175199" lon="20.3766996"><ele>30.666666666666664</ele><time>2026-05-03T05:35:55.749Z</time></trkpt><trkpt lat="39.5176018" lon="20.376909"><ele>32.333333333333336</ele><time>2026-05-03T05:35:56.749Z</time></trkpt><trkpt lat="39.5176915" lon="20.3771359"><ele>34.0</ele><time>2026-05-03T05:35:57.75Z</time></trkpt><trkpt lat="39.517773" lon="20.3773488"><ele>35.66666666666667</ele><time>2026-05-03T05:35:58.75Z</time></trkpt><trkpt lat="39.5178494" lon="20.3775641"><ele>37.333333333333336</ele><time>2026-05-03T05:35:59.748Z</time></trkpt><trkpt lat="39.5179176" lon="20.3777851"><ele>39.0</ele><time>2026-05-03T05:36:00.75Z</time></trkpt><trkpt lat="39.5179747" lon="20.3780006"><ele>35.0</ele><time>2026-05-03T05:36:01.75Z</time></trkpt><trkpt lat="39.5180359" lon="20.3782214"><ele>31.0</ele><time>2026-05-03T05:36:02.75Z</time></trkpt><trkpt lat="39.5180929" lon="20.3784374"><ele>27.0</ele><time>2026-05-03T05:36:03.749Z</time></trkpt><trkpt lat="39.5181473" lon="20.3786541"><ele>27.333333333333336</ele><time>2026-05-03T05:36:04.749Z</time></trkpt><trkpt lat="39.5182016" lon="20.3788588"><ele>27.666666666666668</ele><time>2026-05-03T05:36:05.75Z</time></trkpt><trkpt lat="39.5182551" lon="20.3790544"><ele>28.0</ele><time>2026-05-03T05:36:06.75Z</time></trkpt><trkpt lat="39.5182994" lon="20.3792333"><ele>28.0</ele><time>2026-05-03T05:36:07.749Z</time></trkpt><trkpt lat="39.518333" lon="20.3794047"><ele>28.0</ele><time>2026-05-03T05:36:08.75Z</time></trkpt><trkpt lat="39.5183544" lon="20.3795776"><ele>28.0</ele><time>2026-05-03T05:36:09.749Z</time></trkpt><trkpt lat="39.5183533" lon="20.3797622"><ele>28.0</ele><time>2026-05-03T05:36:10.749Z</time></trkpt><trkpt lat="39.5183464" lon="20.379948"><ele>29.333333333333336</ele><time>2026-05-03T05:36:11.75Z</time></trkpt><trkpt lat="39.5183252" lon="20.3801444"><ele>30.666666666666664</ele><time>2026-05-03T05:36:12.749Z</time></trkpt><trkpt lat="39.5182647" lon="20.3803255"><ele>32.0</ele><time>2026-05-03T05:36:13.749Z</time></trkpt><trkpt lat="39.5181812" lon="20.3804851"><ele>32.33333333333333</ele><time>2026-05-03T05:36:14.748Z</time></trkpt><trkpt lat="39.5180749" lon="20.3806379"><ele>32.666666666666664</ele><time>2026-05-03T05:36:15.75Z</time></trkpt><trkpt lat="39.5179559" lon="20.3807917"><ele>33.0</ele><time>2026-05-03T05:36:16.749Z</time></trkpt><trkpt lat="39.5178292" lon="20.3809544"><ele>33.0</ele><time>2026-05-03T05:36:17.749Z</time></trkpt><trkpt lat="39.5176948" lon="20.3811255"><ele>33.0</ele><time>2026-05-03T05:36:18.75Z</time></trkpt><trkpt lat="39.5175613" lon="20.3812964"><ele>33.0</ele><time>2026-05-03T05:36:19.75Z</time></trkpt><trkpt lat="39.5174284" lon="20.381481"><ele>33.0</ele><time>2026-05-03T05:36:20.75Z</time></trkpt><trkpt lat="39.5173" lon="20.3816752"><ele>33.0</ele><time>2026-05-03T05:36:21.749Z</time></trkpt><trkpt lat="39.5171806" lon="20.3818739"><ele>33.0</ele><time>2026-05-03T05:36:22.749Z</time></trkpt><trkpt lat="39.5170646" lon="20.3820809"><ele>34.0</ele><time>2026-05-03T05:36:23.75Z</time></trkpt><trkpt lat="39.5169582" lon="20.382287"><ele>35.0</ele><time>2026-05-03T05:36:24.75Z</time></trkpt><trkpt lat="39.5168609" lon="20.3824952"><ele>36.0</ele><time>2026-05-03T05:36:25.749Z</time></trkpt><trkpt lat="39.5167724" lon="20.3827033"><ele>36.0</ele><time>2026-05-03T05:36:26.75Z</time></trkpt><trkpt lat="39.5166936" lon="20.3829171"><ele>36.0</ele><time>2026-05-03T05:36:27.749Z</time></trkpt><trkpt lat="39.5166275" lon="20.3831366"><ele>36.0</ele><time>2026-05-03T05:36:28.75Z</time></trkpt><trkpt lat="39.5165709" lon="20.3833576"><ele>34.666666666666664</ele><time>2026-05-03T05:36:29.748Z</time></trkpt><trkpt lat="39.5165255" lon="20.3835823"><ele>33.33333333333333</ele><time>2026-05-03T05:36:30.75Z</time></trkpt><trkpt lat="39.5164896" lon="20.3838104"><ele>32.0</ele><time>2026-05-03T05:36:31.75Z</time></trkpt><trkpt lat="39.5164574" lon="20.3840391"><ele>31.0</ele><time>2026-05-03T05:36:32.749Z</time></trkpt><trkpt lat="39.5164248" lon="20.3842712"><ele>30.0</ele><time>2026-05-03T05:36:33.749Z</time></trkpt><trkpt lat="39.5163945" lon="20.384499"><ele>29.0</ele><time>2026-05-03T05:36:34.749Z</time></trkpt><trkpt lat="39.5163627" lon="20.3847202"><ele>28.666666666666664</ele><time>2026-05-03T05:36:35.749Z</time></trkpt><trkpt lat="39.5163194" lon="20.3849395"><ele>28.333333333333336</ele><time>2026-05-03T05:36:36.749Z</time></trkpt><trkpt lat="39.5162723" lon="20.3851573"><ele>28.0</ele><time>2026-05-03T05:36:37.75Z</time></trkpt><trkpt lat="39.5162083" lon="20.3853748"><ele>30.666666666666668</ele><time>2026-05-03T05:36:38.75Z</time></trkpt><trkpt lat="39.5161313" lon="20.3855804"><ele>33.333333333333336</ele><time>2026-05-03T05:36:39.749Z</time></trkpt><trkpt lat="39.5160495" lon="20.3857872"><ele>36.0</ele><time>2026-05-03T05:36:40.75Z</time></trkpt><trkpt lat="39.5159653" lon="20.3859891"><ele>36.0</ele><time>2026-05-03T05:36:41.749Z</time></trkpt><trkpt lat="39.5158696" lon="20.3861876"><ele>36.0</ele><time>2026-05-03T05:36:42.75Z</time></trkpt><trkpt lat="39.5157761" lon="20.3863848"><ele>36.0</ele><time>2026-05-03T05:36:43.75Z</time></trkpt><trkpt lat="39.5156876" lon="20.3865841"><ele>34.666666666666664</ele><time>2026-05-03T05:36:44.749Z</time></trkpt><trkpt lat="39.5156016" lon="20.386786"><ele>33.33333333333333</ele><time>2026-05-03T05:36:45.749Z</time></trkpt><trkpt lat="39.5155285" lon="20.3869975"><ele>32.0</ele><time>2026-05-03T05:36:46.75Z</time></trkpt><trkpt lat="39.5154722" lon="20.3872187"><ele>32.33333333333333</ele><time>2026-05-03T05:36:47.749Z</time></trkpt><trkpt lat="39.5154236" lon="20.38745"><ele>32.666666666666664</ele><time>2026-05-03T05:36:48.749Z</time></trkpt><trkpt lat="39.515393" lon="20.387691"><ele>33.0</ele><time>2026-05-03T05:36:49.748Z</time></trkpt><trkpt lat="39.5153727" lon="20.3879316"><ele>32.666666666666664</ele><time>2026-05-03T05:36:50.749Z</time></trkpt><trkpt lat="39.5153593" lon="20.3881733"><ele>32.33333333333333</ele><time>2026-05-03T05:36:51.75Z</time></trkpt><trkpt lat="39.5153488" lon="20.3884189"><ele>32.0</ele><time>2026-05-03T05:36:52.749Z</time></trkpt><trkpt lat="39.5153382" lon="20.3886655"><ele>32.33333333333333</ele><time>2026-05-03T05:36:53.75Z</time></trkpt><trkpt lat="39.5153234" lon="20.3889117"><ele>32.666666666666664</ele><time>2026-05-03T05:36:54.749Z</time></trkpt><trkpt lat="39.5153015" lon="20.3891567"><ele>33.0</ele><time>2026-05-03T05:36:55.749Z</time></trkpt><trkpt lat="39.5152801" lon="20.3894038"><ele>33.0</ele><time>2026-05-03T05:36:56.75Z</time></trkpt><trkpt lat="39.5152457" lon="20.3896376"><ele>33.0</ele><time>2026-05-03T05:36:57.749Z</time></trkpt><trkpt lat="39.5152097" lon="20.3898717"><ele>33.0</ele><time>2026-05-03T05:36:58.749Z</time></trkpt><trkpt lat="39.5151733" lon="20.3901048"><ele>32.333333333333336</ele><time>2026-05-03T05:36:59.75Z</time></trkpt><trkpt lat="39.5151363" lon="20.3903351"><ele>31.666666666666668</ele><time>2026-05-03T05:37:00.75Z</time></trkpt><trkpt lat="39.5150966" lon="20.3905692"><ele>31.0</ele><time>2026-05-03T05:37:01.749Z</time></trkpt><trkpt lat="39.5150554" lon="20.3908065"><ele>30.333333333333336</ele><time>2026-05-03T05:37:02.749Z</time></trkpt><trkpt lat="39.5150133" lon="20.3910398"><ele>29.666666666666664</ele><time>2026-05-03T05:37:03.75Z</time></trkpt><trkpt lat="39.5149693" lon="20.3912734"><ele>29.0</ele><time>2026-05-03T05:37:04.75Z</time></trkpt><trkpt lat="39.5149257" lon="20.3915038"><ele>28.666666666666664</ele><time>2026-05-03T05:37:05.749Z</time></trkpt><trkpt lat="39.5148846" lon="20.3917362"><ele>28.333333333333336</ele><time>2026-05-03T05:37:06.749Z</time></trkpt><trkpt lat="39.5148456" lon="20.3919654"><ele>28.0</ele><time>2026-05-03T05:37:07.75Z</time></trkpt><trkpt lat="39.5148067" lon="20.392194"><ele>27.333333333333336</ele><time>2026-05-03T05:37:08.75Z</time></trkpt><trkpt lat="39.5147682" lon="20.3924195"><ele>26.666666666666664</ele><time>2026-05-03T05:37:09.749Z</time></trkpt><trkpt lat="39.5147342" lon="20.392645"><ele>26.0</ele><time>2026-05-03T05:37:10.75Z</time></trkpt><trkpt lat="39.5147025" lon="20.3928626"><ele>26.333333333333332</ele><time>2026-05-03T05:37:11.749Z</time></trkpt><trkpt lat="39.5146795" lon="20.3930815"><ele>26.666666666666664</ele><time>2026-05-03T05:37:12.75Z</time></trkpt><trkpt lat="39.5146693" lon="20.3933115"><ele>27.0</ele><time>2026-05-03T05:37:13.749Z</time></trkpt><trkpt lat="39.5146716" lon="20.3935417"><ele>27.0</ele><time>2026-05-03T05:37:14.749Z</time></trkpt><trkpt lat="39.5146901" lon="20.393774"><ele>27.0</ele><time>2026-05-03T05:37:15.749Z</time></trkpt><trkpt lat="39.5147267" lon="20.3940059"><ele>27.0</ele><time>2026-05-03T05:37:16.75Z</time></trkpt><trkpt lat="39.5147627" lon="20.3942429"><ele>26.666666666666664</ele><time>2026-05-03T05:37:17.749Z</time></trkpt><trkpt lat="39.5148077" lon="20.3944768"><ele>26.333333333333332</ele><time>2026-05-03T05:37:18.748Z</time></trkpt><trkpt lat="39.5148539" lon="20.3947124"><ele>26.0</ele><time>2026-05-03T05:37:19.749Z</time></trkpt><trkpt lat="39.5148962" lon="20.3949522"><ele>26.666666666666664</ele><time>2026-05-03T05:37:20.75Z</time></trkpt><trkpt lat="39.5149403" lon="20.3951909"><ele>27.333333333333336</ele><time>2026-05-03T05:37:21.75Z</time></trkpt><trkpt lat="39.5149824" lon="20.3954255"><ele>28.0</ele><time>2026-05-03T05:37:22.749Z</time></trkpt><trkpt lat="39.5150257" lon="20.3956578"><ele>28.0</ele><time>2026-05-03T05:37:23.749Z</time></trkpt><trkpt lat="39.5150661" lon="20.3958861"><ele>28.0</ele><time>2026-05-03T05:37:24.749Z</time></trkpt><trkpt lat="39.5151103" lon="20.3961072"><ele>28.0</ele><time>2026-05-03T05:37:25.75Z</time></trkpt><trkpt lat="39.515158" lon="20.3963181"><ele>29.0</ele><time>2026-05-03T05:37:26.749Z</time></trkpt><trkpt lat="39.5152216" lon="20.3965206"><ele>30.0</ele><time>2026-05-03T05:37:27.75Z</time></trkpt><trkpt lat="39.5152979" lon="20.3967111"><ele>31.0</ele><time>2026-05-03T05:37:28.747Z</time></trkpt><trkpt lat="39.5153832" lon="20.3968948"><ele>29.333333333333336</ele><time>2026-05-03T05:37:29.747Z</time></trkpt><trkpt lat="39.5155208" lon="20.3970539"><ele>27.666666666666664</ele><time>2026-05-03T05:37:30.75Z</time></trkpt><trkpt lat="39.5156597" lon="20.3971993"><ele>26.0</ele><time>2026-05-03T05:37:31.749Z</time></trkpt><trkpt lat="39.5158124" lon="20.3973257"><ele>29.0</ele><time>2026-05-03T05:37:32.749Z</time></trkpt><trkpt lat="39.5159669" lon="20.3974524"><ele>32.0</ele><time>2026-05-03T05:37:33.749Z</time></trkpt><trkpt lat="39.5161219" lon="20.3975784"><ele>35.0</ele><time>2026-05-03T05:37:34.749Z</time></trkpt><trkpt lat="39.5162735" lon="20.3977091"><ele>35.0</ele><time>2026-05-03T05:37:35.749Z</time></trkpt><trkpt lat="39.5164126" lon="20.3978519"><ele>35.0</ele><time>2026-05-03T05:37:36.749Z</time></trkpt><trkpt lat="39.5165458" lon="20.3980061"><ele>35.0</ele><time>2026-05-03T05:37:37.75Z</time></trkpt><trkpt lat="39.5166738" lon="20.3981771"><ele>37.0</ele><time>2026-05-03T05:37:38.749Z</time></trkpt><trkpt lat="39.5167977" lon="20.3983613"><ele>39.0</ele><time>2026-05-03T05:37:39.75Z</time></trkpt><trkpt lat="39.5169194" lon="20.3985475"><ele>41.0</ele><time>2026-05-03T05:37:40.75Z</time></trkpt><trkpt lat="39.5170332" lon="20.3987526"><ele>39.0</ele><time>2026-05-03T05:37:41.75Z</time></trkpt><trkpt lat="39.517146" lon="20.3989566"><ele>37.0</ele><time>2026-05-03T05:37:42.75Z</time></trkpt><trkpt lat="39.5172614" lon="20.3991596"><ele>35.0</ele><time>2026-05-03T05:37:43.749Z</time></trkpt><trkpt lat="39.5173773" lon="20.3993611"><ele>35.0</ele><time>2026-05-03T05:37:44.75Z</time></trkpt><trkpt lat="39.5174941" lon="20.3995592"><ele>35.0</ele><time>2026-05-03T05:37:45.75Z</time></trkpt><trkpt lat="39.5176117" lon="20.3997607"><ele>35.0</ele><time>2026-05-03T05:37:46.749Z</time></trkpt><trkpt lat="39.5177344" lon="20.3999584"><ele>35.0</ele><time>2026-05-03T05:37:47.749Z</time></trkpt><trkpt lat="39.517862" lon="20.4001528"><ele>35.0</ele><time>2026-05-03T05:37:48.749Z</time></trkpt><trkpt lat="39.5179968" lon="20.4003429"><ele>35.0</ele><time>2026-05-03T05:37:49.75Z</time></trkpt><trkpt lat="39.5181363" lon="20.4005261"><ele>35.0</ele><time>2026-05-03T05:37:50.749Z</time></trkpt><trkpt lat="39.5182786" lon="20.4007039"><ele>35.0</ele><time>2026-05-03T05:37:51.75Z</time></trkpt><trkpt lat="39.5184257" lon="20.4008708"><ele>35.0</ele><time>2026-05-03T05:37:52.75Z</time></trkpt><trkpt lat="39.5185693" lon="20.4010269"><ele>35.0</ele><time>2026-05-03T05:37:53.749Z</time></trkpt><trkpt lat="39.5187089" lon="20.4011885"><ele>35.0</ele><time>2026-05-03T05:37:54.75Z</time></trkpt><trkpt lat="39.518841" lon="20.4013577"><ele>35.0</ele><time>2026-05-03T05:37:55.75Z</time></trkpt><trkpt lat="39.5189655" lon="20.4015358"><ele>34.0</ele><time>2026-05-03T05:37:56.749Z</time></trkpt><trkpt lat="39.5190779" lon="20.4017259"><ele>33.0</ele><time>2026-05-03T05:37:57.748Z</time></trkpt><trkpt lat="39.5191784" lon="20.4019325"><ele>32.0</ele><time>2026-05-03T05:37:58.75Z</time></trkpt><trkpt lat="39.5192732" lon="20.4021417"><ele>37.33333333333333</ele><time>2026-05-03T05:37:59.747Z</time></trkpt><trkpt lat="39.5193552" lon="20.4023546"><ele>42.666666666666664</ele><time>2026-05-03T05:38:00.749Z</time></trkpt><trkpt lat="39.5194275" lon="20.4025789"><ele>48.0</ele><time>2026-05-03T05:38:01.749Z</time></trkpt><trkpt lat="39.519492" lon="20.4028055"><ele>51.33333333333333</ele><time>2026-05-03T05:38:02.749Z</time></trkpt><trkpt lat="39.5195503" lon="20.4030421"><ele>54.666666666666664</ele><time>2026-05-03T05:38:03.749Z</time></trkpt><trkpt lat="39.5196079" lon="20.4032813"><ele>58.0</ele><time>2026-05-03T05:38:04.749Z</time></trkpt><trkpt lat="39.5196618" lon="20.4035187"><ele>51.33333333333333</ele><time>2026-05-03T05:38:05.75Z</time></trkpt><trkpt lat="39.5197182" lon="20.4037593"><ele>44.666666666666664</ele><time>2026-05-03T05:38:06.75Z</time></trkpt><trkpt lat="39.5197781" lon="20.4040007"><ele>38.0</ele><time>2026-05-03T05:38:07.749Z</time></trkpt><trkpt lat="39.5198373" lon="20.404243"><ele>38.0</ele><time>2026-05-03T05:38:08.749Z</time></trkpt><trkpt lat="39.5198948" lon="20.4044792"><ele>38.0</ele><time>2026-05-03T05:38:09.749Z</time></trkpt><trkpt lat="39.5199522" lon="20.4047152"><ele>38.0</ele><time>2026-05-03T05:38:10.749Z</time></trkpt><trkpt lat="39.5200066" lon="20.4049493"><ele>38.33333333333333</ele><time>2026-05-03T05:38:11.75Z</time></trkpt><trkpt lat="39.5200633" lon="20.4051771"><ele>38.666666666666664</ele><time>2026-05-03T05:38:12.749Z</time></trkpt><trkpt lat="39.5201077" lon="20.4054169"><ele>39.0</ele><time>2026-05-03T05:38:13.749Z</time></trkpt><trkpt lat="39.5201435" lon="20.4056622"><ele>39.333333333333336</ele><time>2026-05-03T05:38:14.748Z</time></trkpt><trkpt lat="39.5201644" lon="20.4059144"><ele>39.66666666666667</ele><time>2026-05-03T05:38:15.75Z</time></trkpt><trkpt lat="39.5201792" lon="20.4061695"><ele>40.0</ele><time>2026-05-03T05:38:16.749Z</time></trkpt><trkpt lat="39.5201863" lon="20.4064222"><ele>41.0</ele><time>2026-05-03T05:38:17.75Z</time></trkpt><trkpt lat="39.5201898" lon="20.4066723"><ele>42.0</ele><time>2026-05-03T05:38:18.749Z</time></trkpt><trkpt lat="39.5201975" lon="20.4069199"><ele>43.0</ele><time>2026-05-03T05:38:19.747Z</time></trkpt><trkpt lat="39.5202217" lon="20.4071663"><ele>43.66666666666667</ele><time>2026-05-03T05:38:20.75Z</time></trkpt><trkpt lat="39.5202644" lon="20.4074141"><ele>44.333333333333336</ele><time>2026-05-03T05:38:21.749Z</time></trkpt><trkpt lat="39.5203198" lon="20.407659"><ele>45.0</ele><time>2026-05-03T05:38:22.749Z</time></trkpt><trkpt lat="39.5203888" lon="20.4079008"><ele>41.333333333333336</ele><time>2026-05-03T05:38:23.746Z</time></trkpt><trkpt lat="39.5204655" lon="20.4081371"><ele>37.66666666666667</ele><time>2026-05-03T05:38:24.748Z</time></trkpt><trkpt lat="39.5205463" lon="20.4083669"><ele>34.0</ele><time>2026-05-03T05:38:25.748Z</time></trkpt><trkpt lat="39.5206293" lon="20.4085962"><ele>37.333333333333336</ele><time>2026-05-03T05:38:26.749Z</time></trkpt><trkpt lat="39.5207125" lon="20.4088274"><ele>40.666666666666664</ele><time>2026-05-03T05:38:27.75Z</time></trkpt><trkpt lat="39.5207948" lon="20.4090614"><ele>44.0</ele><time>2026-05-03T05:38:28.749Z</time></trkpt><trkpt lat="39.5208768" lon="20.4092956"><ele>44.0</ele><time>2026-05-03T05:38:29.75Z</time></trkpt><trkpt lat="39.5209619" lon="20.4095312"><ele>44.0</ele><time>2026-05-03T05:38:30.747Z</time></trkpt><trkpt lat="39.5210476" lon="20.4097635"><ele>44.0</ele><time>2026-05-03T05:38:31.749Z</time></trkpt><trkpt lat="39.5211355" lon="20.4099972"><ele>42.0</ele><time>2026-05-03T05:38:32.75Z</time></trkpt><trkpt lat="39.5212224" lon="20.4102246"><ele>40.0</ele><time>2026-05-03T05:38:33.75Z</time></trkpt><trkpt lat="39.5213067" lon="20.4104485"><ele>38.0</ele><time>2026-05-03T05:38:34.749Z</time></trkpt><trkpt lat="39.5213912" lon="20.4106565"><ele>38.0</ele><time>2026-05-03T05:38:35.748Z</time></trkpt><trkpt lat="39.5214697" lon="20.4108539"><ele>38.0</ele><time>2026-05-03T05:38:36.749Z</time></trkpt><trkpt lat="39.5215446" lon="20.4110399"><ele>38.0</ele><time>2026-05-03T05:38:37.75Z</time></trkpt><trkpt lat="39.5216092" lon="20.4112175"><ele>39.666666666666664</ele><time>2026-05-03T05:38:38.75Z</time></trkpt><trkpt lat="39.5216736" lon="20.4113975"><ele>41.333333333333336</ele><time>2026-05-03T05:38:39.749Z</time></trkpt><trkpt lat="39.5217285" lon="20.4115943"><ele>43.0</ele><time>2026-05-03T05:38:40.749Z</time></trkpt><trkpt lat="39.5217687" lon="20.411791"><ele>43.0</ele><time>2026-05-03T05:38:41.75Z</time></trkpt><trkpt lat="39.5217948" lon="20.4120052"><ele>43.0</ele><time>2026-05-03T05:38:42.75Z</time></trkpt><trkpt lat="39.5217962" lon="20.412222"><ele>43.0</ele><time>2026-05-03T05:38:43.749Z</time></trkpt><trkpt lat="39.5217915" lon="20.4124385"><ele>43.0</ele><time>2026-05-03T05:38:44.748Z</time></trkpt><trkpt lat="39.5217773" lon="20.4126615"><ele>43.0</ele><time>2026-05-03T05:38:45.749Z</time></trkpt><trkpt lat="39.521746" lon="20.4128808"><ele>43.0</ele><time>2026-05-03T05:38:46.749Z</time></trkpt><trkpt lat="39.5217106" lon="20.4131032"><ele>41.66666666666667</ele><time>2026-05-03T05:38:47.75Z</time></trkpt><trkpt lat="39.5216734" lon="20.4133278"><ele>40.333333333333336</ele><time>2026-05-03T05:38:48.749Z</time></trkpt><trkpt lat="39.5216509" lon="20.4135442"><ele>39.0</ele><time>2026-05-03T05:38:49.75Z</time></trkpt><trkpt lat="39.5216433" lon="20.4137729"><ele>40.0</ele><time>2026-05-03T05:38:50.749Z</time></trkpt><trkpt lat="39.5216661" lon="20.4140076"><ele>41.0</ele><time>2026-05-03T05:38:51.748Z</time></trkpt><trkpt lat="39.5216971" lon="20.4142413"><ele>42.0</ele><time>2026-05-03T05:38:52.749Z</time></trkpt><trkpt lat="39.5217336" lon="20.4144704"><ele>44.0</ele><time>2026-05-03T05:38:53.748Z</time></trkpt><trkpt lat="39.5217755" lon="20.4146981"><ele>46.0</ele><time>2026-05-03T05:38:54.746Z</time></trkpt><trkpt lat="39.5218061" lon="20.4149194"><ele>48.0</ele><time>2026-05-03T05:38:55.75Z</time></trkpt><trkpt lat="39.5218282" lon="20.4151476"><ele>48.0</ele><time>2026-05-03T05:38:56.75Z</time></trkpt><trkpt lat="39.5218429" lon="20.4153635"><ele>48.0</ele><time>2026-05-03T05:38:57.75Z</time></trkpt><trkpt lat="39.5218504" lon="20.4155858"><ele>48.0</ele><time>2026-05-03T05:38:58.749Z</time></trkpt><trkpt lat="39.5218447" lon="20.4158119"><ele>47.666666666666664</ele><time>2026-05-03T05:38:59.75Z</time></trkpt><trkpt lat="39.5218297" lon="20.4160571"><ele>47.33333333333333</ele><time>2026-05-03T05:39:00.749Z</time></trkpt><trkpt lat="39.5218093" lon="20.4163055"><ele>47.0</ele><time>2026-05-03T05:39:01.749Z</time></trkpt><trkpt lat="39.5217886" lon="20.4165388"><ele>47.0</ele><time>2026-05-03T05:39:02.748Z</time></trkpt><trkpt lat="39.521768" lon="20.4167762"><ele>47.0</ele><time>2026-05-03T05:39:03.749Z</time></trkpt><trkpt lat="39.5217441" lon="20.4170156"><ele>47.0</ele><time>2026-05-03T05:39:04.749Z</time></trkpt><trkpt lat="39.5217257" lon="20.4172562"><ele>45.0</ele><time>2026-05-03T05:39:05.749Z</time></trkpt><trkpt lat="39.5217074" lon="20.4174926"><ele>43.0</ele><time>2026-05-03T05:39:06.75Z</time></trkpt><trkpt lat="39.5216826" lon="20.4177178"><ele>41.0</ele><time>2026-05-03T05:39:07.749Z</time></trkpt><trkpt lat="39.5216631" lon="20.4179249"><ele>40.0</ele><time>2026-05-03T05:39:08.75Z</time></trkpt><trkpt lat="39.5216412" lon="20.4181146"><ele>39.0</ele><time>2026-05-03T05:39:09.749Z</time></trkpt><trkpt lat="39.5216036" lon="20.418297"><ele>38.0</ele><time>2026-05-03T05:39:10.747Z</time></trkpt><trkpt lat="39.5215423" lon="20.4184793"><ele>37.0</ele><time>2026-05-03T05:39:11.75Z</time></trkpt><trkpt lat="39.5214676" lon="20.418662"><ele>36.0</ele><time>2026-05-03T05:39:12.75Z</time></trkpt><trkpt lat="39.5213809" lon="20.418838"><ele>35.0</ele><time>2026-05-03T05:39:13.75Z</time></trkpt><trkpt lat="39.5212767" lon="20.4190101"><ele>34.0</ele><time>2026-05-03T05:39:14.75Z</time></trkpt><trkpt lat="39.5211711" lon="20.4191852"><ele>36.66666666666667</ele><time>2026-05-03T05:39:15.748Z</time></trkpt><trkpt lat="39.5210539" lon="20.4193628"><ele>39.333333333333336</ele><time>2026-05-03T05:39:16.749Z</time></trkpt><trkpt lat="39.5209377" lon="20.4195407"><ele>42.0</ele><time>2026-05-03T05:39:17.75Z</time></trkpt><trkpt lat="39.5208244" lon="20.4197209"><ele>42.0</ele><time>2026-05-03T05:39:18.75Z</time></trkpt><trkpt lat="39.5207164" lon="20.4199174"><ele>42.0</ele><time>2026-05-03T05:39:19.749Z</time></trkpt><trkpt lat="39.5206053" lon="20.4201261"><ele>42.0</ele><time>2026-05-03T05:39:20.75Z</time></trkpt><trkpt lat="39.5204992" lon="20.4203434"><ele>46.0</ele><time>2026-05-03T05:39:21.749Z</time></trkpt><trkpt lat="39.520394" lon="20.4205593"><ele>50.0</ele><time>2026-05-03T05:39:22.75Z</time></trkpt><trkpt lat="39.5202897" lon="20.4207826"><ele>54.0</ele><time>2026-05-03T05:39:23.749Z</time></trkpt><trkpt lat="39.5201811" lon="20.4209934"><ele>54.0</ele><time>2026-05-03T05:39:24.749Z</time></trkpt><trkpt lat="39.5200856" lon="20.421219"><ele>54.0</ele><time>2026-05-03T05:39:25.749Z</time></trkpt><trkpt lat="39.5199869" lon="20.4214326"><ele>54.0</ele><time>2026-05-03T05:39:26.749Z</time></trkpt><trkpt lat="39.5198938" lon="20.4216501"><ele>49.0</ele><time>2026-05-03T05:39:27.749Z</time></trkpt><trkpt lat="39.519803" lon="20.4218522"><ele>44.0</ele><time>2026-05-03T05:39:28.749Z</time></trkpt><trkpt lat="39.5197186" lon="20.4220419"><ele>39.0</ele><time>2026-05-03T05:39:29.75Z</time></trkpt><trkpt lat="39.5196363" lon="20.4222228"><ele>52.66666666666667</ele><time>2026-05-03T05:39:30.748Z</time></trkpt><trkpt lat="39.5195629" lon="20.4224184"><ele>66.33333333333334</ele><time>2026-05-03T05:39:31.75Z</time></trkpt><trkpt lat="39.5195094" lon="20.4226332"><ele>80.0</ele><time>2026-05-03T05:39:32.749Z</time></trkpt><trkpt lat="39.5194658" lon="20.4228599"><ele>74.0</ele><time>2026-05-03T05:39:33.75Z</time></trkpt><trkpt lat="39.5194378" lon="20.4230929"><ele>68.0</ele><time>2026-05-03T05:39:34.75Z</time></trkpt><trkpt lat="39.5194073" lon="20.4233211"><ele>62.0</ele><time>2026-05-03T05:39:35.75Z</time></trkpt><trkpt lat="39.5193713" lon="20.423543"><ele>62.0</ele><time>2026-05-03T05:39:36.749Z</time></trkpt><trkpt lat="39.519327" lon="20.4237679"><ele>62.0</ele><time>2026-05-03T05:39:37.75Z</time></trkpt><trkpt lat="39.5192747" lon="20.4239827"><ele>62.0</ele><time>2026-05-03T05:39:38.749Z</time></trkpt><trkpt lat="39.5192088" lon="20.4242003"><ele>58.66666666666667</ele><time>2026-05-03T05:39:39.749Z</time></trkpt><trkpt lat="39.519133" lon="20.4244233"><ele>55.33333333333333</ele><time>2026-05-03T05:39:40.749Z</time></trkpt><trkpt lat="39.5190653" lon="20.4246529"><ele>52.0</ele><time>2026-05-03T05:39:41.75Z</time></trkpt><trkpt lat="39.5189971" lon="20.4248818"><ele>49.0</ele><time>2026-05-03T05:39:42.75Z</time></trkpt><trkpt lat="39.5189288" lon="20.4251125"><ele>46.0</ele><time>2026-05-03T05:39:43.748Z</time></trkpt><trkpt lat="39.5188688" lon="20.4253311"><ele>43.0</ele><time>2026-05-03T05:39:44.749Z</time></trkpt><trkpt lat="39.5188137" lon="20.4255517"><ele>41.66666666666667</ele><time>2026-05-03T05:39:45.75Z</time></trkpt><trkpt lat="39.5187701" lon="20.4257852"><ele>40.333333333333336</ele><time>2026-05-03T05:39:46.75Z</time></trkpt><trkpt lat="39.5187469" lon="20.4260282"><ele>39.0</ele><time>2026-05-03T05:39:47.75Z</time></trkpt><trkpt lat="39.5187432" lon="20.4262846"><ele>38.666666666666664</ele><time>2026-05-03T05:39:48.75Z</time></trkpt><trkpt lat="39.5187568" lon="20.4265402"><ele>38.33333333333333</ele><time>2026-05-03T05:39:49.749Z</time></trkpt><trkpt lat="39.5187862" lon="20.426797"><ele>38.0</ele><time>2026-05-03T05:39:50.748Z</time></trkpt><trkpt lat="39.5188215" lon="20.4270533"><ele>38.666666666666664</ele><time>2026-05-03T05:39:51.75Z</time></trkpt><trkpt lat="39.5188644" lon="20.427309"><ele>39.333333333333336</ele><time>2026-05-03T05:39:52.75Z</time></trkpt><trkpt lat="39.5189168" lon="20.4275602"><ele>40.0</ele><time>2026-05-03T05:39:53.749Z</time></trkpt><trkpt lat="39.5189682" lon="20.4278014"><ele>40.66666666666667</ele><time>2026-05-03T05:39:54.75Z</time></trkpt><trkpt lat="39.5190051" lon="20.428036"><ele>41.333333333333336</ele><time>2026-05-03T05:39:55.75Z</time></trkpt><trkpt lat="39.5190389" lon="20.4282666"><ele>42.0</ele><time>2026-05-03T05:39:56.75Z</time></trkpt><trkpt lat="39.5190757" lon="20.4284897"><ele>42.0</ele><time>2026-05-03T05:39:57.75Z</time></trkpt><trkpt lat="39.5191079" lon="20.4287055"><ele>42.0</ele><time>2026-05-03T05:39:58.75Z</time></trkpt><trkpt lat="39.5191429" lon="20.4289059"><ele>42.0</ele><time>2026-05-03T05:39:59.75Z</time></trkpt><trkpt lat="39.5191849" lon="20.4291114"><ele>42.333333333333336</ele><time>2026-05-03T05:40:00.75Z</time></trkpt><trkpt lat="39.5192368" lon="20.4293178"><ele>42.66666666666667</ele><time>2026-05-03T05:40:01.749Z</time></trkpt><trkpt lat="39.5193092" lon="20.4295229"><ele>43.0</ele><time>2026-05-03T05:40:02.75Z</time></trkpt><trkpt lat="39.5193909" lon="20.4297174"><ele>44.66666666666667</ele><time>2026-05-03T05:40:03.749Z</time></trkpt><trkpt lat="39.519488" lon="20.4298987"><ele>46.333333333333336</ele><time>2026-05-03T05:40:04.749Z</time></trkpt><trkpt lat="39.5195958" lon="20.430081"><ele>48.0</ele><time>2026-05-03T05:40:05.75Z</time></trkpt><trkpt lat="39.5197193" lon="20.4302343"><ele>48.0</ele><time>2026-05-03T05:40:06.748Z</time></trkpt><trkpt lat="39.5198551" lon="20.4303675"><ele>48.0</ele><time>2026-05-03T05:40:07.749Z</time></trkpt><trkpt lat="39.5199994" lon="20.4304902"><ele>48.0</ele><time>2026-05-03T05:40:08.75Z</time></trkpt><trkpt lat="39.5201553" lon="20.4305961"><ele>48.66666666666667</ele><time>2026-05-03T05:40:09.75Z</time></trkpt><trkpt lat="39.5203056" lon="20.4306894"><ele>49.333333333333336</ele><time>2026-05-03T05:40:10.749Z</time></trkpt><trkpt lat="39.5204413" lon="20.4307719"><ele>50.0</ele><time>2026-05-03T05:40:11.749Z</time></trkpt><trkpt lat="39.5205742" lon="20.4308542"><ele>50.0</ele><time>2026-05-03T05:40:12.749Z</time></trkpt><trkpt lat="39.5207029" lon="20.4309434"><ele>50.0</ele><time>2026-05-03T05:40:13.75Z</time></trkpt><trkpt lat="39.520821" lon="20.4310387"><ele>50.0</ele><time>2026-05-03T05:40:14.749Z</time></trkpt><trkpt lat="39.5209259" lon="20.4311542"><ele>50.0</ele><time>2026-05-03T05:40:15.749Z</time></trkpt><trkpt lat="39.5210223" lon="20.4312941"><ele>50.5</ele><time>2026-05-03T05:40:16.75Z</time></trkpt><trkpt lat="39.5210995" lon="20.431449"><ele>51.0</ele><time>2026-05-03T05:40:17.749Z</time></trkpt><trkpt lat="39.5211729" lon="20.4316113"><ele>51.5</ele><time>2026-05-03T05:40:18.749Z</time></trkpt><trkpt lat="39.521256" lon="20.4317786"><ele>52.0</ele><time>2026-05-03T05:40:19.749Z</time></trkpt><trkpt lat="39.5213395" lon="20.4319378"><ele>52.5</ele><time>2026-05-03T05:40:20.749Z</time></trkpt><trkpt lat="39.5214328" lon="20.4320836"><ele>53.0</ele><time>2026-05-03T05:40:21.749Z</time></trkpt><trkpt lat="39.5215377" lon="20.4322179"><ele>53.5</ele><time>2026-05-03T05:40:22.75Z</time></trkpt><trkpt lat="39.521653" lon="20.4323475"><ele>54.0</ele><time>2026-05-03T05:40:23.747Z</time></trkpt><trkpt lat="39.521778" lon="20.4324582"><ele>54.0</ele><time>2026-05-03T05:40:24.749Z</time></trkpt><trkpt lat="39.5218987" lon="20.4325524"><ele>54.0</ele><time>2026-05-03T05:40:25.749Z</time></trkpt><trkpt lat="39.522009" lon="20.4326314"><ele>54.0</ele><time>2026-05-03T05:40:26.749Z</time></trkpt><trkpt lat="39.5221079" lon="20.4327134"><ele>54.0</ele><time>2026-05-03T05:40:27.75Z</time></trkpt><trkpt lat="39.5221968" lon="20.4328153"><ele>54.75</ele><time>2026-05-03T05:40:28.749Z</time></trkpt><trkpt lat="39.5222811" lon="20.4329281"><ele>55.5</ele><time>2026-05-03T05:40:29.749Z</time></trkpt><trkpt lat="39.5223632" lon="20.4330557"><ele>56.25</ele><time>2026-05-03T05:40:30.748Z</time></trkpt><trkpt lat="39.5224499" lon="20.433186"><ele>57.0</ele><time>2026-05-03T05:40:31.75Z</time></trkpt><trkpt lat="39.5225489" lon="20.4333066"><ele>57.0</ele><time>2026-05-03T05:40:32.75Z</time></trkpt><trkpt lat="39.5226585" lon="20.4334202"><ele>57.0</ele><time>2026-05-03T05:40:33.749Z</time></trkpt><trkpt lat="39.5227721" lon="20.433529"><ele>57.0</ele><time>2026-05-03T05:40:34.75Z</time></trkpt><trkpt lat="39.5228931" lon="20.4336386"><ele>57.0</ele><time>2026-05-03T05:40:35.749Z</time></trkpt><trkpt lat="39.5230153" lon="20.4337499"><ele>56.0</ele><time>2026-05-03T05:40:36.749Z</time></trkpt><trkpt lat="39.5231404" lon="20.4338609"><ele>55.0</ele><time>2026-05-03T05:40:37.749Z</time></trkpt><trkpt lat="39.5232692" lon="20.4339777"><ele>54.0</ele><time>2026-05-03T05:40:38.749Z</time></trkpt><trkpt lat="39.5234015" lon="20.4340953"><ele>54.0</ele><time>2026-05-03T05:40:39.75Z</time></trkpt><trkpt lat="39.5235344" lon="20.4342154"><ele>54.0</ele><time>2026-05-03T05:40:40.748Z</time></trkpt><trkpt lat="39.5236685" lon="20.4343369"><ele>54.0</ele><time>2026-05-03T05:40:41.75Z</time></trkpt><trkpt lat="39.5238075" lon="20.4344593"><ele>55.0</ele><time>2026-05-03T05:40:42.749Z</time></trkpt><trkpt lat="39.5239486" lon="20.4345806"><ele>56.0</ele><time>2026-05-03T05:40:43.75Z</time></trkpt><trkpt lat="39.5240957" lon="20.4347022"><ele>57.0</ele><time>2026-05-03T05:40:44.749Z</time></trkpt><trkpt lat="39.5242452" lon="20.4348198"><ele>57.0</ele><time>2026-05-03T05:40:45.75Z</time></trkpt><trkpt lat="39.5243962" lon="20.4349305"><ele>57.0</ele><time>2026-05-03T05:40:46.75Z</time></trkpt><trkpt lat="39.5245502" lon="20.4350378"><ele>57.0</ele><time>2026-05-03T05:40:47.75Z</time></trkpt><trkpt lat="39.5247093" lon="20.4351366"><ele>55.33333333333333</ele><time>2026-05-03T05:40:48.75Z</time></trkpt><trkpt lat="39.5248721" lon="20.435226"><ele>53.666666666666664</ele><time>2026-05-03T05:40:49.746Z</time></trkpt><trkpt lat="39.5250348" lon="20.4353099"><ele>52.0</ele><time>2026-05-03T05:40:50.749Z</time></trkpt><trkpt lat="39.5251969" lon="20.4353914"><ele>52.0</ele><time>2026-05-03T05:40:51.749Z</time></trkpt><trkpt lat="39.5253593" lon="20.4354659"><ele>52.0</ele><time>2026-05-03T05:40:52.75Z</time></trkpt><trkpt lat="39.5255221" lon="20.4355374"><ele>52.0</ele><time>2026-05-03T05:40:53.749Z</time></trkpt><trkpt lat="39.5256887" lon="20.4356037"><ele>52.666666666666664</ele><time>2026-05-03T05:40:54.75Z</time></trkpt><trkpt lat="39.5258605" lon="20.435665"><ele>53.33333333333333</ele><time>2026-05-03T05:40:55.75Z</time></trkpt><trkpt lat="39.5260358" lon="20.4357268"><ele>54.0</ele><time>2026-05-03T05:40:56.748Z</time></trkpt><trkpt lat="39.526215" lon="20.4357965"><ele>53.33333333333333</ele><time>2026-05-03T05:40:57.749Z</time></trkpt><trkpt lat="39.5263958" lon="20.4358686"><ele>52.666666666666664</ele><time>2026-05-03T05:40:58.749Z</time></trkpt><trkpt lat="39.5265771" lon="20.4359387"><ele>52.0</ele><time>2026-05-03T05:40:59.75Z</time></trkpt><trkpt lat="39.5267588" lon="20.4360043"><ele>52.0</ele><time>2026-05-03T05:41:00.749Z</time></trkpt><trkpt lat="39.52694" lon="20.4360709"><ele>52.0</ele><time>2026-05-03T05:41:01.75Z</time></trkpt><trkpt lat="39.5271182" lon="20.4361432"><ele>52.0</ele><time>2026-05-03T05:41:02.748Z</time></trkpt><trkpt lat="39.5273016" lon="20.4362197"><ele>51.0</ele><time>2026-05-03T05:41:03.747Z</time></trkpt><trkpt lat="39.5274797" lon="20.4363019"><ele>50.0</ele><time>2026-05-03T05:41:04.75Z</time></trkpt><trkpt lat="39.5276567" lon="20.4363852"><ele>49.0</ele><time>2026-05-03T05:41:05.746Z</time></trkpt><trkpt lat="39.5278317" lon="20.4364672"><ele>51.0</ele><time>2026-05-03T05:41:06.75Z</time></trkpt><trkpt lat="39.5280036" lon="20.4365595"><ele>53.0</ele><time>2026-05-03T05:41:07.745Z</time></trkpt><trkpt lat="39.528175" lon="20.4366611"><ele>55.0</ele><time>2026-05-03T05:41:08.75Z</time></trkpt><trkpt lat="39.5283431" lon="20.4367611"><ele>55.0</ele><time>2026-05-03T05:41:09.75Z</time></trkpt><trkpt lat="39.528513" lon="20.4368605"><ele>55.0</ele><time>2026-05-03T05:41:10.749Z</time></trkpt><trkpt lat="39.5286845" lon="20.4369641"><ele>55.0</ele><time>2026-05-03T05:41:11.749Z</time></trkpt><trkpt lat="39.5288605" lon="20.4370682"><ele>59.0</ele><time>2026-05-03T05:41:12.749Z</time></trkpt><trkpt lat="39.5290225" lon="20.4371744"><ele>63.0</ele><time>2026-05-03T05:41:13.75Z</time></trkpt><trkpt lat="39.5291818" lon="20.4372786"><ele>67.0</ele><time>2026-05-03T05:41:14.749Z</time></trkpt><trkpt lat="39.5293533" lon="20.4373743"><ele>67.0</ele><time>2026-05-03T05:41:15.747Z</time></trkpt><trkpt lat="39.5295218" lon="20.4374691"><ele>67.0</ele><time>2026-05-03T05:41:16.75Z</time></trkpt><trkpt lat="39.5296969" lon="20.4375736"><ele>67.0</ele><time>2026-05-03T05:41:17.748Z</time></trkpt><trkpt lat="39.5298719" lon="20.4376699"><ele>65.33333333333333</ele><time>2026-05-03T05:41:18.749Z</time></trkpt><trkpt lat="39.5300476" lon="20.4377708"><ele>63.66666666666667</ele><time>2026-05-03T05:41:19.749Z</time></trkpt><trkpt lat="39.5302164" lon="20.4378726"><ele>62.0</ele><time>2026-05-03T05:41:20.75Z</time></trkpt><trkpt lat="39.5303939" lon="20.4379761"><ele>62.0</ele><time>2026-05-03T05:41:21.746Z</time></trkpt><trkpt lat="39.5305689" lon="20.438074"><ele>62.0</ele><time>2026-05-03T05:41:22.749Z</time></trkpt><trkpt lat="39.5307475" lon="20.4381863"><ele>62.0</ele><time>2026-05-03T05:41:23.75Z</time></trkpt><trkpt lat="39.530913" lon="20.4382939"><ele>62.0</ele><time>2026-05-03T05:41:24.75Z</time></trkpt><trkpt lat="39.531069" lon="20.4384046"><ele>62.0</ele><time>2026-05-03T05:41:25.75Z</time></trkpt><trkpt lat="39.5312145" lon="20.4385191"><ele>62.0</ele><time>2026-05-03T05:41:26.749Z</time></trkpt><trkpt lat="39.5313315" lon="20.4386438"><ele>60.25</ele><time>2026-05-03T05:41:27.749Z</time></trkpt><trkpt lat="39.5314373" lon="20.4387789"><ele>58.5</ele><time>2026-05-03T05:41:28.75Z</time></trkpt><trkpt lat="39.5315142" lon="20.438933"><ele>56.75</ele><time>2026-05-03T05:41:29.748Z</time></trkpt><trkpt lat="39.531558" lon="20.4391027"><ele>55.0</ele><time>2026-05-03T05:41:30.75Z</time></trkpt><trkpt lat="39.5315711" lon="20.4392779"><ele>55.0</ele><time>2026-05-03T05:41:31.75Z</time></trkpt><trkpt lat="39.531554" lon="20.4394658"><ele>55.0</ele><time>2026-05-03T05:41:32.75Z</time></trkpt><trkpt lat="39.5315276" lon="20.4396589"><ele>55.0</ele><time>2026-05-03T05:41:33.75Z</time></trkpt><trkpt lat="39.5315009" lon="20.4398589"><ele>54.33333333333333</ele><time>2026-05-03T05:41:34.748Z</time></trkpt><trkpt lat="39.5314699" lon="20.4400673"><ele>53.66666666666667</ele><time>2026-05-03T05:41:35.749Z</time></trkpt><trkpt lat="39.5314401" lon="20.4402836"><ele>53.0</ele><time>2026-05-03T05:41:36.75Z</time></trkpt><trkpt lat="39.5314177" lon="20.4405052"><ele>52.333333333333336</ele><time>2026-05-03T05:41:37.749Z</time></trkpt><trkpt lat="39.5314015" lon="20.4407273"><ele>51.66666666666667</ele><time>2026-05-03T05:41:38.75Z</time></trkpt><trkpt lat="39.5313901" lon="20.440949"><ele>51.0</ele><time>2026-05-03T05:41:39.75Z</time></trkpt><trkpt lat="39.5313928" lon="20.441174"><ele>50.33333333333333</ele><time>2026-05-03T05:41:40.748Z</time></trkpt><trkpt lat="39.5314133" lon="20.4414029"><ele>49.666666666666664</ele><time>2026-05-03T05:41:41.75Z</time></trkpt><trkpt lat="39.5314513" lon="20.4416254"><ele>49.0</ele><time>2026-05-03T05:41:42.75Z</time></trkpt><trkpt lat="39.5314995" lon="20.4418471"><ele>49.0</ele><time>2026-05-03T05:41:43.749Z</time></trkpt><trkpt lat="39.5315486" lon="20.4420687"><ele>49.0</ele><time>2026-05-03T05:41:44.748Z</time></trkpt><trkpt lat="39.5316021" lon="20.4422923"><ele>49.0</ele><time>2026-05-03T05:41:45.75Z</time></trkpt><trkpt lat="39.5316587" lon="20.4425156"><ele>49.33333333333333</ele><time>2026-05-03T05:41:46.75Z</time></trkpt><trkpt lat="39.5317197" lon="20.4427333"><ele>49.66666666666667</ele><time>2026-05-03T05:41:47.75Z</time></trkpt><trkpt lat="39.5317982" lon="20.4429397"><ele>50.0</ele><time>2026-05-03T05:41:48.749Z</time></trkpt><trkpt lat="39.5318904" lon="20.4431385"><ele>48.66666666666667</ele><time>2026-05-03T05:41:49.75Z</time></trkpt><trkpt lat="39.5319975" lon="20.443319"><ele>47.333333333333336</ele><time>2026-05-03T05:41:50.75Z</time></trkpt><trkpt lat="39.5321205" lon="20.4434864"><ele>46.0</ele><time>2026-05-03T05:41:51.75Z</time></trkpt><trkpt lat="39.5322564" lon="20.4436402"><ele>46.0</ele><time>2026-05-03T05:41:52.748Z</time></trkpt><trkpt lat="39.5324043" lon="20.4437853"><ele>46.0</ele><time>2026-05-03T05:41:53.748Z</time></trkpt><trkpt lat="39.5325509" lon="20.4439206"><ele>46.0</ele><time>2026-05-03T05:41:54.749Z</time></trkpt><trkpt lat="39.5326982" lon="20.4440536"><ele>46.0</ele><time>2026-05-03T05:41:55.75Z</time></trkpt><trkpt lat="39.5328356" lon="20.444201"><ele>46.0</ele><time>2026-05-03T05:41:56.75Z</time></trkpt><trkpt lat="39.5329637" lon="20.444356"><ele>46.0</ele><time>2026-05-03T05:41:57.75Z</time></trkpt><trkpt lat="39.5330837" lon="20.444526"><ele>47.66666666666667</ele><time>2026-05-03T05:41:58.749Z</time></trkpt><trkpt lat="39.5331928" lon="20.4447138"><ele>49.333333333333336</ele><time>2026-05-03T05:41:59.75Z</time></trkpt><trkpt lat="39.5332897" lon="20.4449164"><ele>51.0</ele><time>2026-05-03T05:42:00.75Z</time></trkpt><trkpt lat="39.5333833" lon="20.4451284"><ele>51.0</ele><time>2026-05-03T05:42:01.75Z</time></trkpt><trkpt lat="39.5334777" lon="20.4453413"><ele>51.0</ele><time>2026-05-03T05:42:02.75Z</time></trkpt><trkpt lat="39.5335754" lon="20.4455575"><ele>51.0</ele><time>2026-05-03T05:42:03.749Z</time></trkpt><trkpt lat="39.5336736" lon="20.4457695"><ele>48.0</ele><time>2026-05-03T05:42:04.748Z</time></trkpt><trkpt lat="39.5337767" lon="20.4459741"><ele>45.0</ele><time>2026-05-03T05:42:05.75Z</time></trkpt><trkpt lat="39.5338906" lon="20.4461632"><ele>42.0</ele><time>2026-05-03T05:42:06.749Z</time></trkpt><trkpt lat="39.5340236" lon="20.4463284"><ele>48.0</ele><time>2026-05-03T05:42:07.749Z</time></trkpt><trkpt lat="39.5341764" lon="20.4464668"><ele>54.0</ele><time>2026-05-03T05:42:08.75Z</time></trkpt><trkpt lat="39.5343497" lon="20.4465896"><ele>60.0</ele><time>2026-05-03T05:42:09.747Z</time></trkpt><trkpt lat="39.5345346" lon="20.4466998"><ele>56.0</ele><time>2026-05-03T05:42:10.75Z</time></trkpt><trkpt lat="39.5347281" lon="20.4467999"><ele>52.0</ele><time>2026-05-03T05:42:11.75Z</time></trkpt><trkpt lat="39.534931" lon="20.4468964"><ele>48.0</ele><time>2026-05-03T05:42:12.749Z</time></trkpt><trkpt lat="39.5351411" lon="20.4469957"><ele>48.0</ele><time>2026-05-03T05:42:13.748Z</time></trkpt><trkpt lat="39.5353366" lon="20.4470933"><ele>48.0</ele><time>2026-05-03T05:42:14.75Z</time></trkpt><trkpt lat="39.5355362" lon="20.4471916"><ele>48.0</ele><time>2026-05-03T05:42:15.75Z</time></trkpt><trkpt lat="39.5357381" lon="20.4472949"><ele>49.33333333333333</ele><time>2026-05-03T05:42:16.75Z</time></trkpt><trkpt lat="39.5359379" lon="20.4473983"><ele>50.666666666666664</ele><time>2026-05-03T05:42:17.75Z</time></trkpt><trkpt lat="39.5361349" lon="20.4474978"><ele>52.0</ele><time>2026-05-03T05:42:18.75Z</time></trkpt><trkpt lat="39.5363327" lon="20.4475971"><ele>52.0</ele><time>2026-05-03T05:42:19.749Z</time></trkpt><trkpt lat="39.5365264" lon="20.4477015"><ele>52.0</ele><time>2026-05-03T05:42:20.75Z</time></trkpt><trkpt lat="39.5367198" lon="20.4477996"><ele>52.0</ele><time>2026-05-03T05:42:21.749Z</time></trkpt><trkpt lat="39.5369038" lon="20.4478878"><ele>57.0</ele><time>2026-05-03T05:42:22.749Z</time></trkpt><trkpt lat="39.5370887" lon="20.4479758"><ele>62.0</ele><time>2026-05-03T05:42:23.75Z</time></trkpt><trkpt lat="39.5372693" lon="20.448066"><ele>67.0</ele><time>2026-05-03T05:42:24.75Z</time></trkpt><trkpt lat="39.5374516" lon="20.4481629"><ele>67.0</ele><time>2026-05-03T05:42:25.75Z</time></trkpt><trkpt lat="39.5376236" lon="20.4482789"><ele>67.0</ele><time>2026-05-03T05:42:26.75Z</time></trkpt><trkpt lat="39.5377931" lon="20.4484156"><ele>67.0</ele><time>2026-05-03T05:42:27.749Z</time></trkpt><trkpt lat="39.5379571" lon="20.4485656"><ele>66.66666666666666</ele><time>2026-05-03T05:42:28.749Z</time></trkpt><trkpt lat="39.5381185" lon="20.4487294"><ele>66.33333333333333</ele><time>2026-05-03T05:42:29.749Z</time></trkpt><trkpt lat="39.538275" lon="20.4489012"><ele>66.0</ele><time>2026-05-03T05:42:30.747Z</time></trkpt><trkpt lat="39.5384312" lon="20.4490704"><ele>66.0</ele><time>2026-05-03T05:42:31.749Z</time></trkpt><trkpt lat="39.5385872" lon="20.4492409"><ele>66.0</ele><time>2026-05-03T05:42:32.749Z</time></trkpt><trkpt lat="39.5387422" lon="20.4494089"><ele>66.0</ele><time>2026-05-03T05:42:33.749Z</time></trkpt><trkpt lat="39.5388972" lon="20.449575"><ele>67.0</ele><time>2026-05-03T05:42:34.749Z</time></trkpt><trkpt lat="39.5390526" lon="20.4497414"><ele>68.0</ele><time>2026-05-03T05:42:35.749Z</time></trkpt><trkpt lat="39.5392075" lon="20.4499083"><ele>69.0</ele><time>2026-05-03T05:42:36.75Z</time></trkpt><trkpt lat="39.5393597" lon="20.4500742"><ele>69.0</ele><time>2026-05-03T05:42:37.749Z</time></trkpt><trkpt lat="39.5395172" lon="20.4502367"><ele>69.0</ele><time>2026-05-03T05:42:38.75Z</time></trkpt><trkpt lat="39.5396831" lon="20.4503964"><ele>69.0</ele><time>2026-05-03T05:42:39.75Z</time></trkpt><trkpt lat="39.5398589" lon="20.4505406"><ele>67.33333333333333</ele><time>2026-05-03T05:42:40.749Z</time></trkpt><trkpt lat="39.5400476" lon="20.4506686"><ele>65.66666666666666</ele><time>2026-05-03T05:42:41.75Z</time></trkpt><trkpt lat="39.5402475" lon="20.4507859"><ele>64.0</ele><time>2026-05-03T05:42:42.749Z</time></trkpt><trkpt lat="39.5404516" lon="20.4508953"><ele>64.0</ele><time>2026-05-03T05:42:43.75Z</time></trkpt><trkpt lat="39.5406638" lon="20.4510003"><ele>64.0</ele><time>2026-05-03T05:42:44.75Z</time></trkpt><trkpt lat="39.5408755" lon="20.4511006"><ele>64.0</ele><time>2026-05-03T05:42:45.749Z</time></trkpt><trkpt lat="39.5410887" lon="20.4512012"><ele>64.0</ele><time>2026-05-03T05:42:46.75Z</time></trkpt><trkpt lat="39.5413035" lon="20.4513057"><ele>73.0</ele><time>2026-05-03T05:42:47.75Z</time></trkpt><trkpt lat="39.5415166" lon="20.4514165"><ele>82.0</ele><time>2026-05-03T05:42:48.75Z</time></trkpt><trkpt lat="39.5417267" lon="20.45152"><ele>82.0</ele><time>2026-05-03T05:42:49.75Z</time></trkpt><trkpt lat="39.5419303" lon="20.4516201"><ele>82.0</ele><time>2026-05-03T05:42:50.749Z</time></trkpt><trkpt lat="39.5421214" lon="20.4517186"><ele>82.0</ele><time>2026-05-03T05:42:51.749Z</time></trkpt><trkpt lat="39.5422991" lon="20.4518076"><ele>75.66666666666666</ele><time>2026-05-03T05:42:52.75Z</time></trkpt><trkpt lat="39.5424608" lon="20.4518909"><ele>69.33333333333333</ele><time>2026-05-03T05:42:53.75Z</time></trkpt><trkpt lat="39.5426093" lon="20.4519745"><ele>63.0</ele><time>2026-05-03T05:42:54.75Z</time></trkpt><trkpt lat="39.5427413" lon="20.4520642"><ele>64.25</ele><time>2026-05-03T05:42:55.749Z</time></trkpt><trkpt lat="39.5428525" lon="20.4521691"><ele>65.5</ele><time>2026-05-03T05:42:56.749Z</time></trkpt><trkpt lat="39.5429473" lon="20.4522932"><ele>66.75</ele><time>2026-05-03T05:42:57.749Z</time></trkpt><trkpt lat="39.5430121" lon="20.4524395"><ele>68.0</ele><time>2026-05-03T05:42:58.749Z</time></trkpt><trkpt lat="39.5430519" lon="20.4525998"><ele>68.0</ele><time>2026-05-03T05:42:59.749Z</time></trkpt><trkpt lat="39.5430431" lon="20.4527648"><ele>68.0</ele><time>2026-05-03T05:43:00.75Z</time></trkpt><trkpt lat="39.543007" lon="20.4529204"><ele>68.0</ele><time>2026-05-03T05:43:01.75Z</time></trkpt><trkpt lat="39.5429371" lon="20.4530602"><ele>68.0</ele><time>2026-05-03T05:43:02.75Z</time></trkpt><trkpt lat="39.5428491" lon="20.453191"><ele>75.33333333333334</ele><time>2026-05-03T05:43:03.75Z</time></trkpt><trkpt lat="39.5427263" lon="20.4533016"><ele>82.66666666666667</ele><time>2026-05-03T05:43:04.749Z</time></trkpt><trkpt lat="39.5425849" lon="20.4533981"><ele>90.0</ele><time>2026-05-03T05:43:05.75Z</time></trkpt><trkpt lat="39.5424335" lon="20.4534838"><ele>90.0</ele><time>2026-05-03T05:43:06.749Z</time></trkpt><trkpt lat="39.5422731" lon="20.4535513"><ele>90.0</ele><time>2026-05-03T05:43:07.75Z</time></trkpt><trkpt lat="39.5421128" lon="20.4536044"><ele>90.0</ele><time>2026-05-03T05:43:08.749Z</time></trkpt><trkpt lat="39.5419602" lon="20.4536332"><ele>90.5</ele><time>2026-05-03T05:43:09.748Z</time></trkpt><trkpt lat="39.5418153" lon="20.4536452"><ele>91.0</ele><time>2026-05-03T05:43:10.75Z</time></trkpt><trkpt lat="39.5416875" lon="20.453673"><ele>91.5</ele><time>2026-05-03T05:43:11.75Z</time></trkpt><trkpt lat="39.5415792" lon="20.4537262"><ele>92.0</ele><time>2026-05-03T05:43:12.75Z</time></trkpt><trkpt lat="39.5414929" lon="20.4538063"><ele>92.0</ele><time>2026-05-03T05:43:13.749Z</time></trkpt><trkpt lat="39.5414321" lon="20.4539154"><ele>92.0</ele><time>2026-05-03T05:43:14.749Z</time></trkpt><trkpt lat="39.541398" lon="20.4540452"><ele>92.0</ele><time>2026-05-03T05:43:15.75Z</time></trkpt><trkpt lat="39.5414058" lon="20.4541922"><ele>92.0</ele><time>2026-05-03T05:43:16.749Z</time></trkpt><trkpt lat="39.5414169" lon="20.4543452"><ele>92.0</ele><time>2026-05-03T05:43:17.75Z</time></trkpt><trkpt lat="39.541488" lon="20.4544797"><ele>92.0</ele><time>2026-05-03T05:43:18.749Z</time></trkpt><trkpt lat="39.5415424" lon="20.454621"><ele>92.0</ele><time>2026-05-03T05:43:19.748Z</time></trkpt><trkpt lat="39.5415957" lon="20.4547761"><ele>92.0</ele><time>2026-05-03T05:43:20.749Z</time></trkpt><trkpt lat="39.5416207" lon="20.4549347"><ele>92.0</ele><time>2026-05-03T05:43:21.749Z</time></trkpt><trkpt lat="39.5416174" lon="20.4551059"><ele>93.25</ele><time>2026-05-03T05:43:22.749Z</time></trkpt><trkpt lat="39.5415817" lon="20.4552793"><ele>94.5</ele><time>2026-05-03T05:43:23.749Z</time></trkpt><trkpt lat="39.541529" lon="20.4554574"><ele>95.75</ele><time>2026-05-03T05:43:24.749Z</time></trkpt><trkpt lat="39.5414605" lon="20.4556314"><ele>97.0</ele><time>2026-05-03T05:43:25.749Z</time></trkpt><trkpt lat="39.5413741" lon="20.4557998"><ele>97.0</ele><time>2026-05-03T05:43:26.747Z</time></trkpt><trkpt lat="39.5412753" lon="20.4559554"><ele>97.0</ele><time>2026-05-03T05:43:27.75Z</time></trkpt><trkpt lat="39.5411625" lon="20.4560958"><ele>97.0</ele><time>2026-05-03T05:43:28.75Z</time></trkpt><trkpt lat="39.5410341" lon="20.4562262"><ele>99.66666666666667</ele><time>2026-05-03T05:43:29.748Z</time></trkpt><trkpt lat="39.5408872" lon="20.4563473"><ele>102.33333333333334</ele><time>2026-05-03T05:43:30.749Z</time></trkpt><trkpt lat="39.5407178" lon="20.4564578"><ele>105.0</ele><time>2026-05-03T05:43:31.75Z</time></trkpt><trkpt lat="39.5405486" lon="20.4565591"><ele>111.66666666666666</ele><time>2026-05-03T05:43:32.75Z</time></trkpt><trkpt lat="39.5403731" lon="20.4566547"><ele>118.33333333333333</ele><time>2026-05-03T05:43:33.75Z</time></trkpt><trkpt lat="39.5401868" lon="20.4567489"><ele>125.0</ele><time>2026-05-03T05:43:34.75Z</time></trkpt><trkpt lat="39.5399948" lon="20.4568421"><ele>125.0</ele><time>2026-05-03T05:43:35.749Z</time></trkpt><trkpt lat="39.5398112" lon="20.456929"><ele>125.0</ele><time>2026-05-03T05:43:36.749Z</time></trkpt><trkpt lat="39.5396258" lon="20.457013"><ele>125.0</ele><time>2026-05-03T05:43:37.749Z</time></trkpt><trkpt lat="39.5394415" lon="20.4570953"><ele>122.0</ele><time>2026-05-03T05:43:38.749Z</time></trkpt><trkpt lat="39.5392537" lon="20.4571842"><ele>119.0</ele><time>2026-05-03T05:43:39.75Z</time></trkpt><trkpt lat="39.5390709" lon="20.4572802"><ele>116.0</ele><time>2026-05-03T05:43:40.749Z</time></trkpt><trkpt lat="39.5388931" lon="20.4573824"><ele>116.0</ele><time>2026-05-03T05:43:41.75Z</time></trkpt><trkpt lat="39.5387258" lon="20.4574928"><ele>116.0</ele><time>2026-05-03T05:43:42.748Z</time></trkpt><trkpt lat="39.5385539" lon="20.4576056"><ele>116.0</ele><time>2026-05-03T05:43:43.75Z</time></trkpt><trkpt lat="39.5383825" lon="20.457725"><ele>118.0</ele><time>2026-05-03T05:43:44.749Z</time></trkpt><trkpt lat="39.538213" lon="20.4578384"><ele>120.0</ele><time>2026-05-03T05:43:45.749Z</time></trkpt><trkpt lat="39.5380442" lon="20.4579475"><ele>122.0</ele><time>2026-05-03T05:43:46.75Z</time></trkpt><trkpt lat="39.5378801" lon="20.4580631"><ele>124.66666666666666</ele><time>2026-05-03T05:43:47.749Z</time></trkpt><trkpt lat="39.5377179" lon="20.4581847"><ele>127.33333333333334</ele><time>2026-05-03T05:43:48.75Z</time></trkpt><trkpt lat="39.5375585" lon="20.4583072"><ele>130.0</ele><time>2026-05-03T05:43:49.748Z</time></trkpt><trkpt lat="39.5373992" lon="20.4584353"><ele>130.0</ele><time>2026-05-03T05:43:50.75Z</time></trkpt><trkpt lat="39.5372405" lon="20.4585679"><ele>130.0</ele><time>2026-05-03T05:43:51.747Z</time></trkpt><trkpt lat="39.5370932" lon="20.4586923"><ele>130.0</ele><time>2026-05-03T05:43:52.75Z</time></trkpt><trkpt lat="39.5369562" lon="20.4588048"><ele>132.75</ele><time>2026-05-03T05:43:53.746Z</time></trkpt><trkpt lat="39.5368333" lon="20.4589122"><ele>135.5</ele><time>2026-05-03T05:43:54.75Z</time></trkpt><trkpt lat="39.5367222" lon="20.4590219"><ele>138.25</ele><time>2026-05-03T05:43:55.749Z</time></trkpt><trkpt lat="39.5366236" lon="20.4591424"><ele>141.0</ele><time>2026-05-03T05:43:56.75Z</time></trkpt><trkpt lat="39.5365395" lon="20.4592803"><ele>141.0</ele><time>2026-05-03T05:43:57.75Z</time></trkpt><trkpt lat="39.5364727" lon="20.4594313"><ele>141.0</ele><time>2026-05-03T05:43:58.75Z</time></trkpt><trkpt lat="39.5364321" lon="20.4595914"><ele>141.0</ele><time>2026-05-03T05:43:59.747Z</time></trkpt><trkpt lat="39.53642" lon="20.4597631"><ele>141.0</ele><time>2026-05-03T05:44:00.749Z</time></trkpt><trkpt lat="39.5364407" lon="20.4599384"><ele>141.66666666666666</ele><time>2026-05-03T05:44:01.749Z</time></trkpt><trkpt lat="39.5364885" lon="20.4601134"><ele>142.33333333333331</ele><time>2026-05-03T05:44:02.75Z</time></trkpt><trkpt lat="39.5365511" lon="20.4602938"><ele>143.0</ele><time>2026-05-03T05:44:03.749Z</time></trkpt><trkpt lat="39.5366169" lon="20.4604789"><ele>145.66666666666666</ele><time>2026-05-03T05:44:04.749Z</time></trkpt><trkpt lat="39.536684" lon="20.4606749"><ele>148.33333333333334</ele><time>2026-05-03T05:44:05.75Z</time></trkpt><trkpt lat="39.5367474" lon="20.4608755"><ele>151.0</ele><time>2026-05-03T05:44:06.75Z</time></trkpt><trkpt lat="39.5368106" lon="20.46108"><ele>153.66666666666669</ele><time>2026-05-03T05:44:07.749Z</time></trkpt><trkpt lat="39.5368737" lon="20.4612871"><ele>156.33333333333334</ele><time>2026-05-03T05:44:08.746Z</time></trkpt><trkpt lat="39.5369314" lon="20.4615021"><ele>159.0</ele><time>2026-05-03T05:44:09.749Z</time></trkpt><trkpt lat="39.5369843" lon="20.461723"><ele>159.0</ele><time>2026-05-03T05:44:10.749Z</time></trkpt><trkpt lat="39.5370234" lon="20.4619581"><ele>159.0</ele><time>2026-05-03T05:44:11.749Z</time></trkpt><trkpt lat="39.5370656" lon="20.4621842"><ele>159.0</ele><time>2026-05-03T05:44:12.747Z</time></trkpt><trkpt lat="39.5370931" lon="20.4624205"><ele>159.0</ele><time>2026-05-03T05:44:13.749Z</time></trkpt><trkpt lat="39.5371226" lon="20.4626506"><ele>159.0</ele><time>2026-05-03T05:44:14.75Z</time></trkpt><trkpt lat="39.5371377" lon="20.4628439"><ele>159.0</ele><time>2026-05-03T05:44:15.75Z</time></trkpt><trkpt lat="39.5371601" lon="20.4630399"><ele>159.0</ele><time>2026-05-03T05:44:16.75Z</time></trkpt><trkpt lat="39.5371896" lon="20.463218"><ele>159.0</ele><time>2026-05-03T05:44:17.749Z</time></trkpt><trkpt lat="39.5372329" lon="20.4633769"><ele>159.0</ele><time>2026-05-03T05:44:18.75Z</time></trkpt><trkpt lat="39.5372884" lon="20.4635141"><ele>159.0</ele><time>2026-05-03T05:44:19.749Z</time></trkpt><trkpt lat="39.5373578" lon="20.4636253"><ele>159.0</ele><time>2026-05-03T05:44:20.747Z</time></trkpt><trkpt lat="39.5374428" lon="20.4637048"><ele>159.0</ele><time>2026-05-03T05:44:21.748Z</time></trkpt><trkpt lat="39.5375413" lon="20.4637425"><ele>159.0</ele><time>2026-05-03T05:44:22.75Z</time></trkpt><trkpt lat="39.5376496" lon="20.4637375"><ele>159.0</ele><time>2026-05-03T05:44:23.749Z</time></trkpt><trkpt lat="39.5377629" lon="20.4636863"><ele>159.0</ele><time>2026-05-03T05:44:24.749Z</time></trkpt><trkpt lat="39.5378759" lon="20.4636002"><ele>162.0</ele><time>2026-05-03T05:44:25.75Z</time></trkpt><trkpt lat="39.537981" lon="20.4634898"><ele>165.0</ele><time>2026-05-03T05:44:26.75Z</time></trkpt><trkpt lat="39.5380859" lon="20.4633737"><ele>168.0</ele><time>2026-05-03T05:44:27.749Z</time></trkpt><trkpt lat="39.5381867" lon="20.4632769"><ele>171.0</ele><time>2026-05-03T05:44:28.749Z</time></trkpt><trkpt lat="39.5382982" lon="20.4631901"><ele>171.0</ele><time>2026-05-03T05:44:29.748Z</time></trkpt><trkpt lat="39.5384201" lon="20.4631287"><ele>171.0</ele><time>2026-05-03T05:44:30.747Z</time></trkpt><trkpt lat="39.5385519" lon="20.4630899"><ele>171.0</ele><time>2026-05-03T05:44:31.749Z</time></trkpt><trkpt lat="39.5386866" lon="20.4630706"><ele>171.0</ele><time>2026-05-03T05:44:32.749Z</time></trkpt><trkpt lat="39.5388144" lon="20.4630958"><ele>171.25</ele><time>2026-05-03T05:44:33.749Z</time></trkpt><trkpt lat="39.5389333" lon="20.4631233"><ele>171.5</ele><time>2026-05-03T05:44:34.75Z</time></trkpt><trkpt lat="39.5390619" lon="20.4631733"><ele>171.75</ele><time>2026-05-03T05:44:35.75Z</time></trkpt><trkpt lat="39.5391886" lon="20.4632722"><ele>172.0</ele><time>2026-05-03T05:44:36.749Z</time></trkpt><trkpt lat="39.539298" lon="20.4633989"><ele>172.0</ele><time>2026-05-03T05:44:37.749Z</time></trkpt><trkpt lat="39.5393982" lon="20.46354"><ele>172.0</ele><time>2026-05-03T05:44:38.748Z</time></trkpt><trkpt lat="39.5394908" lon="20.4637053"><ele>172.0</ele><time>2026-05-03T05:44:39.749Z</time></trkpt><trkpt lat="39.5395718" lon="20.4639017"><ele>173.0</ele><time>2026-05-03T05:44:40.749Z</time></trkpt><trkpt lat="39.5396474" lon="20.4641002"><ele>174.0</ele><time>2026-05-03T05:44:41.747Z</time></trkpt><trkpt lat="39.5397224" lon="20.4642984"><ele>175.0</ele><time>2026-05-03T05:44:42.749Z</time></trkpt><trkpt lat="39.5397712" lon="20.4645021"><ele>176.33333333333334</ele><time>2026-05-03T05:44:43.746Z</time></trkpt><trkpt lat="39.5398064" lon="20.4646981"><ele>177.66666666666666</ele><time>2026-05-03T05:44:44.75Z</time></trkpt><trkpt lat="39.5398213" lon="20.4649115"><ele>179.0</ele><time>2026-05-03T05:44:45.748Z</time></trkpt><trkpt lat="39.5398169" lon="20.4651362"><ele>179.0</ele><time>2026-05-03T05:44:46.748Z</time></trkpt><trkpt lat="39.539798" lon="20.4653681"><ele>179.0</ele><time>2026-05-03T05:44:47.749Z</time></trkpt><trkpt lat="39.5397684" lon="20.4656071"><ele>179.0</ele><time>2026-05-03T05:44:48.748Z</time></trkpt><trkpt lat="39.5397224" lon="20.4658319"><ele>180.0</ele><time>2026-05-03T05:44:49.747Z</time></trkpt><trkpt lat="39.5396778" lon="20.4660477"><ele>181.0</ele><time>2026-05-03T05:44:50.748Z</time></trkpt><trkpt lat="39.5396333" lon="20.4662642"><ele>182.0</ele><time>2026-05-03T05:44:51.747Z</time></trkpt><trkpt lat="39.5395964" lon="20.4664683"><ele>182.75</ele><time>2026-05-03T05:44:52.75Z</time></trkpt><trkpt lat="39.5395692" lon="20.4666509"><ele>183.5</ele><time>2026-05-03T05:44:53.749Z</time></trkpt><trkpt lat="39.5395505" lon="20.4668164"><ele>184.25</ele><time>2026-05-03T05:44:54.749Z</time></trkpt><trkpt lat="39.5395488" lon="20.4669787"><ele>185.0</ele><time>2026-05-03T05:44:55.747Z</time></trkpt><trkpt lat="39.5395673" lon="20.4671302"><ele>187.75</ele><time>2026-05-03T05:44:56.748Z</time></trkpt><trkpt lat="39.539618" lon="20.4672696"><ele>190.5</ele><time>2026-05-03T05:44:57.747Z</time></trkpt><trkpt lat="39.539701" lon="20.4673793"><ele>193.25</ele><time>2026-05-03T05:44:58.748Z</time></trkpt><trkpt lat="39.5398134" lon="20.4674616"><ele>196.0</ele><time>2026-05-03T05:44:59.748Z</time></trkpt><trkpt lat="39.5399463" lon="20.4675058"><ele>196.0</ele><time>2026-05-03T05:45:00.75Z</time></trkpt><trkpt lat="39.5400967" lon="20.467515"><ele>196.0</ele><time>2026-05-03T05:45:01.749Z</time></trkpt><trkpt lat="39.5402569" lon="20.4675"><ele>196.0</ele><time>2026-05-03T05:45:02.749Z</time></trkpt><trkpt lat="39.5404345" lon="20.467464"><ele>198.0</ele><time>2026-05-03T05:45:03.749Z</time></trkpt><trkpt lat="39.5406237" lon="20.4674239"><ele>200.0</ele><time>2026-05-03T05:45:04.749Z</time></trkpt><trkpt lat="39.5408084" lon="20.4673828"><ele>202.0</ele><time>2026-05-03T05:45:05.746Z</time></trkpt><trkpt lat="39.540994" lon="20.4673432"><ele>202.0</ele><time>2026-05-03T05:45:06.75Z</time></trkpt><trkpt lat="39.5411823" lon="20.4672896"><ele>202.0</ele><time>2026-05-03T05:45:07.749Z</time></trkpt><trkpt lat="39.5413606" lon="20.4672503"><ele>202.0</ele><time>2026-05-03T05:45:08.748Z</time></trkpt><trkpt lat="39.5415352" lon="20.4672088"><ele>201.33333333333331</ele><time>2026-05-03T05:45:09.748Z</time></trkpt><trkpt lat="39.541698" lon="20.4671568"><ele>200.66666666666669</ele><time>2026-05-03T05:45:10.747Z</time></trkpt><trkpt lat="39.5418538" lon="20.4670759"><ele>200.0</ele><time>2026-05-03T05:45:11.748Z</time></trkpt><trkpt lat="39.5420014" lon="20.4669663"><ele>204.33333333333334</ele><time>2026-05-03T05:45:12.75Z</time></trkpt><trkpt lat="39.5421336" lon="20.4668323"><ele>208.66666666666669</ele><time>2026-05-03T05:45:13.749Z</time></trkpt><trkpt lat="39.5422503" lon="20.4667024"><ele>213.0</ele><time>2026-05-03T05:45:14.748Z</time></trkpt><trkpt lat="39.5423534" lon="20.4665801"><ele>213.0</ele><time>2026-05-03T05:45:15.749Z</time></trkpt><trkpt lat="39.5424614" lon="20.4664663"><ele>213.0</ele><time>2026-05-03T05:45:16.748Z</time></trkpt><trkpt lat="39.5425768" lon="20.4663928"><ele>213.0</ele><time>2026-05-03T05:45:17.747Z</time></trkpt><trkpt lat="39.5427046" lon="20.4663571"><ele>213.0</ele><time>2026-05-03T05:45:18.746Z</time></trkpt><trkpt lat="39.5428325" lon="20.4663494"><ele>213.5</ele><time>2026-05-03T05:45:19.748Z</time></trkpt><trkpt lat="39.5429536" lon="20.4663806"><ele>214.0</ele><time>2026-05-03T05:45:20.748Z</time></trkpt><trkpt lat="39.5430618" lon="20.4664426"><ele>214.5</ele><time>2026-05-03T05:45:21.75Z</time></trkpt><trkpt lat="39.5431658" lon="20.4665503"><ele>215.0</ele><time>2026-05-03T05:45:22.749Z</time></trkpt><trkpt lat="39.5432469" lon="20.4666907"><ele>215.0</ele><time>2026-05-03T05:45:23.747Z</time></trkpt><trkpt lat="39.5433034" lon="20.4668623"><ele>215.0</ele><time>2026-05-03T05:45:24.747Z</time></trkpt><trkpt lat="39.5433362" lon="20.4670559"><ele>215.0</ele><time>2026-05-03T05:45:25.75Z</time></trkpt><trkpt lat="39.5433399" lon="20.4672681"><ele>217.33333333333334</ele><time>2026-05-03T05:45:26.75Z</time></trkpt><trkpt lat="39.5433298" lon="20.4674963"><ele>219.66666666666669</ele><time>2026-05-03T05:45:27.749Z</time></trkpt><trkpt lat="39.5433143" lon="20.4677244"><ele>222.0</ele><time>2026-05-03T05:45:28.75Z</time></trkpt><trkpt lat="39.5433" lon="20.4679458"><ele>223.66666666666669</ele><time>2026-05-03T05:45:29.748Z</time></trkpt><trkpt lat="39.543287" lon="20.4681715"><ele>225.33333333333334</ele><time>2026-05-03T05:45:30.749Z</time></trkpt><trkpt lat="39.5432766" lon="20.4683991"><ele>227.0</ele><time>2026-05-03T05:45:31.749Z</time></trkpt><trkpt lat="39.5432824" lon="20.4686272"><ele>229.0</ele><time>2026-05-03T05:45:32.749Z</time></trkpt><trkpt lat="39.543299" lon="20.4688579"><ele>231.0</ele><time>2026-05-03T05:45:33.749Z</time></trkpt><trkpt lat="39.5433331" lon="20.4690764"><ele>233.0</ele><time>2026-05-03T05:45:34.749Z</time></trkpt><trkpt lat="39.543377" lon="20.4692722"><ele>233.0</ele><time>2026-05-03T05:45:35.749Z</time></trkpt><trkpt lat="39.5434326" lon="20.469443"><ele>233.0</ele><time>2026-05-03T05:45:36.75Z</time></trkpt><trkpt lat="39.5435191" lon="20.469569"><ele>233.0</ele><time>2026-05-03T05:45:37.749Z</time></trkpt><trkpt lat="39.5436257" lon="20.469651"><ele>233.0</ele><time>2026-05-03T05:45:38.75Z</time></trkpt><trkpt lat="39.5437522" lon="20.4696842"><ele>233.0</ele><time>2026-05-03T05:45:39.747Z</time></trkpt><trkpt lat="39.5438782" lon="20.4696716"><ele>233.0</ele><time>2026-05-03T05:45:40.75Z</time></trkpt><trkpt lat="39.5439947" lon="20.4696086"><ele>233.0</ele><time>2026-05-03T05:45:41.748Z</time></trkpt><trkpt lat="39.544099" lon="20.4694896"><ele>233.0</ele><time>2026-05-03T05:45:42.749Z</time></trkpt><trkpt lat="39.5441968" lon="20.4693469"><ele>233.0</ele><time>2026-05-03T05:45:43.75Z</time></trkpt><trkpt lat="39.5442972" lon="20.4691789"><ele>233.0</ele><time>2026-05-03T05:45:44.747Z</time></trkpt><trkpt lat="39.544397" lon="20.4690173"><ele>233.0</ele><time>2026-05-03T05:45:45.749Z</time></trkpt><trkpt lat="39.5445123" lon="20.4688423"><ele>234.33333333333334</ele><time>2026-05-03T05:45:46.749Z</time></trkpt><trkpt lat="39.5446327" lon="20.4686817"><ele>235.66666666666669</ele><time>2026-05-03T05:45:47.75Z</time></trkpt><trkpt lat="39.5447594" lon="20.4685272"><ele>237.0</ele><time>2026-05-03T05:45:48.75Z</time></trkpt><trkpt lat="39.5448652" lon="20.4683762"><ele>237.0</ele><time>2026-05-03T05:45:49.747Z</time></trkpt><trkpt lat="39.5449896" lon="20.4682455"><ele>237.0</ele><time>2026-05-03T05:45:50.75Z</time></trkpt><trkpt lat="39.5451178" lon="20.4681537"><ele>237.0</ele><time>2026-05-03T05:45:51.75Z</time></trkpt><trkpt lat="39.5452412" lon="20.4680945"><ele>237.0</ele><time>2026-05-03T05:45:52.75Z</time></trkpt><trkpt lat="39.5453659" lon="20.4680753"><ele>238.5</ele><time>2026-05-03T05:45:53.748Z</time></trkpt><trkpt lat="39.545492" lon="20.4680911"><ele>240.0</ele><time>2026-05-03T05:45:54.748Z</time></trkpt><trkpt lat="39.5456278" lon="20.4681537"><ele>241.5</ele><time>2026-05-03T05:45:55.747Z</time></trkpt><trkpt lat="39.5457433" lon="20.4682422"><ele>243.0</ele><time>2026-05-03T05:45:56.75Z</time></trkpt><trkpt lat="39.5458524" lon="20.4683773"><ele>243.0</ele><time>2026-05-03T05:45:57.75Z</time></trkpt><trkpt lat="39.5459517" lon="20.4685199"><ele>243.0</ele><time>2026-05-03T05:45:58.748Z</time></trkpt><trkpt lat="39.5460372" lon="20.4686861"><ele>243.0</ele><time>2026-05-03T05:45:59.746Z</time></trkpt><trkpt lat="39.5461229" lon="20.4688592"><ele>245.0</ele><time>2026-05-03T05:46:00.749Z</time></trkpt><trkpt lat="39.5461948" lon="20.4690395"><ele>247.0</ele><time>2026-05-03T05:46:01.749Z</time></trkpt><trkpt lat="39.5462475" lon="20.4692134"><ele>249.0</ele><time>2026-05-03T05:46:02.75Z</time></trkpt><trkpt lat="39.5462913" lon="20.4693844"><ele>251.0</ele><time>2026-05-03T05:46:03.75Z</time></trkpt><trkpt lat="39.5463414" lon="20.469532"><ele>252.20000000000002</ele><time>2026-05-03T05:46:04.748Z</time></trkpt><trkpt lat="39.5464129" lon="20.4696623"><ele>253.40000000000003</ele><time>2026-05-03T05:46:05.75Z</time></trkpt><trkpt lat="39.5464984" lon="20.4697505"><ele>254.6</ele><time>2026-05-03T05:46:06.748Z</time></trkpt><trkpt lat="39.546593" lon="20.4698015"><ele>255.8</ele><time>2026-05-03T05:46:07.748Z</time></trkpt><trkpt lat="39.5467005" lon="20.4698149"><ele>257.0</ele><time>2026-05-03T05:46:08.75Z</time></trkpt><trkpt lat="39.5468074" lon="20.46978"><ele>257.0</ele><time>2026-05-03T05:46:09.749Z</time></trkpt><trkpt lat="39.5469084" lon="20.469697"><ele>257.0</ele><time>2026-05-03T05:46:10.748Z</time></trkpt><trkpt lat="39.5469906" lon="20.4695722"><ele>257.0</ele><time>2026-05-03T05:46:11.75Z</time></trkpt><trkpt lat="39.5470643" lon="20.4694253"><ele>257.0</ele><time>2026-05-03T05:46:12.75Z</time></trkpt><trkpt lat="39.5471338" lon="20.4692637"><ele>256.25</ele><time>2026-05-03T05:46:13.749Z</time></trkpt><trkpt lat="39.5472148" lon="20.4691055"><ele>255.5</ele><time>2026-05-03T05:46:14.747Z</time></trkpt><trkpt lat="39.547311" lon="20.4689755"><ele>254.75</ele><time>2026-05-03T05:46:15.748Z</time></trkpt><trkpt lat="39.5474354" lon="20.4688551"><ele>254.0</ele><time>2026-05-03T05:46:16.749Z</time></trkpt><trkpt lat="39.5475816" lon="20.468757"><ele>254.0</ele><time>2026-05-03T05:46:17.748Z</time></trkpt><trkpt lat="39.5477394" lon="20.468655"><ele>254.0</ele><time>2026-05-03T05:46:18.749Z</time></trkpt><trkpt lat="39.5479084" lon="20.4685463"><ele>254.0</ele><time>2026-05-03T05:46:19.747Z</time></trkpt><trkpt lat="39.5480786" lon="20.4684391"><ele>256.6666666666667</ele><time>2026-05-03T05:46:20.75Z</time></trkpt><trkpt lat="39.5482589" lon="20.4683311"><ele>259.3333333333333</ele><time>2026-05-03T05:46:21.749Z</time></trkpt><trkpt lat="39.5484313" lon="20.4682231"><ele>262.0</ele><time>2026-05-03T05:46:22.749Z</time></trkpt><trkpt lat="39.5486065" lon="20.4681152"><ele>262.0</ele><time>2026-05-03T05:46:23.748Z</time></trkpt><trkpt lat="39.5487734" lon="20.4680005"><ele>262.0</ele><time>2026-05-03T05:46:24.749Z</time></trkpt><trkpt lat="39.5489435" lon="20.4678942"><ele>262.0</ele><time>2026-05-03T05:46:25.749Z</time></trkpt><trkpt lat="39.5491165" lon="20.4677812"><ele>262.0</ele><time>2026-05-03T05:46:26.75Z</time></trkpt><trkpt lat="39.5492829" lon="20.4676788"><ele>262.0</ele><time>2026-05-03T05:46:27.749Z</time></trkpt><trkpt lat="39.5494512" lon="20.4675753"><ele>262.0</ele><time>2026-05-03T05:46:28.749Z</time></trkpt><trkpt lat="39.549619" lon="20.4674727"><ele>267.0</ele><time>2026-05-03T05:46:29.75Z</time></trkpt><trkpt lat="39.5497807" lon="20.4673718"><ele>272.0</ele><time>2026-05-03T05:46:30.75Z</time></trkpt><trkpt lat="39.5499499" lon="20.46729"><ele>277.0</ele><time>2026-05-03T05:46:31.748Z</time></trkpt><trkpt lat="39.5501169" lon="20.4672384"><ele>277.0</ele><time>2026-05-03T05:46:32.749Z</time></trkpt><trkpt lat="39.5502927" lon="20.467221"><ele>277.0</ele><time>2026-05-03T05:46:33.749Z</time></trkpt><trkpt lat="39.5504532" lon="20.4672287"><ele>277.0</ele><time>2026-05-03T05:46:34.75Z</time></trkpt><trkpt lat="39.5506225" lon="20.467267"><ele>279.66666666666663</ele><time>2026-05-03T05:46:35.75Z</time></trkpt><trkpt lat="39.5507898" lon="20.467328"><ele>282.3333333333333</ele><time>2026-05-03T05:46:36.747Z</time></trkpt><trkpt lat="39.5509482" lon="20.467402"><ele>285.0</ele><time>2026-05-03T05:46:37.749Z</time></trkpt><trkpt lat="39.5511228" lon="20.4674676"><ele>284.0</ele><time>2026-05-03T05:46:38.75Z</time></trkpt><trkpt lat="39.5512874" lon="20.4675365"><ele>283.0</ele><time>2026-05-03T05:46:39.749Z</time></trkpt><trkpt lat="39.5514552" lon="20.4675855"><ele>282.0</ele><time>2026-05-03T05:46:40.749Z</time></trkpt><trkpt lat="39.5516254" lon="20.4676034"><ele>282.0</ele><time>2026-05-03T05:46:41.75Z</time></trkpt><trkpt lat="39.5518003" lon="20.4675848"><ele>282.0</ele><time>2026-05-03T05:46:42.749Z</time></trkpt><trkpt lat="39.5519709" lon="20.4675346"><ele>282.0</ele><time>2026-05-03T05:46:43.75Z</time></trkpt><trkpt lat="39.5521446" lon="20.4674649"><ele>286.6666666666667</ele><time>2026-05-03T05:46:44.749Z</time></trkpt><trkpt lat="39.5523163" lon="20.4673862"><ele>291.33333333333337</ele><time>2026-05-03T05:46:45.749Z</time></trkpt><trkpt lat="39.5524913" lon="20.467311"><ele>296.0</ele><time>2026-05-03T05:46:46.748Z</time></trkpt><trkpt lat="39.5526707" lon="20.4672406"><ele>296.0</ele><time>2026-05-03T05:46:47.749Z</time></trkpt><trkpt lat="39.5528582" lon="20.4671981"><ele>296.0</ele><time>2026-05-03T05:46:48.749Z</time></trkpt><trkpt lat="39.5530437" lon="20.4671704"><ele>296.0</ele><time>2026-05-03T05:46:49.749Z</time></trkpt><trkpt lat="39.5532232" lon="20.4671593"><ele>296.33333333333337</ele><time>2026-05-03T05:46:50.747Z</time></trkpt><trkpt lat="39.5533982" lon="20.4671673"><ele>296.6666666666667</ele><time>2026-05-03T05:46:51.75Z</time></trkpt><trkpt lat="39.5535657" lon="20.4671978"><ele>297.0</ele><time>2026-05-03T05:46:52.75Z</time></trkpt><trkpt lat="39.5537268" lon="20.467251"><ele>297.0</ele><time>2026-05-03T05:46:53.749Z</time></trkpt><trkpt lat="39.5538721" lon="20.4673363"><ele>297.0</ele><time>2026-05-03T05:46:54.749Z</time></trkpt><trkpt lat="39.5540015" lon="20.4674535"><ele>297.0</ele><time>2026-05-03T05:46:55.75Z</time></trkpt><trkpt lat="39.5541227" lon="20.4675988"><ele>297.0</ele><time>2026-05-03T05:46:56.749Z</time></trkpt><trkpt lat="39.5542305" lon="20.4677662"><ele>297.0</ele><time>2026-05-03T05:46:57.75Z</time></trkpt><trkpt lat="39.5543511" lon="20.4679663"><ele>297.0</ele><time>2026-05-03T05:46:58.75Z</time></trkpt><trkpt lat="39.5544565" lon="20.4681622"><ele>296.0</ele><time>2026-05-03T05:46:59.746Z</time></trkpt><trkpt lat="39.5545577" lon="20.4683559"><ele>295.0</ele><time>2026-05-03T05:47:00.749Z</time></trkpt><trkpt lat="39.5546549" lon="20.4685329"><ele>294.0</ele><time>2026-05-03T05:47:01.748Z</time></trkpt><trkpt lat="39.5547432" lon="20.468696"><ele>298.75</ele><time>2026-05-03T05:47:02.75Z</time></trkpt><trkpt lat="39.5548363" lon="20.4688305"><ele>303.5</ele><time>2026-05-03T05:47:03.749Z</time></trkpt><trkpt lat="39.5549576" lon="20.4689233"><ele>308.25</ele><time>2026-05-03T05:47:04.749Z</time></trkpt><trkpt lat="39.5550987" lon="20.4689946"><ele>313.0</ele><time>2026-05-03T05:47:05.748Z</time></trkpt><trkpt lat="39.5552561" lon="20.469043"><ele>312.3333333333333</ele><time>2026-05-03T05:47:06.75Z</time></trkpt><trkpt lat="39.5554329" lon="20.4690858"><ele>311.6666666666667</ele><time>2026-05-03T05:47:07.75Z</time></trkpt><trkpt lat="39.5556203" lon="20.4691332"><ele>311.0</ele><time>2026-05-03T05:47:08.749Z</time></trkpt><trkpt lat="39.555798" lon="20.469193"><ele>311.0</ele><time>2026-05-03T05:47:09.749Z</time></trkpt><trkpt lat="39.5559753" lon="20.4692476"><ele>311.0</ele><time>2026-05-03T05:47:10.749Z</time></trkpt><trkpt lat="39.5561461" lon="20.4693039"><ele>311.0</ele><time>2026-05-03T05:47:11.749Z</time></trkpt><trkpt lat="39.556322" lon="20.4693473"><ele>310.33333333333337</ele><time>2026-05-03T05:47:12.749Z</time></trkpt><trkpt lat="39.5564973" lon="20.4693826"><ele>309.6666666666667</ele><time>2026-05-03T05:47:13.749Z</time></trkpt><trkpt lat="39.5566766" lon="20.4693907"><ele>309.0</ele><time>2026-05-03T05:47:14.75Z</time></trkpt><trkpt lat="39.5568583" lon="20.469357"><ele>309.0</ele><time>2026-05-03T05:47:15.749Z</time></trkpt><trkpt lat="39.5570331" lon="20.4692997"><ele>309.0</ele><time>2026-05-03T05:47:16.75Z</time></trkpt><trkpt lat="39.5571929" lon="20.4692057"><ele>309.0</ele><time>2026-05-03T05:47:17.75Z</time></trkpt><trkpt lat="39.5573608" lon="20.4691288"><ele>313.6666666666667</ele><time>2026-05-03T05:47:18.75Z</time></trkpt><trkpt lat="39.5575322" lon="20.4690617"><ele>318.33333333333337</ele><time>2026-05-03T05:47:19.75Z</time></trkpt><trkpt lat="39.5576943" lon="20.4690228"><ele>323.0</ele><time>2026-05-03T05:47:20.75Z</time></trkpt><trkpt lat="39.5578659" lon="20.4690098"><ele>323.6666666666667</ele><time>2026-05-03T05:47:21.75Z</time></trkpt><trkpt lat="39.5580288" lon="20.4690029"><ele>324.3333333333333</ele><time>2026-05-03T05:47:22.749Z</time></trkpt><trkpt lat="39.558172" lon="20.4690459"><ele>325.0</ele><time>2026-05-03T05:47:23.75Z</time></trkpt><trkpt lat="39.5583091" lon="20.4691456"><ele>325.0</ele><time>2026-05-03T05:47:24.749Z</time></trkpt><trkpt lat="39.5584589" lon="20.4692111"><ele>325.0</ele><time>2026-05-03T05:47:25.748Z</time></trkpt><trkpt lat="39.5586229" lon="20.4692421"><ele>325.0</ele><time>2026-05-03T05:47:26.75Z</time></trkpt><trkpt lat="39.5587876" lon="20.4692231"><ele>326.3333333333333</ele><time>2026-05-03T05:47:27.75Z</time></trkpt><trkpt lat="39.558956" lon="20.4691632"><ele>327.6666666666667</ele><time>2026-05-03T05:47:28.75Z</time></trkpt><trkpt lat="39.5591209" lon="20.4690983"><ele>329.0</ele><time>2026-05-03T05:47:29.749Z</time></trkpt><trkpt lat="39.5592867" lon="20.4690273"><ele>329.0</ele><time>2026-05-03T05:47:30.749Z</time></trkpt><trkpt lat="39.559435" lon="20.4689366"><ele>329.0</ele><time>2026-05-03T05:47:31.749Z</time></trkpt><trkpt lat="39.5595965" lon="20.4688839"><ele>329.0</ele><time>2026-05-03T05:47:32.749Z</time></trkpt><trkpt lat="39.5597694" lon="20.4688514"><ele>332.33333333333337</ele><time>2026-05-03T05:47:33.749Z</time></trkpt><trkpt lat="39.5599562" lon="20.4688442"><ele>335.6666666666667</ele><time>2026-05-03T05:47:34.748Z</time></trkpt><trkpt lat="39.5601403" lon="20.4688461"><ele>339.0</ele><time>2026-05-03T05:47:35.749Z</time></trkpt><trkpt lat="39.5603227" lon="20.468862"><ele>339.3333333333333</ele><time>2026-05-03T05:47:36.749Z</time></trkpt><trkpt lat="39.5605013" lon="20.4688885"><ele>339.66666666666663</ele><time>2026-05-03T05:47:37.749Z</time></trkpt><trkpt lat="39.5606716" lon="20.4689305"><ele>340.0</ele><time>2026-05-03T05:47:38.75Z</time></trkpt><trkpt lat="39.5608439" lon="20.4689915"><ele>340.0</ele><time>2026-05-03T05:47:39.749Z</time></trkpt><trkpt lat="39.5610101" lon="20.469078"><ele>340.0</ele><time>2026-05-03T05:47:40.749Z</time></trkpt><trkpt lat="39.5611576" lon="20.4691965"><ele>340.0</ele><time>2026-05-03T05:47:41.749Z</time></trkpt><trkpt lat="39.5612832" lon="20.4693346"><ele>341.3333333333333</ele><time>2026-05-03T05:47:42.749Z</time></trkpt><trkpt lat="39.5613918" lon="20.4695141"><ele>342.6666666666667</ele><time>2026-05-03T05:47:43.75Z</time></trkpt><trkpt lat="39.5614731" lon="20.4697169"><ele>344.0</ele><time>2026-05-03T05:47:44.749Z</time></trkpt><trkpt lat="39.5615414" lon="20.469939"><ele>344.0</ele><time>2026-05-03T05:47:45.747Z</time></trkpt><trkpt lat="39.5615929" lon="20.4701801"><ele>344.0</ele><time>2026-05-03T05:47:46.749Z</time></trkpt><trkpt lat="39.5616284" lon="20.4704247"><ele>344.0</ele><time>2026-05-03T05:47:47.749Z</time></trkpt><trkpt lat="39.561643" lon="20.4706674"><ele>345.6666666666667</ele><time>2026-05-03T05:47:48.749Z</time></trkpt><trkpt lat="39.5616556" lon="20.4708993"><ele>347.3333333333333</ele><time>2026-05-03T05:47:49.749Z</time></trkpt><trkpt lat="39.5616775" lon="20.4711167"><ele>349.0</ele><time>2026-05-03T05:47:50.747Z</time></trkpt><trkpt lat="39.5617229" lon="20.4713194"><ele>350.66666666666663</ele><time>2026-05-03T05:47:51.749Z</time></trkpt><trkpt lat="39.5617874" lon="20.4715185"><ele>352.3333333333333</ele><time>2026-05-03T05:47:52.749Z</time></trkpt><trkpt lat="39.561888" lon="20.4716814"><ele>354.0</ele><time>2026-05-03T05:47:53.749Z</time></trkpt><trkpt lat="39.5620008" lon="20.4718214"><ele>352.3333333333333</ele><time>2026-05-03T05:47:54.75Z</time></trkpt><trkpt lat="39.5621334" lon="20.4719246"><ele>350.66666666666663</ele><time>2026-05-03T05:47:55.749Z</time></trkpt><trkpt lat="39.5622777" lon="20.4719856"><ele>349.0</ele><time>2026-05-03T05:47:56.749Z</time></trkpt><trkpt lat="39.5624338" lon="20.4720029"><ele>349.0</ele><time>2026-05-03T05:47:57.748Z</time></trkpt><trkpt lat="39.5625997" lon="20.4719878"><ele>349.0</ele><time>2026-05-03T05:47:58.748Z</time></trkpt><trkpt lat="39.5627708" lon="20.4719495"><ele>349.0</ele><time>2026-05-03T05:47:59.746Z</time></trkpt><trkpt lat="39.5629507" lon="20.471901"><ele>351.3333333333333</ele><time>2026-05-03T05:48:00.75Z</time></trkpt><trkpt lat="39.5631352" lon="20.4718408"><ele>353.6666666666667</ele><time>2026-05-03T05:48:01.75Z</time></trkpt><trkpt lat="39.5633184" lon="20.4717804"><ele>356.0</ele><time>2026-05-03T05:48:02.748Z</time></trkpt><trkpt lat="39.563497" lon="20.4717076"><ele>356.0</ele><time>2026-05-03T05:48:03.75Z</time></trkpt><trkpt lat="39.563679" lon="20.4716479"><ele>356.0</ele><time>2026-05-03T05:48:04.75Z</time></trkpt><trkpt lat="39.5638588" lon="20.4715941"><ele>356.0</ele><time>2026-05-03T05:48:05.749Z</time></trkpt><trkpt lat="39.5640258" lon="20.4715574"><ele>358.25</ele><time>2026-05-03T05:48:06.749Z</time></trkpt><trkpt lat="39.564184" lon="20.4715567"><ele>360.5</ele><time>2026-05-03T05:48:07.747Z</time></trkpt><trkpt lat="39.5643194" lon="20.4715927"><ele>362.75</ele><time>2026-05-03T05:48:08.75Z</time></trkpt><trkpt lat="39.5644357" lon="20.4716715"><ele>365.0</ele><time>2026-05-03T05:48:09.75Z</time></trkpt><trkpt lat="39.5645304" lon="20.4717789"><ele>364.33333333333337</ele><time>2026-05-03T05:48:10.75Z</time></trkpt><trkpt lat="39.5646249" lon="20.4719226"><ele>363.6666666666667</ele><time>2026-05-03T05:48:11.75Z</time></trkpt><trkpt lat="39.5647031" lon="20.4720957"><ele>363.0</ele><time>2026-05-03T05:48:12.75Z</time></trkpt><trkpt lat="39.5647815" lon="20.4722788"><ele>363.0</ele><time>2026-05-03T05:48:13.749Z</time></trkpt><trkpt lat="39.5648452" lon="20.4724708"><ele>363.0</ele><time>2026-05-03T05:48:14.747Z</time></trkpt><trkpt lat="39.5649119" lon="20.4726676"><ele>363.0</ele><time>2026-05-03T05:48:15.75Z</time></trkpt><trkpt lat="39.5649598" lon="20.4728722"><ele>368.6666666666667</ele><time>2026-05-03T05:48:16.75Z</time></trkpt><trkpt lat="39.5649994" lon="20.4730956"><ele>374.33333333333337</ele><time>2026-05-03T05:48:17.749Z</time></trkpt><trkpt lat="39.5650343" lon="20.4733282"><ele>380.0</ele><time>2026-05-03T05:48:18.749Z</time></trkpt><trkpt lat="39.5650613" lon="20.4735576"><ele>384.0</ele><time>2026-05-03T05:48:19.749Z</time></trkpt><trkpt lat="39.5650963" lon="20.4737808"><ele>388.0</ele><time>2026-05-03T05:48:20.75Z</time></trkpt><trkpt lat="39.5651296" lon="20.4739995"><ele>392.0</ele><time>2026-05-03T05:48:21.748Z</time></trkpt><trkpt lat="39.5651747" lon="20.4742141"><ele>392.0</ele><time>2026-05-03T05:48:22.749Z</time></trkpt><trkpt lat="39.565233" lon="20.4744225"><ele>392.0</ele><time>2026-05-03T05:48:23.75Z</time></trkpt><trkpt lat="39.5653053" lon="20.4746139"><ele>392.0</ele><time>2026-05-03T05:48:24.749Z</time></trkpt><trkpt lat="39.5653963" lon="20.4747812"><ele>390.75</ele><time>2026-05-03T05:48:25.75Z</time></trkpt><trkpt lat="39.5654957" lon="20.4749156"><ele>389.5</ele><time>2026-05-03T05:48:26.749Z</time></trkpt><trkpt lat="39.5656138" lon="20.4750176"><ele>388.25</ele><time>2026-05-03T05:48:27.747Z</time></trkpt><trkpt lat="39.5657469" lon="20.4750841"><ele>387.0</ele><time>2026-05-03T05:48:28.749Z</time></trkpt><trkpt lat="39.5658898" lon="20.4751129"><ele>387.0</ele><time>2026-05-03T05:48:29.748Z</time></trkpt><trkpt lat="39.5660441" lon="20.4750952"><ele>387.0</ele><time>2026-05-03T05:48:30.748Z</time></trkpt><trkpt lat="39.5661989" lon="20.4750523"><ele>387.0</ele><time>2026-05-03T05:48:31.749Z</time></trkpt><trkpt lat="39.5663617" lon="20.4749987"><ele>388.0</ele><time>2026-05-03T05:48:32.748Z</time></trkpt><trkpt lat="39.5665232" lon="20.474962"><ele>389.0</ele><time>2026-05-03T05:48:33.749Z</time></trkpt><trkpt lat="39.5666851" lon="20.4749525"><ele>390.0</ele><time>2026-05-03T05:48:34.749Z</time></trkpt><trkpt lat="39.5668469" lon="20.4749757"><ele>390.0</ele><time>2026-05-03T05:48:35.749Z</time></trkpt><trkpt lat="39.5670076" lon="20.475041"><ele>390.0</ele><time>2026-05-03T05:48:36.747Z</time></trkpt><trkpt lat="39.5671684" lon="20.4751271"><ele>390.0</ele><time>2026-05-03T05:48:37.75Z</time></trkpt><trkpt lat="39.5673315" lon="20.4752274"><ele>389.0</ele><time>2026-05-03T05:48:38.747Z</time></trkpt><trkpt lat="39.5675002" lon="20.4753337"><ele>388.0</ele><time>2026-05-03T05:48:39.749Z</time></trkpt><trkpt lat="39.567665" lon="20.4754467"><ele>387.0</ele><time>2026-05-03T05:48:40.75Z</time></trkpt><trkpt lat="39.5678235" lon="20.4755538"><ele>392.66666666666663</ele><time>2026-05-03T05:48:41.75Z</time></trkpt><trkpt lat="39.5679799" lon="20.4756493"><ele>398.3333333333333</ele><time>2026-05-03T05:48:42.75Z</time></trkpt><trkpt lat="39.5681356" lon="20.4757215"><ele>404.0</ele><time>2026-05-03T05:48:43.749Z</time></trkpt><trkpt lat="39.5682892" lon="20.4757671"><ele>404.0</ele><time>2026-05-03T05:48:44.75Z</time></trkpt><trkpt lat="39.5684311" lon="20.4757802"><ele>404.0</ele><time>2026-05-03T05:48:45.749Z</time></trkpt><trkpt lat="39.5685811" lon="20.4757515"><ele>404.0</ele><time>2026-05-03T05:48:46.747Z</time></trkpt><trkpt lat="39.5687124" lon="20.4756849"><ele>404.0</ele><time>2026-05-03T05:48:47.747Z</time></trkpt><trkpt lat="39.5688428" lon="20.4755845"><ele>405.3333333333333</ele><time>2026-05-03T05:48:48.749Z</time></trkpt><trkpt lat="39.5689723" lon="20.475456"><ele>406.66666666666663</ele><time>2026-05-03T05:48:49.749Z</time></trkpt><trkpt lat="39.5690905" lon="20.4753043"><ele>408.0</ele><time>2026-05-03T05:48:50.749Z</time></trkpt><trkpt lat="39.5692114" lon="20.4751511"><ele>408.0</ele><time>2026-05-03T05:48:51.746Z</time></trkpt><trkpt lat="39.5693197" lon="20.4749888"><ele>408.0</ele><time>2026-05-03T05:48:52.749Z</time></trkpt><trkpt lat="39.5694398" lon="20.4748472"><ele>408.0</ele><time>2026-05-03T05:48:53.749Z</time></trkpt><trkpt lat="39.5695538" lon="20.4747077"><ele>408.66666666666663</ele><time>2026-05-03T05:48:54.749Z</time></trkpt><trkpt lat="39.5696764" lon="20.4745925"><ele>409.3333333333333</ele><time>2026-05-03T05:48:55.747Z</time></trkpt><trkpt lat="39.5698148" lon="20.4744993"><ele>410.0</ele><time>2026-05-03T05:48:56.749Z</time></trkpt><trkpt lat="39.5699655" lon="20.4744261"><ele>410.0</ele><time>2026-05-03T05:48:57.748Z</time></trkpt><trkpt lat="39.5701287" lon="20.4743605"><ele>410.0</ele><time>2026-05-03T05:48:58.75Z</time></trkpt><trkpt lat="39.5702889" lon="20.4742947"><ele>410.0</ele><time>2026-05-03T05:48:59.747Z</time></trkpt><trkpt lat="39.5704467" lon="20.4742273"><ele>412.75</ele><time>2026-05-03T05:49:00.747Z</time></trkpt><trkpt lat="39.5705975" lon="20.4741754"><ele>415.5</ele><time>2026-05-03T05:49:01.749Z</time></trkpt><trkpt lat="39.5707432" lon="20.4741376"><ele>418.25</ele><time>2026-05-03T05:49:02.748Z</time></trkpt><trkpt lat="39.5708794" lon="20.4741363"><ele>421.0</ele><time>2026-05-03T05:49:03.749Z</time></trkpt><trkpt lat="39.5710141" lon="20.4741566"><ele>421.0</ele><time>2026-05-03T05:49:04.749Z</time></trkpt><trkpt lat="39.5711286" lon="20.4742125"><ele>421.0</ele><time>2026-05-03T05:49:05.746Z</time></trkpt><trkpt lat="39.5712442" lon="20.4743006"><ele>421.0</ele><time>2026-05-03T05:49:06.749Z</time></trkpt><trkpt lat="39.5713565" lon="20.4744178"><ele>421.0</ele><time>2026-05-03T05:49:07.749Z</time></trkpt><trkpt lat="39.5714563" lon="20.4745542"><ele>423.0</ele><time>2026-05-03T05:49:08.748Z</time></trkpt><trkpt lat="39.571561" lon="20.474708"><ele>425.0</ele><time>2026-05-03T05:49:09.75Z</time></trkpt><trkpt lat="39.5716771" lon="20.4748726"><ele>427.0</ele><time>2026-05-03T05:49:10.75Z</time></trkpt><trkpt lat="39.5718137" lon="20.4750331"><ele>427.0</ele><time>2026-05-03T05:49:11.75Z</time></trkpt><trkpt lat="39.5719629" lon="20.4751968"><ele>427.0</ele><time>2026-05-03T05:49:12.75Z</time></trkpt><trkpt lat="39.5721149" lon="20.4753579"><ele>427.0</ele><time>2026-05-03T05:49:13.749Z</time></trkpt><trkpt lat="39.5722708" lon="20.4755172"><ele>429.33333333333337</ele><time>2026-05-03T05:49:14.749Z</time></trkpt><trkpt lat="39.5724255" lon="20.4756675"><ele>431.66666666666663</ele><time>2026-05-03T05:49:15.747Z</time></trkpt><trkpt lat="39.5725743" lon="20.4758205"><ele>434.0</ele><time>2026-05-03T05:49:16.75Z</time></trkpt><trkpt lat="39.5727246" lon="20.4759721"><ele>433.66666666666663</ele><time>2026-05-03T05:49:17.749Z</time></trkpt><trkpt lat="39.5728674" lon="20.4761244"><ele>433.33333333333337</ele><time>2026-05-03T05:49:18.747Z</time></trkpt><trkpt lat="39.573013" lon="20.4762703"><ele>433.0</ele><time>2026-05-03T05:49:19.749Z</time></trkpt><trkpt lat="39.5731556" lon="20.4764113"><ele>436.33333333333337</ele><time>2026-05-03T05:49:20.749Z</time></trkpt><trkpt lat="39.573303" lon="20.4765575"><ele>439.66666666666663</ele><time>2026-05-03T05:49:21.748Z</time></trkpt><trkpt lat="39.573445" lon="20.4767032"><ele>443.0</ele><time>2026-05-03T05:49:22.75Z</time></trkpt><trkpt lat="39.5735832" lon="20.4768449"><ele>443.3333333333333</ele><time>2026-05-03T05:49:23.749Z</time></trkpt><trkpt lat="39.573721" lon="20.4769841"><ele>443.66666666666663</ele><time>2026-05-03T05:49:24.747Z</time></trkpt><trkpt lat="39.5738667" lon="20.477105"><ele>444.0</ele><time>2026-05-03T05:49:25.75Z</time></trkpt><trkpt lat="39.5740104" lon="20.4772084"><ele>444.0</ele><time>2026-05-03T05:49:26.747Z</time></trkpt><trkpt lat="39.5741657" lon="20.4772865"><ele>444.0</ele><time>2026-05-03T05:49:27.75Z</time></trkpt><trkpt lat="39.5743337" lon="20.47733"><ele>444.0</ele><time>2026-05-03T05:49:28.75Z</time></trkpt><trkpt lat="39.5745093" lon="20.4773466"><ele>446.33333333333337</ele><time>2026-05-03T05:49:29.749Z</time></trkpt><trkpt lat="39.5746901" lon="20.4773349"><ele>448.6666666666667</ele><time>2026-05-03T05:49:30.749Z</time></trkpt><trkpt lat="39.5748828" lon="20.4773065"><ele>451.0</ele><time>2026-05-03T05:49:31.749Z</time></trkpt><trkpt lat="39.5750717" lon="20.4772706"><ele>451.0</ele><time>2026-05-03T05:49:32.749Z</time></trkpt><trkpt lat="39.575268" lon="20.4772295"><ele>451.0</ele><time>2026-05-03T05:49:33.749Z</time></trkpt><trkpt lat="39.5754678" lon="20.4771923"><ele>451.0</ele><time>2026-05-03T05:49:34.747Z</time></trkpt><trkpt lat="39.5756653" lon="20.477154"><ele>450.33333333333337</ele><time>2026-05-03T05:49:35.748Z</time></trkpt><trkpt lat="39.5758648" lon="20.4771159"><ele>449.66666666666663</ele><time>2026-05-03T05:49:36.75Z</time></trkpt><trkpt lat="39.5760607" lon="20.4770718"><ele>449.0</ele><time>2026-05-03T05:49:37.749Z</time></trkpt><trkpt lat="39.5762552" lon="20.4770261"><ele>449.0</ele><time>2026-05-03T05:49:38.746Z</time></trkpt><trkpt lat="39.5764476" lon="20.4769745"><ele>449.0</ele><time>2026-05-03T05:49:39.747Z</time></trkpt><trkpt lat="39.5766381" lon="20.4769187"><ele>449.0</ele><time>2026-05-03T05:49:40.749Z</time></trkpt><trkpt lat="39.5768264" lon="20.476873"><ele>449.0</ele><time>2026-05-03T05:49:41.748Z</time></trkpt><trkpt lat="39.5770116" lon="20.476815"><ele>449.0</ele><time>2026-05-03T05:49:42.749Z</time></trkpt><trkpt lat="39.5771953" lon="20.4767576"><ele>449.0</ele><time>2026-05-03T05:49:43.749Z</time></trkpt><trkpt lat="39.5773762" lon="20.4766995"><ele>453.3333333333333</ele><time>2026-05-03T05:49:44.748Z</time></trkpt><trkpt lat="39.5775513" lon="20.4766347"><ele>457.66666666666663</ele><time>2026-05-03T05:49:45.75Z</time></trkpt><trkpt lat="39.5777219" lon="20.4765816"><ele>462.0</ele><time>2026-05-03T05:49:46.749Z</time></trkpt><trkpt lat="39.577895" lon="20.4765347"><ele>467.33333333333337</ele><time>2026-05-03T05:49:47.749Z</time></trkpt><trkpt lat="39.5780645" lon="20.4765039"><ele>472.6666666666667</ele><time>2026-05-03T05:49:48.75Z</time></trkpt><trkpt lat="39.5782347" lon="20.4764799"><ele>478.0</ele><time>2026-05-03T05:49:49.75Z</time></trkpt><trkpt lat="39.5784025" lon="20.4764909"><ele>478.0</ele><time>2026-05-03T05:49:50.748Z</time></trkpt><trkpt lat="39.5785737" lon="20.4765307"><ele>478.0</ele><time>2026-05-03T05:49:51.749Z</time></trkpt><trkpt lat="39.5787399" lon="20.4765936"><ele>478.0</ele><time>2026-05-03T05:49:52.748Z</time></trkpt><trkpt lat="39.5789021" lon="20.4766773"><ele>474.0</ele><time>2026-05-03T05:49:53.749Z</time></trkpt><trkpt lat="39.5790637" lon="20.4767779"><ele>470.0</ele><time>2026-05-03T05:49:54.747Z</time></trkpt><trkpt lat="39.5792228" lon="20.4768909"><ele>466.0</ele><time>2026-05-03T05:49:55.749Z</time></trkpt><trkpt lat="39.579383" lon="20.4770025"><ele>473.0</ele><time>2026-05-03T05:49:56.749Z</time></trkpt><trkpt lat="39.5795513" lon="20.4771083"><ele>480.0</ele><time>2026-05-03T05:49:57.748Z</time></trkpt><trkpt lat="39.5797196" lon="20.4772151"><ele>487.0</ele><time>2026-05-03T05:49:58.749Z</time></trkpt><trkpt lat="39.5798876" lon="20.4773163"><ele>487.0</ele><time>2026-05-03T05:49:59.748Z</time></trkpt><trkpt lat="39.5800603" lon="20.477411"><ele>487.0</ele><time>2026-05-03T05:50:00.749Z</time></trkpt><trkpt lat="39.580232" lon="20.4775095"><ele>487.0</ele><time>2026-05-03T05:50:01.749Z</time></trkpt><trkpt lat="39.5804017" lon="20.4776065"><ele>480.33333333333337</ele><time>2026-05-03T05:50:02.749Z</time></trkpt><trkpt lat="39.5805711" lon="20.4776996"><ele>473.66666666666663</ele><time>2026-05-03T05:50:03.749Z</time></trkpt><trkpt lat="39.5807389" lon="20.4777882"><ele>467.0</ele><time>2026-05-03T05:50:04.75Z</time></trkpt><trkpt lat="39.5809075" lon="20.4778801"><ele>483.0</ele><time>2026-05-03T05:50:05.749Z</time></trkpt><trkpt lat="39.5810702" lon="20.4779654"><ele>499.0</ele><time>2026-05-03T05:50:06.749Z</time></trkpt><trkpt lat="39.5812214" lon="20.4780658"><ele>515.0</ele><time>2026-05-03T05:50:07.75Z</time></trkpt><trkpt lat="39.5813592" lon="20.478144"><ele>515.0</ele><time>2026-05-03T05:50:08.747Z</time></trkpt><trkpt lat="39.5814934" lon="20.4782069"><ele>515.0</ele><time>2026-05-03T05:50:09.748Z</time></trkpt><trkpt lat="39.5816247" lon="20.478249"><ele>515.0</ele><time>2026-05-03T05:50:10.748Z</time></trkpt><trkpt lat="39.5817623" lon="20.4782521"><ele>515.0</ele><time>2026-05-03T05:50:11.749Z</time></trkpt><trkpt lat="39.5819037" lon="20.4782143"><ele>520.0</ele><time>2026-05-03T05:50:12.748Z</time></trkpt><trkpt lat="39.5820471" lon="20.4781314"><ele>525.0</ele><time>2026-05-03T05:50:13.747Z</time></trkpt><trkpt lat="39.5821804" lon="20.4780223"><ele>530.0</ele><time>2026-05-03T05:50:14.747Z</time></trkpt><trkpt lat="39.5823051" lon="20.4778977"><ele>518.25</ele><time>2026-05-03T05:50:15.748Z</time></trkpt><trkpt lat="39.582423" lon="20.477773"><ele>506.5</ele><time>2026-05-03T05:50:16.746Z</time></trkpt><trkpt lat="39.5825407" lon="20.4776722"><ele>494.75</ele><time>2026-05-03T05:50:17.75Z</time></trkpt><trkpt lat="39.5826761" lon="20.4775924"><ele>483.0</ele><time>2026-05-03T05:50:18.746Z</time></trkpt><trkpt lat="39.5828285" lon="20.4775351"><ele>489.66666666666663</ele><time>2026-05-03T05:50:19.747Z</time></trkpt><trkpt lat="39.5829773" lon="20.4774795"><ele>496.3333333333333</ele><time>2026-05-03T05:50:20.746Z</time></trkpt><trkpt lat="39.583129" lon="20.4774282"><ele>503.0</ele><time>2026-05-03T05:50:21.747Z</time></trkpt><trkpt lat="39.5832837" lon="20.4773736"><ele>503.0</ele><time>2026-05-03T05:50:22.747Z</time></trkpt><trkpt lat="39.5834423" lon="20.4773206"><ele>503.0</ele><time>2026-05-03T05:50:23.749Z</time></trkpt><trkpt lat="39.5836045" lon="20.4772697"><ele>503.0</ele><time>2026-05-03T05:50:24.748Z</time></trkpt><trkpt lat="39.5837708" lon="20.4772209"><ele>506.3333333333333</ele><time>2026-05-03T05:50:25.749Z</time></trkpt><trkpt lat="39.5839386" lon="20.4771677"><ele>509.66666666666663</ele><time>2026-05-03T05:50:26.748Z</time></trkpt><trkpt lat="39.5841075" lon="20.4771129"><ele>513.0</ele><time>2026-05-03T05:50:27.749Z</time></trkpt><trkpt lat="39.5842736" lon="20.4770544"><ele>509.33333333333337</ele><time>2026-05-03T05:50:28.749Z</time></trkpt><trkpt lat="39.5844349" lon="20.4769958"><ele>505.6666666666667</ele><time>2026-05-03T05:50:29.748Z</time></trkpt><trkpt lat="39.5845843" lon="20.4769462"><ele>502.0</ele><time>2026-05-03T05:50:30.749Z</time></trkpt><trkpt lat="39.5847183" lon="20.4769026"><ele>502.0</ele><time>2026-05-03T05:50:31.75Z</time></trkpt><trkpt lat="39.5848319" lon="20.47687"><ele>502.00000000000006</ele><time>2026-05-03T05:50:32.748Z</time></trkpt><trkpt lat="39.584936" lon="20.4768618"><ele>502.00000000000006</ele><time>2026-05-03T05:50:33.749Z</time></trkpt><trkpt lat="39.5850299" lon="20.4768729"><ele>502.0</ele><time>2026-05-03T05:50:34.75Z</time></trkpt><trkpt lat="39.5850854" lon="20.4769612"><ele>502.0</ele><time>2026-05-03T05:50:35.749Z</time></trkpt><trkpt lat="39.585115" lon="20.4770548"><ele>504.8</ele><time>2026-05-03T05:50:36.748Z</time></trkpt><trkpt lat="39.5850995" lon="20.4771655"><ele>507.6</ele><time>2026-05-03T05:50:37.749Z</time></trkpt><trkpt lat="39.585078" lon="20.4772639"><ele>510.40000000000003</ele><time>2026-05-03T05:50:38.748Z</time></trkpt><trkpt lat="39.585029" lon="20.4773541"><ele>513.2</ele><time>2026-05-03T05:50:39.747Z</time></trkpt><trkpt lat="39.5849135" lon="20.4774424"><ele>516.0</ele><time>2026-05-03T05:50:40.748Z</time></trkpt><trkpt lat="39.5846893" lon="20.4774394"><ele>516.0</ele><time>2026-05-03T05:50:41.748Z</time></trkpt><trkpt lat="39.5845138" lon="20.4774606"><ele>516.0</ele><time>2026-05-03T05:50:42.749Z</time></trkpt><trkpt lat="39.5843229" lon="20.477487"><ele>516.0</ele><time>2026-05-03T05:50:43.748Z</time></trkpt><trkpt lat="39.5841391" lon="20.4775155"><ele>515.25</ele><time>2026-05-03T05:50:44.747Z</time></trkpt><trkpt lat="39.5839734" lon="20.4775463"><ele>514.5</ele><time>2026-05-03T05:50:45.749Z</time></trkpt><trkpt lat="39.5838298" lon="20.4775747"><ele>513.75</ele><time>2026-05-03T05:50:46.749Z</time></trkpt><trkpt lat="39.5837119" lon="20.4776103"><ele>513.0</ele><time>2026-05-03T05:50:47.749Z</time></trkpt><trkpt lat="39.5836157" lon="20.4776754"><ele>511.0</ele><time>2026-05-03T05:50:48.75Z</time></trkpt><trkpt lat="39.583557" lon="20.4777636"><ele>508.99999999999994</ele><time>2026-05-03T05:50:49.747Z</time></trkpt><trkpt lat="39.5835398" lon="20.4778802"><ele>506.99999999999994</ele><time>2026-05-03T05:50:50.748Z</time></trkpt><trkpt lat="39.583565" lon="20.477998"><ele>505.0</ele><time>2026-05-03T05:50:51.747Z</time></trkpt><trkpt lat="39.5836298" lon="20.4780925"><ele>503.0</ele><time>2026-05-03T05:50:52.747Z</time></trkpt><trkpt lat="39.5837306" lon="20.4781536"><ele>512.0</ele><time>2026-05-03T05:50:53.746Z</time></trkpt><trkpt lat="39.583877" lon="20.4781807"><ele>521.0</ele><time>2026-05-03T05:50:54.748Z</time></trkpt><trkpt lat="39.5840617" lon="20.4781654"><ele>530.0</ele><time>2026-05-03T05:50:55.75Z</time></trkpt><trkpt lat="39.5842818" lon="20.4781396"><ele>530.0</ele><time>2026-05-03T05:50:56.75Z</time></trkpt><trkpt lat="39.5845108" lon="20.4780957"><ele>530.0</ele><time>2026-05-03T05:50:57.745Z</time></trkpt><trkpt lat="39.584737" lon="20.4780605"><ele>532.0</ele><time>2026-05-03T05:50:58.75Z</time></trkpt><trkpt lat="39.584943" lon="20.4780358"><ele>534.0</ele><time>2026-05-03T05:50:59.748Z</time></trkpt><trkpt lat="39.5851516" lon="20.478038"><ele>536.0</ele><time>2026-05-03T05:51:00.748Z</time></trkpt><trkpt lat="39.5853592" lon="20.4780466"><ele>537.0</ele><time>2026-05-03T05:51:01.75Z</time></trkpt><trkpt lat="39.5855849" lon="20.4780853"><ele>538.0</ele><time>2026-05-03T05:51:02.749Z</time></trkpt><trkpt lat="39.585794" lon="20.4781464"><ele>539.0</ele><time>2026-05-03T05:51:03.746Z</time></trkpt><trkpt lat="39.5859776" lon="20.478213"><ele>539.0</ele><time>2026-05-03T05:51:04.748Z</time></trkpt><trkpt lat="39.5861424" lon="20.4782731"><ele>539.0</ele><time>2026-05-03T05:51:05.748Z</time></trkpt><trkpt lat="39.5862888" lon="20.4783152"><ele>539.0</ele><time>2026-05-03T05:51:06.748Z</time></trkpt><trkpt lat="39.5864188" lon="20.4783238"><ele>539.25</ele><time>2026-05-03T05:51:07.748Z</time></trkpt><trkpt lat="39.586538" lon="20.4782965"><ele>539.5</ele><time>2026-05-03T05:51:08.747Z</time></trkpt><trkpt lat="39.5866423" lon="20.4782115"><ele>539.75</ele><time>2026-05-03T05:51:09.746Z</time></trkpt><trkpt lat="39.5867251" lon="20.4780809"><ele>540.0</ele><time>2026-05-03T05:51:10.749Z</time></trkpt><trkpt lat="39.5867813" lon="20.4778971"><ele>539.3333333333334</ele><time>2026-05-03T05:51:11.749Z</time></trkpt><trkpt lat="39.5868108" lon="20.4776734"><ele>538.6666666666667</ele><time>2026-05-03T05:51:12.75Z</time></trkpt><trkpt lat="39.5868253" lon="20.4774382"><ele>538.0</ele><time>2026-05-03T05:51:13.749Z</time></trkpt><trkpt lat="39.5868148" lon="20.4772118"><ele>537.75</ele><time>2026-05-03T05:51:14.747Z</time></trkpt><trkpt lat="39.586795" lon="20.4770078"><ele>537.5</ele><time>2026-05-03T05:51:15.75Z</time></trkpt><trkpt lat="39.5867712" lon="20.4768176"><ele>537.25</ele><time>2026-05-03T05:51:16.75Z</time></trkpt><trkpt lat="39.5867892" lon="20.4766594"><ele>537.0</ele><time>2026-05-03T05:51:17.75Z</time></trkpt><trkpt lat="39.5868196" lon="20.4765182"><ele>537.0</ele><time>2026-05-03T05:51:18.746Z</time></trkpt><trkpt lat="39.5868823" lon="20.4764219"><ele>537.0</ele><time>2026-05-03T05:51:19.749Z</time></trkpt><trkpt lat="39.5869525" lon="20.4763563"><ele>537.0</ele><time>2026-05-03T05:51:20.749Z</time></trkpt><trkpt lat="39.5870421" lon="20.4763383"><ele>537.0</ele><time>2026-05-03T05:51:21.75Z</time></trkpt><trkpt lat="39.5871048" lon="20.476441"><ele>537.0</ele><time>2026-05-03T05:51:22.749Z</time></trkpt><trkpt lat="39.58715" lon="20.4765667"><ele>544.3333333333334</ele><time>2026-05-03T05:51:23.748Z</time></trkpt><trkpt lat="39.587194" lon="20.4767298"><ele>551.6666666666667</ele><time>2026-05-03T05:51:24.748Z</time></trkpt><trkpt lat="39.5871979" lon="20.4769957"><ele>559.0</ele><time>2026-05-03T05:51:25.749Z</time></trkpt><trkpt lat="39.5872101" lon="20.4772693"><ele>561.5</ele><time>2026-05-03T05:51:26.748Z</time></trkpt><trkpt lat="39.5872261" lon="20.4775867"><ele>564.0</ele><time>2026-05-03T05:51:27.749Z</time></trkpt><trkpt lat="39.5872586" lon="20.4779192"><ele>563.0</ele><time>2026-05-03T05:51:28.749Z</time></trkpt><trkpt lat="39.5872989" lon="20.4782497"><ele>562.0</ele><time>2026-05-03T05:51:29.749Z</time></trkpt><trkpt lat="39.5873607" lon="20.4785613"><ele>561.6666666666667</ele><time>2026-05-03T05:51:30.749Z</time></trkpt><trkpt lat="39.5874088" lon="20.4788164"><ele>561.3333333333334</ele><time>2026-05-03T05:51:31.75Z</time></trkpt><trkpt lat="39.5874528" lon="20.4790418"><ele>561.0</ele><time>2026-05-03T05:51:32.747Z</time></trkpt><trkpt lat="39.5874742" lon="20.4792499"><ele>561.0</ele><time>2026-05-03T05:51:33.749Z</time></trkpt><trkpt lat="39.5874642" lon="20.4794396"><ele>561.0</ele><time>2026-05-03T05:51:34.748Z</time></trkpt><trkpt lat="39.5874207" lon="20.4795953"><ele>561.0</ele><time>2026-05-03T05:51:35.749Z</time></trkpt><trkpt lat="39.5873337" lon="20.4797285"><ele>561.0</ele><time>2026-05-03T05:51:36.749Z</time></trkpt><trkpt lat="39.5872454" lon="20.4798536"><ele>563.0</ele><time>2026-05-03T05:51:37.749Z</time></trkpt><trkpt lat="39.5871129" lon="20.4799382"><ele>565.0</ele><time>2026-05-03T05:51:38.748Z</time></trkpt><trkpt lat="39.5869822" lon="20.4799987"><ele>567.0</ele><time>2026-05-03T05:51:39.749Z</time></trkpt><trkpt lat="39.58681" lon="20.4799499"><ele>568.6666666666666</ele><time>2026-05-03T05:51:40.75Z</time></trkpt><trkpt lat="39.5866418" lon="20.4798548"><ele>570.3333333333333</ele><time>2026-05-03T05:51:41.748Z</time></trkpt><trkpt lat="39.5864637" lon="20.4797876"><ele>572.0</ele><time>2026-05-03T05:51:42.745Z</time></trkpt><trkpt lat="39.5862696" lon="20.4797542"><ele>574.0</ele><time>2026-05-03T05:51:43.745Z</time></trkpt><trkpt lat="39.5860757" lon="20.4797539"><ele>576.0</ele><time>2026-05-03T05:51:44.745Z</time></trkpt><trkpt lat="39.5858837" lon="20.4797953"><ele>578.0</ele><time>2026-05-03T05:51:45.748Z</time></trkpt><trkpt lat="39.5857114" lon="20.4798486"><ele>578.0</ele><time>2026-05-03T05:51:46.747Z</time></trkpt><trkpt lat="39.5855409" lon="20.4799338"><ele>578.0</ele><time>2026-05-03T05:51:47.749Z</time></trkpt><trkpt lat="39.585375" lon="20.4800317"><ele>578.0</ele><time>2026-05-03T05:51:48.75Z</time></trkpt><trkpt lat="39.5852071" lon="20.4801348"><ele>577.0</ele><time>2026-05-03T05:51:49.749Z</time></trkpt><trkpt lat="39.5850414" lon="20.4801856"><ele>576.0</ele><time>2026-05-03T05:51:50.749Z</time></trkpt><trkpt lat="39.5848631" lon="20.4802041"><ele>575.0</ele><time>2026-05-03T05:51:51.748Z</time></trkpt><trkpt lat="39.5846949" lon="20.4801788"><ele>575.0</ele><time>2026-05-03T05:51:52.749Z</time></trkpt><trkpt lat="39.584542" lon="20.4801219"><ele>575.0</ele><time>2026-05-03T05:51:53.75Z</time></trkpt><trkpt lat="39.5844133" lon="20.4800626"><ele>575.0</ele><time>2026-05-03T05:51:54.75Z</time></trkpt><trkpt lat="39.5842985" lon="20.4800191"><ele>575.0</ele><time>2026-05-03T05:51:55.749Z</time></trkpt><trkpt lat="39.5841891" lon="20.4800104"><ele>576.0</ele><time>2026-05-03T05:51:56.75Z</time></trkpt><trkpt lat="39.5840905" lon="20.4800289"><ele>577.0</ele><time>2026-05-03T05:51:57.749Z</time></trkpt><trkpt lat="39.584" lon="20.4800832"><ele>578.0</ele><time>2026-05-03T05:51:58.748Z</time></trkpt><trkpt lat="39.5839748" lon="20.4802045"><ele>579.0</ele><time>2026-05-03T05:51:59.749Z</time></trkpt><trkpt lat="39.5839634" lon="20.4803164"><ele>580.0</ele><time>2026-05-03T05:52:00.75Z</time></trkpt><trkpt lat="39.5839948" lon="20.4804265"><ele>584.75</ele><time>2026-05-03T05:52:01.749Z</time></trkpt><trkpt lat="39.5840703" lon="20.4805147"><ele>589.5</ele><time>2026-05-03T05:52:02.75Z</time></trkpt><trkpt lat="39.5842006" lon="20.4805856"><ele>594.25</ele><time>2026-05-03T05:52:03.749Z</time></trkpt><trkpt lat="39.5843725" lon="20.4806286"><ele>599.0</ele><time>2026-05-03T05:52:04.749Z</time></trkpt><trkpt lat="39.584577" lon="20.4806536"><ele>599.0</ele><time>2026-05-03T05:52:05.748Z</time></trkpt><trkpt lat="39.5848162" lon="20.480692"><ele>599.0</ele><time>2026-05-03T05:52:06.748Z</time></trkpt><trkpt lat="39.5850766" lon="20.480706"><ele>599.0</ele><time>2026-05-03T05:52:07.75Z</time></trkpt><trkpt lat="39.5853247" lon="20.4807314"><ele>599.0</ele><time>2026-05-03T05:52:08.749Z</time></trkpt><trkpt lat="39.5855496" lon="20.4807561"><ele>599.3333333333333</ele><time>2026-05-03T05:52:09.75Z</time></trkpt><trkpt lat="39.5857661" lon="20.4807919"><ele>599.6666666666666</ele><time>2026-05-03T05:52:10.748Z</time></trkpt><trkpt lat="39.5859735" lon="20.4808507"><ele>600.0</ele><time>2026-05-03T05:52:11.748Z</time></trkpt><trkpt lat="39.5861738" lon="20.4809274"><ele>598.3333333333334</ele><time>2026-05-03T05:52:12.75Z</time></trkpt><trkpt lat="39.5863769" lon="20.4810204"><ele>596.6666666666667</ele><time>2026-05-03T05:52:13.749Z</time></trkpt><trkpt lat="39.5865613" lon="20.4811171"><ele>595.0</ele><time>2026-05-03T05:52:14.748Z</time></trkpt><trkpt lat="39.5867385" lon="20.4812197"><ele>601.0</ele><time>2026-05-03T05:52:15.748Z</time></trkpt><trkpt lat="39.5869173" lon="20.4813246"><ele>607.0</ele><time>2026-05-03T05:52:16.749Z</time></trkpt><trkpt lat="39.5871049" lon="20.4814145"><ele>613.0</ele><time>2026-05-03T05:52:17.748Z</time></trkpt><trkpt lat="39.5872929" lon="20.4814934"><ele>613.0</ele><time>2026-05-03T05:52:18.749Z</time></trkpt><trkpt lat="39.5874907" lon="20.4815636"><ele>613.0</ele><time>2026-05-03T05:52:19.749Z</time></trkpt><trkpt lat="39.5876971" lon="20.4816325"><ele>613.0</ele><time>2026-05-03T05:52:20.749Z</time></trkpt><trkpt lat="39.5878994" lon="20.4817013"><ele>611.6666666666667</ele><time>2026-05-03T05:52:21.749Z</time></trkpt><trkpt lat="39.5881047" lon="20.4817629"><ele>610.3333333333334</ele><time>2026-05-03T05:52:22.748Z</time></trkpt><trkpt lat="39.5882975" lon="20.4818312"><ele>609.0</ele><time>2026-05-03T05:52:23.75Z</time></trkpt><trkpt lat="39.588491" lon="20.4818978"><ele>609.0</ele><time>2026-05-03T05:52:24.75Z</time></trkpt><trkpt lat="39.5886688" lon="20.4819582"><ele>609.0</ele><time>2026-05-03T05:52:25.749Z</time></trkpt><trkpt lat="39.5888414" lon="20.4820161"><ele>609.0</ele><time>2026-05-03T05:52:26.749Z</time></trkpt><trkpt lat="39.589011" lon="20.4820582"><ele>608.6666666666666</ele><time>2026-05-03T05:52:27.749Z</time></trkpt><trkpt lat="39.5891781" lon="20.4820795"><ele>608.3333333333333</ele><time>2026-05-03T05:52:28.75Z</time></trkpt><trkpt lat="39.5893328" lon="20.482069"><ele>608.0</ele><time>2026-05-03T05:52:29.747Z</time></trkpt><trkpt lat="39.589483" lon="20.4820368"><ele>612.0</ele><time>2026-05-03T05:52:30.748Z</time></trkpt><trkpt lat="39.5896298" lon="20.4819746"><ele>616.0</ele><time>2026-05-03T05:52:31.747Z</time></trkpt><trkpt lat="39.5897557" lon="20.4818657"><ele>620.0</ele><time>2026-05-03T05:52:32.748Z</time></trkpt><trkpt lat="39.589854" lon="20.4817299"><ele>624.0</ele><time>2026-05-03T05:52:33.749Z</time></trkpt><trkpt lat="39.5899274" lon="20.481561"><ele>624.0</ele><time>2026-05-03T05:52:34.748Z</time></trkpt><trkpt lat="39.5899852" lon="20.4813726"><ele>624.0</ele><time>2026-05-03T05:52:35.75Z</time></trkpt><trkpt lat="39.5900208" lon="20.4811579"><ele>624.0</ele><time>2026-05-03T05:52:36.75Z</time></trkpt><trkpt lat="39.5900511" lon="20.480941"><ele>623.6666666666666</ele><time>2026-05-03T05:52:37.749Z</time></trkpt><trkpt lat="39.590066" lon="20.4807223"><ele>623.3333333333333</ele><time>2026-05-03T05:52:38.75Z</time></trkpt><trkpt lat="39.5900639" lon="20.4805089"><ele>623.0</ele><time>2026-05-03T05:52:39.747Z</time></trkpt><trkpt lat="39.5900431" lon="20.4803056"><ele>623.5</ele><time>2026-05-03T05:52:40.75Z</time></trkpt><trkpt lat="39.5900027" lon="20.4801231"><ele>624.0</ele><time>2026-05-03T05:52:41.749Z</time></trkpt><trkpt lat="39.5899635" lon="20.4799558"><ele>624.5</ele><time>2026-05-03T05:52:42.747Z</time></trkpt><trkpt lat="39.5899312" lon="20.479805"><ele>625.0</ele><time>2026-05-03T05:52:43.749Z</time></trkpt><trkpt lat="39.5899344" lon="20.4796707"><ele>625.0</ele><time>2026-05-03T05:52:44.748Z</time></trkpt><trkpt lat="39.589966" lon="20.4795479"><ele>625.0</ele><time>2026-05-03T05:52:45.746Z</time></trkpt><trkpt lat="39.5900222" lon="20.4794491"><ele>625.0</ele><time>2026-05-03T05:52:46.747Z</time></trkpt><trkpt lat="39.5900856" lon="20.4793903"><ele>625.0</ele><time>2026-05-03T05:52:47.746Z</time></trkpt><trkpt lat="39.5901628" lon="20.479417"><ele>625.0</ele><time>2026-05-03T05:52:48.749Z</time></trkpt><trkpt lat="39.5902379" lon="20.4794504"><ele>625.0</ele><time>2026-05-03T05:52:49.749Z</time></trkpt><trkpt lat="39.5902864" lon="20.4795958"><ele>625.0</ele><time>2026-05-03T05:52:50.75Z</time></trkpt><trkpt lat="39.5903332" lon="20.4797473"><ele>625.0</ele><time>2026-05-03T05:52:51.75Z</time></trkpt><trkpt lat="39.5903656" lon="20.4799481"><ele>625.0</ele><time>2026-05-03T05:52:52.75Z</time></trkpt><trkpt lat="39.5903939" lon="20.4801766"><ele>626.0</ele><time>2026-05-03T05:52:53.749Z</time></trkpt><trkpt lat="39.5904221" lon="20.480411"><ele>627.0</ele><time>2026-05-03T05:52:54.748Z</time></trkpt><trkpt lat="39.590448" lon="20.4806517"><ele>628.0</ele><time>2026-05-03T05:52:55.749Z</time></trkpt><trkpt lat="39.5904594" lon="20.4809049"><ele>628.0</ele><time>2026-05-03T05:52:56.75Z</time></trkpt><trkpt lat="39.5904699" lon="20.481156"><ele>628.0</ele><time>2026-05-03T05:52:57.747Z</time></trkpt><trkpt lat="39.5904674" lon="20.481394"><ele>628.0</ele><time>2026-05-03T05:52:58.75Z</time></trkpt><trkpt lat="39.5904511" lon="20.4816383"><ele>626.3333333333334</ele><time>2026-05-03T05:52:59.75Z</time></trkpt><trkpt lat="39.5904266" lon="20.4818794"><ele>624.6666666666666</ele><time>2026-05-03T05:53:00.749Z</time></trkpt><trkpt lat="39.5903907" lon="20.4821141"><ele>623.0</ele><time>2026-05-03T05:53:01.75Z</time></trkpt><trkpt lat="39.5903531" lon="20.4823506"><ele>626.0</ele><time>2026-05-03T05:53:02.75Z</time></trkpt><trkpt lat="39.5903188" lon="20.4825773"><ele>629.0</ele><time>2026-05-03T05:53:03.75Z</time></trkpt><trkpt lat="39.5902779" lon="20.4828032"><ele>632.0</ele><time>2026-05-03T05:53:04.749Z</time></trkpt><trkpt lat="39.5902446" lon="20.483025"><ele>635.0</ele><time>2026-05-03T05:53:05.747Z</time></trkpt><trkpt lat="39.5902145" lon="20.4832486"><ele>638.0</ele><time>2026-05-03T05:53:06.747Z</time></trkpt><trkpt lat="39.5901869" lon="20.483475"><ele>641.0</ele><time>2026-05-03T05:53:07.75Z</time></trkpt><trkpt lat="39.5901733" lon="20.4837101"><ele>645.6666666666666</ele><time>2026-05-03T05:53:08.747Z</time></trkpt><trkpt lat="39.5901615" lon="20.4839518"><ele>650.3333333333334</ele><time>2026-05-03T05:53:09.75Z</time></trkpt><trkpt lat="39.5901576" lon="20.4841993"><ele>655.0</ele><time>2026-05-03T05:53:10.75Z</time></trkpt><trkpt lat="39.5901621" lon="20.4844462"><ele>657.3333333333334</ele><time>2026-05-03T05:53:11.749Z</time></trkpt><trkpt lat="39.5901803" lon="20.4846975"><ele>659.6666666666666</ele><time>2026-05-03T05:53:12.749Z</time></trkpt><trkpt lat="39.5902159" lon="20.484956"><ele>662.0</ele><time>2026-05-03T05:53:13.747Z</time></trkpt><trkpt lat="39.590254" lon="20.485213"><ele>665.3333333333333</ele><time>2026-05-03T05:53:14.75Z</time></trkpt><trkpt lat="39.5902951" lon="20.485468"><ele>668.6666666666666</ele><time>2026-05-03T05:53:15.749Z</time></trkpt><trkpt lat="39.5903511" lon="20.4857067"><ele>672.0</ele><time>2026-05-03T05:53:16.75Z</time></trkpt><trkpt lat="39.5904137" lon="20.4859454"><ele>659.6666666666666</ele><time>2026-05-03T05:53:17.749Z</time></trkpt><trkpt lat="39.5904905" lon="20.4861927"><ele>647.3333333333333</ele><time>2026-05-03T05:53:18.748Z</time></trkpt><trkpt lat="39.5905773" lon="20.4864211"><ele>635.0</ele><time>2026-05-03T05:53:19.749Z</time></trkpt><trkpt lat="39.5906823" lon="20.486651"><ele>635.0</ele><time>2026-05-03T05:53:20.75Z</time></trkpt><trkpt lat="39.5907907" lon="20.4868686"><ele>635.0</ele><time>2026-05-03T05:53:21.75Z</time></trkpt><trkpt lat="39.5909096" lon="20.487087"><ele>635.0</ele><time>2026-05-03T05:53:22.749Z</time></trkpt><trkpt lat="39.5910298" lon="20.4872994"><ele>631.3333333333333</ele><time>2026-05-03T05:53:23.749Z</time></trkpt><trkpt lat="39.5911568" lon="20.4874979"><ele>627.6666666666666</ele><time>2026-05-03T05:53:24.748Z</time></trkpt><trkpt lat="39.5913034" lon="20.4876822"><ele>624.0</ele><time>2026-05-03T05:53:25.749Z</time></trkpt><trkpt lat="39.5914671" lon="20.4878567"><ele>625.3333333333334</ele><time>2026-05-03T05:53:26.747Z</time></trkpt><trkpt lat="39.5916423" lon="20.488018"><ele>626.6666666666667</ele><time>2026-05-03T05:53:27.75Z</time></trkpt><trkpt lat="39.5918258" lon="20.4881729"><ele>628.0</ele><time>2026-05-03T05:53:28.749Z</time></trkpt><trkpt lat="39.5920131" lon="20.4883161"><ele>628.0</ele><time>2026-05-03T05:53:29.749Z</time></trkpt><trkpt lat="39.5921896" lon="20.488466"><ele>628.0</ele><time>2026-05-03T05:53:30.749Z</time></trkpt><trkpt lat="39.5923643" lon="20.4886268"><ele>628.0</ele><time>2026-05-03T05:53:31.749Z</time></trkpt><trkpt lat="39.5925419" lon="20.4888024"><ele>630.0</ele><time>2026-05-03T05:53:32.749Z</time></trkpt><trkpt lat="39.5927144" lon="20.4889705"><ele>632.0</ele><time>2026-05-03T05:53:33.75Z</time></trkpt><trkpt lat="39.5903188" lon="20.4825773"><ele>632.0</ele><time>2026-05-03T05:53:03.75Z</time></trkpt><trkpt lat="39.5902779" lon="20.4828032"><ele>632.0</ele><time>2026-05-03T05:53:04.749Z</time></trkpt><trkpt lat="39.5902446" lon="20.483025"><ele>632.0</ele><time>2026-05-03T05:53:05.747Z</time></trkpt><trkpt lat="39.5902145" lon="20.4832486"><ele>635.0</ele><time>2026-05-03T05:53:06.747Z</time></trkpt><trkpt lat="39.5901869" lon="20.483475"><ele>638.0</ele><time>2026-05-03T05:53:07.75Z</time></trkpt><trkpt lat="39.5901733" lon="20.4837101"><ele>641.0</ele><time>2026-05-03T05:53:08.747Z</time></trkpt><trkpt lat="39.5901615" lon="20.4839518"><ele>645.6666666666666</ele><time>2026-05-03T05:53:09.75Z</time></trkpt><trkpt lat="39.5901576" lon="20.4841993"><ele>650.3333333333334</ele><time>2026-05-03T05:53:10.75Z</time></trkpt><trkpt lat="39.5901621" lon="20.4844462"><ele>655.0</ele><time>2026-05-03T05:53:11.749Z</time></trkpt><trkpt lat="39.5901803" lon="20.4846975"><ele>657.3333333333334</ele><time>2026-05-03T05:53:12.749Z</time></trkpt><trkpt lat="39.5902159" lon="20.484956"><ele>659.6666666666666</ele><time>2026-05-03T05:53:13.747Z</time></trkpt><trkpt lat="39.590254" lon="20.485213"><ele>662.0</ele><time>2026-05-03T05:53:14.75Z</time></trkpt><trkpt lat="39.5902951" lon="20.485468"><ele>646.3333333333333</ele><time>2026-05-03T05:53:15.749Z</time></trkpt><trkpt lat="39.5903511" lon="20.4857067"><ele>630.6666666666666</ele><time>2026-05-03T05:53:16.75Z</time></trkpt><trkpt lat="39.5904137" lon="20.4859454"><ele>615.0</ele><time>2026-05-03T05:53:17.749Z</time></trkpt><trkpt lat="39.5904905" lon="20.4861927"><ele>621.6666666666666</ele><time>2026-05-03T05:53:18.748Z</time></trkpt><trkpt lat="39.5905773" lon="20.4864211"><ele>628.3333333333333</ele><time>2026-05-03T05:53:19.749Z</time></trkpt><trkpt lat="39.5906823" lon="20.486651"><ele>635.0</ele><time>2026-05-03T05:53:20.75Z</time></trkpt><trkpt lat="39.5907907" lon="20.4868686"><ele>635.0</ele><time>2026-05-03T05:53:21.75Z</time></trkpt><trkpt lat="39.5909096" lon="20.487087"><ele>635.0</ele><time>2026-05-03T05:53:22.749Z</time></trkpt><trkpt lat="39.5910298" lon="20.4872994"><ele>635.0</ele><time>2026-05-03T05:53:23.749Z</time></trkpt><trkpt lat="39.5911568" lon="20.4874979"><ele>631.3333333333333</ele><time>2026-05-03T05:53:24.748Z</time></trkpt><trkpt lat="39.5913034" lon="20.4876822"><ele>627.6666666666666</ele><time>2026-05-03T05:53:25.749Z</time></trkpt><trkpt lat="39.5914671" lon="20.4878567"><ele>624.0</ele><time>2026-05-03T05:53:26.747Z</time></trkpt><trkpt lat="39.5916423" lon="20.488018"><ele>625.3333333333334</ele><time>2026-05-03T05:53:27.75Z</time></trkpt><trkpt lat="39.5918258" lon="20.4881729"><ele>626.6666666666667</ele><time>2026-05-03T05:53:28.749Z</time></trkpt><trkpt lat="39.5920131" lon="20.4883161"><ele>628.0</ele><time>2026-05-03T05:53:29.749Z</time></trkpt><trkpt lat="39.5921896" lon="20.488466"><ele>628.0</ele><time>2026-05-03T05:53:30.749Z</time></trkpt><trkpt lat="39.5923643" lon="20.4886268"><ele>628.0</ele><time>2026-05-03T05:53:31.749Z</time></trkpt><trkpt lat="39.5925419" lon="20.4888024"><ele>628.0</ele><time>2026-05-03T05:53:32.749Z</time></trkpt><trkpt lat="39.5927144" lon="20.4889705"><ele>627.0</ele><time>2026-05-03T05:53:33.75Z</time></trkpt><trkpt lat="39.5928885" lon="20.489145"><ele>626.0</ele><time>2026-05-03T05:53:34.747Z</time></trkpt><trkpt lat="39.5930624" lon="20.48934"><ele>626.0</ele><time>2026-05-03T05:53:35.75Z</time></trkpt><trkpt lat="39.5932334" lon="20.4895376"><ele>626.0</ele><time>2026-05-03T05:53:36.747Z</time></trkpt><trkpt lat="39.5934013" lon="20.4897431"><ele>623.3333333333333</ele><time>2026-05-03T05:53:37.747Z</time></trkpt><trkpt lat="39.5935638" lon="20.489946"><ele>620.6666666666666</ele><time>2026-05-03T05:53:38.749Z</time></trkpt><trkpt lat="39.5937174" lon="20.4901239"><ele>618.0</ele><time>2026-05-03T05:53:39.748Z</time></trkpt><trkpt lat="39.5938571" lon="20.4902921"><ele>627.6666666666666</ele><time>2026-05-03T05:53:40.749Z</time></trkpt><trkpt lat="39.5939792" lon="20.4904479"><ele>637.3333333333333</ele><time>2026-05-03T05:53:41.749Z</time></trkpt><trkpt lat="39.5940885" lon="20.4905985"><ele>647.0</ele><time>2026-05-03T05:53:42.75Z</time></trkpt><trkpt lat="39.5941741" lon="20.4907506"><ele>647.0</ele><time>2026-05-03T05:53:43.75Z</time></trkpt><trkpt lat="39.594244" lon="20.4909117"><ele>647.0</ele><time>2026-05-03T05:53:44.75Z</time></trkpt><trkpt lat="39.5942947" lon="20.4910729"><ele>647.0</ele><time>2026-05-03T05:53:45.749Z</time></trkpt><trkpt lat="39.5943129" lon="20.4912557"><ele>647.0</ele><time>2026-05-03T05:53:46.749Z</time></trkpt><trkpt lat="39.594318" lon="20.4914384"><ele>649.6666666666666</ele><time>2026-05-03T05:53:47.748Z</time></trkpt><trkpt lat="39.5942693" lon="20.4916218"><ele>652.3333333333334</ele><time>2026-05-03T05:53:48.75Z</time></trkpt><trkpt lat="39.5942106" lon="20.4918232"><ele>655.0</ele><time>2026-05-03T05:53:49.748Z</time></trkpt><trkpt lat="39.5941413" lon="20.4920382"><ele>651.6666666666667</ele><time>2026-05-03T05:53:50.748Z</time></trkpt><trkpt lat="39.5940659" lon="20.4922636"><ele>648.3333333333334</ele><time>2026-05-03T05:53:51.749Z</time></trkpt><trkpt lat="39.593991" lon="20.4924847"><ele>645.0</ele><time>2026-05-03T05:53:52.75Z</time></trkpt><trkpt lat="39.5939122" lon="20.4927089"><ele>643.3333333333334</ele><time>2026-05-03T05:53:53.75Z</time></trkpt><trkpt lat="39.5938324" lon="20.4929319"><ele>641.6666666666667</ele><time>2026-05-03T05:53:54.75Z</time></trkpt><trkpt lat="39.5937645" lon="20.4931553"><ele>640.0</ele><time>2026-05-03T05:53:55.748Z</time></trkpt><trkpt lat="39.593728" lon="20.4933938"><ele>640.0</ele><time>2026-05-03T05:53:56.748Z</time></trkpt><trkpt lat="39.5936952" lon="20.4936331"><ele>640.0</ele><time>2026-05-03T05:53:57.749Z</time></trkpt><trkpt lat="39.5936961" lon="20.4938741"><ele>640.0</ele><time>2026-05-03T05:53:58.748Z</time></trkpt><trkpt lat="39.593708" lon="20.494101"><ele>640.6666666666667</ele><time>2026-05-03T05:53:59.748Z</time></trkpt><trkpt lat="39.5937448" lon="20.4943234"><ele>641.3333333333334</ele><time>2026-05-03T05:54:00.749Z</time></trkpt><trkpt lat="39.5938215" lon="20.4945316"><ele>642.0</ele><time>2026-05-03T05:54:01.75Z</time></trkpt><trkpt lat="39.5939197" lon="20.4947259"><ele>643.3333333333334</ele><time>2026-05-03T05:54:02.75Z</time></trkpt><trkpt lat="39.5940328" lon="20.4949051"><ele>644.6666666666667</ele><time>2026-05-03T05:54:03.749Z</time></trkpt><trkpt lat="39.594164" lon="20.495058"><ele>646.0</ele><time>2026-05-03T05:54:04.749Z</time></trkpt><trkpt lat="39.5943077" lon="20.4951879"><ele>646.0</ele><time>2026-05-03T05:54:05.75Z</time></trkpt><trkpt lat="39.5944654" lon="20.4952885"><ele>646.0</ele><time>2026-05-03T05:54:06.747Z</time></trkpt><trkpt lat="39.5946388" lon="20.495359"><ele>646.0</ele><time>2026-05-03T05:54:07.749Z</time></trkpt><trkpt lat="39.5948238" lon="20.4953937"><ele>646.3333333333334</ele><time>2026-05-03T05:54:08.75Z</time></trkpt><trkpt lat="39.5950232" lon="20.4953998"><ele>646.6666666666666</ele><time>2026-05-03T05:54:09.75Z</time></trkpt><trkpt lat="39.5952328" lon="20.4953649"><ele>647.0</ele><time>2026-05-03T05:54:10.75Z</time></trkpt><trkpt lat="39.5954408" lon="20.4952958"><ele>650.5</ele><time>2026-05-03T05:54:11.75Z</time></trkpt><trkpt lat="39.5956521" lon="20.4951923"><ele>654.0</ele><time>2026-05-03T05:54:12.749Z</time></trkpt><trkpt lat="39.5958641" lon="20.4950834"><ele>654.0</ele><time>2026-05-03T05:54:13.749Z</time></trkpt><trkpt lat="39.5960764" lon="20.4949699"><ele>654.0</ele><time>2026-05-03T05:54:14.748Z</time></trkpt><trkpt lat="39.5962806" lon="20.4948661"><ele>654.0</ele><time>2026-05-03T05:54:15.75Z</time></trkpt><trkpt lat="39.5964847" lon="20.4947523"><ele>655.6666666666666</ele><time>2026-05-03T05:54:16.75Z</time></trkpt><trkpt lat="39.5966871" lon="20.4946438"><ele>657.3333333333333</ele><time>2026-05-03T05:54:17.749Z</time></trkpt><trkpt lat="39.5968822" lon="20.4945347"><ele>659.0</ele><time>2026-05-03T05:54:18.75Z</time></trkpt><trkpt lat="39.5970805" lon="20.4944332"><ele>661.3333333333333</ele><time>2026-05-03T05:54:19.749Z</time></trkpt><trkpt lat="39.5972661" lon="20.4943323"><ele>663.6666666666666</ele><time>2026-05-03T05:54:20.75Z</time></trkpt><trkpt lat="39.5974397" lon="20.4942521"><ele>666.0</ele><time>2026-05-03T05:54:21.749Z</time></trkpt><trkpt lat="39.597613" lon="20.4941777"><ele>666.0</ele><time>2026-05-03T05:54:22.747Z</time></trkpt><trkpt lat="39.5977671" lon="20.4941029"><ele>666.0</ele><time>2026-05-03T05:54:23.75Z</time></trkpt><trkpt lat="39.5979169" lon="20.4940527"><ele>666.0</ele><time>2026-05-03T05:54:24.749Z</time></trkpt><trkpt lat="39.5980759" lon="20.4940096"><ele>667.3333333333334</ele><time>2026-05-03T05:54:25.749Z</time></trkpt><trkpt lat="39.5982405" lon="20.493963"><ele>668.6666666666667</ele><time>2026-05-03T05:54:26.75Z</time></trkpt><trkpt lat="39.598401" lon="20.4939295"><ele>670.0</ele><time>2026-05-03T05:54:27.749Z</time></trkpt><trkpt lat="39.5985623" lon="20.4938988"><ele>669.3333333333334</ele><time>2026-05-03T05:54:28.749Z</time></trkpt><trkpt lat="39.598723" lon="20.4938815"><ele>668.6666666666666</ele><time>2026-05-03T05:54:29.749Z</time></trkpt><trkpt lat="39.5988867" lon="20.4938662"><ele>668.0</ele><time>2026-05-03T05:54:30.75Z</time></trkpt><trkpt lat="39.5990534" lon="20.4938574"><ele>668.0</ele><time>2026-05-03T05:54:31.749Z</time></trkpt><trkpt lat="39.599227" lon="20.4938604"><ele>668.0</ele><time>2026-05-03T05:54:32.749Z</time></trkpt><trkpt lat="39.5993885" lon="20.4938769"><ele>668.0</ele><time>2026-05-03T05:54:33.749Z</time></trkpt><trkpt lat="39.5995512" lon="20.4939168"><ele>666.3333333333333</ele><time>2026-05-03T05:54:34.75Z</time></trkpt><trkpt lat="39.5997111" lon="20.493987"><ele>664.6666666666666</ele><time>2026-05-03T05:54:35.749Z</time></trkpt><trkpt lat="39.5998638" lon="20.4940813"><ele>663.0</ele><time>2026-05-03T05:54:36.748Z</time></trkpt><trkpt lat="39.6000221" lon="20.4941702"><ele>663.0</ele><time>2026-05-03T05:54:37.75Z</time></trkpt><trkpt lat="39.6001858" lon="20.4942535"><ele>663.0</ele><time>2026-05-03T05:54:38.747Z</time></trkpt><trkpt lat="39.6003607" lon="20.4943015"><ele>663.0</ele><time>2026-05-03T05:54:39.75Z</time></trkpt><trkpt lat="39.600539" lon="20.4943323"><ele>661.6666666666666</ele><time>2026-05-03T05:54:40.749Z</time></trkpt><trkpt lat="39.6007247" lon="20.4943392"><ele>660.3333333333333</ele><time>2026-05-03T05:54:41.75Z</time></trkpt><trkpt lat="39.6009062" lon="20.4943363"><ele>659.0</ele><time>2026-05-03T05:54:42.75Z</time></trkpt><trkpt lat="39.6010837" lon="20.49433"><ele>657.0</ele><time>2026-05-03T05:54:43.75Z</time></trkpt><trkpt lat="39.6012516" lon="20.4943482"><ele>655.0</ele><time>2026-05-03T05:54:44.749Z</time></trkpt><trkpt lat="39.6014123" lon="20.4943681"><ele>653.0</ele><time>2026-05-03T05:54:45.749Z</time></trkpt><trkpt lat="39.6015698" lon="20.4944163"><ele>653.0</ele><time>2026-05-03T05:54:46.748Z</time></trkpt><trkpt lat="39.6017113" lon="20.494493"><ele>653.0</ele><time>2026-05-03T05:54:47.748Z</time></trkpt><trkpt lat="39.6018357" lon="20.4945867"><ele>653.0</ele><time>2026-05-03T05:54:48.749Z</time></trkpt><trkpt lat="39.6019487" lon="20.4947158"><ele>653.0</ele><time>2026-05-03T05:54:49.75Z</time></trkpt><trkpt lat="39.6020654" lon="20.4948536"><ele>652.0</ele><time>2026-05-03T05:54:50.749Z</time></trkpt><trkpt lat="39.6021831" lon="20.4949991"><ele>651.0</ele><time>2026-05-03T05:54:51.75Z</time></trkpt><trkpt lat="39.6023096" lon="20.495146"><ele>650.0</ele><time>2026-05-03T05:54:52.749Z</time></trkpt><trkpt lat="39.602435" lon="20.4952889"><ele>649.0</ele><time>2026-05-03T05:54:53.749Z</time></trkpt><trkpt lat="39.6025683" lon="20.4954558"><ele>648.0</ele><time>2026-05-03T05:54:54.75Z</time></trkpt><trkpt lat="39.6027016" lon="20.4956197"><ele>647.0</ele><time>2026-05-03T05:54:55.749Z</time></trkpt><trkpt lat="39.6028371" lon="20.4957874"><ele>647.0</ele><time>2026-05-03T05:54:56.75Z</time></trkpt><trkpt lat="39.6029712" lon="20.4959542"><ele>647.0</ele><time>2026-05-03T05:54:57.748Z</time></trkpt><trkpt lat="39.6031012" lon="20.4961208"><ele>647.0</ele><time>2026-05-03T05:54:58.749Z</time></trkpt><trkpt lat="39.6032297" lon="20.4962805"><ele>648.3333333333333</ele><time>2026-05-03T05:54:59.749Z</time></trkpt><trkpt lat="39.6033529" lon="20.4964365"><ele>649.6666666666666</ele><time>2026-05-03T05:55:00.75Z</time></trkpt><trkpt lat="39.603459" lon="20.4965966"><ele>651.0</ele><time>2026-05-03T05:55:01.749Z</time></trkpt><trkpt lat="39.6035609" lon="20.4967669"><ele>651.0</ele><time>2026-05-03T05:55:02.748Z</time></trkpt><trkpt lat="39.603652" lon="20.4969629"><ele>651.0</ele><time>2026-05-03T05:55:03.749Z</time></trkpt><trkpt lat="39.6037335" lon="20.497176"><ele>651.0</ele><time>2026-05-03T05:55:04.749Z</time></trkpt><trkpt lat="39.6038093" lon="20.4973918"><ele>651.0</ele><time>2026-05-03T05:55:05.749Z</time></trkpt><trkpt lat="39.6038947" lon="20.4976224"><ele>651.0</ele><time>2026-05-03T05:55:06.75Z</time></trkpt><trkpt lat="39.6039724" lon="20.4978524"><ele>651.0</ele><time>2026-05-03T05:55:07.749Z</time></trkpt><trkpt lat="39.6040432" lon="20.4980837"><ele>647.6666666666666</ele><time>2026-05-03T05:55:08.748Z</time></trkpt><trkpt lat="39.6041197" lon="20.4983038"><ele>644.3333333333333</ele><time>2026-05-03T05:55:09.748Z</time></trkpt><trkpt lat="39.6042069" lon="20.4985164"><ele>641.0</ele><time>2026-05-03T05:55:10.748Z</time></trkpt><trkpt lat="39.6043049" lon="20.498728"><ele>642.0</ele><time>2026-05-03T05:55:11.749Z</time></trkpt><trkpt lat="39.6044103" lon="20.4989231"><ele>643.0</ele><time>2026-05-03T05:55:12.748Z</time></trkpt><trkpt lat="39.6045388" lon="20.4991097"><ele>644.0</ele><time>2026-05-03T05:55:13.748Z</time></trkpt><trkpt lat="39.6046678" lon="20.4992779"><ele>643.0</ele><time>2026-05-03T05:55:14.75Z</time></trkpt><trkpt lat="39.6048003" lon="20.4994375"><ele>642.0</ele><time>2026-05-03T05:55:15.75Z</time></trkpt><trkpt lat="39.6049343" lon="20.4995925"><ele>641.0</ele><time>2026-05-03T05:55:16.75Z</time></trkpt><trkpt lat="39.605063" lon="20.4997393"><ele>641.0</ele><time>2026-05-03T05:55:17.749Z</time></trkpt><trkpt lat="39.6051925" lon="20.4998694"><ele>641.0</ele><time>2026-05-03T05:55:18.749Z</time></trkpt><trkpt lat="39.6053304" lon="20.4999767"><ele>641.0</ele><time>2026-05-03T05:55:19.748Z</time></trkpt><trkpt lat="39.6054725" lon="20.500042"><ele>636.0</ele><time>2026-05-03T05:55:20.75Z</time></trkpt><trkpt lat="39.6056265" lon="20.5000735"><ele>631.0</ele><time>2026-05-03T05:55:21.75Z</time></trkpt><trkpt lat="39.6057877" lon="20.5000808"><ele>626.0</ele><time>2026-05-03T05:55:22.75Z</time></trkpt><trkpt lat="39.6059601" lon="20.5000849"><ele>626.0</ele><time>2026-05-03T05:55:23.749Z</time></trkpt><trkpt lat="39.606139" lon="20.5000956"><ele>626.0</ele><time>2026-05-03T05:55:24.75Z</time></trkpt><trkpt lat="39.606314" lon="20.5001033"><ele>626.0</ele><time>2026-05-03T05:55:25.748Z</time></trkpt><trkpt lat="39.6064974" lon="20.5001134"><ele>623.3333333333333</ele><time>2026-05-03T05:55:26.747Z</time></trkpt><trkpt lat="39.6066745" lon="20.500121"><ele>620.6666666666666</ele><time>2026-05-03T05:55:27.749Z</time></trkpt><trkpt lat="39.6068646" lon="20.5001338"><ele>618.0</ele><time>2026-05-03T05:55:28.75Z</time></trkpt><trkpt lat="39.6070509" lon="20.5001584"><ele>615.6666666666666</ele><time>2026-05-03T05:55:29.75Z</time></trkpt><trkpt lat="39.6072377" lon="20.5001845"><ele>613.3333333333333</ele><time>2026-05-03T05:55:30.749Z</time></trkpt><trkpt lat="39.6074273" lon="20.5002229"><ele>611.0</ele><time>2026-05-03T05:55:31.75Z</time></trkpt><trkpt lat="39.6076168" lon="20.5002671"><ele>611.0</ele><time>2026-05-03T05:55:32.75Z</time></trkpt><trkpt lat="39.6078036" lon="20.5003197"><ele>611.0</ele><time>2026-05-03T05:55:33.749Z</time></trkpt><trkpt lat="39.6079985" lon="20.5003666"><ele>611.0</ele><time>2026-05-03T05:55:34.749Z</time></trkpt><trkpt lat="39.608189" lon="20.5004135"><ele>611.6666666666666</ele><time>2026-05-03T05:55:35.749Z</time></trkpt><trkpt lat="39.608376" lon="20.5004613"><ele>612.3333333333334</ele><time>2026-05-03T05:55:36.747Z</time></trkpt><trkpt lat="39.6085661" lon="20.5005121"><ele>613.0</ele><time>2026-05-03T05:55:37.749Z</time></trkpt><trkpt lat="39.6087494" lon="20.5005686"><ele>613.0</ele><time>2026-05-03T05:55:38.749Z</time></trkpt><trkpt lat="39.6089266" lon="20.5006452"><ele>613.0</ele><time>2026-05-03T05:55:39.75Z</time></trkpt><trkpt lat="39.6090959" lon="20.5007429"><ele>613.0</ele><time>2026-05-03T05:55:40.749Z</time></trkpt><trkpt lat="39.6092607" lon="20.5008456"><ele>613.0</ele><time>2026-05-03T05:55:41.75Z</time></trkpt><trkpt lat="39.6094169" lon="20.5009544"><ele>613.0</ele><time>2026-05-03T05:55:42.747Z</time></trkpt><trkpt lat="39.6095664" lon="20.5010533"><ele>613.0</ele><time>2026-05-03T05:55:43.749Z</time></trkpt><trkpt lat="39.6097186" lon="20.5011259"><ele>606.3333333333334</ele><time>2026-05-03T05:55:44.749Z</time></trkpt><trkpt lat="39.6098773" lon="20.5011568"><ele>599.6666666666666</ele><time>2026-05-03T05:55:45.749Z</time></trkpt><trkpt lat="39.6100322" lon="20.5011638"><ele>593.0</ele><time>2026-05-03T05:55:46.748Z</time></trkpt><trkpt lat="39.6101921" lon="20.5011597"><ele>594.75</ele><time>2026-05-03T05:55:47.747Z</time></trkpt><trkpt lat="39.6103499" lon="20.5011617"><ele>596.5</ele><time>2026-05-03T05:55:48.746Z</time></trkpt><trkpt lat="39.6104704" lon="20.501193"><ele>598.25</ele><time>2026-05-03T05:55:49.749Z</time></trkpt><trkpt lat="39.6106056" lon="20.5012327"><ele>600.0</ele><time>2026-05-03T05:55:50.748Z</time></trkpt><trkpt lat="39.6107177" lon="20.5012932"><ele>600.0</ele><time>2026-05-03T05:55:51.749Z</time></trkpt><trkpt lat="39.6108008" lon="20.5013832"><ele>600.0</ele><time>2026-05-03T05:55:52.749Z</time></trkpt><trkpt lat="39.6108544" lon="20.5015113"><ele>600.0</ele><time>2026-05-03T05:55:53.748Z</time></trkpt><trkpt lat="39.6109003" lon="20.5016362"><ele>600.0</ele><time>2026-05-03T05:55:54.749Z</time></trkpt><trkpt lat="39.6109523" lon="20.5017411"><ele>600.0</ele><time>2026-05-03T05:55:55.75Z</time></trkpt><trkpt lat="39.6110254" lon="20.5018247"><ele>600.0</ele><time>2026-05-03T05:55:56.749Z</time></trkpt><trkpt lat="39.6111194" lon="20.5018636"><ele>600.0</ele><time>2026-05-03T05:55:57.75Z</time></trkpt><trkpt lat="39.6112275" lon="20.5018676"><ele>600.0</ele><time>2026-05-03T05:55:58.746Z</time></trkpt><trkpt lat="39.6113344" lon="20.5018318"><ele>600.0</ele><time>2026-05-03T05:55:59.749Z</time></trkpt><trkpt lat="39.6114416" lon="20.5017641"><ele>600.0</ele><time>2026-05-03T05:56:00.748Z</time></trkpt><trkpt lat="39.6115439" lon="20.5016924"><ele>599.75</ele><time>2026-05-03T05:56:01.75Z</time></trkpt><trkpt lat="39.6116695" lon="20.5016404"><ele>599.5</ele><time>2026-05-03T05:56:02.75Z</time></trkpt><trkpt lat="39.6118047" lon="20.5016056"><ele>599.25</ele><time>2026-05-03T05:56:03.75Z</time></trkpt><trkpt lat="39.6119501" lon="20.5016063"><ele>599.0</ele><time>2026-05-03T05:56:04.747Z</time></trkpt><trkpt lat="39.6121026" lon="20.5016024"><ele>599.0</ele><time>2026-05-03T05:56:05.747Z</time></trkpt><trkpt lat="39.6122602" lon="20.5016143"><ele>599.0</ele><time>2026-05-03T05:56:06.749Z</time></trkpt><trkpt lat="39.612427" lon="20.5016317"><ele>599.0</ele><time>2026-05-03T05:56:07.75Z</time></trkpt><trkpt lat="39.6125893" lon="20.5016648"><ele>599.0</ele><time>2026-05-03T05:56:08.749Z</time></trkpt><trkpt lat="39.6127506" lon="20.5017061"><ele>599.0</ele><time>2026-05-03T05:56:09.75Z</time></trkpt><trkpt lat="39.6129106" lon="20.5017474"><ele>599.0</ele><time>2026-05-03T05:56:10.749Z</time></trkpt><trkpt lat="39.613061" lon="20.5017855"><ele>595.0</ele><time>2026-05-03T05:56:11.75Z</time></trkpt><trkpt lat="39.6132016" lon="20.5018252"><ele>591.0</ele><time>2026-05-03T05:56:12.749Z</time></trkpt><trkpt lat="39.6133306" lon="20.501873"><ele>587.0</ele><time>2026-05-03T05:56:13.749Z</time></trkpt><trkpt lat="39.6134549" lon="20.5019246"><ele>583.0</ele><time>2026-05-03T05:56:14.75Z</time></trkpt><trkpt lat="39.6135569" lon="20.50201"><ele>586.25</ele><time>2026-05-03T05:56:15.748Z</time></trkpt><trkpt lat="39.6136498" lon="20.5021209"><ele>589.5</ele><time>2026-05-03T05:56:16.75Z</time></trkpt><trkpt lat="39.6137426" lon="20.5022348"><ele>592.75</ele><time>2026-05-03T05:56:17.748Z</time></trkpt><trkpt lat="39.6138369" lon="20.5023361"><ele>596.0</ele><time>2026-05-03T05:56:18.749Z</time></trkpt><trkpt lat="39.6139413" lon="20.5024163"><ele>596.0</ele><time>2026-05-03T05:56:19.747Z</time></trkpt><trkpt lat="39.61405" lon="20.502466"><ele>596.0</ele><time>2026-05-03T05:56:20.747Z</time></trkpt><trkpt lat="39.6141648" lon="20.5024693"><ele>596.0</ele><time>2026-05-03T05:56:21.75Z</time></trkpt><trkpt lat="39.6142808" lon="20.5024304"><ele>596.0</ele><time>2026-05-03T05:56:22.747Z</time></trkpt><trkpt lat="39.6143921" lon="20.5023574"><ele>598.5</ele><time>2026-05-03T05:56:23.748Z</time></trkpt><trkpt lat="39.6145006" lon="20.502267"><ele>601.0</ele><time>2026-05-03T05:56:24.75Z</time></trkpt><trkpt lat="39.6146114" lon="20.5021671"><ele>603.5</ele><time>2026-05-03T05:56:25.748Z</time></trkpt><trkpt lat="39.6147245" lon="20.5020736"><ele>606.0</ele><time>2026-05-03T05:56:26.749Z</time></trkpt><trkpt lat="39.6148523" lon="20.502003"><ele>598.25</ele><time>2026-05-03T05:56:27.749Z</time></trkpt><trkpt lat="39.6149863" lon="20.5019546"><ele>590.5</ele><time>2026-05-03T05:56:28.749Z</time></trkpt><trkpt lat="39.6151247" lon="20.5019234"><ele>582.75</ele><time>2026-05-03T05:56:29.747Z</time></trkpt><trkpt lat="39.6152719" lon="20.5018961"><ele>575.0</ele><time>2026-05-03T05:56:30.748Z</time></trkpt><trkpt lat="39.6154115" lon="20.5018414"><ele>575.0</ele><time>2026-05-03T05:56:31.75Z</time></trkpt><trkpt lat="39.6155405" lon="20.50176"><ele>575.0</ele><time>2026-05-03T05:56:32.75Z</time></trkpt><trkpt lat="39.6156569" lon="20.5016685"><ele>575.0</ele><time>2026-05-03T05:56:33.749Z</time></trkpt><trkpt lat="39.6157722" lon="20.5015844"><ele>575.0</ele><time>2026-05-03T05:56:34.748Z</time></trkpt><trkpt lat="39.6158857" lon="20.5015166"><ele>575.0</ele><time>2026-05-03T05:56:35.748Z</time></trkpt><trkpt lat="39.6160042" lon="20.5014777"><ele>575.0</ele><time>2026-05-03T05:56:36.748Z</time></trkpt><trkpt lat="39.6161228" lon="20.5014607"><ele>575.0</ele><time>2026-05-03T05:56:37.75Z</time></trkpt><trkpt lat="39.6162455" lon="20.5014851"><ele>575.0</ele><time>2026-05-03T05:56:38.748Z</time></trkpt><trkpt lat="39.6163675" lon="20.5015388"><ele>572.25</ele><time>2026-05-03T05:56:39.749Z</time></trkpt><trkpt lat="39.616499" lon="20.5016011"><ele>569.5</ele><time>2026-05-03T05:56:40.749Z</time></trkpt><trkpt lat="39.6166285" lon="20.5016872"><ele>566.75</ele><time>2026-05-03T05:56:41.749Z</time></trkpt><trkpt lat="39.6167558" lon="20.5017826"><ele>564.0</ele><time>2026-05-03T05:56:42.749Z</time></trkpt><trkpt lat="39.6168738" lon="20.501892"><ele>564.0</ele><time>2026-05-03T05:56:43.75Z</time></trkpt><trkpt lat="39.6169788" lon="20.5020233"><ele>564.0</ele><time>2026-05-03T05:56:44.75Z</time></trkpt><trkpt lat="39.6170733" lon="20.5021465"><ele>564.0</ele><time>2026-05-03T05:56:45.749Z</time></trkpt><trkpt lat="39.6171373" lon="20.5022996"><ele>564.0</ele><time>2026-05-03T05:56:46.75Z</time></trkpt><trkpt lat="39.6171805" lon="20.5024672"><ele>561.0</ele><time>2026-05-03T05:56:47.748Z</time></trkpt><trkpt lat="39.617194" lon="20.5026601"><ele>558.0</ele><time>2026-05-03T05:56:48.75Z</time></trkpt><trkpt lat="39.617198" lon="20.5028545"><ele>555.0</ele><time>2026-05-03T05:56:49.749Z</time></trkpt><trkpt lat="39.6171952" lon="20.5030353"><ele>552.0</ele><time>2026-05-03T05:56:50.748Z</time></trkpt><trkpt lat="39.6171943" lon="20.5032113"><ele>552.0</ele><time>2026-05-03T05:56:51.75Z</time></trkpt><trkpt lat="39.6172093" lon="20.5033777"><ele>552.0</ele><time>2026-05-03T05:56:52.746Z</time></trkpt><trkpt lat="39.6172542" lon="20.5035241"><ele>552.0</ele><time>2026-05-03T05:56:53.75Z</time></trkpt><trkpt lat="39.6173324" lon="20.5036499"><ele>552.0</ele><time>2026-05-03T05:56:54.748Z</time></trkpt><trkpt lat="39.6174366" lon="20.5037489"><ele>556.5</ele><time>2026-05-03T05:56:55.75Z</time></trkpt><trkpt lat="39.6175618" lon="20.5038148"><ele>561.0</ele><time>2026-05-03T05:56:56.75Z</time></trkpt><trkpt lat="39.6177037" lon="20.5038492"><ele>565.5</ele><time>2026-05-03T05:56:57.75Z</time></trkpt><trkpt lat="39.6178543" lon="20.5038573"><ele>570.0</ele><time>2026-05-03T05:56:58.749Z</time></trkpt><trkpt lat="39.6180104" lon="20.5038537"><ele>570.0</ele><time>2026-05-03T05:56:59.749Z</time></trkpt><trkpt lat="39.6181694" lon="20.5038535"><ele>570.0</ele><time>2026-05-03T05:57:00.748Z</time></trkpt><trkpt lat="39.618329" lon="20.503871"><ele>570.0</ele><time>2026-05-03T05:57:01.749Z</time></trkpt><trkpt lat="39.6184964" lon="20.5038994"><ele>563.0</ele><time>2026-05-03T05:57:02.747Z</time></trkpt><trkpt lat="39.6186674" lon="20.5039411"><ele>556.0</ele><time>2026-05-03T05:57:03.75Z</time></trkpt><trkpt lat="39.6188438" lon="20.5039981"><ele>549.0</ele><time>2026-05-03T05:57:04.748Z</time></trkpt><trkpt lat="39.6190121" lon="20.504064"><ele>549.0</ele><time>2026-05-03T05:57:05.749Z</time></trkpt><trkpt lat="39.6191718" lon="20.504139"><ele>549.0</ele><time>2026-05-03T05:57:06.747Z</time></trkpt><trkpt lat="39.6193161" lon="20.5042274"><ele>549.0</ele><time>2026-05-03T05:57:07.748Z</time></trkpt><trkpt lat="39.6194485" lon="20.5043157"><ele>546.5</ele><time>2026-05-03T05:57:08.748Z</time></trkpt><trkpt lat="39.6195776" lon="20.5043777"><ele>544.0</ele><time>2026-05-03T05:57:09.749Z</time></trkpt><trkpt lat="39.6197001" lon="20.5043914"><ele>541.5</ele><time>2026-05-03T05:57:10.749Z</time></trkpt><trkpt lat="39.6198334" lon="20.5043708"><ele>539.0</ele><time>2026-05-03T05:57:11.75Z</time></trkpt><trkpt lat="39.6199703" lon="20.5043316"><ele>539.0</ele><time>2026-05-03T05:57:12.749Z</time></trkpt><trkpt lat="39.6201191" lon="20.5042755"><ele>539.0</ele><time>2026-05-03T05:57:13.749Z</time></trkpt><trkpt lat="39.6202703" lon="20.5042162"><ele>539.0</ele><time>2026-05-03T05:57:14.749Z</time></trkpt><trkpt lat="39.6204252" lon="20.504163"><ele>540.0</ele><time>2026-05-03T05:57:15.748Z</time></trkpt><trkpt lat="39.6205861" lon="20.5041138"><ele>541.0</ele><time>2026-05-03T05:57:16.748Z</time></trkpt><trkpt lat="39.6207467" lon="20.5040934"><ele>542.0</ele><time>2026-05-03T05:57:17.749Z</time></trkpt><trkpt lat="39.6209074" lon="20.5040964"><ele>542.0</ele><time>2026-05-03T05:57:18.747Z</time></trkpt><trkpt lat="39.6210792" lon="20.5041147"><ele>542.0</ele><time>2026-05-03T05:57:19.748Z</time></trkpt><trkpt lat="39.6212533" lon="20.5041294"><ele>542.0</ele><time>2026-05-03T05:57:20.75Z</time></trkpt><trkpt lat="39.621422" lon="20.5041146"><ele>540.3333333333333</ele><time>2026-05-03T05:57:21.75Z</time></trkpt><trkpt lat="39.6215785" lon="20.5040825"><ele>538.6666666666666</ele><time>2026-05-03T05:57:22.746Z</time></trkpt><trkpt lat="39.6217359" lon="20.5040447"><ele>537.0</ele><time>2026-05-03T05:57:23.749Z</time></trkpt><trkpt lat="39.6218946" lon="20.5040153"><ele>535.6666666666666</ele><time>2026-05-03T05:57:24.749Z</time></trkpt><trkpt lat="39.6220489" lon="20.5040037"><ele>534.3333333333333</ele><time>2026-05-03T05:57:25.748Z</time></trkpt><trkpt lat="39.622207" lon="20.5040075"><ele>533.0</ele><time>2026-05-03T05:57:26.747Z</time></trkpt><trkpt lat="39.6223717" lon="20.5040485"><ele>533.0</ele><time>2026-05-03T05:57:27.75Z</time></trkpt><trkpt lat="39.622532" lon="20.5041119"><ele>533.0</ele><time>2026-05-03T05:57:28.748Z</time></trkpt><trkpt lat="39.6226914" lon="20.5041849"><ele>533.0</ele><time>2026-05-03T05:57:29.749Z</time></trkpt><trkpt lat="39.6228422" lon="20.5042581"><ele>529.75</ele><time>2026-05-03T05:57:30.749Z</time></trkpt><trkpt lat="39.6229891" lon="20.5043055"><ele>526.5</ele><time>2026-05-03T05:57:31.749Z</time></trkpt><trkpt lat="39.6231372" lon="20.5043166"><ele>523.25</ele><time>2026-05-03T05:57:32.749Z</time></trkpt><trkpt lat="39.6232783" lon="20.5042815"><ele>520.0</ele><time>2026-05-03T05:57:33.749Z</time></trkpt><trkpt lat="39.6234116" lon="20.5042314"><ele>520.0</ele><time>2026-05-03T05:57:34.748Z</time></trkpt><trkpt lat="39.6235601" lon="20.5041997"><ele>520.0</ele><time>2026-05-03T05:57:35.749Z</time></trkpt><trkpt lat="39.6237235" lon="20.5041964"><ele>520.0</ele><time>2026-05-03T05:57:36.749Z</time></trkpt><trkpt lat="39.6238924" lon="20.5042169"><ele>519.0</ele><time>2026-05-03T05:57:37.749Z</time></trkpt><trkpt lat="39.6240613" lon="20.5042626"><ele>518.0</ele><time>2026-05-03T05:57:38.748Z</time></trkpt><trkpt lat="39.624231" lon="20.5043321"><ele>517.0</ele><time>2026-05-03T05:57:39.75Z</time></trkpt><trkpt lat="39.6243986" lon="20.5043902"><ele>513.6666666666667</ele><time>2026-05-03T05:57:40.745Z</time></trkpt><trkpt lat="39.6245632" lon="20.5044353"><ele>510.33333333333337</ele><time>2026-05-03T05:57:41.748Z</time></trkpt><trkpt lat="39.6247192" lon="20.5044529"><ele>507.0</ele><time>2026-05-03T05:57:42.747Z</time></trkpt><trkpt lat="39.6248668" lon="20.5044313"><ele>507.0</ele><time>2026-05-03T05:57:43.75Z</time></trkpt><trkpt lat="39.6250074" lon="20.5043762"><ele>507.0</ele><time>2026-05-03T05:57:44.75Z</time></trkpt><trkpt lat="39.6251452" lon="20.5043258"><ele>507.0</ele><time>2026-05-03T05:57:45.747Z</time></trkpt><trkpt lat="39.6252872" lon="20.5043047"><ele>507.0</ele><time>2026-05-03T05:57:46.75Z</time></trkpt><trkpt lat="39.6254339" lon="20.5043145"><ele>505.66666666666663</ele><time>2026-05-03T05:57:47.749Z</time></trkpt><trkpt lat="39.625582" lon="20.5043628"><ele>504.3333333333333</ele><time>2026-05-03T05:57:48.748Z</time></trkpt><trkpt lat="39.6257196" lon="20.504436"><ele>503.0</ele><time>2026-05-03T05:57:49.746Z</time></trkpt><trkpt lat="39.6258518" lon="20.5045234"><ele>502.5</ele><time>2026-05-03T05:57:50.749Z</time></trkpt><trkpt lat="39.6259776" lon="20.5045911"><ele>502.0</ele><time>2026-05-03T05:57:51.749Z</time></trkpt><trkpt lat="39.6261063" lon="20.5046246"><ele>501.5</ele><time>2026-05-03T05:57:52.749Z</time></trkpt><trkpt lat="39.6262433" lon="20.5046106"><ele>501.0</ele><time>2026-05-03T05:57:53.749Z</time></trkpt><trkpt lat="39.6263725" lon="20.504571"><ele>501.0</ele><time>2026-05-03T05:57:54.749Z</time></trkpt><trkpt lat="39.6265056" lon="20.5044882"><ele>501.0</ele><time>2026-05-03T05:57:55.749Z</time></trkpt><trkpt lat="39.6266435" lon="20.504402"><ele>501.0</ele><time>2026-05-03T05:57:56.75Z</time></trkpt><trkpt lat="39.6267867" lon="20.5043129"><ele>501.0</ele><time>2026-05-03T05:57:57.749Z</time></trkpt><trkpt lat="39.6269246" lon="20.5042131"><ele>501.0</ele><time>2026-05-03T05:57:58.748Z</time></trkpt><trkpt lat="39.6270561" lon="20.5041215"><ele>501.0</ele><time>2026-05-03T05:57:59.749Z</time></trkpt><trkpt lat="39.6271991" lon="20.5040383"><ele>503.0</ele><time>2026-05-03T05:58:00.749Z</time></trkpt><trkpt lat="39.6273403" lon="20.5039695"><ele>505.0</ele><time>2026-05-03T05:58:01.749Z</time></trkpt><trkpt lat="39.6274785" lon="20.5039176"><ele>507.0</ele><time>2026-05-03T05:58:02.749Z</time></trkpt><trkpt lat="39.6276087" lon="20.5038864"><ele>509.0</ele><time>2026-05-03T05:58:03.749Z</time></trkpt><trkpt lat="39.6277364" lon="20.5038887"><ele>507.5</ele><time>2026-05-03T05:58:04.749Z</time></trkpt><trkpt lat="39.6278577" lon="20.5039265"><ele>506.0</ele><time>2026-05-03T05:58:05.75Z</time></trkpt><trkpt lat="39.6279718" lon="20.5039849"><ele>504.5</ele><time>2026-05-03T05:58:06.749Z</time></trkpt><trkpt lat="39.6280681" lon="20.5041289"><ele>503.0</ele><time>2026-05-03T05:58:07.75Z</time></trkpt><trkpt lat="39.6281272" lon="20.5042961"><ele>503.0</ele><time>2026-05-03T05:58:08.747Z</time></trkpt><trkpt lat="39.6281674" lon="20.504465"><ele>503.0</ele><time>2026-05-03T05:58:09.749Z</time></trkpt><trkpt lat="39.6281845" lon="20.5046372"><ele>503.0</ele><time>2026-05-03T05:58:10.746Z</time></trkpt><trkpt lat="39.6281943" lon="20.5048373"><ele>503.0</ele><time>2026-05-03T05:58:11.75Z</time></trkpt><trkpt lat="39.6281943" lon="20.5050269"><ele>503.0</ele><time>2026-05-03T05:58:12.75Z</time></trkpt><trkpt lat="39.6281943" lon="20.5052094"><ele>503.0</ele><time>2026-05-03T05:58:13.75Z</time></trkpt><trkpt lat="39.6282069" lon="20.5053809"><ele>503.0</ele><time>2026-05-03T05:58:14.748Z</time></trkpt><trkpt lat="39.6282353" lon="20.5055408"><ele>503.0</ele><time>2026-05-03T05:58:15.749Z</time></trkpt><trkpt lat="39.62829" lon="20.5056827"><ele>503.0</ele><time>2026-05-03T05:58:16.749Z</time></trkpt><trkpt lat="39.62837" lon="20.5058054"><ele>503.0</ele><time>2026-05-03T05:58:17.749Z</time></trkpt><trkpt lat="39.6284672" lon="20.5059046"><ele>503.0</ele><time>2026-05-03T05:58:18.75Z</time></trkpt><trkpt lat="39.62858" lon="20.5059669"><ele>503.0</ele><time>2026-05-03T05:58:19.748Z</time></trkpt><trkpt lat="39.6287193" lon="20.5059928"><ele>503.0</ele><time>2026-05-03T05:58:20.75Z</time></trkpt><trkpt lat="39.6288669" lon="20.5059785"><ele>503.0</ele><time>2026-05-03T05:58:21.748Z</time></trkpt><trkpt lat="39.6290166" lon="20.5059324"><ele>503.0</ele><time>2026-05-03T05:58:22.746Z</time></trkpt><trkpt lat="39.6291656" lon="20.5058744"><ele>503.0</ele><time>2026-05-03T05:58:23.75Z</time></trkpt><trkpt lat="39.6293139" lon="20.505795"><ele>503.0</ele><time>2026-05-03T05:58:24.748Z</time></trkpt><trkpt lat="39.6294576" lon="20.5057133"><ele>503.0</ele><time>2026-05-03T05:58:25.749Z</time></trkpt><trkpt lat="39.6295967" lon="20.5056119"><ele>505.3333333333333</ele><time>2026-05-03T05:58:26.749Z</time></trkpt><trkpt lat="39.6297333" lon="20.505489"><ele>507.66666666666663</ele><time>2026-05-03T05:58:27.749Z</time></trkpt><trkpt lat="39.6298476" lon="20.5053445"><ele>510.0</ele><time>2026-05-03T05:58:28.749Z</time></trkpt><trkpt lat="39.6299479" lon="20.5051986"><ele>505.75</ele><time>2026-05-03T05:58:29.747Z</time></trkpt><trkpt lat="39.6300455" lon="20.5050602"><ele>501.5</ele><time>2026-05-03T05:58:30.748Z</time></trkpt><trkpt lat="39.6301563" lon="20.5049416"><ele>497.25</ele><time>2026-05-03T05:58:31.749Z</time></trkpt><trkpt lat="39.6302776" lon="20.504851"><ele>493.0</ele><time>2026-05-03T05:58:32.75Z</time></trkpt><trkpt lat="39.6303941" lon="20.5047921"><ele>492.75</ele><time>2026-05-03T05:58:33.75Z</time></trkpt><trkpt lat="39.6305258" lon="20.5047799"><ele>492.5</ele><time>2026-05-03T05:58:34.749Z</time></trkpt><trkpt lat="39.6306389" lon="20.5047946"><ele>492.25</ele><time>2026-05-03T05:58:35.75Z</time></trkpt><trkpt lat="39.6307491" lon="20.5048471"><ele>492.0</ele><time>2026-05-03T05:58:36.748Z</time></trkpt><trkpt lat="39.6308504" lon="20.5049373"><ele>492.0</ele><time>2026-05-03T05:58:37.75Z</time></trkpt><trkpt lat="39.6309244" lon="20.5050714"><ele>492.0</ele><time>2026-05-03T05:58:38.75Z</time></trkpt><trkpt lat="39.6309774" lon="20.5052209"><ele>492.0</ele><time>2026-05-03T05:58:39.75Z</time></trkpt><trkpt lat="39.6310146" lon="20.5053853"><ele>492.0</ele><time>2026-05-03T05:58:40.748Z</time></trkpt><trkpt lat="39.631032" lon="20.5055562"><ele>493.25</ele><time>2026-05-03T05:58:41.75Z</time></trkpt><trkpt lat="39.6310284" lon="20.5057304"><ele>494.5</ele><time>2026-05-03T05:58:42.747Z</time></trkpt><trkpt lat="39.6310079" lon="20.5059032"><ele>495.75</ele><time>2026-05-03T05:58:43.75Z</time></trkpt><trkpt lat="39.630956" lon="20.506058"><ele>497.0</ele><time>2026-05-03T05:58:44.748Z</time></trkpt><trkpt lat="39.6309076" lon="20.5062004"><ele>497.0</ele><time>2026-05-03T05:58:45.75Z</time></trkpt><trkpt lat="39.6308504" lon="20.5063324"><ele>497.0</ele><time>2026-05-03T05:58:46.748Z</time></trkpt><trkpt lat="39.6308082" lon="20.506465"><ele>497.0</ele><time>2026-05-03T05:58:47.75Z</time></trkpt><trkpt lat="39.6307998" lon="20.50662"><ele>497.0</ele><time>2026-05-03T05:58:48.749Z</time></trkpt><trkpt lat="39.6308034" lon="20.5067709"><ele>497.0</ele><time>2026-05-03T05:58:49.749Z</time></trkpt><trkpt lat="39.6308333" lon="20.5069243"><ele>497.0</ele><time>2026-05-03T05:58:50.748Z</time></trkpt><trkpt lat="39.6308832" lon="20.5070976"><ele>497.0</ele><time>2026-05-03T05:58:51.749Z</time></trkpt><trkpt lat="39.630927" lon="20.5072846"><ele>497.0</ele><time>2026-05-03T05:58:52.75Z</time></trkpt><trkpt lat="39.6309956" lon="20.5074573"><ele>497.75</ele><time>2026-05-03T05:58:53.75Z</time></trkpt><trkpt lat="39.631051" lon="20.5076281"><ele>498.5</ele><time>2026-05-03T05:58:54.75Z</time></trkpt><trkpt lat="39.6311046" lon="20.507794"><ele>499.25</ele><time>2026-05-03T05:58:55.749Z</time></trkpt><trkpt lat="39.6311471" lon="20.5079635"><ele>500.0</ele><time>2026-05-03T05:58:56.748Z</time></trkpt><trkpt lat="39.6311744" lon="20.5081436"><ele>498.75</ele><time>2026-05-03T05:58:57.749Z</time></trkpt><trkpt lat="39.6311828" lon="20.5083335"><ele>497.5</ele><time>2026-05-03T05:58:58.749Z</time></trkpt><trkpt lat="39.6311792" lon="20.5085196"><ele>496.25</ele><time>2026-05-03T05:58:59.749Z</time></trkpt><trkpt lat="39.6311576" lon="20.5086985"><ele>495.0</ele><time>2026-05-03T05:59:00.749Z</time></trkpt><trkpt lat="39.631131" lon="20.5088579"><ele>495.0</ele><time>2026-05-03T05:59:01.748Z</time></trkpt><trkpt lat="39.6310842" lon="20.5090214"><ele>495.0</ele><time>2026-05-03T05:59:02.748Z</time></trkpt><trkpt lat="39.6310554" lon="20.5091701"><ele>495.0</ele><time>2026-05-03T05:59:03.749Z</time></trkpt><trkpt lat="39.6310338" lon="20.5093209"><ele>495.0</ele><time>2026-05-03T05:59:04.748Z</time></trkpt><trkpt lat="39.6310324" lon="20.5094789"><ele>495.25</ele><time>2026-05-03T05:59:05.747Z</time></trkpt><trkpt lat="39.6310752" lon="20.5096295"><ele>495.5</ele><time>2026-05-03T05:59:06.749Z</time></trkpt><trkpt lat="39.6311255" lon="20.5097692"><ele>495.75</ele><time>2026-05-03T05:59:07.747Z</time></trkpt><trkpt lat="39.6312134" lon="20.5098675"><ele>496.0</ele><time>2026-05-03T05:59:08.748Z</time></trkpt><trkpt lat="39.6313096" lon="20.5099728"><ele>488.25</ele><time>2026-05-03T05:59:09.749Z</time></trkpt><trkpt lat="39.6314107" lon="20.5100881"><ele>480.5</ele><time>2026-05-03T05:59:10.748Z</time></trkpt><trkpt lat="39.6315026" lon="20.510218"><ele>472.75</ele><time>2026-05-03T05:59:11.75Z</time></trkpt><trkpt lat="39.6315793" lon="20.5103672"><ele>465.0</ele><time>2026-05-03T05:59:12.749Z</time></trkpt><trkpt lat="39.6316296" lon="20.5105303"><ele>465.0</ele><time>2026-05-03T05:59:13.75Z</time></trkpt><trkpt lat="39.6316604" lon="20.5107025"><ele>465.0</ele><time>2026-05-03T05:59:14.749Z</time></trkpt><trkpt lat="39.6316619" lon="20.5108983"><ele>465.0</ele><time>2026-05-03T05:59:15.75Z</time></trkpt><trkpt lat="39.6316494" lon="20.5111002"><ele>465.0</ele><time>2026-05-03T05:59:16.749Z</time></trkpt><trkpt lat="39.6316289" lon="20.5113134"><ele>464.0</ele><time>2026-05-03T05:59:17.75Z</time></trkpt><trkpt lat="39.6316105" lon="20.5115313"><ele>463.0</ele><time>2026-05-03T05:59:18.748Z</time></trkpt><trkpt lat="39.6315978" lon="20.5117511"><ele>462.0</ele><time>2026-05-03T05:59:19.747Z</time></trkpt><trkpt lat="39.631605" lon="20.5119859"><ele>460.66666666666663</ele><time>2026-05-03T05:59:20.749Z</time></trkpt><trkpt lat="39.6316276" lon="20.5122103"><ele>459.3333333333333</ele><time>2026-05-03T05:59:21.749Z</time></trkpt><trkpt lat="39.6316572" lon="20.5124326"><ele>458.0</ele><time>2026-05-03T05:59:22.749Z</time></trkpt><trkpt lat="39.6316941" lon="20.5126521"><ele>458.0</ele><time>2026-05-03T05:59:23.747Z</time></trkpt><trkpt lat="39.6317095" lon="20.5128579"><ele>458.0</ele><time>2026-05-03T05:59:24.749Z</time></trkpt><trkpt lat="39.6316986" lon="20.5130606"><ele>458.0</ele><time>2026-05-03T05:59:25.75Z</time></trkpt><trkpt lat="39.6316693" lon="20.5132628"><ele>456.0</ele><time>2026-05-03T05:59:26.75Z</time></trkpt><trkpt lat="39.6316159" lon="20.5134603"><ele>454.0</ele><time>2026-05-03T05:59:27.748Z</time></trkpt><trkpt lat="39.6315474" lon="20.5136651"><ele>452.0</ele><time>2026-05-03T05:59:28.75Z</time></trkpt><trkpt lat="39.6314709" lon="20.5138738"><ele>445.66666666666663</ele><time>2026-05-03T05:59:29.748Z</time></trkpt><trkpt lat="39.6313885" lon="20.5140853"><ele>439.33333333333337</ele><time>2026-05-03T05:59:30.749Z</time></trkpt><trkpt lat="39.6312997" lon="20.5142929"><ele>433.0</ele><time>2026-05-03T05:59:31.749Z</time></trkpt><trkpt lat="39.6312014" lon="20.5144982"><ele>437.0</ele><time>2026-05-03T05:59:32.749Z</time></trkpt><trkpt lat="39.6310971" lon="20.5147009"><ele>441.0</ele><time>2026-05-03T05:59:33.75Z</time></trkpt><trkpt lat="39.6309901" lon="20.5149052"><ele>445.0</ele><time>2026-05-03T05:59:34.747Z</time></trkpt><trkpt lat="39.630881" lon="20.5151105"><ele>445.0</ele><time>2026-05-03T05:59:35.748Z</time></trkpt><trkpt lat="39.6307707" lon="20.515316"><ele>445.0</ele><time>2026-05-03T05:59:36.749Z</time></trkpt><trkpt lat="39.6306586" lon="20.515522"><ele>445.0</ele><time>2026-05-03T05:59:37.75Z</time></trkpt><trkpt lat="39.6305505" lon="20.5157309"><ele>441.6666666666667</ele><time>2026-05-03T05:59:38.75Z</time></trkpt><trkpt lat="39.6304434" lon="20.5159442"><ele>438.33333333333337</ele><time>2026-05-03T05:59:39.749Z</time></trkpt><trkpt lat="39.6303366" lon="20.5161575"><ele>435.0</ele><time>2026-05-03T05:59:40.748Z</time></trkpt><trkpt lat="39.630229" lon="20.5163729"><ele>435.0</ele><time>2026-05-03T05:59:41.749Z</time></trkpt><trkpt lat="39.6301192" lon="20.5165881"><ele>435.0</ele><time>2026-05-03T05:59:42.749Z</time></trkpt><trkpt lat="39.6300094" lon="20.5167992"><ele>435.0</ele><time>2026-05-03T05:59:43.749Z</time></trkpt><trkpt lat="39.6298969" lon="20.5170121"><ele>428.33333333333337</ele><time>2026-05-03T05:59:44.749Z</time></trkpt><trkpt lat="39.6297857" lon="20.5172257"><ele>421.6666666666667</ele><time>2026-05-03T05:59:45.75Z</time></trkpt><trkpt lat="39.629679" lon="20.517432"><ele>415.0</ele><time>2026-05-03T05:59:46.75Z</time></trkpt><trkpt lat="39.6295776" lon="20.5176362"><ele>415.0</ele><time>2026-05-03T05:59:47.747Z</time></trkpt><trkpt lat="39.6294877" lon="20.5178266"><ele>415.0</ele><time>2026-05-03T05:59:48.749Z</time></trkpt><trkpt lat="39.6294018" lon="20.5180169"><ele>415.0</ele><time>2026-05-03T05:59:49.75Z</time></trkpt><trkpt lat="39.6293144" lon="20.518195"><ele>418.0</ele><time>2026-05-03T05:59:50.748Z</time></trkpt><trkpt lat="39.6292237" lon="20.5183709"><ele>421.0</ele><time>2026-05-03T05:59:51.749Z</time></trkpt><trkpt lat="39.6291319" lon="20.5185375"><ele>424.0</ele><time>2026-05-03T05:59:52.749Z</time></trkpt><trkpt lat="39.6290433" lon="20.5186958"><ele>421.5</ele><time>2026-05-03T05:59:53.749Z</time></trkpt><trkpt lat="39.6289404" lon="20.5188393"><ele>419.0</ele><time>2026-05-03T05:59:54.75Z</time></trkpt><trkpt lat="39.6288355" lon="20.5189709"><ele>416.5</ele><time>2026-05-03T05:59:55.75Z</time></trkpt><trkpt lat="39.6287218" lon="20.5190806"><ele>414.0</ele><time>2026-05-03T05:59:56.75Z</time></trkpt><trkpt lat="39.6286029" lon="20.5191692"><ele>414.0</ele><time>2026-05-03T05:59:57.747Z</time></trkpt><trkpt lat="39.6284688" lon="20.5192175"><ele>414.0</ele><time>2026-05-03T05:59:58.747Z</time></trkpt><trkpt lat="39.6283394" lon="20.5192265"><ele>414.0</ele><time>2026-05-03T05:59:59.749Z</time></trkpt><trkpt lat="39.6282149" lon="20.5191994"><ele>414.0</ele><time>2026-05-03T06:00:00.746Z</time></trkpt><trkpt lat="39.6281016" lon="20.5191276"><ele>414.0</ele><time>2026-05-03T06:00:01.749Z</time></trkpt><trkpt lat="39.628017" lon="20.5190206"><ele>414.0</ele><time>2026-05-03T06:00:02.748Z</time></trkpt><trkpt lat="39.6279456" lon="20.5188877"><ele>414.0</ele><time>2026-05-03T06:00:03.749Z</time></trkpt><trkpt lat="39.6278869" lon="20.518756"><ele>414.0</ele><time>2026-05-03T06:00:04.748Z</time></trkpt><trkpt lat="39.6278357" lon="20.5186418"><ele>414.2</ele><time>2026-05-03T06:00:05.748Z</time></trkpt><trkpt lat="39.6277825" lon="20.5185306"><ele>414.4</ele><time>2026-05-03T06:00:06.747Z</time></trkpt><trkpt lat="39.62769" lon="20.5185232"><ele>414.6</ele><time>2026-05-03T06:00:07.748Z</time></trkpt><trkpt lat="39.6276026" lon="20.5185234"><ele>414.8</ele><time>2026-05-03T06:00:08.748Z</time></trkpt><trkpt lat="39.6275265" lon="20.518581"><ele>415.0</ele><time>2026-05-03T06:00:09.75Z</time></trkpt><trkpt lat="39.627476" lon="20.5186708"><ele>412.2</ele><time>2026-05-03T06:00:10.748Z</time></trkpt><trkpt lat="39.6274539" lon="20.5187852"><ele>409.4</ele><time>2026-05-03T06:00:11.748Z</time></trkpt><trkpt lat="39.6274715" lon="20.518916"><ele>406.6</ele><time>2026-05-03T06:00:12.747Z</time></trkpt><trkpt lat="39.6275318" lon="20.5190494"><ele>403.8</ele><time>2026-05-03T06:00:13.747Z</time></trkpt><trkpt lat="39.6275797" lon="20.5191841"><ele>401.0</ele><time>2026-05-03T06:00:14.744Z</time></trkpt><trkpt lat="39.6276991" lon="20.5192826"><ele>398.0</ele><time>2026-05-03T06:00:15.75Z</time></trkpt><trkpt lat="39.6278128" lon="20.5193978"><ele>395.0</ele><time>2026-05-03T06:00:16.747Z</time></trkpt><trkpt lat="39.6279342" lon="20.5194911"><ele>392.0</ele><time>2026-05-03T06:00:17.75Z</time></trkpt><trkpt lat="39.6280815" lon="20.5195494"><ele>389.0</ele><time>2026-05-03T06:00:18.748Z</time></trkpt><trkpt lat="39.6282314" lon="20.5195942"><ele>389.0</ele><time>2026-05-03T06:00:19.749Z</time></trkpt><trkpt lat="39.6283842" lon="20.5196174"><ele>389.0</ele><time>2026-05-03T06:00:20.749Z</time></trkpt><trkpt lat="39.628542" lon="20.5196188"><ele>389.0</ele><time>2026-05-03T06:00:21.748Z</time></trkpt><trkpt lat="39.6286961" lon="20.5195972"><ele>392.0</ele><time>2026-05-03T06:00:22.749Z</time></trkpt><trkpt lat="39.6288457" lon="20.5195514"><ele>395.0</ele><time>2026-05-03T06:00:23.75Z</time></trkpt><trkpt lat="39.6289935" lon="20.519478"><ele>398.0</ele><time>2026-05-03T06:00:24.749Z</time></trkpt><trkpt lat="39.629134" lon="20.5193839"><ele>398.0</ele><time>2026-05-03T06:00:25.747Z</time></trkpt><trkpt lat="39.6292675" lon="20.5192759"><ele>398.0</ele><time>2026-05-03T06:00:26.75Z</time></trkpt><trkpt lat="39.6293916" lon="20.5191531"><ele>398.0</ele><time>2026-05-03T06:00:27.749Z</time></trkpt><trkpt lat="39.6295155" lon="20.5190069"><ele>394.3333333333333</ele><time>2026-05-03T06:00:28.749Z</time></trkpt><trkpt lat="39.6296298" lon="20.5188426"><ele>390.66666666666663</ele><time>2026-05-03T06:00:29.748Z</time></trkpt><trkpt lat="39.6297325" lon="20.5186682"><ele>387.0</ele><time>2026-05-03T06:00:30.748Z</time></trkpt><trkpt lat="39.6298436" lon="20.5184955"><ele>387.0</ele><time>2026-05-03T06:00:31.748Z</time></trkpt><trkpt lat="39.6299657" lon="20.5183248"><ele>387.0</ele><time>2026-05-03T06:00:32.748Z</time></trkpt><trkpt lat="39.6300983" lon="20.5181602"><ele>387.0</ele><time>2026-05-03T06:00:33.749Z</time></trkpt><trkpt lat="39.6302369" lon="20.5179873"><ele>383.6666666666667</ele><time>2026-05-03T06:00:34.75Z</time></trkpt><trkpt lat="39.6303822" lon="20.517814"><ele>380.33333333333337</ele><time>2026-05-03T06:00:35.749Z</time></trkpt><trkpt lat="39.6305263" lon="20.5176426"><ele>377.0</ele><time>2026-05-03T06:00:36.75Z</time></trkpt><trkpt lat="39.6306727" lon="20.5174705"><ele>377.0</ele><time>2026-05-03T06:00:37.748Z</time></trkpt><trkpt lat="39.6308162" lon="20.5172904"><ele>377.0</ele><time>2026-05-03T06:00:38.747Z</time></trkpt><trkpt lat="39.6309545" lon="20.5171101"><ele>377.0</ele><time>2026-05-03T06:00:39.748Z</time></trkpt><trkpt lat="39.6310889" lon="20.5169502"><ele>375.33333333333337</ele><time>2026-05-03T06:00:40.749Z</time></trkpt><trkpt lat="39.6312306" lon="20.5167915"><ele>373.6666666666667</ele><time>2026-05-03T06:00:41.749Z</time></trkpt><trkpt lat="39.6313821" lon="20.5166512"><ele>372.0</ele><time>2026-05-03T06:00:42.748Z</time></trkpt><trkpt lat="39.6315376" lon="20.5165171"><ele>372.0</ele><time>2026-05-03T06:00:43.75Z</time></trkpt><trkpt lat="39.6316959" lon="20.516396"><ele>372.0</ele><time>2026-05-03T06:00:44.748Z</time></trkpt><trkpt lat="39.6318681" lon="20.5162656"><ele>372.0</ele><time>2026-05-03T06:00:45.748Z</time></trkpt><trkpt lat="39.6320306" lon="20.5161294"><ele>371.0</ele><time>2026-05-03T06:00:46.747Z</time></trkpt><trkpt lat="39.6321883" lon="20.5159767"><ele>370.0</ele><time>2026-05-03T06:00:47.75Z</time></trkpt><trkpt lat="39.6323323" lon="20.5158042"><ele>369.0</ele><time>2026-05-03T06:00:48.749Z</time></trkpt><trkpt lat="39.6324662" lon="20.5156248"><ele>369.0</ele><time>2026-05-03T06:00:49.749Z</time></trkpt><trkpt lat="39.6325916" lon="20.5154399"><ele>369.0</ele><time>2026-05-03T06:00:50.75Z</time></trkpt><trkpt lat="39.632705" lon="20.5152626"><ele>369.0</ele><time>2026-05-03T06:00:51.749Z</time></trkpt><trkpt lat="39.6328131" lon="20.5150999"><ele>365.3333333333333</ele><time>2026-05-03T06:00:52.75Z</time></trkpt><trkpt lat="39.6329257" lon="20.5149481"><ele>361.66666666666663</ele><time>2026-05-03T06:00:53.75Z</time></trkpt><trkpt lat="39.6330427" lon="20.5148119"><ele>358.0</ele><time>2026-05-03T06:00:54.746Z</time></trkpt><trkpt lat="39.6331721" lon="20.5146962"><ele>358.0</ele><time>2026-05-03T06:00:55.75Z</time></trkpt><trkpt lat="39.6333168" lon="20.5145819"><ele>358.0</ele><time>2026-05-03T06:00:56.75Z</time></trkpt><trkpt lat="39.6334878" lon="20.5145064"><ele>358.0</ele><time>2026-05-03T06:00:57.749Z</time></trkpt><trkpt lat="39.6336674" lon="20.514439"><ele>360.0</ele><time>2026-05-03T06:00:58.749Z</time></trkpt><trkpt lat="39.6338556" lon="20.5143682"><ele>362.0</ele><time>2026-05-03T06:00:59.75Z</time></trkpt><trkpt lat="39.6340479" lon="20.514297"><ele>364.0</ele><time>2026-05-03T06:01:00.748Z</time></trkpt><trkpt lat="39.6342474" lon="20.5142248"><ele>364.0</ele><time>2026-05-03T06:01:01.75Z</time></trkpt><trkpt lat="39.6344413" lon="20.514155"><ele>364.0</ele><time>2026-05-03T06:01:02.747Z</time></trkpt><trkpt lat="39.63463" lon="20.5140873"><ele>364.0</ele><time>2026-05-03T06:01:03.747Z</time></trkpt><trkpt lat="39.6348107" lon="20.5140248"><ele>359.0</ele><time>2026-05-03T06:01:04.749Z</time></trkpt><trkpt lat="39.6349919" lon="20.5139593"><ele>354.0</ele><time>2026-05-03T06:01:05.749Z</time></trkpt><trkpt lat="39.6351775" lon="20.5138856"><ele>349.0</ele><time>2026-05-03T06:01:06.75Z</time></trkpt><trkpt lat="39.6353669" lon="20.513809"><ele>351.3333333333333</ele><time>2026-05-03T06:01:07.748Z</time></trkpt><trkpt lat="39.6355596" lon="20.5137219"><ele>353.6666666666667</ele><time>2026-05-03T06:01:08.748Z</time></trkpt><trkpt lat="39.6357515" lon="20.5136181"><ele>356.0</ele><time>2026-05-03T06:01:09.75Z</time></trkpt><trkpt lat="39.6359418" lon="20.5134957"><ele>356.0</ele><time>2026-05-03T06:01:10.748Z</time></trkpt><trkpt lat="39.6361314" lon="20.513368"><ele>356.0</ele><time>2026-05-03T06:01:11.749Z</time></trkpt><trkpt lat="39.6363108" lon="20.5132416"><ele>356.0</ele><time>2026-05-03T06:01:12.749Z</time></trkpt><trkpt lat="39.636485" lon="20.5131161"><ele>356.0</ele><time>2026-05-03T06:01:13.75Z</time></trkpt><trkpt lat="39.6366453" lon="20.5129849"><ele>356.0</ele><time>2026-05-03T06:01:14.746Z</time></trkpt><trkpt lat="39.6367963" lon="20.5128547"><ele>356.0</ele><time>2026-05-03T06:01:15.748Z</time></trkpt><trkpt lat="39.6369426" lon="20.5127392"><ele>350.6666666666667</ele><time>2026-05-03T06:01:16.749Z</time></trkpt><trkpt lat="39.6370932" lon="20.5126374"><ele>345.3333333333333</ele><time>2026-05-03T06:01:17.747Z</time></trkpt><trkpt lat="39.6372503" lon="20.5125616"><ele>340.0</ele><time>2026-05-03T06:01:18.749Z</time></trkpt><trkpt lat="39.6374236" lon="20.5125096"><ele>340.0</ele><time>2026-05-03T06:01:19.749Z</time></trkpt><trkpt lat="39.637603" lon="20.5124676"><ele>340.0</ele><time>2026-05-03T06:01:20.75Z</time></trkpt><trkpt lat="39.6377865" lon="20.5124288"><ele>340.0</ele><time>2026-05-03T06:01:21.75Z</time></trkpt><trkpt lat="39.6379736" lon="20.5123801"><ele>336.0</ele><time>2026-05-03T06:01:22.75Z</time></trkpt><trkpt lat="39.6381456" lon="20.5123288"><ele>332.0</ele><time>2026-05-03T06:01:23.749Z</time></trkpt><trkpt lat="39.6383071" lon="20.5122641"><ele>328.0</ele><time>2026-05-03T06:01:24.749Z</time></trkpt><trkpt lat="39.6384609" lon="20.5121761"><ele>326.3333333333333</ele><time>2026-05-03T06:01:25.749Z</time></trkpt><trkpt lat="39.6386018" lon="20.5120448"><ele>324.6666666666667</ele><time>2026-05-03T06:01:26.748Z</time></trkpt><trkpt lat="39.6387439" lon="20.5118908"><ele>323.0</ele><time>2026-05-03T06:01:27.748Z</time></trkpt><trkpt lat="39.6388824" lon="20.511731"><ele>323.0</ele><time>2026-05-03T06:01:28.75Z</time></trkpt><trkpt lat="39.639029" lon="20.511569"><ele>323.0</ele><time>2026-05-03T06:01:29.749Z</time></trkpt><trkpt lat="39.6391827" lon="20.5114186"><ele>323.0</ele><time>2026-05-03T06:01:30.749Z</time></trkpt><trkpt lat="39.639348" lon="20.5112735"><ele>322.0</ele><time>2026-05-03T06:01:31.749Z</time></trkpt><trkpt lat="39.6395187" lon="20.5111332"><ele>321.0</ele><time>2026-05-03T06:01:32.748Z</time></trkpt><trkpt lat="39.639695" lon="20.5110035"><ele>320.0</ele><time>2026-05-03T06:01:33.749Z</time></trkpt><trkpt lat="39.639864" lon="20.5108872"><ele>320.0</ele><time>2026-05-03T06:01:34.748Z</time></trkpt><trkpt lat="39.6400412" lon="20.5107708"><ele>320.0</ele><time>2026-05-03T06:01:35.748Z</time></trkpt><trkpt lat="39.6402038" lon="20.5106497"><ele>320.0</ele><time>2026-05-03T06:01:36.75Z</time></trkpt><trkpt lat="39.6403632" lon="20.5105072"><ele>317.0</ele><time>2026-05-03T06:01:37.749Z</time></trkpt><trkpt lat="39.6405138" lon="20.5103341"><ele>314.0</ele><time>2026-05-03T06:01:38.75Z</time></trkpt><trkpt lat="39.6406547" lon="20.5101343"><ele>311.0</ele><time>2026-05-03T06:01:39.749Z</time></trkpt><trkpt lat="39.6407928" lon="20.5099205"><ele>311.0</ele><time>2026-05-03T06:01:40.748Z</time></trkpt><trkpt lat="39.6409293" lon="20.5097027"><ele>311.0</ele><time>2026-05-03T06:01:41.748Z</time></trkpt><trkpt lat="39.6410566" lon="20.509489"><ele>311.0</ele><time>2026-05-03T06:01:42.748Z</time></trkpt><trkpt lat="39.641182" lon="20.5092833"><ele>309.0</ele><time>2026-05-03T06:01:43.75Z</time></trkpt><trkpt lat="39.6413066" lon="20.5090825"><ele>307.0</ele><time>2026-05-03T06:01:44.749Z</time></trkpt><trkpt lat="39.6414282" lon="20.5088941"><ele>305.0</ele><time>2026-05-03T06:01:45.748Z</time></trkpt><trkpt lat="39.6415448" lon="20.5087081"><ele>305.0</ele><time>2026-05-03T06:01:46.749Z</time></trkpt><trkpt lat="39.6416539" lon="20.5085264"><ele>305.0</ele><time>2026-05-03T06:01:47.749Z</time></trkpt><trkpt lat="39.6417571" lon="20.5083536"><ele>305.0</ele><time>2026-05-03T06:01:48.75Z</time></trkpt><trkpt lat="39.6418629" lon="20.508188"><ele>303.6666666666667</ele><time>2026-05-03T06:01:49.749Z</time></trkpt><trkpt lat="39.641977" lon="20.5080355"><ele>302.3333333333333</ele><time>2026-05-03T06:01:50.747Z</time></trkpt><trkpt lat="39.6421003" lon="20.5079077"><ele>301.0</ele><time>2026-05-03T06:01:51.749Z</time></trkpt><trkpt lat="39.6422269" lon="20.5078034"><ele>301.0</ele><time>2026-05-03T06:01:52.747Z</time></trkpt><trkpt lat="39.6423568" lon="20.5077313"><ele>301.0</ele><time>2026-05-03T06:01:53.749Z</time></trkpt><trkpt lat="39.6425008" lon="20.5076944"><ele>301.0</ele><time>2026-05-03T06:01:54.749Z</time></trkpt><trkpt lat="39.6426485" lon="20.5076809"><ele>301.0</ele><time>2026-05-03T06:01:55.75Z</time></trkpt><trkpt lat="39.6427965" lon="20.5076685"><ele>297.25</ele><time>2026-05-03T06:01:56.748Z</time></trkpt><trkpt lat="39.6429343" lon="20.5076379"><ele>293.5</ele><time>2026-05-03T06:01:57.748Z</time></trkpt><trkpt lat="39.6430709" lon="20.5075846"><ele>289.75</ele><time>2026-05-03T06:01:58.749Z</time></trkpt><trkpt lat="39.6432011" lon="20.5075034"><ele>286.0</ele><time>2026-05-03T06:01:59.75Z</time></trkpt><trkpt lat="39.6433169" lon="20.5073925"><ele>286.0</ele><time>2026-05-03T06:02:00.749Z</time></trkpt><trkpt lat="39.6434162" lon="20.5072552"><ele>286.0</ele><time>2026-05-03T06:02:01.747Z</time></trkpt><trkpt lat="39.6435018" lon="20.5071038"><ele>286.0</ele><time>2026-05-03T06:02:02.749Z</time></trkpt><trkpt lat="39.6435677" lon="20.5069325"><ele>286.0</ele><time>2026-05-03T06:02:03.75Z</time></trkpt><trkpt lat="39.6436061" lon="20.5067578"><ele>287.0</ele><time>2026-05-03T06:02:04.746Z</time></trkpt><trkpt lat="39.6436218" lon="20.506572"><ele>288.0</ele><time>2026-05-03T06:02:05.747Z</time></trkpt><trkpt lat="39.6436128" lon="20.5064006"><ele>289.0</ele><time>2026-05-03T06:02:06.748Z</time></trkpt><trkpt lat="39.6435829" lon="20.5062312"><ele>290.0</ele><time>2026-05-03T06:02:07.749Z</time></trkpt><trkpt lat="39.6435487" lon="20.5060768"><ele>290.0</ele><time>2026-05-03T06:02:08.749Z</time></trkpt><trkpt lat="39.643516" lon="20.5059311"><ele>290.0</ele><time>2026-05-03T06:02:09.75Z</time></trkpt><trkpt lat="39.6435073" lon="20.5057751"><ele>290.0</ele><time>2026-05-03T06:02:10.75Z</time></trkpt><trkpt lat="39.6435294" lon="20.5056336"><ele>290.0</ele><time>2026-05-03T06:02:11.75Z</time></trkpt><trkpt lat="39.6435883" lon="20.5055121"><ele>288.8</ele><time>2026-05-03T06:02:12.749Z</time></trkpt><trkpt lat="39.6436622" lon="20.5054169"><ele>287.6</ele><time>2026-05-03T06:02:13.748Z</time></trkpt><trkpt lat="39.6437437" lon="20.5053573"><ele>286.4</ele><time>2026-05-03T06:02:14.749Z</time></trkpt><trkpt lat="39.643846" lon="20.5053274"><ele>285.2</ele><time>2026-05-03T06:02:15.75Z</time></trkpt><trkpt lat="39.6439508" lon="20.5053204"><ele>284.0</ele><time>2026-05-03T06:02:16.749Z</time></trkpt><trkpt lat="39.6440751" lon="20.5053404"><ele>284.0</ele><time>2026-05-03T06:02:17.75Z</time></trkpt><trkpt lat="39.6442147" lon="20.5053554"><ele>284.0</ele><time>2026-05-03T06:02:18.749Z</time></trkpt><trkpt lat="39.6443625" lon="20.5053604"><ele>284.0</ele><time>2026-05-03T06:02:19.747Z</time></trkpt><trkpt lat="39.6445246" lon="20.5053697"><ele>285.33333333333337</ele><time>2026-05-03T06:02:20.749Z</time></trkpt><trkpt lat="39.6446869" lon="20.5053759"><ele>286.6666666666667</ele><time>2026-05-03T06:02:21.75Z</time></trkpt><trkpt lat="39.6448555" lon="20.5053875"><ele>288.0</ele><time>2026-05-03T06:02:22.749Z</time></trkpt><trkpt lat="39.6450318" lon="20.5054055"><ele>288.0</ele><time>2026-05-03T06:02:23.75Z</time></trkpt><trkpt lat="39.6452082" lon="20.5054085"><ele>288.0</ele><time>2026-05-03T06:02:24.749Z</time></trkpt><trkpt lat="39.6453848" lon="20.5054087"><ele>288.0</ele><time>2026-05-03T06:02:25.749Z</time></trkpt><trkpt lat="39.6455595" lon="20.5054064"><ele>285.3333333333333</ele><time>2026-05-03T06:02:26.749Z</time></trkpt><trkpt lat="39.6457251" lon="20.505403"><ele>282.66666666666663</ele><time>2026-05-03T06:02:27.749Z</time></trkpt><trkpt lat="39.6458884" lon="20.5053886"><ele>280.0</ele><time>2026-05-03T06:02:28.75Z</time></trkpt><trkpt lat="39.6460443" lon="20.5053629"><ele>273.3333333333333</ele><time>2026-05-03T06:02:29.748Z</time></trkpt><trkpt lat="39.6461929" lon="20.5053075"><ele>266.6666666666667</ele><time>2026-05-03T06:02:30.75Z</time></trkpt><trkpt lat="39.6463355" lon="20.5052318"><ele>260.0</ele><time>2026-05-03T06:02:31.749Z</time></trkpt><trkpt lat="39.6464619" lon="20.5051408"><ele>260.0</ele><time>2026-05-03T06:02:32.746Z</time></trkpt><trkpt lat="39.6465719" lon="20.5050325"><ele>260.0</ele><time>2026-05-03T06:02:33.748Z</time></trkpt><trkpt lat="39.6466711" lon="20.5049218"><ele>260.0</ele><time>2026-05-03T06:02:34.749Z</time></trkpt><trkpt lat="39.6467584" lon="20.5048218"><ele>260.0</ele><time>2026-05-03T06:02:35.749Z</time></trkpt><trkpt lat="39.6468297" lon="20.5047409"><ele>260.0</ele><time>2026-05-03T06:02:36.749Z</time></trkpt><trkpt lat="39.6469003" lon="20.5046889"><ele>260.0</ele><time>2026-05-03T06:02:37.749Z</time></trkpt><trkpt lat="39.6469752" lon="20.5046711"><ele>260.0</ele><time>2026-05-03T06:02:38.75Z</time></trkpt><trkpt lat="39.6470405" lon="20.5047041"><ele>260.0</ele><time>2026-05-03T06:02:39.747Z</time></trkpt><trkpt lat="39.6470938" lon="20.5047748"><ele>260.0</ele><time>2026-05-03T06:02:40.749Z</time></trkpt><trkpt lat="39.6470997" lon="20.5048922"><ele>260.0</ele><time>2026-05-03T06:02:41.75Z</time></trkpt><trkpt lat="39.6470765" lon="20.5050317"><ele>257.5</ele><time>2026-05-03T06:02:42.75Z</time></trkpt><trkpt lat="39.6470354" lon="20.5051885"><ele>255.0</ele><time>2026-05-03T06:02:43.746Z</time></trkpt><trkpt lat="39.6469841" lon="20.5053315"><ele>252.5</ele><time>2026-05-03T06:02:44.749Z</time></trkpt><trkpt lat="39.6469193" lon="20.5054814"><ele>250.0</ele><time>2026-05-03T06:02:45.749Z</time></trkpt><trkpt lat="39.6468344" lon="20.5056146"><ele>250.0</ele><time>2026-05-03T06:02:46.746Z</time></trkpt><trkpt lat="39.6467307" lon="20.5057321"><ele>250.0</ele><time>2026-05-03T06:02:47.747Z</time></trkpt><trkpt lat="39.6466198" lon="20.5058162"><ele>250.0</ele><time>2026-05-03T06:02:48.748Z</time></trkpt><trkpt lat="39.6464921" lon="20.5058711"><ele>250.0</ele><time>2026-05-03T06:02:49.747Z</time></trkpt><trkpt lat="39.6463443" lon="20.5059069"><ele>250.0</ele><time>2026-05-03T06:02:50.747Z</time></trkpt><trkpt lat="39.6461934" lon="20.505924"><ele>250.0</ele><time>2026-05-03T06:02:51.748Z</time></trkpt><trkpt lat="39.6460446" lon="20.5059319"><ele>250.0</ele><time>2026-05-03T06:02:52.75Z</time></trkpt><trkpt lat="39.6458899" lon="20.5059362"><ele>251.25</ele><time>2026-05-03T06:02:53.748Z</time></trkpt><trkpt lat="39.6457398" lon="20.5059488"><ele>252.5</ele><time>2026-05-03T06:02:54.747Z</time></trkpt><trkpt lat="39.6455906" lon="20.505973"><ele>253.75</ele><time>2026-05-03T06:02:55.747Z</time></trkpt><trkpt lat="39.6454623" lon="20.5060497"><ele>255.0</ele><time>2026-05-03T06:02:56.749Z</time></trkpt><trkpt lat="39.6453424" lon="20.5061558"><ele>251.0</ele><time>2026-05-03T06:02:57.748Z</time></trkpt><trkpt lat="39.6452337" lon="20.5062866"><ele>247.0</ele><time>2026-05-03T06:02:58.748Z</time></trkpt><trkpt lat="39.645138" lon="20.5064397"><ele>243.0</ele><time>2026-05-03T06:02:59.746Z</time></trkpt><trkpt lat="39.645052" lon="20.5066153"><ele>243.0</ele><time>2026-05-03T06:03:00.748Z</time></trkpt><trkpt lat="39.6449585" lon="20.5068064"><ele>243.0</ele><time>2026-05-03T06:03:01.748Z</time></trkpt><trkpt lat="39.6448745" lon="20.5069979"><ele>243.0</ele><time>2026-05-03T06:03:02.747Z</time></trkpt><trkpt lat="39.6448044" lon="20.5072056"><ele>239.66666666666669</ele><time>2026-05-03T06:03:03.747Z</time></trkpt><trkpt lat="39.6447294" lon="20.507399"><ele>236.33333333333334</ele><time>2026-05-03T06:03:04.749Z</time></trkpt><trkpt lat="39.6446635" lon="20.5076063"><ele>233.0</ele><time>2026-05-03T06:03:05.748Z</time></trkpt><trkpt lat="39.6445957" lon="20.5078111"><ele>235.66666666666669</ele><time>2026-05-03T06:03:06.75Z</time></trkpt><trkpt lat="39.6445186" lon="20.5080073"><ele>238.33333333333331</ele><time>2026-05-03T06:03:07.75Z</time></trkpt><trkpt lat="39.6444449" lon="20.508212"><ele>241.0</ele><time>2026-05-03T06:03:08.75Z</time></trkpt><trkpt lat="39.6443687" lon="20.5084228"><ele>241.0</ele><time>2026-05-03T06:03:09.748Z</time></trkpt><trkpt lat="39.6442956" lon="20.5086407"><ele>241.0</ele><time>2026-05-03T06:03:10.747Z</time></trkpt><trkpt lat="39.64422" lon="20.5088449"><ele>241.0</ele><time>2026-05-03T06:03:11.749Z</time></trkpt><trkpt lat="39.6441433" lon="20.5090535"><ele>236.33333333333331</ele><time>2026-05-03T06:03:12.748Z</time></trkpt><trkpt lat="39.6440633" lon="20.5092352"><ele>231.66666666666669</ele><time>2026-05-03T06:03:13.749Z</time></trkpt><trkpt lat="39.6439767" lon="20.5094056"><ele>227.0</ele><time>2026-05-03T06:03:14.749Z</time></trkpt><trkpt lat="39.6438792" lon="20.5095697"><ele>228.5</ele><time>2026-05-03T06:03:15.747Z</time></trkpt><trkpt lat="39.6437754" lon="20.5097178"><ele>230.0</ele><time>2026-05-03T06:03:16.748Z</time></trkpt><trkpt lat="39.6436726" lon="20.5098523"><ele>231.5</ele><time>2026-05-03T06:03:17.75Z</time></trkpt><trkpt lat="39.6435733" lon="20.5099673"><ele>233.0</ele><time>2026-05-03T06:03:18.746Z</time></trkpt><trkpt lat="39.6434929" lon="20.5100773"><ele>233.0</ele><time>2026-05-03T06:03:19.75Z</time></trkpt><trkpt lat="39.643428" lon="20.510178"><ele>233.0</ele><time>2026-05-03T06:03:20.747Z</time></trkpt><trkpt lat="39.643391" lon="20.5102925"><ele>233.0</ele><time>2026-05-03T06:03:21.748Z</time></trkpt><trkpt lat="39.6433853" lon="20.5104265"><ele>233.0</ele><time>2026-05-03T06:03:22.749Z</time></trkpt><trkpt lat="39.6434079" lon="20.5105465"><ele>233.0</ele><time>2026-05-03T06:03:23.75Z</time></trkpt><trkpt lat="39.6434637" lon="20.5106446"><ele>230.8</ele><time>2026-05-03T06:03:24.747Z</time></trkpt><trkpt lat="39.6435383" lon="20.510722"><ele>228.60000000000002</ele><time>2026-05-03T06:03:25.75Z</time></trkpt><trkpt lat="39.6436376" lon="20.5107252"><ele>226.39999999999998</ele><time>2026-05-03T06:03:26.748Z</time></trkpt><trkpt lat="39.6437369" lon="20.5106814"><ele>224.2</ele><time>2026-05-03T06:03:27.749Z</time></trkpt><trkpt lat="39.643824" lon="20.5105747"><ele>222.0</ele><time>2026-05-03T06:03:28.749Z</time></trkpt><trkpt lat="39.6439077" lon="20.5104404"><ele>220.25</ele><time>2026-05-03T06:03:29.749Z</time></trkpt><trkpt lat="39.6439902" lon="20.5102946"><ele>218.5</ele><time>2026-05-03T06:03:30.749Z</time></trkpt><trkpt lat="39.6440623" lon="20.5101303"><ele>216.75</ele><time>2026-05-03T06:03:31.747Z</time></trkpt><trkpt lat="39.6441365" lon="20.5099576"><ele>215.0</ele><time>2026-05-03T06:03:32.75Z</time></trkpt><trkpt lat="39.6442151" lon="20.5098019"><ele>215.0</ele><time>2026-05-03T06:03:33.749Z</time></trkpt><trkpt lat="39.6442908" lon="20.5096531"><ele>215.0</ele><time>2026-05-03T06:03:34.749Z</time></trkpt><trkpt lat="39.6443712" lon="20.5095104"><ele>215.0</ele><time>2026-05-03T06:03:35.749Z</time></trkpt><trkpt lat="39.6444582" lon="20.5093619"><ele>215.0</ele><time>2026-05-03T06:03:36.749Z</time></trkpt><trkpt lat="39.6445564" lon="20.5092081"><ele>211.66666666666669</ele><time>2026-05-03T06:03:37.75Z</time></trkpt><trkpt lat="39.6446596" lon="20.5090477"><ele>208.33333333333331</ele><time>2026-05-03T06:03:38.75Z</time></trkpt><trkpt lat="39.6447726" lon="20.5088942"><ele>205.0</ele><time>2026-05-03T06:03:39.748Z</time></trkpt><trkpt lat="39.6448985" lon="20.508751"><ele>206.0</ele><time>2026-05-03T06:03:40.748Z</time></trkpt><trkpt lat="39.6450341" lon="20.5086149"><ele>207.0</ele><time>2026-05-03T06:03:41.747Z</time></trkpt><trkpt lat="39.6451724" lon="20.5084874"><ele>208.0</ele><time>2026-05-03T06:03:42.747Z</time></trkpt><trkpt lat="39.6453038" lon="20.5083705"><ele>208.0</ele><time>2026-05-03T06:03:43.747Z</time></trkpt><trkpt lat="39.6454433" lon="20.5082781"><ele>208.0</ele><time>2026-05-03T06:03:44.749Z</time></trkpt><trkpt lat="39.6455857" lon="20.5082156"><ele>208.0</ele><time>2026-05-03T06:03:45.75Z</time></trkpt><trkpt lat="39.6457274" lon="20.5081686"><ele>208.0</ele><time>2026-05-03T06:03:46.748Z</time></trkpt><trkpt lat="39.6458784" lon="20.5081435"><ele>208.0</ele><time>2026-05-03T06:03:47.749Z</time></trkpt><trkpt lat="39.6460333" lon="20.5081332"><ele>208.0</ele><time>2026-05-03T06:03:48.749Z</time></trkpt><trkpt lat="39.6461812" lon="20.5081376"><ele>208.0</ele><time>2026-05-03T06:03:49.749Z</time></trkpt><trkpt lat="39.6463413" lon="20.5081511"><ele>208.0</ele><time>2026-05-03T06:03:50.748Z</time></trkpt><trkpt lat="39.6465057" lon="20.508182"><ele>208.0</ele><time>2026-05-03T06:03:51.748Z</time></trkpt><trkpt lat="39.6466767" lon="20.5082224"><ele>208.0</ele><time>2026-05-03T06:03:52.75Z</time></trkpt><trkpt lat="39.6468483" lon="20.5082755"><ele>208.0</ele><time>2026-05-03T06:03:53.75Z</time></trkpt><trkpt lat="39.6470298" lon="20.5083278"><ele>208.0</ele><time>2026-05-03T06:03:54.747Z</time></trkpt><trkpt lat="39.6472137" lon="20.50838"><ele>209.0</ele><time>2026-05-03T06:03:55.749Z</time></trkpt><trkpt lat="39.6473984" lon="20.5084192"><ele>210.0</ele><time>2026-05-03T06:03:56.748Z</time></trkpt><trkpt lat="39.6475825" lon="20.5084613"><ele>211.0</ele><time>2026-05-03T06:03:57.75Z</time></trkpt><trkpt lat="39.6477669" lon="20.5085021"><ele>208.66666666666666</ele><time>2026-05-03T06:03:58.746Z</time></trkpt><trkpt lat="39.6479471" lon="20.50853"><ele>206.33333333333331</ele><time>2026-05-03T06:03:59.748Z</time></trkpt><trkpt lat="39.6481197" lon="20.5085516"><ele>204.0</ele><time>2026-05-03T06:04:00.746Z</time></trkpt><trkpt lat="39.6482864" lon="20.5085647"><ele>204.0</ele><time>2026-05-03T06:04:01.749Z</time></trkpt><trkpt lat="39.6484523" lon="20.5085597"><ele>204.0</ele><time>2026-05-03T06:04:02.75Z</time></trkpt><trkpt lat="39.6486074" lon="20.5085336"><ele>204.0</ele><time>2026-05-03T06:04:03.75Z</time></trkpt><trkpt lat="39.6487491" lon="20.5084827"><ele>202.0</ele><time>2026-05-03T06:04:04.746Z</time></trkpt><trkpt lat="39.6488664" lon="20.508392"><ele>200.0</ele><time>2026-05-03T06:04:05.75Z</time></trkpt><trkpt lat="39.6489615" lon="20.5082672"><ele>198.0</ele><time>2026-05-03T06:04:06.749Z</time></trkpt><trkpt lat="39.649031" lon="20.5081046"><ele>196.0</ele><time>2026-05-03T06:04:07.748Z</time></trkpt><trkpt lat="39.6490882" lon="20.5079368"><ele>196.5</ele><time>2026-05-03T06:04:08.746Z</time></trkpt><trkpt lat="39.6491439" lon="20.5077843"><ele>197.0</ele><time>2026-05-03T06:04:09.75Z</time></trkpt><trkpt lat="39.6492008" lon="20.5076558"><ele>197.5</ele><time>2026-05-03T06:04:10.75Z</time></trkpt><trkpt lat="39.649265" lon="20.5075463"><ele>198.0</ele><time>2026-05-03T06:04:11.75Z</time></trkpt><trkpt lat="39.6493433" lon="20.5074593"><ele>198.0</ele><time>2026-05-03T06:04:12.749Z</time></trkpt><trkpt lat="39.6494309" lon="20.5073858"><ele>198.0</ele><time>2026-05-03T06:04:13.749Z</time></trkpt><trkpt lat="39.6495406" lon="20.5073552"><ele>198.0</ele><time>2026-05-03T06:04:14.748Z</time></trkpt><trkpt lat="39.6496496" lon="20.5073765"><ele>198.0</ele><time>2026-05-03T06:04:15.747Z</time></trkpt><trkpt lat="39.6497631" lon="20.50744"><ele>191.75</ele><time>2026-05-03T06:04:16.75Z</time></trkpt><trkpt lat="39.6498749" lon="20.5075222"><ele>185.5</ele><time>2026-05-03T06:04:17.749Z</time></trkpt><trkpt lat="39.6499816" lon="20.50763"><ele>179.25</ele><time>2026-05-03T06:04:18.746Z</time></trkpt><trkpt lat="39.6500806" lon="20.5077442"><ele>173.0</ele><time>2026-05-03T06:04:19.749Z</time></trkpt><trkpt lat="39.6501639" lon="20.507869"><ele>175.75</ele><time>2026-05-03T06:04:20.749Z</time></trkpt><trkpt lat="39.6502414" lon="20.5080003"><ele>178.5</ele><time>2026-05-03T06:04:21.749Z</time></trkpt><trkpt lat="39.6502999" lon="20.5081483"><ele>181.25</ele><time>2026-05-03T06:04:22.747Z</time></trkpt><trkpt lat="39.6503131" lon="20.5083357"><ele>184.0</ele><time>2026-05-03T06:04:23.749Z</time></trkpt><trkpt lat="39.650299" lon="20.5084969"><ele>184.0</ele><time>2026-05-03T06:04:24.748Z</time></trkpt><trkpt lat="39.6502583" lon="20.5086483"><ele>184.0</ele><time>2026-05-03T06:04:25.748Z</time></trkpt><trkpt lat="39.6501829" lon="20.508779"><ele>184.0</ele><time>2026-05-03T06:04:26.745Z</time></trkpt><trkpt lat="39.6500874" lon="20.5089099"><ele>184.0</ele><time>2026-05-03T06:04:27.749Z</time></trkpt><trkpt lat="39.6499753" lon="20.5090393"><ele>178.0</ele><time>2026-05-03T06:04:28.75Z</time></trkpt><trkpt lat="39.6498525" lon="20.5091662"><ele>172.0</ele><time>2026-05-03T06:04:29.747Z</time></trkpt><trkpt lat="39.6497288" lon="20.5092904"><ele>166.0</ele><time>2026-05-03T06:04:30.748Z</time></trkpt><trkpt lat="39.6496004" lon="20.5094092"><ele>166.0</ele><time>2026-05-03T06:04:31.749Z</time></trkpt><trkpt lat="39.6494624" lon="20.5095295"><ele>166.0</ele><time>2026-05-03T06:04:32.75Z</time></trkpt><trkpt lat="39.6493124" lon="20.5096483"><ele>166.0</ele><time>2026-05-03T06:04:33.747Z</time></trkpt><trkpt lat="39.6491659" lon="20.5097648"><ele>163.0</ele><time>2026-05-03T06:04:34.747Z</time></trkpt><trkpt lat="39.6490144" lon="20.5098739"><ele>160.0</ele><time>2026-05-03T06:04:35.75Z</time></trkpt><trkpt lat="39.6488649" lon="20.5099858"><ele>157.0</ele><time>2026-05-03T06:04:36.748Z</time></trkpt><trkpt lat="39.6487238" lon="20.5100835"><ele>161.33333333333334</ele><time>2026-05-03T06:04:37.747Z</time></trkpt><trkpt lat="39.6485787" lon="20.5101663"><ele>165.66666666666666</ele><time>2026-05-03T06:04:38.749Z</time></trkpt><trkpt lat="39.6484223" lon="20.5102358"><ele>170.0</ele><time>2026-05-03T06:04:39.748Z</time></trkpt><trkpt lat="39.6482607" lon="20.5102861"><ele>170.0</ele><time>2026-05-03T06:04:40.75Z</time></trkpt><trkpt lat="39.6480888" lon="20.5103183"><ele>170.0</ele><time>2026-05-03T06:04:41.749Z</time></trkpt><trkpt lat="39.6479131" lon="20.5103422"><ele>170.0</ele><time>2026-05-03T06:04:42.75Z</time></trkpt><trkpt lat="39.6477494" lon="20.5103455"><ele>169.33333333333331</ele><time>2026-05-03T06:04:43.748Z</time></trkpt><trkpt lat="39.647578" lon="20.5103248"><ele>168.66666666666666</ele><time>2026-05-03T06:04:44.748Z</time></trkpt><trkpt lat="39.6473921" lon="20.5102833"><ele>168.0</ele><time>2026-05-03T06:04:45.748Z</time></trkpt><trkpt lat="39.6472218" lon="20.510235"><ele>168.0</ele><time>2026-05-03T06:04:46.748Z</time></trkpt><trkpt lat="39.6470454" lon="20.5101797"><ele>168.0</ele><time>2026-05-03T06:04:47.749Z</time></trkpt><trkpt lat="39.6468788" lon="20.5101255"><ele>168.0</ele><time>2026-05-03T06:04:48.749Z</time></trkpt><trkpt lat="39.6467176" lon="20.5100777"><ele>164.75</ele><time>2026-05-03T06:04:49.749Z</time></trkpt><trkpt lat="39.64657" lon="20.5100407"><ele>161.5</ele><time>2026-05-03T06:04:50.749Z</time></trkpt><trkpt lat="39.6464337" lon="20.5100123"><ele>158.25</ele><time>2026-05-03T06:04:51.75Z</time></trkpt><trkpt lat="39.6463126" lon="20.5099931"><ele>155.0</ele><time>2026-05-03T06:04:52.746Z</time></trkpt><trkpt lat="39.6461996" lon="20.5100222"><ele>155.75</ele><time>2026-05-03T06:04:53.748Z</time></trkpt><trkpt lat="39.6460868" lon="20.5100842"><ele>156.5</ele><time>2026-05-03T06:04:54.748Z</time></trkpt><trkpt lat="39.6459814" lon="20.5101887"><ele>157.25</ele><time>2026-05-03T06:04:55.748Z</time></trkpt><trkpt lat="39.645891" lon="20.5103146"><ele>158.0</ele><time>2026-05-03T06:04:56.747Z</time></trkpt><trkpt lat="39.6458199" lon="20.5104735"><ele>151.0</ele><time>2026-05-03T06:04:57.748Z</time></trkpt><trkpt lat="39.6457545" lon="20.5107012"><ele>144.0</ele><time>2026-05-03T06:04:58.749Z</time></trkpt><trkpt lat="39.6456996" lon="20.510907"><ele>137.0</ele><time>2026-05-03T06:04:59.747Z</time></trkpt><trkpt lat="39.6456467" lon="20.5111279"><ele>132.33333333333331</ele><time>2026-05-03T06:05:00.749Z</time></trkpt><trkpt lat="39.6456202" lon="20.5113662"><ele>127.66666666666666</ele><time>2026-05-03T06:05:01.748Z</time></trkpt><trkpt lat="39.6456092" lon="20.5115958"><ele>123.0</ele><time>2026-05-03T06:05:02.747Z</time></trkpt><trkpt lat="39.6455919" lon="20.5118163"><ele>123.0</ele><time>2026-05-03T06:05:03.75Z</time></trkpt><trkpt lat="39.6455805" lon="20.5120207"><ele>123.0</ele><time>2026-05-03T06:05:04.748Z</time></trkpt><trkpt lat="39.6455711" lon="20.5122066"><ele>123.0</ele><time>2026-05-03T06:05:05.747Z</time></trkpt><trkpt lat="39.6455552" lon="20.5123658"><ele>123.0</ele><time>2026-05-03T06:05:06.748Z</time></trkpt><trkpt lat="39.6455238" lon="20.512494"><ele>120.5</ele><time>2026-05-03T06:05:07.746Z</time></trkpt><trkpt lat="39.6454594" lon="20.5126107"><ele>118.0</ele><time>2026-05-03T06:05:08.748Z</time></trkpt><trkpt lat="39.645356" lon="20.5127046"><ele>115.5</ele><time>2026-05-03T06:05:09.747Z</time></trkpt><trkpt lat="39.6452346" lon="20.5127732"><ele>113.0</ele><time>2026-05-03T06:05:10.746Z</time></trkpt><trkpt lat="39.6451053" lon="20.5128233"><ele>114.25</ele><time>2026-05-03T06:05:11.748Z</time></trkpt><trkpt lat="39.6449699" lon="20.5128699"><ele>115.5</ele><time>2026-05-03T06:05:12.748Z</time></trkpt><trkpt lat="39.6448418" lon="20.5129654"><ele>116.75</ele><time>2026-05-03T06:05:13.749Z</time></trkpt><trkpt lat="39.6447096" lon="20.5130803"><ele>118.0</ele><time>2026-05-03T06:05:14.748Z</time></trkpt><trkpt lat="39.6445804" lon="20.5132311"><ele>118.0</ele><time>2026-05-03T06:05:15.748Z</time></trkpt><trkpt lat="39.6444672" lon="20.5134258"><ele>118.0</ele><time>2026-05-03T06:05:16.749Z</time></trkpt><trkpt lat="39.6443473" lon="20.5135799"><ele>118.0</ele><time>2026-05-03T06:05:17.749Z</time></trkpt><trkpt lat="39.6442424" lon="20.5137356"><ele>118.75</ele><time>2026-05-03T06:05:18.748Z</time></trkpt><trkpt lat="39.6441411" lon="20.5138781"><ele>119.5</ele><time>2026-05-03T06:05:19.747Z</time></trkpt><trkpt lat="39.6440481" lon="20.5140093"><ele>120.25</ele><time>2026-05-03T06:05:20.747Z</time></trkpt><trkpt lat="39.6439784" lon="20.5141215"><ele>121.0</ele><time>2026-05-03T06:05:21.748Z</time></trkpt><trkpt lat="39.6439201" lon="20.5142361"><ele>121.00000000000001</ele><time>2026-05-03T06:05:22.748Z</time></trkpt><trkpt lat="39.6439194" lon="20.5143551"><ele>121.0</ele><time>2026-05-03T06:05:23.748Z</time></trkpt><trkpt lat="39.6439421" lon="20.5144595"><ele>121.0</ele><time>2026-05-03T06:05:24.746Z</time></trkpt><trkpt lat="39.6439956" lon="20.5145395"><ele>121.0</ele><time>2026-05-03T06:05:25.747Z</time></trkpt><trkpt lat="39.6440723" lon="20.5145756"><ele>121.00000000000001</ele><time>2026-05-03T06:05:26.749Z</time></trkpt><trkpt lat="39.6441652" lon="20.5145597"><ele>121.0</ele><time>2026-05-03T06:05:27.749Z</time></trkpt><trkpt lat="39.6442429" lon="20.5144791"><ele>121.0</ele><time>2026-05-03T06:05:28.749Z</time></trkpt><trkpt lat="39.6443202" lon="20.5143571"><ele>121.0</ele><time>2026-05-03T06:05:29.749Z</time></trkpt><trkpt lat="39.6443769" lon="20.5142122"><ele>121.0</ele><time>2026-05-03T06:05:30.749Z</time></trkpt><trkpt lat="39.6444315" lon="20.5140681"><ele>121.0</ele><time>2026-05-03T06:05:31.749Z</time></trkpt><trkpt lat="39.6444996" lon="20.5139263"><ele>120.25</ele><time>2026-05-03T06:05:32.749Z</time></trkpt><trkpt lat="39.6445716" lon="20.5137982"><ele>119.5</ele><time>2026-05-03T06:05:33.75Z</time></trkpt><trkpt lat="39.6446603" lon="20.5136951"><ele>118.75</ele><time>2026-05-03T06:05:34.749Z</time></trkpt><trkpt lat="39.6447676" lon="20.5136033"><ele>118.0</ele><time>2026-05-03T06:05:35.75Z</time></trkpt><trkpt lat="39.644891" lon="20.513538"><ele>118.0</ele><time>2026-05-03T06:05:36.747Z</time></trkpt><trkpt lat="39.6450235" lon="20.5135014"><ele>118.0</ele><time>2026-05-03T06:05:37.749Z</time></trkpt><trkpt lat="39.645157" lon="20.5134883"><ele>118.0</ele><time>2026-05-03T06:05:38.748Z</time></trkpt><trkpt lat="39.6452789" lon="20.5134916"><ele>118.0</ele><time>2026-05-03T06:05:39.744Z</time></trkpt><trkpt lat="39.6453969" lon="20.5135101"><ele>115.4</ele><time>2026-05-03T06:05:40.746Z</time></trkpt><trkpt lat="39.6455025" lon="20.5135347"><ele>112.80000000000001</ele><time>2026-05-03T06:05:41.75Z</time></trkpt><trkpt lat="39.6456003" lon="20.5135742"><ele>110.2</ele><time>2026-05-03T06:05:42.749Z</time></trkpt><trkpt lat="39.6456807" lon="20.5136214"><ele>107.6</ele><time>2026-05-03T06:05:43.748Z</time></trkpt><trkpt lat="39.6457345" lon="20.5136913"><ele>105.0</ele><time>2026-05-03T06:05:44.75Z</time></trkpt><trkpt lat="39.6457559" lon="20.5137939"><ele>103.5</ele><time>2026-05-03T06:05:45.75Z</time></trkpt><trkpt lat="39.6457461" lon="20.5138934"><ele>102.0</ele><time>2026-05-03T06:05:46.748Z</time></trkpt><trkpt lat="39.6457098" lon="20.5139934"><ele>100.5</ele><time>2026-05-03T06:05:47.748Z</time></trkpt><trkpt lat="39.6456592" lon="20.5140708"><ele>99.0</ele><time>2026-05-03T06:05:48.75Z</time></trkpt><trkpt lat="39.6455635" lon="20.5140977"><ele>97.5</ele><time>2026-05-03T06:05:49.748Z</time></trkpt><trkpt lat="39.6454623" lon="20.514114"><ele>96.0</ele><time>2026-05-03T06:05:50.748Z</time></trkpt><trkpt lat="39.645362" lon="20.5141294"><ele>97.75</ele><time>2026-05-03T06:05:51.747Z</time></trkpt><trkpt lat="39.6452595" lon="20.514169"><ele>99.5</ele><time>2026-05-03T06:05:52.748Z</time></trkpt><trkpt lat="39.6451668" lon="20.5142337"><ele>101.25</ele><time>2026-05-03T06:05:53.746Z</time></trkpt><trkpt lat="39.6450809" lon="20.5143471"><ele>103.0</ele><time>2026-05-03T06:05:54.749Z</time></trkpt><trkpt lat="39.6450306" lon="20.5144849"><ele>101.5</ele><time>2026-05-03T06:05:55.749Z</time></trkpt><trkpt lat="39.6449784" lon="20.514642"><ele>100.0</ele><time>2026-05-03T06:05:56.747Z</time></trkpt><trkpt lat="39.6449464" lon="20.5148012"><ele>98.5</ele><time>2026-05-03T06:05:57.749Z</time></trkpt><trkpt lat="39.6449282" lon="20.514962"><ele>97.0</ele><time>2026-05-03T06:05:58.75Z</time></trkpt><trkpt lat="39.644931" lon="20.5151163"><ele>97.0</ele><time>2026-05-03T06:05:59.75Z</time></trkpt><trkpt lat="39.6449553" lon="20.5152561"><ele>97.0</ele><time>2026-05-03T06:06:00.749Z</time></trkpt><trkpt lat="39.6450034" lon="20.5153835"><ele>97.0</ele><time>2026-05-03T06:06:01.75Z</time></trkpt><trkpt lat="39.6450783" lon="20.5154927"><ele>97.0</ele><time>2026-05-03T06:06:02.748Z</time></trkpt><trkpt lat="39.6451612" lon="20.5155665"><ele>97.0</ele><time>2026-05-03T06:06:03.749Z</time></trkpt><trkpt lat="39.645263" lon="20.5156039"><ele>96.6</ele><time>2026-05-03T06:06:04.749Z</time></trkpt><trkpt lat="39.645361" lon="20.5156033"><ele>96.19999999999999</ele><time>2026-05-03T06:06:05.749Z</time></trkpt><trkpt lat="39.6454566" lon="20.5155799"><ele>95.8</ele><time>2026-05-03T06:06:06.749Z</time></trkpt><trkpt lat="39.6455381" lon="20.5155292"><ele>95.4</ele><time>2026-05-03T06:06:07.749Z</time></trkpt><trkpt lat="39.645621" lon="20.5154686"><ele>95.0</ele><time>2026-05-03T06:06:08.749Z</time></trkpt><trkpt lat="39.6457075" lon="20.5153912"><ele>95.0</ele><time>2026-05-03T06:06:09.75Z</time></trkpt><trkpt lat="39.6457991" lon="20.5153121"><ele>95.0</ele><time>2026-05-03T06:06:10.748Z</time></trkpt><trkpt lat="39.6439784" lon="20.5141215"><ele>96.33333333333334</ele><time>2026-05-03T06:05:21.748Z</time></trkpt><trkpt lat="39.6439201" lon="20.5142361"><ele>97.66666666666667</ele><time>2026-05-03T06:05:22.748Z</time></trkpt><trkpt lat="39.6439194" lon="20.5143551"><ele>99.0</ele><time>2026-05-03T06:05:23.748Z</time></trkpt><trkpt lat="39.6439421" lon="20.5144595"><ele>100.33333333333334</ele><time>2026-05-03T06:05:24.746Z</time></trkpt><trkpt lat="39.6439956" lon="20.5145395"><ele>101.66666666666667</ele><time>2026-05-03T06:05:25.747Z</time></trkpt><trkpt lat="39.6440723" lon="20.5145756"><ele>103.0</ele><time>2026-05-03T06:05:26.749Z</time></trkpt><trkpt lat="39.6441652" lon="20.5145597"><ele>107.5</ele><time>2026-05-03T06:05:27.749Z</time></trkpt><trkpt lat="39.6442429" lon="20.5144791"><ele>112.0</ele><time>2026-05-03T06:05:28.749Z</time></trkpt><trkpt lat="39.6443202" lon="20.5143571"><ele>116.5</ele><time>2026-05-03T06:05:29.749Z</time></trkpt><trkpt lat="39.6443769" lon="20.5142122"><ele>121.0</ele><time>2026-05-03T06:05:30.749Z</time></trkpt><trkpt lat="39.6444315" lon="20.5140681"><ele>120.25</ele><time>2026-05-03T06:05:31.749Z</time></trkpt><trkpt lat="39.6444996" lon="20.5139263"><ele>119.5</ele><time>2026-05-03T06:05:32.749Z</time></trkpt><trkpt lat="39.6445716" lon="20.5137982"><ele>118.75</ele><time>2026-05-03T06:05:33.75Z</time></trkpt><trkpt lat="39.6446603" lon="20.5136951"><ele>118.0</ele><time>2026-05-03T06:05:34.749Z</time></trkpt><trkpt lat="39.6447676" lon="20.5136033"><ele>118.0</ele><time>2026-05-03T06:05:35.75Z</time></trkpt><trkpt lat="39.644891" lon="20.513538"><ele>118.0</ele><time>2026-05-03T06:05:36.747Z</time></trkpt><trkpt lat="39.6450235" lon="20.5135014"><ele>118.0</ele><time>2026-05-03T06:05:37.749Z</time></trkpt><trkpt lat="39.645157" lon="20.5134883"><ele>118.0</ele><time>2026-05-03T06:05:38.748Z</time></trkpt><trkpt lat="39.6452789" lon="20.5134916"><ele>115.4</ele><time>2026-05-03T06:05:39.744Z</time></trkpt><trkpt lat="39.6453969" lon="20.5135101"><ele>112.80000000000001</ele><time>2026-05-03T06:05:40.746Z</time></trkpt><trkpt lat="39.6455025" lon="20.5135347"><ele>110.2</ele><time>2026-05-03T06:05:41.75Z</time></trkpt><trkpt lat="39.6456003" lon="20.5135742"><ele>107.6</ele><time>2026-05-03T06:05:42.749Z</time></trkpt><trkpt lat="39.6456807" lon="20.5136214"><ele>105.0</ele><time>2026-05-03T06:05:43.748Z</time></trkpt><trkpt lat="39.6457345" lon="20.5136913"><ele>103.5</ele><time>2026-05-03T06:05:44.75Z</time></trkpt><trkpt lat="39.6457559" lon="20.5137939"><ele>102.0</ele><time>2026-05-03T06:05:45.75Z</time></trkpt><trkpt lat="39.6457461" lon="20.5138934"><ele>100.5</ele><time>2026-05-03T06:05:46.748Z</time></trkpt><trkpt lat="39.6457098" lon="20.5139934"><ele>99.0</ele><time>2026-05-03T06:05:47.748Z</time></trkpt><trkpt lat="39.6456592" lon="20.5140708"><ele>97.5</ele><time>2026-05-03T06:05:48.75Z</time></trkpt><trkpt lat="39.6455635" lon="20.5140977"><ele>96.0</ele><time>2026-05-03T06:05:49.748Z</time></trkpt><trkpt lat="39.6454623" lon="20.514114"><ele>96.0</ele><time>2026-05-03T06:05:50.748Z</time></trkpt><trkpt lat="39.645362" lon="20.5141294"><ele>96.0</ele><time>2026-05-03T06:05:51.747Z</time></trkpt><trkpt lat="39.6452595" lon="20.514169"><ele>96.0</ele><time>2026-05-03T06:05:52.748Z</time></trkpt><trkpt lat="39.6451668" lon="20.5142337"><ele>96.0</ele><time>2026-05-03T06:05:53.746Z</time></trkpt><trkpt lat="39.6450809" lon="20.5143471"><ele>96.0</ele><time>2026-05-03T06:05:54.749Z</time></trkpt><trkpt lat="39.6450306" lon="20.5144849"><ele>96.25</ele><time>2026-05-03T06:05:55.749Z</time></trkpt><trkpt lat="39.6449784" lon="20.514642"><ele>96.5</ele><time>2026-05-03T06:05:56.747Z</time></trkpt><trkpt lat="39.6449464" lon="20.5148012"><ele>96.75</ele><time>2026-05-03T06:05:57.749Z</time></trkpt><trkpt lat="39.6449282" lon="20.514962"><ele>97.0</ele><time>2026-05-03T06:05:58.75Z</time></trkpt><trkpt lat="39.644931" lon="20.5151163"><ele>97.0</ele><time>2026-05-03T06:05:59.75Z</time></trkpt><trkpt lat="39.6449553" lon="20.5152561"><ele>97.0</ele><time>2026-05-03T06:06:00.749Z</time></trkpt><trkpt lat="39.6450034" lon="20.5153835"><ele>97.0</ele><time>2026-05-03T06:06:01.75Z</time></trkpt><trkpt lat="39.6450783" lon="20.5154927"><ele>97.0</ele><time>2026-05-03T06:06:02.748Z</time></trkpt><trkpt lat="39.6451612" lon="20.5155665"><ele>97.0</ele><time>2026-05-03T06:06:03.749Z</time></trkpt><trkpt lat="39.645263" lon="20.5156039"><ele>96.6</ele><time>2026-05-03T06:06:04.749Z</time></trkpt><trkpt lat="39.645361" lon="20.5156033"><ele>96.19999999999999</ele><time>2026-05-03T06:06:05.749Z</time></trkpt><trkpt lat="39.6454566" lon="20.5155799"><ele>95.8</ele><time>2026-05-03T06:06:06.749Z</time></trkpt><trkpt lat="39.6455381" lon="20.5155292"><ele>95.4</ele><time>2026-05-03T06:06:07.749Z</time></trkpt><trkpt lat="39.645621" lon="20.5154686"><ele>95.0</ele><time>2026-05-03T06:06:08.749Z</time></trkpt><trkpt lat="39.6457075" lon="20.5153912"><ele>95.0</ele><time>2026-05-03T06:06:09.75Z</time></trkpt><trkpt lat="39.6457991" lon="20.5153121"><ele>95.0</ele><time>2026-05-03T06:06:10.748Z</time></trkpt><trkpt lat="39.64589" lon="20.5152251"><ele>95.0</ele><time>2026-05-03T06:06:11.749Z</time></trkpt><trkpt lat="39.6459798" lon="20.5151353"><ele>95.0</ele><time>2026-05-03T06:06:12.749Z</time></trkpt><trkpt lat="39.6460666" lon="20.5150493"><ele>95.0</ele><time>2026-05-03T06:06:13.748Z</time></trkpt><trkpt lat="39.6461572" lon="20.5149504"><ele>95.4</ele><time>2026-05-03T06:06:14.744Z</time></trkpt><trkpt lat="39.6462305" lon="20.5148444"><ele>95.8</ele><time>2026-05-03T06:06:15.748Z</time></trkpt><trkpt lat="39.6463038" lon="20.5147417"><ele>96.19999999999999</ele><time>2026-05-03T06:06:16.746Z</time></trkpt><trkpt lat="39.646368" lon="20.5146305"><ele>96.6</ele><time>2026-05-03T06:06:17.748Z</time></trkpt><trkpt lat="39.6464233" lon="20.5145203"><ele>97.0</ele><time>2026-05-03T06:06:18.75Z</time></trkpt><trkpt lat="39.6464707" lon="20.5144141"><ele>97.00000000000001</ele><time>2026-05-03T06:06:19.749Z</time></trkpt><trkpt lat="39.6465175" lon="20.5143111"><ele>97.0</ele><time>2026-05-03T06:06:20.747Z</time></trkpt><trkpt lat="39.6465621" lon="20.5142275"><ele>97.0</ele><time>2026-05-03T06:06:21.75Z</time></trkpt><trkpt lat="39.6466268" lon="20.5141634"><ele>97.0</ele><time>2026-05-03T06:06:22.749Z</time></trkpt><trkpt lat="39.6466921" lon="20.5141117"><ele>97.00000000000001</ele><time>2026-05-03T06:06:23.748Z</time></trkpt><trkpt lat="39.6467718" lon="20.5140988"><ele>97.0</ele><time>2026-05-03T06:06:24.747Z</time></trkpt><trkpt lat="39.6468481" lon="20.5141044"><ele>97.0</ele><time>2026-05-03T06:06:25.749Z</time></trkpt><trkpt lat="39.6469302" lon="20.5141285"><ele>97.0</ele><time>2026-05-03T06:06:26.748Z</time></trkpt><trkpt lat="39.6470212" lon="20.5141692"><ele>97.0</ele><time>2026-05-03T06:06:27.749Z</time></trkpt><trkpt lat="39.6471186" lon="20.5142287"><ele>97.0</ele><time>2026-05-03T06:06:28.749Z</time></trkpt><trkpt lat="39.6472255" lon="20.5143147"><ele>97.0</ele><time>2026-05-03T06:06:29.75Z</time></trkpt><trkpt lat="39.6473414" lon="20.5144269"><ele>97.0</ele><time>2026-05-03T06:06:30.749Z</time></trkpt><trkpt lat="39.6474436" lon="20.514533"><ele>97.0</ele><time>2026-05-03T06:06:31.749Z</time></trkpt><trkpt lat="39.6475326" lon="20.5146592"><ele>97.0</ele><time>2026-05-03T06:06:32.749Z</time></trkpt><trkpt lat="39.6476093" lon="20.5147897"><ele>97.0</ele><time>2026-05-03T06:06:33.749Z</time></trkpt><trkpt lat="39.6476721" lon="20.5149345"><ele>99.0</ele><time>2026-05-03T06:06:34.749Z</time></trkpt><trkpt lat="39.6477015" lon="20.5150968"><ele>101.0</ele><time>2026-05-03T06:06:35.75Z</time></trkpt><trkpt lat="39.6477127" lon="20.5152874"><ele>103.0</ele><time>2026-05-03T06:06:36.745Z</time></trkpt><trkpt lat="39.6477154" lon="20.5154884"><ele>105.0</ele><time>2026-05-03T06:06:37.749Z</time></trkpt><trkpt lat="39.6477093" lon="20.5157137"><ele>108.66666666666666</ele><time>2026-05-03T06:06:38.748Z</time></trkpt><trkpt lat="39.6476955" lon="20.5159401"><ele>112.33333333333333</ele><time>2026-05-03T06:06:39.75Z</time></trkpt><trkpt lat="39.6476803" lon="20.5161591"><ele>116.0</ele><time>2026-05-03T06:06:40.746Z</time></trkpt><trkpt lat="39.6476691" lon="20.5163767"><ele>116.0</ele><time>2026-05-03T06:06:41.745Z</time></trkpt><trkpt lat="39.647661" lon="20.5165975"><ele>116.0</ele><time>2026-05-03T06:06:42.746Z</time></trkpt><trkpt lat="39.6476612" lon="20.516826"><ele>116.0</ele><time>2026-05-03T06:06:43.748Z</time></trkpt><trkpt lat="39.6476714" lon="20.5170615"><ele>115.33333333333333</ele><time>2026-05-03T06:06:44.746Z</time></trkpt><trkpt lat="39.6476879" lon="20.5172924"><ele>114.66666666666666</ele><time>2026-05-03T06:06:45.749Z</time></trkpt><trkpt lat="39.6477161" lon="20.5175291"><ele>114.0</ele><time>2026-05-03T06:06:46.747Z</time></trkpt><trkpt lat="39.6477324" lon="20.5177694"><ele>111.33333333333334</ele><time>2026-05-03T06:06:47.749Z</time></trkpt><trkpt lat="39.6477644" lon="20.5179928"><ele>108.66666666666667</ele><time>2026-05-03T06:06:48.747Z</time></trkpt><trkpt lat="39.6477944" lon="20.5182243"><ele>106.0</ele><time>2026-05-03T06:06:49.748Z</time></trkpt><trkpt lat="39.6478447" lon="20.5184691"><ele>101.0</ele><time>2026-05-03T06:06:50.747Z</time></trkpt><trkpt lat="39.647914" lon="20.5187052"><ele>96.0</ele><time>2026-05-03T06:06:51.749Z</time></trkpt><trkpt lat="39.6480027" lon="20.5189415"><ele>91.0</ele><time>2026-05-03T06:06:52.748Z</time></trkpt><trkpt lat="39.6481112" lon="20.5191857"><ele>91.0</ele><time>2026-05-03T06:06:53.75Z</time></trkpt><trkpt lat="39.6482365" lon="20.5194347"><ele>91.0</ele><time>2026-05-03T06:06:54.747Z</time></trkpt><trkpt lat="39.6483662" lon="20.5196924"><ele>93.0</ele><time>2026-05-03T06:06:55.748Z</time></trkpt><trkpt lat="39.6484917" lon="20.5199501"><ele>95.0</ele><time>2026-05-03T06:06:56.748Z</time></trkpt><trkpt lat="39.6486191" lon="20.5202077"><ele>94.0</ele><time>2026-05-03T06:06:57.748Z</time></trkpt><trkpt lat="39.6487487" lon="20.5204672"><ele>93.0</ele><time>2026-05-03T06:06:58.748Z</time></trkpt><trkpt lat="39.6488788" lon="20.5207279"><ele>93.0</ele><time>2026-05-03T06:06:59.747Z</time></trkpt><trkpt lat="39.6490103" lon="20.520989"><ele>93.0</ele><time>2026-05-03T06:07:00.748Z</time></trkpt><trkpt lat="39.6491408" lon="20.5212538"><ele>93.5</ele><time>2026-05-03T06:07:01.746Z</time></trkpt><trkpt lat="39.649273" lon="20.5215135"><ele>94.0</ele><time>2026-05-03T06:07:02.747Z</time></trkpt><trkpt lat="39.6494081" lon="20.5217771"><ele>94.0</ele><time>2026-05-03T06:07:03.747Z</time></trkpt><trkpt lat="39.6495415" lon="20.5220379"><ele>94.0</ele><time>2026-05-03T06:07:04.746Z</time></trkpt><trkpt lat="39.6496716" lon="20.5222986"><ele>96.0</ele><time>2026-05-03T06:07:05.748Z</time></trkpt><trkpt lat="39.6498025" lon="20.5225565"><ele>98.0</ele><time>2026-05-03T06:07:06.745Z</time></trkpt><trkpt lat="39.6499347" lon="20.5228149"><ele>101.0</ele><time>2026-05-03T06:07:07.749Z</time></trkpt><trkpt lat="39.6500591" lon="20.5230707"><ele>104.0</ele><time>2026-05-03T06:07:08.747Z</time></trkpt><trkpt lat="39.650187" lon="20.5233286"><ele>100.5</ele><time>2026-05-03T06:07:09.746Z</time></trkpt><trkpt lat="39.6503115" lon="20.5235865"><ele>97.0</ele><time>2026-05-03T06:07:10.747Z</time></trkpt><trkpt lat="39.6504405" lon="20.5238478"><ele>97.0</ele><time>2026-05-03T06:07:11.748Z</time></trkpt><trkpt lat="39.6505651" lon="20.5241145"><ele>97.0</ele><time>2026-05-03T06:07:12.748Z</time></trkpt><trkpt lat="39.6506877" lon="20.524384"><ele>104.0</ele><time>2026-05-03T06:07:13.749Z</time></trkpt><trkpt lat="39.65081" lon="20.5246608"><ele>111.0</ele><time>2026-05-03T06:07:14.747Z</time></trkpt><trkpt lat="39.6509292" lon="20.5249459"><ele>111.0</ele><time>2026-05-03T06:07:15.748Z</time></trkpt><trkpt lat="39.6510427" lon="20.5252358"><ele>111.0</ele><time>2026-05-03T06:07:16.746Z</time></trkpt><trkpt lat="39.6511495" lon="20.5255304"><ele>103.5</ele><time>2026-05-03T06:07:17.748Z</time></trkpt><trkpt lat="39.6512525" lon="20.5258236"><ele>96.0</ele><time>2026-05-03T06:07:18.746Z</time></trkpt><trkpt lat="39.651344" lon="20.5260981"><ele>98.0</ele><time>2026-05-03T06:07:19.747Z</time></trkpt><trkpt lat="39.6514281" lon="20.5263588"><ele>100.0</ele><time>2026-05-03T06:07:20.747Z</time></trkpt><trkpt lat="39.651505" lon="20.5266021"><ele>102.0</ele><time>2026-05-03T06:07:21.748Z</time></trkpt><trkpt lat="39.6515624" lon="20.5268435"><ele>103.33333333333334</ele><time>2026-05-03T06:07:22.748Z</time></trkpt><trkpt lat="39.651595" lon="20.5270737"><ele>104.66666666666667</ele><time>2026-05-03T06:07:23.747Z</time></trkpt><trkpt lat="39.6516155" lon="20.5273044"><ele>106.0</ele><time>2026-05-03T06:07:24.748Z</time></trkpt><trkpt lat="39.6515955" lon="20.5275137"><ele>106.0</ele><time>2026-05-03T06:07:25.746Z</time></trkpt><trkpt lat="39.651544" lon="20.5277274"><ele>106.0</ele><time>2026-05-03T06:07:26.746Z</time></trkpt><trkpt lat="39.6514801" lon="20.5279415"><ele>106.0</ele><time>2026-05-03T06:07:27.747Z</time></trkpt><trkpt lat="39.6514162" lon="20.528156"><ele>106.0</ele><time>2026-05-03T06:07:28.747Z</time></trkpt><trkpt lat="39.6513688" lon="20.5283728"><ele>106.0</ele><time>2026-05-03T06:07:29.746Z</time></trkpt><trkpt lat="39.6513451" lon="20.5285937"><ele>106.0</ele><time>2026-05-03T06:07:30.747Z</time></trkpt><trkpt lat="39.651351" lon="20.5288106"><ele>107.66666666666667</ele><time>2026-05-03T06:07:31.748Z</time></trkpt><trkpt lat="39.6513888" lon="20.5290244"><ele>109.33333333333334</ele><time>2026-05-03T06:07:32.749Z</time></trkpt><trkpt lat="39.6514583" lon="20.5292246"><ele>111.0</ele><time>2026-05-03T06:07:33.748Z</time></trkpt><trkpt lat="39.6515586" lon="20.5294063"><ele>113.0</ele><time>2026-05-03T06:07:34.747Z</time></trkpt><trkpt lat="39.651697" lon="20.5295823"><ele>115.0</ele><time>2026-05-03T06:07:35.748Z</time></trkpt><trkpt lat="39.6518612" lon="20.5297164"><ele>117.0</ele><time>2026-05-03T06:07:36.749Z</time></trkpt><trkpt lat="39.6520498" lon="20.5298265"><ele>117.0</ele><time>2026-05-03T06:07:37.747Z</time></trkpt><trkpt lat="39.6522543" lon="20.5299285"><ele>117.0</ele><time>2026-05-03T06:07:38.749Z</time></trkpt><trkpt lat="39.6524623" lon="20.5300096"><ele>117.0</ele><time>2026-05-03T06:07:39.75Z</time></trkpt><trkpt lat="39.6526691" lon="20.5300869"><ele>114.0</ele><time>2026-05-03T06:07:40.748Z</time></trkpt><trkpt lat="39.6528854" lon="20.5301775"><ele>111.0</ele><time>2026-05-03T06:07:41.749Z</time></trkpt><trkpt lat="39.6531102" lon="20.5302739"><ele>111.0</ele><time>2026-05-03T06:07:42.746Z</time></trkpt><trkpt lat="39.653337" lon="20.5303699"><ele>111.0</ele><time>2026-05-03T06:07:43.746Z</time></trkpt><trkpt lat="39.6535631" lon="20.5304668"><ele>116.0</ele><time>2026-05-03T06:07:44.745Z</time></trkpt><trkpt lat="39.653782" lon="20.5305596"><ele>121.0</ele><time>2026-05-03T06:07:45.749Z</time></trkpt><trkpt lat="39.6540092" lon="20.5306609"><ele>121.0</ele><time>2026-05-03T06:07:46.748Z</time></trkpt><trkpt lat="39.654223" lon="20.5307652"><ele>121.0</ele><time>2026-05-03T06:07:47.748Z</time></trkpt><trkpt lat="39.6544401" lon="20.5308714"><ele>121.66666666666667</ele><time>2026-05-03T06:07:48.749Z</time></trkpt><trkpt lat="39.6546524" lon="20.5309735"><ele>122.33333333333334</ele><time>2026-05-03T06:07:49.745Z</time></trkpt><trkpt lat="39.6548538" lon="20.5310734"><ele>123.0</ele><time>2026-05-03T06:07:50.745Z</time></trkpt><trkpt lat="39.6550386" lon="20.5311677"><ele>124.66666666666666</ele><time>2026-05-03T06:07:51.75Z</time></trkpt><trkpt lat="39.6552091" lon="20.5312539"><ele>126.33333333333333</ele><time>2026-05-03T06:07:52.747Z</time></trkpt><trkpt lat="39.6553691" lon="20.531331"><ele>128.0</ele><time>2026-05-03T06:07:53.745Z</time></trkpt><trkpt lat="39.6555112" lon="20.531432"><ele>128.0</ele><time>2026-05-03T06:07:54.749Z</time></trkpt><trkpt lat="39.6556372" lon="20.5315499"><ele>128.0</ele><time>2026-05-03T06:07:55.748Z</time></trkpt><trkpt lat="39.6557547" lon="20.5316796"><ele>128.0</ele><time>2026-05-03T06:07:56.748Z</time></trkpt><trkpt lat="39.6558449" lon="20.531828"><ele>128.0</ele><time>2026-05-03T06:07:57.75Z</time></trkpt><trkpt lat="39.6559069" lon="20.5320027"><ele>128.0</ele><time>2026-05-03T06:07:58.745Z</time></trkpt><trkpt lat="39.6559378" lon="20.5322016"><ele>128.0</ele><time>2026-05-03T06:07:59.746Z</time></trkpt><trkpt lat="39.6559542" lon="20.5324029"><ele>130.66666666666666</ele><time>2026-05-03T06:08:00.746Z</time></trkpt><trkpt lat="39.6559447" lon="20.5326132"><ele>133.33333333333334</ele><time>2026-05-03T06:08:01.749Z</time></trkpt><trkpt lat="39.6559081" lon="20.5328134"><ele>136.0</ele><time>2026-05-03T06:08:02.749Z</time></trkpt><trkpt lat="39.6558443" lon="20.5330018"><ele>136.0</ele><time>2026-05-03T06:08:03.747Z</time></trkpt><trkpt lat="39.6557328" lon="20.5331935"><ele>136.0</ele><time>2026-05-03T06:08:04.748Z</time></trkpt><trkpt lat="39.6556181" lon="20.5333705"><ele>136.0</ele><time>2026-05-03T06:08:05.747Z</time></trkpt><trkpt lat="39.6554631" lon="20.5334821"><ele>136.0</ele><time>2026-05-03T06:08:06.747Z</time></trkpt><trkpt lat="39.6552925" lon="20.5335864"><ele>136.0</ele><time>2026-05-03T06:08:07.748Z</time></trkpt><trkpt lat="39.6551145" lon="20.5336114"><ele>136.0</ele><time>2026-05-03T06:08:08.749Z</time></trkpt><trkpt lat="39.6549442" lon="20.5336363"><ele>140.0</ele><time>2026-05-03T06:08:09.746Z</time></trkpt><trkpt lat="39.6547619" lon="20.53363"><ele>144.0</ele><time>2026-05-03T06:08:10.746Z</time></trkpt><trkpt lat="39.6545802" lon="20.5336607"><ele>148.0</ele><time>2026-05-03T06:08:11.748Z</time></trkpt><trkpt lat="39.6544022" lon="20.5337174"><ele>151.0</ele><time>2026-05-03T06:08:12.749Z</time></trkpt><trkpt lat="39.654237" lon="20.5338162"><ele>154.0</ele><time>2026-05-03T06:08:13.749Z</time></trkpt><trkpt lat="39.6540786" lon="20.5339623"><ele>157.0</ele><time>2026-05-03T06:08:14.748Z</time></trkpt><trkpt lat="39.6539221" lon="20.5341323"><ele>157.0</ele><time>2026-05-03T06:08:15.748Z</time></trkpt><trkpt lat="39.6537613" lon="20.5343127"><ele>157.0</ele><time>2026-05-03T06:08:16.747Z</time></trkpt><trkpt lat="39.6535916" lon="20.5344995"><ele>157.0</ele><time>2026-05-03T06:08:17.75Z</time></trkpt><trkpt lat="39.653425" lon="20.5346849"><ele>157.33333333333334</ele><time>2026-05-03T06:08:18.75Z</time></trkpt><trkpt lat="39.6532699" lon="20.5348642"><ele>157.66666666666666</ele><time>2026-05-03T06:08:19.749Z</time></trkpt><trkpt lat="39.6531238" lon="20.5350373"><ele>158.0</ele><time>2026-05-03T06:08:20.748Z</time></trkpt><trkpt lat="39.653001" lon="20.5352015"><ele>158.0</ele><time>2026-05-03T06:08:21.748Z</time></trkpt><trkpt lat="39.6528891" lon="20.5353665"><ele>158.0</ele><time>2026-05-03T06:08:22.746Z</time></trkpt><trkpt lat="39.6527815" lon="20.5355111"><ele>158.0</ele><time>2026-05-03T06:08:23.749Z</time></trkpt><trkpt lat="39.6526659" lon="20.535627"><ele>159.5</ele><time>2026-05-03T06:08:24.745Z</time></trkpt><trkpt lat="39.6525429" lon="20.5357117"><ele>161.0</ele><time>2026-05-03T06:08:25.746Z</time></trkpt><trkpt lat="39.6524069" lon="20.5357541"><ele>162.5</ele><time>2026-05-03T06:08:26.748Z</time></trkpt><trkpt lat="39.6522547" lon="20.5357578"><ele>164.0</ele><time>2026-05-03T06:08:27.746Z</time></trkpt><trkpt lat="39.6521031" lon="20.5357329"><ele>163.0</ele><time>2026-05-03T06:08:28.747Z</time></trkpt><trkpt lat="39.6519345" lon="20.5356758"><ele>162.0</ele><time>2026-05-03T06:08:29.747Z</time></trkpt><trkpt lat="39.6517634" lon="20.5356084"><ele>161.0</ele><time>2026-05-03T06:08:30.75Z</time></trkpt><trkpt lat="39.6515818" lon="20.535529"><ele>161.0</ele><time>2026-05-03T06:08:31.748Z</time></trkpt><trkpt lat="39.6514" lon="20.5354435"><ele>161.0</ele><time>2026-05-03T06:08:32.747Z</time></trkpt><trkpt lat="39.6512257" lon="20.5353699"><ele>161.0</ele><time>2026-05-03T06:08:33.75Z</time></trkpt><trkpt lat="39.6510539" lon="20.5353148"><ele>163.66666666666666</ele><time>2026-05-03T06:08:34.747Z</time></trkpt><trkpt lat="39.6508864" lon="20.5352775"><ele>166.33333333333334</ele><time>2026-05-03T06:08:35.746Z</time></trkpt><trkpt lat="39.6507172" lon="20.5352616"><ele>169.0</ele><time>2026-05-03T06:08:36.749Z</time></trkpt><trkpt lat="39.6505495" lon="20.5352912"><ele>169.0</ele><time>2026-05-03T06:08:37.75Z</time></trkpt><trkpt lat="39.650387" lon="20.535353"><ele>169.0</ele><time>2026-05-03T06:08:38.749Z</time></trkpt><trkpt lat="39.6502187" lon="20.535436"><ele>169.0</ele><time>2026-05-03T06:08:39.748Z</time></trkpt><trkpt lat="39.6500612" lon="20.5355547"><ele>166.0</ele><time>2026-05-03T06:08:40.749Z</time></trkpt><trkpt lat="39.6499054" lon="20.5357"><ele>163.0</ele><time>2026-05-03T06:08:41.747Z</time></trkpt><trkpt lat="39.6497546" lon="20.5358614"><ele>160.0</ele><time>2026-05-03T06:08:42.75Z</time></trkpt><trkpt lat="39.6496145" lon="20.5360542"><ele>159.66666666666669</ele><time>2026-05-03T06:08:43.746Z</time></trkpt><trkpt lat="39.6494815" lon="20.5362467"><ele>159.33333333333334</ele><time>2026-05-03T06:08:44.746Z</time></trkpt><trkpt lat="39.6493562" lon="20.5364411"><ele>159.0</ele><time>2026-05-03T06:08:45.748Z</time></trkpt><trkpt lat="39.6492392" lon="20.5366379"><ele>159.0</ele><time>2026-05-03T06:08:46.745Z</time></trkpt><trkpt lat="39.6491285" lon="20.5368365"><ele>159.0</ele><time>2026-05-03T06:08:47.746Z</time></trkpt><trkpt lat="39.6490331" lon="20.5370338"><ele>159.0</ele><time>2026-05-03T06:08:48.749Z</time></trkpt><trkpt lat="39.6489507" lon="20.5372413"><ele>156.33333333333334</ele><time>2026-05-03T06:08:49.746Z</time></trkpt><trkpt lat="39.6488714" lon="20.537449"><ele>153.66666666666669</ele><time>2026-05-03T06:08:50.746Z</time></trkpt><trkpt lat="39.6488134" lon="20.5376798"><ele>151.0</ele><time>2026-05-03T06:08:51.749Z</time></trkpt><trkpt lat="39.6487707" lon="20.5379298"><ele>149.33333333333334</ele><time>2026-05-03T06:08:52.747Z</time></trkpt><trkpt lat="39.6487499" lon="20.5381849"><ele>147.66666666666666</ele><time>2026-05-03T06:08:53.748Z</time></trkpt><trkpt lat="39.648749" lon="20.5384473"><ele>146.0</ele><time>2026-05-03T06:08:54.75Z</time></trkpt><trkpt lat="39.6487564" lon="20.5387184"><ele>146.0</ele><time>2026-05-03T06:08:55.747Z</time></trkpt><trkpt lat="39.6487687" lon="20.5389905"><ele>146.0</ele><time>2026-05-03T06:08:56.746Z</time></trkpt><trkpt lat="39.648786" lon="20.5392658"><ele>146.0</ele><time>2026-05-03T06:08:57.747Z</time></trkpt><trkpt lat="39.6487981" lon="20.5395381"><ele>145.0</ele><time>2026-05-03T06:08:58.749Z</time></trkpt><trkpt lat="39.6488055" lon="20.5398162"><ele>144.0</ele><time>2026-05-03T06:08:59.749Z</time></trkpt><trkpt lat="39.6488156" lon="20.5400972"><ele>143.0</ele><time>2026-05-03T06:09:00.745Z</time></trkpt><trkpt lat="39.6488262" lon="20.5403793"><ele>141.66666666666666</ele><time>2026-05-03T06:09:01.747Z</time></trkpt><trkpt lat="39.6488317" lon="20.5406587"><ele>140.33333333333334</ele><time>2026-05-03T06:09:02.747Z</time></trkpt><trkpt lat="39.6488386" lon="20.5409302"><ele>139.0</ele><time>2026-05-03T06:09:03.747Z</time></trkpt><trkpt lat="39.6488425" lon="20.5411987"><ele>138.66666666666669</ele><time>2026-05-03T06:09:04.745Z</time></trkpt><trkpt lat="39.6488464" lon="20.5414612"><ele>138.33333333333334</ele><time>2026-05-03T06:09:05.747Z</time></trkpt><trkpt lat="39.6488403" lon="20.5417192"><ele>138.0</ele><time>2026-05-03T06:09:06.747Z</time></trkpt><trkpt lat="39.6488238" lon="20.5419827"><ele>138.0</ele><time>2026-05-03T06:09:07.75Z</time></trkpt><trkpt lat="39.6488034" lon="20.5422461"><ele>138.0</ele><time>2026-05-03T06:09:08.748Z</time></trkpt><trkpt lat="39.6487789" lon="20.5425124"><ele>138.0</ele><time>2026-05-03T06:09:09.748Z</time></trkpt><trkpt lat="39.6487505" lon="20.5427754"><ele>137.66666666666666</ele><time>2026-05-03T06:09:10.746Z</time></trkpt><trkpt lat="39.6487206" lon="20.5430329"><ele>137.33333333333331</ele><time>2026-05-03T06:09:11.748Z</time></trkpt><trkpt lat="39.6486785" lon="20.5432906"><ele>137.0</ele><time>2026-05-03T06:09:12.745Z</time></trkpt><trkpt lat="39.6486368" lon="20.5435426"><ele>137.33333333333331</ele><time>2026-05-03T06:09:13.747Z</time></trkpt><trkpt lat="39.648588" lon="20.5437912"><ele>137.66666666666666</ele><time>2026-05-03T06:09:14.745Z</time></trkpt><trkpt lat="39.6485278" lon="20.5440388"><ele>138.0</ele><time>2026-05-03T06:09:15.748Z</time></trkpt><trkpt lat="39.6484565" lon="20.5442955"><ele>136.0</ele><time>2026-05-03T06:09:16.748Z</time></trkpt><trkpt lat="39.6483888" lon="20.5445532"><ele>134.0</ele><time>2026-05-03T06:09:17.746Z</time></trkpt><trkpt lat="39.6483134" lon="20.5448008"><ele>132.0</ele><time>2026-05-03T06:09:18.747Z</time></trkpt><trkpt lat="39.6482411" lon="20.5450415"><ele>132.0</ele><time>2026-05-03T06:09:19.747Z</time></trkpt><trkpt lat="39.6481786" lon="20.5452789"><ele>132.0</ele><time>2026-05-03T06:09:20.749Z</time></trkpt><trkpt lat="39.6481246" lon="20.5455138"><ele>132.0</ele><time>2026-05-03T06:09:21.75Z</time></trkpt><trkpt lat="39.6480843" lon="20.5457505"><ele>130.33333333333334</ele><time>2026-05-03T06:09:22.749Z</time></trkpt><trkpt lat="39.6480644" lon="20.5459905"><ele>128.66666666666669</ele><time>2026-05-03T06:09:23.746Z</time></trkpt><trkpt lat="39.648068" lon="20.5462296"><ele>127.0</ele><time>2026-05-03T06:09:24.748Z</time></trkpt><trkpt lat="39.6480956" lon="20.546467"><ele>127.0</ele><time>2026-05-03T06:09:25.749Z</time></trkpt><trkpt lat="39.6481436" lon="20.5467011"><ele>127.0</ele><time>2026-05-03T06:09:26.748Z</time></trkpt><trkpt lat="39.6482152" lon="20.5469219"><ele>127.0</ele><time>2026-05-03T06:09:27.747Z</time></trkpt><trkpt lat="39.6483145" lon="20.5471346"><ele>126.66666666666667</ele><time>2026-05-03T06:09:28.749Z</time></trkpt><trkpt lat="39.6484416" lon="20.5473398"><ele>126.33333333333334</ele><time>2026-05-03T06:09:29.748Z</time></trkpt><trkpt lat="39.6485861" lon="20.547528"><ele>126.0</ele><time>2026-05-03T06:09:30.75Z</time></trkpt><trkpt lat="39.6487391" lon="20.547703"><ele>126.0</ele><time>2026-05-03T06:09:31.749Z</time></trkpt><trkpt lat="39.6488844" lon="20.5478703"><ele>126.0</ele><time>2026-05-03T06:09:32.748Z</time></trkpt><trkpt lat="39.6490178" lon="20.5480442"><ele>126.0</ele><time>2026-05-03T06:09:33.75Z</time></trkpt><trkpt lat="39.6491449" lon="20.5482298"><ele>126.66666666666666</ele><time>2026-05-03T06:09:34.748Z</time></trkpt><trkpt lat="39.6492586" lon="20.548428"><ele>127.33333333333333</ele><time>2026-05-03T06:09:35.746Z</time></trkpt><trkpt lat="39.6493661" lon="20.5486405"><ele>128.0</ele><time>2026-05-03T06:09:36.748Z</time></trkpt><trkpt lat="39.6494657" lon="20.5488628"><ele>125.66666666666666</ele><time>2026-05-03T06:09:37.749Z</time></trkpt><trkpt lat="39.6495759" lon="20.5490992"><ele>123.33333333333334</ele><time>2026-05-03T06:09:38.749Z</time></trkpt><trkpt lat="39.6496828" lon="20.5493187"><ele>121.0</ele><time>2026-05-03T06:09:39.75Z</time></trkpt><trkpt lat="39.6497986" lon="20.5495363"><ele>121.0</ele><time>2026-05-03T06:09:40.748Z</time></trkpt><trkpt lat="39.6499085" lon="20.5497655"><ele>121.0</ele><time>2026-05-03T06:09:41.75Z</time></trkpt><trkpt lat="39.6500155" lon="20.549993"><ele>121.0</ele><time>2026-05-03T06:09:42.749Z</time></trkpt><trkpt lat="39.6501275" lon="20.5502228"><ele>121.0</ele><time>2026-05-03T06:09:43.749Z</time></trkpt><trkpt lat="39.6502402" lon="20.5504577"><ele>121.0</ele><time>2026-05-03T06:09:44.75Z</time></trkpt><trkpt lat="39.6503494" lon="20.5506873"><ele>121.0</ele><time>2026-05-03T06:09:45.749Z</time></trkpt><trkpt lat="39.6504608" lon="20.5509155"><ele>120.66666666666667</ele><time>2026-05-03T06:09:46.747Z</time></trkpt><trkpt lat="39.6505812" lon="20.5511349"><ele>120.33333333333334</ele><time>2026-05-03T06:09:47.749Z</time></trkpt><trkpt lat="39.6507191" lon="20.5513543"><ele>120.0</ele><time>2026-05-03T06:09:48.749Z</time></trkpt><trkpt lat="39.6508735" lon="20.5515599"><ele>120.0</ele><time>2026-05-03T06:09:49.749Z</time></trkpt><trkpt lat="39.6510502" lon="20.5517603"><ele>120.0</ele><time>2026-05-03T06:09:50.748Z</time></trkpt><trkpt lat="39.651227" lon="20.5519463"><ele>119.0</ele><time>2026-05-03T06:09:51.748Z</time></trkpt><trkpt lat="39.6514081" lon="20.5521343"><ele>118.0</ele><time>2026-05-03T06:09:52.75Z</time></trkpt><trkpt lat="39.6515942" lon="20.5523272"><ele>118.0</ele><time>2026-05-03T06:09:53.746Z</time></trkpt><trkpt lat="39.6517873" lon="20.5525166"><ele>118.0</ele><time>2026-05-03T06:09:54.75Z</time></trkpt><trkpt lat="39.6519761" lon="20.5527045"><ele>118.0</ele><time>2026-05-03T06:09:55.747Z</time></trkpt><trkpt lat="39.6521608" lon="20.5528954"><ele>118.0</ele><time>2026-05-03T06:09:56.749Z</time></trkpt><trkpt lat="39.6523487" lon="20.5530769"><ele>118.0</ele><time>2026-05-03T06:09:57.745Z</time></trkpt><trkpt lat="39.6525366" lon="20.5532624"><ele>118.0</ele><time>2026-05-03T06:09:58.747Z</time></trkpt><trkpt lat="39.6527181" lon="20.5534437"><ele>118.0</ele><time>2026-05-03T06:09:59.75Z</time></trkpt><trkpt lat="39.6528956" lon="20.5536281"><ele>118.0</ele><time>2026-05-03T06:10:00.749Z</time></trkpt><trkpt lat="39.6530698" lon="20.5537998"><ele>118.0</ele><time>2026-05-03T06:10:01.747Z</time></trkpt><trkpt lat="39.6532403" lon="20.5539742"><ele>118.0</ele><time>2026-05-03T06:10:02.749Z</time></trkpt><trkpt lat="39.6534087" lon="20.5541443"><ele>118.0</ele><time>2026-05-03T06:10:03.748Z</time></trkpt><trkpt lat="39.6535818" lon="20.554313"><ele>118.0</ele><time>2026-05-03T06:10:04.747Z</time></trkpt><trkpt lat="39.6537445" lon="20.5544796"><ele>118.33333333333334</ele><time>2026-05-03T06:10:05.748Z</time></trkpt><trkpt lat="39.6539057" lon="20.5546453"><ele>118.66666666666666</ele><time>2026-05-03T06:10:06.746Z</time></trkpt><trkpt lat="39.6540693" lon="20.5548092"><ele>119.0</ele><time>2026-05-03T06:10:07.747Z</time></trkpt><trkpt lat="39.6542334" lon="20.5549708"><ele>119.0</ele><time>2026-05-03T06:10:08.749Z</time></trkpt><trkpt lat="39.6543922" lon="20.555135"><ele>119.0</ele><time>2026-05-03T06:10:09.746Z</time></trkpt><trkpt lat="39.6545457" lon="20.5552915"><ele>119.0</ele><time>2026-05-03T06:10:10.747Z</time></trkpt><trkpt lat="39.6547006" lon="20.5554484"><ele>118.0</ele><time>2026-05-03T06:10:11.75Z</time></trkpt><trkpt lat="39.6548491" lon="20.555607"><ele>117.0</ele><time>2026-05-03T06:10:12.748Z</time></trkpt><trkpt lat="39.6550003" lon="20.5557573"><ele>116.0</ele><time>2026-05-03T06:10:13.75Z</time></trkpt><trkpt lat="39.6551412" lon="20.5558966"><ele>116.0</ele><time>2026-05-03T06:10:14.748Z</time></trkpt><trkpt lat="39.6552773" lon="20.5560235"><ele>116.0</ele><time>2026-05-03T06:10:15.748Z</time></trkpt><trkpt lat="39.6554293" lon="20.5561234"><ele>116.0</ele><time>2026-05-03T06:10:16.75Z</time></trkpt><trkpt lat="39.6555954" lon="20.5562032"><ele>115.66666666666666</ele><time>2026-05-03T06:10:17.75Z</time></trkpt><trkpt lat="39.6557658" lon="20.5562699"><ele>115.33333333333334</ele><time>2026-05-03T06:10:18.746Z</time></trkpt><trkpt lat="39.655943" lon="20.5563162"><ele>115.0</ele><time>2026-05-03T06:10:19.747Z</time></trkpt><trkpt lat="39.6561132" lon="20.5563615"><ele>117.0</ele><time>2026-05-03T06:10:20.745Z</time></trkpt><trkpt lat="39.6562723" lon="20.5563991"><ele>119.0</ele><time>2026-05-03T06:10:21.747Z</time></trkpt><trkpt lat="39.656422" lon="20.5564426"><ele>121.0</ele><time>2026-05-03T06:10:22.747Z</time></trkpt><trkpt lat="39.6565608" lon="20.5565019"><ele>121.0</ele><time>2026-05-03T06:10:23.747Z</time></trkpt><trkpt lat="39.6566817" lon="20.556585"><ele>121.0</ele><time>2026-05-03T06:10:24.748Z</time></trkpt><trkpt lat="39.6567964" lon="20.5566902"><ele>121.0</ele><time>2026-05-03T06:10:25.749Z</time></trkpt><trkpt lat="39.6568817" lon="20.5568703"><ele>121.0</ele><time>2026-05-03T06:10:26.749Z</time></trkpt><trkpt lat="39.6569896" lon="20.5570674"><ele>130.5</ele><time>2026-05-03T06:10:27.748Z</time></trkpt><trkpt lat="39.6571083" lon="20.5572948"><ele>140.0</ele><time>2026-05-03T06:10:28.748Z</time></trkpt><trkpt lat="39.6572409" lon="20.5575555"><ele>140.0</ele><time>2026-05-03T06:10:29.75Z</time></trkpt><trkpt lat="39.6573451" lon="20.5578308"><ele>140.0</ele><time>2026-05-03T06:10:30.747Z</time></trkpt><trkpt lat="39.6574442" lon="20.5580951"><ele>137.0</ele><time>2026-05-03T06:10:31.749Z</time></trkpt><trkpt lat="39.6575499" lon="20.5583683"><ele>134.0</ele><time>2026-05-03T06:10:32.748Z</time></trkpt><trkpt lat="39.6576713" lon="20.5586448"><ele>137.0</ele><time>2026-05-03T06:10:33.749Z</time></trkpt><trkpt lat="39.6577949" lon="20.5589106"><ele>140.0</ele><time>2026-05-03T06:10:34.75Z</time></trkpt><trkpt lat="39.6579156" lon="20.5591654"><ele>140.0</ele><time>2026-05-03T06:10:35.748Z</time></trkpt><trkpt lat="39.6580392" lon="20.5594204"><ele>140.0</ele><time>2026-05-03T06:10:36.749Z</time></trkpt><trkpt lat="39.6581519" lon="20.5596649"><ele>138.66666666666666</ele><time>2026-05-03T06:10:37.75Z</time></trkpt><trkpt lat="39.6582652" lon="20.5598972"><ele>137.33333333333334</ele><time>2026-05-03T06:10:38.749Z</time></trkpt><trkpt lat="39.6583719" lon="20.5601276"><ele>136.0</ele><time>2026-05-03T06:10:39.749Z</time></trkpt><trkpt lat="39.6584656" lon="20.5603614"><ele>135.33333333333334</ele><time>2026-05-03T06:10:40.747Z</time></trkpt><trkpt lat="39.6585402" lon="20.5605955"><ele>134.66666666666666</ele><time>2026-05-03T06:10:41.749Z</time></trkpt><trkpt lat="39.6585919" lon="20.5608419"><ele>134.0</ele><time>2026-05-03T06:10:42.748Z</time></trkpt><trkpt lat="39.6586338" lon="20.5611002"><ele>139.0</ele><time>2026-05-03T06:10:43.75Z</time></trkpt><trkpt lat="39.6586638" lon="20.5613629"><ele>144.0</ele><time>2026-05-03T06:10:44.749Z</time></trkpt><trkpt lat="39.658684" lon="20.5616068"><ele>149.0</ele><time>2026-05-03T06:10:45.749Z</time></trkpt><trkpt lat="39.6587024" lon="20.5618229"><ele>149.0</ele><time>2026-05-03T06:10:46.75Z</time></trkpt><trkpt lat="39.6587179" lon="20.5620244"><ele>149.0</ele><time>2026-05-03T06:10:47.747Z</time></trkpt><trkpt lat="39.658736" lon="20.562202"><ele>149.0</ele><time>2026-05-03T06:10:48.749Z</time></trkpt><trkpt lat="39.6587703" lon="20.5623531"><ele>149.0</ele><time>2026-05-03T06:10:49.75Z</time></trkpt><trkpt lat="39.6588244" lon="20.5624787"><ele>150.2</ele><time>2026-05-03T06:10:50.75Z</time></trkpt><trkpt lat="39.658912" lon="20.5625629"><ele>151.4</ele><time>2026-05-03T06:10:51.747Z</time></trkpt><trkpt lat="39.6590177" lon="20.5625997"><ele>152.6</ele><time>2026-05-03T06:10:52.748Z</time></trkpt><trkpt lat="39.6591257" lon="20.5625868"><ele>153.8</ele><time>2026-05-03T06:10:53.747Z</time></trkpt><trkpt lat="39.6592282" lon="20.5625251"><ele>155.0</ele><time>2026-05-03T06:10:54.748Z</time></trkpt><trkpt lat="39.6593162" lon="20.5624117"><ele>155.0</ele><time>2026-05-03T06:10:55.749Z</time></trkpt><trkpt lat="39.6593748" lon="20.562252"><ele>155.0</ele><time>2026-05-03T06:10:56.75Z</time></trkpt><trkpt lat="39.6594026" lon="20.5620523"><ele>155.0</ele><time>2026-05-03T06:10:57.749Z</time></trkpt><trkpt lat="39.6593977" lon="20.5618162"><ele>153.0</ele><time>2026-05-03T06:10:58.75Z</time></trkpt><trkpt lat="39.659385" lon="20.5615703"><ele>151.0</ele><time>2026-05-03T06:10:59.75Z</time></trkpt><trkpt lat="39.6593577" lon="20.5613308"><ele>149.0</ele><time>2026-05-03T06:11:00.749Z</time></trkpt><trkpt lat="39.6593272" lon="20.5610623"><ele>149.0</ele><time>2026-05-03T06:11:01.748Z</time></trkpt><trkpt lat="39.6593036" lon="20.5607799"><ele>149.0</ele><time>2026-05-03T06:11:02.749Z</time></trkpt><trkpt lat="39.6592738" lon="20.5604892"><ele>149.0</ele><time>2026-05-03T06:11:03.747Z</time></trkpt><trkpt lat="39.6592467" lon="20.5602218"><ele>150.33333333333331</ele><time>2026-05-03T06:11:04.749Z</time></trkpt><trkpt lat="39.6592213" lon="20.5599556"><ele>151.66666666666666</ele><time>2026-05-03T06:11:05.746Z</time></trkpt><trkpt lat="39.6591818" lon="20.5597054"><ele>153.0</ele><time>2026-05-03T06:11:06.748Z</time></trkpt><trkpt lat="39.6591303" lon="20.5594679"><ele>155.0</ele><time>2026-05-03T06:11:07.75Z</time></trkpt><trkpt lat="39.6590454" lon="20.5592638"><ele>157.0</ele><time>2026-05-03T06:11:08.747Z</time></trkpt><trkpt lat="39.6589472" lon="20.5590817"><ele>159.0</ele><time>2026-05-03T06:11:09.749Z</time></trkpt><trkpt lat="39.6588259" lon="20.5589223"><ele>159.0</ele><time>2026-05-03T06:11:10.747Z</time></trkpt><trkpt lat="39.658686" lon="20.5588093"><ele>159.0</ele><time>2026-05-03T06:11:11.749Z</time></trkpt><trkpt lat="39.6585686" lon="20.5586928"><ele>159.0</ele><time>2026-05-03T06:11:12.75Z</time></trkpt><trkpt lat="39.6584579" lon="20.5585969"><ele>159.0</ele><time>2026-05-03T06:11:13.75Z</time></trkpt><trkpt lat="39.6583888" lon="20.5584961"><ele>157.2</ele><time>2026-05-03T06:11:14.748Z</time></trkpt><trkpt lat="39.658355" lon="20.5583957"><ele>155.4</ele><time>2026-05-03T06:11:15.747Z</time></trkpt><trkpt lat="39.658338" lon="20.5583026"><ele>153.6</ele><time>2026-05-03T06:11:16.748Z</time></trkpt><trkpt lat="39.6584216" lon="20.558196"><ele>151.8</ele><time>2026-05-03T06:11:17.748Z</time></trkpt><trkpt lat="39.6585003" lon="20.558149"><ele>150.0</ele><time>2026-05-03T06:11:18.749Z</time></trkpt><trkpt lat="39.6586024" lon="20.5581485"><ele>155.75</ele><time>2026-05-03T06:11:19.748Z</time></trkpt><trkpt lat="39.6587077" lon="20.558187"><ele>161.5</ele><time>2026-05-03T06:11:20.747Z</time></trkpt><trkpt lat="39.6588338" lon="20.5583041"><ele>167.25</ele><time>2026-05-03T06:11:21.747Z</time></trkpt><trkpt lat="39.658949" lon="20.5584223"><ele>173.0</ele><time>2026-05-03T06:11:22.749Z</time></trkpt><trkpt lat="39.6590629" lon="20.5585581"><ele>173.0</ele><time>2026-05-03T06:11:23.747Z</time></trkpt><trkpt lat="39.659169" lon="20.5586895"><ele>173.0</ele><time>2026-05-03T06:11:24.749Z</time></trkpt><trkpt lat="39.6592761" lon="20.5588342"><ele>173.0</ele><time>2026-05-03T06:11:25.75Z</time></trkpt><trkpt lat="39.6593589" lon="20.5589875"><ele>173.0</ele><time>2026-05-03T06:11:26.75Z</time></trkpt><trkpt lat="39.6594363" lon="20.5591538"><ele>178.33333333333331</ele><time>2026-05-03T06:11:27.748Z</time></trkpt><trkpt lat="39.6595007" lon="20.5593537"><ele>183.66666666666666</ele><time>2026-05-03T06:11:28.75Z</time></trkpt><trkpt lat="39.6595585" lon="20.5595719"><ele>189.0</ele><time>2026-05-03T06:11:29.747Z</time></trkpt><trkpt lat="39.659607" lon="20.5598203"><ele>191.0</ele><time>2026-05-03T06:11:30.748Z</time></trkpt><trkpt lat="39.6596465" lon="20.5600986"><ele>193.0</ele><time>2026-05-03T06:11:31.75Z</time></trkpt><trkpt lat="39.6597046" lon="20.5603833"><ele>195.0</ele><time>2026-05-03T06:11:32.749Z</time></trkpt><trkpt lat="39.6597575" lon="20.5606607"><ele>195.0</ele><time>2026-05-03T06:11:33.748Z</time></trkpt><trkpt lat="39.6598134" lon="20.5609358"><ele>195.0</ele><time>2026-05-03T06:11:34.749Z</time></trkpt><trkpt lat="39.6598663" lon="20.5612008"><ele>195.0</ele><time>2026-05-03T06:11:35.749Z</time></trkpt><trkpt lat="39.6599064" lon="20.5614624"><ele>193.0</ele><time>2026-05-03T06:11:36.747Z</time></trkpt><trkpt lat="39.6599301" lon="20.5617322"><ele>191.0</ele><time>2026-05-03T06:11:37.748Z</time></trkpt><trkpt lat="39.6599341" lon="20.5620153"><ele>189.0</ele><time>2026-05-03T06:11:38.749Z</time></trkpt><trkpt lat="39.6599285" lon="20.5623186"><ele>189.0</ele><time>2026-05-03T06:11:39.747Z</time></trkpt><trkpt lat="39.6599105" lon="20.5626259"><ele>189.0</ele><time>2026-05-03T06:11:40.747Z</time></trkpt><trkpt lat="39.6598923" lon="20.5629314"><ele>192.0</ele><time>2026-05-03T06:11:41.749Z</time></trkpt><trkpt lat="39.6598718" lon="20.5632421"><ele>195.0</ele><time>2026-05-03T06:11:42.75Z</time></trkpt><trkpt lat="39.6598503" lon="20.5635504"><ele>198.5</ele><time>2026-05-03T06:11:43.749Z</time></trkpt><trkpt lat="39.659836" lon="20.5638486"><ele>202.0</ele><time>2026-05-03T06:11:44.747Z</time></trkpt><trkpt lat="39.6598198" lon="20.5641396"><ele>202.0</ele><time>2026-05-03T06:11:45.746Z</time></trkpt><trkpt lat="39.6598015" lon="20.5644296"><ele>202.0</ele><time>2026-05-03T06:11:46.749Z</time></trkpt><trkpt lat="39.6597858" lon="20.5647089"><ele>202.0</ele><time>2026-05-03T06:11:47.746Z</time></trkpt><trkpt lat="39.6597731" lon="20.564967"><ele>203.33333333333331</ele><time>2026-05-03T06:11:48.75Z</time></trkpt><trkpt lat="39.6597765" lon="20.5652082"><ele>204.66666666666669</ele><time>2026-05-03T06:11:49.748Z</time></trkpt><trkpt lat="39.6598023" lon="20.5654487"><ele>206.0</ele><time>2026-05-03T06:11:50.747Z</time></trkpt><trkpt lat="39.6598448" lon="20.5656715"><ele>206.0</ele><time>2026-05-03T06:11:51.75Z</time></trkpt><trkpt lat="39.6599118" lon="20.565892"><ele>206.0</ele><time>2026-05-03T06:11:52.75Z</time></trkpt><trkpt lat="39.6600148" lon="20.5661188"><ele>206.0</ele><time>2026-05-03T06:11:53.746Z</time></trkpt><trkpt lat="39.6601261" lon="20.5663405"><ele>202.66666666666669</ele><time>2026-05-03T06:11:54.747Z</time></trkpt><trkpt lat="39.6602469" lon="20.5665714"><ele>199.33333333333331</ele><time>2026-05-03T06:11:55.749Z</time></trkpt><trkpt lat="39.6603699" lon="20.5667981"><ele>196.0</ele><time>2026-05-03T06:11:56.748Z</time></trkpt><trkpt lat="39.6604874" lon="20.5670169"><ele>202.33333333333331</ele><time>2026-05-03T06:11:57.75Z</time></trkpt><trkpt lat="39.6606001" lon="20.5672426"><ele>208.66666666666669</ele><time>2026-05-03T06:11:58.747Z</time></trkpt><trkpt lat="39.6607003" lon="20.5674547"><ele>215.0</ele><time>2026-05-03T06:11:59.748Z</time></trkpt><trkpt lat="39.6607937" lon="20.5676799"><ele>213.66666666666669</ele><time>2026-05-03T06:12:00.748Z</time></trkpt><trkpt lat="39.6608602" lon="20.5679016"><ele>212.33333333333331</ele><time>2026-05-03T06:12:01.749Z</time></trkpt><trkpt lat="39.6609071" lon="20.5681367"><ele>211.0</ele><time>2026-05-03T06:12:02.75Z</time></trkpt><trkpt lat="39.6609338" lon="20.5683907"><ele>211.0</ele><time>2026-05-03T06:12:03.75Z</time></trkpt><trkpt lat="39.6609496" lon="20.5686344"><ele>211.0</ele><time>2026-05-03T06:12:04.745Z</time></trkpt><trkpt lat="39.6609489" lon="20.5688692"><ele>211.0</ele><time>2026-05-03T06:12:05.75Z</time></trkpt><trkpt lat="39.6609294" lon="20.569089"><ele>212.66666666666666</ele><time>2026-05-03T06:12:06.75Z</time></trkpt><trkpt lat="39.6608927" lon="20.5693096"><ele>214.33333333333331</ele><time>2026-05-03T06:12:07.749Z</time></trkpt><trkpt lat="39.6608295" lon="20.5695325"><ele>216.0</ele><time>2026-05-03T06:12:08.749Z</time></trkpt><trkpt lat="39.6607547" lon="20.5697605"><ele>219.66666666666669</ele><time>2026-05-03T06:12:09.749Z</time></trkpt><trkpt lat="39.6606726" lon="20.5699868"><ele>223.33333333333334</ele><time>2026-05-03T06:12:10.75Z</time></trkpt><trkpt lat="39.6605911" lon="20.5702025"><ele>227.0</ele><time>2026-05-03T06:12:11.749Z</time></trkpt><trkpt lat="39.6605102" lon="20.5704082"><ele>224.66666666666669</ele><time>2026-05-03T06:12:12.749Z</time></trkpt><trkpt lat="39.660428" lon="20.5705974"><ele>222.33333333333331</ele><time>2026-05-03T06:12:13.748Z</time></trkpt><trkpt lat="39.6603317" lon="20.5707765"><ele>220.0</ele><time>2026-05-03T06:12:14.747Z</time></trkpt><trkpt lat="39.6602135" lon="20.570941"><ele>220.0</ele><time>2026-05-03T06:12:15.746Z</time></trkpt><trkpt lat="39.6600716" lon="20.5710988"><ele>220.0</ele><time>2026-05-03T06:12:16.748Z</time></trkpt><trkpt lat="39.6599176" lon="20.5712524"><ele>220.0</ele><time>2026-05-03T06:12:17.748Z</time></trkpt><trkpt lat="39.6597579" lon="20.5714129"><ele>221.0</ele><time>2026-05-03T06:12:18.747Z</time></trkpt><trkpt lat="39.659606" lon="20.5715694"><ele>222.0</ele><time>2026-05-03T06:12:19.747Z</time></trkpt><trkpt lat="39.6594585" lon="20.5717225"><ele>223.0</ele><time>2026-05-03T06:12:20.75Z</time></trkpt><trkpt lat="39.6593011" lon="20.5718585"><ele>223.0</ele><time>2026-05-03T06:12:21.748Z</time></trkpt><trkpt lat="39.6591375" lon="20.5719755"><ele>223.0</ele><time>2026-05-03T06:12:22.746Z</time></trkpt><trkpt lat="39.6589694" lon="20.5720816"><ele>223.0</ele><time>2026-05-03T06:12:23.748Z</time></trkpt><trkpt lat="39.6588015" lon="20.572189"><ele>226.66666666666666</ele><time>2026-05-03T06:12:24.748Z</time></trkpt><trkpt lat="39.6586421" lon="20.5722865"><ele>230.33333333333331</ele><time>2026-05-03T06:12:25.747Z</time></trkpt><trkpt lat="39.6584956" lon="20.5723773"><ele>234.0</ele><time>2026-05-03T06:12:26.746Z</time></trkpt><trkpt lat="39.6583641" lon="20.5724808"><ele>234.0</ele><time>2026-05-03T06:12:27.75Z</time></trkpt><trkpt lat="39.6582409" lon="20.5726052"><ele>234.0</ele><time>2026-05-03T06:12:28.747Z</time></trkpt><trkpt lat="39.6581298" lon="20.5727609"><ele>234.0</ele><time>2026-05-03T06:12:29.746Z</time></trkpt><trkpt lat="39.6580319" lon="20.5729436"><ele>238.66666666666669</ele><time>2026-05-03T06:12:30.748Z</time></trkpt><trkpt lat="39.6579389" lon="20.5731421"><ele>243.33333333333334</ele><time>2026-05-03T06:12:31.748Z</time></trkpt><trkpt lat="39.657848" lon="20.5733538"><ele>248.0</ele><time>2026-05-03T06:12:32.75Z</time></trkpt><trkpt lat="39.6577585" lon="20.5735619"><ele>250.33333333333334</ele><time>2026-05-03T06:12:33.748Z</time></trkpt><trkpt lat="39.6576748" lon="20.5737766"><ele>252.66666666666669</ele><time>2026-05-03T06:12:34.748Z</time></trkpt><trkpt lat="39.6576022" lon="20.5739904"><ele>255.0</ele><time>2026-05-03T06:12:35.749Z</time></trkpt><trkpt lat="39.6575481" lon="20.5741981"><ele>255.0</ele><time>2026-05-03T06:12:36.747Z</time></trkpt><trkpt lat="39.6575271" lon="20.5744093"><ele>255.0</ele><time>2026-05-03T06:12:37.748Z</time></trkpt><trkpt lat="39.6575296" lon="20.5746232"><ele>255.0</ele><time>2026-05-03T06:12:38.75Z</time></trkpt><trkpt lat="39.6575653" lon="20.5748384"><ele>256.6666666666667</ele><time>2026-05-03T06:12:39.746Z</time></trkpt><trkpt lat="39.6576204" lon="20.5750496"><ele>258.33333333333337</ele><time>2026-05-03T06:12:40.746Z</time></trkpt><trkpt lat="39.6577104" lon="20.5752396"><ele>260.0</ele><time>2026-05-03T06:12:41.749Z</time></trkpt><trkpt lat="39.657821" lon="20.5754067"><ele>260.0</ele><time>2026-05-03T06:12:42.747Z</time></trkpt><trkpt lat="39.6579546" lon="20.57558"><ele>260.0</ele><time>2026-05-03T06:12:43.748Z</time></trkpt><trkpt lat="39.6581104" lon="20.5757425"><ele>260.0</ele><time>2026-05-03T06:12:44.75Z</time></trkpt><trkpt lat="39.6582879" lon="20.5759263"><ele>260.0</ele><time>2026-05-03T06:12:45.748Z</time></trkpt><trkpt lat="39.6584614" lon="20.5761059"><ele>260.0</ele><time>2026-05-03T06:12:46.746Z</time></trkpt><trkpt lat="39.6586387" lon="20.5762907"><ele>260.0</ele><time>2026-05-03T06:12:47.743Z</time></trkpt><trkpt lat="39.6588148" lon="20.5764708"><ele>257.0</ele><time>2026-05-03T06:12:48.749Z</time></trkpt><trkpt lat="39.6589908" lon="20.5766548"><ele>254.0</ele><time>2026-05-03T06:12:49.749Z</time></trkpt><trkpt lat="39.6591666" lon="20.5768267"><ele>251.0</ele><time>2026-05-03T06:12:50.747Z</time></trkpt><trkpt lat="39.6593271" lon="20.5769903"><ele>250.33333333333334</ele><time>2026-05-03T06:12:51.748Z</time></trkpt><trkpt lat="39.6594832" lon="20.5771475"><ele>249.66666666666669</ele><time>2026-05-03T06:12:52.749Z</time></trkpt><trkpt lat="39.6596479" lon="20.577299"><ele>249.0</ele><time>2026-05-03T06:12:53.749Z</time></trkpt><trkpt lat="39.6598167" lon="20.5774286"><ele>249.0</ele><time>2026-05-03T06:12:54.748Z</time></trkpt><trkpt lat="39.6599902" lon="20.5775414"><ele>249.0</ele><time>2026-05-03T06:12:55.747Z</time></trkpt><trkpt lat="39.6601722" lon="20.5776233"><ele>249.0</ele><time>2026-05-03T06:12:56.75Z</time></trkpt><trkpt lat="39.6603622" lon="20.577696"><ele>247.66666666666669</ele><time>2026-05-03T06:12:57.747Z</time></trkpt><trkpt lat="39.6605567" lon="20.5777642"><ele>246.33333333333334</ele><time>2026-05-03T06:12:58.75Z</time></trkpt><trkpt lat="39.6607605" lon="20.5778266"><ele>245.0</ele><time>2026-05-03T06:12:59.749Z</time></trkpt><trkpt lat="39.6609641" lon="20.5778637"><ele>248.0</ele><time>2026-05-03T06:13:00.749Z</time></trkpt><trkpt lat="39.661171" lon="20.577886"><ele>251.0</ele><time>2026-05-03T06:13:01.749Z</time></trkpt><trkpt lat="39.6613675" lon="20.577892"><ele>254.0</ele><time>2026-05-03T06:13:02.748Z</time></trkpt><trkpt lat="39.6615563" lon="20.5778854"><ele>254.0</ele><time>2026-05-03T06:13:03.749Z</time></trkpt><trkpt lat="39.661733" lon="20.5778779"><ele>254.0</ele><time>2026-05-03T06:13:04.746Z</time></trkpt><trkpt lat="39.661893" lon="20.5778924"><ele>254.0</ele><time>2026-05-03T06:13:05.749Z</time></trkpt><trkpt lat="39.6620386" lon="20.5779298"><ele>253.75</ele><time>2026-05-03T06:13:06.748Z</time></trkpt><trkpt lat="39.6621804" lon="20.5779838"><ele>253.5</ele><time>2026-05-03T06:13:07.749Z</time></trkpt><trkpt lat="39.6623" lon="20.578081"><ele>253.25</ele><time>2026-05-03T06:13:08.75Z</time></trkpt><trkpt lat="39.6624049" lon="20.5782018"><ele>253.0</ele><time>2026-05-03T06:13:09.748Z</time></trkpt><trkpt lat="39.6625034" lon="20.5783397"><ele>253.0</ele><time>2026-05-03T06:13:10.746Z</time></trkpt><trkpt lat="39.6626012" lon="20.5785186"><ele>253.0</ele><time>2026-05-03T06:13:11.749Z</time></trkpt><trkpt lat="39.6626873" lon="20.5787295"><ele>253.0</ele><time>2026-05-03T06:13:12.749Z</time></trkpt><trkpt lat="39.662799" lon="20.5789702"><ele>254.66666666666666</ele><time>2026-05-03T06:13:13.748Z</time></trkpt><trkpt lat="39.6629076" lon="20.5792232"><ele>256.3333333333333</ele><time>2026-05-03T06:13:14.748Z</time></trkpt><trkpt lat="39.6630181" lon="20.5794557"><ele>258.0</ele><time>2026-05-03T06:13:15.748Z</time></trkpt><trkpt lat="39.6631231" lon="20.5797066"><ele>258.0</ele><time>2026-05-03T06:13:16.746Z</time></trkpt><trkpt lat="39.6632374" lon="20.5799737"><ele>258.0</ele><time>2026-05-03T06:13:17.748Z</time></trkpt><trkpt lat="39.6633474" lon="20.580245"><ele>259.6666666666667</ele><time>2026-05-03T06:13:18.746Z</time></trkpt><trkpt lat="39.6634542" lon="20.5804992"><ele>261.33333333333337</ele><time>2026-05-03T06:13:19.747Z</time></trkpt><trkpt lat="39.6635597" lon="20.5807471"><ele>263.0</ele><time>2026-05-03T06:13:20.747Z</time></trkpt><trkpt lat="39.6636641" lon="20.5809854"><ele>264.33333333333337</ele><time>2026-05-03T06:13:21.748Z</time></trkpt><trkpt lat="39.6637708" lon="20.5812094"><ele>265.6666666666667</ele><time>2026-05-03T06:13:22.749Z</time></trkpt><trkpt lat="39.6638743" lon="20.5814218"><ele>267.0</ele><time>2026-05-03T06:13:23.745Z</time></trkpt><trkpt lat="39.6639772" lon="20.581619"><ele>267.0</ele><time>2026-05-03T06:13:24.75Z</time></trkpt><trkpt lat="39.6640868" lon="20.5818117"><ele>267.0</ele><time>2026-05-03T06:13:25.748Z</time></trkpt><trkpt lat="39.6641886" lon="20.5819853"><ele>267.0</ele><time>2026-05-03T06:13:26.747Z</time></trkpt><trkpt lat="39.6642992" lon="20.5821618"><ele>267.0</ele><time>2026-05-03T06:13:27.749Z</time></trkpt><trkpt lat="39.6644059" lon="20.5823369"><ele>267.0</ele><time>2026-05-03T06:13:28.747Z</time></trkpt><trkpt lat="39.6645253" lon="20.5825202"><ele>267.0</ele><time>2026-05-03T06:13:29.75Z</time></trkpt><trkpt lat="39.6646476" lon="20.5827107"><ele>265.0</ele><time>2026-05-03T06:13:30.747Z</time></trkpt><trkpt lat="39.6647763" lon="20.5828966"><ele>263.0</ele><time>2026-05-03T06:13:31.747Z</time></trkpt><trkpt lat="39.6649085" lon="20.5830852"><ele>261.0</ele><time>2026-05-03T06:13:32.746Z</time></trkpt><trkpt lat="39.6650479" lon="20.5832795"><ele>261.0</ele><time>2026-05-03T06:13:33.747Z</time></trkpt><trkpt lat="39.6651847" lon="20.5834798"><ele>261.0</ele><time>2026-05-03T06:13:34.744Z</time></trkpt><trkpt lat="39.6653197" lon="20.5836787"><ele>261.0</ele><time>2026-05-03T06:13:35.749Z</time></trkpt><trkpt lat="39.6654571" lon="20.5838819"><ele>259.0</ele><time>2026-05-03T06:13:36.749Z</time></trkpt><trkpt lat="39.665588" lon="20.5840848"><ele>257.0</ele><time>2026-05-03T06:13:37.747Z</time></trkpt><trkpt lat="39.6657167" lon="20.5842758"><ele>255.0</ele><time>2026-05-03T06:13:38.748Z</time></trkpt><trkpt lat="39.6658422" lon="20.5844697"><ele>254.33333333333331</ele><time>2026-05-03T06:13:39.748Z</time></trkpt><trkpt lat="39.665959" lon="20.5846621"><ele>253.66666666666666</ele><time>2026-05-03T06:13:40.75Z</time></trkpt><trkpt lat="39.6660751" lon="20.5848375"><ele>253.0</ele><time>2026-05-03T06:13:41.747Z</time></trkpt><trkpt lat="39.6662032" lon="20.58502"><ele>249.66666666666666</ele><time>2026-05-03T06:13:42.747Z</time></trkpt><trkpt lat="39.6663523" lon="20.5851751"><ele>246.33333333333331</ele><time>2026-05-03T06:13:43.75Z</time></trkpt><trkpt lat="39.6665074" lon="20.5853143"><ele>243.0</ele><time>2026-05-03T06:13:44.747Z</time></trkpt><trkpt lat="39.6666829" lon="20.5854261"><ele>242.66666666666669</ele><time>2026-05-03T06:13:45.749Z</time></trkpt><trkpt lat="39.6668812" lon="20.5855196"><ele>242.33333333333334</ele><time>2026-05-03T06:13:46.75Z</time></trkpt><trkpt lat="39.667085" lon="20.5855884"><ele>242.0</ele><time>2026-05-03T06:13:47.749Z</time></trkpt><trkpt lat="39.6672814" lon="20.5856389"><ele>244.0</ele><time>2026-05-03T06:13:48.749Z</time></trkpt><trkpt lat="39.6674702" lon="20.5856839"><ele>246.0</ele><time>2026-05-03T06:13:49.748Z</time></trkpt><trkpt lat="39.6676461" lon="20.5857215"><ele>248.0</ele><time>2026-05-03T06:13:50.747Z</time></trkpt><trkpt lat="39.6678085" lon="20.5857618"><ele>248.5</ele><time>2026-05-03T06:13:51.747Z</time></trkpt><trkpt lat="39.667957" lon="20.585823"><ele>249.0</ele><time>2026-05-03T06:13:52.749Z</time></trkpt><trkpt lat="39.6680839" lon="20.5859101"><ele>249.5</ele><time>2026-05-03T06:13:53.75Z</time></trkpt><trkpt lat="39.6682" lon="20.5860289"><ele>250.0</ele><time>2026-05-03T06:13:54.746Z</time></trkpt><trkpt lat="39.668303" lon="20.5861956"><ele>252.66666666666666</ele><time>2026-05-03T06:13:55.746Z</time></trkpt><trkpt lat="39.6683974" lon="20.5863821"><ele>255.33333333333331</ele><time>2026-05-03T06:13:56.748Z</time></trkpt><trkpt lat="39.6684945" lon="20.586596"><ele>258.0</ele><time>2026-05-03T06:13:57.747Z</time></trkpt><trkpt lat="39.6685908" lon="20.5868106"><ele>258.3333333333333</ele><time>2026-05-03T06:13:58.75Z</time></trkpt><trkpt lat="39.6686864" lon="20.5870197"><ele>258.66666666666663</ele><time>2026-05-03T06:13:59.745Z</time></trkpt><trkpt lat="39.6687695" lon="20.5872238"><ele>259.0</ele><time>2026-05-03T06:14:00.749Z</time></trkpt><trkpt lat="39.668849" lon="20.5874283"><ele>259.0</ele><time>2026-05-03T06:14:01.749Z</time></trkpt><trkpt lat="39.6689209" lon="20.5876411"><ele>259.0</ele><time>2026-05-03T06:14:02.747Z</time></trkpt><trkpt lat="39.6689852" lon="20.5878493"><ele>259.0</ele><time>2026-05-03T06:14:03.747Z</time></trkpt><trkpt lat="39.6690503" lon="20.5880556"><ele>259.66666666666663</ele><time>2026-05-03T06:14:04.746Z</time></trkpt><trkpt lat="39.6691138" lon="20.5882589"><ele>260.3333333333333</ele><time>2026-05-03T06:14:05.747Z</time></trkpt><trkpt lat="39.6691808" lon="20.5884553"><ele>261.0</ele><time>2026-05-03T06:14:06.747Z</time></trkpt><trkpt lat="39.6692494" lon="20.588647"><ele>263.0</ele><time>2026-05-03T06:14:07.748Z</time></trkpt><trkpt lat="39.6693365" lon="20.5888398"><ele>265.0</ele><time>2026-05-03T06:14:08.747Z</time></trkpt><trkpt lat="39.669448" lon="20.5890164"><ele>267.0</ele><time>2026-05-03T06:14:09.749Z</time></trkpt><trkpt lat="39.6695791" lon="20.5891819"><ele>267.6666666666667</ele><time>2026-05-03T06:14:10.749Z</time></trkpt><trkpt lat="39.669729" lon="20.5893421"><ele>268.33333333333337</ele><time>2026-05-03T06:14:11.747Z</time></trkpt><trkpt lat="39.6698821" lon="20.5894821"><ele>269.0</ele><time>2026-05-03T06:14:12.749Z</time></trkpt><trkpt lat="39.6700389" lon="20.5896139"><ele>269.6666666666667</ele><time>2026-05-03T06:14:13.75Z</time></trkpt><trkpt lat="39.6701956" lon="20.5897363"><ele>270.3333333333333</ele><time>2026-05-03T06:14:14.747Z</time></trkpt><trkpt lat="39.6703621" lon="20.5898643"><ele>271.0</ele><time>2026-05-03T06:14:15.748Z</time></trkpt><trkpt lat="39.6705275" lon="20.5899781"><ele>271.0</ele><time>2026-05-03T06:14:16.748Z</time></trkpt><trkpt lat="39.6706965" lon="20.5900896"><ele>271.0</ele><time>2026-05-03T06:14:17.749Z</time></trkpt><trkpt lat="39.6708715" lon="20.5902027"><ele>271.0</ele><time>2026-05-03T06:14:18.749Z</time></trkpt><trkpt lat="39.6710652" lon="20.5903109"><ele>270.0</ele><time>2026-05-03T06:14:19.748Z</time></trkpt><trkpt lat="39.6712527" lon="20.5904048"><ele>269.0</ele><time>2026-05-03T06:14:20.747Z</time></trkpt><trkpt lat="39.6714442" lon="20.5905027"><ele>268.0</ele><time>2026-05-03T06:14:21.747Z</time></trkpt><trkpt lat="39.6716359" lon="20.5906037"><ele>268.0</ele><time>2026-05-03T06:14:22.749Z</time></trkpt><trkpt lat="39.6718332" lon="20.5907112"><ele>268.0</ele><time>2026-05-03T06:14:23.748Z</time></trkpt><trkpt lat="39.6720297" lon="20.5908204"><ele>268.0</ele><time>2026-05-03T06:14:24.75Z</time></trkpt><trkpt lat="39.6722258" lon="20.5909274"><ele>267.66666666666663</ele><time>2026-05-03T06:14:25.749Z</time></trkpt><trkpt lat="39.6724244" lon="20.5910324"><ele>267.3333333333333</ele><time>2026-05-03T06:14:26.749Z</time></trkpt><trkpt lat="39.6726147" lon="20.5911311"><ele>267.0</ele><time>2026-05-03T06:14:27.75Z</time></trkpt><trkpt lat="39.6728026" lon="20.5912307"><ele>264.6666666666667</ele><time>2026-05-03T06:14:28.749Z</time></trkpt><trkpt lat="39.6729821" lon="20.5913227"><ele>262.33333333333337</ele><time>2026-05-03T06:14:29.747Z</time></trkpt><trkpt lat="39.6731535" lon="20.5914136"><ele>260.0</ele><time>2026-05-03T06:14:30.746Z</time></trkpt><trkpt lat="39.6733175" lon="20.591502"><ele>260.0</ele><time>2026-05-03T06:14:31.748Z</time></trkpt><trkpt lat="39.6734724" lon="20.5915915"><ele>260.0</ele><time>2026-05-03T06:14:32.745Z</time></trkpt><trkpt lat="39.6736166" lon="20.5916852"><ele>260.0</ele><time>2026-05-03T06:14:33.748Z</time></trkpt><trkpt lat="39.6737453" lon="20.5917898"><ele>260.25</ele><time>2026-05-03T06:14:34.748Z</time></trkpt><trkpt lat="39.6738582" lon="20.5919086"><ele>260.5</ele><time>2026-05-03T06:14:35.749Z</time></trkpt><trkpt lat="39.6739564" lon="20.5920538"><ele>260.75</ele><time>2026-05-03T06:14:36.747Z</time></trkpt><trkpt lat="39.6740328" lon="20.5922137"><ele>261.0</ele><time>2026-05-03T06:14:37.746Z</time></trkpt><trkpt lat="39.67408" lon="20.5923988"><ele>259.6666666666667</ele><time>2026-05-03T06:14:38.748Z</time></trkpt><trkpt lat="39.6741123" lon="20.5926052"><ele>258.33333333333337</ele><time>2026-05-03T06:14:39.748Z</time></trkpt><trkpt lat="39.6741265" lon="20.5928385"><ele>257.0</ele><time>2026-05-03T06:14:40.748Z</time></trkpt><trkpt lat="39.6741359" lon="20.5930778"><ele>257.0</ele><time>2026-05-03T06:14:41.748Z</time></trkpt><trkpt lat="39.674145" lon="20.5933148"><ele>257.0</ele><time>2026-05-03T06:14:42.749Z</time></trkpt><trkpt lat="39.6741518" lon="20.5935523"><ele>257.0</ele><time>2026-05-03T06:14:43.749Z</time></trkpt><trkpt lat="39.6741609" lon="20.5937898"><ele>256.0</ele><time>2026-05-03T06:14:44.75Z</time></trkpt><trkpt lat="39.674173" lon="20.5940113"><ele>255.0</ele><time>2026-05-03T06:14:45.748Z</time></trkpt><trkpt lat="39.674193" lon="20.5942309"><ele>254.0</ele><time>2026-05-03T06:14:46.745Z</time></trkpt><trkpt lat="39.6742357" lon="20.5944371"><ele>254.33333333333334</ele><time>2026-05-03T06:14:47.748Z</time></trkpt><trkpt lat="39.6743015" lon="20.5946325"><ele>254.66666666666669</ele><time>2026-05-03T06:14:48.747Z</time></trkpt><trkpt lat="39.6743933" lon="20.5948083"><ele>255.0</ele><time>2026-05-03T06:14:49.748Z</time></trkpt><trkpt lat="39.6745048" lon="20.5949646"><ele>255.0</ele><time>2026-05-03T06:14:50.749Z</time></trkpt><trkpt lat="39.6746376" lon="20.5950977"><ele>255.0</ele><time>2026-05-03T06:14:51.749Z</time></trkpt><trkpt lat="39.6747896" lon="20.5952069"><ele>255.0</ele><time>2026-05-03T06:14:52.747Z</time></trkpt><trkpt lat="39.6749653" lon="20.5952916"><ele>250.0</ele><time>2026-05-03T06:14:53.747Z</time></trkpt><trkpt lat="39.6751431" lon="20.5953685"><ele>245.0</ele><time>2026-05-03T06:14:54.75Z</time></trkpt><trkpt lat="39.6753265" lon="20.5954478"><ele>240.0</ele><time>2026-05-03T06:14:55.748Z</time></trkpt><trkpt lat="39.6755125" lon="20.5955274"><ele>239.66666666666669</ele><time>2026-05-03T06:14:56.748Z</time></trkpt><trkpt lat="39.675715" lon="20.5955862"><ele>239.33333333333334</ele><time>2026-05-03T06:14:57.749Z</time></trkpt><trkpt lat="39.6759253" lon="20.5956448"><ele>239.0</ele><time>2026-05-03T06:14:58.749Z</time></trkpt><trkpt lat="39.6761456" lon="20.5956774"><ele>239.0</ele><time>2026-05-03T06:14:59.747Z</time></trkpt><trkpt lat="39.6763757" lon="20.5956927"><ele>239.0</ele><time>2026-05-03T06:15:00.749Z</time></trkpt><trkpt lat="39.6766042" lon="20.595707"><ele>239.0</ele><time>2026-05-03T06:15:01.75Z</time></trkpt><trkpt lat="39.6768278" lon="20.5957139"><ele>239.0</ele><time>2026-05-03T06:15:02.747Z</time></trkpt><trkpt lat="39.6770435" lon="20.5957201"><ele>239.0</ele><time>2026-05-03T06:15:03.748Z</time></trkpt><trkpt lat="39.6772563" lon="20.5957355"><ele>238.0</ele><time>2026-05-03T06:15:04.746Z</time></trkpt><trkpt lat="39.6774631" lon="20.5957455"><ele>237.0</ele><time>2026-05-03T06:15:05.749Z</time></trkpt><trkpt lat="39.6776643" lon="20.5957612"><ele>236.0</ele><time>2026-05-03T06:15:06.749Z</time></trkpt><trkpt lat="39.677858" lon="20.5957869"><ele>236.0</ele><time>2026-05-03T06:15:07.745Z</time></trkpt><trkpt lat="39.6780522" lon="20.5958209"><ele>236.0</ele><time>2026-05-03T06:15:08.747Z</time></trkpt><trkpt lat="39.6782509" lon="20.5958777"><ele>236.0</ele><time>2026-05-03T06:15:09.75Z</time></trkpt><trkpt lat="39.6784386" lon="20.5959595"><ele>240.66666666666669</ele><time>2026-05-03T06:15:10.747Z</time></trkpt><trkpt lat="39.6786259" lon="20.5960656"><ele>245.33333333333331</ele><time>2026-05-03T06:15:11.75Z</time></trkpt><trkpt lat="39.6787979" lon="20.5961813"><ele>250.0</ele><time>2026-05-03T06:15:12.747Z</time></trkpt><trkpt lat="39.6789582" lon="20.5963045"><ele>240.66666666666666</ele><time>2026-05-03T06:15:13.75Z</time></trkpt><trkpt lat="39.6791355" lon="20.5964063"><ele>231.33333333333331</ele><time>2026-05-03T06:15:14.749Z</time></trkpt><trkpt lat="39.6793227" lon="20.5964764"><ele>222.0</ele><time>2026-05-03T06:15:15.748Z</time></trkpt><trkpt lat="39.67952" lon="20.5965191"><ele>222.0</ele><time>2026-05-03T06:15:16.745Z</time></trkpt><trkpt lat="39.6797162" lon="20.5965598"><ele>222.0</ele><time>2026-05-03T06:15:17.748Z</time></trkpt><trkpt lat="39.6799123" lon="20.5965883"><ele>222.0</ele><time>2026-05-03T06:15:18.747Z</time></trkpt><trkpt lat="39.680097" lon="20.5966127"><ele>222.66666666666669</ele><time>2026-05-03T06:15:19.748Z</time></trkpt><trkpt lat="39.680275" lon="20.5966367"><ele>223.33333333333334</ele><time>2026-05-03T06:15:20.749Z</time></trkpt><trkpt lat="39.6804465" lon="20.5966669"><ele>224.0</ele><time>2026-05-03T06:15:21.747Z</time></trkpt><trkpt lat="39.6806108" lon="20.5966948"><ele>224.0</ele><time>2026-05-03T06:15:22.747Z</time></trkpt><trkpt lat="39.6807625" lon="20.5967207"><ele>224.0</ele><time>2026-05-03T06:15:23.749Z</time></trkpt><trkpt lat="39.6809061" lon="20.5967534"><ele>224.0</ele><time>2026-05-03T06:15:24.748Z</time></trkpt><trkpt lat="39.681042" lon="20.5967927"><ele>224.0</ele><time>2026-05-03T06:15:25.749Z</time></trkpt><trkpt lat="39.6811709" lon="20.5968546"><ele>225.5</ele><time>2026-05-03T06:15:26.75Z</time></trkpt><trkpt lat="39.6812911" lon="20.5969285"><ele>227.0</ele><time>2026-05-03T06:15:27.748Z</time></trkpt><trkpt lat="39.6814155" lon="20.5970326"><ele>228.5</ele><time>2026-05-03T06:15:28.749Z</time></trkpt><trkpt lat="39.6815203" lon="20.5971501"><ele>230.0</ele><time>2026-05-03T06:15:29.749Z</time></trkpt><trkpt lat="39.6816166" lon="20.5972862"><ele>225.0</ele><time>2026-05-03T06:15:30.748Z</time></trkpt><trkpt lat="39.681703" lon="20.5974313"><ele>220.0</ele><time>2026-05-03T06:15:31.747Z</time></trkpt><trkpt lat="39.681791" lon="20.5975847"><ele>215.0</ele><time>2026-05-03T06:15:32.747Z</time></trkpt><trkpt lat="39.6818772" lon="20.5977317"><ele>210.0</ele><time>2026-05-03T06:15:33.75Z</time></trkpt><trkpt lat="39.6819585" lon="20.5978719"><ele>210.0</ele><time>2026-05-03T06:15:34.748Z</time></trkpt><trkpt lat="39.6820469" lon="20.5980171"><ele>210.0</ele><time>2026-05-03T06:15:35.749Z</time></trkpt><trkpt lat="39.6821479" lon="20.5981476"><ele>210.0</ele><time>2026-05-03T06:15:36.748Z</time></trkpt><trkpt lat="39.6822437" lon="20.5982722"><ele>210.0</ele><time>2026-05-03T06:15:37.75Z</time></trkpt><trkpt lat="39.6823588" lon="20.5983779"><ele>210.0</ele><time>2026-05-03T06:15:38.748Z</time></trkpt><trkpt lat="39.6824946" lon="20.5984512"><ele>210.0</ele><time>2026-05-03T06:15:39.749Z</time></trkpt><trkpt lat="39.6826455" lon="20.5984948"><ele>210.0</ele><time>2026-05-03T06:15:40.748Z</time></trkpt><trkpt lat="39.6828307" lon="20.5984949"><ele>210.0</ele><time>2026-05-03T06:15:41.748Z</time></trkpt><trkpt lat="39.6830461" lon="20.5984659"><ele>210.0</ele><time>2026-05-03T06:15:42.746Z</time></trkpt><trkpt lat="39.6832673" lon="20.5984366"><ele>210.0</ele><time>2026-05-03T06:15:43.749Z</time></trkpt><trkpt lat="39.6834879" lon="20.5984176"><ele>206.66666666666669</ele><time>2026-05-03T06:15:44.749Z</time></trkpt><trkpt lat="39.6837082" lon="20.5984266"><ele>203.33333333333334</ele><time>2026-05-03T06:15:45.748Z</time></trkpt><trkpt lat="39.6839311" lon="20.5984729"><ele>200.0</ele><time>2026-05-03T06:15:46.749Z</time></trkpt><trkpt lat="39.6841411" lon="20.598538"><ele>200.0</ele><time>2026-05-03T06:15:47.748Z</time></trkpt><trkpt lat="39.6843447" lon="20.5986132"><ele>200.0</ele><time>2026-05-03T06:15:48.746Z</time></trkpt><trkpt lat="39.6845466" lon="20.598678"><ele>200.0</ele><time>2026-05-03T06:15:49.747Z</time></trkpt><trkpt lat="39.684748" lon="20.5987417"><ele>192.33333333333334</ele><time>2026-05-03T06:15:50.749Z</time></trkpt><trkpt lat="39.6849375" lon="20.5987792"><ele>184.66666666666669</ele><time>2026-05-03T06:15:51.748Z</time></trkpt><trkpt lat="39.6851282" lon="20.5988038"><ele>177.0</ele><time>2026-05-03T06:15:52.748Z</time></trkpt><trkpt lat="39.6853136" lon="20.5987833"><ele>174.33333333333334</ele><time>2026-05-03T06:15:53.748Z</time></trkpt><trkpt lat="39.6855042" lon="20.5987315"><ele>171.66666666666669</ele><time>2026-05-03T06:15:54.75Z</time></trkpt><trkpt lat="39.6856949" lon="20.5986573"><ele>169.0</ele><time>2026-05-03T06:15:55.747Z</time></trkpt><trkpt lat="39.6858842" lon="20.598579"><ele>173.33333333333334</ele><time>2026-05-03T06:15:56.748Z</time></trkpt><trkpt lat="39.686074" lon="20.5985046"><ele>177.66666666666666</ele><time>2026-05-03T06:15:57.748Z</time></trkpt><trkpt lat="39.6862674" lon="20.5984455"><ele>182.0</ele><time>2026-05-03T06:15:58.745Z</time></trkpt><trkpt lat="39.6864718" lon="20.5984059"><ele>182.0</ele><time>2026-05-03T06:15:59.746Z</time></trkpt><trkpt lat="39.6866844" lon="20.5983895"><ele>182.0</ele><time>2026-05-03T06:16:00.747Z</time></trkpt><trkpt lat="39.6869009" lon="20.5983863"><ele>182.0</ele><time>2026-05-03T06:16:01.746Z</time></trkpt><trkpt lat="39.6871204" lon="20.5983826"><ele>182.0</ele><time>2026-05-03T06:16:02.748Z</time></trkpt><trkpt lat="39.6873439" lon="20.5983749"><ele>182.0</ele><time>2026-05-03T06:16:03.749Z</time></trkpt><trkpt lat="39.6875691" lon="20.598371"><ele>182.0</ele><time>2026-05-03T06:16:04.747Z</time></trkpt><trkpt lat="39.687792" lon="20.5983716"><ele>179.33333333333331</ele><time>2026-05-03T06:16:05.747Z</time></trkpt><trkpt lat="39.6880181" lon="20.5983752"><ele>176.66666666666666</ele><time>2026-05-03T06:16:06.747Z</time></trkpt><trkpt lat="39.6882389" lon="20.598377"><ele>174.0</ele><time>2026-05-03T06:16:07.746Z</time></trkpt><trkpt lat="39.6884584" lon="20.5983765"><ele>172.0</ele><time>2026-05-03T06:16:08.748Z</time></trkpt><trkpt lat="39.6886763" lon="20.5983894"><ele>170.0</ele><time>2026-05-03T06:16:09.748Z</time></trkpt><trkpt lat="39.688895" lon="20.5984019"><ele>168.0</ele><time>2026-05-03T06:16:10.748Z</time></trkpt><trkpt lat="39.6891091" lon="20.5984184"><ele>168.0</ele><time>2026-05-03T06:16:11.749Z</time></trkpt><trkpt lat="39.6893236" lon="20.5984517"><ele>168.0</ele><time>2026-05-03T06:16:12.749Z</time></trkpt><trkpt lat="39.6895387" lon="20.5984851"><ele>168.0</ele><time>2026-05-03T06:16:13.747Z</time></trkpt><trkpt lat="39.6897511" lon="20.598516"><ele>167.33333333333334</ele><time>2026-05-03T06:16:14.749Z</time></trkpt><trkpt lat="39.6899619" lon="20.5985509"><ele>166.66666666666669</ele><time>2026-05-03T06:16:15.749Z</time></trkpt><trkpt lat="39.6901622" lon="20.5985879"><ele>166.0</ele><time>2026-05-03T06:16:16.749Z</time></trkpt><trkpt lat="39.6903569" lon="20.5986257"><ele>163.0</ele><time>2026-05-03T06:16:17.747Z</time></trkpt><trkpt lat="39.6905434" lon="20.5986631"><ele>160.0</ele><time>2026-05-03T06:16:18.748Z</time></trkpt><trkpt lat="39.6907276" lon="20.5986939"><ele>157.0</ele><time>2026-05-03T06:16:19.747Z</time></trkpt><trkpt lat="39.6909099" lon="20.5987319"><ele>156.0</ele><time>2026-05-03T06:16:20.747Z</time></trkpt><trkpt lat="39.6910847" lon="20.5987631"><ele>155.0</ele><time>2026-05-03T06:16:21.747Z</time></trkpt><trkpt lat="39.6912644" lon="20.5988032"><ele>154.0</ele><time>2026-05-03T06:16:22.746Z</time></trkpt><trkpt lat="39.6914383" lon="20.5988415"><ele>153.0</ele><time>2026-05-03T06:16:23.748Z</time></trkpt><trkpt lat="39.6916019" lon="20.5988811"><ele>152.0</ele><time>2026-05-03T06:16:24.749Z</time></trkpt><trkpt lat="39.6917577" lon="20.5989151"><ele>151.0</ele><time>2026-05-03T06:16:25.75Z</time></trkpt><trkpt lat="39.6919079" lon="20.5989584"><ele>150.33333333333334</ele><time>2026-05-03T06:16:26.748Z</time></trkpt><trkpt lat="39.6920556" lon="20.5990163"><ele>149.66666666666666</ele><time>2026-05-03T06:16:27.748Z</time></trkpt><trkpt lat="39.692206" lon="20.5990833"><ele>149.0</ele><time>2026-05-03T06:16:28.748Z</time></trkpt><trkpt lat="39.6923664" lon="20.5991556"><ele>149.0</ele><time>2026-05-03T06:16:29.75Z</time></trkpt><trkpt lat="39.6925297" lon="20.5992392"><ele>149.0</ele><time>2026-05-03T06:16:30.749Z</time></trkpt><trkpt lat="39.6927042" lon="20.5993299"><ele>149.0</ele><time>2026-05-03T06:16:31.746Z</time></trkpt><trkpt lat="39.6928791" lon="20.5994229"><ele>149.66666666666666</ele><time>2026-05-03T06:16:32.749Z</time></trkpt><trkpt lat="39.6930578" lon="20.5995159"><ele>150.33333333333334</ele><time>2026-05-03T06:16:33.748Z</time></trkpt><trkpt lat="39.6932366" lon="20.5996165"><ele>151.0</ele><time>2026-05-03T06:16:34.749Z</time></trkpt><trkpt lat="39.6934151" lon="20.5997105"><ele>151.33333333333334</ele><time>2026-05-03T06:16:35.748Z</time></trkpt><trkpt lat="39.6936022" lon="20.5998017"><ele>151.66666666666666</ele><time>2026-05-03T06:16:36.749Z</time></trkpt><trkpt lat="39.6937854" lon="20.5999001"><ele>152.0</ele><time>2026-05-03T06:16:37.749Z</time></trkpt><trkpt lat="39.693976" lon="20.5999973"><ele>152.0</ele><time>2026-05-03T06:16:38.75Z</time></trkpt><trkpt lat="39.6941695" lon="20.6000996"><ele>152.0</ele><time>2026-05-03T06:16:39.747Z</time></trkpt><trkpt lat="39.6943631" lon="20.6002034"><ele>152.0</ele><time>2026-05-03T06:16:40.748Z</time></trkpt><trkpt lat="39.694552" lon="20.6003038"><ele>153.66666666666666</ele><time>2026-05-03T06:16:41.748Z</time></trkpt><trkpt lat="39.6947359" lon="20.6004013"><ele>155.33333333333334</ele><time>2026-05-03T06:16:42.748Z</time></trkpt><trkpt lat="39.6949188" lon="20.6004981"><ele>157.0</ele><time>2026-05-03T06:16:43.748Z</time></trkpt><trkpt lat="39.6950991" lon="20.6005943"><ele>157.0</ele><time>2026-05-03T06:16:44.749Z</time></trkpt><trkpt lat="39.6952808" lon="20.6006906"><ele>157.0</ele><time>2026-05-03T06:16:45.747Z</time></trkpt><trkpt lat="39.6954628" lon="20.6007771"><ele>157.0</ele><time>2026-05-03T06:16:46.746Z</time></trkpt><trkpt lat="39.6956521" lon="20.6008513"><ele>157.0</ele><time>2026-05-03T06:16:47.746Z</time></trkpt><trkpt lat="39.6958393" lon="20.6009454"><ele>157.0</ele><time>2026-05-03T06:16:48.747Z</time></trkpt><trkpt lat="39.6960362" lon="20.6010255"><ele>157.0</ele><time>2026-05-03T06:16:49.748Z</time></trkpt><trkpt lat="39.6962331" lon="20.6011056"><ele>163.66666666666669</ele><time>2026-05-03T06:16:50.75Z</time></trkpt><trkpt lat="39.6964363" lon="20.6011838"><ele>170.33333333333334</ele><time>2026-05-03T06:16:51.749Z</time></trkpt><trkpt lat="39.6966369" lon="20.6012606"><ele>177.0</ele><time>2026-05-03T06:16:52.748Z</time></trkpt><trkpt lat="39.696837" lon="20.6013366"><ele>175.33333333333334</ele><time>2026-05-03T06:16:53.748Z</time></trkpt><trkpt lat="39.6970389" lon="20.6014059"><ele>173.66666666666669</ele><time>2026-05-03T06:16:54.747Z</time></trkpt><trkpt lat="39.6972363" lon="20.6014766"><ele>172.0</ele><time>2026-05-03T06:16:55.748Z</time></trkpt><trkpt lat="39.697435" lon="20.6015431"><ele>172.0</ele><time>2026-05-03T06:16:56.75Z</time></trkpt><trkpt lat="39.6976302" lon="20.6016079"><ele>172.0</ele><time>2026-05-03T06:16:57.75Z</time></trkpt><trkpt lat="39.6978278" lon="20.6016495"><ele>172.0</ele><time>2026-05-03T06:16:58.748Z</time></trkpt><trkpt lat="39.6980248" lon="20.6016845"><ele>170.66666666666669</ele><time>2026-05-03T06:16:59.75Z</time></trkpt><trkpt lat="39.6982244" lon="20.601689"><ele>169.33333333333334</ele><time>2026-05-03T06:17:00.748Z</time></trkpt><trkpt lat="39.6984274" lon="20.601666"><ele>168.0</ele><time>2026-05-03T06:17:01.747Z</time></trkpt><trkpt lat="39.6986376" lon="20.60161"><ele>172.33333333333334</ele><time>2026-05-03T06:17:02.748Z</time></trkpt><trkpt lat="39.698845" lon="20.6015289"><ele>176.66666666666669</ele><time>2026-05-03T06:17:03.747Z</time></trkpt><trkpt lat="39.6990529" lon="20.6014336"><ele>181.0</ele><time>2026-05-03T06:17:04.748Z</time></trkpt><trkpt lat="39.6992586" lon="20.601333"><ele>177.33333333333334</ele><time>2026-05-03T06:17:05.747Z</time></trkpt><trkpt lat="39.6994628" lon="20.6012344"><ele>173.66666666666666</ele><time>2026-05-03T06:17:06.748Z</time></trkpt><trkpt lat="39.6996656" lon="20.601137"><ele>170.0</ele><time>2026-05-03T06:17:07.749Z</time></trkpt><trkpt lat="39.6998673" lon="20.6010442"><ele>170.0</ele><time>2026-05-03T06:17:08.749Z</time></trkpt><trkpt lat="39.7000659" lon="20.6009532"><ele>170.0</ele><time>2026-05-03T06:17:09.748Z</time></trkpt><trkpt lat="39.7002648" lon="20.6008561"><ele>170.0</ele><time>2026-05-03T06:17:10.749Z</time></trkpt><trkpt lat="39.7004566" lon="20.6007635"><ele>174.0</ele><time>2026-05-03T06:17:11.747Z</time></trkpt><trkpt lat="39.7006515" lon="20.6006744"><ele>178.0</ele><time>2026-05-03T06:17:12.747Z</time></trkpt><trkpt lat="39.7008487" lon="20.6005874"><ele>182.0</ele><time>2026-05-03T06:17:13.749Z</time></trkpt><trkpt lat="39.701046" lon="20.6005144"><ele>185.33333333333331</ele><time>2026-05-03T06:17:14.746Z</time></trkpt><trkpt lat="39.7012429" lon="20.6004483"><ele>188.66666666666666</ele><time>2026-05-03T06:17:15.745Z</time></trkpt><trkpt lat="39.7014352" lon="20.6003956"><ele>192.0</ele><time>2026-05-03T06:17:16.749Z</time></trkpt><trkpt lat="39.7016136" lon="20.6003506"><ele>193.66666666666669</ele><time>2026-05-03T06:17:17.747Z</time></trkpt><trkpt lat="39.7017934" lon="20.6003306"><ele>195.33333333333334</ele><time>2026-05-03T06:17:18.747Z</time></trkpt><trkpt lat="39.7019861" lon="20.6003331"><ele>197.0</ele><time>2026-05-03T06:17:19.747Z</time></trkpt><trkpt lat="39.7021756" lon="20.6003462"><ele>197.0</ele><time>2026-05-03T06:17:20.749Z</time></trkpt><trkpt lat="39.7023743" lon="20.6003695"><ele>197.0</ele><time>2026-05-03T06:17:21.745Z</time></trkpt><trkpt lat="39.7025798" lon="20.6004102"><ele>197.0</ele><time>2026-05-03T06:17:22.749Z</time></trkpt><trkpt lat="39.7027928" lon="20.6004471"><ele>197.0</ele><time>2026-05-03T06:17:23.748Z</time></trkpt><trkpt lat="39.7030119" lon="20.6004856"><ele>197.0</ele><time>2026-05-03T06:17:24.746Z</time></trkpt><trkpt lat="39.7032287" lon="20.6005303"><ele>197.0</ele><time>2026-05-03T06:17:25.75Z</time></trkpt><trkpt lat="39.7034508" lon="20.6005738"><ele>196.0</ele><time>2026-05-03T06:17:26.745Z</time></trkpt><trkpt lat="39.7036772" lon="20.6006161"><ele>195.0</ele><time>2026-05-03T06:17:27.748Z</time></trkpt><trkpt lat="39.7039035" lon="20.6006617"><ele>195.0</ele><time>2026-05-03T06:17:28.749Z</time></trkpt><trkpt lat="39.7041263" lon="20.600704"><ele>195.0</ele><time>2026-05-03T06:17:29.75Z</time></trkpt><trkpt lat="39.7043477" lon="20.6007564"><ele>193.0</ele><time>2026-05-03T06:17:30.747Z</time></trkpt><trkpt lat="39.7045723" lon="20.6008097"><ele>191.0</ele><time>2026-05-03T06:17:31.749Z</time></trkpt><trkpt lat="39.7047968" lon="20.6008579"><ele>191.0</ele><time>2026-05-03T06:17:32.749Z</time></trkpt><trkpt lat="39.7050148" lon="20.6009058"><ele>191.0</ele><time>2026-05-03T06:17:33.748Z</time></trkpt><trkpt lat="39.7052363" lon="20.600938"><ele>191.0</ele><time>2026-05-03T06:17:34.747Z</time></trkpt><trkpt lat="39.7054605" lon="20.6009552"><ele>192.5</ele><time>2026-05-03T06:17:35.749Z</time></trkpt><trkpt lat="39.7056917" lon="20.6009529"><ele>194.0</ele><time>2026-05-03T06:17:36.749Z</time></trkpt><trkpt lat="39.7059276" lon="20.6009303"><ele>195.5</ele><time>2026-05-03T06:17:37.749Z</time></trkpt><trkpt lat="39.7061595" lon="20.6008944"><ele>197.0</ele><time>2026-05-03T06:17:38.75Z</time></trkpt><trkpt lat="39.7063813" lon="20.6008627"><ele>197.0</ele><time>2026-05-03T06:17:39.749Z</time></trkpt><trkpt lat="39.7065907" lon="20.6008348"><ele>197.0</ele><time>2026-05-03T06:17:40.749Z</time></trkpt><trkpt lat="39.7067962" lon="20.6008205"><ele>197.0</ele><time>2026-05-03T06:17:41.75Z</time></trkpt><trkpt lat="39.7070071" lon="20.6008188"><ele>198.0</ele><time>2026-05-03T06:17:42.747Z</time></trkpt><trkpt lat="39.7072208" lon="20.6008298"><ele>199.0</ele><time>2026-05-03T06:17:43.749Z</time></trkpt><trkpt lat="39.7074481" lon="20.6008621"><ele>200.0</ele><time>2026-05-03T06:17:44.75Z</time></trkpt><trkpt lat="39.7076925" lon="20.6009055"><ele>200.0</ele><time>2026-05-03T06:17:45.747Z</time></trkpt><trkpt lat="39.7079422" lon="20.6009585"><ele>200.0</ele><time>2026-05-03T06:17:46.747Z</time></trkpt><trkpt lat="39.7081931" lon="20.601009"><ele>200.0</ele><time>2026-05-03T06:17:47.746Z</time></trkpt><trkpt lat="39.7084479" lon="20.6010759"><ele>200.0</ele><time>2026-05-03T06:17:48.746Z</time></trkpt><trkpt lat="39.7087006" lon="20.6011256"><ele>205.0</ele><time>2026-05-03T06:17:49.748Z</time></trkpt><trkpt lat="39.7089562" lon="20.6011824"><ele>210.0</ele><time>2026-05-03T06:17:50.747Z</time></trkpt><trkpt lat="39.7092141" lon="20.601237"><ele>210.5</ele><time>2026-05-03T06:17:51.75Z</time></trkpt><trkpt lat="39.7094687" lon="20.6012882"><ele>211.0</ele><time>2026-05-03T06:17:52.749Z</time></trkpt><trkpt lat="39.7097175" lon="20.6013331"><ele>211.0</ele><time>2026-05-03T06:17:53.75Z</time></trkpt><trkpt lat="39.7099674" lon="20.6013878"><ele>211.0</ele><time>2026-05-03T06:17:54.749Z</time></trkpt><trkpt lat="39.7102112" lon="20.6014345"><ele>211.0</ele><time>2026-05-03T06:17:55.749Z</time></trkpt><trkpt lat="39.7104442" lon="20.6014845"><ele>211.0</ele><time>2026-05-03T06:17:56.748Z</time></trkpt><trkpt lat="39.7106742" lon="20.6015378"><ele>211.0</ele><time>2026-05-03T06:17:57.749Z</time></trkpt><trkpt lat="39.7108959" lon="20.6015802"><ele>211.0</ele><time>2026-05-03T06:17:58.747Z</time></trkpt><trkpt lat="39.711111" lon="20.601623"><ele>211.0</ele><time>2026-05-03T06:17:59.75Z</time></trkpt><trkpt lat="39.7113224" lon="20.6016564"><ele>211.66666666666666</ele><time>2026-05-03T06:18:00.749Z</time></trkpt><trkpt lat="39.7115417" lon="20.6016745"><ele>212.33333333333331</ele><time>2026-05-03T06:18:01.749Z</time></trkpt><trkpt lat="39.7117658" lon="20.6016665"><ele>213.0</ele><time>2026-05-03T06:18:02.749Z</time></trkpt><trkpt lat="39.7119939" lon="20.6016367"><ele>214.0</ele><time>2026-05-03T06:18:03.75Z</time></trkpt><trkpt lat="39.7122143" lon="20.6015956"><ele>215.0</ele><time>2026-05-03T06:18:04.747Z</time></trkpt><trkpt lat="39.712431" lon="20.6015576"><ele>216.0</ele><time>2026-05-03T06:18:05.747Z</time></trkpt><trkpt lat="39.7126407" lon="20.6015207"><ele>217.0</ele><time>2026-05-03T06:18:06.747Z</time></trkpt><trkpt lat="39.7128416" lon="20.6014928"><ele>218.0</ele><time>2026-05-03T06:18:07.748Z</time></trkpt><trkpt lat="39.713036" lon="20.6014512"><ele>219.0</ele><time>2026-05-03T06:18:08.75Z</time></trkpt><trkpt lat="39.713219" lon="20.6014236"><ele>219.0</ele><time>2026-05-03T06:18:09.744Z</time></trkpt><trkpt lat="39.7133996" lon="20.6013928"><ele>219.0</ele><time>2026-05-03T06:18:10.745Z</time></trkpt><trkpt lat="39.7135829" lon="20.6013678"><ele>219.0</ele><time>2026-05-03T06:18:11.745Z</time></trkpt><trkpt lat="39.7137648" lon="20.6013572"><ele>220.0</ele><time>2026-05-03T06:18:12.747Z</time></trkpt><trkpt lat="39.7139452" lon="20.6013659"><ele>221.0</ele><time>2026-05-03T06:18:13.746Z</time></trkpt><trkpt lat="39.714126" lon="20.6013766"><ele>222.0</ele><time>2026-05-03T06:18:14.745Z</time></trkpt><trkpt lat="39.7143174" lon="20.6014202"><ele>221.0</ele><time>2026-05-03T06:18:15.748Z</time></trkpt><trkpt lat="39.7145057" lon="20.6014668"><ele>220.0</ele><time>2026-05-03T06:18:16.749Z</time></trkpt><trkpt lat="39.7147061" lon="20.6015273"><ele>219.0</ele><time>2026-05-03T06:18:17.747Z</time></trkpt><trkpt lat="39.714912" lon="20.6015877"><ele>219.0</ele><time>2026-05-03T06:18:18.748Z</time></trkpt><trkpt lat="39.7151127" lon="20.6016506"><ele>219.0</ele><time>2026-05-03T06:18:19.743Z</time></trkpt><trkpt lat="39.7153126" lon="20.601708"><ele>219.0</ele><time>2026-05-03T06:18:20.747Z</time></trkpt><trkpt lat="39.7155039" lon="20.6017709"><ele>215.0</ele><time>2026-05-03T06:18:21.747Z</time></trkpt><trkpt lat="39.7156902" lon="20.6018309"><ele>211.0</ele><time>2026-05-03T06:18:22.744Z</time></trkpt><trkpt lat="39.7158758" lon="20.6018931"><ele>207.0</ele><time>2026-05-03T06:18:23.746Z</time></trkpt><trkpt lat="39.7160657" lon="20.6019441"><ele>209.33333333333331</ele><time>2026-05-03T06:18:24.747Z</time></trkpt><trkpt lat="39.7162613" lon="20.6020089"><ele>211.66666666666666</ele><time>2026-05-03T06:18:25.745Z</time></trkpt><trkpt lat="39.7164463" lon="20.6020671"><ele>214.0</ele><time>2026-05-03T06:18:26.746Z</time></trkpt><trkpt lat="39.7166265" lon="20.6021211"><ele>214.0</ele><time>2026-05-03T06:18:27.748Z</time></trkpt><trkpt lat="39.716804" lon="20.6021941"><ele>214.0</ele><time>2026-05-03T06:18:28.75Z</time></trkpt><trkpt lat="39.716975" lon="20.6022793"><ele>214.0</ele><time>2026-05-03T06:18:29.746Z</time></trkpt><trkpt lat="39.7171394" lon="20.6023821"><ele>209.0</ele><time>2026-05-03T06:18:30.748Z</time></trkpt><trkpt lat="39.7172987" lon="20.6025082"><ele>204.0</ele><time>2026-05-03T06:18:31.746Z</time></trkpt><trkpt lat="39.7174494" lon="20.6026591"><ele>199.0</ele><time>2026-05-03T06:18:32.749Z</time></trkpt><trkpt lat="39.7175833" lon="20.602828"><ele>202.66666666666666</ele><time>2026-05-03T06:18:33.747Z</time></trkpt><trkpt lat="39.7177004" lon="20.6030115"><ele>206.33333333333331</ele><time>2026-05-03T06:18:34.746Z</time></trkpt><trkpt lat="39.7177997" lon="20.603209"><ele>210.0</ele><time>2026-05-03T06:18:35.747Z</time></trkpt><trkpt lat="39.7178766" lon="20.6034381"><ele>201.33333333333334</ele><time>2026-05-03T06:18:36.746Z</time></trkpt><trkpt lat="39.7179541" lon="20.6036708"><ele>192.66666666666669</ele><time>2026-05-03T06:18:37.748Z</time></trkpt><trkpt lat="39.7180196" lon="20.6039177"><ele>184.0</ele><time>2026-05-03T06:18:38.747Z</time></trkpt><trkpt lat="39.718091" lon="20.6041758"><ele>184.0</ele><time>2026-05-03T06:18:39.75Z</time></trkpt><trkpt lat="39.7181624" lon="20.6044236"><ele>184.0</ele><time>2026-05-03T06:18:40.747Z</time></trkpt><trkpt lat="39.7182425" lon="20.6046561"><ele>184.0</ele><time>2026-05-03T06:18:41.747Z</time></trkpt><trkpt lat="39.7183281" lon="20.6048864"><ele>186.0</ele><time>2026-05-03T06:18:42.745Z</time></trkpt><trkpt lat="39.7184088" lon="20.6051035"><ele>188.0</ele><time>2026-05-03T06:18:43.748Z</time></trkpt><trkpt lat="39.7184922" lon="20.605305"><ele>190.0</ele><time>2026-05-03T06:18:44.746Z</time></trkpt><trkpt lat="39.7185682" lon="20.6055039"><ele>184.0</ele><time>2026-05-03T06:18:45.748Z</time></trkpt><trkpt lat="39.7186318" lon="20.6057012"><ele>178.0</ele><time>2026-05-03T06:18:46.748Z</time></trkpt><trkpt lat="39.7186942" lon="20.6058961"><ele>172.0</ele><time>2026-05-03T06:18:47.747Z</time></trkpt><trkpt lat="39.7187428" lon="20.6060744"><ele>171.5</ele><time>2026-05-03T06:18:48.747Z</time></trkpt><trkpt lat="39.7187726" lon="20.6062232"><ele>171.0</ele><time>2026-05-03T06:18:49.746Z</time></trkpt><trkpt lat="39.718799" lon="20.6063435"><ele>170.5</ele><time>2026-05-03T06:18:50.746Z</time></trkpt><trkpt lat="39.7188171" lon="20.6064503"><ele>170.0</ele><time>2026-05-03T06:18:51.748Z</time></trkpt><trkpt lat="39.7188409" lon="20.6065387"><ele>169.5</ele><time>2026-05-03T06:18:52.75Z</time></trkpt><trkpt lat="39.718881" lon="20.6066029"><ele>169.0</ele><time>2026-05-03T06:18:53.749Z</time></trkpt><trkpt lat="39.7189883" lon="20.6066146"><ele>169.0</ele><time>2026-05-03T06:18:55.747Z</time></trkpt><trkpt lat="39.719042" lon="20.6065666"><ele>169.0</ele><time>2026-05-03T06:18:56.745Z</time></trkpt><trkpt lat="39.7190807" lon="20.6064854"><ele>169.0</ele><time>2026-05-03T06:18:57.747Z</time></trkpt><trkpt lat="39.7191081" lon="20.60638"><ele>169.0</ele><time>2026-05-03T06:18:58.747Z</time></trkpt><trkpt lat="39.7191261" lon="20.6062528"><ele>169.0</ele><time>2026-05-03T06:18:59.746Z</time></trkpt><trkpt lat="39.7191365" lon="20.6061147"><ele>169.0</ele><time>2026-05-03T06:19:00.746Z</time></trkpt><trkpt lat="39.7191531" lon="20.6059765"><ele>169.75</ele><time>2026-05-03T06:19:01.747Z</time></trkpt><trkpt lat="39.7191914" lon="20.6058365"><ele>170.5</ele><time>2026-05-03T06:19:02.746Z</time></trkpt><trkpt lat="39.719252" lon="20.6056922"><ele>171.25</ele><time>2026-05-03T06:19:03.748Z</time></trkpt><trkpt lat="39.719332" lon="20.6055537"><ele>172.0</ele><time>2026-05-03T06:19:04.746Z</time></trkpt><trkpt lat="39.7194211" lon="20.605422"><ele>169.25</ele><time>2026-05-03T06:19:05.748Z</time></trkpt><trkpt lat="39.7195255" lon="20.6053004"><ele>166.5</ele><time>2026-05-03T06:19:06.746Z</time></trkpt><trkpt lat="39.719635" lon="20.6051808"><ele>163.75</ele><time>2026-05-03T06:19:07.749Z</time></trkpt><trkpt lat="39.7197344" lon="20.605058"><ele>161.0</ele><time>2026-05-03T06:19:08.747Z</time></trkpt><trkpt lat="39.7198242" lon="20.6049266"><ele>161.0</ele><time>2026-05-03T06:19:09.748Z</time></trkpt><trkpt lat="39.7198927" lon="20.6047745"><ele>161.0</ele><time>2026-05-03T06:19:10.746Z</time></trkpt><trkpt lat="39.719944" lon="20.6046096"><ele>161.0</ele><time>2026-05-03T06:19:11.748Z</time></trkpt><trkpt lat="39.7199745" lon="20.6044403"><ele>161.0</ele><time>2026-05-03T06:19:12.748Z</time></trkpt><trkpt lat="39.7199915" lon="20.6042805"><ele>164.25</ele><time>2026-05-03T06:19:13.747Z</time></trkpt><trkpt lat="39.7200017" lon="20.6041336"><ele>167.5</ele><time>2026-05-03T06:19:14.747Z</time></trkpt><trkpt lat="39.7200079" lon="20.6039881"><ele>170.75</ele><time>2026-05-03T06:19:15.745Z</time></trkpt><trkpt lat="39.7200225" lon="20.603846"><ele>174.0</ele><time>2026-05-03T06:19:16.745Z</time></trkpt><trkpt lat="39.7200367" lon="20.603688"><ele>175.0</ele><time>2026-05-03T06:19:17.746Z</time></trkpt><trkpt lat="39.7200602" lon="20.6035415"><ele>176.0</ele><time>2026-05-03T06:19:18.749Z</time></trkpt><trkpt lat="39.7200907" lon="20.6033958"><ele>177.0</ele><time>2026-05-03T06:19:19.745Z</time></trkpt><trkpt lat="39.7201237" lon="20.6032626"><ele>178.0</ele><time>2026-05-03T06:19:20.747Z</time></trkpt><trkpt lat="39.7201667" lon="20.6031394"><ele>179.0</ele><time>2026-05-03T06:19:21.749Z</time></trkpt><trkpt lat="39.7202194" lon="20.6030187"><ele>179.25</ele><time>2026-05-03T06:19:22.75Z</time></trkpt><trkpt lat="39.7202852" lon="20.6029074"><ele>179.5</ele><time>2026-05-03T06:19:23.747Z</time></trkpt><trkpt lat="39.7203615" lon="20.6027997"><ele>179.75</ele><time>2026-05-03T06:19:24.747Z</time></trkpt><trkpt lat="39.7204643" lon="20.6027034"><ele>180.0</ele><time>2026-05-03T06:19:25.748Z</time></trkpt><trkpt lat="39.7205774" lon="20.6026195"><ele>180.0</ele><time>2026-05-03T06:19:26.747Z</time></trkpt><trkpt lat="39.7207041" lon="20.602524"><ele>180.0</ele><time>2026-05-03T06:19:27.747Z</time></trkpt><trkpt lat="39.7208372" lon="20.6024439"><ele>180.0</ele><time>2026-05-03T06:19:28.747Z</time></trkpt><trkpt lat="39.7209657" lon="20.6023612"><ele>180.0</ele><time>2026-05-03T06:19:29.746Z</time></trkpt><trkpt lat="39.7210882" lon="20.6022846"><ele>179.0</ele><time>2026-05-03T06:19:30.745Z</time></trkpt><trkpt lat="39.7212067" lon="20.6022133"><ele>178.0</ele><time>2026-05-03T06:19:31.749Z</time></trkpt><trkpt lat="39.7213194" lon="20.6021539"><ele>177.0</ele><time>2026-05-03T06:19:32.75Z</time></trkpt><trkpt lat="39.7214397" lon="20.602123"><ele>176.0</ele><time>2026-05-03T06:19:33.749Z</time></trkpt><trkpt lat="39.721566" lon="20.6021164"><ele>176.0</ele><time>2026-05-03T06:19:34.744Z</time></trkpt><trkpt lat="39.7216953" lon="20.6021381"><ele>176.0</ele><time>2026-05-03T06:19:35.746Z</time></trkpt><trkpt lat="39.721824" lon="20.602196"><ele>176.0</ele><time>2026-05-03T06:19:36.745Z</time></trkpt><trkpt lat="39.721935" lon="20.6022624"><ele>176.0</ele><time>2026-05-03T06:19:37.746Z</time></trkpt><trkpt lat="39.7220376" lon="20.6023616"><ele>177.75</ele><time>2026-05-03T06:19:38.746Z</time></trkpt><trkpt lat="39.7221336" lon="20.6024862"><ele>179.5</ele><time>2026-05-03T06:19:39.744Z</time></trkpt><trkpt lat="39.7222178" lon="20.6026299"><ele>181.25</ele><time>2026-05-03T06:19:40.745Z</time></trkpt><trkpt lat="39.7222959" lon="20.6028"><ele>183.0</ele><time>2026-05-03T06:19:41.746Z</time></trkpt><trkpt lat="39.7223683" lon="20.6029686"><ele>183.0</ele><time>2026-05-03T06:19:42.743Z</time></trkpt><trkpt lat="39.7224413" lon="20.6031387"><ele>183.0</ele><time>2026-05-03T06:19:43.745Z</time></trkpt><trkpt lat="39.7225267" lon="20.6033172"><ele>183.0</ele><time>2026-05-03T06:19:44.744Z</time></trkpt><trkpt lat="39.7226036" lon="20.6034852"><ele>183.0</ele><time>2026-05-03T06:19:45.745Z</time></trkpt><trkpt lat="39.7226825" lon="20.6036541"><ele>183.0</ele><time>2026-05-03T06:19:46.75Z</time></trkpt><trkpt lat="39.722768" lon="20.6038088"><ele>183.0</ele><time>2026-05-03T06:19:47.746Z</time></trkpt><trkpt lat="39.7228579" lon="20.6039471"><ele>183.0</ele><time>2026-05-03T06:19:48.746Z</time></trkpt><trkpt lat="39.7229701" lon="20.6040731"><ele>184.66666666666666</ele><time>2026-05-03T06:19:49.747Z</time></trkpt><trkpt lat="39.723106" lon="20.604183"><ele>186.33333333333331</ele><time>2026-05-03T06:19:50.745Z</time></trkpt><trkpt lat="39.7232472" lon="20.6042719"><ele>188.0</ele><time>2026-05-03T06:19:51.748Z</time></trkpt><trkpt lat="39.72339" lon="20.6043509"><ele>188.0</ele><time>2026-05-03T06:19:52.749Z</time></trkpt><trkpt lat="39.7235309" lon="20.6044351"><ele>188.0</ele><time>2026-05-03T06:19:53.749Z</time></trkpt><trkpt lat="39.7236536" lon="20.6045214"><ele>188.0</ele><time>2026-05-03T06:19:54.749Z</time></trkpt><trkpt lat="39.7237858" lon="20.6046326"><ele>187.0</ele><time>2026-05-03T06:19:55.747Z</time></trkpt><trkpt lat="39.723897" lon="20.6047557"><ele>186.0</ele><time>2026-05-03T06:19:56.749Z</time></trkpt><trkpt lat="39.7239928" lon="20.6048938"><ele>185.0</ele><time>2026-05-03T06:19:57.748Z</time></trkpt><trkpt lat="39.7240749" lon="20.605055"><ele>184.0</ele><time>2026-05-03T06:19:58.746Z</time></trkpt><trkpt lat="39.7241482" lon="20.6052176"><ele>183.66666666666669</ele><time>2026-05-03T06:19:59.745Z</time></trkpt><trkpt lat="39.7241914" lon="20.605398"><ele>183.33333333333334</ele><time>2026-05-03T06:20:00.748Z</time></trkpt><trkpt lat="39.7242268" lon="20.6055902"><ele>183.0</ele><time>2026-05-03T06:20:01.747Z</time></trkpt><trkpt lat="39.7242585" lon="20.6058056"><ele>183.0</ele><time>2026-05-03T06:20:02.749Z</time></trkpt><trkpt lat="39.7242896" lon="20.6060372"><ele>183.0</ele><time>2026-05-03T06:20:03.747Z</time></trkpt><trkpt lat="39.7243223" lon="20.6062755"><ele>183.0</ele><time>2026-05-03T06:20:04.746Z</time></trkpt><trkpt lat="39.7243581" lon="20.6065151"><ele>184.33333333333334</ele><time>2026-05-03T06:20:05.747Z</time></trkpt><trkpt lat="39.7243892" lon="20.6067553"><ele>185.66666666666669</ele><time>2026-05-03T06:20:06.749Z</time></trkpt><trkpt lat="39.7244214" lon="20.6069942"><ele>187.0</ele><time>2026-05-03T06:20:07.747Z</time></trkpt><trkpt lat="39.7244495" lon="20.6072358"><ele>193.66666666666669</ele><time>2026-05-03T06:20:08.747Z</time></trkpt><trkpt lat="39.7244807" lon="20.6074781"><ele>200.33333333333334</ele><time>2026-05-03T06:20:09.747Z</time></trkpt><trkpt lat="39.7245094" lon="20.6077262"><ele>207.0</ele><time>2026-05-03T06:20:10.749Z</time></trkpt><trkpt lat="39.7245354" lon="20.6079753"><ele>207.0</ele><time>2026-05-03T06:20:11.749Z</time></trkpt><trkpt lat="39.7245628" lon="20.6082237"><ele>207.0</ele><time>2026-05-03T06:20:12.747Z</time></trkpt><trkpt lat="39.7245946" lon="20.6084725"><ele>207.0</ele><time>2026-05-03T06:20:13.747Z</time></trkpt><trkpt lat="39.7246262" lon="20.6087176"><ele>208.33333333333331</ele><time>2026-05-03T06:20:14.746Z</time></trkpt><trkpt lat="39.7246557" lon="20.6089614"><ele>209.66666666666666</ele><time>2026-05-03T06:20:15.748Z</time></trkpt><trkpt lat="39.7246839" lon="20.609198"><ele>211.0</ele><time>2026-05-03T06:20:16.746Z</time></trkpt><trkpt lat="39.7247115" lon="20.6094343"><ele>211.66666666666666</ele><time>2026-05-03T06:20:17.747Z</time></trkpt><trkpt lat="39.7247382" lon="20.6096716"><ele>212.33333333333331</ele><time>2026-05-03T06:20:18.747Z</time></trkpt><trkpt lat="39.7247672" lon="20.6099014"><ele>213.0</ele><time>2026-05-03T06:20:19.744Z</time></trkpt><trkpt lat="39.7248053" lon="20.6101221"><ele>210.33333333333331</ele><time>2026-05-03T06:20:20.748Z</time></trkpt><trkpt lat="39.7248579" lon="20.6103261"><ele>207.66666666666666</ele><time>2026-05-03T06:20:21.748Z</time></trkpt><trkpt lat="39.724932" lon="20.6105051"><ele>205.0</ele><time>2026-05-03T06:20:22.746Z</time></trkpt><trkpt lat="39.7250236" lon="20.6106507"><ele>205.0</ele><time>2026-05-03T06:20:23.748Z</time></trkpt><trkpt lat="39.7251339" lon="20.6107658"><ele>205.0</ele><time>2026-05-03T06:20:24.747Z</time></trkpt><trkpt lat="39.7252587" lon="20.6108493"><ele>205.0</ele><time>2026-05-03T06:20:25.745Z</time></trkpt><trkpt lat="39.7253953" lon="20.6109029"><ele>205.0</ele><time>2026-05-03T06:20:26.746Z</time></trkpt><trkpt lat="39.7255392" lon="20.6109223"><ele>206.0</ele><time>2026-05-03T06:20:27.747Z</time></trkpt><trkpt lat="39.7256837" lon="20.6109019"><ele>207.0</ele><time>2026-05-03T06:20:28.746Z</time></trkpt><trkpt lat="39.7258258" lon="20.6108444"><ele>208.0</ele><time>2026-05-03T06:20:29.747Z</time></trkpt><trkpt lat="39.7259623" lon="20.6107494"><ele>209.0</ele><time>2026-05-03T06:20:30.748Z</time></trkpt><trkpt lat="39.7260957" lon="20.6106296"><ele>209.0</ele><time>2026-05-03T06:20:31.748Z</time></trkpt><trkpt lat="39.7262313" lon="20.610508"><ele>209.0</ele><time>2026-05-03T06:20:32.748Z</time></trkpt><trkpt lat="39.7263633" lon="20.6103967"><ele>209.0</ele><time>2026-05-03T06:20:33.747Z</time></trkpt><trkpt lat="39.7264907" lon="20.6103087"><ele>213.66666666666669</ele><time>2026-05-03T06:20:34.747Z</time></trkpt><trkpt lat="39.7266299" lon="20.6102361"><ele>218.33333333333331</ele><time>2026-05-03T06:20:35.748Z</time></trkpt><trkpt lat="39.7267771" lon="20.6101866"><ele>223.0</ele><time>2026-05-03T06:20:36.748Z</time></trkpt><trkpt lat="39.7269297" lon="20.6101646"><ele>223.66666666666666</ele><time>2026-05-03T06:20:37.745Z</time></trkpt><trkpt lat="39.7270894" lon="20.6101565"><ele>224.33333333333331</ele><time>2026-05-03T06:20:38.748Z</time></trkpt><trkpt lat="39.7272516" lon="20.6101488"><ele>225.0</ele><time>2026-05-03T06:20:39.748Z</time></trkpt><trkpt lat="39.7274142" lon="20.6101489"><ele>225.0</ele><time>2026-05-03T06:20:40.747Z</time></trkpt><trkpt lat="39.7275786" lon="20.6101321"><ele>225.0</ele><time>2026-05-03T06:20:41.746Z</time></trkpt><trkpt lat="39.7277414" lon="20.6100997"><ele>225.0</ele><time>2026-05-03T06:20:42.747Z</time></trkpt><trkpt lat="39.7278974" lon="20.6100457"><ele>222.33333333333331</ele><time>2026-05-03T06:20:43.746Z</time></trkpt><trkpt lat="39.7280473" lon="20.6099631"><ele>219.66666666666666</ele><time>2026-05-03T06:20:44.748Z</time></trkpt><trkpt lat="39.7281862" lon="20.6098527"><ele>217.0</ele><time>2026-05-03T06:20:45.746Z</time></trkpt><trkpt lat="39.7283221" lon="20.6097239"><ele>217.0</ele><time>2026-05-03T06:20:46.748Z</time></trkpt><trkpt lat="39.7284501" lon="20.6095818"><ele>217.0</ele><time>2026-05-03T06:20:47.747Z</time></trkpt><trkpt lat="39.7285779" lon="20.6094292"><ele>217.0</ele><time>2026-05-03T06:20:48.745Z</time></trkpt><trkpt lat="39.7286924" lon="20.6092947"><ele>219.33333333333331</ele><time>2026-05-03T06:20:49.746Z</time></trkpt><trkpt lat="39.728827" lon="20.6091587"><ele>221.66666666666669</ele><time>2026-05-03T06:20:50.746Z</time></trkpt><trkpt lat="39.7289681" lon="20.6090435"><ele>224.0</ele><time>2026-05-03T06:20:51.749Z</time></trkpt><trkpt lat="39.7291172" lon="20.6089306"><ele>224.0</ele><time>2026-05-03T06:20:52.748Z</time></trkpt><trkpt lat="39.7292731" lon="20.6088457"><ele>224.0</ele><time>2026-05-03T06:20:53.745Z</time></trkpt><trkpt lat="39.7294389" lon="20.6087731"><ele>224.0</ele><time>2026-05-03T06:20:54.747Z</time></trkpt><trkpt lat="39.7296081" lon="20.6087215"><ele>224.0</ele><time>2026-05-03T06:20:55.746Z</time></trkpt><trkpt lat="39.7297793" lon="20.6086834"><ele>224.0</ele><time>2026-05-03T06:20:56.749Z</time></trkpt><trkpt lat="39.729949" lon="20.6086283"><ele>224.0</ele><time>2026-05-03T06:20:57.747Z</time></trkpt><trkpt lat="39.7301207" lon="20.6085505"><ele>226.33333333333334</ele><time>2026-05-03T06:20:58.748Z</time></trkpt><trkpt lat="39.7302939" lon="20.6084544"><ele>228.66666666666669</ele><time>2026-05-03T06:20:59.747Z</time></trkpt><trkpt lat="39.7304597" lon="20.6083402"><ele>231.0</ele><time>2026-05-03T06:21:00.745Z</time></trkpt><trkpt lat="39.7306137" lon="20.6082209"><ele>231.0</ele><time>2026-05-03T06:21:01.747Z</time></trkpt><trkpt lat="39.7307548" lon="20.6081066"><ele>231.0</ele><time>2026-05-03T06:21:02.746Z</time></trkpt><trkpt lat="39.7308853" lon="20.607995"><ele>231.0</ele><time>2026-05-03T06:21:03.748Z</time></trkpt><trkpt lat="39.7310178" lon="20.6079142"><ele>232.0</ele><time>2026-05-03T06:21:04.745Z</time></trkpt><trkpt lat="39.7311511" lon="20.6078478"><ele>233.0</ele><time>2026-05-03T06:21:05.748Z</time></trkpt><trkpt lat="39.7312992" lon="20.6078126"><ele>234.0</ele><time>2026-05-03T06:21:06.749Z</time></trkpt><trkpt lat="39.7314591" lon="20.6077881"><ele>237.0</ele><time>2026-05-03T06:21:07.746Z</time></trkpt><trkpt lat="39.7316314" lon="20.6077734"><ele>240.0</ele><time>2026-05-03T06:21:08.747Z</time></trkpt><trkpt lat="39.7318032" lon="20.6077446"><ele>243.0</ele><time>2026-05-03T06:21:09.75Z</time></trkpt><trkpt lat="39.7319796" lon="20.6077261"><ele>243.0</ele><time>2026-05-03T06:21:10.745Z</time></trkpt><trkpt lat="39.7321512" lon="20.6076987"><ele>243.0</ele><time>2026-05-03T06:21:11.747Z</time></trkpt><trkpt lat="39.732318" lon="20.6076619"><ele>243.0</ele><time>2026-05-03T06:21:12.749Z</time></trkpt><trkpt lat="39.7324766" lon="20.6076022"><ele>243.0</ele><time>2026-05-03T06:21:13.747Z</time></trkpt><trkpt lat="39.73263" lon="20.6075114"><ele>243.0</ele><time>2026-05-03T06:21:14.749Z</time></trkpt><trkpt lat="39.7327801" lon="20.6073965"><ele>243.0</ele><time>2026-05-03T06:21:15.749Z</time></trkpt><trkpt lat="39.7329241" lon="20.6072631"><ele>241.66666666666669</ele><time>2026-05-03T06:21:16.75Z</time></trkpt><trkpt lat="39.7330674" lon="20.6071223"><ele>240.33333333333334</ele><time>2026-05-03T06:21:17.749Z</time></trkpt><trkpt lat="39.7332078" lon="20.6069859"><ele>239.0</ele><time>2026-05-03T06:21:18.745Z</time></trkpt><trkpt lat="39.733343" lon="20.6068482"><ele>242.33333333333334</ele><time>2026-05-03T06:21:19.747Z</time></trkpt><trkpt lat="39.7334712" lon="20.6067215"><ele>245.66666666666669</ele><time>2026-05-03T06:21:20.747Z</time></trkpt><trkpt lat="39.7335962" lon="20.6066013"><ele>249.0</ele><time>2026-05-03T06:21:21.749Z</time></trkpt><trkpt lat="39.7337173" lon="20.6065098"><ele>250.0</ele><time>2026-05-03T06:21:22.746Z</time></trkpt><trkpt lat="39.7338416" lon="20.6064488"><ele>251.0</ele><time>2026-05-03T06:21:23.746Z</time></trkpt><trkpt lat="39.7339776" lon="20.6064171"><ele>252.0</ele><time>2026-05-03T06:21:24.747Z</time></trkpt><trkpt lat="39.7341256" lon="20.6064126"><ele>253.0</ele><time>2026-05-03T06:21:25.748Z</time></trkpt><trkpt lat="39.7342714" lon="20.6064405"><ele>253.25</ele><time>2026-05-03T06:21:26.746Z</time></trkpt><trkpt lat="39.7344029" lon="20.6064875"><ele>253.5</ele><time>2026-05-03T06:21:27.744Z</time></trkpt><trkpt lat="39.7345196" lon="20.6065655"><ele>253.75</ele><time>2026-05-03T06:21:28.748Z</time></trkpt><trkpt lat="39.7346304" lon="20.6066636"><ele>254.0</ele><time>2026-05-03T06:21:29.747Z</time></trkpt><trkpt lat="39.7347056" lon="20.6067814"><ele>254.0</ele><time>2026-05-03T06:21:30.748Z</time></trkpt><trkpt lat="39.7347558" lon="20.6069176"><ele>254.0</ele><time>2026-05-03T06:21:31.749Z</time></trkpt><trkpt lat="39.7347849" lon="20.6070629"><ele>254.0</ele><time>2026-05-03T06:21:32.748Z</time></trkpt><trkpt lat="39.7348012" lon="20.6072053"><ele>254.0</ele><time>2026-05-03T06:21:33.747Z</time></trkpt><trkpt lat="39.7347883" lon="20.6073542"><ele>254.25</ele><time>2026-05-03T06:21:34.748Z</time></trkpt><trkpt lat="39.7347521" lon="20.6075054"><ele>254.5</ele><time>2026-05-03T06:21:35.748Z</time></trkpt><trkpt lat="39.7346877" lon="20.607651"><ele>254.75</ele><time>2026-05-03T06:21:36.747Z</time></trkpt><trkpt lat="39.7345984" lon="20.6077911"><ele>255.0</ele><time>2026-05-03T06:21:37.748Z</time></trkpt><trkpt lat="39.7345002" lon="20.6079026"><ele>258.5</ele><time>2026-05-03T06:21:38.746Z</time></trkpt><trkpt lat="39.7343862" lon="20.6079882"><ele>262.0</ele><time>2026-05-03T06:21:39.748Z</time></trkpt><trkpt lat="39.7342553" lon="20.6080613"><ele>265.5</ele><time>2026-05-03T06:21:40.745Z</time></trkpt><trkpt lat="39.734113" lon="20.6081209"><ele>269.0</ele><time>2026-05-03T06:21:41.744Z</time></trkpt><trkpt lat="39.7339602" lon="20.608177"><ele>269.0</ele><time>2026-05-03T06:21:42.746Z</time></trkpt><trkpt lat="39.7338115" lon="20.6082225"><ele>269.0</ele><time>2026-05-03T06:21:43.746Z</time></trkpt><trkpt lat="39.7336675" lon="20.6082629"><ele>269.0</ele><time>2026-05-03T06:21:44.747Z</time></trkpt><trkpt lat="39.7335367" lon="20.6083181"><ele>269.0</ele><time>2026-05-03T06:21:45.747Z</time></trkpt><trkpt lat="39.7334148" lon="20.6083892"><ele>268.25</ele><time>2026-05-03T06:21:46.746Z</time></trkpt><trkpt lat="39.7333108" lon="20.6084731"><ele>267.5</ele><time>2026-05-03T06:21:47.746Z</time></trkpt><trkpt lat="39.733229" lon="20.6085847"><ele>266.75</ele><time>2026-05-03T06:21:48.746Z</time></trkpt><trkpt lat="39.7331823" lon="20.6087177"><ele>266.0</ele><time>2026-05-03T06:21:49.746Z</time></trkpt><trkpt lat="39.733162" lon="20.6088738"><ele>266.0</ele><time>2026-05-03T06:21:50.746Z</time></trkpt><trkpt lat="39.7331744" lon="20.609029"><ele>266.0</ele><time>2026-05-03T06:21:51.746Z</time></trkpt><trkpt lat="39.7331949" lon="20.6091975"><ele>266.0</ele><time>2026-05-03T06:21:52.748Z</time></trkpt><trkpt lat="39.7332112" lon="20.6093524"><ele>266.0</ele><time>2026-05-03T06:21:53.746Z</time></trkpt><trkpt lat="39.7332069" lon="20.6095005"><ele>268.0</ele><time>2026-05-03T06:21:54.747Z</time></trkpt><trkpt lat="39.733184" lon="20.6096434"><ele>270.0</ele><time>2026-05-03T06:21:55.746Z</time></trkpt><trkpt lat="39.7331313" lon="20.6097757"><ele>272.0</ele><time>2026-05-03T06:21:56.746Z</time></trkpt><trkpt lat="39.7330581" lon="20.6098841"><ele>274.0</ele><time>2026-05-03T06:21:57.746Z</time></trkpt><trkpt lat="39.7329546" lon="20.6099738"><ele>274.0</ele><time>2026-05-03T06:21:58.745Z</time></trkpt><trkpt lat="39.7328316" lon="20.6100291"><ele>274.0</ele><time>2026-05-03T06:21:59.744Z</time></trkpt><trkpt lat="39.7326918" lon="20.6100577"><ele>274.0</ele><time>2026-05-03T06:22:00.748Z</time></trkpt><trkpt lat="39.7325387" lon="20.6100719"><ele>274.0</ele><time>2026-05-03T06:22:01.748Z</time></trkpt><trkpt lat="39.7323719" lon="20.6100881"><ele>271.66666666666663</ele><time>2026-05-03T06:22:02.747Z</time></trkpt><trkpt lat="39.732201" lon="20.6101011"><ele>269.3333333333333</ele><time>2026-05-03T06:22:03.747Z</time></trkpt><trkpt lat="39.7320326" lon="20.610115"><ele>267.0</ele><time>2026-05-03T06:22:04.746Z</time></trkpt><trkpt lat="39.7318584" lon="20.6101289"><ele>266.5</ele><time>2026-05-03T06:22:05.746Z</time></trkpt><trkpt lat="39.7316929" lon="20.6101368"><ele>266.0</ele><time>2026-05-03T06:22:06.746Z</time></trkpt><trkpt lat="39.7315439" lon="20.6101525"><ele>265.5</ele><time>2026-05-03T06:22:07.747Z</time></trkpt><trkpt lat="39.731424" lon="20.610177"><ele>265.0</ele><time>2026-05-03T06:22:08.748Z</time></trkpt><trkpt lat="39.7313186" lon="20.6102419"><ele>266.0</ele><time>2026-05-03T06:22:09.746Z</time></trkpt><trkpt lat="39.7312256" lon="20.6103466"><ele>267.0</ele><time>2026-05-03T06:22:10.747Z</time></trkpt><trkpt lat="39.731143" lon="20.6104629"><ele>268.0</ele><time>2026-05-03T06:22:11.747Z</time></trkpt><trkpt lat="39.7310712" lon="20.6106113"><ele>269.0</ele><time>2026-05-03T06:22:12.747Z</time></trkpt><trkpt lat="39.7310011" lon="20.6107517"><ele>269.0</ele><time>2026-05-03T06:22:13.746Z</time></trkpt><trkpt lat="39.7309291" lon="20.610871"><ele>269.0</ele><time>2026-05-03T06:22:14.745Z</time></trkpt><trkpt lat="39.730852" lon="20.6109751"><ele>269.0</ele><time>2026-05-03T06:22:15.747Z</time></trkpt><trkpt lat="39.730782" lon="20.6110903"><ele>269.0</ele><time>2026-05-03T06:22:16.744Z</time></trkpt><trkpt lat="39.7307331" lon="20.611212"><ele>269.0</ele><time>2026-05-03T06:22:17.746Z</time></trkpt><trkpt lat="39.7307154" lon="20.6113437"><ele>269.75</ele><time>2026-05-03T06:22:18.747Z</time></trkpt><trkpt lat="39.7307262" lon="20.6114758"><ele>270.5</ele><time>2026-05-03T06:22:19.745Z</time></trkpt><trkpt lat="39.7307789" lon="20.6116163"><ele>271.25</ele><time>2026-05-03T06:22:20.748Z</time></trkpt><trkpt lat="39.7308508" lon="20.6117599"><ele>272.0</ele><time>2026-05-03T06:22:21.745Z</time></trkpt><trkpt lat="39.7309281" lon="20.6119036"><ele>270.6666666666667</ele><time>2026-05-03T06:22:22.747Z</time></trkpt><trkpt lat="39.7310043" lon="20.6120465"><ele>269.3333333333333</ele><time>2026-05-03T06:22:23.743Z</time></trkpt><trkpt lat="39.7311622" lon="20.6121677"><ele>268.0</ele><time>2026-05-03T06:22:24.746Z</time></trkpt><trkpt lat="39.7312965" lon="20.6122781"><ele>271.3333333333333</ele><time>2026-05-03T06:22:25.747Z</time></trkpt><trkpt lat="39.7314416" lon="20.6123726"><ele>274.6666666666667</ele><time>2026-05-03T06:22:26.746Z</time></trkpt><trkpt lat="39.7315796" lon="20.6124848"><ele>278.0</ele><time>2026-05-03T06:22:27.746Z</time></trkpt><trkpt lat="39.7317146" lon="20.6125886"><ele>278.0</ele><time>2026-05-03T06:22:28.75Z</time></trkpt><trkpt lat="39.7318435" lon="20.6126977"><ele>278.0</ele><time>2026-05-03T06:22:29.745Z</time></trkpt><trkpt lat="39.731965" lon="20.6128187"><ele>278.0</ele><time>2026-05-03T06:22:30.746Z</time></trkpt><trkpt lat="39.7320759" lon="20.6129421"><ele>279.5</ele><time>2026-05-03T06:22:31.745Z</time></trkpt><trkpt lat="39.7321714" lon="20.613068"><ele>281.0</ele><time>2026-05-03T06:22:32.747Z</time></trkpt><trkpt lat="39.7322494" lon="20.6132106"><ele>282.5</ele><time>2026-05-03T06:22:33.747Z</time></trkpt><trkpt lat="39.7323238" lon="20.6133589"><ele>284.0</ele><time>2026-05-03T06:22:34.747Z</time></trkpt><trkpt lat="39.7323824" lon="20.6135199"><ele>284.75</ele><time>2026-05-03T06:22:35.746Z</time></trkpt><trkpt lat="39.732425" lon="20.6136962"><ele>285.5</ele><time>2026-05-03T06:22:36.748Z</time></trkpt><trkpt lat="39.7324538" lon="20.613868"><ele>286.25</ele><time>2026-05-03T06:22:37.748Z</time></trkpt><trkpt lat="39.732473" lon="20.6140428"><ele>287.0</ele><time>2026-05-03T06:22:38.747Z</time></trkpt><trkpt lat="39.7324703" lon="20.6142284"><ele>287.0</ele><time>2026-05-03T06:22:39.745Z</time></trkpt><trkpt lat="39.7324496" lon="20.6144181"><ele>287.0</ele><time>2026-05-03T06:22:40.748Z</time></trkpt><trkpt lat="39.7324127" lon="20.6146079"><ele>287.0</ele><time>2026-05-03T06:22:41.748Z</time></trkpt><trkpt lat="39.7323583" lon="20.6147892"><ele>287.0</ele><time>2026-05-03T06:22:42.749Z</time></trkpt><trkpt lat="39.7322652" lon="20.614975"><ele>290.33333333333337</ele><time>2026-05-03T06:22:43.747Z</time></trkpt><trkpt lat="39.7321719" lon="20.6151601"><ele>293.6666666666667</ele><time>2026-05-03T06:22:44.748Z</time></trkpt><trkpt lat="39.7320582" lon="20.6153511"><ele>297.0</ele><time>2026-05-03T06:22:45.746Z</time></trkpt><trkpt lat="39.7319492" lon="20.6155367"><ele>294.6666666666667</ele><time>2026-05-03T06:22:46.747Z</time></trkpt><trkpt lat="39.7318321" lon="20.6157151"><ele>292.33333333333337</ele><time>2026-05-03T06:22:47.749Z</time></trkpt><trkpt lat="39.7317166" lon="20.6158832"><ele>290.0</ele><time>2026-05-03T06:22:48.75Z</time></trkpt><trkpt lat="39.7316182" lon="20.6160552"><ele>297.0</ele><time>2026-05-03T06:22:49.747Z</time></trkpt><trkpt lat="39.7315312" lon="20.6162353"><ele>304.0</ele><time>2026-05-03T06:22:50.746Z</time></trkpt><trkpt lat="39.73146" lon="20.6164214"><ele>311.0</ele><time>2026-05-03T06:22:51.749Z</time></trkpt><trkpt lat="39.7314028" lon="20.6165955"><ele>311.0</ele><time>2026-05-03T06:22:52.746Z</time></trkpt><trkpt lat="39.7313397" lon="20.6167594"><ele>311.0</ele><time>2026-05-03T06:22:53.746Z</time></trkpt><trkpt lat="39.7312717" lon="20.6168869"><ele>311.0</ele><time>2026-05-03T06:22:54.746Z</time></trkpt><trkpt lat="39.7311807" lon="20.6169807"><ele>311.0</ele><time>2026-05-03T06:22:55.748Z</time></trkpt><trkpt lat="39.7310779" lon="20.6170455"><ele>309.75</ele><time>2026-05-03T06:22:56.749Z</time></trkpt><trkpt lat="39.7309722" lon="20.6171105"><ele>308.5</ele><time>2026-05-03T06:22:57.747Z</time></trkpt><trkpt lat="39.7308715" lon="20.6172098"><ele>307.25</ele><time>2026-05-03T06:22:58.747Z</time></trkpt><trkpt lat="39.7307836" lon="20.6173326"><ele>306.0</ele><time>2026-05-03T06:22:59.747Z</time></trkpt><trkpt lat="39.7307154" lon="20.6174763"><ele>306.0</ele><time>2026-05-03T06:23:00.747Z</time></trkpt><trkpt lat="39.7306516" lon="20.6176308"><ele>306.0</ele><time>2026-05-03T06:23:01.748Z</time></trkpt><trkpt lat="39.7305976" lon="20.6178069"><ele>306.0</ele><time>2026-05-03T06:23:02.748Z</time></trkpt><trkpt lat="39.7305664" lon="20.6179904"><ele>306.0</ele><time>2026-05-03T06:23:03.746Z</time></trkpt><trkpt lat="39.7305523" lon="20.618174"><ele>306.75</ele><time>2026-05-03T06:23:04.746Z</time></trkpt><trkpt lat="39.7305636" lon="20.618359"><ele>307.5</ele><time>2026-05-03T06:23:05.749Z</time></trkpt><trkpt lat="39.7305979" lon="20.6185373"><ele>308.25</ele><time>2026-05-03T06:23:06.748Z</time></trkpt><trkpt lat="39.7306518" lon="20.618706"><ele>309.0</ele><time>2026-05-03T06:23:07.748Z</time></trkpt><trkpt lat="39.7307258" lon="20.6188653"><ele>309.0</ele><time>2026-05-03T06:23:08.747Z</time></trkpt><trkpt lat="39.7308103" lon="20.6190026"><ele>309.0</ele><time>2026-05-03T06:23:09.75Z</time></trkpt><trkpt lat="39.7309112" lon="20.6191219"><ele>309.0</ele><time>2026-05-03T06:23:10.75Z</time></trkpt><trkpt lat="39.7310307" lon="20.6192104"><ele>309.0</ele><time>2026-05-03T06:23:11.748Z</time></trkpt><trkpt lat="39.7311652" lon="20.6192829"><ele>314.3333333333333</ele><time>2026-05-03T06:23:12.748Z</time></trkpt><trkpt lat="39.7313103" lon="20.6193305"><ele>319.66666666666663</ele><time>2026-05-03T06:23:13.748Z</time></trkpt><trkpt lat="39.7314737" lon="20.6193545"><ele>325.0</ele><time>2026-05-03T06:23:14.748Z</time></trkpt><trkpt lat="39.7316637" lon="20.619368"><ele>325.0</ele><time>2026-05-03T06:23:15.748Z</time></trkpt><trkpt lat="39.7318587" lon="20.6193695"><ele>325.0</ele><time>2026-05-03T06:23:16.749Z</time></trkpt><trkpt lat="39.7320522" lon="20.6193679"><ele>325.0</ele><time>2026-05-03T06:23:17.746Z</time></trkpt><trkpt lat="39.7322536" lon="20.6193585"><ele>326.0</ele><time>2026-05-03T06:23:18.748Z</time></trkpt><trkpt lat="39.7324446" lon="20.619348"><ele>327.0</ele><time>2026-05-03T06:23:19.746Z</time></trkpt><trkpt lat="39.7326216" lon="20.6193348"><ele>328.0</ele><time>2026-05-03T06:23:20.748Z</time></trkpt><trkpt lat="39.7327864" lon="20.6193117"><ele>328.0</ele><time>2026-05-03T06:23:21.747Z</time></trkpt><trkpt lat="39.7329532" lon="20.6192806"><ele>328.0</ele><time>2026-05-03T06:23:22.748Z</time></trkpt><trkpt lat="39.7331128" lon="20.6192093"><ele>328.0</ele><time>2026-05-03T06:23:23.747Z</time></trkpt><trkpt lat="39.733272" lon="20.6191376"><ele>328.0</ele><time>2026-05-03T06:23:24.749Z</time></trkpt><trkpt lat="39.7334188" lon="20.619044"><ele>328.0</ele><time>2026-05-03T06:23:25.747Z</time></trkpt><trkpt lat="39.733575" lon="20.6189321"><ele>328.0</ele><time>2026-05-03T06:23:26.746Z</time></trkpt><trkpt lat="39.733733" lon="20.6187984"><ele>327.66666666666663</ele><time>2026-05-03T06:23:27.746Z</time></trkpt><trkpt lat="39.7338899" lon="20.6186501"><ele>327.3333333333333</ele><time>2026-05-03T06:23:28.743Z</time></trkpt><trkpt lat="39.73405" lon="20.6184991"><ele>327.0</ele><time>2026-05-03T06:23:29.746Z</time></trkpt><trkpt lat="39.7342103" lon="20.6183629"><ele>327.0</ele><time>2026-05-03T06:23:30.748Z</time></trkpt><trkpt lat="39.7343793" lon="20.6182071"><ele>327.0</ele><time>2026-05-03T06:23:31.747Z</time></trkpt><trkpt lat="39.7345498" lon="20.6180632"><ele>327.0</ele><time>2026-05-03T06:23:32.749Z</time></trkpt><trkpt lat="39.7347254" lon="20.6179281"><ele>326.0</ele><time>2026-05-03T06:23:33.749Z</time></trkpt><trkpt lat="39.7348985" lon="20.6177851"><ele>325.0</ele><time>2026-05-03T06:23:34.748Z</time></trkpt><trkpt lat="39.735074" lon="20.6176417"><ele>324.0</ele><time>2026-05-03T06:23:35.748Z</time></trkpt><trkpt lat="39.7352467" lon="20.6175033"><ele>324.0</ele><time>2026-05-03T06:23:36.746Z</time></trkpt><trkpt lat="39.7354198" lon="20.6173641"><ele>324.0</ele><time>2026-05-03T06:23:37.747Z</time></trkpt><trkpt lat="39.7355904" lon="20.6172099"><ele>324.0</ele><time>2026-05-03T06:23:38.748Z</time></trkpt><trkpt lat="39.7357629" lon="20.617062"><ele>327.0</ele><time>2026-05-03T06:23:39.749Z</time></trkpt><trkpt lat="39.735934" lon="20.6169202"><ele>330.0</ele><time>2026-05-03T06:23:40.748Z</time></trkpt><trkpt lat="39.7360956" lon="20.6167885"><ele>333.0</ele><time>2026-05-03T06:23:41.749Z</time></trkpt><trkpt lat="39.7362461" lon="20.6166508"><ele>333.0</ele><time>2026-05-03T06:23:42.746Z</time></trkpt><trkpt lat="39.7363773" lon="20.6165101"><ele>333.0</ele><time>2026-05-03T06:23:43.75Z</time></trkpt><trkpt lat="39.7364923" lon="20.6163609"><ele>333.0</ele><time>2026-05-03T06:23:44.75Z</time></trkpt><trkpt lat="39.7365869" lon="20.6162076"><ele>336.3333333333333</ele><time>2026-05-03T06:23:45.749Z</time></trkpt><trkpt lat="39.7366684" lon="20.6160272"><ele>339.66666666666663</ele><time>2026-05-03T06:23:46.747Z</time></trkpt><trkpt lat="39.7367297" lon="20.6158426"><ele>343.0</ele><time>2026-05-03T06:23:47.745Z</time></trkpt><trkpt lat="39.7367761" lon="20.6156402"><ele>343.0</ele><time>2026-05-03T06:23:48.747Z</time></trkpt><trkpt lat="39.7368095" lon="20.615419"><ele>343.0</ele><time>2026-05-03T06:23:49.749Z</time></trkpt><trkpt lat="39.7368248" lon="20.6151807"><ele>343.0</ele><time>2026-05-03T06:23:50.744Z</time></trkpt><trkpt lat="39.7368196" lon="20.6149312"><ele>343.66666666666663</ele><time>2026-05-03T06:23:51.747Z</time></trkpt><trkpt lat="39.7367953" lon="20.6146727"><ele>344.3333333333333</ele><time>2026-05-03T06:23:52.746Z</time></trkpt><trkpt lat="39.7367669" lon="20.6144137"><ele>345.0</ele><time>2026-05-03T06:23:53.746Z</time></trkpt><trkpt lat="39.7367386" lon="20.6141522"><ele>345.3333333333333</ele><time>2026-05-03T06:23:54.749Z</time></trkpt><trkpt lat="39.7367202" lon="20.6138993"><ele>345.66666666666663</ele><time>2026-05-03T06:23:55.747Z</time></trkpt><trkpt lat="39.7367055" lon="20.6136601"><ele>346.0</ele><time>2026-05-03T06:23:56.747Z</time></trkpt><trkpt lat="39.7367003" lon="20.6134165"><ele>346.0</ele><time>2026-05-03T06:23:57.749Z</time></trkpt><trkpt lat="39.7366976" lon="20.6131716"><ele>346.0</ele><time>2026-05-03T06:23:58.748Z</time></trkpt><trkpt lat="39.7367079" lon="20.612963"><ele>346.0</ele><time>2026-05-03T06:23:59.745Z</time></trkpt><trkpt lat="39.7367255" lon="20.6127502"><ele>345.0</ele><time>2026-05-03T06:24:00.747Z</time></trkpt><trkpt lat="39.7367386" lon="20.612551"><ele>344.0</ele><time>2026-05-03T06:24:01.744Z</time></trkpt><trkpt lat="39.7367885" lon="20.6123533"><ele>343.0</ele><time>2026-05-03T06:24:02.745Z</time></trkpt><trkpt lat="39.7368465" lon="20.6121633"><ele>342.66666666666663</ele><time>2026-05-03T06:24:03.749Z</time></trkpt><trkpt lat="39.7369248" lon="20.6119709"><ele>342.3333333333333</ele><time>2026-05-03T06:24:04.746Z</time></trkpt><trkpt lat="39.7370085" lon="20.6117789"><ele>342.0</ele><time>2026-05-03T06:24:05.75Z</time></trkpt><trkpt lat="39.7371085" lon="20.6116085"><ele>342.0</ele><time>2026-05-03T06:24:06.746Z</time></trkpt><trkpt lat="39.7372146" lon="20.6114394"><ele>342.0</ele><time>2026-05-03T06:24:07.746Z</time></trkpt><trkpt lat="39.7373341" lon="20.6112989"><ele>342.0</ele><time>2026-05-03T06:24:08.749Z</time></trkpt><trkpt lat="39.7374558" lon="20.6111665"><ele>341.3333333333333</ele><time>2026-05-03T06:24:09.75Z</time></trkpt><trkpt lat="39.737593" lon="20.6110464"><ele>340.66666666666663</ele><time>2026-05-03T06:24:10.748Z</time></trkpt><trkpt lat="39.7377293" lon="20.6109416"><ele>340.0</ele><time>2026-05-03T06:24:11.746Z</time></trkpt><trkpt lat="39.7378728" lon="20.6108366"><ele>339.3333333333333</ele><time>2026-05-03T06:24:12.748Z</time></trkpt><trkpt lat="39.738023" lon="20.6107456"><ele>338.6666666666667</ele><time>2026-05-03T06:24:13.744Z</time></trkpt><trkpt lat="39.7381767" lon="20.6106672"><ele>338.0</ele><time>2026-05-03T06:24:14.749Z</time></trkpt><trkpt lat="39.738333" lon="20.6105867"><ele>338.0</ele><time>2026-05-03T06:24:15.748Z</time></trkpt><trkpt lat="39.7384895" lon="20.6105097"><ele>338.0</ele><time>2026-05-03T06:24:16.743Z</time></trkpt><trkpt lat="39.7386526" lon="20.610423"><ele>338.0</ele><time>2026-05-03T06:24:17.748Z</time></trkpt><trkpt lat="39.7388071" lon="20.6103493"><ele>340.0</ele><time>2026-05-03T06:24:18.746Z</time></trkpt><trkpt lat="39.7389532" lon="20.6102652"><ele>342.0</ele><time>2026-05-03T06:24:19.746Z</time></trkpt><trkpt lat="39.7390953" lon="20.6101769"><ele>344.0</ele><time>2026-05-03T06:24:20.75Z</time></trkpt><trkpt lat="39.7392367" lon="20.6100741"><ele>344.0</ele><time>2026-05-03T06:24:21.746Z</time></trkpt><trkpt lat="39.7393733" lon="20.6099557"><ele>344.0</ele><time>2026-05-03T06:24:22.746Z</time></trkpt><trkpt lat="39.7395014" lon="20.6098214"><ele>344.0</ele><time>2026-05-03T06:24:23.749Z</time></trkpt><trkpt lat="39.7396254" lon="20.6096813"><ele>344.0</ele><time>2026-05-03T06:24:24.746Z</time></trkpt><trkpt lat="39.7397448" lon="20.609531"><ele>344.0</ele><time>2026-05-03T06:24:25.748Z</time></trkpt><trkpt lat="39.7398507" lon="20.6093776"><ele>344.0</ele><time>2026-05-03T06:24:26.748Z</time></trkpt><trkpt lat="39.7399396" lon="20.6092232"><ele>342.33333333333337</ele><time>2026-05-03T06:24:27.747Z</time></trkpt><trkpt lat="39.7400287" lon="20.609061"><ele>340.6666666666667</ele><time>2026-05-03T06:24:28.747Z</time></trkpt><trkpt lat="39.7401074" lon="20.6088921"><ele>339.0</ele><time>2026-05-03T06:24:29.747Z</time></trkpt><trkpt lat="39.7401822" lon="20.608706"><ele>334.3333333333333</ele><time>2026-05-03T06:24:30.748Z</time></trkpt><trkpt lat="39.7402533" lon="20.6085194"><ele>329.66666666666663</ele><time>2026-05-03T06:24:31.746Z</time></trkpt><trkpt lat="39.740319" lon="20.6083258"><ele>325.0</ele><time>2026-05-03T06:24:32.748Z</time></trkpt><trkpt lat="39.7403695" lon="20.6081147"><ele>325.0</ele><time>2026-05-03T06:24:33.745Z</time></trkpt><trkpt lat="39.7404154" lon="20.6079128"><ele>325.0</ele><time>2026-05-03T06:24:34.749Z</time></trkpt><trkpt lat="39.7404576" lon="20.6077024"><ele>325.0</ele><time>2026-05-03T06:24:35.747Z</time></trkpt><trkpt lat="39.7404984" lon="20.6074928"><ele>323.3333333333333</ele><time>2026-05-03T06:24:36.745Z</time></trkpt><trkpt lat="39.7405349" lon="20.607281"><ele>321.6666666666667</ele><time>2026-05-03T06:24:37.749Z</time></trkpt><trkpt lat="39.7405719" lon="20.6070619"><ele>320.0</ele><time>2026-05-03T06:24:38.745Z</time></trkpt><trkpt lat="39.7406069" lon="20.6068539"><ele>320.0</ele><time>2026-05-03T06:24:39.745Z</time></trkpt><trkpt lat="39.7406415" lon="20.6066317"><ele>320.0</ele><time>2026-05-03T06:24:40.746Z</time></trkpt><trkpt lat="39.7406821" lon="20.6064154"><ele>320.0</ele><time>2026-05-03T06:24:41.748Z</time></trkpt><trkpt lat="39.7407249" lon="20.6062016"><ele>322.33333333333337</ele><time>2026-05-03T06:24:42.747Z</time></trkpt><trkpt lat="39.7407665" lon="20.6060073"><ele>324.6666666666667</ele><time>2026-05-03T06:24:43.749Z</time></trkpt><trkpt lat="39.7408176" lon="20.6058139"><ele>327.0</ele><time>2026-05-03T06:24:44.745Z</time></trkpt><trkpt lat="39.7408728" lon="20.6056376"><ele>327.0</ele><time>2026-05-03T06:24:45.747Z</time></trkpt><trkpt lat="39.7409409" lon="20.6054746"><ele>327.0</ele><time>2026-05-03T06:24:46.744Z</time></trkpt><trkpt lat="39.7410182" lon="20.6053217"><ele>327.0</ele><time>2026-05-03T06:24:47.749Z</time></trkpt><trkpt lat="39.7411091" lon="20.6051857"><ele>327.0</ele><time>2026-05-03T06:24:48.747Z</time></trkpt><trkpt lat="39.7412142" lon="20.6050585"><ele>327.0</ele><time>2026-05-03T06:24:49.747Z</time></trkpt><trkpt lat="39.7413337" lon="20.6049454"><ele>327.0</ele><time>2026-05-03T06:24:50.747Z</time></trkpt><trkpt lat="39.7414661" lon="20.6048316"><ele>327.0</ele><time>2026-05-03T06:24:51.749Z</time></trkpt><trkpt lat="39.7416042" lon="20.6047333"><ele>327.0</ele><time>2026-05-03T06:24:52.746Z</time></trkpt><trkpt lat="39.7417495" lon="20.6046359"><ele>327.0</ele><time>2026-05-03T06:24:53.75Z</time></trkpt><trkpt lat="39.7418967" lon="20.6045361"><ele>327.0</ele><time>2026-05-03T06:24:54.747Z</time></trkpt><trkpt lat="39.7420464" lon="20.6044382"><ele>329.6666666666667</ele><time>2026-05-03T06:24:55.749Z</time></trkpt><trkpt lat="39.7421955" lon="20.6043305"><ele>332.33333333333337</ele><time>2026-05-03T06:24:56.747Z</time></trkpt><trkpt lat="39.7423382" lon="20.6042109"><ele>335.0</ele><time>2026-05-03T06:24:57.748Z</time></trkpt><trkpt lat="39.7424746" lon="20.6040804"><ele>335.0</ele><time>2026-05-03T06:24:58.75Z</time></trkpt><trkpt lat="39.7426041" lon="20.6039433"><ele>335.0</ele><time>2026-05-03T06:24:59.748Z</time></trkpt><trkpt lat="39.742721" lon="20.6037819"><ele>335.0</ele><time>2026-05-03T06:25:00.747Z</time></trkpt><trkpt lat="39.7428323" lon="20.6036171"><ele>335.33333333333337</ele><time>2026-05-03T06:25:01.746Z</time></trkpt><trkpt lat="39.7429385" lon="20.6034457"><ele>335.6666666666667</ele><time>2026-05-03T06:25:02.748Z</time></trkpt><trkpt lat="39.7430416" lon="20.6032635"><ele>336.0</ele><time>2026-05-03T06:25:03.745Z</time></trkpt><trkpt lat="39.7431441" lon="20.6030841"><ele>336.0</ele><time>2026-05-03T06:25:04.745Z</time></trkpt><trkpt lat="39.7432479" lon="20.6028997"><ele>336.0</ele><time>2026-05-03T06:25:05.748Z</time></trkpt><trkpt lat="39.7433532" lon="20.6027209"><ele>336.0</ele><time>2026-05-03T06:25:06.75Z</time></trkpt><trkpt lat="39.7434562" lon="20.6025428"><ele>332.0</ele><time>2026-05-03T06:25:07.747Z</time></trkpt><trkpt lat="39.7435593" lon="20.6023693"><ele>328.0</ele><time>2026-05-03T06:25:08.747Z</time></trkpt><trkpt lat="39.7436572" lon="20.6022126"><ele>324.0</ele><time>2026-05-03T06:25:09.747Z</time></trkpt><trkpt lat="39.7437529" lon="20.6020717"><ele>324.6666666666667</ele><time>2026-05-03T06:25:10.746Z</time></trkpt><trkpt lat="39.7438582" lon="20.6019351"><ele>325.33333333333337</ele><time>2026-05-03T06:25:11.745Z</time></trkpt><trkpt lat="39.7440867" lon="20.6017393"><ele>326.0</ele><time>2026-05-03T06:25:13.715Z</time></trkpt><trkpt lat="39.7443482" lon="20.6015967"><ele>327.75</ele><time>2026-05-03T06:25:15.736Z</time></trkpt><trkpt lat="39.7444845" lon="20.6015529"><ele>329.5</ele><time>2026-05-03T06:25:16.736Z</time></trkpt><trkpt lat="39.74463" lon="20.60152"><ele>331.25</ele><time>2026-05-03T06:25:17.737Z</time></trkpt><trkpt lat="39.7447793" lon="20.6015045"><ele>333.0</ele><time>2026-05-03T06:25:18.736Z</time></trkpt><trkpt lat="39.7449316" lon="20.6015027"><ele>333.0</ele><time>2026-05-03T06:25:19.737Z</time></trkpt><trkpt lat="39.7450847" lon="20.6015032"><ele>333.0</ele><time>2026-05-03T06:25:20.736Z</time></trkpt><trkpt lat="39.7452373" lon="20.6015061"><ele>333.0</ele><time>2026-05-03T06:25:21.737Z</time></trkpt><trkpt lat="39.7453921" lon="20.6015095"><ele>335.3333333333333</ele><time>2026-05-03T06:25:22.737Z</time></trkpt><trkpt lat="39.7455454" lon="20.6015097"><ele>337.66666666666663</ele><time>2026-05-03T06:25:23.736Z</time></trkpt><trkpt lat="39.7456974" lon="20.60151"><ele>340.0</ele><time>2026-05-03T06:25:24.737Z</time></trkpt><trkpt lat="39.7458459" lon="20.6014998"><ele>340.0</ele><time>2026-05-03T06:25:25.736Z</time></trkpt><trkpt lat="39.7459926" lon="20.6014651"><ele>340.0</ele><time>2026-05-03T06:25:26.737Z</time></trkpt><trkpt lat="39.7461332" lon="20.6014029"><ele>340.0</ele><time>2026-05-03T06:25:27.736Z</time></trkpt><trkpt lat="39.7462671" lon="20.6013157"><ele>340.0</ele><time>2026-05-03T06:25:28.737Z</time></trkpt><trkpt lat="39.7463927" lon="20.6012125"><ele>342.75</ele><time>2026-05-03T06:25:29.737Z</time></trkpt><trkpt lat="39.7465051" lon="20.6010828"><ele>345.5</ele><time>2026-05-03T06:25:30.736Z</time></trkpt><trkpt lat="39.7466008" lon="20.6009356"><ele>348.25</ele><time>2026-05-03T06:25:31.737Z</time></trkpt><trkpt lat="39.7466862" lon="20.6007815"><ele>351.0</ele><time>2026-05-03T06:25:32.736Z</time></trkpt><trkpt lat="39.7467594" lon="20.6006276"><ele>351.0</ele><time>2026-05-03T06:25:33.737Z</time></trkpt><trkpt lat="39.7468118" lon="20.6004796"><ele>351.0</ele><time>2026-05-03T06:25:34.736Z</time></trkpt><trkpt lat="39.7468325" lon="20.6003402"><ele>351.0</ele><time>2026-05-03T06:25:35.736Z</time></trkpt><trkpt lat="39.7468353" lon="20.6002043"><ele>351.0</ele><time>2026-05-03T06:25:36.736Z</time></trkpt><trkpt lat="39.7468376" lon="20.6000843"><ele>351.0</ele><time>2026-05-03T06:25:37.736Z</time></trkpt><trkpt lat="39.746869" lon="20.5999919"><ele>353.5</ele><time>2026-05-03T06:25:38.737Z</time></trkpt><trkpt lat="39.7469171" lon="20.5999234"><ele>356.0</ele><time>2026-05-03T06:25:39.737Z</time></trkpt><trkpt lat="39.746976" lon="20.5998912"><ele>358.5</ele><time>2026-05-03T06:25:40.737Z</time></trkpt><trkpt lat="39.7470426" lon="20.5999039"><ele>361.0</ele><time>2026-05-03T06:25:41.736Z</time></trkpt><trkpt lat="39.7471088" lon="20.5999399"><ele>363.5</ele><time>2026-05-03T06:25:42.737Z</time></trkpt><trkpt lat="39.7471766" lon="20.6000353"><ele>366.0</ele><time>2026-05-03T06:25:43.736Z</time></trkpt><trkpt lat="39.747237" lon="20.6001348"><ele>366.0</ele><time>2026-05-03T06:25:44.736Z</time></trkpt><trkpt lat="39.7472969" lon="20.6002328"><ele>366.0</ele><time>2026-05-03T06:25:45.737Z</time></trkpt><trkpt lat="39.7473632" lon="20.6003141"><ele>366.0</ele><time>2026-05-03T06:25:46.737Z</time></trkpt><trkpt lat="39.7474345" lon="20.6003779"><ele>366.0</ele><time>2026-05-03T06:25:47.737Z</time></trkpt><trkpt lat="39.7474977" lon="20.6004272"><ele>366.0</ele><time>2026-05-03T06:25:48.737Z</time></trkpt><trkpt lat="39.7475892" lon="20.6004658"><ele>366.0</ele><time>2026-05-03T06:25:50.736Z</time></trkpt><trkpt lat="39.7476436" lon="20.6004165"><ele>366.0</ele><time>2026-05-03T06:25:52.736Z</time></trkpt><trkpt lat="39.7476181" lon="20.6002832"><ele>366.0</ele><time>2026-05-03T06:25:54.737Z</time></trkpt><trkpt lat="39.7475596" lon="20.6002015"><ele>366.0</ele><time>2026-05-03T06:25:55.736Z</time></trkpt><trkpt lat="39.747494" lon="20.6001227"><ele>366.0</ele><time>2026-05-03T06:25:56.737Z</time></trkpt><trkpt lat="39.7474291" lon="20.6000322"><ele>366.0</ele><time>2026-05-03T06:25:57.737Z</time></trkpt><trkpt lat="39.7473839" lon="20.5999268"><ele>366.0</ele><time>2026-05-03T06:25:58.736Z</time></trkpt><trkpt lat="39.7473561" lon="20.5997989"><ele>366.0</ele><time>2026-05-03T06:25:59.737Z</time></trkpt><trkpt lat="39.7473292" lon="20.5996534"><ele>366.0</ele><time>2026-05-03T06:26:00.736Z</time></trkpt><trkpt lat="39.7473114" lon="20.5994876"><ele>366.0</ele><time>2026-05-03T06:26:01.737Z</time></trkpt><trkpt lat="39.7473053" lon="20.5993171"><ele>369.0</ele><time>2026-05-03T06:26:02.737Z</time></trkpt><trkpt lat="39.7473157" lon="20.5991369"><ele>372.0</ele><time>2026-05-03T06:26:03.737Z</time></trkpt><trkpt lat="39.7473342" lon="20.5989565"><ele>375.0</ele><time>2026-05-03T06:26:04.737Z</time></trkpt><trkpt lat="39.74735" lon="20.5987751"><ele>378.0</ele><time>2026-05-03T06:26:05.737Z</time></trkpt><trkpt lat="39.7473522" lon="20.5986039"><ele>380.75</ele><time>2026-05-03T06:26:06.737Z</time></trkpt><trkpt lat="39.747343" lon="20.5984461"><ele>383.5</ele><time>2026-05-03T06:26:07.736Z</time></trkpt><trkpt lat="39.7473178" lon="20.5983007"><ele>386.25</ele><time>2026-05-03T06:26:08.737Z</time></trkpt><trkpt lat="39.7472727" lon="20.5981546"><ele>389.0</ele><time>2026-05-03T06:26:09.737Z</time></trkpt><trkpt lat="39.7472063" lon="20.5980077"><ele>389.0</ele><time>2026-05-03T06:26:10.737Z</time></trkpt><trkpt lat="39.747127" lon="20.5978616"><ele>389.0</ele><time>2026-05-03T06:26:11.737Z</time></trkpt><trkpt lat="39.7470406" lon="20.5977144"><ele>389.0</ele><time>2026-05-03T06:26:12.737Z</time></trkpt><trkpt lat="39.7469584" lon="20.597569"><ele>389.0</ele><time>2026-05-03T06:26:13.736Z</time></trkpt><trkpt lat="39.7468835" lon="20.5974239"><ele>388.25</ele><time>2026-05-03T06:26:14.736Z</time></trkpt><trkpt lat="39.7468203" lon="20.597263"><ele>387.5</ele><time>2026-05-03T06:26:15.736Z</time></trkpt><trkpt lat="39.7467638" lon="20.5971066"><ele>386.75</ele><time>2026-05-03T06:26:16.737Z</time></trkpt><trkpt lat="39.7467221" lon="20.5969544"><ele>386.0</ele><time>2026-05-03T06:26:17.736Z</time></trkpt><trkpt lat="39.7467022" lon="20.5967952"><ele>386.75</ele><time>2026-05-03T06:26:18.736Z</time></trkpt><trkpt lat="39.7466972" lon="20.5966346"><ele>387.5</ele><time>2026-05-03T06:26:19.736Z</time></trkpt><trkpt lat="39.7467236" lon="20.5964618"><ele>388.25</ele><time>2026-05-03T06:26:20.737Z</time></trkpt><trkpt lat="39.7467743" lon="20.5962971"><ele>389.0</ele><time>2026-05-03T06:26:21.736Z</time></trkpt><trkpt lat="39.7468263" lon="20.5961576"><ele>391.79999999999995</ele><time>2026-05-03T06:26:22.736Z</time></trkpt><trkpt lat="39.7468878" lon="20.5960319"><ele>394.59999999999997</ele><time>2026-05-03T06:26:23.737Z</time></trkpt><trkpt lat="39.7469629" lon="20.5959305"><ele>397.4</ele><time>2026-05-03T06:26:24.736Z</time></trkpt><trkpt lat="39.7470481" lon="20.5958314"><ele>400.2</ele><time>2026-05-03T06:26:25.736Z</time></trkpt><trkpt lat="39.7471456" lon="20.5957644"><ele>403.0</ele><time>2026-05-03T06:26:26.736Z</time></trkpt><trkpt lat="39.7472448" lon="20.5957094"><ele>403.0</ele><time>2026-05-03T06:26:27.737Z</time></trkpt><trkpt lat="39.7473642" lon="20.595667"><ele>403.0</ele><time>2026-05-03T06:26:28.736Z</time></trkpt><trkpt lat="39.7474876" lon="20.5956414"><ele>403.0</ele><time>2026-05-03T06:26:29.736Z</time></trkpt><trkpt lat="39.7476286" lon="20.5956141"><ele>403.0</ele><time>2026-05-03T06:26:30.736Z</time></trkpt><trkpt lat="39.7477816" lon="20.5955778"><ele>404.33333333333337</ele><time>2026-05-03T06:26:31.737Z</time></trkpt><trkpt lat="39.7479428" lon="20.5955415"><ele>405.66666666666663</ele><time>2026-05-03T06:26:32.736Z</time></trkpt><trkpt lat="39.7481046" lon="20.5955021"><ele>407.0</ele><time>2026-05-03T06:26:33.736Z</time></trkpt><trkpt lat="39.7482625" lon="20.5954599"><ele>407.0</ele><time>2026-05-03T06:26:34.736Z</time></trkpt><trkpt lat="39.7484265" lon="20.5954165"><ele>407.0</ele><time>2026-05-03T06:26:35.737Z</time></trkpt><trkpt lat="39.7485957" lon="20.5953698"><ele>407.0</ele><time>2026-05-03T06:26:36.737Z</time></trkpt><trkpt lat="39.7487635" lon="20.5953268"><ele>405.0</ele><time>2026-05-03T06:26:37.736Z</time></trkpt><trkpt lat="39.7489326" lon="20.5952796"><ele>403.0</ele><time>2026-05-03T06:26:38.737Z</time></trkpt><trkpt lat="39.7491055" lon="20.5952393"><ele>401.0</ele><time>2026-05-03T06:26:39.737Z</time></trkpt><trkpt lat="39.7492769" lon="20.5952004"><ele>406.0</ele><time>2026-05-03T06:26:40.737Z</time></trkpt><trkpt lat="39.7494473" lon="20.5951397"><ele>411.0</ele><time>2026-05-03T06:26:41.737Z</time></trkpt><trkpt lat="39.7496118" lon="20.5950773"><ele>416.0</ele><time>2026-05-03T06:26:42.736Z</time></trkpt><trkpt lat="39.7497749" lon="20.5949932"><ele>416.0</ele><time>2026-05-03T06:26:43.736Z</time></trkpt><trkpt lat="39.7499361" lon="20.594893"><ele>416.0</ele><time>2026-05-03T06:26:44.736Z</time></trkpt><trkpt lat="39.7500847" lon="20.5947877"><ele>416.0</ele><time>2026-05-03T06:26:45.737Z</time></trkpt><trkpt lat="39.7502248" lon="20.5946876"><ele>415.0</ele><time>2026-05-03T06:26:46.737Z</time></trkpt><trkpt lat="39.7503511" lon="20.5945761"><ele>414.0</ele><time>2026-05-03T06:26:47.737Z</time></trkpt><trkpt lat="39.7504816" lon="20.5944704"><ele>413.0</ele><time>2026-05-03T06:26:48.737Z</time></trkpt><trkpt lat="39.7506083" lon="20.5943743"><ele>413.0</ele><time>2026-05-03T06:26:49.736Z</time></trkpt><trkpt lat="39.750749" lon="20.5942893"><ele>413.0</ele><time>2026-05-03T06:26:50.736Z</time></trkpt><trkpt lat="39.7508878" lon="20.5941993"><ele>413.0</ele><time>2026-05-03T06:26:51.736Z</time></trkpt><trkpt lat="39.7510216" lon="20.5940908"><ele>415.66666666666663</ele><time>2026-05-03T06:26:52.736Z</time></trkpt><trkpt lat="39.7511432" lon="20.593964"><ele>418.33333333333337</ele><time>2026-05-03T06:26:53.736Z</time></trkpt><trkpt lat="39.7512559" lon="20.5938261"><ele>421.0</ele><time>2026-05-03T06:26:54.736Z</time></trkpt><trkpt lat="39.7513523" lon="20.5936753"><ele>420.0</ele><time>2026-05-03T06:26:55.737Z</time></trkpt><trkpt lat="39.7514293" lon="20.5935115"><ele>419.0</ele><time>2026-05-03T06:26:56.736Z</time></trkpt><trkpt lat="39.7515053" lon="20.5933645"><ele>418.0</ele><time>2026-05-03T06:26:57.736Z</time></trkpt><trkpt lat="39.7515956" lon="20.5932518"><ele>417.0</ele><time>2026-05-03T06:26:58.737Z</time></trkpt><trkpt lat="39.7516985" lon="20.5931493"><ele>417.0</ele><time>2026-05-03T06:26:59.736Z</time></trkpt><trkpt lat="39.7518206" lon="20.5930797"><ele>417.0</ele><time>2026-05-03T06:27:00.736Z</time></trkpt><trkpt lat="39.7519513" lon="20.5930313"><ele>417.0</ele><time>2026-05-03T06:27:01.737Z</time></trkpt><trkpt lat="39.7520941" lon="20.5930161"><ele>417.0</ele><time>2026-05-03T06:27:02.736Z</time></trkpt><trkpt lat="39.7522343" lon="20.5930219"><ele>418.5</ele><time>2026-05-03T06:27:03.737Z</time></trkpt><trkpt lat="39.7523739" lon="20.5930499"><ele>420.0</ele><time>2026-05-03T06:27:04.736Z</time></trkpt><trkpt lat="39.7525006" lon="20.5930949"><ele>421.5</ele><time>2026-05-03T06:27:05.737Z</time></trkpt><trkpt lat="39.7526188" lon="20.5931524"><ele>423.0</ele><time>2026-05-03T06:27:06.737Z</time></trkpt><trkpt lat="39.7527283" lon="20.5932272"><ele>423.0</ele><time>2026-05-03T06:27:07.736Z</time></trkpt><trkpt lat="39.7528408" lon="20.5932964"><ele>423.0</ele><time>2026-05-03T06:27:08.737Z</time></trkpt><trkpt lat="39.7529538" lon="20.5933349"><ele>423.0</ele><time>2026-05-03T06:27:09.736Z</time></trkpt><trkpt lat="39.7530754" lon="20.5933713"><ele>423.0</ele><time>2026-05-03T06:27:10.736Z</time></trkpt><trkpt lat="39.7532036" lon="20.5934113"><ele>423.0</ele><time>2026-05-03T06:27:11.737Z</time></trkpt><trkpt lat="39.7533301" lon="20.593441"><ele>423.0</ele><time>2026-05-03T06:27:12.737Z</time></trkpt><trkpt lat="39.7534523" lon="20.5934542"><ele>423.0</ele><time>2026-05-03T06:27:13.737Z</time></trkpt><trkpt lat="39.7535734" lon="20.593435"><ele>423.0</ele><time>2026-05-03T06:27:14.736Z</time></trkpt><trkpt lat="39.7537026" lon="20.5933974"><ele>422.5</ele><time>2026-05-03T06:27:15.736Z</time></trkpt><trkpt lat="39.7538282" lon="20.5933504"><ele>422.0</ele><time>2026-05-03T06:27:16.736Z</time></trkpt><trkpt lat="39.7539533" lon="20.5933116"><ele>421.5</ele><time>2026-05-03T06:27:17.737Z</time></trkpt><trkpt lat="39.7540738" lon="20.5932904"><ele>421.0</ele><time>2026-05-03T06:27:18.737Z</time></trkpt><trkpt lat="39.754197" lon="20.5933026"><ele>421.0</ele><time>2026-05-03T06:27:19.736Z</time></trkpt><trkpt lat="39.754317" lon="20.5933403"><ele>421.0</ele><time>2026-05-03T06:27:20.737Z</time></trkpt><trkpt lat="39.7544419" lon="20.5933955"><ele>421.0</ele><time>2026-05-03T06:27:21.737Z</time></trkpt><trkpt lat="39.7545654" lon="20.5934527"><ele>421.0</ele><time>2026-05-03T06:27:22.736Z</time></trkpt><trkpt lat="39.754687" lon="20.5935151"><ele>421.5</ele><time>2026-05-03T06:27:23.737Z</time></trkpt><trkpt lat="39.7547923" lon="20.593577"><ele>422.0</ele><time>2026-05-03T06:27:24.736Z</time></trkpt><trkpt lat="39.7548922" lon="20.5936498"><ele>422.5</ele><time>2026-05-03T06:27:25.736Z</time></trkpt><trkpt lat="39.7549867" lon="20.5937537"><ele>423.0</ele><time>2026-05-03T06:27:26.737Z</time></trkpt><trkpt lat="39.7550575" lon="20.5938635"><ele>423.0</ele><time>2026-05-03T06:27:27.737Z</time></trkpt><trkpt lat="39.755121" lon="20.5939726"><ele>423.0</ele><time>2026-05-03T06:27:28.737Z</time></trkpt><trkpt lat="39.7551889" lon="20.5940787"><ele>423.0</ele><time>2026-05-03T06:27:29.736Z</time></trkpt><trkpt lat="39.7552807" lon="20.5941333"><ele>423.0</ele><time>2026-05-03T06:27:30.737Z</time></trkpt><trkpt lat="39.755379" lon="20.5941634"><ele>423.0</ele><time>2026-05-03T06:27:31.737Z</time></trkpt><trkpt lat="39.7554857" lon="20.5941704"><ele>421.0</ele><time>2026-05-03T06:27:32.737Z</time></trkpt><trkpt lat="39.7556017" lon="20.5941886"><ele>419.0</ele><time>2026-05-03T06:27:33.736Z</time></trkpt><trkpt lat="39.7557177" lon="20.5942085"><ele>417.0</ele><time>2026-05-03T06:27:34.736Z</time></trkpt><trkpt lat="39.7558478" lon="20.5942015"><ele>415.0</ele><time>2026-05-03T06:27:35.737Z</time></trkpt><trkpt lat="39.7559684" lon="20.5941974"><ele>414.4</ele><time>2026-05-03T06:27:36.736Z</time></trkpt><trkpt lat="39.7560881" lon="20.5942136"><ele>413.8</ele><time>2026-05-03T06:27:37.737Z</time></trkpt><trkpt lat="39.7561972" lon="20.5942391"><ele>413.20000000000005</ele><time>2026-05-03T06:27:38.736Z</time></trkpt><trkpt lat="39.7562917" lon="20.5942776"><ele>412.6</ele><time>2026-05-03T06:27:39.737Z</time></trkpt><trkpt lat="39.7563877" lon="20.5943139"><ele>412.0</ele><time>2026-05-03T06:27:40.737Z</time></trkpt><trkpt lat="39.7564707" lon="20.5943039"><ele>412.0</ele><time>2026-05-03T06:27:41.736Z</time></trkpt><trkpt lat="39.7565412" lon="20.5942562"><ele>412.0</ele><time>2026-05-03T06:27:42.736Z</time></trkpt><trkpt lat="39.7565877" lon="20.5941666"><ele>412.0</ele><time>2026-05-03T06:27:43.737Z</time></trkpt><trkpt lat="39.756647" lon="20.594075"><ele>412.0</ele><time>2026-05-03T06:27:44.737Z</time></trkpt><trkpt lat="39.7567219" lon="20.5939827"><ele>412.0</ele><time>2026-05-03T06:27:45.737Z</time></trkpt><trkpt lat="39.7568071" lon="20.5938903"><ele>413.5</ele><time>2026-05-03T06:27:46.737Z</time></trkpt><trkpt lat="39.7569123" lon="20.5937991"><ele>415.0</ele><time>2026-05-03T06:27:47.736Z</time></trkpt><trkpt lat="39.7570102" lon="20.5937114"><ele>416.5</ele><time>2026-05-03T06:27:48.737Z</time></trkpt><trkpt lat="39.7571138" lon="20.5936186"><ele>418.0</ele><time>2026-05-03T06:27:49.736Z</time></trkpt><trkpt lat="39.7572167" lon="20.5935387"><ele>411.75</ele><time>2026-05-03T06:27:50.737Z</time></trkpt><trkpt lat="39.757323" lon="20.5934703"><ele>405.5</ele><time>2026-05-03T06:27:51.737Z</time></trkpt><trkpt lat="39.7574409" lon="20.5934325"><ele>399.25</ele><time>2026-05-03T06:27:52.737Z</time></trkpt><trkpt lat="39.7575673" lon="20.5934253"><ele>393.0</ele><time>2026-05-03T06:27:53.737Z</time></trkpt><trkpt lat="39.7577072" lon="20.5934506"><ele>388.6666666666667</ele><time>2026-05-03T06:27:54.737Z</time></trkpt><trkpt lat="39.757852" lon="20.5934932"><ele>384.33333333333337</ele><time>2026-05-03T06:27:55.737Z</time></trkpt><trkpt lat="39.7580044" lon="20.5935416"><ele>380.0</ele><time>2026-05-03T06:27:56.737Z</time></trkpt><trkpt lat="39.7581636" lon="20.5935958"><ele>380.0</ele><time>2026-05-03T06:27:57.736Z</time></trkpt><trkpt lat="39.7583178" lon="20.5936552"><ele>380.0</ele><time>2026-05-03T06:27:58.737Z</time></trkpt><trkpt lat="39.7584648" lon="20.5937157"><ele>380.0</ele><time>2026-05-03T06:27:59.737Z</time></trkpt><trkpt lat="39.758606" lon="20.5937783"><ele>381.75</ele><time>2026-05-03T06:28:00.736Z</time></trkpt><trkpt lat="39.7587449" lon="20.593834"><ele>383.5</ele><time>2026-05-03T06:28:01.736Z</time></trkpt><trkpt lat="39.7588713" lon="20.5938967"><ele>385.25</ele><time>2026-05-03T06:28:02.736Z</time></trkpt><trkpt lat="39.7589991" lon="20.5939585"><ele>387.0</ele><time>2026-05-03T06:28:03.737Z</time></trkpt><trkpt lat="39.7591292" lon="20.5939786"><ele>387.0</ele><time>2026-05-03T06:28:04.737Z</time></trkpt><trkpt lat="39.7592504" lon="20.5939914"><ele>387.0</ele><time>2026-05-03T06:28:05.737Z</time></trkpt><trkpt lat="39.7593546" lon="20.5939914"><ele>387.0</ele><time>2026-05-03T06:28:06.737Z</time></trkpt><trkpt lat="39.7594382" lon="20.5939723"><ele>387.0</ele><time>2026-05-03T06:28:07.737Z</time></trkpt><trkpt lat="39.7594995" lon="20.5939424"><ele>387.0</ele><time>2026-05-03T06:28:08.737Z</time></trkpt><trkpt lat="39.7595484" lon="20.5938189"><ele>387.0</ele><time>2026-05-03T06:28:10.737Z</time></trkpt><trkpt lat="39.759447" lon="20.593729"><ele>387.0</ele><time>2026-05-03T06:28:12.737Z</time></trkpt><trkpt lat="39.759355" lon="20.5937127"><ele>387.0</ele><time>2026-05-03T06:28:13.736Z</time></trkpt><trkpt lat="39.7592575" lon="20.5937105"><ele>387.0</ele><time>2026-05-03T06:28:14.736Z</time></trkpt><trkpt lat="39.7591488" lon="20.5937001"><ele>387.0</ele><time>2026-05-03T06:28:15.737Z</time></trkpt><trkpt lat="39.7590522" lon="20.5936611"><ele>382.5</ele><time>2026-05-03T06:28:16.736Z</time></trkpt><trkpt lat="39.7589545" lon="20.5935786"><ele>378.0</ele><time>2026-05-03T06:28:17.736Z</time></trkpt><trkpt lat="39.7588608" lon="20.5934721"><ele>373.5</ele><time>2026-05-03T06:28:18.737Z</time></trkpt><trkpt lat="39.7587589" lon="20.5933635"><ele>369.0</ele><time>2026-05-03T06:28:19.737Z</time></trkpt><trkpt lat="39.7586447" lon="20.5932592"><ele>371.75</ele><time>2026-05-03T06:28:20.736Z</time></trkpt><trkpt lat="39.7585232" lon="20.5931684"><ele>374.5</ele><time>2026-05-03T06:28:21.736Z</time></trkpt><trkpt lat="39.7584085" lon="20.5930893"><ele>377.25</ele><time>2026-05-03T06:28:22.737Z</time></trkpt><trkpt lat="39.758282" lon="20.5930424"><ele>380.0</ele><time>2026-05-03T06:28:23.737Z</time></trkpt><trkpt lat="39.7581701" lon="20.593011"><ele>380.0</ele><time>2026-05-03T06:28:24.736Z</time></trkpt><trkpt lat="39.7580825" lon="20.5929714"><ele>380.0</ele><time>2026-05-03T06:28:25.737Z</time></trkpt><trkpt lat="39.7580071" lon="20.5929258"><ele>380.0</ele><time>2026-05-03T06:28:26.736Z</time></trkpt><trkpt lat="39.7579541" lon="20.5928713"><ele>380.0</ele><time>2026-05-03T06:28:27.736Z</time></trkpt><trkpt lat="39.7579305" lon="20.5927518"><ele>380.0</ele><time>2026-05-03T06:28:29.736Z</time></trkpt><trkpt lat="39.7580279" lon="20.5927111"><ele>380.0</ele><time>2026-05-03T06:28:31.737Z</time></trkpt><trkpt lat="39.7581289" lon="20.5927716"><ele>380.0</ele><time>2026-05-03T06:28:32.736Z</time></trkpt><trkpt lat="39.7582351" lon="20.5928203"><ele>380.0</ele><time>2026-05-03T06:28:33.737Z</time></trkpt><trkpt lat="39.7583468" lon="20.5928606"><ele>380.0</ele><time>2026-05-03T06:28:34.736Z</time></trkpt><trkpt lat="39.7584693" lon="20.5929127"><ele>380.0</ele><time>2026-05-03T06:28:35.737Z</time></trkpt><trkpt lat="39.7586052" lon="20.5929673"><ele>377.25</ele><time>2026-05-03T06:28:36.737Z</time></trkpt><trkpt lat="39.7587474" lon="20.5929953"><ele>374.5</ele><time>2026-05-03T06:28:37.736Z</time></trkpt><trkpt lat="39.7588854" lon="20.5930008"><ele>371.75</ele><time>2026-05-03T06:28:38.737Z</time></trkpt><trkpt lat="39.7590396" lon="20.5930111"><ele>369.0</ele><time>2026-05-03T06:28:39.736Z</time></trkpt><trkpt lat="39.7591961" lon="20.5930312"><ele>366.3333333333333</ele><time>2026-05-03T06:28:40.737Z</time></trkpt><trkpt lat="39.759378" lon="20.5930322"><ele>363.66666666666663</ele><time>2026-05-03T06:28:41.736Z</time></trkpt><trkpt lat="39.7595577" lon="20.5930103"><ele>361.0</ele><time>2026-05-03T06:28:42.737Z</time></trkpt><trkpt lat="39.7597277" lon="20.5929833"><ele>361.0</ele><time>2026-05-03T06:28:43.736Z</time></trkpt><trkpt lat="39.7598955" lon="20.5929633"><ele>361.0</ele><time>2026-05-03T06:28:44.736Z</time></trkpt><trkpt lat="39.7600469" lon="20.5929526"><ele>361.0</ele><time>2026-05-03T06:28:45.736Z</time></trkpt><trkpt lat="39.760174" lon="20.5929622"><ele>361.0</ele><time>2026-05-03T06:28:46.736Z</time></trkpt><trkpt lat="39.7602892" lon="20.5929879"><ele>363.0</ele><time>2026-05-03T06:28:47.736Z</time></trkpt><trkpt lat="39.7603735" lon="20.5930669"><ele>365.0</ele><time>2026-05-03T06:28:48.736Z</time></trkpt><trkpt lat="39.7604532" lon="20.59317"><ele>367.0</ele><time>2026-05-03T06:28:49.737Z</time></trkpt><trkpt lat="39.7605213" lon="20.5932922"><ele>369.0</ele><time>2026-05-03T06:28:50.737Z</time></trkpt><trkpt lat="39.7605828" lon="20.5934264"><ele>369.0</ele><time>2026-05-03T06:28:51.737Z</time></trkpt><trkpt lat="39.7606442" lon="20.5935716"><ele>369.0</ele><time>2026-05-03T06:28:52.737Z</time></trkpt><trkpt lat="39.7606934" lon="20.5937143"><ele>369.0</ele><time>2026-05-03T06:28:53.736Z</time></trkpt><trkpt lat="39.7607415" lon="20.5938817"><ele>369.0</ele><time>2026-05-03T06:28:54.737Z</time></trkpt><trkpt lat="39.7608004" lon="20.5940275"><ele>368.6</ele><time>2026-05-03T06:28:55.736Z</time></trkpt><trkpt lat="39.7608649" lon="20.5941629"><ele>368.2</ele><time>2026-05-03T06:28:56.737Z</time></trkpt><trkpt lat="39.7609376" lon="20.5942885"><ele>367.8</ele><time>2026-05-03T06:28:57.737Z</time></trkpt><trkpt lat="39.7610053" lon="20.5943498"><ele>367.40000000000003</ele><time>2026-05-03T06:28:58.737Z</time></trkpt><trkpt lat="39.7610912" lon="20.5943905"><ele>367.0</ele><time>2026-05-03T06:28:59.736Z</time></trkpt><trkpt lat="39.7611858" lon="20.5943982"><ele>368.75</ele><time>2026-05-03T06:29:00.737Z</time></trkpt><trkpt lat="39.7612956" lon="20.594362"><ele>370.5</ele><time>2026-05-03T06:29:01.737Z</time></trkpt><trkpt lat="39.7614114" lon="20.594296"><ele>372.25</ele><time>2026-05-03T06:29:02.737Z</time></trkpt><trkpt lat="39.7615322" lon="20.5942099"><ele>374.0</ele><time>2026-05-03T06:29:03.737Z</time></trkpt><trkpt lat="39.7616433" lon="20.5941314"><ele>374.0</ele><time>2026-05-03T06:29:04.737Z</time></trkpt><trkpt lat="39.7617358" lon="20.5940419"><ele>374.0</ele><time>2026-05-03T06:29:05.736Z</time></trkpt><trkpt lat="39.76181" lon="20.5939297"><ele>374.0</ele><time>2026-05-03T06:29:06.736Z</time></trkpt><trkpt lat="39.7618695" lon="20.5937918"><ele>374.0</ele><time>2026-05-03T06:29:07.737Z</time></trkpt><trkpt lat="39.7619129" lon="20.5936466"><ele>377.5</ele><time>2026-05-03T06:29:08.737Z</time></trkpt><trkpt lat="39.7619672" lon="20.593487"><ele>381.0</ele><time>2026-05-03T06:29:09.736Z</time></trkpt><trkpt lat="39.7620405" lon="20.5933181"><ele>384.5</ele><time>2026-05-03T06:29:10.737Z</time></trkpt><trkpt lat="39.7621252" lon="20.5931474"><ele>388.0</ele><time>2026-05-03T06:29:11.737Z</time></trkpt><trkpt lat="39.7622073" lon="20.5929852"><ele>386.5</ele><time>2026-05-03T06:29:12.736Z</time></trkpt><trkpt lat="39.7622843" lon="20.5928267"><ele>385.0</ele><time>2026-05-03T06:29:13.737Z</time></trkpt><trkpt lat="39.7623611" lon="20.592683"><ele>383.5</ele><time>2026-05-03T06:29:14.737Z</time></trkpt><trkpt lat="39.7624492" lon="20.5925643"><ele>382.0</ele><time>2026-05-03T06:29:15.737Z</time></trkpt><trkpt lat="39.7625455" lon="20.5924592"><ele>382.0</ele><time>2026-05-03T06:29:16.736Z</time></trkpt><trkpt lat="39.7626449" lon="20.5923638"><ele>382.0</ele><time>2026-05-03T06:29:17.737Z</time></trkpt><trkpt lat="39.7627457" lon="20.5922696"><ele>382.0</ele><time>2026-05-03T06:29:18.737Z</time></trkpt><trkpt lat="39.762824" lon="20.5921583"><ele>382.0</ele><time>2026-05-03T06:29:19.736Z</time></trkpt><trkpt lat="39.7628808" lon="20.5920316"><ele>380.6</ele><time>2026-05-03T06:29:20.737Z</time></trkpt><trkpt lat="39.7629182" lon="20.591899"><ele>379.20000000000005</ele><time>2026-05-03T06:29:21.737Z</time></trkpt><trkpt lat="39.7629276" lon="20.5917742"><ele>377.8</ele><time>2026-05-03T06:29:22.737Z</time></trkpt><trkpt lat="39.7629492" lon="20.5916595"><ele>376.4</ele><time>2026-05-03T06:29:23.737Z</time></trkpt><trkpt lat="39.762976" lon="20.5915525"><ele>375.0</ele><time>2026-05-03T06:29:24.736Z</time></trkpt><trkpt lat="39.7630395" lon="20.5914676"><ele>375.0</ele><time>2026-05-03T06:29:25.736Z</time></trkpt><trkpt lat="39.7631256" lon="20.5914096"><ele>375.0</ele><time>2026-05-03T06:29:26.736Z</time></trkpt><trkpt lat="39.7632112" lon="20.5913857"><ele>375.0</ele><time>2026-05-03T06:29:27.737Z</time></trkpt><trkpt lat="39.7633065" lon="20.5913837"><ele>375.0</ele><time>2026-05-03T06:29:28.736Z</time></trkpt><trkpt lat="39.7634031" lon="20.5914071"><ele>375.0</ele><time>2026-05-03T06:29:29.736Z</time></trkpt><trkpt lat="39.7635005" lon="20.5914218"><ele>373.6</ele><time>2026-05-03T06:29:30.737Z</time></trkpt><trkpt lat="39.763602" lon="20.5914253"><ele>372.2</ele><time>2026-05-03T06:29:31.737Z</time></trkpt><trkpt lat="39.7637115" lon="20.5913893"><ele>370.79999999999995</ele><time>2026-05-03T06:29:32.736Z</time></trkpt><trkpt lat="39.7638155" lon="20.5913438"><ele>369.4</ele><time>2026-05-03T06:29:33.737Z</time></trkpt><trkpt lat="39.7639142" lon="20.5913078"><ele>368.0</ele><time>2026-05-03T06:29:34.737Z</time></trkpt><trkpt lat="39.7640056" lon="20.5912789"><ele>368.0</ele><time>2026-05-03T06:29:35.736Z</time></trkpt><trkpt lat="39.7640964" lon="20.5913003"><ele>368.0</ele><time>2026-05-03T06:29:36.736Z</time></trkpt><trkpt lat="39.7641599" lon="20.5913352"><ele>368.0</ele><time>2026-05-03T06:29:37.736Z</time></trkpt><trkpt lat="39.7642447" lon="20.5914343"><ele>368.0</ele><time>2026-05-03T06:29:39.737Z</time></trkpt><trkpt lat="39.7642916" lon="20.5915254"><ele>368.0</ele><time>2026-05-03T06:29:40.737Z</time></trkpt><trkpt lat="39.7643465" lon="20.5916447"><ele>373.25</ele><time>2026-05-03T06:29:41.737Z</time></trkpt><trkpt lat="39.764396" lon="20.5917597"><ele>378.5</ele><time>2026-05-03T06:29:42.736Z</time></trkpt><trkpt lat="39.7644381" lon="20.5918788"><ele>383.75</ele><time>2026-05-03T06:29:43.737Z</time></trkpt><trkpt lat="39.7644731" lon="20.5920326"><ele>389.0</ele><time>2026-05-03T06:29:44.737Z</time></trkpt><trkpt lat="39.7645106" lon="20.5921932"><ele>389.0</ele><time>2026-05-03T06:29:45.737Z</time></trkpt><trkpt lat="39.7645342" lon="20.5923681"><ele>389.0</ele><time>2026-05-03T06:29:46.736Z</time></trkpt><trkpt lat="39.7645617" lon="20.5925205"><ele>389.0</ele><time>2026-05-03T06:29:47.737Z</time></trkpt><trkpt lat="39.7645895" lon="20.5926478"><ele>389.0</ele><time>2026-05-03T06:29:48.737Z</time></trkpt><trkpt lat="39.764637" lon="20.5927592"><ele>389.0</ele><time>2026-05-03T06:29:49.736Z</time></trkpt><trkpt lat="39.7647111" lon="20.5928295"><ele>389.0</ele><time>2026-05-03T06:29:50.736Z</time></trkpt><trkpt lat="39.7648037" lon="20.5928922"><ele>389.0</ele><time>2026-05-03T06:29:51.737Z</time></trkpt><trkpt lat="39.7649051" lon="20.5929459"><ele>389.0</ele><time>2026-05-03T06:29:52.737Z</time></trkpt><trkpt lat="39.7650103" lon="20.5930005"><ele>389.0</ele><time>2026-05-03T06:29:53.737Z</time></trkpt><trkpt lat="39.7651145" lon="20.5930339"><ele>390.2</ele><time>2026-05-03T06:29:54.736Z</time></trkpt><trkpt lat="39.7652254" lon="20.5930665"><ele>391.4</ele><time>2026-05-03T06:29:55.736Z</time></trkpt><trkpt lat="39.7653248" lon="20.5930829"><ele>392.6</ele><time>2026-05-03T06:29:56.736Z</time></trkpt><trkpt lat="39.7654321" lon="20.5931012"><ele>393.8</ele><time>2026-05-03T06:29:57.737Z</time></trkpt><trkpt lat="39.7655335" lon="20.5931166"><ele>395.0</ele><time>2026-05-03T06:29:58.737Z</time></trkpt><trkpt lat="39.7656199" lon="20.5931185"><ele>395.0</ele><time>2026-05-03T06:29:59.736Z</time></trkpt><trkpt lat="39.7656977" lon="20.5930995"><ele>395.0</ele><time>2026-05-03T06:30:00.736Z</time></trkpt><trkpt lat="39.7657867" lon="20.5930706"><ele>395.0</ele><time>2026-05-03T06:30:01.736Z</time></trkpt><trkpt lat="39.7658784" lon="20.5930192"><ele>395.0</ele><time>2026-05-03T06:30:02.736Z</time></trkpt><trkpt lat="39.7659744" lon="20.5929568"><ele>395.0</ele><time>2026-05-03T06:30:03.737Z</time></trkpt><trkpt lat="39.7660658" lon="20.5928819"><ele>397.6</ele><time>2026-05-03T06:30:04.736Z</time></trkpt><trkpt lat="39.766143" lon="20.592805"><ele>400.2</ele><time>2026-05-03T06:30:05.736Z</time></trkpt><trkpt lat="39.7662237" lon="20.5927332"><ele>402.79999999999995</ele><time>2026-05-03T06:30:06.736Z</time></trkpt><trkpt lat="39.7663018" lon="20.5926618"><ele>405.4</ele><time>2026-05-03T06:30:07.737Z</time></trkpt><trkpt lat="39.7663713" lon="20.5925997"><ele>408.0</ele><time>2026-05-03T06:30:08.737Z</time></trkpt><trkpt lat="39.7664243" lon="20.5925243"><ele>408.0</ele><time>2026-05-03T06:30:09.736Z</time></trkpt><trkpt lat="39.7665235" lon="20.5924398"><ele>408.0</ele><time>2026-05-03T06:30:11.737Z</time></trkpt><trkpt lat="39.7666457" lon="20.5924347"><ele>408.0</ele><time>2026-05-03T06:30:13.736Z</time></trkpt><trkpt lat="39.7667207" lon="20.5924189"><ele>408.0</ele><time>2026-05-03T06:30:14.736Z</time></trkpt><trkpt lat="39.7667913" lon="20.5924092"><ele>408.0</ele><time>2026-05-03T06:30:15.737Z</time></trkpt><trkpt lat="39.7668656" lon="20.5923946"><ele>407.3333333333333</ele><time>2026-05-03T06:30:16.737Z</time></trkpt><trkpt lat="39.7669418" lon="20.5924004"><ele>406.66666666666663</ele><time>2026-05-03T06:30:17.736Z</time></trkpt><trkpt lat="39.7670126" lon="20.5923881"><ele>406.0</ele><time>2026-05-03T06:30:18.737Z</time></trkpt><trkpt lat="39.7670895" lon="20.5923845"><ele>405.3333333333333</ele><time>2026-05-03T06:30:19.736Z</time></trkpt><trkpt lat="39.767172" lon="20.5924011"><ele>404.66666666666663</ele><time>2026-05-03T06:30:20.736Z</time></trkpt><trkpt lat="39.7672572" lon="20.592414"><ele>404.0</ele><time>2026-05-03T06:30:21.737Z</time></trkpt><trkpt lat="39.7673442" lon="20.592424"><ele>404.0</ele><time>2026-05-03T06:30:22.737Z</time></trkpt><trkpt lat="39.7674372" lon="20.59242"><ele>404.0</ele><time>2026-05-03T06:30:23.736Z</time></trkpt><trkpt lat="39.7675264" lon="20.5924014"><ele>404.0</ele><time>2026-05-03T06:30:24.737Z</time></trkpt><trkpt lat="39.7676116" lon="20.5923675"><ele>404.0</ele><time>2026-05-03T06:30:25.736Z</time></trkpt><trkpt lat="39.7676974" lon="20.5923142"><ele>404.0</ele><time>2026-05-03T06:30:26.737Z</time></trkpt><trkpt lat="39.7677848" lon="20.592247"><ele>404.0</ele><time>2026-05-03T06:30:27.736Z</time></trkpt><trkpt lat="39.7678781" lon="20.592183"><ele>404.0</ele><time>2026-05-03T06:30:28.737Z</time></trkpt><trkpt lat="39.7679819" lon="20.5921258"><ele>404.0</ele><time>2026-05-03T06:30:29.737Z</time></trkpt><trkpt lat="39.7680884" lon="20.5920664"><ele>404.0</ele><time>2026-05-03T06:30:30.736Z</time></trkpt><trkpt lat="39.768193" lon="20.5920158"><ele>404.0</ele><time>2026-05-03T06:30:31.737Z</time></trkpt><trkpt lat="39.7683001" lon="20.5919354"><ele>404.0</ele><time>2026-05-03T06:30:32.736Z</time></trkpt><trkpt lat="39.7684055" lon="20.5918341"><ele>404.0</ele><time>2026-05-03T06:30:33.736Z</time></trkpt><trkpt lat="39.7685222" lon="20.5917699"><ele>404.0</ele><time>2026-05-03T06:30:34.736Z</time></trkpt><trkpt lat="39.7686332" lon="20.5917228"><ele>404.0</ele><time>2026-05-03T06:30:35.736Z</time></trkpt><trkpt lat="39.7687478" lon="20.5916932"><ele>401.0</ele><time>2026-05-03T06:30:36.737Z</time></trkpt><trkpt lat="39.7688553" lon="20.591645"><ele>398.0</ele><time>2026-05-03T06:30:37.736Z</time></trkpt><trkpt lat="39.7689513" lon="20.5915759"><ele>395.0</ele><time>2026-05-03T06:30:38.737Z</time></trkpt><trkpt lat="39.7690406" lon="20.5914983"><ele>392.0</ele><time>2026-05-03T06:30:39.736Z</time></trkpt><trkpt lat="39.7691271" lon="20.5913941"><ele>389.0</ele><time>2026-05-03T06:30:40.736Z</time></trkpt><trkpt lat="39.7692165" lon="20.5913022"><ele>389.0</ele><time>2026-05-03T06:30:41.736Z</time></trkpt><trkpt lat="39.7693005" lon="20.5912124"><ele>389.0</ele><time>2026-05-03T06:30:42.737Z</time></trkpt><trkpt lat="39.769385" lon="20.5911342"><ele>389.0</ele><time>2026-05-03T06:30:43.737Z</time></trkpt><trkpt lat="39.7694752" lon="20.5910696"><ele>389.0</ele><time>2026-05-03T06:30:44.736Z</time></trkpt><trkpt lat="39.7695557" lon="20.5909585"><ele>389.0</ele><time>2026-05-03T06:30:45.736Z</time></trkpt><trkpt lat="39.769632" lon="20.5908342"><ele>386.5</ele><time>2026-05-03T06:30:46.736Z</time></trkpt><trkpt lat="39.7697086" lon="20.5907036"><ele>384.0</ele><time>2026-05-03T06:30:47.736Z</time></trkpt><trkpt lat="39.7697865" lon="20.5905861"><ele>381.5</ele><time>2026-05-03T06:30:48.737Z</time></trkpt><trkpt lat="39.7698605" lon="20.5904709"><ele>379.0</ele><time>2026-05-03T06:30:49.736Z</time></trkpt><trkpt lat="39.769936" lon="20.5903595"><ele>381.5</ele><time>2026-05-03T06:30:50.737Z</time></trkpt><trkpt lat="39.7700005" lon="20.5902387"><ele>384.0</ele><time>2026-05-03T06:30:51.737Z</time></trkpt><trkpt lat="39.7700394" lon="20.5900962"><ele>386.5</ele><time>2026-05-03T06:30:52.737Z</time></trkpt><trkpt lat="39.7700583" lon="20.5899498"><ele>389.0</ele><time>2026-05-03T06:30:53.736Z</time></trkpt><trkpt lat="39.7700564" lon="20.5898035"><ele>389.0</ele><time>2026-05-03T06:30:54.736Z</time></trkpt><trkpt lat="39.7700578" lon="20.5896542"><ele>389.0</ele><time>2026-05-03T06:30:55.736Z</time></trkpt><trkpt lat="39.7700512" lon="20.5894997"><ele>389.0</ele><time>2026-05-03T06:30:56.737Z</time></trkpt><trkpt lat="39.7700384" lon="20.589346"><ele>389.0</ele><time>2026-05-03T06:30:57.736Z</time></trkpt><trkpt lat="39.7700303" lon="20.5891968"><ele>388.75</ele><time>2026-05-03T06:30:58.737Z</time></trkpt><trkpt lat="39.7700336" lon="20.5890325"><ele>388.5</ele><time>2026-05-03T06:30:59.737Z</time></trkpt><trkpt lat="39.7700356" lon="20.588874"><ele>388.25</ele><time>2026-05-03T06:31:00.737Z</time></trkpt><trkpt lat="39.7700354" lon="20.588724"><ele>388.0</ele><time>2026-05-03T06:31:01.736Z</time></trkpt><trkpt lat="39.7700243" lon="20.5885828"><ele>387.59999999999997</ele><time>2026-05-03T06:31:02.736Z</time></trkpt><trkpt lat="39.7700181" lon="20.5884415"><ele>387.2</ele><time>2026-05-03T06:31:03.737Z</time></trkpt><trkpt lat="39.7700196" lon="20.5883031"><ele>386.8</ele><time>2026-05-03T06:31:04.736Z</time></trkpt><trkpt lat="39.7700428" lon="20.5881678"><ele>386.4</ele><time>2026-05-03T06:31:05.737Z</time></trkpt><trkpt lat="39.7700846" lon="20.5880274"><ele>386.0</ele><time>2026-05-03T06:31:06.736Z</time></trkpt><trkpt lat="39.7701354" lon="20.5879097"><ele>383.75</ele><time>2026-05-03T06:31:07.736Z</time></trkpt><trkpt lat="39.7702348" lon="20.5878199"><ele>381.5</ele><time>2026-05-03T06:31:08.736Z</time></trkpt><trkpt lat="39.7703602" lon="20.587772"><ele>379.25</ele><time>2026-05-03T06:31:09.736Z</time></trkpt><trkpt lat="39.7704924" lon="20.5877252"><ele>377.0</ele><time>2026-05-03T06:31:10.737Z</time></trkpt><trkpt lat="39.7706353" lon="20.5876939"><ele>377.0</ele><time>2026-05-03T06:31:11.736Z</time></trkpt><trkpt lat="39.7707735" lon="20.5876543"><ele>377.0</ele><time>2026-05-03T06:31:12.737Z</time></trkpt><trkpt lat="39.7709189" lon="20.5876389"><ele>377.0</ele><time>2026-05-03T06:31:13.736Z</time></trkpt><trkpt lat="39.7710713" lon="20.5876225"><ele>377.0</ele><time>2026-05-03T06:31:14.737Z</time></trkpt><trkpt lat="39.771225" lon="20.5876055"><ele>376.0</ele><time>2026-05-03T06:31:15.736Z</time></trkpt><trkpt lat="39.7713821" lon="20.5875931"><ele>375.0</ele><time>2026-05-03T06:31:16.737Z</time></trkpt><trkpt lat="39.77154" lon="20.5875774"><ele>374.0</ele><time>2026-05-03T06:31:17.737Z</time></trkpt><trkpt lat="39.771693" lon="20.5875555"><ele>374.0</ele><time>2026-05-03T06:31:18.737Z</time></trkpt><trkpt lat="39.7718456" lon="20.5875256"><ele>374.0</ele><time>2026-05-03T06:31:19.737Z</time></trkpt><trkpt lat="39.7719988" lon="20.5874776"><ele>374.0</ele><time>2026-05-03T06:31:20.736Z</time></trkpt><trkpt lat="39.7721473" lon="20.5874036"><ele>376.6666666666667</ele><time>2026-05-03T06:31:21.736Z</time></trkpt><trkpt lat="39.7722909" lon="20.5873182"><ele>379.3333333333333</ele><time>2026-05-03T06:31:22.737Z</time></trkpt><trkpt lat="39.7724242" lon="20.5872092"><ele>382.0</ele><time>2026-05-03T06:31:23.737Z</time></trkpt><trkpt lat="39.7725551" lon="20.5870984"><ele>381.3333333333333</ele><time>2026-05-03T06:31:24.736Z</time></trkpt><trkpt lat="39.7726778" lon="20.5869739"><ele>380.6666666666667</ele><time>2026-05-03T06:31:25.736Z</time></trkpt><trkpt lat="39.7727948" lon="20.5868286"><ele>380.0</ele><time>2026-05-03T06:31:26.736Z</time></trkpt><trkpt lat="39.7728989" lon="20.5866727"><ele>384.33333333333337</ele><time>2026-05-03T06:31:27.736Z</time></trkpt><trkpt lat="39.7729955" lon="20.5864923"><ele>388.6666666666667</ele><time>2026-05-03T06:31:28.737Z</time></trkpt><trkpt lat="39.7730798" lon="20.5863086"><ele>393.0</ele><time>2026-05-03T06:31:29.737Z</time></trkpt><trkpt lat="39.7731468" lon="20.5861177"><ele>393.0</ele><time>2026-05-03T06:31:30.736Z</time></trkpt><trkpt lat="39.7732012" lon="20.5859331"><ele>393.0</ele><time>2026-05-03T06:31:31.737Z</time></trkpt><trkpt lat="39.7732419" lon="20.585735"><ele>393.0</ele><time>2026-05-03T06:31:32.737Z</time></trkpt><trkpt lat="39.7732743" lon="20.5855254"><ele>393.33333333333337</ele><time>2026-05-03T06:31:33.736Z</time></trkpt><trkpt lat="39.7732998" lon="20.5853169"><ele>393.6666666666667</ele><time>2026-05-03T06:31:34.737Z</time></trkpt><trkpt lat="39.7733278" lon="20.5851125"><ele>394.0</ele><time>2026-05-03T06:31:35.736Z</time></trkpt><trkpt lat="39.773362" lon="20.5849002"><ele>394.0</ele><time>2026-05-03T06:31:36.737Z</time></trkpt><trkpt lat="39.7733953" lon="20.5846715"><ele>394.0</ele><time>2026-05-03T06:31:37.737Z</time></trkpt><trkpt lat="39.773425" lon="20.5844487"><ele>394.0</ele><time>2026-05-03T06:31:38.736Z</time></trkpt><trkpt lat="39.7734564" lon="20.5842218"><ele>394.33333333333337</ele><time>2026-05-03T06:31:39.737Z</time></trkpt><trkpt lat="39.7734897" lon="20.5839876"><ele>394.66666666666663</ele><time>2026-05-03T06:31:40.736Z</time></trkpt><trkpt lat="39.7735246" lon="20.5837602"><ele>395.0</ele><time>2026-05-03T06:31:41.737Z</time></trkpt><trkpt lat="39.7735561" lon="20.583534"><ele>400.66666666666663</ele><time>2026-05-03T06:31:42.736Z</time></trkpt><trkpt lat="39.7735816" lon="20.5833124"><ele>406.33333333333337</ele><time>2026-05-03T06:31:43.737Z</time></trkpt><trkpt lat="39.7736095" lon="20.5830895"><ele>412.0</ele><time>2026-05-03T06:31:44.737Z</time></trkpt><trkpt lat="39.7736396" lon="20.5828707"><ele>412.6666666666667</ele><time>2026-05-03T06:31:45.736Z</time></trkpt><trkpt lat="39.7736685" lon="20.5826523"><ele>413.33333333333337</ele><time>2026-05-03T06:31:46.736Z</time></trkpt><trkpt lat="39.7736939" lon="20.5824445"><ele>414.0</ele><time>2026-05-03T06:31:47.736Z</time></trkpt><trkpt lat="39.773726" lon="20.5822303"><ele>414.0</ele><time>2026-05-03T06:31:48.737Z</time></trkpt><trkpt lat="39.7737566" lon="20.5820176"><ele>414.0</ele><time>2026-05-03T06:31:49.736Z</time></trkpt><trkpt lat="39.7737875" lon="20.5817991"><ele>414.0</ele><time>2026-05-03T06:31:50.737Z</time></trkpt><trkpt lat="39.7738134" lon="20.5815717"><ele>415.33333333333337</ele><time>2026-05-03T06:31:51.736Z</time></trkpt><trkpt lat="39.7738432" lon="20.5813646"><ele>416.6666666666667</ele><time>2026-05-03T06:31:52.736Z</time></trkpt><trkpt lat="39.7738752" lon="20.5811495"><ele>418.0</ele><time>2026-05-03T06:31:53.736Z</time></trkpt><trkpt lat="39.7739059" lon="20.5809547"><ele>418.75</ele><time>2026-05-03T06:31:54.737Z</time></trkpt><trkpt lat="39.7739331" lon="20.5807608"><ele>419.5</ele><time>2026-05-03T06:31:55.736Z</time></trkpt><trkpt lat="39.7739589" lon="20.5805858"><ele>420.25</ele><time>2026-05-03T06:31:56.736Z</time></trkpt><trkpt lat="39.7739796" lon="20.5804205"><ele>421.0</ele><time>2026-05-03T06:31:57.736Z</time></trkpt><trkpt lat="39.774003" lon="20.5802532"><ele>421.5</ele><time>2026-05-03T06:31:58.737Z</time></trkpt><trkpt lat="39.7740289" lon="20.5800837"><ele>422.0</ele><time>2026-05-03T06:31:59.736Z</time></trkpt><trkpt lat="39.7740579" lon="20.5799063"><ele>422.5</ele><time>2026-05-03T06:32:00.736Z</time></trkpt><trkpt lat="39.7740906" lon="20.5797351"><ele>423.0</ele><time>2026-05-03T06:32:01.737Z</time></trkpt><trkpt lat="39.7741464" lon="20.5795527"><ele>423.33333333333337</ele><time>2026-05-03T06:32:02.737Z</time></trkpt><trkpt lat="39.7742126" lon="20.5793661"><ele>423.6666666666667</ele><time>2026-05-03T06:32:03.736Z</time></trkpt><trkpt lat="39.7742846" lon="20.5791834"><ele>424.0</ele><time>2026-05-03T06:32:04.736Z</time></trkpt><trkpt lat="39.7743713" lon="20.5789978"><ele>423.33333333333337</ele><time>2026-05-03T06:32:05.737Z</time></trkpt><trkpt lat="39.7744644" lon="20.5788271"><ele>422.66666666666663</ele><time>2026-05-03T06:32:06.737Z</time></trkpt><trkpt lat="39.7745655" lon="20.5786611"><ele>422.0</ele><time>2026-05-03T06:32:07.736Z</time></trkpt><trkpt lat="39.7746765" lon="20.5785017"><ele>420.3333333333333</ele><time>2026-05-03T06:32:08.737Z</time></trkpt><trkpt lat="39.7747961" lon="20.5783556"><ele>418.66666666666663</ele><time>2026-05-03T06:32:09.736Z</time></trkpt><trkpt lat="39.7749243" lon="20.5782273"><ele>417.0</ele><time>2026-05-03T06:32:10.737Z</time></trkpt><trkpt lat="39.7750572" lon="20.5781202"><ele>416.66666666666663</ele><time>2026-05-03T06:32:11.737Z</time></trkpt><trkpt lat="39.7752095" lon="20.5780231"><ele>416.3333333333333</ele><time>2026-05-03T06:32:12.737Z</time></trkpt><trkpt lat="39.7753677" lon="20.5779303"><ele>416.0</ele><time>2026-05-03T06:32:13.737Z</time></trkpt><trkpt lat="39.7755282" lon="20.5778487"><ele>416.66666666666663</ele><time>2026-05-03T06:32:14.737Z</time></trkpt><trkpt lat="39.7756954" lon="20.577785"><ele>417.33333333333337</ele><time>2026-05-03T06:32:15.737Z</time></trkpt><trkpt lat="39.7758695" lon="20.5777388"><ele>418.0</ele><time>2026-05-03T06:32:16.736Z</time></trkpt><trkpt lat="39.7760525" lon="20.5776994"><ele>414.6666666666667</ele><time>2026-05-03T06:32:17.736Z</time></trkpt><trkpt lat="39.7762394" lon="20.5776742"><ele>411.33333333333337</ele><time>2026-05-03T06:32:18.737Z</time></trkpt><trkpt lat="39.7764336" lon="20.5776553"><ele>408.0</ele><time>2026-05-03T06:32:19.737Z</time></trkpt><trkpt lat="39.7766259" lon="20.5776307"><ele>408.0</ele><time>2026-05-03T06:32:20.737Z</time></trkpt><trkpt lat="39.776818" lon="20.5776065"><ele>408.0</ele><time>2026-05-03T06:32:21.737Z</time></trkpt><trkpt lat="39.7770159" lon="20.5775859"><ele>408.0</ele><time>2026-05-03T06:32:22.736Z</time></trkpt><trkpt lat="39.7772086" lon="20.5775729"><ele>406.66666666666663</ele><time>2026-05-03T06:32:23.736Z</time></trkpt><trkpt lat="39.7773913" lon="20.5775542"><ele>405.3333333333333</ele><time>2026-05-03T06:32:24.737Z</time></trkpt><trkpt lat="39.7775665" lon="20.5775262"><ele>404.0</ele><time>2026-05-03T06:32:25.737Z</time></trkpt><trkpt lat="39.7777309" lon="20.5774794"><ele>403.0</ele><time>2026-05-03T06:32:26.737Z</time></trkpt><trkpt lat="39.7778839" lon="20.5773966"><ele>402.0</ele><time>2026-05-03T06:32:27.737Z</time></trkpt><trkpt lat="39.77803" lon="20.5772865"><ele>401.0</ele><time>2026-05-03T06:32:28.737Z</time></trkpt><trkpt lat="39.7781634" lon="20.5771469"><ele>399.66666666666663</ele><time>2026-05-03T06:32:29.737Z</time></trkpt><trkpt lat="39.7782808" lon="20.5769868"><ele>398.33333333333337</ele><time>2026-05-03T06:32:30.737Z</time></trkpt><trkpt lat="39.7783668" lon="20.5768038"><ele>397.0</ele><time>2026-05-03T06:32:31.736Z</time></trkpt><trkpt lat="39.7784769" lon="20.5766315"><ele>395.33333333333337</ele><time>2026-05-03T06:32:32.737Z</time></trkpt><trkpt lat="39.778594" lon="20.5764783"><ele>393.66666666666663</ele><time>2026-05-03T06:32:33.736Z</time></trkpt><trkpt lat="39.7787213" lon="20.5763352"><ele>392.0</ele><time>2026-05-03T06:32:34.737Z</time></trkpt><trkpt lat="39.778869" lon="20.5761985"><ele>393.66666666666663</ele><time>2026-05-03T06:32:35.737Z</time></trkpt><trkpt lat="39.7790196" lon="20.5761029"><ele>395.33333333333337</ele><time>2026-05-03T06:32:36.736Z</time></trkpt><trkpt lat="39.7791802" lon="20.5759996"><ele>397.0</ele><time>2026-05-03T06:32:37.737Z</time></trkpt><trkpt lat="39.7793407" lon="20.5759089"><ele>394.33333333333337</ele><time>2026-05-03T06:32:38.736Z</time></trkpt><trkpt lat="39.7795028" lon="20.5758461"><ele>391.66666666666663</ele><time>2026-05-03T06:32:39.736Z</time></trkpt><trkpt lat="39.7796643" lon="20.5757949"><ele>389.0</ele><time>2026-05-03T06:32:40.737Z</time></trkpt><trkpt lat="39.7798231" lon="20.5757476"><ele>389.0</ele><time>2026-05-03T06:32:41.737Z</time></trkpt><trkpt lat="39.7799729" lon="20.5756924"><ele>389.0</ele><time>2026-05-03T06:32:42.737Z</time></trkpt><trkpt lat="39.7801207" lon="20.5756063"><ele>389.0</ele><time>2026-05-03T06:32:43.736Z</time></trkpt><trkpt lat="39.7802625" lon="20.5754864"><ele>389.0</ele><time>2026-05-03T06:32:44.737Z</time></trkpt><trkpt lat="39.780388" lon="20.5753455"><ele>389.0</ele><time>2026-05-03T06:32:45.736Z</time></trkpt><trkpt lat="39.7805022" lon="20.5751808"><ele>389.0</ele><time>2026-05-03T06:32:46.737Z</time></trkpt><trkpt lat="39.780609" lon="20.5750008"><ele>389.0</ele><time>2026-05-03T06:32:47.736Z</time></trkpt><trkpt lat="39.7807137" lon="20.574814"><ele>389.0</ele><time>2026-05-03T06:32:48.737Z</time></trkpt><trkpt lat="39.7808194" lon="20.5746251"><ele>389.0</ele><time>2026-05-03T06:32:49.736Z</time></trkpt><trkpt lat="39.7809238" lon="20.5744417"><ele>388.66666666666663</ele><time>2026-05-03T06:32:50.737Z</time></trkpt><trkpt lat="39.7810232" lon="20.5742566"><ele>388.33333333333337</ele><time>2026-05-03T06:32:51.736Z</time></trkpt><trkpt lat="39.7811135" lon="20.5740829"><ele>388.0</ele><time>2026-05-03T06:32:52.737Z</time></trkpt><trkpt lat="39.7812033" lon="20.5739165"><ele>388.0</ele><time>2026-05-03T06:32:53.736Z</time></trkpt><trkpt lat="39.7812944" lon="20.5737538"><ele>388.0</ele><time>2026-05-03T06:32:54.737Z</time></trkpt><trkpt lat="39.7813956" lon="20.5736127"><ele>388.0</ele><time>2026-05-03T06:32:55.737Z</time></trkpt><trkpt lat="39.7815122" lon="20.5734927"><ele>390.0</ele><time>2026-05-03T06:32:56.736Z</time></trkpt><trkpt lat="39.7816318" lon="20.5733993"><ele>392.0</ele><time>2026-05-03T06:32:57.737Z</time></trkpt><trkpt lat="39.7817615" lon="20.5733266"><ele>394.0</ele><time>2026-05-03T06:32:58.737Z</time></trkpt><trkpt lat="39.7819023" lon="20.5732974"><ele>396.0</ele><time>2026-05-03T06:32:59.736Z</time></trkpt><trkpt lat="39.7820398" lon="20.5732985"><ele>396.0</ele><time>2026-05-03T06:33:00.737Z</time></trkpt><trkpt lat="39.782177" lon="20.5733467"><ele>396.0</ele><time>2026-05-03T06:33:01.736Z</time></trkpt><trkpt lat="39.782315" lon="20.5734108"><ele>396.0</ele><time>2026-05-03T06:33:02.737Z</time></trkpt><trkpt lat="39.7824424" lon="20.5735142"><ele>396.0</ele><time>2026-05-03T06:33:03.737Z</time></trkpt><trkpt lat="39.7825516" lon="20.5736353"><ele>394.0</ele><time>2026-05-03T06:33:04.737Z</time></trkpt><trkpt lat="39.7826401" lon="20.5737843"><ele>392.0</ele><time>2026-05-03T06:33:05.737Z</time></trkpt><trkpt lat="39.7827018" lon="20.5739666"><ele>390.0</ele><time>2026-05-03T06:33:06.737Z</time></trkpt><trkpt lat="39.7827463" lon="20.5741578"><ele>395.66666666666663</ele><time>2026-05-03T06:33:07.736Z</time></trkpt><trkpt lat="39.782764" lon="20.574364"><ele>401.3333333333333</ele><time>2026-05-03T06:33:08.737Z</time></trkpt><trkpt lat="39.7827675" lon="20.5745884"><ele>407.0</ele><time>2026-05-03T06:33:09.737Z</time></trkpt><trkpt lat="39.7827567" lon="20.5748197"><ele>407.3333333333333</ele><time>2026-05-03T06:33:10.736Z</time></trkpt><trkpt lat="39.7827351" lon="20.5750637"><ele>407.66666666666663</ele><time>2026-05-03T06:33:11.736Z</time></trkpt><trkpt lat="39.7827202" lon="20.575286"><ele>408.0</ele><time>2026-05-03T06:33:12.736Z</time></trkpt><trkpt lat="39.7827089" lon="20.5754925"><ele>408.25</ele><time>2026-05-03T06:33:13.737Z</time></trkpt><trkpt lat="39.782703" lon="20.5756954"><ele>408.5</ele><time>2026-05-03T06:33:14.736Z</time></trkpt><trkpt lat="39.7827198" lon="20.575881"><ele>408.75</ele><time>2026-05-03T06:33:15.736Z</time></trkpt><trkpt lat="39.782762" lon="20.5760533"><ele>409.0</ele><time>2026-05-03T06:33:16.737Z</time></trkpt><trkpt lat="39.7828209" lon="20.5762131"><ele>407.25</ele><time>2026-05-03T06:33:17.736Z</time></trkpt><trkpt lat="39.7829106" lon="20.5763446"><ele>405.5</ele><time>2026-05-03T06:33:18.737Z</time></trkpt><trkpt lat="39.7830224" lon="20.576454"><ele>403.75</ele><time>2026-05-03T06:33:19.736Z</time></trkpt><trkpt lat="39.7831526" lon="20.5765357"><ele>402.0</ele><time>2026-05-03T06:33:20.737Z</time></trkpt><trkpt lat="39.7832858" lon="20.5765858"><ele>402.0</ele><time>2026-05-03T06:33:21.737Z</time></trkpt><trkpt lat="39.7834202" lon="20.5765945"><ele>402.0</ele><time>2026-05-03T06:33:22.736Z</time></trkpt><trkpt lat="39.7835544" lon="20.5765644"><ele>402.0</ele><time>2026-05-03T06:33:23.736Z</time></trkpt><trkpt lat="39.783684" lon="20.5764961"><ele>402.0</ele><time>2026-05-03T06:33:24.737Z</time></trkpt><trkpt lat="39.7838061" lon="20.5763947"><ele>402.25</ele><time>2026-05-03T06:33:25.736Z</time></trkpt><trkpt lat="39.7839085" lon="20.5762678"><ele>402.5</ele><time>2026-05-03T06:33:26.736Z</time></trkpt><trkpt lat="39.7839877" lon="20.57611"><ele>402.75</ele><time>2026-05-03T06:33:27.737Z</time></trkpt><trkpt lat="39.7840345" lon="20.5759144"><ele>403.0</ele><time>2026-05-03T06:33:28.737Z</time></trkpt><trkpt lat="39.7840589" lon="20.5757061"><ele>405.33333333333337</ele><time>2026-05-03T06:33:29.737Z</time></trkpt><trkpt lat="39.7840664" lon="20.5754811"><ele>407.66666666666663</ele><time>2026-05-03T06:33:30.736Z</time></trkpt><trkpt lat="39.7840613" lon="20.575253"><ele>410.0</ele><time>2026-05-03T06:33:31.737Z</time></trkpt><trkpt lat="39.784054" lon="20.5750129"><ele>410.3333333333333</ele><time>2026-05-03T06:33:32.736Z</time></trkpt><trkpt lat="39.7840444" lon="20.5747727"><ele>410.66666666666663</ele><time>2026-05-03T06:33:33.736Z</time></trkpt><trkpt lat="39.7840341" lon="20.574529"><ele>411.0</ele><time>2026-05-03T06:33:34.737Z</time></trkpt><trkpt lat="39.7840199" lon="20.5742716"><ele>414.0</ele><time>2026-05-03T06:33:35.737Z</time></trkpt><trkpt lat="39.7840042" lon="20.5739902"><ele>417.0</ele><time>2026-05-03T06:33:36.737Z</time></trkpt><trkpt lat="39.7839924" lon="20.5737029"><ele>420.0</ele><time>2026-05-03T06:33:37.737Z</time></trkpt><trkpt lat="39.7839727" lon="20.5734293"><ele>421.33333333333337</ele><time>2026-05-03T06:33:38.737Z</time></trkpt><trkpt lat="39.7839589" lon="20.5731599"><ele>422.6666666666667</ele><time>2026-05-03T06:33:39.737Z</time></trkpt><trkpt lat="39.78395" lon="20.5728979"><ele>424.0</ele><time>2026-05-03T06:33:40.737Z</time></trkpt><trkpt lat="39.7839435" lon="20.572643"><ele>425.6666666666667</ele><time>2026-05-03T06:33:41.736Z</time></trkpt><trkpt lat="39.783941" lon="20.5724003"><ele>427.33333333333337</ele><time>2026-05-03T06:33:42.736Z</time></trkpt><trkpt lat="39.7839608" lon="20.5721749"><ele>429.0</ele><time>2026-05-03T06:33:43.736Z</time></trkpt><trkpt lat="39.7839886" lon="20.5719681"><ele>432.33333333333337</ele><time>2026-05-03T06:33:44.737Z</time></trkpt><trkpt lat="39.784045" lon="20.5717694"><ele>435.6666666666667</ele><time>2026-05-03T06:33:45.737Z</time></trkpt><trkpt lat="39.7841223" lon="20.571576"><ele>439.0</ele><time>2026-05-03T06:33:46.736Z</time></trkpt><trkpt lat="39.7842298" lon="20.5714252"><ele>439.33333333333337</ele><time>2026-05-03T06:33:47.737Z</time></trkpt><trkpt lat="39.7843576" lon="20.5712766"><ele>439.66666666666663</ele><time>2026-05-03T06:33:48.737Z</time></trkpt><trkpt lat="39.7845057" lon="20.571157"><ele>440.0</ele><time>2026-05-03T06:33:49.736Z</time></trkpt><trkpt lat="39.7846731" lon="20.5710395"><ele>444.3333333333333</ele><time>2026-05-03T06:33:50.737Z</time></trkpt><trkpt lat="39.7848544" lon="20.5709332"><ele>448.66666666666663</ele><time>2026-05-03T06:33:51.737Z</time></trkpt><trkpt lat="39.7850461" lon="20.5708224"><ele>453.0</ele><time>2026-05-03T06:33:52.737Z</time></trkpt><trkpt lat="39.7852394" lon="20.5706971"><ele>453.0</ele><time>2026-05-03T06:33:53.737Z</time></trkpt><trkpt lat="39.7854328" lon="20.5705725"><ele>453.0</ele><time>2026-05-03T06:33:54.737Z</time></trkpt><trkpt lat="39.7856241" lon="20.5704592"><ele>453.0</ele><time>2026-05-03T06:33:55.737Z</time></trkpt><trkpt lat="39.785819" lon="20.5703486"><ele>456.33333333333337</ele><time>2026-05-03T06:33:56.737Z</time></trkpt><trkpt lat="39.786007" lon="20.5702244"><ele>459.6666666666667</ele><time>2026-05-03T06:33:57.737Z</time></trkpt><trkpt lat="39.7861938" lon="20.5701143"><ele>463.0</ele><time>2026-05-03T06:33:58.737Z</time></trkpt><trkpt lat="39.7863769" lon="20.5699939"><ele>463.0</ele><time>2026-05-03T06:33:59.737Z</time></trkpt><trkpt lat="39.7865603" lon="20.5698739"><ele>463.0</ele><time>2026-05-03T06:34:00.736Z</time></trkpt><trkpt lat="39.7867422" lon="20.5697585"><ele>463.0</ele><time>2026-05-03T06:34:01.737Z</time></trkpt><trkpt lat="39.7869242" lon="20.5696219"><ele>466.0</ele><time>2026-05-03T06:34:02.737Z</time></trkpt><trkpt lat="39.7871128" lon="20.5694738"><ele>469.0</ele><time>2026-05-03T06:34:03.736Z</time></trkpt><trkpt lat="39.7872945" lon="20.5693265"><ele>472.0</ele><time>2026-05-03T06:34:04.736Z</time></trkpt><trkpt lat="39.7874746" lon="20.56917"><ele>472.0</ele><time>2026-05-03T06:34:05.736Z</time></trkpt><trkpt lat="39.7876588" lon="20.5689989"><ele>472.0</ele><time>2026-05-03T06:34:06.737Z</time></trkpt><trkpt lat="39.7878284" lon="20.5688346"><ele>472.0</ele><time>2026-05-03T06:34:07.736Z</time></trkpt><trkpt lat="39.7879966" lon="20.5686794"><ele>469.33333333333337</ele><time>2026-05-03T06:34:08.736Z</time></trkpt><trkpt lat="39.788165" lon="20.5685357"><ele>466.66666666666663</ele><time>2026-05-03T06:34:09.737Z</time></trkpt><trkpt lat="39.7883474" lon="20.5683995"><ele>464.0</ele><time>2026-05-03T06:34:10.736Z</time></trkpt><trkpt lat="39.7885298" lon="20.5682724"><ele>464.0</ele><time>2026-05-03T06:34:11.736Z</time></trkpt><trkpt lat="39.7887089" lon="20.5681496"><ele>464.0</ele><time>2026-05-03T06:34:12.737Z</time></trkpt><trkpt lat="39.7888843" lon="20.5680223"><ele>464.0</ele><time>2026-05-03T06:34:13.737Z</time></trkpt><trkpt lat="39.7890562" lon="20.5678979"><ele>466.3333333333333</ele><time>2026-05-03T06:34:14.736Z</time></trkpt><trkpt lat="39.7892298" lon="20.5677685"><ele>468.66666666666663</ele><time>2026-05-03T06:34:15.737Z</time></trkpt><trkpt lat="39.7894031" lon="20.5676269"><ele>471.0</ele><time>2026-05-03T06:34:16.737Z</time></trkpt><trkpt lat="39.7895744" lon="20.5674813"><ele>471.0</ele><time>2026-05-03T06:34:17.737Z</time></trkpt><trkpt lat="39.7897375" lon="20.5673251"><ele>471.0</ele><time>2026-05-03T06:34:18.737Z</time></trkpt><trkpt lat="39.7898942" lon="20.5671527"><ele>471.0</ele><time>2026-05-03T06:34:19.737Z</time></trkpt><trkpt lat="39.7900552" lon="20.5669668"><ele>468.0</ele><time>2026-05-03T06:34:20.737Z</time></trkpt><trkpt lat="39.7902073" lon="20.5667681"><ele>465.0</ele><time>2026-05-03T06:34:21.736Z</time></trkpt><trkpt lat="39.7903585" lon="20.5665714"><ele>462.0</ele><time>2026-05-03T06:34:22.736Z</time></trkpt><trkpt lat="39.7905165" lon="20.5663596"><ele>465.33333333333337</ele><time>2026-05-03T06:34:23.736Z</time></trkpt><trkpt lat="39.7906752" lon="20.5661485"><ele>468.6666666666667</ele><time>2026-05-03T06:34:24.737Z</time></trkpt><trkpt lat="39.7908244" lon="20.565945"><ele>472.0</ele><time>2026-05-03T06:34:25.736Z</time></trkpt><trkpt lat="39.7909769" lon="20.5657514"><ele>468.6666666666667</ele><time>2026-05-03T06:34:26.737Z</time></trkpt><trkpt lat="39.7911239" lon="20.5655567"><ele>465.33333333333337</ele><time>2026-05-03T06:34:27.737Z</time></trkpt><trkpt lat="39.7912638" lon="20.5653787"><ele>462.0</ele><time>2026-05-03T06:34:28.736Z</time></trkpt><trkpt lat="39.7914092" lon="20.5652114"><ele>462.0</ele><time>2026-05-03T06:34:29.736Z</time></trkpt><trkpt lat="39.7915626" lon="20.5650549"><ele>462.0</ele><time>2026-05-03T06:34:30.736Z</time></trkpt><trkpt lat="39.7917199" lon="20.5649052"><ele>462.0</ele><time>2026-05-03T06:34:31.736Z</time></trkpt><trkpt lat="39.7918947" lon="20.5647594"><ele>458.33333333333337</ele><time>2026-05-03T06:34:32.737Z</time></trkpt><trkpt lat="39.7920709" lon="20.5646404"><ele>454.6666666666667</ele><time>2026-05-03T06:34:33.736Z</time></trkpt><trkpt lat="39.7922362" lon="20.5645447"><ele>451.0</ele><time>2026-05-03T06:34:34.737Z</time></trkpt><trkpt lat="39.7924156" lon="20.5644585"><ele>451.0</ele><time>2026-05-03T06:34:35.737Z</time></trkpt><trkpt lat="39.7925894" lon="20.5644029"><ele>451.0</ele><time>2026-05-03T06:34:36.737Z</time></trkpt><trkpt lat="39.7927671" lon="20.5643618"><ele>451.0</ele><time>2026-05-03T06:34:37.736Z</time></trkpt><trkpt lat="39.7929505" lon="20.5643341"><ele>449.0</ele><time>2026-05-03T06:34:38.736Z</time></trkpt><trkpt lat="39.7931274" lon="20.5643219"><ele>447.0</ele><time>2026-05-03T06:34:39.737Z</time></trkpt><trkpt lat="39.7933064" lon="20.5643213"><ele>445.0</ele><time>2026-05-03T06:34:40.736Z</time></trkpt><trkpt lat="39.7934895" lon="20.5643291"><ele>445.0</ele><time>2026-05-03T06:34:41.736Z</time></trkpt><trkpt lat="39.7936713" lon="20.5643446"><ele>445.0</ele><time>2026-05-03T06:34:42.737Z</time></trkpt><trkpt lat="39.7938662" lon="20.5643811"><ele>445.0</ele><time>2026-05-03T06:34:43.737Z</time></trkpt><trkpt lat="39.7940659" lon="20.5644187"><ele>445.0</ele><time>2026-05-03T06:34:44.737Z</time></trkpt><trkpt lat="39.7942813" lon="20.5644588"><ele>445.0</ele><time>2026-05-03T06:34:45.737Z</time></trkpt><trkpt lat="39.7944934" lon="20.5644949"><ele>445.0</ele><time>2026-05-03T06:34:46.736Z</time></trkpt><trkpt lat="39.7946996" lon="20.5645307"><ele>441.0</ele><time>2026-05-03T06:34:47.737Z</time></trkpt><trkpt lat="39.7949184" lon="20.5645577"><ele>437.0</ele><time>2026-05-03T06:34:48.736Z</time></trkpt><trkpt lat="39.7951361" lon="20.5645916"><ele>433.0</ele><time>2026-05-03T06:34:49.737Z</time></trkpt><trkpt lat="39.7953564" lon="20.5646189"><ele>431.33333333333337</ele><time>2026-05-03T06:34:50.736Z</time></trkpt><trkpt lat="39.7955715" lon="20.5646599"><ele>429.66666666666663</ele><time>2026-05-03T06:34:51.736Z</time></trkpt><trkpt lat="39.7957885" lon="20.5646796"><ele>428.0</ele><time>2026-05-03T06:34:52.737Z</time></trkpt><trkpt lat="39.7960081" lon="20.564714"><ele>425.66666666666663</ele><time>2026-05-03T06:34:53.736Z</time></trkpt><trkpt lat="39.7962258" lon="20.5647509"><ele>423.33333333333337</ele><time>2026-05-03T06:34:54.737Z</time></trkpt><trkpt lat="39.796442" lon="20.5647922"><ele>421.0</ele><time>2026-05-03T06:34:55.736Z</time></trkpt><trkpt lat="39.7966718" lon="20.5648293"><ele>420.33333333333337</ele><time>2026-05-03T06:34:56.737Z</time></trkpt><trkpt lat="39.7968954" lon="20.564867"><ele>419.66666666666663</ele><time>2026-05-03T06:34:57.737Z</time></trkpt><trkpt lat="39.7971166" lon="20.5648998"><ele>419.0</ele><time>2026-05-03T06:34:58.736Z</time></trkpt><trkpt lat="39.7973387" lon="20.5649341"><ele>419.0</ele><time>2026-05-03T06:34:59.736Z</time></trkpt><trkpt lat="39.7975568" lon="20.5649654"><ele>419.0</ele><time>2026-05-03T06:35:00.736Z</time></trkpt><trkpt lat="39.7977735" lon="20.5650055"><ele>419.0</ele><time>2026-05-03T06:35:01.736Z</time></trkpt><trkpt lat="39.7979896" lon="20.5650378"><ele>417.0</ele><time>2026-05-03T06:35:02.737Z</time></trkpt><trkpt lat="39.7981957" lon="20.5650668"><ele>415.0</ele><time>2026-05-03T06:35:03.737Z</time></trkpt><trkpt lat="39.7984038" lon="20.5650949"><ele>413.0</ele><time>2026-05-03T06:35:04.736Z</time></trkpt><trkpt lat="39.7986011" lon="20.5651023"><ele>411.3333333333333</ele><time>2026-05-03T06:35:05.737Z</time></trkpt><trkpt lat="39.7987961" lon="20.5651035"><ele>409.66666666666663</ele><time>2026-05-03T06:35:06.736Z</time></trkpt><trkpt lat="39.7989936" lon="20.5650944"><ele>408.0</ele><time>2026-05-03T06:35:07.736Z</time></trkpt><trkpt lat="39.7991817" lon="20.5650767"><ele>406.33333333333337</ele><time>2026-05-03T06:35:08.736Z</time></trkpt><trkpt lat="39.7993626" lon="20.5650497"><ele>404.6666666666667</ele><time>2026-05-03T06:35:09.737Z</time></trkpt><trkpt lat="39.7995413" lon="20.5650138"><ele>403.0</ele><time>2026-05-03T06:35:10.737Z</time></trkpt><trkpt lat="39.799722" lon="20.5649441"><ele>403.0</ele><time>2026-05-03T06:35:11.737Z</time></trkpt><trkpt lat="39.7999" lon="20.5648681"><ele>403.0</ele><time>2026-05-03T06:35:12.736Z</time></trkpt><trkpt lat="39.8000795" lon="20.5647952"><ele>403.0</ele><time>2026-05-03T06:35:13.737Z</time></trkpt><trkpt lat="39.8002601" lon="20.5647097"><ele>403.0</ele><time>2026-05-03T06:35:14.736Z</time></trkpt><trkpt lat="39.8004397" lon="20.5646156"><ele>403.0</ele><time>2026-05-03T06:35:15.736Z</time></trkpt><trkpt lat="39.8006149" lon="20.5645236"><ele>403.0</ele><time>2026-05-03T06:35:16.736Z</time></trkpt><trkpt lat="39.8007917" lon="20.5644213"><ele>403.0</ele><time>2026-05-03T06:35:17.737Z</time></trkpt><trkpt lat="39.800962" lon="20.5643087"><ele>403.0</ele><time>2026-05-03T06:35:18.736Z</time></trkpt><trkpt lat="39.8011254" lon="20.5641987"><ele>403.0</ele><time>2026-05-03T06:35:19.737Z</time></trkpt><trkpt lat="39.8012935" lon="20.5640947"><ele>402.33333333333337</ele><time>2026-05-03T06:35:20.737Z</time></trkpt><trkpt lat="39.8014675" lon="20.5639893"><ele>401.66666666666663</ele><time>2026-05-03T06:35:21.737Z</time></trkpt><trkpt lat="39.8016454" lon="20.5638834"><ele>401.0</ele><time>2026-05-03T06:35:22.736Z</time></trkpt><trkpt lat="39.8018146" lon="20.5637766"><ele>402.3333333333333</ele><time>2026-05-03T06:35:23.736Z</time></trkpt><trkpt lat="39.8019868" lon="20.563664"><ele>403.66666666666663</ele><time>2026-05-03T06:35:24.736Z</time></trkpt><trkpt lat="39.8021708" lon="20.563559"><ele>405.0</ele><time>2026-05-03T06:35:25.737Z</time></trkpt><trkpt lat="39.8023439" lon="20.563455"><ele>405.0</ele><time>2026-05-03T06:35:26.736Z</time></trkpt><trkpt lat="39.8025238" lon="20.5633547"><ele>405.0</ele><time>2026-05-03T06:35:27.737Z</time></trkpt><trkpt lat="39.8026898" lon="20.5632564"><ele>405.0</ele><time>2026-05-03T06:35:28.737Z</time></trkpt><trkpt lat="39.8028679" lon="20.5631592"><ele>406.33333333333337</ele><time>2026-05-03T06:35:29.737Z</time></trkpt><trkpt lat="39.8030404" lon="20.5630528"><ele>407.6666666666667</ele><time>2026-05-03T06:35:30.737Z</time></trkpt><trkpt lat="39.8032155" lon="20.5629542"><ele>409.0</ele><time>2026-05-03T06:35:31.737Z</time></trkpt><trkpt lat="39.8033786" lon="20.5628526"><ele>408.33333333333337</ele><time>2026-05-03T06:35:32.736Z</time></trkpt><trkpt lat="39.8035468" lon="20.5627514"><ele>407.66666666666663</ele><time>2026-05-03T06:35:33.737Z</time></trkpt><trkpt lat="39.8037207" lon="20.5626537"><ele>407.0</ele><time>2026-05-03T06:35:34.736Z</time></trkpt><trkpt lat="39.8038898" lon="20.5625486"><ele>407.0</ele><time>2026-05-03T06:35:35.737Z</time></trkpt><trkpt lat="39.8040569" lon="20.562441"><ele>407.0</ele><time>2026-05-03T06:35:36.736Z</time></trkpt><trkpt lat="39.8042263" lon="20.5623459"><ele>407.0</ele><time>2026-05-03T06:35:37.737Z</time></trkpt><trkpt lat="39.8043948" lon="20.5622381"><ele>408.3333333333333</ele><time>2026-05-03T06:35:38.737Z</time></trkpt><trkpt lat="39.8045636" lon="20.5621345"><ele>409.66666666666663</ele><time>2026-05-03T06:35:39.737Z</time></trkpt><trkpt lat="39.8047232" lon="20.5620314"><ele>411.0</ele><time>2026-05-03T06:35:40.737Z</time></trkpt><trkpt lat="39.8048815" lon="20.5619339"><ele>412.33333333333337</ele><time>2026-05-03T06:35:41.736Z</time></trkpt><trkpt lat="39.8050441" lon="20.5618362"><ele>413.6666666666667</ele><time>2026-05-03T06:35:42.737Z</time></trkpt><trkpt lat="39.8051982" lon="20.5617384"><ele>415.0</ele><time>2026-05-03T06:35:43.737Z</time></trkpt><trkpt lat="39.8053557" lon="20.5616334"><ele>416.0</ele><time>2026-05-03T06:35:44.737Z</time></trkpt><trkpt lat="39.8055179" lon="20.5615249"><ele>417.0</ele><time>2026-05-03T06:35:45.737Z</time></trkpt><trkpt lat="39.8056841" lon="20.5614256"><ele>418.0</ele><time>2026-05-03T06:35:46.737Z</time></trkpt><trkpt lat="39.8058596" lon="20.5613281"><ele>417.6666666666667</ele><time>2026-05-03T06:35:47.737Z</time></trkpt><trkpt lat="39.8060376" lon="20.5612168"><ele>417.33333333333337</ele><time>2026-05-03T06:35:48.737Z</time></trkpt><trkpt lat="39.8062127" lon="20.5611093"><ele>417.0</ele><time>2026-05-03T06:35:49.736Z</time></trkpt><trkpt lat="39.806392" lon="20.5609997"><ele>418.0</ele><time>2026-05-03T06:35:50.737Z</time></trkpt><trkpt lat="39.8065734" lon="20.5608883"><ele>419.0</ele><time>2026-05-03T06:35:51.736Z</time></trkpt><trkpt lat="39.8067588" lon="20.5607763"><ele>420.0</ele><time>2026-05-03T06:35:52.737Z</time></trkpt><trkpt lat="39.8069495" lon="20.5606645"><ele>420.0</ele><time>2026-05-03T06:35:53.736Z</time></trkpt><trkpt lat="39.8071393" lon="20.5605524"><ele>420.0</ele><time>2026-05-03T06:35:54.737Z</time></trkpt><trkpt lat="39.8073203" lon="20.5604459"><ele>420.0</ele><time>2026-05-03T06:35:55.737Z</time></trkpt><trkpt lat="39.8074962" lon="20.5603416"><ele>420.66666666666663</ele><time>2026-05-03T06:35:56.736Z</time></trkpt><trkpt lat="39.8076644" lon="20.5602406"><ele>421.3333333333333</ele><time>2026-05-03T06:35:57.737Z</time></trkpt><trkpt lat="39.8078305" lon="20.5601488"><ele>422.0</ele><time>2026-05-03T06:35:58.737Z</time></trkpt><trkpt lat="39.8079999" lon="20.5600632"><ele>422.0</ele><time>2026-05-03T06:35:59.736Z</time></trkpt><trkpt lat="39.80817" lon="20.5599752"><ele>422.0</ele><time>2026-05-03T06:36:00.736Z</time></trkpt><trkpt lat="39.8083382" lon="20.5598945"><ele>422.0</ele><time>2026-05-03T06:36:01.736Z</time></trkpt><trkpt lat="39.8085295" lon="20.559818"><ele>420.66666666666663</ele><time>2026-05-03T06:36:02.737Z</time></trkpt><trkpt lat="39.8087169" lon="20.5597455"><ele>419.33333333333337</ele><time>2026-05-03T06:36:03.736Z</time></trkpt><trkpt lat="39.8089098" lon="20.5596804"><ele>418.0</ele><time>2026-05-03T06:36:04.737Z</time></trkpt><trkpt lat="39.8091025" lon="20.5596261"><ele>418.0</ele><time>2026-05-03T06:36:05.736Z</time></trkpt><trkpt lat="39.8092969" lon="20.5595756"><ele>418.0</ele><time>2026-05-03T06:36:06.737Z</time></trkpt><trkpt lat="39.8094933" lon="20.5595345"><ele>418.0</ele><time>2026-05-03T06:36:07.736Z</time></trkpt><trkpt lat="39.8096901" lon="20.5594925"><ele>418.6666666666667</ele><time>2026-05-03T06:36:08.736Z</time></trkpt><trkpt lat="39.8098909" lon="20.5594722"><ele>419.33333333333337</ele><time>2026-05-03T06:36:09.737Z</time></trkpt><trkpt lat="39.8100816" lon="20.5594456"><ele>420.0</ele><time>2026-05-03T06:36:10.737Z</time></trkpt><trkpt lat="39.8102823" lon="20.5594161"><ele>420.33333333333337</ele><time>2026-05-03T06:36:11.736Z</time></trkpt><trkpt lat="39.8104825" lon="20.5593767"><ele>420.6666666666667</ele><time>2026-05-03T06:36:12.737Z</time></trkpt><trkpt lat="39.8106834" lon="20.5593369"><ele>421.0</ele><time>2026-05-03T06:36:13.737Z</time></trkpt><trkpt lat="39.8108807" lon="20.5593003"><ele>420.0</ele><time>2026-05-03T06:36:14.737Z</time></trkpt><trkpt lat="39.8110641" lon="20.5592572"><ele>419.0</ele><time>2026-05-03T06:36:15.736Z</time></trkpt><trkpt lat="39.8112537" lon="20.5591699"><ele>418.0</ele><time>2026-05-03T06:36:16.736Z</time></trkpt><trkpt lat="39.8114264" lon="20.559145"><ele>418.0</ele><time>2026-05-03T06:36:17.736Z</time></trkpt><trkpt lat="39.8115957" lon="20.5590979"><ele>418.0</ele><time>2026-05-03T06:36:18.736Z</time></trkpt><trkpt lat="39.8117633" lon="20.559025"><ele>418.0</ele><time>2026-05-03T06:36:19.737Z</time></trkpt><trkpt lat="39.8119196" lon="20.5589477"><ele>416.0</ele><time>2026-05-03T06:36:20.737Z</time></trkpt><trkpt lat="39.8120656" lon="20.5588512"><ele>414.0</ele><time>2026-05-03T06:36:21.737Z</time></trkpt><trkpt lat="39.8122023" lon="20.5587596"><ele>412.0</ele><time>2026-05-03T06:36:22.737Z</time></trkpt><trkpt lat="39.812335" lon="20.5586453"><ele>412.0</ele><time>2026-05-03T06:36:23.736Z</time></trkpt><trkpt lat="39.8124658" lon="20.5585169"><ele>412.0</ele><time>2026-05-03T06:36:24.736Z</time></trkpt><trkpt lat="39.812591" lon="20.558371"><ele>412.0</ele><time>2026-05-03T06:36:25.736Z</time></trkpt><trkpt lat="39.8127216" lon="20.5582263"><ele>411.6666666666667</ele><time>2026-05-03T06:36:26.736Z</time></trkpt><trkpt lat="39.8128555" lon="20.5580681"><ele>411.33333333333337</ele><time>2026-05-03T06:36:27.737Z</time></trkpt><trkpt lat="39.8129915" lon="20.5579105"><ele>411.0</ele><time>2026-05-03T06:36:28.736Z</time></trkpt><trkpt lat="39.8131246" lon="20.5577506"><ele>411.0</ele><time>2026-05-03T06:36:29.737Z</time></trkpt><trkpt lat="39.8132557" lon="20.557599"><ele>411.0</ele><time>2026-05-03T06:36:30.737Z</time></trkpt><trkpt lat="39.8133956" lon="20.557429"><ele>411.0</ele><time>2026-05-03T06:36:31.737Z</time></trkpt><trkpt lat="39.8135322" lon="20.5572536"><ele>410.0</ele><time>2026-05-03T06:36:32.736Z</time></trkpt><trkpt lat="39.8136713" lon="20.5570921"><ele>409.0</ele><time>2026-05-03T06:36:33.736Z</time></trkpt><trkpt lat="39.81382" lon="20.5569199"><ele>408.0</ele><time>2026-05-03T06:36:34.737Z</time></trkpt><trkpt lat="39.8139639" lon="20.5567451"><ele>408.0</ele><time>2026-05-03T06:36:35.736Z</time></trkpt><trkpt lat="39.814104" lon="20.5565727"><ele>408.0</ele><time>2026-05-03T06:36:36.737Z</time></trkpt><trkpt lat="39.814248" lon="20.5564046"><ele>408.0</ele><time>2026-05-03T06:36:37.737Z</time></trkpt><trkpt lat="39.8143901" lon="20.5562444"><ele>409.33333333333337</ele><time>2026-05-03T06:36:38.737Z</time></trkpt><trkpt lat="39.8145172" lon="20.5560914"><ele>410.6666666666667</ele><time>2026-05-03T06:36:39.737Z</time></trkpt><trkpt lat="39.8146375" lon="20.5559507"><ele>412.0</ele><time>2026-05-03T06:36:40.737Z</time></trkpt><trkpt lat="39.8147526" lon="20.555815"><ele>412.0</ele><time>2026-05-03T06:36:41.737Z</time></trkpt><trkpt lat="39.8148562" lon="20.5556865"><ele>412.0</ele><time>2026-05-03T06:36:42.736Z</time></trkpt><trkpt lat="39.8149496" lon="20.5555725"><ele>412.0</ele><time>2026-05-03T06:36:43.736Z</time></trkpt><trkpt lat="39.8150616" lon="20.5554924"><ele>412.0</ele><time>2026-05-03T06:36:44.736Z</time></trkpt><trkpt lat="39.8151689" lon="20.5554225"><ele>411.6</ele><time>2026-05-03T06:36:45.737Z</time></trkpt><trkpt lat="39.815266" lon="20.5553749"><ele>411.20000000000005</ele><time>2026-05-03T06:36:46.737Z</time></trkpt><trkpt lat="39.8153581" lon="20.5553"><ele>410.8</ele><time>2026-05-03T06:36:47.737Z</time></trkpt><trkpt lat="39.8154478" lon="20.5552532"><ele>410.4</ele><time>2026-05-03T06:36:48.737Z</time></trkpt><trkpt lat="39.815522" lon="20.5552054"><ele>410.0</ele><time>2026-05-03T06:36:49.737Z</time></trkpt><trkpt lat="39.8155914" lon="20.5551596"><ele>410.99999999999994</ele><time>2026-05-03T06:36:50.736Z</time></trkpt><trkpt lat="39.8156604" lon="20.5550956"><ele>412.0</ele><time>2026-05-03T06:36:51.737Z</time></trkpt><trkpt lat="39.8157245" lon="20.5550439"><ele>413.0</ele><time>2026-05-03T06:36:52.736Z</time></trkpt><trkpt lat="39.8157939" lon="20.5549879"><ele>414.0</ele><time>2026-05-03T06:36:53.737Z</time></trkpt><trkpt lat="39.8158629" lon="20.55492"><ele>414.99999999999994</ele><time>2026-05-03T06:36:54.736Z</time></trkpt><trkpt lat="39.8159404" lon="20.5548495"><ele>416.0</ele><time>2026-05-03T06:36:55.737Z</time></trkpt><trkpt lat="39.8160205" lon="20.5547807"><ele>416.0</ele><time>2026-05-03T06:36:56.736Z</time></trkpt><trkpt lat="39.8161045" lon="20.5547291"><ele>416.0</ele><time>2026-05-03T06:36:57.737Z</time></trkpt><trkpt lat="39.8161847" lon="20.5546716"><ele>416.0</ele><time>2026-05-03T06:36:58.736Z</time></trkpt><trkpt lat="39.8162707" lon="20.5546239"><ele>416.0</ele><time>2026-05-03T06:36:59.737Z</time></trkpt><trkpt lat="39.8163672" lon="20.5545827"><ele>416.0</ele><time>2026-05-03T06:37:00.737Z</time></trkpt><trkpt lat="39.8164631" lon="20.5545543"><ele>417.16666666666663</ele><time>2026-05-03T06:37:01.737Z</time></trkpt><trkpt lat="39.8165534" lon="20.5545309"><ele>418.3333333333333</ele><time>2026-05-03T06:37:02.737Z</time></trkpt><trkpt lat="39.8166464" lon="20.5545086"><ele>419.5</ele><time>2026-05-03T06:37:03.736Z</time></trkpt><trkpt lat="39.8167333" lon="20.5544976"><ele>420.66666666666663</ele><time>2026-05-03T06:37:04.736Z</time></trkpt><trkpt lat="39.8168108" lon="20.5545118"><ele>421.8333333333333</ele><time>2026-05-03T06:37:05.736Z</time></trkpt><trkpt lat="39.8168828" lon="20.554514"><ele>423.0</ele><time>2026-05-03T06:37:06.737Z</time></trkpt><trkpt lat="39.8169548" lon="20.554523"><ele>422.0</ele><time>2026-05-03T06:37:07.737Z</time></trkpt><trkpt lat="39.8170125" lon="20.5545651"><ele>421.0</ele><time>2026-05-03T06:37:08.736Z</time></trkpt><trkpt lat="39.8170678" lon="20.5546384"><ele>420.0</ele><time>2026-05-03T06:37:09.737Z</time></trkpt><trkpt lat="39.8171188" lon="20.5547086"><ele>419.0</ele><time>2026-05-03T06:37:10.737Z</time></trkpt><trkpt lat="39.8171748" lon="20.5547935"><ele>418.0</ele><time>2026-05-03T06:37:11.736Z</time></trkpt><trkpt lat="39.8172248" lon="20.5548922"><ele>417.0</ele><time>2026-05-03T06:37:12.737Z</time></trkpt><trkpt lat="39.8172748" lon="20.5549893"><ele>417.0</ele><time>2026-05-03T06:37:13.736Z</time></trkpt><trkpt lat="39.8173241" lon="20.5550937"><ele>417.0</ele><time>2026-05-03T06:37:14.736Z</time></trkpt><trkpt lat="39.8173549" lon="20.5552038"><ele>417.0</ele><time>2026-05-03T06:37:15.737Z</time></trkpt><trkpt lat="39.817371" lon="20.5553236"><ele>417.0</ele><time>2026-05-03T06:37:16.737Z</time></trkpt><trkpt lat="39.8173797" lon="20.5554436"><ele>417.0</ele><time>2026-05-03T06:37:17.737Z</time></trkpt><trkpt lat="39.8173904" lon="20.555577"><ele>415.5</ele><time>2026-05-03T06:37:18.736Z</time></trkpt><trkpt lat="39.8174034" lon="20.5557142"><ele>414.0</ele><time>2026-05-03T06:37:19.736Z</time></trkpt><trkpt lat="39.8174265" lon="20.5558595"><ele>412.5</ele><time>2026-05-03T06:37:20.737Z</time></trkpt><trkpt lat="39.8174512" lon="20.5560053"><ele>411.0</ele><time>2026-05-03T06:37:21.737Z</time></trkpt><trkpt lat="39.8174847" lon="20.5561483"><ele>410.75</ele><time>2026-05-03T06:37:22.737Z</time></trkpt><trkpt lat="39.8175247" lon="20.5562938"><ele>410.5</ele><time>2026-05-03T06:37:23.737Z</time></trkpt><trkpt lat="39.8175646" lon="20.5564443"><ele>410.25</ele><time>2026-05-03T06:37:24.736Z</time></trkpt><trkpt lat="39.8176115" lon="20.5565945"><ele>410.0</ele><time>2026-05-03T06:37:25.737Z</time></trkpt><trkpt lat="39.8176721" lon="20.5567482"><ele>410.0</ele><time>2026-05-03T06:37:26.737Z</time></trkpt><trkpt lat="39.8177541" lon="20.5569013"><ele>410.0</ele><time>2026-05-03T06:37:27.736Z</time></trkpt><trkpt lat="39.8178312" lon="20.5570394"><ele>410.0</ele><time>2026-05-03T06:37:28.736Z</time></trkpt><trkpt lat="39.8179163" lon="20.5571856"><ele>410.0</ele><time>2026-05-03T06:37:29.737Z</time></trkpt><trkpt lat="39.8180149" lon="20.5573414"><ele>407.3333333333333</ele><time>2026-05-03T06:37:30.737Z</time></trkpt><trkpt lat="39.818127" lon="20.5574985"><ele>404.66666666666663</ele><time>2026-05-03T06:37:31.737Z</time></trkpt><trkpt lat="39.8182391" lon="20.5576652"><ele>402.0</ele><time>2026-05-03T06:37:32.737Z</time></trkpt><trkpt lat="39.8183484" lon="20.5578174"><ele>400.33333333333337</ele><time>2026-05-03T06:37:33.736Z</time></trkpt><trkpt lat="39.8184536" lon="20.5579725"><ele>398.6666666666667</ele><time>2026-05-03T06:37:34.737Z</time></trkpt><trkpt lat="39.8185531" lon="20.558125"><ele>397.0</ele><time>2026-05-03T06:37:35.736Z</time></trkpt><trkpt lat="39.8186485" lon="20.5582744"><ele>397.0</ele><time>2026-05-03T06:37:36.736Z</time></trkpt><trkpt lat="39.8187435" lon="20.5584185"><ele>397.0</ele><time>2026-05-03T06:37:37.737Z</time></trkpt><trkpt lat="39.8188406" lon="20.5585558"><ele>397.0</ele><time>2026-05-03T06:37:38.736Z</time></trkpt><trkpt lat="39.8189433" lon="20.5586792"><ele>397.0</ele><time>2026-05-03T06:37:39.737Z</time></trkpt><trkpt lat="39.8190496" lon="20.5587818"><ele>396.0</ele><time>2026-05-03T06:37:40.736Z</time></trkpt><trkpt lat="39.8191815" lon="20.5588491"><ele>395.0</ele><time>2026-05-03T06:37:41.736Z</time></trkpt><trkpt lat="39.8193287" lon="20.5589001"><ele>394.0</ele><time>2026-05-03T06:37:42.737Z</time></trkpt><trkpt lat="39.819505" lon="20.5589294"><ele>394.0</ele><time>2026-05-03T06:37:43.736Z</time></trkpt><trkpt lat="39.8196766" lon="20.5589624"><ele>394.0</ele><time>2026-05-03T06:37:44.737Z</time></trkpt><trkpt lat="39.8198498" lon="20.5589864"><ele>394.0</ele><time>2026-05-03T06:37:45.737Z</time></trkpt><trkpt lat="39.8200135" lon="20.5590104"><ele>395.0</ele><time>2026-05-03T06:37:46.737Z</time></trkpt><trkpt lat="39.8201658" lon="20.559038"><ele>396.0</ele><time>2026-05-03T06:37:47.736Z</time></trkpt><trkpt lat="39.8203006" lon="20.5590859"><ele>397.0</ele><time>2026-05-03T06:37:48.737Z</time></trkpt><trkpt lat="39.8204245" lon="20.5591407"><ele>398.0</ele><time>2026-05-03T06:37:49.736Z</time></trkpt><trkpt lat="39.8205439" lon="20.5592213"><ele>398.0</ele><time>2026-05-03T06:37:50.737Z</time></trkpt><trkpt lat="39.8206432" lon="20.559319"><ele>398.0</ele><time>2026-05-03T06:37:51.737Z</time></trkpt><trkpt lat="39.8207232" lon="20.5594357"><ele>398.0</ele><time>2026-05-03T06:37:52.737Z</time></trkpt><trkpt lat="39.8207852" lon="20.5595657"><ele>398.0</ele><time>2026-05-03T06:37:53.736Z</time></trkpt><trkpt lat="39.8208251" lon="20.5597112"><ele>397.25</ele><time>2026-05-03T06:37:54.737Z</time></trkpt><trkpt lat="39.8208429" lon="20.5598888"><ele>396.5</ele><time>2026-05-03T06:37:55.736Z</time></trkpt><trkpt lat="39.8208449" lon="20.5600762"><ele>395.75</ele><time>2026-05-03T06:37:56.736Z</time></trkpt><trkpt lat="39.8208276" lon="20.5602708"><ele>395.0</ele><time>2026-05-03T06:37:57.736Z</time></trkpt><trkpt lat="39.8207899" lon="20.5604668"><ele>395.0</ele><time>2026-05-03T06:37:58.736Z</time></trkpt><trkpt lat="39.8207465" lon="20.5606551"><ele>395.0</ele><time>2026-05-03T06:37:59.737Z</time></trkpt><trkpt lat="39.8206945" lon="20.5608502"><ele>395.0</ele><time>2026-05-03T06:38:00.737Z</time></trkpt><trkpt lat="39.820643" lon="20.5610509"><ele>395.0</ele><time>2026-05-03T06:38:01.737Z</time></trkpt><trkpt lat="39.8205931" lon="20.5612516"><ele>395.0</ele><time>2026-05-03T06:38:02.736Z</time></trkpt><trkpt lat="39.8205403" lon="20.561453"><ele>395.0</ele><time>2026-05-03T06:38:03.737Z</time></trkpt><trkpt lat="39.8204842" lon="20.5616598"><ele>395.0</ele><time>2026-05-03T06:38:04.737Z</time></trkpt><trkpt lat="39.8204277" lon="20.5618658"><ele>395.0</ele><time>2026-05-03T06:38:05.736Z</time></trkpt><trkpt lat="39.8203731" lon="20.5620745"><ele>395.0</ele><time>2026-05-03T06:38:06.737Z</time></trkpt><trkpt lat="39.8203197" lon="20.5622717"><ele>394.66666666666663</ele><time>2026-05-03T06:38:07.737Z</time></trkpt><trkpt lat="39.8202704" lon="20.5624659"><ele>394.33333333333337</ele><time>2026-05-03T06:38:08.736Z</time></trkpt><trkpt lat="39.8202259" lon="20.5626582"><ele>394.0</ele><time>2026-05-03T06:38:09.737Z</time></trkpt><trkpt lat="39.8201935" lon="20.5628391"><ele>394.6666666666667</ele><time>2026-05-03T06:38:10.737Z</time></trkpt><trkpt lat="39.8201694" lon="20.5630421"><ele>395.33333333333337</ele><time>2026-05-03T06:38:11.736Z</time></trkpt><trkpt lat="39.8201658" lon="20.5632719"><ele>396.0</ele><time>2026-05-03T06:38:12.736Z</time></trkpt><trkpt lat="39.8201792" lon="20.5635015"><ele>395.66666666666663</ele><time>2026-05-03T06:38:13.736Z</time></trkpt><trkpt lat="39.8201999" lon="20.563751"><ele>395.3333333333333</ele><time>2026-05-03T06:38:14.736Z</time></trkpt><trkpt lat="39.8202288" lon="20.5639988"><ele>395.0</ele><time>2026-05-03T06:38:15.736Z</time></trkpt><trkpt lat="39.8202633" lon="20.5642706"><ele>393.66666666666663</ele><time>2026-05-03T06:38:16.736Z</time></trkpt><trkpt lat="39.8203004" lon="20.5645437"><ele>392.33333333333337</ele><time>2026-05-03T06:38:17.736Z</time></trkpt><trkpt lat="39.8203375" lon="20.5648239"><ele>391.0</ele><time>2026-05-03T06:38:18.736Z</time></trkpt><trkpt lat="39.8203681" lon="20.5650931"><ele>391.0</ele><time>2026-05-03T06:38:19.737Z</time></trkpt><trkpt lat="39.8204057" lon="20.5653713"><ele>391.0</ele><time>2026-05-03T06:38:20.737Z</time></trkpt><trkpt lat="39.8204432" lon="20.5656403"><ele>391.0</ele><time>2026-05-03T06:38:21.737Z</time></trkpt><trkpt lat="39.8204767" lon="20.5659057"><ele>391.0</ele><time>2026-05-03T06:38:22.737Z</time></trkpt><trkpt lat="39.8205078" lon="20.5661603"><ele>391.0</ele><time>2026-05-03T06:38:23.737Z</time></trkpt><trkpt lat="39.8205356" lon="20.5664042"><ele>391.0</ele><time>2026-05-03T06:38:24.736Z</time></trkpt><trkpt lat="39.8205673" lon="20.5666229"><ele>390.33333333333337</ele><time>2026-05-03T06:38:25.736Z</time></trkpt><trkpt lat="39.8206049" lon="20.5668298"><ele>389.66666666666663</ele><time>2026-05-03T06:38:26.737Z</time></trkpt><trkpt lat="39.8206514" lon="20.5670232"><ele>389.0</ele><time>2026-05-03T06:38:27.737Z</time></trkpt><trkpt lat="39.8207073" lon="20.5672249"><ele>388.3333333333333</ele><time>2026-05-03T06:38:28.737Z</time></trkpt><trkpt lat="39.8207747" lon="20.567443"><ele>387.66666666666663</ele><time>2026-05-03T06:38:29.737Z</time></trkpt><trkpt lat="39.8208483" lon="20.5676645"><ele>387.0</ele><time>2026-05-03T06:38:30.736Z</time></trkpt><trkpt lat="39.8209256" lon="20.5678784"><ele>388.0</ele><time>2026-05-03T06:38:31.736Z</time></trkpt><trkpt lat="39.8210026" lon="20.5680803"><ele>389.0</ele><time>2026-05-03T06:38:32.736Z</time></trkpt><trkpt lat="39.8210662" lon="20.5682746"><ele>390.0</ele><time>2026-05-03T06:38:33.736Z</time></trkpt><trkpt lat="39.8211136" lon="20.5684717"><ele>390.0</ele><time>2026-05-03T06:38:34.737Z</time></trkpt><trkpt lat="39.8211532" lon="20.5686647"><ele>390.0</ele><time>2026-05-03T06:38:35.736Z</time></trkpt><trkpt lat="39.8211697" lon="20.568862"><ele>390.0</ele><time>2026-05-03T06:38:36.737Z</time></trkpt><trkpt lat="39.8211675" lon="20.5690618"><ele>391.66666666666663</ele><time>2026-05-03T06:38:37.737Z</time></trkpt><trkpt lat="39.8211345" lon="20.5692535"><ele>393.3333333333333</ele><time>2026-05-03T06:38:38.737Z</time></trkpt><trkpt lat="39.8210834" lon="20.5694531"><ele>395.0</ele><time>2026-05-03T06:38:39.736Z</time></trkpt><trkpt lat="39.8210312" lon="20.5696621"><ele>393.0</ele><time>2026-05-03T06:38:40.737Z</time></trkpt><trkpt lat="39.8209806" lon="20.569888"><ele>391.0</ele><time>2026-05-03T06:38:41.737Z</time></trkpt><trkpt lat="39.8209402" lon="20.5701175"><ele>389.0</ele><time>2026-05-03T06:38:42.736Z</time></trkpt><trkpt lat="39.8209117" lon="20.5703487"><ele>388.66666666666663</ele><time>2026-05-03T06:38:43.737Z</time></trkpt><trkpt lat="39.8208937" lon="20.570595"><ele>388.33333333333337</ele><time>2026-05-03T06:38:44.736Z</time></trkpt><trkpt lat="39.820888" lon="20.5708424"><ele>388.0</ele><time>2026-05-03T06:38:45.737Z</time></trkpt><trkpt lat="39.8208919" lon="20.571094"><ele>386.6666666666667</ele><time>2026-05-03T06:38:46.737Z</time></trkpt><trkpt lat="39.8209002" lon="20.5713467"><ele>385.33333333333337</ele><time>2026-05-03T06:38:47.737Z</time></trkpt><trkpt lat="39.8209114" lon="20.5716001"><ele>384.0</ele><time>2026-05-03T06:38:48.736Z</time></trkpt><trkpt lat="39.8209268" lon="20.5718679"><ele>384.33333333333337</ele><time>2026-05-03T06:38:49.736Z</time></trkpt><trkpt lat="39.820961" lon="20.5721119"><ele>384.6666666666667</ele><time>2026-05-03T06:38:50.736Z</time></trkpt><trkpt lat="39.8210017" lon="20.5723545"><ele>385.0</ele><time>2026-05-03T06:38:51.737Z</time></trkpt><trkpt lat="39.8210506" lon="20.5725871"><ele>385.0</ele><time>2026-05-03T06:38:52.737Z</time></trkpt><trkpt lat="39.8211058" lon="20.5728181"><ele>385.0</ele><time>2026-05-03T06:38:53.737Z</time></trkpt><trkpt lat="39.8211595" lon="20.5730414"><ele>385.0</ele><time>2026-05-03T06:38:54.736Z</time></trkpt><trkpt lat="39.8212172" lon="20.5732668"><ele>384.6666666666667</ele><time>2026-05-03T06:38:55.736Z</time></trkpt><trkpt lat="39.8212766" lon="20.5734927"><ele>384.33333333333337</ele><time>2026-05-03T06:38:56.736Z</time></trkpt><trkpt lat="39.8213378" lon="20.5737382"><ele>384.0</ele><time>2026-05-03T06:38:57.737Z</time></trkpt><trkpt lat="39.8213962" lon="20.5739691"><ele>384.0</ele><time>2026-05-03T06:38:58.737Z</time></trkpt><trkpt lat="39.8214653" lon="20.5742037"><ele>384.0</ele><time>2026-05-03T06:38:59.737Z</time></trkpt><trkpt lat="39.8215576" lon="20.5744333"><ele>384.0</ele><time>2026-05-03T06:39:00.737Z</time></trkpt><trkpt lat="39.821655" lon="20.5746577"><ele>381.3333333333333</ele><time>2026-05-03T06:39:01.736Z</time></trkpt><trkpt lat="39.8217602" lon="20.5748589"><ele>378.66666666666663</ele><time>2026-05-03T06:39:02.737Z</time></trkpt><trkpt lat="39.8218603" lon="20.5750525"><ele>376.0</ele><time>2026-05-03T06:39:03.736Z</time></trkpt><trkpt lat="39.8219597" lon="20.5752331"><ele>377.5</ele><time>2026-05-03T06:39:04.736Z</time></trkpt><trkpt lat="39.8220549" lon="20.5754092"><ele>379.0</ele><time>2026-05-03T06:39:05.736Z</time></trkpt><trkpt lat="39.8221408" lon="20.5755796"><ele>380.5</ele><time>2026-05-03T06:39:06.737Z</time></trkpt><trkpt lat="39.8222094" lon="20.5757107"><ele>382.0</ele><time>2026-05-03T06:39:07.737Z</time></trkpt><trkpt lat="39.822254" lon="20.5758147"><ele>382.0</ele><time>2026-05-03T06:39:08.736Z</time></trkpt><trkpt lat="39.8222775" lon="20.5759038"><ele>382.0</ele><time>2026-05-03T06:39:09.736Z</time></trkpt><trkpt lat="39.8223103" lon="20.5760086"><ele>382.0</ele><time>2026-05-03T06:39:11.737Z</time></trkpt><trkpt lat="39.822376" lon="20.5760695"><ele>382.0</ele><time>2026-05-03T06:47:31.743Z</time></trkpt><trkpt lat="39.8224667" lon="20.5761936"><ele>382.0</ele><time>2026-05-03T06:47:33.742Z</time></trkpt><trkpt lat="39.8225143" lon="20.5762763"><ele>381.0</ele><time>2026-05-03T06:47:34.743Z</time></trkpt><trkpt lat="39.8225599" lon="20.5763713"><ele>380.0</ele><time>2026-05-03T06:47:35.742Z</time></trkpt><trkpt lat="39.8226137" lon="20.576474"><ele>379.0</ele><time>2026-05-03T06:47:36.742Z</time></trkpt><trkpt lat="39.8226744" lon="20.5765837"><ele>378.0</ele><time>2026-05-03T06:47:37.743Z</time></trkpt><trkpt lat="39.8227547" lon="20.5766932"><ele>377.0</ele><time>2026-05-03T06:47:38.742Z</time></trkpt><trkpt lat="39.8228483" lon="20.5767931"><ele>377.0</ele><time>2026-05-03T06:47:39.743Z</time></trkpt><trkpt lat="39.8229586" lon="20.5768794"><ele>377.0</ele><time>2026-05-03T06:47:40.743Z</time></trkpt><trkpt lat="39.823082" lon="20.5769544"><ele>377.0</ele><time>2026-05-03T06:47:41.742Z</time></trkpt><trkpt lat="39.8232211" lon="20.5770021"><ele>377.0</ele><time>2026-05-03T06:47:42.743Z</time></trkpt><trkpt lat="39.8233426" lon="20.577038"><ele>377.0</ele><time>2026-05-03T06:47:43.742Z</time></trkpt><trkpt lat="39.823473" lon="20.5770433"><ele>377.0</ele><time>2026-05-03T06:47:44.743Z</time></trkpt><trkpt lat="39.8236047" lon="20.5770052"><ele>377.0</ele><time>2026-05-03T06:47:45.743Z</time></trkpt><trkpt lat="39.8237292" lon="20.5769387"><ele>377.0</ele><time>2026-05-03T06:47:46.742Z</time></trkpt><trkpt lat="39.8238463" lon="20.5768517"><ele>381.25</ele><time>2026-05-03T06:47:47.743Z</time></trkpt><trkpt lat="39.8239565" lon="20.5767799"><ele>385.5</ele><time>2026-05-03T06:47:48.743Z</time></trkpt><trkpt lat="39.8240712" lon="20.5767316"><ele>389.75</ele><time>2026-05-03T06:47:49.742Z</time></trkpt><trkpt lat="39.8241871" lon="20.5767352"><ele>394.0</ele><time>2026-05-03T06:47:50.742Z</time></trkpt><trkpt lat="39.8242955" lon="20.5767964"><ele>396.0</ele><time>2026-05-03T06:47:51.742Z</time></trkpt><trkpt lat="39.8243949" lon="20.5768643"><ele>398.0</ele><time>2026-05-03T06:47:52.743Z</time></trkpt><trkpt lat="39.8244898" lon="20.5769785"><ele>400.0</ele><time>2026-05-03T06:47:53.743Z</time></trkpt><trkpt lat="39.8245777" lon="20.577123"><ele>402.0</ele><time>2026-05-03T06:47:54.743Z</time></trkpt><trkpt lat="39.8246549" lon="20.5772904"><ele>402.0</ele><time>2026-05-03T06:47:55.742Z</time></trkpt><trkpt lat="39.8247193" lon="20.577472"><ele>402.0</ele><time>2026-05-03T06:47:56.743Z</time></trkpt><trkpt lat="39.8247716" lon="20.5776704"><ele>402.0</ele><time>2026-05-03T06:47:57.743Z</time></trkpt><trkpt lat="39.8248041" lon="20.577879"><ele>402.66666666666663</ele><time>2026-05-03T06:47:58.742Z</time></trkpt><trkpt lat="39.824825" lon="20.5780778"><ele>403.3333333333333</ele><time>2026-05-03T06:47:59.743Z</time></trkpt><trkpt lat="39.8248343" lon="20.5782932"><ele>404.0</ele><time>2026-05-03T06:48:00.743Z</time></trkpt><trkpt lat="39.8248429" lon="20.5785032"><ele>403.66666666666663</ele><time>2026-05-03T06:48:01.743Z</time></trkpt><trkpt lat="39.8248518" lon="20.5787181"><ele>403.33333333333337</ele><time>2026-05-03T06:48:02.743Z</time></trkpt><trkpt lat="39.8248587" lon="20.5789265"><ele>403.0</ele><time>2026-05-03T06:48:03.742Z</time></trkpt><trkpt lat="39.8248676" lon="20.5791197"><ele>403.0</ele><time>2026-05-03T06:48:04.743Z</time></trkpt><trkpt lat="39.8248955" lon="20.5792958"><ele>403.0</ele><time>2026-05-03T06:48:05.743Z</time></trkpt><trkpt lat="39.8249421" lon="20.5794528"><ele>403.0</ele><time>2026-05-03T06:48:06.743Z</time></trkpt><trkpt lat="39.8250203" lon="20.5795885"><ele>403.0</ele><time>2026-05-03T06:48:07.743Z</time></trkpt><trkpt lat="39.825125" lon="20.5797071"><ele>404.0</ele><time>2026-05-03T06:48:08.743Z</time></trkpt><trkpt lat="39.8252532" lon="20.5798059"><ele>405.0</ele><time>2026-05-03T06:48:09.742Z</time></trkpt><trkpt lat="39.8253879" lon="20.5798931"><ele>406.0</ele><time>2026-05-03T06:48:10.742Z</time></trkpt><trkpt lat="39.825522" lon="20.5799738"><ele>407.0</ele><time>2026-05-03T06:48:11.743Z</time></trkpt><trkpt lat="39.8256496" lon="20.5800488"><ele>407.0</ele><time>2026-05-03T06:48:12.742Z</time></trkpt><trkpt lat="39.825771" lon="20.5801069"><ele>407.0</ele><time>2026-05-03T06:48:13.743Z</time></trkpt><trkpt lat="39.825892" lon="20.5801297"><ele>407.0</ele><time>2026-05-03T06:48:14.743Z</time></trkpt><trkpt lat="39.8260161" lon="20.5801075"><ele>407.0</ele><time>2026-05-03T06:48:15.742Z</time></trkpt><trkpt lat="39.8261483" lon="20.5800541"><ele>405.5</ele><time>2026-05-03T06:48:16.742Z</time></trkpt><trkpt lat="39.8262709" lon="20.579967"><ele>404.0</ele><time>2026-05-03T06:48:17.742Z</time></trkpt><trkpt lat="39.8263871" lon="20.5798622"><ele>402.5</ele><time>2026-05-03T06:48:18.743Z</time></trkpt><trkpt lat="39.8265026" lon="20.5797635"><ele>401.0</ele><time>2026-05-03T06:48:19.743Z</time></trkpt><trkpt lat="39.8266245" lon="20.5796942"><ele>401.0</ele><time>2026-05-03T06:48:20.742Z</time></trkpt><trkpt lat="39.8267425" lon="20.5796534"><ele>401.0</ele><time>2026-05-03T06:48:21.743Z</time></trkpt><trkpt lat="39.8268515" lon="20.5796406"><ele>401.0</ele><time>2026-05-03T06:48:22.743Z</time></trkpt><trkpt lat="39.8269558" lon="20.5796782"><ele>401.0</ele><time>2026-05-03T06:48:23.742Z</time></trkpt><trkpt lat="39.8270573" lon="20.5797454"><ele>402.5</ele><time>2026-05-03T06:48:24.742Z</time></trkpt><trkpt lat="39.8271519" lon="20.5798365"><ele>404.0</ele><time>2026-05-03T06:48:25.743Z</time></trkpt><trkpt lat="39.827261" lon="20.579904"><ele>405.5</ele><time>2026-05-03T06:48:26.742Z</time></trkpt><trkpt lat="39.8273881" lon="20.5799564"><ele>407.0</ele><time>2026-05-03T06:48:27.742Z</time></trkpt><trkpt lat="39.8275391" lon="20.5799849"><ele>408.3333333333333</ele><time>2026-05-03T06:48:28.742Z</time></trkpt><trkpt lat="39.8276934" lon="20.5799928"><ele>409.66666666666663</ele><time>2026-05-03T06:48:29.743Z</time></trkpt><trkpt lat="39.8278668" lon="20.5800021"><ele>411.0</ele><time>2026-05-03T06:48:30.743Z</time></trkpt><trkpt lat="39.8280221" lon="20.5800073"><ele>411.0</ele><time>2026-05-03T06:48:31.742Z</time></trkpt><trkpt lat="39.828173" lon="20.5800039"><ele>411.0</ele><time>2026-05-03T06:48:32.742Z</time></trkpt><trkpt lat="39.8283177" lon="20.5799964"><ele>411.0</ele><time>2026-05-03T06:48:33.743Z</time></trkpt><trkpt lat="39.8284475" lon="20.5799842"><ele>411.0</ele><time>2026-05-03T06:48:34.742Z</time></trkpt><trkpt lat="39.8285718" lon="20.5799201"><ele>411.5</ele><time>2026-05-03T06:48:35.743Z</time></trkpt><trkpt lat="39.8287062" lon="20.5798483"><ele>412.0</ele><time>2026-05-03T06:48:36.743Z</time></trkpt><trkpt lat="39.8288411" lon="20.5797507"><ele>412.5</ele><time>2026-05-03T06:48:37.741Z</time></trkpt><trkpt lat="39.8289679" lon="20.5796561"><ele>413.0</ele><time>2026-05-03T06:48:38.743Z</time></trkpt><trkpt lat="39.8291072" lon="20.5795628"><ele>412.3333333333333</ele><time>2026-05-03T06:48:39.743Z</time></trkpt><trkpt lat="39.8292497" lon="20.5794591"><ele>411.66666666666663</ele><time>2026-05-03T06:48:40.743Z</time></trkpt><trkpt lat="39.8293938" lon="20.5793687"><ele>411.0</ele><time>2026-05-03T06:48:41.742Z</time></trkpt><trkpt lat="39.829532" lon="20.5792791"><ele>411.0</ele><time>2026-05-03T06:48:42.742Z</time></trkpt><trkpt lat="39.8296719" lon="20.5792126"><ele>411.0</ele><time>2026-05-03T06:48:43.743Z</time></trkpt><trkpt lat="39.8298056" lon="20.5791314"><ele>411.0</ele><time>2026-05-03T06:48:44.743Z</time></trkpt><trkpt lat="39.8299237" lon="20.5790514"><ele>411.0</ele><time>2026-05-03T06:48:45.742Z</time></trkpt><trkpt lat="39.8300335" lon="20.5789962"><ele>409.8</ele><time>2026-05-03T06:48:46.742Z</time></trkpt><trkpt lat="39.8301455" lon="20.5789591"><ele>408.6</ele><time>2026-05-03T06:48:47.743Z</time></trkpt><trkpt lat="39.8302499" lon="20.5789668"><ele>407.4</ele><time>2026-05-03T06:48:48.742Z</time></trkpt><trkpt lat="39.8303535" lon="20.578992"><ele>406.2</ele><time>2026-05-03T06:48:49.743Z</time></trkpt><trkpt lat="39.8304556" lon="20.5790483"><ele>405.0</ele><time>2026-05-03T06:48:50.743Z</time></trkpt><trkpt lat="39.8305526" lon="20.5791487"><ele>405.0</ele><time>2026-05-03T06:48:51.742Z</time></trkpt><trkpt lat="39.8306346" lon="20.5792539"><ele>405.0</ele><time>2026-05-03T06:48:52.742Z</time></trkpt><trkpt lat="39.8306993" lon="20.5793826"><ele>405.0</ele><time>2026-05-03T06:48:53.743Z</time></trkpt><trkpt lat="39.8307424" lon="20.5795212"><ele>405.0</ele><time>2026-05-03T06:48:54.742Z</time></trkpt><trkpt lat="39.8307829" lon="20.5796655"><ele>405.1666666666667</ele><time>2026-05-03T06:48:55.743Z</time></trkpt><trkpt lat="39.8308285" lon="20.5797896"><ele>405.33333333333337</ele><time>2026-05-03T06:48:56.742Z</time></trkpt><trkpt lat="39.8308878" lon="20.5798778"><ele>405.5</ele><time>2026-05-03T06:48:57.743Z</time></trkpt><trkpt lat="39.8309574" lon="20.5799272"><ele>405.6666666666667</ele><time>2026-05-03T06:48:58.743Z</time></trkpt><trkpt lat="39.8310292" lon="20.5799315"><ele>405.83333333333337</ele><time>2026-05-03T06:48:59.743Z</time></trkpt><trkpt lat="39.8310935" lon="20.5798938"><ele>406.0</ele><time>2026-05-03T06:49:00.743Z</time></trkpt><trkpt lat="39.8311381" lon="20.5798265"><ele>403.8</ele><time>2026-05-03T06:49:01.742Z</time></trkpt><trkpt lat="39.8311547" lon="20.5797235"><ele>401.6</ele><time>2026-05-03T06:49:02.743Z</time></trkpt><trkpt lat="39.8311385" lon="20.5796018"><ele>399.4</ele><time>2026-05-03T06:49:03.743Z</time></trkpt><trkpt lat="39.8311101" lon="20.5794722"><ele>397.2</ele><time>2026-05-03T06:49:04.742Z</time></trkpt><trkpt lat="39.8310609" lon="20.5793297"><ele>395.0</ele><time>2026-05-03T06:49:05.742Z</time></trkpt><trkpt lat="39.8310077" lon="20.5791887"><ele>396.0</ele><time>2026-05-03T06:49:06.742Z</time></trkpt><trkpt lat="39.8309478" lon="20.5790417"><ele>397.0</ele><time>2026-05-03T06:49:07.742Z</time></trkpt><trkpt lat="39.8309026" lon="20.5788893"><ele>398.0</ele><time>2026-05-03T06:49:08.743Z</time></trkpt><trkpt lat="39.8308613" lon="20.5787431"><ele>399.0</ele><time>2026-05-03T06:49:09.743Z</time></trkpt><trkpt lat="39.8308369" lon="20.5785993"><ele>399.0</ele><time>2026-05-03T06:49:10.742Z</time></trkpt><trkpt lat="39.8308252" lon="20.5784467"><ele>399.0</ele><time>2026-05-03T06:49:11.742Z</time></trkpt><trkpt lat="39.8308249" lon="20.5782969"><ele>399.0</ele><time>2026-05-03T06:49:12.743Z</time></trkpt><trkpt lat="39.8308421" lon="20.5781467"><ele>399.0</ele><time>2026-05-03T06:49:13.742Z</time></trkpt><trkpt lat="39.8308734" lon="20.5780104"><ele>399.0</ele><time>2026-05-03T06:49:14.742Z</time></trkpt><trkpt lat="39.8309316" lon="20.5778824"><ele>399.0</ele><time>2026-05-03T06:49:15.742Z</time></trkpt><trkpt lat="39.830999" lon="20.5777986"><ele>399.0</ele><time>2026-05-03T06:49:16.743Z</time></trkpt><trkpt lat="39.8310777" lon="20.5777468"><ele>399.0</ele><time>2026-05-03T06:49:17.743Z</time></trkpt><trkpt lat="39.8311658" lon="20.5777151"><ele>399.0</ele><time>2026-05-03T06:49:18.743Z</time></trkpt><trkpt lat="39.8312677" lon="20.5777048"><ele>397.0</ele><time>2026-05-03T06:49:19.742Z</time></trkpt><trkpt lat="39.8314003" lon="20.5777468"><ele>395.0</ele><time>2026-05-03T06:49:20.743Z</time></trkpt><trkpt lat="39.8315472" lon="20.5778046"><ele>393.0</ele><time>2026-05-03T06:49:21.743Z</time></trkpt><trkpt lat="39.8316852" lon="20.5778619"><ele>391.0</ele><time>2026-05-03T06:49:22.742Z</time></trkpt><trkpt lat="39.8318189" lon="20.5779249"><ele>390.25</ele><time>2026-05-03T06:49:23.742Z</time></trkpt><trkpt lat="39.8319565" lon="20.5780066"><ele>389.5</ele><time>2026-05-03T06:49:24.743Z</time></trkpt><trkpt lat="39.8320767" lon="20.578109"><ele>388.75</ele><time>2026-05-03T06:49:25.742Z</time></trkpt><trkpt lat="39.8321867" lon="20.5782229"><ele>388.0</ele><time>2026-05-03T06:49:26.742Z</time></trkpt><trkpt lat="39.8322856" lon="20.5783576"><ele>388.0</ele><time>2026-05-03T06:49:27.742Z</time></trkpt><trkpt lat="39.8323805" lon="20.5785065"><ele>388.0</ele><time>2026-05-03T06:49:28.742Z</time></trkpt><trkpt lat="39.8324765" lon="20.5786829"><ele>388.0</ele><time>2026-05-03T06:49:29.743Z</time></trkpt><trkpt lat="39.8325702" lon="20.5788629"><ele>386.6666666666667</ele><time>2026-05-03T06:49:30.743Z</time></trkpt><trkpt lat="39.8326658" lon="20.5790628"><ele>385.33333333333337</ele><time>2026-05-03T06:49:31.743Z</time></trkpt><trkpt lat="39.8327598" lon="20.5792591"><ele>384.0</ele><time>2026-05-03T06:49:32.742Z</time></trkpt><trkpt lat="39.8328545" lon="20.5794532"><ele>383.3333333333333</ele><time>2026-05-03T06:49:33.743Z</time></trkpt><trkpt lat="39.8329442" lon="20.5796303"><ele>382.66666666666663</ele><time>2026-05-03T06:49:34.743Z</time></trkpt><trkpt lat="39.8330359" lon="20.5798006"><ele>382.0</ele><time>2026-05-03T06:49:35.743Z</time></trkpt><trkpt lat="39.8331348" lon="20.579967"><ele>382.0</ele><time>2026-05-03T06:49:36.742Z</time></trkpt><trkpt lat="39.8332438" lon="20.5801322"><ele>382.0</ele><time>2026-05-03T06:49:37.742Z</time></trkpt><trkpt lat="39.8333732" lon="20.5802915"><ele>382.0</ele><time>2026-05-03T06:49:38.743Z</time></trkpt><trkpt lat="39.8335333" lon="20.580446"><ele>381.66666666666663</ele><time>2026-05-03T06:49:39.742Z</time></trkpt><trkpt lat="39.8337203" lon="20.5805962"><ele>381.3333333333333</ele><time>2026-05-03T06:49:40.743Z</time></trkpt><trkpt lat="39.8339232" lon="20.580729"><ele>381.0</ele><time>2026-05-03T06:49:41.742Z</time></trkpt><trkpt lat="39.8341447" lon="20.5808585"><ele>385.5</ele><time>2026-05-03T06:49:42.742Z</time></trkpt><trkpt lat="39.8343737" lon="20.5809864"><ele>390.0</ele><time>2026-05-03T06:49:43.743Z</time></trkpt><trkpt lat="39.8345984" lon="20.5811095"><ele>387.0</ele><time>2026-05-03T06:49:44.742Z</time></trkpt><trkpt lat="39.8348137" lon="20.5812229"><ele>384.0</ele><time>2026-05-03T06:49:45.743Z</time></trkpt><trkpt lat="39.8350159" lon="20.5813303"><ele>386.0</ele><time>2026-05-03T06:49:46.742Z</time></trkpt><trkpt lat="39.8351988" lon="20.5814252"><ele>388.0</ele><time>2026-05-03T06:49:47.743Z</time></trkpt><trkpt lat="39.8353611" lon="20.5815106"><ele>390.0</ele><time>2026-05-03T06:49:48.743Z</time></trkpt><trkpt lat="39.8355017" lon="20.5815796"><ele>390.0</ele><time>2026-05-03T06:49:49.743Z</time></trkpt><trkpt lat="39.8356305" lon="20.5816237"><ele>390.0</ele><time>2026-05-03T06:49:50.743Z</time></trkpt><trkpt lat="39.8357547" lon="20.5816394"><ele>390.0</ele><time>2026-05-03T06:49:51.742Z</time></trkpt><trkpt lat="39.8358824" lon="20.5816264"><ele>390.0</ele><time>2026-05-03T06:49:52.743Z</time></trkpt><trkpt lat="39.8360095" lon="20.5815937"><ele>390.0</ele><time>2026-05-03T06:49:53.743Z</time></trkpt><trkpt lat="39.8361381" lon="20.581532"><ele>390.0</ele><time>2026-05-03T06:49:54.743Z</time></trkpt><trkpt lat="39.8362647" lon="20.5814456"><ele>390.0</ele><time>2026-05-03T06:49:55.743Z</time></trkpt><trkpt lat="39.8363808" lon="20.5813446"><ele>390.0</ele><time>2026-05-03T06:49:56.743Z</time></trkpt><trkpt lat="39.8364829" lon="20.5812329"><ele>390.5</ele><time>2026-05-03T06:49:57.743Z</time></trkpt><trkpt lat="39.8365712" lon="20.5811008"><ele>391.0</ele><time>2026-05-03T06:49:58.743Z</time></trkpt><trkpt lat="39.8366424" lon="20.5809501"><ele>391.5</ele><time>2026-05-03T06:49:59.742Z</time></trkpt><trkpt lat="39.8366873" lon="20.5807869"><ele>392.0</ele><time>2026-05-03T06:50:00.743Z</time></trkpt><trkpt lat="39.8367162" lon="20.5806128"><ele>392.0</ele><time>2026-05-03T06:50:01.743Z</time></trkpt><trkpt lat="39.8367081" lon="20.5804293"><ele>392.0</ele><time>2026-05-03T06:50:02.742Z</time></trkpt><trkpt lat="39.8366814" lon="20.5802345"><ele>392.0</ele><time>2026-05-03T06:50:03.742Z</time></trkpt><trkpt lat="39.8366458" lon="20.5800383"><ele>392.0</ele><time>2026-05-03T06:50:04.743Z</time></trkpt><trkpt lat="39.8366079" lon="20.5798527"><ele>392.0</ele><time>2026-05-03T06:50:05.742Z</time></trkpt><trkpt lat="39.8365743" lon="20.5796808"><ele>392.0</ele><time>2026-05-03T06:50:06.741Z</time></trkpt><trkpt lat="39.8365512" lon="20.5795174"><ele>392.0</ele><time>2026-05-03T06:50:07.743Z</time></trkpt><trkpt lat="39.8365446" lon="20.5793644"><ele>392.0</ele><time>2026-05-03T06:50:08.742Z</time></trkpt><trkpt lat="39.8365518" lon="20.5792214"><ele>392.0</ele><time>2026-05-03T06:50:09.743Z</time></trkpt><trkpt lat="39.836581" lon="20.5790828"><ele>392.0</ele><time>2026-05-03T06:50:10.742Z</time></trkpt><trkpt lat="39.8366409" lon="20.5789493"><ele>392.0</ele><time>2026-05-03T06:50:11.743Z</time></trkpt><trkpt lat="39.8367241" lon="20.5788177"><ele>392.0</ele><time>2026-05-03T06:50:12.743Z</time></trkpt><trkpt lat="39.8368261" lon="20.5787004"><ele>390.66666666666663</ele><time>2026-05-03T06:50:13.742Z</time></trkpt><trkpt lat="39.8369516" lon="20.5785835"><ele>389.33333333333337</ele><time>2026-05-03T06:50:14.743Z</time></trkpt><trkpt lat="39.8370815" lon="20.5784634"><ele>388.0</ele><time>2026-05-03T06:50:15.743Z</time></trkpt><trkpt lat="39.8372249" lon="20.5783414"><ele>388.0</ele><time>2026-05-03T06:50:16.743Z</time></trkpt><trkpt lat="39.8373754" lon="20.5782159"><ele>388.0</ele><time>2026-05-03T06:50:17.742Z</time></trkpt><trkpt lat="39.8375138" lon="20.5780864"><ele>388.0</ele><time>2026-05-03T06:50:18.742Z</time></trkpt><trkpt lat="39.837634" lon="20.5779443"><ele>389.6666666666667</ele><time>2026-05-03T06:50:19.743Z</time></trkpt><trkpt lat="39.8377657" lon="20.5777979"><ele>391.33333333333337</ele><time>2026-05-03T06:50:20.742Z</time></trkpt><trkpt lat="39.8378972" lon="20.5776306"><ele>393.0</ele><time>2026-05-03T06:50:21.742Z</time></trkpt><trkpt lat="39.8380334" lon="20.5774502"><ele>393.0</ele><time>2026-05-03T06:50:22.742Z</time></trkpt><trkpt lat="39.8381693" lon="20.5772467"><ele>393.0</ele><time>2026-05-03T06:50:23.743Z</time></trkpt><trkpt lat="39.8383076" lon="20.5770397"><ele>393.0</ele><time>2026-05-03T06:50:24.743Z</time></trkpt><trkpt lat="39.8384432" lon="20.5768306"><ele>392.0</ele><time>2026-05-03T06:50:25.743Z</time></trkpt><trkpt lat="39.8385875" lon="20.5766149"><ele>391.0</ele><time>2026-05-03T06:50:26.742Z</time></trkpt><trkpt lat="39.8387289" lon="20.5764049"><ele>390.0</ele><time>2026-05-03T06:50:27.742Z</time></trkpt><trkpt lat="39.8388667" lon="20.5761909"><ele>392.0</ele><time>2026-05-03T06:50:28.743Z</time></trkpt><trkpt lat="39.8390027" lon="20.5759855"><ele>394.0</ele><time>2026-05-03T06:50:29.742Z</time></trkpt><trkpt lat="39.8391278" lon="20.5757868"><ele>396.0</ele><time>2026-05-03T06:50:30.743Z</time></trkpt><trkpt lat="39.8392471" lon="20.5756004"><ele>395.33333333333337</ele><time>2026-05-03T06:50:31.743Z</time></trkpt><trkpt lat="39.839364" lon="20.5754242"><ele>394.6666666666667</ele><time>2026-05-03T06:50:32.742Z</time></trkpt><trkpt lat="39.8394632" lon="20.575264"><ele>394.0</ele><time>2026-05-03T06:50:33.743Z</time></trkpt><trkpt lat="39.8395711" lon="20.5751212"><ele>394.0</ele><time>2026-05-03T06:50:34.742Z</time></trkpt><trkpt lat="39.8396741" lon="20.57501"><ele>394.0</ele><time>2026-05-03T06:50:35.742Z</time></trkpt><trkpt lat="39.8397863" lon="20.574933"><ele>394.0</ele><time>2026-05-03T06:50:36.742Z</time></trkpt><trkpt lat="39.8398998" lon="20.574894"><ele>394.0</ele><time>2026-05-03T06:50:37.742Z</time></trkpt><trkpt lat="39.8400181" lon="20.574941"><ele>394.0</ele><time>2026-05-03T06:50:38.743Z</time></trkpt><trkpt lat="39.84013" lon="20.5750087"><ele>394.0</ele><time>2026-05-03T06:50:39.743Z</time></trkpt><trkpt lat="39.8402443" lon="20.5751068"><ele>394.0</ele><time>2026-05-03T06:50:40.742Z</time></trkpt><trkpt lat="39.8403524" lon="20.5752037"><ele>394.0</ele><time>2026-05-03T06:50:41.743Z</time></trkpt><trkpt lat="39.8404608" lon="20.5752731"><ele>394.5</ele><time>2026-05-03T06:50:42.743Z</time></trkpt><trkpt lat="39.8405764" lon="20.575315"><ele>395.0</ele><time>2026-05-03T06:50:43.742Z</time></trkpt><trkpt lat="39.8406999" lon="20.5752758"><ele>395.5</ele><time>2026-05-03T06:50:44.743Z</time></trkpt><trkpt lat="39.8408211" lon="20.5752273"><ele>396.0</ele><time>2026-05-03T06:50:45.742Z</time></trkpt><trkpt lat="39.8409453" lon="20.5751355"><ele>395.75</ele><time>2026-05-03T06:50:46.743Z</time></trkpt><trkpt lat="39.8410549" lon="20.5750246"><ele>395.5</ele><time>2026-05-03T06:50:47.742Z</time></trkpt><trkpt lat="39.8411675" lon="20.5749225"><ele>395.25</ele><time>2026-05-03T06:50:48.742Z</time></trkpt><trkpt lat="39.8412822" lon="20.574837"><ele>395.0</ele><time>2026-05-03T06:50:49.743Z</time></trkpt><trkpt lat="39.8414037" lon="20.5747727"><ele>395.0</ele><time>2026-05-03T06:50:50.742Z</time></trkpt><trkpt lat="39.8415415" lon="20.5747197"><ele>395.0</ele><time>2026-05-03T06:50:51.743Z</time></trkpt><trkpt lat="39.8417052" lon="20.5746935"><ele>395.0</ele><time>2026-05-03T06:50:52.742Z</time></trkpt><trkpt lat="39.8418881" lon="20.5746742"><ele>394.3333333333333</ele><time>2026-05-03T06:50:53.742Z</time></trkpt><trkpt lat="39.8420754" lon="20.5746649"><ele>393.66666666666663</ele><time>2026-05-03T06:50:54.742Z</time></trkpt><trkpt lat="39.8422671" lon="20.57466"><ele>393.0</ele><time>2026-05-03T06:50:55.742Z</time></trkpt><trkpt lat="39.8424552" lon="20.5746548"><ele>393.0</ele><time>2026-05-03T06:50:56.743Z</time></trkpt><trkpt lat="39.8426345" lon="20.574652"><ele>393.0</ele><time>2026-05-03T06:50:57.742Z</time></trkpt><trkpt lat="39.8428076" lon="20.5746477"><ele>393.0</ele><time>2026-05-03T06:50:58.743Z</time></trkpt><trkpt lat="39.8429629" lon="20.5746447"><ele>393.0</ele><time>2026-05-03T06:50:59.743Z</time></trkpt><trkpt lat="39.8431253" lon="20.5746362"><ele>393.0</ele><time>2026-05-03T06:51:00.743Z</time></trkpt><trkpt lat="39.8432829" lon="20.5746021"><ele>393.0</ele><time>2026-05-03T06:51:01.743Z</time></trkpt><trkpt lat="39.8434248" lon="20.5745469"><ele>392.5</ele><time>2026-05-03T06:51:02.743Z</time></trkpt><trkpt lat="39.8435649" lon="20.5744873"><ele>392.0</ele><time>2026-05-03T06:51:03.742Z</time></trkpt><trkpt lat="39.8436893" lon="20.5744338"><ele>391.5</ele><time>2026-05-03T06:51:04.743Z</time></trkpt><trkpt lat="39.8438282" lon="20.5744032"><ele>391.0</ele><time>2026-05-03T06:51:05.743Z</time></trkpt><trkpt lat="39.8439675" lon="20.5743973"><ele>391.0</ele><time>2026-05-03T06:51:06.742Z</time></trkpt><trkpt lat="39.8441175" lon="20.574403"><ele>391.0</ele><time>2026-05-03T06:51:07.742Z</time></trkpt><trkpt lat="39.8442592" lon="20.5744169"><ele>391.0</ele><time>2026-05-03T06:51:08.743Z</time></trkpt><trkpt lat="39.8444081" lon="20.5744111"><ele>391.0</ele><time>2026-05-03T06:51:09.743Z</time></trkpt><trkpt lat="39.8445483" lon="20.5744026"><ele>390.75</ele><time>2026-05-03T06:51:10.742Z</time></trkpt><trkpt lat="39.844685" lon="20.5743772"><ele>390.5</ele><time>2026-05-03T06:51:11.742Z</time></trkpt><trkpt lat="39.8448256" lon="20.5743138"><ele>390.25</ele><time>2026-05-03T06:51:12.742Z</time></trkpt><trkpt lat="39.8449642" lon="20.57424"><ele>390.0</ele><time>2026-05-03T06:51:13.742Z</time></trkpt><trkpt lat="39.8451031" lon="20.5741347"><ele>388.33333333333337</ele><time>2026-05-03T06:51:14.741Z</time></trkpt><trkpt lat="39.8452426" lon="20.5740334"><ele>386.6666666666667</ele><time>2026-05-03T06:51:15.743Z</time></trkpt><trkpt lat="39.8453734" lon="20.5739277"><ele>385.0</ele><time>2026-05-03T06:51:16.743Z</time></trkpt><trkpt lat="39.8455124" lon="20.5738385"><ele>385.0</ele><time>2026-05-03T06:51:17.742Z</time></trkpt><trkpt lat="39.8456572" lon="20.5737582"><ele>385.0</ele><time>2026-05-03T06:51:18.743Z</time></trkpt><trkpt lat="39.8457984" lon="20.5736933"><ele>385.0</ele><time>2026-05-03T06:51:19.742Z</time></trkpt><trkpt lat="39.8459392" lon="20.5736418"><ele>386.33333333333337</ele><time>2026-05-03T06:51:20.742Z</time></trkpt><trkpt lat="39.8460899" lon="20.5736035"><ele>387.66666666666663</ele><time>2026-05-03T06:51:21.742Z</time></trkpt><trkpt lat="39.846235" lon="20.5735789"><ele>389.0</ele><time>2026-05-03T06:51:22.742Z</time></trkpt><trkpt lat="39.8463886" lon="20.5735688"><ele>389.0</ele><time>2026-05-03T06:51:23.742Z</time></trkpt><trkpt lat="39.8465401" lon="20.5735553"><ele>389.0</ele><time>2026-05-03T06:51:24.743Z</time></trkpt><trkpt lat="39.8466986" lon="20.5735377"><ele>389.0</ele><time>2026-05-03T06:51:25.742Z</time></trkpt><trkpt lat="39.8468552" lon="20.5735302"><ele>388.3333333333333</ele><time>2026-05-03T06:51:26.742Z</time></trkpt><trkpt lat="39.8470177" lon="20.5735239"><ele>387.66666666666663</ele><time>2026-05-03T06:51:27.743Z</time></trkpt><trkpt lat="39.8471677" lon="20.5735193"><ele>387.0</ele><time>2026-05-03T06:51:28.742Z</time></trkpt><trkpt lat="39.8473282" lon="20.5735055"><ele>387.0</ele><time>2026-05-03T06:51:29.743Z</time></trkpt><trkpt lat="39.8474909" lon="20.5735062"><ele>387.0</ele><time>2026-05-03T06:51:30.742Z</time></trkpt><trkpt lat="39.847649" lon="20.5735204"><ele>387.0</ele><time>2026-05-03T06:51:31.742Z</time></trkpt><trkpt lat="39.8478126" lon="20.5735545"><ele>385.3333333333333</ele><time>2026-05-03T06:51:32.742Z</time></trkpt><trkpt lat="39.8479801" lon="20.5736068"><ele>383.66666666666663</ele><time>2026-05-03T06:51:33.743Z</time></trkpt><trkpt lat="39.8481524" lon="20.573673"><ele>382.0</ele><time>2026-05-03T06:51:34.742Z</time></trkpt><trkpt lat="39.8483218" lon="20.5737484"><ele>382.0</ele><time>2026-05-03T06:51:35.743Z</time></trkpt><trkpt lat="39.8484953" lon="20.5738491"><ele>382.0</ele><time>2026-05-03T06:51:36.743Z</time></trkpt><trkpt lat="39.8486726" lon="20.5739552"><ele>382.0</ele><time>2026-05-03T06:51:37.742Z</time></trkpt><trkpt lat="39.8488633" lon="20.5740575"><ele>382.0</ele><time>2026-05-03T06:51:38.743Z</time></trkpt><trkpt lat="39.8490526" lon="20.5741749"><ele>382.0</ele><time>2026-05-03T06:51:39.742Z</time></trkpt><trkpt lat="39.8492452" lon="20.5742941"><ele>382.0</ele><time>2026-05-03T06:51:40.743Z</time></trkpt><trkpt lat="39.8494373" lon="20.5744123"><ele>381.66666666666663</ele><time>2026-05-03T06:51:41.742Z</time></trkpt><trkpt lat="39.8496301" lon="20.57453"><ele>381.3333333333333</ele><time>2026-05-03T06:51:42.743Z</time></trkpt><trkpt lat="39.8498112" lon="20.5746311"><ele>381.0</ele><time>2026-05-03T06:51:43.742Z</time></trkpt><trkpt lat="39.8499845" lon="20.5747343"><ele>382.0</ele><time>2026-05-03T06:51:44.742Z</time></trkpt><trkpt lat="39.8501509" lon="20.5748273"><ele>383.0</ele><time>2026-05-03T06:51:45.743Z</time></trkpt><trkpt lat="39.8503159" lon="20.5749174"><ele>384.0</ele><time>2026-05-03T06:51:46.742Z</time></trkpt><trkpt lat="39.8504861" lon="20.5749885"><ele>384.0</ele><time>2026-05-03T06:51:47.743Z</time></trkpt><trkpt lat="39.8506582" lon="20.5750366"><ele>384.0</ele><time>2026-05-03T06:51:48.743Z</time></trkpt><trkpt lat="39.8508389" lon="20.5750546"><ele>384.0</ele><time>2026-05-03T06:51:49.743Z</time></trkpt><trkpt lat="39.8510229" lon="20.5750634"><ele>385.66666666666663</ele><time>2026-05-03T06:51:50.743Z</time></trkpt><trkpt lat="39.8512087" lon="20.5750581"><ele>387.3333333333333</ele><time>2026-05-03T06:51:51.742Z</time></trkpt><trkpt lat="39.8513953" lon="20.5750438"><ele>389.0</ele><time>2026-05-03T06:51:52.743Z</time></trkpt><trkpt lat="39.851576" lon="20.5750287"><ele>389.0</ele><time>2026-05-03T06:51:53.743Z</time></trkpt><trkpt lat="39.8517557" lon="20.5750238"><ele>389.0</ele><time>2026-05-03T06:51:54.743Z</time></trkpt><trkpt lat="39.8519318" lon="20.5750217"><ele>389.0</ele><time>2026-05-03T06:51:55.743Z</time></trkpt><trkpt lat="39.852106" lon="20.5750163"><ele>389.3333333333333</ele><time>2026-05-03T06:51:56.742Z</time></trkpt><trkpt lat="39.8522673" lon="20.5750079"><ele>389.66666666666663</ele><time>2026-05-03T06:51:57.742Z</time></trkpt><trkpt lat="39.8524261" lon="20.5749929"><ele>390.0</ele><time>2026-05-03T06:51:58.742Z</time></trkpt><trkpt lat="39.8525775" lon="20.5749602"><ele>388.66666666666663</ele><time>2026-05-03T06:51:59.742Z</time></trkpt><trkpt lat="39.8527429" lon="20.5749123"><ele>387.3333333333333</ele><time>2026-05-03T06:52:00.743Z</time></trkpt><trkpt lat="39.8529056" lon="20.574857"><ele>386.0</ele><time>2026-05-03T06:52:01.742Z</time></trkpt><trkpt lat="39.8530734" lon="20.5747885"><ele>386.0</ele><time>2026-05-03T06:52:02.741Z</time></trkpt><trkpt lat="39.8532447" lon="20.5747119"><ele>386.0</ele><time>2026-05-03T06:52:03.742Z</time></trkpt><trkpt lat="39.8534217" lon="20.5746284"><ele>386.0</ele><time>2026-05-03T06:52:04.742Z</time></trkpt><trkpt lat="39.8536005" lon="20.5745421"><ele>386.66666666666663</ele><time>2026-05-03T06:52:05.742Z</time></trkpt><trkpt lat="39.8537807" lon="20.5744481"><ele>387.33333333333337</ele><time>2026-05-03T06:52:06.742Z</time></trkpt><trkpt lat="39.8539591" lon="20.5743465"><ele>388.0</ele><time>2026-05-03T06:52:07.743Z</time></trkpt><trkpt lat="39.8541345" lon="20.5742451"><ele>387.6666666666667</ele><time>2026-05-03T06:52:08.742Z</time></trkpt><trkpt lat="39.8543116" lon="20.5741433"><ele>387.33333333333337</ele><time>2026-05-03T06:52:09.742Z</time></trkpt><trkpt lat="39.8544822" lon="20.5740165"><ele>387.0</ele><time>2026-05-03T06:52:10.741Z</time></trkpt><trkpt lat="39.8546487" lon="20.5739143"><ele>387.0</ele><time>2026-05-03T06:52:11.743Z</time></trkpt><trkpt lat="39.8548017" lon="20.5738148"><ele>387.0</ele><time>2026-05-03T06:52:12.742Z</time></trkpt><trkpt lat="39.8549395" lon="20.5737105"><ele>387.0</ele><time>2026-05-03T06:52:13.741Z</time></trkpt><trkpt lat="39.8550629" lon="20.5736071"><ele>387.66666666666663</ele><time>2026-05-03T06:52:14.742Z</time></trkpt><trkpt lat="39.8551739" lon="20.5734815"><ele>388.3333333333333</ele><time>2026-05-03T06:52:15.743Z</time></trkpt><trkpt lat="39.8552687" lon="20.5733318"><ele>389.0</ele><time>2026-05-03T06:52:16.742Z</time></trkpt><trkpt lat="39.8553505" lon="20.5731597"><ele>389.0</ele><time>2026-05-03T06:52:17.742Z</time></trkpt><trkpt lat="39.8554156" lon="20.5729625"><ele>389.0</ele><time>2026-05-03T06:52:18.742Z</time></trkpt><trkpt lat="39.855475" lon="20.5727623"><ele>389.0</ele><time>2026-05-03T06:52:19.742Z</time></trkpt><trkpt lat="39.8555301" lon="20.5725456"><ele>389.3333333333333</ele><time>2026-05-03T06:52:20.743Z</time></trkpt><trkpt lat="39.8555873" lon="20.5723354"><ele>389.66666666666663</ele><time>2026-05-03T06:52:21.742Z</time></trkpt><trkpt lat="39.8556515" lon="20.5721257"><ele>390.0</ele><time>2026-05-03T06:52:22.743Z</time></trkpt><trkpt lat="39.8557272" lon="20.5719173"><ele>390.0</ele><time>2026-05-03T06:52:23.742Z</time></trkpt><trkpt lat="39.8558037" lon="20.5717163"><ele>390.0</ele><time>2026-05-03T06:52:24.743Z</time></trkpt><trkpt lat="39.8558839" lon="20.5715074"><ele>390.0</ele><time>2026-05-03T06:52:25.742Z</time></trkpt><trkpt lat="39.855972" lon="20.5712986"><ele>390.66666666666663</ele><time>2026-05-03T06:52:26.742Z</time></trkpt><trkpt lat="39.8560664" lon="20.571091"><ele>391.3333333333333</ele><time>2026-05-03T06:52:27.743Z</time></trkpt><trkpt lat="39.8561523" lon="20.5708831"><ele>392.0</ele><time>2026-05-03T06:52:28.742Z</time></trkpt><trkpt lat="39.8562325" lon="20.570696"><ele>392.0</ele><time>2026-05-03T06:52:29.742Z</time></trkpt><trkpt lat="39.856311" lon="20.5705108"><ele>392.0</ele><time>2026-05-03T06:52:30.742Z</time></trkpt><trkpt lat="39.8563932" lon="20.5703218"><ele>392.0</ele><time>2026-05-03T06:52:31.743Z</time></trkpt><trkpt lat="39.8564881" lon="20.5701621"><ele>392.3333333333333</ele><time>2026-05-03T06:52:32.743Z</time></trkpt><trkpt lat="39.8565964" lon="20.5700177"><ele>392.66666666666663</ele><time>2026-05-03T06:52:33.743Z</time></trkpt><trkpt lat="39.8567248" lon="20.5698878"><ele>393.0</ele><time>2026-05-03T06:52:34.742Z</time></trkpt><trkpt lat="39.8568467" lon="20.5697801"><ele>392.0</ele><time>2026-05-03T06:52:35.741Z</time></trkpt><trkpt lat="39.8569805" lon="20.5696886"><ele>391.0</ele><time>2026-05-03T06:52:36.742Z</time></trkpt><trkpt lat="39.8571164" lon="20.5695932"><ele>390.0</ele><time>2026-05-03T06:52:37.743Z</time></trkpt><trkpt lat="39.8572534" lon="20.5694983"><ele>390.0</ele><time>2026-05-03T06:52:38.741Z</time></trkpt><trkpt lat="39.8573865" lon="20.5694041"><ele>390.0</ele><time>2026-05-03T06:52:39.743Z</time></trkpt><trkpt lat="39.857522" lon="20.5693079"><ele>390.0</ele><time>2026-05-03T06:52:40.743Z</time></trkpt><trkpt lat="39.8576631" lon="20.5692123"><ele>389.0</ele><time>2026-05-03T06:52:41.743Z</time></trkpt><trkpt lat="39.8578011" lon="20.569098"><ele>388.0</ele><time>2026-05-03T06:52:42.742Z</time></trkpt><trkpt lat="39.8579428" lon="20.5689811"><ele>387.0</ele><time>2026-05-03T06:52:43.742Z</time></trkpt><trkpt lat="39.8580842" lon="20.5688554"><ele>387.0</ele><time>2026-05-03T06:52:44.742Z</time></trkpt><trkpt lat="39.8582317" lon="20.5687214"><ele>387.0</ele><time>2026-05-03T06:52:45.742Z</time></trkpt><trkpt lat="39.8583773" lon="20.5685904"><ele>387.0</ele><time>2026-05-03T06:52:46.741Z</time></trkpt><trkpt lat="39.8585199" lon="20.5684501"><ele>387.0</ele><time>2026-05-03T06:52:47.743Z</time></trkpt><trkpt lat="39.8586584" lon="20.5683145"><ele>387.0</ele><time>2026-05-03T06:52:48.742Z</time></trkpt><trkpt lat="39.8587894" lon="20.5681835"><ele>387.0</ele><time>2026-05-03T06:52:49.742Z</time></trkpt><trkpt lat="39.8589141" lon="20.5680528"><ele>387.0</ele><time>2026-05-03T06:52:50.742Z</time></trkpt><trkpt lat="39.8590415" lon="20.5679232"><ele>387.0</ele><time>2026-05-03T06:52:51.743Z</time></trkpt><trkpt lat="39.8591653" lon="20.5677969"><ele>387.0</ele><time>2026-05-03T06:52:52.743Z</time></trkpt><trkpt lat="39.8592933" lon="20.5676865"><ele>387.6</ele><time>2026-05-03T06:52:53.743Z</time></trkpt><trkpt lat="39.8594064" lon="20.5675806"><ele>388.20000000000005</ele><time>2026-05-03T06:52:54.741Z</time></trkpt><trkpt lat="39.8595062" lon="20.5674952"><ele>388.8</ele><time>2026-05-03T06:52:55.742Z</time></trkpt><trkpt lat="39.8595935" lon="20.5674387"><ele>389.4</ele><time>2026-05-03T06:52:56.743Z</time></trkpt><trkpt lat="39.8596685" lon="20.5674147"><ele>390.0</ele><time>2026-05-03T06:52:57.742Z</time></trkpt><trkpt lat="39.8597483" lon="20.5674174"><ele>390.0</ele><time>2026-05-03T06:52:58.742Z</time></trkpt><trkpt lat="39.8598112" lon="20.5674369"><ele>390.0</ele><time>2026-05-03T06:52:59.741Z</time></trkpt><trkpt lat="39.8598768" lon="20.567497"><ele>390.0</ele><time>2026-05-03T06:53:00.743Z</time></trkpt><trkpt lat="39.8599394" lon="20.5675624"><ele>390.0</ele><time>2026-05-03T06:53:01.743Z</time></trkpt><trkpt lat="39.8599878" lon="20.5676361"><ele>390.0</ele><time>2026-05-03T06:53:02.743Z</time></trkpt><trkpt lat="39.8600274" lon="20.5677149"><ele>390.0</ele><time>2026-05-03T06:53:03.743Z</time></trkpt><trkpt lat="39.860053" lon="20.5678163"><ele>390.0</ele><time>2026-05-03T06:53:04.742Z</time></trkpt><trkpt lat="39.8600498" lon="20.5679362"><ele>390.0</ele><time>2026-05-03T06:53:05.742Z</time></trkpt><trkpt lat="39.8600368" lon="20.5680723"><ele>390.0</ele><time>2026-05-03T06:53:06.742Z</time></trkpt><trkpt lat="39.860005" lon="20.5682077"><ele>390.0</ele><time>2026-05-03T06:53:07.743Z</time></trkpt><trkpt lat="39.8599849" lon="20.5683431"><ele>390.0</ele><time>2026-05-03T06:53:08.742Z</time></trkpt><trkpt lat="39.8599518" lon="20.5684884"><ele>390.0</ele><time>2026-05-03T06:53:09.742Z</time></trkpt><trkpt lat="39.8599035" lon="20.5686389"><ele>390.0</ele><time>2026-05-03T06:53:10.743Z</time></trkpt><trkpt lat="39.8598552" lon="20.568798"><ele>390.0</ele><time>2026-05-03T06:53:11.742Z</time></trkpt><trkpt lat="39.8597993" lon="20.5689576"><ele>390.0</ele><time>2026-05-03T06:53:12.742Z</time></trkpt><trkpt lat="39.8597381" lon="20.5691282"><ele>390.75</ele><time>2026-05-03T06:53:13.743Z</time></trkpt><trkpt lat="39.8596855" lon="20.5692979"><ele>391.5</ele><time>2026-05-03T06:53:14.742Z</time></trkpt><trkpt lat="39.8596456" lon="20.5694584"><ele>392.25</ele><time>2026-05-03T06:53:15.742Z</time></trkpt><trkpt lat="39.8596173" lon="20.5696237"><ele>393.0</ele><time>2026-05-03T06:53:16.743Z</time></trkpt><trkpt lat="39.8595986" lon="20.569783"><ele>393.25</ele><time>2026-05-03T06:53:17.742Z</time></trkpt><trkpt lat="39.8595854" lon="20.5699446"><ele>393.5</ele><time>2026-05-03T06:53:18.742Z</time></trkpt><trkpt lat="39.8595778" lon="20.5700918"><ele>393.75</ele><time>2026-05-03T06:53:19.743Z</time></trkpt><trkpt lat="39.8595884" lon="20.5702344"><ele>394.0</ele><time>2026-05-03T06:53:20.742Z</time></trkpt><trkpt lat="39.8596284" lon="20.5703789"><ele>394.0</ele><time>2026-05-03T06:53:21.743Z</time></trkpt><trkpt lat="39.8596841" lon="20.5705224"><ele>394.0</ele><time>2026-05-03T06:53:22.743Z</time></trkpt><trkpt lat="39.8597474" lon="20.5706765"><ele>394.0</ele><time>2026-05-03T06:53:23.742Z</time></trkpt><trkpt lat="39.8597815" lon="20.5708365"><ele>394.0</ele><time>2026-05-03T06:53:24.743Z</time></trkpt><trkpt lat="39.8597983" lon="20.5710147"><ele>394.0</ele><time>2026-05-03T06:53:25.743Z</time></trkpt><trkpt lat="39.8598071" lon="20.5711945"><ele>394.0</ele><time>2026-05-03T06:53:26.742Z</time></trkpt><trkpt lat="39.8598139" lon="20.5713842"><ele>394.0</ele><time>2026-05-03T06:53:27.742Z</time></trkpt><trkpt lat="39.859813" lon="20.5715785"><ele>394.0</ele><time>2026-05-03T06:53:28.743Z</time></trkpt><trkpt lat="39.8598044" lon="20.5717693"><ele>394.0</ele><time>2026-05-03T06:53:29.742Z</time></trkpt><trkpt lat="39.8597864" lon="20.5719555"><ele>394.0</ele><time>2026-05-03T06:53:30.741Z</time></trkpt><trkpt lat="39.8597665" lon="20.5721541"><ele>394.0</ele><time>2026-05-03T06:53:31.741Z</time></trkpt><trkpt lat="39.8597404" lon="20.5723461"><ele>394.0</ele><time>2026-05-03T06:53:32.743Z</time></trkpt><trkpt lat="39.859713" lon="20.5725488"><ele>394.6666666666667</ele><time>2026-05-03T06:53:33.742Z</time></trkpt><trkpt lat="39.8596875" lon="20.5727502"><ele>395.33333333333337</ele><time>2026-05-03T06:53:34.741Z</time></trkpt><trkpt lat="39.8596461" lon="20.5729503"><ele>396.0</ele><time>2026-05-03T06:53:35.742Z</time></trkpt><trkpt lat="39.8596096" lon="20.5731451"><ele>396.5</ele><time>2026-05-03T06:53:36.743Z</time></trkpt><trkpt lat="39.8595703" lon="20.5733401"><ele>397.0</ele><time>2026-05-03T06:53:37.743Z</time></trkpt><trkpt lat="39.8595315" lon="20.5735307"><ele>397.5</ele><time>2026-05-03T06:53:38.743Z</time></trkpt><trkpt lat="39.8595003" lon="20.573703"><ele>398.0</ele><time>2026-05-03T06:53:39.742Z</time></trkpt><trkpt lat="39.8594895" lon="20.5738657"><ele>398.0</ele><time>2026-05-03T06:53:40.743Z</time></trkpt><trkpt lat="39.8594896" lon="20.574024"><ele>398.0</ele><time>2026-05-03T06:53:41.742Z</time></trkpt><trkpt lat="39.859518" lon="20.5741612"><ele>398.0</ele><time>2026-05-03T06:53:42.743Z</time></trkpt><trkpt lat="39.8595662" lon="20.574277"><ele>398.0</ele><time>2026-05-03T06:53:43.743Z</time></trkpt><trkpt lat="39.8596377" lon="20.5743642"><ele>398.0</ele><time>2026-05-03T06:53:44.743Z</time></trkpt><trkpt lat="39.8597365" lon="20.574434"><ele>398.0</ele><time>2026-05-03T06:53:45.742Z</time></trkpt><trkpt lat="39.8598433" lon="20.5745072"><ele>398.0</ele><time>2026-05-03T06:53:46.742Z</time></trkpt><trkpt lat="39.8599541" lon="20.574579"><ele>398.0</ele><time>2026-05-03T06:53:47.743Z</time></trkpt><trkpt lat="39.8600655" lon="20.5746423"><ele>398.0</ele><time>2026-05-03T06:53:48.743Z</time></trkpt><trkpt lat="39.8601798" lon="20.5746746"><ele>396.5</ele><time>2026-05-03T06:53:49.743Z</time></trkpt><trkpt lat="39.8603072" lon="20.5746732"><ele>395.0</ele><time>2026-05-03T06:53:50.743Z</time></trkpt><trkpt lat="39.8604527" lon="20.5746596"><ele>393.5</ele><time>2026-05-03T06:53:51.742Z</time></trkpt><trkpt lat="39.8606038" lon="20.5746378"><ele>392.0</ele><time>2026-05-03T06:53:52.743Z</time></trkpt><trkpt lat="39.8607616" lon="20.5746174"><ele>392.0</ele><time>2026-05-03T06:53:53.742Z</time></trkpt><trkpt lat="39.8609118" lon="20.5745888"><ele>392.0</ele><time>2026-05-03T06:53:54.742Z</time></trkpt><trkpt lat="39.861059" lon="20.5745686"><ele>392.0</ele><time>2026-05-03T06:53:55.743Z</time></trkpt><trkpt lat="39.8612006" lon="20.5745479"><ele>392.0</ele><time>2026-05-03T06:53:56.743Z</time></trkpt><trkpt lat="39.8613359" lon="20.5745179"><ele>393.0</ele><time>2026-05-03T06:53:57.742Z</time></trkpt><trkpt lat="39.8614783" lon="20.5744809"><ele>394.0</ele><time>2026-05-03T06:53:58.743Z</time></trkpt><trkpt lat="39.8616406" lon="20.5744533"><ele>395.0</ele><time>2026-05-03T06:53:59.742Z</time></trkpt><trkpt lat="39.8618032" lon="20.5744234"><ele>395.0</ele><time>2026-05-03T06:54:00.743Z</time></trkpt><trkpt lat="39.8619512" lon="20.5743839"><ele>395.0</ele><time>2026-05-03T06:54:01.742Z</time></trkpt><trkpt lat="39.8620927" lon="20.5743535"><ele>395.0</ele><time>2026-05-03T06:54:02.743Z</time></trkpt><trkpt lat="39.8622185" lon="20.5743476"><ele>395.0</ele><time>2026-05-03T06:54:03.743Z</time></trkpt><trkpt lat="39.8623376" lon="20.5743775"><ele>395.0</ele><time>2026-05-03T06:54:04.742Z</time></trkpt><trkpt lat="39.8624492" lon="20.5744371"><ele>395.0</ele><time>2026-05-03T06:54:05.742Z</time></trkpt><trkpt lat="39.8625782" lon="20.5745482"><ele>395.0</ele><time>2026-05-03T06:54:06.741Z</time></trkpt><trkpt lat="39.8627187" lon="20.5746761"><ele>395.0</ele><time>2026-05-03T06:54:07.743Z</time></trkpt><trkpt lat="39.8628589" lon="20.5748134"><ele>393.3333333333333</ele><time>2026-05-03T06:54:08.743Z</time></trkpt><trkpt lat="39.8630047" lon="20.5749539"><ele>391.66666666666663</ele><time>2026-05-03T06:54:09.742Z</time></trkpt><trkpt lat="39.8631447" lon="20.5750946"><ele>390.0</ele><time>2026-05-03T06:54:10.742Z</time></trkpt><trkpt lat="39.8632799" lon="20.5752428"><ele>389.66666666666663</ele><time>2026-05-03T06:54:11.743Z</time></trkpt><trkpt lat="39.8634106" lon="20.5753881"><ele>389.3333333333333</ele><time>2026-05-03T06:54:12.742Z</time></trkpt><trkpt lat="39.8635122" lon="20.5755693"><ele>389.0</ele><time>2026-05-03T06:54:13.743Z</time></trkpt><trkpt lat="39.8636116" lon="20.5757597"><ele>389.0</ele><time>2026-05-03T06:54:14.742Z</time></trkpt><trkpt lat="39.8637035" lon="20.5759657"><ele>389.0</ele><time>2026-05-03T06:54:15.742Z</time></trkpt><trkpt lat="39.8637951" lon="20.5761744"><ele>389.0</ele><time>2026-05-03T06:54:16.742Z</time></trkpt><trkpt lat="39.8638844" lon="20.5763864"><ele>389.3333333333333</ele><time>2026-05-03T06:54:17.742Z</time></trkpt><trkpt lat="39.8639756" lon="20.5765986"><ele>389.66666666666663</ele><time>2026-05-03T06:54:18.742Z</time></trkpt><trkpt lat="39.864061" lon="20.5768076"><ele>390.0</ele><time>2026-05-03T06:54:19.743Z</time></trkpt><trkpt lat="39.8641446" lon="20.576997"><ele>390.33333333333337</ele><time>2026-05-03T06:54:20.742Z</time></trkpt><trkpt lat="39.864236" lon="20.5771708"><ele>390.6666666666667</ele><time>2026-05-03T06:54:21.742Z</time></trkpt><trkpt lat="39.8643373" lon="20.5773336"><ele>391.0</ele><time>2026-05-03T06:54:22.742Z</time></trkpt><trkpt lat="39.864462" lon="20.5774813"><ele>393.0</ele><time>2026-05-03T06:54:23.743Z</time></trkpt><trkpt lat="39.8645995" lon="20.5776162"><ele>395.0</ele><time>2026-05-03T06:54:24.742Z</time></trkpt><trkpt lat="39.8647509" lon="20.5777299"><ele>397.0</ele><time>2026-05-03T06:54:25.743Z</time></trkpt><trkpt lat="39.8649035" lon="20.5778393"><ele>397.6666666666667</ele><time>2026-05-03T06:54:26.743Z</time></trkpt><trkpt lat="39.8650592" lon="20.5779375"><ele>398.33333333333337</ele><time>2026-05-03T06:54:27.742Z</time></trkpt><trkpt lat="39.8652045" lon="20.5780302"><ele>399.0</ele><time>2026-05-03T06:54:28.743Z</time></trkpt><trkpt lat="39.8653453" lon="20.5781106"><ele>399.33333333333337</ele><time>2026-05-03T06:54:29.743Z</time></trkpt><trkpt lat="39.8654905" lon="20.5781612"><ele>399.6666666666667</ele><time>2026-05-03T06:54:30.742Z</time></trkpt><trkpt lat="39.8656488" lon="20.5781867"><ele>400.0</ele><time>2026-05-03T06:54:31.743Z</time></trkpt><trkpt lat="39.8658168" lon="20.5781821"><ele>401.0</ele><time>2026-05-03T06:54:32.743Z</time></trkpt><trkpt lat="39.8660055" lon="20.5781548"><ele>402.0</ele><time>2026-05-03T06:54:33.742Z</time></trkpt><trkpt lat="39.866211" lon="20.5781176"><ele>403.0</ele><time>2026-05-03T06:54:34.742Z</time></trkpt><trkpt lat="39.8664224" lon="20.5780722"><ele>403.0</ele><time>2026-05-03T06:54:35.743Z</time></trkpt><trkpt lat="39.8666412" lon="20.5780248"><ele>403.0</ele><time>2026-05-03T06:54:36.742Z</time></trkpt><trkpt lat="39.866867" lon="20.5779707"><ele>403.0</ele><time>2026-05-03T06:54:37.743Z</time></trkpt><trkpt lat="39.8671031" lon="20.5779208"><ele>403.0</ele><time>2026-05-03T06:54:38.743Z</time></trkpt><trkpt lat="39.8673508" lon="20.5778638"><ele>403.0</ele><time>2026-05-03T06:54:39.743Z</time></trkpt><trkpt lat="39.8675924" lon="20.5778047"><ele>403.0</ele><time>2026-05-03T06:54:40.742Z</time></trkpt><trkpt lat="39.8678319" lon="20.5777496"><ele>404.0</ele><time>2026-05-03T06:54:41.743Z</time></trkpt><trkpt lat="39.8680678" lon="20.5776992"><ele>405.0</ele><time>2026-05-03T06:54:42.742Z</time></trkpt><trkpt lat="39.8683037" lon="20.5776424"><ele>406.0</ele><time>2026-05-03T06:54:43.742Z</time></trkpt><trkpt lat="39.8685334" lon="20.5775826"><ele>407.0</ele><time>2026-05-03T06:54:44.742Z</time></trkpt><trkpt lat="39.8687607" lon="20.5775238"><ele>407.0</ele><time>2026-05-03T06:54:45.742Z</time></trkpt><trkpt lat="39.8689873" lon="20.5774664"><ele>407.0</ele><time>2026-05-03T06:54:46.743Z</time></trkpt><trkpt lat="39.8692155" lon="20.5774133"><ele>407.5</ele><time>2026-05-03T06:54:47.742Z</time></trkpt><trkpt lat="39.8694411" lon="20.5773703"><ele>408.0</ele><time>2026-05-03T06:54:48.743Z</time></trkpt><trkpt lat="39.8696654" lon="20.5773171"><ele>408.0</ele><time>2026-05-03T06:54:49.743Z</time></trkpt><trkpt lat="39.8698937" lon="20.5772581"><ele>408.0</ele><time>2026-05-03T06:54:50.743Z</time></trkpt><trkpt lat="39.8701258" lon="20.5772077"><ele>408.5</ele><time>2026-05-03T06:54:51.742Z</time></trkpt><trkpt lat="39.87036" lon="20.5771578"><ele>409.0</ele><time>2026-05-03T06:54:52.742Z</time></trkpt><trkpt lat="39.8705938" lon="20.5771095"><ele>409.0</ele><time>2026-05-03T06:54:53.743Z</time></trkpt><trkpt lat="39.8708249" lon="20.5770561"><ele>409.0</ele><time>2026-05-03T06:54:54.742Z</time></trkpt><trkpt lat="39.8710588" lon="20.5769946"><ele>410.0</ele><time>2026-05-03T06:54:55.743Z</time></trkpt><trkpt lat="39.8712892" lon="20.5769402"><ele>411.0</ele><time>2026-05-03T06:54:56.742Z</time></trkpt><trkpt lat="39.8715168" lon="20.5768815"><ele>411.0</ele><time>2026-05-03T06:54:57.742Z</time></trkpt><trkpt lat="39.8717393" lon="20.5768276"><ele>411.0</ele><time>2026-05-03T06:54:58.743Z</time></trkpt><trkpt lat="39.8719604" lon="20.5767729"><ele>410.5</ele><time>2026-05-03T06:54:59.742Z</time></trkpt><trkpt lat="39.8721816" lon="20.5767184"><ele>410.0</ele><time>2026-05-03T06:55:00.743Z</time></trkpt><trkpt lat="39.8724067" lon="20.576662"><ele>411.5</ele><time>2026-05-03T06:55:01.743Z</time></trkpt><trkpt lat="39.8726319" lon="20.5766111"><ele>413.0</ele><time>2026-05-03T06:55:02.742Z</time></trkpt><trkpt lat="39.8728569" lon="20.5765601"><ele>413.0</ele><time>2026-05-03T06:55:03.743Z</time></trkpt><trkpt lat="39.8730826" lon="20.5765059"><ele>413.0</ele><time>2026-05-03T06:55:04.742Z</time></trkpt><trkpt lat="39.8733083" lon="20.5764488"><ele>414.0</ele><time>2026-05-03T06:55:05.742Z</time></trkpt><trkpt lat="39.8735359" lon="20.5763974"><ele>415.0</ele><time>2026-05-03T06:55:06.743Z</time></trkpt><trkpt lat="39.8737596" lon="20.5763421"><ele>415.0</ele><time>2026-05-03T06:55:07.742Z</time></trkpt><trkpt lat="39.8739908" lon="20.5762882"><ele>415.0</ele><time>2026-05-03T06:55:08.743Z</time></trkpt><trkpt lat="39.8742209" lon="20.5762333"><ele>415.5</ele><time>2026-05-03T06:55:09.743Z</time></trkpt><trkpt lat="39.8744512" lon="20.5761741"><ele>416.0</ele><time>2026-05-03T06:55:10.742Z</time></trkpt><trkpt lat="39.87468" lon="20.5761192"><ele>416.0</ele><time>2026-05-03T06:55:11.743Z</time></trkpt><trkpt lat="39.8749126" lon="20.576079"><ele>416.0</ele><time>2026-05-03T06:55:12.743Z</time></trkpt><trkpt lat="39.8751437" lon="20.5760217"><ele>416.5</ele><time>2026-05-03T06:55:13.742Z</time></trkpt><trkpt lat="39.8753683" lon="20.5759682"><ele>417.0</ele><time>2026-05-03T06:55:14.742Z</time></trkpt><trkpt lat="39.8755958" lon="20.5759137"><ele>417.0</ele><time>2026-05-03T06:55:15.74Z</time></trkpt><trkpt lat="39.8758355" lon="20.5758535"><ele>417.0</ele><time>2026-05-03T06:55:16.742Z</time></trkpt><trkpt lat="39.8760661" lon="20.5757922"><ele>417.0</ele><time>2026-05-03T06:55:17.743Z</time></trkpt><trkpt lat="39.8762979" lon="20.5757349"><ele>417.0</ele><time>2026-05-03T06:55:18.742Z</time></trkpt><trkpt lat="39.8765277" lon="20.5756843"><ele>417.0</ele><time>2026-05-03T06:55:19.742Z</time></trkpt><trkpt lat="39.8767551" lon="20.5756325"><ele>417.0</ele><time>2026-05-03T06:55:20.742Z</time></trkpt><trkpt lat="39.8769784" lon="20.5755838"><ele>417.33333333333337</ele><time>2026-05-03T06:55:21.743Z</time></trkpt><trkpt lat="39.8772025" lon="20.5755461"><ele>417.6666666666667</ele><time>2026-05-03T06:55:22.743Z</time></trkpt><trkpt lat="39.8774232" lon="20.5755173"><ele>418.0</ele><time>2026-05-03T06:55:23.742Z</time></trkpt><trkpt lat="39.8776485" lon="20.5754859"><ele>418.5</ele><time>2026-05-03T06:55:24.743Z</time></trkpt><trkpt lat="39.8778743" lon="20.5754559"><ele>419.0</ele><time>2026-05-03T06:55:25.743Z</time></trkpt><trkpt lat="39.8781006" lon="20.5754303"><ele>419.0</ele><time>2026-05-03T06:55:26.742Z</time></trkpt><trkpt lat="39.8783211" lon="20.5754118"><ele>419.0</ele><time>2026-05-03T06:55:27.742Z</time></trkpt><trkpt lat="39.8785445" lon="20.5753843"><ele>419.0</ele><time>2026-05-03T06:55:28.742Z</time></trkpt><trkpt lat="39.878766" lon="20.5753605"><ele>421.0</ele><time>2026-05-03T06:55:29.743Z</time></trkpt><trkpt lat="39.8789886" lon="20.5753326"><ele>423.0</ele><time>2026-05-03T06:55:30.742Z</time></trkpt><trkpt lat="39.879212" lon="20.5753066"><ele>425.0</ele><time>2026-05-03T06:55:31.742Z</time></trkpt><trkpt lat="39.8794369" lon="20.5752832"><ele>428.3333333333333</ele><time>2026-05-03T06:55:32.742Z</time></trkpt><trkpt lat="39.8796561" lon="20.5752626"><ele>431.66666666666663</ele><time>2026-05-03T06:55:33.743Z</time></trkpt><trkpt lat="39.879869" lon="20.5752474"><ele>435.0</ele><time>2026-05-03T06:55:34.742Z</time></trkpt><trkpt lat="39.8800879" lon="20.5752276"><ele>436.0</ele><time>2026-05-03T06:55:35.742Z</time></trkpt><trkpt lat="39.8803134" lon="20.5752075"><ele>437.0</ele><time>2026-05-03T06:55:36.742Z</time></trkpt><trkpt lat="39.8805045" lon="20.575189"><ele>438.0</ele><time>2026-05-03T06:55:37.743Z</time></trkpt><trkpt lat="39.8806971" lon="20.5751718"><ele>438.0</ele><time>2026-05-03T06:55:38.742Z</time></trkpt><trkpt lat="39.8808848" lon="20.5751541"><ele>438.0</ele><time>2026-05-03T06:55:39.742Z</time></trkpt><trkpt lat="39.8810616" lon="20.5751103"><ele>438.0</ele><time>2026-05-03T06:55:40.742Z</time></trkpt><trkpt lat="39.881232" lon="20.5750445"><ele>435.66666666666663</ele><time>2026-05-03T06:55:41.743Z</time></trkpt><trkpt lat="39.8813987" lon="20.5749576"><ele>433.3333333333333</ele><time>2026-05-03T06:55:42.741Z</time></trkpt><trkpt lat="39.8815691" lon="20.5748515"><ele>431.0</ele><time>2026-05-03T06:55:43.742Z</time></trkpt><trkpt lat="39.8817271" lon="20.5747281"><ele>430.0</ele><time>2026-05-03T06:55:44.742Z</time></trkpt><trkpt lat="39.8818819" lon="20.5746001"><ele>429.0</ele><time>2026-05-03T06:55:45.743Z</time></trkpt><trkpt lat="39.8820254" lon="20.574462"><ele>428.0</ele><time>2026-05-03T06:55:46.743Z</time></trkpt><trkpt lat="39.8821602" lon="20.5743245"><ele>428.0</ele><time>2026-05-03T06:55:47.743Z</time></trkpt><trkpt lat="39.8822833" lon="20.5741754"><ele>428.0</ele><time>2026-05-03T06:55:48.742Z</time></trkpt><trkpt lat="39.8824001" lon="20.5739983"><ele>428.0</ele><time>2026-05-03T06:55:49.743Z</time></trkpt><trkpt lat="39.8825086" lon="20.5738113"><ele>425.66666666666663</ele><time>2026-05-03T06:55:50.743Z</time></trkpt><trkpt lat="39.8826103" lon="20.5735971"><ele>423.33333333333337</ele><time>2026-05-03T06:55:51.742Z</time></trkpt><trkpt lat="39.8827105" lon="20.5733735"><ele>421.0</ele><time>2026-05-03T06:55:52.743Z</time></trkpt><trkpt lat="39.8828087" lon="20.5731423"><ele>421.0</ele><time>2026-05-03T06:55:53.742Z</time></trkpt><trkpt lat="39.8829042" lon="20.5729106"><ele>421.0</ele><time>2026-05-03T06:55:54.742Z</time></trkpt><trkpt lat="39.8830074" lon="20.5726716"><ele>421.0</ele><time>2026-05-03T06:55:55.743Z</time></trkpt><trkpt lat="39.8830966" lon="20.572452"><ele>420.33333333333337</ele><time>2026-05-03T06:55:56.74Z</time></trkpt><trkpt lat="39.8831864" lon="20.5722317"><ele>419.66666666666663</ele><time>2026-05-03T06:55:57.743Z</time></trkpt><trkpt lat="39.8832825" lon="20.5720333"><ele>419.0</ele><time>2026-05-03T06:55:58.743Z</time></trkpt><trkpt lat="39.8833896" lon="20.5718603"><ele>416.3333333333333</ele><time>2026-05-03T06:55:59.742Z</time></trkpt><trkpt lat="39.883507" lon="20.5717108"><ele>413.66666666666663</ele><time>2026-05-03T06:56:00.742Z</time></trkpt><trkpt lat="39.8836342" lon="20.571586"><ele>411.0</ele><time>2026-05-03T06:56:01.742Z</time></trkpt><trkpt lat="39.883774" lon="20.5714956"><ele>411.0</ele><time>2026-05-03T06:56:02.743Z</time></trkpt><trkpt lat="39.8839357" lon="20.5714308"><ele>411.0</ele><time>2026-05-03T06:56:03.743Z</time></trkpt><trkpt lat="39.8841033" lon="20.5713906"><ele>411.0</ele><time>2026-05-03T06:56:04.742Z</time></trkpt><trkpt lat="39.8843242" lon="20.5713831"><ele>410.0</ele><time>2026-05-03T06:56:05.742Z</time></trkpt><trkpt lat="39.884541" lon="20.5713802"><ele>409.0</ele><time>2026-05-03T06:56:06.742Z</time></trkpt><trkpt lat="39.8847781" lon="20.5713872"><ele>409.0</ele><time>2026-05-03T06:56:07.742Z</time></trkpt><trkpt lat="39.8850161" lon="20.5713941"><ele>409.0</ele><time>2026-05-03T06:56:08.742Z</time></trkpt><trkpt lat="39.8852464" lon="20.5714031"><ele>407.6666666666667</ele><time>2026-05-03T06:56:09.743Z</time></trkpt><trkpt lat="39.8854666" lon="20.5714096"><ele>406.33333333333337</ele><time>2026-05-03T06:56:10.742Z</time></trkpt><trkpt lat="39.8856845" lon="20.5714261"><ele>405.0</ele><time>2026-05-03T06:56:11.742Z</time></trkpt><trkpt lat="39.8858956" lon="20.5714287"><ele>406.33333333333337</ele><time>2026-05-03T06:56:12.743Z</time></trkpt><trkpt lat="39.8860895" lon="20.5714347"><ele>407.6666666666667</ele><time>2026-05-03T06:56:13.742Z</time></trkpt><trkpt lat="39.8862881" lon="20.571446"><ele>409.0</ele><time>2026-05-03T06:56:14.742Z</time></trkpt><trkpt lat="39.8864785" lon="20.5714442"><ele>409.0</ele><time>2026-05-03T06:56:15.742Z</time></trkpt><trkpt lat="39.8866679" lon="20.5714302"><ele>409.0</ele><time>2026-05-03T06:56:16.742Z</time></trkpt><trkpt lat="39.8868527" lon="20.5713956"><ele>409.0</ele><time>2026-05-03T06:56:17.743Z</time></trkpt><trkpt lat="39.8870284" lon="20.5713483"><ele>410.6666666666667</ele><time>2026-05-03T06:56:18.743Z</time></trkpt><trkpt lat="39.8871913" lon="20.5713049"><ele>412.33333333333337</ele><time>2026-05-03T06:56:19.743Z</time></trkpt><trkpt lat="39.8873437" lon="20.5712482"><ele>414.0</ele><time>2026-05-03T06:56:20.742Z</time></trkpt><trkpt lat="39.8874833" lon="20.5711934"><ele>415.0</ele><time>2026-05-03T06:56:21.742Z</time></trkpt><trkpt lat="39.8876094" lon="20.5711483"><ele>416.0</ele><time>2026-05-03T06:56:22.743Z</time></trkpt><trkpt lat="39.8877191" lon="20.5711063"><ele>417.0</ele><time>2026-05-03T06:56:23.743Z</time></trkpt><trkpt lat="39.887809" lon="20.5710759"><ele>418.0</ele><time>2026-05-03T06:56:24.743Z</time></trkpt><trkpt lat="39.8878964" lon="20.5710499"><ele>419.0</ele><time>2026-05-03T06:56:25.743Z</time></trkpt><trkpt lat="39.8879801" lon="20.5710268"><ele>419.0</ele><time>2026-05-03T06:56:26.743Z</time></trkpt><trkpt lat="39.888073" lon="20.5709882"><ele>419.0</ele><time>2026-05-03T06:56:27.743Z</time></trkpt><trkpt lat="39.8881813" lon="20.5709603"><ele>419.0</ele><time>2026-05-03T06:56:28.743Z</time></trkpt><trkpt lat="39.8882946" lon="20.5709323"><ele>419.0</ele><time>2026-05-03T06:56:29.743Z</time></trkpt><trkpt lat="39.8884281" lon="20.570914"><ele>420.25</ele><time>2026-05-03T06:56:30.742Z</time></trkpt><trkpt lat="39.8885681" lon="20.5709055"><ele>421.5</ele><time>2026-05-03T06:56:31.743Z</time></trkpt><trkpt lat="39.8887164" lon="20.5709093"><ele>422.75</ele><time>2026-05-03T06:56:32.743Z</time></trkpt><trkpt lat="39.8888681" lon="20.5709219"><ele>424.0</ele><time>2026-05-03T06:56:33.743Z</time></trkpt><trkpt lat="39.8890336" lon="20.5709374"><ele>424.0</ele><time>2026-05-03T06:56:34.742Z</time></trkpt><trkpt lat="39.8892085" lon="20.5709676"><ele>424.0</ele><time>2026-05-03T06:56:35.743Z</time></trkpt><trkpt lat="39.8893825" lon="20.5709838"><ele>424.0</ele><time>2026-05-03T06:56:36.742Z</time></trkpt><trkpt lat="39.8895732" lon="20.5710095"><ele>425.33333333333337</ele><time>2026-05-03T06:56:37.742Z</time></trkpt><trkpt lat="39.8897534" lon="20.5710346"><ele>426.66666666666663</ele><time>2026-05-03T06:56:38.742Z</time></trkpt><trkpt lat="39.8899426" lon="20.5710509"><ele>428.0</ele><time>2026-05-03T06:56:39.742Z</time></trkpt><trkpt lat="39.8901194" lon="20.5710737"><ele>428.0</ele><time>2026-05-03T06:56:40.742Z</time></trkpt><trkpt lat="39.8902959" lon="20.5711049"><ele>428.0</ele><time>2026-05-03T06:56:41.743Z</time></trkpt><trkpt lat="39.8904636" lon="20.5711317"><ele>428.0</ele><time>2026-05-03T06:56:42.743Z</time></trkpt><trkpt lat="39.8906195" lon="20.571158"><ele>428.0</ele><time>2026-05-03T06:56:43.743Z</time></trkpt><trkpt lat="39.8907717" lon="20.5711746"><ele>428.0</ele><time>2026-05-03T06:56:44.743Z</time></trkpt><trkpt lat="39.8909073" lon="20.5711937"><ele>428.0</ele><time>2026-05-03T06:56:45.743Z</time></trkpt><trkpt lat="39.891028" lon="20.5712175"><ele>428.0</ele><time>2026-05-03T06:56:46.742Z</time></trkpt><trkpt lat="39.8911257" lon="20.5712329"><ele>428.49999999999994</ele><time>2026-05-03T06:56:47.743Z</time></trkpt><trkpt lat="39.8911934" lon="20.571253"><ele>429.0</ele><time>2026-05-03T06:56:48.743Z</time></trkpt><trkpt lat="39.891258" lon="20.5712743"><ele>429.5</ele><time>2026-05-03T06:56:49.743Z</time></trkpt><trkpt lat="39.8913576" lon="20.5712742"><ele>430.0</ele><time>2026-05-03T06:56:51.743Z</time></trkpt><trkpt lat="39.8914225" lon="20.5712099"><ele>430.49999999999994</ele><time>2026-05-03T06:56:53.742Z</time></trkpt><trkpt lat="39.8914495" lon="20.571124"><ele>431.0</ele><time>2026-05-03T06:56:54.742Z</time></trkpt><trkpt lat="39.8914515" lon="20.5710224"><ele>431.0</ele><time>2026-05-03T06:56:55.743Z</time></trkpt><trkpt lat="39.8914465" lon="20.5708944"><ele>431.0</ele><time>2026-05-03T06:56:56.743Z</time></trkpt><trkpt lat="39.8914265" lon="20.5707433"><ele>431.0</ele><time>2026-05-03T06:56:57.742Z</time></trkpt><trkpt lat="39.8914053" lon="20.5705635"><ele>431.0</ele><time>2026-05-03T06:56:58.742Z</time></trkpt><trkpt lat="39.8913889" lon="20.5703802"><ele>430.3333333333333</ele><time>2026-05-03T06:56:59.742Z</time></trkpt><trkpt lat="39.8913809" lon="20.5701911"><ele>429.66666666666663</ele><time>2026-05-03T06:57:00.743Z</time></trkpt><trkpt lat="39.8913706" lon="20.5699818"><ele>429.0</ele><time>2026-05-03T06:57:01.743Z</time></trkpt><trkpt lat="39.8913665" lon="20.569775"><ele>429.0</ele><time>2026-05-03T06:57:02.743Z</time></trkpt><trkpt lat="39.891377" lon="20.5695672"><ele>429.0</ele><time>2026-05-03T06:57:03.743Z</time></trkpt><trkpt lat="39.8914005" lon="20.5693525"><ele>429.0</ele><time>2026-05-03T06:57:04.743Z</time></trkpt><trkpt lat="39.891429" lon="20.5691306"><ele>427.66666666666663</ele><time>2026-05-03T06:57:05.743Z</time></trkpt><trkpt lat="39.8914658" lon="20.5689013"><ele>426.3333333333333</ele><time>2026-05-03T06:57:06.742Z</time></trkpt><trkpt lat="39.8915084" lon="20.568672"><ele>425.0</ele><time>2026-05-03T06:57:07.743Z</time></trkpt><trkpt lat="39.8915577" lon="20.5684332"><ele>425.0</ele><time>2026-05-03T06:57:08.742Z</time></trkpt><trkpt lat="39.8916" lon="20.5681992"><ele>425.0</ele><time>2026-05-03T06:57:09.742Z</time></trkpt><trkpt lat="39.8916564" lon="20.5679497"><ele>425.0</ele><time>2026-05-03T06:57:10.742Z</time></trkpt><trkpt lat="39.8917157" lon="20.5676989"><ele>424.0</ele><time>2026-05-03T06:57:11.742Z</time></trkpt><trkpt lat="39.8917762" lon="20.56744"><ele>423.0</ele><time>2026-05-03T06:57:12.742Z</time></trkpt><trkpt lat="39.8918386" lon="20.5671833"><ele>422.0</ele><time>2026-05-03T06:57:13.743Z</time></trkpt><trkpt lat="39.8918993" lon="20.5669262"><ele>421.3333333333333</ele><time>2026-05-03T06:57:14.743Z</time></trkpt><trkpt lat="39.8919605" lon="20.5666687"><ele>420.66666666666663</ele><time>2026-05-03T06:57:15.743Z</time></trkpt><trkpt lat="39.8920191" lon="20.5664173"><ele>420.0</ele><time>2026-05-03T06:57:16.743Z</time></trkpt><trkpt lat="39.8920738" lon="20.5661637"><ele>421.66666666666663</ele><time>2026-05-03T06:57:17.742Z</time></trkpt><trkpt lat="39.8921201" lon="20.5659038"><ele>423.3333333333333</ele><time>2026-05-03T06:57:18.743Z</time></trkpt><trkpt lat="39.8921529" lon="20.5656432"><ele>425.0</ele><time>2026-05-03T06:57:19.742Z</time></trkpt><trkpt lat="39.8921782" lon="20.5653803"><ele>426.0</ele><time>2026-05-03T06:57:20.743Z</time></trkpt><trkpt lat="39.8921965" lon="20.5651166"><ele>427.0</ele><time>2026-05-03T06:57:21.742Z</time></trkpt><trkpt lat="39.892205" lon="20.5648536"><ele>428.0</ele><time>2026-05-03T06:57:22.743Z</time></trkpt><trkpt lat="39.8922134" lon="20.5645927"><ele>428.66666666666663</ele><time>2026-05-03T06:57:23.743Z</time></trkpt><trkpt lat="39.8922207" lon="20.5643375"><ele>429.33333333333337</ele><time>2026-05-03T06:57:24.742Z</time></trkpt><trkpt lat="39.8922291" lon="20.5640891"><ele>430.0</ele><time>2026-05-03T06:57:25.742Z</time></trkpt><trkpt lat="39.8922422" lon="20.5638493"><ele>430.6666666666667</ele><time>2026-05-03T06:57:26.743Z</time></trkpt><trkpt lat="39.8922573" lon="20.5636155"><ele>431.33333333333337</ele><time>2026-05-03T06:57:27.743Z</time></trkpt><trkpt lat="39.8922815" lon="20.5633847"><ele>432.0</ele><time>2026-05-03T06:57:28.743Z</time></trkpt><trkpt lat="39.8923119" lon="20.5631561"><ele>432.0</ele><time>2026-05-03T06:57:29.743Z</time></trkpt><trkpt lat="39.8923586" lon="20.5629388"><ele>432.0</ele><time>2026-05-03T06:57:30.742Z</time></trkpt><trkpt lat="39.8924188" lon="20.5627305"><ele>432.0</ele><time>2026-05-03T06:57:31.742Z</time></trkpt><trkpt lat="39.8925015" lon="20.5625131"><ele>434.66666666666663</ele><time>2026-05-03T06:57:32.742Z</time></trkpt><trkpt lat="39.8926106" lon="20.5622962"><ele>437.3333333333333</ele><time>2026-05-03T06:57:33.743Z</time></trkpt><trkpt lat="39.8927243" lon="20.5620868"><ele>440.0</ele><time>2026-05-03T06:57:34.743Z</time></trkpt><trkpt lat="39.8928463" lon="20.5618772"><ele>440.0</ele><time>2026-05-03T06:57:35.743Z</time></trkpt><trkpt lat="39.8929703" lon="20.5616694"><ele>440.0</ele><time>2026-05-03T06:57:36.742Z</time></trkpt><trkpt lat="39.8930901" lon="20.5614674"><ele>440.0</ele><time>2026-05-03T06:57:37.743Z</time></trkpt><trkpt lat="39.8932132" lon="20.5612624"><ele>439.0</ele><time>2026-05-03T06:57:38.743Z</time></trkpt><trkpt lat="39.8933438" lon="20.5610719"><ele>438.0</ele><time>2026-05-03T06:57:39.743Z</time></trkpt><trkpt lat="39.8934828" lon="20.5608854"><ele>437.0</ele><time>2026-05-03T06:57:40.742Z</time></trkpt><trkpt lat="39.89363" lon="20.5607034"><ele>439.0</ele><time>2026-05-03T06:57:41.743Z</time></trkpt><trkpt lat="39.8937844" lon="20.5605304"><ele>441.0</ele><time>2026-05-03T06:57:42.743Z</time></trkpt><trkpt lat="39.893947" lon="20.5603642"><ele>443.0</ele><time>2026-05-03T06:57:43.742Z</time></trkpt><trkpt lat="39.8941112" lon="20.5601981"><ele>447.0</ele><time>2026-05-03T06:57:44.742Z</time></trkpt><trkpt lat="39.8942707" lon="20.5600295"><ele>451.0</ele><time>2026-05-03T06:57:45.743Z</time></trkpt><trkpt lat="39.8944253" lon="20.5598511"><ele>455.0</ele><time>2026-05-03T06:57:46.743Z</time></trkpt><trkpt lat="39.8945693" lon="20.5596587"><ele>453.66666666666663</ele><time>2026-05-03T06:57:47.743Z</time></trkpt><trkpt lat="39.8946969" lon="20.5594494"><ele>452.33333333333337</ele><time>2026-05-03T06:57:48.743Z</time></trkpt><trkpt lat="39.8948134" lon="20.5592155"><ele>451.0</ele><time>2026-05-03T06:57:49.743Z</time></trkpt><trkpt lat="39.8949092" lon="20.5589663"><ele>451.0</ele><time>2026-05-03T06:57:50.742Z</time></trkpt><trkpt lat="39.894993" lon="20.5587098"><ele>451.0</ele><time>2026-05-03T06:57:51.743Z</time></trkpt><trkpt lat="39.895064" lon="20.5584444"><ele>451.0</ele><time>2026-05-03T06:57:52.743Z</time></trkpt><trkpt lat="39.8951111" lon="20.5581584"><ele>456.5</ele><time>2026-05-03T06:57:53.742Z</time></trkpt><trkpt lat="39.8951473" lon="20.5578725"><ele>462.0</ele><time>2026-05-03T06:57:54.743Z</time></trkpt><trkpt lat="39.89518" lon="20.5575738"><ele>462.5</ele><time>2026-05-03T06:57:55.742Z</time></trkpt><trkpt lat="39.8952078" lon="20.5572722"><ele>463.0</ele><time>2026-05-03T06:57:56.743Z</time></trkpt><trkpt lat="39.8952335" lon="20.5569667"><ele>465.5</ele><time>2026-05-03T06:57:57.742Z</time></trkpt><trkpt lat="39.8952697" lon="20.5566613"><ele>468.0</ele><time>2026-05-03T06:57:58.742Z</time></trkpt><trkpt lat="39.8953035" lon="20.5563468"><ele>468.0</ele><time>2026-05-03T06:57:59.743Z</time></trkpt><trkpt lat="39.8953314" lon="20.5560363"><ele>468.0</ele><time>2026-05-03T06:58:00.742Z</time></trkpt><trkpt lat="39.8953645" lon="20.5557224"><ele>468.0</ele><time>2026-05-03T06:58:01.743Z</time></trkpt><trkpt lat="39.8953945" lon="20.5554125"><ele>468.0</ele><time>2026-05-03T06:58:02.743Z</time></trkpt><trkpt lat="39.8954299" lon="20.5551086"><ele>466.0</ele><time>2026-05-03T06:58:03.743Z</time></trkpt><trkpt lat="39.895462" lon="20.554807"><ele>464.0</ele><time>2026-05-03T06:58:04.743Z</time></trkpt><trkpt lat="39.8954845" lon="20.5545145"><ele>463.66666666666663</ele><time>2026-05-03T06:58:05.742Z</time></trkpt><trkpt lat="39.8954964" lon="20.5542301"><ele>463.33333333333337</ele><time>2026-05-03T06:58:06.742Z</time></trkpt><trkpt lat="39.8954921" lon="20.5539586"><ele>463.0</ele><time>2026-05-03T06:58:07.743Z</time></trkpt><trkpt lat="39.8954716" lon="20.553694"><ele>463.0</ele><time>2026-05-03T06:58:08.743Z</time></trkpt><trkpt lat="39.8954331" lon="20.553433"><ele>463.0</ele><time>2026-05-03T06:58:09.743Z</time></trkpt><trkpt lat="39.8953743" lon="20.5531797"><ele>463.0</ele><time>2026-05-03T06:58:10.743Z</time></trkpt><trkpt lat="39.8952952" lon="20.5529328"><ele>463.33333333333337</ele><time>2026-05-03T06:58:11.742Z</time></trkpt><trkpt lat="39.8952" lon="20.5526928"><ele>463.66666666666663</ele><time>2026-05-03T06:58:12.743Z</time></trkpt><trkpt lat="39.8950892" lon="20.5524441"><ele>464.0</ele><time>2026-05-03T06:58:13.742Z</time></trkpt><trkpt lat="39.8949625" lon="20.5522007"><ele>463.0</ele><time>2026-05-03T06:58:14.743Z</time></trkpt><trkpt lat="39.8948377" lon="20.5519581"><ele>462.0</ele><time>2026-05-03T06:58:15.742Z</time></trkpt><trkpt lat="39.8947109" lon="20.5517095"><ele>462.0</ele><time>2026-05-03T06:58:16.742Z</time></trkpt><trkpt lat="39.8945924" lon="20.5514683"><ele>462.0</ele><time>2026-05-03T06:58:17.743Z</time></trkpt><trkpt lat="39.8944729" lon="20.5512166"><ele>462.0</ele><time>2026-05-03T06:58:18.743Z</time></trkpt><trkpt lat="39.8943518" lon="20.5509749"><ele>463.0</ele><time>2026-05-03T06:58:19.743Z</time></trkpt><trkpt lat="39.8942262" lon="20.5507429"><ele>464.0</ele><time>2026-05-03T06:58:20.743Z</time></trkpt><trkpt lat="39.8941116" lon="20.5505213"><ele>465.0</ele><time>2026-05-03T06:58:21.743Z</time></trkpt><trkpt lat="39.8940234" lon="20.5503009"><ele>465.33333333333337</ele><time>2026-05-03T06:58:22.741Z</time></trkpt><trkpt lat="39.8939451" lon="20.5500762"><ele>465.6666666666667</ele><time>2026-05-03T06:58:23.743Z</time></trkpt><trkpt lat="39.8938925" lon="20.5498532"><ele>466.0</ele><time>2026-05-03T06:58:24.743Z</time></trkpt><trkpt lat="39.8938679" lon="20.549625"><ele>465.33333333333337</ele><time>2026-05-03T06:58:25.742Z</time></trkpt><trkpt lat="39.8938627" lon="20.5493962"><ele>464.66666666666663</ele><time>2026-05-03T06:58:26.742Z</time></trkpt><trkpt lat="39.893895" lon="20.5491501"><ele>464.0</ele><time>2026-05-03T06:58:27.743Z</time></trkpt><trkpt lat="39.8939459" lon="20.5489076"><ele>462.66666666666663</ele><time>2026-05-03T06:58:28.743Z</time></trkpt><trkpt lat="39.894016" lon="20.5486714"><ele>461.33333333333337</ele><time>2026-05-03T06:58:29.743Z</time></trkpt><trkpt lat="39.8941048" lon="20.5484234"><ele>460.0</ele><time>2026-05-03T06:58:30.742Z</time></trkpt><trkpt lat="39.894207" lon="20.5481758"><ele>461.0</ele><time>2026-05-03T06:58:31.743Z</time></trkpt><trkpt lat="39.8943108" lon="20.5479338"><ele>462.0</ele><time>2026-05-03T06:58:32.743Z</time></trkpt><trkpt lat="39.8944109" lon="20.5477137"><ele>463.0</ele><time>2026-05-03T06:58:33.742Z</time></trkpt><trkpt lat="39.894526" lon="20.5474975"><ele>463.0</ele><time>2026-05-03T06:58:34.742Z</time></trkpt><trkpt lat="39.8946704" lon="20.5472873"><ele>463.0</ele><time>2026-05-03T06:58:35.743Z</time></trkpt><trkpt lat="39.8948204" lon="20.5470962"><ele>463.0</ele><time>2026-05-03T06:58:36.743Z</time></trkpt><trkpt lat="39.8949785" lon="20.5469226"><ele>463.33333333333337</ele><time>2026-05-03T06:58:37.743Z</time></trkpt><trkpt lat="39.8951355" lon="20.5467621"><ele>463.66666666666663</ele><time>2026-05-03T06:58:38.742Z</time></trkpt><trkpt lat="39.8952982" lon="20.5466066"><ele>464.0</ele><time>2026-05-03T06:58:39.742Z</time></trkpt><trkpt lat="39.8954487" lon="20.5464574"><ele>464.0</ele><time>2026-05-03T06:58:40.743Z</time></trkpt><trkpt lat="39.8955975" lon="20.5463066"><ele>464.0</ele><time>2026-05-03T06:58:41.742Z</time></trkpt><trkpt lat="39.8957427" lon="20.5461396"><ele>464.0</ele><time>2026-05-03T06:58:42.742Z</time></trkpt><trkpt lat="39.8958744" lon="20.5459466"><ele>462.0</ele><time>2026-05-03T06:58:43.742Z</time></trkpt><trkpt lat="39.8959899" lon="20.5457177"><ele>460.0</ele><time>2026-05-03T06:58:44.742Z</time></trkpt><trkpt lat="39.8960956" lon="20.5454588"><ele>458.0</ele><time>2026-05-03T06:58:45.742Z</time></trkpt><trkpt lat="39.8962013" lon="20.5451711"><ele>454.0</ele><time>2026-05-03T06:58:46.741Z</time></trkpt><trkpt lat="39.8963035" lon="20.5448618"><ele>450.0</ele><time>2026-05-03T06:58:47.741Z</time></trkpt><trkpt lat="39.8964023" lon="20.5445436"><ele>441.5</ele><time>2026-05-03T06:58:48.742Z</time></trkpt><trkpt lat="39.8964986" lon="20.5442068"><ele>433.0</ele><time>2026-05-03T06:58:49.743Z</time></trkpt><trkpt lat="39.896592" lon="20.5438702"><ele>425.5</ele><time>2026-05-03T06:58:50.742Z</time></trkpt><trkpt lat="39.8966807" lon="20.5435287"><ele>418.0</ele><time>2026-05-03T06:58:51.743Z</time></trkpt><trkpt lat="39.8967718" lon="20.5431763"><ele>418.5</ele><time>2026-05-03T06:58:52.742Z</time></trkpt><trkpt lat="39.8968684" lon="20.542828"><ele>419.0</ele><time>2026-05-03T06:58:53.743Z</time></trkpt><trkpt lat="39.8969617" lon="20.5424824"><ele>419.0</ele><time>2026-05-03T06:58:54.743Z</time></trkpt><trkpt lat="39.8970548" lon="20.5421477"><ele>419.0</ele><time>2026-05-03T06:58:55.741Z</time></trkpt><trkpt lat="39.897148" lon="20.5418179"><ele>424.5</ele><time>2026-05-03T06:58:56.743Z</time></trkpt><trkpt lat="39.8972472" lon="20.5415021"><ele>430.0</ele><time>2026-05-03T06:58:57.742Z</time></trkpt><trkpt lat="39.8973549" lon="20.5412"><ele>430.0</ele><time>2026-05-03T06:58:58.743Z</time></trkpt><trkpt lat="39.8974788" lon="20.540908"><ele>430.0</ele><time>2026-05-03T06:58:59.742Z</time></trkpt><trkpt lat="39.8976162" lon="20.540627"><ele>435.0</ele><time>2026-05-03T06:59:00.742Z</time></trkpt><trkpt lat="39.8977656" lon="20.5403522"><ele>440.0</ele><time>2026-05-03T06:59:01.742Z</time></trkpt><trkpt lat="39.897923" lon="20.5400878"><ele>440.0</ele><time>2026-05-03T06:59:02.742Z</time></trkpt><trkpt lat="39.8980888" lon="20.5398383"><ele>440.0</ele><time>2026-05-03T06:59:03.742Z</time></trkpt><trkpt lat="39.8982581" lon="20.5395953"><ele>446.0</ele><time>2026-05-03T06:59:04.742Z</time></trkpt><trkpt lat="39.8984087" lon="20.5393522"><ele>452.0</ele><time>2026-05-03T06:59:05.743Z</time></trkpt><trkpt lat="39.8985537" lon="20.5391004"><ele>454.5</ele><time>2026-05-03T06:59:06.743Z</time></trkpt><trkpt lat="39.8986788" lon="20.538825"><ele>457.0</ele><time>2026-05-03T06:59:07.742Z</time></trkpt><trkpt lat="39.8987904" lon="20.5385484"><ele>457.5</ele><time>2026-05-03T06:59:08.743Z</time></trkpt><trkpt lat="39.8988886" lon="20.5382638"><ele>458.0</ele><time>2026-05-03T06:59:09.742Z</time></trkpt><trkpt lat="39.8989745" lon="20.537975"><ele>457.5</ele><time>2026-05-03T06:59:10.743Z</time></trkpt><trkpt lat="39.8990546" lon="20.5376753"><ele>457.0</ele><time>2026-05-03T06:59:11.742Z</time></trkpt><trkpt lat="39.8991338" lon="20.5373799"><ele>457.0</ele><time>2026-05-03T06:59:12.743Z</time></trkpt><trkpt lat="39.8992071" lon="20.5370929"><ele>457.0</ele><time>2026-05-03T06:59:13.742Z</time></trkpt><trkpt lat="39.8993001" lon="20.5368144"><ele>465.0</ele><time>2026-05-03T06:59:14.743Z</time></trkpt><trkpt lat="39.8994058" lon="20.5365262"><ele>473.0</ele><time>2026-05-03T06:59:15.742Z</time></trkpt><trkpt lat="39.8995324" lon="20.5362496"><ele>469.5</ele><time>2026-05-03T06:59:16.743Z</time></trkpt><trkpt lat="39.8996767" lon="20.5359686"><ele>466.0</ele><time>2026-05-03T06:59:17.742Z</time></trkpt><trkpt lat="39.8998187" lon="20.5357014"><ele>466.0</ele><time>2026-05-03T06:59:18.741Z</time></trkpt><trkpt lat="39.8999645" lon="20.5354175"><ele>466.0</ele><time>2026-05-03T06:59:19.742Z</time></trkpt><trkpt lat="39.9001058" lon="20.5351072"><ele>468.0</ele><time>2026-05-03T06:59:20.743Z</time></trkpt><trkpt lat="39.9002295" lon="20.5347928"><ele>470.0</ele><time>2026-05-03T06:59:21.743Z</time></trkpt><trkpt lat="39.9003287" lon="20.5344541"><ele>470.0</ele><time>2026-05-03T06:59:22.742Z</time></trkpt><trkpt lat="39.9004208" lon="20.5341083"><ele>470.0</ele><time>2026-05-03T06:59:23.742Z</time></trkpt><trkpt lat="39.9004948" lon="20.533761"><ele>468.5</ele><time>2026-05-03T06:59:24.742Z</time></trkpt><trkpt lat="39.9005565" lon="20.533416"><ele>467.0</ele><time>2026-05-03T06:59:25.742Z</time></trkpt><trkpt lat="39.900617" lon="20.5330728"><ele>464.5</ele><time>2026-05-03T06:59:26.741Z</time></trkpt><trkpt lat="39.9006885" lon="20.5327346"><ele>462.0</ele><time>2026-05-03T06:59:27.743Z</time></trkpt><trkpt lat="39.9007738" lon="20.5324033"><ele>462.0</ele><time>2026-05-03T06:59:28.742Z</time></trkpt><trkpt lat="39.9008804" lon="20.5320745"><ele>462.0</ele><time>2026-05-03T06:59:29.742Z</time></trkpt><trkpt lat="39.9009825" lon="20.5317499"><ele>462.5</ele><time>2026-05-03T06:59:30.743Z</time></trkpt><trkpt lat="39.9011031" lon="20.5314271"><ele>463.0</ele><time>2026-05-03T06:59:31.742Z</time></trkpt><trkpt lat="39.9012172" lon="20.5311108"><ele>463.0</ele><time>2026-05-03T06:59:32.742Z</time></trkpt><trkpt lat="39.9013198" lon="20.5307825"><ele>463.0</ele><time>2026-05-03T06:59:33.742Z</time></trkpt><trkpt lat="39.9014071" lon="20.5304378"><ele>461.0</ele><time>2026-05-03T06:59:34.742Z</time></trkpt><trkpt lat="39.9014808" lon="20.5300798"><ele>459.0</ele><time>2026-05-03T06:59:35.743Z</time></trkpt><trkpt lat="39.9015372" lon="20.5297147"><ele>460.5</ele><time>2026-05-03T06:59:36.743Z</time></trkpt><trkpt lat="39.9015799" lon="20.5293478"><ele>462.0</ele><time>2026-05-03T06:59:37.742Z</time></trkpt><trkpt lat="39.9016065" lon="20.5289739"><ele>463.0</ele><time>2026-05-03T06:59:38.743Z</time></trkpt><trkpt lat="39.9016171" lon="20.5285942"><ele>464.0</ele><time>2026-05-03T06:59:39.742Z</time></trkpt><trkpt lat="39.9016245" lon="20.5282141"><ele>464.0</ele><time>2026-05-03T06:59:40.741Z</time></trkpt><trkpt lat="39.9016276" lon="20.5278352"><ele>464.0</ele><time>2026-05-03T06:59:41.741Z</time></trkpt><trkpt lat="39.9016248" lon="20.5274617"><ele>464.0</ele><time>2026-05-03T06:59:42.74Z</time></trkpt><trkpt lat="39.9016192" lon="20.5271035"><ele>464.0</ele><time>2026-05-03T06:59:43.741Z</time></trkpt><trkpt lat="39.9016123" lon="20.5267511"><ele>466.5</ele><time>2026-05-03T06:59:44.742Z</time></trkpt><trkpt lat="39.9016047" lon="20.5264051"><ele>469.0</ele><time>2026-05-03T06:59:45.743Z</time></trkpt><trkpt lat="39.90159" lon="20.5260594"><ele>469.5</ele><time>2026-05-03T06:59:46.743Z</time></trkpt><trkpt lat="39.9015609" lon="20.5257191"><ele>470.0</ele><time>2026-05-03T06:59:47.742Z</time></trkpt><trkpt lat="39.9015079" lon="20.5253817"><ele>470.0</ele><time>2026-05-03T06:59:48.743Z</time></trkpt><trkpt lat="39.9014267" lon="20.5250582"><ele>470.0</ele><time>2026-05-03T06:59:49.743Z</time></trkpt><trkpt lat="39.9013455" lon="20.5247326"><ele>471.0</ele><time>2026-05-03T06:59:50.742Z</time></trkpt><trkpt lat="39.901247" lon="20.524409"><ele>472.0</ele><time>2026-05-03T06:59:51.741Z</time></trkpt><trkpt lat="39.9011399" lon="20.5241006"><ele>472.0</ele><time>2026-05-03T06:59:52.741Z</time></trkpt><trkpt lat="39.9010449" lon="20.5237903"><ele>472.0</ele><time>2026-05-03T06:59:53.743Z</time></trkpt><trkpt lat="39.9009641" lon="20.5234847"><ele>471.0</ele><time>2026-05-03T06:59:54.741Z</time></trkpt><trkpt lat="39.9008951" lon="20.5231752"><ele>470.0</ele><time>2026-05-03T06:59:55.742Z</time></trkpt><trkpt lat="39.9008353" lon="20.5228648"><ele>470.0</ele><time>2026-05-03T06:59:56.743Z</time></trkpt><trkpt lat="39.9007887" lon="20.5225444"><ele>470.0</ele><time>2026-05-03T06:59:57.743Z</time></trkpt><trkpt lat="39.9007665" lon="20.5222275"><ele>471.5</ele><time>2026-05-03T06:59:58.743Z</time></trkpt><trkpt lat="39.9007631" lon="20.5219049"><ele>473.0</ele><time>2026-05-03T06:59:59.742Z</time></trkpt><trkpt lat="39.9007813" lon="20.5215754"><ele>473.0</ele><time>2026-05-03T07:00:00.741Z</time></trkpt><trkpt lat="39.9008141" lon="20.5212585"><ele>473.0</ele><time>2026-05-03T07:00:01.742Z</time></trkpt><trkpt lat="39.9008672" lon="20.5209331"><ele>474.5</ele><time>2026-05-03T07:00:02.743Z</time></trkpt><trkpt lat="39.9009267" lon="20.5206055"><ele>476.0</ele><time>2026-05-03T07:00:03.742Z</time></trkpt><trkpt lat="39.9010045" lon="20.5202642"><ele>473.0</ele><time>2026-05-03T07:00:04.742Z</time></trkpt><trkpt lat="39.9010824" lon="20.5199231"><ele>470.0</ele><time>2026-05-03T07:00:05.743Z</time></trkpt><trkpt lat="39.9011646" lon="20.5195741"><ele>468.5</ele><time>2026-05-03T07:00:06.742Z</time></trkpt><trkpt lat="39.9012401" lon="20.5192244"><ele>467.0</ele><time>2026-05-03T07:00:07.742Z</time></trkpt><trkpt lat="39.901316" lon="20.5188696"><ele>465.5</ele><time>2026-05-03T07:00:08.743Z</time></trkpt><trkpt lat="39.9013916" lon="20.5185212"><ele>464.0</ele><time>2026-05-03T07:00:09.743Z</time></trkpt><trkpt lat="39.9014669" lon="20.518176"><ele>463.0</ele><time>2026-05-03T07:00:10.742Z</time></trkpt><trkpt lat="39.9015515" lon="20.5178341"><ele>462.0</ele><time>2026-05-03T07:00:11.742Z</time></trkpt><trkpt lat="39.9016379" lon="20.5174956"><ele>462.0</ele><time>2026-05-03T07:00:12.743Z</time></trkpt><trkpt lat="39.9017352" lon="20.5171721"><ele>462.0</ele><time>2026-05-03T07:00:13.743Z</time></trkpt><trkpt lat="39.9018465" lon="20.5168468"><ele>462.5</ele><time>2026-05-03T07:00:14.743Z</time></trkpt><trkpt lat="39.901968" lon="20.5165243"><ele>463.0</ele><time>2026-05-03T07:00:15.743Z</time></trkpt><trkpt lat="39.9020953" lon="20.5161932"><ele>463.0</ele><time>2026-05-03T07:00:16.742Z</time></trkpt><trkpt lat="39.9022224" lon="20.5158737"><ele>463.0</ele><time>2026-05-03T07:00:17.743Z</time></trkpt><trkpt lat="39.9023463" lon="20.5155652"><ele>463.0</ele><time>2026-05-03T07:00:18.742Z</time></trkpt><trkpt lat="39.9024658" lon="20.5152721"><ele>463.0</ele><time>2026-05-03T07:00:19.742Z</time></trkpt><trkpt lat="39.9025793" lon="20.5149949"><ele>464.5</ele><time>2026-05-03T07:00:20.743Z</time></trkpt><trkpt lat="39.9026958" lon="20.5147285"><ele>466.0</ele><time>2026-05-03T07:00:21.742Z</time></trkpt><trkpt lat="39.9028219" lon="20.5144729"><ele>466.0</ele><time>2026-05-03T07:00:22.743Z</time></trkpt><trkpt lat="39.9029601" lon="20.5142285"><ele>466.0</ele><time>2026-05-03T07:00:23.742Z</time></trkpt><trkpt lat="39.9031215" lon="20.5139924"><ele>466.0</ele><time>2026-05-03T07:00:24.742Z</time></trkpt><trkpt lat="39.9032772" lon="20.5137898"><ele>466.0</ele><time>2026-05-03T07:00:25.742Z</time></trkpt><trkpt lat="39.9034432" lon="20.5135808"><ele>466.5</ele><time>2026-05-03T07:00:26.743Z</time></trkpt><trkpt lat="39.9036265" lon="20.5133886"><ele>467.0</ele><time>2026-05-03T07:00:27.742Z</time></trkpt><trkpt lat="39.9038246" lon="20.5132122"><ele>467.0</ele><time>2026-05-03T07:00:28.742Z</time></trkpt><trkpt lat="39.904028" lon="20.5130508"><ele>467.0</ele><time>2026-05-03T07:00:29.743Z</time></trkpt><trkpt lat="39.9042416" lon="20.5129041"><ele>465.5</ele><time>2026-05-03T07:00:30.741Z</time></trkpt><trkpt lat="39.9044581" lon="20.5127709"><ele>464.0</ele><time>2026-05-03T07:00:31.742Z</time></trkpt><trkpt lat="39.9046801" lon="20.5126381"><ele>464.0</ele><time>2026-05-03T07:00:32.743Z</time></trkpt><trkpt lat="39.9049013" lon="20.5125122"><ele>464.0</ele><time>2026-05-03T07:00:33.743Z</time></trkpt><trkpt lat="39.9051131" lon="20.5123766"><ele>466.5</ele><time>2026-05-03T07:00:34.743Z</time></trkpt><trkpt lat="39.9053113" lon="20.5122211"><ele>469.0</ele><time>2026-05-03T07:00:35.742Z</time></trkpt><trkpt lat="39.9054978" lon="20.5120506"><ele>469.0</ele><time>2026-05-03T07:00:36.742Z</time></trkpt><trkpt lat="39.9056648" lon="20.5118584"><ele>469.0</ele><time>2026-05-03T07:00:37.743Z</time></trkpt><trkpt lat="39.9058182" lon="20.5116528"><ele>469.0</ele><time>2026-05-03T07:00:38.743Z</time></trkpt><trkpt lat="39.9059555" lon="20.5114267"><ele>472.33333333333337</ele><time>2026-05-03T07:00:39.742Z</time></trkpt><trkpt lat="39.9060689" lon="20.5111895"><ele>475.66666666666663</ele><time>2026-05-03T07:00:40.743Z</time></trkpt><trkpt lat="39.906162" lon="20.5109409"><ele>479.0</ele><time>2026-05-03T07:00:41.742Z</time></trkpt><trkpt lat="39.9062384" lon="20.5106791"><ele>476.3333333333333</ele><time>2026-05-03T07:00:42.743Z</time></trkpt><trkpt lat="39.9063028" lon="20.5104076"><ele>473.66666666666663</ele><time>2026-05-03T07:00:43.743Z</time></trkpt><trkpt lat="39.9063558" lon="20.5101321"><ele>471.0</ele><time>2026-05-03T07:00:44.742Z</time></trkpt><trkpt lat="39.906406" lon="20.5098626"><ele>471.0</ele><time>2026-05-03T07:00:45.743Z</time></trkpt><trkpt lat="39.9064572" lon="20.5095928"><ele>471.0</ele><time>2026-05-03T07:00:46.743Z</time></trkpt><trkpt lat="39.9065313" lon="20.5093289"><ele>471.0</ele><time>2026-05-03T07:00:47.742Z</time></trkpt><trkpt lat="39.9066221" lon="20.5090606"><ele>470.66666666666663</ele><time>2026-05-03T07:00:48.742Z</time></trkpt><trkpt lat="39.906717" lon="20.5088129"><ele>470.3333333333333</ele><time>2026-05-03T07:00:49.742Z</time></trkpt><trkpt lat="39.9068303" lon="20.5085676"><ele>470.0</ele><time>2026-05-03T07:00:50.742Z</time></trkpt><trkpt lat="39.9069404" lon="20.5083333"><ele>473.0</ele><time>2026-05-03T07:00:51.742Z</time></trkpt><trkpt lat="39.9070392" lon="20.5080921"><ele>476.0</ele><time>2026-05-03T07:00:52.742Z</time></trkpt><trkpt lat="39.9071299" lon="20.5078427"><ele>479.0</ele><time>2026-05-03T07:00:53.743Z</time></trkpt><trkpt lat="39.9071978" lon="20.5075786"><ele>479.0</ele><time>2026-05-03T07:00:54.742Z</time></trkpt><trkpt lat="39.9072544" lon="20.5073161"><ele>479.0</ele><time>2026-05-03T07:00:55.742Z</time></trkpt><trkpt lat="39.9072916" lon="20.5070458"><ele>479.0</ele><time>2026-05-03T07:00:56.742Z</time></trkpt><trkpt lat="39.9073125" lon="20.5067725"><ele>479.0</ele><time>2026-05-03T07:00:57.742Z</time></trkpt><trkpt lat="39.9073166" lon="20.506504"><ele>479.0</ele><time>2026-05-03T07:00:58.743Z</time></trkpt><trkpt lat="39.9072973" lon="20.5062329"><ele>479.0</ele><time>2026-05-03T07:00:59.743Z</time></trkpt><trkpt lat="39.9072648" lon="20.5059655"><ele>479.0</ele><time>2026-05-03T07:01:00.742Z</time></trkpt><trkpt lat="39.907204" lon="20.5057004"><ele>479.0</ele><time>2026-05-03T07:01:01.743Z</time></trkpt><trkpt lat="39.9071253" lon="20.5054349"><ele>479.0</ele><time>2026-05-03T07:01:02.743Z</time></trkpt><trkpt lat="39.907035" lon="20.505173"><ele>477.3333333333333</ele><time>2026-05-03T07:01:03.742Z</time></trkpt><trkpt lat="39.9069317" lon="20.5049173"><ele>475.66666666666663</ele><time>2026-05-03T07:01:04.743Z</time></trkpt><trkpt lat="39.9068303" lon="20.5046669"><ele>474.0</ele><time>2026-05-03T07:01:05.742Z</time></trkpt><trkpt lat="39.9067317" lon="20.5044044"><ele>474.0</ele><time>2026-05-03T07:01:06.743Z</time></trkpt><trkpt lat="39.9066437" lon="20.5041509"><ele>474.0</ele><time>2026-05-03T07:01:07.742Z</time></trkpt><trkpt lat="39.9065794" lon="20.5038701"><ele>474.0</ele><time>2026-05-03T07:01:08.74Z</time></trkpt><trkpt lat="39.9065375" lon="20.5036031"><ele>474.0</ele><time>2026-05-03T07:01:09.743Z</time></trkpt><trkpt lat="39.9065072" lon="20.5033275"><ele>474.0</ele><time>2026-05-03T07:01:10.743Z</time></trkpt><trkpt lat="39.9065026" lon="20.5030574"><ele>474.0</ele><time>2026-05-03T07:01:11.743Z</time></trkpt><trkpt lat="39.906517" lon="20.5027793"><ele>474.0</ele><time>2026-05-03T07:01:12.741Z</time></trkpt><trkpt lat="39.9065473" lon="20.5025029"><ele>474.0</ele><time>2026-05-03T07:01:13.742Z</time></trkpt><trkpt lat="39.9065856" lon="20.5022177"><ele>474.0</ele><time>2026-05-03T07:01:14.741Z</time></trkpt><trkpt lat="39.9066245" lon="20.5019316"><ele>471.0</ele><time>2026-05-03T07:01:15.742Z</time></trkpt><trkpt lat="39.9066658" lon="20.5016367"><ele>468.0</ele><time>2026-05-03T07:01:16.743Z</time></trkpt><trkpt lat="39.9066963" lon="20.5013505"><ele>468.66666666666663</ele><time>2026-05-03T07:01:17.742Z</time></trkpt><trkpt lat="39.9067066" lon="20.501065"><ele>469.3333333333333</ele><time>2026-05-03T07:01:18.741Z</time></trkpt><trkpt lat="39.9067133" lon="20.5007826"><ele>470.0</ele><time>2026-05-03T07:01:19.742Z</time></trkpt><trkpt lat="39.9066913" lon="20.5004844"><ele>472.3333333333333</ele><time>2026-05-03T07:01:20.743Z</time></trkpt><trkpt lat="39.906655" lon="20.5002127"><ele>474.66666666666663</ele><time>2026-05-03T07:01:21.742Z</time></trkpt><trkpt lat="39.9066058" lon="20.4999523"><ele>477.0</ele><time>2026-05-03T07:01:22.743Z</time></trkpt><trkpt lat="39.9065334" lon="20.4996863"><ele>481.66666666666663</ele><time>2026-05-03T07:01:23.742Z</time></trkpt><trkpt lat="39.9064454" lon="20.4994183"><ele>486.3333333333333</ele><time>2026-05-03T07:01:24.743Z</time></trkpt><trkpt lat="39.9063495" lon="20.4991542"><ele>491.0</ele><time>2026-05-03T07:01:25.742Z</time></trkpt><trkpt lat="39.9062465" lon="20.4989096"><ele>497.0</ele><time>2026-05-03T07:01:26.742Z</time></trkpt><trkpt lat="39.9061481" lon="20.4986606"><ele>503.0</ele><time>2026-05-03T07:01:27.743Z</time></trkpt><trkpt lat="39.9060618" lon="20.4984133"><ele>509.0</ele><time>2026-05-03T07:01:28.742Z</time></trkpt><trkpt lat="39.9059997" lon="20.4981544"><ele>511.3333333333333</ele><time>2026-05-03T07:01:29.743Z</time></trkpt><trkpt lat="39.9059486" lon="20.4978932"><ele>513.6666666666666</ele><time>2026-05-03T07:01:30.742Z</time></trkpt><trkpt lat="39.9059134" lon="20.4976188"><ele>516.0</ele><time>2026-05-03T07:01:31.743Z</time></trkpt><trkpt lat="39.9059033" lon="20.4973495"><ele>516.0</ele><time>2026-05-03T07:01:32.743Z</time></trkpt><trkpt lat="39.9059144" lon="20.4970866"><ele>516.0</ele><time>2026-05-03T07:01:33.742Z</time></trkpt><trkpt lat="39.905949" lon="20.4968188"><ele>516.0</ele><time>2026-05-03T07:01:34.742Z</time></trkpt><trkpt lat="39.9060087" lon="20.4965503"><ele>516.3333333333334</ele><time>2026-05-03T07:01:35.742Z</time></trkpt><trkpt lat="39.9060769" lon="20.4962927"><ele>516.6666666666667</ele><time>2026-05-03T07:01:36.743Z</time></trkpt><trkpt lat="39.9061662" lon="20.4960335"><ele>517.0</ele><time>2026-05-03T07:01:37.743Z</time></trkpt><trkpt lat="39.9062599" lon="20.4957825"><ele>515.3333333333334</ele><time>2026-05-03T07:01:38.742Z</time></trkpt><trkpt lat="39.9063471" lon="20.4955281"><ele>513.6666666666666</ele><time>2026-05-03T07:01:39.742Z</time></trkpt><trkpt lat="39.9064277" lon="20.4952636"><ele>512.0</ele><time>2026-05-03T07:01:40.742Z</time></trkpt><trkpt lat="39.9064794" lon="20.4949978"><ele>511.3333333333333</ele><time>2026-05-03T07:01:41.742Z</time></trkpt><trkpt lat="39.9065172" lon="20.4947172"><ele>510.66666666666663</ele><time>2026-05-03T07:01:42.742Z</time></trkpt><trkpt lat="39.9065295" lon="20.4944275"><ele>510.0</ele><time>2026-05-03T07:01:43.743Z</time></trkpt><trkpt lat="39.9065339" lon="20.4941374"><ele>512.0</ele><time>2026-05-03T07:01:44.741Z</time></trkpt><trkpt lat="39.906529" lon="20.4938436"><ele>514.0</ele><time>2026-05-03T07:01:45.742Z</time></trkpt><trkpt lat="39.9065249" lon="20.4935479"><ele>518.0</ele><time>2026-05-03T07:01:46.743Z</time></trkpt><trkpt lat="39.9065219" lon="20.4932491"><ele>522.0</ele><time>2026-05-03T07:01:47.74Z</time></trkpt><trkpt lat="39.9065113" lon="20.4929513"><ele>523.5</ele><time>2026-05-03T07:01:48.743Z</time></trkpt><trkpt lat="39.9065018" lon="20.4926573"><ele>525.0</ele><time>2026-05-03T07:01:49.743Z</time></trkpt><trkpt lat="39.9064971" lon="20.4923552"><ele>526.5</ele><time>2026-05-03T07:01:50.742Z</time></trkpt><trkpt lat="39.9064934" lon="20.4920459"><ele>528.0</ele><time>2026-05-03T07:01:51.742Z</time></trkpt><trkpt lat="39.9064847" lon="20.491748"><ele>528.0</ele><time>2026-05-03T07:01:52.743Z</time></trkpt><trkpt lat="39.9064768" lon="20.4914416"><ele>528.0</ele><time>2026-05-03T07:01:53.743Z</time></trkpt><trkpt lat="39.9064708" lon="20.4911308"><ele>529.0</ele><time>2026-05-03T07:01:54.742Z</time></trkpt><trkpt lat="39.9064631" lon="20.490816"><ele>530.0</ele><time>2026-05-03T07:01:55.742Z</time></trkpt><trkpt lat="39.9064582" lon="20.4904977"><ele>531.0</ele><time>2026-05-03T07:01:56.743Z</time></trkpt><trkpt lat="39.9064538" lon="20.4901759"><ele>532.0</ele><time>2026-05-03T07:01:57.743Z</time></trkpt><trkpt lat="39.9064445" lon="20.4898593"><ele>533.5</ele><time>2026-05-03T07:01:58.742Z</time></trkpt><trkpt lat="39.9064333" lon="20.4895537"><ele>535.0</ele><time>2026-05-03T07:01:59.743Z</time></trkpt><trkpt lat="39.9064255" lon="20.4892475"><ele>535.0</ele><time>2026-05-03T07:02:00.743Z</time></trkpt><trkpt lat="39.9064169" lon="20.488951"><ele>535.0</ele><time>2026-05-03T07:02:01.743Z</time></trkpt><trkpt lat="39.9064044" lon="20.4886589"><ele>535.0</ele><time>2026-05-03T07:02:02.743Z</time></trkpt><trkpt lat="39.9063843" lon="20.4883696"><ele>535.0</ele><time>2026-05-03T07:02:03.743Z</time></trkpt><trkpt lat="39.9063453" lon="20.4880852"><ele>535.0</ele><time>2026-05-03T07:02:04.742Z</time></trkpt><trkpt lat="39.9062879" lon="20.4878012"><ele>536.5</ele><time>2026-05-03T07:02:05.742Z</time></trkpt><trkpt lat="39.9062169" lon="20.4875098"><ele>538.0</ele><time>2026-05-03T07:02:06.743Z</time></trkpt><trkpt lat="39.9061303" lon="20.4872188"><ele>540.5</ele><time>2026-05-03T07:02:07.742Z</time></trkpt><trkpt lat="39.9060304" lon="20.4869357"><ele>543.0</ele><time>2026-05-03T07:02:08.742Z</time></trkpt><trkpt lat="39.9059214" lon="20.4866657"><ele>542.0</ele><time>2026-05-03T07:02:09.743Z</time></trkpt><trkpt lat="39.9058131" lon="20.4864056"><ele>541.0</ele><time>2026-05-03T07:02:10.743Z</time></trkpt><trkpt lat="39.9057137" lon="20.4861462"><ele>540.0</ele><time>2026-05-03T07:02:11.743Z</time></trkpt><trkpt lat="39.9056267" lon="20.4858871"><ele>540.0</ele><time>2026-05-03T07:02:12.742Z</time></trkpt><trkpt lat="39.9055465" lon="20.4856263"><ele>540.0</ele><time>2026-05-03T07:02:13.742Z</time></trkpt><trkpt lat="39.9054817" lon="20.4853492"><ele>540.0</ele><time>2026-05-03T07:02:14.743Z</time></trkpt><trkpt lat="39.9054346" lon="20.4850701"><ele>542.6666666666666</ele><time>2026-05-03T07:02:15.742Z</time></trkpt><trkpt lat="39.9054012" lon="20.4847921"><ele>545.3333333333333</ele><time>2026-05-03T07:02:16.743Z</time></trkpt><trkpt lat="39.9053834" lon="20.4845123"><ele>548.0</ele><time>2026-05-03T07:02:17.743Z</time></trkpt><trkpt lat="39.905384" lon="20.4842197"><ele>550.5</ele><time>2026-05-03T07:02:18.742Z</time></trkpt><trkpt lat="39.9053962" lon="20.4839214"><ele>553.0</ele><time>2026-05-03T07:02:19.743Z</time></trkpt><trkpt lat="39.9054178" lon="20.483613"><ele>554.5</ele><time>2026-05-03T07:02:20.743Z</time></trkpt><trkpt lat="39.9054414" lon="20.4833049"><ele>556.0</ele><time>2026-05-03T07:02:21.743Z</time></trkpt><trkpt lat="39.9054648" lon="20.4829942"><ele>554.5</ele><time>2026-05-03T07:02:22.742Z</time></trkpt><trkpt lat="39.9054908" lon="20.4826826"><ele>553.0</ele><time>2026-05-03T07:02:23.743Z</time></trkpt><trkpt lat="39.9055175" lon="20.4823692"><ele>554.5</ele><time>2026-05-03T07:02:24.742Z</time></trkpt><trkpt lat="39.9055434" lon="20.4820536"><ele>556.0</ele><time>2026-05-03T07:02:25.743Z</time></trkpt><trkpt lat="39.9055661" lon="20.4817393"><ele>556.0</ele><time>2026-05-03T07:02:26.743Z</time></trkpt><trkpt lat="39.9055906" lon="20.4814231"><ele>556.0</ele><time>2026-05-03T07:02:27.742Z</time></trkpt><trkpt lat="39.9056142" lon="20.4811068"><ele>557.0</ele><time>2026-05-03T07:02:28.742Z</time></trkpt><trkpt lat="39.9056409" lon="20.4807924"><ele>558.0</ele><time>2026-05-03T07:02:29.742Z</time></trkpt><trkpt lat="39.905667" lon="20.4804791"><ele>559.5</ele><time>2026-05-03T07:02:30.742Z</time></trkpt><trkpt lat="39.9056924" lon="20.4801672"><ele>561.0</ele><time>2026-05-03T07:02:31.743Z</time></trkpt><trkpt lat="39.9057192" lon="20.4798567"><ele>562.5</ele><time>2026-05-03T07:02:32.742Z</time></trkpt><trkpt lat="39.9057471" lon="20.4795502"><ele>564.0</ele><time>2026-05-03T07:02:33.742Z</time></trkpt><trkpt lat="39.905776" lon="20.4792467"><ele>564.0</ele><time>2026-05-03T07:02:34.742Z</time></trkpt><trkpt lat="39.9058044" lon="20.4789485"><ele>564.0</ele><time>2026-05-03T07:02:35.742Z</time></trkpt><trkpt lat="39.9058307" lon="20.4786571"><ele>563.3333333333334</ele><time>2026-05-03T07:02:36.742Z</time></trkpt><trkpt lat="39.9058645" lon="20.4783723"><ele>562.6666666666667</ele><time>2026-05-03T07:02:37.742Z</time></trkpt><trkpt lat="39.9059004" lon="20.478089"><ele>562.0</ele><time>2026-05-03T07:02:38.742Z</time></trkpt><trkpt lat="39.905943" lon="20.4778048"><ele>561.5</ele><time>2026-05-03T07:02:39.742Z</time></trkpt><trkpt lat="39.905991" lon="20.4775151"><ele>561.0</ele><time>2026-05-03T07:02:40.743Z</time></trkpt><trkpt lat="39.9060507" lon="20.4772261"><ele>561.5</ele><time>2026-05-03T07:02:41.742Z</time></trkpt><trkpt lat="39.9061132" lon="20.4769337"><ele>562.0</ele><time>2026-05-03T07:02:42.743Z</time></trkpt><trkpt lat="39.9061802" lon="20.4766444"><ele>562.0</ele><time>2026-05-03T07:02:43.743Z</time></trkpt><trkpt lat="39.906256" lon="20.4763577"><ele>562.0</ele><time>2026-05-03T07:02:44.743Z</time></trkpt><trkpt lat="39.9063413" lon="20.476073"><ele>563.0</ele><time>2026-05-03T07:02:45.742Z</time></trkpt><trkpt lat="39.9064274" lon="20.4757852"><ele>564.0</ele><time>2026-05-03T07:02:46.742Z</time></trkpt><trkpt lat="39.9065153" lon="20.4754998"><ele>564.5</ele><time>2026-05-03T07:02:47.741Z</time></trkpt><trkpt lat="39.9065988" lon="20.4752093"><ele>565.0</ele><time>2026-05-03T07:02:48.742Z</time></trkpt><trkpt lat="39.90668" lon="20.4749228"><ele>565.0</ele><time>2026-05-03T07:02:49.743Z</time></trkpt><trkpt lat="39.9067545" lon="20.4746347"><ele>565.0</ele><time>2026-05-03T07:02:50.742Z</time></trkpt><trkpt lat="39.9068279" lon="20.4743364"><ele>565.0</ele><time>2026-05-03T07:02:51.743Z</time></trkpt><trkpt lat="39.9069026" lon="20.4740454"><ele>565.0</ele><time>2026-05-03T07:02:52.742Z</time></trkpt><trkpt lat="39.9069713" lon="20.4737492"><ele>566.5</ele><time>2026-05-03T07:02:53.743Z</time></trkpt><trkpt lat="39.9070333" lon="20.4734536"><ele>568.0</ele><time>2026-05-03T07:02:54.742Z</time></trkpt><trkpt lat="39.9070915" lon="20.4731519"><ele>566.5</ele><time>2026-05-03T07:02:55.743Z</time></trkpt><trkpt lat="39.9071441" lon="20.472844"><ele>565.0</ele><time>2026-05-03T07:02:56.743Z</time></trkpt><trkpt lat="39.9071953" lon="20.4725286"><ele>565.0</ele><time>2026-05-03T07:02:57.742Z</time></trkpt><trkpt lat="39.907241" lon="20.4722082"><ele>565.0</ele><time>2026-05-03T07:02:58.743Z</time></trkpt><trkpt lat="39.90729" lon="20.471884"><ele>564.0</ele><time>2026-05-03T07:02:59.743Z</time></trkpt><trkpt lat="39.9073295" lon="20.4715644"><ele>563.0</ele><time>2026-05-03T07:03:00.742Z</time></trkpt><trkpt lat="39.9073699" lon="20.4712455"><ele>563.0</ele><time>2026-05-03T07:03:01.742Z</time></trkpt><trkpt lat="39.9074073" lon="20.470933"><ele>563.0</ele><time>2026-05-03T07:03:02.742Z</time></trkpt><trkpt lat="39.9074437" lon="20.4706234"><ele>564.0</ele><time>2026-05-03T07:03:03.742Z</time></trkpt><trkpt lat="39.9074852" lon="20.4703278"><ele>565.0</ele><time>2026-05-03T07:03:04.743Z</time></trkpt><trkpt lat="39.9075259" lon="20.4700217"><ele>565.0</ele><time>2026-05-03T07:03:05.743Z</time></trkpt><trkpt lat="39.9075643" lon="20.4697203"><ele>565.0</ele><time>2026-05-03T07:03:06.743Z</time></trkpt><trkpt lat="39.9076024" lon="20.4694119"><ele>565.0</ele><time>2026-05-03T07:03:07.742Z</time></trkpt><trkpt lat="39.9076435" lon="20.4690973"><ele>565.0</ele><time>2026-05-03T07:03:08.743Z</time></trkpt><trkpt lat="39.9076801" lon="20.4687865"><ele>565.5</ele><time>2026-05-03T07:03:09.743Z</time></trkpt><trkpt lat="39.9077164" lon="20.4684736"><ele>566.0</ele><time>2026-05-03T07:03:10.742Z</time></trkpt><trkpt lat="39.9077519" lon="20.4681624"><ele>567.5</ele><time>2026-05-03T07:03:11.743Z</time></trkpt><trkpt lat="39.9077838" lon="20.467849"><ele>569.0</ele><time>2026-05-03T07:03:12.743Z</time></trkpt><trkpt lat="39.9078095" lon="20.4675396"><ele>569.0</ele><time>2026-05-03T07:03:13.742Z</time></trkpt><trkpt lat="39.907831" lon="20.4672305"><ele>569.0</ele><time>2026-05-03T07:03:14.743Z</time></trkpt><trkpt lat="39.9078496" lon="20.4669248"><ele>572.0</ele><time>2026-05-03T07:03:15.742Z</time></trkpt><trkpt lat="39.9078669" lon="20.4666244"><ele>575.0</ele><time>2026-05-03T07:03:16.743Z</time></trkpt><trkpt lat="39.9078867" lon="20.4663318"><ele>576.0</ele><time>2026-05-03T07:03:17.743Z</time></trkpt><trkpt lat="39.9078987" lon="20.4660368"><ele>577.0</ele><time>2026-05-03T07:03:18.742Z</time></trkpt><trkpt lat="39.9079172" lon="20.4657518"><ele>578.0</ele><time>2026-05-03T07:03:19.742Z</time></trkpt><trkpt lat="39.907934" lon="20.4654674"><ele>577.0</ele><time>2026-05-03T07:03:20.742Z</time></trkpt><trkpt lat="39.9079486" lon="20.465186"><ele>576.0</ele><time>2026-05-03T07:03:21.743Z</time></trkpt><trkpt lat="39.9079625" lon="20.4649124"><ele>575.0</ele><time>2026-05-03T07:03:22.742Z</time></trkpt><trkpt lat="39.9079763" lon="20.4646437"><ele>572.6666666666666</ele><time>2026-05-03T07:03:23.743Z</time></trkpt><trkpt lat="39.9079871" lon="20.4643735"><ele>570.3333333333334</ele><time>2026-05-03T07:03:24.743Z</time></trkpt><trkpt lat="39.9079949" lon="20.4641072"><ele>568.0</ele><time>2026-05-03T07:03:25.743Z</time></trkpt><trkpt lat="39.9079987" lon="20.4638422"><ele>565.3333333333334</ele><time>2026-05-03T07:03:26.742Z</time></trkpt><trkpt lat="39.9080008" lon="20.4635742"><ele>562.6666666666666</ele><time>2026-05-03T07:03:27.742Z</time></trkpt><trkpt lat="39.9079785" lon="20.4633101"><ele>560.0</ele><time>2026-05-03T07:03:28.743Z</time></trkpt><trkpt lat="39.9079447" lon="20.4630328"><ele>561.6666666666666</ele><time>2026-05-03T07:03:29.742Z</time></trkpt><trkpt lat="39.9078933" lon="20.4627553"><ele>563.3333333333334</ele><time>2026-05-03T07:03:30.743Z</time></trkpt><trkpt lat="39.9078153" lon="20.4624841"><ele>565.0</ele><time>2026-05-03T07:03:31.743Z</time></trkpt><trkpt lat="39.9077357" lon="20.4621969"><ele>567.5</ele><time>2026-05-03T07:03:32.742Z</time></trkpt><trkpt lat="39.9076584" lon="20.4619163"><ele>570.0</ele><time>2026-05-03T07:03:33.743Z</time></trkpt><trkpt lat="39.9075665" lon="20.4616427"><ele>562.5</ele><time>2026-05-03T07:03:34.741Z</time></trkpt><trkpt lat="39.9074733" lon="20.4613652"><ele>555.0</ele><time>2026-05-03T07:03:35.742Z</time></trkpt><trkpt lat="39.9073794" lon="20.4610843"><ele>555.0</ele><time>2026-05-03T07:03:36.743Z</time></trkpt><trkpt lat="39.9072868" lon="20.4608118"><ele>555.0</ele><time>2026-05-03T07:03:37.743Z</time></trkpt><trkpt lat="39.9071998" lon="20.4605244"><ele>556.0</ele><time>2026-05-03T07:03:38.743Z</time></trkpt><trkpt lat="39.9071209" lon="20.4602346"><ele>557.0</ele><time>2026-05-03T07:03:39.743Z</time></trkpt><trkpt lat="39.9070446" lon="20.4599378"><ele>557.0</ele><time>2026-05-03T07:03:40.742Z</time></trkpt><trkpt lat="39.906983" lon="20.4596396"><ele>557.0</ele><time>2026-05-03T07:03:41.742Z</time></trkpt><trkpt lat="39.9069357" lon="20.4593411"><ele>557.5</ele><time>2026-05-03T07:03:42.741Z</time></trkpt><trkpt lat="39.9068931" lon="20.4590432"><ele>558.0</ele><time>2026-05-03T07:03:43.742Z</time></trkpt><trkpt lat="39.9068611" lon="20.4587454"><ele>559.0</ele><time>2026-05-03T07:03:44.743Z</time></trkpt><trkpt lat="39.9068388" lon="20.4584462"><ele>560.0</ele><time>2026-05-03T07:03:45.742Z</time></trkpt><trkpt lat="39.9068258" lon="20.4581397"><ele>562.0</ele><time>2026-05-03T07:03:46.743Z</time></trkpt><trkpt lat="39.9068217" lon="20.4578175"><ele>564.0</ele><time>2026-05-03T07:03:47.743Z</time></trkpt><trkpt lat="39.9068321" lon="20.4574851"><ele>564.0</ele><time>2026-05-03T07:03:48.743Z</time></trkpt><trkpt lat="39.9068472" lon="20.4571484"><ele>564.0</ele><time>2026-05-03T07:03:49.742Z</time></trkpt><trkpt lat="39.906866" lon="20.4568155"><ele>563.5</ele><time>2026-05-03T07:03:50.743Z</time></trkpt><trkpt lat="39.9068863" lon="20.456485"><ele>563.0</ele><time>2026-05-03T07:03:51.743Z</time></trkpt><trkpt lat="39.9069054" lon="20.4561556"><ele>562.0</ele><time>2026-05-03T07:03:52.741Z</time></trkpt><trkpt lat="39.9069238" lon="20.455831"><ele>561.0</ele><time>2026-05-03T07:03:53.742Z</time></trkpt><trkpt lat="39.9069442" lon="20.4555108"><ele>559.0</ele><time>2026-05-03T07:03:54.743Z</time></trkpt><trkpt lat="39.9069658" lon="20.4551955"><ele>557.0</ele><time>2026-05-03T07:03:55.743Z</time></trkpt><trkpt lat="39.9069793" lon="20.4548895"><ele>559.0</ele><time>2026-05-03T07:03:56.743Z</time></trkpt><trkpt lat="39.9070013" lon="20.4545779"><ele>561.0</ele><time>2026-05-03T07:03:57.743Z</time></trkpt><trkpt lat="39.9070238" lon="20.4542635"><ele>561.0</ele><time>2026-05-03T07:03:58.742Z</time></trkpt><trkpt lat="39.9070454" lon="20.4539569"><ele>561.0</ele><time>2026-05-03T07:03:59.742Z</time></trkpt><trkpt lat="39.9070688" lon="20.4536547"><ele>562.5</ele><time>2026-05-03T07:04:00.743Z</time></trkpt><trkpt lat="39.907092" lon="20.4533573"><ele>564.0</ele><time>2026-05-03T07:04:01.743Z</time></trkpt><trkpt lat="39.9071143" lon="20.4530592"><ele>565.5</ele><time>2026-05-03T07:04:02.742Z</time></trkpt><trkpt lat="39.9071315" lon="20.4527647"><ele>567.0</ele><time>2026-05-03T07:04:03.743Z</time></trkpt><trkpt lat="39.9071478" lon="20.4524724"><ele>567.0</ele><time>2026-05-03T07:04:04.743Z</time></trkpt><trkpt lat="39.9071648" lon="20.4521769"><ele>567.0</ele><time>2026-05-03T07:04:05.742Z</time></trkpt><trkpt lat="39.9071828" lon="20.4518748"><ele>567.0</ele><time>2026-05-03T07:04:06.742Z</time></trkpt><trkpt lat="39.9072011" lon="20.4515776"><ele>567.0</ele><time>2026-05-03T07:04:07.743Z</time></trkpt><trkpt lat="39.9072257" lon="20.4512747"><ele>567.0</ele><time>2026-05-03T07:04:08.743Z</time></trkpt><trkpt lat="39.9072464" lon="20.4509893"><ele>567.0</ele><time>2026-05-03T07:04:09.743Z</time></trkpt><trkpt lat="39.9072712" lon="20.4506991"><ele>567.0</ele><time>2026-05-03T07:04:10.742Z</time></trkpt><trkpt lat="39.9073047" lon="20.4504108"><ele>565.6666666666666</ele><time>2026-05-03T07:04:11.742Z</time></trkpt><trkpt lat="39.9073437" lon="20.4501315"><ele>564.3333333333333</ele><time>2026-05-03T07:04:12.743Z</time></trkpt><trkpt lat="39.9073956" lon="20.4498462"><ele>563.0</ele><time>2026-05-03T07:04:13.742Z</time></trkpt><trkpt lat="39.907458" lon="20.4495637"><ele>563.5</ele><time>2026-05-03T07:04:14.743Z</time></trkpt><trkpt lat="39.9075523" lon="20.4492648"><ele>564.0</ele><time>2026-05-03T07:04:15.742Z</time></trkpt><trkpt lat="39.9076421" lon="20.4489873"><ele>561.0</ele><time>2026-05-03T07:04:16.743Z</time></trkpt><trkpt lat="39.9077354" lon="20.448706"><ele>558.0</ele><time>2026-05-03T07:04:17.743Z</time></trkpt><trkpt lat="39.9078364" lon="20.4484056"><ele>558.0</ele><time>2026-05-03T07:04:18.743Z</time></trkpt><trkpt lat="39.9079274" lon="20.4481129"><ele>558.0</ele><time>2026-05-03T07:04:19.742Z</time></trkpt><trkpt lat="39.9080181" lon="20.4478245"><ele>557.0</ele><time>2026-05-03T07:04:20.743Z</time></trkpt><trkpt lat="39.9081014" lon="20.447532"><ele>556.0</ele><time>2026-05-03T07:04:21.742Z</time></trkpt><trkpt lat="39.9081765" lon="20.4472325"><ele>555.0</ele><time>2026-05-03T07:04:22.743Z</time></trkpt><trkpt lat="39.9082407" lon="20.4469344"><ele>554.0</ele><time>2026-05-03T07:04:23.743Z</time></trkpt><trkpt lat="39.9082971" lon="20.4466342"><ele>554.0</ele><time>2026-05-03T07:04:24.743Z</time></trkpt><trkpt lat="39.9083424" lon="20.4463304"><ele>554.0</ele><time>2026-05-03T07:04:25.74Z</time></trkpt><trkpt lat="39.9083809" lon="20.4460229"><ele>553.0</ele><time>2026-05-03T07:04:26.743Z</time></trkpt><trkpt lat="39.9084093" lon="20.4457145"><ele>552.0</ele><time>2026-05-03T07:04:27.742Z</time></trkpt><trkpt lat="39.9084197" lon="20.445406"><ele>554.5</ele><time>2026-05-03T07:04:28.743Z</time></trkpt><trkpt lat="39.9084257" lon="20.4450966"><ele>557.0</ele><time>2026-05-03T07:04:29.741Z</time></trkpt><trkpt lat="39.9084148" lon="20.4447861"><ele>553.0</ele><time>2026-05-03T07:04:30.742Z</time></trkpt><trkpt lat="39.9083929" lon="20.4444794"><ele>549.0</ele><time>2026-05-03T07:04:31.742Z</time></trkpt><trkpt lat="39.9083624" lon="20.4441696"><ele>549.0</ele><time>2026-05-03T07:04:32.741Z</time></trkpt><trkpt lat="39.9083194" lon="20.4438585"><ele>549.0</ele><time>2026-05-03T07:04:33.742Z</time></trkpt><trkpt lat="39.9082788" lon="20.443547"><ele>547.5</ele><time>2026-05-03T07:04:34.742Z</time></trkpt><trkpt lat="39.9082528" lon="20.4431958"><ele>546.0</ele><time>2026-05-03T07:04:35.743Z</time></trkpt><trkpt lat="39.9082042" lon="20.4428807"><ele>544.0</ele><time>2026-05-03T07:04:36.742Z</time></trkpt><trkpt lat="39.9081581" lon="20.4425638"><ele>542.0</ele><time>2026-05-03T07:04:37.743Z</time></trkpt><trkpt lat="39.9081142" lon="20.4422446"><ele>542.0</ele><time>2026-05-03T07:04:38.742Z</time></trkpt><trkpt lat="39.9080694" lon="20.4419273"><ele>542.0</ele><time>2026-05-03T07:04:39.742Z</time></trkpt><trkpt lat="39.9080281" lon="20.441609"><ele>541.0</ele><time>2026-05-03T07:04:40.742Z</time></trkpt><trkpt lat="39.9079822" lon="20.4412944"><ele>540.0</ele><time>2026-05-03T07:04:41.741Z</time></trkpt><trkpt lat="39.9079391" lon="20.4409813"><ele>540.0</ele><time>2026-05-03T07:04:42.742Z</time></trkpt><trkpt lat="39.9078925" lon="20.440665"><ele>540.0</ele><time>2026-05-03T07:04:43.741Z</time></trkpt><trkpt lat="39.9078448" lon="20.4403502"><ele>541.5</ele><time>2026-05-03T07:04:44.743Z</time></trkpt><trkpt lat="39.9078074" lon="20.4400328"><ele>543.0</ele><time>2026-05-03T07:04:45.742Z</time></trkpt><trkpt lat="39.9077625" lon="20.4397148"><ele>543.0</ele><time>2026-05-03T07:04:46.743Z</time></trkpt><trkpt lat="39.9077242" lon="20.4394017"><ele>543.0</ele><time>2026-05-03T07:04:47.741Z</time></trkpt><trkpt lat="39.9076871" lon="20.4390895"><ele>545.0</ele><time>2026-05-03T07:04:48.743Z</time></trkpt><trkpt lat="39.9076457" lon="20.4387789"><ele>547.0</ele><time>2026-05-03T07:04:49.743Z</time></trkpt><trkpt lat="39.9075974" lon="20.4384593"><ele>545.0</ele><time>2026-05-03T07:04:50.741Z</time></trkpt><trkpt lat="39.9075482" lon="20.4381492"><ele>543.0</ele><time>2026-05-03T07:04:51.742Z</time></trkpt><trkpt lat="39.9074984" lon="20.4378487"><ele>543.0</ele><time>2026-05-03T07:04:52.741Z</time></trkpt><trkpt lat="39.907445" lon="20.4375351"><ele>543.0</ele><time>2026-05-03T07:04:53.741Z</time></trkpt><trkpt lat="39.9073771" lon="20.4372071"><ele>542.0</ele><time>2026-05-03T07:04:54.742Z</time></trkpt><trkpt lat="39.9073206" lon="20.4369046"><ele>541.0</ele><time>2026-05-03T07:04:55.743Z</time></trkpt><trkpt lat="39.9072631" lon="20.4365998"><ele>543.0</ele><time>2026-05-03T07:04:56.742Z</time></trkpt><trkpt lat="39.9072106" lon="20.436298"><ele>545.0</ele><time>2026-05-03T07:04:57.743Z</time></trkpt><trkpt lat="39.9071495" lon="20.4359919"><ele>545.0</ele><time>2026-05-03T07:04:58.742Z</time></trkpt><trkpt lat="39.9070899" lon="20.4356896"><ele>545.0</ele><time>2026-05-03T07:04:59.742Z</time></trkpt><trkpt lat="39.9070278" lon="20.4353862"><ele>547.0</ele><time>2026-05-03T07:05:00.743Z</time></trkpt><trkpt lat="39.906967" lon="20.4350798"><ele>549.0</ele><time>2026-05-03T07:05:01.743Z</time></trkpt><trkpt lat="39.9069104" lon="20.4347827"><ele>547.0</ele><time>2026-05-03T07:05:02.741Z</time></trkpt><trkpt lat="39.9068545" lon="20.4344789"><ele>545.0</ele><time>2026-05-03T07:05:03.741Z</time></trkpt><trkpt lat="39.9067953" lon="20.4341677"><ele>534.5</ele><time>2026-05-03T07:05:04.742Z</time></trkpt><trkpt lat="39.906736" lon="20.4338678"><ele>524.0</ele><time>2026-05-03T07:05:05.743Z</time></trkpt><trkpt lat="39.9066874" lon="20.4335741"><ele>524.0</ele><time>2026-05-03T07:05:06.743Z</time></trkpt><trkpt lat="39.9066517" lon="20.4332826"><ele>524.0</ele><time>2026-05-03T07:05:07.742Z</time></trkpt><trkpt lat="39.9066387" lon="20.4330002"><ele>524.0</ele><time>2026-05-03T07:05:08.743Z</time></trkpt><trkpt lat="39.9066487" lon="20.4327172"><ele>522.3333333333333</ele><time>2026-05-03T07:05:09.743Z</time></trkpt><trkpt lat="39.9066801" lon="20.4324287"><ele>520.6666666666666</ele><time>2026-05-03T07:05:10.742Z</time></trkpt><trkpt lat="39.9067342" lon="20.4321448"><ele>519.0</ele><time>2026-05-03T07:05:11.741Z</time></trkpt><trkpt lat="39.9068119" lon="20.4318598"><ele>516.0</ele><time>2026-05-03T07:05:12.743Z</time></trkpt><trkpt lat="39.9069132" lon="20.431588"><ele>513.0</ele><time>2026-05-03T07:05:13.743Z</time></trkpt><trkpt lat="39.9070292" lon="20.4313241"><ele>506.0</ele><time>2026-05-03T07:05:14.742Z</time></trkpt><trkpt lat="39.9071382" lon="20.4310624"><ele>499.0</ele><time>2026-05-03T07:05:15.742Z</time></trkpt><trkpt lat="39.9072429" lon="20.4308013"><ele>499.0</ele><time>2026-05-03T07:05:16.741Z</time></trkpt><trkpt lat="39.9073343" lon="20.4305253"><ele>499.0</ele><time>2026-05-03T07:05:17.741Z</time></trkpt><trkpt lat="39.9074075" lon="20.4302427"><ele>492.0</ele><time>2026-05-03T07:05:18.742Z</time></trkpt><trkpt lat="39.9074575" lon="20.4299495"><ele>485.0</ele><time>2026-05-03T07:05:19.742Z</time></trkpt><trkpt lat="39.9074866" lon="20.4296574"><ele>484.0</ele><time>2026-05-03T07:05:20.742Z</time></trkpt><trkpt lat="39.9074873" lon="20.4293552"><ele>483.0</ele><time>2026-05-03T07:05:21.743Z</time></trkpt><trkpt lat="39.9074604" lon="20.4290549"><ele>483.5</ele><time>2026-05-03T07:05:22.743Z</time></trkpt><trkpt lat="39.9074111" lon="20.428758"><ele>484.0</ele><time>2026-05-03T07:05:23.741Z</time></trkpt><trkpt lat="39.907329" lon="20.4284688"><ele>484.0</ele><time>2026-05-03T07:05:24.743Z</time></trkpt><trkpt lat="39.907242" lon="20.4281472"><ele>484.0</ele><time>2026-05-03T07:05:25.74Z</time></trkpt><trkpt lat="39.9071184" lon="20.4278601"><ele>488.0</ele><time>2026-05-03T07:05:26.742Z</time></trkpt><trkpt lat="39.9069737" lon="20.4275807"><ele>492.0</ele><time>2026-05-03T07:05:27.741Z</time></trkpt><trkpt lat="39.9068439" lon="20.427318"><ele>491.0</ele><time>2026-05-03T07:05:28.743Z</time></trkpt><trkpt lat="39.906718" lon="20.4270452"><ele>490.0</ele><time>2026-05-03T07:05:29.743Z</time></trkpt><trkpt lat="39.9066049" lon="20.4267779"><ele>490.0</ele><time>2026-05-03T07:05:30.743Z</time></trkpt><trkpt lat="39.9064993" lon="20.4265014"><ele>490.0</ele><time>2026-05-03T07:05:31.742Z</time></trkpt><trkpt lat="39.90642" lon="20.4262096"><ele>492.0</ele><time>2026-05-03T07:05:32.743Z</time></trkpt><trkpt lat="39.9063618" lon="20.4259087"><ele>494.0</ele><time>2026-05-03T07:05:33.742Z</time></trkpt><trkpt lat="39.906302" lon="20.4256052"><ele>494.5</ele><time>2026-05-03T07:05:34.74Z</time></trkpt><trkpt lat="39.9062431" lon="20.4253036"><ele>495.0</ele><time>2026-05-03T07:05:35.741Z</time></trkpt><trkpt lat="39.9061708" lon="20.4249997"><ele>495.0</ele><time>2026-05-03T07:05:36.742Z</time></trkpt><trkpt lat="39.906084" lon="20.4247154"><ele>495.0</ele><time>2026-05-03T07:05:37.742Z</time></trkpt><trkpt lat="39.9059741" lon="20.4244411"><ele>488.0</ele><time>2026-05-03T07:05:38.742Z</time></trkpt><trkpt lat="39.9058428" lon="20.4241811"><ele>481.0</ele><time>2026-05-03T07:05:39.743Z</time></trkpt><trkpt lat="39.9056995" lon="20.4239333"><ele>477.5</ele><time>2026-05-03T07:05:40.743Z</time></trkpt><trkpt lat="39.9055526" lon="20.4236996"><ele>474.0</ele><time>2026-05-03T07:05:41.741Z</time></trkpt><trkpt lat="39.9054235" lon="20.423454"><ele>474.0</ele><time>2026-05-03T07:05:42.742Z</time></trkpt><trkpt lat="39.9053073" lon="20.4231861"><ele>474.0</ele><time>2026-05-03T07:05:43.742Z</time></trkpt><trkpt lat="39.9052169" lon="20.4228958"><ele>469.0</ele><time>2026-05-03T07:05:44.742Z</time></trkpt><trkpt lat="39.9051383" lon="20.4225969"><ele>464.0</ele><time>2026-05-03T07:05:45.741Z</time></trkpt><trkpt lat="39.905083" lon="20.422299"><ele>472.0</ele><time>2026-05-03T07:05:46.742Z</time></trkpt><trkpt lat="39.9050485" lon="20.4219981"><ele>480.0</ele><time>2026-05-03T07:05:47.742Z</time></trkpt><trkpt lat="39.9050081" lon="20.4216973"><ele>480.0</ele><time>2026-05-03T07:05:48.74Z</time></trkpt><trkpt lat="39.9049639" lon="20.4214123"><ele>480.0</ele><time>2026-05-03T07:05:49.742Z</time></trkpt><trkpt lat="39.9049013" lon="20.4211444"><ele>480.0</ele><time>2026-05-03T07:05:50.743Z</time></trkpt><trkpt lat="39.904832" lon="20.4208732"><ele>477.5</ele><time>2026-05-03T07:05:51.743Z</time></trkpt><trkpt lat="39.9047255" lon="20.4206178"><ele>475.0</ele><time>2026-05-03T07:05:52.741Z</time></trkpt><trkpt lat="39.9045977" lon="20.4203694"><ele>471.5</ele><time>2026-05-03T07:05:53.74Z</time></trkpt><trkpt lat="39.9044526" lon="20.4201292"><ele>468.0</ele><time>2026-05-03T07:05:54.741Z</time></trkpt><trkpt lat="39.9042711" lon="20.4199067"><ele>465.0</ele><time>2026-05-03T07:05:55.742Z</time></trkpt><trkpt lat="39.9040712" lon="20.4197123"><ele>462.0</ele><time>2026-05-03T07:05:56.743Z</time></trkpt><trkpt lat="39.9038675" lon="20.4195467"><ele>462.0</ele><time>2026-05-03T07:05:57.743Z</time></trkpt><trkpt lat="39.9036458" lon="20.4194095"><ele>462.0</ele><time>2026-05-03T07:05:58.741Z</time></trkpt><trkpt lat="39.9034275" lon="20.4192798"><ele>464.0</ele><time>2026-05-03T07:05:59.741Z</time></trkpt><trkpt lat="39.9032142" lon="20.4191415"><ele>466.0</ele><time>2026-05-03T07:06:00.743Z</time></trkpt><trkpt lat="39.9030049" lon="20.4189884"><ele>466.0</ele><time>2026-05-03T07:06:01.743Z</time></trkpt><trkpt lat="39.9028052" lon="20.4188201"><ele>466.0</ele><time>2026-05-03T07:06:02.741Z</time></trkpt><trkpt lat="39.9026217" lon="20.4186232"><ele>460.0</ele><time>2026-05-03T07:06:03.743Z</time></trkpt><trkpt lat="39.9024631" lon="20.4184198"><ele>454.0</ele><time>2026-05-03T07:06:04.743Z</time></trkpt><trkpt lat="39.9023104" lon="20.4181745"><ele>451.0</ele><time>2026-05-03T07:06:05.74Z</time></trkpt><trkpt lat="39.90218" lon="20.4179106"><ele>448.0</ele><time>2026-05-03T07:06:06.741Z</time></trkpt><trkpt lat="39.9020732" lon="20.4176355"><ele>448.0</ele><time>2026-05-03T07:06:07.741Z</time></trkpt><trkpt lat="39.9019867" lon="20.4173408"><ele>448.0</ele><time>2026-05-03T07:06:08.743Z</time></trkpt><trkpt lat="39.9019223" lon="20.4170399"><ele>450.5</ele><time>2026-05-03T07:06:09.742Z</time></trkpt><trkpt lat="39.9019009" lon="20.4167237"><ele>453.0</ele><time>2026-05-03T07:06:10.743Z</time></trkpt><trkpt lat="39.9019002" lon="20.416407"><ele>453.5</ele><time>2026-05-03T07:06:11.742Z</time></trkpt><trkpt lat="39.9019195" lon="20.4160911"><ele>454.0</ele><time>2026-05-03T07:06:12.743Z</time></trkpt><trkpt lat="39.9019675" lon="20.4157692"><ele>454.0</ele><time>2026-05-03T07:06:13.742Z</time></trkpt><trkpt lat="39.9020328" lon="20.4154604"><ele>454.0</ele><time>2026-05-03T07:06:14.743Z</time></trkpt><trkpt lat="39.9021449" lon="20.4151493"><ele>454.0</ele><time>2026-05-03T07:06:15.742Z</time></trkpt><trkpt lat="39.9022645" lon="20.4148611"><ele>454.0</ele><time>2026-05-03T07:06:16.743Z</time></trkpt><trkpt lat="39.9023882" lon="20.4145752"><ele>455.5</ele><time>2026-05-03T07:06:17.742Z</time></trkpt><trkpt lat="39.9025113" lon="20.4142901"><ele>457.0</ele><time>2026-05-03T07:06:18.742Z</time></trkpt><trkpt lat="39.9026307" lon="20.4140015"><ele>453.0</ele><time>2026-05-03T07:06:19.742Z</time></trkpt><trkpt lat="39.9027475" lon="20.4137293"><ele>449.0</ele><time>2026-05-03T07:06:20.742Z</time></trkpt><trkpt lat="39.9028587" lon="20.4134618"><ele>449.0</ele><time>2026-05-03T07:06:21.743Z</time></trkpt><trkpt lat="39.9029646" lon="20.4132023"><ele>449.0</ele><time>2026-05-03T07:06:22.741Z</time></trkpt><trkpt lat="39.9030555" lon="20.4129386"><ele>449.0</ele><time>2026-05-03T07:06:23.743Z</time></trkpt><trkpt lat="39.9031255" lon="20.4126714"><ele>447.66666666666663</ele><time>2026-05-03T07:06:24.743Z</time></trkpt><trkpt lat="39.9031767" lon="20.4123932"><ele>446.33333333333337</ele><time>2026-05-03T07:06:25.742Z</time></trkpt><trkpt lat="39.9032055" lon="20.4121017"><ele>445.0</ele><time>2026-05-03T07:06:26.743Z</time></trkpt><trkpt lat="39.9032157" lon="20.4118061"><ele>445.0</ele><time>2026-05-03T07:06:27.742Z</time></trkpt><trkpt lat="39.9032063" lon="20.4115088"><ele>445.0</ele><time>2026-05-03T07:06:28.743Z</time></trkpt><trkpt lat="39.9031841" lon="20.4112151"><ele>440.6666666666667</ele><time>2026-05-03T07:06:29.743Z</time></trkpt><trkpt lat="39.9031578" lon="20.4109261"><ele>436.33333333333337</ele><time>2026-05-03T07:06:30.743Z</time></trkpt><trkpt lat="39.9031454" lon="20.4106419"><ele>432.0</ele><time>2026-05-03T07:06:31.742Z</time></trkpt><trkpt lat="39.9031457" lon="20.4103584"><ele>429.5</ele><time>2026-05-03T07:06:32.743Z</time></trkpt><trkpt lat="39.9031672" lon="20.4100554"><ele>427.0</ele><time>2026-05-03T07:06:33.742Z</time></trkpt><trkpt lat="39.90321" lon="20.409761"><ele>426.0</ele><time>2026-05-03T07:06:34.742Z</time></trkpt><trkpt lat="39.9032634" lon="20.4094693"><ele>425.0</ele><time>2026-05-03T07:06:35.742Z</time></trkpt><trkpt lat="39.9033269" lon="20.4091821"><ele>425.0</ele><time>2026-05-03T07:06:36.742Z</time></trkpt><trkpt lat="39.9033845" lon="20.4089012"><ele>425.0</ele><time>2026-05-03T07:06:37.742Z</time></trkpt><trkpt lat="39.9034249" lon="20.4086192"><ele>425.0</ele><time>2026-05-03T07:06:38.743Z</time></trkpt><trkpt lat="39.9034534" lon="20.4083372"><ele>423.66666666666663</ele><time>2026-05-03T07:06:39.742Z</time></trkpt><trkpt lat="39.9034521" lon="20.4080488"><ele>422.33333333333337</ele><time>2026-05-03T07:06:40.743Z</time></trkpt><trkpt lat="39.9034416" lon="20.4077605"><ele>421.0</ele><time>2026-05-03T07:06:41.743Z</time></trkpt><trkpt lat="39.9034054" lon="20.4074745"><ele>421.0</ele><time>2026-05-03T07:06:42.743Z</time></trkpt><trkpt lat="39.9033455" lon="20.4071894"><ele>421.0</ele><time>2026-05-03T07:06:43.742Z</time></trkpt><trkpt lat="39.9032691" lon="20.4069149"><ele>412.5</ele><time>2026-05-03T07:06:44.742Z</time></trkpt><trkpt lat="39.9031612" lon="20.406651"><ele>404.0</ele><time>2026-05-03T07:06:45.743Z</time></trkpt><trkpt lat="39.9030324" lon="20.406402"><ele>395.5</ele><time>2026-05-03T07:06:46.742Z</time></trkpt><trkpt lat="39.9028926" lon="20.4061545"><ele>387.0</ele><time>2026-05-03T07:06:47.743Z</time></trkpt><trkpt lat="39.9027522" lon="20.4059036"><ele>387.0</ele><time>2026-05-03T07:06:48.742Z</time></trkpt><trkpt lat="39.9026097" lon="20.4056499"><ele>387.0</ele><time>2026-05-03T07:06:49.743Z</time></trkpt><trkpt lat="39.9024838" lon="20.4053956"><ele>394.5</ele><time>2026-05-03T07:06:50.742Z</time></trkpt><trkpt lat="39.9023758" lon="20.4051281"><ele>402.0</ele><time>2026-05-03T07:06:51.743Z</time></trkpt><trkpt lat="39.9022868" lon="20.4048545"><ele>396.0</ele><time>2026-05-03T07:06:52.742Z</time></trkpt><trkpt lat="39.9022097" lon="20.404564"><ele>390.0</ele><time>2026-05-03T07:06:53.742Z</time></trkpt><trkpt lat="39.9021406" lon="20.404267"><ele>390.0</ele><time>2026-05-03T07:06:54.742Z</time></trkpt><trkpt lat="39.9020756" lon="20.4039742"><ele>390.0</ele><time>2026-05-03T07:06:55.742Z</time></trkpt><trkpt lat="39.9020098" lon="20.4036794"><ele>387.0</ele><time>2026-05-03T07:06:56.742Z</time></trkpt><trkpt lat="39.9019507" lon="20.4033917"><ele>384.0</ele><time>2026-05-03T07:06:57.742Z</time></trkpt><trkpt lat="39.9018961" lon="20.4030989"><ele>383.6666666666667</ele><time>2026-05-03T07:06:58.743Z</time></trkpt><trkpt lat="39.9018608" lon="20.4028126"><ele>383.33333333333337</ele><time>2026-05-03T07:06:59.742Z</time></trkpt><trkpt lat="39.9018476" lon="20.4025275"><ele>383.0</ele><time>2026-05-03T07:07:00.742Z</time></trkpt><trkpt lat="39.9018471" lon="20.4022468"><ele>380.33333333333337</ele><time>2026-05-03T07:07:01.742Z</time></trkpt><trkpt lat="39.9018661" lon="20.4019697"><ele>377.6666666666667</ele><time>2026-05-03T07:07:02.741Z</time></trkpt><trkpt lat="39.9019042" lon="20.4016988"><ele>375.0</ele><time>2026-05-03T07:07:03.742Z</time></trkpt><trkpt lat="39.9019619" lon="20.4014277"><ele>375.6666666666667</ele><time>2026-05-03T07:07:04.743Z</time></trkpt><trkpt lat="39.9020401" lon="20.4011702"><ele>376.33333333333337</ele><time>2026-05-03T07:07:05.743Z</time></trkpt><trkpt lat="39.9021296" lon="20.4009231"><ele>377.0</ele><time>2026-05-03T07:07:06.743Z</time></trkpt><trkpt lat="39.9022401" lon="20.4006809"><ele>375.6666666666667</ele><time>2026-05-03T07:07:07.743Z</time></trkpt><trkpt lat="39.9023713" lon="20.400456"><ele>374.3333333333333</ele><time>2026-05-03T07:07:08.743Z</time></trkpt><trkpt lat="39.9025197" lon="20.4002435"><ele>373.0</ele><time>2026-05-03T07:07:09.742Z</time></trkpt><trkpt lat="39.9026933" lon="20.4000477"><ele>368.0</ele><time>2026-05-03T07:07:10.741Z</time></trkpt><trkpt lat="39.9028898" lon="20.3998831"><ele>363.0</ele><time>2026-05-03T07:07:11.743Z</time></trkpt><trkpt lat="39.9031209" lon="20.3997253"><ele>363.0</ele><time>2026-05-03T07:07:12.743Z</time></trkpt><trkpt lat="39.9033424" lon="20.3995868"><ele>363.0</ele><time>2026-05-03T07:07:13.742Z</time></trkpt><trkpt lat="39.9035658" lon="20.3994532"><ele>363.0</ele><time>2026-05-03T07:07:14.742Z</time></trkpt><trkpt lat="39.9037895" lon="20.3993337"><ele>363.0</ele><time>2026-05-03T07:07:15.743Z</time></trkpt><trkpt lat="39.9040073" lon="20.3992104"><ele>363.0</ele><time>2026-05-03T07:07:16.742Z</time></trkpt><trkpt lat="39.9042077" lon="20.3990712"><ele>363.0</ele><time>2026-05-03T07:07:17.743Z</time></trkpt><trkpt lat="39.9043968" lon="20.3989209"><ele>363.0</ele><time>2026-05-03T07:07:18.741Z</time></trkpt><trkpt lat="39.9045736" lon="20.3987583"><ele>362.0</ele><time>2026-05-03T07:07:19.742Z</time></trkpt><trkpt lat="39.9047405" lon="20.3985757"><ele>361.0</ele><time>2026-05-03T07:07:20.743Z</time></trkpt><trkpt lat="39.9048874" lon="20.3983711"><ele>360.0</ele><time>2026-05-03T07:07:21.742Z</time></trkpt><trkpt lat="39.9050202" lon="20.3981489"><ele>356.6666666666667</ele><time>2026-05-03T07:07:22.743Z</time></trkpt><trkpt lat="39.9051377" lon="20.3979194"><ele>353.33333333333337</ele><time>2026-05-03T07:07:23.743Z</time></trkpt><trkpt lat="39.9052334" lon="20.3976694"><ele>350.0</ele><time>2026-05-03T07:07:24.743Z</time></trkpt><trkpt lat="39.905309" lon="20.3974078"><ele>350.0</ele><time>2026-05-03T07:07:25.742Z</time></trkpt><trkpt lat="39.9053716" lon="20.3971399"><ele>350.0</ele><time>2026-05-03T07:07:26.742Z</time></trkpt><trkpt lat="39.9054139" lon="20.3968658"><ele>350.0</ele><time>2026-05-03T07:07:27.741Z</time></trkpt><trkpt lat="39.9054338" lon="20.3965867"><ele>345.0</ele><time>2026-05-03T07:07:28.743Z</time></trkpt><trkpt lat="39.9054227" lon="20.3962932"><ele>340.0</ele><time>2026-05-03T07:07:29.743Z</time></trkpt><trkpt lat="39.9053964" lon="20.3959919"><ele>340.0</ele><time>2026-05-03T07:07:30.743Z</time></trkpt><trkpt lat="39.9053607" lon="20.3956806"><ele>340.0</ele><time>2026-05-03T07:07:31.743Z</time></trkpt><trkpt lat="39.9053149" lon="20.3953672"><ele>335.0</ele><time>2026-05-03T07:07:32.743Z</time></trkpt><trkpt lat="39.9052627" lon="20.3950617"><ele>330.0</ele><time>2026-05-03T07:07:33.743Z</time></trkpt><trkpt lat="39.9052073" lon="20.3947513"><ele>328.0</ele><time>2026-05-03T07:07:34.743Z</time></trkpt><trkpt lat="39.9051655" lon="20.394448"><ele>326.0</ele><time>2026-05-03T07:07:35.743Z</time></trkpt><trkpt lat="39.9051283" lon="20.3941476"><ele>326.0</ele><time>2026-05-03T07:07:36.743Z</time></trkpt><trkpt lat="39.9051006" lon="20.3938687"><ele>326.0</ele><time>2026-05-03T07:07:37.742Z</time></trkpt><trkpt lat="39.905103" lon="20.3935856"><ele>326.0</ele><time>2026-05-03T07:07:38.742Z</time></trkpt><trkpt lat="39.9051244" lon="20.3933052"><ele>326.33333333333337</ele><time>2026-05-03T07:07:39.742Z</time></trkpt><trkpt lat="39.9051748" lon="20.3930186"><ele>326.6666666666667</ele><time>2026-05-03T07:07:40.743Z</time></trkpt><trkpt lat="39.9052406" lon="20.3927447"><ele>327.0</ele><time>2026-05-03T07:07:41.743Z</time></trkpt><trkpt lat="39.9053332" lon="20.3924795"><ele>333.0</ele><time>2026-05-03T07:07:42.741Z</time></trkpt><trkpt lat="39.9054346" lon="20.3922258"><ele>339.0</ele><time>2026-05-03T07:07:43.743Z</time></trkpt><trkpt lat="39.905561" lon="20.391973"><ele>345.5</ele><time>2026-05-03T07:07:44.742Z</time></trkpt><trkpt lat="39.9057076" lon="20.3917399"><ele>352.0</ele><time>2026-05-03T07:07:45.743Z</time></trkpt><trkpt lat="39.9058666" lon="20.3915068"><ele>346.0</ele><time>2026-05-03T07:07:46.743Z</time></trkpt><trkpt lat="39.9060329" lon="20.3912686"><ele>340.0</ele><time>2026-05-03T07:07:47.743Z</time></trkpt><trkpt lat="39.9062003" lon="20.3910301"><ele>340.0</ele><time>2026-05-03T07:07:48.743Z</time></trkpt><trkpt lat="39.9063632" lon="20.3907949"><ele>340.0</ele><time>2026-05-03T07:07:49.742Z</time></trkpt><trkpt lat="39.9065224" lon="20.3905651"><ele>338.0</ele><time>2026-05-03T07:07:50.741Z</time></trkpt><trkpt lat="39.9066907" lon="20.3903451"><ele>336.0</ele><time>2026-05-03T07:07:51.741Z</time></trkpt><trkpt lat="39.9068538" lon="20.3901477"><ele>336.0</ele><time>2026-05-03T07:07:52.742Z</time></trkpt><trkpt lat="39.9070417" lon="20.3899633"><ele>336.0</ele><time>2026-05-03T07:07:53.743Z</time></trkpt><trkpt lat="39.9072326" lon="20.3897984"><ele>336.5</ele><time>2026-05-03T07:07:54.743Z</time></trkpt><trkpt lat="39.9074223" lon="20.3896392"><ele>337.0</ele><time>2026-05-03T07:07:55.742Z</time></trkpt><trkpt lat="39.9076185" lon="20.3894791"><ele>337.0</ele><time>2026-05-03T07:07:56.743Z</time></trkpt><trkpt lat="39.9078075" lon="20.3893118"><ele>337.0</ele><time>2026-05-03T07:07:57.743Z</time></trkpt><trkpt lat="39.9079871" lon="20.3891298"><ele>337.0</ele><time>2026-05-03T07:07:58.741Z</time></trkpt><trkpt lat="39.9081513" lon="20.3889272"><ele>337.0</ele><time>2026-05-03T07:07:59.743Z</time></trkpt><trkpt lat="39.9083007" lon="20.3887047"><ele>331.66666666666663</ele><time>2026-05-03T07:08:00.743Z</time></trkpt><trkpt lat="39.9084299" lon="20.3884665"><ele>326.3333333333333</ele><time>2026-05-03T07:08:01.742Z</time></trkpt><trkpt lat="39.9085403" lon="20.3882272"><ele>321.0</ele><time>2026-05-03T07:08:02.742Z</time></trkpt><trkpt lat="39.908629" lon="20.3879663"><ele>321.0</ele><time>2026-05-03T07:08:03.742Z</time></trkpt><trkpt lat="39.9086975" lon="20.3876956"><ele>321.0</ele><time>2026-05-03T07:08:04.742Z</time></trkpt><trkpt lat="39.9087454" lon="20.3874241"><ele>321.0</ele><time>2026-05-03T07:08:05.743Z</time></trkpt><trkpt lat="39.9087761" lon="20.3871446"><ele>321.3333333333333</ele><time>2026-05-03T07:08:06.743Z</time></trkpt><trkpt lat="39.9087864" lon="20.3868574"><ele>321.66666666666663</ele><time>2026-05-03T07:08:07.743Z</time></trkpt><trkpt lat="39.908769" lon="20.38656"><ele>322.0</ele><time>2026-05-03T07:08:08.742Z</time></trkpt><trkpt lat="39.9087372" lon="20.3862582"><ele>319.5</ele><time>2026-05-03T07:08:09.743Z</time></trkpt><trkpt lat="39.9086894" lon="20.3859566"><ele>317.0</ele><time>2026-05-03T07:08:10.743Z</time></trkpt><trkpt lat="39.9086225" lon="20.3856476"><ele>317.5</ele><time>2026-05-03T07:08:11.743Z</time></trkpt><trkpt lat="39.9085461" lon="20.3853433"><ele>318.0</ele><time>2026-05-03T07:08:12.742Z</time></trkpt><trkpt lat="39.9084712" lon="20.3850351"><ele>321.5</ele><time>2026-05-03T07:08:13.743Z</time></trkpt><trkpt lat="39.9084066" lon="20.3847266"><ele>325.0</ele><time>2026-05-03T07:08:14.74Z</time></trkpt><trkpt lat="39.9083362" lon="20.3844251"><ele>325.0</ele><time>2026-05-03T07:08:15.742Z</time></trkpt><trkpt lat="39.9082815" lon="20.3841102"><ele>325.0</ele><time>2026-05-03T07:08:16.743Z</time></trkpt><trkpt lat="39.9082409" lon="20.3838034"><ele>323.5</ele><time>2026-05-03T07:08:17.743Z</time></trkpt><trkpt lat="39.9082221" lon="20.3834962"><ele>322.0</ele><time>2026-05-03T07:08:18.742Z</time></trkpt><trkpt lat="39.9082256" lon="20.383183"><ele>321.0</ele><time>2026-05-03T07:08:19.742Z</time></trkpt><trkpt lat="39.9082434" lon="20.3828668"><ele>320.0</ele><time>2026-05-03T07:08:20.742Z</time></trkpt><trkpt lat="39.9082811" lon="20.3825351"><ele>320.0</ele><time>2026-05-03T07:08:21.743Z</time></trkpt><trkpt lat="39.9083255" lon="20.3822081"><ele>320.0</ele><time>2026-05-03T07:08:22.741Z</time></trkpt><trkpt lat="39.9083765" lon="20.3818787"><ele>314.5</ele><time>2026-05-03T07:08:23.743Z</time></trkpt><trkpt lat="39.9084268" lon="20.3815455"><ele>309.0</ele><time>2026-05-03T07:08:24.742Z</time></trkpt><trkpt lat="39.9084757" lon="20.3812089"><ele>308.5</ele><time>2026-05-03T07:08:25.742Z</time></trkpt><trkpt lat="39.9085236" lon="20.3808746"><ele>308.0</ele><time>2026-05-03T07:08:26.743Z</time></trkpt><trkpt lat="39.9085745" lon="20.3805438"><ele>305.0</ele><time>2026-05-03T07:08:27.743Z</time></trkpt><trkpt lat="39.9086236" lon="20.3802073"><ele>302.0</ele><time>2026-05-03T07:08:28.743Z</time></trkpt><trkpt lat="39.9086747" lon="20.3798748"><ele>296.5</ele><time>2026-05-03T07:08:29.743Z</time></trkpt><trkpt lat="39.9087276" lon="20.3795308"><ele>291.0</ele><time>2026-05-03T07:08:30.741Z</time></trkpt><trkpt lat="39.9087893" lon="20.3791838"><ele>289.5</ele><time>2026-05-03T07:08:31.743Z</time></trkpt><trkpt lat="39.9088373" lon="20.3788493"><ele>288.0</ele><time>2026-05-03T07:08:32.742Z</time></trkpt><trkpt lat="39.9088838" lon="20.3785154"><ele>288.0</ele><time>2026-05-03T07:08:33.743Z</time></trkpt><trkpt lat="39.9089399" lon="20.3781815"><ele>288.0</ele><time>2026-05-03T07:08:34.742Z</time></trkpt><trkpt lat="39.9089898" lon="20.3778452"><ele>287.0</ele><time>2026-05-03T07:08:35.743Z</time></trkpt><trkpt lat="39.9090328" lon="20.3775152"><ele>286.0</ele><time>2026-05-03T07:08:36.743Z</time></trkpt><trkpt lat="39.909069" lon="20.3771851"><ele>284.0</ele><time>2026-05-03T07:08:37.743Z</time></trkpt><trkpt lat="39.9090988" lon="20.3768511"><ele>282.0</ele><time>2026-05-03T07:08:38.742Z</time></trkpt><trkpt lat="39.9091227" lon="20.3765219"><ele>281.5</ele><time>2026-05-03T07:08:39.742Z</time></trkpt><trkpt lat="39.9091394" lon="20.3761934"><ele>281.0</ele><time>2026-05-03T07:08:40.742Z</time></trkpt><trkpt lat="39.9091568" lon="20.3758613"><ele>281.0</ele><time>2026-05-03T07:08:41.742Z</time></trkpt><trkpt lat="39.909153" lon="20.3755322"><ele>281.0</ele><time>2026-05-03T07:08:42.742Z</time></trkpt><trkpt lat="39.9091523" lon="20.3752072"><ele>280.0</ele><time>2026-05-03T07:08:43.742Z</time></trkpt><trkpt lat="39.9091502" lon="20.3748756"><ele>279.0</ele><time>2026-05-03T07:08:44.742Z</time></trkpt><trkpt lat="39.9091486" lon="20.3745491"><ele>278.0</ele><time>2026-05-03T07:08:45.742Z</time></trkpt><trkpt lat="39.9091483" lon="20.3742239"><ele>277.0</ele><time>2026-05-03T07:08:46.743Z</time></trkpt><trkpt lat="39.9091449" lon="20.3739076"><ele>276.5</ele><time>2026-05-03T07:08:47.742Z</time></trkpt><trkpt lat="39.909145" lon="20.3735968"><ele>276.0</ele><time>2026-05-03T07:08:48.743Z</time></trkpt><trkpt lat="39.9091372" lon="20.3733023"><ele>275.6666666666667</ele><time>2026-05-03T07:08:49.743Z</time></trkpt><trkpt lat="39.9091317" lon="20.3730048"><ele>275.33333333333337</ele><time>2026-05-03T07:08:50.743Z</time></trkpt><trkpt lat="39.9091377" lon="20.3727211"><ele>275.0</ele><time>2026-05-03T07:08:51.743Z</time></trkpt><trkpt lat="39.9091463" lon="20.3724383"><ele>275.6666666666667</ele><time>2026-05-03T07:08:52.742Z</time></trkpt><trkpt lat="39.9091658" lon="20.3721685"><ele>276.3333333333333</ele><time>2026-05-03T07:08:53.743Z</time></trkpt><trkpt lat="39.9092021" lon="20.3718884"><ele>277.0</ele><time>2026-05-03T07:08:54.741Z</time></trkpt><trkpt lat="39.9092479" lon="20.3716278"><ele>277.0</ele><time>2026-05-03T07:08:55.742Z</time></trkpt><trkpt lat="39.9093149" lon="20.3713805"><ele>277.0</ele><time>2026-05-03T07:08:56.743Z</time></trkpt><trkpt lat="39.9093999" lon="20.371138"><ele>277.0</ele><time>2026-05-03T07:08:57.742Z</time></trkpt><trkpt lat="39.9095107" lon="20.3708992"><ele>277.3333333333333</ele><time>2026-05-03T07:08:58.742Z</time></trkpt><trkpt lat="39.9096261" lon="20.3706618"><ele>277.6666666666667</ele><time>2026-05-03T07:08:59.742Z</time></trkpt><trkpt lat="39.9097595" lon="20.3704365"><ele>278.0</ele><time>2026-05-03T07:09:00.743Z</time></trkpt><trkpt lat="39.9099025" lon="20.370225"><ele>278.0</ele><time>2026-05-03T07:09:01.743Z</time></trkpt><trkpt lat="39.9100487" lon="20.3700087"><ele>278.0</ele><time>2026-05-03T07:09:02.741Z</time></trkpt><trkpt lat="39.910193" lon="20.3697878"><ele>278.0</ele><time>2026-05-03T07:09:03.742Z</time></trkpt><trkpt lat="39.9103381" lon="20.3695738"><ele>278.0</ele><time>2026-05-03T07:09:04.742Z</time></trkpt><trkpt lat="39.9104719" lon="20.3693718"><ele>278.0</ele><time>2026-05-03T07:09:05.743Z</time></trkpt><trkpt lat="39.9105927" lon="20.369171"><ele>278.0</ele><time>2026-05-03T07:09:06.743Z</time></trkpt><trkpt lat="39.9106981" lon="20.368955"><ele>279.0</ele><time>2026-05-03T07:09:07.742Z</time></trkpt><trkpt lat="39.9107853" lon="20.3687205"><ele>280.0</ele><time>2026-05-03T07:09:08.742Z</time></trkpt><trkpt lat="39.910849" lon="20.3684596"><ele>281.0</ele><time>2026-05-03T07:09:09.742Z</time></trkpt><trkpt lat="39.9108912" lon="20.3681846"><ele>279.0</ele><time>2026-05-03T07:09:10.74Z</time></trkpt><trkpt lat="39.9109259" lon="20.3679057"><ele>277.0</ele><time>2026-05-03T07:09:11.743Z</time></trkpt><trkpt lat="39.9109541" lon="20.3676336"><ele>275.0</ele><time>2026-05-03T07:09:12.743Z</time></trkpt><trkpt lat="39.9109687" lon="20.3673626"><ele>275.33333333333337</ele><time>2026-05-03T07:09:13.743Z</time></trkpt><trkpt lat="39.9109884" lon="20.3671039"><ele>275.6666666666667</ele><time>2026-05-03T07:09:14.742Z</time></trkpt><trkpt lat="39.9110042" lon="20.3668681"><ele>276.0</ele><time>2026-05-03T07:09:15.742Z</time></trkpt><trkpt lat="39.911019" lon="20.3666464"><ele>276.0</ele><time>2026-05-03T07:09:16.742Z</time></trkpt><trkpt lat="39.9110216" lon="20.3664475"><ele>276.0</ele><time>2026-05-03T07:09:17.742Z</time></trkpt><trkpt lat="39.9110085" lon="20.3662502"><ele>276.0</ele><time>2026-05-03T07:09:18.743Z</time></trkpt><trkpt lat="39.9109692" lon="20.3660694"><ele>276.0</ele><time>2026-05-03T07:09:19.742Z</time></trkpt><trkpt lat="39.9109" lon="20.365887"><ele>280.0</ele><time>2026-05-03T07:09:20.743Z</time></trkpt><trkpt lat="39.9108193" lon="20.365713"><ele>284.0</ele><time>2026-05-03T07:09:21.742Z</time></trkpt><trkpt lat="39.9107267" lon="20.3655507"><ele>288.0</ele><time>2026-05-03T07:09:22.743Z</time></trkpt><trkpt lat="39.9106419" lon="20.3654046"><ele>289.5</ele><time>2026-05-03T07:09:23.742Z</time></trkpt><trkpt lat="39.9105719" lon="20.3652521"><ele>291.0</ele><time>2026-05-03T07:09:24.743Z</time></trkpt><trkpt lat="39.9105221" lon="20.3650837"><ele>292.5</ele><time>2026-05-03T07:09:25.742Z</time></trkpt><trkpt lat="39.9104798" lon="20.3649239"><ele>294.0</ele><time>2026-05-03T07:09:26.741Z</time></trkpt><trkpt lat="39.9104925" lon="20.3647549"><ele>295.25</ele><time>2026-05-03T07:09:27.743Z</time></trkpt><trkpt lat="39.9105122" lon="20.3646081"><ele>296.5</ele><time>2026-05-03T07:09:28.743Z</time></trkpt><trkpt lat="39.9105521" lon="20.3644647"><ele>297.75</ele><time>2026-05-03T07:09:29.742Z</time></trkpt><trkpt lat="39.9105989" lon="20.3643254"><ele>299.0</ele><time>2026-05-03T07:09:30.743Z</time></trkpt><trkpt lat="39.9106486" lon="20.3641938"><ele>299.0</ele><time>2026-05-03T07:09:31.743Z</time></trkpt><trkpt lat="39.9106875" lon="20.3640765"><ele>299.0</ele><time>2026-05-03T07:09:32.743Z</time></trkpt><trkpt lat="39.9107159" lon="20.3639646"><ele>299.0</ele><time>2026-05-03T07:09:33.743Z</time></trkpt><trkpt lat="39.9107413" lon="20.3638662"><ele>299.0</ele><time>2026-05-03T07:09:34.742Z</time></trkpt><trkpt lat="39.9107646" lon="20.3637762"><ele>299.0</ele><time>2026-05-03T07:09:35.743Z</time></trkpt><trkpt lat="39.910788" lon="20.3636907"><ele>299.0</ele><time>2026-05-03T07:09:36.742Z</time></trkpt><trkpt lat="39.9108108" lon="20.3636112"><ele>298.5</ele><time>2026-05-03T07:09:37.742Z</time></trkpt><trkpt lat="39.9108551" lon="20.3634479"><ele>298.0</ele><time>2026-05-03T07:09:39.742Z</time></trkpt><trkpt lat="39.9108865" lon="20.3633582"><ele>297.5</ele><time>2026-05-03T07:09:40.742Z</time></trkpt><trkpt lat="39.9109125" lon="20.3632737"><ele>297.0</ele><time>2026-05-03T07:09:41.741Z</time></trkpt><trkpt lat="39.9109355" lon="20.3631867"><ele>296.5</ele><time>2026-05-03T07:09:42.741Z</time></trkpt><trkpt lat="39.9109643" lon="20.3630957"><ele>296.0</ele><time>2026-05-03T07:09:43.743Z</time></trkpt><trkpt lat="39.9109969" lon="20.3630073"><ele>297.1666666666667</ele><time>2026-05-03T07:09:44.743Z</time></trkpt><trkpt lat="39.9110279" lon="20.3629217"><ele>298.33333333333337</ele><time>2026-05-03T07:09:45.742Z</time></trkpt><trkpt lat="39.9110565" lon="20.3628473"><ele>299.5</ele><time>2026-05-03T07:09:46.743Z</time></trkpt><trkpt lat="39.9110999" lon="20.3627299"><ele>300.6666666666667</ele><time>2026-05-03T07:09:48.743Z</time></trkpt><trkpt lat="39.9111368" lon="20.3626298"><ele>301.8333333333333</ele><time>2026-05-03T07:09:51.743Z</time></trkpt><trkpt lat="39.9111912" lon="20.362563"><ele>303.0</ele><time>2026-05-03T07:12:02.741Z</time></trkpt><trkpt lat="39.9112304" lon="20.3624915"><ele>303.0</ele><time>2026-05-03T07:12:04.743Z</time></trkpt><trkpt lat="39.9112358" lon="20.3623882"><ele>303.0</ele><time>2026-05-03T07:12:07.741Z</time></trkpt><trkpt lat="39.9112454" lon="20.3622467"><ele>303.0</ele><time>2026-05-03T07:12:10.738Z</time></trkpt><trkpt lat="39.9112858" lon="20.3621631"><ele>303.0</ele><time>2026-05-03T07:13:41.739Z</time></trkpt><trkpt lat="39.9113217" lon="20.3620453"><ele>303.0</ele><time>2026-05-03T07:13:43.738Z</time></trkpt><trkpt lat="39.9113486" lon="20.3619054"><ele>303.6666666666667</ele><time>2026-05-03T07:13:45.739Z</time></trkpt><trkpt lat="39.9113916" lon="20.361824"><ele>304.3333333333333</ele><time>2026-05-03T07:13:46.739Z</time></trkpt><trkpt lat="39.9114239" lon="20.3617432"><ele>305.0</ele><time>2026-05-03T07:13:47.739Z</time></trkpt><trkpt lat="39.9114531" lon="20.3616562"><ele>305.66666666666663</ele><time>2026-05-03T07:13:48.739Z</time></trkpt><trkpt lat="39.9114773" lon="20.3615621"><ele>306.3333333333333</ele><time>2026-05-03T07:13:49.738Z</time></trkpt><trkpt lat="39.9114992" lon="20.3614564"><ele>307.0</ele><time>2026-05-03T07:13:50.738Z</time></trkpt><trkpt lat="39.9115179" lon="20.361345"><ele>308.2</ele><time>2026-05-03T07:13:51.738Z</time></trkpt><trkpt lat="39.9115473" lon="20.3612237"><ele>309.4</ele><time>2026-05-03T07:13:52.739Z</time></trkpt><trkpt lat="39.9115747" lon="20.3611085"><ele>310.6</ele><time>2026-05-03T07:13:53.738Z</time></trkpt><trkpt lat="39.9116074" lon="20.3609967"><ele>311.8</ele><time>2026-05-03T07:13:54.739Z</time></trkpt><trkpt lat="39.9116517" lon="20.3608847"><ele>313.0</ele><time>2026-05-03T07:13:55.739Z</time></trkpt><trkpt lat="39.9117028" lon="20.3607718"><ele>313.8333333333333</ele><time>2026-05-03T07:13:56.739Z</time></trkpt><trkpt lat="39.9117587" lon="20.3606622"><ele>314.66666666666663</ele><time>2026-05-03T07:13:57.738Z</time></trkpt><trkpt lat="39.9118119" lon="20.3605591"><ele>315.5</ele><time>2026-05-03T07:13:58.739Z</time></trkpt><trkpt lat="39.9118592" lon="20.3604692"><ele>316.3333333333333</ele><time>2026-05-03T07:13:59.738Z</time></trkpt><trkpt lat="39.9119094" lon="20.3603944"><ele>317.1666666666667</ele><time>2026-05-03T07:14:00.738Z</time></trkpt><trkpt lat="39.911967" lon="20.3603343"><ele>318.0</ele><time>2026-05-03T07:14:01.739Z</time></trkpt><trkpt lat="39.9120397" lon="20.3602835"><ele>318.0</ele><time>2026-05-03T07:14:02.739Z</time></trkpt><trkpt lat="39.9121119" lon="20.3602296"><ele>318.0</ele><time>2026-05-03T07:14:03.738Z</time></trkpt><trkpt lat="39.9121873" lon="20.3601622"><ele>318.0</ele><time>2026-05-03T07:14:04.738Z</time></trkpt><trkpt lat="39.9122614" lon="20.3600857"><ele>318.0</ele><time>2026-05-03T07:14:05.739Z</time></trkpt><trkpt lat="39.9123344" lon="20.360005"><ele>318.0</ele><time>2026-05-03T07:14:06.738Z</time></trkpt><trkpt lat="39.9124023" lon="20.3599176"><ele>318.0</ele><time>2026-05-03T07:14:07.739Z</time></trkpt><trkpt lat="39.9124657" lon="20.3598186"><ele>318.0</ele><time>2026-05-03T07:14:08.739Z</time></trkpt><trkpt lat="39.9125187" lon="20.3597147"><ele>318.0</ele><time>2026-05-03T07:14:09.738Z</time></trkpt><trkpt lat="39.9125656" lon="20.3596049"><ele>318.0</ele><time>2026-05-03T07:14:10.739Z</time></trkpt><trkpt lat="39.9125955" lon="20.3594952"><ele>318.0</ele><time>2026-05-03T07:14:11.738Z</time></trkpt><trkpt lat="39.912609" lon="20.3594005"><ele>319.4</ele><time>2026-05-03T07:14:12.738Z</time></trkpt><trkpt lat="39.9125699" lon="20.3592599"><ele>320.8</ele><time>2026-05-03T07:14:14.739Z</time></trkpt><trkpt lat="39.9125196" lon="20.3591306"><ele>322.2</ele><time>2026-05-03T07:14:16.739Z</time></trkpt><trkpt lat="39.912508" lon="20.3590429"><ele>323.6</ele><time>2026-05-03T07:14:17.738Z</time></trkpt><trkpt lat="39.9124978" lon="20.358939"><ele>325.0</ele><time>2026-05-03T07:14:18.738Z</time></trkpt><trkpt lat="39.912489" lon="20.3588199"><ele>325.5</ele><time>2026-05-03T07:14:19.738Z</time></trkpt><trkpt lat="39.9124796" lon="20.3586971"><ele>326.0</ele><time>2026-05-03T07:14:20.738Z</time></trkpt><trkpt lat="39.9124707" lon="20.3585769"><ele>326.5</ele><time>2026-05-03T07:14:21.738Z</time></trkpt><trkpt lat="39.9124621" lon="20.3584616"><ele>327.0</ele><time>2026-05-03T07:14:22.739Z</time></trkpt><trkpt lat="39.912453" lon="20.358351"><ele>327.5</ele><time>2026-05-03T07:14:23.738Z</time></trkpt><trkpt lat="39.9124431" lon="20.3582376"><ele>328.0</ele><time>2026-05-03T07:14:24.738Z</time></trkpt><trkpt lat="39.9124323" lon="20.3581217"><ele>328.0</ele><time>2026-05-03T07:14:25.739Z</time></trkpt><trkpt lat="39.9124196" lon="20.3580124"><ele>328.0</ele><time>2026-05-03T07:14:26.738Z</time></trkpt><trkpt lat="39.9124147" lon="20.3579051"><ele>328.0</ele><time>2026-05-03T07:14:27.738Z</time></trkpt><trkpt lat="39.9124229" lon="20.3578116"><ele>328.0</ele><time>2026-05-03T07:14:28.738Z</time></trkpt><trkpt lat="39.9124426" lon="20.3577143"><ele>328.0</ele><time>2026-05-03T07:14:29.738Z</time></trkpt><trkpt lat="39.9124751" lon="20.3576175"><ele>328.0</ele><time>2026-05-03T07:14:30.739Z</time></trkpt><trkpt lat="39.912507" lon="20.3575233"><ele>328.0</ele><time>2026-05-03T07:14:31.739Z</time></trkpt><trkpt lat="39.9125373" lon="20.3574373"><ele>328.0</ele><time>2026-05-03T07:14:32.739Z</time></trkpt><trkpt lat="39.9125638" lon="20.357361"><ele>328.0</ele><time>2026-05-03T07:14:33.738Z</time></trkpt><trkpt lat="39.9126154" lon="20.357232"><ele>328.0</ele><time>2026-05-03T07:14:35.738Z</time></trkpt><trkpt lat="39.9126447" lon="20.3571493"><ele>328.0</ele><time>2026-05-03T07:14:37.738Z</time></trkpt><trkpt lat="39.9126955" lon="20.3570296"><ele>328.0</ele><time>2026-05-03T07:16:21.739Z</time></trkpt><trkpt lat="39.9127068" lon="20.3569474"><ele>327.4</ele><time>2026-05-03T07:16:22.738Z</time></trkpt><trkpt lat="39.9127319" lon="20.3568281"><ele>326.79999999999995</ele><time>2026-05-03T07:16:23.739Z</time></trkpt><trkpt lat="39.9127749" lon="20.3566758"><ele>326.2</ele><time>2026-05-03T07:16:25.738Z</time></trkpt><trkpt lat="39.9128018" lon="20.3565869"><ele>325.6</ele><time>2026-05-03T07:16:26.739Z</time></trkpt><trkpt lat="39.9128281" lon="20.3564921"><ele>325.0</ele><time>2026-05-03T07:16:27.738Z</time></trkpt><trkpt lat="39.9128539" lon="20.3563841"><ele>325.8333333333333</ele><time>2026-05-03T07:16:28.738Z</time></trkpt><trkpt lat="39.9128821" lon="20.3562838"><ele>326.66666666666663</ele><time>2026-05-03T07:16:29.739Z</time></trkpt><trkpt lat="39.9129114" lon="20.3561778"><ele>327.5</ele><time>2026-05-03T07:16:30.739Z</time></trkpt><trkpt lat="39.9129343" lon="20.3560731"><ele>328.3333333333333</ele><time>2026-05-03T07:16:31.739Z</time></trkpt><trkpt lat="39.9129594" lon="20.355982"><ele>329.1666666666667</ele><time>2026-05-03T07:16:32.739Z</time></trkpt><trkpt lat="39.9129816" lon="20.3559035"><ele>330.0</ele><time>2026-05-03T07:16:33.738Z</time></trkpt><trkpt lat="39.9130212" lon="20.3557736"><ele>330.0</ele><time>2026-05-03T07:16:35.739Z</time></trkpt><trkpt lat="39.9130349" lon="20.3556825"><ele>330.0</ele><time>2026-05-03T07:16:37.739Z</time></trkpt><trkpt lat="39.9130397" lon="20.3555985"><ele>330.0</ele><time>2026-05-03T07:16:39.738Z</time></trkpt><trkpt lat="39.9129927" lon="20.355527"><ele>330.0</ele><time>2026-05-03T07:16:41.738Z</time></trkpt><trkpt lat="39.9129181" lon="20.3554316"><ele>330.0</ele><time>2026-05-03T07:16:43.739Z</time></trkpt><trkpt lat="39.9128161" lon="20.3553556"><ele>330.0</ele><time>2026-05-03T07:16:45.738Z</time></trkpt><trkpt lat="39.9127005" lon="20.3552762"><ele>330.5</ele><time>2026-05-03T07:16:48.299Z</time></trkpt><trkpt lat="39.9126431" lon="20.355216"><ele>331.0</ele><time>2026-05-03T07:16:50.737Z</time></trkpt><trkpt lat="39.9126162" lon="20.3551413"><ele>331.5</ele><time>2026-05-03T07:16:53.737Z</time></trkpt><trkpt lat="39.9126067" lon="20.3550266"><ele>332.0</ele><time>2026-05-03T07:16:56.737Z</time></trkpt><trkpt lat="39.9126374" lon="20.3549062"><ele>332.5</ele><time>2026-05-03T07:16:58.737Z</time></trkpt><trkpt lat="39.9126798" lon="20.3547665"><ele>333.0</ele><time>2026-05-03T07:17:00.736Z</time></trkpt><trkpt lat="39.9127229" lon="20.3546134"><ele>333.14285714285717</ele><time>2026-05-03T07:17:02.736Z</time></trkpt><trkpt lat="39.9127501" lon="20.3545319"><ele>333.2857142857143</ele><time>2026-05-03T07:17:03.737Z</time></trkpt><trkpt lat="39.9127773" lon="20.354443"><ele>333.42857142857144</ele><time>2026-05-03T07:17:04.736Z</time></trkpt><trkpt lat="39.9128026" lon="20.3543503"><ele>333.57142857142856</ele><time>2026-05-03T07:17:05.736Z</time></trkpt><trkpt lat="39.9128308" lon="20.3542564"><ele>333.7142857142857</ele><time>2026-05-03T07:17:06.736Z</time></trkpt><trkpt lat="39.9128567" lon="20.35417"><ele>333.85714285714283</ele><time>2026-05-03T07:17:07.737Z</time></trkpt><trkpt lat="39.9128825" lon="20.3540919"><ele>334.0</ele><time>2026-05-03T07:17:08.736Z</time></trkpt><trkpt lat="39.9129256" lon="20.3539741"><ele>334.0</ele><time>2026-05-03T07:17:10.737Z</time></trkpt><trkpt lat="39.9129646" lon="20.3538912"><ele>334.0</ele><time>2026-05-03T07:17:13.736Z</time></trkpt></trkseg><trkseg><trkpt lat="39.9129616" lon="20.3537777"><ele>333.0</ele><time>2026-05-03T07:28:23.737Z</time></trkpt><trkpt lat="39.9129786" lon="20.3536292"><ele>333.0</ele><time>2026-05-03T07:28:25.737Z</time></trkpt><trkpt lat="39.9129822" lon="20.3535431"><ele>333.0</ele><time>2026-05-03T07:28:26.736Z</time></trkpt><trkpt lat="39.9129822" lon="20.3534539"><ele>333.0</ele><time>2026-05-03T07:28:27.737Z</time></trkpt><trkpt lat="39.912971" lon="20.3533586"><ele>333.0</ele><time>2026-05-03T07:28:28.737Z</time></trkpt><trkpt lat="39.9129447" lon="20.3532615"><ele>333.0</ele><time>2026-05-03T07:28:29.737Z</time></trkpt><trkpt lat="39.9129" lon="20.3531694"><ele>333.0</ele><time>2026-05-03T07:28:30.737Z</time></trkpt><trkpt lat="39.9128383" lon="20.353087"><ele>333.0</ele><time>2026-05-03T07:28:31.737Z</time></trkpt><trkpt lat="39.9127647" lon="20.3530173"><ele>333.0</ele><time>2026-05-03T07:28:32.736Z</time></trkpt><trkpt lat="39.9126803" lon="20.3529634"><ele>333.0</ele><time>2026-05-03T07:28:33.736Z</time></trkpt><trkpt lat="39.9125874" lon="20.3529216"><ele>333.0</ele><time>2026-05-03T07:28:34.737Z</time></trkpt><trkpt lat="39.9124841" lon="20.3528963"><ele>330.5</ele><time>2026-05-03T07:28:35.737Z</time></trkpt><trkpt lat="39.9123718" lon="20.3528959"><ele>328.0</ele><time>2026-05-03T07:28:36.737Z</time></trkpt><trkpt lat="39.9122542" lon="20.3529175"><ele>325.5</ele><time>2026-05-03T07:28:37.737Z</time></trkpt><trkpt lat="39.9121307" lon="20.3529542"><ele>323.0</ele><time>2026-05-03T07:28:38.736Z</time></trkpt><trkpt lat="39.9120014" lon="20.3529841"><ele>323.0</ele><time>2026-05-03T07:28:39.737Z</time></trkpt><trkpt lat="39.9118753" lon="20.353017"><ele>323.0</ele><time>2026-05-03T07:28:40.737Z</time></trkpt><trkpt lat="39.9117433" lon="20.3530441"><ele>323.0</ele><time>2026-05-03T07:28:41.737Z</time></trkpt><trkpt lat="39.9116067" lon="20.3530728"><ele>323.0</ele><time>2026-05-03T07:28:42.737Z</time></trkpt><trkpt lat="39.9114583" lon="20.3530948"><ele>322.0</ele><time>2026-05-03T07:28:43.737Z</time></trkpt><trkpt lat="39.9113198" lon="20.3531046"><ele>321.0</ele><time>2026-05-03T07:28:44.736Z</time></trkpt><trkpt lat="39.911173" lon="20.3530999"><ele>320.0</ele><time>2026-05-03T07:28:45.737Z</time></trkpt><trkpt lat="39.9110214" lon="20.3530743"><ele>319.0</ele><time>2026-05-03T07:28:46.736Z</time></trkpt><trkpt lat="39.9108726" lon="20.3530318"><ele>314.0</ele><time>2026-05-03T07:28:47.737Z</time></trkpt><trkpt lat="39.9107213" lon="20.3529723"><ele>309.0</ele><time>2026-05-03T07:28:48.736Z</time></trkpt><trkpt lat="39.9105739" lon="20.3528925"><ele>304.0</ele><time>2026-05-03T07:28:49.737Z</time></trkpt><trkpt lat="39.9104295" lon="20.3527907"><ele>304.0</ele><time>2026-05-03T07:28:50.736Z</time></trkpt><trkpt lat="39.9102912" lon="20.3526693"><ele>304.0</ele><time>2026-05-03T07:28:51.737Z</time></trkpt><trkpt lat="39.9101624" lon="20.3525294"><ele>304.0</ele><time>2026-05-03T07:28:52.736Z</time></trkpt><trkpt lat="39.9100409" lon="20.3523731"><ele>302.0</ele><time>2026-05-03T07:28:53.736Z</time></trkpt><trkpt lat="39.9099311" lon="20.3522022"><ele>300.0</ele><time>2026-05-03T07:28:54.737Z</time></trkpt><trkpt lat="39.9098342" lon="20.352016"><ele>298.0</ele><time>2026-05-03T07:28:55.737Z</time></trkpt><trkpt lat="39.909745" lon="20.3518135"><ele>298.0</ele><time>2026-05-03T07:28:56.737Z</time></trkpt><trkpt lat="39.9096702" lon="20.3516026"><ele>298.0</ele><time>2026-05-03T07:28:57.736Z</time></trkpt><trkpt lat="39.9095998" lon="20.3513935"><ele>298.0</ele><time>2026-05-03T07:28:58.737Z</time></trkpt><trkpt lat="39.9095307" lon="20.3511783"><ele>297.66666666666663</ele><time>2026-05-03T07:28:59.737Z</time></trkpt><trkpt lat="39.9094585" lon="20.350958"><ele>297.3333333333333</ele><time>2026-05-03T07:29:00.736Z</time></trkpt><trkpt lat="39.9093871" lon="20.3507388"><ele>297.0</ele><time>2026-05-03T07:29:01.736Z</time></trkpt><trkpt lat="39.9093134" lon="20.3505167"><ele>295.3333333333333</ele><time>2026-05-03T07:29:02.736Z</time></trkpt><trkpt lat="39.9092398" lon="20.3502992"><ele>293.66666666666663</ele><time>2026-05-03T07:29:03.736Z</time></trkpt><trkpt lat="39.9091637" lon="20.3500786"><ele>292.0</ele><time>2026-05-03T07:29:04.737Z</time></trkpt><trkpt lat="39.909093" lon="20.3498537"><ele>291.66666666666663</ele><time>2026-05-03T07:29:05.737Z</time></trkpt><trkpt lat="39.9090267" lon="20.3496282"><ele>291.3333333333333</ele><time>2026-05-03T07:29:06.737Z</time></trkpt><trkpt lat="39.9089643" lon="20.3494005"><ele>291.0</ele><time>2026-05-03T07:29:07.737Z</time></trkpt><trkpt lat="39.9089045" lon="20.3491696"><ele>291.0</ele><time>2026-05-03T07:29:08.736Z</time></trkpt><trkpt lat="39.9088467" lon="20.3489438"><ele>291.0</ele><time>2026-05-03T07:29:09.736Z</time></trkpt><trkpt lat="39.9087893" lon="20.3487182"><ele>291.0</ele><time>2026-05-03T07:29:10.736Z</time></trkpt><trkpt lat="39.9087346" lon="20.3484968"><ele>291.0</ele><time>2026-05-03T07:29:11.736Z</time></trkpt><trkpt lat="39.9086769" lon="20.348276"><ele>291.0</ele><time>2026-05-03T07:29:12.736Z</time></trkpt><trkpt lat="39.9086231" lon="20.348057"><ele>291.0</ele><time>2026-05-03T07:29:13.736Z</time></trkpt><trkpt lat="39.9085713" lon="20.3478365"><ele>290.6666666666667</ele><time>2026-05-03T07:29:14.736Z</time></trkpt><trkpt lat="39.9085178" lon="20.3476203"><ele>290.33333333333337</ele><time>2026-05-03T07:29:15.737Z</time></trkpt><trkpt lat="39.9084631" lon="20.3474011"><ele>290.0</ele><time>2026-05-03T07:29:16.736Z</time></trkpt><trkpt lat="39.9084069" lon="20.347181"><ele>289.0</ele><time>2026-05-03T07:29:17.737Z</time></trkpt><trkpt lat="39.9083504" lon="20.3469606"><ele>288.0</ele><time>2026-05-03T07:29:18.737Z</time></trkpt><trkpt lat="39.9082973" lon="20.3467265"><ele>287.0</ele><time>2026-05-03T07:29:19.737Z</time></trkpt><trkpt lat="39.9082428" lon="20.3464985"><ele>286.6666666666667</ele><time>2026-05-03T07:29:20.736Z</time></trkpt><trkpt lat="39.9081842" lon="20.3462717"><ele>286.3333333333333</ele><time>2026-05-03T07:29:21.737Z</time></trkpt><trkpt lat="39.9081264" lon="20.3460431"><ele>286.0</ele><time>2026-05-03T07:29:22.737Z</time></trkpt><trkpt lat="39.9080729" lon="20.3458143"><ele>286.0</ele><time>2026-05-03T07:29:23.737Z</time></trkpt><trkpt lat="39.9080145" lon="20.3455855"><ele>286.0</ele><time>2026-05-03T07:29:24.737Z</time></trkpt><trkpt lat="39.907956" lon="20.3453603"><ele>286.0</ele><time>2026-05-03T07:29:25.737Z</time></trkpt><trkpt lat="39.9079001" lon="20.3451367"><ele>285.66666666666663</ele><time>2026-05-03T07:29:26.736Z</time></trkpt><trkpt lat="39.9078437" lon="20.3449157"><ele>285.3333333333333</ele><time>2026-05-03T07:29:27.737Z</time></trkpt><trkpt lat="39.9077901" lon="20.3446979"><ele>285.0</ele><time>2026-05-03T07:29:28.737Z</time></trkpt><trkpt lat="39.907736" lon="20.3444781"><ele>284.6666666666667</ele><time>2026-05-03T07:29:29.736Z</time></trkpt><trkpt lat="39.9076775" lon="20.3442567"><ele>284.33333333333337</ele><time>2026-05-03T07:29:30.737Z</time></trkpt><trkpt lat="39.9076221" lon="20.3440348"><ele>284.0</ele><time>2026-05-03T07:29:31.736Z</time></trkpt><trkpt lat="39.9075666" lon="20.3438123"><ele>283.6666666666667</ele><time>2026-05-03T07:29:32.737Z</time></trkpt><trkpt lat="39.9075089" lon="20.3435876"><ele>283.3333333333333</ele><time>2026-05-03T07:29:33.737Z</time></trkpt><trkpt lat="39.907453" lon="20.3433587"><ele>283.0</ele><time>2026-05-03T07:29:34.737Z</time></trkpt><trkpt lat="39.9073962" lon="20.343134"><ele>282.66666666666663</ele><time>2026-05-03T07:29:35.737Z</time></trkpt><trkpt lat="39.9073411" lon="20.342908"><ele>282.3333333333333</ele><time>2026-05-03T07:29:36.737Z</time></trkpt><trkpt lat="39.9072868" lon="20.3426853"><ele>282.0</ele><time>2026-05-03T07:29:37.737Z</time></trkpt><trkpt lat="39.9072298" lon="20.3424619"><ele>282.0</ele><time>2026-05-03T07:29:38.736Z</time></trkpt><trkpt lat="39.9071735" lon="20.3422397"><ele>282.0</ele><time>2026-05-03T07:29:39.737Z</time></trkpt><trkpt lat="39.9071232" lon="20.3420197"><ele>282.0</ele><time>2026-05-03T07:29:40.737Z</time></trkpt><trkpt lat="39.9070673" lon="20.3417985"><ele>282.0</ele><time>2026-05-03T07:29:41.737Z</time></trkpt><trkpt lat="39.9070109" lon="20.3415692"><ele>282.0</ele><time>2026-05-03T07:29:42.736Z</time></trkpt><trkpt lat="39.9069575" lon="20.341343"><ele>282.0</ele><time>2026-05-03T07:29:43.736Z</time></trkpt><trkpt lat="39.9069042" lon="20.3411143"><ele>282.0</ele><time>2026-05-03T07:29:44.737Z</time></trkpt><trkpt lat="39.9068482" lon="20.3408857"><ele>282.0</ele><time>2026-05-03T07:29:45.737Z</time></trkpt><trkpt lat="39.9067965" lon="20.3406553"><ele>282.0</ele><time>2026-05-03T07:29:46.737Z</time></trkpt><trkpt lat="39.9067441" lon="20.3404244"><ele>282.3333333333333</ele><time>2026-05-03T07:29:47.736Z</time></trkpt><trkpt lat="39.9066952" lon="20.3401923"><ele>282.66666666666663</ele><time>2026-05-03T07:29:48.737Z</time></trkpt><trkpt lat="39.9066515" lon="20.3399562"><ele>283.0</ele><time>2026-05-03T07:29:49.736Z</time></trkpt><trkpt lat="39.9066116" lon="20.3397221"><ele>283.0</ele><time>2026-05-03T07:29:50.737Z</time></trkpt><trkpt lat="39.9065713" lon="20.3394889"><ele>283.0</ele><time>2026-05-03T07:29:51.737Z</time></trkpt><trkpt lat="39.9065388" lon="20.3392525"><ele>283.0</ele><time>2026-05-03T07:29:52.737Z</time></trkpt><trkpt lat="39.9065143" lon="20.3390137"><ele>283.0</ele><time>2026-05-03T07:29:53.736Z</time></trkpt><trkpt lat="39.906499" lon="20.3387698"><ele>283.0</ele><time>2026-05-03T07:29:54.737Z</time></trkpt><trkpt lat="39.9064892" lon="20.3385274"><ele>283.0</ele><time>2026-05-03T07:29:55.737Z</time></trkpt><trkpt lat="39.9064837" lon="20.3382848"><ele>282.66666666666663</ele><time>2026-05-03T07:29:56.736Z</time></trkpt><trkpt lat="39.9064836" lon="20.3380402"><ele>282.3333333333333</ele><time>2026-05-03T07:29:57.737Z</time></trkpt><trkpt lat="39.9064913" lon="20.3377883"><ele>282.0</ele><time>2026-05-03T07:29:58.736Z</time></trkpt><trkpt lat="39.9065101" lon="20.3375411"><ele>282.0</ele><time>2026-05-03T07:29:59.736Z</time></trkpt><trkpt lat="39.9065386" lon="20.3372938"><ele>282.0</ele><time>2026-05-03T07:30:00.736Z</time></trkpt><trkpt lat="39.9065736" lon="20.3370471"><ele>282.0</ele><time>2026-05-03T07:30:01.737Z</time></trkpt><trkpt lat="39.9066152" lon="20.3367986"><ele>282.3333333333333</ele><time>2026-05-03T07:30:02.737Z</time></trkpt><trkpt lat="39.9066616" lon="20.3365508"><ele>282.66666666666663</ele><time>2026-05-03T07:30:03.736Z</time></trkpt><trkpt lat="39.9067122" lon="20.3363048"><ele>283.0</ele><time>2026-05-03T07:30:04.737Z</time></trkpt><trkpt lat="39.9067688" lon="20.3360613"><ele>282.0</ele><time>2026-05-03T07:30:05.737Z</time></trkpt><trkpt lat="39.906832" lon="20.3358217"><ele>281.0</ele><time>2026-05-03T07:30:06.736Z</time></trkpt><trkpt lat="39.906903" lon="20.3355858"><ele>280.0</ele><time>2026-05-03T07:30:07.736Z</time></trkpt><trkpt lat="39.9069821" lon="20.3353549"><ele>279.66666666666663</ele><time>2026-05-03T07:30:08.737Z</time></trkpt><trkpt lat="39.9070672" lon="20.3351291"><ele>279.3333333333333</ele><time>2026-05-03T07:30:09.737Z</time></trkpt><trkpt lat="39.9071588" lon="20.3349069"><ele>279.0</ele><time>2026-05-03T07:30:10.737Z</time></trkpt><trkpt lat="39.9072557" lon="20.3346876"><ele>279.0</ele><time>2026-05-03T07:30:11.736Z</time></trkpt><trkpt lat="39.9073585" lon="20.334474"><ele>279.0</ele><time>2026-05-03T07:30:12.736Z</time></trkpt><trkpt lat="39.9074674" lon="20.3342617"><ele>279.0</ele><time>2026-05-03T07:30:13.737Z</time></trkpt><trkpt lat="39.9075762" lon="20.33405"><ele>278.0</ele><time>2026-05-03T07:30:14.736Z</time></trkpt><trkpt lat="39.9076984" lon="20.3338494"><ele>277.0</ele><time>2026-05-03T07:30:15.737Z</time></trkpt><trkpt lat="39.9078236" lon="20.3336579"><ele>276.0</ele><time>2026-05-03T07:30:16.736Z</time></trkpt><trkpt lat="39.9079574" lon="20.3334683"><ele>276.0</ele><time>2026-05-03T07:30:17.737Z</time></trkpt><trkpt lat="39.9080973" lon="20.3332806"><ele>276.0</ele><time>2026-05-03T07:30:18.737Z</time></trkpt><trkpt lat="39.908242" lon="20.3330961"><ele>276.0</ele><time>2026-05-03T07:30:19.737Z</time></trkpt><trkpt lat="39.9083814" lon="20.3329102"><ele>275.6666666666667</ele><time>2026-05-03T07:30:20.736Z</time></trkpt><trkpt lat="39.9085284" lon="20.3327367"><ele>275.33333333333337</ele><time>2026-05-03T07:30:21.737Z</time></trkpt><trkpt lat="39.9086884" lon="20.3325738"><ele>275.0</ele><time>2026-05-03T07:30:22.737Z</time></trkpt><trkpt lat="39.9088537" lon="20.3324213"><ele>275.0</ele><time>2026-05-03T07:30:23.737Z</time></trkpt><trkpt lat="39.9090242" lon="20.3322769"><ele>275.0</ele><time>2026-05-03T07:30:24.737Z</time></trkpt><trkpt lat="39.9091987" lon="20.3321416"><ele>275.0</ele><time>2026-05-03T07:30:25.737Z</time></trkpt><trkpt lat="39.9093781" lon="20.3320109"><ele>275.0</ele><time>2026-05-03T07:30:26.736Z</time></trkpt><trkpt lat="39.9095594" lon="20.3318818"><ele>275.0</ele><time>2026-05-03T07:30:27.737Z</time></trkpt><trkpt lat="39.9097426" lon="20.3317533"><ele>275.0</ele><time>2026-05-03T07:30:28.736Z</time></trkpt><trkpt lat="39.9099272" lon="20.3316268"><ele>275.0</ele><time>2026-05-03T07:30:29.737Z</time></trkpt><trkpt lat="39.9101124" lon="20.3314999"><ele>275.0</ele><time>2026-05-03T07:30:30.737Z</time></trkpt><trkpt lat="39.910298" lon="20.3313733"><ele>275.0</ele><time>2026-05-03T07:30:31.737Z</time></trkpt><trkpt lat="39.9104865" lon="20.3312464"><ele>275.0</ele><time>2026-05-03T07:30:32.736Z</time></trkpt><trkpt lat="39.9106729" lon="20.3311197"><ele>275.0</ele><time>2026-05-03T07:30:33.736Z</time></trkpt><trkpt lat="39.9108627" lon="20.3309945"><ele>275.0</ele><time>2026-05-03T07:30:34.736Z</time></trkpt><trkpt lat="39.91105" lon="20.3308682"><ele>274.0</ele><time>2026-05-03T07:30:35.737Z</time></trkpt><trkpt lat="39.9112369" lon="20.3307415"><ele>273.0</ele><time>2026-05-03T07:30:36.737Z</time></trkpt><trkpt lat="39.9114235" lon="20.330613"><ele>272.0</ele><time>2026-05-03T07:30:37.736Z</time></trkpt><trkpt lat="39.9116109" lon="20.3304836"><ele>271.0</ele><time>2026-05-03T07:30:38.737Z</time></trkpt><trkpt lat="39.9118003" lon="20.3303553"><ele>270.0</ele><time>2026-05-03T07:30:39.736Z</time></trkpt><trkpt lat="39.9119889" lon="20.3302265"><ele>269.0</ele><time>2026-05-03T07:30:40.737Z</time></trkpt><trkpt lat="39.9121773" lon="20.3301064"><ele>269.0</ele><time>2026-05-03T07:30:41.737Z</time></trkpt><trkpt lat="39.9123655" lon="20.3299785"><ele>269.0</ele><time>2026-05-03T07:30:42.736Z</time></trkpt><trkpt lat="39.9125539" lon="20.3298496"><ele>269.0</ele><time>2026-05-03T07:30:43.737Z</time></trkpt><trkpt lat="39.9127465" lon="20.3297226"><ele>269.0</ele><time>2026-05-03T07:30:44.736Z</time></trkpt><trkpt lat="39.9129364" lon="20.3295945"><ele>269.0</ele><time>2026-05-03T07:30:45.737Z</time></trkpt><trkpt lat="39.9131251" lon="20.3294649"><ele>269.0</ele><time>2026-05-03T07:30:46.737Z</time></trkpt><trkpt lat="39.9133136" lon="20.3293354"><ele>268.6666666666667</ele><time>2026-05-03T07:30:47.737Z</time></trkpt><trkpt lat="39.9135027" lon="20.3292074"><ele>268.3333333333333</ele><time>2026-05-03T07:30:48.737Z</time></trkpt><trkpt lat="39.9136905" lon="20.3290791"><ele>268.0</ele><time>2026-05-03T07:30:49.737Z</time></trkpt><trkpt lat="39.9138785" lon="20.328951"><ele>267.66666666666663</ele><time>2026-05-03T07:30:50.737Z</time></trkpt><trkpt lat="39.9140661" lon="20.3288221"><ele>267.3333333333333</ele><time>2026-05-03T07:30:51.737Z</time></trkpt><trkpt lat="39.9142522" lon="20.3286944"><ele>267.0</ele><time>2026-05-03T07:30:52.737Z</time></trkpt><trkpt lat="39.9144385" lon="20.328568"><ele>267.0</ele><time>2026-05-03T07:30:53.737Z</time></trkpt><trkpt lat="39.9146249" lon="20.3284416"><ele>267.0</ele><time>2026-05-03T07:30:54.737Z</time></trkpt><trkpt lat="39.9148103" lon="20.328315"><ele>267.0</ele><time>2026-05-03T07:30:55.737Z</time></trkpt><trkpt lat="39.9149953" lon="20.3281892"><ele>267.0</ele><time>2026-05-03T07:30:56.737Z</time></trkpt><trkpt lat="39.9151795" lon="20.3280618"><ele>267.0</ele><time>2026-05-03T07:30:57.736Z</time></trkpt><trkpt lat="39.9153627" lon="20.3279323"><ele>267.0</ele><time>2026-05-03T07:30:58.737Z</time></trkpt><trkpt lat="39.9155451" lon="20.3277986"><ele>267.0</ele><time>2026-05-03T07:30:59.736Z</time></trkpt><trkpt lat="39.9157254" lon="20.3276614"><ele>267.0</ele><time>2026-05-03T07:31:00.737Z</time></trkpt><trkpt lat="39.9159029" lon="20.3275179"><ele>267.0</ele><time>2026-05-03T07:31:01.736Z</time></trkpt><trkpt lat="39.9160786" lon="20.3273718"><ele>266.3333333333333</ele><time>2026-05-03T07:31:02.736Z</time></trkpt><trkpt lat="39.9162486" lon="20.3272167"><ele>265.66666666666663</ele><time>2026-05-03T07:31:03.736Z</time></trkpt><trkpt lat="39.9164134" lon="20.3270552"><ele>265.0</ele><time>2026-05-03T07:31:04.737Z</time></trkpt><trkpt lat="39.9165751" lon="20.3268914"><ele>265.0</ele><time>2026-05-03T07:31:05.736Z</time></trkpt><trkpt lat="39.9167321" lon="20.326721"><ele>265.0</ele><time>2026-05-03T07:31:06.737Z</time></trkpt><trkpt lat="39.9168845" lon="20.3265455"><ele>265.0</ele><time>2026-05-03T07:31:07.737Z</time></trkpt><trkpt lat="39.9170326" lon="20.3263652"><ele>264.66666666666663</ele><time>2026-05-03T07:31:08.736Z</time></trkpt><trkpt lat="39.9171742" lon="20.3261833"><ele>264.3333333333333</ele><time>2026-05-03T07:31:09.736Z</time></trkpt><trkpt lat="39.9173113" lon="20.3259927"><ele>264.0</ele><time>2026-05-03T07:31:10.736Z</time></trkpt><trkpt lat="39.9174431" lon="20.3257981"><ele>263.6666666666667</ele><time>2026-05-03T07:31:11.736Z</time></trkpt><trkpt lat="39.9175705" lon="20.3255994"><ele>263.33333333333337</ele><time>2026-05-03T07:31:12.736Z</time></trkpt><trkpt lat="39.9176929" lon="20.3253997"><ele>263.0</ele><time>2026-05-03T07:31:13.737Z</time></trkpt><trkpt lat="39.9178094" lon="20.3251981"><ele>263.0</ele><time>2026-05-03T07:31:14.736Z</time></trkpt><trkpt lat="39.9179182" lon="20.3249958"><ele>263.0</ele><time>2026-05-03T07:31:15.737Z</time></trkpt><trkpt lat="39.918021" lon="20.3247939"><ele>263.0</ele><time>2026-05-03T07:31:16.736Z</time></trkpt><trkpt lat="39.9181178" lon="20.3245911"><ele>263.0</ele><time>2026-05-03T07:31:17.737Z</time></trkpt><trkpt lat="39.9182095" lon="20.3243857"><ele>263.0</ele><time>2026-05-03T07:31:18.736Z</time></trkpt><trkpt lat="39.9182969" lon="20.3241785"><ele>263.0</ele><time>2026-05-03T07:31:19.737Z</time></trkpt><trkpt lat="39.9183812" lon="20.3239671"><ele>262.6666666666667</ele><time>2026-05-03T07:31:20.736Z</time></trkpt><trkpt lat="39.9184618" lon="20.3237503"><ele>262.3333333333333</ele><time>2026-05-03T07:31:21.736Z</time></trkpt><trkpt lat="39.9185387" lon="20.3235223"><ele>262.0</ele><time>2026-05-03T07:31:22.737Z</time></trkpt><trkpt lat="39.9186151" lon="20.3232981"><ele>262.0</ele><time>2026-05-03T07:31:23.736Z</time></trkpt><trkpt lat="39.9186908" lon="20.3230714"><ele>262.0</ele><time>2026-05-03T07:31:24.736Z</time></trkpt><trkpt lat="39.9187667" lon="20.3228419"><ele>262.0</ele><time>2026-05-03T07:31:25.736Z</time></trkpt><trkpt lat="39.9188442" lon="20.3226077"><ele>261.66666666666663</ele><time>2026-05-03T07:31:26.737Z</time></trkpt><trkpt lat="39.9189235" lon="20.3223675"><ele>261.3333333333333</ele><time>2026-05-03T07:31:27.736Z</time></trkpt><trkpt lat="39.9190047" lon="20.3221223"><ele>261.0</ele><time>2026-05-03T07:31:28.736Z</time></trkpt><trkpt lat="39.9190876" lon="20.3218704"><ele>261.0</ele><time>2026-05-03T07:31:29.736Z</time></trkpt><trkpt lat="39.9191726" lon="20.3216083"><ele>261.0</ele><time>2026-05-03T07:31:30.737Z</time></trkpt><trkpt lat="39.9192583" lon="20.3213406"><ele>261.0</ele><time>2026-05-03T07:31:31.737Z</time></trkpt><trkpt lat="39.919344" lon="20.3210659"><ele>261.0</ele><time>2026-05-03T07:31:32.737Z</time></trkpt><trkpt lat="39.9194299" lon="20.3207766"><ele>261.0</ele><time>2026-05-03T07:31:33.737Z</time></trkpt><trkpt lat="39.9195183" lon="20.3204802"><ele>260.5</ele><time>2026-05-03T07:31:34.736Z</time></trkpt><trkpt lat="39.9196115" lon="20.3201807"><ele>260.0</ele><time>2026-05-03T07:31:35.736Z</time></trkpt><trkpt lat="39.9197124" lon="20.31988"><ele>259.5</ele><time>2026-05-03T07:31:36.736Z</time></trkpt><trkpt lat="39.9198158" lon="20.3195798"><ele>259.0</ele><time>2026-05-03T07:31:37.737Z</time></trkpt><trkpt lat="39.9199201" lon="20.3192802"><ele>259.0</ele><time>2026-05-03T07:31:38.737Z</time></trkpt><trkpt lat="39.9200219" lon="20.3189838"><ele>259.0</ele><time>2026-05-03T07:31:39.736Z</time></trkpt><trkpt lat="39.9201203" lon="20.31869"><ele>258.5</ele><time>2026-05-03T07:31:40.737Z</time></trkpt><trkpt lat="39.920217" lon="20.3183997"><ele>258.0</ele><time>2026-05-03T07:31:41.736Z</time></trkpt><trkpt lat="39.9203113" lon="20.3181127"><ele>257.5</ele><time>2026-05-03T07:31:42.736Z</time></trkpt><trkpt lat="39.9204047" lon="20.3178292"><ele>257.0</ele><time>2026-05-03T07:31:43.737Z</time></trkpt><trkpt lat="39.920496" lon="20.3175479"><ele>257.0</ele><time>2026-05-03T07:31:44.737Z</time></trkpt><trkpt lat="39.9205875" lon="20.317268"><ele>257.0</ele><time>2026-05-03T07:31:45.736Z</time></trkpt><trkpt lat="39.9206778" lon="20.3169896"><ele>257.0</ele><time>2026-05-03T07:31:46.736Z</time></trkpt><trkpt lat="39.9207671" lon="20.3167135"><ele>257.0</ele><time>2026-05-03T07:31:47.737Z</time></trkpt><trkpt lat="39.9208557" lon="20.3164384"><ele>257.5</ele><time>2026-05-03T07:31:48.736Z</time></trkpt><trkpt lat="39.9209455" lon="20.3161657"><ele>258.0</ele><time>2026-05-03T07:31:49.736Z</time></trkpt><trkpt lat="39.9210339" lon="20.3158927"><ele>258.0</ele><time>2026-05-03T07:31:50.737Z</time></trkpt><trkpt lat="39.9211233" lon="20.3156105"><ele>258.0</ele><time>2026-05-03T07:31:51.736Z</time></trkpt><trkpt lat="39.9212142" lon="20.3153413"><ele>256.5</ele><time>2026-05-03T07:31:52.736Z</time></trkpt><trkpt lat="39.9213049" lon="20.3150698"><ele>255.0</ele><time>2026-05-03T07:31:53.737Z</time></trkpt><trkpt lat="39.9213945" lon="20.3147985"><ele>254.5</ele><time>2026-05-03T07:31:54.737Z</time></trkpt><trkpt lat="39.9214838" lon="20.3145257"><ele>254.0</ele><time>2026-05-03T07:31:55.736Z</time></trkpt><trkpt lat="39.9215748" lon="20.31425"><ele>254.0</ele><time>2026-05-03T07:31:56.736Z</time></trkpt><trkpt lat="39.921665" lon="20.313972"><ele>254.0</ele><time>2026-05-03T07:31:57.736Z</time></trkpt><trkpt lat="39.9217548" lon="20.3136923"><ele>255.0</ele><time>2026-05-03T07:31:58.737Z</time></trkpt><trkpt lat="39.921845" lon="20.3134141"><ele>256.0</ele><time>2026-05-03T07:31:59.737Z</time></trkpt><trkpt lat="39.9219353" lon="20.3131363"><ele>256.0</ele><time>2026-05-03T07:32:00.737Z</time></trkpt><trkpt lat="39.9220259" lon="20.3128594"><ele>256.0</ele><time>2026-05-03T07:32:01.737Z</time></trkpt><trkpt lat="39.9221165" lon="20.3125828"><ele>256.0</ele><time>2026-05-03T07:32:02.736Z</time></trkpt><trkpt lat="39.9222073" lon="20.3123065"><ele>256.0</ele><time>2026-05-03T07:32:03.736Z</time></trkpt><trkpt lat="39.9222991" lon="20.312029"><ele>255.0</ele><time>2026-05-03T07:32:04.736Z</time></trkpt><trkpt lat="39.9223892" lon="20.3117494"><ele>254.0</ele><time>2026-05-03T07:32:05.737Z</time></trkpt><trkpt lat="39.9224787" lon="20.3114675"><ele>253.5</ele><time>2026-05-03T07:32:06.737Z</time></trkpt><trkpt lat="39.9225679" lon="20.3111876"><ele>253.0</ele><time>2026-05-03T07:32:07.736Z</time></trkpt><trkpt lat="39.9226575" lon="20.310908"><ele>253.0</ele><time>2026-05-03T07:32:08.737Z</time></trkpt><trkpt lat="39.9227479" lon="20.3106293"><ele>253.0</ele><time>2026-05-03T07:32:09.736Z</time></trkpt><trkpt lat="39.9228404" lon="20.3103512"><ele>254.0</ele><time>2026-05-03T07:32:10.737Z</time></trkpt><trkpt lat="39.9229328" lon="20.3100731"><ele>255.0</ele><time>2026-05-03T07:32:11.737Z</time></trkpt><trkpt lat="39.9230248" lon="20.3097934"><ele>253.0</ele><time>2026-05-03T07:32:12.736Z</time></trkpt><trkpt lat="39.9231146" lon="20.3095106"><ele>251.0</ele><time>2026-05-03T07:32:13.737Z</time></trkpt><trkpt lat="39.9232059" lon="20.3092293"><ele>251.0</ele><time>2026-05-03T07:32:14.737Z</time></trkpt><trkpt lat="39.9232978" lon="20.3089464"><ele>251.0</ele><time>2026-05-03T07:32:15.737Z</time></trkpt><trkpt lat="39.9233908" lon="20.3086631"><ele>251.5</ele><time>2026-05-03T07:32:16.737Z</time></trkpt><trkpt lat="39.9234836" lon="20.3083777"><ele>252.0</ele><time>2026-05-03T07:32:17.737Z</time></trkpt><trkpt lat="39.9235747" lon="20.3080932"><ele>251.0</ele><time>2026-05-03T07:32:18.736Z</time></trkpt><trkpt lat="39.9236658" lon="20.3078096"><ele>250.0</ele><time>2026-05-03T07:32:19.737Z</time></trkpt><trkpt lat="39.9237574" lon="20.3075251"><ele>249.5</ele><time>2026-05-03T07:32:20.737Z</time></trkpt><trkpt lat="39.9238425" lon="20.3072413"><ele>249.0</ele><time>2026-05-03T07:32:21.737Z</time></trkpt><trkpt lat="39.9239334" lon="20.3069599"><ele>249.0</ele><time>2026-05-03T07:32:22.736Z</time></trkpt><trkpt lat="39.924024" lon="20.3066771"><ele>249.0</ele><time>2026-05-03T07:32:23.737Z</time></trkpt><trkpt lat="39.9241149" lon="20.3063956"><ele>249.0</ele><time>2026-05-03T07:32:24.736Z</time></trkpt><trkpt lat="39.9242069" lon="20.3061153"><ele>249.0</ele><time>2026-05-03T07:32:25.737Z</time></trkpt><trkpt lat="39.9242988" lon="20.3058367"><ele>249.5</ele><time>2026-05-03T07:32:26.737Z</time></trkpt><trkpt lat="39.9243937" lon="20.3055543"><ele>250.0</ele><time>2026-05-03T07:32:27.737Z</time></trkpt><trkpt lat="39.9244874" lon="20.305277"><ele>250.0</ele><time>2026-05-03T07:32:28.737Z</time></trkpt><trkpt lat="39.9245797" lon="20.3050003"><ele>250.0</ele><time>2026-05-03T07:32:29.737Z</time></trkpt><trkpt lat="39.9246737" lon="20.3047248"><ele>250.0</ele><time>2026-05-03T07:32:30.737Z</time></trkpt><trkpt lat="39.9247673" lon="20.3044504"><ele>250.0</ele><time>2026-05-03T07:32:31.736Z</time></trkpt><trkpt lat="39.9248742" lon="20.3041717"><ele>250.0</ele><time>2026-05-03T07:32:32.736Z</time></trkpt><trkpt lat="39.924969" lon="20.303904"><ele>250.0</ele><time>2026-05-03T07:32:33.737Z</time></trkpt><trkpt lat="39.9250633" lon="20.3036328"><ele>248.5</ele><time>2026-05-03T07:32:34.737Z</time></trkpt><trkpt lat="39.9251554" lon="20.303361"><ele>247.0</ele><time>2026-05-03T07:32:35.736Z</time></trkpt><trkpt lat="39.9252455" lon="20.303088"><ele>246.5</ele><time>2026-05-03T07:32:36.736Z</time></trkpt><trkpt lat="39.925334" lon="20.3028131"><ele>246.0</ele><time>2026-05-03T07:32:37.736Z</time></trkpt><trkpt lat="39.9254226" lon="20.3025388"><ele>246.0</ele><time>2026-05-03T07:32:38.736Z</time></trkpt><trkpt lat="39.9255114" lon="20.3022648"><ele>246.0</ele><time>2026-05-03T07:32:39.736Z</time></trkpt><trkpt lat="39.9255994" lon="20.3019912"><ele>246.0</ele><time>2026-05-03T07:32:40.736Z</time></trkpt><trkpt lat="39.9256865" lon="20.3017104"><ele>246.0</ele><time>2026-05-03T07:32:41.737Z</time></trkpt><trkpt lat="39.9257745" lon="20.3014361"><ele>246.0</ele><time>2026-05-03T07:32:42.736Z</time></trkpt><trkpt lat="39.9258618" lon="20.3011623"><ele>246.0</ele><time>2026-05-03T07:32:43.737Z</time></trkpt><trkpt lat="39.9259474" lon="20.3008877"><ele>245.5</ele><time>2026-05-03T07:32:44.737Z</time></trkpt><trkpt lat="39.9260333" lon="20.3006128"><ele>245.0</ele><time>2026-05-03T07:32:45.737Z</time></trkpt><trkpt lat="39.92612" lon="20.3003372"><ele>245.0</ele><time>2026-05-03T07:32:46.736Z</time></trkpt><trkpt lat="39.9262049" lon="20.3000617"><ele>245.0</ele><time>2026-05-03T07:32:47.736Z</time></trkpt><trkpt lat="39.9262904" lon="20.2997862"><ele>244.5</ele><time>2026-05-03T07:32:48.737Z</time></trkpt><trkpt lat="39.9263734" lon="20.2995122"><ele>244.0</ele><time>2026-05-03T07:32:49.736Z</time></trkpt><trkpt lat="39.9264591" lon="20.2992382"><ele>244.0</ele><time>2026-05-03T07:32:50.737Z</time></trkpt><trkpt lat="39.9265467" lon="20.2989655"><ele>244.0</ele><time>2026-05-03T07:32:51.737Z</time></trkpt><trkpt lat="39.9266354" lon="20.2986928"><ele>244.0</ele><time>2026-05-03T07:32:52.737Z</time></trkpt><trkpt lat="39.926725" lon="20.2984181"><ele>244.0</ele><time>2026-05-03T07:32:53.736Z</time></trkpt><trkpt lat="39.9268169" lon="20.2981455"><ele>243.5</ele><time>2026-05-03T07:32:54.736Z</time></trkpt><trkpt lat="39.9269072" lon="20.2978719"><ele>243.0</ele><time>2026-05-03T07:32:55.736Z</time></trkpt><trkpt lat="39.9269966" lon="20.2975976"><ele>243.0</ele><time>2026-05-03T07:32:56.737Z</time></trkpt><trkpt lat="39.9270851" lon="20.297318"><ele>243.0</ele><time>2026-05-03T07:32:57.736Z</time></trkpt><trkpt lat="39.9271738" lon="20.2970438"><ele>243.5</ele><time>2026-05-03T07:32:58.737Z</time></trkpt><trkpt lat="39.9272635" lon="20.2967696"><ele>244.0</ele><time>2026-05-03T07:32:59.737Z</time></trkpt><trkpt lat="39.9273535" lon="20.2964962"><ele>244.5</ele><time>2026-05-03T07:33:00.737Z</time></trkpt><trkpt lat="39.9274437" lon="20.2962269"><ele>245.0</ele><time>2026-05-03T07:33:01.736Z</time></trkpt><trkpt lat="39.9275316" lon="20.2959506"><ele>244.0</ele><time>2026-05-03T07:33:02.736Z</time></trkpt><trkpt lat="39.9276204" lon="20.2956755"><ele>243.0</ele><time>2026-05-03T07:33:03.736Z</time></trkpt><trkpt lat="39.9277112" lon="20.2954003"><ele>243.0</ele><time>2026-05-03T07:33:04.737Z</time></trkpt><trkpt lat="39.9278013" lon="20.2951256"><ele>243.0</ele><time>2026-05-03T07:33:05.736Z</time></trkpt><trkpt lat="39.9278896" lon="20.2948507"><ele>242.5</ele><time>2026-05-03T07:33:06.737Z</time></trkpt><trkpt lat="39.9279771" lon="20.2945755"><ele>242.0</ele><time>2026-05-03T07:33:07.737Z</time></trkpt><trkpt lat="39.9280647" lon="20.2943006"><ele>242.0</ele><time>2026-05-03T07:33:08.737Z</time></trkpt><trkpt lat="39.9281543" lon="20.2940259"><ele>242.0</ele><time>2026-05-03T07:33:09.737Z</time></trkpt><trkpt lat="39.9282419" lon="20.2937517"><ele>242.0</ele><time>2026-05-03T07:33:10.737Z</time></trkpt><trkpt lat="39.9283304" lon="20.2934769"><ele>242.0</ele><time>2026-05-03T07:33:11.736Z</time></trkpt><trkpt lat="39.9284195" lon="20.2932031"><ele>241.0</ele><time>2026-05-03T07:33:12.736Z</time></trkpt><trkpt lat="39.9285099" lon="20.29293"><ele>240.0</ele><time>2026-05-03T07:33:13.736Z</time></trkpt><trkpt lat="39.9285993" lon="20.2926571"><ele>240.0</ele><time>2026-05-03T07:33:14.736Z</time></trkpt><trkpt lat="39.9286891" lon="20.2923844"><ele>240.0</ele><time>2026-05-03T07:33:15.737Z</time></trkpt><trkpt lat="39.9287782" lon="20.2921119"><ele>240.0</ele><time>2026-05-03T07:33:16.736Z</time></trkpt><trkpt lat="39.9288667" lon="20.2918388"><ele>240.0</ele><time>2026-05-03T07:33:17.737Z</time></trkpt><trkpt lat="39.9289551" lon="20.291566"><ele>239.0</ele><time>2026-05-03T07:33:18.736Z</time></trkpt><trkpt lat="39.929042" lon="20.2912936"><ele>238.0</ele><time>2026-05-03T07:33:19.737Z</time></trkpt><trkpt lat="39.9291257" lon="20.2910159"><ele>238.0</ele><time>2026-05-03T07:33:20.737Z</time></trkpt><trkpt lat="39.929214" lon="20.2907451"><ele>238.0</ele><time>2026-05-03T07:33:21.737Z</time></trkpt><trkpt lat="39.9293031" lon="20.2904751"><ele>238.66666666666666</ele><time>2026-05-03T07:33:22.736Z</time></trkpt><trkpt lat="39.929391" lon="20.290206"><ele>239.33333333333331</ele><time>2026-05-03T07:33:23.736Z</time></trkpt><trkpt lat="39.9294799" lon="20.2899367"><ele>240.0</ele><time>2026-05-03T07:33:24.736Z</time></trkpt><trkpt lat="39.9295677" lon="20.2896675"><ele>240.0</ele><time>2026-05-03T07:33:25.737Z</time></trkpt><trkpt lat="39.9296544" lon="20.2893989"><ele>240.0</ele><time>2026-05-03T07:33:26.736Z</time></trkpt><trkpt lat="39.9297399" lon="20.289131"><ele>240.0</ele><time>2026-05-03T07:33:27.736Z</time></trkpt><trkpt lat="39.9298267" lon="20.2888631"><ele>239.66666666666669</ele><time>2026-05-03T07:33:28.736Z</time></trkpt><trkpt lat="39.9299132" lon="20.2885956"><ele>239.33333333333334</ele><time>2026-05-03T07:33:29.737Z</time></trkpt><trkpt lat="39.9300005" lon="20.2883264"><ele>239.0</ele><time>2026-05-03T07:33:30.736Z</time></trkpt><trkpt lat="39.930087" lon="20.2880564"><ele>238.66666666666669</ele><time>2026-05-03T07:33:31.737Z</time></trkpt><trkpt lat="39.9301745" lon="20.2877868"><ele>238.33333333333331</ele><time>2026-05-03T07:33:32.736Z</time></trkpt><trkpt lat="39.9302616" lon="20.2875186"><ele>238.0</ele><time>2026-05-03T07:33:33.737Z</time></trkpt><trkpt lat="39.9303502" lon="20.2872504"><ele>238.0</ele><time>2026-05-03T07:33:34.736Z</time></trkpt><trkpt lat="39.9304377" lon="20.2869832"><ele>238.0</ele><time>2026-05-03T07:33:35.736Z</time></trkpt><trkpt lat="39.9305248" lon="20.2867153"><ele>238.0</ele><time>2026-05-03T07:33:36.736Z</time></trkpt><trkpt lat="39.9306113" lon="20.2864474"><ele>238.0</ele><time>2026-05-03T07:33:37.736Z</time></trkpt><trkpt lat="39.9306972" lon="20.2861784"><ele>238.0</ele><time>2026-05-03T07:33:38.737Z</time></trkpt><trkpt lat="39.9307844" lon="20.2859092"><ele>238.0</ele><time>2026-05-03T07:33:39.737Z</time></trkpt><trkpt lat="39.9308718" lon="20.2856403"><ele>237.66666666666666</ele><time>2026-05-03T07:33:40.736Z</time></trkpt><trkpt lat="39.9309598" lon="20.2853726"><ele>237.33333333333331</ele><time>2026-05-03T07:33:41.736Z</time></trkpt><trkpt lat="39.9310463" lon="20.2851045"><ele>237.0</ele><time>2026-05-03T07:33:42.736Z</time></trkpt><trkpt lat="39.931134" lon="20.2848353"><ele>237.0</ele><time>2026-05-03T07:33:43.737Z</time></trkpt><trkpt lat="39.9312223" lon="20.2845665"><ele>237.0</ele><time>2026-05-03T07:33:44.736Z</time></trkpt><trkpt lat="39.9313106" lon="20.2842951"><ele>237.0</ele><time>2026-05-03T07:33:45.737Z</time></trkpt><trkpt lat="39.9313859" lon="20.2840103"><ele>237.0</ele><time>2026-05-03T07:33:46.737Z</time></trkpt><trkpt lat="39.9314732" lon="20.2837362"><ele>237.0</ele><time>2026-05-03T07:33:47.736Z</time></trkpt><trkpt lat="39.931561" lon="20.2834617"><ele>237.0</ele><time>2026-05-03T07:33:48.736Z</time></trkpt><trkpt lat="39.9316478" lon="20.2831882"><ele>237.0</ele><time>2026-05-03T07:33:49.737Z</time></trkpt><trkpt lat="39.9317361" lon="20.2829154"><ele>237.0</ele><time>2026-05-03T07:33:50.736Z</time></trkpt><trkpt lat="39.9318242" lon="20.2826428"><ele>237.0</ele><time>2026-05-03T07:33:51.737Z</time></trkpt><trkpt lat="39.9319128" lon="20.2823728"><ele>237.0</ele><time>2026-05-03T07:33:52.736Z</time></trkpt><trkpt lat="39.9320018" lon="20.2821039"><ele>237.0</ele><time>2026-05-03T07:33:53.737Z</time></trkpt><trkpt lat="39.9320889" lon="20.2818359"><ele>237.0</ele><time>2026-05-03T07:33:54.736Z</time></trkpt><trkpt lat="39.9321758" lon="20.2815694"><ele>237.0</ele><time>2026-05-03T07:33:55.736Z</time></trkpt><trkpt lat="39.9322625" lon="20.2813012"><ele>237.0</ele><time>2026-05-03T07:33:56.737Z</time></trkpt><trkpt lat="39.9323504" lon="20.2810346"><ele>237.0</ele><time>2026-05-03T07:33:57.737Z</time></trkpt><trkpt lat="39.9324381" lon="20.2807685"><ele>237.0</ele><time>2026-05-03T07:33:58.736Z</time></trkpt><trkpt lat="39.9325274" lon="20.2805028"><ele>237.0</ele><time>2026-05-03T07:33:59.737Z</time></trkpt><trkpt lat="39.932616" lon="20.2802378"><ele>237.0</ele><time>2026-05-03T07:34:00.737Z</time></trkpt><trkpt lat="39.932707" lon="20.279974"><ele>237.0</ele><time>2026-05-03T07:34:01.737Z</time></trkpt><trkpt lat="39.9328009" lon="20.2797134"><ele>237.0</ele><time>2026-05-03T07:34:02.736Z</time></trkpt><trkpt lat="39.9328993" lon="20.2794556"><ele>237.0</ele><time>2026-05-03T07:34:03.737Z</time></trkpt><trkpt lat="39.9330032" lon="20.2792004"><ele>237.0</ele><time>2026-05-03T07:34:04.736Z</time></trkpt><trkpt lat="39.9331147" lon="20.2789488"><ele>235.5</ele><time>2026-05-03T07:34:05.737Z</time></trkpt><trkpt lat="39.9332325" lon="20.2787008"><ele>234.0</ele><time>2026-05-03T07:34:06.736Z</time></trkpt><trkpt lat="39.933348" lon="20.2784468"><ele>234.0</ele><time>2026-05-03T07:34:07.737Z</time></trkpt><trkpt lat="39.9334829" lon="20.2782053"><ele>234.0</ele><time>2026-05-03T07:34:08.737Z</time></trkpt><trkpt lat="39.9336248" lon="20.2779722"><ele>234.5</ele><time>2026-05-03T07:34:09.736Z</time></trkpt><trkpt lat="39.9337617" lon="20.2777317"><ele>235.0</ele><time>2026-05-03T07:34:10.736Z</time></trkpt><trkpt lat="39.9339165" lon="20.2775134"><ele>235.0</ele><time>2026-05-03T07:34:11.737Z</time></trkpt><trkpt lat="39.9340719" lon="20.277298"><ele>235.0</ele><time>2026-05-03T07:34:12.737Z</time></trkpt><trkpt lat="39.9342375" lon="20.2770795"><ele>234.5</ele><time>2026-05-03T07:34:13.737Z</time></trkpt><trkpt lat="39.9344044" lon="20.2768636"><ele>234.0</ele><time>2026-05-03T07:34:14.737Z</time></trkpt><trkpt lat="39.934572" lon="20.276648"><ele>233.5</ele><time>2026-05-03T07:34:15.736Z</time></trkpt><trkpt lat="39.9347394" lon="20.2764351"><ele>233.0</ele><time>2026-05-03T07:34:16.737Z</time></trkpt><trkpt lat="39.9349064" lon="20.276223"><ele>232.5</ele><time>2026-05-03T07:34:17.736Z</time></trkpt><trkpt lat="39.9350733" lon="20.2760114"><ele>232.0</ele><time>2026-05-03T07:34:18.736Z</time></trkpt><trkpt lat="39.9352399" lon="20.2758014"><ele>232.0</ele><time>2026-05-03T07:34:19.737Z</time></trkpt><trkpt lat="39.9354055" lon="20.2755923"><ele>232.0</ele><time>2026-05-03T07:34:20.737Z</time></trkpt><trkpt lat="39.9355697" lon="20.275383"><ele>232.0</ele><time>2026-05-03T07:34:21.736Z</time></trkpt><trkpt lat="39.9357336" lon="20.2751748"><ele>232.0</ele><time>2026-05-03T07:34:22.737Z</time></trkpt><trkpt lat="39.9358974" lon="20.27497"><ele>232.0</ele><time>2026-05-03T07:34:23.736Z</time></trkpt><trkpt lat="39.9360603" lon="20.2747663"><ele>232.0</ele><time>2026-05-03T07:34:24.736Z</time></trkpt><trkpt lat="39.9362204" lon="20.2745617"><ele>232.0</ele><time>2026-05-03T07:34:25.737Z</time></trkpt><trkpt lat="39.9363792" lon="20.2743587"><ele>232.0</ele><time>2026-05-03T07:34:26.736Z</time></trkpt><trkpt lat="39.9365375" lon="20.2741566"><ele>232.0</ele><time>2026-05-03T07:34:27.737Z</time></trkpt><trkpt lat="39.9366945" lon="20.2739564"><ele>232.33333333333331</ele><time>2026-05-03T07:34:28.737Z</time></trkpt><trkpt lat="39.9368511" lon="20.2737569"><ele>232.66666666666669</ele><time>2026-05-03T07:34:29.736Z</time></trkpt><trkpt lat="39.9370065" lon="20.2735585"><ele>233.0</ele><time>2026-05-03T07:34:30.736Z</time></trkpt><trkpt lat="39.9371582" lon="20.2733652"><ele>233.0</ele><time>2026-05-03T07:34:31.737Z</time></trkpt><trkpt lat="39.9373114" lon="20.2731701"><ele>233.0</ele><time>2026-05-03T07:34:32.737Z</time></trkpt><trkpt lat="39.9374649" lon="20.2729772"><ele>233.0</ele><time>2026-05-03T07:34:33.737Z</time></trkpt><trkpt lat="39.9376186" lon="20.2727853"><ele>232.66666666666669</ele><time>2026-05-03T07:34:34.736Z</time></trkpt><trkpt lat="39.9377715" lon="20.2725935"><ele>232.33333333333331</ele><time>2026-05-03T07:34:35.736Z</time></trkpt><trkpt lat="39.9379233" lon="20.272403"><ele>232.0</ele><time>2026-05-03T07:34:36.736Z</time></trkpt><trkpt lat="39.9380752" lon="20.2722173"><ele>232.0</ele><time>2026-05-03T07:34:37.737Z</time></trkpt><trkpt lat="39.9382262" lon="20.2720271"><ele>232.0</ele><time>2026-05-03T07:34:38.737Z</time></trkpt><trkpt lat="39.9383774" lon="20.2718376"><ele>232.0</ele><time>2026-05-03T07:34:39.736Z</time></trkpt><trkpt lat="39.9385276" lon="20.2716478"><ele>232.0</ele><time>2026-05-03T07:34:40.737Z</time></trkpt><trkpt lat="39.9386784" lon="20.2714572"><ele>232.0</ele><time>2026-05-03T07:34:41.737Z</time></trkpt><trkpt lat="39.9388298" lon="20.2712659"><ele>232.0</ele><time>2026-05-03T07:34:42.736Z</time></trkpt><trkpt lat="39.9389798" lon="20.2710745"><ele>231.33333333333331</ele><time>2026-05-03T07:34:43.737Z</time></trkpt><trkpt lat="39.9391315" lon="20.2708828"><ele>230.66666666666669</ele><time>2026-05-03T07:34:44.737Z</time></trkpt><trkpt lat="39.9392831" lon="20.2706905"><ele>230.0</ele><time>2026-05-03T07:34:45.737Z</time></trkpt><trkpt lat="39.9394364" lon="20.2704964"><ele>229.0</ele><time>2026-05-03T07:34:46.736Z</time></trkpt><trkpt lat="39.9395906" lon="20.2703034"><ele>228.0</ele><time>2026-05-03T07:34:47.737Z</time></trkpt><trkpt lat="39.939744" lon="20.270109"><ele>227.0</ele><time>2026-05-03T07:34:48.736Z</time></trkpt><trkpt lat="39.9398993" lon="20.2699139"><ele>227.33333333333334</ele><time>2026-05-03T07:34:49.736Z</time></trkpt><trkpt lat="39.9400523" lon="20.2697195"><ele>227.66666666666669</ele><time>2026-05-03T07:34:50.736Z</time></trkpt><trkpt lat="39.9402026" lon="20.269527"><ele>228.0</ele><time>2026-05-03T07:34:51.736Z</time></trkpt><trkpt lat="39.9403564" lon="20.2693328"><ele>228.0</ele><time>2026-05-03T07:34:52.736Z</time></trkpt><trkpt lat="39.9405088" lon="20.2691391"><ele>228.0</ele><time>2026-05-03T07:34:53.737Z</time></trkpt><trkpt lat="39.9406619" lon="20.2689466"><ele>228.0</ele><time>2026-05-03T07:34:54.736Z</time></trkpt><trkpt lat="39.9408155" lon="20.2687547"><ele>228.33333333333331</ele><time>2026-05-03T07:34:55.737Z</time></trkpt><trkpt lat="39.9409677" lon="20.2685617"><ele>228.66666666666666</ele><time>2026-05-03T07:34:56.736Z</time></trkpt><trkpt lat="39.9411109" lon="20.2683656"><ele>229.0</ele><time>2026-05-03T07:34:57.737Z</time></trkpt><trkpt lat="39.9412552" lon="20.2681634"><ele>228.66666666666666</ele><time>2026-05-03T07:34:58.737Z</time></trkpt><trkpt lat="39.9413968" lon="20.2679571"><ele>228.33333333333331</ele><time>2026-05-03T07:34:59.737Z</time></trkpt><trkpt lat="39.9415362" lon="20.2677477"><ele>228.0</ele><time>2026-05-03T07:35:00.736Z</time></trkpt><trkpt lat="39.9416711" lon="20.2675334"><ele>228.33333333333331</ele><time>2026-05-03T07:35:01.737Z</time></trkpt><trkpt lat="39.9418017" lon="20.267316"><ele>228.66666666666666</ele><time>2026-05-03T07:35:02.737Z</time></trkpt><trkpt lat="39.9419288" lon="20.2670954"><ele>229.0</ele><time>2026-05-03T07:35:03.736Z</time></trkpt><trkpt lat="39.9420528" lon="20.2668738"><ele>229.33333333333331</ele><time>2026-05-03T07:35:04.736Z</time></trkpt><trkpt lat="39.9421752" lon="20.2666527"><ele>229.66666666666669</ele><time>2026-05-03T07:35:05.736Z</time></trkpt><trkpt lat="39.9422965" lon="20.2664318"><ele>230.0</ele><time>2026-05-03T07:35:06.737Z</time></trkpt><trkpt lat="39.9424165" lon="20.2662115"><ele>230.66666666666669</ele><time>2026-05-03T07:35:07.736Z</time></trkpt><trkpt lat="39.942534" lon="20.2659891"><ele>231.33333333333331</ele><time>2026-05-03T07:35:08.737Z</time></trkpt><trkpt lat="39.9426514" lon="20.2657675"><ele>232.0</ele><time>2026-05-03T07:35:09.736Z</time></trkpt><trkpt lat="39.9427681" lon="20.2655473"><ele>232.66666666666666</ele><time>2026-05-03T07:35:10.737Z</time></trkpt><trkpt lat="39.9428796" lon="20.2653326"><ele>233.33333333333331</ele><time>2026-05-03T07:35:11.737Z</time></trkpt><trkpt lat="39.9429933" lon="20.265113"><ele>234.0</ele><time>2026-05-03T07:35:12.737Z</time></trkpt><trkpt lat="39.9431058" lon="20.264893"><ele>233.0</ele><time>2026-05-03T07:35:13.737Z</time></trkpt><trkpt lat="39.9432177" lon="20.2646748"><ele>232.0</ele><time>2026-05-03T07:35:14.737Z</time></trkpt><trkpt lat="39.9433311" lon="20.264459"><ele>231.0</ele><time>2026-05-03T07:35:15.737Z</time></trkpt><trkpt lat="39.9434489" lon="20.2642455"><ele>231.0</ele><time>2026-05-03T07:35:16.737Z</time></trkpt><trkpt lat="39.9435708" lon="20.2640333"><ele>231.0</ele><time>2026-05-03T07:35:17.737Z</time></trkpt><trkpt lat="39.9436953" lon="20.2638217"><ele>231.0</ele><time>2026-05-03T07:35:18.737Z</time></trkpt><trkpt lat="39.9438196" lon="20.2636086"><ele>231.0</ele><time>2026-05-03T07:35:19.736Z</time></trkpt><trkpt lat="39.9439427" lon="20.2633939"><ele>231.0</ele><time>2026-05-03T07:35:20.736Z</time></trkpt><trkpt lat="39.9440652" lon="20.2631845"><ele>231.0</ele><time>2026-05-03T07:35:21.737Z</time></trkpt><trkpt lat="39.9441867" lon="20.2629659"><ele>230.66666666666669</ele><time>2026-05-03T07:35:22.736Z</time></trkpt><trkpt lat="39.9443104" lon="20.2627481"><ele>230.33333333333334</ele><time>2026-05-03T07:35:23.737Z</time></trkpt><trkpt lat="39.9444403" lon="20.2625375"><ele>230.0</ele><time>2026-05-03T07:35:24.737Z</time></trkpt><trkpt lat="39.9445788" lon="20.2623339"><ele>232.0</ele><time>2026-05-03T07:35:25.737Z</time></trkpt><trkpt lat="39.9447206" lon="20.2621316"><ele>234.0</ele><time>2026-05-03T07:35:26.737Z</time></trkpt><trkpt lat="39.9448735" lon="20.2619372"><ele>236.0</ele><time>2026-05-03T07:35:27.736Z</time></trkpt><trkpt lat="39.9450265" lon="20.2617421"><ele>236.33333333333334</ele><time>2026-05-03T07:35:28.737Z</time></trkpt><trkpt lat="39.9451834" lon="20.2615508"><ele>236.66666666666669</ele><time>2026-05-03T07:35:29.737Z</time></trkpt><trkpt lat="39.9453423" lon="20.2613639"><ele>237.0</ele><time>2026-05-03T07:35:30.737Z</time></trkpt><trkpt lat="39.9455026" lon="20.2611814"><ele>237.0</ele><time>2026-05-03T07:35:31.737Z</time></trkpt><trkpt lat="39.9456638" lon="20.261"><ele>237.0</ele><time>2026-05-03T07:35:32.737Z</time></trkpt><trkpt lat="39.9458239" lon="20.260819"><ele>237.0</ele><time>2026-05-03T07:35:33.737Z</time></trkpt><trkpt lat="39.9459847" lon="20.2606377"><ele>234.33333333333331</ele><time>2026-05-03T07:35:34.737Z</time></trkpt><trkpt lat="39.9461466" lon="20.2604545"><ele>231.66666666666666</ele><time>2026-05-03T07:35:35.736Z</time></trkpt><trkpt lat="39.9463085" lon="20.2602707"><ele>229.0</ele><time>2026-05-03T07:35:36.736Z</time></trkpt><trkpt lat="39.9464704" lon="20.2600862"><ele>229.0</ele><time>2026-05-03T07:35:37.736Z</time></trkpt><trkpt lat="39.9466321" lon="20.2599022"><ele>229.0</ele><time>2026-05-03T07:35:38.737Z</time></trkpt><trkpt lat="39.9467944" lon="20.259717"><ele>229.0</ele><time>2026-05-03T07:35:39.737Z</time></trkpt><trkpt lat="39.9469553" lon="20.2595323"><ele>229.33333333333331</ele><time>2026-05-03T07:35:40.736Z</time></trkpt><trkpt lat="39.947118" lon="20.2593486"><ele>229.66666666666669</ele><time>2026-05-03T07:35:41.736Z</time></trkpt><trkpt lat="39.9472797" lon="20.2591677"><ele>230.0</ele><time>2026-05-03T07:35:42.736Z</time></trkpt><trkpt lat="39.9474431" lon="20.2589884"><ele>230.0</ele><time>2026-05-03T07:35:43.737Z</time></trkpt><trkpt lat="39.9476076" lon="20.2588116"><ele>230.0</ele><time>2026-05-03T07:35:44.736Z</time></trkpt><trkpt lat="39.9477749" lon="20.2586399"><ele>230.0</ele><time>2026-05-03T07:35:45.736Z</time></trkpt><trkpt lat="39.9479462" lon="20.2584758"><ele>230.0</ele><time>2026-05-03T07:35:46.737Z</time></trkpt><trkpt lat="39.9481209" lon="20.2583193"><ele>230.0</ele><time>2026-05-03T07:35:47.736Z</time></trkpt><trkpt lat="39.9482959" lon="20.2581672"><ele>230.0</ele><time>2026-05-03T07:35:48.737Z</time></trkpt><trkpt lat="39.9484712" lon="20.2580176"><ele>230.33333333333334</ele><time>2026-05-03T07:35:49.736Z</time></trkpt><trkpt lat="39.9486467" lon="20.25787"><ele>230.66666666666669</ele><time>2026-05-03T07:35:50.737Z</time></trkpt><trkpt lat="39.9488206" lon="20.257725"><ele>231.0</ele><time>2026-05-03T07:35:51.736Z</time></trkpt><trkpt lat="39.9489942" lon="20.2575802"><ele>231.0</ele><time>2026-05-03T07:35:52.736Z</time></trkpt><trkpt lat="39.9491669" lon="20.2574323"><ele>231.0</ele><time>2026-05-03T07:35:53.736Z</time></trkpt><trkpt lat="39.9493366" lon="20.2572787"><ele>231.0</ele><time>2026-05-03T07:35:54.736Z</time></trkpt><trkpt lat="39.9495039" lon="20.2571207"><ele>232.0</ele><time>2026-05-03T07:35:55.736Z</time></trkpt><trkpt lat="39.9496705" lon="20.2569593"><ele>233.0</ele><time>2026-05-03T07:35:56.737Z</time></trkpt><trkpt lat="39.9498353" lon="20.256794"><ele>234.0</ele><time>2026-05-03T07:35:57.736Z</time></trkpt><trkpt lat="39.9499979" lon="20.2566251"><ele>232.66666666666669</ele><time>2026-05-03T07:35:58.737Z</time></trkpt><trkpt lat="39.9501577" lon="20.2564528"><ele>231.33333333333334</ele><time>2026-05-03T07:35:59.736Z</time></trkpt><trkpt lat="39.9503177" lon="20.2562767"><ele>230.0</ele><time>2026-05-03T07:36:00.737Z</time></trkpt><trkpt lat="39.9504773" lon="20.2560982"><ele>230.0</ele><time>2026-05-03T07:36:01.736Z</time></trkpt><trkpt lat="39.950637" lon="20.2559201"><ele>230.0</ele><time>2026-05-03T07:36:02.736Z</time></trkpt><trkpt lat="39.9507972" lon="20.2557421"><ele>230.0</ele><time>2026-05-03T07:36:03.736Z</time></trkpt><trkpt lat="39.9509574" lon="20.2555641"><ele>228.0</ele><time>2026-05-03T07:36:04.737Z</time></trkpt><trkpt lat="39.9511191" lon="20.2553868"><ele>226.0</ele><time>2026-05-03T07:36:05.737Z</time></trkpt><trkpt lat="39.9512801" lon="20.2552093"><ele>224.0</ele><time>2026-05-03T07:36:06.737Z</time></trkpt><trkpt lat="39.951441" lon="20.2550278"><ele>224.0</ele><time>2026-05-03T07:36:07.737Z</time></trkpt><trkpt lat="39.9515988" lon="20.2548419"><ele>224.0</ele><time>2026-05-03T07:36:08.737Z</time></trkpt><trkpt lat="39.951759" lon="20.2546562"><ele>224.0</ele><time>2026-05-03T07:36:09.737Z</time></trkpt><trkpt lat="39.9519193" lon="20.254471"><ele>224.33333333333334</ele><time>2026-05-03T07:36:10.736Z</time></trkpt><trkpt lat="39.9520791" lon="20.2542865"><ele>224.66666666666669</ele><time>2026-05-03T07:36:11.736Z</time></trkpt><trkpt lat="39.9522386" lon="20.2541012"><ele>225.0</ele><time>2026-05-03T07:36:12.737Z</time></trkpt><trkpt lat="39.9523981" lon="20.2539155"><ele>224.66666666666669</ele><time>2026-05-03T07:36:13.737Z</time></trkpt><trkpt lat="39.9525572" lon="20.2537297"><ele>224.33333333333334</ele><time>2026-05-03T07:36:14.736Z</time></trkpt><trkpt lat="39.9527175" lon="20.253545"><ele>224.0</ele><time>2026-05-03T07:36:15.736Z</time></trkpt><trkpt lat="39.9528781" lon="20.2533602"><ele>224.0</ele><time>2026-05-03T07:36:16.737Z</time></trkpt><trkpt lat="39.9530286" lon="20.253181"><ele>224.0</ele><time>2026-05-03T07:36:17.736Z</time></trkpt><trkpt lat="39.9531906" lon="20.2529965"><ele>224.0</ele><time>2026-05-03T07:36:18.737Z</time></trkpt><trkpt lat="39.9533533" lon="20.2528111"><ele>224.66666666666669</ele><time>2026-05-03T07:36:19.737Z</time></trkpt><trkpt lat="39.9535158" lon="20.2526278"><ele>225.33333333333331</ele><time>2026-05-03T07:36:20.737Z</time></trkpt><trkpt lat="39.9536754" lon="20.2524384"><ele>226.0</ele><time>2026-05-03T07:36:21.736Z</time></trkpt><trkpt lat="39.9538332" lon="20.2522481"><ele>226.0</ele><time>2026-05-03T07:36:22.737Z</time></trkpt><trkpt lat="39.9539914" lon="20.2520591"><ele>226.0</ele><time>2026-05-03T07:36:23.737Z</time></trkpt><trkpt lat="39.95415" lon="20.2518715"><ele>226.0</ele><time>2026-05-03T07:36:24.736Z</time></trkpt><trkpt lat="39.9543082" lon="20.2516867"><ele>225.66666666666666</ele><time>2026-05-03T07:36:25.737Z</time></trkpt><trkpt lat="39.954467" lon="20.2515041"><ele>225.33333333333331</ele><time>2026-05-03T07:36:26.736Z</time></trkpt><trkpt lat="39.9546256" lon="20.2513205"><ele>225.0</ele><time>2026-05-03T07:36:27.736Z</time></trkpt><trkpt lat="39.9547823" lon="20.2511383"><ele>225.0</ele><time>2026-05-03T07:36:28.737Z</time></trkpt><trkpt lat="39.9549398" lon="20.250957"><ele>225.0</ele><time>2026-05-03T07:36:29.737Z</time></trkpt><trkpt lat="39.9550973" lon="20.2507757"><ele>225.0</ele><time>2026-05-03T07:36:30.736Z</time></trkpt><trkpt lat="39.9552582" lon="20.2505943"><ele>225.33333333333331</ele><time>2026-05-03T07:36:31.737Z</time></trkpt><trkpt lat="39.9554157" lon="20.2504161"><ele>225.66666666666666</ele><time>2026-05-03T07:36:32.736Z</time></trkpt><trkpt lat="39.9555746" lon="20.2502408"><ele>226.0</ele><time>2026-05-03T07:36:33.737Z</time></trkpt><trkpt lat="39.9557334" lon="20.250067"><ele>225.0</ele><time>2026-05-03T07:36:34.736Z</time></trkpt><trkpt lat="39.9558943" lon="20.2498914"><ele>224.0</ele><time>2026-05-03T07:36:35.737Z</time></trkpt><trkpt lat="39.9560551" lon="20.249716"><ele>223.0</ele><time>2026-05-03T07:36:36.737Z</time></trkpt><trkpt lat="39.9562176" lon="20.2495408"><ele>223.0</ele><time>2026-05-03T07:36:37.736Z</time></trkpt><trkpt lat="39.9563827" lon="20.249367"><ele>223.0</ele><time>2026-05-03T07:36:38.737Z</time></trkpt><trkpt lat="39.9565492" lon="20.2491954"><ele>223.0</ele><time>2026-05-03T07:36:39.736Z</time></trkpt><trkpt lat="39.9567196" lon="20.2490271"><ele>223.33333333333331</ele><time>2026-05-03T07:36:40.737Z</time></trkpt><trkpt lat="39.9568909" lon="20.2488619"><ele>223.66666666666669</ele><time>2026-05-03T07:36:41.737Z</time></trkpt><trkpt lat="39.9570629" lon="20.2486963"><ele>224.0</ele><time>2026-05-03T07:36:42.737Z</time></trkpt><trkpt lat="39.9572365" lon="20.2485308"><ele>224.0</ele><time>2026-05-03T07:36:43.737Z</time></trkpt><trkpt lat="39.9574132" lon="20.2483665"><ele>224.0</ele><time>2026-05-03T07:36:44.736Z</time></trkpt><trkpt lat="39.9575901" lon="20.2482011"><ele>224.0</ele><time>2026-05-03T07:36:45.736Z</time></trkpt><trkpt lat="39.9577698" lon="20.2480367"><ele>223.33333333333334</ele><time>2026-05-03T07:36:46.736Z</time></trkpt><trkpt lat="39.9579512" lon="20.2478726"><ele>222.66666666666669</ele><time>2026-05-03T07:36:47.737Z</time></trkpt><trkpt lat="39.9581314" lon="20.2477085"><ele>222.0</ele><time>2026-05-03T07:36:48.737Z</time></trkpt><trkpt lat="39.9583112" lon="20.2475437"><ele>222.0</ele><time>2026-05-03T07:36:49.737Z</time></trkpt><trkpt lat="39.9584907" lon="20.2473801"><ele>222.0</ele><time>2026-05-03T07:36:50.736Z</time></trkpt><trkpt lat="39.958669" lon="20.2472167"><ele>222.0</ele><time>2026-05-03T07:36:51.737Z</time></trkpt><trkpt lat="39.9588469" lon="20.2470551"><ele>222.0</ele><time>2026-05-03T07:36:52.736Z</time></trkpt><trkpt lat="39.9590251" lon="20.2468933"><ele>222.0</ele><time>2026-05-03T07:36:53.737Z</time></trkpt><trkpt lat="39.959202" lon="20.2467306"><ele>222.0</ele><time>2026-05-03T07:36:54.737Z</time></trkpt><trkpt lat="39.9593783" lon="20.2465701"><ele>221.33333333333331</ele><time>2026-05-03T07:36:55.737Z</time></trkpt><trkpt lat="39.959557" lon="20.2464098"><ele>220.66666666666666</ele><time>2026-05-03T07:36:56.737Z</time></trkpt><trkpt lat="39.9597349" lon="20.2462493"><ele>220.0</ele><time>2026-05-03T07:36:57.737Z</time></trkpt><trkpt lat="39.9599119" lon="20.2460878"><ele>220.66666666666666</ele><time>2026-05-03T07:36:58.736Z</time></trkpt><trkpt lat="39.9600905" lon="20.2459262"><ele>221.33333333333331</ele><time>2026-05-03T07:36:59.737Z</time></trkpt><trkpt lat="39.9602699" lon="20.2457638"><ele>222.0</ele><time>2026-05-03T07:37:00.737Z</time></trkpt><trkpt lat="39.9604491" lon="20.2456009"><ele>222.0</ele><time>2026-05-03T07:37:01.736Z</time></trkpt><trkpt lat="39.9606294" lon="20.2454378"><ele>222.0</ele><time>2026-05-03T07:37:02.737Z</time></trkpt><trkpt lat="39.9608089" lon="20.2452738"><ele>222.0</ele><time>2026-05-03T07:37:03.737Z</time></trkpt><trkpt lat="39.9609886" lon="20.2451101"><ele>222.0</ele><time>2026-05-03T07:37:04.736Z</time></trkpt><trkpt lat="39.9611694" lon="20.2449465"><ele>222.0</ele><time>2026-05-03T07:37:05.736Z</time></trkpt><trkpt lat="39.9613506" lon="20.2447828"><ele>222.0</ele><time>2026-05-03T07:37:06.736Z</time></trkpt><trkpt lat="39.9615325" lon="20.244618"><ele>221.0</ele><time>2026-05-03T07:37:07.737Z</time></trkpt><trkpt lat="39.9617127" lon="20.244453"><ele>220.0</ele><time>2026-05-03T07:37:08.736Z</time></trkpt><trkpt lat="39.9618925" lon="20.2442877"><ele>219.0</ele><time>2026-05-03T07:37:09.736Z</time></trkpt><trkpt lat="39.9620727" lon="20.244123"><ele>219.0</ele><time>2026-05-03T07:37:10.737Z</time></trkpt><trkpt lat="39.9622527" lon="20.2439592"><ele>219.0</ele><time>2026-05-03T07:37:11.736Z</time></trkpt><trkpt lat="39.9624328" lon="20.2437961"><ele>219.0</ele><time>2026-05-03T07:37:12.737Z</time></trkpt><trkpt lat="39.9626127" lon="20.2436325"><ele>219.0</ele><time>2026-05-03T07:37:13.736Z</time></trkpt><trkpt lat="39.9627923" lon="20.243469"><ele>219.0</ele><time>2026-05-03T07:37:14.736Z</time></trkpt><trkpt lat="39.9629708" lon="20.2433051"><ele>219.0</ele><time>2026-05-03T07:37:15.737Z</time></trkpt><trkpt lat="39.9631513" lon="20.2431399"><ele>219.33333333333331</ele><time>2026-05-03T07:37:16.737Z</time></trkpt><trkpt lat="39.9633319" lon="20.2429752"><ele>219.66666666666666</ele><time>2026-05-03T07:37:17.736Z</time></trkpt><trkpt lat="39.9635134" lon="20.2428106"><ele>220.0</ele><time>2026-05-03T07:37:18.736Z</time></trkpt><trkpt lat="39.9636955" lon="20.2426466"><ele>220.33333333333331</ele><time>2026-05-03T07:37:19.736Z</time></trkpt><trkpt lat="39.9638721" lon="20.2424859"><ele>220.66666666666669</ele><time>2026-05-03T07:37:20.737Z</time></trkpt><trkpt lat="39.9640554" lon="20.2423193"><ele>221.0</ele><time>2026-05-03T07:37:21.737Z</time></trkpt><trkpt lat="39.9642383" lon="20.242154"><ele>220.33333333333334</ele><time>2026-05-03T07:37:22.736Z</time></trkpt><trkpt lat="39.9644212" lon="20.2419778"><ele>219.66666666666669</ele><time>2026-05-03T07:37:23.737Z</time></trkpt><trkpt lat="39.9646013" lon="20.2418183"><ele>219.0</ele><time>2026-05-03T07:37:24.737Z</time></trkpt><trkpt lat="39.9647843" lon="20.2416516"><ele>219.0</ele><time>2026-05-03T07:37:25.737Z</time></trkpt><trkpt lat="39.9649668" lon="20.2414854"><ele>219.0</ele><time>2026-05-03T07:37:26.737Z</time></trkpt><trkpt lat="39.9651491" lon="20.2413185"><ele>219.0</ele><time>2026-05-03T07:37:27.736Z</time></trkpt><trkpt lat="39.9653306" lon="20.2411517"><ele>219.0</ele><time>2026-05-03T07:37:28.737Z</time></trkpt><trkpt lat="39.9655103" lon="20.2409904"><ele>219.0</ele><time>2026-05-03T07:37:29.736Z</time></trkpt><trkpt lat="39.9656919" lon="20.2408226"><ele>219.0</ele><time>2026-05-03T07:37:30.736Z</time></trkpt><trkpt lat="39.9658728" lon="20.240655"><ele>219.66666666666669</ele><time>2026-05-03T07:37:31.737Z</time></trkpt><trkpt lat="39.9660555" lon="20.2404889"><ele>220.33333333333334</ele><time>2026-05-03T07:37:32.736Z</time></trkpt><trkpt lat="39.9662383" lon="20.2403227"><ele>221.0</ele><time>2026-05-03T07:37:33.737Z</time></trkpt><trkpt lat="39.9664196" lon="20.2401573"><ele>221.0</ele><time>2026-05-03T07:37:34.737Z</time></trkpt><trkpt lat="39.9665917" lon="20.2399676"><ele>221.0</ele><time>2026-05-03T07:37:35.737Z</time></trkpt><trkpt lat="39.9667728" lon="20.2398028"><ele>221.0</ele><time>2026-05-03T07:37:36.736Z</time></trkpt><trkpt lat="39.9669542" lon="20.2396412"><ele>220.66666666666669</ele><time>2026-05-03T07:37:37.737Z</time></trkpt><trkpt lat="39.9671347" lon="20.2394763"><ele>220.33333333333331</ele><time>2026-05-03T07:37:38.737Z</time></trkpt><trkpt lat="39.9673157" lon="20.2393122"><ele>220.0</ele><time>2026-05-03T07:37:39.737Z</time></trkpt><trkpt lat="39.9674961" lon="20.2391488"><ele>220.0</ele><time>2026-05-03T07:37:40.737Z</time></trkpt><trkpt lat="39.9676767" lon="20.2389848"><ele>220.0</ele><time>2026-05-03T07:37:41.736Z</time></trkpt><trkpt lat="39.9678564" lon="20.2388199"><ele>220.0</ele><time>2026-05-03T07:37:42.737Z</time></trkpt><trkpt lat="39.9680361" lon="20.2386548"><ele>220.0</ele><time>2026-05-03T07:37:43.737Z</time></trkpt><trkpt lat="39.9682152" lon="20.2384905"><ele>220.0</ele><time>2026-05-03T07:37:44.736Z</time></trkpt><trkpt lat="39.9683952" lon="20.238326"><ele>220.0</ele><time>2026-05-03T07:37:45.737Z</time></trkpt><trkpt lat="39.9685741" lon="20.238165"><ele>220.33333333333331</ele><time>2026-05-03T07:37:46.737Z</time></trkpt><trkpt lat="39.968755" lon="20.2380053"><ele>220.66666666666669</ele><time>2026-05-03T07:37:47.737Z</time></trkpt><trkpt lat="39.968937" lon="20.2378466"><ele>221.0</ele><time>2026-05-03T07:37:48.737Z</time></trkpt><trkpt lat="39.969121" lon="20.2376925"><ele>220.33333333333334</ele><time>2026-05-03T07:37:49.736Z</time></trkpt><trkpt lat="39.9693063" lon="20.2375442"><ele>219.66666666666669</ele><time>2026-05-03T07:37:50.736Z</time></trkpt><trkpt lat="39.9694936" lon="20.2374008"><ele>219.0</ele><time>2026-05-03T07:37:51.737Z</time></trkpt><trkpt lat="39.969686" lon="20.2372637"><ele>218.66666666666669</ele><time>2026-05-03T07:37:52.737Z</time></trkpt><trkpt lat="39.9698778" lon="20.2371296"><ele>218.33333333333334</ele><time>2026-05-03T07:37:53.736Z</time></trkpt><trkpt lat="39.9700724" lon="20.2370061"><ele>218.0</ele><time>2026-05-03T07:37:54.737Z</time></trkpt><trkpt lat="39.9702708" lon="20.2368905"><ele>217.66666666666669</ele><time>2026-05-03T07:37:55.736Z</time></trkpt><trkpt lat="39.9704706" lon="20.2367816"><ele>217.33333333333331</ele><time>2026-05-03T07:37:56.737Z</time></trkpt><trkpt lat="39.9706713" lon="20.2366817"><ele>217.0</ele><time>2026-05-03T07:37:57.736Z</time></trkpt><trkpt lat="39.9708746" lon="20.2365902"><ele>217.0</ele><time>2026-05-03T07:37:58.736Z</time></trkpt><trkpt lat="39.9710772" lon="20.2365071"><ele>217.0</ele><time>2026-05-03T07:37:59.737Z</time></trkpt><trkpt lat="39.971281" lon="20.2364315"><ele>217.0</ele><time>2026-05-03T07:38:00.736Z</time></trkpt><trkpt lat="39.9714868" lon="20.2363607"><ele>217.66666666666666</ele><time>2026-05-03T07:38:01.736Z</time></trkpt><trkpt lat="39.9716947" lon="20.2362909"><ele>218.33333333333331</ele><time>2026-05-03T07:38:02.736Z</time></trkpt><trkpt lat="39.9718988" lon="20.2362279"><ele>219.0</ele><time>2026-05-03T07:38:03.736Z</time></trkpt><trkpt lat="39.9721017" lon="20.2361675"><ele>219.0</ele><time>2026-05-03T07:38:04.736Z</time></trkpt><trkpt lat="39.9723049" lon="20.2361113"><ele>219.0</ele><time>2026-05-03T07:38:05.736Z</time></trkpt><trkpt lat="39.9725069" lon="20.2360518"><ele>219.0</ele><time>2026-05-03T07:38:06.736Z</time></trkpt><trkpt lat="39.9727093" lon="20.2359931"><ele>219.66666666666669</ele><time>2026-05-03T07:38:07.737Z</time></trkpt><trkpt lat="39.972911" lon="20.2359349"><ele>220.33333333333334</ele><time>2026-05-03T07:38:08.736Z</time></trkpt><trkpt lat="39.973113" lon="20.2358752"><ele>221.0</ele><time>2026-05-03T07:38:09.737Z</time></trkpt><trkpt lat="39.9733146" lon="20.2358147"><ele>221.66666666666669</ele><time>2026-05-03T07:38:10.737Z</time></trkpt><trkpt lat="39.9735165" lon="20.2357517"><ele>222.33333333333331</ele><time>2026-05-03T07:38:11.736Z</time></trkpt><trkpt lat="39.9737173" lon="20.2356873"><ele>223.0</ele><time>2026-05-03T07:38:12.737Z</time></trkpt><trkpt lat="39.9739185" lon="20.2356189"><ele>225.66666666666666</ele><time>2026-05-03T07:38:13.736Z</time></trkpt><trkpt lat="39.9741168" lon="20.235543"><ele>228.33333333333331</ele><time>2026-05-03T07:38:14.736Z</time></trkpt><trkpt lat="39.9743104" lon="20.2354595"><ele>231.0</ele><time>2026-05-03T07:38:15.736Z</time></trkpt><trkpt lat="39.9745063" lon="20.2353679"><ele>231.33333333333331</ele><time>2026-05-03T07:38:16.736Z</time></trkpt><trkpt lat="39.9746984" lon="20.2352701"><ele>231.66666666666666</ele><time>2026-05-03T07:38:17.736Z</time></trkpt><trkpt lat="39.9748899" lon="20.2351643"><ele>232.0</ele><time>2026-05-03T07:38:18.736Z</time></trkpt><trkpt lat="39.9750806" lon="20.235053"><ele>230.33333333333331</ele><time>2026-05-03T07:38:19.736Z</time></trkpt><trkpt lat="39.9752703" lon="20.2349388"><ele>228.66666666666669</ele><time>2026-05-03T07:38:20.737Z</time></trkpt><trkpt lat="39.9754562" lon="20.2348105"><ele>227.0</ele><time>2026-05-03T07:38:21.737Z</time></trkpt><trkpt lat="39.9756409" lon="20.2346739"><ele>227.0</ele><time>2026-05-03T07:38:22.736Z</time></trkpt><trkpt lat="39.9758264" lon="20.234531"><ele>227.0</ele><time>2026-05-03T07:38:23.736Z</time></trkpt><trkpt lat="39.9760066" lon="20.2343812"><ele>227.0</ele><time>2026-05-03T07:38:24.736Z</time></trkpt><trkpt lat="39.9761824" lon="20.2342221"><ele>225.33333333333334</ele><time>2026-05-03T07:38:25.737Z</time></trkpt><trkpt lat="39.976355" lon="20.2340569"><ele>223.66666666666669</ele><time>2026-05-03T07:38:26.737Z</time></trkpt><trkpt lat="39.9765249" lon="20.2338855"><ele>222.0</ele><time>2026-05-03T07:38:27.736Z</time></trkpt><trkpt lat="39.9766914" lon="20.2337076"><ele>219.33333333333331</ele><time>2026-05-03T07:38:28.736Z</time></trkpt><trkpt lat="39.9768556" lon="20.2335322"><ele>216.66666666666666</ele><time>2026-05-03T07:38:29.737Z</time></trkpt><trkpt lat="39.9770166" lon="20.2333429"><ele>214.0</ele><time>2026-05-03T07:38:30.737Z</time></trkpt><trkpt lat="39.9771773" lon="20.2331493"><ele>214.0</ele><time>2026-05-03T07:38:31.737Z</time></trkpt><trkpt lat="39.9773378" lon="20.2329545"><ele>214.0</ele><time>2026-05-03T07:38:32.737Z</time></trkpt><trkpt lat="39.9774985" lon="20.2327571"><ele>214.0</ele><time>2026-05-03T07:38:33.736Z</time></trkpt><trkpt lat="39.9776531" lon="20.2325633"><ele>213.66666666666666</ele><time>2026-05-03T07:38:34.736Z</time></trkpt><trkpt lat="39.9778109" lon="20.2323614"><ele>213.33333333333331</ele><time>2026-05-03T07:38:35.737Z</time></trkpt><trkpt lat="39.9779635" lon="20.2321548"><ele>213.0</ele><time>2026-05-03T07:38:36.737Z</time></trkpt><trkpt lat="39.9781214" lon="20.2319546"><ele>213.0</ele><time>2026-05-03T07:38:37.736Z</time></trkpt><trkpt lat="39.978278" lon="20.2317564"><ele>213.0</ele><time>2026-05-03T07:38:38.736Z</time></trkpt><trkpt lat="39.9784372" lon="20.2315605"><ele>213.0</ele><time>2026-05-03T07:38:39.737Z</time></trkpt><trkpt lat="39.9785968" lon="20.2313658"><ele>214.0</ele><time>2026-05-03T07:38:40.736Z</time></trkpt><trkpt lat="39.9787567" lon="20.2311719"><ele>215.0</ele><time>2026-05-03T07:38:41.737Z</time></trkpt><trkpt lat="39.978916" lon="20.230978"><ele>216.0</ele><time>2026-05-03T07:38:42.737Z</time></trkpt><trkpt lat="39.979077" lon="20.2307871"><ele>214.66666666666669</ele><time>2026-05-03T07:38:43.736Z</time></trkpt><trkpt lat="39.97924" lon="20.2306025"><ele>213.33333333333334</ele><time>2026-05-03T07:38:44.736Z</time></trkpt><trkpt lat="39.9794064" lon="20.2304239"><ele>212.0</ele><time>2026-05-03T07:38:45.736Z</time></trkpt><trkpt lat="39.979574" lon="20.2302505"><ele>212.0</ele><time>2026-05-03T07:38:46.736Z</time></trkpt><trkpt lat="39.9797428" lon="20.230081"><ele>212.0</ele><time>2026-05-03T07:38:47.736Z</time></trkpt><trkpt lat="39.9799102" lon="20.229913"><ele>212.0</ele><time>2026-05-03T07:38:48.736Z</time></trkpt><trkpt lat="39.9800792" lon="20.2297504"><ele>212.33333333333334</ele><time>2026-05-03T07:38:49.737Z</time></trkpt><trkpt lat="39.980248" lon="20.22959"><ele>212.66666666666669</ele><time>2026-05-03T07:38:50.736Z</time></trkpt><trkpt lat="39.9804155" lon="20.2294297"><ele>213.0</ele><time>2026-05-03T07:38:51.736Z</time></trkpt><trkpt lat="39.9805822" lon="20.229272"><ele>213.0</ele><time>2026-05-03T07:38:52.737Z</time></trkpt><trkpt lat="39.9807486" lon="20.2291165"><ele>213.0</ele><time>2026-05-03T07:38:53.736Z</time></trkpt><trkpt lat="39.9809138" lon="20.2289608"><ele>213.0</ele><time>2026-05-03T07:38:54.737Z</time></trkpt><trkpt lat="39.9810788" lon="20.2288053"><ele>212.66666666666669</ele><time>2026-05-03T07:38:55.737Z</time></trkpt><trkpt lat="39.981244" lon="20.228651"><ele>212.33333333333334</ele><time>2026-05-03T07:38:56.737Z</time></trkpt><trkpt lat="39.9814089" lon="20.2284971"><ele>212.0</ele><time>2026-05-03T07:38:57.736Z</time></trkpt><trkpt lat="39.9815738" lon="20.2283447"><ele>212.0</ele><time>2026-05-03T07:38:58.736Z</time></trkpt><trkpt lat="39.9817369" lon="20.2281914"><ele>212.0</ele><time>2026-05-03T07:38:59.737Z</time></trkpt><trkpt lat="39.9819001" lon="20.2280362"><ele>212.0</ele><time>2026-05-03T07:39:00.737Z</time></trkpt><trkpt lat="39.9820637" lon="20.2278808"><ele>212.0</ele><time>2026-05-03T07:39:01.737Z</time></trkpt><trkpt lat="39.9822278" lon="20.2277253"><ele>212.0</ele><time>2026-05-03T07:39:02.736Z</time></trkpt><trkpt lat="39.9823914" lon="20.2275702"><ele>212.0</ele><time>2026-05-03T07:39:03.736Z</time></trkpt><trkpt lat="39.9825548" lon="20.2274162"><ele>211.66666666666669</ele><time>2026-05-03T07:39:04.737Z</time></trkpt><trkpt lat="39.9827197" lon="20.227262"><ele>211.33333333333331</ele><time>2026-05-03T07:39:05.737Z</time></trkpt><trkpt lat="39.982883" lon="20.2271114"><ele>211.0</ele><time>2026-05-03T07:39:06.737Z</time></trkpt><trkpt lat="39.9830499" lon="20.226958"><ele>211.0</ele><time>2026-05-03T07:39:07.737Z</time></trkpt><trkpt lat="39.9832176" lon="20.2268049"><ele>211.0</ele><time>2026-05-03T07:39:08.736Z</time></trkpt><trkpt lat="39.9833847" lon="20.2266516"><ele>211.0</ele><time>2026-05-03T07:39:09.736Z</time></trkpt><trkpt lat="39.9835529" lon="20.226499"><ele>211.33333333333331</ele><time>2026-05-03T07:39:10.736Z</time></trkpt><trkpt lat="39.9837209" lon="20.2263464"><ele>211.66666666666669</ele><time>2026-05-03T07:39:11.736Z</time></trkpt><trkpt lat="39.9838888" lon="20.2261925"><ele>212.0</ele><time>2026-05-03T07:39:12.736Z</time></trkpt><trkpt lat="39.9840563" lon="20.2260381"><ele>211.66666666666669</ele><time>2026-05-03T07:39:13.736Z</time></trkpt><trkpt lat="39.984223" lon="20.2258836"><ele>211.33333333333331</ele><time>2026-05-03T07:39:14.736Z</time></trkpt><trkpt lat="39.9843891" lon="20.2257286"><ele>211.0</ele><time>2026-05-03T07:39:15.737Z</time></trkpt><trkpt lat="39.9845563" lon="20.2255749"><ele>211.0</ele><time>2026-05-03T07:39:16.736Z</time></trkpt><trkpt lat="39.9847233" lon="20.2254202"><ele>211.0</ele><time>2026-05-03T07:39:17.736Z</time></trkpt><trkpt lat="39.9848896" lon="20.2252656"><ele>211.0</ele><time>2026-05-03T07:39:18.736Z</time></trkpt><trkpt lat="39.9850546" lon="20.2251102"><ele>211.0</ele><time>2026-05-03T07:39:19.737Z</time></trkpt><trkpt lat="39.9852186" lon="20.2249522"><ele>211.0</ele><time>2026-05-03T07:39:20.736Z</time></trkpt><trkpt lat="39.9853841" lon="20.2247945"><ele>211.0</ele><time>2026-05-03T07:39:21.736Z</time></trkpt><trkpt lat="39.9855498" lon="20.2246373"><ele>211.0</ele><time>2026-05-03T07:39:22.736Z</time></trkpt><trkpt lat="39.985716" lon="20.2244801"><ele>211.0</ele><time>2026-05-03T07:39:23.737Z</time></trkpt><trkpt lat="39.9858815" lon="20.2243197"><ele>211.0</ele><time>2026-05-03T07:39:24.736Z</time></trkpt><trkpt lat="39.9860454" lon="20.2241579"><ele>211.0</ele><time>2026-05-03T07:39:25.737Z</time></trkpt><trkpt lat="39.9862095" lon="20.2239949"><ele>211.0</ele><time>2026-05-03T07:39:26.736Z</time></trkpt><trkpt lat="39.9863732" lon="20.2238334"><ele>211.0</ele><time>2026-05-03T07:39:27.736Z</time></trkpt><trkpt lat="39.986537" lon="20.2236723"><ele>211.33333333333331</ele><time>2026-05-03T07:39:28.737Z</time></trkpt><trkpt lat="39.9867022" lon="20.2235115"><ele>211.66666666666669</ele><time>2026-05-03T07:39:29.736Z</time></trkpt><trkpt lat="39.9868673" lon="20.2233518"><ele>212.0</ele><time>2026-05-03T07:39:30.737Z</time></trkpt><trkpt lat="39.9870313" lon="20.2231913"><ele>212.0</ele><time>2026-05-03T07:39:31.736Z</time></trkpt><trkpt lat="39.9871938" lon="20.2230288"><ele>212.0</ele><time>2026-05-03T07:39:32.737Z</time></trkpt><trkpt lat="39.9873636" lon="20.2228622"><ele>212.0</ele><time>2026-05-03T07:39:33.737Z</time></trkpt><trkpt lat="39.9875379" lon="20.2226892"><ele>211.5</ele><time>2026-05-03T07:39:34.737Z</time></trkpt><trkpt lat="39.9877189" lon="20.2225087"><ele>211.0</ele><time>2026-05-03T07:39:35.737Z</time></trkpt><trkpt lat="39.9879031" lon="20.2223229"><ele>211.0</ele><time>2026-05-03T07:39:36.737Z</time></trkpt><trkpt lat="39.9880945" lon="20.2221319"><ele>211.0</ele><time>2026-05-03T07:39:37.737Z</time></trkpt><trkpt lat="39.988291" lon="20.2219385"><ele>211.5</ele><time>2026-05-03T07:39:38.736Z</time></trkpt><trkpt lat="39.988493" lon="20.2217388"><ele>212.0</ele><time>2026-05-03T07:39:39.737Z</time></trkpt><trkpt lat="39.9886972" lon="20.2215505"><ele>212.0</ele><time>2026-05-03T07:39:40.737Z</time></trkpt><trkpt lat="39.9889047" lon="20.2213692"><ele>212.0</ele><time>2026-05-03T07:39:41.736Z</time></trkpt><trkpt lat="39.9891094" lon="20.221188"><ele>211.5</ele><time>2026-05-03T07:39:42.736Z</time></trkpt><trkpt lat="39.9893116" lon="20.2210067"><ele>211.0</ele><time>2026-05-03T07:39:43.736Z</time></trkpt><trkpt lat="39.989509" lon="20.2208231"><ele>210.0</ele><time>2026-05-03T07:39:44.736Z</time></trkpt><trkpt lat="39.9897047" lon="20.2206386"><ele>209.0</ele><time>2026-05-03T07:39:45.736Z</time></trkpt><trkpt lat="39.9898983" lon="20.2204553"><ele>209.0</ele><time>2026-05-03T07:39:46.736Z</time></trkpt><trkpt lat="39.9900895" lon="20.2202748"><ele>209.0</ele><time>2026-05-03T07:39:47.737Z</time></trkpt><trkpt lat="39.9902791" lon="20.2200962"><ele>209.0</ele><time>2026-05-03T07:39:48.736Z</time></trkpt><trkpt lat="39.9904663" lon="20.2199199"><ele>209.0</ele><time>2026-05-03T07:39:49.737Z</time></trkpt><trkpt lat="39.9906516" lon="20.2197441"><ele>209.5</ele><time>2026-05-03T07:39:50.737Z</time></trkpt><trkpt lat="39.9908358" lon="20.2195696"><ele>210.0</ele><time>2026-05-03T07:39:51.736Z</time></trkpt><trkpt lat="39.9910184" lon="20.2193964"><ele>210.0</ele><time>2026-05-03T07:39:52.737Z</time></trkpt><trkpt lat="39.9911995" lon="20.2192261"><ele>210.0</ele><time>2026-05-03T07:39:53.736Z</time></trkpt><trkpt lat="39.9913791" lon="20.219058"><ele>210.0</ele><time>2026-05-03T07:39:54.737Z</time></trkpt><trkpt lat="39.9915584" lon="20.2188895"><ele>210.33333333333331</ele><time>2026-05-03T07:39:55.736Z</time></trkpt><trkpt lat="39.9917368" lon="20.2187258"><ele>210.66666666666666</ele><time>2026-05-03T07:39:56.737Z</time></trkpt><trkpt lat="39.9919144" lon="20.2185448"><ele>211.0</ele><time>2026-05-03T07:39:57.737Z</time></trkpt><trkpt lat="39.992094" lon="20.2183905"><ele>211.0</ele><time>2026-05-03T07:39:58.736Z</time></trkpt><trkpt lat="39.992274" lon="20.2182401"><ele>211.0</ele><time>2026-05-03T07:39:59.737Z</time></trkpt><trkpt lat="39.9924541" lon="20.2180968"><ele>211.0</ele><time>2026-05-03T07:40:00.736Z</time></trkpt><trkpt lat="39.9926373" lon="20.2179572"><ele>211.33333333333331</ele><time>2026-05-03T07:40:01.737Z</time></trkpt><trkpt lat="39.9928252" lon="20.217825"><ele>211.66666666666669</ele><time>2026-05-03T07:40:02.737Z</time></trkpt><trkpt lat="39.9930146" lon="20.2176983"><ele>212.0</ele><time>2026-05-03T07:40:03.737Z</time></trkpt><trkpt lat="39.9932063" lon="20.217576"><ele>212.0</ele><time>2026-05-03T07:40:04.737Z</time></trkpt><trkpt lat="39.9933999" lon="20.2174582"><ele>212.0</ele><time>2026-05-03T07:40:05.736Z</time></trkpt><trkpt lat="39.9935966" lon="20.217347"><ele>212.0</ele><time>2026-05-03T07:40:06.736Z</time></trkpt><trkpt lat="39.993797" lon="20.2172412"><ele>211.66666666666669</ele><time>2026-05-03T07:40:07.737Z</time></trkpt><trkpt lat="39.9939986" lon="20.2171409"><ele>211.33333333333331</ele><time>2026-05-03T07:40:08.736Z</time></trkpt><trkpt lat="39.9942021" lon="20.2170453"><ele>211.0</ele><time>2026-05-03T07:40:09.736Z</time></trkpt><trkpt lat="39.9944067" lon="20.216959"><ele>210.66666666666666</ele><time>2026-05-03T07:40:10.737Z</time></trkpt><trkpt lat="39.9946151" lon="20.2168767"><ele>210.33333333333331</ele><time>2026-05-03T07:40:11.736Z</time></trkpt><trkpt lat="39.9948273" lon="20.2167986"><ele>210.0</ele><time>2026-05-03T07:40:12.737Z</time></trkpt><trkpt lat="39.995037" lon="20.216726"><ele>210.0</ele><time>2026-05-03T07:40:13.737Z</time></trkpt><trkpt lat="39.9952503" lon="20.2166573"><ele>210.0</ele><time>2026-05-03T07:40:14.736Z</time></trkpt><trkpt lat="39.9954619" lon="20.2165921"><ele>210.0</ele><time>2026-05-03T07:40:15.736Z</time></trkpt><trkpt lat="39.995672" lon="20.2165267"><ele>210.33333333333331</ele><time>2026-05-03T07:40:16.737Z</time></trkpt><trkpt lat="39.9958835" lon="20.2164579"><ele>210.66666666666666</ele><time>2026-05-03T07:40:17.737Z</time></trkpt><trkpt lat="39.9960912" lon="20.2163962"><ele>211.0</ele><time>2026-05-03T07:40:18.736Z</time></trkpt><trkpt lat="39.9963022" lon="20.2163289"><ele>211.0</ele><time>2026-05-03T07:40:19.737Z</time></trkpt><trkpt lat="39.9965115" lon="20.2162616"><ele>211.0</ele><time>2026-05-03T07:40:20.736Z</time></trkpt><trkpt lat="39.9967191" lon="20.2161947"><ele>211.0</ele><time>2026-05-03T07:40:21.736Z</time></trkpt><trkpt lat="39.9969271" lon="20.2161262"><ele>210.33333333333331</ele><time>2026-05-03T07:40:22.736Z</time></trkpt><trkpt lat="39.9971338" lon="20.2160564"><ele>209.66666666666669</ele><time>2026-05-03T07:40:23.737Z</time></trkpt><trkpt lat="39.9973397" lon="20.2159876"><ele>209.0</ele><time>2026-05-03T07:40:24.736Z</time></trkpt><trkpt lat="39.9975455" lon="20.2159182"><ele>209.0</ele><time>2026-05-03T07:40:25.737Z</time></trkpt><trkpt lat="39.9977475" lon="20.2158394"><ele>209.0</ele><time>2026-05-03T07:40:26.737Z</time></trkpt><trkpt lat="39.997949" lon="20.2157662"><ele>209.0</ele><time>2026-05-03T07:40:27.737Z</time></trkpt><trkpt lat="39.9981492" lon="20.2156882"><ele>209.0</ele><time>2026-05-03T07:40:28.737Z</time></trkpt><trkpt lat="39.998345" lon="20.215603"><ele>209.0</ele><time>2026-05-03T07:40:29.736Z</time></trkpt><trkpt lat="39.9985411" lon="20.2155107"><ele>209.0</ele><time>2026-05-03T07:40:30.736Z</time></trkpt><trkpt lat="39.9987338" lon="20.2154129"><ele>209.0</ele><time>2026-05-03T07:40:31.737Z</time></trkpt><trkpt lat="39.9989215" lon="20.2153006"><ele>209.0</ele><time>2026-05-03T07:40:32.737Z</time></trkpt><trkpt lat="39.9991067" lon="20.2151849"><ele>209.0</ele><time>2026-05-03T07:40:33.736Z</time></trkpt><trkpt lat="39.99929" lon="20.2150605"><ele>208.66666666666669</ele><time>2026-05-03T07:40:34.737Z</time></trkpt><trkpt lat="39.9994702" lon="20.2149275"><ele>208.33333333333331</ele><time>2026-05-03T07:40:35.737Z</time></trkpt><trkpt lat="39.9996484" lon="20.2147874"><ele>208.0</ele><time>2026-05-03T07:40:36.736Z</time></trkpt><trkpt lat="39.9998247" lon="20.2146428"><ele>208.66666666666666</ele><time>2026-05-03T07:40:37.736Z</time></trkpt><trkpt lat="40.0000001" lon="20.2144948"><ele>209.33333333333331</ele><time>2026-05-03T07:40:38.736Z</time></trkpt><trkpt lat="40.0001717" lon="20.2143419"><ele>210.0</ele><time>2026-05-03T07:40:39.737Z</time></trkpt><trkpt lat="40.0003375" lon="20.2141751"><ele>210.0</ele><time>2026-05-03T07:40:40.737Z</time></trkpt><trkpt lat="40.0005007" lon="20.2140024"><ele>210.0</ele><time>2026-05-03T07:40:41.737Z</time></trkpt><trkpt lat="40.0006602" lon="20.213821"><ele>210.0</ele><time>2026-05-03T07:40:42.736Z</time></trkpt><trkpt lat="40.0008157" lon="20.2136337"><ele>210.66666666666669</ele><time>2026-05-03T07:40:43.737Z</time></trkpt><trkpt lat="40.0009673" lon="20.2134415"><ele>211.33333333333334</ele><time>2026-05-03T07:40:44.737Z</time></trkpt><trkpt lat="40.0011171" lon="20.2132469"><ele>212.0</ele><time>2026-05-03T07:40:45.737Z</time></trkpt><trkpt lat="40.001266" lon="20.2130519"><ele>211.33333333333334</ele><time>2026-05-03T07:40:46.736Z</time></trkpt><trkpt lat="40.0014147" lon="20.2128553"><ele>210.66666666666669</ele><time>2026-05-03T07:40:47.736Z</time></trkpt><trkpt lat="40.0015626" lon="20.2126582"><ele>210.0</ele><time>2026-05-03T07:40:48.737Z</time></trkpt><trkpt lat="40.0017115" lon="20.2124627"><ele>210.66666666666669</ele><time>2026-05-03T07:40:49.736Z</time></trkpt><trkpt lat="40.0018606" lon="20.2122698"><ele>211.33333333333334</ele><time>2026-05-03T07:40:50.736Z</time></trkpt><trkpt lat="40.0020129" lon="20.2120837"><ele>212.0</ele><time>2026-05-03T07:40:51.737Z</time></trkpt><trkpt lat="40.0021689" lon="20.2119027"><ele>212.0</ele><time>2026-05-03T07:40:52.737Z</time></trkpt><trkpt lat="40.0023294" lon="20.2117148"><ele>212.0</ele><time>2026-05-03T07:40:53.736Z</time></trkpt><trkpt lat="40.0024919" lon="20.2115467"><ele>212.0</ele><time>2026-05-03T07:40:54.737Z</time></trkpt><trkpt lat="40.0026609" lon="20.211386"><ele>210.66666666666669</ele><time>2026-05-03T07:40:55.736Z</time></trkpt><trkpt lat="40.0028333" lon="20.2112309"><ele>209.33333333333331</ele><time>2026-05-03T07:40:56.737Z</time></trkpt><trkpt lat="40.0030092" lon="20.2110813"><ele>208.0</ele><time>2026-05-03T07:40:57.736Z</time></trkpt><trkpt lat="40.0031888" lon="20.2109393"><ele>208.0</ele><time>2026-05-03T07:40:58.737Z</time></trkpt><trkpt lat="40.0033711" lon="20.2108043"><ele>208.0</ele><time>2026-05-03T07:40:59.736Z</time></trkpt><trkpt lat="40.0035552" lon="20.2106749"><ele>208.0</ele><time>2026-05-03T07:41:00.736Z</time></trkpt><trkpt lat="40.0037398" lon="20.210548"><ele>208.0</ele><time>2026-05-03T07:41:01.737Z</time></trkpt><trkpt lat="40.0039248" lon="20.210422"><ele>208.0</ele><time>2026-05-03T07:41:02.737Z</time></trkpt><trkpt lat="40.0041124" lon="20.2103034"><ele>208.0</ele><time>2026-05-03T07:41:03.737Z</time></trkpt><trkpt lat="40.0043001" lon="20.2101765"><ele>207.66666666666666</ele><time>2026-05-03T07:41:04.736Z</time></trkpt><trkpt lat="40.0044874" lon="20.210046"><ele>207.33333333333331</ele><time>2026-05-03T07:41:05.737Z</time></trkpt><trkpt lat="40.0046747" lon="20.2099108"><ele>207.0</ele><time>2026-05-03T07:41:06.737Z</time></trkpt><trkpt lat="40.0048596" lon="20.2097716"><ele>206.66666666666669</ele><time>2026-05-03T07:41:07.737Z</time></trkpt><trkpt lat="40.0050435" lon="20.2096268"><ele>206.33333333333334</ele><time>2026-05-03T07:41:08.737Z</time></trkpt><trkpt lat="40.0052201" lon="20.2094789"><ele>206.0</ele><time>2026-05-03T07:41:09.736Z</time></trkpt><trkpt lat="40.0053967" lon="20.2093214"><ele>206.0</ele><time>2026-05-03T07:41:10.737Z</time></trkpt><trkpt lat="40.0055688" lon="20.2091584"><ele>206.0</ele><time>2026-05-03T07:41:11.737Z</time></trkpt><trkpt lat="40.0057378" lon="20.208991"><ele>206.0</ele><time>2026-05-03T07:41:12.737Z</time></trkpt><trkpt lat="40.0059047" lon="20.2088187"><ele>206.0</ele><time>2026-05-03T07:41:13.736Z</time></trkpt><trkpt lat="40.0060677" lon="20.2086429"><ele>206.0</ele><time>2026-05-03T07:41:14.736Z</time></trkpt><trkpt lat="40.0062278" lon="20.2084645"><ele>206.0</ele><time>2026-05-03T07:41:15.736Z</time></trkpt><trkpt lat="40.006389" lon="20.2082821"><ele>206.0</ele><time>2026-05-03T07:41:16.736Z</time></trkpt><trkpt lat="40.0065475" lon="20.2080971"><ele>206.0</ele><time>2026-05-03T07:41:17.737Z</time></trkpt><trkpt lat="40.006706" lon="20.2079105"><ele>206.0</ele><time>2026-05-03T07:41:18.737Z</time></trkpt><trkpt lat="40.0068645" lon="20.2077253"><ele>206.0</ele><time>2026-05-03T07:41:19.737Z</time></trkpt><trkpt lat="40.0070245" lon="20.2075389"><ele>206.0</ele><time>2026-05-03T07:41:20.737Z</time></trkpt><trkpt lat="40.0071836" lon="20.2073514"><ele>206.0</ele><time>2026-05-03T07:41:21.736Z</time></trkpt><trkpt lat="40.0073429" lon="20.2071632"><ele>206.0</ele><time>2026-05-03T07:41:22.736Z</time></trkpt><trkpt lat="40.0075017" lon="20.2069748"><ele>206.0</ele><time>2026-05-03T07:41:23.736Z</time></trkpt><trkpt lat="40.0076616" lon="20.2067866"><ele>206.0</ele><time>2026-05-03T07:41:24.736Z</time></trkpt><trkpt lat="40.007821" lon="20.2065991"><ele>205.33333333333334</ele><time>2026-05-03T07:41:25.736Z</time></trkpt><trkpt lat="40.0079801" lon="20.2064111"><ele>204.66666666666669</ele><time>2026-05-03T07:41:26.737Z</time></trkpt><trkpt lat="40.0081396" lon="20.2062224"><ele>204.0</ele><time>2026-05-03T07:41:27.737Z</time></trkpt><trkpt lat="40.0083002" lon="20.206036"><ele>204.0</ele><time>2026-05-03T07:41:28.736Z</time></trkpt><trkpt lat="40.0084629" lon="20.2058511"><ele>204.0</ele><time>2026-05-03T07:41:29.737Z</time></trkpt><trkpt lat="40.0086228" lon="20.2056653"><ele>204.0</ele><time>2026-05-03T07:41:30.737Z</time></trkpt><trkpt lat="40.008783" lon="20.2054785"><ele>204.0</ele><time>2026-05-03T07:41:31.737Z</time></trkpt><trkpt lat="40.0089424" lon="20.2052915"><ele>204.0</ele><time>2026-05-03T07:41:32.737Z</time></trkpt><trkpt lat="40.0091009" lon="20.2051055"><ele>204.0</ele><time>2026-05-03T07:41:33.736Z</time></trkpt><trkpt lat="40.0092593" lon="20.2049193"><ele>204.0</ele><time>2026-05-03T07:41:34.737Z</time></trkpt><trkpt lat="40.0094146" lon="20.2047319"><ele>204.0</ele><time>2026-05-03T07:41:35.737Z</time></trkpt><trkpt lat="40.0095741" lon="20.2045428"><ele>204.0</ele><time>2026-05-03T07:41:36.737Z</time></trkpt><trkpt lat="40.009736" lon="20.204352"><ele>204.0</ele><time>2026-05-03T07:41:37.737Z</time></trkpt><trkpt lat="40.0098969" lon="20.204162"><ele>204.0</ele><time>2026-05-03T07:41:38.736Z</time></trkpt><trkpt lat="40.0100596" lon="20.203972"><ele>204.0</ele><time>2026-05-03T07:41:39.736Z</time></trkpt><trkpt lat="40.0102221" lon="20.2037822"><ele>204.66666666666669</ele><time>2026-05-03T07:41:40.737Z</time></trkpt><trkpt lat="40.0103851" lon="20.2035925"><ele>205.33333333333334</ele><time>2026-05-03T07:41:41.737Z</time></trkpt><trkpt lat="40.0105482" lon="20.2034015"><ele>206.0</ele><time>2026-05-03T07:41:42.737Z</time></trkpt><trkpt lat="40.0107104" lon="20.2032117"><ele>204.66666666666669</ele><time>2026-05-03T07:41:43.736Z</time></trkpt><trkpt lat="40.0108745" lon="20.2030218"><ele>203.33333333333331</ele><time>2026-05-03T07:41:44.736Z</time></trkpt><trkpt lat="40.0110306" lon="20.2028332"><ele>202.0</ele><time>2026-05-03T07:41:45.737Z</time></trkpt><trkpt lat="40.0111927" lon="20.2026429"><ele>202.0</ele><time>2026-05-03T07:41:46.737Z</time></trkpt><trkpt lat="40.0113545" lon="20.2024541"><ele>202.0</ele><time>2026-05-03T07:41:47.737Z</time></trkpt><trkpt lat="40.0115167" lon="20.2022636"><ele>202.0</ele><time>2026-05-03T07:41:48.736Z</time></trkpt><trkpt lat="40.0116814" lon="20.2020753"><ele>203.0</ele><time>2026-05-03T07:41:49.736Z</time></trkpt><trkpt lat="40.0118385" lon="20.2018868"><ele>204.0</ele><time>2026-05-03T07:41:50.737Z</time></trkpt><trkpt lat="40.0120003" lon="20.201698"><ele>205.0</ele><time>2026-05-03T07:41:51.736Z</time></trkpt><trkpt lat="40.0121617" lon="20.201509"><ele>205.0</ele><time>2026-05-03T07:41:52.737Z</time></trkpt><trkpt lat="40.0123231" lon="20.2013214"><ele>205.0</ele><time>2026-05-03T07:41:53.737Z</time></trkpt><trkpt lat="40.012483" lon="20.2011377"><ele>205.0</ele><time>2026-05-03T07:41:54.737Z</time></trkpt><trkpt lat="40.012643" lon="20.2009499"><ele>205.0</ele><time>2026-05-03T07:41:55.736Z</time></trkpt><trkpt lat="40.0128033" lon="20.2007613"><ele>205.0</ele><time>2026-05-03T07:41:56.737Z</time></trkpt><trkpt lat="40.0129628" lon="20.2005733"><ele>205.0</ele><time>2026-05-03T07:41:57.737Z</time></trkpt><trkpt lat="40.0131216" lon="20.2003865"><ele>204.33333333333331</ele><time>2026-05-03T07:41:58.737Z</time></trkpt><trkpt lat="40.0132832" lon="20.2002009"><ele>203.66666666666669</ele><time>2026-05-03T07:41:59.736Z</time></trkpt><trkpt lat="40.0134432" lon="20.2000148"><ele>203.0</ele><time>2026-05-03T07:42:00.737Z</time></trkpt><trkpt lat="40.0136041" lon="20.199828"><ele>203.0</ele><time>2026-05-03T07:42:01.736Z</time></trkpt><trkpt lat="40.013762" lon="20.19964"><ele>203.0</ele><time>2026-05-03T07:42:02.737Z</time></trkpt><trkpt lat="40.0139239" lon="20.1994524"><ele>203.0</ele><time>2026-05-03T07:42:03.737Z</time></trkpt><trkpt lat="40.014085" lon="20.1992636"><ele>203.33333333333334</ele><time>2026-05-03T07:42:04.736Z</time></trkpt><trkpt lat="40.0142463" lon="20.1990756"><ele>203.66666666666669</ele><time>2026-05-03T07:42:05.736Z</time></trkpt><trkpt lat="40.0144077" lon="20.1988864"><ele>204.0</ele><time>2026-05-03T07:42:06.736Z</time></trkpt><trkpt lat="40.0145678" lon="20.1986964"><ele>204.0</ele><time>2026-05-03T07:42:07.736Z</time></trkpt><trkpt lat="40.0147283" lon="20.1985077"><ele>204.0</ele><time>2026-05-03T07:42:08.737Z</time></trkpt><trkpt lat="40.0148884" lon="20.19832"><ele>204.0</ele><time>2026-05-03T07:42:09.737Z</time></trkpt><trkpt lat="40.0150484" lon="20.1981344"><ele>204.0</ele><time>2026-05-03T07:42:10.736Z</time></trkpt><trkpt lat="40.0152086" lon="20.1979486"><ele>204.0</ele><time>2026-05-03T07:42:11.737Z</time></trkpt><trkpt lat="40.015368" lon="20.1977623"><ele>204.0</ele><time>2026-05-03T07:42:12.736Z</time></trkpt><trkpt lat="40.0155271" lon="20.197576"><ele>204.0</ele><time>2026-05-03T07:42:13.737Z</time></trkpt><trkpt lat="40.0156866" lon="20.1973915"><ele>204.0</ele><time>2026-05-03T07:42:14.737Z</time></trkpt><trkpt lat="40.0158463" lon="20.197208"><ele>204.0</ele><time>2026-05-03T07:42:15.737Z</time></trkpt><trkpt lat="40.0160054" lon="20.1970268"><ele>204.0</ele><time>2026-05-03T07:42:16.737Z</time></trkpt><trkpt lat="40.0161665" lon="20.1968491"><ele>204.0</ele><time>2026-05-03T07:42:17.736Z</time></trkpt><trkpt lat="40.0163284" lon="20.1966753"><ele>204.0</ele><time>2026-05-03T07:42:18.737Z</time></trkpt><trkpt lat="40.0164884" lon="20.1964912"><ele>203.66666666666669</ele><time>2026-05-03T07:42:19.737Z</time></trkpt><trkpt lat="40.0166597" lon="20.1963371"><ele>203.33333333333334</ele><time>2026-05-03T07:42:20.737Z</time></trkpt><trkpt lat="40.0168316" lon="20.1961805"><ele>203.0</ele><time>2026-05-03T07:42:21.737Z</time></trkpt><trkpt lat="40.0170076" lon="20.1960308"><ele>203.0</ele><time>2026-05-03T07:42:22.736Z</time></trkpt><trkpt lat="40.0171853" lon="20.1958862"><ele>203.0</ele><time>2026-05-03T07:42:23.736Z</time></trkpt><trkpt lat="40.0173654" lon="20.1957486"><ele>203.0</ele><time>2026-05-03T07:42:24.736Z</time></trkpt><trkpt lat="40.0175492" lon="20.1956186"><ele>202.66666666666669</ele><time>2026-05-03T07:42:25.736Z</time></trkpt><trkpt lat="40.0177355" lon="20.1954934"><ele>202.33333333333331</ele><time>2026-05-03T07:42:26.737Z</time></trkpt><trkpt lat="40.0179227" lon="20.195371"><ele>202.0</ele><time>2026-05-03T07:42:27.736Z</time></trkpt><trkpt lat="40.0181115" lon="20.1952523"><ele>202.0</ele><time>2026-05-03T07:42:28.736Z</time></trkpt><trkpt lat="40.0183036" lon="20.1951488"><ele>202.0</ele><time>2026-05-03T07:42:29.736Z</time></trkpt><trkpt lat="40.018498" lon="20.1950522"><ele>202.0</ele><time>2026-05-03T07:42:30.737Z</time></trkpt><trkpt lat="40.0186937" lon="20.1949615"><ele>202.33333333333331</ele><time>2026-05-03T07:42:31.737Z</time></trkpt><trkpt lat="40.0188944" lon="20.1948751"><ele>202.66666666666669</ele><time>2026-05-03T07:42:32.737Z</time></trkpt><trkpt lat="40.0190937" lon="20.1947899"><ele>203.0</ele><time>2026-05-03T07:42:33.737Z</time></trkpt><trkpt lat="40.0193003" lon="20.1947115"><ele>203.33333333333334</ele><time>2026-05-03T07:42:34.737Z</time></trkpt><trkpt lat="40.0195084" lon="20.1946235"><ele>203.66666666666669</ele><time>2026-05-03T07:42:35.737Z</time></trkpt><trkpt lat="40.0197111" lon="20.1945393"><ele>204.0</ele><time>2026-05-03T07:42:36.737Z</time></trkpt><trkpt lat="40.0198969" lon="20.1944444"><ele>204.33333333333331</ele><time>2026-05-03T07:42:37.737Z</time></trkpt><trkpt lat="40.0200943" lon="20.19435"><ele>204.66666666666666</ele><time>2026-05-03T07:42:38.736Z</time></trkpt><trkpt lat="40.0202891" lon="20.1942481"><ele>205.0</ele><time>2026-05-03T07:42:39.736Z</time></trkpt><trkpt lat="40.0204812" lon="20.1941378"><ele>205.0</ele><time>2026-05-03T07:42:40.736Z</time></trkpt><trkpt lat="40.0206715" lon="20.1940214"><ele>205.0</ele><time>2026-05-03T07:42:41.737Z</time></trkpt><trkpt lat="40.0208567" lon="20.1939001"><ele>205.0</ele><time>2026-05-03T07:42:42.736Z</time></trkpt><trkpt lat="40.0210454" lon="20.1937681"><ele>205.0</ele><time>2026-05-03T07:42:43.736Z</time></trkpt><trkpt lat="40.0212295" lon="20.1936224"><ele>205.0</ele><time>2026-05-03T07:42:44.736Z</time></trkpt><trkpt lat="40.0214079" lon="20.1934691"><ele>205.0</ele><time>2026-05-03T07:42:45.737Z</time></trkpt><trkpt lat="40.0215833" lon="20.1933162"><ele>205.33333333333331</ele><time>2026-05-03T07:42:46.737Z</time></trkpt><trkpt lat="40.0217583" lon="20.1931561"><ele>205.66666666666669</ele><time>2026-05-03T07:42:47.737Z</time></trkpt><trkpt lat="40.0219345" lon="20.1929966"><ele>206.0</ele><time>2026-05-03T07:42:48.737Z</time></trkpt><trkpt lat="40.0221095" lon="20.1928356"><ele>206.0</ele><time>2026-05-03T07:42:49.737Z</time></trkpt><trkpt lat="40.0222846" lon="20.1926752"><ele>206.0</ele><time>2026-05-03T07:42:50.737Z</time></trkpt><trkpt lat="40.0224594" lon="20.1925123"><ele>206.0</ele><time>2026-05-03T07:42:51.736Z</time></trkpt><trkpt lat="40.0226349" lon="20.1923482"><ele>205.0</ele><time>2026-05-03T07:42:52.736Z</time></trkpt><trkpt lat="40.0228094" lon="20.192185"><ele>204.0</ele><time>2026-05-03T07:42:53.737Z</time></trkpt><trkpt lat="40.0229837" lon="20.1920232"><ele>203.0</ele><time>2026-05-03T07:42:54.737Z</time></trkpt><trkpt lat="40.0231611" lon="20.1918613"><ele>202.66666666666669</ele><time>2026-05-03T07:42:55.737Z</time></trkpt><trkpt lat="40.0233371" lon="20.1917001"><ele>202.33333333333331</ele><time>2026-05-03T07:42:56.737Z</time></trkpt><trkpt lat="40.0235131" lon="20.1915388"><ele>202.0</ele><time>2026-05-03T07:42:57.737Z</time></trkpt><trkpt lat="40.0236906" lon="20.1913772"><ele>202.0</ele><time>2026-05-03T07:42:58.736Z</time></trkpt><trkpt lat="40.0238668" lon="20.1912173"><ele>202.0</ele><time>2026-05-03T07:42:59.736Z</time></trkpt><trkpt lat="40.0240446" lon="20.1910581"><ele>202.0</ele><time>2026-05-03T07:43:00.737Z</time></trkpt><trkpt lat="40.0242225" lon="20.1908984"><ele>202.0</ele><time>2026-05-03T07:43:01.737Z</time></trkpt><trkpt lat="40.0243987" lon="20.190737"><ele>202.0</ele><time>2026-05-03T07:43:02.736Z</time></trkpt><trkpt lat="40.024575" lon="20.1905736"><ele>202.0</ele><time>2026-05-03T07:43:03.737Z</time></trkpt><trkpt lat="40.0247513" lon="20.1904103"><ele>202.33333333333331</ele><time>2026-05-03T07:43:04.737Z</time></trkpt><trkpt lat="40.0249299" lon="20.1902465"><ele>202.66666666666669</ele><time>2026-05-03T07:43:05.736Z</time></trkpt><trkpt lat="40.0251074" lon="20.1900824"><ele>203.0</ele><time>2026-05-03T07:43:06.736Z</time></trkpt><trkpt lat="40.0252862" lon="20.1899184"><ele>202.66666666666669</ele><time>2026-05-03T07:43:07.736Z</time></trkpt><trkpt lat="40.0254641" lon="20.1897562"><ele>202.33333333333331</ele><time>2026-05-03T07:43:08.737Z</time></trkpt><trkpt lat="40.0256414" lon="20.1895943"><ele>202.0</ele><time>2026-05-03T07:43:09.737Z</time></trkpt><trkpt lat="40.0258197" lon="20.1894325"><ele>202.0</ele><time>2026-05-03T07:43:10.736Z</time></trkpt><trkpt lat="40.0259965" lon="20.18927"><ele>202.0</ele><time>2026-05-03T07:43:11.737Z</time></trkpt><trkpt lat="40.0261733" lon="20.1891068"><ele>202.0</ele><time>2026-05-03T07:43:12.737Z</time></trkpt><trkpt lat="40.0263494" lon="20.1889437"><ele>202.0</ele><time>2026-05-03T07:43:13.736Z</time></trkpt><trkpt lat="40.0265261" lon="20.1887826"><ele>202.0</ele><time>2026-05-03T07:43:14.737Z</time></trkpt><trkpt lat="40.0267018" lon="20.1886218"><ele>202.0</ele><time>2026-05-03T07:43:15.737Z</time></trkpt><trkpt lat="40.0268792" lon="20.1884599"><ele>202.0</ele><time>2026-05-03T07:43:16.737Z</time></trkpt><trkpt lat="40.0270567" lon="20.1882979"><ele>202.0</ele><time>2026-05-03T07:43:17.736Z</time></trkpt><trkpt lat="40.027235" lon="20.188135"><ele>202.0</ele><time>2026-05-03T07:43:18.736Z</time></trkpt><trkpt lat="40.0274148" lon="20.187968"><ele>201.66666666666666</ele><time>2026-05-03T07:43:19.737Z</time></trkpt><trkpt lat="40.0275933" lon="20.1878052"><ele>201.33333333333331</ele><time>2026-05-03T07:43:20.736Z</time></trkpt><trkpt lat="40.0277717" lon="20.1876415"><ele>201.0</ele><time>2026-05-03T07:43:21.737Z</time></trkpt><trkpt lat="40.0279524" lon="20.1874793"><ele>200.66666666666669</ele><time>2026-05-03T07:43:22.737Z</time></trkpt><trkpt lat="40.0281354" lon="20.1873152"><ele>200.33333333333334</ele><time>2026-05-03T07:43:23.736Z</time></trkpt><trkpt lat="40.028315" lon="20.1871464"><ele>200.0</ele><time>2026-05-03T07:43:24.737Z</time></trkpt><trkpt lat="40.0284951" lon="20.186981"><ele>200.0</ele><time>2026-05-03T07:43:25.737Z</time></trkpt><trkpt lat="40.0286748" lon="20.1868155"><ele>200.0</ele><time>2026-05-03T07:43:26.737Z</time></trkpt><trkpt lat="40.0288557" lon="20.1866507"><ele>200.0</ele><time>2026-05-03T07:43:27.737Z</time></trkpt><trkpt lat="40.029036" lon="20.1864861"><ele>200.0</ele><time>2026-05-03T07:43:28.736Z</time></trkpt><trkpt lat="40.0292156" lon="20.1863201"><ele>200.0</ele><time>2026-05-03T07:43:29.737Z</time></trkpt><trkpt lat="40.0293924" lon="20.1861544"><ele>200.0</ele><time>2026-05-03T07:43:30.736Z</time></trkpt><trkpt lat="40.0295718" lon="20.1859885"><ele>200.0</ele><time>2026-05-03T07:43:31.736Z</time></trkpt><trkpt lat="40.0297512" lon="20.1858233"><ele>200.0</ele><time>2026-05-03T07:43:32.736Z</time></trkpt><trkpt lat="40.029931" lon="20.1856574"><ele>200.0</ele><time>2026-05-03T07:43:33.736Z</time></trkpt><trkpt lat="40.0301119" lon="20.1854932"><ele>200.0</ele><time>2026-05-03T07:43:34.737Z</time></trkpt><trkpt lat="40.0302932" lon="20.1853278"><ele>200.0</ele><time>2026-05-03T07:43:35.736Z</time></trkpt><trkpt lat="40.0304733" lon="20.1851668"><ele>200.0</ele><time>2026-05-03T07:43:36.737Z</time></trkpt><trkpt lat="40.0306558" lon="20.1850009"><ele>201.0</ele><time>2026-05-03T07:43:37.737Z</time></trkpt><trkpt lat="40.0308374" lon="20.1848336"><ele>202.0</ele><time>2026-05-03T07:43:38.737Z</time></trkpt><trkpt lat="40.0310196" lon="20.184666"><ele>203.0</ele><time>2026-05-03T07:43:39.736Z</time></trkpt><trkpt lat="40.0312014" lon="20.1844976"><ele>203.0</ele><time>2026-05-03T07:43:40.737Z</time></trkpt><trkpt lat="40.0313824" lon="20.1843309"><ele>203.0</ele><time>2026-05-03T07:43:41.736Z</time></trkpt><trkpt lat="40.0315634" lon="20.1841653"><ele>203.0</ele><time>2026-05-03T07:43:42.736Z</time></trkpt><trkpt lat="40.0317433" lon="20.184003"><ele>202.33333333333334</ele><time>2026-05-03T07:43:43.737Z</time></trkpt><trkpt lat="40.0319221" lon="20.183838"><ele>201.66666666666669</ele><time>2026-05-03T07:43:44.737Z</time></trkpt><trkpt lat="40.032102" lon="20.1836716"><ele>201.0</ele><time>2026-05-03T07:43:45.737Z</time></trkpt><trkpt lat="40.0322812" lon="20.183508"><ele>201.0</ele><time>2026-05-03T07:43:46.737Z</time></trkpt><trkpt lat="40.0324593" lon="20.1833461"><ele>201.0</ele><time>2026-05-03T07:43:47.737Z</time></trkpt><trkpt lat="40.032638" lon="20.1831828"><ele>201.0</ele><time>2026-05-03T07:43:48.737Z</time></trkpt><trkpt lat="40.032815" lon="20.1830155"><ele>201.0</ele><time>2026-05-03T07:43:49.736Z</time></trkpt><trkpt lat="40.0329921" lon="20.1828494"><ele>201.0</ele><time>2026-05-03T07:43:50.737Z</time></trkpt><trkpt lat="40.0331688" lon="20.1826822"><ele>201.0</ele><time>2026-05-03T07:43:51.736Z</time></trkpt><trkpt lat="40.0333445" lon="20.1825141"><ele>201.0</ele><time>2026-05-03T07:43:52.737Z</time></trkpt><trkpt lat="40.0335191" lon="20.1823456"><ele>201.0</ele><time>2026-05-03T07:43:53.737Z</time></trkpt><trkpt lat="40.0336928" lon="20.182177"><ele>201.0</ele><time>2026-05-03T07:43:54.737Z</time></trkpt><trkpt lat="40.0338671" lon="20.182009"><ele>201.0</ele><time>2026-05-03T07:43:55.737Z</time></trkpt><trkpt lat="40.0340413" lon="20.1818414"><ele>201.0</ele><time>2026-05-03T07:43:56.737Z</time></trkpt><trkpt lat="40.034214" lon="20.1816762"><ele>201.0</ele><time>2026-05-03T07:43:57.736Z</time></trkpt><trkpt lat="40.0343882" lon="20.1815102"><ele>200.33333333333331</ele><time>2026-05-03T07:43:58.736Z</time></trkpt><trkpt lat="40.0345605" lon="20.1813416"><ele>199.66666666666666</ele><time>2026-05-03T07:43:59.737Z</time></trkpt><trkpt lat="40.0347326" lon="20.1811722"><ele>199.0</ele><time>2026-05-03T07:44:00.736Z</time></trkpt><trkpt lat="40.0349021" lon="20.1810004"><ele>199.66666666666666</ele><time>2026-05-03T07:44:01.737Z</time></trkpt><trkpt lat="40.0350731" lon="20.180831"><ele>200.33333333333331</ele><time>2026-05-03T07:44:02.736Z</time></trkpt><trkpt lat="40.0352491" lon="20.1806621"><ele>201.0</ele><time>2026-05-03T07:44:03.736Z</time></trkpt><trkpt lat="40.0354208" lon="20.1804939"><ele>201.0</ele><time>2026-05-03T07:44:04.737Z</time></trkpt><trkpt lat="40.0355934" lon="20.1803288"><ele>201.0</ele><time>2026-05-03T07:44:05.737Z</time></trkpt><trkpt lat="40.0357691" lon="20.1801646"><ele>201.0</ele><time>2026-05-03T07:44:06.736Z</time></trkpt><trkpt lat="40.0359422" lon="20.1799991"><ele>201.66666666666669</ele><time>2026-05-03T07:44:07.736Z</time></trkpt><trkpt lat="40.0361096" lon="20.1798358"><ele>202.33333333333334</ele><time>2026-05-03T07:44:08.737Z</time></trkpt><trkpt lat="40.0362792" lon="20.1796695"><ele>203.0</ele><time>2026-05-03T07:44:09.736Z</time></trkpt><trkpt lat="40.0364504" lon="20.1795047"><ele>203.0</ele><time>2026-05-03T07:44:10.737Z</time></trkpt><trkpt lat="40.0366216" lon="20.1793387"><ele>203.0</ele><time>2026-05-03T07:44:11.736Z</time></trkpt><trkpt lat="40.0367916" lon="20.1791722"><ele>203.0</ele><time>2026-05-03T07:44:12.737Z</time></trkpt><trkpt lat="40.0369609" lon="20.1790052"><ele>202.0</ele><time>2026-05-03T07:44:13.736Z</time></trkpt><trkpt lat="40.0371297" lon="20.1788378"><ele>201.0</ele><time>2026-05-03T07:44:14.736Z</time></trkpt><trkpt lat="40.0372992" lon="20.1786715"><ele>200.0</ele><time>2026-05-03T07:44:15.736Z</time></trkpt><trkpt lat="40.0374681" lon="20.1785056"><ele>199.66666666666669</ele><time>2026-05-03T07:44:16.736Z</time></trkpt><trkpt lat="40.0376388" lon="20.1783424"><ele>199.33333333333331</ele><time>2026-05-03T07:44:17.736Z</time></trkpt><trkpt lat="40.0378079" lon="20.1781784"><ele>199.0</ele><time>2026-05-03T07:44:18.737Z</time></trkpt><trkpt lat="40.0379765" lon="20.1780155"><ele>199.0</ele><time>2026-05-03T07:44:19.737Z</time></trkpt><trkpt lat="40.0381474" lon="20.1778524"><ele>199.0</ele><time>2026-05-03T07:44:20.736Z</time></trkpt><trkpt lat="40.0383164" lon="20.1776927"><ele>199.0</ele><time>2026-05-03T07:44:21.736Z</time></trkpt><trkpt lat="40.0384833" lon="20.1775278"><ele>199.0</ele><time>2026-05-03T07:44:22.736Z</time></trkpt><trkpt lat="40.0386549" lon="20.1773762"><ele>199.0</ele><time>2026-05-03T07:44:23.737Z</time></trkpt><trkpt lat="40.0388297" lon="20.1772333"><ele>199.0</ele><time>2026-05-03T07:44:24.736Z</time></trkpt><trkpt lat="40.0390147" lon="20.1770969"><ele>199.66666666666666</ele><time>2026-05-03T07:44:25.737Z</time></trkpt><trkpt lat="40.0391971" lon="20.1769712"><ele>200.33333333333331</ele><time>2026-05-03T07:44:26.736Z</time></trkpt><trkpt lat="40.0393824" lon="20.1768505"><ele>201.0</ele><time>2026-05-03T07:44:27.737Z</time></trkpt><trkpt lat="40.0395739" lon="20.1767265"><ele>201.0</ele><time>2026-05-03T07:44:28.736Z</time></trkpt><trkpt lat="40.0397622" lon="20.1766209"><ele>201.0</ele><time>2026-05-03T07:44:29.737Z</time></trkpt><trkpt lat="40.0399535" lon="20.1765248"><ele>201.0</ele><time>2026-05-03T07:44:30.737Z</time></trkpt><trkpt lat="40.0401444" lon="20.1764349"><ele>200.0</ele><time>2026-05-03T07:44:31.737Z</time></trkpt><trkpt lat="40.0403392" lon="20.1763429"><ele>199.0</ele><time>2026-05-03T07:44:32.737Z</time></trkpt><trkpt lat="40.0405381" lon="20.1762546"><ele>198.0</ele><time>2026-05-03T07:44:33.736Z</time></trkpt><trkpt lat="40.040735" lon="20.1761859"><ele>198.66666666666669</ele><time>2026-05-03T07:44:34.736Z</time></trkpt><trkpt lat="40.0409356" lon="20.1761258"><ele>199.33333333333334</ele><time>2026-05-03T07:44:35.737Z</time></trkpt><trkpt lat="40.0411371" lon="20.1760734"><ele>200.0</ele><time>2026-05-03T07:44:36.737Z</time></trkpt><trkpt lat="40.0413411" lon="20.1760305"><ele>200.0</ele><time>2026-05-03T07:44:37.736Z</time></trkpt><trkpt lat="40.0415444" lon="20.1759961"><ele>200.0</ele><time>2026-05-03T07:44:38.737Z</time></trkpt><trkpt lat="40.0417485" lon="20.175971"><ele>200.0</ele><time>2026-05-03T07:44:39.737Z</time></trkpt><trkpt lat="40.0419511" lon="20.1759445"><ele>200.0</ele><time>2026-05-03T07:44:40.736Z</time></trkpt><trkpt lat="40.0421558" lon="20.175939"><ele>200.0</ele><time>2026-05-03T07:44:41.737Z</time></trkpt><trkpt lat="40.0423607" lon="20.175932"><ele>200.0</ele><time>2026-05-03T07:44:42.737Z</time></trkpt><trkpt lat="40.0425646" lon="20.1759358"><ele>200.33333333333334</ele><time>2026-05-03T07:44:43.736Z</time></trkpt><trkpt lat="40.042769" lon="20.1759425"><ele>200.66666666666669</ele><time>2026-05-03T07:44:44.737Z</time></trkpt><trkpt lat="40.0429655" lon="20.1759682"><ele>201.0</ele><time>2026-05-03T07:44:45.736Z</time></trkpt><trkpt lat="40.0431545" lon="20.1759943"><ele>202.0</ele><time>2026-05-03T07:44:46.736Z</time></trkpt><trkpt lat="40.0433461" lon="20.176019"><ele>203.0</ele><time>2026-05-03T07:44:47.736Z</time></trkpt><trkpt lat="40.0435319" lon="20.1760498"><ele>204.0</ele><time>2026-05-03T07:44:48.737Z</time></trkpt><trkpt lat="40.043714" lon="20.176082"><ele>204.0</ele><time>2026-05-03T07:44:49.737Z</time></trkpt><trkpt lat="40.0438939" lon="20.176111"><ele>204.0</ele><time>2026-05-03T07:44:50.736Z</time></trkpt><trkpt lat="40.044065" lon="20.1761397"><ele>204.0</ele><time>2026-05-03T07:44:51.736Z</time></trkpt><trkpt lat="40.0442266" lon="20.1761698"><ele>205.0</ele><time>2026-05-03T07:44:52.737Z</time></trkpt><trkpt lat="40.044379" lon="20.1761965"><ele>206.0</ele><time>2026-05-03T07:44:53.736Z</time></trkpt><trkpt lat="40.0445261" lon="20.1762191"><ele>207.0</ele><time>2026-05-03T07:44:54.737Z</time></trkpt><trkpt lat="40.044675" lon="20.1762436"><ele>207.0</ele><time>2026-05-03T07:44:55.737Z</time></trkpt><trkpt lat="40.0448277" lon="20.1762684"><ele>207.0</ele><time>2026-05-03T07:44:56.736Z</time></trkpt><trkpt lat="40.0449804" lon="20.1762962"><ele>207.0</ele><time>2026-05-03T07:44:57.737Z</time></trkpt><trkpt lat="40.0451365" lon="20.17633"><ele>207.75</ele><time>2026-05-03T07:44:58.737Z</time></trkpt><trkpt lat="40.0452877" lon="20.1763585"><ele>208.5</ele><time>2026-05-03T07:44:59.736Z</time></trkpt><trkpt lat="40.045429" lon="20.1763858"><ele>209.25</ele><time>2026-05-03T07:45:00.737Z</time></trkpt><trkpt lat="40.0455647" lon="20.176412"><ele>210.0</ele><time>2026-05-03T07:45:01.737Z</time></trkpt><trkpt lat="40.045702" lon="20.1764358"><ele>210.0</ele><time>2026-05-03T07:45:02.737Z</time></trkpt><trkpt lat="40.0458336" lon="20.1764607"><ele>210.0</ele><time>2026-05-03T07:45:03.737Z</time></trkpt><trkpt lat="40.0459768" lon="20.1764844"><ele>210.0</ele><time>2026-05-03T07:45:04.737Z</time></trkpt><trkpt lat="40.0461239" lon="20.1765149"><ele>210.0</ele><time>2026-05-03T07:45:05.736Z</time></trkpt><trkpt lat="40.0462747" lon="20.1765507"><ele>209.0</ele><time>2026-05-03T07:45:06.737Z</time></trkpt><trkpt lat="40.0464324" lon="20.1765811"><ele>208.0</ele><time>2026-05-03T07:45:07.736Z</time></trkpt><trkpt lat="40.0465901" lon="20.1766058"><ele>207.0</ele><time>2026-05-03T07:45:08.737Z</time></trkpt><trkpt lat="40.0467477" lon="20.1766325"><ele>205.66666666666669</ele><time>2026-05-03T07:45:09.736Z</time></trkpt><trkpt lat="40.0470377" lon="20.1766837"><ele>204.33333333333334</ele><time>2026-05-03T07:45:11.737Z</time></trkpt><trkpt lat="40.0471768" lon="20.1767132"><ele>203.0</ele><time>2026-05-03T07:45:12.736Z</time></trkpt><trkpt lat="40.0473212" lon="20.1767354"><ele>203.25</ele><time>2026-05-03T07:45:13.736Z</time></trkpt><trkpt lat="40.0474637" lon="20.1767591"><ele>203.5</ele><time>2026-05-03T07:45:14.737Z</time></trkpt><trkpt lat="40.0476076" lon="20.176782"><ele>203.75</ele><time>2026-05-03T07:45:15.736Z</time></trkpt><trkpt lat="40.0477659" lon="20.1767983"><ele>204.0</ele><time>2026-05-03T07:45:16.737Z</time></trkpt><trkpt lat="40.0479424" lon="20.1768141"><ele>204.0</ele><time>2026-05-03T07:45:17.736Z</time></trkpt><trkpt lat="40.0481378" lon="20.1768438"><ele>204.0</ele><time>2026-05-03T07:45:18.736Z</time></trkpt><trkpt lat="40.0483295" lon="20.1768901"><ele>204.0</ele><time>2026-05-03T07:45:19.737Z</time></trkpt><trkpt lat="40.0485264" lon="20.1769339"><ele>204.0</ele><time>2026-05-03T07:45:20.737Z</time></trkpt><trkpt lat="40.0487173" lon="20.1769689"><ele>204.0</ele><time>2026-05-03T07:45:21.737Z</time></trkpt><trkpt lat="40.0489062" lon="20.1770084"><ele>204.0</ele><time>2026-05-03T07:45:22.736Z</time></trkpt><trkpt lat="40.0490981" lon="20.1770406"><ele>204.33333333333331</ele><time>2026-05-03T07:45:23.736Z</time></trkpt><trkpt lat="40.0492865" lon="20.1770734"><ele>204.66666666666666</ele><time>2026-05-03T07:45:24.736Z</time></trkpt><trkpt lat="40.0494736" lon="20.1771041"><ele>205.0</ele><time>2026-05-03T07:45:25.736Z</time></trkpt><trkpt lat="40.0496577" lon="20.177134"><ele>205.0</ele><time>2026-05-03T07:45:26.737Z</time></trkpt><trkpt lat="40.0498376" lon="20.1771643"><ele>205.0</ele><time>2026-05-03T07:45:27.737Z</time></trkpt><trkpt lat="40.0500206" lon="20.1771963"><ele>205.0</ele><time>2026-05-03T07:45:28.737Z</time></trkpt><trkpt lat="40.0502018" lon="20.1772295"><ele>205.33333333333331</ele><time>2026-05-03T07:45:29.736Z</time></trkpt><trkpt lat="40.0503821" lon="20.1772591"><ele>205.66666666666669</ele><time>2026-05-03T07:45:30.736Z</time></trkpt><trkpt lat="40.0505605" lon="20.1772898"><ele>206.0</ele><time>2026-05-03T07:45:31.737Z</time></trkpt><trkpt lat="40.0507384" lon="20.1773187"><ele>206.0</ele><time>2026-05-03T07:45:32.736Z</time></trkpt><trkpt lat="40.0509152" lon="20.1773521"><ele>206.0</ele><time>2026-05-03T07:45:33.736Z</time></trkpt><trkpt lat="40.0510921" lon="20.1773824"><ele>206.0</ele><time>2026-05-03T07:45:34.737Z</time></trkpt><trkpt lat="40.0512723" lon="20.1774119"><ele>204.66666666666669</ele><time>2026-05-03T07:45:35.736Z</time></trkpt><trkpt lat="40.0514494" lon="20.1774412"><ele>203.33333333333331</ele><time>2026-05-03T07:45:36.737Z</time></trkpt><trkpt lat="40.0516302" lon="20.177456"><ele>202.0</ele><time>2026-05-03T07:45:37.736Z</time></trkpt><trkpt lat="40.0518122" lon="20.1774593"><ele>201.66666666666666</ele><time>2026-05-03T07:45:38.736Z</time></trkpt><trkpt lat="40.0519929" lon="20.1774447"><ele>201.33333333333331</ele><time>2026-05-03T07:45:39.736Z</time></trkpt><trkpt lat="40.052176" lon="20.1774113"><ele>201.0</ele><time>2026-05-03T07:45:40.736Z</time></trkpt><trkpt lat="40.0523605" lon="20.1773556"><ele>202.0</ele><time>2026-05-03T07:45:41.737Z</time></trkpt><trkpt lat="40.0525436" lon="20.1772814"><ele>203.0</ele><time>2026-05-03T07:45:42.737Z</time></trkpt><trkpt lat="40.0527252" lon="20.1771964"><ele>204.0</ele><time>2026-05-03T07:45:43.736Z</time></trkpt><trkpt lat="40.0529057" lon="20.1771081"><ele>204.0</ele><time>2026-05-03T07:45:44.737Z</time></trkpt><trkpt lat="40.053085" lon="20.177019"><ele>204.0</ele><time>2026-05-03T07:45:45.736Z</time></trkpt><trkpt lat="40.0532643" lon="20.1769284"><ele>204.0</ele><time>2026-05-03T07:45:46.736Z</time></trkpt><trkpt lat="40.0534431" lon="20.176838"><ele>203.33333333333331</ele><time>2026-05-03T07:45:47.737Z</time></trkpt><trkpt lat="40.053621" lon="20.1767488"><ele>202.66666666666666</ele><time>2026-05-03T07:45:48.736Z</time></trkpt><trkpt lat="40.0537976" lon="20.1766625"><ele>202.0</ele><time>2026-05-03T07:45:49.736Z</time></trkpt><trkpt lat="40.0539717" lon="20.1765763"><ele>203.0</ele><time>2026-05-03T07:45:50.736Z</time></trkpt><trkpt lat="40.0541422" lon="20.1764886"><ele>204.0</ele><time>2026-05-03T07:45:51.737Z</time></trkpt><trkpt lat="40.0543082" lon="20.1763885"><ele>205.0</ele><time>2026-05-03T07:45:52.737Z</time></trkpt><trkpt lat="40.0544711" lon="20.1762765"><ele>205.0</ele><time>2026-05-03T07:45:53.736Z</time></trkpt><trkpt lat="40.0546217" lon="20.1761496"><ele>205.0</ele><time>2026-05-03T07:45:54.736Z</time></trkpt><trkpt lat="40.054772" lon="20.176013"><ele>205.0</ele><time>2026-05-03T07:45:55.737Z</time></trkpt><trkpt lat="40.0549199" lon="20.1758752"><ele>204.33333333333331</ele><time>2026-05-03T07:45:56.737Z</time></trkpt><trkpt lat="40.0550668" lon="20.1757389"><ele>203.66666666666669</ele><time>2026-05-03T07:45:57.737Z</time></trkpt><trkpt lat="40.0552075" lon="20.1756069"><ele>203.0</ele><time>2026-05-03T07:45:58.737Z</time></trkpt><trkpt lat="40.0553405" lon="20.1754819"><ele>203.0</ele><time>2026-05-03T07:45:59.736Z</time></trkpt><trkpt lat="40.0554681" lon="20.1753593"><ele>203.0</ele><time>2026-05-03T07:46:00.736Z</time></trkpt><trkpt lat="40.0555928" lon="20.1752311"><ele>203.0</ele><time>2026-05-03T07:46:01.736Z</time></trkpt><trkpt lat="40.0557148" lon="20.1750897"><ele>203.33333333333334</ele><time>2026-05-03T07:46:02.736Z</time></trkpt><trkpt lat="40.0558301" lon="20.1749341"><ele>203.66666666666669</ele><time>2026-05-03T07:46:03.736Z</time></trkpt><trkpt lat="40.0559387" lon="20.1747664"><ele>204.0</ele><time>2026-05-03T07:46:04.737Z</time></trkpt><trkpt lat="40.0560443" lon="20.1745891"><ele>204.0</ele><time>2026-05-03T07:46:05.737Z</time></trkpt><trkpt lat="40.0561511" lon="20.1744072"><ele>204.0</ele><time>2026-05-03T07:46:06.737Z</time></trkpt><trkpt lat="40.0562551" lon="20.1742231"><ele>204.0</ele><time>2026-05-03T07:46:07.736Z</time></trkpt><trkpt lat="40.05636" lon="20.1740376"><ele>205.0</ele><time>2026-05-03T07:46:08.737Z</time></trkpt><trkpt lat="40.0564656" lon="20.1738527"><ele>206.0</ele><time>2026-05-03T07:46:09.736Z</time></trkpt><trkpt lat="40.0565716" lon="20.1736676"><ele>207.0</ele><time>2026-05-03T07:46:10.736Z</time></trkpt><trkpt lat="40.056676" lon="20.1734811"><ele>205.0</ele><time>2026-05-03T07:46:11.737Z</time></trkpt><trkpt lat="40.0567797" lon="20.1733069"><ele>203.0</ele><time>2026-05-03T07:46:12.737Z</time></trkpt><trkpt lat="40.0568876" lon="20.1731546"><ele>201.0</ele><time>2026-05-03T07:46:13.736Z</time></trkpt><trkpt lat="40.0570099" lon="20.1730243"><ele>201.0</ele><time>2026-05-03T07:46:14.737Z</time></trkpt><trkpt lat="40.057149" lon="20.1729165"><ele>201.0</ele><time>2026-05-03T07:46:15.737Z</time></trkpt><trkpt lat="40.057299" lon="20.1728403"><ele>201.0</ele><time>2026-05-03T07:46:16.737Z</time></trkpt><trkpt lat="40.0574585" lon="20.172779"><ele>201.0</ele><time>2026-05-03T07:46:17.737Z</time></trkpt><trkpt lat="40.0576233" lon="20.172721"><ele>201.0</ele><time>2026-05-03T07:46:18.737Z</time></trkpt><trkpt lat="40.0577842" lon="20.1726726"><ele>201.0</ele><time>2026-05-03T07:46:19.737Z</time></trkpt><trkpt lat="40.0579466" lon="20.1726282"><ele>201.0</ele><time>2026-05-03T07:46:20.737Z</time></trkpt><trkpt lat="40.0581134" lon="20.1725915"><ele>201.0</ele><time>2026-05-03T07:46:21.737Z</time></trkpt><trkpt lat="40.0582816" lon="20.1725464"><ele>201.0</ele><time>2026-05-03T07:46:22.737Z</time></trkpt><trkpt lat="40.0584527" lon="20.1724999"><ele>200.66666666666669</ele><time>2026-05-03T07:46:23.737Z</time></trkpt><trkpt lat="40.0586269" lon="20.1724564"><ele>200.33333333333334</ele><time>2026-05-03T07:46:24.737Z</time></trkpt><trkpt lat="40.0588007" lon="20.1724086"><ele>200.0</ele><time>2026-05-03T07:46:25.736Z</time></trkpt><trkpt lat="40.058973" lon="20.1723609"><ele>201.0</ele><time>2026-05-03T07:46:26.737Z</time></trkpt><trkpt lat="40.059143" lon="20.1723154"><ele>202.0</ele><time>2026-05-03T07:46:27.737Z</time></trkpt><trkpt lat="40.0593109" lon="20.1722772"><ele>203.0</ele><time>2026-05-03T07:46:28.737Z</time></trkpt><trkpt lat="40.059467" lon="20.1722435"><ele>203.0</ele><time>2026-05-03T07:46:29.737Z</time></trkpt><trkpt lat="40.0596182" lon="20.1722071"><ele>203.0</ele><time>2026-05-03T07:46:30.736Z</time></trkpt><trkpt lat="40.0597584" lon="20.1721961"><ele>203.0</ele><time>2026-05-03T07:46:31.737Z</time></trkpt><trkpt lat="40.059879" lon="20.1722014"><ele>203.0</ele><time>2026-05-03T07:46:32.737Z</time></trkpt><trkpt lat="40.0599962" lon="20.1722429"><ele>202.0</ele><time>2026-05-03T07:46:33.736Z</time></trkpt><trkpt lat="40.0601081" lon="20.1723116"><ele>201.0</ele><time>2026-05-03T07:46:34.736Z</time></trkpt><trkpt lat="40.060217" lon="20.1723912"><ele>200.0</ele><time>2026-05-03T07:46:35.737Z</time></trkpt><trkpt lat="40.0603267" lon="20.172475"><ele>199.0</ele><time>2026-05-03T07:46:36.737Z</time></trkpt><trkpt lat="40.0604363" lon="20.1725605"><ele>199.0</ele><time>2026-05-03T07:46:37.737Z</time></trkpt><trkpt lat="40.0605509" lon="20.1726404"><ele>199.0</ele><time>2026-05-03T07:46:38.737Z</time></trkpt><trkpt lat="40.0606683" lon="20.1727112"><ele>199.0</ele><time>2026-05-03T07:46:39.736Z</time></trkpt><trkpt lat="40.0608002" lon="20.172762"><ele>199.0</ele><time>2026-05-03T07:46:40.737Z</time></trkpt><trkpt lat="40.0609382" lon="20.1727975"><ele>200.5</ele><time>2026-05-03T07:46:41.737Z</time></trkpt><trkpt lat="40.0610828" lon="20.1728182"><ele>202.0</ele><time>2026-05-03T07:46:42.737Z</time></trkpt><trkpt lat="40.0612309" lon="20.1728298"><ele>203.5</ele><time>2026-05-03T07:46:43.737Z</time></trkpt><trkpt lat="40.0613793" lon="20.1728381"><ele>205.0</ele><time>2026-05-03T07:46:44.737Z</time></trkpt><trkpt lat="40.0615214" lon="20.1728473"><ele>206.5</ele><time>2026-05-03T07:46:45.737Z</time></trkpt><trkpt lat="40.0616683" lon="20.1728561"><ele>208.0</ele><time>2026-05-03T07:46:46.737Z</time></trkpt><trkpt lat="40.0618129" lon="20.1728554"><ele>209.5</ele><time>2026-05-03T07:46:47.736Z</time></trkpt><trkpt lat="40.0619547" lon="20.172833"><ele>211.0</ele><time>2026-05-03T07:46:48.737Z</time></trkpt><trkpt lat="40.0620934" lon="20.17279"><ele>211.0</ele><time>2026-05-03T07:46:49.737Z</time></trkpt><trkpt lat="40.0622337" lon="20.1727375"><ele>211.0</ele><time>2026-05-03T07:46:50.736Z</time></trkpt><trkpt lat="40.0623729" lon="20.1726808"><ele>211.0</ele><time>2026-05-03T07:46:51.736Z</time></trkpt><trkpt lat="40.0625096" lon="20.1726202"><ele>211.0</ele><time>2026-05-03T07:46:52.736Z</time></trkpt><trkpt lat="40.0626442" lon="20.172548"><ele>212.75</ele><time>2026-05-03T07:46:53.736Z</time></trkpt><trkpt lat="40.0627718" lon="20.1724611"><ele>214.5</ele><time>2026-05-03T07:46:54.737Z</time></trkpt><trkpt lat="40.0628847" lon="20.1723576"><ele>216.25</ele><time>2026-05-03T07:46:55.736Z</time></trkpt><trkpt lat="40.0629883" lon="20.1722392"><ele>218.0</ele><time>2026-05-03T07:46:56.736Z</time></trkpt><trkpt lat="40.0630832" lon="20.1721065"><ele>218.0</ele><time>2026-05-03T07:46:57.736Z</time></trkpt><trkpt lat="40.0631704" lon="20.1719622"><ele>218.0</ele><time>2026-05-03T07:46:58.736Z</time></trkpt><trkpt lat="40.063258" lon="20.1718114"><ele>218.0</ele><time>2026-05-03T07:46:59.737Z</time></trkpt><trkpt lat="40.0633463" lon="20.1716537"><ele>218.0</ele><time>2026-05-03T07:47:00.736Z</time></trkpt><trkpt lat="40.0634351" lon="20.1714893"><ele>214.0</ele><time>2026-05-03T07:47:01.736Z</time></trkpt><trkpt lat="40.0635251" lon="20.1713204"><ele>210.0</ele><time>2026-05-03T07:47:02.737Z</time></trkpt><trkpt lat="40.0636121" lon="20.1711581"><ele>206.0</ele><time>2026-05-03T07:47:03.737Z</time></trkpt><trkpt lat="40.0636981" lon="20.1709951"><ele>206.0</ele><time>2026-05-03T07:47:04.736Z</time></trkpt><trkpt lat="40.0637868" lon="20.1708268"><ele>206.0</ele><time>2026-05-03T07:47:05.737Z</time></trkpt><trkpt lat="40.0638716" lon="20.1706524"><ele>206.0</ele><time>2026-05-03T07:47:06.737Z</time></trkpt><trkpt lat="40.0639512" lon="20.1704708"><ele>207.33333333333334</ele><time>2026-05-03T07:47:07.736Z</time></trkpt><trkpt lat="40.0640204" lon="20.1702781"><ele>208.66666666666669</ele><time>2026-05-03T07:47:08.737Z</time></trkpt><trkpt lat="40.0640753" lon="20.1700664"><ele>210.0</ele><time>2026-05-03T07:47:09.737Z</time></trkpt><trkpt lat="40.0641207" lon="20.1698521"><ele>206.33333333333331</ele><time>2026-05-03T07:47:10.736Z</time></trkpt><trkpt lat="40.064164" lon="20.1696342"><ele>202.66666666666666</ele><time>2026-05-03T07:47:11.737Z</time></trkpt><trkpt lat="40.0642086" lon="20.169415"><ele>199.0</ele><time>2026-05-03T07:47:12.736Z</time></trkpt><trkpt lat="40.0642528" lon="20.1691981"><ele>198.66666666666666</ele><time>2026-05-03T07:47:13.737Z</time></trkpt><trkpt lat="40.0642973" lon="20.1689822"><ele>198.33333333333331</ele><time>2026-05-03T07:47:14.737Z</time></trkpt><trkpt lat="40.0643425" lon="20.1687694"><ele>198.0</ele><time>2026-05-03T07:47:15.737Z</time></trkpt><trkpt lat="40.0643835" lon="20.1685641"><ele>198.0</ele><time>2026-05-03T07:47:16.737Z</time></trkpt><trkpt lat="40.0644303" lon="20.1683601"><ele>198.0</ele><time>2026-05-03T07:47:17.737Z</time></trkpt><trkpt lat="40.0644726" lon="20.1681719"><ele>198.0</ele><time>2026-05-03T07:47:18.737Z</time></trkpt><trkpt lat="40.0645213" lon="20.1679903"><ele>198.5</ele><time>2026-05-03T07:47:19.737Z</time></trkpt><trkpt lat="40.0645675" lon="20.1678158"><ele>199.0</ele><time>2026-05-03T07:47:20.736Z</time></trkpt><trkpt lat="40.0646199" lon="20.1676398"><ele>199.5</ele><time>2026-05-03T07:47:21.736Z</time></trkpt><trkpt lat="40.0646823" lon="20.1674729"><ele>200.0</ele><time>2026-05-03T07:47:22.737Z</time></trkpt><trkpt lat="40.0647458" lon="20.1672975"><ele>200.33333333333334</ele><time>2026-05-03T07:47:23.737Z</time></trkpt><trkpt lat="40.0648189" lon="20.1671267"><ele>200.66666666666669</ele><time>2026-05-03T07:47:24.737Z</time></trkpt><trkpt lat="40.0648916" lon="20.1669532"><ele>201.0</ele><time>2026-05-03T07:47:25.737Z</time></trkpt><trkpt lat="40.0649568" lon="20.1667609"><ele>199.33333333333331</ele><time>2026-05-03T07:47:26.736Z</time></trkpt><trkpt lat="40.0650345" lon="20.1665817"><ele>197.66666666666666</ele><time>2026-05-03T07:47:27.736Z</time></trkpt><trkpt lat="40.0651111" lon="20.166403"><ele>196.0</ele><time>2026-05-03T07:47:28.737Z</time></trkpt><trkpt lat="40.0651866" lon="20.1662173"><ele>196.0</ele><time>2026-05-03T07:47:29.737Z</time></trkpt><trkpt lat="40.065262" lon="20.1660318"><ele>196.0</ele><time>2026-05-03T07:47:30.736Z</time></trkpt><trkpt lat="40.0653376" lon="20.1658435"><ele>196.0</ele><time>2026-05-03T07:47:31.736Z</time></trkpt><trkpt lat="40.0654147" lon="20.1656555"><ele>196.66666666666666</ele><time>2026-05-03T07:47:32.737Z</time></trkpt><trkpt lat="40.0654946" lon="20.1654697"><ele>197.33333333333331</ele><time>2026-05-03T07:47:33.736Z</time></trkpt><trkpt lat="40.0655806" lon="20.1652881"><ele>198.0</ele><time>2026-05-03T07:47:34.736Z</time></trkpt><trkpt lat="40.0656775" lon="20.165116"><ele>197.66666666666669</ele><time>2026-05-03T07:47:35.737Z</time></trkpt><trkpt lat="40.0657837" lon="20.1649627"><ele>197.33333333333334</ele><time>2026-05-03T07:47:36.736Z</time></trkpt><trkpt lat="40.0658911" lon="20.1648245"><ele>197.0</ele><time>2026-05-03T07:47:37.737Z</time></trkpt><trkpt lat="40.065999" lon="20.1646911"><ele>197.0</ele><time>2026-05-03T07:47:38.737Z</time></trkpt><trkpt lat="40.0661075" lon="20.164556"><ele>197.0</ele><time>2026-05-03T07:47:39.736Z</time></trkpt><trkpt lat="40.0662204" lon="20.1644184"><ele>197.0</ele><time>2026-05-03T07:47:40.737Z</time></trkpt><trkpt lat="40.0663379" lon="20.1642816"><ele>197.0</ele><time>2026-05-03T07:47:41.736Z</time></trkpt><trkpt lat="40.0664597" lon="20.1641466"><ele>197.0</ele><time>2026-05-03T07:47:42.737Z</time></trkpt><trkpt lat="40.06658" lon="20.1640108"><ele>197.0</ele><time>2026-05-03T07:47:43.737Z</time></trkpt><trkpt lat="40.0666975" lon="20.1638746"><ele>197.66666666666669</ele><time>2026-05-03T07:47:44.737Z</time></trkpt><trkpt lat="40.0668158" lon="20.1637325"><ele>198.33333333333331</ele><time>2026-05-03T07:47:45.737Z</time></trkpt><trkpt lat="40.0669347" lon="20.1635889"><ele>199.0</ele><time>2026-05-03T07:47:46.737Z</time></trkpt><trkpt lat="40.0670541" lon="20.1634463"><ele>199.0</ele><time>2026-05-03T07:47:47.736Z</time></trkpt><trkpt lat="40.0671736" lon="20.1633025"><ele>199.0</ele><time>2026-05-03T07:47:48.736Z</time></trkpt><trkpt lat="40.0672958" lon="20.1631627"><ele>199.0</ele><time>2026-05-03T07:47:49.737Z</time></trkpt><trkpt lat="40.0674192" lon="20.1630237"><ele>200.0</ele><time>2026-05-03T07:47:50.736Z</time></trkpt><trkpt lat="40.0675421" lon="20.1628818"><ele>201.0</ele><time>2026-05-03T07:47:51.736Z</time></trkpt><trkpt lat="40.0676666" lon="20.1627386"><ele>202.0</ele><time>2026-05-03T07:47:52.737Z</time></trkpt><trkpt lat="40.0677914" lon="20.1625938"><ele>202.0</ele><time>2026-05-03T07:47:53.736Z</time></trkpt><trkpt lat="40.0679174" lon="20.1624471"><ele>202.0</ele><time>2026-05-03T07:47:54.736Z</time></trkpt><trkpt lat="40.0680431" lon="20.1622967"><ele>202.0</ele><time>2026-05-03T07:47:55.737Z</time></trkpt><trkpt lat="40.0681691" lon="20.1621437"><ele>202.0</ele><time>2026-05-03T07:47:56.737Z</time></trkpt><trkpt lat="40.0682984" lon="20.1619881"><ele>202.0</ele><time>2026-05-03T07:47:57.737Z</time></trkpt><trkpt lat="40.0684283" lon="20.1618322"><ele>202.0</ele><time>2026-05-03T07:47:58.736Z</time></trkpt><trkpt lat="40.0685589" lon="20.1616767"><ele>203.0</ele><time>2026-05-03T07:47:59.737Z</time></trkpt><trkpt lat="40.0686905" lon="20.1615223"><ele>204.0</ele><time>2026-05-03T07:48:00.736Z</time></trkpt><trkpt lat="40.0688222" lon="20.1613672"><ele>205.0</ele><time>2026-05-03T07:48:01.737Z</time></trkpt><trkpt lat="40.0689516" lon="20.1612137"><ele>205.0</ele><time>2026-05-03T07:48:02.737Z</time></trkpt><trkpt lat="40.0690806" lon="20.1610653"><ele>205.0</ele><time>2026-05-03T07:48:03.736Z</time></trkpt><trkpt lat="40.0692026" lon="20.1609171"><ele>205.0</ele><time>2026-05-03T07:48:04.737Z</time></trkpt><trkpt lat="40.0693257" lon="20.1607706"><ele>204.66666666666666</ele><time>2026-05-03T07:48:05.736Z</time></trkpt><trkpt lat="40.0694467" lon="20.160628"><ele>204.33333333333331</ele><time>2026-05-03T07:48:06.736Z</time></trkpt><trkpt lat="40.0695645" lon="20.1604874"><ele>204.0</ele><time>2026-05-03T07:48:07.737Z</time></trkpt><trkpt lat="40.0696781" lon="20.1603545"><ele>204.0</ele><time>2026-05-03T07:48:08.737Z</time></trkpt><trkpt lat="40.0697867" lon="20.160221"><ele>204.0</ele><time>2026-05-03T07:48:09.736Z</time></trkpt><trkpt lat="40.06989" lon="20.1600969"><ele>204.0</ele><time>2026-05-03T07:48:10.736Z</time></trkpt><trkpt lat="40.0699881" lon="20.1599753"><ele>204.0</ele><time>2026-05-03T07:48:11.736Z</time></trkpt><trkpt lat="40.070086" lon="20.1598544"><ele>203.75</ele><time>2026-05-03T07:48:12.736Z</time></trkpt><trkpt lat="40.0701837" lon="20.1597356"><ele>203.5</ele><time>2026-05-03T07:48:13.737Z</time></trkpt><trkpt lat="40.0702801" lon="20.1596188"><ele>203.25</ele><time>2026-05-03T07:48:14.737Z</time></trkpt><trkpt lat="40.0703762" lon="20.1595041"><ele>203.0</ele><time>2026-05-03T07:48:15.736Z</time></trkpt><trkpt lat="40.0704767" lon="20.1593788"><ele>203.0</ele><time>2026-05-03T07:48:16.737Z</time></trkpt><trkpt lat="40.0705683" lon="20.1592618"><ele>203.0</ele><time>2026-05-03T07:48:17.737Z</time></trkpt><trkpt lat="40.0706621" lon="20.1591504"><ele>203.0</ele><time>2026-05-03T07:48:18.737Z</time></trkpt><trkpt lat="40.070754" lon="20.1590415"><ele>203.0</ele><time>2026-05-03T07:48:19.736Z</time></trkpt><trkpt lat="40.0708458" lon="20.1589342"><ele>203.25</ele><time>2026-05-03T07:48:20.736Z</time></trkpt><trkpt lat="40.0709309" lon="20.1588229"><ele>203.5</ele><time>2026-05-03T07:48:21.737Z</time></trkpt><trkpt lat="40.071019" lon="20.158718"><ele>203.75</ele><time>2026-05-03T07:48:22.736Z</time></trkpt><trkpt lat="40.0711044" lon="20.1586135"><ele>204.0</ele><time>2026-05-03T07:48:23.736Z</time></trkpt><trkpt lat="40.0711909" lon="20.1585208"><ele>204.0</ele><time>2026-05-03T07:48:24.737Z</time></trkpt><trkpt lat="40.0712719" lon="20.1584168"><ele>204.0</ele><time>2026-05-03T07:48:25.736Z</time></trkpt><trkpt lat="40.0713564" lon="20.1583212"><ele>204.0</ele><time>2026-05-03T07:48:26.737Z</time></trkpt><trkpt lat="40.0714326" lon="20.1582315"><ele>204.0</ele><time>2026-05-03T07:48:27.737Z</time></trkpt><trkpt lat="40.0715059" lon="20.1581459"><ele>204.0</ele><time>2026-05-03T07:48:28.737Z</time></trkpt><trkpt lat="40.0715788" lon="20.1580632"><ele>204.79999999999998</ele><time>2026-05-03T07:48:29.737Z</time></trkpt><trkpt lat="40.0716537" lon="20.1579803"><ele>205.6</ele><time>2026-05-03T07:48:30.737Z</time></trkpt><trkpt lat="40.0717282" lon="20.1578922"><ele>206.4</ele><time>2026-05-03T07:48:31.737Z</time></trkpt><trkpt lat="40.071805" lon="20.1578042"><ele>207.2</ele><time>2026-05-03T07:48:32.736Z</time></trkpt><trkpt lat="40.0718786" lon="20.157719"><ele>208.0</ele><time>2026-05-03T07:48:33.737Z</time></trkpt><trkpt lat="40.071957" lon="20.1576298"><ele>208.0</ele><time>2026-05-03T07:48:34.736Z</time></trkpt><trkpt lat="40.0720345" lon="20.157536"><ele>208.0</ele><time>2026-05-03T07:48:35.737Z</time></trkpt><trkpt lat="40.0721147" lon="20.1574363"><ele>208.0</ele><time>2026-05-03T07:48:36.736Z</time></trkpt><trkpt lat="40.0721979" lon="20.1573303"><ele>208.0</ele><time>2026-05-03T07:48:37.736Z</time></trkpt><trkpt lat="40.0722879" lon="20.1572274"><ele>208.5</ele><time>2026-05-03T07:48:38.736Z</time></trkpt><trkpt lat="40.072375" lon="20.1571238"><ele>209.0</ele><time>2026-05-03T07:48:39.737Z</time></trkpt><trkpt lat="40.0724627" lon="20.157019"><ele>209.5</ele><time>2026-05-03T07:48:40.736Z</time></trkpt><trkpt lat="40.0725512" lon="20.1569129"><ele>210.0</ele><time>2026-05-03T07:48:41.736Z</time></trkpt><trkpt lat="40.0726402" lon="20.1568081"><ele>210.0</ele><time>2026-05-03T07:48:42.737Z</time></trkpt><trkpt lat="40.0727283" lon="20.1567027"><ele>210.0</ele><time>2026-05-03T07:48:43.736Z</time></trkpt><trkpt lat="40.0728138" lon="20.1566024"><ele>210.0</ele><time>2026-05-03T07:48:44.737Z</time></trkpt><trkpt lat="40.0728962" lon="20.1565066"><ele>210.0</ele><time>2026-05-03T07:48:45.737Z</time></trkpt><trkpt lat="40.0729758" lon="20.1564126"><ele>210.0</ele><time>2026-05-03T07:48:46.736Z</time></trkpt><trkpt lat="40.073053" lon="20.1563223"><ele>210.0</ele><time>2026-05-03T07:48:47.736Z</time></trkpt><trkpt lat="40.0731291" lon="20.1562345"><ele>210.0</ele><time>2026-05-03T07:48:48.737Z</time></trkpt><trkpt lat="40.0732038" lon="20.1561473"><ele>210.0</ele><time>2026-05-03T07:48:49.737Z</time></trkpt><trkpt lat="40.0732784" lon="20.1560579"><ele>210.0</ele><time>2026-05-03T07:48:50.736Z</time></trkpt><trkpt lat="40.0733523" lon="20.1559671"><ele>210.0</ele><time>2026-05-03T07:48:51.737Z</time></trkpt><trkpt lat="40.0734269" lon="20.1558773"><ele>210.0</ele><time>2026-05-03T07:48:52.736Z</time></trkpt><trkpt lat="40.0735029" lon="20.1557869"><ele>210.0</ele><time>2026-05-03T07:48:53.737Z</time></trkpt><trkpt lat="40.0735772" lon="20.1556965"><ele>210.0</ele><time>2026-05-03T07:48:54.737Z</time></trkpt><trkpt lat="40.0736486" lon="20.1556046"><ele>210.0</ele><time>2026-05-03T07:48:55.736Z</time></trkpt><trkpt lat="40.0737198" lon="20.155516"><ele>210.6</ele><time>2026-05-03T07:48:56.737Z</time></trkpt><trkpt lat="40.0737911" lon="20.1554289"><ele>211.2</ele><time>2026-05-03T07:48:57.736Z</time></trkpt><trkpt lat="40.0738677" lon="20.1553406"><ele>211.8</ele><time>2026-05-03T07:48:58.736Z</time></trkpt><trkpt lat="40.0739384" lon="20.1552646"><ele>212.4</ele><time>2026-05-03T07:48:59.736Z</time></trkpt><trkpt lat="40.0740093" lon="20.1551836"><ele>213.0</ele><time>2026-05-03T07:49:00.737Z</time></trkpt><trkpt lat="40.0740781" lon="20.1551016"><ele>212.60000000000002</ele><time>2026-05-03T07:49:01.737Z</time></trkpt><trkpt lat="40.0741439" lon="20.1550204"><ele>212.20000000000002</ele><time>2026-05-03T07:49:02.736Z</time></trkpt><trkpt lat="40.0742138" lon="20.1549382"><ele>211.8</ele><time>2026-05-03T07:49:03.736Z</time></trkpt><trkpt lat="40.0742743" lon="20.1548606"><ele>211.4</ele><time>2026-05-03T07:49:04.737Z</time></trkpt><trkpt lat="40.0743407" lon="20.154771"><ele>211.0</ele><time>2026-05-03T07:49:05.737Z</time></trkpt><trkpt lat="40.0744082" lon="20.1546888"><ele>211.0</ele><time>2026-05-03T07:49:06.736Z</time></trkpt><trkpt lat="40.0744763" lon="20.1546091"><ele>211.0</ele><time>2026-05-03T07:49:07.736Z</time></trkpt><trkpt lat="40.0745451" lon="20.1545288"><ele>211.0</ele><time>2026-05-03T07:49:08.737Z</time></trkpt><trkpt lat="40.0746142" lon="20.1544473"><ele>211.0</ele><time>2026-05-03T07:49:09.737Z</time></trkpt><trkpt lat="40.0746894" lon="20.154354"><ele>211.0</ele><time>2026-05-03T07:49:10.737Z</time></trkpt><trkpt lat="40.0747739" lon="20.1542703"><ele>211.0</ele><time>2026-05-03T07:49:11.737Z</time></trkpt><trkpt lat="40.0748663" lon="20.1541826"><ele>211.0</ele><time>2026-05-03T07:49:12.737Z</time></trkpt><trkpt lat="40.0749564" lon="20.1540994"><ele>211.0</ele><time>2026-05-03T07:49:13.737Z</time></trkpt><trkpt lat="40.0750502" lon="20.1540265"><ele>211.0</ele><time>2026-05-03T07:49:14.736Z</time></trkpt><trkpt lat="40.0751447" lon="20.1539723"><ele>211.0</ele><time>2026-05-03T07:49:15.736Z</time></trkpt><trkpt lat="40.0752436" lon="20.1539248"><ele>213.0</ele><time>2026-05-03T07:49:16.737Z</time></trkpt><trkpt lat="40.0753444" lon="20.1538737"><ele>215.0</ele><time>2026-05-03T07:49:17.737Z</time></trkpt><trkpt lat="40.0754454" lon="20.1538157"><ele>217.00000000000003</ele><time>2026-05-03T07:49:18.737Z</time></trkpt><trkpt lat="40.0755462" lon="20.1537476"><ele>219.0</ele><time>2026-05-03T07:49:19.736Z</time></trkpt><trkpt lat="40.0756404" lon="20.1536688"><ele>221.0</ele><time>2026-05-03T07:49:20.737Z</time></trkpt><trkpt lat="40.0757304" lon="20.1535765"><ele>220.75</ele><time>2026-05-03T07:49:21.736Z</time></trkpt><trkpt lat="40.0758153" lon="20.1534801"><ele>220.5</ele><time>2026-05-03T07:49:22.737Z</time></trkpt><trkpt lat="40.0758979" lon="20.1533822"><ele>220.25</ele><time>2026-05-03T07:49:23.737Z</time></trkpt><trkpt lat="40.0759795" lon="20.1532787"><ele>220.0</ele><time>2026-05-03T07:49:24.737Z</time></trkpt><trkpt lat="40.0760593" lon="20.1531649"><ele>220.0</ele><time>2026-05-03T07:49:25.736Z</time></trkpt><trkpt lat="40.0761388" lon="20.1530616"><ele>220.0</ele><time>2026-05-03T07:49:26.736Z</time></trkpt><trkpt lat="40.0762162" lon="20.1529527"><ele>220.0</ele><time>2026-05-03T07:49:27.736Z</time></trkpt><trkpt lat="40.0762948" lon="20.1528401"><ele>220.0</ele><time>2026-05-03T07:49:28.736Z</time></trkpt><trkpt lat="40.0763758" lon="20.1527284"><ele>220.0</ele><time>2026-05-03T07:49:29.737Z</time></trkpt><trkpt lat="40.0764545" lon="20.152617"><ele>220.0</ele><time>2026-05-03T07:49:30.737Z</time></trkpt><trkpt lat="40.0765354" lon="20.1525053"><ele>220.0</ele><time>2026-05-03T07:49:31.736Z</time></trkpt><trkpt lat="40.0766245" lon="20.1523846"><ele>220.0</ele><time>2026-05-03T07:49:32.737Z</time></trkpt><trkpt lat="40.0767056" lon="20.1522675"><ele>218.0</ele><time>2026-05-03T07:49:33.736Z</time></trkpt><trkpt lat="40.0767843" lon="20.1521359"><ele>216.0</ele><time>2026-05-03T07:49:34.736Z</time></trkpt><trkpt lat="40.0768632" lon="20.1520078"><ele>214.0</ele><time>2026-05-03T07:49:35.737Z</time></trkpt><trkpt lat="40.0769383" lon="20.1518842"><ele>212.0</ele><time>2026-05-03T07:49:36.736Z</time></trkpt><trkpt lat="40.0770032" lon="20.1517715"><ele>212.0</ele><time>2026-05-03T07:49:37.736Z</time></trkpt><trkpt lat="40.0770741" lon="20.1516716"><ele>212.0</ele><time>2026-05-03T07:49:38.736Z</time></trkpt><trkpt lat="40.0771354" lon="20.1515763"><ele>212.0</ele><time>2026-05-03T07:49:39.737Z</time></trkpt><trkpt lat="40.0771821" lon="20.1514803"><ele>212.0</ele><time>2026-05-03T07:49:40.736Z</time></trkpt><trkpt lat="40.0772297" lon="20.1514188"><ele>212.0</ele><time>2026-05-03T07:49:41.736Z</time></trkpt><trkpt lat="40.0772972" lon="20.1513281"><ele>211.00000000000003</ele><time>2026-05-03T07:49:43.736Z</time></trkpt><trkpt lat="40.0773495" lon="20.1512781"><ele>210.0</ele><time>2026-05-03T07:49:46.737Z</time></trkpt><trkpt lat="40.0774104" lon="20.1512334"><ele>209.0</ele><time>2026-05-03T07:49:50.736Z</time></trkpt><trkpt lat="40.0774719" lon="20.1511785"><ele>208.0</ele><time>2026-05-03T07:49:53.736Z</time></trkpt><trkpt lat="40.077557" lon="20.1511205"><ele>207.00000000000003</ele><time>2026-05-03T07:49:55.737Z</time></trkpt><trkpt lat="40.0776232" lon="20.1510676"><ele>206.0</ele><time>2026-05-03T07:49:56.737Z</time></trkpt><trkpt lat="40.0776936" lon="20.1510037"><ele>206.0</ele><time>2026-05-03T07:49:57.737Z</time></trkpt><trkpt lat="40.0777676" lon="20.1509247"><ele>206.0</ele><time>2026-05-03T07:49:58.736Z</time></trkpt><trkpt lat="40.0778542" lon="20.1508387"><ele>206.0</ele><time>2026-05-03T07:49:59.737Z</time></trkpt><trkpt lat="40.0779477" lon="20.1507419"><ele>206.0</ele><time>2026-05-03T07:50:00.736Z</time></trkpt><trkpt lat="40.0780367" lon="20.1506468"><ele>206.0</ele><time>2026-05-03T07:50:01.736Z</time></trkpt><trkpt lat="40.0781232" lon="20.1505538"><ele>205.60000000000002</ele><time>2026-05-03T07:50:02.736Z</time></trkpt><trkpt lat="40.078206" lon="20.1504682"><ele>205.2</ele><time>2026-05-03T07:50:03.737Z</time></trkpt><trkpt lat="40.078284" lon="20.1503823"><ele>204.8</ele><time>2026-05-03T07:50:04.736Z</time></trkpt><trkpt lat="40.0783579" lon="20.1503041"><ele>204.39999999999998</ele><time>2026-05-03T07:50:05.736Z</time></trkpt><trkpt lat="40.0784295" lon="20.1502287"><ele>204.0</ele><time>2026-05-03T07:50:06.736Z</time></trkpt><trkpt lat="40.0784991" lon="20.1501566"><ele>204.0</ele><time>2026-05-03T07:50:07.737Z</time></trkpt><trkpt lat="40.0785675" lon="20.1500839"><ele>204.0</ele><time>2026-05-03T07:50:08.736Z</time></trkpt><trkpt lat="40.0786314" lon="20.1500138"><ele>204.0</ele><time>2026-05-03T07:50:09.736Z</time></trkpt><trkpt lat="40.0786959" lon="20.149951"><ele>204.0</ele><time>2026-05-03T07:50:10.737Z</time></trkpt><trkpt lat="40.0787639" lon="20.1498769"><ele>204.0</ele><time>2026-05-03T07:50:11.736Z</time></trkpt><trkpt lat="40.078836" lon="20.1498041"><ele>204.0</ele><time>2026-05-03T07:50:12.737Z</time></trkpt><trkpt lat="40.0789107" lon="20.1497306"><ele>204.16666666666666</ele><time>2026-05-03T07:50:13.736Z</time></trkpt><trkpt lat="40.0789818" lon="20.149654"><ele>204.33333333333331</ele><time>2026-05-03T07:50:14.737Z</time></trkpt><trkpt lat="40.0790528" lon="20.1495748"><ele>204.5</ele><time>2026-05-03T07:50:15.736Z</time></trkpt><trkpt lat="40.0791158" lon="20.1494984"><ele>204.66666666666666</ele><time>2026-05-03T07:50:16.737Z</time></trkpt><trkpt lat="40.0791818" lon="20.1494332"><ele>204.83333333333331</ele><time>2026-05-03T07:50:17.736Z</time></trkpt><trkpt lat="40.0792444" lon="20.1493584"><ele>205.0</ele><time>2026-05-03T07:50:18.737Z</time></trkpt><trkpt lat="40.0793053" lon="20.1492931"><ele>205.66666666666666</ele><time>2026-05-03T07:50:19.736Z</time></trkpt><trkpt lat="40.0793641" lon="20.1492306"><ele>206.33333333333331</ele><time>2026-05-03T07:50:20.737Z</time></trkpt><trkpt lat="40.0794204" lon="20.1491735"><ele>207.0</ele><time>2026-05-03T07:50:21.737Z</time></trkpt><trkpt lat="40.0794804" lon="20.1491067"><ele>207.66666666666669</ele><time>2026-05-03T07:50:22.737Z</time></trkpt><trkpt lat="40.079555" lon="20.1490325"><ele>208.33333333333334</ele><time>2026-05-03T07:50:23.736Z</time></trkpt><trkpt lat="40.0796441" lon="20.1489527"><ele>209.0</ele><time>2026-05-03T07:50:24.736Z</time></trkpt><trkpt lat="40.0797352" lon="20.1488701"><ele>209.0</ele><time>2026-05-03T07:50:25.737Z</time></trkpt><trkpt lat="40.0798295" lon="20.1487922"><ele>209.0</ele><time>2026-05-03T07:50:26.736Z</time></trkpt><trkpt lat="40.0799241" lon="20.148711"><ele>209.0</ele><time>2026-05-03T07:50:27.737Z</time></trkpt><trkpt lat="40.0800076" lon="20.1486353"><ele>209.0</ele><time>2026-05-03T07:50:28.737Z</time></trkpt><trkpt lat="40.0800874" lon="20.1485638"><ele>209.0</ele><time>2026-05-03T07:50:29.736Z</time></trkpt><trkpt lat="40.0801648" lon="20.1484837"><ele>207.39999999999998</ele><time>2026-05-03T07:50:30.736Z</time></trkpt><trkpt lat="40.0802368" lon="20.1484148"><ele>205.8</ele><time>2026-05-03T07:50:31.737Z</time></trkpt><trkpt lat="40.0803054" lon="20.1483504"><ele>204.2</ele><time>2026-05-03T07:50:32.736Z</time></trkpt><trkpt lat="40.080372" lon="20.1482664"><ele>202.60000000000002</ele><time>2026-05-03T07:50:33.737Z</time></trkpt><trkpt lat="40.0804551" lon="20.1481855"><ele>201.0</ele><time>2026-05-03T07:50:34.737Z</time></trkpt><trkpt lat="40.0805478" lon="20.148097"><ele>200.5</ele><time>2026-05-03T07:50:35.737Z</time></trkpt><trkpt lat="40.0806443" lon="20.1480003"><ele>200.0</ele><time>2026-05-03T07:50:36.737Z</time></trkpt><trkpt lat="40.0807412" lon="20.1479097"><ele>199.5</ele><time>2026-05-03T07:50:37.737Z</time></trkpt><trkpt lat="40.0808315" lon="20.1478125"><ele>199.0</ele><time>2026-05-03T07:50:38.736Z</time></trkpt><trkpt lat="40.080921" lon="20.1477241"><ele>199.0</ele><time>2026-05-03T07:50:39.736Z</time></trkpt><trkpt lat="40.0810085" lon="20.1476392"><ele>199.0</ele><time>2026-05-03T07:50:40.736Z</time></trkpt><trkpt lat="40.0811012" lon="20.147563"><ele>199.0</ele><time>2026-05-03T07:50:41.736Z</time></trkpt><trkpt lat="40.0811792" lon="20.1474843"><ele>199.0</ele><time>2026-05-03T07:50:42.736Z</time></trkpt><trkpt lat="40.081257" lon="20.1474029"><ele>199.0</ele><time>2026-05-03T07:50:43.737Z</time></trkpt><trkpt lat="40.0813405" lon="20.1473214"><ele>199.0</ele><time>2026-05-03T07:50:44.736Z</time></trkpt><trkpt lat="40.0814199" lon="20.1472511"><ele>199.0</ele><time>2026-05-03T07:50:45.737Z</time></trkpt><trkpt lat="40.0815013" lon="20.1471714"><ele>199.0</ele><time>2026-05-03T07:50:46.736Z</time></trkpt><trkpt lat="40.0815808" lon="20.147089"><ele>199.0</ele><time>2026-05-03T07:50:47.737Z</time></trkpt><trkpt lat="40.0816673" lon="20.1470085"><ele>199.0</ele><time>2026-05-03T07:50:48.736Z</time></trkpt><trkpt lat="40.0817531" lon="20.146924"><ele>198.39999999999998</ele><time>2026-05-03T07:50:49.736Z</time></trkpt><trkpt lat="40.0818409" lon="20.1468376"><ele>197.8</ele><time>2026-05-03T07:50:50.737Z</time></trkpt><trkpt lat="40.0819269" lon="20.1467476"><ele>197.2</ele><time>2026-05-03T07:50:51.736Z</time></trkpt><trkpt lat="40.0820171" lon="20.1466676"><ele>196.60000000000002</ele><time>2026-05-03T07:50:52.737Z</time></trkpt><trkpt lat="40.082106" lon="20.1465882"><ele>196.0</ele><time>2026-05-03T07:50:53.736Z</time></trkpt><trkpt lat="40.0821924" lon="20.1465109"><ele>195.20000000000002</ele><time>2026-05-03T07:50:54.736Z</time></trkpt><trkpt lat="40.0822762" lon="20.1464289"><ele>194.4</ele><time>2026-05-03T07:50:55.736Z</time></trkpt><trkpt lat="40.0823584" lon="20.1463398"><ele>193.6</ele><time>2026-05-03T07:50:56.736Z</time></trkpt><trkpt lat="40.0824431" lon="20.146258"><ele>192.8</ele><time>2026-05-03T07:50:57.737Z</time></trkpt><trkpt lat="40.0825303" lon="20.1461778"><ele>192.0</ele><time>2026-05-03T07:50:58.737Z</time></trkpt><trkpt lat="40.0826201" lon="20.1460951"><ele>192.0</ele><time>2026-05-03T07:50:59.736Z</time></trkpt><trkpt lat="40.0827004" lon="20.1460145"><ele>192.0</ele><time>2026-05-03T07:51:00.736Z</time></trkpt><trkpt lat="40.082777" lon="20.1459375"><ele>192.0</ele><time>2026-05-03T07:51:01.737Z</time></trkpt><trkpt lat="40.0828529" lon="20.145861"><ele>192.0</ele><time>2026-05-03T07:51:02.737Z</time></trkpt><trkpt lat="40.0829305" lon="20.1457819"><ele>192.0</ele><time>2026-05-03T07:51:03.737Z</time></trkpt><trkpt lat="40.0830096" lon="20.145698"><ele>192.2</ele><time>2026-05-03T07:51:04.736Z</time></trkpt><trkpt lat="40.0830871" lon="20.1456163"><ele>192.39999999999998</ele><time>2026-05-03T07:51:05.737Z</time></trkpt><trkpt lat="40.0831624" lon="20.1455362"><ele>192.60000000000002</ele><time>2026-05-03T07:51:06.737Z</time></trkpt><trkpt lat="40.083233" lon="20.1454634"><ele>192.8</ele><time>2026-05-03T07:51:07.737Z</time></trkpt><trkpt lat="40.0833023" lon="20.145394"><ele>193.0</ele><time>2026-05-03T07:51:08.737Z</time></trkpt><trkpt lat="40.0833671" lon="20.1453289"><ele>192.49999999999997</ele><time>2026-05-03T07:51:09.737Z</time></trkpt><trkpt lat="40.0834287" lon="20.1452683"><ele>192.0</ele><time>2026-05-03T07:51:10.736Z</time></trkpt><trkpt lat="40.0834859" lon="20.1452127"><ele>191.5</ele><time>2026-05-03T07:51:11.736Z</time></trkpt><trkpt lat="40.0835396" lon="20.1451604"><ele>191.0</ele><time>2026-05-03T07:51:12.737Z</time></trkpt><trkpt lat="40.0835893" lon="20.1451093"><ele>190.5</ele><time>2026-05-03T07:51:13.736Z</time></trkpt><trkpt lat="40.0836785" lon="20.1450216"><ele>190.0</ele><time>2026-05-03T07:51:15.736Z</time></trkpt><trkpt lat="40.0837722" lon="20.1449275"><ele>190.14285714285714</ele><time>2026-05-03T07:51:17.737Z</time></trkpt><trkpt lat="40.0838317" lon="20.1448772"><ele>190.28571428571428</ele><time>2026-05-03T07:51:18.737Z</time></trkpt><trkpt lat="40.0838844" lon="20.1448309"><ele>190.42857142857144</ele><time>2026-05-03T07:51:19.737Z</time></trkpt><trkpt lat="40.083949" lon="20.1447711"><ele>190.57142857142856</ele><time>2026-05-03T07:51:21.736Z</time></trkpt><trkpt lat="40.0840117" lon="20.1447174"><ele>190.7142857142857</ele><time>2026-05-03T07:51:24.736Z</time></trkpt><trkpt lat="40.084078" lon="20.1446762"><ele>190.85714285714286</ele><time>2026-05-03T07:51:26.736Z</time></trkpt><trkpt lat="40.0841562" lon="20.1446454"><ele>191.0</ele><time>2026-05-03T07:51:28.736Z</time></trkpt><trkpt lat="40.0842181" lon="20.1445592"><ele>191.16666666666666</ele><time>2026-05-03T07:51:30.737Z</time></trkpt><trkpt lat="40.0842875" lon="20.1444536"><ele>191.33333333333331</ele><time>2026-05-03T07:51:32.737Z</time></trkpt><trkpt lat="40.0843724" lon="20.1443456"><ele>191.5</ele><time>2026-05-03T07:51:34.737Z</time></trkpt><trkpt lat="40.0844301" lon="20.1442954"><ele>191.66666666666666</ele><time>2026-05-03T07:51:35.736Z</time></trkpt><trkpt lat="40.0844904" lon="20.1442425"><ele>191.83333333333334</ele><time>2026-05-03T07:51:36.737Z</time></trkpt><trkpt lat="40.0845554" lon="20.1441784"><ele>192.0</ele><time>2026-05-03T07:51:37.736Z</time></trkpt><trkpt lat="40.0846243" lon="20.1440989"><ele>192.0</ele><time>2026-05-03T07:51:38.736Z</time></trkpt><trkpt lat="40.0846924" lon="20.1440245"><ele>192.0</ele><time>2026-05-03T07:51:39.736Z</time></trkpt><trkpt lat="40.0847651" lon="20.1439528"><ele>192.0</ele><time>2026-05-03T07:51:40.736Z</time></trkpt><trkpt lat="40.0848419" lon="20.1438818"><ele>192.0</ele><time>2026-05-03T07:51:41.736Z</time></trkpt><trkpt lat="40.0849179" lon="20.1438071"><ele>192.0</ele><time>2026-05-03T07:51:42.736Z</time></trkpt><trkpt lat="40.0849969" lon="20.1437226"><ele>192.0</ele><time>2026-05-03T07:51:43.737Z</time></trkpt><trkpt lat="40.0850958" lon="20.1436264"><ele>192.0</ele><time>2026-05-03T07:51:44.736Z</time></trkpt><trkpt lat="40.0852152" lon="20.1435399"><ele>192.0</ele><time>2026-05-03T07:51:45.737Z</time></trkpt><trkpt lat="40.0853499" lon="20.1434681"><ele>192.0</ele><time>2026-05-03T07:51:46.737Z</time></trkpt><trkpt lat="40.0854961" lon="20.1434116"><ele>192.0</ele><time>2026-05-03T07:51:47.736Z</time></trkpt><trkpt lat="40.0856457" lon="20.1433551"><ele>192.0</ele><time>2026-05-03T07:51:48.736Z</time></trkpt><trkpt lat="40.0857906" lon="20.1432885"><ele>192.0</ele><time>2026-05-03T07:51:49.737Z</time></trkpt><trkpt lat="40.0859303" lon="20.1432144"><ele>194.33333333333331</ele><time>2026-05-03T07:51:50.736Z</time></trkpt><trkpt lat="40.086066" lon="20.1431276"><ele>196.66666666666666</ele><time>2026-05-03T07:51:51.736Z</time></trkpt><trkpt lat="40.0861961" lon="20.1430397"><ele>199.0</ele><time>2026-05-03T07:51:52.736Z</time></trkpt><trkpt lat="40.0863273" lon="20.1429272"><ele>199.0</ele><time>2026-05-03T07:51:53.737Z</time></trkpt><trkpt lat="40.0864447" lon="20.1428093"><ele>199.0</ele><time>2026-05-03T07:51:54.736Z</time></trkpt><trkpt lat="40.0865567" lon="20.1426764"><ele>199.0</ele><time>2026-05-03T07:51:55.737Z</time></trkpt><trkpt lat="40.0866626" lon="20.142533"><ele>196.66666666666666</ele><time>2026-05-03T07:51:56.736Z</time></trkpt><trkpt lat="40.0867684" lon="20.142384"><ele>194.33333333333331</ele><time>2026-05-03T07:51:57.737Z</time></trkpt><trkpt lat="40.0868752" lon="20.1422398"><ele>192.0</ele><time>2026-05-03T07:51:58.737Z</time></trkpt><trkpt lat="40.0869825" lon="20.1420909"><ele>192.0</ele><time>2026-05-03T07:51:59.737Z</time></trkpt><trkpt lat="40.0870897" lon="20.1419456"><ele>192.0</ele><time>2026-05-03T07:52:00.736Z</time></trkpt><trkpt lat="40.0871956" lon="20.1417974"><ele>192.0</ele><time>2026-05-03T07:52:01.736Z</time></trkpt><trkpt lat="40.087302" lon="20.1416469"><ele>192.66666666666669</ele><time>2026-05-03T07:52:02.736Z</time></trkpt><trkpt lat="40.0874095" lon="20.1414958"><ele>193.33333333333334</ele><time>2026-05-03T07:52:03.736Z</time></trkpt><trkpt lat="40.0875165" lon="20.1413433"><ele>194.0</ele><time>2026-05-03T07:52:04.736Z</time></trkpt><trkpt lat="40.0876234" lon="20.141192"><ele>194.0</ele><time>2026-05-03T07:52:05.737Z</time></trkpt><trkpt lat="40.087729" lon="20.1410415"><ele>194.0</ele><time>2026-05-03T07:52:06.737Z</time></trkpt><trkpt lat="40.0878329" lon="20.1408934"><ele>194.0</ele><time>2026-05-03T07:52:07.736Z</time></trkpt><trkpt lat="40.0879327" lon="20.1407526"><ele>194.25</ele><time>2026-05-03T07:52:08.737Z</time></trkpt><trkpt lat="40.0880277" lon="20.1406208"><ele>194.5</ele><time>2026-05-03T07:52:09.736Z</time></trkpt><trkpt lat="40.0881191" lon="20.1404921"><ele>194.75</ele><time>2026-05-03T07:52:10.737Z</time></trkpt><trkpt lat="40.0882078" lon="20.1403648"><ele>195.0</ele><time>2026-05-03T07:52:11.736Z</time></trkpt><trkpt lat="40.0882955" lon="20.1402336"><ele>194.0</ele><time>2026-05-03T07:52:12.736Z</time></trkpt><trkpt lat="40.0883834" lon="20.1400898"><ele>193.0</ele><time>2026-05-03T07:52:13.736Z</time></trkpt><trkpt lat="40.0884836" lon="20.1399371"><ele>192.0</ele><time>2026-05-03T07:52:14.736Z</time></trkpt><trkpt lat="40.0885924" lon="20.1397919"><ele>192.0</ele><time>2026-05-03T07:52:15.736Z</time></trkpt><trkpt lat="40.0887488" lon="20.139616"><ele>192.0</ele><time>2026-05-03T07:52:16.736Z</time></trkpt><trkpt lat="40.0888948" lon="20.139457"><ele>192.0</ele><time>2026-05-03T07:52:17.737Z</time></trkpt><trkpt lat="40.0890412" lon="20.1392999"><ele>191.66666666666666</ele><time>2026-05-03T07:52:18.736Z</time></trkpt><trkpt lat="40.0891945" lon="20.1391382"><ele>191.33333333333331</ele><time>2026-05-03T07:52:19.737Z</time></trkpt><trkpt lat="40.0893428" lon="20.1389846"><ele>191.0</ele><time>2026-05-03T07:52:20.737Z</time></trkpt><trkpt lat="40.0894891" lon="20.1388357"><ele>191.0</ele><time>2026-05-03T07:52:21.736Z</time></trkpt><trkpt lat="40.089631" lon="20.1386898"><ele>191.0</ele><time>2026-05-03T07:52:22.736Z</time></trkpt><trkpt lat="40.0897687" lon="20.1385497"><ele>191.0</ele><time>2026-05-03T07:52:23.736Z</time></trkpt><trkpt lat="40.0899004" lon="20.1384141"><ele>191.33333333333331</ele><time>2026-05-03T07:52:24.737Z</time></trkpt><trkpt lat="40.0900281" lon="20.1382835"><ele>191.66666666666666</ele><time>2026-05-03T07:52:25.736Z</time></trkpt><trkpt lat="40.0901515" lon="20.1381603"><ele>192.0</ele><time>2026-05-03T07:52:26.737Z</time></trkpt><trkpt lat="40.0902722" lon="20.1380425"><ele>192.0</ele><time>2026-05-03T07:52:27.737Z</time></trkpt><trkpt lat="40.0903934" lon="20.1379239"><ele>192.0</ele><time>2026-05-03T07:52:28.736Z</time></trkpt><trkpt lat="40.0905172" lon="20.1378047"><ele>192.0</ele><time>2026-05-03T07:52:29.736Z</time></trkpt><trkpt lat="40.0906471" lon="20.1376885"><ele>191.66666666666666</ele><time>2026-05-03T07:52:30.736Z</time></trkpt><trkpt lat="40.0907778" lon="20.1375801"><ele>191.33333333333331</ele><time>2026-05-03T07:52:31.736Z</time></trkpt><trkpt lat="40.090911" lon="20.1374772"><ele>191.0</ele><time>2026-05-03T07:52:32.736Z</time></trkpt><trkpt lat="40.0910461" lon="20.1373895"><ele>193.33333333333331</ele><time>2026-05-03T07:52:33.737Z</time></trkpt><trkpt lat="40.0911852" lon="20.1372937"><ele>195.66666666666666</ele><time>2026-05-03T07:52:34.736Z</time></trkpt><trkpt lat="40.0913217" lon="20.1372011"><ele>198.0</ele><time>2026-05-03T07:52:35.736Z</time></trkpt><trkpt lat="40.0914632" lon="20.137111"><ele>197.66666666666669</ele><time>2026-05-03T07:52:36.736Z</time></trkpt><trkpt lat="40.0916068" lon="20.1370242"><ele>197.33333333333334</ele><time>2026-05-03T07:52:37.737Z</time></trkpt><trkpt lat="40.09175" lon="20.136928"><ele>197.0</ele><time>2026-05-03T07:52:38.736Z</time></trkpt><trkpt lat="40.0918948" lon="20.1368272"><ele>197.0</ele><time>2026-05-03T07:52:39.737Z</time></trkpt><trkpt lat="40.0920383" lon="20.1367137"><ele>197.0</ele><time>2026-05-03T07:52:40.737Z</time></trkpt><trkpt lat="40.0921848" lon="20.1366123"><ele>197.0</ele><time>2026-05-03T07:52:41.737Z</time></trkpt><trkpt lat="40.0923317" lon="20.1365133"><ele>198.33333333333334</ele><time>2026-05-03T07:52:42.737Z</time></trkpt><trkpt lat="40.0924786" lon="20.1364145"><ele>199.66666666666669</ele><time>2026-05-03T07:52:43.737Z</time></trkpt><trkpt lat="40.0926248" lon="20.1363157"><ele>201.0</ele><time>2026-05-03T07:52:44.737Z</time></trkpt><trkpt lat="40.0927714" lon="20.1362151"><ele>201.0</ele><time>2026-05-03T07:52:45.737Z</time></trkpt><trkpt lat="40.0929173" lon="20.1361136"><ele>201.0</ele><time>2026-05-03T07:52:46.736Z</time></trkpt><trkpt lat="40.0930695" lon="20.136019"><ele>201.0</ele><time>2026-05-03T07:52:47.737Z</time></trkpt><trkpt lat="40.093215" lon="20.1359149"><ele>200.66666666666669</ele><time>2026-05-03T07:52:48.736Z</time></trkpt><trkpt lat="40.0933593" lon="20.1358077"><ele>200.33333333333334</ele><time>2026-05-03T07:52:49.736Z</time></trkpt><trkpt lat="40.0935033" lon="20.1356966"><ele>200.0</ele><time>2026-05-03T07:52:50.736Z</time></trkpt><trkpt lat="40.0936468" lon="20.1355839"><ele>201.0</ele><time>2026-05-03T07:52:51.737Z</time></trkpt><trkpt lat="40.093789" lon="20.1354637"><ele>202.0</ele><time>2026-05-03T07:52:52.737Z</time></trkpt><trkpt lat="40.0939284" lon="20.135337"><ele>203.0</ele><time>2026-05-03T07:52:53.737Z</time></trkpt><trkpt lat="40.0940683" lon="20.1352115"><ele>202.33333333333334</ele><time>2026-05-03T07:52:54.736Z</time></trkpt><trkpt lat="40.0942176" lon="20.1350802"><ele>201.66666666666669</ele><time>2026-05-03T07:52:55.737Z</time></trkpt><trkpt lat="40.0943564" lon="20.1349352"><ele>201.0</ele><time>2026-05-03T07:52:56.737Z</time></trkpt><trkpt lat="40.0944909" lon="20.1347934"><ele>201.0</ele><time>2026-05-03T07:52:57.736Z</time></trkpt><trkpt lat="40.0946331" lon="20.1346454"><ele>201.0</ele><time>2026-05-03T07:52:58.737Z</time></trkpt><trkpt lat="40.0947778" lon="20.1345"><ele>201.0</ele><time>2026-05-03T07:52:59.736Z</time></trkpt><trkpt lat="40.0949175" lon="20.1343558"><ele>201.0</ele><time>2026-05-03T07:53:00.737Z</time></trkpt><trkpt lat="40.0950614" lon="20.1342069"><ele>201.0</ele><time>2026-05-03T07:53:01.737Z</time></trkpt><trkpt lat="40.0952018" lon="20.1340547"><ele>201.0</ele><time>2026-05-03T07:53:02.737Z</time></trkpt><trkpt lat="40.0953453" lon="20.1339076"><ele>201.0</ele><time>2026-05-03T07:53:03.737Z</time></trkpt><trkpt lat="40.0954906" lon="20.133761"><ele>201.0</ele><time>2026-05-03T07:53:04.736Z</time></trkpt><trkpt lat="40.0956353" lon="20.1336144"><ele>201.0</ele><time>2026-05-03T07:53:05.737Z</time></trkpt><trkpt lat="40.0957809" lon="20.1334678"><ele>199.33333333333331</ele><time>2026-05-03T07:53:06.737Z</time></trkpt><trkpt lat="40.0959259" lon="20.1333196"><ele>197.66666666666666</ele><time>2026-05-03T07:53:07.737Z</time></trkpt><trkpt lat="40.0960702" lon="20.13317"><ele>196.0</ele><time>2026-05-03T07:53:08.737Z</time></trkpt><trkpt lat="40.0962148" lon="20.1330195"><ele>196.0</ele><time>2026-05-03T07:53:09.737Z</time></trkpt><trkpt lat="40.0963591" lon="20.1328696"><ele>196.0</ele><time>2026-05-03T07:53:10.737Z</time></trkpt><trkpt lat="40.0965033" lon="20.132717"><ele>196.0</ele><time>2026-05-03T07:53:11.737Z</time></trkpt><trkpt lat="40.0966447" lon="20.132566"><ele>195.33333333333331</ele><time>2026-05-03T07:53:12.737Z</time></trkpt><trkpt lat="40.096777" lon="20.1324243"><ele>194.66666666666669</ele><time>2026-05-03T07:53:13.737Z</time></trkpt><trkpt lat="40.0968991" lon="20.1322901"><ele>194.0</ele><time>2026-05-03T07:53:14.737Z</time></trkpt><trkpt lat="40.097028" lon="20.1321571"><ele>194.0</ele><time>2026-05-03T07:53:15.737Z</time></trkpt><trkpt lat="40.0971578" lon="20.1320255"><ele>194.0</ele><time>2026-05-03T07:53:16.736Z</time></trkpt><trkpt lat="40.0972868" lon="20.1318937"><ele>194.0</ele><time>2026-05-03T07:53:17.736Z</time></trkpt><trkpt lat="40.0974161" lon="20.131764"><ele>192.66666666666669</ele><time>2026-05-03T07:53:18.736Z</time></trkpt><trkpt lat="40.0975425" lon="20.1316393"><ele>191.33333333333334</ele><time>2026-05-03T07:53:19.736Z</time></trkpt><trkpt lat="40.0976664" lon="20.1315169"><ele>190.0</ele><time>2026-05-03T07:53:20.737Z</time></trkpt><trkpt lat="40.0977888" lon="20.1313924"><ele>190.0</ele><time>2026-05-03T07:53:21.736Z</time></trkpt><trkpt lat="40.0979098" lon="20.1312671"><ele>190.0</ele><time>2026-05-03T07:53:22.736Z</time></trkpt><trkpt lat="40.0980296" lon="20.1311434"><ele>190.0</ele><time>2026-05-03T07:53:23.737Z</time></trkpt><trkpt lat="40.0981492" lon="20.1310197"><ele>189.33333333333334</ele><time>2026-05-03T07:53:24.737Z</time></trkpt><trkpt lat="40.0982579" lon="20.1308651"><ele>188.66666666666666</ele><time>2026-05-03T07:53:25.737Z</time></trkpt><trkpt lat="40.0983748" lon="20.1307431"><ele>188.0</ele><time>2026-05-03T07:53:26.736Z</time></trkpt><trkpt lat="40.09849" lon="20.1306295"><ele>188.0</ele><time>2026-05-03T07:53:27.736Z</time></trkpt><trkpt lat="40.0986041" lon="20.1305095"><ele>188.0</ele><time>2026-05-03T07:53:28.737Z</time></trkpt><trkpt lat="40.0987184" lon="20.1303915"><ele>188.0</ele><time>2026-05-03T07:53:29.737Z</time></trkpt><trkpt lat="40.0988333" lon="20.1302763"><ele>188.0</ele><time>2026-05-03T07:53:30.736Z</time></trkpt><trkpt lat="40.0989523" lon="20.1301652"><ele>188.0</ele><time>2026-05-03T07:53:31.737Z</time></trkpt><trkpt lat="40.0990655" lon="20.1300527"><ele>188.0</ele><time>2026-05-03T07:53:32.737Z</time></trkpt><trkpt lat="40.0991762" lon="20.1299388"><ele>188.0</ele><time>2026-05-03T07:53:33.737Z</time></trkpt><trkpt lat="40.0992854" lon="20.1298232"><ele>188.0</ele><time>2026-05-03T07:53:34.737Z</time></trkpt><trkpt lat="40.0994" lon="20.1297146"><ele>188.0</ele><time>2026-05-03T07:53:35.737Z</time></trkpt><trkpt lat="40.0995116" lon="20.1296024"><ele>188.0</ele><time>2026-05-03T07:53:36.737Z</time></trkpt><trkpt lat="40.0996221" lon="20.1294888"><ele>188.0</ele><time>2026-05-03T07:53:37.737Z</time></trkpt><trkpt lat="40.0997318" lon="20.1293761"><ele>188.0</ele><time>2026-05-03T07:53:38.736Z</time></trkpt><trkpt lat="40.0998418" lon="20.1292629"><ele>188.5</ele><time>2026-05-03T07:53:39.736Z</time></trkpt><trkpt lat="40.0999516" lon="20.1291507"><ele>189.0</ele><time>2026-05-03T07:53:40.736Z</time></trkpt><trkpt lat="40.1000606" lon="20.1290366"><ele>189.5</ele><time>2026-05-03T07:53:41.736Z</time></trkpt><trkpt lat="40.1001693" lon="20.1289208"><ele>190.0</ele><time>2026-05-03T07:53:42.737Z</time></trkpt><trkpt lat="40.1002791" lon="20.1288057"><ele>191.0</ele><time>2026-05-03T07:53:43.737Z</time></trkpt><trkpt lat="40.1003905" lon="20.128691"><ele>192.0</ele><time>2026-05-03T07:53:44.736Z</time></trkpt><trkpt lat="40.1005033" lon="20.1285762"><ele>193.0</ele><time>2026-05-03T07:53:45.736Z</time></trkpt><trkpt lat="40.1006192" lon="20.1284595"><ele>194.0</ele><time>2026-05-03T07:53:46.737Z</time></trkpt><trkpt lat="40.1007395" lon="20.1283427"><ele>195.0</ele><time>2026-05-03T07:53:47.736Z</time></trkpt><trkpt lat="40.1008679" lon="20.1282238"><ele>196.0</ele><time>2026-05-03T07:53:48.736Z</time></trkpt><trkpt lat="40.1010013" lon="20.1281002"><ele>197.0</ele><time>2026-05-03T07:53:49.737Z</time></trkpt><trkpt lat="40.1011339" lon="20.1279713"><ele>197.0</ele><time>2026-05-03T07:53:50.736Z</time></trkpt><trkpt lat="40.1012605" lon="20.1278424"><ele>197.0</ele><time>2026-05-03T07:53:51.736Z</time></trkpt><trkpt lat="40.1013838" lon="20.127715"><ele>197.0</ele><time>2026-05-03T07:53:52.736Z</time></trkpt><trkpt lat="40.1015123" lon="20.1275745"><ele>194.0</ele><time>2026-05-03T07:53:53.737Z</time></trkpt><trkpt lat="40.1016375" lon="20.1274463"><ele>191.0</ele><time>2026-05-03T07:53:54.737Z</time></trkpt><trkpt lat="40.1017617" lon="20.1273163"><ele>188.0</ele><time>2026-05-03T07:53:55.736Z</time></trkpt><trkpt lat="40.1018785" lon="20.1271702"><ele>187.66666666666666</ele><time>2026-05-03T07:53:56.736Z</time></trkpt><trkpt lat="40.1019881" lon="20.127009"><ele>187.33333333333334</ele><time>2026-05-03T07:53:57.736Z</time></trkpt><trkpt lat="40.1020908" lon="20.1268338"><ele>187.0</ele><time>2026-05-03T07:53:58.737Z</time></trkpt><trkpt lat="40.1021888" lon="20.1266511"><ele>187.0</ele><time>2026-05-03T07:53:59.736Z</time></trkpt><trkpt lat="40.1022836" lon="20.1264611"><ele>187.0</ele><time>2026-05-03T07:54:00.736Z</time></trkpt><trkpt lat="40.1023731" lon="20.1262676"><ele>187.0</ele><time>2026-05-03T07:54:01.736Z</time></trkpt><trkpt lat="40.102459" lon="20.1260705"><ele>186.66666666666669</ele><time>2026-05-03T07:54:02.737Z</time></trkpt><trkpt lat="40.1025415" lon="20.1258692"><ele>186.33333333333334</ele><time>2026-05-03T07:54:03.737Z</time></trkpt><trkpt lat="40.1026224" lon="20.1256651"><ele>186.0</ele><time>2026-05-03T07:54:04.736Z</time></trkpt><trkpt lat="40.1027043" lon="20.1254618"><ele>186.66666666666666</ele><time>2026-05-03T07:54:05.736Z</time></trkpt><trkpt lat="40.1027887" lon="20.1252608"><ele>187.33333333333331</ele><time>2026-05-03T07:54:06.737Z</time></trkpt><trkpt lat="40.1028781" lon="20.1250637"><ele>188.0</ele><time>2026-05-03T07:54:07.737Z</time></trkpt><trkpt lat="40.1029803" lon="20.1248743"><ele>188.0</ele><time>2026-05-03T07:54:08.737Z</time></trkpt><trkpt lat="40.1030922" lon="20.1246945"><ele>188.0</ele><time>2026-05-03T07:54:09.737Z</time></trkpt><trkpt lat="40.1032115" lon="20.1245252"><ele>188.0</ele><time>2026-05-03T07:54:10.736Z</time></trkpt><trkpt lat="40.1033357" lon="20.1243588"><ele>188.0</ele><time>2026-05-03T07:54:11.737Z</time></trkpt><trkpt lat="40.1034698" lon="20.1242101"><ele>188.0</ele><time>2026-05-03T07:54:12.737Z</time></trkpt><trkpt lat="40.1036132" lon="20.1240753"><ele>188.0</ele><time>2026-05-03T07:54:13.737Z</time></trkpt><trkpt lat="40.1037601" lon="20.1239529"><ele>188.0</ele><time>2026-05-03T07:54:14.736Z</time></trkpt><trkpt lat="40.1039148" lon="20.1238427"><ele>188.0</ele><time>2026-05-03T07:54:15.736Z</time></trkpt><trkpt lat="40.1040763" lon="20.1237446"><ele>188.0</ele><time>2026-05-03T07:54:16.736Z</time></trkpt><trkpt lat="40.1042427" lon="20.1236592"><ele>188.0</ele><time>2026-05-03T07:54:17.737Z</time></trkpt><trkpt lat="40.1044134" lon="20.1235839"><ele>188.0</ele><time>2026-05-03T07:54:18.736Z</time></trkpt><trkpt lat="40.1045862" lon="20.1235123"><ele>188.0</ele><time>2026-05-03T07:54:19.736Z</time></trkpt><trkpt lat="40.1047613" lon="20.123442"><ele>188.0</ele><time>2026-05-03T07:54:20.737Z</time></trkpt><trkpt lat="40.1049373" lon="20.1233729"><ele>188.0</ele><time>2026-05-03T07:54:21.735Z</time></trkpt><trkpt lat="40.105114" lon="20.123305"><ele>188.0</ele><time>2026-05-03T07:54:22.737Z</time></trkpt><trkpt lat="40.1052904" lon="20.1232374"><ele>187.66666666666666</ele><time>2026-05-03T07:54:23.736Z</time></trkpt><trkpt lat="40.1054695" lon="20.1231705"><ele>187.33333333333334</ele><time>2026-05-03T07:54:24.736Z</time></trkpt><trkpt lat="40.1056489" lon="20.1231049"><ele>187.0</ele><time>2026-05-03T07:54:25.736Z</time></trkpt><trkpt lat="40.105828" lon="20.1230394"><ele>187.0</ele><time>2026-05-03T07:54:26.737Z</time></trkpt><trkpt lat="40.1060077" lon="20.1229736"><ele>187.0</ele><time>2026-05-03T07:54:27.736Z</time></trkpt><trkpt lat="40.1061879" lon="20.1229055"><ele>187.0</ele><time>2026-05-03T07:54:28.737Z</time></trkpt><trkpt lat="40.1063683" lon="20.1228366"><ele>187.0</ele><time>2026-05-03T07:54:29.736Z</time></trkpt><trkpt lat="40.1065461" lon="20.1227759"><ele>187.0</ele><time>2026-05-03T07:54:30.736Z</time></trkpt><trkpt lat="40.1067243" lon="20.122708"><ele>187.0</ele><time>2026-05-03T07:54:31.736Z</time></trkpt><trkpt lat="40.1068997" lon="20.1226425"><ele>187.33333333333334</ele><time>2026-05-03T07:54:32.736Z</time></trkpt><trkpt lat="40.107072" lon="20.1225807"><ele>187.66666666666666</ele><time>2026-05-03T07:54:33.736Z</time></trkpt><trkpt lat="40.1072425" lon="20.1225254"><ele>188.0</ele><time>2026-05-03T07:54:34.737Z</time></trkpt><trkpt lat="40.1074137" lon="20.1224886"><ele>188.0</ele><time>2026-05-03T07:54:35.736Z</time></trkpt><trkpt lat="40.1075864" lon="20.1224774"><ele>188.0</ele><time>2026-05-03T07:54:36.737Z</time></trkpt><trkpt lat="40.1077573" lon="20.1224852"><ele>188.0</ele><time>2026-05-03T07:54:37.736Z</time></trkpt><trkpt lat="40.1079276" lon="20.1225032"><ele>188.0</ele><time>2026-05-03T07:54:38.736Z</time></trkpt><trkpt lat="40.1080945" lon="20.1225237"><ele>188.0</ele><time>2026-05-03T07:54:39.737Z</time></trkpt><trkpt lat="40.1082658" lon="20.1225354"><ele>188.0</ele><time>2026-05-03T07:54:40.737Z</time></trkpt><trkpt lat="40.1084283" lon="20.1225294"><ele>187.33333333333331</ele><time>2026-05-03T07:54:41.737Z</time></trkpt><trkpt lat="40.1085922" lon="20.1224955"><ele>186.66666666666666</ele><time>2026-05-03T07:54:42.737Z</time></trkpt><trkpt lat="40.1087516" lon="20.1224342"><ele>186.0</ele><time>2026-05-03T07:54:43.737Z</time></trkpt><trkpt lat="40.1089079" lon="20.1223549"><ele>186.66666666666666</ele><time>2026-05-03T07:54:44.736Z</time></trkpt><trkpt lat="40.1090599" lon="20.1222517"><ele>187.33333333333331</ele><time>2026-05-03T07:54:45.737Z</time></trkpt><trkpt lat="40.1092085" lon="20.1221551"><ele>188.0</ele><time>2026-05-03T07:54:46.736Z</time></trkpt><trkpt lat="40.1093663" lon="20.1220633"><ele>188.0</ele><time>2026-05-03T07:54:47.737Z</time></trkpt><trkpt lat="40.1095278" lon="20.1219577"><ele>188.0</ele><time>2026-05-03T07:54:48.737Z</time></trkpt><trkpt lat="40.1096904" lon="20.1218641"><ele>188.0</ele><time>2026-05-03T07:54:49.737Z</time></trkpt><trkpt lat="40.1098523" lon="20.121772"><ele>187.66666666666666</ele><time>2026-05-03T07:54:50.737Z</time></trkpt><trkpt lat="40.1100103" lon="20.1216845"><ele>187.33333333333334</ele><time>2026-05-03T07:54:51.736Z</time></trkpt><trkpt lat="40.1101706" lon="20.1215873"><ele>187.0</ele><time>2026-05-03T07:54:52.737Z</time></trkpt><trkpt lat="40.1103303" lon="20.1214938"><ele>187.0</ele><time>2026-05-03T07:54:53.737Z</time></trkpt><trkpt lat="40.110489" lon="20.1214014"><ele>187.0</ele><time>2026-05-03T07:54:54.737Z</time></trkpt><trkpt lat="40.110648" lon="20.1213097"><ele>187.0</ele><time>2026-05-03T07:54:55.737Z</time></trkpt><trkpt lat="40.1108073" lon="20.1212176"><ele>185.66666666666669</ele><time>2026-05-03T07:54:56.737Z</time></trkpt><trkpt lat="40.1109655" lon="20.1211257"><ele>184.33333333333334</ele><time>2026-05-03T07:54:57.737Z</time></trkpt><trkpt lat="40.1111223" lon="20.1210351"><ele>183.0</ele><time>2026-05-03T07:54:58.737Z</time></trkpt><trkpt lat="40.1112772" lon="20.120944"><ele>183.0</ele><time>2026-05-03T07:54:59.737Z</time></trkpt><trkpt lat="40.1114322" lon="20.1208532"><ele>183.0</ele><time>2026-05-03T07:55:00.736Z</time></trkpt><trkpt lat="40.1115866" lon="20.1207612"><ele>183.0</ele><time>2026-05-03T07:55:01.737Z</time></trkpt><trkpt lat="40.1117419" lon="20.1206724"><ele>183.66666666666666</ele><time>2026-05-03T07:55:02.737Z</time></trkpt><trkpt lat="40.1118986" lon="20.1205839"><ele>184.33333333333331</ele><time>2026-05-03T07:55:03.736Z</time></trkpt><trkpt lat="40.1120588" lon="20.1205018"><ele>185.0</ele><time>2026-05-03T07:55:04.736Z</time></trkpt><trkpt lat="40.1122163" lon="20.12041"><ele>185.0</ele><time>2026-05-03T07:55:05.736Z</time></trkpt><trkpt lat="40.1123743" lon="20.1203179"><ele>185.0</ele><time>2026-05-03T07:55:06.736Z</time></trkpt><trkpt lat="40.1125332" lon="20.1202253"><ele>185.0</ele><time>2026-05-03T07:55:07.737Z</time></trkpt><trkpt lat="40.1126928" lon="20.1201343"><ele>185.0</ele><time>2026-05-03T07:55:08.737Z</time></trkpt><trkpt lat="40.112853" lon="20.1200445"><ele>185.0</ele><time>2026-05-03T07:55:09.736Z</time></trkpt><trkpt lat="40.1130137" lon="20.1199553"><ele>185.0</ele><time>2026-05-03T07:55:10.737Z</time></trkpt><trkpt lat="40.1131756" lon="20.1198657"><ele>185.33333333333331</ele><time>2026-05-03T07:55:11.736Z</time></trkpt><trkpt lat="40.113338" lon="20.1197746"><ele>185.66666666666666</ele><time>2026-05-03T07:55:12.737Z</time></trkpt><trkpt lat="40.1135001" lon="20.1196823"><ele>186.0</ele><time>2026-05-03T07:55:13.737Z</time></trkpt><trkpt lat="40.1136636" lon="20.1195888"><ele>186.0</ele><time>2026-05-03T07:55:14.737Z</time></trkpt><trkpt lat="40.1138279" lon="20.1194948"><ele>186.0</ele><time>2026-05-03T07:55:15.736Z</time></trkpt><trkpt lat="40.1139929" lon="20.1194008"><ele>186.0</ele><time>2026-05-03T07:55:16.736Z</time></trkpt><trkpt lat="40.1141569" lon="20.1193052"><ele>185.66666666666666</ele><time>2026-05-03T07:55:17.737Z</time></trkpt><trkpt lat="40.1143222" lon="20.1192077"><ele>185.33333333333331</ele><time>2026-05-03T07:55:18.736Z</time></trkpt><trkpt lat="40.1144889" lon="20.1191095"><ele>185.0</ele><time>2026-05-03T07:55:19.736Z</time></trkpt><trkpt lat="40.1146569" lon="20.1190135"><ele>186.0</ele><time>2026-05-03T07:55:20.736Z</time></trkpt><trkpt lat="40.1148274" lon="20.1189211"><ele>187.0</ele><time>2026-05-03T07:55:21.737Z</time></trkpt><trkpt lat="40.1149963" lon="20.1188261"><ele>188.0</ele><time>2026-05-03T07:55:22.736Z</time></trkpt><trkpt lat="40.1151666" lon="20.1187307"><ele>188.33333333333331</ele><time>2026-05-03T07:55:23.737Z</time></trkpt><trkpt lat="40.1153375" lon="20.1186362"><ele>188.66666666666666</ele><time>2026-05-03T07:55:24.736Z</time></trkpt><trkpt lat="40.115509" lon="20.11854"><ele>189.0</ele><time>2026-05-03T07:55:25.737Z</time></trkpt><trkpt lat="40.1156815" lon="20.118443"><ele>188.0</ele><time>2026-05-03T07:55:26.736Z</time></trkpt><trkpt lat="40.1158552" lon="20.1183441"><ele>187.0</ele><time>2026-05-03T07:55:27.736Z</time></trkpt><trkpt lat="40.1160293" lon="20.1182461"><ele>186.0</ele><time>2026-05-03T07:55:28.737Z</time></trkpt><trkpt lat="40.1162014" lon="20.1181589"><ele>187.0</ele><time>2026-05-03T07:55:29.737Z</time></trkpt><trkpt lat="40.1163735" lon="20.1180625"><ele>188.0</ele><time>2026-05-03T07:55:30.737Z</time></trkpt><trkpt lat="40.1165428" lon="20.1179651"><ele>189.0</ele><time>2026-05-03T07:55:31.737Z</time></trkpt><trkpt lat="40.116709" lon="20.1178631"><ele>189.0</ele><time>2026-05-03T07:55:32.737Z</time></trkpt><trkpt lat="40.116873" lon="20.1177561"><ele>189.0</ele><time>2026-05-03T07:55:33.737Z</time></trkpt><trkpt lat="40.1170348" lon="20.1176446"><ele>189.0</ele><time>2026-05-03T07:55:34.736Z</time></trkpt><trkpt lat="40.1171913" lon="20.1175138"><ele>188.66666666666666</ele><time>2026-05-03T07:55:35.736Z</time></trkpt><trkpt lat="40.1173495" lon="20.1173923"><ele>188.33333333333331</ele><time>2026-05-03T07:55:36.735Z</time></trkpt><trkpt lat="40.1175059" lon="20.1172698"><ele>188.0</ele><time>2026-05-03T07:55:37.737Z</time></trkpt><trkpt lat="40.1176625" lon="20.117149"><ele>188.0</ele><time>2026-05-03T07:55:38.737Z</time></trkpt><trkpt lat="40.1178167" lon="20.1170279"><ele>188.0</ele><time>2026-05-03T07:55:39.737Z</time></trkpt><trkpt lat="40.1179711" lon="20.1169064"><ele>188.0</ele><time>2026-05-03T07:55:40.736Z</time></trkpt><trkpt lat="40.1181262" lon="20.1167795"><ele>188.0</ele><time>2026-05-03T07:55:41.736Z</time></trkpt><trkpt lat="40.118282" lon="20.1166638"><ele>188.0</ele><time>2026-05-03T07:55:42.737Z</time></trkpt><trkpt lat="40.118437" lon="20.1165417"><ele>188.0</ele><time>2026-05-03T07:55:43.737Z</time></trkpt><trkpt lat="40.1185907" lon="20.1164204"><ele>188.66666666666666</ele><time>2026-05-03T07:55:44.737Z</time></trkpt><trkpt lat="40.1187432" lon="20.1162962"><ele>189.33333333333334</ele><time>2026-05-03T07:55:45.737Z</time></trkpt><trkpt lat="40.1188964" lon="20.1161775"><ele>190.0</ele><time>2026-05-03T07:55:46.736Z</time></trkpt><trkpt lat="40.1190511" lon="20.1160606"><ele>190.33333333333334</ele><time>2026-05-03T07:55:47.737Z</time></trkpt><trkpt lat="40.1192057" lon="20.1159421"><ele>190.66666666666666</ele><time>2026-05-03T07:55:48.737Z</time></trkpt><trkpt lat="40.1193587" lon="20.1158214"><ele>191.0</ele><time>2026-05-03T07:55:49.736Z</time></trkpt><trkpt lat="40.1195126" lon="20.1157001"><ele>191.33333333333331</ele><time>2026-05-03T07:55:50.737Z</time></trkpt><trkpt lat="40.1196674" lon="20.1155789"><ele>191.66666666666666</ele><time>2026-05-03T07:55:51.736Z</time></trkpt><trkpt lat="40.1198225" lon="20.1154567"><ele>192.0</ele><time>2026-05-03T07:55:52.737Z</time></trkpt><trkpt lat="40.1199773" lon="20.1153354"><ele>189.66666666666666</ele><time>2026-05-03T07:55:53.737Z</time></trkpt><trkpt lat="40.1201322" lon="20.1152129"><ele>187.33333333333331</ele><time>2026-05-03T07:55:54.737Z</time></trkpt><trkpt lat="40.1202876" lon="20.1150895"><ele>185.0</ele><time>2026-05-03T07:55:55.736Z</time></trkpt><trkpt lat="40.1204447" lon="20.114966"><ele>184.66666666666666</ele><time>2026-05-03T07:55:56.736Z</time></trkpt><trkpt lat="40.120601" lon="20.1148423"><ele>184.33333333333334</ele><time>2026-05-03T07:55:57.737Z</time></trkpt><trkpt lat="40.1207614" lon="20.1147209"><ele>184.0</ele><time>2026-05-03T07:55:58.737Z</time></trkpt><trkpt lat="40.1209194" lon="20.1146007"><ele>184.0</ele><time>2026-05-03T07:55:59.737Z</time></trkpt><trkpt lat="40.1210764" lon="20.1144826"><ele>184.0</ele><time>2026-05-03T07:56:00.736Z</time></trkpt><trkpt lat="40.121235" lon="20.1143608"><ele>184.0</ele><time>2026-05-03T07:56:01.736Z</time></trkpt><trkpt lat="40.1213922" lon="20.1142399"><ele>184.0</ele><time>2026-05-03T07:56:02.737Z</time></trkpt><trkpt lat="40.1215473" lon="20.11412"><ele>184.0</ele><time>2026-05-03T07:56:03.736Z</time></trkpt><trkpt lat="40.1216997" lon="20.1140006"><ele>184.0</ele><time>2026-05-03T07:56:04.736Z</time></trkpt><trkpt lat="40.1218566" lon="20.1138724"><ele>184.33333333333334</ele><time>2026-05-03T07:56:05.736Z</time></trkpt><trkpt lat="40.1220105" lon="20.1137503"><ele>184.66666666666666</ele><time>2026-05-03T07:56:06.737Z</time></trkpt><trkpt lat="40.1221663" lon="20.1136287"><ele>185.0</ele><time>2026-05-03T07:56:07.736Z</time></trkpt><trkpt lat="40.122323" lon="20.1135062"><ele>185.33333333333331</ele><time>2026-05-03T07:56:08.736Z</time></trkpt><trkpt lat="40.1224824" lon="20.1133829"><ele>185.66666666666666</ele><time>2026-05-03T07:56:09.737Z</time></trkpt><trkpt lat="40.1226427" lon="20.1132601"><ele>186.0</ele><time>2026-05-03T07:56:10.737Z</time></trkpt><trkpt lat="40.1228037" lon="20.1131369"><ele>186.0</ele><time>2026-05-03T07:56:11.736Z</time></trkpt><trkpt lat="40.1229648" lon="20.1130138"><ele>186.0</ele><time>2026-05-03T07:56:12.736Z</time></trkpt><trkpt lat="40.1231272" lon="20.1128961"><ele>186.0</ele><time>2026-05-03T07:56:13.736Z</time></trkpt><trkpt lat="40.1232892" lon="20.112772"><ele>186.66666666666666</ele><time>2026-05-03T07:56:14.737Z</time></trkpt><trkpt lat="40.1234502" lon="20.1126476"><ele>187.33333333333331</ele><time>2026-05-03T07:56:15.737Z</time></trkpt><trkpt lat="40.1236114" lon="20.1125226"><ele>188.0</ele><time>2026-05-03T07:56:16.736Z</time></trkpt><trkpt lat="40.1237722" lon="20.1123964"><ele>188.33333333333331</ele><time>2026-05-03T07:56:17.736Z</time></trkpt><trkpt lat="40.1239334" lon="20.1122667"><ele>188.66666666666666</ele><time>2026-05-03T07:56:18.737Z</time></trkpt><trkpt lat="40.1240928" lon="20.1121391"><ele>189.0</ele><time>2026-05-03T07:56:19.736Z</time></trkpt><trkpt lat="40.124252" lon="20.11201"><ele>189.0</ele><time>2026-05-03T07:56:20.737Z</time></trkpt><trkpt lat="40.1244107" lon="20.11188"><ele>189.0</ele><time>2026-05-03T07:56:21.736Z</time></trkpt><trkpt lat="40.1245695" lon="20.1117505"><ele>189.0</ele><time>2026-05-03T07:56:22.737Z</time></trkpt><trkpt lat="40.1247258" lon="20.1116235"><ele>189.0</ele><time>2026-05-03T07:56:23.736Z</time></trkpt><trkpt lat="40.1248859" lon="20.1114959"><ele>189.0</ele><time>2026-05-03T07:56:24.736Z</time></trkpt><trkpt lat="40.1250457" lon="20.1113676"><ele>189.0</ele><time>2026-05-03T07:56:25.736Z</time></trkpt><trkpt lat="40.1252058" lon="20.1112386"><ele>189.0</ele><time>2026-05-03T07:56:26.737Z</time></trkpt><trkpt lat="40.1253662" lon="20.1111001"><ele>189.0</ele><time>2026-05-03T07:56:27.736Z</time></trkpt><trkpt lat="40.1255268" lon="20.1109738"><ele>189.0</ele><time>2026-05-03T07:56:28.737Z</time></trkpt><trkpt lat="40.125687" lon="20.1108451"><ele>189.0</ele><time>2026-05-03T07:56:29.737Z</time></trkpt><trkpt lat="40.1258483" lon="20.1107159"><ele>189.0</ele><time>2026-05-03T07:56:30.736Z</time></trkpt><trkpt lat="40.1260119" lon="20.1105859"><ele>189.0</ele><time>2026-05-03T07:56:31.737Z</time></trkpt><trkpt lat="40.1261797" lon="20.1104542"><ele>189.0</ele><time>2026-05-03T07:56:32.736Z</time></trkpt><trkpt lat="40.1263487" lon="20.1103226"><ele>189.0</ele><time>2026-05-03T07:56:33.736Z</time></trkpt><trkpt lat="40.1265201" lon="20.110195"><ele>189.0</ele><time>2026-05-03T07:56:34.737Z</time></trkpt><trkpt lat="40.1266903" lon="20.1100604"><ele>189.0</ele><time>2026-05-03T07:56:35.736Z</time></trkpt><trkpt lat="40.1268576" lon="20.1099225"><ele>189.0</ele><time>2026-05-03T07:56:36.736Z</time></trkpt><trkpt lat="40.127028" lon="20.1097875"><ele>189.0</ele><time>2026-05-03T07:56:37.737Z</time></trkpt><trkpt lat="40.1271994" lon="20.109653"><ele>189.33333333333334</ele><time>2026-05-03T07:56:38.737Z</time></trkpt><trkpt lat="40.1273721" lon="20.1095065"><ele>189.66666666666669</ele><time>2026-05-03T07:56:39.737Z</time></trkpt><trkpt lat="40.1275401" lon="20.1093686"><ele>190.0</ele><time>2026-05-03T07:56:40.736Z</time></trkpt><trkpt lat="40.1277104" lon="20.109232"><ele>189.33333333333334</ele><time>2026-05-03T07:56:41.736Z</time></trkpt><trkpt lat="40.1278803" lon="20.1090947"><ele>188.66666666666666</ele><time>2026-05-03T07:56:42.736Z</time></trkpt><trkpt lat="40.1280461" lon="20.1089425"><ele>188.0</ele><time>2026-05-03T07:56:43.736Z</time></trkpt><trkpt lat="40.1282158" lon="20.1088064"><ele>188.0</ele><time>2026-05-03T07:56:44.737Z</time></trkpt><trkpt lat="40.1283842" lon="20.1086761"><ele>188.0</ele><time>2026-05-03T07:56:45.736Z</time></trkpt><trkpt lat="40.1285505" lon="20.1085403"><ele>188.0</ele><time>2026-05-03T07:56:46.737Z</time></trkpt><trkpt lat="40.1287156" lon="20.1084072"><ele>188.0</ele><time>2026-05-03T07:56:47.737Z</time></trkpt><trkpt lat="40.1288777" lon="20.1082776"><ele>188.0</ele><time>2026-05-03T07:56:48.736Z</time></trkpt><trkpt lat="40.1290423" lon="20.1081489"><ele>188.0</ele><time>2026-05-03T07:56:49.737Z</time></trkpt><trkpt lat="40.1292036" lon="20.10802"><ele>187.33333333333331</ele><time>2026-05-03T07:56:50.737Z</time></trkpt><trkpt lat="40.1293651" lon="20.1078936"><ele>186.66666666666666</ele><time>2026-05-03T07:56:51.736Z</time></trkpt><trkpt lat="40.1295262" lon="20.1077609"><ele>186.0</ele><time>2026-05-03T07:56:52.736Z</time></trkpt><trkpt lat="40.1296877" lon="20.107633"><ele>186.0</ele><time>2026-05-03T07:56:53.736Z</time></trkpt><trkpt lat="40.1298485" lon="20.1075037"><ele>186.0</ele><time>2026-05-03T07:56:54.737Z</time></trkpt><trkpt lat="40.1300087" lon="20.1073756"><ele>186.0</ele><time>2026-05-03T07:56:55.736Z</time></trkpt><trkpt lat="40.1301705" lon="20.1072487"><ele>186.66666666666666</ele><time>2026-05-03T07:56:56.736Z</time></trkpt><trkpt lat="40.1303324" lon="20.1071226"><ele>187.33333333333331</ele><time>2026-05-03T07:56:57.737Z</time></trkpt><trkpt lat="40.1304945" lon="20.106996"><ele>188.0</ele><time>2026-05-03T07:56:58.736Z</time></trkpt><trkpt lat="40.1306579" lon="20.1068671"><ele>187.33333333333331</ele><time>2026-05-03T07:56:59.737Z</time></trkpt><trkpt lat="40.1308231" lon="20.1067355"><ele>186.66666666666666</ele><time>2026-05-03T07:57:00.736Z</time></trkpt><trkpt lat="40.1309895" lon="20.1066003"><ele>186.0</ele><time>2026-05-03T07:57:01.736Z</time></trkpt><trkpt lat="40.1311568" lon="20.1064677"><ele>186.0</ele><time>2026-05-03T07:57:02.737Z</time></trkpt><trkpt lat="40.1313249" lon="20.1063343"><ele>186.0</ele><time>2026-05-03T07:57:03.737Z</time></trkpt><trkpt lat="40.1314934" lon="20.1062002"><ele>186.0</ele><time>2026-05-03T07:57:04.736Z</time></trkpt><trkpt lat="40.1316618" lon="20.1060659"><ele>186.0</ele><time>2026-05-03T07:57:05.737Z</time></trkpt><trkpt lat="40.1318294" lon="20.1059308"><ele>186.0</ele><time>2026-05-03T07:57:06.736Z</time></trkpt><trkpt lat="40.1319982" lon="20.105798"><ele>186.0</ele><time>2026-05-03T07:57:07.736Z</time></trkpt><trkpt lat="40.1321677" lon="20.1056652"><ele>186.0</ele><time>2026-05-03T07:57:08.737Z</time></trkpt><trkpt lat="40.1323366" lon="20.1055321"><ele>186.0</ele><time>2026-05-03T07:57:09.736Z</time></trkpt><trkpt lat="40.1325067" lon="20.1053992"><ele>186.0</ele><time>2026-05-03T07:57:10.737Z</time></trkpt><trkpt lat="40.132676" lon="20.1052659"><ele>186.0</ele><time>2026-05-03T07:57:11.737Z</time></trkpt><trkpt lat="40.1328456" lon="20.1051328"><ele>186.0</ele><time>2026-05-03T07:57:12.737Z</time></trkpt><trkpt lat="40.133016" lon="20.1050004"><ele>186.0</ele><time>2026-05-03T07:57:13.736Z</time></trkpt><trkpt lat="40.1331893" lon="20.1048698"><ele>185.66666666666666</ele><time>2026-05-03T07:57:14.736Z</time></trkpt><trkpt lat="40.1333593" lon="20.1047374"><ele>185.33333333333331</ele><time>2026-05-03T07:57:15.737Z</time></trkpt><trkpt lat="40.1335294" lon="20.1046027"><ele>185.0</ele><time>2026-05-03T07:57:16.737Z</time></trkpt><trkpt lat="40.1336999" lon="20.1044661"><ele>185.0</ele><time>2026-05-03T07:57:17.737Z</time></trkpt><trkpt lat="40.1338718" lon="20.1043287"><ele>185.0</ele><time>2026-05-03T07:57:18.737Z</time></trkpt><trkpt lat="40.1340467" lon="20.1041919"><ele>185.0</ele><time>2026-05-03T07:57:19.736Z</time></trkpt><trkpt lat="40.1342248" lon="20.1040575"><ele>184.66666666666666</ele><time>2026-05-03T07:57:20.736Z</time></trkpt><trkpt lat="40.1344016" lon="20.1039264"><ele>184.33333333333334</ele><time>2026-05-03T07:57:21.737Z</time></trkpt><trkpt lat="40.1345788" lon="20.1037967"><ele>184.0</ele><time>2026-05-03T07:57:22.737Z</time></trkpt><trkpt lat="40.1347553" lon="20.1036676"><ele>183.66666666666669</ele><time>2026-05-03T07:57:23.736Z</time></trkpt><trkpt lat="40.1349377" lon="20.1035248"><ele>183.33333333333334</ele><time>2026-05-03T07:57:24.736Z</time></trkpt><trkpt lat="40.1351119" lon="20.1033985"><ele>183.0</ele><time>2026-05-03T07:57:25.736Z</time></trkpt><trkpt lat="40.1352854" lon="20.1032739"><ele>183.66666666666666</ele><time>2026-05-03T07:57:26.737Z</time></trkpt><trkpt lat="40.1354564" lon="20.1031506"><ele>184.33333333333331</ele><time>2026-05-03T07:57:27.736Z</time></trkpt><trkpt lat="40.1356267" lon="20.1030278"><ele>185.0</ele><time>2026-05-03T07:57:28.737Z</time></trkpt><trkpt lat="40.1357953" lon="20.102906"><ele>185.33333333333331</ele><time>2026-05-03T07:57:29.737Z</time></trkpt><trkpt lat="40.1359614" lon="20.1027884"><ele>185.66666666666666</ele><time>2026-05-03T07:57:30.737Z</time></trkpt><trkpt lat="40.1361254" lon="20.102672"><ele>186.0</ele><time>2026-05-03T07:57:31.736Z</time></trkpt><trkpt lat="40.1362895" lon="20.1025565"><ele>186.0</ele><time>2026-05-03T07:57:32.737Z</time></trkpt><trkpt lat="40.1364532" lon="20.1024429"><ele>186.0</ele><time>2026-05-03T07:57:33.737Z</time></trkpt><trkpt lat="40.1366172" lon="20.1023341"><ele>186.0</ele><time>2026-05-03T07:57:34.737Z</time></trkpt><trkpt lat="40.1367826" lon="20.1022315"><ele>186.66666666666666</ele><time>2026-05-03T07:57:35.737Z</time></trkpt><trkpt lat="40.1369479" lon="20.1021367"><ele>187.33333333333331</ele><time>2026-05-03T07:57:36.736Z</time></trkpt><trkpt lat="40.1371164" lon="20.1020284"><ele>188.0</ele><time>2026-05-03T07:57:37.737Z</time></trkpt><trkpt lat="40.1372858" lon="20.1019537"><ele>188.33333333333331</ele><time>2026-05-03T07:57:38.736Z</time></trkpt><trkpt lat="40.1374546" lon="20.101875"><ele>188.66666666666666</ele><time>2026-05-03T07:57:39.737Z</time></trkpt><trkpt lat="40.1376236" lon="20.1017982"><ele>189.0</ele><time>2026-05-03T07:57:40.736Z</time></trkpt><trkpt lat="40.1377929" lon="20.1017221"><ele>189.0</ele><time>2026-05-03T07:57:41.737Z</time></trkpt><trkpt lat="40.1379603" lon="20.1016492"><ele>189.0</ele><time>2026-05-03T07:57:42.737Z</time></trkpt><trkpt lat="40.1381315" lon="20.1015747"><ele>189.0</ele><time>2026-05-03T07:57:43.737Z</time></trkpt><trkpt lat="40.1383032" lon="20.1015001"><ele>190.33333333333331</ele><time>2026-05-03T07:57:44.736Z</time></trkpt><trkpt lat="40.1384742" lon="20.101426"><ele>191.66666666666666</ele><time>2026-05-03T07:57:45.737Z</time></trkpt><trkpt lat="40.1386487" lon="20.1013522"><ele>193.0</ele><time>2026-05-03T07:57:46.737Z</time></trkpt><trkpt lat="40.138823" lon="20.1012786"><ele>193.0</ele><time>2026-05-03T07:57:47.737Z</time></trkpt><trkpt lat="40.138999" lon="20.1012049"><ele>193.0</ele><time>2026-05-03T07:57:48.736Z</time></trkpt><trkpt lat="40.1391757" lon="20.1011279"><ele>193.0</ele><time>2026-05-03T07:57:49.736Z</time></trkpt><trkpt lat="40.1393515" lon="20.1010499"><ele>194.0</ele><time>2026-05-03T07:57:50.737Z</time></trkpt><trkpt lat="40.1395263" lon="20.1009711"><ele>195.0</ele><time>2026-05-03T07:57:51.736Z</time></trkpt><trkpt lat="40.1397022" lon="20.1008724"><ele>196.0</ele><time>2026-05-03T07:57:52.736Z</time></trkpt><trkpt lat="40.1398759" lon="20.1007825"><ele>196.33333333333331</ele><time>2026-05-03T07:57:53.737Z</time></trkpt><trkpt lat="40.1400485" lon="20.1006904"><ele>196.66666666666669</ele><time>2026-05-03T07:57:54.736Z</time></trkpt><trkpt lat="40.1402194" lon="20.1005954"><ele>197.0</ele><time>2026-05-03T07:57:55.737Z</time></trkpt><trkpt lat="40.140389" lon="20.1004963"><ele>197.0</ele><time>2026-05-03T07:57:56.737Z</time></trkpt><trkpt lat="40.1405577" lon="20.1003937"><ele>197.0</ele><time>2026-05-03T07:57:57.737Z</time></trkpt><trkpt lat="40.1407257" lon="20.1002897"><ele>197.0</ele><time>2026-05-03T07:57:58.737Z</time></trkpt><trkpt lat="40.1408928" lon="20.1001863"><ele>196.66666666666669</ele><time>2026-05-03T07:57:59.736Z</time></trkpt><trkpt lat="40.1410599" lon="20.1000832"><ele>196.33333333333331</ele><time>2026-05-03T07:58:00.737Z</time></trkpt><trkpt lat="40.1412258" lon="20.0999788"><ele>196.0</ele><time>2026-05-03T07:58:01.737Z</time></trkpt><trkpt lat="40.141391" lon="20.0998556"><ele>198.66666666666666</ele><time>2026-05-03T07:58:02.736Z</time></trkpt><trkpt lat="40.1415587" lon="20.0997461"><ele>201.33333333333331</ele><time>2026-05-03T07:58:03.736Z</time></trkpt><trkpt lat="40.1417256" lon="20.0996395"><ele>204.0</ele><time>2026-05-03T07:58:04.736Z</time></trkpt><trkpt lat="40.1418988" lon="20.0995337"><ele>204.0</ele><time>2026-05-03T07:58:05.737Z</time></trkpt><trkpt lat="40.1420684" lon="20.0994271"><ele>204.0</ele><time>2026-05-03T07:58:06.736Z</time></trkpt><trkpt lat="40.1422391" lon="20.0993196"><ele>204.0</ele><time>2026-05-03T07:58:07.736Z</time></trkpt><trkpt lat="40.1424097" lon="20.0992118"><ele>202.66666666666669</ele><time>2026-05-03T07:58:08.736Z</time></trkpt><trkpt lat="40.1425801" lon="20.0991028"><ele>201.33333333333334</ele><time>2026-05-03T07:58:09.736Z</time></trkpt><trkpt lat="40.1427503" lon="20.098994"><ele>200.0</ele><time>2026-05-03T07:58:10.737Z</time></trkpt><trkpt lat="40.1429198" lon="20.0988856"><ele>200.0</ele><time>2026-05-03T07:58:11.737Z</time></trkpt><trkpt lat="40.1430891" lon="20.0987784"><ele>200.0</ele><time>2026-05-03T07:58:12.736Z</time></trkpt><trkpt lat="40.1432588" lon="20.0986716"><ele>200.0</ele><time>2026-05-03T07:58:13.737Z</time></trkpt><trkpt lat="40.1434276" lon="20.0985658"><ele>200.0</ele><time>2026-05-03T07:58:14.735Z</time></trkpt><trkpt lat="40.1436023" lon="20.0984644"><ele>200.0</ele><time>2026-05-03T07:58:15.736Z</time></trkpt><trkpt lat="40.1437699" lon="20.0983589"><ele>200.0</ele><time>2026-05-03T07:58:16.737Z</time></trkpt><trkpt lat="40.1439392" lon="20.0982512"><ele>200.33333333333334</ele><time>2026-05-03T07:58:17.736Z</time></trkpt><trkpt lat="40.144104" lon="20.0981337"><ele>200.66666666666669</ele><time>2026-05-03T07:58:18.737Z</time></trkpt><trkpt lat="40.144279" lon="20.0980089"><ele>201.0</ele><time>2026-05-03T07:58:19.736Z</time></trkpt><trkpt lat="40.1444505" lon="20.0979004"><ele>201.0</ele><time>2026-05-03T07:58:20.736Z</time></trkpt><trkpt lat="40.1446224" lon="20.0977901"><ele>201.0</ele><time>2026-05-03T07:58:21.737Z</time></trkpt><trkpt lat="40.1447949" lon="20.0976788"><ele>201.0</ele><time>2026-05-03T07:58:22.737Z</time></trkpt><trkpt lat="40.1449682" lon="20.0975689"><ele>201.0</ele><time>2026-05-03T07:58:23.736Z</time></trkpt><trkpt lat="40.1451396" lon="20.0974602"><ele>201.0</ele><time>2026-05-03T07:58:24.737Z</time></trkpt><trkpt lat="40.1453102" lon="20.0973538"><ele>201.0</ele><time>2026-05-03T07:58:25.736Z</time></trkpt><trkpt lat="40.1454784" lon="20.097247"><ele>201.0</ele><time>2026-05-03T07:58:26.737Z</time></trkpt><trkpt lat="40.1456439" lon="20.0971425"><ele>201.0</ele><time>2026-05-03T07:58:27.736Z</time></trkpt><trkpt lat="40.1458053" lon="20.0970415"><ele>201.0</ele><time>2026-05-03T07:58:28.737Z</time></trkpt><trkpt lat="40.1459637" lon="20.0969425"><ele>200.66666666666669</ele><time>2026-05-03T07:58:29.737Z</time></trkpt><trkpt lat="40.1461177" lon="20.0968457"><ele>200.33333333333334</ele><time>2026-05-03T07:58:30.737Z</time></trkpt><trkpt lat="40.1462644" lon="20.0967546"><ele>200.0</ele><time>2026-05-03T07:58:31.736Z</time></trkpt><trkpt lat="40.1464046" lon="20.0966685"><ele>200.0</ele><time>2026-05-03T07:58:32.737Z</time></trkpt><trkpt lat="40.1465379" lon="20.0965908"><ele>200.0</ele><time>2026-05-03T07:58:33.736Z</time></trkpt><trkpt lat="40.1466684" lon="20.0965095"><ele>200.0</ele><time>2026-05-03T07:58:34.736Z</time></trkpt><trkpt lat="40.1467964" lon="20.0964277"><ele>200.0</ele><time>2026-05-03T07:58:35.736Z</time></trkpt><trkpt lat="40.1469235" lon="20.0963435"><ele>200.0</ele><time>2026-05-03T07:58:36.737Z</time></trkpt><trkpt lat="40.147046" lon="20.0962634"><ele>200.0</ele><time>2026-05-03T07:58:37.736Z</time></trkpt><trkpt lat="40.1471646" lon="20.0961889"><ele>200.0</ele><time>2026-05-03T07:58:38.737Z</time></trkpt><trkpt lat="40.1472863" lon="20.0961154"><ele>200.0</ele><time>2026-05-03T07:58:39.736Z</time></trkpt><trkpt lat="40.1474114" lon="20.0960373"><ele>200.0</ele><time>2026-05-03T07:58:40.737Z</time></trkpt><trkpt lat="40.147546" lon="20.0959627"><ele>200.0</ele><time>2026-05-03T07:58:41.737Z</time></trkpt><trkpt lat="40.1476731" lon="20.0958823"><ele>200.0</ele><time>2026-05-03T07:58:42.737Z</time></trkpt><trkpt lat="40.1478036" lon="20.0957982"><ele>200.0</ele><time>2026-05-03T07:58:43.737Z</time></trkpt><trkpt lat="40.1479404" lon="20.0957002"><ele>199.0</ele><time>2026-05-03T07:58:44.737Z</time></trkpt><trkpt lat="40.1480778" lon="20.0956087"><ele>198.0</ele><time>2026-05-03T07:58:45.736Z</time></trkpt><trkpt lat="40.1482239" lon="20.0955074"><ele>197.0</ele><time>2026-05-03T07:58:46.736Z</time></trkpt><trkpt lat="40.1483735" lon="20.0953999"><ele>195.66666666666669</ele><time>2026-05-03T07:58:47.736Z</time></trkpt><trkpt lat="40.1485298" lon="20.0952955"><ele>194.33333333333331</ele><time>2026-05-03T07:58:48.736Z</time></trkpt><trkpt lat="40.1486892" lon="20.0951891"><ele>193.0</ele><time>2026-05-03T07:58:49.736Z</time></trkpt><trkpt lat="40.1488444" lon="20.0950866"><ele>193.0</ele><time>2026-05-03T07:58:50.737Z</time></trkpt><trkpt lat="40.1490018" lon="20.0949828"><ele>193.0</ele><time>2026-05-03T07:58:51.737Z</time></trkpt><trkpt lat="40.1491685" lon="20.0948732"><ele>193.0</ele><time>2026-05-03T07:58:52.736Z</time></trkpt><trkpt lat="40.1493342" lon="20.0947647"><ele>193.33333333333331</ele><time>2026-05-03T07:58:53.737Z</time></trkpt><trkpt lat="40.1495009" lon="20.094648"><ele>193.66666666666669</ele><time>2026-05-03T07:58:54.737Z</time></trkpt><trkpt lat="40.149671" lon="20.094544"><ele>194.0</ele><time>2026-05-03T07:58:55.737Z</time></trkpt><trkpt lat="40.1498411" lon="20.0944366"><ele>195.0</ele><time>2026-05-03T07:58:56.736Z</time></trkpt><trkpt lat="40.1500062" lon="20.0943259"><ele>196.0</ele><time>2026-05-03T07:58:57.737Z</time></trkpt><trkpt lat="40.1501762" lon="20.0942114"><ele>197.0</ele><time>2026-05-03T07:58:58.736Z</time></trkpt><trkpt lat="40.1503479" lon="20.0940976"><ele>197.0</ele><time>2026-05-03T07:58:59.737Z</time></trkpt><trkpt lat="40.1505211" lon="20.0939873"><ele>197.0</ele><time>2026-05-03T07:59:00.737Z</time></trkpt><trkpt lat="40.1506951" lon="20.093879"><ele>197.0</ele><time>2026-05-03T07:59:01.736Z</time></trkpt><trkpt lat="40.1508688" lon="20.0937694"><ele>198.0</ele><time>2026-05-03T07:59:02.736Z</time></trkpt><trkpt lat="40.1510411" lon="20.0936612"><ele>199.0</ele><time>2026-05-03T07:59:03.737Z</time></trkpt><trkpt lat="40.1512131" lon="20.0935572"><ele>200.0</ele><time>2026-05-03T07:59:04.736Z</time></trkpt><trkpt lat="40.1513841" lon="20.0934545"><ele>200.0</ele><time>2026-05-03T07:59:05.736Z</time></trkpt><trkpt lat="40.1515543" lon="20.093354"><ele>200.0</ele><time>2026-05-03T07:59:06.737Z</time></trkpt><trkpt lat="40.151724" lon="20.0932531"><ele>200.0</ele><time>2026-05-03T07:59:07.737Z</time></trkpt><trkpt lat="40.1518936" lon="20.0931544"><ele>201.0</ele><time>2026-05-03T07:59:08.737Z</time></trkpt><trkpt lat="40.1520627" lon="20.0930568"><ele>202.0</ele><time>2026-05-03T07:59:09.736Z</time></trkpt><trkpt lat="40.1522311" lon="20.0929595"><ele>203.0</ele><time>2026-05-03T07:59:10.737Z</time></trkpt><trkpt lat="40.1523992" lon="20.0928613"><ele>203.0</ele><time>2026-05-03T07:59:11.736Z</time></trkpt><trkpt lat="40.1525666" lon="20.092762"><ele>203.0</ele><time>2026-05-03T07:59:12.736Z</time></trkpt><trkpt lat="40.1527345" lon="20.0926602"><ele>203.0</ele><time>2026-05-03T07:59:13.737Z</time></trkpt><trkpt lat="40.1529046" lon="20.092558"><ele>203.0</ele><time>2026-05-03T07:59:14.736Z</time></trkpt><trkpt lat="40.1530767" lon="20.0924542"><ele>203.0</ele><time>2026-05-03T07:59:15.736Z</time></trkpt><trkpt lat="40.1532502" lon="20.0923487"><ele>203.0</ele><time>2026-05-03T07:59:16.737Z</time></trkpt><trkpt lat="40.153425" lon="20.0922404"><ele>202.33333333333334</ele><time>2026-05-03T07:59:17.737Z</time></trkpt><trkpt lat="40.1535991" lon="20.0921316"><ele>201.66666666666669</ele><time>2026-05-03T07:59:18.736Z</time></trkpt><trkpt lat="40.1537735" lon="20.0920227"><ele>201.0</ele><time>2026-05-03T07:59:19.736Z</time></trkpt><trkpt lat="40.1539481" lon="20.0919151"><ele>201.0</ele><time>2026-05-03T07:59:20.737Z</time></trkpt><trkpt lat="40.1541228" lon="20.0918048"><ele>201.0</ele><time>2026-05-03T07:59:21.737Z</time></trkpt><trkpt lat="40.1542968" lon="20.0916972"><ele>201.0</ele><time>2026-05-03T07:59:22.736Z</time></trkpt><trkpt lat="40.1544715" lon="20.0915898"><ele>201.66666666666669</ele><time>2026-05-03T07:59:23.737Z</time></trkpt><trkpt lat="40.1546462" lon="20.0914822"><ele>202.33333333333334</ele><time>2026-05-03T07:59:24.737Z</time></trkpt><trkpt lat="40.1548153" lon="20.091373"><ele>203.0</ele><time>2026-05-03T07:59:25.736Z</time></trkpt><trkpt lat="40.1549923" lon="20.0912635"><ele>203.66666666666669</ele><time>2026-05-03T07:59:26.737Z</time></trkpt><trkpt lat="40.1551701" lon="20.0911429"><ele>204.33333333333331</ele><time>2026-05-03T07:59:27.736Z</time></trkpt><trkpt lat="40.155351" lon="20.0910313"><ele>205.0</ele><time>2026-05-03T07:59:28.737Z</time></trkpt><trkpt lat="40.155533" lon="20.0909176"><ele>204.33333333333331</ele><time>2026-05-03T07:59:29.736Z</time></trkpt><trkpt lat="40.1557168" lon="20.0908033"><ele>203.66666666666669</ele><time>2026-05-03T07:59:30.737Z</time></trkpt><trkpt lat="40.1559006" lon="20.0906882"><ele>203.0</ele><time>2026-05-03T07:59:31.737Z</time></trkpt><trkpt lat="40.1560844" lon="20.0905747"><ele>203.0</ele><time>2026-05-03T07:59:32.737Z</time></trkpt><trkpt lat="40.1562711" lon="20.090455"><ele>203.0</ele><time>2026-05-03T07:59:33.736Z</time></trkpt><trkpt lat="40.1564548" lon="20.0903449"><ele>203.0</ele><time>2026-05-03T07:59:34.736Z</time></trkpt><trkpt lat="40.1566406" lon="20.0902392"><ele>202.0</ele><time>2026-05-03T07:59:35.736Z</time></trkpt><trkpt lat="40.156822" lon="20.0901282"><ele>201.0</ele><time>2026-05-03T07:59:36.737Z</time></trkpt><trkpt lat="40.1570032" lon="20.0900143"><ele>200.0</ele><time>2026-05-03T07:59:37.737Z</time></trkpt><trkpt lat="40.1571784" lon="20.0898894"><ele>199.66666666666669</ele><time>2026-05-03T07:59:38.736Z</time></trkpt><trkpt lat="40.157357" lon="20.0897747"><ele>199.33333333333331</ele><time>2026-05-03T07:59:39.736Z</time></trkpt><trkpt lat="40.1575357" lon="20.0896532"><ele>199.0</ele><time>2026-05-03T07:59:40.737Z</time></trkpt><trkpt lat="40.1577162" lon="20.0895461"><ele>198.0</ele><time>2026-05-03T07:59:41.737Z</time></trkpt><trkpt lat="40.1578969" lon="20.089435"><ele>197.0</ele><time>2026-05-03T07:59:42.736Z</time></trkpt><trkpt lat="40.1580817" lon="20.0893284"><ele>196.0</ele><time>2026-05-03T07:59:43.737Z</time></trkpt><trkpt lat="40.158264" lon="20.0892224"><ele>195.66666666666666</ele><time>2026-05-03T07:59:44.736Z</time></trkpt><trkpt lat="40.15845" lon="20.0891089"><ele>195.33333333333331</ele><time>2026-05-03T07:59:45.737Z</time></trkpt><trkpt lat="40.1586326" lon="20.0889967"><ele>195.0</ele><time>2026-05-03T07:59:46.737Z</time></trkpt><trkpt lat="40.1588147" lon="20.0888847"><ele>195.0</ele><time>2026-05-03T07:59:47.736Z</time></trkpt><trkpt lat="40.1590056" lon="20.0887627"><ele>195.0</ele><time>2026-05-03T07:59:48.737Z</time></trkpt><trkpt lat="40.1591849" lon="20.0886504"><ele>195.0</ele><time>2026-05-03T07:59:49.737Z</time></trkpt><trkpt lat="40.1593625" lon="20.0885386"><ele>194.66666666666669</ele><time>2026-05-03T07:59:50.737Z</time></trkpt><trkpt lat="40.1595395" lon="20.0884286"><ele>194.33333333333334</ele><time>2026-05-03T07:59:51.737Z</time></trkpt><trkpt lat="40.1597152" lon="20.0883218"><ele>194.0</ele><time>2026-05-03T07:59:52.736Z</time></trkpt><trkpt lat="40.1598931" lon="20.0882284"><ele>193.33333333333334</ele><time>2026-05-03T07:59:53.737Z</time></trkpt><trkpt lat="40.1600687" lon="20.0881229"><ele>192.66666666666669</ele><time>2026-05-03T07:59:54.737Z</time></trkpt><trkpt lat="40.1602433" lon="20.0880176"><ele>192.0</ele><time>2026-05-03T07:59:55.737Z</time></trkpt><trkpt lat="40.1604235" lon="20.0879108"><ele>192.0</ele><time>2026-05-03T07:59:56.737Z</time></trkpt><trkpt lat="40.1606072" lon="20.0878035"><ele>192.0</ele><time>2026-05-03T07:59:57.736Z</time></trkpt><trkpt lat="40.1607913" lon="20.0876998"><ele>192.0</ele><time>2026-05-03T07:59:58.736Z</time></trkpt><trkpt lat="40.1609778" lon="20.0876007"><ele>192.33333333333331</ele><time>2026-05-03T07:59:59.737Z</time></trkpt><trkpt lat="40.161172" lon="20.0874994"><ele>192.66666666666666</ele><time>2026-05-03T08:00:00.736Z</time></trkpt><trkpt lat="40.1613626" lon="20.0874115"><ele>193.0</ele><time>2026-05-03T08:00:01.737Z</time></trkpt><trkpt lat="40.1615566" lon="20.0873237"><ele>192.0</ele><time>2026-05-03T08:00:02.736Z</time></trkpt><trkpt lat="40.1617496" lon="20.0872373"><ele>191.0</ele><time>2026-05-03T08:00:03.737Z</time></trkpt><trkpt lat="40.1619393" lon="20.0871426"><ele>190.0</ele><time>2026-05-03T08:00:04.736Z</time></trkpt><trkpt lat="40.1621304" lon="20.0870621"><ele>190.0</ele><time>2026-05-03T08:00:05.736Z</time></trkpt><trkpt lat="40.1623211" lon="20.0869773"><ele>190.0</ele><time>2026-05-03T08:00:06.737Z</time></trkpt><trkpt lat="40.1625122" lon="20.0868975"><ele>190.0</ele><time>2026-05-03T08:00:07.736Z</time></trkpt><trkpt lat="40.1627026" lon="20.0868173"><ele>190.33333333333334</ele><time>2026-05-03T08:00:08.736Z</time></trkpt><trkpt lat="40.1628945" lon="20.0867369"><ele>190.66666666666666</ele><time>2026-05-03T08:00:09.737Z</time></trkpt><trkpt lat="40.1630812" lon="20.0866367"><ele>191.0</ele><time>2026-05-03T08:00:10.736Z</time></trkpt><trkpt lat="40.1632702" lon="20.0865463"><ele>191.33333333333331</ele><time>2026-05-03T08:00:11.737Z</time></trkpt><trkpt lat="40.1634663" lon="20.0864626"><ele>191.66666666666666</ele><time>2026-05-03T08:00:12.737Z</time></trkpt><trkpt lat="40.1636613" lon="20.0863782"><ele>192.0</ele><time>2026-05-03T08:00:13.736Z</time></trkpt><trkpt lat="40.1638574" lon="20.0862885"><ele>191.0</ele><time>2026-05-03T08:00:14.736Z</time></trkpt><trkpt lat="40.1640586" lon="20.0861869"><ele>190.0</ele><time>2026-05-03T08:00:15.737Z</time></trkpt><trkpt lat="40.1642672" lon="20.0860752"><ele>189.0</ele><time>2026-05-03T08:00:16.736Z</time></trkpt><trkpt lat="40.1644844" lon="20.0859535"><ele>189.0</ele><time>2026-05-03T08:00:17.736Z</time></trkpt><trkpt lat="40.1647059" lon="20.0858196"><ele>189.0</ele><time>2026-05-03T08:00:18.737Z</time></trkpt><trkpt lat="40.1649356" lon="20.0856756"><ele>188.5</ele><time>2026-05-03T08:00:19.736Z</time></trkpt><trkpt lat="40.1651727" lon="20.0855305"><ele>188.0</ele><time>2026-05-03T08:00:20.736Z</time></trkpt><trkpt lat="40.1654158" lon="20.0853856"><ele>188.0</ele><time>2026-05-03T08:00:21.737Z</time></trkpt><trkpt lat="40.1656607" lon="20.085245"><ele>188.0</ele><time>2026-05-03T08:00:22.736Z</time></trkpt><trkpt lat="40.1659059" lon="20.0851092"><ele>187.5</ele><time>2026-05-03T08:00:23.737Z</time></trkpt><trkpt lat="40.1661482" lon="20.0849765"><ele>187.0</ele><time>2026-05-03T08:00:24.736Z</time></trkpt><trkpt lat="40.1663852" lon="20.0848448"><ele>186.5</ele><time>2026-05-03T08:00:25.737Z</time></trkpt><trkpt lat="40.1666175" lon="20.0847134"><ele>186.0</ele><time>2026-05-03T08:00:26.737Z</time></trkpt><trkpt lat="40.1668452" lon="20.0845836"><ele>186.0</ele><time>2026-05-03T08:00:27.736Z</time></trkpt><trkpt lat="40.1670675" lon="20.0844545"><ele>186.0</ele><time>2026-05-03T08:00:28.737Z</time></trkpt><trkpt lat="40.1672873" lon="20.0843281"><ele>185.0</ele><time>2026-05-03T08:00:29.737Z</time></trkpt><trkpt lat="40.1675032" lon="20.0842013"><ele>184.0</ele><time>2026-05-03T08:00:30.737Z</time></trkpt><trkpt lat="40.1677155" lon="20.0840762"><ele>184.0</ele><time>2026-05-03T08:00:31.737Z</time></trkpt><trkpt lat="40.1679263" lon="20.0839502"><ele>184.0</ele><time>2026-05-03T08:00:32.736Z</time></trkpt><trkpt lat="40.1681372" lon="20.0838243"><ele>185.0</ele><time>2026-05-03T08:00:33.737Z</time></trkpt><trkpt lat="40.1683461" lon="20.0836993"><ele>186.0</ele><time>2026-05-03T08:00:34.737Z</time></trkpt><trkpt lat="40.1685544" lon="20.08357"><ele>186.0</ele><time>2026-05-03T08:00:35.737Z</time></trkpt><trkpt lat="40.16876" lon="20.0834307"><ele>186.0</ele><time>2026-05-03T08:00:36.737Z</time></trkpt><trkpt lat="40.1689711" lon="20.0832748"><ele>184.5</ele><time>2026-05-03T08:00:37.736Z</time></trkpt><trkpt lat="40.1691767" lon="20.083108"><ele>183.0</ele><time>2026-05-03T08:00:38.736Z</time></trkpt><trkpt lat="40.1693752" lon="20.0829201"><ele>183.0</ele><time>2026-05-03T08:00:39.736Z</time></trkpt><trkpt lat="40.1695657" lon="20.0827249"><ele>183.0</ele><time>2026-05-03T08:00:40.737Z</time></trkpt><trkpt lat="40.1697526" lon="20.0825262"><ele>183.5</ele><time>2026-05-03T08:00:41.737Z</time></trkpt><trkpt lat="40.1699353" lon="20.0823272"><ele>184.0</ele><time>2026-05-03T08:00:42.737Z</time></trkpt><trkpt lat="40.1701157" lon="20.0821274"><ele>184.0</ele><time>2026-05-03T08:00:43.736Z</time></trkpt><trkpt lat="40.1702954" lon="20.0819291"><ele>184.0</ele><time>2026-05-03T08:00:44.736Z</time></trkpt><trkpt lat="40.1704724" lon="20.081729"><ele>183.5</ele><time>2026-05-03T08:00:45.736Z</time></trkpt><trkpt lat="40.1706462" lon="20.0815282"><ele>183.0</ele><time>2026-05-03T08:00:46.737Z</time></trkpt><trkpt lat="40.1708187" lon="20.0813305"><ele>183.0</ele><time>2026-05-03T08:00:47.737Z</time></trkpt><trkpt lat="40.1709895" lon="20.0811371"><ele>183.0</ele><time>2026-05-03T08:00:48.737Z</time></trkpt><trkpt lat="40.1711584" lon="20.0809469"><ele>183.0</ele><time>2026-05-03T08:00:49.737Z</time></trkpt><trkpt lat="40.1713261" lon="20.0807591"><ele>183.33333333333334</ele><time>2026-05-03T08:00:50.737Z</time></trkpt><trkpt lat="40.1714922" lon="20.0805713"><ele>183.66666666666669</ele><time>2026-05-03T08:00:51.736Z</time></trkpt><trkpt lat="40.1716592" lon="20.0803856"><ele>184.0</ele><time>2026-05-03T08:00:52.736Z</time></trkpt><trkpt lat="40.1718243" lon="20.0802004"><ele>184.0</ele><time>2026-05-03T08:00:53.737Z</time></trkpt><trkpt lat="40.1719895" lon="20.0800162"><ele>184.0</ele><time>2026-05-03T08:00:54.736Z</time></trkpt><trkpt lat="40.172153" lon="20.0798354"><ele>184.0</ele><time>2026-05-03T08:00:55.737Z</time></trkpt><trkpt lat="40.172317" lon="20.0796512"><ele>182.33333333333334</ele><time>2026-05-03T08:00:56.736Z</time></trkpt><trkpt lat="40.1724816" lon="20.0794689"><ele>180.66666666666666</ele><time>2026-05-03T08:00:57.737Z</time></trkpt><trkpt lat="40.172649" lon="20.0792933"><ele>179.0</ele><time>2026-05-03T08:00:58.737Z</time></trkpt><trkpt lat="40.1728223" lon="20.079127"><ele>178.33333333333331</ele><time>2026-05-03T08:00:59.737Z</time></trkpt><trkpt lat="40.1730001" lon="20.0789726"><ele>177.66666666666666</ele><time>2026-05-03T08:01:00.737Z</time></trkpt><trkpt lat="40.1731818" lon="20.0788275"><ele>177.0</ele><time>2026-05-03T08:01:01.737Z</time></trkpt><trkpt lat="40.1733589" lon="20.0786918"><ele>177.0</ele><time>2026-05-03T08:01:02.737Z</time></trkpt><trkpt lat="40.1735475" lon="20.0785714"><ele>177.0</ele><time>2026-05-03T08:01:03.736Z</time></trkpt><trkpt lat="40.1737394" lon="20.0784653"><ele>177.0</ele><time>2026-05-03T08:01:04.735Z</time></trkpt><trkpt lat="40.1739428" lon="20.0783718"><ele>178.33333333333334</ele><time>2026-05-03T08:01:05.736Z</time></trkpt><trkpt lat="40.1741525" lon="20.0782932"><ele>179.66666666666669</ele><time>2026-05-03T08:01:06.737Z</time></trkpt><trkpt lat="40.1743548" lon="20.0782168"><ele>181.0</ele><time>2026-05-03T08:01:07.737Z</time></trkpt><trkpt lat="40.1745589" lon="20.0781444"><ele>182.0</ele><time>2026-05-03T08:01:08.737Z</time></trkpt><trkpt lat="40.1747617" lon="20.0780723"><ele>183.0</ele><time>2026-05-03T08:01:09.736Z</time></trkpt><trkpt lat="40.1749652" lon="20.0780026"><ele>184.0</ele><time>2026-05-03T08:01:10.737Z</time></trkpt><trkpt lat="40.1751668" lon="20.0779244"><ele>184.0</ele><time>2026-05-03T08:01:11.737Z</time></trkpt><trkpt lat="40.1753659" lon="20.0778552"><ele>184.0</ele><time>2026-05-03T08:01:12.736Z</time></trkpt><trkpt lat="40.1755675" lon="20.0777839"><ele>184.0</ele><time>2026-05-03T08:01:13.736Z</time></trkpt><trkpt lat="40.1757697" lon="20.0777127"><ele>182.0</ele><time>2026-05-03T08:01:14.737Z</time></trkpt><trkpt lat="40.1759747" lon="20.077641"><ele>180.0</ele><time>2026-05-03T08:01:15.737Z</time></trkpt><trkpt lat="40.1761763" lon="20.0775696"><ele>178.0</ele><time>2026-05-03T08:01:16.736Z</time></trkpt><trkpt lat="40.1763779" lon="20.077501"><ele>180.66666666666669</ele><time>2026-05-03T08:01:17.737Z</time></trkpt><trkpt lat="40.1765828" lon="20.0774352"><ele>183.33333333333334</ele><time>2026-05-03T08:01:18.737Z</time></trkpt><trkpt lat="40.1767854" lon="20.0773744"><ele>186.0</ele><time>2026-05-03T08:01:19.737Z</time></trkpt><trkpt lat="40.1769887" lon="20.07732"><ele>186.0</ele><time>2026-05-03T08:01:20.736Z</time></trkpt><trkpt lat="40.1771777" lon="20.0772609"><ele>186.0</ele><time>2026-05-03T08:01:21.736Z</time></trkpt><trkpt lat="40.1773971" lon="20.0772008"><ele>186.0</ele><time>2026-05-03T08:01:22.737Z</time></trkpt><trkpt lat="40.1775969" lon="20.0771607"><ele>186.0</ele><time>2026-05-03T08:01:23.736Z</time></trkpt><trkpt lat="40.1778125" lon="20.0771246"><ele>186.0</ele><time>2026-05-03T08:01:24.736Z</time></trkpt><trkpt lat="40.1780307" lon="20.0770897"><ele>186.0</ele><time>2026-05-03T08:01:25.736Z</time></trkpt><trkpt lat="40.1782542" lon="20.0770507"><ele>186.0</ele><time>2026-05-03T08:01:26.737Z</time></trkpt><trkpt lat="40.1784744" lon="20.0770176"><ele>186.0</ele><time>2026-05-03T08:01:27.736Z</time></trkpt><trkpt lat="40.1786937" lon="20.0769855"><ele>186.0</ele><time>2026-05-03T08:01:28.737Z</time></trkpt><trkpt lat="40.1789118" lon="20.0769539"><ele>184.0</ele><time>2026-05-03T08:01:29.736Z</time></trkpt><trkpt lat="40.1791308" lon="20.0769228"><ele>182.0</ele><time>2026-05-03T08:01:30.736Z</time></trkpt><trkpt lat="40.179348" lon="20.0768906"><ele>180.0</ele><time>2026-05-03T08:01:31.736Z</time></trkpt><trkpt lat="40.1795653" lon="20.0768577"><ele>180.0</ele><time>2026-05-03T08:01:32.737Z</time></trkpt><trkpt lat="40.1797828" lon="20.0768239"><ele>180.0</ele><time>2026-05-03T08:01:33.737Z</time></trkpt><trkpt lat="40.1800011" lon="20.0767896"><ele>180.0</ele><time>2026-05-03T08:01:34.736Z</time></trkpt><trkpt lat="40.1802191" lon="20.0767544"><ele>180.33333333333334</ele><time>2026-05-03T08:01:35.736Z</time></trkpt><trkpt lat="40.1804397" lon="20.0767128"><ele>180.66666666666669</ele><time>2026-05-03T08:01:36.737Z</time></trkpt><trkpt lat="40.1806571" lon="20.0766727"><ele>181.0</ele><time>2026-05-03T08:01:37.736Z</time></trkpt><trkpt lat="40.1808752" lon="20.076631"><ele>182.66666666666669</ele><time>2026-05-03T08:01:38.737Z</time></trkpt><trkpt lat="40.1810896" lon="20.0765854"><ele>184.33333333333334</ele><time>2026-05-03T08:01:39.736Z</time></trkpt><trkpt lat="40.1813067" lon="20.0765409"><ele>186.0</ele><time>2026-05-03T08:01:40.736Z</time></trkpt><trkpt lat="40.1815187" lon="20.0764974"><ele>186.0</ele><time>2026-05-03T08:01:41.737Z</time></trkpt><trkpt lat="40.1817222" lon="20.0764538"><ele>186.0</ele><time>2026-05-03T08:01:42.735Z</time></trkpt><trkpt lat="40.1819284" lon="20.076415"><ele>186.0</ele><time>2026-05-03T08:01:43.736Z</time></trkpt><trkpt lat="40.1821354" lon="20.0763816"><ele>186.0</ele><time>2026-05-03T08:01:44.736Z</time></trkpt><trkpt lat="40.1823421" lon="20.0763536"><ele>186.0</ele><time>2026-05-03T08:01:45.736Z</time></trkpt><trkpt lat="40.1825504" lon="20.076333"><ele>186.0</ele><time>2026-05-03T08:01:46.736Z</time></trkpt><trkpt lat="40.1827617" lon="20.0763216"><ele>185.0</ele><time>2026-05-03T08:01:47.737Z</time></trkpt><trkpt lat="40.1829738" lon="20.0763331"><ele>184.0</ele><time>2026-05-03T08:01:48.737Z</time></trkpt><trkpt lat="40.1831815" lon="20.0763515"><ele>183.0</ele><time>2026-05-03T08:01:49.737Z</time></trkpt><trkpt lat="40.1833876" lon="20.0763811"><ele>183.0</ele><time>2026-05-03T08:01:50.736Z</time></trkpt><trkpt lat="40.183598" lon="20.0764279"><ele>183.0</ele><time>2026-05-03T08:01:51.736Z</time></trkpt><trkpt lat="40.183806" lon="20.0764878"><ele>183.0</ele><time>2026-05-03T08:01:52.737Z</time></trkpt><trkpt lat="40.184012" lon="20.0765673"><ele>182.33333333333334</ele><time>2026-05-03T08:01:53.737Z</time></trkpt><trkpt lat="40.1842132" lon="20.0766622"><ele>181.66666666666669</ele><time>2026-05-03T08:01:54.736Z</time></trkpt><trkpt lat="40.1844112" lon="20.076772"><ele>181.0</ele><time>2026-05-03T08:01:55.737Z</time></trkpt><trkpt lat="40.184605" lon="20.0768943"><ele>181.0</ele><time>2026-05-03T08:01:56.737Z</time></trkpt><trkpt lat="40.1847955" lon="20.0770268"><ele>181.0</ele><time>2026-05-03T08:01:57.736Z</time></trkpt><trkpt lat="40.1849838" lon="20.0771657"><ele>181.0</ele><time>2026-05-03T08:01:58.737Z</time></trkpt><trkpt lat="40.1851691" lon="20.0773078"><ele>180.66666666666669</ele><time>2026-05-03T08:01:59.737Z</time></trkpt><trkpt lat="40.1853543" lon="20.0774549"><ele>180.33333333333334</ele><time>2026-05-03T08:02:00.737Z</time></trkpt><trkpt lat="40.1855283" lon="20.0775983"><ele>180.0</ele><time>2026-05-03T08:02:01.737Z</time></trkpt><trkpt lat="40.1856928" lon="20.0777482"><ele>180.0</ele><time>2026-05-03T08:02:02.736Z</time></trkpt><trkpt lat="40.1858589" lon="20.0778936"><ele>180.0</ele><time>2026-05-03T08:02:03.736Z</time></trkpt><trkpt lat="40.1860287" lon="20.0780344"><ele>180.0</ele><time>2026-05-03T08:02:04.737Z</time></trkpt><trkpt lat="40.1861942" lon="20.0781795"><ele>179.66666666666666</ele><time>2026-05-03T08:02:05.737Z</time></trkpt><trkpt lat="40.1863605" lon="20.0783223"><ele>179.33333333333331</ele><time>2026-05-03T08:02:06.736Z</time></trkpt><trkpt lat="40.1865235" lon="20.078465"><ele>179.0</ele><time>2026-05-03T08:02:07.737Z</time></trkpt><trkpt lat="40.1866866" lon="20.0786039"><ele>179.0</ele><time>2026-05-03T08:02:08.737Z</time></trkpt><trkpt lat="40.1868486" lon="20.0787406"><ele>179.0</ele><time>2026-05-03T08:02:09.737Z</time></trkpt><trkpt lat="40.1870082" lon="20.0788771"><ele>179.0</ele><time>2026-05-03T08:02:10.737Z</time></trkpt><trkpt lat="40.1871645" lon="20.0790126"><ele>178.33333333333331</ele><time>2026-05-03T08:02:11.736Z</time></trkpt><trkpt lat="40.1873183" lon="20.0791478"><ele>177.66666666666666</ele><time>2026-05-03T08:02:12.736Z</time></trkpt><trkpt lat="40.1874695" lon="20.0792788"><ele>177.0</ele><time>2026-05-03T08:02:13.736Z</time></trkpt><trkpt lat="40.1876237" lon="20.0794093"><ele>177.0</ele><time>2026-05-03T08:02:14.736Z</time></trkpt><trkpt lat="40.1877748" lon="20.0795383"><ele>177.0</ele><time>2026-05-03T08:02:15.736Z</time></trkpt><trkpt lat="40.1879209" lon="20.0796662"><ele>177.0</ele><time>2026-05-03T08:02:16.736Z</time></trkpt><trkpt lat="40.1880723" lon="20.0797953"><ele>176.33333333333334</ele><time>2026-05-03T08:02:17.737Z</time></trkpt><trkpt lat="40.1882233" lon="20.0799239"><ele>175.66666666666669</ele><time>2026-05-03T08:02:18.735Z</time></trkpt><trkpt lat="40.1883756" lon="20.080056"><ele>175.0</ele><time>2026-05-03T08:02:19.736Z</time></trkpt><trkpt lat="40.1885327" lon="20.0801811"><ele>175.0</ele><time>2026-05-03T08:02:20.736Z</time></trkpt><trkpt lat="40.1886856" lon="20.0803105"><ele>175.0</ele><time>2026-05-03T08:02:21.736Z</time></trkpt><trkpt lat="40.1888359" lon="20.0804374"><ele>175.0</ele><time>2026-05-03T08:02:22.736Z</time></trkpt><trkpt lat="40.1889837" lon="20.0805574"><ele>174.33333333333334</ele><time>2026-05-03T08:02:23.737Z</time></trkpt><trkpt lat="40.1891296" lon="20.0806609"><ele>173.66666666666666</ele><time>2026-05-03T08:02:24.736Z</time></trkpt><trkpt lat="40.1892689" lon="20.0807697"><ele>173.0</ele><time>2026-05-03T08:02:25.736Z</time></trkpt><trkpt lat="40.1894054" lon="20.0808653"><ele>173.0</ele><time>2026-05-03T08:02:26.736Z</time></trkpt><trkpt lat="40.1895374" lon="20.0809502"><ele>173.0</ele><time>2026-05-03T08:02:27.736Z</time></trkpt><trkpt lat="40.1896653" lon="20.0810287"><ele>173.0</ele><time>2026-05-03T08:02:28.736Z</time></trkpt><trkpt lat="40.1897851" lon="20.0810918"><ele>173.0</ele><time>2026-05-03T08:02:29.736Z</time></trkpt><trkpt lat="40.1898944" lon="20.0811449"><ele>175.0</ele><time>2026-05-03T08:02:30.736Z</time></trkpt><trkpt lat="40.1899964" lon="20.0811917"><ele>177.0</ele><time>2026-05-03T08:02:31.737Z</time></trkpt><trkpt lat="40.1900987" lon="20.0812345"><ele>179.0</ele><time>2026-05-03T08:02:32.736Z</time></trkpt><trkpt lat="40.1902097" lon="20.0812753"><ele>181.0</ele><time>2026-05-03T08:02:33.736Z</time></trkpt><trkpt lat="40.1903263" lon="20.0813119"><ele>181.0</ele><time>2026-05-03T08:02:34.736Z</time></trkpt><trkpt lat="40.1904484" lon="20.0813513"><ele>181.0</ele><time>2026-05-03T08:02:35.737Z</time></trkpt><trkpt lat="40.1905619" lon="20.0813798"><ele>181.0</ele><time>2026-05-03T08:02:36.737Z</time></trkpt><trkpt lat="40.1906793" lon="20.0814154"><ele>181.0</ele><time>2026-05-03T08:02:37.737Z</time></trkpt><trkpt lat="40.1907982" lon="20.0814583"><ele>181.75</ele><time>2026-05-03T08:02:38.737Z</time></trkpt><trkpt lat="40.1909111" lon="20.0814953"><ele>182.5</ele><time>2026-05-03T08:02:39.736Z</time></trkpt><trkpt lat="40.1910289" lon="20.0815345"><ele>183.25</ele><time>2026-05-03T08:02:40.737Z</time></trkpt><trkpt lat="40.1911521" lon="20.0815635"><ele>184.0</ele><time>2026-05-03T08:02:41.737Z</time></trkpt><trkpt lat="40.191279" lon="20.0815965"><ele>181.0</ele><time>2026-05-03T08:02:42.737Z</time></trkpt><trkpt lat="40.1914044" lon="20.0816345"><ele>178.0</ele><time>2026-05-03T08:02:43.737Z</time></trkpt><trkpt lat="40.1915381" lon="20.0816801"><ele>175.0</ele><time>2026-05-03T08:02:44.737Z</time></trkpt><trkpt lat="40.1916783" lon="20.0817249"><ele>172.0</ele><time>2026-05-03T08:02:45.736Z</time></trkpt><trkpt lat="40.1918235" lon="20.0817677"><ele>172.0</ele><time>2026-05-03T08:02:46.737Z</time></trkpt><trkpt lat="40.1919718" lon="20.0818119"><ele>172.0</ele><time>2026-05-03T08:02:47.737Z</time></trkpt><trkpt lat="40.1921278" lon="20.0818488"><ele>172.0</ele><time>2026-05-03T08:02:48.737Z</time></trkpt><trkpt lat="40.1922926" lon="20.0818859"><ele>170.66666666666669</ele><time>2026-05-03T08:02:49.737Z</time></trkpt><trkpt lat="40.1924594" lon="20.0819276"><ele>169.33333333333334</ele><time>2026-05-03T08:02:50.737Z</time></trkpt><trkpt lat="40.1926242" lon="20.0819713"><ele>168.0</ele><time>2026-05-03T08:02:51.736Z</time></trkpt><trkpt lat="40.1927824" lon="20.0820147"><ele>168.0</ele><time>2026-05-03T08:02:52.737Z</time></trkpt><trkpt lat="40.192942" lon="20.0820595"><ele>168.0</ele><time>2026-05-03T08:02:53.736Z</time></trkpt><trkpt lat="40.1931044" lon="20.0821055"><ele>168.0</ele><time>2026-05-03T08:02:54.737Z</time></trkpt><trkpt lat="40.1932678" lon="20.0821534"><ele>168.33333333333334</ele><time>2026-05-03T08:02:55.736Z</time></trkpt><trkpt lat="40.1934356" lon="20.0822004"><ele>168.66666666666669</ele><time>2026-05-03T08:02:56.737Z</time></trkpt><trkpt lat="40.193616" lon="20.0822516"><ele>169.0</ele><time>2026-05-03T08:02:57.737Z</time></trkpt><trkpt lat="40.193795" lon="20.0822973"><ele>169.0</ele><time>2026-05-03T08:02:58.737Z</time></trkpt><trkpt lat="40.1939746" lon="20.0823465"><ele>169.0</ele><time>2026-05-03T08:02:59.737Z</time></trkpt><trkpt lat="40.1941592" lon="20.0823946"><ele>169.0</ele><time>2026-05-03T08:03:00.736Z</time></trkpt><trkpt lat="40.1943536" lon="20.0824439"><ele>168.66666666666669</ele><time>2026-05-03T08:03:01.737Z</time></trkpt><trkpt lat="40.1945604" lon="20.0824902"><ele>168.33333333333334</ele><time>2026-05-03T08:03:02.736Z</time></trkpt><trkpt lat="40.1947789" lon="20.0825422"><ele>168.0</ele><time>2026-05-03T08:03:03.736Z</time></trkpt><trkpt lat="40.1950041" lon="20.082615"><ele>168.0</ele><time>2026-05-03T08:03:04.737Z</time></trkpt><trkpt lat="40.1952346" lon="20.0827063"><ele>168.0</ele><time>2026-05-03T08:03:05.736Z</time></trkpt><trkpt lat="40.1954597" lon="20.0828199"><ele>170.0</ele><time>2026-05-03T08:03:06.736Z</time></trkpt><trkpt lat="40.1956803" lon="20.0829467"><ele>172.0</ele><time>2026-05-03T08:03:07.737Z</time></trkpt><trkpt lat="40.1958952" lon="20.0830917"><ele>172.0</ele><time>2026-05-03T08:03:08.737Z</time></trkpt><trkpt lat="40.196105" lon="20.0832549"><ele>172.0</ele><time>2026-05-03T08:03:09.736Z</time></trkpt><trkpt lat="40.1963103" lon="20.0834384"><ele>172.0</ele><time>2026-05-03T08:03:10.736Z</time></trkpt><trkpt lat="40.1964999" lon="20.0836423"><ele>172.0</ele><time>2026-05-03T08:03:11.736Z</time></trkpt><trkpt lat="40.1966766" lon="20.0838611"><ele>172.0</ele><time>2026-05-03T08:03:12.737Z</time></trkpt><trkpt lat="40.1968376" lon="20.0840795"><ele>172.0</ele><time>2026-05-03T08:03:13.736Z</time></trkpt><trkpt lat="40.1969914" lon="20.0843031"><ele>170.5</ele><time>2026-05-03T08:03:14.736Z</time></trkpt><trkpt lat="40.1971446" lon="20.0845341"><ele>169.0</ele><time>2026-05-03T08:03:15.736Z</time></trkpt><trkpt lat="40.1972985" lon="20.0847696"><ele>168.0</ele><time>2026-05-03T08:03:16.735Z</time></trkpt><trkpt lat="40.1974532" lon="20.0850076"><ele>167.0</ele><time>2026-05-03T08:03:17.736Z</time></trkpt><trkpt lat="40.1976085" lon="20.0852437"><ele>167.0</ele><time>2026-05-03T08:03:18.737Z</time></trkpt><trkpt lat="40.1977662" lon="20.0854802"><ele>167.0</ele><time>2026-05-03T08:03:19.736Z</time></trkpt><trkpt lat="40.1979297" lon="20.0857214"><ele>165.0</ele><time>2026-05-03T08:03:20.736Z</time></trkpt><trkpt lat="40.1980996" lon="20.0859725"><ele>163.0</ele><time>2026-05-03T08:03:21.737Z</time></trkpt><trkpt lat="40.1982686" lon="20.0862227"><ele>163.0</ele><time>2026-05-03T08:03:22.736Z</time></trkpt><trkpt lat="40.1984398" lon="20.0864868"><ele>163.0</ele><time>2026-05-03T08:03:23.736Z</time></trkpt><trkpt lat="40.1986018" lon="20.0867474"><ele>162.0</ele><time>2026-05-03T08:03:24.737Z</time></trkpt><trkpt lat="40.1987612" lon="20.0870099"><ele>161.0</ele><time>2026-05-03T08:03:25.736Z</time></trkpt><trkpt lat="40.1989215" lon="20.0872674"><ele>163.0</ele><time>2026-05-03T08:03:26.735Z</time></trkpt><trkpt lat="40.1990853" lon="20.0875262"><ele>165.0</ele><time>2026-05-03T08:03:27.736Z</time></trkpt><trkpt lat="40.1992463" lon="20.0877816"><ele>165.0</ele><time>2026-05-03T08:03:28.736Z</time></trkpt><trkpt lat="40.1994071" lon="20.0880341"><ele>165.0</ele><time>2026-05-03T08:03:29.737Z</time></trkpt><trkpt lat="40.1995673" lon="20.0882856"><ele>165.0</ele><time>2026-05-03T08:03:30.736Z</time></trkpt><trkpt lat="40.1997262" lon="20.0885356"><ele>165.0</ele><time>2026-05-03T08:03:31.737Z</time></trkpt><trkpt lat="40.1998831" lon="20.0887841"><ele>165.0</ele><time>2026-05-03T08:03:32.736Z</time></trkpt><trkpt lat="40.2000393" lon="20.0890274"><ele>165.0</ele><time>2026-05-03T08:03:33.737Z</time></trkpt><trkpt lat="40.2001948" lon="20.0892664"><ele>164.5</ele><time>2026-05-03T08:03:34.736Z</time></trkpt><trkpt lat="40.2003489" lon="20.0895017"><ele>164.0</ele><time>2026-05-03T08:03:35.737Z</time></trkpt><trkpt lat="40.2005001" lon="20.0897333"><ele>163.33333333333331</ele><time>2026-05-03T08:03:36.737Z</time></trkpt><trkpt lat="40.200647" lon="20.0899603"><ele>162.66666666666666</ele><time>2026-05-03T08:03:37.736Z</time></trkpt><trkpt lat="40.2007905" lon="20.0901758"><ele>162.0</ele><time>2026-05-03T08:03:38.737Z</time></trkpt><trkpt lat="40.2009352" lon="20.0903745"><ele>163.0</ele><time>2026-05-03T08:03:39.737Z</time></trkpt><trkpt lat="40.2010859" lon="20.0905533"><ele>164.0</ele><time>2026-05-03T08:03:40.736Z</time></trkpt><trkpt lat="40.201236" lon="20.0907228"><ele>165.0</ele><time>2026-05-03T08:03:41.736Z</time></trkpt><trkpt lat="40.2014032" lon="20.0908737"><ele>168.33333333333334</ele><time>2026-05-03T08:03:42.737Z</time></trkpt><trkpt lat="40.2015676" lon="20.0909978"><ele>171.66666666666669</ele><time>2026-05-03T08:03:43.737Z</time></trkpt><trkpt lat="40.2017502" lon="20.0911025"><ele>175.0</ele><time>2026-05-03T08:03:44.736Z</time></trkpt><trkpt lat="40.2019355" lon="20.0911963"><ele>175.0</ele><time>2026-05-03T08:03:45.736Z</time></trkpt><trkpt lat="40.2021209" lon="20.0912699"><ele>175.0</ele><time>2026-05-03T08:03:46.737Z</time></trkpt><trkpt lat="40.2023073" lon="20.0913304"><ele>175.0</ele><time>2026-05-03T08:03:47.737Z</time></trkpt><trkpt lat="40.2025002" lon="20.0913718"><ele>178.33333333333334</ele><time>2026-05-03T08:03:48.737Z</time></trkpt><trkpt lat="40.202697" lon="20.0913864"><ele>181.66666666666666</ele><time>2026-05-03T08:03:49.737Z</time></trkpt><trkpt lat="40.202896" lon="20.0913812"><ele>185.0</ele><time>2026-05-03T08:03:50.737Z</time></trkpt><trkpt lat="40.203104" lon="20.0913492"><ele>178.66666666666666</ele><time>2026-05-03T08:03:51.737Z</time></trkpt><trkpt lat="40.203315" lon="20.0912995"><ele>172.33333333333334</ele><time>2026-05-03T08:03:52.736Z</time></trkpt><trkpt lat="40.2035262" lon="20.0912277"><ele>166.0</ele><time>2026-05-03T08:03:53.736Z</time></trkpt><trkpt lat="40.2037324" lon="20.0911297"><ele>166.0</ele><time>2026-05-03T08:03:54.737Z</time></trkpt><trkpt lat="40.2039333" lon="20.0910009"><ele>166.0</ele><time>2026-05-03T08:03:55.736Z</time></trkpt><trkpt lat="40.2041268" lon="20.0908494"><ele>166.0</ele><time>2026-05-03T08:03:56.736Z</time></trkpt><trkpt lat="40.2043088" lon="20.0906874"><ele>166.0</ele><time>2026-05-03T08:03:57.736Z</time></trkpt><trkpt lat="40.2044879" lon="20.0905123"><ele>166.0</ele><time>2026-05-03T08:03:58.737Z</time></trkpt><trkpt lat="40.2046635" lon="20.0903334"><ele>166.0</ele><time>2026-05-03T08:03:59.736Z</time></trkpt><trkpt lat="40.2048378" lon="20.0901505"><ele>166.0</ele><time>2026-05-03T08:04:00.736Z</time></trkpt><trkpt lat="40.205014" lon="20.0899659"><ele>166.0</ele><time>2026-05-03T08:04:01.737Z</time></trkpt><trkpt lat="40.2051919" lon="20.0897915"><ele>166.0</ele><time>2026-05-03T08:04:02.736Z</time></trkpt><trkpt lat="40.2053741" lon="20.0896306"><ele>164.33333333333334</ele><time>2026-05-03T08:04:03.736Z</time></trkpt><trkpt lat="40.2055602" lon="20.0894709"><ele>162.66666666666666</ele><time>2026-05-03T08:04:04.737Z</time></trkpt><trkpt lat="40.2057499" lon="20.0893265"><ele>161.0</ele><time>2026-05-03T08:04:05.736Z</time></trkpt><trkpt lat="40.2059457" lon="20.0892085"><ele>161.0</ele><time>2026-05-03T08:04:06.737Z</time></trkpt><trkpt lat="40.2061457" lon="20.0891087"><ele>161.0</ele><time>2026-05-03T08:04:07.737Z</time></trkpt><trkpt lat="40.206344" lon="20.0890343"><ele>161.0</ele><time>2026-05-03T08:04:08.737Z</time></trkpt><trkpt lat="40.2065424" lon="20.0889735"><ele>161.0</ele><time>2026-05-03T08:04:09.737Z</time></trkpt><trkpt lat="40.2067335" lon="20.0889293"><ele>161.0</ele><time>2026-05-03T08:04:10.736Z</time></trkpt><trkpt lat="40.2069296" lon="20.0889015"><ele>161.0</ele><time>2026-05-03T08:04:11.737Z</time></trkpt><trkpt lat="40.2071196" lon="20.0888942"><ele>161.0</ele><time>2026-05-03T08:04:12.737Z</time></trkpt><trkpt lat="40.2073059" lon="20.0889016"><ele>161.0</ele><time>2026-05-03T08:04:13.736Z</time></trkpt><trkpt lat="40.2074884" lon="20.0889196"><ele>161.0</ele><time>2026-05-03T08:04:14.736Z</time></trkpt><trkpt lat="40.2076703" lon="20.0889477"><ele>160.66666666666666</ele><time>2026-05-03T08:04:15.737Z</time></trkpt><trkpt lat="40.2078544" lon="20.0889745"><ele>160.33333333333334</ele><time>2026-05-03T08:04:16.736Z</time></trkpt><trkpt lat="40.2080505" lon="20.088995"><ele>160.0</ele><time>2026-05-03T08:04:17.737Z</time></trkpt><trkpt lat="40.2082625" lon="20.0890064"><ele>162.0</ele><time>2026-05-03T08:04:18.737Z</time></trkpt><trkpt lat="40.208476" lon="20.0890181"><ele>164.0</ele><time>2026-05-03T08:04:19.736Z</time></trkpt><trkpt lat="40.2086913" lon="20.089019"><ele>166.0</ele><time>2026-05-03T08:04:20.737Z</time></trkpt><trkpt lat="40.2089033" lon="20.0889982"><ele>166.66666666666669</ele><time>2026-05-03T08:04:21.736Z</time></trkpt><trkpt lat="40.2091191" lon="20.0889561"><ele>167.33333333333334</ele><time>2026-05-03T08:04:22.737Z</time></trkpt><trkpt lat="40.2093317" lon="20.0888967"><ele>168.0</ele><time>2026-05-03T08:04:23.736Z</time></trkpt><trkpt lat="40.2095311" lon="20.088835"><ele>168.0</ele><time>2026-05-03T08:04:24.736Z</time></trkpt><trkpt lat="40.2097334" lon="20.0887675"><ele>168.0</ele><time>2026-05-03T08:04:25.735Z</time></trkpt><trkpt lat="40.2099391" lon="20.088692"><ele>168.0</ele><time>2026-05-03T08:04:26.736Z</time></trkpt><trkpt lat="40.2101497" lon="20.0886094"><ele>168.66666666666666</ele><time>2026-05-03T08:04:27.737Z</time></trkpt><trkpt lat="40.2103585" lon="20.0885415"><ele>169.33333333333331</ele><time>2026-05-03T08:04:28.737Z</time></trkpt><trkpt lat="40.2105692" lon="20.0884673"><ele>170.0</ele><time>2026-05-03T08:04:29.737Z</time></trkpt><trkpt lat="40.2107821" lon="20.0884005"><ele>168.66666666666666</ele><time>2026-05-03T08:04:30.737Z</time></trkpt><trkpt lat="40.2109925" lon="20.0883239"><ele>167.33333333333334</ele><time>2026-05-03T08:04:31.737Z</time></trkpt><trkpt lat="40.2112063" lon="20.0882578"><ele>166.0</ele><time>2026-05-03T08:04:32.737Z</time></trkpt><trkpt lat="40.2114206" lon="20.0881913"><ele>171.0</ele><time>2026-05-03T08:04:33.737Z</time></trkpt><trkpt lat="40.2116357" lon="20.0881231"><ele>176.0</ele><time>2026-05-03T08:04:34.737Z</time></trkpt><trkpt lat="40.2118511" lon="20.0880535"><ele>181.0</ele><time>2026-05-03T08:04:35.735Z</time></trkpt><trkpt lat="40.2120639" lon="20.0879845"><ele>181.0</ele><time>2026-05-03T08:04:36.737Z</time></trkpt><trkpt lat="40.2122779" lon="20.0879144"><ele>181.0</ele><time>2026-05-03T08:04:37.736Z</time></trkpt><trkpt lat="40.2124888" lon="20.087838"><ele>181.0</ele><time>2026-05-03T08:04:38.737Z</time></trkpt><trkpt lat="40.2126946" lon="20.0877543"><ele>182.0</ele><time>2026-05-03T08:04:39.736Z</time></trkpt><trkpt lat="40.2128981" lon="20.0876601"><ele>183.0</ele><time>2026-05-03T08:04:40.735Z</time></trkpt><trkpt lat="40.2131002" lon="20.0875626"><ele>184.0</ele><time>2026-05-03T08:04:41.736Z</time></trkpt><trkpt lat="40.2133009" lon="20.0874632"><ele>189.33333333333334</ele><time>2026-05-03T08:04:42.737Z</time></trkpt><trkpt lat="40.2134997" lon="20.0873668"><ele>194.66666666666669</ele><time>2026-05-03T08:04:43.736Z</time></trkpt><trkpt lat="40.2136982" lon="20.0872747"><ele>200.0</ele><time>2026-05-03T08:04:44.736Z</time></trkpt><trkpt lat="40.2138989" lon="20.0871757"><ele>194.33333333333334</ele><time>2026-05-03T08:04:45.737Z</time></trkpt><trkpt lat="40.2141013" lon="20.0871012"><ele>188.66666666666669</ele><time>2026-05-03T08:04:46.737Z</time></trkpt><trkpt lat="40.2143083" lon="20.0870473"><ele>183.0</ele><time>2026-05-03T08:04:47.737Z</time></trkpt><trkpt lat="40.2145149" lon="20.0870062"><ele>183.0</ele><time>2026-05-03T08:04:48.736Z</time></trkpt><trkpt lat="40.2147182" lon="20.0869735"><ele>183.0</ele><time>2026-05-03T08:04:49.737Z</time></trkpt><trkpt lat="40.214921" lon="20.0869352"><ele>183.0</ele><time>2026-05-03T08:04:50.737Z</time></trkpt><trkpt lat="40.2151181" lon="20.0868834"><ele>180.66666666666666</ele><time>2026-05-03T08:04:51.737Z</time></trkpt><trkpt lat="40.2153122" lon="20.0868105"><ele>178.33333333333331</ele><time>2026-05-03T08:04:52.736Z</time></trkpt><trkpt lat="40.2155015" lon="20.0867165"><ele>176.0</ele><time>2026-05-03T08:04:53.737Z</time></trkpt><trkpt lat="40.2156876" lon="20.0866071"><ele>182.66666666666666</ele><time>2026-05-03T08:04:54.737Z</time></trkpt><trkpt lat="40.2158707" lon="20.0864945"><ele>189.33333333333331</ele><time>2026-05-03T08:04:55.737Z</time></trkpt><trkpt lat="40.2160501" lon="20.0863769"><ele>196.0</ele><time>2026-05-03T08:04:56.737Z</time></trkpt><trkpt lat="40.216229" lon="20.0862734"><ele>196.0</ele><time>2026-05-03T08:04:57.737Z</time></trkpt><trkpt lat="40.2164213" lon="20.0861878"><ele>196.0</ele><time>2026-05-03T08:04:58.737Z</time></trkpt><trkpt lat="40.2166198" lon="20.0861138"><ele>196.0</ele><time>2026-05-03T08:04:59.736Z</time></trkpt><trkpt lat="40.2168245" lon="20.0860541"><ele>191.66666666666666</ele><time>2026-05-03T08:05:00.737Z</time></trkpt><trkpt lat="40.2170288" lon="20.0860027"><ele>187.33333333333331</ele><time>2026-05-03T08:05:01.736Z</time></trkpt><trkpt lat="40.2172332" lon="20.0859611"><ele>183.0</ele><time>2026-05-03T08:05:02.737Z</time></trkpt><trkpt lat="40.2174378" lon="20.0859149"><ele>179.33333333333334</ele><time>2026-05-03T08:05:03.736Z</time></trkpt><trkpt lat="40.2176454" lon="20.0858878"><ele>175.66666666666669</ele><time>2026-05-03T08:05:04.737Z</time></trkpt><trkpt lat="40.2178448" lon="20.0858641"><ele>172.0</ele><time>2026-05-03T08:05:05.736Z</time></trkpt><trkpt lat="40.218047" lon="20.0858532"><ele>172.33333333333334</ele><time>2026-05-03T08:05:06.736Z</time></trkpt><trkpt lat="40.218252" lon="20.0858591"><ele>172.66666666666666</ele><time>2026-05-03T08:05:07.736Z</time></trkpt><trkpt lat="40.2184522" lon="20.0858699"><ele>173.0</ele><time>2026-05-03T08:05:08.737Z</time></trkpt><trkpt lat="40.2186616" lon="20.0858876"><ele>173.0</ele><time>2026-05-03T08:05:09.737Z</time></trkpt><trkpt lat="40.2188673" lon="20.0859078"><ele>173.0</ele><time>2026-05-03T08:05:10.736Z</time></trkpt><trkpt lat="40.2190654" lon="20.0859307"><ele>173.0</ele><time>2026-05-03T08:05:11.737Z</time></trkpt><trkpt lat="40.2192615" lon="20.0859627"><ele>174.33333333333331</ele><time>2026-05-03T08:05:12.737Z</time></trkpt><trkpt lat="40.2194647" lon="20.0859973"><ele>175.66666666666666</ele><time>2026-05-03T08:05:13.737Z</time></trkpt><trkpt lat="40.2196644" lon="20.0860476"><ele>177.0</ele><time>2026-05-03T08:05:14.737Z</time></trkpt><trkpt lat="40.2198631" lon="20.0861274"><ele>177.33333333333334</ele><time>2026-05-03T08:05:15.736Z</time></trkpt><trkpt lat="40.2200581" lon="20.0862319"><ele>177.66666666666669</ele><time>2026-05-03T08:05:16.737Z</time></trkpt><trkpt lat="40.2202456" lon="20.0863628"><ele>178.0</ele><time>2026-05-03T08:05:17.737Z</time></trkpt><trkpt lat="40.2204176" lon="20.0865111"><ele>180.66666666666669</ele><time>2026-05-03T08:05:18.737Z</time></trkpt><trkpt lat="40.2205877" lon="20.0866658"><ele>183.33333333333334</ele><time>2026-05-03T08:05:19.736Z</time></trkpt><trkpt lat="40.2207519" lon="20.0868172"><ele>186.0</ele><time>2026-05-03T08:05:20.736Z</time></trkpt><trkpt lat="40.2209112" lon="20.0869664"><ele>186.0</ele><time>2026-05-03T08:05:21.736Z</time></trkpt><trkpt lat="40.2210693" lon="20.0871028"><ele>186.0</ele><time>2026-05-03T08:05:22.737Z</time></trkpt><trkpt lat="40.221228" lon="20.0872189"><ele>186.0</ele><time>2026-05-03T08:05:23.736Z</time></trkpt><trkpt lat="40.2213863" lon="20.0873101"><ele>191.33333333333331</ele><time>2026-05-03T08:05:24.737Z</time></trkpt><trkpt lat="40.2215439" lon="20.0873719"><ele>196.66666666666666</ele><time>2026-05-03T08:05:25.736Z</time></trkpt><trkpt lat="40.2217074" lon="20.0873977"><ele>202.0</ele><time>2026-05-03T08:05:26.736Z</time></trkpt><trkpt lat="40.2218807" lon="20.0873956"><ele>202.0</ele><time>2026-05-03T08:05:27.737Z</time></trkpt><trkpt lat="40.2220595" lon="20.0873618"><ele>202.0</ele><time>2026-05-03T08:05:28.737Z</time></trkpt><trkpt lat="40.2222408" lon="20.0873055"><ele>202.0</ele><time>2026-05-03T08:05:29.737Z</time></trkpt><trkpt lat="40.2224223" lon="20.0872383"><ele>197.66666666666666</ele><time>2026-05-03T08:05:30.736Z</time></trkpt><trkpt lat="40.2226078" lon="20.0871637"><ele>193.33333333333331</ele><time>2026-05-03T08:05:31.737Z</time></trkpt><trkpt lat="40.222793" lon="20.0870842"><ele>189.0</ele><time>2026-05-03T08:05:32.737Z</time></trkpt><trkpt lat="40.2229778" lon="20.0870026"><ele>187.0</ele><time>2026-05-03T08:05:33.736Z</time></trkpt><trkpt lat="40.2231631" lon="20.0869226"><ele>185.0</ele><time>2026-05-03T08:05:34.736Z</time></trkpt><trkpt lat="40.2233502" lon="20.0868393"><ele>183.0</ele><time>2026-05-03T08:05:35.737Z</time></trkpt><trkpt lat="40.223539" lon="20.0867496"><ele>183.0</ele><time>2026-05-03T08:05:36.736Z</time></trkpt><trkpt lat="40.2237297" lon="20.0866508"><ele>183.0</ele><time>2026-05-03T08:05:37.736Z</time></trkpt><trkpt lat="40.2239209" lon="20.0865452"><ele>183.0</ele><time>2026-05-03T08:05:38.737Z</time></trkpt><trkpt lat="40.2241114" lon="20.0864343"><ele>188.33333333333331</ele><time>2026-05-03T08:05:39.736Z</time></trkpt><trkpt lat="40.224301" lon="20.0863218"><ele>193.66666666666666</ele><time>2026-05-03T08:05:40.737Z</time></trkpt><trkpt lat="40.224489" lon="20.0862107"><ele>199.0</ele><time>2026-05-03T08:05:41.736Z</time></trkpt><trkpt lat="40.2246751" lon="20.0861003"><ele>193.66666666666666</ele><time>2026-05-03T08:05:42.736Z</time></trkpt><trkpt lat="40.2248591" lon="20.0859936"><ele>188.33333333333331</ele><time>2026-05-03T08:05:43.737Z</time></trkpt><trkpt lat="40.2250417" lon="20.0858887"><ele>183.0</ele><time>2026-05-03T08:05:44.737Z</time></trkpt><trkpt lat="40.2252401" lon="20.0858"><ele>188.0</ele><time>2026-05-03T08:05:45.737Z</time></trkpt><trkpt lat="40.2254466" lon="20.0857359"><ele>193.0</ele><time>2026-05-03T08:05:46.736Z</time></trkpt><trkpt lat="40.2256607" lon="20.085691"><ele>198.0</ele><time>2026-05-03T08:05:47.736Z</time></trkpt><trkpt lat="40.225878" lon="20.0856489"><ele>198.0</ele><time>2026-05-03T08:05:48.737Z</time></trkpt><trkpt lat="40.2260981" lon="20.0856022"><ele>198.0</ele><time>2026-05-03T08:05:49.736Z</time></trkpt><trkpt lat="40.226318" lon="20.08555"><ele>198.0</ele><time>2026-05-03T08:05:50.737Z</time></trkpt><trkpt lat="40.2265413" lon="20.0854895"><ele>194.0</ele><time>2026-05-03T08:05:51.736Z</time></trkpt><trkpt lat="40.2267696" lon="20.0854246"><ele>190.0</ele><time>2026-05-03T08:05:52.736Z</time></trkpt><trkpt lat="40.2269924" lon="20.0853597"><ele>190.0</ele><time>2026-05-03T08:05:53.737Z</time></trkpt><trkpt lat="40.2272146" lon="20.085294"><ele>190.0</ele><time>2026-05-03T08:05:54.736Z</time></trkpt><trkpt lat="40.2274344" lon="20.0852357"><ele>187.33333333333334</ele><time>2026-05-03T08:05:55.737Z</time></trkpt><trkpt lat="40.2276504" lon="20.0851763"><ele>184.66666666666666</ele><time>2026-05-03T08:05:56.736Z</time></trkpt><trkpt lat="40.2278656" lon="20.0851373"><ele>182.0</ele><time>2026-05-03T08:05:57.737Z</time></trkpt><trkpt lat="40.2280776" lon="20.0851051"><ele>181.33333333333331</ele><time>2026-05-03T08:05:58.737Z</time></trkpt><trkpt lat="40.2282788" lon="20.085089"><ele>180.66666666666666</ele><time>2026-05-03T08:05:59.737Z</time></trkpt><trkpt lat="40.2284739" lon="20.0850619"><ele>180.0</ele><time>2026-05-03T08:06:00.737Z</time></trkpt><trkpt lat="40.2286633" lon="20.0850221"><ele>180.0</ele><time>2026-05-03T08:06:01.737Z</time></trkpt><trkpt lat="40.2288462" lon="20.0849619"><ele>180.0</ele><time>2026-05-03T08:06:02.736Z</time></trkpt><trkpt lat="40.2290117" lon="20.0848926"><ele>180.0</ele><time>2026-05-03T08:06:03.736Z</time></trkpt><trkpt lat="40.2291624" lon="20.0847999"><ele>187.33333333333331</ele><time>2026-05-03T08:06:04.736Z</time></trkpt><trkpt lat="40.2292998" lon="20.0846746"><ele>194.66666666666666</ele><time>2026-05-03T08:06:05.737Z</time></trkpt><trkpt lat="40.2294309" lon="20.0845212"><ele>202.0</ele><time>2026-05-03T08:06:06.736Z</time></trkpt><trkpt lat="40.2295617" lon="20.084353"><ele>202.0</ele><time>2026-05-03T08:06:07.737Z</time></trkpt><trkpt lat="40.2297026" lon="20.0841759"><ele>202.0</ele><time>2026-05-03T08:06:08.737Z</time></trkpt><trkpt lat="40.2298469" lon="20.0839937"><ele>202.0</ele><time>2026-05-03T08:06:09.736Z</time></trkpt><trkpt lat="40.2299914" lon="20.0838147"><ele>194.0</ele><time>2026-05-03T08:06:10.737Z</time></trkpt><trkpt lat="40.2301417" lon="20.0836303"><ele>186.0</ele><time>2026-05-03T08:06:11.736Z</time></trkpt><trkpt lat="40.2302955" lon="20.0834391"><ele>178.0</ele><time>2026-05-03T08:06:12.737Z</time></trkpt><trkpt lat="40.230466" lon="20.0832664"><ele>180.0</ele><time>2026-05-03T08:06:13.736Z</time></trkpt><trkpt lat="40.2306401" lon="20.083105"><ele>182.0</ele><time>2026-05-03T08:06:14.737Z</time></trkpt><trkpt lat="40.2308075" lon="20.0829595"><ele>184.0</ele><time>2026-05-03T08:06:15.737Z</time></trkpt><trkpt lat="40.2309757" lon="20.0828257"><ele>185.0</ele><time>2026-05-03T08:06:16.737Z</time></trkpt><trkpt lat="40.2311433" lon="20.0827175"><ele>186.0</ele><time>2026-05-03T08:06:17.737Z</time></trkpt><trkpt lat="40.2313068" lon="20.082622"><ele>187.0</ele><time>2026-05-03T08:06:18.737Z</time></trkpt><trkpt lat="40.2314672" lon="20.0825281"><ele>193.0</ele><time>2026-05-03T08:06:19.737Z</time></trkpt><trkpt lat="40.2316203" lon="20.0824292"><ele>199.0</ele><time>2026-05-03T08:06:20.737Z</time></trkpt><trkpt lat="40.2317629" lon="20.0823305"><ele>205.0</ele><time>2026-05-03T08:06:21.737Z</time></trkpt><trkpt lat="40.2319037" lon="20.0822311"><ele>205.0</ele><time>2026-05-03T08:06:22.736Z</time></trkpt><trkpt lat="40.2320412" lon="20.0821357"><ele>205.0</ele><time>2026-05-03T08:06:23.736Z</time></trkpt><trkpt lat="40.2321708" lon="20.0820333"><ele>205.0</ele><time>2026-05-03T08:06:24.736Z</time></trkpt><trkpt lat="40.2322977" lon="20.0819255"><ele>207.0</ele><time>2026-05-03T08:06:25.736Z</time></trkpt><trkpt lat="40.2324216" lon="20.0818075"><ele>209.0</ele><time>2026-05-03T08:06:26.736Z</time></trkpt><trkpt lat="40.2325407" lon="20.0816856"><ele>211.0</ele><time>2026-05-03T08:06:27.737Z</time></trkpt><trkpt lat="40.2326594" lon="20.081573"><ele>211.0</ele><time>2026-05-03T08:06:28.737Z</time></trkpt><trkpt lat="40.2327733" lon="20.081467"><ele>211.0</ele><time>2026-05-03T08:06:29.735Z</time></trkpt><trkpt lat="40.2328809" lon="20.0813624"><ele>211.0</ele><time>2026-05-03T08:06:30.737Z</time></trkpt><trkpt lat="40.2329843" lon="20.0812656"><ele>211.0</ele><time>2026-05-03T08:06:31.736Z</time></trkpt><trkpt lat="40.2330828" lon="20.0811709"><ele>211.8</ele><time>2026-05-03T08:06:32.736Z</time></trkpt><trkpt lat="40.2331729" lon="20.0810646"><ele>212.60000000000002</ele><time>2026-05-03T08:06:33.737Z</time></trkpt><trkpt lat="40.2332502" lon="20.0809509"><ele>213.4</ele><time>2026-05-03T08:06:34.736Z</time></trkpt><trkpt lat="40.2333219" lon="20.080843"><ele>214.2</ele><time>2026-05-03T08:06:35.737Z</time></trkpt><trkpt lat="40.2333835" lon="20.0807498"><ele>215.0</ele><time>2026-05-03T08:06:36.736Z</time></trkpt><trkpt lat="40.2334307" lon="20.080681"><ele>215.0</ele><time>2026-05-03T08:06:37.736Z</time></trkpt><trkpt lat="40.2335097" lon="20.0805791"><ele>215.0</ele><time>2026-05-03T08:06:39.736Z</time></trkpt><trkpt lat="40.2336186" lon="20.080472"><ele>215.0</ele><time>2026-05-03T08:06:41.736Z</time></trkpt><trkpt lat="40.2336979" lon="20.0804087"><ele>215.0</ele><time>2026-05-03T08:06:42.737Z</time></trkpt><trkpt lat="40.2337835" lon="20.0803458"><ele>215.0</ele><time>2026-05-03T08:06:43.736Z</time></trkpt><trkpt lat="40.2338694" lon="20.080285"><ele>215.0</ele><time>2026-05-03T08:06:44.736Z</time></trkpt><trkpt lat="40.2339642" lon="20.0802189"><ele>215.0</ele><time>2026-05-03T08:06:45.736Z</time></trkpt><trkpt lat="40.2340673" lon="20.08015"><ele>215.0</ele><time>2026-05-03T08:06:46.735Z</time></trkpt><trkpt lat="40.2341804" lon="20.0800768"><ele>215.0</ele><time>2026-05-03T08:06:47.737Z</time></trkpt><trkpt lat="40.2342968" lon="20.0799881"><ele>215.5</ele><time>2026-05-03T08:06:48.736Z</time></trkpt><trkpt lat="40.2344301" lon="20.079905"><ele>216.0</ele><time>2026-05-03T08:06:49.736Z</time></trkpt><trkpt lat="40.2345618" lon="20.0798335"><ele>216.5</ele><time>2026-05-03T08:06:50.737Z</time></trkpt><trkpt lat="40.2346909" lon="20.0797644"><ele>217.0</ele><time>2026-05-03T08:06:51.737Z</time></trkpt><trkpt lat="40.2348287" lon="20.0797026"><ele>210.75</ele><time>2026-05-03T08:06:52.737Z</time></trkpt><trkpt lat="40.2349597" lon="20.0796411"><ele>204.5</ele><time>2026-05-03T08:06:53.737Z</time></trkpt><trkpt lat="40.2351" lon="20.079575"><ele>198.25</ele><time>2026-05-03T08:06:54.736Z</time></trkpt><trkpt lat="40.2352454" lon="20.0795083"><ele>192.0</ele><time>2026-05-03T08:06:55.736Z</time></trkpt><trkpt lat="40.2353983" lon="20.0794433"><ele>192.0</ele><time>2026-05-03T08:06:56.736Z</time></trkpt><trkpt lat="40.2355528" lon="20.0793786"><ele>192.0</ele><time>2026-05-03T08:06:57.735Z</time></trkpt><trkpt lat="40.2357133" lon="20.0793137"><ele>192.0</ele><time>2026-05-03T08:06:58.736Z</time></trkpt><trkpt lat="40.2358716" lon="20.079251"><ele>188.33333333333334</ele><time>2026-05-03T08:06:59.736Z</time></trkpt><trkpt lat="40.2360338" lon="20.0791856"><ele>184.66666666666669</ele><time>2026-05-03T08:07:00.737Z</time></trkpt><trkpt lat="40.2361942" lon="20.0791143"><ele>181.0</ele><time>2026-05-03T08:07:01.737Z</time></trkpt><trkpt lat="40.236353" lon="20.0790343"><ele>180.66666666666669</ele><time>2026-05-03T08:07:02.736Z</time></trkpt><trkpt lat="40.2365067" lon="20.0789373"><ele>180.33333333333334</ele><time>2026-05-03T08:07:03.737Z</time></trkpt><trkpt lat="40.2366564" lon="20.0788213"><ele>180.0</ele><time>2026-05-03T08:07:04.736Z</time></trkpt><trkpt lat="40.2368011" lon="20.0786834"><ele>180.0</ele><time>2026-05-03T08:07:05.736Z</time></trkpt><trkpt lat="40.2369375" lon="20.0785252"><ele>180.0</ele><time>2026-05-03T08:07:06.736Z</time></trkpt><trkpt lat="40.2370603" lon="20.0783598"><ele>180.0</ele><time>2026-05-03T08:07:07.737Z</time></trkpt><trkpt lat="40.2371789" lon="20.0781808"><ele>176.66666666666666</ele><time>2026-05-03T08:07:08.737Z</time></trkpt><trkpt lat="40.2372941" lon="20.0779927"><ele>173.33333333333331</ele><time>2026-05-03T08:07:09.737Z</time></trkpt><trkpt lat="40.2374111" lon="20.0777907"><ele>170.0</ele><time>2026-05-03T08:07:10.736Z</time></trkpt><trkpt lat="40.2375328" lon="20.0775969"><ele>174.0</ele><time>2026-05-03T08:07:11.736Z</time></trkpt><trkpt lat="40.2376555" lon="20.0773984"><ele>178.0</ele><time>2026-05-03T08:07:12.736Z</time></trkpt><trkpt lat="40.2377783" lon="20.0771998"><ele>182.0</ele><time>2026-05-03T08:07:13.736Z</time></trkpt><trkpt lat="40.2379014" lon="20.0770063"><ele>182.0</ele><time>2026-05-03T08:07:14.735Z</time></trkpt><trkpt lat="40.2380278" lon="20.0768263"><ele>182.0</ele><time>2026-05-03T08:07:15.736Z</time></trkpt><trkpt lat="40.2381668" lon="20.0766689"><ele>182.0</ele><time>2026-05-03T08:07:16.736Z</time></trkpt><trkpt lat="40.2383071" lon="20.0765339"><ele>185.66666666666666</ele><time>2026-05-03T08:07:17.736Z</time></trkpt><trkpt lat="40.2384621" lon="20.0764122"><ele>189.33333333333331</ele><time>2026-05-03T08:07:18.737Z</time></trkpt><trkpt lat="40.2386296" lon="20.0763116"><ele>193.0</ele><time>2026-05-03T08:07:19.736Z</time></trkpt><trkpt lat="40.2387985" lon="20.0762197"><ele>190.0</ele><time>2026-05-03T08:07:20.737Z</time></trkpt><trkpt lat="40.23897" lon="20.0761566"><ele>187.0</ele><time>2026-05-03T08:07:21.736Z</time></trkpt><trkpt lat="40.2391439" lon="20.0761103"><ele>184.0</ele><time>2026-05-03T08:07:22.737Z</time></trkpt><trkpt lat="40.2393186" lon="20.0760784"><ele>184.0</ele><time>2026-05-03T08:07:23.736Z</time></trkpt><trkpt lat="40.2394912" lon="20.0760369"><ele>184.0</ele><time>2026-05-03T08:07:24.737Z</time></trkpt><trkpt lat="40.2396648" lon="20.0760233"><ele>184.0</ele><time>2026-05-03T08:07:25.737Z</time></trkpt><trkpt lat="40.2398409" lon="20.076002"><ele>184.66666666666669</ele><time>2026-05-03T08:07:26.736Z</time></trkpt><trkpt lat="40.2400181" lon="20.0759834"><ele>185.33333333333334</ele><time>2026-05-03T08:07:27.736Z</time></trkpt><trkpt lat="40.2401882" lon="20.0759624"><ele>186.0</ele><time>2026-05-03T08:07:28.736Z</time></trkpt><trkpt lat="40.2403574" lon="20.0759451"><ele>186.0</ele><time>2026-05-03T08:07:29.736Z</time></trkpt><trkpt lat="40.2405208" lon="20.075927"><ele>186.0</ele><time>2026-05-03T08:07:30.737Z</time></trkpt><trkpt lat="40.2406836" lon="20.0759079"><ele>186.0</ele><time>2026-05-03T08:07:31.737Z</time></trkpt><trkpt lat="40.2408446" lon="20.075884"><ele>187.33333333333334</ele><time>2026-05-03T08:07:32.736Z</time></trkpt><trkpt lat="40.2410095" lon="20.0758713"><ele>188.66666666666669</ele><time>2026-05-03T08:07:33.736Z</time></trkpt><trkpt lat="40.2411754" lon="20.075853"><ele>190.0</ele><time>2026-05-03T08:07:34.737Z</time></trkpt><trkpt lat="40.2413438" lon="20.0758343"><ele>187.0</ele><time>2026-05-03T08:07:35.737Z</time></trkpt><trkpt lat="40.2415068" lon="20.0758178"><ele>184.0</ele><time>2026-05-03T08:07:36.737Z</time></trkpt><trkpt lat="40.2416686" lon="20.0757956"><ele>181.0</ele><time>2026-05-03T08:07:37.737Z</time></trkpt><trkpt lat="40.241829" lon="20.0757726"><ele>187.0</ele><time>2026-05-03T08:07:38.737Z</time></trkpt><trkpt lat="40.2419879" lon="20.0757345"><ele>193.0</ele><time>2026-05-03T08:07:39.737Z</time></trkpt><trkpt lat="40.2421423" lon="20.0756752"><ele>199.0</ele><time>2026-05-03T08:07:40.736Z</time></trkpt><trkpt lat="40.2422913" lon="20.0755911"><ele>198.33333333333331</ele><time>2026-05-03T08:07:41.737Z</time></trkpt><trkpt lat="40.2424334" lon="20.0754855"><ele>197.66666666666669</ele><time>2026-05-03T08:07:42.736Z</time></trkpt><trkpt lat="40.2425639" lon="20.0753602"><ele>197.0</ele><time>2026-05-03T08:07:43.735Z</time></trkpt><trkpt lat="40.2426866" lon="20.0752139"><ele>197.0</ele><time>2026-05-03T08:07:44.737Z</time></trkpt><trkpt lat="40.2428033" lon="20.0750543"><ele>197.0</ele><time>2026-05-03T08:07:45.737Z</time></trkpt><trkpt lat="40.2429185" lon="20.0748868"><ele>197.0</ele><time>2026-05-03T08:07:46.735Z</time></trkpt><trkpt lat="40.2430332" lon="20.0747155"><ele>193.33333333333334</ele><time>2026-05-03T08:07:47.737Z</time></trkpt><trkpt lat="40.2431473" lon="20.0745372"><ele>189.66666666666669</ele><time>2026-05-03T08:07:48.737Z</time></trkpt><trkpt lat="40.2432605" lon="20.0743373"><ele>186.0</ele><time>2026-05-03T08:07:49.736Z</time></trkpt><trkpt lat="40.243377" lon="20.0741575"><ele>194.66666666666669</ele><time>2026-05-03T08:07:50.737Z</time></trkpt><trkpt lat="40.2434907" lon="20.0739773"><ele>203.33333333333334</ele><time>2026-05-03T08:07:51.737Z</time></trkpt><trkpt lat="40.2436022" lon="20.0738042"><ele>212.0</ele><time>2026-05-03T08:07:52.735Z</time></trkpt><trkpt lat="40.243712" lon="20.073632"><ele>212.0</ele><time>2026-05-03T08:07:53.736Z</time></trkpt><trkpt lat="40.2438242" lon="20.0734618"><ele>212.0</ele><time>2026-05-03T08:07:54.736Z</time></trkpt><trkpt lat="40.2439369" lon="20.0732999"><ele>212.0</ele><time>2026-05-03T08:07:55.737Z</time></trkpt><trkpt lat="40.2440614" lon="20.0731527"><ele>211.33333333333334</ele><time>2026-05-03T08:07:56.737Z</time></trkpt><trkpt lat="40.2441994" lon="20.0730313"><ele>210.66666666666669</ele><time>2026-05-03T08:07:57.736Z</time></trkpt><trkpt lat="40.2443476" lon="20.072915"><ele>210.0</ele><time>2026-05-03T08:07:58.737Z</time></trkpt><trkpt lat="40.2444974" lon="20.0728247"><ele>210.0</ele><time>2026-05-03T08:07:59.736Z</time></trkpt><trkpt lat="40.2446618" lon="20.0727553"><ele>210.0</ele><time>2026-05-03T08:08:00.736Z</time></trkpt><trkpt lat="40.2448267" lon="20.0727108"><ele>210.0</ele><time>2026-05-03T08:08:01.737Z</time></trkpt><trkpt lat="40.2450023" lon="20.0726943"><ele>204.66666666666669</ele><time>2026-05-03T08:08:02.737Z</time></trkpt><trkpt lat="40.2451796" lon="20.0726986"><ele>199.33333333333334</ele><time>2026-05-03T08:08:03.737Z</time></trkpt><trkpt lat="40.2453544" lon="20.072707"><ele>194.0</ele><time>2026-05-03T08:08:04.737Z</time></trkpt><trkpt lat="40.2455254" lon="20.0727182"><ele>188.66666666666669</ele><time>2026-05-03T08:08:05.736Z</time></trkpt><trkpt lat="40.2457021" lon="20.0727294"><ele>183.33333333333334</ele><time>2026-05-03T08:08:06.737Z</time></trkpt><trkpt lat="40.245869" lon="20.0727216"><ele>178.0</ele><time>2026-05-03T08:08:07.737Z</time></trkpt><trkpt lat="40.2460381" lon="20.07269"><ele>178.0</ele><time>2026-05-03T08:08:08.737Z</time></trkpt><trkpt lat="40.2462019" lon="20.0726325"><ele>178.0</ele><time>2026-05-03T08:08:09.736Z</time></trkpt><trkpt lat="40.2463639" lon="20.0725568"><ele>178.0</ele><time>2026-05-03T08:08:10.736Z</time></trkpt><trkpt lat="40.2465208" lon="20.0724465"><ele>177.0</ele><time>2026-05-03T08:08:11.737Z</time></trkpt><trkpt lat="40.2466657" lon="20.0723125"><ele>176.0</ele><time>2026-05-03T08:08:12.736Z</time></trkpt><trkpt lat="40.2468073" lon="20.0721624"><ele>175.0</ele><time>2026-05-03T08:08:13.737Z</time></trkpt><trkpt lat="40.2469437" lon="20.0720111"><ele>175.0</ele><time>2026-05-03T08:08:14.737Z</time></trkpt><trkpt lat="40.2470792" lon="20.0718594"><ele>175.0</ele><time>2026-05-03T08:08:15.737Z</time></trkpt><trkpt lat="40.2472157" lon="20.0717084"><ele>175.0</ele><time>2026-05-03T08:08:16.734Z</time></trkpt><trkpt lat="40.2473544" lon="20.0715623"><ele>172.33333333333334</ele><time>2026-05-03T08:08:17.736Z</time></trkpt><trkpt lat="40.2474948" lon="20.0714111"><ele>169.66666666666666</ele><time>2026-05-03T08:08:18.735Z</time></trkpt><trkpt lat="40.2476364" lon="20.0712595"><ele>167.0</ele><time>2026-05-03T08:08:19.736Z</time></trkpt><trkpt lat="40.2477776" lon="20.0711101"><ele>167.0</ele><time>2026-05-03T08:08:20.736Z</time></trkpt><trkpt lat="40.2479177" lon="20.0709616"><ele>167.0</ele><time>2026-05-03T08:08:21.735Z</time></trkpt><trkpt lat="40.2480557" lon="20.0708133"><ele>167.0</ele><time>2026-05-03T08:08:22.736Z</time></trkpt><trkpt lat="40.2481959" lon="20.0706527"><ele>166.0</ele><time>2026-05-03T08:08:23.737Z</time></trkpt><trkpt lat="40.2483244" lon="20.070508"><ele>165.0</ele><time>2026-05-03T08:08:24.736Z</time></trkpt><trkpt lat="40.2484463" lon="20.070366"><ele>164.0</ele><time>2026-05-03T08:08:25.736Z</time></trkpt><trkpt lat="40.2485411" lon="20.0702184"><ele>164.0</ele><time>2026-05-03T08:08:26.737Z</time></trkpt><trkpt lat="40.2486277" lon="20.070063"><ele>164.0</ele><time>2026-05-03T08:08:27.736Z</time></trkpt><trkpt lat="40.2486929" lon="20.0698989"><ele>164.0</ele><time>2026-05-03T08:08:28.736Z</time></trkpt><trkpt lat="40.2487414" lon="20.0697236"><ele>164.0</ele><time>2026-05-03T08:08:29.737Z</time></trkpt><trkpt lat="40.2487763" lon="20.0695345"><ele>168.0</ele><time>2026-05-03T08:08:30.736Z</time></trkpt><trkpt lat="40.2488005" lon="20.069334"><ele>172.0</ele><time>2026-05-03T08:08:31.736Z</time></trkpt><trkpt lat="40.2488226" lon="20.0691347"><ele>176.0</ele><time>2026-05-03T08:08:32.737Z</time></trkpt><trkpt lat="40.2488466" lon="20.0689195"><ele>179.66666666666666</ele><time>2026-05-03T08:08:33.736Z</time></trkpt><trkpt lat="40.248874" lon="20.0687171"><ele>183.33333333333334</ele><time>2026-05-03T08:08:34.737Z</time></trkpt><trkpt lat="40.24893" lon="20.0685108"><ele>187.0</ele><time>2026-05-03T08:08:35.737Z</time></trkpt><trkpt lat="40.2490085" lon="20.0683161"><ele>183.66666666666669</ele><time>2026-05-03T08:08:36.736Z</time></trkpt><trkpt lat="40.2491017" lon="20.0681343"><ele>180.33333333333334</ele><time>2026-05-03T08:08:37.736Z</time></trkpt><trkpt lat="40.2492052" lon="20.0679591"><ele>177.0</ele><time>2026-05-03T08:08:38.737Z</time></trkpt><trkpt lat="40.2493111" lon="20.0678041"><ele>177.0</ele><time>2026-05-03T08:08:39.737Z</time></trkpt><trkpt lat="40.2494112" lon="20.0676496"><ele>177.0</ele><time>2026-05-03T08:08:40.736Z</time></trkpt><trkpt lat="40.2494984" lon="20.0674895"><ele>177.0</ele><time>2026-05-03T08:08:41.736Z</time></trkpt><trkpt lat="40.2495639" lon="20.0673208"><ele>177.0</ele><time>2026-05-03T08:08:42.735Z</time></trkpt><trkpt lat="40.2496117" lon="20.0671509"><ele>180.25</ele><time>2026-05-03T08:08:43.736Z</time></trkpt><trkpt lat="40.2496469" lon="20.0669821"><ele>183.5</ele><time>2026-05-03T08:08:44.737Z</time></trkpt><trkpt lat="40.2496691" lon="20.0668185"><ele>186.75</ele><time>2026-05-03T08:08:45.736Z</time></trkpt><trkpt lat="40.2496907" lon="20.0666521"><ele>190.0</ele><time>2026-05-03T08:08:46.737Z</time></trkpt><trkpt lat="40.2497212" lon="20.0664935"><ele>190.25</ele><time>2026-05-03T08:08:47.734Z</time></trkpt><trkpt lat="40.2497558" lon="20.0663271"><ele>190.5</ele><time>2026-05-03T08:08:48.735Z</time></trkpt><trkpt lat="40.2497966" lon="20.0661871"><ele>190.75</ele><time>2026-05-03T08:08:49.736Z</time></trkpt><trkpt lat="40.2498439" lon="20.0660499"><ele>191.0</ele><time>2026-05-03T08:08:50.736Z</time></trkpt><trkpt lat="40.2499081" lon="20.0659224"><ele>189.0</ele><time>2026-05-03T08:08:51.737Z</time></trkpt><trkpt lat="40.2499846" lon="20.0657995"><ele>187.0</ele><time>2026-05-03T08:08:52.737Z</time></trkpt><trkpt lat="40.2500715" lon="20.065681"><ele>185.0</ele><time>2026-05-03T08:08:53.735Z</time></trkpt><trkpt lat="40.2501643" lon="20.0655604"><ele>183.0</ele><time>2026-05-03T08:08:54.737Z</time></trkpt><trkpt lat="40.2502521" lon="20.0654556"><ele>183.0</ele><time>2026-05-03T08:08:55.737Z</time></trkpt><trkpt lat="40.2503301" lon="20.0653521"><ele>183.0</ele><time>2026-05-03T08:08:56.736Z</time></trkpt><trkpt lat="40.2504003" lon="20.0652423"><ele>183.0</ele><time>2026-05-03T08:08:57.737Z</time></trkpt><trkpt lat="40.2504519" lon="20.0651233"><ele>183.0</ele><time>2026-05-03T08:08:58.737Z</time></trkpt><trkpt lat="40.2504901" lon="20.0649953"><ele>183.0</ele><time>2026-05-03T08:08:59.736Z</time></trkpt><trkpt lat="40.2505197" lon="20.0648578"><ele>179.5</ele><time>2026-05-03T08:09:00.736Z</time></trkpt><trkpt lat="40.250549" lon="20.0647216"><ele>176.0</ele><time>2026-05-03T08:09:01.737Z</time></trkpt><trkpt lat="40.2505892" lon="20.0645985"><ele>172.5</ele><time>2026-05-03T08:09:02.736Z</time></trkpt><trkpt lat="40.2506529" lon="20.0644669"><ele>169.0</ele><time>2026-05-03T08:09:03.737Z</time></trkpt><trkpt lat="40.2507353" lon="20.0643334"><ele>169.0</ele><time>2026-05-03T08:09:04.736Z</time></trkpt><trkpt lat="40.2508253" lon="20.0641994"><ele>169.0</ele><time>2026-05-03T08:09:05.736Z</time></trkpt><trkpt lat="40.2509148" lon="20.0640602"><ele>169.0</ele><time>2026-05-03T08:09:06.737Z</time></trkpt><trkpt lat="40.2509911" lon="20.0639079"><ele>169.0</ele><time>2026-05-03T08:09:07.736Z</time></trkpt><trkpt lat="40.2510505" lon="20.0637428"><ele>173.75</ele><time>2026-05-03T08:09:08.736Z</time></trkpt><trkpt lat="40.2510871" lon="20.063571"><ele>178.5</ele><time>2026-05-03T08:09:09.736Z</time></trkpt><trkpt lat="40.2511093" lon="20.0633934"><ele>183.25</ele><time>2026-05-03T08:09:10.736Z</time></trkpt><trkpt lat="40.2511402" lon="20.0632234"><ele>188.0</ele><time>2026-05-03T08:09:11.737Z</time></trkpt><trkpt lat="40.2511963" lon="20.0630392"><ele>191.33333333333331</ele><time>2026-05-03T08:09:12.736Z</time></trkpt><trkpt lat="40.2512755" lon="20.0628629"><ele>194.66666666666666</ele><time>2026-05-03T08:09:13.736Z</time></trkpt><trkpt lat="40.2513729" lon="20.0626999"><ele>198.0</ele><time>2026-05-03T08:09:14.736Z</time></trkpt><trkpt lat="40.251472" lon="20.0625477"><ele>195.5</ele><time>2026-05-03T08:09:15.736Z</time></trkpt><trkpt lat="40.2515651" lon="20.0624009"><ele>193.0</ele><time>2026-05-03T08:09:16.737Z</time></trkpt><trkpt lat="40.2516493" lon="20.0622685"><ele>190.5</ele><time>2026-05-03T08:09:17.736Z</time></trkpt><trkpt lat="40.2517289" lon="20.0621392"><ele>188.0</ele><time>2026-05-03T08:09:18.737Z</time></trkpt><trkpt lat="40.2518044" lon="20.062011"><ele>188.0</ele><time>2026-05-03T08:09:19.737Z</time></trkpt><trkpt lat="40.2518739" lon="20.0618806"><ele>188.0</ele><time>2026-05-03T08:09:20.736Z</time></trkpt><trkpt lat="40.2519354" lon="20.0617423"><ele>188.0</ele><time>2026-05-03T08:09:21.737Z</time></trkpt><trkpt lat="40.2520065" lon="20.0616139"><ele>188.0</ele><time>2026-05-03T08:09:22.736Z</time></trkpt><trkpt lat="40.2520831" lon="20.0614758"><ele>188.0</ele><time>2026-05-03T08:09:23.737Z</time></trkpt><trkpt lat="40.2521588" lon="20.0613468"><ele>188.0</ele><time>2026-05-03T08:09:24.736Z</time></trkpt><trkpt lat="40.2522433" lon="20.0612382"><ele>188.0</ele><time>2026-05-03T08:09:25.736Z</time></trkpt><trkpt lat="40.2523462" lon="20.0611403"><ele>188.0</ele><time>2026-05-03T08:09:26.736Z</time></trkpt><trkpt lat="40.2524614" lon="20.0610813"><ele>188.0</ele><time>2026-05-03T08:09:27.736Z</time></trkpt><trkpt lat="40.2525871" lon="20.0610375"><ele>188.0</ele><time>2026-05-03T08:09:28.735Z</time></trkpt><trkpt lat="40.2527083" lon="20.0610283"><ele>188.0</ele><time>2026-05-03T08:09:29.737Z</time></trkpt><trkpt lat="40.2528392" lon="20.0610107"><ele>188.0</ele><time>2026-05-03T08:09:30.734Z</time></trkpt><trkpt lat="40.2529693" lon="20.060995"><ele>188.0</ele><time>2026-05-03T08:09:31.736Z</time></trkpt><trkpt lat="40.2531022" lon="20.0609825"><ele>188.0</ele><time>2026-05-03T08:09:32.737Z</time></trkpt><trkpt lat="40.2532358" lon="20.0609767"><ele>188.0</ele><time>2026-05-03T08:09:33.736Z</time></trkpt><trkpt lat="40.253367" lon="20.0610032"><ele>188.0</ele><time>2026-05-03T08:09:34.736Z</time></trkpt><trkpt lat="40.25349" lon="20.0610536"><ele>185.0</ele><time>2026-05-03T08:09:35.736Z</time></trkpt><trkpt lat="40.2536013" lon="20.0611025"><ele>182.0</ele><time>2026-05-03T08:09:36.737Z</time></trkpt><trkpt lat="40.2537111" lon="20.0611377"><ele>179.0</ele><time>2026-05-03T08:09:37.736Z</time></trkpt><trkpt lat="40.2538232" lon="20.0611499"><ele>176.0</ele><time>2026-05-03T08:09:38.737Z</time></trkpt><trkpt lat="40.253933" lon="20.0611375"><ele>175.0</ele><time>2026-05-03T08:09:39.737Z</time></trkpt><trkpt lat="40.2540372" lon="20.0610943"><ele>174.0</ele><time>2026-05-03T08:09:40.736Z</time></trkpt><trkpt lat="40.2541283" lon="20.0610227"><ele>173.0</ele><time>2026-05-03T08:09:41.737Z</time></trkpt><trkpt lat="40.2542217" lon="20.0609269"><ele>172.0</ele><time>2026-05-03T08:09:42.737Z</time></trkpt><trkpt lat="40.2543133" lon="20.0608078"><ele>175.75</ele><time>2026-05-03T08:09:43.736Z</time></trkpt><trkpt lat="40.2544065" lon="20.0606741"><ele>179.5</ele><time>2026-05-03T08:09:44.736Z</time></trkpt><trkpt lat="40.2544996" lon="20.0605299"><ele>183.25</ele><time>2026-05-03T08:09:45.734Z</time></trkpt><trkpt lat="40.2545972" lon="20.0603753"><ele>187.0</ele><time>2026-05-03T08:09:46.737Z</time></trkpt><trkpt lat="40.2546966" lon="20.0602241"><ele>183.0</ele><time>2026-05-03T08:09:47.736Z</time></trkpt><trkpt lat="40.2547954" lon="20.060074"><ele>179.0</ele><time>2026-05-03T08:09:48.736Z</time></trkpt><trkpt lat="40.2548912" lon="20.0599252"><ele>175.0</ele><time>2026-05-03T08:09:49.737Z</time></trkpt><trkpt lat="40.2549887" lon="20.0597635"><ele>175.0</ele><time>2026-05-03T08:09:50.737Z</time></trkpt><trkpt lat="40.2550831" lon="20.0595941"><ele>175.0</ele><time>2026-05-03T08:09:51.737Z</time></trkpt><trkpt lat="40.2551903" lon="20.059424"><ele>175.0</ele><time>2026-05-03T08:09:52.736Z</time></trkpt><trkpt lat="40.2552985" lon="20.0592441"><ele>172.0</ele><time>2026-05-03T08:09:53.736Z</time></trkpt><trkpt lat="40.2554072" lon="20.0590559"><ele>169.0</ele><time>2026-05-03T08:09:54.737Z</time></trkpt><trkpt lat="40.255516" lon="20.0588652"><ele>166.0</ele><time>2026-05-03T08:09:55.736Z</time></trkpt><trkpt lat="40.2556287" lon="20.0586766"><ele>166.0</ele><time>2026-05-03T08:09:56.736Z</time></trkpt><trkpt lat="40.2557428" lon="20.0584904"><ele>166.0</ele><time>2026-05-03T08:09:57.736Z</time></trkpt><trkpt lat="40.2558513" lon="20.058302"><ele>166.0</ele><time>2026-05-03T08:09:58.734Z</time></trkpt><trkpt lat="40.2559649" lon="20.0581098"><ele>171.33333333333334</ele><time>2026-05-03T08:09:59.736Z</time></trkpt><trkpt lat="40.2560743" lon="20.0579192"><ele>176.66666666666666</ele><time>2026-05-03T08:10:00.737Z</time></trkpt><trkpt lat="40.2561854" lon="20.0577316"><ele>182.0</ele><time>2026-05-03T08:10:01.736Z</time></trkpt><trkpt lat="40.2562988" lon="20.0575473"><ele>177.33333333333331</ele><time>2026-05-03T08:10:02.737Z</time></trkpt><trkpt lat="40.2564099" lon="20.0573552"><ele>172.66666666666666</ele><time>2026-05-03T08:10:03.737Z</time></trkpt><trkpt lat="40.2565232" lon="20.0571744"><ele>168.0</ele><time>2026-05-03T08:10:04.737Z</time></trkpt><trkpt lat="40.2566338" lon="20.0569868"><ele>168.0</ele><time>2026-05-03T08:10:05.734Z</time></trkpt><trkpt lat="40.2567478" lon="20.0568024"><ele>168.0</ele><time>2026-05-03T08:10:06.736Z</time></trkpt><trkpt lat="40.2568614" lon="20.0566217"><ele>168.0</ele><time>2026-05-03T08:10:07.736Z</time></trkpt><trkpt lat="40.2569722" lon="20.0564421"><ele>171.0</ele><time>2026-05-03T08:10:08.737Z</time></trkpt><trkpt lat="40.2570909" lon="20.0562695"><ele>174.0</ele><time>2026-05-03T08:10:09.735Z</time></trkpt><trkpt lat="40.2572139" lon="20.056106"><ele>177.0</ele><time>2026-05-03T08:10:10.736Z</time></trkpt><trkpt lat="40.2573374" lon="20.0559303"><ele>176.66666666666666</ele><time>2026-05-03T08:10:11.737Z</time></trkpt><trkpt lat="40.2574592" lon="20.05576"><ele>176.33333333333331</ele><time>2026-05-03T08:10:12.736Z</time></trkpt><trkpt lat="40.257583" lon="20.0555929"><ele>176.0</ele><time>2026-05-03T08:10:13.737Z</time></trkpt><trkpt lat="40.2577068" lon="20.0554301"><ele>176.0</ele><time>2026-05-03T08:10:14.737Z</time></trkpt><trkpt lat="40.2578313" lon="20.0552706"><ele>176.0</ele><time>2026-05-03T08:10:15.736Z</time></trkpt><trkpt lat="40.2579572" lon="20.0551104"><ele>176.0</ele><time>2026-05-03T08:10:16.736Z</time></trkpt><trkpt lat="40.2580864" lon="20.0549486"><ele>172.33333333333331</ele><time>2026-05-03T08:10:17.737Z</time></trkpt><trkpt lat="40.2582199" lon="20.054788"><ele>168.66666666666666</ele><time>2026-05-03T08:10:18.736Z</time></trkpt><trkpt lat="40.2583609" lon="20.0546321"><ele>165.0</ele><time>2026-05-03T08:10:19.734Z</time></trkpt><trkpt lat="40.2584967" lon="20.0544743"><ele>165.0</ele><time>2026-05-03T08:10:20.734Z</time></trkpt><trkpt lat="40.2586387" lon="20.054328"><ele>165.0</ele><time>2026-05-03T08:10:21.737Z</time></trkpt><trkpt lat="40.2587882" lon="20.0541737"><ele>165.0</ele><time>2026-05-03T08:10:22.735Z</time></trkpt><trkpt lat="40.2589302" lon="20.0540257"><ele>165.33333333333334</ele><time>2026-05-03T08:10:23.733Z</time></trkpt><trkpt lat="40.259074" lon="20.0538619"><ele>165.66666666666669</ele><time>2026-05-03T08:10:24.736Z</time></trkpt><trkpt lat="40.25923" lon="20.0537082"><ele>166.0</ele><time>2026-05-03T08:10:25.736Z</time></trkpt><trkpt lat="40.2593805" lon="20.0535564"><ele>166.0</ele><time>2026-05-03T08:10:26.735Z</time></trkpt><trkpt lat="40.2595276" lon="20.053403"><ele>166.0</ele><time>2026-05-03T08:10:27.737Z</time></trkpt><trkpt lat="40.2596761" lon="20.0532497"><ele>166.0</ele><time>2026-05-03T08:10:28.737Z</time></trkpt><trkpt lat="40.2598274" lon="20.0531017"><ele>163.33333333333334</ele><time>2026-05-03T08:10:29.737Z</time></trkpt><trkpt lat="40.2599818" lon="20.0529587"><ele>160.66666666666666</ele><time>2026-05-03T08:10:30.737Z</time></trkpt><trkpt lat="40.2601352" lon="20.0528159"><ele>158.0</ele><time>2026-05-03T08:10:31.736Z</time></trkpt><trkpt lat="40.2603017" lon="20.0526907"><ele>158.0</ele><time>2026-05-03T08:10:32.736Z</time></trkpt><trkpt lat="40.2604798" lon="20.0525821"><ele>158.0</ele><time>2026-05-03T08:10:33.737Z</time></trkpt><trkpt lat="40.2606629" lon="20.0524874"><ele>158.0</ele><time>2026-05-03T08:10:34.737Z</time></trkpt><trkpt lat="40.2608507" lon="20.052413"><ele>162.0</ele><time>2026-05-03T08:10:35.736Z</time></trkpt><trkpt lat="40.2610389" lon="20.0523558"><ele>166.0</ele><time>2026-05-03T08:10:36.737Z</time></trkpt><trkpt lat="40.2612306" lon="20.0523129"><ele>170.0</ele><time>2026-05-03T08:10:37.735Z</time></trkpt><trkpt lat="40.2614244" lon="20.052268"><ele>173.0</ele><time>2026-05-03T08:10:38.736Z</time></trkpt><trkpt lat="40.2616194" lon="20.0522405"><ele>176.0</ele><time>2026-05-03T08:10:39.737Z</time></trkpt><trkpt lat="40.2618125" lon="20.0522143"><ele>179.0</ele><time>2026-05-03T08:10:40.736Z</time></trkpt><trkpt lat="40.2620058" lon="20.0521758"><ele>179.0</ele><time>2026-05-03T08:10:41.736Z</time></trkpt><trkpt lat="40.2621984" lon="20.0521288"><ele>179.0</ele><time>2026-05-03T08:10:42.737Z</time></trkpt><trkpt lat="40.2623881" lon="20.0520742"><ele>179.0</ele><time>2026-05-03T08:10:43.736Z</time></trkpt><trkpt lat="40.2625772" lon="20.0520135"><ele>173.66666666666666</ele><time>2026-05-03T08:10:44.736Z</time></trkpt><trkpt lat="40.2627663" lon="20.0519508"><ele>168.33333333333334</ele><time>2026-05-03T08:10:45.737Z</time></trkpt><trkpt lat="40.2629554" lon="20.0518895"><ele>163.0</ele><time>2026-05-03T08:10:46.734Z</time></trkpt><trkpt lat="40.2631474" lon="20.0518235"><ele>160.33333333333334</ele><time>2026-05-03T08:10:47.737Z</time></trkpt><trkpt lat="40.2633425" lon="20.0517578"><ele>157.66666666666666</ele><time>2026-05-03T08:10:48.737Z</time></trkpt><trkpt lat="40.2635309" lon="20.0516839"><ele>155.0</ele><time>2026-05-03T08:10:49.737Z</time></trkpt><trkpt lat="40.2637218" lon="20.0516165"><ele>159.0</ele><time>2026-05-03T08:10:50.737Z</time></trkpt><trkpt lat="40.2639142" lon="20.0515427"><ele>163.0</ele><time>2026-05-03T08:10:51.737Z</time></trkpt><trkpt lat="40.2640962" lon="20.0514647"><ele>167.0</ele><time>2026-05-03T08:10:52.734Z</time></trkpt><trkpt lat="40.264282" lon="20.0513783"><ele>167.0</ele><time>2026-05-03T08:10:53.736Z</time></trkpt><trkpt lat="40.2644642" lon="20.0512894"><ele>167.0</ele><time>2026-05-03T08:10:54.735Z</time></trkpt><trkpt lat="40.2646434" lon="20.0511951"><ele>167.0</ele><time>2026-05-03T08:10:55.737Z</time></trkpt><trkpt lat="40.2648256" lon="20.0511012"><ele>164.33333333333331</ele><time>2026-05-03T08:10:56.736Z</time></trkpt><trkpt lat="40.2649958" lon="20.0510001"><ele>161.66666666666666</ele><time>2026-05-03T08:10:57.737Z</time></trkpt><trkpt lat="40.265163" lon="20.0508931"><ele>159.0</ele><time>2026-05-03T08:10:58.737Z</time></trkpt><trkpt lat="40.2653311" lon="20.0507799"><ele>163.0</ele><time>2026-05-03T08:10:59.736Z</time></trkpt><trkpt lat="40.2654996" lon="20.050655"><ele>167.0</ele><time>2026-05-03T08:11:00.736Z</time></trkpt><trkpt lat="40.2656666" lon="20.0505335"><ele>171.0</ele><time>2026-05-03T08:11:01.737Z</time></trkpt><trkpt lat="40.2658329" lon="20.0504098"><ele>171.0</ele><time>2026-05-03T08:11:02.735Z</time></trkpt><trkpt lat="40.2660007" lon="20.0502859"><ele>171.0</ele><time>2026-05-03T08:11:03.736Z</time></trkpt><trkpt lat="40.2661583" lon="20.0501545"><ele>171.0</ele><time>2026-05-03T08:11:04.734Z</time></trkpt><trkpt lat="40.2663071" lon="20.0500164"><ele>166.66666666666666</ele><time>2026-05-03T08:11:05.736Z</time></trkpt><trkpt lat="40.2664576" lon="20.0498718"><ele>162.33333333333331</ele><time>2026-05-03T08:11:06.735Z</time></trkpt><trkpt lat="40.266607" lon="20.0497212"><ele>158.0</ele><time>2026-05-03T08:11:07.737Z</time></trkpt><trkpt lat="40.2667462" lon="20.0495606"><ele>158.0</ele><time>2026-05-03T08:11:08.736Z</time></trkpt><trkpt lat="40.2668872" lon="20.0494016"><ele>158.0</ele><time>2026-05-03T08:11:09.736Z</time></trkpt><trkpt lat="40.2670294" lon="20.049236"><ele>158.0</ele><time>2026-05-03T08:11:10.736Z</time></trkpt><trkpt lat="40.26716" lon="20.0490598"><ele>160.33333333333331</ele><time>2026-05-03T08:11:11.737Z</time></trkpt><trkpt lat="40.267296" lon="20.048889"><ele>162.66666666666666</ele><time>2026-05-03T08:11:12.735Z</time></trkpt><trkpt lat="40.2674283" lon="20.0487092"><ele>165.0</ele><time>2026-05-03T08:11:13.736Z</time></trkpt><trkpt lat="40.267558" lon="20.0485358"><ele>165.0</ele><time>2026-05-03T08:11:14.735Z</time></trkpt><trkpt lat="40.267684" lon="20.0483581"><ele>165.0</ele><time>2026-05-03T08:11:15.736Z</time></trkpt><trkpt lat="40.2678068" lon="20.0481735"><ele>165.0</ele><time>2026-05-03T08:11:16.737Z</time></trkpt><trkpt lat="40.2679234" lon="20.0479911"><ele>165.33333333333334</ele><time>2026-05-03T08:11:17.736Z</time></trkpt><trkpt lat="40.2680345" lon="20.0477972"><ele>165.66666666666669</ele><time>2026-05-03T08:11:18.737Z</time></trkpt><trkpt lat="40.2681438" lon="20.0476113"><ele>166.0</ele><time>2026-05-03T08:11:19.736Z</time></trkpt><trkpt lat="40.2682461" lon="20.047415"><ele>171.0</ele><time>2026-05-03T08:11:20.736Z</time></trkpt><trkpt lat="40.2683423" lon="20.0472217"><ele>176.0</ele><time>2026-05-03T08:11:21.737Z</time></trkpt><trkpt lat="40.2684373" lon="20.0470382"><ele>181.0</ele><time>2026-05-03T08:11:22.736Z</time></trkpt><trkpt lat="40.2685269" lon="20.0468477"><ele>181.0</ele><time>2026-05-03T08:11:23.736Z</time></trkpt><trkpt lat="40.2686143" lon="20.0466613"><ele>181.0</ele><time>2026-05-03T08:11:24.737Z</time></trkpt><trkpt lat="40.268698" lon="20.0464734"><ele>181.0</ele><time>2026-05-03T08:11:25.736Z</time></trkpt><trkpt lat="40.2687839" lon="20.0462856"><ele>182.0</ele><time>2026-05-03T08:11:26.736Z</time></trkpt><trkpt lat="40.2688682" lon="20.0461041"><ele>183.0</ele><time>2026-05-03T08:11:27.737Z</time></trkpt><trkpt lat="40.2689531" lon="20.0459242"><ele>184.0</ele><time>2026-05-03T08:11:28.737Z</time></trkpt><trkpt lat="40.2690393" lon="20.0457395"><ele>184.33333333333334</ele><time>2026-05-03T08:11:29.736Z</time></trkpt><trkpt lat="40.2691245" lon="20.0455536"><ele>184.66666666666666</ele><time>2026-05-03T08:11:30.737Z</time></trkpt><trkpt lat="40.2692119" lon="20.0453678"><ele>185.0</ele><time>2026-05-03T08:11:31.737Z</time></trkpt><trkpt lat="40.2692968" lon="20.0451856"><ele>185.0</ele><time>2026-05-03T08:11:32.736Z</time></trkpt><trkpt lat="40.269384" lon="20.0450037"><ele>185.0</ele><time>2026-05-03T08:11:33.736Z</time></trkpt><trkpt lat="40.2694654" lon="20.0448228"><ele>185.0</ele><time>2026-05-03T08:11:34.736Z</time></trkpt><trkpt lat="40.2695498" lon="20.0446393"><ele>186.33333333333331</ele><time>2026-05-03T08:11:35.737Z</time></trkpt><trkpt lat="40.2696298" lon="20.044463"><ele>187.66666666666666</ele><time>2026-05-03T08:11:36.737Z</time></trkpt><trkpt lat="40.2697091" lon="20.0442883"><ele>189.0</ele><time>2026-05-03T08:11:37.737Z</time></trkpt><trkpt lat="40.269783" lon="20.0441202"><ele>189.0</ele><time>2026-05-03T08:11:38.737Z</time></trkpt><trkpt lat="40.2698548" lon="20.0439502"><ele>189.0</ele><time>2026-05-03T08:11:39.735Z</time></trkpt><trkpt lat="40.2699304" lon="20.0437764"><ele>189.0</ele><time>2026-05-03T08:11:40.736Z</time></trkpt><trkpt lat="40.2700025" lon="20.0436068"><ele>189.0</ele><time>2026-05-03T08:11:41.736Z</time></trkpt><trkpt lat="40.2700702" lon="20.0434409"><ele>190.25</ele><time>2026-05-03T08:11:42.737Z</time></trkpt><trkpt lat="40.2701406" lon="20.0432762"><ele>191.5</ele><time>2026-05-03T08:11:43.737Z</time></trkpt><trkpt lat="40.270217" lon="20.0431203"><ele>192.75</ele><time>2026-05-03T08:11:44.735Z</time></trkpt><trkpt lat="40.2702891" lon="20.0429704"><ele>194.0</ele><time>2026-05-03T08:11:45.737Z</time></trkpt><trkpt lat="40.2703652" lon="20.0428083"><ele>194.0</ele><time>2026-05-03T08:11:46.736Z</time></trkpt><trkpt lat="40.2704311" lon="20.0426432"><ele>194.0</ele><time>2026-05-03T08:11:47.736Z</time></trkpt><trkpt lat="40.2705108" lon="20.0424697"><ele>194.0</ele><time>2026-05-03T08:11:48.736Z</time></trkpt><trkpt lat="40.2705895" lon="20.0422944"><ele>193.0</ele><time>2026-05-03T08:11:49.737Z</time></trkpt><trkpt lat="40.2706725" lon="20.0421135"><ele>192.0</ele><time>2026-05-03T08:11:50.736Z</time></trkpt><trkpt lat="40.2707543" lon="20.0419314"><ele>191.0</ele><time>2026-05-03T08:11:51.736Z</time></trkpt><trkpt lat="40.2708372" lon="20.0417482"><ele>192.66666666666666</ele><time>2026-05-03T08:11:52.736Z</time></trkpt><trkpt lat="40.2709227" lon="20.0415697"><ele>194.33333333333331</ele><time>2026-05-03T08:11:53.737Z</time></trkpt><trkpt lat="40.2710106" lon="20.0413793"><ele>196.0</ele><time>2026-05-03T08:11:54.737Z</time></trkpt><trkpt lat="40.2710984" lon="20.0411877"><ele>196.0</ele><time>2026-05-03T08:11:55.736Z</time></trkpt><trkpt lat="40.2711922" lon="20.0409934"><ele>196.0</ele><time>2026-05-03T08:11:56.736Z</time></trkpt><trkpt lat="40.2712784" lon="20.0408025"><ele>196.0</ele><time>2026-05-03T08:11:57.737Z</time></trkpt><trkpt lat="40.2713668" lon="20.0406104"><ele>193.66666666666666</ele><time>2026-05-03T08:11:58.735Z</time></trkpt><trkpt lat="40.2714541" lon="20.0404101"><ele>191.33333333333331</ele><time>2026-05-03T08:11:59.737Z</time></trkpt><trkpt lat="40.2715366" lon="20.0402231"><ele>189.0</ele><time>2026-05-03T08:12:00.735Z</time></trkpt><trkpt lat="40.2716212" lon="20.0400358"><ele>191.33333333333331</ele><time>2026-05-03T08:12:01.736Z</time></trkpt><trkpt lat="40.2717061" lon="20.0398503"><ele>193.66666666666666</ele><time>2026-05-03T08:12:02.736Z</time></trkpt><trkpt lat="40.2717916" lon="20.0396635"><ele>196.0</ele><time>2026-05-03T08:12:03.736Z</time></trkpt><trkpt lat="40.2718751" lon="20.0394843"><ele>196.0</ele><time>2026-05-03T08:12:04.736Z</time></trkpt><trkpt lat="40.2719558" lon="20.0393048"><ele>196.0</ele><time>2026-05-03T08:12:05.736Z</time></trkpt><trkpt lat="40.2720375" lon="20.0391312"><ele>196.0</ele><time>2026-05-03T08:12:06.737Z</time></trkpt><trkpt lat="40.2721252" lon="20.0389657"><ele>196.0</ele><time>2026-05-03T08:12:07.734Z</time></trkpt><trkpt lat="40.2722178" lon="20.0388092"><ele>196.0</ele><time>2026-05-03T08:12:08.735Z</time></trkpt><trkpt lat="40.2723166" lon="20.0386591"><ele>196.0</ele><time>2026-05-03T08:12:09.736Z</time></trkpt><trkpt lat="40.2724224" lon="20.0385132"><ele>193.66666666666666</ele><time>2026-05-03T08:12:10.737Z</time></trkpt><trkpt lat="40.2725372" lon="20.0383738"><ele>191.33333333333331</ele><time>2026-05-03T08:12:11.736Z</time></trkpt><trkpt lat="40.2726629" lon="20.0382367"><ele>189.0</ele><time>2026-05-03T08:12:12.737Z</time></trkpt><trkpt lat="40.2727941" lon="20.0381095"><ele>193.33333333333331</ele><time>2026-05-03T08:12:13.736Z</time></trkpt><trkpt lat="40.272934" lon="20.0379928"><ele>197.66666666666666</ele><time>2026-05-03T08:12:14.736Z</time></trkpt><trkpt lat="40.2730928" lon="20.0378989"><ele>202.0</ele><time>2026-05-03T08:12:15.737Z</time></trkpt><trkpt lat="40.273255" lon="20.0378048"><ele>202.0</ele><time>2026-05-03T08:12:16.736Z</time></trkpt><trkpt lat="40.2734245" lon="20.0377097"><ele>202.0</ele><time>2026-05-03T08:12:17.736Z</time></trkpt><trkpt lat="40.2735935" lon="20.0376259"><ele>202.0</ele><time>2026-05-03T08:12:18.736Z</time></trkpt><trkpt lat="40.2737804" lon="20.0375554"><ele>200.0</ele><time>2026-05-03T08:12:19.737Z</time></trkpt><trkpt lat="40.2739701" lon="20.0374937"><ele>198.0</ele><time>2026-05-03T08:12:20.737Z</time></trkpt><trkpt lat="40.274165" lon="20.0374294"><ele>196.0</ele><time>2026-05-03T08:12:21.737Z</time></trkpt><trkpt lat="40.2743623" lon="20.0373631"><ele>196.66666666666666</ele><time>2026-05-03T08:12:22.736Z</time></trkpt><trkpt lat="40.2745547" lon="20.0373057"><ele>197.33333333333331</ele><time>2026-05-03T08:12:23.735Z</time></trkpt><trkpt lat="40.2747393" lon="20.0372534"><ele>198.0</ele><time>2026-05-03T08:12:24.736Z</time></trkpt><trkpt lat="40.2749251" lon="20.0371955"><ele>198.0</ele><time>2026-05-03T08:12:25.736Z</time></trkpt><trkpt lat="40.2751173" lon="20.0371306"><ele>198.0</ele><time>2026-05-03T08:12:26.735Z</time></trkpt><trkpt lat="40.2753028" lon="20.0370503"><ele>198.0</ele><time>2026-05-03T08:12:27.737Z</time></trkpt><trkpt lat="40.2754809" lon="20.0369628"><ele>194.33333333333334</ele><time>2026-05-03T08:12:28.736Z</time></trkpt><trkpt lat="40.2756524" lon="20.0368682"><ele>190.66666666666669</ele><time>2026-05-03T08:12:29.735Z</time></trkpt><trkpt lat="40.2758165" lon="20.0367637"><ele>187.0</ele><time>2026-05-03T08:12:30.737Z</time></trkpt><trkpt lat="40.2759764" lon="20.0366544"><ele>188.66666666666669</ele><time>2026-05-03T08:12:31.735Z</time></trkpt><trkpt lat="40.2761319" lon="20.0365399"><ele>190.33333333333334</ele><time>2026-05-03T08:12:32.736Z</time></trkpt><trkpt lat="40.2762857" lon="20.0364217"><ele>192.0</ele><time>2026-05-03T08:12:33.736Z</time></trkpt><trkpt lat="40.2764373" lon="20.0363046"><ele>192.0</ele><time>2026-05-03T08:12:34.734Z</time></trkpt><trkpt lat="40.2765879" lon="20.0361892"><ele>192.0</ele><time>2026-05-03T08:12:35.737Z</time></trkpt><trkpt lat="40.276736" lon="20.0360766"><ele>192.0</ele><time>2026-05-03T08:12:36.736Z</time></trkpt><trkpt lat="40.276883" lon="20.0359626"><ele>192.0</ele><time>2026-05-03T08:12:37.736Z</time></trkpt><trkpt lat="40.2770322" lon="20.0358444"><ele>192.0</ele><time>2026-05-03T08:12:38.737Z</time></trkpt><trkpt lat="40.2771808" lon="20.0357262"><ele>192.0</ele><time>2026-05-03T08:12:39.737Z</time></trkpt><trkpt lat="40.2773299" lon="20.0356087"><ele>195.0</ele><time>2026-05-03T08:12:40.736Z</time></trkpt><trkpt lat="40.2774792" lon="20.0354918"><ele>198.0</ele><time>2026-05-03T08:12:41.737Z</time></trkpt><trkpt lat="40.2776249" lon="20.0353569"><ele>201.0</ele><time>2026-05-03T08:12:42.737Z</time></trkpt><trkpt lat="40.2777672" lon="20.0352117"><ele>201.0</ele><time>2026-05-03T08:12:43.735Z</time></trkpt><trkpt lat="40.2779047" lon="20.0350545"><ele>201.0</ele><time>2026-05-03T08:12:44.737Z</time></trkpt><trkpt lat="40.2780386" lon="20.0348879"><ele>201.0</ele><time>2026-05-03T08:12:45.736Z</time></trkpt><trkpt lat="40.2781669" lon="20.0347085"><ele>199.33333333333331</ele><time>2026-05-03T08:12:46.737Z</time></trkpt><trkpt lat="40.2782899" lon="20.0345205"><ele>197.66666666666666</ele><time>2026-05-03T08:12:47.736Z</time></trkpt><trkpt lat="40.2784147" lon="20.0343285"><ele>196.0</ele><time>2026-05-03T08:12:48.736Z</time></trkpt><trkpt lat="40.2785382" lon="20.0341357"><ele>205.33333333333331</ele><time>2026-05-03T08:12:49.736Z</time></trkpt><trkpt lat="40.2786614" lon="20.0339431"><ele>214.66666666666669</ele><time>2026-05-03T08:12:50.735Z</time></trkpt><trkpt lat="40.2787903" lon="20.0337592"><ele>224.0</ele><time>2026-05-03T08:12:51.735Z</time></trkpt><trkpt lat="40.2789299" lon="20.0335864"><ele>220.66666666666669</ele><time>2026-05-03T08:12:52.735Z</time></trkpt><trkpt lat="40.2790797" lon="20.0334249"><ele>217.33333333333331</ele><time>2026-05-03T08:12:53.736Z</time></trkpt><trkpt lat="40.2792414" lon="20.0332787"><ele>214.0</ele><time>2026-05-03T08:12:54.737Z</time></trkpt><trkpt lat="40.2794136" lon="20.0331461"><ele>214.0</ele><time>2026-05-03T08:12:55.737Z</time></trkpt><trkpt lat="40.2795906" lon="20.0330211"><ele>214.0</ele><time>2026-05-03T08:12:56.736Z</time></trkpt><trkpt lat="40.2797702" lon="20.0328962"><ele>214.0</ele><time>2026-05-03T08:12:57.736Z</time></trkpt><trkpt lat="40.2799471" lon="20.0327727"><ele>217.0</ele><time>2026-05-03T08:12:58.735Z</time></trkpt><trkpt lat="40.2801223" lon="20.0326342"><ele>220.0</ele><time>2026-05-03T08:12:59.736Z</time></trkpt><trkpt lat="40.280287" lon="20.0324841"><ele>223.0</ele><time>2026-05-03T08:13:00.736Z</time></trkpt><trkpt lat="40.2804515" lon="20.0323277"><ele>211.33333333333331</ele><time>2026-05-03T08:13:01.735Z</time></trkpt><trkpt lat="40.2806107" lon="20.0321505"><ele>199.66666666666666</ele><time>2026-05-03T08:13:02.737Z</time></trkpt><trkpt lat="40.2807633" lon="20.0319883"><ele>188.0</ele><time>2026-05-03T08:13:03.735Z</time></trkpt><trkpt lat="40.2809247" lon="20.0318178"><ele>188.0</ele><time>2026-05-03T08:13:04.735Z</time></trkpt><trkpt lat="40.2810886" lon="20.0316695"><ele>188.0</ele><time>2026-05-03T08:13:05.735Z</time></trkpt><trkpt lat="40.2812582" lon="20.0315311"><ele>188.0</ele><time>2026-05-03T08:13:06.736Z</time></trkpt><trkpt lat="40.2814357" lon="20.0314017"><ele>189.33333333333331</ele><time>2026-05-03T08:13:07.735Z</time></trkpt><trkpt lat="40.2816166" lon="20.0312801"><ele>190.66666666666666</ele><time>2026-05-03T08:13:08.737Z</time></trkpt><trkpt lat="40.2817969" lon="20.0311612"><ele>192.0</ele><time>2026-05-03T08:13:09.735Z</time></trkpt><trkpt lat="40.2819707" lon="20.031049"><ele>192.0</ele><time>2026-05-03T08:13:10.737Z</time></trkpt><trkpt lat="40.2821455" lon="20.0309364"><ele>192.0</ele><time>2026-05-03T08:13:11.736Z</time></trkpt><trkpt lat="40.2823093" lon="20.030825"><ele>192.0</ele><time>2026-05-03T08:13:12.736Z</time></trkpt><trkpt lat="40.2824693" lon="20.0307178"><ele>193.66666666666669</ele><time>2026-05-03T08:13:13.736Z</time></trkpt><trkpt lat="40.2826312" lon="20.0306096"><ele>195.33333333333334</ele><time>2026-05-03T08:13:14.737Z</time></trkpt><trkpt lat="40.2827945" lon="20.0304952"><ele>197.0</ele><time>2026-05-03T08:13:15.736Z</time></trkpt><trkpt lat="40.2829574" lon="20.0303684"><ele>200.66666666666669</ele><time>2026-05-03T08:13:16.736Z</time></trkpt><trkpt lat="40.2831185" lon="20.0302304"><ele>204.33333333333331</ele><time>2026-05-03T08:13:17.736Z</time></trkpt><trkpt lat="40.2832751" lon="20.0300815"><ele>208.0</ele><time>2026-05-03T08:13:18.736Z</time></trkpt><trkpt lat="40.2834384" lon="20.0299276"><ele>208.0</ele><time>2026-05-03T08:13:19.735Z</time></trkpt><trkpt lat="40.2835898" lon="20.0297722"><ele>208.0</ele><time>2026-05-03T08:13:20.737Z</time></trkpt><trkpt lat="40.2837458" lon="20.0296172"><ele>208.0</ele><time>2026-05-03T08:13:21.736Z</time></trkpt><trkpt lat="40.2838951" lon="20.0294665"><ele>204.0</ele><time>2026-05-03T08:13:22.736Z</time></trkpt><trkpt lat="40.2840352" lon="20.0293052"><ele>200.0</ele><time>2026-05-03T08:13:23.735Z</time></trkpt><trkpt lat="40.2841715" lon="20.0291442"><ele>196.0</ele><time>2026-05-03T08:13:24.735Z</time></trkpt><trkpt lat="40.2843083" lon="20.0289948"><ele>196.0</ele><time>2026-05-03T08:13:25.736Z</time></trkpt><trkpt lat="40.2844507" lon="20.0288642"><ele>196.0</ele><time>2026-05-03T08:13:26.734Z</time></trkpt><trkpt lat="40.2846014" lon="20.0287493"><ele>196.0</ele><time>2026-05-03T08:13:27.737Z</time></trkpt><trkpt lat="40.2847579" lon="20.0286452"><ele>187.0</ele><time>2026-05-03T08:13:28.737Z</time></trkpt><trkpt lat="40.2849201" lon="20.0285486"><ele>178.0</ele><time>2026-05-03T08:13:29.736Z</time></trkpt><trkpt lat="40.2850846" lon="20.0284623"><ele>169.0</ele><time>2026-05-03T08:13:30.736Z</time></trkpt><trkpt lat="40.2852495" lon="20.0283864"><ele>169.0</ele><time>2026-05-03T08:13:31.736Z</time></trkpt><trkpt lat="40.2854165" lon="20.0283188"><ele>169.0</ele><time>2026-05-03T08:13:32.736Z</time></trkpt><trkpt lat="40.2855843" lon="20.0282507"><ele>169.0</ele><time>2026-05-03T08:13:33.737Z</time></trkpt><trkpt lat="40.2857486" lon="20.0281813"><ele>178.66666666666669</ele><time>2026-05-03T08:13:34.736Z</time></trkpt><trkpt lat="40.2859101" lon="20.0281026"><ele>188.33333333333334</ele><time>2026-05-03T08:13:35.736Z</time></trkpt><trkpt lat="40.2860676" lon="20.0280039"><ele>198.0</ele><time>2026-05-03T08:13:36.737Z</time></trkpt><trkpt lat="40.2862203" lon="20.0278824"><ele>198.0</ele><time>2026-05-03T08:13:37.735Z</time></trkpt><trkpt lat="40.2863673" lon="20.0277497"><ele>198.0</ele><time>2026-05-03T08:13:38.736Z</time></trkpt><trkpt lat="40.2865103" lon="20.0276164"><ele>198.0</ele><time>2026-05-03T08:13:39.736Z</time></trkpt><trkpt lat="40.2866517" lon="20.0274851"><ele>204.33333333333331</ele><time>2026-05-03T08:13:40.737Z</time></trkpt><trkpt lat="40.2867915" lon="20.0273602"><ele>210.66666666666666</ele><time>2026-05-03T08:13:41.737Z</time></trkpt><trkpt lat="40.2869271" lon="20.0272361"><ele>217.0</ele><time>2026-05-03T08:13:42.735Z</time></trkpt><trkpt lat="40.2870605" lon="20.0271097"><ele>217.0</ele><time>2026-05-03T08:13:43.737Z</time></trkpt><trkpt lat="40.2871942" lon="20.0269824"><ele>217.0</ele><time>2026-05-03T08:13:44.735Z</time></trkpt><trkpt lat="40.2873274" lon="20.0268524"><ele>217.0</ele><time>2026-05-03T08:13:45.736Z</time></trkpt><trkpt lat="40.2874599" lon="20.0267224"><ele>215.33333333333331</ele><time>2026-05-03T08:13:46.737Z</time></trkpt><trkpt lat="40.2875861" lon="20.0265909"><ele>213.66666666666669</ele><time>2026-05-03T08:13:47.737Z</time></trkpt><trkpt lat="40.2877069" lon="20.0264491"><ele>212.0</ele><time>2026-05-03T08:13:48.737Z</time></trkpt><trkpt lat="40.2878224" lon="20.0262985"><ele>212.0</ele><time>2026-05-03T08:13:49.736Z</time></trkpt><trkpt lat="40.2879331" lon="20.0261417"><ele>212.0</ele><time>2026-05-03T08:13:50.736Z</time></trkpt><trkpt lat="40.2880358" lon="20.0259853"><ele>212.0</ele><time>2026-05-03T08:13:51.737Z</time></trkpt><trkpt lat="40.2881299" lon="20.0258204"><ele>206.0</ele><time>2026-05-03T08:13:52.735Z</time></trkpt><trkpt lat="40.2882253" lon="20.0256511"><ele>200.0</ele><time>2026-05-03T08:13:53.737Z</time></trkpt><trkpt lat="40.2883246" lon="20.0254898"><ele>194.0</ele><time>2026-05-03T08:13:54.736Z</time></trkpt><trkpt lat="40.2884284" lon="20.0253378"><ele>194.0</ele><time>2026-05-03T08:13:55.737Z</time></trkpt><trkpt lat="40.288534" lon="20.0251954"><ele>194.0</ele><time>2026-05-03T08:13:56.737Z</time></trkpt><trkpt lat="40.2886379" lon="20.0250542"><ele>194.0</ele><time>2026-05-03T08:13:57.737Z</time></trkpt><trkpt lat="40.288743" lon="20.024918"><ele>194.0</ele><time>2026-05-03T08:13:58.737Z</time></trkpt><trkpt lat="40.2888472" lon="20.0247807"><ele>193.75</ele><time>2026-05-03T08:13:59.735Z</time></trkpt><trkpt lat="40.2889539" lon="20.0246553"><ele>193.5</ele><time>2026-05-03T08:14:00.737Z</time></trkpt><trkpt lat="40.2890631" lon="20.024542"><ele>193.25</ele><time>2026-05-03T08:14:01.736Z</time></trkpt><trkpt lat="40.2891789" lon="20.0244453"><ele>193.0</ele><time>2026-05-03T08:14:02.736Z</time></trkpt><trkpt lat="40.2892921" lon="20.0243613"><ele>193.0</ele><time>2026-05-03T08:14:03.737Z</time></trkpt><trkpt lat="40.289409" lon="20.0242857"><ele>193.0</ele><time>2026-05-03T08:14:04.735Z</time></trkpt><trkpt lat="40.2895306" lon="20.0242086"><ele>193.0</ele><time>2026-05-03T08:14:05.737Z</time></trkpt><trkpt lat="40.2896527" lon="20.0241252"><ele>193.0</ele><time>2026-05-03T08:14:06.737Z</time></trkpt><trkpt lat="40.2897735" lon="20.0240341"><ele>196.5</ele><time>2026-05-03T08:14:07.735Z</time></trkpt><trkpt lat="40.2898891" lon="20.0239366"><ele>200.0</ele><time>2026-05-03T08:14:08.736Z</time></trkpt><trkpt lat="40.2900019" lon="20.0238352"><ele>203.5</ele><time>2026-05-03T08:14:09.737Z</time></trkpt><trkpt lat="40.2901091" lon="20.0237058"><ele>207.0</ele><time>2026-05-03T08:14:10.734Z</time></trkpt><trkpt lat="40.2902219" lon="20.0235923"><ele>207.0</ele><time>2026-05-03T08:14:11.736Z</time></trkpt><trkpt lat="40.2903386" lon="20.0234843"><ele>207.0</ele><time>2026-05-03T08:14:12.736Z</time></trkpt><trkpt lat="40.2904591" lon="20.0233841"><ele>207.0</ele><time>2026-05-03T08:14:13.736Z</time></trkpt><trkpt lat="40.2905799" lon="20.0233058"><ele>207.0</ele><time>2026-05-03T08:14:14.735Z</time></trkpt><trkpt lat="40.2907063" lon="20.0232085"><ele>208.66666666666669</ele><time>2026-05-03T08:14:15.736Z</time></trkpt><trkpt lat="40.2908431" lon="20.0230946"><ele>210.33333333333334</ele><time>2026-05-03T08:14:16.736Z</time></trkpt><trkpt lat="40.290967" lon="20.0229794"><ele>212.0</ele><time>2026-05-03T08:14:17.735Z</time></trkpt><trkpt lat="40.2910755" lon="20.0228516"><ele>212.0</ele><time>2026-05-03T08:14:18.736Z</time></trkpt><trkpt lat="40.2911876" lon="20.0227264"><ele>212.0</ele><time>2026-05-03T08:14:19.736Z</time></trkpt><trkpt lat="40.2913038" lon="20.0226018"><ele>212.0</ele><time>2026-05-03T08:14:20.737Z</time></trkpt><trkpt lat="40.2914137" lon="20.0224705"><ele>212.0</ele><time>2026-05-03T08:14:21.736Z</time></trkpt><trkpt lat="40.2915264" lon="20.0223454"><ele>211.5</ele><time>2026-05-03T08:14:22.737Z</time></trkpt><trkpt lat="40.291637" lon="20.0222231"><ele>211.0</ele><time>2026-05-03T08:14:23.736Z</time></trkpt><trkpt lat="40.291746" lon="20.0221035"><ele>210.5</ele><time>2026-05-03T08:14:24.736Z</time></trkpt><trkpt lat="40.2918566" lon="20.0219892"><ele>210.0</ele><time>2026-05-03T08:14:25.736Z</time></trkpt><trkpt lat="40.2919668" lon="20.0218965"><ele>210.0</ele><time>2026-05-03T08:14:26.736Z</time></trkpt><trkpt lat="40.2920764" lon="20.0218193"><ele>210.0</ele><time>2026-05-03T08:14:27.737Z</time></trkpt><trkpt lat="40.2921778" lon="20.0217553"><ele>210.0</ele><time>2026-05-03T08:14:28.736Z</time></trkpt><trkpt lat="40.2922754" lon="20.0216953"><ele>210.0</ele><time>2026-05-03T08:14:29.737Z</time></trkpt><trkpt lat="40.2923657" lon="20.0216299"><ele>210.0</ele><time>2026-05-03T08:14:30.736Z</time></trkpt><trkpt lat="40.2924492" lon="20.0215694"><ele>212.33333333333334</ele><time>2026-05-03T08:14:31.737Z</time></trkpt><trkpt lat="40.2925299" lon="20.0215109"><ele>214.66666666666669</ele><time>2026-05-03T08:14:32.736Z</time></trkpt><trkpt lat="40.2926095" lon="20.021456"><ele>217.0</ele><time>2026-05-03T08:14:33.736Z</time></trkpt><trkpt lat="40.292689" lon="20.021404"><ele>219.33333333333334</ele><time>2026-05-03T08:14:34.736Z</time></trkpt><trkpt lat="40.2927659" lon="20.0213544"><ele>221.66666666666669</ele><time>2026-05-03T08:14:35.737Z</time></trkpt><trkpt lat="40.2928381" lon="20.0213117"><ele>224.0</ele><time>2026-05-03T08:14:36.737Z</time></trkpt><trkpt lat="40.2929053" lon="20.0212728"><ele>224.00000000000003</ele><time>2026-05-03T08:14:37.735Z</time></trkpt><trkpt lat="40.2930155" lon="20.0212356"><ele>224.0</ele><time>2026-05-03T08:14:39.737Z</time></trkpt><trkpt lat="40.2931001" lon="20.0212388"><ele>224.0</ele><time>2026-05-03T08:14:41.735Z</time></trkpt><trkpt lat="40.2931863" lon="20.0212354"><ele>224.0</ele><time>2026-05-03T08:14:44.736Z</time></trkpt><trkpt lat="40.2932593" lon="20.0212594"><ele>224.00000000000003</ele><time>2026-05-03T08:14:46.736Z</time></trkpt><trkpt lat="40.293324" lon="20.0212947"><ele>224.0</ele><time>2026-05-03T08:14:49.737Z</time></trkpt><trkpt lat="40.2933964" lon="20.0213298"><ele>220.0</ele><time>2026-05-03T08:14:54.737Z</time></trkpt><trkpt lat="40.2935115" lon="20.0213702"><ele>215.99999999999997</ele><time>2026-05-03T08:14:56.736Z</time></trkpt><trkpt lat="40.293573" lon="20.0213909"><ele>212.0</ele><time>2026-05-03T08:14:57.737Z</time></trkpt><trkpt lat="40.2936883" lon="20.021434"><ele>208.0</ele><time>2026-05-03T08:14:59.736Z</time></trkpt><trkpt lat="40.2937713" lon="20.021472"><ele>204.0</ele><time>2026-05-03T08:15:00.736Z</time></trkpt><trkpt lat="40.2938769" lon="20.0215119"><ele>202.75</ele><time>2026-05-03T08:15:01.736Z</time></trkpt><trkpt lat="40.2939944" lon="20.021546"><ele>201.5</ele><time>2026-05-03T08:15:02.734Z</time></trkpt><trkpt lat="40.2941184" lon="20.0215755"><ele>200.25</ele><time>2026-05-03T08:15:03.735Z</time></trkpt><trkpt lat="40.294257" lon="20.0216039"><ele>199.0</ele><time>2026-05-03T08:15:04.736Z</time></trkpt><trkpt lat="40.29442" lon="20.0216323"><ele>196.33333333333331</ele><time>2026-05-03T08:15:05.737Z</time></trkpt><trkpt lat="40.2946079" lon="20.021661"><ele>193.66666666666666</ele><time>2026-05-03T08:15:06.736Z</time></trkpt><trkpt lat="40.2948164" lon="20.0216932"><ele>191.0</ele><time>2026-05-03T08:15:07.735Z</time></trkpt><trkpt lat="40.2950274" lon="20.0217309"><ele>191.0</ele><time>2026-05-03T08:15:08.737Z</time></trkpt><trkpt lat="40.2952397" lon="20.0217822"><ele>191.0</ele><time>2026-05-03T08:15:09.737Z</time></trkpt><trkpt lat="40.2954528" lon="20.0218426"><ele>191.0</ele><time>2026-05-03T08:15:10.735Z</time></trkpt><trkpt lat="40.2956592" lon="20.0218908"><ele>191.66666666666666</ele><time>2026-05-03T08:15:11.736Z</time></trkpt><trkpt lat="40.2958511" lon="20.0219486"><ele>192.33333333333331</ele><time>2026-05-03T08:15:12.736Z</time></trkpt><trkpt lat="40.2960456" lon="20.0220047"><ele>193.0</ele><time>2026-05-03T08:15:13.736Z</time></trkpt><trkpt lat="40.296237" lon="20.0220682"><ele>193.33333333333331</ele><time>2026-05-03T08:15:14.736Z</time></trkpt><trkpt lat="40.2964251" lon="20.0221384"><ele>193.66666666666669</ele><time>2026-05-03T08:15:15.737Z</time></trkpt><trkpt lat="40.2966142" lon="20.0222039"><ele>194.0</ele><time>2026-05-03T08:15:16.737Z</time></trkpt><trkpt lat="40.296801" lon="20.0222683"><ele>194.0</ele><time>2026-05-03T08:15:17.736Z</time></trkpt><trkpt lat="40.2969887" lon="20.0223332"><ele>194.0</ele><time>2026-05-03T08:15:18.735Z</time></trkpt><trkpt lat="40.2971775" lon="20.0223941"><ele>194.0</ele><time>2026-05-03T08:15:19.737Z</time></trkpt><trkpt lat="40.297365" lon="20.0224352"><ele>193.66666666666669</ele><time>2026-05-03T08:15:20.736Z</time></trkpt><trkpt lat="40.2975496" lon="20.0224798"><ele>193.33333333333331</ele><time>2026-05-03T08:15:21.736Z</time></trkpt><trkpt lat="40.2977353" lon="20.0225171"><ele>193.0</ele><time>2026-05-03T08:15:22.736Z</time></trkpt><trkpt lat="40.2979139" lon="20.0225525"><ele>187.66666666666666</ele><time>2026-05-03T08:15:23.737Z</time></trkpt><trkpt lat="40.29809" lon="20.0225813"><ele>182.33333333333331</ele><time>2026-05-03T08:15:24.736Z</time></trkpt><trkpt lat="40.2982685" lon="20.0225983"><ele>177.0</ele><time>2026-05-03T08:15:25.737Z</time></trkpt><trkpt lat="40.2984495" lon="20.0226033"><ele>177.0</ele><time>2026-05-03T08:15:26.736Z</time></trkpt><trkpt lat="40.2986331" lon="20.0226113"><ele>177.0</ele><time>2026-05-03T08:15:27.737Z</time></trkpt><trkpt lat="40.2988144" lon="20.0226176"><ele>177.0</ele><time>2026-05-03T08:15:28.736Z</time></trkpt><trkpt lat="40.2989959" lon="20.0226229"><ele>176.0</ele><time>2026-05-03T08:15:29.735Z</time></trkpt><trkpt lat="40.2991773" lon="20.0226316"><ele>175.0</ele><time>2026-05-03T08:15:30.733Z</time></trkpt><trkpt lat="40.2993571" lon="20.0226403"><ele>174.0</ele><time>2026-05-03T08:15:31.736Z</time></trkpt><trkpt lat="40.299537" lon="20.022652"><ele>174.0</ele><time>2026-05-03T08:15:32.736Z</time></trkpt><trkpt lat="40.2997186" lon="20.0226734"><ele>174.0</ele><time>2026-05-03T08:15:33.736Z</time></trkpt><trkpt lat="40.2998975" lon="20.0227065"><ele>174.0</ele><time>2026-05-03T08:15:34.737Z</time></trkpt><trkpt lat="40.3000705" lon="20.0227408"><ele>174.0</ele><time>2026-05-03T08:15:35.737Z</time></trkpt><trkpt lat="40.3002392" lon="20.0227753"><ele>174.0</ele><time>2026-05-03T08:15:36.736Z</time></trkpt><trkpt lat="40.3004068" lon="20.0227988"><ele>174.0</ele><time>2026-05-03T08:15:37.736Z</time></trkpt><trkpt lat="40.3005673" lon="20.0228316"><ele>169.33333333333334</ele><time>2026-05-03T08:15:38.736Z</time></trkpt><trkpt lat="40.300724" lon="20.0228434"><ele>164.66666666666669</ele><time>2026-05-03T08:15:39.734Z</time></trkpt><trkpt lat="40.3008754" lon="20.0228309"><ele>160.0</ele><time>2026-05-03T08:15:40.736Z</time></trkpt><trkpt lat="40.3010185" lon="20.0227816"><ele>160.0</ele><time>2026-05-03T08:15:41.737Z</time></trkpt><trkpt lat="40.3011515" lon="20.0227058"><ele>160.0</ele><time>2026-05-03T08:15:42.737Z</time></trkpt><trkpt lat="40.30127" lon="20.0226064"><ele>160.0</ele><time>2026-05-03T08:15:43.737Z</time></trkpt><trkpt lat="40.3013741" lon="20.0224926"><ele>160.0</ele><time>2026-05-03T08:15:44.735Z</time></trkpt><trkpt lat="40.301455" lon="20.0223594"><ele>157.25</ele><time>2026-05-03T08:15:45.735Z</time></trkpt><trkpt lat="40.3015184" lon="20.0222146"><ele>154.5</ele><time>2026-05-03T08:15:46.737Z</time></trkpt><trkpt lat="40.3015713" lon="20.0220591"><ele>151.75</ele><time>2026-05-03T08:15:47.737Z</time></trkpt><trkpt lat="40.3016207" lon="20.0219012"><ele>149.0</ele><time>2026-05-03T08:15:48.736Z</time></trkpt><trkpt lat="40.3016758" lon="20.0217415"><ele>149.5</ele><time>2026-05-03T08:15:49.737Z</time></trkpt><trkpt lat="40.3017318" lon="20.0215935"><ele>150.0</ele><time>2026-05-03T08:15:50.737Z</time></trkpt><trkpt lat="40.3017979" lon="20.021452"><ele>150.5</ele><time>2026-05-03T08:15:51.736Z</time></trkpt><trkpt lat="40.3018745" lon="20.0213214"><ele>151.0</ele><time>2026-05-03T08:15:52.737Z</time></trkpt><trkpt lat="40.3019614" lon="20.0211974"><ele>151.0</ele><time>2026-05-03T08:15:53.737Z</time></trkpt><trkpt lat="40.3020584" lon="20.0210775"><ele>151.0</ele><time>2026-05-03T08:15:54.736Z</time></trkpt><trkpt lat="40.3021592" lon="20.0209609"><ele>151.0</ele><time>2026-05-03T08:15:55.736Z</time></trkpt><trkpt lat="40.3022615" lon="20.0208422"><ele>151.0</ele><time>2026-05-03T08:15:56.736Z</time></trkpt><trkpt lat="40.30237" lon="20.020722"><ele>150.5</ele><time>2026-05-03T08:15:57.737Z</time></trkpt><trkpt lat="40.3024753" lon="20.0205841"><ele>150.0</ele><time>2026-05-03T08:15:58.737Z</time></trkpt><trkpt lat="40.3025809" lon="20.0204626"><ele>149.5</ele><time>2026-05-03T08:15:59.736Z</time></trkpt><trkpt lat="40.3026877" lon="20.0203476"><ele>149.0</ele><time>2026-05-03T08:16:00.735Z</time></trkpt><trkpt lat="40.3027826" lon="20.020231"><ele>149.0</ele><time>2026-05-03T08:16:01.737Z</time></trkpt><trkpt lat="40.3028902" lon="20.0201116"><ele>149.0</ele><time>2026-05-03T08:16:02.737Z</time></trkpt><trkpt lat="40.3029971" lon="20.0199921"><ele>149.0</ele><time>2026-05-03T08:16:03.737Z</time></trkpt><trkpt lat="40.3031029" lon="20.0198721"><ele>149.0</ele><time>2026-05-03T08:16:04.735Z</time></trkpt><trkpt lat="40.3032067" lon="20.019748"><ele>149.0</ele><time>2026-05-03T08:16:05.737Z</time></trkpt><trkpt lat="40.3033056" lon="20.0196292"><ele>149.0</ele><time>2026-05-03T08:16:06.736Z</time></trkpt><trkpt lat="40.3034021" lon="20.0195193"><ele>149.0</ele><time>2026-05-03T08:16:07.737Z</time></trkpt><trkpt lat="40.303493" lon="20.0194064"><ele>149.0</ele><time>2026-05-03T08:16:08.737Z</time></trkpt><trkpt lat="40.3035877" lon="20.0192902"><ele>149.0</ele><time>2026-05-03T08:16:09.737Z</time></trkpt><trkpt lat="40.3036833" lon="20.0191743"><ele>149.0</ele><time>2026-05-03T08:16:10.735Z</time></trkpt><trkpt lat="40.3037822" lon="20.019057"><ele>149.0</ele><time>2026-05-03T08:16:11.736Z</time></trkpt><trkpt lat="40.3038933" lon="20.0189364"><ele>149.0</ele><time>2026-05-03T08:16:12.736Z</time></trkpt><trkpt lat="40.3039984" lon="20.0188157"><ele>148.0</ele><time>2026-05-03T08:16:13.737Z</time></trkpt><trkpt lat="40.3041073" lon="20.0186918"><ele>147.0</ele><time>2026-05-03T08:16:14.736Z</time></trkpt><trkpt lat="40.3042203" lon="20.0185578"><ele>146.0</ele><time>2026-05-03T08:16:15.736Z</time></trkpt><trkpt lat="40.3043349" lon="20.0184241"><ele>145.33333333333331</ele><time>2026-05-03T08:16:16.737Z</time></trkpt><trkpt lat="40.304455" lon="20.0182882"><ele>144.66666666666666</ele><time>2026-05-03T08:16:17.736Z</time></trkpt><trkpt lat="40.3045783" lon="20.0181592"><ele>144.0</ele><time>2026-05-03T08:16:18.736Z</time></trkpt><trkpt lat="40.3047055" lon="20.0180397"><ele>142.66666666666666</ele><time>2026-05-03T08:16:19.737Z</time></trkpt><trkpt lat="40.3048444" lon="20.017921"><ele>141.33333333333331</ele><time>2026-05-03T08:16:20.736Z</time></trkpt><trkpt lat="40.3049885" lon="20.0178235"><ele>140.0</ele><time>2026-05-03T08:16:21.735Z</time></trkpt><trkpt lat="40.3051334" lon="20.0177319"><ele>140.0</ele><time>2026-05-03T08:16:22.736Z</time></trkpt><trkpt lat="40.3052789" lon="20.0176454"><ele>140.0</ele><time>2026-05-03T08:16:23.737Z</time></trkpt><trkpt lat="40.3054276" lon="20.0175572"><ele>140.0</ele><time>2026-05-03T08:16:24.735Z</time></trkpt><trkpt lat="40.3055779" lon="20.01747"><ele>137.33333333333331</ele><time>2026-05-03T08:16:25.736Z</time></trkpt><trkpt lat="40.3057296" lon="20.0173788"><ele>134.66666666666666</ele><time>2026-05-03T08:16:26.735Z</time></trkpt><trkpt lat="40.3058816" lon="20.017286"><ele>132.0</ele><time>2026-05-03T08:16:27.735Z</time></trkpt><trkpt lat="40.3060362" lon="20.017192"><ele>132.0</ele><time>2026-05-03T08:16:28.737Z</time></trkpt><trkpt lat="40.306193" lon="20.0170991"><ele>132.0</ele><time>2026-05-03T08:16:29.737Z</time></trkpt><trkpt lat="40.30635" lon="20.0170047"><ele>132.0</ele><time>2026-05-03T08:16:30.735Z</time></trkpt><trkpt lat="40.3065067" lon="20.0169088"><ele>133.33333333333334</ele><time>2026-05-03T08:16:31.737Z</time></trkpt><trkpt lat="40.306663" lon="20.016812"><ele>134.66666666666669</ele><time>2026-05-03T08:16:32.737Z</time></trkpt><trkpt lat="40.3068228" lon="20.0167161"><ele>136.0</ele><time>2026-05-03T08:16:33.736Z</time></trkpt><trkpt lat="40.30698" lon="20.0166222"><ele>136.66666666666669</ele><time>2026-05-03T08:16:34.736Z</time></trkpt><trkpt lat="40.3071386" lon="20.0165314"><ele>137.33333333333334</ele><time>2026-05-03T08:16:35.736Z</time></trkpt><trkpt lat="40.3073011" lon="20.0164489"><ele>138.0</ele><time>2026-05-03T08:16:36.736Z</time></trkpt><trkpt lat="40.3074692" lon="20.0163809"><ele>141.33333333333334</ele><time>2026-05-03T08:16:37.737Z</time></trkpt><trkpt lat="40.3076444" lon="20.01631"><ele>144.66666666666669</ele><time>2026-05-03T08:16:38.736Z</time></trkpt><trkpt lat="40.3078267" lon="20.0162764"><ele>148.0</ele><time>2026-05-03T08:16:39.736Z</time></trkpt><trkpt lat="40.3080168" lon="20.0162631"><ele>151.0</ele><time>2026-05-03T08:16:40.736Z</time></trkpt><trkpt lat="40.308192" lon="20.016266"><ele>154.0</ele><time>2026-05-03T08:16:41.737Z</time></trkpt><trkpt lat="40.3083618" lon="20.0162661"><ele>157.0</ele><time>2026-05-03T08:16:42.737Z</time></trkpt><trkpt lat="40.3085386" lon="20.0162793"><ele>157.0</ele><time>2026-05-03T08:16:43.735Z</time></trkpt><trkpt lat="40.3087096" lon="20.0162953"><ele>157.0</ele><time>2026-05-03T08:16:44.737Z</time></trkpt><trkpt lat="40.3088768" lon="20.0163147"><ele>157.0</ele><time>2026-05-03T08:16:45.737Z</time></trkpt><trkpt lat="40.3090379" lon="20.0163348"><ele>157.66666666666669</ele><time>2026-05-03T08:16:46.737Z</time></trkpt><trkpt lat="40.3091954" lon="20.016355"><ele>158.33333333333334</ele><time>2026-05-03T08:16:47.732Z</time></trkpt><trkpt lat="40.3093558" lon="20.0163659"><ele>159.0</ele><time>2026-05-03T08:16:48.735Z</time></trkpt><trkpt lat="40.3095141" lon="20.0163636"><ele>159.0</ele><time>2026-05-03T08:16:49.732Z</time></trkpt><trkpt lat="40.30967" lon="20.0163528"><ele>159.0</ele><time>2026-05-03T08:16:50.734Z</time></trkpt><trkpt lat="40.3098231" lon="20.0163234"><ele>159.0</ele><time>2026-05-03T08:16:51.733Z</time></trkpt><trkpt lat="40.3099734" lon="20.0162748"><ele>161.33333333333334</ele><time>2026-05-03T08:16:52.735Z</time></trkpt><trkpt lat="40.3101193" lon="20.0162018"><ele>163.66666666666669</ele><time>2026-05-03T08:16:53.734Z</time></trkpt><trkpt lat="40.3102616" lon="20.0161117"><ele>166.0</ele><time>2026-05-03T08:16:54.734Z</time></trkpt><trkpt lat="40.3103988" lon="20.016007"><ele>166.0</ele><time>2026-05-03T08:16:55.737Z</time></trkpt><trkpt lat="40.3105297" lon="20.0158976"><ele>166.0</ele><time>2026-05-03T08:16:56.734Z</time></trkpt><trkpt lat="40.3106508" lon="20.0157657"><ele>166.0</ele><time>2026-05-03T08:16:57.733Z</time></trkpt><trkpt lat="40.310766" lon="20.0156249"><ele>166.0</ele><time>2026-05-03T08:16:58.735Z</time></trkpt><trkpt lat="40.3108828" lon="20.0154888"><ele>166.0</ele><time>2026-05-03T08:16:59.733Z</time></trkpt><trkpt lat="40.3110054" lon="20.0153564"><ele>166.0</ele><time>2026-05-03T08:17:00.735Z</time></trkpt><trkpt lat="40.3111271" lon="20.0152208"><ele>166.0</ele><time>2026-05-03T08:17:01.732Z</time></trkpt><trkpt lat="40.3112607" lon="20.015093"><ele>166.0</ele><time>2026-05-03T08:17:02.733Z</time></trkpt><trkpt lat="40.311403" lon="20.0149694"><ele>166.0</ele><time>2026-05-03T08:17:03.737Z</time></trkpt><trkpt lat="40.3115542" lon="20.0148539"><ele>165.33333333333334</ele><time>2026-05-03T08:17:04.735Z</time></trkpt><trkpt lat="40.3117152" lon="20.0147476"><ele>164.66666666666666</ele><time>2026-05-03T08:17:05.735Z</time></trkpt><trkpt lat="40.3118823" lon="20.0146609"><ele>164.0</ele><time>2026-05-03T08:17:06.734Z</time></trkpt><trkpt lat="40.3120575" lon="20.0145825"><ele>164.0</ele><time>2026-05-03T08:17:07.737Z</time></trkpt><trkpt lat="40.3122373" lon="20.0145038"><ele>164.0</ele><time>2026-05-03T08:17:08.734Z</time></trkpt><trkpt lat="40.3124162" lon="20.0144251"><ele>164.0</ele><time>2026-05-03T08:17:09.735Z</time></trkpt><trkpt lat="40.3125989" lon="20.0143446"><ele>164.33333333333331</ele><time>2026-05-03T08:17:10.736Z</time></trkpt><trkpt lat="40.3127915" lon="20.0142649"><ele>164.66666666666666</ele><time>2026-05-03T08:17:11.734Z</time></trkpt><trkpt lat="40.3129841" lon="20.0141844"><ele>165.0</ele><time>2026-05-03T08:17:12.734Z</time></trkpt><trkpt lat="40.3131737" lon="20.0141035"><ele>165.0</ele><time>2026-05-03T08:17:13.736Z</time></trkpt><trkpt lat="40.3133551" lon="20.0140207"><ele>165.0</ele><time>2026-05-03T08:17:14.735Z</time></trkpt><trkpt lat="40.3135304" lon="20.0139356"><ele>165.0</ele><time>2026-05-03T08:17:15.734Z</time></trkpt><trkpt lat="40.3136948" lon="20.0138469"><ele>165.0</ele><time>2026-05-03T08:17:16.737Z</time></trkpt><trkpt lat="40.3138539" lon="20.0137482"><ele>165.0</ele><time>2026-05-03T08:17:17.736Z</time></trkpt><trkpt lat="40.3140027" lon="20.0136335"><ele>165.0</ele><time>2026-05-03T08:17:18.735Z</time></trkpt><trkpt lat="40.3141456" lon="20.0135087"><ele>163.66666666666666</ele><time>2026-05-03T08:17:19.735Z</time></trkpt><trkpt lat="40.3142801" lon="20.0133683"><ele>162.33333333333331</ele><time>2026-05-03T08:17:20.735Z</time></trkpt><trkpt lat="40.3144068" lon="20.0132105"><ele>161.0</ele><time>2026-05-03T08:17:21.735Z</time></trkpt><trkpt lat="40.3145235" lon="20.0130272"><ele>161.0</ele><time>2026-05-03T08:17:22.735Z</time></trkpt><trkpt lat="40.3146387" lon="20.0128336"><ele>161.0</ele><time>2026-05-03T08:17:23.735Z</time></trkpt><trkpt lat="40.3147483" lon="20.0126135"><ele>161.0</ele><time>2026-05-03T08:17:24.737Z</time></trkpt><trkpt lat="40.3148522" lon="20.0123924"><ele>159.0</ele><time>2026-05-03T08:17:25.735Z</time></trkpt><trkpt lat="40.3149549" lon="20.0121695"><ele>157.0</ele><time>2026-05-03T08:17:26.736Z</time></trkpt><trkpt lat="40.3150651" lon="20.0119582"><ele>155.0</ele><time>2026-05-03T08:17:27.736Z</time></trkpt><trkpt lat="40.3151802" lon="20.0117438"><ele>155.33333333333331</ele><time>2026-05-03T08:17:28.737Z</time></trkpt><trkpt lat="40.3153057" lon="20.0115409"><ele>155.66666666666666</ele><time>2026-05-03T08:17:29.736Z</time></trkpt><trkpt lat="40.3154435" lon="20.0113542"><ele>156.0</ele><time>2026-05-03T08:17:30.736Z</time></trkpt><trkpt lat="40.3155919" lon="20.0111883"><ele>156.0</ele><time>2026-05-03T08:17:31.735Z</time></trkpt><trkpt lat="40.3157542" lon="20.0110364"><ele>156.0</ele><time>2026-05-03T08:17:32.735Z</time></trkpt><trkpt lat="40.3159231" lon="20.010911"><ele>156.0</ele><time>2026-05-03T08:17:33.735Z</time></trkpt><trkpt lat="40.3161008" lon="20.0108011"><ele>160.0</ele><time>2026-05-03T08:17:34.733Z</time></trkpt><trkpt lat="40.316285" lon="20.0107062"><ele>164.0</ele><time>2026-05-03T08:17:35.735Z</time></trkpt><trkpt lat="40.3164712" lon="20.010624"><ele>168.0</ele><time>2026-05-03T08:17:36.736Z</time></trkpt><trkpt lat="40.3166579" lon="20.0105471"><ele>168.0</ele><time>2026-05-03T08:17:37.736Z</time></trkpt><trkpt lat="40.3168403" lon="20.0104585"><ele>168.0</ele><time>2026-05-03T08:17:38.736Z</time></trkpt><trkpt lat="40.3170217" lon="20.0103748"><ele>168.0</ele><time>2026-05-03T08:17:39.735Z</time></trkpt><trkpt lat="40.3172012" lon="20.0102834"><ele>166.0</ele><time>2026-05-03T08:17:40.736Z</time></trkpt><trkpt lat="40.3173747" lon="20.0101805"><ele>164.0</ele><time>2026-05-03T08:17:41.736Z</time></trkpt><trkpt lat="40.3175445" lon="20.0100648"><ele>162.0</ele><time>2026-05-03T08:17:42.737Z</time></trkpt><trkpt lat="40.3177224" lon="20.0099297"><ele>163.0</ele><time>2026-05-03T08:17:43.735Z</time></trkpt><trkpt lat="40.31791" lon="20.0097702"><ele>164.0</ele><time>2026-05-03T08:17:44.737Z</time></trkpt><trkpt lat="40.3181058" lon="20.0095831"><ele>164.0</ele><time>2026-05-03T08:17:45.737Z</time></trkpt><trkpt lat="40.3183118" lon="20.0093841"><ele>164.0</ele><time>2026-05-03T08:17:46.736Z</time></trkpt><trkpt lat="40.3185292" lon="20.0091733"><ele>167.0</ele><time>2026-05-03T08:17:47.735Z</time></trkpt><trkpt lat="40.3187586" lon="20.0089638"><ele>170.0</ele><time>2026-05-03T08:17:48.735Z</time></trkpt><trkpt lat="40.3189845" lon="20.0087511"><ele>170.0</ele><time>2026-05-03T08:17:49.732Z</time></trkpt><trkpt lat="40.3192029" lon="20.0085449"><ele>170.0</ele><time>2026-05-03T08:17:50.736Z</time></trkpt><trkpt lat="40.3194117" lon="20.0083496"><ele>170.0</ele><time>2026-05-03T08:17:51.737Z</time></trkpt><trkpt lat="40.3196105" lon="20.0081706"><ele>170.0</ele><time>2026-05-03T08:17:52.734Z</time></trkpt><trkpt lat="40.3198024" lon="20.0079964"><ele>170.0</ele><time>2026-05-03T08:17:53.735Z</time></trkpt><trkpt lat="40.3199875" lon="20.0078342"><ele>170.0</ele><time>2026-05-03T08:17:54.736Z</time></trkpt><trkpt lat="40.3201712" lon="20.0076786"><ele>170.0</ele><time>2026-05-03T08:17:55.736Z</time></trkpt><trkpt lat="40.320343" lon="20.0075206"><ele>171.33333333333331</ele><time>2026-05-03T08:17:56.735Z</time></trkpt><trkpt lat="40.3205215" lon="20.0073708"><ele>172.66666666666666</ele><time>2026-05-03T08:17:57.735Z</time></trkpt><trkpt lat="40.320696" lon="20.0072291"><ele>174.0</ele><time>2026-05-03T08:17:58.737Z</time></trkpt><trkpt lat="40.3208726" lon="20.007086"><ele>174.0</ele><time>2026-05-03T08:17:59.736Z</time></trkpt><trkpt lat="40.3210499" lon="20.0069428"><ele>174.0</ele><time>2026-05-03T08:18:00.736Z</time></trkpt><trkpt lat="40.3212276" lon="20.0067961"><ele>174.0</ele><time>2026-05-03T08:18:01.734Z</time></trkpt><trkpt lat="40.3214035" lon="20.0066525"><ele>176.0</ele><time>2026-05-03T08:18:02.737Z</time></trkpt><trkpt lat="40.3215778" lon="20.0065107"><ele>178.0</ele><time>2026-05-03T08:18:03.737Z</time></trkpt><trkpt lat="40.3217485" lon="20.0063708"><ele>180.0</ele><time>2026-05-03T08:18:04.733Z</time></trkpt><trkpt lat="40.3219112" lon="20.0062283"><ele>180.0</ele><time>2026-05-03T08:18:05.737Z</time></trkpt><trkpt lat="40.3220692" lon="20.0060895"><ele>180.0</ele><time>2026-05-03T08:18:06.732Z</time></trkpt><trkpt lat="40.322222" lon="20.0059467"><ele>180.0</ele><time>2026-05-03T08:18:07.736Z</time></trkpt><trkpt lat="40.3223739" lon="20.0057915"><ele>178.66666666666666</ele><time>2026-05-03T08:18:08.736Z</time></trkpt><trkpt lat="40.3225176" lon="20.0056243"><ele>177.33333333333331</ele><time>2026-05-03T08:18:09.734Z</time></trkpt><trkpt lat="40.3226621" lon="20.005446"><ele>176.0</ele><time>2026-05-03T08:18:10.737Z</time></trkpt><trkpt lat="40.3227971" lon="20.0052591"><ele>176.0</ele><time>2026-05-03T08:18:11.737Z</time></trkpt><trkpt lat="40.3229254" lon="20.0050636"><ele>176.0</ele><time>2026-05-03T08:18:12.737Z</time></trkpt><trkpt lat="40.3230578" lon="20.0048685"><ele>176.0</ele><time>2026-05-03T08:18:13.737Z</time></trkpt><trkpt lat="40.3231985" lon="20.0046882"><ele>173.33333333333331</ele><time>2026-05-03T08:18:14.737Z</time></trkpt><trkpt lat="40.3233453" lon="20.004511"><ele>170.66666666666666</ele><time>2026-05-03T08:18:15.736Z</time></trkpt><trkpt lat="40.3235005" lon="20.0043332"><ele>168.0</ele><time>2026-05-03T08:18:16.737Z</time></trkpt><trkpt lat="40.3236566" lon="20.0041818"><ele>172.33333333333334</ele><time>2026-05-03T08:18:17.735Z</time></trkpt><trkpt lat="40.3238165" lon="20.0040472"><ele>176.66666666666669</ele><time>2026-05-03T08:18:18.737Z</time></trkpt><trkpt lat="40.3239789" lon="20.0039191"><ele>181.0</ele><time>2026-05-03T08:18:19.736Z</time></trkpt><trkpt lat="40.3241452" lon="20.0038157"><ele>181.0</ele><time>2026-05-03T08:18:20.737Z</time></trkpt><trkpt lat="40.3243063" lon="20.0037141"><ele>181.0</ele><time>2026-05-03T08:18:21.736Z</time></trkpt><trkpt lat="40.324466" lon="20.0036223"><ele>181.0</ele><time>2026-05-03T08:18:22.736Z</time></trkpt><trkpt lat="40.3246212" lon="20.0035312"><ele>179.0</ele><time>2026-05-03T08:18:23.734Z</time></trkpt><trkpt lat="40.3247726" lon="20.0034373"><ele>177.0</ele><time>2026-05-03T08:18:24.735Z</time></trkpt><trkpt lat="40.3249204" lon="20.0033281"><ele>175.0</ele><time>2026-05-03T08:18:25.736Z</time></trkpt><trkpt lat="40.3250635" lon="20.0032011"><ele>175.0</ele><time>2026-05-03T08:18:26.735Z</time></trkpt><trkpt lat="40.3252028" lon="20.0030584"><ele>175.0</ele><time>2026-05-03T08:18:27.737Z</time></trkpt><trkpt lat="40.3253379" lon="20.002907"><ele>175.0</ele><time>2026-05-03T08:18:28.734Z</time></trkpt><trkpt lat="40.3254669" lon="20.0027415"><ele>169.33333333333334</ele><time>2026-05-03T08:18:29.737Z</time></trkpt><trkpt lat="40.3255954" lon="20.002565"><ele>163.66666666666666</ele><time>2026-05-03T08:18:30.735Z</time></trkpt><trkpt lat="40.3257197" lon="20.0023784"><ele>158.0</ele><time>2026-05-03T08:18:31.735Z</time></trkpt><trkpt lat="40.3258457" lon="20.0021862"><ele>158.0</ele><time>2026-05-03T08:18:32.734Z</time></trkpt><trkpt lat="40.3259779" lon="20.0019912"><ele>158.0</ele><time>2026-05-03T08:18:33.736Z</time></trkpt><trkpt lat="40.3261105" lon="20.0017917"><ele>158.0</ele><time>2026-05-03T08:18:34.736Z</time></trkpt><trkpt lat="40.3262431" lon="20.0016053"><ele>156.66666666666666</ele><time>2026-05-03T08:18:35.736Z</time></trkpt><trkpt lat="40.3263779" lon="20.0014154"><ele>155.33333333333334</ele><time>2026-05-03T08:18:36.737Z</time></trkpt><trkpt lat="40.3265199" lon="20.0012276"><ele>154.0</ele><time>2026-05-03T08:18:37.735Z</time></trkpt><trkpt lat="40.3266682" lon="20.0010433"><ele>154.0</ele><time>2026-05-03T08:18:38.734Z</time></trkpt><trkpt lat="40.3268167" lon="20.000856"><ele>154.0</ele><time>2026-05-03T08:18:39.736Z</time></trkpt><trkpt lat="40.3269634" lon="20.0006643"><ele>154.0</ele><time>2026-05-03T08:18:40.734Z</time></trkpt><trkpt lat="40.3271021" lon="20.0004792"><ele>155.0</ele><time>2026-05-03T08:18:41.736Z</time></trkpt><trkpt lat="40.3272445" lon="20.0003019"><ele>156.0</ele><time>2026-05-03T08:18:42.736Z</time></trkpt><trkpt lat="40.3273764" lon="20.0001309"><ele>157.0</ele><time>2026-05-03T08:18:43.737Z</time></trkpt><trkpt lat="40.327509" lon="19.9999604"><ele>157.0</ele><time>2026-05-03T08:18:44.734Z</time></trkpt><trkpt lat="40.3276496" lon="19.9998242"><ele>157.0</ele><time>2026-05-03T08:18:45.736Z</time></trkpt><trkpt lat="40.3277997" lon="19.9997021"><ele>157.0</ele><time>2026-05-03T08:18:46.735Z</time></trkpt><trkpt lat="40.3279558" lon="19.9995913"><ele>152.0</ele><time>2026-05-03T08:18:47.735Z</time></trkpt><trkpt lat="40.3281107" lon="19.9994849"><ele>147.0</ele><time>2026-05-03T08:18:48.736Z</time></trkpt><trkpt lat="40.3282676" lon="19.9993725"><ele>142.0</ele><time>2026-05-03T08:18:49.736Z</time></trkpt><trkpt lat="40.3284272" lon="19.9992535"><ele>146.0</ele><time>2026-05-03T08:18:50.737Z</time></trkpt><trkpt lat="40.3285883" lon="19.9991295"><ele>150.0</ele><time>2026-05-03T08:18:51.736Z</time></trkpt><trkpt lat="40.3287415" lon="19.9989906"><ele>154.0</ele><time>2026-05-03T08:18:52.737Z</time></trkpt><trkpt lat="40.328888" lon="19.9988331"><ele>153.0</ele><time>2026-05-03T08:18:53.736Z</time></trkpt><trkpt lat="40.3290242" lon="19.9986567"><ele>152.0</ele><time>2026-05-03T08:18:54.736Z</time></trkpt><trkpt lat="40.3291486" lon="19.9984628"><ele>151.0</ele><time>2026-05-03T08:18:55.737Z</time></trkpt><trkpt lat="40.3292685" lon="19.9982524"><ele>151.0</ele><time>2026-05-03T08:18:56.735Z</time></trkpt><trkpt lat="40.3293875" lon="19.9980293"><ele>151.0</ele><time>2026-05-03T08:18:57.736Z</time></trkpt><trkpt lat="40.3295102" lon="19.9977965"><ele>151.0</ele><time>2026-05-03T08:18:58.735Z</time></trkpt><trkpt lat="40.3296359" lon="19.9975564"><ele>142.0</ele><time>2026-05-03T08:18:59.737Z</time></trkpt><trkpt lat="40.329761" lon="19.9973129"><ele>133.0</ele><time>2026-05-03T08:19:00.736Z</time></trkpt><trkpt lat="40.3298888" lon="19.9970671"><ele>133.0</ele><time>2026-05-03T08:19:01.736Z</time></trkpt><trkpt lat="40.330022" lon="19.9968255"><ele>133.0</ele><time>2026-05-03T08:19:02.736Z</time></trkpt><trkpt lat="40.3301625" lon="19.9965901"><ele>137.0</ele><time>2026-05-03T08:19:03.736Z</time></trkpt><trkpt lat="40.3303065" lon="19.996354"><ele>141.0</ele><time>2026-05-03T08:19:04.737Z</time></trkpt><trkpt lat="40.3304501" lon="19.9961231"><ele>141.33333333333334</ele><time>2026-05-03T08:19:05.736Z</time></trkpt><trkpt lat="40.3305953" lon="19.995904"><ele>141.66666666666669</ele><time>2026-05-03T08:19:06.736Z</time></trkpt><trkpt lat="40.3307336" lon="19.9957007"><ele>142.0</ele><time>2026-05-03T08:19:07.736Z</time></trkpt><trkpt lat="40.3308726" lon="19.9955096"><ele>142.0</ele><time>2026-05-03T08:19:08.737Z</time></trkpt><trkpt lat="40.3310123" lon="19.995305"><ele>142.0</ele><time>2026-05-03T08:19:09.735Z</time></trkpt><trkpt lat="40.3311513" lon="19.9951125"><ele>142.0</ele><time>2026-05-03T08:19:10.737Z</time></trkpt><trkpt lat="40.3312898" lon="19.9949185"><ele>140.66666666666669</ele><time>2026-05-03T08:19:11.737Z</time></trkpt><trkpt lat="40.331436" lon="19.9947501"><ele>139.33333333333334</ele><time>2026-05-03T08:19:12.737Z</time></trkpt><trkpt lat="40.3315839" lon="19.9945986"><ele>138.0</ele><time>2026-05-03T08:19:13.737Z</time></trkpt><trkpt lat="40.331735" lon="19.9944625"><ele>138.0</ele><time>2026-05-03T08:19:14.735Z</time></trkpt><trkpt lat="40.3318902" lon="19.9943391"><ele>138.0</ele><time>2026-05-03T08:19:15.735Z</time></trkpt><trkpt lat="40.3320505" lon="19.9942293"><ele>138.0</ele><time>2026-05-03T08:19:16.737Z</time></trkpt><trkpt lat="40.3322152" lon="19.9941377"><ele>139.66666666666666</ele><time>2026-05-03T08:19:17.737Z</time></trkpt><trkpt lat="40.3323886" lon="19.9940668"><ele>141.33333333333331</ele><time>2026-05-03T08:19:18.737Z</time></trkpt><trkpt lat="40.3325545" lon="19.9940082"><ele>143.0</ele><time>2026-05-03T08:19:19.734Z</time></trkpt><trkpt lat="40.3327084" lon="19.9939528"><ele>143.0</ele><time>2026-05-03T08:19:20.737Z</time></trkpt><trkpt lat="40.3328564" lon="19.9939107"><ele>143.0</ele><time>2026-05-03T08:19:21.736Z</time></trkpt><trkpt lat="40.3330059" lon="19.9938614"><ele>143.0</ele><time>2026-05-03T08:19:22.736Z</time></trkpt><trkpt lat="40.3331551" lon="19.9937988"><ele>139.33333333333331</ele><time>2026-05-03T08:19:23.737Z</time></trkpt><trkpt lat="40.3333052" lon="19.9937209"><ele>135.66666666666666</ele><time>2026-05-03T08:19:24.735Z</time></trkpt><trkpt lat="40.3334533" lon="19.9936255"><ele>132.0</ele><time>2026-05-03T08:19:25.736Z</time></trkpt><trkpt lat="40.3336003" lon="19.9935113"><ele>132.0</ele><time>2026-05-03T08:19:26.733Z</time></trkpt><trkpt lat="40.3337457" lon="19.9933824"><ele>132.0</ele><time>2026-05-03T08:19:27.734Z</time></trkpt><trkpt lat="40.3338857" lon="19.9932346"><ele>132.0</ele><time>2026-05-03T08:19:28.737Z</time></trkpt><trkpt lat="40.3340191" lon="19.9930677"><ele>131.33333333333334</ele><time>2026-05-03T08:19:29.734Z</time></trkpt><trkpt lat="40.3341491" lon="19.9928831"><ele>130.66666666666669</ele><time>2026-05-03T08:19:30.736Z</time></trkpt><trkpt lat="40.3342673" lon="19.9926819"><ele>130.0</ele><time>2026-05-03T08:19:31.737Z</time></trkpt><trkpt lat="40.3343824" lon="19.9924654"><ele>132.33333333333334</ele><time>2026-05-03T08:19:32.735Z</time></trkpt><trkpt lat="40.3344968" lon="19.9922424"><ele>134.66666666666666</ele><time>2026-05-03T08:19:33.736Z</time></trkpt><trkpt lat="40.3346085" lon="19.9920217"><ele>137.0</ele><time>2026-05-03T08:19:34.737Z</time></trkpt><trkpt lat="40.3347193" lon="19.9918017"><ele>134.33333333333331</ele><time>2026-05-03T08:19:35.736Z</time></trkpt><trkpt lat="40.3348346" lon="19.9915821"><ele>131.66666666666666</ele><time>2026-05-03T08:19:36.736Z</time></trkpt><trkpt lat="40.3349467" lon="19.991357"><ele>129.0</ele><time>2026-05-03T08:19:37.735Z</time></trkpt><trkpt lat="40.3350544" lon="19.9911319"><ele>129.0</ele><time>2026-05-03T08:19:38.734Z</time></trkpt><trkpt lat="40.3351571" lon="19.9909053"><ele>129.0</ele><time>2026-05-03T08:19:39.733Z</time></trkpt><trkpt lat="40.3352542" lon="19.9906698"><ele>129.0</ele><time>2026-05-03T08:19:40.736Z</time></trkpt><trkpt lat="40.3353591" lon="19.9904444"><ele>126.0</ele><time>2026-05-03T08:19:41.736Z</time></trkpt><trkpt lat="40.3354596" lon="19.9902165"><ele>123.0</ele><time>2026-05-03T08:19:42.736Z</time></trkpt><trkpt lat="40.3355617" lon="19.9899936"><ele>120.0</ele><time>2026-05-03T08:19:43.735Z</time></trkpt><trkpt lat="40.33566" lon="19.9897714"><ele>120.0</ele><time>2026-05-03T08:19:44.736Z</time></trkpt><trkpt lat="40.3357545" lon="19.9895538"><ele>120.0</ele><time>2026-05-03T08:19:45.736Z</time></trkpt><trkpt lat="40.3358482" lon="19.9893387"><ele>120.0</ele><time>2026-05-03T08:19:46.736Z</time></trkpt><trkpt lat="40.3359416" lon="19.9891266"><ele>124.66666666666666</ele><time>2026-05-03T08:19:47.737Z</time></trkpt><trkpt lat="40.3360337" lon="19.9889178"><ele>129.33333333333331</ele><time>2026-05-03T08:19:48.737Z</time></trkpt><trkpt lat="40.3361235" lon="19.9887113"><ele>134.0</ele><time>2026-05-03T08:19:49.734Z</time></trkpt><trkpt lat="40.3362113" lon="19.9885116"><ele>131.0</ele><time>2026-05-03T08:19:50.736Z</time></trkpt><trkpt lat="40.3362983" lon="19.988321"><ele>128.0</ele><time>2026-05-03T08:19:51.734Z</time></trkpt><trkpt lat="40.3363832" lon="19.9881341"><ele>125.0</ele><time>2026-05-03T08:19:52.737Z</time></trkpt><trkpt lat="40.3364567" lon="19.9879503"><ele>125.0</ele><time>2026-05-03T08:19:53.737Z</time></trkpt><trkpt lat="40.3365265" lon="19.9877655"><ele>125.0</ele><time>2026-05-03T08:19:54.735Z</time></trkpt><trkpt lat="40.336599" lon="19.9875843"><ele>125.0</ele><time>2026-05-03T08:19:55.735Z</time></trkpt><trkpt lat="40.3366723" lon="19.9874119"><ele>129.75</ele><time>2026-05-03T08:19:56.735Z</time></trkpt><trkpt lat="40.3367461" lon="19.9872461"><ele>134.5</ele><time>2026-05-03T08:19:57.736Z</time></trkpt><trkpt lat="40.3368174" lon="19.9870816"><ele>139.25</ele><time>2026-05-03T08:19:58.737Z</time></trkpt><trkpt lat="40.336878" lon="19.9869168"><ele>144.0</ele><time>2026-05-03T08:19:59.735Z</time></trkpt><trkpt lat="40.3369464" lon="19.9867587"><ele>141.0</ele><time>2026-05-03T08:20:00.735Z</time></trkpt><trkpt lat="40.3370192" lon="19.9866"><ele>138.0</ele><time>2026-05-03T08:20:01.735Z</time></trkpt><trkpt lat="40.3370977" lon="19.9864357"><ele>135.0</ele><time>2026-05-03T08:20:02.735Z</time></trkpt><trkpt lat="40.3371785" lon="19.98629"><ele>132.0</ele><time>2026-05-03T08:20:03.734Z</time></trkpt><trkpt lat="40.3372697" lon="19.9861489"><ele>132.0</ele><time>2026-05-03T08:20:04.734Z</time></trkpt><trkpt lat="40.3373908" lon="19.9860242"><ele>132.0</ele><time>2026-05-03T08:20:05.737Z</time></trkpt><trkpt lat="40.3375239" lon="19.9859134"><ele>132.0</ele><time>2026-05-03T08:20:06.736Z</time></trkpt><trkpt lat="40.3376645" lon="19.9858127"><ele>130.33333333333334</ele><time>2026-05-03T08:20:07.736Z</time></trkpt><trkpt lat="40.337807" lon="19.985709"><ele>128.66666666666669</ele><time>2026-05-03T08:20:08.737Z</time></trkpt><trkpt lat="40.3379464" lon="19.9855975"><ele>127.0</ele><time>2026-05-03T08:20:09.736Z</time></trkpt><trkpt lat="40.3380773" lon="19.9854681"><ele>127.0</ele><time>2026-05-03T08:20:10.737Z</time></trkpt><trkpt lat="40.338198" lon="19.9853237"><ele>127.0</ele><time>2026-05-03T08:20:11.737Z</time></trkpt><trkpt lat="40.3383095" lon="19.9851703"><ele>127.0</ele><time>2026-05-03T08:20:12.736Z</time></trkpt><trkpt lat="40.3384213" lon="19.985005"><ele>135.0</ele><time>2026-05-03T08:20:13.737Z</time></trkpt><trkpt lat="40.3385432" lon="19.9848564"><ele>143.0</ele><time>2026-05-03T08:20:14.737Z</time></trkpt><trkpt lat="40.3386786" lon="19.9847167"><ele>151.0</ele><time>2026-05-03T08:20:15.735Z</time></trkpt><trkpt lat="40.3388269" lon="19.9845898"><ele>143.33333333333334</ele><time>2026-05-03T08:20:16.737Z</time></trkpt><trkpt lat="40.3389867" lon="19.9845031"><ele>135.66666666666666</ele><time>2026-05-03T08:20:17.735Z</time></trkpt><trkpt lat="40.3391565" lon="19.9844398"><ele>128.0</ele><time>2026-05-03T08:20:18.737Z</time></trkpt><trkpt lat="40.3393382" lon="19.98439"><ele>128.0</ele><time>2026-05-03T08:20:19.735Z</time></trkpt><trkpt lat="40.339507" lon="19.9843309"><ele>128.0</ele><time>2026-05-03T08:20:20.735Z</time></trkpt><trkpt lat="40.3396699" lon="19.984267"><ele>128.0</ele><time>2026-05-03T08:20:21.733Z</time></trkpt><trkpt lat="40.339829" lon="19.9841879"><ele>134.0</ele><time>2026-05-03T08:20:22.736Z</time></trkpt><trkpt lat="40.3399778" lon="19.9840974"><ele>140.0</ele><time>2026-05-03T08:20:23.736Z</time></trkpt><trkpt lat="40.3401188" lon="19.983996"><ele>146.0</ele><time>2026-05-03T08:20:24.737Z</time></trkpt><trkpt lat="40.3402528" lon="19.9838871"><ele>146.0</ele><time>2026-05-03T08:20:25.737Z</time></trkpt><trkpt lat="40.3403796" lon="19.983768"><ele>146.0</ele><time>2026-05-03T08:20:26.737Z</time></trkpt><trkpt lat="40.3404935" lon="19.9836374"><ele>146.0</ele><time>2026-05-03T08:20:27.735Z</time></trkpt><trkpt lat="40.3406044" lon="19.9834966"><ele>144.33333333333331</ele><time>2026-05-03T08:20:28.736Z</time></trkpt><trkpt lat="40.3407116" lon="19.9833396"><ele>142.66666666666666</ele><time>2026-05-03T08:20:29.736Z</time></trkpt><trkpt lat="40.3408177" lon="19.9831792"><ele>141.0</ele><time>2026-05-03T08:20:30.736Z</time></trkpt><trkpt lat="40.3409231" lon="19.983011"><ele>141.0</ele><time>2026-05-03T08:20:31.736Z</time></trkpt><trkpt lat="40.3410316" lon="19.9828423"><ele>141.0</ele><time>2026-05-03T08:20:32.736Z</time></trkpt><trkpt lat="40.3411511" lon="19.9826848"><ele>141.0</ele><time>2026-05-03T08:20:33.735Z</time></trkpt><trkpt lat="40.3412867" lon="19.9825554"><ele>143.0</ele><time>2026-05-03T08:20:34.735Z</time></trkpt><trkpt lat="40.3414333" lon="19.982454"><ele>145.0</ele><time>2026-05-03T08:20:35.736Z</time></trkpt><trkpt lat="40.3415809" lon="19.9823815"><ele>147.0</ele><time>2026-05-03T08:20:36.734Z</time></trkpt><trkpt lat="40.3417407" lon="19.9823493"><ele>147.0</ele><time>2026-05-03T08:20:37.734Z</time></trkpt><trkpt lat="40.341903" lon="19.982338"><ele>147.0</ele><time>2026-05-03T08:20:38.735Z</time></trkpt><trkpt lat="40.3420643" lon="19.9823419"><ele>147.0</ele><time>2026-05-03T08:20:39.733Z</time></trkpt><trkpt lat="40.3422249" lon="19.9823511"><ele>146.66666666666666</ele><time>2026-05-03T08:20:40.734Z</time></trkpt><trkpt lat="40.3423834" lon="19.9823539"><ele>146.33333333333331</ele><time>2026-05-03T08:20:41.737Z</time></trkpt><trkpt lat="40.3425347" lon="19.98234"><ele>146.0</ele><time>2026-05-03T08:20:42.737Z</time></trkpt><trkpt lat="40.3426809" lon="19.9823002"><ele>146.0</ele><time>2026-05-03T08:20:43.736Z</time></trkpt><trkpt lat="40.3428224" lon="19.9822342"><ele>146.0</ele><time>2026-05-03T08:20:44.735Z</time></trkpt><trkpt lat="40.3429584" lon="19.9821435"><ele>146.0</ele><time>2026-05-03T08:20:45.735Z</time></trkpt><trkpt lat="40.3430846" lon="19.9820337"><ele>146.0</ele><time>2026-05-03T08:20:46.736Z</time></trkpt><trkpt lat="40.3431984" lon="19.9819016"><ele>146.0</ele><time>2026-05-03T08:20:47.737Z</time></trkpt><trkpt lat="40.3432957" lon="19.9817506"><ele>146.0</ele><time>2026-05-03T08:20:48.734Z</time></trkpt><trkpt lat="40.3433761" lon="19.9815812"><ele>146.0</ele><time>2026-05-03T08:20:49.736Z</time></trkpt><trkpt lat="40.3434393" lon="19.9814025"><ele>146.0</ele><time>2026-05-03T08:20:50.734Z</time></trkpt><trkpt lat="40.343499" lon="19.9812152"><ele>146.0</ele><time>2026-05-03T08:20:51.737Z</time></trkpt><trkpt lat="40.3435608" lon="19.9810266"><ele>151.33333333333331</ele><time>2026-05-03T08:20:52.735Z</time></trkpt><trkpt lat="40.3436354" lon="19.9808372"><ele>156.66666666666666</ele><time>2026-05-03T08:20:53.735Z</time></trkpt><trkpt lat="40.3437241" lon="19.9806596"><ele>162.0</ele><time>2026-05-03T08:20:54.735Z</time></trkpt><trkpt lat="40.343832" lon="19.980498"><ele>153.0</ele><time>2026-05-03T08:20:55.737Z</time></trkpt><trkpt lat="40.3439506" lon="19.9803375"><ele>144.0</ele><time>2026-05-03T08:20:56.736Z</time></trkpt><trkpt lat="40.3440859" lon="19.9801998"><ele>135.0</ele><time>2026-05-03T08:20:57.734Z</time></trkpt><trkpt lat="40.3442254" lon="19.9800667"><ele>138.66666666666666</ele><time>2026-05-03T08:20:58.736Z</time></trkpt><trkpt lat="40.3443701" lon="19.9799326"><ele>142.33333333333331</ele><time>2026-05-03T08:20:59.734Z</time></trkpt><trkpt lat="40.344521" lon="19.979802"><ele>146.0</ele><time>2026-05-03T08:21:00.737Z</time></trkpt><trkpt lat="40.3446752" lon="19.9796753"><ele>141.66666666666666</ele><time>2026-05-03T08:21:01.734Z</time></trkpt><trkpt lat="40.3448303" lon="19.9795531"><ele>137.33333333333334</ele><time>2026-05-03T08:21:02.734Z</time></trkpt><trkpt lat="40.3449899" lon="19.9794388"><ele>133.0</ele><time>2026-05-03T08:21:03.736Z</time></trkpt><trkpt lat="40.3451451" lon="19.979338"><ele>133.0</ele><time>2026-05-03T08:21:04.734Z</time></trkpt><trkpt lat="40.3452982" lon="19.9792404"><ele>133.0</ele><time>2026-05-03T08:21:05.734Z</time></trkpt><trkpt lat="40.3454474" lon="19.9791519"><ele>133.0</ele><time>2026-05-03T08:21:06.735Z</time></trkpt><trkpt lat="40.3455954" lon="19.9790662"><ele>133.0</ele><time>2026-05-03T08:21:07.736Z</time></trkpt><trkpt lat="40.3457442" lon="19.9789812"><ele>133.0</ele><time>2026-05-03T08:21:08.737Z</time></trkpt><trkpt lat="40.3458939" lon="19.9788962"><ele>133.0</ele><time>2026-05-03T08:21:09.737Z</time></trkpt><trkpt lat="40.3460433" lon="19.9788127"><ele>133.0</ele><time>2026-05-03T08:21:10.736Z</time></trkpt><trkpt lat="40.3461907" lon="19.9787247"><ele>133.0</ele><time>2026-05-03T08:21:11.736Z</time></trkpt><trkpt lat="40.3463397" lon="19.978633"><ele>133.0</ele><time>2026-05-03T08:21:12.736Z</time></trkpt><trkpt lat="40.3464878" lon="19.9785417"><ele>133.33333333333334</ele><time>2026-05-03T08:21:13.737Z</time></trkpt><trkpt lat="40.3466369" lon="19.9784452"><ele>133.66666666666666</ele><time>2026-05-03T08:21:14.736Z</time></trkpt><trkpt lat="40.3467852" lon="19.9783492"><ele>134.0</ele><time>2026-05-03T08:21:15.736Z</time></trkpt><trkpt lat="40.3469326" lon="19.9782524"><ele>134.0</ele><time>2026-05-03T08:21:16.735Z</time></trkpt><trkpt lat="40.3470755" lon="19.9781538"><ele>134.0</ele><time>2026-05-03T08:21:17.733Z</time></trkpt><trkpt lat="40.3472132" lon="19.9780524"><ele>134.0</ele><time>2026-05-03T08:21:18.736Z</time></trkpt><trkpt lat="40.3473454" lon="19.9779432"><ele>132.25</ele><time>2026-05-03T08:21:19.735Z</time></trkpt><trkpt lat="40.3474724" lon="19.9778241"><ele>130.5</ele><time>2026-05-03T08:21:20.735Z</time></trkpt><trkpt lat="40.3475933" lon="19.9777175"><ele>128.75</ele><time>2026-05-03T08:21:21.734Z</time></trkpt><trkpt lat="40.3477193" lon="19.9776215"><ele>127.0</ele><time>2026-05-03T08:21:22.736Z</time></trkpt><trkpt lat="40.3478463" lon="19.9775306"><ele>126.25</ele><time>2026-05-03T08:21:23.736Z</time></trkpt><trkpt lat="40.3479726" lon="19.9774464"><ele>125.5</ele><time>2026-05-03T08:21:24.734Z</time></trkpt><trkpt lat="40.3481007" lon="19.9773628"><ele>124.75</ele><time>2026-05-03T08:21:25.735Z</time></trkpt><trkpt lat="40.3482257" lon="19.9772756"><ele>124.0</ele><time>2026-05-03T08:21:26.736Z</time></trkpt><trkpt lat="40.3483547" lon="19.9771813"><ele>124.0</ele><time>2026-05-03T08:21:27.735Z</time></trkpt><trkpt lat="40.3484835" lon="19.9770821"><ele>124.0</ele><time>2026-05-03T08:21:28.737Z</time></trkpt><trkpt lat="40.3486166" lon="19.97698"><ele>124.0</ele><time>2026-05-03T08:21:29.737Z</time></trkpt><trkpt lat="40.348746" lon="19.9768805"><ele>123.75</ele><time>2026-05-03T08:21:30.736Z</time></trkpt><trkpt lat="40.3488775" lon="19.9767774"><ele>123.5</ele><time>2026-05-03T08:21:31.737Z</time></trkpt><trkpt lat="40.3489945" lon="19.9766808"><ele>123.25</ele><time>2026-05-03T08:21:32.737Z</time></trkpt><trkpt lat="40.349095" lon="19.9765884"><ele>123.0</ele><time>2026-05-03T08:21:33.732Z</time></trkpt><trkpt lat="40.3491837" lon="19.9764862"><ele>123.0</ele><time>2026-05-03T08:21:34.736Z</time></trkpt><trkpt lat="40.3492558" lon="19.976378"><ele>123.00000000000001</ele><time>2026-05-03T08:21:35.737Z</time></trkpt><trkpt lat="40.349308" lon="19.976261"><ele>123.00000000000001</ele><time>2026-05-03T08:21:36.736Z</time></trkpt><trkpt lat="40.3493534" lon="19.9761203"><ele>123.0</ele><time>2026-05-03T08:21:37.737Z</time></trkpt><trkpt lat="40.3493814" lon="19.9759787"><ele>123.0</ele><time>2026-05-03T08:21:38.734Z</time></trkpt><trkpt lat="40.3494032" lon="19.9758339"><ele>124.25</ele><time>2026-05-03T08:21:39.737Z</time></trkpt><trkpt lat="40.3494243" lon="19.9756875"><ele>125.5</ele><time>2026-05-03T08:21:40.736Z</time></trkpt><trkpt lat="40.3494447" lon="19.9755396"><ele>126.75</ele><time>2026-05-03T08:21:41.735Z</time></trkpt><trkpt lat="40.3494624" lon="19.9753854"><ele>128.0</ele><time>2026-05-03T08:21:42.736Z</time></trkpt><trkpt lat="40.3494812" lon="19.9752234"><ele>128.0</ele><time>2026-05-03T08:21:43.735Z</time></trkpt><trkpt lat="40.3495122" lon="19.9750534"><ele>128.0</ele><time>2026-05-03T08:21:44.734Z</time></trkpt><trkpt lat="40.3495512" lon="19.9748853"><ele>128.0</ele><time>2026-05-03T08:21:45.736Z</time></trkpt><trkpt lat="40.349605" lon="19.9747226"><ele>128.0</ele><time>2026-05-03T08:21:46.737Z</time></trkpt><trkpt lat="40.3496791" lon="19.9745594"><ele>124.66666666666666</ele><time>2026-05-03T08:21:47.734Z</time></trkpt><trkpt lat="40.349773" lon="19.9743927"><ele>121.33333333333334</ele><time>2026-05-03T08:21:48.736Z</time></trkpt><trkpt lat="40.3498917" lon="19.9742503"><ele>118.0</ele><time>2026-05-03T08:21:49.735Z</time></trkpt><trkpt lat="40.3500249" lon="19.9741141"><ele>117.66666666666667</ele><time>2026-05-03T08:21:50.737Z</time></trkpt><trkpt lat="40.3501723" lon="19.9739826"><ele>117.33333333333334</ele><time>2026-05-03T08:21:51.736Z</time></trkpt><trkpt lat="40.3503212" lon="19.9738538"><ele>117.0</ele><time>2026-05-03T08:21:52.736Z</time></trkpt><trkpt lat="40.3504663" lon="19.9737246"><ele>115.33333333333334</ele><time>2026-05-03T08:21:53.736Z</time></trkpt><trkpt lat="40.3506121" lon="19.9735966"><ele>113.66666666666667</ele><time>2026-05-03T08:21:54.736Z</time></trkpt><trkpt lat="40.3507569" lon="19.9734704"><ele>112.0</ele><time>2026-05-03T08:21:55.735Z</time></trkpt><trkpt lat="40.3509032" lon="19.9733479"><ele>112.0</ele><time>2026-05-03T08:21:56.736Z</time></trkpt><trkpt lat="40.3510497" lon="19.9732288"><ele>112.0</ele><time>2026-05-03T08:21:57.736Z</time></trkpt><trkpt lat="40.3512001" lon="19.9731112"><ele>112.0</ele><time>2026-05-03T08:21:58.737Z</time></trkpt><trkpt lat="40.3513414" lon="19.9729982"><ele>111.33333333333334</ele><time>2026-05-03T08:21:59.735Z</time></trkpt><trkpt lat="40.3514785" lon="19.9728869"><ele>110.66666666666666</ele><time>2026-05-03T08:22:00.737Z</time></trkpt><trkpt lat="40.3516109" lon="19.9727774"><ele>110.0</ele><time>2026-05-03T08:22:01.737Z</time></trkpt><trkpt lat="40.3517382" lon="19.9726751"><ele>110.0</ele><time>2026-05-03T08:22:02.736Z</time></trkpt><trkpt lat="40.3518577" lon="19.972584"><ele>110.0</ele><time>2026-05-03T08:22:03.737Z</time></trkpt><trkpt lat="40.3519735" lon="19.9724954"><ele>110.0</ele><time>2026-05-03T08:22:04.736Z</time></trkpt><trkpt lat="40.3520897" lon="19.9724025"><ele>110.0</ele><time>2026-05-03T08:22:05.737Z</time></trkpt><trkpt lat="40.3522054" lon="19.9723085"><ele>111.75</ele><time>2026-05-03T08:22:06.737Z</time></trkpt><trkpt lat="40.3523235" lon="19.9722184"><ele>113.5</ele><time>2026-05-03T08:22:07.733Z</time></trkpt><trkpt lat="40.3524415" lon="19.9721318"><ele>115.25</ele><time>2026-05-03T08:22:08.735Z</time></trkpt><trkpt lat="40.3525584" lon="19.972039"><ele>117.0</ele><time>2026-05-03T08:22:09.734Z</time></trkpt><trkpt lat="40.3526724" lon="19.971946"><ele>117.0</ele><time>2026-05-03T08:22:10.736Z</time></trkpt><trkpt lat="40.3527874" lon="19.9718464"><ele>117.0</ele><time>2026-05-03T08:22:11.736Z</time></trkpt><trkpt lat="40.3529026" lon="19.9717541"><ele>117.0</ele><time>2026-05-03T08:22:12.734Z</time></trkpt><trkpt lat="40.3530207" lon="19.9716467"><ele>117.0</ele><time>2026-05-03T08:22:13.736Z</time></trkpt><trkpt lat="40.3531242" lon="19.9715247"><ele>118.0</ele><time>2026-05-03T08:22:14.734Z</time></trkpt><trkpt lat="40.3532051" lon="19.9713813"><ele>119.0</ele><time>2026-05-03T08:22:15.735Z</time></trkpt><trkpt lat="40.353267" lon="19.9712229"><ele>120.0</ele><time>2026-05-03T08:22:16.734Z</time></trkpt><trkpt lat="40.3533038" lon="19.9710486"><ele>121.0</ele><time>2026-05-03T08:22:17.735Z</time></trkpt><trkpt lat="40.3533163" lon="19.9708542"><ele>121.66666666666667</ele><time>2026-05-03T08:22:18.736Z</time></trkpt><trkpt lat="40.3533065" lon="19.9706632"><ele>122.33333333333334</ele><time>2026-05-03T08:22:19.735Z</time></trkpt><trkpt lat="40.3532881" lon="19.9704605"><ele>123.0</ele><time>2026-05-03T08:22:20.733Z</time></trkpt><trkpt lat="40.3532601" lon="19.97024"><ele>122.66666666666666</ele><time>2026-05-03T08:22:21.736Z</time></trkpt><trkpt lat="40.3532161" lon="19.9699964"><ele>122.33333333333333</ele><time>2026-05-03T08:22:22.737Z</time></trkpt><trkpt lat="40.353188" lon="19.9697576"><ele>122.0</ele><time>2026-05-03T08:22:23.735Z</time></trkpt><trkpt lat="40.3531557" lon="19.9695121"><ele>122.0</ele><time>2026-05-03T08:22:24.734Z</time></trkpt><trkpt lat="40.353122" lon="19.9692688"><ele>122.0</ele><time>2026-05-03T08:22:25.737Z</time></trkpt><trkpt lat="40.3530816" lon="19.9690313"><ele>122.0</ele><time>2026-05-03T08:22:26.735Z</time></trkpt><trkpt lat="40.3530326" lon="19.9688115"><ele>118.33333333333333</ele><time>2026-05-03T08:22:27.734Z</time></trkpt><trkpt lat="40.3529915" lon="19.9685885"><ele>114.66666666666666</ele><time>2026-05-03T08:22:28.734Z</time></trkpt><trkpt lat="40.3529735" lon="19.968361"><ele>111.0</ele><time>2026-05-03T08:22:29.735Z</time></trkpt><trkpt lat="40.3529819" lon="19.9681382"><ele>110.66666666666666</ele><time>2026-05-03T08:22:30.736Z</time></trkpt><trkpt lat="40.353002" lon="19.9679202"><ele>110.33333333333333</ele><time>2026-05-03T08:22:31.737Z</time></trkpt><trkpt lat="40.3530356" lon="19.9676986"><ele>110.0</ele><time>2026-05-03T08:22:32.737Z</time></trkpt><trkpt lat="40.3530753" lon="19.9674784"><ele>118.66666666666666</ele><time>2026-05-03T08:22:33.736Z</time></trkpt><trkpt lat="40.353109" lon="19.9672571"><ele>127.33333333333334</ele><time>2026-05-03T08:22:34.736Z</time></trkpt><trkpt lat="40.3531367" lon="19.9670379"><ele>136.0</ele><time>2026-05-03T08:22:35.737Z</time></trkpt><trkpt lat="40.3531534" lon="19.9668212"><ele>137.33333333333334</ele><time>2026-05-03T08:22:36.737Z</time></trkpt><trkpt lat="40.3531549" lon="19.9666078"><ele>138.66666666666666</ele><time>2026-05-03T08:22:37.732Z</time></trkpt><trkpt lat="40.3531505" lon="19.9663962"><ele>140.0</ele><time>2026-05-03T08:22:38.737Z</time></trkpt><trkpt lat="40.3531422" lon="19.9661876"><ele>140.0</ele><time>2026-05-03T08:22:39.735Z</time></trkpt><trkpt lat="40.3531228" lon="19.9659837"><ele>140.0</ele><time>2026-05-03T08:22:40.737Z</time></trkpt><trkpt lat="40.3531002" lon="19.965788"><ele>140.0</ele><time>2026-05-03T08:22:41.735Z</time></trkpt><trkpt lat="40.3530861" lon="19.9655945"><ele>141.25</ele><time>2026-05-03T08:22:42.736Z</time></trkpt><trkpt lat="40.3530672" lon="19.965415"><ele>142.5</ele><time>2026-05-03T08:22:43.735Z</time></trkpt><trkpt lat="40.3530513" lon="19.9652412"><ele>143.75</ele><time>2026-05-03T08:22:44.736Z</time></trkpt><trkpt lat="40.353031" lon="19.9650748"><ele>145.0</ele><time>2026-05-03T08:22:45.736Z</time></trkpt><trkpt lat="40.3530113" lon="19.9649235"><ele>137.0</ele><time>2026-05-03T08:22:46.736Z</time></trkpt><trkpt lat="40.3529948" lon="19.9647699"><ele>129.0</ele><time>2026-05-03T08:22:47.737Z</time></trkpt><trkpt lat="40.3529755" lon="19.9646226"><ele>121.0</ele><time>2026-05-03T08:22:48.737Z</time></trkpt><trkpt lat="40.3529515" lon="19.964479"><ele>113.0</ele><time>2026-05-03T08:22:49.734Z</time></trkpt><trkpt lat="40.352926" lon="19.9643338"><ele>114.75</ele><time>2026-05-03T08:22:50.737Z</time></trkpt><trkpt lat="40.3528935" lon="19.964182"><ele>116.5</ele><time>2026-05-03T08:22:51.737Z</time></trkpt><trkpt lat="40.3528648" lon="19.9640278"><ele>118.25</ele><time>2026-05-03T08:22:52.737Z</time></trkpt><trkpt lat="40.3528219" lon="19.9638621"><ele>120.0</ele><time>2026-05-03T08:22:53.736Z</time></trkpt><trkpt lat="40.3527824" lon="19.9636941"><ele>120.0</ele><time>2026-05-03T08:22:54.734Z</time></trkpt><trkpt lat="40.3527533" lon="19.9635177"><ele>120.0</ele><time>2026-05-03T08:22:55.737Z</time></trkpt><trkpt lat="40.3527362" lon="19.9633259"><ele>120.0</ele><time>2026-05-03T08:22:56.736Z</time></trkpt><trkpt lat="40.3527319" lon="19.9631306"><ele>120.0</ele><time>2026-05-03T08:22:57.736Z</time></trkpt><trkpt lat="40.3527355" lon="19.9629299"><ele>119.66666666666666</ele><time>2026-05-03T08:22:58.735Z</time></trkpt><trkpt lat="40.3527515" lon="19.9627183"><ele>119.33333333333333</ele><time>2026-05-03T08:22:59.736Z</time></trkpt><trkpt lat="40.3527719" lon="19.9625124"><ele>119.0</ele><time>2026-05-03T08:23:00.735Z</time></trkpt><trkpt lat="40.3527846" lon="19.962294"><ele>119.0</ele><time>2026-05-03T08:23:01.736Z</time></trkpt><trkpt lat="40.3527766" lon="19.9620709"><ele>119.0</ele><time>2026-05-03T08:23:02.737Z</time></trkpt><trkpt lat="40.3527448" lon="19.9618419"><ele>119.0</ele><time>2026-05-03T08:23:03.735Z</time></trkpt><trkpt lat="40.3526901" lon="19.9616154"><ele>117.0</ele><time>2026-05-03T08:23:04.736Z</time></trkpt><trkpt lat="40.3526179" lon="19.9613961"><ele>115.0</ele><time>2026-05-03T08:23:05.737Z</time></trkpt><trkpt lat="40.3525303" lon="19.9611755"><ele>113.0</ele><time>2026-05-03T08:23:06.737Z</time></trkpt><trkpt lat="40.3524396" lon="19.9609668"><ele>112.0</ele><time>2026-05-03T08:23:07.737Z</time></trkpt><trkpt lat="40.3523508" lon="19.9607539"><ele>111.0</ele><time>2026-05-03T08:23:08.737Z</time></trkpt><trkpt lat="40.3522848" lon="19.9605353"><ele>110.0</ele><time>2026-05-03T08:23:09.736Z</time></trkpt><trkpt lat="40.3522294" lon="19.960317"><ele>108.33333333333333</ele><time>2026-05-03T08:23:10.736Z</time></trkpt><trkpt lat="40.3521926" lon="19.9600988"><ele>106.66666666666666</ele><time>2026-05-03T08:23:11.737Z</time></trkpt><trkpt lat="40.3521703" lon="19.9598839"><ele>105.0</ele><time>2026-05-03T08:23:12.736Z</time></trkpt><trkpt lat="40.3521552" lon="19.9596677"><ele>104.66666666666666</ele><time>2026-05-03T08:23:13.737Z</time></trkpt><trkpt lat="40.3521437" lon="19.9594497"><ele>104.33333333333333</ele><time>2026-05-03T08:23:14.737Z</time></trkpt><trkpt lat="40.3521347" lon="19.959232"><ele>104.0</ele><time>2026-05-03T08:23:15.736Z</time></trkpt><trkpt lat="40.3521268" lon="19.9590125"><ele>104.0</ele><time>2026-05-03T08:23:16.737Z</time></trkpt><trkpt lat="40.3521184" lon="19.958791"><ele>104.0</ele><time>2026-05-03T08:23:17.734Z</time></trkpt><trkpt lat="40.3521099" lon="19.9585644"><ele>104.0</ele><time>2026-05-03T08:23:18.737Z</time></trkpt><trkpt lat="40.3521006" lon="19.9583367"><ele>104.0</ele><time>2026-05-03T08:23:19.737Z</time></trkpt><trkpt lat="40.3520936" lon="19.9581077"><ele>104.0</ele><time>2026-05-03T08:23:20.736Z</time></trkpt><trkpt lat="40.3520871" lon="19.9578767"><ele>104.0</ele><time>2026-05-03T08:23:21.734Z</time></trkpt><trkpt lat="40.3520772" lon="19.9576442"><ele>104.33333333333333</ele><time>2026-05-03T08:23:22.736Z</time></trkpt><trkpt lat="40.3520673" lon="19.9574107"><ele>104.66666666666666</ele><time>2026-05-03T08:23:23.736Z</time></trkpt><trkpt lat="40.3520623" lon="19.9571771"><ele>105.0</ele><time>2026-05-03T08:23:24.737Z</time></trkpt><trkpt lat="40.3520641" lon="19.9569507"><ele>105.0</ele><time>2026-05-03T08:23:25.736Z</time></trkpt><trkpt lat="40.3520788" lon="19.9567296"><ele>105.0</ele><time>2026-05-03T08:23:26.736Z</time></trkpt><trkpt lat="40.3521089" lon="19.9565152"><ele>105.0</ele><time>2026-05-03T08:23:27.736Z</time></trkpt><trkpt lat="40.3521523" lon="19.9563076"><ele>105.0</ele><time>2026-05-03T08:23:28.737Z</time></trkpt><trkpt lat="40.3522042" lon="19.9561086"><ele>105.0</ele><time>2026-05-03T08:23:29.736Z</time></trkpt><trkpt lat="40.3522642" lon="19.955917"><ele>105.0</ele><time>2026-05-03T08:23:30.737Z</time></trkpt><trkpt lat="40.3523273" lon="19.9557314"><ele>105.25</ele><time>2026-05-03T08:23:31.736Z</time></trkpt><trkpt lat="40.3523917" lon="19.9555517"><ele>105.5</ele><time>2026-05-03T08:23:32.736Z</time></trkpt><trkpt lat="40.3524518" lon="19.9553771"><ele>105.75</ele><time>2026-05-03T08:23:33.737Z</time></trkpt><trkpt lat="40.3525073" lon="19.9551961"><ele>106.0</ele><time>2026-05-03T08:23:34.736Z</time></trkpt><trkpt lat="40.3525677" lon="19.9550224"><ele>105.5</ele><time>2026-05-03T08:23:35.736Z</time></trkpt><trkpt lat="40.3526286" lon="19.9548493"><ele>105.0</ele><time>2026-05-03T08:23:36.736Z</time></trkpt><trkpt lat="40.3526883" lon="19.9546733"><ele>104.5</ele><time>2026-05-03T08:23:37.736Z</time></trkpt><trkpt lat="40.3527488" lon="19.9544949"><ele>104.0</ele><time>2026-05-03T08:23:38.736Z</time></trkpt><trkpt lat="40.3528103" lon="19.9543156"><ele>104.33333333333333</ele><time>2026-05-03T08:23:39.735Z</time></trkpt><trkpt lat="40.3528731" lon="19.9541346"><ele>104.66666666666666</ele><time>2026-05-03T08:23:40.735Z</time></trkpt><trkpt lat="40.3529378" lon="19.9539536"><ele>105.0</ele><time>2026-05-03T08:23:41.737Z</time></trkpt><trkpt lat="40.3529998" lon="19.9537709"><ele>106.33333333333334</ele><time>2026-05-03T08:23:42.735Z</time></trkpt><trkpt lat="40.3530607" lon="19.9535865"><ele>107.66666666666667</ele><time>2026-05-03T08:23:43.735Z</time></trkpt><trkpt lat="40.3531203" lon="19.9533952"><ele>109.0</ele><time>2026-05-03T08:23:44.734Z</time></trkpt><trkpt lat="40.3531717" lon="19.9532077"><ele>109.66666666666667</ele><time>2026-05-03T08:23:45.735Z</time></trkpt><trkpt lat="40.3532113" lon="19.9530185"><ele>110.33333333333334</ele><time>2026-05-03T08:23:46.737Z</time></trkpt><trkpt lat="40.3532408" lon="19.952827"><ele>111.0</ele><time>2026-05-03T08:23:47.735Z</time></trkpt><trkpt lat="40.3532565" lon="19.9526208"><ele>112.66666666666666</ele><time>2026-05-03T08:23:48.737Z</time></trkpt><trkpt lat="40.3532656" lon="19.9524189"><ele>114.33333333333333</ele><time>2026-05-03T08:23:49.737Z</time></trkpt><trkpt lat="40.3532697" lon="19.9522172"><ele>116.0</ele><time>2026-05-03T08:23:50.734Z</time></trkpt><trkpt lat="40.3532689" lon="19.9520157"><ele>116.0</ele><time>2026-05-03T08:23:51.736Z</time></trkpt><trkpt lat="40.3532789" lon="19.9518142"><ele>116.0</ele><time>2026-05-03T08:23:52.736Z</time></trkpt><trkpt lat="40.3532983" lon="19.951616"><ele>116.0</ele><time>2026-05-03T08:23:53.736Z</time></trkpt><trkpt lat="40.3533385" lon="19.951424"><ele>115.66666666666666</ele><time>2026-05-03T08:23:54.736Z</time></trkpt><trkpt lat="40.3533962" lon="19.9512352"><ele>115.33333333333334</ele><time>2026-05-03T08:23:55.735Z</time></trkpt><trkpt lat="40.3534724" lon="19.9510533"><ele>115.0</ele><time>2026-05-03T08:23:56.735Z</time></trkpt><trkpt lat="40.3535559" lon="19.9508796"><ele>113.33333333333334</ele><time>2026-05-03T08:23:57.735Z</time></trkpt><trkpt lat="40.3536469" lon="19.9506984"><ele>111.66666666666666</ele><time>2026-05-03T08:23:58.737Z</time></trkpt><trkpt lat="40.3537436" lon="19.950525"><ele>110.0</ele><time>2026-05-03T08:23:59.735Z</time></trkpt><trkpt lat="40.3538433" lon="19.950349"><ele>111.66666666666666</ele><time>2026-05-03T08:24:00.735Z</time></trkpt><trkpt lat="40.3539465" lon="19.9501718"><ele>113.33333333333334</ele><time>2026-05-03T08:24:01.736Z</time></trkpt><trkpt lat="40.3540497" lon="19.9499951"><ele>115.0</ele><time>2026-05-03T08:24:02.734Z</time></trkpt><trkpt lat="40.3541557" lon="19.9498123"><ele>115.0</ele><time>2026-05-03T08:24:03.733Z</time></trkpt><trkpt lat="40.354261" lon="19.9496203"><ele>115.0</ele><time>2026-05-03T08:24:04.733Z</time></trkpt><trkpt lat="40.3543661" lon="19.949419"><ele>115.0</ele><time>2026-05-03T08:24:05.735Z</time></trkpt><trkpt lat="40.3544695" lon="19.9492086"><ele>114.0</ele><time>2026-05-03T08:24:06.736Z</time></trkpt><trkpt lat="40.3545685" lon="19.9489942"><ele>113.0</ele><time>2026-05-03T08:24:07.735Z</time></trkpt><trkpt lat="40.3546632" lon="19.9487792"><ele>112.0</ele><time>2026-05-03T08:24:08.733Z</time></trkpt><trkpt lat="40.3547538" lon="19.9485649"><ele>114.33333333333334</ele><time>2026-05-03T08:24:09.734Z</time></trkpt><trkpt lat="40.3548619" lon="19.9483417"><ele>116.66666666666666</ele><time>2026-05-03T08:24:10.734Z</time></trkpt><trkpt lat="40.3549517" lon="19.9481264"><ele>119.0</ele><time>2026-05-03T08:24:11.736Z</time></trkpt><trkpt lat="40.3550384" lon="19.9479065"><ele>119.0</ele><time>2026-05-03T08:24:12.737Z</time></trkpt><trkpt lat="40.3551191" lon="19.9476821"><ele>119.0</ele><time>2026-05-03T08:24:13.737Z</time></trkpt><trkpt lat="40.3552043" lon="19.9474564"><ele>119.0</ele><time>2026-05-03T08:24:14.737Z</time></trkpt><trkpt lat="40.3552882" lon="19.947228"><ele>118.33333333333333</ele><time>2026-05-03T08:24:15.736Z</time></trkpt><trkpt lat="40.3553721" lon="19.946999"><ele>117.66666666666666</ele><time>2026-05-03T08:24:16.736Z</time></trkpt><trkpt lat="40.3554505" lon="19.9467646"><ele>117.0</ele><time>2026-05-03T08:24:17.733Z</time></trkpt><trkpt lat="40.3555301" lon="19.9465313"><ele>119.66666666666666</ele><time>2026-05-03T08:24:18.737Z</time></trkpt><trkpt lat="40.3556056" lon="19.9462972"><ele>122.33333333333333</ele><time>2026-05-03T08:24:19.735Z</time></trkpt><trkpt lat="40.3556727" lon="19.94606"><ele>125.0</ele><time>2026-05-03T08:24:20.735Z</time></trkpt><trkpt lat="40.3557319" lon="19.945821"><ele>125.0</ele><time>2026-05-03T08:24:21.736Z</time></trkpt><trkpt lat="40.3557921" lon="19.9455722"><ele>125.0</ele><time>2026-05-03T08:24:22.736Z</time></trkpt><trkpt lat="40.3558354" lon="19.9453286"><ele>125.0</ele><time>2026-05-03T08:24:23.734Z</time></trkpt><trkpt lat="40.3558744" lon="19.9450804"><ele>123.66666666666666</ele><time>2026-05-03T08:24:24.737Z</time></trkpt><trkpt lat="40.3559056" lon="19.9448345"><ele>122.33333333333334</ele><time>2026-05-03T08:24:25.734Z</time></trkpt><trkpt lat="40.3559263" lon="19.9445902"><ele>121.0</ele><time>2026-05-03T08:24:26.737Z</time></trkpt><trkpt lat="40.3559404" lon="19.9443472"><ele>121.66666666666667</ele><time>2026-05-03T08:24:27.736Z</time></trkpt><trkpt lat="40.3559462" lon="19.9441038"><ele>122.33333333333334</ele><time>2026-05-03T08:24:28.735Z</time></trkpt><trkpt lat="40.3559407" lon="19.943863"><ele>123.0</ele><time>2026-05-03T08:24:29.737Z</time></trkpt><trkpt lat="40.355927" lon="19.9436231"><ele>124.33333333333334</ele><time>2026-05-03T08:24:30.735Z</time></trkpt><trkpt lat="40.3559024" lon="19.9433804"><ele>125.66666666666667</ele><time>2026-05-03T08:24:31.736Z</time></trkpt><trkpt lat="40.3558837" lon="19.943146"><ele>127.0</ele><time>2026-05-03T08:24:32.737Z</time></trkpt><trkpt lat="40.3558652" lon="19.9429111"><ele>127.0</ele><time>2026-05-03T08:24:33.736Z</time></trkpt><trkpt lat="40.3558492" lon="19.9426773"><ele>127.0</ele><time>2026-05-03T08:24:34.735Z</time></trkpt><trkpt lat="40.3558261" lon="19.9424475"><ele>127.0</ele><time>2026-05-03T08:24:35.734Z</time></trkpt><trkpt lat="40.3557968" lon="19.9422149"><ele>127.66666666666667</ele><time>2026-05-03T08:24:36.734Z</time></trkpt><trkpt lat="40.3557729" lon="19.9419889"><ele>128.33333333333334</ele><time>2026-05-03T08:24:37.734Z</time></trkpt><trkpt lat="40.3557529" lon="19.9417621"><ele>129.0</ele><time>2026-05-03T08:24:38.736Z</time></trkpt><trkpt lat="40.355736" lon="19.9415351"><ele>127.33333333333334</ele><time>2026-05-03T08:24:39.736Z</time></trkpt><trkpt lat="40.3557181" lon="19.9413119"><ele>125.66666666666667</ele><time>2026-05-03T08:24:40.737Z</time></trkpt><trkpt lat="40.3556965" lon="19.9410924"><ele>124.0</ele><time>2026-05-03T08:24:41.735Z</time></trkpt><trkpt lat="40.3556755" lon="19.9408738"><ele>127.66666666666667</ele><time>2026-05-03T08:24:42.736Z</time></trkpt><trkpt lat="40.3556539" lon="19.9406581"><ele>131.33333333333334</ele><time>2026-05-03T08:24:43.734Z</time></trkpt><trkpt lat="40.3556298" lon="19.9404441"><ele>135.0</ele><time>2026-05-03T08:24:44.736Z</time></trkpt><trkpt lat="40.3556048" lon="19.9402345"><ele>138.66666666666666</ele><time>2026-05-03T08:24:45.736Z</time></trkpt><trkpt lat="40.3555889" lon="19.9400307"><ele>142.33333333333331</ele><time>2026-05-03T08:24:46.734Z</time></trkpt><trkpt lat="40.3555816" lon="19.9398286"><ele>146.0</ele><time>2026-05-03T08:24:47.734Z</time></trkpt><trkpt lat="40.3555751" lon="19.9396261"><ele>146.0</ele><time>2026-05-03T08:24:48.736Z</time></trkpt><trkpt lat="40.3555721" lon="19.9394249"><ele>146.0</ele><time>2026-05-03T08:24:49.734Z</time></trkpt><trkpt lat="40.3555801" lon="19.9392218"><ele>146.0</ele><time>2026-05-03T08:24:50.736Z</time></trkpt><trkpt lat="40.3555871" lon="19.939016"><ele>148.0</ele><time>2026-05-03T08:24:51.736Z</time></trkpt><trkpt lat="40.3555894" lon="19.9388132"><ele>150.0</ele><time>2026-05-03T08:24:52.736Z</time></trkpt><trkpt lat="40.3556043" lon="19.9386062"><ele>152.0</ele><time>2026-05-03T08:24:53.737Z</time></trkpt><trkpt lat="40.3556208" lon="19.9383964"><ele>153.0</ele><time>2026-05-03T08:24:54.736Z</time></trkpt><trkpt lat="40.355641" lon="19.9381857"><ele>154.0</ele><time>2026-05-03T08:24:55.732Z</time></trkpt><trkpt lat="40.3556671" lon="19.9379748"><ele>155.0</ele><time>2026-05-03T08:24:56.736Z</time></trkpt><trkpt lat="40.3556973" lon="19.9377591"><ele>155.33333333333331</ele><time>2026-05-03T08:24:57.735Z</time></trkpt><trkpt lat="40.3557329" lon="19.9375422"><ele>155.66666666666666</ele><time>2026-05-03T08:24:58.737Z</time></trkpt><trkpt lat="40.355773" lon="19.9373216"><ele>156.0</ele><time>2026-05-03T08:24:59.736Z</time></trkpt><trkpt lat="40.3558202" lon="19.9370973"><ele>156.0</ele><time>2026-05-03T08:25:00.737Z</time></trkpt><trkpt lat="40.355873" lon="19.9368716"><ele>156.0</ele><time>2026-05-03T08:25:01.735Z</time></trkpt><trkpt lat="40.3559344" lon="19.9366415"><ele>156.0</ele><time>2026-05-03T08:25:02.735Z</time></trkpt><trkpt lat="40.3560025" lon="19.9364083"><ele>155.66666666666666</ele><time>2026-05-03T08:25:03.736Z</time></trkpt><trkpt lat="40.3560756" lon="19.9361753"><ele>155.33333333333331</ele><time>2026-05-03T08:25:04.735Z</time></trkpt><trkpt lat="40.3561582" lon="19.9359388"><ele>155.0</ele><time>2026-05-03T08:25:05.736Z</time></trkpt><trkpt lat="40.3562453" lon="19.9357015"><ele>153.66666666666666</ele><time>2026-05-03T08:25:06.735Z</time></trkpt><trkpt lat="40.3563383" lon="19.9354657"><ele>152.33333333333334</ele><time>2026-05-03T08:25:07.735Z</time></trkpt><trkpt lat="40.3564402" lon="19.935229"><ele>151.0</ele><time>2026-05-03T08:25:08.733Z</time></trkpt><trkpt lat="40.3565489" lon="19.9349923"><ele>150.0</ele><time>2026-05-03T08:25:09.735Z</time></trkpt><trkpt lat="40.3566624" lon="19.9347659"><ele>149.0</ele><time>2026-05-03T08:25:10.737Z</time></trkpt><trkpt lat="40.3567887" lon="19.9345388"><ele>148.0</ele><time>2026-05-03T08:25:11.737Z</time></trkpt><trkpt lat="40.3569239" lon="19.9343127"><ele>149.0</ele><time>2026-05-03T08:25:12.735Z</time></trkpt><trkpt lat="40.3570624" lon="19.9340847"><ele>150.0</ele><time>2026-05-03T08:25:13.736Z</time></trkpt><trkpt lat="40.3572131" lon="19.9338597"><ele>151.66666666666666</ele><time>2026-05-03T08:25:14.736Z</time></trkpt><trkpt lat="40.357373" lon="19.9336463"><ele>153.33333333333331</ele><time>2026-05-03T08:25:15.735Z</time></trkpt><trkpt lat="40.3575241" lon="19.9334403"><ele>155.0</ele><time>2026-05-03T08:25:16.736Z</time></trkpt><trkpt lat="40.3576736" lon="19.9332311"><ele>155.0</ele><time>2026-05-03T08:25:17.734Z</time></trkpt><trkpt lat="40.3578305" lon="19.9330182"><ele>155.0</ele><time>2026-05-03T08:25:18.735Z</time></trkpt><trkpt lat="40.357984" lon="19.9328012"><ele>153.5</ele><time>2026-05-03T08:25:19.736Z</time></trkpt><trkpt lat="40.3581432" lon="19.9325878"><ele>152.0</ele><time>2026-05-03T08:25:20.736Z</time></trkpt><trkpt lat="40.3583003" lon="19.9323691"><ele>152.0</ele><time>2026-05-03T08:25:21.736Z</time></trkpt><trkpt lat="40.3584606" lon="19.9321476"><ele>152.0</ele><time>2026-05-03T08:25:22.736Z</time></trkpt><trkpt lat="40.3586178" lon="19.9319276"><ele>152.0</ele><time>2026-05-03T08:25:23.735Z</time></trkpt><trkpt lat="40.3587761" lon="19.9317127"><ele>152.0</ele><time>2026-05-03T08:25:24.737Z</time></trkpt><trkpt lat="40.3589333" lon="19.9314995"><ele>152.0</ele><time>2026-05-03T08:25:25.736Z</time></trkpt><trkpt lat="40.3590872" lon="19.9312843"><ele>152.0</ele><time>2026-05-03T08:25:26.736Z</time></trkpt><trkpt lat="40.35924" lon="19.9310764"><ele>152.0</ele><time>2026-05-03T08:25:27.735Z</time></trkpt><trkpt lat="40.359385" lon="19.9308749"><ele>152.0</ele><time>2026-05-03T08:25:28.735Z</time></trkpt><trkpt lat="40.3595236" lon="19.9306892"><ele>152.0</ele><time>2026-05-03T08:25:29.735Z</time></trkpt><trkpt lat="40.3596548" lon="19.9305145"><ele>152.0</ele><time>2026-05-03T08:25:30.732Z</time></trkpt><trkpt lat="40.3597913" lon="19.9303424"><ele>152.66666666666666</ele><time>2026-05-03T08:25:31.736Z</time></trkpt><trkpt lat="40.3599147" lon="19.9301742"><ele>153.33333333333334</ele><time>2026-05-03T08:25:32.736Z</time></trkpt><trkpt lat="40.3600307" lon="19.9300104"><ele>154.0</ele><time>2026-05-03T08:25:33.736Z</time></trkpt><trkpt lat="40.3601452" lon="19.9298523"><ele>152.66666666666669</ele><time>2026-05-03T08:25:34.735Z</time></trkpt><trkpt lat="40.3602693" lon="19.9296945"><ele>151.33333333333334</ele><time>2026-05-03T08:25:35.734Z</time></trkpt><trkpt lat="40.3603821" lon="19.9295382"><ele>150.0</ele><time>2026-05-03T08:25:36.735Z</time></trkpt><trkpt lat="40.3604983" lon="19.9293804"><ele>150.33333333333334</ele><time>2026-05-03T08:25:37.735Z</time></trkpt><trkpt lat="40.3606143" lon="19.929218"><ele>150.66666666666669</ele><time>2026-05-03T08:25:38.734Z</time></trkpt><trkpt lat="40.3607333" lon="19.9290471"><ele>151.0</ele><time>2026-05-03T08:25:39.734Z</time></trkpt><trkpt lat="40.3608504" lon="19.9288831"><ele>151.0</ele><time>2026-05-03T08:25:40.734Z</time></trkpt><trkpt lat="40.3609687" lon="19.9287143"><ele>151.0</ele><time>2026-05-03T08:25:41.735Z</time></trkpt><trkpt lat="40.3610874" lon="19.9285472"><ele>151.0</ele><time>2026-05-03T08:25:42.736Z</time></trkpt><trkpt lat="40.3612052" lon="19.9283812"><ele>150.66666666666669</ele><time>2026-05-03T08:25:43.735Z</time></trkpt><trkpt lat="40.3613246" lon="19.9282147"><ele>150.33333333333334</ele><time>2026-05-03T08:25:44.734Z</time></trkpt><trkpt lat="40.3614438" lon="19.9280495"><ele>150.0</ele><time>2026-05-03T08:25:45.736Z</time></trkpt><trkpt lat="40.3615625" lon="19.9278866"><ele>150.66666666666666</ele><time>2026-05-03T08:25:46.735Z</time></trkpt><trkpt lat="40.3616831" lon="19.9277213"><ele>151.33333333333331</ele><time>2026-05-03T08:25:47.732Z</time></trkpt><trkpt lat="40.3618056" lon="19.9275538"><ele>152.0</ele><time>2026-05-03T08:25:48.737Z</time></trkpt><trkpt lat="40.3619311" lon="19.9273773"><ele>152.0</ele><time>2026-05-03T08:25:49.734Z</time></trkpt><trkpt lat="40.3620556" lon="19.9272072"><ele>152.0</ele><time>2026-05-03T08:25:50.735Z</time></trkpt><trkpt lat="40.3621794" lon="19.9270336"><ele>152.0</ele><time>2026-05-03T08:25:51.735Z</time></trkpt><trkpt lat="40.3623059" lon="19.926859"><ele>152.33333333333331</ele><time>2026-05-03T08:25:52.735Z</time></trkpt><trkpt lat="40.36243" lon="19.9266806"><ele>152.66666666666666</ele><time>2026-05-03T08:25:53.735Z</time></trkpt><trkpt lat="40.3625505" lon="19.9265063"><ele>153.0</ele><time>2026-05-03T08:25:54.737Z</time></trkpt><trkpt lat="40.3626732" lon="19.9263324"><ele>153.0</ele><time>2026-05-03T08:25:55.735Z</time></trkpt><trkpt lat="40.3627812" lon="19.9261638"><ele>153.0</ele><time>2026-05-03T08:25:56.735Z</time></trkpt><trkpt lat="40.3628842" lon="19.9259982"><ele>153.0</ele><time>2026-05-03T08:25:57.733Z</time></trkpt><trkpt lat="40.3629795" lon="19.9258339"><ele>153.5</ele><time>2026-05-03T08:25:58.736Z</time></trkpt><trkpt lat="40.3630673" lon="19.9256743"><ele>154.0</ele><time>2026-05-03T08:25:59.735Z</time></trkpt><trkpt lat="40.363151" lon="19.9255143"><ele>154.5</ele><time>2026-05-03T08:26:00.735Z</time></trkpt><trkpt lat="40.3632346" lon="19.9253522"><ele>155.0</ele><time>2026-05-03T08:26:01.735Z</time></trkpt><trkpt lat="40.3633159" lon="19.9251921"><ele>153.33333333333331</ele><time>2026-05-03T08:26:02.735Z</time></trkpt><trkpt lat="40.3633936" lon="19.9250283"><ele>151.66666666666666</ele><time>2026-05-03T08:26:03.734Z</time></trkpt><trkpt lat="40.3634702" lon="19.9248539"><ele>150.0</ele><time>2026-05-03T08:26:04.735Z</time></trkpt><trkpt lat="40.3635458" lon="19.9246746"><ele>150.0</ele><time>2026-05-03T08:26:05.734Z</time></trkpt><trkpt lat="40.3636205" lon="19.9244904"><ele>150.0</ele><time>2026-05-03T08:26:06.732Z</time></trkpt><trkpt lat="40.3636933" lon="19.9243032"><ele>150.0</ele><time>2026-05-03T08:26:07.732Z</time></trkpt><trkpt lat="40.3637652" lon="19.9241099"><ele>150.33333333333334</ele><time>2026-05-03T08:26:08.734Z</time></trkpt><trkpt lat="40.3638336" lon="19.923912"><ele>150.66666666666669</ele><time>2026-05-03T08:26:09.732Z</time></trkpt><trkpt lat="40.3638992" lon="19.9237105"><ele>151.0</ele><time>2026-05-03T08:26:10.733Z</time></trkpt><trkpt lat="40.3639635" lon="19.9235041"><ele>153.33333333333334</ele><time>2026-05-03T08:26:11.735Z</time></trkpt><trkpt lat="40.3640238" lon="19.9232936"><ele>155.66666666666666</ele><time>2026-05-03T08:26:12.734Z</time></trkpt><trkpt lat="40.3640815" lon="19.9230793"><ele>158.0</ele><time>2026-05-03T08:26:13.735Z</time></trkpt><trkpt lat="40.3641375" lon="19.9228602"><ele>158.0</ele><time>2026-05-03T08:26:14.735Z</time></trkpt><trkpt lat="40.3641924" lon="19.9226389"><ele>158.0</ele><time>2026-05-03T08:26:15.734Z</time></trkpt><trkpt lat="40.3642432" lon="19.9224147"><ele>158.0</ele><time>2026-05-03T08:26:16.737Z</time></trkpt><trkpt lat="40.3642897" lon="19.9221869"><ele>159.33333333333331</ele><time>2026-05-03T08:26:17.734Z</time></trkpt><trkpt lat="40.3643367" lon="19.9219582"><ele>160.66666666666666</ele><time>2026-05-03T08:26:18.733Z</time></trkpt><trkpt lat="40.3643789" lon="19.921724"><ele>162.0</ele><time>2026-05-03T08:26:19.735Z</time></trkpt><trkpt lat="40.3644178" lon="19.9214901"><ele>162.0</ele><time>2026-05-03T08:26:20.736Z</time></trkpt><trkpt lat="40.3644581" lon="19.9212556"><ele>162.0</ele><time>2026-05-03T08:26:21.736Z</time></trkpt><trkpt lat="40.3644902" lon="19.9210282"><ele>162.0</ele><time>2026-05-03T08:26:22.737Z</time></trkpt><trkpt lat="40.364532" lon="19.9207909"><ele>158.33333333333334</ele><time>2026-05-03T08:26:23.736Z</time></trkpt><trkpt lat="40.3645695" lon="19.9205514"><ele>154.66666666666669</ele><time>2026-05-03T08:26:24.734Z</time></trkpt><trkpt lat="40.3646092" lon="19.92031"><ele>151.0</ele><time>2026-05-03T08:26:25.734Z</time></trkpt><trkpt lat="40.3646551" lon="19.9200625"><ele>155.33333333333334</ele><time>2026-05-03T08:26:26.736Z</time></trkpt><trkpt lat="40.3646968" lon="19.9198211"><ele>159.66666666666666</ele><time>2026-05-03T08:26:27.732Z</time></trkpt><trkpt lat="40.364742" lon="19.919576"><ele>164.0</ele><time>2026-05-03T08:26:28.734Z</time></trkpt><trkpt lat="40.3647849" lon="19.9193264"><ele>160.0</ele><time>2026-05-03T08:26:29.735Z</time></trkpt><trkpt lat="40.3648317" lon="19.9190742"><ele>156.0</ele><time>2026-05-03T08:26:30.737Z</time></trkpt><trkpt lat="40.3648768" lon="19.9188187"><ele>152.0</ele><time>2026-05-03T08:26:31.737Z</time></trkpt><trkpt lat="40.3649245" lon="19.9185619"><ele>150.0</ele><time>2026-05-03T08:26:32.737Z</time></trkpt><trkpt lat="40.3649721" lon="19.9182976"><ele>148.0</ele><time>2026-05-03T08:26:33.736Z</time></trkpt><trkpt lat="40.3650176" lon="19.9180315"><ele>146.0</ele><time>2026-05-03T08:26:34.733Z</time></trkpt><trkpt lat="40.3650665" lon="19.9177722"><ele>144.33333333333331</ele><time>2026-05-03T08:26:35.736Z</time></trkpt><trkpt lat="40.36511" lon="19.9174999"><ele>142.66666666666666</ele><time>2026-05-03T08:26:36.735Z</time></trkpt><trkpt lat="40.365159" lon="19.9172295"><ele>141.0</ele><time>2026-05-03T08:26:37.737Z</time></trkpt><trkpt lat="40.3652056" lon="19.9169573"><ele>138.0</ele><time>2026-05-03T08:26:38.733Z</time></trkpt><trkpt lat="40.3652436" lon="19.9166842"><ele>135.0</ele><time>2026-05-03T08:26:39.735Z</time></trkpt><trkpt lat="40.3652779" lon="19.9164141"><ele>132.0</ele><time>2026-05-03T08:26:40.735Z</time></trkpt><trkpt lat="40.365303" lon="19.9161429"><ele>129.33333333333334</ele><time>2026-05-03T08:26:41.736Z</time></trkpt><trkpt lat="40.3653269" lon="19.9158739"><ele>126.66666666666667</ele><time>2026-05-03T08:26:42.735Z</time></trkpt><trkpt lat="40.3653539" lon="19.9156076"><ele>124.0</ele><time>2026-05-03T08:26:43.737Z</time></trkpt><trkpt lat="40.3653791" lon="19.9153456"><ele>124.0</ele><time>2026-05-03T08:26:44.735Z</time></trkpt><trkpt lat="40.3654031" lon="19.915086"><ele>124.0</ele><time>2026-05-03T08:26:45.735Z</time></trkpt><trkpt lat="40.3654181" lon="19.9148332"><ele>124.0</ele><time>2026-05-03T08:26:46.734Z</time></trkpt><trkpt lat="40.365421" lon="19.9145834"><ele>123.66666666666667</ele><time>2026-05-03T08:26:47.736Z</time></trkpt><trkpt lat="40.3654142" lon="19.9143383"><ele>123.33333333333334</ele><time>2026-05-03T08:26:48.736Z</time></trkpt><trkpt lat="40.3654007" lon="19.9141006"><ele>123.0</ele><time>2026-05-03T08:26:49.736Z</time></trkpt><trkpt lat="40.3653747" lon="19.9138629"><ele>124.0</ele><time>2026-05-03T08:26:50.736Z</time></trkpt><trkpt lat="40.365343" lon="19.9136343"><ele>125.0</ele><time>2026-05-03T08:26:51.736Z</time></trkpt><trkpt lat="40.3653107" lon="19.9134107"><ele>126.0</ele><time>2026-05-03T08:26:52.736Z</time></trkpt><trkpt lat="40.3652513" lon="19.9131844"><ele>126.0</ele><time>2026-05-03T08:26:53.734Z</time></trkpt><trkpt lat="40.3651975" lon="19.9129574"><ele>126.0</ele><time>2026-05-03T08:26:54.733Z</time></trkpt><trkpt lat="40.3651376" lon="19.912736"><ele>126.0</ele><time>2026-05-03T08:26:55.735Z</time></trkpt><trkpt lat="40.365065" lon="19.9125154"><ele>127.0</ele><time>2026-05-03T08:26:56.732Z</time></trkpt><trkpt lat="40.3649955" lon="19.9122922"><ele>128.0</ele><time>2026-05-03T08:26:57.733Z</time></trkpt><trkpt lat="40.3649279" lon="19.9120658"><ele>129.0</ele><time>2026-05-03T08:26:58.733Z</time></trkpt><trkpt lat="40.3648592" lon="19.9118415"><ele>132.33333333333334</ele><time>2026-05-03T08:26:59.734Z</time></trkpt><trkpt lat="40.3647912" lon="19.911622"><ele>135.66666666666669</ele><time>2026-05-03T08:27:00.736Z</time></trkpt><trkpt lat="40.3647203" lon="19.9114027"><ele>139.0</ele><time>2026-05-03T08:27:01.737Z</time></trkpt><trkpt lat="40.3646609" lon="19.9111937"><ele>129.33333333333334</ele><time>2026-05-03T08:27:02.736Z</time></trkpt><trkpt lat="40.3646178" lon="19.9109887"><ele>119.66666666666666</ele><time>2026-05-03T08:27:03.735Z</time></trkpt><trkpt lat="40.364589" lon="19.9107844"><ele>110.0</ele><time>2026-05-03T08:27:04.733Z</time></trkpt><trkpt lat="40.3645802" lon="19.9105867"><ele>110.0</ele><time>2026-05-03T08:27:05.734Z</time></trkpt><trkpt lat="40.3645879" lon="19.9103905"><ele>110.0</ele><time>2026-05-03T08:27:06.736Z</time></trkpt><trkpt lat="40.3646136" lon="19.9102024"><ele>110.0</ele><time>2026-05-03T08:27:07.732Z</time></trkpt><trkpt lat="40.3646457" lon="19.9100093"><ele>110.0</ele><time>2026-05-03T08:27:08.736Z</time></trkpt><trkpt lat="40.3646923" lon="19.9098193"><ele>117.66666666666666</ele><time>2026-05-03T08:27:09.733Z</time></trkpt><trkpt lat="40.3647532" lon="19.9096297"><ele>125.33333333333334</ele><time>2026-05-03T08:27:10.735Z</time></trkpt><trkpt lat="40.3648296" lon="19.9094493"><ele>133.0</ele><time>2026-05-03T08:27:11.736Z</time></trkpt><trkpt lat="40.3649189" lon="19.90928"><ele>128.33333333333334</ele><time>2026-05-03T08:27:12.736Z</time></trkpt><trkpt lat="40.3650224" lon="19.9091106"><ele>123.66666666666666</ele><time>2026-05-03T08:27:13.736Z</time></trkpt><trkpt lat="40.365155" lon="19.9089569"><ele>119.0</ele><time>2026-05-03T08:27:14.734Z</time></trkpt><trkpt lat="40.3652977" lon="19.9088323"><ele>119.0</ele><time>2026-05-03T08:27:15.736Z</time></trkpt><trkpt lat="40.365442" lon="19.9087217"><ele>119.0</ele><time>2026-05-03T08:27:16.735Z</time></trkpt><trkpt lat="40.365596" lon="19.9086322"><ele>119.0</ele><time>2026-05-03T08:27:17.734Z</time></trkpt><trkpt lat="40.3657547" lon="19.9085655"><ele>120.0</ele><time>2026-05-03T08:27:18.736Z</time></trkpt><trkpt lat="40.3659232" lon="19.9085215"><ele>121.0</ele><time>2026-05-03T08:27:19.737Z</time></trkpt><trkpt lat="40.3660916" lon="19.9084997"><ele>122.0</ele><time>2026-05-03T08:27:20.734Z</time></trkpt><trkpt lat="40.3662598" lon="19.9084975"><ele>124.66666666666666</ele><time>2026-05-03T08:27:21.736Z</time></trkpt><trkpt lat="40.3664293" lon="19.908509"><ele>127.33333333333334</ele><time>2026-05-03T08:27:22.736Z</time></trkpt><trkpt lat="40.3666006" lon="19.9085204"><ele>130.0</ele><time>2026-05-03T08:27:23.736Z</time></trkpt><trkpt lat="40.3667734" lon="19.9085275"><ele>130.0</ele><time>2026-05-03T08:27:24.736Z</time></trkpt><trkpt lat="40.3669478" lon="19.9085302"><ele>130.0</ele><time>2026-05-03T08:27:25.735Z</time></trkpt><trkpt lat="40.3671216" lon="19.9085292"><ele>130.0</ele><time>2026-05-03T08:27:26.736Z</time></trkpt><trkpt lat="40.3672965" lon="19.9085214"><ele>132.66666666666669</ele><time>2026-05-03T08:27:27.737Z</time></trkpt><trkpt lat="40.3674764" lon="19.9085031"><ele>135.33333333333334</ele><time>2026-05-03T08:27:28.735Z</time></trkpt><trkpt lat="40.3676679" lon="19.9084714"><ele>138.0</ele><time>2026-05-03T08:27:29.733Z</time></trkpt><trkpt lat="40.3678559" lon="19.9084268"><ele>136.33333333333334</ele><time>2026-05-03T08:27:30.733Z</time></trkpt><trkpt lat="40.368046" lon="19.9083735"><ele>134.66666666666669</ele><time>2026-05-03T08:27:31.731Z</time></trkpt><trkpt lat="40.3682381" lon="19.9083213"><ele>133.0</ele><time>2026-05-03T08:27:32.734Z</time></trkpt><trkpt lat="40.36843" lon="19.9082576"><ele>133.0</ele><time>2026-05-03T08:27:33.734Z</time></trkpt><trkpt lat="40.368625" lon="19.9082003"><ele>133.0</ele><time>2026-05-03T08:27:34.737Z</time></trkpt><trkpt lat="40.3688177" lon="19.9081424"><ele>133.0</ele><time>2026-05-03T08:27:35.735Z</time></trkpt><trkpt lat="40.3690119" lon="19.908087"><ele>133.33333333333334</ele><time>2026-05-03T08:27:36.736Z</time></trkpt><trkpt lat="40.3692059" lon="19.9080195"><ele>133.66666666666666</ele><time>2026-05-03T08:27:37.734Z</time></trkpt><trkpt lat="40.3694017" lon="19.9079695"><ele>134.0</ele><time>2026-05-03T08:27:38.734Z</time></trkpt><trkpt lat="40.3695918" lon="19.9079074"><ele>135.0</ele><time>2026-05-03T08:27:39.733Z</time></trkpt><trkpt lat="40.3697858" lon="19.9078436"><ele>136.0</ele><time>2026-05-03T08:27:40.736Z</time></trkpt><trkpt lat="40.3699749" lon="19.9077828"><ele>137.0</ele><time>2026-05-03T08:27:41.734Z</time></trkpt><trkpt lat="40.3701639" lon="19.9077329"><ele>137.0</ele><time>2026-05-03T08:27:42.736Z</time></trkpt><trkpt lat="40.3703459" lon="19.9076935"><ele>137.0</ele><time>2026-05-03T08:27:43.735Z</time></trkpt><trkpt lat="40.3705192" lon="19.9076583"><ele>137.0</ele><time>2026-05-03T08:27:44.734Z</time></trkpt><trkpt lat="40.3706854" lon="19.9076284"><ele>137.0</ele><time>2026-05-03T08:27:45.736Z</time></trkpt><trkpt lat="40.3708533" lon="19.9075989"><ele>137.0</ele><time>2026-05-03T08:27:46.735Z</time></trkpt><trkpt lat="40.3710184" lon="19.9075697"><ele>137.0</ele><time>2026-05-03T08:27:47.736Z</time></trkpt><trkpt lat="40.3711867" lon="19.9075444"><ele>135.66666666666666</ele><time>2026-05-03T08:27:48.736Z</time></trkpt><trkpt lat="40.3713535" lon="19.9075171"><ele>134.33333333333334</ele><time>2026-05-03T08:27:49.733Z</time></trkpt><trkpt lat="40.3715253" lon="19.907493"><ele>133.0</ele><time>2026-05-03T08:27:50.737Z</time></trkpt><trkpt lat="40.3716973" lon="19.9074684"><ele>133.0</ele><time>2026-05-03T08:27:51.735Z</time></trkpt><trkpt lat="40.3718685" lon="19.907448"><ele>133.0</ele><time>2026-05-03T08:27:52.734Z</time></trkpt><trkpt lat="40.3720405" lon="19.9074311"><ele>133.0</ele><time>2026-05-03T08:27:53.735Z</time></trkpt><trkpt lat="40.3722085" lon="19.9074102"><ele>133.0</ele><time>2026-05-03T08:27:54.734Z</time></trkpt><trkpt lat="40.3723763" lon="19.907388"><ele>133.0</ele><time>2026-05-03T08:27:55.735Z</time></trkpt><trkpt lat="40.3725407" lon="19.9073621"><ele>133.0</ele><time>2026-05-03T08:27:56.733Z</time></trkpt><trkpt lat="40.3727057" lon="19.9073368"><ele>133.0</ele><time>2026-05-03T08:27:57.736Z</time></trkpt><trkpt lat="40.3728685" lon="19.9073067"><ele>133.0</ele><time>2026-05-03T08:27:58.735Z</time></trkpt><trkpt lat="40.3730315" lon="19.907275"><ele>133.0</ele><time>2026-05-03T08:27:59.734Z</time></trkpt><trkpt lat="40.37319" lon="19.9072373"><ele>132.33333333333334</ele><time>2026-05-03T08:28:00.736Z</time></trkpt><trkpt lat="40.3733476" lon="19.9071908"><ele>131.66666666666666</ele><time>2026-05-03T08:28:01.735Z</time></trkpt><trkpt lat="40.373504" lon="19.9071383"><ele>131.0</ele><time>2026-05-03T08:28:02.736Z</time></trkpt><trkpt lat="40.3736606" lon="19.9070765"><ele>131.0</ele><time>2026-05-03T08:28:03.736Z</time></trkpt><trkpt lat="40.3738206" lon="19.907013"><ele>131.0</ele><time>2026-05-03T08:28:04.735Z</time></trkpt><trkpt lat="40.3739854" lon="19.9069489"><ele>131.0</ele><time>2026-05-03T08:28:05.735Z</time></trkpt><trkpt lat="40.3741492" lon="19.9068793"><ele>133.0</ele><time>2026-05-03T08:28:06.733Z</time></trkpt><trkpt lat="40.3743113" lon="19.9068097"><ele>135.0</ele><time>2026-05-03T08:28:07.736Z</time></trkpt><trkpt lat="40.3744716" lon="19.906742"><ele>137.0</ele><time>2026-05-03T08:28:08.734Z</time></trkpt><trkpt lat="40.3746282" lon="19.9066759"><ele>133.33333333333331</ele><time>2026-05-03T08:28:09.736Z</time></trkpt><trkpt lat="40.3747808" lon="19.9066116"><ele>129.66666666666666</ele><time>2026-05-03T08:28:10.737Z</time></trkpt><trkpt lat="40.3749297" lon="19.906549"><ele>126.0</ele><time>2026-05-03T08:28:11.736Z</time></trkpt><trkpt lat="40.3750716" lon="19.9064881"><ele>126.0</ele><time>2026-05-03T08:28:12.735Z</time></trkpt><trkpt lat="40.3752118" lon="19.9064214"><ele>126.0</ele><time>2026-05-03T08:28:13.735Z</time></trkpt><trkpt lat="40.3753473" lon="19.9063708"><ele>126.0</ele><time>2026-05-03T08:28:14.736Z</time></trkpt><trkpt lat="40.3754727" lon="19.9063072"><ele>126.0</ele><time>2026-05-03T08:28:15.736Z</time></trkpt><trkpt lat="40.3756006" lon="19.9062592"><ele>126.75</ele><time>2026-05-03T08:28:16.735Z</time></trkpt><trkpt lat="40.3757381" lon="19.9062159"><ele>127.5</ele><time>2026-05-03T08:28:17.737Z</time></trkpt><trkpt lat="40.3758796" lon="19.9061657"><ele>128.25</ele><time>2026-05-03T08:28:18.734Z</time></trkpt><trkpt lat="40.3760222" lon="19.9061165"><ele>129.0</ele><time>2026-05-03T08:28:19.735Z</time></trkpt><trkpt lat="40.3761672" lon="19.9060751"><ele>129.0</ele><time>2026-05-03T08:28:20.736Z</time></trkpt><trkpt lat="40.3763199" lon="19.9060377"><ele>129.0</ele><time>2026-05-03T08:28:21.736Z</time></trkpt><trkpt lat="40.3764756" lon="19.9060019"><ele>129.0</ele><time>2026-05-03T08:28:22.736Z</time></trkpt><trkpt lat="40.3766358" lon="19.905965"><ele>130.33333333333334</ele><time>2026-05-03T08:28:23.737Z</time></trkpt><trkpt lat="40.3768043" lon="19.9059215"><ele>131.66666666666669</ele><time>2026-05-03T08:28:24.737Z</time></trkpt><trkpt lat="40.3769769" lon="19.9058776"><ele>133.0</ele><time>2026-05-03T08:28:25.737Z</time></trkpt><trkpt lat="40.3771556" lon="19.905833"><ele>127.66666666666667</ele><time>2026-05-03T08:28:26.736Z</time></trkpt><trkpt lat="40.3773364" lon="19.905787"><ele>122.33333333333334</ele><time>2026-05-03T08:28:27.736Z</time></trkpt><trkpt lat="40.3775158" lon="19.9057383"><ele>117.0</ele><time>2026-05-03T08:28:28.736Z</time></trkpt><trkpt lat="40.3776929" lon="19.905684"><ele>117.0</ele><time>2026-05-03T08:28:29.735Z</time></trkpt><trkpt lat="40.3778648" lon="19.9056185"><ele>117.0</ele><time>2026-05-03T08:28:30.737Z</time></trkpt><trkpt lat="40.3780301" lon="19.9055401"><ele>117.0</ele><time>2026-05-03T08:28:31.734Z</time></trkpt><trkpt lat="40.3781912" lon="19.9054314"><ele>117.66666666666666</ele><time>2026-05-03T08:28:32.735Z</time></trkpt><trkpt lat="40.3783454" lon="19.9053191"><ele>118.33333333333333</ele><time>2026-05-03T08:28:33.737Z</time></trkpt><trkpt lat="40.3784894" lon="19.9051905"><ele>119.0</ele><time>2026-05-03T08:28:34.735Z</time></trkpt><trkpt lat="40.3786322" lon="19.905057"><ele>116.33333333333333</ele><time>2026-05-03T08:28:35.736Z</time></trkpt><trkpt lat="40.3787566" lon="19.9049094"><ele>113.66666666666666</ele><time>2026-05-03T08:28:36.735Z</time></trkpt><trkpt lat="40.3788789" lon="19.9047473"><ele>111.0</ele><time>2026-05-03T08:28:37.735Z</time></trkpt><trkpt lat="40.3789929" lon="19.9045809"><ele>111.0</ele><time>2026-05-03T08:28:38.733Z</time></trkpt><trkpt lat="40.3791026" lon="19.9044117"><ele>111.0</ele><time>2026-05-03T08:28:39.732Z</time></trkpt><trkpt lat="40.3792122" lon="19.9042429"><ele>111.0</ele><time>2026-05-03T08:28:40.735Z</time></trkpt><trkpt lat="40.3793196" lon="19.9040782"><ele>109.0</ele><time>2026-05-03T08:28:41.733Z</time></trkpt><trkpt lat="40.3794278" lon="19.9039152"><ele>107.0</ele><time>2026-05-03T08:28:42.736Z</time></trkpt><trkpt lat="40.3795327" lon="19.9037512"><ele>105.0</ele><time>2026-05-03T08:28:43.735Z</time></trkpt><trkpt lat="40.3796365" lon="19.9035893"><ele>105.0</ele><time>2026-05-03T08:28:44.737Z</time></trkpt><trkpt lat="40.3797393" lon="19.9034287"><ele>105.0</ele><time>2026-05-03T08:28:45.736Z</time></trkpt><trkpt lat="40.3798399" lon="19.9032706"><ele>105.0</ele><time>2026-05-03T08:28:46.736Z</time></trkpt><trkpt lat="40.3799401" lon="19.903113"><ele>105.0</ele><time>2026-05-03T08:28:47.737Z</time></trkpt><trkpt lat="40.3800402" lon="19.9029563"><ele>105.0</ele><time>2026-05-03T08:28:48.736Z</time></trkpt><trkpt lat="40.3801425" lon="19.9027972"><ele>105.0</ele><time>2026-05-03T08:28:49.735Z</time></trkpt><trkpt lat="40.3802452" lon="19.9026381"><ele>104.66666666666666</ele><time>2026-05-03T08:28:50.735Z</time></trkpt><trkpt lat="40.3803468" lon="19.9024827"><ele>104.33333333333333</ele><time>2026-05-03T08:28:51.733Z</time></trkpt><trkpt lat="40.3804372" lon="19.9023224"><ele>104.0</ele><time>2026-05-03T08:28:52.735Z</time></trkpt><trkpt lat="40.3805272" lon="19.9021588"><ele>107.25</ele><time>2026-05-03T08:28:53.733Z</time></trkpt><trkpt lat="40.3806145" lon="19.9020037"><ele>110.5</ele><time>2026-05-03T08:28:54.737Z</time></trkpt><trkpt lat="40.3806917" lon="19.901845"><ele>113.75</ele><time>2026-05-03T08:28:55.737Z</time></trkpt><trkpt lat="40.3807566" lon="19.9016805"><ele>117.0</ele><time>2026-05-03T08:28:56.734Z</time></trkpt><trkpt lat="40.3808161" lon="19.9015068"><ele>117.0</ele><time>2026-05-03T08:28:57.735Z</time></trkpt><trkpt lat="40.3808726" lon="19.9013239"><ele>117.0</ele><time>2026-05-03T08:28:58.735Z</time></trkpt><trkpt lat="40.3809295" lon="19.9011402"><ele>117.0</ele><time>2026-05-03T08:28:59.737Z</time></trkpt><trkpt lat="40.3809864" lon="19.9009513"><ele>112.66666666666666</ele><time>2026-05-03T08:29:00.735Z</time></trkpt><trkpt lat="40.3810408" lon="19.9007552"><ele>108.33333333333333</ele><time>2026-05-03T08:29:01.734Z</time></trkpt><trkpt lat="40.3810988" lon="19.9005557"><ele>104.0</ele><time>2026-05-03T08:29:02.734Z</time></trkpt><trkpt lat="40.3811687" lon="19.9003468"><ele>104.0</ele><time>2026-05-03T08:29:03.734Z</time></trkpt><trkpt lat="40.3812477" lon="19.9001517"><ele>104.0</ele><time>2026-05-03T08:29:04.732Z</time></trkpt><trkpt lat="40.3813331" lon="19.8999671"><ele>104.0</ele><time>2026-05-03T08:29:05.736Z</time></trkpt><trkpt lat="40.3814178" lon="19.8997904"><ele>104.0</ele><time>2026-05-03T08:29:06.736Z</time></trkpt><trkpt lat="40.3815038" lon="19.8996189"><ele>104.0</ele><time>2026-05-03T08:29:07.736Z</time></trkpt><trkpt lat="40.3815905" lon="19.8994514"><ele>104.0</ele><time>2026-05-03T08:29:08.734Z</time></trkpt><trkpt lat="40.3816712" lon="19.899289"><ele>101.66666666666666</ele><time>2026-05-03T08:29:09.736Z</time></trkpt><trkpt lat="40.3817525" lon="19.8991264"><ele>99.33333333333334</ele><time>2026-05-03T08:29:10.735Z</time></trkpt><trkpt lat="40.3818334" lon="19.8989601"><ele>97.0</ele><time>2026-05-03T08:29:11.735Z</time></trkpt><trkpt lat="40.381916" lon="19.8987906"><ele>97.0</ele><time>2026-05-03T08:29:12.735Z</time></trkpt><trkpt lat="40.3819956" lon="19.8986116"><ele>97.0</ele><time>2026-05-03T08:29:13.736Z</time></trkpt><trkpt lat="40.3820742" lon="19.8984191"><ele>97.0</ele><time>2026-05-03T08:29:14.737Z</time></trkpt><trkpt lat="40.3821473" lon="19.8982186"><ele>99.33333333333334</ele><time>2026-05-03T08:29:15.735Z</time></trkpt><trkpt lat="40.382222" lon="19.8980041"><ele>101.66666666666666</ele><time>2026-05-03T08:29:16.734Z</time></trkpt><trkpt lat="40.3822973" lon="19.8977795"><ele>104.0</ele><time>2026-05-03T08:29:17.737Z</time></trkpt><trkpt lat="40.3823728" lon="19.8975436"><ele>104.0</ele><time>2026-05-03T08:29:18.734Z</time></trkpt><trkpt lat="40.3824513" lon="19.8972986"><ele>104.0</ele><time>2026-05-03T08:29:19.736Z</time></trkpt><trkpt lat="40.3825255" lon="19.8970412"><ele>104.0</ele><time>2026-05-03T08:29:20.734Z</time></trkpt><trkpt lat="40.382604" lon="19.8967818"><ele>103.0</ele><time>2026-05-03T08:29:21.735Z</time></trkpt><trkpt lat="40.382688" lon="19.8965286"><ele>102.0</ele><time>2026-05-03T08:29:22.735Z</time></trkpt><trkpt lat="40.3827652" lon="19.896279"><ele>101.0</ele><time>2026-05-03T08:29:23.734Z</time></trkpt><trkpt lat="40.3828425" lon="19.8960308"><ele>100.0</ele><time>2026-05-03T08:29:24.734Z</time></trkpt><trkpt lat="40.3829192" lon="19.8957789"><ele>99.0</ele><time>2026-05-03T08:29:25.737Z</time></trkpt><trkpt lat="40.3829838" lon="19.895543"><ele>98.0</ele><time>2026-05-03T08:29:26.736Z</time></trkpt><trkpt lat="40.3830463" lon="19.8953125"><ele>109.33333333333333</ele><time>2026-05-03T08:29:27.736Z</time></trkpt><trkpt lat="40.3831005" lon="19.8950823"><ele>120.66666666666666</ele><time>2026-05-03T08:29:28.737Z</time></trkpt><trkpt lat="40.3831483" lon="19.8948549"><ele>132.0</ele><time>2026-05-03T08:29:29.734Z</time></trkpt><trkpt lat="40.3831956" lon="19.8946344"><ele>132.0</ele><time>2026-05-03T08:29:30.736Z</time></trkpt><trkpt lat="40.3832378" lon="19.8944108"><ele>132.0</ele><time>2026-05-03T08:29:31.735Z</time></trkpt><trkpt lat="40.3832772" lon="19.894191"><ele>132.0</ele><time>2026-05-03T08:29:32.734Z</time></trkpt><trkpt lat="40.3833099" lon="19.8939781"><ele>129.0</ele><time>2026-05-03T08:29:33.735Z</time></trkpt><trkpt lat="40.3833473" lon="19.8937648"><ele>126.0</ele><time>2026-05-03T08:29:34.733Z</time></trkpt><trkpt lat="40.3833915" lon="19.8935541"><ele>123.0</ele><time>2026-05-03T08:29:35.735Z</time></trkpt><trkpt lat="40.3834514" lon="19.8933459"><ele>120.0</ele><time>2026-05-03T08:29:36.734Z</time></trkpt><trkpt lat="40.3835257" lon="19.8931418"><ele>117.0</ele><time>2026-05-03T08:29:37.735Z</time></trkpt><trkpt lat="40.3836004" lon="19.8929506"><ele>114.0</ele><time>2026-05-03T08:29:38.737Z</time></trkpt><trkpt lat="40.3836794" lon="19.8927574"><ele>109.33333333333334</ele><time>2026-05-03T08:29:39.734Z</time></trkpt><trkpt lat="40.3837667" lon="19.8925676"><ele>104.66666666666667</ele><time>2026-05-03T08:29:40.735Z</time></trkpt><trkpt lat="40.383854" lon="19.8923828"><ele>100.0</ele><time>2026-05-03T08:29:41.735Z</time></trkpt><trkpt lat="40.3839355" lon="19.8922009"><ele>106.0</ele><time>2026-05-03T08:29:42.734Z</time></trkpt><trkpt lat="40.3840028" lon="19.8920205"><ele>112.0</ele><time>2026-05-03T08:29:43.736Z</time></trkpt><trkpt lat="40.384052" lon="19.8918392"><ele>118.0</ele><time>2026-05-03T08:29:44.735Z</time></trkpt><trkpt lat="40.3840805" lon="19.8916524"><ele>124.0</ele><time>2026-05-03T08:29:45.737Z</time></trkpt><trkpt lat="40.38409" lon="19.8914612"><ele>124.0</ele><time>2026-05-03T08:29:46.735Z</time></trkpt><trkpt lat="40.3840746" lon="19.8912597"><ele>124.0</ele><time>2026-05-03T08:29:47.737Z</time></trkpt><trkpt lat="40.3840429" lon="19.8910458"><ele>124.0</ele><time>2026-05-03T08:29:48.737Z</time></trkpt><trkpt lat="40.3839891" lon="19.8908098"><ele>123.33333333333334</ele><time>2026-05-03T08:29:49.737Z</time></trkpt><trkpt lat="40.3839192" lon="19.8905569"><ele>122.66666666666666</ele><time>2026-05-03T08:29:50.734Z</time></trkpt><trkpt lat="40.3838455" lon="19.8902822"><ele>122.0</ele><time>2026-05-03T08:29:51.737Z</time></trkpt><trkpt lat="40.3837739" lon="19.89001"><ele>117.33333333333333</ele><time>2026-05-03T08:29:52.737Z</time></trkpt><trkpt lat="40.3837114" lon="19.8897273"><ele>112.66666666666666</ele><time>2026-05-03T08:29:53.737Z</time></trkpt><trkpt lat="40.3836535" lon="19.8894619"><ele>108.0</ele><time>2026-05-03T08:29:54.736Z</time></trkpt><trkpt lat="40.3835996" lon="19.8892106"><ele>108.0</ele><time>2026-05-03T08:29:55.735Z</time></trkpt><trkpt lat="40.3835481" lon="19.888972"><ele>108.0</ele><time>2026-05-03T08:29:56.736Z</time></trkpt><trkpt lat="40.3835082" lon="19.8887356"><ele>108.0</ele><time>2026-05-03T08:29:57.736Z</time></trkpt><trkpt lat="40.3834841" lon="19.8885014"><ele>108.66666666666666</ele><time>2026-05-03T08:29:58.736Z</time></trkpt><trkpt lat="40.383496" lon="19.8882683"><ele>109.33333333333333</ele><time>2026-05-03T08:29:59.735Z</time></trkpt><trkpt lat="40.383534" lon="19.8880428"><ele>110.0</ele><time>2026-05-03T08:30:00.735Z</time></trkpt><trkpt lat="40.3836069" lon="19.8878274"><ele>110.0</ele><time>2026-05-03T08:30:01.735Z</time></trkpt><trkpt lat="40.3837048" lon="19.8876243"><ele>110.0</ele><time>2026-05-03T08:30:02.736Z</time></trkpt><trkpt lat="40.3838312" lon="19.8874448"><ele>110.0</ele><time>2026-05-03T08:30:03.736Z</time></trkpt><trkpt lat="40.3839808" lon="19.8872931"><ele>115.33333333333333</ele><time>2026-05-03T08:30:04.737Z</time></trkpt><trkpt lat="40.3841493" lon="19.8871689"><ele>120.66666666666666</ele><time>2026-05-03T08:30:05.735Z</time></trkpt><trkpt lat="40.3843272" lon="19.8870615"><ele>126.0</ele><time>2026-05-03T08:30:06.734Z</time></trkpt><trkpt lat="40.3845134" lon="19.8869546"><ele>128.0</ele><time>2026-05-03T08:30:07.734Z</time></trkpt><trkpt lat="40.3846944" lon="19.8868442"><ele>130.0</ele><time>2026-05-03T08:30:08.733Z</time></trkpt><trkpt lat="40.3848674" lon="19.8867086"><ele>132.0</ele><time>2026-05-03T08:30:09.734Z</time></trkpt><trkpt lat="40.3850339" lon="19.8865562"><ele>127.33333333333334</ele><time>2026-05-03T08:30:10.735Z</time></trkpt><trkpt lat="40.3851884" lon="19.8863841"><ele>122.66666666666667</ele><time>2026-05-03T08:30:11.734Z</time></trkpt><trkpt lat="40.3853368" lon="19.8862"><ele>118.0</ele><time>2026-05-03T08:30:12.734Z</time></trkpt><trkpt lat="40.3854769" lon="19.8860008"><ele>120.33333333333334</ele><time>2026-05-03T08:30:13.734Z</time></trkpt><trkpt lat="40.3856063" lon="19.8857988"><ele>122.66666666666666</ele><time>2026-05-03T08:30:14.735Z</time></trkpt><trkpt lat="40.3857336" lon="19.8855999"><ele>125.0</ele><time>2026-05-03T08:30:15.733Z</time></trkpt><trkpt lat="40.3858602" lon="19.8853979"><ele>125.0</ele><time>2026-05-03T08:30:16.736Z</time></trkpt><trkpt lat="40.3859875" lon="19.8851928"><ele>125.0</ele><time>2026-05-03T08:30:17.735Z</time></trkpt><trkpt lat="40.3861181" lon="19.8849867"><ele>125.0</ele><time>2026-05-03T08:30:18.732Z</time></trkpt><trkpt lat="40.386251" lon="19.8847821"><ele>123.0</ele><time>2026-05-03T08:30:19.733Z</time></trkpt><trkpt lat="40.386386" lon="19.8845734"><ele>121.0</ele><time>2026-05-03T08:30:20.733Z</time></trkpt><trkpt lat="40.386519" lon="19.8843628"><ele>119.0</ele><time>2026-05-03T08:30:21.733Z</time></trkpt><trkpt lat="40.3866518" lon="19.8841479"><ele>116.0</ele><time>2026-05-03T08:30:22.732Z</time></trkpt><trkpt lat="40.3867885" lon="19.8839306"><ele>113.0</ele><time>2026-05-03T08:30:23.734Z</time></trkpt><trkpt lat="40.3869254" lon="19.8837084"><ele>110.0</ele><time>2026-05-03T08:30:24.734Z</time></trkpt><trkpt lat="40.3870577" lon="19.8834755"><ele>112.33333333333333</ele><time>2026-05-03T08:30:25.736Z</time></trkpt><trkpt lat="40.3871823" lon="19.8832475"><ele>114.66666666666666</ele><time>2026-05-03T08:30:26.735Z</time></trkpt><trkpt lat="40.3873004" lon="19.8830203"><ele>117.0</ele><time>2026-05-03T08:30:27.735Z</time></trkpt><trkpt lat="40.3874141" lon="19.8827924"><ele>114.0</ele><time>2026-05-03T08:30:28.736Z</time></trkpt><trkpt lat="40.3875249" lon="19.882567"><ele>111.0</ele><time>2026-05-03T08:30:29.734Z</time></trkpt><trkpt lat="40.3876323" lon="19.8823421"><ele>108.0</ele><time>2026-05-03T08:30:30.733Z</time></trkpt><trkpt lat="40.3877369" lon="19.8821182"><ele>108.0</ele><time>2026-05-03T08:30:31.733Z</time></trkpt><trkpt lat="40.3878464" lon="19.8819008"><ele>108.0</ele><time>2026-05-03T08:30:32.735Z</time></trkpt><trkpt lat="40.3879579" lon="19.8816913"><ele>108.0</ele><time>2026-05-03T08:30:33.734Z</time></trkpt><trkpt lat="40.3880632" lon="19.8814842"><ele>108.66666666666666</ele><time>2026-05-03T08:30:34.736Z</time></trkpt><trkpt lat="40.3881773" lon="19.8812901"><ele>109.33333333333333</ele><time>2026-05-03T08:30:35.734Z</time></trkpt><trkpt lat="40.3882859" lon="19.8811025"><ele>110.0</ele><time>2026-05-03T08:30:36.736Z</time></trkpt><trkpt lat="40.3884004" lon="19.8809249"><ele>108.33333333333333</ele><time>2026-05-03T08:30:37.734Z</time></trkpt><trkpt lat="40.388522" lon="19.8807613"><ele>106.66666666666666</ele><time>2026-05-03T08:30:38.734Z</time></trkpt><trkpt lat="40.3886455" lon="19.8805976"><ele>105.0</ele><time>2026-05-03T08:30:39.733Z</time></trkpt><trkpt lat="40.3887677" lon="19.8804234"><ele>105.33333333333334</ele><time>2026-05-03T08:30:40.734Z</time></trkpt><trkpt lat="40.3888935" lon="19.8802626"><ele>105.66666666666667</ele><time>2026-05-03T08:30:41.734Z</time></trkpt><trkpt lat="40.3890157" lon="19.8800869"><ele>106.0</ele><time>2026-05-03T08:30:42.735Z</time></trkpt><trkpt lat="40.3891432" lon="19.8799074"><ele>106.0</ele><time>2026-05-03T08:30:43.736Z</time></trkpt><trkpt lat="40.3892669" lon="19.8797217"><ele>106.0</ele><time>2026-05-03T08:30:44.735Z</time></trkpt><trkpt lat="40.3893831" lon="19.879533"><ele>106.0</ele><time>2026-05-03T08:30:45.737Z</time></trkpt><trkpt lat="40.389506" lon="19.8793417"><ele>105.33333333333334</ele><time>2026-05-03T08:30:46.734Z</time></trkpt><trkpt lat="40.3896283" lon="19.8791385"><ele>104.66666666666666</ele><time>2026-05-03T08:30:47.735Z</time></trkpt><trkpt lat="40.3897568" lon="19.8789339"><ele>104.0</ele><time>2026-05-03T08:30:48.735Z</time></trkpt><trkpt lat="40.3898992" lon="19.8787343"><ele>104.66666666666666</ele><time>2026-05-03T08:30:49.735Z</time></trkpt><trkpt lat="40.3900308" lon="19.8785226"><ele>105.33333333333334</ele><time>2026-05-03T08:30:50.734Z</time></trkpt><trkpt lat="40.3901628" lon="19.8783137"><ele>106.0</ele><time>2026-05-03T08:30:51.735Z</time></trkpt><trkpt lat="40.3902973" lon="19.8780978"><ele>106.0</ele><time>2026-05-03T08:30:52.735Z</time></trkpt><trkpt lat="40.3904326" lon="19.8778814"><ele>106.0</ele><time>2026-05-03T08:30:53.734Z</time></trkpt><trkpt lat="40.3905689" lon="19.8776653"><ele>106.0</ele><time>2026-05-03T08:30:54.735Z</time></trkpt><trkpt lat="40.3907061" lon="19.8774496"><ele>107.66666666666667</ele><time>2026-05-03T08:30:55.734Z</time></trkpt><trkpt lat="40.3908421" lon="19.8772349"><ele>109.33333333333334</ele><time>2026-05-03T08:30:56.736Z</time></trkpt><trkpt lat="40.3909723" lon="19.8770252"><ele>111.0</ele><time>2026-05-03T08:30:57.734Z</time></trkpt><trkpt lat="40.3911016" lon="19.8768175"><ele>108.0</ele><time>2026-05-03T08:30:58.736Z</time></trkpt><trkpt lat="40.3912333" lon="19.8766135"><ele>105.0</ele><time>2026-05-03T08:30:59.735Z</time></trkpt><trkpt lat="40.3913657" lon="19.8764175"><ele>102.0</ele><time>2026-05-03T08:31:00.736Z</time></trkpt><trkpt lat="40.3915064" lon="19.8762112"><ele>104.66666666666666</ele><time>2026-05-03T08:31:01.734Z</time></trkpt><trkpt lat="40.3916525" lon="19.8760003"><ele>107.33333333333333</ele><time>2026-05-03T08:31:02.734Z</time></trkpt><trkpt lat="40.3918022" lon="19.8757809"><ele>110.0</ele><time>2026-05-03T08:31:03.734Z</time></trkpt><trkpt lat="40.3919587" lon="19.8755651"><ele>110.0</ele><time>2026-05-03T08:31:04.735Z</time></trkpt><trkpt lat="40.3921199" lon="19.8753425"><ele>110.0</ele><time>2026-05-03T08:31:05.736Z</time></trkpt><trkpt lat="40.3922876" lon="19.8751194"><ele>112.5</ele><time>2026-05-03T08:31:06.737Z</time></trkpt><trkpt lat="40.3924509" lon="19.8748936"><ele>115.0</ele><time>2026-05-03T08:31:07.737Z</time></trkpt><trkpt lat="40.3926088" lon="19.874668"><ele>115.0</ele><time>2026-05-03T08:31:08.736Z</time></trkpt><trkpt lat="40.3927593" lon="19.8744419"><ele>115.0</ele><time>2026-05-03T08:31:09.736Z</time></trkpt><trkpt lat="40.3929045" lon="19.8742155"><ele>115.0</ele><time>2026-05-03T08:31:10.735Z</time></trkpt><trkpt lat="40.3930465" lon="19.8739886"><ele>115.0</ele><time>2026-05-03T08:31:11.736Z</time></trkpt><trkpt lat="40.3931868" lon="19.8737605"><ele>115.0</ele><time>2026-05-03T08:31:12.737Z</time></trkpt><trkpt lat="40.3933279" lon="19.8735288"><ele>115.33333333333334</ele><time>2026-05-03T08:31:13.736Z</time></trkpt><trkpt lat="40.3934663" lon="19.8732986"><ele>115.66666666666666</ele><time>2026-05-03T08:31:14.736Z</time></trkpt><trkpt lat="40.3936032" lon="19.8730692"><ele>116.0</ele><time>2026-05-03T08:31:15.736Z</time></trkpt><trkpt lat="40.3937424" lon="19.8728405"><ele>121.33333333333333</ele><time>2026-05-03T08:31:16.735Z</time></trkpt><trkpt lat="40.3938759" lon="19.872612"><ele>126.66666666666666</ele><time>2026-05-03T08:31:17.736Z</time></trkpt><trkpt lat="40.3940342" lon="19.8724159"><ele>132.0</ele><time>2026-05-03T08:31:18.734Z</time></trkpt><trkpt lat="40.3942133" lon="19.8722317"><ele>132.0</ele><time>2026-05-03T08:31:19.737Z</time></trkpt><trkpt lat="40.3944042" lon="19.87207"><ele>132.0</ele><time>2026-05-03T08:31:20.735Z</time></trkpt><trkpt lat="40.3946094" lon="19.8719324"><ele>131.33333333333334</ele><time>2026-05-03T08:31:21.736Z</time></trkpt><trkpt lat="40.3948178" lon="19.87182"><ele>130.66666666666669</ele><time>2026-05-03T08:31:22.735Z</time></trkpt><trkpt lat="40.3950269" lon="19.8717262"><ele>130.0</ele><time>2026-05-03T08:31:23.736Z</time></trkpt><trkpt lat="40.3952391" lon="19.8716227"><ele>130.0</ele><time>2026-05-03T08:31:24.735Z</time></trkpt><trkpt lat="40.3954336" lon="19.8715266"><ele>130.0</ele><time>2026-05-03T08:31:25.734Z</time></trkpt><trkpt lat="40.3956148" lon="19.8714196"><ele>130.0</ele><time>2026-05-03T08:31:26.736Z</time></trkpt><trkpt lat="40.3957859" lon="19.8713015"><ele>130.66666666666669</ele><time>2026-05-03T08:31:27.733Z</time></trkpt><trkpt lat="40.3959482" lon="19.8711661"><ele>131.33333333333334</ele><time>2026-05-03T08:31:28.737Z</time></trkpt><trkpt lat="40.3961058" lon="19.8710062"><ele>132.0</ele><time>2026-05-03T08:31:29.734Z</time></trkpt><trkpt lat="40.3962593" lon="19.8708036"><ele>135.5</ele><time>2026-05-03T08:31:30.73Z</time></trkpt><trkpt lat="40.3964144" lon="19.8705665"><ele>139.0</ele><time>2026-05-03T08:31:31.735Z</time></trkpt><trkpt lat="40.3965782" lon="19.8703111"><ele>139.5</ele><time>2026-05-03T08:31:32.734Z</time></trkpt><trkpt lat="40.3967513" lon="19.8700338"><ele>140.0</ele><time>2026-05-03T08:31:33.733Z</time></trkpt><trkpt lat="40.3969361" lon="19.8697368"><ele>140.0</ele><time>2026-05-03T08:31:34.735Z</time></trkpt><trkpt lat="40.3971237" lon="19.8694376"><ele>140.0</ele><time>2026-05-03T08:31:35.731Z</time></trkpt><trkpt lat="40.3973237" lon="19.8691358"><ele>145.5</ele><time>2026-05-03T08:31:36.735Z</time></trkpt><trkpt lat="40.3975139" lon="19.8688496"><ele>151.0</ele><time>2026-05-03T08:31:37.736Z</time></trkpt><trkpt lat="40.3976846" lon="19.8685772"><ele>157.5</ele><time>2026-05-03T08:31:38.735Z</time></trkpt><trkpt lat="40.397837" lon="19.8683167"><ele>164.0</ele><time>2026-05-03T08:31:39.733Z</time></trkpt><trkpt lat="40.397964" lon="19.8680527"><ele>169.0</ele><time>2026-05-03T08:31:40.735Z</time></trkpt><trkpt lat="40.3980733" lon="19.8677749"><ele>174.0</ele><time>2026-05-03T08:31:41.735Z</time></trkpt><trkpt lat="40.3981577" lon="19.867473"><ele>175.5</ele><time>2026-05-03T08:31:42.735Z</time></trkpt><trkpt lat="40.3982212" lon="19.867163"><ele>177.0</ele><time>2026-05-03T08:31:43.736Z</time></trkpt><trkpt lat="40.398271" lon="19.8668496"><ele>172.5</ele><time>2026-05-03T08:31:44.734Z</time></trkpt><trkpt lat="40.3983144" lon="19.8665357"><ele>168.0</ele><time>2026-05-03T08:31:45.736Z</time></trkpt><trkpt lat="40.398364" lon="19.8662298"><ele>163.0</ele><time>2026-05-03T08:31:46.735Z</time></trkpt><trkpt lat="40.3984226" lon="19.8659197"><ele>158.0</ele><time>2026-05-03T08:31:47.734Z</time></trkpt><trkpt lat="40.398495" lon="19.8656293"><ele>158.0</ele><time>2026-05-03T08:31:48.731Z</time></trkpt><trkpt lat="40.3985913" lon="19.8653573"><ele>158.0</ele><time>2026-05-03T08:31:49.735Z</time></trkpt><trkpt lat="40.3987146" lon="19.8650896"><ele>162.5</ele><time>2026-05-03T08:31:50.734Z</time></trkpt><trkpt lat="40.3988505" lon="19.8648443"><ele>167.0</ele><time>2026-05-03T08:31:51.735Z</time></trkpt><trkpt lat="40.3990169" lon="19.8646159"><ele>167.0</ele><time>2026-05-03T08:31:52.737Z</time></trkpt><trkpt lat="40.3991945" lon="19.8644067"><ele>167.0</ele><time>2026-05-03T08:31:53.732Z</time></trkpt><trkpt lat="40.399392" lon="19.8642141"><ele>161.5</ele><time>2026-05-03T08:31:54.732Z</time></trkpt><trkpt lat="40.3996101" lon="19.8640555"><ele>156.0</ele><time>2026-05-03T08:31:55.733Z</time></trkpt><trkpt lat="40.3998413" lon="19.8639286"><ele>156.0</ele><time>2026-05-03T08:31:56.735Z</time></trkpt><trkpt lat="40.4000835" lon="19.8638302"><ele>156.0</ele><time>2026-05-03T08:31:57.737Z</time></trkpt><trkpt lat="40.4003352" lon="19.8637605"><ele>154.5</ele><time>2026-05-03T08:31:58.735Z</time></trkpt><trkpt lat="40.4005856" lon="19.8637094"><ele>153.0</ele><time>2026-05-03T08:31:59.735Z</time></trkpt><trkpt lat="40.4008449" lon="19.8636632"><ele>153.0</ele><time>2026-05-03T08:32:00.734Z</time></trkpt><trkpt lat="40.4011023" lon="19.8636196"><ele>153.0</ele><time>2026-05-03T08:32:01.733Z</time></trkpt><trkpt lat="40.4013588" lon="19.8635772"><ele>148.0</ele><time>2026-05-03T08:32:02.733Z</time></trkpt><trkpt lat="40.4016144" lon="19.8635314"><ele>143.0</ele><time>2026-05-03T08:32:03.736Z</time></trkpt><trkpt lat="40.4018666" lon="19.863486"><ele>142.0</ele><time>2026-05-03T08:32:04.732Z</time></trkpt><trkpt lat="40.4021155" lon="19.8634412"><ele>141.0</ele><time>2026-05-03T08:32:05.735Z</time></trkpt><trkpt lat="40.402358" lon="19.8633887"><ele>141.0</ele><time>2026-05-03T08:32:06.734Z</time></trkpt><trkpt lat="40.4025932" lon="19.863316"><ele>141.0</ele><time>2026-05-03T08:32:07.734Z</time></trkpt><trkpt lat="40.4028198" lon="19.8632156"><ele>139.0</ele><time>2026-05-03T08:32:08.737Z</time></trkpt><trkpt lat="40.4030385" lon="19.8630912"><ele>137.0</ele><time>2026-05-03T08:32:09.734Z</time></trkpt><trkpt lat="40.4032545" lon="19.8629414"><ele>137.0</ele><time>2026-05-03T08:32:10.735Z</time></trkpt><trkpt lat="40.403468" lon="19.862776"><ele>137.0</ele><time>2026-05-03T08:32:11.737Z</time></trkpt><trkpt lat="40.4036703" lon="19.8625891"><ele>133.0</ele><time>2026-05-03T08:32:12.734Z</time></trkpt><trkpt lat="40.4038706" lon="19.8623963"><ele>129.0</ele><time>2026-05-03T08:32:13.735Z</time></trkpt><trkpt lat="40.4040685" lon="19.8622012"><ele>129.0</ele><time>2026-05-03T08:32:14.736Z</time></trkpt><trkpt lat="40.4042656" lon="19.8620032"><ele>129.0</ele><time>2026-05-03T08:32:15.734Z</time></trkpt><trkpt lat="40.4044602" lon="19.8618091"><ele>126.0</ele><time>2026-05-03T08:32:16.736Z</time></trkpt><trkpt lat="40.4046479" lon="19.8616216"><ele>123.0</ele><time>2026-05-03T08:32:17.735Z</time></trkpt><trkpt lat="40.4048295" lon="19.8614405"><ele>123.0</ele><time>2026-05-03T08:32:18.735Z</time></trkpt><trkpt lat="40.4050061" lon="19.8612691"><ele>123.0</ele><time>2026-05-03T08:32:19.734Z</time></trkpt><trkpt lat="40.4051807" lon="19.8611094"><ele>123.0</ele><time>2026-05-03T08:32:20.734Z</time></trkpt><trkpt lat="40.4053576" lon="19.8609738"><ele>121.33333333333334</ele><time>2026-05-03T08:32:21.734Z</time></trkpt><trkpt lat="40.405541" lon="19.8608596"><ele>119.66666666666667</ele><time>2026-05-03T08:32:22.736Z</time></trkpt><trkpt lat="40.4057287" lon="19.8607701"><ele>118.0</ele><time>2026-05-03T08:32:23.736Z</time></trkpt><trkpt lat="40.4059236" lon="19.8606993"><ele>118.0</ele><time>2026-05-03T08:32:24.735Z</time></trkpt><trkpt lat="40.4061243" lon="19.8606512"><ele>118.0</ele><time>2026-05-03T08:32:25.734Z</time></trkpt><trkpt lat="40.4063309" lon="19.8606098"><ele>118.0</ele><time>2026-05-03T08:32:26.735Z</time></trkpt><trkpt lat="40.4065376" lon="19.8605736"><ele>119.0</ele><time>2026-05-03T08:32:27.736Z</time></trkpt><trkpt lat="40.4067425" lon="19.8605367"><ele>120.0</ele><time>2026-05-03T08:32:28.736Z</time></trkpt><trkpt lat="40.4069428" lon="19.8604992"><ele>121.0</ele><time>2026-05-03T08:32:29.735Z</time></trkpt><trkpt lat="40.4071337" lon="19.8604649"><ele>121.0</ele><time>2026-05-03T08:32:30.734Z</time></trkpt><trkpt lat="40.4073244" lon="19.8604162"><ele>121.0</ele><time>2026-05-03T08:32:31.735Z</time></trkpt><trkpt lat="40.4075094" lon="19.8603836"><ele>121.0</ele><time>2026-05-03T08:32:32.737Z</time></trkpt><trkpt lat="40.407693" lon="19.8603479"><ele>121.0</ele><time>2026-05-03T08:32:33.735Z</time></trkpt><trkpt lat="40.4078706" lon="19.8603092"><ele>121.0</ele><time>2026-05-03T08:32:34.737Z</time></trkpt><trkpt lat="40.4080493" lon="19.8602621"><ele>121.0</ele><time>2026-05-03T08:32:35.732Z</time></trkpt><trkpt lat="40.4082298" lon="19.8602108"><ele>121.33333333333334</ele><time>2026-05-03T08:32:36.735Z</time></trkpt><trkpt lat="40.4084121" lon="19.8601566"><ele>121.66666666666666</ele><time>2026-05-03T08:32:37.737Z</time></trkpt><trkpt lat="40.4086031" lon="19.8600934"><ele>122.0</ele><time>2026-05-03T08:32:38.731Z</time></trkpt><trkpt lat="40.4087926" lon="19.860027"><ele>121.33333333333333</ele><time>2026-05-03T08:32:39.732Z</time></trkpt><trkpt lat="40.4089823" lon="19.8599524"><ele>120.66666666666666</ele><time>2026-05-03T08:32:40.732Z</time></trkpt><trkpt lat="40.4091711" lon="19.8598831"><ele>120.0</ele><time>2026-05-03T08:32:41.736Z</time></trkpt><trkpt lat="40.4093646" lon="19.8598083"><ele>120.0</ele><time>2026-05-03T08:32:42.736Z</time></trkpt><trkpt lat="40.4095564" lon="19.8597361"><ele>120.0</ele><time>2026-05-03T08:32:43.733Z</time></trkpt><trkpt lat="40.4097488" lon="19.8596655"><ele>120.0</ele><time>2026-05-03T08:32:44.736Z</time></trkpt><trkpt lat="40.4099441" lon="19.8596069"><ele>120.66666666666666</ele><time>2026-05-03T08:32:45.737Z</time></trkpt><trkpt lat="40.4101438" lon="19.859555"><ele>121.33333333333333</ele><time>2026-05-03T08:32:46.736Z</time></trkpt><trkpt lat="40.4103464" lon="19.8595288"><ele>122.0</ele><time>2026-05-03T08:32:47.736Z</time></trkpt><trkpt lat="40.4105492" lon="19.8595252"><ele>123.0</ele><time>2026-05-03T08:32:48.734Z</time></trkpt><trkpt lat="40.4107587" lon="19.8595406"><ele>124.0</ele><time>2026-05-03T08:32:49.735Z</time></trkpt><trkpt lat="40.4109657" lon="19.8595768"><ele>125.0</ele><time>2026-05-03T08:32:50.736Z</time></trkpt><trkpt lat="40.4111738" lon="19.859627"><ele>125.33333333333333</ele><time>2026-05-03T08:32:51.735Z</time></trkpt><trkpt lat="40.4113803" lon="19.8597002"><ele>125.66666666666666</ele><time>2026-05-03T08:32:52.736Z</time></trkpt><trkpt lat="40.4115867" lon="19.8597794"><ele>126.0</ele><time>2026-05-03T08:32:53.735Z</time></trkpt><trkpt lat="40.4117956" lon="19.8598557"><ele>126.0</ele><time>2026-05-03T08:32:54.734Z</time></trkpt><trkpt lat="40.4120064" lon="19.8599207"><ele>126.0</ele><time>2026-05-03T08:32:55.735Z</time></trkpt><trkpt lat="40.4122168" lon="19.8599656"><ele>126.0</ele><time>2026-05-03T08:32:56.735Z</time></trkpt><trkpt lat="40.4124289" lon="19.8599883"><ele>126.33333333333334</ele><time>2026-05-03T08:32:57.735Z</time></trkpt><trkpt lat="40.4126427" lon="19.85999"><ele>126.66666666666667</ele><time>2026-05-03T08:32:58.733Z</time></trkpt><trkpt lat="40.4128539" lon="19.8599715"><ele>127.0</ele><time>2026-05-03T08:32:59.735Z</time></trkpt><trkpt lat="40.4130646" lon="19.859931"><ele>127.33333333333334</ele><time>2026-05-03T08:33:00.736Z</time></trkpt><trkpt lat="40.4132721" lon="19.8598713"><ele>127.66666666666666</ele><time>2026-05-03T08:33:01.735Z</time></trkpt><trkpt lat="40.4134763" lon="19.8597867"><ele>128.0</ele><time>2026-05-03T08:33:02.734Z</time></trkpt><trkpt lat="40.4136701" lon="19.8596814"><ele>127.33333333333333</ele><time>2026-05-03T08:33:03.735Z</time></trkpt><trkpt lat="40.4138623" lon="19.8595607"><ele>126.66666666666666</ele><time>2026-05-03T08:33:04.733Z</time></trkpt><trkpt lat="40.4140503" lon="19.8594258"><ele>126.0</ele><time>2026-05-03T08:33:05.734Z</time></trkpt><trkpt lat="40.4142339" lon="19.8592783"><ele>126.0</ele><time>2026-05-03T08:33:06.733Z</time></trkpt><trkpt lat="40.4144175" lon="19.8591296"><ele>126.0</ele><time>2026-05-03T08:33:07.734Z</time></trkpt><trkpt lat="40.4146008" lon="19.8589775"><ele>126.0</ele><time>2026-05-03T08:33:08.734Z</time></trkpt><trkpt lat="40.4147838" lon="19.8588231"><ele>126.33333333333334</ele><time>2026-05-03T08:33:09.733Z</time></trkpt><trkpt lat="40.4149695" lon="19.8586705"><ele>126.66666666666667</ele><time>2026-05-03T08:33:10.737Z</time></trkpt><trkpt lat="40.4151565" lon="19.8585167"><ele>127.0</ele><time>2026-05-03T08:33:11.733Z</time></trkpt><trkpt lat="40.4153419" lon="19.8583645"><ele>127.66666666666667</ele><time>2026-05-03T08:33:12.736Z</time></trkpt><trkpt lat="40.4155286" lon="19.8582136"><ele>128.33333333333334</ele><time>2026-05-03T08:33:13.737Z</time></trkpt><trkpt lat="40.4157147" lon="19.8580685"><ele>129.0</ele><time>2026-05-03T08:33:14.737Z</time></trkpt><trkpt lat="40.4159049" lon="19.8579318"><ele>129.0</ele><time>2026-05-03T08:33:15.735Z</time></trkpt><trkpt lat="40.4160984" lon="19.85781"><ele>129.0</ele><time>2026-05-03T08:33:16.737Z</time></trkpt><trkpt lat="40.416295" lon="19.8577"><ele>129.0</ele><time>2026-05-03T08:33:17.735Z</time></trkpt><trkpt lat="40.4164963" lon="19.8576098"><ele>128.66666666666666</ele><time>2026-05-03T08:33:18.737Z</time></trkpt><trkpt lat="40.4167018" lon="19.8575196"><ele>128.33333333333331</ele><time>2026-05-03T08:33:19.736Z</time></trkpt><trkpt lat="40.4169068" lon="19.8574331"><ele>128.0</ele><time>2026-05-03T08:33:20.734Z</time></trkpt><trkpt lat="40.4171178" lon="19.8573751"><ele>130.0</ele><time>2026-05-03T08:33:21.735Z</time></trkpt><trkpt lat="40.4173371" lon="19.8573337"><ele>132.0</ele><time>2026-05-03T08:33:22.735Z</time></trkpt><trkpt lat="40.4175592" lon="19.8573074"><ele>134.0</ele><time>2026-05-03T08:33:23.735Z</time></trkpt><trkpt lat="40.4177916" lon="19.8573004"><ele>136.0</ele><time>2026-05-03T08:33:24.737Z</time></trkpt><trkpt lat="40.4180253" lon="19.8573088"><ele>138.0</ele><time>2026-05-03T08:33:25.734Z</time></trkpt><trkpt lat="40.4182625" lon="19.857337"><ele>138.0</ele><time>2026-05-03T08:33:26.734Z</time></trkpt><trkpt lat="40.4184996" lon="19.857372"><ele>138.0</ele><time>2026-05-03T08:33:27.736Z</time></trkpt><trkpt lat="40.4187327" lon="19.8574247"><ele>137.0</ele><time>2026-05-03T08:33:28.736Z</time></trkpt><trkpt lat="40.4189644" lon="19.8574863"><ele>136.0</ele><time>2026-05-03T08:33:29.736Z</time></trkpt><trkpt lat="40.4191957" lon="19.8575446"><ele>136.0</ele><time>2026-05-03T08:33:30.736Z</time></trkpt><trkpt lat="40.4194287" lon="19.8576017"><ele>136.0</ele><time>2026-05-03T08:33:31.735Z</time></trkpt><trkpt lat="40.419656" lon="19.857661"><ele>137.0</ele><time>2026-05-03T08:33:32.736Z</time></trkpt><trkpt lat="40.4198851" lon="19.8577222"><ele>138.0</ele><time>2026-05-03T08:33:33.737Z</time></trkpt><trkpt lat="40.4201142" lon="19.8577635"><ele>138.0</ele><time>2026-05-03T08:33:34.737Z</time></trkpt><trkpt lat="40.4203403" lon="19.8577955"><ele>138.0</ele><time>2026-05-03T08:33:35.735Z</time></trkpt><trkpt lat="40.4205692" lon="19.8577993"><ele>137.5</ele><time>2026-05-03T08:33:36.735Z</time></trkpt><trkpt lat="40.4208027" lon="19.8577746"><ele>137.0</ele><time>2026-05-03T08:33:37.735Z</time></trkpt><trkpt lat="40.4210389" lon="19.8577334"><ele>137.0</ele><time>2026-05-03T08:33:38.734Z</time></trkpt><trkpt lat="40.421276" lon="19.8576771"><ele>137.0</ele><time>2026-05-03T08:33:39.735Z</time></trkpt><trkpt lat="40.4215121" lon="19.8576165"><ele>136.5</ele><time>2026-05-03T08:33:40.735Z</time></trkpt><trkpt lat="40.4217465" lon="19.8575541"><ele>136.0</ele><time>2026-05-03T08:33:41.737Z</time></trkpt><trkpt lat="40.4219771" lon="19.8574893"><ele>137.0</ele><time>2026-05-03T08:33:42.737Z</time></trkpt><trkpt lat="40.4222031" lon="19.857425"><ele>138.0</ele><time>2026-05-03T08:33:43.735Z</time></trkpt><trkpt lat="40.4224273" lon="19.8573443"><ele>138.0</ele><time>2026-05-03T08:33:44.736Z</time></trkpt><trkpt lat="40.4226425" lon="19.8572435"><ele>138.0</ele><time>2026-05-03T08:33:45.736Z</time></trkpt><trkpt lat="40.4228506" lon="19.8571136"><ele>138.5</ele><time>2026-05-03T08:33:46.735Z</time></trkpt><trkpt lat="40.4230539" lon="19.8569584"><ele>139.0</ele><time>2026-05-03T08:33:47.736Z</time></trkpt><trkpt lat="40.4232418" lon="19.8567716"><ele>139.5</ele><time>2026-05-03T08:33:48.734Z</time></trkpt><trkpt lat="40.4234154" lon="19.8565577"><ele>140.0</ele><time>2026-05-03T08:33:49.737Z</time></trkpt><trkpt lat="40.4235759" lon="19.8563192"><ele>140.0</ele><time>2026-05-03T08:33:50.735Z</time></trkpt><trkpt lat="40.4237242" lon="19.8560663"><ele>140.0</ele><time>2026-05-03T08:33:51.734Z</time></trkpt><trkpt lat="40.4238713" lon="19.8558166"><ele>143.0</ele><time>2026-05-03T08:33:52.734Z</time></trkpt><trkpt lat="40.424026" lon="19.8555796"><ele>146.0</ele><time>2026-05-03T08:33:53.736Z</time></trkpt><trkpt lat="40.424188" lon="19.8553688"><ele>146.0</ele><time>2026-05-03T08:33:54.737Z</time></trkpt><trkpt lat="40.4243537" lon="19.8551785"><ele>146.0</ele><time>2026-05-03T08:33:55.735Z</time></trkpt><trkpt lat="40.4245281" lon="19.8550138"><ele>146.0</ele><time>2026-05-03T08:33:56.735Z</time></trkpt><trkpt lat="40.424713" lon="19.8548716"><ele>147.33333333333331</ele><time>2026-05-03T08:33:57.735Z</time></trkpt><trkpt lat="40.4249099" lon="19.8547533"><ele>148.66666666666666</ele><time>2026-05-03T08:33:58.734Z</time></trkpt><trkpt lat="40.4251119" lon="19.8546373"><ele>150.0</ele><time>2026-05-03T08:33:59.733Z</time></trkpt><trkpt lat="40.4253223" lon="19.8545337"><ele>150.66666666666666</ele><time>2026-05-03T08:34:00.733Z</time></trkpt><trkpt lat="40.4255311" lon="19.8544359"><ele>151.33333333333331</ele><time>2026-05-03T08:34:01.734Z</time></trkpt><trkpt lat="40.425744" lon="19.8543374"><ele>152.0</ele><time>2026-05-03T08:34:02.735Z</time></trkpt><trkpt lat="40.4259553" lon="19.8542405"><ele>152.0</ele><time>2026-05-03T08:34:03.736Z</time></trkpt><trkpt lat="40.4261671" lon="19.854142"><ele>152.0</ele><time>2026-05-03T08:34:04.734Z</time></trkpt><trkpt lat="40.426377" lon="19.8540412"><ele>152.0</ele><time>2026-05-03T08:34:05.735Z</time></trkpt><trkpt lat="40.4265856" lon="19.8539383"><ele>153.66666666666666</ele><time>2026-05-03T08:34:06.734Z</time></trkpt><trkpt lat="40.4267943" lon="19.8538381"><ele>155.33333333333334</ele><time>2026-05-03T08:34:07.735Z</time></trkpt><trkpt lat="40.4270007" lon="19.8537406"><ele>157.0</ele><time>2026-05-03T08:34:08.737Z</time></trkpt><trkpt lat="40.427208" lon="19.8536427"><ele>156.66666666666669</ele><time>2026-05-03T08:34:09.734Z</time></trkpt><trkpt lat="40.4274099" lon="19.8535437"><ele>156.33333333333334</ele><time>2026-05-03T08:34:10.736Z</time></trkpt><trkpt lat="40.4276063" lon="19.8534475"><ele>156.0</ele><time>2026-05-03T08:34:11.735Z</time></trkpt><trkpt lat="40.4277952" lon="19.8533541"><ele>156.33333333333334</ele><time>2026-05-03T08:34:12.736Z</time></trkpt><trkpt lat="40.4279786" lon="19.8532659"><ele>156.66666666666669</ele><time>2026-05-03T08:34:13.736Z</time></trkpt><trkpt lat="40.4281542" lon="19.8531842"><ele>157.0</ele><time>2026-05-03T08:34:14.731Z</time></trkpt><trkpt lat="40.4283194" lon="19.8531131"><ele>157.0</ele><time>2026-05-03T08:34:15.735Z</time></trkpt><trkpt lat="40.428477" lon="19.8530717"><ele>157.0</ele><time>2026-05-03T08:34:16.735Z</time></trkpt><trkpt lat="40.4286368" lon="19.8530589"><ele>157.0</ele><time>2026-05-03T08:34:17.734Z</time></trkpt><trkpt lat="40.4287878" lon="19.8531041"><ele>157.66666666666669</ele><time>2026-05-03T08:34:18.735Z</time></trkpt><trkpt lat="40.428938" lon="19.8531509"><ele>158.33333333333334</ele><time>2026-05-03T08:34:19.736Z</time></trkpt><trkpt lat="40.429095" lon="19.8532089"><ele>159.0</ele><time>2026-05-03T08:34:20.736Z</time></trkpt><trkpt lat="40.4292592" lon="19.8532357"><ele>159.0</ele><time>2026-05-03T08:34:21.735Z</time></trkpt><trkpt lat="40.4294236" lon="19.8532335"><ele>159.0</ele><time>2026-05-03T08:34:22.735Z</time></trkpt><trkpt lat="40.4295824" lon="19.8532051"><ele>159.0</ele><time>2026-05-03T08:34:23.734Z</time></trkpt><trkpt lat="40.4297416" lon="19.8531823"><ele>159.0</ele><time>2026-05-03T08:34:24.736Z</time></trkpt><trkpt lat="40.4299013" lon="19.8531601"><ele>159.0</ele><time>2026-05-03T08:34:25.736Z</time></trkpt><trkpt lat="40.430062" lon="19.8531373"><ele>159.0</ele><time>2026-05-03T08:34:26.734Z</time></trkpt><trkpt lat="40.430218" lon="19.8531169"><ele>159.0</ele><time>2026-05-03T08:34:27.735Z</time></trkpt><trkpt lat="40.4303679" lon="19.8530942"><ele>159.0</ele><time>2026-05-03T08:34:28.736Z</time></trkpt><trkpt lat="40.4305066" lon="19.8530778"><ele>159.0</ele><time>2026-05-03T08:34:29.735Z</time></trkpt><trkpt lat="40.4306423" lon="19.8530519"><ele>159.0</ele><time>2026-05-03T08:34:30.736Z</time></trkpt><trkpt lat="40.4307745" lon="19.8530125"><ele>159.0</ele><time>2026-05-03T08:34:31.736Z</time></trkpt><trkpt lat="40.430886" lon="19.8529526"><ele>159.0</ele><time>2026-05-03T08:34:32.736Z</time></trkpt><trkpt lat="40.4309994" lon="19.852882"><ele>159.0</ele><time>2026-05-03T08:34:33.736Z</time></trkpt><trkpt lat="40.431119" lon="19.8527986"><ele>159.0</ele><time>2026-05-03T08:34:34.735Z</time></trkpt><trkpt lat="40.4312614" lon="19.8527138"><ele>162.0</ele><time>2026-05-03T08:34:35.735Z</time></trkpt><trkpt lat="40.4314172" lon="19.8526107"><ele>165.0</ele><time>2026-05-03T08:34:36.736Z</time></trkpt><trkpt lat="40.4315738" lon="19.8525047"><ele>168.0</ele><time>2026-05-03T08:34:37.735Z</time></trkpt><trkpt lat="40.4317466" lon="19.8524003"><ele>168.0</ele><time>2026-05-03T08:34:38.735Z</time></trkpt><trkpt lat="40.4319281" lon="19.8522939"><ele>168.0</ele><time>2026-05-03T08:34:39.735Z</time></trkpt><trkpt lat="40.4321073" lon="19.8522013"><ele>168.0</ele><time>2026-05-03T08:34:40.735Z</time></trkpt><trkpt lat="40.4322867" lon="19.852116"><ele>166.0</ele><time>2026-05-03T08:34:41.737Z</time></trkpt><trkpt lat="40.4324634" lon="19.8520465"><ele>164.0</ele><time>2026-05-03T08:34:42.735Z</time></trkpt><trkpt lat="40.4326412" lon="19.8519817"><ele>162.0</ele><time>2026-05-03T08:34:43.734Z</time></trkpt><trkpt lat="40.4328289" lon="19.8519232"><ele>161.0</ele><time>2026-05-03T08:34:44.735Z</time></trkpt><trkpt lat="40.433025" lon="19.8518746"><ele>160.0</ele><time>2026-05-03T08:34:45.733Z</time></trkpt><trkpt lat="40.4332179" lon="19.8518312"><ele>159.0</ele><time>2026-05-03T08:34:46.734Z</time></trkpt><trkpt lat="40.4334052" lon="19.8517917"><ele>162.66666666666666</ele><time>2026-05-03T08:34:47.737Z</time></trkpt><trkpt lat="40.4335862" lon="19.8517548"><ele>166.33333333333331</ele><time>2026-05-03T08:34:48.737Z</time></trkpt><trkpt lat="40.433762" lon="19.8517149"><ele>170.0</ele><time>2026-05-03T08:34:49.735Z</time></trkpt><trkpt lat="40.4339376" lon="19.8516716"><ele>170.0</ele><time>2026-05-03T08:34:50.731Z</time></trkpt><trkpt lat="40.4341254" lon="19.8516138"><ele>170.0</ele><time>2026-05-03T08:34:51.735Z</time></trkpt><trkpt lat="40.4343124" lon="19.8515586"><ele>170.0</ele><time>2026-05-03T08:34:52.73Z</time></trkpt><trkpt lat="40.4344986" lon="19.8515003"><ele>168.33333333333331</ele><time>2026-05-03T08:34:53.734Z</time></trkpt><trkpt lat="40.43468" lon="19.8514491"><ele>166.66666666666666</ele><time>2026-05-03T08:34:54.732Z</time></trkpt><trkpt lat="40.4348659" lon="19.8513899"><ele>165.0</ele><time>2026-05-03T08:34:55.733Z</time></trkpt><trkpt lat="40.4350552" lon="19.8513272"><ele>165.0</ele><time>2026-05-03T08:34:56.732Z</time></trkpt><trkpt lat="40.4352442" lon="19.8512639"><ele>165.0</ele><time>2026-05-03T08:34:57.732Z</time></trkpt><trkpt lat="40.4354358" lon="19.8512011"><ele>165.0</ele><time>2026-05-03T08:34:58.734Z</time></trkpt><trkpt lat="40.4356269" lon="19.851135"><ele>165.0</ele><time>2026-05-03T08:34:59.734Z</time></trkpt><trkpt lat="40.4358187" lon="19.8510638"><ele>165.0</ele><time>2026-05-03T08:35:00.736Z</time></trkpt><trkpt lat="40.4360102" lon="19.8509892"><ele>165.0</ele><time>2026-05-03T08:35:01.735Z</time></trkpt><trkpt lat="40.4362047" lon="19.8509142"><ele>165.66666666666666</ele><time>2026-05-03T08:35:02.735Z</time></trkpt><trkpt lat="40.4364" lon="19.850837"><ele>166.33333333333331</ele><time>2026-05-03T08:35:03.735Z</time></trkpt><trkpt lat="40.4365958" lon="19.8507669"><ele>167.0</ele><time>2026-05-03T08:35:04.735Z</time></trkpt><trkpt lat="40.4367945" lon="19.8506963"><ele>167.0</ele><time>2026-05-03T08:35:05.734Z</time></trkpt><trkpt lat="40.4369948" lon="19.8506228"><ele>167.0</ele><time>2026-05-03T08:35:06.735Z</time></trkpt><trkpt lat="40.4371943" lon="19.8505545"><ele>167.0</ele><time>2026-05-03T08:35:07.731Z</time></trkpt><trkpt lat="40.4373872" lon="19.8504813"><ele>166.66666666666666</ele><time>2026-05-03T08:35:08.734Z</time></trkpt><trkpt lat="40.4375791" lon="19.8504107"><ele>166.33333333333334</ele><time>2026-05-03T08:35:09.734Z</time></trkpt><trkpt lat="40.4377722" lon="19.8503317"><ele>166.0</ele><time>2026-05-03T08:35:10.736Z</time></trkpt><trkpt lat="40.4379677" lon="19.8502572"><ele>165.66666666666669</ele><time>2026-05-03T08:35:11.735Z</time></trkpt><trkpt lat="40.4381635" lon="19.8501687"><ele>165.33333333333334</ele><time>2026-05-03T08:35:12.735Z</time></trkpt><trkpt lat="40.4383561" lon="19.8500593"><ele>165.0</ele><time>2026-05-03T08:35:13.737Z</time></trkpt><trkpt lat="40.4385409" lon="19.8499299"><ele>166.0</ele><time>2026-05-03T08:35:14.737Z</time></trkpt><trkpt lat="40.4387192" lon="19.8497876"><ele>167.0</ele><time>2026-05-03T08:35:15.735Z</time></trkpt><trkpt lat="40.4388914" lon="19.8496431"><ele>168.0</ele><time>2026-05-03T08:35:16.737Z</time></trkpt><trkpt lat="40.439061" lon="19.8495035"><ele>168.0</ele><time>2026-05-03T08:35:17.734Z</time></trkpt><trkpt lat="40.4392338" lon="19.8493728"><ele>168.0</ele><time>2026-05-03T08:35:18.736Z</time></trkpt><trkpt lat="40.4394134" lon="19.8492534"><ele>168.0</ele><time>2026-05-03T08:35:19.735Z</time></trkpt><trkpt lat="40.439601" lon="19.8491477"><ele>169.66666666666666</ele><time>2026-05-03T08:35:20.737Z</time></trkpt><trkpt lat="40.4397965" lon="19.8490548"><ele>171.33333333333331</ele><time>2026-05-03T08:35:21.735Z</time></trkpt><trkpt lat="40.4399963" lon="19.8489729"><ele>173.0</ele><time>2026-05-03T08:35:22.735Z</time></trkpt><trkpt lat="40.440198" lon="19.8489025"><ele>173.0</ele><time>2026-05-03T08:35:23.736Z</time></trkpt><trkpt lat="40.4404003" lon="19.8488231"><ele>173.0</ele><time>2026-05-03T08:35:24.735Z</time></trkpt><trkpt lat="40.4406014" lon="19.8487466"><ele>173.0</ele><time>2026-05-03T08:35:25.736Z</time></trkpt><trkpt lat="40.4408059" lon="19.8486657"><ele>173.0</ele><time>2026-05-03T08:35:26.734Z</time></trkpt><trkpt lat="40.4410153" lon="19.8486012"><ele>173.0</ele><time>2026-05-03T08:35:27.736Z</time></trkpt><trkpt lat="40.4412305" lon="19.8485466"><ele>173.0</ele><time>2026-05-03T08:35:28.735Z</time></trkpt><trkpt lat="40.4414476" lon="19.8485041"><ele>173.0</ele><time>2026-05-03T08:35:29.736Z</time></trkpt><trkpt lat="40.4416664" lon="19.8484725"><ele>173.0</ele><time>2026-05-03T08:35:30.735Z</time></trkpt><trkpt lat="40.4418848" lon="19.8484493"><ele>173.0</ele><time>2026-05-03T08:35:31.733Z</time></trkpt><trkpt lat="40.4421078" lon="19.8484427"><ele>172.5</ele><time>2026-05-03T08:35:32.733Z</time></trkpt><trkpt lat="40.4423348" lon="19.8484482"><ele>172.0</ele><time>2026-05-03T08:35:33.736Z</time></trkpt><trkpt lat="40.4425624" lon="19.8484624"><ele>172.0</ele><time>2026-05-03T08:35:34.737Z</time></trkpt><trkpt lat="40.4427891" lon="19.8484831"><ele>172.0</ele><time>2026-05-03T08:35:35.733Z</time></trkpt><trkpt lat="40.4430142" lon="19.848508"><ele>172.66666666666669</ele><time>2026-05-03T08:35:36.735Z</time></trkpt><trkpt lat="40.4432347" lon="19.8485335"><ele>173.33333333333334</ele><time>2026-05-03T08:35:37.732Z</time></trkpt><trkpt lat="40.4434605" lon="19.8485597"><ele>174.0</ele><time>2026-05-03T08:35:38.735Z</time></trkpt><trkpt lat="40.4436901" lon="19.8485812"><ele>175.5</ele><time>2026-05-03T08:35:39.736Z</time></trkpt><trkpt lat="40.4439202" lon="19.848595"><ele>177.0</ele><time>2026-05-03T08:35:40.737Z</time></trkpt><trkpt lat="40.4441511" lon="19.8485955"><ele>177.0</ele><time>2026-05-03T08:35:41.736Z</time></trkpt><trkpt lat="40.4443809" lon="19.8485908"><ele>177.0</ele><time>2026-05-03T08:35:42.734Z</time></trkpt><trkpt lat="40.4446091" lon="19.8485843"><ele>177.5</ele><time>2026-05-03T08:35:43.735Z</time></trkpt><trkpt lat="40.444836" lon="19.8485788"><ele>178.0</ele><time>2026-05-03T08:35:44.736Z</time></trkpt><trkpt lat="40.4450614" lon="19.8485752"><ele>178.0</ele><time>2026-05-03T08:35:45.734Z</time></trkpt><trkpt lat="40.4452842" lon="19.8485711"><ele>178.0</ele><time>2026-05-03T08:35:46.734Z</time></trkpt><trkpt lat="40.4455023" lon="19.8485657"><ele>178.0</ele><time>2026-05-03T08:35:47.735Z</time></trkpt><trkpt lat="40.445719" lon="19.848564"><ele>178.0</ele><time>2026-05-03T08:35:48.734Z</time></trkpt><trkpt lat="40.4459316" lon="19.8485658"><ele>178.0</ele><time>2026-05-03T08:35:49.734Z</time></trkpt><trkpt lat="40.4461421" lon="19.8485742"><ele>178.0</ele><time>2026-05-03T08:35:50.735Z</time></trkpt><trkpt lat="40.4463506" lon="19.8485921"><ele>179.0</ele><time>2026-05-03T08:35:51.735Z</time></trkpt><trkpt lat="40.4465583" lon="19.8486153"><ele>180.0</ele><time>2026-05-03T08:35:52.735Z</time></trkpt><trkpt lat="40.4467657" lon="19.8486416"><ele>181.0</ele><time>2026-05-03T08:35:53.735Z</time></trkpt><trkpt lat="40.4469731" lon="19.8486721"><ele>181.66666666666669</ele><time>2026-05-03T08:35:54.732Z</time></trkpt><trkpt lat="40.4471827" lon="19.8486913"><ele>182.33333333333334</ele><time>2026-05-03T08:35:55.733Z</time></trkpt><trkpt lat="40.4473913" lon="19.8487166"><ele>183.0</ele><time>2026-05-03T08:35:56.735Z</time></trkpt><trkpt lat="40.4475992" lon="19.8487381"><ele>183.0</ele><time>2026-05-03T08:35:57.736Z</time></trkpt><trkpt lat="40.4478069" lon="19.848753"><ele>183.0</ele><time>2026-05-03T08:35:58.737Z</time></trkpt><trkpt lat="40.448015" lon="19.8487582"><ele>183.0</ele><time>2026-05-03T08:35:59.736Z</time></trkpt><trkpt lat="40.4482201" lon="19.8487542"><ele>184.0</ele><time>2026-05-03T08:36:00.735Z</time></trkpt><trkpt lat="40.4484232" lon="19.848742"><ele>185.0</ele><time>2026-05-03T08:36:01.732Z</time></trkpt><trkpt lat="40.4486239" lon="19.8487213"><ele>186.0</ele><time>2026-05-03T08:36:02.736Z</time></trkpt><trkpt lat="40.4488236" lon="19.8486927"><ele>186.33333333333334</ele><time>2026-05-03T08:36:03.737Z</time></trkpt><trkpt lat="40.4490221" lon="19.848652"><ele>186.66666666666669</ele><time>2026-05-03T08:36:04.734Z</time></trkpt><trkpt lat="40.4492235" lon="19.8486215"><ele>187.0</ele><time>2026-05-03T08:36:05.734Z</time></trkpt><trkpt lat="40.4494251" lon="19.8485992"><ele>187.0</ele><time>2026-05-03T08:36:06.735Z</time></trkpt><trkpt lat="40.4496242" lon="19.8485643"><ele>187.0</ele><time>2026-05-03T08:36:07.734Z</time></trkpt><trkpt lat="40.4498196" lon="19.8485363"><ele>187.0</ele><time>2026-05-03T08:36:08.734Z</time></trkpt><trkpt lat="40.4500131" lon="19.8485129"><ele>188.0</ele><time>2026-05-03T08:36:09.736Z</time></trkpt><trkpt lat="40.4502084" lon="19.8485025"><ele>189.0</ele><time>2026-05-03T08:36:10.734Z</time></trkpt><trkpt lat="40.4504114" lon="19.8485017"><ele>190.0</ele><time>2026-05-03T08:36:11.735Z</time></trkpt><trkpt lat="40.450621" lon="19.8485172"><ele>190.33333333333334</ele><time>2026-05-03T08:36:12.737Z</time></trkpt><trkpt lat="40.4508377" lon="19.8485402"><ele>190.66666666666666</ele><time>2026-05-03T08:36:13.736Z</time></trkpt><trkpt lat="40.4510572" lon="19.8485675"><ele>191.0</ele><time>2026-05-03T08:36:14.736Z</time></trkpt><trkpt lat="40.4512773" lon="19.8485963"><ele>190.0</ele><time>2026-05-03T08:36:15.735Z</time></trkpt><trkpt lat="40.4514987" lon="19.8486248"><ele>189.0</ele><time>2026-05-03T08:36:16.732Z</time></trkpt><trkpt lat="40.4517169" lon="19.8486539"><ele>188.0</ele><time>2026-05-03T08:36:17.734Z</time></trkpt><trkpt lat="40.4519332" lon="19.8486829"><ele>189.33333333333331</ele><time>2026-05-03T08:36:18.735Z</time></trkpt><trkpt lat="40.4521464" lon="19.848713"><ele>190.66666666666666</ele><time>2026-05-03T08:36:19.733Z</time></trkpt><trkpt lat="40.4523558" lon="19.848745"><ele>192.0</ele><time>2026-05-03T08:36:20.735Z</time></trkpt><trkpt lat="40.45256" lon="19.8487755"><ele>192.0</ele><time>2026-05-03T08:36:21.735Z</time></trkpt><trkpt lat="40.452761" lon="19.8488019"><ele>192.0</ele><time>2026-05-03T08:36:22.734Z</time></trkpt><trkpt lat="40.4529579" lon="19.8488241"><ele>192.0</ele><time>2026-05-03T08:36:23.734Z</time></trkpt><trkpt lat="40.4531521" lon="19.8488445"><ele>193.33333333333331</ele><time>2026-05-03T08:36:24.735Z</time></trkpt><trkpt lat="40.453352" lon="19.8488539"><ele>194.66666666666666</ele><time>2026-05-03T08:36:25.733Z</time></trkpt><trkpt lat="40.4535576" lon="19.8488378"><ele>196.0</ele><time>2026-05-03T08:36:26.733Z</time></trkpt><trkpt lat="40.4537625" lon="19.8487978"><ele>196.33333333333331</ele><time>2026-05-03T08:36:27.735Z</time></trkpt><trkpt lat="40.4539698" lon="19.8487425"><ele>196.66666666666669</ele><time>2026-05-03T08:36:28.734Z</time></trkpt><trkpt lat="40.4541768" lon="19.8486905"><ele>197.0</ele><time>2026-05-03T08:36:29.734Z</time></trkpt><trkpt lat="40.4543842" lon="19.8486352"><ele>197.0</ele><time>2026-05-03T08:36:30.736Z</time></trkpt><trkpt lat="40.4545963" lon="19.8485966"><ele>197.0</ele><time>2026-05-03T08:36:31.735Z</time></trkpt><trkpt lat="40.4548037" lon="19.8485718"><ele>197.0</ele><time>2026-05-03T08:36:32.737Z</time></trkpt><trkpt lat="40.4550088" lon="19.848571"><ele>197.66666666666669</ele><time>2026-05-03T08:36:33.734Z</time></trkpt><trkpt lat="40.4552203" lon="19.8485994"><ele>198.33333333333331</ele><time>2026-05-03T08:36:34.735Z</time></trkpt><trkpt lat="40.4554341" lon="19.8486495"><ele>199.0</ele><time>2026-05-03T08:36:35.735Z</time></trkpt><trkpt lat="40.4556456" lon="19.8487204"><ele>199.5</ele><time>2026-05-03T08:36:36.735Z</time></trkpt><trkpt lat="40.4558612" lon="19.8488053"><ele>200.0</ele><time>2026-05-03T08:36:37.735Z</time></trkpt><trkpt lat="40.4560771" lon="19.8488952"><ele>200.0</ele><time>2026-05-03T08:36:38.736Z</time></trkpt><trkpt lat="40.4562934" lon="19.8489881"><ele>200.0</ele><time>2026-05-03T08:36:39.733Z</time></trkpt><trkpt lat="40.4565107" lon="19.849082"><ele>200.0</ele><time>2026-05-03T08:36:40.735Z</time></trkpt><trkpt lat="40.4567268" lon="19.849176"><ele>200.0</ele><time>2026-05-03T08:36:41.735Z</time></trkpt><trkpt lat="40.4569408" lon="19.849268"><ele>200.33333333333334</ele><time>2026-05-03T08:36:42.735Z</time></trkpt><trkpt lat="40.4571527" lon="19.8493583"><ele>200.66666666666669</ele><time>2026-05-03T08:36:43.734Z</time></trkpt><trkpt lat="40.4573604" lon="19.8494435"><ele>201.0</ele><time>2026-05-03T08:36:44.736Z</time></trkpt><trkpt lat="40.457567" lon="19.8495209"><ele>201.0</ele><time>2026-05-03T08:36:45.733Z</time></trkpt><trkpt lat="40.4577706" lon="19.8495868"><ele>201.0</ele><time>2026-05-03T08:36:46.733Z</time></trkpt><trkpt lat="40.4579739" lon="19.8496396"><ele>201.0</ele><time>2026-05-03T08:36:47.735Z</time></trkpt><trkpt lat="40.4581759" lon="19.8496878"><ele>203.33333333333331</ele><time>2026-05-03T08:36:48.734Z</time></trkpt><trkpt lat="40.4583814" lon="19.8497362"><ele>205.66666666666666</ele><time>2026-05-03T08:36:49.733Z</time></trkpt><trkpt lat="40.4585899" lon="19.8497866"><ele>208.0</ele><time>2026-05-03T08:36:50.734Z</time></trkpt><trkpt lat="40.4587999" lon="19.8498416"><ele>210.0</ele><time>2026-05-03T08:36:51.735Z</time></trkpt><trkpt lat="40.4590031" lon="19.8499077"><ele>212.0</ele><time>2026-05-03T08:36:52.734Z</time></trkpt><trkpt lat="40.4592118" lon="19.8499833"><ele>214.0</ele><time>2026-05-03T08:36:53.733Z</time></trkpt><trkpt lat="40.4594184" lon="19.850071"><ele>212.33333333333331</ele><time>2026-05-03T08:36:54.736Z</time></trkpt><trkpt lat="40.459622" lon="19.850168"><ele>210.66666666666669</ele><time>2026-05-03T08:36:55.734Z</time></trkpt><trkpt lat="40.4598213" lon="19.8502728"><ele>209.0</ele><time>2026-05-03T08:36:56.735Z</time></trkpt><trkpt lat="40.4600177" lon="19.8503863"><ele>209.0</ele><time>2026-05-03T08:36:57.735Z</time></trkpt><trkpt lat="40.460211" lon="19.8505071"><ele>209.0</ele><time>2026-05-03T08:36:58.734Z</time></trkpt><trkpt lat="40.4604045" lon="19.8506287"><ele>209.0</ele><time>2026-05-03T08:36:59.737Z</time></trkpt><trkpt lat="40.4605996" lon="19.8507477"><ele>209.0</ele><time>2026-05-03T08:37:00.734Z</time></trkpt><trkpt lat="40.4607965" lon="19.8508655"><ele>209.0</ele><time>2026-05-03T08:37:01.734Z</time></trkpt><trkpt lat="40.4609897" lon="19.850987"><ele>209.0</ele><time>2026-05-03T08:37:02.735Z</time></trkpt><trkpt lat="40.4611806" lon="19.8511132"><ele>211.0</ele><time>2026-05-03T08:37:03.734Z</time></trkpt><trkpt lat="40.4613737" lon="19.8512392"><ele>213.0</ele><time>2026-05-03T08:37:04.734Z</time></trkpt><trkpt lat="40.4615666" lon="19.8513627"><ele>215.0</ele><time>2026-05-03T08:37:05.733Z</time></trkpt><trkpt lat="40.4617585" lon="19.8514836"><ele>215.0</ele><time>2026-05-03T08:37:06.734Z</time></trkpt><trkpt lat="40.4619476" lon="19.8516018"><ele>215.0</ele><time>2026-05-03T08:37:07.735Z</time></trkpt><trkpt lat="40.4621391" lon="19.8517195"><ele>215.0</ele><time>2026-05-03T08:37:08.735Z</time></trkpt><trkpt lat="40.4623342" lon="19.8518366"><ele>215.33333333333334</ele><time>2026-05-03T08:37:09.733Z</time></trkpt><trkpt lat="40.4625324" lon="19.8519523"><ele>215.66666666666669</ele><time>2026-05-03T08:37:10.733Z</time></trkpt><trkpt lat="40.4627355" lon="19.8520664"><ele>216.0</ele><time>2026-05-03T08:37:11.735Z</time></trkpt><trkpt lat="40.4629441" lon="19.8521738"><ele>219.0</ele><time>2026-05-03T08:37:12.734Z</time></trkpt><trkpt lat="40.4631561" lon="19.8522816"><ele>222.0</ele><time>2026-05-03T08:37:13.736Z</time></trkpt><trkpt lat="40.4633738" lon="19.8523911"><ele>222.0</ele><time>2026-05-03T08:37:14.734Z</time></trkpt><trkpt lat="40.4635954" lon="19.8524996"><ele>222.0</ele><time>2026-05-03T08:37:15.737Z</time></trkpt><trkpt lat="40.4638181" lon="19.852606"><ele>220.0</ele><time>2026-05-03T08:37:16.735Z</time></trkpt><trkpt lat="40.464037" lon="19.8527136"><ele>218.0</ele><time>2026-05-03T08:37:17.736Z</time></trkpt><trkpt lat="40.4642523" lon="19.8528191"><ele>218.0</ele><time>2026-05-03T08:37:18.735Z</time></trkpt><trkpt lat="40.4644674" lon="19.8529168"><ele>218.0</ele><time>2026-05-03T08:37:19.736Z</time></trkpt><trkpt lat="40.4646827" lon="19.8530011"><ele>219.33333333333334</ele><time>2026-05-03T08:37:20.734Z</time></trkpt><trkpt lat="40.4649014" lon="19.8530701"><ele>220.66666666666669</ele><time>2026-05-03T08:37:21.735Z</time></trkpt><trkpt lat="40.4651203" lon="19.8531337"><ele>222.0</ele><time>2026-05-03T08:37:22.734Z</time></trkpt><trkpt lat="40.4653466" lon="19.8531903"><ele>224.0</ele><time>2026-05-03T08:37:23.735Z</time></trkpt><trkpt lat="40.4655747" lon="19.8532437"><ele>226.0</ele><time>2026-05-03T08:37:24.737Z</time></trkpt><trkpt lat="40.4658016" lon="19.8532938"><ele>226.0</ele><time>2026-05-03T08:37:25.737Z</time></trkpt><trkpt lat="40.4660279" lon="19.8533393"><ele>226.0</ele><time>2026-05-03T08:37:26.735Z</time></trkpt><trkpt lat="40.4662504" lon="19.8533803"><ele>228.66666666666666</ele><time>2026-05-03T08:37:27.737Z</time></trkpt><trkpt lat="40.4664711" lon="19.8534097"><ele>231.33333333333331</ele><time>2026-05-03T08:37:28.734Z</time></trkpt><trkpt lat="40.4666825" lon="19.853423"><ele>234.0</ele><time>2026-05-03T08:37:29.735Z</time></trkpt><trkpt lat="40.4669021" lon="19.8534145"><ele>234.0</ele><time>2026-05-03T08:37:30.735Z</time></trkpt><trkpt lat="40.467124" lon="19.8533779"><ele>234.0</ele><time>2026-05-03T08:37:31.735Z</time></trkpt><trkpt lat="40.4673471" lon="19.8533181"><ele>234.0</ele><time>2026-05-03T08:37:32.735Z</time></trkpt><trkpt lat="40.4675638" lon="19.8532678"><ele>234.0</ele><time>2026-05-03T08:37:33.737Z</time></trkpt><trkpt lat="40.4677766" lon="19.8532224"><ele>234.0</ele><time>2026-05-03T08:37:34.735Z</time></trkpt><trkpt lat="40.4679868" lon="19.8532131"><ele>235.33333333333331</ele><time>2026-05-03T08:37:35.736Z</time></trkpt><trkpt lat="40.4682025" lon="19.8532201"><ele>236.66666666666666</ele><time>2026-05-03T08:37:36.736Z</time></trkpt><trkpt lat="40.4684152" lon="19.8532462"><ele>238.0</ele><time>2026-05-03T08:37:37.735Z</time></trkpt><trkpt lat="40.4686226" lon="19.8532619"><ele>237.66666666666666</ele><time>2026-05-03T08:37:38.735Z</time></trkpt><trkpt lat="40.4688294" lon="19.8532485"><ele>237.33333333333331</ele><time>2026-05-03T08:37:39.73Z</time></trkpt><trkpt lat="40.4690341" lon="19.8532018"><ele>237.0</ele><time>2026-05-03T08:37:40.736Z</time></trkpt><trkpt lat="40.4692341" lon="19.8531217"><ele>237.0</ele><time>2026-05-03T08:37:41.737Z</time></trkpt><trkpt lat="40.4694274" lon="19.8530167"><ele>237.0</ele><time>2026-05-03T08:37:42.736Z</time></trkpt><trkpt lat="40.4696156" lon="19.8529056"><ele>237.0</ele><time>2026-05-03T08:37:43.735Z</time></trkpt><trkpt lat="40.4698051" lon="19.8528101"><ele>237.66666666666669</ele><time>2026-05-03T08:37:44.736Z</time></trkpt><trkpt lat="40.47" lon="19.8527388"><ele>238.33333333333334</ele><time>2026-05-03T08:37:45.735Z</time></trkpt><trkpt lat="40.4702013" lon="19.8527066"><ele>239.0</ele><time>2026-05-03T08:37:46.736Z</time></trkpt><trkpt lat="40.4704093" lon="19.8527069"><ele>238.66666666666669</ele><time>2026-05-03T08:37:47.735Z</time></trkpt><trkpt lat="40.4706138" lon="19.8527307"><ele>238.33333333333331</ele><time>2026-05-03T08:37:48.736Z</time></trkpt><trkpt lat="40.4708145" lon="19.8527456"><ele>238.0</ele><time>2026-05-03T08:37:49.735Z</time></trkpt><trkpt lat="40.4710102" lon="19.8527445"><ele>238.0</ele><time>2026-05-03T08:37:50.734Z</time></trkpt><trkpt lat="40.4711978" lon="19.852708"><ele>238.0</ele><time>2026-05-03T08:37:51.736Z</time></trkpt><trkpt lat="40.4713691" lon="19.8526471"><ele>238.0</ele><time>2026-05-03T08:37:52.736Z</time></trkpt><trkpt lat="40.471533" lon="19.8525614"><ele>245.66666666666666</ele><time>2026-05-03T08:37:53.736Z</time></trkpt><trkpt lat="40.4716866" lon="19.85245"><ele>253.33333333333331</ele><time>2026-05-03T08:37:54.733Z</time></trkpt><trkpt lat="40.4718336" lon="19.8523099"><ele>261.0</ele><time>2026-05-03T08:37:55.734Z</time></trkpt><trkpt lat="40.4719749" lon="19.8521483"><ele>260.3333333333333</ele><time>2026-05-03T08:37:56.732Z</time></trkpt><trkpt lat="40.4721124" lon="19.8519718"><ele>259.66666666666663</ele><time>2026-05-03T08:37:57.735Z</time></trkpt><trkpt lat="40.4722505" lon="19.851807"><ele>259.0</ele><time>2026-05-03T08:37:58.733Z</time></trkpt><trkpt lat="40.4723966" lon="19.8516443"><ele>261.0</ele><time>2026-05-03T08:37:59.734Z</time></trkpt><trkpt lat="40.4725541" lon="19.851488"><ele>263.0</ele><time>2026-05-03T08:38:00.735Z</time></trkpt><trkpt lat="40.4727238" lon="19.8513538"><ele>265.0</ele><time>2026-05-03T08:38:01.735Z</time></trkpt><trkpt lat="40.4729019" lon="19.8512407"><ele>263.0</ele><time>2026-05-03T08:38:02.734Z</time></trkpt><trkpt lat="40.4730881" lon="19.8511567"><ele>261.0</ele><time>2026-05-03T08:38:03.735Z</time></trkpt><trkpt lat="40.4732853" lon="19.8510947"><ele>259.0</ele><time>2026-05-03T08:38:04.735Z</time></trkpt><trkpt lat="40.4734962" lon="19.8510554"><ele>259.0</ele><time>2026-05-03T08:38:05.735Z</time></trkpt><trkpt lat="40.4737005" lon="19.8510547"><ele>259.0</ele><time>2026-05-03T08:38:06.736Z</time></trkpt><trkpt lat="40.4739121" lon="19.851076"><ele>259.0</ele><time>2026-05-03T08:38:07.736Z</time></trkpt><trkpt lat="40.4741258" lon="19.8511149"><ele>260.66666666666663</ele><time>2026-05-03T08:38:08.733Z</time></trkpt><trkpt lat="40.4743384" lon="19.8511653"><ele>262.3333333333333</ele><time>2026-05-03T08:38:09.735Z</time></trkpt><trkpt lat="40.4745495" lon="19.851211"><ele>264.0</ele><time>2026-05-03T08:38:10.736Z</time></trkpt><trkpt lat="40.4747558" lon="19.8512584"><ele>266.3333333333333</ele><time>2026-05-03T08:38:11.731Z</time></trkpt><trkpt lat="40.474957" lon="19.851303"><ele>268.66666666666663</ele><time>2026-05-03T08:38:12.736Z</time></trkpt><trkpt lat="40.4751578" lon="19.8513333"><ele>271.0</ele><time>2026-05-03T08:38:13.734Z</time></trkpt><trkpt lat="40.4753576" lon="19.8513449"><ele>273.0</ele><time>2026-05-03T08:38:14.735Z</time></trkpt><trkpt lat="40.4755644" lon="19.8513433"><ele>275.0</ele><time>2026-05-03T08:38:15.737Z</time></trkpt><trkpt lat="40.4757697" lon="19.8513286"><ele>277.0</ele><time>2026-05-03T08:38:16.735Z</time></trkpt><trkpt lat="40.475972" lon="19.8512972"><ele>277.0</ele><time>2026-05-03T08:38:17.735Z</time></trkpt><trkpt lat="40.4761751" lon="19.851244"><ele>277.0</ele><time>2026-05-03T08:38:18.737Z</time></trkpt><trkpt lat="40.4763795" lon="19.8511747"><ele>277.0</ele><time>2026-05-03T08:38:19.734Z</time></trkpt><trkpt lat="40.4765834" lon="19.8510951"><ele>279.0</ele><time>2026-05-03T08:38:20.736Z</time></trkpt><trkpt lat="40.4767764" lon="19.851006"><ele>281.0</ele><time>2026-05-03T08:38:21.734Z</time></trkpt><trkpt lat="40.4769657" lon="19.8509087"><ele>283.0</ele><time>2026-05-03T08:38:22.736Z</time></trkpt><trkpt lat="40.4771545" lon="19.8508069"><ele>286.66666666666663</ele><time>2026-05-03T08:38:23.735Z</time></trkpt><trkpt lat="40.477341" lon="19.8507015"><ele>290.3333333333333</ele><time>2026-05-03T08:38:24.735Z</time></trkpt><trkpt lat="40.4775244" lon="19.8505965"><ele>294.0</ele><time>2026-05-03T08:38:25.734Z</time></trkpt><trkpt lat="40.4777109" lon="19.8504958"><ele>294.0</ele><time>2026-05-03T08:38:26.736Z</time></trkpt><trkpt lat="40.4778951" lon="19.8503949"><ele>294.0</ele><time>2026-05-03T08:38:27.737Z</time></trkpt><trkpt lat="40.4780764" lon="19.8502934"><ele>294.0</ele><time>2026-05-03T08:38:28.735Z</time></trkpt><trkpt lat="40.4782573" lon="19.8501993"><ele>295.0</ele><time>2026-05-03T08:38:29.736Z</time></trkpt><trkpt lat="40.4784376" lon="19.8500983"><ele>296.0</ele><time>2026-05-03T08:38:30.737Z</time></trkpt><trkpt lat="40.4786121" lon="19.8499839"><ele>297.0</ele><time>2026-05-03T08:38:31.737Z</time></trkpt><trkpt lat="40.4787809" lon="19.8498533"><ele>301.3333333333333</ele><time>2026-05-03T08:38:32.734Z</time></trkpt><trkpt lat="40.4789435" lon="19.8497162"><ele>305.66666666666663</ele><time>2026-05-03T08:38:33.734Z</time></trkpt><trkpt lat="40.4790997" lon="19.8495637"><ele>310.0</ele><time>2026-05-03T08:38:34.736Z</time></trkpt><trkpt lat="40.4792443" lon="19.8493977"><ele>310.0</ele><time>2026-05-03T08:38:35.737Z</time></trkpt><trkpt lat="40.4793741" lon="19.8492158"><ele>310.0</ele><time>2026-05-03T08:38:36.736Z</time></trkpt><trkpt lat="40.479495" lon="19.8490122"><ele>310.0</ele><time>2026-05-03T08:38:37.735Z</time></trkpt><trkpt lat="40.4796033" lon="19.8487964"><ele>314.66666666666663</ele><time>2026-05-03T08:38:38.734Z</time></trkpt><trkpt lat="40.4796922" lon="19.848568"><ele>319.3333333333333</ele><time>2026-05-03T08:38:39.736Z</time></trkpt><trkpt lat="40.4797689" lon="19.8483389"><ele>324.0</ele><time>2026-05-03T08:38:40.734Z</time></trkpt><trkpt lat="40.4798293" lon="19.8480974"><ele>324.0</ele><time>2026-05-03T08:38:41.736Z</time></trkpt><trkpt lat="40.4798805" lon="19.8478401"><ele>324.0</ele><time>2026-05-03T08:38:42.737Z</time></trkpt><trkpt lat="40.4799198" lon="19.8475785"><ele>324.0</ele><time>2026-05-03T08:38:43.735Z</time></trkpt><trkpt lat="40.4799536" lon="19.8473147"><ele>325.0</ele><time>2026-05-03T08:38:44.736Z</time></trkpt><trkpt lat="40.4799767" lon="19.847045"><ele>326.0</ele><time>2026-05-03T08:38:45.734Z</time></trkpt><trkpt lat="40.4799889" lon="19.8467719"><ele>327.0</ele><time>2026-05-03T08:38:46.737Z</time></trkpt><trkpt lat="40.4800007" lon="19.8465"><ele>327.3333333333333</ele><time>2026-05-03T08:38:47.735Z</time></trkpt><trkpt lat="40.4800103" lon="19.846227"><ele>327.66666666666663</ele><time>2026-05-03T08:38:48.737Z</time></trkpt><trkpt lat="40.4800219" lon="19.8459534"><ele>328.0</ele><time>2026-05-03T08:38:49.733Z</time></trkpt><trkpt lat="40.4800334" lon="19.8456811"><ele>330.0</ele><time>2026-05-03T08:38:50.732Z</time></trkpt><trkpt lat="40.4800506" lon="19.845409"><ele>332.0</ele><time>2026-05-03T08:38:51.732Z</time></trkpt><trkpt lat="40.4800635" lon="19.8451404"><ele>334.0</ele><time>2026-05-03T08:38:52.732Z</time></trkpt><trkpt lat="40.4800846" lon="19.8448749"><ele>336.0</ele><time>2026-05-03T08:38:53.734Z</time></trkpt><trkpt lat="40.4801081" lon="19.8446105"><ele>338.0</ele><time>2026-05-03T08:38:54.733Z</time></trkpt><trkpt lat="40.4801408" lon="19.8443462"><ele>340.0</ele><time>2026-05-03T08:38:55.731Z</time></trkpt><trkpt lat="40.4801844" lon="19.8440805"><ele>341.0</ele><time>2026-05-03T08:38:56.734Z</time></trkpt><trkpt lat="40.4802438" lon="19.8438165"><ele>342.0</ele><time>2026-05-03T08:38:57.734Z</time></trkpt><trkpt lat="40.4803101" lon="19.8435652"><ele>343.0</ele><time>2026-05-03T08:38:58.735Z</time></trkpt><trkpt lat="40.4803842" lon="19.8433203"><ele>346.0</ele><time>2026-05-03T08:38:59.735Z</time></trkpt><trkpt lat="40.4804715" lon="19.8430805"><ele>349.0</ele><time>2026-05-03T08:39:00.734Z</time></trkpt><trkpt lat="40.4805687" lon="19.8428497"><ele>352.0</ele><time>2026-05-03T08:39:01.733Z</time></trkpt><trkpt lat="40.4806701" lon="19.8426281"><ele>352.0</ele><time>2026-05-03T08:39:02.736Z</time></trkpt><trkpt lat="40.4807803" lon="19.8424147"><ele>352.0</ele><time>2026-05-03T08:39:03.735Z</time></trkpt><trkpt lat="40.4808986" lon="19.8422138"><ele>352.0</ele><time>2026-05-03T08:39:04.736Z</time></trkpt><trkpt lat="40.4810302" lon="19.8420204"><ele>352.0</ele><time>2026-05-03T08:39:05.736Z</time></trkpt><trkpt lat="40.4811709" lon="19.8418343"><ele>352.0</ele><time>2026-05-03T08:39:06.736Z</time></trkpt><trkpt lat="40.4813212" lon="19.841655"><ele>352.0</ele><time>2026-05-03T08:39:07.736Z</time></trkpt><trkpt lat="40.4814798" lon="19.8414847"><ele>356.0</ele><time>2026-05-03T08:39:08.734Z</time></trkpt><trkpt lat="40.4816471" lon="19.8413271"><ele>360.0</ele><time>2026-05-03T08:39:09.732Z</time></trkpt><trkpt lat="40.4818201" lon="19.841182"><ele>364.0</ele><time>2026-05-03T08:39:10.735Z</time></trkpt><trkpt lat="40.4819984" lon="19.8410488"><ele>368.0</ele><time>2026-05-03T08:39:11.735Z</time></trkpt><trkpt lat="40.4821829" lon="19.8409334"><ele>372.0</ele><time>2026-05-03T08:39:12.736Z</time></trkpt><trkpt lat="40.4823671" lon="19.8408347"><ele>376.0</ele><time>2026-05-03T08:39:13.736Z</time></trkpt><trkpt lat="40.4825596" lon="19.8407444"><ele>376.0</ele><time>2026-05-03T08:39:14.735Z</time></trkpt><trkpt lat="40.4827524" lon="19.8406702"><ele>376.0</ele><time>2026-05-03T08:39:15.736Z</time></trkpt><trkpt lat="40.4829503" lon="19.8406131"><ele>376.0</ele><time>2026-05-03T08:39:16.734Z</time></trkpt><trkpt lat="40.483152" lon="19.8405624"><ele>379.66666666666663</ele><time>2026-05-03T08:39:17.735Z</time></trkpt><trkpt lat="40.4833528" lon="19.8405282"><ele>383.3333333333333</ele><time>2026-05-03T08:39:18.735Z</time></trkpt><trkpt lat="40.4835561" lon="19.8404987"><ele>387.0</ele><time>2026-05-03T08:39:19.735Z</time></trkpt><trkpt lat="40.483758" lon="19.8404698"><ele>389.33333333333337</ele><time>2026-05-03T08:39:20.734Z</time></trkpt><trkpt lat="40.4839619" lon="19.8404389"><ele>391.6666666666667</ele><time>2026-05-03T08:39:21.734Z</time></trkpt><trkpt lat="40.4841606" lon="19.8404071"><ele>394.0</ele><time>2026-05-03T08:39:22.735Z</time></trkpt><trkpt lat="40.4843578" lon="19.8403674"><ele>394.0</ele><time>2026-05-03T08:39:23.734Z</time></trkpt><trkpt lat="40.4845542" lon="19.8403211"><ele>394.0</ele><time>2026-05-03T08:39:24.736Z</time></trkpt><trkpt lat="40.4847523" lon="19.8402692"><ele>394.0</ele><time>2026-05-03T08:39:25.735Z</time></trkpt><trkpt lat="40.48495" lon="19.8402154"><ele>396.0</ele><time>2026-05-03T08:39:26.734Z</time></trkpt><trkpt lat="40.4851479" lon="19.8401719"><ele>398.0</ele><time>2026-05-03T08:39:27.736Z</time></trkpt><trkpt lat="40.4853475" lon="19.8401328"><ele>400.0</ele><time>2026-05-03T08:39:28.735Z</time></trkpt><trkpt lat="40.4855468" lon="19.8401076"><ele>400.0</ele><time>2026-05-03T08:39:29.734Z</time></trkpt><trkpt lat="40.4857471" lon="19.8400876"><ele>400.0</ele><time>2026-05-03T08:39:30.737Z</time></trkpt><trkpt lat="40.4859425" lon="19.8400807"><ele>400.0</ele><time>2026-05-03T08:39:31.73Z</time></trkpt><trkpt lat="40.4861425" lon="19.8400806"><ele>398.6666666666667</ele><time>2026-05-03T08:39:32.733Z</time></trkpt><trkpt lat="40.4863405" lon="19.8400908"><ele>397.33333333333337</ele><time>2026-05-03T08:39:33.733Z</time></trkpt><trkpt lat="40.4865346" lon="19.8401093"><ele>396.0</ele><time>2026-05-03T08:39:34.733Z</time></trkpt><trkpt lat="40.4867265" lon="19.840131"><ele>400.0</ele><time>2026-05-03T08:39:35.734Z</time></trkpt><trkpt lat="40.4869172" lon="19.8401602"><ele>404.0</ele><time>2026-05-03T08:39:36.733Z</time></trkpt><trkpt lat="40.4871043" lon="19.8401962"><ele>408.0</ele><time>2026-05-03T08:39:37.735Z</time></trkpt><trkpt lat="40.4872898" lon="19.840243"><ele>409.0</ele><time>2026-05-03T08:39:38.733Z</time></trkpt><trkpt lat="40.4874758" lon="19.8402812"><ele>410.0</ele><time>2026-05-03T08:39:39.732Z</time></trkpt><trkpt lat="40.4876608" lon="19.8403233"><ele>411.0</ele><time>2026-05-03T08:39:40.734Z</time></trkpt><trkpt lat="40.4878493" lon="19.840366"><ele>411.0</ele><time>2026-05-03T08:39:41.73Z</time></trkpt><trkpt lat="40.4880324" lon="19.8404067"><ele>411.0</ele><time>2026-05-03T08:39:42.733Z</time></trkpt><trkpt lat="40.4882145" lon="19.8404409"><ele>411.0</ele><time>2026-05-03T08:39:43.733Z</time></trkpt><trkpt lat="40.4883943" lon="19.8404617"><ele>411.0</ele><time>2026-05-03T08:39:44.734Z</time></trkpt><trkpt lat="40.4885761" lon="19.8404627"><ele>411.0</ele><time>2026-05-03T08:39:45.732Z</time></trkpt><trkpt lat="40.4887643" lon="19.8404464"><ele>411.0</ele><time>2026-05-03T08:39:46.733Z</time></trkpt><trkpt lat="40.4889535" lon="19.8404175"><ele>407.0</ele><time>2026-05-03T08:39:47.735Z</time></trkpt><trkpt lat="40.4891467" lon="19.8403762"><ele>403.0</ele><time>2026-05-03T08:39:48.734Z</time></trkpt><trkpt lat="40.4893411" lon="19.8403257"><ele>399.0</ele><time>2026-05-03T08:39:49.735Z</time></trkpt><trkpt lat="40.4895321" lon="19.8402715"><ele>399.0</ele><time>2026-05-03T08:39:50.733Z</time></trkpt><trkpt lat="40.4897236" lon="19.8402328"><ele>399.0</ele><time>2026-05-03T08:39:51.734Z</time></trkpt><trkpt lat="40.4899099" lon="19.8401964"><ele>399.0</ele><time>2026-05-03T08:39:52.736Z</time></trkpt><trkpt lat="40.4900952" lon="19.8401552"><ele>404.33333333333337</ele><time>2026-05-03T08:39:53.734Z</time></trkpt><trkpt lat="40.4902803" lon="19.8401229"><ele>409.6666666666667</ele><time>2026-05-03T08:39:54.735Z</time></trkpt><trkpt lat="40.4904648" lon="19.840101"><ele>415.0</ele><time>2026-05-03T08:39:55.733Z</time></trkpt><trkpt lat="40.4906484" lon="19.8400809"><ele>416.6666666666667</ele><time>2026-05-03T08:39:56.734Z</time></trkpt><trkpt lat="40.4908361" lon="19.8400642"><ele>418.33333333333337</ele><time>2026-05-03T08:39:57.735Z</time></trkpt><trkpt lat="40.4910244" lon="19.8400534"><ele>420.0</ele><time>2026-05-03T08:39:58.733Z</time></trkpt><trkpt lat="40.4912153" lon="19.840038"><ele>422.0</ele><time>2026-05-03T08:39:59.735Z</time></trkpt><trkpt lat="40.4914085" lon="19.8400232"><ele>424.0</ele><time>2026-05-03T08:40:00.735Z</time></trkpt><trkpt lat="40.491601" lon="19.8399985"><ele>426.0</ele><time>2026-05-03T08:40:01.733Z</time></trkpt><trkpt lat="40.4917929" lon="19.839964"><ele>426.0</ele><time>2026-05-03T08:40:02.734Z</time></trkpt><trkpt lat="40.4919825" lon="19.839925"><ele>426.0</ele><time>2026-05-03T08:40:03.735Z</time></trkpt><trkpt lat="40.4921626" lon="19.8398898"><ele>426.0</ele><time>2026-05-03T08:40:04.732Z</time></trkpt><trkpt lat="40.4923429" lon="19.8398668"><ele>420.0</ele><time>2026-05-03T08:40:05.734Z</time></trkpt><trkpt lat="40.4925222" lon="19.8398428"><ele>414.0</ele><time>2026-05-03T08:40:06.733Z</time></trkpt><trkpt lat="40.4927005" lon="19.8398063"><ele>408.0</ele><time>2026-05-03T08:40:07.734Z</time></trkpt><trkpt lat="40.4928807" lon="19.8397473"><ele>401.33333333333337</ele><time>2026-05-03T08:40:08.735Z</time></trkpt><trkpt lat="40.4930573" lon="19.8396595"><ele>394.6666666666667</ele><time>2026-05-03T08:40:09.732Z</time></trkpt><trkpt lat="40.4932268" lon="19.8395488"><ele>388.0</ele><time>2026-05-03T08:40:10.735Z</time></trkpt><trkpt lat="40.4933861" lon="19.8394151"><ele>386.0</ele><time>2026-05-03T08:40:11.735Z</time></trkpt><trkpt lat="40.4935329" lon="19.8392561"><ele>384.0</ele><time>2026-05-03T08:40:12.732Z</time></trkpt><trkpt lat="40.493661" lon="19.8390689"><ele>382.0</ele><time>2026-05-03T08:40:13.737Z</time></trkpt><trkpt lat="40.4937717" lon="19.838865"><ele>382.0</ele><time>2026-05-03T08:40:14.735Z</time></trkpt><trkpt lat="40.493864" lon="19.8386462"><ele>382.0</ele><time>2026-05-03T08:40:15.735Z</time></trkpt><trkpt lat="40.4939346" lon="19.8384127"><ele>382.0</ele><time>2026-05-03T08:40:16.734Z</time></trkpt><trkpt lat="40.4939838" lon="19.8381701"><ele>381.0</ele><time>2026-05-03T08:40:17.736Z</time></trkpt><trkpt lat="40.4940062" lon="19.8379087"><ele>380.0</ele><time>2026-05-03T08:40:18.733Z</time></trkpt><trkpt lat="40.4940067" lon="19.8376567"><ele>379.0</ele><time>2026-05-03T08:40:19.736Z</time></trkpt><trkpt lat="40.4939806" lon="19.8374006"><ele>379.0</ele><time>2026-05-03T08:40:20.736Z</time></trkpt><trkpt lat="40.4939255" lon="19.8371447"><ele>379.0</ele><time>2026-05-03T08:40:21.733Z</time></trkpt><trkpt lat="40.4938564" lon="19.8368892"><ele>379.0</ele><time>2026-05-03T08:40:22.737Z</time></trkpt><trkpt lat="40.493756" lon="19.8366442"><ele>378.3333333333333</ele><time>2026-05-03T08:40:23.734Z</time></trkpt><trkpt lat="40.4936276" lon="19.8364085"><ele>377.6666666666667</ele><time>2026-05-03T08:40:24.734Z</time></trkpt><trkpt lat="40.493485" lon="19.8361748"><ele>377.0</ele><time>2026-05-03T08:40:25.733Z</time></trkpt><trkpt lat="40.4933363" lon="19.8359395"><ele>377.0</ele><time>2026-05-03T08:40:26.733Z</time></trkpt><trkpt lat="40.493183" lon="19.8357066"><ele>377.0</ele><time>2026-05-03T08:40:27.736Z</time></trkpt><trkpt lat="40.4930393" lon="19.8354764"><ele>380.0</ele><time>2026-05-03T08:40:28.734Z</time></trkpt><trkpt lat="40.492903" lon="19.8352456"><ele>383.0</ele><time>2026-05-03T08:40:29.736Z</time></trkpt><trkpt lat="40.4927726" lon="19.8350127"><ele>386.0</ele><time>2026-05-03T08:40:30.734Z</time></trkpt><trkpt lat="40.4926567" lon="19.8347687"><ele>379.0</ele><time>2026-05-03T08:40:31.734Z</time></trkpt><trkpt lat="40.4925567" lon="19.8345145"><ele>372.0</ele><time>2026-05-03T08:40:32.734Z</time></trkpt><trkpt lat="40.4924687" lon="19.834253"><ele>365.0</ele><time>2026-05-03T08:40:33.735Z</time></trkpt><trkpt lat="40.4923993" lon="19.8339871"><ele>361.0</ele><time>2026-05-03T08:40:34.731Z</time></trkpt><trkpt lat="40.4923501" lon="19.8337207"><ele>357.0</ele><time>2026-05-03T08:40:35.735Z</time></trkpt><trkpt lat="40.492319" lon="19.8334526"><ele>353.0</ele><time>2026-05-03T08:40:36.736Z</time></trkpt><trkpt lat="40.492302" lon="19.8331869"><ele>352.0</ele><time>2026-05-03T08:40:37.737Z</time></trkpt><trkpt lat="40.4922996" lon="19.8329272"><ele>351.0</ele><time>2026-05-03T08:40:38.734Z</time></trkpt><trkpt lat="40.4923121" lon="19.8326711"><ele>350.0</ele><time>2026-05-03T08:40:39.734Z</time></trkpt><trkpt lat="40.4923375" lon="19.8324165"><ele>350.0</ele><time>2026-05-03T08:40:40.736Z</time></trkpt><trkpt lat="40.4923771" lon="19.8321648"><ele>350.0</ele><time>2026-05-03T08:40:41.732Z</time></trkpt><trkpt lat="40.4924315" lon="19.8319165"><ele>350.0</ele><time>2026-05-03T08:40:42.734Z</time></trkpt><trkpt lat="40.4924983" lon="19.8316656"><ele>347.6666666666667</ele><time>2026-05-03T08:40:43.734Z</time></trkpt><trkpt lat="40.4925804" lon="19.8314219"><ele>345.3333333333333</ele><time>2026-05-03T08:40:44.734Z</time></trkpt><trkpt lat="40.4926823" lon="19.8311841"><ele>343.0</ele><time>2026-05-03T08:40:45.732Z</time></trkpt><trkpt lat="40.4928007" lon="19.8309536"><ele>337.3333333333333</ele><time>2026-05-03T08:40:46.736Z</time></trkpt><trkpt lat="40.4929316" lon="19.8307315"><ele>331.6666666666667</ele><time>2026-05-03T08:40:47.736Z</time></trkpt><trkpt lat="40.4930751" lon="19.8305188"><ele>326.0</ele><time>2026-05-03T08:40:48.735Z</time></trkpt><trkpt lat="40.4932333" lon="19.8303215"><ele>323.6666666666667</ele><time>2026-05-03T08:40:49.734Z</time></trkpt><trkpt lat="40.493407" lon="19.8301381"><ele>321.3333333333333</ele><time>2026-05-03T08:40:50.735Z</time></trkpt><trkpt lat="40.4935925" lon="19.8299668"><ele>319.0</ele><time>2026-05-03T08:40:51.733Z</time></trkpt><trkpt lat="40.4937844" lon="19.8298034"><ele>319.0</ele><time>2026-05-03T08:40:52.734Z</time></trkpt><trkpt lat="40.4939795" lon="19.8296411"><ele>319.0</ele><time>2026-05-03T08:40:53.733Z</time></trkpt><trkpt lat="40.4941708" lon="19.8294774"><ele>319.0</ele><time>2026-05-03T08:40:54.736Z</time></trkpt><trkpt lat="40.4943598" lon="19.8293091"><ele>319.0</ele><time>2026-05-03T08:40:55.734Z</time></trkpt><trkpt lat="40.4945428" lon="19.8291303"><ele>314.0</ele><time>2026-05-03T08:40:56.733Z</time></trkpt><trkpt lat="40.4947166" lon="19.8289376"><ele>309.0</ele><time>2026-05-03T08:40:57.733Z</time></trkpt><trkpt lat="40.4948806" lon="19.8287331"><ele>309.0</ele><time>2026-05-03T08:40:58.734Z</time></trkpt><trkpt lat="40.4950336" lon="19.8285155"><ele>309.0</ele><time>2026-05-03T08:40:59.734Z</time></trkpt><trkpt lat="40.4951726" lon="19.8282878"><ele>309.0</ele><time>2026-05-03T08:41:00.736Z</time></trkpt><trkpt lat="40.4953013" lon="19.828053"><ele>309.0</ele><time>2026-05-03T08:41:01.734Z</time></trkpt><trkpt lat="40.4954201" lon="19.8278117"><ele>309.0</ele><time>2026-05-03T08:41:02.734Z</time></trkpt><trkpt lat="40.4955302" lon="19.8275649"><ele>309.0</ele><time>2026-05-03T08:41:03.736Z</time></trkpt><trkpt lat="40.4956267" lon="19.8273073"><ele>309.0</ele><time>2026-05-03T08:41:04.732Z</time></trkpt><trkpt lat="40.4957197" lon="19.8270479"><ele>309.0</ele><time>2026-05-03T08:41:05.735Z</time></trkpt><trkpt lat="40.4958134" lon="19.8267851"><ele>309.0</ele><time>2026-05-03T08:41:06.734Z</time></trkpt><trkpt lat="40.4959038" lon="19.8265173"><ele>309.0</ele><time>2026-05-03T08:41:07.735Z</time></trkpt><trkpt lat="40.4959973" lon="19.8262504"><ele>309.0</ele><time>2026-05-03T08:41:08.735Z</time></trkpt><trkpt lat="40.49609" lon="19.8259811"><ele>309.0</ele><time>2026-05-03T08:41:09.732Z</time></trkpt><trkpt lat="40.4961819" lon="19.8257132"><ele>305.0</ele><time>2026-05-03T08:41:10.731Z</time></trkpt><trkpt lat="40.4962722" lon="19.8254519"><ele>301.0</ele><time>2026-05-03T08:41:11.735Z</time></trkpt><trkpt lat="40.4963643" lon="19.8251983"><ele>297.0</ele><time>2026-05-03T08:41:12.732Z</time></trkpt><trkpt lat="40.4964627" lon="19.8249561"><ele>296.3333333333333</ele><time>2026-05-03T08:41:13.731Z</time></trkpt><trkpt lat="40.4965697" lon="19.8247248"><ele>295.66666666666663</ele><time>2026-05-03T08:41:14.734Z</time></trkpt><trkpt lat="40.4966805" lon="19.8244987"><ele>295.0</ele><time>2026-05-03T08:41:15.736Z</time></trkpt><trkpt lat="40.4967944" lon="19.8242813"><ele>293.66666666666663</ele><time>2026-05-03T08:41:16.735Z</time></trkpt><trkpt lat="40.4969118" lon="19.8240743"><ele>292.3333333333333</ele><time>2026-05-03T08:41:17.734Z</time></trkpt><trkpt lat="40.4970308" lon="19.8238747"><ele>291.0</ele><time>2026-05-03T08:41:18.73Z</time></trkpt><trkpt lat="40.497152" lon="19.8236838"><ele>290.6666666666667</ele><time>2026-05-03T08:41:19.734Z</time></trkpt><trkpt lat="40.4972791" lon="19.8234999"><ele>290.33333333333337</ele><time>2026-05-03T08:41:20.733Z</time></trkpt><trkpt lat="40.4974056" lon="19.8233171"><ele>290.0</ele><time>2026-05-03T08:41:21.737Z</time></trkpt><trkpt lat="40.4975289" lon="19.8231333"><ele>289.6666666666667</ele><time>2026-05-03T08:41:22.733Z</time></trkpt><trkpt lat="40.4976497" lon="19.8229438"><ele>289.3333333333333</ele><time>2026-05-03T08:41:23.735Z</time></trkpt><trkpt lat="40.497778" lon="19.8227616"><ele>289.0</ele><time>2026-05-03T08:41:24.734Z</time></trkpt><trkpt lat="40.4979043" lon="19.8225687"><ele>289.0</ele><time>2026-05-03T08:41:25.735Z</time></trkpt><trkpt lat="40.4980305" lon="19.8223803"><ele>289.0</ele><time>2026-05-03T08:41:26.737Z</time></trkpt><trkpt lat="40.4981563" lon="19.8221885"><ele>289.0</ele><time>2026-05-03T08:41:27.736Z</time></trkpt><trkpt lat="40.4982812" lon="19.8219916"><ele>288.3333333333333</ele><time>2026-05-03T08:41:28.737Z</time></trkpt><trkpt lat="40.4984085" lon="19.821796"><ele>287.6666666666667</ele><time>2026-05-03T08:41:29.737Z</time></trkpt><trkpt lat="40.4985262" lon="19.8215992"><ele>287.0</ele><time>2026-05-03T08:41:30.735Z</time></trkpt><trkpt lat="40.4986586" lon="19.8214055"><ele>287.6666666666667</ele><time>2026-05-03T08:41:31.734Z</time></trkpt><trkpt lat="40.4987844" lon="19.8211982"><ele>288.3333333333333</ele><time>2026-05-03T08:41:32.733Z</time></trkpt><trkpt lat="40.4989275" lon="19.8210079"><ele>289.0</ele><time>2026-05-03T08:41:33.733Z</time></trkpt><trkpt lat="40.4990547" lon="19.8208084"><ele>289.0</ele><time>2026-05-03T08:41:34.736Z</time></trkpt><trkpt lat="40.4991855" lon="19.8206173"><ele>289.0</ele><time>2026-05-03T08:41:35.735Z</time></trkpt><trkpt lat="40.4993136" lon="19.8204261"><ele>289.0</ele><time>2026-05-03T08:41:36.731Z</time></trkpt><trkpt lat="40.4994428" lon="19.820233"><ele>288.0</ele><time>2026-05-03T08:41:37.733Z</time></trkpt><trkpt lat="40.4995733" lon="19.8200367"><ele>287.0</ele><time>2026-05-03T08:41:38.735Z</time></trkpt><trkpt lat="40.4997056" lon="19.8198397"><ele>286.0</ele><time>2026-05-03T08:41:39.732Z</time></trkpt><trkpt lat="40.4998374" lon="19.8196384"><ele>286.0</ele><time>2026-05-03T08:41:40.732Z</time></trkpt><trkpt lat="40.4999692" lon="19.8194391"><ele>286.0</ele><time>2026-05-03T08:41:41.734Z</time></trkpt><trkpt lat="40.5000991" lon="19.8192404"><ele>286.0</ele><time>2026-05-03T08:41:42.733Z</time></trkpt><trkpt lat="40.5002253" lon="19.8190435"><ele>286.0</ele><time>2026-05-03T08:41:43.735Z</time></trkpt><trkpt lat="40.5003479" lon="19.81885"><ele>286.0</ele><time>2026-05-03T08:41:44.734Z</time></trkpt><trkpt lat="40.5004709" lon="19.8186559"><ele>286.0</ele><time>2026-05-03T08:41:45.735Z</time></trkpt><trkpt lat="40.5005927" lon="19.8184596"><ele>285.66666666666663</ele><time>2026-05-03T08:41:46.733Z</time></trkpt><trkpt lat="40.5007152" lon="19.8182634"><ele>285.3333333333333</ele><time>2026-05-03T08:41:47.732Z</time></trkpt><trkpt lat="40.5008357" lon="19.8180689"><ele>285.0</ele><time>2026-05-03T08:41:48.735Z</time></trkpt><trkpt lat="40.5009541" lon="19.817874"><ele>285.0</ele><time>2026-05-03T08:41:49.734Z</time></trkpt><trkpt lat="40.5010719" lon="19.8176751"><ele>285.0</ele><time>2026-05-03T08:41:50.733Z</time></trkpt><trkpt lat="40.5011941" lon="19.8174743"><ele>285.0</ele><time>2026-05-03T08:41:51.733Z</time></trkpt><trkpt lat="40.5013189" lon="19.817272"><ele>285.6666666666667</ele><time>2026-05-03T08:41:52.733Z</time></trkpt><trkpt lat="40.5014447" lon="19.8170639"><ele>286.33333333333337</ele><time>2026-05-03T08:41:53.734Z</time></trkpt><trkpt lat="40.501574" lon="19.816854"><ele>287.0</ele><time>2026-05-03T08:41:54.734Z</time></trkpt><trkpt lat="40.5017055" lon="19.8166445"><ele>289.33333333333337</ele><time>2026-05-03T08:41:55.736Z</time></trkpt><trkpt lat="40.5018375" lon="19.8164326"><ele>291.6666666666667</ele><time>2026-05-03T08:41:56.735Z</time></trkpt><trkpt lat="40.5019642" lon="19.8162219"><ele>294.0</ele><time>2026-05-03T08:41:57.735Z</time></trkpt><trkpt lat="40.5020932" lon="19.8160068"><ele>289.0</ele><time>2026-05-03T08:41:58.734Z</time></trkpt><trkpt lat="40.5022201" lon="19.8157883"><ele>284.0</ele><time>2026-05-03T08:41:59.736Z</time></trkpt><trkpt lat="40.5023443" lon="19.8155709"><ele>279.0</ele><time>2026-05-03T08:42:00.731Z</time></trkpt><trkpt lat="40.5024683" lon="19.8153549"><ele>277.0</ele><time>2026-05-03T08:42:01.736Z</time></trkpt><trkpt lat="40.5025956" lon="19.8151393"><ele>275.0</ele><time>2026-05-03T08:42:02.732Z</time></trkpt><trkpt lat="40.5027227" lon="19.8149265"><ele>273.0</ele><time>2026-05-03T08:42:03.737Z</time></trkpt><trkpt lat="40.5028496" lon="19.8147132"><ele>274.0</ele><time>2026-05-03T08:42:04.731Z</time></trkpt><trkpt lat="40.5029761" lon="19.8145005"><ele>275.0</ele><time>2026-05-03T08:42:05.735Z</time></trkpt><trkpt lat="40.5030999" lon="19.814287"><ele>276.0</ele><time>2026-05-03T08:42:06.732Z</time></trkpt><trkpt lat="40.503227" lon="19.8140751"><ele>276.0</ele><time>2026-05-03T08:42:07.732Z</time></trkpt><trkpt lat="40.5033548" lon="19.8138613"><ele>276.0</ele><time>2026-05-03T08:42:08.732Z</time></trkpt><trkpt lat="40.5034852" lon="19.8136511"><ele>276.0</ele><time>2026-05-03T08:42:09.732Z</time></trkpt><trkpt lat="40.5036153" lon="19.8134427"><ele>274.0</ele><time>2026-05-03T08:42:10.733Z</time></trkpt><trkpt lat="40.5037414" lon="19.8132355"><ele>272.0</ele><time>2026-05-03T08:42:11.733Z</time></trkpt><trkpt lat="40.5038649" lon="19.8130292"><ele>270.0</ele><time>2026-05-03T08:42:12.733Z</time></trkpt><trkpt lat="40.5039876" lon="19.812825"><ele>272.6666666666667</ele><time>2026-05-03T08:42:13.735Z</time></trkpt><trkpt lat="40.5041131" lon="19.812618"><ele>275.33333333333337</ele><time>2026-05-03T08:42:14.733Z</time></trkpt><trkpt lat="40.5042353" lon="19.8124115"><ele>278.0</ele><time>2026-05-03T08:42:15.733Z</time></trkpt><trkpt lat="40.5043587" lon="19.8121992"><ele>278.0</ele><time>2026-05-03T08:42:16.736Z</time></trkpt><trkpt lat="40.5044848" lon="19.8119875"><ele>278.0</ele><time>2026-05-03T08:42:17.734Z</time></trkpt><trkpt lat="40.5046152" lon="19.8117827"><ele>278.0</ele><time>2026-05-03T08:42:18.732Z</time></trkpt><trkpt lat="40.5047547" lon="19.8115835"><ele>279.6666666666667</ele><time>2026-05-03T08:42:19.737Z</time></trkpt><trkpt lat="40.5048923" lon="19.8113921"><ele>281.3333333333333</ele><time>2026-05-03T08:42:20.734Z</time></trkpt><trkpt lat="40.5050316" lon="19.8112024"><ele>283.0</ele><time>2026-05-03T08:42:21.734Z</time></trkpt><trkpt lat="40.505178" lon="19.8110099"><ele>283.66666666666663</ele><time>2026-05-03T08:42:22.733Z</time></trkpt><trkpt lat="40.5053237" lon="19.8108325"><ele>284.3333333333333</ele><time>2026-05-03T08:42:23.734Z</time></trkpt><trkpt lat="40.505485" lon="19.8106634"><ele>285.0</ele><time>2026-05-03T08:42:24.735Z</time></trkpt><trkpt lat="40.5056349" lon="19.8104968"><ele>285.0</ele><time>2026-05-03T08:42:25.734Z</time></trkpt><trkpt lat="40.505788" lon="19.8103338"><ele>285.0</ele><time>2026-05-03T08:42:26.732Z</time></trkpt><trkpt lat="40.5059436" lon="19.8101763"><ele>285.0</ele><time>2026-05-03T08:42:27.734Z</time></trkpt><trkpt lat="40.5061012" lon="19.8100261"><ele>283.3333333333333</ele><time>2026-05-03T08:42:28.734Z</time></trkpt><trkpt lat="40.5062621" lon="19.8098834"><ele>281.66666666666663</ele><time>2026-05-03T08:42:29.732Z</time></trkpt><trkpt lat="40.5064262" lon="19.8097468"><ele>280.0</ele><time>2026-05-03T08:42:30.733Z</time></trkpt><trkpt lat="40.5065908" lon="19.8096083"><ele>280.0</ele><time>2026-05-03T08:42:31.736Z</time></trkpt><trkpt lat="40.5067567" lon="19.8094802"><ele>280.0</ele><time>2026-05-03T08:42:32.733Z</time></trkpt><trkpt lat="40.5069255" lon="19.809356"><ele>280.0</ele><time>2026-05-03T08:42:33.732Z</time></trkpt><trkpt lat="40.507095" lon="19.8092363"><ele>275.66666666666663</ele><time>2026-05-03T08:42:34.733Z</time></trkpt><trkpt lat="40.5072675" lon="19.8091233"><ele>271.3333333333333</ele><time>2026-05-03T08:42:35.733Z</time></trkpt><trkpt lat="40.5074435" lon="19.8090145"><ele>267.0</ele><time>2026-05-03T08:42:36.733Z</time></trkpt><trkpt lat="40.5076212" lon="19.8089101"><ele>267.0</ele><time>2026-05-03T08:42:37.733Z</time></trkpt><trkpt lat="40.5077977" lon="19.8088053"><ele>267.0</ele><time>2026-05-03T08:42:38.73Z</time></trkpt><trkpt lat="40.5079749" lon="19.808702"><ele>267.0</ele><time>2026-05-03T08:42:39.732Z</time></trkpt><trkpt lat="40.5081521" lon="19.8085956"><ele>264.6666666666667</ele><time>2026-05-03T08:42:40.735Z</time></trkpt><trkpt lat="40.5083279" lon="19.8084924"><ele>262.33333333333337</ele><time>2026-05-03T08:42:41.736Z</time></trkpt><trkpt lat="40.5085019" lon="19.8083895"><ele>260.0</ele><time>2026-05-03T08:42:42.735Z</time></trkpt><trkpt lat="40.5086692" lon="19.8082918"><ele>260.0</ele><time>2026-05-03T08:42:43.733Z</time></trkpt><trkpt lat="40.50883" lon="19.8082022"><ele>260.0</ele><time>2026-05-03T08:42:44.734Z</time></trkpt><trkpt lat="40.5089884" lon="19.8081144"><ele>260.0</ele><time>2026-05-03T08:42:45.735Z</time></trkpt><trkpt lat="40.5091421" lon="19.808026"><ele>260.0</ele><time>2026-05-03T08:42:46.733Z</time></trkpt><trkpt lat="40.50929" lon="19.8079384"><ele>260.0</ele><time>2026-05-03T08:42:47.735Z</time></trkpt><trkpt lat="40.5094326" lon="19.8078474"><ele>260.0</ele><time>2026-05-03T08:42:48.732Z</time></trkpt><trkpt lat="40.5095686" lon="19.8077513"><ele>258.6666666666667</ele><time>2026-05-03T08:42:49.736Z</time></trkpt><trkpt lat="40.5096991" lon="19.8076486"><ele>257.3333333333333</ele><time>2026-05-03T08:42:50.733Z</time></trkpt><trkpt lat="40.5098226" lon="19.8075342"><ele>256.0</ele><time>2026-05-03T08:42:51.733Z</time></trkpt><trkpt lat="40.5099382" lon="19.8074034"><ele>256.0</ele><time>2026-05-03T08:42:52.734Z</time></trkpt><trkpt lat="40.5100515" lon="19.8072588"><ele>256.0</ele><time>2026-05-03T08:42:53.733Z</time></trkpt><trkpt lat="40.5101556" lon="19.8071142"><ele>256.0</ele><time>2026-05-03T08:42:54.734Z</time></trkpt><trkpt lat="40.5102546" lon="19.8069652"><ele>255.66666666666666</ele><time>2026-05-03T08:42:55.732Z</time></trkpt><trkpt lat="40.5103484" lon="19.8068065"><ele>255.33333333333331</ele><time>2026-05-03T08:42:56.735Z</time></trkpt><trkpt lat="40.5104397" lon="19.8066354"><ele>255.0</ele><time>2026-05-03T08:42:57.736Z</time></trkpt><trkpt lat="40.5105304" lon="19.80646"><ele>259.0</ele><time>2026-05-03T08:42:58.73Z</time></trkpt><trkpt lat="40.5106288" lon="19.8062809"><ele>263.0</ele><time>2026-05-03T08:42:59.733Z</time></trkpt><trkpt lat="40.5107335" lon="19.806099"><ele>267.0</ele><time>2026-05-03T08:43:00.731Z</time></trkpt><trkpt lat="40.5108443" lon="19.805913"><ele>267.0</ele><time>2026-05-03T08:43:01.734Z</time></trkpt><trkpt lat="40.5109763" lon="19.8057417"><ele>267.0</ele><time>2026-05-03T08:43:02.737Z</time></trkpt><trkpt lat="40.5111128" lon="19.8055677"><ele>267.0</ele><time>2026-05-03T08:43:03.736Z</time></trkpt><trkpt lat="40.5112597" lon="19.8054299"><ele>266.0</ele><time>2026-05-03T08:43:04.734Z</time></trkpt><trkpt lat="40.5114323" lon="19.8052948"><ele>265.0</ele><time>2026-05-03T08:43:05.736Z</time></trkpt><trkpt lat="40.5116015" lon="19.8051843"><ele>264.0</ele><time>2026-05-03T08:43:06.734Z</time></trkpt><trkpt lat="40.5117758" lon="19.8050842"><ele>264.0</ele><time>2026-05-03T08:43:07.734Z</time></trkpt><trkpt lat="40.5119523" lon="19.8049893"><ele>264.0</ele><time>2026-05-03T08:43:08.734Z</time></trkpt><trkpt lat="40.5121276" lon="19.8049034"><ele>264.0</ele><time>2026-05-03T08:43:09.734Z</time></trkpt><trkpt lat="40.5123017" lon="19.8048198"><ele>270.3333333333333</ele><time>2026-05-03T08:43:10.73Z</time></trkpt><trkpt lat="40.5124707" lon="19.8047278"><ele>276.66666666666663</ele><time>2026-05-03T08:43:11.736Z</time></trkpt><trkpt lat="40.5126362" lon="19.8046234"><ele>283.0</ele><time>2026-05-03T08:43:12.734Z</time></trkpt><trkpt lat="40.5127928" lon="19.8045039"><ele>280.66666666666663</ele><time>2026-05-03T08:43:13.731Z</time></trkpt><trkpt lat="40.5129402" lon="19.8043662"><ele>278.3333333333333</ele><time>2026-05-03T08:43:14.732Z</time></trkpt><trkpt lat="40.5130753" lon="19.8042148"><ele>276.0</ele><time>2026-05-03T08:43:15.736Z</time></trkpt><trkpt lat="40.5132046" lon="19.8040488"><ele>276.0</ele><time>2026-05-03T08:43:16.735Z</time></trkpt><trkpt lat="40.5133219" lon="19.8038703"><ele>276.0</ele><time>2026-05-03T08:43:17.732Z</time></trkpt><trkpt lat="40.5134323" lon="19.8036733"><ele>276.0</ele><time>2026-05-03T08:43:18.733Z</time></trkpt><trkpt lat="40.5135299" lon="19.8034663"><ele>269.3333333333333</ele><time>2026-05-03T08:43:19.735Z</time></trkpt><trkpt lat="40.5136156" lon="19.8032486"><ele>262.66666666666663</ele><time>2026-05-03T08:43:20.736Z</time></trkpt><trkpt lat="40.5136892" lon="19.8030205"><ele>256.0</ele><time>2026-05-03T08:43:21.733Z</time></trkpt><trkpt lat="40.5137499" lon="19.8027854"><ele>266.3333333333333</ele><time>2026-05-03T08:43:22.732Z</time></trkpt><trkpt lat="40.5137962" lon="19.8025427"><ele>276.6666666666667</ele><time>2026-05-03T08:43:23.733Z</time></trkpt><trkpt lat="40.5138431" lon="19.8023046"><ele>287.0</ele><time>2026-05-03T08:43:24.733Z</time></trkpt><trkpt lat="40.5138785" lon="19.8020599"><ele>284.6666666666667</ele><time>2026-05-03T08:43:25.735Z</time></trkpt><trkpt lat="40.5139112" lon="19.8018113"><ele>282.3333333333333</ele><time>2026-05-03T08:43:26.735Z</time></trkpt><trkpt lat="40.5139458" lon="19.8015641"><ele>280.0</ele><time>2026-05-03T08:43:27.734Z</time></trkpt><trkpt lat="40.5139767" lon="19.8013267"><ele>280.0</ele><time>2026-05-03T08:43:28.734Z</time></trkpt><trkpt lat="40.5140095" lon="19.801085"><ele>280.0</ele><time>2026-05-03T08:43:29.735Z</time></trkpt><trkpt lat="40.5140391" lon="19.8008497"><ele>280.0</ele><time>2026-05-03T08:43:30.737Z</time></trkpt><trkpt lat="40.5140621" lon="19.8006124"><ele>277.0</ele><time>2026-05-03T08:43:31.734Z</time></trkpt><trkpt lat="40.5140719" lon="19.8003742"><ele>274.0</ele><time>2026-05-03T08:43:32.734Z</time></trkpt><trkpt lat="40.5140651" lon="19.8001264"><ele>271.0</ele><time>2026-05-03T08:43:33.734Z</time></trkpt><trkpt lat="40.5140487" lon="19.7998859"><ele>269.66666666666663</ele><time>2026-05-03T08:43:34.736Z</time></trkpt><trkpt lat="40.51402" lon="19.7996473"><ele>268.3333333333333</ele><time>2026-05-03T08:43:35.733Z</time></trkpt><trkpt lat="40.5139767" lon="19.7994148"><ele>267.0</ele><time>2026-05-03T08:43:36.735Z</time></trkpt><trkpt lat="40.5139269" lon="19.7991811"><ele>267.0</ele><time>2026-05-03T08:43:37.737Z</time></trkpt><trkpt lat="40.5138743" lon="19.7989543"><ele>267.0</ele><time>2026-05-03T08:43:38.736Z</time></trkpt><trkpt lat="40.5138223" lon="19.798728"><ele>267.0</ele><time>2026-05-03T08:43:39.73Z</time></trkpt><trkpt lat="40.5137766" lon="19.7985014"><ele>268.6666666666667</ele><time>2026-05-03T08:43:40.733Z</time></trkpt><trkpt lat="40.5137458" lon="19.7982731"><ele>270.33333333333337</ele><time>2026-05-03T08:43:41.737Z</time></trkpt><trkpt lat="40.5137302" lon="19.798037"><ele>272.0</ele><time>2026-05-03T08:43:42.736Z</time></trkpt><trkpt lat="40.5137301" lon="19.7978032"><ele>271.33333333333337</ele><time>2026-05-03T08:43:43.736Z</time></trkpt><trkpt lat="40.5137427" lon="19.7975643"><ele>270.6666666666667</ele><time>2026-05-03T08:43:44.734Z</time></trkpt><trkpt lat="40.5137756" lon="19.7973148"><ele>270.0</ele><time>2026-05-03T08:43:45.734Z</time></trkpt><trkpt lat="40.5138156" lon="19.7970806"><ele>270.0</ele><time>2026-05-03T08:43:46.733Z</time></trkpt><trkpt lat="40.5138604" lon="19.7968546"><ele>270.0</ele><time>2026-05-03T08:43:47.732Z</time></trkpt><trkpt lat="40.5139052" lon="19.796612"><ele>270.0</ele><time>2026-05-03T08:43:48.731Z</time></trkpt><trkpt lat="40.5139456" lon="19.7963641"><ele>266.0</ele><time>2026-05-03T08:43:49.733Z</time></trkpt><trkpt lat="40.5139829" lon="19.7961096"><ele>262.0</ele><time>2026-05-03T08:43:50.733Z</time></trkpt><trkpt lat="40.5140131" lon="19.7958511"><ele>258.0</ele><time>2026-05-03T08:43:51.736Z</time></trkpt><trkpt lat="40.514035" lon="19.7955883"><ele>256.0</ele><time>2026-05-03T08:43:52.734Z</time></trkpt><trkpt lat="40.514041" lon="19.7953259"><ele>254.0</ele><time>2026-05-03T08:43:53.734Z</time></trkpt><trkpt lat="40.5140433" lon="19.7950593"><ele>252.0</ele><time>2026-05-03T08:43:54.735Z</time></trkpt><trkpt lat="40.5140422" lon="19.7947889"><ele>251.33333333333331</ele><time>2026-05-03T08:43:55.732Z</time></trkpt><trkpt lat="40.5140399" lon="19.7945189"><ele>250.66666666666666</ele><time>2026-05-03T08:43:56.733Z</time></trkpt><trkpt lat="40.5140374" lon="19.7942507"><ele>250.0</ele><time>2026-05-03T08:43:57.734Z</time></trkpt><trkpt lat="40.5140339" lon="19.7939841"><ele>246.0</ele><time>2026-05-03T08:43:58.733Z</time></trkpt><trkpt lat="40.5140266" lon="19.7937149"><ele>242.0</ele><time>2026-05-03T08:43:59.736Z</time></trkpt><trkpt lat="40.5140209" lon="19.7934439"><ele>238.0</ele><time>2026-05-03T08:44:00.733Z</time></trkpt><trkpt lat="40.5140143" lon="19.7931765"><ele>236.0</ele><time>2026-05-03T08:44:01.734Z</time></trkpt><trkpt lat="40.5140082" lon="19.7929127"><ele>234.0</ele><time>2026-05-03T08:44:02.732Z</time></trkpt><trkpt lat="40.5140027" lon="19.7926462"><ele>232.0</ele><time>2026-05-03T08:44:03.732Z</time></trkpt><trkpt lat="40.5139979" lon="19.7923743"><ele>231.66666666666666</ele><time>2026-05-03T08:44:04.733Z</time></trkpt><trkpt lat="40.5139936" lon="19.7921072"><ele>231.33333333333331</ele><time>2026-05-03T08:44:05.732Z</time></trkpt><trkpt lat="40.513989" lon="19.7918434"><ele>231.0</ele><time>2026-05-03T08:44:06.736Z</time></trkpt><trkpt lat="40.5139855" lon="19.7915816"><ele>231.0</ele><time>2026-05-03T08:44:07.735Z</time></trkpt><trkpt lat="40.5139815" lon="19.7913226"><ele>231.0</ele><time>2026-05-03T08:44:08.733Z</time></trkpt><trkpt lat="40.5139758" lon="19.7910681"><ele>231.0</ele><time>2026-05-03T08:44:09.731Z</time></trkpt><trkpt lat="40.5139714" lon="19.7908158"><ele>230.0</ele><time>2026-05-03T08:44:10.731Z</time></trkpt><trkpt lat="40.5139695" lon="19.7905655"><ele>229.0</ele><time>2026-05-03T08:44:11.733Z</time></trkpt><trkpt lat="40.5139618" lon="19.7903153"><ele>228.0</ele><time>2026-05-03T08:44:12.733Z</time></trkpt><trkpt lat="40.513958" lon="19.790068"><ele>224.33333333333331</ele><time>2026-05-03T08:44:13.735Z</time></trkpt><trkpt lat="40.5139524" lon="19.7898239"><ele>220.66666666666666</ele><time>2026-05-03T08:44:14.732Z</time></trkpt><trkpt lat="40.5139439" lon="19.7895816"><ele>217.0</ele><time>2026-05-03T08:44:15.734Z</time></trkpt><trkpt lat="40.5139296" lon="19.7893405"><ele>215.0</ele><time>2026-05-03T08:44:16.733Z</time></trkpt><trkpt lat="40.5139021" lon="19.7891098"><ele>213.0</ele><time>2026-05-03T08:44:17.73Z</time></trkpt><trkpt lat="40.5138604" lon="19.7888819"><ele>211.0</ele><time>2026-05-03T08:44:18.731Z</time></trkpt><trkpt lat="40.5138062" lon="19.78866"><ele>200.66666666666666</ele><time>2026-05-03T08:44:19.733Z</time></trkpt><trkpt lat="40.5137374" lon="19.7884375"><ele>190.33333333333331</ele><time>2026-05-03T08:44:20.731Z</time></trkpt><trkpt lat="40.5136577" lon="19.7882183"><ele>180.0</ele><time>2026-05-03T08:44:21.733Z</time></trkpt><trkpt lat="40.5135644" lon="19.7880096"><ele>180.0</ele><time>2026-05-03T08:44:22.734Z</time></trkpt><trkpt lat="40.5134658" lon="19.787807"><ele>180.0</ele><time>2026-05-03T08:44:23.734Z</time></trkpt><trkpt lat="40.5133674" lon="19.7876085"><ele>180.0</ele><time>2026-05-03T08:44:24.734Z</time></trkpt><trkpt lat="40.5132728" lon="19.7874109"><ele>184.33333333333331</ele><time>2026-05-03T08:44:25.734Z</time></trkpt><trkpt lat="40.5131885" lon="19.7872061"><ele>188.66666666666666</ele><time>2026-05-03T08:44:26.734Z</time></trkpt><trkpt lat="40.5131109" lon="19.78699"><ele>193.0</ele><time>2026-05-03T08:44:27.736Z</time></trkpt><trkpt lat="40.5130503" lon="19.7867715"><ele>196.66666666666666</ele><time>2026-05-03T08:44:28.735Z</time></trkpt><trkpt lat="40.5130074" lon="19.7865386"><ele>200.33333333333331</ele><time>2026-05-03T08:44:29.733Z</time></trkpt><trkpt lat="40.512974" lon="19.7862979"><ele>204.0</ele><time>2026-05-03T08:44:30.737Z</time></trkpt><trkpt lat="40.5129534" lon="19.7860599"><ele>204.0</ele><time>2026-05-03T08:44:31.733Z</time></trkpt><trkpt lat="40.5129445" lon="19.7858271"><ele>204.0</ele><time>2026-05-03T08:44:32.733Z</time></trkpt><trkpt lat="40.5129512" lon="19.7856013"><ele>204.0</ele><time>2026-05-03T08:44:33.733Z</time></trkpt><trkpt lat="40.5129634" lon="19.7853789"><ele>196.33333333333334</ele><time>2026-05-03T08:44:34.733Z</time></trkpt><trkpt lat="40.5129783" lon="19.7851641"><ele>188.66666666666669</ele><time>2026-05-03T08:44:35.737Z</time></trkpt><trkpt lat="40.5129944" lon="19.7849371"><ele>181.0</ele><time>2026-05-03T08:44:36.733Z</time></trkpt><trkpt lat="40.5130056" lon="19.78472"><ele>181.0</ele><time>2026-05-03T08:44:37.733Z</time></trkpt><trkpt lat="40.5130092" lon="19.7845036"><ele>181.0</ele><time>2026-05-03T08:44:38.732Z</time></trkpt><trkpt lat="40.5130036" lon="19.7842989"><ele>181.0</ele><time>2026-05-03T08:44:39.732Z</time></trkpt><trkpt lat="40.5129928" lon="19.7840958"><ele>179.33333333333334</ele><time>2026-05-03T08:44:40.732Z</time></trkpt><trkpt lat="40.5129689" lon="19.7838938"><ele>177.66666666666666</ele><time>2026-05-03T08:44:41.732Z</time></trkpt><trkpt lat="40.5129317" lon="19.7836988"><ele>176.0</ele><time>2026-05-03T08:44:42.735Z</time></trkpt><trkpt lat="40.5128801" lon="19.7835086"><ele>174.66666666666666</ele><time>2026-05-03T08:44:43.73Z</time></trkpt><trkpt lat="40.5128207" lon="19.7833265"><ele>173.33333333333334</ele><time>2026-05-03T08:44:44.733Z</time></trkpt><trkpt lat="40.5127494" lon="19.7831379"><ele>172.0</ele><time>2026-05-03T08:44:45.735Z</time></trkpt><trkpt lat="40.5126853" lon="19.7829577"><ele>172.0</ele><time>2026-05-03T08:44:46.732Z</time></trkpt><trkpt lat="40.5126294" lon="19.7827705"><ele>172.0</ele><time>2026-05-03T08:44:47.733Z</time></trkpt><trkpt lat="40.5125853" lon="19.7825774"><ele>172.0</ele><time>2026-05-03T08:44:48.736Z</time></trkpt><trkpt lat="40.512549" lon="19.7823824"><ele>176.33333333333334</ele><time>2026-05-03T08:44:49.733Z</time></trkpt><trkpt lat="40.51252" lon="19.7821824"><ele>180.66666666666666</ele><time>2026-05-03T08:44:50.735Z</time></trkpt><trkpt lat="40.5124958" lon="19.7819797"><ele>185.0</ele><time>2026-05-03T08:44:51.731Z</time></trkpt><trkpt lat="40.5124887" lon="19.7817796"><ele>185.0</ele><time>2026-05-03T08:44:52.735Z</time></trkpt><trkpt lat="40.5124927" lon="19.7815837"><ele>185.0</ele><time>2026-05-03T08:44:53.733Z</time></trkpt><trkpt lat="40.5125044" lon="19.7813825"><ele>185.0</ele><time>2026-05-03T08:44:54.733Z</time></trkpt><trkpt lat="40.5125142" lon="19.7811812"><ele>185.0</ele><time>2026-05-03T08:44:55.736Z</time></trkpt><trkpt lat="40.5125214" lon="19.7809799"><ele>185.0</ele><time>2026-05-03T08:44:56.734Z</time></trkpt><trkpt lat="40.5125295" lon="19.7807682"><ele>185.0</ele><time>2026-05-03T08:44:57.732Z</time></trkpt><trkpt lat="40.5125355" lon="19.7805511"><ele>185.0</ele><time>2026-05-03T08:44:58.732Z</time></trkpt><trkpt lat="40.5125329" lon="19.7803289"><ele>185.0</ele><time>2026-05-03T08:44:59.734Z</time></trkpt><trkpt lat="40.5125162" lon="19.7800956"><ele>185.0</ele><time>2026-05-03T08:45:00.734Z</time></trkpt><trkpt lat="40.512495" lon="19.7798585"><ele>184.33333333333331</ele><time>2026-05-03T08:45:01.734Z</time></trkpt><trkpt lat="40.5124664" lon="19.7796153"><ele>183.66666666666666</ele><time>2026-05-03T08:45:02.735Z</time></trkpt><trkpt lat="40.5124322" lon="19.7793723"><ele>183.0</ele><time>2026-05-03T08:45:03.734Z</time></trkpt><trkpt lat="40.5123932" lon="19.7791277"><ele>184.66666666666666</ele><time>2026-05-03T08:45:04.732Z</time></trkpt><trkpt lat="40.5123435" lon="19.7788831"><ele>186.33333333333331</ele><time>2026-05-03T08:45:05.734Z</time></trkpt><trkpt lat="40.5122866" lon="19.7786465"><ele>188.0</ele><time>2026-05-03T08:45:06.737Z</time></trkpt><trkpt lat="40.5122198" lon="19.7784068"><ele>191.33333333333331</ele><time>2026-05-03T08:45:07.733Z</time></trkpt><trkpt lat="40.5121488" lon="19.7781703"><ele>194.66666666666666</ele><time>2026-05-03T08:45:08.734Z</time></trkpt><trkpt lat="40.5120825" lon="19.7779384"><ele>198.0</ele><time>2026-05-03T08:45:09.734Z</time></trkpt><trkpt lat="40.5120145" lon="19.7777082"><ele>184.0</ele><time>2026-05-03T08:45:10.733Z</time></trkpt><trkpt lat="40.5119478" lon="19.7774807"><ele>170.0</ele><time>2026-05-03T08:45:11.733Z</time></trkpt><trkpt lat="40.5118832" lon="19.777256"><ele>156.0</ele><time>2026-05-03T08:45:12.734Z</time></trkpt><trkpt lat="40.5118266" lon="19.7770338"><ele>162.0</ele><time>2026-05-03T08:45:13.735Z</time></trkpt><trkpt lat="40.5117664" lon="19.776813"><ele>168.0</ele><time>2026-05-03T08:45:14.732Z</time></trkpt><trkpt lat="40.5117048" lon="19.7765935"><ele>174.0</ele><time>2026-05-03T08:45:15.732Z</time></trkpt><trkpt lat="40.511645" lon="19.7763756"><ele>174.0</ele><time>2026-05-03T08:45:16.733Z</time></trkpt><trkpt lat="40.5115808" lon="19.7761495"><ele>174.0</ele><time>2026-05-03T08:45:17.734Z</time></trkpt><trkpt lat="40.5115203" lon="19.7759227"><ele>174.0</ele><time>2026-05-03T08:45:18.732Z</time></trkpt><trkpt lat="40.5114593" lon="19.7756996"><ele>179.33333333333334</ele><time>2026-05-03T08:45:19.732Z</time></trkpt><trkpt lat="40.5113926" lon="19.7754811"><ele>184.66666666666669</ele><time>2026-05-03T08:45:20.734Z</time></trkpt><trkpt lat="40.5113256" lon="19.7752639"><ele>190.0</ele><time>2026-05-03T08:45:21.733Z</time></trkpt><trkpt lat="40.5112543" lon="19.7750512"><ele>175.33333333333334</ele><time>2026-05-03T08:45:22.733Z</time></trkpt><trkpt lat="40.5111769" lon="19.7748441"><ele>160.66666666666666</ele><time>2026-05-03T08:45:23.734Z</time></trkpt><trkpt lat="40.511101" lon="19.7746368"><ele>146.0</ele><time>2026-05-03T08:45:24.734Z</time></trkpt><trkpt lat="40.5110237" lon="19.7744319"><ele>148.0</ele><time>2026-05-03T08:45:25.736Z</time></trkpt><trkpt lat="40.5109447" lon="19.7742314"><ele>150.0</ele><time>2026-05-03T08:45:26.735Z</time></trkpt><trkpt lat="40.5108668" lon="19.7740359"><ele>152.0</ele><time>2026-05-03T08:45:27.735Z</time></trkpt><trkpt lat="40.5107863" lon="19.773841"><ele>152.0</ele><time>2026-05-03T08:45:28.734Z</time></trkpt><trkpt lat="40.5107111" lon="19.7736446"><ele>152.0</ele><time>2026-05-03T08:45:29.736Z</time></trkpt><trkpt lat="40.5106318" lon="19.7734478"><ele>152.0</ele><time>2026-05-03T08:45:30.731Z</time></trkpt><trkpt lat="40.5105531" lon="19.7732453"><ele>152.0</ele><time>2026-05-03T08:45:31.734Z</time></trkpt><trkpt lat="40.5104741" lon="19.7730345"><ele>152.0</ele><time>2026-05-03T08:45:32.733Z</time></trkpt><trkpt lat="40.5103904" lon="19.7728055"><ele>152.0</ele><time>2026-05-03T08:45:33.734Z</time></trkpt><trkpt lat="40.5102945" lon="19.7725738"><ele>152.0</ele><time>2026-05-03T08:45:34.736Z</time></trkpt><trkpt lat="40.5101992" lon="19.7723367"><ele>152.0</ele><time>2026-05-03T08:45:35.733Z</time></trkpt><trkpt lat="40.5101014" lon="19.7721017"><ele>152.0</ele><time>2026-05-03T08:45:36.734Z</time></trkpt><trkpt lat="40.5100109" lon="19.771865"><ele>157.0</ele><time>2026-05-03T08:45:37.734Z</time></trkpt><trkpt lat="40.5099154" lon="19.7716283"><ele>162.0</ele><time>2026-05-03T08:45:38.734Z</time></trkpt><trkpt lat="40.5098215" lon="19.7713976"><ele>167.0</ele><time>2026-05-03T08:45:39.734Z</time></trkpt><trkpt lat="40.5097275" lon="19.7711736"><ele>173.66666666666666</ele><time>2026-05-03T08:45:40.734Z</time></trkpt><trkpt lat="40.50963" lon="19.7709575"><ele>180.33333333333334</ele><time>2026-05-03T08:45:41.732Z</time></trkpt><trkpt lat="40.5095398" lon="19.7707441"><ele>187.0</ele><time>2026-05-03T08:45:42.732Z</time></trkpt><trkpt lat="40.5094571" lon="19.7705295"><ele>175.33333333333334</ele><time>2026-05-03T08:45:43.732Z</time></trkpt><trkpt lat="40.5093879" lon="19.7703156"><ele>163.66666666666666</ele><time>2026-05-03T08:45:44.734Z</time></trkpt><trkpt lat="40.509333" lon="19.7701008"><ele>152.0</ele><time>2026-05-03T08:45:45.733Z</time></trkpt><trkpt lat="40.5092936" lon="19.7698848"><ele>152.0</ele><time>2026-05-03T08:45:46.735Z</time></trkpt><trkpt lat="40.5092677" lon="19.7696703"><ele>152.0</ele><time>2026-05-03T08:45:47.737Z</time></trkpt><trkpt lat="40.5092471" lon="19.7694551"><ele>152.0</ele><time>2026-05-03T08:45:48.734Z</time></trkpt><trkpt lat="40.5092423" lon="19.7692418"><ele>155.66666666666666</ele><time>2026-05-03T08:45:49.735Z</time></trkpt><trkpt lat="40.5092473" lon="19.7690261"><ele>159.33333333333334</ele><time>2026-05-03T08:45:50.736Z</time></trkpt><trkpt lat="40.5092589" lon="19.7688059"><ele>163.0</ele><time>2026-05-03T08:45:51.737Z</time></trkpt><trkpt lat="40.5092708" lon="19.768583"><ele>160.0</ele><time>2026-05-03T08:45:52.736Z</time></trkpt><trkpt lat="40.5092793" lon="19.7683558"><ele>157.0</ele><time>2026-05-03T08:45:53.733Z</time></trkpt><trkpt lat="40.5092817" lon="19.7681362"><ele>154.0</ele><time>2026-05-03T08:45:54.737Z</time></trkpt><trkpt lat="40.5092693" lon="19.7679143"><ele>154.0</ele><time>2026-05-03T08:45:55.736Z</time></trkpt><trkpt lat="40.50925" lon="19.7677016"><ele>154.0</ele><time>2026-05-03T08:45:56.735Z</time></trkpt><trkpt lat="40.5092189" lon="19.7674902"><ele>154.0</ele><time>2026-05-03T08:45:57.734Z</time></trkpt><trkpt lat="40.5091778" lon="19.767279"><ele>151.33333333333334</ele><time>2026-05-03T08:45:58.73Z</time></trkpt><trkpt lat="40.5091217" lon="19.7670672"><ele>148.66666666666666</ele><time>2026-05-03T08:45:59.736Z</time></trkpt><trkpt lat="40.5090504" lon="19.7668522"><ele>146.0</ele><time>2026-05-03T08:46:00.736Z</time></trkpt><trkpt lat="40.5089677" lon="19.7666376"><ele>151.66666666666666</ele><time>2026-05-03T08:46:01.736Z</time></trkpt><trkpt lat="40.508868" lon="19.7664333"><ele>157.33333333333334</ele><time>2026-05-03T08:46:02.734Z</time></trkpt><trkpt lat="40.5087546" lon="19.7662395"><ele>163.0</ele><time>2026-05-03T08:46:03.733Z</time></trkpt><trkpt lat="40.5086304" lon="19.7660566"><ele>158.33333333333334</ele><time>2026-05-03T08:46:04.733Z</time></trkpt><trkpt lat="40.5084934" lon="19.7658896"><ele>153.66666666666666</ele><time>2026-05-03T08:46:05.733Z</time></trkpt><trkpt lat="40.5083556" lon="19.7657414"><ele>149.0</ele><time>2026-05-03T08:46:06.733Z</time></trkpt><trkpt lat="40.5082193" lon="19.7656037"><ele>149.0</ele><time>2026-05-03T08:46:07.732Z</time></trkpt><trkpt lat="40.5080806" lon="19.7654756"><ele>149.0</ele><time>2026-05-03T08:46:08.734Z</time></trkpt><trkpt lat="40.5079406" lon="19.7653548"><ele>149.0</ele><time>2026-05-03T08:46:09.733Z</time></trkpt><trkpt lat="40.5078095" lon="19.7652351"><ele>145.0</ele><time>2026-05-03T08:46:10.733Z</time></trkpt><trkpt lat="40.5076866" lon="19.7651043"><ele>141.0</ele><time>2026-05-03T08:46:11.736Z</time></trkpt><trkpt lat="40.5075689" lon="19.7649598"><ele>137.0</ele><time>2026-05-03T08:46:12.732Z</time></trkpt><trkpt lat="40.5074613" lon="19.7648033"><ele>137.0</ele><time>2026-05-03T08:46:13.732Z</time></trkpt><trkpt lat="40.5073569" lon="19.7646372"><ele>137.0</ele><time>2026-05-03T08:46:14.737Z</time></trkpt><trkpt lat="40.5072602" lon="19.7644587"><ele>137.0</ele><time>2026-05-03T08:46:15.736Z</time></trkpt><trkpt lat="40.5071806" lon="19.7642805"><ele>128.66666666666666</ele><time>2026-05-03T08:46:16.736Z</time></trkpt><trkpt lat="40.5070977" lon="19.7640762"><ele>120.33333333333334</ele><time>2026-05-03T08:46:17.735Z</time></trkpt><trkpt lat="40.5070285" lon="19.7638613"><ele>112.0</ele><time>2026-05-03T08:46:18.737Z</time></trkpt><trkpt lat="40.5069711" lon="19.7636454"><ele>112.33333333333334</ele><time>2026-05-03T08:46:19.733Z</time></trkpt><trkpt lat="40.5069286" lon="19.7634286"><ele>112.66666666666666</ele><time>2026-05-03T08:46:20.735Z</time></trkpt><trkpt lat="40.5068985" lon="19.7632035"><ele>113.0</ele><time>2026-05-03T08:46:21.735Z</time></trkpt><trkpt lat="40.5068783" lon="19.7629702"><ele>113.0</ele><time>2026-05-03T08:46:22.734Z</time></trkpt><trkpt lat="40.506871" lon="19.7627304"><ele>113.0</ele><time>2026-05-03T08:46:23.732Z</time></trkpt><trkpt lat="40.5068703" lon="19.7624927"><ele>113.0</ele><time>2026-05-03T08:46:24.735Z</time></trkpt><trkpt lat="40.506871" lon="19.7622658"><ele>113.33333333333333</ele><time>2026-05-03T08:46:25.734Z</time></trkpt><trkpt lat="40.5068745" lon="19.7620291"><ele>113.66666666666666</ele><time>2026-05-03T08:46:26.735Z</time></trkpt><trkpt lat="40.5068779" lon="19.7617904"><ele>114.0</ele><time>2026-05-03T08:46:27.734Z</time></trkpt><trkpt lat="40.5068836" lon="19.761548"><ele>111.0</ele><time>2026-05-03T08:46:28.73Z</time></trkpt><trkpt lat="40.5068843" lon="19.7613035"><ele>108.0</ele><time>2026-05-03T08:46:29.734Z</time></trkpt><trkpt lat="40.5068884" lon="19.7610569"><ele>105.0</ele><time>2026-05-03T08:46:30.732Z</time></trkpt><trkpt lat="40.5068949" lon="19.7608111"><ele>104.33333333333334</ele><time>2026-05-03T08:46:31.733Z</time></trkpt><trkpt lat="40.5069027" lon="19.76056"><ele>103.66666666666667</ele><time>2026-05-03T08:46:32.734Z</time></trkpt><trkpt lat="40.5069097" lon="19.7603133"><ele>103.0</ele><time>2026-05-03T08:46:33.737Z</time></trkpt><trkpt lat="40.50692" lon="19.760073"><ele>100.33333333333334</ele><time>2026-05-03T08:46:34.736Z</time></trkpt><trkpt lat="40.5069371" lon="19.759836"><ele>97.66666666666667</ele><time>2026-05-03T08:46:35.735Z</time></trkpt><trkpt lat="40.506969" lon="19.7596059"><ele>95.0</ele><time>2026-05-03T08:46:36.732Z</time></trkpt><trkpt lat="40.5070116" lon="19.7593857"><ele>92.66666666666667</ele><time>2026-05-03T08:46:37.736Z</time></trkpt><trkpt lat="40.5070673" lon="19.7591696"><ele>90.33333333333333</ele><time>2026-05-03T08:46:38.733Z</time></trkpt><trkpt lat="40.5071389" lon="19.7589542"><ele>88.0</ele><time>2026-05-03T08:46:39.733Z</time></trkpt><trkpt lat="40.5072256" lon="19.7587406"><ele>94.0</ele><time>2026-05-03T08:46:40.735Z</time></trkpt><trkpt lat="40.5073242" lon="19.7585335"><ele>100.0</ele><time>2026-05-03T08:46:41.737Z</time></trkpt><trkpt lat="40.5074276" lon="19.7583283"><ele>106.0</ele><time>2026-05-03T08:46:42.734Z</time></trkpt><trkpt lat="40.5075412" lon="19.7581311"><ele>106.0</ele><time>2026-05-03T08:46:43.734Z</time></trkpt><trkpt lat="40.507656" lon="19.7579297"><ele>106.0</ele><time>2026-05-03T08:46:44.736Z</time></trkpt><trkpt lat="40.5077718" lon="19.7577285"><ele>106.0</ele><time>2026-05-03T08:46:45.734Z</time></trkpt><trkpt lat="40.5078883" lon="19.757528"><ele>111.0</ele><time>2026-05-03T08:46:46.736Z</time></trkpt><trkpt lat="40.5080031" lon="19.7573264"><ele>116.0</ele><time>2026-05-03T08:46:47.736Z</time></trkpt><trkpt lat="40.5081159" lon="19.7571255"><ele>121.0</ele><time>2026-05-03T08:46:48.731Z</time></trkpt><trkpt lat="40.5082315" lon="19.7569296"><ele>112.66666666666667</ele><time>2026-05-03T08:46:49.736Z</time></trkpt><trkpt lat="40.5083437" lon="19.7567314"><ele>104.33333333333334</ele><time>2026-05-03T08:46:50.732Z</time></trkpt><trkpt lat="40.5084602" lon="19.756532"><ele>96.0</ele><time>2026-05-03T08:46:51.733Z</time></trkpt><trkpt lat="40.5085755" lon="19.756332"><ele>96.0</ele><time>2026-05-03T08:46:52.73Z</time></trkpt><trkpt lat="40.5086952" lon="19.7561309"><ele>96.0</ele><time>2026-05-03T08:46:53.733Z</time></trkpt><trkpt lat="40.5088065" lon="19.7559249"><ele>96.0</ele><time>2026-05-03T08:46:54.734Z</time></trkpt><trkpt lat="40.5089049" lon="19.7557166"><ele>93.66666666666667</ele><time>2026-05-03T08:46:55.734Z</time></trkpt><trkpt lat="40.5089931" lon="19.7555056"><ele>91.33333333333334</ele><time>2026-05-03T08:46:56.733Z</time></trkpt><trkpt lat="40.5090678" lon="19.7552984"><ele>89.0</ele><time>2026-05-03T08:46:57.735Z</time></trkpt><trkpt lat="40.5091223" lon="19.7551346"><ele>89.0</ele><time>2026-05-03T08:46:58.732Z</time></trkpt><trkpt lat="40.5091682" lon="19.7549853"><ele>89.0</ele><time>2026-05-03T08:46:59.734Z</time></trkpt><trkpt lat="40.5092061" lon="19.7548398"><ele>89.0</ele><time>2026-05-03T08:47:00.733Z</time></trkpt><trkpt lat="40.5092413" lon="19.7547055"><ele>89.0</ele><time>2026-05-03T08:47:01.734Z</time></trkpt><trkpt lat="40.5092762" lon="19.7545618"><ele>89.0</ele><time>2026-05-03T08:47:02.737Z</time></trkpt><trkpt lat="40.5093136" lon="19.7544181"><ele>89.0</ele><time>2026-05-03T08:47:03.734Z</time></trkpt><trkpt lat="40.5093504" lon="19.7542619"><ele>89.0</ele><time>2026-05-03T08:47:04.732Z</time></trkpt><trkpt lat="40.5093946" lon="19.754099"><ele>89.0</ele><time>2026-05-03T08:47:05.733Z</time></trkpt><trkpt lat="40.5094467" lon="19.7539396"><ele>89.75</ele><time>2026-05-03T08:47:06.733Z</time></trkpt><trkpt lat="40.5095039" lon="19.7537819"><ele>90.5</ele><time>2026-05-03T08:47:07.734Z</time></trkpt><trkpt lat="40.5095704" lon="19.7536292"><ele>91.25</ele><time>2026-05-03T08:47:08.732Z</time></trkpt><trkpt lat="40.509645" lon="19.7534773"><ele>92.0</ele><time>2026-05-03T08:47:09.734Z</time></trkpt><trkpt lat="40.5097284" lon="19.7533266"><ele>92.0</ele><time>2026-05-03T08:47:10.736Z</time></trkpt><trkpt lat="40.509822" lon="19.7531824"><ele>92.0</ele><time>2026-05-03T08:47:11.733Z</time></trkpt><trkpt lat="40.5099289" lon="19.7530404"><ele>92.0</ele><time>2026-05-03T08:47:12.734Z</time></trkpt><trkpt lat="40.5100459" lon="19.7529038"><ele>92.0</ele><time>2026-05-03T08:47:13.733Z</time></trkpt><trkpt lat="40.510171" lon="19.7527735"><ele>92.0</ele><time>2026-05-03T08:47:14.733Z</time></trkpt><trkpt lat="40.5103062" lon="19.7526513"><ele>92.0</ele><time>2026-05-03T08:47:15.732Z</time></trkpt><trkpt lat="40.5104499" lon="19.7525402"><ele>81.66666666666667</ele><time>2026-05-03T08:47:16.733Z</time></trkpt><trkpt lat="40.5105962" lon="19.7524327"><ele>71.33333333333333</ele><time>2026-05-03T08:47:17.733Z</time></trkpt><trkpt lat="40.5107437" lon="19.7523256"><ele>61.0</ele><time>2026-05-03T08:47:18.732Z</time></trkpt><trkpt lat="40.5108906" lon="19.7522204"><ele>61.0</ele><time>2026-05-03T08:47:19.732Z</time></trkpt><trkpt lat="40.5110364" lon="19.7521138"><ele>61.0</ele><time>2026-05-03T08:47:20.733Z</time></trkpt><trkpt lat="40.5111825" lon="19.7520103"><ele>61.0</ele><time>2026-05-03T08:47:21.732Z</time></trkpt><trkpt lat="40.5113256" lon="19.751908"><ele>62.33333333333333</ele><time>2026-05-03T08:47:22.732Z</time></trkpt><trkpt lat="40.5114646" lon="19.7518072"><ele>63.66666666666667</ele><time>2026-05-03T08:47:23.734Z</time></trkpt><trkpt lat="40.5116019" lon="19.7516947"><ele>65.0</ele><time>2026-05-03T08:47:24.734Z</time></trkpt><trkpt lat="40.5117408" lon="19.7515849"><ele>65.0</ele><time>2026-05-03T08:47:25.736Z</time></trkpt><trkpt lat="40.5118808" lon="19.7514619"><ele>65.0</ele><time>2026-05-03T08:47:26.735Z</time></trkpt><trkpt lat="40.5120185" lon="19.7513253"><ele>65.0</ele><time>2026-05-03T08:47:27.733Z</time></trkpt><trkpt lat="40.5121494" lon="19.7511766"><ele>62.0</ele><time>2026-05-03T08:47:28.732Z</time></trkpt><trkpt lat="40.5122743" lon="19.7510151"><ele>59.0</ele><time>2026-05-03T08:47:29.733Z</time></trkpt><trkpt lat="40.5123983" lon="19.7508373"><ele>56.0</ele><time>2026-05-03T08:47:30.731Z</time></trkpt><trkpt lat="40.5125148" lon="19.7506423"><ele>56.0</ele><time>2026-05-03T08:47:31.735Z</time></trkpt><trkpt lat="40.5126246" lon="19.7504315"><ele>56.0</ele><time>2026-05-03T08:47:32.733Z</time></trkpt><trkpt lat="40.5127241" lon="19.7502105"><ele>56.0</ele><time>2026-05-03T08:47:33.734Z</time></trkpt><trkpt lat="40.5128117" lon="19.7499841"><ele>56.333333333333336</ele><time>2026-05-03T08:47:34.735Z</time></trkpt><trkpt lat="40.5128931" lon="19.7497483"><ele>56.66666666666667</ele><time>2026-05-03T08:47:35.732Z</time></trkpt><trkpt lat="40.5129707" lon="19.7495087"><ele>57.0</ele><time>2026-05-03T08:47:36.733Z</time></trkpt><trkpt lat="40.5130459" lon="19.7492652"><ele>55.33333333333333</ele><time>2026-05-03T08:47:37.736Z</time></trkpt><trkpt lat="40.5131279" lon="19.7490063"><ele>53.666666666666664</ele><time>2026-05-03T08:47:38.734Z</time></trkpt><trkpt lat="40.5132162" lon="19.7487457"><ele>52.0</ele><time>2026-05-03T08:47:39.731Z</time></trkpt><trkpt lat="40.5133072" lon="19.748482"><ele>52.0</ele><time>2026-05-03T08:47:40.732Z</time></trkpt><trkpt lat="40.5134005" lon="19.7482214"><ele>52.0</ele><time>2026-05-03T08:47:41.731Z</time></trkpt><trkpt lat="40.5134972" lon="19.747952"><ele>52.0</ele><time>2026-05-03T08:47:42.733Z</time></trkpt><trkpt lat="40.5135923" lon="19.7476837"><ele>50.33333333333333</ele><time>2026-05-03T08:47:43.733Z</time></trkpt><trkpt lat="40.5136856" lon="19.7474174"><ele>48.666666666666664</ele><time>2026-05-03T08:47:44.731Z</time></trkpt><trkpt lat="40.5137754" lon="19.7471474"><ele>47.0</ele><time>2026-05-03T08:47:45.733Z</time></trkpt><trkpt lat="40.5138666" lon="19.7468715"><ele>47.0</ele><time>2026-05-03T08:47:46.734Z</time></trkpt><trkpt lat="40.5139628" lon="19.7465958"><ele>47.0</ele><time>2026-05-03T08:47:47.733Z</time></trkpt><trkpt lat="40.5140641" lon="19.7463242"><ele>47.0</ele><time>2026-05-03T08:47:48.732Z</time></trkpt><trkpt lat="40.5141661" lon="19.7460649"><ele>47.0</ele><time>2026-05-03T08:47:49.735Z</time></trkpt><trkpt lat="40.5142605" lon="19.7458139"><ele>47.0</ele><time>2026-05-03T08:47:50.732Z</time></trkpt><trkpt lat="40.5143476" lon="19.7455693"><ele>47.0</ele><time>2026-05-03T08:47:51.737Z</time></trkpt><trkpt lat="40.5144296" lon="19.7453305"><ele>47.0</ele><time>2026-05-03T08:47:52.732Z</time></trkpt><trkpt lat="40.5145106" lon="19.7450935"><ele>47.0</ele><time>2026-05-03T08:47:53.734Z</time></trkpt><trkpt lat="40.5145907" lon="19.7448669"><ele>48.33333333333333</ele><time>2026-05-03T08:47:54.734Z</time></trkpt><trkpt lat="40.514668" lon="19.7446478"><ele>49.666666666666664</ele><time>2026-05-03T08:47:55.732Z</time></trkpt><trkpt lat="40.514743" lon="19.7444327"><ele>51.0</ele><time>2026-05-03T08:47:56.735Z</time></trkpt><trkpt lat="40.514816" lon="19.7442099"><ele>51.0</ele><time>2026-05-03T08:47:57.735Z</time></trkpt><trkpt lat="40.5148949" lon="19.7439997"><ele>51.0</ele><time>2026-05-03T08:47:58.734Z</time></trkpt><trkpt lat="40.5149805" lon="19.7437996"><ele>51.0</ele><time>2026-05-03T08:47:59.734Z</time></trkpt><trkpt lat="40.5150754" lon="19.7436015"><ele>51.0</ele><time>2026-05-03T08:48:00.732Z</time></trkpt><trkpt lat="40.5151842" lon="19.743399"><ele>51.0</ele><time>2026-05-03T08:48:01.735Z</time></trkpt><trkpt lat="40.5153025" lon="19.7432083"><ele>51.0</ele><time>2026-05-03T08:48:02.736Z</time></trkpt><trkpt lat="40.5154272" lon="19.7430386"><ele>51.0</ele><time>2026-05-03T08:48:03.733Z</time></trkpt><trkpt lat="40.515556" lon="19.7428801"><ele>51.0</ele><time>2026-05-03T08:48:04.736Z</time></trkpt><trkpt lat="40.5156973" lon="19.7427256"><ele>51.0</ele><time>2026-05-03T08:48:05.735Z</time></trkpt><trkpt lat="40.5158636" lon="19.742554"><ele>51.33333333333333</ele><time>2026-05-03T08:48:06.737Z</time></trkpt><trkpt lat="40.5160472" lon="19.7424043"><ele>51.666666666666664</ele><time>2026-05-03T08:48:07.737Z</time></trkpt><trkpt lat="40.5162369" lon="19.7422769"><ele>52.0</ele><time>2026-05-03T08:48:08.731Z</time></trkpt><trkpt lat="40.5164223" lon="19.7421723"><ele>52.0</ele><time>2026-05-03T08:48:09.732Z</time></trkpt><trkpt lat="40.5166066" lon="19.7420924"><ele>52.0</ele><time>2026-05-03T08:48:10.733Z</time></trkpt><trkpt lat="40.5167763" lon="19.7420238"><ele>52.0</ele><time>2026-05-03T08:48:11.736Z</time></trkpt><trkpt lat="40.5169254" lon="19.7419737"><ele>52.0</ele><time>2026-05-03T08:48:12.732Z</time></trkpt><trkpt lat="40.5170555" lon="19.7419384"><ele>52.0</ele><time>2026-05-03T08:48:13.736Z</time></trkpt><trkpt lat="40.5171765" lon="19.7419143"><ele>52.0</ele><time>2026-05-03T08:48:14.732Z</time></trkpt><trkpt lat="40.5172911" lon="19.7418931"><ele>52.0</ele><time>2026-05-03T08:48:15.732Z</time></trkpt><trkpt lat="40.5174103" lon="19.7418893"><ele>52.0</ele><time>2026-05-03T08:48:16.732Z</time></trkpt><trkpt lat="40.5175498" lon="19.7418859"><ele>52.0</ele><time>2026-05-03T08:48:17.733Z</time></trkpt><trkpt lat="40.5177091" lon="19.741879"><ele>52.0</ele><time>2026-05-03T08:48:18.73Z</time></trkpt><trkpt lat="40.5178923" lon="19.7418831"><ele>51.33333333333333</ele><time>2026-05-03T08:48:19.73Z</time></trkpt><trkpt lat="40.5180844" lon="19.7418981"><ele>50.66666666666667</ele><time>2026-05-03T08:48:20.732Z</time></trkpt><trkpt lat="40.5182772" lon="19.7419156"><ele>50.0</ele><time>2026-05-03T08:48:21.732Z</time></trkpt><trkpt lat="40.5184875" lon="19.7419303"><ele>50.0</ele><time>2026-05-03T08:48:22.733Z</time></trkpt><trkpt lat="40.5187027" lon="19.7419337"><ele>50.0</ele><time>2026-05-03T08:48:23.732Z</time></trkpt><trkpt lat="40.5189238" lon="19.7419259"><ele>50.0</ele><time>2026-05-03T08:48:24.736Z</time></trkpt><trkpt lat="40.5191402" lon="19.7418939"><ele>48.333333333333336</ele><time>2026-05-03T08:48:25.737Z</time></trkpt><trkpt lat="40.5193523" lon="19.7418449"><ele>46.66666666666667</ele><time>2026-05-03T08:48:26.737Z</time></trkpt><trkpt lat="40.5195613" lon="19.7417759"><ele>45.0</ele><time>2026-05-03T08:48:27.737Z</time></trkpt><trkpt lat="40.5197678" lon="19.7416905"><ele>45.0</ele><time>2026-05-03T08:48:28.731Z</time></trkpt><trkpt lat="40.519965" lon="19.741586"><ele>45.0</ele><time>2026-05-03T08:48:29.732Z</time></trkpt><trkpt lat="40.520154" lon="19.7414686"><ele>45.0</ele><time>2026-05-03T08:48:30.732Z</time></trkpt><trkpt lat="40.520335" lon="19.7413348"><ele>44.0</ele><time>2026-05-03T08:48:31.732Z</time></trkpt><trkpt lat="40.5205098" lon="19.7411936"><ele>43.0</ele><time>2026-05-03T08:48:32.732Z</time></trkpt><trkpt lat="40.5206878" lon="19.7410388"><ele>42.0</ele><time>2026-05-03T08:48:33.734Z</time></trkpt><trkpt lat="40.5208689" lon="19.7408683"><ele>42.0</ele><time>2026-05-03T08:48:34.734Z</time></trkpt><trkpt lat="40.5210591" lon="19.7406797"><ele>42.0</ele><time>2026-05-03T08:48:35.731Z</time></trkpt><trkpt lat="40.5212636" lon="19.7404813"><ele>41.0</ele><time>2026-05-03T08:48:36.735Z</time></trkpt><trkpt lat="40.5214859" lon="19.7402798"><ele>40.0</ele><time>2026-05-03T08:48:37.732Z</time></trkpt><trkpt lat="40.5217084" lon="19.740073"><ele>40.0</ele><time>2026-05-03T08:48:38.734Z</time></trkpt><trkpt lat="40.5219398" lon="19.7398676"><ele>40.0</ele><time>2026-05-03T08:48:39.731Z</time></trkpt><trkpt lat="40.5221774" lon="19.739662"><ele>39.0</ele><time>2026-05-03T08:48:40.731Z</time></trkpt><trkpt lat="40.5224169" lon="19.7394512"><ele>38.0</ele><time>2026-05-03T08:48:41.733Z</time></trkpt><trkpt lat="40.5226537" lon="19.7392394"><ele>38.0</ele><time>2026-05-03T08:48:42.732Z</time></trkpt><trkpt lat="40.5228852" lon="19.7390267"><ele>38.0</ele><time>2026-05-03T08:48:43.733Z</time></trkpt><trkpt lat="40.523113" lon="19.7388176"><ele>39.5</ele><time>2026-05-03T08:48:44.733Z</time></trkpt><trkpt lat="40.5233396" lon="19.7386097"><ele>41.0</ele><time>2026-05-03T08:48:45.732Z</time></trkpt><trkpt lat="40.5235648" lon="19.7384038"><ele>47.0</ele><time>2026-05-03T08:48:46.734Z</time></trkpt><trkpt lat="40.5237854" lon="19.7382004"><ele>53.0</ele><time>2026-05-03T08:48:47.732Z</time></trkpt><trkpt lat="40.5239979" lon="19.7379961"><ele>53.0</ele><time>2026-05-03T08:48:48.734Z</time></trkpt><trkpt lat="40.5242026" lon="19.7377966"><ele>53.0</ele><time>2026-05-03T08:48:49.733Z</time></trkpt><trkpt lat="40.5243991" lon="19.7375927"><ele>57.0</ele><time>2026-05-03T08:48:50.733Z</time></trkpt><trkpt lat="40.5245774" lon="19.7373691"><ele>61.0</ele><time>2026-05-03T08:48:51.736Z</time></trkpt><trkpt lat="40.5247381" lon="19.7371231"><ele>54.0</ele><time>2026-05-03T08:48:52.731Z</time></trkpt><trkpt lat="40.5248848" lon="19.7368534"><ele>47.0</ele><time>2026-05-03T08:48:53.734Z</time></trkpt><trkpt lat="40.5250205" lon="19.7365679"><ele>47.0</ele><time>2026-05-03T08:48:54.733Z</time></trkpt><trkpt lat="40.5251474" lon="19.7362775"><ele>47.0</ele><time>2026-05-03T08:48:55.735Z</time></trkpt><trkpt lat="40.5252728" lon="19.7359866"><ele>43.5</ele><time>2026-05-03T08:48:56.734Z</time></trkpt><trkpt lat="40.5253928" lon="19.7357036"><ele>40.0</ele><time>2026-05-03T08:48:57.733Z</time></trkpt><trkpt lat="40.5255073" lon="19.735434"><ele>41.333333333333336</ele><time>2026-05-03T08:48:58.735Z</time></trkpt><trkpt lat="40.5256153" lon="19.7351745"><ele>42.666666666666664</ele><time>2026-05-03T08:48:59.735Z</time></trkpt><trkpt lat="40.52572" lon="19.7349262"><ele>44.0</ele><time>2026-05-03T08:49:00.735Z</time></trkpt><trkpt lat="40.52582" lon="19.734684"><ele>44.0</ele><time>2026-05-03T08:49:01.734Z</time></trkpt><trkpt lat="40.5259197" lon="19.7344526"><ele>44.0</ele><time>2026-05-03T08:49:02.735Z</time></trkpt><trkpt lat="40.5260223" lon="19.7342323"><ele>44.0</ele><time>2026-05-03T08:49:03.737Z</time></trkpt><trkpt lat="40.526133" lon="19.7340205"><ele>45.33333333333333</ele><time>2026-05-03T08:49:04.734Z</time></trkpt><trkpt lat="40.5262524" lon="19.7338319"><ele>46.666666666666664</ele><time>2026-05-03T08:49:05.735Z</time></trkpt><trkpt lat="40.5263876" lon="19.7336545"><ele>48.0</ele><time>2026-05-03T08:49:06.734Z</time></trkpt><trkpt lat="40.5265395" lon="19.7334885"><ele>48.0</ele><time>2026-05-03T08:49:07.734Z</time></trkpt><trkpt lat="40.5267035" lon="19.7333343"><ele>48.0</ele><time>2026-05-03T08:49:08.734Z</time></trkpt><trkpt lat="40.5268569" lon="19.7331841"><ele>48.0</ele><time>2026-05-03T08:49:09.732Z</time></trkpt><trkpt lat="40.527007" lon="19.733027"><ele>49.66666666666667</ele><time>2026-05-03T08:49:10.728Z</time></trkpt><trkpt lat="40.5271462" lon="19.7328553"><ele>51.333333333333336</ele><time>2026-05-03T08:49:11.736Z</time></trkpt><trkpt lat="40.5272819" lon="19.7326784"><ele>53.0</ele><time>2026-05-03T08:49:12.732Z</time></trkpt><trkpt lat="40.5274074" lon="19.7324914"><ele>53.0</ele><time>2026-05-03T08:49:13.733Z</time></trkpt><trkpt lat="40.5275376" lon="19.7322689"><ele>53.0</ele><time>2026-05-03T08:49:14.734Z</time></trkpt><trkpt lat="40.5276761" lon="19.7320229"><ele>53.0</ele><time>2026-05-03T08:49:15.734Z</time></trkpt><trkpt lat="40.5278053" lon="19.7317625"><ele>60.5</ele><time>2026-05-03T08:49:16.733Z</time></trkpt><trkpt lat="40.5279078" lon="19.7314658"><ele>68.0</ele><time>2026-05-03T08:49:17.734Z</time></trkpt><trkpt lat="40.5279912" lon="19.7311624"><ele>65.0</ele><time>2026-05-03T08:49:18.733Z</time></trkpt><trkpt lat="40.5280546" lon="19.7308528"><ele>62.0</ele><time>2026-05-03T08:49:19.731Z</time></trkpt><trkpt lat="40.5281021" lon="19.7305587"><ele>62.0</ele><time>2026-05-03T08:49:20.734Z</time></trkpt><trkpt lat="40.5281435" lon="19.730274"><ele>62.0</ele><time>2026-05-03T08:49:21.732Z</time></trkpt><trkpt lat="40.5281825" lon="19.7299978"><ele>62.0</ele><time>2026-05-03T08:49:22.733Z</time></trkpt><trkpt lat="40.5282242" lon="19.7297377"><ele>58.66666666666667</ele><time>2026-05-03T08:49:23.734Z</time></trkpt><trkpt lat="40.5282749" lon="19.7294892"><ele>55.33333333333333</ele><time>2026-05-03T08:49:24.734Z</time></trkpt><trkpt lat="40.5283378" lon="19.7292474"><ele>52.0</ele><time>2026-05-03T08:49:25.734Z</time></trkpt><trkpt lat="40.5284165" lon="19.7290108"><ele>49.33333333333333</ele><time>2026-05-03T08:49:26.733Z</time></trkpt><trkpt lat="40.5285037" lon="19.7287912"><ele>46.666666666666664</ele><time>2026-05-03T08:49:27.733Z</time></trkpt><trkpt lat="40.5285998" lon="19.7285824"><ele>44.0</ele><time>2026-05-03T08:49:28.736Z</time></trkpt><trkpt lat="40.5287047" lon="19.7283861"><ele>48.666666666666664</ele><time>2026-05-03T08:49:29.731Z</time></trkpt><trkpt lat="40.528822" lon="19.7281963"><ele>53.33333333333333</ele><time>2026-05-03T08:49:30.731Z</time></trkpt><trkpt lat="40.52895" lon="19.7280113"><ele>58.0</ele><time>2026-05-03T08:49:31.735Z</time></trkpt><trkpt lat="40.5290842" lon="19.7278298"><ele>54.666666666666664</ele><time>2026-05-03T08:49:32.731Z</time></trkpt><trkpt lat="40.529218" lon="19.7276471"><ele>51.33333333333333</ele><time>2026-05-03T08:49:33.734Z</time></trkpt><trkpt lat="40.5293462" lon="19.7274668"><ele>48.0</ele><time>2026-05-03T08:49:34.731Z</time></trkpt><trkpt lat="40.5294695" lon="19.7272866"><ele>51.0</ele><time>2026-05-03T08:49:35.734Z</time></trkpt><trkpt lat="40.5295802" lon="19.7271018"><ele>54.0</ele><time>2026-05-03T08:49:36.734Z</time></trkpt><trkpt lat="40.5296777" lon="19.7268988"><ele>57.0</ele><time>2026-05-03T08:49:37.732Z</time></trkpt><trkpt lat="40.5297622" lon="19.726689"><ele>57.0</ele><time>2026-05-03T08:49:38.735Z</time></trkpt><trkpt lat="40.5298316" lon="19.7264729"><ele>57.0</ele><time>2026-05-03T08:49:39.732Z</time></trkpt><trkpt lat="40.5298863" lon="19.7262551"><ele>57.0</ele><time>2026-05-03T08:49:40.734Z</time></trkpt><trkpt lat="40.5299318" lon="19.7260424"><ele>55.0</ele><time>2026-05-03T08:49:41.735Z</time></trkpt><trkpt lat="40.52997" lon="19.7258266"><ele>53.0</ele><time>2026-05-03T08:49:42.735Z</time></trkpt><trkpt lat="40.5300034" lon="19.7256037"><ele>51.0</ele><time>2026-05-03T08:49:43.733Z</time></trkpt><trkpt lat="40.5300282" lon="19.7253877"><ele>50.0</ele><time>2026-05-03T08:49:44.733Z</time></trkpt><trkpt lat="40.5300514" lon="19.725174"><ele>49.0</ele><time>2026-05-03T08:49:45.735Z</time></trkpt><trkpt lat="40.5300753" lon="19.7249469"><ele>48.0</ele><time>2026-05-03T08:49:46.733Z</time></trkpt><trkpt lat="40.5301093" lon="19.7247197"><ele>48.0</ele><time>2026-05-03T08:49:47.734Z</time></trkpt><trkpt lat="40.530154" lon="19.7245021"><ele>48.0</ele><time>2026-05-03T08:49:48.733Z</time></trkpt><trkpt lat="40.5302073" lon="19.724288"><ele>48.0</ele><time>2026-05-03T08:49:49.733Z</time></trkpt><trkpt lat="40.5302706" lon="19.7240777"><ele>46.0</ele><time>2026-05-03T08:49:50.734Z</time></trkpt><trkpt lat="40.5303423" lon="19.7238642"><ele>44.0</ele><time>2026-05-03T08:49:51.732Z</time></trkpt><trkpt lat="40.530423" lon="19.7236541"><ele>42.0</ele><time>2026-05-03T08:49:52.734Z</time></trkpt><trkpt lat="40.5305097" lon="19.7234357"><ele>41.333333333333336</ele><time>2026-05-03T08:49:53.733Z</time></trkpt><trkpt lat="40.5306121" lon="19.7231983"><ele>40.66666666666667</ele><time>2026-05-03T08:49:54.736Z</time></trkpt><trkpt lat="40.5307295" lon="19.7229356"><ele>40.0</ele><time>2026-05-03T08:49:55.731Z</time></trkpt><trkpt lat="40.5308592" lon="19.7226524"><ele>40.0</ele><time>2026-05-03T08:49:56.733Z</time></trkpt><trkpt lat="40.5310006" lon="19.722352"><ele>40.0</ele><time>2026-05-03T08:49:57.733Z</time></trkpt><trkpt lat="40.531152" lon="19.7220531"><ele>43.0</ele><time>2026-05-03T08:49:58.732Z</time></trkpt><trkpt lat="40.5313082" lon="19.7217503"><ele>46.0</ele><time>2026-05-03T08:49:59.737Z</time></trkpt><trkpt lat="40.5314608" lon="19.7214505"><ele>46.0</ele><time>2026-05-03T08:50:00.732Z</time></trkpt><trkpt lat="40.5316125" lon="19.7211531"><ele>46.0</ele><time>2026-05-03T08:50:01.734Z</time></trkpt><trkpt lat="40.5317595" lon="19.720857"><ele>41.5</ele><time>2026-05-03T08:50:02.731Z</time></trkpt><trkpt lat="40.5319035" lon="19.7205673"><ele>37.0</ele><time>2026-05-03T08:50:03.732Z</time></trkpt><trkpt lat="40.5320421" lon="19.7202856"><ele>46.0</ele><time>2026-05-03T08:50:04.731Z</time></trkpt><trkpt lat="40.5321753" lon="19.720012"><ele>55.0</ele><time>2026-05-03T08:50:05.734Z</time></trkpt><trkpt lat="40.5323033" lon="19.7197435"><ele>55.0</ele><time>2026-05-03T08:50:06.734Z</time></trkpt><trkpt lat="40.532425" lon="19.7194789"><ele>55.0</ele><time>2026-05-03T08:50:07.733Z</time></trkpt><trkpt lat="40.5325427" lon="19.7192081"><ele>49.0</ele><time>2026-05-03T08:50:08.733Z</time></trkpt><trkpt lat="40.5326568" lon="19.718932"><ele>43.0</ele><time>2026-05-03T08:50:09.732Z</time></trkpt><trkpt lat="40.5327647" lon="19.7186324"><ele>39.0</ele><time>2026-05-03T08:50:10.733Z</time></trkpt><trkpt lat="40.5328659" lon="19.7183233"><ele>35.0</ele><time>2026-05-03T08:50:11.734Z</time></trkpt><trkpt lat="40.5329692" lon="19.7180055"><ele>37.0</ele><time>2026-05-03T08:50:12.733Z</time></trkpt><trkpt lat="40.5330684" lon="19.7176751"><ele>39.0</ele><time>2026-05-03T08:50:13.732Z</time></trkpt><trkpt lat="40.5331598" lon="19.7173499"><ele>39.0</ele><time>2026-05-03T08:50:14.734Z</time></trkpt><trkpt lat="40.5332447" lon="19.7170304"><ele>39.0</ele><time>2026-05-03T08:50:15.731Z</time></trkpt><trkpt lat="40.5333217" lon="19.7167136"><ele>37.0</ele><time>2026-05-03T08:50:16.734Z</time></trkpt><trkpt lat="40.5333928" lon="19.716398"><ele>35.0</ele><time>2026-05-03T08:50:17.736Z</time></trkpt><trkpt lat="40.5334633" lon="19.7160837"><ele>34.5</ele><time>2026-05-03T08:50:18.728Z</time></trkpt><trkpt lat="40.5335345" lon="19.7157675"><ele>34.0</ele><time>2026-05-03T08:50:19.736Z</time></trkpt><trkpt lat="40.5336026" lon="19.7154492"><ele>34.0</ele><time>2026-05-03T08:50:20.731Z</time></trkpt><trkpt lat="40.5336731" lon="19.7151358"><ele>34.0</ele><time>2026-05-03T08:50:21.732Z</time></trkpt><trkpt lat="40.533743" lon="19.7148224"><ele>34.0</ele><time>2026-05-03T08:50:22.732Z</time></trkpt><trkpt lat="40.5338131" lon="19.7145107"><ele>34.0</ele><time>2026-05-03T08:50:23.731Z</time></trkpt><trkpt lat="40.5338823" lon="19.7141995"><ele>33.5</ele><time>2026-05-03T08:50:24.73Z</time></trkpt><trkpt lat="40.5339495" lon="19.7138906"><ele>33.0</ele><time>2026-05-03T08:50:25.734Z</time></trkpt><trkpt lat="40.534017" lon="19.713584"><ele>32.5</ele><time>2026-05-03T08:50:26.732Z</time></trkpt><trkpt lat="40.5340828" lon="19.7132788"><ele>32.0</ele><time>2026-05-03T08:50:27.733Z</time></trkpt><trkpt lat="40.5341515" lon="19.7129747"><ele>31.5</ele><time>2026-05-03T08:50:28.733Z</time></trkpt><trkpt lat="40.5342173" lon="19.7126711"><ele>31.0</ele><time>2026-05-03T08:50:29.732Z</time></trkpt><trkpt lat="40.5342836" lon="19.7123698"><ele>31.0</ele><time>2026-05-03T08:50:30.735Z</time></trkpt><trkpt lat="40.5343484" lon="19.7120701"><ele>31.0</ele><time>2026-05-03T08:50:31.733Z</time></trkpt><trkpt lat="40.5344162" lon="19.7117768"><ele>31.0</ele><time>2026-05-03T08:50:32.734Z</time></trkpt><trkpt lat="40.5344816" lon="19.7114841"><ele>31.0</ele><time>2026-05-03T08:50:33.732Z</time></trkpt><trkpt lat="40.5345481" lon="19.7111949"><ele>32.5</ele><time>2026-05-03T08:50:34.732Z</time></trkpt><trkpt lat="40.5346154" lon="19.710907"><ele>34.0</ele><time>2026-05-03T08:50:35.733Z</time></trkpt><trkpt lat="40.5346797" lon="19.7106213"><ele>34.0</ele><time>2026-05-03T08:50:36.732Z</time></trkpt><trkpt lat="40.5347433" lon="19.7103368"><ele>34.0</ele><time>2026-05-03T08:50:37.735Z</time></trkpt><trkpt lat="40.5348077" lon="19.7100527"><ele>34.0</ele><time>2026-05-03T08:50:38.733Z</time></trkpt><trkpt lat="40.5348723" lon="19.7097691"><ele>34.0</ele><time>2026-05-03T08:50:39.732Z</time></trkpt><trkpt lat="40.5349349" lon="19.7094884"><ele>34.0</ele><time>2026-05-03T08:50:40.732Z</time></trkpt><trkpt lat="40.5349964" lon="19.7092069"><ele>33.66666666666667</ele><time>2026-05-03T08:50:41.735Z</time></trkpt><trkpt lat="40.5350573" lon="19.7089272"><ele>33.333333333333336</ele><time>2026-05-03T08:50:42.734Z</time></trkpt><trkpt lat="40.5351188" lon="19.7086498"><ele>33.0</ele><time>2026-05-03T08:50:43.732Z</time></trkpt><trkpt lat="40.5351798" lon="19.7083664"><ele>33.0</ele><time>2026-05-03T08:50:44.732Z</time></trkpt><trkpt lat="40.535243" lon="19.7080866"><ele>33.0</ele><time>2026-05-03T08:50:45.733Z</time></trkpt><trkpt lat="40.5353079" lon="19.707806"><ele>33.0</ele><time>2026-05-03T08:50:46.732Z</time></trkpt><trkpt lat="40.5353742" lon="19.7075273"><ele>33.0</ele><time>2026-05-03T08:50:47.731Z</time></trkpt><trkpt lat="40.5354384" lon="19.7072453"><ele>33.0</ele><time>2026-05-03T08:50:48.733Z</time></trkpt><trkpt lat="40.5355024" lon="19.7069642"><ele>33.0</ele><time>2026-05-03T08:50:49.734Z</time></trkpt><trkpt lat="40.535568" lon="19.7066829"><ele>33.0</ele><time>2026-05-03T08:50:50.732Z</time></trkpt><trkpt lat="40.5356342" lon="19.7064017"><ele>33.0</ele><time>2026-05-03T08:50:51.733Z</time></trkpt><trkpt lat="40.535699" lon="19.706119"><ele>33.0</ele><time>2026-05-03T08:50:52.733Z</time></trkpt><trkpt lat="40.5357612" lon="19.7058344"><ele>32.0</ele><time>2026-05-03T08:50:53.733Z</time></trkpt><trkpt lat="40.5358239" lon="19.7055466"><ele>31.0</ele><time>2026-05-03T08:50:54.733Z</time></trkpt><trkpt lat="40.5358848" lon="19.7052601"><ele>31.0</ele><time>2026-05-03T08:50:55.732Z</time></trkpt><trkpt lat="40.535944" lon="19.7049727"><ele>31.0</ele><time>2026-05-03T08:50:56.734Z</time></trkpt><trkpt lat="40.5360049" lon="19.7046858"><ele>31.5</ele><time>2026-05-03T08:50:57.731Z</time></trkpt><trkpt lat="40.5360636" lon="19.7043977"><ele>32.0</ele><time>2026-05-03T08:50:58.733Z</time></trkpt><trkpt lat="40.5361261" lon="19.7041118"><ele>32.0</ele><time>2026-05-03T08:50:59.734Z</time></trkpt><trkpt lat="40.5361896" lon="19.7038263"><ele>32.0</ele><time>2026-05-03T08:51:00.734Z</time></trkpt><trkpt lat="40.5362515" lon="19.7035387"><ele>32.0</ele><time>2026-05-03T08:51:01.734Z</time></trkpt><trkpt lat="40.5363121" lon="19.7032505"><ele>32.0</ele><time>2026-05-03T08:51:02.733Z</time></trkpt><trkpt lat="40.5363796" lon="19.7029629"><ele>31.5</ele><time>2026-05-03T08:51:03.733Z</time></trkpt><trkpt lat="40.5364442" lon="19.7026756"><ele>31.0</ele><time>2026-05-03T08:51:04.734Z</time></trkpt><trkpt lat="40.5365066" lon="19.7023885"><ele>31.0</ele><time>2026-05-03T08:51:05.735Z</time></trkpt><trkpt lat="40.5365693" lon="19.7021015"><ele>31.0</ele><time>2026-05-03T08:51:06.735Z</time></trkpt><trkpt lat="40.5366313" lon="19.7018161"><ele>30.5</ele><time>2026-05-03T08:51:07.733Z</time></trkpt><trkpt lat="40.5366945" lon="19.7015283"><ele>30.0</ele><time>2026-05-03T08:51:08.733Z</time></trkpt><trkpt lat="40.5367595" lon="19.7012403"><ele>30.0</ele><time>2026-05-03T08:51:09.732Z</time></trkpt><trkpt lat="40.5368246" lon="19.7009517"><ele>30.0</ele><time>2026-05-03T08:51:10.733Z</time></trkpt><trkpt lat="40.5369008" lon="19.7006584"><ele>30.0</ele><time>2026-05-03T08:51:11.735Z</time></trkpt><trkpt lat="40.5369636" lon="19.7003678"><ele>30.0</ele><time>2026-05-03T08:51:12.733Z</time></trkpt><trkpt lat="40.5370271" lon="19.7000746"><ele>30.0</ele><time>2026-05-03T08:51:13.733Z</time></trkpt><trkpt lat="40.5370924" lon="19.6997802"><ele>30.0</ele><time>2026-05-03T08:51:14.732Z</time></trkpt><trkpt lat="40.5371592" lon="19.6994843"><ele>30.0</ele><time>2026-05-03T08:51:15.732Z</time></trkpt><trkpt lat="40.5372256" lon="19.6991859"><ele>30.0</ele><time>2026-05-03T08:51:16.734Z</time></trkpt><trkpt lat="40.5372921" lon="19.6988869"><ele>30.0</ele><time>2026-05-03T08:51:17.732Z</time></trkpt><trkpt lat="40.5373579" lon="19.6985868"><ele>30.0</ele><time>2026-05-03T08:51:18.733Z</time></trkpt><trkpt lat="40.5374229" lon="19.6982861"><ele>30.0</ele><time>2026-05-03T08:51:19.734Z</time></trkpt><trkpt lat="40.5374902" lon="19.6979851"><ele>30.0</ele><time>2026-05-03T08:51:20.733Z</time></trkpt><trkpt lat="40.5375586" lon="19.697683"><ele>29.5</ele><time>2026-05-03T08:51:21.73Z</time></trkpt><trkpt lat="40.5376257" lon="19.697381"><ele>29.0</ele><time>2026-05-03T08:51:22.731Z</time></trkpt><trkpt lat="40.5376955" lon="19.697079"><ele>29.5</ele><time>2026-05-03T08:51:23.735Z</time></trkpt><trkpt lat="40.5377684" lon="19.696777"><ele>30.0</ele><time>2026-05-03T08:51:24.735Z</time></trkpt><trkpt lat="40.5378438" lon="19.6964748"><ele>29.5</ele><time>2026-05-03T08:51:25.732Z</time></trkpt><trkpt lat="40.5379205" lon="19.6961738"><ele>29.0</ele><time>2026-05-03T08:51:26.733Z</time></trkpt><trkpt lat="40.5380002" lon="19.6958746"><ele>29.0</ele><time>2026-05-03T08:51:27.732Z</time></trkpt><trkpt lat="40.5380778" lon="19.6955751"><ele>29.0</ele><time>2026-05-03T08:51:28.731Z</time></trkpt><trkpt lat="40.5381581" lon="19.6952759"><ele>29.0</ele><time>2026-05-03T08:51:29.735Z</time></trkpt><trkpt lat="40.5382392" lon="19.6949764"><ele>29.0</ele><time>2026-05-03T08:51:30.734Z</time></trkpt><trkpt lat="40.5383209" lon="19.6946771"><ele>28.5</ele><time>2026-05-03T08:51:31.733Z</time></trkpt><trkpt lat="40.5384023" lon="19.6943766"><ele>28.0</ele><time>2026-05-03T08:51:32.735Z</time></trkpt><trkpt lat="40.5384842" lon="19.6940782"><ele>28.0</ele><time>2026-05-03T08:51:33.732Z</time></trkpt><trkpt lat="40.5385665" lon="19.693781"><ele>28.0</ele><time>2026-05-03T08:51:34.736Z</time></trkpt><trkpt lat="40.5386519" lon="19.6934866"><ele>28.0</ele><time>2026-05-03T08:51:35.729Z</time></trkpt><trkpt lat="40.5387413" lon="19.6931954"><ele>28.0</ele><time>2026-05-03T08:51:36.732Z</time></trkpt><trkpt lat="40.5388311" lon="19.6929006"><ele>28.0</ele><time>2026-05-03T08:51:37.732Z</time></trkpt><trkpt lat="40.5389224" lon="19.6926087"><ele>28.0</ele><time>2026-05-03T08:51:38.734Z</time></trkpt><trkpt lat="40.5390129" lon="19.6923172"><ele>28.0</ele><time>2026-05-03T08:51:39.734Z</time></trkpt><trkpt lat="40.5391031" lon="19.6920269"><ele>28.0</ele><time>2026-05-03T08:51:40.733Z</time></trkpt><trkpt lat="40.5391935" lon="19.6917381"><ele>28.5</ele><time>2026-05-03T08:51:41.736Z</time></trkpt><trkpt lat="40.5392858" lon="19.6914523"><ele>29.0</ele><time>2026-05-03T08:51:42.734Z</time></trkpt><trkpt lat="40.5393755" lon="19.6911727"><ele>29.0</ele><time>2026-05-03T08:51:43.733Z</time></trkpt><trkpt lat="40.5394668" lon="19.6908935"><ele>29.0</ele><time>2026-05-03T08:51:44.736Z</time></trkpt><trkpt lat="40.5395581" lon="19.6906167"><ele>29.0</ele><time>2026-05-03T08:51:45.732Z</time></trkpt><trkpt lat="40.5396514" lon="19.6903436"><ele>29.0</ele><time>2026-05-03T08:51:46.733Z</time></trkpt><trkpt lat="40.5397479" lon="19.6900695"><ele>28.5</ele><time>2026-05-03T08:51:47.733Z</time></trkpt><trkpt lat="40.5398444" lon="19.6897981"><ele>28.0</ele><time>2026-05-03T08:51:48.734Z</time></trkpt><trkpt lat="40.5399426" lon="19.6895254"><ele>28.0</ele><time>2026-05-03T08:51:49.734Z</time></trkpt><trkpt lat="40.5400404" lon="19.6892542"><ele>28.0</ele><time>2026-05-03T08:51:50.734Z</time></trkpt><trkpt lat="40.5401385" lon="19.6889827"><ele>28.0</ele><time>2026-05-03T08:51:51.734Z</time></trkpt><trkpt lat="40.5402375" lon="19.6887127"><ele>28.0</ele><time>2026-05-03T08:51:52.734Z</time></trkpt><trkpt lat="40.5403353" lon="19.6884439"><ele>27.5</ele><time>2026-05-03T08:51:53.737Z</time></trkpt><trkpt lat="40.5404367" lon="19.6881752"><ele>27.0</ele><time>2026-05-03T08:51:54.734Z</time></trkpt><trkpt lat="40.5405377" lon="19.6879099"><ele>27.5</ele><time>2026-05-03T08:51:55.733Z</time></trkpt><trkpt lat="40.5406409" lon="19.6876455"><ele>28.0</ele><time>2026-05-03T08:51:56.733Z</time></trkpt><trkpt lat="40.5407433" lon="19.6873793"><ele>28.0</ele><time>2026-05-03T08:51:57.734Z</time></trkpt><trkpt lat="40.5408437" lon="19.6871141"><ele>28.0</ele><time>2026-05-03T08:51:58.736Z</time></trkpt><trkpt lat="40.540944" lon="19.6868482"><ele>27.666666666666668</ele><time>2026-05-03T08:51:59.734Z</time></trkpt><trkpt lat="40.5410424" lon="19.6865835"><ele>27.333333333333336</ele><time>2026-05-03T08:52:00.734Z</time></trkpt><trkpt lat="40.5411405" lon="19.686321"><ele>27.0</ele><time>2026-05-03T08:52:01.735Z</time></trkpt><trkpt lat="40.5412387" lon="19.686059"><ele>27.0</ele><time>2026-05-03T08:52:02.732Z</time></trkpt><trkpt lat="40.5413379" lon="19.6857969"><ele>27.0</ele><time>2026-05-03T08:52:03.732Z</time></trkpt><trkpt lat="40.5414366" lon="19.6855353"><ele>27.0</ele><time>2026-05-03T08:52:04.734Z</time></trkpt><trkpt lat="40.5415367" lon="19.6852703"><ele>26.666666666666664</ele><time>2026-05-03T08:52:05.733Z</time></trkpt><trkpt lat="40.5416347" lon="19.6850052"><ele>26.333333333333332</ele><time>2026-05-03T08:52:06.734Z</time></trkpt><trkpt lat="40.5417325" lon="19.6847404"><ele>26.0</ele><time>2026-05-03T08:52:07.731Z</time></trkpt><trkpt lat="40.5418322" lon="19.6844744"><ele>25.5</ele><time>2026-05-03T08:52:08.734Z</time></trkpt><trkpt lat="40.5419333" lon="19.6842078"><ele>25.0</ele><time>2026-05-03T08:52:09.731Z</time></trkpt><trkpt lat="40.5420339" lon="19.6839405"><ele>25.5</ele><time>2026-05-03T08:52:10.733Z</time></trkpt><trkpt lat="40.5421339" lon="19.6836725"><ele>26.0</ele><time>2026-05-03T08:52:11.732Z</time></trkpt><trkpt lat="40.5422343" lon="19.6834041"><ele>26.5</ele><time>2026-05-03T08:52:12.734Z</time></trkpt><trkpt lat="40.5423356" lon="19.683137"><ele>27.0</ele><time>2026-05-03T08:52:13.734Z</time></trkpt><trkpt lat="40.5424351" lon="19.6828692"><ele>26.5</ele><time>2026-05-03T08:52:14.735Z</time></trkpt><trkpt lat="40.5425338" lon="19.6826005"><ele>26.0</ele><time>2026-05-03T08:52:15.73Z</time></trkpt><trkpt lat="40.5426317" lon="19.6823321"><ele>26.0</ele><time>2026-05-03T08:52:16.733Z</time></trkpt><trkpt lat="40.5427321" lon="19.6820635"><ele>26.0</ele><time>2026-05-03T08:52:17.732Z</time></trkpt><trkpt lat="40.5428335" lon="19.6817908"><ele>25.5</ele><time>2026-05-03T08:52:18.732Z</time></trkpt><trkpt lat="40.5429352" lon="19.6815175"><ele>25.0</ele><time>2026-05-03T08:52:19.736Z</time></trkpt><trkpt lat="40.5430398" lon="19.6812424"><ele>25.5</ele><time>2026-05-03T08:52:20.734Z</time></trkpt><trkpt lat="40.5431453" lon="19.6809664"><ele>26.0</ele><time>2026-05-03T08:52:21.734Z</time></trkpt><trkpt lat="40.5432496" lon="19.6806893"><ele>26.0</ele><time>2026-05-03T08:52:22.734Z</time></trkpt><trkpt lat="40.5433557" lon="19.6804098"><ele>26.0</ele><time>2026-05-03T08:52:23.731Z</time></trkpt><trkpt lat="40.5434602" lon="19.6801297"><ele>26.5</ele><time>2026-05-03T08:52:24.734Z</time></trkpt><trkpt lat="40.5435676" lon="19.6798496"><ele>27.0</ele><time>2026-05-03T08:52:25.732Z</time></trkpt><trkpt lat="40.5436742" lon="19.6795706"><ele>26.0</ele><time>2026-05-03T08:52:26.733Z</time></trkpt><trkpt lat="40.5437789" lon="19.6792885"><ele>25.0</ele><time>2026-05-03T08:52:27.733Z</time></trkpt><trkpt lat="40.543884" lon="19.6790068"><ele>25.0</ele><time>2026-05-03T08:52:28.734Z</time></trkpt><trkpt lat="40.5439888" lon="19.6787253"><ele>25.0</ele><time>2026-05-03T08:52:29.735Z</time></trkpt><trkpt lat="40.5440952" lon="19.6784434"><ele>25.5</ele><time>2026-05-03T08:52:30.734Z</time></trkpt><trkpt lat="40.5441994" lon="19.6781605"><ele>26.0</ele><time>2026-05-03T08:52:31.732Z</time></trkpt><trkpt lat="40.5443052" lon="19.6778804"><ele>26.5</ele><time>2026-05-03T08:52:32.734Z</time></trkpt><trkpt lat="40.5444095" lon="19.6776022"><ele>27.0</ele><time>2026-05-03T08:52:33.733Z</time></trkpt><trkpt lat="40.5445139" lon="19.677324"><ele>25.5</ele><time>2026-05-03T08:52:34.73Z</time></trkpt><trkpt lat="40.5446177" lon="19.6770456"><ele>24.0</ele><time>2026-05-03T08:52:35.733Z</time></trkpt><trkpt lat="40.5447219" lon="19.6767673"><ele>24.0</ele><time>2026-05-03T08:52:36.732Z</time></trkpt><trkpt lat="40.5448277" lon="19.6764899"><ele>24.0</ele><time>2026-05-03T08:52:37.732Z</time></trkpt><trkpt lat="40.5449301" lon="19.6762146"><ele>25.0</ele><time>2026-05-03T08:52:38.733Z</time></trkpt><trkpt lat="40.5450383" lon="19.6759316"><ele>26.0</ele><time>2026-05-03T08:52:39.734Z</time></trkpt><trkpt lat="40.5451414" lon="19.6756578"><ele>26.0</ele><time>2026-05-03T08:52:40.733Z</time></trkpt><trkpt lat="40.5452435" lon="19.6753837"><ele>26.0</ele><time>2026-05-03T08:52:41.73Z</time></trkpt><trkpt lat="40.5453443" lon="19.6751091"><ele>25.0</ele><time>2026-05-03T08:52:42.731Z</time></trkpt><trkpt lat="40.5454462" lon="19.6748366"><ele>24.0</ele><time>2026-05-03T08:52:43.732Z</time></trkpt><trkpt lat="40.545546" lon="19.6745646"><ele>24.5</ele><time>2026-05-03T08:52:44.732Z</time></trkpt><trkpt lat="40.5456458" lon="19.6742939"><ele>25.0</ele><time>2026-05-03T08:52:45.732Z</time></trkpt><trkpt lat="40.5457479" lon="19.6740257"><ele>25.0</ele><time>2026-05-03T08:52:46.731Z</time></trkpt><trkpt lat="40.5458515" lon="19.6737571"><ele>25.0</ele><time>2026-05-03T08:52:47.731Z</time></trkpt><trkpt lat="40.5459593" lon="19.67349"><ele>25.0</ele><time>2026-05-03T08:52:48.732Z</time></trkpt><trkpt lat="40.546067" lon="19.6732185"><ele>25.0</ele><time>2026-05-03T08:52:49.733Z</time></trkpt><trkpt lat="40.5461711" lon="19.672943"><ele>25.0</ele><time>2026-05-03T08:52:50.731Z</time></trkpt><trkpt lat="40.5462719" lon="19.6726607"><ele>25.0</ele><time>2026-05-03T08:52:51.732Z</time></trkpt><trkpt lat="40.5463731" lon="19.6723786"><ele>25.0</ele><time>2026-05-03T08:52:52.731Z</time></trkpt><trkpt lat="40.5464772" lon="19.6720933"><ele>25.0</ele><time>2026-05-03T08:52:53.733Z</time></trkpt><trkpt lat="40.5465827" lon="19.6718064"><ele>24.5</ele><time>2026-05-03T08:52:54.732Z</time></trkpt><trkpt lat="40.5466897" lon="19.6715225"><ele>24.0</ele><time>2026-05-03T08:52:55.732Z</time></trkpt><trkpt lat="40.546797" lon="19.671236"><ele>24.5</ele><time>2026-05-03T08:52:56.731Z</time></trkpt><trkpt lat="40.5469051" lon="19.6709514"><ele>25.0</ele><time>2026-05-03T08:52:57.732Z</time></trkpt><trkpt lat="40.5470143" lon="19.6706649"><ele>24.5</ele><time>2026-05-03T08:52:58.731Z</time></trkpt><trkpt lat="40.5471241" lon="19.6703816"><ele>24.0</ele><time>2026-05-03T08:52:59.732Z</time></trkpt><trkpt lat="40.5472331" lon="19.6700974"><ele>24.0</ele><time>2026-05-03T08:53:00.732Z</time></trkpt><trkpt lat="40.5473441" lon="19.6698157"><ele>24.0</ele><time>2026-05-03T08:53:01.734Z</time></trkpt><trkpt lat="40.5474572" lon="19.6695378"><ele>23.5</ele><time>2026-05-03T08:53:02.732Z</time></trkpt><trkpt lat="40.547573" lon="19.6692661"><ele>23.0</ele><time>2026-05-03T08:53:03.731Z</time></trkpt><trkpt lat="40.5476884" lon="19.6689945"><ele>23.0</ele><time>2026-05-03T08:53:04.733Z</time></trkpt><trkpt lat="40.5478055" lon="19.668726"><ele>23.0</ele><time>2026-05-03T08:53:05.733Z</time></trkpt><trkpt lat="40.5479233" lon="19.6684579"><ele>23.0</ele><time>2026-05-03T08:53:06.731Z</time></trkpt><trkpt lat="40.5480405" lon="19.6681918"><ele>23.0</ele><time>2026-05-03T08:53:07.732Z</time></trkpt><trkpt lat="40.5481567" lon="19.6679287"><ele>23.5</ele><time>2026-05-03T08:53:08.733Z</time></trkpt><trkpt lat="40.5482712" lon="19.6676635"><ele>24.0</ele><time>2026-05-03T08:53:09.731Z</time></trkpt><trkpt lat="40.5483861" lon="19.6674001"><ele>24.0</ele><time>2026-05-03T08:53:10.731Z</time></trkpt><trkpt lat="40.5485041" lon="19.6671389"><ele>24.0</ele><time>2026-05-03T08:53:11.733Z</time></trkpt><trkpt lat="40.548621" lon="19.666878"><ele>24.0</ele><time>2026-05-03T08:53:12.732Z</time></trkpt><trkpt lat="40.548741" lon="19.66662"><ele>24.0</ele><time>2026-05-03T08:53:13.732Z</time></trkpt><trkpt lat="40.5488607" lon="19.6663621"><ele>24.0</ele><time>2026-05-03T08:53:14.731Z</time></trkpt><trkpt lat="40.5489804" lon="19.6661059"><ele>24.0</ele><time>2026-05-03T08:53:15.731Z</time></trkpt><trkpt lat="40.5490993" lon="19.6658483"><ele>24.0</ele><time>2026-05-03T08:53:16.732Z</time></trkpt><trkpt lat="40.5492221" lon="19.665595"><ele>24.0</ele><time>2026-05-03T08:53:17.732Z</time></trkpt><trkpt lat="40.5493446" lon="19.6653425"><ele>24.0</ele><time>2026-05-03T08:53:18.733Z</time></trkpt><trkpt lat="40.5494669" lon="19.6650901"><ele>24.0</ele><time>2026-05-03T08:53:19.733Z</time></trkpt><trkpt lat="40.5495887" lon="19.6648382"><ele>24.0</ele><time>2026-05-03T08:53:20.734Z</time></trkpt><trkpt lat="40.5497133" lon="19.6645913"><ele>24.0</ele><time>2026-05-03T08:53:21.731Z</time></trkpt><trkpt lat="40.5498353" lon="19.6643435"><ele>24.0</ele><time>2026-05-03T08:53:22.732Z</time></trkpt><trkpt lat="40.5499585" lon="19.6640983"><ele>24.0</ele><time>2026-05-03T08:53:23.731Z</time></trkpt><trkpt lat="40.5500828" lon="19.6638509"><ele>24.0</ele><time>2026-05-03T08:53:24.731Z</time></trkpt><trkpt lat="40.550212" lon="19.6636052"><ele>23.5</ele><time>2026-05-03T08:53:25.732Z</time></trkpt><trkpt lat="40.5503425" lon="19.6633628"><ele>23.0</ele><time>2026-05-03T08:53:26.731Z</time></trkpt><trkpt lat="40.5504706" lon="19.6631189"><ele>23.0</ele><time>2026-05-03T08:53:27.731Z</time></trkpt><trkpt lat="40.550598" lon="19.6628763"><ele>23.0</ele><time>2026-05-03T08:53:28.733Z</time></trkpt><trkpt lat="40.5507272" lon="19.6626333"><ele>23.0</ele><time>2026-05-03T08:53:29.734Z</time></trkpt><trkpt lat="40.5508558" lon="19.6623882"><ele>23.0</ele><time>2026-05-03T08:53:30.732Z</time></trkpt><trkpt lat="40.5509826" lon="19.6621444"><ele>23.0</ele><time>2026-05-03T08:53:31.733Z</time></trkpt><trkpt lat="40.5511116" lon="19.6618979"><ele>23.0</ele><time>2026-05-03T08:53:32.732Z</time></trkpt><trkpt lat="40.5512423" lon="19.6616535"><ele>23.0</ele><time>2026-05-03T08:53:33.73Z</time></trkpt><trkpt lat="40.5513759" lon="19.6613992"><ele>23.0</ele><time>2026-05-03T08:53:34.733Z</time></trkpt><trkpt lat="40.5515116" lon="19.6611494"><ele>23.0</ele><time>2026-05-03T08:53:35.733Z</time></trkpt><trkpt lat="40.5516418" lon="19.6608912"><ele>22.5</ele><time>2026-05-03T08:53:36.731Z</time></trkpt><trkpt lat="40.5517729" lon="19.6606393"><ele>22.0</ele><time>2026-05-03T08:53:37.733Z</time></trkpt><trkpt lat="40.5519017" lon="19.660388"><ele>22.0</ele><time>2026-05-03T08:53:38.733Z</time></trkpt><trkpt lat="40.55203" lon="19.660139"><ele>22.0</ele><time>2026-05-03T08:53:39.732Z</time></trkpt><trkpt lat="40.5521588" lon="19.659892"><ele>22.5</ele><time>2026-05-03T08:53:40.73Z</time></trkpt><trkpt lat="40.552289" lon="19.659645"><ele>23.0</ele><time>2026-05-03T08:53:41.732Z</time></trkpt><trkpt lat="40.552416" lon="19.6594037"><ele>23.333333333333336</ele><time>2026-05-03T08:53:42.732Z</time></trkpt><trkpt lat="40.5525405" lon="19.6591669"><ele>23.666666666666668</ele><time>2026-05-03T08:53:43.733Z</time></trkpt><trkpt lat="40.5526643" lon="19.6589333"><ele>24.0</ele><time>2026-05-03T08:53:44.73Z</time></trkpt><trkpt lat="40.5527876" lon="19.6587032"><ele>23.666666666666668</ele><time>2026-05-03T08:53:45.733Z</time></trkpt><trkpt lat="40.5529104" lon="19.6584745"><ele>23.333333333333336</ele><time>2026-05-03T08:53:46.733Z</time></trkpt><trkpt lat="40.5530294" lon="19.6582453"><ele>23.0</ele><time>2026-05-03T08:53:47.734Z</time></trkpt><trkpt lat="40.5531474" lon="19.6580188"><ele>23.0</ele><time>2026-05-03T08:53:48.729Z</time></trkpt><trkpt lat="40.5532666" lon="19.6577948"><ele>23.0</ele><time>2026-05-03T08:53:49.73Z</time></trkpt><trkpt lat="40.5533809" lon="19.6575635"><ele>23.0</ele><time>2026-05-03T08:53:50.729Z</time></trkpt><trkpt lat="40.5534973" lon="19.6573398"><ele>23.333333333333336</ele><time>2026-05-03T08:53:51.731Z</time></trkpt><trkpt lat="40.5536116" lon="19.657123"><ele>23.666666666666668</ele><time>2026-05-03T08:53:52.73Z</time></trkpt><trkpt lat="40.5537238" lon="19.6569138"><ele>24.0</ele><time>2026-05-03T08:53:53.734Z</time></trkpt><trkpt lat="40.5538349" lon="19.6566953"><ele>23.333333333333332</ele><time>2026-05-03T08:53:54.732Z</time></trkpt><trkpt lat="40.5539437" lon="19.656485"><ele>22.666666666666664</ele><time>2026-05-03T08:53:55.733Z</time></trkpt><trkpt lat="40.5540518" lon="19.6562733"><ele>22.0</ele><time>2026-05-03T08:53:56.731Z</time></trkpt><trkpt lat="40.5541595" lon="19.6560597"><ele>22.0</ele><time>2026-05-03T08:53:57.732Z</time></trkpt><trkpt lat="40.5542681" lon="19.6558473"><ele>22.0</ele><time>2026-05-03T08:53:58.733Z</time></trkpt><trkpt lat="40.5543801" lon="19.655641"><ele>22.0</ele><time>2026-05-03T08:53:59.731Z</time></trkpt><trkpt lat="40.5544931" lon="19.6554356"><ele>22.0</ele><time>2026-05-03T08:54:00.731Z</time></trkpt><trkpt lat="40.5546076" lon="19.655231"><ele>22.0</ele><time>2026-05-03T08:54:01.734Z</time></trkpt><trkpt lat="40.5547251" lon="19.655032"><ele>22.0</ele><time>2026-05-03T08:54:02.732Z</time></trkpt><trkpt lat="40.554844" lon="19.6548397"><ele>22.0</ele><time>2026-05-03T08:54:03.732Z</time></trkpt><trkpt lat="40.5549607" lon="19.6546491"><ele>22.0</ele><time>2026-05-03T08:54:04.73Z</time></trkpt><trkpt lat="40.5550813" lon="19.654471"><ele>22.0</ele><time>2026-05-03T08:54:05.731Z</time></trkpt><trkpt lat="40.5551962" lon="19.6543134"><ele>22.25</ele><time>2026-05-03T08:54:06.734Z</time></trkpt><trkpt lat="40.555306" lon="19.6541714"><ele>22.5</ele><time>2026-05-03T08:54:07.733Z</time></trkpt><trkpt lat="40.5554128" lon="19.6540485"><ele>22.75</ele><time>2026-05-03T08:54:08.732Z</time></trkpt><trkpt lat="40.5555097" lon="19.6539414"><ele>23.0</ele><time>2026-05-03T08:54:09.731Z</time></trkpt><trkpt lat="40.5556009" lon="19.6538406"><ele>23.0</ele><time>2026-05-03T08:54:10.731Z</time></trkpt><trkpt lat="40.5556846" lon="19.6537502"><ele>23.0</ele><time>2026-05-03T08:54:11.736Z</time></trkpt><trkpt lat="40.5557761" lon="19.6536551"><ele>23.0</ele><time>2026-05-03T08:54:12.733Z</time></trkpt><trkpt lat="40.555878" lon="19.6535477"><ele>23.0</ele><time>2026-05-03T08:54:13.734Z</time></trkpt><trkpt lat="40.5559891" lon="19.6534393"><ele>23.0</ele><time>2026-05-03T08:54:14.732Z</time></trkpt><trkpt lat="40.5561049" lon="19.6533327"><ele>23.0</ele><time>2026-05-03T08:54:15.731Z</time></trkpt><trkpt lat="40.5562377" lon="19.6532168"><ele>23.0</ele><time>2026-05-03T08:54:16.732Z</time></trkpt><trkpt lat="40.5563855" lon="19.6530946"><ele>25.333333333333336</ele><time>2026-05-03T08:54:17.733Z</time></trkpt><trkpt lat="40.5565493" lon="19.6529682"><ele>27.666666666666668</ele><time>2026-05-03T08:54:18.734Z</time></trkpt><trkpt lat="40.5567216" lon="19.652841"><ele>30.0</ele><time>2026-05-03T08:54:19.731Z</time></trkpt><trkpt lat="40.5569043" lon="19.6527113"><ele>33.0</ele><time>2026-05-03T08:54:20.734Z</time></trkpt><trkpt lat="40.5570956" lon="19.6525635"><ele>36.0</ele><time>2026-05-03T08:54:21.733Z</time></trkpt><trkpt lat="40.5572812" lon="19.6524171"><ele>39.0</ele><time>2026-05-03T08:54:22.731Z</time></trkpt><trkpt lat="40.5574652" lon="19.6522498"><ele>39.0</ele><time>2026-05-03T08:54:23.733Z</time></trkpt><trkpt lat="40.5576344" lon="19.6520707"><ele>39.0</ele><time>2026-05-03T08:54:24.733Z</time></trkpt><trkpt lat="40.5577979" lon="19.6518756"><ele>39.0</ele><time>2026-05-03T08:54:25.735Z</time></trkpt><trkpt lat="40.5579583" lon="19.6516644"><ele>33.5</ele><time>2026-05-03T08:54:26.734Z</time></trkpt><trkpt lat="40.5581092" lon="19.651443"><ele>28.0</ele><time>2026-05-03T08:54:27.734Z</time></trkpt><trkpt lat="40.558253" lon="19.6512088"><ele>27.5</ele><time>2026-05-03T08:54:28.732Z</time></trkpt><trkpt lat="40.5583921" lon="19.6509716"><ele>27.0</ele><time>2026-05-03T08:54:29.734Z</time></trkpt><trkpt lat="40.5585298" lon="19.6507342"><ele>27.0</ele><time>2026-05-03T08:54:30.732Z</time></trkpt><trkpt lat="40.5586655" lon="19.6504977"><ele>27.0</ele><time>2026-05-03T08:54:31.735Z</time></trkpt><trkpt lat="40.5588009" lon="19.6502602"><ele>27.5</ele><time>2026-05-03T08:54:32.732Z</time></trkpt><trkpt lat="40.5589393" lon="19.6500247"><ele>28.0</ele><time>2026-05-03T08:54:33.731Z</time></trkpt><trkpt lat="40.5590925" lon="19.6498079"><ele>28.0</ele><time>2026-05-03T08:54:34.733Z</time></trkpt><trkpt lat="40.5592548" lon="19.6496033"><ele>28.0</ele><time>2026-05-03T08:54:35.731Z</time></trkpt><trkpt lat="40.5594297" lon="19.6494133"><ele>32.0</ele><time>2026-05-03T08:54:36.731Z</time></trkpt><trkpt lat="40.5596085" lon="19.6492372"><ele>36.0</ele><time>2026-05-03T08:54:37.731Z</time></trkpt><trkpt lat="40.5597916" lon="19.6490756"><ele>40.0</ele><time>2026-05-03T08:54:38.732Z</time></trkpt><trkpt lat="40.5599797" lon="19.6489303"><ele>40.0</ele><time>2026-05-03T08:54:39.733Z</time></trkpt><trkpt lat="40.5601705" lon="19.6488047"><ele>40.0</ele><time>2026-05-03T08:54:40.736Z</time></trkpt><trkpt lat="40.5603622" lon="19.6486945"><ele>40.0</ele><time>2026-05-03T08:54:41.732Z</time></trkpt><trkpt lat="40.5605542" lon="19.6485984"><ele>38.0</ele><time>2026-05-03T08:54:42.731Z</time></trkpt><trkpt lat="40.5607481" lon="19.6485041"><ele>36.0</ele><time>2026-05-03T08:54:43.733Z</time></trkpt><trkpt lat="40.5609416" lon="19.6484329"><ele>34.0</ele><time>2026-05-03T08:54:44.734Z</time></trkpt><trkpt lat="40.5611435" lon="19.648374"><ele>37.0</ele><time>2026-05-03T08:54:45.733Z</time></trkpt><trkpt lat="40.5613437" lon="19.6483336"><ele>40.0</ele><time>2026-05-03T08:54:46.734Z</time></trkpt><trkpt lat="40.5615481" lon="19.6482967"><ele>43.0</ele><time>2026-05-03T08:54:47.734Z</time></trkpt><trkpt lat="40.5617415" lon="19.6482871"><ele>43.0</ele><time>2026-05-03T08:54:48.736Z</time></trkpt><trkpt lat="40.5619323" lon="19.6482935"><ele>43.0</ele><time>2026-05-03T08:54:49.735Z</time></trkpt><trkpt lat="40.5621146" lon="19.6483037"><ele>43.0</ele><time>2026-05-03T08:54:50.73Z</time></trkpt><trkpt lat="40.562294" lon="19.6483283"><ele>46.0</ele><time>2026-05-03T08:54:51.734Z</time></trkpt><trkpt lat="40.5624737" lon="19.6483478"><ele>49.0</ele><time>2026-05-03T08:54:52.733Z</time></trkpt><trkpt lat="40.562655" lon="19.6483638"><ele>52.0</ele><time>2026-05-03T08:54:53.731Z</time></trkpt><trkpt lat="40.5628337" lon="19.6483796"><ele>55.33333333333333</ele><time>2026-05-03T08:54:54.733Z</time></trkpt><trkpt lat="40.5630071" lon="19.6483897"><ele>58.66666666666667</ele><time>2026-05-03T08:54:55.733Z</time></trkpt><trkpt lat="40.563177" lon="19.648389"><ele>62.0</ele><time>2026-05-03T08:54:56.732Z</time></trkpt><trkpt lat="40.5633412" lon="19.6483861"><ele>62.0</ele><time>2026-05-03T08:54:57.732Z</time></trkpt><trkpt lat="40.5634994" lon="19.648371"><ele>62.0</ele><time>2026-05-03T08:54:58.732Z</time></trkpt><trkpt lat="40.5636687" lon="19.6483515"><ele>62.0</ele><time>2026-05-03T08:54:59.73Z</time></trkpt><trkpt lat="40.563839" lon="19.6483239"><ele>59.66666666666667</ele><time>2026-05-03T08:55:00.731Z</time></trkpt><trkpt lat="40.5640054" lon="19.6482865"><ele>57.33333333333333</ele><time>2026-05-03T08:55:01.731Z</time></trkpt><trkpt lat="40.5641673" lon="19.6482442"><ele>55.0</ele><time>2026-05-03T08:55:02.732Z</time></trkpt><trkpt lat="40.5643254" lon="19.6481842"><ele>55.0</ele><time>2026-05-03T08:55:03.734Z</time></trkpt><trkpt lat="40.5644774" lon="19.6481147"><ele>55.0</ele><time>2026-05-03T08:55:04.732Z</time></trkpt><trkpt lat="40.5646262" lon="19.6480371"><ele>55.0</ele><time>2026-05-03T08:55:05.734Z</time></trkpt><trkpt lat="40.5647752" lon="19.6479543"><ele>50.33333333333333</ele><time>2026-05-03T08:55:06.736Z</time></trkpt><trkpt lat="40.5649242" lon="19.6478615"><ele>45.666666666666664</ele><time>2026-05-03T08:55:07.733Z</time></trkpt><trkpt lat="40.5650742" lon="19.647756"><ele>41.0</ele><time>2026-05-03T08:55:08.731Z</time></trkpt><trkpt lat="40.5652208" lon="19.6476361"><ele>39.33333333333333</ele><time>2026-05-03T08:55:09.732Z</time></trkpt><trkpt lat="40.5653623" lon="19.6475027"><ele>37.666666666666664</ele><time>2026-05-03T08:55:10.732Z</time></trkpt><trkpt lat="40.5654984" lon="19.6473589"><ele>36.0</ele><time>2026-05-03T08:55:11.735Z</time></trkpt><trkpt lat="40.5656326" lon="19.6472085"><ele>36.0</ele><time>2026-05-03T08:55:12.736Z</time></trkpt><trkpt lat="40.5657651" lon="19.6470529"><ele>36.0</ele><time>2026-05-03T08:55:13.734Z</time></trkpt><trkpt lat="40.5658935" lon="19.6468926"><ele>36.0</ele><time>2026-05-03T08:55:14.729Z</time></trkpt><trkpt lat="40.5660155" lon="19.6467237"><ele>35.666666666666664</ele><time>2026-05-03T08:55:15.737Z</time></trkpt><trkpt lat="40.5661301" lon="19.6465451"><ele>35.33333333333333</ele><time>2026-05-03T08:55:16.731Z</time></trkpt><trkpt lat="40.5662397" lon="19.6463587"><ele>35.0</ele><time>2026-05-03T08:55:17.734Z</time></trkpt><trkpt lat="40.5663438" lon="19.646165"><ele>34.666666666666664</ele><time>2026-05-03T08:55:18.732Z</time></trkpt><trkpt lat="40.5664433" lon="19.6459629"><ele>34.333333333333336</ele><time>2026-05-03T08:55:19.733Z</time></trkpt><trkpt lat="40.5665366" lon="19.6457524"><ele>34.0</ele><time>2026-05-03T08:55:20.733Z</time></trkpt><trkpt lat="40.5666254" lon="19.645534"><ele>34.0</ele><time>2026-05-03T08:55:21.733Z</time></trkpt><trkpt lat="40.5667031" lon="19.645305"><ele>34.0</ele><time>2026-05-03T08:55:22.735Z</time></trkpt><trkpt lat="40.5667676" lon="19.6450667"><ele>34.0</ele><time>2026-05-03T08:55:23.732Z</time></trkpt><trkpt lat="40.5668302" lon="19.644821"><ele>34.0</ele><time>2026-05-03T08:55:24.733Z</time></trkpt><trkpt lat="40.5668898" lon="19.6445704"><ele>34.0</ele><time>2026-05-03T08:55:25.735Z</time></trkpt><trkpt lat="40.5669482" lon="19.6443187"><ele>34.0</ele><time>2026-05-03T08:55:26.732Z</time></trkpt><trkpt lat="40.567003" lon="19.6440525"><ele>33.66666666666667</ele><time>2026-05-03T08:55:27.733Z</time></trkpt><trkpt lat="40.5670569" lon="19.6438008"><ele>33.333333333333336</ele><time>2026-05-03T08:55:28.734Z</time></trkpt><trkpt lat="40.5671104" lon="19.6435515"><ele>33.0</ele><time>2026-05-03T08:55:29.731Z</time></trkpt><trkpt lat="40.567162" lon="19.6433083"><ele>32.333333333333336</ele><time>2026-05-03T08:55:30.735Z</time></trkpt><trkpt lat="40.5672172" lon="19.6430685"><ele>31.666666666666668</ele><time>2026-05-03T08:55:31.731Z</time></trkpt><trkpt lat="40.5672686" lon="19.6428273"><ele>31.0</ele><time>2026-05-03T08:55:32.732Z</time></trkpt><trkpt lat="40.567321" lon="19.6425877"><ele>31.0</ele><time>2026-05-03T08:55:33.732Z</time></trkpt><trkpt lat="40.5673747" lon="19.6423468"><ele>31.0</ele><time>2026-05-03T08:55:34.733Z</time></trkpt><trkpt lat="40.5674272" lon="19.6421059"><ele>31.0</ele><time>2026-05-03T08:55:35.732Z</time></trkpt><trkpt lat="40.5674781" lon="19.6418641"><ele>30.666666666666668</ele><time>2026-05-03T08:55:36.733Z</time></trkpt><trkpt lat="40.5675333" lon="19.6416237"><ele>30.333333333333336</ele><time>2026-05-03T08:55:37.735Z</time></trkpt><trkpt lat="40.5675866" lon="19.6413828"><ele>30.0</ele><time>2026-05-03T08:55:38.732Z</time></trkpt><trkpt lat="40.5676388" lon="19.6411427"><ele>30.0</ele><time>2026-05-03T08:55:39.732Z</time></trkpt><trkpt lat="40.5676913" lon="19.6409024"><ele>30.0</ele><time>2026-05-03T08:55:40.731Z</time></trkpt><trkpt lat="40.5677422" lon="19.64066"><ele>30.0</ele><time>2026-05-03T08:55:41.732Z</time></trkpt><trkpt lat="40.5677952" lon="19.6404164"><ele>30.333333333333336</ele><time>2026-05-03T08:55:42.734Z</time></trkpt><trkpt lat="40.5678491" lon="19.6401702"><ele>30.666666666666668</ele><time>2026-05-03T08:55:43.731Z</time></trkpt><trkpt lat="40.567903" lon="19.6399237"><ele>31.0</ele><time>2026-05-03T08:55:44.733Z</time></trkpt><trkpt lat="40.5679562" lon="19.6396768"><ele>31.0</ele><time>2026-05-03T08:55:45.731Z</time></trkpt><trkpt lat="40.5680092" lon="19.6394262"><ele>31.0</ele><time>2026-05-03T08:55:46.734Z</time></trkpt><trkpt lat="40.5680603" lon="19.6391693"><ele>31.0</ele><time>2026-05-03T08:55:47.735Z</time></trkpt><trkpt lat="40.5681144" lon="19.6389172"><ele>31.0</ele><time>2026-05-03T08:55:48.732Z</time></trkpt><trkpt lat="40.5681646" lon="19.6386649"><ele>31.0</ele><time>2026-05-03T08:55:49.733Z</time></trkpt><trkpt lat="40.5682162" lon="19.6384114"><ele>31.0</ele><time>2026-05-03T08:55:50.733Z</time></trkpt><trkpt lat="40.5682758" lon="19.6381527"><ele>30.666666666666668</ele><time>2026-05-03T08:55:51.734Z</time></trkpt><trkpt lat="40.5683341" lon="19.6378955"><ele>30.333333333333336</ele><time>2026-05-03T08:55:52.733Z</time></trkpt><trkpt lat="40.5683908" lon="19.637636"><ele>30.0</ele><time>2026-05-03T08:55:53.733Z</time></trkpt><trkpt lat="40.5684467" lon="19.637376"><ele>29.333333333333336</ele><time>2026-05-03T08:55:54.735Z</time></trkpt><trkpt lat="40.5685036" lon="19.6371131"><ele>28.666666666666668</ele><time>2026-05-03T08:55:55.733Z</time></trkpt><trkpt lat="40.56856" lon="19.6368492"><ele>28.0</ele><time>2026-05-03T08:55:56.73Z</time></trkpt><trkpt lat="40.568617" lon="19.6365834"><ele>28.0</ele><time>2026-05-03T08:55:57.736Z</time></trkpt><trkpt lat="40.5686741" lon="19.6363209"><ele>28.0</ele><time>2026-05-03T08:55:58.733Z</time></trkpt><trkpt lat="40.5687361" lon="19.6360545"><ele>28.0</ele><time>2026-05-03T08:55:59.732Z</time></trkpt><trkpt lat="40.5687979" lon="19.6357873"><ele>28.333333333333336</ele><time>2026-05-03T08:56:00.729Z</time></trkpt><trkpt lat="40.5688548" lon="19.6355305"><ele>28.666666666666664</ele><time>2026-05-03T08:56:01.731Z</time></trkpt><trkpt lat="40.5689095" lon="19.6352746"><ele>29.0</ele><time>2026-05-03T08:56:02.731Z</time></trkpt><trkpt lat="40.5689653" lon="19.6350209"><ele>29.333333333333332</ele><time>2026-05-03T08:56:03.733Z</time></trkpt><trkpt lat="40.5690216" lon="19.634767"><ele>29.666666666666664</ele><time>2026-05-03T08:56:04.731Z</time></trkpt><trkpt lat="40.5690778" lon="19.6345131"><ele>30.0</ele><time>2026-05-03T08:56:05.733Z</time></trkpt><trkpt lat="40.5691331" lon="19.6342579"><ele>29.333333333333336</ele><time>2026-05-03T08:56:06.731Z</time></trkpt><trkpt lat="40.5691866" lon="19.6340057"><ele>28.666666666666668</ele><time>2026-05-03T08:56:07.733Z</time></trkpt><trkpt lat="40.569239" lon="19.6337566"><ele>28.0</ele><time>2026-05-03T08:56:08.732Z</time></trkpt><trkpt lat="40.5692929" lon="19.6335109"><ele>27.666666666666668</ele><time>2026-05-03T08:56:09.734Z</time></trkpt><trkpt lat="40.5693474" lon="19.6332665"><ele>27.333333333333336</ele><time>2026-05-03T08:56:10.732Z</time></trkpt><trkpt lat="40.5694019" lon="19.6330246"><ele>27.0</ele><time>2026-05-03T08:56:11.734Z</time></trkpt><trkpt lat="40.5694554" lon="19.6327826"><ele>26.666666666666664</ele><time>2026-05-03T08:56:12.733Z</time></trkpt><trkpt lat="40.5695084" lon="19.6325348"><ele>26.333333333333332</ele><time>2026-05-03T08:56:13.732Z</time></trkpt><trkpt lat="40.5695618" lon="19.6322784"><ele>26.0</ele><time>2026-05-03T08:56:14.731Z</time></trkpt><trkpt lat="40.5696178" lon="19.6320174"><ele>26.666666666666664</ele><time>2026-05-03T08:56:15.732Z</time></trkpt><trkpt lat="40.5696735" lon="19.6317517"><ele>27.333333333333336</ele><time>2026-05-03T08:56:16.732Z</time></trkpt><trkpt lat="40.5697294" lon="19.6314863"><ele>28.0</ele><time>2026-05-03T08:56:17.732Z</time></trkpt><trkpt lat="40.5697853" lon="19.6312123"><ele>28.0</ele><time>2026-05-03T08:56:18.731Z</time></trkpt><trkpt lat="40.5698396" lon="19.6309429"><ele>28.0</ele><time>2026-05-03T08:56:19.733Z</time></trkpt><trkpt lat="40.569896" lon="19.6306777"><ele>28.0</ele><time>2026-05-03T08:56:20.733Z</time></trkpt><trkpt lat="40.5699534" lon="19.6304143"><ele>27.666666666666668</ele><time>2026-05-03T08:56:21.733Z</time></trkpt><trkpt lat="40.5700124" lon="19.63015"><ele>27.333333333333336</ele><time>2026-05-03T08:56:22.733Z</time></trkpt><trkpt lat="40.5700715" lon="19.6298885"><ele>27.0</ele><time>2026-05-03T08:56:23.733Z</time></trkpt><trkpt lat="40.5701303" lon="19.629629"><ele>26.666666666666664</ele><time>2026-05-03T08:56:24.733Z</time></trkpt><trkpt lat="40.5701897" lon="19.6293687"><ele>26.333333333333332</ele><time>2026-05-03T08:56:25.733Z</time></trkpt><trkpt lat="40.5702529" lon="19.6291083"><ele>26.0</ele><time>2026-05-03T08:56:26.733Z</time></trkpt><trkpt lat="40.5703205" lon="19.6288548"><ele>26.0</ele><time>2026-05-03T08:56:27.732Z</time></trkpt><trkpt lat="40.5703948" lon="19.628601"><ele>26.0</ele><time>2026-05-03T08:56:28.732Z</time></trkpt><trkpt lat="40.5704726" lon="19.6283507"><ele>26.0</ele><time>2026-05-03T08:56:29.731Z</time></trkpt><trkpt lat="40.5705548" lon="19.6281003"><ele>26.0</ele><time>2026-05-03T08:56:30.731Z</time></trkpt><trkpt lat="40.5706411" lon="19.6278486"><ele>26.0</ele><time>2026-05-03T08:56:31.731Z</time></trkpt><trkpt lat="40.5707382" lon="19.6275928"><ele>26.0</ele><time>2026-05-03T08:56:32.734Z</time></trkpt><trkpt lat="40.5708401" lon="19.6273302"><ele>25.5</ele><time>2026-05-03T08:56:33.733Z</time></trkpt><trkpt lat="40.5709482" lon="19.6270592"><ele>25.0</ele><time>2026-05-03T08:56:34.732Z</time></trkpt><trkpt lat="40.5710653" lon="19.6267825"><ele>25.0</ele><time>2026-05-03T08:56:35.731Z</time></trkpt><trkpt lat="40.571196" lon="19.626505"><ele>25.0</ele><time>2026-05-03T08:56:36.733Z</time></trkpt><trkpt lat="40.5713568" lon="19.6262335"><ele>24.5</ele><time>2026-05-03T08:56:37.734Z</time></trkpt><trkpt lat="40.5715154" lon="19.6259595"><ele>24.0</ele><time>2026-05-03T08:56:38.735Z</time></trkpt><trkpt lat="40.5716816" lon="19.6256878"><ele>24.0</ele><time>2026-05-03T08:56:39.731Z</time></trkpt><trkpt lat="40.5718565" lon="19.6254208"><ele>24.0</ele><time>2026-05-03T08:56:40.732Z</time></trkpt><trkpt lat="40.5720432" lon="19.6251612"><ele>24.5</ele><time>2026-05-03T08:56:41.735Z</time></trkpt><trkpt lat="40.5722337" lon="19.6249145"><ele>25.0</ele><time>2026-05-03T08:56:42.734Z</time></trkpt><trkpt lat="40.5724281" lon="19.6246763"><ele>25.0</ele><time>2026-05-03T08:56:43.734Z</time></trkpt><trkpt lat="40.572626" lon="19.6244484"><ele>25.0</ele><time>2026-05-03T08:56:44.731Z</time></trkpt><trkpt lat="40.5728274" lon="19.6242333"><ele>25.0</ele><time>2026-05-03T08:56:45.731Z</time></trkpt><trkpt lat="40.5730316" lon="19.6240276"><ele>25.0</ele><time>2026-05-03T08:56:46.732Z</time></trkpt><trkpt lat="40.5732391" lon="19.6238266"><ele>24.5</ele><time>2026-05-03T08:56:47.732Z</time></trkpt><trkpt lat="40.5734494" lon="19.6236339"><ele>24.0</ele><time>2026-05-03T08:56:48.731Z</time></trkpt><trkpt lat="40.5736639" lon="19.6234504"><ele>25.0</ele><time>2026-05-03T08:56:49.733Z</time></trkpt><trkpt lat="40.5738819" lon="19.6232777"><ele>26.0</ele><time>2026-05-03T08:56:50.733Z</time></trkpt><trkpt lat="40.5741046" lon="19.6231153"><ele>26.0</ele><time>2026-05-03T08:56:51.733Z</time></trkpt><trkpt lat="40.5743311" lon="19.6229636"><ele>26.0</ele><time>2026-05-03T08:56:52.733Z</time></trkpt><trkpt lat="40.5745599" lon="19.6228234"><ele>26.5</ele><time>2026-05-03T08:56:53.731Z</time></trkpt><trkpt lat="40.5748001" lon="19.6226833"><ele>27.0</ele><time>2026-05-03T08:56:54.732Z</time></trkpt><trkpt lat="40.5750329" lon="19.6225553"><ele>27.0</ele><time>2026-05-03T08:56:55.734Z</time></trkpt><trkpt lat="40.5752677" lon="19.6224355"><ele>27.0</ele><time>2026-05-03T08:56:56.735Z</time></trkpt><trkpt lat="40.5755053" lon="19.6223185"><ele>27.0</ele><time>2026-05-03T08:56:57.734Z</time></trkpt><trkpt lat="40.5757422" lon="19.6222079"><ele>27.0</ele><time>2026-05-03T08:56:58.733Z</time></trkpt><trkpt lat="40.5759782" lon="19.6221015"><ele>27.0</ele><time>2026-05-03T08:56:59.731Z</time></trkpt><trkpt lat="40.5762127" lon="19.6219979"><ele>27.0</ele><time>2026-05-03T08:57:00.733Z</time></trkpt><trkpt lat="40.5764452" lon="19.6218939"><ele>27.0</ele><time>2026-05-03T08:57:01.732Z</time></trkpt><trkpt lat="40.5766743" lon="19.6217908"><ele>27.0</ele><time>2026-05-03T08:57:02.733Z</time></trkpt><trkpt lat="40.5769007" lon="19.6216884"><ele>27.0</ele><time>2026-05-03T08:57:03.733Z</time></trkpt><trkpt lat="40.5771248" lon="19.6215865"><ele>27.0</ele><time>2026-05-03T08:57:04.733Z</time></trkpt><trkpt lat="40.5773473" lon="19.6214887"><ele>27.0</ele><time>2026-05-03T08:57:05.734Z</time></trkpt><trkpt lat="40.5775659" lon="19.6213924"><ele>27.0</ele><time>2026-05-03T08:57:06.733Z</time></trkpt><trkpt lat="40.5777807" lon="19.6212938"><ele>27.333333333333336</ele><time>2026-05-03T08:57:07.731Z</time></trkpt><trkpt lat="40.5779933" lon="19.6211979"><ele>27.666666666666668</ele><time>2026-05-03T08:57:08.733Z</time></trkpt><trkpt lat="40.5782046" lon="19.6211025"><ele>28.0</ele><time>2026-05-03T08:57:09.732Z</time></trkpt><trkpt lat="40.5784154" lon="19.6210079"><ele>27.333333333333336</ele><time>2026-05-03T08:57:10.733Z</time></trkpt><trkpt lat="40.5786266" lon="19.6209188"><ele>26.666666666666664</ele><time>2026-05-03T08:57:11.735Z</time></trkpt><trkpt lat="40.5788371" lon="19.6208309"><ele>26.0</ele><time>2026-05-03T08:57:12.733Z</time></trkpt><trkpt lat="40.5790469" lon="19.6207426"><ele>27.333333333333332</ele><time>2026-05-03T08:57:13.732Z</time></trkpt><trkpt lat="40.5792556" lon="19.6206526"><ele>28.666666666666664</ele><time>2026-05-03T08:57:14.732Z</time></trkpt><trkpt lat="40.579464" lon="19.6205591"><ele>30.0</ele><time>2026-05-03T08:57:15.733Z</time></trkpt><trkpt lat="40.5796731" lon="19.6204625"><ele>30.0</ele><time>2026-05-03T08:57:16.732Z</time></trkpt><trkpt lat="40.5798852" lon="19.6203623"><ele>30.0</ele><time>2026-05-03T08:57:17.735Z</time></trkpt><trkpt lat="40.5801003" lon="19.6202557"><ele>30.0</ele><time>2026-05-03T08:57:18.734Z</time></trkpt><trkpt lat="40.5803175" lon="19.6201482"><ele>30.0</ele><time>2026-05-03T08:57:19.732Z</time></trkpt><trkpt lat="40.5805372" lon="19.6200376"><ele>30.5</ele><time>2026-05-03T08:57:20.733Z</time></trkpt><trkpt lat="40.5807552" lon="19.6199239"><ele>31.0</ele><time>2026-05-03T08:57:21.733Z</time></trkpt><trkpt lat="40.5809719" lon="19.6198114"><ele>31.5</ele><time>2026-05-03T08:57:22.732Z</time></trkpt><trkpt lat="40.5811887" lon="19.6196893"><ele>32.0</ele><time>2026-05-03T08:57:23.732Z</time></trkpt><trkpt lat="40.5814081" lon="19.6195657"><ele>32.5</ele><time>2026-05-03T08:57:24.732Z</time></trkpt><trkpt lat="40.5816193" lon="19.6194331"><ele>33.0</ele><time>2026-05-03T08:57:25.731Z</time></trkpt><trkpt lat="40.5818277" lon="19.6192984"><ele>32.5</ele><time>2026-05-03T08:57:26.731Z</time></trkpt><trkpt lat="40.5820318" lon="19.6191638"><ele>32.0</ele><time>2026-05-03T08:57:27.733Z</time></trkpt><trkpt lat="40.5822306" lon="19.619031"><ele>32.0</ele><time>2026-05-03T08:57:28.733Z</time></trkpt><trkpt lat="40.5824224" lon="19.6188995"><ele>32.0</ele><time>2026-05-03T08:57:29.734Z</time></trkpt><trkpt lat="40.5826091" lon="19.6187686"><ele>32.0</ele><time>2026-05-03T08:57:30.732Z</time></trkpt><trkpt lat="40.5827911" lon="19.6186358"><ele>33.0</ele><time>2026-05-03T08:57:31.734Z</time></trkpt><trkpt lat="40.58297" lon="19.6184985"><ele>34.0</ele><time>2026-05-03T08:57:32.733Z</time></trkpt><trkpt lat="40.5831452" lon="19.6183588"><ele>35.0</ele><time>2026-05-03T08:57:33.731Z</time></trkpt><trkpt lat="40.5833195" lon="19.6182194"><ele>35.0</ele><time>2026-05-03T08:57:34.729Z</time></trkpt><trkpt lat="40.5834939" lon="19.6180749"><ele>35.0</ele><time>2026-05-03T08:57:35.733Z</time></trkpt><trkpt lat="40.5836698" lon="19.6179298"><ele>35.0</ele><time>2026-05-03T08:57:36.731Z</time></trkpt><trkpt lat="40.583845" lon="19.617778"><ele>35.33333333333333</ele><time>2026-05-03T08:57:37.732Z</time></trkpt><trkpt lat="40.5840215" lon="19.6176185"><ele>35.666666666666664</ele><time>2026-05-03T08:57:38.733Z</time></trkpt><trkpt lat="40.5842" lon="19.6174518"><ele>36.0</ele><time>2026-05-03T08:57:39.732Z</time></trkpt><trkpt lat="40.5843807" lon="19.6172799"><ele>36.0</ele><time>2026-05-03T08:57:40.73Z</time></trkpt><trkpt lat="40.5845671" lon="19.6171069"><ele>36.0</ele><time>2026-05-03T08:57:41.731Z</time></trkpt><trkpt lat="40.5847459" lon="19.6169243"><ele>35.666666666666664</ele><time>2026-05-03T08:57:42.729Z</time></trkpt><trkpt lat="40.584922" lon="19.6167378"><ele>35.33333333333333</ele><time>2026-05-03T08:57:43.735Z</time></trkpt><trkpt lat="40.5850944" lon="19.6165509"><ele>35.0</ele><time>2026-05-03T08:57:44.732Z</time></trkpt><trkpt lat="40.5852652" lon="19.6163639"><ele>35.33333333333333</ele><time>2026-05-03T08:57:45.732Z</time></trkpt><trkpt lat="40.5854331" lon="19.6161745"><ele>35.666666666666664</ele><time>2026-05-03T08:57:46.731Z</time></trkpt><trkpt lat="40.5856014" lon="19.6159872"><ele>36.0</ele><time>2026-05-03T08:57:47.732Z</time></trkpt><trkpt lat="40.5857686" lon="19.6157994"><ele>36.0</ele><time>2026-05-03T08:57:48.734Z</time></trkpt><trkpt lat="40.5859334" lon="19.6156029"><ele>36.0</ele><time>2026-05-03T08:57:49.735Z</time></trkpt><trkpt lat="40.5861013" lon="19.6154176"><ele>36.0</ele><time>2026-05-03T08:57:50.731Z</time></trkpt><trkpt lat="40.5862693" lon="19.6152299"><ele>36.333333333333336</ele><time>2026-05-03T08:57:51.731Z</time></trkpt><trkpt lat="40.5864361" lon="19.6150433"><ele>36.66666666666667</ele><time>2026-05-03T08:57:52.73Z</time></trkpt><trkpt lat="40.5866023" lon="19.6148572"><ele>37.0</ele><time>2026-05-03T08:57:53.731Z</time></trkpt><trkpt lat="40.5867679" lon="19.6146727"><ele>37.0</ele><time>2026-05-03T08:57:54.733Z</time></trkpt><trkpt lat="40.586933" lon="19.6144892"><ele>37.0</ele><time>2026-05-03T08:57:55.732Z</time></trkpt><trkpt lat="40.5870942" lon="19.6142968"><ele>37.0</ele><time>2026-05-03T08:57:56.73Z</time></trkpt><trkpt lat="40.5872575" lon="19.6141118"><ele>37.0</ele><time>2026-05-03T08:57:57.733Z</time></trkpt><trkpt lat="40.587418" lon="19.6139298"><ele>37.0</ele><time>2026-05-03T08:57:58.731Z</time></trkpt><trkpt lat="40.5875756" lon="19.6137485"><ele>37.0</ele><time>2026-05-03T08:57:59.729Z</time></trkpt><trkpt lat="40.5877302" lon="19.6135715"><ele>37.333333333333336</ele><time>2026-05-03T08:58:00.73Z</time></trkpt><trkpt lat="40.5878848" lon="19.6134014"><ele>37.666666666666664</ele><time>2026-05-03T08:58:01.732Z</time></trkpt><trkpt lat="40.5880387" lon="19.6132374"><ele>38.0</ele><time>2026-05-03T08:58:02.732Z</time></trkpt><trkpt lat="40.5881887" lon="19.61307"><ele>38.0</ele><time>2026-05-03T08:58:03.729Z</time></trkpt><trkpt lat="40.588339" lon="19.6129"><ele>38.0</ele><time>2026-05-03T08:58:04.73Z</time></trkpt><trkpt lat="40.5884914" lon="19.6127339"><ele>38.0</ele><time>2026-05-03T08:58:05.731Z</time></trkpt><trkpt lat="40.5886474" lon="19.6125607"><ele>37.666666666666664</ele><time>2026-05-03T08:58:06.731Z</time></trkpt><trkpt lat="40.588802" lon="19.6123929"><ele>37.333333333333336</ele><time>2026-05-03T08:58:07.731Z</time></trkpt><trkpt lat="40.588961" lon="19.6122258"><ele>37.0</ele><time>2026-05-03T08:58:08.733Z</time></trkpt><trkpt lat="40.5891203" lon="19.6120535"><ele>37.333333333333336</ele><time>2026-05-03T08:58:09.734Z</time></trkpt><trkpt lat="40.5892854" lon="19.6118784"><ele>37.666666666666664</ele><time>2026-05-03T08:58:10.731Z</time></trkpt><trkpt lat="40.5894531" lon="19.6117037"><ele>38.0</ele><time>2026-05-03T08:58:11.733Z</time></trkpt><trkpt lat="40.5896222" lon="19.6115296"><ele>38.0</ele><time>2026-05-03T08:58:12.732Z</time></trkpt><trkpt lat="40.5897938" lon="19.6113553"><ele>38.0</ele><time>2026-05-03T08:58:13.734Z</time></trkpt><trkpt lat="40.5899608" lon="19.6111865"><ele>38.0</ele><time>2026-05-03T08:58:14.73Z</time></trkpt><trkpt lat="40.5901263" lon="19.6110184"><ele>38.0</ele><time>2026-05-03T08:58:15.73Z</time></trkpt><trkpt lat="40.5902907" lon="19.6108426"><ele>38.0</ele><time>2026-05-03T08:58:16.731Z</time></trkpt><trkpt lat="40.5904562" lon="19.6106798"><ele>38.0</ele><time>2026-05-03T08:58:17.732Z</time></trkpt><trkpt lat="40.5906229" lon="19.6105141"><ele>38.0</ele><time>2026-05-03T08:58:18.733Z</time></trkpt><trkpt lat="40.5907937" lon="19.6103541"><ele>38.0</ele><time>2026-05-03T08:58:19.735Z</time></trkpt><trkpt lat="40.5909573" lon="19.6101808"><ele>38.0</ele><time>2026-05-03T08:58:20.73Z</time></trkpt><trkpt lat="40.5911191" lon="19.610013"><ele>38.0</ele><time>2026-05-03T08:58:21.731Z</time></trkpt><trkpt lat="40.5912783" lon="19.6098513"><ele>38.0</ele><time>2026-05-03T08:58:22.73Z</time></trkpt><trkpt lat="40.5914331" lon="19.6096923"><ele>38.0</ele><time>2026-05-03T08:58:23.733Z</time></trkpt><trkpt lat="40.5915867" lon="19.6095337"><ele>38.0</ele><time>2026-05-03T08:58:24.731Z</time></trkpt><trkpt lat="40.5917413" lon="19.6093787"><ele>38.0</ele><time>2026-05-03T08:58:25.733Z</time></trkpt><trkpt lat="40.5918944" lon="19.6092238"><ele>38.0</ele><time>2026-05-03T08:58:26.73Z</time></trkpt><trkpt lat="40.5920477" lon="19.6090676"><ele>38.0</ele><time>2026-05-03T08:58:27.732Z</time></trkpt><trkpt lat="40.5922011" lon="19.6089153"><ele>38.0</ele><time>2026-05-03T08:58:28.732Z</time></trkpt><trkpt lat="40.5923542" lon="19.6087642"><ele>38.0</ele><time>2026-05-03T08:58:29.732Z</time></trkpt><trkpt lat="40.5925068" lon="19.6086103"><ele>37.33333333333333</ele><time>2026-05-03T08:58:30.732Z</time></trkpt><trkpt lat="40.5926577" lon="19.608459"><ele>36.666666666666664</ele><time>2026-05-03T08:58:31.731Z</time></trkpt><trkpt lat="40.5928037" lon="19.6083105"><ele>36.0</ele><time>2026-05-03T08:58:32.733Z</time></trkpt><trkpt lat="40.5929453" lon="19.6081669"><ele>35.666666666666664</ele><time>2026-05-03T08:58:33.731Z</time></trkpt><trkpt lat="40.5930801" lon="19.6080243"><ele>35.33333333333333</ele><time>2026-05-03T08:58:34.731Z</time></trkpt><trkpt lat="40.5932123" lon="19.607877"><ele>35.0</ele><time>2026-05-03T08:58:35.73Z</time></trkpt><trkpt lat="40.5933447" lon="19.6077208"><ele>34.666666666666664</ele><time>2026-05-03T08:58:36.729Z</time></trkpt><trkpt lat="40.5934722" lon="19.6075648"><ele>34.333333333333336</ele><time>2026-05-03T08:58:37.731Z</time></trkpt><trkpt lat="40.593594" lon="19.6074132"><ele>34.0</ele><time>2026-05-03T08:58:38.731Z</time></trkpt><trkpt lat="40.5937097" lon="19.6072713"><ele>34.0</ele><time>2026-05-03T08:58:39.729Z</time></trkpt><trkpt lat="40.5938205" lon="19.6071309"><ele>34.0</ele><time>2026-05-03T08:58:40.73Z</time></trkpt><trkpt lat="40.5939322" lon="19.6069839"><ele>34.0</ele><time>2026-05-03T08:58:41.731Z</time></trkpt><trkpt lat="40.5940431" lon="19.6068322"><ele>33.66666666666667</ele><time>2026-05-03T08:58:42.732Z</time></trkpt><trkpt lat="40.5941533" lon="19.6066721"><ele>33.333333333333336</ele><time>2026-05-03T08:58:43.733Z</time></trkpt><trkpt lat="40.5942612" lon="19.6064991"><ele>33.0</ele><time>2026-05-03T08:58:44.736Z</time></trkpt><trkpt lat="40.5943692" lon="19.6063191"><ele>33.0</ele><time>2026-05-03T08:58:45.729Z</time></trkpt><trkpt lat="40.594478" lon="19.6061336"><ele>33.0</ele><time>2026-05-03T08:58:46.733Z</time></trkpt><trkpt lat="40.5945873" lon="19.6059435"><ele>33.0</ele><time>2026-05-03T08:58:47.736Z</time></trkpt><trkpt lat="40.5946903" lon="19.6057416"><ele>33.0</ele><time>2026-05-03T08:58:48.733Z</time></trkpt><trkpt lat="40.5947923" lon="19.6055245"><ele>33.0</ele><time>2026-05-03T08:58:49.729Z</time></trkpt><trkpt lat="40.5948914" lon="19.6052982"><ele>33.0</ele><time>2026-05-03T08:58:50.731Z</time></trkpt><trkpt lat="40.5949865" lon="19.605075"><ele>32.666666666666664</ele><time>2026-05-03T08:58:51.733Z</time></trkpt><trkpt lat="40.5950807" lon="19.6048471"><ele>32.33333333333333</ele><time>2026-05-03T08:58:52.732Z</time></trkpt><trkpt lat="40.5951731" lon="19.6046136"><ele>32.0</ele><time>2026-05-03T08:58:53.735Z</time></trkpt><trkpt lat="40.595262" lon="19.6043739"><ele>31.666666666666664</ele><time>2026-05-03T08:58:54.731Z</time></trkpt><trkpt lat="40.595347" lon="19.6041293"><ele>31.333333333333336</ele><time>2026-05-03T08:58:55.732Z</time></trkpt><trkpt lat="40.5954264" lon="19.6038817"><ele>31.0</ele><time>2026-05-03T08:58:56.73Z</time></trkpt><trkpt lat="40.5955013" lon="19.6036298"><ele>31.0</ele><time>2026-05-03T08:58:57.732Z</time></trkpt><trkpt lat="40.59557" lon="19.6033754"><ele>31.0</ele><time>2026-05-03T08:58:58.733Z</time></trkpt><trkpt lat="40.5956367" lon="19.6031201"><ele>31.0</ele><time>2026-05-03T08:58:59.729Z</time></trkpt><trkpt lat="40.5957005" lon="19.6028605"><ele>31.333333333333336</ele><time>2026-05-03T08:59:00.73Z</time></trkpt><trkpt lat="40.5957606" lon="19.602598"><ele>31.666666666666664</ele><time>2026-05-03T08:59:01.732Z</time></trkpt><trkpt lat="40.5958139" lon="19.6023293"><ele>32.0</ele><time>2026-05-03T08:59:02.732Z</time></trkpt><trkpt lat="40.5958616" lon="19.6020521"><ele>31.333333333333332</ele><time>2026-05-03T08:59:03.732Z</time></trkpt><trkpt lat="40.5959043" lon="19.6017716"><ele>30.666666666666664</ele><time>2026-05-03T08:59:04.732Z</time></trkpt><trkpt lat="40.595941" lon="19.6014981"><ele>30.0</ele><time>2026-05-03T08:59:05.731Z</time></trkpt><trkpt lat="40.5959712" lon="19.6012204"><ele>30.0</ele><time>2026-05-03T08:59:06.733Z</time></trkpt><trkpt lat="40.5959969" lon="19.6009369"><ele>30.0</ele><time>2026-05-03T08:59:07.731Z</time></trkpt><trkpt lat="40.5960197" lon="19.6006461"><ele>30.0</ele><time>2026-05-03T08:59:08.73Z</time></trkpt><trkpt lat="40.5960378" lon="19.6003483"><ele>29.5</ele><time>2026-05-03T08:59:09.731Z</time></trkpt><trkpt lat="40.5960498" lon="19.6000459"><ele>29.0</ele><time>2026-05-03T08:59:10.731Z</time></trkpt><trkpt lat="40.5960523" lon="19.5997441"><ele>30.0</ele><time>2026-05-03T08:59:11.731Z</time></trkpt><trkpt lat="40.5960458" lon="19.5994401"><ele>31.0</ele><time>2026-05-03T08:59:12.731Z</time></trkpt><trkpt lat="40.5960326" lon="19.5991346"><ele>31.0</ele><time>2026-05-03T08:59:13.732Z</time></trkpt><trkpt lat="40.5960158" lon="19.5988323"><ele>31.0</ele><time>2026-05-03T08:59:14.73Z</time></trkpt><trkpt lat="40.5959932" lon="19.5985372"><ele>30.0</ele><time>2026-05-03T08:59:15.733Z</time></trkpt><trkpt lat="40.5959682" lon="19.5982452"><ele>29.0</ele><time>2026-05-03T08:59:16.732Z</time></trkpt><trkpt lat="40.5959431" lon="19.5979517"><ele>28.0</ele><time>2026-05-03T08:59:17.73Z</time></trkpt><trkpt lat="40.5959178" lon="19.5976578"><ele>28.0</ele><time>2026-05-03T08:59:18.731Z</time></trkpt><trkpt lat="40.5958892" lon="19.5973685"><ele>28.0</ele><time>2026-05-03T08:59:19.73Z</time></trkpt><trkpt lat="40.5958576" lon="19.5970753"><ele>28.0</ele><time>2026-05-03T08:59:20.732Z</time></trkpt><trkpt lat="40.5958226" lon="19.5967874"><ele>28.333333333333336</ele><time>2026-05-03T08:59:21.732Z</time></trkpt><trkpt lat="40.5957926" lon="19.5964975"><ele>28.666666666666664</ele><time>2026-05-03T08:59:22.73Z</time></trkpt><trkpt lat="40.595765" lon="19.5962056"><ele>29.0</ele><time>2026-05-03T08:59:23.732Z</time></trkpt><trkpt lat="40.5957375" lon="19.5959131"><ele>29.0</ele><time>2026-05-03T08:59:24.73Z</time></trkpt><trkpt lat="40.5957091" lon="19.5956202"><ele>29.0</ele><time>2026-05-03T08:59:25.732Z</time></trkpt><trkpt lat="40.5956825" lon="19.5953265"><ele>29.0</ele><time>2026-05-03T08:59:26.734Z</time></trkpt><trkpt lat="40.5956518" lon="19.5950339"><ele>28.333333333333332</ele><time>2026-05-03T08:59:27.731Z</time></trkpt><trkpt lat="40.5956218" lon="19.5947428"><ele>27.666666666666664</ele><time>2026-05-03T08:59:28.732Z</time></trkpt><trkpt lat="40.5955876" lon="19.5944525"><ele>27.0</ele><time>2026-05-03T08:59:29.73Z</time></trkpt><trkpt lat="40.5955576" lon="19.5941568"><ele>27.0</ele><time>2026-05-03T08:59:30.732Z</time></trkpt><trkpt lat="40.5955275" lon="19.593862"><ele>27.0</ele><time>2026-05-03T08:59:31.73Z</time></trkpt><trkpt lat="40.595497" lon="19.5935672"><ele>27.5</ele><time>2026-05-03T08:59:32.732Z</time></trkpt><trkpt lat="40.595465" lon="19.5932716"><ele>28.0</ele><time>2026-05-03T08:59:33.732Z</time></trkpt><trkpt lat="40.5954337" lon="19.5929762"><ele>27.0</ele><time>2026-05-03T08:59:34.733Z</time></trkpt><trkpt lat="40.5954035" lon="19.5926794"><ele>26.0</ele><time>2026-05-03T08:59:35.73Z</time></trkpt><trkpt lat="40.595372" lon="19.5923827"><ele>26.0</ele><time>2026-05-03T08:59:36.73Z</time></trkpt><trkpt lat="40.5953417" lon="19.5920849"><ele>26.0</ele><time>2026-05-03T08:59:37.734Z</time></trkpt><trkpt lat="40.5953122" lon="19.5917867"><ele>24.5</ele><time>2026-05-03T08:59:38.734Z</time></trkpt><trkpt lat="40.595283" lon="19.5914872"><ele>23.0</ele><time>2026-05-03T08:59:39.73Z</time></trkpt><trkpt lat="40.5952528" lon="19.5911814"><ele>22.0</ele><time>2026-05-03T08:59:40.729Z</time></trkpt><trkpt lat="40.5952207" lon="19.590871"><ele>21.0</ele><time>2026-05-03T08:59:41.733Z</time></trkpt><trkpt lat="40.5951887" lon="19.5905577"><ele>20.0</ele><time>2026-05-03T08:59:42.731Z</time></trkpt><trkpt lat="40.5951577" lon="19.5902428"><ele>19.0</ele><time>2026-05-03T08:59:43.735Z</time></trkpt><trkpt lat="40.5951287" lon="19.5899309"><ele>19.0</ele><time>2026-05-03T08:59:44.729Z</time></trkpt><trkpt lat="40.5950976" lon="19.5896167"><ele>19.0</ele><time>2026-05-03T08:59:45.733Z</time></trkpt><trkpt lat="40.5950664" lon="19.5893049"><ele>19.5</ele><time>2026-05-03T08:59:46.732Z</time></trkpt><trkpt lat="40.5950348" lon="19.588999"><ele>20.0</ele><time>2026-05-03T08:59:47.732Z</time></trkpt><trkpt lat="40.5950031" lon="19.5887009"><ele>20.5</ele><time>2026-05-03T08:59:48.732Z</time></trkpt><trkpt lat="40.5949713" lon="19.5884064"><ele>21.0</ele><time>2026-05-03T08:59:49.73Z</time></trkpt><trkpt lat="40.5949421" lon="19.5881126"><ele>20.666666666666668</ele><time>2026-05-03T08:59:50.73Z</time></trkpt><trkpt lat="40.5949157" lon="19.5878229"><ele>20.333333333333336</ele><time>2026-05-03T08:59:51.735Z</time></trkpt><trkpt lat="40.5948863" lon="19.5875316"><ele>20.0</ele><time>2026-05-03T08:59:52.733Z</time></trkpt><trkpt lat="40.5948552" lon="19.5872384"><ele>19.333333333333336</ele><time>2026-05-03T08:59:53.737Z</time></trkpt><trkpt lat="40.5948245" lon="19.5869453"><ele>18.666666666666668</ele><time>2026-05-03T08:59:54.73Z</time></trkpt><trkpt lat="40.5947941" lon="19.5866554"><ele>18.0</ele><time>2026-05-03T08:59:55.732Z</time></trkpt><trkpt lat="40.5947651" lon="19.5863636"><ele>18.333333333333332</ele><time>2026-05-03T08:59:56.732Z</time></trkpt><trkpt lat="40.5947376" lon="19.5860722"><ele>18.666666666666664</ele><time>2026-05-03T08:59:57.733Z</time></trkpt><trkpt lat="40.5947104" lon="19.5857788"><ele>19.0</ele><time>2026-05-03T08:59:58.732Z</time></trkpt><trkpt lat="40.5946834" lon="19.5854906"><ele>19.0</ele><time>2026-05-03T08:59:59.729Z</time></trkpt><trkpt lat="40.5946545" lon="19.5852047"><ele>19.0</ele><time>2026-05-03T09:00:00.729Z</time></trkpt><trkpt lat="40.594625" lon="19.5849208"><ele>19.0</ele><time>2026-05-03T09:00:01.732Z</time></trkpt><trkpt lat="40.5945921" lon="19.584638"><ele>19.0</ele><time>2026-05-03T09:00:02.735Z</time></trkpt><trkpt lat="40.5945635" lon="19.5843603"><ele>19.0</ele><time>2026-05-03T09:00:03.731Z</time></trkpt><trkpt lat="40.5945354" lon="19.5840846"><ele>19.0</ele><time>2026-05-03T09:00:04.732Z</time></trkpt><trkpt lat="40.5945093" lon="19.583808"><ele>18.666666666666664</ele><time>2026-05-03T09:00:05.732Z</time></trkpt><trkpt lat="40.594486" lon="19.5835388"><ele>18.333333333333332</ele><time>2026-05-03T09:00:06.731Z</time></trkpt><trkpt lat="40.5944578" lon="19.5832767"><ele>18.0</ele><time>2026-05-03T09:00:07.733Z</time></trkpt><trkpt lat="40.5944319" lon="19.5830277"><ele>17.333333333333332</ele><time>2026-05-03T09:00:08.732Z</time></trkpt><trkpt lat="40.5944088" lon="19.5827847"><ele>16.666666666666664</ele><time>2026-05-03T09:00:09.731Z</time></trkpt><trkpt lat="40.5943863" lon="19.582553"><ele>16.0</ele><time>2026-05-03T09:00:10.728Z</time></trkpt><trkpt lat="40.5943674" lon="19.5823396"><ele>16.0</ele><time>2026-05-03T09:00:11.73Z</time></trkpt><trkpt lat="40.5943441" lon="19.5821454"><ele>16.0</ele><time>2026-05-03T09:00:12.734Z</time></trkpt><trkpt lat="40.5943212" lon="19.5819817"><ele>16.0</ele><time>2026-05-03T09:00:13.732Z</time></trkpt><trkpt lat="40.5943113" lon="19.5818321"><ele>16.0</ele><time>2026-05-03T09:00:14.732Z</time></trkpt><trkpt lat="40.5943056" lon="19.5817091"><ele>15.999999999999998</ele><time>2026-05-03T09:00:15.731Z</time></trkpt><trkpt lat="40.5943018" lon="19.5816156"><ele>16.0</ele><time>2026-05-03T09:00:16.731Z</time></trkpt><trkpt lat="40.594319" lon="19.5814759"><ele>16.0</ele><time>2026-05-03T09:00:18.731Z</time></trkpt><trkpt lat="40.5943697" lon="19.58139"><ele>16.0</ele><time>2026-05-03T09:00:20.733Z</time></trkpt><trkpt lat="40.5944372" lon="19.5813297"><ele>15.999999999999998</ele><time>2026-05-03T09:00:22.733Z</time></trkpt><trkpt lat="40.5944981" lon="19.5812781"><ele>16.0</ele><time>2026-05-03T09:00:24.732Z</time></trkpt><trkpt lat="40.5945456" lon="19.5812206"><ele>16.714285714285715</ele><time>2026-05-03T09:00:26.732Z</time></trkpt><trkpt lat="40.5945862" lon="19.5811505"><ele>17.428571428571427</ele><time>2026-05-03T09:01:51.73Z</time></trkpt><trkpt lat="40.5945702" lon="19.5810644"><ele>18.142857142857142</ele><time>2026-05-03T09:01:57.73Z</time></trkpt><trkpt lat="40.5945725" lon="19.5809769"><ele>18.857142857142858</ele><time>2026-05-03T09:02:03.73Z</time></trkpt><trkpt lat="40.5946029" lon="19.5808975"><ele>19.57142857142857</ele><time>2026-05-03T09:02:11.732Z</time></trkpt><trkpt lat="40.5945602" lon="19.5808267"><ele>20.285714285714285</ele><time>2026-05-03T09:04:18.712Z</time></trkpt><trkpt lat="40.5945156" lon="19.5807619"><ele>21.0</ele><time>2026-05-03T09:04:23.733Z</time></trkpt><trkpt lat="40.5945503" lon="19.5808584"><ele>21.0</ele><time>2026-05-03T09:05:54.733Z</time></trkpt><trkpt lat="40.5945871" lon="19.580933"><ele>21.0</ele><time>2026-05-03T09:05:59.73Z</time></trkpt><trkpt lat="40.5946097" lon="19.5810247"><ele>21.0</ele><time>2026-05-03T09:06:05.732Z</time></trkpt><trkpt lat="40.5945861" lon="19.5811057"><ele>21.0</ele><time>2026-05-03T09:06:30.717Z</time></trkpt><trkpt lat="40.5946317" lon="19.5811654"><ele>21.0</ele><time>2026-05-03T09:21:46.718Z</time></trkpt><trkpt lat="40.5946163" lon="19.581257"><ele>21.0</ele><time>2026-05-03T09:21:49.717Z</time></trkpt><trkpt lat="40.5945366" lon="19.581235"><ele>21.0</ele><time>2026-05-03T09:21:52.638Z</time></trkpt><trkpt lat="40.5944749" lon="19.5811702"><ele>20.0</ele><time>2026-05-03T09:21:54.717Z</time></trkpt><trkpt lat="40.594382" lon="19.5810586"><ele>19.0</ele><time>2026-05-03T09:21:56.718Z</time></trkpt><trkpt lat="40.5943251" lon="19.580926"><ele>18.0</ele><time>2026-05-03T09:21:58.717Z</time></trkpt><trkpt lat="40.5942871" lon="19.5808397"><ele>17.0</ele><time>2026-05-03T09:22:00.718Z</time></trkpt><trkpt lat="40.5942578" lon="19.5807634"><ele>16.0</ele><time>2026-05-03T09:22:02.717Z</time></trkpt><trkpt lat="40.594217" lon="19.5806071"><ele>16.0</ele><time>2026-05-03T09:22:04.718Z</time></trkpt><trkpt lat="40.594197" lon="19.5804956"><ele>16.0</ele><time>2026-05-03T09:22:05.718Z</time></trkpt><trkpt lat="40.5941805" lon="19.5803757"><ele>16.0</ele><time>2026-05-03T09:22:06.718Z</time></trkpt><trkpt lat="40.5941643" lon="19.5802262"><ele>16.0</ele><time>2026-05-03T09:22:07.717Z</time></trkpt><trkpt lat="40.5941549" lon="19.5800664"><ele>16.0</ele><time>2026-05-03T09:22:08.717Z</time></trkpt><trkpt lat="40.5941447" lon="19.579901"><ele>16.0</ele><time>2026-05-03T09:22:09.717Z</time></trkpt><trkpt lat="40.5941358" lon="19.5797245"><ele>16.0</ele><time>2026-05-03T09:22:10.717Z</time></trkpt><trkpt lat="40.5941395" lon="19.5795471"><ele>16.0</ele><time>2026-05-03T09:22:11.717Z</time></trkpt><trkpt lat="40.5941348" lon="19.5793638"><ele>16.0</ele><time>2026-05-03T09:22:12.717Z</time></trkpt><trkpt lat="40.5941266" lon="19.5791781"><ele>16.0</ele><time>2026-05-03T09:22:13.718Z</time></trkpt><trkpt lat="40.5941179" lon="19.5789833"><ele>16.0</ele><time>2026-05-03T09:22:14.718Z</time></trkpt><trkpt lat="40.5941225" lon="19.5787884"><ele>16.0</ele><time>2026-05-03T09:22:15.717Z</time></trkpt><trkpt lat="40.5941132" lon="19.5785884"><ele>16.0</ele><time>2026-05-03T09:22:16.718Z</time></trkpt><trkpt lat="40.5940969" lon="19.5783921"><ele>15.666666666666666</ele><time>2026-05-03T09:22:17.717Z</time></trkpt><trkpt lat="40.5941087" lon="19.5781864"><ele>15.333333333333332</ele><time>2026-05-03T09:22:18.718Z</time></trkpt><trkpt lat="40.594118" lon="19.5779671"><ele>15.0</ele><time>2026-05-03T09:22:19.718Z</time></trkpt><trkpt lat="40.5941351" lon="19.5777413"><ele>15.0</ele><time>2026-05-03T09:22:20.718Z</time></trkpt><trkpt lat="40.5941547" lon="19.5775023"><ele>15.0</ele><time>2026-05-03T09:22:21.717Z</time></trkpt><trkpt lat="40.5941732" lon="19.5772595"><ele>15.0</ele><time>2026-05-03T09:22:22.718Z</time></trkpt><trkpt lat="40.5941857" lon="19.5770196"><ele>14.333333333333332</ele><time>2026-05-03T09:22:23.717Z</time></trkpt><trkpt lat="40.5942106" lon="19.5767758"><ele>13.666666666666666</ele><time>2026-05-03T09:22:24.718Z</time></trkpt><trkpt lat="40.5942395" lon="19.5765385"><ele>13.0</ele><time>2026-05-03T09:22:25.718Z</time></trkpt><trkpt lat="40.5942651" lon="19.5763034"><ele>13.0</ele><time>2026-05-03T09:22:26.717Z</time></trkpt><trkpt lat="40.5942986" lon="19.5760591"><ele>13.0</ele><time>2026-05-03T09:22:27.717Z</time></trkpt><trkpt lat="40.5943353" lon="19.5758107"><ele>13.0</ele><time>2026-05-03T09:22:28.718Z</time></trkpt><trkpt lat="40.5943808" lon="19.575569"><ele>13.0</ele><time>2026-05-03T09:22:29.717Z</time></trkpt><trkpt lat="40.594425" lon="19.5753257"><ele>13.0</ele><time>2026-05-03T09:22:30.717Z</time></trkpt><trkpt lat="40.5944752" lon="19.5750777"><ele>13.0</ele><time>2026-05-03T09:22:31.717Z</time></trkpt><trkpt lat="40.5945247" lon="19.5748296"><ele>13.333333333333332</ele><time>2026-05-03T09:22:32.718Z</time></trkpt><trkpt lat="40.5945736" lon="19.574576"><ele>13.666666666666668</ele><time>2026-05-03T09:22:33.718Z</time></trkpt><trkpt lat="40.5946321" lon="19.5743168"><ele>14.0</ele><time>2026-05-03T09:22:34.717Z</time></trkpt><trkpt lat="40.5946901" lon="19.5740692"><ele>13.333333333333334</ele><time>2026-05-03T09:22:35.718Z</time></trkpt><trkpt lat="40.5947494" lon="19.5738278"><ele>12.666666666666668</ele><time>2026-05-03T09:22:36.717Z</time></trkpt><trkpt lat="40.5948154" lon="19.5735898"><ele>12.0</ele><time>2026-05-03T09:22:37.718Z</time></trkpt><trkpt lat="40.594888" lon="19.5733516"><ele>11.666666666666666</ele><time>2026-05-03T09:22:38.717Z</time></trkpt><trkpt lat="40.5949507" lon="19.5731261"><ele>11.333333333333332</ele><time>2026-05-03T09:22:39.717Z</time></trkpt><trkpt lat="40.5950301" lon="19.5728787"><ele>11.0</ele><time>2026-05-03T09:22:40.717Z</time></trkpt><trkpt lat="40.5951078" lon="19.5726388"><ele>11.333333333333332</ele><time>2026-05-03T09:22:41.718Z</time></trkpt><trkpt lat="40.5951875" lon="19.5724138"><ele>11.666666666666666</ele><time>2026-05-03T09:22:42.718Z</time></trkpt><trkpt lat="40.5952747" lon="19.5721923"><ele>12.0</ele><time>2026-05-03T09:22:43.718Z</time></trkpt><trkpt lat="40.5953683" lon="19.5719684"><ele>12.0</ele><time>2026-05-03T09:22:44.717Z</time></trkpt><trkpt lat="40.5954619" lon="19.5717336"><ele>12.0</ele><time>2026-05-03T09:22:45.717Z</time></trkpt><trkpt lat="40.5955549" lon="19.5715052"><ele>12.0</ele><time>2026-05-03T09:22:46.718Z</time></trkpt><trkpt lat="40.5956416" lon="19.5712831"><ele>12.0</ele><time>2026-05-03T09:22:47.717Z</time></trkpt><trkpt lat="40.5957398" lon="19.5710535"><ele>12.0</ele><time>2026-05-03T09:22:48.718Z</time></trkpt><trkpt lat="40.5958354" lon="19.570829"><ele>12.0</ele><time>2026-05-03T09:22:49.718Z</time></trkpt><trkpt lat="40.5959353" lon="19.570606"><ele>12.0</ele><time>2026-05-03T09:22:50.718Z</time></trkpt><trkpt lat="40.5960415" lon="19.5703879"><ele>12.0</ele><time>2026-05-03T09:22:51.717Z</time></trkpt><trkpt lat="40.5961493" lon="19.5701692"><ele>12.0</ele><time>2026-05-03T09:22:52.717Z</time></trkpt><trkpt lat="40.5962599" lon="19.5699491"><ele>12.0</ele><time>2026-05-03T09:22:53.718Z</time></trkpt><trkpt lat="40.5963714" lon="19.5697283"><ele>12.0</ele><time>2026-05-03T09:22:54.718Z</time></trkpt><trkpt lat="40.5964885" lon="19.5695059"><ele>12.0</ele><time>2026-05-03T09:22:55.717Z</time></trkpt><trkpt lat="40.5965989" lon="19.5692721"><ele>12.0</ele><time>2026-05-03T09:22:56.718Z</time></trkpt><trkpt lat="40.5967164" lon="19.5690443"><ele>12.0</ele><time>2026-05-03T09:22:57.718Z</time></trkpt><trkpt lat="40.5968479" lon="19.5688091"><ele>12.0</ele><time>2026-05-03T09:22:58.718Z</time></trkpt><trkpt lat="40.5969623" lon="19.5685774"><ele>11.666666666666666</ele><time>2026-05-03T09:22:59.717Z</time></trkpt><trkpt lat="40.59708" lon="19.5683438"><ele>11.333333333333332</ele><time>2026-05-03T09:23:00.717Z</time></trkpt><trkpt lat="40.5972054" lon="19.5681081"><ele>11.0</ele><time>2026-05-03T09:23:01.717Z</time></trkpt><trkpt lat="40.5973244" lon="19.5678701"><ele>10.666666666666666</ele><time>2026-05-03T09:23:02.718Z</time></trkpt><trkpt lat="40.5974423" lon="19.567647"><ele>10.333333333333334</ele><time>2026-05-03T09:23:03.717Z</time></trkpt><trkpt lat="40.5975635" lon="19.5674162"><ele>10.0</ele><time>2026-05-03T09:23:04.717Z</time></trkpt><trkpt lat="40.5976796" lon="19.5671903"><ele>10.0</ele><time>2026-05-03T09:23:05.718Z</time></trkpt><trkpt lat="40.5977965" lon="19.5669595"><ele>10.0</ele><time>2026-05-03T09:23:06.718Z</time></trkpt><trkpt lat="40.5979152" lon="19.5667228"><ele>10.0</ele><time>2026-05-03T09:23:07.717Z</time></trkpt><trkpt lat="40.5980378" lon="19.5664909"><ele>10.0</ele><time>2026-05-03T09:23:08.717Z</time></trkpt><trkpt lat="40.5981595" lon="19.5662595"><ele>10.0</ele><time>2026-05-03T09:23:09.717Z</time></trkpt><trkpt lat="40.5982816" lon="19.566024"><ele>10.0</ele><time>2026-05-03T09:23:10.718Z</time></trkpt><trkpt lat="40.5983979" lon="19.5657822"><ele>10.0</ele><time>2026-05-03T09:23:11.717Z</time></trkpt><trkpt lat="40.5985204" lon="19.5655425"><ele>10.0</ele><time>2026-05-03T09:23:12.718Z</time></trkpt><trkpt lat="40.5986391" lon="19.5653063"><ele>10.0</ele><time>2026-05-03T09:23:13.717Z</time></trkpt><trkpt lat="40.5987604" lon="19.5650692"><ele>10.0</ele><time>2026-05-03T09:23:14.718Z</time></trkpt><trkpt lat="40.5988756" lon="19.564835"><ele>10.0</ele><time>2026-05-03T09:23:15.717Z</time></trkpt><trkpt lat="40.5989945" lon="19.5645979"><ele>10.0</ele><time>2026-05-03T09:23:16.718Z</time></trkpt><trkpt lat="40.5991169" lon="19.5643624"><ele>10.0</ele><time>2026-05-03T09:23:17.718Z</time></trkpt><trkpt lat="40.5992377" lon="19.564128"><ele>10.0</ele><time>2026-05-03T09:23:18.718Z</time></trkpt><trkpt lat="40.5993582" lon="19.563889"><ele>10.0</ele><time>2026-05-03T09:23:19.718Z</time></trkpt><trkpt lat="40.599478" lon="19.5636545"><ele>10.333333333333334</ele><time>2026-05-03T09:23:20.718Z</time></trkpt><trkpt lat="40.5996011" lon="19.5634218"><ele>10.666666666666666</ele><time>2026-05-03T09:23:21.717Z</time></trkpt><trkpt lat="40.5997212" lon="19.5631892"><ele>11.0</ele><time>2026-05-03T09:23:22.717Z</time></trkpt><trkpt lat="40.5998481" lon="19.5629513"><ele>10.666666666666666</ele><time>2026-05-03T09:23:23.717Z</time></trkpt><trkpt lat="40.5999732" lon="19.5627167"><ele>10.333333333333334</ele><time>2026-05-03T09:23:24.718Z</time></trkpt><trkpt lat="40.6000986" lon="19.5624777"><ele>10.0</ele><time>2026-05-03T09:23:25.717Z</time></trkpt><trkpt lat="40.6002164" lon="19.5622409"><ele>10.0</ele><time>2026-05-03T09:23:26.717Z</time></trkpt><trkpt lat="40.6003317" lon="19.5620032"><ele>10.0</ele><time>2026-05-03T09:23:27.717Z</time></trkpt><trkpt lat="40.6004523" lon="19.5617657"><ele>10.0</ele><time>2026-05-03T09:23:28.717Z</time></trkpt><trkpt lat="40.6005722" lon="19.5615243"><ele>10.0</ele><time>2026-05-03T09:23:29.717Z</time></trkpt><trkpt lat="40.6006946" lon="19.5612865"><ele>10.0</ele><time>2026-05-03T09:23:30.717Z</time></trkpt><trkpt lat="40.6008156" lon="19.5610463"><ele>10.0</ele><time>2026-05-03T09:23:31.718Z</time></trkpt><trkpt lat="40.6009343" lon="19.560805"><ele>9.666666666666668</ele><time>2026-05-03T09:23:32.718Z</time></trkpt><trkpt lat="40.6010548" lon="19.5605667"><ele>9.333333333333334</ele><time>2026-05-03T09:23:33.718Z</time></trkpt><trkpt lat="40.6011739" lon="19.5603294"><ele>9.0</ele><time>2026-05-03T09:23:34.718Z</time></trkpt><trkpt lat="40.601289" lon="19.560089"><ele>9.0</ele><time>2026-05-03T09:23:35.718Z</time></trkpt><trkpt lat="40.6014019" lon="19.5598465"><ele>9.0</ele><time>2026-05-03T09:23:36.718Z</time></trkpt><trkpt lat="40.6015185" lon="19.5596035"><ele>9.0</ele><time>2026-05-03T09:23:37.718Z</time></trkpt><trkpt lat="40.6016282" lon="19.5593582"><ele>9.0</ele><time>2026-05-03T09:23:38.718Z</time></trkpt><trkpt lat="40.6017363" lon="19.5591113"><ele>9.0</ele><time>2026-05-03T09:23:39.718Z</time></trkpt><trkpt lat="40.6018396" lon="19.5588611"><ele>9.0</ele><time>2026-05-03T09:23:40.717Z</time></trkpt><trkpt lat="40.6019428" lon="19.5586122"><ele>9.666666666666666</ele><time>2026-05-03T09:23:41.717Z</time></trkpt><trkpt lat="40.6020448" lon="19.55836"><ele>10.333333333333332</ele><time>2026-05-03T09:23:42.717Z</time></trkpt><trkpt lat="40.602143" lon="19.5581069"><ele>11.0</ele><time>2026-05-03T09:23:43.717Z</time></trkpt><trkpt lat="40.6022392" lon="19.5578499"><ele>11.0</ele><time>2026-05-03T09:23:44.718Z</time></trkpt><trkpt lat="40.602334" lon="19.5575973"><ele>11.0</ele><time>2026-05-03T09:23:45.717Z</time></trkpt><trkpt lat="40.6024236" lon="19.5573393"><ele>11.0</ele><time>2026-05-03T09:23:46.718Z</time></trkpt><trkpt lat="40.6025183" lon="19.5570792"><ele>10.666666666666666</ele><time>2026-05-03T09:23:47.718Z</time></trkpt><trkpt lat="40.6026108" lon="19.5568186"><ele>10.333333333333334</ele><time>2026-05-03T09:23:48.717Z</time></trkpt><trkpt lat="40.6027027" lon="19.5565583"><ele>10.0</ele><time>2026-05-03T09:23:49.717Z</time></trkpt><trkpt lat="40.6027935" lon="19.5562969"><ele>9.666666666666668</ele><time>2026-05-03T09:23:50.718Z</time></trkpt><trkpt lat="40.6028763" lon="19.5560306"><ele>9.333333333333334</ele><time>2026-05-03T09:23:51.717Z</time></trkpt><trkpt lat="40.6029586" lon="19.555767"><ele>9.0</ele><time>2026-05-03T09:23:52.717Z</time></trkpt><trkpt lat="40.6030412" lon="19.5555016"><ele>9.333333333333334</ele><time>2026-05-03T09:23:53.718Z</time></trkpt><trkpt lat="40.6031184" lon="19.555232"><ele>9.666666666666668</ele><time>2026-05-03T09:23:54.717Z</time></trkpt><trkpt lat="40.6031978" lon="19.5549637"><ele>10.0</ele><time>2026-05-03T09:23:55.718Z</time></trkpt><trkpt lat="40.6032762" lon="19.5546932"><ele>9.666666666666668</ele><time>2026-05-03T09:23:56.717Z</time></trkpt><trkpt lat="40.6033496" lon="19.5544232"><ele>9.333333333333334</ele><time>2026-05-03T09:23:57.717Z</time></trkpt><trkpt lat="40.6034217" lon="19.5541544"><ele>9.0</ele><time>2026-05-03T09:23:58.718Z</time></trkpt><trkpt lat="40.603496" lon="19.5538844"><ele>9.333333333333334</ele><time>2026-05-03T09:23:59.718Z</time></trkpt><trkpt lat="40.6035631" lon="19.553612"><ele>9.666666666666668</ele><time>2026-05-03T09:24:00.718Z</time></trkpt><trkpt lat="40.6036322" lon="19.5533353"><ele>10.0</ele><time>2026-05-03T09:24:01.717Z</time></trkpt><trkpt lat="40.6037046" lon="19.5530609"><ele>10.0</ele><time>2026-05-03T09:24:02.718Z</time></trkpt><trkpt lat="40.6037684" lon="19.5527874"><ele>10.0</ele><time>2026-05-03T09:24:03.718Z</time></trkpt><trkpt lat="40.6038361" lon="19.5525136"><ele>10.0</ele><time>2026-05-03T09:24:04.718Z</time></trkpt><trkpt lat="40.6039072" lon="19.552242"><ele>10.333333333333334</ele><time>2026-05-03T09:24:05.717Z</time></trkpt><trkpt lat="40.6039799" lon="19.5519694"><ele>10.666666666666666</ele><time>2026-05-03T09:24:06.718Z</time></trkpt><trkpt lat="40.6040493" lon="19.5516943"><ele>11.0</ele><time>2026-05-03T09:24:07.717Z</time></trkpt><trkpt lat="40.6041191" lon="19.5514212"><ele>10.666666666666666</ele><time>2026-05-03T09:24:08.717Z</time></trkpt><trkpt lat="40.6041791" lon="19.5511395"><ele>10.333333333333334</ele><time>2026-05-03T09:24:09.718Z</time></trkpt><trkpt lat="40.6042533" lon="19.5508696"><ele>10.0</ele><time>2026-05-03T09:24:10.717Z</time></trkpt><trkpt lat="40.6043203" lon="19.550605"><ele>10.0</ele><time>2026-05-03T09:24:11.717Z</time></trkpt><trkpt lat="40.6043884" lon="19.5503339"><ele>10.0</ele><time>2026-05-03T09:24:12.718Z</time></trkpt><trkpt lat="40.6044587" lon="19.5500624"><ele>10.0</ele><time>2026-05-03T09:24:13.718Z</time></trkpt><trkpt lat="40.6045279" lon="19.5497885"><ele>10.0</ele><time>2026-05-03T09:24:14.718Z</time></trkpt><trkpt lat="40.6046005" lon="19.5495197"><ele>10.0</ele><time>2026-05-03T09:24:15.717Z</time></trkpt><trkpt lat="40.6046639" lon="19.5492356"><ele>10.0</ele><time>2026-05-03T09:24:16.717Z</time></trkpt><trkpt lat="40.604739" lon="19.5489662"><ele>9.666666666666668</ele><time>2026-05-03T09:24:17.718Z</time></trkpt><trkpt lat="40.6048127" lon="19.5486886"><ele>9.333333333333334</ele><time>2026-05-03T09:24:18.718Z</time></trkpt><trkpt lat="40.604883" lon="19.5484096"><ele>9.0</ele><time>2026-05-03T09:24:19.718Z</time></trkpt><trkpt lat="40.6049582" lon="19.5481397"><ele>9.0</ele><time>2026-05-03T09:24:20.717Z</time></trkpt><trkpt lat="40.6050373" lon="19.5478678"><ele>9.0</ele><time>2026-05-03T09:24:21.718Z</time></trkpt><trkpt lat="40.605108" lon="19.547592"><ele>9.0</ele><time>2026-05-03T09:24:22.718Z</time></trkpt><trkpt lat="40.6051791" lon="19.5473166"><ele>9.333333333333334</ele><time>2026-05-03T09:24:23.718Z</time></trkpt><trkpt lat="40.6052533" lon="19.5470423"><ele>9.666666666666668</ele><time>2026-05-03T09:24:24.717Z</time></trkpt><trkpt lat="40.6053253" lon="19.5467739"><ele>10.0</ele><time>2026-05-03T09:24:25.718Z</time></trkpt><trkpt lat="40.605396" lon="19.5464973"><ele>10.5</ele><time>2026-05-03T09:24:26.717Z</time></trkpt><trkpt lat="40.6054704" lon="19.5462145"><ele>11.0</ele><time>2026-05-03T09:24:27.717Z</time></trkpt><trkpt lat="40.6055375" lon="19.5459342"><ele>11.0</ele><time>2026-05-03T09:24:28.718Z</time></trkpt><trkpt lat="40.6056145" lon="19.545663"><ele>11.0</ele><time>2026-05-03T09:24:29.718Z</time></trkpt><trkpt lat="40.6056855" lon="19.5453916"><ele>11.0</ele><time>2026-05-03T09:24:30.718Z</time></trkpt><trkpt lat="40.6057569" lon="19.5451125"><ele>10.666666666666666</ele><time>2026-05-03T09:24:31.718Z</time></trkpt><trkpt lat="40.6058337" lon="19.5448328"><ele>10.333333333333334</ele><time>2026-05-03T09:24:32.717Z</time></trkpt><trkpt lat="40.6059098" lon="19.5445562"><ele>10.0</ele><time>2026-05-03T09:24:33.717Z</time></trkpt><trkpt lat="40.6059756" lon="19.5442831"><ele>10.0</ele><time>2026-05-03T09:24:34.717Z</time></trkpt><trkpt lat="40.6060391" lon="19.5440122"><ele>10.0</ele><time>2026-05-03T09:24:35.717Z</time></trkpt><trkpt lat="40.6061171" lon="19.5437274"><ele>10.0</ele><time>2026-05-03T09:24:36.718Z</time></trkpt><trkpt lat="40.6061881" lon="19.5434488"><ele>9.666666666666668</ele><time>2026-05-03T09:24:37.718Z</time></trkpt><trkpt lat="40.6062534" lon="19.5431705"><ele>9.333333333333334</ele><time>2026-05-03T09:24:38.717Z</time></trkpt><trkpt lat="40.606318" lon="19.542883"><ele>9.0</ele><time>2026-05-03T09:24:39.717Z</time></trkpt><trkpt lat="40.6063946" lon="19.5426048"><ele>9.0</ele><time>2026-05-03T09:24:40.718Z</time></trkpt><trkpt lat="40.6064729" lon="19.5423289"><ele>9.0</ele><time>2026-05-03T09:24:41.717Z</time></trkpt><trkpt lat="40.6065446" lon="19.5420438"><ele>9.0</ele><time>2026-05-03T09:24:42.718Z</time></trkpt><trkpt lat="40.6066034" lon="19.541762"><ele>9.0</ele><time>2026-05-03T09:24:43.718Z</time></trkpt><trkpt lat="40.6066765" lon="19.5414872"><ele>9.0</ele><time>2026-05-03T09:24:44.717Z</time></trkpt><trkpt lat="40.6067478" lon="19.5412149"><ele>9.0</ele><time>2026-05-03T09:24:45.718Z</time></trkpt><trkpt lat="40.6068127" lon="19.5409433"><ele>9.0</ele><time>2026-05-03T09:24:46.718Z</time></trkpt><trkpt lat="40.6068726" lon="19.5406602"><ele>9.0</ele><time>2026-05-03T09:24:47.717Z</time></trkpt><trkpt lat="40.6069313" lon="19.540386"><ele>9.0</ele><time>2026-05-03T09:24:48.717Z</time></trkpt><trkpt lat="40.6070018" lon="19.5401147"><ele>9.0</ele><time>2026-05-03T09:24:49.718Z</time></trkpt><trkpt lat="40.6070707" lon="19.5398457"><ele>9.0</ele><time>2026-05-03T09:24:50.717Z</time></trkpt><trkpt lat="40.6071275" lon="19.539574"><ele>9.333333333333334</ele><time>2026-05-03T09:24:51.717Z</time></trkpt><trkpt lat="40.6072043" lon="19.5392981"><ele>9.666666666666668</ele><time>2026-05-03T09:24:52.717Z</time></trkpt><trkpt lat="40.607269" lon="19.5390424"><ele>10.0</ele><time>2026-05-03T09:24:53.718Z</time></trkpt><trkpt lat="40.6073418" lon="19.5387746"><ele>10.666666666666668</ele><time>2026-05-03T09:24:54.718Z</time></trkpt><trkpt lat="40.6074236" lon="19.5385018"><ele>11.333333333333334</ele><time>2026-05-03T09:24:55.718Z</time></trkpt><trkpt lat="40.6074979" lon="19.538225"><ele>12.0</ele><time>2026-05-03T09:24:56.718Z</time></trkpt><trkpt lat="40.6075768" lon="19.5379524"><ele>11.333333333333334</ele><time>2026-05-03T09:24:57.717Z</time></trkpt><trkpt lat="40.6076475" lon="19.5376758"><ele>10.666666666666668</ele><time>2026-05-03T09:24:58.717Z</time></trkpt><trkpt lat="40.6077182" lon="19.5374064"><ele>10.0</ele><time>2026-05-03T09:24:59.717Z</time></trkpt><trkpt lat="40.6077878" lon="19.5371346"><ele>9.666666666666668</ele><time>2026-05-03T09:25:00.718Z</time></trkpt><trkpt lat="40.607855" lon="19.5368678"><ele>9.333333333333334</ele><time>2026-05-03T09:25:01.718Z</time></trkpt><trkpt lat="40.6079204" lon="19.5366109"><ele>9.0</ele><time>2026-05-03T09:25:02.717Z</time></trkpt><trkpt lat="40.6079863" lon="19.5363493"><ele>9.666666666666666</ele><time>2026-05-03T09:25:03.717Z</time></trkpt><trkpt lat="40.6080551" lon="19.5360993"><ele>10.333333333333332</ele><time>2026-05-03T09:25:04.717Z</time></trkpt><trkpt lat="40.6081152" lon="19.5358393"><ele>11.0</ele><time>2026-05-03T09:25:05.718Z</time></trkpt><trkpt lat="40.6081808" lon="19.5355819"><ele>10.666666666666666</ele><time>2026-05-03T09:25:06.718Z</time></trkpt><trkpt lat="40.6082481" lon="19.5353319"><ele>10.333333333333334</ele><time>2026-05-03T09:25:07.717Z</time></trkpt><trkpt lat="40.6083211" lon="19.5350785"><ele>10.0</ele><time>2026-05-03T09:25:08.718Z</time></trkpt><trkpt lat="40.608391" lon="19.5348262"><ele>10.0</ele><time>2026-05-03T09:25:09.718Z</time></trkpt><trkpt lat="40.6084586" lon="19.5345699"><ele>10.0</ele><time>2026-05-03T09:25:10.718Z</time></trkpt><trkpt lat="40.6085373" lon="19.5343117"><ele>10.0</ele><time>2026-05-03T09:25:11.717Z</time></trkpt><trkpt lat="40.6086076" lon="19.534042"><ele>9.666666666666668</ele><time>2026-05-03T09:25:12.717Z</time></trkpt><trkpt lat="40.6086793" lon="19.5337688"><ele>9.333333333333334</ele><time>2026-05-03T09:25:13.717Z</time></trkpt><trkpt lat="40.6087487" lon="19.5334921"><ele>9.0</ele><time>2026-05-03T09:25:14.718Z</time></trkpt><trkpt lat="40.6088201" lon="19.5332056"><ele>8.5</ele><time>2026-05-03T09:25:15.718Z</time></trkpt><trkpt lat="40.6088822" lon="19.5329207"><ele>8.0</ele><time>2026-05-03T09:25:16.718Z</time></trkpt><trkpt lat="40.6089515" lon="19.5326342"><ele>8.0</ele><time>2026-05-03T09:25:17.717Z</time></trkpt><trkpt lat="40.6090276" lon="19.5323562"><ele>8.0</ele><time>2026-05-03T09:25:18.718Z</time></trkpt><trkpt lat="40.6091045" lon="19.5320835"><ele>8.0</ele><time>2026-05-03T09:25:19.717Z</time></trkpt><trkpt lat="40.6091775" lon="19.5318019"><ele>8.0</ele><time>2026-05-03T09:25:20.717Z</time></trkpt><trkpt lat="40.6092449" lon="19.5315224"><ele>8.0</ele><time>2026-05-03T09:25:21.718Z</time></trkpt><trkpt lat="40.6093049" lon="19.5312429"><ele>8.0</ele><time>2026-05-03T09:25:22.718Z</time></trkpt><trkpt lat="40.6093755" lon="19.5309682"><ele>8.0</ele><time>2026-05-03T09:25:23.717Z</time></trkpt><trkpt lat="40.6094449" lon="19.5306942"><ele>8.0</ele><time>2026-05-03T09:25:24.717Z</time></trkpt><trkpt lat="40.6095131" lon="19.5304292"><ele>8.0</ele><time>2026-05-03T09:25:25.717Z</time></trkpt><trkpt lat="40.6095757" lon="19.5301656"><ele>8.0</ele><time>2026-05-03T09:25:26.717Z</time></trkpt><trkpt lat="40.6096477" lon="19.5299051"><ele>8.0</ele><time>2026-05-03T09:25:27.718Z</time></trkpt><trkpt lat="40.6097242" lon="19.5296519"><ele>8.0</ele><time>2026-05-03T09:25:28.718Z</time></trkpt><trkpt lat="40.609801" lon="19.5293938"><ele>8.0</ele><time>2026-05-03T09:25:29.718Z</time></trkpt><trkpt lat="40.6098742" lon="19.5291429"><ele>8.0</ele><time>2026-05-03T09:25:30.718Z</time></trkpt><trkpt lat="40.609958" lon="19.528893"><ele>8.0</ele><time>2026-05-03T09:25:31.717Z</time></trkpt><trkpt lat="40.6100455" lon="19.5286402"><ele>8.0</ele><time>2026-05-03T09:25:32.718Z</time></trkpt><trkpt lat="40.6101322" lon="19.5283957"><ele>8.0</ele><time>2026-05-03T09:25:33.718Z</time></trkpt><trkpt lat="40.6102218" lon="19.5281435"><ele>8.0</ele><time>2026-05-03T09:25:34.717Z</time></trkpt><trkpt lat="40.6103101" lon="19.5278974"><ele>7.333333333333333</ele><time>2026-05-03T09:25:35.718Z</time></trkpt><trkpt lat="40.6104009" lon="19.5276409"><ele>6.666666666666666</ele><time>2026-05-03T09:25:36.718Z</time></trkpt><trkpt lat="40.6105132" lon="19.5274001"><ele>6.0</ele><time>2026-05-03T09:25:37.718Z</time></trkpt><trkpt lat="40.6106202" lon="19.5271662"><ele>6.333333333333334</ele><time>2026-05-03T09:25:38.717Z</time></trkpt><trkpt lat="40.6107357" lon="19.5269285"><ele>6.666666666666667</ele><time>2026-05-03T09:25:39.717Z</time></trkpt><trkpt lat="40.6108534" lon="19.5266898"><ele>7.0</ele><time>2026-05-03T09:25:40.718Z</time></trkpt><trkpt lat="40.6109724" lon="19.5264592"><ele>7.0</ele><time>2026-05-03T09:25:41.717Z</time></trkpt><trkpt lat="40.6110919" lon="19.5262288"><ele>7.0</ele><time>2026-05-03T09:25:42.718Z</time></trkpt><trkpt lat="40.6112181" lon="19.5260032"><ele>7.0</ele><time>2026-05-03T09:25:43.718Z</time></trkpt><trkpt lat="40.6113415" lon="19.5257717"><ele>7.333333333333334</ele><time>2026-05-03T09:25:44.718Z</time></trkpt><trkpt lat="40.6114714" lon="19.5255404"><ele>7.666666666666666</ele><time>2026-05-03T09:25:45.718Z</time></trkpt><trkpt lat="40.6116096" lon="19.5253191"><ele>8.0</ele><time>2026-05-03T09:25:46.717Z</time></trkpt><trkpt lat="40.6117487" lon="19.5251016"><ele>8.0</ele><time>2026-05-03T09:25:47.718Z</time></trkpt><trkpt lat="40.6118916" lon="19.5248854"><ele>8.0</ele><time>2026-05-03T09:25:48.717Z</time></trkpt><trkpt lat="40.6120407" lon="19.5246759"><ele>8.0</ele><time>2026-05-03T09:25:49.718Z</time></trkpt><trkpt lat="40.6121884" lon="19.5244659"><ele>8.0</ele><time>2026-05-03T09:25:50.718Z</time></trkpt><trkpt lat="40.6123331" lon="19.5242566"><ele>8.0</ele><time>2026-05-03T09:25:51.718Z</time></trkpt><trkpt lat="40.6124808" lon="19.5240624"><ele>8.0</ele><time>2026-05-03T09:25:52.718Z</time></trkpt><trkpt lat="40.6126329" lon="19.5238616"><ele>8.0</ele><time>2026-05-03T09:25:53.717Z</time></trkpt><trkpt lat="40.6127896" lon="19.5236701"><ele>8.0</ele><time>2026-05-03T09:25:54.717Z</time></trkpt><trkpt lat="40.6129525" lon="19.523489"><ele>8.0</ele><time>2026-05-03T09:25:55.717Z</time></trkpt><trkpt lat="40.6131216" lon="19.5233032"><ele>8.0</ele><time>2026-05-03T09:25:56.717Z</time></trkpt><trkpt lat="40.6132836" lon="19.523126"><ele>8.0</ele><time>2026-05-03T09:25:57.717Z</time></trkpt><trkpt lat="40.6134476" lon="19.5229534"><ele>8.0</ele><time>2026-05-03T09:25:58.718Z</time></trkpt><trkpt lat="40.6136101" lon="19.5227786"><ele>8.0</ele><time>2026-05-03T09:25:59.718Z</time></trkpt><trkpt lat="40.6137752" lon="19.5226177"><ele>8.0</ele><time>2026-05-03T09:26:00.717Z</time></trkpt><trkpt lat="40.6139457" lon="19.522461"><ele>8.0</ele><time>2026-05-03T09:26:01.718Z</time></trkpt><trkpt lat="40.6141168" lon="19.5223025"><ele>8.0</ele><time>2026-05-03T09:26:02.718Z</time></trkpt><trkpt lat="40.6142935" lon="19.5221498"><ele>8.0</ele><time>2026-05-03T09:26:03.717Z</time></trkpt><trkpt lat="40.6144652" lon="19.5220097"><ele>8.0</ele><time>2026-05-03T09:26:04.718Z</time></trkpt><trkpt lat="40.6146343" lon="19.5218653"><ele>8.0</ele><time>2026-05-03T09:26:05.718Z</time></trkpt><trkpt lat="40.614806" lon="19.5217238"><ele>8.0</ele><time>2026-05-03T09:26:06.718Z</time></trkpt><trkpt lat="40.6149807" lon="19.5215883"><ele>8.0</ele><time>2026-05-03T09:26:07.718Z</time></trkpt><trkpt lat="40.6151525" lon="19.5214521"><ele>8.0</ele><time>2026-05-03T09:26:08.718Z</time></trkpt><trkpt lat="40.6153254" lon="19.5213107"><ele>8.0</ele><time>2026-05-03T09:26:09.717Z</time></trkpt><trkpt lat="40.615494" lon="19.5211708"><ele>8.0</ele><time>2026-05-03T09:26:10.717Z</time></trkpt><trkpt lat="40.6156648" lon="19.5210291"><ele>8.0</ele><time>2026-05-03T09:26:11.718Z</time></trkpt><trkpt lat="40.6158316" lon="19.520888"><ele>8.0</ele><time>2026-05-03T09:26:12.718Z</time></trkpt><trkpt lat="40.6159991" lon="19.5207605"><ele>8.0</ele><time>2026-05-03T09:26:13.718Z</time></trkpt><trkpt lat="40.6161639" lon="19.5206265"><ele>8.0</ele><time>2026-05-03T09:26:14.718Z</time></trkpt><trkpt lat="40.6163318" lon="19.5205062"><ele>8.0</ele><time>2026-05-03T09:26:15.717Z</time></trkpt><trkpt lat="40.6164942" lon="19.520373"><ele>8.0</ele><time>2026-05-03T09:26:16.718Z</time></trkpt><trkpt lat="40.6166672" lon="19.5202333"><ele>8.0</ele><time>2026-05-03T09:26:17.718Z</time></trkpt><trkpt lat="40.6168293" lon="19.520099"><ele>8.0</ele><time>2026-05-03T09:26:18.718Z</time></trkpt><trkpt lat="40.6169865" lon="19.519967"><ele>8.0</ele><time>2026-05-03T09:26:19.717Z</time></trkpt><trkpt lat="40.6171465" lon="19.5198358"><ele>8.0</ele><time>2026-05-03T09:26:20.718Z</time></trkpt><trkpt lat="40.6173138" lon="19.5197036"><ele>8.0</ele><time>2026-05-03T09:26:21.717Z</time></trkpt><trkpt lat="40.6174734" lon="19.5195825"><ele>8.0</ele><time>2026-05-03T09:26:22.717Z</time></trkpt><trkpt lat="40.617635" lon="19.519445"><ele>8.0</ele><time>2026-05-03T09:26:23.717Z</time></trkpt><trkpt lat="40.6178011" lon="19.5193039"><ele>8.0</ele><time>2026-05-03T09:26:24.717Z</time></trkpt><trkpt lat="40.6179636" lon="19.5191604"><ele>8.0</ele><time>2026-05-03T09:26:25.718Z</time></trkpt><trkpt lat="40.6181242" lon="19.5190339"><ele>8.0</ele><time>2026-05-03T09:26:26.718Z</time></trkpt><trkpt lat="40.6182766" lon="19.5189105"><ele>8.0</ele><time>2026-05-03T09:26:27.717Z</time></trkpt><trkpt lat="40.6184338" lon="19.5187879"><ele>8.0</ele><time>2026-05-03T09:26:28.718Z</time></trkpt><trkpt lat="40.6185832" lon="19.5186607"><ele>8.333333333333332</ele><time>2026-05-03T09:26:29.717Z</time></trkpt><trkpt lat="40.6187363" lon="19.5185389"><ele>8.666666666666666</ele><time>2026-05-03T09:26:30.717Z</time></trkpt><trkpt lat="40.6188913" lon="19.5184198"><ele>9.0</ele><time>2026-05-03T09:26:31.718Z</time></trkpt><trkpt lat="40.619046" lon="19.5182858"><ele>9.0</ele><time>2026-05-03T09:26:32.718Z</time></trkpt><trkpt lat="40.6191993" lon="19.5181649"><ele>9.0</ele><time>2026-05-03T09:26:33.717Z</time></trkpt><trkpt lat="40.6193473" lon="19.518052"><ele>9.0</ele><time>2026-05-03T09:26:34.718Z</time></trkpt><trkpt lat="40.619499" lon="19.5179223"><ele>8.666666666666666</ele><time>2026-05-03T09:26:35.718Z</time></trkpt><trkpt lat="40.6196476" lon="19.5178056"><ele>8.333333333333332</ele><time>2026-05-03T09:26:36.717Z</time></trkpt><trkpt lat="40.6197915" lon="19.5176891"><ele>8.0</ele><time>2026-05-03T09:26:37.718Z</time></trkpt><trkpt lat="40.6199365" lon="19.5175995"><ele>8.0</ele><time>2026-05-03T09:26:38.718Z</time></trkpt><trkpt lat="40.6200726" lon="19.5174889"><ele>8.0</ele><time>2026-05-03T09:26:39.718Z</time></trkpt><trkpt lat="40.6202129" lon="19.5173643"><ele>8.0</ele><time>2026-05-03T09:26:40.718Z</time></trkpt><trkpt lat="40.6203557" lon="19.5172544"><ele>8.0</ele><time>2026-05-03T09:26:41.718Z</time></trkpt><trkpt lat="40.6205019" lon="19.5171362"><ele>8.0</ele><time>2026-05-03T09:26:42.717Z</time></trkpt><trkpt lat="40.6206486" lon="19.5170175"><ele>8.0</ele><time>2026-05-03T09:26:43.718Z</time></trkpt><trkpt lat="40.6208064" lon="19.5168874"><ele>8.0</ele><time>2026-05-03T09:26:44.717Z</time></trkpt><trkpt lat="40.6209588" lon="19.5167615"><ele>8.0</ele><time>2026-05-03T09:26:45.718Z</time></trkpt><trkpt lat="40.6211178" lon="19.5166419"><ele>8.0</ele><time>2026-05-03T09:26:46.717Z</time></trkpt><trkpt lat="40.6212655" lon="19.5165295"><ele>7.666666666666666</ele><time>2026-05-03T09:26:47.718Z</time></trkpt><trkpt lat="40.6214205" lon="19.5163977"><ele>7.333333333333334</ele><time>2026-05-03T09:26:48.717Z</time></trkpt><trkpt lat="40.6215712" lon="19.5162736"><ele>7.0</ele><time>2026-05-03T09:26:49.717Z</time></trkpt><trkpt lat="40.621724" lon="19.5161424"><ele>7.0</ele><time>2026-05-03T09:26:50.718Z</time></trkpt><trkpt lat="40.6218758" lon="19.5160146"><ele>7.0</ele><time>2026-05-03T09:26:51.717Z</time></trkpt><trkpt lat="40.6220336" lon="19.5158913"><ele>7.0</ele><time>2026-05-03T09:26:52.717Z</time></trkpt><trkpt lat="40.6221882" lon="19.51577"><ele>7.0</ele><time>2026-05-03T09:26:53.717Z</time></trkpt><trkpt lat="40.6223421" lon="19.5156469"><ele>7.0</ele><time>2026-05-03T09:26:54.718Z</time></trkpt><trkpt lat="40.6224965" lon="19.5155237"><ele>7.0</ele><time>2026-05-03T09:26:55.718Z</time></trkpt><trkpt lat="40.6226516" lon="19.5153979"><ele>7.0</ele><time>2026-05-03T09:26:56.717Z</time></trkpt><trkpt lat="40.6228139" lon="19.5152727"><ele>7.0</ele><time>2026-05-03T09:26:57.717Z</time></trkpt><trkpt lat="40.622981" lon="19.5151392"><ele>7.0</ele><time>2026-05-03T09:26:58.718Z</time></trkpt><trkpt lat="40.6231489" lon="19.5150042"><ele>7.0</ele><time>2026-05-03T09:26:59.717Z</time></trkpt><trkpt lat="40.623323" lon="19.5148667"><ele>7.0</ele><time>2026-05-03T09:27:00.718Z</time></trkpt><trkpt lat="40.6234977" lon="19.5147309"><ele>7.0</ele><time>2026-05-03T09:27:01.717Z</time></trkpt><trkpt lat="40.6236715" lon="19.5145952"><ele>7.0</ele><time>2026-05-03T09:27:02.718Z</time></trkpt><trkpt lat="40.6238446" lon="19.5144509"><ele>7.0</ele><time>2026-05-03T09:27:03.718Z</time></trkpt><trkpt lat="40.6240082" lon="19.5143119"><ele>7.0</ele><time>2026-05-03T09:27:04.718Z</time></trkpt><trkpt lat="40.6241771" lon="19.5141722"><ele>7.0</ele><time>2026-05-03T09:27:05.718Z</time></trkpt><trkpt lat="40.6243488" lon="19.5140388"><ele>7.0</ele><time>2026-05-03T09:27:06.717Z</time></trkpt><trkpt lat="40.6245164" lon="19.5139037"><ele>7.0</ele><time>2026-05-03T09:27:07.717Z</time></trkpt><trkpt lat="40.6246833" lon="19.5137659"><ele>7.666666666666667</ele><time>2026-05-03T09:27:08.717Z</time></trkpt><trkpt lat="40.6248454" lon="19.5136332"><ele>8.333333333333334</ele><time>2026-05-03T09:27:09.717Z</time></trkpt><trkpt lat="40.6250115" lon="19.5135026"><ele>9.0</ele><time>2026-05-03T09:27:10.717Z</time></trkpt><trkpt lat="40.6251789" lon="19.5133605"><ele>9.0</ele><time>2026-05-03T09:27:11.717Z</time></trkpt><trkpt lat="40.6253379" lon="19.5132267"><ele>9.0</ele><time>2026-05-03T09:27:12.718Z</time></trkpt><trkpt lat="40.6255027" lon="19.5131007"><ele>9.0</ele><time>2026-05-03T09:27:13.718Z</time></trkpt><trkpt lat="40.6256651" lon="19.5129711"><ele>8.666666666666666</ele><time>2026-05-03T09:27:14.717Z</time></trkpt><trkpt lat="40.6258274" lon="19.5128389"><ele>8.333333333333332</ele><time>2026-05-03T09:27:15.718Z</time></trkpt><trkpt lat="40.6259934" lon="19.5127154"><ele>8.0</ele><time>2026-05-03T09:27:16.717Z</time></trkpt><trkpt lat="40.6261578" lon="19.5125835"><ele>8.0</ele><time>2026-05-03T09:27:17.717Z</time></trkpt><trkpt lat="40.6263248" lon="19.5124493"><ele>8.0</ele><time>2026-05-03T09:27:18.718Z</time></trkpt><trkpt lat="40.6264937" lon="19.5123142"><ele>8.0</ele><time>2026-05-03T09:27:19.718Z</time></trkpt><trkpt lat="40.6266529" lon="19.51218"><ele>8.0</ele><time>2026-05-03T09:27:20.717Z</time></trkpt><trkpt lat="40.6268198" lon="19.512052"><ele>8.0</ele><time>2026-05-03T09:27:21.718Z</time></trkpt><trkpt lat="40.6269878" lon="19.5119188"><ele>8.0</ele><time>2026-05-03T09:27:22.717Z</time></trkpt><trkpt lat="40.6271484" lon="19.5117874"><ele>8.0</ele><time>2026-05-03T09:27:23.717Z</time></trkpt><trkpt lat="40.6273153" lon="19.5116526"><ele>8.0</ele><time>2026-05-03T09:27:24.717Z</time></trkpt><trkpt lat="40.6274842" lon="19.5115107"><ele>8.0</ele><time>2026-05-03T09:27:25.717Z</time></trkpt><trkpt lat="40.6276546" lon="19.511371"><ele>7.666666666666666</ele><time>2026-05-03T09:27:26.717Z</time></trkpt><trkpt lat="40.6278239" lon="19.5112287"><ele>7.333333333333334</ele><time>2026-05-03T09:27:27.717Z</time></trkpt><trkpt lat="40.6279918" lon="19.5110889"><ele>7.0</ele><time>2026-05-03T09:27:28.717Z</time></trkpt><trkpt lat="40.6281617" lon="19.5109553"><ele>7.0</ele><time>2026-05-03T09:27:29.717Z</time></trkpt><trkpt lat="40.6283324" lon="19.5108123"><ele>7.0</ele><time>2026-05-03T09:27:30.718Z</time></trkpt><trkpt lat="40.6285021" lon="19.5106813"><ele>7.0</ele><time>2026-05-03T09:27:31.718Z</time></trkpt><trkpt lat="40.6286733" lon="19.5105406"><ele>7.333333333333334</ele><time>2026-05-03T09:27:32.718Z</time></trkpt><trkpt lat="40.6288425" lon="19.510412"><ele>7.666666666666666</ele><time>2026-05-03T09:27:33.717Z</time></trkpt><trkpt lat="40.6290111" lon="19.5102724"><ele>8.0</ele><time>2026-05-03T09:27:34.718Z</time></trkpt><trkpt lat="40.6291839" lon="19.5101359"><ele>8.0</ele><time>2026-05-03T09:27:35.717Z</time></trkpt><trkpt lat="40.6293513" lon="19.509998"><ele>8.0</ele><time>2026-05-03T09:27:36.718Z</time></trkpt><trkpt lat="40.6295178" lon="19.5098648"><ele>8.0</ele><time>2026-05-03T09:27:37.718Z</time></trkpt><trkpt lat="40.6296877" lon="19.5097266"><ele>7.333333333333333</ele><time>2026-05-03T09:27:38.718Z</time></trkpt><trkpt lat="40.629861" lon="19.5096008"><ele>6.666666666666666</ele><time>2026-05-03T09:27:39.717Z</time></trkpt><trkpt lat="40.6300254" lon="19.5094757"><ele>6.0</ele><time>2026-05-03T09:27:40.718Z</time></trkpt><trkpt lat="40.630189" lon="19.5093438"><ele>6.333333333333334</ele><time>2026-05-03T09:27:41.718Z</time></trkpt><trkpt lat="40.630355" lon="19.5092048"><ele>6.666666666666667</ele><time>2026-05-03T09:27:42.718Z</time></trkpt><trkpt lat="40.630511" lon="19.5090828"><ele>7.0</ele><time>2026-05-03T09:27:43.717Z</time></trkpt><trkpt lat="40.6306718" lon="19.5089567"><ele>7.0</ele><time>2026-05-03T09:27:44.717Z</time></trkpt><trkpt lat="40.630829" lon="19.5088312"><ele>7.0</ele><time>2026-05-03T09:27:45.717Z</time></trkpt><trkpt lat="40.630994" lon="19.508693"><ele>7.0</ele><time>2026-05-03T09:27:46.718Z</time></trkpt><trkpt lat="40.6311532" lon="19.5085703"><ele>6.666666666666667</ele><time>2026-05-03T09:27:47.717Z</time></trkpt><trkpt lat="40.6313185" lon="19.5084348"><ele>6.333333333333334</ele><time>2026-05-03T09:27:48.718Z</time></trkpt><trkpt lat="40.6314856" lon="19.5082986"><ele>6.0</ele><time>2026-05-03T09:27:49.717Z</time></trkpt><trkpt lat="40.6316472" lon="19.5081553"><ele>6.0</ele><time>2026-05-03T09:27:50.718Z</time></trkpt><trkpt lat="40.6318119" lon="19.5080156"><ele>6.0</ele><time>2026-05-03T09:27:51.718Z</time></trkpt><trkpt lat="40.6319729" lon="19.5078848"><ele>6.0</ele><time>2026-05-03T09:27:52.718Z</time></trkpt><trkpt lat="40.6321335" lon="19.5077454"><ele>6.0</ele><time>2026-05-03T09:27:53.717Z</time></trkpt><trkpt lat="40.6322992" lon="19.5076103"><ele>6.0</ele><time>2026-05-03T09:27:54.718Z</time></trkpt><trkpt lat="40.6324654" lon="19.5074752"><ele>6.0</ele><time>2026-05-03T09:27:55.718Z</time></trkpt><trkpt lat="40.6326262" lon="19.5073402"><ele>6.0</ele><time>2026-05-03T09:27:56.717Z</time></trkpt><trkpt lat="40.6328006" lon="19.5071973"><ele>6.0</ele><time>2026-05-03T09:27:57.718Z</time></trkpt><trkpt lat="40.6329723" lon="19.5070537"><ele>6.0</ele><time>2026-05-03T09:27:58.717Z</time></trkpt><trkpt lat="40.6331414" lon="19.5069175"><ele>6.0</ele><time>2026-05-03T09:27:59.718Z</time></trkpt><trkpt lat="40.6333151" lon="19.5067886"><ele>6.0</ele><time>2026-05-03T09:28:00.718Z</time></trkpt><trkpt lat="40.6334872" lon="19.5066561"><ele>6.0</ele><time>2026-05-03T09:28:01.717Z</time></trkpt><trkpt lat="40.633653" lon="19.5065209"><ele>6.0</ele><time>2026-05-03T09:28:02.718Z</time></trkpt><trkpt lat="40.6338175" lon="19.5064025"><ele>6.0</ele><time>2026-05-03T09:28:03.717Z</time></trkpt><trkpt lat="40.6339821" lon="19.5062773"><ele>6.0</ele><time>2026-05-03T09:28:04.718Z</time></trkpt><trkpt lat="40.6341453" lon="19.5061433"><ele>6.0</ele><time>2026-05-03T09:28:05.718Z</time></trkpt><trkpt lat="40.6343047" lon="19.506016"><ele>6.0</ele><time>2026-05-03T09:28:06.718Z</time></trkpt><trkpt lat="40.6344599" lon="19.5058966"><ele>6.0</ele><time>2026-05-03T09:28:07.717Z</time></trkpt><trkpt lat="40.634619" lon="19.5057755"><ele>6.0</ele><time>2026-05-03T09:28:08.718Z</time></trkpt><trkpt lat="40.6347782" lon="19.5056517"><ele>6.0</ele><time>2026-05-03T09:28:09.718Z</time></trkpt><trkpt lat="40.6349445" lon="19.5055252"><ele>6.0</ele><time>2026-05-03T09:28:10.717Z</time></trkpt><trkpt lat="40.6351042" lon="19.5054045"><ele>6.333333333333334</ele><time>2026-05-03T09:28:11.718Z</time></trkpt><trkpt lat="40.6352654" lon="19.5052777"><ele>6.666666666666667</ele><time>2026-05-03T09:28:12.718Z</time></trkpt><trkpt lat="40.6354271" lon="19.5051574"><ele>7.0</ele><time>2026-05-03T09:28:13.718Z</time></trkpt><trkpt lat="40.6355899" lon="19.5050388"><ele>7.333333333333334</ele><time>2026-05-03T09:28:14.717Z</time></trkpt><trkpt lat="40.6357545" lon="19.504914"><ele>7.666666666666666</ele><time>2026-05-03T09:28:15.718Z</time></trkpt><trkpt lat="40.6359167" lon="19.5047831"><ele>8.0</ele><time>2026-05-03T09:28:16.718Z</time></trkpt><trkpt lat="40.6360767" lon="19.5046654"><ele>8.0</ele><time>2026-05-03T09:28:17.717Z</time></trkpt><trkpt lat="40.6362377" lon="19.5045488"><ele>8.0</ele><time>2026-05-03T09:28:18.718Z</time></trkpt><trkpt lat="40.6363995" lon="19.5044256"><ele>8.0</ele><time>2026-05-03T09:28:19.717Z</time></trkpt><trkpt lat="40.636565" lon="19.504312"><ele>8.0</ele><time>2026-05-03T09:28:20.717Z</time></trkpt><trkpt lat="40.6367285" lon="19.5042049"><ele>8.0</ele><time>2026-05-03T09:28:21.718Z</time></trkpt><trkpt lat="40.6368911" lon="19.5040913"><ele>8.0</ele><time>2026-05-03T09:28:22.717Z</time></trkpt><trkpt lat="40.6370483" lon="19.5039788"><ele>8.333333333333332</ele><time>2026-05-03T09:28:23.718Z</time></trkpt><trkpt lat="40.6372192" lon="19.5038601"><ele>8.666666666666666</ele><time>2026-05-03T09:28:24.717Z</time></trkpt><trkpt lat="40.6373819" lon="19.5037441"><ele>9.0</ele><time>2026-05-03T09:28:25.718Z</time></trkpt><trkpt lat="40.6375442" lon="19.5036369"><ele>9.0</ele><time>2026-05-03T09:28:26.718Z</time></trkpt><trkpt lat="40.6377144" lon="19.5035285"><ele>9.0</ele><time>2026-05-03T09:28:27.718Z</time></trkpt><trkpt lat="40.6378768" lon="19.5034177"><ele>9.0</ele><time>2026-05-03T09:28:28.717Z</time></trkpt><trkpt lat="40.6380364" lon="19.503296"><ele>8.666666666666666</ele><time>2026-05-03T09:28:29.718Z</time></trkpt><trkpt lat="40.6381998" lon="19.503186"><ele>8.333333333333332</ele><time>2026-05-03T09:28:30.718Z</time></trkpt><trkpt lat="40.6383626" lon="19.5030654"><ele>8.0</ele><time>2026-05-03T09:28:31.718Z</time></trkpt><trkpt lat="40.6385268" lon="19.5029524"><ele>8.0</ele><time>2026-05-03T09:28:32.717Z</time></trkpt><trkpt lat="40.6386857" lon="19.5028437"><ele>8.0</ele><time>2026-05-03T09:28:33.717Z</time></trkpt><trkpt lat="40.6388564" lon="19.5027266"><ele>8.0</ele><time>2026-05-03T09:28:34.717Z</time></trkpt><trkpt lat="40.6390199" lon="19.502619"><ele>8.0</ele><time>2026-05-03T09:28:35.717Z</time></trkpt><trkpt lat="40.6391801" lon="19.5025133"><ele>8.0</ele><time>2026-05-03T09:28:36.717Z</time></trkpt><trkpt lat="40.639341" lon="19.5024078"><ele>8.0</ele><time>2026-05-03T09:28:37.717Z</time></trkpt><trkpt lat="40.639498" lon="19.5023113"><ele>8.333333333333332</ele><time>2026-05-03T09:28:38.717Z</time></trkpt><trkpt lat="40.6396585" lon="19.5022164"><ele>8.666666666666666</ele><time>2026-05-03T09:28:39.718Z</time></trkpt><trkpt lat="40.6398152" lon="19.5021172"><ele>9.0</ele><time>2026-05-03T09:28:40.717Z</time></trkpt><trkpt lat="40.6399733" lon="19.5020188"><ele>9.0</ele><time>2026-05-03T09:28:41.718Z</time></trkpt><trkpt lat="40.6401307" lon="19.501907"><ele>9.0</ele><time>2026-05-03T09:28:42.718Z</time></trkpt><trkpt lat="40.6402943" lon="19.5017988"><ele>9.0</ele><time>2026-05-03T09:28:43.717Z</time></trkpt><trkpt lat="40.6404551" lon="19.5016932"><ele>8.666666666666666</ele><time>2026-05-03T09:28:44.717Z</time></trkpt><trkpt lat="40.6406188" lon="19.501577"><ele>8.333333333333332</ele><time>2026-05-03T09:28:45.718Z</time></trkpt><trkpt lat="40.640794" lon="19.501463"><ele>8.0</ele><time>2026-05-03T09:28:46.717Z</time></trkpt><trkpt lat="40.6409697" lon="19.5013523"><ele>7.666666666666666</ele><time>2026-05-03T09:28:47.718Z</time></trkpt><trkpt lat="40.6411422" lon="19.5012389"><ele>7.333333333333334</ele><time>2026-05-03T09:28:48.717Z</time></trkpt><trkpt lat="40.6413228" lon="19.501121"><ele>7.0</ele><time>2026-05-03T09:28:49.718Z</time></trkpt><trkpt lat="40.6414989" lon="19.5010053"><ele>7.0</ele><time>2026-05-03T09:28:50.717Z</time></trkpt><trkpt lat="40.6416746" lon="19.5008862"><ele>7.0</ele><time>2026-05-03T09:28:51.717Z</time></trkpt><trkpt lat="40.6418487" lon="19.5007672"><ele>7.0</ele><time>2026-05-03T09:28:52.717Z</time></trkpt><trkpt lat="40.6420202" lon="19.5006461"><ele>7.333333333333334</ele><time>2026-05-03T09:28:53.717Z</time></trkpt><trkpt lat="40.6421965" lon="19.5005315"><ele>7.666666666666666</ele><time>2026-05-03T09:28:54.718Z</time></trkpt><trkpt lat="40.6423646" lon="19.5004204"><ele>8.0</ele><time>2026-05-03T09:28:55.717Z</time></trkpt><trkpt lat="40.642543" lon="19.5003017"><ele>7.666666666666666</ele><time>2026-05-03T09:28:56.717Z</time></trkpt><trkpt lat="40.6427174" lon="19.5001882"><ele>7.333333333333334</ele><time>2026-05-03T09:28:57.718Z</time></trkpt><trkpt lat="40.6429004" lon="19.5000633"><ele>7.0</ele><time>2026-05-03T09:28:58.718Z</time></trkpt><trkpt lat="40.6430836" lon="19.4999576"><ele>7.0</ele><time>2026-05-03T09:28:59.718Z</time></trkpt><trkpt lat="40.6432726" lon="19.4998361"><ele>7.0</ele><time>2026-05-03T09:29:00.717Z</time></trkpt><trkpt lat="40.6434511" lon="19.4997174"><ele>7.0</ele><time>2026-05-03T09:29:01.717Z</time></trkpt><trkpt lat="40.6436288" lon="19.4995926"><ele>6.666666666666667</ele><time>2026-05-03T09:29:02.717Z</time></trkpt><trkpt lat="40.6438047" lon="19.4994753"><ele>6.333333333333334</ele><time>2026-05-03T09:29:03.717Z</time></trkpt><trkpt lat="40.6439821" lon="19.4993582"><ele>6.0</ele><time>2026-05-03T09:29:04.718Z</time></trkpt><trkpt lat="40.6441607" lon="19.4992402"><ele>6.0</ele><time>2026-05-03T09:29:05.718Z</time></trkpt><trkpt lat="40.6443383" lon="19.4991181"><ele>6.0</ele><time>2026-05-03T09:29:06.717Z</time></trkpt><trkpt lat="40.6445185" lon="19.4990042"><ele>6.0</ele><time>2026-05-03T09:29:07.717Z</time></trkpt><trkpt lat="40.6447011" lon="19.498883"><ele>6.0</ele><time>2026-05-03T09:29:08.718Z</time></trkpt><trkpt lat="40.6448852" lon="19.4987625"><ele>6.0</ele><time>2026-05-03T09:29:09.718Z</time></trkpt><trkpt lat="40.645064" lon="19.4986482"><ele>6.0</ele><time>2026-05-03T09:29:10.717Z</time></trkpt><trkpt lat="40.6452399" lon="19.4985246"><ele>6.0</ele><time>2026-05-03T09:29:11.718Z</time></trkpt><trkpt lat="40.6454139" lon="19.4984054"><ele>6.0</ele><time>2026-05-03T09:29:12.718Z</time></trkpt><trkpt lat="40.6455843" lon="19.4982839"><ele>6.0</ele><time>2026-05-03T09:29:13.717Z</time></trkpt><trkpt lat="40.6457609" lon="19.4981658"><ele>6.0</ele><time>2026-05-03T09:29:14.717Z</time></trkpt><trkpt lat="40.6459315" lon="19.4980445"><ele>6.0</ele><time>2026-05-03T09:29:15.718Z</time></trkpt><trkpt lat="40.6461084" lon="19.4979228"><ele>6.0</ele><time>2026-05-03T09:29:16.718Z</time></trkpt><trkpt lat="40.6462814" lon="19.4978047"><ele>6.333333333333334</ele><time>2026-05-03T09:29:17.718Z</time></trkpt><trkpt lat="40.6464611" lon="19.4976815"><ele>6.666666666666667</ele><time>2026-05-03T09:29:18.718Z</time></trkpt><trkpt lat="40.6466394" lon="19.4975712"><ele>7.0</ele><time>2026-05-03T09:29:19.718Z</time></trkpt><trkpt lat="40.6468171" lon="19.4974539"><ele>7.0</ele><time>2026-05-03T09:29:20.717Z</time></trkpt><trkpt lat="40.6469935" lon="19.4973294"><ele>7.0</ele><time>2026-05-03T09:29:21.718Z</time></trkpt><trkpt lat="40.6471634" lon="19.4972111"><ele>7.0</ele><time>2026-05-03T09:29:22.717Z</time></trkpt><trkpt lat="40.6473341" lon="19.4970951"><ele>6.666666666666667</ele><time>2026-05-03T09:29:23.718Z</time></trkpt><trkpt lat="40.6475043" lon="19.4969827"><ele>6.333333333333334</ele><time>2026-05-03T09:29:24.718Z</time></trkpt><trkpt lat="40.6476671" lon="19.4968765"><ele>6.0</ele><time>2026-05-03T09:29:25.718Z</time></trkpt><trkpt lat="40.6478285" lon="19.4967657"><ele>5.666666666666667</ele><time>2026-05-03T09:29:26.718Z</time></trkpt><trkpt lat="40.6479937" lon="19.4966563"><ele>5.333333333333334</ele><time>2026-05-03T09:29:27.718Z</time></trkpt><trkpt lat="40.6481554" lon="19.4965383"><ele>5.0</ele><time>2026-05-03T09:29:28.718Z</time></trkpt><trkpt lat="40.6483244" lon="19.4964263"><ele>5.0</ele><time>2026-05-03T09:29:29.718Z</time></trkpt><trkpt lat="40.6484947" lon="19.4963136"><ele>5.0</ele><time>2026-05-03T09:29:30.717Z</time></trkpt><trkpt lat="40.6486673" lon="19.4961991"><ele>5.0</ele><time>2026-05-03T09:29:31.717Z</time></trkpt><trkpt lat="40.6488295" lon="19.4960864"><ele>5.0</ele><time>2026-05-03T09:29:32.718Z</time></trkpt><trkpt lat="40.6489966" lon="19.4959764"><ele>5.0</ele><time>2026-05-03T09:29:33.717Z</time></trkpt><trkpt lat="40.6491651" lon="19.4958735"><ele>5.0</ele><time>2026-05-03T09:29:34.718Z</time></trkpt><trkpt lat="40.649337" lon="19.4957568"><ele>5.0</ele><time>2026-05-03T09:29:35.718Z</time></trkpt><trkpt lat="40.6495114" lon="19.4956446"><ele>5.0</ele><time>2026-05-03T09:29:36.717Z</time></trkpt><trkpt lat="40.649683" lon="19.4955203"><ele>5.0</ele><time>2026-05-03T09:29:37.717Z</time></trkpt><trkpt lat="40.6498553" lon="19.4954125"><ele>5.0</ele><time>2026-05-03T09:29:38.717Z</time></trkpt><trkpt lat="40.6500315" lon="19.4952964"><ele>5.0</ele><time>2026-05-03T09:29:39.717Z</time></trkpt><trkpt lat="40.6502072" lon="19.4951822"><ele>5.0</ele><time>2026-05-03T09:29:40.717Z</time></trkpt><trkpt lat="40.650376" lon="19.4950595"><ele>5.0</ele><time>2026-05-03T09:29:41.717Z</time></trkpt><trkpt lat="40.6505514" lon="19.494942"><ele>5.0</ele><time>2026-05-03T09:29:42.718Z</time></trkpt><trkpt lat="40.6507311" lon="19.4948217"><ele>5.0</ele><time>2026-05-03T09:29:43.718Z</time></trkpt><trkpt lat="40.6509043" lon="19.4947091"><ele>5.0</ele><time>2026-05-03T09:29:44.718Z</time></trkpt><trkpt lat="40.6510822" lon="19.4945964"><ele>5.0</ele><time>2026-05-03T09:29:45.718Z</time></trkpt><trkpt lat="40.6512556" lon="19.4944853"><ele>5.0</ele><time>2026-05-03T09:29:46.717Z</time></trkpt><trkpt lat="40.651424" lon="19.4943779"><ele>5.333333333333334</ele><time>2026-05-03T09:29:47.718Z</time></trkpt><trkpt lat="40.6515968" lon="19.4942649"><ele>5.666666666666667</ele><time>2026-05-03T09:29:48.717Z</time></trkpt><trkpt lat="40.6517707" lon="19.4941477"><ele>6.0</ele><time>2026-05-03T09:29:49.717Z</time></trkpt><trkpt lat="40.6519464" lon="19.4940329"><ele>6.333333333333334</ele><time>2026-05-03T09:29:50.718Z</time></trkpt><trkpt lat="40.6521286" lon="19.4939087"><ele>6.666666666666667</ele><time>2026-05-03T09:29:51.718Z</time></trkpt><trkpt lat="40.6523027" lon="19.4937942"><ele>7.0</ele><time>2026-05-03T09:29:52.717Z</time></trkpt><trkpt lat="40.6524809" lon="19.4936772"><ele>7.0</ele><time>2026-05-03T09:29:53.717Z</time></trkpt><trkpt lat="40.6526616" lon="19.493558"><ele>7.0</ele><time>2026-05-03T09:29:54.717Z</time></trkpt><trkpt lat="40.6528356" lon="19.4934422"><ele>7.0</ele><time>2026-05-03T09:29:55.718Z</time></trkpt><trkpt lat="40.6530157" lon="19.4933125"><ele>7.0</ele><time>2026-05-03T09:29:56.718Z</time></trkpt><trkpt lat="40.6531948" lon="19.4931745"><ele>7.0</ele><time>2026-05-03T09:29:57.717Z</time></trkpt><trkpt lat="40.6533823" lon="19.493053"><ele>7.0</ele><time>2026-05-03T09:29:58.717Z</time></trkpt><trkpt lat="40.6535649" lon="19.4929455"><ele>6.666666666666667</ele><time>2026-05-03T09:29:59.717Z</time></trkpt><trkpt lat="40.6537432" lon="19.4928279"><ele>6.333333333333334</ele><time>2026-05-03T09:30:00.717Z</time></trkpt><trkpt lat="40.6539175" lon="19.4927077"><ele>6.0</ele><time>2026-05-03T09:30:01.717Z</time></trkpt><trkpt lat="40.6540946" lon="19.4926033"><ele>6.0</ele><time>2026-05-03T09:30:02.718Z</time></trkpt><trkpt lat="40.6542665" lon="19.4924894"><ele>6.0</ele><time>2026-05-03T09:30:03.718Z</time></trkpt><trkpt lat="40.6544402" lon="19.4923751"><ele>6.0</ele><time>2026-05-03T09:30:04.717Z</time></trkpt><trkpt lat="40.6546158" lon="19.4922568"><ele>6.0</ele><time>2026-05-03T09:30:05.718Z</time></trkpt><trkpt lat="40.6547894" lon="19.4921253"><ele>6.0</ele><time>2026-05-03T09:30:06.717Z</time></trkpt><trkpt lat="40.6549663" lon="19.4919989"><ele>6.0</ele><time>2026-05-03T09:30:07.717Z</time></trkpt><trkpt lat="40.6551413" lon="19.491883"><ele>6.0</ele><time>2026-05-03T09:30:08.717Z</time></trkpt><trkpt lat="40.6553092" lon="19.4917668"><ele>6.0</ele><time>2026-05-03T09:30:09.717Z</time></trkpt><trkpt lat="40.6554735" lon="19.4916582"><ele>6.0</ele><time>2026-05-03T09:30:10.717Z</time></trkpt><trkpt lat="40.6556415" lon="19.4915474"><ele>6.0</ele><time>2026-05-03T09:30:11.718Z</time></trkpt><trkpt lat="40.6558056" lon="19.4914376"><ele>6.0</ele><time>2026-05-03T09:30:12.718Z</time></trkpt><trkpt lat="40.6559771" lon="19.4913315"><ele>6.0</ele><time>2026-05-03T09:30:13.718Z</time></trkpt><trkpt lat="40.6561505" lon="19.4912259"><ele>5.666666666666667</ele><time>2026-05-03T09:30:14.717Z</time></trkpt><trkpt lat="40.6563289" lon="19.4911224"><ele>5.333333333333334</ele><time>2026-05-03T09:30:15.718Z</time></trkpt><trkpt lat="40.6565085" lon="19.4910238"><ele>5.0</ele><time>2026-05-03T09:30:16.717Z</time></trkpt><trkpt lat="40.6566965" lon="19.4909309"><ele>5.0</ele><time>2026-05-03T09:30:17.718Z</time></trkpt><trkpt lat="40.6568833" lon="19.4908323"><ele>5.0</ele><time>2026-05-03T09:30:18.718Z</time></trkpt><trkpt lat="40.6570729" lon="19.49075"><ele>5.0</ele><time>2026-05-03T09:30:19.717Z</time></trkpt><trkpt lat="40.6572611" lon="19.4906599"><ele>5.333333333333334</ele><time>2026-05-03T09:30:20.718Z</time></trkpt><trkpt lat="40.6574525" lon="19.4905813"><ele>5.666666666666667</ele><time>2026-05-03T09:30:21.718Z</time></trkpt><trkpt lat="40.6576449" lon="19.4905044"><ele>6.0</ele><time>2026-05-03T09:30:22.718Z</time></trkpt><trkpt lat="40.65784" lon="19.4904338"><ele>6.0</ele><time>2026-05-03T09:30:23.717Z</time></trkpt><trkpt lat="40.658027" lon="19.4903626"><ele>6.0</ele><time>2026-05-03T09:30:24.718Z</time></trkpt><trkpt lat="40.6582217" lon="19.4902915"><ele>6.0</ele><time>2026-05-03T09:30:25.718Z</time></trkpt><trkpt lat="40.6584156" lon="19.4902252"><ele>6.0</ele><time>2026-05-03T09:30:26.717Z</time></trkpt><trkpt lat="40.6586104" lon="19.4901523"><ele>6.0</ele><time>2026-05-03T09:30:27.718Z</time></trkpt><trkpt lat="40.6588073" lon="19.4900849"><ele>6.0</ele><time>2026-05-03T09:30:28.718Z</time></trkpt><trkpt lat="40.6590007" lon="19.490014"><ele>6.333333333333334</ele><time>2026-05-03T09:30:29.717Z</time></trkpt><trkpt lat="40.6591952" lon="19.489943"><ele>6.666666666666667</ele><time>2026-05-03T09:30:30.718Z</time></trkpt><trkpt lat="40.6593895" lon="19.4898766"><ele>7.0</ele><time>2026-05-03T09:30:31.717Z</time></trkpt><trkpt lat="40.6595828" lon="19.4898052"><ele>7.333333333333334</ele><time>2026-05-03T09:30:32.718Z</time></trkpt><trkpt lat="40.659771" lon="19.4897421"><ele>7.666666666666666</ele><time>2026-05-03T09:30:33.718Z</time></trkpt><trkpt lat="40.6599669" lon="19.4896634"><ele>8.0</ele><time>2026-05-03T09:30:34.718Z</time></trkpt><trkpt lat="40.6601584" lon="19.4895938"><ele>8.0</ele><time>2026-05-03T09:30:35.717Z</time></trkpt><trkpt lat="40.6603446" lon="19.4895171"><ele>8.0</ele><time>2026-05-03T09:30:36.718Z</time></trkpt><trkpt lat="40.6605284" lon="19.4894606"><ele>8.0</ele><time>2026-05-03T09:30:37.718Z</time></trkpt><trkpt lat="40.660714" lon="19.4893861"><ele>8.0</ele><time>2026-05-03T09:30:38.717Z</time></trkpt><trkpt lat="40.660902" lon="19.4893177"><ele>8.0</ele><time>2026-05-03T09:30:39.718Z</time></trkpt><trkpt lat="40.6610898" lon="19.4892482"><ele>8.0</ele><time>2026-05-03T09:30:40.718Z</time></trkpt><trkpt lat="40.6612779" lon="19.4891818"><ele>8.333333333333332</ele><time>2026-05-03T09:30:41.717Z</time></trkpt><trkpt lat="40.6614643" lon="19.4891165"><ele>8.666666666666666</ele><time>2026-05-03T09:30:42.718Z</time></trkpt><trkpt lat="40.6616509" lon="19.489053"><ele>9.0</ele><time>2026-05-03T09:30:43.717Z</time></trkpt><trkpt lat="40.6618384" lon="19.4889833"><ele>9.0</ele><time>2026-05-03T09:30:44.717Z</time></trkpt><trkpt lat="40.6620234" lon="19.488918"><ele>9.0</ele><time>2026-05-03T09:30:45.718Z</time></trkpt><trkpt lat="40.6622104" lon="19.4888533"><ele>9.0</ele><time>2026-05-03T09:30:46.718Z</time></trkpt><trkpt lat="40.6623969" lon="19.4887842"><ele>9.0</ele><time>2026-05-03T09:30:47.717Z</time></trkpt><trkpt lat="40.662585" lon="19.4887158"><ele>9.0</ele><time>2026-05-03T09:30:48.718Z</time></trkpt><trkpt lat="40.6627629" lon="19.4886565"><ele>9.0</ele><time>2026-05-03T09:30:49.718Z</time></trkpt><trkpt lat="40.6629452" lon="19.488595"><ele>9.0</ele><time>2026-05-03T09:30:50.718Z</time></trkpt><trkpt lat="40.6631289" lon="19.4885306"><ele>9.0</ele><time>2026-05-03T09:30:51.717Z</time></trkpt><trkpt lat="40.6633104" lon="19.4884643"><ele>9.0</ele><time>2026-05-03T09:30:52.718Z</time></trkpt><trkpt lat="40.6634915" lon="19.4884013"><ele>9.333333333333334</ele><time>2026-05-03T09:30:53.718Z</time></trkpt><trkpt lat="40.6636736" lon="19.4883334"><ele>9.666666666666668</ele><time>2026-05-03T09:30:54.717Z</time></trkpt><trkpt lat="40.6638565" lon="19.48827"><ele>10.0</ele><time>2026-05-03T09:30:55.718Z</time></trkpt><trkpt lat="40.6640395" lon="19.4882055"><ele>10.0</ele><time>2026-05-03T09:30:56.717Z</time></trkpt><trkpt lat="40.6642203" lon="19.4881385"><ele>10.0</ele><time>2026-05-03T09:30:57.718Z</time></trkpt><trkpt lat="40.6644032" lon="19.4880718"><ele>10.0</ele><time>2026-05-03T09:30:58.718Z</time></trkpt><trkpt lat="40.664586" lon="19.4880054"><ele>9.333333333333334</ele><time>2026-05-03T09:30:59.718Z</time></trkpt><trkpt lat="40.6647682" lon="19.4879408"><ele>8.666666666666666</ele><time>2026-05-03T09:31:00.717Z</time></trkpt><trkpt lat="40.6649498" lon="19.4878785"><ele>8.0</ele><time>2026-05-03T09:31:01.718Z</time></trkpt><trkpt lat="40.6651269" lon="19.487814"><ele>7.333333333333333</ele><time>2026-05-03T09:31:02.717Z</time></trkpt><trkpt lat="40.6653038" lon="19.4877497"><ele>6.666666666666666</ele><time>2026-05-03T09:31:03.718Z</time></trkpt><trkpt lat="40.6654787" lon="19.4876848"><ele>6.0</ele><time>2026-05-03T09:31:04.718Z</time></trkpt><trkpt lat="40.6656537" lon="19.4876199"><ele>6.0</ele><time>2026-05-03T09:31:05.718Z</time></trkpt><trkpt lat="40.6658222" lon="19.487559"><ele>6.0</ele><time>2026-05-03T09:31:06.717Z</time></trkpt><trkpt lat="40.6659945" lon="19.4874911"><ele>6.0</ele><time>2026-05-03T09:31:07.718Z</time></trkpt><trkpt lat="40.6661678" lon="19.4874174"><ele>6.666666666666666</ele><time>2026-05-03T09:31:08.717Z</time></trkpt><trkpt lat="40.6663411" lon="19.4873405"><ele>7.333333333333333</ele><time>2026-05-03T09:31:09.717Z</time></trkpt><trkpt lat="40.666516" lon="19.4872641"><ele>8.0</ele><time>2026-05-03T09:31:10.717Z</time></trkpt><trkpt lat="40.666695" lon="19.4871672"><ele>7.666666666666666</ele><time>2026-05-03T09:31:11.717Z</time></trkpt><trkpt lat="40.6668763" lon="19.4870771"><ele>7.333333333333334</ele><time>2026-05-03T09:31:12.718Z</time></trkpt><trkpt lat="40.6670558" lon="19.4869693"><ele>7.0</ele><time>2026-05-03T09:31:13.717Z</time></trkpt><trkpt lat="40.667232" lon="19.4868697"><ele>6.666666666666667</ele><time>2026-05-03T09:31:14.718Z</time></trkpt><trkpt lat="40.6674035" lon="19.486777"><ele>6.333333333333334</ele><time>2026-05-03T09:31:15.718Z</time></trkpt><trkpt lat="40.6675669" lon="19.4866677"><ele>6.0</ele><time>2026-05-03T09:31:16.718Z</time></trkpt><trkpt lat="40.6677237" lon="19.4865503"><ele>6.0</ele><time>2026-05-03T09:31:17.718Z</time></trkpt><trkpt lat="40.6678814" lon="19.4864416"><ele>6.0</ele><time>2026-05-03T09:31:18.718Z</time></trkpt><trkpt lat="40.6680299" lon="19.4863171"><ele>6.0</ele><time>2026-05-03T09:31:19.718Z</time></trkpt><trkpt lat="40.6681849" lon="19.4861947"><ele>6.0</ele><time>2026-05-03T09:31:20.718Z</time></trkpt><trkpt lat="40.6683348" lon="19.4860587"><ele>6.0</ele><time>2026-05-03T09:31:21.717Z</time></trkpt><trkpt lat="40.6684833" lon="19.4859219"><ele>6.0</ele><time>2026-05-03T09:31:22.717Z</time></trkpt><trkpt lat="40.668632" lon="19.4857898"><ele>6.0</ele><time>2026-05-03T09:31:23.718Z</time></trkpt><trkpt lat="40.668774" lon="19.4856436"><ele>6.0</ele><time>2026-05-03T09:31:24.718Z</time></trkpt><trkpt lat="40.6689099" lon="19.4855002"><ele>6.0</ele><time>2026-05-03T09:31:25.717Z</time></trkpt><trkpt lat="40.669046" lon="19.4853585"><ele>6.333333333333334</ele><time>2026-05-03T09:31:26.718Z</time></trkpt><trkpt lat="40.6691777" lon="19.4852176"><ele>6.666666666666667</ele><time>2026-05-03T09:31:27.718Z</time></trkpt><trkpt lat="40.669306" lon="19.4850709"><ele>7.0</ele><time>2026-05-03T09:31:28.717Z</time></trkpt><trkpt lat="40.6694294" lon="19.4849205"><ele>6.333333333333334</ele><time>2026-05-03T09:31:29.718Z</time></trkpt><trkpt lat="40.6695562" lon="19.484762"><ele>5.666666666666667</ele><time>2026-05-03T09:31:30.717Z</time></trkpt><trkpt lat="40.6696761" lon="19.4845963"><ele>5.0</ele><time>2026-05-03T09:31:31.717Z</time></trkpt><trkpt lat="40.6697892" lon="19.4844271"><ele>5.0</ele><time>2026-05-03T09:31:32.717Z</time></trkpt><trkpt lat="40.6699065" lon="19.4842564"><ele>5.0</ele><time>2026-05-03T09:31:33.717Z</time></trkpt><trkpt lat="40.6700289" lon="19.4840818"><ele>5.0</ele><time>2026-05-03T09:31:34.717Z</time></trkpt><trkpt lat="40.6701464" lon="19.4839094"><ele>4.666666666666667</ele><time>2026-05-03T09:31:35.717Z</time></trkpt><trkpt lat="40.6702588" lon="19.4837371"><ele>4.333333333333333</ele><time>2026-05-03T09:31:36.717Z</time></trkpt><trkpt lat="40.670364" lon="19.4835693"><ele>4.0</ele><time>2026-05-03T09:31:37.717Z</time></trkpt><trkpt lat="40.670467" lon="19.4834094"><ele>4.0</ele><time>2026-05-03T09:31:38.717Z</time></trkpt><trkpt lat="40.6705635" lon="19.4832546"><ele>4.0</ele><time>2026-05-03T09:31:39.718Z</time></trkpt><trkpt lat="40.6706619" lon="19.4831143"><ele>4.0</ele><time>2026-05-03T09:31:40.718Z</time></trkpt><trkpt lat="40.6707534" lon="19.4829797"><ele>4.0</ele><time>2026-05-03T09:31:41.718Z</time></trkpt><trkpt lat="40.6708432" lon="19.4828547"><ele>3.75</ele><time>2026-05-03T09:31:42.717Z</time></trkpt><trkpt lat="40.6709288" lon="19.4827478"><ele>3.5</ele><time>2026-05-03T09:31:43.718Z</time></trkpt><trkpt lat="40.6710199" lon="19.4826492"><ele>3.25</ele><time>2026-05-03T09:31:44.718Z</time></trkpt><trkpt lat="40.6711106" lon="19.4825614"><ele>3.0</ele><time>2026-05-03T09:31:45.717Z</time></trkpt><trkpt lat="40.6711975" lon="19.4824808"><ele>3.4</ele><time>2026-05-03T09:31:46.717Z</time></trkpt><trkpt lat="40.671289" lon="19.4824032"><ele>3.8</ele><time>2026-05-03T09:31:47.717Z</time></trkpt><trkpt lat="40.6713825" lon="19.4823253"><ele>4.2</ele><time>2026-05-03T09:31:48.717Z</time></trkpt><trkpt lat="40.6714765" lon="19.4822541"><ele>4.6</ele><time>2026-05-03T09:31:49.718Z</time></trkpt><trkpt lat="40.6715748" lon="19.4821801"><ele>5.0</ele><time>2026-05-03T09:31:50.717Z</time></trkpt><trkpt lat="40.6716601" lon="19.4821035"><ele>5.0</ele><time>2026-05-03T09:31:51.718Z</time></trkpt><trkpt lat="40.6717429" lon="19.4820215"><ele>5.0</ele><time>2026-05-03T09:31:52.718Z</time></trkpt><trkpt lat="40.671821" lon="19.4819439"><ele>5.0</ele><time>2026-05-03T09:31:53.717Z</time></trkpt><trkpt lat="40.6718906" lon="19.4818704"><ele>5.0</ele><time>2026-05-03T09:31:54.718Z</time></trkpt><trkpt lat="40.6719484" lon="19.4817943"><ele>5.0</ele><time>2026-05-03T09:31:55.717Z</time></trkpt><trkpt lat="40.6720083" lon="19.4817209"><ele>5.0</ele><time>2026-05-03T09:31:56.718Z</time></trkpt><trkpt lat="40.6720674" lon="19.4816359"><ele>5.0</ele><time>2026-05-03T09:31:57.717Z</time></trkpt><trkpt lat="40.6721253" lon="19.4815495"><ele>5.0</ele><time>2026-05-03T09:31:58.718Z</time></trkpt><trkpt lat="40.6721814" lon="19.4814593"><ele>5.0</ele><time>2026-05-03T09:31:59.718Z</time></trkpt><trkpt lat="40.6722387" lon="19.4813552"><ele>5.0</ele><time>2026-05-03T09:32:00.718Z</time></trkpt><trkpt lat="40.6722956" lon="19.4812572"><ele>5.0</ele><time>2026-05-03T09:32:01.717Z</time></trkpt><trkpt lat="40.6723452" lon="19.481146"><ele>5.0</ele><time>2026-05-03T09:32:02.718Z</time></trkpt><trkpt lat="40.6723894" lon="19.4810374"><ele>5.0</ele><time>2026-05-03T09:32:03.718Z</time></trkpt><trkpt lat="40.6724294" lon="19.480949"><ele>5.0</ele><time>2026-05-03T09:32:04.717Z</time></trkpt><trkpt lat="40.6724654" lon="19.4808535"><ele>5.0</ele><time>2026-05-03T09:32:05.718Z</time></trkpt><trkpt lat="40.6725026" lon="19.4807578"><ele>5.0</ele><time>2026-05-03T09:32:06.718Z</time></trkpt><trkpt lat="40.6725418" lon="19.4806716"><ele>5.0</ele><time>2026-05-03T09:32:07.718Z</time></trkpt><trkpt lat="40.6725816" lon="19.4805844"><ele>5.0</ele><time>2026-05-03T09:32:08.718Z</time></trkpt><trkpt lat="40.6726136" lon="19.4805065"><ele>5.0</ele><time>2026-05-03T09:32:09.717Z</time></trkpt><trkpt lat="40.6726593" lon="19.4803757"><ele>5.0</ele><time>2026-05-03T09:32:11.717Z</time></trkpt><trkpt lat="40.6726962" lon="19.480282"><ele>5.0</ele><time>2026-05-03T09:32:13.718Z</time></trkpt><trkpt lat="40.6727365" lon="19.4801947"><ele>5.0</ele><time>2026-05-03T09:32:16.717Z</time></trkpt><trkpt lat="40.672793" lon="19.4801286"><ele>5.0</ele><time>2026-05-03T09:32:19.717Z</time></trkpt><trkpt lat="40.6728934" lon="19.4801005"><ele>5.0</ele><time>2026-05-03T09:32:21.718Z</time></trkpt><trkpt lat="40.6729587" lon="19.4800912"><ele>5.0</ele><time>2026-05-03T09:32:22.717Z</time></trkpt><trkpt lat="40.6730297" lon="19.4800965"><ele>5.0</ele><time>2026-05-03T09:32:23.718Z</time></trkpt><trkpt lat="40.6731161" lon="19.4800967"><ele>5.0</ele><time>2026-05-03T09:32:24.717Z</time></trkpt><trkpt lat="40.673213" lon="19.480076"><ele>5.0</ele><time>2026-05-03T09:32:25.717Z</time></trkpt><trkpt lat="40.6733196" lon="19.4800463"><ele>5.0</ele><time>2026-05-03T09:32:26.718Z</time></trkpt><trkpt lat="40.6734258" lon="19.4799921"><ele>5.0</ele><time>2026-05-03T09:32:27.718Z</time></trkpt><trkpt lat="40.6735248" lon="19.4799176"><ele>5.0</ele><time>2026-05-03T09:32:28.718Z</time></trkpt><trkpt lat="40.6736157" lon="19.4798209"><ele>5.0</ele><time>2026-05-03T09:32:29.718Z</time></trkpt><trkpt lat="40.6737085" lon="19.4797336"><ele>5.0</ele><time>2026-05-03T09:32:30.718Z</time></trkpt><trkpt lat="40.6738136" lon="19.479671"><ele>5.0</ele><time>2026-05-03T09:32:31.717Z</time></trkpt><trkpt lat="40.6739242" lon="19.4796284"><ele>5.0</ele><time>2026-05-03T09:32:32.718Z</time></trkpt><trkpt lat="40.6740379" lon="19.4796234"><ele>5.0</ele><time>2026-05-03T09:32:33.718Z</time></trkpt><trkpt lat="40.674154" lon="19.4796124"><ele>4.75</ele><time>2026-05-03T09:32:34.718Z</time></trkpt><trkpt lat="40.6742759" lon="19.4795923"><ele>4.5</ele><time>2026-05-03T09:32:35.718Z</time></trkpt><trkpt lat="40.6744099" lon="19.4795731"><ele>4.25</ele><time>2026-05-03T09:32:36.718Z</time></trkpt><trkpt lat="40.6745512" lon="19.4795405"><ele>4.0</ele><time>2026-05-03T09:32:37.717Z</time></trkpt><trkpt lat="40.6746936" lon="19.4795174"><ele>4.0</ele><time>2026-05-03T09:32:38.717Z</time></trkpt><trkpt lat="40.6748302" lon="19.4794964"><ele>4.0</ele><time>2026-05-03T09:32:39.718Z</time></trkpt><trkpt lat="40.6749642" lon="19.4794644"><ele>4.0</ele><time>2026-05-03T09:32:40.718Z</time></trkpt><trkpt lat="40.6750994" lon="19.4794279"><ele>4.0</ele><time>2026-05-03T09:32:41.718Z</time></trkpt><trkpt lat="40.6752345" lon="19.4793941"><ele>3.75</ele><time>2026-05-03T09:32:42.718Z</time></trkpt><trkpt lat="40.6753687" lon="19.4793674"><ele>3.5</ele><time>2026-05-03T09:32:43.718Z</time></trkpt><trkpt lat="40.675508" lon="19.4793368"><ele>3.25</ele><time>2026-05-03T09:32:44.717Z</time></trkpt><trkpt lat="40.6756537" lon="19.4793026"><ele>3.0</ele><time>2026-05-03T09:32:45.717Z</time></trkpt><trkpt lat="40.675804" lon="19.4792621"><ele>3.0</ele><time>2026-05-03T09:32:46.717Z</time></trkpt><trkpt lat="40.6759562" lon="19.4792273"><ele>3.0</ele><time>2026-05-03T09:32:47.717Z</time></trkpt><trkpt lat="40.6761266" lon="19.4791845"><ele>3.0</ele><time>2026-05-03T09:32:48.718Z</time></trkpt><trkpt lat="40.6763035" lon="19.479154"><ele>3.0</ele><time>2026-05-03T09:32:49.718Z</time></trkpt><trkpt lat="40.676495" lon="19.4791053"><ele>3.0</ele><time>2026-05-03T09:32:50.718Z</time></trkpt><trkpt lat="40.6766941" lon="19.4790427"><ele>3.0</ele><time>2026-05-03T09:32:51.717Z</time></trkpt><trkpt lat="40.6769116" lon="19.4789744"><ele>4.0</ele><time>2026-05-03T09:32:52.718Z</time></trkpt><trkpt lat="40.677149" lon="19.4789"><ele>5.0</ele><time>2026-05-03T09:32:53.718Z</time></trkpt><trkpt lat="40.6773887" lon="19.4788289"><ele>4.5</ele><time>2026-05-03T09:32:54.718Z</time></trkpt><trkpt lat="40.6776329" lon="19.4787514"><ele>4.0</ele><time>2026-05-03T09:32:55.717Z</time></trkpt><trkpt lat="40.6778818" lon="19.4786814"><ele>4.0</ele><time>2026-05-03T09:32:56.717Z</time></trkpt><trkpt lat="40.6781286" lon="19.4786051"><ele>4.0</ele><time>2026-05-03T09:32:57.718Z</time></trkpt><trkpt lat="40.6783746" lon="19.4785156"><ele>4.0</ele><time>2026-05-03T09:32:58.717Z</time></trkpt><trkpt lat="40.6786134" lon="19.4784152"><ele>4.0</ele><time>2026-05-03T09:32:59.717Z</time></trkpt><trkpt lat="40.6788466" lon="19.4783132"><ele>4.0</ele><time>2026-05-03T09:33:00.717Z</time></trkpt><trkpt lat="40.679071" lon="19.4782298"><ele>4.0</ele><time>2026-05-03T09:33:01.718Z</time></trkpt><trkpt lat="40.679292" lon="19.4781456"><ele>3.6666666666666665</ele><time>2026-05-03T09:33:02.717Z</time></trkpt><trkpt lat="40.679507" lon="19.4780626"><ele>3.333333333333333</ele><time>2026-05-03T09:33:03.718Z</time></trkpt><trkpt lat="40.6797191" lon="19.4779687"><ele>3.0</ele><time>2026-05-03T09:33:04.718Z</time></trkpt><trkpt lat="40.6799316" lon="19.477871"><ele>3.0</ele><time>2026-05-03T09:33:05.717Z</time></trkpt><trkpt lat="40.6801433" lon="19.477769"><ele>3.0</ele><time>2026-05-03T09:33:06.718Z</time></trkpt><trkpt lat="40.6803539" lon="19.4776554"><ele>2.5</ele><time>2026-05-03T09:33:07.717Z</time></trkpt><trkpt lat="40.6805646" lon="19.4775444"><ele>2.0</ele><time>2026-05-03T09:33:08.718Z</time></trkpt><trkpt lat="40.680775" lon="19.4774245"><ele>2.0</ele><time>2026-05-03T09:33:09.718Z</time></trkpt><trkpt lat="40.680985" lon="19.4773077"><ele>2.0</ele><time>2026-05-03T09:33:10.717Z</time></trkpt><trkpt lat="40.6811928" lon="19.4771865"><ele>2.0</ele><time>2026-05-03T09:33:11.718Z</time></trkpt><trkpt lat="40.6814025" lon="19.4770458"><ele>2.0</ele><time>2026-05-03T09:33:12.717Z</time></trkpt><trkpt lat="40.6816204" lon="19.4769201"><ele>2.0</ele><time>2026-05-03T09:33:13.718Z</time></trkpt><trkpt lat="40.6818293" lon="19.476788"><ele>2.0</ele><time>2026-05-03T09:33:14.717Z</time></trkpt><trkpt lat="40.6820521" lon="19.4766383"><ele>2.0</ele><time>2026-05-03T09:33:15.718Z</time></trkpt><trkpt lat="40.6822719" lon="19.4764891"><ele>2.0</ele><time>2026-05-03T09:33:16.718Z</time></trkpt><trkpt lat="40.6824909" lon="19.476328"><ele>1.5</ele><time>2026-05-03T09:33:17.717Z</time></trkpt><trkpt lat="40.6827165" lon="19.4761688"><ele>1.0</ele><time>2026-05-03T09:33:18.717Z</time></trkpt><trkpt lat="40.6829386" lon="19.4759904"><ele>1.0</ele><time>2026-05-03T09:33:19.718Z</time></trkpt><trkpt lat="40.6831602" lon="19.4758287"><ele>1.0</ele><time>2026-05-03T09:33:20.718Z</time></trkpt><trkpt lat="40.683378" lon="19.4756602"><ele>1.0</ele><time>2026-05-03T09:33:21.718Z</time></trkpt><trkpt lat="40.6835916" lon="19.4754882"><ele>1.0</ele><time>2026-05-03T09:33:22.718Z</time></trkpt><trkpt lat="40.6838094" lon="19.4753053"><ele>1.0</ele><time>2026-05-03T09:33:23.718Z</time></trkpt><trkpt lat="40.6840295" lon="19.4751228"><ele>1.0</ele><time>2026-05-03T09:33:24.718Z</time></trkpt><trkpt lat="40.6842531" lon="19.4749389"><ele>0.5</ele><time>2026-05-03T09:33:25.718Z</time></trkpt><trkpt lat="40.6844789" lon="19.4747582"><ele>0.0</ele><time>2026-05-03T09:33:26.718Z</time></trkpt><trkpt lat="40.6847093" lon="19.4745735"><ele>0.0</ele><time>2026-05-03T09:33:27.718Z</time></trkpt><trkpt lat="40.6849438" lon="19.4743824"><ele>0.0</ele><time>2026-05-03T09:33:28.717Z</time></trkpt><trkpt lat="40.6851754" lon="19.4741826"><ele>-0.5</ele><time>2026-05-03T09:33:29.717Z</time></trkpt><trkpt lat="40.6854101" lon="19.4739902"><ele>-1.0</ele><time>2026-05-03T09:33:30.718Z</time></trkpt><trkpt lat="40.6856386" lon="19.4738003"><ele>-1.0</ele><time>2026-05-03T09:33:31.718Z</time></trkpt><trkpt lat="40.6858799" lon="19.4736135"><ele>-1.0</ele><time>2026-05-03T09:33:32.717Z</time></trkpt><trkpt lat="40.6861215" lon="19.4734223"><ele>-1.0</ele><time>2026-05-03T09:33:33.717Z</time></trkpt><trkpt lat="40.6863589" lon="19.4732214"><ele>-1.0</ele><time>2026-05-03T09:33:34.718Z</time></trkpt><trkpt lat="40.686604" lon="19.473022"><ele>-1.0</ele><time>2026-05-03T09:33:35.718Z</time></trkpt><trkpt lat="40.6868483" lon="19.4728178"><ele>-1.0</ele><time>2026-05-03T09:33:36.717Z</time></trkpt><trkpt lat="40.6870961" lon="19.4726159"><ele>0.0</ele><time>2026-05-03T09:33:37.718Z</time></trkpt><trkpt lat="40.6873368" lon="19.4724146"><ele>1.0</ele><time>2026-05-03T09:33:38.717Z</time></trkpt><trkpt lat="40.6875763" lon="19.4722128"><ele>1.0</ele><time>2026-05-03T09:33:39.718Z</time></trkpt><trkpt lat="40.6878238" lon="19.4720173"><ele>1.0</ele><time>2026-05-03T09:33:40.717Z</time></trkpt><trkpt lat="40.688067" lon="19.4718118"><ele>1.0</ele><time>2026-05-03T09:33:41.718Z</time></trkpt><trkpt lat="40.6883109" lon="19.4716126"><ele>1.0</ele><time>2026-05-03T09:33:42.717Z</time></trkpt><trkpt lat="40.688556" lon="19.471415"><ele>1.0</ele><time>2026-05-03T09:33:43.717Z</time></trkpt><trkpt lat="40.688799" lon="19.4712164"><ele>1.0</ele><time>2026-05-03T09:33:44.718Z</time></trkpt><trkpt lat="40.6890441" lon="19.4710147"><ele>1.0</ele><time>2026-05-03T09:33:45.718Z</time></trkpt><trkpt lat="40.6892847" lon="19.4708026"><ele>1.0</ele><time>2026-05-03T09:33:46.717Z</time></trkpt><trkpt lat="40.6895208" lon="19.4705979"><ele>1.0</ele><time>2026-05-03T09:33:47.717Z</time></trkpt><trkpt lat="40.6897652" lon="19.4704016"><ele>1.0</ele><time>2026-05-03T09:33:48.717Z</time></trkpt><trkpt lat="40.6900062" lon="19.4702093"><ele>1.0</ele><time>2026-05-03T09:33:49.718Z</time></trkpt><trkpt lat="40.6902463" lon="19.4700148"><ele>1.0</ele><time>2026-05-03T09:33:50.718Z</time></trkpt><trkpt lat="40.6904825" lon="19.4698202"><ele>1.0</ele><time>2026-05-03T09:33:51.718Z</time></trkpt><trkpt lat="40.6907214" lon="19.4696278"><ele>1.0</ele><time>2026-05-03T09:33:52.717Z</time></trkpt><trkpt lat="40.6909596" lon="19.469437"><ele>0.0</ele><time>2026-05-03T09:33:53.717Z</time></trkpt><trkpt lat="40.6911945" lon="19.4692601"><ele>-1.0</ele><time>2026-05-03T09:33:54.718Z</time></trkpt><trkpt lat="40.6914288" lon="19.4690623"><ele>-1.0</ele><time>2026-05-03T09:33:55.717Z</time></trkpt><trkpt lat="40.6916727" lon="19.4688602"><ele>-1.0</ele><time>2026-05-03T09:33:56.718Z</time></trkpt><trkpt lat="40.6919238" lon="19.4686491"><ele>-0.5</ele><time>2026-05-03T09:33:57.717Z</time></trkpt><trkpt lat="40.6921768" lon="19.4684396"><ele>0.0</ele><time>2026-05-03T09:33:58.718Z</time></trkpt><trkpt lat="40.692439" lon="19.4682313"><ele>0.0</ele><time>2026-05-03T09:33:59.718Z</time></trkpt><trkpt lat="40.6926982" lon="19.4680246"><ele>0.0</ele><time>2026-05-03T09:34:00.718Z</time></trkpt><trkpt lat="40.6929635" lon="19.4678314"><ele>-0.5</ele><time>2026-05-03T09:34:01.718Z</time></trkpt><trkpt lat="40.6932205" lon="19.4676291"><ele>-1.0</ele><time>2026-05-03T09:34:02.718Z</time></trkpt><trkpt lat="40.6934755" lon="19.4674334"><ele>-0.5</ele><time>2026-05-03T09:34:03.718Z</time></trkpt><trkpt lat="40.6937294" lon="19.4672432"><ele>0.0</ele><time>2026-05-03T09:34:04.718Z</time></trkpt><trkpt lat="40.6939881" lon="19.4670594"><ele>0.0</ele><time>2026-05-03T09:34:05.717Z</time></trkpt><trkpt lat="40.6942399" lon="19.4668703"><ele>0.0</ele><time>2026-05-03T09:34:06.718Z</time></trkpt><trkpt lat="40.6944911" lon="19.4666925"><ele>1.0</ele><time>2026-05-03T09:34:07.717Z</time></trkpt><trkpt lat="40.6947395" lon="19.4665029"><ele>2.0</ele><time>2026-05-03T09:34:08.717Z</time></trkpt><trkpt lat="40.6949859" lon="19.4663037"><ele>1.5</ele><time>2026-05-03T09:34:09.718Z</time></trkpt><trkpt lat="40.6952312" lon="19.4661064"><ele>1.0</ele><time>2026-05-03T09:34:10.717Z</time></trkpt><trkpt lat="40.6954816" lon="19.4659161"><ele>1.0</ele><time>2026-05-03T09:34:11.717Z</time></trkpt><trkpt lat="40.6957317" lon="19.4657248"><ele>1.0</ele><time>2026-05-03T09:34:12.717Z</time></trkpt><trkpt lat="40.6959886" lon="19.465528"><ele>0.5</ele><time>2026-05-03T09:34:13.718Z</time></trkpt><trkpt lat="40.6962423" lon="19.4653398"><ele>0.0</ele><time>2026-05-03T09:34:14.718Z</time></trkpt><trkpt lat="40.6964982" lon="19.4651432"><ele>0.0</ele><time>2026-05-03T09:34:15.717Z</time></trkpt><trkpt lat="40.6967586" lon="19.4649471"><ele>0.0</ele><time>2026-05-03T09:34:16.717Z</time></trkpt><trkpt lat="40.6970153" lon="19.4647524"><ele>0.5</ele><time>2026-05-03T09:34:17.718Z</time></trkpt><trkpt lat="40.6972746" lon="19.464555"><ele>1.0</ele><time>2026-05-03T09:34:18.717Z</time></trkpt><trkpt lat="40.6975364" lon="19.4643534"><ele>1.0</ele><time>2026-05-03T09:34:19.718Z</time></trkpt><trkpt lat="40.6977898" lon="19.4641595"><ele>1.0</ele><time>2026-05-03T09:34:20.718Z</time></trkpt><trkpt lat="40.6980446" lon="19.4639593"><ele>1.5</ele><time>2026-05-03T09:34:21.718Z</time></trkpt><trkpt lat="40.6982992" lon="19.4637693"><ele>2.0</ele><time>2026-05-03T09:34:22.718Z</time></trkpt><trkpt lat="40.6985501" lon="19.4635657"><ele>1.5</ele><time>2026-05-03T09:34:23.718Z</time></trkpt><trkpt lat="40.6987949" lon="19.4633812"><ele>1.0</ele><time>2026-05-03T09:34:24.718Z</time></trkpt><trkpt lat="40.699045" lon="19.4631913"><ele>1.0</ele><time>2026-05-03T09:34:25.718Z</time></trkpt><trkpt lat="40.6992944" lon="19.4630025"><ele>1.0</ele><time>2026-05-03T09:34:26.717Z</time></trkpt><trkpt lat="40.6995425" lon="19.4628083"><ele>1.0</ele><time>2026-05-03T09:34:27.718Z</time></trkpt><trkpt lat="40.6997885" lon="19.4626234"><ele>1.0</ele><time>2026-05-03T09:34:28.718Z</time></trkpt><trkpt lat="40.700032" lon="19.4624351"><ele>1.0</ele><time>2026-05-03T09:34:29.717Z</time></trkpt><trkpt lat="40.700281" lon="19.4622439"><ele>1.0</ele><time>2026-05-03T09:34:30.718Z</time></trkpt><trkpt lat="40.7005222" lon="19.4620569"><ele>1.0</ele><time>2026-05-03T09:34:31.717Z</time></trkpt><trkpt lat="40.7007568" lon="19.4618702"><ele>1.0</ele><time>2026-05-03T09:34:32.717Z</time></trkpt><trkpt lat="40.7009939" lon="19.4616718"><ele>1.0</ele><time>2026-05-03T09:34:33.717Z</time></trkpt><trkpt lat="40.7012363" lon="19.4614801"><ele>1.0</ele><time>2026-05-03T09:34:34.717Z</time></trkpt><trkpt lat="40.7014775" lon="19.4612828"><ele>1.0</ele><time>2026-05-03T09:34:35.718Z</time></trkpt><trkpt lat="40.7017202" lon="19.4610828"><ele>1.0</ele><time>2026-05-03T09:34:36.718Z</time></trkpt><trkpt lat="40.7019523" lon="19.4608904"><ele>0.5</ele><time>2026-05-03T09:34:37.718Z</time></trkpt><trkpt lat="40.7021781" lon="19.4606792"><ele>0.0</ele><time>2026-05-03T09:34:38.718Z</time></trkpt><trkpt lat="40.7023978" lon="19.460467"><ele>-0.5</ele><time>2026-05-03T09:34:39.718Z</time></trkpt><trkpt lat="40.702606" lon="19.4602591"><ele>-1.0</ele><time>2026-05-03T09:34:40.718Z</time></trkpt><trkpt lat="40.7028104" lon="19.4600327"><ele>-1.0</ele><time>2026-05-03T09:34:41.718Z</time></trkpt><trkpt lat="40.7030128" lon="19.4598085"><ele>-1.0</ele><time>2026-05-03T09:34:42.717Z</time></trkpt><trkpt lat="40.7032074" lon="19.4595806"><ele>-1.0</ele><time>2026-05-03T09:34:43.718Z</time></trkpt><trkpt lat="40.703387" lon="19.4593408"><ele>-1.0</ele><time>2026-05-03T09:34:44.718Z</time></trkpt><trkpt lat="40.7035707" lon="19.4590897"><ele>-1.0</ele><time>2026-05-03T09:34:45.717Z</time></trkpt><trkpt lat="40.703747" lon="19.458846"><ele>-1.0</ele><time>2026-05-03T09:34:46.718Z</time></trkpt><trkpt lat="40.7039173" lon="19.4585983"><ele>0.0</ele><time>2026-05-03T09:34:47.718Z</time></trkpt><trkpt lat="40.7040843" lon="19.4583384"><ele>1.0</ele><time>2026-05-03T09:34:48.718Z</time></trkpt><trkpt lat="40.7042445" lon="19.4580696"><ele>0.0</ele><time>2026-05-03T09:34:49.718Z</time></trkpt><trkpt lat="40.7044076" lon="19.4577942"><ele>-1.0</ele><time>2026-05-03T09:34:50.717Z</time></trkpt><trkpt lat="40.7045586" lon="19.4575178"><ele>-1.0</ele><time>2026-05-03T09:34:51.718Z</time></trkpt><trkpt lat="40.7047087" lon="19.4572379"><ele>-1.0</ele><time>2026-05-03T09:34:52.718Z</time></trkpt><trkpt lat="40.7048461" lon="19.4569498"><ele>-1.5</ele><time>2026-05-03T09:34:53.717Z</time></trkpt><trkpt lat="40.7049842" lon="19.4566583"><ele>-2.0</ele><time>2026-05-03T09:34:54.718Z</time></trkpt><trkpt lat="40.7051146" lon="19.456351"><ele>-1.5</ele><time>2026-05-03T09:34:55.717Z</time></trkpt><trkpt lat="40.7052426" lon="19.4560514"><ele>-1.0</ele><time>2026-05-03T09:34:56.718Z</time></trkpt><trkpt lat="40.7053672" lon="19.4557383"><ele>-0.5</ele><time>2026-05-03T09:34:57.718Z</time></trkpt><trkpt lat="40.7054857" lon="19.4554232"><ele>0.0</ele><time>2026-05-03T09:34:58.718Z</time></trkpt><trkpt lat="40.7056086" lon="19.455112"><ele>0.0</ele><time>2026-05-03T09:34:59.718Z</time></trkpt><trkpt lat="40.7057187" lon="19.4547965"><ele>0.0</ele><time>2026-05-03T09:35:00.717Z</time></trkpt><trkpt lat="40.7058317" lon="19.4544815"><ele>0.0</ele><time>2026-05-03T09:35:01.717Z</time></trkpt><trkpt lat="40.7059532" lon="19.4541751"><ele>0.0</ele><time>2026-05-03T09:35:02.717Z</time></trkpt><trkpt lat="40.7060787" lon="19.4538633"><ele>-1.0</ele><time>2026-05-03T09:35:03.717Z</time></trkpt><trkpt lat="40.7062029" lon="19.4535621"><ele>-2.0</ele><time>2026-05-03T09:35:04.717Z</time></trkpt><trkpt lat="40.7063227" lon="19.4532518"><ele>-1.0</ele><time>2026-05-03T09:35:05.717Z</time></trkpt><trkpt lat="40.7064419" lon="19.452938"><ele>0.0</ele><time>2026-05-03T09:35:06.718Z</time></trkpt><trkpt lat="40.7065703" lon="19.4526331"><ele>0.0</ele><time>2026-05-03T09:35:07.718Z</time></trkpt><trkpt lat="40.7066964" lon="19.4523349"><ele>0.0</ele><time>2026-05-03T09:35:08.717Z</time></trkpt><trkpt lat="40.7068259" lon="19.4520435"><ele>-1.0</ele><time>2026-05-03T09:35:09.718Z</time></trkpt><trkpt lat="40.7069493" lon="19.4517463"><ele>-2.0</ele><time>2026-05-03T09:35:10.718Z</time></trkpt><trkpt lat="40.7070877" lon="19.4514662"><ele>-2.0</ele><time>2026-05-03T09:35:11.718Z</time></trkpt><trkpt lat="40.707222" lon="19.4511801"><ele>-2.0</ele><time>2026-05-03T09:35:12.718Z</time></trkpt><trkpt lat="40.7073581" lon="19.4508985"><ele>-2.0</ele><time>2026-05-03T09:35:13.717Z</time></trkpt><trkpt lat="40.7074877" lon="19.4506137"><ele>-2.0</ele><time>2026-05-03T09:35:14.718Z</time></trkpt><trkpt lat="40.7076198" lon="19.4503402"><ele>-1.5</ele><time>2026-05-03T09:35:15.717Z</time></trkpt><trkpt lat="40.7077669" lon="19.450067"><ele>-1.0</ele><time>2026-05-03T09:35:16.718Z</time></trkpt><trkpt lat="40.7079124" lon="19.4497886"><ele>-0.5</ele><time>2026-05-03T09:35:17.718Z</time></trkpt><trkpt lat="40.7080741" lon="19.4495141"><ele>0.0</ele><time>2026-05-03T09:35:18.718Z</time></trkpt><trkpt lat="40.7082256" lon="19.4492518"><ele>0.0</ele><time>2026-05-03T09:35:19.718Z</time></trkpt><trkpt lat="40.708385" lon="19.4489989"><ele>0.0</ele><time>2026-05-03T09:35:20.717Z</time></trkpt><trkpt lat="40.708544" lon="19.4487454"><ele>-0.5</ele><time>2026-05-03T09:35:21.717Z</time></trkpt><trkpt lat="40.7087071" lon="19.448493"><ele>-1.0</ele><time>2026-05-03T09:35:22.717Z</time></trkpt><trkpt lat="40.7088648" lon="19.4482431"><ele>-1.0</ele><time>2026-05-03T09:35:23.718Z</time></trkpt><trkpt lat="40.7090259" lon="19.4479955"><ele>-1.0</ele><time>2026-05-03T09:35:24.718Z</time></trkpt><trkpt lat="40.7091925" lon="19.4477583"><ele>-1.0</ele><time>2026-05-03T09:35:25.718Z</time></trkpt><trkpt lat="40.7093563" lon="19.447521"><ele>-1.0</ele><time>2026-05-03T09:35:26.718Z</time></trkpt><trkpt lat="40.709521" lon="19.4472864"><ele>0.5</ele><time>2026-05-03T09:35:27.718Z</time></trkpt><trkpt lat="40.7096872" lon="19.4470487"><ele>2.0</ele><time>2026-05-03T09:35:28.717Z</time></trkpt><trkpt lat="40.7098548" lon="19.4468125"><ele>2.0</ele><time>2026-05-03T09:35:29.718Z</time></trkpt><trkpt lat="40.7100339" lon="19.4465789"><ele>2.0</ele><time>2026-05-03T09:35:30.718Z</time></trkpt><trkpt lat="40.7102117" lon="19.4463514"><ele>1.0</ele><time>2026-05-03T09:35:31.718Z</time></trkpt><trkpt lat="40.7104068" lon="19.4461311"><ele>0.0</ele><time>2026-05-03T09:35:32.717Z</time></trkpt><trkpt lat="40.7105909" lon="19.4459106"><ele>0.0</ele><time>2026-05-03T09:35:33.717Z</time></trkpt><trkpt lat="40.7107787" lon="19.445694"><ele>0.0</ele><time>2026-05-03T09:35:34.718Z</time></trkpt><trkpt lat="40.7109606" lon="19.4454702"><ele>0.0</ele><time>2026-05-03T09:35:35.717Z</time></trkpt><trkpt lat="40.7111535" lon="19.4452545"><ele>0.0</ele><time>2026-05-03T09:35:36.718Z</time></trkpt><trkpt lat="40.7113449" lon="19.4450429"><ele>0.0</ele><time>2026-05-03T09:35:37.718Z</time></trkpt><trkpt lat="40.7115382" lon="19.4448361"><ele>0.0</ele><time>2026-05-03T09:35:38.718Z</time></trkpt><trkpt lat="40.7117407" lon="19.4446306"><ele>0.0</ele><time>2026-05-03T09:35:39.717Z</time></trkpt><trkpt lat="40.7119444" lon="19.4444294"><ele>0.0</ele><time>2026-05-03T09:35:40.718Z</time></trkpt><trkpt lat="40.7121508" lon="19.4442279"><ele>0.0</ele><time>2026-05-03T09:35:41.717Z</time></trkpt><trkpt lat="40.7123565" lon="19.4440349"><ele>0.0</ele><time>2026-05-03T09:35:42.718Z</time></trkpt><trkpt lat="40.7125607" lon="19.4438424"><ele>0.0</ele><time>2026-05-03T09:35:43.717Z</time></trkpt><trkpt lat="40.7127647" lon="19.4436553"><ele>0.0</ele><time>2026-05-03T09:35:44.717Z</time></trkpt><trkpt lat="40.7129697" lon="19.443469"><ele>0.0</ele><time>2026-05-03T09:35:45.717Z</time></trkpt><trkpt lat="40.7131783" lon="19.4432921"><ele>0.0</ele><time>2026-05-03T09:35:46.717Z</time></trkpt><trkpt lat="40.7133853" lon="19.4431063"><ele>0.0</ele><time>2026-05-03T09:35:47.718Z</time></trkpt><trkpt lat="40.713601" lon="19.4429342"><ele>0.0</ele><time>2026-05-03T09:35:48.718Z</time></trkpt><trkpt lat="40.713815" lon="19.4427635"><ele>0.0</ele><time>2026-05-03T09:35:49.717Z</time></trkpt><trkpt lat="40.7140281" lon="19.4426034"><ele>0.0</ele><time>2026-05-03T09:35:50.718Z</time></trkpt><trkpt lat="40.714249" lon="19.4424446"><ele>0.0</ele><time>2026-05-03T09:35:51.717Z</time></trkpt><trkpt lat="40.7144648" lon="19.4422888"><ele>0.0</ele><time>2026-05-03T09:35:52.717Z</time></trkpt><trkpt lat="40.7146845" lon="19.4421371"><ele>0.0</ele><time>2026-05-03T09:35:53.717Z</time></trkpt><trkpt lat="40.7149068" lon="19.4419872"><ele>0.0</ele><time>2026-05-03T09:35:54.717Z</time></trkpt><trkpt lat="40.7151285" lon="19.4418386"><ele>0.0</ele><time>2026-05-03T09:35:55.718Z</time></trkpt><trkpt lat="40.7153558" lon="19.441688"><ele>0.0</ele><time>2026-05-03T09:35:56.717Z</time></trkpt><trkpt lat="40.7155829" lon="19.4415441"><ele>0.0</ele><time>2026-05-03T09:35:57.718Z</time></trkpt><trkpt lat="40.7158073" lon="19.4414056"><ele>0.0</ele><time>2026-05-03T09:35:58.718Z</time></trkpt><trkpt lat="40.716034" lon="19.4412753"><ele>-0.5</ele><time>2026-05-03T09:35:59.717Z</time></trkpt><trkpt lat="40.7162658" lon="19.4411416"><ele>-1.0</ele><time>2026-05-03T09:36:00.718Z</time></trkpt><trkpt lat="40.7165006" lon="19.4410116"><ele>-1.0</ele><time>2026-05-03T09:36:01.718Z</time></trkpt><trkpt lat="40.7167336" lon="19.4408892"><ele>-1.0</ele><time>2026-05-03T09:36:02.717Z</time></trkpt><trkpt lat="40.7169676" lon="19.4407666"><ele>-1.0</ele><time>2026-05-03T09:36:03.717Z</time></trkpt><trkpt lat="40.7171991" lon="19.4406463"><ele>-1.0</ele><time>2026-05-03T09:36:04.717Z</time></trkpt><trkpt lat="40.7174322" lon="19.4405302"><ele>-1.5</ele><time>2026-05-03T09:36:05.718Z</time></trkpt><trkpt lat="40.7176689" lon="19.4404128"><ele>-2.0</ele><time>2026-05-03T09:36:06.717Z</time></trkpt><trkpt lat="40.7178997" lon="19.4403095"><ele>-2.0</ele><time>2026-05-03T09:36:07.718Z</time></trkpt><trkpt lat="40.7181365" lon="19.4401971"><ele>-2.0</ele><time>2026-05-03T09:36:08.718Z</time></trkpt><trkpt lat="40.7183698" lon="19.440082"><ele>-2.0</ele><time>2026-05-03T09:36:09.717Z</time></trkpt><trkpt lat="40.7185969" lon="19.4399734"><ele>-2.0</ele><time>2026-05-03T09:36:10.718Z</time></trkpt><trkpt lat="40.7188211" lon="19.4398641"><ele>-2.0</ele><time>2026-05-03T09:36:11.718Z</time></trkpt><trkpt lat="40.7190504" lon="19.4397567"><ele>-2.0</ele><time>2026-05-03T09:36:12.717Z</time></trkpt><trkpt lat="40.7192779" lon="19.4396512"><ele>-2.0</ele><time>2026-05-03T09:36:13.717Z</time></trkpt><trkpt lat="40.7195063" lon="19.4395422"><ele>-2.0</ele><time>2026-05-03T09:36:14.718Z</time></trkpt><trkpt lat="40.7197354" lon="19.4394313"><ele>-2.0</ele><time>2026-05-03T09:36:15.718Z</time></trkpt><trkpt lat="40.7199629" lon="19.4393139"><ele>-2.0</ele><time>2026-05-03T09:36:16.717Z</time></trkpt><trkpt lat="40.7201941" lon="19.4391885"><ele>-1.0</ele><time>2026-05-03T09:36:17.717Z</time></trkpt><trkpt lat="40.7204189" lon="19.4390668"><ele>0.0</ele><time>2026-05-03T09:36:18.717Z</time></trkpt><trkpt lat="40.7206479" lon="19.4389467"><ele>0.0</ele><time>2026-05-03T09:36:19.718Z</time></trkpt><trkpt lat="40.720878" lon="19.4388395"><ele>0.0</ele><time>2026-05-03T09:36:20.717Z</time></trkpt><trkpt lat="40.7211132" lon="19.4387318"><ele>-1.0</ele><time>2026-05-03T09:36:21.717Z</time></trkpt><trkpt lat="40.7213453" lon="19.4386265"><ele>-2.0</ele><time>2026-05-03T09:36:22.717Z</time></trkpt><trkpt lat="40.7215785" lon="19.4385297"><ele>-2.0</ele><time>2026-05-03T09:36:23.718Z</time></trkpt><trkpt lat="40.7218121" lon="19.438435"><ele>-2.0</ele><time>2026-05-03T09:36:24.718Z</time></trkpt><trkpt lat="40.7220442" lon="19.4383512"><ele>-0.5</ele><time>2026-05-03T09:36:25.718Z</time></trkpt><trkpt lat="40.7222838" lon="19.4382813"><ele>1.0</ele><time>2026-05-03T09:36:26.718Z</time></trkpt><trkpt lat="40.7225213" lon="19.4382151"><ele>0.0</ele><time>2026-05-03T09:36:27.717Z</time></trkpt><trkpt lat="40.7227596" lon="19.4381564"><ele>-1.0</ele><time>2026-05-03T09:36:28.717Z</time></trkpt><trkpt lat="40.7230061" lon="19.4381046"><ele>-1.0</ele><time>2026-05-03T09:36:29.717Z</time></trkpt><trkpt lat="40.7232453" lon="19.4380707"><ele>-1.0</ele><time>2026-05-03T09:36:30.717Z</time></trkpt><trkpt lat="40.7234863" lon="19.4380464"><ele>-0.5</ele><time>2026-05-03T09:36:31.717Z</time></trkpt><trkpt lat="40.7237258" lon="19.4380398"><ele>0.0</ele><time>2026-05-03T09:36:32.718Z</time></trkpt><trkpt lat="40.7239599" lon="19.4380347"><ele>0.0</ele><time>2026-05-03T09:36:33.717Z</time></trkpt><trkpt lat="40.7241918" lon="19.4380371"><ele>0.0</ele><time>2026-05-03T09:36:34.718Z</time></trkpt><trkpt lat="40.7244206" lon="19.4380672"><ele>-0.5</ele><time>2026-05-03T09:36:35.718Z</time></trkpt><trkpt lat="40.7246538" lon="19.4380992"><ele>-1.0</ele><time>2026-05-03T09:36:36.717Z</time></trkpt><trkpt lat="40.7248787" lon="19.4381337"><ele>-1.0</ele><time>2026-05-03T09:36:37.717Z</time></trkpt><trkpt lat="40.7251148" lon="19.4381859"><ele>-1.0</ele><time>2026-05-03T09:36:38.717Z</time></trkpt><trkpt lat="40.7253462" lon="19.4382435"><ele>-1.0</ele><time>2026-05-03T09:36:39.717Z</time></trkpt><trkpt lat="40.7255716" lon="19.4382947"><ele>-1.0</ele><time>2026-05-03T09:36:40.718Z</time></trkpt><trkpt lat="40.7258079" lon="19.4383742"><ele>-1.0</ele><time>2026-05-03T09:36:41.717Z</time></trkpt><trkpt lat="40.7260319" lon="19.4384616"><ele>-1.0</ele><time>2026-05-03T09:36:42.717Z</time></trkpt><trkpt lat="40.7262554" lon="19.4385432"><ele>-1.0</ele><time>2026-05-03T09:36:43.717Z</time></trkpt><trkpt lat="40.7264772" lon="19.4386462"><ele>-1.0</ele><time>2026-05-03T09:36:44.718Z</time></trkpt><trkpt lat="40.7266914" lon="19.4387526"><ele>-1.0</ele><time>2026-05-03T09:36:45.717Z</time></trkpt><trkpt lat="40.7269089" lon="19.4388738"><ele>-1.0</ele><time>2026-05-03T09:36:46.718Z</time></trkpt><trkpt lat="40.7271231" lon="19.4390124"><ele>-1.0</ele><time>2026-05-03T09:36:47.717Z</time></trkpt><trkpt lat="40.7273325" lon="19.4391491"><ele>-1.0</ele><time>2026-05-03T09:36:48.717Z</time></trkpt><trkpt lat="40.7275342" lon="19.4392952"><ele>-1.0</ele><time>2026-05-03T09:36:49.718Z</time></trkpt><trkpt lat="40.7277444" lon="19.4394628"><ele>-1.0</ele><time>2026-05-03T09:36:50.717Z</time></trkpt><trkpt lat="40.7279476" lon="19.4396364"><ele>-1.0</ele><time>2026-05-03T09:36:51.717Z</time></trkpt><trkpt lat="40.728148" lon="19.4398182"><ele>-1.0</ele><time>2026-05-03T09:36:52.717Z</time></trkpt><trkpt lat="40.7283394" lon="19.4400067"><ele>-1.0</ele><time>2026-05-03T09:36:53.717Z</time></trkpt><trkpt lat="40.728528" lon="19.4402067"><ele>-1.0</ele><time>2026-05-03T09:36:54.718Z</time></trkpt><trkpt lat="40.7287117" lon="19.440424"><ele>-1.5</ele><time>2026-05-03T09:36:55.717Z</time></trkpt><trkpt lat="40.7289016" lon="19.4406349"><ele>-2.0</ele><time>2026-05-03T09:36:56.718Z</time></trkpt><trkpt lat="40.7290752" lon="19.4408682"><ele>-2.0</ele><time>2026-05-03T09:36:57.717Z</time></trkpt><trkpt lat="40.7292391" lon="19.4411009"><ele>-2.0</ele><time>2026-05-03T09:36:58.718Z</time></trkpt><trkpt lat="40.7294043" lon="19.4413511"><ele>-2.0</ele><time>2026-05-03T09:36:59.717Z</time></trkpt><trkpt lat="40.7295811" lon="19.4416008"><ele>-2.0</ele><time>2026-05-03T09:37:00.717Z</time></trkpt><trkpt lat="40.7297475" lon="19.4418549"><ele>-2.0</ele><time>2026-05-03T09:37:01.718Z</time></trkpt><trkpt lat="40.7298976" lon="19.4421113"><ele>-2.0</ele><time>2026-05-03T09:37:02.718Z</time></trkpt><trkpt lat="40.7300576" lon="19.4423588"><ele>-2.5</ele><time>2026-05-03T09:37:03.718Z</time></trkpt><trkpt lat="40.7302197" lon="19.4426139"><ele>-3.0</ele><time>2026-05-03T09:37:04.717Z</time></trkpt><trkpt lat="40.7303851" lon="19.4428545"><ele>-2.0</ele><time>2026-05-03T09:37:05.718Z</time></trkpt><trkpt lat="40.730535" lon="19.4431016"><ele>-1.0</ele><time>2026-05-03T09:37:06.717Z</time></trkpt><trkpt lat="40.7306904" lon="19.4433455"><ele>-1.0</ele><time>2026-05-03T09:37:07.718Z</time></trkpt><trkpt lat="40.7308564" lon="19.4435937"><ele>-1.0</ele><time>2026-05-03T09:37:08.718Z</time></trkpt><trkpt lat="40.7310086" lon="19.4438422"><ele>-1.5</ele><time>2026-05-03T09:37:09.718Z</time></trkpt><trkpt lat="40.7311663" lon="19.444094"><ele>-2.0</ele><time>2026-05-03T09:37:10.718Z</time></trkpt><trkpt lat="40.7313211" lon="19.4443386"><ele>-2.0</ele><time>2026-05-03T09:37:11.717Z</time></trkpt><trkpt lat="40.7314704" lon="19.4445849"><ele>-2.0</ele><time>2026-05-03T09:37:12.718Z</time></trkpt><trkpt lat="40.7316259" lon="19.4448337"><ele>-2.0</ele><time>2026-05-03T09:37:13.718Z</time></trkpt><trkpt lat="40.7317779" lon="19.4450861"><ele>-2.0</ele><time>2026-05-03T09:37:14.717Z</time></trkpt><trkpt lat="40.7319379" lon="19.4453293"><ele>-2.5</ele><time>2026-05-03T09:37:15.717Z</time></trkpt><trkpt lat="40.7320942" lon="19.4455722"><ele>-3.0</ele><time>2026-05-03T09:37:16.718Z</time></trkpt><trkpt lat="40.7322516" lon="19.4458178"><ele>-3.0</ele><time>2026-05-03T09:37:17.718Z</time></trkpt><trkpt lat="40.7324128" lon="19.4460586"><ele>-3.0</ele><time>2026-05-03T09:37:18.717Z</time></trkpt><trkpt lat="40.7325732" lon="19.4462987"><ele>-1.5</ele><time>2026-05-03T09:37:19.718Z</time></trkpt><trkpt lat="40.7327236" lon="19.4465373"><ele>0.0</ele><time>2026-05-03T09:37:20.718Z</time></trkpt><trkpt lat="40.7328731" lon="19.446771"><ele>0.0</ele><time>2026-05-03T09:37:21.718Z</time></trkpt><trkpt lat="40.7330255" lon="19.447016"><ele>0.0</ele><time>2026-05-03T09:37:22.718Z</time></trkpt><trkpt lat="40.7331757" lon="19.4472563"><ele>0.5</ele><time>2026-05-03T09:37:23.717Z</time></trkpt><trkpt lat="40.7333326" lon="19.447497"><ele>1.0</ele><time>2026-05-03T09:37:24.718Z</time></trkpt><trkpt lat="40.7334839" lon="19.4477325"><ele>0.0</ele><time>2026-05-03T09:37:25.718Z</time></trkpt><trkpt lat="40.7336336" lon="19.4479688"><ele>-1.0</ele><time>2026-05-03T09:37:26.718Z</time></trkpt><trkpt lat="40.7337939" lon="19.4482022"><ele>-1.0</ele><time>2026-05-03T09:37:27.717Z</time></trkpt><trkpt lat="40.7339549" lon="19.4484415"><ele>-1.0</ele><time>2026-05-03T09:37:28.717Z</time></trkpt><trkpt lat="40.7341199" lon="19.4486684"><ele>-1.0</ele><time>2026-05-03T09:37:29.718Z</time></trkpt><trkpt lat="40.7342731" lon="19.4489143"><ele>-1.0</ele><time>2026-05-03T09:37:30.718Z</time></trkpt><trkpt lat="40.7344275" lon="19.4491614"><ele>-1.0</ele><time>2026-05-03T09:37:31.718Z</time></trkpt><trkpt lat="40.73458" lon="19.4494017"><ele>-1.0</ele><time>2026-05-03T09:37:32.718Z</time></trkpt><trkpt lat="40.7347304" lon="19.4496417"><ele>-1.0</ele><time>2026-05-03T09:37:33.717Z</time></trkpt><trkpt lat="40.7348804" lon="19.4498913"><ele>-1.0</ele><time>2026-05-03T09:37:34.717Z</time></trkpt><trkpt lat="40.7350357" lon="19.4501247"><ele>-1.0</ele><time>2026-05-03T09:37:35.718Z</time></trkpt><trkpt lat="40.7351832" lon="19.4503599"><ele>-1.0</ele><time>2026-05-03T09:37:36.717Z</time></trkpt><trkpt lat="40.7353377" lon="19.450597"><ele>0.0</ele><time>2026-05-03T09:37:37.718Z</time></trkpt><trkpt lat="40.7354955" lon="19.4508383"><ele>1.0</ele><time>2026-05-03T09:37:38.718Z</time></trkpt><trkpt lat="40.7356522" lon="19.451077"><ele>0.0</ele><time>2026-05-03T09:37:39.717Z</time></trkpt><trkpt lat="40.7358023" lon="19.4513262"><ele>-1.0</ele><time>2026-05-03T09:37:40.717Z</time></trkpt><trkpt lat="40.735948" lon="19.451574"><ele>-1.0</ele><time>2026-05-03T09:37:41.717Z</time></trkpt><trkpt lat="40.7360909" lon="19.4518245"><ele>-1.0</ele><time>2026-05-03T09:37:42.717Z</time></trkpt><trkpt lat="40.7362339" lon="19.452078"><ele>-1.0</ele><time>2026-05-03T09:37:43.718Z</time></trkpt><trkpt lat="40.7363742" lon="19.4523327"><ele>-1.0</ele><time>2026-05-03T09:37:44.717Z</time></trkpt><trkpt lat="40.7365118" lon="19.4525945"><ele>-1.0</ele><time>2026-05-03T09:37:45.718Z</time></trkpt><trkpt lat="40.7366433" lon="19.4528613"><ele>-1.0</ele><time>2026-05-03T09:37:46.717Z</time></trkpt><trkpt lat="40.7367671" lon="19.4531234"><ele>-0.5</ele><time>2026-05-03T09:37:47.718Z</time></trkpt><trkpt lat="40.7368933" lon="19.4533889"><ele>0.0</ele><time>2026-05-03T09:37:48.718Z</time></trkpt><trkpt lat="40.7370107" lon="19.4536563"><ele>0.5</ele><time>2026-05-03T09:37:49.717Z</time></trkpt><trkpt lat="40.7371293" lon="19.4539296"><ele>1.0</ele><time>2026-05-03T09:37:50.717Z</time></trkpt><trkpt lat="40.737237" lon="19.454204"><ele>1.0</ele><time>2026-05-03T09:37:51.718Z</time></trkpt><trkpt lat="40.7373399" lon="19.45449"><ele>1.0</ele><time>2026-05-03T09:37:52.717Z</time></trkpt><trkpt lat="40.7374463" lon="19.4547734"><ele>1.0</ele><time>2026-05-03T09:37:53.717Z</time></trkpt><trkpt lat="40.7375433" lon="19.4550621"><ele>1.0</ele><time>2026-05-03T09:37:54.717Z</time></trkpt><trkpt lat="40.7376379" lon="19.4553603"><ele>1.0</ele><time>2026-05-03T09:37:55.717Z</time></trkpt><trkpt lat="40.7377313" lon="19.4556601"><ele>1.0</ele><time>2026-05-03T09:37:56.718Z</time></trkpt><trkpt lat="40.7378295" lon="19.4559479"><ele>1.0</ele><time>2026-05-03T09:37:57.718Z</time></trkpt><trkpt lat="40.7379122" lon="19.4562383"><ele>1.0</ele><time>2026-05-03T09:37:58.718Z</time></trkpt><trkpt lat="40.7379837" lon="19.4565364"><ele>0.5</ele><time>2026-05-03T09:37:59.718Z</time></trkpt><trkpt lat="40.7380489" lon="19.4568421"><ele>0.0</ele><time>2026-05-03T09:38:00.717Z</time></trkpt><trkpt lat="40.7381054" lon="19.4571516"><ele>-0.5</ele><time>2026-05-03T09:38:01.718Z</time></trkpt><trkpt lat="40.738168" lon="19.4574503"><ele>-1.0</ele><time>2026-05-03T09:38:02.717Z</time></trkpt><trkpt lat="40.7382301" lon="19.4577561"><ele>-1.5</ele><time>2026-05-03T09:38:03.717Z</time></trkpt><trkpt lat="40.7382789" lon="19.4580643"><ele>-2.0</ele><time>2026-05-03T09:38:04.717Z</time></trkpt><trkpt lat="40.7383324" lon="19.4583765"><ele>-2.0</ele><time>2026-05-03T09:38:05.718Z</time></trkpt><trkpt lat="40.7383845" lon="19.4586837"><ele>-2.0</ele><time>2026-05-03T09:38:06.718Z</time></trkpt><trkpt lat="40.7384402" lon="19.458997"><ele>-1.5</ele><time>2026-05-03T09:38:07.717Z</time></trkpt><trkpt lat="40.7384897" lon="19.4593117"><ele>-1.0</ele><time>2026-05-03T09:38:08.718Z</time></trkpt><trkpt lat="40.7385435" lon="19.4596278"><ele>0.5</ele><time>2026-05-03T09:38:09.717Z</time></trkpt><trkpt lat="40.7386049" lon="19.4599393"><ele>2.0</ele><time>2026-05-03T09:38:10.717Z</time></trkpt><trkpt lat="40.7386556" lon="19.4602544"><ele>1.5</ele><time>2026-05-03T09:38:11.718Z</time></trkpt><trkpt lat="40.7387061" lon="19.4605665"><ele>1.0</ele><time>2026-05-03T09:38:12.718Z</time></trkpt><trkpt lat="40.7387616" lon="19.4608771"><ele>1.0</ele><time>2026-05-03T09:38:13.718Z</time></trkpt><trkpt lat="40.7388185" lon="19.4611919"><ele>1.0</ele><time>2026-05-03T09:38:14.718Z</time></trkpt><trkpt lat="40.7388743" lon="19.4614965"><ele>0.5</ele><time>2026-05-03T09:38:15.717Z</time></trkpt><trkpt lat="40.7389345" lon="19.4618065"><ele>0.0</ele><time>2026-05-03T09:38:16.718Z</time></trkpt><trkpt lat="40.7389924" lon="19.4621099"><ele>1.0</ele><time>2026-05-03T09:38:17.717Z</time></trkpt><trkpt lat="40.7390444" lon="19.4624235"><ele>2.0</ele><time>2026-05-03T09:38:18.718Z</time></trkpt><trkpt lat="40.7390925" lon="19.4627388"><ele>2.0</ele><time>2026-05-03T09:38:19.718Z</time></trkpt><trkpt lat="40.739132" lon="19.4630497"><ele>2.0</ele><time>2026-05-03T09:38:20.717Z</time></trkpt><trkpt lat="40.7391872" lon="19.4633539"><ele>2.0</ele><time>2026-05-03T09:38:21.718Z</time></trkpt><trkpt lat="40.7392377" lon="19.4636608"><ele>2.0</ele><time>2026-05-03T09:38:22.718Z</time></trkpt><trkpt lat="40.7393005" lon="19.4639821"><ele>2.0</ele><time>2026-05-03T09:38:23.717Z</time></trkpt><trkpt lat="40.7393554" lon="19.4642907"><ele>2.0</ele><time>2026-05-03T09:38:24.717Z</time></trkpt><trkpt lat="40.7394087" lon="19.4645954"><ele>1.5</ele><time>2026-05-03T09:38:25.717Z</time></trkpt><trkpt lat="40.7394642" lon="19.4649025"><ele>1.0</ele><time>2026-05-03T09:38:26.717Z</time></trkpt><trkpt lat="40.7395215" lon="19.4652204"><ele>1.0</ele><time>2026-05-03T09:38:27.718Z</time></trkpt><trkpt lat="40.7395801" lon="19.4655369"><ele>1.0</ele><time>2026-05-03T09:38:28.717Z</time></trkpt><trkpt lat="40.7396414" lon="19.4658489"><ele>1.0</ele><time>2026-05-03T09:38:29.717Z</time></trkpt><trkpt lat="40.7396939" lon="19.4661628"><ele>1.0</ele><time>2026-05-03T09:38:30.718Z</time></trkpt><trkpt lat="40.7397489" lon="19.466474"><ele>1.0</ele><time>2026-05-03T09:38:31.718Z</time></trkpt><trkpt lat="40.739806" lon="19.4667781"><ele>1.0</ele><time>2026-05-03T09:38:32.718Z</time></trkpt><trkpt lat="40.7398666" lon="19.4670759"><ele>1.0</ele><time>2026-05-03T09:38:33.717Z</time></trkpt><trkpt lat="40.7399203" lon="19.4673818"><ele>1.0</ele><time>2026-05-03T09:38:34.718Z</time></trkpt><trkpt lat="40.7399692" lon="19.4676803"><ele>1.5</ele><time>2026-05-03T09:38:35.717Z</time></trkpt><trkpt lat="40.7400232" lon="19.4679914"><ele>2.0</ele><time>2026-05-03T09:38:36.717Z</time></trkpt><trkpt lat="40.7400828" lon="19.4682905"><ele>2.0</ele><time>2026-05-03T09:38:37.718Z</time></trkpt><trkpt lat="40.7401423" lon="19.4685847"><ele>2.0</ele><time>2026-05-03T09:38:38.717Z</time></trkpt><trkpt lat="40.7401888" lon="19.4688743"><ele>3.0</ele><time>2026-05-03T09:38:39.717Z</time></trkpt><trkpt lat="40.740235" lon="19.4691663"><ele>4.0</ele><time>2026-05-03T09:38:40.717Z</time></trkpt><trkpt lat="40.7402922" lon="19.4694737"><ele>4.5</ele><time>2026-05-03T09:38:41.718Z</time></trkpt><trkpt lat="40.7403441" lon="19.4697626"><ele>5.0</ele><time>2026-05-03T09:38:42.718Z</time></trkpt><trkpt lat="40.7403945" lon="19.4700551"><ele>5.0</ele><time>2026-05-03T09:38:43.717Z</time></trkpt><trkpt lat="40.7404457" lon="19.4703475"><ele>5.0</ele><time>2026-05-03T09:38:44.718Z</time></trkpt><trkpt lat="40.7404947" lon="19.4706436"><ele>4.5</ele><time>2026-05-03T09:38:45.717Z</time></trkpt><trkpt lat="40.7405507" lon="19.4709357"><ele>4.0</ele><time>2026-05-03T09:38:46.717Z</time></trkpt><trkpt lat="40.7406062" lon="19.4712314"><ele>4.0</ele><time>2026-05-03T09:38:47.717Z</time></trkpt><trkpt lat="40.7406615" lon="19.4715338"><ele>4.0</ele><time>2026-05-03T09:38:48.718Z</time></trkpt><trkpt lat="40.7407125" lon="19.4718318"><ele>3.5</ele><time>2026-05-03T09:38:49.718Z</time></trkpt><trkpt lat="40.7407649" lon="19.4721319"><ele>3.0</ele><time>2026-05-03T09:38:50.718Z</time></trkpt><trkpt lat="40.7408196" lon="19.4724375"><ele>3.0</ele><time>2026-05-03T09:38:51.718Z</time></trkpt><trkpt lat="40.7408674" lon="19.4727369"><ele>3.0</ele><time>2026-05-03T09:38:52.717Z</time></trkpt><trkpt lat="40.7409208" lon="19.4730412"><ele>3.0</ele><time>2026-05-03T09:38:53.717Z</time></trkpt><trkpt lat="40.7409814" lon="19.4733393"><ele>3.0</ele><time>2026-05-03T09:38:54.718Z</time></trkpt><trkpt lat="40.7410356" lon="19.4736463"><ele>3.5</ele><time>2026-05-03T09:38:55.717Z</time></trkpt><trkpt lat="40.7410839" lon="19.4739564"><ele>4.0</ele><time>2026-05-03T09:38:56.718Z</time></trkpt><trkpt lat="40.7411327" lon="19.4742671"><ele>4.0</ele><time>2026-05-03T09:38:57.718Z</time></trkpt><trkpt lat="40.7411832" lon="19.4745783"><ele>4.0</ele><time>2026-05-03T09:38:58.717Z</time></trkpt><trkpt lat="40.7412072" lon="19.4748916"><ele>4.0</ele><time>2026-05-03T09:38:59.718Z</time></trkpt><trkpt lat="40.7412179" lon="19.475204"><ele>4.0</ele><time>2026-05-03T09:39:00.718Z</time></trkpt><trkpt lat="40.7412407" lon="19.4755212"><ele>4.0</ele><time>2026-05-03T09:39:01.717Z</time></trkpt><trkpt lat="40.7412503" lon="19.4758328"><ele>4.0</ele><time>2026-05-03T09:39:02.717Z</time></trkpt><trkpt lat="40.7412565" lon="19.4761411"><ele>3.0</ele><time>2026-05-03T09:39:03.717Z</time></trkpt><trkpt lat="40.7412582" lon="19.4764495"><ele>2.0</ele><time>2026-05-03T09:39:04.717Z</time></trkpt><trkpt lat="40.7412584" lon="19.4767553"><ele>2.0</ele><time>2026-05-03T09:39:05.718Z</time></trkpt><trkpt lat="40.7412533" lon="19.4770672"><ele>2.0</ele><time>2026-05-03T09:39:06.718Z</time></trkpt><trkpt lat="40.7412356" lon="19.4773711"><ele>2.5</ele><time>2026-05-03T09:39:07.718Z</time></trkpt><trkpt lat="40.7412141" lon="19.4776797"><ele>3.0</ele><time>2026-05-03T09:39:08.717Z</time></trkpt><trkpt lat="40.74119" lon="19.4779825"><ele>4.0</ele><time>2026-05-03T09:39:09.718Z</time></trkpt><trkpt lat="40.7411648" lon="19.4782922"><ele>5.0</ele><time>2026-05-03T09:39:10.718Z</time></trkpt><trkpt lat="40.7411104" lon="19.4785883"><ele>5.0</ele><time>2026-05-03T09:39:11.717Z</time></trkpt><trkpt lat="40.7410706" lon="19.4788931"><ele>5.0</ele><time>2026-05-03T09:39:12.717Z</time></trkpt><trkpt lat="40.7410361" lon="19.4791956"><ele>5.5</ele><time>2026-05-03T09:39:13.717Z</time></trkpt><trkpt lat="40.7409936" lon="19.4794945"><ele>6.0</ele><time>2026-05-03T09:39:14.718Z</time></trkpt><trkpt lat="40.7409575" lon="19.4798091"><ele>6.0</ele><time>2026-05-03T09:39:15.718Z</time></trkpt><trkpt lat="40.74092" lon="19.4801169"><ele>6.0</ele><time>2026-05-03T09:39:16.717Z</time></trkpt><trkpt lat="40.7408797" lon="19.4804238"><ele>6.0</ele><time>2026-05-03T09:39:17.717Z</time></trkpt><trkpt lat="40.740838" lon="19.4807282"><ele>6.0</ele><time>2026-05-03T09:39:18.717Z</time></trkpt><trkpt lat="40.7407869" lon="19.4810284"><ele>4.5</ele><time>2026-05-03T09:39:19.717Z</time></trkpt><trkpt lat="40.7407446" lon="19.4813343"><ele>3.0</ele><time>2026-05-03T09:39:20.718Z</time></trkpt><trkpt lat="40.7407046" lon="19.4816469"><ele>3.0</ele><time>2026-05-03T09:39:21.717Z</time></trkpt><trkpt lat="40.7406671" lon="19.4819515"><ele>3.0</ele><time>2026-05-03T09:39:22.718Z</time></trkpt><trkpt lat="40.7406266" lon="19.4822598"><ele>3.0</ele><time>2026-05-03T09:39:23.718Z</time></trkpt><trkpt lat="40.7405824" lon="19.4825614"><ele>3.0</ele><time>2026-05-03T09:39:24.717Z</time></trkpt><trkpt lat="40.7405449" lon="19.4828732"><ele>3.5</ele><time>2026-05-03T09:39:25.717Z</time></trkpt><trkpt lat="40.7405023" lon="19.4831803"><ele>4.0</ele><time>2026-05-03T09:39:26.718Z</time></trkpt><trkpt lat="40.7404629" lon="19.4834812"><ele>3.5</ele><time>2026-05-03T09:39:27.717Z</time></trkpt><trkpt lat="40.7404325" lon="19.4837925"><ele>3.0</ele><time>2026-05-03T09:39:28.718Z</time></trkpt><trkpt lat="40.740388" lon="19.4841087"><ele>3.0</ele><time>2026-05-03T09:39:29.718Z</time></trkpt><trkpt lat="40.7403361" lon="19.4844265"><ele>3.0</ele><time>2026-05-03T09:39:30.717Z</time></trkpt><trkpt lat="40.7402983" lon="19.484742"><ele>3.0</ele><time>2026-05-03T09:39:31.718Z</time></trkpt><trkpt lat="40.7402513" lon="19.4850532"><ele>3.0</ele><time>2026-05-03T09:39:32.718Z</time></trkpt><trkpt lat="40.7402042" lon="19.4853648"><ele>5.0</ele><time>2026-05-03T09:39:33.717Z</time></trkpt><trkpt lat="40.7401588" lon="19.4856794"><ele>7.0</ele><time>2026-05-03T09:39:34.718Z</time></trkpt><trkpt lat="40.7401147" lon="19.4859935"><ele>6.0</ele><time>2026-05-03T09:39:35.718Z</time></trkpt><trkpt lat="40.7400706" lon="19.4863146"><ele>5.0</ele><time>2026-05-03T09:39:36.717Z</time></trkpt><trkpt lat="40.7400256" lon="19.4866407"><ele>5.0</ele><time>2026-05-03T09:39:37.718Z</time></trkpt><trkpt lat="40.7399861" lon="19.4869718"><ele>5.0</ele><time>2026-05-03T09:39:38.717Z</time></trkpt><trkpt lat="40.7399467" lon="19.4873016"><ele>5.0</ele><time>2026-05-03T09:39:39.717Z</time></trkpt><trkpt lat="40.7399169" lon="19.4876306"><ele>5.0</ele><time>2026-05-03T09:39:40.717Z</time></trkpt><trkpt lat="40.7398739" lon="19.4879586"><ele>6.0</ele><time>2026-05-03T09:39:41.717Z</time></trkpt><trkpt lat="40.739838" lon="19.4882912"><ele>7.0</ele><time>2026-05-03T09:39:42.717Z</time></trkpt><trkpt lat="40.7397995" lon="19.4886289"><ele>7.0</ele><time>2026-05-03T09:39:43.717Z</time></trkpt><trkpt lat="40.7397679" lon="19.4889638"><ele>7.0</ele><time>2026-05-03T09:39:44.718Z</time></trkpt><trkpt lat="40.7397424" lon="19.4892997"><ele>6.0</ele><time>2026-05-03T09:39:45.717Z</time></trkpt><trkpt lat="40.7397224" lon="19.4896314"><ele>5.0</ele><time>2026-05-03T09:39:46.718Z</time></trkpt><trkpt lat="40.7397022" lon="19.4899688"><ele>5.0</ele><time>2026-05-03T09:39:47.717Z</time></trkpt><trkpt lat="40.7396911" lon="19.4903005"><ele>5.0</ele><time>2026-05-03T09:39:48.718Z</time></trkpt><trkpt lat="40.739679" lon="19.4906404"><ele>5.0</ele><time>2026-05-03T09:39:49.718Z</time></trkpt><trkpt lat="40.7396806" lon="19.4909527"><ele>5.0</ele><time>2026-05-03T09:39:50.718Z</time></trkpt><trkpt lat="40.7396841" lon="19.4912866"><ele>5.0</ele><time>2026-05-03T09:39:51.718Z</time></trkpt><trkpt lat="40.7396997" lon="19.4916146"><ele>5.0</ele><time>2026-05-03T09:39:52.718Z</time></trkpt><trkpt lat="40.7397207" lon="19.4919364"><ele>5.0</ele><time>2026-05-03T09:39:53.718Z</time></trkpt><trkpt lat="40.7397351" lon="19.4922686"><ele>5.0</ele><time>2026-05-03T09:39:54.717Z</time></trkpt><trkpt lat="40.7397588" lon="19.4925954"><ele>5.0</ele><time>2026-05-03T09:39:55.718Z</time></trkpt><trkpt lat="40.7397863" lon="19.4929079"><ele>5.0</ele><time>2026-05-03T09:39:56.718Z</time></trkpt><trkpt lat="40.7398332" lon="19.4932272"><ele>5.0</ele><time>2026-05-03T09:39:57.718Z</time></trkpt><trkpt lat="40.7398761" lon="19.4935419"><ele>5.0</ele><time>2026-05-03T09:39:58.718Z</time></trkpt><trkpt lat="40.739922" lon="19.4938559"><ele>4.5</ele><time>2026-05-03T09:39:59.717Z</time></trkpt><trkpt lat="40.7399769" lon="19.4941731"><ele>4.0</ele><time>2026-05-03T09:40:00.718Z</time></trkpt><trkpt lat="40.7400339" lon="19.494483"><ele>4.5</ele><time>2026-05-03T09:40:01.718Z</time></trkpt><trkpt lat="40.740094" lon="19.4947896"><ele>5.0</ele><time>2026-05-03T09:40:02.717Z</time></trkpt><trkpt lat="40.7401579" lon="19.495101"><ele>4.5</ele><time>2026-05-03T09:40:03.718Z</time></trkpt><trkpt lat="40.7402285" lon="19.4954064"><ele>4.0</ele><time>2026-05-03T09:40:04.718Z</time></trkpt><trkpt lat="40.7403055" lon="19.4957212"><ele>4.0</ele><time>2026-05-03T09:40:05.717Z</time></trkpt><trkpt lat="40.7403844" lon="19.496021"><ele>4.0</ele><time>2026-05-03T09:40:06.718Z</time></trkpt><trkpt lat="40.7404674" lon="19.4963154"><ele>4.5</ele><time>2026-05-03T09:40:07.717Z</time></trkpt><trkpt lat="40.7405612" lon="19.4966172"><ele>5.0</ele><time>2026-05-03T09:40:08.717Z</time></trkpt><trkpt lat="40.7406558" lon="19.4969126"><ele>5.5</ele><time>2026-05-03T09:40:09.717Z</time></trkpt><trkpt lat="40.7407539" lon="19.4972041"><ele>6.0</ele><time>2026-05-03T09:40:10.717Z</time></trkpt><trkpt lat="40.7408573" lon="19.4974931"><ele>6.0</ele><time>2026-05-03T09:40:11.717Z</time></trkpt><trkpt lat="40.7409637" lon="19.4977787"><ele>6.0</ele><time>2026-05-03T09:40:12.717Z</time></trkpt><trkpt lat="40.7410833" lon="19.4980733"><ele>5.5</ele><time>2026-05-03T09:40:13.718Z</time></trkpt><trkpt lat="40.7411974" lon="19.4983553"><ele>5.0</ele><time>2026-05-03T09:40:14.717Z</time></trkpt><trkpt lat="40.7413198" lon="19.4986315"><ele>5.5</ele><time>2026-05-03T09:40:15.718Z</time></trkpt><trkpt lat="40.7414416" lon="19.4988987"><ele>6.0</ele><time>2026-05-03T09:40:16.717Z</time></trkpt><trkpt lat="40.7415713" lon="19.4991673"><ele>6.0</ele><time>2026-05-03T09:40:17.718Z</time></trkpt><trkpt lat="40.7417032" lon="19.4994313"><ele>6.0</ele><time>2026-05-03T09:40:18.718Z</time></trkpt><trkpt lat="40.7418457" lon="19.4996851"><ele>6.0</ele><time>2026-05-03T09:40:19.717Z</time></trkpt><trkpt lat="40.7419891" lon="19.4999357"><ele>6.0</ele><time>2026-05-03T09:40:20.718Z</time></trkpt><trkpt lat="40.7421332" lon="19.5001786"><ele>5.5</ele><time>2026-05-03T09:40:21.718Z</time></trkpt><trkpt lat="40.7422782" lon="19.5004363"><ele>5.0</ele><time>2026-05-03T09:40:22.717Z</time></trkpt><trkpt lat="40.7424365" lon="19.5006845"><ele>5.0</ele><time>2026-05-03T09:40:23.717Z</time></trkpt><trkpt lat="40.7425856" lon="19.5009292"><ele>5.0</ele><time>2026-05-03T09:40:24.718Z</time></trkpt><trkpt lat="40.7427258" lon="19.5011711"><ele>5.5</ele><time>2026-05-03T09:40:25.718Z</time></trkpt><trkpt lat="40.7428775" lon="19.5014129"><ele>6.0</ele><time>2026-05-03T09:40:26.717Z</time></trkpt><trkpt lat="40.7430322" lon="19.5016489"><ele>6.0</ele><time>2026-05-03T09:40:27.718Z</time></trkpt><trkpt lat="40.7431842" lon="19.5018914"><ele>6.0</ele><time>2026-05-03T09:40:28.718Z</time></trkpt><trkpt lat="40.7433396" lon="19.5021345"><ele>6.0</ele><time>2026-05-03T09:40:29.717Z</time></trkpt><trkpt lat="40.7434985" lon="19.5023844"><ele>6.0</ele><time>2026-05-03T09:40:30.718Z</time></trkpt><trkpt lat="40.7436513" lon="19.502631"><ele>5.5</ele><time>2026-05-03T09:40:31.717Z</time></trkpt><trkpt lat="40.7438191" lon="19.5028811"><ele>5.0</ele><time>2026-05-03T09:40:32.718Z</time></trkpt><trkpt lat="40.7439723" lon="19.5031233"><ele>5.0</ele><time>2026-05-03T09:40:33.718Z</time></trkpt><trkpt lat="40.7441354" lon="19.5033741"><ele>5.0</ele><time>2026-05-03T09:40:34.718Z</time></trkpt><trkpt lat="40.7442916" lon="19.50362"><ele>4.5</ele><time>2026-05-03T09:40:35.717Z</time></trkpt><trkpt lat="40.7444414" lon="19.5038681"><ele>4.0</ele><time>2026-05-03T09:40:36.718Z</time></trkpt><trkpt lat="40.7445949" lon="19.5041178"><ele>4.0</ele><time>2026-05-03T09:40:37.717Z</time></trkpt><trkpt lat="40.7447554" lon="19.5043594"><ele>4.0</ele><time>2026-05-03T09:40:38.717Z</time></trkpt><trkpt lat="40.7449089" lon="19.5046152"><ele>4.0</ele><time>2026-05-03T09:40:39.718Z</time></trkpt><trkpt lat="40.7450614" lon="19.5048713"><ele>4.0</ele><time>2026-05-03T09:40:40.718Z</time></trkpt><trkpt lat="40.7452289" lon="19.505134"><ele>4.0</ele><time>2026-05-03T09:40:41.718Z</time></trkpt><trkpt lat="40.7453964" lon="19.5053877"><ele>4.0</ele><time>2026-05-03T09:40:42.718Z</time></trkpt><trkpt lat="40.7455584" lon="19.5056384"><ele>4.0</ele><time>2026-05-03T09:40:43.718Z</time></trkpt><trkpt lat="40.7457328" lon="19.5058888"><ele>4.0</ele><time>2026-05-03T09:40:44.718Z</time></trkpt><trkpt lat="40.7458868" lon="19.5061304"><ele>4.5</ele><time>2026-05-03T09:40:45.718Z</time></trkpt><trkpt lat="40.7460454" lon="19.5063812"><ele>5.0</ele><time>2026-05-03T09:40:46.717Z</time></trkpt><trkpt lat="40.7461996" lon="19.5066415"><ele>5.0</ele><time>2026-05-03T09:40:47.718Z</time></trkpt><trkpt lat="40.7463606" lon="19.5068935"><ele>5.0</ele><time>2026-05-03T09:40:48.718Z</time></trkpt><trkpt lat="40.7465309" lon="19.5071447"><ele>4.0</ele><time>2026-05-03T09:40:49.718Z</time></trkpt><trkpt lat="40.746688" lon="19.5073939"><ele>3.0</ele><time>2026-05-03T09:40:50.718Z</time></trkpt><trkpt lat="40.7468517" lon="19.5076439"><ele>3.5</ele><time>2026-05-03T09:40:51.717Z</time></trkpt><trkpt lat="40.7470074" lon="19.5079022"><ele>4.0</ele><time>2026-05-03T09:40:52.718Z</time></trkpt><trkpt lat="40.7471827" lon="19.5081426"><ele>3.0</ele><time>2026-05-03T09:40:53.717Z</time></trkpt><trkpt lat="40.7473302" lon="19.5083824"><ele>2.0</ele><time>2026-05-03T09:40:54.718Z</time></trkpt><trkpt lat="40.7474933" lon="19.5086247"><ele>2.0</ele><time>2026-05-03T09:40:55.718Z</time></trkpt><trkpt lat="40.7476411" lon="19.5088708"><ele>2.0</ele><time>2026-05-03T09:40:56.718Z</time></trkpt><trkpt lat="40.7477954" lon="19.5091155"><ele>2.0</ele><time>2026-05-03T09:40:57.717Z</time></trkpt><trkpt lat="40.7479589" lon="19.5093538"><ele>2.0</ele><time>2026-05-03T09:40:58.717Z</time></trkpt><trkpt lat="40.7481068" lon="19.5096042"><ele>2.0</ele><time>2026-05-03T09:40:59.718Z</time></trkpt><trkpt lat="40.7482604" lon="19.5098443"><ele>2.0</ele><time>2026-05-03T09:41:00.717Z</time></trkpt><trkpt lat="40.7484003" lon="19.510089"><ele>3.0</ele><time>2026-05-03T09:41:01.718Z</time></trkpt><trkpt lat="40.7485435" lon="19.5103284"><ele>4.0</ele><time>2026-05-03T09:41:02.717Z</time></trkpt><trkpt lat="40.7486775" lon="19.5105904"><ele>4.0</ele><time>2026-05-03T09:41:03.718Z</time></trkpt><trkpt lat="40.7488168" lon="19.5108554"><ele>4.0</ele><time>2026-05-03T09:41:04.718Z</time></trkpt><trkpt lat="40.7489455" lon="19.5111293"><ele>4.0</ele><time>2026-05-03T09:41:05.717Z</time></trkpt><trkpt lat="40.7490744" lon="19.5114129"><ele>4.0</ele><time>2026-05-03T09:41:06.718Z</time></trkpt><trkpt lat="40.7491946" lon="19.5116938"><ele>4.0</ele><time>2026-05-03T09:41:07.718Z</time></trkpt><trkpt lat="40.7493064" lon="19.5119811"><ele>4.0</ele><time>2026-05-03T09:41:08.717Z</time></trkpt><trkpt lat="40.7494076" lon="19.5122692"><ele>4.5</ele><time>2026-05-03T09:41:09.717Z</time></trkpt><trkpt lat="40.7495047" lon="19.5125572"><ele>5.0</ele><time>2026-05-03T09:41:10.718Z</time></trkpt><trkpt lat="40.7496022" lon="19.5128526"><ele>4.5</ele><time>2026-05-03T09:41:11.718Z</time></trkpt><trkpt lat="40.7496896" lon="19.5131486"><ele>4.0</ele><time>2026-05-03T09:41:12.717Z</time></trkpt><trkpt lat="40.7497647" lon="19.5134474"><ele>4.0</ele><time>2026-05-03T09:41:13.718Z</time></trkpt><trkpt lat="40.7498391" lon="19.5137435"><ele>4.0</ele><time>2026-05-03T09:41:14.718Z</time></trkpt><trkpt lat="40.7499081" lon="19.5140524"><ele>4.0</ele><time>2026-05-03T09:41:15.718Z</time></trkpt><trkpt lat="40.74997" lon="19.5143575"><ele>4.0</ele><time>2026-05-03T09:41:16.718Z</time></trkpt><trkpt lat="40.7500244" lon="19.5146634"><ele>4.0</ele><time>2026-05-03T09:41:17.718Z</time></trkpt><trkpt lat="40.7500695" lon="19.5149693"><ele>4.0</ele><time>2026-05-03T09:41:18.718Z</time></trkpt><trkpt lat="40.7501114" lon="19.5152783"><ele>4.0</ele><time>2026-05-03T09:41:19.718Z</time></trkpt><trkpt lat="40.7501471" lon="19.5155846"><ele>4.0</ele><time>2026-05-03T09:41:20.718Z</time></trkpt><trkpt lat="40.750175" lon="19.5158839"><ele>4.0</ele><time>2026-05-03T09:41:21.718Z</time></trkpt><trkpt lat="40.7502011" lon="19.5161949"><ele>4.0</ele><time>2026-05-03T09:41:22.718Z</time></trkpt><trkpt lat="40.7502234" lon="19.5165047"><ele>4.0</ele><time>2026-05-03T09:41:23.718Z</time></trkpt><trkpt lat="40.7502343" lon="19.5168161"><ele>4.0</ele><time>2026-05-03T09:41:24.717Z</time></trkpt><trkpt lat="40.75024" lon="19.5171226"><ele>4.0</ele><time>2026-05-03T09:41:25.718Z</time></trkpt><trkpt lat="40.7502412" lon="19.5174333"><ele>4.0</ele><time>2026-05-03T09:41:26.717Z</time></trkpt><trkpt lat="40.7502408" lon="19.5177538"><ele>4.0</ele><time>2026-05-03T09:41:27.717Z</time></trkpt><trkpt lat="40.7502309" lon="19.5180649"><ele>4.0</ele><time>2026-05-03T09:41:28.718Z</time></trkpt><trkpt lat="40.750211" lon="19.5183759"><ele>4.0</ele><time>2026-05-03T09:41:29.717Z</time></trkpt><trkpt lat="40.7501895" lon="19.5186917"><ele>4.0</ele><time>2026-05-03T09:41:30.717Z</time></trkpt><trkpt lat="40.7501625" lon="19.5189947"><ele>4.5</ele><time>2026-05-03T09:41:31.717Z</time></trkpt><trkpt lat="40.750137" lon="19.5193036"><ele>5.0</ele><time>2026-05-03T09:41:32.718Z</time></trkpt><trkpt lat="40.7501127" lon="19.5196141"><ele>4.0</ele><time>2026-05-03T09:41:33.718Z</time></trkpt><trkpt lat="40.7500846" lon="19.5199266"><ele>3.0</ele><time>2026-05-03T09:41:34.718Z</time></trkpt><trkpt lat="40.7500549" lon="19.5202422"><ele>3.0</ele><time>2026-05-03T09:41:35.718Z</time></trkpt><trkpt lat="40.7500207" lon="19.5205633"><ele>3.0</ele><time>2026-05-03T09:41:36.717Z</time></trkpt><trkpt lat="40.7499901" lon="19.5208795"><ele>3.0</ele><time>2026-05-03T09:41:37.718Z</time></trkpt><trkpt lat="40.7499586" lon="19.5211916"><ele>3.0</ele><time>2026-05-03T09:41:38.718Z</time></trkpt><trkpt lat="40.7499274" lon="19.5215078"><ele>3.5</ele><time>2026-05-03T09:41:39.718Z</time></trkpt><trkpt lat="40.7498883" lon="19.5218207"><ele>4.0</ele><time>2026-05-03T09:41:40.718Z</time></trkpt><trkpt lat="40.7498585" lon="19.5221452"><ele>4.0</ele><time>2026-05-03T09:41:41.717Z</time></trkpt><trkpt lat="40.7498286" lon="19.5224581"><ele>4.0</ele><time>2026-05-03T09:41:42.717Z</time></trkpt><trkpt lat="40.7498013" lon="19.52279"><ele>4.0</ele><time>2026-05-03T09:41:43.718Z</time></trkpt><trkpt lat="40.7497729" lon="19.5231177"><ele>4.0</ele><time>2026-05-03T09:41:44.718Z</time></trkpt><trkpt lat="40.749743" lon="19.5234454"><ele>3.0</ele><time>2026-05-03T09:41:45.717Z</time></trkpt><trkpt lat="40.74971" lon="19.5237673"><ele>2.0</ele><time>2026-05-03T09:41:46.717Z</time></trkpt><trkpt lat="40.7496925" lon="19.5240918"><ele>2.0</ele><time>2026-05-03T09:41:47.717Z</time></trkpt><trkpt lat="40.7496638" lon="19.5244097"><ele>2.0</ele><time>2026-05-03T09:41:48.717Z</time></trkpt><trkpt lat="40.7496373" lon="19.5247295"><ele>3.0</ele><time>2026-05-03T09:41:49.718Z</time></trkpt><trkpt lat="40.7496041" lon="19.5250446"><ele>4.0</ele><time>2026-05-03T09:41:50.717Z</time></trkpt><trkpt lat="40.7495755" lon="19.5253664"><ele>4.5</ele><time>2026-05-03T09:41:51.717Z</time></trkpt><trkpt lat="40.7495439" lon="19.5256906"><ele>5.0</ele><time>2026-05-03T09:41:52.718Z</time></trkpt><trkpt lat="40.7495065" lon="19.5260109"><ele>4.5</ele><time>2026-05-03T09:41:53.717Z</time></trkpt><trkpt lat="40.7494755" lon="19.5263329"><ele>4.0</ele><time>2026-05-03T09:41:54.717Z</time></trkpt><trkpt lat="40.7494461" lon="19.5266577"><ele>4.0</ele><time>2026-05-03T09:41:55.717Z</time></trkpt><trkpt lat="40.7494159" lon="19.5269735"><ele>4.0</ele><time>2026-05-03T09:41:56.717Z</time></trkpt><trkpt lat="40.7493879" lon="19.5272878"><ele>4.5</ele><time>2026-05-03T09:41:57.717Z</time></trkpt><trkpt lat="40.7493543" lon="19.5276064"><ele>5.0</ele><time>2026-05-03T09:41:58.717Z</time></trkpt><trkpt lat="40.749329" lon="19.5279232"><ele>5.5</ele><time>2026-05-03T09:41:59.718Z</time></trkpt><trkpt lat="40.7493053" lon="19.5282526"><ele>6.0</ele><time>2026-05-03T09:42:00.717Z</time></trkpt><trkpt lat="40.7492768" lon="19.5285688"><ele>6.0</ele><time>2026-05-03T09:42:01.718Z</time></trkpt><trkpt lat="40.7492462" lon="19.5288982"><ele>6.0</ele><time>2026-05-03T09:42:02.717Z</time></trkpt><trkpt lat="40.7492178" lon="19.5292229"><ele>6.0</ele><time>2026-05-03T09:42:03.718Z</time></trkpt><trkpt lat="40.7491821" lon="19.5295379"><ele>6.0</ele><time>2026-05-03T09:42:04.718Z</time></trkpt><trkpt lat="40.7491504" lon="19.5298616"><ele>6.5</ele><time>2026-05-03T09:42:05.718Z</time></trkpt><trkpt lat="40.7491177" lon="19.5301856"><ele>7.0</ele><time>2026-05-03T09:42:06.718Z</time></trkpt><trkpt lat="40.7490885" lon="19.5305"><ele>7.5</ele><time>2026-05-03T09:42:07.718Z</time></trkpt><trkpt lat="40.7490548" lon="19.5308229"><ele>8.0</ele><time>2026-05-03T09:42:08.718Z</time></trkpt><trkpt lat="40.7490279" lon="19.5311479"><ele>7.0</ele><time>2026-05-03T09:42:09.717Z</time></trkpt><trkpt lat="40.7490004" lon="19.53147"><ele>6.0</ele><time>2026-05-03T09:42:10.717Z</time></trkpt><trkpt lat="40.7489748" lon="19.5317844"><ele>5.5</ele><time>2026-05-03T09:42:11.718Z</time></trkpt><trkpt lat="40.7489411" lon="19.5321069"><ele>5.0</ele><time>2026-05-03T09:42:12.718Z</time></trkpt><trkpt lat="40.7489153" lon="19.5324172"><ele>5.0</ele><time>2026-05-03T09:42:13.717Z</time></trkpt><trkpt lat="40.7488934" lon="19.5327322"><ele>5.0</ele><time>2026-05-03T09:42:14.717Z</time></trkpt><trkpt lat="40.7488648" lon="19.5330431"><ele>5.0</ele><time>2026-05-03T09:42:15.717Z</time></trkpt><trkpt lat="40.7488371" lon="19.5333505"><ele>5.0</ele><time>2026-05-03T09:42:16.717Z</time></trkpt><trkpt lat="40.7488088" lon="19.533657"><ele>5.5</ele><time>2026-05-03T09:42:17.718Z</time></trkpt><trkpt lat="40.7487798" lon="19.5339679"><ele>6.0</ele><time>2026-05-03T09:42:18.718Z</time></trkpt><trkpt lat="40.7487522" lon="19.53428"><ele>7.0</ele><time>2026-05-03T09:42:19.717Z</time></trkpt><trkpt lat="40.7487226" lon="19.5345953"><ele>8.0</ele><time>2026-05-03T09:42:20.718Z</time></trkpt><trkpt lat="40.7486972" lon="19.534917"><ele>8.0</ele><time>2026-05-03T09:42:21.718Z</time></trkpt><trkpt lat="40.7486621" lon="19.5352326"><ele>8.0</ele><time>2026-05-03T09:42:22.718Z</time></trkpt><trkpt lat="40.7486378" lon="19.5355494"><ele>8.0</ele><time>2026-05-03T09:42:23.717Z</time></trkpt><trkpt lat="40.7486057" lon="19.5358707"><ele>8.0</ele><time>2026-05-03T09:42:24.717Z</time></trkpt><trkpt lat="40.7485775" lon="19.5361876"><ele>8.5</ele><time>2026-05-03T09:42:25.718Z</time></trkpt><trkpt lat="40.7485512" lon="19.5365083"><ele>9.0</ele><time>2026-05-03T09:42:26.717Z</time></trkpt><trkpt lat="40.7485248" lon="19.53683"><ele>8.5</ele><time>2026-05-03T09:42:27.718Z</time></trkpt><trkpt lat="40.7485018" lon="19.5371494"><ele>8.0</ele><time>2026-05-03T09:42:28.718Z</time></trkpt><trkpt lat="40.7484858" lon="19.5374694"><ele>8.0</ele><time>2026-05-03T09:42:29.717Z</time></trkpt><trkpt lat="40.7484623" lon="19.5378004"><ele>8.0</ele><time>2026-05-03T09:42:30.718Z</time></trkpt><trkpt lat="40.74844" lon="19.5381267"><ele>8.0</ele><time>2026-05-03T09:42:31.717Z</time></trkpt><trkpt lat="40.7484185" lon="19.5384495"><ele>8.0</ele><time>2026-05-03T09:42:32.717Z</time></trkpt><trkpt lat="40.7483996" lon="19.5387854"><ele>7.5</ele><time>2026-05-03T09:42:33.717Z</time></trkpt><trkpt lat="40.7483785" lon="19.5391179"><ele>7.0</ele><time>2026-05-03T09:42:34.718Z</time></trkpt><trkpt lat="40.7483565" lon="19.5394502"><ele>7.5</ele><time>2026-05-03T09:42:35.717Z</time></trkpt><trkpt lat="40.7483442" lon="19.5397838"><ele>8.0</ele><time>2026-05-03T09:42:36.718Z</time></trkpt><trkpt lat="40.7483316" lon="19.540113"><ele>8.5</ele><time>2026-05-03T09:42:37.717Z</time></trkpt><trkpt lat="40.7483085" lon="19.5404462"><ele>9.0</ele><time>2026-05-03T09:42:38.717Z</time></trkpt><trkpt lat="40.7482941" lon="19.5407788"><ele>9.0</ele><time>2026-05-03T09:42:39.717Z</time></trkpt><trkpt lat="40.7482836" lon="19.54111"><ele>9.0</ele><time>2026-05-03T09:42:40.717Z</time></trkpt><trkpt lat="40.7482822" lon="19.5414439"><ele>9.0</ele><time>2026-05-03T09:42:41.718Z</time></trkpt><trkpt lat="40.7482729" lon="19.5417804"><ele>9.0</ele><time>2026-05-03T09:42:42.717Z</time></trkpt><trkpt lat="40.7482608" lon="19.5421051"><ele>8.5</ele><time>2026-05-03T09:42:43.717Z</time></trkpt><trkpt lat="40.7482552" lon="19.5424374"><ele>8.0</ele><time>2026-05-03T09:42:44.718Z</time></trkpt><trkpt lat="40.7482469" lon="19.5427666"><ele>8.0</ele><time>2026-05-03T09:42:45.717Z</time></trkpt><trkpt lat="40.7482342" lon="19.5430926"><ele>8.0</ele><time>2026-05-03T09:42:46.718Z</time></trkpt><trkpt lat="40.7482246" lon="19.5434239"><ele>9.0</ele><time>2026-05-03T09:42:47.718Z</time></trkpt><trkpt lat="40.7482221" lon="19.5437572"><ele>10.0</ele><time>2026-05-03T09:42:48.718Z</time></trkpt><trkpt lat="40.7482159" lon="19.5440825"><ele>10.0</ele><time>2026-05-03T09:42:49.718Z</time></trkpt><trkpt lat="40.7482068" lon="19.5444063"><ele>10.0</ele><time>2026-05-03T09:42:50.718Z</time></trkpt><trkpt lat="40.7482004" lon="19.5447325"><ele>9.0</ele><time>2026-05-03T09:42:51.717Z</time></trkpt><trkpt lat="40.7481879" lon="19.5450597"><ele>8.0</ele><time>2026-05-03T09:42:52.718Z</time></trkpt><trkpt lat="40.7481813" lon="19.5453941"><ele>8.0</ele><time>2026-05-03T09:42:53.718Z</time></trkpt><trkpt lat="40.7481739" lon="19.545722"><ele>8.0</ele><time>2026-05-03T09:42:54.717Z</time></trkpt><trkpt lat="40.7481643" lon="19.5460495"><ele>8.5</ele><time>2026-05-03T09:42:55.718Z</time></trkpt><trkpt lat="40.7481573" lon="19.546373"><ele>9.0</ele><time>2026-05-03T09:42:56.717Z</time></trkpt><trkpt lat="40.7481457" lon="19.5467045"><ele>9.0</ele><time>2026-05-03T09:42:57.718Z</time></trkpt><trkpt lat="40.7481359" lon="19.5470258"><ele>9.0</ele><time>2026-05-03T09:42:58.718Z</time></trkpt><trkpt lat="40.7481394" lon="19.5473613"><ele>9.0</ele><time>2026-05-03T09:42:59.718Z</time></trkpt><trkpt lat="40.7481272" lon="19.5476844"><ele>9.0</ele><time>2026-05-03T09:43:00.718Z</time></trkpt><trkpt lat="40.7481209" lon="19.5480118"><ele>8.5</ele><time>2026-05-03T09:43:01.718Z</time></trkpt><trkpt lat="40.7481177" lon="19.548341"><ele>8.0</ele><time>2026-05-03T09:43:02.718Z</time></trkpt><trkpt lat="40.7481075" lon="19.5486566"><ele>7.5</ele><time>2026-05-03T09:43:03.718Z</time></trkpt><trkpt lat="40.7480985" lon="19.5489738"><ele>7.0</ele><time>2026-05-03T09:43:04.718Z</time></trkpt><trkpt lat="40.7480875" lon="19.5492956"><ele>7.5</ele><time>2026-05-03T09:43:05.718Z</time></trkpt><trkpt lat="40.7480801" lon="19.5496212"><ele>8.0</ele><time>2026-05-03T09:43:06.717Z</time></trkpt><trkpt lat="40.7480692" lon="19.5499418"><ele>8.0</ele><time>2026-05-03T09:43:07.717Z</time></trkpt><trkpt lat="40.7480624" lon="19.5502646"><ele>8.0</ele><time>2026-05-03T09:43:08.717Z</time></trkpt><trkpt lat="40.748051" lon="19.5505908"><ele>8.0</ele><time>2026-05-03T09:43:09.717Z</time></trkpt><trkpt lat="40.7480453" lon="19.5509241"><ele>8.0</ele><time>2026-05-03T09:43:10.717Z</time></trkpt><trkpt lat="40.748032" lon="19.5512508"><ele>7.5</ele><time>2026-05-03T09:43:11.718Z</time></trkpt><trkpt lat="40.7480277" lon="19.5515821"><ele>7.0</ele><time>2026-05-03T09:43:12.718Z</time></trkpt><trkpt lat="40.7480168" lon="19.5519068"><ele>8.0</ele><time>2026-05-03T09:43:13.717Z</time></trkpt><trkpt lat="40.7480117" lon="19.5522392"><ele>9.0</ele><time>2026-05-03T09:43:14.718Z</time></trkpt><trkpt lat="40.7480098" lon="19.5525695"><ele>8.0</ele><time>2026-05-03T09:43:15.718Z</time></trkpt><trkpt lat="40.7480026" lon="19.5528999"><ele>7.0</ele><time>2026-05-03T09:43:16.718Z</time></trkpt><trkpt lat="40.7479973" lon="19.5532238"><ele>7.0</ele><time>2026-05-03T09:43:17.717Z</time></trkpt><trkpt lat="40.7479859" lon="19.5535433"><ele>7.0</ele><time>2026-05-03T09:43:18.718Z</time></trkpt><trkpt lat="40.7479743" lon="19.5538603"><ele>7.5</ele><time>2026-05-03T09:43:19.718Z</time></trkpt><trkpt lat="40.7479628" lon="19.5541788"><ele>8.0</ele><time>2026-05-03T09:43:20.718Z</time></trkpt><trkpt lat="40.7479548" lon="19.5545003"><ele>8.0</ele><time>2026-05-03T09:43:21.718Z</time></trkpt><trkpt lat="40.7479517" lon="19.5548232"><ele>8.0</ele><time>2026-05-03T09:43:22.718Z</time></trkpt><trkpt lat="40.7479437" lon="19.5551405"><ele>8.0</ele><time>2026-05-03T09:43:23.718Z</time></trkpt><trkpt lat="40.7479341" lon="19.5554548"><ele>8.0</ele><time>2026-05-03T09:43:24.717Z</time></trkpt><trkpt lat="40.7479259" lon="19.5557745"><ele>8.0</ele><time>2026-05-03T09:43:25.718Z</time></trkpt><trkpt lat="40.7479202" lon="19.5560978"><ele>8.0</ele><time>2026-05-03T09:43:26.717Z</time></trkpt><trkpt lat="40.747911" lon="19.5564316"><ele>7.5</ele><time>2026-05-03T09:43:27.717Z</time></trkpt><trkpt lat="40.7479063" lon="19.5567577"><ele>7.0</ele><time>2026-05-03T09:43:28.718Z</time></trkpt><trkpt lat="40.747903" lon="19.557078"><ele>7.0</ele><time>2026-05-03T09:43:29.717Z</time></trkpt><trkpt lat="40.7478958" lon="19.5574026"><ele>7.0</ele><time>2026-05-03T09:43:30.717Z</time></trkpt><trkpt lat="40.7478928" lon="19.557727"><ele>7.5</ele><time>2026-05-03T09:43:31.718Z</time></trkpt><trkpt lat="40.7478955" lon="19.558056"><ele>8.0</ele><time>2026-05-03T09:43:32.717Z</time></trkpt><trkpt lat="40.7478907" lon="19.558382"><ele>8.0</ele><time>2026-05-03T09:43:33.718Z</time></trkpt><trkpt lat="40.7478939" lon="19.5587096"><ele>8.0</ele><time>2026-05-03T09:43:34.718Z</time></trkpt><trkpt lat="40.747894" lon="19.5590387"><ele>8.0</ele><time>2026-05-03T09:43:35.717Z</time></trkpt><trkpt lat="40.7479011" lon="19.5593761"><ele>8.0</ele><time>2026-05-03T09:43:36.717Z</time></trkpt><trkpt lat="40.7479104" lon="19.5597077"><ele>8.0</ele><time>2026-05-03T09:43:37.717Z</time></trkpt><trkpt lat="40.7479251" lon="19.5600416"><ele>8.0</ele><time>2026-05-03T09:43:38.717Z</time></trkpt><trkpt lat="40.7479448" lon="19.5603769"><ele>8.0</ele><time>2026-05-03T09:43:39.717Z</time></trkpt><trkpt lat="40.7479653" lon="19.5607156"><ele>8.0</ele><time>2026-05-03T09:43:40.718Z</time></trkpt><trkpt lat="40.7479891" lon="19.5610415"><ele>8.0</ele><time>2026-05-03T09:43:41.717Z</time></trkpt><trkpt lat="40.7480192" lon="19.5613678"><ele>8.0</ele><time>2026-05-03T09:43:42.718Z</time></trkpt><trkpt lat="40.7480556" lon="19.5616908"><ele>8.0</ele><time>2026-05-03T09:43:43.717Z</time></trkpt><trkpt lat="40.7480936" lon="19.5620172"><ele>8.0</ele><time>2026-05-03T09:43:44.718Z</time></trkpt><trkpt lat="40.7481414" lon="19.5623432"><ele>8.0</ele><time>2026-05-03T09:43:45.718Z</time></trkpt><trkpt lat="40.7481896" lon="19.5626645"><ele>8.0</ele><time>2026-05-03T09:43:46.717Z</time></trkpt><trkpt lat="40.7482378" lon="19.5629887"><ele>8.0</ele><time>2026-05-03T09:43:47.717Z</time></trkpt><trkpt lat="40.7482976" lon="19.5633049"><ele>8.0</ele><time>2026-05-03T09:43:48.717Z</time></trkpt><trkpt lat="40.7483537" lon="19.5636134"><ele>8.5</ele><time>2026-05-03T09:43:49.718Z</time></trkpt><trkpt lat="40.7484112" lon="19.5639173"><ele>9.0</ele><time>2026-05-03T09:43:50.718Z</time></trkpt><trkpt lat="40.7484746" lon="19.5642258"><ele>9.0</ele><time>2026-05-03T09:43:51.718Z</time></trkpt><trkpt lat="40.7485446" lon="19.5645264"><ele>9.0</ele><time>2026-05-03T09:43:52.718Z</time></trkpt><trkpt lat="40.7486211" lon="19.5648281"><ele>9.0</ele><time>2026-05-03T09:43:53.717Z</time></trkpt><trkpt lat="40.7487054" lon="19.5651306"><ele>9.0</ele><time>2026-05-03T09:43:54.718Z</time></trkpt><trkpt lat="40.7487861" lon="19.5654278"><ele>8.5</ele><time>2026-05-03T09:43:55.717Z</time></trkpt><trkpt lat="40.7488773" lon="19.5657162"><ele>8.0</ele><time>2026-05-03T09:43:56.718Z</time></trkpt><trkpt lat="40.7489629" lon="19.5660186"><ele>8.0</ele><time>2026-05-03T09:43:57.718Z</time></trkpt><trkpt lat="40.7490498" lon="19.5663097"><ele>8.0</ele><time>2026-05-03T09:43:58.718Z</time></trkpt><trkpt lat="40.7491456" lon="19.5665928"><ele>8.0</ele><time>2026-05-03T09:43:59.718Z</time></trkpt><trkpt lat="40.7492437" lon="19.5668763"><ele>8.0</ele><time>2026-05-03T09:44:00.717Z</time></trkpt><trkpt lat="40.7493448" lon="19.56716"><ele>8.0</ele><time>2026-05-03T09:44:01.717Z</time></trkpt><trkpt lat="40.7494519" lon="19.567436"><ele>8.0</ele><time>2026-05-03T09:44:02.717Z</time></trkpt><trkpt lat="40.7495673" lon="19.5677099"><ele>8.5</ele><time>2026-05-03T09:44:03.718Z</time></trkpt><trkpt lat="40.7496872" lon="19.5679807"><ele>9.0</ele><time>2026-05-03T09:44:04.717Z</time></trkpt><trkpt lat="40.7498079" lon="19.5682589"><ele>9.0</ele><time>2026-05-03T09:44:05.717Z</time></trkpt><trkpt lat="40.7499318" lon="19.5685216"><ele>9.0</ele><time>2026-05-03T09:44:06.718Z</time></trkpt><trkpt lat="40.7500686" lon="19.568791"><ele>8.5</ele><time>2026-05-03T09:44:07.718Z</time></trkpt><trkpt lat="40.750209" lon="19.5690547"><ele>8.0</ele><time>2026-05-03T09:44:08.718Z</time></trkpt><trkpt lat="40.7503521" lon="19.5693179"><ele>8.5</ele><time>2026-05-03T09:44:09.717Z</time></trkpt><trkpt lat="40.7504917" lon="19.5695801"><ele>9.0</ele><time>2026-05-03T09:44:10.718Z</time></trkpt><trkpt lat="40.7506434" lon="19.5698418"><ele>9.0</ele><time>2026-05-03T09:44:11.718Z</time></trkpt><trkpt lat="40.7507856" lon="19.5700962"><ele>9.0</ele><time>2026-05-03T09:44:12.717Z</time></trkpt><trkpt lat="40.7509441" lon="19.5703569"><ele>9.0</ele><time>2026-05-03T09:44:13.718Z</time></trkpt><trkpt lat="40.7510991" lon="19.5706107"><ele>9.0</ele><time>2026-05-03T09:44:14.717Z</time></trkpt><trkpt lat="40.7512577" lon="19.5708491"><ele>9.0</ele><time>2026-05-03T09:44:15.718Z</time></trkpt><trkpt lat="40.7514097" lon="19.5710971"><ele>9.0</ele><time>2026-05-03T09:44:16.717Z</time></trkpt><trkpt lat="40.7515701" lon="19.5713386"><ele>8.5</ele><time>2026-05-03T09:44:17.718Z</time></trkpt><trkpt lat="40.7517344" lon="19.5715707"><ele>8.0</ele><time>2026-05-03T09:44:18.717Z</time></trkpt><trkpt lat="40.7519055" lon="19.5718023"><ele>9.0</ele><time>2026-05-03T09:44:19.718Z</time></trkpt><trkpt lat="40.7520813" lon="19.5720309"><ele>10.0</ele><time>2026-05-03T09:44:20.718Z</time></trkpt><trkpt lat="40.752254" lon="19.5722494"><ele>10.0</ele><time>2026-05-03T09:44:21.718Z</time></trkpt><trkpt lat="40.7524284" lon="19.5724642"><ele>10.0</ele><time>2026-05-03T09:44:22.717Z</time></trkpt><trkpt lat="40.7526132" lon="19.5726773"><ele>9.5</ele><time>2026-05-03T09:44:23.717Z</time></trkpt><trkpt lat="40.752792" lon="19.5728905"><ele>9.0</ele><time>2026-05-03T09:44:24.717Z</time></trkpt><trkpt lat="40.7529838" lon="19.5731103"><ele>9.0</ele><time>2026-05-03T09:44:25.718Z</time></trkpt><trkpt lat="40.7531774" lon="19.5733297"><ele>9.0</ele><time>2026-05-03T09:44:26.718Z</time></trkpt><trkpt lat="40.7533756" lon="19.5735422"><ele>9.5</ele><time>2026-05-03T09:44:27.717Z</time></trkpt><trkpt lat="40.753564" lon="19.5737535"><ele>10.0</ele><time>2026-05-03T09:44:28.718Z</time></trkpt><trkpt lat="40.75375" lon="19.573967"><ele>10.0</ele><time>2026-05-03T09:44:29.718Z</time></trkpt><trkpt lat="40.7539266" lon="19.5741749"><ele>10.0</ele><time>2026-05-03T09:44:30.718Z</time></trkpt><trkpt lat="40.7541098" lon="19.5743809"><ele>10.0</ele><time>2026-05-03T09:44:31.718Z</time></trkpt><trkpt lat="40.7542954" lon="19.5745777"><ele>10.0</ele><time>2026-05-03T09:44:32.718Z</time></trkpt><trkpt lat="40.7544723" lon="19.574774"><ele>11.0</ele><time>2026-05-03T09:44:33.717Z</time></trkpt><trkpt lat="40.7546578" lon="19.5749653"><ele>12.0</ele><time>2026-05-03T09:44:34.717Z</time></trkpt><trkpt lat="40.7548387" lon="19.5751634"><ele>12.0</ele><time>2026-05-03T09:44:35.718Z</time></trkpt><trkpt lat="40.7550068" lon="19.5753521"><ele>12.0</ele><time>2026-05-03T09:44:36.717Z</time></trkpt><trkpt lat="40.7551758" lon="19.5755489"><ele>12.0</ele><time>2026-05-03T09:44:37.718Z</time></trkpt><trkpt lat="40.7553453" lon="19.575745"><ele>14.333333333333332</ele><time>2026-05-03T09:44:38.717Z</time></trkpt><trkpt lat="40.7555135" lon="19.5759584"><ele>16.666666666666664</ele><time>2026-05-03T09:44:39.718Z</time></trkpt><trkpt lat="40.7556728" lon="19.5761481"><ele>19.0</ele><time>2026-05-03T09:44:40.717Z</time></trkpt><trkpt lat="40.7558475" lon="19.5763438"><ele>21.0</ele><time>2026-05-03T09:44:41.718Z</time></trkpt><trkpt lat="40.7560245" lon="19.5765404"><ele>23.0</ele><time>2026-05-03T09:44:42.717Z</time></trkpt><trkpt lat="40.7561913" lon="19.5767343"><ele>24.5</ele><time>2026-05-03T09:44:43.718Z</time></trkpt><trkpt lat="40.7563604" lon="19.576934"><ele>26.0</ele><time>2026-05-03T09:44:44.717Z</time></trkpt><trkpt lat="40.7565303" lon="19.577128"><ele>29.0</ele><time>2026-05-03T09:44:45.717Z</time></trkpt><trkpt lat="40.756703" lon="19.5773149"><ele>32.0</ele><time>2026-05-03T09:44:46.717Z</time></trkpt><trkpt lat="40.7568745" lon="19.5775087"><ele>35.0</ele><time>2026-05-03T09:44:47.717Z</time></trkpt><trkpt lat="40.7570485" lon="19.5777085"><ele>37.33333333333333</ele><time>2026-05-03T09:44:48.718Z</time></trkpt><trkpt lat="40.7572238" lon="19.5778842"><ele>39.666666666666664</ele><time>2026-05-03T09:44:49.717Z</time></trkpt><trkpt lat="40.7573963" lon="19.5780799"><ele>42.0</ele><time>2026-05-03T09:44:50.717Z</time></trkpt><trkpt lat="40.7575634" lon="19.5782878"><ele>38.0</ele><time>2026-05-03T09:44:51.717Z</time></trkpt><trkpt lat="40.7577276" lon="19.5784996"><ele>34.0</ele><time>2026-05-03T09:44:52.717Z</time></trkpt><trkpt lat="40.7578813" lon="19.5787226"><ele>34.0</ele><time>2026-05-03T09:44:53.717Z</time></trkpt><trkpt lat="40.7580225" lon="19.5789628"><ele>34.0</ele><time>2026-05-03T09:44:54.717Z</time></trkpt><trkpt lat="40.7581527" lon="19.5792066"><ele>34.0</ele><time>2026-05-03T09:44:55.718Z</time></trkpt><trkpt lat="40.7582794" lon="19.5794641"><ele>34.0</ele><time>2026-05-03T09:44:56.717Z</time></trkpt><trkpt lat="40.7584136" lon="19.579721"><ele>30.5</ele><time>2026-05-03T09:44:57.717Z</time></trkpt><trkpt lat="40.7585395" lon="19.5799747"><ele>27.0</ele><time>2026-05-03T09:44:58.717Z</time></trkpt><trkpt lat="40.7586781" lon="19.5802294"><ele>23.5</ele><time>2026-05-03T09:44:59.717Z</time></trkpt><trkpt lat="40.7588192" lon="19.5804795"><ele>20.0</ele><time>2026-05-03T09:45:00.718Z</time></trkpt><trkpt lat="40.7589702" lon="19.580721"><ele>20.0</ele><time>2026-05-03T09:45:01.718Z</time></trkpt><trkpt lat="40.7591297" lon="19.5809587"><ele>20.0</ele><time>2026-05-03T09:45:02.717Z</time></trkpt><trkpt lat="40.7593015" lon="19.5811956"><ele>17.0</ele><time>2026-05-03T09:45:03.718Z</time></trkpt><trkpt lat="40.7594704" lon="19.581444"><ele>14.0</ele><time>2026-05-03T09:45:04.717Z</time></trkpt><trkpt lat="40.7596469" lon="19.5816853"><ele>14.0</ele><time>2026-05-03T09:45:05.718Z</time></trkpt><trkpt lat="40.7598027" lon="19.5819337"><ele>14.0</ele><time>2026-05-03T09:45:06.718Z</time></trkpt><trkpt lat="40.7599547" lon="19.5821876"><ele>13.0</ele><time>2026-05-03T09:45:07.718Z</time></trkpt><trkpt lat="40.760099" lon="19.5824531"><ele>12.0</ele><time>2026-05-03T09:45:08.718Z</time></trkpt><trkpt lat="40.7602381" lon="19.5827249"><ele>10.5</ele><time>2026-05-03T09:45:09.718Z</time></trkpt><trkpt lat="40.7603745" lon="19.5829985"><ele>9.0</ele><time>2026-05-03T09:45:10.718Z</time></trkpt><trkpt lat="40.7605061" lon="19.583272"><ele>9.0</ele><time>2026-05-03T09:45:11.717Z</time></trkpt><trkpt lat="40.7606447" lon="19.5835331"><ele>9.0</ele><time>2026-05-03T09:45:12.717Z</time></trkpt><trkpt lat="40.7607946" lon="19.5837952"><ele>9.0</ele><time>2026-05-03T09:45:13.718Z</time></trkpt><trkpt lat="40.7609377" lon="19.5840529"><ele>9.0</ele><time>2026-05-03T09:45:14.717Z</time></trkpt><trkpt lat="40.7610841" lon="19.5843103"><ele>8.0</ele><time>2026-05-03T09:45:15.718Z</time></trkpt><trkpt lat="40.7612432" lon="19.5845473"><ele>7.0</ele><time>2026-05-03T09:45:16.717Z</time></trkpt><trkpt lat="40.7614008" lon="19.5847845"><ele>7.0</ele><time>2026-05-03T09:45:17.717Z</time></trkpt><trkpt lat="40.7615652" lon="19.5850078"><ele>7.0</ele><time>2026-05-03T09:45:18.718Z</time></trkpt><trkpt lat="40.7617332" lon="19.5852233"><ele>7.0</ele><time>2026-05-03T09:45:19.717Z</time></trkpt><trkpt lat="40.7619138" lon="19.5854317"><ele>7.0</ele><time>2026-05-03T09:45:20.718Z</time></trkpt><trkpt lat="40.7620943" lon="19.5856264"><ele>7.0</ele><time>2026-05-03T09:45:21.718Z</time></trkpt><trkpt lat="40.7622829" lon="19.5858133"><ele>7.0</ele><time>2026-05-03T09:45:22.718Z</time></trkpt><trkpt lat="40.762479" lon="19.5859896"><ele>7.0</ele><time>2026-05-03T09:45:23.717Z</time></trkpt><trkpt lat="40.7626783" lon="19.5861485"><ele>7.0</ele><time>2026-05-03T09:45:24.717Z</time></trkpt><trkpt lat="40.7628834" lon="19.5863024"><ele>7.0</ele><time>2026-05-03T09:45:25.717Z</time></trkpt><trkpt lat="40.7630954" lon="19.5864351"><ele>7.0</ele><time>2026-05-03T09:45:26.718Z</time></trkpt><trkpt lat="40.7633046" lon="19.5865631"><ele>7.0</ele><time>2026-05-03T09:45:27.718Z</time></trkpt><trkpt lat="40.7635204" lon="19.5866854"><ele>7.0</ele><time>2026-05-03T09:45:28.717Z</time></trkpt><trkpt lat="40.7637358" lon="19.5868008"><ele>7.0</ele><time>2026-05-03T09:45:29.717Z</time></trkpt><trkpt lat="40.7639549" lon="19.5869136"><ele>7.0</ele><time>2026-05-03T09:45:30.717Z</time></trkpt><trkpt lat="40.7641767" lon="19.5870263"><ele>7.5</ele><time>2026-05-03T09:45:31.717Z</time></trkpt><trkpt lat="40.7643956" lon="19.5871362"><ele>8.0</ele><time>2026-05-03T09:45:32.718Z</time></trkpt><trkpt lat="40.7646117" lon="19.5872491"><ele>8.0</ele><time>2026-05-03T09:45:33.717Z</time></trkpt><trkpt lat="40.7648285" lon="19.5873594"><ele>8.0</ele><time>2026-05-03T09:45:34.717Z</time></trkpt><trkpt lat="40.7650436" lon="19.5874688"><ele>8.0</ele><time>2026-05-03T09:45:35.718Z</time></trkpt><trkpt lat="40.7652577" lon="19.5875802"><ele>8.0</ele><time>2026-05-03T09:45:36.718Z</time></trkpt><trkpt lat="40.7654687" lon="19.587689"><ele>8.0</ele><time>2026-05-03T09:45:37.717Z</time></trkpt><trkpt lat="40.765684" lon="19.5877948"><ele>8.0</ele><time>2026-05-03T09:45:38.717Z</time></trkpt><trkpt lat="40.7659036" lon="19.5879063"><ele>7.666666666666666</ele><time>2026-05-03T09:45:39.718Z</time></trkpt><trkpt lat="40.7661083" lon="19.5880097"><ele>7.333333333333334</ele><time>2026-05-03T09:45:40.717Z</time></trkpt><trkpt lat="40.7663194" lon="19.5881271"><ele>7.0</ele><time>2026-05-03T09:45:41.718Z</time></trkpt><trkpt lat="40.7665291" lon="19.5882336"><ele>7.0</ele><time>2026-05-03T09:45:42.717Z</time></trkpt><trkpt lat="40.7667398" lon="19.5883399"><ele>7.0</ele><time>2026-05-03T09:45:43.718Z</time></trkpt><trkpt lat="40.7669529" lon="19.5884425"><ele>7.0</ele><time>2026-05-03T09:45:44.718Z</time></trkpt><trkpt lat="40.7671612" lon="19.5885466"><ele>7.0</ele><time>2026-05-03T09:45:45.717Z</time></trkpt><trkpt lat="40.7673684" lon="19.5886493"><ele>7.0</ele><time>2026-05-03T09:45:46.717Z</time></trkpt><trkpt lat="40.767574" lon="19.5887501"><ele>7.333333333333334</ele><time>2026-05-03T09:45:47.718Z</time></trkpt><trkpt lat="40.7677814" lon="19.588856"><ele>7.666666666666666</ele><time>2026-05-03T09:45:48.717Z</time></trkpt><trkpt lat="40.7679871" lon="19.5889608"><ele>8.0</ele><time>2026-05-03T09:45:49.717Z</time></trkpt><trkpt lat="40.768187" lon="19.5890651"><ele>8.0</ele><time>2026-05-03T09:45:50.718Z</time></trkpt><trkpt lat="40.7683862" lon="19.5891673"><ele>8.0</ele><time>2026-05-03T09:45:51.717Z</time></trkpt><trkpt lat="40.7685783" lon="19.5892602"><ele>8.0</ele><time>2026-05-03T09:45:52.718Z</time></trkpt><trkpt lat="40.7687798" lon="19.5893645"><ele>7.5</ele><time>2026-05-03T09:45:53.717Z</time></trkpt><trkpt lat="40.768984" lon="19.5894652"><ele>7.0</ele><time>2026-05-03T09:45:54.718Z</time></trkpt><trkpt lat="40.7692059" lon="19.5895642"><ele>7.0</ele><time>2026-05-03T09:45:55.718Z</time></trkpt><trkpt lat="40.7694135" lon="19.5896512"><ele>7.0</ele><time>2026-05-03T09:45:56.717Z</time></trkpt><trkpt lat="40.7696197" lon="19.5897394"><ele>7.0</ele><time>2026-05-03T09:45:57.718Z</time></trkpt><trkpt lat="40.7698213" lon="19.5898316"><ele>7.0</ele><time>2026-05-03T09:45:58.717Z</time></trkpt><trkpt lat="40.7700262" lon="19.5899155"><ele>7.0</ele><time>2026-05-03T09:45:59.718Z</time></trkpt><trkpt lat="40.7702296" lon="19.5900005"><ele>7.0</ele><time>2026-05-03T09:46:00.717Z</time></trkpt><trkpt lat="40.7704318" lon="19.590085"><ele>7.0</ele><time>2026-05-03T09:46:01.717Z</time></trkpt><trkpt lat="40.7706401" lon="19.5901749"><ele>7.0</ele><time>2026-05-03T09:46:02.717Z</time></trkpt><trkpt lat="40.7708515" lon="19.5902547"><ele>7.0</ele><time>2026-05-03T09:46:03.717Z</time></trkpt><trkpt lat="40.7710521" lon="19.5903399"><ele>6.666666666666667</ele><time>2026-05-03T09:46:04.718Z</time></trkpt><trkpt lat="40.7712537" lon="19.5904287"><ele>6.333333333333334</ele><time>2026-05-03T09:46:05.718Z</time></trkpt><trkpt lat="40.7714464" lon="19.5905121"><ele>6.0</ele><time>2026-05-03T09:46:06.718Z</time></trkpt><trkpt lat="40.7716431" lon="19.5905946"><ele>6.0</ele><time>2026-05-03T09:46:07.718Z</time></trkpt><trkpt lat="40.771846" lon="19.5906739"><ele>6.0</ele><time>2026-05-03T09:46:08.717Z</time></trkpt><trkpt lat="40.7720428" lon="19.5907552"><ele>6.0</ele><time>2026-05-03T09:46:09.718Z</time></trkpt><trkpt lat="40.7722355" lon="19.590841"><ele>6.333333333333334</ele><time>2026-05-03T09:46:10.718Z</time></trkpt><trkpt lat="40.7724322" lon="19.5909346"><ele>6.666666666666667</ele><time>2026-05-03T09:46:11.717Z</time></trkpt><trkpt lat="40.7726325" lon="19.591034"><ele>7.0</ele><time>2026-05-03T09:46:12.717Z</time></trkpt><trkpt lat="40.7728355" lon="19.5911452"><ele>7.0</ele><time>2026-05-03T09:46:13.718Z</time></trkpt><trkpt lat="40.7730526" lon="19.591262"><ele>7.0</ele><time>2026-05-03T09:46:14.717Z</time></trkpt><trkpt lat="40.7732769" lon="19.591383"><ele>7.0</ele><time>2026-05-03T09:46:15.718Z</time></trkpt><trkpt lat="40.7734997" lon="19.5915056"><ele>7.0</ele><time>2026-05-03T09:46:16.718Z</time></trkpt><trkpt lat="40.7737231" lon="19.5916405"><ele>7.0</ele><time>2026-05-03T09:46:17.718Z</time></trkpt><trkpt lat="40.7739559" lon="19.591759"><ele>7.0</ele><time>2026-05-03T09:46:18.718Z</time></trkpt><trkpt lat="40.7741812" lon="19.5919015"><ele>6.5</ele><time>2026-05-03T09:46:19.717Z</time></trkpt><trkpt lat="40.7744069" lon="19.5920349"><ele>6.0</ele><time>2026-05-03T09:46:20.717Z</time></trkpt><trkpt lat="40.7746272" lon="19.5921612"><ele>6.0</ele><time>2026-05-03T09:46:21.717Z</time></trkpt><trkpt lat="40.7748459" lon="19.5922829"><ele>6.0</ele><time>2026-05-03T09:46:22.717Z</time></trkpt><trkpt lat="40.7750752" lon="19.5924142"><ele>6.5</ele><time>2026-05-03T09:46:23.717Z</time></trkpt><trkpt lat="40.7753021" lon="19.5925318"><ele>7.0</ele><time>2026-05-03T09:46:24.717Z</time></trkpt><trkpt lat="40.775537" lon="19.5926589"><ele>7.0</ele><time>2026-05-03T09:46:25.718Z</time></trkpt><trkpt lat="40.7757699" lon="19.592785"><ele>7.0</ele><time>2026-05-03T09:46:26.718Z</time></trkpt><trkpt lat="40.7760006" lon="19.5929026"><ele>8.0</ele><time>2026-05-03T09:46:27.717Z</time></trkpt><trkpt lat="40.7762395" lon="19.5930363"><ele>9.0</ele><time>2026-05-03T09:46:28.717Z</time></trkpt><trkpt lat="40.7764717" lon="19.5931382"><ele>9.0</ele><time>2026-05-03T09:46:29.717Z</time></trkpt><trkpt lat="40.7767023" lon="19.59326"><ele>9.0</ele><time>2026-05-03T09:46:30.718Z</time></trkpt><trkpt lat="40.7769321" lon="19.5933896"><ele>9.0</ele><time>2026-05-03T09:46:31.718Z</time></trkpt><trkpt lat="40.7771595" lon="19.5935069"><ele>9.0</ele><time>2026-05-03T09:46:32.717Z</time></trkpt><trkpt lat="40.777386" lon="19.5936205"><ele>9.0</ele><time>2026-05-03T09:46:33.717Z</time></trkpt><trkpt lat="40.7776131" lon="19.5937218"><ele>9.0</ele><time>2026-05-03T09:46:34.718Z</time></trkpt><trkpt lat="40.777838" lon="19.5938409"><ele>9.0</ele><time>2026-05-03T09:46:35.718Z</time></trkpt><trkpt lat="40.7780681" lon="19.5939683"><ele>9.0</ele><time>2026-05-03T09:46:36.718Z</time></trkpt><trkpt lat="40.7782985" lon="19.5940941"><ele>9.0</ele><time>2026-05-03T09:46:37.718Z</time></trkpt><trkpt lat="40.7785246" lon="19.5942047"><ele>9.0</ele><time>2026-05-03T09:46:38.718Z</time></trkpt><trkpt lat="40.7787491" lon="19.5943118"><ele>9.0</ele><time>2026-05-03T09:46:39.717Z</time></trkpt><trkpt lat="40.7789699" lon="19.5944322"><ele>9.0</ele><time>2026-05-03T09:46:40.717Z</time></trkpt><trkpt lat="40.779183" lon="19.5945441"><ele>8.5</ele><time>2026-05-03T09:46:41.718Z</time></trkpt><trkpt lat="40.7793992" lon="19.5946848"><ele>8.0</ele><time>2026-05-03T09:46:42.718Z</time></trkpt><trkpt lat="40.7796191" lon="19.5947986"><ele>8.0</ele><time>2026-05-03T09:46:43.718Z</time></trkpt><trkpt lat="40.7798348" lon="19.5949079"><ele>8.0</ele><time>2026-05-03T09:46:44.718Z</time></trkpt><trkpt lat="40.7800473" lon="19.5950187"><ele>8.5</ele><time>2026-05-03T09:46:45.718Z</time></trkpt><trkpt lat="40.7802632" lon="19.5951344"><ele>9.0</ele><time>2026-05-03T09:46:46.717Z</time></trkpt><trkpt lat="40.7804863" lon="19.5952347"><ele>8.5</ele><time>2026-05-03T09:46:47.717Z</time></trkpt><trkpt lat="40.7807058" lon="19.5953449"><ele>8.0</ele><time>2026-05-03T09:46:48.717Z</time></trkpt><trkpt lat="40.7809201" lon="19.5954527"><ele>8.0</ele><time>2026-05-03T09:46:49.718Z</time></trkpt><trkpt lat="40.7811384" lon="19.5955642"><ele>8.0</ele><time>2026-05-03T09:46:50.717Z</time></trkpt><trkpt lat="40.7813621" lon="19.5956719"><ele>8.0</ele><time>2026-05-03T09:46:51.718Z</time></trkpt><trkpt lat="40.7815813" lon="19.5957812"><ele>8.0</ele><time>2026-05-03T09:46:52.718Z</time></trkpt><trkpt lat="40.7818031" lon="19.5958907"><ele>8.0</ele><time>2026-05-03T09:46:53.717Z</time></trkpt><trkpt lat="40.7820301" lon="19.5960024"><ele>8.0</ele><time>2026-05-03T09:46:54.717Z</time></trkpt><trkpt lat="40.782251" lon="19.5961104"><ele>8.0</ele><time>2026-05-03T09:46:55.717Z</time></trkpt><trkpt lat="40.7824732" lon="19.5962228"><ele>8.0</ele><time>2026-05-03T09:46:56.717Z</time></trkpt><trkpt lat="40.7826862" lon="19.5963374"><ele>8.0</ele><time>2026-05-03T09:46:57.718Z</time></trkpt><trkpt lat="40.7829048" lon="19.5964483"><ele>8.0</ele><time>2026-05-03T09:46:58.718Z</time></trkpt><trkpt lat="40.7831229" lon="19.59656"><ele>8.0</ele><time>2026-05-03T09:46:59.717Z</time></trkpt><trkpt lat="40.7833422" lon="19.5966701"><ele>8.0</ele><time>2026-05-03T09:47:00.718Z</time></trkpt><trkpt lat="40.7835577" lon="19.5967848"><ele>8.0</ele><time>2026-05-03T09:47:01.718Z</time></trkpt><trkpt lat="40.7837792" lon="19.5968964"><ele>8.0</ele><time>2026-05-03T09:47:02.718Z</time></trkpt><trkpt lat="40.7840002" lon="19.5970095"><ele>8.0</ele><time>2026-05-03T09:47:03.718Z</time></trkpt><trkpt lat="40.7842214" lon="19.5971202"><ele>8.0</ele><time>2026-05-03T09:47:04.717Z</time></trkpt><trkpt lat="40.7844438" lon="19.5972343"><ele>8.0</ele><time>2026-05-03T09:47:05.717Z</time></trkpt><trkpt lat="40.7846669" lon="19.5973489"><ele>8.0</ele><time>2026-05-03T09:47:06.718Z</time></trkpt><trkpt lat="40.7848884" lon="19.5974641"><ele>8.0</ele><time>2026-05-03T09:47:07.718Z</time></trkpt><trkpt lat="40.7851133" lon="19.5975787"><ele>8.0</ele><time>2026-05-03T09:47:08.717Z</time></trkpt><trkpt lat="40.7853343" lon="19.5976902"><ele>8.5</ele><time>2026-05-03T09:47:09.718Z</time></trkpt><trkpt lat="40.7855549" lon="19.5978015"><ele>9.0</ele><time>2026-05-03T09:47:10.717Z</time></trkpt><trkpt lat="40.7857749" lon="19.5979118"><ele>9.0</ele><time>2026-05-03T09:47:11.718Z</time></trkpt><trkpt lat="40.7859957" lon="19.5980218"><ele>9.0</ele><time>2026-05-03T09:47:12.718Z</time></trkpt><trkpt lat="40.7862148" lon="19.5981316"><ele>9.0</ele><time>2026-05-03T09:47:13.717Z</time></trkpt><trkpt lat="40.7864344" lon="19.5982446"><ele>9.0</ele><time>2026-05-03T09:47:14.717Z</time></trkpt><trkpt lat="40.7866517" lon="19.5983532"><ele>10.5</ele><time>2026-05-03T09:47:15.718Z</time></trkpt><trkpt lat="40.7868672" lon="19.5984611"><ele>12.0</ele><time>2026-05-03T09:47:16.718Z</time></trkpt><trkpt lat="40.7870796" lon="19.5985713"><ele>10.5</ele><time>2026-05-03T09:47:17.718Z</time></trkpt><trkpt lat="40.7872934" lon="19.5986782"><ele>9.0</ele><time>2026-05-03T09:47:18.718Z</time></trkpt><trkpt lat="40.7875045" lon="19.598784"><ele>9.333333333333334</ele><time>2026-05-03T09:47:19.718Z</time></trkpt><trkpt lat="40.7877137" lon="19.5988911"><ele>9.666666666666668</ele><time>2026-05-03T09:47:20.717Z</time></trkpt><trkpt lat="40.7879213" lon="19.5989979"><ele>10.0</ele><time>2026-05-03T09:47:21.718Z</time></trkpt><trkpt lat="40.7881274" lon="19.5991029"><ele>10.0</ele><time>2026-05-03T09:47:22.717Z</time></trkpt><trkpt lat="40.7883357" lon="19.5992062"><ele>10.0</ele><time>2026-05-03T09:47:23.718Z</time></trkpt><trkpt lat="40.7885418" lon="19.5993093"><ele>10.0</ele><time>2026-05-03T09:47:24.717Z</time></trkpt><trkpt lat="40.7887474" lon="19.5994138"><ele>10.0</ele><time>2026-05-03T09:47:25.718Z</time></trkpt><trkpt lat="40.7889522" lon="19.599518"><ele>10.0</ele><time>2026-05-03T09:47:26.717Z</time></trkpt><trkpt lat="40.7891564" lon="19.5996197"><ele>10.0</ele><time>2026-05-03T09:47:27.717Z</time></trkpt><trkpt lat="40.7893596" lon="19.5997238"><ele>10.0</ele><time>2026-05-03T09:47:28.718Z</time></trkpt><trkpt lat="40.7895634" lon="19.5998346"><ele>10.0</ele><time>2026-05-03T09:47:29.718Z</time></trkpt><trkpt lat="40.7897635" lon="19.599941"><ele>10.0</ele><time>2026-05-03T09:47:30.718Z</time></trkpt><trkpt lat="40.7899633" lon="19.6000545"><ele>10.0</ele><time>2026-05-03T09:47:31.717Z</time></trkpt><trkpt lat="40.7901607" lon="19.6001661"><ele>10.0</ele><time>2026-05-03T09:47:32.718Z</time></trkpt><trkpt lat="40.7903584" lon="19.6002833"><ele>10.0</ele><time>2026-05-03T09:47:33.717Z</time></trkpt><trkpt lat="40.7905556" lon="19.6004015"><ele>10.0</ele><time>2026-05-03T09:47:34.718Z</time></trkpt><trkpt lat="40.7907519" lon="19.6005137"><ele>10.0</ele><time>2026-05-03T09:47:35.717Z</time></trkpt><trkpt lat="40.7909433" lon="19.6006329"><ele>10.0</ele><time>2026-05-03T09:47:36.717Z</time></trkpt><trkpt lat="40.7911342" lon="19.6007546"><ele>10.666666666666668</ele><time>2026-05-03T09:47:37.718Z</time></trkpt><trkpt lat="40.7913275" lon="19.6008823"><ele>11.333333333333334</ele><time>2026-05-03T09:47:38.717Z</time></trkpt><trkpt lat="40.7915238" lon="19.6010146"><ele>12.0</ele><time>2026-05-03T09:47:39.717Z</time></trkpt><trkpt lat="40.7917186" lon="19.6011467"><ele>12.666666666666668</ele><time>2026-05-03T09:47:40.717Z</time></trkpt><trkpt lat="40.7919112" lon="19.6012774"><ele>13.333333333333334</ele><time>2026-05-03T09:47:41.717Z</time></trkpt><trkpt lat="40.7921018" lon="19.6014074"><ele>14.0</ele><time>2026-05-03T09:47:42.717Z</time></trkpt><trkpt lat="40.7922963" lon="19.6015359"><ele>14.0</ele><time>2026-05-03T09:47:43.718Z</time></trkpt><trkpt lat="40.7924876" lon="19.6016747"><ele>14.0</ele><time>2026-05-03T09:47:44.717Z</time></trkpt><trkpt lat="40.7926772" lon="19.6018133"><ele>14.0</ele><time>2026-05-03T09:47:45.717Z</time></trkpt><trkpt lat="40.7928658" lon="19.6019533"><ele>12.666666666666668</ele><time>2026-05-03T09:47:46.718Z</time></trkpt><trkpt lat="40.7930544" lon="19.6020963"><ele>11.333333333333334</ele><time>2026-05-03T09:47:47.718Z</time></trkpt><trkpt lat="40.7932391" lon="19.6022446"><ele>10.0</ele><time>2026-05-03T09:47:48.717Z</time></trkpt><trkpt lat="40.7934282" lon="19.6023989"><ele>9.666666666666668</ele><time>2026-05-03T09:47:49.717Z</time></trkpt><trkpt lat="40.7936162" lon="19.6025521"><ele>9.333333333333334</ele><time>2026-05-03T09:47:50.717Z</time></trkpt><trkpt lat="40.7938089" lon="19.6027092"><ele>9.0</ele><time>2026-05-03T09:47:51.718Z</time></trkpt><trkpt lat="40.7939976" lon="19.6028668"><ele>9.0</ele><time>2026-05-03T09:47:52.718Z</time></trkpt><trkpt lat="40.7941837" lon="19.6030259"><ele>9.0</ele><time>2026-05-03T09:47:53.718Z</time></trkpt><trkpt lat="40.7943677" lon="19.6031911"><ele>9.0</ele><time>2026-05-03T09:47:54.717Z</time></trkpt><trkpt lat="40.7945497" lon="19.6033536"><ele>9.0</ele><time>2026-05-03T09:47:55.718Z</time></trkpt><trkpt lat="40.79473" lon="19.6035194"><ele>9.0</ele><time>2026-05-03T09:47:56.717Z</time></trkpt><trkpt lat="40.7949094" lon="19.6036848"><ele>9.0</ele><time>2026-05-03T09:47:57.718Z</time></trkpt><trkpt lat="40.7950899" lon="19.6038542"><ele>9.333333333333334</ele><time>2026-05-03T09:47:58.718Z</time></trkpt><trkpt lat="40.7952659" lon="19.6040238"><ele>9.666666666666668</ele><time>2026-05-03T09:47:59.717Z</time></trkpt><trkpt lat="40.7954387" lon="19.6041866"><ele>10.0</ele><time>2026-05-03T09:48:00.717Z</time></trkpt><trkpt lat="40.7956118" lon="19.6043565"><ele>10.0</ele><time>2026-05-03T09:48:01.717Z</time></trkpt><trkpt lat="40.7957861" lon="19.6045251"><ele>10.0</ele><time>2026-05-03T09:48:02.718Z</time></trkpt><trkpt lat="40.7959598" lon="19.6046912"><ele>10.0</ele><time>2026-05-03T09:48:03.718Z</time></trkpt><trkpt lat="40.7961353" lon="19.604854"><ele>10.0</ele><time>2026-05-03T09:48:04.718Z</time></trkpt><trkpt lat="40.7963103" lon="19.6050227"><ele>10.0</ele><time>2026-05-03T09:48:05.717Z</time></trkpt><trkpt lat="40.7964867" lon="19.6051821"><ele>10.0</ele><time>2026-05-03T09:48:06.718Z</time></trkpt><trkpt lat="40.7966588" lon="19.6053503"><ele>9.666666666666668</ele><time>2026-05-03T09:48:07.717Z</time></trkpt><trkpt lat="40.7968242" lon="19.6055112"><ele>9.333333333333334</ele><time>2026-05-03T09:48:08.718Z</time></trkpt><trkpt lat="40.7969941" lon="19.6056761"><ele>9.0</ele><time>2026-05-03T09:48:09.717Z</time></trkpt><trkpt lat="40.797166" lon="19.6058456"><ele>9.0</ele><time>2026-05-03T09:48:10.717Z</time></trkpt><trkpt lat="40.7973324" lon="19.6060028"><ele>9.0</ele><time>2026-05-03T09:48:11.718Z</time></trkpt><trkpt lat="40.7974941" lon="19.6061616"><ele>9.0</ele><time>2026-05-03T09:48:12.718Z</time></trkpt><trkpt lat="40.7976457" lon="19.6062989"><ele>9.0</ele><time>2026-05-03T09:48:13.718Z</time></trkpt><trkpt lat="40.7978005" lon="19.6064316"><ele>9.0</ele><time>2026-05-03T09:48:14.718Z</time></trkpt><trkpt lat="40.797957" lon="19.6065768"><ele>9.0</ele><time>2026-05-03T09:48:15.717Z</time></trkpt><trkpt lat="40.7981125" lon="19.606717"><ele>9.0</ele><time>2026-05-03T09:48:16.717Z</time></trkpt><trkpt lat="40.7982592" lon="19.6068612"><ele>9.0</ele><time>2026-05-03T09:48:17.718Z</time></trkpt><trkpt lat="40.7983855" lon="19.6069871"><ele>9.0</ele><time>2026-05-03T09:48:18.718Z</time></trkpt><trkpt lat="40.7984982" lon="19.6070753"><ele>9.0</ele><time>2026-05-03T09:48:19.718Z</time></trkpt><trkpt lat="40.7985901" lon="19.6071631"><ele>9.0</ele><time>2026-05-03T09:48:20.718Z</time></trkpt><trkpt lat="40.7986802" lon="19.607258"><ele>9.0</ele><time>2026-05-03T09:48:21.718Z</time></trkpt><trkpt lat="40.7987802" lon="19.607349"><ele>9.0</ele><time>2026-05-03T09:48:22.718Z</time></trkpt><trkpt lat="40.7989093" lon="19.6074532"><ele>9.0</ele><time>2026-05-03T09:48:23.717Z</time></trkpt><trkpt lat="40.7990688" lon="19.6075602"><ele>9.0</ele><time>2026-05-03T09:48:24.718Z</time></trkpt><trkpt lat="40.7992321" lon="19.6076988"><ele>9.0</ele><time>2026-05-03T09:48:25.718Z</time></trkpt><trkpt lat="40.7993998" lon="19.6078452"><ele>8.0</ele><time>2026-05-03T09:48:26.718Z</time></trkpt><trkpt lat="40.7995789" lon="19.6080031"><ele>7.0</ele><time>2026-05-03T09:48:27.718Z</time></trkpt><trkpt lat="40.7997822" lon="19.6081685"><ele>7.0</ele><time>2026-05-03T09:48:28.717Z</time></trkpt><trkpt lat="40.7999815" lon="19.6083238"><ele>7.0</ele><time>2026-05-03T09:48:29.718Z</time></trkpt><trkpt lat="40.8001926" lon="19.6084839"><ele>7.0</ele><time>2026-05-03T09:48:30.718Z</time></trkpt><trkpt lat="40.8004154" lon="19.6086408"><ele>7.0</ele><time>2026-05-03T09:48:31.717Z</time></trkpt><trkpt lat="40.8006257" lon="19.608792"><ele>7.5</ele><time>2026-05-03T09:48:32.718Z</time></trkpt><trkpt lat="40.8008381" lon="19.6089256"><ele>8.0</ele><time>2026-05-03T09:48:33.717Z</time></trkpt><trkpt lat="40.8010438" lon="19.6090615"><ele>8.0</ele><time>2026-05-03T09:48:34.717Z</time></trkpt><trkpt lat="40.8012552" lon="19.6091879"><ele>8.0</ele><time>2026-05-03T09:48:35.718Z</time></trkpt><trkpt lat="40.8014586" lon="19.6093112"><ele>8.0</ele><time>2026-05-03T09:48:36.718Z</time></trkpt><trkpt lat="40.8016664" lon="19.6094321"><ele>8.0</ele><time>2026-05-03T09:48:37.718Z</time></trkpt><trkpt lat="40.8018805" lon="19.6095507"><ele>7.0</ele><time>2026-05-03T09:48:38.717Z</time></trkpt><trkpt lat="40.8020915" lon="19.6096707"><ele>6.0</ele><time>2026-05-03T09:48:39.718Z</time></trkpt><trkpt lat="40.8022998" lon="19.6097744"><ele>6.0</ele><time>2026-05-03T09:48:40.718Z</time></trkpt><trkpt lat="40.8025169" lon="19.6098843"><ele>6.0</ele><time>2026-05-03T09:48:41.718Z</time></trkpt><trkpt lat="40.8027351" lon="19.6099857"><ele>6.5</ele><time>2026-05-03T09:48:42.718Z</time></trkpt><trkpt lat="40.8029494" lon="19.6100865"><ele>7.0</ele><time>2026-05-03T09:48:43.717Z</time></trkpt><trkpt lat="40.8031609" lon="19.610179"><ele>7.0</ele><time>2026-05-03T09:48:44.717Z</time></trkpt><trkpt lat="40.8033719" lon="19.6102641"><ele>7.0</ele><time>2026-05-03T09:48:45.718Z</time></trkpt><trkpt lat="40.8035829" lon="19.6103423"><ele>7.0</ele><time>2026-05-03T09:48:46.717Z</time></trkpt><trkpt lat="40.8037919" lon="19.610416"><ele>6.666666666666667</ele><time>2026-05-03T09:48:47.718Z</time></trkpt><trkpt lat="40.8040036" lon="19.6104897"><ele>6.333333333333334</ele><time>2026-05-03T09:48:48.718Z</time></trkpt><trkpt lat="40.8042137" lon="19.6105591"><ele>6.0</ele><time>2026-05-03T09:48:49.717Z</time></trkpt><trkpt lat="40.8044212" lon="19.6106236"><ele>6.0</ele><time>2026-05-03T09:48:50.717Z</time></trkpt><trkpt lat="40.8046303" lon="19.6106877"><ele>6.0</ele><time>2026-05-03T09:48:51.717Z</time></trkpt><trkpt lat="40.8048431" lon="19.6107475"><ele>6.0</ele><time>2026-05-03T09:48:52.718Z</time></trkpt><trkpt lat="40.8050555" lon="19.6108029"><ele>6.333333333333334</ele><time>2026-05-03T09:48:53.718Z</time></trkpt><trkpt lat="40.8052612" lon="19.6108574"><ele>6.666666666666667</ele><time>2026-05-03T09:48:54.718Z</time></trkpt><trkpt lat="40.8054715" lon="19.6109227"><ele>7.0</ele><time>2026-05-03T09:48:55.718Z</time></trkpt><trkpt lat="40.8056815" lon="19.6109775"><ele>7.0</ele><time>2026-05-03T09:48:56.718Z</time></trkpt><trkpt lat="40.8058978" lon="19.6110352"><ele>7.0</ele><time>2026-05-03T09:48:57.717Z</time></trkpt><trkpt lat="40.8061122" lon="19.6110922"><ele>7.0</ele><time>2026-05-03T09:48:58.717Z</time></trkpt><trkpt lat="40.8063136" lon="19.6111322"><ele>7.333333333333334</ele><time>2026-05-03T09:48:59.717Z</time></trkpt><trkpt lat="40.8065202" lon="19.6111882"><ele>7.666666666666666</ele><time>2026-05-03T09:49:00.718Z</time></trkpt><trkpt lat="40.8067307" lon="19.6112401"><ele>8.0</ele><time>2026-05-03T09:49:01.717Z</time></trkpt><trkpt lat="40.8069303" lon="19.6112858"><ele>8.0</ele><time>2026-05-03T09:49:02.718Z</time></trkpt><trkpt lat="40.8071335" lon="19.611339"><ele>8.0</ele><time>2026-05-03T09:49:03.718Z</time></trkpt><trkpt lat="40.8073352" lon="19.6113868"><ele>8.0</ele><time>2026-05-03T09:49:04.718Z</time></trkpt><trkpt lat="40.8075377" lon="19.6114477"><ele>7.666666666666666</ele><time>2026-05-03T09:49:05.717Z</time></trkpt><trkpt lat="40.8077347" lon="19.6115056"><ele>7.333333333333334</ele><time>2026-05-03T09:49:06.717Z</time></trkpt><trkpt lat="40.8079329" lon="19.6115496"><ele>7.0</ele><time>2026-05-03T09:49:07.718Z</time></trkpt><trkpt lat="40.8081312" lon="19.6116018"><ele>7.0</ele><time>2026-05-03T09:49:08.717Z</time></trkpt><trkpt lat="40.8083456" lon="19.6116602"><ele>7.0</ele><time>2026-05-03T09:49:09.718Z</time></trkpt><trkpt lat="40.808541" lon="19.6116964"><ele>7.0</ele><time>2026-05-03T09:49:10.717Z</time></trkpt><trkpt lat="40.8087484" lon="19.6117494"><ele>7.333333333333334</ele><time>2026-05-03T09:49:11.718Z</time></trkpt><trkpt lat="40.8089514" lon="19.6118043"><ele>7.666666666666666</ele><time>2026-05-03T09:49:12.717Z</time></trkpt><trkpt lat="40.8091491" lon="19.6118532"><ele>8.0</ele><time>2026-05-03T09:49:13.718Z</time></trkpt><trkpt lat="40.8093446" lon="19.6119229"><ele>7.666666666666666</ele><time>2026-05-03T09:49:14.718Z</time></trkpt><trkpt lat="40.8095413" lon="19.6119955"><ele>7.333333333333334</ele><time>2026-05-03T09:49:15.718Z</time></trkpt><trkpt lat="40.8097381" lon="19.6120363"><ele>7.0</ele><time>2026-05-03T09:49:16.717Z</time></trkpt><trkpt lat="40.8099356" lon="19.6120771"><ele>7.0</ele><time>2026-05-03T09:49:17.718Z</time></trkpt><trkpt lat="40.8101311" lon="19.6121237"><ele>7.0</ele><time>2026-05-03T09:49:18.718Z</time></trkpt><trkpt lat="40.8103294" lon="19.6121655"><ele>7.0</ele><time>2026-05-03T09:49:19.717Z</time></trkpt><trkpt lat="40.8105258" lon="19.6122161"><ele>7.0</ele><time>2026-05-03T09:49:20.717Z</time></trkpt><trkpt lat="40.8107254" lon="19.6122644"><ele>7.0</ele><time>2026-05-03T09:49:21.717Z</time></trkpt><trkpt lat="40.810919" lon="19.6123156"><ele>7.0</ele><time>2026-05-03T09:49:22.718Z</time></trkpt><trkpt lat="40.8111115" lon="19.6123663"><ele>7.666666666666667</ele><time>2026-05-03T09:49:23.717Z</time></trkpt><trkpt lat="40.8113056" lon="19.6124157"><ele>8.333333333333334</ele><time>2026-05-03T09:49:24.717Z</time></trkpt><trkpt lat="40.8114926" lon="19.6124573"><ele>9.0</ele><time>2026-05-03T09:49:25.717Z</time></trkpt><trkpt lat="40.8116778" lon="19.6125028"><ele>8.666666666666666</ele><time>2026-05-03T09:49:26.718Z</time></trkpt><trkpt lat="40.8118664" lon="19.612549"><ele>8.333333333333332</ele><time>2026-05-03T09:49:27.717Z</time></trkpt><trkpt lat="40.8120539" lon="19.612598"><ele>8.0</ele><time>2026-05-03T09:49:28.718Z</time></trkpt><trkpt lat="40.8122325" lon="19.6126493"><ele>8.0</ele><time>2026-05-03T09:49:29.717Z</time></trkpt><trkpt lat="40.812414" lon="19.6126993"><ele>8.0</ele><time>2026-05-03T09:49:30.717Z</time></trkpt><trkpt lat="40.8125943" lon="19.6127448"><ele>8.0</ele><time>2026-05-03T09:49:31.717Z</time></trkpt><trkpt lat="40.8127715" lon="19.6127956"><ele>7.666666666666666</ele><time>2026-05-03T09:49:32.717Z</time></trkpt><trkpt lat="40.8129493" lon="19.6128442"><ele>7.333333333333334</ele><time>2026-05-03T09:49:33.718Z</time></trkpt><trkpt lat="40.8131338" lon="19.612891"><ele>7.0</ele><time>2026-05-03T09:49:34.717Z</time></trkpt><trkpt lat="40.8133183" lon="19.6129397"><ele>6.666666666666667</ele><time>2026-05-03T09:49:35.717Z</time></trkpt><trkpt lat="40.8135062" lon="19.6129774"><ele>6.333333333333334</ele><time>2026-05-03T09:49:36.718Z</time></trkpt><trkpt lat="40.8136888" lon="19.613021"><ele>6.0</ele><time>2026-05-03T09:49:37.717Z</time></trkpt><trkpt lat="40.8138799" lon="19.6130706"><ele>6.0</ele><time>2026-05-03T09:49:38.717Z</time></trkpt><trkpt lat="40.814074" lon="19.6131259"><ele>6.0</ele><time>2026-05-03T09:49:39.717Z</time></trkpt><trkpt lat="40.8142783" lon="19.6131614"><ele>6.0</ele><time>2026-05-03T09:49:40.717Z</time></trkpt><trkpt lat="40.814473" lon="19.6132074"><ele>6.333333333333334</ele><time>2026-05-03T09:49:41.718Z</time></trkpt><trkpt lat="40.8146659" lon="19.6132543"><ele>6.666666666666667</ele><time>2026-05-03T09:49:42.717Z</time></trkpt><trkpt lat="40.8148679" lon="19.6133134"><ele>7.0</ele><time>2026-05-03T09:49:43.718Z</time></trkpt><trkpt lat="40.8150681" lon="19.6133568"><ele>7.0</ele><time>2026-05-03T09:49:44.717Z</time></trkpt><trkpt lat="40.8152681" lon="19.6133929"><ele>7.0</ele><time>2026-05-03T09:49:45.717Z</time></trkpt><trkpt lat="40.8154703" lon="19.61345"><ele>7.0</ele><time>2026-05-03T09:49:46.718Z</time></trkpt><trkpt lat="40.8156658" lon="19.6135064"><ele>7.0</ele><time>2026-05-03T09:49:47.718Z</time></trkpt><trkpt lat="40.8158657" lon="19.613559"><ele>7.0</ele><time>2026-05-03T09:49:48.717Z</time></trkpt><trkpt lat="40.8160716" lon="19.6136066"><ele>7.0</ele><time>2026-05-03T09:49:49.718Z</time></trkpt><trkpt lat="40.816269" lon="19.613655"><ele>7.0</ele><time>2026-05-03T09:49:50.718Z</time></trkpt><trkpt lat="40.816469" lon="19.6137138"><ele>7.0</ele><time>2026-05-03T09:49:51.717Z</time></trkpt><trkpt lat="40.8166596" lon="19.613752"><ele>7.0</ele><time>2026-05-03T09:49:52.718Z</time></trkpt><trkpt lat="40.8168644" lon="19.6138245"><ele>7.0</ele><time>2026-05-03T09:49:53.718Z</time></trkpt><trkpt lat="40.8170799" lon="19.6138949"><ele>7.0</ele><time>2026-05-03T09:49:54.718Z</time></trkpt><trkpt lat="40.8173052" lon="19.6139703"><ele>7.0</ele><time>2026-05-03T09:49:55.718Z</time></trkpt><trkpt lat="40.817529" lon="19.6140448"><ele>7.0</ele><time>2026-05-03T09:49:56.718Z</time></trkpt><trkpt lat="40.8177667" lon="19.6141311"><ele>6.5</ele><time>2026-05-03T09:49:57.718Z</time></trkpt><trkpt lat="40.8179936" lon="19.6142226"><ele>6.0</ele><time>2026-05-03T09:49:58.717Z</time></trkpt><trkpt lat="40.8182162" lon="19.614328"><ele>6.0</ele><time>2026-05-03T09:49:59.717Z</time></trkpt><trkpt lat="40.8184387" lon="19.6144318"><ele>6.0</ele><time>2026-05-03T09:50:00.718Z</time></trkpt><trkpt lat="40.8186564" lon="19.6145408"><ele>5.5</ele><time>2026-05-03T09:50:01.718Z</time></trkpt><trkpt lat="40.8188671" lon="19.6146603"><ele>5.0</ele><time>2026-05-03T09:50:02.717Z</time></trkpt><trkpt lat="40.8190783" lon="19.6147848"><ele>5.0</ele><time>2026-05-03T09:50:03.718Z</time></trkpt><trkpt lat="40.8192768" lon="19.614905"><ele>5.0</ele><time>2026-05-03T09:50:04.718Z</time></trkpt><trkpt lat="40.8194806" lon="19.6150284"><ele>5.0</ele><time>2026-05-03T09:50:05.717Z</time></trkpt><trkpt lat="40.8196845" lon="19.6151585"><ele>6.0</ele><time>2026-05-03T09:50:06.718Z</time></trkpt><trkpt lat="40.8198885" lon="19.6152897"><ele>7.0</ele><time>2026-05-03T09:50:07.718Z</time></trkpt><trkpt lat="40.8200826" lon="19.6154421"><ele>7.0</ele><time>2026-05-03T09:50:08.718Z</time></trkpt><trkpt lat="40.8202841" lon="19.6156006"><ele>7.0</ele><time>2026-05-03T09:50:09.717Z</time></trkpt><trkpt lat="40.8204819" lon="19.6157386"><ele>7.0</ele><time>2026-05-03T09:50:10.718Z</time></trkpt><trkpt lat="40.8206733" lon="19.6158824"><ele>7.0</ele><time>2026-05-03T09:50:11.717Z</time></trkpt><trkpt lat="40.8208672" lon="19.6160204"><ele>7.0</ele><time>2026-05-03T09:50:12.717Z</time></trkpt><trkpt lat="40.8210618" lon="19.6161712"><ele>7.0</ele><time>2026-05-03T09:50:13.718Z</time></trkpt><trkpt lat="40.8212537" lon="19.6163236"><ele>7.0</ele><time>2026-05-03T09:50:14.717Z</time></trkpt><trkpt lat="40.8214459" lon="19.6164734"><ele>7.0</ele><time>2026-05-03T09:50:15.718Z</time></trkpt><trkpt lat="40.8216404" lon="19.6166298"><ele>7.0</ele><time>2026-05-03T09:50:16.717Z</time></trkpt><trkpt lat="40.8218359" lon="19.6167766"><ele>7.0</ele><time>2026-05-03T09:50:17.717Z</time></trkpt><trkpt lat="40.8220281" lon="19.6169394"><ele>6.333333333333334</ele><time>2026-05-03T09:50:18.717Z</time></trkpt><trkpt lat="40.8222197" lon="19.6170972"><ele>5.666666666666667</ele><time>2026-05-03T09:50:19.718Z</time></trkpt><trkpt lat="40.8224125" lon="19.6172415"><ele>5.0</ele><time>2026-05-03T09:50:20.717Z</time></trkpt><trkpt lat="40.8226113" lon="19.6173956"><ele>6.0</ele><time>2026-05-03T09:50:21.718Z</time></trkpt><trkpt lat="40.8228069" lon="19.6175614"><ele>7.0</ele><time>2026-05-03T09:50:22.717Z</time></trkpt><trkpt lat="40.8229991" lon="19.6177162"><ele>7.0</ele><time>2026-05-03T09:50:23.718Z</time></trkpt><trkpt lat="40.8231961" lon="19.6178778"><ele>7.0</ele><time>2026-05-03T09:50:24.718Z</time></trkpt><trkpt lat="40.8233886" lon="19.6180399"><ele>7.0</ele><time>2026-05-03T09:50:25.718Z</time></trkpt><trkpt lat="40.8235895" lon="19.6182049"><ele>7.0</ele><time>2026-05-03T09:50:26.718Z</time></trkpt><trkpt lat="40.8237839" lon="19.6183595"><ele>7.0</ele><time>2026-05-03T09:50:27.717Z</time></trkpt><trkpt lat="40.8239807" lon="19.6185174"><ele>7.0</ele><time>2026-05-03T09:50:28.718Z</time></trkpt><trkpt lat="40.8241755" lon="19.6186772"><ele>6.5</ele><time>2026-05-03T09:50:29.718Z</time></trkpt><trkpt lat="40.8243671" lon="19.6188323"><ele>6.0</ele><time>2026-05-03T09:50:30.718Z</time></trkpt><trkpt lat="40.8245601" lon="19.6189854"><ele>6.0</ele><time>2026-05-03T09:50:31.717Z</time></trkpt><trkpt lat="40.8247611" lon="19.6191436"><ele>6.0</ele><time>2026-05-03T09:50:32.718Z</time></trkpt><trkpt lat="40.8249565" lon="19.6193042"><ele>6.5</ele><time>2026-05-03T09:50:33.717Z</time></trkpt><trkpt lat="40.8251583" lon="19.6194615"><ele>7.0</ele><time>2026-05-03T09:50:34.717Z</time></trkpt><trkpt lat="40.8253543" lon="19.6196224"><ele>7.0</ele><time>2026-05-03T09:50:35.717Z</time></trkpt><trkpt lat="40.8255464" lon="19.6197741"><ele>7.0</ele><time>2026-05-03T09:50:36.718Z</time></trkpt><trkpt lat="40.8257395" lon="19.6199415"><ele>7.0</ele><time>2026-05-03T09:50:37.717Z</time></trkpt><trkpt lat="40.8259377" lon="19.6201067"><ele>7.0</ele><time>2026-05-03T09:50:38.718Z</time></trkpt><trkpt lat="40.8261282" lon="19.6202651"><ele>6.666666666666667</ele><time>2026-05-03T09:50:39.718Z</time></trkpt><trkpt lat="40.8263165" lon="19.620415"><ele>6.333333333333334</ele><time>2026-05-03T09:50:40.718Z</time></trkpt><trkpt lat="40.8265041" lon="19.6205736"><ele>6.0</ele><time>2026-05-03T09:50:41.718Z</time></trkpt><trkpt lat="40.8266901" lon="19.6207167"><ele>5.666666666666667</ele><time>2026-05-03T09:50:42.717Z</time></trkpt><trkpt lat="40.8268697" lon="19.6208752"><ele>5.333333333333334</ele><time>2026-05-03T09:50:43.717Z</time></trkpt><trkpt lat="40.827049" lon="19.6210204"><ele>5.0</ele><time>2026-05-03T09:50:44.717Z</time></trkpt><trkpt lat="40.8272253" lon="19.6211652"><ele>5.333333333333334</ele><time>2026-05-03T09:50:45.717Z</time></trkpt><trkpt lat="40.8273979" lon="19.6213051"><ele>5.666666666666667</ele><time>2026-05-03T09:50:46.718Z</time></trkpt><trkpt lat="40.8275678" lon="19.6214507"><ele>6.0</ele><time>2026-05-03T09:50:47.718Z</time></trkpt><trkpt lat="40.8277382" lon="19.6215872"><ele>6.0</ele><time>2026-05-03T09:50:48.718Z</time></trkpt><trkpt lat="40.8279089" lon="19.6217332"><ele>6.0</ele><time>2026-05-03T09:50:49.717Z</time></trkpt><trkpt lat="40.8280765" lon="19.6218704"><ele>6.0</ele><time>2026-05-03T09:50:50.717Z</time></trkpt><trkpt lat="40.8282484" lon="19.6220163"><ele>6.333333333333334</ele><time>2026-05-03T09:50:51.717Z</time></trkpt><trkpt lat="40.8284179" lon="19.6221358"><ele>6.666666666666667</ele><time>2026-05-03T09:50:52.717Z</time></trkpt><trkpt lat="40.828589" lon="19.6222711"><ele>7.0</ele><time>2026-05-03T09:50:53.718Z</time></trkpt><trkpt lat="40.8287582" lon="19.6224032"><ele>7.0</ele><time>2026-05-03T09:50:54.718Z</time></trkpt><trkpt lat="40.8289233" lon="19.6225367"><ele>7.0</ele><time>2026-05-03T09:50:55.717Z</time></trkpt><trkpt lat="40.8290758" lon="19.6226664"><ele>7.0</ele><time>2026-05-03T09:50:56.717Z</time></trkpt><trkpt lat="40.8292243" lon="19.6227954"><ele>6.75</ele><time>2026-05-03T09:50:57.718Z</time></trkpt><trkpt lat="40.8293669" lon="19.6229082"><ele>6.5</ele><time>2026-05-03T09:50:58.718Z</time></trkpt><trkpt lat="40.8294958" lon="19.6230098"><ele>6.25</ele><time>2026-05-03T09:50:59.718Z</time></trkpt><trkpt lat="40.8296072" lon="19.6230965"><ele>6.0</ele><time>2026-05-03T09:51:00.717Z</time></trkpt><trkpt lat="40.8297099" lon="19.6231618"><ele>6.0</ele><time>2026-05-03T09:51:01.717Z</time></trkpt><trkpt lat="40.8298077" lon="19.6232056"><ele>6.0</ele><time>2026-05-03T09:51:02.718Z</time></trkpt><trkpt lat="40.8299068" lon="19.6232076"><ele>6.0</ele><time>2026-05-03T09:51:03.718Z</time></trkpt><trkpt lat="40.8299926" lon="19.6232015"><ele>6.0</ele><time>2026-05-03T09:51:04.717Z</time></trkpt><trkpt lat="40.8300715" lon="19.6231937"><ele>6.0</ele><time>2026-05-03T09:51:06.718Z</time></trkpt><trkpt lat="40.8301538" lon="19.6231667"><ele>6.0</ele><time>2026-05-03T09:51:11.718Z</time></trkpt><trkpt lat="40.8302341" lon="19.6231359"><ele>6.0</ele><time>2026-05-03T09:51:14.718Z</time></trkpt><trkpt lat="40.8302946" lon="19.6231095"><ele>6.0</ele><time>2026-05-03T09:51:16.717Z</time></trkpt><trkpt lat="40.8303548" lon="19.6230835"><ele>6.0</ele><time>2026-05-03T09:51:18.717Z</time></trkpt><trkpt lat="40.8304478" lon="19.6230703"><ele>6.0</ele><time>2026-05-03T09:51:20.718Z</time></trkpt><trkpt lat="40.8305585" lon="19.6231267"><ele>6.0</ele><time>2026-05-03T09:51:22.717Z</time></trkpt><trkpt lat="40.8306457" lon="19.6232541"><ele>6.0</ele><time>2026-05-03T09:51:24.717Z</time></trkpt><trkpt lat="40.8306834" lon="19.6233422"><ele>6.0</ele><time>2026-05-03T09:51:25.718Z</time></trkpt><trkpt lat="40.8307101" lon="19.6234424"><ele>6.0</ele><time>2026-05-03T09:51:26.717Z</time></trkpt><trkpt lat="40.8307414" lon="19.6235483"><ele>6.0</ele><time>2026-05-03T09:51:27.718Z</time></trkpt><trkpt lat="40.8307918" lon="19.6236599"><ele>6.0</ele><time>2026-05-03T09:51:28.718Z</time></trkpt><trkpt lat="40.8308431" lon="19.6237778"><ele>6.0</ele><time>2026-05-03T09:51:29.718Z</time></trkpt><trkpt lat="40.8308876" lon="19.6239041"><ele>5.75</ele><time>2026-05-03T09:51:30.718Z</time></trkpt><trkpt lat="40.8309526" lon="19.6240346"><ele>5.5</ele><time>2026-05-03T09:51:31.717Z</time></trkpt><trkpt lat="40.8310269" lon="19.624171"><ele>5.25</ele><time>2026-05-03T09:51:32.718Z</time></trkpt><trkpt lat="40.8311167" lon="19.6242933"><ele>5.0</ele><time>2026-05-03T09:51:33.718Z</time></trkpt><trkpt lat="40.8312206" lon="19.6244124"><ele>5.25</ele><time>2026-05-03T09:51:34.717Z</time></trkpt><trkpt lat="40.8313288" lon="19.6245091"><ele>5.5</ele><time>2026-05-03T09:51:35.718Z</time></trkpt><trkpt lat="40.8314348" lon="19.6246085"><ele>5.75</ele><time>2026-05-03T09:51:36.718Z</time></trkpt><trkpt lat="40.83155" lon="19.6247051"><ele>6.0</ele><time>2026-05-03T09:51:37.718Z</time></trkpt><trkpt lat="40.8316725" lon="19.6247855"><ele>6.0</ele><time>2026-05-03T09:51:38.718Z</time></trkpt><trkpt lat="40.8317952" lon="19.6248846"><ele>6.0</ele><time>2026-05-03T09:51:39.717Z</time></trkpt><trkpt lat="40.831924" lon="19.6249914"><ele>6.0</ele><time>2026-05-03T09:51:40.718Z</time></trkpt><trkpt lat="40.8320594" lon="19.6251042"><ele>5.666666666666667</ele><time>2026-05-03T09:51:41.718Z</time></trkpt><trkpt lat="40.8322069" lon="19.6252201"><ele>5.333333333333334</ele><time>2026-05-03T09:51:42.718Z</time></trkpt><trkpt lat="40.8323525" lon="19.6253493"><ele>5.0</ele><time>2026-05-03T09:51:43.718Z</time></trkpt><trkpt lat="40.8325039" lon="19.6254825"><ele>5.0</ele><time>2026-05-03T09:51:44.718Z</time></trkpt><trkpt lat="40.8326618" lon="19.6256152"><ele>5.0</ele><time>2026-05-03T09:51:45.718Z</time></trkpt><trkpt lat="40.8328188" lon="19.6257326"><ele>5.0</ele><time>2026-05-03T09:51:46.717Z</time></trkpt><trkpt lat="40.8329649" lon="19.6258647"><ele>5.0</ele><time>2026-05-03T09:51:47.717Z</time></trkpt><trkpt lat="40.8331193" lon="19.6259934"><ele>5.0</ele><time>2026-05-03T09:51:48.717Z</time></trkpt><trkpt lat="40.8332828" lon="19.6261198"><ele>5.0</ele><time>2026-05-03T09:51:49.718Z</time></trkpt><trkpt lat="40.8334492" lon="19.6262568"><ele>5.666666666666667</ele><time>2026-05-03T09:51:50.718Z</time></trkpt><trkpt lat="40.8336257" lon="19.6264032"><ele>6.333333333333334</ele><time>2026-05-03T09:51:51.717Z</time></trkpt><trkpt lat="40.833819" lon="19.6265409"><ele>7.0</ele><time>2026-05-03T09:51:52.718Z</time></trkpt><trkpt lat="40.8340201" lon="19.6267049"><ele>7.0</ele><time>2026-05-03T09:51:53.718Z</time></trkpt><trkpt lat="40.8342244" lon="19.6268731"><ele>7.0</ele><time>2026-05-03T09:51:54.717Z</time></trkpt><trkpt lat="40.8344337" lon="19.6270422"><ele>6.5</ele><time>2026-05-03T09:51:55.717Z</time></trkpt><trkpt lat="40.8346456" lon="19.6272204"><ele>6.0</ele><time>2026-05-03T09:51:56.717Z</time></trkpt><trkpt lat="40.8348556" lon="19.6274026"><ele>6.0</ele><time>2026-05-03T09:51:57.718Z</time></trkpt><trkpt lat="40.835064" lon="19.6275917"><ele>6.0</ele><time>2026-05-03T09:51:58.718Z</time></trkpt><trkpt lat="40.8352654" lon="19.6277529"><ele>6.0</ele><time>2026-05-03T09:51:59.718Z</time></trkpt><trkpt lat="40.8354652" lon="19.6279329"><ele>6.0</ele><time>2026-05-03T09:52:00.718Z</time></trkpt><trkpt lat="40.8356664" lon="19.6281187"><ele>6.0</ele><time>2026-05-03T09:52:01.717Z</time></trkpt><trkpt lat="40.8358728" lon="19.6282935"><ele>6.0</ele><time>2026-05-03T09:52:02.718Z</time></trkpt><trkpt lat="40.836073" lon="19.6284549"><ele>7.0</ele><time>2026-05-03T09:52:03.717Z</time></trkpt><trkpt lat="40.8362769" lon="19.6286327"><ele>8.0</ele><time>2026-05-03T09:52:04.718Z</time></trkpt><trkpt lat="40.836473" lon="19.6287984"><ele>8.0</ele><time>2026-05-03T09:52:05.717Z</time></trkpt><trkpt lat="40.8366735" lon="19.6289725"><ele>8.0</ele><time>2026-05-03T09:52:06.717Z</time></trkpt><trkpt lat="40.8368702" lon="19.6291376"><ele>7.5</ele><time>2026-05-03T09:52:07.717Z</time></trkpt><trkpt lat="40.8370654" lon="19.6292933"><ele>7.0</ele><time>2026-05-03T09:52:08.718Z</time></trkpt><trkpt lat="40.8372594" lon="19.6294561"><ele>7.0</ele><time>2026-05-03T09:52:09.717Z</time></trkpt><trkpt lat="40.837446" lon="19.6296128"><ele>7.0</ele><time>2026-05-03T09:52:10.718Z</time></trkpt><trkpt lat="40.8376301" lon="19.629777"><ele>7.0</ele><time>2026-05-03T09:52:11.718Z</time></trkpt><trkpt lat="40.8378097" lon="19.6299255"><ele>7.0</ele><time>2026-05-03T09:52:12.718Z</time></trkpt><trkpt lat="40.8379924" lon="19.6300822"><ele>7.0</ele><time>2026-05-03T09:52:13.718Z</time></trkpt><trkpt lat="40.838176" lon="19.6302263"><ele>7.0</ele><time>2026-05-03T09:52:14.717Z</time></trkpt><trkpt lat="40.8383525" lon="19.6303761"><ele>7.0</ele><time>2026-05-03T09:52:15.717Z</time></trkpt><trkpt lat="40.8385385" lon="19.6305289"><ele>7.0</ele><time>2026-05-03T09:52:16.718Z</time></trkpt><trkpt lat="40.8387149" lon="19.6306741"><ele>7.0</ele><time>2026-05-03T09:52:17.718Z</time></trkpt><trkpt lat="40.8388941" lon="19.6308241"><ele>7.0</ele><time>2026-05-03T09:52:18.718Z</time></trkpt><trkpt lat="40.8390791" lon="19.6309814"><ele>7.0</ele><time>2026-05-03T09:52:19.718Z</time></trkpt><trkpt lat="40.8392587" lon="19.6311356"><ele>7.0</ele><time>2026-05-03T09:52:20.717Z</time></trkpt><trkpt lat="40.8394399" lon="19.6312937"><ele>6.666666666666667</ele><time>2026-05-03T09:52:21.718Z</time></trkpt><trkpt lat="40.8396216" lon="19.6314503"><ele>6.333333333333334</ele><time>2026-05-03T09:52:22.717Z</time></trkpt><trkpt lat="40.839807" lon="19.6316057"><ele>6.0</ele><time>2026-05-03T09:52:23.718Z</time></trkpt><trkpt lat="40.8399895" lon="19.6317607"><ele>5.666666666666667</ele><time>2026-05-03T09:52:24.718Z</time></trkpt><trkpt lat="40.8401737" lon="19.6319003"><ele>5.333333333333334</ele><time>2026-05-03T09:52:25.717Z</time></trkpt><trkpt lat="40.8403577" lon="19.6320672"><ele>5.0</ele><time>2026-05-03T09:52:26.717Z</time></trkpt><trkpt lat="40.8405439" lon="19.6322247"><ele>5.666666666666667</ele><time>2026-05-03T09:52:27.718Z</time></trkpt><trkpt lat="40.840732" lon="19.6323751"><ele>6.333333333333334</ele><time>2026-05-03T09:52:28.717Z</time></trkpt><trkpt lat="40.8409218" lon="19.6325341"><ele>7.0</ele><time>2026-05-03T09:52:29.718Z</time></trkpt><trkpt lat="40.8411076" lon="19.6326948"><ele>7.333333333333334</ele><time>2026-05-03T09:52:30.717Z</time></trkpt><trkpt lat="40.8412984" lon="19.6328512"><ele>7.666666666666666</ele><time>2026-05-03T09:52:31.717Z</time></trkpt><trkpt lat="40.8414885" lon="19.633007"><ele>8.0</ele><time>2026-05-03T09:52:32.717Z</time></trkpt><trkpt lat="40.8416793" lon="19.6331616"><ele>8.333333333333332</ele><time>2026-05-03T09:52:33.718Z</time></trkpt><trkpt lat="40.8418703" lon="19.6333219"><ele>8.666666666666666</ele><time>2026-05-03T09:52:34.718Z</time></trkpt><trkpt lat="40.8420597" lon="19.6334685"><ele>9.0</ele><time>2026-05-03T09:52:35.718Z</time></trkpt><trkpt lat="40.8422543" lon="19.6336288"><ele>9.0</ele><time>2026-05-03T09:52:36.717Z</time></trkpt><trkpt lat="40.8424436" lon="19.6337906"><ele>9.0</ele><time>2026-05-03T09:52:37.718Z</time></trkpt><trkpt lat="40.8426361" lon="19.6339486"><ele>8.666666666666666</ele><time>2026-05-03T09:52:38.718Z</time></trkpt><trkpt lat="40.842824" lon="19.6341039"><ele>8.333333333333332</ele><time>2026-05-03T09:52:39.717Z</time></trkpt><trkpt lat="40.8430168" lon="19.6342536"><ele>8.0</ele><time>2026-05-03T09:52:40.718Z</time></trkpt><trkpt lat="40.8432044" lon="19.6344094"><ele>8.0</ele><time>2026-05-03T09:52:41.717Z</time></trkpt><trkpt lat="40.8433941" lon="19.6345662"><ele>8.0</ele><time>2026-05-03T09:52:42.718Z</time></trkpt><trkpt lat="40.8435831" lon="19.634709"><ele>8.0</ele><time>2026-05-03T09:52:43.718Z</time></trkpt><trkpt lat="40.8437711" lon="19.6348659"><ele>8.333333333333332</ele><time>2026-05-03T09:52:44.717Z</time></trkpt><trkpt lat="40.8439515" lon="19.6350204"><ele>8.666666666666666</ele><time>2026-05-03T09:52:45.717Z</time></trkpt><trkpt lat="40.8441237" lon="19.6351573"><ele>9.0</ele><time>2026-05-03T09:52:46.718Z</time></trkpt><trkpt lat="40.844293" lon="19.6352869"><ele>8.666666666666666</ele><time>2026-05-03T09:52:47.718Z</time></trkpt><trkpt lat="40.8444551" lon="19.6354165"><ele>8.333333333333332</ele><time>2026-05-03T09:52:48.717Z</time></trkpt><trkpt lat="40.844619" lon="19.6355475"><ele>8.0</ele><time>2026-05-03T09:52:49.717Z</time></trkpt><trkpt lat="40.844776" lon="19.6356635"><ele>8.0</ele><time>2026-05-03T09:52:50.718Z</time></trkpt><trkpt lat="40.8449377" lon="19.6357997"><ele>8.0</ele><time>2026-05-03T09:52:51.717Z</time></trkpt><trkpt lat="40.845106" lon="19.6359342"><ele>8.0</ele><time>2026-05-03T09:52:52.717Z</time></trkpt><trkpt lat="40.8452769" lon="19.6360656"><ele>8.0</ele><time>2026-05-03T09:52:53.717Z</time></trkpt><trkpt lat="40.8454538" lon="19.6362114"><ele>8.0</ele><time>2026-05-03T09:52:54.717Z</time></trkpt><trkpt lat="40.8456214" lon="19.6363465"><ele>8.0</ele><time>2026-05-03T09:52:55.718Z</time></trkpt><trkpt lat="40.845792" lon="19.6364901"><ele>7.666666666666666</ele><time>2026-05-03T09:52:56.717Z</time></trkpt><trkpt lat="40.8459748" lon="19.6366274"><ele>7.333333333333334</ele><time>2026-05-03T09:52:57.718Z</time></trkpt><trkpt lat="40.8461479" lon="19.6367755"><ele>7.0</ele><time>2026-05-03T09:52:58.717Z</time></trkpt><trkpt lat="40.8463198" lon="19.6369102"><ele>7.0</ele><time>2026-05-03T09:52:59.717Z</time></trkpt><trkpt lat="40.8464976" lon="19.6370548"><ele>7.0</ele><time>2026-05-03T09:53:00.717Z</time></trkpt><trkpt lat="40.8466807" lon="19.6372011"><ele>7.0</ele><time>2026-05-03T09:53:01.718Z</time></trkpt><trkpt lat="40.8468619" lon="19.6373379"><ele>7.333333333333334</ele><time>2026-05-03T09:53:02.717Z</time></trkpt><trkpt lat="40.8470433" lon="19.6374824"><ele>7.666666666666666</ele><time>2026-05-03T09:53:03.717Z</time></trkpt><trkpt lat="40.8472275" lon="19.6376289"><ele>8.0</ele><time>2026-05-03T09:53:04.717Z</time></trkpt><trkpt lat="40.8474114" lon="19.6377858"><ele>8.0</ele><time>2026-05-03T09:53:05.718Z</time></trkpt><trkpt lat="40.8475983" lon="19.6379352"><ele>8.0</ele><time>2026-05-03T09:53:06.718Z</time></trkpt><trkpt lat="40.8477908" lon="19.6380955"><ele>8.0</ele><time>2026-05-03T09:53:07.718Z</time></trkpt><trkpt lat="40.8479939" lon="19.6382556"><ele>8.0</ele><time>2026-05-03T09:53:08.718Z</time></trkpt><trkpt lat="40.8481899" lon="19.6384101"><ele>8.0</ele><time>2026-05-03T09:53:09.717Z</time></trkpt><trkpt lat="40.8483842" lon="19.6385755"><ele>8.0</ele><time>2026-05-03T09:53:10.717Z</time></trkpt><trkpt lat="40.8485818" lon="19.6387426"><ele>8.0</ele><time>2026-05-03T09:53:11.718Z</time></trkpt><trkpt lat="40.8487804" lon="19.6389041"><ele>8.0</ele><time>2026-05-03T09:53:12.718Z</time></trkpt><trkpt lat="40.8489725" lon="19.639065"><ele>8.0</ele><time>2026-05-03T09:53:13.717Z</time></trkpt><trkpt lat="40.8491691" lon="19.6392241"><ele>8.0</ele><time>2026-05-03T09:53:14.718Z</time></trkpt><trkpt lat="40.8493689" lon="19.639379"><ele>8.0</ele><time>2026-05-03T09:53:15.717Z</time></trkpt><trkpt lat="40.8495679" lon="19.6395387"><ele>8.0</ele><time>2026-05-03T09:53:16.717Z</time></trkpt><trkpt lat="40.8497713" lon="19.6397006"><ele>8.0</ele><time>2026-05-03T09:53:17.717Z</time></trkpt><trkpt lat="40.8499713" lon="19.6398712"><ele>7.5</ele><time>2026-05-03T09:53:18.717Z</time></trkpt><trkpt lat="40.8501858" lon="19.6400314"><ele>7.0</ele><time>2026-05-03T09:53:19.718Z</time></trkpt><trkpt lat="40.8503975" lon="19.6401921"><ele>6.5</ele><time>2026-05-03T09:53:20.718Z</time></trkpt><trkpt lat="40.8506109" lon="19.6403552"><ele>6.0</ele><time>2026-05-03T09:53:21.718Z</time></trkpt><trkpt lat="40.8508261" lon="19.6405177"><ele>6.5</ele><time>2026-05-03T09:53:22.718Z</time></trkpt><trkpt lat="40.8510449" lon="19.6406808"><ele>7.0</ele><time>2026-05-03T09:53:23.717Z</time></trkpt><trkpt lat="40.8512551" lon="19.6408571"><ele>7.0</ele><time>2026-05-03T09:53:24.717Z</time></trkpt><trkpt lat="40.8514697" lon="19.6410275"><ele>7.0</ele><time>2026-05-03T09:53:25.718Z</time></trkpt><trkpt lat="40.8516831" lon="19.6411992"><ele>7.5</ele><time>2026-05-03T09:53:26.718Z</time></trkpt><trkpt lat="40.8519018" lon="19.6413777"><ele>8.0</ele><time>2026-05-03T09:53:27.718Z</time></trkpt><trkpt lat="40.8521271" lon="19.6415482"><ele>8.0</ele><time>2026-05-03T09:53:28.717Z</time></trkpt><trkpt lat="40.8523469" lon="19.6417263"><ele>8.0</ele><time>2026-05-03T09:53:29.718Z</time></trkpt><trkpt lat="40.8525667" lon="19.6418989"><ele>8.0</ele><time>2026-05-03T09:53:30.718Z</time></trkpt><trkpt lat="40.8527887" lon="19.6420754"><ele>8.0</ele><time>2026-05-03T09:53:31.717Z</time></trkpt><trkpt lat="40.8530016" lon="19.6422557"><ele>8.0</ele><time>2026-05-03T09:53:32.717Z</time></trkpt><trkpt lat="40.8532102" lon="19.6424402"><ele>8.0</ele><time>2026-05-03T09:53:33.718Z</time></trkpt><trkpt lat="40.8534167" lon="19.6426252"><ele>8.0</ele><time>2026-05-03T09:53:34.718Z</time></trkpt><trkpt lat="40.8536221" lon="19.642805"><ele>8.0</ele><time>2026-05-03T09:53:35.718Z</time></trkpt><trkpt lat="40.8538307" lon="19.6429811"><ele>8.0</ele><time>2026-05-03T09:53:36.718Z</time></trkpt><trkpt lat="40.8540384" lon="19.643137"><ele>8.0</ele><time>2026-05-03T09:53:37.718Z</time></trkpt><trkpt lat="40.854249" lon="19.6433025"><ele>8.5</ele><time>2026-05-03T09:53:38.717Z</time></trkpt><trkpt lat="40.8544555" lon="19.6434675"><ele>9.0</ele><time>2026-05-03T09:53:39.718Z</time></trkpt><trkpt lat="40.854662" lon="19.6436343"><ele>9.0</ele><time>2026-05-03T09:53:40.718Z</time></trkpt><trkpt lat="40.8548715" lon="19.6437991"><ele>9.0</ele><time>2026-05-03T09:53:41.717Z</time></trkpt><trkpt lat="40.8550727" lon="19.6439605"><ele>9.0</ele><time>2026-05-03T09:53:42.718Z</time></trkpt><trkpt lat="40.8552774" lon="19.6441294"><ele>9.0</ele><time>2026-05-03T09:53:43.717Z</time></trkpt><trkpt lat="40.855477" lon="19.6442891"><ele>9.0</ele><time>2026-05-03T09:53:44.717Z</time></trkpt><trkpt lat="40.8556762" lon="19.6444622"><ele>9.0</ele><time>2026-05-03T09:53:45.717Z</time></trkpt><trkpt lat="40.855878" lon="19.6446352"><ele>9.0</ele><time>2026-05-03T09:53:46.718Z</time></trkpt><trkpt lat="40.8560744" lon="19.6448051"><ele>9.0</ele><time>2026-05-03T09:53:47.717Z</time></trkpt><trkpt lat="40.8562732" lon="19.6449854"><ele>9.0</ele><time>2026-05-03T09:53:48.718Z</time></trkpt><trkpt lat="40.8564692" lon="19.6451621"><ele>9.0</ele><time>2026-05-03T09:53:49.718Z</time></trkpt><trkpt lat="40.8566684" lon="19.6453426"><ele>8.0</ele><time>2026-05-03T09:53:50.717Z</time></trkpt><trkpt lat="40.8568636" lon="19.6455146"><ele>7.0</ele><time>2026-05-03T09:53:51.718Z</time></trkpt><trkpt lat="40.8570585" lon="19.6457021"><ele>7.0</ele><time>2026-05-03T09:53:52.718Z</time></trkpt><trkpt lat="40.85725" lon="19.6458842"><ele>7.0</ele><time>2026-05-03T09:53:53.717Z</time></trkpt><trkpt lat="40.8574402" lon="19.6460704"><ele>8.5</ele><time>2026-05-03T09:53:54.717Z</time></trkpt><trkpt lat="40.8576322" lon="19.6462387"><ele>10.0</ele><time>2026-05-03T09:53:55.718Z</time></trkpt><trkpt lat="40.8578176" lon="19.6464254"><ele>10.0</ele><time>2026-05-03T09:53:56.717Z</time></trkpt><trkpt lat="40.8579952" lon="19.6465993"><ele>10.0</ele><time>2026-05-03T09:53:57.718Z</time></trkpt><trkpt lat="40.8581795" lon="19.6467795"><ele>10.0</ele><time>2026-05-03T09:53:58.718Z</time></trkpt><trkpt lat="40.8583675" lon="19.6469644"><ele>10.0</ele><time>2026-05-03T09:53:59.718Z</time></trkpt><trkpt lat="40.8585478" lon="19.6471541"><ele>10.0</ele><time>2026-05-03T09:54:00.718Z</time></trkpt><trkpt lat="40.8587329" lon="19.6473386"><ele>10.0</ele><time>2026-05-03T09:54:01.717Z</time></trkpt><trkpt lat="40.8589197" lon="19.6475147"><ele>10.0</ele><time>2026-05-03T09:54:02.718Z</time></trkpt><trkpt lat="40.8591036" lon="19.6476843"><ele>10.0</ele><time>2026-05-03T09:54:03.718Z</time></trkpt><trkpt lat="40.8592876" lon="19.6478666"><ele>9.5</ele><time>2026-05-03T09:54:04.717Z</time></trkpt><trkpt lat="40.8594684" lon="19.6480554"><ele>9.0</ele><time>2026-05-03T09:54:05.718Z</time></trkpt><trkpt lat="40.8596524" lon="19.6482437"><ele>9.0</ele><time>2026-05-03T09:54:06.718Z</time></trkpt><trkpt lat="40.8598397" lon="19.6484265"><ele>9.0</ele><time>2026-05-03T09:54:07.717Z</time></trkpt><trkpt lat="40.8600208" lon="19.6486169"><ele>8.0</ele><time>2026-05-03T09:54:08.717Z</time></trkpt><trkpt lat="40.8602006" lon="19.6488067"><ele>7.0</ele><time>2026-05-03T09:54:09.717Z</time></trkpt><trkpt lat="40.8603873" lon="19.6489936"><ele>7.0</ele><time>2026-05-03T09:54:10.717Z</time></trkpt><trkpt lat="40.8605736" lon="19.6491835"><ele>7.0</ele><time>2026-05-03T09:54:11.718Z</time></trkpt><trkpt lat="40.8607631" lon="19.6493797"><ele>8.0</ele><time>2026-05-03T09:54:12.718Z</time></trkpt><trkpt lat="40.860956" lon="19.6495722"><ele>9.0</ele><time>2026-05-03T09:54:13.718Z</time></trkpt><trkpt lat="40.8611521" lon="19.6497576"><ele>9.0</ele><time>2026-05-03T09:54:14.717Z</time></trkpt><trkpt lat="40.8613551" lon="19.6499464"><ele>9.0</ele><time>2026-05-03T09:54:15.718Z</time></trkpt><trkpt lat="40.8615574" lon="19.650133"><ele>9.0</ele><time>2026-05-03T09:54:16.718Z</time></trkpt><trkpt lat="40.8617571" lon="19.6503132"><ele>9.0</ele><time>2026-05-03T09:54:17.718Z</time></trkpt><trkpt lat="40.8619544" lon="19.6504896"><ele>9.0</ele><time>2026-05-03T09:54:18.718Z</time></trkpt><trkpt lat="40.8621568" lon="19.6506757"><ele>9.0</ele><time>2026-05-03T09:54:19.718Z</time></trkpt><trkpt lat="40.8623572" lon="19.6508468"><ele>9.0</ele><time>2026-05-03T09:54:20.717Z</time></trkpt><trkpt lat="40.8625629" lon="19.651022"><ele>9.0</ele><time>2026-05-03T09:54:21.718Z</time></trkpt><trkpt lat="40.8627698" lon="19.6512027"><ele>9.0</ele><time>2026-05-03T09:54:22.718Z</time></trkpt><trkpt lat="40.8629644" lon="19.6513597"><ele>9.0</ele><time>2026-05-03T09:54:23.718Z</time></trkpt><trkpt lat="40.8631687" lon="19.6515224"><ele>9.0</ele><time>2026-05-03T09:54:24.718Z</time></trkpt><trkpt lat="40.8633759" lon="19.6516856"><ele>9.0</ele><time>2026-05-03T09:54:25.718Z</time></trkpt><trkpt lat="40.8635732" lon="19.6518533"><ele>8.5</ele><time>2026-05-03T09:54:26.718Z</time></trkpt><trkpt lat="40.8637732" lon="19.6520202"><ele>8.0</ele><time>2026-05-03T09:54:27.718Z</time></trkpt><trkpt lat="40.8639751" lon="19.6521832"><ele>8.0</ele><time>2026-05-03T09:54:28.717Z</time></trkpt><trkpt lat="40.8641743" lon="19.6523513"><ele>8.0</ele><time>2026-05-03T09:54:29.717Z</time></trkpt><trkpt lat="40.8643699" lon="19.652501"><ele>8.5</ele><time>2026-05-03T09:54:30.718Z</time></trkpt><trkpt lat="40.8645759" lon="19.6526512"><ele>9.0</ele><time>2026-05-03T09:54:31.717Z</time></trkpt><trkpt lat="40.8647724" lon="19.6528115"><ele>9.0</ele><time>2026-05-03T09:54:32.717Z</time></trkpt><trkpt lat="40.864973" lon="19.6529742"><ele>9.0</ele><time>2026-05-03T09:54:33.717Z</time></trkpt><trkpt lat="40.8651759" lon="19.6531383"><ele>8.5</ele><time>2026-05-03T09:54:34.717Z</time></trkpt><trkpt lat="40.8653709" lon="19.6533023"><ele>8.0</ele><time>2026-05-03T09:54:35.717Z</time></trkpt><trkpt lat="40.8655685" lon="19.6534581"><ele>8.0</ele><time>2026-05-03T09:54:36.718Z</time></trkpt><trkpt lat="40.8657667" lon="19.6536164"><ele>8.0</ele><time>2026-05-03T09:54:37.717Z</time></trkpt><trkpt lat="40.8659691" lon="19.65377"><ele>8.5</ele><time>2026-05-03T09:54:38.717Z</time></trkpt><trkpt lat="40.8661622" lon="19.653929"><ele>9.0</ele><time>2026-05-03T09:54:39.718Z</time></trkpt><trkpt lat="40.8663572" lon="19.6540877"><ele>9.0</ele><time>2026-05-03T09:54:40.717Z</time></trkpt><trkpt lat="40.8665478" lon="19.6542319"><ele>9.0</ele><time>2026-05-03T09:54:41.717Z</time></trkpt><trkpt lat="40.8667405" lon="19.6543878"><ele>9.0</ele><time>2026-05-03T09:54:42.718Z</time></trkpt><trkpt lat="40.8669302" lon="19.6545377"><ele>9.0</ele><time>2026-05-03T09:54:43.717Z</time></trkpt><trkpt lat="40.8671183" lon="19.654702"><ele>9.0</ele><time>2026-05-03T09:54:44.718Z</time></trkpt><trkpt lat="40.8673053" lon="19.6548652"><ele>9.0</ele><time>2026-05-03T09:54:45.718Z</time></trkpt><trkpt lat="40.8674978" lon="19.6550298"><ele>8.666666666666666</ele><time>2026-05-03T09:54:46.717Z</time></trkpt><trkpt lat="40.867677" lon="19.6551843"><ele>8.333333333333332</ele><time>2026-05-03T09:54:47.717Z</time></trkpt><trkpt lat="40.8678605" lon="19.655349"><ele>8.0</ele><time>2026-05-03T09:54:48.717Z</time></trkpt><trkpt lat="40.8680426" lon="19.655512"><ele>8.0</ele><time>2026-05-03T09:54:49.717Z</time></trkpt><trkpt lat="40.868222" lon="19.6556711"><ele>8.0</ele><time>2026-05-03T09:54:50.717Z</time></trkpt><trkpt lat="40.868401" lon="19.6558447"><ele>8.0</ele><time>2026-05-03T09:54:51.718Z</time></trkpt><trkpt lat="40.8685804" lon="19.6560257"><ele>8.333333333333332</ele><time>2026-05-03T09:54:52.717Z</time></trkpt><trkpt lat="40.868761" lon="19.6562095"><ele>8.666666666666666</ele><time>2026-05-03T09:54:53.717Z</time></trkpt><trkpt lat="40.8689346" lon="19.6563895"><ele>9.0</ele><time>2026-05-03T09:54:54.717Z</time></trkpt><trkpt lat="40.8691059" lon="19.6565796"><ele>9.0</ele><time>2026-05-03T09:54:55.717Z</time></trkpt><trkpt lat="40.8692724" lon="19.6567731"><ele>9.0</ele><time>2026-05-03T09:54:56.717Z</time></trkpt><trkpt lat="40.8694415" lon="19.6569646"><ele>9.0</ele><time>2026-05-03T09:54:57.718Z</time></trkpt><trkpt lat="40.8696157" lon="19.6571627"><ele>10.0</ele><time>2026-05-03T09:54:58.717Z</time></trkpt><trkpt lat="40.8697919" lon="19.6573584"><ele>11.0</ele><time>2026-05-03T09:54:59.718Z</time></trkpt><trkpt lat="40.8699581" lon="19.6575648"><ele>10.0</ele><time>2026-05-03T09:55:00.717Z</time></trkpt><trkpt lat="40.8701221" lon="19.6577675"><ele>9.0</ele><time>2026-05-03T09:55:01.718Z</time></trkpt><trkpt lat="40.8702853" lon="19.6579942"><ele>9.0</ele><time>2026-05-03T09:55:02.718Z</time></trkpt><trkpt lat="40.870445" lon="19.6582098"><ele>9.0</ele><time>2026-05-03T09:55:03.718Z</time></trkpt><trkpt lat="40.8706033" lon="19.658443"><ele>9.0</ele><time>2026-05-03T09:55:04.718Z</time></trkpt><trkpt lat="40.8707554" lon="19.6586531"><ele>9.0</ele><time>2026-05-03T09:55:05.717Z</time></trkpt><trkpt lat="40.8709002" lon="19.6588696"><ele>9.0</ele><time>2026-05-03T09:55:06.717Z</time></trkpt><trkpt lat="40.8710511" lon="19.6590872"><ele>9.0</ele><time>2026-05-03T09:55:07.718Z</time></trkpt><trkpt lat="40.8711966" lon="19.6593031"><ele>9.0</ele><time>2026-05-03T09:55:08.717Z</time></trkpt><trkpt lat="40.8713357" lon="19.6595219"><ele>9.0</ele><time>2026-05-03T09:55:09.718Z</time></trkpt><trkpt lat="40.8714751" lon="19.6597535"><ele>9.0</ele><time>2026-05-03T09:55:10.717Z</time></trkpt><trkpt lat="40.8716098" lon="19.6599964"><ele>9.0</ele><time>2026-05-03T09:55:11.718Z</time></trkpt><trkpt lat="40.8717456" lon="19.66024"><ele>8.5</ele><time>2026-05-03T09:55:12.717Z</time></trkpt><trkpt lat="40.8718826" lon="19.6604799"><ele>8.0</ele><time>2026-05-03T09:55:13.718Z</time></trkpt><trkpt lat="40.8720178" lon="19.6607197"><ele>8.0</ele><time>2026-05-03T09:55:14.717Z</time></trkpt><trkpt lat="40.8721468" lon="19.6609627"><ele>8.0</ele><time>2026-05-03T09:55:15.717Z</time></trkpt><trkpt lat="40.8722831" lon="19.6611982"><ele>8.0</ele><time>2026-05-03T09:55:16.717Z</time></trkpt><trkpt lat="40.8724055" lon="19.6614329"><ele>8.0</ele><time>2026-05-03T09:55:17.717Z</time></trkpt><trkpt lat="40.8725274" lon="19.661655"><ele>8.0</ele><time>2026-05-03T09:55:18.718Z</time></trkpt><trkpt lat="40.8726515" lon="19.661874"><ele>8.0</ele><time>2026-05-03T09:55:19.717Z</time></trkpt><trkpt lat="40.8727739" lon="19.6620971"><ele>8.333333333333332</ele><time>2026-05-03T09:55:20.717Z</time></trkpt><trkpt lat="40.8728977" lon="19.6623319"><ele>8.666666666666666</ele><time>2026-05-03T09:55:21.717Z</time></trkpt><trkpt lat="40.8730222" lon="19.6625466"><ele>9.0</ele><time>2026-05-03T09:55:22.717Z</time></trkpt><trkpt lat="40.8731455" lon="19.6627827"><ele>9.0</ele><time>2026-05-03T09:55:23.718Z</time></trkpt><trkpt lat="40.8732686" lon="19.6630117"><ele>9.0</ele><time>2026-05-03T09:55:24.717Z</time></trkpt><trkpt lat="40.8733917" lon="19.6632366"><ele>9.0</ele><time>2026-05-03T09:55:25.717Z</time></trkpt><trkpt lat="40.8735148" lon="19.6634607"><ele>8.333333333333334</ele><time>2026-05-03T09:55:26.718Z</time></trkpt><trkpt lat="40.8736357" lon="19.6636812"><ele>7.666666666666667</ele><time>2026-05-03T09:55:27.718Z</time></trkpt><trkpt lat="40.8737584" lon="19.6639008"><ele>7.0</ele><time>2026-05-03T09:55:28.718Z</time></trkpt><trkpt lat="40.8738855" lon="19.6641191"><ele>7.0</ele><time>2026-05-03T09:55:29.718Z</time></trkpt><trkpt lat="40.8740157" lon="19.6643327"><ele>7.0</ele><time>2026-05-03T09:55:30.717Z</time></trkpt><trkpt lat="40.874145" lon="19.664549"><ele>7.0</ele><time>2026-05-03T09:55:31.717Z</time></trkpt><trkpt lat="40.8742799" lon="19.6647689"><ele>7.0</ele><time>2026-05-03T09:55:32.718Z</time></trkpt><trkpt lat="40.8744088" lon="19.6649759"><ele>7.0</ele><time>2026-05-03T09:55:33.718Z</time></trkpt><trkpt lat="40.8745389" lon="19.665182"><ele>7.0</ele><time>2026-05-03T09:55:34.718Z</time></trkpt><trkpt lat="40.8746734" lon="19.6653846"><ele>7.0</ele><time>2026-05-03T09:55:35.717Z</time></trkpt><trkpt lat="40.8748128" lon="19.6655875"><ele>7.0</ele><time>2026-05-03T09:55:36.718Z</time></trkpt><trkpt lat="40.8749447" lon="19.6657894"><ele>7.0</ele><time>2026-05-03T09:55:37.717Z</time></trkpt><trkpt lat="40.8750807" lon="19.6659741"><ele>7.666666666666667</ele><time>2026-05-03T09:55:38.717Z</time></trkpt><trkpt lat="40.8752163" lon="19.6661483"><ele>8.333333333333334</ele><time>2026-05-03T09:55:39.717Z</time></trkpt><trkpt lat="40.8753586" lon="19.6663204"><ele>9.0</ele><time>2026-05-03T09:55:40.717Z</time></trkpt><trkpt lat="40.8754944" lon="19.666492"><ele>9.0</ele><time>2026-05-03T09:55:41.718Z</time></trkpt><trkpt lat="40.875634" lon="19.6666667"><ele>9.0</ele><time>2026-05-03T09:55:42.717Z</time></trkpt><trkpt lat="40.8757806" lon="19.6668389"><ele>9.0</ele><time>2026-05-03T09:55:43.718Z</time></trkpt><trkpt lat="40.8759251" lon="19.6669838"><ele>8.0</ele><time>2026-05-03T09:55:44.718Z</time></trkpt><trkpt lat="40.8760706" lon="19.667144"><ele>7.0</ele><time>2026-05-03T09:55:45.717Z</time></trkpt><trkpt lat="40.8762071" lon="19.6673022"><ele>6.0</ele><time>2026-05-03T09:55:46.717Z</time></trkpt><trkpt lat="40.8763336" lon="19.6674438"><ele>6.0</ele><time>2026-05-03T09:55:47.718Z</time></trkpt><trkpt lat="40.8764593" lon="19.6675778"><ele>6.0</ele><time>2026-05-03T09:55:48.718Z</time></trkpt><trkpt lat="40.8765775" lon="19.6677051"><ele>6.0</ele><time>2026-05-03T09:55:49.717Z</time></trkpt><trkpt lat="40.8766787" lon="19.6678146"><ele>6.0</ele><time>2026-05-03T09:55:50.718Z</time></trkpt><trkpt lat="40.8767579" lon="19.667902"><ele>6.199999999999999</ele><time>2026-05-03T09:55:51.717Z</time></trkpt><trkpt lat="40.876814" lon="19.667956"><ele>6.3999999999999995</ele><time>2026-05-03T09:55:52.718Z</time></trkpt><trkpt lat="40.8769028" lon="19.6680443"><ele>6.6</ele><time>2026-05-03T09:55:54.718Z</time></trkpt><trkpt lat="40.8769758" lon="19.6681189"><ele>6.8</ele><time>2026-05-03T09:55:56.717Z</time></trkpt><trkpt lat="40.8770581" lon="19.6682029"><ele>7.0</ele><time>2026-05-03T09:55:58.717Z</time></trkpt><trkpt lat="40.8771217" lon="19.6682592"><ele>7.000000000000001</ele><time>2026-05-03T09:56:00.718Z</time></trkpt><trkpt lat="40.8772034" lon="19.668329"><ele>7.0</ele><time>2026-05-03T09:56:03.717Z</time></trkpt><trkpt lat="40.8772807" lon="19.6683846"><ele>7.0</ele><time>2026-05-03T09:56:05.717Z</time></trkpt><trkpt lat="40.8773431" lon="19.6684393"><ele>7.0</ele><time>2026-05-03T09:56:07.717Z</time></trkpt><trkpt lat="40.8774025" lon="19.668486"><ele>7.000000000000001</ele><time>2026-05-03T09:56:10.717Z</time></trkpt><trkpt lat="40.8774819" lon="19.6685686"><ele>7.0</ele><time>2026-05-03T09:56:12.718Z</time></trkpt><trkpt lat="40.8775446" lon="19.6686362"><ele>7.199999999999999</ele><time>2026-05-03T09:56:13.718Z</time></trkpt><trkpt lat="40.8776171" lon="19.6686906"><ele>7.3999999999999995</ele><time>2026-05-03T09:56:14.717Z</time></trkpt><trkpt lat="40.8777001" lon="19.6687861"><ele>7.6000000000000005</ele><time>2026-05-03T09:56:15.718Z</time></trkpt><trkpt lat="40.8777775" lon="19.6688739"><ele>7.800000000000001</ele><time>2026-05-03T09:56:16.718Z</time></trkpt><trkpt lat="40.8778538" lon="19.6689629"><ele>8.0</ele><time>2026-05-03T09:56:17.718Z</time></trkpt><trkpt lat="40.8779332" lon="19.669032"><ele>8.0</ele><time>2026-05-03T09:56:18.718Z</time></trkpt><trkpt lat="40.8780021" lon="19.6691255"><ele>8.0</ele><time>2026-05-03T09:56:19.717Z</time></trkpt><trkpt lat="40.8780808" lon="19.6692065"><ele>8.0</ele><time>2026-05-03T09:56:20.718Z</time></trkpt><trkpt lat="40.8781606" lon="19.6692904"><ele>8.0</ele><time>2026-05-03T09:56:21.717Z</time></trkpt><trkpt lat="40.8782368" lon="19.6693704"><ele>8.0</ele><time>2026-05-03T09:56:22.717Z</time></trkpt><trkpt lat="40.878308" lon="19.66946"><ele>7.999999999999999</ele><time>2026-05-03T09:56:23.717Z</time></trkpt><trkpt lat="40.8783737" lon="19.6695097"><ele>8.0</ele><time>2026-05-03T09:56:24.717Z</time></trkpt><trkpt lat="40.8784311" lon="19.6695638"><ele>8.0</ele><time>2026-05-03T09:56:25.718Z</time></trkpt><trkpt lat="40.878489" lon="19.6696206"><ele>8.0</ele><time>2026-05-03T09:56:26.717Z</time></trkpt><trkpt lat="40.8785472" lon="19.6696817"><ele>7.999999999999999</ele><time>2026-05-03T09:56:27.717Z</time></trkpt><trkpt lat="40.8786067" lon="19.6697543"><ele>8.0</ele><time>2026-05-03T09:56:28.718Z</time></trkpt><trkpt lat="40.8786818" lon="19.6698242"><ele>7.5</ele><time>2026-05-03T09:56:29.718Z</time></trkpt><trkpt lat="40.8787763" lon="19.6698993"><ele>7.0</ele><time>2026-05-03T09:56:30.717Z</time></trkpt><trkpt lat="40.8788823" lon="19.6699906"><ele>6.5</ele><time>2026-05-03T09:56:31.718Z</time></trkpt><trkpt lat="40.8790134" lon="19.6700941"><ele>6.0</ele><time>2026-05-03T09:56:32.718Z</time></trkpt><trkpt lat="40.8791607" lon="19.6702395"><ele>6.333333333333334</ele><time>2026-05-03T09:56:33.717Z</time></trkpt><trkpt lat="40.8793243" lon="19.6703864"><ele>6.666666666666667</ele><time>2026-05-03T09:56:34.718Z</time></trkpt><trkpt lat="40.8794989" lon="19.6705387"><ele>7.0</ele><time>2026-05-03T09:56:35.717Z</time></trkpt><trkpt lat="40.8796924" lon="19.6707023"><ele>7.0</ele><time>2026-05-03T09:56:36.717Z</time></trkpt><trkpt lat="40.8798889" lon="19.6708656"><ele>7.0</ele><time>2026-05-03T09:56:37.718Z</time></trkpt><trkpt lat="40.8800913" lon="19.6710402"><ele>8.0</ele><time>2026-05-03T09:56:38.717Z</time></trkpt><trkpt lat="40.8802924" lon="19.671205"><ele>9.0</ele><time>2026-05-03T09:56:39.717Z</time></trkpt><trkpt lat="40.8804911" lon="19.6713631"><ele>9.0</ele><time>2026-05-03T09:56:40.717Z</time></trkpt><trkpt lat="40.880689" lon="19.6715261"><ele>9.0</ele><time>2026-05-03T09:56:41.717Z</time></trkpt><trkpt lat="40.8808909" lon="19.6716898"><ele>8.0</ele><time>2026-05-03T09:56:42.718Z</time></trkpt><trkpt lat="40.8810923" lon="19.6718584"><ele>7.0</ele><time>2026-05-03T09:56:43.718Z</time></trkpt><trkpt lat="40.8812903" lon="19.6720229"><ele>7.0</ele><time>2026-05-03T09:56:44.717Z</time></trkpt><trkpt lat="40.8814802" lon="19.6721748"><ele>7.0</ele><time>2026-05-03T09:56:45.718Z</time></trkpt><trkpt lat="40.8816796" lon="19.6723334"><ele>6.5</ele><time>2026-05-03T09:56:46.718Z</time></trkpt><trkpt lat="40.8818738" lon="19.6724926"><ele>6.0</ele><time>2026-05-03T09:56:47.717Z</time></trkpt><trkpt lat="40.8820704" lon="19.6726537"><ele>6.0</ele><time>2026-05-03T09:56:48.717Z</time></trkpt><trkpt lat="40.8822681" lon="19.6728115"><ele>6.0</ele><time>2026-05-03T09:56:49.717Z</time></trkpt><trkpt lat="40.882464" lon="19.672963"><ele>6.5</ele><time>2026-05-03T09:56:50.718Z</time></trkpt><trkpt lat="40.8826647" lon="19.6731162"><ele>7.0</ele><time>2026-05-03T09:56:51.717Z</time></trkpt><trkpt lat="40.8828649" lon="19.6732738"><ele>7.0</ele><time>2026-05-03T09:56:52.717Z</time></trkpt><trkpt lat="40.883061" lon="19.6734288"><ele>7.0</ele><time>2026-05-03T09:56:53.717Z</time></trkpt><trkpt lat="40.8832585" lon="19.6735752"><ele>7.5</ele><time>2026-05-03T09:56:54.718Z</time></trkpt><trkpt lat="40.8834503" lon="19.6737281"><ele>8.0</ele><time>2026-05-03T09:56:55.717Z</time></trkpt><trkpt lat="40.8836483" lon="19.6738832"><ele>8.0</ele><time>2026-05-03T09:56:56.717Z</time></trkpt><trkpt lat="40.8838433" lon="19.6740291"><ele>8.0</ele><time>2026-05-03T09:56:57.717Z</time></trkpt><trkpt lat="40.884037" lon="19.6741808"><ele>8.0</ele><time>2026-05-03T09:56:58.717Z</time></trkpt><trkpt lat="40.8842357" lon="19.6743384"><ele>7.5</ele><time>2026-05-03T09:56:59.718Z</time></trkpt><trkpt lat="40.8844447" lon="19.6744841"><ele>7.0</ele><time>2026-05-03T09:57:00.718Z</time></trkpt><trkpt lat="40.8846517" lon="19.6746457"><ele>7.0</ele><time>2026-05-03T09:57:01.718Z</time></trkpt><trkpt lat="40.8848617" lon="19.6747993"><ele>7.0</ele><time>2026-05-03T09:57:02.717Z</time></trkpt><trkpt lat="40.8850811" lon="19.6749608"><ele>7.0</ele><time>2026-05-03T09:57:03.717Z</time></trkpt><trkpt lat="40.8853102" lon="19.6751251"><ele>7.0</ele><time>2026-05-03T09:57:04.718Z</time></trkpt><trkpt lat="40.885531" lon="19.6752931"><ele>7.0</ele><time>2026-05-03T09:57:05.717Z</time></trkpt><trkpt lat="40.885747" lon="19.67546"><ele>7.0</ele><time>2026-05-03T09:57:06.717Z</time></trkpt><trkpt lat="40.8859668" lon="19.6756389"><ele>7.0</ele><time>2026-05-03T09:57:07.717Z</time></trkpt><trkpt lat="40.8861777" lon="19.6758092"><ele>7.0</ele><time>2026-05-03T09:57:08.718Z</time></trkpt><trkpt lat="40.8863871" lon="19.6759853"><ele>7.0</ele><time>2026-05-03T09:57:09.718Z</time></trkpt><trkpt lat="40.8866014" lon="19.6761515"><ele>7.0</ele><time>2026-05-03T09:57:10.717Z</time></trkpt><trkpt lat="40.8868163" lon="19.6763262"><ele>6.5</ele><time>2026-05-03T09:57:11.718Z</time></trkpt><trkpt lat="40.8870333" lon="19.6765019"><ele>6.0</ele><time>2026-05-03T09:57:12.717Z</time></trkpt><trkpt lat="40.8872424" lon="19.6766742"><ele>6.0</ele><time>2026-05-03T09:57:13.717Z</time></trkpt><trkpt lat="40.8874592" lon="19.6768474"><ele>6.0</ele><time>2026-05-03T09:57:14.718Z</time></trkpt><trkpt lat="40.8876701" lon="19.677015"><ele>7.0</ele><time>2026-05-03T09:57:15.718Z</time></trkpt><trkpt lat="40.8878787" lon="19.6771762"><ele>8.0</ele><time>2026-05-03T09:57:16.718Z</time></trkpt><trkpt lat="40.8880842" lon="19.6773435"><ele>8.0</ele><time>2026-05-03T09:57:17.717Z</time></trkpt><trkpt lat="40.8882932" lon="19.6775012"><ele>8.0</ele><time>2026-05-03T09:57:18.718Z</time></trkpt><trkpt lat="40.8885009" lon="19.6776633"><ele>7.0</ele><time>2026-05-03T09:57:19.718Z</time></trkpt><trkpt lat="40.8887049" lon="19.6778233"><ele>6.0</ele><time>2026-05-03T09:57:20.718Z</time></trkpt><trkpt lat="40.8889081" lon="19.6779803"><ele>6.0</ele><time>2026-05-03T09:57:21.718Z</time></trkpt><trkpt lat="40.8891114" lon="19.6781437"><ele>6.0</ele><time>2026-05-03T09:57:22.717Z</time></trkpt><trkpt lat="40.8893115" lon="19.6783011"><ele>6.0</ele><time>2026-05-03T09:57:23.718Z</time></trkpt><trkpt lat="40.8895199" lon="19.6784508"><ele>6.0</ele><time>2026-05-03T09:57:24.717Z</time></trkpt><trkpt lat="40.8897225" lon="19.6786056"><ele>6.0</ele><time>2026-05-03T09:57:25.718Z</time></trkpt><trkpt lat="40.8899177" lon="19.6787486"><ele>6.0</ele><time>2026-05-03T09:57:26.717Z</time></trkpt><trkpt lat="40.8901198" lon="19.6789019"><ele>6.0</ele><time>2026-05-03T09:57:27.718Z</time></trkpt><trkpt lat="40.8903189" lon="19.6790557"><ele>6.0</ele><time>2026-05-03T09:57:28.718Z</time></trkpt><trkpt lat="40.8905105" lon="19.679191"><ele>6.0</ele><time>2026-05-03T09:57:29.717Z</time></trkpt><trkpt lat="40.8907057" lon="19.6793406"><ele>6.0</ele><time>2026-05-03T09:57:30.717Z</time></trkpt><trkpt lat="40.8909069" lon="19.6794885"><ele>6.0</ele><time>2026-05-03T09:57:31.717Z</time></trkpt><trkpt lat="40.8911097" lon="19.6796448"><ele>6.0</ele><time>2026-05-03T09:57:32.717Z</time></trkpt><trkpt lat="40.8913127" lon="19.6797951"><ele>6.0</ele><time>2026-05-03T09:57:33.717Z</time></trkpt><trkpt lat="40.8915184" lon="19.6799499"><ele>6.0</ele><time>2026-05-03T09:57:34.718Z</time></trkpt><trkpt lat="40.8917201" lon="19.6801038"><ele>6.0</ele><time>2026-05-03T09:57:35.717Z</time></trkpt><trkpt lat="40.8919181" lon="19.6802553"><ele>5.5</ele><time>2026-05-03T09:57:36.718Z</time></trkpt><trkpt lat="40.8921166" lon="19.6804203"><ele>5.0</ele><time>2026-05-03T09:57:37.717Z</time></trkpt><trkpt lat="40.8923155" lon="19.6805685"><ele>5.0</ele><time>2026-05-03T09:57:38.718Z</time></trkpt><trkpt lat="40.892515" lon="19.6807263"><ele>5.0</ele><time>2026-05-03T09:57:39.717Z</time></trkpt><trkpt lat="40.8927174" lon="19.6808844"><ele>5.5</ele><time>2026-05-03T09:57:40.717Z</time></trkpt><trkpt lat="40.8929204" lon="19.6810405"><ele>6.0</ele><time>2026-05-03T09:57:41.717Z</time></trkpt><trkpt lat="40.893124" lon="19.6812015"><ele>6.0</ele><time>2026-05-03T09:57:42.717Z</time></trkpt><trkpt lat="40.8933236" lon="19.6813625"><ele>6.0</ele><time>2026-05-03T09:57:43.718Z</time></trkpt><trkpt lat="40.8935267" lon="19.681527"><ele>6.0</ele><time>2026-05-03T09:57:44.718Z</time></trkpt><trkpt lat="40.8937276" lon="19.6816864"><ele>6.0</ele><time>2026-05-03T09:57:45.718Z</time></trkpt><trkpt lat="40.893926" lon="19.6818392"><ele>6.5</ele><time>2026-05-03T09:57:46.718Z</time></trkpt><trkpt lat="40.89413" lon="19.6819973"><ele>7.0</ele><time>2026-05-03T09:57:47.717Z</time></trkpt><trkpt lat="40.8943366" lon="19.6821559"><ele>7.0</ele><time>2026-05-03T09:57:48.718Z</time></trkpt><trkpt lat="40.8945413" lon="19.6823125"><ele>7.0</ele><time>2026-05-03T09:57:49.718Z</time></trkpt><trkpt lat="40.8947444" lon="19.6824695"><ele>7.0</ele><time>2026-05-03T09:57:50.718Z</time></trkpt><trkpt lat="40.8949466" lon="19.6826272"><ele>7.0</ele><time>2026-05-03T09:57:51.717Z</time></trkpt><trkpt lat="40.8951474" lon="19.6827834"><ele>6.5</ele><time>2026-05-03T09:57:52.718Z</time></trkpt><trkpt lat="40.8953471" lon="19.6829411"><ele>6.0</ele><time>2026-05-03T09:57:53.717Z</time></trkpt><trkpt lat="40.8955464" lon="19.6830832"><ele>6.0</ele><time>2026-05-03T09:57:54.718Z</time></trkpt><trkpt lat="40.8957476" lon="19.6832406"><ele>6.0</ele><time>2026-05-03T09:57:55.718Z</time></trkpt><trkpt lat="40.8959445" lon="19.6834005"><ele>6.0</ele><time>2026-05-03T09:57:56.717Z</time></trkpt><trkpt lat="40.8961409" lon="19.6835591"><ele>6.0</ele><time>2026-05-03T09:57:57.718Z</time></trkpt><trkpt lat="40.8963347" lon="19.683729"><ele>6.0</ele><time>2026-05-03T09:57:58.718Z</time></trkpt><trkpt lat="40.8965305" lon="19.6838882"><ele>6.0</ele><time>2026-05-03T09:57:59.718Z</time></trkpt><trkpt lat="40.8967288" lon="19.6840431"><ele>6.0</ele><time>2026-05-03T09:58:00.718Z</time></trkpt><trkpt lat="40.8969203" lon="19.6841947"><ele>6.0</ele><time>2026-05-03T09:58:01.717Z</time></trkpt><trkpt lat="40.8971162" lon="19.6843497"><ele>6.333333333333334</ele><time>2026-05-03T09:58:02.717Z</time></trkpt><trkpt lat="40.8973053" lon="19.6845019"><ele>6.666666666666667</ele><time>2026-05-03T09:58:03.718Z</time></trkpt><trkpt lat="40.8974922" lon="19.6846459"><ele>7.0</ele><time>2026-05-03T09:58:04.717Z</time></trkpt><trkpt lat="40.8976839" lon="19.6847853"><ele>7.0</ele><time>2026-05-03T09:58:05.717Z</time></trkpt><trkpt lat="40.8978747" lon="19.6849361"><ele>7.0</ele><time>2026-05-03T09:58:06.717Z</time></trkpt><trkpt lat="40.8980621" lon="19.6850841"><ele>7.0</ele><time>2026-05-03T09:58:07.718Z</time></trkpt><trkpt lat="40.8982494" lon="19.6852252"><ele>7.0</ele><time>2026-05-03T09:58:08.718Z</time></trkpt><trkpt lat="40.8984366" lon="19.6853715"><ele>7.0</ele><time>2026-05-03T09:58:09.717Z</time></trkpt><trkpt lat="40.8986265" lon="19.6855057"><ele>7.0</ele><time>2026-05-03T09:58:10.718Z</time></trkpt><trkpt lat="40.8988234" lon="19.6856518"><ele>7.0</ele><time>2026-05-03T09:58:11.717Z</time></trkpt><trkpt lat="40.8990166" lon="19.6858012"><ele>7.0</ele><time>2026-05-03T09:58:12.718Z</time></trkpt><trkpt lat="40.8992134" lon="19.6859644"><ele>7.5</ele><time>2026-05-03T09:58:13.718Z</time></trkpt><trkpt lat="40.8994083" lon="19.6861217"><ele>8.0</ele><time>2026-05-03T09:58:14.718Z</time></trkpt><trkpt lat="40.8996062" lon="19.686282"><ele>8.0</ele><time>2026-05-03T09:58:15.717Z</time></trkpt><trkpt lat="40.8998034" lon="19.6864331"><ele>8.0</ele><time>2026-05-03T09:58:16.717Z</time></trkpt><trkpt lat="40.900001" lon="19.6865837"><ele>7.0</ele><time>2026-05-03T09:58:17.717Z</time></trkpt><trkpt lat="40.9001986" lon="19.686742"><ele>6.0</ele><time>2026-05-03T09:58:18.717Z</time></trkpt><trkpt lat="40.9004015" lon="19.6869009"><ele>6.5</ele><time>2026-05-03T09:58:19.717Z</time></trkpt><trkpt lat="40.9005992" lon="19.6870508"><ele>7.0</ele><time>2026-05-03T09:58:20.717Z</time></trkpt><trkpt lat="40.9008039" lon="19.6871979"><ele>6.5</ele><time>2026-05-03T09:58:21.717Z</time></trkpt><trkpt lat="40.9010035" lon="19.6873549"><ele>6.0</ele><time>2026-05-03T09:58:22.718Z</time></trkpt><trkpt lat="40.901209" lon="19.6875004"><ele>6.0</ele><time>2026-05-03T09:58:23.717Z</time></trkpt><trkpt lat="40.9014075" lon="19.6876574"><ele>6.0</ele><time>2026-05-03T09:58:24.717Z</time></trkpt><trkpt lat="40.9016055" lon="19.6878142"><ele>6.5</ele><time>2026-05-03T09:58:25.718Z</time></trkpt><trkpt lat="40.9017996" lon="19.6879534"><ele>7.0</ele><time>2026-05-03T09:58:26.718Z</time></trkpt><trkpt lat="40.901998" lon="19.6881078"><ele>7.0</ele><time>2026-05-03T09:58:27.718Z</time></trkpt><trkpt lat="40.9021918" lon="19.688257"><ele>7.0</ele><time>2026-05-03T09:58:28.717Z</time></trkpt><trkpt lat="40.9023869" lon="19.6884083"><ele>6.666666666666667</ele><time>2026-05-03T09:58:29.717Z</time></trkpt><trkpt lat="40.902583" lon="19.6885667"><ele>6.333333333333334</ele><time>2026-05-03T09:58:30.717Z</time></trkpt><trkpt lat="40.9027721" lon="19.6887146"><ele>6.0</ele><time>2026-05-03T09:58:31.718Z</time></trkpt><trkpt lat="40.9029662" lon="19.6888656"><ele>6.0</ele><time>2026-05-03T09:58:32.717Z</time></trkpt><trkpt lat="40.9031673" lon="19.6890223"><ele>6.0</ele><time>2026-05-03T09:58:33.718Z</time></trkpt><trkpt lat="40.9033596" lon="19.6891537"><ele>5.666666666666667</ele><time>2026-05-03T09:58:34.717Z</time></trkpt><trkpt lat="40.9035512" lon="19.689303"><ele>5.333333333333334</ele><time>2026-05-03T09:58:35.717Z</time></trkpt><trkpt lat="40.903739" lon="19.6894439"><ele>5.0</ele><time>2026-05-03T09:58:36.718Z</time></trkpt><trkpt lat="40.9039265" lon="19.6895787"><ele>5.0</ele><time>2026-05-03T09:58:37.718Z</time></trkpt><trkpt lat="40.9041198" lon="19.6897208"><ele>5.0</ele><time>2026-05-03T09:58:38.717Z</time></trkpt><trkpt lat="40.904312" lon="19.6898723"><ele>5.0</ele><time>2026-05-03T09:58:39.718Z</time></trkpt><trkpt lat="40.9045081" lon="19.6900167"><ele>5.333333333333334</ele><time>2026-05-03T09:58:40.718Z</time></trkpt><trkpt lat="40.9046982" lon="19.6901648"><ele>5.666666666666667</ele><time>2026-05-03T09:58:41.718Z</time></trkpt><trkpt lat="40.9048875" lon="19.6903066"><ele>6.0</ele><time>2026-05-03T09:58:42.718Z</time></trkpt><trkpt lat="40.9050817" lon="19.6904591"><ele>6.0</ele><time>2026-05-03T09:58:43.718Z</time></trkpt><trkpt lat="40.9052686" lon="19.69061"><ele>6.0</ele><time>2026-05-03T09:58:44.718Z</time></trkpt><trkpt lat="40.9054605" lon="19.6907462"><ele>6.0</ele><time>2026-05-03T09:58:45.718Z</time></trkpt><trkpt lat="40.9056549" lon="19.690902"><ele>6.0</ele><time>2026-05-03T09:58:46.718Z</time></trkpt><trkpt lat="40.9058441" lon="19.6910592"><ele>6.0</ele><time>2026-05-03T09:58:47.718Z</time></trkpt><trkpt lat="40.9060301" lon="19.6912147"><ele>6.0</ele><time>2026-05-03T09:58:48.717Z</time></trkpt><trkpt lat="40.90622" lon="19.691364"><ele>6.333333333333334</ele><time>2026-05-03T09:58:49.718Z</time></trkpt><trkpt lat="40.9064074" lon="19.6915101"><ele>6.666666666666667</ele><time>2026-05-03T09:58:50.718Z</time></trkpt><trkpt lat="40.9065883" lon="19.6916562"><ele>7.0</ele><time>2026-05-03T09:58:51.718Z</time></trkpt><trkpt lat="40.9067652" lon="19.6917887"><ele>7.0</ele><time>2026-05-03T09:58:52.717Z</time></trkpt><trkpt lat="40.906941" lon="19.6919218"><ele>7.0</ele><time>2026-05-03T09:58:53.718Z</time></trkpt><trkpt lat="40.9071087" lon="19.6920541"><ele>7.0</ele><time>2026-05-03T09:58:54.718Z</time></trkpt><trkpt lat="40.9072484" lon="19.6921601"><ele>7.25</ele><time>2026-05-03T09:58:55.717Z</time></trkpt><trkpt lat="40.9073795" lon="19.6922629"><ele>7.5</ele><time>2026-05-03T09:58:56.717Z</time></trkpt><trkpt lat="40.9075012" lon="19.6923559"><ele>7.75</ele><time>2026-05-03T09:58:57.717Z</time></trkpt><trkpt lat="40.9076198" lon="19.6924437"><ele>8.0</ele><time>2026-05-03T09:58:58.717Z</time></trkpt><trkpt lat="40.9077356" lon="19.6925331"><ele>7.666666666666666</ele><time>2026-05-03T09:58:59.717Z</time></trkpt><trkpt lat="40.9078568" lon="19.6926304"><ele>7.333333333333334</ele><time>2026-05-03T09:59:00.718Z</time></trkpt><trkpt lat="40.9079826" lon="19.6927408"><ele>7.0</ele><time>2026-05-03T09:59:01.718Z</time></trkpt><trkpt lat="40.9081255" lon="19.6928434"><ele>7.0</ele><time>2026-05-03T09:59:02.717Z</time></trkpt><trkpt lat="40.9082722" lon="19.6929598"><ele>7.0</ele><time>2026-05-03T09:59:03.718Z</time></trkpt><trkpt lat="40.9084294" lon="19.6930775"><ele>7.0</ele><time>2026-05-03T09:59:04.718Z</time></trkpt><trkpt lat="40.9085916" lon="19.6931909"><ele>7.0</ele><time>2026-05-03T09:59:05.717Z</time></trkpt><trkpt lat="40.9087508" lon="19.6933063"><ele>7.0</ele><time>2026-05-03T09:59:06.717Z</time></trkpt><trkpt lat="40.9089158" lon="19.6934326"><ele>7.0</ele><time>2026-05-03T09:59:07.718Z</time></trkpt><trkpt lat="40.9090889" lon="19.6935591"><ele>7.333333333333334</ele><time>2026-05-03T09:59:08.717Z</time></trkpt><trkpt lat="40.9092632" lon="19.6937124"><ele>7.666666666666666</ele><time>2026-05-03T09:59:09.718Z</time></trkpt><trkpt lat="40.9094386" lon="19.6938505"><ele>8.0</ele><time>2026-05-03T09:59:10.718Z</time></trkpt><trkpt lat="40.9096091" lon="19.6940002"><ele>8.0</ele><time>2026-05-03T09:59:11.718Z</time></trkpt><trkpt lat="40.9097827" lon="19.6941489"><ele>8.0</ele><time>2026-05-03T09:59:12.718Z</time></trkpt><trkpt lat="40.9099572" lon="19.6942966"><ele>8.0</ele><time>2026-05-03T09:59:13.718Z</time></trkpt><trkpt lat="40.910137" lon="19.694445"><ele>8.333333333333332</ele><time>2026-05-03T09:59:14.717Z</time></trkpt><trkpt lat="40.9103107" lon="19.6945893"><ele>8.666666666666666</ele><time>2026-05-03T09:59:15.717Z</time></trkpt><trkpt lat="40.9104797" lon="19.6947207"><ele>9.0</ele><time>2026-05-03T09:59:16.717Z</time></trkpt><trkpt lat="40.9106604" lon="19.6948518"><ele>9.0</ele><time>2026-05-03T09:59:17.717Z</time></trkpt><trkpt lat="40.9108336" lon="19.694996"><ele>9.0</ele><time>2026-05-03T09:59:18.717Z</time></trkpt><trkpt lat="40.9110083" lon="19.6951358"><ele>9.0</ele><time>2026-05-03T09:59:19.717Z</time></trkpt><trkpt lat="40.9111864" lon="19.6952773"><ele>8.333333333333334</ele><time>2026-05-03T09:59:20.718Z</time></trkpt><trkpt lat="40.9113656" lon="19.6954194"><ele>7.666666666666667</ele><time>2026-05-03T09:59:21.718Z</time></trkpt><trkpt lat="40.911541" lon="19.6955575"><ele>7.0</ele><time>2026-05-03T09:59:22.718Z</time></trkpt><trkpt lat="40.9117119" lon="19.6956998"><ele>7.333333333333334</ele><time>2026-05-03T09:59:23.717Z</time></trkpt><trkpt lat="40.9118819" lon="19.6958383"><ele>7.666666666666666</ele><time>2026-05-03T09:59:24.717Z</time></trkpt><trkpt lat="40.9120574" lon="19.6959696"><ele>8.0</ele><time>2026-05-03T09:59:25.718Z</time></trkpt><trkpt lat="40.912234" lon="19.6961066"><ele>8.333333333333332</ele><time>2026-05-03T09:59:26.717Z</time></trkpt><trkpt lat="40.9124027" lon="19.6962295"><ele>8.666666666666666</ele><time>2026-05-03T09:59:27.718Z</time></trkpt><trkpt lat="40.9125784" lon="19.6963571"><ele>9.0</ele><time>2026-05-03T09:59:28.717Z</time></trkpt><trkpt lat="40.9127522" lon="19.696491"><ele>9.0</ele><time>2026-05-03T09:59:29.717Z</time></trkpt><trkpt lat="40.9129262" lon="19.6966122"><ele>9.0</ele><time>2026-05-03T09:59:30.717Z</time></trkpt><trkpt lat="40.9130964" lon="19.6967421"><ele>9.0</ele><time>2026-05-03T09:59:31.717Z</time></trkpt><trkpt lat="40.9132708" lon="19.6968692"><ele>9.0</ele><time>2026-05-03T09:59:32.718Z</time></trkpt><trkpt lat="40.913439" lon="19.697003"><ele>9.0</ele><time>2026-05-03T09:59:33.718Z</time></trkpt><trkpt lat="40.9136118" lon="19.6971379"><ele>9.0</ele><time>2026-05-03T09:59:34.718Z</time></trkpt><trkpt lat="40.9137913" lon="19.6972792"><ele>9.0</ele><time>2026-05-03T09:59:35.717Z</time></trkpt><trkpt lat="40.9139745" lon="19.6974283"><ele>9.0</ele><time>2026-05-03T09:59:36.717Z</time></trkpt><trkpt lat="40.9141556" lon="19.6975669"><ele>9.0</ele><time>2026-05-03T09:59:37.717Z</time></trkpt><trkpt lat="40.9143351" lon="19.6977108"><ele>8.666666666666666</ele><time>2026-05-03T09:59:38.717Z</time></trkpt><trkpt lat="40.9145176" lon="19.6978573"><ele>8.333333333333332</ele><time>2026-05-03T09:59:39.718Z</time></trkpt><trkpt lat="40.914701" lon="19.6979984"><ele>8.0</ele><time>2026-05-03T09:59:40.717Z</time></trkpt><trkpt lat="40.9148831" lon="19.6981482"><ele>8.0</ele><time>2026-05-03T09:59:41.718Z</time></trkpt><trkpt lat="40.9150622" lon="19.6982934"><ele>8.0</ele><time>2026-05-03T09:59:42.718Z</time></trkpt><trkpt lat="40.9152447" lon="19.6984321"><ele>8.0</ele><time>2026-05-03T09:59:43.718Z</time></trkpt><trkpt lat="40.9154235" lon="19.6985684"><ele>8.0</ele><time>2026-05-03T09:59:44.718Z</time></trkpt><trkpt lat="40.915603" lon="19.6987068"><ele>8.0</ele><time>2026-05-03T09:59:45.717Z</time></trkpt><trkpt lat="40.9157752" lon="19.698838"><ele>8.0</ele><time>2026-05-03T09:59:46.718Z</time></trkpt><trkpt lat="40.9159391" lon="19.6989637"><ele>8.0</ele><time>2026-05-03T09:59:47.718Z</time></trkpt><trkpt lat="40.916101" lon="19.6990876"><ele>8.0</ele><time>2026-05-03T09:59:48.718Z</time></trkpt><trkpt lat="40.91626" lon="19.6992079"><ele>8.0</ele><time>2026-05-03T09:59:49.717Z</time></trkpt><trkpt lat="40.9164149" lon="19.6993301"><ele>8.0</ele><time>2026-05-03T09:59:50.718Z</time></trkpt><trkpt lat="40.9165686" lon="19.6994488"><ele>8.0</ele><time>2026-05-03T09:59:51.717Z</time></trkpt><trkpt lat="40.9167248" lon="19.6995666"><ele>8.0</ele><time>2026-05-03T09:59:52.718Z</time></trkpt><trkpt lat="40.9168826" lon="19.6996843"><ele>8.0</ele><time>2026-05-03T09:59:53.718Z</time></trkpt><trkpt lat="40.9170453" lon="19.6998012"><ele>8.0</ele><time>2026-05-03T09:59:54.718Z</time></trkpt><trkpt lat="40.9172188" lon="19.6999218"><ele>8.0</ele><time>2026-05-03T09:59:55.718Z</time></trkpt><trkpt lat="40.9173817" lon="19.7000547"><ele>8.0</ele><time>2026-05-03T09:59:56.717Z</time></trkpt><trkpt lat="40.9175505" lon="19.7001819"><ele>8.0</ele><time>2026-05-03T09:59:57.718Z</time></trkpt><trkpt lat="40.9177124" lon="19.7003078"><ele>8.0</ele><time>2026-05-03T09:59:58.718Z</time></trkpt><trkpt lat="40.9178781" lon="19.7004414"><ele>8.0</ele><time>2026-05-03T09:59:59.718Z</time></trkpt><trkpt lat="40.9180369" lon="19.7005733"><ele>8.0</ele><time>2026-05-03T10:00:00.718Z</time></trkpt><trkpt lat="40.9181893" lon="19.7006962"><ele>8.0</ele><time>2026-05-03T10:00:01.718Z</time></trkpt><trkpt lat="40.9183325" lon="19.7008154"><ele>8.0</ele><time>2026-05-03T10:00:02.718Z</time></trkpt><trkpt lat="40.9184795" lon="19.7009355"><ele>8.0</ele><time>2026-05-03T10:00:03.717Z</time></trkpt><trkpt lat="40.9186335" lon="19.7010436"><ele>8.0</ele><time>2026-05-03T10:00:04.718Z</time></trkpt><trkpt lat="40.9187855" lon="19.7011528"><ele>8.0</ele><time>2026-05-03T10:00:05.718Z</time></trkpt><trkpt lat="40.9189379" lon="19.7012698"><ele>8.0</ele><time>2026-05-03T10:00:06.718Z</time></trkpt><trkpt lat="40.919082" lon="19.7013841"><ele>8.0</ele><time>2026-05-03T10:00:07.717Z</time></trkpt><trkpt lat="40.9192019" lon="19.7014928"><ele>8.25</ele><time>2026-05-03T10:00:08.718Z</time></trkpt><trkpt lat="40.9193214" lon="19.7015967"><ele>8.5</ele><time>2026-05-03T10:00:09.717Z</time></trkpt><trkpt lat="40.9194319" lon="19.7016893"><ele>8.75</ele><time>2026-05-03T10:00:10.718Z</time></trkpt><trkpt lat="40.9195369" lon="19.7017643"><ele>9.0</ele><time>2026-05-03T10:00:11.717Z</time></trkpt><trkpt lat="40.9196354" lon="19.7018317"><ele>9.0</ele><time>2026-05-03T10:00:12.718Z</time></trkpt><trkpt lat="40.9197318" lon="19.701859"><ele>9.0</ele><time>2026-05-03T10:00:13.718Z</time></trkpt><trkpt lat="40.9198201" lon="19.7018776"><ele>9.0</ele><time>2026-05-03T10:00:14.718Z</time></trkpt><trkpt lat="40.9199212" lon="19.7018599"><ele>9.0</ele><time>2026-05-03T10:00:15.718Z</time></trkpt><trkpt lat="40.9200094" lon="19.7018444"><ele>9.0</ele><time>2026-05-03T10:00:16.717Z</time></trkpt><trkpt lat="40.9201028" lon="19.7018283"><ele>9.0</ele><time>2026-05-03T10:00:17.718Z</time></trkpt><trkpt lat="40.9201806" lon="19.7018168"><ele>9.0</ele><time>2026-05-03T10:00:18.717Z</time></trkpt><trkpt lat="40.9202544" lon="19.7018002"><ele>9.0</ele><time>2026-05-03T10:00:19.717Z</time></trkpt><trkpt lat="40.9203338" lon="19.7018039"><ele>9.0</ele><time>2026-05-03T10:00:20.718Z</time></trkpt><trkpt lat="40.9204034" lon="19.7018195"><ele>9.0</ele><time>2026-05-03T10:00:21.717Z</time></trkpt><trkpt lat="40.9205141" lon="19.7018555"><ele>9.0</ele><time>2026-05-03T10:00:23.717Z</time></trkpt><trkpt lat="40.9206185" lon="19.7019389"><ele>9.166666666666666</ele><time>2026-05-03T10:00:25.718Z</time></trkpt><trkpt lat="40.9206824" lon="19.7019934"><ele>9.333333333333334</ele><time>2026-05-03T10:00:26.717Z</time></trkpt><trkpt lat="40.9207488" lon="19.7020393"><ele>9.5</ele><time>2026-05-03T10:00:27.718Z</time></trkpt><trkpt lat="40.9208132" lon="19.7020508"><ele>9.666666666666668</ele><time>2026-05-03T10:00:28.717Z</time></trkpt><trkpt lat="40.9209195" lon="19.7020123"><ele>9.833333333333334</ele><time>2026-05-03T10:00:30.717Z</time></trkpt><trkpt lat="40.9209904" lon="19.7019473"><ele>10.0</ele><time>2026-05-03T10:00:32.718Z</time></trkpt><trkpt lat="40.9210243" lon="19.701865"><ele>10.2</ele><time>2026-05-03T10:00:33.718Z</time></trkpt><trkpt lat="40.921063" lon="19.7017833"><ele>10.4</ele><time>2026-05-03T10:00:34.718Z</time></trkpt><trkpt lat="40.9211076" lon="19.701671"><ele>10.600000000000001</ele><time>2026-05-03T10:00:35.717Z</time></trkpt><trkpt lat="40.9211629" lon="19.7015315"><ele>10.8</ele><time>2026-05-03T10:00:36.717Z</time></trkpt><trkpt lat="40.9212308" lon="19.7013887"><ele>11.0</ele><time>2026-05-03T10:00:37.717Z</time></trkpt><trkpt lat="40.921326" lon="19.7012339"><ele>11.0</ele><time>2026-05-03T10:00:38.718Z</time></trkpt><trkpt lat="40.9214381" lon="19.7010616"><ele>11.0</ele><time>2026-05-03T10:00:39.718Z</time></trkpt><trkpt lat="40.9215746" lon="19.7008723"><ele>11.0</ele><time>2026-05-03T10:00:40.718Z</time></trkpt><trkpt lat="40.9217043" lon="19.7006898"><ele>11.0</ele><time>2026-05-03T10:00:41.717Z</time></trkpt><trkpt lat="40.9218388" lon="19.7004999"><ele>11.0</ele><time>2026-05-03T10:00:42.717Z</time></trkpt><trkpt lat="40.9219854" lon="19.7002968"><ele>11.0</ele><time>2026-05-03T10:00:43.717Z</time></trkpt><trkpt lat="40.9221378" lon="19.7000813"><ele>11.0</ele><time>2026-05-03T10:00:44.718Z</time></trkpt><trkpt lat="40.9222826" lon="19.6998668"><ele>11.0</ele><time>2026-05-03T10:00:45.718Z</time></trkpt><trkpt lat="40.9224257" lon="19.6996527"><ele>11.0</ele><time>2026-05-03T10:00:46.717Z</time></trkpt><trkpt lat="40.9225647" lon="19.6994267"><ele>10.0</ele><time>2026-05-03T10:00:47.717Z</time></trkpt><trkpt lat="40.9227013" lon="19.6992119"><ele>9.0</ele><time>2026-05-03T10:00:48.718Z</time></trkpt><trkpt lat="40.9228449" lon="19.6990035"><ele>8.0</ele><time>2026-05-03T10:00:49.718Z</time></trkpt><trkpt lat="40.9229846" lon="19.6987993"><ele>8.0</ele><time>2026-05-03T10:00:50.718Z</time></trkpt><trkpt lat="40.9231255" lon="19.6986009"><ele>8.0</ele><time>2026-05-03T10:00:51.718Z</time></trkpt><trkpt lat="40.923264" lon="19.698396"><ele>8.0</ele><time>2026-05-03T10:00:52.717Z</time></trkpt><trkpt lat="40.9233931" lon="19.6981964"><ele>8.333333333333332</ele><time>2026-05-03T10:00:53.718Z</time></trkpt><trkpt lat="40.9235312" lon="19.6979971"><ele>8.666666666666666</ele><time>2026-05-03T10:00:54.717Z</time></trkpt><trkpt lat="40.9236662" lon="19.697786"><ele>9.0</ele><time>2026-05-03T10:00:55.717Z</time></trkpt><trkpt lat="40.9237974" lon="19.6975829"><ele>9.0</ele><time>2026-05-03T10:00:56.717Z</time></trkpt><trkpt lat="40.9239329" lon="19.6973802"><ele>9.0</ele><time>2026-05-03T10:00:57.717Z</time></trkpt><trkpt lat="40.9240724" lon="19.6971843"><ele>9.0</ele><time>2026-05-03T10:00:58.718Z</time></trkpt><trkpt lat="40.9242131" lon="19.6969777"><ele>8.666666666666666</ele><time>2026-05-03T10:00:59.717Z</time></trkpt><trkpt lat="40.9243555" lon="19.6967676"><ele>8.333333333333332</ele><time>2026-05-03T10:01:00.718Z</time></trkpt><trkpt lat="40.924498" lon="19.6965567"><ele>8.0</ele><time>2026-05-03T10:01:01.717Z</time></trkpt><trkpt lat="40.92464" lon="19.6963456"><ele>8.0</ele><time>2026-05-03T10:01:02.718Z</time></trkpt><trkpt lat="40.9247869" lon="19.6961272"><ele>8.0</ele><time>2026-05-03T10:01:03.718Z</time></trkpt><trkpt lat="40.9249308" lon="19.6959103"><ele>8.0</ele><time>2026-05-03T10:01:04.718Z</time></trkpt><trkpt lat="40.925073" lon="19.6957005"><ele>8.333333333333332</ele><time>2026-05-03T10:01:05.718Z</time></trkpt><trkpt lat="40.9252097" lon="19.6954821"><ele>8.666666666666666</ele><time>2026-05-03T10:01:06.718Z</time></trkpt><trkpt lat="40.9253506" lon="19.6952735"><ele>9.0</ele><time>2026-05-03T10:01:07.718Z</time></trkpt><trkpt lat="40.9254932" lon="19.6950646"><ele>9.0</ele><time>2026-05-03T10:01:08.717Z</time></trkpt><trkpt lat="40.9256387" lon="19.6948565"><ele>9.0</ele><time>2026-05-03T10:01:09.718Z</time></trkpt><trkpt lat="40.9257784" lon="19.6946406"><ele>9.0</ele><time>2026-05-03T10:01:10.717Z</time></trkpt><trkpt lat="40.9259221" lon="19.6944375"><ele>9.333333333333334</ele><time>2026-05-03T10:01:11.718Z</time></trkpt><trkpt lat="40.9260589" lon="19.6942363"><ele>9.666666666666668</ele><time>2026-05-03T10:01:12.717Z</time></trkpt><trkpt lat="40.9261983" lon="19.6940317"><ele>10.0</ele><time>2026-05-03T10:01:13.717Z</time></trkpt><trkpt lat="40.926336" lon="19.6938299"><ele>10.0</ele><time>2026-05-03T10:01:14.717Z</time></trkpt><trkpt lat="40.9264755" lon="19.6936253"><ele>10.0</ele><time>2026-05-03T10:01:15.718Z</time></trkpt><trkpt lat="40.9266181" lon="19.6934334"><ele>10.0</ele><time>2026-05-03T10:01:16.717Z</time></trkpt><trkpt lat="40.9267624" lon="19.6932299"><ele>9.333333333333334</ele><time>2026-05-03T10:01:17.718Z</time></trkpt><trkpt lat="40.9269125" lon="19.6930265"><ele>8.666666666666666</ele><time>2026-05-03T10:01:18.717Z</time></trkpt><trkpt lat="40.927064" lon="19.6928267"><ele>8.0</ele><time>2026-05-03T10:01:19.718Z</time></trkpt><trkpt lat="40.92722" lon="19.692633"><ele>8.0</ele><time>2026-05-03T10:01:20.718Z</time></trkpt><trkpt lat="40.9273731" lon="19.6924409"><ele>8.0</ele><time>2026-05-03T10:01:21.718Z</time></trkpt><trkpt lat="40.927529" lon="19.6922517"><ele>8.0</ele><time>2026-05-03T10:01:22.717Z</time></trkpt><trkpt lat="40.9276852" lon="19.6920663"><ele>8.666666666666666</ele><time>2026-05-03T10:01:23.717Z</time></trkpt><trkpt lat="40.9278486" lon="19.6918752"><ele>9.333333333333334</ele><time>2026-05-03T10:01:24.718Z</time></trkpt><trkpt lat="40.9280137" lon="19.6916961"><ele>10.0</ele><time>2026-05-03T10:01:25.717Z</time></trkpt><trkpt lat="40.9281812" lon="19.6915099"><ele>10.0</ele><time>2026-05-03T10:01:26.718Z</time></trkpt><trkpt lat="40.9283498" lon="19.691321"><ele>10.0</ele><time>2026-05-03T10:01:27.718Z</time></trkpt><trkpt lat="40.9285159" lon="19.6911256"><ele>10.0</ele><time>2026-05-03T10:01:28.717Z</time></trkpt><trkpt lat="40.9286851" lon="19.6909341"><ele>10.333333333333334</ele><time>2026-05-03T10:01:29.717Z</time></trkpt><trkpt lat="40.9288539" lon="19.6907405"><ele>10.666666666666666</ele><time>2026-05-03T10:01:30.718Z</time></trkpt><trkpt lat="40.9290189" lon="19.6905516"><ele>11.0</ele><time>2026-05-03T10:01:31.718Z</time></trkpt><trkpt lat="40.9291886" lon="19.6903587"><ele>10.666666666666666</ele><time>2026-05-03T10:01:32.718Z</time></trkpt><trkpt lat="40.9293646" lon="19.6901648"><ele>10.333333333333334</ele><time>2026-05-03T10:01:33.718Z</time></trkpt><trkpt lat="40.9295338" lon="19.68998"><ele>10.0</ele><time>2026-05-03T10:01:34.718Z</time></trkpt><trkpt lat="40.9297053" lon="19.6897832"><ele>10.0</ele><time>2026-05-03T10:01:35.718Z</time></trkpt><trkpt lat="40.9298675" lon="19.6895922"><ele>10.0</ele><time>2026-05-03T10:01:36.718Z</time></trkpt><trkpt lat="40.9300272" lon="19.6893979"><ele>10.0</ele><time>2026-05-03T10:01:37.717Z</time></trkpt><trkpt lat="40.930192" lon="19.6891962"><ele>9.0</ele><time>2026-05-03T10:01:38.718Z</time></trkpt><trkpt lat="40.9303545" lon="19.6889915"><ele>8.0</ele><time>2026-05-03T10:01:39.718Z</time></trkpt><trkpt lat="40.9305217" lon="19.6887896"><ele>8.0</ele><time>2026-05-03T10:01:40.717Z</time></trkpt><trkpt lat="40.9306911" lon="19.6885929"><ele>8.0</ele><time>2026-05-03T10:01:41.718Z</time></trkpt><trkpt lat="40.9308604" lon="19.688403"><ele>8.0</ele><time>2026-05-03T10:01:42.718Z</time></trkpt><trkpt lat="40.9310389" lon="19.6882182"><ele>9.0</ele><time>2026-05-03T10:01:43.718Z</time></trkpt><trkpt lat="40.9312164" lon="19.6880312"><ele>10.0</ele><time>2026-05-03T10:01:44.717Z</time></trkpt><trkpt lat="40.931392" lon="19.6878283"><ele>10.5</ele><time>2026-05-03T10:01:45.718Z</time></trkpt><trkpt lat="40.9315695" lon="19.6876246"><ele>11.0</ele><time>2026-05-03T10:01:46.717Z</time></trkpt><trkpt lat="40.9317398" lon="19.6874366"><ele>11.0</ele><time>2026-05-03T10:01:47.717Z</time></trkpt><trkpt lat="40.931909" lon="19.6872545"><ele>11.0</ele><time>2026-05-03T10:01:48.718Z</time></trkpt><trkpt lat="40.9320763" lon="19.6870716"><ele>11.0</ele><time>2026-05-03T10:01:49.718Z</time></trkpt><trkpt lat="40.9322441" lon="19.6868784"><ele>10.333333333333332</ele><time>2026-05-03T10:01:50.718Z</time></trkpt><trkpt lat="40.932414" lon="19.6866915"><ele>9.666666666666666</ele><time>2026-05-03T10:01:51.718Z</time></trkpt><trkpt lat="40.9325821" lon="19.6865171"><ele>9.0</ele><time>2026-05-03T10:01:52.718Z</time></trkpt><trkpt lat="40.9327511" lon="19.6863378"><ele>9.0</ele><time>2026-05-03T10:01:53.717Z</time></trkpt><trkpt lat="40.9329222" lon="19.6861598"><ele>9.0</ele><time>2026-05-03T10:01:54.718Z</time></trkpt><trkpt lat="40.9330912" lon="19.6859918"><ele>9.0</ele><time>2026-05-03T10:01:55.718Z</time></trkpt><trkpt lat="40.9332635" lon="19.6858325"><ele>9.666666666666666</ele><time>2026-05-03T10:01:56.717Z</time></trkpt><trkpt lat="40.9334342" lon="19.6856697"><ele>10.333333333333332</ele><time>2026-05-03T10:01:57.717Z</time></trkpt><trkpt lat="40.9336076" lon="19.6855117"><ele>11.0</ele><time>2026-05-03T10:01:58.718Z</time></trkpt><trkpt lat="40.9337742" lon="19.6853535"><ele>11.0</ele><time>2026-05-03T10:01:59.718Z</time></trkpt><trkpt lat="40.9339441" lon="19.6852106"><ele>11.0</ele><time>2026-05-03T10:02:00.717Z</time></trkpt><trkpt lat="40.9341261" lon="19.6850477"><ele>11.0</ele><time>2026-05-03T10:02:01.718Z</time></trkpt><trkpt lat="40.9343005" lon="19.6848861"><ele>11.0</ele><time>2026-05-03T10:02:02.718Z</time></trkpt><trkpt lat="40.9344779" lon="19.6847363"><ele>11.0</ele><time>2026-05-03T10:02:03.717Z</time></trkpt><trkpt lat="40.9346584" lon="19.6845899"><ele>11.0</ele><time>2026-05-03T10:02:04.717Z</time></trkpt><trkpt lat="40.9348387" lon="19.6844512"><ele>11.0</ele><time>2026-05-03T10:02:05.718Z</time></trkpt><trkpt lat="40.9350187" lon="19.6843144"><ele>11.0</ele><time>2026-05-03T10:02:06.718Z</time></trkpt><trkpt lat="40.9352013" lon="19.6841894"><ele>11.0</ele><time>2026-05-03T10:02:07.718Z</time></trkpt><trkpt lat="40.9353824" lon="19.6840669"><ele>11.333333333333332</ele><time>2026-05-03T10:02:08.717Z</time></trkpt><trkpt lat="40.9355677" lon="19.6839444"><ele>11.666666666666666</ele><time>2026-05-03T10:02:09.718Z</time></trkpt><trkpt lat="40.9357553" lon="19.6838198"><ele>12.0</ele><time>2026-05-03T10:02:10.717Z</time></trkpt><trkpt lat="40.9359444" lon="19.6836994"><ele>11.0</ele><time>2026-05-03T10:02:11.717Z</time></trkpt><trkpt lat="40.9361344" lon="19.683584"><ele>10.0</ele><time>2026-05-03T10:02:12.718Z</time></trkpt><trkpt lat="40.9363238" lon="19.6834701"><ele>9.0</ele><time>2026-05-03T10:02:13.718Z</time></trkpt><trkpt lat="40.9365187" lon="19.6833576"><ele>9.0</ele><time>2026-05-03T10:02:14.718Z</time></trkpt><trkpt lat="40.9367112" lon="19.6832443"><ele>9.0</ele><time>2026-05-03T10:02:15.717Z</time></trkpt><trkpt lat="40.936903" lon="19.6831286"><ele>9.0</ele><time>2026-05-03T10:02:16.717Z</time></trkpt><trkpt lat="40.9371008" lon="19.6830266"><ele>9.666666666666666</ele><time>2026-05-03T10:02:17.718Z</time></trkpt><trkpt lat="40.9372981" lon="19.6829212"><ele>10.333333333333332</ele><time>2026-05-03T10:02:18.717Z</time></trkpt><trkpt lat="40.9375007" lon="19.6828211"><ele>11.0</ele><time>2026-05-03T10:02:19.718Z</time></trkpt><trkpt lat="40.9377037" lon="19.68271"><ele>11.333333333333332</ele><time>2026-05-03T10:02:20.718Z</time></trkpt><trkpt lat="40.9379078" lon="19.6826151"><ele>11.666666666666666</ele><time>2026-05-03T10:02:21.717Z</time></trkpt><trkpt lat="40.9381115" lon="19.6825173"><ele>12.0</ele><time>2026-05-03T10:02:22.718Z</time></trkpt><trkpt lat="40.9383163" lon="19.6824259"><ele>12.0</ele><time>2026-05-03T10:02:23.718Z</time></trkpt><trkpt lat="40.9385233" lon="19.6823313"><ele>12.0</ele><time>2026-05-03T10:02:24.717Z</time></trkpt><trkpt lat="40.9387355" lon="19.6822486"><ele>12.0</ele><time>2026-05-03T10:02:25.717Z</time></trkpt><trkpt lat="40.9389524" lon="19.6821655"><ele>12.0</ele><time>2026-05-03T10:02:26.718Z</time></trkpt><trkpt lat="40.9391627" lon="19.6820784"><ele>12.0</ele><time>2026-05-03T10:02:27.718Z</time></trkpt><trkpt lat="40.9393682" lon="19.6820055"><ele>12.0</ele><time>2026-05-03T10:02:28.717Z</time></trkpt><trkpt lat="40.939578" lon="19.6819319"><ele>12.333333333333332</ele><time>2026-05-03T10:02:29.717Z</time></trkpt><trkpt lat="40.9397876" lon="19.6818675"><ele>12.666666666666666</ele><time>2026-05-03T10:02:30.718Z</time></trkpt><trkpt lat="40.9400026" lon="19.681808"><ele>13.0</ele><time>2026-05-03T10:02:31.717Z</time></trkpt><trkpt lat="40.9402224" lon="19.6817572"><ele>14.5</ele><time>2026-05-03T10:02:32.717Z</time></trkpt><trkpt lat="40.9404455" lon="19.6816901"><ele>16.0</ele><time>2026-05-03T10:02:33.718Z</time></trkpt><trkpt lat="40.9406624" lon="19.6816241"><ele>13.5</ele><time>2026-05-03T10:02:34.718Z</time></trkpt><trkpt lat="40.9408861" lon="19.6815643"><ele>11.0</ele><time>2026-05-03T10:02:35.718Z</time></trkpt><trkpt lat="40.9411219" lon="19.6815072"><ele>11.0</ele><time>2026-05-03T10:02:36.718Z</time></trkpt><trkpt lat="40.9413466" lon="19.6814621"><ele>11.0</ele><time>2026-05-03T10:02:37.718Z</time></trkpt><trkpt lat="40.9415703" lon="19.6814244"><ele>12.0</ele><time>2026-05-03T10:02:38.718Z</time></trkpt><trkpt lat="40.9417931" lon="19.6813843"><ele>13.0</ele><time>2026-05-03T10:02:39.718Z</time></trkpt><trkpt lat="40.9420252" lon="19.6813425"><ele>13.0</ele><time>2026-05-03T10:02:40.717Z</time></trkpt><trkpt lat="40.9422483" lon="19.6813"><ele>13.0</ele><time>2026-05-03T10:02:41.717Z</time></trkpt><trkpt lat="40.9424677" lon="19.6812725"><ele>13.0</ele><time>2026-05-03T10:02:42.717Z</time></trkpt><trkpt lat="40.9426903" lon="19.6812528"><ele>12.5</ele><time>2026-05-03T10:02:43.718Z</time></trkpt><trkpt lat="40.9429162" lon="19.6812293"><ele>12.0</ele><time>2026-05-03T10:02:44.718Z</time></trkpt><trkpt lat="40.9431461" lon="19.6812119"><ele>12.0</ele><time>2026-05-03T10:02:45.717Z</time></trkpt><trkpt lat="40.9433767" lon="19.6811916"><ele>12.0</ele><time>2026-05-03T10:02:46.717Z</time></trkpt><trkpt lat="40.9436021" lon="19.6811856"><ele>11.5</ele><time>2026-05-03T10:02:47.717Z</time></trkpt><trkpt lat="40.9438315" lon="19.6811874"><ele>11.0</ele><time>2026-05-03T10:02:48.717Z</time></trkpt><trkpt lat="40.9440586" lon="19.6811859"><ele>10.5</ele><time>2026-05-03T10:02:49.717Z</time></trkpt><trkpt lat="40.9442839" lon="19.6811778"><ele>10.0</ele><time>2026-05-03T10:02:50.717Z</time></trkpt><trkpt lat="40.9445105" lon="19.6811781"><ele>10.0</ele><time>2026-05-03T10:02:51.718Z</time></trkpt><trkpt lat="40.944733" lon="19.6811757"><ele>10.0</ele><time>2026-05-03T10:02:52.717Z</time></trkpt><trkpt lat="40.9449558" lon="19.6811732"><ele>10.0</ele><time>2026-05-03T10:02:53.718Z</time></trkpt><trkpt lat="40.9451786" lon="19.6811634"><ele>10.0</ele><time>2026-05-03T10:02:54.718Z</time></trkpt><trkpt lat="40.9454037" lon="19.68117"><ele>10.0</ele><time>2026-05-03T10:02:55.717Z</time></trkpt><trkpt lat="40.9456332" lon="19.6811788"><ele>10.0</ele><time>2026-05-03T10:02:56.717Z</time></trkpt><trkpt lat="40.9458595" lon="19.68119"><ele>10.0</ele><time>2026-05-03T10:02:57.717Z</time></trkpt><trkpt lat="40.9460863" lon="19.6812111"><ele>10.5</ele><time>2026-05-03T10:02:58.717Z</time></trkpt><trkpt lat="40.9463113" lon="19.6812267"><ele>11.0</ele><time>2026-05-03T10:02:59.717Z</time></trkpt><trkpt lat="40.9465355" lon="19.6812532"><ele>11.333333333333332</ele><time>2026-05-03T10:03:00.718Z</time></trkpt><trkpt lat="40.9467557" lon="19.6812809"><ele>11.666666666666666</ele><time>2026-05-03T10:03:01.718Z</time></trkpt><trkpt lat="40.9469737" lon="19.6813192"><ele>12.0</ele><time>2026-05-03T10:03:02.717Z</time></trkpt><trkpt lat="40.9471923" lon="19.6813675"><ele>12.0</ele><time>2026-05-03T10:03:03.717Z</time></trkpt><trkpt lat="40.9474117" lon="19.6814252"><ele>12.0</ele><time>2026-05-03T10:03:04.718Z</time></trkpt><trkpt lat="40.9476261" lon="19.6814804"><ele>12.0</ele><time>2026-05-03T10:03:05.717Z</time></trkpt><trkpt lat="40.9478441" lon="19.6815554"><ele>11.333333333333334</ele><time>2026-05-03T10:03:06.718Z</time></trkpt><trkpt lat="40.9480517" lon="19.6816207"><ele>10.666666666666668</ele><time>2026-05-03T10:03:07.717Z</time></trkpt><trkpt lat="40.9482603" lon="19.6817082"><ele>10.0</ele><time>2026-05-03T10:03:08.717Z</time></trkpt><trkpt lat="40.9484668" lon="19.6818018"><ele>10.0</ele><time>2026-05-03T10:03:09.718Z</time></trkpt><trkpt lat="40.9486814" lon="19.6818917"><ele>10.0</ele><time>2026-05-03T10:03:10.717Z</time></trkpt><trkpt lat="40.9488785" lon="19.6820021"><ele>10.0</ele><time>2026-05-03T10:03:11.718Z</time></trkpt><trkpt lat="40.9490772" lon="19.6821125"><ele>9.666666666666668</ele><time>2026-05-03T10:03:12.718Z</time></trkpt><trkpt lat="40.9492764" lon="19.6822359"><ele>9.333333333333334</ele><time>2026-05-03T10:03:13.717Z</time></trkpt><trkpt lat="40.9494726" lon="19.6823593"><ele>9.0</ele><time>2026-05-03T10:03:14.718Z</time></trkpt><trkpt lat="40.9496653" lon="19.6824967"><ele>9.0</ele><time>2026-05-03T10:03:15.717Z</time></trkpt><trkpt lat="40.9498618" lon="19.6826349"><ele>9.0</ele><time>2026-05-03T10:03:16.717Z</time></trkpt><trkpt lat="40.9500508" lon="19.6827833"><ele>9.0</ele><time>2026-05-03T10:03:17.718Z</time></trkpt><trkpt lat="40.9502381" lon="19.6829283"><ele>9.0</ele><time>2026-05-03T10:03:18.718Z</time></trkpt><trkpt lat="40.9504241" lon="19.6830729"><ele>9.0</ele><time>2026-05-03T10:03:19.717Z</time></trkpt><trkpt lat="40.9506121" lon="19.6832266"><ele>9.0</ele><time>2026-05-03T10:03:20.717Z</time></trkpt><trkpt lat="40.9507917" lon="19.6833898"><ele>9.666666666666666</ele><time>2026-05-03T10:03:21.718Z</time></trkpt><trkpt lat="40.9509691" lon="19.6835563"><ele>10.333333333333332</ele><time>2026-05-03T10:03:22.718Z</time></trkpt><trkpt lat="40.9511437" lon="19.6837166"><ele>11.0</ele><time>2026-05-03T10:03:23.717Z</time></trkpt><trkpt lat="40.9513155" lon="19.6838927"><ele>11.0</ele><time>2026-05-03T10:03:24.718Z</time></trkpt><trkpt lat="40.9514786" lon="19.6840734"><ele>11.0</ele><time>2026-05-03T10:03:25.717Z</time></trkpt><trkpt lat="40.9516433" lon="19.6842554"><ele>11.0</ele><time>2026-05-03T10:03:26.717Z</time></trkpt><trkpt lat="40.9518097" lon="19.6844396"><ele>10.666666666666666</ele><time>2026-05-03T10:03:27.718Z</time></trkpt><trkpt lat="40.9519737" lon="19.6846207"><ele>10.333333333333334</ele><time>2026-05-03T10:03:28.718Z</time></trkpt><trkpt lat="40.9521489" lon="19.6848019"><ele>10.0</ele><time>2026-05-03T10:03:29.718Z</time></trkpt><trkpt lat="40.9523206" lon="19.6849817"><ele>10.0</ele><time>2026-05-03T10:03:30.718Z</time></trkpt><trkpt lat="40.952494" lon="19.6851537"><ele>10.0</ele><time>2026-05-03T10:03:31.717Z</time></trkpt><trkpt lat="40.9526698" lon="19.68532"><ele>10.0</ele><time>2026-05-03T10:03:32.718Z</time></trkpt><trkpt lat="40.9528469" lon="19.6854849"><ele>10.666666666666668</ele><time>2026-05-03T10:03:33.717Z</time></trkpt><trkpt lat="40.9530297" lon="19.6856344"><ele>11.333333333333334</ele><time>2026-05-03T10:03:34.718Z</time></trkpt><trkpt lat="40.953208" lon="19.6857689"><ele>12.0</ele><time>2026-05-03T10:03:35.718Z</time></trkpt><trkpt lat="40.9533983" lon="19.6858864"><ele>12.0</ele><time>2026-05-03T10:03:36.718Z</time></trkpt><trkpt lat="40.9535917" lon="19.6859835"><ele>12.0</ele><time>2026-05-03T10:03:37.718Z</time></trkpt><trkpt lat="40.9537922" lon="19.6860496"><ele>12.0</ele><time>2026-05-03T10:03:38.717Z</time></trkpt><trkpt lat="40.9539674" lon="19.6861112"><ele>12.333333333333332</ele><time>2026-05-03T10:03:39.717Z</time></trkpt><trkpt lat="40.9541473" lon="19.6861508"><ele>12.666666666666666</ele><time>2026-05-03T10:03:40.717Z</time></trkpt><trkpt lat="40.9543165" lon="19.6861856"><ele>13.0</ele><time>2026-05-03T10:03:41.718Z</time></trkpt><trkpt lat="40.9544741" lon="19.6862133"><ele>12.75</ele><time>2026-05-03T10:03:42.717Z</time></trkpt><trkpt lat="40.9546276" lon="19.6862284"><ele>12.5</ele><time>2026-05-03T10:03:43.717Z</time></trkpt><trkpt lat="40.9547759" lon="19.6862416"><ele>12.25</ele><time>2026-05-03T10:03:44.717Z</time></trkpt><trkpt lat="40.9549144" lon="19.6862537"><ele>12.0</ele><time>2026-05-03T10:03:45.718Z</time></trkpt><trkpt lat="40.955043" lon="19.686251"><ele>12.0</ele><time>2026-05-03T10:03:46.717Z</time></trkpt><trkpt lat="40.9551588" lon="19.6862628"><ele>12.0</ele><time>2026-05-03T10:03:47.718Z</time></trkpt><trkpt lat="40.9552608" lon="19.6862695"><ele>12.0</ele><time>2026-05-03T10:03:48.717Z</time></trkpt><trkpt lat="40.9553539" lon="19.6862874"><ele>12.0</ele><time>2026-05-03T10:03:49.717Z</time></trkpt><trkpt lat="40.9554328" lon="19.6863061"><ele>12.0</ele><time>2026-05-03T10:03:50.718Z</time></trkpt><trkpt lat="40.9555119" lon="19.6863308"><ele>12.0</ele><time>2026-05-03T10:03:51.717Z</time></trkpt><trkpt lat="40.9555797" lon="19.6863647"><ele>12.0</ele><time>2026-05-03T10:03:52.717Z</time></trkpt><trkpt lat="40.955644" lon="19.6863919"><ele>12.0</ele><time>2026-05-03T10:03:53.718Z</time></trkpt><trkpt lat="40.9557548" lon="19.6863994"><ele>12.0</ele><time>2026-05-03T10:03:55.718Z</time></trkpt><trkpt lat="40.9558664" lon="19.686344"><ele>12.0</ele><time>2026-05-03T10:03:57.718Z</time></trkpt><trkpt lat="40.9560021" lon="19.6862889"><ele>11.75</ele><time>2026-05-03T10:03:59.718Z</time></trkpt><trkpt lat="40.956085" lon="19.6862717"><ele>11.5</ele><time>2026-05-03T10:04:00.718Z</time></trkpt><trkpt lat="40.9561898" lon="19.6862195"><ele>11.25</ele><time>2026-05-03T10:04:01.718Z</time></trkpt><trkpt lat="40.9563218" lon="19.68619"><ele>11.0</ele><time>2026-05-03T10:04:02.718Z</time></trkpt><trkpt lat="40.9564612" lon="19.6861541"><ele>11.333333333333332</ele><time>2026-05-03T10:04:03.717Z</time></trkpt><trkpt lat="40.9566119" lon="19.6860917"><ele>11.666666666666666</ele><time>2026-05-03T10:04:04.717Z</time></trkpt><trkpt lat="40.9567743" lon="19.6860291"><ele>12.0</ele><time>2026-05-03T10:04:05.717Z</time></trkpt><trkpt lat="40.9569508" lon="19.685926"><ele>12.666666666666668</ele><time>2026-05-03T10:04:06.718Z</time></trkpt><trkpt lat="40.9571246" lon="19.6858096"><ele>13.333333333333334</ele><time>2026-05-03T10:04:07.718Z</time></trkpt><trkpt lat="40.9573069" lon="19.6856824"><ele>14.0</ele><time>2026-05-03T10:04:08.717Z</time></trkpt><trkpt lat="40.9574926" lon="19.6855559"><ele>13.333333333333334</ele><time>2026-05-03T10:04:09.718Z</time></trkpt><trkpt lat="40.9576722" lon="19.6854232"><ele>12.666666666666668</ele><time>2026-05-03T10:04:10.717Z</time></trkpt><trkpt lat="40.957852" lon="19.6852931"><ele>12.0</ele><time>2026-05-03T10:04:11.717Z</time></trkpt><trkpt lat="40.9580301" lon="19.6851431"><ele>11.666666666666666</ele><time>2026-05-03T10:04:12.717Z</time></trkpt><trkpt lat="40.958212" lon="19.6850013"><ele>11.333333333333332</ele><time>2026-05-03T10:04:13.717Z</time></trkpt><trkpt lat="40.9583879" lon="19.6848542"><ele>11.0</ele><time>2026-05-03T10:04:14.717Z</time></trkpt><trkpt lat="40.958568" lon="19.6847074"><ele>11.0</ele><time>2026-05-03T10:04:15.718Z</time></trkpt><trkpt lat="40.9587509" lon="19.6845632"><ele>11.0</ele><time>2026-05-03T10:04:16.717Z</time></trkpt><trkpt lat="40.9589307" lon="19.6844166"><ele>11.0</ele><time>2026-05-03T10:04:17.717Z</time></trkpt><trkpt lat="40.9590998" lon="19.6842777"><ele>11.333333333333332</ele><time>2026-05-03T10:04:18.718Z</time></trkpt><trkpt lat="40.9592741" lon="19.6841346"><ele>11.666666666666666</ele><time>2026-05-03T10:04:19.717Z</time></trkpt><trkpt lat="40.9594462" lon="19.6839881"><ele>12.0</ele><time>2026-05-03T10:04:20.717Z</time></trkpt><trkpt lat="40.9596135" lon="19.6838519"><ele>12.0</ele><time>2026-05-03T10:04:21.717Z</time></trkpt><trkpt lat="40.9597795" lon="19.6837208"><ele>12.0</ele><time>2026-05-03T10:04:22.717Z</time></trkpt><trkpt lat="40.9599448" lon="19.6835949"><ele>12.0</ele><time>2026-05-03T10:04:23.717Z</time></trkpt><trkpt lat="40.9601079" lon="19.6834553"><ele>12.666666666666668</ele><time>2026-05-03T10:04:24.718Z</time></trkpt><trkpt lat="40.9602692" lon="19.6833178"><ele>13.333333333333334</ele><time>2026-05-03T10:04:25.717Z</time></trkpt><trkpt lat="40.9604293" lon="19.6831825"><ele>14.0</ele><time>2026-05-03T10:04:26.717Z</time></trkpt><trkpt lat="40.9605834" lon="19.6830291"><ele>14.0</ele><time>2026-05-03T10:04:27.718Z</time></trkpt><trkpt lat="40.9607416" lon="19.6828972"><ele>14.0</ele><time>2026-05-03T10:04:28.717Z</time></trkpt><trkpt lat="40.960893" lon="19.6827689"><ele>14.0</ele><time>2026-05-03T10:04:29.717Z</time></trkpt><trkpt lat="40.9610553" lon="19.6826356"><ele>14.0</ele><time>2026-05-03T10:04:30.718Z</time></trkpt><trkpt lat="40.9612138" lon="19.6825018"><ele>14.0</ele><time>2026-05-03T10:04:31.718Z</time></trkpt><trkpt lat="40.96137" lon="19.6823849"><ele>14.0</ele><time>2026-05-03T10:04:32.717Z</time></trkpt><trkpt lat="40.9615228" lon="19.682259"><ele>14.0</ele><time>2026-05-03T10:04:33.717Z</time></trkpt><trkpt lat="40.9616617" lon="19.6821345"><ele>14.0</ele><time>2026-05-03T10:04:34.717Z</time></trkpt><trkpt lat="40.9618013" lon="19.6820243"><ele>14.0</ele><time>2026-05-03T10:04:35.718Z</time></trkpt><trkpt lat="40.9619476" lon="19.6819089"><ele>12.333333333333334</ele><time>2026-05-03T10:04:36.718Z</time></trkpt><trkpt lat="40.9620988" lon="19.681776"><ele>10.666666666666668</ele><time>2026-05-03T10:04:37.717Z</time></trkpt><trkpt lat="40.9622605" lon="19.6816318"><ele>9.0</ele><time>2026-05-03T10:04:38.717Z</time></trkpt><trkpt lat="40.9624299" lon="19.6814747"><ele>8.666666666666666</ele><time>2026-05-03T10:04:39.717Z</time></trkpt><trkpt lat="40.9626126" lon="19.6813159"><ele>8.333333333333332</ele><time>2026-05-03T10:04:40.717Z</time></trkpt><trkpt lat="40.9628059" lon="19.6811657"><ele>8.0</ele><time>2026-05-03T10:04:41.718Z</time></trkpt><trkpt lat="40.9629899" lon="19.6810162"><ele>8.0</ele><time>2026-05-03T10:04:42.717Z</time></trkpt><trkpt lat="40.9631783" lon="19.6808697"><ele>8.0</ele><time>2026-05-03T10:04:43.717Z</time></trkpt><trkpt lat="40.9633646" lon="19.6807248"><ele>8.0</ele><time>2026-05-03T10:04:44.717Z</time></trkpt><trkpt lat="40.9635514" lon="19.6805695"><ele>7.666666666666666</ele><time>2026-05-03T10:04:45.718Z</time></trkpt><trkpt lat="40.9637286" lon="19.6804196"><ele>7.333333333333334</ele><time>2026-05-03T10:04:46.718Z</time></trkpt><trkpt lat="40.9639054" lon="19.6802813"><ele>7.0</ele><time>2026-05-03T10:04:47.718Z</time></trkpt><trkpt lat="40.964083" lon="19.6801402"><ele>6.666666666666667</ele><time>2026-05-03T10:04:48.718Z</time></trkpt><trkpt lat="40.9642596" lon="19.6799962"><ele>6.333333333333334</ele><time>2026-05-03T10:04:49.718Z</time></trkpt><trkpt lat="40.9644314" lon="19.6798564"><ele>6.0</ele><time>2026-05-03T10:04:50.718Z</time></trkpt><trkpt lat="40.9646099" lon="19.679733"><ele>6.0</ele><time>2026-05-03T10:04:51.718Z</time></trkpt><trkpt lat="40.964788" lon="19.6795901"><ele>6.0</ele><time>2026-05-03T10:04:52.717Z</time></trkpt><trkpt lat="40.9649671" lon="19.6794383"><ele>6.0</ele><time>2026-05-03T10:04:53.717Z</time></trkpt><trkpt lat="40.9651415" lon="19.6793047"><ele>6.333333333333334</ele><time>2026-05-03T10:04:54.717Z</time></trkpt><trkpt lat="40.9653184" lon="19.6791598"><ele>6.666666666666667</ele><time>2026-05-03T10:04:55.718Z</time></trkpt><trkpt lat="40.9654973" lon="19.6790158"><ele>7.0</ele><time>2026-05-03T10:04:56.717Z</time></trkpt><trkpt lat="40.9656789" lon="19.6788672"><ele>7.0</ele><time>2026-05-03T10:04:57.717Z</time></trkpt><trkpt lat="40.9658535" lon="19.6787248"><ele>7.0</ele><time>2026-05-03T10:04:58.717Z</time></trkpt><trkpt lat="40.96602" lon="19.6785853"><ele>7.0</ele><time>2026-05-03T10:04:59.717Z</time></trkpt><trkpt lat="40.9661824" lon="19.678455"><ele>6.333333333333334</ele><time>2026-05-03T10:05:00.717Z</time></trkpt><trkpt lat="40.9663443" lon="19.6783289"><ele>5.666666666666667</ele><time>2026-05-03T10:05:01.718Z</time></trkpt><trkpt lat="40.9664993" lon="19.6782109"><ele>5.0</ele><time>2026-05-03T10:05:02.717Z</time></trkpt><trkpt lat="40.9666608" lon="19.6780737"><ele>5.333333333333334</ele><time>2026-05-03T10:05:03.717Z</time></trkpt><trkpt lat="40.9668222" lon="19.6779477"><ele>5.666666666666667</ele><time>2026-05-03T10:05:04.718Z</time></trkpt><trkpt lat="40.9669828" lon="19.6778067"><ele>6.0</ele><time>2026-05-03T10:05:05.717Z</time></trkpt><trkpt lat="40.9671494" lon="19.6776705"><ele>6.0</ele><time>2026-05-03T10:05:06.717Z</time></trkpt><trkpt lat="40.9673132" lon="19.6775399"><ele>6.0</ele><time>2026-05-03T10:05:07.717Z</time></trkpt><trkpt lat="40.967479" lon="19.6774073"><ele>6.0</ele><time>2026-05-03T10:05:08.718Z</time></trkpt><trkpt lat="40.9676537" lon="19.6772734"><ele>6.666666666666666</ele><time>2026-05-03T10:05:09.718Z</time></trkpt><trkpt lat="40.9678348" lon="19.6771331"><ele>7.333333333333333</ele><time>2026-05-03T10:05:10.718Z</time></trkpt><trkpt lat="40.9680137" lon="19.676988"><ele>8.0</ele><time>2026-05-03T10:05:11.718Z</time></trkpt><trkpt lat="40.9681918" lon="19.676848"><ele>8.666666666666666</ele><time>2026-05-03T10:05:12.717Z</time></trkpt><trkpt lat="40.9683754" lon="19.6767013"><ele>9.333333333333334</ele><time>2026-05-03T10:05:13.718Z</time></trkpt><trkpt lat="40.968565" lon="19.6765677"><ele>10.0</ele><time>2026-05-03T10:05:14.718Z</time></trkpt><trkpt lat="40.9687429" lon="19.6764291"><ele>10.0</ele><time>2026-05-03T10:05:15.717Z</time></trkpt><trkpt lat="40.9689329" lon="19.6762994"><ele>10.0</ele><time>2026-05-03T10:05:16.717Z</time></trkpt><trkpt lat="40.9691217" lon="19.6761718"><ele>10.0</ele><time>2026-05-03T10:05:17.717Z</time></trkpt><trkpt lat="40.9693028" lon="19.6760453"><ele>8.666666666666668</ele><time>2026-05-03T10:05:18.718Z</time></trkpt><trkpt lat="40.9694753" lon="19.6759218"><ele>7.333333333333334</ele><time>2026-05-03T10:05:19.718Z</time></trkpt><trkpt lat="40.9696355" lon="19.6758072"><ele>6.0</ele><time>2026-05-03T10:05:20.718Z</time></trkpt><trkpt lat="40.9697967" lon="19.6756964"><ele>6.0</ele><time>2026-05-03T10:05:21.717Z</time></trkpt><trkpt lat="40.9699478" lon="19.6755919"><ele>6.0</ele><time>2026-05-03T10:05:22.718Z</time></trkpt><trkpt lat="40.9700897" lon="19.6754925"><ele>6.0</ele><time>2026-05-03T10:05:23.717Z</time></trkpt><trkpt lat="40.9702266" lon="19.6753982"><ele>5.666666666666667</ele><time>2026-05-03T10:05:24.717Z</time></trkpt><trkpt lat="40.9703711" lon="19.6753023"><ele>5.333333333333334</ele><time>2026-05-03T10:05:25.718Z</time></trkpt><trkpt lat="40.9705091" lon="19.6752007"><ele>5.0</ele><time>2026-05-03T10:05:26.717Z</time></trkpt><trkpt lat="40.9706698" lon="19.6750819"><ele>5.0</ele><time>2026-05-03T10:05:27.717Z</time></trkpt><trkpt lat="40.9708455" lon="19.6749635"><ele>5.0</ele><time>2026-05-03T10:05:28.718Z</time></trkpt><trkpt lat="40.9710352" lon="19.6748524"><ele>5.0</ele><time>2026-05-03T10:05:29.717Z</time></trkpt><trkpt lat="40.9712279" lon="19.6747425"><ele>5.333333333333334</ele><time>2026-05-03T10:05:30.718Z</time></trkpt><trkpt lat="40.9714216" lon="19.6746311"><ele>5.666666666666667</ele><time>2026-05-03T10:05:31.717Z</time></trkpt><trkpt lat="40.9716149" lon="19.6745119"><ele>6.0</ele><time>2026-05-03T10:05:32.717Z</time></trkpt><trkpt lat="40.9718049" lon="19.6743917"><ele>6.0</ele><time>2026-05-03T10:05:33.717Z</time></trkpt><trkpt lat="40.9719917" lon="19.6742605"><ele>6.0</ele><time>2026-05-03T10:05:34.718Z</time></trkpt><trkpt lat="40.9721796" lon="19.6741341"><ele>6.0</ele><time>2026-05-03T10:05:35.718Z</time></trkpt><trkpt lat="40.9723671" lon="19.6740174"><ele>6.0</ele><time>2026-05-03T10:05:36.717Z</time></trkpt><trkpt lat="40.972562" lon="19.6738932"><ele>6.0</ele><time>2026-05-03T10:05:37.717Z</time></trkpt><trkpt lat="40.9727464" lon="19.6737759"><ele>6.0</ele><time>2026-05-03T10:05:38.717Z</time></trkpt><trkpt lat="40.9729382" lon="19.6736523"><ele>5.666666666666667</ele><time>2026-05-03T10:05:39.717Z</time></trkpt><trkpt lat="40.9731241" lon="19.6735236"><ele>5.333333333333334</ele><time>2026-05-03T10:05:40.717Z</time></trkpt><trkpt lat="40.9733136" lon="19.6733986"><ele>5.0</ele><time>2026-05-03T10:05:41.717Z</time></trkpt><trkpt lat="40.9735038" lon="19.6732716"><ele>5.0</ele><time>2026-05-03T10:05:42.718Z</time></trkpt><trkpt lat="40.9736918" lon="19.6731396"><ele>5.0</ele><time>2026-05-03T10:05:43.718Z</time></trkpt><trkpt lat="40.9738763" lon="19.6730059"><ele>5.0</ele><time>2026-05-03T10:05:44.717Z</time></trkpt><trkpt lat="40.974064" lon="19.672875"><ele>4.666666666666667</ele><time>2026-05-03T10:05:45.718Z</time></trkpt><trkpt lat="40.9742432" lon="19.6727498"><ele>4.333333333333333</ele><time>2026-05-03T10:05:46.717Z</time></trkpt><trkpt lat="40.9744297" lon="19.6726136"><ele>4.0</ele><time>2026-05-03T10:05:47.718Z</time></trkpt><trkpt lat="40.9746137" lon="19.6724701"><ele>4.0</ele><time>2026-05-03T10:05:48.718Z</time></trkpt><trkpt lat="40.9747994" lon="19.6723353"><ele>4.0</ele><time>2026-05-03T10:05:49.718Z</time></trkpt><trkpt lat="40.9749864" lon="19.6722036"><ele>4.0</ele><time>2026-05-03T10:05:50.717Z</time></trkpt><trkpt lat="40.975174" lon="19.6720686"><ele>4.666666666666666</ele><time>2026-05-03T10:05:51.718Z</time></trkpt><trkpt lat="40.9753597" lon="19.6719368"><ele>5.333333333333333</ele><time>2026-05-03T10:05:52.718Z</time></trkpt><trkpt lat="40.9755481" lon="19.6718101"><ele>6.0</ele><time>2026-05-03T10:05:53.718Z</time></trkpt><trkpt lat="40.9757379" lon="19.6716801"><ele>6.666666666666666</ele><time>2026-05-03T10:05:54.718Z</time></trkpt><trkpt lat="40.9759226" lon="19.6715487"><ele>7.333333333333333</ele><time>2026-05-03T10:05:55.717Z</time></trkpt><trkpt lat="40.9761085" lon="19.6714246"><ele>8.0</ele><time>2026-05-03T10:05:56.718Z</time></trkpt><trkpt lat="40.9762947" lon="19.6713014"><ele>8.0</ele><time>2026-05-03T10:05:57.718Z</time></trkpt><trkpt lat="40.9764856" lon="19.6711832"><ele>8.0</ele><time>2026-05-03T10:05:58.717Z</time></trkpt><trkpt lat="40.9766727" lon="19.6710661"><ele>8.0</ele><time>2026-05-03T10:05:59.717Z</time></trkpt><trkpt lat="40.9768671" lon="19.6709547"><ele>8.333333333333332</ele><time>2026-05-03T10:06:00.718Z</time></trkpt><trkpt lat="40.9770584" lon="19.6708409"><ele>8.666666666666666</ele><time>2026-05-03T10:06:01.717Z</time></trkpt><trkpt lat="40.9772475" lon="19.6707317"><ele>9.0</ele><time>2026-05-03T10:06:02.718Z</time></trkpt><trkpt lat="40.9774355" lon="19.6706309"><ele>9.333333333333334</ele><time>2026-05-03T10:06:03.718Z</time></trkpt><trkpt lat="40.9776308" lon="19.6705325"><ele>9.666666666666668</ele><time>2026-05-03T10:06:04.717Z</time></trkpt><trkpt lat="40.9778274" lon="19.6704326"><ele>10.0</ele><time>2026-05-03T10:06:05.717Z</time></trkpt><trkpt lat="40.9780267" lon="19.670331"><ele>7.666666666666667</ele><time>2026-05-03T10:06:06.718Z</time></trkpt><trkpt lat="40.9782327" lon="19.6702286"><ele>5.333333333333334</ele><time>2026-05-03T10:06:07.717Z</time></trkpt><trkpt lat="40.9784417" lon="19.6701325"><ele>3.0</ele><time>2026-05-03T10:06:08.717Z</time></trkpt><trkpt lat="40.9786609" lon="19.6700172"><ele>3.0</ele><time>2026-05-03T10:06:09.717Z</time></trkpt><trkpt lat="40.9788827" lon="19.6699171"><ele>3.0</ele><time>2026-05-03T10:06:10.717Z</time></trkpt><trkpt lat="40.9791101" lon="19.6698294"><ele>3.5</ele><time>2026-05-03T10:06:11.718Z</time></trkpt><trkpt lat="40.9793393" lon="19.6697467"><ele>4.0</ele><time>2026-05-03T10:06:12.718Z</time></trkpt><trkpt lat="40.979569" lon="19.6696665"><ele>4.0</ele><time>2026-05-03T10:06:13.718Z</time></trkpt><trkpt lat="40.9797969" lon="19.6695988"><ele>4.0</ele><time>2026-05-03T10:06:14.717Z</time></trkpt><trkpt lat="40.9800207" lon="19.6695247"><ele>5.0</ele><time>2026-05-03T10:06:15.717Z</time></trkpt><trkpt lat="40.9802531" lon="19.6694519"><ele>6.0</ele><time>2026-05-03T10:06:16.717Z</time></trkpt><trkpt lat="40.9804809" lon="19.6693607"><ele>4.5</ele><time>2026-05-03T10:06:17.718Z</time></trkpt><trkpt lat="40.9807116" lon="19.6693004"><ele>3.0</ele><time>2026-05-03T10:06:18.718Z</time></trkpt><trkpt lat="40.9809401" lon="19.6692439"><ele>3.0</ele><time>2026-05-03T10:06:19.718Z</time></trkpt><trkpt lat="40.9811733" lon="19.6691864"><ele>3.0</ele><time>2026-05-03T10:06:20.717Z</time></trkpt><trkpt lat="40.9814045" lon="19.6691342"><ele>3.0</ele><time>2026-05-03T10:06:21.718Z</time></trkpt><trkpt lat="40.9816385" lon="19.6690838"><ele>3.0</ele><time>2026-05-03T10:06:22.718Z</time></trkpt><trkpt lat="40.9818621" lon="19.6690396"><ele>3.333333333333333</ele><time>2026-05-03T10:06:23.718Z</time></trkpt><trkpt lat="40.9820825" lon="19.6689941"><ele>3.6666666666666665</ele><time>2026-05-03T10:06:24.718Z</time></trkpt><trkpt lat="40.9822904" lon="19.6689484"><ele>4.0</ele><time>2026-05-03T10:06:25.717Z</time></trkpt><trkpt lat="40.9824965" lon="19.6688765"><ele>4.666666666666666</ele><time>2026-05-03T10:06:26.717Z</time></trkpt><trkpt lat="40.9826949" lon="19.668812"><ele>5.333333333333333</ele><time>2026-05-03T10:06:27.717Z</time></trkpt><trkpt lat="40.9828753" lon="19.6687229"><ele>6.0</ele><time>2026-05-03T10:06:28.717Z</time></trkpt><trkpt lat="40.9830426" lon="19.6686271"><ele>4.333333333333333</ele><time>2026-05-03T10:06:29.718Z</time></trkpt><trkpt lat="40.9832007" lon="19.6685429"><ele>2.6666666666666665</ele><time>2026-05-03T10:06:30.717Z</time></trkpt><trkpt lat="40.9833501" lon="19.6684561"><ele>1.0</ele><time>2026-05-03T10:06:31.717Z</time></trkpt><trkpt lat="40.9834916" lon="19.6683847"><ele>1.0</ele><time>2026-05-03T10:06:32.718Z</time></trkpt><trkpt lat="40.9836205" lon="19.668337"><ele>1.0</ele><time>2026-05-03T10:06:33.717Z</time></trkpt><trkpt lat="40.9837508" lon="19.6682786"><ele>1.0</ele><time>2026-05-03T10:06:34.718Z</time></trkpt><trkpt lat="40.9838828" lon="19.6682148"><ele>1.0</ele><time>2026-05-03T10:06:35.718Z</time></trkpt><trkpt lat="40.9840192" lon="19.6681834"><ele>1.0</ele><time>2026-05-03T10:06:36.717Z</time></trkpt><trkpt lat="40.9841554" lon="19.6681742"><ele>1.0</ele><time>2026-05-03T10:06:37.718Z</time></trkpt><trkpt lat="40.9842972" lon="19.6681799"><ele>1.0</ele><time>2026-05-03T10:06:38.718Z</time></trkpt><trkpt lat="40.9844455" lon="19.6682048"><ele>1.0</ele><time>2026-05-03T10:06:39.718Z</time></trkpt><trkpt lat="40.9845989" lon="19.6682436"><ele>2.0</ele><time>2026-05-03T10:06:40.718Z</time></trkpt><trkpt lat="40.9847512" lon="19.6683013"><ele>3.0</ele><time>2026-05-03T10:06:41.718Z</time></trkpt><trkpt lat="40.9849034" lon="19.6683751"><ele>4.0</ele><time>2026-05-03T10:06:42.717Z</time></trkpt><trkpt lat="40.9850496" lon="19.6684469"><ele>4.0</ele><time>2026-05-03T10:06:43.718Z</time></trkpt><trkpt lat="40.9851997" lon="19.6685249"><ele>4.0</ele><time>2026-05-03T10:06:44.717Z</time></trkpt><trkpt lat="40.9853489" lon="19.6686024"><ele>4.0</ele><time>2026-05-03T10:06:45.718Z</time></trkpt><trkpt lat="40.9855021" lon="19.6686723"><ele>5.333333333333333</ele><time>2026-05-03T10:06:46.717Z</time></trkpt><trkpt lat="40.9856536" lon="19.6687344"><ele>6.666666666666666</ele><time>2026-05-03T10:06:47.718Z</time></trkpt><trkpt lat="40.9858078" lon="19.6687948"><ele>8.0</ele><time>2026-05-03T10:06:48.717Z</time></trkpt><trkpt lat="40.9859697" lon="19.6688396"><ele>8.333333333333332</ele><time>2026-05-03T10:06:49.717Z</time></trkpt><trkpt lat="40.9861298" lon="19.6688778"><ele>8.666666666666666</ele><time>2026-05-03T10:06:50.717Z</time></trkpt><trkpt lat="40.98629" lon="19.6689201"><ele>9.0</ele><time>2026-05-03T10:06:51.718Z</time></trkpt><trkpt lat="40.9864547" lon="19.668942"><ele>9.0</ele><time>2026-05-03T10:06:52.718Z</time></trkpt><trkpt lat="40.9866175" lon="19.6689609"><ele>9.0</ele><time>2026-05-03T10:06:53.717Z</time></trkpt><trkpt lat="40.9867937" lon="19.6689618"><ele>9.0</ele><time>2026-05-03T10:06:54.717Z</time></trkpt><trkpt lat="40.9869679" lon="19.6689668"><ele>8.333333333333334</ele><time>2026-05-03T10:06:55.717Z</time></trkpt><trkpt lat="40.9871328" lon="19.6689659"><ele>7.666666666666667</ele><time>2026-05-03T10:06:56.718Z</time></trkpt><trkpt lat="40.9873025" lon="19.6689565"><ele>7.0</ele><time>2026-05-03T10:06:57.717Z</time></trkpt><trkpt lat="40.9874722" lon="19.668951"><ele>7.333333333333334</ele><time>2026-05-03T10:06:58.718Z</time></trkpt><trkpt lat="40.9876473" lon="19.6689425"><ele>7.666666666666666</ele><time>2026-05-03T10:06:59.718Z</time></trkpt><trkpt lat="40.9878291" lon="19.6689352"><ele>8.0</ele><time>2026-05-03T10:07:00.718Z</time></trkpt><trkpt lat="40.9880125" lon="19.6689289"><ele>8.0</ele><time>2026-05-03T10:07:01.718Z</time></trkpt><trkpt lat="40.9881937" lon="19.6689242"><ele>8.0</ele><time>2026-05-03T10:07:02.717Z</time></trkpt><trkpt lat="40.9883737" lon="19.6689202"><ele>8.0</ele><time>2026-05-03T10:07:03.718Z</time></trkpt><trkpt lat="40.9885588" lon="19.6689116"><ele>8.0</ele><time>2026-05-03T10:07:04.718Z</time></trkpt><trkpt lat="40.988741" lon="19.6689083"><ele>8.0</ele><time>2026-05-03T10:07:05.718Z</time></trkpt><trkpt lat="40.9889265" lon="19.6689101"><ele>8.0</ele><time>2026-05-03T10:07:06.718Z</time></trkpt><trkpt lat="40.9891107" lon="19.6689053"><ele>8.0</ele><time>2026-05-03T10:07:07.718Z</time></trkpt><trkpt lat="40.9892843" lon="19.6689019"><ele>8.0</ele><time>2026-05-03T10:07:08.717Z</time></trkpt><trkpt lat="40.9894575" lon="19.6689141"><ele>8.0</ele><time>2026-05-03T10:07:09.717Z</time></trkpt><trkpt lat="40.9896331" lon="19.6689196"><ele>8.0</ele><time>2026-05-03T10:07:10.717Z</time></trkpt><trkpt lat="40.9898175" lon="19.668921"><ele>8.0</ele><time>2026-05-03T10:07:11.718Z</time></trkpt><trkpt lat="40.9899985" lon="19.668914"><ele>8.0</ele><time>2026-05-03T10:07:12.718Z</time></trkpt><trkpt lat="40.9901762" lon="19.6689132"><ele>8.666666666666666</ele><time>2026-05-03T10:07:13.717Z</time></trkpt><trkpt lat="40.9903625" lon="19.668911"><ele>9.333333333333334</ele><time>2026-05-03T10:07:14.717Z</time></trkpt><trkpt lat="40.9905473" lon="19.6689054"><ele>10.0</ele><time>2026-05-03T10:07:15.717Z</time></trkpt><trkpt lat="40.9907337" lon="19.6689005"><ele>11.0</ele><time>2026-05-03T10:07:16.717Z</time></trkpt><trkpt lat="40.990916" lon="19.6688952"><ele>12.0</ele><time>2026-05-03T10:07:17.717Z</time></trkpt><trkpt lat="40.9911102" lon="19.6688617"><ele>13.0</ele><time>2026-05-03T10:07:18.717Z</time></trkpt><trkpt lat="40.9912956" lon="19.6688441"><ele>13.0</ele><time>2026-05-03T10:07:19.717Z</time></trkpt><trkpt lat="40.9914833" lon="19.6688185"><ele>13.0</ele><time>2026-05-03T10:07:20.717Z</time></trkpt><trkpt lat="40.9916695" lon="19.6687992"><ele>13.0</ele><time>2026-05-03T10:07:21.717Z</time></trkpt><trkpt lat="40.9918551" lon="19.6687698"><ele>13.0</ele><time>2026-05-03T10:07:22.718Z</time></trkpt><trkpt lat="40.9920442" lon="19.6687288"><ele>13.0</ele><time>2026-05-03T10:07:23.717Z</time></trkpt><trkpt lat="40.9922408" lon="19.6686829"><ele>13.0</ele><time>2026-05-03T10:07:24.718Z</time></trkpt><trkpt lat="40.992427" lon="19.6686458"><ele>11.666666666666666</ele><time>2026-05-03T10:07:25.718Z</time></trkpt><trkpt lat="40.9926154" lon="19.6685965"><ele>10.333333333333332</ele><time>2026-05-03T10:07:26.718Z</time></trkpt><trkpt lat="40.9928028" lon="19.668552"><ele>9.0</ele><time>2026-05-03T10:07:27.718Z</time></trkpt><trkpt lat="40.9929954" lon="19.668499"><ele>9.0</ele><time>2026-05-03T10:07:28.718Z</time></trkpt><trkpt lat="40.9931897" lon="19.6684357"><ele>9.0</ele><time>2026-05-03T10:07:29.718Z</time></trkpt><trkpt lat="40.9933828" lon="19.6683747"><ele>9.0</ele><time>2026-05-03T10:07:30.717Z</time></trkpt><trkpt lat="40.9935663" lon="19.6683183"><ele>9.666666666666666</ele><time>2026-05-03T10:07:31.717Z</time></trkpt><trkpt lat="40.9937478" lon="19.6682568"><ele>10.333333333333332</ele><time>2026-05-03T10:07:32.717Z</time></trkpt><trkpt lat="40.9939344" lon="19.6681996"><ele>11.0</ele><time>2026-05-03T10:07:33.717Z</time></trkpt><trkpt lat="40.9941233" lon="19.6681399"><ele>11.666666666666666</ele><time>2026-05-03T10:07:34.717Z</time></trkpt><trkpt lat="40.9943184" lon="19.6680849"><ele>12.333333333333332</ele><time>2026-05-03T10:07:35.717Z</time></trkpt><trkpt lat="40.9945046" lon="19.6680273"><ele>13.0</ele><time>2026-05-03T10:07:36.718Z</time></trkpt><trkpt lat="40.994694" lon="19.6679577"><ele>13.0</ele><time>2026-05-03T10:07:37.717Z</time></trkpt><trkpt lat="40.994884" lon="19.66788"><ele>13.0</ele><time>2026-05-03T10:07:38.718Z</time></trkpt><trkpt lat="40.9950739" lon="19.667794"><ele>13.0</ele><time>2026-05-03T10:07:39.717Z</time></trkpt><trkpt lat="40.9952689" lon="19.6677065"><ele>12.333333333333332</ele><time>2026-05-03T10:07:40.717Z</time></trkpt><trkpt lat="40.9954599" lon="19.6676103"><ele>11.666666666666666</ele><time>2026-05-03T10:07:41.717Z</time></trkpt><trkpt lat="40.9956448" lon="19.6675232"><ele>11.0</ele><time>2026-05-03T10:07:42.718Z</time></trkpt><trkpt lat="40.9958326" lon="19.6674375"><ele>11.666666666666666</ele><time>2026-05-03T10:07:43.717Z</time></trkpt><trkpt lat="40.9960197" lon="19.6673495"><ele>12.333333333333332</ele><time>2026-05-03T10:07:44.717Z</time></trkpt><trkpt lat="40.9961994" lon="19.6672632"><ele>13.0</ele><time>2026-05-03T10:07:45.717Z</time></trkpt><trkpt lat="40.9963813" lon="19.6671826"><ele>13.0</ele><time>2026-05-03T10:07:46.718Z</time></trkpt><trkpt lat="40.9965634" lon="19.6671038"><ele>13.0</ele><time>2026-05-03T10:07:47.718Z</time></trkpt><trkpt lat="40.9967424" lon="19.6670212"><ele>13.0</ele><time>2026-05-03T10:07:48.718Z</time></trkpt><trkpt lat="40.9969216" lon="19.6669419"><ele>12.666666666666666</ele><time>2026-05-03T10:07:49.717Z</time></trkpt><trkpt lat="40.9971027" lon="19.6668591"><ele>12.333333333333332</ele><time>2026-05-03T10:07:50.718Z</time></trkpt><trkpt lat="40.9972885" lon="19.6667784"><ele>12.0</ele><time>2026-05-03T10:07:51.717Z</time></trkpt><trkpt lat="40.9974767" lon="19.6666979"><ele>12.333333333333332</ele><time>2026-05-03T10:07:52.717Z</time></trkpt><trkpt lat="40.9976664" lon="19.6666253"><ele>12.666666666666666</ele><time>2026-05-03T10:07:53.717Z</time></trkpt><trkpt lat="40.997854" lon="19.6665466"><ele>13.0</ele><time>2026-05-03T10:07:54.717Z</time></trkpt><trkpt lat="40.9980516" lon="19.6664783"><ele>13.0</ele><time>2026-05-03T10:07:55.717Z</time></trkpt><trkpt lat="40.9982453" lon="19.6664081"><ele>13.0</ele><time>2026-05-03T10:07:56.717Z</time></trkpt><trkpt lat="40.998444" lon="19.6663515"><ele>13.0</ele><time>2026-05-03T10:07:57.717Z</time></trkpt><trkpt lat="40.9986427" lon="19.6662884"><ele>12.0</ele><time>2026-05-03T10:07:58.718Z</time></trkpt><trkpt lat="40.9988431" lon="19.6662235"><ele>11.0</ele><time>2026-05-03T10:07:59.717Z</time></trkpt><trkpt lat="40.9990425" lon="19.6661653"><ele>10.0</ele><time>2026-05-03T10:08:00.718Z</time></trkpt><trkpt lat="40.999249" lon="19.6660989"><ele>10.0</ele><time>2026-05-03T10:08:01.718Z</time></trkpt><trkpt lat="40.9994522" lon="19.6660287"><ele>10.0</ele><time>2026-05-03T10:08:02.718Z</time></trkpt><trkpt lat="40.999656" lon="19.6659592"><ele>10.0</ele><time>2026-05-03T10:08:03.718Z</time></trkpt><trkpt lat="40.9998621" lon="19.6658843"><ele>10.0</ele><time>2026-05-03T10:08:04.717Z</time></trkpt><trkpt lat="41.0000717" lon="19.6658123"><ele>10.0</ele><time>2026-05-03T10:08:05.717Z</time></trkpt><trkpt lat="41.0002802" lon="19.6657196"><ele>10.0</ele><time>2026-05-03T10:08:06.718Z</time></trkpt><trkpt lat="41.0004889" lon="19.6656409"><ele>10.0</ele><time>2026-05-03T10:08:07.718Z</time></trkpt><trkpt lat="41.000696" lon="19.6655546"><ele>10.0</ele><time>2026-05-03T10:08:08.717Z</time></trkpt><trkpt lat="41.0009022" lon="19.6654571"><ele>10.0</ele><time>2026-05-03T10:08:09.717Z</time></trkpt><trkpt lat="41.0011153" lon="19.6653698"><ele>10.0</ele><time>2026-05-03T10:08:10.717Z</time></trkpt><trkpt lat="41.0013273" lon="19.6652869"><ele>10.0</ele><time>2026-05-03T10:08:11.717Z</time></trkpt><trkpt lat="41.0015261" lon="19.6651927"><ele>10.0</ele><time>2026-05-03T10:08:12.717Z</time></trkpt><trkpt lat="41.0017319" lon="19.6650988"><ele>9.333333333333334</ele><time>2026-05-03T10:08:13.718Z</time></trkpt><trkpt lat="41.0019436" lon="19.665009"><ele>8.666666666666666</ele><time>2026-05-03T10:08:14.718Z</time></trkpt><trkpt lat="41.002152" lon="19.6649186"><ele>8.0</ele><time>2026-05-03T10:08:15.718Z</time></trkpt><trkpt lat="41.0023636" lon="19.6648389"><ele>10.0</ele><time>2026-05-03T10:08:16.718Z</time></trkpt><trkpt lat="41.0025806" lon="19.6647478"><ele>12.0</ele><time>2026-05-03T10:08:17.717Z</time></trkpt><trkpt lat="41.0027963" lon="19.6646772"><ele>12.0</ele><time>2026-05-03T10:08:18.718Z</time></trkpt><trkpt lat="41.0030098" lon="19.6646059"><ele>12.0</ele><time>2026-05-03T10:08:19.718Z</time></trkpt><trkpt lat="41.0032244" lon="19.6645387"><ele>12.0</ele><time>2026-05-03T10:08:20.717Z</time></trkpt><trkpt lat="41.0034478" lon="19.6644612"><ele>10.666666666666666</ele><time>2026-05-03T10:08:21.718Z</time></trkpt><trkpt lat="41.0036666" lon="19.6644017"><ele>9.333333333333332</ele><time>2026-05-03T10:08:22.718Z</time></trkpt><trkpt lat="41.0038887" lon="19.6643603"><ele>8.0</ele><time>2026-05-03T10:08:23.717Z</time></trkpt><trkpt lat="41.0041095" lon="19.66431"><ele>8.333333333333332</ele><time>2026-05-03T10:08:24.718Z</time></trkpt><trkpt lat="41.0043339" lon="19.6642527"><ele>8.666666666666666</ele><time>2026-05-03T10:08:25.717Z</time></trkpt><trkpt lat="41.0045521" lon="19.66421"><ele>9.0</ele><time>2026-05-03T10:08:26.717Z</time></trkpt><trkpt lat="41.0047709" lon="19.6641565"><ele>9.0</ele><time>2026-05-03T10:08:27.717Z</time></trkpt><trkpt lat="41.0049822" lon="19.6641102"><ele>9.0</ele><time>2026-05-03T10:08:28.718Z</time></trkpt><trkpt lat="41.0052009" lon="19.6640687"><ele>9.0</ele><time>2026-05-03T10:08:29.717Z</time></trkpt><trkpt lat="41.0054155" lon="19.6640177"><ele>8.666666666666666</ele><time>2026-05-03T10:08:30.718Z</time></trkpt><trkpt lat="41.0056316" lon="19.6639604"><ele>8.333333333333332</ele><time>2026-05-03T10:08:31.718Z</time></trkpt><trkpt lat="41.0058475" lon="19.6639074"><ele>8.0</ele><time>2026-05-03T10:08:32.718Z</time></trkpt><trkpt lat="41.0060605" lon="19.6638438"><ele>8.0</ele><time>2026-05-03T10:08:33.718Z</time></trkpt><trkpt lat="41.0062785" lon="19.6637731"><ele>8.0</ele><time>2026-05-03T10:08:34.717Z</time></trkpt><trkpt lat="41.0064889" lon="19.6637167"><ele>8.0</ele><time>2026-05-03T10:08:35.718Z</time></trkpt><trkpt lat="41.006691" lon="19.6636621"><ele>7.0</ele><time>2026-05-03T10:08:36.718Z</time></trkpt><trkpt lat="41.0068955" lon="19.6635917"><ele>6.0</ele><time>2026-05-03T10:08:37.717Z</time></trkpt><trkpt lat="41.0070983" lon="19.6635339"><ele>5.0</ele><time>2026-05-03T10:08:38.717Z</time></trkpt><trkpt lat="41.0073059" lon="19.6634846"><ele>6.0</ele><time>2026-05-03T10:08:39.717Z</time></trkpt><trkpt lat="41.0075131" lon="19.6634409"><ele>7.0</ele><time>2026-05-03T10:08:40.717Z</time></trkpt><trkpt lat="41.0077171" lon="19.6633911"><ele>8.0</ele><time>2026-05-03T10:08:41.718Z</time></trkpt><trkpt lat="41.0079283" lon="19.6633522"><ele>8.0</ele><time>2026-05-03T10:08:42.718Z</time></trkpt><trkpt lat="41.0081451" lon="19.6633171"><ele>8.0</ele><time>2026-05-03T10:08:43.718Z</time></trkpt><trkpt lat="41.0083603" lon="19.6632907"><ele>8.0</ele><time>2026-05-03T10:08:44.717Z</time></trkpt><trkpt lat="41.0085779" lon="19.6632709"><ele>8.333333333333332</ele><time>2026-05-03T10:08:45.718Z</time></trkpt><trkpt lat="41.0087957" lon="19.6632563"><ele>8.666666666666666</ele><time>2026-05-03T10:08:46.718Z</time></trkpt><trkpt lat="41.0090153" lon="19.6632561"><ele>9.0</ele><time>2026-05-03T10:08:47.718Z</time></trkpt><trkpt lat="41.009238" lon="19.6632493"><ele>8.0</ele><time>2026-05-03T10:08:48.718Z</time></trkpt><trkpt lat="41.0094641" lon="19.6632476"><ele>7.0</ele><time>2026-05-03T10:08:49.718Z</time></trkpt><trkpt lat="41.0096867" lon="19.6632523"><ele>6.0</ele><time>2026-05-03T10:08:50.717Z</time></trkpt><trkpt lat="41.0099082" lon="19.6632559"><ele>7.0</ele><time>2026-05-03T10:08:51.718Z</time></trkpt><trkpt lat="41.0101309" lon="19.6632632"><ele>8.0</ele><time>2026-05-03T10:08:52.718Z</time></trkpt><trkpt lat="41.0103521" lon="19.6632668"><ele>9.0</ele><time>2026-05-03T10:08:53.718Z</time></trkpt><trkpt lat="41.0105736" lon="19.6632747"><ele>9.0</ele><time>2026-05-03T10:08:54.717Z</time></trkpt><trkpt lat="41.0107951" lon="19.6632844"><ele>9.0</ele><time>2026-05-03T10:08:55.718Z</time></trkpt><trkpt lat="41.0110153" lon="19.6632949"><ele>9.0</ele><time>2026-05-03T10:08:56.718Z</time></trkpt><trkpt lat="41.0112428" lon="19.663301"><ele>9.333333333333334</ele><time>2026-05-03T10:08:57.718Z</time></trkpt><trkpt lat="41.0114669" lon="19.6633049"><ele>9.666666666666668</ele><time>2026-05-03T10:08:58.718Z</time></trkpt><trkpt lat="41.0116855" lon="19.6633137"><ele>10.0</ele><time>2026-05-03T10:08:59.718Z</time></trkpt><trkpt lat="41.0119088" lon="19.6633296"><ele>10.0</ele><time>2026-05-03T10:09:00.717Z</time></trkpt><trkpt lat="41.0121337" lon="19.6633304"><ele>10.0</ele><time>2026-05-03T10:09:01.717Z</time></trkpt><trkpt lat="41.0123527" lon="19.6633386"><ele>10.0</ele><time>2026-05-03T10:09:02.717Z</time></trkpt><trkpt lat="41.0125706" lon="19.6633464"><ele>9.666666666666668</ele><time>2026-05-03T10:09:03.718Z</time></trkpt><trkpt lat="41.0127941" lon="19.6633494"><ele>9.333333333333334</ele><time>2026-05-03T10:09:04.717Z</time></trkpt><trkpt lat="41.0130164" lon="19.6633425"><ele>9.0</ele><time>2026-05-03T10:09:05.717Z</time></trkpt><trkpt lat="41.0132407" lon="19.6633198"><ele>9.0</ele><time>2026-05-03T10:09:06.717Z</time></trkpt><trkpt lat="41.0134587" lon="19.6633121"><ele>9.0</ele><time>2026-05-03T10:09:07.718Z</time></trkpt><trkpt lat="41.0136778" lon="19.6632982"><ele>9.0</ele><time>2026-05-03T10:09:08.718Z</time></trkpt><trkpt lat="41.0138917" lon="19.6632837"><ele>9.0</ele><time>2026-05-03T10:09:09.718Z</time></trkpt><trkpt lat="41.0141102" lon="19.6632578"><ele>9.0</ele><time>2026-05-03T10:09:10.717Z</time></trkpt><trkpt lat="41.0143256" lon="19.6632301"><ele>9.0</ele><time>2026-05-03T10:09:11.718Z</time></trkpt><trkpt lat="41.0145397" lon="19.6632006"><ele>9.333333333333334</ele><time>2026-05-03T10:09:12.718Z</time></trkpt><trkpt lat="41.0147554" lon="19.6631568"><ele>9.666666666666668</ele><time>2026-05-03T10:09:13.717Z</time></trkpt><trkpt lat="41.0149701" lon="19.6631198"><ele>10.0</ele><time>2026-05-03T10:09:14.717Z</time></trkpt><trkpt lat="41.0151884" lon="19.6630794"><ele>10.0</ele><time>2026-05-03T10:09:15.718Z</time></trkpt><trkpt lat="41.0153999" lon="19.6630479"><ele>10.0</ele><time>2026-05-03T10:09:16.718Z</time></trkpt><trkpt lat="41.0156155" lon="19.6629998"><ele>10.0</ele><time>2026-05-03T10:09:17.718Z</time></trkpt><trkpt lat="41.0158338" lon="19.6629485"><ele>10.0</ele><time>2026-05-03T10:09:18.717Z</time></trkpt><trkpt lat="41.0160515" lon="19.6628941"><ele>10.0</ele><time>2026-05-03T10:09:19.717Z</time></trkpt><trkpt lat="41.0162699" lon="19.6628416"><ele>10.0</ele><time>2026-05-03T10:09:20.717Z</time></trkpt><trkpt lat="41.0164944" lon="19.662766"><ele>10.0</ele><time>2026-05-03T10:09:21.717Z</time></trkpt><trkpt lat="41.0167208" lon="19.6626847"><ele>10.0</ele><time>2026-05-03T10:09:22.717Z</time></trkpt><trkpt lat="41.0169491" lon="19.6626136"><ele>10.0</ele><time>2026-05-03T10:09:23.717Z</time></trkpt><trkpt lat="41.0171762" lon="19.6625254"><ele>10.0</ele><time>2026-05-03T10:09:24.718Z</time></trkpt><trkpt lat="41.0174053" lon="19.6624572"><ele>10.5</ele><time>2026-05-03T10:09:25.718Z</time></trkpt><trkpt lat="41.0176341" lon="19.6623735"><ele>11.0</ele><time>2026-05-03T10:09:26.717Z</time></trkpt><trkpt lat="41.0178669" lon="19.6622871"><ele>11.0</ele><time>2026-05-03T10:09:27.718Z</time></trkpt><trkpt lat="41.0180868" lon="19.6622108"><ele>11.0</ele><time>2026-05-03T10:09:28.718Z</time></trkpt><trkpt lat="41.0183149" lon="19.6621085"><ele>11.0</ele><time>2026-05-03T10:09:29.718Z</time></trkpt><trkpt lat="41.0185332" lon="19.6620188"><ele>11.0</ele><time>2026-05-03T10:09:30.718Z</time></trkpt><trkpt lat="41.0187544" lon="19.6619118"><ele>11.0</ele><time>2026-05-03T10:09:31.717Z</time></trkpt><trkpt lat="41.0189797" lon="19.6618053"><ele>11.0</ele><time>2026-05-03T10:09:32.717Z</time></trkpt><trkpt lat="41.0192057" lon="19.6616912"><ele>12.0</ele><time>2026-05-03T10:09:33.718Z</time></trkpt><trkpt lat="41.0194332" lon="19.6615822"><ele>13.0</ele><time>2026-05-03T10:09:34.718Z</time></trkpt><trkpt lat="41.0196612" lon="19.661467"><ele>13.0</ele><time>2026-05-03T10:09:35.717Z</time></trkpt><trkpt lat="41.0198783" lon="19.6613493"><ele>13.0</ele><time>2026-05-03T10:09:36.717Z</time></trkpt><trkpt lat="41.0200903" lon="19.6612265"><ele>11.5</ele><time>2026-05-03T10:09:37.717Z</time></trkpt><trkpt lat="41.0203095" lon="19.661101"><ele>10.0</ele><time>2026-05-03T10:09:38.718Z</time></trkpt><trkpt lat="41.0205284" lon="19.6609716"><ele>10.0</ele><time>2026-05-03T10:09:39.718Z</time></trkpt><trkpt lat="41.0207457" lon="19.6608423"><ele>10.0</ele><time>2026-05-03T10:09:40.718Z</time></trkpt><trkpt lat="41.0209667" lon="19.6607099"><ele>11.5</ele><time>2026-05-03T10:09:41.717Z</time></trkpt><trkpt lat="41.0211874" lon="19.660574"><ele>13.0</ele><time>2026-05-03T10:09:42.718Z</time></trkpt><trkpt lat="41.021412" lon="19.6604511"><ele>13.0</ele><time>2026-05-03T10:09:43.718Z</time></trkpt><trkpt lat="41.0216292" lon="19.6603271"><ele>13.0</ele><time>2026-05-03T10:09:44.717Z</time></trkpt><trkpt lat="41.0218551" lon="19.6602018"><ele>11.0</ele><time>2026-05-03T10:09:45.717Z</time></trkpt><trkpt lat="41.022085" lon="19.6600801"><ele>9.0</ele><time>2026-05-03T10:09:46.718Z</time></trkpt><trkpt lat="41.0222999" lon="19.6599731"><ele>9.5</ele><time>2026-05-03T10:09:47.718Z</time></trkpt><trkpt lat="41.0225261" lon="19.6598786"><ele>10.0</ele><time>2026-05-03T10:09:48.718Z</time></trkpt><trkpt lat="41.0227431" lon="19.6597602"><ele>10.0</ele><time>2026-05-03T10:09:49.718Z</time></trkpt><trkpt lat="41.0229693" lon="19.6596582"><ele>10.0</ele><time>2026-05-03T10:09:50.717Z</time></trkpt><trkpt lat="41.0231964" lon="19.6595661"><ele>10.0</ele><time>2026-05-03T10:09:51.717Z</time></trkpt><trkpt lat="41.023419" lon="19.6594817"><ele>10.0</ele><time>2026-05-03T10:09:52.718Z</time></trkpt><trkpt lat="41.0236472" lon="19.6593915"><ele>8.0</ele><time>2026-05-03T10:09:53.718Z</time></trkpt><trkpt lat="41.0238765" lon="19.6593166"><ele>6.0</ele><time>2026-05-03T10:09:54.717Z</time></trkpt><trkpt lat="41.0241051" lon="19.6592474"><ele>7.0</ele><time>2026-05-03T10:09:55.718Z</time></trkpt><trkpt lat="41.0243369" lon="19.6591779"><ele>8.0</ele><time>2026-05-03T10:09:56.718Z</time></trkpt><trkpt lat="41.0245637" lon="19.6591154"><ele>8.0</ele><time>2026-05-03T10:09:57.717Z</time></trkpt><trkpt lat="41.0247925" lon="19.6590583"><ele>8.0</ele><time>2026-05-03T10:09:58.717Z</time></trkpt><trkpt lat="41.0250188" lon="19.6590023"><ele>7.0</ele><time>2026-05-03T10:09:59.718Z</time></trkpt><trkpt lat="41.0252478" lon="19.6589498"><ele>6.0</ele><time>2026-05-03T10:10:00.718Z</time></trkpt><trkpt lat="41.0254801" lon="19.6589043"><ele>6.0</ele><time>2026-05-03T10:10:01.717Z</time></trkpt><trkpt lat="41.025712" lon="19.6588639"><ele>6.0</ele><time>2026-05-03T10:10:02.717Z</time></trkpt><trkpt lat="41.025941" lon="19.6588249"><ele>7.0</ele><time>2026-05-03T10:10:03.717Z</time></trkpt><trkpt lat="41.0261651" lon="19.6587943"><ele>8.0</ele><time>2026-05-03T10:10:04.718Z</time></trkpt><trkpt lat="41.026398" lon="19.6587691"><ele>8.0</ele><time>2026-05-03T10:10:05.718Z</time></trkpt><trkpt lat="41.0266279" lon="19.6587449"><ele>8.0</ele><time>2026-05-03T10:10:06.717Z</time></trkpt><trkpt lat="41.0268568" lon="19.6587139"><ele>8.5</ele><time>2026-05-03T10:10:07.718Z</time></trkpt><trkpt lat="41.0270951" lon="19.6586937"><ele>9.0</ele><time>2026-05-03T10:10:08.718Z</time></trkpt><trkpt lat="41.0273247" lon="19.6586675"><ele>11.0</ele><time>2026-05-03T10:10:09.718Z</time></trkpt><trkpt lat="41.0275549" lon="19.6586519"><ele>13.0</ele><time>2026-05-03T10:10:10.718Z</time></trkpt><trkpt lat="41.0277817" lon="19.658633"><ele>13.0</ele><time>2026-05-03T10:10:11.718Z</time></trkpt><trkpt lat="41.0280159" lon="19.6586234"><ele>13.0</ele><time>2026-05-03T10:10:12.718Z</time></trkpt><trkpt lat="41.0282377" lon="19.6586055"><ele>10.5</ele><time>2026-05-03T10:10:13.718Z</time></trkpt><trkpt lat="41.0284657" lon="19.6585862"><ele>8.0</ele><time>2026-05-03T10:10:14.718Z</time></trkpt><trkpt lat="41.0286914" lon="19.6585696"><ele>8.0</ele><time>2026-05-03T10:10:15.718Z</time></trkpt><trkpt lat="41.0289197" lon="19.658552"><ele>8.0</ele><time>2026-05-03T10:10:16.718Z</time></trkpt><trkpt lat="41.0291461" lon="19.658533"><ele>9.0</ele><time>2026-05-03T10:10:17.718Z</time></trkpt><trkpt lat="41.0293737" lon="19.6585033"><ele>10.0</ele><time>2026-05-03T10:10:18.718Z</time></trkpt><trkpt lat="41.0296053" lon="19.6584881"><ele>10.0</ele><time>2026-05-03T10:10:19.717Z</time></trkpt><trkpt lat="41.0298281" lon="19.6584741"><ele>10.0</ele><time>2026-05-03T10:10:20.717Z</time></trkpt><trkpt lat="41.0300526" lon="19.6584592"><ele>10.0</ele><time>2026-05-03T10:10:21.717Z</time></trkpt><trkpt lat="41.0302802" lon="19.658448"><ele>11.0</ele><time>2026-05-03T10:10:22.718Z</time></trkpt><trkpt lat="41.0305056" lon="19.6584329"><ele>12.0</ele><time>2026-05-03T10:10:23.718Z</time></trkpt><trkpt lat="41.0307327" lon="19.6584207"><ele>10.5</ele><time>2026-05-03T10:10:24.718Z</time></trkpt><trkpt lat="41.0309564" lon="19.6584006"><ele>9.0</ele><time>2026-05-03T10:10:25.718Z</time></trkpt><trkpt lat="41.0311859" lon="19.6583808"><ele>9.0</ele><time>2026-05-03T10:10:26.718Z</time></trkpt><trkpt lat="41.0314197" lon="19.6583621"><ele>9.0</ele><time>2026-05-03T10:10:27.718Z</time></trkpt><trkpt lat="41.0316507" lon="19.6583461"><ele>10.5</ele><time>2026-05-03T10:10:28.718Z</time></trkpt><trkpt lat="41.0318808" lon="19.6583318"><ele>12.0</ele><time>2026-05-03T10:10:29.718Z</time></trkpt><trkpt lat="41.0321105" lon="19.6583133"><ele>12.0</ele><time>2026-05-03T10:10:30.718Z</time></trkpt><trkpt lat="41.0323411" lon="19.6582912"><ele>12.0</ele><time>2026-05-03T10:10:31.718Z</time></trkpt><trkpt lat="41.0325701" lon="19.6582516"><ele>12.5</ele><time>2026-05-03T10:10:32.717Z</time></trkpt><trkpt lat="41.0327999" lon="19.658235"><ele>13.0</ele><time>2026-05-03T10:10:33.717Z</time></trkpt><trkpt lat="41.0330225" lon="19.6582173"><ele>13.0</ele><time>2026-05-03T10:10:34.717Z</time></trkpt><trkpt lat="41.0332516" lon="19.6581696"><ele>13.0</ele><time>2026-05-03T10:10:35.717Z</time></trkpt><trkpt lat="41.0334757" lon="19.6581438"><ele>13.0</ele><time>2026-05-03T10:10:36.718Z</time></trkpt><trkpt lat="41.0336985" lon="19.658118"><ele>13.0</ele><time>2026-05-03T10:10:37.717Z</time></trkpt><trkpt lat="41.033919" lon="19.658101"><ele>13.0</ele><time>2026-05-03T10:10:38.718Z</time></trkpt><trkpt lat="41.0341394" lon="19.6580817"><ele>13.0</ele><time>2026-05-03T10:10:39.717Z</time></trkpt><trkpt lat="41.0343634" lon="19.6580797"><ele>13.0</ele><time>2026-05-03T10:10:40.717Z</time></trkpt><trkpt lat="41.0345856" lon="19.6580575"><ele>13.0</ele><time>2026-05-03T10:10:41.717Z</time></trkpt><trkpt lat="41.0348051" lon="19.6580536"><ele>13.666666666666666</ele><time>2026-05-03T10:10:42.718Z</time></trkpt><trkpt lat="41.0350147" lon="19.6580349"><ele>14.333333333333332</ele><time>2026-05-03T10:10:43.718Z</time></trkpt><trkpt lat="41.0352251" lon="19.6580102"><ele>15.0</ele><time>2026-05-03T10:10:44.717Z</time></trkpt><trkpt lat="41.0354399" lon="19.6579912"><ele>15.0</ele><time>2026-05-03T10:10:45.717Z</time></trkpt><trkpt lat="41.0356552" lon="19.6579653"><ele>15.0</ele><time>2026-05-03T10:10:46.717Z</time></trkpt><trkpt lat="41.0358777" lon="19.6579378"><ele>15.0</ele><time>2026-05-03T10:10:47.718Z</time></trkpt><trkpt lat="41.0361001" lon="19.657904"><ele>15.5</ele><time>2026-05-03T10:10:48.718Z</time></trkpt><trkpt lat="41.0363296" lon="19.657888"><ele>16.0</ele><time>2026-05-03T10:10:49.718Z</time></trkpt><trkpt lat="41.0365535" lon="19.6578655"><ele>16.5</ele><time>2026-05-03T10:10:50.717Z</time></trkpt><trkpt lat="41.0367832" lon="19.6578482"><ele>17.0</ele><time>2026-05-03T10:10:51.717Z</time></trkpt><trkpt lat="41.0370171" lon="19.6578201"><ele>17.0</ele><time>2026-05-03T10:10:52.718Z</time></trkpt><trkpt lat="41.0372508" lon="19.6577976"><ele>17.0</ele><time>2026-05-03T10:10:53.717Z</time></trkpt><trkpt lat="41.0374854" lon="19.657777"><ele>14.0</ele><time>2026-05-03T10:10:54.718Z</time></trkpt><trkpt lat="41.0377214" lon="19.6577511"><ele>11.0</ele><time>2026-05-03T10:10:55.717Z</time></trkpt><trkpt lat="41.0379591" lon="19.6577228"><ele>11.0</ele><time>2026-05-03T10:10:56.717Z</time></trkpt><trkpt lat="41.0381953" lon="19.6576799"><ele>11.0</ele><time>2026-05-03T10:10:57.718Z</time></trkpt><trkpt lat="41.0384388" lon="19.6576327"><ele>11.0</ele><time>2026-05-03T10:10:58.718Z</time></trkpt><trkpt lat="41.0386755" lon="19.6576042"><ele>11.0</ele><time>2026-05-03T10:10:59.717Z</time></trkpt><trkpt lat="41.0389109" lon="19.6575729"><ele>10.5</ele><time>2026-05-03T10:11:00.718Z</time></trkpt><trkpt lat="41.039145" lon="19.6575412"><ele>10.0</ele><time>2026-05-03T10:11:01.718Z</time></trkpt><trkpt lat="41.0393846" lon="19.6575062"><ele>10.0</ele><time>2026-05-03T10:11:02.718Z</time></trkpt><trkpt lat="41.0396179" lon="19.6574704"><ele>10.0</ele><time>2026-05-03T10:11:03.718Z</time></trkpt><trkpt lat="41.0398516" lon="19.6574267"><ele>11.0</ele><time>2026-05-03T10:11:04.718Z</time></trkpt><trkpt lat="41.0400795" lon="19.6573856"><ele>12.0</ele><time>2026-05-03T10:11:05.717Z</time></trkpt><trkpt lat="41.04031" lon="19.6573377"><ele>12.0</ele><time>2026-05-03T10:11:06.717Z</time></trkpt><trkpt lat="41.0405364" lon="19.6572842"><ele>12.0</ele><time>2026-05-03T10:11:07.717Z</time></trkpt><trkpt lat="41.0407699" lon="19.6572172"><ele>12.333333333333332</ele><time>2026-05-03T10:11:08.717Z</time></trkpt><trkpt lat="41.0409799" lon="19.6571614"><ele>12.666666666666666</ele><time>2026-05-03T10:11:09.718Z</time></trkpt><trkpt lat="41.0411979" lon="19.6570989"><ele>13.0</ele><time>2026-05-03T10:11:10.718Z</time></trkpt><trkpt lat="41.04142" lon="19.6570172"><ele>12.0</ele><time>2026-05-03T10:11:11.718Z</time></trkpt><trkpt lat="41.0416365" lon="19.6569368"><ele>11.0</ele><time>2026-05-03T10:11:12.717Z</time></trkpt><trkpt lat="41.0418514" lon="19.6568544"><ele>10.0</ele><time>2026-05-03T10:11:13.718Z</time></trkpt><trkpt lat="41.0420618" lon="19.656769"><ele>10.0</ele><time>2026-05-03T10:11:14.718Z</time></trkpt><trkpt lat="41.042269" lon="19.6566735"><ele>10.0</ele><time>2026-05-03T10:11:15.717Z</time></trkpt><trkpt lat="41.0424654" lon="19.6565881"><ele>10.0</ele><time>2026-05-03T10:11:16.718Z</time></trkpt><trkpt lat="41.0426645" lon="19.6565017"><ele>10.666666666666668</ele><time>2026-05-03T10:11:17.717Z</time></trkpt><trkpt lat="41.0428521" lon="19.6564026"><ele>11.333333333333334</ele><time>2026-05-03T10:11:18.718Z</time></trkpt><trkpt lat="41.0430503" lon="19.6562887"><ele>12.0</ele><time>2026-05-03T10:11:19.718Z</time></trkpt><trkpt lat="41.0432425" lon="19.6561715"><ele>11.333333333333334</ele><time>2026-05-03T10:11:20.717Z</time></trkpt><trkpt lat="41.0434353" lon="19.6560628"><ele>10.666666666666668</ele><time>2026-05-03T10:11:21.718Z</time></trkpt><trkpt lat="41.0436231" lon="19.6559503"><ele>10.0</ele><time>2026-05-03T10:11:22.717Z</time></trkpt><trkpt lat="41.0438156" lon="19.6558291"><ele>10.0</ele><time>2026-05-03T10:11:23.718Z</time></trkpt><trkpt lat="41.0440071" lon="19.6557071"><ele>10.0</ele><time>2026-05-03T10:11:24.718Z</time></trkpt><trkpt lat="41.0441949" lon="19.655582"><ele>10.0</ele><time>2026-05-03T10:11:25.717Z</time></trkpt><trkpt lat="41.0443849" lon="19.6554561"><ele>9.666666666666668</ele><time>2026-05-03T10:11:26.717Z</time></trkpt><trkpt lat="41.0445679" lon="19.6553348"><ele>9.333333333333334</ele><time>2026-05-03T10:11:27.718Z</time></trkpt><trkpt lat="41.0447534" lon="19.6552184"><ele>9.0</ele><time>2026-05-03T10:11:28.717Z</time></trkpt><trkpt lat="41.0449347" lon="19.6550998"><ele>9.333333333333334</ele><time>2026-05-03T10:11:29.718Z</time></trkpt><trkpt lat="41.0451261" lon="19.6549863"><ele>9.666666666666668</ele><time>2026-05-03T10:11:30.717Z</time></trkpt><trkpt lat="41.0453203" lon="19.6548612"><ele>10.0</ele><time>2026-05-03T10:11:31.717Z</time></trkpt><trkpt lat="41.0455183" lon="19.6547417"><ele>10.0</ele><time>2026-05-03T10:11:32.717Z</time></trkpt><trkpt lat="41.0457194" lon="19.6546311"><ele>10.0</ele><time>2026-05-03T10:11:33.718Z</time></trkpt><trkpt lat="41.0459243" lon="19.6545045"><ele>10.0</ele><time>2026-05-03T10:11:34.718Z</time></trkpt><trkpt lat="41.0461246" lon="19.6543743"><ele>9.666666666666668</ele><time>2026-05-03T10:11:35.717Z</time></trkpt><trkpt lat="41.0463241" lon="19.6542474"><ele>9.333333333333334</ele><time>2026-05-03T10:11:36.717Z</time></trkpt><trkpt lat="41.0465227" lon="19.6541254"><ele>9.0</ele><time>2026-05-03T10:11:37.717Z</time></trkpt><trkpt lat="41.0467187" lon="19.6540084"><ele>9.0</ele><time>2026-05-03T10:11:38.718Z</time></trkpt><trkpt lat="41.0469123" lon="19.6538772"><ele>9.0</ele><time>2026-05-03T10:11:39.718Z</time></trkpt><trkpt lat="41.0471086" lon="19.6537543"><ele>9.0</ele><time>2026-05-03T10:11:40.718Z</time></trkpt><trkpt lat="41.0472989" lon="19.6536296"><ele>8.0</ele><time>2026-05-03T10:11:41.717Z</time></trkpt><trkpt lat="41.0474979" lon="19.6535083"><ele>7.0</ele><time>2026-05-03T10:11:42.718Z</time></trkpt><trkpt lat="41.0476919" lon="19.6533946"><ele>6.0</ele><time>2026-05-03T10:11:43.717Z</time></trkpt><trkpt lat="41.0478892" lon="19.6532924"><ele>6.0</ele><time>2026-05-03T10:11:44.718Z</time></trkpt><trkpt lat="41.0480814" lon="19.6531712"><ele>6.0</ele><time>2026-05-03T10:11:45.718Z</time></trkpt><trkpt lat="41.0482677" lon="19.6530637"><ele>6.0</ele><time>2026-05-03T10:11:46.717Z</time></trkpt><trkpt lat="41.0484412" lon="19.6529456"><ele>6.666666666666666</ele><time>2026-05-03T10:11:47.717Z</time></trkpt><trkpt lat="41.0486219" lon="19.6528339"><ele>7.333333333333333</ele><time>2026-05-03T10:11:48.718Z</time></trkpt><trkpt lat="41.0487961" lon="19.6527279"><ele>8.0</ele><time>2026-05-03T10:11:49.718Z</time></trkpt><trkpt lat="41.048973" lon="19.6526172"><ele>8.333333333333332</ele><time>2026-05-03T10:11:50.717Z</time></trkpt><trkpt lat="41.0491393" lon="19.6525172"><ele>8.666666666666666</ele><time>2026-05-03T10:11:51.718Z</time></trkpt><trkpt lat="41.0493109" lon="19.6524162"><ele>9.0</ele><time>2026-05-03T10:11:52.717Z</time></trkpt><trkpt lat="41.0494806" lon="19.6523127"><ele>9.0</ele><time>2026-05-03T10:11:53.718Z</time></trkpt><trkpt lat="41.0496477" lon="19.6522056"><ele>9.0</ele><time>2026-05-03T10:11:54.718Z</time></trkpt><trkpt lat="41.0498067" lon="19.6521124"><ele>9.0</ele><time>2026-05-03T10:11:55.717Z</time></trkpt><trkpt lat="41.0499657" lon="19.6520076"><ele>8.666666666666666</ele><time>2026-05-03T10:11:56.718Z</time></trkpt><trkpt lat="41.0501278" lon="19.6519073"><ele>8.333333333333332</ele><time>2026-05-03T10:11:57.717Z</time></trkpt><trkpt lat="41.050293" lon="19.651811"><ele>8.0</ele><time>2026-05-03T10:11:58.717Z</time></trkpt><trkpt lat="41.05045" lon="19.6517064"><ele>8.0</ele><time>2026-05-03T10:11:59.718Z</time></trkpt><trkpt lat="41.0506124" lon="19.6515925"><ele>8.0</ele><time>2026-05-03T10:12:00.718Z</time></trkpt><trkpt lat="41.0507726" lon="19.6514881"><ele>8.0</ele><time>2026-05-03T10:12:01.718Z</time></trkpt><trkpt lat="41.0509299" lon="19.6513921"><ele>8.0</ele><time>2026-05-03T10:12:02.718Z</time></trkpt><trkpt lat="41.0510884" lon="19.6512919"><ele>8.0</ele><time>2026-05-03T10:12:03.718Z</time></trkpt><trkpt lat="41.0512401" lon="19.6511891"><ele>8.0</ele><time>2026-05-03T10:12:04.717Z</time></trkpt><trkpt lat="41.0513812" lon="19.6510937"><ele>8.0</ele><time>2026-05-03T10:12:05.718Z</time></trkpt><trkpt lat="41.0515024" lon="19.6510142"><ele>8.0</ele><time>2026-05-03T10:12:06.718Z</time></trkpt><trkpt lat="41.05162" lon="19.6509452"><ele>8.0</ele><time>2026-05-03T10:12:07.717Z</time></trkpt><trkpt lat="41.0517261" lon="19.6508837"><ele>8.0</ele><time>2026-05-03T10:12:08.718Z</time></trkpt><trkpt lat="41.0518173" lon="19.6508279"><ele>8.333333333333332</ele><time>2026-05-03T10:12:09.717Z</time></trkpt><trkpt lat="41.0518877" lon="19.6507921"><ele>8.666666666666666</ele><time>2026-05-03T10:12:10.718Z</time></trkpt><trkpt lat="41.0519596" lon="19.6507711"><ele>9.0</ele><time>2026-05-03T10:12:11.717Z</time></trkpt><trkpt lat="41.052025" lon="19.650757"><ele>9.333333333333334</ele><time>2026-05-03T10:12:12.717Z</time></trkpt><trkpt lat="41.0520879" lon="19.6507468"><ele>9.666666666666668</ele><time>2026-05-03T10:12:13.717Z</time></trkpt><trkpt lat="41.0522009" lon="19.6507393"><ele>10.0</ele><time>2026-05-03T10:12:15.717Z</time></trkpt><trkpt lat="41.0522632" lon="19.6507253"><ele>10.0</ele><time>2026-05-03T10:12:16.718Z</time></trkpt><trkpt lat="41.0523718" lon="19.650667"><ele>10.0</ele><time>2026-05-03T10:12:18.718Z</time></trkpt><trkpt lat="41.052426" lon="19.6506161"><ele>10.0</ele><time>2026-05-03T10:12:19.717Z</time></trkpt><trkpt lat="41.0524715" lon="19.6505527"><ele>10.0</ele><time>2026-05-03T10:12:20.717Z</time></trkpt><trkpt lat="41.0525211" lon="19.6504769"><ele>10.0</ele><time>2026-05-03T10:12:21.717Z</time></trkpt><trkpt lat="41.0525732" lon="19.6504015"><ele>10.0</ele><time>2026-05-03T10:12:22.717Z</time></trkpt><trkpt lat="41.0526421" lon="19.650336"><ele>9.6</ele><time>2026-05-03T10:12:23.717Z</time></trkpt><trkpt lat="41.0527256" lon="19.650271"><ele>9.2</ele><time>2026-05-03T10:12:24.717Z</time></trkpt><trkpt lat="41.0528139" lon="19.6502051"><ele>8.8</ele><time>2026-05-03T10:12:25.718Z</time></trkpt><trkpt lat="41.0529109" lon="19.6501276"><ele>8.4</ele><time>2026-05-03T10:12:26.717Z</time></trkpt><trkpt lat="41.0530287" lon="19.6500438"><ele>8.0</ele><time>2026-05-03T10:12:27.717Z</time></trkpt><trkpt lat="41.0531514" lon="19.6499735"><ele>8.0</ele><time>2026-05-03T10:12:28.718Z</time></trkpt><trkpt lat="41.0532848" lon="19.6498745"><ele>8.0</ele><time>2026-05-03T10:12:29.717Z</time></trkpt><trkpt lat="41.0534398" lon="19.6497752"><ele>8.0</ele><time>2026-05-03T10:12:30.718Z</time></trkpt><trkpt lat="41.053607" lon="19.6496826"><ele>8.333333333333332</ele><time>2026-05-03T10:12:31.718Z</time></trkpt><trkpt lat="41.0537754" lon="19.6495949"><ele>8.666666666666666</ele><time>2026-05-03T10:12:32.717Z</time></trkpt><trkpt lat="41.0539562" lon="19.6495067"><ele>9.0</ele><time>2026-05-03T10:12:33.718Z</time></trkpt><trkpt lat="41.0541418" lon="19.6494142"><ele>9.0</ele><time>2026-05-03T10:12:34.717Z</time></trkpt><trkpt lat="41.0543136" lon="19.649316"><ele>9.0</ele><time>2026-05-03T10:12:35.718Z</time></trkpt><trkpt lat="41.0544861" lon="19.649216"><ele>9.0</ele><time>2026-05-03T10:12:36.718Z</time></trkpt><trkpt lat="41.0546686" lon="19.6491089"><ele>9.0</ele><time>2026-05-03T10:12:37.718Z</time></trkpt><trkpt lat="41.0548518" lon="19.6490003"><ele>9.0</ele><time>2026-05-03T10:12:38.717Z</time></trkpt><trkpt lat="41.0550346" lon="19.6488975"><ele>9.0</ele><time>2026-05-03T10:12:39.718Z</time></trkpt><trkpt lat="41.0552172" lon="19.6487884"><ele>9.333333333333334</ele><time>2026-05-03T10:12:40.717Z</time></trkpt><trkpt lat="41.0554047" lon="19.6486861"><ele>9.666666666666668</ele><time>2026-05-03T10:12:41.718Z</time></trkpt><trkpt lat="41.0555973" lon="19.6485826"><ele>10.0</ele><time>2026-05-03T10:12:42.718Z</time></trkpt><trkpt lat="41.0557855" lon="19.6484795"><ele>9.333333333333334</ele><time>2026-05-03T10:12:43.718Z</time></trkpt><trkpt lat="41.0559737" lon="19.6483647"><ele>8.666666666666666</ele><time>2026-05-03T10:12:44.717Z</time></trkpt><trkpt lat="41.0561654" lon="19.6482476"><ele>8.0</ele><time>2026-05-03T10:12:45.717Z</time></trkpt><trkpt lat="41.0563635" lon="19.6481316"><ele>8.0</ele><time>2026-05-03T10:12:46.718Z</time></trkpt><trkpt lat="41.0565628" lon="19.6480196"><ele>8.0</ele><time>2026-05-03T10:12:47.717Z</time></trkpt><trkpt lat="41.0567615" lon="19.64791"><ele>8.0</ele><time>2026-05-03T10:12:48.717Z</time></trkpt><trkpt lat="41.0569636" lon="19.6477911"><ele>8.333333333333332</ele><time>2026-05-03T10:12:49.718Z</time></trkpt><trkpt lat="41.0571657" lon="19.6476775"><ele>8.666666666666666</ele><time>2026-05-03T10:12:50.718Z</time></trkpt><trkpt lat="41.0573713" lon="19.6475639"><ele>9.0</ele><time>2026-05-03T10:12:51.718Z</time></trkpt><trkpt lat="41.0575816" lon="19.6474481"><ele>9.333333333333334</ele><time>2026-05-03T10:12:52.718Z</time></trkpt><trkpt lat="41.0577878" lon="19.6473449"><ele>9.666666666666668</ele><time>2026-05-03T10:12:53.718Z</time></trkpt><trkpt lat="41.0579991" lon="19.6472439"><ele>10.0</ele><time>2026-05-03T10:12:54.718Z</time></trkpt><trkpt lat="41.0582128" lon="19.6471313"><ele>10.5</ele><time>2026-05-03T10:12:55.718Z</time></trkpt><trkpt lat="41.0584255" lon="19.6470184"><ele>11.0</ele><time>2026-05-03T10:12:56.718Z</time></trkpt><trkpt lat="41.0586409" lon="19.6469331"><ele>11.0</ele><time>2026-05-03T10:12:57.717Z</time></trkpt><trkpt lat="41.0588583" lon="19.6468347"><ele>11.0</ele><time>2026-05-03T10:12:58.718Z</time></trkpt><trkpt lat="41.0590841" lon="19.6467532"><ele>10.5</ele><time>2026-05-03T10:12:59.718Z</time></trkpt><trkpt lat="41.0593035" lon="19.6466779"><ele>10.0</ele><time>2026-05-03T10:13:00.718Z</time></trkpt><trkpt lat="41.0595213" lon="19.6466038"><ele>10.0</ele><time>2026-05-03T10:13:01.718Z</time></trkpt><trkpt lat="41.0597416" lon="19.6465333"><ele>10.0</ele><time>2026-05-03T10:13:02.717Z</time></trkpt><trkpt lat="41.0599642" lon="19.6464656"><ele>10.666666666666668</ele><time>2026-05-03T10:13:03.718Z</time></trkpt><trkpt lat="41.0601799" lon="19.6464023"><ele>11.333333333333334</ele><time>2026-05-03T10:13:04.718Z</time></trkpt><trkpt lat="41.060404" lon="19.646345"><ele>12.0</ele><time>2026-05-03T10:13:05.717Z</time></trkpt><trkpt lat="41.0606226" lon="19.6462844"><ele>11.0</ele><time>2026-05-03T10:13:06.718Z</time></trkpt><trkpt lat="41.0608409" lon="19.646219"><ele>10.0</ele><time>2026-05-03T10:13:07.717Z</time></trkpt><trkpt lat="41.0610649" lon="19.6461639"><ele>10.0</ele><time>2026-05-03T10:13:08.718Z</time></trkpt><trkpt lat="41.0612879" lon="19.6461088"><ele>10.0</ele><time>2026-05-03T10:13:09.717Z</time></trkpt><trkpt lat="41.0615039" lon="19.6460456"><ele>10.0</ele><time>2026-05-03T10:13:10.717Z</time></trkpt><trkpt lat="41.0617245" lon="19.6459856"><ele>10.0</ele><time>2026-05-03T10:13:11.718Z</time></trkpt><trkpt lat="41.0619445" lon="19.6459228"><ele>10.0</ele><time>2026-05-03T10:13:12.717Z</time></trkpt><trkpt lat="41.0621664" lon="19.6458599"><ele>10.0</ele><time>2026-05-03T10:13:13.718Z</time></trkpt><trkpt lat="41.0623846" lon="19.6458003"><ele>10.0</ele><time>2026-05-03T10:13:14.717Z</time></trkpt><trkpt lat="41.0626039" lon="19.6457392"><ele>10.0</ele><time>2026-05-03T10:13:15.718Z</time></trkpt><trkpt lat="41.0628186" lon="19.6456762"><ele>10.333333333333334</ele><time>2026-05-03T10:13:16.718Z</time></trkpt><trkpt lat="41.0630335" lon="19.6456091"><ele>10.666666666666666</ele><time>2026-05-03T10:13:17.718Z</time></trkpt><trkpt lat="41.0632498" lon="19.6455484"><ele>11.0</ele><time>2026-05-03T10:13:18.717Z</time></trkpt><trkpt lat="41.0634706" lon="19.6454878"><ele>11.333333333333332</ele><time>2026-05-03T10:13:19.718Z</time></trkpt><trkpt lat="41.0636863" lon="19.6454281"><ele>11.666666666666666</ele><time>2026-05-03T10:13:20.717Z</time></trkpt><trkpt lat="41.0639079" lon="19.6453674"><ele>12.0</ele><time>2026-05-03T10:13:21.718Z</time></trkpt><trkpt lat="41.0641284" lon="19.6453046"><ele>12.0</ele><time>2026-05-03T10:13:22.717Z</time></trkpt><trkpt lat="41.0643409" lon="19.6452401"><ele>12.0</ele><time>2026-05-03T10:13:23.718Z</time></trkpt><trkpt lat="41.0645545" lon="19.6451416"><ele>12.0</ele><time>2026-05-03T10:13:24.717Z</time></trkpt><trkpt lat="41.064767" lon="19.6450491"><ele>11.666666666666666</ele><time>2026-05-03T10:13:25.718Z</time></trkpt><trkpt lat="41.0649786" lon="19.6449496"><ele>11.333333333333332</ele><time>2026-05-03T10:13:26.718Z</time></trkpt><trkpt lat="41.0651854" lon="19.6448351"><ele>11.0</ele><time>2026-05-03T10:13:27.718Z</time></trkpt><trkpt lat="41.0653909" lon="19.644719"><ele>11.0</ele><time>2026-05-03T10:13:28.718Z</time></trkpt><trkpt lat="41.0655966" lon="19.6445851"><ele>11.0</ele><time>2026-05-03T10:13:29.717Z</time></trkpt><trkpt lat="41.0657974" lon="19.6444464"><ele>11.5</ele><time>2026-05-03T10:13:30.718Z</time></trkpt><trkpt lat="41.0659917" lon="19.6442917"><ele>12.0</ele><time>2026-05-03T10:13:31.718Z</time></trkpt><trkpt lat="41.0661787" lon="19.6441254"><ele>12.0</ele><time>2026-05-03T10:13:32.718Z</time></trkpt><trkpt lat="41.0663673" lon="19.6439511"><ele>12.0</ele><time>2026-05-03T10:13:33.717Z</time></trkpt><trkpt lat="41.0665433" lon="19.6437578"><ele>11.5</ele><time>2026-05-03T10:13:34.718Z</time></trkpt><trkpt lat="41.0667287" lon="19.6435574"><ele>11.0</ele><time>2026-05-03T10:13:35.718Z</time></trkpt><trkpt lat="41.0669081" lon="19.6433482"><ele>11.0</ele><time>2026-05-03T10:13:36.718Z</time></trkpt><trkpt lat="41.067089" lon="19.6431224"><ele>11.0</ele><time>2026-05-03T10:13:37.717Z</time></trkpt><trkpt lat="41.0672639" lon="19.6428899"><ele>11.0</ele><time>2026-05-03T10:13:38.717Z</time></trkpt><trkpt lat="41.0674372" lon="19.6426751"><ele>11.0</ele><time>2026-05-03T10:13:39.717Z</time></trkpt><trkpt lat="41.0676092" lon="19.6424653"><ele>11.0</ele><time>2026-05-03T10:13:40.717Z</time></trkpt><trkpt lat="41.0677706" lon="19.6422483"><ele>11.0</ele><time>2026-05-03T10:13:41.718Z</time></trkpt><trkpt lat="41.0679349" lon="19.6420251"><ele>10.5</ele><time>2026-05-03T10:13:42.717Z</time></trkpt><trkpt lat="41.068102" lon="19.6418174"><ele>10.0</ele><time>2026-05-03T10:13:43.718Z</time></trkpt><trkpt lat="41.0682641" lon="19.6416065"><ele>10.333333333333334</ele><time>2026-05-03T10:13:44.718Z</time></trkpt><trkpt lat="41.0684223" lon="19.6413928"><ele>10.666666666666666</ele><time>2026-05-03T10:13:45.717Z</time></trkpt><trkpt lat="41.0685746" lon="19.6411995"><ele>11.0</ele><time>2026-05-03T10:13:46.717Z</time></trkpt><trkpt lat="41.0687264" lon="19.6410033"><ele>11.0</ele><time>2026-05-03T10:13:47.717Z</time></trkpt><trkpt lat="41.0688732" lon="19.6408142"><ele>11.0</ele><time>2026-05-03T10:13:48.717Z</time></trkpt><trkpt lat="41.0690077" lon="19.6406393"><ele>11.0</ele><time>2026-05-03T10:13:49.717Z</time></trkpt><trkpt lat="41.0691425" lon="19.6404648"><ele>11.0</ele><time>2026-05-03T10:13:50.717Z</time></trkpt><trkpt lat="41.0692724" lon="19.6402956"><ele>11.0</ele><time>2026-05-03T10:13:51.718Z</time></trkpt><trkpt lat="41.0694012" lon="19.6401285"><ele>11.0</ele><time>2026-05-03T10:13:52.718Z</time></trkpt><trkpt lat="41.0695219" lon="19.6399595"><ele>11.0</ele><time>2026-05-03T10:13:53.718Z</time></trkpt><trkpt lat="41.0696471" lon="19.6397953"><ele>11.0</ele><time>2026-05-03T10:13:54.717Z</time></trkpt><trkpt lat="41.0697728" lon="19.6396341"><ele>11.0</ele><time>2026-05-03T10:13:55.717Z</time></trkpt><trkpt lat="41.0698911" lon="19.639478"><ele>10.666666666666666</ele><time>2026-05-03T10:13:56.718Z</time></trkpt><trkpt lat="41.0700109" lon="19.6393249"><ele>10.333333333333334</ele><time>2026-05-03T10:13:57.718Z</time></trkpt><trkpt lat="41.0701339" lon="19.6391692"><ele>10.0</ele><time>2026-05-03T10:13:58.718Z</time></trkpt><trkpt lat="41.0702509" lon="19.6390198"><ele>10.0</ele><time>2026-05-03T10:13:59.717Z</time></trkpt><trkpt lat="41.0703644" lon="19.6388625"><ele>10.0</ele><time>2026-05-03T10:14:00.718Z</time></trkpt><trkpt lat="41.0704749" lon="19.6387099"><ele>10.0</ele><time>2026-05-03T10:14:01.718Z</time></trkpt><trkpt lat="41.0705851" lon="19.6385579"><ele>9.333333333333334</ele><time>2026-05-03T10:14:02.718Z</time></trkpt><trkpt lat="41.0707045" lon="19.6384135"><ele>8.666666666666666</ele><time>2026-05-03T10:14:03.718Z</time></trkpt><trkpt lat="41.0708266" lon="19.6382745"><ele>8.0</ele><time>2026-05-03T10:14:04.718Z</time></trkpt><trkpt lat="41.0709493" lon="19.6381365"><ele>7.75</ele><time>2026-05-03T10:14:05.717Z</time></trkpt><trkpt lat="41.0710706" lon="19.6380212"><ele>7.5</ele><time>2026-05-03T10:14:06.717Z</time></trkpt><trkpt lat="41.071184" lon="19.6379207"><ele>7.25</ele><time>2026-05-03T10:14:07.718Z</time></trkpt><trkpt lat="41.0713103" lon="19.637824"><ele>7.0</ele><time>2026-05-03T10:14:08.718Z</time></trkpt><trkpt lat="41.0714345" lon="19.6377302"><ele>7.3999999999999995</ele><time>2026-05-03T10:14:09.717Z</time></trkpt><trkpt lat="41.0715557" lon="19.6376659"><ele>7.799999999999999</ele><time>2026-05-03T10:14:10.717Z</time></trkpt><trkpt lat="41.0716676" lon="19.6376271"><ele>8.2</ele><time>2026-05-03T10:14:11.717Z</time></trkpt><trkpt lat="41.0717652" lon="19.6376028"><ele>8.6</ele><time>2026-05-03T10:14:12.717Z</time></trkpt><trkpt lat="41.0718484" lon="19.6375888"><ele>9.0</ele><time>2026-05-03T10:14:13.717Z</time></trkpt><trkpt lat="41.0719184" lon="19.6375738"><ele>9.166666666666666</ele><time>2026-05-03T10:14:14.718Z</time></trkpt><trkpt lat="41.0720022" lon="19.6375611"><ele>9.333333333333334</ele><time>2026-05-03T10:14:16.717Z</time></trkpt><trkpt lat="41.0720867" lon="19.6375744"><ele>9.5</ele><time>2026-05-03T10:14:20.718Z</time></trkpt><trkpt lat="41.0721579" lon="19.6376147"><ele>9.666666666666668</ele><time>2026-05-03T10:14:24.718Z</time></trkpt><trkpt lat="41.0722496" lon="19.6376642"><ele>9.833333333333334</ele><time>2026-05-03T10:14:26.718Z</time></trkpt><trkpt lat="41.0723469" lon="19.6377025"><ele>10.0</ele><time>2026-05-03T10:14:28.718Z</time></trkpt><trkpt lat="41.0724546" lon="19.6377002"><ele>10.0</ele><time>2026-05-03T10:14:30.718Z</time></trkpt><trkpt lat="41.0725578" lon="19.6376101"><ele>10.0</ele><time>2026-05-03T10:14:32.718Z</time></trkpt><trkpt lat="41.0726212" lon="19.6374541"><ele>10.0</ele><time>2026-05-03T10:14:34.717Z</time></trkpt><trkpt lat="41.0726318" lon="19.6373584"><ele>10.0</ele><time>2026-05-03T10:14:35.718Z</time></trkpt><trkpt lat="41.0726194" lon="19.6372544"><ele>10.0</ele><time>2026-05-03T10:14:36.718Z</time></trkpt><trkpt lat="41.0725954" lon="19.6371503"><ele>10.0</ele><time>2026-05-03T10:14:37.718Z</time></trkpt><trkpt lat="41.0725627" lon="19.6370472"><ele>10.0</ele><time>2026-05-03T10:14:38.718Z</time></trkpt><trkpt lat="41.0725588" lon="19.6369265"><ele>10.0</ele><time>2026-05-03T10:14:39.717Z</time></trkpt><trkpt lat="41.0725426" lon="19.636802"><ele>10.0</ele><time>2026-05-03T10:14:40.717Z</time></trkpt><trkpt lat="41.0725564" lon="19.6366621"><ele>10.0</ele><time>2026-05-03T10:14:41.718Z</time></trkpt><trkpt lat="41.072573" lon="19.636518"><ele>10.0</ele><time>2026-05-03T10:14:42.717Z</time></trkpt><trkpt lat="41.0725956" lon="19.6363845"><ele>10.0</ele><time>2026-05-03T10:14:43.718Z</time></trkpt><trkpt lat="41.0726266" lon="19.6362343"><ele>10.0</ele><time>2026-05-03T10:14:44.718Z</time></trkpt><trkpt lat="41.0726508" lon="19.6360822"><ele>10.0</ele><time>2026-05-03T10:14:45.718Z</time></trkpt><trkpt lat="41.0726912" lon="19.6359436"><ele>10.0</ele><time>2026-05-03T10:14:46.717Z</time></trkpt><trkpt lat="41.0727202" lon="19.6357946"><ele>10.0</ele><time>2026-05-03T10:14:47.718Z</time></trkpt><trkpt lat="41.0727647" lon="19.6356287"><ele>10.0</ele><time>2026-05-03T10:14:48.718Z</time></trkpt><trkpt lat="41.072818" lon="19.6354499"><ele>10.0</ele><time>2026-05-03T10:14:49.717Z</time></trkpt><trkpt lat="41.0728623" lon="19.635273"><ele>9.75</ele><time>2026-05-03T10:14:50.717Z</time></trkpt><trkpt lat="41.0729031" lon="19.635095"><ele>9.5</ele><time>2026-05-03T10:14:51.717Z</time></trkpt><trkpt lat="41.072943" lon="19.634909"><ele>9.25</ele><time>2026-05-03T10:14:52.717Z</time></trkpt><trkpt lat="41.0729855" lon="19.634715"><ele>9.0</ele><time>2026-05-03T10:14:53.718Z</time></trkpt><trkpt lat="41.0730482" lon="19.6345204"><ele>8.666666666666666</ele><time>2026-05-03T10:14:54.718Z</time></trkpt><trkpt lat="41.0731098" lon="19.6343188"><ele>8.333333333333332</ele><time>2026-05-03T10:14:55.718Z</time></trkpt><trkpt lat="41.0731811" lon="19.6341194"><ele>8.0</ele><time>2026-05-03T10:14:56.718Z</time></trkpt><trkpt lat="41.0732583" lon="19.6339121"><ele>8.666666666666666</ele><time>2026-05-03T10:14:57.718Z</time></trkpt><trkpt lat="41.0733242" lon="19.6336957"><ele>9.333333333333334</ele><time>2026-05-03T10:14:58.718Z</time></trkpt><trkpt lat="41.0734111" lon="19.6334952"><ele>10.0</ele><time>2026-05-03T10:14:59.718Z</time></trkpt><trkpt lat="41.0734991" lon="19.633289"><ele>10.0</ele><time>2026-05-03T10:15:00.718Z</time></trkpt><trkpt lat="41.073578" lon="19.6330874"><ele>10.0</ele><time>2026-05-03T10:15:01.717Z</time></trkpt><trkpt lat="41.0736665" lon="19.6328806"><ele>10.0</ele><time>2026-05-03T10:15:02.717Z</time></trkpt><trkpt lat="41.073765" lon="19.6326843"><ele>9.333333333333334</ele><time>2026-05-03T10:15:03.718Z</time></trkpt><trkpt lat="41.0738658" lon="19.6324821"><ele>8.666666666666666</ele><time>2026-05-03T10:15:04.717Z</time></trkpt><trkpt lat="41.0739619" lon="19.6322819"><ele>8.0</ele><time>2026-05-03T10:15:05.717Z</time></trkpt><trkpt lat="41.0740641" lon="19.6320845"><ele>8.666666666666666</ele><time>2026-05-03T10:15:06.717Z</time></trkpt><trkpt lat="41.0741715" lon="19.631891"><ele>9.333333333333334</ele><time>2026-05-03T10:15:07.718Z</time></trkpt><trkpt lat="41.0742779" lon="19.6316909"><ele>10.0</ele><time>2026-05-03T10:15:08.717Z</time></trkpt><trkpt lat="41.0743839" lon="19.6314963"><ele>10.0</ele><time>2026-05-03T10:15:09.718Z</time></trkpt><trkpt lat="41.0744926" lon="19.6312988"><ele>10.0</ele><time>2026-05-03T10:15:10.717Z</time></trkpt><trkpt lat="41.0745973" lon="19.6311043"><ele>10.0</ele><time>2026-05-03T10:15:11.718Z</time></trkpt><trkpt lat="41.0747107" lon="19.6309143"><ele>10.333333333333334</ele><time>2026-05-03T10:15:12.717Z</time></trkpt><trkpt lat="41.0748091" lon="19.6307231"><ele>10.666666666666666</ele><time>2026-05-03T10:15:13.718Z</time></trkpt><trkpt lat="41.074918" lon="19.6305209"><ele>11.0</ele><time>2026-05-03T10:15:14.717Z</time></trkpt><trkpt lat="41.0750225" lon="19.6303214"><ele>11.333333333333332</ele><time>2026-05-03T10:15:15.717Z</time></trkpt><trkpt lat="41.0751268" lon="19.6301314"><ele>11.666666666666666</ele><time>2026-05-03T10:15:16.717Z</time></trkpt><trkpt lat="41.0752396" lon="19.629931"><ele>12.0</ele><time>2026-05-03T10:15:17.717Z</time></trkpt><trkpt lat="41.0753487" lon="19.6297306"><ele>12.0</ele><time>2026-05-03T10:15:18.718Z</time></trkpt><trkpt lat="41.0754549" lon="19.6295264"><ele>12.0</ele><time>2026-05-03T10:15:19.717Z</time></trkpt><trkpt lat="41.0755616" lon="19.62933"><ele>12.0</ele><time>2026-05-03T10:15:20.718Z</time></trkpt><trkpt lat="41.0756675" lon="19.6291397"><ele>12.666666666666668</ele><time>2026-05-03T10:15:21.718Z</time></trkpt><trkpt lat="41.0757789" lon="19.6289448"><ele>13.333333333333334</ele><time>2026-05-03T10:15:22.718Z</time></trkpt><trkpt lat="41.0758861" lon="19.6287438"><ele>14.0</ele><time>2026-05-03T10:15:23.718Z</time></trkpt><trkpt lat="41.0759941" lon="19.628544"><ele>14.0</ele><time>2026-05-03T10:15:24.717Z</time></trkpt><trkpt lat="41.0761032" lon="19.6283482"><ele>14.0</ele><time>2026-05-03T10:15:25.718Z</time></trkpt><trkpt lat="41.0762152" lon="19.62815"><ele>14.0</ele><time>2026-05-03T10:15:26.718Z</time></trkpt><trkpt lat="41.0763442" lon="19.6279599"><ele>13.666666666666668</ele><time>2026-05-03T10:15:27.718Z</time></trkpt><trkpt lat="41.0764652" lon="19.627771"><ele>13.333333333333332</ele><time>2026-05-03T10:15:28.717Z</time></trkpt><trkpt lat="41.0765843" lon="19.6275774"><ele>13.0</ele><time>2026-05-03T10:15:29.718Z</time></trkpt><trkpt lat="41.0767092" lon="19.6273955"><ele>13.0</ele><time>2026-05-03T10:15:30.718Z</time></trkpt><trkpt lat="41.0768445" lon="19.6272202"><ele>13.0</ele><time>2026-05-03T10:15:31.718Z</time></trkpt><trkpt lat="41.076985" lon="19.627042"><ele>13.0</ele><time>2026-05-03T10:15:32.718Z</time></trkpt><trkpt lat="41.0771317" lon="19.6268771"><ele>12.666666666666666</ele><time>2026-05-03T10:15:33.717Z</time></trkpt><trkpt lat="41.0772728" lon="19.626709"><ele>12.333333333333332</ele><time>2026-05-03T10:15:34.718Z</time></trkpt><trkpt lat="41.0774287" lon="19.6265528"><ele>12.0</ele><time>2026-05-03T10:15:35.717Z</time></trkpt><trkpt lat="41.0775911" lon="19.6264009"><ele>12.0</ele><time>2026-05-03T10:15:36.717Z</time></trkpt><trkpt lat="41.0777519" lon="19.6262535"><ele>12.0</ele><time>2026-05-03T10:15:37.718Z</time></trkpt><trkpt lat="41.077913" lon="19.6261065"><ele>12.0</ele><time>2026-05-03T10:15:38.717Z</time></trkpt><trkpt lat="41.0780739" lon="19.625957"><ele>12.0</ele><time>2026-05-03T10:15:39.718Z</time></trkpt><trkpt lat="41.0782481" lon="19.6257922"><ele>12.0</ele><time>2026-05-03T10:15:40.718Z</time></trkpt><trkpt lat="41.0784139" lon="19.6256411"><ele>12.0</ele><time>2026-05-03T10:15:41.718Z</time></trkpt><trkpt lat="41.0785769" lon="19.625485"><ele>12.666666666666668</ele><time>2026-05-03T10:15:42.718Z</time></trkpt><trkpt lat="41.0787318" lon="19.6253326"><ele>13.333333333333334</ele><time>2026-05-03T10:15:43.717Z</time></trkpt><trkpt lat="41.0788906" lon="19.6251672"><ele>14.0</ele><time>2026-05-03T10:15:44.718Z</time></trkpt><trkpt lat="41.0790419" lon="19.6249993"><ele>14.333333333333334</ele><time>2026-05-03T10:15:45.717Z</time></trkpt><trkpt lat="41.0791913" lon="19.6248313"><ele>14.666666666666668</ele><time>2026-05-03T10:15:46.717Z</time></trkpt><trkpt lat="41.0793373" lon="19.6246587"><ele>15.0</ele><time>2026-05-03T10:15:47.718Z</time></trkpt><trkpt lat="41.0794794" lon="19.624482"><ele>14.0</ele><time>2026-05-03T10:15:48.718Z</time></trkpt><trkpt lat="41.0796252" lon="19.6243053"><ele>13.0</ele><time>2026-05-03T10:15:49.717Z</time></trkpt><trkpt lat="41.0797623" lon="19.6241265"><ele>12.0</ele><time>2026-05-03T10:15:50.718Z</time></trkpt><trkpt lat="41.0799078" lon="19.6239477"><ele>12.333333333333332</ele><time>2026-05-03T10:15:51.718Z</time></trkpt><trkpt lat="41.0800501" lon="19.623765"><ele>12.666666666666666</ele><time>2026-05-03T10:15:52.718Z</time></trkpt><trkpt lat="41.0801838" lon="19.6235851"><ele>13.0</ele><time>2026-05-03T10:15:53.718Z</time></trkpt><trkpt lat="41.0803243" lon="19.6234045"><ele>13.0</ele><time>2026-05-03T10:15:54.718Z</time></trkpt><trkpt lat="41.0804655" lon="19.6232215"><ele>13.0</ele><time>2026-05-03T10:15:55.718Z</time></trkpt><trkpt lat="41.0806069" lon="19.6230452"><ele>13.0</ele><time>2026-05-03T10:15:56.717Z</time></trkpt><trkpt lat="41.0807435" lon="19.6228622"><ele>12.666666666666666</ele><time>2026-05-03T10:15:57.717Z</time></trkpt><trkpt lat="41.0808913" lon="19.6226807"><ele>12.333333333333332</ele><time>2026-05-03T10:15:58.718Z</time></trkpt><trkpt lat="41.0810323" lon="19.6224997"><ele>12.0</ele><time>2026-05-03T10:15:59.718Z</time></trkpt><trkpt lat="41.0811752" lon="19.6223121"><ele>12.0</ele><time>2026-05-03T10:16:00.717Z</time></trkpt><trkpt lat="41.081325" lon="19.6221214"><ele>12.0</ele><time>2026-05-03T10:16:01.717Z</time></trkpt><trkpt lat="41.0814705" lon="19.62193"><ele>12.0</ele><time>2026-05-03T10:16:02.718Z</time></trkpt><trkpt lat="41.0816089" lon="19.6217466"><ele>11.666666666666666</ele><time>2026-05-03T10:16:03.717Z</time></trkpt><trkpt lat="41.0817544" lon="19.6215628"><ele>11.333333333333332</ele><time>2026-05-03T10:16:04.717Z</time></trkpt><trkpt lat="41.0819021" lon="19.6213693"><ele>11.0</ele><time>2026-05-03T10:16:05.718Z</time></trkpt><trkpt lat="41.0820514" lon="19.6211822"><ele>10.666666666666666</ele><time>2026-05-03T10:16:06.718Z</time></trkpt><trkpt lat="41.0822008" lon="19.6209901"><ele>10.333333333333334</ele><time>2026-05-03T10:16:07.717Z</time></trkpt><trkpt lat="41.0823392" lon="19.6207961"><ele>10.0</ele><time>2026-05-03T10:16:08.718Z</time></trkpt><trkpt lat="41.0824825" lon="19.6206055"><ele>10.0</ele><time>2026-05-03T10:16:09.717Z</time></trkpt><trkpt lat="41.0826235" lon="19.6204197"><ele>10.0</ele><time>2026-05-03T10:16:10.717Z</time></trkpt><trkpt lat="41.0827658" lon="19.620224"><ele>10.0</ele><time>2026-05-03T10:16:11.718Z</time></trkpt><trkpt lat="41.0829061" lon="19.6200403"><ele>10.0</ele><time>2026-05-03T10:16:12.718Z</time></trkpt><trkpt lat="41.0830485" lon="19.6198678"><ele>10.0</ele><time>2026-05-03T10:16:13.718Z</time></trkpt><trkpt lat="41.0831884" lon="19.6196888"><ele>10.0</ele><time>2026-05-03T10:16:14.718Z</time></trkpt><trkpt lat="41.0833262" lon="19.6195071"><ele>10.0</ele><time>2026-05-03T10:16:15.717Z</time></trkpt><trkpt lat="41.083465" lon="19.6193276"><ele>10.0</ele><time>2026-05-03T10:16:16.717Z</time></trkpt><trkpt lat="41.0836105" lon="19.6191496"><ele>10.0</ele><time>2026-05-03T10:16:17.717Z</time></trkpt><trkpt lat="41.0837491" lon="19.6189685"><ele>10.0</ele><time>2026-05-03T10:16:18.717Z</time></trkpt><trkpt lat="41.083894" lon="19.6187801"><ele>10.0</ele><time>2026-05-03T10:16:19.718Z</time></trkpt><trkpt lat="41.0840322" lon="19.618596"><ele>10.0</ele><time>2026-05-03T10:16:20.717Z</time></trkpt><trkpt lat="41.0841733" lon="19.61841"><ele>10.0</ele><time>2026-05-03T10:16:21.717Z</time></trkpt><trkpt lat="41.0843098" lon="19.6182206"><ele>10.0</ele><time>2026-05-03T10:16:22.718Z</time></trkpt><trkpt lat="41.084451" lon="19.6180294"><ele>10.0</ele><time>2026-05-03T10:16:23.717Z</time></trkpt><trkpt lat="41.0845874" lon="19.6178364"><ele>9.666666666666668</ele><time>2026-05-03T10:16:24.718Z</time></trkpt><trkpt lat="41.0847173" lon="19.6176296"><ele>9.333333333333334</ele><time>2026-05-03T10:16:25.718Z</time></trkpt><trkpt lat="41.0848479" lon="19.6174333"><ele>9.0</ele><time>2026-05-03T10:16:26.718Z</time></trkpt><trkpt lat="41.0849789" lon="19.617232"><ele>9.0</ele><time>2026-05-03T10:16:27.718Z</time></trkpt><trkpt lat="41.0851088" lon="19.6170239"><ele>9.0</ele><time>2026-05-03T10:16:28.717Z</time></trkpt><trkpt lat="41.0852361" lon="19.6168271"><ele>9.0</ele><time>2026-05-03T10:16:29.718Z</time></trkpt><trkpt lat="41.085368" lon="19.616621"><ele>8.666666666666666</ele><time>2026-05-03T10:16:30.718Z</time></trkpt><trkpt lat="41.0855016" lon="19.616416"><ele>8.333333333333332</ele><time>2026-05-03T10:16:31.718Z</time></trkpt><trkpt lat="41.0856336" lon="19.6162128"><ele>8.0</ele><time>2026-05-03T10:16:32.717Z</time></trkpt><trkpt lat="41.0857678" lon="19.6160142"><ele>8.0</ele><time>2026-05-03T10:16:33.717Z</time></trkpt><trkpt lat="41.0859031" lon="19.6158121"><ele>8.0</ele><time>2026-05-03T10:16:34.718Z</time></trkpt><trkpt lat="41.0860446" lon="19.6156117"><ele>8.0</ele><time>2026-05-03T10:16:35.718Z</time></trkpt><trkpt lat="41.0861793" lon="19.6154092"><ele>8.333333333333332</ele><time>2026-05-03T10:16:36.717Z</time></trkpt><trkpt lat="41.0863066" lon="19.6152061"><ele>8.666666666666666</ele><time>2026-05-03T10:16:37.717Z</time></trkpt><trkpt lat="41.0864348" lon="19.6150087"><ele>9.0</ele><time>2026-05-03T10:16:38.718Z</time></trkpt><trkpt lat="41.0865616" lon="19.6148084"><ele>8.666666666666666</ele><time>2026-05-03T10:16:39.717Z</time></trkpt><trkpt lat="41.0866896" lon="19.6146096"><ele>8.333333333333332</ele><time>2026-05-03T10:16:40.717Z</time></trkpt><trkpt lat="41.0868151" lon="19.6144232"><ele>8.0</ele><time>2026-05-03T10:16:41.717Z</time></trkpt><trkpt lat="41.0869396" lon="19.6142207"><ele>8.0</ele><time>2026-05-03T10:16:42.718Z</time></trkpt><trkpt lat="41.0870678" lon="19.6140229"><ele>8.0</ele><time>2026-05-03T10:16:43.718Z</time></trkpt><trkpt lat="41.0871975" lon="19.6138398"><ele>8.0</ele><time>2026-05-03T10:16:44.718Z</time></trkpt><trkpt lat="41.0873299" lon="19.6136606"><ele>8.333333333333332</ele><time>2026-05-03T10:16:45.718Z</time></trkpt><trkpt lat="41.0874491" lon="19.61348"><ele>8.666666666666666</ele><time>2026-05-03T10:16:46.718Z</time></trkpt><trkpt lat="41.0875712" lon="19.6132973"><ele>9.0</ele><time>2026-05-03T10:16:47.718Z</time></trkpt><trkpt lat="41.0876898" lon="19.6131213"><ele>9.0</ele><time>2026-05-03T10:16:48.718Z</time></trkpt><trkpt lat="41.0878092" lon="19.6129376"><ele>9.0</ele><time>2026-05-03T10:16:49.717Z</time></trkpt><trkpt lat="41.0879305" lon="19.6127576"><ele>9.0</ele><time>2026-05-03T10:16:50.718Z</time></trkpt><trkpt lat="41.0880539" lon="19.6125795"><ele>9.0</ele><time>2026-05-03T10:16:51.717Z</time></trkpt><trkpt lat="41.0881775" lon="19.6124033"><ele>9.0</ele><time>2026-05-03T10:16:52.718Z</time></trkpt><trkpt lat="41.08831" lon="19.6122282"><ele>9.0</ele><time>2026-05-03T10:16:53.718Z</time></trkpt><trkpt lat="41.0884356" lon="19.6120605"><ele>9.0</ele><time>2026-05-03T10:16:54.717Z</time></trkpt><trkpt lat="41.0885662" lon="19.6118958"><ele>9.0</ele><time>2026-05-03T10:16:55.717Z</time></trkpt><trkpt lat="41.0886945" lon="19.6117489"><ele>9.0</ele><time>2026-05-03T10:16:56.718Z</time></trkpt><trkpt lat="41.088823" lon="19.6115936"><ele>9.0</ele><time>2026-05-03T10:16:57.718Z</time></trkpt><trkpt lat="41.0889546" lon="19.6114462"><ele>9.0</ele><time>2026-05-03T10:16:58.717Z</time></trkpt><trkpt lat="41.0890922" lon="19.6113037"><ele>9.0</ele><time>2026-05-03T10:16:59.718Z</time></trkpt><trkpt lat="41.089233" lon="19.6111505"><ele>9.0</ele><time>2026-05-03T10:17:00.717Z</time></trkpt><trkpt lat="41.0893738" lon="19.6110124"><ele>9.0</ele><time>2026-05-03T10:17:01.718Z</time></trkpt><trkpt lat="41.0895235" lon="19.610882"><ele>9.0</ele><time>2026-05-03T10:17:02.717Z</time></trkpt><trkpt lat="41.0896798" lon="19.6107491"><ele>9.0</ele><time>2026-05-03T10:17:03.718Z</time></trkpt><trkpt lat="41.0898342" lon="19.6106129"><ele>9.0</ele><time>2026-05-03T10:17:04.718Z</time></trkpt><trkpt lat="41.0899992" lon="19.6104889"><ele>9.0</ele><time>2026-05-03T10:17:05.718Z</time></trkpt><trkpt lat="41.0901611" lon="19.6103685"><ele>8.666666666666666</ele><time>2026-05-03T10:17:06.718Z</time></trkpt><trkpt lat="41.0903301" lon="19.6102416"><ele>8.333333333333332</ele><time>2026-05-03T10:17:07.717Z</time></trkpt><trkpt lat="41.0904995" lon="19.6101277"><ele>8.0</ele><time>2026-05-03T10:17:08.718Z</time></trkpt><trkpt lat="41.0906673" lon="19.6100092"><ele>7.666666666666666</ele><time>2026-05-03T10:17:09.718Z</time></trkpt><trkpt lat="41.0908343" lon="19.6099001"><ele>7.333333333333334</ele><time>2026-05-03T10:17:10.718Z</time></trkpt><trkpt lat="41.0910177" lon="19.6097941"><ele>7.0</ele><time>2026-05-03T10:17:11.718Z</time></trkpt><trkpt lat="41.0911934" lon="19.6096954"><ele>7.0</ele><time>2026-05-03T10:17:12.717Z</time></trkpt><trkpt lat="41.0913718" lon="19.6095992"><ele>7.0</ele><time>2026-05-03T10:17:13.718Z</time></trkpt><trkpt lat="41.0915418" lon="19.609512"><ele>7.0</ele><time>2026-05-03T10:17:14.718Z</time></trkpt><trkpt lat="41.0917138" lon="19.6094363"><ele>6.666666666666667</ele><time>2026-05-03T10:17:15.717Z</time></trkpt><trkpt lat="41.0918854" lon="19.6093558"><ele>6.333333333333334</ele><time>2026-05-03T10:17:16.717Z</time></trkpt><trkpt lat="41.0920562" lon="19.609288"><ele>6.0</ele><time>2026-05-03T10:17:17.718Z</time></trkpt><trkpt lat="41.0922284" lon="19.6092263"><ele>6.0</ele><time>2026-05-03T10:17:18.718Z</time></trkpt><trkpt lat="41.0924065" lon="19.609173"><ele>6.0</ele><time>2026-05-03T10:17:19.718Z</time></trkpt><trkpt lat="41.0925861" lon="19.6091178"><ele>6.0</ele><time>2026-05-03T10:17:20.717Z</time></trkpt><trkpt lat="41.0927676" lon="19.6090641"><ele>6.666666666666666</ele><time>2026-05-03T10:17:21.718Z</time></trkpt><trkpt lat="41.0929462" lon="19.6090075"><ele>7.333333333333333</ele><time>2026-05-03T10:17:22.718Z</time></trkpt><trkpt lat="41.0931301" lon="19.6089643"><ele>8.0</ele><time>2026-05-03T10:17:23.717Z</time></trkpt><trkpt lat="41.0933024" lon="19.6089322"><ele>8.333333333333332</ele><time>2026-05-03T10:17:24.718Z</time></trkpt><trkpt lat="41.0934793" lon="19.6089005"><ele>8.666666666666666</ele><time>2026-05-03T10:17:25.718Z</time></trkpt><trkpt lat="41.0936598" lon="19.60887"><ele>9.0</ele><time>2026-05-03T10:17:26.718Z</time></trkpt><trkpt lat="41.093836" lon="19.6088418"><ele>9.0</ele><time>2026-05-03T10:17:27.718Z</time></trkpt><trkpt lat="41.0940159" lon="19.6088199"><ele>9.0</ele><time>2026-05-03T10:17:28.717Z</time></trkpt><trkpt lat="41.0941984" lon="19.6088083"><ele>9.0</ele><time>2026-05-03T10:17:29.717Z</time></trkpt><trkpt lat="41.0943684" lon="19.6088035"><ele>9.0</ele><time>2026-05-03T10:17:30.717Z</time></trkpt><trkpt lat="41.0945448" lon="19.6088094"><ele>9.0</ele><time>2026-05-03T10:17:31.717Z</time></trkpt><trkpt lat="41.0947223" lon="19.608803"><ele>9.0</ele><time>2026-05-03T10:17:32.718Z</time></trkpt><trkpt lat="41.0948942" lon="19.6088109"><ele>9.0</ele><time>2026-05-03T10:17:33.717Z</time></trkpt><trkpt lat="41.09507" lon="19.6088201"><ele>9.0</ele><time>2026-05-03T10:17:34.717Z</time></trkpt><trkpt lat="41.095253" lon="19.6088402"><ele>9.0</ele><time>2026-05-03T10:17:35.718Z</time></trkpt><trkpt lat="41.0954251" lon="19.6088561"><ele>9.0</ele><time>2026-05-03T10:17:36.717Z</time></trkpt><trkpt lat="41.0955955" lon="19.6088795"><ele>9.0</ele><time>2026-05-03T10:17:37.718Z</time></trkpt><trkpt lat="41.095772" lon="19.6089043"><ele>9.0</ele><time>2026-05-03T10:17:38.717Z</time></trkpt><trkpt lat="41.0959464" lon="19.6089317"><ele>9.333333333333334</ele><time>2026-05-03T10:17:39.718Z</time></trkpt><trkpt lat="41.0961154" lon="19.6089557"><ele>9.666666666666668</ele><time>2026-05-03T10:17:40.718Z</time></trkpt><trkpt lat="41.0962975" lon="19.6089649"><ele>10.0</ele><time>2026-05-03T10:17:41.717Z</time></trkpt><trkpt lat="41.0964862" lon="19.6089749"><ele>11.0</ele><time>2026-05-03T10:17:42.718Z</time></trkpt><trkpt lat="41.0966863" lon="19.608999"><ele>12.0</ele><time>2026-05-03T10:17:43.717Z</time></trkpt><trkpt lat="41.0968869" lon="19.6090151"><ele>13.0</ele><time>2026-05-03T10:17:44.718Z</time></trkpt><trkpt lat="41.0971053" lon="19.6090387"><ele>13.0</ele><time>2026-05-03T10:17:45.717Z</time></trkpt><trkpt lat="41.097323" lon="19.6090666"><ele>13.0</ele><time>2026-05-03T10:17:46.718Z</time></trkpt><trkpt lat="41.0975398" lon="19.6090984"><ele>13.0</ele><time>2026-05-03T10:17:47.718Z</time></trkpt><trkpt lat="41.0977628" lon="19.609117"><ele>13.5</ele><time>2026-05-03T10:17:48.718Z</time></trkpt><trkpt lat="41.097988" lon="19.6091419"><ele>14.0</ele><time>2026-05-03T10:17:49.718Z</time></trkpt><trkpt lat="41.0982155" lon="19.6091696"><ele>14.5</ele><time>2026-05-03T10:17:50.717Z</time></trkpt><trkpt lat="41.0984368" lon="19.6091997"><ele>15.0</ele><time>2026-05-03T10:17:51.717Z</time></trkpt><trkpt lat="41.0986649" lon="19.6092075"><ele>15.0</ele><time>2026-05-03T10:17:52.717Z</time></trkpt><trkpt lat="41.0988957" lon="19.6092248"><ele>15.0</ele><time>2026-05-03T10:17:53.717Z</time></trkpt><trkpt lat="41.0991264" lon="19.6092381"><ele>16.0</ele><time>2026-05-03T10:17:54.718Z</time></trkpt><trkpt lat="41.0993554" lon="19.6092574"><ele>17.0</ele><time>2026-05-03T10:17:55.717Z</time></trkpt><trkpt lat="41.0995912" lon="19.6092592"><ele>17.0</ele><time>2026-05-03T10:17:56.718Z</time></trkpt><trkpt lat="41.0998245" lon="19.6092662"><ele>17.0</ele><time>2026-05-03T10:17:57.718Z</time></trkpt><trkpt lat="41.100061" lon="19.6092623"><ele>17.5</ele><time>2026-05-03T10:17:58.717Z</time></trkpt><trkpt lat="41.1002893" lon="19.6092684"><ele>18.0</ele><time>2026-05-03T10:17:59.717Z</time></trkpt><trkpt lat="41.1005215" lon="19.609259"><ele>18.5</ele><time>2026-05-03T10:18:00.717Z</time></trkpt><trkpt lat="41.1007692" lon="19.6092354"><ele>19.0</ele><time>2026-05-03T10:18:01.717Z</time></trkpt><trkpt lat="41.1010211" lon="19.6092175"><ele>19.0</ele><time>2026-05-03T10:18:02.717Z</time></trkpt><trkpt lat="41.1012727" lon="19.6091972"><ele>19.0</ele><time>2026-05-03T10:18:03.717Z</time></trkpt><trkpt lat="41.1015313" lon="19.6091686"><ele>18.5</ele><time>2026-05-03T10:18:04.717Z</time></trkpt><trkpt lat="41.1017824" lon="19.6091415"><ele>18.0</ele><time>2026-05-03T10:18:05.717Z</time></trkpt><trkpt lat="41.1020379" lon="19.6090948"><ele>18.0</ele><time>2026-05-03T10:18:06.717Z</time></trkpt><trkpt lat="41.1022904" lon="19.6090677"><ele>18.0</ele><time>2026-05-03T10:18:07.717Z</time></trkpt><trkpt lat="41.1025451" lon="19.6090468"><ele>18.0</ele><time>2026-05-03T10:18:08.718Z</time></trkpt><trkpt lat="41.1027955" lon="19.6090285"><ele>18.0</ele><time>2026-05-03T10:18:09.718Z</time></trkpt><trkpt lat="41.1030493" lon="19.6089924"><ele>16.0</ele><time>2026-05-03T10:18:10.718Z</time></trkpt><trkpt lat="41.1032951" lon="19.6089742"><ele>14.0</ele><time>2026-05-03T10:18:11.717Z</time></trkpt><trkpt lat="41.1035445" lon="19.6089469"><ele>14.0</ele><time>2026-05-03T10:18:12.717Z</time></trkpt><trkpt lat="41.1037909" lon="19.6089168"><ele>14.0</ele><time>2026-05-03T10:18:13.717Z</time></trkpt><trkpt lat="41.1040313" lon="19.6088909"><ele>14.5</ele><time>2026-05-03T10:18:14.718Z</time></trkpt><trkpt lat="41.1042671" lon="19.608866"><ele>15.0</ele><time>2026-05-03T10:18:15.717Z</time></trkpt><trkpt lat="41.1044975" lon="19.6088533"><ele>15.0</ele><time>2026-05-03T10:18:16.717Z</time></trkpt><trkpt lat="41.1047344" lon="19.6088232"><ele>15.0</ele><time>2026-05-03T10:18:17.718Z</time></trkpt><trkpt lat="41.1049595" lon="19.6087928"><ele>16.0</ele><time>2026-05-03T10:18:18.718Z</time></trkpt><trkpt lat="41.1051866" lon="19.6087542"><ele>17.0</ele><time>2026-05-03T10:18:19.718Z</time></trkpt><trkpt lat="41.1054064" lon="19.6087112"><ele>16.5</ele><time>2026-05-03T10:18:20.717Z</time></trkpt><trkpt lat="41.1056292" lon="19.6086549"><ele>16.0</ele><time>2026-05-03T10:18:21.718Z</time></trkpt><trkpt lat="41.1058527" lon="19.6086003"><ele>16.0</ele><time>2026-05-03T10:18:22.718Z</time></trkpt><trkpt lat="41.1060718" lon="19.6085397"><ele>16.0</ele><time>2026-05-03T10:18:23.718Z</time></trkpt><trkpt lat="41.1062847" lon="19.6084715"><ele>16.0</ele><time>2026-05-03T10:18:24.717Z</time></trkpt><trkpt lat="41.1064964" lon="19.6084022"><ele>16.666666666666664</ele><time>2026-05-03T10:18:25.718Z</time></trkpt><trkpt lat="41.1067124" lon="19.6083217"><ele>17.333333333333332</ele><time>2026-05-03T10:18:26.718Z</time></trkpt><trkpt lat="41.1069228" lon="19.6082391"><ele>18.0</ele><time>2026-05-03T10:18:27.717Z</time></trkpt><trkpt lat="41.1071277" lon="19.608164"><ele>18.0</ele><time>2026-05-03T10:18:28.717Z</time></trkpt><trkpt lat="41.1073371" lon="19.6080709"><ele>18.0</ele><time>2026-05-03T10:18:29.718Z</time></trkpt><trkpt lat="41.1075439" lon="19.6079801"><ele>18.0</ele><time>2026-05-03T10:18:30.717Z</time></trkpt><trkpt lat="41.1077551" lon="19.6078907"><ele>18.0</ele><time>2026-05-03T10:18:31.718Z</time></trkpt><trkpt lat="41.1079624" lon="19.6077984"><ele>18.0</ele><time>2026-05-03T10:18:32.718Z</time></trkpt><trkpt lat="41.1081664" lon="19.607707"><ele>18.0</ele><time>2026-05-03T10:18:33.718Z</time></trkpt><trkpt lat="41.1083762" lon="19.6076188"><ele>18.666666666666668</ele><time>2026-05-03T10:18:34.717Z</time></trkpt><trkpt lat="41.1085914" lon="19.6075354"><ele>19.333333333333336</ele><time>2026-05-03T10:18:35.717Z</time></trkpt><trkpt lat="41.1088006" lon="19.6074472"><ele>20.0</ele><time>2026-05-03T10:18:36.717Z</time></trkpt><trkpt lat="41.1090104" lon="19.6073476"><ele>21.333333333333336</ele><time>2026-05-03T10:18:37.718Z</time></trkpt><trkpt lat="41.1092206" lon="19.6072583"><ele>22.666666666666668</ele><time>2026-05-03T10:18:38.718Z</time></trkpt><trkpt lat="41.1094338" lon="19.6071732"><ele>24.0</ele><time>2026-05-03T10:18:39.717Z</time></trkpt><trkpt lat="41.1096425" lon="19.6070791"><ele>23.333333333333332</ele><time>2026-05-03T10:18:40.717Z</time></trkpt><trkpt lat="41.1098534" lon="19.6069847"><ele>22.666666666666664</ele><time>2026-05-03T10:18:41.717Z</time></trkpt><trkpt lat="41.1100634" lon="19.60689"><ele>22.0</ele><time>2026-05-03T10:18:42.718Z</time></trkpt><trkpt lat="41.1102683" lon="19.6067965"><ele>22.0</ele><time>2026-05-03T10:18:43.718Z</time></trkpt><trkpt lat="41.1104811" lon="19.6067098"><ele>22.0</ele><time>2026-05-03T10:18:44.717Z</time></trkpt><trkpt lat="41.1107017" lon="19.6066147"><ele>22.5</ele><time>2026-05-03T10:18:45.717Z</time></trkpt><trkpt lat="41.1109177" lon="19.6065166"><ele>23.0</ele><time>2026-05-03T10:18:46.717Z</time></trkpt><trkpt lat="41.1111375" lon="19.6064147"><ele>23.0</ele><time>2026-05-03T10:18:47.718Z</time></trkpt><trkpt lat="41.1113561" lon="19.6063171"><ele>23.0</ele><time>2026-05-03T10:18:48.717Z</time></trkpt><trkpt lat="41.1115713" lon="19.6062299"><ele>23.0</ele><time>2026-05-03T10:18:49.718Z</time></trkpt><trkpt lat="41.1117905" lon="19.6061363"><ele>23.0</ele><time>2026-05-03T10:18:50.717Z</time></trkpt><trkpt lat="41.1120123" lon="19.6060444"><ele>23.0</ele><time>2026-05-03T10:18:51.718Z</time></trkpt><trkpt lat="41.1122346" lon="19.6059418"><ele>23.0</ele><time>2026-05-03T10:18:52.718Z</time></trkpt><trkpt lat="41.1124576" lon="19.6058349"><ele>23.5</ele><time>2026-05-03T10:18:53.718Z</time></trkpt><trkpt lat="41.1126868" lon="19.6057356"><ele>24.0</ele><time>2026-05-03T10:18:54.717Z</time></trkpt><trkpt lat="41.112915" lon="19.6056317"><ele>24.0</ele><time>2026-05-03T10:18:55.718Z</time></trkpt><trkpt lat="41.1131385" lon="19.6055312"><ele>24.0</ele><time>2026-05-03T10:18:56.717Z</time></trkpt><trkpt lat="41.1133634" lon="19.6054299"><ele>24.0</ele><time>2026-05-03T10:18:57.718Z</time></trkpt><trkpt lat="41.1135927" lon="19.6053293"><ele>24.0</ele><time>2026-05-03T10:18:58.718Z</time></trkpt><trkpt lat="41.1138182" lon="19.6052327"><ele>23.5</ele><time>2026-05-03T10:18:59.718Z</time></trkpt><trkpt lat="41.114042" lon="19.6051287"><ele>23.0</ele><time>2026-05-03T10:19:00.718Z</time></trkpt><trkpt lat="41.1142637" lon="19.6050285"><ele>22.5</ele><time>2026-05-03T10:19:01.718Z</time></trkpt><trkpt lat="41.1144822" lon="19.6049342"><ele>22.0</ele><time>2026-05-03T10:19:02.717Z</time></trkpt><trkpt lat="41.1147026" lon="19.6048405"><ele>21.5</ele><time>2026-05-03T10:19:03.718Z</time></trkpt><trkpt lat="41.1149244" lon="19.6047473"><ele>21.0</ele><time>2026-05-03T10:19:04.718Z</time></trkpt><trkpt lat="41.1151439" lon="19.6046402"><ele>21.0</ele><time>2026-05-03T10:19:05.717Z</time></trkpt><trkpt lat="41.115363" lon="19.604548"><ele>21.0</ele><time>2026-05-03T10:19:06.718Z</time></trkpt><trkpt lat="41.1155772" lon="19.6044594"><ele>22.0</ele><time>2026-05-03T10:19:07.718Z</time></trkpt><trkpt lat="41.115802" lon="19.6043498"><ele>23.0</ele><time>2026-05-03T10:19:08.717Z</time></trkpt><trkpt lat="41.1160188" lon="19.6042592"><ele>23.0</ele><time>2026-05-03T10:19:09.717Z</time></trkpt><trkpt lat="41.116235" lon="19.6041553"><ele>23.0</ele><time>2026-05-03T10:19:10.718Z</time></trkpt><trkpt lat="41.1164506" lon="19.6040674"><ele>22.666666666666668</ele><time>2026-05-03T10:19:11.718Z</time></trkpt><trkpt lat="41.1166664" lon="19.603982"><ele>22.333333333333332</ele><time>2026-05-03T10:19:12.717Z</time></trkpt><trkpt lat="41.116875" lon="19.6038965"><ele>22.0</ele><time>2026-05-03T10:19:13.718Z</time></trkpt><trkpt lat="41.1170908" lon="19.6038205"><ele>22.0</ele><time>2026-05-03T10:19:14.717Z</time></trkpt><trkpt lat="41.1173054" lon="19.6037504"><ele>22.0</ele><time>2026-05-03T10:19:15.718Z</time></trkpt><trkpt lat="41.1175234" lon="19.6036707"><ele>22.0</ele><time>2026-05-03T10:19:16.718Z</time></trkpt><trkpt lat="41.1177386" lon="19.6035904"><ele>21.666666666666664</ele><time>2026-05-03T10:19:17.717Z</time></trkpt><trkpt lat="41.1179503" lon="19.603501"><ele>21.333333333333332</ele><time>2026-05-03T10:19:18.718Z</time></trkpt><trkpt lat="41.1181604" lon="19.6034184"><ele>21.0</ele><time>2026-05-03T10:19:19.717Z</time></trkpt><trkpt lat="41.1183717" lon="19.6033115"><ele>21.666666666666668</ele><time>2026-05-03T10:19:20.718Z</time></trkpt><trkpt lat="41.1185781" lon="19.6031987"><ele>22.333333333333336</ele><time>2026-05-03T10:19:21.717Z</time></trkpt><trkpt lat="41.1187813" lon="19.6030722"><ele>23.0</ele><time>2026-05-03T10:19:22.717Z</time></trkpt><trkpt lat="41.1189868" lon="19.6029391"><ele>23.0</ele><time>2026-05-03T10:19:23.718Z</time></trkpt><trkpt lat="41.1191892" lon="19.6028198"><ele>23.0</ele><time>2026-05-03T10:19:24.717Z</time></trkpt><trkpt lat="41.1193911" lon="19.602704"><ele>23.0</ele><time>2026-05-03T10:19:25.718Z</time></trkpt><trkpt lat="41.1195932" lon="19.6025923"><ele>23.0</ele><time>2026-05-03T10:19:26.718Z</time></trkpt><trkpt lat="41.1197911" lon="19.6024768"><ele>23.0</ele><time>2026-05-03T10:19:27.718Z</time></trkpt><trkpt lat="41.1199947" lon="19.6023557"><ele>23.0</ele><time>2026-05-03T10:19:28.718Z</time></trkpt><trkpt lat="41.1201964" lon="19.602236"><ele>23.0</ele><time>2026-05-03T10:19:29.718Z</time></trkpt><trkpt lat="41.1203978" lon="19.6021157"><ele>23.0</ele><time>2026-05-03T10:19:30.718Z</time></trkpt><trkpt lat="41.120597" lon="19.601998"><ele>23.0</ele><time>2026-05-03T10:19:31.718Z</time></trkpt><trkpt lat="41.1208075" lon="19.601865"><ele>23.333333333333336</ele><time>2026-05-03T10:19:32.717Z</time></trkpt><trkpt lat="41.1210169" lon="19.6017617"><ele>23.666666666666668</ele><time>2026-05-03T10:19:33.718Z</time></trkpt><trkpt lat="41.1212267" lon="19.601651"><ele>24.0</ele><time>2026-05-03T10:19:34.717Z</time></trkpt><trkpt lat="41.121437" lon="19.6015478"><ele>23.0</ele><time>2026-05-03T10:19:35.718Z</time></trkpt><trkpt lat="41.1216479" lon="19.6014463"><ele>22.0</ele><time>2026-05-03T10:19:36.718Z</time></trkpt><trkpt lat="41.1218616" lon="19.6013315"><ele>22.0</ele><time>2026-05-03T10:19:37.717Z</time></trkpt><trkpt lat="41.1220774" lon="19.6012288"><ele>22.0</ele><time>2026-05-03T10:19:38.717Z</time></trkpt><trkpt lat="41.1222965" lon="19.6011195"><ele>21.5</ele><time>2026-05-03T10:19:39.717Z</time></trkpt><trkpt lat="41.1225197" lon="19.6010156"><ele>21.0</ele><time>2026-05-03T10:19:40.717Z</time></trkpt><trkpt lat="41.1227399" lon="19.6008967"><ele>21.0</ele><time>2026-05-03T10:19:41.718Z</time></trkpt><trkpt lat="41.1229599" lon="19.6007921"><ele>21.0</ele><time>2026-05-03T10:19:42.718Z</time></trkpt><trkpt lat="41.1231703" lon="19.6006855"><ele>21.5</ele><time>2026-05-03T10:19:43.718Z</time></trkpt><trkpt lat="41.1233844" lon="19.6005706"><ele>22.0</ele><time>2026-05-03T10:19:44.717Z</time></trkpt><trkpt lat="41.1235913" lon="19.6004616"><ele>22.0</ele><time>2026-05-03T10:19:45.718Z</time></trkpt><trkpt lat="41.1238" lon="19.6003607"><ele>22.0</ele><time>2026-05-03T10:19:46.718Z</time></trkpt><trkpt lat="41.1240114" lon="19.600236"><ele>21.666666666666664</ele><time>2026-05-03T10:19:47.718Z</time></trkpt><trkpt lat="41.1242193" lon="19.6001259"><ele>21.333333333333332</ele><time>2026-05-03T10:19:48.718Z</time></trkpt><trkpt lat="41.1244274" lon="19.6000101"><ele>21.0</ele><time>2026-05-03T10:19:49.718Z</time></trkpt><trkpt lat="41.1246304" lon="19.5999133"><ele>21.0</ele><time>2026-05-03T10:19:50.718Z</time></trkpt><trkpt lat="41.1248327" lon="19.599817"><ele>21.0</ele><time>2026-05-03T10:19:51.717Z</time></trkpt><trkpt lat="41.1250393" lon="19.5997123"><ele>21.0</ele><time>2026-05-03T10:19:52.717Z</time></trkpt><trkpt lat="41.1252428" lon="19.5996199"><ele>21.0</ele><time>2026-05-03T10:19:53.717Z</time></trkpt><trkpt lat="41.125447" lon="19.5995105"><ele>21.0</ele><time>2026-05-03T10:19:54.718Z</time></trkpt><trkpt lat="41.1256521" lon="19.5994168"><ele>21.0</ele><time>2026-05-03T10:19:55.718Z</time></trkpt><trkpt lat="41.1258578" lon="19.5993131"><ele>21.333333333333332</ele><time>2026-05-03T10:19:56.717Z</time></trkpt><trkpt lat="41.1260586" lon="19.5992229"><ele>21.666666666666664</ele><time>2026-05-03T10:19:57.718Z</time></trkpt><trkpt lat="41.1262651" lon="19.5991304"><ele>22.0</ele><time>2026-05-03T10:19:58.717Z</time></trkpt><trkpt lat="41.1264733" lon="19.5990254"><ele>22.333333333333332</ele><time>2026-05-03T10:19:59.718Z</time></trkpt><trkpt lat="41.1266835" lon="19.5989345"><ele>22.666666666666668</ele><time>2026-05-03T10:20:00.717Z</time></trkpt><trkpt lat="41.1268844" lon="19.5988325"><ele>23.0</ele><time>2026-05-03T10:20:01.717Z</time></trkpt><trkpt lat="41.1270875" lon="19.5987331"><ele>22.333333333333336</ele><time>2026-05-03T10:20:02.717Z</time></trkpt><trkpt lat="41.1272994" lon="19.5986413"><ele>21.666666666666668</ele><time>2026-05-03T10:20:03.717Z</time></trkpt><trkpt lat="41.1275081" lon="19.5985356"><ele>21.0</ele><time>2026-05-03T10:20:04.718Z</time></trkpt><trkpt lat="41.1277132" lon="19.5984358"><ele>21.0</ele><time>2026-05-03T10:20:05.718Z</time></trkpt><trkpt lat="41.1279161" lon="19.59834"><ele>21.0</ele><time>2026-05-03T10:20:06.717Z</time></trkpt><trkpt lat="41.128118" lon="19.5982522"><ele>21.0</ele><time>2026-05-03T10:20:07.717Z</time></trkpt><trkpt lat="41.1283174" lon="19.598155"><ele>21.333333333333332</ele><time>2026-05-03T10:20:08.717Z</time></trkpt><trkpt lat="41.1285272" lon="19.5980506"><ele>21.666666666666664</ele><time>2026-05-03T10:20:09.718Z</time></trkpt><trkpt lat="41.1287306" lon="19.5979564"><ele>22.0</ele><time>2026-05-03T10:20:10.718Z</time></trkpt><trkpt lat="41.1289357" lon="19.5978612"><ele>22.666666666666664</ele><time>2026-05-03T10:20:11.718Z</time></trkpt><trkpt lat="41.1291424" lon="19.5977714"><ele>23.333333333333332</ele><time>2026-05-03T10:20:12.718Z</time></trkpt><trkpt lat="41.1293433" lon="19.5976806"><ele>24.0</ele><time>2026-05-03T10:20:13.717Z</time></trkpt><trkpt lat="41.1295441" lon="19.5975851"><ele>24.0</ele><time>2026-05-03T10:20:14.718Z</time></trkpt><trkpt lat="41.129752" lon="19.5974867"><ele>24.0</ele><time>2026-05-03T10:20:15.718Z</time></trkpt><trkpt lat="41.1299616" lon="19.5973852"><ele>24.0</ele><time>2026-05-03T10:20:16.718Z</time></trkpt><trkpt lat="41.13017" lon="19.597291"><ele>24.0</ele><time>2026-05-03T10:20:17.717Z</time></trkpt><trkpt lat="41.1303775" lon="19.5971941"><ele>24.0</ele><time>2026-05-03T10:20:18.717Z</time></trkpt><trkpt lat="41.1305843" lon="19.5971043"><ele>24.0</ele><time>2026-05-03T10:20:19.717Z</time></trkpt><trkpt lat="41.1307811" lon="19.5970097"><ele>23.666666666666668</ele><time>2026-05-03T10:20:20.717Z</time></trkpt><trkpt lat="41.130988" lon="19.5969041"><ele>23.333333333333336</ele><time>2026-05-03T10:20:21.718Z</time></trkpt><trkpt lat="41.1311948" lon="19.5968063"><ele>23.0</ele><time>2026-05-03T10:20:22.717Z</time></trkpt><trkpt lat="41.131386" lon="19.5967188"><ele>23.333333333333336</ele><time>2026-05-03T10:20:23.717Z</time></trkpt><trkpt lat="41.1315737" lon="19.5966329"><ele>23.666666666666668</ele><time>2026-05-03T10:20:24.717Z</time></trkpt><trkpt lat="41.131759" lon="19.5965489"><ele>24.0</ele><time>2026-05-03T10:20:25.718Z</time></trkpt><trkpt lat="41.1319518" lon="19.5964628"><ele>24.0</ele><time>2026-05-03T10:20:26.717Z</time></trkpt><trkpt lat="41.1321443" lon="19.5963742"><ele>24.0</ele><time>2026-05-03T10:20:27.718Z</time></trkpt><trkpt lat="41.1323259" lon="19.596287"><ele>24.0</ele><time>2026-05-03T10:20:28.718Z</time></trkpt><trkpt lat="41.1325004" lon="19.5962068"><ele>24.333333333333336</ele><time>2026-05-03T10:20:29.717Z</time></trkpt><trkpt lat="41.1326713" lon="19.5961311"><ele>24.666666666666668</ele><time>2026-05-03T10:20:30.717Z</time></trkpt><trkpt lat="41.1328403" lon="19.5960522"><ele>25.0</ele><time>2026-05-03T10:20:31.717Z</time></trkpt><trkpt lat="41.1330045" lon="19.5959663"><ele>25.0</ele><time>2026-05-03T10:20:32.717Z</time></trkpt><trkpt lat="41.1331764" lon="19.5958867"><ele>25.0</ele><time>2026-05-03T10:20:33.717Z</time></trkpt><trkpt lat="41.1333481" lon="19.595808"><ele>25.0</ele><time>2026-05-03T10:20:34.717Z</time></trkpt><trkpt lat="41.1335265" lon="19.5957301"><ele>25.333333333333336</ele><time>2026-05-03T10:20:35.717Z</time></trkpt><trkpt lat="41.1337056" lon="19.5956486"><ele>25.666666666666664</ele><time>2026-05-03T10:20:36.718Z</time></trkpt><trkpt lat="41.1338812" lon="19.5955646"><ele>26.0</ele><time>2026-05-03T10:20:37.718Z</time></trkpt><trkpt lat="41.1340582" lon="19.5954866"><ele>26.0</ele><time>2026-05-03T10:20:38.717Z</time></trkpt><trkpt lat="41.1342299" lon="19.5953978"><ele>26.0</ele><time>2026-05-03T10:20:39.718Z</time></trkpt><trkpt lat="41.1344086" lon="19.5953089"><ele>26.0</ele><time>2026-05-03T10:20:40.718Z</time></trkpt><trkpt lat="41.134594" lon="19.5952205"><ele>25.666666666666664</ele><time>2026-05-03T10:20:41.717Z</time></trkpt><trkpt lat="41.1347767" lon="19.5951276"><ele>25.333333333333336</ele><time>2026-05-03T10:20:42.717Z</time></trkpt><trkpt lat="41.1349662" lon="19.5950397"><ele>25.0</ele><time>2026-05-03T10:20:43.717Z</time></trkpt><trkpt lat="41.1351582" lon="19.5949499"><ele>25.0</ele><time>2026-05-03T10:20:44.717Z</time></trkpt><trkpt lat="41.1353496" lon="19.5948603"><ele>25.0</ele><time>2026-05-03T10:20:45.717Z</time></trkpt><trkpt lat="41.1355425" lon="19.5947682"><ele>25.0</ele><time>2026-05-03T10:20:46.717Z</time></trkpt><trkpt lat="41.1357352" lon="19.5946749"><ele>25.333333333333336</ele><time>2026-05-03T10:20:47.717Z</time></trkpt><trkpt lat="41.1359404" lon="19.5945895"><ele>25.666666666666664</ele><time>2026-05-03T10:20:48.718Z</time></trkpt><trkpt lat="41.1361394" lon="19.5945048"><ele>26.0</ele><time>2026-05-03T10:20:49.718Z</time></trkpt><trkpt lat="41.1363389" lon="19.5944151"><ele>26.333333333333332</ele><time>2026-05-03T10:20:50.717Z</time></trkpt><trkpt lat="41.1365288" lon="19.5943267"><ele>26.666666666666664</ele><time>2026-05-03T10:20:51.718Z</time></trkpt><trkpt lat="41.1367218" lon="19.5942355"><ele>27.0</ele><time>2026-05-03T10:20:52.717Z</time></trkpt><trkpt lat="41.1369201" lon="19.5941439"><ele>27.0</ele><time>2026-05-03T10:20:53.718Z</time></trkpt><trkpt lat="41.1371151" lon="19.5940541"><ele>27.0</ele><time>2026-05-03T10:20:54.718Z</time></trkpt><trkpt lat="41.1373113" lon="19.5939471"><ele>27.0</ele><time>2026-05-03T10:20:55.717Z</time></trkpt><trkpt lat="41.1375062" lon="19.5938541"><ele>27.0</ele><time>2026-05-03T10:20:56.718Z</time></trkpt><trkpt lat="41.1376986" lon="19.5937616"><ele>27.0</ele><time>2026-05-03T10:20:57.718Z</time></trkpt><trkpt lat="41.1378947" lon="19.5936696"><ele>27.0</ele><time>2026-05-03T10:20:58.717Z</time></trkpt><trkpt lat="41.1380821" lon="19.5935721"><ele>26.333333333333336</ele><time>2026-05-03T10:20:59.717Z</time></trkpt><trkpt lat="41.1382742" lon="19.5934796"><ele>25.666666666666668</ele><time>2026-05-03T10:21:00.717Z</time></trkpt><trkpt lat="41.1384582" lon="19.5933866"><ele>25.0</ele><time>2026-05-03T10:21:01.718Z</time></trkpt><trkpt lat="41.1386566" lon="19.5932994"><ele>25.0</ele><time>2026-05-03T10:21:02.717Z</time></trkpt><trkpt lat="41.1388511" lon="19.5932004"><ele>25.0</ele><time>2026-05-03T10:21:03.717Z</time></trkpt><trkpt lat="41.1390464" lon="19.5931154"><ele>25.0</ele><time>2026-05-03T10:21:04.717Z</time></trkpt><trkpt lat="41.1392357" lon="19.5930181"><ele>25.666666666666668</ele><time>2026-05-03T10:21:05.718Z</time></trkpt><trkpt lat="41.1394333" lon="19.5929308"><ele>26.333333333333336</ele><time>2026-05-03T10:21:06.717Z</time></trkpt><trkpt lat="41.1396278" lon="19.5928379"><ele>27.0</ele><time>2026-05-03T10:21:07.717Z</time></trkpt><trkpt lat="41.1398287" lon="19.5927483"><ele>26.666666666666664</ele><time>2026-05-03T10:21:08.718Z</time></trkpt><trkpt lat="41.1400269" lon="19.5926496"><ele>26.333333333333332</ele><time>2026-05-03T10:21:09.717Z</time></trkpt><trkpt lat="41.1402297" lon="19.5925567"><ele>26.0</ele><time>2026-05-03T10:21:10.717Z</time></trkpt><trkpt lat="41.1404331" lon="19.5924596"><ele>26.0</ele><time>2026-05-03T10:21:11.718Z</time></trkpt><trkpt lat="41.140635" lon="19.5923563"><ele>26.0</ele><time>2026-05-03T10:21:12.718Z</time></trkpt><trkpt lat="41.1408359" lon="19.5922543"><ele>26.0</ele><time>2026-05-03T10:21:13.718Z</time></trkpt><trkpt lat="41.1410395" lon="19.5921515"><ele>26.0</ele><time>2026-05-03T10:21:14.717Z</time></trkpt><trkpt lat="41.1412441" lon="19.5920514"><ele>26.0</ele><time>2026-05-03T10:21:15.717Z</time></trkpt><trkpt lat="41.1414559" lon="19.5919629"><ele>26.0</ele><time>2026-05-03T10:21:16.718Z</time></trkpt><trkpt lat="41.1416617" lon="19.5918567"><ele>26.333333333333332</ele><time>2026-05-03T10:21:17.718Z</time></trkpt><trkpt lat="41.1418632" lon="19.5917732"><ele>26.666666666666664</ele><time>2026-05-03T10:21:18.717Z</time></trkpt><trkpt lat="41.1420588" lon="19.591678"><ele>27.0</ele><time>2026-05-03T10:21:19.718Z</time></trkpt><trkpt lat="41.1422615" lon="19.5915819"><ele>28.0</ele><time>2026-05-03T10:21:20.718Z</time></trkpt><trkpt lat="41.1424616" lon="19.591473"><ele>29.0</ele><time>2026-05-03T10:21:21.718Z</time></trkpt><trkpt lat="41.1426634" lon="19.5913778"><ele>30.0</ele><time>2026-05-03T10:21:22.718Z</time></trkpt><trkpt lat="41.142871" lon="19.5912833"><ele>30.0</ele><time>2026-05-03T10:21:23.717Z</time></trkpt><trkpt lat="41.1430719" lon="19.5911787"><ele>30.0</ele><time>2026-05-03T10:21:24.717Z</time></trkpt><trkpt lat="41.1432652" lon="19.5910867"><ele>30.0</ele><time>2026-05-03T10:21:25.717Z</time></trkpt><trkpt lat="41.1434588" lon="19.5909993"><ele>30.0</ele><time>2026-05-03T10:21:26.718Z</time></trkpt><trkpt lat="41.1436513" lon="19.5908994"><ele>30.0</ele><time>2026-05-03T10:21:27.718Z</time></trkpt><trkpt lat="41.1438425" lon="19.5908113"><ele>30.0</ele><time>2026-05-03T10:21:28.718Z</time></trkpt><trkpt lat="41.1440337" lon="19.5907252"><ele>30.0</ele><time>2026-05-03T10:21:29.717Z</time></trkpt><trkpt lat="41.1442205" lon="19.5906365"><ele>30.0</ele><time>2026-05-03T10:21:30.717Z</time></trkpt><trkpt lat="41.1444069" lon="19.5905469"><ele>30.0</ele><time>2026-05-03T10:21:31.717Z</time></trkpt><trkpt lat="41.1445943" lon="19.5904578"><ele>30.0</ele><time>2026-05-03T10:21:32.718Z</time></trkpt><trkpt lat="41.1447812" lon="19.5903671"><ele>30.0</ele><time>2026-05-03T10:21:33.717Z</time></trkpt><trkpt lat="41.1449705" lon="19.5902827"><ele>30.0</ele><time>2026-05-03T10:21:34.717Z</time></trkpt><trkpt lat="41.1451522" lon="19.5902003"><ele>30.0</ele><time>2026-05-03T10:21:35.718Z</time></trkpt><trkpt lat="41.1453438" lon="19.5900994"><ele>30.0</ele><time>2026-05-03T10:21:36.718Z</time></trkpt><trkpt lat="41.1455384" lon="19.590016"><ele>30.0</ele><time>2026-05-03T10:21:37.718Z</time></trkpt><trkpt lat="41.1457296" lon="19.5899283"><ele>30.0</ele><time>2026-05-03T10:21:38.718Z</time></trkpt><trkpt lat="41.1459247" lon="19.589836"><ele>30.0</ele><time>2026-05-03T10:21:39.717Z</time></trkpt><trkpt lat="41.1461226" lon="19.5897419"><ele>30.0</ele><time>2026-05-03T10:21:40.718Z</time></trkpt><trkpt lat="41.1463227" lon="19.5896502"><ele>30.0</ele><time>2026-05-03T10:21:41.718Z</time></trkpt><trkpt lat="41.1465264" lon="19.5895495"><ele>30.0</ele><time>2026-05-03T10:21:42.717Z</time></trkpt><trkpt lat="41.1467324" lon="19.5894519"><ele>30.0</ele><time>2026-05-03T10:21:43.717Z</time></trkpt><trkpt lat="41.1469317" lon="19.5893338"><ele>29.666666666666664</ele><time>2026-05-03T10:21:44.717Z</time></trkpt><trkpt lat="41.1471318" lon="19.5892168"><ele>29.333333333333332</ele><time>2026-05-03T10:21:45.718Z</time></trkpt><trkpt lat="41.14733" lon="19.5890889"><ele>29.0</ele><time>2026-05-03T10:21:46.717Z</time></trkpt><trkpt lat="41.1475217" lon="19.5889502"><ele>29.0</ele><time>2026-05-03T10:21:47.717Z</time></trkpt><trkpt lat="41.1477116" lon="19.5887984"><ele>29.0</ele><time>2026-05-03T10:21:48.717Z</time></trkpt><trkpt lat="41.147902" lon="19.5886306"><ele>28.5</ele><time>2026-05-03T10:21:49.717Z</time></trkpt><trkpt lat="41.1480839" lon="19.5884561"><ele>28.0</ele><time>2026-05-03T10:21:50.718Z</time></trkpt><trkpt lat="41.1482626" lon="19.5882591"><ele>26.0</ele><time>2026-05-03T10:21:51.717Z</time></trkpt><trkpt lat="41.1484273" lon="19.5880653"><ele>24.0</ele><time>2026-05-03T10:21:52.718Z</time></trkpt><trkpt lat="41.1485977" lon="19.5878507"><ele>23.0</ele><time>2026-05-03T10:21:53.717Z</time></trkpt><trkpt lat="41.1487641" lon="19.587637"><ele>22.0</ele><time>2026-05-03T10:21:54.717Z</time></trkpt><trkpt lat="41.1489314" lon="19.5874223"><ele>23.0</ele><time>2026-05-03T10:21:55.717Z</time></trkpt><trkpt lat="41.1490976" lon="19.5872106"><ele>24.0</ele><time>2026-05-03T10:21:56.717Z</time></trkpt><trkpt lat="41.1492643" lon="19.5870027"><ele>24.0</ele><time>2026-05-03T10:21:57.717Z</time></trkpt><trkpt lat="41.1494322" lon="19.5868009"><ele>24.0</ele><time>2026-05-03T10:21:58.718Z</time></trkpt><trkpt lat="41.1496051" lon="19.5866176"><ele>24.0</ele><time>2026-05-03T10:21:59.718Z</time></trkpt><trkpt lat="41.1497867" lon="19.5864395"><ele>25.5</ele><time>2026-05-03T10:22:00.718Z</time></trkpt><trkpt lat="41.1499661" lon="19.5862714"><ele>27.0</ele><time>2026-05-03T10:22:01.717Z</time></trkpt><trkpt lat="41.1501676" lon="19.5861131"><ele>27.0</ele><time>2026-05-03T10:22:02.717Z</time></trkpt><trkpt lat="41.1503748" lon="19.5859523"><ele>27.0</ele><time>2026-05-03T10:22:03.717Z</time></trkpt><trkpt lat="41.1505758" lon="19.5858008"><ele>28.0</ele><time>2026-05-03T10:22:04.718Z</time></trkpt><trkpt lat="41.1507819" lon="19.5856512"><ele>29.0</ele><time>2026-05-03T10:22:05.718Z</time></trkpt><trkpt lat="41.1509926" lon="19.5855033"><ele>28.5</ele><time>2026-05-03T10:22:06.718Z</time></trkpt><trkpt lat="41.1511972" lon="19.5853429"><ele>28.0</ele><time>2026-05-03T10:22:07.717Z</time></trkpt><trkpt lat="41.1514009" lon="19.5851928"><ele>28.0</ele><time>2026-05-03T10:22:08.718Z</time></trkpt><trkpt lat="41.151605" lon="19.5850416"><ele>28.0</ele><time>2026-05-03T10:22:09.718Z</time></trkpt><trkpt lat="41.1518139" lon="19.5848889"><ele>28.0</ele><time>2026-05-03T10:22:10.717Z</time></trkpt><trkpt lat="41.1520214" lon="19.5847395"><ele>28.0</ele><time>2026-05-03T10:22:11.718Z</time></trkpt><trkpt lat="41.1522255" lon="19.5845959"><ele>27.5</ele><time>2026-05-03T10:22:12.718Z</time></trkpt><trkpt lat="41.1524309" lon="19.5844536"><ele>27.0</ele><time>2026-05-03T10:22:13.717Z</time></trkpt><trkpt lat="41.152634" lon="19.5843069"><ele>27.0</ele><time>2026-05-03T10:22:14.718Z</time></trkpt><trkpt lat="41.1528375" lon="19.5841589"><ele>27.0</ele><time>2026-05-03T10:22:15.717Z</time></trkpt><trkpt lat="41.1530405" lon="19.5840095"><ele>26.5</ele><time>2026-05-03T10:22:16.718Z</time></trkpt><trkpt lat="41.1532415" lon="19.5838576"><ele>26.0</ele><time>2026-05-03T10:22:17.718Z</time></trkpt><trkpt lat="41.1534485" lon="19.5836874"><ele>26.5</ele><time>2026-05-03T10:22:18.718Z</time></trkpt><trkpt lat="41.1536515" lon="19.5835252"><ele>27.0</ele><time>2026-05-03T10:22:19.717Z</time></trkpt><trkpt lat="41.1538521" lon="19.5833763"><ele>27.5</ele><time>2026-05-03T10:22:20.718Z</time></trkpt><trkpt lat="41.1540453" lon="19.5832147"><ele>28.0</ele><time>2026-05-03T10:22:21.717Z</time></trkpt><trkpt lat="41.1542322" lon="19.5830564"><ele>28.0</ele><time>2026-05-03T10:22:22.718Z</time></trkpt><trkpt lat="41.1544128" lon="19.5828962"><ele>28.0</ele><time>2026-05-03T10:22:23.717Z</time></trkpt><trkpt lat="41.1545906" lon="19.5827251"><ele>28.0</ele><time>2026-05-03T10:22:24.718Z</time></trkpt><trkpt lat="41.1547564" lon="19.5825615"><ele>28.666666666666668</ele><time>2026-05-03T10:22:25.718Z</time></trkpt><trkpt lat="41.154927" lon="19.5823892"><ele>29.333333333333336</ele><time>2026-05-03T10:22:26.717Z</time></trkpt><trkpt lat="41.1550928" lon="19.5822009"><ele>30.0</ele><time>2026-05-03T10:22:27.717Z</time></trkpt><trkpt lat="41.1552531" lon="19.5820153"><ele>30.0</ele><time>2026-05-03T10:22:28.718Z</time></trkpt><trkpt lat="41.1554066" lon="19.5818233"><ele>30.0</ele><time>2026-05-03T10:22:29.718Z</time></trkpt><trkpt lat="41.1555641" lon="19.5816253"><ele>30.0</ele><time>2026-05-03T10:22:30.717Z</time></trkpt><trkpt lat="41.1557171" lon="19.5814169"><ele>30.0</ele><time>2026-05-03T10:22:31.718Z</time></trkpt><trkpt lat="41.1558669" lon="19.5812032"><ele>30.0</ele><time>2026-05-03T10:22:32.718Z</time></trkpt><trkpt lat="41.1560144" lon="19.5809784"><ele>30.0</ele><time>2026-05-03T10:22:33.718Z</time></trkpt><trkpt lat="41.1561582" lon="19.5807498"><ele>30.0</ele><time>2026-05-03T10:22:34.717Z</time></trkpt><trkpt lat="41.1563041" lon="19.5805208"><ele>30.0</ele><time>2026-05-03T10:22:35.718Z</time></trkpt><trkpt lat="41.1564494" lon="19.5802923"><ele>29.5</ele><time>2026-05-03T10:22:36.717Z</time></trkpt><trkpt lat="41.1565924" lon="19.5800607"><ele>29.0</ele><time>2026-05-03T10:22:37.718Z</time></trkpt><trkpt lat="41.1567412" lon="19.5798302"><ele>29.0</ele><time>2026-05-03T10:22:38.717Z</time></trkpt><trkpt lat="41.1568941" lon="19.5796059"><ele>29.0</ele><time>2026-05-03T10:22:39.717Z</time></trkpt><trkpt lat="41.1570431" lon="19.5793756"><ele>28.5</ele><time>2026-05-03T10:22:40.718Z</time></trkpt><trkpt lat="41.1571906" lon="19.579146"><ele>28.0</ele><time>2026-05-03T10:22:41.717Z</time></trkpt><trkpt lat="41.157343" lon="19.5789138"><ele>28.0</ele><time>2026-05-03T10:22:42.717Z</time></trkpt><trkpt lat="41.1574964" lon="19.5786724"><ele>28.0</ele><time>2026-05-03T10:22:43.718Z</time></trkpt><trkpt lat="41.1576406" lon="19.5784393"><ele>28.0</ele><time>2026-05-03T10:22:44.717Z</time></trkpt><trkpt lat="41.1577865" lon="19.5782031"><ele>28.0</ele><time>2026-05-03T10:22:45.718Z</time></trkpt><trkpt lat="41.1579342" lon="19.5779585"><ele>27.5</ele><time>2026-05-03T10:22:46.718Z</time></trkpt><trkpt lat="41.1580828" lon="19.5777324"><ele>27.0</ele><time>2026-05-03T10:22:47.717Z</time></trkpt><trkpt lat="41.1582215" lon="19.577495"><ele>26.5</ele><time>2026-05-03T10:22:48.717Z</time></trkpt><trkpt lat="41.1583701" lon="19.5772622"><ele>26.0</ele><time>2026-05-03T10:22:49.718Z</time></trkpt><trkpt lat="41.1585278" lon="19.5770321"><ele>26.5</ele><time>2026-05-03T10:22:50.718Z</time></trkpt><trkpt lat="41.1586769" lon="19.5768053"><ele>27.0</ele><time>2026-05-03T10:22:51.718Z</time></trkpt><trkpt lat="41.1588204" lon="19.5765699"><ele>27.0</ele><time>2026-05-03T10:22:52.718Z</time></trkpt><trkpt lat="41.1589734" lon="19.5763445"><ele>27.0</ele><time>2026-05-03T10:22:53.718Z</time></trkpt><trkpt lat="41.1591194" lon="19.5761125"><ele>26.5</ele><time>2026-05-03T10:22:54.717Z</time></trkpt><trkpt lat="41.1592708" lon="19.5758814"><ele>26.0</ele><time>2026-05-03T10:22:55.717Z</time></trkpt><trkpt lat="41.1594227" lon="19.5756508"><ele>26.0</ele><time>2026-05-03T10:22:56.717Z</time></trkpt><trkpt lat="41.1595699" lon="19.5754195"><ele>26.0</ele><time>2026-05-03T10:22:57.717Z</time></trkpt><trkpt lat="41.1597228" lon="19.5751881"><ele>26.5</ele><time>2026-05-03T10:22:58.717Z</time></trkpt><trkpt lat="41.1598721" lon="19.5749502"><ele>27.0</ele><time>2026-05-03T10:22:59.717Z</time></trkpt><trkpt lat="41.1600281" lon="19.5747066"><ele>27.0</ele><time>2026-05-03T10:23:00.718Z</time></trkpt><trkpt lat="41.1601793" lon="19.5744691"><ele>27.0</ele><time>2026-05-03T10:23:01.718Z</time></trkpt><trkpt lat="41.1603295" lon="19.5742386"><ele>27.0</ele><time>2026-05-03T10:23:02.718Z</time></trkpt><trkpt lat="41.1604867" lon="19.5739958"><ele>27.0</ele><time>2026-05-03T10:23:03.718Z</time></trkpt><trkpt lat="41.160641" lon="19.5737536"><ele>27.0</ele><time>2026-05-03T10:23:04.717Z</time></trkpt><trkpt lat="41.1607911" lon="19.5735123"><ele>27.0</ele><time>2026-05-03T10:23:05.718Z</time></trkpt><trkpt lat="41.1609427" lon="19.5732756"><ele>27.0</ele><time>2026-05-03T10:23:06.718Z</time></trkpt><trkpt lat="41.1610963" lon="19.5730341"><ele>27.0</ele><time>2026-05-03T10:23:07.717Z</time></trkpt><trkpt lat="41.1612531" lon="19.5727938"><ele>26.5</ele><time>2026-05-03T10:23:08.718Z</time></trkpt><trkpt lat="41.1614095" lon="19.572558"><ele>26.0</ele><time>2026-05-03T10:23:09.718Z</time></trkpt><trkpt lat="41.1615626" lon="19.5723236"><ele>25.0</ele><time>2026-05-03T10:23:10.718Z</time></trkpt><trkpt lat="41.1617175" lon="19.5720786"><ele>24.0</ele><time>2026-05-03T10:23:11.717Z</time></trkpt><trkpt lat="41.161877" lon="19.5718306"><ele>24.0</ele><time>2026-05-03T10:23:12.718Z</time></trkpt><trkpt lat="41.1620338" lon="19.5715898"><ele>24.0</ele><time>2026-05-03T10:23:13.718Z</time></trkpt><trkpt lat="41.1621867" lon="19.571353"><ele>24.5</ele><time>2026-05-03T10:23:14.717Z</time></trkpt><trkpt lat="41.1623396" lon="19.5711052"><ele>25.0</ele><time>2026-05-03T10:23:15.717Z</time></trkpt><trkpt lat="41.1624967" lon="19.5708645"><ele>25.0</ele><time>2026-05-03T10:23:16.718Z</time></trkpt><trkpt lat="41.1626504" lon="19.5706292"><ele>25.0</ele><time>2026-05-03T10:23:17.717Z</time></trkpt><trkpt lat="41.162811" lon="19.5703868"><ele>24.5</ele><time>2026-05-03T10:23:18.717Z</time></trkpt><trkpt lat="41.1629693" lon="19.5701485"><ele>24.0</ele><time>2026-05-03T10:23:19.718Z</time></trkpt><trkpt lat="41.1631233" lon="19.5699031"><ele>23.5</ele><time>2026-05-03T10:23:20.718Z</time></trkpt><trkpt lat="41.1632731" lon="19.5696639"><ele>23.0</ele><time>2026-05-03T10:23:21.717Z</time></trkpt><trkpt lat="41.1634189" lon="19.5694195"><ele>22.0</ele><time>2026-05-03T10:23:22.718Z</time></trkpt><trkpt lat="41.1635682" lon="19.569176"><ele>21.0</ele><time>2026-05-03T10:23:23.718Z</time></trkpt><trkpt lat="41.1637199" lon="19.5689396"><ele>21.0</ele><time>2026-05-03T10:23:24.718Z</time></trkpt><trkpt lat="41.1638671" lon="19.5687034"><ele>21.0</ele><time>2026-05-03T10:23:25.718Z</time></trkpt><trkpt lat="41.1640177" lon="19.5684682"><ele>21.5</ele><time>2026-05-03T10:23:26.718Z</time></trkpt><trkpt lat="41.1641723" lon="19.5682369"><ele>22.0</ele><time>2026-05-03T10:23:27.717Z</time></trkpt><trkpt lat="41.1643287" lon="19.5680094"><ele>22.0</ele><time>2026-05-03T10:23:28.718Z</time></trkpt><trkpt lat="41.1644839" lon="19.5677713"><ele>22.0</ele><time>2026-05-03T10:23:29.718Z</time></trkpt><trkpt lat="41.1646368" lon="19.5675382"><ele>22.0</ele><time>2026-05-03T10:23:30.718Z</time></trkpt><trkpt lat="41.1647892" lon="19.5673074"><ele>22.0</ele><time>2026-05-03T10:23:31.718Z</time></trkpt><trkpt lat="41.1649403" lon="19.5670759"><ele>21.5</ele><time>2026-05-03T10:23:32.717Z</time></trkpt><trkpt lat="41.1650864" lon="19.5668389"><ele>21.0</ele><time>2026-05-03T10:23:33.717Z</time></trkpt><trkpt lat="41.1652378" lon="19.5666037"><ele>21.0</ele><time>2026-05-03T10:23:34.718Z</time></trkpt><trkpt lat="41.1653858" lon="19.5663705"><ele>21.0</ele><time>2026-05-03T10:23:35.718Z</time></trkpt><trkpt lat="41.1655352" lon="19.5661407"><ele>21.0</ele><time>2026-05-03T10:23:36.717Z</time></trkpt><trkpt lat="41.1656882" lon="19.5659033"><ele>21.0</ele><time>2026-05-03T10:23:37.717Z</time></trkpt><trkpt lat="41.1658424" lon="19.5656664"><ele>21.5</ele><time>2026-05-03T10:23:38.717Z</time></trkpt><trkpt lat="41.1659975" lon="19.5654312"><ele>22.0</ele><time>2026-05-03T10:23:39.717Z</time></trkpt><trkpt lat="41.1661492" lon="19.5651978"><ele>22.0</ele><time>2026-05-03T10:23:40.718Z</time></trkpt><trkpt lat="41.1663062" lon="19.5649626"><ele>22.0</ele><time>2026-05-03T10:23:41.718Z</time></trkpt><trkpt lat="41.1664568" lon="19.5647308"><ele>21.0</ele><time>2026-05-03T10:23:42.718Z</time></trkpt><trkpt lat="41.1666044" lon="19.5644852"><ele>20.0</ele><time>2026-05-03T10:23:43.717Z</time></trkpt><trkpt lat="41.1667568" lon="19.5642541"><ele>20.0</ele><time>2026-05-03T10:23:44.718Z</time></trkpt><trkpt lat="41.1669049" lon="19.564017"><ele>20.0</ele><time>2026-05-03T10:23:45.718Z</time></trkpt><trkpt lat="41.1670503" lon="19.5637833"><ele>19.0</ele><time>2026-05-03T10:23:46.718Z</time></trkpt><trkpt lat="41.1672016" lon="19.5635574"><ele>18.0</ele><time>2026-05-03T10:23:47.717Z</time></trkpt><trkpt lat="41.1673512" lon="19.5633294"><ele>19.5</ele><time>2026-05-03T10:23:48.717Z</time></trkpt><trkpt lat="41.1674999" lon="19.5631"><ele>21.0</ele><time>2026-05-03T10:23:49.718Z</time></trkpt><trkpt lat="41.1676457" lon="19.5628768"><ele>20.5</ele><time>2026-05-03T10:23:50.717Z</time></trkpt><trkpt lat="41.1677897" lon="19.5626424"><ele>20.0</ele><time>2026-05-03T10:23:51.717Z</time></trkpt><trkpt lat="41.1679383" lon="19.5624157"><ele>20.0</ele><time>2026-05-03T10:23:52.718Z</time></trkpt><trkpt lat="41.1680842" lon="19.562188"><ele>20.0</ele><time>2026-05-03T10:23:53.718Z</time></trkpt><trkpt lat="41.1682324" lon="19.5619556"><ele>19.5</ele><time>2026-05-03T10:23:54.717Z</time></trkpt><trkpt lat="41.1683801" lon="19.5617243"><ele>19.0</ele><time>2026-05-03T10:23:55.718Z</time></trkpt><trkpt lat="41.1685295" lon="19.5614978"><ele>19.0</ele><time>2026-05-03T10:23:56.717Z</time></trkpt><trkpt lat="41.1686778" lon="19.561273"><ele>19.0</ele><time>2026-05-03T10:23:57.718Z</time></trkpt><trkpt lat="41.1688276" lon="19.5610465"><ele>19.0</ele><time>2026-05-03T10:23:58.718Z</time></trkpt><trkpt lat="41.168974" lon="19.560817"><ele>19.0</ele><time>2026-05-03T10:23:59.717Z</time></trkpt><trkpt lat="41.1691225" lon="19.5605842"><ele>18.0</ele><time>2026-05-03T10:24:00.718Z</time></trkpt><trkpt lat="41.1692603" lon="19.5603451"><ele>17.0</ele><time>2026-05-03T10:24:01.718Z</time></trkpt><trkpt lat="41.1694075" lon="19.5601169"><ele>17.0</ele><time>2026-05-03T10:24:02.718Z</time></trkpt><trkpt lat="41.169552" lon="19.5598932"><ele>17.0</ele><time>2026-05-03T10:24:03.718Z</time></trkpt><trkpt lat="41.1696912" lon="19.559668"><ele>17.0</ele><time>2026-05-03T10:24:04.717Z</time></trkpt><trkpt lat="41.1698381" lon="19.559437"><ele>16.666666666666668</ele><time>2026-05-03T10:24:05.717Z</time></trkpt><trkpt lat="41.1699824" lon="19.5592026"><ele>16.333333333333332</ele><time>2026-05-03T10:24:06.717Z</time></trkpt><trkpt lat="41.1701224" lon="19.5589786"><ele>16.0</ele><time>2026-05-03T10:24:07.718Z</time></trkpt><trkpt lat="41.1702719" lon="19.5587553"><ele>16.0</ele><time>2026-05-03T10:24:08.718Z</time></trkpt><trkpt lat="41.1704166" lon="19.5585356"><ele>16.0</ele><time>2026-05-03T10:24:09.717Z</time></trkpt><trkpt lat="41.1705625" lon="19.5583156"><ele>16.0</ele><time>2026-05-03T10:24:10.718Z</time></trkpt><trkpt lat="41.1707092" lon="19.5580931"><ele>14.666666666666666</ele><time>2026-05-03T10:24:11.717Z</time></trkpt><trkpt lat="41.1708508" lon="19.5578601"><ele>13.333333333333332</ele><time>2026-05-03T10:24:12.718Z</time></trkpt><trkpt lat="41.1709968" lon="19.5576356"><ele>12.0</ele><time>2026-05-03T10:24:13.717Z</time></trkpt><trkpt lat="41.1711381" lon="19.5574082"><ele>12.0</ele><time>2026-05-03T10:24:14.717Z</time></trkpt><trkpt lat="41.1712819" lon="19.5571772"><ele>12.0</ele><time>2026-05-03T10:24:15.718Z</time></trkpt><trkpt lat="41.1714284" lon="19.5569534"><ele>12.0</ele><time>2026-05-03T10:24:16.717Z</time></trkpt><trkpt lat="41.1715687" lon="19.5567314"><ele>12.666666666666668</ele><time>2026-05-03T10:24:17.718Z</time></trkpt><trkpt lat="41.1717097" lon="19.5565145"><ele>13.333333333333334</ele><time>2026-05-03T10:24:18.718Z</time></trkpt><trkpt lat="41.1718485" lon="19.5562913"><ele>14.0</ele><time>2026-05-03T10:24:19.718Z</time></trkpt><trkpt lat="41.1719871" lon="19.5560771"><ele>14.0</ele><time>2026-05-03T10:24:20.718Z</time></trkpt><trkpt lat="41.1721264" lon="19.5558585"><ele>14.0</ele><time>2026-05-03T10:24:21.717Z</time></trkpt><trkpt lat="41.1722661" lon="19.555646"><ele>14.0</ele><time>2026-05-03T10:24:22.717Z</time></trkpt><trkpt lat="41.1724029" lon="19.5554346"><ele>14.0</ele><time>2026-05-03T10:24:23.717Z</time></trkpt><trkpt lat="41.1725405" lon="19.5552256"><ele>14.0</ele><time>2026-05-03T10:24:24.717Z</time></trkpt><trkpt lat="41.1726742" lon="19.5550165"><ele>14.0</ele><time>2026-05-03T10:24:25.718Z</time></trkpt><trkpt lat="41.1728029" lon="19.5548065"><ele>14.0</ele><time>2026-05-03T10:24:26.718Z</time></trkpt><trkpt lat="41.1729307" lon="19.5545962"><ele>14.0</ele><time>2026-05-03T10:24:27.718Z</time></trkpt><trkpt lat="41.1730663" lon="19.5543926"><ele>14.0</ele><time>2026-05-03T10:24:28.718Z</time></trkpt><trkpt lat="41.1731996" lon="19.5541972"><ele>14.0</ele><time>2026-05-03T10:24:29.717Z</time></trkpt><trkpt lat="41.1733302" lon="19.5539979"><ele>14.0</ele><time>2026-05-03T10:24:30.717Z</time></trkpt><trkpt lat="41.1734589" lon="19.5537963"><ele>14.0</ele><time>2026-05-03T10:24:31.718Z</time></trkpt><trkpt lat="41.1735839" lon="19.5535919"><ele>14.0</ele><time>2026-05-03T10:24:32.718Z</time></trkpt><trkpt lat="41.1737163" lon="19.5533948"><ele>14.0</ele><time>2026-05-03T10:24:33.717Z</time></trkpt><trkpt lat="41.173845" lon="19.5531991"><ele>14.0</ele><time>2026-05-03T10:24:34.717Z</time></trkpt><trkpt lat="41.1739769" lon="19.5529958"><ele>14.333333333333334</ele><time>2026-05-03T10:24:35.718Z</time></trkpt><trkpt lat="41.1741075" lon="19.5527892"><ele>14.666666666666668</ele><time>2026-05-03T10:24:36.718Z</time></trkpt><trkpt lat="41.1742394" lon="19.5525949"><ele>15.0</ele><time>2026-05-03T10:24:37.717Z</time></trkpt><trkpt lat="41.1743798" lon="19.5523961"><ele>15.0</ele><time>2026-05-03T10:24:38.718Z</time></trkpt><trkpt lat="41.1745155" lon="19.5522038"><ele>15.0</ele><time>2026-05-03T10:24:39.718Z</time></trkpt><trkpt lat="41.1746535" lon="19.5520192"><ele>15.0</ele><time>2026-05-03T10:24:40.717Z</time></trkpt><trkpt lat="41.1747995" lon="19.5518339"><ele>14.0</ele><time>2026-05-03T10:24:41.718Z</time></trkpt><trkpt lat="41.1749372" lon="19.5516569"><ele>13.0</ele><time>2026-05-03T10:24:42.718Z</time></trkpt><trkpt lat="41.1750863" lon="19.551481"><ele>12.0</ele><time>2026-05-03T10:24:43.718Z</time></trkpt><trkpt lat="41.1752341" lon="19.5513118"><ele>12.0</ele><time>2026-05-03T10:24:44.718Z</time></trkpt><trkpt lat="41.1753831" lon="19.5511365"><ele>12.0</ele><time>2026-05-03T10:24:45.718Z</time></trkpt><trkpt lat="41.1755337" lon="19.5509692"><ele>12.0</ele><time>2026-05-03T10:24:46.718Z</time></trkpt><trkpt lat="41.1756957" lon="19.5508039"><ele>12.333333333333332</ele><time>2026-05-03T10:24:47.718Z</time></trkpt><trkpt lat="41.1758472" lon="19.550645"><ele>12.666666666666666</ele><time>2026-05-03T10:24:48.718Z</time></trkpt><trkpt lat="41.1760002" lon="19.5504851"><ele>13.0</ele><time>2026-05-03T10:24:49.718Z</time></trkpt><trkpt lat="41.1761619" lon="19.5503329"><ele>13.0</ele><time>2026-05-03T10:24:50.718Z</time></trkpt><trkpt lat="41.1763189" lon="19.5501812"><ele>13.0</ele><time>2026-05-03T10:24:51.717Z</time></trkpt><trkpt lat="41.1764708" lon="19.5500331"><ele>13.0</ele><time>2026-05-03T10:24:52.717Z</time></trkpt><trkpt lat="41.1766308" lon="19.549897"><ele>13.333333333333332</ele><time>2026-05-03T10:24:53.718Z</time></trkpt><trkpt lat="41.1767906" lon="19.5497583"><ele>13.666666666666668</ele><time>2026-05-03T10:24:54.718Z</time></trkpt><trkpt lat="41.1769513" lon="19.5496151"><ele>14.0</ele><time>2026-05-03T10:24:55.717Z</time></trkpt><trkpt lat="41.1771088" lon="19.5494844"><ele>14.0</ele><time>2026-05-03T10:24:56.717Z</time></trkpt><trkpt lat="41.1772668" lon="19.5493547"><ele>14.0</ele><time>2026-05-03T10:24:57.717Z</time></trkpt><trkpt lat="41.1774219" lon="19.5492172"><ele>14.0</ele><time>2026-05-03T10:24:58.718Z</time></trkpt><trkpt lat="41.1775741" lon="19.5490783"><ele>14.0</ele><time>2026-05-03T10:24:59.717Z</time></trkpt><trkpt lat="41.1777325" lon="19.5489347"><ele>14.0</ele><time>2026-05-03T10:25:00.718Z</time></trkpt><trkpt lat="41.1778907" lon="19.5488018"><ele>14.0</ele><time>2026-05-03T10:25:01.718Z</time></trkpt><trkpt lat="41.1780485" lon="19.5486672"><ele>13.666666666666668</ele><time>2026-05-03T10:25:02.717Z</time></trkpt><trkpt lat="41.1782098" lon="19.5485294"><ele>13.333333333333332</ele><time>2026-05-03T10:25:03.718Z</time></trkpt><trkpt lat="41.1783663" lon="19.5483929"><ele>13.0</ele><time>2026-05-03T10:25:04.717Z</time></trkpt><trkpt lat="41.178526" lon="19.5482482"><ele>13.0</ele><time>2026-05-03T10:25:05.718Z</time></trkpt><trkpt lat="41.1786863" lon="19.5481017"><ele>13.0</ele><time>2026-05-03T10:25:06.718Z</time></trkpt><trkpt lat="41.1788458" lon="19.5479711"><ele>13.0</ele><time>2026-05-03T10:25:07.718Z</time></trkpt><trkpt lat="41.1790026" lon="19.5478384"><ele>13.0</ele><time>2026-05-03T10:25:08.718Z</time></trkpt><trkpt lat="41.1791661" lon="19.5476954"><ele>13.0</ele><time>2026-05-03T10:25:09.718Z</time></trkpt><trkpt lat="41.1793286" lon="19.5475512"><ele>13.0</ele><time>2026-05-03T10:25:10.717Z</time></trkpt><trkpt lat="41.1794876" lon="19.5474169"><ele>13.0</ele><time>2026-05-03T10:25:11.718Z</time></trkpt><trkpt lat="41.1796493" lon="19.5472833"><ele>13.0</ele><time>2026-05-03T10:25:12.717Z</time></trkpt><trkpt lat="41.1798067" lon="19.54714"><ele>13.0</ele><time>2026-05-03T10:25:13.717Z</time></trkpt><trkpt lat="41.1799719" lon="19.5469929"><ele>13.333333333333332</ele><time>2026-05-03T10:25:14.718Z</time></trkpt><trkpt lat="41.1801327" lon="19.546853"><ele>13.666666666666668</ele><time>2026-05-03T10:25:15.717Z</time></trkpt><trkpt lat="41.1802918" lon="19.5467087"><ele>14.0</ele><time>2026-05-03T10:25:16.717Z</time></trkpt><trkpt lat="41.1804574" lon="19.5465594"><ele>14.0</ele><time>2026-05-03T10:25:17.718Z</time></trkpt><trkpt lat="41.1806227" lon="19.546414"><ele>14.0</ele><time>2026-05-03T10:25:18.717Z</time></trkpt><trkpt lat="41.1807916" lon="19.5462696"><ele>14.0</ele><time>2026-05-03T10:25:19.717Z</time></trkpt><trkpt lat="41.1809661" lon="19.5461299"><ele>13.333333333333334</ele><time>2026-05-03T10:25:20.717Z</time></trkpt><trkpt lat="41.1811366" lon="19.5459873"><ele>12.666666666666668</ele><time>2026-05-03T10:25:21.718Z</time></trkpt><trkpt lat="41.1812907" lon="19.5458413"><ele>12.0</ele><time>2026-05-03T10:25:22.718Z</time></trkpt><trkpt lat="41.1814607" lon="19.5456991"><ele>12.0</ele><time>2026-05-03T10:25:23.717Z</time></trkpt><trkpt lat="41.1816333" lon="19.5455564"><ele>12.0</ele><time>2026-05-03T10:25:24.718Z</time></trkpt><trkpt lat="41.1818042" lon="19.5454029"><ele>12.0</ele><time>2026-05-03T10:25:25.717Z</time></trkpt><trkpt lat="41.1819739" lon="19.5452603"><ele>12.0</ele><time>2026-05-03T10:25:26.718Z</time></trkpt><trkpt lat="41.1821484" lon="19.5451094"><ele>12.0</ele><time>2026-05-03T10:25:27.718Z</time></trkpt><trkpt lat="41.1823172" lon="19.5449717"><ele>12.0</ele><time>2026-05-03T10:25:28.718Z</time></trkpt><trkpt lat="41.1824879" lon="19.5448203"><ele>12.0</ele><time>2026-05-03T10:25:29.717Z</time></trkpt><trkpt lat="41.1826606" lon="19.5446666"><ele>12.0</ele><time>2026-05-03T10:25:30.717Z</time></trkpt><trkpt lat="41.1828312" lon="19.5445174"><ele>12.0</ele><time>2026-05-03T10:25:31.718Z</time></trkpt><trkpt lat="41.1830087" lon="19.5443819"><ele>12.0</ele><time>2026-05-03T10:25:32.717Z</time></trkpt><trkpt lat="41.1831833" lon="19.5442506"><ele>12.0</ele><time>2026-05-03T10:25:33.718Z</time></trkpt><trkpt lat="41.1833566" lon="19.5441177"><ele>12.0</ele><time>2026-05-03T10:25:34.717Z</time></trkpt><trkpt lat="41.183537" lon="19.5439902"><ele>12.0</ele><time>2026-05-03T10:25:35.717Z</time></trkpt><trkpt lat="41.1837165" lon="19.5438797"><ele>12.0</ele><time>2026-05-03T10:25:36.718Z</time></trkpt><trkpt lat="41.1838991" lon="19.5437676"><ele>12.0</ele><time>2026-05-03T10:25:37.718Z</time></trkpt><trkpt lat="41.1840804" lon="19.5436599"><ele>12.0</ele><time>2026-05-03T10:25:38.717Z</time></trkpt><trkpt lat="41.1842667" lon="19.5435528"><ele>12.0</ele><time>2026-05-03T10:25:39.717Z</time></trkpt><trkpt lat="41.1844489" lon="19.543458"><ele>12.0</ele><time>2026-05-03T10:25:40.718Z</time></trkpt><trkpt lat="41.1846395" lon="19.5433637"><ele>12.0</ele><time>2026-05-03T10:25:41.717Z</time></trkpt><trkpt lat="41.1848304" lon="19.5432686"><ele>12.0</ele><time>2026-05-03T10:25:42.717Z</time></trkpt><trkpt lat="41.1850194" lon="19.5431766"><ele>12.0</ele><time>2026-05-03T10:25:43.717Z</time></trkpt><trkpt lat="41.1852156" lon="19.5430964"><ele>11.333333333333334</ele><time>2026-05-03T10:25:44.718Z</time></trkpt><trkpt lat="41.1854136" lon="19.5430201"><ele>10.666666666666668</ele><time>2026-05-03T10:25:45.718Z</time></trkpt><trkpt lat="41.1856107" lon="19.5429401"><ele>10.0</ele><time>2026-05-03T10:25:46.718Z</time></trkpt><trkpt lat="41.1858056" lon="19.5428604"><ele>9.666666666666668</ele><time>2026-05-03T10:25:47.718Z</time></trkpt><trkpt lat="41.1860034" lon="19.5427821"><ele>9.333333333333334</ele><time>2026-05-03T10:25:48.717Z</time></trkpt><trkpt lat="41.1861999" lon="19.5427013"><ele>9.0</ele><time>2026-05-03T10:25:49.717Z</time></trkpt><trkpt lat="41.1863888" lon="19.5426269"><ele>10.333333333333332</ele><time>2026-05-03T10:25:50.717Z</time></trkpt><trkpt lat="41.1865822" lon="19.5425426"><ele>11.666666666666666</ele><time>2026-05-03T10:25:51.718Z</time></trkpt><trkpt lat="41.1867738" lon="19.5424631"><ele>13.0</ele><time>2026-05-03T10:25:52.718Z</time></trkpt><trkpt lat="41.1869696" lon="19.5423856"><ele>13.0</ele><time>2026-05-03T10:25:53.717Z</time></trkpt><trkpt lat="41.1871656" lon="19.5423052"><ele>13.0</ele><time>2026-05-03T10:25:54.717Z</time></trkpt><trkpt lat="41.1873665" lon="19.5422149"><ele>13.0</ele><time>2026-05-03T10:25:55.717Z</time></trkpt><trkpt lat="41.1875628" lon="19.5421365"><ele>12.0</ele><time>2026-05-03T10:25:56.718Z</time></trkpt><trkpt lat="41.1877643" lon="19.5420557"><ele>11.0</ele><time>2026-05-03T10:25:57.717Z</time></trkpt><trkpt lat="41.1879614" lon="19.5419714"><ele>10.0</ele><time>2026-05-03T10:25:58.718Z</time></trkpt><trkpt lat="41.1881573" lon="19.5418879"><ele>9.666666666666668</ele><time>2026-05-03T10:25:59.718Z</time></trkpt><trkpt lat="41.1883538" lon="19.5418119"><ele>9.333333333333334</ele><time>2026-05-03T10:26:00.718Z</time></trkpt><trkpt lat="41.1885471" lon="19.5417314"><ele>9.0</ele><time>2026-05-03T10:26:01.718Z</time></trkpt><trkpt lat="41.1887426" lon="19.5416621"><ele>9.0</ele><time>2026-05-03T10:26:02.718Z</time></trkpt><trkpt lat="41.1889369" lon="19.5415856"><ele>9.0</ele><time>2026-05-03T10:26:03.718Z</time></trkpt><trkpt lat="41.1891348" lon="19.5415078"><ele>9.0</ele><time>2026-05-03T10:26:04.718Z</time></trkpt><trkpt lat="41.1893322" lon="19.5414267"><ele>8.666666666666666</ele><time>2026-05-03T10:26:05.717Z</time></trkpt><trkpt lat="41.1895309" lon="19.5413459"><ele>8.333333333333332</ele><time>2026-05-03T10:26:06.717Z</time></trkpt><trkpt lat="41.1897317" lon="19.5412669"><ele>8.0</ele><time>2026-05-03T10:26:07.717Z</time></trkpt><trkpt lat="41.1899284" lon="19.5411765"><ele>8.0</ele><time>2026-05-03T10:26:08.717Z</time></trkpt><trkpt lat="41.1901249" lon="19.5410937"><ele>8.0</ele><time>2026-05-03T10:26:09.717Z</time></trkpt><trkpt lat="41.1903255" lon="19.5410128"><ele>8.0</ele><time>2026-05-03T10:26:10.718Z</time></trkpt><trkpt lat="41.1905257" lon="19.5409212"><ele>7.666666666666666</ele><time>2026-05-03T10:26:11.718Z</time></trkpt><trkpt lat="41.1907244" lon="19.540845"><ele>7.333333333333334</ele><time>2026-05-03T10:26:12.718Z</time></trkpt><trkpt lat="41.1909241" lon="19.5407547"><ele>7.0</ele><time>2026-05-03T10:26:13.717Z</time></trkpt><trkpt lat="41.1911258" lon="19.5406785"><ele>7.0</ele><time>2026-05-03T10:26:14.718Z</time></trkpt><trkpt lat="41.1913258" lon="19.5405974"><ele>7.0</ele><time>2026-05-03T10:26:15.718Z</time></trkpt><trkpt lat="41.1915301" lon="19.5405036"><ele>7.0</ele><time>2026-05-03T10:26:16.717Z</time></trkpt><trkpt lat="41.1917309" lon="19.5404209"><ele>6.666666666666667</ele><time>2026-05-03T10:26:17.717Z</time></trkpt><trkpt lat="41.1919325" lon="19.5403451"><ele>6.333333333333334</ele><time>2026-05-03T10:26:18.717Z</time></trkpt><trkpt lat="41.1921397" lon="19.540264"><ele>6.0</ele><time>2026-05-03T10:26:19.718Z</time></trkpt><trkpt lat="41.1923445" lon="19.5401598"><ele>6.0</ele><time>2026-05-03T10:26:20.718Z</time></trkpt><trkpt lat="41.192549" lon="19.5400789"><ele>6.0</ele><time>2026-05-03T10:26:21.718Z</time></trkpt><trkpt lat="41.1927516" lon="19.5400052"><ele>6.0</ele><time>2026-05-03T10:26:22.718Z</time></trkpt><trkpt lat="41.1929522" lon="19.5399181"><ele>6.0</ele><time>2026-05-03T10:26:23.718Z</time></trkpt><trkpt lat="41.1931534" lon="19.5398409"><ele>6.0</ele><time>2026-05-03T10:26:24.717Z</time></trkpt><trkpt lat="41.1933522" lon="19.5397497"><ele>6.0</ele><time>2026-05-03T10:26:25.717Z</time></trkpt><trkpt lat="41.1935553" lon="19.5396781"><ele>6.333333333333334</ele><time>2026-05-03T10:26:26.718Z</time></trkpt><trkpt lat="41.1937586" lon="19.539595"><ele>6.666666666666667</ele><time>2026-05-03T10:26:27.717Z</time></trkpt><trkpt lat="41.1939579" lon="19.5395123"><ele>7.0</ele><time>2026-05-03T10:26:28.718Z</time></trkpt><trkpt lat="41.1941593" lon="19.5394308"><ele>7.333333333333334</ele><time>2026-05-03T10:26:29.717Z</time></trkpt><trkpt lat="41.1943586" lon="19.5393489"><ele>7.666666666666666</ele><time>2026-05-03T10:26:30.718Z</time></trkpt><trkpt lat="41.1945567" lon="19.5392606"><ele>8.0</ele><time>2026-05-03T10:26:31.717Z</time></trkpt><trkpt lat="41.1947545" lon="19.5391849"><ele>7.666666666666666</ele><time>2026-05-03T10:26:32.718Z</time></trkpt><trkpt lat="41.1949559" lon="19.5391051"><ele>7.333333333333334</ele><time>2026-05-03T10:26:33.718Z</time></trkpt><trkpt lat="41.1951543" lon="19.5390186"><ele>7.0</ele><time>2026-05-03T10:26:34.718Z</time></trkpt><trkpt lat="41.1953468" lon="19.5389401"><ele>7.0</ele><time>2026-05-03T10:26:35.718Z</time></trkpt><trkpt lat="41.1955442" lon="19.5388655"><ele>7.0</ele><time>2026-05-03T10:26:36.717Z</time></trkpt><trkpt lat="41.1957378" lon="19.5387811"><ele>7.0</ele><time>2026-05-03T10:26:37.717Z</time></trkpt><trkpt lat="41.1959374" lon="19.5386938"><ele>6.666666666666667</ele><time>2026-05-03T10:26:38.718Z</time></trkpt><trkpt lat="41.1961372" lon="19.5386065"><ele>6.333333333333334</ele><time>2026-05-03T10:26:39.717Z</time></trkpt><trkpt lat="41.1963344" lon="19.5385303"><ele>6.0</ele><time>2026-05-03T10:26:40.717Z</time></trkpt><trkpt lat="41.1965331" lon="19.538455"><ele>5.666666666666667</ele><time>2026-05-03T10:26:41.718Z</time></trkpt><trkpt lat="41.1967297" lon="19.5383739"><ele>5.333333333333334</ele><time>2026-05-03T10:26:42.718Z</time></trkpt><trkpt lat="41.1969278" lon="19.5382983"><ele>5.0</ele><time>2026-05-03T10:26:43.718Z</time></trkpt><trkpt lat="41.197124" lon="19.5382046"><ele>5.0</ele><time>2026-05-03T10:26:44.718Z</time></trkpt><trkpt lat="41.1973175" lon="19.5381195"><ele>5.0</ele><time>2026-05-03T10:26:45.718Z</time></trkpt><trkpt lat="41.1975208" lon="19.5380301"><ele>5.0</ele><time>2026-05-03T10:26:46.718Z</time></trkpt><trkpt lat="41.1977227" lon="19.5379455"><ele>5.333333333333334</ele><time>2026-05-03T10:26:47.718Z</time></trkpt><trkpt lat="41.1979267" lon="19.537866"><ele>5.666666666666667</ele><time>2026-05-03T10:26:48.718Z</time></trkpt><trkpt lat="41.1981291" lon="19.5377919"><ele>6.0</ele><time>2026-05-03T10:26:49.717Z</time></trkpt><trkpt lat="41.1983294" lon="19.5377145"><ele>6.0</ele><time>2026-05-03T10:26:50.718Z</time></trkpt><trkpt lat="41.1985316" lon="19.5376279"><ele>6.0</ele><time>2026-05-03T10:26:51.718Z</time></trkpt><trkpt lat="41.1987323" lon="19.5375449"><ele>6.0</ele><time>2026-05-03T10:26:52.718Z</time></trkpt><trkpt lat="41.1989327" lon="19.5374642"><ele>6.0</ele><time>2026-05-03T10:26:53.718Z</time></trkpt><trkpt lat="41.1991353" lon="19.537381"><ele>6.0</ele><time>2026-05-03T10:26:54.718Z</time></trkpt><trkpt lat="41.1993365" lon="19.5372984"><ele>6.0</ele><time>2026-05-03T10:26:55.717Z</time></trkpt><trkpt lat="41.1995375" lon="19.5372158"><ele>6.0</ele><time>2026-05-03T10:26:56.717Z</time></trkpt><trkpt lat="41.199741" lon="19.5371377"><ele>6.0</ele><time>2026-05-03T10:26:57.718Z</time></trkpt><trkpt lat="41.1999418" lon="19.5370449"><ele>6.0</ele><time>2026-05-03T10:26:58.717Z</time></trkpt><trkpt lat="41.2001454" lon="19.5369625"><ele>6.0</ele><time>2026-05-03T10:26:59.717Z</time></trkpt><trkpt lat="41.2003479" lon="19.5368808"><ele>6.0</ele><time>2026-05-03T10:27:00.718Z</time></trkpt><trkpt lat="41.200555" lon="19.5367955"><ele>6.0</ele><time>2026-05-03T10:27:01.717Z</time></trkpt><trkpt lat="41.2007596" lon="19.5367022"><ele>5.666666666666667</ele><time>2026-05-03T10:27:02.717Z</time></trkpt><trkpt lat="41.2009684" lon="19.5366168"><ele>5.333333333333334</ele><time>2026-05-03T10:27:03.717Z</time></trkpt><trkpt lat="41.2011727" lon="19.5365252"><ele>5.0</ele><time>2026-05-03T10:27:04.718Z</time></trkpt><trkpt lat="41.2013779" lon="19.5364317"><ele>5.333333333333334</ele><time>2026-05-03T10:27:05.717Z</time></trkpt><trkpt lat="41.2015796" lon="19.536345"><ele>5.666666666666667</ele><time>2026-05-03T10:27:06.717Z</time></trkpt><trkpt lat="41.201779" lon="19.5362545"><ele>6.0</ele><time>2026-05-03T10:27:07.717Z</time></trkpt><trkpt lat="41.2019801" lon="19.5361693"><ele>6.0</ele><time>2026-05-03T10:27:08.718Z</time></trkpt><trkpt lat="41.2021792" lon="19.5360837"><ele>6.0</ele><time>2026-05-03T10:27:09.718Z</time></trkpt><trkpt lat="41.2023779" lon="19.5360019"><ele>6.0</ele><time>2026-05-03T10:27:10.718Z</time></trkpt><trkpt lat="41.202578" lon="19.5359222"><ele>6.333333333333334</ele><time>2026-05-03T10:27:11.718Z</time></trkpt><trkpt lat="41.2027778" lon="19.5358421"><ele>6.666666666666667</ele><time>2026-05-03T10:27:12.717Z</time></trkpt><trkpt lat="41.2029759" lon="19.535766"><ele>7.0</ele><time>2026-05-03T10:27:13.718Z</time></trkpt><trkpt lat="41.2031745" lon="19.5356936"><ele>7.0</ele><time>2026-05-03T10:27:14.718Z</time></trkpt><trkpt lat="41.2033744" lon="19.535613"><ele>7.0</ele><time>2026-05-03T10:27:15.718Z</time></trkpt><trkpt lat="41.2035795" lon="19.5355281"><ele>7.0</ele><time>2026-05-03T10:27:16.718Z</time></trkpt><trkpt lat="41.2037776" lon="19.5354469"><ele>7.0</ele><time>2026-05-03T10:27:17.718Z</time></trkpt><trkpt lat="41.2039771" lon="19.5353697"><ele>7.0</ele><time>2026-05-03T10:27:18.717Z</time></trkpt><trkpt lat="41.2041769" lon="19.5352892"><ele>7.0</ele><time>2026-05-03T10:27:19.717Z</time></trkpt><trkpt lat="41.2043781" lon="19.5352124"><ele>6.666666666666667</ele><time>2026-05-03T10:27:20.718Z</time></trkpt><trkpt lat="41.2045782" lon="19.5351445"><ele>6.333333333333334</ele><time>2026-05-03T10:27:21.718Z</time></trkpt><trkpt lat="41.2047738" lon="19.5350539"><ele>6.0</ele><time>2026-05-03T10:27:22.718Z</time></trkpt><trkpt lat="41.2049717" lon="19.5349638"><ele>6.0</ele><time>2026-05-03T10:27:23.718Z</time></trkpt><trkpt lat="41.2051705" lon="19.5348845"><ele>6.0</ele><time>2026-05-03T10:27:24.718Z</time></trkpt><trkpt lat="41.2053711" lon="19.5348042"><ele>6.0</ele><time>2026-05-03T10:27:25.718Z</time></trkpt><trkpt lat="41.205573" lon="19.5347308"><ele>6.0</ele><time>2026-05-03T10:27:26.718Z</time></trkpt><trkpt lat="41.2057747" lon="19.5346597"><ele>6.0</ele><time>2026-05-03T10:27:27.717Z</time></trkpt><trkpt lat="41.2059779" lon="19.5345923"><ele>6.0</ele><time>2026-05-03T10:27:28.718Z</time></trkpt><trkpt lat="41.206183" lon="19.5345274"><ele>6.0</ele><time>2026-05-03T10:27:29.718Z</time></trkpt><trkpt lat="41.20639" lon="19.5344678"><ele>6.0</ele><time>2026-05-03T10:27:30.717Z</time></trkpt><trkpt lat="41.2065991" lon="19.5344009"><ele>6.0</ele><time>2026-05-03T10:27:31.718Z</time></trkpt><trkpt lat="41.2068103" lon="19.5343456"><ele>6.333333333333334</ele><time>2026-05-03T10:27:32.718Z</time></trkpt><trkpt lat="41.2070222" lon="19.5342857"><ele>6.666666666666667</ele><time>2026-05-03T10:27:33.718Z</time></trkpt><trkpt lat="41.2072371" lon="19.5342287"><ele>7.0</ele><time>2026-05-03T10:27:34.717Z</time></trkpt><trkpt lat="41.2074501" lon="19.5341821"><ele>7.333333333333334</ele><time>2026-05-03T10:27:35.717Z</time></trkpt><trkpt lat="41.2076663" lon="19.5341334"><ele>7.666666666666666</ele><time>2026-05-03T10:27:36.717Z</time></trkpt><trkpt lat="41.2078787" lon="19.5340842"><ele>8.0</ele><time>2026-05-03T10:27:37.717Z</time></trkpt><trkpt lat="41.2080892" lon="19.5340324"><ele>7.666666666666666</ele><time>2026-05-03T10:27:38.717Z</time></trkpt><trkpt lat="41.2083022" lon="19.5339586"><ele>7.333333333333334</ele><time>2026-05-03T10:27:39.718Z</time></trkpt><trkpt lat="41.2085185" lon="19.5338922"><ele>7.0</ele><time>2026-05-03T10:27:40.718Z</time></trkpt><trkpt lat="41.2087257" lon="19.5338214"><ele>7.0</ele><time>2026-05-03T10:27:41.717Z</time></trkpt><trkpt lat="41.2089361" lon="19.533742"><ele>7.0</ele><time>2026-05-03T10:27:42.718Z</time></trkpt><trkpt lat="41.2091482" lon="19.5336629"><ele>7.0</ele><time>2026-05-03T10:27:43.717Z</time></trkpt><trkpt lat="41.2093574" lon="19.5335855"><ele>7.0</ele><time>2026-05-03T10:27:44.717Z</time></trkpt><trkpt lat="41.2095648" lon="19.5335033"><ele>7.0</ele><time>2026-05-03T10:27:45.718Z</time></trkpt><trkpt lat="41.2097696" lon="19.5334267"><ele>7.0</ele><time>2026-05-03T10:27:46.717Z</time></trkpt><trkpt lat="41.2099748" lon="19.5333396"><ele>7.0</ele><time>2026-05-03T10:27:47.718Z</time></trkpt><trkpt lat="41.2101754" lon="19.5332596"><ele>7.0</ele><time>2026-05-03T10:27:48.718Z</time></trkpt><trkpt lat="41.210381" lon="19.5331755"><ele>7.0</ele><time>2026-05-03T10:27:49.717Z</time></trkpt><trkpt lat="41.2105833" lon="19.5330921"><ele>6.666666666666667</ele><time>2026-05-03T10:27:50.718Z</time></trkpt><trkpt lat="41.2107865" lon="19.5330079"><ele>6.333333333333334</ele><time>2026-05-03T10:27:51.717Z</time></trkpt><trkpt lat="41.2109862" lon="19.5329253"><ele>6.0</ele><time>2026-05-03T10:27:52.717Z</time></trkpt><trkpt lat="41.2111861" lon="19.5328432"><ele>5.333333333333333</ele><time>2026-05-03T10:27:53.717Z</time></trkpt><trkpt lat="41.2113846" lon="19.5327594"><ele>4.666666666666666</ele><time>2026-05-03T10:27:54.718Z</time></trkpt><trkpt lat="41.2115813" lon="19.5326767"><ele>4.0</ele><time>2026-05-03T10:27:55.718Z</time></trkpt><trkpt lat="41.21178" lon="19.5325948"><ele>5.333333333333333</ele><time>2026-05-03T10:27:56.717Z</time></trkpt><trkpt lat="41.2119761" lon="19.5325134"><ele>6.666666666666666</ele><time>2026-05-03T10:27:57.717Z</time></trkpt><trkpt lat="41.2121725" lon="19.5324371"><ele>8.0</ele><time>2026-05-03T10:27:58.717Z</time></trkpt><trkpt lat="41.2123699" lon="19.5323577"><ele>8.0</ele><time>2026-05-03T10:27:59.718Z</time></trkpt><trkpt lat="41.2125654" lon="19.5322765"><ele>8.0</ele><time>2026-05-03T10:28:00.718Z</time></trkpt><trkpt lat="41.2127601" lon="19.5321949"><ele>8.0</ele><time>2026-05-03T10:28:01.717Z</time></trkpt><trkpt lat="41.2129552" lon="19.5321107"><ele>8.0</ele><time>2026-05-03T10:28:02.718Z</time></trkpt><trkpt lat="41.2131522" lon="19.5320275"><ele>8.0</ele><time>2026-05-03T10:28:03.717Z</time></trkpt><trkpt lat="41.2133499" lon="19.5319443"><ele>8.0</ele><time>2026-05-03T10:28:04.717Z</time></trkpt><trkpt lat="41.2135467" lon="19.5318649"><ele>8.0</ele><time>2026-05-03T10:28:05.718Z</time></trkpt><trkpt lat="41.2137415" lon="19.5317845"><ele>8.0</ele><time>2026-05-03T10:28:06.717Z</time></trkpt><trkpt lat="41.2139407" lon="19.5317045"><ele>8.0</ele><time>2026-05-03T10:28:07.717Z</time></trkpt><trkpt lat="41.2141377" lon="19.5316225"><ele>7.333333333333333</ele><time>2026-05-03T10:28:08.717Z</time></trkpt><trkpt lat="41.2143337" lon="19.5315397"><ele>6.666666666666666</ele><time>2026-05-03T10:28:09.717Z</time></trkpt><trkpt lat="41.2145299" lon="19.5314584"><ele>6.0</ele><time>2026-05-03T10:28:10.717Z</time></trkpt><trkpt lat="41.2147275" lon="19.5313848"><ele>5.333333333333333</ele><time>2026-05-03T10:28:11.718Z</time></trkpt><trkpt lat="41.2149243" lon="19.5313013"><ele>4.666666666666666</ele><time>2026-05-03T10:28:12.718Z</time></trkpt><trkpt lat="41.2151229" lon="19.5312155"><ele>4.0</ele><time>2026-05-03T10:28:13.718Z</time></trkpt><trkpt lat="41.2153229" lon="19.5311322"><ele>4.0</ele><time>2026-05-03T10:28:14.717Z</time></trkpt><trkpt lat="41.2155247" lon="19.53105"><ele>4.0</ele><time>2026-05-03T10:28:15.718Z</time></trkpt><trkpt lat="41.2157261" lon="19.5309653"><ele>4.0</ele><time>2026-05-03T10:28:16.717Z</time></trkpt><trkpt lat="41.2159292" lon="19.5308817"><ele>3.6666666666666665</ele><time>2026-05-03T10:28:17.718Z</time></trkpt><trkpt lat="41.2161313" lon="19.5307962"><ele>3.333333333333333</ele><time>2026-05-03T10:28:18.718Z</time></trkpt><trkpt lat="41.2163337" lon="19.5307125"><ele>3.0</ele><time>2026-05-03T10:28:19.717Z</time></trkpt><trkpt lat="41.2165379" lon="19.5306357"><ele>3.0</ele><time>2026-05-03T10:28:20.718Z</time></trkpt><trkpt lat="41.2167404" lon="19.5305487"><ele>3.0</ele><time>2026-05-03T10:28:21.718Z</time></trkpt><trkpt lat="41.216943" lon="19.5304608"><ele>3.0</ele><time>2026-05-03T10:28:22.718Z</time></trkpt><trkpt lat="41.2171461" lon="19.5303738"><ele>3.333333333333333</ele><time>2026-05-03T10:28:23.718Z</time></trkpt><trkpt lat="41.2173469" lon="19.5302889"><ele>3.6666666666666665</ele><time>2026-05-03T10:28:24.718Z</time></trkpt><trkpt lat="41.2175471" lon="19.5302052"><ele>4.0</ele><time>2026-05-03T10:28:25.717Z</time></trkpt><trkpt lat="41.2177475" lon="19.5301174"><ele>4.0</ele><time>2026-05-03T10:28:26.717Z</time></trkpt><trkpt lat="41.2179498" lon="19.5300309"><ele>4.0</ele><time>2026-05-03T10:28:27.717Z</time></trkpt><trkpt lat="41.218152" lon="19.5299465"><ele>4.0</ele><time>2026-05-03T10:28:28.717Z</time></trkpt><trkpt lat="41.2183538" lon="19.5298617"><ele>4.0</ele><time>2026-05-03T10:28:29.717Z</time></trkpt><trkpt lat="41.2185553" lon="19.5297779"><ele>4.0</ele><time>2026-05-03T10:28:30.717Z</time></trkpt><trkpt lat="41.2187573" lon="19.5296955"><ele>4.0</ele><time>2026-05-03T10:28:31.717Z</time></trkpt><trkpt lat="41.2189605" lon="19.529612"><ele>4.0</ele><time>2026-05-03T10:28:32.717Z</time></trkpt><trkpt lat="41.2191647" lon="19.5295265"><ele>4.0</ele><time>2026-05-03T10:28:33.717Z</time></trkpt><trkpt lat="41.2193704" lon="19.5294398"><ele>4.0</ele><time>2026-05-03T10:28:34.718Z</time></trkpt><trkpt lat="41.2195782" lon="19.5293516"><ele>4.0</ele><time>2026-05-03T10:28:35.718Z</time></trkpt><trkpt lat="41.2197876" lon="19.5292631"><ele>4.0</ele><time>2026-05-03T10:28:36.718Z</time></trkpt><trkpt lat="41.220002" lon="19.5291766"><ele>4.0</ele><time>2026-05-03T10:28:37.717Z</time></trkpt><trkpt lat="41.2202167" lon="19.5290865"><ele>3.5</ele><time>2026-05-03T10:28:38.718Z</time></trkpt><trkpt lat="41.2204312" lon="19.528996"><ele>3.0</ele><time>2026-05-03T10:28:39.717Z</time></trkpt><trkpt lat="41.2206461" lon="19.5289057"><ele>3.0</ele><time>2026-05-03T10:28:40.718Z</time></trkpt><trkpt lat="41.2208577" lon="19.5288169"><ele>3.0</ele><time>2026-05-03T10:28:41.717Z</time></trkpt><trkpt lat="41.2210678" lon="19.5287307"><ele>3.0</ele><time>2026-05-03T10:28:42.718Z</time></trkpt><trkpt lat="41.2212753" lon="19.5286478"><ele>3.0</ele><time>2026-05-03T10:28:43.717Z</time></trkpt><trkpt lat="41.2214836" lon="19.5285624"><ele>3.0</ele><time>2026-05-03T10:28:44.718Z</time></trkpt><trkpt lat="41.2216925" lon="19.5284762"><ele>3.0</ele><time>2026-05-03T10:28:45.718Z</time></trkpt><trkpt lat="41.2219015" lon="19.5283892"><ele>3.0</ele><time>2026-05-03T10:28:46.717Z</time></trkpt><trkpt lat="41.2221122" lon="19.5283017"><ele>3.0</ele><time>2026-05-03T10:28:47.718Z</time></trkpt><trkpt lat="41.2223279" lon="19.5282228"><ele>3.0</ele><time>2026-05-03T10:28:48.717Z</time></trkpt><trkpt lat="41.2225376" lon="19.5281343"><ele>3.333333333333333</ele><time>2026-05-03T10:28:49.718Z</time></trkpt><trkpt lat="41.2227485" lon="19.5280458"><ele>3.6666666666666665</ele><time>2026-05-03T10:28:50.717Z</time></trkpt><trkpt lat="41.2229562" lon="19.5279582"><ele>4.0</ele><time>2026-05-03T10:28:51.717Z</time></trkpt><trkpt lat="41.2231616" lon="19.5278717"><ele>3.333333333333333</ele><time>2026-05-03T10:28:52.718Z</time></trkpt><trkpt lat="41.2233643" lon="19.5277882"><ele>2.6666666666666665</ele><time>2026-05-03T10:28:53.718Z</time></trkpt><trkpt lat="41.2235608" lon="19.5277051"><ele>2.0</ele><time>2026-05-03T10:28:54.718Z</time></trkpt><trkpt lat="41.2237581" lon="19.5276205"><ele>2.0</ele><time>2026-05-03T10:28:55.717Z</time></trkpt><trkpt lat="41.2239537" lon="19.5275388"><ele>2.0</ele><time>2026-05-03T10:28:56.718Z</time></trkpt><trkpt lat="41.2241497" lon="19.5274595"><ele>2.0</ele><time>2026-05-03T10:28:57.717Z</time></trkpt><trkpt lat="41.2243463" lon="19.5273777"><ele>1.6666666666666665</ele><time>2026-05-03T10:28:58.717Z</time></trkpt><trkpt lat="41.2245423" lon="19.527298"><ele>1.3333333333333333</ele><time>2026-05-03T10:28:59.718Z</time></trkpt><trkpt lat="41.224739" lon="19.5272172"><ele>1.0</ele><time>2026-05-03T10:29:00.717Z</time></trkpt><trkpt lat="41.2249371" lon="19.5271368"><ele>1.0</ele><time>2026-05-03T10:29:01.717Z</time></trkpt><trkpt lat="41.2251391" lon="19.5270453"><ele>1.0</ele><time>2026-05-03T10:29:02.718Z</time></trkpt><trkpt lat="41.2253387" lon="19.5269622"><ele>1.0</ele><time>2026-05-03T10:29:03.717Z</time></trkpt><trkpt lat="41.2255401" lon="19.5268756"><ele>1.3333333333333333</ele><time>2026-05-03T10:29:04.717Z</time></trkpt><trkpt lat="41.2257465" lon="19.5268142"><ele>1.6666666666666665</ele><time>2026-05-03T10:29:05.718Z</time></trkpt><trkpt lat="41.2259489" lon="19.5267268"><ele>2.0</ele><time>2026-05-03T10:29:06.718Z</time></trkpt><trkpt lat="41.2261545" lon="19.5266376"><ele>2.0</ele><time>2026-05-03T10:29:07.718Z</time></trkpt><trkpt lat="41.2263592" lon="19.5265543"><ele>2.0</ele><time>2026-05-03T10:29:08.718Z</time></trkpt><trkpt lat="41.2265631" lon="19.5264718"><ele>2.0</ele><time>2026-05-03T10:29:09.718Z</time></trkpt><trkpt lat="41.2267684" lon="19.5263867"><ele>1.6666666666666665</ele><time>2026-05-03T10:29:10.717Z</time></trkpt><trkpt lat="41.2269712" lon="19.5263022"><ele>1.3333333333333333</ele><time>2026-05-03T10:29:11.718Z</time></trkpt><trkpt lat="41.227173" lon="19.5262188"><ele>1.0</ele><time>2026-05-03T10:29:12.717Z</time></trkpt><trkpt lat="41.2273746" lon="19.5261351"><ele>1.0</ele><time>2026-05-03T10:29:13.718Z</time></trkpt><trkpt lat="41.2275738" lon="19.5260507"><ele>1.0</ele><time>2026-05-03T10:29:14.718Z</time></trkpt><trkpt lat="41.2277677" lon="19.5259686"><ele>1.0</ele><time>2026-05-03T10:29:15.718Z</time></trkpt><trkpt lat="41.2279614" lon="19.5258879"><ele>1.0</ele><time>2026-05-03T10:29:16.717Z</time></trkpt><trkpt lat="41.2281532" lon="19.5258086"><ele>1.0</ele><time>2026-05-03T10:29:17.717Z</time></trkpt><trkpt lat="41.2283465" lon="19.5257309"><ele>1.0</ele><time>2026-05-03T10:29:18.717Z</time></trkpt><trkpt lat="41.2285391" lon="19.5256502"><ele>1.0</ele><time>2026-05-03T10:29:19.718Z</time></trkpt><trkpt lat="41.2287339" lon="19.5255692"><ele>1.0</ele><time>2026-05-03T10:29:20.717Z</time></trkpt><trkpt lat="41.2289292" lon="19.5254798"><ele>1.0</ele><time>2026-05-03T10:29:21.717Z</time></trkpt><trkpt lat="41.2291232" lon="19.5253957"><ele>0.3333333333333333</ele><time>2026-05-03T10:29:22.717Z</time></trkpt><trkpt lat="41.2293176" lon="19.5253129"><ele>-0.3333333333333333</ele><time>2026-05-03T10:29:23.718Z</time></trkpt><trkpt lat="41.229513" lon="19.5252263"><ele>-1.0</ele><time>2026-05-03T10:29:24.718Z</time></trkpt><trkpt lat="41.2297064" lon="19.525143"><ele>1.3333333333333335</ele><time>2026-05-03T10:29:25.717Z</time></trkpt><trkpt lat="41.2298972" lon="19.5250618"><ele>3.6666666666666665</ele><time>2026-05-03T10:29:26.718Z</time></trkpt><trkpt lat="41.2300871" lon="19.5249784"><ele>6.0</ele><time>2026-05-03T10:29:27.717Z</time></trkpt><trkpt lat="41.2302762" lon="19.5248973"><ele>6.0</ele><time>2026-05-03T10:29:28.718Z</time></trkpt><trkpt lat="41.2304583" lon="19.5248119"><ele>6.0</ele><time>2026-05-03T10:29:29.718Z</time></trkpt><trkpt lat="41.2306441" lon="19.5247256"><ele>6.0</ele><time>2026-05-03T10:29:30.718Z</time></trkpt><trkpt lat="41.2308318" lon="19.5246541"><ele>4.666666666666667</ele><time>2026-05-03T10:29:31.717Z</time></trkpt><trkpt lat="41.231019" lon="19.5245763"><ele>3.333333333333333</ele><time>2026-05-03T10:29:32.718Z</time></trkpt><trkpt lat="41.2312089" lon="19.5245139"><ele>2.0</ele><time>2026-05-03T10:29:33.718Z</time></trkpt><trkpt lat="41.2313976" lon="19.5244529"><ele>2.333333333333333</ele><time>2026-05-03T10:29:34.718Z</time></trkpt><trkpt lat="41.2315843" lon="19.5243952"><ele>2.6666666666666665</ele><time>2026-05-03T10:29:35.717Z</time></trkpt><trkpt lat="41.2317729" lon="19.5243416"><ele>3.0</ele><time>2026-05-03T10:29:36.717Z</time></trkpt><trkpt lat="41.2319637" lon="19.5242956"><ele>3.0</ele><time>2026-05-03T10:29:37.717Z</time></trkpt><trkpt lat="41.2321565" lon="19.5242497"><ele>3.0</ele><time>2026-05-03T10:29:38.717Z</time></trkpt><trkpt lat="41.232347" lon="19.5241994"><ele>3.0</ele><time>2026-05-03T10:29:39.717Z</time></trkpt><trkpt lat="41.2325394" lon="19.5241529"><ele>2.6666666666666665</ele><time>2026-05-03T10:29:40.718Z</time></trkpt><trkpt lat="41.232735" lon="19.5241195"><ele>2.333333333333333</ele><time>2026-05-03T10:29:41.718Z</time></trkpt><trkpt lat="41.2329323" lon="19.5240976"><ele>2.0</ele><time>2026-05-03T10:29:42.718Z</time></trkpt><trkpt lat="41.2331306" lon="19.5240827"><ele>2.6666666666666665</ele><time>2026-05-03T10:29:43.717Z</time></trkpt><trkpt lat="41.2333269" lon="19.524071"><ele>3.333333333333333</ele><time>2026-05-03T10:29:44.717Z</time></trkpt><trkpt lat="41.233525" lon="19.5240542"><ele>4.0</ele><time>2026-05-03T10:29:45.718Z</time></trkpt><trkpt lat="41.2337264" lon="19.5240488"><ele>4.0</ele><time>2026-05-03T10:29:46.718Z</time></trkpt><trkpt lat="41.2339245" lon="19.5240456"><ele>4.0</ele><time>2026-05-03T10:29:47.717Z</time></trkpt><trkpt lat="41.2341293" lon="19.5240429"><ele>4.0</ele><time>2026-05-03T10:29:48.718Z</time></trkpt><trkpt lat="41.2343256" lon="19.5240456"><ele>4.333333333333333</ele><time>2026-05-03T10:29:49.718Z</time></trkpt><trkpt lat="41.2345194" lon="19.5240576"><ele>4.666666666666667</ele><time>2026-05-03T10:29:50.717Z</time></trkpt><trkpt lat="41.2347238" lon="19.5240767"><ele>5.0</ele><time>2026-05-03T10:29:51.717Z</time></trkpt><trkpt lat="41.2349218" lon="19.5240954"><ele>5.0</ele><time>2026-05-03T10:29:52.718Z</time></trkpt><trkpt lat="41.2351165" lon="19.5241174"><ele>5.0</ele><time>2026-05-03T10:29:53.718Z</time></trkpt><trkpt lat="41.2353249" lon="19.5241438"><ele>5.0</ele><time>2026-05-03T10:29:54.717Z</time></trkpt><trkpt lat="41.2355294" lon="19.5241673"><ele>4.0</ele><time>2026-05-03T10:29:55.718Z</time></trkpt><trkpt lat="41.2357362" lon="19.5241956"><ele>3.0</ele><time>2026-05-03T10:29:56.717Z</time></trkpt><trkpt lat="41.2359366" lon="19.5242195"><ele>2.0</ele><time>2026-05-03T10:29:57.718Z</time></trkpt><trkpt lat="41.2361426" lon="19.5242425"><ele>2.0</ele><time>2026-05-03T10:29:58.718Z</time></trkpt><trkpt lat="41.236354" lon="19.5242733"><ele>2.0</ele><time>2026-05-03T10:29:59.717Z</time></trkpt><trkpt lat="41.2365554" lon="19.5243004"><ele>2.0</ele><time>2026-05-03T10:30:00.717Z</time></trkpt><trkpt lat="41.2367538" lon="19.5243289"><ele>2.0</ele><time>2026-05-03T10:30:01.718Z</time></trkpt><trkpt lat="41.236957" lon="19.5243522"><ele>2.0</ele><time>2026-05-03T10:30:02.718Z</time></trkpt><trkpt lat="41.2371574" lon="19.524376"><ele>2.0</ele><time>2026-05-03T10:30:03.718Z</time></trkpt><trkpt lat="41.2373565" lon="19.5244016"><ele>1.6666666666666665</ele><time>2026-05-03T10:30:04.718Z</time></trkpt><trkpt lat="41.237558" lon="19.5244293"><ele>1.3333333333333333</ele><time>2026-05-03T10:30:05.717Z</time></trkpt><trkpt lat="41.2377573" lon="19.5244527"><ele>1.0</ele><time>2026-05-03T10:30:06.718Z</time></trkpt><trkpt lat="41.2379596" lon="19.5244803"><ele>1.0</ele><time>2026-05-03T10:30:07.718Z</time></trkpt><trkpt lat="41.2381576" lon="19.5245006"><ele>1.0</ele><time>2026-05-03T10:30:08.718Z</time></trkpt><trkpt lat="41.2383582" lon="19.5245261"><ele>1.0</ele><time>2026-05-03T10:30:09.718Z</time></trkpt><trkpt lat="41.2385615" lon="19.5245509"><ele>1.3333333333333333</ele><time>2026-05-03T10:30:10.718Z</time></trkpt><trkpt lat="41.2387605" lon="19.5245765"><ele>1.6666666666666665</ele><time>2026-05-03T10:30:11.718Z</time></trkpt><trkpt lat="41.2389641" lon="19.5245974"><ele>2.0</ele><time>2026-05-03T10:30:12.717Z</time></trkpt><trkpt lat="41.2391724" lon="19.5246279"><ele>1.3333333333333333</ele><time>2026-05-03T10:30:13.717Z</time></trkpt><trkpt lat="41.2393827" lon="19.5246497"><ele>0.6666666666666666</ele><time>2026-05-03T10:30:14.717Z</time></trkpt><trkpt lat="41.2395898" lon="19.524674"><ele>0.0</ele><time>2026-05-03T10:30:15.717Z</time></trkpt><trkpt lat="41.2397965" lon="19.5246947"><ele>-0.3333333333333333</ele><time>2026-05-03T10:30:16.718Z</time></trkpt><trkpt lat="41.2400025" lon="19.5247248"><ele>-0.6666666666666666</ele><time>2026-05-03T10:30:17.718Z</time></trkpt><trkpt lat="41.2402053" lon="19.5247514"><ele>-1.0</ele><time>2026-05-03T10:30:18.717Z</time></trkpt><trkpt lat="41.2404115" lon="19.5247772"><ele>-1.0</ele><time>2026-05-03T10:30:19.718Z</time></trkpt><trkpt lat="41.2406123" lon="19.5248082"><ele>-1.0</ele><time>2026-05-03T10:30:20.717Z</time></trkpt><trkpt lat="41.240818" lon="19.5248408"><ele>-1.0</ele><time>2026-05-03T10:30:21.717Z</time></trkpt><trkpt lat="41.2410241" lon="19.5248661"><ele>-1.0</ele><time>2026-05-03T10:30:22.717Z</time></trkpt><trkpt lat="41.2412272" lon="19.5248901"><ele>-1.0</ele><time>2026-05-03T10:30:23.717Z</time></trkpt><trkpt lat="41.2414408" lon="19.524906"><ele>-1.0</ele><time>2026-05-03T10:30:24.718Z</time></trkpt><trkpt lat="41.2416458" lon="19.5249298"><ele>-0.6666666666666666</ele><time>2026-05-03T10:30:25.718Z</time></trkpt><trkpt lat="41.241846" lon="19.5249575"><ele>-0.3333333333333333</ele><time>2026-05-03T10:30:26.717Z</time></trkpt><trkpt lat="41.2420529" lon="19.524975"><ele>0.0</ele><time>2026-05-03T10:30:27.718Z</time></trkpt><trkpt lat="41.2422548" lon="19.5249956"><ele>0.3333333333333333</ele><time>2026-05-03T10:30:28.717Z</time></trkpt><trkpt lat="41.2424611" lon="19.5250284"><ele>0.6666666666666666</ele><time>2026-05-03T10:30:29.718Z</time></trkpt><trkpt lat="41.2426616" lon="19.5250584"><ele>1.0</ele><time>2026-05-03T10:30:30.717Z</time></trkpt><trkpt lat="41.24286" lon="19.5250861"><ele>1.0</ele><time>2026-05-03T10:30:31.717Z</time></trkpt><trkpt lat="41.2430753" lon="19.5251092"><ele>1.0</ele><time>2026-05-03T10:30:32.717Z</time></trkpt><trkpt lat="41.243279" lon="19.525133"><ele>1.0</ele><time>2026-05-03T10:30:33.717Z</time></trkpt><trkpt lat="41.2434858" lon="19.5251486"><ele>0.6666666666666666</ele><time>2026-05-03T10:30:34.718Z</time></trkpt><trkpt lat="41.2436943" lon="19.5251639"><ele>0.3333333333333333</ele><time>2026-05-03T10:30:35.718Z</time></trkpt><trkpt lat="41.243901" lon="19.5251918"><ele>0.0</ele><time>2026-05-03T10:30:36.717Z</time></trkpt><trkpt lat="41.2441086" lon="19.5252167"><ele>-0.3333333333333333</ele><time>2026-05-03T10:30:37.718Z</time></trkpt><trkpt lat="41.2443103" lon="19.5252308"><ele>-0.6666666666666666</ele><time>2026-05-03T10:30:38.717Z</time></trkpt><trkpt lat="41.2445145" lon="19.5252559"><ele>-1.0</ele><time>2026-05-03T10:30:39.717Z</time></trkpt><trkpt lat="41.2447159" lon="19.5252804"><ele>-1.0</ele><time>2026-05-03T10:30:40.718Z</time></trkpt><trkpt lat="41.2449108" lon="19.5253202"><ele>-1.0</ele><time>2026-05-03T10:30:41.718Z</time></trkpt><trkpt lat="41.2451075" lon="19.5253503"><ele>-1.0</ele><time>2026-05-03T10:30:42.717Z</time></trkpt><trkpt lat="41.2453143" lon="19.5253758"><ele>-0.6666666666666666</ele><time>2026-05-03T10:30:43.718Z</time></trkpt><trkpt lat="41.2455171" lon="19.5254056"><ele>-0.3333333333333333</ele><time>2026-05-03T10:30:44.718Z</time></trkpt><trkpt lat="41.2457186" lon="19.525429"><ele>0.0</ele><time>2026-05-03T10:30:45.717Z</time></trkpt><trkpt lat="41.2459168" lon="19.5254551"><ele>0.3333333333333333</ele><time>2026-05-03T10:30:46.717Z</time></trkpt><trkpt lat="41.2461116" lon="19.5254803"><ele>0.6666666666666666</ele><time>2026-05-03T10:30:47.717Z</time></trkpt><trkpt lat="41.2463007" lon="19.5255034"><ele>1.0</ele><time>2026-05-03T10:30:48.718Z</time></trkpt><trkpt lat="41.2464971" lon="19.5255204"><ele>1.0</ele><time>2026-05-03T10:30:49.718Z</time></trkpt><trkpt lat="41.2466916" lon="19.5255471"><ele>1.0</ele><time>2026-05-03T10:30:50.718Z</time></trkpt><trkpt lat="41.2468843" lon="19.5255677"><ele>1.0</ele><time>2026-05-03T10:30:51.717Z</time></trkpt><trkpt lat="41.247083" lon="19.5255972"><ele>1.0</ele><time>2026-05-03T10:30:52.718Z</time></trkpt><trkpt lat="41.2472768" lon="19.525622"><ele>1.0</ele><time>2026-05-03T10:30:53.717Z</time></trkpt><trkpt lat="41.2474699" lon="19.5256413"><ele>1.0</ele><time>2026-05-03T10:30:54.718Z</time></trkpt><trkpt lat="41.2476721" lon="19.5256647"><ele>0.6666666666666666</ele><time>2026-05-03T10:30:55.717Z</time></trkpt><trkpt lat="41.247881" lon="19.5256928"><ele>0.3333333333333333</ele><time>2026-05-03T10:30:56.717Z</time></trkpt><trkpt lat="41.248081" lon="19.5257095"><ele>0.0</ele><time>2026-05-03T10:30:57.718Z</time></trkpt><trkpt lat="41.2482827" lon="19.525736"><ele>0.0</ele><time>2026-05-03T10:30:58.718Z</time></trkpt><trkpt lat="41.2484884" lon="19.5257532"><ele>0.0</ele><time>2026-05-03T10:30:59.717Z</time></trkpt><trkpt lat="41.2486951" lon="19.5257762"><ele>0.0</ele><time>2026-05-03T10:31:00.717Z</time></trkpt><trkpt lat="41.2489036" lon="19.5257917"><ele>0.6666666666666666</ele><time>2026-05-03T10:31:01.718Z</time></trkpt><trkpt lat="41.2491115" lon="19.5258172"><ele>1.3333333333333333</ele><time>2026-05-03T10:31:02.718Z</time></trkpt><trkpt lat="41.2493163" lon="19.5258429"><ele>2.0</ele><time>2026-05-03T10:31:03.717Z</time></trkpt><trkpt lat="41.2495159" lon="19.5258669"><ele>2.0</ele><time>2026-05-03T10:31:04.718Z</time></trkpt><trkpt lat="41.2497212" lon="19.5258913"><ele>2.0</ele><time>2026-05-03T10:31:05.718Z</time></trkpt><trkpt lat="41.2499283" lon="19.5259227"><ele>2.0</ele><time>2026-05-03T10:31:06.718Z</time></trkpt><trkpt lat="41.2501312" lon="19.5259449"><ele>2.0</ele><time>2026-05-03T10:31:07.718Z</time></trkpt><trkpt lat="41.2503348" lon="19.5259617"><ele>2.0</ele><time>2026-05-03T10:31:08.718Z</time></trkpt><trkpt lat="41.2505384" lon="19.5259883"><ele>2.0</ele><time>2026-05-03T10:31:09.718Z</time></trkpt><trkpt lat="41.2507377" lon="19.5260129"><ele>1.6666666666666665</ele><time>2026-05-03T10:31:10.718Z</time></trkpt><trkpt lat="41.2509331" lon="19.5260349"><ele>1.3333333333333333</ele><time>2026-05-03T10:31:11.718Z</time></trkpt><trkpt lat="41.251134" lon="19.5260564"><ele>1.0</ele><time>2026-05-03T10:31:12.718Z</time></trkpt><trkpt lat="41.2513332" lon="19.5260754"><ele>1.0</ele><time>2026-05-03T10:31:13.718Z</time></trkpt><trkpt lat="41.251533" lon="19.5261066"><ele>1.0</ele><time>2026-05-03T10:31:14.717Z</time></trkpt><trkpt lat="41.2517419" lon="19.5261275"><ele>1.0</ele><time>2026-05-03T10:31:15.718Z</time></trkpt><trkpt lat="41.2519429" lon="19.5261501"><ele>1.0</ele><time>2026-05-03T10:31:16.718Z</time></trkpt><trkpt lat="41.2521459" lon="19.5261752"><ele>1.0</ele><time>2026-05-03T10:31:17.718Z</time></trkpt><trkpt lat="41.2523458" lon="19.5262"><ele>1.0</ele><time>2026-05-03T10:31:18.717Z</time></trkpt><trkpt lat="41.2525504" lon="19.5262384"><ele>1.6666666666666665</ele><time>2026-05-03T10:31:19.718Z</time></trkpt><trkpt lat="41.2527525" lon="19.5262608"><ele>2.3333333333333335</ele><time>2026-05-03T10:31:20.718Z</time></trkpt><trkpt lat="41.2529543" lon="19.5262821"><ele>3.0</ele><time>2026-05-03T10:31:21.718Z</time></trkpt><trkpt lat="41.2531578" lon="19.5263085"><ele>3.0</ele><time>2026-05-03T10:31:22.718Z</time></trkpt><trkpt lat="41.253366" lon="19.5263357"><ele>3.0</ele><time>2026-05-03T10:31:23.718Z</time></trkpt><trkpt lat="41.2535735" lon="19.5263616"><ele>3.0</ele><time>2026-05-03T10:31:24.718Z</time></trkpt><trkpt lat="41.2537825" lon="19.5263896"><ele>3.0</ele><time>2026-05-03T10:31:25.718Z</time></trkpt><trkpt lat="41.2539942" lon="19.5263967"><ele>3.0</ele><time>2026-05-03T10:31:26.718Z</time></trkpt><trkpt lat="41.2542014" lon="19.5264227"><ele>3.0</ele><time>2026-05-03T10:31:27.718Z</time></trkpt><trkpt lat="41.2544149" lon="19.5264389"><ele>3.0</ele><time>2026-05-03T10:31:28.717Z</time></trkpt><trkpt lat="41.2546227" lon="19.5264653"><ele>3.0</ele><time>2026-05-03T10:31:29.718Z</time></trkpt><trkpt lat="41.2548295" lon="19.5264861"><ele>3.0</ele><time>2026-05-03T10:31:30.717Z</time></trkpt><trkpt lat="41.2550338" lon="19.5265007"><ele>3.0</ele><time>2026-05-03T10:31:31.717Z</time></trkpt><trkpt lat="41.2552406" lon="19.5265242"><ele>3.0</ele><time>2026-05-03T10:31:32.718Z</time></trkpt><trkpt lat="41.2554465" lon="19.5265348"><ele>3.0</ele><time>2026-05-03T10:31:33.718Z</time></trkpt><trkpt lat="41.2556475" lon="19.5265436"><ele>3.0</ele><time>2026-05-03T10:31:34.718Z</time></trkpt><trkpt lat="41.2558371" lon="19.5265488"><ele>3.0</ele><time>2026-05-03T10:31:35.718Z</time></trkpt><trkpt lat="41.2560354" lon="19.5265537"><ele>3.0</ele><time>2026-05-03T10:31:36.718Z</time></trkpt><trkpt lat="41.2562302" lon="19.5265441"><ele>3.0</ele><time>2026-05-03T10:31:37.718Z</time></trkpt><trkpt lat="41.2564279" lon="19.5265281"><ele>3.0</ele><time>2026-05-03T10:31:38.717Z</time></trkpt><trkpt lat="41.2566275" lon="19.5265051"><ele>3.0</ele><time>2026-05-03T10:31:39.717Z</time></trkpt><trkpt lat="41.2568295" lon="19.5264769"><ele>4.0</ele><time>2026-05-03T10:31:40.718Z</time></trkpt><trkpt lat="41.257033" lon="19.5264448"><ele>5.0</ele><time>2026-05-03T10:31:41.718Z</time></trkpt><trkpt lat="41.2572391" lon="19.5264063"><ele>6.0</ele><time>2026-05-03T10:31:42.718Z</time></trkpt><trkpt lat="41.2574443" lon="19.5263633"><ele>6.666666666666666</ele><time>2026-05-03T10:31:43.718Z</time></trkpt><trkpt lat="41.2576486" lon="19.5263049"><ele>7.333333333333333</ele><time>2026-05-03T10:31:44.718Z</time></trkpt><trkpt lat="41.2578525" lon="19.5262442"><ele>8.0</ele><time>2026-05-03T10:31:45.718Z</time></trkpt><trkpt lat="41.2580531" lon="19.5261864"><ele>6.0</ele><time>2026-05-03T10:31:46.717Z</time></trkpt><trkpt lat="41.2582565" lon="19.5261227"><ele>4.0</ele><time>2026-05-03T10:31:47.718Z</time></trkpt><trkpt lat="41.2584609" lon="19.5260606"><ele>2.0</ele><time>2026-05-03T10:31:48.718Z</time></trkpt><trkpt lat="41.2586627" lon="19.5260032"><ele>2.0</ele><time>2026-05-03T10:31:49.718Z</time></trkpt><trkpt lat="41.2588628" lon="19.5259473"><ele>2.0</ele><time>2026-05-03T10:31:50.718Z</time></trkpt><trkpt lat="41.259065" lon="19.5258905"><ele>2.0</ele><time>2026-05-03T10:31:51.717Z</time></trkpt><trkpt lat="41.2592647" lon="19.5258273"><ele>2.0</ele><time>2026-05-03T10:31:52.718Z</time></trkpt><trkpt lat="41.2594617" lon="19.5257674"><ele>2.0</ele><time>2026-05-03T10:31:53.718Z</time></trkpt><trkpt lat="41.2596644" lon="19.5257004"><ele>2.0</ele><time>2026-05-03T10:31:54.717Z</time></trkpt><trkpt lat="41.259865" lon="19.525643"><ele>2.6666666666666665</ele><time>2026-05-03T10:31:55.718Z</time></trkpt><trkpt lat="41.2600625" lon="19.5255748"><ele>3.333333333333333</ele><time>2026-05-03T10:31:56.717Z</time></trkpt><trkpt lat="41.2602567" lon="19.5255201"><ele>4.0</ele><time>2026-05-03T10:31:57.718Z</time></trkpt><trkpt lat="41.2604489" lon="19.5254583"><ele>4.0</ele><time>2026-05-03T10:31:58.718Z</time></trkpt><trkpt lat="41.260643" lon="19.5254103"><ele>4.0</ele><time>2026-05-03T10:31:59.717Z</time></trkpt><trkpt lat="41.2608315" lon="19.5253519"><ele>4.0</ele><time>2026-05-03T10:32:00.717Z</time></trkpt><trkpt lat="41.261016" lon="19.5252985"><ele>3.0</ele><time>2026-05-03T10:32:01.718Z</time></trkpt><trkpt lat="41.2611931" lon="19.5252433"><ele>2.0</ele><time>2026-05-03T10:32:02.717Z</time></trkpt><trkpt lat="41.261364" lon="19.5251925"><ele>1.0</ele><time>2026-05-03T10:32:03.717Z</time></trkpt><trkpt lat="41.2615229" lon="19.5251393"><ele>1.0</ele><time>2026-05-03T10:32:04.717Z</time></trkpt><trkpt lat="41.2616768" lon="19.5250936"><ele>1.0</ele><time>2026-05-03T10:32:05.718Z</time></trkpt><trkpt lat="41.2618273" lon="19.52505"><ele>1.0</ele><time>2026-05-03T10:32:06.717Z</time></trkpt><trkpt lat="41.2619783" lon="19.5250047"><ele>1.0</ele><time>2026-05-03T10:32:07.718Z</time></trkpt><trkpt lat="41.2621193" lon="19.5249648"><ele>1.0</ele><time>2026-05-03T10:32:08.717Z</time></trkpt><trkpt lat="41.2622587" lon="19.5249168"><ele>1.0</ele><time>2026-05-03T10:32:09.717Z</time></trkpt><trkpt lat="41.2623941" lon="19.5248721"><ele>1.0</ele><time>2026-05-03T10:32:10.718Z</time></trkpt><trkpt lat="41.2625299" lon="19.5248256"><ele>2.0</ele><time>2026-05-03T10:32:11.718Z</time></trkpt><trkpt lat="41.2626681" lon="19.5247837"><ele>3.0</ele><time>2026-05-03T10:32:12.718Z</time></trkpt><trkpt lat="41.2628085" lon="19.5247426"><ele>4.0</ele><time>2026-05-03T10:32:13.718Z</time></trkpt><trkpt lat="41.2629489" lon="19.5246987"><ele>5.0</ele><time>2026-05-03T10:32:14.718Z</time></trkpt><trkpt lat="41.2630905" lon="19.5246508"><ele>5.0</ele><time>2026-05-03T10:32:15.718Z</time></trkpt><trkpt lat="41.2632325" lon="19.5246025"><ele>5.0</ele><time>2026-05-03T10:32:16.718Z</time></trkpt><trkpt lat="41.2633746" lon="19.524553"><ele>5.0</ele><time>2026-05-03T10:32:17.718Z</time></trkpt><trkpt lat="41.2635189" lon="19.5244998"><ele>5.0</ele><time>2026-05-03T10:32:18.717Z</time></trkpt><trkpt lat="41.2636625" lon="19.524445"><ele>5.0</ele><time>2026-05-03T10:32:19.718Z</time></trkpt><trkpt lat="41.2638058" lon="19.5243887"><ele>5.0</ele><time>2026-05-03T10:32:20.718Z</time></trkpt><trkpt lat="41.2639444" lon="19.5243297"><ele>5.0</ele><time>2026-05-03T10:32:21.717Z</time></trkpt><trkpt lat="41.2640803" lon="19.5242701"><ele>5.0</ele><time>2026-05-03T10:32:22.717Z</time></trkpt><trkpt lat="41.2642102" lon="19.5242105"><ele>5.0</ele><time>2026-05-03T10:32:23.717Z</time></trkpt><trkpt lat="41.2643408" lon="19.5241509"><ele>5.0</ele><time>2026-05-03T10:32:24.717Z</time></trkpt><trkpt lat="41.2644692" lon="19.5240892"><ele>5.0</ele><time>2026-05-03T10:32:25.718Z</time></trkpt><trkpt lat="41.264594" lon="19.5240206"><ele>5.0</ele><time>2026-05-03T10:32:26.718Z</time></trkpt><trkpt lat="41.2647192" lon="19.5239456"><ele>4.75</ele><time>2026-05-03T10:32:27.718Z</time></trkpt><trkpt lat="41.2648428" lon="19.5238643"><ele>4.5</ele><time>2026-05-03T10:32:28.718Z</time></trkpt><trkpt lat="41.2649614" lon="19.5237863"><ele>4.25</ele><time>2026-05-03T10:32:29.718Z</time></trkpt><trkpt lat="41.2650806" lon="19.523704"><ele>4.0</ele><time>2026-05-03T10:32:30.718Z</time></trkpt><trkpt lat="41.2652022" lon="19.5236037"><ele>3.5</ele><time>2026-05-03T10:32:31.718Z</time></trkpt><trkpt lat="41.2653225" lon="19.5235032"><ele>3.0</ele><time>2026-05-03T10:32:32.718Z</time></trkpt><trkpt lat="41.2654481" lon="19.5234063"><ele>2.5</ele><time>2026-05-03T10:32:33.717Z</time></trkpt><trkpt lat="41.265577" lon="19.5233001"><ele>2.0</ele><time>2026-05-03T10:32:34.717Z</time></trkpt><trkpt lat="41.2657051" lon="19.5231983"><ele>2.0</ele><time>2026-05-03T10:32:35.718Z</time></trkpt><trkpt lat="41.2658303" lon="19.5230981"><ele>2.0</ele><time>2026-05-03T10:32:36.718Z</time></trkpt><trkpt lat="41.2659578" lon="19.5229952"><ele>2.0</ele><time>2026-05-03T10:32:37.717Z</time></trkpt><trkpt lat="41.2660917" lon="19.5228905"><ele>2.0</ele><time>2026-05-03T10:32:38.717Z</time></trkpt><trkpt lat="41.2662281" lon="19.5227756"><ele>2.0</ele><time>2026-05-03T10:32:39.718Z</time></trkpt><trkpt lat="41.2663615" lon="19.5226709"><ele>2.0</ele><time>2026-05-03T10:32:40.718Z</time></trkpt><trkpt lat="41.2664953" lon="19.5225564"><ele>2.0</ele><time>2026-05-03T10:32:41.717Z</time></trkpt><trkpt lat="41.2666323" lon="19.5224447"><ele>2.0</ele><time>2026-05-03T10:32:42.718Z</time></trkpt><trkpt lat="41.2667673" lon="19.5223244"><ele>2.0</ele><time>2026-05-03T10:32:43.718Z</time></trkpt><trkpt lat="41.2669102" lon="19.5222141"><ele>2.0</ele><time>2026-05-03T10:32:44.718Z</time></trkpt><trkpt lat="41.2670517" lon="19.5220999"><ele>2.0</ele><time>2026-05-03T10:32:45.717Z</time></trkpt><trkpt lat="41.2671905" lon="19.5219741"><ele>2.0</ele><time>2026-05-03T10:32:46.718Z</time></trkpt><trkpt lat="41.2673368" lon="19.5218614"><ele>2.0</ele><time>2026-05-03T10:32:47.718Z</time></trkpt><trkpt lat="41.267486" lon="19.5217466"><ele>2.0</ele><time>2026-05-03T10:32:48.717Z</time></trkpt><trkpt lat="41.2676326" lon="19.5216255"><ele>2.0</ele><time>2026-05-03T10:32:49.718Z</time></trkpt><trkpt lat="41.2677871" lon="19.5215139"><ele>2.0</ele><time>2026-05-03T10:32:50.718Z</time></trkpt><trkpt lat="41.2679388" lon="19.5213969"><ele>2.0</ele><time>2026-05-03T10:32:51.718Z</time></trkpt><trkpt lat="41.2680886" lon="19.5212848"><ele>2.0</ele><time>2026-05-03T10:32:52.717Z</time></trkpt><trkpt lat="41.2682353" lon="19.5211688"><ele>2.333333333333333</ele><time>2026-05-03T10:32:53.717Z</time></trkpt><trkpt lat="41.2683767" lon="19.5210401"><ele>2.6666666666666665</ele><time>2026-05-03T10:32:54.717Z</time></trkpt><trkpt lat="41.2685239" lon="19.5209215"><ele>3.0</ele><time>2026-05-03T10:32:55.718Z</time></trkpt><trkpt lat="41.2686671" lon="19.5207993"><ele>3.0</ele><time>2026-05-03T10:32:56.718Z</time></trkpt><trkpt lat="41.2688113" lon="19.5206816"><ele>3.0</ele><time>2026-05-03T10:32:57.717Z</time></trkpt><trkpt lat="41.2689529" lon="19.5205723"><ele>3.0</ele><time>2026-05-03T10:32:58.717Z</time></trkpt><trkpt lat="41.2690941" lon="19.5204619"><ele>3.0</ele><time>2026-05-03T10:32:59.718Z</time></trkpt><trkpt lat="41.2692315" lon="19.5203566"><ele>3.0</ele><time>2026-05-03T10:33:00.718Z</time></trkpt><trkpt lat="41.2693672" lon="19.5202421"><ele>3.0</ele><time>2026-05-03T10:33:01.718Z</time></trkpt><trkpt lat="41.2694969" lon="19.5201361"><ele>3.0</ele><time>2026-05-03T10:33:02.717Z</time></trkpt><trkpt lat="41.2696322" lon="19.5200268"><ele>3.0</ele><time>2026-05-03T10:33:03.718Z</time></trkpt><trkpt lat="41.2697587" lon="19.5199218"><ele>3.0</ele><time>2026-05-03T10:33:04.718Z</time></trkpt><trkpt lat="41.2698721" lon="19.5198182"><ele>3.0</ele><time>2026-05-03T10:33:05.718Z</time></trkpt><trkpt lat="41.2699938" lon="19.5197013"><ele>3.666666666666667</ele><time>2026-05-03T10:33:06.717Z</time></trkpt><trkpt lat="41.2701191" lon="19.5195738"><ele>4.333333333333334</ele><time>2026-05-03T10:33:07.717Z</time></trkpt><trkpt lat="41.2702534" lon="19.5194417"><ele>5.0</ele><time>2026-05-03T10:33:08.717Z</time></trkpt><trkpt lat="41.2703996" lon="19.5193072"><ele>5.0</ele><time>2026-05-03T10:33:09.718Z</time></trkpt><trkpt lat="41.2705436" lon="19.519172"><ele>5.0</ele><time>2026-05-03T10:33:10.718Z</time></trkpt><trkpt lat="41.2706995" lon="19.5190367"><ele>5.0</ele><time>2026-05-03T10:33:11.717Z</time></trkpt><trkpt lat="41.2708473" lon="19.518906"><ele>5.0</ele><time>2026-05-03T10:33:12.718Z</time></trkpt><trkpt lat="41.2710037" lon="19.5187687"><ele>5.0</ele><time>2026-05-03T10:33:13.718Z</time></trkpt><trkpt lat="41.2711609" lon="19.5186275"><ele>5.0</ele><time>2026-05-03T10:33:14.717Z</time></trkpt><trkpt lat="41.2713183" lon="19.5184836"><ele>4.333333333333334</ele><time>2026-05-03T10:33:15.718Z</time></trkpt><trkpt lat="41.2714825" lon="19.5183367"><ele>3.666666666666667</ele><time>2026-05-03T10:33:16.717Z</time></trkpt><trkpt lat="41.2716482" lon="19.5181917"><ele>3.0</ele><time>2026-05-03T10:33:17.717Z</time></trkpt><trkpt lat="41.2718275" lon="19.5180526"><ele>3.0</ele><time>2026-05-03T10:33:18.717Z</time></trkpt><trkpt lat="41.2720117" lon="19.5179188"><ele>3.0</ele><time>2026-05-03T10:33:19.717Z</time></trkpt><trkpt lat="41.2722015" lon="19.5177925"><ele>3.0</ele><time>2026-05-03T10:33:20.717Z</time></trkpt><trkpt lat="41.2723956" lon="19.5176746"><ele>2.6666666666666665</ele><time>2026-05-03T10:33:21.717Z</time></trkpt><trkpt lat="41.272591" lon="19.5175627"><ele>2.333333333333333</ele><time>2026-05-03T10:33:22.718Z</time></trkpt><trkpt lat="41.272798" lon="19.5174634"><ele>2.0</ele><time>2026-05-03T10:33:23.717Z</time></trkpt><trkpt lat="41.273003" lon="19.5173738"><ele>2.6666666666666665</ele><time>2026-05-03T10:33:24.718Z</time></trkpt><trkpt lat="41.273212" lon="19.5172789"><ele>3.333333333333333</ele><time>2026-05-03T10:33:25.717Z</time></trkpt><trkpt lat="41.2734279" lon="19.5172069"><ele>4.0</ele><time>2026-05-03T10:33:26.718Z</time></trkpt><trkpt lat="41.2736458" lon="19.5171351"><ele>4.0</ele><time>2026-05-03T10:33:27.718Z</time></trkpt><trkpt lat="41.2738621" lon="19.5170736"><ele>4.0</ele><time>2026-05-03T10:33:28.717Z</time></trkpt><trkpt lat="41.2740771" lon="19.5170139"><ele>4.0</ele><time>2026-05-03T10:33:29.718Z</time></trkpt><trkpt lat="41.2742972" lon="19.5169507"><ele>3.0</ele><time>2026-05-03T10:33:30.718Z</time></trkpt><trkpt lat="41.2745222" lon="19.516892"><ele>2.0</ele><time>2026-05-03T10:33:31.717Z</time></trkpt><trkpt lat="41.2747482" lon="19.5168255"><ele>3.0</ele><time>2026-05-03T10:33:32.718Z</time></trkpt><trkpt lat="41.2749804" lon="19.5167469"><ele>4.0</ele><time>2026-05-03T10:33:33.717Z</time></trkpt><trkpt lat="41.27521" lon="19.5166668"><ele>4.0</ele><time>2026-05-03T10:33:34.718Z</time></trkpt><trkpt lat="41.2754358" lon="19.5165767"><ele>4.0</ele><time>2026-05-03T10:33:35.717Z</time></trkpt><trkpt lat="41.2756599" lon="19.5164846"><ele>3.5</ele><time>2026-05-03T10:33:36.718Z</time></trkpt><trkpt lat="41.2758775" lon="19.5163759"><ele>3.0</ele><time>2026-05-03T10:33:37.717Z</time></trkpt><trkpt lat="41.2760936" lon="19.5162557"><ele>2.5</ele><time>2026-05-03T10:33:38.718Z</time></trkpt><trkpt lat="41.2763047" lon="19.516132"><ele>2.0</ele><time>2026-05-03T10:33:39.718Z</time></trkpt><trkpt lat="41.2765057" lon="19.5160079"><ele>2.0</ele><time>2026-05-03T10:33:40.717Z</time></trkpt><trkpt lat="41.2767118" lon="19.5158828"><ele>2.0</ele><time>2026-05-03T10:33:41.718Z</time></trkpt><trkpt lat="41.2769185" lon="19.5157589"><ele>2.0</ele><time>2026-05-03T10:33:42.717Z</time></trkpt><trkpt lat="41.2771234" lon="19.5156425"><ele>2.0</ele><time>2026-05-03T10:33:43.718Z</time></trkpt><trkpt lat="41.2773274" lon="19.5155276"><ele>2.0</ele><time>2026-05-03T10:33:44.717Z</time></trkpt><trkpt lat="41.2775348" lon="19.515415"><ele>2.0</ele><time>2026-05-03T10:33:45.718Z</time></trkpt><trkpt lat="41.27774" lon="19.5153062"><ele>2.0</ele><time>2026-05-03T10:33:46.718Z</time></trkpt><trkpt lat="41.2779415" lon="19.5151921"><ele>2.0</ele><time>2026-05-03T10:33:47.717Z</time></trkpt><trkpt lat="41.2781444" lon="19.5150829"><ele>2.6666666666666665</ele><time>2026-05-03T10:33:48.718Z</time></trkpt><trkpt lat="41.2783458" lon="19.5149803"><ele>3.333333333333333</ele><time>2026-05-03T10:33:49.717Z</time></trkpt><trkpt lat="41.2785481" lon="19.5148789"><ele>4.0</ele><time>2026-05-03T10:33:50.717Z</time></trkpt><trkpt lat="41.2787459" lon="19.5147822"><ele>6.0</ele><time>2026-05-03T10:33:51.717Z</time></trkpt><trkpt lat="41.2789416" lon="19.5147082"><ele>8.0</ele><time>2026-05-03T10:33:52.718Z</time></trkpt><trkpt lat="41.2791445" lon="19.5146416"><ele>10.0</ele><time>2026-05-03T10:33:53.717Z</time></trkpt><trkpt lat="41.2793477" lon="19.5145863"><ele>7.0</ele><time>2026-05-03T10:33:54.718Z</time></trkpt><trkpt lat="41.2795516" lon="19.5145414"><ele>4.0</ele><time>2026-05-03T10:33:55.718Z</time></trkpt><trkpt lat="41.2797546" lon="19.5145002"><ele>1.0</ele><time>2026-05-03T10:33:56.717Z</time></trkpt><trkpt lat="41.2799545" lon="19.5144719"><ele>1.0</ele><time>2026-05-03T10:33:57.718Z</time></trkpt><trkpt lat="41.280159" lon="19.5144596"><ele>1.0</ele><time>2026-05-03T10:33:58.717Z</time></trkpt><trkpt lat="41.2803645" lon="19.514455"><ele>1.0</ele><time>2026-05-03T10:33:59.718Z</time></trkpt><trkpt lat="41.2805678" lon="19.5144604"><ele>2.3333333333333335</ele><time>2026-05-03T10:34:00.717Z</time></trkpt><trkpt lat="41.280771" lon="19.5144683"><ele>3.666666666666667</ele><time>2026-05-03T10:34:01.718Z</time></trkpt><trkpt lat="41.2809704" lon="19.5144765"><ele>5.0</ele><time>2026-05-03T10:34:02.717Z</time></trkpt><trkpt lat="41.2811707" lon="19.5144844"><ele>5.0</ele><time>2026-05-03T10:34:03.718Z</time></trkpt><trkpt lat="41.2813693" lon="19.5144942"><ele>5.0</ele><time>2026-05-03T10:34:04.717Z</time></trkpt><trkpt lat="41.2815673" lon="19.5145008"><ele>5.0</ele><time>2026-05-03T10:34:05.718Z</time></trkpt><trkpt lat="41.2817668" lon="19.5145012"><ele>5.0</ele><time>2026-05-03T10:34:06.718Z</time></trkpt><trkpt lat="41.2819678" lon="19.5145123"><ele>5.0</ele><time>2026-05-03T10:34:07.717Z</time></trkpt><trkpt lat="41.2821794" lon="19.5145213"><ele>5.0</ele><time>2026-05-03T10:34:08.717Z</time></trkpt><trkpt lat="41.2823962" lon="19.5145193"><ele>3.5</ele><time>2026-05-03T10:34:09.717Z</time></trkpt><trkpt lat="41.2826211" lon="19.5145106"><ele>2.0</ele><time>2026-05-03T10:34:10.718Z</time></trkpt><trkpt lat="41.2828471" lon="19.5144936"><ele>2.0</ele><time>2026-05-03T10:34:11.717Z</time></trkpt><trkpt lat="41.2830749" lon="19.5144774"><ele>2.0</ele><time>2026-05-03T10:34:12.718Z</time></trkpt><trkpt lat="41.2833072" lon="19.5144561"><ele>2.0</ele><time>2026-05-03T10:34:13.717Z</time></trkpt><trkpt lat="41.2835381" lon="19.5144317"><ele>2.0</ele><time>2026-05-03T10:34:14.718Z</time></trkpt><trkpt lat="41.2837728" lon="19.5143998"><ele>2.0</ele><time>2026-05-03T10:34:15.717Z</time></trkpt><trkpt lat="41.2840086" lon="19.5143641"><ele>2.0</ele><time>2026-05-03T10:34:16.718Z</time></trkpt><trkpt lat="41.2842406" lon="19.51432"><ele>2.0</ele><time>2026-05-03T10:34:17.718Z</time></trkpt><trkpt lat="41.284474" lon="19.5142739"><ele>2.0</ele><time>2026-05-03T10:34:18.717Z</time></trkpt><trkpt lat="41.2847057" lon="19.5142246"><ele>1.5</ele><time>2026-05-03T10:34:19.717Z</time></trkpt><trkpt lat="41.2849354" lon="19.5141757"><ele>1.0</ele><time>2026-05-03T10:34:20.718Z</time></trkpt><trkpt lat="41.2851609" lon="19.514123"><ele>1.0</ele><time>2026-05-03T10:34:21.718Z</time></trkpt><trkpt lat="41.2853821" lon="19.5140695"><ele>1.0</ele><time>2026-05-03T10:34:22.718Z</time></trkpt><trkpt lat="41.2855994" lon="19.5140138"><ele>1.0</ele><time>2026-05-03T10:34:23.717Z</time></trkpt><trkpt lat="41.2858085" lon="19.5139628"><ele>1.6666666666666665</ele><time>2026-05-03T10:34:24.717Z</time></trkpt><trkpt lat="41.2860151" lon="19.5139098"><ele>2.3333333333333335</ele><time>2026-05-03T10:34:25.718Z</time></trkpt><trkpt lat="41.2862209" lon="19.5138597"><ele>3.0</ele><time>2026-05-03T10:34:26.717Z</time></trkpt><trkpt lat="41.2864204" lon="19.5138102"><ele>2.3333333333333335</ele><time>2026-05-03T10:34:27.718Z</time></trkpt><trkpt lat="41.2866194" lon="19.5137647"><ele>1.6666666666666665</ele><time>2026-05-03T10:34:28.718Z</time></trkpt><trkpt lat="41.2868097" lon="19.5137249"><ele>1.0</ele><time>2026-05-03T10:34:29.718Z</time></trkpt><trkpt lat="41.287003" lon="19.5136869"><ele>0.6666666666666666</ele><time>2026-05-03T10:34:30.718Z</time></trkpt><trkpt lat="41.2871942" lon="19.5136415"><ele>0.3333333333333333</ele><time>2026-05-03T10:34:31.718Z</time></trkpt><trkpt lat="41.2873859" lon="19.5136008"><ele>0.0</ele><time>2026-05-03T10:34:32.717Z</time></trkpt><trkpt lat="41.287573" lon="19.5135577"><ele>0.6666666666666666</ele><time>2026-05-03T10:34:33.718Z</time></trkpt><trkpt lat="41.2877504" lon="19.5135143"><ele>1.3333333333333333</ele><time>2026-05-03T10:34:34.718Z</time></trkpt><trkpt lat="41.2879044" lon="19.5134755"><ele>2.0</ele><time>2026-05-03T10:34:35.717Z</time></trkpt><trkpt lat="41.2880529" lon="19.5134363"><ele>2.25</ele><time>2026-05-03T10:34:36.718Z</time></trkpt><trkpt lat="41.2881877" lon="19.5133932"><ele>2.5</ele><time>2026-05-03T10:34:37.718Z</time></trkpt><trkpt lat="41.2883168" lon="19.5133358"><ele>2.75</ele><time>2026-05-03T10:34:38.717Z</time></trkpt><trkpt lat="41.2884269" lon="19.5132892"><ele>3.0</ele><time>2026-05-03T10:34:39.717Z</time></trkpt><trkpt lat="41.2885251" lon="19.5132531"><ele>3.0</ele><time>2026-05-03T10:34:40.718Z</time></trkpt><trkpt lat="41.288611" lon="19.513215"><ele>3.0</ele><time>2026-05-03T10:34:41.717Z</time></trkpt><trkpt lat="41.2886904" lon="19.5131778"><ele>3.0</ele><time>2026-05-03T10:34:42.717Z</time></trkpt><trkpt lat="41.2887613" lon="19.513145"><ele>3.0</ele><time>2026-05-03T10:34:43.717Z</time></trkpt><trkpt lat="41.2888216" lon="19.5131204"><ele>3.0</ele><time>2026-05-03T10:34:44.718Z</time></trkpt><trkpt lat="41.2889135" lon="19.5130793"><ele>3.0</ele><time>2026-05-03T10:34:46.718Z</time></trkpt><trkpt lat="41.2889781" lon="19.5130424"><ele>3.0</ele><time>2026-05-03T10:34:48.717Z</time></trkpt><trkpt lat="41.2890446" lon="19.512999"><ele>3.0</ele><time>2026-05-03T10:34:50.717Z</time></trkpt><trkpt lat="41.2891125" lon="19.5129579"><ele>3.0</ele><time>2026-05-03T10:34:52.718Z</time></trkpt><trkpt lat="41.289185" lon="19.5129054"><ele>3.0</ele><time>2026-05-03T10:34:54.718Z</time></trkpt><trkpt lat="41.2892748" lon="19.5128317"><ele>3.0</ele><time>2026-05-03T10:34:56.718Z</time></trkpt><trkpt lat="41.289354" lon="19.5127775"><ele>3.0</ele><time>2026-05-03T10:34:58.718Z</time></trkpt><trkpt lat="41.2894192" lon="19.5127124"><ele>3.0</ele><time>2026-05-03T10:35:00.717Z</time></trkpt><trkpt lat="41.2895006" lon="19.5126604"><ele>3.0</ele><time>2026-05-03T10:35:03.717Z</time></trkpt><trkpt lat="41.2895718" lon="19.5125817"><ele>3.0</ele><time>2026-05-03T10:35:06.718Z</time></trkpt><trkpt lat="41.2896318" lon="19.5125203"><ele>3.0</ele><time>2026-05-03T10:35:08.718Z</time></trkpt><trkpt lat="41.2897047" lon="19.5124394"><ele>3.0</ele><time>2026-05-03T10:35:11.718Z</time></trkpt><trkpt lat="41.2897694" lon="19.512365"><ele>3.0</ele><time>2026-05-03T10:35:13.718Z</time></trkpt><trkpt lat="41.289838" lon="19.5122764"><ele>2.8333333333333335</ele><time>2026-05-03T10:35:15.718Z</time></trkpt><trkpt lat="41.2899217" lon="19.5121683"><ele>2.6666666666666665</ele><time>2026-05-03T10:35:17.718Z</time></trkpt><trkpt lat="41.2899702" lon="19.5120995"><ele>2.5</ele><time>2026-05-03T10:35:18.717Z</time></trkpt><trkpt lat="41.2900149" lon="19.512033"><ele>2.333333333333333</ele><time>2026-05-03T10:35:19.717Z</time></trkpt><trkpt lat="41.2900644" lon="19.5119632"><ele>2.1666666666666665</ele><time>2026-05-03T10:35:20.718Z</time></trkpt><trkpt lat="41.2901254" lon="19.5118954"><ele>2.0</ele><time>2026-05-03T10:35:21.718Z</time></trkpt><trkpt lat="41.2901887" lon="19.511814"><ele>1.8333333333333333</ele><time>2026-05-03T10:35:22.717Z</time></trkpt><trkpt lat="41.2902369" lon="19.511736"><ele>1.6666666666666665</ele><time>2026-05-03T10:35:23.717Z</time></trkpt><trkpt lat="41.2902867" lon="19.5116746"><ele>1.5</ele><time>2026-05-03T10:35:24.718Z</time></trkpt><trkpt lat="41.2903422" lon="19.5116184"><ele>1.3333333333333333</ele><time>2026-05-03T10:35:25.717Z</time></trkpt><trkpt lat="41.2903875" lon="19.5115584"><ele>1.1666666666666665</ele><time>2026-05-03T10:35:26.718Z</time></trkpt><trkpt lat="41.2904366" lon="19.5115034"><ele>1.0</ele><time>2026-05-03T10:35:27.718Z</time></trkpt><trkpt lat="41.2905396" lon="19.5113972"><ele>0.9999999999999999</ele><time>2026-05-03T10:35:29.718Z</time></trkpt><trkpt lat="41.2906046" lon="19.5113456"><ele>1.0</ele><time>2026-05-03T10:35:30.718Z</time></trkpt><trkpt lat="41.2906792" lon="19.5112941"><ele>1.0</ele><time>2026-05-03T10:35:31.718Z</time></trkpt><trkpt lat="41.2907535" lon="19.5112507"><ele>1.0</ele><time>2026-05-03T10:35:32.718Z</time></trkpt><trkpt lat="41.2908214" lon="19.5112024"><ele>0.9999999999999999</ele><time>2026-05-03T10:35:33.718Z</time></trkpt><trkpt lat="41.2908845" lon="19.5111448"><ele>1.0</ele><time>2026-05-03T10:35:34.718Z</time></trkpt><trkpt lat="41.2909473" lon="19.5110739"><ele>0.9999999999999999</ele><time>2026-05-03T10:35:35.717Z</time></trkpt><trkpt lat="41.2910121" lon="19.5110103"><ele>1.0</ele><time>2026-05-03T10:35:36.718Z</time></trkpt><trkpt lat="41.291074" lon="19.5109573"><ele>1.0</ele><time>2026-05-03T10:35:37.717Z</time></trkpt><trkpt lat="41.2911332" lon="19.5108955"><ele>1.0</ele><time>2026-05-03T10:35:38.718Z</time></trkpt><trkpt lat="41.2912199" lon="19.5108211"><ele>0.9999999999999999</ele><time>2026-05-03T10:35:39.717Z</time></trkpt><trkpt lat="41.291317" lon="19.5107425"><ele>1.0</ele><time>2026-05-03T10:35:40.717Z</time></trkpt><trkpt lat="41.2914027" lon="19.5106775"><ele>1.1666666666666665</ele><time>2026-05-03T10:35:41.718Z</time></trkpt><trkpt lat="41.2914837" lon="19.5106081"><ele>1.3333333333333333</ele><time>2026-05-03T10:35:42.718Z</time></trkpt><trkpt lat="41.2915528" lon="19.5105341"><ele>1.5</ele><time>2026-05-03T10:35:43.717Z</time></trkpt><trkpt lat="41.2916026" lon="19.5104544"><ele>1.6666666666666665</ele><time>2026-05-03T10:35:44.717Z</time></trkpt><trkpt lat="41.2916353" lon="19.5103623"><ele>1.8333333333333333</ele><time>2026-05-03T10:35:45.717Z</time></trkpt><trkpt lat="41.2916595" lon="19.5102775"><ele>2.0</ele><time>2026-05-03T10:35:46.718Z</time></trkpt><trkpt lat="41.2916971" lon="19.510139"><ele>1.9999999999999998</ele><time>2026-05-03T10:35:48.718Z</time></trkpt><trkpt lat="41.2917114" lon="19.5100034"><ele>2.0</ele><time>2026-05-03T10:35:50.718Z</time></trkpt><trkpt lat="41.2917112" lon="19.5098713"><ele>2.0</ele><time>2026-05-03T10:35:52.717Z</time></trkpt><trkpt lat="41.2917124" lon="19.5097684"><ele>2.0</ele><time>2026-05-03T10:35:54.717Z</time></trkpt><trkpt lat="41.2917313" lon="19.5096552"><ele>1.9999999999999998</ele><time>2026-05-03T10:35:57.718Z</time></trkpt><trkpt lat="41.2917431" lon="19.5095725"><ele>2.0</ele><time>2026-05-03T10:36:00.717Z</time></trkpt><trkpt lat="41.2917487" lon="19.509469"><ele>1.7142857142857142</ele><time>2026-05-03T10:36:04.718Z</time></trkpt><trkpt lat="41.2917639" lon="19.5093832"><ele>1.4285714285714284</ele><time>2026-05-03T10:36:08.718Z</time></trkpt><trkpt lat="41.2917987" lon="19.509293"><ele>1.1428571428571428</ele><time>2026-05-03T10:36:23.717Z</time></trkpt><trkpt lat="41.2918217" lon="19.5091977"><ele>0.8571428571428571</ele><time>2026-05-03T10:36:33.718Z</time></trkpt><trkpt lat="41.2918349" lon="19.5091154"><ele>0.5714285714285714</ele><time>2026-05-03T10:36:52.718Z</time></trkpt><trkpt lat="41.2918641" lon="19.5090336"><ele>0.2857142857142857</ele><time>2026-05-03T10:36:57.718Z</time></trkpt><trkpt lat="41.2918983" lon="19.5089523"><ele>0.0</ele><time>2026-05-03T10:36:59.718Z</time></trkpt><trkpt lat="41.2919348" lon="19.5088678"><ele>0.0</ele><time>2026-05-03T10:37:01.717Z</time></trkpt><trkpt lat="41.2919894" lon="19.508817"><ele>0.0</ele><time>2026-05-03T10:37:09.717Z</time></trkpt><trkpt lat="41.2920398" lon="19.5087659"><ele>0.0</ele><time>2026-05-03T10:37:17.717Z</time></trkpt><trkpt lat="41.2921014" lon="19.5087465"><ele>0.0</ele><time>2026-05-03T10:37:22.718Z</time></trkpt><trkpt lat="41.2921841" lon="19.508754"><ele>0.0</ele><time>2026-05-03T10:37:26.717Z</time></trkpt><trkpt lat="41.2922422" lon="19.5087956"><ele>0.0</ele><time>2026-05-03T10:37:29.718Z</time></trkpt><trkpt lat="41.2922913" lon="19.5088816"><ele>0.0</ele><time>2026-05-03T10:37:32.718Z</time></trkpt><trkpt lat="41.2923369" lon="19.5089624"><ele>0.2</ele><time>2026-05-03T10:37:34.718Z</time></trkpt><trkpt lat="41.2923843" lon="19.5090597"><ele>0.4</ele><time>2026-05-03T10:37:36.718Z</time></trkpt><trkpt lat="41.2924487" lon="19.5091894"><ele>0.6000000000000001</ele><time>2026-05-03T10:37:38.718Z</time></trkpt><trkpt lat="41.2925153" lon="19.5093391"><ele>0.8</ele><time>2026-05-03T10:37:40.718Z</time></trkpt><trkpt lat="41.2925632" lon="19.5094236"><ele>1.0</ele><time>2026-05-03T10:37:41.718Z</time></trkpt><trkpt lat="41.292609" lon="19.5095225"><ele>0.9999999999999999</ele><time>2026-05-03T10:37:42.717Z</time></trkpt><trkpt lat="41.2926434" lon="19.5096122"><ele>1.0</ele><time>2026-05-03T10:37:43.717Z</time></trkpt><trkpt lat="41.2926762" lon="19.5096907"><ele>1.0</ele><time>2026-05-03T10:37:44.717Z</time></trkpt><trkpt lat="41.2926986" lon="19.5097759"><ele>1.0</ele><time>2026-05-03T10:37:45.717Z</time></trkpt><trkpt lat="41.2927278" lon="19.5098661"><ele>0.9999999999999999</ele><time>2026-05-03T10:37:46.718Z</time></trkpt><trkpt lat="41.2927646" lon="19.5099727"><ele>1.0</ele><time>2026-05-03T10:37:47.717Z</time></trkpt><trkpt lat="41.2928068" lon="19.5100804"><ele>1.0</ele><time>2026-05-03T10:37:48.718Z</time></trkpt><trkpt lat="41.2928498" lon="19.5102051"><ele>1.0</ele><time>2026-05-03T10:37:49.717Z</time></trkpt><trkpt lat="41.2928999" lon="19.5103327"><ele>1.0</ele><time>2026-05-03T10:37:50.717Z</time></trkpt><trkpt lat="41.2929454" lon="19.5104673"><ele>1.0</ele><time>2026-05-03T10:37:51.718Z</time></trkpt><trkpt lat="41.2929961" lon="19.5106078"><ele>1.0</ele><time>2026-05-03T10:37:52.718Z</time></trkpt><trkpt lat="41.2930364" lon="19.5107531"><ele>1.4</ele><time>2026-05-03T10:37:53.718Z</time></trkpt><trkpt lat="41.2930925" lon="19.5108893"><ele>1.8</ele><time>2026-05-03T10:37:54.718Z</time></trkpt><trkpt lat="41.2931516" lon="19.5110191"><ele>2.1999999999999997</ele><time>2026-05-03T10:37:55.718Z</time></trkpt><trkpt lat="41.2932004" lon="19.5111549"><ele>2.6</ele><time>2026-05-03T10:37:56.718Z</time></trkpt><trkpt lat="41.2932453" lon="19.5112665"><ele>3.0</ele><time>2026-05-03T10:37:57.718Z</time></trkpt><trkpt lat="41.293284" lon="19.511359"><ele>3.0</ele><time>2026-05-03T10:37:58.718Z</time></trkpt><trkpt lat="41.2933057" lon="19.5114383"><ele>3.0</ele><time>2026-05-03T10:37:59.717Z</time></trkpt><trkpt lat="41.293325" lon="19.5115956"><ele>3.0</ele><time>2026-05-03T10:38:01.718Z</time></trkpt><trkpt lat="41.2933187" lon="19.5116792"><ele>3.0</ele><time>2026-05-03T10:38:02.718Z</time></trkpt><trkpt lat="41.2933002" lon="19.5117723"><ele>3.0</ele><time>2026-05-03T10:38:03.718Z</time></trkpt><trkpt lat="41.2932791" lon="19.5118649"><ele>3.0</ele><time>2026-05-03T10:38:04.717Z</time></trkpt><trkpt lat="41.293252" lon="19.5119652"><ele>3.0</ele><time>2026-05-03T10:38:05.717Z</time></trkpt><trkpt lat="41.2932194" lon="19.5120588"><ele>3.0</ele><time>2026-05-03T10:38:06.718Z</time></trkpt><trkpt lat="41.2931745" lon="19.5121548"><ele>3.0</ele><time>2026-05-03T10:38:07.717Z</time></trkpt><trkpt lat="41.2931295" lon="19.5122594"><ele>3.0</ele><time>2026-05-03T10:38:08.717Z</time></trkpt><trkpt lat="41.2930812" lon="19.5123702"><ele>3.0</ele><time>2026-05-03T10:38:09.717Z</time></trkpt><trkpt lat="41.2930265" lon="19.5124813"><ele>3.0</ele><time>2026-05-03T10:38:10.717Z</time></trkpt><trkpt lat="41.2929733" lon="19.5125928"><ele>3.1666666666666665</ele><time>2026-05-03T10:38:11.718Z</time></trkpt><trkpt lat="41.2929233" lon="19.5127085"><ele>3.333333333333333</ele><time>2026-05-03T10:38:12.717Z</time></trkpt><trkpt lat="41.2928749" lon="19.512827"><ele>3.5</ele><time>2026-05-03T10:38:13.717Z</time></trkpt><trkpt lat="41.2928275" lon="19.5129321"><ele>3.6666666666666665</ele><time>2026-05-03T10:38:14.717Z</time></trkpt><trkpt lat="41.2927938" lon="19.5130238"><ele>3.833333333333333</ele><time>2026-05-03T10:38:15.717Z</time></trkpt><trkpt lat="41.2927694" lon="19.5131034"><ele>4.0</ele><time>2026-05-03T10:38:16.718Z</time></trkpt><trkpt lat="41.2927297" lon="19.5132563"><ele>4.2</ele><time>2026-05-03T10:38:18.718Z</time></trkpt><trkpt lat="41.2927175" lon="19.5133718"><ele>4.4</ele><time>2026-05-03T10:38:19.717Z</time></trkpt><trkpt lat="41.2927002" lon="19.5135013"><ele>4.6</ele><time>2026-05-03T10:38:20.717Z</time></trkpt><trkpt lat="41.292683" lon="19.5136503"><ele>4.8</ele><time>2026-05-03T10:38:21.717Z</time></trkpt><trkpt lat="41.2926697" lon="19.5138143"><ele>5.0</ele><time>2026-05-03T10:38:22.718Z</time></trkpt><trkpt lat="41.2926601" lon="19.513977"><ele>5.0</ele><time>2026-05-03T10:38:23.718Z</time></trkpt><trkpt lat="41.2926568" lon="19.5141477"><ele>5.0</ele><time>2026-05-03T10:38:24.718Z</time></trkpt><trkpt lat="41.2926552" lon="19.5143209"><ele>5.0</ele><time>2026-05-03T10:38:25.717Z</time></trkpt><trkpt lat="41.2926515" lon="19.5144991"><ele>5.0</ele><time>2026-05-03T10:38:26.717Z</time></trkpt><trkpt lat="41.2926446" lon="19.5146816"><ele>5.0</ele><time>2026-05-03T10:38:27.717Z</time></trkpt><trkpt lat="41.2926431" lon="19.5148515"><ele>5.0</ele><time>2026-05-03T10:38:28.718Z</time></trkpt><trkpt lat="41.292644" lon="19.5150157"><ele>5.0</ele><time>2026-05-03T10:38:29.718Z</time></trkpt><trkpt lat="41.29265" lon="19.5151792"><ele>5.0</ele><time>2026-05-03T10:38:30.718Z</time></trkpt><trkpt lat="41.292669" lon="19.5153461"><ele>4.75</ele><time>2026-05-03T10:38:31.718Z</time></trkpt><trkpt lat="41.2927089" lon="19.5155193"><ele>4.5</ele><time>2026-05-03T10:38:32.717Z</time></trkpt><trkpt lat="41.2927587" lon="19.5156868"><ele>4.25</ele><time>2026-05-03T10:38:33.718Z</time></trkpt><trkpt lat="41.2928177" lon="19.5158424"><ele>4.0</ele><time>2026-05-03T10:38:34.718Z</time></trkpt><trkpt lat="41.2928904" lon="19.5159933"><ele>4.0</ele><time>2026-05-03T10:38:35.718Z</time></trkpt><trkpt lat="41.2929654" lon="19.5161393"><ele>4.0</ele><time>2026-05-03T10:38:36.717Z</time></trkpt><trkpt lat="41.2930365" lon="19.5162786"><ele>4.0</ele><time>2026-05-03T10:38:37.718Z</time></trkpt><trkpt lat="41.2931078" lon="19.5164204"><ele>4.0</ele><time>2026-05-03T10:38:38.717Z</time></trkpt><trkpt lat="41.2931785" lon="19.5165579"><ele>4.75</ele><time>2026-05-03T10:38:39.718Z</time></trkpt><trkpt lat="41.2932469" lon="19.516697"><ele>5.5</ele><time>2026-05-03T10:38:40.717Z</time></trkpt><trkpt lat="41.2933175" lon="19.5168303"><ele>6.25</ele><time>2026-05-03T10:38:41.718Z</time></trkpt><trkpt lat="41.2933842" lon="19.516964"><ele>7.0</ele><time>2026-05-03T10:38:42.718Z</time></trkpt><trkpt lat="41.2934455" lon="19.5170995"><ele>7.0</ele><time>2026-05-03T10:38:43.718Z</time></trkpt><trkpt lat="41.2935053" lon="19.5172254"><ele>7.0</ele><time>2026-05-03T10:38:44.717Z</time></trkpt><trkpt lat="41.2935626" lon="19.5173587"><ele>7.0</ele><time>2026-05-03T10:38:45.718Z</time></trkpt><trkpt lat="41.293623" lon="19.5174956"><ele>7.0</ele><time>2026-05-03T10:38:46.718Z</time></trkpt><trkpt lat="41.2936868" lon="19.5176289"><ele>7.0</ele><time>2026-05-03T10:38:47.717Z</time></trkpt><trkpt lat="41.2937449" lon="19.5177636"><ele>7.0</ele><time>2026-05-03T10:38:48.717Z</time></trkpt><trkpt lat="41.2937977" lon="19.5179014"><ele>7.0</ele><time>2026-05-03T10:38:49.717Z</time></trkpt><trkpt lat="41.2938611" lon="19.5180277"><ele>7.0</ele><time>2026-05-03T10:38:50.718Z</time></trkpt><trkpt lat="41.2939308" lon="19.5181588"><ele>7.25</ele><time>2026-05-03T10:38:51.717Z</time></trkpt><trkpt lat="41.2939971" lon="19.5182965"><ele>7.5</ele><time>2026-05-03T10:38:52.718Z</time></trkpt><trkpt lat="41.2940641" lon="19.518435"><ele>7.75</ele><time>2026-05-03T10:38:53.718Z</time></trkpt><trkpt lat="41.2941247" lon="19.5185773"><ele>8.0</ele><time>2026-05-03T10:38:54.718Z</time></trkpt><trkpt lat="41.2941882" lon="19.5187145"><ele>7.5</ele><time>2026-05-03T10:38:55.718Z</time></trkpt><trkpt lat="41.2942596" lon="19.5188508"><ele>7.0</ele><time>2026-05-03T10:38:56.717Z</time></trkpt><trkpt lat="41.2943458" lon="19.5189715"><ele>6.5</ele><time>2026-05-03T10:38:57.718Z</time></trkpt><trkpt lat="41.2944393" lon="19.5190868"><ele>6.0</ele><time>2026-05-03T10:38:58.717Z</time></trkpt><trkpt lat="41.2945481" lon="19.5191766"><ele>6.0</ele><time>2026-05-03T10:38:59.717Z</time></trkpt><trkpt lat="41.2946619" lon="19.5192777"><ele>6.0</ele><time>2026-05-03T10:39:00.717Z</time></trkpt><trkpt lat="41.2947821" lon="19.519373"><ele>6.0</ele><time>2026-05-03T10:39:01.718Z</time></trkpt><trkpt lat="41.2949123" lon="19.519456"><ele>6.0</ele><time>2026-05-03T10:39:02.718Z</time></trkpt><trkpt lat="41.2950376" lon="19.5195624"><ele>7.333333333333334</ele><time>2026-05-03T10:39:03.718Z</time></trkpt><trkpt lat="41.295173" lon="19.5196632"><ele>8.666666666666668</ele><time>2026-05-03T10:39:04.717Z</time></trkpt><trkpt lat="41.2953128" lon="19.5197638"><ele>10.0</ele><time>2026-05-03T10:39:05.717Z</time></trkpt><trkpt lat="41.2954655" lon="19.5198744"><ele>10.0</ele><time>2026-05-03T10:39:06.718Z</time></trkpt><trkpt lat="41.2956234" lon="19.5200017"><ele>10.0</ele><time>2026-05-03T10:39:07.717Z</time></trkpt><trkpt lat="41.295785" lon="19.5201211"><ele>10.0</ele><time>2026-05-03T10:39:08.718Z</time></trkpt><trkpt lat="41.2959462" lon="19.5202531"><ele>10.0</ele><time>2026-05-03T10:39:09.717Z</time></trkpt><trkpt lat="41.2961073" lon="19.5203796"><ele>10.0</ele><time>2026-05-03T10:39:10.717Z</time></trkpt><trkpt lat="41.2962759" lon="19.5204974"><ele>10.0</ele><time>2026-05-03T10:39:11.718Z</time></trkpt><trkpt lat="41.2964415" lon="19.5206078"><ele>10.666666666666668</ele><time>2026-05-03T10:39:12.717Z</time></trkpt><trkpt lat="41.2966029" lon="19.52073"><ele>11.333333333333334</ele><time>2026-05-03T10:39:13.718Z</time></trkpt><trkpt lat="41.2967589" lon="19.5208394"><ele>12.0</ele><time>2026-05-03T10:39:14.717Z</time></trkpt><trkpt lat="41.296917" lon="19.5209631"><ele>12.0</ele><time>2026-05-03T10:39:15.717Z</time></trkpt><trkpt lat="41.29707" lon="19.5210826"><ele>12.0</ele><time>2026-05-03T10:39:16.717Z</time></trkpt><trkpt lat="41.2972237" lon="19.5212022"><ele>12.0</ele><time>2026-05-03T10:39:17.718Z</time></trkpt><trkpt lat="41.2973772" lon="19.5213141"><ele>12.0</ele><time>2026-05-03T10:39:18.718Z</time></trkpt><trkpt lat="41.2975226" lon="19.5214321"><ele>12.0</ele><time>2026-05-03T10:39:19.717Z</time></trkpt><trkpt lat="41.2976634" lon="19.5215433"><ele>12.0</ele><time>2026-05-03T10:39:20.718Z</time></trkpt><trkpt lat="41.2978165" lon="19.5216365"><ele>12.0</ele><time>2026-05-03T10:39:21.718Z</time></trkpt><trkpt lat="41.2979588" lon="19.5217368"><ele>12.0</ele><time>2026-05-03T10:39:22.717Z</time></trkpt><trkpt lat="41.2980836" lon="19.5218328"><ele>12.0</ele><time>2026-05-03T10:39:23.718Z</time></trkpt><trkpt lat="41.2982044" lon="19.5219214"><ele>12.0</ele><time>2026-05-03T10:39:24.717Z</time></trkpt><trkpt lat="41.298321" lon="19.522013"><ele>12.5</ele><time>2026-05-03T10:39:25.717Z</time></trkpt><trkpt lat="41.298445" lon="19.5221025"><ele>13.0</ele><time>2026-05-03T10:39:26.718Z</time></trkpt><trkpt lat="41.2985592" lon="19.5221941"><ele>13.5</ele><time>2026-05-03T10:39:27.718Z</time></trkpt><trkpt lat="41.2986729" lon="19.5222733"><ele>14.0</ele><time>2026-05-03T10:39:28.718Z</time></trkpt><trkpt lat="41.2987792" lon="19.5223542"><ele>14.0</ele><time>2026-05-03T10:39:29.718Z</time></trkpt><trkpt lat="41.2988864" lon="19.5224287"><ele>13.999999999999998</ele><time>2026-05-03T10:39:30.717Z</time></trkpt><trkpt lat="41.2989808" lon="19.5225002"><ele>13.999999999999998</ele><time>2026-05-03T10:39:31.718Z</time></trkpt><trkpt lat="41.2990653" lon="19.5225635"><ele>14.0</ele><time>2026-05-03T10:39:32.717Z</time></trkpt><trkpt lat="41.2991495" lon="19.5226268"><ele>14.0</ele><time>2026-05-03T10:39:33.718Z</time></trkpt><trkpt lat="41.2992347" lon="19.5226741"><ele>13.833333333333334</ele><time>2026-05-03T10:39:34.718Z</time></trkpt><trkpt lat="41.2993182" lon="19.5227103"><ele>13.666666666666668</ele><time>2026-05-03T10:39:35.718Z</time></trkpt><trkpt lat="41.2993956" lon="19.5227354"><ele>13.5</ele><time>2026-05-03T10:39:36.717Z</time></trkpt><trkpt lat="41.2994837" lon="19.5227444"><ele>13.333333333333332</ele><time>2026-05-03T10:39:37.717Z</time></trkpt><trkpt lat="41.299563" lon="19.5227658"><ele>13.166666666666666</ele><time>2026-05-03T10:39:38.717Z</time></trkpt><trkpt lat="41.2996344" lon="19.5227739"><ele>13.0</ele><time>2026-05-03T10:39:39.718Z</time></trkpt><trkpt lat="41.2997061" lon="19.5227717"><ele>14.2</ele><time>2026-05-03T10:39:40.717Z</time></trkpt><trkpt lat="41.2997774" lon="19.5227906"><ele>15.4</ele><time>2026-05-03T10:39:41.718Z</time></trkpt><trkpt lat="41.29985" lon="19.5228076"><ele>16.599999999999998</ele><time>2026-05-03T10:39:42.717Z</time></trkpt><trkpt lat="41.2999568" lon="19.5228199"><ele>17.8</ele><time>2026-05-03T10:39:44.717Z</time></trkpt><trkpt lat="41.3000559" lon="19.5228089"><ele>19.0</ele><time>2026-05-03T10:39:46.717Z</time></trkpt><trkpt lat="41.3001556" lon="19.5227914"><ele>19.0</ele><time>2026-05-03T10:39:48.717Z</time></trkpt><trkpt lat="41.3002465" lon="19.522793"><ele>19.0</ele><time>2026-05-03T10:39:50.717Z</time></trkpt><trkpt lat="41.3003529" lon="19.5227687"><ele>19.0</ele><time>2026-05-03T10:39:52.717Z</time></trkpt><trkpt lat="41.300465" lon="19.52272"><ele>19.0</ele><time>2026-05-03T10:39:54.718Z</time></trkpt><trkpt lat="41.3005907" lon="19.5226829"><ele>19.0</ele><time>2026-05-03T10:39:56.717Z</time></trkpt><trkpt lat="41.3006538" lon="19.5226567"><ele>19.2</ele><time>2026-05-03T10:39:57.717Z</time></trkpt><trkpt lat="41.3007235" lon="19.5226335"><ele>19.4</ele><time>2026-05-03T10:39:58.718Z</time></trkpt><trkpt lat="41.3007987" lon="19.5225968"><ele>19.6</ele><time>2026-05-03T10:39:59.718Z</time></trkpt><trkpt lat="41.3008925" lon="19.5225513"><ele>19.8</ele><time>2026-05-03T10:40:00.717Z</time></trkpt><trkpt lat="41.300992" lon="19.5225189"><ele>20.0</ele><time>2026-05-03T10:40:01.718Z</time></trkpt><trkpt lat="41.301106" lon="19.5224791"><ele>20.0</ele><time>2026-05-03T10:40:02.717Z</time></trkpt><trkpt lat="41.3012035" lon="19.5224386"><ele>20.0</ele><time>2026-05-03T10:40:03.718Z</time></trkpt><trkpt lat="41.3012946" lon="19.5224215"><ele>20.0</ele><time>2026-05-03T10:40:04.717Z</time></trkpt><trkpt lat="41.3013705" lon="19.5224049"><ele>20.0</ele><time>2026-05-03T10:40:05.717Z</time></trkpt><trkpt lat="41.3014393" lon="19.5223885"><ele>20.0</ele><time>2026-05-03T10:40:06.717Z</time></trkpt><trkpt lat="41.3015018" lon="19.5223762"><ele>20.0</ele><time>2026-05-03T10:40:07.717Z</time></trkpt><trkpt lat="41.301575" lon="19.5223559"><ele>21.333333333333336</ele><time>2026-05-03T10:40:08.718Z</time></trkpt><trkpt lat="41.3016588" lon="19.5223368"><ele>22.666666666666668</ele><time>2026-05-03T10:40:09.718Z</time></trkpt><trkpt lat="41.3017503" lon="19.5223046"><ele>24.0</ele><time>2026-05-03T10:40:10.717Z</time></trkpt><trkpt lat="41.3018371" lon="19.5222757"><ele>25.333333333333336</ele><time>2026-05-03T10:40:11.717Z</time></trkpt><trkpt lat="41.3019141" lon="19.5222515"><ele>26.666666666666668</ele><time>2026-05-03T10:40:12.717Z</time></trkpt><trkpt lat="41.3019937" lon="19.5222235"><ele>28.0</ele><time>2026-05-03T10:40:13.718Z</time></trkpt><trkpt lat="41.3020738" lon="19.5221978"><ele>28.000000000000004</ele><time>2026-05-03T10:40:14.718Z</time></trkpt><trkpt lat="41.3021543" lon="19.5221789"><ele>28.0</ele><time>2026-05-03T10:40:15.717Z</time></trkpt><trkpt lat="41.3022367" lon="19.5221535"><ele>28.0</ele><time>2026-05-03T10:40:16.718Z</time></trkpt><trkpt lat="41.3023244" lon="19.5221172"><ele>28.0</ele><time>2026-05-03T10:40:17.717Z</time></trkpt><trkpt lat="41.3024107" lon="19.5221077"><ele>28.000000000000004</ele><time>2026-05-03T10:40:18.718Z</time></trkpt><trkpt lat="41.3024862" lon="19.5221125"><ele>28.0</ele><time>2026-05-03T10:40:19.718Z</time></trkpt><trkpt lat="41.3025602" lon="19.5221191"><ele>29.166666666666668</ele><time>2026-05-03T10:40:20.718Z</time></trkpt><trkpt lat="41.3026299" lon="19.5221399"><ele>30.333333333333336</ele><time>2026-05-03T10:40:21.717Z</time></trkpt><trkpt lat="41.3027066" lon="19.5221568"><ele>31.5</ele><time>2026-05-03T10:40:22.717Z</time></trkpt><trkpt lat="41.3027854" lon="19.5221831"><ele>32.666666666666664</ele><time>2026-05-03T10:40:23.717Z</time></trkpt><trkpt lat="41.3028621" lon="19.5222157"><ele>33.83333333333333</ele><time>2026-05-03T10:40:24.717Z</time></trkpt><trkpt lat="41.3029303" lon="19.5222542"><ele>35.0</ele><time>2026-05-03T10:40:25.717Z</time></trkpt><trkpt lat="41.3029903" lon="19.5222917"><ele>35.0</ele><time>2026-05-03T10:40:26.718Z</time></trkpt><trkpt lat="41.303056" lon="19.5223295"><ele>35.0</ele><time>2026-05-03T10:40:27.717Z</time></trkpt><trkpt lat="41.3031159" lon="19.5223673"><ele>35.0</ele><time>2026-05-03T10:40:28.717Z</time></trkpt><trkpt lat="41.3031785" lon="19.5224081"><ele>35.0</ele><time>2026-05-03T10:40:29.718Z</time></trkpt><trkpt lat="41.3032326" lon="19.5224803"><ele>35.0</ele><time>2026-05-03T10:40:30.718Z</time></trkpt><trkpt lat="41.3032871" lon="19.522553"><ele>35.0</ele><time>2026-05-03T10:40:31.717Z</time></trkpt><trkpt lat="41.3033414" lon="19.5226312"><ele>35.0</ele><time>2026-05-03T10:40:32.717Z</time></trkpt><trkpt lat="41.3033897" lon="19.5227093"><ele>34.8</ele><time>2026-05-03T10:40:33.718Z</time></trkpt><trkpt lat="41.3034427" lon="19.5227898"><ele>34.6</ele><time>2026-05-03T10:40:34.718Z</time></trkpt><trkpt lat="41.3035041" lon="19.5228786"><ele>34.4</ele><time>2026-05-03T10:40:35.717Z</time></trkpt><trkpt lat="41.3035926" lon="19.5229826"><ele>34.2</ele><time>2026-05-03T10:40:36.718Z</time></trkpt><trkpt lat="41.3036851" lon="19.523112"><ele>34.0</ele><time>2026-05-03T10:40:37.717Z</time></trkpt><trkpt lat="41.3037746" lon="19.523257"><ele>33.8</ele><time>2026-05-03T10:40:38.717Z</time></trkpt><trkpt lat="41.3038572" lon="19.5233797"><ele>33.599999999999994</ele><time>2026-05-03T10:40:39.718Z</time></trkpt><trkpt lat="41.303932" lon="19.5235029"><ele>33.4</ele><time>2026-05-03T10:40:40.717Z</time></trkpt><trkpt lat="41.3039927" lon="19.5236196"><ele>33.199999999999996</ele><time>2026-05-03T10:40:41.717Z</time></trkpt><trkpt lat="41.3040521" lon="19.5237143"><ele>33.0</ele><time>2026-05-03T10:40:42.717Z</time></trkpt><trkpt lat="41.3041101" lon="19.5238089"><ele>35.333333333333336</ele><time>2026-05-03T10:40:43.717Z</time></trkpt><trkpt lat="41.3041669" lon="19.5239014"><ele>37.666666666666664</ele><time>2026-05-03T10:40:44.717Z</time></trkpt><trkpt lat="41.3042211" lon="19.523987"><ele>40.0</ele><time>2026-05-03T10:40:45.718Z</time></trkpt><trkpt lat="41.3042752" lon="19.5240759"><ele>42.33333333333333</ele><time>2026-05-03T10:40:46.718Z</time></trkpt><trkpt lat="41.3043295" lon="19.5241715"><ele>44.666666666666664</ele><time>2026-05-03T10:40:47.718Z</time></trkpt><trkpt lat="41.3043864" lon="19.5242715"><ele>47.0</ele><time>2026-05-03T10:40:48.717Z</time></trkpt><trkpt lat="41.3044327" lon="19.5243962"><ele>47.0</ele><time>2026-05-03T10:40:49.718Z</time></trkpt><trkpt lat="41.3044817" lon="19.5245156"><ele>47.0</ele><time>2026-05-03T10:40:50.717Z</time></trkpt><trkpt lat="41.3045254" lon="19.5246483"><ele>47.0</ele><time>2026-05-03T10:40:51.717Z</time></trkpt><trkpt lat="41.304564" lon="19.5247736"><ele>47.0</ele><time>2026-05-03T10:40:52.717Z</time></trkpt><trkpt lat="41.3046004" lon="19.5248822"><ele>47.0</ele><time>2026-05-03T10:40:53.718Z</time></trkpt><trkpt lat="41.3046284" lon="19.5249812"><ele>47.33333333333333</ele><time>2026-05-03T10:40:54.717Z</time></trkpt><trkpt lat="41.3046686" lon="19.5250544"><ele>47.666666666666664</ele><time>2026-05-03T10:40:55.717Z</time></trkpt><trkpt lat="41.3047196" lon="19.5251407"><ele>48.0</ele><time>2026-05-03T10:40:56.717Z</time></trkpt><trkpt lat="41.3047825" lon="19.5252272"><ele>48.33333333333333</ele><time>2026-05-03T10:40:57.718Z</time></trkpt><trkpt lat="41.3048525" lon="19.5253028"><ele>48.666666666666664</ele><time>2026-05-03T10:40:58.718Z</time></trkpt><trkpt lat="41.3049265" lon="19.5253667"><ele>49.0</ele><time>2026-05-03T10:40:59.718Z</time></trkpt><trkpt lat="41.3050114" lon="19.5253968"><ele>48.99999999999999</ele><time>2026-05-03T10:41:00.717Z</time></trkpt><trkpt lat="41.3050909" lon="19.5254128"><ele>49.0</ele><time>2026-05-03T10:41:01.718Z</time></trkpt><trkpt lat="41.3051726" lon="19.5254248"><ele>49.0</ele><time>2026-05-03T10:41:02.718Z</time></trkpt><trkpt lat="41.3052615" lon="19.5254056"><ele>49.0</ele><time>2026-05-03T10:41:03.718Z</time></trkpt><trkpt lat="41.3053537" lon="19.5253932"><ele>48.99999999999999</ele><time>2026-05-03T10:41:04.716Z</time></trkpt><trkpt lat="41.305452" lon="19.5253799"><ele>49.0</ele><time>2026-05-03T10:41:05.718Z</time></trkpt><trkpt lat="41.3055537" lon="19.525371"><ele>49.0</ele><time>2026-05-03T10:41:06.718Z</time></trkpt><trkpt lat="41.305655" lon="19.5253805"><ele>49.0</ele><time>2026-05-03T10:41:07.718Z</time></trkpt><trkpt lat="41.3057559" lon="19.5254005"><ele>49.0</ele><time>2026-05-03T10:41:08.717Z</time></trkpt><trkpt lat="41.305847" lon="19.525458"><ele>49.0</ele><time>2026-05-03T10:41:09.717Z</time></trkpt><trkpt lat="41.3059364" lon="19.5255374"><ele>49.0</ele><time>2026-05-03T10:41:10.717Z</time></trkpt><trkpt lat="41.3060181" lon="19.5256184"><ele>51.6</ele><time>2026-05-03T10:41:11.718Z</time></trkpt><trkpt lat="41.3061036" lon="19.5256927"><ele>54.2</ele><time>2026-05-03T10:41:12.717Z</time></trkpt><trkpt lat="41.3061889" lon="19.52575"><ele>56.800000000000004</ele><time>2026-05-03T10:41:13.717Z</time></trkpt><trkpt lat="41.3062773" lon="19.5257848"><ele>59.400000000000006</ele><time>2026-05-03T10:41:14.717Z</time></trkpt><trkpt lat="41.3063641" lon="19.5258012"><ele>62.0</ele><time>2026-05-03T10:41:15.718Z</time></trkpt><trkpt lat="41.3064436" lon="19.5258063"><ele>62.00000000000001</ele><time>2026-05-03T10:41:16.718Z</time></trkpt><trkpt lat="41.306523" lon="19.525805"><ele>62.0</ele><time>2026-05-03T10:41:17.717Z</time></trkpt><trkpt lat="41.3066018" lon="19.5258058"><ele>62.0</ele><time>2026-05-03T10:41:18.718Z</time></trkpt><trkpt lat="41.3066724" lon="19.5258141"><ele>62.0</ele><time>2026-05-03T10:41:19.718Z</time></trkpt><trkpt lat="41.3067432" lon="19.5258286"><ele>62.00000000000001</ele><time>2026-05-03T10:41:20.717Z</time></trkpt><trkpt lat="41.3068122" lon="19.5258579"><ele>62.0</ele><time>2026-05-03T10:41:21.718Z</time></trkpt><trkpt lat="41.3069049" lon="19.5259439"><ele>62.0</ele><time>2026-05-03T10:41:23.718Z</time></trkpt><trkpt lat="41.3069779" lon="19.5260635"><ele>62.0</ele><time>2026-05-03T10:41:25.717Z</time></trkpt><trkpt lat="41.307044" lon="19.5261794"><ele>62.0</ele><time>2026-05-03T10:41:27.718Z</time></trkpt><trkpt lat="41.307065" lon="19.5263393"><ele>62.0</ele><time>2026-05-03T10:41:29.717Z</time></trkpt><trkpt lat="41.3070667" lon="19.526427"><ele>62.0</ele><time>2026-05-03T10:41:30.717Z</time></trkpt><trkpt lat="41.307062" lon="19.5265218"><ele>62.50000000000001</ele><time>2026-05-03T10:41:31.718Z</time></trkpt><trkpt lat="41.3070562" lon="19.5266333"><ele>63.0</ele><time>2026-05-03T10:41:32.718Z</time></trkpt><trkpt lat="41.3070488" lon="19.5267471"><ele>63.5</ele><time>2026-05-03T10:41:33.718Z</time></trkpt><trkpt lat="41.3070529" lon="19.5268642"><ele>64.0</ele><time>2026-05-03T10:41:34.717Z</time></trkpt><trkpt lat="41.3070577" lon="19.5269796"><ele>64.5</ele><time>2026-05-03T10:41:35.718Z</time></trkpt><trkpt lat="41.3070774" lon="19.5270907"><ele>65.0</ele><time>2026-05-03T10:41:36.718Z</time></trkpt><trkpt lat="41.3071062" lon="19.5272139"><ele>65.0</ele><time>2026-05-03T10:41:37.717Z</time></trkpt><trkpt lat="41.3071514" lon="19.5273353"><ele>65.0</ele><time>2026-05-03T10:41:38.717Z</time></trkpt><trkpt lat="41.3072069" lon="19.5274433"><ele>65.0</ele><time>2026-05-03T10:41:39.718Z</time></trkpt><trkpt lat="41.3072752" lon="19.527548"><ele>65.0</ele><time>2026-05-03T10:41:40.717Z</time></trkpt><trkpt lat="41.3073446" lon="19.5276413"><ele>65.0</ele><time>2026-05-03T10:41:41.717Z</time></trkpt><trkpt lat="41.3074043" lon="19.5277387"><ele>63.4</ele><time>2026-05-03T10:41:42.717Z</time></trkpt><trkpt lat="41.3074568" lon="19.5278471"><ele>61.8</ele><time>2026-05-03T10:41:43.717Z</time></trkpt><trkpt lat="41.3074958" lon="19.5279791"><ele>60.2</ele><time>2026-05-03T10:41:44.718Z</time></trkpt><trkpt lat="41.3075364" lon="19.5281056"><ele>58.6</ele><time>2026-05-03T10:41:45.718Z</time></trkpt><trkpt lat="41.3075561" lon="19.5282467"><ele>57.0</ele><time>2026-05-03T10:41:46.717Z</time></trkpt><trkpt lat="41.3075564" lon="19.5283875"><ele>57.0</ele><time>2026-05-03T10:41:47.718Z</time></trkpt><trkpt lat="41.3075577" lon="19.5285157"><ele>57.0</ele><time>2026-05-03T10:41:48.718Z</time></trkpt><trkpt lat="41.3075525" lon="19.5286437"><ele>57.0</ele><time>2026-05-03T10:41:49.717Z</time></trkpt><trkpt lat="41.3075376" lon="19.528762"><ele>57.0</ele><time>2026-05-03T10:41:50.718Z</time></trkpt><trkpt lat="41.3075326" lon="19.5288826"><ele>57.0</ele><time>2026-05-03T10:41:51.717Z</time></trkpt><trkpt lat="41.3075325" lon="19.5289978"><ele>56.6</ele><time>2026-05-03T10:41:52.718Z</time></trkpt><trkpt lat="41.3075221" lon="19.5291159"><ele>56.2</ele><time>2026-05-03T10:41:53.718Z</time></trkpt><trkpt lat="41.3075222" lon="19.5292441"><ele>55.8</ele><time>2026-05-03T10:41:54.718Z</time></trkpt><trkpt lat="41.3075265" lon="19.5293611"><ele>55.4</ele><time>2026-05-03T10:41:55.717Z</time></trkpt><trkpt lat="41.3075306" lon="19.5294859"><ele>55.0</ele><time>2026-05-03T10:41:56.717Z</time></trkpt><trkpt lat="41.3075356" lon="19.5296094"><ele>54.0</ele><time>2026-05-03T10:41:57.718Z</time></trkpt><trkpt lat="41.3075403" lon="19.5297336"><ele>53.0</ele><time>2026-05-03T10:41:58.718Z</time></trkpt><trkpt lat="41.3075424" lon="19.5298593"><ele>52.0</ele><time>2026-05-03T10:41:59.717Z</time></trkpt><trkpt lat="41.3075427" lon="19.529988"><ele>51.0</ele><time>2026-05-03T10:42:00.718Z</time></trkpt><trkpt lat="41.3075512" lon="19.5301199"><ele>50.0</ele><time>2026-05-03T10:42:01.717Z</time></trkpt><trkpt lat="41.3075558" lon="19.5302588"><ele>49.8</ele><time>2026-05-03T10:42:02.717Z</time></trkpt><trkpt lat="41.3075553" lon="19.5303968"><ele>49.6</ele><time>2026-05-03T10:42:03.718Z</time></trkpt><trkpt lat="41.3075641" lon="19.5305428"><ele>49.400000000000006</ele><time>2026-05-03T10:42:04.717Z</time></trkpt><trkpt lat="41.3075698" lon="19.5306924"><ele>49.2</ele><time>2026-05-03T10:42:05.717Z</time></trkpt><trkpt lat="41.3075735" lon="19.5308346"><ele>49.0</ele><time>2026-05-03T10:42:06.717Z</time></trkpt><trkpt lat="41.3075768" lon="19.5309757"><ele>49.0</ele><time>2026-05-03T10:42:07.718Z</time></trkpt><trkpt lat="41.3075879" lon="19.5311213"><ele>49.0</ele><time>2026-05-03T10:42:08.718Z</time></trkpt><trkpt lat="41.3075909" lon="19.5312526"><ele>49.0</ele><time>2026-05-03T10:42:09.717Z</time></trkpt><trkpt lat="41.3075978" lon="19.531379"><ele>49.0</ele><time>2026-05-03T10:42:10.717Z</time></trkpt><trkpt lat="41.3076088" lon="19.5315052"><ele>49.0</ele><time>2026-05-03T10:42:11.717Z</time></trkpt><trkpt lat="41.3076219" lon="19.5316203"><ele>49.33333333333333</ele><time>2026-05-03T10:42:12.718Z</time></trkpt><trkpt lat="41.3076327" lon="19.5317304"><ele>49.666666666666664</ele><time>2026-05-03T10:42:13.718Z</time></trkpt><trkpt lat="41.307638" lon="19.5318436"><ele>50.0</ele><time>2026-05-03T10:42:14.717Z</time></trkpt><trkpt lat="41.3076384" lon="19.5319501"><ele>50.33333333333333</ele><time>2026-05-03T10:42:15.717Z</time></trkpt><trkpt lat="41.3076438" lon="19.5320394"><ele>50.666666666666664</ele><time>2026-05-03T10:42:16.717Z</time></trkpt><trkpt lat="41.3076525" lon="19.5321262"><ele>51.0</ele><time>2026-05-03T10:42:17.717Z</time></trkpt><trkpt lat="41.3076706" lon="19.5322802"><ele>50.0</ele><time>2026-05-03T10:42:19.718Z</time></trkpt><trkpt lat="41.3077145" lon="19.5324185"><ele>49.0</ele><time>2026-05-03T10:42:21.717Z</time></trkpt><trkpt lat="41.3077726" lon="19.5325528"><ele>48.0</ele><time>2026-05-03T10:42:23.717Z</time></trkpt><trkpt lat="41.3078173" lon="19.5326254"><ele>47.0</ele><time>2026-05-03T10:42:24.717Z</time></trkpt><trkpt lat="41.307875" lon="19.5327021"><ele>46.0</ele><time>2026-05-03T10:42:25.718Z</time></trkpt><trkpt lat="41.3079447" lon="19.5327761"><ele>46.0</ele><time>2026-05-03T10:42:26.718Z</time></trkpt><trkpt lat="41.3080286" lon="19.5328184"><ele>46.0</ele><time>2026-05-03T10:42:27.717Z</time></trkpt><trkpt lat="41.3080925" lon="19.5328726"><ele>46.0</ele><time>2026-05-03T10:42:28.717Z</time></trkpt><trkpt lat="41.3081625" lon="19.5329174"><ele>46.0</ele><time>2026-05-03T10:42:29.718Z</time></trkpt><trkpt lat="41.308234" lon="19.5329522"><ele>46.0</ele><time>2026-05-03T10:42:30.718Z</time></trkpt><trkpt lat="41.3083104" lon="19.5329864"><ele>46.0</ele><time>2026-05-03T10:42:31.717Z</time></trkpt><trkpt lat="41.30839" lon="19.5330087"><ele>45.0</ele><time>2026-05-03T10:42:32.718Z</time></trkpt><trkpt lat="41.3084836" lon="19.5330041"><ele>44.0</ele><time>2026-05-03T10:42:33.717Z</time></trkpt><trkpt lat="41.3085818" lon="19.5329971"><ele>43.0</ele><time>2026-05-03T10:42:34.718Z</time></trkpt><trkpt lat="41.3086768" lon="19.532963"><ele>42.0</ele><time>2026-05-03T10:42:35.717Z</time></trkpt><trkpt lat="41.3087671" lon="19.532907"><ele>41.0</ele><time>2026-05-03T10:42:36.717Z</time></trkpt><trkpt lat="41.3088486" lon="19.5328464"><ele>41.0</ele><time>2026-05-03T10:42:37.718Z</time></trkpt><trkpt lat="41.3089241" lon="19.5327898"><ele>41.0</ele><time>2026-05-03T10:42:38.718Z</time></trkpt><trkpt lat="41.3089993" lon="19.5327285"><ele>41.0</ele><time>2026-05-03T10:42:39.718Z</time></trkpt><trkpt lat="41.3090773" lon="19.5326625"><ele>41.0</ele><time>2026-05-03T10:42:40.717Z</time></trkpt><trkpt lat="41.3091497" lon="19.5325992"><ele>41.0</ele><time>2026-05-03T10:42:41.717Z</time></trkpt><trkpt lat="41.3092238" lon="19.5325329"><ele>41.0</ele><time>2026-05-03T10:42:42.718Z</time></trkpt><trkpt lat="41.3093012" lon="19.5324652"><ele>41.0</ele><time>2026-05-03T10:42:43.717Z</time></trkpt><trkpt lat="41.3093817" lon="19.5323992"><ele>41.0</ele><time>2026-05-03T10:42:44.717Z</time></trkpt><trkpt lat="41.3094701" lon="19.5323271"><ele>41.0</ele><time>2026-05-03T10:42:45.718Z</time></trkpt><trkpt lat="41.3095667" lon="19.5322468"><ele>41.0</ele><time>2026-05-03T10:42:46.717Z</time></trkpt><trkpt lat="41.3096624" lon="19.5321597"><ele>41.0</ele><time>2026-05-03T10:42:47.718Z</time></trkpt><trkpt lat="41.3097624" lon="19.5320731"><ele>40.199999999999996</ele><time>2026-05-03T10:42:48.718Z</time></trkpt><trkpt lat="41.3098543" lon="19.5319928"><ele>39.4</ele><time>2026-05-03T10:42:49.717Z</time></trkpt><trkpt lat="41.3099499" lon="19.5319094"><ele>38.6</ele><time>2026-05-03T10:42:50.717Z</time></trkpt><trkpt lat="41.3100453" lon="19.5318329"><ele>37.8</ele><time>2026-05-03T10:42:51.717Z</time></trkpt><trkpt lat="41.3101252" lon="19.5317567"><ele>37.0</ele><time>2026-05-03T10:42:52.717Z</time></trkpt><trkpt lat="41.3102107" lon="19.531693"><ele>37.0</ele><time>2026-05-03T10:42:53.717Z</time></trkpt><trkpt lat="41.3102977" lon="19.5316271"><ele>37.0</ele><time>2026-05-03T10:42:54.718Z</time></trkpt><trkpt lat="41.3103828" lon="19.5315571"><ele>37.0</ele><time>2026-05-03T10:42:55.717Z</time></trkpt><trkpt lat="41.3104645" lon="19.5314921"><ele>37.0</ele><time>2026-05-03T10:42:56.717Z</time></trkpt><trkpt lat="41.3105532" lon="19.5314251"><ele>37.0</ele><time>2026-05-03T10:42:57.717Z</time></trkpt><trkpt lat="41.3106349" lon="19.5313668"><ele>37.16666666666667</ele><time>2026-05-03T10:42:58.718Z</time></trkpt><trkpt lat="41.310726" lon="19.5313282"><ele>37.333333333333336</ele><time>2026-05-03T10:42:59.717Z</time></trkpt><trkpt lat="41.3108114" lon="19.5313048"><ele>37.5</ele><time>2026-05-03T10:43:00.717Z</time></trkpt><trkpt lat="41.310895" lon="19.5313001"><ele>37.666666666666664</ele><time>2026-05-03T10:43:01.717Z</time></trkpt><trkpt lat="41.3109699" lon="19.5313045"><ele>37.83333333333333</ele><time>2026-05-03T10:43:02.718Z</time></trkpt><trkpt lat="41.3110342" lon="19.5313081"><ele>38.0</ele><time>2026-05-03T10:43:03.717Z</time></trkpt><trkpt lat="41.3111006" lon="19.5313189"><ele>38.0</ele><time>2026-05-03T10:43:04.717Z</time></trkpt><trkpt lat="41.3111683" lon="19.5313291"><ele>38.0</ele><time>2026-05-03T10:43:05.717Z</time></trkpt><trkpt lat="41.3112338" lon="19.5313342"><ele>38.0</ele><time>2026-05-03T10:43:06.717Z</time></trkpt><trkpt lat="41.3113022" lon="19.5313351"><ele>38.0</ele><time>2026-05-03T10:43:07.717Z</time></trkpt><trkpt lat="41.3113657" lon="19.5313518"><ele>38.0</ele><time>2026-05-03T10:43:08.718Z</time></trkpt><trkpt lat="41.3114312" lon="19.531374"><ele>38.0</ele><time>2026-05-03T10:43:09.717Z</time></trkpt><trkpt lat="41.3115024" lon="19.5313951"><ele>38.0</ele><time>2026-05-03T10:43:10.717Z</time></trkpt><trkpt lat="41.3115604" lon="19.5314358"><ele>36.5</ele><time>2026-05-03T10:43:11.718Z</time></trkpt><trkpt lat="41.311658" lon="19.5315452"><ele>35.0</ele><time>2026-05-03T10:43:13.718Z</time></trkpt><trkpt lat="41.3117413" lon="19.5316657"><ele>33.5</ele><time>2026-05-03T10:43:15.717Z</time></trkpt><trkpt lat="41.3118166" lon="19.5317812"><ele>32.0</ele><time>2026-05-03T10:43:17.718Z</time></trkpt><trkpt lat="41.3118797" lon="19.5318627"><ele>31.999999999999996</ele><time>2026-05-03T10:43:19.717Z</time></trkpt><trkpt lat="41.3119281" lon="19.5319343"><ele>32.0</ele><time>2026-05-03T10:43:21.717Z</time></trkpt><trkpt lat="41.3119749" lon="19.5320177"><ele>32.0</ele><time>2026-05-03T10:43:24.717Z</time></trkpt><trkpt lat="41.3120149" lon="19.5320843"><ele>32.0</ele><time>2026-05-03T10:43:26.717Z</time></trkpt><trkpt lat="41.312069" lon="19.5321704"><ele>31.999999999999996</ele><time>2026-05-03T10:43:28.718Z</time></trkpt><trkpt lat="41.3121353" lon="19.5322746"><ele>32.0</ele><time>2026-05-03T10:43:30.718Z</time></trkpt><trkpt lat="41.3122065" lon="19.5323895"><ele>31.333333333333332</ele><time>2026-05-03T10:43:32.718Z</time></trkpt><trkpt lat="41.312291" lon="19.5324819"><ele>30.666666666666664</ele><time>2026-05-03T10:43:34.717Z</time></trkpt><trkpt lat="41.3123759" lon="19.5325766"><ele>30.0</ele><time>2026-05-03T10:43:36.718Z</time></trkpt><trkpt lat="41.3124323" lon="19.5326277"><ele>29.333333333333336</ele><time>2026-05-03T10:43:37.718Z</time></trkpt><trkpt lat="41.3124913" lon="19.5326663"><ele>28.666666666666668</ele><time>2026-05-03T10:43:38.718Z</time></trkpt><trkpt lat="41.3125585" lon="19.5326895"><ele>28.0</ele><time>2026-05-03T10:43:39.718Z</time></trkpt><trkpt lat="41.3126242" lon="19.5327036"><ele>28.0</ele><time>2026-05-03T10:43:40.717Z</time></trkpt><trkpt lat="41.3126914" lon="19.5327001"><ele>27.999999999999996</ele><time>2026-05-03T10:43:41.717Z</time></trkpt><trkpt lat="41.3128091" lon="19.5327048"><ele>27.999999999999996</ele><time>2026-05-03T10:43:43.717Z</time></trkpt><trkpt lat="41.3128728" lon="19.5326983"><ele>28.0</ele><time>2026-05-03T10:43:44.717Z</time></trkpt><trkpt lat="41.312981" lon="19.5326997"><ele>28.0</ele><time>2026-05-03T10:43:46.718Z</time></trkpt><trkpt lat="41.313105" lon="19.5327016"><ele>27.666666666666668</ele><time>2026-05-03T10:43:48.717Z</time></trkpt><trkpt lat="41.3131828" lon="19.5326884"><ele>27.333333333333336</ele><time>2026-05-03T10:43:49.718Z</time></trkpt><trkpt lat="41.3132503" lon="19.5326849"><ele>27.0</ele><time>2026-05-03T10:43:50.718Z</time></trkpt><trkpt lat="41.313325" lon="19.5326777"><ele>26.666666666666664</ele><time>2026-05-03T10:43:51.718Z</time></trkpt><trkpt lat="41.3134131" lon="19.5326678"><ele>26.333333333333332</ele><time>2026-05-03T10:43:52.718Z</time></trkpt><trkpt lat="41.3134951" lon="19.5326642"><ele>26.0</ele><time>2026-05-03T10:43:53.718Z</time></trkpt><trkpt lat="41.3135785" lon="19.532662"><ele>25.999999999999996</ele><time>2026-05-03T10:43:54.717Z</time></trkpt><trkpt lat="41.3136656" lon="19.5326606"><ele>26.0</ele><time>2026-05-03T10:43:55.717Z</time></trkpt><trkpt lat="41.3137541" lon="19.5326638"><ele>26.0</ele><time>2026-05-03T10:43:56.717Z</time></trkpt><trkpt lat="41.3138408" lon="19.5326849"><ele>26.0</ele><time>2026-05-03T10:43:57.717Z</time></trkpt><trkpt lat="41.3139314" lon="19.5326963"><ele>25.999999999999996</ele><time>2026-05-03T10:43:58.718Z</time></trkpt><trkpt lat="41.3140177" lon="19.5327309"><ele>26.0</ele><time>2026-05-03T10:43:59.718Z</time></trkpt><trkpt lat="41.3140959" lon="19.5327777"><ele>25.166666666666664</ele><time>2026-05-03T10:44:00.717Z</time></trkpt><trkpt lat="41.3141666" lon="19.5328033"><ele>24.333333333333332</ele><time>2026-05-03T10:44:01.717Z</time></trkpt><trkpt lat="41.3142202" lon="19.532852"><ele>23.5</ele><time>2026-05-03T10:44:02.718Z</time></trkpt><trkpt lat="41.314287" lon="19.5329038"><ele>22.666666666666664</ele><time>2026-05-03T10:44:03.717Z</time></trkpt><trkpt lat="41.3143408" lon="19.5329511"><ele>21.833333333333332</ele><time>2026-05-03T10:44:04.717Z</time></trkpt><trkpt lat="41.3144361" lon="19.5330222"><ele>21.0</ele><time>2026-05-03T10:44:06.717Z</time></trkpt><trkpt lat="41.3145186" lon="19.5330975"><ele>21.0</ele><time>2026-05-03T10:44:08.718Z</time></trkpt><trkpt lat="41.3145992" lon="19.5331775"><ele>21.0</ele><time>2026-05-03T10:44:10.718Z</time></trkpt><trkpt lat="41.3147309" lon="19.5332713"><ele>21.0</ele><time>2026-05-03T10:44:12.718Z</time></trkpt><trkpt lat="41.3148262" lon="19.5333446"><ele>21.0</ele><time>2026-05-03T10:44:13.718Z</time></trkpt><trkpt lat="41.3149293" lon="19.5334373"><ele>20.75</ele><time>2026-05-03T10:44:14.718Z</time></trkpt><trkpt lat="41.3150468" lon="19.5335379"><ele>20.5</ele><time>2026-05-03T10:44:15.718Z</time></trkpt><trkpt lat="41.3151639" lon="19.5336443"><ele>20.25</ele><time>2026-05-03T10:44:16.717Z</time></trkpt><trkpt lat="41.3152933" lon="19.5337497"><ele>20.0</ele><time>2026-05-03T10:44:17.718Z</time></trkpt><trkpt lat="41.3154149" lon="19.5338528"><ele>20.0</ele><time>2026-05-03T10:44:18.718Z</time></trkpt><trkpt lat="41.3155225" lon="19.5339467"><ele>20.0</ele><time>2026-05-03T10:44:19.718Z</time></trkpt><trkpt lat="41.3156113" lon="19.5340326"><ele>20.0</ele><time>2026-05-03T10:44:20.717Z</time></trkpt><trkpt lat="41.3156846" lon="19.534104"><ele>20.0</ele><time>2026-05-03T10:44:21.717Z</time></trkpt><trkpt lat="41.3157454" lon="19.5341611"><ele>20.0</ele><time>2026-05-03T10:44:22.718Z</time></trkpt><trkpt lat="41.3158497" lon="19.5342437"><ele>20.0</ele><time>2026-05-03T10:44:24.718Z</time></trkpt><trkpt lat="41.3159408" lon="19.5343319"><ele>20.0</ele><time>2026-05-03T10:44:26.717Z</time></trkpt><trkpt lat="41.3159952" lon="19.5343742"><ele>20.0</ele><time>2026-05-03T10:44:27.718Z</time></trkpt><trkpt lat="41.3160541" lon="19.5344227"><ele>20.0</ele><time>2026-05-03T10:44:28.717Z</time></trkpt><trkpt lat="41.3161192" lon="19.5344779"><ele>20.0</ele><time>2026-05-03T10:44:29.717Z</time></trkpt><trkpt lat="41.3161883" lon="19.5345395"><ele>20.0</ele><time>2026-05-03T10:44:30.718Z</time></trkpt><trkpt lat="41.316257" lon="19.5346021"><ele>20.6</ele><time>2026-05-03T10:44:31.717Z</time></trkpt><trkpt lat="41.316334" lon="19.5346638"><ele>21.2</ele><time>2026-05-03T10:44:32.717Z</time></trkpt><trkpt lat="41.3164088" lon="19.5347315"><ele>21.799999999999997</ele><time>2026-05-03T10:44:33.717Z</time></trkpt><trkpt lat="41.316488" lon="19.5348005"><ele>22.4</ele><time>2026-05-03T10:44:34.718Z</time></trkpt><trkpt lat="41.3165745" lon="19.5348725"><ele>23.0</ele><time>2026-05-03T10:44:35.717Z</time></trkpt><trkpt lat="41.3166789" lon="19.5349505"><ele>23.0</ele><time>2026-05-03T10:44:36.717Z</time></trkpt><trkpt lat="41.3168017" lon="19.5350356"><ele>23.0</ele><time>2026-05-03T10:44:37.718Z</time></trkpt><trkpt lat="41.3169207" lon="19.5351417"><ele>23.0</ele><time>2026-05-03T10:44:38.718Z</time></trkpt><trkpt lat="41.3170324" lon="19.5352434"><ele>23.0</ele><time>2026-05-03T10:44:39.717Z</time></trkpt><trkpt lat="41.3171337" lon="19.5353458"><ele>23.2</ele><time>2026-05-03T10:44:40.718Z</time></trkpt><trkpt lat="41.3172333" lon="19.5354325"><ele>23.4</ele><time>2026-05-03T10:44:41.717Z</time></trkpt><trkpt lat="41.3173283" lon="19.535517"><ele>23.599999999999998</ele><time>2026-05-03T10:44:42.718Z</time></trkpt><trkpt lat="41.3174223" lon="19.5355909"><ele>23.799999999999997</ele><time>2026-05-03T10:44:43.718Z</time></trkpt><trkpt lat="41.3175024" lon="19.5356769"><ele>24.0</ele><time>2026-05-03T10:44:44.718Z</time></trkpt><trkpt lat="41.3175726" lon="19.535754"><ele>24.0</ele><time>2026-05-03T10:44:45.718Z</time></trkpt><trkpt lat="41.317638" lon="19.5358556"><ele>24.0</ele><time>2026-05-03T10:44:46.717Z</time></trkpt><trkpt lat="41.3176973" lon="19.5359617"><ele>24.0</ele><time>2026-05-03T10:44:47.717Z</time></trkpt><trkpt lat="41.317756" lon="19.5360766"><ele>24.0</ele><time>2026-05-03T10:44:48.717Z</time></trkpt><trkpt lat="41.3178107" lon="19.5361929"><ele>24.0</ele><time>2026-05-03T10:44:49.717Z</time></trkpt><trkpt lat="41.3178576" lon="19.5363024"><ele>24.6</ele><time>2026-05-03T10:44:50.717Z</time></trkpt><trkpt lat="41.3179025" lon="19.5364424"><ele>25.2</ele><time>2026-05-03T10:44:51.718Z</time></trkpt><trkpt lat="41.3179338" lon="19.5365814"><ele>25.800000000000004</ele><time>2026-05-03T10:44:52.718Z</time></trkpt><trkpt lat="41.3179609" lon="19.5367314"><ele>26.400000000000002</ele><time>2026-05-03T10:44:53.715Z</time></trkpt><trkpt lat="41.3179679" lon="19.5368762"><ele>27.0</ele><time>2026-05-03T10:44:54.717Z</time></trkpt><trkpt lat="41.3179597" lon="19.537025"><ele>26.75</ele><time>2026-05-03T10:44:55.717Z</time></trkpt><trkpt lat="41.317943" lon="19.5371648"><ele>26.5</ele><time>2026-05-03T10:44:56.718Z</time></trkpt><trkpt lat="41.3179101" lon="19.5373081"><ele>26.25</ele><time>2026-05-03T10:44:57.717Z</time></trkpt><trkpt lat="41.3178673" lon="19.5374711"><ele>26.0</ele><time>2026-05-03T10:44:58.717Z</time></trkpt><trkpt lat="41.3178165" lon="19.5376583"><ele>26.0</ele><time>2026-05-03T10:44:59.717Z</time></trkpt><trkpt lat="41.3177377" lon="19.5378746"><ele>26.0</ele><time>2026-05-03T10:45:00.717Z</time></trkpt><trkpt lat="41.3176516" lon="19.5381075"><ele>26.0</ele><time>2026-05-03T10:45:01.717Z</time></trkpt><trkpt lat="41.3175611" lon="19.5383446"><ele>26.0</ele><time>2026-05-03T10:45:02.717Z</time></trkpt><trkpt lat="41.3174692" lon="19.5385807"><ele>26.0</ele><time>2026-05-03T10:45:03.718Z</time></trkpt><trkpt lat="41.3173889" lon="19.5388038"><ele>26.0</ele><time>2026-05-03T10:45:04.717Z</time></trkpt><trkpt lat="41.3173058" lon="19.5390296"><ele>25.333333333333332</ele><time>2026-05-03T10:45:05.717Z</time></trkpt><trkpt lat="41.3172295" lon="19.5392532"><ele>24.666666666666664</ele><time>2026-05-03T10:45:06.718Z</time></trkpt><trkpt lat="41.3171564" lon="19.5394568"><ele>24.0</ele><time>2026-05-03T10:45:07.718Z</time></trkpt><trkpt lat="41.3170884" lon="19.5396543"><ele>24.0</ele><time>2026-05-03T10:45:08.718Z</time></trkpt><trkpt lat="41.3170201" lon="19.5398377"><ele>24.0</ele><time>2026-05-03T10:45:09.718Z</time></trkpt><trkpt lat="41.316944" lon="19.5400194"><ele>24.0</ele><time>2026-05-03T10:45:10.718Z</time></trkpt><trkpt lat="41.3168791" lon="19.5401888"><ele>24.0</ele><time>2026-05-03T10:45:11.717Z</time></trkpt><trkpt lat="41.3168124" lon="19.5403533"><ele>24.0</ele><time>2026-05-03T10:45:12.718Z</time></trkpt><trkpt lat="41.3167506" lon="19.5405218"><ele>24.0</ele><time>2026-05-03T10:45:13.717Z</time></trkpt><trkpt lat="41.316688" lon="19.5406727"><ele>24.0</ele><time>2026-05-03T10:45:14.718Z</time></trkpt><trkpt lat="41.3166365" lon="19.5408396"><ele>23.25</ele><time>2026-05-03T10:45:15.717Z</time></trkpt><trkpt lat="41.31658" lon="19.5410003"><ele>22.5</ele><time>2026-05-03T10:45:16.717Z</time></trkpt><trkpt lat="41.3165212" lon="19.5411581"><ele>21.75</ele><time>2026-05-03T10:45:17.718Z</time></trkpt><trkpt lat="41.3164685" lon="19.5413092"><ele>21.0</ele><time>2026-05-03T10:45:18.717Z</time></trkpt><trkpt lat="41.3164116" lon="19.5414656"><ele>21.25</ele><time>2026-05-03T10:45:19.717Z</time></trkpt><trkpt lat="41.3163573" lon="19.5416194"><ele>21.5</ele><time>2026-05-03T10:45:20.716Z</time></trkpt><trkpt lat="41.3163028" lon="19.541773"><ele>21.75</ele><time>2026-05-03T10:45:21.717Z</time></trkpt><trkpt lat="41.3162574" lon="19.5419306"><ele>22.0</ele><time>2026-05-03T10:45:22.718Z</time></trkpt><trkpt lat="41.3162029" lon="19.5420701"><ele>22.0</ele><time>2026-05-03T10:45:23.718Z</time></trkpt><trkpt lat="41.3161528" lon="19.5422048"><ele>22.0</ele><time>2026-05-03T10:45:24.718Z</time></trkpt><trkpt lat="41.3161041" lon="19.5423445"><ele>22.0</ele><time>2026-05-03T10:45:25.718Z</time></trkpt><trkpt lat="41.3160495" lon="19.5424808"><ele>22.0</ele><time>2026-05-03T10:45:26.718Z</time></trkpt><trkpt lat="41.3159976" lon="19.5426223"><ele>22.0</ele><time>2026-05-03T10:45:27.717Z</time></trkpt><trkpt lat="41.3159418" lon="19.5427576"><ele>22.0</ele><time>2026-05-03T10:45:28.717Z</time></trkpt><trkpt lat="41.3158778" lon="19.542889"><ele>22.0</ele><time>2026-05-03T10:45:29.717Z</time></trkpt><trkpt lat="41.3158162" lon="19.5430335"><ele>22.0</ele><time>2026-05-03T10:45:30.717Z</time></trkpt><trkpt lat="41.3157606" lon="19.5431715"><ele>21.75</ele><time>2026-05-03T10:45:31.717Z</time></trkpt><trkpt lat="41.3157063" lon="19.543312"><ele>21.5</ele><time>2026-05-03T10:45:32.718Z</time></trkpt><trkpt lat="41.3156479" lon="19.5434593"><ele>21.25</ele><time>2026-05-03T10:45:33.718Z</time></trkpt><trkpt lat="41.3155899" lon="19.5436158"><ele>21.0</ele><time>2026-05-03T10:45:34.718Z</time></trkpt><trkpt lat="41.3155286" lon="19.5437677"><ele>21.75</ele><time>2026-05-03T10:45:35.717Z</time></trkpt><trkpt lat="41.3154598" lon="19.5439276"><ele>22.5</ele><time>2026-05-03T10:45:36.717Z</time></trkpt><trkpt lat="41.3154007" lon="19.5440858"><ele>23.25</ele><time>2026-05-03T10:45:37.717Z</time></trkpt><trkpt lat="41.3153357" lon="19.5442331"><ele>24.0</ele><time>2026-05-03T10:45:38.718Z</time></trkpt><trkpt lat="41.3152785" lon="19.5443784"><ele>24.0</ele><time>2026-05-03T10:45:39.717Z</time></trkpt><trkpt lat="41.3152212" lon="19.5445169"><ele>24.0</ele><time>2026-05-03T10:45:40.717Z</time></trkpt><trkpt lat="41.3151696" lon="19.544648"><ele>24.0</ele><time>2026-05-03T10:45:41.718Z</time></trkpt><trkpt lat="41.3151194" lon="19.5447746"><ele>24.0</ele><time>2026-05-03T10:45:42.717Z</time></trkpt><trkpt lat="41.3150695" lon="19.544901"><ele>24.0</ele><time>2026-05-03T10:45:43.717Z</time></trkpt><trkpt lat="41.3150199" lon="19.5450253"><ele>24.0</ele><time>2026-05-03T10:45:44.718Z</time></trkpt><trkpt lat="41.314969" lon="19.5451523"><ele>24.0</ele><time>2026-05-03T10:45:45.717Z</time></trkpt><trkpt lat="41.3149215" lon="19.5452725"><ele>24.0</ele><time>2026-05-03T10:45:46.717Z</time></trkpt><trkpt lat="41.3148695" lon="19.545392"><ele>24.0</ele><time>2026-05-03T10:45:47.716Z</time></trkpt><trkpt lat="41.3148247" lon="19.5455065"><ele>24.0</ele><time>2026-05-03T10:45:48.718Z</time></trkpt><trkpt lat="41.314777" lon="19.5456189"><ele>24.4</ele><time>2026-05-03T10:45:49.718Z</time></trkpt><trkpt lat="41.3147288" lon="19.5457317"><ele>24.799999999999997</ele><time>2026-05-03T10:45:50.717Z</time></trkpt><trkpt lat="41.3146801" lon="19.545852"><ele>25.200000000000003</ele><time>2026-05-03T10:45:51.717Z</time></trkpt><trkpt lat="41.3146434" lon="19.5459916"><ele>25.6</ele><time>2026-05-03T10:45:52.717Z</time></trkpt><trkpt lat="41.3146016" lon="19.5461127"><ele>26.0</ele><time>2026-05-03T10:45:53.717Z</time></trkpt><trkpt lat="41.3145526" lon="19.5462385"><ele>26.0</ele><time>2026-05-03T10:45:54.718Z</time></trkpt><trkpt lat="41.3144973" lon="19.5463689"><ele>26.0</ele><time>2026-05-03T10:45:55.718Z</time></trkpt><trkpt lat="41.314434" lon="19.5465083"><ele>26.0</ele><time>2026-05-03T10:45:56.718Z</time></trkpt><trkpt lat="41.3143681" lon="19.5466485"><ele>26.0</ele><time>2026-05-03T10:45:57.717Z</time></trkpt><trkpt lat="41.3143039" lon="19.5467859"><ele>26.0</ele><time>2026-05-03T10:45:58.718Z</time></trkpt><trkpt lat="41.3142365" lon="19.5469157"><ele>26.0</ele><time>2026-05-03T10:45:59.718Z</time></trkpt><trkpt lat="41.3141649" lon="19.5470382"><ele>26.0</ele><time>2026-05-03T10:46:00.718Z</time></trkpt><trkpt lat="41.3140954" lon="19.5471558"><ele>26.0</ele><time>2026-05-03T10:46:01.717Z</time></trkpt><trkpt lat="41.314026" lon="19.5472726"><ele>25.5</ele><time>2026-05-03T10:46:02.718Z</time></trkpt><trkpt lat="41.3139499" lon="19.5473942"><ele>25.0</ele><time>2026-05-03T10:46:03.717Z</time></trkpt><trkpt lat="41.313875" lon="19.5475216"><ele>24.5</ele><time>2026-05-03T10:46:04.716Z</time></trkpt><trkpt lat="41.3137967" lon="19.5476403"><ele>24.0</ele><time>2026-05-03T10:46:05.717Z</time></trkpt><trkpt lat="41.3137205" lon="19.5477721"><ele>25.0</ele><time>2026-05-03T10:46:06.718Z</time></trkpt><trkpt lat="41.3136474" lon="19.5479196"><ele>26.0</ele><time>2026-05-03T10:46:07.717Z</time></trkpt><trkpt lat="41.3135791" lon="19.5480759"><ele>27.0</ele><time>2026-05-03T10:46:08.718Z</time></trkpt><trkpt lat="41.3135103" lon="19.5482284"><ele>28.0</ele><time>2026-05-03T10:46:09.718Z</time></trkpt><trkpt lat="41.3134497" lon="19.5483979"><ele>28.0</ele><time>2026-05-03T10:46:10.718Z</time></trkpt><trkpt lat="41.3133873" lon="19.5485751"><ele>28.0</ele><time>2026-05-03T10:46:11.717Z</time></trkpt><trkpt lat="41.3133265" lon="19.5487556"><ele>28.0</ele><time>2026-05-03T10:46:12.717Z</time></trkpt><trkpt lat="41.3132748" lon="19.5489506"><ele>27.666666666666668</ele><time>2026-05-03T10:46:13.716Z</time></trkpt><trkpt lat="41.3132084" lon="19.5491425"><ele>27.333333333333336</ele><time>2026-05-03T10:46:14.717Z</time></trkpt><trkpt lat="41.3131399" lon="19.5493452"><ele>27.0</ele><time>2026-05-03T10:46:15.718Z</time></trkpt><trkpt lat="41.3130722" lon="19.5495633"><ele>26.0</ele><time>2026-05-03T10:46:16.718Z</time></trkpt><trkpt lat="41.3130026" lon="19.5497897"><ele>25.0</ele><time>2026-05-03T10:46:17.718Z</time></trkpt><trkpt lat="41.3129181" lon="19.5500191"><ele>24.0</ele><time>2026-05-03T10:46:18.718Z</time></trkpt><trkpt lat="41.312833" lon="19.5502418"><ele>24.0</ele><time>2026-05-03T10:46:19.717Z</time></trkpt><trkpt lat="41.3127473" lon="19.5504626"><ele>24.0</ele><time>2026-05-03T10:46:20.717Z</time></trkpt><trkpt lat="41.3126611" lon="19.5506835"><ele>24.0</ele><time>2026-05-03T10:46:21.717Z</time></trkpt><trkpt lat="41.3125795" lon="19.550904"><ele>24.0</ele><time>2026-05-03T10:46:22.718Z</time></trkpt><trkpt lat="41.3125066" lon="19.5511286"><ele>24.0</ele><time>2026-05-03T10:46:23.716Z</time></trkpt><trkpt lat="41.3124347" lon="19.5513677"><ele>24.0</ele><time>2026-05-03T10:46:24.718Z</time></trkpt><trkpt lat="41.3123547" lon="19.5516394"><ele>24.333333333333336</ele><time>2026-05-03T10:46:25.717Z</time></trkpt><trkpt lat="41.3122622" lon="19.5519065"><ele>24.666666666666668</ele><time>2026-05-03T10:46:26.717Z</time></trkpt><trkpt lat="41.3121649" lon="19.5521534"><ele>25.0</ele><time>2026-05-03T10:46:27.718Z</time></trkpt><trkpt lat="41.312075" lon="19.552391"><ele>25.333333333333336</ele><time>2026-05-03T10:46:28.717Z</time></trkpt><trkpt lat="41.3119984" lon="19.5526073"><ele>25.666666666666664</ele><time>2026-05-03T10:46:29.717Z</time></trkpt><trkpt lat="41.31192" lon="19.5528217"><ele>26.0</ele><time>2026-05-03T10:46:30.718Z</time></trkpt><trkpt lat="41.3118441" lon="19.5530336"><ele>26.0</ele><time>2026-05-03T10:46:31.717Z</time></trkpt><trkpt lat="41.3117706" lon="19.5532405"><ele>26.0</ele><time>2026-05-03T10:46:32.718Z</time></trkpt><trkpt lat="41.3117018" lon="19.5534318"><ele>26.0</ele><time>2026-05-03T10:46:33.718Z</time></trkpt><trkpt lat="41.3116365" lon="19.5536219"><ele>25.666666666666664</ele><time>2026-05-03T10:46:34.717Z</time></trkpt><trkpt lat="41.3115738" lon="19.5538083"><ele>25.333333333333336</ele><time>2026-05-03T10:46:35.718Z</time></trkpt><trkpt lat="41.3115089" lon="19.5539943"><ele>25.0</ele><time>2026-05-03T10:46:36.718Z</time></trkpt><trkpt lat="41.3114449" lon="19.5541743"><ele>27.0</ele><time>2026-05-03T10:46:37.718Z</time></trkpt><trkpt lat="41.3113807" lon="19.5543456"><ele>29.0</ele><time>2026-05-03T10:46:38.717Z</time></trkpt><trkpt lat="41.3113333" lon="19.5545128"><ele>31.0</ele><time>2026-05-03T10:46:39.717Z</time></trkpt><trkpt lat="41.3112893" lon="19.5546696"><ele>33.0</ele><time>2026-05-03T10:46:40.718Z</time></trkpt><trkpt lat="41.311245" lon="19.5548169"><ele>33.0</ele><time>2026-05-03T10:46:41.718Z</time></trkpt><trkpt lat="41.3111759" lon="19.5549308"><ele>33.0</ele><time>2026-05-03T10:46:42.717Z</time></trkpt><trkpt lat="41.3111542" lon="19.555061"><ele>33.0</ele><time>2026-05-03T10:46:43.717Z</time></trkpt><trkpt lat="41.3111391" lon="19.5551906"><ele>33.0</ele><time>2026-05-03T10:46:44.717Z</time></trkpt><trkpt lat="41.3111319" lon="19.5553179"><ele>33.0</ele><time>2026-05-03T10:46:45.718Z</time></trkpt><trkpt lat="41.3111327" lon="19.5554487"><ele>33.0</ele><time>2026-05-03T10:46:46.717Z</time></trkpt><trkpt lat="41.3111324" lon="19.5555823"><ele>33.0</ele><time>2026-05-03T10:46:47.717Z</time></trkpt><trkpt lat="41.3111255" lon="19.5557147"><ele>33.0</ele><time>2026-05-03T10:46:48.717Z</time></trkpt><trkpt lat="41.311124" lon="19.5558551"><ele>33.0</ele><time>2026-05-03T10:46:49.718Z</time></trkpt><trkpt lat="41.3111135" lon="19.5559916"><ele>33.0</ele><time>2026-05-03T10:46:50.717Z</time></trkpt><trkpt lat="41.3111062" lon="19.5561345"><ele>32.0</ele><time>2026-05-03T10:46:51.718Z</time></trkpt><trkpt lat="41.3110987" lon="19.5562801"><ele>30.999999999999996</ele><time>2026-05-03T10:46:52.717Z</time></trkpt><trkpt lat="41.3110892" lon="19.5564246"><ele>29.999999999999996</ele><time>2026-05-03T10:46:53.718Z</time></trkpt><trkpt lat="41.3110729" lon="19.5565618"><ele>29.0</ele><time>2026-05-03T10:46:54.717Z</time></trkpt><trkpt lat="41.3110389" lon="19.5567001"><ele>28.0</ele><time>2026-05-03T10:46:55.716Z</time></trkpt><trkpt lat="41.3109836" lon="19.5568409"><ele>28.0</ele><time>2026-05-03T10:46:56.718Z</time></trkpt><trkpt lat="41.3109092" lon="19.5569797"><ele>28.0</ele><time>2026-05-03T10:46:57.718Z</time></trkpt><trkpt lat="41.3108167" lon="19.557121"><ele>28.0</ele><time>2026-05-03T10:46:58.717Z</time></trkpt><trkpt lat="41.3107288" lon="19.5572535"><ele>28.0</ele><time>2026-05-03T10:46:59.717Z</time></trkpt><trkpt lat="41.3106359" lon="19.5573776"><ele>27.5</ele><time>2026-05-03T10:47:00.717Z</time></trkpt><trkpt lat="41.3105403" lon="19.5574936"><ele>27.0</ele><time>2026-05-03T10:47:01.718Z</time></trkpt><trkpt lat="41.3104556" lon="19.5576076"><ele>26.5</ele><time>2026-05-03T10:47:02.717Z</time></trkpt><trkpt lat="41.3103698" lon="19.5577137"><ele>26.0</ele><time>2026-05-03T10:47:03.717Z</time></trkpt><trkpt lat="41.3102847" lon="19.5578224"><ele>25.75</ele><time>2026-05-03T10:47:04.717Z</time></trkpt><trkpt lat="41.3101929" lon="19.5579261"><ele>25.5</ele><time>2026-05-03T10:47:05.717Z</time></trkpt><trkpt lat="41.3100989" lon="19.5580149"><ele>25.25</ele><time>2026-05-03T10:47:06.718Z</time></trkpt><trkpt lat="41.3099956" lon="19.5581001"><ele>25.0</ele><time>2026-05-03T10:47:07.717Z</time></trkpt><trkpt lat="41.3098883" lon="19.5581782"><ele>25.0</ele><time>2026-05-03T10:47:08.717Z</time></trkpt><trkpt lat="41.3097724" lon="19.5582409"><ele>25.0</ele><time>2026-05-03T10:47:09.718Z</time></trkpt><trkpt lat="41.3096655" lon="19.5583265"><ele>25.0</ele><time>2026-05-03T10:47:10.718Z</time></trkpt><trkpt lat="41.3095528" lon="19.5583876"><ele>25.0</ele><time>2026-05-03T10:47:11.717Z</time></trkpt><trkpt lat="41.3094474" lon="19.5584489"><ele>25.0</ele><time>2026-05-03T10:47:12.718Z</time></trkpt><trkpt lat="41.3093505" lon="19.5585064"><ele>25.0</ele><time>2026-05-03T10:47:13.718Z</time></trkpt><trkpt lat="41.3092565" lon="19.5585632"><ele>25.0</ele><time>2026-05-03T10:47:14.718Z</time></trkpt><trkpt lat="41.3091613" lon="19.5586125"><ele>25.0</ele><time>2026-05-03T10:47:15.718Z</time></trkpt><trkpt lat="41.3090717" lon="19.5586621"><ele>25.0</ele><time>2026-05-03T10:47:16.717Z</time></trkpt><trkpt lat="41.3089786" lon="19.5587133"><ele>26.25</ele><time>2026-05-03T10:47:17.718Z</time></trkpt><trkpt lat="41.3088784" lon="19.5587743"><ele>27.5</ele><time>2026-05-03T10:47:18.718Z</time></trkpt><trkpt lat="41.3087751" lon="19.5588321"><ele>28.75</ele><time>2026-05-03T10:47:19.717Z</time></trkpt><trkpt lat="41.3086697" lon="19.5588979"><ele>30.0</ele><time>2026-05-03T10:47:20.718Z</time></trkpt><trkpt lat="41.3085606" lon="19.5589692"><ele>30.0</ele><time>2026-05-03T10:47:21.717Z</time></trkpt><trkpt lat="41.3084389" lon="19.5590373"><ele>30.0</ele><time>2026-05-03T10:47:22.718Z</time></trkpt><trkpt lat="41.308323" lon="19.5591106"><ele>30.0</ele><time>2026-05-03T10:47:23.718Z</time></trkpt><trkpt lat="41.3082034" lon="19.5591811"><ele>30.0</ele><time>2026-05-03T10:47:24.716Z</time></trkpt><trkpt lat="41.308077" lon="19.5592546"><ele>30.25</ele><time>2026-05-03T10:47:25.718Z</time></trkpt><trkpt lat="41.3079476" lon="19.5593342"><ele>30.5</ele><time>2026-05-03T10:47:26.718Z</time></trkpt><trkpt lat="41.3078273" lon="19.5594165"><ele>30.75</ele><time>2026-05-03T10:47:27.717Z</time></trkpt><trkpt lat="41.3076972" lon="19.5594722"><ele>31.0</ele><time>2026-05-03T10:47:28.718Z</time></trkpt><trkpt lat="41.3075844" lon="19.5595442"><ele>31.0</ele><time>2026-05-03T10:47:29.717Z</time></trkpt><trkpt lat="41.3074767" lon="19.5596131"><ele>31.0</ele><time>2026-05-03T10:47:30.718Z</time></trkpt><trkpt lat="41.3073792" lon="19.5596743"><ele>31.0</ele><time>2026-05-03T10:47:31.717Z</time></trkpt><trkpt lat="41.3072841" lon="19.5597352"><ele>31.0</ele><time>2026-05-03T10:47:32.717Z</time></trkpt><trkpt lat="41.3071822" lon="19.5598035"><ele>31.0</ele><time>2026-05-03T10:47:33.718Z</time></trkpt><trkpt lat="41.307092" lon="19.5598709"><ele>30.8</ele><time>2026-05-03T10:47:34.717Z</time></trkpt><trkpt lat="41.3070167" lon="19.5599427"><ele>30.6</ele><time>2026-05-03T10:47:35.718Z</time></trkpt><trkpt lat="41.306949" lon="19.5600386"><ele>30.4</ele><time>2026-05-03T10:47:36.718Z</time></trkpt><trkpt lat="41.3068763" lon="19.5601257"><ele>30.2</ele><time>2026-05-03T10:47:37.717Z</time></trkpt><trkpt lat="41.3068336" lon="19.5602533"><ele>30.0</ele><time>2026-05-03T10:47:38.718Z</time></trkpt><trkpt lat="41.306784" lon="19.5603611"><ele>30.2</ele><time>2026-05-03T10:47:39.718Z</time></trkpt><trkpt lat="41.3067337" lon="19.5604776"><ele>30.4</ele><time>2026-05-03T10:47:40.718Z</time></trkpt><trkpt lat="41.3066883" lon="19.560596"><ele>30.6</ele><time>2026-05-03T10:47:41.718Z</time></trkpt><trkpt lat="41.3066526" lon="19.5607148"><ele>30.8</ele><time>2026-05-03T10:47:42.718Z</time></trkpt><trkpt lat="41.3066084" lon="19.5608318"><ele>31.0</ele><time>2026-05-03T10:47:43.717Z</time></trkpt><trkpt lat="41.306571" lon="19.5609415"><ele>31.000000000000004</ele><time>2026-05-03T10:47:44.717Z</time></trkpt><trkpt lat="41.3065233" lon="19.5610197"><ele>31.0</ele><time>2026-05-03T10:47:45.717Z</time></trkpt><trkpt lat="41.3064769" lon="19.5610795"><ele>31.0</ele><time>2026-05-03T10:47:46.716Z</time></trkpt><trkpt lat="41.3063969" lon="19.5611461"><ele>31.0</ele><time>2026-05-03T10:47:48.717Z</time></trkpt><trkpt lat="41.3063391" lon="19.5611858"><ele>31.000000000000004</ele><time>2026-05-03T10:47:50.717Z</time></trkpt><trkpt lat="41.3062741" lon="19.5612161"><ele>31.0</ele><time>2026-05-03T10:49:04.716Z</time></trkpt><trkpt lat="41.3062722" lon="19.5613293"><ele>31.000000000000004</ele><time>2026-05-03T10:50:58.718Z</time></trkpt><trkpt lat="41.3063175" lon="19.561471"><ele>31.0</ele><time>2026-05-03T10:51:02.012Z</time></trkpt><trkpt lat="41.3063335" lon="19.5615718"><ele>31.0</ele><time>2026-05-03T10:51:04.712Z</time></trkpt><trkpt lat="41.3063015" lon="19.5617099"><ele>31.0</ele><time>2026-05-03T10:51:06.713Z</time></trkpt><trkpt lat="41.3062739" lon="19.5617974"><ele>31.000000000000004</ele><time>2026-05-03T10:51:07.713Z</time></trkpt><trkpt lat="41.3062415" lon="19.5618822"><ele>31.0</ele><time>2026-05-03T10:51:08.712Z</time></trkpt><trkpt lat="41.3062065" lon="19.5619776"><ele>30.833333333333336</ele><time>2026-05-03T10:51:09.713Z</time></trkpt><trkpt lat="41.3061711" lon="19.5620791"><ele>30.666666666666668</ele><time>2026-05-03T10:51:10.713Z</time></trkpt><trkpt lat="41.3061375" lon="19.562173"><ele>30.5</ele><time>2026-05-03T10:51:11.713Z</time></trkpt><trkpt lat="41.3061097" lon="19.5622552"><ele>30.333333333333336</ele><time>2026-05-03T10:51:12.712Z</time></trkpt><trkpt lat="41.306064" lon="19.5623997"><ele>30.166666666666668</ele><time>2026-05-03T10:51:14.713Z</time></trkpt><trkpt lat="41.3060693" lon="19.5625309"><ele>30.0</ele><time>2026-05-03T10:51:16.713Z</time></trkpt><trkpt lat="41.3061446" lon="19.5626063"><ele>30.0</ele><time>2026-05-03T10:51:18.713Z</time></trkpt><trkpt lat="41.306252" lon="19.562599"><ele>30.0</ele><time>2026-05-03T10:51:20.713Z</time></trkpt><trkpt lat="41.3063147" lon="19.5625725"><ele>30.0</ele><time>2026-05-03T10:51:21.713Z</time></trkpt><trkpt lat="41.3063884" lon="19.5625445"><ele>30.0</ele><time>2026-05-03T10:51:22.712Z</time></trkpt><trkpt lat="41.3064741" lon="19.5625118"><ele>30.0</ele><time>2026-05-03T10:51:23.712Z</time></trkpt><trkpt lat="41.306567" lon="19.5624785"><ele>30.0</ele><time>2026-05-03T10:51:24.713Z</time></trkpt><trkpt lat="41.3066645" lon="19.5624427"><ele>29.8</ele><time>2026-05-03T10:51:25.712Z</time></trkpt><trkpt lat="41.3067645" lon="19.5624033"><ele>29.6</ele><time>2026-05-03T10:51:26.712Z</time></trkpt><trkpt lat="41.3068671" lon="19.5623673"><ele>29.4</ele><time>2026-05-03T10:51:27.712Z</time></trkpt><trkpt lat="41.3069728" lon="19.5623332"><ele>29.2</ele><time>2026-05-03T10:51:28.712Z</time></trkpt><trkpt lat="41.307079" lon="19.5622969"><ele>29.0</ele><time>2026-05-03T10:51:29.712Z</time></trkpt><trkpt lat="41.3071846" lon="19.5622601"><ele>28.75</ele><time>2026-05-03T10:51:30.713Z</time></trkpt><trkpt lat="41.3072962" lon="19.5622243"><ele>28.5</ele><time>2026-05-03T10:51:31.713Z</time></trkpt><trkpt lat="41.3074107" lon="19.5621864"><ele>28.25</ele><time>2026-05-03T10:51:32.713Z</time></trkpt><trkpt lat="41.3075318" lon="19.5621468"><ele>28.0</ele><time>2026-05-03T10:51:33.712Z</time></trkpt><trkpt lat="41.3076562" lon="19.5621062"><ele>28.0</ele><time>2026-05-03T10:51:34.713Z</time></trkpt><trkpt lat="41.3077804" lon="19.5620657"><ele>28.0</ele><time>2026-05-03T10:51:35.713Z</time></trkpt><trkpt lat="41.3079105" lon="19.5620232"><ele>28.0</ele><time>2026-05-03T10:51:36.712Z</time></trkpt><trkpt lat="41.3080401" lon="19.5619813"><ele>28.0</ele><time>2026-05-03T10:51:37.713Z</time></trkpt><trkpt lat="41.3081685" lon="19.5619328"><ele>28.0</ele><time>2026-05-03T10:51:38.713Z</time></trkpt><trkpt lat="41.3082954" lon="19.5618911"><ele>28.0</ele><time>2026-05-03T10:51:39.712Z</time></trkpt><trkpt lat="41.3084143" lon="19.5618489"><ele>28.0</ele><time>2026-05-03T10:51:40.712Z</time></trkpt><trkpt lat="41.3085294" lon="19.5618148"><ele>28.0</ele><time>2026-05-03T10:51:41.713Z</time></trkpt><trkpt lat="41.3086382" lon="19.5617824"><ele>28.0</ele><time>2026-05-03T10:51:42.713Z</time></trkpt><trkpt lat="41.3087495" lon="19.5617551"><ele>27.999999999999996</ele><time>2026-05-03T10:51:43.713Z</time></trkpt><trkpt lat="41.3088555" lon="19.5617215"><ele>27.999999999999996</ele><time>2026-05-03T10:51:44.713Z</time></trkpt><trkpt lat="41.3089611" lon="19.5616849"><ele>28.0</ele><time>2026-05-03T10:51:45.713Z</time></trkpt><trkpt lat="41.3090673" lon="19.5616537"><ele>28.0</ele><time>2026-05-03T10:51:46.713Z</time></trkpt><trkpt lat="41.3091759" lon="19.5616159"><ele>27.75</ele><time>2026-05-03T10:51:47.712Z</time></trkpt><trkpt lat="41.3092885" lon="19.5615784"><ele>27.5</ele><time>2026-05-03T10:51:48.712Z</time></trkpt><trkpt lat="41.3094068" lon="19.5615343"><ele>27.25</ele><time>2026-05-03T10:51:49.712Z</time></trkpt><trkpt lat="41.3095285" lon="19.561492"><ele>27.0</ele><time>2026-05-03T10:51:50.713Z</time></trkpt><trkpt lat="41.3096546" lon="19.5614521"><ele>27.0</ele><time>2026-05-03T10:51:51.712Z</time></trkpt><trkpt lat="41.309781" lon="19.5614108"><ele>27.0</ele><time>2026-05-03T10:51:52.712Z</time></trkpt><trkpt lat="41.30991" lon="19.5613627"><ele>27.0</ele><time>2026-05-03T10:51:53.713Z</time></trkpt><trkpt lat="41.310038" lon="19.5613143"><ele>27.0</ele><time>2026-05-03T10:51:54.712Z</time></trkpt><trkpt lat="41.3101662" lon="19.5612666"><ele>27.0</ele><time>2026-05-03T10:51:55.713Z</time></trkpt><trkpt lat="41.3102944" lon="19.5612204"><ele>27.0</ele><time>2026-05-03T10:51:56.712Z</time></trkpt><trkpt lat="41.3104235" lon="19.5611745"><ele>27.0</ele><time>2026-05-03T10:51:57.712Z</time></trkpt><trkpt lat="41.3105524" lon="19.5611317"><ele>27.0</ele><time>2026-05-03T10:51:58.713Z</time></trkpt><trkpt lat="41.3106848" lon="19.5610891"><ele>27.0</ele><time>2026-05-03T10:51:59.712Z</time></trkpt><trkpt lat="41.3108152" lon="19.5610456"><ele>27.0</ele><time>2026-05-03T10:52:00.712Z</time></trkpt><trkpt lat="41.3109441" lon="19.5610026"><ele>27.0</ele><time>2026-05-03T10:52:01.712Z</time></trkpt><trkpt lat="41.3110815" lon="19.5609537"><ele>27.0</ele><time>2026-05-03T10:52:02.713Z</time></trkpt><trkpt lat="41.3112214" lon="19.5609037"><ele>27.0</ele><time>2026-05-03T10:52:03.712Z</time></trkpt><trkpt lat="41.3113672" lon="19.5608563"><ele>27.0</ele><time>2026-05-03T10:52:04.713Z</time></trkpt><trkpt lat="41.3115094" lon="19.5608105"><ele>27.0</ele><time>2026-05-03T10:52:05.713Z</time></trkpt><trkpt lat="41.311648" lon="19.5607566"><ele>27.0</ele><time>2026-05-03T10:52:06.713Z</time></trkpt><trkpt lat="41.3118021" lon="19.5607029"><ele>26.333333333333336</ele><time>2026-05-03T10:52:07.713Z</time></trkpt><trkpt lat="41.3119709" lon="19.5606446"><ele>25.666666666666668</ele><time>2026-05-03T10:52:08.713Z</time></trkpt><trkpt lat="41.312138" lon="19.5605842"><ele>25.0</ele><time>2026-05-03T10:52:09.712Z</time></trkpt><trkpt lat="41.3123055" lon="19.5605166"><ele>25.0</ele><time>2026-05-03T10:52:10.713Z</time></trkpt><trkpt lat="41.3124679" lon="19.5604555"><ele>25.0</ele><time>2026-05-03T10:52:11.713Z</time></trkpt><trkpt lat="41.3126248" lon="19.5603969"><ele>25.0</ele><time>2026-05-03T10:52:12.713Z</time></trkpt><trkpt lat="41.3127836" lon="19.5603488"><ele>25.0</ele><time>2026-05-03T10:52:13.713Z</time></trkpt><trkpt lat="41.3129344" lon="19.5602907"><ele>25.0</ele><time>2026-05-03T10:52:14.713Z</time></trkpt><trkpt lat="41.3130885" lon="19.5602395"><ele>25.0</ele><time>2026-05-03T10:52:15.712Z</time></trkpt><trkpt lat="41.3132436" lon="19.5601797"><ele>25.0</ele><time>2026-05-03T10:52:16.713Z</time></trkpt><trkpt lat="41.313397" lon="19.5601212"><ele>25.0</ele><time>2026-05-03T10:52:17.712Z</time></trkpt><trkpt lat="41.31355" lon="19.5600675"><ele>25.0</ele><time>2026-05-03T10:52:18.712Z</time></trkpt><trkpt lat="41.3137039" lon="19.5600193"><ele>25.0</ele><time>2026-05-03T10:52:19.713Z</time></trkpt><trkpt lat="41.3138539" lon="19.559968"><ele>25.0</ele><time>2026-05-03T10:52:20.713Z</time></trkpt><trkpt lat="41.3140009" lon="19.5599221"><ele>25.0</ele><time>2026-05-03T10:52:21.712Z</time></trkpt><trkpt lat="41.3141433" lon="19.5598692"><ele>24.5</ele><time>2026-05-03T10:52:22.713Z</time></trkpt><trkpt lat="41.3142887" lon="19.5598138"><ele>24.0</ele><time>2026-05-03T10:52:23.712Z</time></trkpt><trkpt lat="41.3144283" lon="19.5597619"><ele>23.5</ele><time>2026-05-03T10:52:24.712Z</time></trkpt><trkpt lat="41.3145679" lon="19.5596997"><ele>23.0</ele><time>2026-05-03T10:52:25.713Z</time></trkpt><trkpt lat="41.3147053" lon="19.5596174"><ele>24.0</ele><time>2026-05-03T10:52:26.712Z</time></trkpt><trkpt lat="41.3148488" lon="19.5595066"><ele>25.0</ele><time>2026-05-03T10:52:27.713Z</time></trkpt><trkpt lat="41.3149809" lon="19.5593891"><ele>26.0</ele><time>2026-05-03T10:52:28.713Z</time></trkpt><trkpt lat="41.3151126" lon="19.5592644"><ele>26.0</ele><time>2026-05-03T10:52:29.712Z</time></trkpt><trkpt lat="41.3152362" lon="19.559151"><ele>26.0</ele><time>2026-05-03T10:52:30.713Z</time></trkpt><trkpt lat="41.3153642" lon="19.559058"><ele>26.0</ele><time>2026-05-03T10:52:31.713Z</time></trkpt><trkpt lat="41.3154986" lon="19.5589673"><ele>26.0</ele><time>2026-05-03T10:52:32.712Z</time></trkpt><trkpt lat="41.3156423" lon="19.5588915"><ele>25.666666666666664</ele><time>2026-05-03T10:52:33.712Z</time></trkpt><trkpt lat="41.3157906" lon="19.5588408"><ele>25.333333333333336</ele><time>2026-05-03T10:52:34.712Z</time></trkpt><trkpt lat="41.3159424" lon="19.5587896"><ele>25.0</ele><time>2026-05-03T10:52:35.713Z</time></trkpt><trkpt lat="41.3160954" lon="19.5587361"><ele>24.0</ele><time>2026-05-03T10:52:36.712Z</time></trkpt><trkpt lat="41.3162445" lon="19.5586756"><ele>23.0</ele><time>2026-05-03T10:52:37.713Z</time></trkpt><trkpt lat="41.3163952" lon="19.5586322"><ele>22.0</ele><time>2026-05-03T10:52:38.713Z</time></trkpt><trkpt lat="41.3165484" lon="19.5585888"><ele>21.75</ele><time>2026-05-03T10:52:39.712Z</time></trkpt><trkpt lat="41.3166964" lon="19.5585432"><ele>21.5</ele><time>2026-05-03T10:52:40.713Z</time></trkpt><trkpt lat="41.3168332" lon="19.5585114"><ele>21.25</ele><time>2026-05-03T10:52:41.713Z</time></trkpt><trkpt lat="41.3169802" lon="19.5584824"><ele>21.0</ele><time>2026-05-03T10:52:42.713Z</time></trkpt><trkpt lat="41.317127" lon="19.5584707"><ele>22.666666666666664</ele><time>2026-05-03T10:52:43.713Z</time></trkpt><trkpt lat="41.3172788" lon="19.5584543"><ele>24.333333333333332</ele><time>2026-05-03T10:52:44.713Z</time></trkpt><trkpt lat="41.3174333" lon="19.5584485"><ele>26.0</ele><time>2026-05-03T10:52:45.712Z</time></trkpt><trkpt lat="41.3175864" lon="19.5584325"><ele>26.0</ele><time>2026-05-03T10:52:46.713Z</time></trkpt><trkpt lat="41.3177361" lon="19.5584435"><ele>26.0</ele><time>2026-05-03T10:52:47.712Z</time></trkpt><trkpt lat="41.3178796" lon="19.5584353"><ele>26.0</ele><time>2026-05-03T10:52:48.712Z</time></trkpt><trkpt lat="41.318023" lon="19.5584424"><ele>26.0</ele><time>2026-05-03T10:52:49.712Z</time></trkpt><trkpt lat="41.3181675" lon="19.5584533"><ele>26.25</ele><time>2026-05-03T10:52:50.713Z</time></trkpt><trkpt lat="41.3183046" lon="19.5584593"><ele>26.5</ele><time>2026-05-03T10:52:51.713Z</time></trkpt><trkpt lat="41.3184411" lon="19.5584515"><ele>26.75</ele><time>2026-05-03T10:52:52.712Z</time></trkpt><trkpt lat="41.3185725" lon="19.5584508"><ele>27.0</ele><time>2026-05-03T10:52:53.712Z</time></trkpt><trkpt lat="41.3187053" lon="19.55845"><ele>27.0</ele><time>2026-05-03T10:52:54.712Z</time></trkpt><trkpt lat="41.3188312" lon="19.5584447"><ele>27.000000000000004</ele><time>2026-05-03T10:52:55.713Z</time></trkpt><trkpt lat="41.3189533" lon="19.5584418"><ele>27.000000000000004</ele><time>2026-05-03T10:52:56.713Z</time></trkpt><trkpt lat="41.3190582" lon="19.5584403"><ele>27.0</ele><time>2026-05-03T10:52:57.712Z</time></trkpt><trkpt lat="41.3191346" lon="19.5584394"><ele>27.0</ele><time>2026-05-03T10:52:58.713Z</time></trkpt><trkpt lat="41.3191994" lon="19.5584396"><ele>26.5</ele><time>2026-05-03T10:52:59.713Z</time></trkpt><trkpt lat="41.3192631" lon="19.558433"><ele>26.0</ele><time>2026-05-03T10:53:00.712Z</time></trkpt><trkpt lat="41.3193881" lon="19.5584292"><ele>25.5</ele><time>2026-05-03T10:53:02.713Z</time></trkpt><trkpt lat="41.3194546" lon="19.5584285"><ele>25.0</ele><time>2026-05-03T10:53:03.713Z</time></trkpt><trkpt lat="41.3195326" lon="19.5584308"><ele>24.5</ele><time>2026-05-03T10:53:04.713Z</time></trkpt><trkpt lat="41.3196305" lon="19.5584306"><ele>24.0</ele><time>2026-05-03T10:53:05.712Z</time></trkpt><trkpt lat="41.3197365" lon="19.5584289"><ele>24.0</ele><time>2026-05-03T10:53:06.712Z</time></trkpt><trkpt lat="41.3198573" lon="19.5584311"><ele>24.0</ele><time>2026-05-03T10:53:07.712Z</time></trkpt><trkpt lat="41.3199856" lon="19.558431"><ele>24.0</ele><time>2026-05-03T10:53:08.713Z</time></trkpt><trkpt lat="41.320121" lon="19.5584323"><ele>24.0</ele><time>2026-05-03T10:53:09.712Z</time></trkpt><trkpt lat="41.3202548" lon="19.5584274"><ele>24.0</ele><time>2026-05-03T10:53:10.713Z</time></trkpt><trkpt lat="41.3203896" lon="19.5584151"><ele>24.0</ele><time>2026-05-03T10:53:11.713Z</time></trkpt><trkpt lat="41.3205265" lon="19.5583901"><ele>24.0</ele><time>2026-05-03T10:53:12.713Z</time></trkpt><trkpt lat="41.3206602" lon="19.5583688"><ele>24.0</ele><time>2026-05-03T10:53:13.713Z</time></trkpt><trkpt lat="41.3207913" lon="19.5583471"><ele>24.0</ele><time>2026-05-03T10:53:14.713Z</time></trkpt><trkpt lat="41.3209209" lon="19.5583297"><ele>24.0</ele><time>2026-05-03T10:53:15.713Z</time></trkpt><trkpt lat="41.3210501" lon="19.5583116"><ele>24.0</ele><time>2026-05-03T10:53:16.713Z</time></trkpt><trkpt lat="41.3211765" lon="19.5582901"><ele>24.0</ele><time>2026-05-03T10:53:17.712Z</time></trkpt><trkpt lat="41.3213009" lon="19.5582628"><ele>24.0</ele><time>2026-05-03T10:53:18.712Z</time></trkpt><trkpt lat="41.3214298" lon="19.558246"><ele>24.0</ele><time>2026-05-03T10:53:19.713Z</time></trkpt><trkpt lat="41.3215615" lon="19.5582248"><ele>24.0</ele><time>2026-05-03T10:53:20.712Z</time></trkpt><trkpt lat="41.3216969" lon="19.5582069"><ele>24.0</ele><time>2026-05-03T10:53:21.713Z</time></trkpt><trkpt lat="41.3218251" lon="19.5581991"><ele>24.0</ele><time>2026-05-03T10:53:22.713Z</time></trkpt><trkpt lat="41.3219625" lon="19.5582021"><ele>24.0</ele><time>2026-05-03T10:53:23.713Z</time></trkpt><trkpt lat="41.3220956" lon="19.5582079"><ele>24.0</ele><time>2026-05-03T10:53:24.713Z</time></trkpt><trkpt lat="41.3222312" lon="19.5582135"><ele>24.0</ele><time>2026-05-03T10:53:25.713Z</time></trkpt><trkpt lat="41.3223657" lon="19.5582286"><ele>23.5</ele><time>2026-05-03T10:53:26.713Z</time></trkpt><trkpt lat="41.3225044" lon="19.5582443"><ele>23.0</ele><time>2026-05-03T10:53:27.712Z</time></trkpt><trkpt lat="41.3226481" lon="19.558263"><ele>22.5</ele><time>2026-05-03T10:53:28.713Z</time></trkpt><trkpt lat="41.3228004" lon="19.5582921"><ele>22.0</ele><time>2026-05-03T10:53:29.712Z</time></trkpt><trkpt lat="41.3229545" lon="19.5583163"><ele>22.666666666666664</ele><time>2026-05-03T10:53:30.713Z</time></trkpt><trkpt lat="41.3231092" lon="19.5583515"><ele>23.333333333333332</ele><time>2026-05-03T10:53:31.712Z</time></trkpt><trkpt lat="41.3232724" lon="19.5583783"><ele>24.0</ele><time>2026-05-03T10:53:32.712Z</time></trkpt><trkpt lat="41.3234338" lon="19.5584237"><ele>24.0</ele><time>2026-05-03T10:53:33.713Z</time></trkpt><trkpt lat="41.3235925" lon="19.5584612"><ele>24.0</ele><time>2026-05-03T10:53:34.713Z</time></trkpt><trkpt lat="41.3237518" lon="19.558504"><ele>24.0</ele><time>2026-05-03T10:53:35.713Z</time></trkpt><trkpt lat="41.3239076" lon="19.5585415"><ele>23.333333333333332</ele><time>2026-05-03T10:53:36.713Z</time></trkpt><trkpt lat="41.3240599" lon="19.5585836"><ele>22.666666666666664</ele><time>2026-05-03T10:53:37.713Z</time></trkpt><trkpt lat="41.3242121" lon="19.5586259"><ele>22.0</ele><time>2026-05-03T10:53:38.712Z</time></trkpt><trkpt lat="41.3243519" lon="19.5586567"><ele>22.0</ele><time>2026-05-03T10:53:39.712Z</time></trkpt><trkpt lat="41.3244966" lon="19.5586913"><ele>22.0</ele><time>2026-05-03T10:53:40.713Z</time></trkpt><trkpt lat="41.3246361" lon="19.5587174"><ele>22.0</ele><time>2026-05-03T10:53:41.712Z</time></trkpt><trkpt lat="41.3247755" lon="19.5587347"><ele>22.0</ele><time>2026-05-03T10:53:42.713Z</time></trkpt><trkpt lat="41.3249197" lon="19.5587284"><ele>22.0</ele><time>2026-05-03T10:53:43.713Z</time></trkpt><trkpt lat="41.3250549" lon="19.5587185"><ele>22.0</ele><time>2026-05-03T10:53:44.712Z</time></trkpt><trkpt lat="41.3251902" lon="19.5587015"><ele>22.0</ele><time>2026-05-03T10:53:45.712Z</time></trkpt><trkpt lat="41.3253297" lon="19.5586841"><ele>22.0</ele><time>2026-05-03T10:53:46.712Z</time></trkpt><trkpt lat="41.3254615" lon="19.5586637"><ele>22.0</ele><time>2026-05-03T10:53:47.713Z</time></trkpt><trkpt lat="41.3256002" lon="19.5586341"><ele>22.0</ele><time>2026-05-03T10:53:48.713Z</time></trkpt><trkpt lat="41.3257359" lon="19.5586027"><ele>22.0</ele><time>2026-05-03T10:53:49.712Z</time></trkpt><trkpt lat="41.3258717" lon="19.5585691"><ele>22.0</ele><time>2026-05-03T10:53:50.713Z</time></trkpt><trkpt lat="41.3260091" lon="19.5585274"><ele>22.0</ele><time>2026-05-03T10:53:51.712Z</time></trkpt><trkpt lat="41.3261447" lon="19.5584823"><ele>22.0</ele><time>2026-05-03T10:53:52.712Z</time></trkpt><trkpt lat="41.3262757" lon="19.5584376"><ele>22.0</ele><time>2026-05-03T10:53:53.712Z</time></trkpt><trkpt lat="41.3264116" lon="19.5583862"><ele>22.0</ele><time>2026-05-03T10:53:54.713Z</time></trkpt><trkpt lat="41.3265481" lon="19.5583356"><ele>21.5</ele><time>2026-05-03T10:53:55.713Z</time></trkpt><trkpt lat="41.3266754" lon="19.5582775"><ele>21.0</ele><time>2026-05-03T10:53:56.712Z</time></trkpt><trkpt lat="41.3268097" lon="19.5582234"><ele>20.5</ele><time>2026-05-03T10:53:57.712Z</time></trkpt><trkpt lat="41.3269461" lon="19.5581749"><ele>20.0</ele><time>2026-05-03T10:53:58.712Z</time></trkpt><trkpt lat="41.3270818" lon="19.5581201"><ele>20.0</ele><time>2026-05-03T10:53:59.712Z</time></trkpt><trkpt lat="41.3272203" lon="19.5580558"><ele>20.0</ele><time>2026-05-03T10:54:00.712Z</time></trkpt><trkpt lat="41.3273603" lon="19.5580002"><ele>20.0</ele><time>2026-05-03T10:54:01.712Z</time></trkpt><trkpt lat="41.3275063" lon="19.5579456"><ele>20.0</ele><time>2026-05-03T10:54:02.713Z</time></trkpt><trkpt lat="41.3276555" lon="19.5578954"><ele>21.0</ele><time>2026-05-03T10:54:03.713Z</time></trkpt><trkpt lat="41.3278041" lon="19.557838"><ele>22.0</ele><time>2026-05-03T10:54:04.713Z</time></trkpt><trkpt lat="41.3279551" lon="19.557787"><ele>23.0</ele><time>2026-05-03T10:54:05.713Z</time></trkpt><trkpt lat="41.3281056" lon="19.5577353"><ele>23.0</ele><time>2026-05-03T10:54:06.712Z</time></trkpt><trkpt lat="41.32825" lon="19.5576849"><ele>23.0</ele><time>2026-05-03T10:54:07.712Z</time></trkpt><trkpt lat="41.328401" lon="19.5576229"><ele>23.0</ele><time>2026-05-03T10:54:08.713Z</time></trkpt><trkpt lat="41.32855" lon="19.557563"><ele>23.0</ele><time>2026-05-03T10:54:09.713Z</time></trkpt><trkpt lat="41.3286983" lon="19.5575117"><ele>23.0</ele><time>2026-05-03T10:54:10.712Z</time></trkpt><trkpt lat="41.3288415" lon="19.5574571"><ele>23.0</ele><time>2026-05-03T10:54:11.713Z</time></trkpt><trkpt lat="41.3289835" lon="19.5573787"><ele>22.666666666666668</ele><time>2026-05-03T10:54:12.712Z</time></trkpt><trkpt lat="41.3291262" lon="19.557277"><ele>22.333333333333332</ele><time>2026-05-03T10:54:13.713Z</time></trkpt><trkpt lat="41.3292536" lon="19.5571715"><ele>22.0</ele><time>2026-05-03T10:54:14.713Z</time></trkpt><trkpt lat="41.3293768" lon="19.5570592"><ele>22.0</ele><time>2026-05-03T10:54:15.712Z</time></trkpt><trkpt lat="41.3295053" lon="19.5569355"><ele>22.0</ele><time>2026-05-03T10:54:16.713Z</time></trkpt><trkpt lat="41.3296323" lon="19.5568154"><ele>22.0</ele><time>2026-05-03T10:54:17.713Z</time></trkpt><trkpt lat="41.329764" lon="19.556688"><ele>22.0</ele><time>2026-05-03T10:54:18.712Z</time></trkpt><trkpt lat="41.3298917" lon="19.5565581"><ele>22.0</ele><time>2026-05-03T10:54:19.712Z</time></trkpt><trkpt lat="41.330027" lon="19.5564217"><ele>22.0</ele><time>2026-05-03T10:54:20.713Z</time></trkpt><trkpt lat="41.3301648" lon="19.5562881"><ele>21.666666666666664</ele><time>2026-05-03T10:54:21.713Z</time></trkpt><trkpt lat="41.330299" lon="19.5561455"><ele>21.333333333333332</ele><time>2026-05-03T10:54:22.713Z</time></trkpt><trkpt lat="41.3304433" lon="19.5560064"><ele>21.0</ele><time>2026-05-03T10:54:23.713Z</time></trkpt><trkpt lat="41.3305923" lon="19.5558678"><ele>20.666666666666668</ele><time>2026-05-03T10:54:24.712Z</time></trkpt><trkpt lat="41.3307358" lon="19.5557198"><ele>20.333333333333336</ele><time>2026-05-03T10:54:25.713Z</time></trkpt><trkpt lat="41.3308848" lon="19.5555798"><ele>20.0</ele><time>2026-05-03T10:54:26.712Z</time></trkpt><trkpt lat="41.3310389" lon="19.555443"><ele>20.333333333333336</ele><time>2026-05-03T10:54:27.712Z</time></trkpt><trkpt lat="41.331189" lon="19.5552996"><ele>20.666666666666668</ele><time>2026-05-03T10:54:28.713Z</time></trkpt><trkpt lat="41.3313344" lon="19.5551549"><ele>21.0</ele><time>2026-05-03T10:54:29.713Z</time></trkpt><trkpt lat="41.3314791" lon="19.55502"><ele>20.333333333333332</ele><time>2026-05-03T10:54:30.712Z</time></trkpt><trkpt lat="41.3316216" lon="19.5548803"><ele>19.666666666666664</ele><time>2026-05-03T10:54:31.713Z</time></trkpt><trkpt lat="41.3317614" lon="19.5547442"><ele>19.0</ele><time>2026-05-03T10:54:32.713Z</time></trkpt><trkpt lat="41.3319025" lon="19.5546172"><ele>19.666666666666664</ele><time>2026-05-03T10:54:33.712Z</time></trkpt><trkpt lat="41.3320397" lon="19.5544844"><ele>20.333333333333332</ele><time>2026-05-03T10:54:34.713Z</time></trkpt><trkpt lat="41.332181" lon="19.5543476"><ele>21.0</ele><time>2026-05-03T10:54:35.713Z</time></trkpt><trkpt lat="41.3323135" lon="19.5542175"><ele>19.666666666666668</ele><time>2026-05-03T10:54:36.712Z</time></trkpt><trkpt lat="41.3324439" lon="19.5540791"><ele>18.333333333333336</ele><time>2026-05-03T10:54:37.712Z</time></trkpt><trkpt lat="41.3325697" lon="19.5539369"><ele>17.0</ele><time>2026-05-03T10:54:38.712Z</time></trkpt><trkpt lat="41.3326894" lon="19.5537933"><ele>17.333333333333336</ele><time>2026-05-03T10:54:39.713Z</time></trkpt><trkpt lat="41.3328077" lon="19.5536446"><ele>17.666666666666668</ele><time>2026-05-03T10:54:40.713Z</time></trkpt><trkpt lat="41.3329209" lon="19.5534954"><ele>18.0</ele><time>2026-05-03T10:54:41.712Z</time></trkpt><trkpt lat="41.333033" lon="19.5533492"><ele>19.0</ele><time>2026-05-03T10:54:42.713Z</time></trkpt><trkpt lat="41.3331487" lon="19.5531956"><ele>20.0</ele><time>2026-05-03T10:54:43.712Z</time></trkpt><trkpt lat="41.3332606" lon="19.5530325"><ele>21.0</ele><time>2026-05-03T10:54:44.713Z</time></trkpt><trkpt lat="41.3333644" lon="19.5528737"><ele>20.666666666666668</ele><time>2026-05-03T10:54:45.713Z</time></trkpt><trkpt lat="41.333472" lon="19.5527125"><ele>20.333333333333336</ele><time>2026-05-03T10:54:46.713Z</time></trkpt><trkpt lat="41.3335719" lon="19.5525576"><ele>20.0</ele><time>2026-05-03T10:54:47.712Z</time></trkpt><trkpt lat="41.3336797" lon="19.5524056"><ele>20.0</ele><time>2026-05-03T10:54:48.712Z</time></trkpt><trkpt lat="41.33379" lon="19.5522476"><ele>20.0</ele><time>2026-05-03T10:54:49.712Z</time></trkpt><trkpt lat="41.3338994" lon="19.5520805"><ele>20.0</ele><time>2026-05-03T10:54:50.712Z</time></trkpt><trkpt lat="41.3340144" lon="19.551928"><ele>19.666666666666668</ele><time>2026-05-03T10:54:51.713Z</time></trkpt><trkpt lat="41.3341282" lon="19.5517776"><ele>19.333333333333332</ele><time>2026-05-03T10:54:52.712Z</time></trkpt><trkpt lat="41.3342408" lon="19.5516344"><ele>19.0</ele><time>2026-05-03T10:54:53.712Z</time></trkpt><trkpt lat="41.3343632" lon="19.5514957"><ele>19.0</ele><time>2026-05-03T10:54:54.712Z</time></trkpt><trkpt lat="41.3344882" lon="19.5513624"><ele>19.0</ele><time>2026-05-03T10:54:55.713Z</time></trkpt><trkpt lat="41.3346097" lon="19.5512304"><ele>19.0</ele><time>2026-05-03T10:54:56.713Z</time></trkpt><trkpt lat="41.3347366" lon="19.5511055"><ele>18.75</ele><time>2026-05-03T10:54:57.713Z</time></trkpt><trkpt lat="41.334856" lon="19.5509856"><ele>18.5</ele><time>2026-05-03T10:54:58.713Z</time></trkpt><trkpt lat="41.3349808" lon="19.550873"><ele>18.25</ele><time>2026-05-03T10:54:59.712Z</time></trkpt><trkpt lat="41.3350975" lon="19.5507662"><ele>18.0</ele><time>2026-05-03T10:55:00.712Z</time></trkpt><trkpt lat="41.3352132" lon="19.5506642"><ele>18.0</ele><time>2026-05-03T10:55:01.713Z</time></trkpt><trkpt lat="41.335329" lon="19.5505689"><ele>18.0</ele><time>2026-05-03T10:55:02.713Z</time></trkpt><trkpt lat="41.3354412" lon="19.5504732"><ele>18.0</ele><time>2026-05-03T10:55:03.712Z</time></trkpt><trkpt lat="41.3355576" lon="19.5503819"><ele>18.0</ele><time>2026-05-03T10:55:04.712Z</time></trkpt><trkpt lat="41.335675" lon="19.5502866"><ele>18.5</ele><time>2026-05-03T10:55:05.713Z</time></trkpt><trkpt lat="41.3357976" lon="19.5501953"><ele>19.0</ele><time>2026-05-03T10:55:06.712Z</time></trkpt><trkpt lat="41.3359152" lon="19.5501073"><ele>19.5</ele><time>2026-05-03T10:55:07.713Z</time></trkpt><trkpt lat="41.3360294" lon="19.5500216"><ele>20.0</ele><time>2026-05-03T10:55:08.712Z</time></trkpt><trkpt lat="41.3361479" lon="19.5499477"><ele>20.0</ele><time>2026-05-03T10:55:09.713Z</time></trkpt><trkpt lat="41.3362624" lon="19.5498703"><ele>20.0</ele><time>2026-05-03T10:55:10.712Z</time></trkpt><trkpt lat="41.3363794" lon="19.5497941"><ele>20.0</ele><time>2026-05-03T10:55:11.712Z</time></trkpt><trkpt lat="41.3364947" lon="19.5497161"><ele>20.0</ele><time>2026-05-03T10:55:12.712Z</time></trkpt><trkpt lat="41.3366083" lon="19.5496477"><ele>19.5</ele><time>2026-05-03T10:55:13.713Z</time></trkpt><trkpt lat="41.3367255" lon="19.5495821"><ele>19.0</ele><time>2026-05-03T10:55:14.712Z</time></trkpt><trkpt lat="41.3368438" lon="19.549528"><ele>18.5</ele><time>2026-05-03T10:55:15.712Z</time></trkpt><trkpt lat="41.3369656" lon="19.5494685"><ele>18.0</ele><time>2026-05-03T10:55:16.713Z</time></trkpt><trkpt lat="41.3370893" lon="19.5494149"><ele>18.0</ele><time>2026-05-03T10:55:17.712Z</time></trkpt><trkpt lat="41.3372095" lon="19.5493631"><ele>18.0</ele><time>2026-05-03T10:55:18.712Z</time></trkpt><trkpt lat="41.3373307" lon="19.5493104"><ele>18.0</ele><time>2026-05-03T10:55:19.712Z</time></trkpt><trkpt lat="41.337451" lon="19.549268"><ele>18.0</ele><time>2026-05-03T10:55:20.713Z</time></trkpt><trkpt lat="41.337575" lon="19.5492268"><ele>18.0</ele><time>2026-05-03T10:55:21.712Z</time></trkpt><trkpt lat="41.3376979" lon="19.549181"><ele>18.0</ele><time>2026-05-03T10:55:22.712Z</time></trkpt><trkpt lat="41.3378186" lon="19.5491346"><ele>18.0</ele><time>2026-05-03T10:55:23.713Z</time></trkpt><trkpt lat="41.3379343" lon="19.5490912"><ele>18.0</ele><time>2026-05-03T10:55:24.713Z</time></trkpt><trkpt lat="41.3380525" lon="19.5490452"><ele>18.0</ele><time>2026-05-03T10:55:25.712Z</time></trkpt><trkpt lat="41.3381775" lon="19.5490029"><ele>18.0</ele><time>2026-05-03T10:55:26.713Z</time></trkpt><trkpt lat="41.3382992" lon="19.5489677"><ele>18.0</ele><time>2026-05-03T10:55:27.712Z</time></trkpt><trkpt lat="41.3384172" lon="19.5489357"><ele>18.0</ele><time>2026-05-03T10:55:28.713Z</time></trkpt><trkpt lat="41.3385408" lon="19.5489021"><ele>18.0</ele><time>2026-05-03T10:55:29.712Z</time></trkpt><trkpt lat="41.3386663" lon="19.5488785"><ele>18.0</ele><time>2026-05-03T10:55:30.712Z</time></trkpt><trkpt lat="41.3387871" lon="19.5488543"><ele>18.0</ele><time>2026-05-03T10:55:31.713Z</time></trkpt><trkpt lat="41.3389112" lon="19.5488208"><ele>18.0</ele><time>2026-05-03T10:55:32.713Z</time></trkpt><trkpt lat="41.3390374" lon="19.5487945"><ele>18.0</ele><time>2026-05-03T10:55:33.713Z</time></trkpt><trkpt lat="41.3391636" lon="19.548768"><ele>18.0</ele><time>2026-05-03T10:55:34.712Z</time></trkpt><trkpt lat="41.3392914" lon="19.5487305"><ele>18.0</ele><time>2026-05-03T10:55:35.713Z</time></trkpt><trkpt lat="41.3394211" lon="19.5487002"><ele>18.0</ele><time>2026-05-03T10:55:36.713Z</time></trkpt><trkpt lat="41.3395487" lon="19.5486733"><ele>18.0</ele><time>2026-05-03T10:55:37.712Z</time></trkpt><trkpt lat="41.3396742" lon="19.5486441"><ele>18.0</ele><time>2026-05-03T10:55:38.712Z</time></trkpt><trkpt lat="41.3398008" lon="19.5486163"><ele>18.0</ele><time>2026-05-03T10:55:39.713Z</time></trkpt><trkpt lat="41.3399191" lon="19.5485885"><ele>18.0</ele><time>2026-05-03T10:55:40.713Z</time></trkpt><trkpt lat="41.3400311" lon="19.5485603"><ele>18.0</ele><time>2026-05-03T10:55:41.713Z</time></trkpt><trkpt lat="41.3401499" lon="19.5485341"><ele>18.0</ele><time>2026-05-03T10:55:42.712Z</time></trkpt><trkpt lat="41.3402726" lon="19.5485071"><ele>18.0</ele><time>2026-05-03T10:55:43.712Z</time></trkpt><trkpt lat="41.3403965" lon="19.5484738"><ele>18.0</ele><time>2026-05-03T10:55:44.713Z</time></trkpt><trkpt lat="41.3405176" lon="19.5484494"><ele>18.0</ele><time>2026-05-03T10:55:45.713Z</time></trkpt><trkpt lat="41.3406398" lon="19.5484233"><ele>18.0</ele><time>2026-05-03T10:55:46.713Z</time></trkpt><trkpt lat="41.3407559" lon="19.5484006"><ele>18.0</ele><time>2026-05-03T10:55:47.713Z</time></trkpt><trkpt lat="41.3408715" lon="19.5483699"><ele>18.0</ele><time>2026-05-03T10:55:48.713Z</time></trkpt><trkpt lat="41.3409763" lon="19.5483404"><ele>18.0</ele><time>2026-05-03T10:55:49.712Z</time></trkpt><trkpt lat="41.3410737" lon="19.5483195"><ele>18.0</ele><time>2026-05-03T10:55:50.713Z</time></trkpt><trkpt lat="41.3411657" lon="19.5482813"><ele>18.0</ele><time>2026-05-03T10:55:51.713Z</time></trkpt><trkpt lat="41.3412634" lon="19.5482514"><ele>18.0</ele><time>2026-05-03T10:55:52.713Z</time></trkpt><trkpt lat="41.3413641" lon="19.5482342"><ele>18.0</ele><time>2026-05-03T10:55:53.713Z</time></trkpt><trkpt lat="41.3414708" lon="19.5482241"><ele>18.2</ele><time>2026-05-03T10:55:54.713Z</time></trkpt><trkpt lat="41.3415783" lon="19.5481952"><ele>18.4</ele><time>2026-05-03T10:55:55.713Z</time></trkpt><trkpt lat="41.3416876" lon="19.5481873"><ele>18.599999999999998</ele><time>2026-05-03T10:55:56.713Z</time></trkpt><trkpt lat="41.3417898" lon="19.5481648"><ele>18.8</ele><time>2026-05-03T10:55:57.712Z</time></trkpt><trkpt lat="41.3418851" lon="19.5481423"><ele>19.0</ele><time>2026-05-03T10:55:58.712Z</time></trkpt><trkpt lat="41.3419731" lon="19.5481399"><ele>19.0</ele><time>2026-05-03T10:55:59.713Z</time></trkpt><trkpt lat="41.3420838" lon="19.5481082"><ele>19.0</ele><time>2026-05-03T10:56:01.713Z</time></trkpt><trkpt lat="41.3421599" lon="19.5481016"><ele>19.0</ele><time>2026-05-03T10:56:04.713Z</time></trkpt><trkpt lat="41.3422305" lon="19.5480906"><ele>19.0</ele><time>2026-05-03T10:56:08.713Z</time></trkpt><trkpt lat="41.3422963" lon="19.5480811"><ele>19.0</ele><time>2026-05-03T10:56:11.712Z</time></trkpt><trkpt lat="41.3423678" lon="19.5480724"><ele>19.0</ele><time>2026-05-03T10:56:13.713Z</time></trkpt><trkpt lat="41.3424541" lon="19.5480454"><ele>18.8</ele><time>2026-05-03T10:56:15.712Z</time></trkpt><trkpt lat="41.3425525" lon="19.548016"><ele>18.599999999999998</ele><time>2026-05-03T10:56:17.713Z</time></trkpt><trkpt lat="41.3426446" lon="19.5479989"><ele>18.4</ele><time>2026-05-03T10:56:19.712Z</time></trkpt><trkpt lat="41.3427478" lon="19.54798"><ele>18.2</ele><time>2026-05-03T10:56:21.712Z</time></trkpt><trkpt lat="41.3428116" lon="19.5479602"><ele>18.0</ele><time>2026-05-03T10:56:22.713Z</time></trkpt><trkpt lat="41.342926" lon="19.547929"><ele>18.0</ele><time>2026-05-03T10:56:24.712Z</time></trkpt><trkpt lat="41.3430007" lon="19.5479239"><ele>18.0</ele><time>2026-05-03T10:56:27.712Z</time></trkpt><trkpt lat="41.343065" lon="19.547939"><ele>18.0</ele><time>2026-05-03T10:56:32.713Z</time></trkpt><trkpt lat="41.3431377" lon="19.5479637"><ele>18.0</ele><time>2026-05-03T10:56:36.713Z</time></trkpt><trkpt lat="41.3432017" lon="19.5480565"><ele>18.0</ele><time>2026-05-03T10:56:39.713Z</time></trkpt><trkpt lat="41.3432698" lon="19.5481414"><ele>18.0</ele><time>2026-05-03T10:56:41.712Z</time></trkpt><trkpt lat="41.3433675" lon="19.5481616"><ele>18.166666666666668</ele><time>2026-05-03T10:56:43.713Z</time></trkpt><trkpt lat="41.3434557" lon="19.5481691"><ele>18.333333333333332</ele><time>2026-05-03T10:56:45.713Z</time></trkpt><trkpt lat="41.3435218" lon="19.5481774"><ele>18.5</ele><time>2026-05-03T10:56:47.712Z</time></trkpt><trkpt lat="41.3435662" lon="19.5480812"><ele>18.666666666666664</ele><time>2026-05-03T11:05:18.705Z</time></trkpt><trkpt lat="41.3436768" lon="19.5480666"><ele>18.833333333333332</ele><time>2026-05-03T11:05:20.705Z</time></trkpt><trkpt lat="41.3437445" lon="19.5480778"><ele>19.0</ele><time>2026-05-03T11:05:21.705Z</time></trkpt><trkpt lat="41.3438192" lon="19.548089"><ele>19.0</ele><time>2026-05-03T11:05:22.704Z</time></trkpt><trkpt lat="41.3438999" lon="19.5480938"><ele>19.0</ele><time>2026-05-03T11:05:23.704Z</time></trkpt><trkpt lat="41.3439841" lon="19.5480898"><ele>19.0</ele><time>2026-05-03T11:05:24.705Z</time></trkpt><trkpt lat="41.3440747" lon="19.5480842"><ele>19.0</ele><time>2026-05-03T11:05:25.704Z</time></trkpt><trkpt lat="41.3441744" lon="19.5480887"><ele>19.0</ele><time>2026-05-03T11:05:26.704Z</time></trkpt><trkpt lat="41.3442662" lon="19.5480838"><ele>19.0</ele><time>2026-05-03T11:05:27.705Z</time></trkpt><trkpt lat="41.3443672" lon="19.5480778"><ele>19.0</ele><time>2026-05-03T11:05:28.705Z</time></trkpt><trkpt lat="41.3444692" lon="19.5480702"><ele>19.0</ele><time>2026-05-03T11:05:29.705Z</time></trkpt><trkpt lat="41.3445732" lon="19.5480627"><ele>19.0</ele><time>2026-05-03T11:05:30.705Z</time></trkpt><trkpt lat="41.3446788" lon="19.5480545"><ele>19.0</ele><time>2026-05-03T11:05:31.704Z</time></trkpt><trkpt lat="41.3447832" lon="19.5480464"><ele>19.0</ele><time>2026-05-03T11:05:32.705Z</time></trkpt><trkpt lat="41.3448869" lon="19.5480358"><ele>19.0</ele><time>2026-05-03T11:05:33.705Z</time></trkpt><trkpt lat="41.3449928" lon="19.5480295"><ele>19.0</ele><time>2026-05-03T11:05:34.704Z</time></trkpt><trkpt lat="41.3451009" lon="19.5480216"><ele>19.0</ele><time>2026-05-03T11:05:35.705Z</time></trkpt><trkpt lat="41.3452092" lon="19.5480098"><ele>19.0</ele><time>2026-05-03T11:05:36.705Z</time></trkpt><trkpt lat="41.3453207" lon="19.5480017"><ele>19.0</ele><time>2026-05-03T11:05:37.705Z</time></trkpt><trkpt lat="41.3454341" lon="19.5479959"><ele>18.75</ele><time>2026-05-03T11:05:38.704Z</time></trkpt><trkpt lat="41.3455496" lon="19.5479858"><ele>18.5</ele><time>2026-05-03T11:05:39.705Z</time></trkpt><trkpt lat="41.3456683" lon="19.5479758"><ele>18.25</ele><time>2026-05-03T11:05:40.705Z</time></trkpt><trkpt lat="41.3457853" lon="19.5479646"><ele>18.0</ele><time>2026-05-03T11:05:41.705Z</time></trkpt><trkpt lat="41.3459064" lon="19.5479576"><ele>18.0</ele><time>2026-05-03T11:05:42.704Z</time></trkpt><trkpt lat="41.3460266" lon="19.5479483"><ele>18.0</ele><time>2026-05-03T11:05:43.705Z</time></trkpt><trkpt lat="41.3461441" lon="19.5479359"><ele>18.0</ele><time>2026-05-03T11:05:44.704Z</time></trkpt><trkpt lat="41.3462635" lon="19.5479238"><ele>18.0</ele><time>2026-05-03T11:05:45.704Z</time></trkpt><trkpt lat="41.3463841" lon="19.5479073"><ele>18.0</ele><time>2026-05-03T11:05:46.704Z</time></trkpt><trkpt lat="41.3465042" lon="19.5478868"><ele>18.0</ele><time>2026-05-03T11:05:47.704Z</time></trkpt><trkpt lat="41.3466216" lon="19.547866"><ele>18.0</ele><time>2026-05-03T11:05:48.704Z</time></trkpt><trkpt lat="41.3467381" lon="19.5478425"><ele>18.0</ele><time>2026-05-03T11:05:49.704Z</time></trkpt><trkpt lat="41.3468553" lon="19.5478189"><ele>18.25</ele><time>2026-05-03T11:05:50.705Z</time></trkpt><trkpt lat="41.3469723" lon="19.5477921"><ele>18.5</ele><time>2026-05-03T11:05:51.705Z</time></trkpt><trkpt lat="41.3470873" lon="19.5477619"><ele>18.75</ele><time>2026-05-03T11:05:52.704Z</time></trkpt><trkpt lat="41.3472021" lon="19.5477342"><ele>19.0</ele><time>2026-05-03T11:05:53.705Z</time></trkpt><trkpt lat="41.3473181" lon="19.5477062"><ele>19.0</ele><time>2026-05-03T11:05:54.704Z</time></trkpt><trkpt lat="41.3474358" lon="19.5476764"><ele>19.0</ele><time>2026-05-03T11:05:55.704Z</time></trkpt><trkpt lat="41.3475559" lon="19.5476471"><ele>19.0</ele><time>2026-05-03T11:05:56.705Z</time></trkpt><trkpt lat="41.3476764" lon="19.5476178"><ele>19.0</ele><time>2026-05-03T11:05:57.704Z</time></trkpt><trkpt lat="41.3477961" lon="19.5475811"><ele>19.0</ele><time>2026-05-03T11:05:58.704Z</time></trkpt><trkpt lat="41.3479007" lon="19.547536"><ele>19.0</ele><time>2026-05-03T11:05:59.704Z</time></trkpt><trkpt lat="41.3480277" lon="19.5475013"><ele>19.0</ele><time>2026-05-03T11:06:00.704Z</time></trkpt><trkpt lat="41.3481496" lon="19.5474575"><ele>19.0</ele><time>2026-05-03T11:06:01.705Z</time></trkpt><trkpt lat="41.3482759" lon="19.5474141"><ele>19.0</ele><time>2026-05-03T11:06:02.705Z</time></trkpt><trkpt lat="41.3484042" lon="19.5473708"><ele>19.0</ele><time>2026-05-03T11:06:03.704Z</time></trkpt><trkpt lat="41.3485326" lon="19.5473302"><ele>19.0</ele><time>2026-05-03T11:06:04.705Z</time></trkpt><trkpt lat="41.3486621" lon="19.5472906"><ele>19.0</ele><time>2026-05-03T11:06:05.705Z</time></trkpt><trkpt lat="41.3487941" lon="19.5472536"><ele>19.0</ele><time>2026-05-03T11:06:06.705Z</time></trkpt><trkpt lat="41.3489311" lon="19.5472206"><ele>19.0</ele><time>2026-05-03T11:06:07.704Z</time></trkpt><trkpt lat="41.3490689" lon="19.5471896"><ele>19.0</ele><time>2026-05-03T11:06:08.704Z</time></trkpt><trkpt lat="41.3492096" lon="19.5471654"><ele>19.0</ele><time>2026-05-03T11:06:09.705Z</time></trkpt><trkpt lat="41.3493508" lon="19.5471473"><ele>19.0</ele><time>2026-05-03T11:06:10.705Z</time></trkpt><trkpt lat="41.3494916" lon="19.547128"><ele>19.0</ele><time>2026-05-03T11:06:11.705Z</time></trkpt><trkpt lat="41.3496323" lon="19.5471113"><ele>19.0</ele><time>2026-05-03T11:06:12.704Z</time></trkpt><trkpt lat="41.3497735" lon="19.547097"><ele>19.0</ele><time>2026-05-03T11:06:13.705Z</time></trkpt><trkpt lat="41.3499165" lon="19.5470889"><ele>19.25</ele><time>2026-05-03T11:06:14.704Z</time></trkpt><trkpt lat="41.3500588" lon="19.5470799"><ele>19.5</ele><time>2026-05-03T11:06:15.705Z</time></trkpt><trkpt lat="41.3502024" lon="19.5470764"><ele>19.75</ele><time>2026-05-03T11:06:16.704Z</time></trkpt><trkpt lat="41.3503462" lon="19.5470767"><ele>20.0</ele><time>2026-05-03T11:06:17.705Z</time></trkpt><trkpt lat="41.350492" lon="19.5470828"><ele>19.25</ele><time>2026-05-03T11:06:18.704Z</time></trkpt><trkpt lat="41.350636" lon="19.547089"><ele>18.5</ele><time>2026-05-03T11:06:19.704Z</time></trkpt><trkpt lat="41.3507802" lon="19.5470933"><ele>17.75</ele><time>2026-05-03T11:06:20.705Z</time></trkpt><trkpt lat="41.3509232" lon="19.5470958"><ele>17.0</ele><time>2026-05-03T11:06:21.704Z</time></trkpt><trkpt lat="41.3510655" lon="19.5470892"><ele>17.0</ele><time>2026-05-03T11:06:22.704Z</time></trkpt><trkpt lat="41.3512052" lon="19.5470642"><ele>17.0</ele><time>2026-05-03T11:06:23.705Z</time></trkpt><trkpt lat="41.3513404" lon="19.5470194"><ele>17.0</ele><time>2026-05-03T11:06:24.705Z</time></trkpt><trkpt lat="41.3514698" lon="19.5469595"><ele>17.0</ele><time>2026-05-03T11:06:25.704Z</time></trkpt><trkpt lat="41.3515933" lon="19.5468937"><ele>16.75</ele><time>2026-05-03T11:06:26.704Z</time></trkpt><trkpt lat="41.351715" lon="19.546824"><ele>16.5</ele><time>2026-05-03T11:06:27.704Z</time></trkpt><trkpt lat="41.3518373" lon="19.5467533"><ele>16.25</ele><time>2026-05-03T11:06:28.704Z</time></trkpt><trkpt lat="41.3519644" lon="19.5466843"><ele>16.0</ele><time>2026-05-03T11:06:29.705Z</time></trkpt><trkpt lat="41.3520935" lon="19.5466117"><ele>16.25</ele><time>2026-05-03T11:06:30.704Z</time></trkpt><trkpt lat="41.3522232" lon="19.5465406"><ele>16.5</ele><time>2026-05-03T11:06:31.705Z</time></trkpt><trkpt lat="41.3523533" lon="19.5464672"><ele>16.75</ele><time>2026-05-03T11:06:32.705Z</time></trkpt><trkpt lat="41.3524854" lon="19.5463892"><ele>17.0</ele><time>2026-05-03T11:06:33.705Z</time></trkpt><trkpt lat="41.3526185" lon="19.5463087"><ele>17.0</ele><time>2026-05-03T11:06:34.704Z</time></trkpt><trkpt lat="41.3527533" lon="19.5462285"><ele>17.0</ele><time>2026-05-03T11:06:35.705Z</time></trkpt><trkpt lat="41.3528903" lon="19.5461511"><ele>17.0</ele><time>2026-05-03T11:06:36.705Z</time></trkpt><trkpt lat="41.3530273" lon="19.5460754"><ele>17.0</ele><time>2026-05-03T11:06:37.704Z</time></trkpt><trkpt lat="41.3531629" lon="19.5459973"><ele>17.5</ele><time>2026-05-03T11:06:38.704Z</time></trkpt><trkpt lat="41.3532995" lon="19.5459172"><ele>18.0</ele><time>2026-05-03T11:06:39.704Z</time></trkpt><trkpt lat="41.3534357" lon="19.5458376"><ele>18.5</ele><time>2026-05-03T11:06:40.704Z</time></trkpt><trkpt lat="41.353571" lon="19.5457556"><ele>19.0</ele><time>2026-05-03T11:06:41.704Z</time></trkpt><trkpt lat="41.3537081" lon="19.5456717"><ele>19.0</ele><time>2026-05-03T11:06:42.704Z</time></trkpt><trkpt lat="41.3538412" lon="19.5455906"><ele>19.0</ele><time>2026-05-03T11:06:43.704Z</time></trkpt><trkpt lat="41.3539731" lon="19.5455127"><ele>19.0</ele><time>2026-05-03T11:06:44.705Z</time></trkpt><trkpt lat="41.354103" lon="19.545437"><ele>19.0</ele><time>2026-05-03T11:06:45.704Z</time></trkpt><trkpt lat="41.3542279" lon="19.5453642"><ele>17.75</ele><time>2026-05-03T11:06:46.705Z</time></trkpt><trkpt lat="41.3543455" lon="19.5453"><ele>16.5</ele><time>2026-05-03T11:06:47.704Z</time></trkpt><trkpt lat="41.3544569" lon="19.5452411"><ele>15.25</ele><time>2026-05-03T11:06:48.704Z</time></trkpt><trkpt lat="41.3545654" lon="19.5451885"><ele>14.0</ele><time>2026-05-03T11:06:49.704Z</time></trkpt><trkpt lat="41.3546765" lon="19.5451509"><ele>14.2</ele><time>2026-05-03T11:06:50.705Z</time></trkpt><trkpt lat="41.3547832" lon="19.5451299"><ele>14.399999999999999</ele><time>2026-05-03T11:06:51.705Z</time></trkpt><trkpt lat="41.3548901" lon="19.5451507"><ele>14.6</ele><time>2026-05-03T11:06:52.704Z</time></trkpt><trkpt lat="41.3549956" lon="19.5451905"><ele>14.8</ele><time>2026-05-03T11:06:53.705Z</time></trkpt><trkpt lat="41.3550973" lon="19.5452512"><ele>15.0</ele><time>2026-05-03T11:06:54.705Z</time></trkpt><trkpt lat="41.3551966" lon="19.5453198"><ele>15.25</ele><time>2026-05-03T11:06:55.705Z</time></trkpt><trkpt lat="41.3552913" lon="19.5454277"><ele>15.5</ele><time>2026-05-03T11:06:56.704Z</time></trkpt><trkpt lat="41.3553752" lon="19.5455434"><ele>15.75</ele><time>2026-05-03T11:06:57.705Z</time></trkpt><trkpt lat="41.3554545" lon="19.5456678"><ele>16.0</ele><time>2026-05-03T11:06:58.705Z</time></trkpt><trkpt lat="41.355533" lon="19.5457979"><ele>16.25</ele><time>2026-05-03T11:06:59.704Z</time></trkpt><trkpt lat="41.3556144" lon="19.5459303"><ele>16.5</ele><time>2026-05-03T11:07:00.705Z</time></trkpt><trkpt lat="41.355695" lon="19.5460665"><ele>16.75</ele><time>2026-05-03T11:07:01.705Z</time></trkpt><trkpt lat="41.3557778" lon="19.5462028"><ele>17.0</ele><time>2026-05-03T11:07:02.704Z</time></trkpt><trkpt lat="41.3558578" lon="19.5463359"><ele>17.0</ele><time>2026-05-03T11:07:03.705Z</time></trkpt><trkpt lat="41.3559384" lon="19.5464688"><ele>17.0</ele><time>2026-05-03T11:07:04.704Z</time></trkpt><trkpt lat="41.3560215" lon="19.5465927"><ele>17.0</ele><time>2026-05-03T11:07:05.705Z</time></trkpt><trkpt lat="41.3561095" lon="19.5467167"><ele>17.0</ele><time>2026-05-03T11:07:06.705Z</time></trkpt><trkpt lat="41.3562015" lon="19.546837"><ele>17.0</ele><time>2026-05-03T11:07:07.705Z</time></trkpt><trkpt lat="41.3562919" lon="19.5469586"><ele>17.0</ele><time>2026-05-03T11:07:08.705Z</time></trkpt><trkpt lat="41.3563872" lon="19.5470758"><ele>17.0</ele><time>2026-05-03T11:07:09.704Z</time></trkpt><trkpt lat="41.3564838" lon="19.5471968"><ele>17.0</ele><time>2026-05-03T11:07:10.704Z</time></trkpt><trkpt lat="41.3565853" lon="19.547312"><ele>17.0</ele><time>2026-05-03T11:07:11.705Z</time></trkpt><trkpt lat="41.3566936" lon="19.5474284"><ele>17.0</ele><time>2026-05-03T11:07:12.704Z</time></trkpt><trkpt lat="41.3568039" lon="19.5475427"><ele>17.0</ele><time>2026-05-03T11:07:13.705Z</time></trkpt><trkpt lat="41.3569178" lon="19.5476574"><ele>17.0</ele><time>2026-05-03T11:07:14.705Z</time></trkpt><trkpt lat="41.3570365" lon="19.5477677"><ele>17.0</ele><time>2026-05-03T11:07:15.705Z</time></trkpt><trkpt lat="41.3571605" lon="19.5478749"><ele>17.0</ele><time>2026-05-03T11:07:16.705Z</time></trkpt><trkpt lat="41.3572837" lon="19.5479809"><ele>17.0</ele><time>2026-05-03T11:07:17.705Z</time></trkpt><trkpt lat="41.3574101" lon="19.5480821"><ele>17.0</ele><time>2026-05-03T11:07:18.704Z</time></trkpt><trkpt lat="41.3575411" lon="19.5481779"><ele>17.0</ele><time>2026-05-03T11:07:19.705Z</time></trkpt><trkpt lat="41.3576733" lon="19.5482672"><ele>17.0</ele><time>2026-05-03T11:07:20.704Z</time></trkpt><trkpt lat="41.3578056" lon="19.5483566"><ele>17.0</ele><time>2026-05-03T11:07:21.704Z</time></trkpt><trkpt lat="41.3579391" lon="19.5484444"><ele>17.0</ele><time>2026-05-03T11:07:22.704Z</time></trkpt><trkpt lat="41.3580738" lon="19.5485241"><ele>16.75</ele><time>2026-05-03T11:07:23.705Z</time></trkpt><trkpt lat="41.3582113" lon="19.5485994"><ele>16.5</ele><time>2026-05-03T11:07:24.704Z</time></trkpt><trkpt lat="41.358349" lon="19.5486721"><ele>16.25</ele><time>2026-05-03T11:07:25.704Z</time></trkpt><trkpt lat="41.3584889" lon="19.5487388"><ele>16.0</ele><time>2026-05-03T11:07:26.705Z</time></trkpt><trkpt lat="41.3586284" lon="19.5487996"><ele>16.0</ele><time>2026-05-03T11:07:27.705Z</time></trkpt><trkpt lat="41.3587711" lon="19.5488585"><ele>16.0</ele><time>2026-05-03T11:07:28.704Z</time></trkpt><trkpt lat="41.3589153" lon="19.5489113"><ele>16.0</ele><time>2026-05-03T11:07:29.705Z</time></trkpt><trkpt lat="41.3590601" lon="19.5489622"><ele>16.0</ele><time>2026-05-03T11:07:30.704Z</time></trkpt><trkpt lat="41.3592035" lon="19.5490079"><ele>16.25</ele><time>2026-05-03T11:07:31.705Z</time></trkpt><trkpt lat="41.3593453" lon="19.5490494"><ele>16.5</ele><time>2026-05-03T11:07:32.704Z</time></trkpt><trkpt lat="41.3594865" lon="19.549088"><ele>16.75</ele><time>2026-05-03T11:07:33.705Z</time></trkpt><trkpt lat="41.3596288" lon="19.5491197"><ele>17.0</ele><time>2026-05-03T11:07:34.704Z</time></trkpt><trkpt lat="41.35977" lon="19.5491445"><ele>17.0</ele><time>2026-05-03T11:07:35.704Z</time></trkpt><trkpt lat="41.3599118" lon="19.5491646"><ele>17.0</ele><time>2026-05-03T11:07:36.705Z</time></trkpt><trkpt lat="41.3600532" lon="19.5491788"><ele>17.0</ele><time>2026-05-03T11:07:37.704Z</time></trkpt><trkpt lat="41.3601978" lon="19.5491906"><ele>17.0</ele><time>2026-05-03T11:07:38.705Z</time></trkpt><trkpt lat="41.3603418" lon="19.5491991"><ele>17.0</ele><time>2026-05-03T11:07:39.705Z</time></trkpt><trkpt lat="41.3604895" lon="19.5492012"><ele>17.0</ele><time>2026-05-03T11:07:40.705Z</time></trkpt><trkpt lat="41.3606351" lon="19.5492023"><ele>17.0</ele><time>2026-05-03T11:07:41.704Z</time></trkpt><trkpt lat="41.3607772" lon="19.5491979"><ele>17.0</ele><time>2026-05-03T11:07:42.705Z</time></trkpt><trkpt lat="41.3609244" lon="19.5491999"><ele>16.25</ele><time>2026-05-03T11:07:43.704Z</time></trkpt><trkpt lat="41.361073" lon="19.5492002"><ele>15.5</ele><time>2026-05-03T11:07:44.705Z</time></trkpt><trkpt lat="41.3612204" lon="19.5492016"><ele>14.75</ele><time>2026-05-03T11:07:45.705Z</time></trkpt><trkpt lat="41.3613668" lon="19.5492048"><ele>14.0</ele><time>2026-05-03T11:07:46.704Z</time></trkpt><trkpt lat="41.3615131" lon="19.5492057"><ele>14.0</ele><time>2026-05-03T11:07:47.704Z</time></trkpt><trkpt lat="41.3616612" lon="19.5492131"><ele>14.0</ele><time>2026-05-03T11:07:48.705Z</time></trkpt><trkpt lat="41.3618087" lon="19.5492285"><ele>14.0</ele><time>2026-05-03T11:07:49.705Z</time></trkpt><trkpt lat="41.3619504" lon="19.5492481"><ele>14.0</ele><time>2026-05-03T11:07:50.704Z</time></trkpt><trkpt lat="41.3620911" lon="19.5492617"><ele>14.5</ele><time>2026-05-03T11:07:51.705Z</time></trkpt><trkpt lat="41.362232" lon="19.5492964"><ele>15.0</ele><time>2026-05-03T11:07:52.705Z</time></trkpt><trkpt lat="41.3623678" lon="19.5493191"><ele>15.5</ele><time>2026-05-03T11:07:53.705Z</time></trkpt><trkpt lat="41.3624943" lon="19.5493365"><ele>16.0</ele><time>2026-05-03T11:07:54.704Z</time></trkpt><trkpt lat="41.3626246" lon="19.5493729"><ele>16.0</ele><time>2026-05-03T11:07:55.705Z</time></trkpt><trkpt lat="41.3627444" lon="19.5494248"><ele>16.0</ele><time>2026-05-03T11:07:56.704Z</time></trkpt><trkpt lat="41.3628595" lon="19.5494698"><ele>16.0</ele><time>2026-05-03T11:07:57.705Z</time></trkpt><trkpt lat="41.3629687" lon="19.549515"><ele>16.0</ele><time>2026-05-03T11:07:58.704Z</time></trkpt><trkpt lat="41.3630707" lon="19.5495749"><ele>16.25</ele><time>2026-05-03T11:07:59.705Z</time></trkpt><trkpt lat="41.3631672" lon="19.5496493"><ele>16.5</ele><time>2026-05-03T11:08:00.705Z</time></trkpt><trkpt lat="41.3632611" lon="19.5497266"><ele>16.75</ele><time>2026-05-03T11:08:01.704Z</time></trkpt><trkpt lat="41.3633522" lon="19.5498139"><ele>17.0</ele><time>2026-05-03T11:08:02.705Z</time></trkpt><trkpt lat="41.3634432" lon="19.5499086"><ele>17.0</ele><time>2026-05-03T11:08:03.705Z</time></trkpt><trkpt lat="41.3635296" lon="19.5500043"><ele>17.0</ele><time>2026-05-03T11:08:04.705Z</time></trkpt><trkpt lat="41.3636094" lon="19.550094"><ele>17.0</ele><time>2026-05-03T11:08:05.705Z</time></trkpt><trkpt lat="41.3636763" lon="19.550166"><ele>17.0</ele><time>2026-05-03T11:08:06.704Z</time></trkpt><trkpt lat="41.3637346" lon="19.5502365"><ele>17.0</ele><time>2026-05-03T11:08:07.705Z</time></trkpt><trkpt lat="41.3637935" lon="19.5503029"><ele>17.0</ele><time>2026-05-03T11:08:08.704Z</time></trkpt><trkpt lat="41.3638585" lon="19.550369"><ele>17.0</ele><time>2026-05-03T11:08:09.705Z</time></trkpt><trkpt lat="41.3639305" lon="19.5504423"><ele>17.0</ele><time>2026-05-03T11:08:10.705Z</time></trkpt><trkpt lat="41.3640036" lon="19.5505239"><ele>17.0</ele><time>2026-05-03T11:08:11.704Z</time></trkpt><trkpt lat="41.3640817" lon="19.5506167"><ele>17.0</ele><time>2026-05-03T11:08:12.705Z</time></trkpt><trkpt lat="41.364169" lon="19.5507157"><ele>16.75</ele><time>2026-05-03T11:08:13.704Z</time></trkpt><trkpt lat="41.3642626" lon="19.550823"><ele>16.5</ele><time>2026-05-03T11:08:14.705Z</time></trkpt><trkpt lat="41.364362" lon="19.5509274"><ele>16.25</ele><time>2026-05-03T11:08:15.705Z</time></trkpt><trkpt lat="41.3644578" lon="19.5510327"><ele>16.0</ele><time>2026-05-03T11:08:16.704Z</time></trkpt><trkpt lat="41.3645554" lon="19.5511426"><ele>16.0</ele><time>2026-05-03T11:08:17.705Z</time></trkpt><trkpt lat="41.3646575" lon="19.5512543"><ele>16.0</ele><time>2026-05-03T11:08:18.704Z</time></trkpt><trkpt lat="41.3647614" lon="19.5513725"><ele>16.0</ele><time>2026-05-03T11:08:19.705Z</time></trkpt><trkpt lat="41.3648641" lon="19.551496"><ele>16.0</ele><time>2026-05-03T11:08:20.704Z</time></trkpt><trkpt lat="41.3649642" lon="19.5516233"><ele>16.25</ele><time>2026-05-03T11:08:21.704Z</time></trkpt><trkpt lat="41.3650639" lon="19.5517608"><ele>16.5</ele><time>2026-05-03T11:08:22.705Z</time></trkpt><trkpt lat="41.3651599" lon="19.5519059"><ele>16.75</ele><time>2026-05-03T11:08:23.705Z</time></trkpt><trkpt lat="41.3652522" lon="19.5520521"><ele>17.0</ele><time>2026-05-03T11:08:24.705Z</time></trkpt><trkpt lat="41.3653347" lon="19.5521977"><ele>17.25</ele><time>2026-05-03T11:08:25.705Z</time></trkpt><trkpt lat="41.3654193" lon="19.5523561"><ele>17.5</ele><time>2026-05-03T11:08:26.704Z</time></trkpt><trkpt lat="41.3655001" lon="19.5525201"><ele>17.75</ele><time>2026-05-03T11:08:27.705Z</time></trkpt><trkpt lat="41.3655749" lon="19.5526859"><ele>18.0</ele><time>2026-05-03T11:08:28.704Z</time></trkpt><trkpt lat="41.3656503" lon="19.5528552"><ele>18.75</ele><time>2026-05-03T11:08:29.704Z</time></trkpt><trkpt lat="41.3657274" lon="19.5530223"><ele>19.5</ele><time>2026-05-03T11:08:30.704Z</time></trkpt><trkpt lat="41.365805" lon="19.5531868"><ele>20.25</ele><time>2026-05-03T11:08:31.705Z</time></trkpt><trkpt lat="41.3658784" lon="19.5533451"><ele>21.0</ele><time>2026-05-03T11:08:32.705Z</time></trkpt><trkpt lat="41.3659492" lon="19.5534979"><ele>21.0</ele><time>2026-05-03T11:08:33.705Z</time></trkpt><trkpt lat="41.366015" lon="19.5536476"><ele>21.0</ele><time>2026-05-03T11:08:34.705Z</time></trkpt><trkpt lat="41.3660742" lon="19.553792"><ele>21.0</ele><time>2026-05-03T11:08:35.705Z</time></trkpt><trkpt lat="41.3661279" lon="19.553925"><ele>21.0</ele><time>2026-05-03T11:08:36.704Z</time></trkpt><trkpt lat="41.3661796" lon="19.5540505"><ele>21.0</ele><time>2026-05-03T11:08:37.705Z</time></trkpt><trkpt lat="41.3662314" lon="19.5541766"><ele>21.0</ele><time>2026-05-03T11:08:38.704Z</time></trkpt><trkpt lat="41.3662905" lon="19.5543059"><ele>21.0</ele><time>2026-05-03T11:08:39.705Z</time></trkpt><trkpt lat="41.3663547" lon="19.5544335"><ele>21.0</ele><time>2026-05-03T11:08:40.705Z</time></trkpt><trkpt lat="41.3664227" lon="19.5545753"><ele>21.0</ele><time>2026-05-03T11:08:41.705Z</time></trkpt><trkpt lat="41.366492" lon="19.554719"><ele>21.0</ele><time>2026-05-03T11:08:42.704Z</time></trkpt><trkpt lat="41.3665611" lon="19.554874"><ele>21.0</ele><time>2026-05-03T11:08:43.705Z</time></trkpt><trkpt lat="41.3666291" lon="19.5550277"><ele>21.0</ele><time>2026-05-03T11:08:44.704Z</time></trkpt><trkpt lat="41.3666983" lon="19.5551916"><ele>21.0</ele><time>2026-05-03T11:08:45.705Z</time></trkpt><trkpt lat="41.3667693" lon="19.5553615"><ele>21.0</ele><time>2026-05-03T11:08:46.705Z</time></trkpt><trkpt lat="41.3668412" lon="19.555536"><ele>21.0</ele><time>2026-05-03T11:08:47.704Z</time></trkpt><trkpt lat="41.3669125" lon="19.555709"><ele>21.0</ele><time>2026-05-03T11:08:48.704Z</time></trkpt><trkpt lat="41.3669841" lon="19.5558886"><ele>22.333333333333336</ele><time>2026-05-03T11:08:49.705Z</time></trkpt><trkpt lat="41.3670559" lon="19.5560713"><ele>23.666666666666668</ele><time>2026-05-03T11:08:50.704Z</time></trkpt><trkpt lat="41.3671234" lon="19.5562611"><ele>25.0</ele><time>2026-05-03T11:08:51.705Z</time></trkpt><trkpt lat="41.3671919" lon="19.5564577"><ele>24.666666666666668</ele><time>2026-05-03T11:08:52.704Z</time></trkpt><trkpt lat="41.3672578" lon="19.5566539"><ele>24.333333333333336</ele><time>2026-05-03T11:08:53.704Z</time></trkpt><trkpt lat="41.3673192" lon="19.5568484"><ele>24.0</ele><time>2026-05-03T11:08:54.705Z</time></trkpt><trkpt lat="41.3673806" lon="19.557042"><ele>24.0</ele><time>2026-05-03T11:08:55.704Z</time></trkpt><trkpt lat="41.3674378" lon="19.5572387"><ele>24.0</ele><time>2026-05-03T11:08:56.704Z</time></trkpt><trkpt lat="41.3674901" lon="19.5574304"><ele>24.0</ele><time>2026-05-03T11:08:57.705Z</time></trkpt><trkpt lat="41.3675379" lon="19.5576249"><ele>24.0</ele><time>2026-05-03T11:08:58.704Z</time></trkpt><trkpt lat="41.3675836" lon="19.5578171"><ele>24.0</ele><time>2026-05-03T11:08:59.704Z</time></trkpt><trkpt lat="41.3676225" lon="19.558013"><ele>24.0</ele><time>2026-05-03T11:09:00.704Z</time></trkpt><trkpt lat="41.3676608" lon="19.5582057"><ele>25.666666666666664</ele><time>2026-05-03T11:09:01.705Z</time></trkpt><trkpt lat="41.3676984" lon="19.5583979"><ele>27.333333333333332</ele><time>2026-05-03T11:09:02.705Z</time></trkpt><trkpt lat="41.367732" lon="19.5585913"><ele>29.0</ele><time>2026-05-03T11:09:03.705Z</time></trkpt><trkpt lat="41.3677627" lon="19.5587908"><ele>29.333333333333332</ele><time>2026-05-03T11:09:04.704Z</time></trkpt><trkpt lat="41.3677961" lon="19.5589943"><ele>29.666666666666664</ele><time>2026-05-03T11:09:05.705Z</time></trkpt><trkpt lat="41.3678199" lon="19.5591944"><ele>30.0</ele><time>2026-05-03T11:09:06.705Z</time></trkpt><trkpt lat="41.3678425" lon="19.5593915"><ele>28.5</ele><time>2026-05-03T11:09:07.705Z</time></trkpt><trkpt lat="41.3678608" lon="19.5595799"><ele>27.0</ele><time>2026-05-03T11:09:08.704Z</time></trkpt><trkpt lat="41.3678787" lon="19.5597623"><ele>25.5</ele><time>2026-05-03T11:09:09.704Z</time></trkpt><trkpt lat="41.3678995" lon="19.5599401"><ele>24.0</ele><time>2026-05-03T11:09:10.705Z</time></trkpt><trkpt lat="41.3679175" lon="19.5601111"><ele>24.0</ele><time>2026-05-03T11:09:11.704Z</time></trkpt><trkpt lat="41.3679321" lon="19.5602773"><ele>24.0</ele><time>2026-05-03T11:09:12.705Z</time></trkpt><trkpt lat="41.3679197" lon="19.560451"><ele>24.0</ele><time>2026-05-03T11:09:13.704Z</time></trkpt><trkpt lat="41.367899" lon="19.5606249"><ele>24.0</ele><time>2026-05-03T11:09:14.705Z</time></trkpt><trkpt lat="41.3678713" lon="19.5608106"><ele>23.333333333333332</ele><time>2026-05-03T11:09:15.705Z</time></trkpt><trkpt lat="41.367841" lon="19.5610031"><ele>22.666666666666664</ele><time>2026-05-03T11:09:16.704Z</time></trkpt><trkpt lat="41.3678081" lon="19.5611994"><ele>22.0</ele><time>2026-05-03T11:09:17.704Z</time></trkpt><trkpt lat="41.367769" lon="19.5613962"><ele>20.666666666666664</ele><time>2026-05-03T11:09:18.705Z</time></trkpt><trkpt lat="41.3677235" lon="19.5615948"><ele>19.333333333333332</ele><time>2026-05-03T11:09:19.705Z</time></trkpt><trkpt lat="41.3676686" lon="19.561794"><ele>18.0</ele><time>2026-05-03T11:09:20.704Z</time></trkpt><trkpt lat="41.367612" lon="19.561987"><ele>17.666666666666668</ele><time>2026-05-03T11:09:21.704Z</time></trkpt><trkpt lat="41.3675524" lon="19.5621805"><ele>17.333333333333336</ele><time>2026-05-03T11:09:22.704Z</time></trkpt><trkpt lat="41.3674943" lon="19.5623787"><ele>17.0</ele><time>2026-05-03T11:09:23.705Z</time></trkpt><trkpt lat="41.3674391" lon="19.5625755"><ele>17.0</ele><time>2026-05-03T11:09:24.704Z</time></trkpt><trkpt lat="41.3673793" lon="19.5627683"><ele>17.0</ele><time>2026-05-03T11:09:25.704Z</time></trkpt><trkpt lat="41.3673178" lon="19.5629622"><ele>17.0</ele><time>2026-05-03T11:09:26.705Z</time></trkpt><trkpt lat="41.3672562" lon="19.5631575"><ele>17.0</ele><time>2026-05-03T11:09:27.705Z</time></trkpt><trkpt lat="41.3671954" lon="19.5633586"><ele>17.0</ele><time>2026-05-03T11:09:28.705Z</time></trkpt><trkpt lat="41.3671363" lon="19.5635589"><ele>17.0</ele><time>2026-05-03T11:09:29.704Z</time></trkpt><trkpt lat="41.3670714" lon="19.5637677"><ele>21.333333333333336</ele><time>2026-05-03T11:09:30.704Z</time></trkpt><trkpt lat="41.3670035" lon="19.5639755"><ele>25.666666666666668</ele><time>2026-05-03T11:09:31.705Z</time></trkpt><trkpt lat="41.3669376" lon="19.5641874"><ele>30.0</ele><time>2026-05-03T11:09:32.704Z</time></trkpt><trkpt lat="41.3668727" lon="19.5643944"><ele>27.666666666666668</ele><time>2026-05-03T11:09:33.704Z</time></trkpt><trkpt lat="41.3668114" lon="19.5646038"><ele>25.333333333333336</ele><time>2026-05-03T11:09:34.704Z</time></trkpt><trkpt lat="41.3667495" lon="19.5648115"><ele>23.0</ele><time>2026-05-03T11:09:35.705Z</time></trkpt><trkpt lat="41.3666869" lon="19.5650194"><ele>23.0</ele><time>2026-05-03T11:09:36.705Z</time></trkpt><trkpt lat="41.3666221" lon="19.5652229"><ele>23.0</ele><time>2026-05-03T11:09:37.704Z</time></trkpt><trkpt lat="41.3665567" lon="19.5654265"><ele>23.0</ele><time>2026-05-03T11:09:38.704Z</time></trkpt><trkpt lat="41.3664888" lon="19.5656321"><ele>24.0</ele><time>2026-05-03T11:09:39.705Z</time></trkpt><trkpt lat="41.3664269" lon="19.5658413"><ele>25.0</ele><time>2026-05-03T11:09:40.705Z</time></trkpt><trkpt lat="41.3663635" lon="19.5660483"><ele>26.0</ele><time>2026-05-03T11:09:41.705Z</time></trkpt><trkpt lat="41.3663007" lon="19.5662552"><ele>26.0</ele><time>2026-05-03T11:09:42.704Z</time></trkpt><trkpt lat="41.3662357" lon="19.5664629"><ele>26.0</ele><time>2026-05-03T11:09:43.705Z</time></trkpt><trkpt lat="41.3661738" lon="19.5666666"><ele>26.0</ele><time>2026-05-03T11:09:44.705Z</time></trkpt><trkpt lat="41.3661077" lon="19.5668687"><ele>24.333333333333332</ele><time>2026-05-03T11:09:45.704Z</time></trkpt><trkpt lat="41.3660465" lon="19.5670704"><ele>22.666666666666664</ele><time>2026-05-03T11:09:46.704Z</time></trkpt><trkpt lat="41.3659851" lon="19.5672699"><ele>21.0</ele><time>2026-05-03T11:09:47.705Z</time></trkpt><trkpt lat="41.3659227" lon="19.5674641"><ele>21.0</ele><time>2026-05-03T11:09:48.705Z</time></trkpt><trkpt lat="41.3658595" lon="19.5676597"><ele>21.0</ele><time>2026-05-03T11:09:49.704Z</time></trkpt><trkpt lat="41.3657957" lon="19.5678539"><ele>21.0</ele><time>2026-05-03T11:09:50.704Z</time></trkpt><trkpt lat="41.3657371" lon="19.5680492"><ele>21.0</ele><time>2026-05-03T11:09:51.704Z</time></trkpt><trkpt lat="41.3656774" lon="19.568246"><ele>21.0</ele><time>2026-05-03T11:09:52.705Z</time></trkpt><trkpt lat="41.3656188" lon="19.568441"><ele>21.0</ele><time>2026-05-03T11:09:53.704Z</time></trkpt><trkpt lat="41.3655575" lon="19.5686363"><ele>22.666666666666664</ele><time>2026-05-03T11:09:54.705Z</time></trkpt><trkpt lat="41.3654971" lon="19.5688313"><ele>24.333333333333332</ele><time>2026-05-03T11:09:55.705Z</time></trkpt><trkpt lat="41.3654386" lon="19.5690265"><ele>26.0</ele><time>2026-05-03T11:09:56.704Z</time></trkpt><trkpt lat="41.3653828" lon="19.5692209"><ele>26.0</ele><time>2026-05-03T11:09:57.705Z</time></trkpt><trkpt lat="41.3653272" lon="19.5694158"><ele>26.0</ele><time>2026-05-03T11:09:58.704Z</time></trkpt><trkpt lat="41.3652746" lon="19.5696122"><ele>26.0</ele><time>2026-05-03T11:09:59.705Z</time></trkpt><trkpt lat="41.3652215" lon="19.5698124"><ele>25.0</ele><time>2026-05-03T11:10:00.704Z</time></trkpt><trkpt lat="41.3651705" lon="19.570021"><ele>24.0</ele><time>2026-05-03T11:10:01.705Z</time></trkpt><trkpt lat="41.3651199" lon="19.5702368"><ele>23.0</ele><time>2026-05-03T11:10:02.704Z</time></trkpt><trkpt lat="41.3650732" lon="19.570457"><ele>22.0</ele><time>2026-05-03T11:10:03.705Z</time></trkpt><trkpt lat="41.3650232" lon="19.5706769"><ele>21.0</ele><time>2026-05-03T11:10:04.704Z</time></trkpt><trkpt lat="41.3649754" lon="19.5708966"><ele>20.0</ele><time>2026-05-03T11:10:05.705Z</time></trkpt><trkpt lat="41.3649317" lon="19.571119"><ele>20.333333333333336</ele><time>2026-05-03T11:10:06.705Z</time></trkpt><trkpt lat="41.3648916" lon="19.5713446"><ele>20.666666666666668</ele><time>2026-05-03T11:10:07.705Z</time></trkpt><trkpt lat="41.364854" lon="19.5715727"><ele>21.0</ele><time>2026-05-03T11:10:08.704Z</time></trkpt><trkpt lat="41.3648166" lon="19.5718005"><ele>21.0</ele><time>2026-05-03T11:10:09.705Z</time></trkpt><trkpt lat="41.3647814" lon="19.5720338"><ele>21.0</ele><time>2026-05-03T11:10:10.704Z</time></trkpt><trkpt lat="41.3647493" lon="19.5722694"><ele>21.0</ele><time>2026-05-03T11:10:11.704Z</time></trkpt><trkpt lat="41.3647201" lon="19.572504"><ele>21.0</ele><time>2026-05-03T11:10:12.704Z</time></trkpt><trkpt lat="41.3646947" lon="19.5727385"><ele>21.0</ele><time>2026-05-03T11:10:13.705Z</time></trkpt><trkpt lat="41.3646687" lon="19.5729689"><ele>21.0</ele><time>2026-05-03T11:10:14.705Z</time></trkpt><trkpt lat="41.3646432" lon="19.5731961"><ele>21.0</ele><time>2026-05-03T11:10:15.705Z</time></trkpt><trkpt lat="41.3646184" lon="19.5734215"><ele>21.0</ele><time>2026-05-03T11:10:16.705Z</time></trkpt><trkpt lat="41.3645998" lon="19.5736469"><ele>21.0</ele><time>2026-05-03T11:10:17.704Z</time></trkpt><trkpt lat="41.3645854" lon="19.5738671"><ele>21.0</ele><time>2026-05-03T11:10:18.705Z</time></trkpt><trkpt lat="41.3645708" lon="19.5740839"><ele>21.0</ele><time>2026-05-03T11:10:19.705Z</time></trkpt><trkpt lat="41.3645598" lon="19.5742995"><ele>21.0</ele><time>2026-05-03T11:10:20.704Z</time></trkpt><trkpt lat="41.3645488" lon="19.5745147"><ele>21.333333333333332</ele><time>2026-05-03T11:10:21.704Z</time></trkpt><trkpt lat="41.3645399" lon="19.5747291"><ele>21.666666666666664</ele><time>2026-05-03T11:10:22.704Z</time></trkpt><trkpt lat="41.3645339" lon="19.5749421"><ele>22.0</ele><time>2026-05-03T11:10:23.705Z</time></trkpt><trkpt lat="41.3645298" lon="19.5751556"><ele>21.666666666666664</ele><time>2026-05-03T11:10:24.705Z</time></trkpt><trkpt lat="41.3645287" lon="19.5753648"><ele>21.333333333333332</ele><time>2026-05-03T11:10:25.705Z</time></trkpt><trkpt lat="41.3645276" lon="19.5755774"><ele>21.0</ele><time>2026-05-03T11:10:26.705Z</time></trkpt><trkpt lat="41.3645272" lon="19.5757876"><ele>21.0</ele><time>2026-05-03T11:10:27.705Z</time></trkpt><trkpt lat="41.3645275" lon="19.5759914"><ele>21.0</ele><time>2026-05-03T11:10:28.704Z</time></trkpt><trkpt lat="41.3645314" lon="19.5761985"><ele>21.0</ele><time>2026-05-03T11:10:29.705Z</time></trkpt><trkpt lat="41.3645381" lon="19.5764023"><ele>21.333333333333332</ele><time>2026-05-03T11:10:30.704Z</time></trkpt><trkpt lat="41.3645427" lon="19.5766094"><ele>21.666666666666664</ele><time>2026-05-03T11:10:31.704Z</time></trkpt><trkpt lat="41.3645533" lon="19.5768164"><ele>22.0</ele><time>2026-05-03T11:10:32.704Z</time></trkpt><trkpt lat="41.364566" lon="19.57702"><ele>22.333333333333332</ele><time>2026-05-03T11:10:33.705Z</time></trkpt><trkpt lat="41.3645804" lon="19.5772254"><ele>22.666666666666668</ele><time>2026-05-03T11:10:34.705Z</time></trkpt><trkpt lat="41.3645986" lon="19.5774279"><ele>23.0</ele><time>2026-05-03T11:10:35.705Z</time></trkpt><trkpt lat="41.3646171" lon="19.57763"><ele>23.0</ele><time>2026-05-03T11:10:36.704Z</time></trkpt><trkpt lat="41.3646388" lon="19.5778364"><ele>23.0</ele><time>2026-05-03T11:10:37.705Z</time></trkpt><trkpt lat="41.3646609" lon="19.5780443"><ele>23.0</ele><time>2026-05-03T11:10:38.705Z</time></trkpt><trkpt lat="41.364683" lon="19.5782566"><ele>23.0</ele><time>2026-05-03T11:10:39.705Z</time></trkpt><trkpt lat="41.3647074" lon="19.5784692"><ele>23.0</ele><time>2026-05-03T11:10:40.705Z</time></trkpt><trkpt lat="41.3647375" lon="19.5786843"><ele>23.0</ele><time>2026-05-03T11:10:41.705Z</time></trkpt><trkpt lat="41.3647698" lon="19.5788985"><ele>23.333333333333336</ele><time>2026-05-03T11:10:42.705Z</time></trkpt><trkpt lat="41.3648061" lon="19.5791178"><ele>23.666666666666668</ele><time>2026-05-03T11:10:43.704Z</time></trkpt><trkpt lat="41.3648392" lon="19.5793369"><ele>24.0</ele><time>2026-05-03T11:10:44.705Z</time></trkpt><trkpt lat="41.3648738" lon="19.5795566"><ele>24.0</ele><time>2026-05-03T11:10:45.704Z</time></trkpt><trkpt lat="41.3649123" lon="19.5797772"><ele>24.0</ele><time>2026-05-03T11:10:46.705Z</time></trkpt><trkpt lat="41.3649527" lon="19.5800009"><ele>24.0</ele><time>2026-05-03T11:10:47.705Z</time></trkpt><trkpt lat="41.3649887" lon="19.5802292"><ele>22.666666666666668</ele><time>2026-05-03T11:10:48.704Z</time></trkpt><trkpt lat="41.3650261" lon="19.5804539"><ele>21.333333333333336</ele><time>2026-05-03T11:10:49.705Z</time></trkpt><trkpt lat="41.3650653" lon="19.5806819"><ele>20.0</ele><time>2026-05-03T11:10:50.705Z</time></trkpt><trkpt lat="41.3651075" lon="19.5809149"><ele>20.0</ele><time>2026-05-03T11:10:51.705Z</time></trkpt><trkpt lat="41.3651509" lon="19.5811518"><ele>20.0</ele><time>2026-05-03T11:10:52.704Z</time></trkpt><trkpt lat="41.3651951" lon="19.5813937"><ele>20.0</ele><time>2026-05-03T11:10:53.705Z</time></trkpt><trkpt lat="41.3652351" lon="19.5816345"><ele>20.333333333333336</ele><time>2026-05-03T11:10:54.705Z</time></trkpt><trkpt lat="41.3652768" lon="19.5818744"><ele>20.666666666666668</ele><time>2026-05-03T11:10:55.704Z</time></trkpt><trkpt lat="41.3653196" lon="19.582116"><ele>21.0</ele><time>2026-05-03T11:10:56.705Z</time></trkpt><trkpt lat="41.3653631" lon="19.582356"><ele>21.333333333333332</ele><time>2026-05-03T11:10:57.704Z</time></trkpt><trkpt lat="41.365407" lon="19.582596"><ele>21.666666666666664</ele><time>2026-05-03T11:10:58.704Z</time></trkpt><trkpt lat="41.3654509" lon="19.5828352"><ele>22.0</ele><time>2026-05-03T11:10:59.704Z</time></trkpt><trkpt lat="41.3654952" lon="19.583075"><ele>21.666666666666664</ele><time>2026-05-03T11:11:00.705Z</time></trkpt><trkpt lat="41.3655412" lon="19.5833148"><ele>21.333333333333332</ele><time>2026-05-03T11:11:01.704Z</time></trkpt><trkpt lat="41.3655829" lon="19.5835575"><ele>21.0</ele><time>2026-05-03T11:11:02.704Z</time></trkpt><trkpt lat="41.3656258" lon="19.5838041"><ele>21.0</ele><time>2026-05-03T11:11:03.704Z</time></trkpt><trkpt lat="41.3656704" lon="19.5840528"><ele>21.0</ele><time>2026-05-03T11:11:04.705Z</time></trkpt><trkpt lat="41.3657139" lon="19.5843041"><ele>21.0</ele><time>2026-05-03T11:11:05.705Z</time></trkpt><trkpt lat="41.3657597" lon="19.5845595"><ele>21.0</ele><time>2026-05-03T11:11:06.704Z</time></trkpt><trkpt lat="41.3658076" lon="19.5848158"><ele>21.0</ele><time>2026-05-03T11:11:07.705Z</time></trkpt><trkpt lat="41.3658535" lon="19.5850736"><ele>21.0</ele><time>2026-05-03T11:11:08.705Z</time></trkpt><trkpt lat="41.3659042" lon="19.5853329"><ele>21.0</ele><time>2026-05-03T11:11:09.704Z</time></trkpt><trkpt lat="41.3659477" lon="19.5855964"><ele>21.0</ele><time>2026-05-03T11:11:10.704Z</time></trkpt><trkpt lat="41.3659961" lon="19.585855"><ele>21.0</ele><time>2026-05-03T11:11:11.704Z</time></trkpt><trkpt lat="41.3660428" lon="19.5861117"><ele>21.0</ele><time>2026-05-03T11:11:12.704Z</time></trkpt><trkpt lat="41.3660872" lon="19.5863685"><ele>21.0</ele><time>2026-05-03T11:11:13.704Z</time></trkpt><trkpt lat="41.366134" lon="19.5866269"><ele>21.0</ele><time>2026-05-03T11:11:14.704Z</time></trkpt><trkpt lat="41.3661823" lon="19.5868848"><ele>21.0</ele><time>2026-05-03T11:11:15.704Z</time></trkpt><trkpt lat="41.3662288" lon="19.5871406"><ele>21.0</ele><time>2026-05-03T11:11:16.705Z</time></trkpt><trkpt lat="41.3662759" lon="19.5873999"><ele>21.0</ele><time>2026-05-03T11:11:17.704Z</time></trkpt><trkpt lat="41.3663199" lon="19.5876547"><ele>21.0</ele><time>2026-05-03T11:11:18.704Z</time></trkpt><trkpt lat="41.366366" lon="19.5879091"><ele>21.0</ele><time>2026-05-03T11:11:19.705Z</time></trkpt><trkpt lat="41.3664115" lon="19.5881662"><ele>21.0</ele><time>2026-05-03T11:11:20.704Z</time></trkpt><trkpt lat="41.3664575" lon="19.5884216"><ele>21.0</ele><time>2026-05-03T11:11:21.704Z</time></trkpt><trkpt lat="41.3665006" lon="19.5886761"><ele>21.0</ele><time>2026-05-03T11:11:22.704Z</time></trkpt><trkpt lat="41.3665444" lon="19.588925"><ele>21.0</ele><time>2026-05-03T11:11:23.705Z</time></trkpt><trkpt lat="41.366591" lon="19.5891706"><ele>21.0</ele><time>2026-05-03T11:11:24.704Z</time></trkpt><trkpt lat="41.3666349" lon="19.5894126"><ele>21.0</ele><time>2026-05-03T11:11:25.705Z</time></trkpt><trkpt lat="41.3666768" lon="19.5896537"><ele>21.0</ele><time>2026-05-03T11:11:26.704Z</time></trkpt><trkpt lat="41.3667207" lon="19.5898972"><ele>20.666666666666668</ele><time>2026-05-03T11:11:27.704Z</time></trkpt><trkpt lat="41.3667629" lon="19.5901412"><ele>20.333333333333336</ele><time>2026-05-03T11:11:28.705Z</time></trkpt><trkpt lat="41.366808" lon="19.5903834"><ele>20.0</ele><time>2026-05-03T11:11:29.704Z</time></trkpt><trkpt lat="41.3668502" lon="19.5906283"><ele>20.0</ele><time>2026-05-03T11:11:30.705Z</time></trkpt><trkpt lat="41.3668992" lon="19.5908667"><ele>20.0</ele><time>2026-05-03T11:11:31.705Z</time></trkpt><trkpt lat="41.3669477" lon="19.591103"><ele>20.0</ele><time>2026-05-03T11:11:32.705Z</time></trkpt><trkpt lat="41.3669953" lon="19.5913405"><ele>20.0</ele><time>2026-05-03T11:11:33.705Z</time></trkpt><trkpt lat="41.3670464" lon="19.5915785"><ele>20.0</ele><time>2026-05-03T11:11:34.705Z</time></trkpt><trkpt lat="41.3670939" lon="19.5918159"><ele>20.0</ele><time>2026-05-03T11:11:35.704Z</time></trkpt><trkpt lat="41.3671422" lon="19.5920545"><ele>20.0</ele><time>2026-05-03T11:11:36.705Z</time></trkpt><trkpt lat="41.3671891" lon="19.5922907"><ele>20.0</ele><time>2026-05-03T11:11:37.705Z</time></trkpt><trkpt lat="41.3672394" lon="19.5925274"><ele>20.0</ele><time>2026-05-03T11:11:38.704Z</time></trkpt><trkpt lat="41.3672912" lon="19.5927634"><ele>20.333333333333336</ele><time>2026-05-03T11:11:39.705Z</time></trkpt><trkpt lat="41.3673481" lon="19.5929985"><ele>20.666666666666668</ele><time>2026-05-03T11:11:40.704Z</time></trkpt><trkpt lat="41.3674028" lon="19.5932278"><ele>21.0</ele><time>2026-05-03T11:11:41.704Z</time></trkpt><trkpt lat="41.3674589" lon="19.5934556"><ele>20.333333333333332</ele><time>2026-05-03T11:11:42.705Z</time></trkpt><trkpt lat="41.3675159" lon="19.5936851"><ele>19.666666666666664</ele><time>2026-05-03T11:11:43.705Z</time></trkpt><trkpt lat="41.3675731" lon="19.5939143"><ele>19.0</ele><time>2026-05-03T11:11:44.704Z</time></trkpt><trkpt lat="41.3676276" lon="19.5941447"><ele>19.0</ele><time>2026-05-03T11:11:45.705Z</time></trkpt><trkpt lat="41.3676848" lon="19.5943744"><ele>19.0</ele><time>2026-05-03T11:11:46.704Z</time></trkpt><trkpt lat="41.3677458" lon="19.5946033"><ele>19.0</ele><time>2026-05-03T11:11:47.705Z</time></trkpt><trkpt lat="41.36781" lon="19.5948345"><ele>19.666666666666664</ele><time>2026-05-03T11:11:48.705Z</time></trkpt><trkpt lat="41.3678742" lon="19.5950644"><ele>20.333333333333332</ele><time>2026-05-03T11:11:49.705Z</time></trkpt><trkpt lat="41.3679378" lon="19.5952916"><ele>21.0</ele><time>2026-05-03T11:11:50.705Z</time></trkpt><trkpt lat="41.3680005" lon="19.5955224"><ele>21.0</ele><time>2026-05-03T11:11:51.704Z</time></trkpt><trkpt lat="41.3680564" lon="19.5957605"><ele>21.0</ele><time>2026-05-03T11:11:52.704Z</time></trkpt><trkpt lat="41.3681229" lon="19.5959877"><ele>21.0</ele><time>2026-05-03T11:11:53.704Z</time></trkpt><trkpt lat="41.368191" lon="19.5962141"><ele>21.0</ele><time>2026-05-03T11:11:54.704Z</time></trkpt><trkpt lat="41.3682578" lon="19.5964369"><ele>21.0</ele><time>2026-05-03T11:11:55.705Z</time></trkpt><trkpt lat="41.3683276" lon="19.5966596"><ele>21.0</ele><time>2026-05-03T11:11:56.704Z</time></trkpt><trkpt lat="41.3683951" lon="19.5968794"><ele>21.0</ele><time>2026-05-03T11:11:57.705Z</time></trkpt><trkpt lat="41.3684578" lon="19.5970963"><ele>21.0</ele><time>2026-05-03T11:11:58.705Z</time></trkpt><trkpt lat="41.3685232" lon="19.5973093"><ele>21.0</ele><time>2026-05-03T11:11:59.705Z</time></trkpt><trkpt lat="41.3685864" lon="19.5975265"><ele>21.0</ele><time>2026-05-03T11:12:00.705Z</time></trkpt><trkpt lat="41.3686532" lon="19.5977463"><ele>21.0</ele><time>2026-05-03T11:12:01.704Z</time></trkpt><trkpt lat="41.3687184" lon="19.5979633"><ele>21.0</ele><time>2026-05-03T11:12:02.704Z</time></trkpt><trkpt lat="41.3687845" lon="19.5981744"><ele>21.0</ele><time>2026-05-03T11:12:03.705Z</time></trkpt><trkpt lat="41.3688514" lon="19.5983824"><ele>21.0</ele><time>2026-05-03T11:12:04.705Z</time></trkpt><trkpt lat="41.3689171" lon="19.5985883"><ele>21.0</ele><time>2026-05-03T11:12:05.704Z</time></trkpt><trkpt lat="41.3689825" lon="19.5987935"><ele>21.0</ele><time>2026-05-03T11:12:06.704Z</time></trkpt><trkpt lat="41.3690467" lon="19.5990018"><ele>21.0</ele><time>2026-05-03T11:12:07.704Z</time></trkpt><trkpt lat="41.3691124" lon="19.599216"><ele>21.0</ele><time>2026-05-03T11:12:08.704Z</time></trkpt><trkpt lat="41.3691785" lon="19.5994329"><ele>21.666666666666668</ele><time>2026-05-03T11:12:09.705Z</time></trkpt><trkpt lat="41.369246" lon="19.5996536"><ele>22.333333333333336</ele><time>2026-05-03T11:12:10.705Z</time></trkpt><trkpt lat="41.3693095" lon="19.5998738"><ele>23.0</ele><time>2026-05-03T11:12:11.705Z</time></trkpt><trkpt lat="41.3693719" lon="19.6000911"><ele>23.0</ele><time>2026-05-03T11:12:12.705Z</time></trkpt><trkpt lat="41.3694353" lon="19.600306"><ele>23.0</ele><time>2026-05-03T11:12:13.704Z</time></trkpt><trkpt lat="41.3695015" lon="19.6005169"><ele>23.0</ele><time>2026-05-03T11:12:14.705Z</time></trkpt><trkpt lat="41.3695665" lon="19.6007269"><ele>23.666666666666668</ele><time>2026-05-03T11:12:15.705Z</time></trkpt><trkpt lat="41.3696286" lon="19.6009265"><ele>24.333333333333336</ele><time>2026-05-03T11:12:16.705Z</time></trkpt><trkpt lat="41.3696897" lon="19.6011161"><ele>25.0</ele><time>2026-05-03T11:12:17.704Z</time></trkpt><trkpt lat="41.3697469" lon="19.6012989"><ele>25.0</ele><time>2026-05-03T11:12:18.705Z</time></trkpt><trkpt lat="41.369804" lon="19.6014728"><ele>25.0</ele><time>2026-05-03T11:12:19.705Z</time></trkpt><trkpt lat="41.3698557" lon="19.6016323"><ele>25.0</ele><time>2026-05-03T11:12:20.705Z</time></trkpt><trkpt lat="41.369901" lon="19.6017774"><ele>25.0</ele><time>2026-05-03T11:12:21.705Z</time></trkpt><trkpt lat="41.3699451" lon="19.6019126"><ele>25.2</ele><time>2026-05-03T11:12:22.705Z</time></trkpt><trkpt lat="41.369983" lon="19.6020435"><ele>25.4</ele><time>2026-05-03T11:12:23.705Z</time></trkpt><trkpt lat="41.3700218" lon="19.6021776"><ele>25.6</ele><time>2026-05-03T11:12:24.704Z</time></trkpt><trkpt lat="41.3700593" lon="19.6023142"><ele>25.8</ele><time>2026-05-03T11:12:25.704Z</time></trkpt><trkpt lat="41.3701008" lon="19.6024546"><ele>26.0</ele><time>2026-05-03T11:12:26.704Z</time></trkpt><trkpt lat="41.3701455" lon="19.6025945"><ele>26.0</ele><time>2026-05-03T11:12:27.704Z</time></trkpt><trkpt lat="41.3701875" lon="19.6027249"><ele>26.0</ele><time>2026-05-03T11:12:28.705Z</time></trkpt><trkpt lat="41.370224" lon="19.6028534"><ele>26.0</ele><time>2026-05-03T11:12:29.704Z</time></trkpt><trkpt lat="41.3702617" lon="19.602981"><ele>26.0</ele><time>2026-05-03T11:12:30.704Z</time></trkpt><trkpt lat="41.3702993" lon="19.6031102"><ele>26.0</ele><time>2026-05-03T11:12:31.705Z</time></trkpt><trkpt lat="41.3703379" lon="19.6032366"><ele>26.0</ele><time>2026-05-03T11:12:32.704Z</time></trkpt><trkpt lat="41.3703732" lon="19.6033551"><ele>26.0</ele><time>2026-05-03T11:12:33.705Z</time></trkpt><trkpt lat="41.3704089" lon="19.6034673"><ele>26.0</ele><time>2026-05-03T11:12:34.704Z</time></trkpt><trkpt lat="41.3704401" lon="19.6035777"><ele>26.0</ele><time>2026-05-03T11:12:35.704Z</time></trkpt><trkpt lat="41.3704719" lon="19.6036844"><ele>26.0</ele><time>2026-05-03T11:12:36.704Z</time></trkpt><trkpt lat="41.3705066" lon="19.6037939"><ele>25.833333333333332</ele><time>2026-05-03T11:12:37.704Z</time></trkpt><trkpt lat="41.3705403" lon="19.6039032"><ele>25.666666666666664</ele><time>2026-05-03T11:12:38.705Z</time></trkpt><trkpt lat="41.3705744" lon="19.6040086"><ele>25.5</ele><time>2026-05-03T11:12:39.704Z</time></trkpt><trkpt lat="41.3706023" lon="19.6041172"><ele>25.333333333333336</ele><time>2026-05-03T11:12:40.704Z</time></trkpt><trkpt lat="41.3706307" lon="19.6042146"><ele>25.166666666666668</ele><time>2026-05-03T11:12:41.705Z</time></trkpt><trkpt lat="41.3706647" lon="19.6043111"><ele>25.0</ele><time>2026-05-03T11:12:42.704Z</time></trkpt><trkpt lat="41.3706986" lon="19.604413"><ele>25.6</ele><time>2026-05-03T11:12:43.705Z</time></trkpt><trkpt lat="41.3707301" lon="19.6045226"><ele>26.2</ele><time>2026-05-03T11:12:44.705Z</time></trkpt><trkpt lat="41.3707681" lon="19.6046399"><ele>26.799999999999997</ele><time>2026-05-03T11:12:45.705Z</time></trkpt><trkpt lat="41.3707989" lon="19.6047566"><ele>27.4</ele><time>2026-05-03T11:12:46.705Z</time></trkpt><trkpt lat="41.3708363" lon="19.6048753"><ele>28.0</ele><time>2026-05-03T11:12:47.704Z</time></trkpt><trkpt lat="41.3708652" lon="19.6049973"><ele>28.000000000000004</ele><time>2026-05-03T11:12:48.705Z</time></trkpt><trkpt lat="41.3708935" lon="19.6050978"><ele>28.0</ele><time>2026-05-03T11:12:49.704Z</time></trkpt><trkpt lat="41.3709303" lon="19.6052258"><ele>28.0</ele><time>2026-05-03T11:12:51.705Z</time></trkpt><trkpt lat="41.3709534" lon="19.6053332"><ele>28.0</ele><time>2026-05-03T11:12:55.705Z</time></trkpt><trkpt lat="41.3709693" lon="19.6054224"><ele>28.000000000000004</ele><time>2026-05-03T11:12:57.704Z</time></trkpt><trkpt lat="41.3709801" lon="19.6055565"><ele>28.0</ele><time>2026-05-03T11:12:59.705Z</time></trkpt><trkpt lat="41.3709846" lon="19.6057329"><ele>28.333333333333336</ele><time>2026-05-03T11:13:01.704Z</time></trkpt><trkpt lat="41.3709835" lon="19.605834"><ele>28.666666666666668</ele><time>2026-05-03T11:13:02.705Z</time></trkpt><trkpt lat="41.3709799" lon="19.6059391"><ele>29.0</ele><time>2026-05-03T11:13:03.705Z</time></trkpt><trkpt lat="41.3709845" lon="19.6060416"><ele>29.333333333333336</ele><time>2026-05-03T11:13:04.704Z</time></trkpt><trkpt lat="41.3709872" lon="19.6061309"><ele>29.666666666666668</ele><time>2026-05-03T11:13:05.704Z</time></trkpt><trkpt lat="41.3709915" lon="19.6062699"><ele>30.0</ele><time>2026-05-03T11:13:07.704Z</time></trkpt><trkpt lat="41.3709973" lon="19.6063581"><ele>30.0</ele><time>2026-05-03T11:13:10.705Z</time></trkpt><trkpt lat="41.371012" lon="19.6064965"><ele>30.0</ele><time>2026-05-03T11:13:12.705Z</time></trkpt><trkpt lat="41.3710144" lon="19.6066001"><ele>30.0</ele><time>2026-05-03T11:13:13.705Z</time></trkpt><trkpt lat="41.3710184" lon="19.6067102"><ele>30.0</ele><time>2026-05-03T11:13:14.704Z</time></trkpt><trkpt lat="41.3710305" lon="19.6068375"><ele>30.0</ele><time>2026-05-03T11:13:15.705Z</time></trkpt><trkpt lat="41.3710521" lon="19.6069752"><ele>29.5</ele><time>2026-05-03T11:13:16.705Z</time></trkpt><trkpt lat="41.3710779" lon="19.6071315"><ele>29.0</ele><time>2026-05-03T11:13:17.704Z</time></trkpt><trkpt lat="41.3711067" lon="19.607291"><ele>28.5</ele><time>2026-05-03T11:13:18.704Z</time></trkpt><trkpt lat="41.371138" lon="19.6074652"><ele>28.0</ele><time>2026-05-03T11:13:19.705Z</time></trkpt><trkpt lat="41.3711703" lon="19.6076511"><ele>28.25</ele><time>2026-05-03T11:13:20.704Z</time></trkpt><trkpt lat="41.3712051" lon="19.6078419"><ele>28.5</ele><time>2026-05-03T11:13:21.704Z</time></trkpt><trkpt lat="41.3712402" lon="19.6080335"><ele>28.75</ele><time>2026-05-03T11:13:22.705Z</time></trkpt><trkpt lat="41.3712748" lon="19.6082274"><ele>29.0</ele><time>2026-05-03T11:13:23.705Z</time></trkpt><trkpt lat="41.3713073" lon="19.6084265"><ele>29.0</ele><time>2026-05-03T11:13:24.705Z</time></trkpt><trkpt lat="41.3713426" lon="19.6086267"><ele>29.0</ele><time>2026-05-03T11:13:25.705Z</time></trkpt><trkpt lat="41.3713779" lon="19.6088271"><ele>29.0</ele><time>2026-05-03T11:13:26.705Z</time></trkpt><trkpt lat="41.3714139" lon="19.6090283"><ele>29.0</ele><time>2026-05-03T11:13:27.705Z</time></trkpt><trkpt lat="41.3714488" lon="19.6092272"><ele>29.0</ele><time>2026-05-03T11:13:28.705Z</time></trkpt><trkpt lat="41.371482" lon="19.6094269"><ele>29.0</ele><time>2026-05-03T11:13:29.704Z</time></trkpt><trkpt lat="41.3715152" lon="19.6096206"><ele>28.666666666666664</ele><time>2026-05-03T11:13:30.705Z</time></trkpt><trkpt lat="41.3715493" lon="19.609816"><ele>28.333333333333336</ele><time>2026-05-03T11:13:31.705Z</time></trkpt><trkpt lat="41.3715842" lon="19.6100137"><ele>28.0</ele><time>2026-05-03T11:13:32.705Z</time></trkpt><trkpt lat="41.3716188" lon="19.6102106"><ele>29.0</ele><time>2026-05-03T11:13:33.705Z</time></trkpt><trkpt lat="41.3716583" lon="19.610409"><ele>30.0</ele><time>2026-05-03T11:13:34.705Z</time></trkpt><trkpt lat="41.3716946" lon="19.6106064"><ele>31.0</ele><time>2026-05-03T11:13:35.704Z</time></trkpt><trkpt lat="41.3717293" lon="19.6108006"><ele>31.0</ele><time>2026-05-03T11:13:36.705Z</time></trkpt><trkpt lat="41.3717635" lon="19.6109957"><ele>31.0</ele><time>2026-05-03T11:13:37.705Z</time></trkpt><trkpt lat="41.3718013" lon="19.6111937"><ele>31.0</ele><time>2026-05-03T11:13:38.704Z</time></trkpt><trkpt lat="41.3718352" lon="19.611393"><ele>31.0</ele><time>2026-05-03T11:13:39.705Z</time></trkpt><trkpt lat="41.3718675" lon="19.6115944"><ele>31.0</ele><time>2026-05-03T11:13:40.704Z</time></trkpt><trkpt lat="41.371902" lon="19.611797"><ele>31.0</ele><time>2026-05-03T11:13:41.705Z</time></trkpt><trkpt lat="41.3719385" lon="19.6120019"><ele>31.0</ele><time>2026-05-03T11:13:42.705Z</time></trkpt><trkpt lat="41.3719774" lon="19.6122076"><ele>31.0</ele><time>2026-05-03T11:13:43.705Z</time></trkpt><trkpt lat="41.3720154" lon="19.612412"><ele>31.0</ele><time>2026-05-03T11:13:44.705Z</time></trkpt><trkpt lat="41.3720494" lon="19.6126144"><ele>31.0</ele><time>2026-05-03T11:13:45.704Z</time></trkpt><trkpt lat="41.3720872" lon="19.6128174"><ele>31.0</ele><time>2026-05-03T11:13:46.704Z</time></trkpt><trkpt lat="41.3721228" lon="19.6130173"><ele>31.0</ele><time>2026-05-03T11:13:47.705Z</time></trkpt><trkpt lat="41.3721564" lon="19.6132121"><ele>30.666666666666668</ele><time>2026-05-03T11:13:48.704Z</time></trkpt><trkpt lat="41.3721926" lon="19.6134064"><ele>30.333333333333336</ele><time>2026-05-03T11:13:49.704Z</time></trkpt><trkpt lat="41.3722379" lon="19.613596"><ele>30.0</ele><time>2026-05-03T11:13:50.705Z</time></trkpt><trkpt lat="41.3723001" lon="19.6137785"><ele>30.0</ele><time>2026-05-03T11:13:51.704Z</time></trkpt><trkpt lat="41.3723757" lon="19.6139548"><ele>30.0</ele><time>2026-05-03T11:13:52.705Z</time></trkpt><trkpt lat="41.3724554" lon="19.6141329"><ele>30.0</ele><time>2026-05-03T11:13:53.705Z</time></trkpt><trkpt lat="41.3725373" lon="19.6143041"><ele>30.0</ele><time>2026-05-03T11:13:54.705Z</time></trkpt><trkpt lat="41.3726112" lon="19.6144758"><ele>30.0</ele><time>2026-05-03T11:13:55.705Z</time></trkpt><trkpt lat="41.3726864" lon="19.6146478"><ele>30.0</ele><time>2026-05-03T11:13:56.705Z</time></trkpt><trkpt lat="41.3727607" lon="19.6148135"><ele>30.0</ele><time>2026-05-03T11:13:57.704Z</time></trkpt><trkpt lat="41.3728385" lon="19.6149773"><ele>30.5</ele><time>2026-05-03T11:13:58.705Z</time></trkpt><trkpt lat="41.3729143" lon="19.6151407"><ele>31.0</ele><time>2026-05-03T11:13:59.705Z</time></trkpt><trkpt lat="41.3729919" lon="19.6153057"><ele>31.5</ele><time>2026-05-03T11:14:00.705Z</time></trkpt><trkpt lat="41.3730709" lon="19.6154679"><ele>32.0</ele><time>2026-05-03T11:14:01.704Z</time></trkpt><trkpt lat="41.3731458" lon="19.6156353"><ele>32.0</ele><time>2026-05-03T11:14:02.705Z</time></trkpt><trkpt lat="41.3732228" lon="19.6158027"><ele>32.0</ele><time>2026-05-03T11:14:03.704Z</time></trkpt><trkpt lat="41.3733003" lon="19.6159711"><ele>32.0</ele><time>2026-05-03T11:14:04.705Z</time></trkpt><trkpt lat="41.373378" lon="19.6161364"><ele>32.0</ele><time>2026-05-03T11:14:05.705Z</time></trkpt><trkpt lat="41.3734518" lon="19.6163043"><ele>32.0</ele><time>2026-05-03T11:14:06.705Z</time></trkpt><trkpt lat="41.3735259" lon="19.6164685"><ele>32.0</ele><time>2026-05-03T11:14:07.705Z</time></trkpt><trkpt lat="41.373601" lon="19.6166312"><ele>32.0</ele><time>2026-05-03T11:14:08.704Z</time></trkpt><trkpt lat="41.3736783" lon="19.6167949"><ele>32.0</ele><time>2026-05-03T11:14:09.705Z</time></trkpt><trkpt lat="41.3737564" lon="19.6169569"><ele>31.75</ele><time>2026-05-03T11:14:10.705Z</time></trkpt><trkpt lat="41.3738351" lon="19.6171249"><ele>31.5</ele><time>2026-05-03T11:14:11.705Z</time></trkpt><trkpt lat="41.3739119" lon="19.6172949"><ele>31.25</ele><time>2026-05-03T11:14:12.704Z</time></trkpt><trkpt lat="41.3739887" lon="19.6174642"><ele>31.0</ele><time>2026-05-03T11:14:13.705Z</time></trkpt><trkpt lat="41.3740697" lon="19.6176367"><ele>30.666666666666668</ele><time>2026-05-03T11:14:14.705Z</time></trkpt><trkpt lat="41.3741502" lon="19.6178094"><ele>30.333333333333336</ele><time>2026-05-03T11:14:15.704Z</time></trkpt><trkpt lat="41.3742307" lon="19.6179773"><ele>30.0</ele><time>2026-05-03T11:14:16.705Z</time></trkpt><trkpt lat="41.3743082" lon="19.6181451"><ele>30.666666666666664</ele><time>2026-05-03T11:14:17.704Z</time></trkpt><trkpt lat="41.374385" lon="19.6183161"><ele>31.333333333333332</ele><time>2026-05-03T11:14:18.705Z</time></trkpt><trkpt lat="41.3744646" lon="19.6184874"><ele>32.0</ele><time>2026-05-03T11:14:19.705Z</time></trkpt><trkpt lat="41.3745475" lon="19.6186622"><ele>32.0</ele><time>2026-05-03T11:14:20.704Z</time></trkpt><trkpt lat="41.3746303" lon="19.6188422"><ele>32.0</ele><time>2026-05-03T11:14:21.704Z</time></trkpt><trkpt lat="41.374711" lon="19.619021"><ele>32.0</ele><time>2026-05-03T11:14:22.705Z</time></trkpt><trkpt lat="41.3747881" lon="19.619198"><ele>32.33333333333333</ele><time>2026-05-03T11:14:23.705Z</time></trkpt><trkpt lat="41.374869" lon="19.6193743"><ele>32.666666666666664</ele><time>2026-05-03T11:14:24.705Z</time></trkpt><trkpt lat="41.3749496" lon="19.6195488"><ele>33.0</ele><time>2026-05-03T11:14:25.705Z</time></trkpt><trkpt lat="41.3750346" lon="19.6197223"><ele>33.0</ele><time>2026-05-03T11:14:26.704Z</time></trkpt><trkpt lat="41.3751153" lon="19.6198966"><ele>33.0</ele><time>2026-05-03T11:14:27.704Z</time></trkpt><trkpt lat="41.3751957" lon="19.620074"><ele>33.0</ele><time>2026-05-03T11:14:28.704Z</time></trkpt><trkpt lat="41.3752774" lon="19.62025"><ele>33.0</ele><time>2026-05-03T11:14:29.704Z</time></trkpt><trkpt lat="41.3753576" lon="19.6204258"><ele>33.0</ele><time>2026-05-03T11:14:30.704Z</time></trkpt><trkpt lat="41.3754339" lon="19.6205863"><ele>33.0</ele><time>2026-05-03T11:14:31.705Z</time></trkpt><trkpt lat="41.375503" lon="19.620734"><ele>33.0</ele><time>2026-05-03T11:14:32.704Z</time></trkpt><trkpt lat="41.3755705" lon="19.6208818"><ele>33.0</ele><time>2026-05-03T11:14:33.704Z</time></trkpt><trkpt lat="41.375641" lon="19.621028"><ele>33.0</ele><time>2026-05-03T11:14:34.704Z</time></trkpt><trkpt lat="41.3757092" lon="19.6211738"><ele>33.0</ele><time>2026-05-03T11:14:35.704Z</time></trkpt><trkpt lat="41.3757778" lon="19.6213192"><ele>33.0</ele><time>2026-05-03T11:14:36.705Z</time></trkpt><trkpt lat="41.3758483" lon="19.6214673"><ele>33.25</ele><time>2026-05-03T11:14:37.704Z</time></trkpt><trkpt lat="41.375916" lon="19.6216173"><ele>33.5</ele><time>2026-05-03T11:14:38.705Z</time></trkpt><trkpt lat="41.3759843" lon="19.621767"><ele>33.75</ele><time>2026-05-03T11:14:39.704Z</time></trkpt><trkpt lat="41.3760583" lon="19.6219205"><ele>34.0</ele><time>2026-05-03T11:14:40.705Z</time></trkpt><trkpt lat="41.3761271" lon="19.6220723"><ele>34.25</ele><time>2026-05-03T11:14:41.704Z</time></trkpt><trkpt lat="41.3761959" lon="19.6222194"><ele>34.5</ele><time>2026-05-03T11:14:42.704Z</time></trkpt><trkpt lat="41.3762647" lon="19.6223664"><ele>34.75</ele><time>2026-05-03T11:14:43.705Z</time></trkpt><trkpt lat="41.3763325" lon="19.6225133"><ele>35.0</ele><time>2026-05-03T11:14:44.704Z</time></trkpt><trkpt lat="41.3763968" lon="19.6226635"><ele>35.0</ele><time>2026-05-03T11:14:45.705Z</time></trkpt><trkpt lat="41.3764644" lon="19.6228113"><ele>35.0</ele><time>2026-05-03T11:14:46.704Z</time></trkpt><trkpt lat="41.376534" lon="19.6229502"><ele>35.0</ele><time>2026-05-03T11:14:47.705Z</time></trkpt><trkpt lat="41.3766029" lon="19.6230975"><ele>35.0</ele><time>2026-05-03T11:14:48.705Z</time></trkpt><trkpt lat="41.3766712" lon="19.6232531"><ele>35.5</ele><time>2026-05-03T11:14:49.704Z</time></trkpt><trkpt lat="41.3767428" lon="19.6234126"><ele>36.0</ele><time>2026-05-03T11:14:50.704Z</time></trkpt><trkpt lat="41.3768138" lon="19.62357"><ele>36.5</ele><time>2026-05-03T11:14:51.704Z</time></trkpt><trkpt lat="41.3768884" lon="19.623721"><ele>37.0</ele><time>2026-05-03T11:14:52.704Z</time></trkpt><trkpt lat="41.3769626" lon="19.6238584"><ele>37.5</ele><time>2026-05-03T11:14:53.704Z</time></trkpt><trkpt lat="41.3770496" lon="19.6239892"><ele>38.0</ele><time>2026-05-03T11:14:54.705Z</time></trkpt><trkpt lat="41.3771517" lon="19.6241129"><ele>38.5</ele><time>2026-05-03T11:14:55.705Z</time></trkpt><trkpt lat="41.3772627" lon="19.624229"><ele>39.0</ele><time>2026-05-03T11:14:56.705Z</time></trkpt><trkpt lat="41.3773817" lon="19.6243454"><ele>38.333333333333336</ele><time>2026-05-03T11:14:57.705Z</time></trkpt><trkpt lat="41.3775041" lon="19.6244664"><ele>37.66666666666667</ele><time>2026-05-03T11:14:58.705Z</time></trkpt><trkpt lat="41.3776284" lon="19.6245845"><ele>37.0</ele><time>2026-05-03T11:14:59.705Z</time></trkpt><trkpt lat="41.3777558" lon="19.624709"><ele>37.0</ele><time>2026-05-03T11:15:00.705Z</time></trkpt><trkpt lat="41.3778836" lon="19.6248334"><ele>37.0</ele><time>2026-05-03T11:15:01.704Z</time></trkpt><trkpt lat="41.3780114" lon="19.62496"><ele>37.0</ele><time>2026-05-03T11:15:02.705Z</time></trkpt><trkpt lat="41.3781396" lon="19.6250871"><ele>36.66666666666667</ele><time>2026-05-03T11:15:03.704Z</time></trkpt><trkpt lat="41.3782699" lon="19.6252111"><ele>36.333333333333336</ele><time>2026-05-03T11:15:04.705Z</time></trkpt><trkpt lat="41.378401" lon="19.6253411"><ele>36.0</ele><time>2026-05-03T11:15:05.705Z</time></trkpt><trkpt lat="41.3785313" lon="19.6254744"><ele>36.0</ele><time>2026-05-03T11:15:06.704Z</time></trkpt><trkpt lat="41.3786653" lon="19.6256072"><ele>36.0</ele><time>2026-05-03T11:15:07.705Z</time></trkpt><trkpt lat="41.378799" lon="19.6257415"><ele>36.0</ele><time>2026-05-03T11:15:08.705Z</time></trkpt><trkpt lat="41.3789333" lon="19.6258702"><ele>36.0</ele><time>2026-05-03T11:15:09.704Z</time></trkpt><trkpt lat="41.379065" lon="19.6259987"><ele>36.0</ele><time>2026-05-03T11:15:10.705Z</time></trkpt><trkpt lat="41.3791944" lon="19.626122"><ele>36.0</ele><time>2026-05-03T11:15:11.705Z</time></trkpt><trkpt lat="41.3793225" lon="19.6262465"><ele>36.0</ele><time>2026-05-03T11:15:12.705Z</time></trkpt><trkpt lat="41.379446" lon="19.6263717"><ele>36.0</ele><time>2026-05-03T11:15:13.705Z</time></trkpt><trkpt lat="41.3795686" lon="19.6264923"><ele>36.0</ele><time>2026-05-03T11:15:14.704Z</time></trkpt><trkpt lat="41.3796892" lon="19.6266087"><ele>36.5</ele><time>2026-05-03T11:15:15.704Z</time></trkpt><trkpt lat="41.3798075" lon="19.6267269"><ele>37.0</ele><time>2026-05-03T11:15:16.704Z</time></trkpt><trkpt lat="41.3799277" lon="19.6268454"><ele>37.5</ele><time>2026-05-03T11:15:17.705Z</time></trkpt><trkpt lat="41.3800477" lon="19.6269671"><ele>38.0</ele><time>2026-05-03T11:15:18.704Z</time></trkpt><trkpt lat="41.3801706" lon="19.6270889"><ele>38.33333333333333</ele><time>2026-05-03T11:15:19.704Z</time></trkpt><trkpt lat="41.3802983" lon="19.6272077"><ele>38.666666666666664</ele><time>2026-05-03T11:15:20.705Z</time></trkpt><trkpt lat="41.3804294" lon="19.6273271"><ele>39.0</ele><time>2026-05-03T11:15:21.704Z</time></trkpt><trkpt lat="41.3805565" lon="19.6274556"><ele>39.333333333333336</ele><time>2026-05-03T11:15:22.705Z</time></trkpt><trkpt lat="41.3806817" lon="19.6275805"><ele>39.66666666666667</ele><time>2026-05-03T11:15:23.705Z</time></trkpt><trkpt lat="41.3808088" lon="19.6277038"><ele>40.0</ele><time>2026-05-03T11:15:24.705Z</time></trkpt><trkpt lat="41.3809341" lon="19.6278277"><ele>40.0</ele><time>2026-05-03T11:15:25.705Z</time></trkpt><trkpt lat="41.3810582" lon="19.6279515"><ele>40.0</ele><time>2026-05-03T11:15:26.705Z</time></trkpt><trkpt lat="41.3811822" lon="19.6280758"><ele>40.0</ele><time>2026-05-03T11:15:27.705Z</time></trkpt><trkpt lat="41.3813058" lon="19.6281965"><ele>39.66666666666667</ele><time>2026-05-03T11:15:28.704Z</time></trkpt><trkpt lat="41.3814274" lon="19.6283202"><ele>39.333333333333336</ele><time>2026-05-03T11:15:29.705Z</time></trkpt><trkpt lat="41.3815481" lon="19.6284399"><ele>39.0</ele><time>2026-05-03T11:15:30.705Z</time></trkpt><trkpt lat="41.3816661" lon="19.6285575"><ele>40.25</ele><time>2026-05-03T11:15:31.705Z</time></trkpt><trkpt lat="41.3817845" lon="19.6286732"><ele>41.5</ele><time>2026-05-03T11:15:32.705Z</time></trkpt><trkpt lat="41.3819007" lon="19.6287874"><ele>42.75</ele><time>2026-05-03T11:15:33.704Z</time></trkpt><trkpt lat="41.3820198" lon="19.6288996"><ele>44.0</ele><time>2026-05-03T11:15:34.705Z</time></trkpt><trkpt lat="41.3821366" lon="19.6290157"><ele>44.25</ele><time>2026-05-03T11:15:35.705Z</time></trkpt><trkpt lat="41.3822545" lon="19.6291311"><ele>44.5</ele><time>2026-05-03T11:15:36.705Z</time></trkpt><trkpt lat="41.3823709" lon="19.6292467"><ele>44.75</ele><time>2026-05-03T11:15:37.705Z</time></trkpt><trkpt lat="41.3824881" lon="19.629364"><ele>45.0</ele><time>2026-05-03T11:15:38.705Z</time></trkpt><trkpt lat="41.3826089" lon="19.6294794"><ele>45.0</ele><time>2026-05-03T11:15:39.705Z</time></trkpt><trkpt lat="41.3827299" lon="19.6295952"><ele>45.0</ele><time>2026-05-03T11:15:40.705Z</time></trkpt><trkpt lat="41.382852" lon="19.6297086"><ele>45.0</ele><time>2026-05-03T11:15:41.704Z</time></trkpt><trkpt lat="41.3829719" lon="19.6298259"><ele>45.0</ele><time>2026-05-03T11:15:42.704Z</time></trkpt><trkpt lat="41.3830907" lon="19.6299463"><ele>45.25</ele><time>2026-05-03T11:15:43.704Z</time></trkpt><trkpt lat="41.3832128" lon="19.6300638"><ele>45.5</ele><time>2026-05-03T11:15:44.705Z</time></trkpt><trkpt lat="41.3833349" lon="19.6301775"><ele>45.75</ele><time>2026-05-03T11:15:45.705Z</time></trkpt><trkpt lat="41.3834552" lon="19.6302887"><ele>46.0</ele><time>2026-05-03T11:15:46.705Z</time></trkpt><trkpt lat="41.3835763" lon="19.6304009"><ele>46.0</ele><time>2026-05-03T11:15:47.705Z</time></trkpt><trkpt lat="41.3836982" lon="19.6305131"><ele>46.0</ele><time>2026-05-03T11:15:48.705Z</time></trkpt><trkpt lat="41.3838207" lon="19.6306222"><ele>46.0</ele><time>2026-05-03T11:15:49.704Z</time></trkpt><trkpt lat="41.3839392" lon="19.6307279"><ele>46.0</ele><time>2026-05-03T11:15:50.704Z</time></trkpt><trkpt lat="41.3840621" lon="19.6308352"><ele>47.0</ele><time>2026-05-03T11:15:51.705Z</time></trkpt><trkpt lat="41.3841823" lon="19.6309396"><ele>48.0</ele><time>2026-05-03T11:15:52.705Z</time></trkpt><trkpt lat="41.3843029" lon="19.6310407"><ele>49.0</ele><time>2026-05-03T11:15:53.704Z</time></trkpt><trkpt lat="41.3844217" lon="19.6311428"><ele>50.0</ele><time>2026-05-03T11:15:54.704Z</time></trkpt><trkpt lat="41.3845412" lon="19.6312462"><ele>50.0</ele><time>2026-05-03T11:15:55.704Z</time></trkpt><trkpt lat="41.3846595" lon="19.6313449"><ele>50.0</ele><time>2026-05-03T11:15:56.705Z</time></trkpt><trkpt lat="41.3847781" lon="19.6314476"><ele>50.0</ele><time>2026-05-03T11:15:57.705Z</time></trkpt><trkpt lat="41.3848966" lon="19.6315485"><ele>50.0</ele><time>2026-05-03T11:15:58.705Z</time></trkpt><trkpt lat="41.385019" lon="19.6316536"><ele>48.333333333333336</ele><time>2026-05-03T11:15:59.704Z</time></trkpt><trkpt lat="41.3851441" lon="19.631759"><ele>46.66666666666667</ele><time>2026-05-03T11:16:00.704Z</time></trkpt><trkpt lat="41.3852774" lon="19.631872"><ele>45.0</ele><time>2026-05-03T11:16:01.704Z</time></trkpt><trkpt lat="41.3854066" lon="19.6319841"><ele>42.333333333333336</ele><time>2026-05-03T11:16:02.704Z</time></trkpt><trkpt lat="41.3855374" lon="19.6321002"><ele>39.66666666666667</ele><time>2026-05-03T11:16:03.704Z</time></trkpt><trkpt lat="41.3856705" lon="19.6322173"><ele>37.0</ele><time>2026-05-03T11:16:04.704Z</time></trkpt><trkpt lat="41.3858033" lon="19.6323351"><ele>37.0</ele><time>2026-05-03T11:16:05.705Z</time></trkpt><trkpt lat="41.3859363" lon="19.6324491"><ele>37.0</ele><time>2026-05-03T11:16:06.704Z</time></trkpt><trkpt lat="41.3860665" lon="19.6325652"><ele>37.0</ele><time>2026-05-03T11:16:07.704Z</time></trkpt><trkpt lat="41.3861951" lon="19.6326789"><ele>37.0</ele><time>2026-05-03T11:16:08.704Z</time></trkpt><trkpt lat="41.3863246" lon="19.6327906"><ele>37.0</ele><time>2026-05-03T11:16:09.704Z</time></trkpt><trkpt lat="41.3864534" lon="19.6329026"><ele>37.0</ele><time>2026-05-03T11:16:10.704Z</time></trkpt><trkpt lat="41.3865816" lon="19.6330123"><ele>38.66666666666667</ele><time>2026-05-03T11:16:11.705Z</time></trkpt><trkpt lat="41.3867103" lon="19.6331221"><ele>40.333333333333336</ele><time>2026-05-03T11:16:12.705Z</time></trkpt><trkpt lat="41.3868381" lon="19.6332313"><ele>42.0</ele><time>2026-05-03T11:16:13.705Z</time></trkpt><trkpt lat="41.3869659" lon="19.6333398"><ele>42.0</ele><time>2026-05-03T11:16:14.705Z</time></trkpt><trkpt lat="41.3870965" lon="19.6334523"><ele>42.0</ele><time>2026-05-03T11:16:15.705Z</time></trkpt><trkpt lat="41.3872239" lon="19.6335693"><ele>42.0</ele><time>2026-05-03T11:16:16.704Z</time></trkpt><trkpt lat="41.3873567" lon="19.6336852"><ele>42.333333333333336</ele><time>2026-05-03T11:16:17.704Z</time></trkpt><trkpt lat="41.3874921" lon="19.6338023"><ele>42.66666666666667</ele><time>2026-05-03T11:16:18.704Z</time></trkpt><trkpt lat="41.38763" lon="19.633919"><ele>43.0</ele><time>2026-05-03T11:16:19.705Z</time></trkpt><trkpt lat="41.3877688" lon="19.6340347"><ele>43.0</ele><time>2026-05-03T11:16:20.704Z</time></trkpt><trkpt lat="41.387907" lon="19.6341512"><ele>43.0</ele><time>2026-05-03T11:16:21.704Z</time></trkpt><trkpt lat="41.3880428" lon="19.6342685"><ele>43.0</ele><time>2026-05-03T11:16:22.704Z</time></trkpt><trkpt lat="41.3881777" lon="19.6343862"><ele>42.333333333333336</ele><time>2026-05-03T11:16:23.705Z</time></trkpt><trkpt lat="41.3883168" lon="19.6345066"><ele>41.666666666666664</ele><time>2026-05-03T11:16:24.705Z</time></trkpt><trkpt lat="41.3884571" lon="19.634628"><ele>41.0</ele><time>2026-05-03T11:16:25.704Z</time></trkpt><trkpt lat="41.3885998" lon="19.6347505"><ele>41.0</ele><time>2026-05-03T11:16:26.705Z</time></trkpt><trkpt lat="41.3887447" lon="19.6348703"><ele>41.0</ele><time>2026-05-03T11:16:27.705Z</time></trkpt><trkpt lat="41.3888873" lon="19.6349932"><ele>41.0</ele><time>2026-05-03T11:16:28.704Z</time></trkpt><trkpt lat="41.3890304" lon="19.6351182"><ele>41.33333333333333</ele><time>2026-05-03T11:16:29.704Z</time></trkpt><trkpt lat="41.3891734" lon="19.6352465"><ele>41.666666666666664</ele><time>2026-05-03T11:16:30.705Z</time></trkpt><trkpt lat="41.3893195" lon="19.6353694"><ele>42.0</ele><time>2026-05-03T11:16:31.705Z</time></trkpt><trkpt lat="41.3894662" lon="19.635494"><ele>42.0</ele><time>2026-05-03T11:16:32.705Z</time></trkpt><trkpt lat="41.3896122" lon="19.6356186"><ele>42.0</ele><time>2026-05-03T11:16:33.705Z</time></trkpt><trkpt lat="41.3897572" lon="19.6357415"><ele>42.0</ele><time>2026-05-03T11:16:34.705Z</time></trkpt><trkpt lat="41.3898994" lon="19.6358623"><ele>41.666666666666664</ele><time>2026-05-03T11:16:35.705Z</time></trkpt><trkpt lat="41.3900433" lon="19.6359841"><ele>41.33333333333333</ele><time>2026-05-03T11:16:36.704Z</time></trkpt><trkpt lat="41.3901906" lon="19.6361105"><ele>41.0</ele><time>2026-05-03T11:16:37.704Z</time></trkpt><trkpt lat="41.3903393" lon="19.6362334"><ele>40.666666666666664</ele><time>2026-05-03T11:16:38.705Z</time></trkpt><trkpt lat="41.3904872" lon="19.6363587"><ele>40.333333333333336</ele><time>2026-05-03T11:16:39.705Z</time></trkpt><trkpt lat="41.390636" lon="19.6364852"><ele>40.0</ele><time>2026-05-03T11:16:40.705Z</time></trkpt><trkpt lat="41.390785" lon="19.6366126"><ele>40.0</ele><time>2026-05-03T11:16:41.704Z</time></trkpt><trkpt lat="41.3909342" lon="19.6367406"><ele>40.0</ele><time>2026-05-03T11:16:42.704Z</time></trkpt><trkpt lat="41.3910871" lon="19.6368718"><ele>40.0</ele><time>2026-05-03T11:16:43.705Z</time></trkpt><trkpt lat="41.3912379" lon="19.6370033"><ele>40.333333333333336</ele><time>2026-05-03T11:16:44.704Z</time></trkpt><trkpt lat="41.3913902" lon="19.6371338"><ele>40.666666666666664</ele><time>2026-05-03T11:16:45.705Z</time></trkpt><trkpt lat="41.3915437" lon="19.6372631"><ele>41.0</ele><time>2026-05-03T11:16:46.705Z</time></trkpt><trkpt lat="41.3916972" lon="19.6373962"><ele>41.0</ele><time>2026-05-03T11:16:47.705Z</time></trkpt><trkpt lat="41.39185" lon="19.6375309"><ele>41.0</ele><time>2026-05-03T11:16:48.705Z</time></trkpt><trkpt lat="41.3920064" lon="19.6376654"><ele>41.0</ele><time>2026-05-03T11:16:49.705Z</time></trkpt><trkpt lat="41.3921602" lon="19.6377987"><ele>41.666666666666664</ele><time>2026-05-03T11:16:50.705Z</time></trkpt><trkpt lat="41.3923148" lon="19.6379318"><ele>42.333333333333336</ele><time>2026-05-03T11:16:51.705Z</time></trkpt><trkpt lat="41.3924655" lon="19.6380587"><ele>43.0</ele><time>2026-05-03T11:16:52.704Z</time></trkpt><trkpt lat="41.3926051" lon="19.6381808"><ele>43.0</ele><time>2026-05-03T11:16:53.704Z</time></trkpt><trkpt lat="41.392744" lon="19.6383002"><ele>43.0</ele><time>2026-05-03T11:16:54.705Z</time></trkpt><trkpt lat="41.392883" lon="19.6384202"><ele>43.0</ele><time>2026-05-03T11:16:55.704Z</time></trkpt><trkpt lat="41.3930235" lon="19.6385383"><ele>41.66666666666667</ele><time>2026-05-03T11:16:56.704Z</time></trkpt><trkpt lat="41.3931782" lon="19.6386385"><ele>40.333333333333336</ele><time>2026-05-03T11:16:57.704Z</time></trkpt><trkpt lat="41.3933532" lon="19.6387259"><ele>39.0</ele><time>2026-05-03T11:16:58.704Z</time></trkpt><trkpt lat="41.3935401" lon="19.6387992"><ele>39.0</ele><time>2026-05-03T11:16:59.705Z</time></trkpt><trkpt lat="41.3937234" lon="19.6388681"><ele>39.0</ele><time>2026-05-03T11:17:00.705Z</time></trkpt><trkpt lat="41.3939043" lon="19.6389347"><ele>39.0</ele><time>2026-05-03T11:17:01.704Z</time></trkpt><trkpt lat="41.3940819" lon="19.6390018"><ele>40.0</ele><time>2026-05-03T11:17:02.705Z</time></trkpt><trkpt lat="41.3942582" lon="19.6390613"><ele>41.0</ele><time>2026-05-03T11:17:03.705Z</time></trkpt><trkpt lat="41.3944244" lon="19.6391228"><ele>42.0</ele><time>2026-05-03T11:17:04.704Z</time></trkpt><trkpt lat="41.3945835" lon="19.6391769"><ele>41.75</ele><time>2026-05-03T11:17:05.704Z</time></trkpt><trkpt lat="41.3947289" lon="19.6392332"><ele>41.5</ele><time>2026-05-03T11:17:06.705Z</time></trkpt><trkpt lat="41.3948632" lon="19.6392961"><ele>41.25</ele><time>2026-05-03T11:17:07.705Z</time></trkpt><trkpt lat="41.3949938" lon="19.6393857"><ele>41.0</ele><time>2026-05-03T11:17:08.704Z</time></trkpt><trkpt lat="41.395117" lon="19.639498"><ele>41.5</ele><time>2026-05-03T11:17:09.705Z</time></trkpt><trkpt lat="41.3952377" lon="19.6396141"><ele>42.0</ele><time>2026-05-03T11:17:10.705Z</time></trkpt><trkpt lat="41.3953576" lon="19.6397312"><ele>42.5</ele><time>2026-05-03T11:17:11.705Z</time></trkpt><trkpt lat="41.3954786" lon="19.6398478"><ele>43.0</ele><time>2026-05-03T11:17:12.704Z</time></trkpt><trkpt lat="41.395599" lon="19.6399607"><ele>43.0</ele><time>2026-05-03T11:17:13.704Z</time></trkpt><trkpt lat="41.3957207" lon="19.6400678"><ele>43.0</ele><time>2026-05-03T11:17:14.705Z</time></trkpt><trkpt lat="41.3958376" lon="19.6401792"><ele>43.0</ele><time>2026-05-03T11:17:15.705Z</time></trkpt><trkpt lat="41.3959592" lon="19.6402896"><ele>43.0</ele><time>2026-05-03T11:17:16.705Z</time></trkpt><trkpt lat="41.3960826" lon="19.6403947"><ele>43.0</ele><time>2026-05-03T11:17:17.704Z</time></trkpt><trkpt lat="41.3962069" lon="19.6405125"><ele>43.0</ele><time>2026-05-03T11:17:18.704Z</time></trkpt><trkpt lat="41.3963285" lon="19.6406321"><ele>43.0</ele><time>2026-05-03T11:17:19.705Z</time></trkpt><trkpt lat="41.3964476" lon="19.6407458"><ele>42.75</ele><time>2026-05-03T11:17:20.704Z</time></trkpt><trkpt lat="41.3965659" lon="19.6408567"><ele>42.5</ele><time>2026-05-03T11:17:21.705Z</time></trkpt><trkpt lat="41.3966861" lon="19.6409705"><ele>42.25</ele><time>2026-05-03T11:17:22.704Z</time></trkpt><trkpt lat="41.3968069" lon="19.6410861"><ele>42.0</ele><time>2026-05-03T11:17:23.704Z</time></trkpt><trkpt lat="41.3969297" lon="19.641208"><ele>42.666666666666664</ele><time>2026-05-03T11:17:24.705Z</time></trkpt><trkpt lat="41.3970525" lon="19.6413421"><ele>43.33333333333333</ele><time>2026-05-03T11:17:25.705Z</time></trkpt><trkpt lat="41.397172" lon="19.6414903"><ele>44.0</ele><time>2026-05-03T11:17:26.705Z</time></trkpt><trkpt lat="41.3972888" lon="19.6416462"><ele>44.0</ele><time>2026-05-03T11:17:27.705Z</time></trkpt><trkpt lat="41.3973997" lon="19.6417994"><ele>44.0</ele><time>2026-05-03T11:17:28.704Z</time></trkpt><trkpt lat="41.3975108" lon="19.6419511"><ele>44.0</ele><time>2026-05-03T11:17:29.704Z</time></trkpt><trkpt lat="41.3976207" lon="19.6421118"><ele>45.666666666666664</ele><time>2026-05-03T11:17:30.705Z</time></trkpt><trkpt lat="41.3977321" lon="19.6422702"><ele>47.33333333333333</ele><time>2026-05-03T11:17:31.704Z</time></trkpt><trkpt lat="41.3978411" lon="19.642429"><ele>49.0</ele><time>2026-05-03T11:17:32.704Z</time></trkpt><trkpt lat="41.3979524" lon="19.6425855"><ele>48.666666666666664</ele><time>2026-05-03T11:17:33.705Z</time></trkpt><trkpt lat="41.3980649" lon="19.6427413"><ele>48.33333333333333</ele><time>2026-05-03T11:17:34.704Z</time></trkpt><trkpt lat="41.3981788" lon="19.6428929"><ele>48.0</ele><time>2026-05-03T11:17:35.705Z</time></trkpt><trkpt lat="41.3982991" lon="19.6430392"><ele>48.0</ele><time>2026-05-03T11:17:36.705Z</time></trkpt><trkpt lat="41.3984225" lon="19.6431764"><ele>48.0</ele><time>2026-05-03T11:17:37.704Z</time></trkpt><trkpt lat="41.3985487" lon="19.643308"><ele>48.0</ele><time>2026-05-03T11:17:38.705Z</time></trkpt><trkpt lat="41.3986693" lon="19.6434322"><ele>48.0</ele><time>2026-05-03T11:17:39.704Z</time></trkpt><trkpt lat="41.3987829" lon="19.6435569"><ele>48.0</ele><time>2026-05-03T11:17:40.705Z</time></trkpt><trkpt lat="41.3988871" lon="19.6436941"><ele>48.0</ele><time>2026-05-03T11:17:41.704Z</time></trkpt><trkpt lat="41.3989824" lon="19.6438471"><ele>48.0</ele><time>2026-05-03T11:17:42.704Z</time></trkpt><trkpt lat="41.3990761" lon="19.6440045"><ele>49.25</ele><time>2026-05-03T11:17:43.705Z</time></trkpt><trkpt lat="41.3991697" lon="19.6441592"><ele>50.5</ele><time>2026-05-03T11:17:44.705Z</time></trkpt><trkpt lat="41.3992598" lon="19.6443065"><ele>51.75</ele><time>2026-05-03T11:17:45.704Z</time></trkpt><trkpt lat="41.3993451" lon="19.6444444"><ele>53.0</ele><time>2026-05-03T11:17:46.704Z</time></trkpt><trkpt lat="41.3994235" lon="19.6446037"><ele>55.75</ele><time>2026-05-03T11:17:47.705Z</time></trkpt><trkpt lat="41.3994971" lon="19.6447668"><ele>58.5</ele><time>2026-05-03T11:17:48.704Z</time></trkpt><trkpt lat="41.3995583" lon="19.6449425"><ele>61.25</ele><time>2026-05-03T11:17:49.704Z</time></trkpt><trkpt lat="41.3996034" lon="19.6451042"><ele>64.0</ele><time>2026-05-03T11:17:50.705Z</time></trkpt><trkpt lat="41.3996445" lon="19.6452513"><ele>64.8</ele><time>2026-05-03T11:17:51.704Z</time></trkpt><trkpt lat="41.3996702" lon="19.6453901"><ele>65.60000000000001</ele><time>2026-05-03T11:17:52.705Z</time></trkpt><trkpt lat="41.3996811" lon="19.6455258"><ele>66.4</ele><time>2026-05-03T11:17:53.705Z</time></trkpt><trkpt lat="41.3996768" lon="19.6456488"><ele>67.2</ele><time>2026-05-03T11:17:54.705Z</time></trkpt><trkpt lat="41.3996497" lon="19.6457796"><ele>68.0</ele><time>2026-05-03T11:17:55.705Z</time></trkpt><trkpt lat="41.3996196" lon="19.6459329"><ele>68.0</ele><time>2026-05-03T11:17:56.704Z</time></trkpt><trkpt lat="41.3995862" lon="19.6460937"><ele>68.0</ele><time>2026-05-03T11:17:57.705Z</time></trkpt><trkpt lat="41.3995506" lon="19.6462599"><ele>68.0</ele><time>2026-05-03T11:17:58.705Z</time></trkpt><trkpt lat="41.3995151" lon="19.6464268"><ele>68.0</ele><time>2026-05-03T11:17:59.705Z</time></trkpt><trkpt lat="41.3994774" lon="19.6465974"><ele>66.5</ele><time>2026-05-03T11:18:00.705Z</time></trkpt><trkpt lat="41.399442" lon="19.6467667"><ele>65.0</ele><time>2026-05-03T11:18:01.704Z</time></trkpt><trkpt lat="41.399406" lon="19.6469334"><ele>63.5</ele><time>2026-05-03T11:18:02.704Z</time></trkpt><trkpt lat="41.3993745" lon="19.6470978"><ele>62.0</ele><time>2026-05-03T11:18:03.705Z</time></trkpt><trkpt lat="41.3993427" lon="19.647258"><ele>60.5</ele><time>2026-05-03T11:18:04.704Z</time></trkpt><trkpt lat="41.3993102" lon="19.647412"><ele>59.0</ele><time>2026-05-03T11:18:05.704Z</time></trkpt><trkpt lat="41.3992817" lon="19.6475623"><ele>57.5</ele><time>2026-05-03T11:18:06.704Z</time></trkpt><trkpt lat="41.3992546" lon="19.6477116"><ele>56.0</ele><time>2026-05-03T11:18:07.704Z</time></trkpt><trkpt lat="41.3992309" lon="19.6478536"><ele>55.0</ele><time>2026-05-03T11:18:08.704Z</time></trkpt><trkpt lat="41.3992074" lon="19.6479885"><ele>53.99999999999999</ele><time>2026-05-03T11:18:09.705Z</time></trkpt><trkpt lat="41.3991834" lon="19.6481242"><ele>53.0</ele><time>2026-05-03T11:18:10.704Z</time></trkpt><trkpt lat="41.3991527" lon="19.6482536"><ele>52.0</ele><time>2026-05-03T11:18:11.704Z</time></trkpt><trkpt lat="41.3991233" lon="19.6483748"><ele>51.0</ele><time>2026-05-03T11:18:12.704Z</time></trkpt><trkpt lat="41.3990883" lon="19.6484872"><ele>51.0</ele><time>2026-05-03T11:18:13.705Z</time></trkpt><trkpt lat="41.3990443" lon="19.6485792"><ele>51.0</ele><time>2026-05-03T11:18:14.704Z</time></trkpt><trkpt lat="41.3989987" lon="19.6486508"><ele>51.0</ele><time>2026-05-03T11:18:15.705Z</time></trkpt><trkpt lat="41.398962" lon="19.6487303"><ele>51.0</ele><time>2026-05-03T11:18:16.705Z</time></trkpt><trkpt lat="41.3989399" lon="19.6488227"><ele>51.0</ele><time>2026-05-03T11:18:17.705Z</time></trkpt><trkpt lat="41.3989336" lon="19.6489327"><ele>51.0</ele><time>2026-05-03T11:18:18.704Z</time></trkpt><trkpt lat="41.3989324" lon="19.6490522"><ele>51.25</ele><time>2026-05-03T11:18:19.705Z</time></trkpt><trkpt lat="41.3989176" lon="19.6491809"><ele>51.5</ele><time>2026-05-03T11:18:20.704Z</time></trkpt><trkpt lat="41.3988801" lon="19.6493208"><ele>51.75</ele><time>2026-05-03T11:18:21.704Z</time></trkpt><trkpt lat="41.3988319" lon="19.6494677"><ele>52.0</ele><time>2026-05-03T11:18:22.705Z</time></trkpt><trkpt lat="41.3987763" lon="19.6496189"><ele>52.0</ele><time>2026-05-03T11:18:23.705Z</time></trkpt><trkpt lat="41.3987115" lon="19.6497824"><ele>52.0</ele><time>2026-05-03T11:18:24.705Z</time></trkpt><trkpt lat="41.3986449" lon="19.6499456"><ele>52.0</ele><time>2026-05-03T11:18:25.705Z</time></trkpt><trkpt lat="41.3985703" lon="19.6501106"><ele>52.0</ele><time>2026-05-03T11:18:26.704Z</time></trkpt><trkpt lat="41.3984905" lon="19.6502801"><ele>51.666666666666664</ele><time>2026-05-03T11:18:27.704Z</time></trkpt><trkpt lat="41.3984089" lon="19.6504497"><ele>51.33333333333333</ele><time>2026-05-03T11:18:28.704Z</time></trkpt><trkpt lat="41.3983214" lon="19.6506191"><ele>51.0</ele><time>2026-05-03T11:18:29.705Z</time></trkpt><trkpt lat="41.3982296" lon="19.6507856"><ele>51.0</ele><time>2026-05-03T11:18:30.704Z</time></trkpt><trkpt lat="41.3981318" lon="19.6509504"><ele>51.0</ele><time>2026-05-03T11:18:31.705Z</time></trkpt><trkpt lat="41.3980302" lon="19.6511197"><ele>51.0</ele><time>2026-05-03T11:18:32.705Z</time></trkpt><trkpt lat="41.3979312" lon="19.6512863"><ele>52.0</ele><time>2026-05-03T11:18:33.705Z</time></trkpt><trkpt lat="41.3978315" lon="19.6514524"><ele>53.0</ele><time>2026-05-03T11:18:34.705Z</time></trkpt><trkpt lat="41.397727" lon="19.6516071"><ele>54.0</ele><time>2026-05-03T11:18:35.704Z</time></trkpt><trkpt lat="41.3976214" lon="19.6517646"><ele>54.0</ele><time>2026-05-03T11:18:36.705Z</time></trkpt><trkpt lat="41.3975132" lon="19.651922"><ele>54.0</ele><time>2026-05-03T11:18:37.704Z</time></trkpt><trkpt lat="41.3974114" lon="19.6520791"><ele>54.0</ele><time>2026-05-03T11:18:38.704Z</time></trkpt><trkpt lat="41.3973115" lon="19.6522338"><ele>54.0</ele><time>2026-05-03T11:18:39.704Z</time></trkpt><trkpt lat="41.3972117" lon="19.6523891"><ele>54.0</ele><time>2026-05-03T11:18:40.705Z</time></trkpt><trkpt lat="41.3971125" lon="19.6525411"><ele>54.0</ele><time>2026-05-03T11:18:41.704Z</time></trkpt><trkpt lat="41.3970146" lon="19.6526925"><ele>53.5</ele><time>2026-05-03T11:18:42.704Z</time></trkpt><trkpt lat="41.3969207" lon="19.6528396"><ele>53.0</ele><time>2026-05-03T11:18:43.705Z</time></trkpt><trkpt lat="41.3968295" lon="19.6529788"><ele>52.5</ele><time>2026-05-03T11:18:44.705Z</time></trkpt><trkpt lat="41.396745" lon="19.6531066"><ele>52.0</ele><time>2026-05-03T11:18:45.704Z</time></trkpt><trkpt lat="41.3966656" lon="19.6532267"><ele>52.0</ele><time>2026-05-03T11:18:46.704Z</time></trkpt><trkpt lat="41.396589" lon="19.6533455"><ele>52.0</ele><time>2026-05-03T11:18:47.704Z</time></trkpt><trkpt lat="41.3965139" lon="19.6534584"><ele>52.0</ele><time>2026-05-03T11:18:48.704Z</time></trkpt><trkpt lat="41.3964396" lon="19.6535642"><ele>52.0</ele><time>2026-05-03T11:18:49.705Z</time></trkpt><trkpt lat="41.3963647" lon="19.6536631"><ele>52.0</ele><time>2026-05-03T11:18:50.704Z</time></trkpt><trkpt lat="41.3962928" lon="19.6537544"><ele>52.666666666666664</ele><time>2026-05-03T11:18:51.705Z</time></trkpt><trkpt lat="41.3962255" lon="19.653838"><ele>53.33333333333333</ele><time>2026-05-03T11:18:52.704Z</time></trkpt><trkpt lat="41.39616" lon="19.6539134"><ele>54.0</ele><time>2026-05-03T11:18:53.705Z</time></trkpt><trkpt lat="41.3961049" lon="19.6539834"><ele>54.66666666666667</ele><time>2026-05-03T11:18:54.704Z</time></trkpt><trkpt lat="41.3960546" lon="19.6540455"><ele>55.333333333333336</ele><time>2026-05-03T11:18:55.704Z</time></trkpt><trkpt lat="41.3959488" lon="19.6541199"><ele>56.0</ele><time>2026-05-03T11:18:57.705Z</time></trkpt><trkpt lat="41.3958425" lon="19.6542142"><ele>56.00000000000001</ele><time>2026-05-03T11:18:59.704Z</time></trkpt><trkpt lat="41.3957865" lon="19.6542771"><ele>56.0</ele><time>2026-05-03T11:19:00.705Z</time></trkpt><trkpt lat="41.3957255" lon="19.6543433"><ele>56.0</ele><time>2026-05-03T11:19:01.705Z</time></trkpt><trkpt lat="41.3956579" lon="19.6544217"><ele>56.0</ele><time>2026-05-03T11:19:02.705Z</time></trkpt><trkpt lat="41.3955887" lon="19.6545065"><ele>56.00000000000001</ele><time>2026-05-03T11:19:03.704Z</time></trkpt><trkpt lat="41.395521" lon="19.6545955"><ele>56.0</ele><time>2026-05-03T11:19:04.704Z</time></trkpt><trkpt lat="41.395457" lon="19.6546795"><ele>56.333333333333336</ele><time>2026-05-03T11:19:05.704Z</time></trkpt><trkpt lat="41.3954043" lon="19.6547445"><ele>56.66666666666667</ele><time>2026-05-03T11:19:06.704Z</time></trkpt><trkpt lat="41.3953237" lon="19.6548109"><ele>57.0</ele><time>2026-05-03T11:19:08.705Z</time></trkpt><trkpt lat="41.3952608" lon="19.6548022"><ele>57.33333333333333</ele><time>2026-05-03T11:19:10.705Z</time></trkpt><trkpt lat="41.3952137" lon="19.6547125"><ele>57.666666666666664</ele><time>2026-05-03T11:19:12.705Z</time></trkpt><trkpt lat="41.3951461" lon="19.654612"><ele>58.0</ele><time>2026-05-03T11:19:14.704Z</time></trkpt><trkpt lat="41.3950757" lon="19.6545087"><ele>57.99999999999999</ele><time>2026-05-03T11:19:16.704Z</time></trkpt><trkpt lat="41.3950121" lon="19.654421"><ele>58.0</ele><time>2026-05-03T11:19:18.704Z</time></trkpt><trkpt lat="41.3949597" lon="19.6543422"><ele>58.0</ele><time>2026-05-03T11:19:21.705Z</time></trkpt><trkpt lat="41.3948526" lon="19.6543578"><ele>58.0</ele><time>2026-05-03T11:19:24.705Z</time></trkpt><trkpt lat="41.3947984" lon="19.6544101"><ele>57.99999999999999</ele><time>2026-05-03T11:19:25.704Z</time></trkpt><trkpt lat="41.3947483" lon="19.6544658"><ele>58.0</ele><time>2026-05-03T11:19:26.705Z</time></trkpt><trkpt lat="41.3947015" lon="19.6545277"><ele>59.0</ele><time>2026-05-03T11:19:27.705Z</time></trkpt><trkpt lat="41.3946376" lon="19.6546069"><ele>60.0</ele><time>2026-05-03T11:19:29.704Z</time></trkpt><trkpt lat="41.3945504" lon="19.6546226"><ele>61.0</ele><time>2026-05-03T11:19:32.705Z</time></trkpt><trkpt lat="41.3944575" lon="19.6545053"><ele>62.0</ele><time>2026-05-03T11:19:34.705Z</time></trkpt><trkpt lat="41.3944087" lon="19.654415"><ele>63.0</ele><time>2026-05-03T11:19:35.704Z</time></trkpt><trkpt lat="41.3943498" lon="19.6543323"><ele>63.333333333333336</ele><time>2026-05-03T11:19:36.705Z</time></trkpt><trkpt lat="41.394302" lon="19.6542407"><ele>63.66666666666667</ele><time>2026-05-03T11:19:37.705Z</time></trkpt><trkpt lat="41.3942511" lon="19.6541514"><ele>64.0</ele><time>2026-05-03T11:19:38.704Z</time></trkpt><trkpt lat="41.3941999" lon="19.6540818"><ele>64.33333333333334</ele><time>2026-05-03T11:19:39.704Z</time></trkpt><trkpt lat="41.3941337" lon="19.6539832"><ele>64.66666666666667</ele><time>2026-05-03T11:19:41.705Z</time></trkpt><trkpt lat="41.3940752" lon="19.65394"><ele>65.0</ele><time>2026-05-03T11:19:47.704Z</time></trkpt><trkpt lat="41.3940082" lon="19.6539634"><ele>65.0</ele><time>2026-05-03T11:19:49.704Z</time></trkpt><trkpt lat="41.3939378" lon="19.6540892"><ele>65.0</ele><time>2026-05-03T11:19:51.705Z</time></trkpt><trkpt lat="41.3938822" lon="19.654152"><ele>65.0</ele><time>2026-05-03T11:19:52.704Z</time></trkpt><trkpt lat="41.3938319" lon="19.6542232"><ele>65.0</ele><time>2026-05-03T11:19:53.704Z</time></trkpt><trkpt lat="41.3937739" lon="19.6543002"><ele>65.0</ele><time>2026-05-03T11:19:54.705Z</time></trkpt><trkpt lat="41.3937145" lon="19.6543833"><ele>65.0</ele><time>2026-05-03T11:19:55.704Z</time></trkpt><trkpt lat="41.3936485" lon="19.65447"><ele>65.0</ele><time>2026-05-03T11:19:56.705Z</time></trkpt><trkpt lat="41.3935811" lon="19.6545603"><ele>65.0</ele><time>2026-05-03T11:19:57.705Z</time></trkpt><trkpt lat="41.3935175" lon="19.6546455"><ele>65.0</ele><time>2026-05-03T11:19:58.704Z</time></trkpt><trkpt lat="41.3934533" lon="19.6547256"><ele>65.0</ele><time>2026-05-03T11:19:59.704Z</time></trkpt><trkpt lat="41.393388" lon="19.654805"><ele>65.0</ele><time>2026-05-03T11:20:00.704Z</time></trkpt><trkpt lat="41.3933211" lon="19.6548898"><ele>65.0</ele><time>2026-05-03T11:20:01.704Z</time></trkpt><trkpt lat="41.3932542" lon="19.6549727"><ele>65.0</ele><time>2026-05-03T11:20:02.705Z</time></trkpt><trkpt lat="41.393189" lon="19.6550573"><ele>65.0</ele><time>2026-05-03T11:20:03.704Z</time></trkpt><trkpt lat="41.3931245" lon="19.6551394"><ele>65.0</ele><time>2026-05-03T11:20:04.704Z</time></trkpt><trkpt lat="41.3930638" lon="19.6552203"><ele>65.0</ele><time>2026-05-03T11:20:05.704Z</time></trkpt><trkpt lat="41.3929987" lon="19.6553054"><ele>65.0</ele><time>2026-05-03T11:20:06.704Z</time></trkpt><trkpt lat="41.392943" lon="19.6553735"><ele>65.28571428571429</ele><time>2026-05-03T11:20:07.705Z</time></trkpt><trkpt lat="41.3928899" lon="19.6554387"><ele>65.57142857142857</ele><time>2026-05-03T11:20:08.704Z</time></trkpt><trkpt lat="41.3928411" lon="19.6555011"><ele>65.85714285714286</ele><time>2026-05-03T11:20:09.705Z</time></trkpt><trkpt lat="41.392791" lon="19.6555568"><ele>66.14285714285714</ele><time>2026-05-03T11:20:10.704Z</time></trkpt><trkpt lat="41.3927297" lon="19.6555958"><ele>66.42857142857143</ele><time>2026-05-03T11:20:11.704Z</time></trkpt><trkpt lat="41.3926601" lon="19.655622"><ele>66.71428571428572</ele><time>2026-05-03T11:20:12.705Z</time></trkpt><trkpt lat="41.3925788" lon="19.6556362"><ele>67.0</ele><time>2026-05-03T11:20:13.704Z</time></trkpt><trkpt lat="41.3924953" lon="19.6556516"><ele>67.0</ele><time>2026-05-03T11:20:14.704Z</time></trkpt><trkpt lat="41.39241" lon="19.6556608"><ele>67.0</ele><time>2026-05-03T11:20:15.704Z</time></trkpt><trkpt lat="41.3923295" lon="19.6556608"><ele>67.0</ele><time>2026-05-03T11:20:16.705Z</time></trkpt><trkpt lat="41.3922551" lon="19.655645"><ele>67.0</ele><time>2026-05-03T11:20:17.704Z</time></trkpt><trkpt lat="41.3921861" lon="19.6556146"><ele>67.0</ele><time>2026-05-03T11:20:18.704Z</time></trkpt><trkpt lat="41.3921224" lon="19.6555736"><ele>67.0</ele><time>2026-05-03T11:20:19.705Z</time></trkpt><trkpt lat="41.3920617" lon="19.6555402"><ele>67.83333333333333</ele><time>2026-05-03T11:20:20.705Z</time></trkpt><trkpt lat="41.3919411" lon="19.6555594"><ele>68.66666666666666</ele><time>2026-05-03T11:20:22.704Z</time></trkpt><trkpt lat="41.3918871" lon="19.6556103"><ele>69.5</ele><time>2026-05-03T11:20:23.705Z</time></trkpt><trkpt lat="41.3918371" lon="19.6556911"><ele>70.33333333333333</ele><time>2026-05-03T11:20:24.704Z</time></trkpt><trkpt lat="41.3917928" lon="19.6557744"><ele>71.16666666666667</ele><time>2026-05-03T11:20:25.705Z</time></trkpt><trkpt lat="41.3917448" lon="19.6558674"><ele>72.0</ele><time>2026-05-03T11:20:26.704Z</time></trkpt><trkpt lat="41.3916925" lon="19.6559587"><ele>72.0</ele><time>2026-05-03T11:20:27.705Z</time></trkpt><trkpt lat="41.3916294" lon="19.6560332"><ele>72.0</ele><time>2026-05-03T11:20:28.704Z</time></trkpt><trkpt lat="41.3915736" lon="19.6561124"><ele>72.0</ele><time>2026-05-03T11:20:29.704Z</time></trkpt><trkpt lat="41.3915248" lon="19.6561909"><ele>72.0</ele><time>2026-05-03T11:20:30.704Z</time></trkpt><trkpt lat="41.3914771" lon="19.6562681"><ele>72.0</ele><time>2026-05-03T11:20:31.704Z</time></trkpt><trkpt lat="41.3914301" lon="19.6563396"><ele>72.0</ele><time>2026-05-03T11:20:32.705Z</time></trkpt><trkpt lat="41.391381" lon="19.6564037"><ele>72.0</ele><time>2026-05-03T11:20:33.704Z</time></trkpt><trkpt lat="41.3913327" lon="19.6564617"><ele>72.0</ele><time>2026-05-03T11:20:34.704Z</time></trkpt><trkpt lat="41.391245" lon="19.6565648"><ele>72.0</ele><time>2026-05-03T11:20:36.704Z</time></trkpt><trkpt lat="41.3911767" lon="19.656623"><ele>72.0</ele><time>2026-05-03T11:20:38.704Z</time></trkpt><trkpt lat="41.3911192" lon="19.6566958"><ele>72.0</ele><time>2026-05-03T11:20:40.705Z</time></trkpt><trkpt lat="41.3910458" lon="19.6567949"><ele>72.0</ele><time>2026-05-03T11:20:42.704Z</time></trkpt><trkpt lat="41.3909947" lon="19.6568486"><ele>72.0</ele><time>2026-05-03T11:20:43.704Z</time></trkpt><trkpt lat="41.3909412" lon="19.656916"><ele>72.0</ele><time>2026-05-03T11:20:44.705Z</time></trkpt><trkpt lat="41.3908759" lon="19.6569798"><ele>72.0</ele><time>2026-05-03T11:20:45.705Z</time></trkpt><trkpt lat="41.3908014" lon="19.6570715"><ele>72.0</ele><time>2026-05-03T11:20:46.705Z</time></trkpt><trkpt lat="41.3907233" lon="19.6571585"><ele>72.0</ele><time>2026-05-03T11:20:47.704Z</time></trkpt><trkpt lat="41.3906457" lon="19.6572497"><ele>71.25</ele><time>2026-05-03T11:20:48.705Z</time></trkpt><trkpt lat="41.3905613" lon="19.6573472"><ele>70.5</ele><time>2026-05-03T11:20:49.705Z</time></trkpt><trkpt lat="41.3904741" lon="19.6574445"><ele>69.75</ele><time>2026-05-03T11:20:50.705Z</time></trkpt><trkpt lat="41.3903854" lon="19.6575383"><ele>69.0</ele><time>2026-05-03T11:20:51.705Z</time></trkpt><trkpt lat="41.3902971" lon="19.6576314"><ele>69.60000000000001</ele><time>2026-05-03T11:20:52.705Z</time></trkpt><trkpt lat="41.39021" lon="19.657714"><ele>70.2</ele><time>2026-05-03T11:20:53.705Z</time></trkpt><trkpt lat="41.3901196" lon="19.6577919"><ele>70.80000000000001</ele><time>2026-05-03T11:20:54.704Z</time></trkpt><trkpt lat="41.3900312" lon="19.6578654"><ele>71.4</ele><time>2026-05-03T11:20:55.705Z</time></trkpt><trkpt lat="41.3899433" lon="19.6579391"><ele>72.0</ele><time>2026-05-03T11:20:56.704Z</time></trkpt><trkpt lat="41.3898587" lon="19.6580131"><ele>72.0</ele><time>2026-05-03T11:20:57.705Z</time></trkpt><trkpt lat="41.38978" lon="19.6580857"><ele>72.0</ele><time>2026-05-03T11:20:58.705Z</time></trkpt><trkpt lat="41.3897075" lon="19.6581664"><ele>72.0</ele><time>2026-05-03T11:20:59.705Z</time></trkpt><trkpt lat="41.3896365" lon="19.6582392"><ele>72.0</ele><time>2026-05-03T11:21:00.705Z</time></trkpt><trkpt lat="41.3895673" lon="19.6583082"><ele>72.0</ele><time>2026-05-03T11:21:01.704Z</time></trkpt><trkpt lat="41.3894996" lon="19.6583703"><ele>72.0</ele><time>2026-05-03T11:21:02.705Z</time></trkpt><trkpt lat="41.389434" lon="19.6584338"><ele>72.66666666666667</ele><time>2026-05-03T11:21:03.705Z</time></trkpt><trkpt lat="41.3893708" lon="19.6584953"><ele>73.33333333333333</ele><time>2026-05-03T11:21:04.704Z</time></trkpt><trkpt lat="41.3893027" lon="19.6585471"><ele>74.0</ele><time>2026-05-03T11:21:05.704Z</time></trkpt><trkpt lat="41.3892301" lon="19.6585661"><ele>74.66666666666666</ele><time>2026-05-03T11:21:06.704Z</time></trkpt><trkpt lat="41.3891598" lon="19.6585601"><ele>75.33333333333333</ele><time>2026-05-03T11:21:07.704Z</time></trkpt><trkpt lat="41.3890947" lon="19.6585341"><ele>76.0</ele><time>2026-05-03T11:21:08.705Z</time></trkpt><trkpt lat="41.3889807" lon="19.6585471"><ele>75.8</ele><time>2026-05-03T11:21:10.705Z</time></trkpt><trkpt lat="41.3888846" lon="19.6586416"><ele>75.6</ele><time>2026-05-03T11:21:12.704Z</time></trkpt><trkpt lat="41.3888358" lon="19.6586998"><ele>75.4</ele><time>2026-05-03T11:21:13.705Z</time></trkpt><trkpt lat="41.3887875" lon="19.658831"><ele>75.2</ele><time>2026-05-03T11:21:15.705Z</time></trkpt><trkpt lat="41.3888303" lon="19.6589759"><ele>75.0</ele><time>2026-05-03T11:21:17.704Z</time></trkpt><trkpt lat="41.3888811" lon="19.659053"><ele>75.0</ele><time>2026-05-03T11:21:18.704Z</time></trkpt><trkpt lat="41.3889418" lon="19.659139"><ele>75.0</ele><time>2026-05-03T11:21:19.705Z</time></trkpt><trkpt lat="41.3890087" lon="19.6592331"><ele>75.0</ele><time>2026-05-03T11:21:20.704Z</time></trkpt><trkpt lat="41.3890733" lon="19.6593266"><ele>75.0</ele><time>2026-05-03T11:21:21.704Z</time></trkpt><trkpt lat="41.3891337" lon="19.6594149"><ele>75.0</ele><time>2026-05-03T11:21:22.705Z</time></trkpt><trkpt lat="41.3891914" lon="19.6594993"><ele>74.5</ele><time>2026-05-03T11:21:23.705Z</time></trkpt><trkpt lat="41.3892485" lon="19.6595705"><ele>74.0</ele><time>2026-05-03T11:21:24.704Z</time></trkpt><trkpt lat="41.38932" lon="19.6596096"><ele>73.5</ele><time>2026-05-03T11:21:25.705Z</time></trkpt><trkpt lat="41.389396" lon="19.6596231"><ele>73.0</ele><time>2026-05-03T11:21:26.704Z</time></trkpt><trkpt lat="41.3894639" lon="19.659626"><ele>72.5</ele><time>2026-05-03T11:21:27.704Z</time></trkpt><trkpt lat="41.3895715" lon="19.6596976"><ele>72.0</ele><time>2026-05-03T11:21:29.705Z</time></trkpt><trkpt lat="41.3896219" lon="19.6597625"><ele>72.0</ele><time>2026-05-03T11:21:30.704Z</time></trkpt><trkpt lat="41.3896752" lon="19.659838"><ele>72.0</ele><time>2026-05-03T11:21:31.705Z</time></trkpt><trkpt lat="41.3897256" lon="19.6599145"><ele>72.0</ele><time>2026-05-03T11:21:32.705Z</time></trkpt><trkpt lat="41.389777" lon="19.6599912"><ele>72.0</ele><time>2026-05-03T11:21:33.704Z</time></trkpt><trkpt lat="41.3898293" lon="19.6600621"><ele>72.0</ele><time>2026-05-03T11:21:34.704Z</time></trkpt><trkpt lat="41.3898782" lon="19.6601278"><ele>72.0</ele><time>2026-05-03T11:21:35.704Z</time></trkpt><trkpt lat="41.389953" lon="19.6602302"><ele>71.0</ele><time>2026-05-03T11:21:37.704Z</time></trkpt><trkpt lat="41.3900004" lon="19.6602964"><ele>70.0</ele><time>2026-05-03T11:21:39.704Z</time></trkpt><trkpt lat="41.3900501" lon="19.6603533"><ele>69.0</ele><time>2026-05-03T11:21:41.705Z</time></trkpt><trkpt lat="41.3900707" lon="19.6604355"><ele>68.0</ele><time>2026-05-03T11:21:44.705Z</time></trkpt><trkpt lat="41.390083" lon="19.6605384"><ele>67.0</ele><time>2026-05-03T11:21:48.704Z</time></trkpt><trkpt lat="41.3900944" lon="19.6606673"><ele>66.0</ele><time>2026-05-03T11:21:51.704Z</time></trkpt><trkpt lat="41.3901368" lon="19.6607638"><ele>66.0</ele><time>2026-05-03T11:21:53.704Z</time></trkpt><trkpt lat="41.3902256" lon="19.6608278"><ele>66.0</ele><time>2026-05-03T11:21:55.704Z</time></trkpt><trkpt lat="41.3903304" lon="19.6608665"><ele>66.0</ele><time>2026-05-03T11:21:57.705Z</time></trkpt><trkpt lat="41.3904255" lon="19.6609407"><ele>66.0</ele><time>2026-05-03T11:21:59.705Z</time></trkpt><trkpt lat="41.3905007" lon="19.6610387"><ele>66.0</ele><time>2026-05-03T11:22:01.704Z</time></trkpt><trkpt lat="41.390581" lon="19.6611522"><ele>65.16666666666667</ele><time>2026-05-03T11:22:03.705Z</time></trkpt><trkpt lat="41.3906416" lon="19.661235"><ele>64.33333333333333</ele><time>2026-05-03T11:22:06.704Z</time></trkpt><trkpt lat="41.3906789" lon="19.6613205"><ele>63.5</ele><time>2026-05-03T11:22:09.704Z</time></trkpt><trkpt lat="41.3906929" lon="19.6614404"><ele>62.666666666666664</ele><time>2026-05-03T11:22:12.704Z</time></trkpt><trkpt lat="41.3907021" lon="19.661541"><ele>61.83333333333333</ele><time>2026-05-03T11:22:14.704Z</time></trkpt><trkpt lat="41.3907387" lon="19.6616375"><ele>61.0</ele><time>2026-05-03T11:22:16.705Z</time></trkpt><trkpt lat="41.390799" lon="19.6617016"><ele>60.99999999999999</ele><time>2026-05-03T11:22:18.705Z</time></trkpt><trkpt lat="41.3908868" lon="19.6617002"><ele>61.0</ele><time>2026-05-03T11:22:20.705Z</time></trkpt><trkpt lat="41.3909505" lon="19.6616458"><ele>61.0</ele><time>2026-05-03T11:22:22.705Z</time></trkpt><trkpt lat="41.3909801" lon="19.6615643"><ele>61.0</ele><time>2026-05-03T11:22:24.705Z</time></trkpt><trkpt lat="41.3909913" lon="19.6614765"><ele>60.99999999999999</ele><time>2026-05-03T11:22:26.704Z</time></trkpt><trkpt lat="41.3910214" lon="19.661354"><ele>61.0</ele><time>2026-05-03T11:22:29.704Z</time></trkpt><trkpt lat="41.3910806" lon="19.6612659"><ele>60.99999999999999</ele><time>2026-05-03T11:22:31.704Z</time></trkpt><trkpt lat="41.3911657" lon="19.6611592"><ele>61.0</ele><time>2026-05-03T11:22:33.705Z</time></trkpt><trkpt lat="41.3912115" lon="19.6610977"><ele>61.0</ele><time>2026-05-03T11:22:34.704Z</time></trkpt><trkpt lat="41.3912628" lon="19.6610272"><ele>61.0</ele><time>2026-05-03T11:22:35.704Z</time></trkpt><trkpt lat="41.3913199" lon="19.6609488"><ele>60.99999999999999</ele><time>2026-05-03T11:22:36.704Z</time></trkpt><trkpt lat="41.3913836" lon="19.6608738"><ele>61.0</ele><time>2026-05-03T11:22:37.705Z</time></trkpt><trkpt lat="41.3914487" lon="19.6607895"><ele>61.0</ele><time>2026-05-03T11:22:38.705Z</time></trkpt><trkpt lat="41.3915205" lon="19.6606991"><ele>60.99999999999999</ele><time>2026-05-03T11:22:39.704Z</time></trkpt><trkpt lat="41.3915957" lon="19.6606019"><ele>60.99999999999999</ele><time>2026-05-03T11:22:40.704Z</time></trkpt><trkpt lat="41.3916766" lon="19.6604971"><ele>61.0</ele><time>2026-05-03T11:22:41.704Z</time></trkpt><trkpt lat="41.3917644" lon="19.660385"><ele>61.0</ele><time>2026-05-03T11:22:42.704Z</time></trkpt><trkpt lat="41.3918491" lon="19.6602713"><ele>61.0</ele><time>2026-05-03T11:22:43.704Z</time></trkpt><trkpt lat="41.3919391" lon="19.6601558"><ele>61.0</ele><time>2026-05-03T11:22:44.705Z</time></trkpt><trkpt lat="41.3920284" lon="19.6600377"><ele>61.0</ele><time>2026-05-03T11:22:45.704Z</time></trkpt><trkpt lat="41.3921201" lon="19.6599129"><ele>61.0</ele><time>2026-05-03T11:22:46.705Z</time></trkpt><trkpt lat="41.3922137" lon="19.6597891"><ele>61.0</ele><time>2026-05-03T11:22:47.704Z</time></trkpt><trkpt lat="41.3923076" lon="19.6596665"><ele>61.0</ele><time>2026-05-03T11:22:48.705Z</time></trkpt><trkpt lat="41.3923977" lon="19.6595494"><ele>61.0</ele><time>2026-05-03T11:22:49.705Z</time></trkpt><trkpt lat="41.3924807" lon="19.6594403"><ele>61.0</ele><time>2026-05-03T11:22:50.705Z</time></trkpt><trkpt lat="41.3925573" lon="19.6593423"><ele>60.99999999999999</ele><time>2026-05-03T11:22:51.704Z</time></trkpt><trkpt lat="41.3926193" lon="19.6592561"><ele>61.0</ele><time>2026-05-03T11:22:52.705Z</time></trkpt><trkpt lat="41.3926763" lon="19.6591791"><ele>61.0</ele><time>2026-05-03T11:22:53.705Z</time></trkpt><trkpt lat="41.3927329" lon="19.6591033"><ele>61.0</ele><time>2026-05-03T11:22:54.705Z</time></trkpt><trkpt lat="41.3927849" lon="19.6590361"><ele>60.99999999999999</ele><time>2026-05-03T11:22:55.704Z</time></trkpt><trkpt lat="41.3928321" lon="19.6589757"><ele>61.0</ele><time>2026-05-03T11:22:56.704Z</time></trkpt><trkpt lat="41.3929121" lon="19.6588613"><ele>61.0</ele><time>2026-05-03T11:22:58.705Z</time></trkpt><trkpt lat="41.392997" lon="19.6587917"><ele>60.99999999999999</ele><time>2026-05-03T11:23:00.704Z</time></trkpt><trkpt lat="41.3931072" lon="19.6587714"><ele>60.99999999999999</ele><time>2026-05-03T11:23:02.705Z</time></trkpt><trkpt lat="41.3932222" lon="19.6587938"><ele>61.0</ele><time>2026-05-03T11:23:04.705Z</time></trkpt><trkpt lat="41.3933207" lon="19.6588745"><ele>61.0</ele><time>2026-05-03T11:23:06.704Z</time></trkpt><trkpt lat="41.3933659" lon="19.6589362"><ele>60.4</ele><time>2026-05-03T11:23:07.705Z</time></trkpt><trkpt lat="41.3934198" lon="19.6590106"><ele>59.8</ele><time>2026-05-03T11:23:08.705Z</time></trkpt><trkpt lat="41.3934799" lon="19.6590949"><ele>59.199999999999996</ele><time>2026-05-03T11:23:09.704Z</time></trkpt><trkpt lat="41.3935498" lon="19.6591904"><ele>58.599999999999994</ele><time>2026-05-03T11:23:10.705Z</time></trkpt><trkpt lat="41.3936277" lon="19.659297"><ele>58.0</ele><time>2026-05-03T11:23:11.704Z</time></trkpt><trkpt lat="41.3937055" lon="19.659398"><ele>58.25</ele><time>2026-05-03T11:23:12.704Z</time></trkpt><trkpt lat="41.3937858" lon="19.6595014"><ele>58.5</ele><time>2026-05-03T11:23:13.705Z</time></trkpt><trkpt lat="41.3938664" lon="19.6596051"><ele>58.75</ele><time>2026-05-03T11:23:14.704Z</time></trkpt><trkpt lat="41.3939486" lon="19.6597143"><ele>59.0</ele><time>2026-05-03T11:23:15.705Z</time></trkpt><trkpt lat="41.3940302" lon="19.6598257"><ele>58.5</ele><time>2026-05-03T11:23:16.704Z</time></trkpt><trkpt lat="41.3941157" lon="19.6599368"><ele>58.0</ele><time>2026-05-03T11:23:17.705Z</time></trkpt><trkpt lat="41.3941986" lon="19.6600488"><ele>57.5</ele><time>2026-05-03T11:23:18.705Z</time></trkpt><trkpt lat="41.3942833" lon="19.6601629"><ele>57.0</ele><time>2026-05-03T11:23:19.705Z</time></trkpt><trkpt lat="41.3943682" lon="19.6602754"><ele>56.75</ele><time>2026-05-03T11:23:20.704Z</time></trkpt><trkpt lat="41.3944549" lon="19.6603894"><ele>56.5</ele><time>2026-05-03T11:23:21.704Z</time></trkpt><trkpt lat="41.3945404" lon="19.6605072"><ele>56.25</ele><time>2026-05-03T11:23:22.704Z</time></trkpt><trkpt lat="41.394626" lon="19.6606218"><ele>56.0</ele><time>2026-05-03T11:23:23.705Z</time></trkpt><trkpt lat="41.3947142" lon="19.6607379"><ele>56.0</ele><time>2026-05-03T11:23:24.705Z</time></trkpt><trkpt lat="41.3948035" lon="19.6608611"><ele>56.0</ele><time>2026-05-03T11:23:25.704Z</time></trkpt><trkpt lat="41.3948949" lon="19.6609838"><ele>56.0</ele><time>2026-05-03T11:23:26.705Z</time></trkpt><trkpt lat="41.394988" lon="19.6611072"><ele>56.0</ele><time>2026-05-03T11:23:27.704Z</time></trkpt><trkpt lat="41.3950831" lon="19.6612344"><ele>56.0</ele><time>2026-05-03T11:23:28.704Z</time></trkpt><trkpt lat="41.3951789" lon="19.6613627"><ele>56.0</ele><time>2026-05-03T11:23:29.705Z</time></trkpt><trkpt lat="41.395277" lon="19.6614943"><ele>56.0</ele><time>2026-05-03T11:23:30.705Z</time></trkpt><trkpt lat="41.3953766" lon="19.6616291"><ele>56.0</ele><time>2026-05-03T11:23:31.704Z</time></trkpt><trkpt lat="41.3954821" lon="19.6617687"><ele>56.0</ele><time>2026-05-03T11:23:32.705Z</time></trkpt><trkpt lat="41.3955862" lon="19.6619091"><ele>56.0</ele><time>2026-05-03T11:23:33.705Z</time></trkpt><trkpt lat="41.3956889" lon="19.6620496"><ele>56.0</ele><time>2026-05-03T11:23:34.705Z</time></trkpt><trkpt lat="41.3957941" lon="19.662191"><ele>56.0</ele><time>2026-05-03T11:23:35.705Z</time></trkpt><trkpt lat="41.3959012" lon="19.6623355"><ele>55.66666666666667</ele><time>2026-05-03T11:23:36.705Z</time></trkpt><trkpt lat="41.3960146" lon="19.6624823"><ele>55.33333333333333</ele><time>2026-05-03T11:23:37.704Z</time></trkpt><trkpt lat="41.3961247" lon="19.6626327"><ele>55.0</ele><time>2026-05-03T11:23:38.705Z</time></trkpt><trkpt lat="41.3962381" lon="19.6627866"><ele>55.0</ele><time>2026-05-03T11:23:39.704Z</time></trkpt><trkpt lat="41.3963525" lon="19.6629401"><ele>55.0</ele><time>2026-05-03T11:23:40.705Z</time></trkpt><trkpt lat="41.3964652" lon="19.6630939"><ele>55.0</ele><time>2026-05-03T11:23:41.704Z</time></trkpt><trkpt lat="41.3965768" lon="19.6632496"><ele>55.0</ele><time>2026-05-03T11:23:42.705Z</time></trkpt><trkpt lat="41.3966903" lon="19.6634021"><ele>55.0</ele><time>2026-05-03T11:23:43.705Z</time></trkpt><trkpt lat="41.3968047" lon="19.6635542"><ele>55.0</ele><time>2026-05-03T11:23:44.705Z</time></trkpt><trkpt lat="41.3969201" lon="19.6637071"><ele>55.0</ele><time>2026-05-03T11:23:45.705Z</time></trkpt><trkpt lat="41.3970375" lon="19.6638605"><ele>55.0</ele><time>2026-05-03T11:23:46.704Z</time></trkpt><trkpt lat="41.3971574" lon="19.6640239"><ele>55.0</ele><time>2026-05-03T11:23:47.704Z</time></trkpt><trkpt lat="41.3972767" lon="19.6641859"><ele>55.0</ele><time>2026-05-03T11:23:48.705Z</time></trkpt><trkpt lat="41.3973951" lon="19.6643503"><ele>55.0</ele><time>2026-05-03T11:23:49.705Z</time></trkpt><trkpt lat="41.3975162" lon="19.6645127"><ele>55.0</ele><time>2026-05-03T11:23:50.704Z</time></trkpt><trkpt lat="41.3976367" lon="19.6646763"><ele>55.0</ele><time>2026-05-03T11:23:51.705Z</time></trkpt><trkpt lat="41.3977596" lon="19.6648372"><ele>55.0</ele><time>2026-05-03T11:23:52.704Z</time></trkpt><trkpt lat="41.3978807" lon="19.6649981"><ele>55.0</ele><time>2026-05-03T11:23:53.704Z</time></trkpt><trkpt lat="41.3980041" lon="19.6651581"><ele>56.0</ele><time>2026-05-03T11:23:54.705Z</time></trkpt><trkpt lat="41.3981267" lon="19.6653179"><ele>57.0</ele><time>2026-05-03T11:23:55.705Z</time></trkpt><trkpt lat="41.3982487" lon="19.66548"><ele>58.0</ele><time>2026-05-03T11:23:56.705Z</time></trkpt><trkpt lat="41.3983688" lon="19.6656365"><ele>58.0</ele><time>2026-05-03T11:23:57.705Z</time></trkpt><trkpt lat="41.3984865" lon="19.6657889"><ele>58.0</ele><time>2026-05-03T11:23:58.705Z</time></trkpt><trkpt lat="41.398601" lon="19.6659416"><ele>58.0</ele><time>2026-05-03T11:23:59.704Z</time></trkpt><trkpt lat="41.3987149" lon="19.6660903"><ele>58.666666666666664</ele><time>2026-05-03T11:24:00.705Z</time></trkpt><trkpt lat="41.398827" lon="19.6662414"><ele>59.33333333333333</ele><time>2026-05-03T11:24:01.705Z</time></trkpt><trkpt lat="41.3989389" lon="19.666391"><ele>60.0</ele><time>2026-05-03T11:24:02.705Z</time></trkpt><trkpt lat="41.3990477" lon="19.6665321"><ele>60.0</ele><time>2026-05-03T11:24:03.705Z</time></trkpt><trkpt lat="41.3991552" lon="19.666673"><ele>60.0</ele><time>2026-05-03T11:24:04.705Z</time></trkpt><trkpt lat="41.399261" lon="19.6668109"><ele>60.0</ele><time>2026-05-03T11:24:05.704Z</time></trkpt><trkpt lat="41.399365" lon="19.6669501"><ele>60.0</ele><time>2026-05-03T11:24:06.705Z</time></trkpt><trkpt lat="41.3994666" lon="19.6670875"><ele>60.0</ele><time>2026-05-03T11:24:07.705Z</time></trkpt><trkpt lat="41.3995651" lon="19.667221"><ele>60.0</ele><time>2026-05-03T11:24:08.705Z</time></trkpt><trkpt lat="41.3996629" lon="19.6673528"><ele>60.0</ele><time>2026-05-03T11:24:09.705Z</time></trkpt><trkpt lat="41.3997632" lon="19.6674787"><ele>60.0</ele><time>2026-05-03T11:24:10.704Z</time></trkpt><trkpt lat="41.3998701" lon="19.6676019"><ele>60.0</ele><time>2026-05-03T11:24:11.705Z</time></trkpt><trkpt lat="41.3999806" lon="19.6677188"><ele>60.0</ele><time>2026-05-03T11:24:12.704Z</time></trkpt><trkpt lat="41.4000984" lon="19.667832"><ele>60.0</ele><time>2026-05-03T11:24:13.704Z</time></trkpt><trkpt lat="41.4002213" lon="19.6679437"><ele>60.0</ele><time>2026-05-03T11:24:14.705Z</time></trkpt><trkpt lat="41.40035" lon="19.6680453"><ele>59.5</ele><time>2026-05-03T11:24:15.704Z</time></trkpt><trkpt lat="41.4004817" lon="19.6681374"><ele>59.0</ele><time>2026-05-03T11:24:16.704Z</time></trkpt><trkpt lat="41.4006124" lon="19.668216"><ele>58.5</ele><time>2026-05-03T11:24:17.704Z</time></trkpt><trkpt lat="41.400738" lon="19.6682923"><ele>58.0</ele><time>2026-05-03T11:24:18.705Z</time></trkpt><trkpt lat="41.4008611" lon="19.6683628"><ele>58.0</ele><time>2026-05-03T11:24:19.704Z</time></trkpt><trkpt lat="41.4009813" lon="19.6684316"><ele>58.0</ele><time>2026-05-03T11:24:20.704Z</time></trkpt><trkpt lat="41.401104" lon="19.6684977"><ele>58.0</ele><time>2026-05-03T11:24:21.704Z</time></trkpt><trkpt lat="41.4012252" lon="19.6685665"><ele>58.0</ele><time>2026-05-03T11:24:22.704Z</time></trkpt><trkpt lat="41.4013474" lon="19.6686343"><ele>56.5</ele><time>2026-05-03T11:24:23.704Z</time></trkpt><trkpt lat="41.4014701" lon="19.6687057"><ele>55.0</ele><time>2026-05-03T11:24:24.705Z</time></trkpt><trkpt lat="41.4015939" lon="19.6687772"><ele>53.5</ele><time>2026-05-03T11:24:25.705Z</time></trkpt><trkpt lat="41.4017178" lon="19.6688506"><ele>52.0</ele><time>2026-05-03T11:24:26.705Z</time></trkpt><trkpt lat="41.4018433" lon="19.6689228"><ele>52.0</ele><time>2026-05-03T11:24:27.705Z</time></trkpt><trkpt lat="41.4019737" lon="19.6689983"><ele>52.0</ele><time>2026-05-03T11:24:28.704Z</time></trkpt><trkpt lat="41.4021067" lon="19.6690738"><ele>52.0</ele><time>2026-05-03T11:24:29.705Z</time></trkpt><trkpt lat="41.4022439" lon="19.6691485"><ele>52.0</ele><time>2026-05-03T11:24:30.704Z</time></trkpt><trkpt lat="41.4023807" lon="19.6692226"><ele>52.0</ele><time>2026-05-03T11:24:31.705Z</time></trkpt><trkpt lat="41.4025176" lon="19.6693006"><ele>52.0</ele><time>2026-05-03T11:24:32.705Z</time></trkpt><trkpt lat="41.4026539" lon="19.6693794"><ele>52.0</ele><time>2026-05-03T11:24:33.704Z</time></trkpt><trkpt lat="41.4027904" lon="19.6694577"><ele>52.0</ele><time>2026-05-03T11:24:34.704Z</time></trkpt><trkpt lat="41.4029277" lon="19.6695375"><ele>51.33333333333333</ele><time>2026-05-03T11:24:35.705Z</time></trkpt><trkpt lat="41.403067" lon="19.6696202"><ele>50.66666666666667</ele><time>2026-05-03T11:24:36.704Z</time></trkpt><trkpt lat="41.4032106" lon="19.6697054"><ele>50.0</ele><time>2026-05-03T11:24:37.705Z</time></trkpt><trkpt lat="41.4033548" lon="19.6697926"><ele>50.0</ele><time>2026-05-03T11:24:38.705Z</time></trkpt><trkpt lat="41.4035009" lon="19.6698743"><ele>50.0</ele><time>2026-05-03T11:24:39.704Z</time></trkpt><trkpt lat="41.4036509" lon="19.6699527"><ele>50.0</ele><time>2026-05-03T11:24:40.705Z</time></trkpt><trkpt lat="41.4038012" lon="19.6700376"><ele>50.333333333333336</ele><time>2026-05-03T11:24:41.704Z</time></trkpt><trkpt lat="41.4039515" lon="19.6701244"><ele>50.66666666666667</ele><time>2026-05-03T11:24:42.705Z</time></trkpt><trkpt lat="41.4040987" lon="19.6702211"><ele>51.0</ele><time>2026-05-03T11:24:43.704Z</time></trkpt><trkpt lat="41.4042444" lon="19.6703218"><ele>51.0</ele><time>2026-05-03T11:24:44.705Z</time></trkpt><trkpt lat="41.4043874" lon="19.6704289"><ele>51.0</ele><time>2026-05-03T11:24:45.705Z</time></trkpt><trkpt lat="41.4045229" lon="19.6705489"><ele>51.0</ele><time>2026-05-03T11:24:46.705Z</time></trkpt><trkpt lat="41.4046505" lon="19.6706834"><ele>52.0</ele><time>2026-05-03T11:24:47.705Z</time></trkpt><trkpt lat="41.404773" lon="19.6708282"><ele>53.0</ele><time>2026-05-03T11:24:48.704Z</time></trkpt><trkpt lat="41.4048885" lon="19.6709801"><ele>54.0</ele><time>2026-05-03T11:24:49.705Z</time></trkpt><trkpt lat="41.404997" lon="19.6711353"><ele>54.0</ele><time>2026-05-03T11:24:50.704Z</time></trkpt><trkpt lat="41.4050944" lon="19.6712956"><ele>54.0</ele><time>2026-05-03T11:24:51.704Z</time></trkpt><trkpt lat="41.4051852" lon="19.6714545"><ele>54.0</ele><time>2026-05-03T11:24:52.704Z</time></trkpt><trkpt lat="41.4052721" lon="19.6716178"><ele>54.0</ele><time>2026-05-03T11:24:53.704Z</time></trkpt><trkpt lat="41.4053484" lon="19.6717773"><ele>54.0</ele><time>2026-05-03T11:24:54.705Z</time></trkpt><trkpt lat="41.4054229" lon="19.671938"><ele>54.0</ele><time>2026-05-03T11:24:55.705Z</time></trkpt><trkpt lat="41.4054976" lon="19.6720966"><ele>54.0</ele><time>2026-05-03T11:24:56.704Z</time></trkpt><trkpt lat="41.4055732" lon="19.6722522"><ele>54.5</ele><time>2026-05-03T11:24:57.704Z</time></trkpt><trkpt lat="41.405649" lon="19.6724052"><ele>55.0</ele><time>2026-05-03T11:24:58.704Z</time></trkpt><trkpt lat="41.4057217" lon="19.6725608"><ele>55.5</ele><time>2026-05-03T11:24:59.705Z</time></trkpt><trkpt lat="41.4057951" lon="19.6727152"><ele>56.0</ele><time>2026-05-03T11:25:00.704Z</time></trkpt><trkpt lat="41.4058675" lon="19.6728663"><ele>56.0</ele><time>2026-05-03T11:25:01.704Z</time></trkpt><trkpt lat="41.4059378" lon="19.6730144"><ele>56.0</ele><time>2026-05-03T11:25:02.705Z</time></trkpt><trkpt lat="41.4060079" lon="19.6731641"><ele>56.0</ele><time>2026-05-03T11:25:03.705Z</time></trkpt><trkpt lat="41.4060768" lon="19.6733178"><ele>56.0</ele><time>2026-05-03T11:25:04.705Z</time></trkpt><trkpt lat="41.4061485" lon="19.673475"><ele>55.25</ele><time>2026-05-03T11:25:05.705Z</time></trkpt><trkpt lat="41.4062218" lon="19.6736335"><ele>54.5</ele><time>2026-05-03T11:25:06.705Z</time></trkpt><trkpt lat="41.4062982" lon="19.6737954"><ele>53.75</ele><time>2026-05-03T11:25:07.705Z</time></trkpt><trkpt lat="41.4063762" lon="19.673958"><ele>53.0</ele><time>2026-05-03T11:25:08.704Z</time></trkpt><trkpt lat="41.4064555" lon="19.6741247"><ele>53.0</ele><time>2026-05-03T11:25:09.705Z</time></trkpt><trkpt lat="41.4065347" lon="19.6742933"><ele>53.0</ele><time>2026-05-03T11:25:10.704Z</time></trkpt><trkpt lat="41.4066154" lon="19.6744677"><ele>53.0</ele><time>2026-05-03T11:25:11.704Z</time></trkpt><trkpt lat="41.4066977" lon="19.6746409"><ele>52.66666666666667</ele><time>2026-05-03T11:25:12.704Z</time></trkpt><trkpt lat="41.4067814" lon="19.6748158"><ele>52.33333333333333</ele><time>2026-05-03T11:25:13.704Z</time></trkpt><trkpt lat="41.4068616" lon="19.6750013"><ele>52.0</ele><time>2026-05-03T11:25:14.704Z</time></trkpt><trkpt lat="41.4069487" lon="19.6751748"><ele>52.33333333333333</ele><time>2026-05-03T11:25:15.704Z</time></trkpt><trkpt lat="41.4070327" lon="19.6753489"><ele>52.66666666666667</ele><time>2026-05-03T11:25:16.704Z</time></trkpt><trkpt lat="41.407118" lon="19.6755247"><ele>53.0</ele><time>2026-05-03T11:25:17.704Z</time></trkpt><trkpt lat="41.4072027" lon="19.6757024"><ele>53.333333333333336</ele><time>2026-05-03T11:25:18.705Z</time></trkpt><trkpt lat="41.4072864" lon="19.6758793"><ele>53.66666666666667</ele><time>2026-05-03T11:25:19.705Z</time></trkpt><trkpt lat="41.4073679" lon="19.6760538"><ele>54.0</ele><time>2026-05-03T11:25:20.705Z</time></trkpt><trkpt lat="41.4074511" lon="19.6762288"><ele>54.0</ele><time>2026-05-03T11:25:21.704Z</time></trkpt><trkpt lat="41.407534" lon="19.6764042"><ele>54.0</ele><time>2026-05-03T11:25:22.704Z</time></trkpt><trkpt lat="41.40761" lon="19.676583"><ele>54.0</ele><time>2026-05-03T11:25:23.705Z</time></trkpt><trkpt lat="41.4076792" lon="19.6767645"><ele>53.75</ele><time>2026-05-03T11:25:24.705Z</time></trkpt><trkpt lat="41.4077428" lon="19.6769464"><ele>53.5</ele><time>2026-05-03T11:25:25.704Z</time></trkpt><trkpt lat="41.4077985" lon="19.677129"><ele>53.25</ele><time>2026-05-03T11:25:26.704Z</time></trkpt><trkpt lat="41.4078434" lon="19.6773118"><ele>53.0</ele><time>2026-05-03T11:25:27.705Z</time></trkpt><trkpt lat="41.4078872" lon="19.6774986"><ele>53.0</ele><time>2026-05-03T11:25:28.705Z</time></trkpt><trkpt lat="41.4079235" lon="19.6776888"><ele>53.0</ele><time>2026-05-03T11:25:29.705Z</time></trkpt><trkpt lat="41.407956" lon="19.6778831"><ele>53.0</ele><time>2026-05-03T11:25:30.704Z</time></trkpt><trkpt lat="41.4079886" lon="19.6780836"><ele>53.5</ele><time>2026-05-03T11:25:31.704Z</time></trkpt><trkpt lat="41.408017" lon="19.6782791"><ele>54.0</ele><time>2026-05-03T11:25:32.705Z</time></trkpt><trkpt lat="41.4080471" lon="19.6784753"><ele>54.5</ele><time>2026-05-03T11:25:33.705Z</time></trkpt><trkpt lat="41.4080764" lon="19.6786694"><ele>55.0</ele><time>2026-05-03T11:25:34.704Z</time></trkpt><trkpt lat="41.4081075" lon="19.6788614"><ele>55.0</ele><time>2026-05-03T11:25:35.704Z</time></trkpt><trkpt lat="41.4081429" lon="19.6790498"><ele>55.0</ele><time>2026-05-03T11:25:36.704Z</time></trkpt><trkpt lat="41.4081823" lon="19.6792338"><ele>55.0</ele><time>2026-05-03T11:25:37.705Z</time></trkpt><trkpt lat="41.4082296" lon="19.6794131"><ele>55.0</ele><time>2026-05-03T11:25:38.704Z</time></trkpt><trkpt lat="41.4082817" lon="19.6795805"><ele>54.4</ele><time>2026-05-03T11:25:39.705Z</time></trkpt><trkpt lat="41.4083386" lon="19.6797298"><ele>53.8</ele><time>2026-05-03T11:25:40.704Z</time></trkpt><trkpt lat="41.4083892" lon="19.6798532"><ele>53.2</ele><time>2026-05-03T11:25:41.704Z</time></trkpt><trkpt lat="41.4084307" lon="19.6799533"><ele>52.6</ele><time>2026-05-03T11:25:42.705Z</time></trkpt><trkpt lat="41.4084602" lon="19.6800283"><ele>52.0</ele><time>2026-05-03T11:25:43.705Z</time></trkpt><trkpt lat="41.4084678" lon="19.6801295"><ele>52.0</ele><time>2026-05-03T11:25:45.705Z</time></trkpt><trkpt lat="41.4084038" lon="19.6801903"><ele>52.0</ele><time>2026-05-03T11:25:48.705Z</time></trkpt><trkpt lat="41.4083141" lon="19.6802058"><ele>52.0</ele><time>2026-05-03T11:25:51.704Z</time></trkpt><trkpt lat="41.4082442" lon="19.6802047"><ele>52.0</ele><time>2026-05-03T11:25:54.704Z</time></trkpt><trkpt lat="41.4082105" lon="19.6801303"><ele>52.0</ele><time>2026-05-03T11:26:47.705Z</time></trkpt><trkpt lat="41.4081463" lon="19.6801094"><ele>52.0</ele><time>2026-05-03T11:26:56.707Z</time></trkpt><trkpt lat="41.4082021" lon="19.6801762"><ele>52.0</ele><time>2026-05-03T11:27:15.697Z</time></trkpt><trkpt lat="41.4082166" lon="19.6802783"><ele>51.285714285714285</ele><time>2026-05-03T11:27:29.702Z</time></trkpt><trkpt lat="41.4082092" lon="19.6803621"><ele>50.57142857142858</ele><time>2026-05-03T11:27:34.698Z</time></trkpt><trkpt lat="41.408172" lon="19.680431"><ele>49.85714285714286</ele><time>2026-05-03T11:27:39.697Z</time></trkpt><trkpt lat="41.4081068" lon="19.6804454"><ele>49.14285714285714</ele><time>2026-05-03T11:28:29.699Z</time></trkpt><trkpt lat="41.4080388" lon="19.6804254"><ele>48.42857142857143</ele><time>2026-05-03T12:12:26.702Z</time></trkpt><trkpt lat="41.4079815" lon="19.68039"><ele>47.714285714285715</ele><time>2026-05-03T12:12:34.702Z</time></trkpt><trkpt lat="41.4080463" lon="19.6804193"><ele>47.0</ele><time>2026-05-03T12:14:35.702Z</time></trkpt><trkpt lat="41.4081074" lon="19.6804643"><ele>47.0</ele><time>2026-05-03T12:15:28.703Z</time></trkpt><trkpt lat="41.4081384" lon="19.6803882"><ele>47.0</ele><time>2026-05-03T12:15:37.702Z</time></trkpt><trkpt lat="41.4081994" lon="19.6803233"><ele>47.0</ele><time>2026-05-03T12:15:42.703Z</time></trkpt><trkpt lat="41.4082346" lon="19.6802455"><ele>47.0</ele><time>2026-05-03T12:15:48.619Z</time></trkpt><trkpt lat="41.4082029" lon="19.6803247"><ele>47.0</ele><time>2026-05-03T12:16:06.703Z</time></trkpt><trkpt lat="41.4081497" lon="19.6803701"><ele>47.0</ele><time>2026-05-03T12:16:11.703Z</time></trkpt><trkpt lat="41.4081309" lon="19.6804623"><ele>47.0</ele><time>2026-05-03T12:16:18.702Z</time></trkpt><trkpt lat="41.4081372" lon="19.6803631"><ele>47.0</ele><time>2026-05-03T12:21:00.703Z</time></trkpt><trkpt lat="41.4081733" lon="19.6802707"><ele>47.0</ele><time>2026-05-03T12:21:04.703Z</time></trkpt><trkpt lat="41.4082139" lon="19.6801937"><ele>47.0</ele><time>2026-05-03T12:21:09.703Z</time></trkpt><trkpt lat="41.4081385" lon="19.6801962"><ele>47.0</ele><time>2026-05-03T12:23:01.703Z</time></trkpt><trkpt lat="41.4081928" lon="19.6802433"><ele>47.0</ele><time>2026-05-03T12:23:06.703Z</time></trkpt><trkpt lat="41.4082648" lon="19.6802342"><ele>47.0</ele><time>2026-05-03T12:23:08.702Z</time></trkpt><trkpt lat="41.4083367" lon="19.6802404"><ele>47.0</ele><time>2026-05-03T12:23:10.702Z</time></trkpt><trkpt lat="41.4084559" lon="19.6802188"><ele>47.0</ele><time>2026-05-03T12:23:12.703Z</time></trkpt><trkpt lat="41.4085191" lon="19.6802795"><ele>47.0</ele><time>2026-05-03T12:23:14.703Z</time></trkpt><trkpt lat="41.4086338" lon="19.6803661"><ele>47.0</ele><time>2026-05-03T12:23:16.703Z</time></trkpt><trkpt lat="41.4086941" lon="19.6804307"><ele>47.0</ele><time>2026-05-03T12:23:17.703Z</time></trkpt><trkpt lat="41.4087603" lon="19.6805167"><ele>47.0</ele><time>2026-05-03T12:23:18.703Z</time></trkpt><trkpt lat="41.4088329" lon="19.6806109"><ele>46.6</ele><time>2026-05-03T12:23:19.703Z</time></trkpt><trkpt lat="41.4089032" lon="19.6807069"><ele>46.2</ele><time>2026-05-03T12:23:20.703Z</time></trkpt><trkpt lat="41.4089832" lon="19.6808065"><ele>45.8</ele><time>2026-05-03T12:23:21.702Z</time></trkpt><trkpt lat="41.409065" lon="19.6809141"><ele>45.4</ele><time>2026-05-03T12:23:22.703Z</time></trkpt><trkpt lat="41.40915" lon="19.681028"><ele>45.0</ele><time>2026-05-03T12:23:23.703Z</time></trkpt><trkpt lat="41.4092404" lon="19.6811472"><ele>45.0</ele><time>2026-05-03T12:23:24.702Z</time></trkpt><trkpt lat="41.4093351" lon="19.6812675"><ele>45.0</ele><time>2026-05-03T12:23:25.703Z</time></trkpt><trkpt lat="41.4094286" lon="19.6813907"><ele>45.0</ele><time>2026-05-03T12:23:26.703Z</time></trkpt><trkpt lat="41.4095191" lon="19.6815124"><ele>45.0</ele><time>2026-05-03T12:23:27.703Z</time></trkpt><trkpt lat="41.4096118" lon="19.6816338"><ele>44.75</ele><time>2026-05-03T12:23:28.703Z</time></trkpt><trkpt lat="41.4097058" lon="19.6817605"><ele>44.5</ele><time>2026-05-03T12:23:29.703Z</time></trkpt><trkpt lat="41.4097956" lon="19.6818885"><ele>44.25</ele><time>2026-05-03T12:23:30.702Z</time></trkpt><trkpt lat="41.4098902" lon="19.6820218"><ele>44.0</ele><time>2026-05-03T12:23:31.703Z</time></trkpt><trkpt lat="41.409984" lon="19.6821495"><ele>44.0</ele><time>2026-05-03T12:23:32.703Z</time></trkpt><trkpt lat="41.4100775" lon="19.682276"><ele>44.0</ele><time>2026-05-03T12:23:33.702Z</time></trkpt><trkpt lat="41.4101692" lon="19.6824101"><ele>44.0</ele><time>2026-05-03T12:23:34.702Z</time></trkpt><trkpt lat="41.410261" lon="19.6825456"><ele>44.0</ele><time>2026-05-03T12:23:35.702Z</time></trkpt><trkpt lat="41.4103489" lon="19.6826787"><ele>44.25</ele><time>2026-05-03T12:23:36.703Z</time></trkpt><trkpt lat="41.4104397" lon="19.6828135"><ele>44.5</ele><time>2026-05-03T12:23:37.703Z</time></trkpt><trkpt lat="41.4105334" lon="19.6829474"><ele>44.75</ele><time>2026-05-03T12:23:38.703Z</time></trkpt><trkpt lat="41.4106272" lon="19.6830812"><ele>45.0</ele><time>2026-05-03T12:23:39.703Z</time></trkpt><trkpt lat="41.4107219" lon="19.6832159"><ele>45.0</ele><time>2026-05-03T12:23:40.702Z</time></trkpt><trkpt lat="41.4108175" lon="19.6833498"><ele>45.0</ele><time>2026-05-03T12:23:41.702Z</time></trkpt><trkpt lat="41.4109128" lon="19.6834859"><ele>45.0</ele><time>2026-05-03T12:23:42.703Z</time></trkpt><trkpt lat="41.4110113" lon="19.683622"><ele>45.0</ele><time>2026-05-03T12:23:43.703Z</time></trkpt><trkpt lat="41.4111111" lon="19.6837525"><ele>44.5</ele><time>2026-05-03T12:23:44.702Z</time></trkpt><trkpt lat="41.4112149" lon="19.6838824"><ele>44.0</ele><time>2026-05-03T12:23:45.702Z</time></trkpt><trkpt lat="41.4113208" lon="19.6840023"><ele>43.5</ele><time>2026-05-03T12:23:46.702Z</time></trkpt><trkpt lat="41.4114282" lon="19.6841213"><ele>43.0</ele><time>2026-05-03T12:23:47.703Z</time></trkpt><trkpt lat="41.4115356" lon="19.6842379"><ele>43.0</ele><time>2026-05-03T12:23:48.702Z</time></trkpt><trkpt lat="41.4116447" lon="19.6843554"><ele>43.0</ele><time>2026-05-03T12:23:49.702Z</time></trkpt><trkpt lat="41.411751" lon="19.6844722"><ele>43.0</ele><time>2026-05-03T12:23:50.702Z</time></trkpt><trkpt lat="41.41186" lon="19.6845865"><ele>43.0</ele><time>2026-05-03T12:23:51.703Z</time></trkpt><trkpt lat="41.4119694" lon="19.6846965"><ele>42.5</ele><time>2026-05-03T12:23:52.702Z</time></trkpt><trkpt lat="41.412085" lon="19.6848009"><ele>42.0</ele><time>2026-05-03T12:23:53.702Z</time></trkpt><trkpt lat="41.4122094" lon="19.684897"><ele>41.5</ele><time>2026-05-03T12:23:54.702Z</time></trkpt><trkpt lat="41.412338" lon="19.6849843"><ele>41.0</ele><time>2026-05-03T12:23:55.703Z</time></trkpt><trkpt lat="41.4124684" lon="19.6850639"><ele>41.0</ele><time>2026-05-03T12:23:56.703Z</time></trkpt><trkpt lat="41.412602" lon="19.6851337"><ele>41.0</ele><time>2026-05-03T12:23:57.702Z</time></trkpt><trkpt lat="41.4127365" lon="19.6851977"><ele>41.0</ele><time>2026-05-03T12:23:58.702Z</time></trkpt><trkpt lat="41.4128728" lon="19.6852621"><ele>41.0</ele><time>2026-05-03T12:23:59.703Z</time></trkpt><trkpt lat="41.4130106" lon="19.685326"><ele>40.5</ele><time>2026-05-03T12:24:00.703Z</time></trkpt><trkpt lat="41.4131484" lon="19.6853856"><ele>40.0</ele><time>2026-05-03T12:24:01.702Z</time></trkpt><trkpt lat="41.4132845" lon="19.685446"><ele>39.5</ele><time>2026-05-03T12:24:02.702Z</time></trkpt><trkpt lat="41.4134252" lon="19.6855032"><ele>39.0</ele><time>2026-05-03T12:24:03.703Z</time></trkpt><trkpt lat="41.4135679" lon="19.6855641"><ele>39.0</ele><time>2026-05-03T12:24:04.702Z</time></trkpt><trkpt lat="41.4136991" lon="19.6856228"><ele>39.0</ele><time>2026-05-03T12:24:05.702Z</time></trkpt><trkpt lat="41.4138308" lon="19.6856795"><ele>39.0</ele><time>2026-05-03T12:24:06.702Z</time></trkpt><trkpt lat="41.4139656" lon="19.6857391"><ele>39.0</ele><time>2026-05-03T12:24:07.702Z</time></trkpt><trkpt lat="41.4141032" lon="19.6857985"><ele>38.5</ele><time>2026-05-03T12:24:08.702Z</time></trkpt><trkpt lat="41.4142284" lon="19.6858655"><ele>38.0</ele><time>2026-05-03T12:24:09.703Z</time></trkpt><trkpt lat="41.4143649" lon="19.685927"><ele>37.5</ele><time>2026-05-03T12:24:10.703Z</time></trkpt><trkpt lat="41.4144962" lon="19.6859866"><ele>37.0</ele><time>2026-05-03T12:24:11.703Z</time></trkpt><trkpt lat="41.4146303" lon="19.6860392"><ele>36.25</ele><time>2026-05-03T12:24:12.702Z</time></trkpt><trkpt lat="41.4147675" lon="19.6860994"><ele>35.5</ele><time>2026-05-03T12:24:13.703Z</time></trkpt><trkpt lat="41.4148935" lon="19.6861552"><ele>34.75</ele><time>2026-05-03T12:24:14.702Z</time></trkpt><trkpt lat="41.4150264" lon="19.6861978"><ele>34.0</ele><time>2026-05-03T12:24:15.703Z</time></trkpt><trkpt lat="41.4151579" lon="19.6862529"><ele>34.0</ele><time>2026-05-03T12:24:16.703Z</time></trkpt><trkpt lat="41.4152923" lon="19.6863121"><ele>34.0</ele><time>2026-05-03T12:24:17.703Z</time></trkpt><trkpt lat="41.4154238" lon="19.6863725"><ele>34.0</ele><time>2026-05-03T12:24:18.703Z</time></trkpt><trkpt lat="41.4155592" lon="19.6864326"><ele>34.0</ele><time>2026-05-03T12:24:19.702Z</time></trkpt><trkpt lat="41.4157012" lon="19.6864897"><ele>34.25</ele><time>2026-05-03T12:24:20.702Z</time></trkpt><trkpt lat="41.4158413" lon="19.6865555"><ele>34.5</ele><time>2026-05-03T12:24:21.703Z</time></trkpt><trkpt lat="41.415982" lon="19.6866148"><ele>34.75</ele><time>2026-05-03T12:24:22.703Z</time></trkpt><trkpt lat="41.4161247" lon="19.6866793"><ele>35.0</ele><time>2026-05-03T12:24:23.703Z</time></trkpt><trkpt lat="41.4162619" lon="19.6867397"><ele>34.5</ele><time>2026-05-03T12:24:24.702Z</time></trkpt><trkpt lat="41.4163995" lon="19.6868032"><ele>34.0</ele><time>2026-05-03T12:24:25.703Z</time></trkpt><trkpt lat="41.4165373" lon="19.686873"><ele>33.5</ele><time>2026-05-03T12:24:26.703Z</time></trkpt><trkpt lat="41.4166725" lon="19.6869297"><ele>33.0</ele><time>2026-05-03T12:24:27.703Z</time></trkpt><trkpt lat="41.4168068" lon="19.6869854"><ele>33.0</ele><time>2026-05-03T12:24:28.703Z</time></trkpt><trkpt lat="41.4169412" lon="19.6870417"><ele>33.0</ele><time>2026-05-03T12:24:29.703Z</time></trkpt><trkpt lat="41.4170812" lon="19.6870918"><ele>33.0</ele><time>2026-05-03T12:24:30.703Z</time></trkpt><trkpt lat="41.417223" lon="19.6871331"><ele>33.0</ele><time>2026-05-03T12:24:31.702Z</time></trkpt><trkpt lat="41.417364" lon="19.6871622"><ele>33.0</ele><time>2026-05-03T12:24:32.703Z</time></trkpt><trkpt lat="41.4175182" lon="19.6871868"><ele>33.0</ele><time>2026-05-03T12:24:33.703Z</time></trkpt><trkpt lat="41.41767" lon="19.687195"><ele>33.0</ele><time>2026-05-03T12:24:34.702Z</time></trkpt><trkpt lat="41.4178142" lon="19.6872068"><ele>33.0</ele><time>2026-05-03T12:24:35.703Z</time></trkpt><trkpt lat="41.4179596" lon="19.6872433"><ele>33.0</ele><time>2026-05-03T12:24:36.702Z</time></trkpt><trkpt lat="41.4181013" lon="19.6872587"><ele>33.0</ele><time>2026-05-03T12:24:37.703Z</time></trkpt><trkpt lat="41.4182435" lon="19.6872737"><ele>33.0</ele><time>2026-05-03T12:24:38.703Z</time></trkpt><trkpt lat="41.4183948" lon="19.687284"><ele>33.0</ele><time>2026-05-03T12:24:39.703Z</time></trkpt><trkpt lat="41.4185462" lon="19.6872924"><ele>33.0</ele><time>2026-05-03T12:24:40.702Z</time></trkpt><trkpt lat="41.4186941" lon="19.6872876"><ele>33.0</ele><time>2026-05-03T12:24:41.702Z</time></trkpt><trkpt lat="41.41884" lon="19.6872873"><ele>33.0</ele><time>2026-05-03T12:24:42.703Z</time></trkpt><trkpt lat="41.4189877" lon="19.6872993"><ele>33.0</ele><time>2026-05-03T12:24:43.703Z</time></trkpt><trkpt lat="41.419137" lon="19.6873077"><ele>33.0</ele><time>2026-05-03T12:24:44.702Z</time></trkpt><trkpt lat="41.4192884" lon="19.6873141"><ele>33.0</ele><time>2026-05-03T12:24:45.703Z</time></trkpt><trkpt lat="41.419435" lon="19.6873184"><ele>33.0</ele><time>2026-05-03T12:24:46.702Z</time></trkpt><trkpt lat="41.4195857" lon="19.6873285"><ele>33.0</ele><time>2026-05-03T12:24:47.703Z</time></trkpt><trkpt lat="41.4197391" lon="19.6873346"><ele>33.0</ele><time>2026-05-03T12:24:48.702Z</time></trkpt><trkpt lat="41.4198977" lon="19.6873466"><ele>33.0</ele><time>2026-05-03T12:24:49.702Z</time></trkpt><trkpt lat="41.4200544" lon="19.687354"><ele>33.0</ele><time>2026-05-03T12:24:50.703Z</time></trkpt><trkpt lat="41.4202116" lon="19.687364"><ele>33.0</ele><time>2026-05-03T12:24:51.703Z</time></trkpt><trkpt lat="41.4203677" lon="19.6873749"><ele>33.0</ele><time>2026-05-03T12:24:52.702Z</time></trkpt><trkpt lat="41.4205242" lon="19.6873795"><ele>33.0</ele><time>2026-05-03T12:24:53.703Z</time></trkpt><trkpt lat="41.4206697" lon="19.6873866"><ele>33.0</ele><time>2026-05-03T12:24:54.702Z</time></trkpt><trkpt lat="41.4208029" lon="19.6873911"><ele>33.0</ele><time>2026-05-03T12:24:55.703Z</time></trkpt><trkpt lat="41.4209344" lon="19.6873942"><ele>33.0</ele><time>2026-05-03T12:24:56.703Z</time></trkpt><trkpt lat="41.4210669" lon="19.6874013"><ele>33.0</ele><time>2026-05-03T12:24:57.702Z</time></trkpt><trkpt lat="41.4211978" lon="19.6874092"><ele>33.0</ele><time>2026-05-03T12:24:58.702Z</time></trkpt><trkpt lat="41.4213284" lon="19.6874151"><ele>33.0</ele><time>2026-05-03T12:24:59.702Z</time></trkpt><trkpt lat="41.4214602" lon="19.6874209"><ele>33.0</ele><time>2026-05-03T12:25:00.703Z</time></trkpt><trkpt lat="41.4215938" lon="19.6874362"><ele>33.0</ele><time>2026-05-03T12:25:01.702Z</time></trkpt><trkpt lat="41.4217304" lon="19.6874392"><ele>33.0</ele><time>2026-05-03T12:25:02.703Z</time></trkpt><trkpt lat="41.4218676" lon="19.6874454"><ele>33.0</ele><time>2026-05-03T12:25:03.702Z</time></trkpt><trkpt lat="41.4220076" lon="19.6874522"><ele>33.0</ele><time>2026-05-03T12:25:04.702Z</time></trkpt><trkpt lat="41.4221536" lon="19.6874641"><ele>32.5</ele><time>2026-05-03T12:25:05.703Z</time></trkpt><trkpt lat="41.4222977" lon="19.6874582"><ele>32.0</ele><time>2026-05-03T12:25:06.703Z</time></trkpt><trkpt lat="41.4224413" lon="19.6874602"><ele>31.5</ele><time>2026-05-03T12:25:07.703Z</time></trkpt><trkpt lat="41.4225817" lon="19.6874661"><ele>31.0</ele><time>2026-05-03T12:25:08.702Z</time></trkpt><trkpt lat="41.4227128" lon="19.6874721"><ele>31.0</ele><time>2026-05-03T12:25:09.703Z</time></trkpt><trkpt lat="41.4228474" lon="19.687482"><ele>31.0</ele><time>2026-05-03T12:25:10.702Z</time></trkpt><trkpt lat="41.4229758" lon="19.6874918"><ele>31.0</ele><time>2026-05-03T12:25:11.703Z</time></trkpt><trkpt lat="41.4232919" lon="19.6874858"><ele>31.333333333333336</ele><time>2026-05-03T12:25:13.983Z</time></trkpt><trkpt lat="41.4235241" lon="19.6875009"><ele>31.666666666666664</ele><time>2026-05-03T12:25:15.704Z</time></trkpt><trkpt lat="41.4236538" lon="19.6875076"><ele>32.0</ele><time>2026-05-03T12:25:16.704Z</time></trkpt><trkpt lat="41.4237877" lon="19.687517"><ele>31.333333333333332</ele><time>2026-05-03T12:25:17.704Z</time></trkpt><trkpt lat="41.4239383" lon="19.6875195"><ele>30.666666666666664</ele><time>2026-05-03T12:25:18.704Z</time></trkpt><trkpt lat="41.4241111" lon="19.6875176"><ele>30.0</ele><time>2026-05-03T12:25:19.703Z</time></trkpt><trkpt lat="41.424293" lon="19.6875284"><ele>30.0</ele><time>2026-05-03T12:25:20.703Z</time></trkpt><trkpt lat="41.424471" lon="19.6875507"><ele>30.0</ele><time>2026-05-03T12:25:21.704Z</time></trkpt><trkpt lat="41.4246499" lon="19.6875663"><ele>30.0</ele><time>2026-05-03T12:25:22.703Z</time></trkpt><trkpt lat="41.4248266" lon="19.6875785"><ele>30.333333333333336</ele><time>2026-05-03T12:25:23.703Z</time></trkpt><trkpt lat="41.4249989" lon="19.6875892"><ele>30.666666666666668</ele><time>2026-05-03T12:25:24.703Z</time></trkpt><trkpt lat="41.425167" lon="19.6876011"><ele>31.0</ele><time>2026-05-03T12:25:25.704Z</time></trkpt><trkpt lat="41.4253367" lon="19.6876115"><ele>31.333333333333336</ele><time>2026-05-03T12:25:26.704Z</time></trkpt><trkpt lat="41.4255065" lon="19.6876241"><ele>31.666666666666664</ele><time>2026-05-03T12:25:27.704Z</time></trkpt><trkpt lat="41.4256788" lon="19.6876346"><ele>32.0</ele><time>2026-05-03T12:25:28.704Z</time></trkpt><trkpt lat="41.4258514" lon="19.6876436"><ele>32.0</ele><time>2026-05-03T12:25:29.704Z</time></trkpt><trkpt lat="41.4260274" lon="19.6876512"><ele>32.0</ele><time>2026-05-03T12:25:30.704Z</time></trkpt><trkpt lat="41.4262031" lon="19.6876581"><ele>32.0</ele><time>2026-05-03T12:25:31.703Z</time></trkpt><trkpt lat="41.4263784" lon="19.6876709"><ele>32.33333333333333</ele><time>2026-05-03T12:25:32.703Z</time></trkpt><trkpt lat="41.4265552" lon="19.6876812"><ele>32.666666666666664</ele><time>2026-05-03T12:25:33.703Z</time></trkpt><trkpt lat="41.4267285" lon="19.6876886"><ele>33.0</ele><time>2026-05-03T12:25:34.704Z</time></trkpt><trkpt lat="41.4269063" lon="19.6876967"><ele>33.0</ele><time>2026-05-03T12:25:35.703Z</time></trkpt><trkpt lat="41.4270784" lon="19.6877084"><ele>33.0</ele><time>2026-05-03T12:25:36.703Z</time></trkpt><trkpt lat="41.42725" lon="19.6877178"><ele>33.0</ele><time>2026-05-03T12:25:37.704Z</time></trkpt><trkpt lat="41.4274152" lon="19.6877289"><ele>33.0</ele><time>2026-05-03T12:25:38.704Z</time></trkpt><trkpt lat="41.4275679" lon="19.6877383"><ele>33.0</ele><time>2026-05-03T12:25:39.703Z</time></trkpt><trkpt lat="41.4277178" lon="19.687747"><ele>33.0</ele><time>2026-05-03T12:25:40.704Z</time></trkpt><trkpt lat="41.4278708" lon="19.6877541"><ele>32.333333333333336</ele><time>2026-05-03T12:25:41.704Z</time></trkpt><trkpt lat="41.4280243" lon="19.6877602"><ele>31.666666666666668</ele><time>2026-05-03T12:25:42.703Z</time></trkpt><trkpt lat="41.4281778" lon="19.6877682"><ele>31.0</ele><time>2026-05-03T12:25:43.704Z</time></trkpt><trkpt lat="41.4283359" lon="19.6877767"><ele>31.0</ele><time>2026-05-03T12:25:44.703Z</time></trkpt><trkpt lat="41.4284998" lon="19.6877871"><ele>31.0</ele><time>2026-05-03T12:25:45.704Z</time></trkpt><trkpt lat="41.4286673" lon="19.6877931"><ele>31.0</ele><time>2026-05-03T12:25:46.704Z</time></trkpt><trkpt lat="41.4288362" lon="19.6878004"><ele>30.666666666666668</ele><time>2026-05-03T12:25:47.704Z</time></trkpt><trkpt lat="41.4290083" lon="19.6878087"><ele>30.333333333333336</ele><time>2026-05-03T12:25:48.704Z</time></trkpt><trkpt lat="41.4291834" lon="19.6878198"><ele>30.0</ele><time>2026-05-03T12:25:49.704Z</time></trkpt><trkpt lat="41.4293545" lon="19.6878297"><ele>30.0</ele><time>2026-05-03T12:25:50.704Z</time></trkpt><trkpt lat="41.4295344" lon="19.6878389"><ele>30.0</ele><time>2026-05-03T12:25:51.704Z</time></trkpt><trkpt lat="41.4297085" lon="19.6878478"><ele>30.0</ele><time>2026-05-03T12:25:52.704Z</time></trkpt><trkpt lat="41.4298853" lon="19.6878537"><ele>30.333333333333336</ele><time>2026-05-03T12:25:53.704Z</time></trkpt><trkpt lat="41.4300545" lon="19.6878634"><ele>30.666666666666668</ele><time>2026-05-03T12:25:54.703Z</time></trkpt><trkpt lat="41.4302231" lon="19.6878702"><ele>31.0</ele><time>2026-05-03T12:25:55.703Z</time></trkpt><trkpt lat="41.43039" lon="19.687879"><ele>30.666666666666668</ele><time>2026-05-03T12:25:56.703Z</time></trkpt><trkpt lat="41.4305531" lon="19.6878886"><ele>30.333333333333336</ele><time>2026-05-03T12:25:57.704Z</time></trkpt><trkpt lat="41.4307149" lon="19.6878963"><ele>30.0</ele><time>2026-05-03T12:25:58.704Z</time></trkpt><trkpt lat="41.4308774" lon="19.6879029"><ele>30.0</ele><time>2026-05-03T12:25:59.703Z</time></trkpt><trkpt lat="41.4310384" lon="19.6879124"><ele>30.0</ele><time>2026-05-03T12:26:00.704Z</time></trkpt><trkpt lat="41.4311985" lon="19.6879205"><ele>30.0</ele><time>2026-05-03T12:26:01.703Z</time></trkpt><trkpt lat="41.4313607" lon="19.6879272"><ele>29.666666666666664</ele><time>2026-05-03T12:26:02.704Z</time></trkpt><trkpt lat="41.4315251" lon="19.6879326"><ele>29.333333333333332</ele><time>2026-05-03T12:26:03.704Z</time></trkpt><trkpt lat="41.4316866" lon="19.6879423"><ele>29.0</ele><time>2026-05-03T12:26:04.703Z</time></trkpt><trkpt lat="41.4318458" lon="19.6879529"><ele>29.0</ele><time>2026-05-03T12:26:05.703Z</time></trkpt><trkpt lat="41.4320044" lon="19.6879635"><ele>29.0</ele><time>2026-05-03T12:26:06.703Z</time></trkpt><trkpt lat="41.432166" lon="19.6879713"><ele>29.0</ele><time>2026-05-03T12:26:07.704Z</time></trkpt><trkpt lat="41.4323267" lon="19.6879806"><ele>29.0</ele><time>2026-05-03T12:26:08.704Z</time></trkpt><trkpt lat="41.4324864" lon="19.6879909"><ele>29.0</ele><time>2026-05-03T12:26:09.704Z</time></trkpt><trkpt lat="41.4326465" lon="19.6880001"><ele>29.0</ele><time>2026-05-03T12:26:10.704Z</time></trkpt><trkpt lat="41.4328035" lon="19.688009"><ele>29.0</ele><time>2026-05-03T12:26:11.703Z</time></trkpt><trkpt lat="41.4329584" lon="19.688022"><ele>29.0</ele><time>2026-05-03T12:26:12.704Z</time></trkpt><trkpt lat="41.4331166" lon="19.6880344"><ele>29.0</ele><time>2026-05-03T12:26:13.703Z</time></trkpt><trkpt lat="41.433273" lon="19.6880469"><ele>28.666666666666664</ele><time>2026-05-03T12:26:14.704Z</time></trkpt><trkpt lat="41.433424" lon="19.688058"><ele>28.333333333333336</ele><time>2026-05-03T12:26:15.704Z</time></trkpt><trkpt lat="41.4335771" lon="19.6880718"><ele>28.0</ele><time>2026-05-03T12:26:16.704Z</time></trkpt><trkpt lat="41.4337351" lon="19.6880799"><ele>28.0</ele><time>2026-05-03T12:26:17.703Z</time></trkpt><trkpt lat="41.4338981" lon="19.6880986"><ele>28.0</ele><time>2026-05-03T12:26:18.704Z</time></trkpt><trkpt lat="41.4340592" lon="19.6881104"><ele>28.0</ele><time>2026-05-03T12:26:19.704Z</time></trkpt><trkpt lat="41.434227" lon="19.688126"><ele>28.0</ele><time>2026-05-03T12:26:20.703Z</time></trkpt><trkpt lat="41.4343834" lon="19.6881365"><ele>28.0</ele><time>2026-05-03T12:26:21.704Z</time></trkpt><trkpt lat="41.4345479" lon="19.6881483"><ele>28.0</ele><time>2026-05-03T12:26:22.703Z</time></trkpt><trkpt lat="41.4347125" lon="19.6881552"><ele>28.666666666666668</ele><time>2026-05-03T12:26:23.704Z</time></trkpt><trkpt lat="41.4348822" lon="19.6881647"><ele>29.333333333333336</ele><time>2026-05-03T12:26:24.704Z</time></trkpt><trkpt lat="41.4350446" lon="19.6881755"><ele>30.0</ele><time>2026-05-03T12:26:25.704Z</time></trkpt><trkpt lat="41.4352184" lon="19.6881852"><ele>30.0</ele><time>2026-05-03T12:26:26.703Z</time></trkpt><trkpt lat="41.4353924" lon="19.6881922"><ele>30.0</ele><time>2026-05-03T12:26:27.704Z</time></trkpt><trkpt lat="41.435572" lon="19.6882038"><ele>30.0</ele><time>2026-05-03T12:26:28.704Z</time></trkpt><trkpt lat="41.4357493" lon="19.6882194"><ele>29.666666666666664</ele><time>2026-05-03T12:26:29.704Z</time></trkpt><trkpt lat="41.4359241" lon="19.6882307"><ele>29.333333333333332</ele><time>2026-05-03T12:26:30.704Z</time></trkpt><trkpt lat="41.4361029" lon="19.6882354"><ele>29.0</ele><time>2026-05-03T12:26:31.703Z</time></trkpt><trkpt lat="41.4362933" lon="19.6882331"><ele>28.333333333333332</ele><time>2026-05-03T12:26:32.703Z</time></trkpt><trkpt lat="41.4364637" lon="19.6882442"><ele>27.666666666666664</ele><time>2026-05-03T12:26:33.703Z</time></trkpt><trkpt lat="41.4366369" lon="19.688249"><ele>27.0</ele><time>2026-05-03T12:26:34.703Z</time></trkpt><trkpt lat="41.4368041" lon="19.6882585"><ele>27.0</ele><time>2026-05-03T12:26:35.704Z</time></trkpt><trkpt lat="41.4369718" lon="19.6882739"><ele>27.0</ele><time>2026-05-03T12:26:36.703Z</time></trkpt><trkpt lat="41.437145" lon="19.6882831"><ele>27.0</ele><time>2026-05-03T12:26:37.703Z</time></trkpt><trkpt lat="41.4373085" lon="19.6882919"><ele>27.333333333333336</ele><time>2026-05-03T12:26:38.704Z</time></trkpt><trkpt lat="41.4374868" lon="19.6883025"><ele>27.666666666666668</ele><time>2026-05-03T12:26:39.703Z</time></trkpt><trkpt lat="41.4376553" lon="19.6883153"><ele>28.0</ele><time>2026-05-03T12:26:40.704Z</time></trkpt><trkpt lat="41.4378205" lon="19.6883305"><ele>27.666666666666668</ele><time>2026-05-03T12:26:41.704Z</time></trkpt><trkpt lat="41.4379888" lon="19.6883357"><ele>27.333333333333336</ele><time>2026-05-03T12:26:42.703Z</time></trkpt><trkpt lat="41.4381503" lon="19.688328"><ele>27.0</ele><time>2026-05-03T12:26:43.703Z</time></trkpt><trkpt lat="41.4383201" lon="19.6883333"><ele>27.0</ele><time>2026-05-03T12:26:44.704Z</time></trkpt><trkpt lat="41.4384879" lon="19.68834"><ele>27.0</ele><time>2026-05-03T12:26:45.704Z</time></trkpt><trkpt lat="41.4386528" lon="19.6883382"><ele>27.0</ele><time>2026-05-03T12:26:46.704Z</time></trkpt><trkpt lat="41.4388268" lon="19.6883409"><ele>27.0</ele><time>2026-05-03T12:26:47.703Z</time></trkpt><trkpt lat="41.4389898" lon="19.6883492"><ele>27.0</ele><time>2026-05-03T12:26:48.703Z</time></trkpt><trkpt lat="41.4391594" lon="19.68836"><ele>27.0</ele><time>2026-05-03T12:26:49.703Z</time></trkpt><trkpt lat="41.4393259" lon="19.688371"><ele>27.0</ele><time>2026-05-03T12:26:50.703Z</time></trkpt><trkpt lat="41.439493" lon="19.6883795"><ele>27.0</ele><time>2026-05-03T12:26:51.703Z</time></trkpt><trkpt lat="41.4396599" lon="19.6883877"><ele>27.0</ele><time>2026-05-03T12:26:52.704Z</time></trkpt><trkpt lat="41.4398298" lon="19.688404"><ele>27.0</ele><time>2026-05-03T12:26:53.703Z</time></trkpt><trkpt lat="41.4399926" lon="19.688417"><ele>27.0</ele><time>2026-05-03T12:26:54.704Z</time></trkpt><trkpt lat="41.4401596" lon="19.6884246"><ele>27.0</ele><time>2026-05-03T12:26:55.703Z</time></trkpt><trkpt lat="41.4403274" lon="19.6884323"><ele>26.666666666666664</ele><time>2026-05-03T12:26:56.704Z</time></trkpt><trkpt lat="41.4404974" lon="19.688445"><ele>26.333333333333332</ele><time>2026-05-03T12:26:57.704Z</time></trkpt><trkpt lat="41.4406638" lon="19.6884555"><ele>26.0</ele><time>2026-05-03T12:26:58.704Z</time></trkpt><trkpt lat="41.4408278" lon="19.688456"><ele>26.0</ele><time>2026-05-03T12:26:59.704Z</time></trkpt><trkpt lat="41.4409954" lon="19.6884667"><ele>26.0</ele><time>2026-05-03T12:27:00.704Z</time></trkpt><trkpt lat="41.441167" lon="19.688478"><ele>26.0</ele><time>2026-05-03T12:27:01.703Z</time></trkpt><trkpt lat="41.4413338" lon="19.6884888"><ele>26.0</ele><time>2026-05-03T12:27:02.704Z</time></trkpt><trkpt lat="41.4414971" lon="19.6884931"><ele>26.0</ele><time>2026-05-03T12:27:03.704Z</time></trkpt><trkpt lat="41.4416693" lon="19.6884996"><ele>26.0</ele><time>2026-05-03T12:27:04.704Z</time></trkpt><trkpt lat="41.4418351" lon="19.688505"><ele>26.0</ele><time>2026-05-03T12:27:05.703Z</time></trkpt><trkpt lat="41.4420033" lon="19.6885102"><ele>26.0</ele><time>2026-05-03T12:27:06.704Z</time></trkpt><trkpt lat="41.4421637" lon="19.6885185"><ele>26.0</ele><time>2026-05-03T12:27:07.704Z</time></trkpt><trkpt lat="41.4423245" lon="19.6885275"><ele>26.666666666666664</ele><time>2026-05-03T12:27:08.703Z</time></trkpt><trkpt lat="41.4424852" lon="19.6885373"><ele>27.333333333333336</ele><time>2026-05-03T12:27:09.704Z</time></trkpt><trkpt lat="41.4426514" lon="19.6885466"><ele>28.0</ele><time>2026-05-03T12:27:10.704Z</time></trkpt><trkpt lat="41.4428132" lon="19.6885518"><ele>27.333333333333336</ele><time>2026-05-03T12:27:11.703Z</time></trkpt><trkpt lat="41.442974" lon="19.6885534"><ele>26.666666666666664</ele><time>2026-05-03T12:27:12.704Z</time></trkpt><trkpt lat="41.4431308" lon="19.6885621"><ele>26.0</ele><time>2026-05-03T12:27:13.703Z</time></trkpt><trkpt lat="41.4432889" lon="19.6885716"><ele>26.0</ele><time>2026-05-03T12:27:14.704Z</time></trkpt><trkpt lat="41.443443" lon="19.6885808"><ele>26.0</ele><time>2026-05-03T12:27:15.703Z</time></trkpt><trkpt lat="41.443603" lon="19.6885883"><ele>26.0</ele><time>2026-05-03T12:27:16.704Z</time></trkpt><trkpt lat="41.4437726" lon="19.6886026"><ele>26.0</ele><time>2026-05-03T12:27:17.704Z</time></trkpt><trkpt lat="41.443934" lon="19.6886116"><ele>26.0</ele><time>2026-05-03T12:27:18.703Z</time></trkpt><trkpt lat="41.4440977" lon="19.6886227"><ele>26.0</ele><time>2026-05-03T12:27:19.704Z</time></trkpt><trkpt lat="41.444263" lon="19.6886332"><ele>26.0</ele><time>2026-05-03T12:27:20.704Z</time></trkpt><trkpt lat="41.4444294" lon="19.6886442"><ele>26.0</ele><time>2026-05-03T12:27:21.704Z</time></trkpt><trkpt lat="41.4445945" lon="19.6886498"><ele>26.0</ele><time>2026-05-03T12:27:22.703Z</time></trkpt><trkpt lat="41.4447635" lon="19.688649"><ele>26.0</ele><time>2026-05-03T12:27:23.703Z</time></trkpt><trkpt lat="41.4449366" lon="19.6886554"><ele>26.0</ele><time>2026-05-03T12:27:24.703Z</time></trkpt><trkpt lat="41.4451029" lon="19.6886628"><ele>26.0</ele><time>2026-05-03T12:27:25.704Z</time></trkpt><trkpt lat="41.4452709" lon="19.6886725"><ele>26.0</ele><time>2026-05-03T12:27:26.704Z</time></trkpt><trkpt lat="41.4454397" lon="19.6886801"><ele>26.0</ele><time>2026-05-03T12:27:27.703Z</time></trkpt><trkpt lat="41.4456089" lon="19.6886885"><ele>26.0</ele><time>2026-05-03T12:27:28.703Z</time></trkpt><trkpt lat="41.4457767" lon="19.6886988"><ele>26.333333333333332</ele><time>2026-05-03T12:27:29.703Z</time></trkpt><trkpt lat="41.4459472" lon="19.6887056"><ele>26.666666666666664</ele><time>2026-05-03T12:27:30.703Z</time></trkpt><trkpt lat="41.4461177" lon="19.688711"><ele>27.0</ele><time>2026-05-03T12:27:31.704Z</time></trkpt><trkpt lat="41.4462881" lon="19.688717"><ele>25.666666666666668</ele><time>2026-05-03T12:27:32.704Z</time></trkpt><trkpt lat="41.4464606" lon="19.6887142"><ele>24.333333333333336</ele><time>2026-05-03T12:27:33.704Z</time></trkpt><trkpt lat="41.4466422" lon="19.6887194"><ele>23.0</ele><time>2026-05-03T12:27:34.704Z</time></trkpt><trkpt lat="41.4468123" lon="19.688732"><ele>23.0</ele><time>2026-05-03T12:27:35.703Z</time></trkpt><trkpt lat="41.4469891" lon="19.6887362"><ele>23.0</ele><time>2026-05-03T12:27:36.703Z</time></trkpt><trkpt lat="41.4471619" lon="19.6887474"><ele>23.0</ele><time>2026-05-03T12:27:37.704Z</time></trkpt><trkpt lat="41.447334" lon="19.6887603"><ele>23.666666666666668</ele><time>2026-05-03T12:27:38.704Z</time></trkpt><trkpt lat="41.4474997" lon="19.6887687"><ele>24.333333333333336</ele><time>2026-05-03T12:27:39.703Z</time></trkpt><trkpt lat="41.4476747" lon="19.6887854"><ele>25.0</ele><time>2026-05-03T12:27:40.703Z</time></trkpt><trkpt lat="41.4478475" lon="19.688787"><ele>24.333333333333336</ele><time>2026-05-03T12:27:41.703Z</time></trkpt><trkpt lat="41.4480172" lon="19.6887959"><ele>23.666666666666668</ele><time>2026-05-03T12:27:42.703Z</time></trkpt><trkpt lat="41.4481747" lon="19.6888062"><ele>23.0</ele><time>2026-05-03T12:27:43.704Z</time></trkpt><trkpt lat="41.4483409" lon="19.6888149"><ele>23.0</ele><time>2026-05-03T12:27:44.704Z</time></trkpt><trkpt lat="41.4484985" lon="19.6888226"><ele>23.0</ele><time>2026-05-03T12:27:45.704Z</time></trkpt><trkpt lat="41.4486681" lon="19.6888313"><ele>23.0</ele><time>2026-05-03T12:27:46.703Z</time></trkpt><trkpt lat="41.4488363" lon="19.6888365"><ele>22.666666666666668</ele><time>2026-05-03T12:27:47.703Z</time></trkpt><trkpt lat="41.4490021" lon="19.6888474"><ele>22.333333333333332</ele><time>2026-05-03T12:27:48.703Z</time></trkpt><trkpt lat="41.4491718" lon="19.6888537"><ele>22.0</ele><time>2026-05-03T12:27:49.704Z</time></trkpt><trkpt lat="41.4493392" lon="19.6888601"><ele>22.0</ele><time>2026-05-03T12:27:50.703Z</time></trkpt><trkpt lat="41.4495138" lon="19.6888656"><ele>22.0</ele><time>2026-05-03T12:27:51.704Z</time></trkpt><trkpt lat="41.4496842" lon="19.688873"><ele>22.0</ele><time>2026-05-03T12:27:52.703Z</time></trkpt><trkpt lat="41.4498622" lon="19.6888814"><ele>22.333333333333332</ele><time>2026-05-03T12:27:53.703Z</time></trkpt><trkpt lat="41.4500366" lon="19.6888917"><ele>22.666666666666668</ele><time>2026-05-03T12:27:54.703Z</time></trkpt><trkpt lat="41.4502122" lon="19.6889019"><ele>23.0</ele><time>2026-05-03T12:27:55.704Z</time></trkpt><trkpt lat="41.4503853" lon="19.6889071"><ele>23.666666666666668</ele><time>2026-05-03T12:27:56.704Z</time></trkpt><trkpt lat="41.4505617" lon="19.6889132"><ele>24.333333333333336</ele><time>2026-05-03T12:27:57.704Z</time></trkpt><trkpt lat="41.4507367" lon="19.6889148"><ele>25.0</ele><time>2026-05-03T12:27:58.703Z</time></trkpt><trkpt lat="41.4509039" lon="19.6889276"><ele>25.0</ele><time>2026-05-03T12:27:59.703Z</time></trkpt><trkpt lat="41.4510789" lon="19.688935"><ele>25.0</ele><time>2026-05-03T12:28:00.704Z</time></trkpt><trkpt lat="41.4512437" lon="19.6889474"><ele>25.0</ele><time>2026-05-03T12:28:01.704Z</time></trkpt><trkpt lat="41.4514152" lon="19.6889588"><ele>24.0</ele><time>2026-05-03T12:28:02.703Z</time></trkpt><trkpt lat="41.4515764" lon="19.6889695"><ele>23.0</ele><time>2026-05-03T12:28:03.703Z</time></trkpt><trkpt lat="41.4517388" lon="19.6889712"><ele>22.0</ele><time>2026-05-03T12:28:04.703Z</time></trkpt><trkpt lat="41.4519057" lon="19.6889784"><ele>22.0</ele><time>2026-05-03T12:28:05.704Z</time></trkpt><trkpt lat="41.4520722" lon="19.6889918"><ele>22.0</ele><time>2026-05-03T12:28:06.703Z</time></trkpt><trkpt lat="41.4522355" lon="19.688999"><ele>22.0</ele><time>2026-05-03T12:28:07.704Z</time></trkpt><trkpt lat="41.4524066" lon="19.6890073"><ele>22.333333333333332</ele><time>2026-05-03T12:28:08.703Z</time></trkpt><trkpt lat="41.4525807" lon="19.6890214"><ele>22.666666666666668</ele><time>2026-05-03T12:28:09.704Z</time></trkpt><trkpt lat="41.4527457" lon="19.6890293"><ele>23.0</ele><time>2026-05-03T12:28:10.703Z</time></trkpt><trkpt lat="41.4529139" lon="19.6890279"><ele>22.666666666666668</ele><time>2026-05-03T12:28:11.703Z</time></trkpt><trkpt lat="41.4530818" lon="19.689035"><ele>22.333333333333332</ele><time>2026-05-03T12:28:12.704Z</time></trkpt><trkpt lat="41.4532541" lon="19.6890372"><ele>22.0</ele><time>2026-05-03T12:28:13.704Z</time></trkpt><trkpt lat="41.4534242" lon="19.6890455"><ele>22.0</ele><time>2026-05-03T12:28:14.703Z</time></trkpt><trkpt lat="41.4535899" lon="19.6890588"><ele>22.0</ele><time>2026-05-03T12:28:15.703Z</time></trkpt><trkpt lat="41.4537585" lon="19.6890709"><ele>22.0</ele><time>2026-05-03T12:28:16.704Z</time></trkpt><trkpt lat="41.4539297" lon="19.6890809"><ele>22.0</ele><time>2026-05-03T12:28:17.703Z</time></trkpt><trkpt lat="41.4540986" lon="19.6890854"><ele>22.0</ele><time>2026-05-03T12:28:18.704Z</time></trkpt><trkpt lat="41.454268" lon="19.6890962"><ele>22.0</ele><time>2026-05-03T12:28:19.703Z</time></trkpt><trkpt lat="41.4544363" lon="19.6891094"><ele>22.0</ele><time>2026-05-03T12:28:20.704Z</time></trkpt><trkpt lat="41.4546049" lon="19.6891245"><ele>22.0</ele><time>2026-05-03T12:28:21.703Z</time></trkpt><trkpt lat="41.4547705" lon="19.6891264"><ele>22.0</ele><time>2026-05-03T12:28:22.703Z</time></trkpt><trkpt lat="41.4549419" lon="19.6891305"><ele>21.666666666666664</ele><time>2026-05-03T12:28:23.704Z</time></trkpt><trkpt lat="41.4551194" lon="19.6891177"><ele>21.333333333333332</ele><time>2026-05-03T12:28:24.703Z</time></trkpt><trkpt lat="41.4553009" lon="19.6891193"><ele>21.0</ele><time>2026-05-03T12:28:25.704Z</time></trkpt><trkpt lat="41.4554714" lon="19.6891301"><ele>21.0</ele><time>2026-05-03T12:28:26.704Z</time></trkpt><trkpt lat="41.4556414" lon="19.6891391"><ele>21.0</ele><time>2026-05-03T12:28:27.704Z</time></trkpt><trkpt lat="41.4558112" lon="19.6891458"><ele>21.0</ele><time>2026-05-03T12:28:28.704Z</time></trkpt><trkpt lat="41.4559942" lon="19.6891687"><ele>21.0</ele><time>2026-05-03T12:28:29.704Z</time></trkpt><trkpt lat="41.4561675" lon="19.6891655"><ele>21.0</ele><time>2026-05-03T12:28:30.704Z</time></trkpt><trkpt lat="41.4563342" lon="19.6891725"><ele>21.0</ele><time>2026-05-03T12:28:31.703Z</time></trkpt><trkpt lat="41.456505" lon="19.6891811"><ele>20.666666666666668</ele><time>2026-05-03T12:28:32.704Z</time></trkpt><trkpt lat="41.4566736" lon="19.6891918"><ele>20.333333333333336</ele><time>2026-05-03T12:28:33.704Z</time></trkpt><trkpt lat="41.4568404" lon="19.6892066"><ele>20.0</ele><time>2026-05-03T12:28:34.703Z</time></trkpt><trkpt lat="41.457013" lon="19.6892169"><ele>20.0</ele><time>2026-05-03T12:28:35.704Z</time></trkpt><trkpt lat="41.4571821" lon="19.6892233"><ele>20.0</ele><time>2026-05-03T12:28:36.704Z</time></trkpt><trkpt lat="41.457357" lon="19.6892332"><ele>20.0</ele><time>2026-05-03T12:28:37.704Z</time></trkpt><trkpt lat="41.4575306" lon="19.6892385"><ele>20.0</ele><time>2026-05-03T12:28:38.704Z</time></trkpt><trkpt lat="41.4577058" lon="19.6892433"><ele>20.0</ele><time>2026-05-03T12:28:39.704Z</time></trkpt><trkpt lat="41.457878" lon="19.6892515"><ele>20.0</ele><time>2026-05-03T12:28:40.704Z</time></trkpt><trkpt lat="41.4580401" lon="19.689259"><ele>20.333333333333336</ele><time>2026-05-03T12:28:41.703Z</time></trkpt><trkpt lat="41.4582063" lon="19.6892647"><ele>20.666666666666668</ele><time>2026-05-03T12:28:42.704Z</time></trkpt><trkpt lat="41.4583698" lon="19.6892771"><ele>21.0</ele><time>2026-05-03T12:28:43.704Z</time></trkpt><trkpt lat="41.4585359" lon="19.6892828"><ele>21.0</ele><time>2026-05-03T12:28:44.704Z</time></trkpt><trkpt lat="41.4586959" lon="19.6892855"><ele>21.0</ele><time>2026-05-03T12:28:45.703Z</time></trkpt><trkpt lat="41.4588555" lon="19.6892998"><ele>21.0</ele><time>2026-05-03T12:28:46.704Z</time></trkpt><trkpt lat="41.4590146" lon="19.6893077"><ele>20.666666666666668</ele><time>2026-05-03T12:28:47.703Z</time></trkpt><trkpt lat="41.4591787" lon="19.6893166"><ele>20.333333333333336</ele><time>2026-05-03T12:28:48.704Z</time></trkpt><trkpt lat="41.4593406" lon="19.6893285"><ele>20.0</ele><time>2026-05-03T12:28:49.703Z</time></trkpt><trkpt lat="41.4595056" lon="19.6893377"><ele>20.333333333333336</ele><time>2026-05-03T12:28:50.704Z</time></trkpt><trkpt lat="41.4596775" lon="19.6893487"><ele>20.666666666666668</ele><time>2026-05-03T12:28:51.704Z</time></trkpt><trkpt lat="41.459842" lon="19.6893574"><ele>21.0</ele><time>2026-05-03T12:28:52.704Z</time></trkpt><trkpt lat="41.460008" lon="19.689367"><ele>21.0</ele><time>2026-05-03T12:28:53.703Z</time></trkpt><trkpt lat="41.4601758" lon="19.689383"><ele>21.0</ele><time>2026-05-03T12:28:54.703Z</time></trkpt><trkpt lat="41.4603441" lon="19.689393"><ele>21.0</ele><time>2026-05-03T12:28:55.703Z</time></trkpt><trkpt lat="41.4605111" lon="19.6893981"><ele>21.0</ele><time>2026-05-03T12:28:56.703Z</time></trkpt><trkpt lat="41.4606788" lon="19.689406"><ele>21.0</ele><time>2026-05-03T12:28:57.703Z</time></trkpt><trkpt lat="41.460845" lon="19.6894124"><ele>21.0</ele><time>2026-05-03T12:28:58.704Z</time></trkpt><trkpt lat="41.4610129" lon="19.6894198"><ele>21.0</ele><time>2026-05-03T12:28:59.704Z</time></trkpt><trkpt lat="41.4611837" lon="19.6894261"><ele>21.0</ele><time>2026-05-03T12:29:00.703Z</time></trkpt><trkpt lat="41.461361" lon="19.6894359"><ele>21.0</ele><time>2026-05-03T12:29:01.703Z</time></trkpt><trkpt lat="41.4615358" lon="19.6894452"><ele>21.0</ele><time>2026-05-03T12:29:02.704Z</time></trkpt><trkpt lat="41.461707" lon="19.6894591"><ele>21.0</ele><time>2026-05-03T12:29:03.704Z</time></trkpt><trkpt lat="41.4618826" lon="19.6894698"><ele>21.0</ele><time>2026-05-03T12:29:04.703Z</time></trkpt><trkpt lat="41.4620553" lon="19.68948"><ele>21.0</ele><time>2026-05-03T12:29:05.703Z</time></trkpt><trkpt lat="41.4622337" lon="19.6894845"><ele>21.0</ele><time>2026-05-03T12:29:06.704Z</time></trkpt><trkpt lat="41.4624148" lon="19.6894884"><ele>21.0</ele><time>2026-05-03T12:29:07.704Z</time></trkpt><trkpt lat="41.4625915" lon="19.6894941"><ele>21.0</ele><time>2026-05-03T12:29:08.704Z</time></trkpt><trkpt lat="41.4627632" lon="19.6895032"><ele>21.0</ele><time>2026-05-03T12:29:09.704Z</time></trkpt><trkpt lat="41.4629359" lon="19.6895104"><ele>21.0</ele><time>2026-05-03T12:29:10.704Z</time></trkpt><trkpt lat="41.4631082" lon="19.6895209"><ele>20.333333333333332</ele><time>2026-05-03T12:29:11.703Z</time></trkpt><trkpt lat="41.4632759" lon="19.6895308"><ele>19.666666666666664</ele><time>2026-05-03T12:29:12.704Z</time></trkpt><trkpt lat="41.4634382" lon="19.689536"><ele>19.0</ele><time>2026-05-03T12:29:13.704Z</time></trkpt><trkpt lat="41.4635973" lon="19.6895484"><ele>19.0</ele><time>2026-05-03T12:29:14.703Z</time></trkpt><trkpt lat="41.4637477" lon="19.6895639"><ele>19.0</ele><time>2026-05-03T12:29:15.704Z</time></trkpt><trkpt lat="41.4639009" lon="19.6895857"><ele>19.0</ele><time>2026-05-03T12:29:16.704Z</time></trkpt><trkpt lat="41.4640602" lon="19.6896096"><ele>19.333333333333332</ele><time>2026-05-03T12:29:17.704Z</time></trkpt><trkpt lat="41.4642085" lon="19.6896422"><ele>19.666666666666668</ele><time>2026-05-03T12:29:18.703Z</time></trkpt><trkpt lat="41.4643566" lon="19.689688"><ele>20.0</ele><time>2026-05-03T12:29:19.704Z</time></trkpt><trkpt lat="41.4645023" lon="19.6897506"><ele>20.0</ele><time>2026-05-03T12:29:20.703Z</time></trkpt><trkpt lat="41.4646476" lon="19.6898192"><ele>20.0</ele><time>2026-05-03T12:29:21.704Z</time></trkpt><trkpt lat="41.4647941" lon="19.6899087"><ele>20.0</ele><time>2026-05-03T12:29:22.704Z</time></trkpt><trkpt lat="41.4649368" lon="19.6900013"><ele>20.0</ele><time>2026-05-03T12:29:23.704Z</time></trkpt><trkpt lat="41.465066" lon="19.6901181"><ele>20.0</ele><time>2026-05-03T12:29:24.703Z</time></trkpt><trkpt lat="41.4651895" lon="19.6902499"><ele>20.0</ele><time>2026-05-03T12:29:25.704Z</time></trkpt><trkpt lat="41.4653086" lon="19.6903867"><ele>19.333333333333336</ele><time>2026-05-03T12:29:26.703Z</time></trkpt><trkpt lat="41.4654141" lon="19.6905344"><ele>18.666666666666668</ele><time>2026-05-03T12:29:27.703Z</time></trkpt><trkpt lat="41.4655274" lon="19.6906875"><ele>18.0</ele><time>2026-05-03T12:29:28.704Z</time></trkpt><trkpt lat="41.4656442" lon="19.6908525"><ele>18.0</ele><time>2026-05-03T12:29:29.704Z</time></trkpt><trkpt lat="41.465754" lon="19.6910115"><ele>18.0</ele><time>2026-05-03T12:29:30.703Z</time></trkpt><trkpt lat="41.465857" lon="19.691174"><ele>18.0</ele><time>2026-05-03T12:29:31.704Z</time></trkpt><trkpt lat="41.4659681" lon="19.6913375"><ele>18.0</ele><time>2026-05-03T12:29:32.703Z</time></trkpt><trkpt lat="41.4660893" lon="19.6914973"><ele>18.0</ele><time>2026-05-03T12:29:33.704Z</time></trkpt><trkpt lat="41.466201" lon="19.6916601"><ele>18.0</ele><time>2026-05-03T12:29:34.703Z</time></trkpt><trkpt lat="41.4663133" lon="19.6918241"><ele>19.0</ele><time>2026-05-03T12:29:35.703Z</time></trkpt><trkpt lat="41.4664226" lon="19.691996"><ele>20.0</ele><time>2026-05-03T12:29:36.703Z</time></trkpt><trkpt lat="41.4665336" lon="19.6921657"><ele>21.0</ele><time>2026-05-03T12:29:37.704Z</time></trkpt><trkpt lat="41.4666553" lon="19.6923334"><ele>21.0</ele><time>2026-05-03T12:29:38.704Z</time></trkpt><trkpt lat="41.4667674" lon="19.6924992"><ele>21.0</ele><time>2026-05-03T12:29:39.703Z</time></trkpt><trkpt lat="41.4668855" lon="19.6926769"><ele>21.0</ele><time>2026-05-03T12:29:40.704Z</time></trkpt><trkpt lat="41.4669837" lon="19.6928451"><ele>21.0</ele><time>2026-05-03T12:29:41.703Z</time></trkpt><trkpt lat="41.4670766" lon="19.6930221"><ele>21.0</ele><time>2026-05-03T12:29:42.703Z</time></trkpt><trkpt lat="41.4671675" lon="19.6931869"><ele>21.0</ele><time>2026-05-03T12:29:43.704Z</time></trkpt><trkpt lat="41.4672518" lon="19.6933621"><ele>21.0</ele><time>2026-05-03T12:29:44.703Z</time></trkpt><trkpt lat="41.4673536" lon="19.6935456"><ele>21.0</ele><time>2026-05-03T12:29:45.704Z</time></trkpt><trkpt lat="41.4674475" lon="19.6937155"><ele>21.0</ele><time>2026-05-03T12:29:46.703Z</time></trkpt><trkpt lat="41.4675341" lon="19.6938874"><ele>21.0</ele><time>2026-05-03T12:29:47.704Z</time></trkpt><trkpt lat="41.467618" lon="19.6940566"><ele>21.0</ele><time>2026-05-03T12:29:48.703Z</time></trkpt><trkpt lat="41.4676986" lon="19.6942217"><ele>21.0</ele><time>2026-05-03T12:29:49.704Z</time></trkpt><trkpt lat="41.4677799" lon="19.6943848"><ele>21.0</ele><time>2026-05-03T12:29:50.704Z</time></trkpt><trkpt lat="41.4678647" lon="19.6945483"><ele>20.666666666666668</ele><time>2026-05-03T12:29:51.703Z</time></trkpt><trkpt lat="41.4679458" lon="19.6947241"><ele>20.333333333333336</ele><time>2026-05-03T12:29:52.704Z</time></trkpt><trkpt lat="41.4680319" lon="19.694897"><ele>20.0</ele><time>2026-05-03T12:29:53.704Z</time></trkpt><trkpt lat="41.4681157" lon="19.6950644"><ele>20.0</ele><time>2026-05-03T12:29:54.703Z</time></trkpt><trkpt lat="41.4682017" lon="19.6952265"><ele>20.0</ele><time>2026-05-03T12:29:55.703Z</time></trkpt><trkpt lat="41.4682761" lon="19.695381"><ele>20.0</ele><time>2026-05-03T12:29:56.704Z</time></trkpt><trkpt lat="41.4683519" lon="19.6955346"><ele>20.0</ele><time>2026-05-03T12:29:57.704Z</time></trkpt><trkpt lat="41.468435" lon="19.6956843"><ele>20.0</ele><time>2026-05-03T12:29:58.703Z</time></trkpt><trkpt lat="41.468514" lon="19.695849"><ele>20.0</ele><time>2026-05-03T12:29:59.704Z</time></trkpt><trkpt lat="41.4685932" lon="19.6960102"><ele>20.0</ele><time>2026-05-03T12:30:00.704Z</time></trkpt><trkpt lat="41.4686861" lon="19.696175"><ele>20.0</ele><time>2026-05-03T12:30:01.704Z</time></trkpt><trkpt lat="41.4687716" lon="19.6963472"><ele>19.666666666666668</ele><time>2026-05-03T12:30:02.704Z</time></trkpt><trkpt lat="41.4688679" lon="19.6965254"><ele>19.333333333333332</ele><time>2026-05-03T12:30:03.704Z</time></trkpt><trkpt lat="41.4689547" lon="19.6967057"><ele>19.0</ele><time>2026-05-03T12:30:04.703Z</time></trkpt><trkpt lat="41.4690459" lon="19.6968793"><ele>19.333333333333332</ele><time>2026-05-03T12:30:05.703Z</time></trkpt><trkpt lat="41.4691342" lon="19.6970557"><ele>19.666666666666668</ele><time>2026-05-03T12:30:06.703Z</time></trkpt><trkpt lat="41.4692192" lon="19.6972254"><ele>20.0</ele><time>2026-05-03T12:30:07.703Z</time></trkpt><trkpt lat="41.4693162" lon="19.697397"><ele>20.0</ele><time>2026-05-03T12:30:08.704Z</time></trkpt><trkpt lat="41.4693975" lon="19.6975762"><ele>20.0</ele><time>2026-05-03T12:30:09.703Z</time></trkpt><trkpt lat="41.4694865" lon="19.6977525"><ele>20.0</ele><time>2026-05-03T12:30:10.704Z</time></trkpt><trkpt lat="41.4695782" lon="19.6979402"><ele>20.0</ele><time>2026-05-03T12:30:11.703Z</time></trkpt><trkpt lat="41.4696694" lon="19.6981284"><ele>20.0</ele><time>2026-05-03T12:30:12.704Z</time></trkpt><trkpt lat="41.4697646" lon="19.6983142"><ele>20.0</ele><time>2026-05-03T12:30:13.703Z</time></trkpt><trkpt lat="41.4698649" lon="19.6984962"><ele>20.0</ele><time>2026-05-03T12:30:14.704Z</time></trkpt><trkpt lat="41.4699593" lon="19.6986899"><ele>20.0</ele><time>2026-05-03T12:30:15.704Z</time></trkpt><trkpt lat="41.4700579" lon="19.6988723"><ele>20.0</ele><time>2026-05-03T12:30:16.703Z</time></trkpt><trkpt lat="41.4701552" lon="19.6990687"><ele>20.0</ele><time>2026-05-03T12:30:17.704Z</time></trkpt><trkpt lat="41.4702564" lon="19.6992663"><ele>20.0</ele><time>2026-05-03T12:30:18.703Z</time></trkpt><trkpt lat="41.4703596" lon="19.6994667"><ele>20.0</ele><time>2026-05-03T12:30:19.703Z</time></trkpt><trkpt lat="41.4704573" lon="19.6996624"><ele>20.333333333333336</ele><time>2026-05-03T12:30:20.703Z</time></trkpt><trkpt lat="41.4705526" lon="19.6998622"><ele>20.666666666666668</ele><time>2026-05-03T12:30:21.704Z</time></trkpt><trkpt lat="41.4706436" lon="19.7000616"><ele>21.0</ele><time>2026-05-03T12:30:22.703Z</time></trkpt><trkpt lat="41.4707354" lon="19.700249"><ele>20.333333333333332</ele><time>2026-05-03T12:30:23.704Z</time></trkpt><trkpt lat="41.4708318" lon="19.7004344"><ele>19.666666666666664</ele><time>2026-05-03T12:30:24.704Z</time></trkpt><trkpt lat="41.47093" lon="19.7006361"><ele>19.0</ele><time>2026-05-03T12:30:25.704Z</time></trkpt><trkpt lat="41.4710293" lon="19.700823"><ele>19.0</ele><time>2026-05-03T12:30:26.704Z</time></trkpt><trkpt lat="41.4711282" lon="19.701011"><ele>19.0</ele><time>2026-05-03T12:30:27.703Z</time></trkpt><trkpt lat="41.4712337" lon="19.701207"><ele>19.0</ele><time>2026-05-03T12:30:28.704Z</time></trkpt><trkpt lat="41.471331" lon="19.7014011"><ele>19.0</ele><time>2026-05-03T12:30:29.704Z</time></trkpt><trkpt lat="41.4714301" lon="19.7015983"><ele>19.0</ele><time>2026-05-03T12:30:30.704Z</time></trkpt><trkpt lat="41.4715286" lon="19.7017939"><ele>19.0</ele><time>2026-05-03T12:30:31.704Z</time></trkpt><trkpt lat="41.471628" lon="19.7019825"><ele>19.0</ele><time>2026-05-03T12:30:32.703Z</time></trkpt><trkpt lat="41.4717239" lon="19.702181"><ele>19.0</ele><time>2026-05-03T12:30:33.703Z</time></trkpt><trkpt lat="41.471818" lon="19.7023786"><ele>19.0</ele><time>2026-05-03T12:30:34.704Z</time></trkpt><trkpt lat="41.4719204" lon="19.7025746"><ele>19.333333333333332</ele><time>2026-05-03T12:30:35.703Z</time></trkpt><trkpt lat="41.4720254" lon="19.702772"><ele>19.666666666666668</ele><time>2026-05-03T12:30:36.703Z</time></trkpt><trkpt lat="41.4721223" lon="19.7029565"><ele>20.0</ele><time>2026-05-03T12:30:37.704Z</time></trkpt><trkpt lat="41.4722183" lon="19.703144"><ele>20.0</ele><time>2026-05-03T12:30:38.704Z</time></trkpt><trkpt lat="41.4723166" lon="19.7033342"><ele>20.0</ele><time>2026-05-03T12:30:39.703Z</time></trkpt><trkpt lat="41.472411" lon="19.7035262"><ele>20.0</ele><time>2026-05-03T12:30:40.703Z</time></trkpt><trkpt lat="41.472508" lon="19.7037108"><ele>19.0</ele><time>2026-05-03T12:30:41.703Z</time></trkpt><trkpt lat="41.4726049" lon="19.7038974"><ele>18.0</ele><time>2026-05-03T12:30:42.703Z</time></trkpt><trkpt lat="41.4726977" lon="19.7040868"><ele>17.0</ele><time>2026-05-03T12:30:43.703Z</time></trkpt><trkpt lat="41.4727863" lon="19.7042801"><ele>17.666666666666668</ele><time>2026-05-03T12:30:44.704Z</time></trkpt><trkpt lat="41.4728849" lon="19.7044721"><ele>18.333333333333332</ele><time>2026-05-03T12:30:45.704Z</time></trkpt><trkpt lat="41.4729796" lon="19.7046637"><ele>19.0</ele><time>2026-05-03T12:30:46.704Z</time></trkpt><trkpt lat="41.4730766" lon="19.7048545"><ele>19.0</ele><time>2026-05-03T12:30:47.704Z</time></trkpt><trkpt lat="41.4731709" lon="19.7050438"><ele>19.0</ele><time>2026-05-03T12:30:48.704Z</time></trkpt><trkpt lat="41.4732674" lon="19.7052352"><ele>19.0</ele><time>2026-05-03T12:30:49.704Z</time></trkpt><trkpt lat="41.4733701" lon="19.7054243"><ele>19.0</ele><time>2026-05-03T12:30:50.703Z</time></trkpt><trkpt lat="41.4734698" lon="19.7056225"><ele>19.0</ele><time>2026-05-03T12:30:51.703Z</time></trkpt><trkpt lat="41.4735684" lon="19.705813"><ele>19.0</ele><time>2026-05-03T12:30:52.704Z</time></trkpt><trkpt lat="41.4736619" lon="19.7060048"><ele>19.0</ele><time>2026-05-03T12:30:53.703Z</time></trkpt><trkpt lat="41.473772" lon="19.7062024"><ele>19.0</ele><time>2026-05-03T12:30:54.704Z</time></trkpt><trkpt lat="41.4738709" lon="19.7064018"><ele>19.0</ele><time>2026-05-03T12:30:55.703Z</time></trkpt><trkpt lat="41.4739729" lon="19.7065997"><ele>19.0</ele><time>2026-05-03T12:30:56.703Z</time></trkpt><trkpt lat="41.4740706" lon="19.7068014"><ele>19.0</ele><time>2026-05-03T12:30:57.704Z</time></trkpt><trkpt lat="41.4741776" lon="19.7070051"><ele>19.0</ele><time>2026-05-03T12:30:58.703Z</time></trkpt><trkpt lat="41.4742871" lon="19.7072093"><ele>19.333333333333332</ele><time>2026-05-03T12:30:59.704Z</time></trkpt><trkpt lat="41.4743834" lon="19.7074086"><ele>19.666666666666668</ele><time>2026-05-03T12:31:00.704Z</time></trkpt><trkpt lat="41.4744834" lon="19.707602"><ele>20.0</ele><time>2026-05-03T12:31:01.704Z</time></trkpt><trkpt lat="41.4745851" lon="19.7077999"><ele>20.666666666666668</ele><time>2026-05-03T12:31:02.704Z</time></trkpt><trkpt lat="41.4746884" lon="19.7079973"><ele>21.333333333333332</ele><time>2026-05-03T12:31:03.703Z</time></trkpt><trkpt lat="41.474787" lon="19.7081943"><ele>22.0</ele><time>2026-05-03T12:31:04.704Z</time></trkpt><trkpt lat="41.474886" lon="19.7083888"><ele>22.333333333333332</ele><time>2026-05-03T12:31:05.704Z</time></trkpt><trkpt lat="41.4749822" lon="19.708577"><ele>22.666666666666668</ele><time>2026-05-03T12:31:06.704Z</time></trkpt><trkpt lat="41.4750831" lon="19.708775"><ele>23.0</ele><time>2026-05-03T12:31:07.703Z</time></trkpt><trkpt lat="41.47518" lon="19.708971"><ele>23.0</ele><time>2026-05-03T12:31:08.703Z</time></trkpt><trkpt lat="41.4752801" lon="19.7091715"><ele>23.0</ele><time>2026-05-03T12:31:09.704Z</time></trkpt><trkpt lat="41.4753795" lon="19.7093652"><ele>23.0</ele><time>2026-05-03T12:31:10.703Z</time></trkpt><trkpt lat="41.4754817" lon="19.7095594"><ele>21.666666666666668</ele><time>2026-05-03T12:31:11.704Z</time></trkpt><trkpt lat="41.4755782" lon="19.7097544"><ele>20.333333333333332</ele><time>2026-05-03T12:31:12.703Z</time></trkpt><trkpt lat="41.475676" lon="19.7099486"><ele>19.0</ele><time>2026-05-03T12:31:13.703Z</time></trkpt><trkpt lat="41.4757721" lon="19.710143"><ele>19.666666666666664</ele><time>2026-05-03T12:31:14.704Z</time></trkpt><trkpt lat="41.4758721" lon="19.7103316"><ele>20.333333333333332</ele><time>2026-05-03T12:31:15.703Z</time></trkpt><trkpt lat="41.4759678" lon="19.7105139"><ele>21.0</ele><time>2026-05-03T12:31:16.703Z</time></trkpt><trkpt lat="41.4760676" lon="19.7107027"><ele>21.0</ele><time>2026-05-03T12:31:17.704Z</time></trkpt><trkpt lat="41.4761577" lon="19.710888"><ele>21.0</ele><time>2026-05-03T12:31:18.704Z</time></trkpt><trkpt lat="41.4762524" lon="19.7110625"><ele>21.0</ele><time>2026-05-03T12:31:19.703Z</time></trkpt><trkpt lat="41.4763377" lon="19.7112316"><ele>21.0</ele><time>2026-05-03T12:31:20.703Z</time></trkpt><trkpt lat="41.4764161" lon="19.7113929"><ele>21.0</ele><time>2026-05-03T12:31:21.704Z</time></trkpt><trkpt lat="41.4764886" lon="19.7115423"><ele>21.0</ele><time>2026-05-03T12:31:22.703Z</time></trkpt><trkpt lat="41.4765499" lon="19.7116922"><ele>21.0</ele><time>2026-05-03T12:31:23.703Z</time></trkpt><trkpt lat="41.4766249" lon="19.711833"><ele>21.25</ele><time>2026-05-03T12:31:24.704Z</time></trkpt><trkpt lat="41.4766998" lon="19.7119748"><ele>21.5</ele><time>2026-05-03T12:31:25.704Z</time></trkpt><trkpt lat="41.4767729" lon="19.7121136"><ele>21.75</ele><time>2026-05-03T12:31:26.703Z</time></trkpt><trkpt lat="41.4768457" lon="19.7122417"><ele>22.0</ele><time>2026-05-03T12:31:27.704Z</time></trkpt><trkpt lat="41.476915" lon="19.7123715"><ele>22.0</ele><time>2026-05-03T12:31:28.703Z</time></trkpt><trkpt lat="41.4769788" lon="19.7124981"><ele>22.0</ele><time>2026-05-03T12:31:29.703Z</time></trkpt><trkpt lat="41.4770432" lon="19.7126328"><ele>22.0</ele><time>2026-05-03T12:31:30.704Z</time></trkpt><trkpt lat="41.4771131" lon="19.712757"><ele>22.0</ele><time>2026-05-03T12:31:31.704Z</time></trkpt><trkpt lat="41.4771769" lon="19.7128886"><ele>22.0</ele><time>2026-05-03T12:31:32.704Z</time></trkpt><trkpt lat="41.47725" lon="19.7130193"><ele>22.0</ele><time>2026-05-03T12:31:33.703Z</time></trkpt><trkpt lat="41.4773162" lon="19.7131505"><ele>22.0</ele><time>2026-05-03T12:31:34.704Z</time></trkpt><trkpt lat="41.4773742" lon="19.7132735"><ele>22.0</ele><time>2026-05-03T12:31:35.703Z</time></trkpt><trkpt lat="41.4774294" lon="19.7133957"><ele>22.0</ele><time>2026-05-03T12:31:36.703Z</time></trkpt><trkpt lat="41.4774889" lon="19.7135087"><ele>22.0</ele><time>2026-05-03T12:31:37.704Z</time></trkpt><trkpt lat="41.477548" lon="19.7136306"><ele>22.0</ele><time>2026-05-03T12:31:38.703Z</time></trkpt><trkpt lat="41.4775961" lon="19.7137461"><ele>22.0</ele><time>2026-05-03T12:31:39.704Z</time></trkpt><trkpt lat="41.4776387" lon="19.7138444"><ele>22.0</ele><time>2026-05-03T12:31:40.703Z</time></trkpt><trkpt lat="41.477672" lon="19.7139277"><ele>22.0</ele><time>2026-05-03T12:31:41.703Z</time></trkpt><trkpt lat="41.4776913" lon="19.7140082"><ele>22.0</ele><time>2026-05-03T12:31:42.703Z</time></trkpt><trkpt lat="41.4776989" lon="19.7140965"><ele>22.0</ele><time>2026-05-03T12:31:43.703Z</time></trkpt><trkpt lat="41.4776582" lon="19.7142464"><ele>22.0</ele><time>2026-05-03T12:31:45.703Z</time></trkpt><trkpt lat="41.477601" lon="19.7143846"><ele>22.0</ele><time>2026-05-03T12:31:47.703Z</time></trkpt><trkpt lat="41.4775537" lon="19.7144633"><ele>22.0</ele><time>2026-05-03T12:31:48.704Z</time></trkpt><trkpt lat="41.4774832" lon="19.7145"><ele>22.142857142857142</ele><time>2026-05-03T12:31:49.703Z</time></trkpt><trkpt lat="41.4774123" lon="19.714524"><ele>22.285714285714285</ele><time>2026-05-03T12:31:50.703Z</time></trkpt><trkpt lat="41.4773368" lon="19.7145307"><ele>22.42857142857143</ele><time>2026-05-03T12:31:51.703Z</time></trkpt><trkpt lat="41.4772692" lon="19.7145334"><ele>22.57142857142857</ele><time>2026-05-03T12:31:52.703Z</time></trkpt><trkpt lat="41.477196" lon="19.7144993"><ele>22.71428571428571</ele><time>2026-05-03T12:31:53.703Z</time></trkpt><trkpt lat="41.4771372" lon="19.7144412"><ele>22.857142857142858</ele><time>2026-05-03T12:31:54.704Z</time></trkpt><trkpt lat="41.4770902" lon="19.7143604"><ele>23.0</ele><time>2026-05-03T12:31:55.704Z</time></trkpt><trkpt lat="41.4770504" lon="19.7142767"><ele>22.833333333333336</ele><time>2026-05-03T12:31:56.703Z</time></trkpt><trkpt lat="41.4770238" lon="19.7141883"><ele>22.666666666666668</ele><time>2026-05-03T12:31:57.703Z</time></trkpt><trkpt lat="41.4770103" lon="19.7140904"><ele>22.5</ele><time>2026-05-03T12:31:58.703Z</time></trkpt><trkpt lat="41.4770136" lon="19.714006"><ele>22.333333333333332</ele><time>2026-05-03T12:31:59.704Z</time></trkpt><trkpt lat="41.4770485" lon="19.7138628"><ele>22.166666666666664</ele><time>2026-05-03T12:32:01.704Z</time></trkpt><trkpt lat="41.4770941" lon="19.7137499"><ele>22.0</ele><time>2026-05-03T12:32:03.703Z</time></trkpt><trkpt lat="41.4771356" lon="19.7136867"><ele>22.0</ele><time>2026-05-03T12:32:04.703Z</time></trkpt><trkpt lat="41.4771891" lon="19.7136198"><ele>22.0</ele><time>2026-05-03T12:32:05.704Z</time></trkpt><trkpt lat="41.4772543" lon="19.7135575"><ele>22.0</ele><time>2026-05-03T12:32:06.703Z</time></trkpt><trkpt lat="41.4773275" lon="19.7134959"><ele>22.0</ele><time>2026-05-03T12:32:07.704Z</time></trkpt><trkpt lat="41.4774043" lon="19.7134212"><ele>22.0</ele><time>2026-05-03T12:32:08.704Z</time></trkpt><trkpt lat="41.4775102" lon="19.713349"><ele>22.0</ele><time>2026-05-03T12:32:09.703Z</time></trkpt><trkpt lat="41.4776097" lon="19.7132578"><ele>22.0</ele><time>2026-05-03T12:32:10.703Z</time></trkpt><trkpt lat="41.4777381" lon="19.7131416"><ele>22.0</ele><time>2026-05-03T12:32:11.703Z</time></trkpt><trkpt lat="41.4778832" lon="19.7130256"><ele>22.0</ele><time>2026-05-03T12:32:12.703Z</time></trkpt><trkpt lat="41.4780447" lon="19.7129193"><ele>22.0</ele><time>2026-05-03T12:32:13.703Z</time></trkpt><trkpt lat="41.4781977" lon="19.7127882"><ele>22.0</ele><time>2026-05-03T12:32:14.704Z</time></trkpt><trkpt lat="41.4783542" lon="19.7126646"><ele>22.0</ele><time>2026-05-03T12:32:15.703Z</time></trkpt><trkpt lat="41.4785064" lon="19.7125488"><ele>22.0</ele><time>2026-05-03T12:32:16.703Z</time></trkpt><trkpt lat="41.47866" lon="19.7124456"><ele>22.0</ele><time>2026-05-03T12:32:17.704Z</time></trkpt><trkpt lat="41.4788063" lon="19.7123474"><ele>22.0</ele><time>2026-05-03T12:32:18.703Z</time></trkpt><trkpt lat="41.4789512" lon="19.7122523"><ele>21.5</ele><time>2026-05-03T12:32:19.704Z</time></trkpt><trkpt lat="41.4790863" lon="19.712167"><ele>21.0</ele><time>2026-05-03T12:32:20.703Z</time></trkpt><trkpt lat="41.4792155" lon="19.7120804"><ele>20.5</ele><time>2026-05-03T12:32:21.704Z</time></trkpt><trkpt lat="41.4793355" lon="19.7119901"><ele>20.0</ele><time>2026-05-03T12:32:22.704Z</time></trkpt><trkpt lat="41.4794575" lon="19.7119048"><ele>20.0</ele><time>2026-05-03T12:32:23.704Z</time></trkpt><trkpt lat="41.4795807" lon="19.7118279"><ele>20.0</ele><time>2026-05-03T12:32:24.703Z</time></trkpt><trkpt lat="41.4797052" lon="19.7117522"><ele>20.0</ele><time>2026-05-03T12:32:25.703Z</time></trkpt><trkpt lat="41.4798228" lon="19.7116744"><ele>20.0</ele><time>2026-05-03T12:32:26.704Z</time></trkpt><trkpt lat="41.4799388" lon="19.7115988"><ele>19.75</ele><time>2026-05-03T12:32:27.704Z</time></trkpt><trkpt lat="41.4800538" lon="19.7115255"><ele>19.5</ele><time>2026-05-03T12:32:28.703Z</time></trkpt><trkpt lat="41.4801638" lon="19.7114515"><ele>19.25</ele><time>2026-05-03T12:32:29.704Z</time></trkpt><trkpt lat="41.4802745" lon="19.7113795"><ele>19.0</ele><time>2026-05-03T12:32:30.704Z</time></trkpt><trkpt lat="41.4803897" lon="19.711309"><ele>19.0</ele><time>2026-05-03T12:32:31.704Z</time></trkpt><trkpt lat="41.4805169" lon="19.7112424"><ele>19.0</ele><time>2026-05-03T12:32:32.704Z</time></trkpt><trkpt lat="41.4806305" lon="19.7111672"><ele>19.0</ele><time>2026-05-03T12:32:33.703Z</time></trkpt><trkpt lat="41.4807434" lon="19.7110913"><ele>19.0</ele><time>2026-05-03T12:32:34.704Z</time></trkpt><trkpt lat="41.4808515" lon="19.711016"><ele>19.0</ele><time>2026-05-03T12:32:35.703Z</time></trkpt><trkpt lat="41.4809609" lon="19.7109396"><ele>19.0</ele><time>2026-05-03T12:32:36.704Z</time></trkpt><trkpt lat="41.4810811" lon="19.7108563"><ele>19.0</ele><time>2026-05-03T12:32:37.703Z</time></trkpt><trkpt lat="41.4812131" lon="19.7107623"><ele>19.0</ele><time>2026-05-03T12:32:38.704Z</time></trkpt><trkpt lat="41.4813634" lon="19.7106546"><ele>18.666666666666664</ele><time>2026-05-03T12:32:39.703Z</time></trkpt><trkpt lat="41.4815184" lon="19.7105567"><ele>18.333333333333332</ele><time>2026-05-03T12:32:40.704Z</time></trkpt><trkpt lat="41.4817023" lon="19.7104505"><ele>18.0</ele><time>2026-05-03T12:32:41.703Z</time></trkpt><trkpt lat="41.4818742" lon="19.7103457"><ele>18.0</ele><time>2026-05-03T12:32:42.704Z</time></trkpt><trkpt lat="41.4820417" lon="19.7102364"><ele>18.0</ele><time>2026-05-03T12:32:43.704Z</time></trkpt><trkpt lat="41.4822049" lon="19.7101326"><ele>18.0</ele><time>2026-05-03T12:32:44.703Z</time></trkpt><trkpt lat="41.4823662" lon="19.710026"><ele>18.0</ele><time>2026-05-03T12:32:45.704Z</time></trkpt><trkpt lat="41.4825314" lon="19.7099367"><ele>18.0</ele><time>2026-05-03T12:32:46.704Z</time></trkpt><trkpt lat="41.4826892" lon="19.7098373"><ele>18.0</ele><time>2026-05-03T12:32:47.704Z</time></trkpt><trkpt lat="41.4828493" lon="19.7097331"><ele>19.0</ele><time>2026-05-03T12:32:48.703Z</time></trkpt><trkpt lat="41.4830092" lon="19.7096324"><ele>20.0</ele><time>2026-05-03T12:32:49.704Z</time></trkpt><trkpt lat="41.4831749" lon="19.7095288"><ele>21.0</ele><time>2026-05-03T12:32:50.704Z</time></trkpt><trkpt lat="41.4833329" lon="19.7094259"><ele>21.0</ele><time>2026-05-03T12:32:51.703Z</time></trkpt><trkpt lat="41.4834936" lon="19.7093223"><ele>21.0</ele><time>2026-05-03T12:32:52.703Z</time></trkpt><trkpt lat="41.4836588" lon="19.7092135"><ele>21.0</ele><time>2026-05-03T12:32:53.703Z</time></trkpt><trkpt lat="41.4838259" lon="19.7091084"><ele>21.0</ele><time>2026-05-03T12:32:54.703Z</time></trkpt><trkpt lat="41.4840011" lon="19.7089908"><ele>21.0</ele><time>2026-05-03T12:32:55.704Z</time></trkpt><trkpt lat="41.4841712" lon="19.7088814"><ele>21.0</ele><time>2026-05-03T12:32:56.704Z</time></trkpt><trkpt lat="41.4843465" lon="19.7087727"><ele>21.0</ele><time>2026-05-03T12:32:57.704Z</time></trkpt><trkpt lat="41.4845105" lon="19.70867"><ele>21.0</ele><time>2026-05-03T12:32:58.703Z</time></trkpt><trkpt lat="41.4846773" lon="19.708559"><ele>21.0</ele><time>2026-05-03T12:32:59.704Z</time></trkpt><trkpt lat="41.4848419" lon="19.7084514"><ele>21.666666666666668</ele><time>2026-05-03T12:33:00.704Z</time></trkpt><trkpt lat="41.4850116" lon="19.7083482"><ele>22.333333333333336</ele><time>2026-05-03T12:33:01.704Z</time></trkpt><trkpt lat="41.4851865" lon="19.7082374"><ele>23.0</ele><time>2026-05-03T12:33:02.703Z</time></trkpt><trkpt lat="41.4853584" lon="19.7081259"><ele>22.333333333333336</ele><time>2026-05-03T12:33:03.704Z</time></trkpt><trkpt lat="41.4855326" lon="19.7080138"><ele>21.666666666666668</ele><time>2026-05-03T12:33:04.703Z</time></trkpt><trkpt lat="41.485707" lon="19.7078964"><ele>21.0</ele><time>2026-05-03T12:33:05.704Z</time></trkpt><trkpt lat="41.4858821" lon="19.7077746"><ele>20.666666666666668</ele><time>2026-05-03T12:33:06.703Z</time></trkpt><trkpt lat="41.4860539" lon="19.7076548"><ele>20.333333333333336</ele><time>2026-05-03T12:33:07.704Z</time></trkpt><trkpt lat="41.4862302" lon="19.7075397"><ele>20.0</ele><time>2026-05-03T12:33:08.704Z</time></trkpt><trkpt lat="41.4863971" lon="19.7074358"><ele>19.666666666666668</ele><time>2026-05-03T12:33:09.704Z</time></trkpt><trkpt lat="41.4865775" lon="19.7073173"><ele>19.333333333333332</ele><time>2026-05-03T12:33:10.704Z</time></trkpt><trkpt lat="41.4867482" lon="19.707208"><ele>19.0</ele><time>2026-05-03T12:33:11.703Z</time></trkpt><trkpt lat="41.4869273" lon="19.7070878"><ele>19.0</ele><time>2026-05-03T12:33:12.703Z</time></trkpt><trkpt lat="41.4871019" lon="19.7069797"><ele>19.0</ele><time>2026-05-03T12:33:13.704Z</time></trkpt><trkpt lat="41.4872767" lon="19.706866"><ele>19.0</ele><time>2026-05-03T12:33:14.704Z</time></trkpt><trkpt lat="41.4874555" lon="19.706754"><ele>18.666666666666664</ele><time>2026-05-03T12:33:15.704Z</time></trkpt><trkpt lat="41.4876309" lon="19.7066446"><ele>18.333333333333332</ele><time>2026-05-03T12:33:16.703Z</time></trkpt><trkpt lat="41.4878076" lon="19.7065333"><ele>18.0</ele><time>2026-05-03T12:33:17.704Z</time></trkpt><trkpt lat="41.4879828" lon="19.7064232"><ele>18.0</ele><time>2026-05-03T12:33:18.703Z</time></trkpt><trkpt lat="41.4881565" lon="19.7063089"><ele>18.0</ele><time>2026-05-03T12:33:19.704Z</time></trkpt><trkpt lat="41.4883309" lon="19.7061996"><ele>18.0</ele><time>2026-05-03T12:33:20.704Z</time></trkpt><trkpt lat="41.488504" lon="19.7060873"><ele>17.666666666666668</ele><time>2026-05-03T12:33:21.703Z</time></trkpt><trkpt lat="41.4886845" lon="19.7059761"><ele>17.333333333333336</ele><time>2026-05-03T12:33:22.704Z</time></trkpt><trkpt lat="41.4888619" lon="19.7058621"><ele>17.0</ele><time>2026-05-03T12:33:23.703Z</time></trkpt><trkpt lat="41.4890384" lon="19.7057383"><ele>18.0</ele><time>2026-05-03T12:33:24.704Z</time></trkpt><trkpt lat="41.4892182" lon="19.7056198"><ele>19.0</ele><time>2026-05-03T12:33:25.704Z</time></trkpt><trkpt lat="41.4893927" lon="19.7055007"><ele>20.0</ele><time>2026-05-03T12:33:26.704Z</time></trkpt><trkpt lat="41.4895663" lon="19.7053895"><ele>19.333333333333336</ele><time>2026-05-03T12:33:27.703Z</time></trkpt><trkpt lat="41.4897468" lon="19.7052719"><ele>18.666666666666668</ele><time>2026-05-03T12:33:28.703Z</time></trkpt><trkpt lat="41.4899299" lon="19.7051556"><ele>18.0</ele><time>2026-05-03T12:33:29.703Z</time></trkpt><trkpt lat="41.4901095" lon="19.7050338"><ele>17.333333333333332</ele><time>2026-05-03T12:33:30.703Z</time></trkpt><trkpt lat="41.490284" lon="19.7049129"><ele>16.666666666666664</ele><time>2026-05-03T12:33:31.704Z</time></trkpt><trkpt lat="41.490465" lon="19.704802"><ele>16.0</ele><time>2026-05-03T12:33:32.703Z</time></trkpt><trkpt lat="41.4906381" lon="19.7046913"><ele>16.0</ele><time>2026-05-03T12:33:33.704Z</time></trkpt><trkpt lat="41.4908151" lon="19.7045683"><ele>16.0</ele><time>2026-05-03T12:33:34.703Z</time></trkpt><trkpt lat="41.4909933" lon="19.7044532"><ele>16.0</ele><time>2026-05-03T12:33:35.703Z</time></trkpt><trkpt lat="41.4911691" lon="19.704337"><ele>16.333333333333332</ele><time>2026-05-03T12:33:36.703Z</time></trkpt><trkpt lat="41.4913478" lon="19.7042234"><ele>16.666666666666668</ele><time>2026-05-03T12:33:37.703Z</time></trkpt><trkpt lat="41.4915278" lon="19.7041114"><ele>17.0</ele><time>2026-05-03T12:33:38.704Z</time></trkpt><trkpt lat="41.4917047" lon="19.703989"><ele>17.0</ele><time>2026-05-03T12:33:39.703Z</time></trkpt><trkpt lat="41.491877" lon="19.7038727"><ele>17.0</ele><time>2026-05-03T12:33:40.704Z</time></trkpt><trkpt lat="41.4920493" lon="19.7037567"><ele>17.0</ele><time>2026-05-03T12:33:41.703Z</time></trkpt><trkpt lat="41.4922282" lon="19.7036249"><ele>17.0</ele><time>2026-05-03T12:33:42.703Z</time></trkpt><trkpt lat="41.4924017" lon="19.7035058"><ele>17.0</ele><time>2026-05-03T12:33:43.703Z</time></trkpt><trkpt lat="41.4925688" lon="19.7033912"><ele>17.0</ele><time>2026-05-03T12:33:44.703Z</time></trkpt><trkpt lat="41.4927361" lon="19.7032696"><ele>17.0</ele><time>2026-05-03T12:33:45.703Z</time></trkpt><trkpt lat="41.4929035" lon="19.7031566"><ele>17.0</ele><time>2026-05-03T12:33:46.704Z</time></trkpt><trkpt lat="41.493064" lon="19.7030495"><ele>17.0</ele><time>2026-05-03T12:33:47.704Z</time></trkpt><trkpt lat="41.4932292" lon="19.7029329"><ele>17.333333333333336</ele><time>2026-05-03T12:33:48.704Z</time></trkpt><trkpt lat="41.4933962" lon="19.7028271"><ele>17.666666666666668</ele><time>2026-05-03T12:33:49.704Z</time></trkpt><trkpt lat="41.4935588" lon="19.7027218"><ele>18.0</ele><time>2026-05-03T12:33:50.703Z</time></trkpt><trkpt lat="41.4937231" lon="19.7026218"><ele>17.0</ele><time>2026-05-03T12:33:51.704Z</time></trkpt><trkpt lat="41.4938823" lon="19.7025142"><ele>16.0</ele><time>2026-05-03T12:33:52.703Z</time></trkpt><trkpt lat="41.4940432" lon="19.7024042"><ele>15.0</ele><time>2026-05-03T12:33:53.703Z</time></trkpt><trkpt lat="41.4942083" lon="19.7022929"><ele>15.0</ele><time>2026-05-03T12:33:54.703Z</time></trkpt><trkpt lat="41.4943702" lon="19.7021862"><ele>15.0</ele><time>2026-05-03T12:33:55.704Z</time></trkpt><trkpt lat="41.494534" lon="19.70208"><ele>15.0</ele><time>2026-05-03T12:33:56.704Z</time></trkpt><trkpt lat="41.494691" lon="19.7019813"><ele>16.333333333333332</ele><time>2026-05-03T12:33:57.703Z</time></trkpt><trkpt lat="41.4948489" lon="19.7018765"><ele>17.666666666666664</ele><time>2026-05-03T12:33:58.704Z</time></trkpt><trkpt lat="41.4950097" lon="19.7017703"><ele>19.0</ele><time>2026-05-03T12:33:59.704Z</time></trkpt><trkpt lat="41.4951655" lon="19.7016709"><ele>19.0</ele><time>2026-05-03T12:34:00.704Z</time></trkpt><trkpt lat="41.4953232" lon="19.7015695"><ele>19.0</ele><time>2026-05-03T12:34:01.704Z</time></trkpt><trkpt lat="41.4954846" lon="19.7014651"><ele>19.0</ele><time>2026-05-03T12:34:02.703Z</time></trkpt><trkpt lat="41.4956403" lon="19.7013623"><ele>18.333333333333332</ele><time>2026-05-03T12:34:03.703Z</time></trkpt><trkpt lat="41.4957904" lon="19.7012639"><ele>17.666666666666668</ele><time>2026-05-03T12:34:04.704Z</time></trkpt><trkpt lat="41.4959346" lon="19.7011696"><ele>17.0</ele><time>2026-05-03T12:34:05.704Z</time></trkpt><trkpt lat="41.4960773" lon="19.7010818"><ele>18.0</ele><time>2026-05-03T12:34:06.704Z</time></trkpt><trkpt lat="41.4962035" lon="19.7009902"><ele>19.0</ele><time>2026-05-03T12:34:07.703Z</time></trkpt><trkpt lat="41.4963381" lon="19.7008999"><ele>20.0</ele><time>2026-05-03T12:34:08.704Z</time></trkpt><trkpt lat="41.4964781" lon="19.7008154"><ele>21.0</ele><time>2026-05-03T12:34:09.703Z</time></trkpt><trkpt lat="41.4966185" lon="19.7007255"><ele>21.0</ele><time>2026-05-03T12:34:10.704Z</time></trkpt><trkpt lat="41.4967636" lon="19.700634"><ele>21.0</ele><time>2026-05-03T12:34:11.704Z</time></trkpt><trkpt lat="41.4969125" lon="19.7005454"><ele>21.0</ele><time>2026-05-03T12:34:12.703Z</time></trkpt><trkpt lat="41.4970603" lon="19.7004656"><ele>20.666666666666668</ele><time>2026-05-03T12:34:13.704Z</time></trkpt><trkpt lat="41.4972091" lon="19.7003841"><ele>20.333333333333336</ele><time>2026-05-03T12:34:14.703Z</time></trkpt><trkpt lat="41.4973495" lon="19.7003009"><ele>20.0</ele><time>2026-05-03T12:34:15.704Z</time></trkpt><trkpt lat="41.4974961" lon="19.7002212"><ele>19.666666666666668</ele><time>2026-05-03T12:34:16.704Z</time></trkpt><trkpt lat="41.4976484" lon="19.7001246"><ele>19.333333333333332</ele><time>2026-05-03T12:34:17.703Z</time></trkpt><trkpt lat="41.4977987" lon="19.7000428"><ele>19.0</ele><time>2026-05-03T12:34:18.703Z</time></trkpt><trkpt lat="41.4979491" lon="19.6999568"><ele>19.0</ele><time>2026-05-03T12:34:19.704Z</time></trkpt><trkpt lat="41.4981009" lon="19.699871"><ele>19.0</ele><time>2026-05-03T12:34:20.703Z</time></trkpt><trkpt lat="41.498253" lon="19.6997872"><ele>19.0</ele><time>2026-05-03T12:34:21.704Z</time></trkpt><trkpt lat="41.4984126" lon="19.6996978"><ele>19.0</ele><time>2026-05-03T12:34:22.703Z</time></trkpt><trkpt lat="41.4985693" lon="19.6996079"><ele>19.0</ele><time>2026-05-03T12:34:23.704Z</time></trkpt><trkpt lat="41.4987174" lon="19.699518"><ele>19.0</ele><time>2026-05-03T12:34:24.703Z</time></trkpt><trkpt lat="41.4988743" lon="19.6994299"><ele>18.0</ele><time>2026-05-03T12:34:25.704Z</time></trkpt><trkpt lat="41.4990321" lon="19.6993392"><ele>17.0</ele><time>2026-05-03T12:34:26.703Z</time></trkpt><trkpt lat="41.4991932" lon="19.6992524"><ele>16.0</ele><time>2026-05-03T12:34:27.703Z</time></trkpt><trkpt lat="41.499347" lon="19.6991668"><ele>16.0</ele><time>2026-05-03T12:34:28.703Z</time></trkpt><trkpt lat="41.4995141" lon="19.6990835"><ele>16.0</ele><time>2026-05-03T12:34:29.703Z</time></trkpt><trkpt lat="41.4996797" lon="19.6989974"><ele>16.0</ele><time>2026-05-03T12:34:30.704Z</time></trkpt><trkpt lat="41.4998449" lon="19.6989055"><ele>14.666666666666666</ele><time>2026-05-03T12:34:31.704Z</time></trkpt><trkpt lat="41.5000147" lon="19.6988188"><ele>13.333333333333332</ele><time>2026-05-03T12:34:32.703Z</time></trkpt><trkpt lat="41.5001798" lon="19.6987276"><ele>12.0</ele><time>2026-05-03T12:34:33.703Z</time></trkpt><trkpt lat="41.5003416" lon="19.6986378"><ele>11.666666666666666</ele><time>2026-05-03T12:34:34.704Z</time></trkpt><trkpt lat="41.5005066" lon="19.6985431"><ele>11.333333333333332</ele><time>2026-05-03T12:34:35.704Z</time></trkpt><trkpt lat="41.5006708" lon="19.6984543"><ele>11.0</ele><time>2026-05-03T12:34:36.703Z</time></trkpt><trkpt lat="41.5008345" lon="19.6983597"><ele>11.0</ele><time>2026-05-03T12:34:37.703Z</time></trkpt><trkpt lat="41.5009986" lon="19.6982681"><ele>11.0</ele><time>2026-05-03T12:34:38.704Z</time></trkpt><trkpt lat="41.5011591" lon="19.6981768"><ele>11.0</ele><time>2026-05-03T12:34:39.703Z</time></trkpt><trkpt lat="41.5013241" lon="19.6980855"><ele>11.0</ele><time>2026-05-03T12:34:40.703Z</time></trkpt><trkpt lat="41.5014868" lon="19.6979911"><ele>11.0</ele><time>2026-05-03T12:34:41.703Z</time></trkpt><trkpt lat="41.5016503" lon="19.6979161"><ele>11.0</ele><time>2026-05-03T12:34:42.704Z</time></trkpt><trkpt lat="41.5018161" lon="19.6978255"><ele>10.666666666666666</ele><time>2026-05-03T12:34:43.704Z</time></trkpt><trkpt lat="41.5019789" lon="19.6977314"><ele>10.333333333333334</ele><time>2026-05-03T12:34:44.704Z</time></trkpt><trkpt lat="41.5021415" lon="19.6976439"><ele>10.0</ele><time>2026-05-03T12:34:45.704Z</time></trkpt><trkpt lat="41.5023023" lon="19.6975543"><ele>10.0</ele><time>2026-05-03T12:34:46.704Z</time></trkpt><trkpt lat="41.5024601" lon="19.6974711"><ele>10.0</ele><time>2026-05-03T12:34:47.703Z</time></trkpt><trkpt lat="41.5026181" lon="19.6973771"><ele>10.0</ele><time>2026-05-03T12:34:48.703Z</time></trkpt><trkpt lat="41.5027725" lon="19.6972921"><ele>10.333333333333334</ele><time>2026-05-03T12:34:49.703Z</time></trkpt><trkpt lat="41.5029279" lon="19.6972088"><ele>10.666666666666666</ele><time>2026-05-03T12:34:50.703Z</time></trkpt><trkpt lat="41.5030802" lon="19.6971283"><ele>11.0</ele><time>2026-05-03T12:34:51.704Z</time></trkpt><trkpt lat="41.5032313" lon="19.6970509"><ele>11.0</ele><time>2026-05-03T12:34:52.704Z</time></trkpt><trkpt lat="41.5033794" lon="19.6969698"><ele>11.0</ele><time>2026-05-03T12:34:53.703Z</time></trkpt><trkpt lat="41.5035276" lon="19.6968879"><ele>11.0</ele><time>2026-05-03T12:34:54.703Z</time></trkpt><trkpt lat="41.5036739" lon="19.6968041"><ele>11.0</ele><time>2026-05-03T12:34:55.704Z</time></trkpt><trkpt lat="41.5038229" lon="19.6967179"><ele>11.0</ele><time>2026-05-03T12:34:56.703Z</time></trkpt><trkpt lat="41.5039701" lon="19.6966361"><ele>11.0</ele><time>2026-05-03T12:34:57.704Z</time></trkpt><trkpt lat="41.5041218" lon="19.6965577"><ele>11.0</ele><time>2026-05-03T12:34:58.704Z</time></trkpt><trkpt lat="41.504278" lon="19.6964721"><ele>11.0</ele><time>2026-05-03T12:34:59.704Z</time></trkpt><trkpt lat="41.5044358" lon="19.6963916"><ele>11.0</ele><time>2026-05-03T12:35:00.704Z</time></trkpt><trkpt lat="41.5045838" lon="19.6963076"><ele>10.666666666666666</ele><time>2026-05-03T12:35:01.703Z</time></trkpt><trkpt lat="41.50474" lon="19.6962242"><ele>10.333333333333334</ele><time>2026-05-03T12:35:02.703Z</time></trkpt><trkpt lat="41.5048916" lon="19.6961353"><ele>10.0</ele><time>2026-05-03T12:35:03.703Z</time></trkpt><trkpt lat="41.5050384" lon="19.6960503"><ele>10.0</ele><time>2026-05-03T12:35:04.704Z</time></trkpt><trkpt lat="41.505177" lon="19.6959639"><ele>10.0</ele><time>2026-05-03T12:35:05.704Z</time></trkpt><trkpt lat="41.5053217" lon="19.6958821"><ele>10.0</ele><time>2026-05-03T12:35:06.704Z</time></trkpt><trkpt lat="41.5054752" lon="19.6957912"><ele>11.333333333333334</ele><time>2026-05-03T12:35:07.704Z</time></trkpt><trkpt lat="41.5056186" lon="19.6957132"><ele>12.666666666666668</ele><time>2026-05-03T12:35:08.703Z</time></trkpt><trkpt lat="41.5057741" lon="19.6956241"><ele>14.0</ele><time>2026-05-03T12:35:09.704Z</time></trkpt><trkpt lat="41.5059172" lon="19.695547"><ele>14.0</ele><time>2026-05-03T12:35:10.703Z</time></trkpt><trkpt lat="41.5060614" lon="19.6954682"><ele>14.0</ele><time>2026-05-03T12:35:11.703Z</time></trkpt><trkpt lat="41.5062068" lon="19.6953912"><ele>14.0</ele><time>2026-05-03T12:35:12.704Z</time></trkpt><trkpt lat="41.5063581" lon="19.6953134"><ele>13.333333333333334</ele><time>2026-05-03T12:35:13.703Z</time></trkpt><trkpt lat="41.5065093" lon="19.695228"><ele>12.666666666666668</ele><time>2026-05-03T12:35:14.703Z</time></trkpt><trkpt lat="41.5066598" lon="19.6951455"><ele>12.0</ele><time>2026-05-03T12:35:15.703Z</time></trkpt><trkpt lat="41.5068048" lon="19.6950618"><ele>12.0</ele><time>2026-05-03T12:35:16.704Z</time></trkpt><trkpt lat="41.5069522" lon="19.6949797"><ele>12.0</ele><time>2026-05-03T12:35:17.704Z</time></trkpt><trkpt lat="41.5070974" lon="19.6948952"><ele>12.0</ele><time>2026-05-03T12:35:18.703Z</time></trkpt><trkpt lat="41.5072494" lon="19.6948085"><ele>13.0</ele><time>2026-05-03T12:35:19.703Z</time></trkpt><trkpt lat="41.5073978" lon="19.6947133"><ele>14.0</ele><time>2026-05-03T12:35:20.704Z</time></trkpt><trkpt lat="41.5075502" lon="19.6946324"><ele>15.0</ele><time>2026-05-03T12:35:21.703Z</time></trkpt><trkpt lat="41.5077004" lon="19.6945502"><ele>15.0</ele><time>2026-05-03T12:35:22.703Z</time></trkpt><trkpt lat="41.5078518" lon="19.6944607"><ele>15.0</ele><time>2026-05-03T12:35:23.704Z</time></trkpt><trkpt lat="41.5080057" lon="19.69437"><ele>15.0</ele><time>2026-05-03T12:35:24.703Z</time></trkpt><trkpt lat="41.5081712" lon="19.6942203"><ele>14.0</ele><time>2026-05-03T12:35:25.703Z</time></trkpt><trkpt lat="41.5083216" lon="19.6941366"><ele>13.0</ele><time>2026-05-03T12:35:26.703Z</time></trkpt><trkpt lat="41.5084705" lon="19.6940523"><ele>12.0</ele><time>2026-05-03T12:35:27.704Z</time></trkpt><trkpt lat="41.5086156" lon="19.6939685"><ele>11.666666666666666</ele><time>2026-05-03T12:35:28.704Z</time></trkpt><trkpt lat="41.5087559" lon="19.6938823"><ele>11.333333333333332</ele><time>2026-05-03T12:35:29.703Z</time></trkpt><trkpt lat="41.5089007" lon="19.6937944"><ele>11.0</ele><time>2026-05-03T12:35:30.704Z</time></trkpt><trkpt lat="41.5090506" lon="19.693704"><ele>11.0</ele><time>2026-05-03T12:35:31.704Z</time></trkpt><trkpt lat="41.5091999" lon="19.6936153"><ele>11.0</ele><time>2026-05-03T12:35:32.703Z</time></trkpt><trkpt lat="41.5093552" lon="19.6935321"><ele>11.0</ele><time>2026-05-03T12:35:33.702Z</time></trkpt><trkpt lat="41.5095077" lon="19.6934475"><ele>11.666666666666666</ele><time>2026-05-03T12:35:34.703Z</time></trkpt><trkpt lat="41.5096678" lon="19.6933571"><ele>12.333333333333332</ele><time>2026-05-03T12:35:35.703Z</time></trkpt><trkpt lat="41.5098167" lon="19.6932632"><ele>13.0</ele><time>2026-05-03T12:35:36.704Z</time></trkpt><trkpt lat="41.5099637" lon="19.6931815"><ele>13.0</ele><time>2026-05-03T12:35:37.704Z</time></trkpt><trkpt lat="41.5101123" lon="19.6930949"><ele>13.0</ele><time>2026-05-03T12:35:38.704Z</time></trkpt><trkpt lat="41.510257" lon="19.6930119"><ele>13.0</ele><time>2026-05-03T12:35:39.703Z</time></trkpt><trkpt lat="41.510399" lon="19.692929"><ele>13.0</ele><time>2026-05-03T12:35:40.704Z</time></trkpt><trkpt lat="41.5105411" lon="19.6928458"><ele>13.0</ele><time>2026-05-03T12:35:41.704Z</time></trkpt><trkpt lat="41.5106745" lon="19.6927727"><ele>13.0</ele><time>2026-05-03T12:35:42.703Z</time></trkpt><trkpt lat="41.5108156" lon="19.6926903"><ele>13.0</ele><time>2026-05-03T12:35:43.703Z</time></trkpt><trkpt lat="41.5109549" lon="19.692623"><ele>13.0</ele><time>2026-05-03T12:35:44.704Z</time></trkpt><trkpt lat="41.5110922" lon="19.6925418"><ele>13.0</ele><time>2026-05-03T12:35:45.702Z</time></trkpt><trkpt lat="41.5112272" lon="19.6924601"><ele>13.0</ele><time>2026-05-03T12:35:46.704Z</time></trkpt><trkpt lat="41.5113617" lon="19.6923829"><ele>12.333333333333332</ele><time>2026-05-03T12:35:47.704Z</time></trkpt><trkpt lat="41.5114978" lon="19.6923056"><ele>11.666666666666666</ele><time>2026-05-03T12:35:48.704Z</time></trkpt><trkpt lat="41.5116316" lon="19.6922251"><ele>11.0</ele><time>2026-05-03T12:35:49.704Z</time></trkpt><trkpt lat="41.5117764" lon="19.692136"><ele>11.0</ele><time>2026-05-03T12:35:50.702Z</time></trkpt><trkpt lat="41.5119286" lon="19.6920404"><ele>11.0</ele><time>2026-05-03T12:35:51.704Z</time></trkpt><trkpt lat="41.512081" lon="19.6919601"><ele>11.0</ele><time>2026-05-03T12:35:52.703Z</time></trkpt><trkpt lat="41.5122357" lon="19.6918745"><ele>10.333333333333332</ele><time>2026-05-03T12:35:53.703Z</time></trkpt><trkpt lat="41.5123943" lon="19.6917828"><ele>9.666666666666666</ele><time>2026-05-03T12:35:54.703Z</time></trkpt><trkpt lat="41.5125458" lon="19.6916986"><ele>9.0</ele><time>2026-05-03T12:35:55.704Z</time></trkpt><trkpt lat="41.5127039" lon="19.6916003"><ele>9.0</ele><time>2026-05-03T12:35:56.704Z</time></trkpt><trkpt lat="41.5128567" lon="19.6915078"><ele>9.0</ele><time>2026-05-03T12:35:57.704Z</time></trkpt><trkpt lat="41.5130121" lon="19.6914145"><ele>9.0</ele><time>2026-05-03T12:35:58.704Z</time></trkpt><trkpt lat="41.5131614" lon="19.6913185"><ele>9.0</ele><time>2026-05-03T12:35:59.703Z</time></trkpt><trkpt lat="41.5133131" lon="19.6912254"><ele>9.0</ele><time>2026-05-03T12:36:00.703Z</time></trkpt><trkpt lat="41.5134616" lon="19.691138"><ele>9.0</ele><time>2026-05-03T12:36:01.704Z</time></trkpt><trkpt lat="41.5136219" lon="19.6910256"><ele>9.666666666666666</ele><time>2026-05-03T12:36:02.704Z</time></trkpt><trkpt lat="41.51377" lon="19.69094"><ele>10.333333333333332</ele><time>2026-05-03T12:36:03.704Z</time></trkpt><trkpt lat="41.5139228" lon="19.6908543"><ele>11.0</ele><time>2026-05-03T12:36:04.704Z</time></trkpt><trkpt lat="41.5140712" lon="19.6907618"><ele>11.0</ele><time>2026-05-03T12:36:05.704Z</time></trkpt><trkpt lat="41.5142221" lon="19.6906712"><ele>11.0</ele><time>2026-05-03T12:36:06.704Z</time></trkpt><trkpt lat="41.5143726" lon="19.6905853"><ele>11.0</ele><time>2026-05-03T12:36:07.704Z</time></trkpt><trkpt lat="41.5145278" lon="19.6904939"><ele>10.666666666666666</ele><time>2026-05-03T12:36:08.704Z</time></trkpt><trkpt lat="41.5146826" lon="19.6904063"><ele>10.333333333333334</ele><time>2026-05-03T12:36:09.704Z</time></trkpt><trkpt lat="41.5148359" lon="19.6903209"><ele>10.0</ele><time>2026-05-03T12:36:10.704Z</time></trkpt><trkpt lat="41.5149985" lon="19.6902184"><ele>10.0</ele><time>2026-05-03T12:36:11.704Z</time></trkpt><trkpt lat="41.5151534" lon="19.6901328"><ele>10.0</ele><time>2026-05-03T12:36:12.704Z</time></trkpt><trkpt lat="41.5153073" lon="19.6900417"><ele>10.0</ele><time>2026-05-03T12:36:13.704Z</time></trkpt><trkpt lat="41.5154557" lon="19.6899547"><ele>9.666666666666668</ele><time>2026-05-03T12:36:14.704Z</time></trkpt><trkpt lat="41.5156063" lon="19.6898709"><ele>9.333333333333334</ele><time>2026-05-03T12:36:15.704Z</time></trkpt><trkpt lat="41.5157561" lon="19.6897849"><ele>9.0</ele><time>2026-05-03T12:36:16.704Z</time></trkpt><trkpt lat="41.5159049" lon="19.6896942"><ele>9.0</ele><time>2026-05-03T12:36:17.704Z</time></trkpt><trkpt lat="41.5160469" lon="19.6896096"><ele>9.0</ele><time>2026-05-03T12:36:18.704Z</time></trkpt><trkpt lat="41.5161934" lon="19.6895225"><ele>9.0</ele><time>2026-05-03T12:36:19.703Z</time></trkpt><trkpt lat="41.5163508" lon="19.6894294"><ele>9.333333333333334</ele><time>2026-05-03T12:36:20.703Z</time></trkpt><trkpt lat="41.5164989" lon="19.6893403"><ele>9.666666666666668</ele><time>2026-05-03T12:36:21.704Z</time></trkpt><trkpt lat="41.5166498" lon="19.6892468"><ele>10.0</ele><time>2026-05-03T12:36:22.703Z</time></trkpt><trkpt lat="41.5168021" lon="19.6891594"><ele>10.0</ele><time>2026-05-03T12:36:23.704Z</time></trkpt><trkpt lat="41.5169593" lon="19.6890659"><ele>10.0</ele><time>2026-05-03T12:36:24.703Z</time></trkpt><trkpt lat="41.5171133" lon="19.6889757"><ele>10.0</ele><time>2026-05-03T12:36:25.703Z</time></trkpt><trkpt lat="41.5172671" lon="19.6888864"><ele>9.666666666666668</ele><time>2026-05-03T12:36:26.703Z</time></trkpt><trkpt lat="41.5174179" lon="19.6887995"><ele>9.333333333333334</ele><time>2026-05-03T12:36:27.703Z</time></trkpt><trkpt lat="41.5175734" lon="19.6887126"><ele>9.0</ele><time>2026-05-03T12:36:28.704Z</time></trkpt><trkpt lat="41.5177166" lon="19.6886252"><ele>9.0</ele><time>2026-05-03T12:36:29.704Z</time></trkpt><trkpt lat="41.5178669" lon="19.6885365"><ele>9.0</ele><time>2026-05-03T12:36:30.703Z</time></trkpt><trkpt lat="41.5180248" lon="19.6884424"><ele>9.0</ele><time>2026-05-03T12:36:31.704Z</time></trkpt><trkpt lat="41.518188" lon="19.6883536"><ele>9.0</ele><time>2026-05-03T12:36:32.704Z</time></trkpt><trkpt lat="41.5183512" lon="19.6882573"><ele>9.0</ele><time>2026-05-03T12:36:33.703Z</time></trkpt><trkpt lat="41.5185126" lon="19.6881657"><ele>9.0</ele><time>2026-05-03T12:36:34.703Z</time></trkpt><trkpt lat="41.5186725" lon="19.6880745"><ele>8.666666666666666</ele><time>2026-05-03T12:36:35.704Z</time></trkpt><trkpt lat="41.5188346" lon="19.6879681"><ele>8.333333333333332</ele><time>2026-05-03T12:36:36.703Z</time></trkpt><trkpt lat="41.5189925" lon="19.6878749"><ele>8.0</ele><time>2026-05-03T12:36:37.704Z</time></trkpt><trkpt lat="41.5191474" lon="19.6877891"><ele>8.333333333333332</ele><time>2026-05-03T12:36:38.704Z</time></trkpt><trkpt lat="41.519298" lon="19.6877013"><ele>8.666666666666666</ele><time>2026-05-03T12:36:39.703Z</time></trkpt><trkpt lat="41.5194476" lon="19.6876254"><ele>9.0</ele><time>2026-05-03T12:36:40.704Z</time></trkpt><trkpt lat="41.5195974" lon="19.6875372"><ele>9.333333333333334</ele><time>2026-05-03T12:36:41.703Z</time></trkpt><trkpt lat="41.519747" lon="19.6874487"><ele>9.666666666666668</ele><time>2026-05-03T12:36:42.704Z</time></trkpt><trkpt lat="41.5198984" lon="19.6873618"><ele>10.0</ele><time>2026-05-03T12:36:43.704Z</time></trkpt><trkpt lat="41.5200492" lon="19.687272"><ele>10.0</ele><time>2026-05-03T12:36:44.703Z</time></trkpt><trkpt lat="41.5202008" lon="19.6871873"><ele>10.0</ele><time>2026-05-03T12:36:45.703Z</time></trkpt><trkpt lat="41.5203528" lon="19.6870918"><ele>10.0</ele><time>2026-05-03T12:36:46.704Z</time></trkpt><trkpt lat="41.5204948" lon="19.6870053"><ele>9.666666666666668</ele><time>2026-05-03T12:36:47.704Z</time></trkpt><trkpt lat="41.5206488" lon="19.6869187"><ele>9.333333333333334</ele><time>2026-05-03T12:36:48.703Z</time></trkpt><trkpt lat="41.520792" lon="19.6868298"><ele>9.0</ele><time>2026-05-03T12:36:49.703Z</time></trkpt><trkpt lat="41.5209315" lon="19.6867449"><ele>9.0</ele><time>2026-05-03T12:36:50.703Z</time></trkpt><trkpt lat="41.5210836" lon="19.6866611"><ele>9.0</ele><time>2026-05-03T12:36:51.704Z</time></trkpt><trkpt lat="41.5212414" lon="19.6865765"><ele>9.0</ele><time>2026-05-03T12:36:52.704Z</time></trkpt><trkpt lat="41.5213862" lon="19.6864879"><ele>8.333333333333334</ele><time>2026-05-03T12:36:53.703Z</time></trkpt><trkpt lat="41.5215425" lon="19.6863988"><ele>7.666666666666667</ele><time>2026-05-03T12:36:54.703Z</time></trkpt><trkpt lat="41.5216966" lon="19.68631"><ele>7.0</ele><time>2026-05-03T12:36:55.704Z</time></trkpt><trkpt lat="41.5218493" lon="19.6862192"><ele>7.0</ele><time>2026-05-03T12:36:56.703Z</time></trkpt><trkpt lat="41.5220013" lon="19.6861323"><ele>7.0</ele><time>2026-05-03T12:36:57.703Z</time></trkpt><trkpt lat="41.5221574" lon="19.6860418"><ele>7.0</ele><time>2026-05-03T12:36:58.704Z</time></trkpt><trkpt lat="41.5223125" lon="19.6859454"><ele>7.333333333333334</ele><time>2026-05-03T12:36:59.704Z</time></trkpt><trkpt lat="41.5224706" lon="19.6858534"><ele>7.666666666666666</ele><time>2026-05-03T12:37:00.703Z</time></trkpt><trkpt lat="41.5226182" lon="19.6857685"><ele>8.0</ele><time>2026-05-03T12:37:01.703Z</time></trkpt><trkpt lat="41.522761" lon="19.6856781"><ele>7.666666666666666</ele><time>2026-05-03T12:37:02.704Z</time></trkpt><trkpt lat="41.5229097" lon="19.6855956"><ele>7.333333333333334</ele><time>2026-05-03T12:37:03.703Z</time></trkpt><trkpt lat="41.5230519" lon="19.6855122"><ele>7.0</ele><time>2026-05-03T12:37:04.704Z</time></trkpt><trkpt lat="41.5231902" lon="19.685437"><ele>7.0</ele><time>2026-05-03T12:37:05.704Z</time></trkpt><trkpt lat="41.52332" lon="19.685363"><ele>7.0</ele><time>2026-05-03T12:37:06.704Z</time></trkpt><trkpt lat="41.5234553" lon="19.6852949"><ele>7.0</ele><time>2026-05-03T12:37:07.704Z</time></trkpt><trkpt lat="41.5235903" lon="19.6852236"><ele>7.0</ele><time>2026-05-03T12:37:08.703Z</time></trkpt><trkpt lat="41.5237284" lon="19.6851474"><ele>7.25</ele><time>2026-05-03T12:37:09.703Z</time></trkpt><trkpt lat="41.5238582" lon="19.6850711"><ele>7.5</ele><time>2026-05-03T12:37:10.703Z</time></trkpt><trkpt lat="41.5239929" lon="19.6849836"><ele>7.75</ele><time>2026-05-03T12:37:11.704Z</time></trkpt><trkpt lat="41.5241333" lon="19.6849024"><ele>8.0</ele><time>2026-05-03T12:37:12.703Z</time></trkpt><trkpt lat="41.5242696" lon="19.6848256"><ele>8.0</ele><time>2026-05-03T12:37:13.703Z</time></trkpt><trkpt lat="41.5244095" lon="19.6847406"><ele>8.0</ele><time>2026-05-03T12:37:14.704Z</time></trkpt><trkpt lat="41.5245438" lon="19.6846586"><ele>8.0</ele><time>2026-05-03T12:37:15.704Z</time></trkpt><trkpt lat="41.5246756" lon="19.6845768"><ele>8.0</ele><time>2026-05-03T12:37:16.704Z</time></trkpt><trkpt lat="41.5248168" lon="19.6844981"><ele>7.25</ele><time>2026-05-03T12:37:17.704Z</time></trkpt><trkpt lat="41.5249474" lon="19.684421"><ele>6.5</ele><time>2026-05-03T12:37:18.703Z</time></trkpt><trkpt lat="41.5250792" lon="19.6843497"><ele>5.75</ele><time>2026-05-03T12:37:19.703Z</time></trkpt><trkpt lat="41.5252059" lon="19.6842711"><ele>5.0</ele><time>2026-05-03T12:37:20.703Z</time></trkpt><trkpt lat="41.5253375" lon="19.6841866"><ele>5.75</ele><time>2026-05-03T12:37:21.704Z</time></trkpt><trkpt lat="41.5254659" lon="19.6841024"><ele>6.5</ele><time>2026-05-03T12:37:22.704Z</time></trkpt><trkpt lat="41.5255946" lon="19.6840234"><ele>7.25</ele><time>2026-05-03T12:37:23.703Z</time></trkpt><trkpt lat="41.5257458" lon="19.6839383"><ele>8.0</ele><time>2026-05-03T12:37:24.702Z</time></trkpt><trkpt lat="41.5258679" lon="19.6838654"><ele>8.0</ele><time>2026-05-03T12:37:25.703Z</time></trkpt><trkpt lat="41.5259987" lon="19.6837905"><ele>8.0</ele><time>2026-05-03T12:37:26.704Z</time></trkpt><trkpt lat="41.5261299" lon="19.6837179"><ele>8.0</ele><time>2026-05-03T12:37:27.703Z</time></trkpt><trkpt lat="41.526261" lon="19.6836382"><ele>8.0</ele><time>2026-05-03T12:37:28.704Z</time></trkpt><trkpt lat="41.5263828" lon="19.6835667"><ele>7.5</ele><time>2026-05-03T12:37:29.703Z</time></trkpt><trkpt lat="41.526504" lon="19.6834935"><ele>7.0</ele><time>2026-05-03T12:37:30.703Z</time></trkpt><trkpt lat="41.5266296" lon="19.6834313"><ele>6.5</ele><time>2026-05-03T12:37:31.703Z</time></trkpt><trkpt lat="41.5267486" lon="19.6833564"><ele>6.0</ele><time>2026-05-03T12:37:32.703Z</time></trkpt><trkpt lat="41.5268765" lon="19.6832625"><ele>6.0</ele><time>2026-05-03T12:37:33.704Z</time></trkpt><trkpt lat="41.5269964" lon="19.6831925"><ele>6.0</ele><time>2026-05-03T12:37:34.703Z</time></trkpt><trkpt lat="41.5271189" lon="19.6831283"><ele>6.0</ele><time>2026-05-03T12:37:35.703Z</time></trkpt><trkpt lat="41.5272357" lon="19.6830618"><ele>6.0</ele><time>2026-05-03T12:37:36.704Z</time></trkpt><trkpt lat="41.5273529" lon="19.6829928"><ele>6.25</ele><time>2026-05-03T12:37:37.703Z</time></trkpt><trkpt lat="41.5274689" lon="19.6829313"><ele>6.5</ele><time>2026-05-03T12:37:38.703Z</time></trkpt><trkpt lat="41.5275796" lon="19.6828639"><ele>6.75</ele><time>2026-05-03T12:37:39.703Z</time></trkpt><trkpt lat="41.5276944" lon="19.6827941"><ele>7.0</ele><time>2026-05-03T12:37:40.704Z</time></trkpt><trkpt lat="41.5278034" lon="19.6827306"><ele>7.25</ele><time>2026-05-03T12:37:41.704Z</time></trkpt><trkpt lat="41.5279159" lon="19.6826597"><ele>7.5</ele><time>2026-05-03T12:37:42.703Z</time></trkpt><trkpt lat="41.5280335" lon="19.6825851"><ele>7.75</ele><time>2026-05-03T12:37:43.704Z</time></trkpt><trkpt lat="41.5281522" lon="19.6825143"><ele>8.0</ele><time>2026-05-03T12:37:44.704Z</time></trkpt><trkpt lat="41.5282783" lon="19.6824397"><ele>8.0</ele><time>2026-05-03T12:37:45.703Z</time></trkpt><trkpt lat="41.5284028" lon="19.6823641"><ele>8.0</ele><time>2026-05-03T12:37:46.704Z</time></trkpt><trkpt lat="41.5285297" lon="19.6822916"><ele>8.0</ele><time>2026-05-03T12:37:47.704Z</time></trkpt><trkpt lat="41.5286613" lon="19.6822207"><ele>8.0</ele><time>2026-05-03T12:37:48.703Z</time></trkpt><trkpt lat="41.5287943" lon="19.6821467"><ele>7.75</ele><time>2026-05-03T12:37:49.704Z</time></trkpt><trkpt lat="41.5289242" lon="19.6820721"><ele>7.5</ele><time>2026-05-03T12:37:50.703Z</time></trkpt><trkpt lat="41.5290524" lon="19.6819921"><ele>7.25</ele><time>2026-05-03T12:37:51.703Z</time></trkpt><trkpt lat="41.5291792" lon="19.6819146"><ele>7.0</ele><time>2026-05-03T12:37:52.704Z</time></trkpt><trkpt lat="41.5293066" lon="19.6818326"><ele>7.0</ele><time>2026-05-03T12:37:53.703Z</time></trkpt><trkpt lat="41.5294527" lon="19.6817369"><ele>7.0</ele><time>2026-05-03T12:37:54.703Z</time></trkpt><trkpt lat="41.5296137" lon="19.6816386"><ele>7.0</ele><time>2026-05-03T12:37:55.704Z</time></trkpt><trkpt lat="41.5297824" lon="19.6815376"><ele>7.0</ele><time>2026-05-03T12:37:56.704Z</time></trkpt><trkpt lat="41.529956" lon="19.6814391"><ele>7.0</ele><time>2026-05-03T12:37:57.704Z</time></trkpt><trkpt lat="41.5301338" lon="19.6813455"><ele>7.0</ele><time>2026-05-03T12:37:58.703Z</time></trkpt><trkpt lat="41.5303072" lon="19.6812492"><ele>6.666666666666667</ele><time>2026-05-03T12:37:59.703Z</time></trkpt><trkpt lat="41.530485" lon="19.6811414"><ele>6.333333333333334</ele><time>2026-05-03T12:38:00.704Z</time></trkpt><trkpt lat="41.5306692" lon="19.6810261"><ele>6.0</ele><time>2026-05-03T12:38:01.704Z</time></trkpt><trkpt lat="41.5308684" lon="19.6809041"><ele>6.0</ele><time>2026-05-03T12:38:02.703Z</time></trkpt><trkpt lat="41.5310787" lon="19.6807751"><ele>6.0</ele><time>2026-05-03T12:38:03.703Z</time></trkpt><trkpt lat="41.5312979" lon="19.6806486"><ele>6.0</ele><time>2026-05-03T12:38:04.703Z</time></trkpt><trkpt lat="41.5315165" lon="19.6805204"><ele>6.0</ele><time>2026-05-03T12:38:05.703Z</time></trkpt><trkpt lat="41.5317281" lon="19.6803953"><ele>6.0</ele><time>2026-05-03T12:38:06.703Z</time></trkpt><trkpt lat="41.531931" lon="19.6802856"><ele>6.0</ele><time>2026-05-03T12:38:07.703Z</time></trkpt><trkpt lat="41.5321192" lon="19.6801813"><ele>6.0</ele><time>2026-05-03T12:38:08.704Z</time></trkpt><trkpt lat="41.5323045" lon="19.6800763"><ele>6.0</ele><time>2026-05-03T12:38:09.703Z</time></trkpt><trkpt lat="41.5324803" lon="19.6799773"><ele>6.0</ele><time>2026-05-03T12:38:10.702Z</time></trkpt><trkpt lat="41.532649" lon="19.6798834"><ele>6.0</ele><time>2026-05-03T12:38:11.704Z</time></trkpt><trkpt lat="41.5328017" lon="19.6797945"><ele>5.666666666666667</ele><time>2026-05-03T12:38:12.704Z</time></trkpt><trkpt lat="41.5329505" lon="19.6797084"><ele>5.333333333333334</ele><time>2026-05-03T12:38:13.703Z</time></trkpt><trkpt lat="41.5330918" lon="19.6796227"><ele>5.0</ele><time>2026-05-03T12:38:14.704Z</time></trkpt><trkpt lat="41.5332316" lon="19.6795438"><ele>5.0</ele><time>2026-05-03T12:38:15.704Z</time></trkpt><trkpt lat="41.5333657" lon="19.6794706"><ele>5.0</ele><time>2026-05-03T12:38:16.703Z</time></trkpt><trkpt lat="41.5334885" lon="19.6793925"><ele>5.0</ele><time>2026-05-03T12:38:17.704Z</time></trkpt><trkpt lat="41.5336184" lon="19.6793199"><ele>5.0</ele><time>2026-05-03T12:38:18.704Z</time></trkpt><trkpt lat="41.5337516" lon="19.6792401"><ele>4.333333333333334</ele><time>2026-05-03T12:38:19.703Z</time></trkpt><trkpt lat="41.533894" lon="19.67915"><ele>3.666666666666667</ele><time>2026-05-03T12:38:20.703Z</time></trkpt><trkpt lat="41.5340475" lon="19.6790527"><ele>3.0</ele><time>2026-05-03T12:38:21.703Z</time></trkpt><trkpt lat="41.5341964" lon="19.6789698"><ele>3.0</ele><time>2026-05-03T12:38:22.704Z</time></trkpt><trkpt lat="41.5343583" lon="19.6788838"><ele>3.0</ele><time>2026-05-03T12:38:23.703Z</time></trkpt><trkpt lat="41.5345009" lon="19.678803"><ele>3.0</ele><time>2026-05-03T12:38:24.703Z</time></trkpt><trkpt lat="41.5346526" lon="19.6787129"><ele>3.333333333333333</ele><time>2026-05-03T12:38:25.703Z</time></trkpt><trkpt lat="41.53481" lon="19.6786136"><ele>3.6666666666666665</ele><time>2026-05-03T12:38:26.703Z</time></trkpt><trkpt lat="41.5349671" lon="19.678525"><ele>4.0</ele><time>2026-05-03T12:38:27.703Z</time></trkpt><trkpt lat="41.5351244" lon="19.6784282"><ele>4.333333333333333</ele><time>2026-05-03T12:38:28.703Z</time></trkpt><trkpt lat="41.535281" lon="19.6783343"><ele>4.666666666666667</ele><time>2026-05-03T12:38:29.704Z</time></trkpt><trkpt lat="41.5354407" lon="19.6782379"><ele>5.0</ele><time>2026-05-03T12:38:30.704Z</time></trkpt><trkpt lat="41.535603" lon="19.6781443"><ele>5.0</ele><time>2026-05-03T12:38:31.703Z</time></trkpt><trkpt lat="41.5357663" lon="19.678043"><ele>5.0</ele><time>2026-05-03T12:38:32.703Z</time></trkpt><trkpt lat="41.5359272" lon="19.6779521"><ele>5.0</ele><time>2026-05-03T12:38:33.704Z</time></trkpt><trkpt lat="41.5360769" lon="19.6778675"><ele>5.0</ele><time>2026-05-03T12:38:34.704Z</time></trkpt><trkpt lat="41.5362156" lon="19.677788"><ele>5.0</ele><time>2026-05-03T12:38:35.703Z</time></trkpt><trkpt lat="41.5363529" lon="19.6777206"><ele>5.0</ele><time>2026-05-03T12:38:36.703Z</time></trkpt><trkpt lat="41.5364839" lon="19.6776608"><ele>5.0</ele><time>2026-05-03T12:38:37.703Z</time></trkpt><trkpt lat="41.5366028" lon="19.6776081"><ele>4.666666666666667</ele><time>2026-05-03T12:38:38.704Z</time></trkpt><trkpt lat="41.536714" lon="19.6775669"><ele>4.333333333333334</ele><time>2026-05-03T12:38:39.704Z</time></trkpt><trkpt lat="41.5368152" lon="19.6775493"><ele>4.0</ele><time>2026-05-03T12:38:40.704Z</time></trkpt><trkpt lat="41.5368976" lon="19.6775511"><ele>3.666666666666667</ele><time>2026-05-03T12:38:41.703Z</time></trkpt><trkpt lat="41.5369595" lon="19.6775943"><ele>3.3333333333333335</ele><time>2026-05-03T12:38:42.703Z</time></trkpt><trkpt lat="41.5370129" lon="19.6776455"><ele>3.0</ele><time>2026-05-03T12:38:43.704Z</time></trkpt><trkpt lat="41.5370512" lon="19.677722"><ele>3.1666666666666665</ele><time>2026-05-03T12:38:44.704Z</time></trkpt><trkpt lat="41.5370484" lon="19.6778137"><ele>3.333333333333333</ele><time>2026-05-03T12:38:45.703Z</time></trkpt><trkpt lat="41.5370176" lon="19.6779097"><ele>3.5</ele><time>2026-05-03T12:38:46.704Z</time></trkpt><trkpt lat="41.5369628" lon="19.6779704"><ele>3.6666666666666665</ele><time>2026-05-03T12:38:47.703Z</time></trkpt><trkpt lat="41.536893" lon="19.6780249"><ele>3.833333333333333</ele><time>2026-05-03T12:38:48.704Z</time></trkpt><trkpt lat="41.5368014" lon="19.6780665"><ele>4.0</ele><time>2026-05-03T12:38:49.704Z</time></trkpt><trkpt lat="41.5367008" lon="19.6781147"><ele>4.0</ele><time>2026-05-03T12:38:50.704Z</time></trkpt><trkpt lat="41.5365947" lon="19.6781602"><ele>4.0</ele><time>2026-05-03T12:38:51.704Z</time></trkpt><trkpt lat="41.5365032" lon="19.6782181"><ele>4.0</ele><time>2026-05-03T12:38:52.704Z</time></trkpt><trkpt lat="41.536418" lon="19.6782836"><ele>4.0</ele><time>2026-05-03T12:38:53.704Z</time></trkpt><trkpt lat="41.5363552" lon="19.67836"><ele>4.0</ele><time>2026-05-03T12:38:54.703Z</time></trkpt><trkpt lat="41.536327" lon="19.6784584"><ele>4.0</ele><time>2026-05-03T12:38:55.703Z</time></trkpt><trkpt lat="41.5363182" lon="19.6785733"><ele>4.0</ele><time>2026-05-03T12:38:56.704Z</time></trkpt><trkpt lat="41.5363222" lon="19.6787069"><ele>4.0</ele><time>2026-05-03T12:38:57.703Z</time></trkpt><trkpt lat="41.5363268" lon="19.6788676"><ele>4.0</ele><time>2026-05-03T12:38:58.704Z</time></trkpt><trkpt lat="41.5363356" lon="19.6790469"><ele>4.0</ele><time>2026-05-03T12:38:59.703Z</time></trkpt><trkpt lat="41.5363472" lon="19.6792267"><ele>4.333333333333333</ele><time>2026-05-03T12:39:00.704Z</time></trkpt><trkpt lat="41.5363546" lon="19.6794305"><ele>4.666666666666667</ele><time>2026-05-03T12:39:01.703Z</time></trkpt><trkpt lat="41.5363602" lon="19.6796509"><ele>5.0</ele><time>2026-05-03T12:39:02.704Z</time></trkpt><trkpt lat="41.5363828" lon="19.6798718"><ele>5.0</ele><time>2026-05-03T12:39:03.703Z</time></trkpt><trkpt lat="41.5363886" lon="19.6800786"><ele>5.0</ele><time>2026-05-03T12:39:04.704Z</time></trkpt><trkpt lat="41.5364011" lon="19.6802765"><ele>5.0</ele><time>2026-05-03T12:39:05.704Z</time></trkpt><trkpt lat="41.5364049" lon="19.6804539"><ele>5.0</ele><time>2026-05-03T12:39:06.704Z</time></trkpt><trkpt lat="41.5364104" lon="19.6805931"><ele>5.0</ele><time>2026-05-03T12:39:07.703Z</time></trkpt><trkpt lat="41.5364274" lon="19.6806936"><ele>5.0</ele><time>2026-05-03T12:39:08.703Z</time></trkpt><trkpt lat="41.5364626" lon="19.680767"><ele>5.0</ele><time>2026-05-03T12:39:09.704Z</time></trkpt><trkpt lat="41.5365158" lon="19.6808123"><ele>5.0</ele><time>2026-05-03T12:39:10.703Z</time></trkpt><trkpt lat="41.5365995" lon="19.6808236"><ele>5.0</ele><time>2026-05-03T12:39:11.704Z</time></trkpt><trkpt lat="41.5367039" lon="19.6808003"><ele>5.0</ele><time>2026-05-03T12:39:12.703Z</time></trkpt><trkpt lat="41.5368275" lon="19.6807719"><ele>5.0</ele><time>2026-05-03T12:39:13.703Z</time></trkpt><trkpt lat="41.5369545" lon="19.680743"><ele>5.0</ele><time>2026-05-03T12:39:14.703Z</time></trkpt><trkpt lat="41.5370935" lon="19.680709"><ele>5.0</ele><time>2026-05-03T12:39:15.704Z</time></trkpt><trkpt lat="41.5372526" lon="19.6806809"><ele>5.0</ele><time>2026-05-03T12:39:16.704Z</time></trkpt><trkpt lat="41.5374161" lon="19.6806567"><ele>5.333333333333334</ele><time>2026-05-03T12:39:17.704Z</time></trkpt><trkpt lat="41.5375784" lon="19.6806363"><ele>5.666666666666667</ele><time>2026-05-03T12:39:18.703Z</time></trkpt><trkpt lat="41.5377598" lon="19.6805914"><ele>6.0</ele><time>2026-05-03T12:39:19.703Z</time></trkpt><trkpt lat="41.5379507" lon="19.6805634"><ele>5.333333333333333</ele><time>2026-05-03T12:39:20.704Z</time></trkpt><trkpt lat="41.5381389" lon="19.6805275"><ele>4.666666666666666</ele><time>2026-05-03T12:39:21.703Z</time></trkpt><trkpt lat="41.538322" lon="19.6804937"><ele>4.0</ele><time>2026-05-03T12:39:22.703Z</time></trkpt><trkpt lat="41.5385104" lon="19.6804545"><ele>4.0</ele><time>2026-05-03T12:39:23.704Z</time></trkpt><trkpt lat="41.5386986" lon="19.6804164"><ele>4.0</ele><time>2026-05-03T12:39:24.704Z</time></trkpt><trkpt lat="41.5388887" lon="19.6803785"><ele>4.0</ele><time>2026-05-03T12:39:25.704Z</time></trkpt><trkpt lat="41.53908" lon="19.680339"><ele>4.0</ele><time>2026-05-03T12:39:26.704Z</time></trkpt><trkpt lat="41.5392707" lon="19.680301"><ele>4.0</ele><time>2026-05-03T12:39:27.703Z</time></trkpt><trkpt lat="41.5394597" lon="19.6802645"><ele>4.0</ele><time>2026-05-03T12:39:28.703Z</time></trkpt><trkpt lat="41.5396466" lon="19.6802209"><ele>4.0</ele><time>2026-05-03T12:39:29.704Z</time></trkpt><trkpt lat="41.5398243" lon="19.6801882"><ele>4.0</ele><time>2026-05-03T12:39:30.703Z</time></trkpt><trkpt lat="41.5400006" lon="19.6801556"><ele>4.0</ele><time>2026-05-03T12:39:31.704Z</time></trkpt><trkpt lat="41.5401682" lon="19.6801271"><ele>4.0</ele><time>2026-05-03T12:39:32.704Z</time></trkpt><trkpt lat="41.5403423" lon="19.6801023"><ele>4.0</ele><time>2026-05-03T12:39:33.704Z</time></trkpt><trkpt lat="41.5405001" lon="19.6800733"><ele>4.0</ele><time>2026-05-03T12:39:34.704Z</time></trkpt><trkpt lat="41.5406515" lon="19.6800466"><ele>4.5</ele><time>2026-05-03T12:39:35.703Z</time></trkpt><trkpt lat="41.5407914" lon="19.680023"><ele>5.0</ele><time>2026-05-03T12:39:36.703Z</time></trkpt><trkpt lat="41.5409271" lon="19.6799961"><ele>5.5</ele><time>2026-05-03T12:39:37.703Z</time></trkpt><trkpt lat="41.5410335" lon="19.6799782"><ele>6.0</ele><time>2026-05-03T12:39:38.703Z</time></trkpt><trkpt lat="41.5411211" lon="19.679953"><ele>6.0</ele><time>2026-05-03T12:39:39.704Z</time></trkpt><trkpt lat="41.5411987" lon="19.6799131"><ele>6.0</ele><time>2026-05-03T12:39:40.704Z</time></trkpt><trkpt lat="41.5412664" lon="19.6798472"><ele>6.0</ele><time>2026-05-03T12:39:41.703Z</time></trkpt><trkpt lat="41.5413298" lon="19.6797482"><ele>6.0</ele><time>2026-05-03T12:39:42.703Z</time></trkpt><trkpt lat="41.5413924" lon="19.6796374"><ele>6.0</ele><time>2026-05-03T12:39:43.704Z</time></trkpt><trkpt lat="41.5414483" lon="19.6795124"><ele>6.25</ele><time>2026-05-03T12:39:44.704Z</time></trkpt><trkpt lat="41.541521" lon="19.6793713"><ele>6.5</ele><time>2026-05-03T12:39:45.704Z</time></trkpt><trkpt lat="41.5415967" lon="19.6792205"><ele>6.75</ele><time>2026-05-03T12:39:46.704Z</time></trkpt><trkpt lat="41.5416801" lon="19.679061"><ele>7.0</ele><time>2026-05-03T12:39:47.704Z</time></trkpt><trkpt lat="41.5417598" lon="19.678896"><ele>7.0</ele><time>2026-05-03T12:39:48.704Z</time></trkpt><trkpt lat="41.541833" lon="19.6787433"><ele>7.0</ele><time>2026-05-03T12:39:49.703Z</time></trkpt><trkpt lat="41.5418982" lon="19.6785844"><ele>7.0</ele><time>2026-05-03T12:39:50.704Z</time></trkpt><trkpt lat="41.5419711" lon="19.6784616"><ele>7.0</ele><time>2026-05-03T12:39:51.704Z</time></trkpt><trkpt lat="41.5420514" lon="19.6783676"><ele>7.199999999999999</ele><time>2026-05-03T12:39:52.703Z</time></trkpt><trkpt lat="41.5421406" lon="19.6783566"><ele>7.3999999999999995</ele><time>2026-05-03T12:39:53.703Z</time></trkpt><trkpt lat="41.5422393" lon="19.678344"><ele>7.6000000000000005</ele><time>2026-05-03T12:39:54.704Z</time></trkpt><trkpt lat="41.5423552" lon="19.678329"><ele>7.800000000000001</ele><time>2026-05-03T12:39:55.704Z</time></trkpt><trkpt lat="41.5424808" lon="19.6783143"><ele>8.0</ele><time>2026-05-03T12:39:56.702Z</time></trkpt><trkpt lat="41.542602" lon="19.6783046"><ele>8.0</ele><time>2026-05-03T12:39:57.702Z</time></trkpt><trkpt lat="41.5427453" lon="19.6782975"><ele>8.0</ele><time>2026-05-03T12:39:58.703Z</time></trkpt><trkpt lat="41.5428769" lon="19.678283"><ele>8.0</ele><time>2026-05-03T12:39:59.704Z</time></trkpt><trkpt lat="41.5430036" lon="19.6782599"><ele>8.0</ele><time>2026-05-03T12:40:00.703Z</time></trkpt><trkpt lat="41.5431233" lon="19.6782476"><ele>8.600000000000001</ele><time>2026-05-03T12:40:01.704Z</time></trkpt><trkpt lat="41.5432329" lon="19.6782259"><ele>9.200000000000001</ele><time>2026-05-03T12:40:02.704Z</time></trkpt><trkpt lat="41.5433461" lon="19.6782107"><ele>9.8</ele><time>2026-05-03T12:40:03.704Z</time></trkpt><trkpt lat="41.5434535" lon="19.678195"><ele>10.4</ele><time>2026-05-03T12:40:04.703Z</time></trkpt><trkpt lat="41.5435554" lon="19.6781894"><ele>11.0</ele><time>2026-05-03T12:40:05.704Z</time></trkpt><trkpt lat="41.5436674" lon="19.6781956"><ele>11.25</ele><time>2026-05-03T12:40:06.704Z</time></trkpt><trkpt lat="41.5437841" lon="19.6781931"><ele>11.5</ele><time>2026-05-03T12:40:07.703Z</time></trkpt><trkpt lat="41.5439112" lon="19.6781771"><ele>11.75</ele><time>2026-05-03T12:40:08.703Z</time></trkpt><trkpt lat="41.5440428" lon="19.678169"><ele>12.0</ele><time>2026-05-03T12:40:09.703Z</time></trkpt><trkpt lat="41.5441684" lon="19.6781557"><ele>12.0</ele><time>2026-05-03T12:40:10.703Z</time></trkpt><trkpt lat="41.5442971" lon="19.6781494"><ele>12.0</ele><time>2026-05-03T12:40:11.704Z</time></trkpt><trkpt lat="41.5444275" lon="19.6781425"><ele>12.0</ele><time>2026-05-03T12:40:12.703Z</time></trkpt><trkpt lat="41.5445672" lon="19.6781282"><ele>12.0</ele><time>2026-05-03T12:40:13.704Z</time></trkpt><trkpt lat="41.5447081" lon="19.6781205"><ele>12.0</ele><time>2026-05-03T12:40:14.703Z</time></trkpt><trkpt lat="41.5448477" lon="19.6781106"><ele>12.0</ele><time>2026-05-03T12:40:15.704Z</time></trkpt><trkpt lat="41.5449827" lon="19.6780981"><ele>12.0</ele><time>2026-05-03T12:40:16.703Z</time></trkpt><trkpt lat="41.5451196" lon="19.6780811"><ele>12.0</ele><time>2026-05-03T12:40:17.704Z</time></trkpt><trkpt lat="41.5452511" lon="19.6780668"><ele>11.75</ele><time>2026-05-03T12:40:18.703Z</time></trkpt><trkpt lat="41.5453835" lon="19.6780565"><ele>11.5</ele><time>2026-05-03T12:40:19.704Z</time></trkpt><trkpt lat="41.5455124" lon="19.6780562"><ele>11.25</ele><time>2026-05-03T12:40:20.704Z</time></trkpt><trkpt lat="41.5456406" lon="19.6780572"><ele>11.0</ele><time>2026-05-03T12:40:21.704Z</time></trkpt><trkpt lat="41.5457707" lon="19.6780564"><ele>11.0</ele><time>2026-05-03T12:40:22.704Z</time></trkpt><trkpt lat="41.5459014" lon="19.678047"><ele>11.0</ele><time>2026-05-03T12:40:23.703Z</time></trkpt><trkpt lat="41.5460322" lon="19.678035"><ele>11.0</ele><time>2026-05-03T12:40:24.703Z</time></trkpt><trkpt lat="41.5461652" lon="19.6780219"><ele>11.0</ele><time>2026-05-03T12:40:25.703Z</time></trkpt><trkpt lat="41.5462938" lon="19.6780025"><ele>11.4</ele><time>2026-05-03T12:40:26.704Z</time></trkpt><trkpt lat="41.5464141" lon="19.6779955"><ele>11.8</ele><time>2026-05-03T12:40:27.704Z</time></trkpt><trkpt lat="41.5465285" lon="19.6779835"><ele>12.200000000000001</ele><time>2026-05-03T12:40:28.703Z</time></trkpt><trkpt lat="41.5466353" lon="19.6779853"><ele>12.600000000000001</ele><time>2026-05-03T12:40:29.703Z</time></trkpt><trkpt lat="41.5467296" lon="19.6779797"><ele>13.0</ele><time>2026-05-03T12:40:30.703Z</time></trkpt><trkpt lat="41.5468194" lon="19.6779645"><ele>12.999999999999998</ele><time>2026-05-03T12:40:31.703Z</time></trkpt><trkpt lat="41.5469038" lon="19.677956"><ele>13.0</ele><time>2026-05-03T12:40:32.704Z</time></trkpt><trkpt lat="41.5469904" lon="19.6779492"><ele>13.0</ele><time>2026-05-03T12:40:33.704Z</time></trkpt><trkpt lat="41.5470722" lon="19.677954"><ele>13.0</ele><time>2026-05-03T12:40:34.704Z</time></trkpt><trkpt lat="41.5471526" lon="19.6779691"><ele>12.999999999999998</ele><time>2026-05-03T12:40:35.704Z</time></trkpt><trkpt lat="41.5472308" lon="19.6779949"><ele>13.0</ele><time>2026-05-03T12:40:36.704Z</time></trkpt><trkpt lat="41.5473154" lon="19.6780361"><ele>13.166666666666666</ele><time>2026-05-03T12:40:37.704Z</time></trkpt><trkpt lat="41.5473949" lon="19.6780716"><ele>13.333333333333332</ele><time>2026-05-03T12:40:38.703Z</time></trkpt><trkpt lat="41.5474694" lon="19.678127"><ele>13.5</ele><time>2026-05-03T12:40:39.703Z</time></trkpt><trkpt lat="41.5475483" lon="19.6781751"><ele>13.666666666666668</ele><time>2026-05-03T12:40:40.704Z</time></trkpt><trkpt lat="41.5476201" lon="19.6782241"><ele>13.833333333333334</ele><time>2026-05-03T12:40:41.703Z</time></trkpt><trkpt lat="41.5476863" lon="19.6782729"><ele>14.0</ele><time>2026-05-03T12:40:42.703Z</time></trkpt><trkpt lat="41.547749" lon="19.6783239"><ele>14.000000000000002</ele><time>2026-05-03T12:40:43.704Z</time></trkpt><trkpt lat="41.5478084" lon="19.678385"><ele>14.0</ele><time>2026-05-03T12:40:44.703Z</time></trkpt><trkpt lat="41.5478583" lon="19.6784391"><ele>14.0</ele><time>2026-05-03T12:40:45.704Z</time></trkpt><trkpt lat="41.5479405" lon="19.6785098"><ele>14.0</ele><time>2026-05-03T12:40:47.703Z</time></trkpt><trkpt lat="41.5479868" lon="19.6785814"><ele>14.000000000000002</ele><time>2026-05-03T12:40:50.703Z</time></trkpt><trkpt lat="41.548078" lon="19.6786046"><ele>14.0</ele><time>2026-05-03T12:40:53.703Z</time></trkpt><trkpt lat="41.5481384" lon="19.6785675"><ele>14.166666666666668</ele><time>2026-05-03T12:40:54.704Z</time></trkpt><trkpt lat="41.5482132" lon="19.6785267"><ele>14.333333333333334</ele><time>2026-05-03T12:40:55.704Z</time></trkpt><trkpt lat="41.5482811" lon="19.6784952"><ele>14.5</ele><time>2026-05-03T12:40:56.704Z</time></trkpt><trkpt lat="41.5483613" lon="19.6784645"><ele>14.666666666666668</ele><time>2026-05-03T12:40:57.704Z</time></trkpt><trkpt lat="41.5484398" lon="19.6784333"><ele>14.833333333333334</ele><time>2026-05-03T12:40:58.703Z</time></trkpt><trkpt lat="41.5485198" lon="19.6784055"><ele>15.0</ele><time>2026-05-03T12:40:59.704Z</time></trkpt><trkpt lat="41.5486091" lon="19.6783762"><ele>15.0</ele><time>2026-05-03T12:41:00.703Z</time></trkpt><trkpt lat="41.5486976" lon="19.6783459"><ele>15.0</ele><time>2026-05-03T12:41:01.703Z</time></trkpt><trkpt lat="41.5487867" lon="19.6783161"><ele>15.0</ele><time>2026-05-03T12:41:02.704Z</time></trkpt><trkpt lat="41.5488852" lon="19.6782891"><ele>15.0</ele><time>2026-05-03T12:41:03.703Z</time></trkpt><trkpt lat="41.5489906" lon="19.6782485"><ele>15.0</ele><time>2026-05-03T12:41:04.704Z</time></trkpt><trkpt lat="41.5491108" lon="19.6782084"><ele>15.0</ele><time>2026-05-03T12:41:05.704Z</time></trkpt><trkpt lat="41.5492275" lon="19.6781657"><ele>15.0</ele><time>2026-05-03T12:41:06.703Z</time></trkpt><trkpt lat="41.54935" lon="19.6781207"><ele>15.0</ele><time>2026-05-03T12:41:07.703Z</time></trkpt><trkpt lat="41.5494839" lon="19.6780701"><ele>15.0</ele><time>2026-05-03T12:41:08.704Z</time></trkpt><trkpt lat="41.5496066" lon="19.6780329"><ele>15.4</ele><time>2026-05-03T12:41:09.704Z</time></trkpt><trkpt lat="41.5497278" lon="19.6779918"><ele>15.8</ele><time>2026-05-03T12:41:10.704Z</time></trkpt><trkpt lat="41.5498384" lon="19.6779457"><ele>16.2</ele><time>2026-05-03T12:41:11.703Z</time></trkpt><trkpt lat="41.5499367" lon="19.6779077"><ele>16.6</ele><time>2026-05-03T12:41:12.703Z</time></trkpt><trkpt lat="41.5500365" lon="19.6778664"><ele>17.0</ele><time>2026-05-03T12:41:13.704Z</time></trkpt><trkpt lat="41.5501605" lon="19.6778287"><ele>17.0</ele><time>2026-05-03T12:41:14.704Z</time></trkpt><trkpt lat="41.5503035" lon="19.6777824"><ele>17.0</ele><time>2026-05-03T12:41:15.703Z</time></trkpt><trkpt lat="41.5504532" lon="19.6777363"><ele>17.0</ele><time>2026-05-03T12:41:16.704Z</time></trkpt><trkpt lat="41.5505985" lon="19.6776836"><ele>17.5</ele><time>2026-05-03T12:41:17.704Z</time></trkpt><trkpt lat="41.550747" lon="19.6776333"><ele>18.0</ele><time>2026-05-03T12:41:18.703Z</time></trkpt><trkpt lat="41.5508906" lon="19.6775872"><ele>18.5</ele><time>2026-05-03T12:41:19.704Z</time></trkpt><trkpt lat="41.551013" lon="19.6775452"><ele>19.0</ele><time>2026-05-03T12:41:20.704Z</time></trkpt><trkpt lat="41.5511292" lon="19.6775077"><ele>19.25</ele><time>2026-05-03T12:41:21.704Z</time></trkpt><trkpt lat="41.5512424" lon="19.6774643"><ele>19.5</ele><time>2026-05-03T12:41:22.704Z</time></trkpt><trkpt lat="41.5513541" lon="19.677421"><ele>19.75</ele><time>2026-05-03T12:41:23.703Z</time></trkpt><trkpt lat="41.5514677" lon="19.6773721"><ele>20.0</ele><time>2026-05-03T12:41:24.703Z</time></trkpt><trkpt lat="41.5515883" lon="19.6773204"><ele>20.0</ele><time>2026-05-03T12:41:25.703Z</time></trkpt><trkpt lat="41.5517122" lon="19.677282"><ele>20.0</ele><time>2026-05-03T12:41:26.703Z</time></trkpt><trkpt lat="41.5518313" lon="19.6772472"><ele>20.0</ele><time>2026-05-03T12:41:27.703Z</time></trkpt><trkpt lat="41.5519631" lon="19.6772334"><ele>20.0</ele><time>2026-05-03T12:41:28.703Z</time></trkpt><trkpt lat="41.5521034" lon="19.6772173"><ele>19.75</ele><time>2026-05-03T12:41:29.703Z</time></trkpt><trkpt lat="41.552248" lon="19.6772138"><ele>19.5</ele><time>2026-05-03T12:41:30.704Z</time></trkpt><trkpt lat="41.5523905" lon="19.6772125"><ele>19.25</ele><time>2026-05-03T12:41:31.703Z</time></trkpt><trkpt lat="41.55253" lon="19.6772116"><ele>19.0</ele><time>2026-05-03T12:41:32.704Z</time></trkpt><trkpt lat="41.5526749" lon="19.6772117"><ele>19.0</ele><time>2026-05-03T12:41:33.703Z</time></trkpt><trkpt lat="41.5528248" lon="19.677209"><ele>19.0</ele><time>2026-05-03T12:41:34.704Z</time></trkpt><trkpt lat="41.5529793" lon="19.677208"><ele>19.0</ele><time>2026-05-03T12:41:35.704Z</time></trkpt><trkpt lat="41.5531389" lon="19.6772113"><ele>19.666666666666664</ele><time>2026-05-03T12:41:36.704Z</time></trkpt><trkpt lat="41.5533012" lon="19.6772109"><ele>20.333333333333332</ele><time>2026-05-03T12:41:37.703Z</time></trkpt><trkpt lat="41.5534649" lon="19.6772083"><ele>21.0</ele><time>2026-05-03T12:41:38.704Z</time></trkpt><trkpt lat="41.5536281" lon="19.6772043"><ele>21.0</ele><time>2026-05-03T12:41:39.704Z</time></trkpt><trkpt lat="41.5537858" lon="19.6772014"><ele>21.0</ele><time>2026-05-03T12:41:40.704Z</time></trkpt><trkpt lat="41.5539475" lon="19.6772033"><ele>21.0</ele><time>2026-05-03T12:41:41.703Z</time></trkpt><trkpt lat="41.5541087" lon="19.6771998"><ele>21.0</ele><time>2026-05-03T12:41:42.704Z</time></trkpt><trkpt lat="41.5542657" lon="19.6771918"><ele>21.0</ele><time>2026-05-03T12:41:43.704Z</time></trkpt><trkpt lat="41.5544287" lon="19.6771786"><ele>21.0</ele><time>2026-05-03T12:41:44.703Z</time></trkpt><trkpt lat="41.5545938" lon="19.6771765"><ele>21.333333333333332</ele><time>2026-05-03T12:41:45.704Z</time></trkpt><trkpt lat="41.5547549" lon="19.677171"><ele>21.666666666666664</ele><time>2026-05-03T12:41:46.703Z</time></trkpt><trkpt lat="41.5549173" lon="19.6771624"><ele>22.0</ele><time>2026-05-03T12:41:47.703Z</time></trkpt><trkpt lat="41.5550845" lon="19.6771562"><ele>22.0</ele><time>2026-05-03T12:41:48.704Z</time></trkpt><trkpt lat="41.5552497" lon="19.6771524"><ele>22.0</ele><time>2026-05-03T12:41:49.702Z</time></trkpt><trkpt lat="41.5554108" lon="19.677148"><ele>22.0</ele><time>2026-05-03T12:41:50.704Z</time></trkpt><trkpt lat="41.5555743" lon="19.6771508"><ele>22.333333333333332</ele><time>2026-05-03T12:41:51.704Z</time></trkpt><trkpt lat="41.5557418" lon="19.6771434"><ele>22.666666666666668</ele><time>2026-05-03T12:41:52.704Z</time></trkpt><trkpt lat="41.5559014" lon="19.6771419"><ele>23.0</ele><time>2026-05-03T12:41:53.704Z</time></trkpt><trkpt lat="41.5560665" lon="19.6771348"><ele>23.0</ele><time>2026-05-03T12:41:54.704Z</time></trkpt><trkpt lat="41.556224" lon="19.677131"><ele>23.0</ele><time>2026-05-03T12:41:55.704Z</time></trkpt><trkpt lat="41.5563798" lon="19.6771291"><ele>23.0</ele><time>2026-05-03T12:41:56.703Z</time></trkpt><trkpt lat="41.5565343" lon="19.6771245"><ele>23.0</ele><time>2026-05-03T12:41:57.704Z</time></trkpt><trkpt lat="41.5566832" lon="19.6771276"><ele>23.0</ele><time>2026-05-03T12:41:58.704Z</time></trkpt><trkpt lat="41.5568192" lon="19.6771275"><ele>23.0</ele><time>2026-05-03T12:41:59.704Z</time></trkpt><trkpt lat="41.5569538" lon="19.6771407"><ele>23.0</ele><time>2026-05-03T12:42:00.703Z</time></trkpt><trkpt lat="41.5570865" lon="19.6771609"><ele>23.5</ele><time>2026-05-03T12:42:01.704Z</time></trkpt><trkpt lat="41.5572172" lon="19.6772086"><ele>24.0</ele><time>2026-05-03T12:42:02.704Z</time></trkpt><trkpt lat="41.5573409" lon="19.6772771"><ele>24.5</ele><time>2026-05-03T12:42:03.703Z</time></trkpt><trkpt lat="41.5574652" lon="19.6773654"><ele>25.0</ele><time>2026-05-03T12:42:04.703Z</time></trkpt><trkpt lat="41.5575867" lon="19.6774707"><ele>25.0</ele><time>2026-05-03T12:42:05.703Z</time></trkpt><trkpt lat="41.5577082" lon="19.6775952"><ele>25.0</ele><time>2026-05-03T12:42:06.703Z</time></trkpt><trkpt lat="41.5578191" lon="19.6777198"><ele>25.0</ele><time>2026-05-03T12:42:07.704Z</time></trkpt><trkpt lat="41.5579271" lon="19.6778388"><ele>25.0</ele><time>2026-05-03T12:42:08.704Z</time></trkpt><trkpt lat="41.5580351" lon="19.6779733"><ele>25.25</ele><time>2026-05-03T12:42:09.704Z</time></trkpt><trkpt lat="41.5581387" lon="19.6780926"><ele>25.5</ele><time>2026-05-03T12:42:10.703Z</time></trkpt><trkpt lat="41.5582333" lon="19.6782089"><ele>25.75</ele><time>2026-05-03T12:42:11.703Z</time></trkpt><trkpt lat="41.5583272" lon="19.6783291"><ele>26.0</ele><time>2026-05-03T12:42:12.704Z</time></trkpt><trkpt lat="41.5584157" lon="19.6784397"><ele>26.0</ele><time>2026-05-03T12:42:13.704Z</time></trkpt><trkpt lat="41.5585008" lon="19.6785654"><ele>26.0</ele><time>2026-05-03T12:42:14.704Z</time></trkpt><trkpt lat="41.5585902" lon="19.6787014"><ele>26.0</ele><time>2026-05-03T12:42:15.703Z</time></trkpt><trkpt lat="41.5586802" lon="19.6788469"><ele>26.0</ele><time>2026-05-03T12:42:16.703Z</time></trkpt><trkpt lat="41.558767" lon="19.6790062"><ele>26.25</ele><time>2026-05-03T12:42:17.704Z</time></trkpt><trkpt lat="41.5588484" lon="19.679174"><ele>26.5</ele><time>2026-05-03T12:42:18.704Z</time></trkpt><trkpt lat="41.5589207" lon="19.6793463"><ele>26.75</ele><time>2026-05-03T12:42:19.704Z</time></trkpt><trkpt lat="41.5589835" lon="19.6795297"><ele>27.0</ele><time>2026-05-03T12:42:20.704Z</time></trkpt><trkpt lat="41.5590346" lon="19.6797237"><ele>27.0</ele><time>2026-05-03T12:42:21.703Z</time></trkpt><trkpt lat="41.5590709" lon="19.679916"><ele>27.0</ele><time>2026-05-03T12:42:22.704Z</time></trkpt><trkpt lat="41.5590956" lon="19.6801222"><ele>27.0</ele><time>2026-05-03T12:42:23.704Z</time></trkpt><trkpt lat="41.5591024" lon="19.6803247"><ele>27.0</ele><time>2026-05-03T12:42:24.703Z</time></trkpt><trkpt lat="41.5590976" lon="19.6805341"><ele>27.0</ele><time>2026-05-03T12:42:25.704Z</time></trkpt><trkpt lat="41.5590923" lon="19.6807514"><ele>27.0</ele><time>2026-05-03T12:42:26.704Z</time></trkpt><trkpt lat="41.5590925" lon="19.6809674"><ele>27.333333333333336</ele><time>2026-05-03T12:42:27.703Z</time></trkpt><trkpt lat="41.559087" lon="19.6811889"><ele>27.666666666666668</ele><time>2026-05-03T12:42:28.703Z</time></trkpt><trkpt lat="41.5590863" lon="19.681391"><ele>28.0</ele><time>2026-05-03T12:42:29.703Z</time></trkpt><trkpt lat="41.5590774" lon="19.6816099"><ele>28.0</ele><time>2026-05-03T12:42:30.703Z</time></trkpt><trkpt lat="41.5590696" lon="19.6818266"><ele>28.0</ele><time>2026-05-03T12:42:31.704Z</time></trkpt><trkpt lat="41.5590686" lon="19.6820418"><ele>28.0</ele><time>2026-05-03T12:42:32.703Z</time></trkpt><trkpt lat="41.5590652" lon="19.6822532"><ele>28.0</ele><time>2026-05-03T12:42:33.704Z</time></trkpt><trkpt lat="41.5590645" lon="19.6824751"><ele>28.0</ele><time>2026-05-03T12:42:34.704Z</time></trkpt><trkpt lat="41.5590711" lon="19.6826889"><ele>28.0</ele><time>2026-05-03T12:42:35.704Z</time></trkpt><trkpt lat="41.5590798" lon="19.6829054"><ele>29.0</ele><time>2026-05-03T12:42:36.703Z</time></trkpt><trkpt lat="41.5590889" lon="19.6831207"><ele>30.0</ele><time>2026-05-03T12:42:37.703Z</time></trkpt><trkpt lat="41.5591167" lon="19.6833552"><ele>31.0</ele><time>2026-05-03T12:42:38.703Z</time></trkpt><trkpt lat="41.5591343" lon="19.6835762"><ele>31.0</ele><time>2026-05-03T12:42:39.703Z</time></trkpt><trkpt lat="41.5591546" lon="19.6838131"><ele>31.0</ele><time>2026-05-03T12:42:40.704Z</time></trkpt><trkpt lat="41.5591831" lon="19.6840292"><ele>31.0</ele><time>2026-05-03T12:42:41.704Z</time></trkpt><trkpt lat="41.5592137" lon="19.6842481"><ele>30.666666666666668</ele><time>2026-05-03T12:42:42.704Z</time></trkpt><trkpt lat="41.5592491" lon="19.6844674"><ele>30.333333333333336</ele><time>2026-05-03T12:42:43.704Z</time></trkpt><trkpt lat="41.5592824" lon="19.6846868"><ele>30.0</ele><time>2026-05-03T12:42:44.704Z</time></trkpt><trkpt lat="41.5593191" lon="19.6849094"><ele>30.0</ele><time>2026-05-03T12:42:45.703Z</time></trkpt><trkpt lat="41.5593574" lon="19.6851285"><ele>30.0</ele><time>2026-05-03T12:42:46.704Z</time></trkpt><trkpt lat="41.5594004" lon="19.6853585"><ele>30.0</ele><time>2026-05-03T12:42:47.703Z</time></trkpt><trkpt lat="41.5594369" lon="19.6855873"><ele>29.666666666666664</ele><time>2026-05-03T12:42:48.704Z</time></trkpt><trkpt lat="41.5594725" lon="19.6858262"><ele>29.333333333333332</ele><time>2026-05-03T12:42:49.703Z</time></trkpt><trkpt lat="41.5595083" lon="19.6860653"><ele>29.0</ele><time>2026-05-03T12:42:50.704Z</time></trkpt><trkpt lat="41.5595452" lon="19.6863083"><ele>30.666666666666664</ele><time>2026-05-03T12:42:51.704Z</time></trkpt><trkpt lat="41.5595787" lon="19.6865386"><ele>32.333333333333336</ele><time>2026-05-03T12:42:52.703Z</time></trkpt><trkpt lat="41.5596153" lon="19.6867669"><ele>34.0</ele><time>2026-05-03T12:42:53.703Z</time></trkpt><trkpt lat="41.5596368" lon="19.6870002"><ele>34.0</ele><time>2026-05-03T12:42:54.703Z</time></trkpt><trkpt lat="41.559654" lon="19.6872364"><ele>34.0</ele><time>2026-05-03T12:42:55.704Z</time></trkpt><trkpt lat="41.559666" lon="19.6874715"><ele>34.0</ele><time>2026-05-03T12:42:56.703Z</time></trkpt><trkpt lat="41.5596761" lon="19.6877048"><ele>34.333333333333336</ele><time>2026-05-03T12:42:57.704Z</time></trkpt><trkpt lat="41.559687" lon="19.6879388"><ele>34.666666666666664</ele><time>2026-05-03T12:42:58.704Z</time></trkpt><trkpt lat="41.5596973" lon="19.6881794"><ele>35.0</ele><time>2026-05-03T12:42:59.704Z</time></trkpt><trkpt lat="41.5597163" lon="19.6884417"><ele>35.33333333333333</ele><time>2026-05-03T12:43:00.703Z</time></trkpt><trkpt lat="41.5597283" lon="19.6886912"><ele>35.666666666666664</ele><time>2026-05-03T12:43:01.703Z</time></trkpt><trkpt lat="41.5597374" lon="19.6889463"><ele>36.0</ele><time>2026-05-03T12:43:02.703Z</time></trkpt><trkpt lat="41.559751" lon="19.6892053"><ele>36.0</ele><time>2026-05-03T12:43:03.704Z</time></trkpt><trkpt lat="41.5597642" lon="19.6894627"><ele>36.0</ele><time>2026-05-03T12:43:04.704Z</time></trkpt><trkpt lat="41.5597723" lon="19.6897161"><ele>36.0</ele><time>2026-05-03T12:43:05.704Z</time></trkpt><trkpt lat="41.5597831" lon="19.6899609"><ele>36.0</ele><time>2026-05-03T12:43:06.703Z</time></trkpt><trkpt lat="41.5598" lon="19.6901991"><ele>36.0</ele><time>2026-05-03T12:43:07.703Z</time></trkpt><trkpt lat="41.5598215" lon="19.6904303"><ele>36.0</ele><time>2026-05-03T12:43:08.704Z</time></trkpt><trkpt lat="41.5598398" lon="19.6906331"><ele>36.25</ele><time>2026-05-03T12:43:09.703Z</time></trkpt><trkpt lat="41.5598454" lon="19.6908335"><ele>36.5</ele><time>2026-05-03T12:43:10.704Z</time></trkpt><trkpt lat="41.5598585" lon="19.6910091"><ele>36.75</ele><time>2026-05-03T12:43:11.704Z</time></trkpt><trkpt lat="41.5598839" lon="19.6911726"><ele>37.0</ele><time>2026-05-03T12:43:12.704Z</time></trkpt><trkpt lat="41.5599295" lon="19.6913056"><ele>37.2</ele><time>2026-05-03T12:43:13.703Z</time></trkpt><trkpt lat="41.5599872" lon="19.69142"><ele>37.400000000000006</ele><time>2026-05-03T12:43:14.703Z</time></trkpt><trkpt lat="41.5600688" lon="19.6915103"><ele>37.599999999999994</ele><time>2026-05-03T12:43:15.704Z</time></trkpt><trkpt lat="41.5601651" lon="19.6915726"><ele>37.8</ele><time>2026-05-03T12:43:16.704Z</time></trkpt><trkpt lat="41.5602765" lon="19.6916141"><ele>38.0</ele><time>2026-05-03T12:43:17.703Z</time></trkpt><trkpt lat="41.5603946" lon="19.6916391"><ele>38.0</ele><time>2026-05-03T12:43:18.703Z</time></trkpt><trkpt lat="41.560528" lon="19.6916691"><ele>38.0</ele><time>2026-05-03T12:43:19.703Z</time></trkpt><trkpt lat="41.5606812" lon="19.6917093"><ele>38.0</ele><time>2026-05-03T12:43:20.704Z</time></trkpt><trkpt lat="41.5608455" lon="19.6917581"><ele>38.0</ele><time>2026-05-03T12:43:21.703Z</time></trkpt><trkpt lat="41.5609995" lon="19.6917852"><ele>38.0</ele><time>2026-05-03T12:43:22.703Z</time></trkpt><trkpt lat="41.5611644" lon="19.6918277"><ele>38.0</ele><time>2026-05-03T12:43:23.703Z</time></trkpt><trkpt lat="41.5613262" lon="19.6918655"><ele>37.666666666666664</ele><time>2026-05-03T12:43:24.704Z</time></trkpt><trkpt lat="41.5614928" lon="19.6919065"><ele>37.333333333333336</ele><time>2026-05-03T12:43:25.703Z</time></trkpt><trkpt lat="41.5616458" lon="19.6919504"><ele>37.0</ele><time>2026-05-03T12:43:26.704Z</time></trkpt><trkpt lat="41.5617963" lon="19.6919859"><ele>37.66666666666667</ele><time>2026-05-03T12:43:27.704Z</time></trkpt><trkpt lat="41.5619511" lon="19.6920309"><ele>38.333333333333336</ele><time>2026-05-03T12:43:28.703Z</time></trkpt><trkpt lat="41.5620982" lon="19.6920661"><ele>39.0</ele><time>2026-05-03T12:43:29.703Z</time></trkpt><trkpt lat="41.5622445" lon="19.6921075"><ele>39.5</ele><time>2026-05-03T12:43:30.704Z</time></trkpt><trkpt lat="41.5623876" lon="19.6921367"><ele>40.0</ele><time>2026-05-03T12:43:31.703Z</time></trkpt><trkpt lat="41.5625331" lon="19.692175"><ele>40.5</ele><time>2026-05-03T12:43:32.703Z</time></trkpt><trkpt lat="41.562683" lon="19.6922124"><ele>41.0</ele><time>2026-05-03T12:43:33.703Z</time></trkpt><trkpt lat="41.5628307" lon="19.6922457"><ele>40.5</ele><time>2026-05-03T12:43:34.703Z</time></trkpt><trkpt lat="41.5629778" lon="19.6922795"><ele>40.0</ele><time>2026-05-03T12:43:35.704Z</time></trkpt><trkpt lat="41.5631214" lon="19.6923183"><ele>39.5</ele><time>2026-05-03T12:43:36.704Z</time></trkpt><trkpt lat="41.5632718" lon="19.6923552"><ele>39.0</ele><time>2026-05-03T12:43:37.704Z</time></trkpt><trkpt lat="41.5634235" lon="19.692391"><ele>39.0</ele><time>2026-05-03T12:43:38.703Z</time></trkpt><trkpt lat="41.5635874" lon="19.6924339"><ele>39.0</ele><time>2026-05-03T12:43:39.704Z</time></trkpt><trkpt lat="41.5637442" lon="19.6924686"><ele>39.0</ele><time>2026-05-03T12:43:40.703Z</time></trkpt><trkpt lat="41.5639024" lon="19.6924989"><ele>38.666666666666664</ele><time>2026-05-03T12:43:41.704Z</time></trkpt><trkpt lat="41.5640587" lon="19.6925337"><ele>38.33333333333333</ele><time>2026-05-03T12:43:42.704Z</time></trkpt><trkpt lat="41.5642149" lon="19.6925654"><ele>38.0</ele><time>2026-05-03T12:43:43.702Z</time></trkpt><trkpt lat="41.5643739" lon="19.6926016"><ele>37.33333333333333</ele><time>2026-05-03T12:43:44.704Z</time></trkpt><trkpt lat="41.564531" lon="19.6926329"><ele>36.666666666666664</ele><time>2026-05-03T12:43:45.704Z</time></trkpt><trkpt lat="41.5646842" lon="19.6926736"><ele>36.0</ele><time>2026-05-03T12:43:46.703Z</time></trkpt><trkpt lat="41.5648417" lon="19.692708"><ele>36.0</ele><time>2026-05-03T12:43:47.704Z</time></trkpt><trkpt lat="41.564998" lon="19.692739"><ele>36.0</ele><time>2026-05-03T12:43:48.703Z</time></trkpt><trkpt lat="41.5651446" lon="19.6927696"><ele>36.0</ele><time>2026-05-03T12:43:49.703Z</time></trkpt><trkpt lat="41.5652891" lon="19.6928032"><ele>37.25</ele><time>2026-05-03T12:43:50.703Z</time></trkpt><trkpt lat="41.5654278" lon="19.6928331"><ele>38.5</ele><time>2026-05-03T12:43:51.703Z</time></trkpt><trkpt lat="41.565571" lon="19.6928477"><ele>39.75</ele><time>2026-05-03T12:43:52.704Z</time></trkpt><trkpt lat="41.5657118" lon="19.6928551"><ele>41.0</ele><time>2026-05-03T12:43:53.704Z</time></trkpt><trkpt lat="41.5658555" lon="19.6928481"><ele>41.0</ele><time>2026-05-03T12:43:54.704Z</time></trkpt><trkpt lat="41.5659997" lon="19.6928201"><ele>41.0</ele><time>2026-05-03T12:43:55.704Z</time></trkpt><trkpt lat="41.5661293" lon="19.6927951"><ele>41.0</ele><time>2026-05-03T12:43:56.704Z</time></trkpt><trkpt lat="41.5662626" lon="19.6927712"><ele>41.0</ele><time>2026-05-03T12:43:57.704Z</time></trkpt><trkpt lat="41.5663912" lon="19.6927587"><ele>41.0</ele><time>2026-05-03T12:43:58.703Z</time></trkpt><trkpt lat="41.5664972" lon="19.6927636"><ele>41.0</ele><time>2026-05-03T12:43:59.704Z</time></trkpt><trkpt lat="41.5665673" lon="19.6927842"><ele>41.0</ele><time>2026-05-03T12:44:00.704Z</time></trkpt><trkpt lat="41.566668" lon="19.6928248"><ele>41.0</ele><time>2026-05-03T12:44:02.703Z</time></trkpt><trkpt lat="41.5667766" lon="19.6928772"><ele>41.0</ele><time>2026-05-03T12:44:04.703Z</time></trkpt><trkpt lat="41.5669012" lon="19.6929087"><ele>41.0</ele><time>2026-05-03T12:44:06.703Z</time></trkpt><trkpt lat="41.5669968" lon="19.692949"><ele>41.0</ele><time>2026-05-03T12:44:07.703Z</time></trkpt><trkpt lat="41.5671119" lon="19.6930026"><ele>41.0</ele><time>2026-05-03T12:44:08.703Z</time></trkpt><trkpt lat="41.5672349" lon="19.6930609"><ele>41.0</ele><time>2026-05-03T12:44:09.704Z</time></trkpt><trkpt lat="41.5673701" lon="19.6931235"><ele>41.0</ele><time>2026-05-03T12:44:10.704Z</time></trkpt><trkpt lat="41.5675114" lon="19.6932009"><ele>41.0</ele><time>2026-05-03T12:44:11.703Z</time></trkpt><trkpt lat="41.567639" lon="19.6932715"><ele>41.0</ele><time>2026-05-03T12:44:12.704Z</time></trkpt><trkpt lat="41.5677608" lon="19.69334"><ele>41.0</ele><time>2026-05-03T12:44:13.704Z</time></trkpt><trkpt lat="41.5678851" lon="19.6934042"><ele>41.0</ele><time>2026-05-03T12:44:14.704Z</time></trkpt><trkpt lat="41.56802" lon="19.6934793"><ele>41.0</ele><time>2026-05-03T12:44:15.703Z</time></trkpt><trkpt lat="41.5681677" lon="19.6935408"><ele>41.0</ele><time>2026-05-03T12:44:16.704Z</time></trkpt><trkpt lat="41.5683035" lon="19.6936002"><ele>41.0</ele><time>2026-05-03T12:44:17.704Z</time></trkpt><trkpt lat="41.5684442" lon="19.6936626"><ele>41.0</ele><time>2026-05-03T12:44:18.704Z</time></trkpt><trkpt lat="41.5685832" lon="19.6937297"><ele>41.0</ele><time>2026-05-03T12:44:19.704Z</time></trkpt><trkpt lat="41.5687211" lon="19.693788"><ele>41.0</ele><time>2026-05-03T12:44:20.704Z</time></trkpt><trkpt lat="41.568862" lon="19.6938477"><ele>41.0</ele><time>2026-05-03T12:44:21.704Z</time></trkpt><trkpt lat="41.5689944" lon="19.6939034"><ele>40.25</ele><time>2026-05-03T12:44:22.704Z</time></trkpt><trkpt lat="41.5691186" lon="19.6939511"><ele>39.5</ele><time>2026-05-03T12:44:23.703Z</time></trkpt><trkpt lat="41.5692441" lon="19.6939905"><ele>38.75</ele><time>2026-05-03T12:44:24.702Z</time></trkpt><trkpt lat="41.5693653" lon="19.6940205"><ele>38.0</ele><time>2026-05-03T12:44:25.703Z</time></trkpt><trkpt lat="41.5694805" lon="19.6940277"><ele>37.25</ele><time>2026-05-03T12:44:26.703Z</time></trkpt><trkpt lat="41.5695985" lon="19.6940259"><ele>36.5</ele><time>2026-05-03T12:44:27.703Z</time></trkpt><trkpt lat="41.5697207" lon="19.6940045"><ele>35.75</ele><time>2026-05-03T12:44:28.703Z</time></trkpt><trkpt lat="41.569848" lon="19.6939765"><ele>35.0</ele><time>2026-05-03T12:44:29.703Z</time></trkpt><trkpt lat="41.5699706" lon="19.6939334"><ele>35.0</ele><time>2026-05-03T12:44:30.703Z</time></trkpt><trkpt lat="41.5700984" lon="19.6938839"><ele>35.0</ele><time>2026-05-03T12:44:31.704Z</time></trkpt><trkpt lat="41.5702407" lon="19.6938255"><ele>35.0</ele><time>2026-05-03T12:44:32.704Z</time></trkpt><trkpt lat="41.5703793" lon="19.6937666"><ele>35.0</ele><time>2026-05-03T12:44:33.704Z</time></trkpt><trkpt lat="41.5705127" lon="19.6937117"><ele>35.0</ele><time>2026-05-03T12:44:34.704Z</time></trkpt><trkpt lat="41.5706497" lon="19.6936532"><ele>35.0</ele><time>2026-05-03T12:44:35.703Z</time></trkpt><trkpt lat="41.5707894" lon="19.6935879"><ele>35.0</ele><time>2026-05-03T12:44:36.704Z</time></trkpt><trkpt lat="41.570929" lon="19.6935271"><ele>35.0</ele><time>2026-05-03T12:44:37.703Z</time></trkpt><trkpt lat="41.5710674" lon="19.6934676"><ele>34.5</ele><time>2026-05-03T12:44:38.702Z</time></trkpt><trkpt lat="41.5712031" lon="19.6934078"><ele>34.0</ele><time>2026-05-03T12:44:39.704Z</time></trkpt><trkpt lat="41.5713409" lon="19.6933498"><ele>33.5</ele><time>2026-05-03T12:44:40.703Z</time></trkpt><trkpt lat="41.5714789" lon="19.6932921"><ele>33.0</ele><time>2026-05-03T12:44:41.703Z</time></trkpt><trkpt lat="41.5716171" lon="19.6932353"><ele>33.0</ele><time>2026-05-03T12:44:42.704Z</time></trkpt><trkpt lat="41.57176" lon="19.693165"><ele>33.0</ele><time>2026-05-03T12:44:43.703Z</time></trkpt><trkpt lat="41.5718895" lon="19.6931002"><ele>33.0</ele><time>2026-05-03T12:44:44.704Z</time></trkpt><trkpt lat="41.5720144" lon="19.69303"><ele>33.0</ele><time>2026-05-03T12:44:45.703Z</time></trkpt><trkpt lat="41.5721505" lon="19.6929595"><ele>32.0</ele><time>2026-05-03T12:44:46.703Z</time></trkpt><trkpt lat="41.5722858" lon="19.6928869"><ele>31.0</ele><time>2026-05-03T12:44:47.703Z</time></trkpt><trkpt lat="41.5724237" lon="19.6928031"><ele>30.0</ele><time>2026-05-03T12:44:48.704Z</time></trkpt><trkpt lat="41.5725677" lon="19.6927162"><ele>30.0</ele><time>2026-05-03T12:44:49.703Z</time></trkpt><trkpt lat="41.5727032" lon="19.6926209"><ele>30.0</ele><time>2026-05-03T12:44:50.704Z</time></trkpt><trkpt lat="41.5728433" lon="19.6925357"><ele>30.0</ele><time>2026-05-03T12:44:51.704Z</time></trkpt><trkpt lat="41.5729836" lon="19.692458"><ele>30.0</ele><time>2026-05-03T12:44:52.704Z</time></trkpt><trkpt lat="41.5731262" lon="19.6923688"><ele>30.0</ele><time>2026-05-03T12:44:53.704Z</time></trkpt><trkpt lat="41.5732528" lon="19.6922937"><ele>30.0</ele><time>2026-05-03T12:44:54.704Z</time></trkpt><trkpt lat="41.5733544" lon="19.6922215"><ele>30.0</ele><time>2026-05-03T12:44:55.704Z</time></trkpt><trkpt lat="41.5734452" lon="19.6921766"><ele>30.0</ele><time>2026-05-03T12:44:56.704Z</time></trkpt><trkpt lat="41.5735308" lon="19.692126"><ele>30.0</ele><time>2026-05-03T12:44:58.704Z</time></trkpt><trkpt lat="41.5736068" lon="19.6920849"><ele>30.0</ele><time>2026-05-03T12:45:02.704Z</time></trkpt><trkpt lat="41.5737026" lon="19.6920387"><ele>30.0</ele><time>2026-05-03T12:45:05.704Z</time></trkpt><trkpt lat="41.5738204" lon="19.6919824"><ele>30.0</ele><time>2026-05-03T12:45:07.703Z</time></trkpt><trkpt lat="41.5738833" lon="19.6919616"><ele>29.5</ele><time>2026-05-03T12:45:08.703Z</time></trkpt><trkpt lat="41.5739503" lon="19.6919458"><ele>29.0</ele><time>2026-05-03T12:45:09.703Z</time></trkpt><trkpt lat="41.5740179" lon="19.691939"><ele>28.5</ele><time>2026-05-03T12:45:10.703Z</time></trkpt><trkpt lat="41.5741002" lon="19.6919367"><ele>28.0</ele><time>2026-05-03T12:45:11.704Z</time></trkpt><trkpt lat="41.5741789" lon="19.6919451"><ele>27.5</ele><time>2026-05-03T12:45:12.704Z</time></trkpt><trkpt lat="41.5742609" lon="19.6919491"><ele>27.0</ele><time>2026-05-03T12:45:13.703Z</time></trkpt><trkpt lat="41.5743549" lon="19.6919403"><ele>27.0</ele><time>2026-05-03T12:45:14.704Z</time></trkpt><trkpt lat="41.5744323" lon="19.6919593"><ele>27.0</ele><time>2026-05-03T12:45:15.703Z</time></trkpt><trkpt lat="41.5745154" lon="19.6919848"><ele>27.0</ele><time>2026-05-03T12:45:16.704Z</time></trkpt><trkpt lat="41.5745982" lon="19.6920251"><ele>27.0</ele><time>2026-05-03T12:45:17.704Z</time></trkpt><trkpt lat="41.574677" lon="19.6920556"><ele>27.0</ele><time>2026-05-03T12:45:18.703Z</time></trkpt><trkpt lat="41.5747609" lon="19.6920834"><ele>27.0</ele><time>2026-05-03T12:45:19.704Z</time></trkpt><trkpt lat="41.574851" lon="19.6921157"><ele>27.0</ele><time>2026-05-03T12:45:20.704Z</time></trkpt><trkpt lat="41.5749376" lon="19.6921526"><ele>27.0</ele><time>2026-05-03T12:45:21.704Z</time></trkpt><trkpt lat="41.5750264" lon="19.692175"><ele>27.0</ele><time>2026-05-03T12:45:22.704Z</time></trkpt><trkpt lat="41.5750957" lon="19.692185"><ele>27.0</ele><time>2026-05-03T12:45:23.703Z</time></trkpt><trkpt lat="41.5751881" lon="19.6922128"><ele>27.0</ele><time>2026-05-03T12:45:25.703Z</time></trkpt><trkpt lat="41.5752491" lon="19.6922367"><ele>27.0</ele><time>2026-05-03T12:45:29.704Z</time></trkpt><trkpt lat="41.5753099" lon="19.6922657"><ele>26.8</ele><time>2026-05-03T12:45:33.704Z</time></trkpt><trkpt lat="41.5754014" lon="19.6922997"><ele>26.6</ele><time>2026-05-03T12:45:36.704Z</time></trkpt><trkpt lat="41.5755001" lon="19.6923167"><ele>26.400000000000002</ele><time>2026-05-03T12:45:38.703Z</time></trkpt><trkpt lat="41.5756361" lon="19.6923265"><ele>26.200000000000003</ele><time>2026-05-03T12:45:40.704Z</time></trkpt><trkpt lat="41.5757355" lon="19.6923573"><ele>26.0</ele><time>2026-05-03T12:45:41.704Z</time></trkpt><trkpt lat="41.5758586" lon="19.6923917"><ele>26.0</ele><time>2026-05-03T12:45:42.704Z</time></trkpt><trkpt lat="41.5759934" lon="19.6924448"><ele>26.0</ele><time>2026-05-03T12:45:43.703Z</time></trkpt><trkpt lat="41.5761268" lon="19.6924868"><ele>26.0</ele><time>2026-05-03T12:45:44.703Z</time></trkpt><trkpt lat="41.5762599" lon="19.6925381"><ele>26.0</ele><time>2026-05-03T12:45:45.703Z</time></trkpt><trkpt lat="41.5763905" lon="19.692575"><ele>25.75</ele><time>2026-05-03T12:45:46.704Z</time></trkpt><trkpt lat="41.5765244" lon="19.6925941"><ele>25.5</ele><time>2026-05-03T12:45:47.704Z</time></trkpt><trkpt lat="41.5766527" lon="19.6926023"><ele>25.25</ele><time>2026-05-03T12:45:48.703Z</time></trkpt><trkpt lat="41.5767661" lon="19.6926024"><ele>25.0</ele><time>2026-05-03T12:45:49.704Z</time></trkpt><trkpt lat="41.5768783" lon="19.6925939"><ele>25.0</ele><time>2026-05-03T12:45:50.703Z</time></trkpt><trkpt lat="41.5769824" lon="19.6925826"><ele>25.0</ele><time>2026-05-03T12:45:51.703Z</time></trkpt><trkpt lat="41.5770861" lon="19.6925618"><ele>25.0</ele><time>2026-05-03T12:45:52.703Z</time></trkpt><trkpt lat="41.5772025" lon="19.6925474"><ele>25.0</ele><time>2026-05-03T12:45:53.704Z</time></trkpt><trkpt lat="41.5773233" lon="19.6925331"><ele>25.0</ele><time>2026-05-03T12:45:54.703Z</time></trkpt><trkpt lat="41.5774434" lon="19.6925244"><ele>25.0</ele><time>2026-05-03T12:45:55.703Z</time></trkpt><trkpt lat="41.5775611" lon="19.6925197"><ele>25.0</ele><time>2026-05-03T12:45:56.703Z</time></trkpt><trkpt lat="41.5776756" lon="19.6925108"><ele>25.0</ele><time>2026-05-03T12:45:57.704Z</time></trkpt><trkpt lat="41.5778023" lon="19.6924954"><ele>25.0</ele><time>2026-05-03T12:45:58.704Z</time></trkpt><trkpt lat="41.5779134" lon="19.6924732"><ele>25.166666666666668</ele><time>2026-05-03T12:45:59.703Z</time></trkpt><trkpt lat="41.5780129" lon="19.6924581"><ele>25.333333333333336</ele><time>2026-05-03T12:46:00.704Z</time></trkpt><trkpt lat="41.5780929" lon="19.6924205"><ele>25.5</ele><time>2026-05-03T12:46:01.704Z</time></trkpt><trkpt lat="41.5781674" lon="19.6924121"><ele>25.666666666666664</ele><time>2026-05-03T12:46:03.703Z</time></trkpt><trkpt lat="41.5782374" lon="19.6924224"><ele>25.833333333333332</ele><time>2026-05-03T12:46:05.704Z</time></trkpt><trkpt lat="41.5783543" lon="19.6923971"><ele>26.0</ele><time>2026-05-03T12:46:07.704Z</time></trkpt><trkpt lat="41.5784303" lon="19.6923913"><ele>26.0</ele><time>2026-05-03T12:46:08.704Z</time></trkpt><trkpt lat="41.5785088" lon="19.6923812"><ele>26.0</ele><time>2026-05-03T12:46:09.703Z</time></trkpt><trkpt lat="41.5786057" lon="19.6923642"><ele>26.0</ele><time>2026-05-03T12:46:10.703Z</time></trkpt><trkpt lat="41.5787036" lon="19.692347"><ele>26.0</ele><time>2026-05-03T12:46:11.703Z</time></trkpt><trkpt lat="41.5788" lon="19.6923343"><ele>26.0</ele><time>2026-05-03T12:46:12.704Z</time></trkpt><trkpt lat="41.5788903" lon="19.6923247"><ele>25.833333333333332</ele><time>2026-05-03T12:46:13.703Z</time></trkpt><trkpt lat="41.5789784" lon="19.69231"><ele>25.666666666666664</ele><time>2026-05-03T12:46:14.704Z</time></trkpt><trkpt lat="41.5790687" lon="19.6923117"><ele>25.5</ele><time>2026-05-03T12:46:15.703Z</time></trkpt><trkpt lat="41.5791539" lon="19.6923033"><ele>25.333333333333336</ele><time>2026-05-03T12:46:16.704Z</time></trkpt><trkpt lat="41.5792345" lon="19.692286"><ele>25.166666666666668</ele><time>2026-05-03T12:46:17.703Z</time></trkpt><trkpt lat="41.5793084" lon="19.6922677"><ele>25.0</ele><time>2026-05-03T12:46:18.704Z</time></trkpt><trkpt lat="41.5793889" lon="19.6922579"><ele>25.0</ele><time>2026-05-03T12:46:19.702Z</time></trkpt><trkpt lat="41.5794612" lon="19.6922407"><ele>25.0</ele><time>2026-05-03T12:46:20.703Z</time></trkpt><trkpt lat="41.579546" lon="19.6922216"><ele>25.0</ele><time>2026-05-03T12:46:21.703Z</time></trkpt><trkpt lat="41.579646" lon="19.6922013"><ele>25.0</ele><time>2026-05-03T12:46:22.703Z</time></trkpt><trkpt lat="41.5797444" lon="19.6921731"><ele>25.0</ele><time>2026-05-03T12:46:23.704Z</time></trkpt><trkpt lat="41.5798404" lon="19.6921427"><ele>25.0</ele><time>2026-05-03T12:46:24.704Z</time></trkpt><trkpt lat="41.5799402" lon="19.6921281"><ele>25.0</ele><time>2026-05-03T12:46:25.704Z</time></trkpt><trkpt lat="41.5800488" lon="19.6921112"><ele>25.0</ele><time>2026-05-03T12:46:26.704Z</time></trkpt><trkpt lat="41.5801571" lon="19.6920829"><ele>25.0</ele><time>2026-05-03T12:46:27.703Z</time></trkpt><trkpt lat="41.5802671" lon="19.6920627"><ele>25.0</ele><time>2026-05-03T12:46:28.703Z</time></trkpt><trkpt lat="41.5803755" lon="19.6920448"><ele>25.0</ele><time>2026-05-03T12:46:29.704Z</time></trkpt><trkpt lat="41.5804812" lon="19.6920284"><ele>25.0</ele><time>2026-05-03T12:46:30.703Z</time></trkpt><trkpt lat="41.580584" lon="19.6920013"><ele>25.0</ele><time>2026-05-03T12:46:31.703Z</time></trkpt><trkpt lat="41.5806741" lon="19.6919852"><ele>25.0</ele><time>2026-05-03T12:46:32.704Z</time></trkpt><trkpt lat="41.5807642" lon="19.6919739"><ele>25.0</ele><time>2026-05-03T12:46:33.704Z</time></trkpt><trkpt lat="41.5808618" lon="19.6919575"><ele>25.0</ele><time>2026-05-03T12:46:34.704Z</time></trkpt><trkpt lat="41.58096" lon="19.6919451"><ele>25.0</ele><time>2026-05-03T12:46:35.704Z</time></trkpt><trkpt lat="41.5810531" lon="19.6919255"><ele>25.0</ele><time>2026-05-03T12:46:36.703Z</time></trkpt><trkpt lat="41.581156" lon="19.6919167"><ele>25.0</ele><time>2026-05-03T12:46:37.703Z</time></trkpt><trkpt lat="41.581252" lon="19.6919018"><ele>25.0</ele><time>2026-05-03T12:46:38.703Z</time></trkpt><trkpt lat="41.5813649" lon="19.6918675"><ele>24.166666666666668</ele><time>2026-05-03T12:46:39.703Z</time></trkpt><trkpt lat="41.5814495" lon="19.6918581"><ele>23.333333333333336</ele><time>2026-05-03T12:46:40.704Z</time></trkpt><trkpt lat="41.5815192" lon="19.6918473"><ele>22.5</ele><time>2026-05-03T12:46:41.704Z</time></trkpt><trkpt lat="41.5815851" lon="19.691835"><ele>21.666666666666668</ele><time>2026-05-03T12:46:42.704Z</time></trkpt><trkpt lat="41.5816492" lon="19.6918265"><ele>20.833333333333336</ele><time>2026-05-03T12:46:43.704Z</time></trkpt><trkpt lat="41.5817625" lon="19.691824"><ele>20.0</ele><time>2026-05-03T12:46:45.704Z</time></trkpt><trkpt lat="41.5818744" lon="19.6918168"><ele>20.0</ele><time>2026-05-03T12:46:47.704Z</time></trkpt><trkpt lat="41.5819838" lon="19.6918123"><ele>20.0</ele><time>2026-05-03T12:46:49.704Z</time></trkpt><trkpt lat="41.582056" lon="19.6918328"><ele>20.0</ele><time>2026-05-03T12:46:50.703Z</time></trkpt><trkpt lat="41.5821346" lon="19.6918763"><ele>20.0</ele><time>2026-05-03T12:46:51.703Z</time></trkpt><trkpt lat="41.5822193" lon="19.6919238"><ele>20.0</ele><time>2026-05-03T12:46:52.704Z</time></trkpt><trkpt lat="41.5823001" lon="19.6919911"><ele>19.8</ele><time>2026-05-03T12:46:53.703Z</time></trkpt><trkpt lat="41.582386" lon="19.6920562"><ele>19.6</ele><time>2026-05-03T12:46:54.704Z</time></trkpt><trkpt lat="41.58247" lon="19.692125"><ele>19.4</ele><time>2026-05-03T12:46:55.704Z</time></trkpt><trkpt lat="41.5825535" lon="19.6921804"><ele>19.2</ele><time>2026-05-03T12:46:56.703Z</time></trkpt><trkpt lat="41.5826371" lon="19.6922413"><ele>19.0</ele><time>2026-05-03T12:46:57.704Z</time></trkpt><trkpt lat="41.5827247" lon="19.6923075"><ele>19.0</ele><time>2026-05-03T12:46:58.704Z</time></trkpt><trkpt lat="41.5828376" lon="19.6923787"><ele>19.0</ele><time>2026-05-03T12:46:59.704Z</time></trkpt><trkpt lat="41.5829461" lon="19.6924554"><ele>19.0</ele><time>2026-05-03T12:47:00.703Z</time></trkpt><trkpt lat="41.5830542" lon="19.6925425"><ele>19.0</ele><time>2026-05-03T12:47:01.704Z</time></trkpt><trkpt lat="41.5831577" lon="19.6926167"><ele>19.0</ele><time>2026-05-03T12:47:02.703Z</time></trkpt><trkpt lat="41.583262" lon="19.6926912"><ele>19.0</ele><time>2026-05-03T12:47:03.701Z</time></trkpt><trkpt lat="41.5833636" lon="19.6927618"><ele>19.0</ele><time>2026-05-03T12:47:04.703Z</time></trkpt><trkpt lat="41.5834559" lon="19.6928285"><ele>19.0</ele><time>2026-05-03T12:47:05.703Z</time></trkpt><trkpt lat="41.5835434" lon="19.692883"><ele>19.0</ele><time>2026-05-03T12:47:06.704Z</time></trkpt><trkpt lat="41.5836348" lon="19.6929529"><ele>18.0</ele><time>2026-05-03T12:47:07.703Z</time></trkpt><trkpt lat="41.5837298" lon="19.6930119"><ele>17.0</ele><time>2026-05-03T12:47:08.704Z</time></trkpt><trkpt lat="41.5838181" lon="19.6930738"><ele>15.999999999999998</ele><time>2026-05-03T12:47:09.704Z</time></trkpt><trkpt lat="41.5839142" lon="19.693121"><ele>15.0</ele><time>2026-05-03T12:47:10.703Z</time></trkpt><trkpt lat="41.584004" lon="19.6931525"><ele>14.0</ele><time>2026-05-03T12:47:11.704Z</time></trkpt><trkpt lat="41.5840994" lon="19.6931673"><ele>14.0</ele><time>2026-05-03T12:47:12.704Z</time></trkpt><trkpt lat="41.5841958" lon="19.6931715"><ele>14.0</ele><time>2026-05-03T12:47:13.703Z</time></trkpt><trkpt lat="41.5843153" lon="19.6931724"><ele>14.0</ele><time>2026-05-03T12:47:14.703Z</time></trkpt><trkpt lat="41.5844454" lon="19.6931613"><ele>14.0</ele><time>2026-05-03T12:47:15.704Z</time></trkpt><trkpt lat="41.5845737" lon="19.6931468"><ele>14.75</ele><time>2026-05-03T12:47:16.704Z</time></trkpt><trkpt lat="41.5847041" lon="19.6931331"><ele>15.5</ele><time>2026-05-03T12:47:17.703Z</time></trkpt><trkpt lat="41.5848468" lon="19.6931172"><ele>16.25</ele><time>2026-05-03T12:47:18.704Z</time></trkpt><trkpt lat="41.584999" lon="19.6931083"><ele>17.0</ele><time>2026-05-03T12:47:19.704Z</time></trkpt><trkpt lat="41.5851485" lon="19.6931021"><ele>17.0</ele><time>2026-05-03T12:47:20.703Z</time></trkpt><trkpt lat="41.5853065" lon="19.6930886"><ele>17.0</ele><time>2026-05-03T12:47:21.704Z</time></trkpt><trkpt lat="41.5854643" lon="19.693066"><ele>17.0</ele><time>2026-05-03T12:47:22.703Z</time></trkpt><trkpt lat="41.585614" lon="19.6930507"><ele>17.5</ele><time>2026-05-03T12:47:23.702Z</time></trkpt><trkpt lat="41.5857601" lon="19.6930391"><ele>18.0</ele><time>2026-05-03T12:47:24.703Z</time></trkpt><trkpt lat="41.5858999" lon="19.693022"><ele>18.5</ele><time>2026-05-03T12:47:25.704Z</time></trkpt><trkpt lat="41.5860257" lon="19.6930073"><ele>19.0</ele><time>2026-05-03T12:47:26.704Z</time></trkpt><trkpt lat="41.5861564" lon="19.6929861"><ele>20.25</ele><time>2026-05-03T12:47:27.703Z</time></trkpt><trkpt lat="41.5862884" lon="19.6929586"><ele>21.5</ele><time>2026-05-03T12:47:28.704Z</time></trkpt><trkpt lat="41.5864184" lon="19.692945"><ele>22.75</ele><time>2026-05-03T12:47:29.703Z</time></trkpt><trkpt lat="41.5865339" lon="19.692933"><ele>24.0</ele><time>2026-05-03T12:47:30.703Z</time></trkpt><trkpt lat="41.5866552" lon="19.6929097"><ele>24.0</ele><time>2026-05-03T12:47:31.704Z</time></trkpt><trkpt lat="41.5867665" lon="19.692899"><ele>24.0</ele><time>2026-05-03T12:47:32.703Z</time></trkpt><trkpt lat="41.5868687" lon="19.6928894"><ele>24.0</ele><time>2026-05-03T12:47:33.703Z</time></trkpt><trkpt lat="41.5869704" lon="19.6928817"><ele>24.0</ele><time>2026-05-03T12:47:34.704Z</time></trkpt><trkpt lat="41.5870719" lon="19.6928735"><ele>24.0</ele><time>2026-05-03T12:47:35.704Z</time></trkpt><trkpt lat="41.587175" lon="19.6928536"><ele>24.4</ele><time>2026-05-03T12:47:36.703Z</time></trkpt><trkpt lat="41.5872792" lon="19.6928535"><ele>24.799999999999997</ele><time>2026-05-03T12:47:37.704Z</time></trkpt><trkpt lat="41.5873779" lon="19.6928682"><ele>25.200000000000003</ele><time>2026-05-03T12:47:38.703Z</time></trkpt><trkpt lat="41.5874728" lon="19.6929236"><ele>25.6</ele><time>2026-05-03T12:47:39.703Z</time></trkpt><trkpt lat="41.5875643" lon="19.6929955"><ele>26.0</ele><time>2026-05-03T12:47:40.704Z</time></trkpt><trkpt lat="41.587655" lon="19.693106"><ele>26.0</ele><time>2026-05-03T12:47:41.703Z</time></trkpt><trkpt lat="41.5877447" lon="19.6931994"><ele>26.0</ele><time>2026-05-03T12:47:42.704Z</time></trkpt><trkpt lat="41.5878399" lon="19.6933213"><ele>26.0</ele><time>2026-05-03T12:47:43.7Z</time></trkpt><trkpt lat="41.5879292" lon="19.6934559"><ele>26.0</ele><time>2026-05-03T12:47:44.704Z</time></trkpt><trkpt lat="41.5880315" lon="19.6935795"><ele>24.0</ele><time>2026-05-03T12:47:45.703Z</time></trkpt><trkpt lat="41.5881296" lon="19.6937014"><ele>22.0</ele><time>2026-05-03T12:47:46.703Z</time></trkpt><trkpt lat="41.5882241" lon="19.6938286"><ele>20.0</ele><time>2026-05-03T12:47:47.704Z</time></trkpt><trkpt lat="41.5883188" lon="19.6939482"><ele>18.0</ele><time>2026-05-03T12:47:48.703Z</time></trkpt><trkpt lat="41.5884035" lon="19.6940745"><ele>18.0</ele><time>2026-05-03T12:47:49.704Z</time></trkpt><trkpt lat="41.5884919" lon="19.6942147"><ele>18.0</ele><time>2026-05-03T12:47:50.704Z</time></trkpt><trkpt lat="41.5885687" lon="19.6943722"><ele>18.0</ele><time>2026-05-03T12:47:51.703Z</time></trkpt><trkpt lat="41.5886468" lon="19.6945363"><ele>18.0</ele><time>2026-05-03T12:47:52.704Z</time></trkpt><trkpt lat="41.5887243" lon="19.6946938"><ele>17.0</ele><time>2026-05-03T12:47:53.704Z</time></trkpt><trkpt lat="41.5887879" lon="19.6948656"><ele>16.0</ele><time>2026-05-03T12:47:54.703Z</time></trkpt><trkpt lat="41.5888452" lon="19.6950415"><ele>15.0</ele><time>2026-05-03T12:47:55.704Z</time></trkpt><trkpt lat="41.588896" lon="19.6952058"><ele>14.0</ele><time>2026-05-03T12:47:56.704Z</time></trkpt><trkpt lat="41.5889388" lon="19.6953668"><ele>14.0</ele><time>2026-05-03T12:47:57.703Z</time></trkpt><trkpt lat="41.5889804" lon="19.69551"><ele>14.0</ele><time>2026-05-03T12:47:58.704Z</time></trkpt><trkpt lat="41.5890185" lon="19.6956564"><ele>14.0</ele><time>2026-05-03T12:47:59.704Z</time></trkpt><trkpt lat="41.5890514" lon="19.6958129"><ele>14.0</ele><time>2026-05-03T12:48:00.704Z</time></trkpt><trkpt lat="41.5890607" lon="19.6959575"><ele>14.0</ele><time>2026-05-03T12:48:01.703Z</time></trkpt><trkpt lat="41.5890648" lon="19.6961027"><ele>14.0</ele><time>2026-05-03T12:48:02.703Z</time></trkpt><trkpt lat="41.5890673" lon="19.6962498"><ele>14.0</ele><time>2026-05-03T12:48:03.703Z</time></trkpt><trkpt lat="41.5890602" lon="19.6964187"><ele>14.0</ele><time>2026-05-03T12:48:04.703Z</time></trkpt><trkpt lat="41.589047" lon="19.6965898"><ele>14.0</ele><time>2026-05-03T12:48:05.703Z</time></trkpt><trkpt lat="41.5890425" lon="19.6967875"><ele>14.0</ele><time>2026-05-03T12:48:06.704Z</time></trkpt><trkpt lat="41.5890386" lon="19.6969935"><ele>14.0</ele><time>2026-05-03T12:48:07.703Z</time></trkpt><trkpt lat="41.5890279" lon="19.6971871"><ele>14.0</ele><time>2026-05-03T12:48:08.704Z</time></trkpt><trkpt lat="41.5890155" lon="19.6973846"><ele>13.25</ele><time>2026-05-03T12:48:09.703Z</time></trkpt><trkpt lat="41.5890043" lon="19.697585"><ele>12.5</ele><time>2026-05-03T12:48:10.704Z</time></trkpt><trkpt lat="41.5889952" lon="19.6977856"><ele>11.75</ele><time>2026-05-03T12:48:11.704Z</time></trkpt><trkpt lat="41.5889849" lon="19.6979821"><ele>11.0</ele><time>2026-05-03T12:48:12.704Z</time></trkpt><trkpt lat="41.5889757" lon="19.6981759"><ele>11.0</ele><time>2026-05-03T12:48:13.704Z</time></trkpt><trkpt lat="41.5889701" lon="19.6983547"><ele>11.0</ele><time>2026-05-03T12:48:14.703Z</time></trkpt><trkpt lat="41.5889612" lon="19.698534"><ele>11.0</ele><time>2026-05-03T12:48:15.704Z</time></trkpt><trkpt lat="41.5889601" lon="19.6987109"><ele>11.0</ele><time>2026-05-03T12:48:16.704Z</time></trkpt><trkpt lat="41.5889505" lon="19.6988701"><ele>11.0</ele><time>2026-05-03T12:48:17.703Z</time></trkpt><trkpt lat="41.5889619" lon="19.6990284"><ele>11.0</ele><time>2026-05-03T12:48:18.703Z</time></trkpt><trkpt lat="41.5889896" lon="19.6991841"><ele>11.0</ele><time>2026-05-03T12:48:19.704Z</time></trkpt><trkpt lat="41.5890308" lon="19.6993386"><ele>11.0</ele><time>2026-05-03T12:48:20.703Z</time></trkpt><trkpt lat="41.5890874" lon="19.6994862"><ele>11.0</ele><time>2026-05-03T12:48:21.703Z</time></trkpt><trkpt lat="41.5891557" lon="19.6996232"><ele>11.0</ele><time>2026-05-03T12:48:22.704Z</time></trkpt><trkpt lat="41.5892431" lon="19.699745"><ele>11.0</ele><time>2026-05-03T12:48:23.703Z</time></trkpt><trkpt lat="41.5893461" lon="19.6998562"><ele>11.0</ele><time>2026-05-03T12:48:24.703Z</time></trkpt><trkpt lat="41.5894625" lon="19.6999435"><ele>10.5</ele><time>2026-05-03T12:48:25.704Z</time></trkpt><trkpt lat="41.5895811" lon="19.7000196"><ele>10.0</ele><time>2026-05-03T12:48:26.704Z</time></trkpt><trkpt lat="41.5897014" lon="19.7000884"><ele>9.5</ele><time>2026-05-03T12:48:27.704Z</time></trkpt><trkpt lat="41.5898243" lon="19.7001579"><ele>9.0</ele><time>2026-05-03T12:48:28.704Z</time></trkpt><trkpt lat="41.5899401" lon="19.7002186"><ele>10.5</ele><time>2026-05-03T12:48:29.704Z</time></trkpt><trkpt lat="41.5900491" lon="19.7002736"><ele>12.0</ele><time>2026-05-03T12:48:30.703Z</time></trkpt><trkpt lat="41.5901519" lon="19.7003133"><ele>13.5</ele><time>2026-05-03T12:48:31.704Z</time></trkpt><trkpt lat="41.5902652" lon="19.7003222"><ele>15.0</ele><time>2026-05-03T12:48:32.703Z</time></trkpt><trkpt lat="41.5903784" lon="19.7003065"><ele>14.5</ele><time>2026-05-03T12:48:33.704Z</time></trkpt><trkpt lat="41.5904841" lon="19.7002501"><ele>14.0</ele><time>2026-05-03T12:48:34.704Z</time></trkpt><trkpt lat="41.5905905" lon="19.7001651"><ele>13.5</ele><time>2026-05-03T12:48:35.703Z</time></trkpt><trkpt lat="41.5906963" lon="19.7000647"><ele>13.0</ele><time>2026-05-03T12:48:36.704Z</time></trkpt><trkpt lat="41.5908102" lon="19.6999543"><ele>13.0</ele><time>2026-05-03T12:48:37.703Z</time></trkpt><trkpt lat="41.5909414" lon="19.6998321"><ele>13.0</ele><time>2026-05-03T12:48:38.704Z</time></trkpt><trkpt lat="41.5910645" lon="19.6997178"><ele>13.0</ele><time>2026-05-03T12:48:39.704Z</time></trkpt><trkpt lat="41.5911892" lon="19.6995997"><ele>12.5</ele><time>2026-05-03T12:48:40.703Z</time></trkpt><trkpt lat="41.5913136" lon="19.6994797"><ele>12.0</ele><time>2026-05-03T12:48:41.704Z</time></trkpt><trkpt lat="41.5914266" lon="19.6993665"><ele>11.5</ele><time>2026-05-03T12:48:42.703Z</time></trkpt><trkpt lat="41.5915323" lon="19.6992631"><ele>11.0</ele><time>2026-05-03T12:48:43.704Z</time></trkpt><trkpt lat="41.5916348" lon="19.6991739"><ele>11.0</ele><time>2026-05-03T12:48:44.703Z</time></trkpt><trkpt lat="41.591741" lon="19.6991013"><ele>11.0</ele><time>2026-05-03T12:48:45.703Z</time></trkpt><trkpt lat="41.5918561" lon="19.6990491"><ele>11.0</ele><time>2026-05-03T12:48:46.704Z</time></trkpt><trkpt lat="41.5919785" lon="19.6990245"><ele>11.0</ele><time>2026-05-03T12:48:47.703Z</time></trkpt><trkpt lat="41.5920976" lon="19.6990169"><ele>11.25</ele><time>2026-05-03T12:48:48.703Z</time></trkpt><trkpt lat="41.5922182" lon="19.6990143"><ele>11.5</ele><time>2026-05-03T12:48:49.703Z</time></trkpt><trkpt lat="41.5923497" lon="19.6990274"><ele>11.75</ele><time>2026-05-03T12:48:50.703Z</time></trkpt><trkpt lat="41.5924828" lon="19.6990253"><ele>12.0</ele><time>2026-05-03T12:48:51.704Z</time></trkpt><trkpt lat="41.5926307" lon="19.6990136"><ele>12.0</ele><time>2026-05-03T12:48:52.702Z</time></trkpt><trkpt lat="41.5927811" lon="19.6989976"><ele>12.0</ele><time>2026-05-03T12:48:53.704Z</time></trkpt><trkpt lat="41.5929422" lon="19.6989682"><ele>12.0</ele><time>2026-05-03T12:48:54.704Z</time></trkpt><trkpt lat="41.5931089" lon="19.6989372"><ele>11.0</ele><time>2026-05-03T12:48:55.703Z</time></trkpt><trkpt lat="41.5932907" lon="19.698894"><ele>10.0</ele><time>2026-05-03T12:48:56.704Z</time></trkpt><trkpt lat="41.5934603" lon="19.6988732"><ele>9.0</ele><time>2026-05-03T12:48:57.704Z</time></trkpt><trkpt lat="41.593634" lon="19.6988438"><ele>9.0</ele><time>2026-05-03T12:48:58.704Z</time></trkpt><trkpt lat="41.5938053" lon="19.6988143"><ele>9.0</ele><time>2026-05-03T12:48:59.703Z</time></trkpt><trkpt lat="41.5939783" lon="19.6987912"><ele>9.0</ele><time>2026-05-03T12:49:00.703Z</time></trkpt><trkpt lat="41.5941428" lon="19.698755"><ele>9.0</ele><time>2026-05-03T12:49:01.703Z</time></trkpt><trkpt lat="41.5943197" lon="19.6987233"><ele>9.0</ele><time>2026-05-03T12:49:02.704Z</time></trkpt><trkpt lat="41.5944869" lon="19.6986894"><ele>9.0</ele><time>2026-05-03T12:49:03.704Z</time></trkpt><trkpt lat="41.5946486" lon="19.698663"><ele>10.0</ele><time>2026-05-03T12:49:04.703Z</time></trkpt><trkpt lat="41.5947999" lon="19.6986327"><ele>11.0</ele><time>2026-05-03T12:49:05.701Z</time></trkpt><trkpt lat="41.5949409" lon="19.6986063"><ele>12.0</ele><time>2026-05-03T12:49:06.703Z</time></trkpt><trkpt lat="41.5950702" lon="19.6985847"><ele>13.0</ele><time>2026-05-03T12:49:07.704Z</time></trkpt><trkpt lat="41.5952078" lon="19.6985856"><ele>12.5</ele><time>2026-05-03T12:49:08.703Z</time></trkpt><trkpt lat="41.5953533" lon="19.6986088"><ele>12.0</ele><time>2026-05-03T12:49:09.703Z</time></trkpt><trkpt lat="41.5954878" lon="19.6986532"><ele>11.5</ele><time>2026-05-03T12:49:10.703Z</time></trkpt><trkpt lat="41.5956251" lon="19.6987184"><ele>11.0</ele><time>2026-05-03T12:49:11.704Z</time></trkpt><trkpt lat="41.5957796" lon="19.6987825"><ele>11.0</ele><time>2026-05-03T12:49:12.704Z</time></trkpt><trkpt lat="41.5959333" lon="19.6988423"><ele>11.0</ele><time>2026-05-03T12:49:13.704Z</time></trkpt><trkpt lat="41.5960959" lon="19.6988886"><ele>11.0</ele><time>2026-05-03T12:49:14.704Z</time></trkpt><trkpt lat="41.5962632" lon="19.6989302"><ele>9.666666666666666</ele><time>2026-05-03T12:49:15.704Z</time></trkpt><trkpt lat="41.5964374" lon="19.6989583"><ele>8.333333333333334</ele><time>2026-05-03T12:49:16.704Z</time></trkpt><trkpt lat="41.5966065" lon="19.6989964"><ele>7.0</ele><time>2026-05-03T12:49:17.704Z</time></trkpt><trkpt lat="41.5967851" lon="19.6990353"><ele>7.0</ele><time>2026-05-03T12:49:18.703Z</time></trkpt><trkpt lat="41.5969595" lon="19.6990712"><ele>7.0</ele><time>2026-05-03T12:49:19.704Z</time></trkpt><trkpt lat="41.597139" lon="19.6991088"><ele>7.0</ele><time>2026-05-03T12:49:20.704Z</time></trkpt><trkpt lat="41.5973169" lon="19.6991487"><ele>7.666666666666667</ele><time>2026-05-03T12:49:21.703Z</time></trkpt><trkpt lat="41.597497" lon="19.6991859"><ele>8.333333333333334</ele><time>2026-05-03T12:49:22.703Z</time></trkpt><trkpt lat="41.5976768" lon="19.6992166"><ele>9.0</ele><time>2026-05-03T12:49:23.703Z</time></trkpt><trkpt lat="41.5978599" lon="19.6992513"><ele>9.0</ele><time>2026-05-03T12:49:24.703Z</time></trkpt><trkpt lat="41.5980455" lon="19.6992845"><ele>9.0</ele><time>2026-05-03T12:49:25.703Z</time></trkpt><trkpt lat="41.5982269" lon="19.6993088"><ele>9.0</ele><time>2026-05-03T12:49:26.703Z</time></trkpt><trkpt lat="41.5984045" lon="19.6993438"><ele>9.0</ele><time>2026-05-03T12:49:27.704Z</time></trkpt><trkpt lat="41.5985818" lon="19.6993873"><ele>9.0</ele><time>2026-05-03T12:49:28.703Z</time></trkpt><trkpt lat="41.5987557" lon="19.6994301"><ele>9.0</ele><time>2026-05-03T12:49:29.704Z</time></trkpt><trkpt lat="41.5989248" lon="19.6994745"><ele>10.0</ele><time>2026-05-03T12:49:30.703Z</time></trkpt><trkpt lat="41.5990885" lon="19.6995118"><ele>11.0</ele><time>2026-05-03T12:49:31.703Z</time></trkpt><trkpt lat="41.5992504" lon="19.6995478"><ele>12.0</ele><time>2026-05-03T12:49:32.704Z</time></trkpt><trkpt lat="41.5994117" lon="19.6995785"><ele>12.333333333333332</ele><time>2026-05-03T12:49:33.704Z</time></trkpt><trkpt lat="41.5995712" lon="19.6996114"><ele>12.666666666666666</ele><time>2026-05-03T12:49:34.704Z</time></trkpt><trkpt lat="41.5997282" lon="19.6996418"><ele>13.0</ele><time>2026-05-03T12:49:35.703Z</time></trkpt><trkpt lat="41.5998844" lon="19.6996748"><ele>13.0</ele><time>2026-05-03T12:49:36.704Z</time></trkpt><trkpt lat="41.6000341" lon="19.699715"><ele>13.0</ele><time>2026-05-03T12:49:37.703Z</time></trkpt><trkpt lat="41.6001651" lon="19.6997623"><ele>13.0</ele><time>2026-05-03T12:49:38.704Z</time></trkpt><trkpt lat="41.6002837" lon="19.6998167"><ele>13.0</ele><time>2026-05-03T12:49:39.703Z</time></trkpt><trkpt lat="41.6003947" lon="19.6998999"><ele>12.75</ele><time>2026-05-03T12:49:40.703Z</time></trkpt><trkpt lat="41.6004774" lon="19.7000024"><ele>12.5</ele><time>2026-05-03T12:49:41.704Z</time></trkpt><trkpt lat="41.6005536" lon="19.7001528"><ele>12.25</ele><time>2026-05-03T12:49:42.704Z</time></trkpt><trkpt lat="41.6006263" lon="19.7002945"><ele>12.0</ele><time>2026-05-03T12:49:43.704Z</time></trkpt><trkpt lat="41.6006959" lon="19.700478"><ele>12.0</ele><time>2026-05-03T12:49:44.704Z</time></trkpt><trkpt lat="41.6007654" lon="19.7006608"><ele>12.0</ele><time>2026-05-03T12:49:45.702Z</time></trkpt><trkpt lat="41.6008307" lon="19.7008516"><ele>12.0</ele><time>2026-05-03T12:49:46.704Z</time></trkpt><trkpt lat="41.6008919" lon="19.7010508"><ele>12.0</ele><time>2026-05-03T12:49:47.703Z</time></trkpt><trkpt lat="41.600961" lon="19.7012474"><ele>12.0</ele><time>2026-05-03T12:49:48.704Z</time></trkpt><trkpt lat="41.6010234" lon="19.7014488"><ele>12.0</ele><time>2026-05-03T12:49:49.703Z</time></trkpt><trkpt lat="41.6010929" lon="19.7016479"><ele>12.0</ele><time>2026-05-03T12:49:50.704Z</time></trkpt><trkpt lat="41.6011618" lon="19.7018434"><ele>12.0</ele><time>2026-05-03T12:49:51.704Z</time></trkpt><trkpt lat="41.6012359" lon="19.7020372"><ele>12.0</ele><time>2026-05-03T12:49:52.704Z</time></trkpt><trkpt lat="41.6013042" lon="19.7022395"><ele>12.333333333333332</ele><time>2026-05-03T12:49:53.703Z</time></trkpt><trkpt lat="41.6013747" lon="19.7024376"><ele>12.666666666666666</ele><time>2026-05-03T12:49:54.704Z</time></trkpt><trkpt lat="41.6014415" lon="19.7026403"><ele>13.0</ele><time>2026-05-03T12:49:55.703Z</time></trkpt><trkpt lat="41.6015107" lon="19.70284"><ele>13.666666666666666</ele><time>2026-05-03T12:49:56.702Z</time></trkpt><trkpt lat="41.6015778" lon="19.7030354"><ele>14.333333333333332</ele><time>2026-05-03T12:49:57.703Z</time></trkpt><trkpt lat="41.6016394" lon="19.7032224"><ele>15.0</ele><time>2026-05-03T12:49:58.703Z</time></trkpt><trkpt lat="41.6016966" lon="19.7034027"><ele>15.0</ele><time>2026-05-03T12:49:59.703Z</time></trkpt><trkpt lat="41.6017454" lon="19.7035844"><ele>15.0</ele><time>2026-05-03T12:50:00.704Z</time></trkpt><trkpt lat="41.601784" lon="19.7037643"><ele>15.0</ele><time>2026-05-03T12:50:01.703Z</time></trkpt><trkpt lat="41.6018" lon="19.7039607"><ele>15.0</ele><time>2026-05-03T12:50:02.703Z</time></trkpt><trkpt lat="41.6018051" lon="19.7041599"><ele>15.0</ele><time>2026-05-03T12:50:03.703Z</time></trkpt><trkpt lat="41.6018146" lon="19.7043627"><ele>15.0</ele><time>2026-05-03T12:50:04.704Z</time></trkpt><trkpt lat="41.6018218" lon="19.7045703"><ele>15.0</ele><time>2026-05-03T12:50:05.703Z</time></trkpt><trkpt lat="41.6018371" lon="19.7047679"><ele>15.0</ele><time>2026-05-03T12:50:06.704Z</time></trkpt><trkpt lat="41.6018388" lon="19.7049579"><ele>15.0</ele><time>2026-05-03T12:50:07.703Z</time></trkpt><trkpt lat="41.6018552" lon="19.7051395"><ele>15.0</ele><time>2026-05-03T12:50:08.704Z</time></trkpt><trkpt lat="41.601876" lon="19.7053133"><ele>15.0</ele><time>2026-05-03T12:50:09.703Z</time></trkpt><trkpt lat="41.6019054" lon="19.7054769"><ele>15.0</ele><time>2026-05-03T12:50:10.704Z</time></trkpt><trkpt lat="41.6019375" lon="19.7056137"><ele>15.0</ele><time>2026-05-03T12:50:11.703Z</time></trkpt><trkpt lat="41.6019916" lon="19.7057527"><ele>15.0</ele><time>2026-05-03T12:50:12.704Z</time></trkpt><trkpt lat="41.6020719" lon="19.7058719"><ele>15.0</ele><time>2026-05-03T12:50:13.704Z</time></trkpt><trkpt lat="41.6021678" lon="19.7059894"><ele>15.0</ele><time>2026-05-03T12:50:14.704Z</time></trkpt><trkpt lat="41.6022797" lon="19.7061124"><ele>15.0</ele><time>2026-05-03T12:50:15.703Z</time></trkpt><trkpt lat="41.6024036" lon="19.706217"><ele>15.0</ele><time>2026-05-03T12:50:16.704Z</time></trkpt><trkpt lat="41.6025364" lon="19.7063341"><ele>15.0</ele><time>2026-05-03T12:50:17.704Z</time></trkpt><trkpt lat="41.6026692" lon="19.70645"><ele>15.0</ele><time>2026-05-03T12:50:18.701Z</time></trkpt><trkpt lat="41.6028069" lon="19.706573"><ele>15.0</ele><time>2026-05-03T12:50:19.704Z</time></trkpt><trkpt lat="41.6029329" lon="19.7066938"><ele>15.0</ele><time>2026-05-03T12:50:20.702Z</time></trkpt><trkpt lat="41.6030671" lon="19.7068185"><ele>15.0</ele><time>2026-05-03T12:50:21.704Z</time></trkpt><trkpt lat="41.6032053" lon="19.7069384"><ele>15.0</ele><time>2026-05-03T12:50:22.704Z</time></trkpt><trkpt lat="41.6033418" lon="19.7070615"><ele>15.0</ele><time>2026-05-03T12:50:23.703Z</time></trkpt><trkpt lat="41.6034806" lon="19.7071767"><ele>15.0</ele><time>2026-05-03T12:50:24.704Z</time></trkpt><trkpt lat="41.6036189" lon="19.7072957"><ele>15.0</ele><time>2026-05-03T12:50:25.703Z</time></trkpt><trkpt lat="41.6037513" lon="19.7074162"><ele>15.0</ele><time>2026-05-03T12:50:26.704Z</time></trkpt><trkpt lat="41.6038833" lon="19.7075394"><ele>15.0</ele><time>2026-05-03T12:50:27.703Z</time></trkpt><trkpt lat="41.6040189" lon="19.7076576"><ele>15.0</ele><time>2026-05-03T12:50:28.703Z</time></trkpt><trkpt lat="41.6041497" lon="19.7077889"><ele>15.0</ele><time>2026-05-03T12:50:29.702Z</time></trkpt><trkpt lat="41.6042802" lon="19.707918"><ele>15.0</ele><time>2026-05-03T12:50:30.703Z</time></trkpt><trkpt lat="41.6044039" lon="19.7080517"><ele>15.0</ele><time>2026-05-03T12:50:31.703Z</time></trkpt><trkpt lat="41.6045243" lon="19.7081913"><ele>15.0</ele><time>2026-05-03T12:50:32.703Z</time></trkpt><trkpt lat="41.6046389" lon="19.7083369"><ele>15.0</ele><time>2026-05-03T12:50:33.704Z</time></trkpt><trkpt lat="41.6047434" lon="19.7084916"><ele>15.0</ele><time>2026-05-03T12:50:34.703Z</time></trkpt><trkpt lat="41.6048432" lon="19.7086645"><ele>15.333333333333332</ele><time>2026-05-03T12:50:35.703Z</time></trkpt><trkpt lat="41.6049353" lon="19.7088482"><ele>15.666666666666666</ele><time>2026-05-03T12:50:36.704Z</time></trkpt><trkpt lat="41.6050242" lon="19.7090237"><ele>16.0</ele><time>2026-05-03T12:50:37.704Z</time></trkpt><trkpt lat="41.6051079" lon="19.7092036"><ele>16.0</ele><time>2026-05-03T12:50:38.704Z</time></trkpt><trkpt lat="41.6051826" lon="19.7093822"><ele>16.0</ele><time>2026-05-03T12:50:39.7Z</time></trkpt><trkpt lat="41.6052635" lon="19.7095613"><ele>16.0</ele><time>2026-05-03T12:50:40.703Z</time></trkpt><trkpt lat="41.6053476" lon="19.7097504"><ele>15.333333333333332</ele><time>2026-05-03T12:50:41.704Z</time></trkpt><trkpt lat="41.6054366" lon="19.7099178"><ele>14.666666666666668</ele><time>2026-05-03T12:50:42.704Z</time></trkpt><trkpt lat="41.6055219" lon="19.7100985"><ele>14.0</ele><time>2026-05-03T12:50:43.703Z</time></trkpt><trkpt lat="41.6056109" lon="19.7102758"><ele>14.0</ele><time>2026-05-03T12:50:44.704Z</time></trkpt><trkpt lat="41.6057068" lon="19.710451"><ele>14.0</ele><time>2026-05-03T12:50:45.704Z</time></trkpt><trkpt lat="41.6058043" lon="19.7106248"><ele>14.0</ele><time>2026-05-03T12:50:46.704Z</time></trkpt><trkpt lat="41.6059052" lon="19.710797"><ele>14.0</ele><time>2026-05-03T12:50:47.704Z</time></trkpt><trkpt lat="41.606005" lon="19.7109635"><ele>14.0</ele><time>2026-05-03T12:50:48.704Z</time></trkpt><trkpt lat="41.6061093" lon="19.7111219"><ele>14.0</ele><time>2026-05-03T12:50:49.704Z</time></trkpt><trkpt lat="41.6061991" lon="19.7112768"><ele>14.25</ele><time>2026-05-03T12:50:50.704Z</time></trkpt><trkpt lat="41.6062881" lon="19.7114246"><ele>14.5</ele><time>2026-05-03T12:50:51.704Z</time></trkpt><trkpt lat="41.6063754" lon="19.7115768"><ele>14.75</ele><time>2026-05-03T12:50:52.703Z</time></trkpt><trkpt lat="41.6064608" lon="19.7117182"><ele>15.0</ele><time>2026-05-03T12:50:53.704Z</time></trkpt><trkpt lat="41.6065458" lon="19.7118513"><ele>15.25</ele><time>2026-05-03T12:50:54.704Z</time></trkpt><trkpt lat="41.6066281" lon="19.7119789"><ele>15.5</ele><time>2026-05-03T12:50:55.704Z</time></trkpt><trkpt lat="41.6067264" lon="19.712073"><ele>15.75</ele><time>2026-05-03T12:50:56.704Z</time></trkpt><trkpt lat="41.6068366" lon="19.7121537"><ele>16.0</ele><time>2026-05-03T12:50:57.704Z</time></trkpt><trkpt lat="41.6069544" lon="19.7122201"><ele>15.5</ele><time>2026-05-03T12:50:58.703Z</time></trkpt><trkpt lat="41.607085" lon="19.7122926"><ele>15.0</ele><time>2026-05-03T12:50:59.704Z</time></trkpt><trkpt lat="41.6072157" lon="19.7123442"><ele>14.5</ele><time>2026-05-03T12:51:00.703Z</time></trkpt><trkpt lat="41.6073544" lon="19.7123976"><ele>14.0</ele><time>2026-05-03T12:51:01.703Z</time></trkpt><trkpt lat="41.6074905" lon="19.7124525"><ele>14.0</ele><time>2026-05-03T12:51:02.703Z</time></trkpt><trkpt lat="41.6076312" lon="19.7124988"><ele>14.0</ele><time>2026-05-03T12:51:03.703Z</time></trkpt><trkpt lat="41.6077625" lon="19.712552"><ele>14.0</ele><time>2026-05-03T12:51:04.703Z</time></trkpt><trkpt lat="41.6078879" lon="19.712603"><ele>14.0</ele><time>2026-05-03T12:51:05.704Z</time></trkpt><trkpt lat="41.6080106" lon="19.7126492"><ele>14.0</ele><time>2026-05-03T12:51:06.703Z</time></trkpt><trkpt lat="41.608126" lon="19.7126839"><ele>13.999999999999998</ele><time>2026-05-03T12:51:07.7Z</time></trkpt><trkpt lat="41.6082133" lon="19.7127416"><ele>13.999999999999998</ele><time>2026-05-03T12:51:08.702Z</time></trkpt><trkpt lat="41.6082841" lon="19.7128051"><ele>14.0</ele><time>2026-05-03T12:51:09.704Z</time></trkpt><trkpt lat="41.6083375" lon="19.712855"><ele>14.0</ele><time>2026-05-03T12:51:10.704Z</time></trkpt><trkpt lat="41.6084277" lon="19.7129635"><ele>14.0</ele><time>2026-05-03T12:51:12.703Z</time></trkpt><trkpt lat="41.6085118" lon="19.7130843"><ele>14.0</ele><time>2026-05-03T12:51:14.702Z</time></trkpt><trkpt lat="41.6085889" lon="19.7132018"><ele>14.0</ele><time>2026-05-03T12:51:16.703Z</time></trkpt><trkpt lat="41.6086635" lon="19.7133262"><ele>14.0</ele><time>2026-05-03T12:51:18.703Z</time></trkpt><trkpt lat="41.608759" lon="19.7134356"><ele>14.0</ele><time>2026-05-03T12:51:20.703Z</time></trkpt><trkpt lat="41.6088203" lon="19.713487"><ele>14.0</ele><time>2026-05-03T12:51:21.703Z</time></trkpt><trkpt lat="41.608885" lon="19.7135377"><ele>14.0</ele><time>2026-05-03T12:51:22.704Z</time></trkpt><trkpt lat="41.6089551" lon="19.7135713"><ele>14.0</ele><time>2026-05-03T12:51:23.704Z</time></trkpt><trkpt lat="41.6090269" lon="19.7135842"><ele>14.0</ele><time>2026-05-03T12:51:24.703Z</time></trkpt><trkpt lat="41.6090972" lon="19.713585"><ele>14.0</ele><time>2026-05-03T12:51:25.703Z</time></trkpt><trkpt lat="41.6091806" lon="19.7135699"><ele>14.0</ele><time>2026-05-03T12:51:26.703Z</time></trkpt><trkpt lat="41.6092699" lon="19.7135358"><ele>13.75</ele><time>2026-05-03T12:51:27.704Z</time></trkpt><trkpt lat="41.6093875" lon="19.7134957"><ele>13.5</ele><time>2026-05-03T12:51:28.704Z</time></trkpt><trkpt lat="41.6095131" lon="19.7134536"><ele>13.25</ele><time>2026-05-03T12:51:29.704Z</time></trkpt><trkpt lat="41.6096419" lon="19.7134274"><ele>13.0</ele><time>2026-05-03T12:51:30.704Z</time></trkpt><trkpt lat="41.6097972" lon="19.7134046"><ele>12.666666666666666</ele><time>2026-05-03T12:51:31.703Z</time></trkpt><trkpt lat="41.6099628" lon="19.7133643"><ele>12.333333333333332</ele><time>2026-05-03T12:51:32.704Z</time></trkpt><trkpt lat="41.6101262" lon="19.7133155"><ele>12.0</ele><time>2026-05-03T12:51:33.704Z</time></trkpt><trkpt lat="41.6102882" lon="19.7132669"><ele>12.0</ele><time>2026-05-03T12:51:34.703Z</time></trkpt><trkpt lat="41.610445" lon="19.7132089"><ele>12.0</ele><time>2026-05-03T12:51:35.703Z</time></trkpt><trkpt lat="41.6106028" lon="19.713154"><ele>12.0</ele><time>2026-05-03T12:51:36.704Z</time></trkpt><trkpt lat="41.6107578" lon="19.7130869"><ele>12.0</ele><time>2026-05-03T12:51:37.704Z</time></trkpt><trkpt lat="41.6109057" lon="19.7130146"><ele>12.0</ele><time>2026-05-03T12:51:38.704Z</time></trkpt><trkpt lat="41.6110467" lon="19.7129221"><ele>12.0</ele><time>2026-05-03T12:51:39.703Z</time></trkpt><trkpt lat="41.6111808" lon="19.7128141"><ele>11.75</ele><time>2026-05-03T12:51:40.703Z</time></trkpt><trkpt lat="41.6113023" lon="19.7127083"><ele>11.5</ele><time>2026-05-03T12:51:41.704Z</time></trkpt><trkpt lat="41.6114208" lon="19.7125979"><ele>11.25</ele><time>2026-05-03T12:51:42.704Z</time></trkpt><trkpt lat="41.6115428" lon="19.7124788"><ele>11.0</ele><time>2026-05-03T12:51:43.703Z</time></trkpt><trkpt lat="41.6116788" lon="19.7123436"><ele>11.0</ele><time>2026-05-03T12:51:44.701Z</time></trkpt><trkpt lat="41.6118032" lon="19.7121971"><ele>11.0</ele><time>2026-05-03T12:51:45.704Z</time></trkpt><trkpt lat="41.6119174" lon="19.7120506"><ele>11.0</ele><time>2026-05-03T12:51:46.702Z</time></trkpt><trkpt lat="41.6120284" lon="19.7119059"><ele>11.5</ele><time>2026-05-03T12:51:47.704Z</time></trkpt><trkpt lat="41.6121241" lon="19.7117756"><ele>12.0</ele><time>2026-05-03T12:51:48.704Z</time></trkpt><trkpt lat="41.6122193" lon="19.7116589"><ele>12.5</ele><time>2026-05-03T12:51:49.704Z</time></trkpt><trkpt lat="41.6123237" lon="19.7115541"><ele>13.0</ele><time>2026-05-03T12:51:50.703Z</time></trkpt><trkpt lat="41.6124213" lon="19.7114728"><ele>13.0</ele><time>2026-05-03T12:51:51.704Z</time></trkpt><trkpt lat="41.6125304" lon="19.7114165"><ele>13.0</ele><time>2026-05-03T12:51:52.703Z</time></trkpt><trkpt lat="41.6126537" lon="19.7113788"><ele>13.0</ele><time>2026-05-03T12:51:53.704Z</time></trkpt><trkpt lat="41.6127938" lon="19.7113525"><ele>13.0</ele><time>2026-05-03T12:51:54.702Z</time></trkpt><trkpt lat="41.6129343" lon="19.7113442"><ele>13.333333333333332</ele><time>2026-05-03T12:51:55.702Z</time></trkpt><trkpt lat="41.6130777" lon="19.7113209"><ele>13.666666666666668</ele><time>2026-05-03T12:51:56.702Z</time></trkpt><trkpt lat="41.6132248" lon="19.7113251"><ele>14.0</ele><time>2026-05-03T12:51:57.704Z</time></trkpt><trkpt lat="41.613386" lon="19.7113253"><ele>14.0</ele><time>2026-05-03T12:51:58.703Z</time></trkpt><trkpt lat="41.6135503" lon="19.7113397"><ele>14.0</ele><time>2026-05-03T12:51:59.704Z</time></trkpt><trkpt lat="41.6137163" lon="19.7113526"><ele>14.0</ele><time>2026-05-03T12:52:00.704Z</time></trkpt><trkpt lat="41.6138922" lon="19.7113726"><ele>13.333333333333334</ele><time>2026-05-03T12:52:01.703Z</time></trkpt><trkpt lat="41.6140581" lon="19.7114169"><ele>12.666666666666668</ele><time>2026-05-03T12:52:02.704Z</time></trkpt><trkpt lat="41.6142256" lon="19.7114632"><ele>12.0</ele><time>2026-05-03T12:52:03.704Z</time></trkpt><trkpt lat="41.6143878" lon="19.711513"><ele>11.333333333333334</ele><time>2026-05-03T12:52:04.703Z</time></trkpt><trkpt lat="41.6145493" lon="19.7115606"><ele>10.666666666666668</ele><time>2026-05-03T12:52:05.704Z</time></trkpt><trkpt lat="41.6147187" lon="19.7116078"><ele>10.0</ele><time>2026-05-03T12:52:06.703Z</time></trkpt><trkpt lat="41.614879" lon="19.7116547"><ele>10.0</ele><time>2026-05-03T12:52:07.703Z</time></trkpt><trkpt lat="41.615027" lon="19.7117078"><ele>10.0</ele><time>2026-05-03T12:52:08.702Z</time></trkpt><trkpt lat="41.6151734" lon="19.7117528"><ele>10.0</ele><time>2026-05-03T12:52:09.704Z</time></trkpt><trkpt lat="41.6153077" lon="19.7118118"><ele>10.0</ele><time>2026-05-03T12:52:10.703Z</time></trkpt><trkpt lat="41.6154309" lon="19.7118687"><ele>10.0</ele><time>2026-05-03T12:52:11.704Z</time></trkpt><trkpt lat="41.6155538" lon="19.7119251"><ele>10.0</ele><time>2026-05-03T12:52:12.703Z</time></trkpt><trkpt lat="41.6156724" lon="19.7119546"><ele>10.0</ele><time>2026-05-03T12:52:13.703Z</time></trkpt><trkpt lat="41.6157895" lon="19.7119589"><ele>10.0</ele><time>2026-05-03T12:52:14.703Z</time></trkpt><trkpt lat="41.6159067" lon="19.7119517"><ele>10.0</ele><time>2026-05-03T12:52:15.703Z</time></trkpt><trkpt lat="41.6160243" lon="19.7119396"><ele>10.0</ele><time>2026-05-03T12:52:16.703Z</time></trkpt><trkpt lat="41.616139" lon="19.711917"><ele>10.0</ele><time>2026-05-03T12:52:17.703Z</time></trkpt><trkpt lat="41.6162534" lon="19.7118916"><ele>10.0</ele><time>2026-05-03T12:52:18.703Z</time></trkpt><trkpt lat="41.6163635" lon="19.7118656"><ele>10.4</ele><time>2026-05-03T12:52:19.704Z</time></trkpt><trkpt lat="41.6164676" lon="19.7118483"><ele>10.8</ele><time>2026-05-03T12:52:20.703Z</time></trkpt><trkpt lat="41.6165715" lon="19.7118286"><ele>11.2</ele><time>2026-05-03T12:52:21.703Z</time></trkpt><trkpt lat="41.6166795" lon="19.7117934"><ele>11.6</ele><time>2026-05-03T12:52:22.704Z</time></trkpt><trkpt lat="41.6167889" lon="19.7117414"><ele>12.0</ele><time>2026-05-03T12:52:23.703Z</time></trkpt><trkpt lat="41.6168899" lon="19.7116618"><ele>12.0</ele><time>2026-05-03T12:52:24.703Z</time></trkpt><trkpt lat="41.6169874" lon="19.7115775"><ele>12.0</ele><time>2026-05-03T12:52:25.703Z</time></trkpt><trkpt lat="41.6171015" lon="19.7115012"><ele>12.0</ele><time>2026-05-03T12:52:26.703Z</time></trkpt><trkpt lat="41.6172103" lon="19.7114583"><ele>12.0</ele><time>2026-05-03T12:52:27.704Z</time></trkpt><trkpt lat="41.6173187" lon="19.7114381"><ele>12.0</ele><time>2026-05-03T12:52:28.704Z</time></trkpt><trkpt lat="41.6174278" lon="19.7114465"><ele>12.0</ele><time>2026-05-03T12:52:29.704Z</time></trkpt><trkpt lat="41.6175333" lon="19.7114775"><ele>12.0</ele><time>2026-05-03T12:52:30.703Z</time></trkpt><trkpt lat="41.6176382" lon="19.7115179"><ele>12.0</ele><time>2026-05-03T12:52:31.703Z</time></trkpt><trkpt lat="41.6177427" lon="19.7115617"><ele>12.0</ele><time>2026-05-03T12:52:32.704Z</time></trkpt><trkpt lat="41.6178485" lon="19.7116032"><ele>11.8</ele><time>2026-05-03T12:52:33.703Z</time></trkpt><trkpt lat="41.6179477" lon="19.7116405"><ele>11.6</ele><time>2026-05-03T12:52:34.702Z</time></trkpt><trkpt lat="41.6180501" lon="19.7116669"><ele>11.4</ele><time>2026-05-03T12:52:35.704Z</time></trkpt><trkpt lat="41.6181556" lon="19.7116654"><ele>11.200000000000001</ele><time>2026-05-03T12:52:36.704Z</time></trkpt><trkpt lat="41.6182564" lon="19.7116427"><ele>11.0</ele><time>2026-05-03T12:52:37.704Z</time></trkpt><trkpt lat="41.6183643" lon="19.7115773"><ele>11.0</ele><time>2026-05-03T12:52:38.704Z</time></trkpt><trkpt lat="41.6184827" lon="19.7114739"><ele>11.0</ele><time>2026-05-03T12:52:39.704Z</time></trkpt><trkpt lat="41.6186127" lon="19.7113395"><ele>11.0</ele><time>2026-05-03T12:52:40.704Z</time></trkpt><trkpt lat="41.6187433" lon="19.7112014"><ele>10.666666666666666</ele><time>2026-05-03T12:52:41.703Z</time></trkpt><trkpt lat="41.6188835" lon="19.7110736"><ele>10.333333333333334</ele><time>2026-05-03T12:52:42.703Z</time></trkpt><trkpt lat="41.6190238" lon="19.7109503"><ele>10.0</ele><time>2026-05-03T12:52:43.704Z</time></trkpt><trkpt lat="41.619169" lon="19.7108193"><ele>10.0</ele><time>2026-05-03T12:52:44.703Z</time></trkpt><trkpt lat="41.6193085" lon="19.7106879"><ele>10.0</ele><time>2026-05-03T12:52:45.702Z</time></trkpt><trkpt lat="41.619452" lon="19.7105609"><ele>10.0</ele><time>2026-05-03T12:52:46.703Z</time></trkpt><trkpt lat="41.6195839" lon="19.710427"><ele>10.333333333333334</ele><time>2026-05-03T12:52:47.703Z</time></trkpt><trkpt lat="41.6197251" lon="19.7102855"><ele>10.666666666666666</ele><time>2026-05-03T12:52:48.703Z</time></trkpt><trkpt lat="41.6198594" lon="19.7101506"><ele>11.0</ele><time>2026-05-03T12:52:49.703Z</time></trkpt><trkpt lat="41.6199902" lon="19.7100227"><ele>11.0</ele><time>2026-05-03T12:52:50.704Z</time></trkpt><trkpt lat="41.6201212" lon="19.7099021"><ele>11.0</ele><time>2026-05-03T12:52:51.702Z</time></trkpt><trkpt lat="41.6202605" lon="19.7097894"><ele>11.0</ele><time>2026-05-03T12:52:52.702Z</time></trkpt><trkpt lat="41.6203962" lon="19.7096871"><ele>11.0</ele><time>2026-05-03T12:52:53.703Z</time></trkpt><trkpt lat="41.6205267" lon="19.7096058"><ele>11.0</ele><time>2026-05-03T12:52:54.703Z</time></trkpt><trkpt lat="41.6206502" lon="19.7095337"><ele>11.0</ele><time>2026-05-03T12:52:55.704Z</time></trkpt><trkpt lat="41.62076" lon="19.709486"><ele>11.0</ele><time>2026-05-03T12:52:56.704Z</time></trkpt><trkpt lat="41.620862" lon="19.7094474"><ele>11.0</ele><time>2026-05-03T12:52:57.703Z</time></trkpt><trkpt lat="41.6209585" lon="19.7094227"><ele>11.0</ele><time>2026-05-03T12:52:58.703Z</time></trkpt><trkpt lat="41.6210416" lon="19.7093954"><ele>11.0</ele><time>2026-05-03T12:52:59.704Z</time></trkpt><trkpt lat="41.621113" lon="19.709367"><ele>11.0</ele><time>2026-05-03T12:53:00.704Z</time></trkpt><trkpt lat="41.621184" lon="19.7093478"><ele>11.0</ele><time>2026-05-03T12:53:01.703Z</time></trkpt><trkpt lat="41.6212626" lon="19.709325"><ele>11.0</ele><time>2026-05-03T12:53:02.704Z</time></trkpt><trkpt lat="41.6213535" lon="19.7092906"><ele>11.200000000000001</ele><time>2026-05-03T12:53:03.704Z</time></trkpt><trkpt lat="41.6214481" lon="19.7092461"><ele>11.4</ele><time>2026-05-03T12:53:04.704Z</time></trkpt><trkpt lat="41.6215486" lon="19.709196"><ele>11.6</ele><time>2026-05-03T12:53:05.703Z</time></trkpt><trkpt lat="41.6216523" lon="19.709158"><ele>11.8</ele><time>2026-05-03T12:53:06.703Z</time></trkpt><trkpt lat="41.621738" lon="19.7091098"><ele>12.0</ele><time>2026-05-03T12:53:07.704Z</time></trkpt><trkpt lat="41.6218257" lon="19.7090576"><ele>12.0</ele><time>2026-05-03T12:53:08.703Z</time></trkpt><trkpt lat="41.6219145" lon="19.7090052"><ele>12.0</ele><time>2026-05-03T12:53:09.703Z</time></trkpt><trkpt lat="41.6219889" lon="19.7090108"><ele>12.0</ele><time>2026-05-03T12:53:10.702Z</time></trkpt><trkpt lat="41.6220773" lon="19.7089954"><ele>12.0</ele><time>2026-05-03T12:53:11.703Z</time></trkpt><trkpt lat="41.6221726" lon="19.7089391"><ele>12.0</ele><time>2026-05-03T12:53:12.703Z</time></trkpt><trkpt lat="41.6222668" lon="19.7088886"><ele>13.0</ele><time>2026-05-03T12:53:13.703Z</time></trkpt><trkpt lat="41.6223748" lon="19.7088236"><ele>14.0</ele><time>2026-05-03T12:53:14.703Z</time></trkpt><trkpt lat="41.6224903" lon="19.7087669"><ele>15.0</ele><time>2026-05-03T12:53:15.703Z</time></trkpt><trkpt lat="41.6226211" lon="19.708736"><ele>16.0</ele><time>2026-05-03T12:53:16.702Z</time></trkpt><trkpt lat="41.6227435" lon="19.708705"><ele>17.0</ele><time>2026-05-03T12:53:17.702Z</time></trkpt><trkpt lat="41.6228528" lon="19.7086678"><ele>18.0</ele><time>2026-05-03T12:53:18.704Z</time></trkpt><trkpt lat="41.6229322" lon="19.7086475"><ele>19.0</ele><time>2026-05-03T12:53:19.704Z</time></trkpt><trkpt lat="41.622995" lon="19.7086377"><ele>20.0</ele><time>2026-05-03T12:53:20.703Z</time></trkpt><trkpt lat="41.6230938" lon="19.7086104"><ele>21.0</ele><time>2026-05-03T12:53:22.703Z</time></trkpt><trkpt lat="41.6232221" lon="19.7085582"><ele>21.0</ele><time>2026-05-03T12:53:24.704Z</time></trkpt><trkpt lat="41.6232931" lon="19.70855"><ele>21.0</ele><time>2026-05-03T12:53:25.702Z</time></trkpt><trkpt lat="41.6233901" lon="19.7085352"><ele>21.0</ele><time>2026-05-03T12:53:26.704Z</time></trkpt><trkpt lat="41.6235003" lon="19.7085302"><ele>21.0</ele><time>2026-05-03T12:53:27.703Z</time></trkpt><trkpt lat="41.6236146" lon="19.7085324"><ele>21.0</ele><time>2026-05-03T12:53:28.703Z</time></trkpt><trkpt lat="41.6237381" lon="19.70855"><ele>21.25</ele><time>2026-05-03T12:53:29.704Z</time></trkpt><trkpt lat="41.623864" lon="19.7085685"><ele>21.5</ele><time>2026-05-03T12:53:30.704Z</time></trkpt><trkpt lat="41.6239978" lon="19.7085983"><ele>21.75</ele><time>2026-05-03T12:53:31.704Z</time></trkpt><trkpt lat="41.6241404" lon="19.7086126"><ele>22.0</ele><time>2026-05-03T12:53:32.704Z</time></trkpt><trkpt lat="41.624249" lon="19.708669"><ele>22.0</ele><time>2026-05-03T12:53:33.704Z</time></trkpt><trkpt lat="41.6243494" lon="19.7087139"><ele>22.0</ele><time>2026-05-03T12:53:34.704Z</time></trkpt><trkpt lat="41.624442" lon="19.7087522"><ele>22.0</ele><time>2026-05-03T12:53:35.704Z</time></trkpt><trkpt lat="41.6245305" lon="19.7087832"><ele>22.0</ele><time>2026-05-03T12:53:36.703Z</time></trkpt><trkpt lat="41.6246119" lon="19.7088064"><ele>22.0</ele><time>2026-05-03T12:53:37.703Z</time></trkpt><trkpt lat="41.6246861" lon="19.7088208"><ele>21.0</ele><time>2026-05-03T12:53:38.703Z</time></trkpt><trkpt lat="41.6247617" lon="19.7088374"><ele>20.0</ele><time>2026-05-03T12:53:39.703Z</time></trkpt><trkpt lat="41.6248334" lon="19.7088686"><ele>19.0</ele><time>2026-05-03T12:53:40.704Z</time></trkpt><trkpt lat="41.6249175" lon="19.7089126"><ele>18.0</ele><time>2026-05-03T12:53:41.704Z</time></trkpt><trkpt lat="41.624994" lon="19.7089474"><ele>17.0</ele><time>2026-05-03T12:53:42.703Z</time></trkpt><trkpt lat="41.6250748" lon="19.7089856"><ele>16.0</ele><time>2026-05-03T12:53:43.704Z</time></trkpt><trkpt lat="41.6251463" lon="19.7090174"><ele>15.999999999999998</ele><time>2026-05-03T12:53:44.703Z</time></trkpt><trkpt lat="41.6252153" lon="19.7090421"><ele>16.0</ele><time>2026-05-03T12:53:45.703Z</time></trkpt><trkpt lat="41.6252802" lon="19.7090632"><ele>16.0</ele><time>2026-05-03T12:53:46.703Z</time></trkpt><trkpt lat="41.6253455" lon="19.7090988"><ele>16.0</ele><time>2026-05-03T12:53:47.704Z</time></trkpt><trkpt lat="41.6254259" lon="19.7091468"><ele>15.999999999999998</ele><time>2026-05-03T12:53:48.702Z</time></trkpt><trkpt lat="41.6255089" lon="19.7091952"><ele>16.0</ele><time>2026-05-03T12:53:49.704Z</time></trkpt><trkpt lat="41.6255964" lon="19.7092466"><ele>15.4</ele><time>2026-05-03T12:53:50.704Z</time></trkpt><trkpt lat="41.6256821" lon="19.7093123"><ele>14.8</ele><time>2026-05-03T12:53:51.702Z</time></trkpt><trkpt lat="41.6257624" lon="19.7093886"><ele>14.200000000000001</ele><time>2026-05-03T12:53:52.704Z</time></trkpt><trkpt lat="41.625842" lon="19.7094745"><ele>13.600000000000001</ele><time>2026-05-03T12:53:53.703Z</time></trkpt><trkpt lat="41.6259216" lon="19.7095728"><ele>13.0</ele><time>2026-05-03T12:53:54.704Z</time></trkpt><trkpt lat="41.6259968" lon="19.7096607"><ele>13.4</ele><time>2026-05-03T12:53:55.704Z</time></trkpt><trkpt lat="41.6260736" lon="19.70975"><ele>13.8</ele><time>2026-05-03T12:53:56.703Z</time></trkpt><trkpt lat="41.6261496" lon="19.7098303"><ele>14.2</ele><time>2026-05-03T12:53:57.703Z</time></trkpt><trkpt lat="41.6262169" lon="19.7099137"><ele>14.6</ele><time>2026-05-03T12:53:58.703Z</time></trkpt><trkpt lat="41.6262871" lon="19.7099894"><ele>15.0</ele><time>2026-05-03T12:53:59.703Z</time></trkpt><trkpt lat="41.626365" lon="19.7100663"><ele>15.0</ele><time>2026-05-03T12:54:00.704Z</time></trkpt><trkpt lat="41.6264355" lon="19.7101401"><ele>15.0</ele><time>2026-05-03T12:54:01.703Z</time></trkpt><trkpt lat="41.6265154" lon="19.710195"><ele>15.0</ele><time>2026-05-03T12:54:02.703Z</time></trkpt><trkpt lat="41.6266071" lon="19.7102206"><ele>15.0</ele><time>2026-05-03T12:54:03.704Z</time></trkpt><trkpt lat="41.6267069" lon="19.7102007"><ele>15.0</ele><time>2026-05-03T12:54:04.704Z</time></trkpt><trkpt lat="41.626814" lon="19.7101608"><ele>15.0</ele><time>2026-05-03T12:54:05.704Z</time></trkpt><trkpt lat="41.6269303" lon="19.7101166"><ele>15.0</ele><time>2026-05-03T12:54:06.704Z</time></trkpt><trkpt lat="41.627053" lon="19.7100819"><ele>15.0</ele><time>2026-05-03T12:54:07.703Z</time></trkpt><trkpt lat="41.6271819" lon="19.7100544"><ele>15.0</ele><time>2026-05-03T12:54:08.704Z</time></trkpt><trkpt lat="41.627314" lon="19.710043"><ele>15.75</ele><time>2026-05-03T12:54:09.704Z</time></trkpt><trkpt lat="41.6274402" lon="19.7100544"><ele>16.5</ele><time>2026-05-03T12:54:10.704Z</time></trkpt><trkpt lat="41.6275766" lon="19.7100741"><ele>17.25</ele><time>2026-05-03T12:54:11.704Z</time></trkpt><trkpt lat="41.6276962" lon="19.7101014"><ele>18.0</ele><time>2026-05-03T12:54:12.703Z</time></trkpt><trkpt lat="41.6278025" lon="19.7101461"><ele>18.0</ele><time>2026-05-03T12:54:13.703Z</time></trkpt><trkpt lat="41.6279157" lon="19.7102107"><ele>18.0</ele><time>2026-05-03T12:54:14.703Z</time></trkpt><trkpt lat="41.6280133" lon="19.7102846"><ele>18.0</ele><time>2026-05-03T12:54:15.704Z</time></trkpt><trkpt lat="41.6281015" lon="19.710346"><ele>18.0</ele><time>2026-05-03T12:54:16.703Z</time></trkpt><trkpt lat="41.6281834" lon="19.7104286"><ele>18.0</ele><time>2026-05-03T12:54:17.704Z</time></trkpt><trkpt lat="41.6282636" lon="19.7105028"><ele>19.2</ele><time>2026-05-03T12:54:18.703Z</time></trkpt><trkpt lat="41.628342" lon="19.710577"><ele>20.4</ele><time>2026-05-03T12:54:19.703Z</time></trkpt><trkpt lat="41.6284216" lon="19.7106568"><ele>21.599999999999998</ele><time>2026-05-03T12:54:20.703Z</time></trkpt><trkpt lat="41.6284976" lon="19.7107396"><ele>22.8</ele><time>2026-05-03T12:54:21.704Z</time></trkpt><trkpt lat="41.6285847" lon="19.7108214"><ele>24.0</ele><time>2026-05-03T12:54:22.703Z</time></trkpt><trkpt lat="41.6286824" lon="19.7109006"><ele>24.0</ele><time>2026-05-03T12:54:23.703Z</time></trkpt><trkpt lat="41.6287866" lon="19.7109722"><ele>24.0</ele><time>2026-05-03T12:54:24.704Z</time></trkpt><trkpt lat="41.6288933" lon="19.7110341"><ele>24.0</ele><time>2026-05-03T12:54:25.702Z</time></trkpt><trkpt lat="41.6290082" lon="19.7110793"><ele>24.0</ele><time>2026-05-03T12:54:26.703Z</time></trkpt><trkpt lat="41.6291241" lon="19.7111102"><ele>24.2</ele><time>2026-05-03T12:54:27.703Z</time></trkpt><trkpt lat="41.6292307" lon="19.7111433"><ele>24.4</ele><time>2026-05-03T12:54:28.703Z</time></trkpt><trkpt lat="41.6293394" lon="19.7111654"><ele>24.6</ele><time>2026-05-03T12:54:29.703Z</time></trkpt><trkpt lat="41.629444" lon="19.7112001"><ele>24.8</ele><time>2026-05-03T12:54:30.703Z</time></trkpt><trkpt lat="41.6295383" lon="19.7112611"><ele>25.0</ele><time>2026-05-03T12:54:31.704Z</time></trkpt><trkpt lat="41.6296377" lon="19.7113193"><ele>25.0</ele><time>2026-05-03T12:54:32.704Z</time></trkpt><trkpt lat="41.6297383" lon="19.7113603"><ele>25.0</ele><time>2026-05-03T12:54:33.704Z</time></trkpt><trkpt lat="41.6298413" lon="19.7113886"><ele>25.0</ele><time>2026-05-03T12:54:34.704Z</time></trkpt><trkpt lat="41.6299445" lon="19.7113989"><ele>25.0</ele><time>2026-05-03T12:54:35.703Z</time></trkpt><trkpt lat="41.6300478" lon="19.7113904"><ele>25.0</ele><time>2026-05-03T12:54:36.703Z</time></trkpt><trkpt lat="41.6301589" lon="19.7113672"><ele>25.0</ele><time>2026-05-03T12:54:37.704Z</time></trkpt><trkpt lat="41.6302623" lon="19.7113458"><ele>25.0</ele><time>2026-05-03T12:54:38.703Z</time></trkpt><trkpt lat="41.6303624" lon="19.7113337"><ele>25.0</ele><time>2026-05-03T12:54:39.704Z</time></trkpt><trkpt lat="41.6304689" lon="19.7113212"><ele>25.0</ele><time>2026-05-03T12:54:40.704Z</time></trkpt><trkpt lat="41.6305649" lon="19.7113302"><ele>25.0</ele><time>2026-05-03T12:54:41.703Z</time></trkpt><trkpt lat="41.6306627" lon="19.7113496"><ele>24.6</ele><time>2026-05-03T12:54:42.703Z</time></trkpt><trkpt lat="41.630755" lon="19.7113602"><ele>24.2</ele><time>2026-05-03T12:54:43.704Z</time></trkpt><trkpt lat="41.6308588" lon="19.7113648"><ele>23.799999999999997</ele><time>2026-05-03T12:54:44.703Z</time></trkpt><trkpt lat="41.6309688" lon="19.7113584"><ele>23.4</ele><time>2026-05-03T12:54:45.703Z</time></trkpt><trkpt lat="41.6310752" lon="19.7113478"><ele>23.0</ele><time>2026-05-03T12:54:46.703Z</time></trkpt><trkpt lat="41.6311966" lon="19.7113131"><ele>23.0</ele><time>2026-05-03T12:54:47.704Z</time></trkpt><trkpt lat="41.6313119" lon="19.7112834"><ele>23.0</ele><time>2026-05-03T12:54:48.704Z</time></trkpt><trkpt lat="41.6314366" lon="19.7112462"><ele>23.0</ele><time>2026-05-03T12:54:49.704Z</time></trkpt><trkpt lat="41.6315667" lon="19.7112007"><ele>23.0</ele><time>2026-05-03T12:54:50.703Z</time></trkpt><trkpt lat="41.6317175" lon="19.7111507"><ele>23.0</ele><time>2026-05-03T12:54:51.703Z</time></trkpt><trkpt lat="41.6318935" lon="19.7110998"><ele>23.0</ele><time>2026-05-03T12:54:52.703Z</time></trkpt><trkpt lat="41.6320687" lon="19.7110515"><ele>23.0</ele><time>2026-05-03T12:54:53.701Z</time></trkpt><trkpt lat="41.6322386" lon="19.7110049"><ele>23.0</ele><time>2026-05-03T12:54:54.703Z</time></trkpt><trkpt lat="41.632414" lon="19.7109549"><ele>23.0</ele><time>2026-05-03T12:54:55.703Z</time></trkpt><trkpt lat="41.6325697" lon="19.7109186"><ele>23.0</ele><time>2026-05-03T12:54:56.701Z</time></trkpt><trkpt lat="41.6327259" lon="19.7108936"><ele>23.666666666666668</ele><time>2026-05-03T12:54:57.703Z</time></trkpt><trkpt lat="41.632875" lon="19.7108838"><ele>24.333333333333336</ele><time>2026-05-03T12:54:58.701Z</time></trkpt><trkpt lat="41.6330267" lon="19.7108896"><ele>25.0</ele><time>2026-05-03T12:54:59.704Z</time></trkpt><trkpt lat="41.6331823" lon="19.7108983"><ele>25.0</ele><time>2026-05-03T12:55:00.702Z</time></trkpt><trkpt lat="41.6333353" lon="19.7109216"><ele>25.0</ele><time>2026-05-03T12:55:01.704Z</time></trkpt><trkpt lat="41.6334802" lon="19.7109322"><ele>25.0</ele><time>2026-05-03T12:55:02.704Z</time></trkpt><trkpt lat="41.6336106" lon="19.7109602"><ele>25.0</ele><time>2026-05-03T12:55:03.703Z</time></trkpt><trkpt lat="41.6337414" lon="19.7109793"><ele>24.75</ele><time>2026-05-03T12:55:04.702Z</time></trkpt><trkpt lat="41.6338595" lon="19.7110107"><ele>24.5</ele><time>2026-05-03T12:55:05.704Z</time></trkpt><trkpt lat="41.6339852" lon="19.7110629"><ele>24.25</ele><time>2026-05-03T12:55:06.704Z</time></trkpt><trkpt lat="41.6341119" lon="19.7111127"><ele>24.0</ele><time>2026-05-03T12:55:07.704Z</time></trkpt><trkpt lat="41.6342477" lon="19.7111763"><ele>24.25</ele><time>2026-05-03T12:55:08.704Z</time></trkpt><trkpt lat="41.6343783" lon="19.7112429"><ele>24.5</ele><time>2026-05-03T12:55:09.703Z</time></trkpt><trkpt lat="41.6345141" lon="19.7113015"><ele>24.75</ele><time>2026-05-03T12:55:10.703Z</time></trkpt><trkpt lat="41.6346101" lon="19.7114173"><ele>25.0</ele><time>2026-05-03T12:55:11.704Z</time></trkpt><trkpt lat="41.6347341" lon="19.7114913"><ele>25.0</ele><time>2026-05-03T12:55:12.704Z</time></trkpt><trkpt lat="41.634855" lon="19.7115469"><ele>25.0</ele><time>2026-05-03T12:55:13.703Z</time></trkpt><trkpt lat="41.6349653" lon="19.7115982"><ele>25.0</ele><time>2026-05-03T12:55:14.703Z</time></trkpt><trkpt lat="41.6350662" lon="19.7116244"><ele>25.0</ele><time>2026-05-03T12:55:15.703Z</time></trkpt><trkpt lat="41.6351944" lon="19.7116353"><ele>25.0</ele><time>2026-05-03T12:55:16.703Z</time></trkpt><trkpt lat="41.6353277" lon="19.7116416"><ele>25.0</ele><time>2026-05-03T12:55:17.702Z</time></trkpt><trkpt lat="41.6354549" lon="19.7116094"><ele>25.0</ele><time>2026-05-03T12:55:18.701Z</time></trkpt><trkpt lat="41.6355699" lon="19.7116031"><ele>25.0</ele><time>2026-05-03T12:55:19.703Z</time></trkpt><trkpt lat="41.6356877" lon="19.7115925"><ele>25.000000000000004</ele><time>2026-05-03T12:55:20.702Z</time></trkpt><trkpt lat="41.6357927" lon="19.7115858"><ele>25.0</ele><time>2026-05-03T12:55:21.702Z</time></trkpt><trkpt lat="41.6358746" lon="19.7115743"><ele>25.0</ele><time>2026-05-03T12:55:22.703Z</time></trkpt><trkpt lat="41.6359636" lon="19.7115773"><ele>25.0</ele><time>2026-05-03T12:55:23.702Z</time></trkpt><trkpt lat="41.6360345" lon="19.7115739"><ele>25.000000000000004</ele><time>2026-05-03T12:55:24.703Z</time></trkpt><trkpt lat="41.6361258" lon="19.711557"><ele>25.0</ele><time>2026-05-03T12:55:26.701Z</time></trkpt><trkpt lat="41.6362021" lon="19.7115201"><ele>25.333333333333336</ele><time>2026-05-03T12:55:31.702Z</time></trkpt><trkpt lat="41.6362363" lon="19.7113935"><ele>25.666666666666668</ele><time>2026-05-03T12:55:33.704Z</time></trkpt><trkpt lat="41.6362338" lon="19.7113044"><ele>26.0</ele><time>2026-05-03T12:55:34.703Z</time></trkpt><trkpt lat="41.6362285" lon="19.7112006"><ele>26.333333333333336</ele><time>2026-05-03T12:55:35.704Z</time></trkpt><trkpt lat="41.6362253" lon="19.7110908"><ele>26.666666666666668</ele><time>2026-05-03T12:55:36.701Z</time></trkpt><trkpt lat="41.6362195" lon="19.7109835"><ele>27.0</ele><time>2026-05-03T12:55:37.704Z</time></trkpt><trkpt lat="41.6362175" lon="19.7108205"><ele>26.0</ele><time>2026-05-03T12:55:38.703Z</time></trkpt><trkpt lat="41.6362128" lon="19.7106857"><ele>25.000000000000004</ele><time>2026-05-03T12:55:39.704Z</time></trkpt><trkpt lat="41.6362057" lon="19.7105545"><ele>24.0</ele><time>2026-05-03T12:55:40.703Z</time></trkpt><trkpt lat="41.6362081" lon="19.7104134"><ele>23.0</ele><time>2026-05-03T12:55:41.702Z</time></trkpt><trkpt lat="41.6362049" lon="19.7102679"><ele>22.0</ele><time>2026-05-03T12:55:42.704Z</time></trkpt><trkpt lat="41.6361995" lon="19.7101105"><ele>21.25</ele><time>2026-05-03T12:55:43.704Z</time></trkpt><trkpt lat="41.6361942" lon="19.709957"><ele>20.5</ele><time>2026-05-03T12:55:44.704Z</time></trkpt><trkpt lat="41.6361891" lon="19.7098027"><ele>19.75</ele><time>2026-05-03T12:55:45.703Z</time></trkpt><trkpt lat="41.6361884" lon="19.7096511"><ele>19.0</ele><time>2026-05-03T12:55:46.704Z</time></trkpt><trkpt lat="41.6361912" lon="19.7095043"><ele>19.25</ele><time>2026-05-03T12:55:47.703Z</time></trkpt><trkpt lat="41.6362031" lon="19.7093566"><ele>19.5</ele><time>2026-05-03T12:55:48.704Z</time></trkpt><trkpt lat="41.6362282" lon="19.7091965"><ele>19.75</ele><time>2026-05-03T12:55:49.704Z</time></trkpt><trkpt lat="41.6362606" lon="19.7090351"><ele>20.0</ele><time>2026-05-03T12:55:50.704Z</time></trkpt><trkpt lat="41.6362974" lon="19.708872"><ele>20.0</ele><time>2026-05-03T12:55:51.703Z</time></trkpt><trkpt lat="41.6363463" lon="19.7087112"><ele>20.0</ele><time>2026-05-03T12:55:52.699Z</time></trkpt><trkpt lat="41.6363995" lon="19.7085411"><ele>20.0</ele><time>2026-05-03T12:55:53.704Z</time></trkpt><trkpt lat="41.6364617" lon="19.7083673"><ele>20.0</ele><time>2026-05-03T12:55:54.704Z</time></trkpt><trkpt lat="41.6365191" lon="19.7082199"><ele>20.0</ele><time>2026-05-03T12:55:55.703Z</time></trkpt><trkpt lat="41.6365821" lon="19.7080794"><ele>20.0</ele><time>2026-05-03T12:55:56.704Z</time></trkpt><trkpt lat="41.6366439" lon="19.7079479"><ele>20.0</ele><time>2026-05-03T12:55:57.703Z</time></trkpt><trkpt lat="41.6366977" lon="19.7078204"><ele>20.0</ele><time>2026-05-03T12:55:58.703Z</time></trkpt><trkpt lat="41.6367447" lon="19.7077106"><ele>20.0</ele><time>2026-05-03T12:55:59.701Z</time></trkpt><trkpt lat="41.6367911" lon="19.7076115"><ele>20.0</ele><time>2026-05-03T12:56:00.703Z</time></trkpt><trkpt lat="41.636833" lon="19.7075122"><ele>20.0</ele><time>2026-05-03T12:56:01.704Z</time></trkpt><trkpt lat="41.6368858" lon="19.7074029"><ele>20.0</ele><time>2026-05-03T12:56:02.704Z</time></trkpt><trkpt lat="41.636922" lon="19.7073203"><ele>20.0</ele><time>2026-05-03T12:56:03.704Z</time></trkpt><trkpt lat="41.6369626" lon="19.7072439"><ele>20.0</ele><time>2026-05-03T12:56:04.704Z</time></trkpt><trkpt lat="41.6370035" lon="19.7071712"><ele>20.0</ele><time>2026-05-03T12:56:05.703Z</time></trkpt><trkpt lat="41.6370439" lon="19.7070951"><ele>19.6</ele><time>2026-05-03T12:56:06.704Z</time></trkpt><trkpt lat="41.637082" lon="19.7070227"><ele>19.2</ele><time>2026-05-03T12:56:07.703Z</time></trkpt><trkpt lat="41.6371216" lon="19.7069358"><ele>18.8</ele><time>2026-05-03T12:56:08.703Z</time></trkpt><trkpt lat="41.6371668" lon="19.7068054"><ele>18.4</ele><time>2026-05-03T12:56:10.703Z</time></trkpt><trkpt lat="41.6372154" lon="19.7066494"><ele>18.0</ele><time>2026-05-03T12:56:12.704Z</time></trkpt><trkpt lat="41.637265" lon="19.7065596"><ele>18.0</ele><time>2026-05-03T12:56:13.703Z</time></trkpt><trkpt lat="41.6373261" lon="19.7064478"><ele>18.0</ele><time>2026-05-03T12:56:14.704Z</time></trkpt><trkpt lat="41.6373879" lon="19.7063348"><ele>18.0</ele><time>2026-05-03T12:56:15.704Z</time></trkpt><trkpt lat="41.6374487" lon="19.7062053"><ele>18.0</ele><time>2026-05-03T12:56:16.704Z</time></trkpt><trkpt lat="41.6375168" lon="19.7060583"><ele>18.0</ele><time>2026-05-03T12:56:17.703Z</time></trkpt><trkpt lat="41.6375849" lon="19.7059167"><ele>18.0</ele><time>2026-05-03T12:56:18.703Z</time></trkpt><trkpt lat="41.637654" lon="19.705771"><ele>18.0</ele><time>2026-05-03T12:56:19.702Z</time></trkpt><trkpt lat="41.6377265" lon="19.7056227"><ele>18.0</ele><time>2026-05-03T12:56:20.704Z</time></trkpt><trkpt lat="41.6377976" lon="19.7054696"><ele>18.0</ele><time>2026-05-03T12:56:21.703Z</time></trkpt><trkpt lat="41.6378671" lon="19.7053187"><ele>18.0</ele><time>2026-05-03T12:56:22.703Z</time></trkpt><trkpt lat="41.6379404" lon="19.7051604"><ele>18.0</ele><time>2026-05-03T12:56:23.704Z</time></trkpt><trkpt lat="41.6380166" lon="19.7050044"><ele>18.0</ele><time>2026-05-03T12:56:24.703Z</time></trkpt><trkpt lat="41.6380897" lon="19.7048526"><ele>17.5</ele><time>2026-05-03T12:56:25.704Z</time></trkpt><trkpt lat="41.6381637" lon="19.704704"><ele>17.0</ele><time>2026-05-03T12:56:26.703Z</time></trkpt><trkpt lat="41.6382469" lon="19.7045631"><ele>16.5</ele><time>2026-05-03T12:56:27.704Z</time></trkpt><trkpt lat="41.6383427" lon="19.7044356"><ele>16.0</ele><time>2026-05-03T12:56:28.704Z</time></trkpt><trkpt lat="41.6384676" lon="19.7043327"><ele>15.5</ele><time>2026-05-03T12:56:29.703Z</time></trkpt><trkpt lat="41.6385888" lon="19.7042367"><ele>15.0</ele><time>2026-05-03T12:56:30.703Z</time></trkpt><trkpt lat="41.6387115" lon="19.7041437"><ele>14.5</ele><time>2026-05-03T12:56:31.703Z</time></trkpt><trkpt lat="41.6388288" lon="19.7040515"><ele>14.0</ele><time>2026-05-03T12:56:32.703Z</time></trkpt><trkpt lat="41.6389387" lon="19.7039557"><ele>13.25</ele><time>2026-05-03T12:56:33.704Z</time></trkpt><trkpt lat="41.6390517" lon="19.7038735"><ele>12.5</ele><time>2026-05-03T12:56:34.704Z</time></trkpt><trkpt lat="41.6391548" lon="19.7037951"><ele>11.75</ele><time>2026-05-03T12:56:35.704Z</time></trkpt><trkpt lat="41.6392459" lon="19.7037066"><ele>11.0</ele><time>2026-05-03T12:56:36.703Z</time></trkpt><trkpt lat="41.6393319" lon="19.7036208"><ele>11.0</ele><time>2026-05-03T12:56:37.701Z</time></trkpt><trkpt lat="41.6394083" lon="19.7035437"><ele>11.0</ele><time>2026-05-03T12:56:38.704Z</time></trkpt><trkpt lat="41.6394699" lon="19.7034778"><ele>11.0</ele><time>2026-05-03T12:56:39.703Z</time></trkpt><trkpt lat="41.6395258" lon="19.7034065"><ele>11.0</ele><time>2026-05-03T12:56:40.704Z</time></trkpt><trkpt lat="41.6395786" lon="19.7033358"><ele>11.0</ele><time>2026-05-03T12:56:41.704Z</time></trkpt><trkpt lat="41.6396182" lon="19.7032511"><ele>11.0</ele><time>2026-05-03T12:56:42.703Z</time></trkpt><trkpt lat="41.6396485" lon="19.7031505"><ele>11.0</ele><time>2026-05-03T12:56:43.703Z</time></trkpt><trkpt lat="41.6396636" lon="19.7030187"><ele>11.0</ele><time>2026-05-03T12:56:44.703Z</time></trkpt><trkpt lat="41.6396729" lon="19.7028772"><ele>11.0</ele><time>2026-05-03T12:56:45.7Z</time></trkpt><trkpt lat="41.639683" lon="19.7027133"><ele>11.0</ele><time>2026-05-03T12:56:46.703Z</time></trkpt><trkpt lat="41.6396975" lon="19.7025412"><ele>10.5</ele><time>2026-05-03T12:56:47.703Z</time></trkpt><trkpt lat="41.6397074" lon="19.7023654"><ele>10.0</ele><time>2026-05-03T12:56:48.704Z</time></trkpt><trkpt lat="41.6397162" lon="19.7021721"><ele>9.5</ele><time>2026-05-03T12:56:49.703Z</time></trkpt><trkpt lat="41.639724" lon="19.7019933"><ele>9.0</ele><time>2026-05-03T12:56:50.704Z</time></trkpt><trkpt lat="41.6397344" lon="19.7018235"><ele>9.0</ele><time>2026-05-03T12:56:51.703Z</time></trkpt><trkpt lat="41.6397452" lon="19.7016452"><ele>9.0</ele><time>2026-05-03T12:56:52.703Z</time></trkpt><trkpt lat="41.6397651" lon="19.7014794"><ele>9.0</ele><time>2026-05-03T12:56:53.704Z</time></trkpt><trkpt lat="41.6397714" lon="19.7013315"><ele>9.0</ele><time>2026-05-03T12:56:54.703Z</time></trkpt><trkpt lat="41.6397781" lon="19.7011922"><ele>8.8</ele><time>2026-05-03T12:56:55.702Z</time></trkpt><trkpt lat="41.6397838" lon="19.7010614"><ele>8.600000000000001</ele><time>2026-05-03T12:56:56.701Z</time></trkpt><trkpt lat="41.6397868" lon="19.7009386"><ele>8.4</ele><time>2026-05-03T12:56:57.703Z</time></trkpt><trkpt lat="41.6397935" lon="19.7008164"><ele>8.200000000000001</ele><time>2026-05-03T12:56:58.704Z</time></trkpt><trkpt lat="41.6397986" lon="19.7007002"><ele>8.0</ele><time>2026-05-03T12:56:59.703Z</time></trkpt><trkpt lat="41.639807" lon="19.700569"><ele>8.0</ele><time>2026-05-03T12:57:00.704Z</time></trkpt><trkpt lat="41.6398135" lon="19.7004245"><ele>8.0</ele><time>2026-05-03T12:57:01.703Z</time></trkpt><trkpt lat="41.6398202" lon="19.700264"><ele>8.0</ele><time>2026-05-03T12:57:02.704Z</time></trkpt><trkpt lat="41.6398325" lon="19.7000919"><ele>8.0</ele><time>2026-05-03T12:57:03.704Z</time></trkpt><trkpt lat="41.6398422" lon="19.6999263"><ele>7.25</ele><time>2026-05-03T12:57:04.703Z</time></trkpt><trkpt lat="41.6398535" lon="19.6997501"><ele>6.5</ele><time>2026-05-03T12:57:05.704Z</time></trkpt><trkpt lat="41.6398639" lon="19.6995652"><ele>5.75</ele><time>2026-05-03T12:57:06.703Z</time></trkpt><trkpt lat="41.6398755" lon="19.6993651"><ele>5.0</ele><time>2026-05-03T12:57:07.704Z</time></trkpt><trkpt lat="41.6398852" lon="19.6991581"><ele>4.333333333333334</ele><time>2026-05-03T12:57:08.703Z</time></trkpt><trkpt lat="41.6398959" lon="19.6989434"><ele>3.666666666666667</ele><time>2026-05-03T12:57:09.704Z</time></trkpt><trkpt lat="41.63991" lon="19.6987282"><ele>3.0</ele><time>2026-05-03T12:57:10.704Z</time></trkpt><trkpt lat="41.6399222" lon="19.6985195"><ele>3.0</ele><time>2026-05-03T12:57:11.704Z</time></trkpt><trkpt lat="41.639934" lon="19.6982997"><ele>3.0</ele><time>2026-05-03T12:57:12.703Z</time></trkpt><trkpt lat="41.6399517" lon="19.6980746"><ele>3.0</ele><time>2026-05-03T12:57:13.703Z</time></trkpt><trkpt lat="41.6399645" lon="19.6978549"><ele>2.3333333333333335</ele><time>2026-05-03T12:57:14.704Z</time></trkpt><trkpt lat="41.6399811" lon="19.6976284"><ele>1.6666666666666665</ele><time>2026-05-03T12:57:15.703Z</time></trkpt><trkpt lat="41.6399908" lon="19.697405"><ele>1.0</ele><time>2026-05-03T12:57:16.703Z</time></trkpt><trkpt lat="41.640003" lon="19.6971821"><ele>1.0</ele><time>2026-05-03T12:57:17.704Z</time></trkpt><trkpt lat="41.6400147" lon="19.6969654"><ele>1.0</ele><time>2026-05-03T12:57:18.704Z</time></trkpt><trkpt lat="41.6400309" lon="19.6967442"><ele>1.0</ele><time>2026-05-03T12:57:19.703Z</time></trkpt><trkpt lat="41.6400444" lon="19.6965318"><ele>1.3333333333333333</ele><time>2026-05-03T12:57:20.704Z</time></trkpt><trkpt lat="41.6400599" lon="19.6963067"><ele>1.6666666666666665</ele><time>2026-05-03T12:57:21.703Z</time></trkpt><trkpt lat="41.640072" lon="19.6960987"><ele>2.0</ele><time>2026-05-03T12:57:22.702Z</time></trkpt><trkpt lat="41.6400865" lon="19.695892"><ele>2.333333333333333</ele><time>2026-05-03T12:57:23.704Z</time></trkpt><trkpt lat="41.6401045" lon="19.6956916"><ele>2.6666666666666665</ele><time>2026-05-03T12:57:24.703Z</time></trkpt><trkpt lat="41.6401129" lon="19.6954873"><ele>3.0</ele><time>2026-05-03T12:57:25.704Z</time></trkpt><trkpt lat="41.640123" lon="19.6952866"><ele>3.666666666666667</ele><time>2026-05-03T12:57:26.703Z</time></trkpt><trkpt lat="41.6401345" lon="19.695083"><ele>4.333333333333334</ele><time>2026-05-03T12:57:27.704Z</time></trkpt><trkpt lat="41.640146" lon="19.6948749"><ele>5.0</ele><time>2026-05-03T12:57:28.703Z</time></trkpt><trkpt lat="41.6401565" lon="19.6946601"><ele>5.0</ele><time>2026-05-03T12:57:29.703Z</time></trkpt><trkpt lat="41.6401691" lon="19.6944437"><ele>5.0</ele><time>2026-05-03T12:57:30.704Z</time></trkpt><trkpt lat="41.6401829" lon="19.6942207"><ele>5.0</ele><time>2026-05-03T12:57:31.704Z</time></trkpt><trkpt lat="41.6401945" lon="19.6939955"><ele>4.333333333333334</ele><time>2026-05-03T12:57:32.703Z</time></trkpt><trkpt lat="41.6402064" lon="19.693767"><ele>3.666666666666667</ele><time>2026-05-03T12:57:33.704Z</time></trkpt><trkpt lat="41.6402187" lon="19.6935481"><ele>3.0</ele><time>2026-05-03T12:57:34.704Z</time></trkpt><trkpt lat="41.6402308" lon="19.6933308"><ele>2.3333333333333335</ele><time>2026-05-03T12:57:35.703Z</time></trkpt><trkpt lat="41.6402459" lon="19.6931072"><ele>1.6666666666666665</ele><time>2026-05-03T12:57:36.703Z</time></trkpt><trkpt lat="41.6402558" lon="19.6928851"><ele>1.0</ele><time>2026-05-03T12:57:37.702Z</time></trkpt><trkpt lat="41.6402661" lon="19.6926633"><ele>1.0</ele><time>2026-05-03T12:57:38.704Z</time></trkpt><trkpt lat="41.6402823" lon="19.6924345"><ele>1.0</ele><time>2026-05-03T12:57:39.703Z</time></trkpt><trkpt lat="41.640297" lon="19.6922091"><ele>1.0</ele><time>2026-05-03T12:57:40.704Z</time></trkpt><trkpt lat="41.6403138" lon="19.6919664"><ele>1.3333333333333333</ele><time>2026-05-03T12:57:41.704Z</time></trkpt><trkpt lat="41.6403264" lon="19.6917343"><ele>1.6666666666666665</ele><time>2026-05-03T12:57:42.703Z</time></trkpt><trkpt lat="41.6403412" lon="19.6915046"><ele>2.0</ele><time>2026-05-03T12:57:43.704Z</time></trkpt><trkpt lat="41.6403547" lon="19.6912726"><ele>2.333333333333333</ele><time>2026-05-03T12:57:44.704Z</time></trkpt><trkpt lat="41.6403696" lon="19.6910404"><ele>2.6666666666666665</ele><time>2026-05-03T12:57:45.703Z</time></trkpt><trkpt lat="41.6403781" lon="19.6908126"><ele>3.0</ele><time>2026-05-03T12:57:46.704Z</time></trkpt><trkpt lat="41.6403902" lon="19.6905895"><ele>3.0</ele><time>2026-05-03T12:57:47.704Z</time></trkpt><trkpt lat="41.6404035" lon="19.6903675"><ele>3.0</ele><time>2026-05-03T12:57:48.702Z</time></trkpt><trkpt lat="41.6404147" lon="19.6901449"><ele>3.0</ele><time>2026-05-03T12:57:49.704Z</time></trkpt><trkpt lat="41.6404276" lon="19.6899273"><ele>2.0</ele><time>2026-05-03T12:57:50.703Z</time></trkpt><trkpt lat="41.6404367" lon="19.6897124"><ele>1.0</ele><time>2026-05-03T12:57:51.704Z</time></trkpt><trkpt lat="41.6404548" lon="19.6894937"><ele>0.0</ele><time>2026-05-03T12:57:52.701Z</time></trkpt><trkpt lat="41.6404673" lon="19.6892782"><ele>-0.6666666666666666</ele><time>2026-05-03T12:57:53.703Z</time></trkpt><trkpt lat="41.6404831" lon="19.6890671"><ele>-1.3333333333333333</ele><time>2026-05-03T12:57:54.704Z</time></trkpt><trkpt lat="41.6404975" lon="19.6888584"><ele>-2.0</ele><time>2026-05-03T12:57:55.703Z</time></trkpt><trkpt lat="41.6405132" lon="19.6886441"><ele>-2.0</ele><time>2026-05-03T12:57:56.704Z</time></trkpt><trkpt lat="41.640526" lon="19.6884378"><ele>-2.0</ele><time>2026-05-03T12:57:57.703Z</time></trkpt><trkpt lat="41.6405387" lon="19.6882257"><ele>-2.0</ele><time>2026-05-03T12:57:58.703Z</time></trkpt><trkpt lat="41.640552" lon="19.6880156"><ele>-2.0</ele><time>2026-05-03T12:57:59.703Z</time></trkpt><trkpt lat="41.6405671" lon="19.6877978"><ele>-2.0</ele><time>2026-05-03T12:58:00.703Z</time></trkpt><trkpt lat="41.6405821" lon="19.6875937"><ele>-2.0</ele><time>2026-05-03T12:58:01.704Z</time></trkpt><trkpt lat="41.6405933" lon="19.6874005"><ele>-1.75</ele><time>2026-05-03T12:58:02.702Z</time></trkpt><trkpt lat="41.640605" lon="19.6872057"><ele>-1.5</ele><time>2026-05-03T12:58:03.704Z</time></trkpt><trkpt lat="41.6406214" lon="19.6870132"><ele>-1.25</ele><time>2026-05-03T12:58:04.704Z</time></trkpt><trkpt lat="41.6406328" lon="19.686818"><ele>-1.0</ele><time>2026-05-03T12:58:05.704Z</time></trkpt><trkpt lat="41.6406426" lon="19.6866236"><ele>-0.3333333333333333</ele><time>2026-05-03T12:58:06.704Z</time></trkpt><trkpt lat="41.6406487" lon="19.6864285"><ele>0.3333333333333333</ele><time>2026-05-03T12:58:07.704Z</time></trkpt><trkpt lat="41.6406578" lon="19.6862245"><ele>1.0</ele><time>2026-05-03T12:58:08.703Z</time></trkpt><trkpt lat="41.6406684" lon="19.6860222"><ele>1.0</ele><time>2026-05-03T12:58:09.703Z</time></trkpt><trkpt lat="41.6406844" lon="19.6858174"><ele>1.0</ele><time>2026-05-03T12:58:10.703Z</time></trkpt><trkpt lat="41.6406953" lon="19.6856078"><ele>1.0</ele><time>2026-05-03T12:58:11.703Z</time></trkpt><trkpt lat="41.640709" lon="19.685395"><ele>1.3333333333333333</ele><time>2026-05-03T12:58:12.703Z</time></trkpt><trkpt lat="41.6407225" lon="19.6851836"><ele>1.6666666666666665</ele><time>2026-05-03T12:58:13.703Z</time></trkpt><trkpt lat="41.6407335" lon="19.6849778"><ele>2.0</ele><time>2026-05-03T12:58:14.704Z</time></trkpt><trkpt lat="41.640747" lon="19.6847642"><ele>2.0</ele><time>2026-05-03T12:58:15.704Z</time></trkpt><trkpt lat="41.6407605" lon="19.6845484"><ele>2.0</ele><time>2026-05-03T12:58:16.703Z</time></trkpt><trkpt lat="41.6407764" lon="19.6843334"><ele>2.0</ele><time>2026-05-03T12:58:17.703Z</time></trkpt><trkpt lat="41.64079" lon="19.6841227"><ele>1.0</ele><time>2026-05-03T12:58:18.704Z</time></trkpt><trkpt lat="41.6408042" lon="19.6839126"><ele>0.0</ele><time>2026-05-03T12:58:19.704Z</time></trkpt><trkpt lat="41.6408166" lon="19.6837071"><ele>-1.0</ele><time>2026-05-03T12:58:20.704Z</time></trkpt><trkpt lat="41.6408334" lon="19.6835017"><ele>-1.25</ele><time>2026-05-03T12:58:21.703Z</time></trkpt><trkpt lat="41.6408374" lon="19.6833151"><ele>-1.5</ele><time>2026-05-03T12:58:22.704Z</time></trkpt><trkpt lat="41.6408515" lon="19.6831351"><ele>-1.75</ele><time>2026-05-03T12:58:23.702Z</time></trkpt><trkpt lat="41.6408641" lon="19.6829666"><ele>-2.0</ele><time>2026-05-03T12:58:24.703Z</time></trkpt><trkpt lat="41.6408731" lon="19.6828261"><ele>-1.8333333333333333</ele><time>2026-05-03T12:58:25.703Z</time></trkpt><trkpt lat="41.6408833" lon="19.682712"><ele>-1.6666666666666665</ele><time>2026-05-03T12:58:26.703Z</time></trkpt><trkpt lat="41.6409091" lon="19.6825669"><ele>-1.5</ele><time>2026-05-03T12:58:28.703Z</time></trkpt><trkpt lat="41.6409687" lon="19.6825183"><ele>-1.3333333333333333</ele><time>2026-05-03T12:58:29.703Z</time></trkpt><trkpt lat="41.6410769" lon="19.682522"><ele>-1.1666666666666665</ele><time>2026-05-03T12:58:31.703Z</time></trkpt><trkpt lat="41.6411471" lon="19.682537"><ele>-1.0</ele><time>2026-05-03T12:58:32.703Z</time></trkpt><trkpt lat="41.641244" lon="19.6825563"><ele>-1.0</ele><time>2026-05-03T12:58:33.704Z</time></trkpt><trkpt lat="41.6413667" lon="19.6825827"><ele>-1.0</ele><time>2026-05-03T12:58:34.702Z</time></trkpt><trkpt lat="41.6414907" lon="19.6826014"><ele>-1.0</ele><time>2026-05-03T12:58:35.703Z</time></trkpt><trkpt lat="41.6416116" lon="19.6826168"><ele>-1.0</ele><time>2026-05-03T12:58:36.703Z</time></trkpt><trkpt lat="41.6417487" lon="19.6826424"><ele>-1.0</ele><time>2026-05-03T12:58:37.704Z</time></trkpt><trkpt lat="41.6418968" lon="19.6826696"><ele>-1.0</ele><time>2026-05-03T12:58:38.702Z</time></trkpt><trkpt lat="41.6420398" lon="19.6826867"><ele>-1.0</ele><time>2026-05-03T12:58:39.704Z</time></trkpt><trkpt lat="41.6421856" lon="19.6827002"><ele>-1.0</ele><time>2026-05-03T12:58:40.703Z</time></trkpt><trkpt lat="41.6423289" lon="19.6827138"><ele>-0.75</ele><time>2026-05-03T12:58:41.703Z</time></trkpt><trkpt lat="41.6424763" lon="19.6827318"><ele>-0.5</ele><time>2026-05-03T12:58:42.704Z</time></trkpt><trkpt lat="41.6426234" lon="19.6827545"><ele>-0.25</ele><time>2026-05-03T12:58:43.702Z</time></trkpt><trkpt lat="41.6427654" lon="19.6827725"><ele>0.0</ele><time>2026-05-03T12:58:44.704Z</time></trkpt><trkpt lat="41.6429056" lon="19.6827904"><ele>0.25</ele><time>2026-05-03T12:58:45.703Z</time></trkpt><trkpt lat="41.6430448" lon="19.6828018"><ele>0.5</ele><time>2026-05-03T12:58:46.703Z</time></trkpt><trkpt lat="41.6431862" lon="19.6828207"><ele>0.75</ele><time>2026-05-03T12:58:47.704Z</time></trkpt><trkpt lat="41.6433253" lon="19.6828392"><ele>1.0</ele><time>2026-05-03T12:58:48.704Z</time></trkpt><trkpt lat="41.6434622" lon="19.682861"><ele>1.0</ele><time>2026-05-03T12:58:49.704Z</time></trkpt><trkpt lat="41.6435866" lon="19.6828725"><ele>1.0</ele><time>2026-05-03T12:58:50.702Z</time></trkpt><trkpt lat="41.6437072" lon="19.6829019"><ele>1.0</ele><time>2026-05-03T12:58:51.704Z</time></trkpt><trkpt lat="41.6438101" lon="19.6829178"><ele>1.0</ele><time>2026-05-03T12:58:52.704Z</time></trkpt><trkpt lat="41.6438944" lon="19.6829207"><ele>1.0</ele><time>2026-05-03T12:58:53.702Z</time></trkpt><trkpt lat="41.6439674" lon="19.6829191"><ele>1.5</ele><time>2026-05-03T12:58:54.704Z</time></trkpt><trkpt lat="41.6440816" lon="19.6829533"><ele>2.0</ele><time>2026-05-03T12:58:56.704Z</time></trkpt><trkpt lat="41.6441951" lon="19.6829729"><ele>2.5</ele><time>2026-05-03T12:58:58.702Z</time></trkpt><trkpt lat="41.6443048" lon="19.68298"><ele>3.0</ele><time>2026-05-03T12:59:00.704Z</time></trkpt><trkpt lat="41.6444289" lon="19.6830047"><ele>2.8</ele><time>2026-05-03T12:59:02.703Z</time></trkpt><trkpt lat="41.6444937" lon="19.6830136"><ele>2.5999999999999996</ele><time>2026-05-03T12:59:03.703Z</time></trkpt><trkpt lat="41.6446131" lon="19.6830354"><ele>2.4000000000000004</ele><time>2026-05-03T12:59:05.703Z</time></trkpt><trkpt lat="41.6447255" lon="19.6830621"><ele>2.2</ele><time>2026-05-03T12:59:07.703Z</time></trkpt><trkpt lat="41.644823" lon="19.6830656"><ele>2.0</ele><time>2026-05-03T12:59:09.703Z</time></trkpt><trkpt lat="41.6449367" lon="19.6830824"><ele>1.9999999999999998</ele><time>2026-05-03T12:59:11.703Z</time></trkpt><trkpt lat="41.6450537" lon="19.6830935"><ele>2.0</ele><time>2026-05-03T12:59:13.704Z</time></trkpt><trkpt lat="41.6451237" lon="19.6830985"><ele>2.0</ele><time>2026-05-03T12:59:14.703Z</time></trkpt><trkpt lat="41.6451881" lon="19.6831054"><ele>2.0</ele><time>2026-05-03T12:59:15.703Z</time></trkpt><trkpt lat="41.6452562" lon="19.6831101"><ele>1.9999999999999998</ele><time>2026-05-03T12:59:16.703Z</time></trkpt><trkpt lat="41.6453268" lon="19.6831176"><ele>2.0</ele><time>2026-05-03T12:59:17.704Z</time></trkpt><trkpt lat="41.6453917" lon="19.6831234"><ele>1.25</ele><time>2026-05-03T12:59:18.704Z</time></trkpt><trkpt lat="41.6455069" lon="19.683142"><ele>0.5</ele><time>2026-05-03T12:59:20.704Z</time></trkpt><trkpt lat="41.6456287" lon="19.6831506"><ele>-0.25</ele><time>2026-05-03T12:59:22.703Z</time></trkpt><trkpt lat="41.6457421" lon="19.6831701"><ele>-1.0</ele><time>2026-05-03T12:59:24.701Z</time></trkpt><trkpt lat="41.6458456" lon="19.6831896"><ele>-0.9999999999999999</ele><time>2026-05-03T12:59:26.702Z</time></trkpt><trkpt lat="41.6459437" lon="19.6832025"><ele>-1.0</ele><time>2026-05-03T12:59:28.703Z</time></trkpt><trkpt lat="41.6460259" lon="19.6832159"><ele>-1.0</ele><time>2026-05-03T12:59:30.704Z</time></trkpt><trkpt lat="41.6461007" lon="19.6832256"><ele>-1.0</ele><time>2026-05-03T12:59:32.702Z</time></trkpt><trkpt lat="41.6461699" lon="19.6832423"><ele>-0.9999999999999999</ele><time>2026-05-03T12:59:34.703Z</time></trkpt><trkpt lat="41.6462572" lon="19.6832573"><ele>-1.0</ele><time>2026-05-03T12:59:37.702Z</time></trkpt><trkpt lat="41.6463255" lon="19.683333"><ele>-0.6666666666666666</ele><time>2026-05-03T12:59:40.704Z</time></trkpt><trkpt lat="41.6463291" lon="19.6834321"><ele>-0.3333333333333333</ele><time>2026-05-03T12:59:42.702Z</time></trkpt><trkpt lat="41.6463118" lon="19.6835364"><ele>0.0</ele><time>2026-05-03T12:59:44.702Z</time></trkpt><trkpt lat="41.646347" lon="19.6834239"><ele>0.3333333333333333</ele><time>2026-05-03T13:00:34.703Z</time></trkpt><trkpt lat="41.6463457" lon="19.6833283"><ele>0.6666666666666666</ele><time>2026-05-03T13:00:36.7Z</time></trkpt><trkpt lat="41.6463006" lon="19.6832392"><ele>1.0</ele><time>2026-05-03T13:00:38.701Z</time></trkpt><trkpt lat="41.6462285" lon="19.6832069"><ele>1.0</ele><time>2026-05-03T13:00:40.7Z</time></trkpt><trkpt lat="41.6461406" lon="19.6831982"><ele>1.0</ele><time>2026-05-03T13:00:42.701Z</time></trkpt><trkpt lat="41.646045" lon="19.6831802"><ele>1.0</ele><time>2026-05-03T13:00:44.703Z</time></trkpt><trkpt lat="41.6459404" lon="19.6831618"><ele>1.0</ele><time>2026-05-03T13:00:46.703Z</time></trkpt><trkpt lat="41.6458222" lon="19.6831431"><ele>1.0</ele><time>2026-05-03T13:00:48.7Z</time></trkpt><trkpt lat="41.645758" lon="19.6831303"><ele>0.6666666666666666</ele><time>2026-05-03T13:00:49.7Z</time></trkpt><trkpt lat="41.6456902" lon="19.6831198"><ele>0.3333333333333333</ele><time>2026-05-03T13:00:50.704Z</time></trkpt><trkpt lat="41.6456251" lon="19.6831097"><ele>0.0</ele><time>2026-05-03T13:00:51.702Z</time></trkpt><trkpt lat="41.6455593" lon="19.683103"><ele>-0.3333333333333333</ele><time>2026-05-03T13:00:52.703Z</time></trkpt><trkpt lat="41.6454944" lon="19.6830986"><ele>-0.6666666666666666</ele><time>2026-05-03T13:00:53.704Z</time></trkpt><trkpt lat="41.6454282" lon="19.6830982"><ele>-1.0</ele><time>2026-05-03T13:00:54.703Z</time></trkpt><trkpt lat="41.6453003" lon="19.6830802"><ele>-0.49999999999999994</ele><time>2026-05-03T13:00:56.701Z</time></trkpt><trkpt lat="41.6452272" lon="19.6830726"><ele>0.0</ele><time>2026-05-03T13:00:57.703Z</time></trkpt><trkpt lat="41.6451507" lon="19.6830619"><ele>0.5</ele><time>2026-05-03T13:00:58.702Z</time></trkpt><trkpt lat="41.6450722" lon="19.683052"><ele>1.0</ele><time>2026-05-03T13:00:59.704Z</time></trkpt><trkpt lat="41.6449953" lon="19.6830389"><ele>1.4999999999999998</ele><time>2026-05-03T13:01:00.703Z</time></trkpt><trkpt lat="41.6449137" lon="19.6830301"><ele>2.0</ele><time>2026-05-03T13:01:01.703Z</time></trkpt><trkpt lat="41.6448392" lon="19.6830201"><ele>1.9999999999999998</ele><time>2026-05-03T13:01:02.703Z</time></trkpt><trkpt lat="41.6447631" lon="19.6830117"><ele>2.0</ele><time>2026-05-03T13:01:03.703Z</time></trkpt><trkpt lat="41.6446908" lon="19.6830068"><ele>2.0</ele><time>2026-05-03T13:01:04.703Z</time></trkpt><trkpt lat="41.6446122" lon="19.6829917"><ele>2.0</ele><time>2026-05-03T13:01:05.703Z</time></trkpt><trkpt lat="41.6445259" lon="19.6829776"><ele>1.9999999999999998</ele><time>2026-05-03T13:01:06.704Z</time></trkpt><trkpt lat="41.6444379" lon="19.6829646"><ele>2.0</ele><time>2026-05-03T13:01:07.701Z</time></trkpt><trkpt lat="41.6443481" lon="19.6829443"><ele>2.2</ele><time>2026-05-03T13:01:08.704Z</time></trkpt><trkpt lat="41.6442557" lon="19.6829278"><ele>2.4000000000000004</ele><time>2026-05-03T13:01:09.703Z</time></trkpt><trkpt lat="41.6441563" lon="19.6829137"><ele>2.5999999999999996</ele><time>2026-05-03T13:01:10.703Z</time></trkpt><trkpt lat="41.644055" lon="19.6829052"><ele>2.8</ele><time>2026-05-03T13:01:11.702Z</time></trkpt><trkpt lat="41.6439513" lon="19.6828966"><ele>3.0</ele><time>2026-05-03T13:01:12.703Z</time></trkpt><trkpt lat="41.6438442" lon="19.6828786"><ele>3.0</ele><time>2026-05-03T13:01:13.703Z</time></trkpt><trkpt lat="41.6437278" lon="19.6828628"><ele>3.0</ele><time>2026-05-03T13:01:14.703Z</time></trkpt><trkpt lat="41.6436119" lon="19.6828512"><ele>3.0</ele><time>2026-05-03T13:01:15.703Z</time></trkpt><trkpt lat="41.6434934" lon="19.6828428"><ele>3.0</ele><time>2026-05-03T13:01:16.702Z</time></trkpt><trkpt lat="41.6433767" lon="19.6828196"><ele>2.5</ele><time>2026-05-03T13:01:17.702Z</time></trkpt><trkpt lat="41.6432475" lon="19.6828069"><ele>2.0</ele><time>2026-05-03T13:01:18.703Z</time></trkpt><trkpt lat="41.6431108" lon="19.6827857"><ele>1.5</ele><time>2026-05-03T13:01:19.701Z</time></trkpt><trkpt lat="41.6429665" lon="19.682766"><ele>1.0</ele><time>2026-05-03T13:01:20.702Z</time></trkpt><trkpt lat="41.6428222" lon="19.6827513"><ele>1.0</ele><time>2026-05-03T13:01:21.704Z</time></trkpt><trkpt lat="41.642673" lon="19.6827335"><ele>1.0</ele><time>2026-05-03T13:01:22.703Z</time></trkpt><trkpt lat="41.6425222" lon="19.6827129"><ele>1.0</ele><time>2026-05-03T13:01:23.703Z</time></trkpt><trkpt lat="41.642367" lon="19.6826888"><ele>1.0</ele><time>2026-05-03T13:01:24.704Z</time></trkpt><trkpt lat="41.64221" lon="19.6826634"><ele>1.0</ele><time>2026-05-03T13:01:25.701Z</time></trkpt><trkpt lat="41.6420557" lon="19.6826411"><ele>1.0</ele><time>2026-05-03T13:01:26.703Z</time></trkpt><trkpt lat="41.6419007" lon="19.6826209"><ele>0.5</ele><time>2026-05-03T13:01:27.702Z</time></trkpt><trkpt lat="41.6417485" lon="19.682605"><ele>0.0</ele><time>2026-05-03T13:01:28.701Z</time></trkpt><trkpt lat="41.6416049" lon="19.6825908"><ele>-0.5</ele><time>2026-05-03T13:01:29.703Z</time></trkpt><trkpt lat="41.6414757" lon="19.6825738"><ele>-1.0</ele><time>2026-05-03T13:01:30.701Z</time></trkpt><trkpt lat="41.6413528" lon="19.682552"><ele>-0.9999999999999999</ele><time>2026-05-03T13:01:31.703Z</time></trkpt><trkpt lat="41.6412361" lon="19.6825369"><ele>-1.0</ele><time>2026-05-03T13:01:32.704Z</time></trkpt><trkpt lat="41.6411391" lon="19.6825285"><ele>-1.0</ele><time>2026-05-03T13:01:33.703Z</time></trkpt><trkpt lat="41.6410634" lon="19.6825177"><ele>-1.0</ele><time>2026-05-03T13:01:34.702Z</time></trkpt><trkpt lat="41.6409746" lon="19.6825139"><ele>-0.9999999999999999</ele><time>2026-05-03T13:01:36.702Z</time></trkpt><trkpt lat="41.6409303" lon="19.6824516"><ele>-1.0</ele><time>2026-05-03T13:01:48.704Z</time></trkpt><trkpt lat="41.6409221" lon="19.6822575"><ele>-0.5</ele><time>2026-05-03T13:01:50.704Z</time></trkpt><trkpt lat="41.6409239" lon="19.6821357"><ele>0.0</ele><time>2026-05-03T13:01:51.702Z</time></trkpt><trkpt lat="41.6409359" lon="19.6819871"><ele>0.5</ele><time>2026-05-03T13:01:52.701Z</time></trkpt><trkpt lat="41.6409422" lon="19.681832"><ele>1.0</ele><time>2026-05-03T13:01:53.701Z</time></trkpt><trkpt lat="41.6409492" lon="19.6816543"><ele>1.25</ele><time>2026-05-03T13:01:54.702Z</time></trkpt><trkpt lat="41.6409596" lon="19.6814672"><ele>1.5</ele><time>2026-05-03T13:01:55.702Z</time></trkpt><trkpt lat="41.6409757" lon="19.6812658"><ele>1.75</ele><time>2026-05-03T13:01:56.703Z</time></trkpt><trkpt lat="41.6409901" lon="19.6810593"><ele>2.0</ele><time>2026-05-03T13:01:57.704Z</time></trkpt><trkpt lat="41.6410033" lon="19.6808537"><ele>1.6666666666666665</ele><time>2026-05-03T13:01:58.702Z</time></trkpt><trkpt lat="41.6410157" lon="19.6806372"><ele>1.3333333333333333</ele><time>2026-05-03T13:01:59.703Z</time></trkpt><trkpt lat="41.6410291" lon="19.6804204"><ele>1.0</ele><time>2026-05-03T13:02:00.704Z</time></trkpt><trkpt lat="41.6410457" lon="19.6801895"><ele>1.0</ele><time>2026-05-03T13:02:01.704Z</time></trkpt><trkpt lat="41.6410576" lon="19.6799626"><ele>1.0</ele><time>2026-05-03T13:02:02.703Z</time></trkpt><trkpt lat="41.6410738" lon="19.6797278"><ele>1.0</ele><time>2026-05-03T13:02:03.703Z</time></trkpt><trkpt lat="41.6410948" lon="19.6794874"><ele>1.0</ele><time>2026-05-03T13:02:04.701Z</time></trkpt><trkpt lat="41.6411085" lon="19.6792607"><ele>1.0</ele><time>2026-05-03T13:02:05.701Z</time></trkpt><trkpt lat="41.6411229" lon="19.6790248"><ele>1.0</ele><time>2026-05-03T13:02:06.702Z</time></trkpt><trkpt lat="41.6411397" lon="19.6787863"><ele>0.6666666666666666</ele><time>2026-05-03T13:02:07.703Z</time></trkpt><trkpt lat="41.6411574" lon="19.6785484"><ele>0.3333333333333333</ele><time>2026-05-03T13:02:08.704Z</time></trkpt><trkpt lat="41.6411691" lon="19.6783107"><ele>0.0</ele><time>2026-05-03T13:02:09.703Z</time></trkpt><trkpt lat="41.641182" lon="19.6780724"><ele>0.0</ele><time>2026-05-03T13:02:10.701Z</time></trkpt><trkpt lat="41.6412" lon="19.6778317"><ele>0.0</ele><time>2026-05-03T13:02:11.702Z</time></trkpt><trkpt lat="41.6412139" lon="19.6775938"><ele>0.0</ele><time>2026-05-03T13:02:12.704Z</time></trkpt><trkpt lat="41.6412301" lon="19.6773589"><ele>0.3333333333333333</ele><time>2026-05-03T13:02:13.702Z</time></trkpt><trkpt lat="41.6412483" lon="19.6771194"><ele>0.6666666666666666</ele><time>2026-05-03T13:02:14.703Z</time></trkpt><trkpt lat="41.6412617" lon="19.6768863"><ele>1.0</ele><time>2026-05-03T13:02:15.703Z</time></trkpt><trkpt lat="41.6412756" lon="19.6766533"><ele>1.3333333333333333</ele><time>2026-05-03T13:02:16.704Z</time></trkpt><trkpt lat="41.6412917" lon="19.6764199"><ele>1.6666666666666665</ele><time>2026-05-03T13:02:17.703Z</time></trkpt><trkpt lat="41.6413043" lon="19.6761964"><ele>2.0</ele><time>2026-05-03T13:02:18.701Z</time></trkpt><trkpt lat="41.6413158" lon="19.6759703"><ele>2.333333333333333</ele><time>2026-05-03T13:02:19.704Z</time></trkpt><trkpt lat="41.6413276" lon="19.6757496"><ele>2.6666666666666665</ele><time>2026-05-03T13:02:20.704Z</time></trkpt><trkpt lat="41.6413394" lon="19.6755301"><ele>3.0</ele><time>2026-05-03T13:02:21.703Z</time></trkpt><trkpt lat="41.6413547" lon="19.675309"><ele>2.3333333333333335</ele><time>2026-05-03T13:02:22.703Z</time></trkpt><trkpt lat="41.6413665" lon="19.6750915"><ele>1.6666666666666665</ele><time>2026-05-03T13:02:23.702Z</time></trkpt><trkpt lat="41.6413776" lon="19.6748708"><ele>1.0</ele><time>2026-05-03T13:02:24.701Z</time></trkpt><trkpt lat="41.6413908" lon="19.6746517"><ele>1.0</ele><time>2026-05-03T13:02:25.703Z</time></trkpt><trkpt lat="41.6414016" lon="19.6744346"><ele>1.0</ele><time>2026-05-03T13:02:26.703Z</time></trkpt><trkpt lat="41.6414141" lon="19.6742219"><ele>1.0</ele><time>2026-05-03T13:02:27.704Z</time></trkpt><trkpt lat="41.6414253" lon="19.6740137"><ele>1.0</ele><time>2026-05-03T13:02:28.703Z</time></trkpt><trkpt lat="41.6414375" lon="19.673801"><ele>1.0</ele><time>2026-05-03T13:02:29.703Z</time></trkpt><trkpt lat="41.6414532" lon="19.6735878"><ele>1.0</ele><time>2026-05-03T13:02:30.703Z</time></trkpt><trkpt lat="41.6414646" lon="19.6733778"><ele>0.25</ele><time>2026-05-03T13:02:31.701Z</time></trkpt><trkpt lat="41.6414796" lon="19.6731685"><ele>-0.5</ele><time>2026-05-03T13:02:32.703Z</time></trkpt><trkpt lat="41.6414886" lon="19.6729668"><ele>-1.25</ele><time>2026-05-03T13:02:33.704Z</time></trkpt><trkpt lat="41.6414913" lon="19.6727798"><ele>-2.0</ele><time>2026-05-03T13:02:34.701Z</time></trkpt><trkpt lat="41.641489" lon="19.6725961"><ele>-2.0</ele><time>2026-05-03T13:02:35.702Z</time></trkpt><trkpt lat="41.641487" lon="19.6724263"><ele>-2.0</ele><time>2026-05-03T13:02:36.703Z</time></trkpt><trkpt lat="41.6414838" lon="19.6722518"><ele>-2.0</ele><time>2026-05-03T13:02:37.704Z</time></trkpt><trkpt lat="41.6414861" lon="19.6720967"><ele>-2.0</ele><time>2026-05-03T13:02:38.703Z</time></trkpt><trkpt lat="41.6414913" lon="19.6719517"><ele>-1.6</ele><time>2026-05-03T13:02:39.704Z</time></trkpt><trkpt lat="41.6414947" lon="19.671812"><ele>-1.2000000000000002</ele><time>2026-05-03T13:02:40.703Z</time></trkpt><trkpt lat="41.6415035" lon="19.6716665"><ele>-0.8</ele><time>2026-05-03T13:02:41.704Z</time></trkpt><trkpt lat="41.6415096" lon="19.6715271"><ele>-0.4</ele><time>2026-05-03T13:02:42.702Z</time></trkpt><trkpt lat="41.6415182" lon="19.6713901"><ele>0.0</ele><time>2026-05-03T13:02:43.703Z</time></trkpt><trkpt lat="41.6415249" lon="19.6712509"><ele>0.0</ele><time>2026-05-03T13:02:44.704Z</time></trkpt><trkpt lat="41.6415328" lon="19.6711285"><ele>0.0</ele><time>2026-05-03T13:02:45.702Z</time></trkpt><trkpt lat="41.6415416" lon="19.6710099"><ele>0.0</ele><time>2026-05-03T13:02:46.702Z</time></trkpt><trkpt lat="41.6415523" lon="19.6708948"><ele>0.0</ele><time>2026-05-03T13:02:47.703Z</time></trkpt><trkpt lat="41.641569" lon="19.6707739"><ele>0.0</ele><time>2026-05-03T13:02:48.702Z</time></trkpt><trkpt lat="41.6415789" lon="19.6706703"><ele>0.0</ele><time>2026-05-03T13:02:49.701Z</time></trkpt><trkpt lat="41.6415883" lon="19.6705739"><ele>0.0</ele><time>2026-05-03T13:02:50.704Z</time></trkpt><trkpt lat="41.6416001" lon="19.6704806"><ele>0.0</ele><time>2026-05-03T13:02:51.702Z</time></trkpt><trkpt lat="41.6416129" lon="19.6703746"><ele>0.0</ele><time>2026-05-03T13:02:52.704Z</time></trkpt><trkpt lat="41.641624" lon="19.6702383"><ele>0.0</ele><time>2026-05-03T13:02:53.704Z</time></trkpt><trkpt lat="41.641639" lon="19.6700896"><ele>0.0</ele><time>2026-05-03T13:02:54.702Z</time></trkpt><trkpt lat="41.6416559" lon="19.6699343"><ele>-0.5</ele><time>2026-05-03T13:02:55.703Z</time></trkpt><trkpt lat="41.6416721" lon="19.6697718"><ele>-1.0</ele><time>2026-05-03T13:02:56.704Z</time></trkpt><trkpt lat="41.6416874" lon="19.6695967"><ele>-1.5</ele><time>2026-05-03T13:02:57.703Z</time></trkpt><trkpt lat="41.641702" lon="19.6694134"><ele>-2.0</ele><time>2026-05-03T13:02:58.701Z</time></trkpt><trkpt lat="41.6417144" lon="19.6692343"><ele>-2.0</ele><time>2026-05-03T13:02:59.703Z</time></trkpt><trkpt lat="41.6417308" lon="19.6690479"><ele>-2.0</ele><time>2026-05-03T13:03:00.702Z</time></trkpt><trkpt lat="41.6417464" lon="19.6688569"><ele>-2.0</ele><time>2026-05-03T13:03:01.704Z</time></trkpt><trkpt lat="41.6417605" lon="19.6686643"><ele>-2.0</ele><time>2026-05-03T13:03:02.702Z</time></trkpt><trkpt lat="41.6417726" lon="19.6684777"><ele>-1.75</ele><time>2026-05-03T13:03:03.701Z</time></trkpt><trkpt lat="41.6417846" lon="19.6682991"><ele>-1.5</ele><time>2026-05-03T13:03:04.702Z</time></trkpt><trkpt lat="41.6418002" lon="19.6681215"><ele>-1.25</ele><time>2026-05-03T13:03:05.704Z</time></trkpt><trkpt lat="41.6418113" lon="19.6679331"><ele>-1.0</ele><time>2026-05-03T13:03:06.701Z</time></trkpt><trkpt lat="41.6418223" lon="19.6677374"><ele>-1.0</ele><time>2026-05-03T13:03:07.702Z</time></trkpt><trkpt lat="41.641834" lon="19.66753"><ele>-1.0</ele><time>2026-05-03T13:03:08.703Z</time></trkpt><trkpt lat="41.6418463" lon="19.6673248"><ele>-1.0</ele><time>2026-05-03T13:03:09.704Z</time></trkpt><trkpt lat="41.6418555" lon="19.6670856"><ele>-1.3333333333333333</ele><time>2026-05-03T13:03:10.702Z</time></trkpt><trkpt lat="41.6418564" lon="19.6668766"><ele>-1.6666666666666665</ele><time>2026-05-03T13:03:11.704Z</time></trkpt><trkpt lat="41.6418684" lon="19.6666634"><ele>-2.0</ele><time>2026-05-03T13:03:12.702Z</time></trkpt><trkpt lat="41.6418771" lon="19.6664514"><ele>-2.0</ele><time>2026-05-03T13:03:13.703Z</time></trkpt><trkpt lat="41.6418906" lon="19.6662395"><ele>-2.0</ele><time>2026-05-03T13:03:14.703Z</time></trkpt><trkpt lat="41.6419047" lon="19.666018"><ele>-2.0</ele><time>2026-05-03T13:03:15.704Z</time></trkpt><trkpt lat="41.6419182" lon="19.6657985"><ele>-2.333333333333333</ele><time>2026-05-03T13:03:16.703Z</time></trkpt><trkpt lat="41.6419402" lon="19.6655558"><ele>-2.6666666666666665</ele><time>2026-05-03T13:03:17.703Z</time></trkpt><trkpt lat="41.641957" lon="19.6653298"><ele>-3.0</ele><time>2026-05-03T13:03:18.704Z</time></trkpt><trkpt lat="41.6419594" lon="19.6651076"><ele>-2.0</ele><time>2026-05-03T13:03:19.704Z</time></trkpt><trkpt lat="41.6419747" lon="19.6648833"><ele>-1.0</ele><time>2026-05-03T13:03:20.7Z</time></trkpt><trkpt lat="41.6419934" lon="19.6646622"><ele>0.0</ele><time>2026-05-03T13:03:21.704Z</time></trkpt><trkpt lat="41.642021" lon="19.6644467"><ele>-0.6666666666666666</ele><time>2026-05-03T13:03:22.703Z</time></trkpt><trkpt lat="41.6420329" lon="19.6642334"><ele>-1.3333333333333333</ele><time>2026-05-03T13:03:23.704Z</time></trkpt><trkpt lat="41.6420464" lon="19.6640264"><ele>-2.0</ele><time>2026-05-03T13:03:24.704Z</time></trkpt><trkpt lat="41.6420537" lon="19.6638098"><ele>-2.0</ele><time>2026-05-03T13:03:25.701Z</time></trkpt><trkpt lat="41.6420661" lon="19.6635911"><ele>-2.0</ele><time>2026-05-03T13:03:26.702Z</time></trkpt><trkpt lat="41.6420889" lon="19.6633531"><ele>-2.0</ele><time>2026-05-03T13:03:27.703Z</time></trkpt><trkpt lat="41.6421041" lon="19.6631437"><ele>-2.0</ele><time>2026-05-03T13:03:28.704Z</time></trkpt><trkpt lat="41.6421194" lon="19.6629342"><ele>-2.0</ele><time>2026-05-03T13:03:29.704Z</time></trkpt><trkpt lat="41.6421325" lon="19.6627201"><ele>-2.0</ele><time>2026-05-03T13:03:30.704Z</time></trkpt><trkpt lat="41.6421462" lon="19.662509"><ele>-1.6666666666666665</ele><time>2026-05-03T13:03:31.704Z</time></trkpt><trkpt lat="41.6421488" lon="19.6622951"><ele>-1.3333333333333333</ele><time>2026-05-03T13:03:32.702Z</time></trkpt><trkpt lat="41.642162" lon="19.6620871"><ele>-1.0</ele><time>2026-05-03T13:03:33.703Z</time></trkpt><trkpt lat="41.6421787" lon="19.6618747"><ele>-1.6666666666666665</ele><time>2026-05-03T13:03:34.701Z</time></trkpt><trkpt lat="41.6422009" lon="19.6616605"><ele>-2.3333333333333335</ele><time>2026-05-03T13:03:35.702Z</time></trkpt><trkpt lat="41.6422124" lon="19.6614455"><ele>-3.0</ele><time>2026-05-03T13:03:36.704Z</time></trkpt><trkpt lat="41.6422238" lon="19.6612273"><ele>-2.3333333333333335</ele><time>2026-05-03T13:03:37.704Z</time></trkpt><trkpt lat="41.6422362" lon="19.6610092"><ele>-1.6666666666666665</ele><time>2026-05-03T13:03:38.704Z</time></trkpt><trkpt lat="41.6422513" lon="19.6607816"><ele>-1.0</ele><time>2026-05-03T13:03:39.704Z</time></trkpt><trkpt lat="41.6422648" lon="19.6605445"><ele>-1.0</ele><time>2026-05-03T13:03:40.703Z</time></trkpt><trkpt lat="41.6422826" lon="19.6603041"><ele>-1.0</ele><time>2026-05-03T13:03:41.704Z</time></trkpt><trkpt lat="41.6422926" lon="19.6600633"><ele>-1.0</ele><time>2026-05-03T13:03:42.702Z</time></trkpt><trkpt lat="41.6423103" lon="19.6598157"><ele>-1.0</ele><time>2026-05-03T13:03:43.704Z</time></trkpt><trkpt lat="41.6423241" lon="19.6595713"><ele>-1.0</ele><time>2026-05-03T13:03:44.704Z</time></trkpt><trkpt lat="41.6423371" lon="19.6593298"><ele>-1.0</ele><time>2026-05-03T13:03:45.703Z</time></trkpt><trkpt lat="41.6423519" lon="19.6590826"><ele>-1.0</ele><time>2026-05-03T13:03:46.7Z</time></trkpt><trkpt lat="41.6423656" lon="19.6588338"><ele>-1.0</ele><time>2026-05-03T13:03:47.699Z</time></trkpt><trkpt lat="41.6423799" lon="19.6585871"><ele>-1.0</ele><time>2026-05-03T13:03:48.702Z</time></trkpt><trkpt lat="41.6423942" lon="19.6583404"><ele>-0.6666666666666666</ele><time>2026-05-03T13:03:49.703Z</time></trkpt><trkpt lat="41.6424082" lon="19.6580962"><ele>-0.3333333333333333</ele><time>2026-05-03T13:03:50.704Z</time></trkpt><trkpt lat="41.6424251" lon="19.6578546"><ele>0.0</ele><time>2026-05-03T13:03:51.704Z</time></trkpt><trkpt lat="41.6424386" lon="19.6576142"><ele>0.0</ele><time>2026-05-03T13:03:52.699Z</time></trkpt><trkpt lat="41.6424547" lon="19.6573706"><ele>0.0</ele><time>2026-05-03T13:03:53.701Z</time></trkpt><trkpt lat="41.6424668" lon="19.6571266"><ele>0.0</ele><time>2026-05-03T13:03:54.703Z</time></trkpt><trkpt lat="41.6424827" lon="19.6568845"><ele>-0.3333333333333333</ele><time>2026-05-03T13:03:55.7Z</time></trkpt><trkpt lat="41.6424964" lon="19.6566478"><ele>-0.6666666666666666</ele><time>2026-05-03T13:03:56.702Z</time></trkpt><trkpt lat="41.6425159" lon="19.6564095"><ele>-1.0</ele><time>2026-05-03T13:03:57.7Z</time></trkpt><trkpt lat="41.6425336" lon="19.6561716"><ele>-0.3333333333333333</ele><time>2026-05-03T13:03:58.702Z</time></trkpt><trkpt lat="41.6425403" lon="19.6559266"><ele>0.3333333333333333</ele><time>2026-05-03T13:03:59.701Z</time></trkpt><trkpt lat="41.6425495" lon="19.6556847"><ele>1.0</ele><time>2026-05-03T13:04:00.7Z</time></trkpt><trkpt lat="41.6425599" lon="19.6554469"><ele>1.3333333333333333</ele><time>2026-05-03T13:04:01.702Z</time></trkpt><trkpt lat="41.6425802" lon="19.6552013"><ele>1.6666666666666665</ele><time>2026-05-03T13:04:02.701Z</time></trkpt><trkpt lat="41.642598" lon="19.6549532"><ele>2.0</ele><time>2026-05-03T13:04:03.701Z</time></trkpt><trkpt lat="41.6426159" lon="19.6547006"><ele>1.0</ele><time>2026-05-03T13:04:04.702Z</time></trkpt><trkpt lat="41.6426316" lon="19.6544474"><ele>0.0</ele><time>2026-05-03T13:04:05.699Z</time></trkpt><trkpt lat="41.6426479" lon="19.6541964"><ele>-1.0</ele><time>2026-05-03T13:04:06.701Z</time></trkpt><trkpt lat="41.6426669" lon="19.6539435"><ele>-1.0</ele><time>2026-05-03T13:04:07.704Z</time></trkpt><trkpt lat="41.6426815" lon="19.6536732"><ele>-1.0</ele><time>2026-05-03T13:04:08.699Z</time></trkpt><trkpt lat="41.642689" lon="19.6534252"><ele>-1.0</ele><time>2026-05-03T13:04:09.701Z</time></trkpt><trkpt lat="41.6427057" lon="19.6531815"><ele>-1.0</ele><time>2026-05-03T13:04:10.702Z</time></trkpt><trkpt lat="41.642719" lon="19.6529508"><ele>-1.0</ele><time>2026-05-03T13:04:11.701Z</time></trkpt><trkpt lat="41.6427494" lon="19.6527045"><ele>-1.0</ele><time>2026-05-03T13:04:12.7Z</time></trkpt><trkpt lat="41.642767" lon="19.6524702"><ele>-0.3333333333333333</ele><time>2026-05-03T13:04:13.704Z</time></trkpt><trkpt lat="41.6427746" lon="19.6522445"><ele>0.3333333333333333</ele><time>2026-05-03T13:04:14.703Z</time></trkpt><trkpt lat="41.64279" lon="19.6520041"><ele>1.0</ele><time>2026-05-03T13:04:15.704Z</time></trkpt><trkpt lat="41.6428074" lon="19.6517692"><ele>1.3333333333333333</ele><time>2026-05-03T13:04:16.704Z</time></trkpt><trkpt lat="41.6428233" lon="19.6515312"><ele>1.6666666666666665</ele><time>2026-05-03T13:04:17.701Z</time></trkpt><trkpt lat="41.6428344" lon="19.651291"><ele>2.0</ele><time>2026-05-03T13:04:18.703Z</time></trkpt><trkpt lat="41.6428456" lon="19.6510415"><ele>1.0</ele><time>2026-05-03T13:04:19.703Z</time></trkpt><trkpt lat="41.6428618" lon="19.6507944"><ele>0.0</ele><time>2026-05-03T13:04:20.704Z</time></trkpt><trkpt lat="41.6428787" lon="19.6505548"><ele>-1.0</ele><time>2026-05-03T13:04:21.702Z</time></trkpt><trkpt lat="41.6428955" lon="19.6503135"><ele>-0.6666666666666666</ele><time>2026-05-03T13:04:22.704Z</time></trkpt><trkpt lat="41.6429095" lon="19.6500704"><ele>-0.3333333333333333</ele><time>2026-05-03T13:04:23.704Z</time></trkpt><trkpt lat="41.6429169" lon="19.6498294"><ele>0.0</ele><time>2026-05-03T13:04:24.703Z</time></trkpt><trkpt lat="41.6429284" lon="19.64958"><ele>0.3333333333333333</ele><time>2026-05-03T13:04:25.704Z</time></trkpt><trkpt lat="41.6429478" lon="19.649342"><ele>0.6666666666666666</ele><time>2026-05-03T13:04:26.703Z</time></trkpt><trkpt lat="41.6429617" lon="19.6491094"><ele>1.0</ele><time>2026-05-03T13:04:27.703Z</time></trkpt><trkpt lat="41.6429757" lon="19.6488852"><ele>1.0</ele><time>2026-05-03T13:04:28.703Z</time></trkpt><trkpt lat="41.6429872" lon="19.6486754"><ele>1.0</ele><time>2026-05-03T13:04:29.702Z</time></trkpt><trkpt lat="41.6429987" lon="19.6484696"><ele>1.0</ele><time>2026-05-03T13:04:30.703Z</time></trkpt><trkpt lat="41.643009" lon="19.6482792"><ele>0.75</ele><time>2026-05-03T13:04:31.704Z</time></trkpt><trkpt lat="41.6430227" lon="19.648091"><ele>0.5</ele><time>2026-05-03T13:04:32.703Z</time></trkpt><trkpt lat="41.6430336" lon="19.6479106"><ele>0.25</ele><time>2026-05-03T13:04:33.703Z</time></trkpt><trkpt lat="41.6430477" lon="19.6477293"><ele>0.0</ele><time>2026-05-03T13:04:34.704Z</time></trkpt><trkpt lat="41.6430551" lon="19.6475385"><ele>0.0</ele><time>2026-05-03T13:04:35.704Z</time></trkpt><trkpt lat="41.6430596" lon="19.6473424"><ele>0.0</ele><time>2026-05-03T13:04:36.702Z</time></trkpt><trkpt lat="41.6430412" lon="19.6471493"><ele>0.0</ele><time>2026-05-03T13:04:37.699Z</time></trkpt><trkpt lat="41.6430191" lon="19.6469253"><ele>-0.3333333333333333</ele><time>2026-05-03T13:04:38.701Z</time></trkpt><trkpt lat="41.6429769" lon="19.6467154"><ele>-0.6666666666666666</ele><time>2026-05-03T13:04:39.7Z</time></trkpt><trkpt lat="41.6429279" lon="19.6465023"><ele>-1.0</ele><time>2026-05-03T13:04:40.703Z</time></trkpt><trkpt lat="41.6428829" lon="19.646294"><ele>-0.75</ele><time>2026-05-03T13:04:41.701Z</time></trkpt><trkpt lat="41.6428355" lon="19.646088"><ele>-0.5</ele><time>2026-05-03T13:04:42.702Z</time></trkpt><trkpt lat="41.6427979" lon="19.6458994"><ele>-0.25</ele><time>2026-05-03T13:04:43.701Z</time></trkpt><trkpt lat="41.6427601" lon="19.6457233"><ele>0.0</ele><time>2026-05-03T13:04:44.703Z</time></trkpt><trkpt lat="41.6427257" lon="19.6455435"><ele>0.25</ele><time>2026-05-03T13:04:45.703Z</time></trkpt><trkpt lat="41.6426924" lon="19.6453551"><ele>0.5</ele><time>2026-05-03T13:04:46.704Z</time></trkpt><trkpt lat="41.6426602" lon="19.6451651"><ele>0.75</ele><time>2026-05-03T13:04:47.703Z</time></trkpt><trkpt lat="41.6426279" lon="19.6449745"><ele>1.0</ele><time>2026-05-03T13:04:48.703Z</time></trkpt><trkpt lat="41.64259" lon="19.6447724"><ele>1.0</ele><time>2026-05-03T13:04:49.704Z</time></trkpt><trkpt lat="41.6425594" lon="19.6445949"><ele>1.0</ele><time>2026-05-03T13:04:50.704Z</time></trkpt><trkpt lat="41.6425439" lon="19.6444277"><ele>1.0</ele><time>2026-05-03T13:04:51.704Z</time></trkpt><trkpt lat="41.6425338" lon="19.6442751"><ele>1.0</ele><time>2026-05-03T13:04:52.704Z</time></trkpt><trkpt lat="41.6425477" lon="19.6441322"><ele>1.0</ele><time>2026-05-03T13:04:53.703Z</time></trkpt><trkpt lat="41.6425892" lon="19.6440159"><ele>1.0</ele><time>2026-05-03T13:04:54.703Z</time></trkpt><trkpt lat="41.6426488" lon="19.6439101"><ele>1.0</ele><time>2026-05-03T13:04:55.702Z</time></trkpt><trkpt lat="41.6427212" lon="19.6438287"><ele>1.0</ele><time>2026-05-03T13:04:56.703Z</time></trkpt><trkpt lat="41.6428277" lon="19.6437901"><ele>1.0</ele><time>2026-05-03T13:04:57.703Z</time></trkpt><trkpt lat="41.6429418" lon="19.6437514"><ele>0.8</ele><time>2026-05-03T13:04:58.703Z</time></trkpt><trkpt lat="41.6430597" lon="19.6437094"><ele>0.6000000000000001</ele><time>2026-05-03T13:04:59.702Z</time></trkpt><trkpt lat="41.6431502" lon="19.6436483"><ele>0.4</ele><time>2026-05-03T13:05:00.703Z</time></trkpt><trkpt lat="41.6432382" lon="19.6435549"><ele>0.2</ele><time>2026-05-03T13:05:01.702Z</time></trkpt><trkpt lat="41.6432992" lon="19.6434349"><ele>0.0</ele><time>2026-05-03T13:05:02.702Z</time></trkpt><trkpt lat="41.6433346" lon="19.6433014"><ele>0.0</ele><time>2026-05-03T13:05:03.704Z</time></trkpt><trkpt lat="41.6433502" lon="19.6431297"><ele>0.0</ele><time>2026-05-03T13:05:04.701Z</time></trkpt><trkpt lat="41.6433626" lon="19.6429433"><ele>0.0</ele><time>2026-05-03T13:05:05.703Z</time></trkpt><trkpt lat="41.6433765" lon="19.6427484"><ele>0.0</ele><time>2026-05-03T13:05:06.704Z</time></trkpt><trkpt lat="41.643387" lon="19.6425373"><ele>0.0</ele><time>2026-05-03T13:05:07.704Z</time></trkpt><trkpt lat="41.6434022" lon="19.6423289"><ele>0.0</ele><time>2026-05-03T13:05:08.703Z</time></trkpt><trkpt lat="41.6434166" lon="19.6421074"><ele>0.0</ele><time>2026-05-03T13:05:09.7Z</time></trkpt><trkpt lat="41.6434297" lon="19.641896"><ele>0.0</ele><time>2026-05-03T13:05:10.703Z</time></trkpt><trkpt lat="41.6434436" lon="19.6416823"><ele>0.0</ele><time>2026-05-03T13:05:11.699Z</time></trkpt><trkpt lat="41.6434536" lon="19.6414515"><ele>0.0</ele><time>2026-05-03T13:05:12.702Z</time></trkpt><trkpt lat="41.6434643" lon="19.6412353"><ele>0.0</ele><time>2026-05-03T13:05:13.703Z</time></trkpt><trkpt lat="41.6434796" lon="19.6410036"><ele>0.0</ele><time>2026-05-03T13:05:14.704Z</time></trkpt><trkpt lat="41.643496" lon="19.6407838"><ele>0.0</ele><time>2026-05-03T13:05:15.704Z</time></trkpt><trkpt lat="41.6435123" lon="19.6405622"><ele>0.0</ele><time>2026-05-03T13:05:16.704Z</time></trkpt><trkpt lat="41.6435339" lon="19.6403404"><ele>0.0</ele><time>2026-05-03T13:05:17.702Z</time></trkpt><trkpt lat="41.6435441" lon="19.6401208"><ele>0.0</ele><time>2026-05-03T13:05:18.703Z</time></trkpt><trkpt lat="41.6435547" lon="19.6399018"><ele>-0.6666666666666666</ele><time>2026-05-03T13:05:19.704Z</time></trkpt><trkpt lat="41.6435726" lon="19.639689"><ele>-1.3333333333333333</ele><time>2026-05-03T13:05:20.703Z</time></trkpt><trkpt lat="41.6435824" lon="19.6394637"><ele>-2.0</ele><time>2026-05-03T13:05:21.703Z</time></trkpt><trkpt lat="41.6435993" lon="19.639244"><ele>-2.0</ele><time>2026-05-03T13:05:22.701Z</time></trkpt><trkpt lat="41.6436122" lon="19.6390251"><ele>-2.0</ele><time>2026-05-03T13:05:23.703Z</time></trkpt><trkpt lat="41.6436274" lon="19.6388026"><ele>-2.0</ele><time>2026-05-03T13:05:24.702Z</time></trkpt><trkpt lat="41.6436342" lon="19.6385822"><ele>-2.0</ele><time>2026-05-03T13:05:25.702Z</time></trkpt><trkpt lat="41.6436432" lon="19.6383559"><ele>-2.0</ele><time>2026-05-03T13:05:26.704Z</time></trkpt><trkpt lat="41.6436556" lon="19.6381264"><ele>-2.0</ele><time>2026-05-03T13:05:27.703Z</time></trkpt><trkpt lat="41.643669" lon="19.6378944"><ele>-1.6666666666666665</ele><time>2026-05-03T13:05:28.703Z</time></trkpt><trkpt lat="41.6436813" lon="19.6376622"><ele>-1.3333333333333333</ele><time>2026-05-03T13:05:29.703Z</time></trkpt><trkpt lat="41.643694" lon="19.6374323"><ele>-1.0</ele><time>2026-05-03T13:05:30.704Z</time></trkpt><trkpt lat="41.6437094" lon="19.6372005"><ele>-1.0</ele><time>2026-05-03T13:05:31.704Z</time></trkpt><trkpt lat="41.6437202" lon="19.6369742"><ele>-1.0</ele><time>2026-05-03T13:05:32.702Z</time></trkpt><trkpt lat="41.6437325" lon="19.6367514"><ele>-1.0</ele><time>2026-05-03T13:05:33.704Z</time></trkpt><trkpt lat="41.6437487" lon="19.6365241"><ele>-1.0</ele><time>2026-05-03T13:05:34.702Z</time></trkpt><trkpt lat="41.643761" lon="19.6362924"><ele>-1.0</ele><time>2026-05-03T13:05:35.704Z</time></trkpt><trkpt lat="41.6437742" lon="19.6360726"><ele>-1.0</ele><time>2026-05-03T13:05:36.703Z</time></trkpt><trkpt lat="41.6437864" lon="19.6358532"><ele>-1.0</ele><time>2026-05-03T13:05:37.702Z</time></trkpt><trkpt lat="41.6438047" lon="19.6356321"><ele>-1.0</ele><time>2026-05-03T13:05:38.703Z</time></trkpt><trkpt lat="41.6438164" lon="19.6354146"><ele>-1.0</ele><time>2026-05-03T13:05:39.704Z</time></trkpt><trkpt lat="41.6438317" lon="19.635197"><ele>-0.6666666666666666</ele><time>2026-05-03T13:05:40.702Z</time></trkpt><trkpt lat="41.6438452" lon="19.6349846"><ele>-0.3333333333333333</ele><time>2026-05-03T13:05:41.703Z</time></trkpt><trkpt lat="41.6438582" lon="19.6347722"><ele>0.0</ele><time>2026-05-03T13:05:42.702Z</time></trkpt><trkpt lat="41.6438735" lon="19.6345622"><ele>-1.0</ele><time>2026-05-03T13:05:43.703Z</time></trkpt><trkpt lat="41.643883" lon="19.6343474"><ele>-2.0</ele><time>2026-05-03T13:05:44.703Z</time></trkpt><trkpt lat="41.6438931" lon="19.6341315"><ele>-3.0</ele><time>2026-05-03T13:05:45.7Z</time></trkpt><trkpt lat="41.6439046" lon="19.6339095"><ele>-3.0</ele><time>2026-05-03T13:05:46.704Z</time></trkpt><trkpt lat="41.6439162" lon="19.63369"><ele>-3.0</ele><time>2026-05-03T13:05:47.702Z</time></trkpt><trkpt lat="41.6439321" lon="19.6334629"><ele>-3.0</ele><time>2026-05-03T13:05:48.703Z</time></trkpt><trkpt lat="41.643949" lon="19.6332348"><ele>-2.6666666666666665</ele><time>2026-05-03T13:05:49.703Z</time></trkpt><trkpt lat="41.6439646" lon="19.6330054"><ele>-2.333333333333333</ele><time>2026-05-03T13:05:50.701Z</time></trkpt><trkpt lat="41.6439764" lon="19.6327766"><ele>-2.0</ele><time>2026-05-03T13:05:51.703Z</time></trkpt><trkpt lat="41.6439876" lon="19.6325421"><ele>-1.6666666666666665</ele><time>2026-05-03T13:05:52.702Z</time></trkpt><trkpt lat="41.6440031" lon="19.6323089"><ele>-1.3333333333333333</ele><time>2026-05-03T13:05:53.703Z</time></trkpt><trkpt lat="41.6440143" lon="19.6320747"><ele>-1.0</ele><time>2026-05-03T13:05:54.704Z</time></trkpt><trkpt lat="41.6440249" lon="19.6318495"><ele>-1.0</ele><time>2026-05-03T13:05:55.703Z</time></trkpt><trkpt lat="41.644035" lon="19.6316185"><ele>-1.0</ele><time>2026-05-03T13:05:56.704Z</time></trkpt><trkpt lat="41.6440501" lon="19.6313872"><ele>-1.0</ele><time>2026-05-03T13:05:57.703Z</time></trkpt><trkpt lat="41.6440616" lon="19.6311586"><ele>-1.3333333333333333</ele><time>2026-05-03T13:05:58.703Z</time></trkpt><trkpt lat="41.6440677" lon="19.6309342"><ele>-1.6666666666666665</ele><time>2026-05-03T13:05:59.703Z</time></trkpt><trkpt lat="41.6440757" lon="19.6307055"><ele>-2.0</ele><time>2026-05-03T13:06:00.704Z</time></trkpt><trkpt lat="41.6440942" lon="19.6304794"><ele>-2.0</ele><time>2026-05-03T13:06:01.702Z</time></trkpt><trkpt lat="41.6441084" lon="19.6302518"><ele>-2.0</ele><time>2026-05-03T13:06:02.703Z</time></trkpt><trkpt lat="41.6441276" lon="19.630016"><ele>-2.0</ele><time>2026-05-03T13:06:03.702Z</time></trkpt><trkpt lat="41.6441422" lon="19.6297847"><ele>-2.0</ele><time>2026-05-03T13:06:04.702Z</time></trkpt><trkpt lat="41.6441553" lon="19.6295477"><ele>-2.0</ele><time>2026-05-03T13:06:05.704Z</time></trkpt><trkpt lat="41.6441697" lon="19.6293105"><ele>-2.0</ele><time>2026-05-03T13:06:06.702Z</time></trkpt><trkpt lat="41.6441855" lon="19.6290751"><ele>-2.0</ele><time>2026-05-03T13:06:07.701Z</time></trkpt><trkpt lat="41.6441973" lon="19.6288381"><ele>-2.0</ele><time>2026-05-03T13:06:08.703Z</time></trkpt><trkpt lat="41.644217" lon="19.628604"><ele>-2.0</ele><time>2026-05-03T13:06:09.703Z</time></trkpt><trkpt lat="41.6442303" lon="19.6283764"><ele>-2.0</ele><time>2026-05-03T13:06:10.701Z</time></trkpt><trkpt lat="41.6442466" lon="19.6281459"><ele>-2.0</ele><time>2026-05-03T13:06:11.702Z</time></trkpt><trkpt lat="41.6442649" lon="19.6279188"><ele>-2.0</ele><time>2026-05-03T13:06:12.703Z</time></trkpt><trkpt lat="41.6442808" lon="19.6276778"><ele>-2.0</ele><time>2026-05-03T13:06:13.703Z</time></trkpt><trkpt lat="41.6442942" lon="19.6274427"><ele>-2.0</ele><time>2026-05-03T13:06:14.703Z</time></trkpt><trkpt lat="41.6443042" lon="19.6272187"><ele>-2.0</ele><time>2026-05-03T13:06:15.704Z</time></trkpt><trkpt lat="41.6443193" lon="19.6269979"><ele>-1.6666666666666665</ele><time>2026-05-03T13:06:16.702Z</time></trkpt><trkpt lat="41.6443347" lon="19.6267828"><ele>-1.3333333333333333</ele><time>2026-05-03T13:06:17.701Z</time></trkpt><trkpt lat="41.6443485" lon="19.6265717"><ele>-1.0</ele><time>2026-05-03T13:06:18.703Z</time></trkpt><trkpt lat="41.6443587" lon="19.626366"><ele>-1.0</ele><time>2026-05-03T13:06:19.702Z</time></trkpt><trkpt lat="41.6443714" lon="19.6261686"><ele>-1.0</ele><time>2026-05-03T13:06:20.704Z</time></trkpt><trkpt lat="41.6443817" lon="19.6259827"><ele>-1.0</ele><time>2026-05-03T13:06:21.703Z</time></trkpt><trkpt lat="41.644392" lon="19.6258053"><ele>-1.0</ele><time>2026-05-03T13:06:22.703Z</time></trkpt><trkpt lat="41.6444034" lon="19.6256349"><ele>-1.0</ele><time>2026-05-03T13:06:23.703Z</time></trkpt><trkpt lat="41.6444163" lon="19.6254703"><ele>-1.0</ele><time>2026-05-03T13:06:24.704Z</time></trkpt><trkpt lat="41.6444288" lon="19.6253148"><ele>-1.0</ele><time>2026-05-03T13:06:25.701Z</time></trkpt><trkpt lat="41.6444439" lon="19.6251659"><ele>-1.0</ele><time>2026-05-03T13:06:26.704Z</time></trkpt><trkpt lat="41.6444516" lon="19.6250134"><ele>-1.0</ele><time>2026-05-03T13:06:27.704Z</time></trkpt><trkpt lat="41.6444619" lon="19.6248531"><ele>-1.0</ele><time>2026-05-03T13:06:28.702Z</time></trkpt><trkpt lat="41.6444696" lon="19.6246987"><ele>-1.0</ele><time>2026-05-03T13:06:29.702Z</time></trkpt><trkpt lat="41.6444815" lon="19.6245414"><ele>-1.0</ele><time>2026-05-03T13:06:30.703Z</time></trkpt><trkpt lat="41.6444929" lon="19.6243796"><ele>-1.25</ele><time>2026-05-03T13:06:31.704Z</time></trkpt><trkpt lat="41.6445053" lon="19.6242171"><ele>-1.5</ele><time>2026-05-03T13:06:32.701Z</time></trkpt><trkpt lat="41.6445145" lon="19.624055"><ele>-1.75</ele><time>2026-05-03T13:06:33.704Z</time></trkpt><trkpt lat="41.6445247" lon="19.6238935"><ele>-2.0</ele><time>2026-05-03T13:06:34.703Z</time></trkpt><trkpt lat="41.6445354" lon="19.6237357"><ele>-1.25</ele><time>2026-05-03T13:06:35.704Z</time></trkpt><trkpt lat="41.6445434" lon="19.6235865"><ele>-0.5</ele><time>2026-05-03T13:06:36.704Z</time></trkpt><trkpt lat="41.6445507" lon="19.6234365"><ele>0.25</ele><time>2026-05-03T13:06:37.704Z</time></trkpt><trkpt lat="41.6445565" lon="19.6232799"><ele>1.0</ele><time>2026-05-03T13:06:38.703Z</time></trkpt><trkpt lat="41.6445662" lon="19.6231308"><ele>1.0</ele><time>2026-05-03T13:06:39.703Z</time></trkpt><trkpt lat="41.6445781" lon="19.6229821"><ele>1.0</ele><time>2026-05-03T13:06:40.702Z</time></trkpt><trkpt lat="41.6445873" lon="19.6228476"><ele>1.0</ele><time>2026-05-03T13:06:41.703Z</time></trkpt><trkpt lat="41.6445976" lon="19.622729"><ele>1.0</ele><time>2026-05-03T13:06:42.701Z</time></trkpt><trkpt lat="41.6446078" lon="19.6226235"><ele>1.0</ele><time>2026-05-03T13:06:43.703Z</time></trkpt><trkpt lat="41.6446224" lon="19.6225231"><ele>0.8333333333333333</ele><time>2026-05-03T13:06:44.704Z</time></trkpt><trkpt lat="41.6446405" lon="19.6224389"><ele>0.6666666666666666</ele><time>2026-05-03T13:06:45.704Z</time></trkpt><trkpt lat="41.6446994" lon="19.6223306"><ele>0.5</ele><time>2026-05-03T13:06:47.702Z</time></trkpt><trkpt lat="41.6448009" lon="19.6223147"><ele>0.3333333333333333</ele><time>2026-05-03T13:06:49.703Z</time></trkpt><trkpt lat="41.6448725" lon="19.6223313"><ele>0.16666666666666666</ele><time>2026-05-03T13:06:50.699Z</time></trkpt><trkpt lat="41.6449593" lon="19.6223531"><ele>0.0</ele><time>2026-05-03T13:06:51.701Z</time></trkpt><trkpt lat="41.6450661" lon="19.6223841"><ele>0.0</ele><time>2026-05-03T13:06:52.699Z</time></trkpt><trkpt lat="41.6451714" lon="19.6224044"><ele>0.0</ele><time>2026-05-03T13:06:53.704Z</time></trkpt><trkpt lat="41.6452786" lon="19.6224218"><ele>0.0</ele><time>2026-05-03T13:06:54.704Z</time></trkpt><trkpt lat="41.6453843" lon="19.62244"><ele>0.0</ele><time>2026-05-03T13:06:55.704Z</time></trkpt><trkpt lat="41.6454969" lon="19.6224546"><ele>0.0</ele><time>2026-05-03T13:06:56.703Z</time></trkpt><trkpt lat="41.6456146" lon="19.6224749"><ele>0.25</ele><time>2026-05-03T13:06:57.702Z</time></trkpt><trkpt lat="41.6457393" lon="19.6224858"><ele>0.5</ele><time>2026-05-03T13:06:58.699Z</time></trkpt><trkpt lat="41.6458703" lon="19.6225034"><ele>0.75</ele><time>2026-05-03T13:06:59.703Z</time></trkpt><trkpt lat="41.6460052" lon="19.6225192"><ele>1.0</ele><time>2026-05-03T13:07:00.704Z</time></trkpt><trkpt lat="41.6461468" lon="19.6225359"><ele>0.5</ele><time>2026-05-03T13:07:01.703Z</time></trkpt><trkpt lat="41.6462888" lon="19.622559"><ele>0.0</ele><time>2026-05-03T13:07:02.703Z</time></trkpt><trkpt lat="41.6464391" lon="19.6225747"><ele>-0.5</ele><time>2026-05-03T13:07:03.704Z</time></trkpt><trkpt lat="41.6465856" lon="19.6225891"><ele>-1.0</ele><time>2026-05-03T13:07:04.701Z</time></trkpt><trkpt lat="41.6467329" lon="19.6226023"><ele>-1.0</ele><time>2026-05-03T13:07:05.704Z</time></trkpt><trkpt lat="41.6468798" lon="19.622612"><ele>-1.0</ele><time>2026-05-03T13:07:06.703Z</time></trkpt><trkpt lat="41.6470225" lon="19.622623"><ele>-1.0</ele><time>2026-05-03T13:07:07.702Z</time></trkpt><trkpt lat="41.6471614" lon="19.6226371"><ele>-1.0</ele><time>2026-05-03T13:07:08.7Z</time></trkpt><trkpt lat="41.6472969" lon="19.6226559"><ele>-0.75</ele><time>2026-05-03T13:07:09.701Z</time></trkpt><trkpt lat="41.6474384" lon="19.6226703"><ele>-0.5</ele><time>2026-05-03T13:07:10.703Z</time></trkpt><trkpt lat="41.647572" lon="19.622694"><ele>-0.25</ele><time>2026-05-03T13:07:11.703Z</time></trkpt><trkpt lat="41.6476972" lon="19.6227208"><ele>0.0</ele><time>2026-05-03T13:07:12.702Z</time></trkpt><trkpt lat="41.6478091" lon="19.6227488"><ele>0.0</ele><time>2026-05-03T13:07:13.702Z</time></trkpt><trkpt lat="41.6479214" lon="19.6227632"><ele>0.0</ele><time>2026-05-03T13:07:14.704Z</time></trkpt><trkpt lat="41.648049" lon="19.622783"><ele>0.0</ele><time>2026-05-03T13:07:15.704Z</time></trkpt><trkpt lat="41.648183" lon="19.6227924"><ele>0.0</ele><time>2026-05-03T13:07:16.701Z</time></trkpt><trkpt lat="41.6483284" lon="19.6228042"><ele>-0.25</ele><time>2026-05-03T13:07:17.702Z</time></trkpt><trkpt lat="41.6484747" lon="19.6228302"><ele>-0.5</ele><time>2026-05-03T13:07:18.701Z</time></trkpt><trkpt lat="41.6486259" lon="19.622847"><ele>-0.75</ele><time>2026-05-03T13:07:19.7Z</time></trkpt><trkpt lat="41.6487753" lon="19.6228599"><ele>-1.0</ele><time>2026-05-03T13:07:20.703Z</time></trkpt><trkpt lat="41.6489272" lon="19.6228759"><ele>-1.0</ele><time>2026-05-03T13:07:21.704Z</time></trkpt><trkpt lat="41.6490846" lon="19.6228919"><ele>-1.0</ele><time>2026-05-03T13:07:22.703Z</time></trkpt><trkpt lat="41.6492444" lon="19.6229077"><ele>-1.0</ele><time>2026-05-03T13:07:23.703Z</time></trkpt><trkpt lat="41.6494048" lon="19.6229389"><ele>-1.0</ele><time>2026-05-03T13:07:24.704Z</time></trkpt><trkpt lat="41.6495581" lon="19.6229497"><ele>-1.0</ele><time>2026-05-03T13:07:25.703Z</time></trkpt><trkpt lat="41.6496982" lon="19.622964"><ele>-1.0</ele><time>2026-05-03T13:07:26.703Z</time></trkpt><trkpt lat="41.6498287" lon="19.6229653"><ele>-1.0</ele><time>2026-05-03T13:07:27.703Z</time></trkpt><trkpt lat="41.6499487" lon="19.6229727"><ele>-1.0</ele><time>2026-05-03T13:07:28.702Z</time></trkpt><trkpt lat="41.6500626" lon="19.622981"><ele>-1.0</ele><time>2026-05-03T13:07:29.699Z</time></trkpt><trkpt lat="41.6501752" lon="19.6229755"><ele>-1.0</ele><time>2026-05-03T13:07:30.703Z</time></trkpt><trkpt lat="41.6502869" lon="19.622954"><ele>-1.0</ele><time>2026-05-03T13:07:31.702Z</time></trkpt><trkpt lat="41.6503981" lon="19.6229229"><ele>-1.5</ele><time>2026-05-03T13:07:32.703Z</time></trkpt><trkpt lat="41.6505095" lon="19.6228908"><ele>-2.0</ele><time>2026-05-03T13:07:33.703Z</time></trkpt><trkpt lat="41.6506076" lon="19.6228873"><ele>-2.5</ele><time>2026-05-03T13:07:34.703Z</time></trkpt><trkpt lat="41.650724" lon="19.6228863"><ele>-3.0</ele><time>2026-05-03T13:07:35.704Z</time></trkpt><trkpt lat="41.6508606" lon="19.622895"><ele>-3.0</ele><time>2026-05-03T13:07:36.702Z</time></trkpt><trkpt lat="41.6510124" lon="19.6229124"><ele>-3.0</ele><time>2026-05-03T13:07:37.703Z</time></trkpt><trkpt lat="41.651171" lon="19.6229354"><ele>-3.0</ele><time>2026-05-03T13:07:38.701Z</time></trkpt><trkpt lat="41.6513321" lon="19.6229618"><ele>-2.3333333333333335</ele><time>2026-05-03T13:07:39.701Z</time></trkpt><trkpt lat="41.6514964" lon="19.6229772"><ele>-1.6666666666666665</ele><time>2026-05-03T13:07:40.704Z</time></trkpt><trkpt lat="41.6516645" lon="19.6229863"><ele>-1.0</ele><time>2026-05-03T13:07:41.702Z</time></trkpt><trkpt lat="41.6518308" lon="19.622993"><ele>-0.3333333333333333</ele><time>2026-05-03T13:07:42.704Z</time></trkpt><trkpt lat="41.651999" lon="19.6230067"><ele>0.3333333333333333</ele><time>2026-05-03T13:07:43.702Z</time></trkpt><trkpt lat="41.6521677" lon="19.62301"><ele>1.0</ele><time>2026-05-03T13:07:44.702Z</time></trkpt><trkpt lat="41.6523329" lon="19.6230193"><ele>1.0</ele><time>2026-05-03T13:07:45.702Z</time></trkpt><trkpt lat="41.6525024" lon="19.62303"><ele>1.0</ele><time>2026-05-03T13:07:46.703Z</time></trkpt><trkpt lat="41.6526685" lon="19.6230445"><ele>1.0</ele><time>2026-05-03T13:07:47.703Z</time></trkpt><trkpt lat="41.6528397" lon="19.6230629"><ele>1.0</ele><time>2026-05-03T13:07:48.703Z</time></trkpt><trkpt lat="41.6530095" lon="19.6230792"><ele>1.0</ele><time>2026-05-03T13:07:49.704Z</time></trkpt><trkpt lat="41.6531834" lon="19.6230992"><ele>1.0</ele><time>2026-05-03T13:07:50.698Z</time></trkpt><trkpt lat="41.6533548" lon="19.6231188"><ele>1.0</ele><time>2026-05-03T13:07:51.702Z</time></trkpt><trkpt lat="41.6535241" lon="19.6231376"><ele>1.0</ele><time>2026-05-03T13:07:52.701Z</time></trkpt><trkpt lat="41.6536796" lon="19.6231499"><ele>1.0</ele><time>2026-05-03T13:07:53.701Z</time></trkpt><trkpt lat="41.6538309" lon="19.6231535"><ele>0.5</ele><time>2026-05-03T13:07:54.702Z</time></trkpt><trkpt lat="41.6539751" lon="19.6231772"><ele>0.0</ele><time>2026-05-03T13:07:55.699Z</time></trkpt><trkpt lat="41.6541179" lon="19.6232008"><ele>-0.5</ele><time>2026-05-03T13:07:56.701Z</time></trkpt><trkpt lat="41.6542623" lon="19.6232258"><ele>-1.0</ele><time>2026-05-03T13:07:57.703Z</time></trkpt><trkpt lat="41.6544007" lon="19.623247"><ele>-0.5</ele><time>2026-05-03T13:07:58.702Z</time></trkpt><trkpt lat="41.654538" lon="19.623256"><ele>0.0</ele><time>2026-05-03T13:07:59.7Z</time></trkpt><trkpt lat="41.6546681" lon="19.6232694"><ele>0.5</ele><time>2026-05-03T13:08:00.7Z</time></trkpt><trkpt lat="41.6547914" lon="19.6232765"><ele>1.0</ele><time>2026-05-03T13:08:01.699Z</time></trkpt><trkpt lat="41.6549107" lon="19.6232661"><ele>1.0</ele><time>2026-05-03T13:08:02.701Z</time></trkpt><trkpt lat="41.6550204" lon="19.6232382"><ele>1.0</ele><time>2026-05-03T13:08:03.7Z</time></trkpt><trkpt lat="41.6551288" lon="19.6232096"><ele>1.0</ele><time>2026-05-03T13:08:04.7Z</time></trkpt><trkpt lat="41.6552425" lon="19.6231762"><ele>1.0</ele><time>2026-05-03T13:08:05.7Z</time></trkpt><trkpt lat="41.6553489" lon="19.6231962"><ele>1.0</ele><time>2026-05-03T13:08:06.7Z</time></trkpt><trkpt lat="41.6554578" lon="19.6232338"><ele>0.8</ele><time>2026-05-03T13:08:07.704Z</time></trkpt><trkpt lat="41.6555547" lon="19.6232823"><ele>0.6000000000000001</ele><time>2026-05-03T13:08:08.701Z</time></trkpt><trkpt lat="41.6556472" lon="19.6233234"><ele>0.4</ele><time>2026-05-03T13:08:09.702Z</time></trkpt><trkpt lat="41.6557417" lon="19.6233592"><ele>0.2</ele><time>2026-05-03T13:08:10.702Z</time></trkpt><trkpt lat="41.6558421" lon="19.6233877"><ele>0.0</ele><time>2026-05-03T13:08:11.703Z</time></trkpt><trkpt lat="41.6559438" lon="19.6234065"><ele>0.0</ele><time>2026-05-03T13:08:12.701Z</time></trkpt><trkpt lat="41.6560466" lon="19.6234192"><ele>0.0</ele><time>2026-05-03T13:08:13.703Z</time></trkpt><trkpt lat="41.6561511" lon="19.6234106"><ele>0.0</ele><time>2026-05-03T13:08:14.704Z</time></trkpt><trkpt lat="41.6562602" lon="19.6233774"><ele>0.0</ele><time>2026-05-03T13:08:15.704Z</time></trkpt><trkpt lat="41.6563837" lon="19.6233317"><ele>0.0</ele><time>2026-05-03T13:08:16.703Z</time></trkpt><trkpt lat="41.6565133" lon="19.6232717"><ele>0.25</ele><time>2026-05-03T13:08:17.704Z</time></trkpt><trkpt lat="41.6566413" lon="19.6232138"><ele>0.5</ele><time>2026-05-03T13:08:18.7Z</time></trkpt><trkpt lat="41.6567732" lon="19.6231594"><ele>0.75</ele><time>2026-05-03T13:08:19.704Z</time></trkpt><trkpt lat="41.6569027" lon="19.6231172"><ele>1.0</ele><time>2026-05-03T13:08:20.701Z</time></trkpt><trkpt lat="41.6570325" lon="19.6230885"><ele>1.25</ele><time>2026-05-03T13:08:21.704Z</time></trkpt><trkpt lat="41.6571647" lon="19.6230733"><ele>1.5</ele><time>2026-05-03T13:08:22.704Z</time></trkpt><trkpt lat="41.6572979" lon="19.6230765"><ele>1.75</ele><time>2026-05-03T13:08:23.703Z</time></trkpt><trkpt lat="41.6574383" lon="19.6230836"><ele>2.0</ele><time>2026-05-03T13:08:24.704Z</time></trkpt><trkpt lat="41.6575881" lon="19.6230941"><ele>2.0</ele><time>2026-05-03T13:08:25.702Z</time></trkpt><trkpt lat="41.6577377" lon="19.6231107"><ele>2.0</ele><time>2026-05-03T13:08:26.702Z</time></trkpt><trkpt lat="41.6578928" lon="19.6231181"><ele>2.0</ele><time>2026-05-03T13:08:27.703Z</time></trkpt><trkpt lat="41.6580497" lon="19.6231328"><ele>1.3333333333333333</ele><time>2026-05-03T13:08:28.701Z</time></trkpt><trkpt lat="41.6582145" lon="19.6231407"><ele>0.6666666666666666</ele><time>2026-05-03T13:08:29.702Z</time></trkpt><trkpt lat="41.6583686" lon="19.6231504"><ele>0.0</ele><time>2026-05-03T13:08:30.704Z</time></trkpt><trkpt lat="41.6585312" lon="19.6231615"><ele>0.3333333333333333</ele><time>2026-05-03T13:08:31.7Z</time></trkpt><trkpt lat="41.6586871" lon="19.6231737"><ele>0.6666666666666666</ele><time>2026-05-03T13:08:32.701Z</time></trkpt><trkpt lat="41.6588477" lon="19.6231888"><ele>1.0</ele><time>2026-05-03T13:08:33.702Z</time></trkpt><trkpt lat="41.6590025" lon="19.6232053"><ele>1.0</ele><time>2026-05-03T13:08:34.701Z</time></trkpt><trkpt lat="41.6591536" lon="19.623219"><ele>1.0</ele><time>2026-05-03T13:08:35.703Z</time></trkpt><trkpt lat="41.6593041" lon="19.6232267"><ele>1.0</ele><time>2026-05-03T13:08:36.701Z</time></trkpt><trkpt lat="41.6594523" lon="19.6232395"><ele>0.6666666666666666</ele><time>2026-05-03T13:08:37.704Z</time></trkpt><trkpt lat="41.6596102" lon="19.6232444"><ele>0.3333333333333333</ele><time>2026-05-03T13:08:38.703Z</time></trkpt><trkpt lat="41.6597559" lon="19.6232545"><ele>0.0</ele><time>2026-05-03T13:08:39.704Z</time></trkpt><trkpt lat="41.6599058" lon="19.6232645"><ele>0.0</ele><time>2026-05-03T13:08:40.704Z</time></trkpt><trkpt lat="41.6600549" lon="19.6232704"><ele>0.0</ele><time>2026-05-03T13:08:41.7Z</time></trkpt><trkpt lat="41.6602065" lon="19.6232843"><ele>0.0</ele><time>2026-05-03T13:08:42.703Z</time></trkpt><trkpt lat="41.6603602" lon="19.6233024"><ele>0.75</ele><time>2026-05-03T13:08:43.701Z</time></trkpt><trkpt lat="41.6605071" lon="19.6233213"><ele>1.5</ele><time>2026-05-03T13:08:44.702Z</time></trkpt><trkpt lat="41.6606541" lon="19.6233375"><ele>2.25</ele><time>2026-05-03T13:08:45.704Z</time></trkpt><trkpt lat="41.6607913" lon="19.6233518"><ele>3.0</ele><time>2026-05-03T13:08:46.7Z</time></trkpt><trkpt lat="41.6609234" lon="19.6233649"><ele>3.0</ele><time>2026-05-03T13:08:47.701Z</time></trkpt><trkpt lat="41.661048" lon="19.6233822"><ele>3.0</ele><time>2026-05-03T13:08:48.703Z</time></trkpt><trkpt lat="41.6611695" lon="19.6233913"><ele>3.0</ele><time>2026-05-03T13:08:49.703Z</time></trkpt><trkpt lat="41.6612855" lon="19.6234058"><ele>3.0</ele><time>2026-05-03T13:08:50.701Z</time></trkpt><trkpt lat="41.6613886" lon="19.6234133"><ele>3.0</ele><time>2026-05-03T13:08:51.704Z</time></trkpt><trkpt lat="41.6614802" lon="19.6234238"><ele>3.0</ele><time>2026-05-03T13:08:52.701Z</time></trkpt><trkpt lat="41.6615478" lon="19.6234326"><ele>3.0</ele><time>2026-05-03T13:08:53.704Z</time></trkpt><trkpt lat="41.6616117" lon="19.6234425"><ele>3.0</ele><time>2026-05-03T13:08:54.703Z</time></trkpt><trkpt lat="41.6617292" lon="19.6234533"><ele>3.0</ele><time>2026-05-03T13:08:56.701Z</time></trkpt><trkpt lat="41.6617949" lon="19.623447"><ele>3.0</ele><time>2026-05-03T13:08:57.702Z</time></trkpt><trkpt lat="41.6618588" lon="19.6234405"><ele>3.2</ele><time>2026-05-03T13:08:58.703Z</time></trkpt><trkpt lat="41.661977" lon="19.6234494"><ele>3.4</ele><time>2026-05-03T13:09:00.703Z</time></trkpt><trkpt lat="41.6620471" lon="19.6235577"><ele>3.6000000000000005</ele><time>2026-05-03T13:09:02.703Z</time></trkpt><trkpt lat="41.6620716" lon="19.6236493"><ele>3.8000000000000003</ele><time>2026-05-03T13:09:03.702Z</time></trkpt><trkpt lat="41.6620955" lon="19.6237508"><ele>4.0</ele><time>2026-05-03T13:09:04.703Z</time></trkpt><trkpt lat="41.6621283" lon="19.6238472"><ele>4.0</ele><time>2026-05-03T13:09:05.703Z</time></trkpt><trkpt lat="41.6621584" lon="19.6239591"><ele>4.0</ele><time>2026-05-03T13:09:06.703Z</time></trkpt><trkpt lat="41.6621915" lon="19.6240641"><ele>4.0</ele><time>2026-05-03T13:09:07.703Z</time></trkpt><trkpt lat="41.6622234" lon="19.6241763"><ele>4.0</ele><time>2026-05-03T13:09:08.704Z</time></trkpt><trkpt lat="41.6622588" lon="19.6242954"><ele>4.0</ele><time>2026-05-03T13:09:09.704Z</time></trkpt><trkpt lat="41.6622912" lon="19.6244093"><ele>3.571428571428571</ele><time>2026-05-03T13:09:10.703Z</time></trkpt><trkpt lat="41.6623273" lon="19.6245228"><ele>3.1428571428571423</ele><time>2026-05-03T13:09:11.703Z</time></trkpt><trkpt lat="41.6623616" lon="19.6246127"><ele>2.714285714285714</ele><time>2026-05-03T13:09:12.703Z</time></trkpt><trkpt lat="41.6623877" lon="19.6246947"><ele>2.2857142857142856</ele><time>2026-05-03T13:09:13.704Z</time></trkpt><trkpt lat="41.662417" lon="19.6247772"><ele>1.857142857142857</ele><time>2026-05-03T13:09:14.702Z</time></trkpt><trkpt lat="41.6624469" lon="19.6248522"><ele>1.4285714285714284</ele><time>2026-05-03T13:09:15.704Z</time></trkpt><trkpt lat="41.6624692" lon="19.6249316"><ele>1.0</ele><time>2026-05-03T13:09:16.703Z</time></trkpt><trkpt lat="41.6625094" lon="19.6250848"><ele>1.0</ele><time>2026-05-03T13:09:18.704Z</time></trkpt><trkpt lat="41.6625529" lon="19.6252617"><ele>1.0</ele><time>2026-05-03T13:09:20.704Z</time></trkpt><trkpt lat="41.6625819" lon="19.625363"><ele>1.0</ele><time>2026-05-03T13:09:21.704Z</time></trkpt><trkpt lat="41.6626121" lon="19.6254662"><ele>1.0</ele><time>2026-05-03T13:09:22.703Z</time></trkpt><trkpt lat="41.6626421" lon="19.6255851"><ele>1.0</ele><time>2026-05-03T13:09:23.702Z</time></trkpt><trkpt lat="41.6626647" lon="19.625719"><ele>1.4</ele><time>2026-05-03T13:09:24.703Z</time></trkpt><trkpt lat="41.6626994" lon="19.6258405"><ele>1.8</ele><time>2026-05-03T13:09:25.704Z</time></trkpt><trkpt lat="41.6627411" lon="19.6259927"><ele>2.1999999999999997</ele><time>2026-05-03T13:09:26.699Z</time></trkpt><trkpt lat="41.662782" lon="19.6261334"><ele>2.6</ele><time>2026-05-03T13:09:27.701Z</time></trkpt><trkpt lat="41.6628145" lon="19.6262801"><ele>3.0</ele><time>2026-05-03T13:09:28.7Z</time></trkpt><trkpt lat="41.6628624" lon="19.6264205"><ele>3.0</ele><time>2026-05-03T13:09:29.701Z</time></trkpt><trkpt lat="41.6629079" lon="19.6265801"><ele>3.0</ele><time>2026-05-03T13:09:30.703Z</time></trkpt><trkpt lat="41.6629482" lon="19.6267295"><ele>3.0</ele><time>2026-05-03T13:09:31.701Z</time></trkpt><trkpt lat="41.6629927" lon="19.6268845"><ele>3.0</ele><time>2026-05-03T13:09:32.703Z</time></trkpt><trkpt lat="41.6630344" lon="19.6270503"><ele>2.75</ele><time>2026-05-03T13:09:33.704Z</time></trkpt><trkpt lat="41.6630815" lon="19.6272079"><ele>2.5</ele><time>2026-05-03T13:09:34.704Z</time></trkpt><trkpt lat="41.6631202" lon="19.6273586"><ele>2.25</ele><time>2026-05-03T13:09:35.7Z</time></trkpt><trkpt lat="41.6631617" lon="19.6275043"><ele>2.0</ele><time>2026-05-03T13:09:36.703Z</time></trkpt><trkpt lat="41.6632009" lon="19.6276603"><ele>2.0</ele><time>2026-05-03T13:09:37.702Z</time></trkpt><trkpt lat="41.6632419" lon="19.6278075"><ele>2.0</ele><time>2026-05-03T13:09:38.702Z</time></trkpt><trkpt lat="41.6632825" lon="19.6279571"><ele>2.0</ele><time>2026-05-03T13:09:39.701Z</time></trkpt><trkpt lat="41.6633336" lon="19.6281096"><ele>2.0</ele><time>2026-05-03T13:09:40.703Z</time></trkpt><trkpt lat="41.6633814" lon="19.6282606"><ele>2.0</ele><time>2026-05-03T13:09:41.704Z</time></trkpt><trkpt lat="41.6634302" lon="19.6284068"><ele>2.0</ele><time>2026-05-03T13:09:42.704Z</time></trkpt><trkpt lat="41.663476" lon="19.6285506"><ele>2.0</ele><time>2026-05-03T13:09:43.702Z</time></trkpt><trkpt lat="41.6635168" lon="19.6286825"><ele>2.0</ele><time>2026-05-03T13:09:44.702Z</time></trkpt><trkpt lat="41.6635557" lon="19.6288264"><ele>1.75</ele><time>2026-05-03T13:09:45.702Z</time></trkpt><trkpt lat="41.6635979" lon="19.6289726"><ele>1.5</ele><time>2026-05-03T13:09:46.703Z</time></trkpt><trkpt lat="41.6636389" lon="19.6291196"><ele>1.25</ele><time>2026-05-03T13:09:47.701Z</time></trkpt><trkpt lat="41.6636842" lon="19.6292701"><ele>1.0</ele><time>2026-05-03T13:09:48.701Z</time></trkpt><trkpt lat="41.6637255" lon="19.6294235"><ele>1.5</ele><time>2026-05-03T13:09:49.702Z</time></trkpt><trkpt lat="41.6637725" lon="19.6295914"><ele>2.0</ele><time>2026-05-03T13:09:50.702Z</time></trkpt><trkpt lat="41.6638207" lon="19.6297676"><ele>2.5</ele><time>2026-05-03T13:09:51.703Z</time></trkpt><trkpt lat="41.6638729" lon="19.6299422"><ele>3.0</ele><time>2026-05-03T13:09:52.704Z</time></trkpt><trkpt lat="41.6639216" lon="19.6301216"><ele>3.0</ele><time>2026-05-03T13:09:53.701Z</time></trkpt><trkpt lat="41.6639729" lon="19.6303049"><ele>3.0</ele><time>2026-05-03T13:09:54.704Z</time></trkpt><trkpt lat="41.6640321" lon="19.6304765"><ele>3.0</ele><time>2026-05-03T13:09:55.702Z</time></trkpt><trkpt lat="41.6640794" lon="19.6306416"><ele>3.0</ele><time>2026-05-03T13:09:56.703Z</time></trkpt><trkpt lat="41.6641345" lon="19.6307988"><ele>2.75</ele><time>2026-05-03T13:09:57.702Z</time></trkpt><trkpt lat="41.6641812" lon="19.6309632"><ele>2.5</ele><time>2026-05-03T13:09:58.704Z</time></trkpt><trkpt lat="41.6642335" lon="19.6311385"><ele>2.25</ele><time>2026-05-03T13:09:59.703Z</time></trkpt><trkpt lat="41.6642791" lon="19.6312965"><ele>2.0</ele><time>2026-05-03T13:10:00.704Z</time></trkpt><trkpt lat="41.6643251" lon="19.6314584"><ele>2.0</ele><time>2026-05-03T13:10:01.703Z</time></trkpt><trkpt lat="41.6643696" lon="19.6316147"><ele>2.0</ele><time>2026-05-03T13:10:02.704Z</time></trkpt><trkpt lat="41.6644105" lon="19.6317669"><ele>2.0</ele><time>2026-05-03T13:10:03.704Z</time></trkpt><trkpt lat="41.6644587" lon="19.6319316"><ele>2.0</ele><time>2026-05-03T13:10:04.702Z</time></trkpt><trkpt lat="41.6645023" lon="19.6320856"><ele>2.0</ele><time>2026-05-03T13:10:05.701Z</time></trkpt><trkpt lat="41.6645502" lon="19.6322422"><ele>2.0</ele><time>2026-05-03T13:10:06.703Z</time></trkpt><trkpt lat="41.6645921" lon="19.632402"><ele>2.0</ele><time>2026-05-03T13:10:07.703Z</time></trkpt><trkpt lat="41.6646355" lon="19.6325623"><ele>2.0</ele><time>2026-05-03T13:10:08.703Z</time></trkpt><trkpt lat="41.6646822" lon="19.6327293"><ele>1.5</ele><time>2026-05-03T13:10:09.704Z</time></trkpt><trkpt lat="41.6647285" lon="19.6328989"><ele>1.0</ele><time>2026-05-03T13:10:10.703Z</time></trkpt><trkpt lat="41.6647734" lon="19.6330644"><ele>0.5</ele><time>2026-05-03T13:10:11.7Z</time></trkpt><trkpt lat="41.664824" lon="19.6332383"><ele>0.0</ele><time>2026-05-03T13:10:12.703Z</time></trkpt><trkpt lat="41.6648712" lon="19.633408"><ele>0.0</ele><time>2026-05-03T13:10:13.703Z</time></trkpt><trkpt lat="41.6649159" lon="19.6335696"><ele>0.0</ele><time>2026-05-03T13:10:14.701Z</time></trkpt><trkpt lat="41.6649652" lon="19.6337268"><ele>0.0</ele><time>2026-05-03T13:10:15.703Z</time></trkpt><trkpt lat="41.6650135" lon="19.6338788"><ele>0.0</ele><time>2026-05-03T13:10:16.701Z</time></trkpt><trkpt lat="41.6650572" lon="19.6340224"><ele>0.25</ele><time>2026-05-03T13:10:17.703Z</time></trkpt><trkpt lat="41.6650974" lon="19.6341596"><ele>0.5</ele><time>2026-05-03T13:10:18.698Z</time></trkpt><trkpt lat="41.665131" lon="19.6343007"><ele>0.75</ele><time>2026-05-03T13:10:19.701Z</time></trkpt><trkpt lat="41.6651726" lon="19.6344422"><ele>1.0</ele><time>2026-05-03T13:10:20.703Z</time></trkpt><trkpt lat="41.6652132" lon="19.6345926"><ele>1.25</ele><time>2026-05-03T13:10:21.701Z</time></trkpt><trkpt lat="41.6652553" lon="19.6347361"><ele>1.5</ele><time>2026-05-03T13:10:22.7Z</time></trkpt><trkpt lat="41.6652992" lon="19.6348808"><ele>1.75</ele><time>2026-05-03T13:10:23.702Z</time></trkpt><trkpt lat="41.6653398" lon="19.6350252"><ele>2.0</ele><time>2026-05-03T13:10:24.701Z</time></trkpt><trkpt lat="41.6653759" lon="19.6351606"><ele>2.0</ele><time>2026-05-03T13:10:25.7Z</time></trkpt><trkpt lat="41.665411" lon="19.6352903"><ele>2.0</ele><time>2026-05-03T13:10:26.703Z</time></trkpt><trkpt lat="41.6654451" lon="19.635408"><ele>2.0</ele><time>2026-05-03T13:10:27.703Z</time></trkpt><trkpt lat="41.6654721" lon="19.6355063"><ele>2.0</ele><time>2026-05-03T13:10:28.701Z</time></trkpt><trkpt lat="41.6655159" lon="19.6356507"><ele>2.0</ele><time>2026-05-03T13:10:30.7Z</time></trkpt><trkpt lat="41.6655938" lon="19.6357197"><ele>2.2</ele><time>2026-05-03T13:10:32.704Z</time></trkpt><trkpt lat="41.6657189" lon="19.6357293"><ele>2.4000000000000004</ele><time>2026-05-03T13:10:34.702Z</time></trkpt><trkpt lat="41.6658036" lon="19.6357347"><ele>2.5999999999999996</ele><time>2026-05-03T13:10:35.701Z</time></trkpt><trkpt lat="41.6659033" lon="19.6357284"><ele>2.8</ele><time>2026-05-03T13:10:36.703Z</time></trkpt><trkpt lat="41.6660139" lon="19.6357202"><ele>3.0</ele><time>2026-05-03T13:10:37.701Z</time></trkpt><trkpt lat="41.6661219" lon="19.6357116"><ele>2.5</ele><time>2026-05-03T13:10:38.702Z</time></trkpt><trkpt lat="41.666232" lon="19.6357056"><ele>2.0</ele><time>2026-05-03T13:10:39.704Z</time></trkpt><trkpt lat="41.6663474" lon="19.6356969"><ele>1.5</ele><time>2026-05-03T13:10:40.701Z</time></trkpt><trkpt lat="41.6664679" lon="19.6356894"><ele>1.0</ele><time>2026-05-03T13:10:41.704Z</time></trkpt><trkpt lat="41.6665912" lon="19.6356966"><ele>1.0</ele><time>2026-05-03T13:10:42.703Z</time></trkpt><trkpt lat="41.6667174" lon="19.6356879"><ele>1.0</ele><time>2026-05-03T13:10:43.703Z</time></trkpt><trkpt lat="41.6668446" lon="19.6356706"><ele>1.0</ele><time>2026-05-03T13:10:44.704Z</time></trkpt><trkpt lat="41.66698" lon="19.6356671"><ele>1.0</ele><time>2026-05-03T13:10:45.701Z</time></trkpt><trkpt lat="41.6671198" lon="19.6356608"><ele>1.0</ele><time>2026-05-03T13:10:46.704Z</time></trkpt><trkpt lat="41.6672567" lon="19.6356626"><ele>1.0</ele><time>2026-05-03T13:10:47.703Z</time></trkpt><trkpt lat="41.6673952" lon="19.6356642"><ele>1.0</ele><time>2026-05-03T13:10:48.702Z</time></trkpt><trkpt lat="41.6675365" lon="19.6356579"><ele>1.0</ele><time>2026-05-03T13:10:49.704Z</time></trkpt><trkpt lat="41.667681" lon="19.6356459"><ele>1.0</ele><time>2026-05-03T13:10:50.701Z</time></trkpt><trkpt lat="41.6678303" lon="19.6356404"><ele>1.0</ele><time>2026-05-03T13:10:51.704Z</time></trkpt><trkpt lat="41.6679758" lon="19.6356369"><ele>1.0</ele><time>2026-05-03T13:10:52.704Z</time></trkpt><trkpt lat="41.6681186" lon="19.6356412"><ele>1.0</ele><time>2026-05-03T13:10:53.702Z</time></trkpt><trkpt lat="41.6682663" lon="19.6356322"><ele>1.0</ele><time>2026-05-03T13:10:54.703Z</time></trkpt><trkpt lat="41.6684147" lon="19.6356279"><ele>1.0</ele><time>2026-05-03T13:10:55.704Z</time></trkpt><trkpt lat="41.6685634" lon="19.6356191"><ele>1.0</ele><time>2026-05-03T13:10:56.701Z</time></trkpt><trkpt lat="41.6687115" lon="19.6356041"><ele>1.0</ele><time>2026-05-03T13:10:57.702Z</time></trkpt><trkpt lat="41.6688562" lon="19.6355847"><ele>1.75</ele><time>2026-05-03T13:10:58.702Z</time></trkpt><trkpt lat="41.668997" lon="19.635566"><ele>2.5</ele><time>2026-05-03T13:10:59.704Z</time></trkpt><trkpt lat="41.6691381" lon="19.6355575"><ele>3.25</ele><time>2026-05-03T13:11:00.703Z</time></trkpt><trkpt lat="41.6692768" lon="19.6355479"><ele>4.0</ele><time>2026-05-03T13:11:01.701Z</time></trkpt><trkpt lat="41.6694089" lon="19.6355371"><ele>4.0</ele><time>2026-05-03T13:11:02.703Z</time></trkpt><trkpt lat="41.6695376" lon="19.6355321"><ele>4.0</ele><time>2026-05-03T13:11:03.702Z</time></trkpt><trkpt lat="41.6696556" lon="19.6355297"><ele>4.0</ele><time>2026-05-03T13:11:04.701Z</time></trkpt><trkpt lat="41.6697654" lon="19.6355229"><ele>4.0</ele><time>2026-05-03T13:11:05.704Z</time></trkpt><trkpt lat="41.6698642" lon="19.6355193"><ele>3.9999999999999996</ele><time>2026-05-03T13:11:06.703Z</time></trkpt><trkpt lat="41.6699562" lon="19.635517"><ele>4.0</ele><time>2026-05-03T13:11:07.704Z</time></trkpt><trkpt lat="41.6700454" lon="19.6355168"><ele>4.0</ele><time>2026-05-03T13:11:08.704Z</time></trkpt><trkpt lat="41.6701142" lon="19.6355135"><ele>4.0</ele><time>2026-05-03T13:11:09.701Z</time></trkpt><trkpt lat="41.6701819" lon="19.6355138"><ele>3.9999999999999996</ele><time>2026-05-03T13:11:10.701Z</time></trkpt><trkpt lat="41.6702989" lon="19.6355282"><ele>4.0</ele><time>2026-05-03T13:11:12.703Z</time></trkpt><trkpt lat="41.6703744" lon="19.6356328"><ele>3.8000000000000003</ele><time>2026-05-03T13:11:14.703Z</time></trkpt><trkpt lat="41.6704016" lon="19.6357281"><ele>3.6000000000000005</ele><time>2026-05-03T13:11:15.704Z</time></trkpt><trkpt lat="41.6704139" lon="19.6358212"><ele>3.4</ele><time>2026-05-03T13:11:16.703Z</time></trkpt><trkpt lat="41.6704123" lon="19.6359597"><ele>3.2</ele><time>2026-05-03T13:11:17.702Z</time></trkpt><trkpt lat="41.6704088" lon="19.6361267"><ele>3.0</ele><time>2026-05-03T13:11:18.702Z</time></trkpt><trkpt lat="41.6704049" lon="19.6362788"><ele>3.0</ele><time>2026-05-03T13:11:19.703Z</time></trkpt><trkpt lat="41.6703983" lon="19.6364249"><ele>3.0</ele><time>2026-05-03T13:11:20.701Z</time></trkpt><trkpt lat="41.670386" lon="19.6365708"><ele>3.0</ele><time>2026-05-03T13:11:21.702Z</time></trkpt><trkpt lat="41.6703613" lon="19.6367166"><ele>3.0</ele><time>2026-05-03T13:11:22.704Z</time></trkpt><trkpt lat="41.6703369" lon="19.6368732"><ele>3.25</ele><time>2026-05-03T13:11:23.703Z</time></trkpt><trkpt lat="41.6702998" lon="19.6370306"><ele>3.5</ele><time>2026-05-03T13:11:24.703Z</time></trkpt><trkpt lat="41.6702571" lon="19.6372002"><ele>3.75</ele><time>2026-05-03T13:11:25.703Z</time></trkpt><trkpt lat="41.6702104" lon="19.6373771"><ele>4.0</ele><time>2026-05-03T13:11:26.702Z</time></trkpt><trkpt lat="41.6701633" lon="19.6375574"><ele>4.0</ele><time>2026-05-03T13:11:27.701Z</time></trkpt><trkpt lat="41.6701167" lon="19.6377423"><ele>4.0</ele><time>2026-05-03T13:11:28.704Z</time></trkpt><trkpt lat="41.6700691" lon="19.6379285"><ele>4.0</ele><time>2026-05-03T13:11:29.704Z</time></trkpt><trkpt lat="41.670021" lon="19.6381208"><ele>4.0</ele><time>2026-05-03T13:11:30.702Z</time></trkpt><trkpt lat="41.6699721" lon="19.6383131"><ele>4.0</ele><time>2026-05-03T13:11:31.703Z</time></trkpt><trkpt lat="41.669928" lon="19.6385085"><ele>4.0</ele><time>2026-05-03T13:11:32.702Z</time></trkpt><trkpt lat="41.6698788" lon="19.6387018"><ele>4.0</ele><time>2026-05-03T13:11:33.703Z</time></trkpt><trkpt lat="41.6698333" lon="19.6389032"><ele>4.0</ele><time>2026-05-03T13:11:34.702Z</time></trkpt><trkpt lat="41.6697817" lon="19.6391048"><ele>4.0</ele><time>2026-05-03T13:11:35.704Z</time></trkpt><trkpt lat="41.6697334" lon="19.6393018"><ele>4.0</ele><time>2026-05-03T13:11:36.704Z</time></trkpt><trkpt lat="41.6696846" lon="19.6395014"><ele>4.333333333333333</ele><time>2026-05-03T13:11:37.702Z</time></trkpt><trkpt lat="41.6696357" lon="19.6396973"><ele>4.666666666666667</ele><time>2026-05-03T13:11:38.704Z</time></trkpt><trkpt lat="41.6695862" lon="19.6398989"><ele>5.0</ele><time>2026-05-03T13:11:39.699Z</time></trkpt><trkpt lat="41.6695391" lon="19.640099"><ele>5.0</ele><time>2026-05-03T13:11:40.703Z</time></trkpt><trkpt lat="41.6694889" lon="19.6402905"><ele>5.0</ele><time>2026-05-03T13:11:41.702Z</time></trkpt><trkpt lat="41.6694366" lon="19.6404832"><ele>5.0</ele><time>2026-05-03T13:11:42.704Z</time></trkpt><trkpt lat="41.6693816" lon="19.6406784"><ele>5.0</ele><time>2026-05-03T13:11:43.7Z</time></trkpt><trkpt lat="41.6693241" lon="19.6408698"><ele>5.0</ele><time>2026-05-03T13:11:44.701Z</time></trkpt><trkpt lat="41.6692574" lon="19.6410642"><ele>5.0</ele><time>2026-05-03T13:11:45.703Z</time></trkpt><trkpt lat="41.6691905" lon="19.641244"><ele>5.0</ele><time>2026-05-03T13:11:46.703Z</time></trkpt><trkpt lat="41.6691232" lon="19.6414288"><ele>5.0</ele><time>2026-05-03T13:11:47.703Z</time></trkpt><trkpt lat="41.6690531" lon="19.6416054"><ele>5.0</ele><time>2026-05-03T13:11:48.703Z</time></trkpt><trkpt lat="41.6689825" lon="19.6417961"><ele>4.666666666666667</ele><time>2026-05-03T13:11:49.702Z</time></trkpt><trkpt lat="41.6689141" lon="19.6419958"><ele>4.333333333333333</ele><time>2026-05-03T13:11:50.702Z</time></trkpt><trkpt lat="41.6688433" lon="19.6421928"><ele>4.0</ele><time>2026-05-03T13:11:51.702Z</time></trkpt><trkpt lat="41.6687794" lon="19.6424046"><ele>4.0</ele><time>2026-05-03T13:11:52.704Z</time></trkpt><trkpt lat="41.6687095" lon="19.6426038"><ele>4.0</ele><time>2026-05-03T13:11:53.703Z</time></trkpt><trkpt lat="41.6686382" lon="19.6427917"><ele>4.0</ele><time>2026-05-03T13:11:54.701Z</time></trkpt><trkpt lat="41.6685765" lon="19.6429788"><ele>4.25</ele><time>2026-05-03T13:11:55.7Z</time></trkpt><trkpt lat="41.6685148" lon="19.6431507"><ele>4.5</ele><time>2026-05-03T13:11:56.703Z</time></trkpt><trkpt lat="41.6684633" lon="19.6433172"><ele>4.75</ele><time>2026-05-03T13:11:57.701Z</time></trkpt><trkpt lat="41.6684204" lon="19.6434828"><ele>5.0</ele><time>2026-05-03T13:11:58.703Z</time></trkpt><trkpt lat="41.6683923" lon="19.6436611"><ele>5.0</ele><time>2026-05-03T13:11:59.701Z</time></trkpt><trkpt lat="41.6683722" lon="19.6438485"><ele>5.0</ele><time>2026-05-03T13:12:00.702Z</time></trkpt><trkpt lat="41.6683578" lon="19.6440471"><ele>5.0</ele><time>2026-05-03T13:12:01.703Z</time></trkpt><trkpt lat="41.6683442" lon="19.644255"><ele>5.0</ele><time>2026-05-03T13:12:02.702Z</time></trkpt><trkpt lat="41.6683256" lon="19.6444675"><ele>5.0</ele><time>2026-05-03T13:12:03.7Z</time></trkpt><trkpt lat="41.6683044" lon="19.6446774"><ele>5.0</ele><time>2026-05-03T13:12:04.701Z</time></trkpt><trkpt lat="41.6682845" lon="19.6448901"><ele>5.0</ele><time>2026-05-03T13:12:05.7Z</time></trkpt><trkpt lat="41.6682633" lon="19.6450952"><ele>5.25</ele><time>2026-05-03T13:12:06.704Z</time></trkpt><trkpt lat="41.6682412" lon="19.6452966"><ele>5.5</ele><time>2026-05-03T13:12:07.7Z</time></trkpt><trkpt lat="41.6682221" lon="19.6454842"><ele>5.75</ele><time>2026-05-03T13:12:08.703Z</time></trkpt><trkpt lat="41.6682043" lon="19.6456632"><ele>6.0</ele><time>2026-05-03T13:12:09.7Z</time></trkpt><trkpt lat="41.6681867" lon="19.64583"><ele>6.0</ele><time>2026-05-03T13:12:10.702Z</time></trkpt><trkpt lat="41.6681708" lon="19.6459816"><ele>6.0</ele><time>2026-05-03T13:12:11.704Z</time></trkpt><trkpt lat="41.6681666" lon="19.6461289"><ele>6.0</ele><time>2026-05-03T13:12:12.703Z</time></trkpt><trkpt lat="41.668171" lon="19.6462726"><ele>6.0</ele><time>2026-05-03T13:12:13.704Z</time></trkpt><trkpt lat="41.6681937" lon="19.6464064"><ele>6.0</ele><time>2026-05-03T13:12:14.699Z</time></trkpt><trkpt lat="41.6682195" lon="19.6465316"><ele>5.25</ele><time>2026-05-03T13:12:15.701Z</time></trkpt><trkpt lat="41.6682468" lon="19.6466762"><ele>4.5</ele><time>2026-05-03T13:12:16.701Z</time></trkpt><trkpt lat="41.6682764" lon="19.6468305"><ele>3.75</ele><time>2026-05-03T13:12:17.701Z</time></trkpt><trkpt lat="41.6683094" lon="19.6469966"><ele>3.0</ele><time>2026-05-03T13:12:18.702Z</time></trkpt><trkpt lat="41.6683387" lon="19.6471765"><ele>3.0</ele><time>2026-05-03T13:12:19.702Z</time></trkpt><trkpt lat="41.6683677" lon="19.6473493"><ele>3.0</ele><time>2026-05-03T13:12:20.702Z</time></trkpt><trkpt lat="41.6684015" lon="19.6475252"><ele>3.0</ele><time>2026-05-03T13:12:21.7Z</time></trkpt><trkpt lat="41.6684307" lon="19.6477131"><ele>3.0</ele><time>2026-05-03T13:12:22.701Z</time></trkpt><trkpt lat="41.6684603" lon="19.6479099"><ele>3.0</ele><time>2026-05-03T13:12:23.702Z</time></trkpt><trkpt lat="41.6684975" lon="19.6481254"><ele>3.0</ele><time>2026-05-03T13:12:24.701Z</time></trkpt><trkpt lat="41.668528" lon="19.6483372"><ele>3.0</ele><time>2026-05-03T13:12:25.701Z</time></trkpt><trkpt lat="41.6685578" lon="19.6485368"><ele>3.0</ele><time>2026-05-03T13:12:26.7Z</time></trkpt><trkpt lat="41.668589" lon="19.6487408"><ele>3.0</ele><time>2026-05-03T13:12:27.702Z</time></trkpt><trkpt lat="41.6686291" lon="19.6489303"><ele>3.0</ele><time>2026-05-03T13:12:28.703Z</time></trkpt><trkpt lat="41.6686673" lon="19.6491347"><ele>3.0</ele><time>2026-05-03T13:12:29.703Z</time></trkpt><trkpt lat="41.6687143" lon="19.6493369"><ele>3.0</ele><time>2026-05-03T13:12:30.702Z</time></trkpt><trkpt lat="41.6687514" lon="19.64954"><ele>3.0</ele><time>2026-05-03T13:12:31.703Z</time></trkpt><trkpt lat="41.668786" lon="19.6497405"><ele>3.333333333333333</ele><time>2026-05-03T13:12:32.704Z</time></trkpt><trkpt lat="41.6688152" lon="19.6499461"><ele>3.6666666666666665</ele><time>2026-05-03T13:12:33.703Z</time></trkpt><trkpt lat="41.6688611" lon="19.6501495"><ele>4.0</ele><time>2026-05-03T13:12:34.704Z</time></trkpt><trkpt lat="41.6689028" lon="19.6503444"><ele>4.333333333333333</ele><time>2026-05-03T13:12:35.699Z</time></trkpt><trkpt lat="41.6689376" lon="19.6505553"><ele>4.666666666666667</ele><time>2026-05-03T13:12:36.701Z</time></trkpt><trkpt lat="41.6689729" lon="19.6507626"><ele>5.0</ele><time>2026-05-03T13:12:37.702Z</time></trkpt><trkpt lat="41.669016" lon="19.650966"><ele>5.666666666666667</ele><time>2026-05-03T13:12:38.703Z</time></trkpt><trkpt lat="41.6690625" lon="19.6511697"><ele>6.333333333333334</ele><time>2026-05-03T13:12:39.703Z</time></trkpt><trkpt lat="41.6691214" lon="19.6513671"><ele>7.0</ele><time>2026-05-03T13:12:40.702Z</time></trkpt><trkpt lat="41.6691874" lon="19.651567"><ele>7.0</ele><time>2026-05-03T13:12:41.7Z</time></trkpt><trkpt lat="41.6692565" lon="19.6517701"><ele>7.0</ele><time>2026-05-03T13:12:42.702Z</time></trkpt><trkpt lat="41.6693268" lon="19.6519804"><ele>7.0</ele><time>2026-05-03T13:12:43.702Z</time></trkpt><trkpt lat="41.6693902" lon="19.6521874"><ele>6.666666666666667</ele><time>2026-05-03T13:12:44.704Z</time></trkpt><trkpt lat="41.6694534" lon="19.6523914"><ele>6.333333333333334</ele><time>2026-05-03T13:12:45.7Z</time></trkpt><trkpt lat="41.6695182" lon="19.6526097"><ele>6.0</ele><time>2026-05-03T13:12:46.703Z</time></trkpt><trkpt lat="41.6695818" lon="19.6528199"><ele>6.0</ele><time>2026-05-03T13:12:47.702Z</time></trkpt><trkpt lat="41.6696482" lon="19.6530254"><ele>6.0</ele><time>2026-05-03T13:12:48.7Z</time></trkpt><trkpt lat="41.6697146" lon="19.6532264"><ele>6.0</ele><time>2026-05-03T13:12:49.701Z</time></trkpt><trkpt lat="41.6697826" lon="19.6534406"><ele>5.666666666666667</ele><time>2026-05-03T13:12:50.703Z</time></trkpt><trkpt lat="41.6698554" lon="19.6536461"><ele>5.333333333333334</ele><time>2026-05-03T13:12:51.703Z</time></trkpt><trkpt lat="41.6699245" lon="19.6538662"><ele>5.0</ele><time>2026-05-03T13:12:52.703Z</time></trkpt><trkpt lat="41.6699892" lon="19.6540584"><ele>5.0</ele><time>2026-05-03T13:12:53.701Z</time></trkpt><trkpt lat="41.6700565" lon="19.654259"><ele>5.0</ele><time>2026-05-03T13:12:54.704Z</time></trkpt><trkpt lat="41.6701267" lon="19.6544597"><ele>5.0</ele><time>2026-05-03T13:12:55.704Z</time></trkpt><trkpt lat="41.6701955" lon="19.6546564"><ele>5.25</ele><time>2026-05-03T13:12:56.704Z</time></trkpt><trkpt lat="41.6702654" lon="19.654841"><ele>5.5</ele><time>2026-05-03T13:12:57.703Z</time></trkpt><trkpt lat="41.670325" lon="19.6550209"><ele>5.75</ele><time>2026-05-03T13:12:58.702Z</time></trkpt><trkpt lat="41.6703829" lon="19.6551885"><ele>6.0</ele><time>2026-05-03T13:12:59.703Z</time></trkpt><trkpt lat="41.6704386" lon="19.6553456"><ele>5.5</ele><time>2026-05-03T13:13:00.703Z</time></trkpt><trkpt lat="41.6704804" lon="19.6555143"><ele>5.0</ele><time>2026-05-03T13:13:01.703Z</time></trkpt><trkpt lat="41.6705074" lon="19.6556953"><ele>4.5</ele><time>2026-05-03T13:13:02.703Z</time></trkpt><trkpt lat="41.6705184" lon="19.6558938"><ele>4.0</ele><time>2026-05-03T13:13:03.701Z</time></trkpt><trkpt lat="41.6705287" lon="19.6561018"><ele>4.333333333333333</ele><time>2026-05-03T13:13:04.702Z</time></trkpt><trkpt lat="41.6705391" lon="19.6563057"><ele>4.666666666666667</ele><time>2026-05-03T13:13:05.7Z</time></trkpt><trkpt lat="41.67055" lon="19.6565217"><ele>5.0</ele><time>2026-05-03T13:13:06.701Z</time></trkpt><trkpt lat="41.6705671" lon="19.6567461"><ele>5.0</ele><time>2026-05-03T13:13:07.703Z</time></trkpt><trkpt lat="41.670581" lon="19.6569717"><ele>5.0</ele><time>2026-05-03T13:13:08.702Z</time></trkpt><trkpt lat="41.6705921" lon="19.6571894"><ele>5.0</ele><time>2026-05-03T13:13:09.702Z</time></trkpt><trkpt lat="41.6706041" lon="19.6574133"><ele>5.0</ele><time>2026-05-03T13:13:10.704Z</time></trkpt><trkpt lat="41.6706114" lon="19.6576271"><ele>5.0</ele><time>2026-05-03T13:13:11.702Z</time></trkpt><trkpt lat="41.6706226" lon="19.6578348"><ele>5.0</ele><time>2026-05-03T13:13:12.704Z</time></trkpt><trkpt lat="41.6706305" lon="19.6580315"><ele>5.0</ele><time>2026-05-03T13:13:13.701Z</time></trkpt><trkpt lat="41.6706434" lon="19.6582305"><ele>5.0</ele><time>2026-05-03T13:13:14.703Z</time></trkpt><trkpt lat="41.6706603" lon="19.658439"><ele>5.0</ele><time>2026-05-03T13:13:15.698Z</time></trkpt><trkpt lat="41.6706861" lon="19.6586442"><ele>5.0</ele><time>2026-05-03T13:13:16.702Z</time></trkpt><trkpt lat="41.6707169" lon="19.6588506"><ele>5.0</ele><time>2026-05-03T13:13:17.7Z</time></trkpt><trkpt lat="41.6707687" lon="19.6590676"><ele>5.0</ele><time>2026-05-03T13:13:18.702Z</time></trkpt><trkpt lat="41.6708257" lon="19.6592915"><ele>4.666666666666667</ele><time>2026-05-03T13:13:19.702Z</time></trkpt><trkpt lat="41.6708855" lon="19.6595112"><ele>4.333333333333333</ele><time>2026-05-03T13:13:20.699Z</time></trkpt><trkpt lat="41.670947" lon="19.6597256"><ele>4.0</ele><time>2026-05-03T13:13:21.7Z</time></trkpt><trkpt lat="41.6710031" lon="19.6599275"><ele>4.0</ele><time>2026-05-03T13:13:22.702Z</time></trkpt><trkpt lat="41.6710594" lon="19.6601137"><ele>4.0</ele><time>2026-05-03T13:13:23.703Z</time></trkpt><trkpt lat="41.671107" lon="19.6602874"><ele>4.0</ele><time>2026-05-03T13:13:24.701Z</time></trkpt><trkpt lat="41.6711623" lon="19.6604651"><ele>4.0</ele><time>2026-05-03T13:13:25.701Z</time></trkpt><trkpt lat="41.6712424" lon="19.6606331"><ele>4.666666666666666</ele><time>2026-05-03T13:13:26.699Z</time></trkpt><trkpt lat="41.671342" lon="19.6607898"><ele>5.333333333333333</ele><time>2026-05-03T13:13:27.698Z</time></trkpt><trkpt lat="41.6714623" lon="19.6609459"><ele>6.0</ele><time>2026-05-03T13:13:28.703Z</time></trkpt><trkpt lat="41.6715924" lon="19.6611015"><ele>6.333333333333334</ele><time>2026-05-03T13:13:29.698Z</time></trkpt><trkpt lat="41.6717246" lon="19.661255"><ele>6.666666666666667</ele><time>2026-05-03T13:13:30.701Z</time></trkpt><trkpt lat="41.6718579" lon="19.6614182"><ele>7.0</ele><time>2026-05-03T13:13:31.702Z</time></trkpt><trkpt lat="41.671987" lon="19.6615817"><ele>6.666666666666667</ele><time>2026-05-03T13:13:32.702Z</time></trkpt><trkpt lat="41.6721165" lon="19.661742"><ele>6.333333333333334</ele><time>2026-05-03T13:13:33.7Z</time></trkpt><trkpt lat="41.6722444" lon="19.6618898"><ele>6.0</ele><time>2026-05-03T13:13:34.7Z</time></trkpt><trkpt lat="41.6723694" lon="19.6620417"><ele>6.0</ele><time>2026-05-03T13:13:35.703Z</time></trkpt><trkpt lat="41.6724936" lon="19.6621892"><ele>6.0</ele><time>2026-05-03T13:13:36.702Z</time></trkpt><trkpt lat="41.6726123" lon="19.6623306"><ele>6.0</ele><time>2026-05-03T13:13:37.702Z</time></trkpt><trkpt lat="41.6727181" lon="19.6624665"><ele>6.0</ele><time>2026-05-03T13:13:38.702Z</time></trkpt><trkpt lat="41.6728147" lon="19.6626143"><ele>6.0</ele><time>2026-05-03T13:13:39.7Z</time></trkpt><trkpt lat="41.6728854" lon="19.662772"><ele>6.0</ele><time>2026-05-03T13:13:40.703Z</time></trkpt><trkpt lat="41.6729422" lon="19.6629563"><ele>6.0</ele><time>2026-05-03T13:13:41.701Z</time></trkpt><trkpt lat="41.6729881" lon="19.6631425"><ele>6.0</ele><time>2026-05-03T13:13:42.702Z</time></trkpt><trkpt lat="41.6730225" lon="19.6633215"><ele>6.0</ele><time>2026-05-03T13:13:43.7Z</time></trkpt><trkpt lat="41.6730544" lon="19.6635027"><ele>6.0</ele><time>2026-05-03T13:13:44.702Z</time></trkpt><trkpt lat="41.673077" lon="19.6636811"><ele>6.0</ele><time>2026-05-03T13:13:45.7Z</time></trkpt><trkpt lat="41.6730936" lon="19.6638775"><ele>5.333333333333333</ele><time>2026-05-03T13:13:46.701Z</time></trkpt><trkpt lat="41.6731092" lon="19.6640746"><ele>4.666666666666666</ele><time>2026-05-03T13:13:47.701Z</time></trkpt><trkpt lat="41.6731273" lon="19.6642724"><ele>4.0</ele><time>2026-05-03T13:13:48.702Z</time></trkpt><trkpt lat="41.6731479" lon="19.664475"><ele>4.0</ele><time>2026-05-03T13:13:49.702Z</time></trkpt><trkpt lat="41.6731591" lon="19.6646541"><ele>4.0</ele><time>2026-05-03T13:13:50.703Z</time></trkpt><trkpt lat="41.6731787" lon="19.6648155"><ele>4.0</ele><time>2026-05-03T13:13:51.704Z</time></trkpt><trkpt lat="41.6731861" lon="19.6649563"><ele>4.0</ele><time>2026-05-03T13:13:52.703Z</time></trkpt><trkpt lat="41.6731916" lon="19.6650732"><ele>4.0</ele><time>2026-05-03T13:13:53.701Z</time></trkpt><trkpt lat="41.6731955" lon="19.6651739"><ele>3.9999999999999996</ele><time>2026-05-03T13:13:54.702Z</time></trkpt><trkpt lat="41.673202" lon="19.6652666"><ele>4.0</ele><time>2026-05-03T13:13:55.701Z</time></trkpt><trkpt lat="41.6732167" lon="19.6653674"><ele>4.0</ele><time>2026-05-03T13:13:56.702Z</time></trkpt><trkpt lat="41.6732378" lon="19.6654744"><ele>4.0</ele><time>2026-05-03T13:13:57.703Z</time></trkpt><trkpt lat="41.6732658" lon="19.6655814"><ele>3.9999999999999996</ele><time>2026-05-03T13:13:58.7Z</time></trkpt><trkpt lat="41.6732904" lon="19.6656924"><ele>4.0</ele><time>2026-05-03T13:13:59.702Z</time></trkpt><trkpt lat="41.6733172" lon="19.6658092"><ele>4.0</ele><time>2026-05-03T13:14:00.703Z</time></trkpt><trkpt lat="41.6733564" lon="19.665925"><ele>4.0</ele><time>2026-05-03T13:14:01.7Z</time></trkpt><trkpt lat="41.673395" lon="19.6660366"><ele>4.0</ele><time>2026-05-03T13:14:02.702Z</time></trkpt><trkpt lat="41.6734316" lon="19.6661698"><ele>4.0</ele><time>2026-05-03T13:14:03.7Z</time></trkpt><trkpt lat="41.6734783" lon="19.6663139"><ele>4.0</ele><time>2026-05-03T13:14:04.7Z</time></trkpt><trkpt lat="41.6735129" lon="19.6664589"><ele>4.5</ele><time>2026-05-03T13:14:05.697Z</time></trkpt><trkpt lat="41.673552" lon="19.6666119"><ele>5.0</ele><time>2026-05-03T13:14:06.701Z</time></trkpt><trkpt lat="41.6735843" lon="19.666764"><ele>5.5</ele><time>2026-05-03T13:14:07.699Z</time></trkpt><trkpt lat="41.6736064" lon="19.6669249"><ele>6.0</ele><time>2026-05-03T13:14:08.702Z</time></trkpt><trkpt lat="41.6736267" lon="19.667095"><ele>6.0</ele><time>2026-05-03T13:14:09.703Z</time></trkpt><trkpt lat="41.673644" lon="19.6672788"><ele>6.0</ele><time>2026-05-03T13:14:10.703Z</time></trkpt><trkpt lat="41.6736652" lon="19.6674679"><ele>6.0</ele><time>2026-05-03T13:14:11.701Z</time></trkpt><trkpt lat="41.6736985" lon="19.6676635"><ele>6.0</ele><time>2026-05-03T13:14:12.704Z</time></trkpt><trkpt lat="41.673718" lon="19.6678605"><ele>6.333333333333334</ele><time>2026-05-03T13:14:13.703Z</time></trkpt><trkpt lat="41.6737309" lon="19.6680605"><ele>6.666666666666667</ele><time>2026-05-03T13:14:14.701Z</time></trkpt><trkpt lat="41.6737561" lon="19.6682615"><ele>7.0</ele><time>2026-05-03T13:14:15.704Z</time></trkpt><trkpt lat="41.6737815" lon="19.6684614"><ele>6.333333333333334</ele><time>2026-05-03T13:14:16.703Z</time></trkpt><trkpt lat="41.6738076" lon="19.668655"><ele>5.666666666666667</ele><time>2026-05-03T13:14:17.704Z</time></trkpt><trkpt lat="41.6738452" lon="19.6688512"><ele>5.0</ele><time>2026-05-03T13:14:18.7Z</time></trkpt><trkpt lat="41.6738925" lon="19.6690459"><ele>5.0</ele><time>2026-05-03T13:14:19.703Z</time></trkpt><trkpt lat="41.6739447" lon="19.6692411"><ele>5.0</ele><time>2026-05-03T13:14:20.704Z</time></trkpt><trkpt lat="41.6740028" lon="19.6694327"><ele>5.0</ele><time>2026-05-03T13:14:21.703Z</time></trkpt><trkpt lat="41.6740664" lon="19.6696254"><ele>5.666666666666667</ele><time>2026-05-03T13:14:22.703Z</time></trkpt><trkpt lat="41.6741324" lon="19.669821"><ele>6.333333333333334</ele><time>2026-05-03T13:14:23.703Z</time></trkpt><trkpt lat="41.6742046" lon="19.6700242"><ele>7.0</ele><time>2026-05-03T13:14:24.701Z</time></trkpt><trkpt lat="41.6742744" lon="19.6702379"><ele>6.666666666666667</ele><time>2026-05-03T13:14:25.703Z</time></trkpt><trkpt lat="41.6743416" lon="19.670452"><ele>6.333333333333334</ele><time>2026-05-03T13:14:26.701Z</time></trkpt><trkpt lat="41.6744108" lon="19.6706743"><ele>6.0</ele><time>2026-05-03T13:14:27.704Z</time></trkpt><trkpt lat="41.6744759" lon="19.6708948"><ele>6.333333333333334</ele><time>2026-05-03T13:14:28.703Z</time></trkpt><trkpt lat="41.6745442" lon="19.6711262"><ele>6.666666666666667</ele><time>2026-05-03T13:14:29.703Z</time></trkpt><trkpt lat="41.6746019" lon="19.671347"><ele>7.0</ele><time>2026-05-03T13:14:30.703Z</time></trkpt><trkpt lat="41.6746574" lon="19.6715574"><ele>7.0</ele><time>2026-05-03T13:14:31.703Z</time></trkpt><trkpt lat="41.6747086" lon="19.6717577"><ele>7.0</ele><time>2026-05-03T13:14:32.7Z</time></trkpt><trkpt lat="41.674754" lon="19.6719465"><ele>7.0</ele><time>2026-05-03T13:14:33.701Z</time></trkpt><trkpt lat="41.6747941" lon="19.6721278"><ele>7.0</ele><time>2026-05-03T13:14:34.703Z</time></trkpt><trkpt lat="41.674823" lon="19.6723047"><ele>7.0</ele><time>2026-05-03T13:14:35.703Z</time></trkpt><trkpt lat="41.674847" lon="19.6724829"><ele>7.0</ele><time>2026-05-03T13:14:36.699Z</time></trkpt><trkpt lat="41.6748668" lon="19.672651"><ele>7.0</ele><time>2026-05-03T13:14:37.7Z</time></trkpt><trkpt lat="41.6748761" lon="19.6728122"><ele>7.0</ele><time>2026-05-03T13:14:38.701Z</time></trkpt><trkpt lat="41.6748731" lon="19.67297"><ele>7.3999999999999995</ele><time>2026-05-03T13:14:39.699Z</time></trkpt><trkpt lat="41.6748612" lon="19.6731188"><ele>7.799999999999999</ele><time>2026-05-03T13:14:40.703Z</time></trkpt><trkpt lat="41.6748359" lon="19.6732566"><ele>8.2</ele><time>2026-05-03T13:14:41.701Z</time></trkpt><trkpt lat="41.6748024" lon="19.6733715"><ele>8.6</ele><time>2026-05-03T13:14:42.701Z</time></trkpt><trkpt lat="41.6747704" lon="19.6734735"><ele>9.0</ele><time>2026-05-03T13:14:43.699Z</time></trkpt><trkpt lat="41.6747452" lon="19.6735748"><ele>8.833333333333334</ele><time>2026-05-03T13:14:44.702Z</time></trkpt><trkpt lat="41.6747173" lon="19.673678"><ele>8.666666666666666</ele><time>2026-05-03T13:14:45.704Z</time></trkpt><trkpt lat="41.6746906" lon="19.673782"><ele>8.5</ele><time>2026-05-03T13:14:46.701Z</time></trkpt><trkpt lat="41.6746775" lon="19.6738719"><ele>8.333333333333332</ele><time>2026-05-03T13:14:47.702Z</time></trkpt><trkpt lat="41.6746661" lon="19.6739565"><ele>8.166666666666666</ele><time>2026-05-03T13:14:48.699Z</time></trkpt><trkpt lat="41.6746695" lon="19.6741049"><ele>8.0</ele><time>2026-05-03T13:14:50.701Z</time></trkpt><trkpt lat="41.6746615" lon="19.674198"><ele>7.999999999999999</ele><time>2026-05-03T13:14:52.702Z</time></trkpt><trkpt lat="41.6746449" lon="19.6743161"><ele>8.0</ele><time>2026-05-03T13:14:55.699Z</time></trkpt><trkpt lat="41.6746186" lon="19.6743978"><ele>8.0</ele><time>2026-05-03T13:14:57.699Z</time></trkpt><trkpt lat="41.6745851" lon="19.6744741"><ele>8.0</ele><time>2026-05-03T13:14:59.699Z</time></trkpt><trkpt lat="41.6746158" lon="19.6745518"><ele>7.999999999999999</ele><time>2026-05-03T13:15:02.702Z</time></trkpt><trkpt lat="41.6746696" lon="19.6744569"><ele>8.0</ele><time>2026-05-03T13:15:05.702Z</time></trkpt><trkpt lat="41.674673" lon="19.6742954"><ele>7.999999999999999</ele><time>2026-05-03T13:15:07.704Z</time></trkpt><trkpt lat="41.6746769" lon="19.674204"><ele>8.0</ele><time>2026-05-03T13:15:08.702Z</time></trkpt><trkpt lat="41.6746852" lon="19.674109"><ele>8.0</ele><time>2026-05-03T13:15:09.7Z</time></trkpt><trkpt lat="41.6746865" lon="19.6740195"><ele>8.0</ele><time>2026-05-03T13:15:10.698Z</time></trkpt><trkpt lat="41.6746817" lon="19.6738895"><ele>7.999999999999999</ele><time>2026-05-03T13:15:12.7Z</time></trkpt><trkpt lat="41.6746499" lon="19.6737942"><ele>8.0</ele><time>2026-05-03T13:15:14.7Z</time></trkpt><trkpt lat="41.6745743" lon="19.6737632"><ele>7.999999999999999</ele><time>2026-05-03T13:15:16.701Z</time></trkpt><trkpt lat="41.6744763" lon="19.6737741"><ele>8.0</ele><time>2026-05-03T13:15:18.703Z</time></trkpt><trkpt lat="41.6744138" lon="19.6737869"><ele>8.0</ele><time>2026-05-03T13:15:19.7Z</time></trkpt><trkpt lat="41.6743378" lon="19.67381"><ele>8.0</ele><time>2026-05-03T13:15:20.702Z</time></trkpt><trkpt lat="41.6742529" lon="19.6738317"><ele>7.999999999999999</ele><time>2026-05-03T13:15:21.702Z</time></trkpt><trkpt lat="41.6741543" lon="19.6738552"><ele>8.0</ele><time>2026-05-03T13:15:22.702Z</time></trkpt><trkpt lat="41.67405" lon="19.6738739"><ele>7.800000000000001</ele><time>2026-05-03T13:15:23.702Z</time></trkpt><trkpt lat="41.673949" lon="19.6738905"><ele>7.6000000000000005</ele><time>2026-05-03T13:15:24.7Z</time></trkpt><trkpt lat="41.673854" lon="19.6738992"><ele>7.3999999999999995</ele><time>2026-05-03T13:15:25.702Z</time></trkpt><trkpt lat="41.6737671" lon="19.6739041"><ele>7.199999999999999</ele><time>2026-05-03T13:15:26.698Z</time></trkpt><trkpt lat="41.6736978" lon="19.6739141"><ele>7.0</ele><time>2026-05-03T13:15:27.703Z</time></trkpt><trkpt lat="41.6735932" lon="19.6739211"><ele>7.000000000000001</ele><time>2026-05-03T13:15:29.702Z</time></trkpt><trkpt lat="41.6735285" lon="19.6739238"><ele>7.0</ele><time>2026-05-03T13:15:36.7Z</time></trkpt><trkpt lat="41.6735662" lon="19.6740174"><ele>7.0</ele><time>2026-05-03T13:16:39.704Z</time></trkpt><trkpt lat="41.673636" lon="19.6740339"><ele>7.0</ele><time>2026-05-03T13:16:40.701Z</time></trkpt><trkpt lat="41.6737348" lon="19.674035"><ele>7.000000000000001</ele><time>2026-05-03T13:16:41.701Z</time></trkpt><trkpt lat="41.6738678" lon="19.6740356"><ele>7.0</ele><time>2026-05-03T13:16:42.7Z</time></trkpt><trkpt lat="41.6740102" lon="19.6740319"><ele>7.0</ele><time>2026-05-03T13:16:43.7Z</time></trkpt><trkpt lat="41.6741603" lon="19.6740282"><ele>7.0</ele><time>2026-05-03T13:16:44.701Z</time></trkpt><trkpt lat="41.6743115" lon="19.6740226"><ele>7.0</ele><time>2026-05-03T13:16:45.701Z</time></trkpt><trkpt lat="41.6744652" lon="19.6740074"><ele>7.333333333333334</ele><time>2026-05-03T13:16:46.698Z</time></trkpt><trkpt lat="41.6746146" lon="19.6739988"><ele>7.666666666666666</ele><time>2026-05-03T13:16:47.7Z</time></trkpt><trkpt lat="41.674769" lon="19.673994"><ele>8.0</ele><time>2026-05-03T13:16:48.701Z</time></trkpt><trkpt lat="41.674916" lon="19.6739892"><ele>8.0</ele><time>2026-05-03T13:16:49.701Z</time></trkpt><trkpt lat="41.6750604" lon="19.6739757"><ele>8.0</ele><time>2026-05-03T13:16:50.7Z</time></trkpt><trkpt lat="41.6752044" lon="19.6739666"><ele>8.0</ele><time>2026-05-03T13:16:51.701Z</time></trkpt><trkpt lat="41.6753636" lon="19.6739547"><ele>8.0</ele><time>2026-05-03T13:16:52.7Z</time></trkpt><trkpt lat="41.6755249" lon="19.6739571"><ele>8.666666666666666</ele><time>2026-05-03T13:16:53.702Z</time></trkpt><trkpt lat="41.6757012" lon="19.6739406"><ele>9.333333333333334</ele><time>2026-05-03T13:16:54.7Z</time></trkpt><trkpt lat="41.6758712" lon="19.6739238"><ele>10.0</ele><time>2026-05-03T13:16:55.702Z</time></trkpt><trkpt lat="41.676043" lon="19.6739033"><ele>10.0</ele><time>2026-05-03T13:16:56.7Z</time></trkpt><trkpt lat="41.6762118" lon="19.673885"><ele>10.0</ele><time>2026-05-03T13:16:57.7Z</time></trkpt><trkpt lat="41.6763748" lon="19.6738649"><ele>10.0</ele><time>2026-05-03T13:16:58.703Z</time></trkpt><trkpt lat="41.676533" lon="19.6738436"><ele>10.0</ele><time>2026-05-03T13:16:59.7Z</time></trkpt><trkpt lat="41.6766917" lon="19.6738205"><ele>10.0</ele><time>2026-05-03T13:17:00.703Z</time></trkpt><trkpt lat="41.6768513" lon="19.6737966"><ele>10.0</ele><time>2026-05-03T13:17:01.701Z</time></trkpt><trkpt lat="41.6770104" lon="19.6737745"><ele>9.0</ele><time>2026-05-03T13:17:02.703Z</time></trkpt><trkpt lat="41.6771695" lon="19.6737449"><ele>8.0</ele><time>2026-05-03T13:17:03.703Z</time></trkpt><trkpt lat="41.6773313" lon="19.6737169"><ele>7.0</ele><time>2026-05-03T13:17:04.701Z</time></trkpt><trkpt lat="41.6774925" lon="19.6736789"><ele>7.0</ele><time>2026-05-03T13:17:05.7Z</time></trkpt><trkpt lat="41.6776468" lon="19.6736469"><ele>7.0</ele><time>2026-05-03T13:17:06.701Z</time></trkpt><trkpt lat="41.6777985" lon="19.6736108"><ele>7.0</ele><time>2026-05-03T13:17:07.702Z</time></trkpt><trkpt lat="41.6779494" lon="19.6735752"><ele>7.25</ele><time>2026-05-03T13:17:08.702Z</time></trkpt><trkpt lat="41.6781032" lon="19.6735492"><ele>7.5</ele><time>2026-05-03T13:17:09.702Z</time></trkpt><trkpt lat="41.6782497" lon="19.6735214"><ele>7.75</ele><time>2026-05-03T13:17:10.702Z</time></trkpt><trkpt lat="41.6783941" lon="19.6734922"><ele>8.0</ele><time>2026-05-03T13:17:11.702Z</time></trkpt><trkpt lat="41.6785346" lon="19.6734629"><ele>7.5</ele><time>2026-05-03T13:17:12.699Z</time></trkpt><trkpt lat="41.6786742" lon="19.6734298"><ele>7.0</ele><time>2026-05-03T13:17:13.698Z</time></trkpt><trkpt lat="41.6788161" lon="19.6733986"><ele>6.5</ele><time>2026-05-03T13:17:14.701Z</time></trkpt><trkpt lat="41.6789592" lon="19.6733671"><ele>6.0</ele><time>2026-05-03T13:17:15.702Z</time></trkpt><trkpt lat="41.6790995" lon="19.6733361"><ele>6.0</ele><time>2026-05-03T13:17:16.703Z</time></trkpt><trkpt lat="41.6792435" lon="19.6732999"><ele>6.0</ele><time>2026-05-03T13:17:17.703Z</time></trkpt><trkpt lat="41.6793999" lon="19.6732661"><ele>6.0</ele><time>2026-05-03T13:17:18.7Z</time></trkpt><trkpt lat="41.6795497" lon="19.6732359"><ele>6.666666666666666</ele><time>2026-05-03T13:17:19.701Z</time></trkpt><trkpt lat="41.6797021" lon="19.6731915"><ele>7.333333333333333</ele><time>2026-05-03T13:17:20.703Z</time></trkpt><trkpt lat="41.6798535" lon="19.6731551"><ele>8.0</ele><time>2026-05-03T13:17:21.703Z</time></trkpt><trkpt lat="41.6800079" lon="19.67312"><ele>8.0</ele><time>2026-05-03T13:17:22.702Z</time></trkpt><trkpt lat="41.680161" lon="19.6730851"><ele>8.0</ele><time>2026-05-03T13:17:23.702Z</time></trkpt><trkpt lat="41.6803157" lon="19.6730458"><ele>8.0</ele><time>2026-05-03T13:17:24.699Z</time></trkpt><trkpt lat="41.6804797" lon="19.6729989"><ele>8.0</ele><time>2026-05-03T13:17:25.703Z</time></trkpt><trkpt lat="41.6806443" lon="19.6729576"><ele>8.0</ele><time>2026-05-03T13:17:26.703Z</time></trkpt><trkpt lat="41.6808066" lon="19.6729191"><ele>8.0</ele><time>2026-05-03T13:17:27.703Z</time></trkpt><trkpt lat="41.6809662" lon="19.6728777"><ele>8.333333333333332</ele><time>2026-05-03T13:17:28.701Z</time></trkpt><trkpt lat="41.6811246" lon="19.6728334"><ele>8.666666666666666</ele><time>2026-05-03T13:17:29.701Z</time></trkpt><trkpt lat="41.6812847" lon="19.6727936"><ele>9.0</ele><time>2026-05-03T13:17:30.703Z</time></trkpt><trkpt lat="41.6814487" lon="19.6727527"><ele>7.666666666666667</ele><time>2026-05-03T13:17:31.7Z</time></trkpt><trkpt lat="41.6816079" lon="19.6727207"><ele>6.333333333333334</ele><time>2026-05-03T13:17:32.702Z</time></trkpt><trkpt lat="41.681767" lon="19.6726841"><ele>5.0</ele><time>2026-05-03T13:17:33.702Z</time></trkpt><trkpt lat="41.6819235" lon="19.6726504"><ele>4.666666666666667</ele><time>2026-05-03T13:17:34.703Z</time></trkpt><trkpt lat="41.6820798" lon="19.6726139"><ele>4.333333333333333</ele><time>2026-05-03T13:17:35.701Z</time></trkpt><trkpt lat="41.6822345" lon="19.6725762"><ele>4.0</ele><time>2026-05-03T13:17:36.703Z</time></trkpt><trkpt lat="41.6823902" lon="19.6725351"><ele>4.0</ele><time>2026-05-03T13:17:37.702Z</time></trkpt><trkpt lat="41.6825506" lon="19.6724948"><ele>4.0</ele><time>2026-05-03T13:17:38.702Z</time></trkpt><trkpt lat="41.6827155" lon="19.6724553"><ele>4.0</ele><time>2026-05-03T13:17:39.703Z</time></trkpt><trkpt lat="41.682884" lon="19.6724141"><ele>3.333333333333333</ele><time>2026-05-03T13:17:40.703Z</time></trkpt><trkpt lat="41.6830601" lon="19.6723734"><ele>2.6666666666666665</ele><time>2026-05-03T13:17:41.704Z</time></trkpt><trkpt lat="41.6832398" lon="19.6723279"><ele>2.0</ele><time>2026-05-03T13:17:42.702Z</time></trkpt><trkpt lat="41.6834261" lon="19.6722777"><ele>3.666666666666667</ele><time>2026-05-03T13:17:43.702Z</time></trkpt><trkpt lat="41.6836219" lon="19.6722317"><ele>5.333333333333334</ele><time>2026-05-03T13:17:44.701Z</time></trkpt><trkpt lat="41.6838224" lon="19.6721851"><ele>7.0</ele><time>2026-05-03T13:17:45.702Z</time></trkpt><trkpt lat="41.6840309" lon="19.6721318"><ele>7.0</ele><time>2026-05-03T13:17:46.704Z</time></trkpt><trkpt lat="41.6842468" lon="19.6720773"><ele>7.0</ele><time>2026-05-03T13:17:47.703Z</time></trkpt><trkpt lat="41.684461" lon="19.6720309"><ele>7.0</ele><time>2026-05-03T13:17:48.701Z</time></trkpt><trkpt lat="41.6846761" lon="19.6719769"><ele>7.0</ele><time>2026-05-03T13:17:49.703Z</time></trkpt><trkpt lat="41.6848824" lon="19.6719266"><ele>7.0</ele><time>2026-05-03T13:17:50.699Z</time></trkpt><trkpt lat="41.6850855" lon="19.6718739"><ele>7.0</ele><time>2026-05-03T13:17:51.702Z</time></trkpt><trkpt lat="41.685291" lon="19.6718238"><ele>8.0</ele><time>2026-05-03T13:17:52.702Z</time></trkpt><trkpt lat="41.6854889" lon="19.671776"><ele>9.0</ele><time>2026-05-03T13:17:53.699Z</time></trkpt><trkpt lat="41.6856852" lon="19.671723"><ele>10.0</ele><time>2026-05-03T13:17:54.699Z</time></trkpt><trkpt lat="41.6858684" lon="19.6716764"><ele>10.0</ele><time>2026-05-03T13:17:55.703Z</time></trkpt><trkpt lat="41.686045" lon="19.6716399"><ele>10.0</ele><time>2026-05-03T13:17:56.703Z</time></trkpt><trkpt lat="41.6862098" lon="19.6716088"><ele>10.0</ele><time>2026-05-03T13:17:57.704Z</time></trkpt><trkpt lat="41.6863733" lon="19.6715671"><ele>9.0</ele><time>2026-05-03T13:17:58.704Z</time></trkpt><trkpt lat="41.6865314" lon="19.6715276"><ele>8.0</ele><time>2026-05-03T13:17:59.703Z</time></trkpt><trkpt lat="41.6866839" lon="19.6714896"><ele>7.0</ele><time>2026-05-03T13:18:00.703Z</time></trkpt><trkpt lat="41.6868368" lon="19.6714592"><ele>6.75</ele><time>2026-05-03T13:18:01.704Z</time></trkpt><trkpt lat="41.6869846" lon="19.6714196"><ele>6.5</ele><time>2026-05-03T13:18:02.699Z</time></trkpt><trkpt lat="41.687129" lon="19.6713929"><ele>6.25</ele><time>2026-05-03T13:18:03.702Z</time></trkpt><trkpt lat="41.6872785" lon="19.6713661"><ele>6.0</ele><time>2026-05-03T13:18:04.702Z</time></trkpt><trkpt lat="41.6874283" lon="19.6713248"><ele>6.0</ele><time>2026-05-03T13:18:05.704Z</time></trkpt><trkpt lat="41.6875845" lon="19.6712821"><ele>6.0</ele><time>2026-05-03T13:18:06.7Z</time></trkpt><trkpt lat="41.6877366" lon="19.6712418"><ele>6.0</ele><time>2026-05-03T13:18:07.7Z</time></trkpt><trkpt lat="41.6878895" lon="19.6712041"><ele>6.0</ele><time>2026-05-03T13:18:08.702Z</time></trkpt><trkpt lat="41.6880411" lon="19.6711719"><ele>6.0</ele><time>2026-05-03T13:18:09.702Z</time></trkpt><trkpt lat="41.6881873" lon="19.6711405"><ele>6.0</ele><time>2026-05-03T13:18:10.701Z</time></trkpt><trkpt lat="41.688329" lon="19.6711192"><ele>6.0</ele><time>2026-05-03T13:18:11.704Z</time></trkpt><trkpt lat="41.6884644" lon="19.6710856"><ele>6.25</ele><time>2026-05-03T13:18:12.702Z</time></trkpt><trkpt lat="41.6886008" lon="19.6710529"><ele>6.5</ele><time>2026-05-03T13:18:13.702Z</time></trkpt><trkpt lat="41.6887351" lon="19.6710216"><ele>6.75</ele><time>2026-05-03T13:18:14.7Z</time></trkpt><trkpt lat="41.6888724" lon="19.6709922"><ele>7.0</ele><time>2026-05-03T13:18:15.702Z</time></trkpt><trkpt lat="41.6890154" lon="19.670964"><ele>7.0</ele><time>2026-05-03T13:18:16.703Z</time></trkpt><trkpt lat="41.6891591" lon="19.6709279"><ele>7.0</ele><time>2026-05-03T13:18:17.701Z</time></trkpt><trkpt lat="41.689312" lon="19.6708923"><ele>7.0</ele><time>2026-05-03T13:18:18.702Z</time></trkpt><trkpt lat="41.6894648" lon="19.6708534"><ele>7.0</ele><time>2026-05-03T13:18:19.703Z</time></trkpt><trkpt lat="41.6896218" lon="19.6708095"><ele>7.0</ele><time>2026-05-03T13:18:20.7Z</time></trkpt><trkpt lat="41.6897809" lon="19.6707747"><ele>7.0</ele><time>2026-05-03T13:18:21.699Z</time></trkpt><trkpt lat="41.6899467" lon="19.6707355"><ele>7.0</ele><time>2026-05-03T13:18:22.702Z</time></trkpt><trkpt lat="41.6901146" lon="19.6706919"><ele>7.0</ele><time>2026-05-03T13:18:23.7Z</time></trkpt><trkpt lat="41.6902816" lon="19.6706548"><ele>7.0</ele><time>2026-05-03T13:18:24.7Z</time></trkpt><trkpt lat="41.6904443" lon="19.6706141"><ele>6.666666666666667</ele><time>2026-05-03T13:18:25.703Z</time></trkpt><trkpt lat="41.6906096" lon="19.6705767"><ele>6.333333333333334</ele><time>2026-05-03T13:18:26.702Z</time></trkpt><trkpt lat="41.690774" lon="19.6705375"><ele>6.0</ele><time>2026-05-03T13:18:27.703Z</time></trkpt><trkpt lat="41.6909437" lon="19.6704961"><ele>6.666666666666666</ele><time>2026-05-03T13:18:28.703Z</time></trkpt><trkpt lat="41.691112" lon="19.6704538"><ele>7.333333333333333</ele><time>2026-05-03T13:18:29.704Z</time></trkpt><trkpt lat="41.6912836" lon="19.670415"><ele>8.0</ele><time>2026-05-03T13:18:30.704Z</time></trkpt><trkpt lat="41.6914593" lon="19.6703775"><ele>8.0</ele><time>2026-05-03T13:18:31.7Z</time></trkpt><trkpt lat="41.6916371" lon="19.6703234"><ele>8.0</ele><time>2026-05-03T13:18:32.704Z</time></trkpt><trkpt lat="41.6918124" lon="19.6702826"><ele>8.0</ele><time>2026-05-03T13:18:33.703Z</time></trkpt><trkpt lat="41.6919922" lon="19.670239"><ele>7.666666666666666</ele><time>2026-05-03T13:18:34.7Z</time></trkpt><trkpt lat="41.6921686" lon="19.6701919"><ele>7.333333333333334</ele><time>2026-05-03T13:18:35.701Z</time></trkpt><trkpt lat="41.6923447" lon="19.6701477"><ele>7.0</ele><time>2026-05-03T13:18:36.701Z</time></trkpt><trkpt lat="41.692519" lon="19.6700851"><ele>7.0</ele><time>2026-05-03T13:18:37.7Z</time></trkpt><trkpt lat="41.6926913" lon="19.670044"><ele>7.0</ele><time>2026-05-03T13:18:38.702Z</time></trkpt><trkpt lat="41.6928705" lon="19.6699931"><ele>7.0</ele><time>2026-05-03T13:18:39.703Z</time></trkpt><trkpt lat="41.6930412" lon="19.6699478"><ele>7.0</ele><time>2026-05-03T13:18:40.703Z</time></trkpt><trkpt lat="41.6932104" lon="19.6699082"><ele>7.0</ele><time>2026-05-03T13:18:41.702Z</time></trkpt><trkpt lat="41.6933791" lon="19.6698716"><ele>7.0</ele><time>2026-05-03T13:18:42.703Z</time></trkpt><trkpt lat="41.6935456" lon="19.6698337"><ele>6.0</ele><time>2026-05-03T13:18:43.703Z</time></trkpt><trkpt lat="41.6937117" lon="19.6697957"><ele>5.0</ele><time>2026-05-03T13:18:44.702Z</time></trkpt><trkpt lat="41.6938789" lon="19.6697591"><ele>4.0</ele><time>2026-05-03T13:18:45.702Z</time></trkpt><trkpt lat="41.6940484" lon="19.6697192"><ele>4.0</ele><time>2026-05-03T13:18:46.702Z</time></trkpt><trkpt lat="41.6942181" lon="19.6696794"><ele>4.0</ele><time>2026-05-03T13:18:47.702Z</time></trkpt><trkpt lat="41.6943863" lon="19.6696393"><ele>4.0</ele><time>2026-05-03T13:18:48.698Z</time></trkpt><trkpt lat="41.6945576" lon="19.6696026"><ele>4.333333333333333</ele><time>2026-05-03T13:18:49.698Z</time></trkpt><trkpt lat="41.6947247" lon="19.6695576"><ele>4.666666666666667</ele><time>2026-05-03T13:18:50.702Z</time></trkpt><trkpt lat="41.6948939" lon="19.6695138"><ele>5.0</ele><time>2026-05-03T13:18:51.703Z</time></trkpt><trkpt lat="41.6950583" lon="19.6694618"><ele>5.0</ele><time>2026-05-03T13:18:52.702Z</time></trkpt><trkpt lat="41.6952336" lon="19.6694273"><ele>5.0</ele><time>2026-05-03T13:18:53.698Z</time></trkpt><trkpt lat="41.6954086" lon="19.6693822"><ele>5.0</ele><time>2026-05-03T13:18:54.7Z</time></trkpt><trkpt lat="41.6955809" lon="19.6693388"><ele>5.0</ele><time>2026-05-03T13:18:55.703Z</time></trkpt><trkpt lat="41.6957522" lon="19.6692966"><ele>5.0</ele><time>2026-05-03T13:18:56.703Z</time></trkpt><trkpt lat="41.6959254" lon="19.6692582"><ele>5.0</ele><time>2026-05-03T13:18:57.704Z</time></trkpt><trkpt lat="41.6960909" lon="19.6692202"><ele>5.0</ele><time>2026-05-03T13:18:58.702Z</time></trkpt><trkpt lat="41.6962492" lon="19.6691774"><ele>5.0</ele><time>2026-05-03T13:18:59.704Z</time></trkpt><trkpt lat="41.6964062" lon="19.669137"><ele>5.0</ele><time>2026-05-03T13:19:00.703Z</time></trkpt><trkpt lat="41.6965595" lon="19.6690981"><ele>5.0</ele><time>2026-05-03T13:19:01.7Z</time></trkpt><trkpt lat="41.6967081" lon="19.6690637"><ele>5.0</ele><time>2026-05-03T13:19:02.702Z</time></trkpt><trkpt lat="41.6968579" lon="19.669031"><ele>5.0</ele><time>2026-05-03T13:19:03.702Z</time></trkpt><trkpt lat="41.6970033" lon="19.6689962"><ele>5.0</ele><time>2026-05-03T13:19:04.703Z</time></trkpt><trkpt lat="41.6971496" lon="19.668958"><ele>5.0</ele><time>2026-05-03T13:19:05.703Z</time></trkpt><trkpt lat="41.6972973" lon="19.6689133"><ele>5.0</ele><time>2026-05-03T13:19:06.701Z</time></trkpt><trkpt lat="41.697447" lon="19.6688874"><ele>5.0</ele><time>2026-05-03T13:19:07.7Z</time></trkpt><trkpt lat="41.6975889" lon="19.6688475"><ele>5.0</ele><time>2026-05-03T13:19:08.702Z</time></trkpt><trkpt lat="41.6977232" lon="19.6688104"><ele>5.0</ele><time>2026-05-03T13:19:09.701Z</time></trkpt><trkpt lat="41.6978678" lon="19.66877"><ele>5.0</ele><time>2026-05-03T13:19:10.703Z</time></trkpt><trkpt lat="41.698009" lon="19.6687376"><ele>5.0</ele><time>2026-05-03T13:19:11.704Z</time></trkpt><trkpt lat="41.6981546" lon="19.6687069"><ele>5.0</ele><time>2026-05-03T13:19:12.702Z</time></trkpt><trkpt lat="41.6983007" lon="19.6686729"><ele>5.0</ele><time>2026-05-03T13:19:13.701Z</time></trkpt><trkpt lat="41.6984529" lon="19.6686343"><ele>4.0</ele><time>2026-05-03T13:19:14.703Z</time></trkpt><trkpt lat="41.6986057" lon="19.6685974"><ele>3.0</ele><time>2026-05-03T13:19:15.701Z</time></trkpt><trkpt lat="41.6987622" lon="19.6685642"><ele>2.0</ele><time>2026-05-03T13:19:16.702Z</time></trkpt><trkpt lat="41.6989181" lon="19.668528"><ele>2.0</ele><time>2026-05-03T13:19:17.702Z</time></trkpt><trkpt lat="41.6990753" lon="19.6684854"><ele>2.0</ele><time>2026-05-03T13:19:18.702Z</time></trkpt><trkpt lat="41.6992345" lon="19.6684476"><ele>2.0</ele><time>2026-05-03T13:19:19.702Z</time></trkpt><trkpt lat="41.6994" lon="19.6684021"><ele>2.6666666666666665</ele><time>2026-05-03T13:19:20.701Z</time></trkpt><trkpt lat="41.6995625" lon="19.6683622"><ele>3.333333333333333</ele><time>2026-05-03T13:19:21.699Z</time></trkpt><trkpt lat="41.6997246" lon="19.6683227"><ele>4.0</ele><time>2026-05-03T13:19:22.701Z</time></trkpt><trkpt lat="41.6998896" lon="19.6682835"><ele>4.0</ele><time>2026-05-03T13:19:23.699Z</time></trkpt><trkpt lat="41.7000519" lon="19.6682457"><ele>4.0</ele><time>2026-05-03T13:19:24.702Z</time></trkpt><trkpt lat="41.7002198" lon="19.6682003"><ele>4.0</ele><time>2026-05-03T13:19:25.703Z</time></trkpt><trkpt lat="41.7003795" lon="19.6681632"><ele>3.6666666666666665</ele><time>2026-05-03T13:19:26.704Z</time></trkpt><trkpt lat="41.7005387" lon="19.6681194"><ele>3.333333333333333</ele><time>2026-05-03T13:19:27.701Z</time></trkpt><trkpt lat="41.7007009" lon="19.6680773"><ele>3.0</ele><time>2026-05-03T13:19:28.699Z</time></trkpt><trkpt lat="41.7008658" lon="19.6680407"><ele>3.0</ele><time>2026-05-03T13:19:29.704Z</time></trkpt><trkpt lat="41.7010347" lon="19.6679988"><ele>3.0</ele><time>2026-05-03T13:19:30.7Z</time></trkpt><trkpt lat="41.7012009" lon="19.6679619"><ele>3.0</ele><time>2026-05-03T13:19:31.701Z</time></trkpt><trkpt lat="41.701366" lon="19.667919"><ele>3.666666666666667</ele><time>2026-05-03T13:19:32.702Z</time></trkpt><trkpt lat="41.7015304" lon="19.667883"><ele>4.333333333333334</ele><time>2026-05-03T13:19:33.702Z</time></trkpt><trkpt lat="41.7016961" lon="19.6678454"><ele>5.0</ele><time>2026-05-03T13:19:34.702Z</time></trkpt><trkpt lat="41.7018621" lon="19.6678025"><ele>4.333333333333334</ele><time>2026-05-03T13:19:35.7Z</time></trkpt><trkpt lat="41.7020265" lon="19.6677577"><ele>3.666666666666667</ele><time>2026-05-03T13:19:36.699Z</time></trkpt><trkpt lat="41.702185" lon="19.6677232"><ele>3.0</ele><time>2026-05-03T13:19:37.699Z</time></trkpt><trkpt lat="41.7023452" lon="19.667686"><ele>3.0</ele><time>2026-05-03T13:19:38.701Z</time></trkpt><trkpt lat="41.7025022" lon="19.6676494"><ele>3.0</ele><time>2026-05-03T13:19:39.701Z</time></trkpt><trkpt lat="41.7026533" lon="19.6676169"><ele>3.0</ele><time>2026-05-03T13:19:40.701Z</time></trkpt><trkpt lat="41.7028025" lon="19.6675769"><ele>3.333333333333333</ele><time>2026-05-03T13:19:41.698Z</time></trkpt><trkpt lat="41.7029515" lon="19.6675425"><ele>3.6666666666666665</ele><time>2026-05-03T13:19:42.702Z</time></trkpt><trkpt lat="41.7030972" lon="19.6675021"><ele>4.0</ele><time>2026-05-03T13:19:43.702Z</time></trkpt><trkpt lat="41.703245" lon="19.6674696"><ele>4.0</ele><time>2026-05-03T13:19:44.701Z</time></trkpt><trkpt lat="41.7033905" lon="19.667438"><ele>4.0</ele><time>2026-05-03T13:19:45.703Z</time></trkpt><trkpt lat="41.7035334" lon="19.6674091"><ele>4.0</ele><time>2026-05-03T13:19:46.701Z</time></trkpt><trkpt lat="41.7036759" lon="19.6673746"><ele>4.0</ele><time>2026-05-03T13:19:47.702Z</time></trkpt><trkpt lat="41.703817" lon="19.6673449"><ele>3.5</ele><time>2026-05-03T13:19:48.703Z</time></trkpt><trkpt lat="41.7039591" lon="19.6673067"><ele>3.0</ele><time>2026-05-03T13:19:49.701Z</time></trkpt><trkpt lat="41.7040958" lon="19.6672688"><ele>2.5</ele><time>2026-05-03T13:19:50.701Z</time></trkpt><trkpt lat="41.7042449" lon="19.6672237"><ele>2.0</ele><time>2026-05-03T13:19:51.701Z</time></trkpt><trkpt lat="41.7043914" lon="19.6671902"><ele>2.0</ele><time>2026-05-03T13:19:52.703Z</time></trkpt><trkpt lat="41.704533" lon="19.6671557"><ele>2.0</ele><time>2026-05-03T13:19:53.701Z</time></trkpt><trkpt lat="41.7046738" lon="19.6671233"><ele>2.0</ele><time>2026-05-03T13:19:54.702Z</time></trkpt><trkpt lat="41.7048142" lon="19.6670895"><ele>2.0</ele><time>2026-05-03T13:19:55.704Z</time></trkpt><trkpt lat="41.7049524" lon="19.6670583"><ele>2.0</ele><time>2026-05-03T13:19:56.703Z</time></trkpt><trkpt lat="41.7050883" lon="19.6670239"><ele>2.0</ele><time>2026-05-03T13:19:57.702Z</time></trkpt><trkpt lat="41.7052197" lon="19.6669883"><ele>2.0</ele><time>2026-05-03T13:19:58.704Z</time></trkpt><trkpt lat="41.7053529" lon="19.6669477"><ele>2.0</ele><time>2026-05-03T13:19:59.702Z</time></trkpt><trkpt lat="41.7054779" lon="19.6669184"><ele>2.25</ele><time>2026-05-03T13:20:00.703Z</time></trkpt><trkpt lat="41.7056073" lon="19.6668865"><ele>2.5</ele><time>2026-05-03T13:20:01.702Z</time></trkpt><trkpt lat="41.7057332" lon="19.6668616"><ele>2.75</ele><time>2026-05-03T13:20:02.701Z</time></trkpt><trkpt lat="41.7058547" lon="19.6668296"><ele>3.0</ele><time>2026-05-03T13:20:03.701Z</time></trkpt><trkpt lat="41.7059793" lon="19.6668018"><ele>3.5</ele><time>2026-05-03T13:20:04.7Z</time></trkpt><trkpt lat="41.7060992" lon="19.6667769"><ele>4.0</ele><time>2026-05-03T13:20:05.7Z</time></trkpt><trkpt lat="41.7062155" lon="19.6667445"><ele>4.5</ele><time>2026-05-03T13:20:06.701Z</time></trkpt><trkpt lat="41.7063344" lon="19.6667098"><ele>5.0</ele><time>2026-05-03T13:20:07.699Z</time></trkpt><trkpt lat="41.7064553" lon="19.6666814"><ele>5.0</ele><time>2026-05-03T13:20:08.702Z</time></trkpt><trkpt lat="41.7065714" lon="19.6666524"><ele>5.0</ele><time>2026-05-03T13:20:09.703Z</time></trkpt><trkpt lat="41.7066886" lon="19.6666219"><ele>5.0</ele><time>2026-05-03T13:20:10.703Z</time></trkpt><trkpt lat="41.7068024" lon="19.6665922"><ele>5.0</ele><time>2026-05-03T13:20:11.701Z</time></trkpt><trkpt lat="41.7069261" lon="19.6665569"><ele>4.25</ele><time>2026-05-03T13:20:12.704Z</time></trkpt><trkpt lat="41.7070473" lon="19.6665289"><ele>3.5</ele><time>2026-05-03T13:20:13.703Z</time></trkpt><trkpt lat="41.707174" lon="19.6664952"><ele>2.75</ele><time>2026-05-03T13:20:14.702Z</time></trkpt><trkpt lat="41.7072999" lon="19.6664723"><ele>2.0</ele><time>2026-05-03T13:20:15.703Z</time></trkpt><trkpt lat="41.7074274" lon="19.666431"><ele>2.0</ele><time>2026-05-03T13:20:16.704Z</time></trkpt><trkpt lat="41.7075603" lon="19.6664001"><ele>2.0</ele><time>2026-05-03T13:20:17.704Z</time></trkpt><trkpt lat="41.7076968" lon="19.6663719"><ele>2.0</ele><time>2026-05-03T13:20:18.704Z</time></trkpt><trkpt lat="41.7078436" lon="19.6663401"><ele>2.0</ele><time>2026-05-03T13:20:19.702Z</time></trkpt><trkpt lat="41.7079846" lon="19.6663128"><ele>2.0</ele><time>2026-05-03T13:20:20.703Z</time></trkpt><trkpt lat="41.708136" lon="19.6662769"><ele>2.0</ele><time>2026-05-03T13:20:21.699Z</time></trkpt><trkpt lat="41.708293" lon="19.6662407"><ele>2.0</ele><time>2026-05-03T13:20:22.7Z</time></trkpt><trkpt lat="41.7084636" lon="19.6662037"><ele>2.0</ele><time>2026-05-03T13:20:23.7Z</time></trkpt><trkpt lat="41.7086388" lon="19.6661687"><ele>2.0</ele><time>2026-05-03T13:20:24.701Z</time></trkpt><trkpt lat="41.7088082" lon="19.666138"><ele>2.0</ele><time>2026-05-03T13:20:25.703Z</time></trkpt><trkpt lat="41.7089853" lon="19.6660947"><ele>2.0</ele><time>2026-05-03T13:20:26.704Z</time></trkpt><trkpt lat="41.7091569" lon="19.6660504"><ele>2.0</ele><time>2026-05-03T13:20:27.701Z</time></trkpt><trkpt lat="41.7093258" lon="19.6660083"><ele>2.0</ele><time>2026-05-03T13:20:28.7Z</time></trkpt><trkpt lat="41.7094896" lon="19.6659697"><ele>1.6666666666666665</ele><time>2026-05-03T13:20:29.703Z</time></trkpt><trkpt lat="41.7096531" lon="19.6659304"><ele>1.3333333333333333</ele><time>2026-05-03T13:20:30.7Z</time></trkpt><trkpt lat="41.7098194" lon="19.6658932"><ele>1.0</ele><time>2026-05-03T13:20:31.699Z</time></trkpt><trkpt lat="41.709983" lon="19.6658469"><ele>1.0</ele><time>2026-05-03T13:20:32.7Z</time></trkpt><trkpt lat="41.7101506" lon="19.6658007"><ele>1.0</ele><time>2026-05-03T13:20:33.704Z</time></trkpt><trkpt lat="41.7103139" lon="19.6657576"><ele>1.0</ele><time>2026-05-03T13:20:34.704Z</time></trkpt><trkpt lat="41.7104778" lon="19.665722"><ele>0.0</ele><time>2026-05-03T13:20:35.701Z</time></trkpt><trkpt lat="41.710641" lon="19.6656867"><ele>-1.0</ele><time>2026-05-03T13:20:36.701Z</time></trkpt><trkpt lat="41.7108009" lon="19.6656474"><ele>-2.0</ele><time>2026-05-03T13:20:37.701Z</time></trkpt><trkpt lat="41.7109658" lon="19.665602"><ele>-1.3333333333333333</ele><time>2026-05-03T13:20:38.7Z</time></trkpt><trkpt lat="41.7111205" lon="19.6655725"><ele>-0.6666666666666666</ele><time>2026-05-03T13:20:39.702Z</time></trkpt><trkpt lat="41.7112821" lon="19.6655405"><ele>0.0</ele><time>2026-05-03T13:20:40.704Z</time></trkpt><trkpt lat="41.711444" lon="19.6655002"><ele>0.0</ele><time>2026-05-03T13:20:41.702Z</time></trkpt><trkpt lat="41.7116085" lon="19.6654638"><ele>0.0</ele><time>2026-05-03T13:20:42.702Z</time></trkpt><trkpt lat="41.7117726" lon="19.6654207"><ele>0.0</ele><time>2026-05-03T13:20:43.702Z</time></trkpt><trkpt lat="41.7119379" lon="19.6653857"><ele>0.0</ele><time>2026-05-03T13:20:44.701Z</time></trkpt><trkpt lat="41.7121063" lon="19.665331"><ele>0.0</ele><time>2026-05-03T13:20:45.7Z</time></trkpt><trkpt lat="41.7122717" lon="19.66529"><ele>0.0</ele><time>2026-05-03T13:20:46.701Z</time></trkpt><trkpt lat="41.7124405" lon="19.6652496"><ele>0.0</ele><time>2026-05-03T13:20:47.7Z</time></trkpt><trkpt lat="41.7126077" lon="19.6652077"><ele>0.0</ele><time>2026-05-03T13:20:48.701Z</time></trkpt><trkpt lat="41.7127678" lon="19.6651781"><ele>0.0</ele><time>2026-05-03T13:20:49.702Z</time></trkpt><trkpt lat="41.7129261" lon="19.6651421"><ele>0.0</ele><time>2026-05-03T13:20:50.702Z</time></trkpt><trkpt lat="41.7130914" lon="19.6650997"><ele>0.0</ele><time>2026-05-03T13:20:51.697Z</time></trkpt><trkpt lat="41.713244" lon="19.6650583"><ele>0.0</ele><time>2026-05-03T13:20:52.701Z</time></trkpt><trkpt lat="41.7133969" lon="19.6650211"><ele>0.0</ele><time>2026-05-03T13:20:53.7Z</time></trkpt><trkpt lat="41.7135559" lon="19.6649872"><ele>0.0</ele><time>2026-05-03T13:20:54.701Z</time></trkpt><trkpt lat="41.7137192" lon="19.6649488"><ele>0.0</ele><time>2026-05-03T13:20:55.702Z</time></trkpt><trkpt lat="41.7138839" lon="19.6649114"><ele>0.0</ele><time>2026-05-03T13:20:56.702Z</time></trkpt><trkpt lat="41.7140509" lon="19.6648674"><ele>0.0</ele><time>2026-05-03T13:20:57.699Z</time></trkpt><trkpt lat="41.7142223" lon="19.664809"><ele>0.0</ele><time>2026-05-03T13:20:58.703Z</time></trkpt><trkpt lat="41.7143887" lon="19.664771"><ele>-0.6666666666666666</ele><time>2026-05-03T13:20:59.703Z</time></trkpt><trkpt lat="41.7145639" lon="19.6647258"><ele>-1.3333333333333333</ele><time>2026-05-03T13:21:00.7Z</time></trkpt><trkpt lat="41.7147316" lon="19.6646822"><ele>-2.0</ele><time>2026-05-03T13:21:01.7Z</time></trkpt><trkpt lat="41.7148975" lon="19.6646447"><ele>-2.0</ele><time>2026-05-03T13:21:02.701Z</time></trkpt><trkpt lat="41.715061" lon="19.6646063"><ele>-2.0</ele><time>2026-05-03T13:21:03.701Z</time></trkpt><trkpt lat="41.7152205" lon="19.6645785"><ele>-2.0</ele><time>2026-05-03T13:21:04.699Z</time></trkpt><trkpt lat="41.7153862" lon="19.6645451"><ele>-1.6666666666666665</ele><time>2026-05-03T13:21:05.7Z</time></trkpt><trkpt lat="41.7155479" lon="19.664505"><ele>-1.3333333333333333</ele><time>2026-05-03T13:21:06.7Z</time></trkpt><trkpt lat="41.7157114" lon="19.6644712"><ele>-1.0</ele><time>2026-05-03T13:21:07.701Z</time></trkpt><trkpt lat="41.7158707" lon="19.6644312"><ele>-0.6666666666666666</ele><time>2026-05-03T13:21:08.702Z</time></trkpt><trkpt lat="41.7160278" lon="19.6643903"><ele>-0.3333333333333333</ele><time>2026-05-03T13:21:09.703Z</time></trkpt><trkpt lat="41.7161783" lon="19.6643467"><ele>0.0</ele><time>2026-05-03T13:21:10.701Z</time></trkpt><trkpt lat="41.7163307" lon="19.66431"><ele>0.0</ele><time>2026-05-03T13:21:11.702Z</time></trkpt><trkpt lat="41.7164856" lon="19.6642769"><ele>0.0</ele><time>2026-05-03T13:21:12.703Z</time></trkpt><trkpt lat="41.7166392" lon="19.6642403"><ele>0.0</ele><time>2026-05-03T13:21:13.704Z</time></trkpt><trkpt lat="41.7167944" lon="19.6641999"><ele>-0.3333333333333333</ele><time>2026-05-03T13:21:14.702Z</time></trkpt><trkpt lat="41.7169457" lon="19.6641699"><ele>-0.6666666666666666</ele><time>2026-05-03T13:21:15.703Z</time></trkpt><trkpt lat="41.717099" lon="19.6641352"><ele>-1.0</ele><time>2026-05-03T13:21:16.7Z</time></trkpt><trkpt lat="41.7172527" lon="19.6641006"><ele>-1.0</ele><time>2026-05-03T13:21:17.703Z</time></trkpt><trkpt lat="41.7174098" lon="19.6640562"><ele>-1.0</ele><time>2026-05-03T13:21:18.702Z</time></trkpt><trkpt lat="41.7175627" lon="19.6640174"><ele>-1.0</ele><time>2026-05-03T13:21:19.704Z</time></trkpt><trkpt lat="41.7177144" lon="19.6639789"><ele>-1.0</ele><time>2026-05-03T13:21:20.701Z</time></trkpt><trkpt lat="41.7178666" lon="19.6639403"><ele>-1.0</ele><time>2026-05-03T13:21:21.703Z</time></trkpt><trkpt lat="41.7180157" lon="19.6639059"><ele>-1.0</ele><time>2026-05-03T13:21:22.7Z</time></trkpt><trkpt lat="41.7181638" lon="19.6638698"><ele>-1.0</ele><time>2026-05-03T13:21:23.702Z</time></trkpt><trkpt lat="41.7183151" lon="19.6638355"><ele>-1.0</ele><time>2026-05-03T13:21:24.701Z</time></trkpt><trkpt lat="41.7184656" lon="19.6638045"><ele>-1.0</ele><time>2026-05-03T13:21:25.701Z</time></trkpt><trkpt lat="41.7186228" lon="19.6637739"><ele>0.33333333333333337</ele><time>2026-05-03T13:21:26.703Z</time></trkpt><trkpt lat="41.7187777" lon="19.6637381"><ele>1.6666666666666667</ele><time>2026-05-03T13:21:27.7Z</time></trkpt><trkpt lat="41.7189375" lon="19.6636965"><ele>3.0</ele><time>2026-05-03T13:21:28.701Z</time></trkpt><trkpt lat="41.7191017" lon="19.6636513"><ele>2.3333333333333335</ele><time>2026-05-03T13:21:29.7Z</time></trkpt><trkpt lat="41.7192707" lon="19.6635994"><ele>1.6666666666666665</ele><time>2026-05-03T13:21:30.701Z</time></trkpt><trkpt lat="41.7194408" lon="19.6635486"><ele>1.0</ele><time>2026-05-03T13:21:31.7Z</time></trkpt><trkpt lat="41.7196136" lon="19.6634925"><ele>-0.33333333333333337</ele><time>2026-05-03T13:21:32.701Z</time></trkpt><trkpt lat="41.7197777" lon="19.6634316"><ele>-1.6666666666666667</ele><time>2026-05-03T13:21:33.702Z</time></trkpt><trkpt lat="41.7199378" lon="19.6633799"><ele>-3.0</ele><time>2026-05-03T13:21:34.701Z</time></trkpt><trkpt lat="41.720086" lon="19.6633175"><ele>-3.0</ele><time>2026-05-03T13:21:35.701Z</time></trkpt><trkpt lat="41.7202328" lon="19.6632484"><ele>-3.0</ele><time>2026-05-03T13:21:36.701Z</time></trkpt><trkpt lat="41.7203764" lon="19.6631831"><ele>-3.0</ele><time>2026-05-03T13:21:37.703Z</time></trkpt><trkpt lat="41.7205202" lon="19.6631094"><ele>-1.75</ele><time>2026-05-03T13:21:38.699Z</time></trkpt><trkpt lat="41.7206635" lon="19.6630338"><ele>-0.5</ele><time>2026-05-03T13:21:39.703Z</time></trkpt><trkpt lat="41.720802" lon="19.6629593"><ele>0.75</ele><time>2026-05-03T13:21:40.703Z</time></trkpt><trkpt lat="41.7209352" lon="19.6628847"><ele>2.0</ele><time>2026-05-03T13:21:41.704Z</time></trkpt><trkpt lat="41.7210625" lon="19.662813"><ele>1.0</ele><time>2026-05-03T13:21:42.702Z</time></trkpt><trkpt lat="41.7211834" lon="19.6627468"><ele>0.0</ele><time>2026-05-03T13:21:43.698Z</time></trkpt><trkpt lat="41.7212976" lon="19.6626771"><ele>-1.0</ele><time>2026-05-03T13:21:44.7Z</time></trkpt><trkpt lat="41.7214039" lon="19.6626136"><ele>-2.0</ele><time>2026-05-03T13:21:45.7Z</time></trkpt><trkpt lat="41.7215132" lon="19.6625449"><ele>-2.0</ele><time>2026-05-03T13:21:46.702Z</time></trkpt><trkpt lat="41.7216181" lon="19.6624738"><ele>-2.0</ele><time>2026-05-03T13:21:47.701Z</time></trkpt><trkpt lat="41.7217242" lon="19.6624041"><ele>-2.0</ele><time>2026-05-03T13:21:48.701Z</time></trkpt><trkpt lat="41.7218361" lon="19.662332"><ele>-2.0</ele><time>2026-05-03T13:21:49.699Z</time></trkpt><trkpt lat="41.7219512" lon="19.662257"><ele>-0.75</ele><time>2026-05-03T13:21:50.702Z</time></trkpt><trkpt lat="41.7220695" lon="19.6621852"><ele>0.5</ele><time>2026-05-03T13:21:51.702Z</time></trkpt><trkpt lat="41.7221916" lon="19.6621114"><ele>1.75</ele><time>2026-05-03T13:21:52.701Z</time></trkpt><trkpt lat="41.722313" lon="19.6620402"><ele>3.0</ele><time>2026-05-03T13:21:53.698Z</time></trkpt><trkpt lat="41.7224292" lon="19.6619647"><ele>2.5</ele><time>2026-05-03T13:21:54.697Z</time></trkpt><trkpt lat="41.7225524" lon="19.6618844"><ele>2.0</ele><time>2026-05-03T13:21:55.7Z</time></trkpt><trkpt lat="41.7226735" lon="19.6618101"><ele>1.5</ele><time>2026-05-03T13:21:56.699Z</time></trkpt><trkpt lat="41.7227943" lon="19.6617379"><ele>1.0</ele><time>2026-05-03T13:21:57.701Z</time></trkpt><trkpt lat="41.722911" lon="19.6616548"><ele>1.0</ele><time>2026-05-03T13:21:58.702Z</time></trkpt><trkpt lat="41.723029" lon="19.6615811"><ele>1.0</ele><time>2026-05-03T13:21:59.702Z</time></trkpt><trkpt lat="41.7231471" lon="19.6615081"><ele>1.0</ele><time>2026-05-03T13:22:00.702Z</time></trkpt><trkpt lat="41.7232608" lon="19.6614341"><ele>1.0</ele><time>2026-05-03T13:22:01.701Z</time></trkpt><trkpt lat="41.7233779" lon="19.6613626"><ele>1.0</ele><time>2026-05-03T13:22:02.704Z</time></trkpt><trkpt lat="41.7234924" lon="19.6612838"><ele>1.0</ele><time>2026-05-03T13:22:03.701Z</time></trkpt><trkpt lat="41.7236104" lon="19.6612137"><ele>1.0</ele><time>2026-05-03T13:22:04.7Z</time></trkpt><trkpt lat="41.7237293" lon="19.6611429"><ele>1.0</ele><time>2026-05-03T13:22:05.7Z</time></trkpt><trkpt lat="41.7238493" lon="19.6610645"><ele>1.25</ele><time>2026-05-03T13:22:06.698Z</time></trkpt><trkpt lat="41.7239701" lon="19.6609871"><ele>1.5</ele><time>2026-05-03T13:22:07.702Z</time></trkpt><trkpt lat="41.7241089" lon="19.6608813"><ele>1.75</ele><time>2026-05-03T13:22:08.7Z</time></trkpt><trkpt lat="41.7242298" lon="19.6608053"><ele>2.0</ele><time>2026-05-03T13:22:09.704Z</time></trkpt><trkpt lat="41.7243516" lon="19.6607337"><ele>1.25</ele><time>2026-05-03T13:22:10.7Z</time></trkpt><trkpt lat="41.724471" lon="19.6606467"><ele>0.5</ele><time>2026-05-03T13:22:11.702Z</time></trkpt><trkpt lat="41.7245937" lon="19.6605713"><ele>-0.25</ele><time>2026-05-03T13:22:12.704Z</time></trkpt><trkpt lat="41.7247134" lon="19.6604975"><ele>-1.0</ele><time>2026-05-03T13:22:13.702Z</time></trkpt><trkpt lat="41.7248349" lon="19.6604222"><ele>-1.0</ele><time>2026-05-03T13:22:14.701Z</time></trkpt><trkpt lat="41.7249524" lon="19.6603498"><ele>-1.0</ele><time>2026-05-03T13:22:15.7Z</time></trkpt><trkpt lat="41.7250692" lon="19.6602812"><ele>-1.0</ele><time>2026-05-03T13:22:16.702Z</time></trkpt><trkpt lat="41.7251898" lon="19.6602057"><ele>-1.0</ele><time>2026-05-03T13:22:17.698Z</time></trkpt><trkpt lat="41.7253198" lon="19.6601089"><ele>-1.3333333333333333</ele><time>2026-05-03T13:22:18.7Z</time></trkpt><trkpt lat="41.7254562" lon="19.6600079"><ele>-1.6666666666666665</ele><time>2026-05-03T13:22:19.702Z</time></trkpt><trkpt lat="41.7255913" lon="19.6599253"><ele>-2.0</ele><time>2026-05-03T13:22:20.702Z</time></trkpt><trkpt lat="41.7257306" lon="19.6598337"><ele>-2.0</ele><time>2026-05-03T13:22:21.701Z</time></trkpt><trkpt lat="41.7258796" lon="19.6597459"><ele>-2.0</ele><time>2026-05-03T13:22:22.703Z</time></trkpt><trkpt lat="41.7260342" lon="19.6596518"><ele>-2.0</ele><time>2026-05-03T13:22:23.701Z</time></trkpt><trkpt lat="41.7261865" lon="19.6595524"><ele>-2.333333333333333</ele><time>2026-05-03T13:22:24.702Z</time></trkpt><trkpt lat="41.7263369" lon="19.6594488"><ele>-2.6666666666666665</ele><time>2026-05-03T13:22:25.703Z</time></trkpt><trkpt lat="41.7264874" lon="19.6593575"><ele>-3.0</ele><time>2026-05-03T13:22:26.702Z</time></trkpt><trkpt lat="41.7266349" lon="19.6592662"><ele>-3.0</ele><time>2026-05-03T13:22:27.7Z</time></trkpt><trkpt lat="41.7267738" lon="19.6591726"><ele>-3.0</ele><time>2026-05-03T13:22:28.7Z</time></trkpt><trkpt lat="41.7269131" lon="19.6590879"><ele>-3.0</ele><time>2026-05-03T13:22:29.701Z</time></trkpt><trkpt lat="41.7270542" lon="19.6590036"><ele>-1.6666666666666667</ele><time>2026-05-03T13:22:30.702Z</time></trkpt><trkpt lat="41.7271949" lon="19.6589175"><ele>-0.33333333333333337</ele><time>2026-05-03T13:22:31.7Z</time></trkpt><trkpt lat="41.7273365" lon="19.6588334"><ele>1.0</ele><time>2026-05-03T13:22:32.702Z</time></trkpt><trkpt lat="41.7274834" lon="19.6587467"><ele>1.0</ele><time>2026-05-03T13:22:33.7Z</time></trkpt><trkpt lat="41.7276333" lon="19.6586567"><ele>1.0</ele><time>2026-05-03T13:22:34.7Z</time></trkpt><trkpt lat="41.7277875" lon="19.6585676"><ele>1.0</ele><time>2026-05-03T13:22:35.702Z</time></trkpt><trkpt lat="41.727941" lon="19.6584707"><ele>1.0</ele><time>2026-05-03T13:22:36.701Z</time></trkpt><trkpt lat="41.7280919" lon="19.6583678"><ele>1.0</ele><time>2026-05-03T13:22:37.702Z</time></trkpt><trkpt lat="41.7282456" lon="19.6582672"><ele>1.0</ele><time>2026-05-03T13:22:38.703Z</time></trkpt><trkpt lat="41.7283984" lon="19.6581713"><ele>1.0</ele><time>2026-05-03T13:22:39.703Z</time></trkpt><trkpt lat="41.7285425" lon="19.6580808"><ele>1.0</ele><time>2026-05-03T13:22:40.701Z</time></trkpt><trkpt lat="41.7286755" lon="19.6579827"><ele>1.0</ele><time>2026-05-03T13:22:41.701Z</time></trkpt><trkpt lat="41.7288157" lon="19.6578635"><ele>0.75</ele><time>2026-05-03T13:22:42.703Z</time></trkpt><trkpt lat="41.728942" lon="19.6577885"><ele>0.5</ele><time>2026-05-03T13:22:43.7Z</time></trkpt><trkpt lat="41.7290599" lon="19.6577136"><ele>0.25</ele><time>2026-05-03T13:22:44.704Z</time></trkpt><trkpt lat="41.7291733" lon="19.6576537"><ele>0.0</ele><time>2026-05-03T13:22:45.698Z</time></trkpt><trkpt lat="41.7292819" lon="19.6575851"><ele>0.0</ele><time>2026-05-03T13:22:46.701Z</time></trkpt><trkpt lat="41.7293916" lon="19.6575301"><ele>0.0</ele><time>2026-05-03T13:22:47.7Z</time></trkpt><trkpt lat="41.7294995" lon="19.6574689"><ele>0.0</ele><time>2026-05-03T13:22:48.704Z</time></trkpt><trkpt lat="41.729602" lon="19.6574069"><ele>0.0</ele><time>2026-05-03T13:22:49.702Z</time></trkpt><trkpt lat="41.7296983" lon="19.6573454"><ele>-0.6</ele><time>2026-05-03T13:22:50.702Z</time></trkpt><trkpt lat="41.7297961" lon="19.6572897"><ele>-1.2</ele><time>2026-05-03T13:22:51.702Z</time></trkpt><trkpt lat="41.729888" lon="19.6572179"><ele>-1.7999999999999998</ele><time>2026-05-03T13:22:52.703Z</time></trkpt><trkpt lat="41.7299843" lon="19.657162"><ele>-2.4</ele><time>2026-05-03T13:22:53.701Z</time></trkpt><trkpt lat="41.7300768" lon="19.6570997"><ele>-3.0</ele><time>2026-05-03T13:22:54.704Z</time></trkpt><trkpt lat="41.7301767" lon="19.657039"><ele>-3.0</ele><time>2026-05-03T13:22:55.703Z</time></trkpt><trkpt lat="41.7302805" lon="19.6569795"><ele>-3.0</ele><time>2026-05-03T13:22:56.701Z</time></trkpt><trkpt lat="41.7303908" lon="19.6569104"><ele>-3.0</ele><time>2026-05-03T13:22:57.699Z</time></trkpt><trkpt lat="41.7304998" lon="19.6568442"><ele>-3.0</ele><time>2026-05-03T13:22:58.701Z</time></trkpt><trkpt lat="41.7306086" lon="19.6567681"><ele>-3.5</ele><time>2026-05-03T13:22:59.701Z</time></trkpt><trkpt lat="41.7307137" lon="19.6566992"><ele>-4.0</ele><time>2026-05-03T13:23:00.703Z</time></trkpt><trkpt lat="41.7308159" lon="19.6566344"><ele>-4.5</ele><time>2026-05-03T13:23:01.699Z</time></trkpt><trkpt lat="41.7309193" lon="19.6565707"><ele>-5.0</ele><time>2026-05-03T13:23:02.702Z</time></trkpt><trkpt lat="41.7310241" lon="19.6565072"><ele>-4.0</ele><time>2026-05-03T13:23:03.701Z</time></trkpt><trkpt lat="41.7311346" lon="19.6564422"><ele>-3.0</ele><time>2026-05-03T13:23:04.702Z</time></trkpt><trkpt lat="41.7312489" lon="19.6563765"><ele>-2.0</ele><time>2026-05-03T13:23:05.701Z</time></trkpt><trkpt lat="41.7313634" lon="19.6563056"><ele>-1.0</ele><time>2026-05-03T13:23:06.7Z</time></trkpt><trkpt lat="41.7314814" lon="19.6562344"><ele>-1.0</ele><time>2026-05-03T13:23:07.704Z</time></trkpt><trkpt lat="41.7315997" lon="19.6561556"><ele>-1.0</ele><time>2026-05-03T13:23:08.702Z</time></trkpt><trkpt lat="41.7317288" lon="19.6560757"><ele>-1.0</ele><time>2026-05-03T13:23:09.7Z</time></trkpt><trkpt lat="41.7318544" lon="19.6559945"><ele>-1.0</ele><time>2026-05-03T13:23:10.701Z</time></trkpt><trkpt lat="41.7319844" lon="19.6559136"><ele>-0.5</ele><time>2026-05-03T13:23:11.701Z</time></trkpt><trkpt lat="41.7321125" lon="19.6558469"><ele>0.0</ele><time>2026-05-03T13:23:12.7Z</time></trkpt><trkpt lat="41.7322394" lon="19.6557731"><ele>0.5</ele><time>2026-05-03T13:23:13.702Z</time></trkpt><trkpt lat="41.732356" lon="19.6557"><ele>1.0</ele><time>2026-05-03T13:23:14.704Z</time></trkpt><trkpt lat="41.7324774" lon="19.6556296"><ele>1.0</ele><time>2026-05-03T13:23:15.704Z</time></trkpt><trkpt lat="41.7325961" lon="19.6555506"><ele>1.0</ele><time>2026-05-03T13:23:16.701Z</time></trkpt><trkpt lat="41.7327164" lon="19.6554691"><ele>1.0</ele><time>2026-05-03T13:23:17.699Z</time></trkpt><trkpt lat="41.7328334" lon="19.6553925"><ele>1.0</ele><time>2026-05-03T13:23:18.7Z</time></trkpt><trkpt lat="41.7329588" lon="19.6553211"><ele>0.5</ele><time>2026-05-03T13:23:19.7Z</time></trkpt><trkpt lat="41.7330865" lon="19.6552411"><ele>0.0</ele><time>2026-05-03T13:23:20.7Z</time></trkpt><trkpt lat="41.7332101" lon="19.6551617"><ele>-0.5</ele><time>2026-05-03T13:23:21.701Z</time></trkpt><trkpt lat="41.733332" lon="19.6550826"><ele>-1.0</ele><time>2026-05-03T13:23:22.701Z</time></trkpt><trkpt lat="41.7334503" lon="19.6550082"><ele>-1.5</ele><time>2026-05-03T13:23:23.701Z</time></trkpt><trkpt lat="41.7335716" lon="19.6549318"><ele>-2.0</ele><time>2026-05-03T13:23:24.703Z</time></trkpt><trkpt lat="41.7336884" lon="19.6548579"><ele>-2.5</ele><time>2026-05-03T13:23:25.703Z</time></trkpt><trkpt lat="41.7338109" lon="19.6547811"><ele>-3.0</ele><time>2026-05-03T13:23:26.699Z</time></trkpt><trkpt lat="41.7339276" lon="19.6546913"><ele>-3.0</ele><time>2026-05-03T13:23:27.698Z</time></trkpt><trkpt lat="41.734053" lon="19.6546027"><ele>-3.0</ele><time>2026-05-03T13:23:28.703Z</time></trkpt><trkpt lat="41.7341771" lon="19.6545279"><ele>-3.0</ele><time>2026-05-03T13:23:29.702Z</time></trkpt><trkpt lat="41.7343073" lon="19.6544481"><ele>-3.0</ele><time>2026-05-03T13:23:30.697Z</time></trkpt><trkpt lat="41.7344291" lon="19.654365"><ele>-3.0</ele><time>2026-05-03T13:23:31.701Z</time></trkpt><trkpt lat="41.7345536" lon="19.6542821"><ele>-3.0</ele><time>2026-05-03T13:23:32.704Z</time></trkpt><trkpt lat="41.7346841" lon="19.6541997"><ele>-3.0</ele><time>2026-05-03T13:23:33.701Z</time></trkpt><trkpt lat="41.7348141" lon="19.6541212"><ele>-3.0</ele><time>2026-05-03T13:23:34.7Z</time></trkpt><trkpt lat="41.7349479" lon="19.654046"><ele>-3.0</ele><time>2026-05-03T13:23:35.701Z</time></trkpt><trkpt lat="41.7350799" lon="19.6539657"><ele>-3.0</ele><time>2026-05-03T13:23:36.7Z</time></trkpt><trkpt lat="41.7352129" lon="19.6538858"><ele>-3.0</ele><time>2026-05-03T13:23:37.702Z</time></trkpt><trkpt lat="41.7353475" lon="19.6538101"><ele>-3.0</ele><time>2026-05-03T13:23:38.702Z</time></trkpt><trkpt lat="41.7354807" lon="19.6537304"><ele>-2.75</ele><time>2026-05-03T13:23:39.7Z</time></trkpt><trkpt lat="41.7356108" lon="19.653654"><ele>-2.5</ele><time>2026-05-03T13:23:40.701Z</time></trkpt><trkpt lat="41.7357377" lon="19.6535739"><ele>-2.25</ele><time>2026-05-03T13:23:41.701Z</time></trkpt><trkpt lat="41.7358609" lon="19.6534979"><ele>-2.0</ele><time>2026-05-03T13:23:42.7Z</time></trkpt><trkpt lat="41.7359838" lon="19.6534303"><ele>-0.5</ele><time>2026-05-03T13:23:43.701Z</time></trkpt><trkpt lat="41.7361015" lon="19.6533522"><ele>1.0</ele><time>2026-05-03T13:23:44.701Z</time></trkpt><trkpt lat="41.7362233" lon="19.6532667"><ele>2.5</ele><time>2026-05-03T13:23:45.701Z</time></trkpt><trkpt lat="41.7363417" lon="19.6531911"><ele>4.0</ele><time>2026-05-03T13:23:46.698Z</time></trkpt><trkpt lat="41.7364578" lon="19.653117"><ele>4.0</ele><time>2026-05-03T13:23:47.701Z</time></trkpt><trkpt lat="41.7365772" lon="19.6530442"><ele>4.0</ele><time>2026-05-03T13:23:48.7Z</time></trkpt><trkpt lat="41.7366984" lon="19.6529758"><ele>4.0</ele><time>2026-05-03T13:23:49.7Z</time></trkpt><trkpt lat="41.7368203" lon="19.6529057"><ele>4.0</ele><time>2026-05-03T13:23:50.7Z</time></trkpt><trkpt lat="41.736943" lon="19.6528294"><ele>3.75</ele><time>2026-05-03T13:23:51.7Z</time></trkpt><trkpt lat="41.7370672" lon="19.6527465"><ele>3.5</ele><time>2026-05-03T13:23:52.702Z</time></trkpt><trkpt lat="41.7371914" lon="19.6526689"><ele>3.25</ele><time>2026-05-03T13:23:53.701Z</time></trkpt><trkpt lat="41.7373159" lon="19.652588"><ele>3.0</ele><time>2026-05-03T13:23:54.699Z</time></trkpt><trkpt lat="41.7374381" lon="19.6525103"><ele>3.0</ele><time>2026-05-03T13:23:55.703Z</time></trkpt><trkpt lat="41.7375544" lon="19.6524396"><ele>3.0</ele><time>2026-05-03T13:23:56.701Z</time></trkpt><trkpt lat="41.7376687" lon="19.6523764"><ele>3.0</ele><time>2026-05-03T13:23:57.7Z</time></trkpt><trkpt lat="41.7377813" lon="19.6522821"><ele>3.0</ele><time>2026-05-03T13:23:58.703Z</time></trkpt><trkpt lat="41.7378878" lon="19.6522151"><ele>2.25</ele><time>2026-05-03T13:23:59.7Z</time></trkpt><trkpt lat="41.7379956" lon="19.6521484"><ele>1.5</ele><time>2026-05-03T13:24:00.702Z</time></trkpt><trkpt lat="41.7381018" lon="19.6520941"><ele>0.75</ele><time>2026-05-03T13:24:01.701Z</time></trkpt><trkpt lat="41.7382034" lon="19.6520295"><ele>0.0</ele><time>2026-05-03T13:24:02.703Z</time></trkpt><trkpt lat="41.7383028" lon="19.6519678"><ele>0.0</ele><time>2026-05-03T13:24:03.7Z</time></trkpt><trkpt lat="41.7384043" lon="19.6519068"><ele>0.0</ele><time>2026-05-03T13:24:04.699Z</time></trkpt><trkpt lat="41.7385123" lon="19.651849"><ele>0.0</ele><time>2026-05-03T13:24:05.699Z</time></trkpt><trkpt lat="41.7386137" lon="19.6517883"><ele>0.0</ele><time>2026-05-03T13:24:06.7Z</time></trkpt><trkpt lat="41.7387111" lon="19.6517248"><ele>0.0</ele><time>2026-05-03T13:24:07.701Z</time></trkpt><trkpt lat="41.7388062" lon="19.6516621"><ele>-0.6</ele><time>2026-05-03T13:24:08.704Z</time></trkpt><trkpt lat="41.7388992" lon="19.6516091"><ele>-1.2</ele><time>2026-05-03T13:24:09.7Z</time></trkpt><trkpt lat="41.7389872" lon="19.6515514"><ele>-1.7999999999999998</ele><time>2026-05-03T13:24:10.701Z</time></trkpt><trkpt lat="41.7390765" lon="19.6514889"><ele>-2.4</ele><time>2026-05-03T13:24:11.703Z</time></trkpt><trkpt lat="41.7391675" lon="19.651431"><ele>-3.0</ele><time>2026-05-03T13:24:12.703Z</time></trkpt><trkpt lat="41.7392555" lon="19.6513764"><ele>-3.0</ele><time>2026-05-03T13:24:13.7Z</time></trkpt><trkpt lat="41.7393337" lon="19.6513281"><ele>-3.0</ele><time>2026-05-03T13:24:14.701Z</time></trkpt><trkpt lat="41.7394067" lon="19.651284"><ele>-3.0</ele><time>2026-05-03T13:24:15.701Z</time></trkpt><trkpt lat="41.7394741" lon="19.6512607"><ele>-3.0</ele><time>2026-05-03T13:24:16.7Z</time></trkpt><trkpt lat="41.73954" lon="19.6512199"><ele>-3.0</ele><time>2026-05-03T13:24:17.702Z</time></trkpt><trkpt lat="41.7396091" lon="19.6511756"><ele>-3.0</ele><time>2026-05-03T13:24:18.701Z</time></trkpt><trkpt lat="41.7396867" lon="19.6511211"><ele>-2.25</ele><time>2026-05-03T13:24:19.698Z</time></trkpt><trkpt lat="41.7397864" lon="19.6510484"><ele>-1.5</ele><time>2026-05-03T13:24:20.699Z</time></trkpt><trkpt lat="41.739892" lon="19.6509724"><ele>-0.75</ele><time>2026-05-03T13:24:21.7Z</time></trkpt><trkpt lat="41.7399975" lon="19.6509105"><ele>0.0</ele><time>2026-05-03T13:24:22.701Z</time></trkpt><trkpt lat="41.740108" lon="19.6508479"><ele>-1.0</ele><time>2026-05-03T13:24:23.702Z</time></trkpt><trkpt lat="41.7402206" lon="19.6507824"><ele>-2.0</ele><time>2026-05-03T13:24:24.704Z</time></trkpt><trkpt lat="41.740333" lon="19.6507136"><ele>-3.0</ele><time>2026-05-03T13:24:25.701Z</time></trkpt><trkpt lat="41.7404471" lon="19.6506291"><ele>-4.0</ele><time>2026-05-03T13:24:26.701Z</time></trkpt><trkpt lat="41.7405658" lon="19.6505548"><ele>-4.0</ele><time>2026-05-03T13:24:27.704Z</time></trkpt><trkpt lat="41.7406895" lon="19.650479"><ele>-4.0</ele><time>2026-05-03T13:24:28.7Z</time></trkpt><trkpt lat="41.7408077" lon="19.6504055"><ele>-4.0</ele><time>2026-05-03T13:24:29.702Z</time></trkpt><trkpt lat="41.7409353" lon="19.6503272"><ele>-4.0</ele><time>2026-05-03T13:24:30.7Z</time></trkpt><trkpt lat="41.7410684" lon="19.6502457"><ele>-3.0</ele><time>2026-05-03T13:24:31.7Z</time></trkpt><trkpt lat="41.7412066" lon="19.6501569"><ele>-2.0</ele><time>2026-05-03T13:24:32.698Z</time></trkpt><trkpt lat="41.7413555" lon="19.6500663"><ele>-1.0</ele><time>2026-05-03T13:24:33.699Z</time></trkpt><trkpt lat="41.7415093" lon="19.6499673"><ele>-1.0</ele><time>2026-05-03T13:24:34.703Z</time></trkpt><trkpt lat="41.7416564" lon="19.6498794"><ele>-1.0</ele><time>2026-05-03T13:24:35.702Z</time></trkpt><trkpt lat="41.7418029" lon="19.6497959"><ele>-1.0</ele><time>2026-05-03T13:24:36.701Z</time></trkpt><trkpt lat="41.7419485" lon="19.6497098"><ele>-0.3333333333333333</ele><time>2026-05-03T13:24:37.699Z</time></trkpt><trkpt lat="41.7420935" lon="19.6496211"><ele>0.3333333333333333</ele><time>2026-05-03T13:24:38.703Z</time></trkpt><trkpt lat="41.7422411" lon="19.6495306"><ele>1.0</ele><time>2026-05-03T13:24:39.704Z</time></trkpt><trkpt lat="41.7423905" lon="19.6494371"><ele>0.3333333333333333</ele><time>2026-05-03T13:24:40.704Z</time></trkpt><trkpt lat="41.7425451" lon="19.6493439"><ele>-0.3333333333333333</ele><time>2026-05-03T13:24:41.701Z</time></trkpt><trkpt lat="41.7426953" lon="19.6492506"><ele>-1.0</ele><time>2026-05-03T13:24:42.701Z</time></trkpt><trkpt lat="41.742848" lon="19.6491532"><ele>-1.0</ele><time>2026-05-03T13:24:43.702Z</time></trkpt><trkpt lat="41.743005" lon="19.6490549"><ele>-1.0</ele><time>2026-05-03T13:24:44.702Z</time></trkpt><trkpt lat="41.7431605" lon="19.6489643"><ele>-1.0</ele><time>2026-05-03T13:24:45.703Z</time></trkpt><trkpt lat="41.7433152" lon="19.6488704"><ele>-1.0</ele><time>2026-05-03T13:24:46.703Z</time></trkpt><trkpt lat="41.7434692" lon="19.6487673"><ele>-1.0</ele><time>2026-05-03T13:24:47.701Z</time></trkpt><trkpt lat="41.743623" lon="19.6486636"><ele>-1.0</ele><time>2026-05-03T13:24:48.7Z</time></trkpt><trkpt lat="41.7437829" lon="19.6485657"><ele>0.0</ele><time>2026-05-03T13:24:49.7Z</time></trkpt><trkpt lat="41.7439428" lon="19.6484671"><ele>1.0</ele><time>2026-05-03T13:24:50.699Z</time></trkpt><trkpt lat="41.7441029" lon="19.6483765"><ele>2.0</ele><time>2026-05-03T13:24:51.698Z</time></trkpt><trkpt lat="41.744261" lon="19.64829"><ele>1.3333333333333333</ele><time>2026-05-03T13:24:52.702Z</time></trkpt><trkpt lat="41.7444182" lon="19.6481972"><ele>0.6666666666666666</ele><time>2026-05-03T13:24:53.697Z</time></trkpt><trkpt lat="41.7445759" lon="19.6481004"><ele>0.0</ele><time>2026-05-03T13:24:54.703Z</time></trkpt><trkpt lat="41.7447325" lon="19.6480007"><ele>0.0</ele><time>2026-05-03T13:24:55.699Z</time></trkpt><trkpt lat="41.7448879" lon="19.6479002"><ele>0.0</ele><time>2026-05-03T13:24:56.703Z</time></trkpt><trkpt lat="41.745041" lon="19.6478046"><ele>0.0</ele><time>2026-05-03T13:24:57.704Z</time></trkpt><trkpt lat="41.7451916" lon="19.647711"><ele>0.0</ele><time>2026-05-03T13:24:58.704Z</time></trkpt><trkpt lat="41.7453374" lon="19.6476092"><ele>0.0</ele><time>2026-05-03T13:24:59.699Z</time></trkpt><trkpt lat="41.7454779" lon="19.6475228"><ele>0.0</ele><time>2026-05-03T13:25:00.702Z</time></trkpt><trkpt lat="41.7456043" lon="19.6474415"><ele>0.0</ele><time>2026-05-03T13:25:01.701Z</time></trkpt><trkpt lat="41.7457166" lon="19.6473651"><ele>0.0</ele><time>2026-05-03T13:25:02.698Z</time></trkpt><trkpt lat="41.7458251" lon="19.6473078"><ele>0.0</ele><time>2026-05-03T13:25:03.7Z</time></trkpt><trkpt lat="41.7459227" lon="19.6472494"><ele>0.0</ele><time>2026-05-03T13:25:04.701Z</time></trkpt><trkpt lat="41.7460272" lon="19.6471907"><ele>0.0</ele><time>2026-05-03T13:25:05.702Z</time></trkpt><trkpt lat="41.7461302" lon="19.6471258"><ele>0.0</ele><time>2026-05-03T13:25:06.704Z</time></trkpt><trkpt lat="41.7462346" lon="19.6470611"><ele>0.0</ele><time>2026-05-03T13:25:07.704Z</time></trkpt><trkpt lat="41.7463408" lon="19.6469934"><ele>0.0</ele><time>2026-05-03T13:25:08.701Z</time></trkpt><trkpt lat="41.7464575" lon="19.6469153"><ele>0.0</ele><time>2026-05-03T13:25:09.7Z</time></trkpt><trkpt lat="41.7465866" lon="19.6468381"><ele>0.0</ele><time>2026-05-03T13:25:10.701Z</time></trkpt><trkpt lat="41.7467135" lon="19.6467459"><ele>0.0</ele><time>2026-05-03T13:25:11.699Z</time></trkpt><trkpt lat="41.7468385" lon="19.6466769"><ele>0.0</ele><time>2026-05-03T13:25:12.698Z</time></trkpt><trkpt lat="41.7469686" lon="19.6465986"><ele>-0.25</ele><time>2026-05-03T13:25:13.701Z</time></trkpt><trkpt lat="41.7470968" lon="19.6465228"><ele>-0.5</ele><time>2026-05-03T13:25:14.701Z</time></trkpt><trkpt lat="41.7472315" lon="19.6464374"><ele>-0.75</ele><time>2026-05-03T13:25:15.703Z</time></trkpt><trkpt lat="41.7473673" lon="19.6463509"><ele>-1.0</ele><time>2026-05-03T13:25:16.699Z</time></trkpt><trkpt lat="41.7475053" lon="19.6462529"><ele>-1.0</ele><time>2026-05-03T13:25:17.7Z</time></trkpt><trkpt lat="41.7476515" lon="19.6461597"><ele>-1.0</ele><time>2026-05-03T13:25:18.704Z</time></trkpt><trkpt lat="41.7478031" lon="19.6460664"><ele>-1.0</ele><time>2026-05-03T13:25:19.704Z</time></trkpt><trkpt lat="41.7479577" lon="19.6459735"><ele>-2.0</ele><time>2026-05-03T13:25:20.703Z</time></trkpt><trkpt lat="41.7481164" lon="19.6458526"><ele>-3.0</ele><time>2026-05-03T13:25:21.699Z</time></trkpt><trkpt lat="41.7482699" lon="19.6457498"><ele>-4.0</ele><time>2026-05-03T13:25:22.699Z</time></trkpt><trkpt lat="41.7484259" lon="19.6456547"><ele>-5.0</ele><time>2026-05-03T13:25:23.7Z</time></trkpt><trkpt lat="41.7485814" lon="19.6455555"><ele>-6.0</ele><time>2026-05-03T13:25:24.699Z</time></trkpt><trkpt lat="41.7487368" lon="19.6454597"><ele>-7.0</ele><time>2026-05-03T13:25:25.701Z</time></trkpt><trkpt lat="41.7488899" lon="19.6453635"><ele>-5.0</ele><time>2026-05-03T13:25:26.701Z</time></trkpt><trkpt lat="41.7490427" lon="19.6452704"><ele>-3.0</ele><time>2026-05-03T13:25:27.702Z</time></trkpt><trkpt lat="41.7491903" lon="19.6451829"><ele>-1.0</ele><time>2026-05-03T13:25:28.703Z</time></trkpt><trkpt lat="41.7493342" lon="19.6450976"><ele>-1.3333333333333333</ele><time>2026-05-03T13:25:29.7Z</time></trkpt><trkpt lat="41.7494777" lon="19.6450056"><ele>-1.6666666666666665</ele><time>2026-05-03T13:25:30.704Z</time></trkpt><trkpt lat="41.7496248" lon="19.6449229"><ele>-2.0</ele><time>2026-05-03T13:25:31.701Z</time></trkpt><trkpt lat="41.7497662" lon="19.6448419"><ele>-2.0</ele><time>2026-05-03T13:25:32.698Z</time></trkpt><trkpt lat="41.7499069" lon="19.6447565"><ele>-2.0</ele><time>2026-05-03T13:25:33.703Z</time></trkpt><trkpt lat="41.7500458" lon="19.64467"><ele>-2.0</ele><time>2026-05-03T13:25:34.704Z</time></trkpt><trkpt lat="41.750181" lon="19.6445835"><ele>-1.5</ele><time>2026-05-03T13:25:35.7Z</time></trkpt><trkpt lat="41.7503149" lon="19.6445005"><ele>-1.0</ele><time>2026-05-03T13:25:36.703Z</time></trkpt><trkpt lat="41.7504479" lon="19.6444168"><ele>-0.5</ele><time>2026-05-03T13:25:37.7Z</time></trkpt><trkpt lat="41.7505814" lon="19.6443338"><ele>0.0</ele><time>2026-05-03T13:25:38.703Z</time></trkpt><trkpt lat="41.750714" lon="19.6442526"><ele>0.0</ele><time>2026-05-03T13:25:39.702Z</time></trkpt><trkpt lat="41.7508466" lon="19.6441723"><ele>0.0</ele><time>2026-05-03T13:25:40.703Z</time></trkpt><trkpt lat="41.7509789" lon="19.64409"><ele>0.0</ele><time>2026-05-03T13:25:41.699Z</time></trkpt><trkpt lat="41.7511093" lon="19.6440097"><ele>0.0</ele><time>2026-05-03T13:25:42.699Z</time></trkpt><trkpt lat="41.751237" lon="19.6439298"><ele>0.25</ele><time>2026-05-03T13:25:43.701Z</time></trkpt><trkpt lat="41.7513667" lon="19.643853"><ele>0.5</ele><time>2026-05-03T13:25:44.704Z</time></trkpt><trkpt lat="41.7514946" lon="19.6437736"><ele>0.75</ele><time>2026-05-03T13:25:45.704Z</time></trkpt><trkpt lat="41.751629" lon="19.6437072"><ele>1.0</ele><time>2026-05-03T13:25:46.702Z</time></trkpt><trkpt lat="41.75176" lon="19.6436291"><ele>0.0</ele><time>2026-05-03T13:25:47.701Z</time></trkpt><trkpt lat="41.7518904" lon="19.6435464"><ele>-1.0</ele><time>2026-05-03T13:25:48.696Z</time></trkpt><trkpt lat="41.7520296" lon="19.6434588"><ele>-2.0</ele><time>2026-05-03T13:25:49.702Z</time></trkpt><trkpt lat="41.7521816" lon="19.64335"><ele>-2.0</ele><time>2026-05-03T13:25:50.702Z</time></trkpt><trkpt lat="41.7523315" lon="19.6432438"><ele>-2.0</ele><time>2026-05-03T13:25:51.702Z</time></trkpt><trkpt lat="41.7524865" lon="19.6431479"><ele>-2.0</ele><time>2026-05-03T13:25:52.697Z</time></trkpt><trkpt lat="41.7526412" lon="19.6430497"><ele>-2.333333333333333</ele><time>2026-05-03T13:25:53.7Z</time></trkpt><trkpt lat="41.7527938" lon="19.6429506"><ele>-2.6666666666666665</ele><time>2026-05-03T13:25:54.701Z</time></trkpt><trkpt lat="41.7529461" lon="19.6428527"><ele>-3.0</ele><time>2026-05-03T13:25:55.7Z</time></trkpt><trkpt lat="41.7531014" lon="19.6427525"><ele>-3.0</ele><time>2026-05-03T13:25:56.7Z</time></trkpt><trkpt lat="41.7532579" lon="19.6426548"><ele>-3.0</ele><time>2026-05-03T13:25:57.696Z</time></trkpt><trkpt lat="41.7534117" lon="19.6425548"><ele>-3.0</ele><time>2026-05-03T13:25:58.699Z</time></trkpt><trkpt lat="41.7535632" lon="19.6424522"><ele>-2.3333333333333335</ele><time>2026-05-03T13:25:59.697Z</time></trkpt><trkpt lat="41.753718" lon="19.6423359"><ele>-1.6666666666666665</ele><time>2026-05-03T13:26:00.697Z</time></trkpt><trkpt lat="41.7538726" lon="19.6422314"><ele>-1.0</ele><time>2026-05-03T13:26:01.701Z</time></trkpt><trkpt lat="41.7540247" lon="19.6421265"><ele>-1.0</ele><time>2026-05-03T13:26:02.698Z</time></trkpt><trkpt lat="41.7541768" lon="19.6420208"><ele>-1.0</ele><time>2026-05-03T13:26:03.7Z</time></trkpt><trkpt lat="41.7543334" lon="19.6419091"><ele>-1.0</ele><time>2026-05-03T13:26:04.701Z</time></trkpt><trkpt lat="41.7544864" lon="19.6417972"><ele>-1.6666666666666665</ele><time>2026-05-03T13:26:05.698Z</time></trkpt><trkpt lat="41.7546444" lon="19.6416832"><ele>-2.3333333333333335</ele><time>2026-05-03T13:26:06.703Z</time></trkpt><trkpt lat="41.7547988" lon="19.6415685"><ele>-3.0</ele><time>2026-05-03T13:26:07.698Z</time></trkpt><trkpt lat="41.7549528" lon="19.6414586"><ele>-3.0</ele><time>2026-05-03T13:26:08.704Z</time></trkpt><trkpt lat="41.7551063" lon="19.6413517"><ele>-3.0</ele><time>2026-05-03T13:26:09.701Z</time></trkpt><trkpt lat="41.7552598" lon="19.6412693"><ele>-3.0</ele><time>2026-05-03T13:26:10.698Z</time></trkpt><trkpt lat="41.7554129" lon="19.6411748"><ele>-2.3333333333333335</ele><time>2026-05-03T13:26:11.7Z</time></trkpt><trkpt lat="41.7555698" lon="19.6410656"><ele>-1.6666666666666665</ele><time>2026-05-03T13:26:12.699Z</time></trkpt><trkpt lat="41.7557241" lon="19.6409544"><ele>-1.0</ele><time>2026-05-03T13:26:13.701Z</time></trkpt><trkpt lat="41.7558788" lon="19.6408393"><ele>-1.0</ele><time>2026-05-03T13:26:14.701Z</time></trkpt><trkpt lat="41.756034" lon="19.6407238"><ele>-1.0</ele><time>2026-05-03T13:26:15.701Z</time></trkpt><trkpt lat="41.7561853" lon="19.6406144"><ele>-1.0</ele><time>2026-05-03T13:26:16.7Z</time></trkpt><trkpt lat="41.7563326" lon="19.6405109"><ele>-1.0</ele><time>2026-05-03T13:26:17.701Z</time></trkpt><trkpt lat="41.756491" lon="19.6403672"><ele>-1.0</ele><time>2026-05-03T13:26:18.702Z</time></trkpt><trkpt lat="41.7566453" lon="19.640265"><ele>-1.0</ele><time>2026-05-03T13:26:19.702Z</time></trkpt><trkpt lat="41.7567956" lon="19.6401612"><ele>-0.3333333333333333</ele><time>2026-05-03T13:26:20.7Z</time></trkpt><trkpt lat="41.7569406" lon="19.6400491"><ele>0.3333333333333333</ele><time>2026-05-03T13:26:21.699Z</time></trkpt><trkpt lat="41.757092" lon="19.6399433"><ele>1.0</ele><time>2026-05-03T13:26:22.702Z</time></trkpt><trkpt lat="41.7572403" lon="19.6398415"><ele>1.0</ele><time>2026-05-03T13:26:23.7Z</time></trkpt><trkpt lat="41.7573887" lon="19.6397305"><ele>1.0</ele><time>2026-05-03T13:26:24.699Z</time></trkpt><trkpt lat="41.7575391" lon="19.6396315"><ele>1.0</ele><time>2026-05-03T13:26:25.703Z</time></trkpt><trkpt lat="41.7576916" lon="19.6395192"><ele>0.3333333333333333</ele><time>2026-05-03T13:26:26.702Z</time></trkpt><trkpt lat="41.7578412" lon="19.6394048"><ele>-0.3333333333333333</ele><time>2026-05-03T13:26:27.701Z</time></trkpt><trkpt lat="41.7580016" lon="19.6392912"><ele>-1.0</ele><time>2026-05-03T13:26:28.703Z</time></trkpt><trkpt lat="41.7581537" lon="19.6391813"><ele>-1.0</ele><time>2026-05-03T13:26:29.702Z</time></trkpt><trkpt lat="41.7583013" lon="19.6390734"><ele>-1.0</ele><time>2026-05-03T13:26:30.699Z</time></trkpt><trkpt lat="41.7584554" lon="19.6389596"><ele>-1.0</ele><time>2026-05-03T13:26:31.7Z</time></trkpt><trkpt lat="41.7586083" lon="19.6388528"><ele>-0.6666666666666666</ele><time>2026-05-03T13:26:32.697Z</time></trkpt><trkpt lat="41.7587613" lon="19.6387385"><ele>-0.3333333333333333</ele><time>2026-05-03T13:26:33.699Z</time></trkpt><trkpt lat="41.7589131" lon="19.6386294"><ele>0.0</ele><time>2026-05-03T13:26:34.703Z</time></trkpt><trkpt lat="41.7590637" lon="19.6385166"><ele>0.0</ele><time>2026-05-03T13:26:35.7Z</time></trkpt><trkpt lat="41.7592107" lon="19.6384172"><ele>0.0</ele><time>2026-05-03T13:26:36.703Z</time></trkpt><trkpt lat="41.7593606" lon="19.6383032"><ele>0.0</ele><time>2026-05-03T13:26:37.703Z</time></trkpt><trkpt lat="41.759509" lon="19.638194"><ele>0.0</ele><time>2026-05-03T13:26:38.701Z</time></trkpt><trkpt lat="41.7596616" lon="19.6380977"><ele>0.0</ele><time>2026-05-03T13:26:39.703Z</time></trkpt><trkpt lat="41.7598169" lon="19.6379884"><ele>0.0</ele><time>2026-05-03T13:26:40.697Z</time></trkpt><trkpt lat="41.7599681" lon="19.6378716"><ele>-0.3333333333333333</ele><time>2026-05-03T13:26:41.703Z</time></trkpt><trkpt lat="41.7601213" lon="19.6377716"><ele>-0.6666666666666666</ele><time>2026-05-03T13:26:42.7Z</time></trkpt><trkpt lat="41.7602706" lon="19.6376625"><ele>-1.0</ele><time>2026-05-03T13:26:43.701Z</time></trkpt><trkpt lat="41.7604342" lon="19.6375551"><ele>-1.0</ele><time>2026-05-03T13:26:44.699Z</time></trkpt><trkpt lat="41.7605951" lon="19.6374501"><ele>-1.0</ele><time>2026-05-03T13:26:45.698Z</time></trkpt><trkpt lat="41.7607527" lon="19.6373402"><ele>-1.0</ele><time>2026-05-03T13:26:46.701Z</time></trkpt><trkpt lat="41.7609062" lon="19.6372425"><ele>-1.3333333333333333</ele><time>2026-05-03T13:26:47.7Z</time></trkpt><trkpt lat="41.76106" lon="19.6371398"><ele>-1.6666666666666665</ele><time>2026-05-03T13:26:48.699Z</time></trkpt><trkpt lat="41.7612137" lon="19.6370365"><ele>-2.0</ele><time>2026-05-03T13:26:49.699Z</time></trkpt><trkpt lat="41.7613681" lon="19.6369364"><ele>-2.0</ele><time>2026-05-03T13:26:50.696Z</time></trkpt><trkpt lat="41.7615172" lon="19.6368328"><ele>-2.0</ele><time>2026-05-03T13:26:51.7Z</time></trkpt><trkpt lat="41.76167" lon="19.6367304"><ele>-2.0</ele><time>2026-05-03T13:26:52.701Z</time></trkpt><trkpt lat="41.7618222" lon="19.6366391"><ele>-1.6666666666666665</ele><time>2026-05-03T13:26:53.702Z</time></trkpt><trkpt lat="41.7619778" lon="19.6365379"><ele>-1.3333333333333333</ele><time>2026-05-03T13:26:54.701Z</time></trkpt><trkpt lat="41.7621359" lon="19.6364259"><ele>-1.0</ele><time>2026-05-03T13:26:55.701Z</time></trkpt><trkpt lat="41.7622925" lon="19.6363246"><ele>-1.0</ele><time>2026-05-03T13:26:56.699Z</time></trkpt><trkpt lat="41.7624509" lon="19.6362051"><ele>-1.0</ele><time>2026-05-03T13:26:57.697Z</time></trkpt><trkpt lat="41.7626048" lon="19.6361019"><ele>-1.0</ele><time>2026-05-03T13:26:58.699Z</time></trkpt><trkpt lat="41.7627595" lon="19.6360045"><ele>-1.0</ele><time>2026-05-03T13:26:59.7Z</time></trkpt><trkpt lat="41.7629097" lon="19.6359035"><ele>-1.0</ele><time>2026-05-03T13:27:00.7Z</time></trkpt><trkpt lat="41.7630605" lon="19.6358028"><ele>-1.0</ele><time>2026-05-03T13:27:01.701Z</time></trkpt><trkpt lat="41.7632157" lon="19.6357126"><ele>-1.0</ele><time>2026-05-03T13:27:02.699Z</time></trkpt><trkpt lat="41.7633684" lon="19.6356133"><ele>-1.0</ele><time>2026-05-03T13:27:03.697Z</time></trkpt><trkpt lat="41.7635188" lon="19.6355167"><ele>-1.0</ele><time>2026-05-03T13:27:04.699Z</time></trkpt><trkpt lat="41.7636719" lon="19.6354079"><ele>-2.0</ele><time>2026-05-03T13:27:05.7Z</time></trkpt><trkpt lat="41.7638307" lon="19.6352985"><ele>-3.0</ele><time>2026-05-03T13:27:06.699Z</time></trkpt><trkpt lat="41.7640019" lon="19.6351866"><ele>-4.0</ele><time>2026-05-03T13:27:07.7Z</time></trkpt><trkpt lat="41.7641829" lon="19.6350667"><ele>-3.0</ele><time>2026-05-03T13:27:08.7Z</time></trkpt><trkpt lat="41.7643636" lon="19.6349516"><ele>-2.0</ele><time>2026-05-03T13:27:09.699Z</time></trkpt><trkpt lat="41.764536" lon="19.6348377"><ele>-1.0</ele><time>2026-05-03T13:27:10.7Z</time></trkpt><trkpt lat="41.764702" lon="19.6347249"><ele>-1.0</ele><time>2026-05-03T13:27:11.7Z</time></trkpt><trkpt lat="41.7648676" lon="19.6346225"><ele>-1.0</ele><time>2026-05-03T13:27:12.701Z</time></trkpt><trkpt lat="41.7650272" lon="19.634517"><ele>-1.0</ele><time>2026-05-03T13:27:13.704Z</time></trkpt><trkpt lat="41.7651761" lon="19.6343941"><ele>-0.75</ele><time>2026-05-03T13:27:14.701Z</time></trkpt><trkpt lat="41.7653174" lon="19.6343022"><ele>-0.5</ele><time>2026-05-03T13:27:15.699Z</time></trkpt><trkpt lat="41.7654542" lon="19.6342262"><ele>-0.25</ele><time>2026-05-03T13:27:16.701Z</time></trkpt><trkpt lat="41.7655814" lon="19.6341474"><ele>0.0</ele><time>2026-05-03T13:27:17.7Z</time></trkpt><trkpt lat="41.7657043" lon="19.6340675"><ele>0.0</ele><time>2026-05-03T13:27:18.699Z</time></trkpt><trkpt lat="41.7658256" lon="19.633994"><ele>0.0</ele><time>2026-05-03T13:27:19.7Z</time></trkpt><trkpt lat="41.7659471" lon="19.6339216"><ele>0.0</ele><time>2026-05-03T13:27:20.698Z</time></trkpt><trkpt lat="41.7660662" lon="19.6338497"><ele>0.0</ele><time>2026-05-03T13:27:21.701Z</time></trkpt><trkpt lat="41.7661928" lon="19.6337722"><ele>0.25</ele><time>2026-05-03T13:27:22.699Z</time></trkpt><trkpt lat="41.766323" lon="19.6336899"><ele>0.5</ele><time>2026-05-03T13:27:23.699Z</time></trkpt><trkpt lat="41.7664533" lon="19.6336059"><ele>0.75</ele><time>2026-05-03T13:27:24.701Z</time></trkpt><trkpt lat="41.7665834" lon="19.6335235"><ele>1.0</ele><time>2026-05-03T13:27:25.702Z</time></trkpt><trkpt lat="41.7667102" lon="19.633442"><ele>0.75</ele><time>2026-05-03T13:27:26.699Z</time></trkpt><trkpt lat="41.7668347" lon="19.6333643"><ele>0.5</ele><time>2026-05-03T13:27:27.698Z</time></trkpt><trkpt lat="41.7669694" lon="19.6332804"><ele>0.25</ele><time>2026-05-03T13:27:28.701Z</time></trkpt><trkpt lat="41.7670966" lon="19.6331955"><ele>0.0</ele><time>2026-05-03T13:27:29.7Z</time></trkpt><trkpt lat="41.7672301" lon="19.633103"><ele>0.0</ele><time>2026-05-03T13:27:30.702Z</time></trkpt><trkpt lat="41.7673709" lon="19.6330134"><ele>0.0</ele><time>2026-05-03T13:27:31.699Z</time></trkpt><trkpt lat="41.7675142" lon="19.6329251"><ele>0.0</ele><time>2026-05-03T13:27:32.7Z</time></trkpt><trkpt lat="41.7676638" lon="19.6328452"><ele>0.0</ele><time>2026-05-03T13:27:33.703Z</time></trkpt><trkpt lat="41.7678098" lon="19.6327668"><ele>0.0</ele><time>2026-05-03T13:27:34.704Z</time></trkpt><trkpt lat="41.7679555" lon="19.632683"><ele>0.0</ele><time>2026-05-03T13:27:35.699Z</time></trkpt><trkpt lat="41.7681021" lon="19.632601"><ele>0.0</ele><time>2026-05-03T13:27:36.701Z</time></trkpt><trkpt lat="41.7682549" lon="19.6325139"><ele>0.0</ele><time>2026-05-03T13:27:37.7Z</time></trkpt><trkpt lat="41.7684061" lon="19.6324291"><ele>0.0</ele><time>2026-05-03T13:27:38.7Z</time></trkpt><trkpt lat="41.7685575" lon="19.6323338"><ele>0.0</ele><time>2026-05-03T13:27:39.699Z</time></trkpt><trkpt lat="41.7687092" lon="19.632241"><ele>0.0</ele><time>2026-05-03T13:27:40.699Z</time></trkpt><trkpt lat="41.7688565" lon="19.6321498"><ele>0.0</ele><time>2026-05-03T13:27:41.7Z</time></trkpt><trkpt lat="41.7690013" lon="19.6320578"><ele>0.0</ele><time>2026-05-03T13:27:42.699Z</time></trkpt><trkpt lat="41.7691387" lon="19.6319731"><ele>0.0</ele><time>2026-05-03T13:27:43.7Z</time></trkpt><trkpt lat="41.7692691" lon="19.6318909"><ele>0.0</ele><time>2026-05-03T13:27:44.701Z</time></trkpt><trkpt lat="41.7693939" lon="19.6318164"><ele>0.0</ele><time>2026-05-03T13:27:45.7Z</time></trkpt><trkpt lat="41.7695087" lon="19.6317447"><ele>0.0</ele><time>2026-05-03T13:27:46.699Z</time></trkpt><trkpt lat="41.7696136" lon="19.6316761"><ele>0.0</ele><time>2026-05-03T13:27:47.698Z</time></trkpt><trkpt lat="41.7697113" lon="19.6316121"><ele>0.0</ele><time>2026-05-03T13:27:48.701Z</time></trkpt><trkpt lat="41.7698008" lon="19.6315516"><ele>0.0</ele><time>2026-05-03T13:27:49.699Z</time></trkpt><trkpt lat="41.7698819" lon="19.6314967"><ele>0.0</ele><time>2026-05-03T13:27:50.699Z</time></trkpt><trkpt lat="41.7699653" lon="19.6314406"><ele>0.0</ele><time>2026-05-03T13:27:51.7Z</time></trkpt><trkpt lat="41.7700491" lon="19.631383"><ele>0.0</ele><time>2026-05-03T13:27:52.701Z</time></trkpt><trkpt lat="41.7701365" lon="19.6313198"><ele>0.0</ele><time>2026-05-03T13:27:53.701Z</time></trkpt><trkpt lat="41.7702279" lon="19.6312513"><ele>0.0</ele><time>2026-05-03T13:27:54.701Z</time></trkpt><trkpt lat="41.770327" lon="19.631176"><ele>0.0</ele><time>2026-05-03T13:27:55.701Z</time></trkpt><trkpt lat="41.7704348" lon="19.6310993"><ele>0.5</ele><time>2026-05-03T13:27:56.7Z</time></trkpt><trkpt lat="41.770544" lon="19.6310229"><ele>1.0</ele><time>2026-05-03T13:27:57.698Z</time></trkpt><trkpt lat="41.7706579" lon="19.6309472"><ele>1.5</ele><time>2026-05-03T13:27:58.7Z</time></trkpt><trkpt lat="41.7707681" lon="19.6308475"><ele>2.0</ele><time>2026-05-03T13:27:59.699Z</time></trkpt><trkpt lat="41.7708844" lon="19.6307664"><ele>2.0</ele><time>2026-05-03T13:28:00.699Z</time></trkpt><trkpt lat="41.7710076" lon="19.630665"><ele>2.0</ele><time>2026-05-03T13:28:01.7Z</time></trkpt><trkpt lat="41.7711244" lon="19.6305837"><ele>2.0</ele><time>2026-05-03T13:28:02.699Z</time></trkpt><trkpt lat="41.7712466" lon="19.6304992"><ele>2.0</ele><time>2026-05-03T13:28:03.699Z</time></trkpt><trkpt lat="41.7713693" lon="19.6304129"><ele>1.25</ele><time>2026-05-03T13:28:04.701Z</time></trkpt><trkpt lat="41.7714892" lon="19.6303247"><ele>0.5</ele><time>2026-05-03T13:28:05.699Z</time></trkpt><trkpt lat="41.7716123" lon="19.6302377"><ele>-0.25</ele><time>2026-05-03T13:28:06.699Z</time></trkpt><trkpt lat="41.7717461" lon="19.6301157"><ele>-1.0</ele><time>2026-05-03T13:28:07.697Z</time></trkpt><trkpt lat="41.7718723" lon="19.6300295"><ele>-1.0</ele><time>2026-05-03T13:28:08.698Z</time></trkpt><trkpt lat="41.7719969" lon="19.6299428"><ele>-1.0</ele><time>2026-05-03T13:28:09.696Z</time></trkpt><trkpt lat="41.7721208" lon="19.6298545"><ele>-1.0</ele><time>2026-05-03T13:28:10.696Z</time></trkpt><trkpt lat="41.7722451" lon="19.6297792"><ele>-1.0</ele><time>2026-05-03T13:28:11.699Z</time></trkpt><trkpt lat="41.7723742" lon="19.6296911"><ele>-1.0</ele><time>2026-05-03T13:28:12.699Z</time></trkpt><trkpt lat="41.7725033" lon="19.6296062"><ele>-1.0</ele><time>2026-05-03T13:28:13.701Z</time></trkpt><trkpt lat="41.7726298" lon="19.6295218"><ele>-1.0</ele><time>2026-05-03T13:28:14.697Z</time></trkpt><trkpt lat="41.7727535" lon="19.6294396"><ele>-1.0</ele><time>2026-05-03T13:28:15.695Z</time></trkpt><trkpt lat="41.7728798" lon="19.6293548"><ele>0.0</ele><time>2026-05-03T13:28:16.701Z</time></trkpt><trkpt lat="41.7730107" lon="19.6292678"><ele>1.0</ele><time>2026-05-03T13:28:17.701Z</time></trkpt><trkpt lat="41.7731475" lon="19.6291714"><ele>2.0</ele><time>2026-05-03T13:28:18.701Z</time></trkpt><trkpt lat="41.7732894" lon="19.6290686"><ele>2.0</ele><time>2026-05-03T13:28:19.701Z</time></trkpt><trkpt lat="41.7734295" lon="19.628978"><ele>2.0</ele><time>2026-05-03T13:28:20.699Z</time></trkpt><trkpt lat="41.7735705" lon="19.6288874"><ele>2.0</ele><time>2026-05-03T13:28:21.698Z</time></trkpt><trkpt lat="41.7737043" lon="19.6288054"><ele>2.0</ele><time>2026-05-03T13:28:22.699Z</time></trkpt><trkpt lat="41.7738385" lon="19.6287369"><ele>2.0</ele><time>2026-05-03T13:28:23.699Z</time></trkpt><trkpt lat="41.7739615" lon="19.6286628"><ele>2.0</ele><time>2026-05-03T13:28:24.7Z</time></trkpt><trkpt lat="41.7740787" lon="19.6286019"><ele>2.0</ele><time>2026-05-03T13:28:25.702Z</time></trkpt><trkpt lat="41.7741802" lon="19.6285577"><ele>2.0</ele><time>2026-05-03T13:28:26.701Z</time></trkpt><trkpt lat="41.7742865" lon="19.6285434"><ele>2.0</ele><time>2026-05-03T13:28:27.698Z</time></trkpt><trkpt lat="41.7743872" lon="19.62859"><ele>2.0</ele><time>2026-05-03T13:28:28.699Z</time></trkpt><trkpt lat="41.7744884" lon="19.6286576"><ele>2.0</ele><time>2026-05-03T13:28:29.702Z</time></trkpt><trkpt lat="41.7745728" lon="19.6287442"><ele>2.0</ele><time>2026-05-03T13:28:30.697Z</time></trkpt><trkpt lat="41.77465" lon="19.6288619"><ele>0.75</ele><time>2026-05-03T13:28:31.697Z</time></trkpt><trkpt lat="41.774719" lon="19.6289986"><ele>-0.5</ele><time>2026-05-03T13:28:32.7Z</time></trkpt><trkpt lat="41.7747834" lon="19.6291453"><ele>-1.75</ele><time>2026-05-03T13:28:33.699Z</time></trkpt><trkpt lat="41.7748433" lon="19.6292921"><ele>-3.0</ele><time>2026-05-03T13:28:34.7Z</time></trkpt><trkpt lat="41.774905" lon="19.6294383"><ele>-2.75</ele><time>2026-05-03T13:28:35.701Z</time></trkpt><trkpt lat="41.7749737" lon="19.6295978"><ele>-2.5</ele><time>2026-05-03T13:28:36.698Z</time></trkpt><trkpt lat="41.7750437" lon="19.6297511"><ele>-2.25</ele><time>2026-05-03T13:28:37.701Z</time></trkpt><trkpt lat="41.7751134" lon="19.6299168"><ele>-2.0</ele><time>2026-05-03T13:28:38.701Z</time></trkpt><trkpt lat="41.7751858" lon="19.6300803"><ele>-2.0</ele><time>2026-05-03T13:28:39.698Z</time></trkpt><trkpt lat="41.7752626" lon="19.6302441"><ele>-2.0</ele><time>2026-05-03T13:28:40.701Z</time></trkpt><trkpt lat="41.7753382" lon="19.6304049"><ele>-2.0</ele><time>2026-05-03T13:28:41.699Z</time></trkpt><trkpt lat="41.7754165" lon="19.6305647"><ele>-2.0</ele><time>2026-05-03T13:28:42.7Z</time></trkpt><trkpt lat="41.7754899" lon="19.630722"><ele>-1.5</ele><time>2026-05-03T13:28:43.699Z</time></trkpt><trkpt lat="41.7755629" lon="19.6308805"><ele>-1.0</ele><time>2026-05-03T13:28:44.697Z</time></trkpt><trkpt lat="41.7756366" lon="19.6310358"><ele>-0.5</ele><time>2026-05-03T13:28:45.698Z</time></trkpt><trkpt lat="41.7757075" lon="19.6311868"><ele>0.0</ele><time>2026-05-03T13:28:46.698Z</time></trkpt><trkpt lat="41.7757749" lon="19.6313371"><ele>0.0</ele><time>2026-05-03T13:28:47.699Z</time></trkpt><trkpt lat="41.7758438" lon="19.6314879"><ele>0.0</ele><time>2026-05-03T13:28:48.697Z</time></trkpt><trkpt lat="41.7759118" lon="19.6316341"><ele>0.0</ele><time>2026-05-03T13:28:49.698Z</time></trkpt><trkpt lat="41.7759781" lon="19.6317796"><ele>0.0</ele><time>2026-05-03T13:28:50.7Z</time></trkpt><trkpt lat="41.7760387" lon="19.6319252"><ele>-0.25</ele><time>2026-05-03T13:28:51.701Z</time></trkpt><trkpt lat="41.7761004" lon="19.632081"><ele>-0.5</ele><time>2026-05-03T13:28:52.698Z</time></trkpt><trkpt lat="41.7761656" lon="19.6322186"><ele>-0.75</ele><time>2026-05-03T13:28:53.699Z</time></trkpt><trkpt lat="41.7762317" lon="19.6323563"><ele>-1.0</ele><time>2026-05-03T13:28:54.699Z</time></trkpt><trkpt lat="41.7763003" lon="19.6324949"><ele>-1.0</ele><time>2026-05-03T13:28:55.701Z</time></trkpt><trkpt lat="41.776365" lon="19.6326361"><ele>-1.0</ele><time>2026-05-03T13:28:56.7Z</time></trkpt><trkpt lat="41.7764309" lon="19.6327778"><ele>-1.0</ele><time>2026-05-03T13:28:57.7Z</time></trkpt><trkpt lat="41.7764947" lon="19.6329102"><ele>-1.0</ele><time>2026-05-03T13:28:58.7Z</time></trkpt><trkpt lat="41.7765502" lon="19.6330381"><ele>-0.6666666666666666</ele><time>2026-05-03T13:28:59.701Z</time></trkpt><trkpt lat="41.7766044" lon="19.6331584"><ele>-0.3333333333333333</ele><time>2026-05-03T13:29:00.7Z</time></trkpt><trkpt lat="41.77665" lon="19.6332658"><ele>0.0</ele><time>2026-05-03T13:29:01.699Z</time></trkpt><trkpt lat="41.7766983" lon="19.6333658"><ele>0.3333333333333333</ele><time>2026-05-03T13:29:02.702Z</time></trkpt><trkpt lat="41.7767398" lon="19.6334594"><ele>0.6666666666666666</ele><time>2026-05-03T13:29:03.701Z</time></trkpt><trkpt lat="41.776777" lon="19.6335405"><ele>1.0</ele><time>2026-05-03T13:29:04.697Z</time></trkpt><trkpt lat="41.7768304" lon="19.6336523"><ele>0.9999999999999999</ele><time>2026-05-03T13:29:06.699Z</time></trkpt><trkpt lat="41.776867" lon="19.6337459"><ele>1.0</ele><time>2026-05-03T13:29:10.697Z</time></trkpt><trkpt lat="41.7769093" lon="19.6338386"><ele>1.0</ele><time>2026-05-03T13:29:14.699Z</time></trkpt><trkpt lat="41.7769456" lon="19.6339253"><ele>1.0</ele><time>2026-05-03T13:29:17.697Z</time></trkpt><trkpt lat="41.7769803" lon="19.6340099"><ele>0.9999999999999999</ele><time>2026-05-03T13:29:20.7Z</time></trkpt><trkpt lat="41.7770202" lon="19.6340924"><ele>1.0</ele><time>2026-05-03T13:29:23.698Z</time></trkpt><trkpt lat="41.7770613" lon="19.6341772"><ele>0.9999999999999999</ele><time>2026-05-03T13:29:26.698Z</time></trkpt><trkpt lat="41.7770897" lon="19.6342635"><ele>1.0</ele><time>2026-05-03T13:29:28.702Z</time></trkpt><trkpt lat="41.7771363" lon="19.634394"><ele>1.0</ele><time>2026-05-03T13:29:30.699Z</time></trkpt><trkpt lat="41.7771712" lon="19.6344704"><ele>1.0</ele><time>2026-05-03T13:29:31.7Z</time></trkpt><trkpt lat="41.7772068" lon="19.6345508"><ele>0.9999999999999999</ele><time>2026-05-03T13:29:32.698Z</time></trkpt><trkpt lat="41.7772455" lon="19.6346281"><ele>1.0</ele><time>2026-05-03T13:29:33.697Z</time></trkpt><trkpt lat="41.7772902" lon="19.6347226"><ele>0.8333333333333333</ele><time>2026-05-03T13:29:34.703Z</time></trkpt><trkpt lat="41.7773282" lon="19.6348039"><ele>0.6666666666666666</ele><time>2026-05-03T13:29:35.7Z</time></trkpt><trkpt lat="41.7773696" lon="19.634893"><ele>0.5</ele><time>2026-05-03T13:29:36.697Z</time></trkpt><trkpt lat="41.7774145" lon="19.6349836"><ele>0.3333333333333333</ele><time>2026-05-03T13:29:37.698Z</time></trkpt><trkpt lat="41.77746" lon="19.6350825"><ele>0.16666666666666666</ele><time>2026-05-03T13:29:38.699Z</time></trkpt><trkpt lat="41.7775011" lon="19.6351813"><ele>0.0</ele><time>2026-05-03T13:29:39.696Z</time></trkpt><trkpt lat="41.777543" lon="19.6352776"><ele>0.0</ele><time>2026-05-03T13:29:40.698Z</time></trkpt><trkpt lat="41.7775875" lon="19.6353696"><ele>0.0</ele><time>2026-05-03T13:29:41.696Z</time></trkpt><trkpt lat="41.7776237" lon="19.6354565"><ele>0.0</ele><time>2026-05-03T13:29:42.697Z</time></trkpt><trkpt lat="41.7776612" lon="19.6355418"><ele>0.0</ele><time>2026-05-03T13:29:43.699Z</time></trkpt><trkpt lat="41.7777051" lon="19.6356331"><ele>0.0</ele><time>2026-05-03T13:29:44.697Z</time></trkpt><trkpt lat="41.7777526" lon="19.6357299"><ele>0.0</ele><time>2026-05-03T13:29:45.696Z</time></trkpt><trkpt lat="41.7777949" lon="19.6358204"><ele>0.16666666666666666</ele><time>2026-05-03T13:29:46.7Z</time></trkpt><trkpt lat="41.7778397" lon="19.6359157"><ele>0.3333333333333333</ele><time>2026-05-03T13:29:47.701Z</time></trkpt><trkpt lat="41.7778836" lon="19.6360118"><ele>0.5</ele><time>2026-05-03T13:29:48.698Z</time></trkpt><trkpt lat="41.7779236" lon="19.6361045"><ele>0.6666666666666666</ele><time>2026-05-03T13:29:49.699Z</time></trkpt><trkpt lat="41.7779687" lon="19.6361996"><ele>0.8333333333333333</ele><time>2026-05-03T13:29:50.697Z</time></trkpt><trkpt lat="41.7780163" lon="19.636293"><ele>1.0</ele><time>2026-05-03T13:29:51.698Z</time></trkpt><trkpt lat="41.7780615" lon="19.6363889"><ele>0.9999999999999999</ele><time>2026-05-03T13:29:52.699Z</time></trkpt><trkpt lat="41.7781056" lon="19.6364801"><ele>1.0</ele><time>2026-05-03T13:29:53.697Z</time></trkpt><trkpt lat="41.7781512" lon="19.6365703"><ele>1.0</ele><time>2026-05-03T13:29:54.701Z</time></trkpt><trkpt lat="41.7781962" lon="19.6366724"><ele>1.0</ele><time>2026-05-03T13:29:55.699Z</time></trkpt><trkpt lat="41.7782407" lon="19.6367723"><ele>0.9999999999999999</ele><time>2026-05-03T13:29:56.7Z</time></trkpt><trkpt lat="41.7782875" lon="19.636882"><ele>1.0</ele><time>2026-05-03T13:29:57.697Z</time></trkpt><trkpt lat="41.7783418" lon="19.6369995"><ele>0.8</ele><time>2026-05-03T13:29:58.699Z</time></trkpt><trkpt lat="41.7784052" lon="19.6371046"><ele>0.6000000000000001</ele><time>2026-05-03T13:29:59.698Z</time></trkpt><trkpt lat="41.7784581" lon="19.6372281"><ele>0.4</ele><time>2026-05-03T13:30:00.7Z</time></trkpt><trkpt lat="41.7785106" lon="19.6373457"><ele>0.2</ele><time>2026-05-03T13:30:01.697Z</time></trkpt><trkpt lat="41.7785641" lon="19.6374616"><ele>0.0</ele><time>2026-05-03T13:30:02.698Z</time></trkpt><trkpt lat="41.7786216" lon="19.6375739"><ele>0.0</ele><time>2026-05-03T13:30:03.698Z</time></trkpt><trkpt lat="41.7786761" lon="19.6376944"><ele>0.0</ele><time>2026-05-03T13:30:04.699Z</time></trkpt><trkpt lat="41.7787308" lon="19.6378129"><ele>0.0</ele><time>2026-05-03T13:30:05.698Z</time></trkpt><trkpt lat="41.7787723" lon="19.6379137"><ele>0.0</ele><time>2026-05-03T13:30:06.7Z</time></trkpt><trkpt lat="41.7788136" lon="19.6380111"><ele>0.0</ele><time>2026-05-03T13:30:07.698Z</time></trkpt><trkpt lat="41.778864" lon="19.6381081"><ele>0.0</ele><time>2026-05-03T13:30:08.699Z</time></trkpt><trkpt lat="41.7789073" lon="19.6381993"><ele>0.0</ele><time>2026-05-03T13:30:09.698Z</time></trkpt><trkpt lat="41.7789485" lon="19.63829"><ele>0.0</ele><time>2026-05-03T13:30:10.699Z</time></trkpt><trkpt lat="41.7789875" lon="19.6383783"><ele>0.0</ele><time>2026-05-03T13:30:11.701Z</time></trkpt><trkpt lat="41.7790284" lon="19.6384654"><ele>0.0</ele><time>2026-05-03T13:30:12.703Z</time></trkpt><trkpt lat="41.7790705" lon="19.6385581"><ele>0.0</ele><time>2026-05-03T13:30:13.698Z</time></trkpt><trkpt lat="41.7791109" lon="19.6386453"><ele>0.0</ele><time>2026-05-03T13:30:14.697Z</time></trkpt><trkpt lat="41.7791538" lon="19.6387267"><ele>0.0</ele><time>2026-05-03T13:30:15.699Z</time></trkpt><trkpt lat="41.7791908" lon="19.6388253"><ele>0.0</ele><time>2026-05-03T13:30:16.698Z</time></trkpt><trkpt lat="41.7792341" lon="19.6389236"><ele>0.0</ele><time>2026-05-03T13:30:17.699Z</time></trkpt><trkpt lat="41.779283" lon="19.6390236"><ele>0.0</ele><time>2026-05-03T13:30:18.696Z</time></trkpt><trkpt lat="41.7793348" lon="19.6391267"><ele>0.0</ele><time>2026-05-03T13:30:19.696Z</time></trkpt><trkpt lat="41.7793833" lon="19.639236"><ele>0.0</ele><time>2026-05-03T13:30:20.697Z</time></trkpt><trkpt lat="41.7794346" lon="19.6393363"><ele>0.0</ele><time>2026-05-03T13:30:21.697Z</time></trkpt><trkpt lat="41.7794864" lon="19.639446"><ele>0.0</ele><time>2026-05-03T13:30:22.698Z</time></trkpt><trkpt lat="41.779537" lon="19.6395579"><ele>0.0</ele><time>2026-05-03T13:30:23.698Z</time></trkpt><trkpt lat="41.7795879" lon="19.6396665"><ele>0.0</ele><time>2026-05-03T13:30:24.697Z</time></trkpt><trkpt lat="41.7796414" lon="19.639772"><ele>0.16666666666666666</ele><time>2026-05-03T13:30:25.698Z</time></trkpt><trkpt lat="41.7796853" lon="19.6398695"><ele>0.3333333333333333</ele><time>2026-05-03T13:30:26.7Z</time></trkpt><trkpt lat="41.7797383" lon="19.6399676"><ele>0.5</ele><time>2026-05-03T13:30:27.698Z</time></trkpt><trkpt lat="41.7797908" lon="19.6400629"><ele>0.6666666666666666</ele><time>2026-05-03T13:30:28.697Z</time></trkpt><trkpt lat="41.7798342" lon="19.640155"><ele>0.8333333333333333</ele><time>2026-05-03T13:30:29.703Z</time></trkpt><trkpt lat="41.7798777" lon="19.6402432"><ele>1.0</ele><time>2026-05-03T13:30:30.703Z</time></trkpt><trkpt lat="41.7799203" lon="19.6403311"><ele>1.3333333333333333</ele><time>2026-05-03T13:30:31.701Z</time></trkpt><trkpt lat="41.779956" lon="19.6404199"><ele>1.6666666666666665</ele><time>2026-05-03T13:30:32.699Z</time></trkpt><trkpt lat="41.7799853" lon="19.6405073"><ele>2.0</ele><time>2026-05-03T13:30:33.699Z</time></trkpt><trkpt lat="41.780043" lon="19.6406243"><ele>2.3333333333333335</ele><time>2026-05-03T13:30:35.698Z</time></trkpt><trkpt lat="41.7800859" lon="19.6407043"><ele>2.6666666666666665</ele><time>2026-05-03T13:30:37.699Z</time></trkpt><trkpt lat="41.7801346" lon="19.6407899"><ele>3.0</ele><time>2026-05-03T13:30:39.698Z</time></trkpt><trkpt lat="41.7801774" lon="19.6408891"><ele>3.5</ele><time>2026-05-03T13:30:41.699Z</time></trkpt><trkpt lat="41.7802323" lon="19.6409716"><ele>4.0</ele><time>2026-05-03T13:30:43.699Z</time></trkpt><trkpt lat="41.780279" lon="19.6410673"><ele>4.5</ele><time>2026-05-03T13:30:45.698Z</time></trkpt><trkpt lat="41.7803279" lon="19.6411413"><ele>5.0</ele><time>2026-05-03T13:30:47.7Z</time></trkpt><trkpt lat="41.7803778" lon="19.6412065"><ele>5.5</ele><time>2026-05-03T13:30:51.699Z</time></trkpt><trkpt lat="41.7804185" lon="19.6412944"><ele>6.0</ele><time>2026-05-03T13:30:54.7Z</time></trkpt><trkpt lat="41.7804688" lon="19.6413598"><ele>6.0</ele><time>2026-05-03T13:30:56.703Z</time></trkpt><trkpt lat="41.7805541" lon="19.6413839"><ele>6.0</ele><time>2026-05-03T13:30:58.701Z</time></trkpt><trkpt lat="41.780663" lon="19.6414091"><ele>6.0</ele><time>2026-05-03T13:31:00.7Z</time></trkpt><trkpt lat="41.7807909" lon="19.6414162"><ele>6.0</ele><time>2026-05-03T13:31:02.697Z</time></trkpt><trkpt lat="41.7808603" lon="19.6414218"><ele>6.0</ele><time>2026-05-03T13:31:03.699Z</time></trkpt><trkpt lat="41.7809219" lon="19.6414434"><ele>6.0</ele><time>2026-05-03T13:31:04.696Z</time></trkpt><trkpt lat="41.780981" lon="19.6414732"><ele>6.0</ele><time>2026-05-03T13:31:05.7Z</time></trkpt><trkpt lat="41.7811045" lon="19.6414818"><ele>6.0</ele><time>2026-05-03T13:31:07.699Z</time></trkpt><trkpt lat="41.7811801" lon="19.6414938"><ele>6.0</ele><time>2026-05-03T13:31:08.699Z</time></trkpt><trkpt lat="41.7812467" lon="19.6414964"><ele>6.0</ele><time>2026-05-03T13:31:09.699Z</time></trkpt><trkpt lat="41.7813165" lon="19.6414953"><ele>6.0</ele><time>2026-05-03T13:31:10.702Z</time></trkpt><trkpt lat="41.7813898" lon="19.6414932"><ele>6.0</ele><time>2026-05-03T13:31:11.7Z</time></trkpt><trkpt lat="41.7814713" lon="19.6414727"><ele>6.0</ele><time>2026-05-03T13:31:12.702Z</time></trkpt><trkpt lat="41.7815441" lon="19.6414672"><ele>6.0</ele><time>2026-05-03T13:31:13.701Z</time></trkpt><trkpt lat="41.7816257" lon="19.6414528"><ele>6.0</ele><time>2026-05-03T13:31:14.699Z</time></trkpt><trkpt lat="41.7817128" lon="19.6414325"><ele>6.0</ele><time>2026-05-03T13:31:15.701Z</time></trkpt><trkpt lat="41.7817941" lon="19.6414094"><ele>6.0</ele><time>2026-05-03T13:31:16.702Z</time></trkpt><trkpt lat="41.7818783" lon="19.6413848"><ele>6.0</ele><time>2026-05-03T13:31:17.699Z</time></trkpt><trkpt lat="41.7819616" lon="19.6413602"><ele>6.0</ele><time>2026-05-03T13:31:18.7Z</time></trkpt><trkpt lat="41.7820514" lon="19.6413296"><ele>6.0</ele><time>2026-05-03T13:31:19.702Z</time></trkpt><trkpt lat="41.7821417" lon="19.6412988"><ele>6.0</ele><time>2026-05-03T13:31:20.699Z</time></trkpt><trkpt lat="41.782238" lon="19.6412623"><ele>6.0</ele><time>2026-05-03T13:31:21.7Z</time></trkpt><trkpt lat="41.7823466" lon="19.6412285"><ele>6.0</ele><time>2026-05-03T13:31:22.701Z</time></trkpt><trkpt lat="41.7824598" lon="19.6411917"><ele>6.0</ele><time>2026-05-03T13:31:23.702Z</time></trkpt><trkpt lat="41.7825744" lon="19.6411433"><ele>6.0</ele><time>2026-05-03T13:31:24.7Z</time></trkpt><trkpt lat="41.7826907" lon="19.6410988"><ele>6.0</ele><time>2026-05-03T13:31:25.7Z</time></trkpt><trkpt lat="41.7828057" lon="19.6410604"><ele>6.75</ele><time>2026-05-03T13:31:26.699Z</time></trkpt><trkpt lat="41.7829191" lon="19.6410253"><ele>7.5</ele><time>2026-05-03T13:31:27.7Z</time></trkpt><trkpt lat="41.783036" lon="19.6409899"><ele>8.25</ele><time>2026-05-03T13:31:28.701Z</time></trkpt><trkpt lat="41.7831519" lon="19.6409541"><ele>9.0</ele><time>2026-05-03T13:31:29.7Z</time></trkpt><trkpt lat="41.7832738" lon="19.6409068"><ele>9.0</ele><time>2026-05-03T13:31:30.7Z</time></trkpt><trkpt lat="41.7833978" lon="19.6408669"><ele>9.0</ele><time>2026-05-03T13:31:31.697Z</time></trkpt><trkpt lat="41.783519" lon="19.6408289"><ele>9.0</ele><time>2026-05-03T13:31:32.698Z</time></trkpt><trkpt lat="41.7836434" lon="19.6407915"><ele>9.0</ele><time>2026-05-03T13:31:33.699Z</time></trkpt><trkpt lat="41.783767" lon="19.6407523"><ele>7.75</ele><time>2026-05-03T13:31:34.7Z</time></trkpt><trkpt lat="41.7839042" lon="19.6407"><ele>6.5</ele><time>2026-05-03T13:31:35.699Z</time></trkpt><trkpt lat="41.7840304" lon="19.6406621"><ele>5.25</ele><time>2026-05-03T13:31:36.697Z</time></trkpt><trkpt lat="41.784154" lon="19.6406243"><ele>4.0</ele><time>2026-05-03T13:31:37.698Z</time></trkpt><trkpt lat="41.7842764" lon="19.6405793"><ele>3.75</ele><time>2026-05-03T13:31:38.7Z</time></trkpt><trkpt lat="41.7844017" lon="19.6405286"><ele>3.5</ele><time>2026-05-03T13:31:39.697Z</time></trkpt><trkpt lat="41.7845314" lon="19.640476"><ele>3.25</ele><time>2026-05-03T13:31:40.7Z</time></trkpt><trkpt lat="41.7846683" lon="19.6404223"><ele>3.0</ele><time>2026-05-03T13:31:41.701Z</time></trkpt><trkpt lat="41.7848071" lon="19.6403615"><ele>3.0</ele><time>2026-05-03T13:31:42.699Z</time></trkpt><trkpt lat="41.784946" lon="19.6403049"><ele>3.0</ele><time>2026-05-03T13:31:43.7Z</time></trkpt><trkpt lat="41.7850843" lon="19.6402494"><ele>3.0</ele><time>2026-05-03T13:31:44.7Z</time></trkpt><trkpt lat="41.7852183" lon="19.6401844"><ele>3.0</ele><time>2026-05-03T13:31:45.702Z</time></trkpt><trkpt lat="41.7853461" lon="19.6401265"><ele>4.0</ele><time>2026-05-03T13:31:46.701Z</time></trkpt><trkpt lat="41.785472" lon="19.6400729"><ele>5.0</ele><time>2026-05-03T13:31:47.701Z</time></trkpt><trkpt lat="41.7855937" lon="19.6400214"><ele>6.0</ele><time>2026-05-03T13:31:48.696Z</time></trkpt><trkpt lat="41.7857188" lon="19.6399797"><ele>7.0</ele><time>2026-05-03T13:31:49.701Z</time></trkpt><trkpt lat="41.7858484" lon="19.6399274"><ele>6.0</ele><time>2026-05-03T13:31:50.697Z</time></trkpt><trkpt lat="41.7861097" lon="19.6398453"><ele>5.0</ele><time>2026-05-03T13:31:52.699Z</time></trkpt><trkpt lat="41.7862437" lon="19.6398143"><ele>4.0</ele><time>2026-05-03T13:31:53.696Z</time></trkpt><trkpt lat="41.7863783" lon="19.6397799"><ele>4.0</ele><time>2026-05-03T13:31:54.703Z</time></trkpt><trkpt lat="41.7865106" lon="19.6397487"><ele>4.0</ele><time>2026-05-03T13:31:55.7Z</time></trkpt><trkpt lat="41.7866381" lon="19.6397289"><ele>4.0</ele><time>2026-05-03T13:31:56.697Z</time></trkpt><trkpt lat="41.786766" lon="19.6396999"><ele>4.0</ele><time>2026-05-03T13:31:57.699Z</time></trkpt><trkpt lat="41.7868933" lon="19.6396762"><ele>3.75</ele><time>2026-05-03T13:31:58.699Z</time></trkpt><trkpt lat="41.7870242" lon="19.6396552"><ele>3.5</ele><time>2026-05-03T13:31:59.699Z</time></trkpt><trkpt lat="41.7871585" lon="19.6396327"><ele>3.25</ele><time>2026-05-03T13:32:00.7Z</time></trkpt><trkpt lat="41.787293" lon="19.6396097"><ele>3.0</ele><time>2026-05-03T13:32:01.698Z</time></trkpt><trkpt lat="41.7874407" lon="19.6395925"><ele>3.0</ele><time>2026-05-03T13:32:02.699Z</time></trkpt><trkpt lat="41.7875856" lon="19.6395887"><ele>3.0</ele><time>2026-05-03T13:32:03.699Z</time></trkpt><trkpt lat="41.7877139" lon="19.6395738"><ele>3.0</ele><time>2026-05-03T13:32:04.698Z</time></trkpt><trkpt lat="41.7878299" lon="19.6395569"><ele>3.0</ele><time>2026-05-03T13:32:05.698Z</time></trkpt><trkpt lat="41.7879303" lon="19.6395424"><ele>3.2</ele><time>2026-05-03T13:32:06.699Z</time></trkpt><trkpt lat="41.7880247" lon="19.6395269"><ele>3.4</ele><time>2026-05-03T13:32:07.7Z</time></trkpt><trkpt lat="41.7881154" lon="19.6395175"><ele>3.6000000000000005</ele><time>2026-05-03T13:32:08.701Z</time></trkpt><trkpt lat="41.7882083" lon="19.6395071"><ele>3.8000000000000003</ele><time>2026-05-03T13:32:09.695Z</time></trkpt><trkpt lat="41.7883001" lon="19.639492"><ele>4.0</ele><time>2026-05-03T13:32:10.701Z</time></trkpt><trkpt lat="41.7884039" lon="19.6394785"><ele>4.0</ele><time>2026-05-03T13:32:11.701Z</time></trkpt><trkpt lat="41.7885147" lon="19.639464"><ele>4.0</ele><time>2026-05-03T13:32:12.701Z</time></trkpt><trkpt lat="41.7886273" lon="19.6394459"><ele>4.0</ele><time>2026-05-03T13:32:13.699Z</time></trkpt><trkpt lat="41.7887428" lon="19.6394327"><ele>4.0</ele><time>2026-05-03T13:32:14.697Z</time></trkpt><trkpt lat="41.7888579" lon="19.6394231"><ele>4.0</ele><time>2026-05-03T13:32:15.698Z</time></trkpt><trkpt lat="41.7889663" lon="19.6394074"><ele>4.0</ele><time>2026-05-03T13:32:16.7Z</time></trkpt><trkpt lat="41.789077" lon="19.6393952"><ele>4.0</ele><time>2026-05-03T13:32:17.698Z</time></trkpt><trkpt lat="41.7891949" lon="19.639382"><ele>4.0</ele><time>2026-05-03T13:32:18.699Z</time></trkpt><trkpt lat="41.7893179" lon="19.639365"><ele>4.75</ele><time>2026-05-03T13:32:19.702Z</time></trkpt><trkpt lat="41.7894385" lon="19.6393477"><ele>5.5</ele><time>2026-05-03T13:32:20.699Z</time></trkpt><trkpt lat="41.7895615" lon="19.639333"><ele>6.25</ele><time>2026-05-03T13:32:21.7Z</time></trkpt><trkpt lat="41.7896874" lon="19.6393196"><ele>7.0</ele><time>2026-05-03T13:32:22.701Z</time></trkpt><trkpt lat="41.7898166" lon="19.639304"><ele>7.0</ele><time>2026-05-03T13:32:23.7Z</time></trkpt><trkpt lat="41.7899486" lon="19.6392873"><ele>7.0</ele><time>2026-05-03T13:32:24.699Z</time></trkpt><trkpt lat="41.7900887" lon="19.6392684"><ele>7.0</ele><time>2026-05-03T13:32:25.7Z</time></trkpt><trkpt lat="41.79023" lon="19.6392632"><ele>7.0</ele><time>2026-05-03T13:32:26.699Z</time></trkpt><trkpt lat="41.7903732" lon="19.6392432"><ele>6.5</ele><time>2026-05-03T13:32:27.7Z</time></trkpt><trkpt lat="41.790515" lon="19.6392118"><ele>6.0</ele><time>2026-05-03T13:32:28.7Z</time></trkpt><trkpt lat="41.7906584" lon="19.6391737"><ele>5.5</ele><time>2026-05-03T13:32:29.7Z</time></trkpt><trkpt lat="41.7907968" lon="19.6391331"><ele>5.0</ele><time>2026-05-03T13:32:30.7Z</time></trkpt><trkpt lat="41.7909341" lon="19.6390786"><ele>4.0</ele><time>2026-05-03T13:32:31.698Z</time></trkpt><trkpt lat="41.7910733" lon="19.6390169"><ele>3.0</ele><time>2026-05-03T13:32:32.697Z</time></trkpt><trkpt lat="41.7912242" lon="19.6389338"><ele>2.0</ele><time>2026-05-03T13:32:33.7Z</time></trkpt><trkpt lat="41.7913623" lon="19.6388629"><ele>2.0</ele><time>2026-05-03T13:32:34.698Z</time></trkpt><trkpt lat="41.7915013" lon="19.638791"><ele>2.0</ele><time>2026-05-03T13:32:35.701Z</time></trkpt><trkpt lat="41.7916385" lon="19.6387106"><ele>2.0</ele><time>2026-05-03T13:32:36.7Z</time></trkpt><trkpt lat="41.791771" lon="19.6386238"><ele>2.0</ele><time>2026-05-03T13:32:37.7Z</time></trkpt><trkpt lat="41.7919075" lon="19.6385296"><ele>2.0</ele><time>2026-05-03T13:32:38.7Z</time></trkpt><trkpt lat="41.7920437" lon="19.6384324"><ele>2.0</ele><time>2026-05-03T13:32:39.699Z</time></trkpt><trkpt lat="41.7921803" lon="19.6383275"><ele>2.0</ele><time>2026-05-03T13:32:40.699Z</time></trkpt><trkpt lat="41.7923139" lon="19.6382301"><ele>2.0</ele><time>2026-05-03T13:32:41.699Z</time></trkpt><trkpt lat="41.7924384" lon="19.6381314"><ele>2.0</ele><time>2026-05-03T13:32:42.698Z</time></trkpt><trkpt lat="41.7925601" lon="19.6380455"><ele>2.0</ele><time>2026-05-03T13:32:43.695Z</time></trkpt><trkpt lat="41.7926783" lon="19.6379561"><ele>2.0</ele><time>2026-05-03T13:32:44.701Z</time></trkpt><trkpt lat="41.7927925" lon="19.6378692"><ele>2.5</ele><time>2026-05-03T13:32:45.699Z</time></trkpt><trkpt lat="41.7929087" lon="19.6377833"><ele>3.0</ele><time>2026-05-03T13:32:46.699Z</time></trkpt><trkpt lat="41.7930265" lon="19.6376902"><ele>3.5</ele><time>2026-05-03T13:32:47.7Z</time></trkpt><trkpt lat="41.7931517" lon="19.6375934"><ele>4.0</ele><time>2026-05-03T13:32:48.699Z</time></trkpt><trkpt lat="41.7932766" lon="19.6374975"><ele>4.0</ele><time>2026-05-03T13:32:49.696Z</time></trkpt><trkpt lat="41.7933996" lon="19.6374108"><ele>4.0</ele><time>2026-05-03T13:32:50.701Z</time></trkpt><trkpt lat="41.7935275" lon="19.6373037"><ele>4.0</ele><time>2026-05-03T13:32:51.698Z</time></trkpt><trkpt lat="41.7936569" lon="19.63721"><ele>4.0</ele><time>2026-05-03T13:32:52.7Z</time></trkpt><trkpt lat="41.7937928" lon="19.637115"><ele>3.333333333333333</ele><time>2026-05-03T13:32:53.702Z</time></trkpt><trkpt lat="41.7939277" lon="19.6370171"><ele>2.6666666666666665</ele><time>2026-05-03T13:32:54.698Z</time></trkpt><trkpt lat="41.7940596" lon="19.6369103"><ele>2.0</ele><time>2026-05-03T13:32:55.701Z</time></trkpt><trkpt lat="41.7941946" lon="19.6368026"><ele>1.6666666666666665</ele><time>2026-05-03T13:32:56.697Z</time></trkpt><trkpt lat="41.7943271" lon="19.6366967"><ele>1.3333333333333333</ele><time>2026-05-03T13:32:57.701Z</time></trkpt><trkpt lat="41.7944501" lon="19.6365783"><ele>1.0</ele><time>2026-05-03T13:32:58.7Z</time></trkpt><trkpt lat="41.7945758" lon="19.6364574"><ele>1.0</ele><time>2026-05-03T13:32:59.7Z</time></trkpt><trkpt lat="41.7946937" lon="19.6363233"><ele>1.0</ele><time>2026-05-03T13:33:00.698Z</time></trkpt><trkpt lat="41.7948036" lon="19.6361821"><ele>1.0</ele><time>2026-05-03T13:33:01.7Z</time></trkpt><trkpt lat="41.7949072" lon="19.6360249"><ele>1.3333333333333333</ele><time>2026-05-03T13:33:02.702Z</time></trkpt><trkpt lat="41.7950046" lon="19.6358647"><ele>1.6666666666666665</ele><time>2026-05-03T13:33:03.698Z</time></trkpt><trkpt lat="41.7950964" lon="19.6357027"><ele>2.0</ele><time>2026-05-03T13:33:04.697Z</time></trkpt><trkpt lat="41.7951858" lon="19.6355393"><ele>2.0</ele><time>2026-05-03T13:33:05.7Z</time></trkpt><trkpt lat="41.7952728" lon="19.6353712"><ele>2.0</ele><time>2026-05-03T13:33:06.701Z</time></trkpt><trkpt lat="41.7953623" lon="19.6352071"><ele>2.0</ele><time>2026-05-03T13:33:07.701Z</time></trkpt><trkpt lat="41.7954552" lon="19.6350417"><ele>2.0</ele><time>2026-05-03T13:33:08.701Z</time></trkpt><trkpt lat="41.7955551" lon="19.6348796"><ele>2.0</ele><time>2026-05-03T13:33:09.701Z</time></trkpt><trkpt lat="41.7956741" lon="19.6347092"><ele>2.0</ele><time>2026-05-03T13:33:10.701Z</time></trkpt><trkpt lat="41.7957876" lon="19.6345662"><ele>3.666666666666667</ele><time>2026-05-03T13:33:11.702Z</time></trkpt><trkpt lat="41.7959129" lon="19.6344333"><ele>5.333333333333334</ele><time>2026-05-03T13:33:12.701Z</time></trkpt><trkpt lat="41.7960482" lon="19.6343089"><ele>7.0</ele><time>2026-05-03T13:33:13.7Z</time></trkpt><trkpt lat="41.7961901" lon="19.6341952"><ele>7.0</ele><time>2026-05-03T13:33:14.699Z</time></trkpt><trkpt lat="41.7963425" lon="19.6340912"><ele>7.0</ele><time>2026-05-03T13:33:15.699Z</time></trkpt><trkpt lat="41.7964985" lon="19.6339878"><ele>7.0</ele><time>2026-05-03T13:33:16.7Z</time></trkpt><trkpt lat="41.7966558" lon="19.6338865"><ele>7.0</ele><time>2026-05-03T13:33:17.696Z</time></trkpt><trkpt lat="41.7968188" lon="19.633784"><ele>7.0</ele><time>2026-05-03T13:33:18.7Z</time></trkpt><trkpt lat="41.7969787" lon="19.6336868"><ele>7.0</ele><time>2026-05-03T13:33:19.702Z</time></trkpt><trkpt lat="41.7971393" lon="19.6335865"><ele>8.0</ele><time>2026-05-03T13:33:20.7Z</time></trkpt><trkpt lat="41.7972963" lon="19.6334843"><ele>9.0</ele><time>2026-05-03T13:33:21.701Z</time></trkpt><trkpt lat="41.7974512" lon="19.6333856"><ele>10.0</ele><time>2026-05-03T13:33:22.696Z</time></trkpt><trkpt lat="41.7976109" lon="19.6332838"><ele>7.666666666666667</ele><time>2026-05-03T13:33:23.699Z</time></trkpt><trkpt lat="41.7977704" lon="19.6331842"><ele>5.333333333333334</ele><time>2026-05-03T13:33:24.699Z</time></trkpt><trkpt lat="41.7979341" lon="19.6330826"><ele>3.0</ele><time>2026-05-03T13:33:25.696Z</time></trkpt><trkpt lat="41.7980988" lon="19.6329674"><ele>3.0</ele><time>2026-05-03T13:33:26.7Z</time></trkpt><trkpt lat="41.7982607" lon="19.6328508"><ele>3.0</ele><time>2026-05-03T13:33:27.699Z</time></trkpt><trkpt lat="41.7984154" lon="19.6327407"><ele>3.0</ele><time>2026-05-03T13:33:28.7Z</time></trkpt><trkpt lat="41.798574" lon="19.6326266"><ele>2.6666666666666665</ele><time>2026-05-03T13:33:29.7Z</time></trkpt><trkpt lat="41.798732" lon="19.6325092"><ele>2.333333333333333</ele><time>2026-05-03T13:33:30.7Z</time></trkpt><trkpt lat="41.7988864" lon="19.6323961"><ele>2.0</ele><time>2026-05-03T13:33:31.701Z</time></trkpt><trkpt lat="41.7990411" lon="19.6322828"><ele>2.0</ele><time>2026-05-03T13:33:32.7Z</time></trkpt><trkpt lat="41.7992044" lon="19.6321567"><ele>2.0</ele><time>2026-05-03T13:33:33.699Z</time></trkpt><trkpt lat="41.7993668" lon="19.6320254"><ele>2.0</ele><time>2026-05-03T13:33:34.698Z</time></trkpt><trkpt lat="41.7995262" lon="19.6318877"><ele>2.6666666666666665</ele><time>2026-05-03T13:33:35.696Z</time></trkpt><trkpt lat="41.7996864" lon="19.6317436"><ele>3.333333333333333</ele><time>2026-05-03T13:33:36.697Z</time></trkpt><trkpt lat="41.7998452" lon="19.6315912"><ele>4.0</ele><time>2026-05-03T13:33:37.7Z</time></trkpt><trkpt lat="41.8000027" lon="19.6314403"><ele>4.0</ele><time>2026-05-03T13:33:38.701Z</time></trkpt><trkpt lat="41.8001565" lon="19.6312914"><ele>4.0</ele><time>2026-05-03T13:33:39.701Z</time></trkpt><trkpt lat="41.8003118" lon="19.631144"><ele>4.0</ele><time>2026-05-03T13:33:40.701Z</time></trkpt><trkpt lat="41.8004603" lon="19.6310028"><ele>6.333333333333333</ele><time>2026-05-03T13:33:41.7Z</time></trkpt><trkpt lat="41.8006152" lon="19.6308688"><ele>8.666666666666666</ele><time>2026-05-03T13:33:42.699Z</time></trkpt><trkpt lat="41.8007785" lon="19.6307462"><ele>11.0</ele><time>2026-05-03T13:33:43.7Z</time></trkpt><trkpt lat="41.8009443" lon="19.6306402"><ele>9.0</ele><time>2026-05-03T13:33:44.699Z</time></trkpt><trkpt lat="41.8011183" lon="19.6305564"><ele>7.0</ele><time>2026-05-03T13:33:45.697Z</time></trkpt><trkpt lat="41.8012904" lon="19.630475"><ele>5.0</ele><time>2026-05-03T13:33:46.698Z</time></trkpt><trkpt lat="41.8014641" lon="19.6304154"><ele>5.0</ele><time>2026-05-03T13:33:47.701Z</time></trkpt><trkpt lat="41.8016414" lon="19.6303757"><ele>5.0</ele><time>2026-05-03T13:33:48.7Z</time></trkpt><trkpt lat="41.8018177" lon="19.6303427"><ele>5.0</ele><time>2026-05-03T13:33:49.697Z</time></trkpt><trkpt lat="41.8019999" lon="19.6303027"><ele>4.0</ele><time>2026-05-03T13:33:50.701Z</time></trkpt><trkpt lat="41.802177" lon="19.6303111"><ele>3.0</ele><time>2026-05-03T13:33:51.7Z</time></trkpt><trkpt lat="41.8023498" lon="19.6303365"><ele>2.0</ele><time>2026-05-03T13:33:52.699Z</time></trkpt><trkpt lat="41.8025201" lon="19.6303799"><ele>3.0</ele><time>2026-05-03T13:33:53.7Z</time></trkpt><trkpt lat="41.8026886" lon="19.6304296"><ele>4.0</ele><time>2026-05-03T13:33:54.701Z</time></trkpt><trkpt lat="41.8028574" lon="19.6304964"><ele>5.0</ele><time>2026-05-03T13:33:55.7Z</time></trkpt><trkpt lat="41.8030215" lon="19.6305893"><ele>5.0</ele><time>2026-05-03T13:33:56.699Z</time></trkpt><trkpt lat="41.803184" lon="19.6306849"><ele>5.0</ele><time>2026-05-03T13:33:57.699Z</time></trkpt><trkpt lat="41.8033456" lon="19.630785"><ele>5.0</ele><time>2026-05-03T13:33:58.701Z</time></trkpt><trkpt lat="41.8035075" lon="19.6308884"><ele>4.0</ele><time>2026-05-03T13:33:59.699Z</time></trkpt><trkpt lat="41.8036722" lon="19.6310017"><ele>3.0</ele><time>2026-05-03T13:34:00.699Z</time></trkpt><trkpt lat="41.8038259" lon="19.6311228"><ele>2.0</ele><time>2026-05-03T13:34:01.701Z</time></trkpt><trkpt lat="41.8039725" lon="19.6312185"><ele>2.0</ele><time>2026-05-03T13:34:02.7Z</time></trkpt><trkpt lat="41.8041108" lon="19.6313077"><ele>2.0</ele><time>2026-05-03T13:34:03.7Z</time></trkpt><trkpt lat="41.8042447" lon="19.631396"><ele>2.0</ele><time>2026-05-03T13:34:04.698Z</time></trkpt><trkpt lat="41.8043773" lon="19.6314815"><ele>2.333333333333333</ele><time>2026-05-03T13:34:05.7Z</time></trkpt><trkpt lat="41.804507" lon="19.6315749"><ele>2.6666666666666665</ele><time>2026-05-03T13:34:06.701Z</time></trkpt><trkpt lat="41.8046453" lon="19.6316686"><ele>3.0</ele><time>2026-05-03T13:34:07.701Z</time></trkpt><trkpt lat="41.8047888" lon="19.6317627"><ele>3.0</ele><time>2026-05-03T13:34:08.701Z</time></trkpt><trkpt lat="41.804933" lon="19.6318561"><ele>3.0</ele><time>2026-05-03T13:34:09.699Z</time></trkpt><trkpt lat="41.8050772" lon="19.6319494"><ele>3.0</ele><time>2026-05-03T13:34:10.7Z</time></trkpt><trkpt lat="41.8052246" lon="19.632037"><ele>3.0</ele><time>2026-05-03T13:34:11.699Z</time></trkpt><trkpt lat="41.8053676" lon="19.6321347"><ele>3.0</ele><time>2026-05-03T13:34:12.701Z</time></trkpt><trkpt lat="41.8055184" lon="19.6322235"><ele>3.0</ele><time>2026-05-03T13:34:13.7Z</time></trkpt><trkpt lat="41.8056612" lon="19.6323196"><ele>3.0</ele><time>2026-05-03T13:34:14.697Z</time></trkpt><trkpt lat="41.8058013" lon="19.6324066"><ele>3.0</ele><time>2026-05-03T13:34:15.7Z</time></trkpt><trkpt lat="41.8059306" lon="19.632495"><ele>3.0</ele><time>2026-05-03T13:34:16.7Z</time></trkpt><trkpt lat="41.8060561" lon="19.6325811"><ele>3.0</ele><time>2026-05-03T13:34:17.701Z</time></trkpt><trkpt lat="41.8061969" lon="19.6326691"><ele>2.6666666666666665</ele><time>2026-05-03T13:34:18.703Z</time></trkpt><trkpt lat="41.8063361" lon="19.6327574"><ele>2.333333333333333</ele><time>2026-05-03T13:34:19.697Z</time></trkpt><trkpt lat="41.8064772" lon="19.6328494"><ele>2.0</ele><time>2026-05-03T13:34:20.701Z</time></trkpt><trkpt lat="41.8066204" lon="19.6329328"><ele>2.6666666666666665</ele><time>2026-05-03T13:34:21.699Z</time></trkpt><trkpt lat="41.806749" lon="19.6330325"><ele>3.333333333333333</ele><time>2026-05-03T13:34:22.699Z</time></trkpt><trkpt lat="41.8068844" lon="19.6331272"><ele>4.0</ele><time>2026-05-03T13:34:23.699Z</time></trkpt><trkpt lat="41.8070177" lon="19.6332171"><ele>4.333333333333333</ele><time>2026-05-03T13:34:24.698Z</time></trkpt><trkpt lat="41.8071565" lon="19.6333073"><ele>4.666666666666667</ele><time>2026-05-03T13:34:25.703Z</time></trkpt><trkpt lat="41.807298" lon="19.6333959"><ele>5.0</ele><time>2026-05-03T13:34:26.699Z</time></trkpt><trkpt lat="41.8074393" lon="19.6334885"><ele>5.0</ele><time>2026-05-03T13:34:27.699Z</time></trkpt><trkpt lat="41.8075829" lon="19.6335887"><ele>5.0</ele><time>2026-05-03T13:34:28.701Z</time></trkpt><trkpt lat="41.8077272" lon="19.6336824"><ele>5.0</ele><time>2026-05-03T13:34:29.699Z</time></trkpt><trkpt lat="41.8078723" lon="19.6337758"><ele>5.0</ele><time>2026-05-03T13:34:30.7Z</time></trkpt><trkpt lat="41.8080193" lon="19.6338667"><ele>5.0</ele><time>2026-05-03T13:34:31.7Z</time></trkpt><trkpt lat="41.8081625" lon="19.6339748"><ele>5.0</ele><time>2026-05-03T13:34:32.7Z</time></trkpt><trkpt lat="41.8083048" lon="19.6340694"><ele>5.0</ele><time>2026-05-03T13:34:33.699Z</time></trkpt><trkpt lat="41.8084441" lon="19.6341623"><ele>5.0</ele><time>2026-05-03T13:34:34.699Z</time></trkpt><trkpt lat="41.8085842" lon="19.6342521"><ele>5.0</ele><time>2026-05-03T13:34:35.697Z</time></trkpt><trkpt lat="41.808719" lon="19.6343394"><ele>4.666666666666667</ele><time>2026-05-03T13:34:36.698Z</time></trkpt><trkpt lat="41.8088604" lon="19.6344139"><ele>4.333333333333333</ele><time>2026-05-03T13:34:37.701Z</time></trkpt><trkpt lat="41.8089974" lon="19.6345004"><ele>4.0</ele><time>2026-05-03T13:34:38.7Z</time></trkpt><trkpt lat="41.8091328" lon="19.6345874"><ele>3.6666666666666665</ele><time>2026-05-03T13:34:39.7Z</time></trkpt><trkpt lat="41.8092674" lon="19.6346737"><ele>3.333333333333333</ele><time>2026-05-03T13:34:40.702Z</time></trkpt><trkpt lat="41.8094019" lon="19.6347619"><ele>3.0</ele><time>2026-05-03T13:34:41.699Z</time></trkpt><trkpt lat="41.8095413" lon="19.634855"><ele>3.0</ele><time>2026-05-03T13:34:42.7Z</time></trkpt><trkpt lat="41.809683" lon="19.6349403"><ele>3.0</ele><time>2026-05-03T13:34:43.701Z</time></trkpt><trkpt lat="41.8098271" lon="19.6350304"><ele>3.0</ele><time>2026-05-03T13:34:44.698Z</time></trkpt><trkpt lat="41.8099712" lon="19.6351244"><ele>3.0</ele><time>2026-05-03T13:34:45.7Z</time></trkpt><trkpt lat="41.8101212" lon="19.6352219"><ele>3.0</ele><time>2026-05-03T13:34:46.699Z</time></trkpt><trkpt lat="41.8102733" lon="19.6353187"><ele>3.0</ele><time>2026-05-03T13:34:47.701Z</time></trkpt><trkpt lat="41.8104296" lon="19.6354194"><ele>3.666666666666667</ele><time>2026-05-03T13:34:48.701Z</time></trkpt><trkpt lat="41.8105852" lon="19.6355204"><ele>4.333333333333334</ele><time>2026-05-03T13:34:49.7Z</time></trkpt><trkpt lat="41.8107356" lon="19.6356404"><ele>5.0</ele><time>2026-05-03T13:34:50.7Z</time></trkpt><trkpt lat="41.8108913" lon="19.6357415"><ele>5.0</ele><time>2026-05-03T13:34:51.699Z</time></trkpt><trkpt lat="41.811045" lon="19.635841"><ele>5.0</ele><time>2026-05-03T13:34:52.699Z</time></trkpt><trkpt lat="41.811205" lon="19.635944"><ele>5.0</ele><time>2026-05-03T13:34:53.694Z</time></trkpt><trkpt lat="41.8113578" lon="19.6360401"><ele>5.0</ele><time>2026-05-03T13:34:54.701Z</time></trkpt><trkpt lat="41.8115142" lon="19.6361371"><ele>5.0</ele><time>2026-05-03T13:34:55.699Z</time></trkpt><trkpt lat="41.8116704" lon="19.6362383"><ele>5.0</ele><time>2026-05-03T13:34:56.699Z</time></trkpt><trkpt lat="41.8118337" lon="19.6363433"><ele>5.0</ele><time>2026-05-03T13:34:57.697Z</time></trkpt><trkpt lat="41.8119982" lon="19.6364628"><ele>5.0</ele><time>2026-05-03T13:34:58.702Z</time></trkpt><trkpt lat="41.8121644" lon="19.6365711"><ele>5.0</ele><time>2026-05-03T13:34:59.7Z</time></trkpt><trkpt lat="41.812336" lon="19.6366836"><ele>5.0</ele><time>2026-05-03T13:35:00.701Z</time></trkpt><trkpt lat="41.8125101" lon="19.6367947"><ele>5.0</ele><time>2026-05-03T13:35:01.701Z</time></trkpt><trkpt lat="41.8126784" lon="19.6369042"><ele>5.0</ele><time>2026-05-03T13:35:02.701Z</time></trkpt><trkpt lat="41.812841" lon="19.6370107"><ele>4.0</ele><time>2026-05-03T13:35:03.699Z</time></trkpt><trkpt lat="41.8129954" lon="19.6371066"><ele>3.0</ele><time>2026-05-03T13:35:04.698Z</time></trkpt><trkpt lat="41.8131536" lon="19.6372045"><ele>2.0</ele><time>2026-05-03T13:35:05.697Z</time></trkpt><trkpt lat="41.8133088" lon="19.6373019"><ele>2.0</ele><time>2026-05-03T13:35:06.698Z</time></trkpt><trkpt lat="41.8134588" lon="19.6374017"><ele>2.0</ele><time>2026-05-03T13:35:07.7Z</time></trkpt><trkpt lat="41.813601" lon="19.637507"><ele>2.0</ele><time>2026-05-03T13:35:08.7Z</time></trkpt><trkpt lat="41.8137414" lon="19.6376042"><ele>2.333333333333333</ele><time>2026-05-03T13:35:09.701Z</time></trkpt><trkpt lat="41.8138822" lon="19.6377082"><ele>2.6666666666666665</ele><time>2026-05-03T13:35:10.701Z</time></trkpt><trkpt lat="41.814009" lon="19.6378084"><ele>3.0</ele><time>2026-05-03T13:35:11.7Z</time></trkpt><trkpt lat="41.8141333" lon="19.6379071"><ele>3.0</ele><time>2026-05-03T13:35:12.699Z</time></trkpt><trkpt lat="41.8142622" lon="19.6380107"><ele>3.0</ele><time>2026-05-03T13:35:13.697Z</time></trkpt><trkpt lat="41.8143944" lon="19.638123"><ele>3.0</ele><time>2026-05-03T13:35:14.699Z</time></trkpt><trkpt lat="41.8145259" lon="19.6382407"><ele>3.0</ele><time>2026-05-03T13:35:15.698Z</time></trkpt><trkpt lat="41.8146571" lon="19.6383621"><ele>3.0</ele><time>2026-05-03T13:35:16.697Z</time></trkpt><trkpt lat="41.8147869" lon="19.6384927"><ele>3.0</ele><time>2026-05-03T13:35:17.7Z</time></trkpt><trkpt lat="41.8149135" lon="19.6386299"><ele>3.0</ele><time>2026-05-03T13:35:18.699Z</time></trkpt><trkpt lat="41.8150455" lon="19.6387616"><ele>3.0</ele><time>2026-05-03T13:35:19.698Z</time></trkpt><trkpt lat="41.8151773" lon="19.6388893"><ele>3.0</ele><time>2026-05-03T13:35:20.699Z</time></trkpt><trkpt lat="41.8153108" lon="19.6390199"><ele>3.0</ele><time>2026-05-03T13:35:21.7Z</time></trkpt><trkpt lat="41.8154333" lon="19.6391635"><ele>3.0</ele><time>2026-05-03T13:35:22.7Z</time></trkpt><trkpt lat="41.815556" lon="19.6393039"><ele>3.0</ele><time>2026-05-03T13:35:23.7Z</time></trkpt><trkpt lat="41.8156762" lon="19.6394559"><ele>3.333333333333333</ele><time>2026-05-03T13:35:24.698Z</time></trkpt><trkpt lat="41.8157957" lon="19.6396047"><ele>3.6666666666666665</ele><time>2026-05-03T13:35:25.701Z</time></trkpt><trkpt lat="41.8159138" lon="19.6397548"><ele>4.0</ele><time>2026-05-03T13:35:26.703Z</time></trkpt><trkpt lat="41.8160394" lon="19.6399004"><ele>4.0</ele><time>2026-05-03T13:35:27.7Z</time></trkpt><trkpt lat="41.816165" lon="19.6400421"><ele>4.0</ele><time>2026-05-03T13:35:28.702Z</time></trkpt><trkpt lat="41.8162869" lon="19.6401872"><ele>4.0</ele><time>2026-05-03T13:35:29.701Z</time></trkpt><trkpt lat="41.8164013" lon="19.6403313"><ele>4.0</ele><time>2026-05-03T13:35:30.7Z</time></trkpt><trkpt lat="41.8165219" lon="19.6404749"><ele>4.0</ele><time>2026-05-03T13:35:31.699Z</time></trkpt><trkpt lat="41.8166363" lon="19.6406199"><ele>4.0</ele><time>2026-05-03T13:35:32.701Z</time></trkpt><trkpt lat="41.816764" lon="19.6407579"><ele>5.0</ele><time>2026-05-03T13:35:33.698Z</time></trkpt><trkpt lat="41.8168984" lon="19.6409023"><ele>6.0</ele><time>2026-05-03T13:35:34.699Z</time></trkpt><trkpt lat="41.8170238" lon="19.6410471"><ele>7.0</ele><time>2026-05-03T13:35:35.698Z</time></trkpt><trkpt lat="41.8171522" lon="19.6411863"><ele>7.0</ele><time>2026-05-03T13:35:36.698Z</time></trkpt><trkpt lat="41.8172872" lon="19.641311"><ele>7.0</ele><time>2026-05-03T13:35:37.699Z</time></trkpt><trkpt lat="41.81743" lon="19.6414154"><ele>7.0</ele><time>2026-05-03T13:35:38.7Z</time></trkpt><trkpt lat="41.8175751" lon="19.6415047"><ele>8.0</ele><time>2026-05-03T13:35:39.698Z</time></trkpt><trkpt lat="41.8177297" lon="19.6415796"><ele>9.0</ele><time>2026-05-03T13:35:40.696Z</time></trkpt><trkpt lat="41.8178855" lon="19.6416391"><ele>10.0</ele><time>2026-05-03T13:35:41.699Z</time></trkpt><trkpt lat="41.8180469" lon="19.641676"><ele>10.0</ele><time>2026-05-03T13:35:42.698Z</time></trkpt><trkpt lat="41.8182095" lon="19.6416984"><ele>10.0</ele><time>2026-05-03T13:35:43.698Z</time></trkpt><trkpt lat="41.8183742" lon="19.6417075"><ele>10.0</ele><time>2026-05-03T13:35:44.696Z</time></trkpt><trkpt lat="41.8185398" lon="19.6417209"><ele>9.333333333333334</ele><time>2026-05-03T13:35:45.697Z</time></trkpt><trkpt lat="41.8187063" lon="19.6417398"><ele>8.666666666666666</ele><time>2026-05-03T13:35:46.699Z</time></trkpt><trkpt lat="41.81888" lon="19.6417676"><ele>8.0</ele><time>2026-05-03T13:35:47.7Z</time></trkpt><trkpt lat="41.8190629" lon="19.6418066"><ele>8.0</ele><time>2026-05-03T13:35:48.7Z</time></trkpt><trkpt lat="41.8192373" lon="19.6418582"><ele>8.0</ele><time>2026-05-03T13:35:49.699Z</time></trkpt><trkpt lat="41.8194108" lon="19.6419048"><ele>8.0</ele><time>2026-05-03T13:35:50.696Z</time></trkpt><trkpt lat="41.8195796" lon="19.6419593"><ele>6.666666666666666</ele><time>2026-05-03T13:35:51.698Z</time></trkpt><trkpt lat="41.8197519" lon="19.6420084"><ele>5.333333333333333</ele><time>2026-05-03T13:35:52.698Z</time></trkpt><trkpt lat="41.8199255" lon="19.64206"><ele>4.0</ele><time>2026-05-03T13:35:53.698Z</time></trkpt><trkpt lat="41.8201006" lon="19.6421255"><ele>4.333333333333333</ele><time>2026-05-03T13:35:54.7Z</time></trkpt><trkpt lat="41.8202765" lon="19.6421854"><ele>4.666666666666667</ele><time>2026-05-03T13:35:55.696Z</time></trkpt><trkpt lat="41.8204503" lon="19.6422354"><ele>5.0</ele><time>2026-05-03T13:35:56.696Z</time></trkpt><trkpt lat="41.8206219" lon="19.6422863"><ele>5.0</ele><time>2026-05-03T13:35:57.699Z</time></trkpt><trkpt lat="41.8207943" lon="19.6423327"><ele>5.0</ele><time>2026-05-03T13:35:58.7Z</time></trkpt><trkpt lat="41.8209719" lon="19.6423752"><ele>5.0</ele><time>2026-05-03T13:35:59.699Z</time></trkpt><trkpt lat="41.821145" lon="19.6424021"><ele>6.0</ele><time>2026-05-03T13:36:00.699Z</time></trkpt><trkpt lat="41.821318" lon="19.6424166"><ele>7.0</ele><time>2026-05-03T13:36:01.699Z</time></trkpt><trkpt lat="41.8214952" lon="19.6424116"><ele>8.0</ele><time>2026-05-03T13:36:02.701Z</time></trkpt><trkpt lat="41.8216733" lon="19.6423956"><ele>7.0</ele><time>2026-05-03T13:36:03.699Z</time></trkpt><trkpt lat="41.8218484" lon="19.6423733"><ele>6.0</ele><time>2026-05-03T13:36:04.697Z</time></trkpt><trkpt lat="41.8220221" lon="19.6423313"><ele>5.0</ele><time>2026-05-03T13:36:05.7Z</time></trkpt><trkpt lat="41.8221963" lon="19.6422804"><ele>5.0</ele><time>2026-05-03T13:36:06.699Z</time></trkpt><trkpt lat="41.8223718" lon="19.642216"><ele>5.0</ele><time>2026-05-03T13:36:07.697Z</time></trkpt><trkpt lat="41.822544" lon="19.6421467"><ele>5.0</ele><time>2026-05-03T13:36:08.7Z</time></trkpt><trkpt lat="41.8227122" lon="19.6420708"><ele>5.0</ele><time>2026-05-03T13:36:09.701Z</time></trkpt><trkpt lat="41.8228784" lon="19.6420001"><ele>5.0</ele><time>2026-05-03T13:36:10.7Z</time></trkpt><trkpt lat="41.8230433" lon="19.6419226"><ele>5.0</ele><time>2026-05-03T13:36:11.7Z</time></trkpt><trkpt lat="41.8232071" lon="19.6418436"><ele>5.0</ele><time>2026-05-03T13:36:12.699Z</time></trkpt><trkpt lat="41.8233692" lon="19.6417643"><ele>5.0</ele><time>2026-05-03T13:36:13.7Z</time></trkpt><trkpt lat="41.823525" lon="19.6416907"><ele>5.0</ele><time>2026-05-03T13:36:14.696Z</time></trkpt><trkpt lat="41.8236811" lon="19.6416176"><ele>5.0</ele><time>2026-05-03T13:36:15.698Z</time></trkpt><trkpt lat="41.8238425" lon="19.6415382"><ele>5.0</ele><time>2026-05-03T13:36:16.697Z</time></trkpt><trkpt lat="41.8240042" lon="19.6414554"><ele>5.0</ele><time>2026-05-03T13:36:17.697Z</time></trkpt><trkpt lat="41.8241717" lon="19.6413582"><ele>4.666666666666667</ele><time>2026-05-03T13:36:18.698Z</time></trkpt><trkpt lat="41.8243187" lon="19.6412766"><ele>4.333333333333333</ele><time>2026-05-03T13:36:19.699Z</time></trkpt><trkpt lat="41.8244755" lon="19.6411862"><ele>4.0</ele><time>2026-05-03T13:36:20.698Z</time></trkpt><trkpt lat="41.8246312" lon="19.6410924"><ele>5.0</ele><time>2026-05-03T13:36:21.7Z</time></trkpt><trkpt lat="41.8247842" lon="19.6410005"><ele>6.0</ele><time>2026-05-03T13:36:22.696Z</time></trkpt><trkpt lat="41.8249341" lon="19.640908"><ele>7.0</ele><time>2026-05-03T13:36:23.697Z</time></trkpt><trkpt lat="41.8250806" lon="19.6408197"><ele>6.666666666666667</ele><time>2026-05-03T13:36:24.698Z</time></trkpt><trkpt lat="41.8252345" lon="19.6407202"><ele>6.333333333333334</ele><time>2026-05-03T13:36:25.698Z</time></trkpt><trkpt lat="41.8253844" lon="19.6406225"><ele>6.0</ele><time>2026-05-03T13:36:26.697Z</time></trkpt><trkpt lat="41.8255293" lon="19.6405348"><ele>6.0</ele><time>2026-05-03T13:36:27.7Z</time></trkpt><trkpt lat="41.8256741" lon="19.6404504"><ele>6.0</ele><time>2026-05-03T13:36:28.7Z</time></trkpt><trkpt lat="41.8258194" lon="19.6403602"><ele>6.0</ele><time>2026-05-03T13:36:29.698Z</time></trkpt><trkpt lat="41.8259649" lon="19.6402692"><ele>7.333333333333334</ele><time>2026-05-03T13:36:30.698Z</time></trkpt><trkpt lat="41.8261148" lon="19.640177"><ele>8.666666666666668</ele><time>2026-05-03T13:36:31.699Z</time></trkpt><trkpt lat="41.8262625" lon="19.6400844"><ele>10.0</ele><time>2026-05-03T13:36:32.698Z</time></trkpt><trkpt lat="41.8264111" lon="19.6399938"><ele>10.0</ele><time>2026-05-03T13:36:33.699Z</time></trkpt><trkpt lat="41.8265565" lon="19.6399072"><ele>10.0</ele><time>2026-05-03T13:36:34.697Z</time></trkpt><trkpt lat="41.8267038" lon="19.6398199"><ele>10.0</ele><time>2026-05-03T13:36:35.699Z</time></trkpt><trkpt lat="41.8268484" lon="19.6397375"><ele>8.0</ele><time>2026-05-03T13:36:36.697Z</time></trkpt><trkpt lat="41.8269939" lon="19.639652"><ele>6.0</ele><time>2026-05-03T13:36:37.701Z</time></trkpt><trkpt lat="41.8271429" lon="19.6395693"><ele>4.0</ele><time>2026-05-03T13:36:38.696Z</time></trkpt><trkpt lat="41.8272946" lon="19.6394835"><ele>5.333333333333333</ele><time>2026-05-03T13:36:39.7Z</time></trkpt><trkpt lat="41.8274472" lon="19.6394017"><ele>6.666666666666666</ele><time>2026-05-03T13:36:40.7Z</time></trkpt><trkpt lat="41.8276007" lon="19.6393238"><ele>8.0</ele><time>2026-05-03T13:36:41.701Z</time></trkpt><trkpt lat="41.8277472" lon="19.6392496"><ele>8.0</ele><time>2026-05-03T13:36:42.7Z</time></trkpt><trkpt lat="41.8279056" lon="19.6391838"><ele>8.0</ele><time>2026-05-03T13:36:43.7Z</time></trkpt><trkpt lat="41.8280619" lon="19.6391188"><ele>8.0</ele><time>2026-05-03T13:36:44.699Z</time></trkpt><trkpt lat="41.8282173" lon="19.6390578"><ele>8.0</ele><time>2026-05-03T13:36:45.699Z</time></trkpt><trkpt lat="41.8283737" lon="19.638996"><ele>8.0</ele><time>2026-05-03T13:36:46.699Z</time></trkpt><trkpt lat="41.8285273" lon="19.6389434"><ele>8.0</ele><time>2026-05-03T13:36:47.699Z</time></trkpt><trkpt lat="41.828679" lon="19.6388988"><ele>6.666666666666666</ele><time>2026-05-03T13:36:48.698Z</time></trkpt><trkpt lat="41.8288323" lon="19.638857"><ele>5.333333333333333</ele><time>2026-05-03T13:36:49.699Z</time></trkpt><trkpt lat="41.8289888" lon="19.6388181"><ele>4.0</ele><time>2026-05-03T13:36:50.699Z</time></trkpt><trkpt lat="41.8291452" lon="19.6387852"><ele>4.0</ele><time>2026-05-03T13:36:51.7Z</time></trkpt><trkpt lat="41.8292967" lon="19.6387648"><ele>4.0</ele><time>2026-05-03T13:36:52.698Z</time></trkpt><trkpt lat="41.8294536" lon="19.638737"><ele>4.0</ele><time>2026-05-03T13:36:53.698Z</time></trkpt><trkpt lat="41.829611" lon="19.6387094"><ele>3.333333333333333</ele><time>2026-05-03T13:36:54.7Z</time></trkpt><trkpt lat="41.8297652" lon="19.638687"><ele>2.6666666666666665</ele><time>2026-05-03T13:36:55.699Z</time></trkpt><trkpt lat="41.829923" lon="19.6386711"><ele>2.0</ele><time>2026-05-03T13:36:56.699Z</time></trkpt><trkpt lat="41.830075" lon="19.6386547"><ele>2.0</ele><time>2026-05-03T13:36:57.7Z</time></trkpt><trkpt lat="41.8302294" lon="19.638644"><ele>2.0</ele><time>2026-05-03T13:36:58.702Z</time></trkpt><trkpt lat="41.8303847" lon="19.6386339"><ele>2.0</ele><time>2026-05-03T13:36:59.699Z</time></trkpt><trkpt lat="41.8305423" lon="19.6386287"><ele>2.0</ele><time>2026-05-03T13:37:00.699Z</time></trkpt><trkpt lat="41.8306998" lon="19.6386358"><ele>2.0</ele><time>2026-05-03T13:37:01.7Z</time></trkpt><trkpt lat="41.8308675" lon="19.6386365"><ele>2.0</ele><time>2026-05-03T13:37:02.7Z</time></trkpt><trkpt lat="41.8310388" lon="19.6386488"><ele>1.0</ele><time>2026-05-03T13:37:03.7Z</time></trkpt><trkpt lat="41.8312056" lon="19.6386629"><ele>0.0</ele><time>2026-05-03T13:37:04.698Z</time></trkpt><trkpt lat="41.8313729" lon="19.6386824"><ele>-1.0</ele><time>2026-05-03T13:37:05.696Z</time></trkpt><trkpt lat="41.8315384" lon="19.6386983"><ele>-1.0</ele><time>2026-05-03T13:37:06.7Z</time></trkpt><trkpt lat="41.8317003" lon="19.638729"><ele>-1.0</ele><time>2026-05-03T13:37:07.701Z</time></trkpt><trkpt lat="41.8318642" lon="19.6387609"><ele>-1.0</ele><time>2026-05-03T13:37:08.699Z</time></trkpt><trkpt lat="41.832027" lon="19.6387955"><ele>0.33333333333333337</ele><time>2026-05-03T13:37:09.698Z</time></trkpt><trkpt lat="41.8321881" lon="19.6388339"><ele>1.6666666666666667</ele><time>2026-05-03T13:37:10.699Z</time></trkpt><trkpt lat="41.8323519" lon="19.6388711"><ele>3.0</ele><time>2026-05-03T13:37:11.698Z</time></trkpt><trkpt lat="41.832507" lon="19.6389227"><ele>2.0</ele><time>2026-05-03T13:37:12.698Z</time></trkpt><trkpt lat="41.8326666" lon="19.6389678"><ele>1.0</ele><time>2026-05-03T13:37:13.697Z</time></trkpt><trkpt lat="41.8328225" lon="19.6390164"><ele>0.0</ele><time>2026-05-03T13:37:14.697Z</time></trkpt><trkpt lat="41.8329785" lon="19.63905"><ele>0.0</ele><time>2026-05-03T13:37:15.696Z</time></trkpt><trkpt lat="41.8331283" lon="19.6391031"><ele>0.0</ele><time>2026-05-03T13:37:16.696Z</time></trkpt><trkpt lat="41.8332731" lon="19.6391618"><ele>0.0</ele><time>2026-05-03T13:37:17.698Z</time></trkpt><trkpt lat="41.8334132" lon="19.6392283"><ele>0.25</ele><time>2026-05-03T13:37:18.699Z</time></trkpt><trkpt lat="41.8335544" lon="19.639292"><ele>0.5</ele><time>2026-05-03T13:37:19.699Z</time></trkpt><trkpt lat="41.83369" lon="19.6393567"><ele>0.75</ele><time>2026-05-03T13:37:20.698Z</time></trkpt><trkpt lat="41.833826" lon="19.6394198"><ele>1.0</ele><time>2026-05-03T13:37:21.701Z</time></trkpt><trkpt lat="41.8339583" lon="19.6394884"><ele>1.0</ele><time>2026-05-03T13:37:22.7Z</time></trkpt><trkpt lat="41.8340872" lon="19.6395595"><ele>1.0</ele><time>2026-05-03T13:37:23.699Z</time></trkpt><trkpt lat="41.834216" lon="19.6396361"><ele>1.0</ele><time>2026-05-03T13:37:24.697Z</time></trkpt><trkpt lat="41.8343486" lon="19.6397212"><ele>1.0</ele><time>2026-05-03T13:37:25.697Z</time></trkpt><trkpt lat="41.8344808" lon="19.6398126"><ele>2.3333333333333335</ele><time>2026-05-03T13:37:26.696Z</time></trkpt><trkpt lat="41.8346153" lon="19.6398939"><ele>3.666666666666667</ele><time>2026-05-03T13:37:27.698Z</time></trkpt><trkpt lat="41.8347527" lon="19.6399865"><ele>5.0</ele><time>2026-05-03T13:37:28.701Z</time></trkpt><trkpt lat="41.8348905" lon="19.6400856"><ele>5.0</ele><time>2026-05-03T13:37:29.697Z</time></trkpt><trkpt lat="41.8350328" lon="19.6401971"><ele>5.0</ele><time>2026-05-03T13:37:30.698Z</time></trkpt><trkpt lat="41.8351696" lon="19.640311"><ele>5.0</ele><time>2026-05-03T13:37:31.696Z</time></trkpt><trkpt lat="41.8353154" lon="19.640428"><ele>4.0</ele><time>2026-05-03T13:37:32.7Z</time></trkpt><trkpt lat="41.8354531" lon="19.6405414"><ele>3.0</ele><time>2026-05-03T13:37:33.698Z</time></trkpt><trkpt lat="41.8355878" lon="19.64065"><ele>2.0</ele><time>2026-05-03T13:37:34.7Z</time></trkpt><trkpt lat="41.8357189" lon="19.6407678"><ele>2.0</ele><time>2026-05-03T13:37:35.7Z</time></trkpt><trkpt lat="41.8358528" lon="19.6408837"><ele>2.0</ele><time>2026-05-03T13:37:36.699Z</time></trkpt><trkpt lat="41.8359813" lon="19.6410031"><ele>2.0</ele><time>2026-05-03T13:37:37.703Z</time></trkpt><trkpt lat="41.8361111" lon="19.6411209"><ele>2.0</ele><time>2026-05-03T13:37:38.704Z</time></trkpt><trkpt lat="41.8362449" lon="19.6412427"><ele>2.0</ele><time>2026-05-03T13:37:39.703Z</time></trkpt><trkpt lat="41.8363788" lon="19.64137"><ele>2.0</ele><time>2026-05-03T13:37:40.703Z</time></trkpt><trkpt lat="41.8365124" lon="19.641499"><ele>2.0</ele><time>2026-05-03T13:37:41.702Z</time></trkpt><trkpt lat="41.8366521" lon="19.6416352"><ele>2.0</ele><time>2026-05-03T13:37:42.699Z</time></trkpt><trkpt lat="41.8367916" lon="19.6417483"><ele>2.0</ele><time>2026-05-03T13:37:43.697Z</time></trkpt><trkpt lat="41.8369226" lon="19.6418569"><ele>3.666666666666667</ele><time>2026-05-03T13:37:44.698Z</time></trkpt><trkpt lat="41.8370511" lon="19.641982"><ele>5.333333333333334</ele><time>2026-05-03T13:37:45.698Z</time></trkpt><trkpt lat="41.8371721" lon="19.6421004"><ele>7.0</ele><time>2026-05-03T13:37:46.699Z</time></trkpt><trkpt lat="41.8372974" lon="19.6422092"><ele>7.0</ele><time>2026-05-03T13:37:47.698Z</time></trkpt><trkpt lat="41.8374187" lon="19.6423301"><ele>7.0</ele><time>2026-05-03T13:37:48.7Z</time></trkpt><trkpt lat="41.8375395" lon="19.6424286"><ele>7.0</ele><time>2026-05-03T13:37:49.7Z</time></trkpt><trkpt lat="41.8376694" lon="19.6425364"><ele>7.0</ele><time>2026-05-03T13:37:50.699Z</time></trkpt><trkpt lat="41.8378017" lon="19.6426414"><ele>5.666666666666667</ele><time>2026-05-03T13:37:51.699Z</time></trkpt><trkpt lat="41.8379406" lon="19.642739"><ele>4.333333333333334</ele><time>2026-05-03T13:37:52.699Z</time></trkpt><trkpt lat="41.8380826" lon="19.6428443"><ele>3.0</ele><time>2026-05-03T13:37:53.7Z</time></trkpt><trkpt lat="41.8382276" lon="19.642944"><ele>3.0</ele><time>2026-05-03T13:37:54.7Z</time></trkpt><trkpt lat="41.8383766" lon="19.6430433"><ele>3.0</ele><time>2026-05-03T13:37:55.699Z</time></trkpt><trkpt lat="41.838528" lon="19.6431373"><ele>3.0</ele><time>2026-05-03T13:37:56.699Z</time></trkpt><trkpt lat="41.8386785" lon="19.643226"><ele>3.333333333333333</ele><time>2026-05-03T13:37:57.699Z</time></trkpt><trkpt lat="41.8388291" lon="19.6433074"><ele>3.6666666666666665</ele><time>2026-05-03T13:37:58.697Z</time></trkpt><trkpt lat="41.8389827" lon="19.6433783"><ele>4.0</ele><time>2026-05-03T13:37:59.699Z</time></trkpt><trkpt lat="41.8391418" lon="19.6434477"><ele>4.0</ele><time>2026-05-03T13:38:00.699Z</time></trkpt><trkpt lat="41.8393005" lon="19.6435173"><ele>4.0</ele><time>2026-05-03T13:38:01.698Z</time></trkpt><trkpt lat="41.8394693" lon="19.6435854"><ele>4.0</ele><time>2026-05-03T13:38:02.701Z</time></trkpt><trkpt lat="41.8396465" lon="19.6436512"><ele>3.0</ele><time>2026-05-03T13:38:03.699Z</time></trkpt><trkpt lat="41.8398129" lon="19.6437143"><ele>2.0</ele><time>2026-05-03T13:38:04.697Z</time></trkpt><trkpt lat="41.83999" lon="19.6437601"><ele>1.0</ele><time>2026-05-03T13:38:05.698Z</time></trkpt><trkpt lat="41.8401624" lon="19.6438012"><ele>1.0</ele><time>2026-05-03T13:38:06.698Z</time></trkpt><trkpt lat="41.8403377" lon="19.6438394"><ele>1.0</ele><time>2026-05-03T13:38:07.697Z</time></trkpt><trkpt lat="41.8405163" lon="19.6438771"><ele>1.0</ele><time>2026-05-03T13:38:08.697Z</time></trkpt><trkpt lat="41.8406985" lon="19.6438995"><ele>1.0</ele><time>2026-05-03T13:38:09.698Z</time></trkpt><trkpt lat="41.8408844" lon="19.6439174"><ele>1.0</ele><time>2026-05-03T13:38:10.697Z</time></trkpt><trkpt lat="41.8410654" lon="19.6439355"><ele>1.0</ele><time>2026-05-03T13:38:11.699Z</time></trkpt><trkpt lat="41.8412423" lon="19.6439464"><ele>1.0</ele><time>2026-05-03T13:38:12.698Z</time></trkpt><trkpt lat="41.8414172" lon="19.6439477"><ele>1.0</ele><time>2026-05-03T13:38:13.7Z</time></trkpt><trkpt lat="41.8415918" lon="19.643943"><ele>1.0</ele><time>2026-05-03T13:38:14.699Z</time></trkpt><trkpt lat="41.8417666" lon="19.64393"><ele>1.6666666666666665</ele><time>2026-05-03T13:38:15.7Z</time></trkpt><trkpt lat="41.8419415" lon="19.6439063"><ele>2.3333333333333335</ele><time>2026-05-03T13:38:16.699Z</time></trkpt><trkpt lat="41.8421154" lon="19.6438814"><ele>3.0</ele><time>2026-05-03T13:38:17.697Z</time></trkpt><trkpt lat="41.8422888" lon="19.6438469"><ele>3.0</ele><time>2026-05-03T13:38:18.696Z</time></trkpt><trkpt lat="41.8424629" lon="19.643815"><ele>3.0</ele><time>2026-05-03T13:38:19.699Z</time></trkpt><trkpt lat="41.8426341" lon="19.6437772"><ele>3.0</ele><time>2026-05-03T13:38:20.696Z</time></trkpt><trkpt lat="41.8428035" lon="19.6437339"><ele>3.333333333333333</ele><time>2026-05-03T13:38:21.699Z</time></trkpt><trkpt lat="41.8429809" lon="19.6436854"><ele>3.6666666666666665</ele><time>2026-05-03T13:38:22.698Z</time></trkpt><trkpt lat="41.843153" lon="19.6436361"><ele>4.0</ele><time>2026-05-03T13:38:23.699Z</time></trkpt><trkpt lat="41.8433272" lon="19.6435873"><ele>3.333333333333333</ele><time>2026-05-03T13:38:24.697Z</time></trkpt><trkpt lat="41.8435041" lon="19.6435356"><ele>2.6666666666666665</ele><time>2026-05-03T13:38:25.7Z</time></trkpt><trkpt lat="41.8436788" lon="19.6434854"><ele>2.0</ele><time>2026-05-03T13:38:26.699Z</time></trkpt><trkpt lat="41.8438574" lon="19.6434369"><ele>2.0</ele><time>2026-05-03T13:38:27.698Z</time></trkpt><trkpt lat="41.8440333" lon="19.6433825"><ele>2.0</ele><time>2026-05-03T13:38:28.697Z</time></trkpt><trkpt lat="41.8442117" lon="19.6433323"><ele>2.0</ele><time>2026-05-03T13:38:29.699Z</time></trkpt><trkpt lat="41.844389" lon="19.6432803"><ele>2.0</ele><time>2026-05-03T13:38:30.699Z</time></trkpt><trkpt lat="41.8445667" lon="19.6432252"><ele>2.0</ele><time>2026-05-03T13:38:31.699Z</time></trkpt><trkpt lat="41.8447424" lon="19.6431736"><ele>2.0</ele><time>2026-05-03T13:38:32.699Z</time></trkpt><trkpt lat="41.8449203" lon="19.643125"><ele>2.0</ele><time>2026-05-03T13:38:33.697Z</time></trkpt><trkpt lat="41.8450951" lon="19.6430787"><ele>2.0</ele><time>2026-05-03T13:38:34.699Z</time></trkpt><trkpt lat="41.8452724" lon="19.6430273"><ele>2.0</ele><time>2026-05-03T13:38:35.7Z</time></trkpt><trkpt lat="41.8454479" lon="19.6429729"><ele>2.333333333333333</ele><time>2026-05-03T13:38:36.698Z</time></trkpt><trkpt lat="41.8456252" lon="19.6429247"><ele>2.6666666666666665</ele><time>2026-05-03T13:38:37.698Z</time></trkpt><trkpt lat="41.8458023" lon="19.6428746"><ele>3.0</ele><time>2026-05-03T13:38:38.698Z</time></trkpt><trkpt lat="41.8459819" lon="19.6428116"><ele>3.333333333333333</ele><time>2026-05-03T13:38:39.699Z</time></trkpt><trkpt lat="41.84616" lon="19.6427562"><ele>3.6666666666666665</ele><time>2026-05-03T13:38:40.699Z</time></trkpt><trkpt lat="41.8463363" lon="19.6427011"><ele>4.0</ele><time>2026-05-03T13:38:41.698Z</time></trkpt><trkpt lat="41.8465088" lon="19.6426504"><ele>4.0</ele><time>2026-05-03T13:38:42.697Z</time></trkpt><trkpt lat="41.84668" lon="19.6426011"><ele>4.0</ele><time>2026-05-03T13:38:43.698Z</time></trkpt><trkpt lat="41.8468492" lon="19.642551"><ele>4.0</ele><time>2026-05-03T13:38:44.698Z</time></trkpt><trkpt lat="41.8470186" lon="19.6425042"><ele>3.6666666666666665</ele><time>2026-05-03T13:38:45.699Z</time></trkpt><trkpt lat="41.8471892" lon="19.6424522"><ele>3.333333333333333</ele><time>2026-05-03T13:38:46.698Z</time></trkpt><trkpt lat="41.8473616" lon="19.6424009"><ele>3.0</ele><time>2026-05-03T13:38:47.7Z</time></trkpt><trkpt lat="41.8475308" lon="19.6423472"><ele>3.333333333333333</ele><time>2026-05-03T13:38:48.698Z</time></trkpt><trkpt lat="41.8476976" lon="19.6422933"><ele>3.6666666666666665</ele><time>2026-05-03T13:38:49.696Z</time></trkpt><trkpt lat="41.8478626" lon="19.6422446"><ele>4.0</ele><time>2026-05-03T13:38:50.699Z</time></trkpt><trkpt lat="41.8480248" lon="19.6421939"><ele>4.0</ele><time>2026-05-03T13:38:51.698Z</time></trkpt><trkpt lat="41.8481848" lon="19.642147"><ele>4.0</ele><time>2026-05-03T13:38:52.698Z</time></trkpt><trkpt lat="41.8483479" lon="19.6420921"><ele>4.0</ele><time>2026-05-03T13:38:53.698Z</time></trkpt><trkpt lat="41.8485159" lon="19.6420353"><ele>3.6666666666666665</ele><time>2026-05-03T13:38:54.697Z</time></trkpt><trkpt lat="41.8486888" lon="19.6419857"><ele>3.333333333333333</ele><time>2026-05-03T13:38:55.699Z</time></trkpt><trkpt lat="41.8488624" lon="19.6419379"><ele>3.0</ele><time>2026-05-03T13:38:56.699Z</time></trkpt><trkpt lat="41.8490339" lon="19.6418827"><ele>3.0</ele><time>2026-05-03T13:38:57.7Z</time></trkpt><trkpt lat="41.8492039" lon="19.6418319"><ele>3.0</ele><time>2026-05-03T13:38:58.7Z</time></trkpt><trkpt lat="41.8493723" lon="19.6417802"><ele>3.0</ele><time>2026-05-03T13:38:59.699Z</time></trkpt><trkpt lat="41.8495436" lon="19.6417273"><ele>2.6666666666666665</ele><time>2026-05-03T13:39:00.699Z</time></trkpt><trkpt lat="41.8497157" lon="19.641673"><ele>2.333333333333333</ele><time>2026-05-03T13:39:01.699Z</time></trkpt><trkpt lat="41.8498898" lon="19.6416238"><ele>2.0</ele><time>2026-05-03T13:39:02.698Z</time></trkpt><trkpt lat="41.8500678" lon="19.6415758"><ele>3.0</ele><time>2026-05-03T13:39:03.698Z</time></trkpt><trkpt lat="41.8502507" lon="19.6415222"><ele>4.0</ele><time>2026-05-03T13:39:04.702Z</time></trkpt><trkpt lat="41.8504339" lon="19.6414693"><ele>5.0</ele><time>2026-05-03T13:39:05.7Z</time></trkpt><trkpt lat="41.8506202" lon="19.6414189"><ele>5.0</ele><time>2026-05-03T13:39:06.697Z</time></trkpt><trkpt lat="41.8508039" lon="19.6413633"><ele>5.0</ele><time>2026-05-03T13:39:07.699Z</time></trkpt><trkpt lat="41.8509836" lon="19.6413131"><ele>5.0</ele><time>2026-05-03T13:39:08.696Z</time></trkpt><trkpt lat="41.8511667" lon="19.6412709"><ele>4.666666666666667</ele><time>2026-05-03T13:39:09.696Z</time></trkpt><trkpt lat="41.8513537" lon="19.6412147"><ele>4.333333333333333</ele><time>2026-05-03T13:39:10.7Z</time></trkpt><trkpt lat="41.8515363" lon="19.6411614"><ele>4.0</ele><time>2026-05-03T13:39:11.698Z</time></trkpt><trkpt lat="41.8517236" lon="19.641106"><ele>3.6666666666666665</ele><time>2026-05-03T13:39:12.697Z</time></trkpt><trkpt lat="41.851913" lon="19.6410412"><ele>3.333333333333333</ele><time>2026-05-03T13:39:13.697Z</time></trkpt><trkpt lat="41.8520982" lon="19.6409762"><ele>3.0</ele><time>2026-05-03T13:39:14.7Z</time></trkpt><trkpt lat="41.85228" lon="19.6409164"><ele>3.0</ele><time>2026-05-03T13:39:15.698Z</time></trkpt><trkpt lat="41.8524681" lon="19.6408569"><ele>3.0</ele><time>2026-05-03T13:39:16.698Z</time></trkpt><trkpt lat="41.8526416" lon="19.6408085"><ele>3.0</ele><time>2026-05-03T13:39:17.7Z</time></trkpt><trkpt lat="41.8528274" lon="19.640753"><ele>3.333333333333333</ele><time>2026-05-03T13:39:18.7Z</time></trkpt><trkpt lat="41.8530106" lon="19.6407024"><ele>3.6666666666666665</ele><time>2026-05-03T13:39:19.7Z</time></trkpt><trkpt lat="41.8531868" lon="19.6406553"><ele>4.0</ele><time>2026-05-03T13:39:20.699Z</time></trkpt><trkpt lat="41.85335" lon="19.6406009"><ele>3.6666666666666665</ele><time>2026-05-03T13:39:21.698Z</time></trkpt><trkpt lat="41.853513" lon="19.6405606"><ele>3.333333333333333</ele><time>2026-05-03T13:39:22.699Z</time></trkpt><trkpt lat="41.8536616" lon="19.6405166"><ele>3.0</ele><time>2026-05-03T13:39:23.699Z</time></trkpt><trkpt lat="41.8538193" lon="19.6404694"><ele>3.0</ele><time>2026-05-03T13:39:24.698Z</time></trkpt><trkpt lat="41.8539755" lon="19.6404207"><ele>3.0</ele><time>2026-05-03T13:39:25.7Z</time></trkpt><trkpt lat="41.8541309" lon="19.6403859"><ele>3.0</ele><time>2026-05-03T13:39:26.7Z</time></trkpt><trkpt lat="41.8542848" lon="19.6403461"><ele>2.6666666666666665</ele><time>2026-05-03T13:39:27.7Z</time></trkpt><trkpt lat="41.8544416" lon="19.6403007"><ele>2.333333333333333</ele><time>2026-05-03T13:39:28.698Z</time></trkpt><trkpt lat="41.8545967" lon="19.6402508"><ele>2.0</ele><time>2026-05-03T13:39:29.7Z</time></trkpt><trkpt lat="41.8547534" lon="19.6402053"><ele>2.333333333333333</ele><time>2026-05-03T13:39:30.699Z</time></trkpt><trkpt lat="41.8549154" lon="19.6401566"><ele>2.6666666666666665</ele><time>2026-05-03T13:39:31.698Z</time></trkpt><trkpt lat="41.8550857" lon="19.6401086"><ele>3.0</ele><time>2026-05-03T13:39:32.696Z</time></trkpt><trkpt lat="41.8552603" lon="19.6400596"><ele>3.0</ele><time>2026-05-03T13:39:33.699Z</time></trkpt><trkpt lat="41.855438" lon="19.6400034"><ele>3.0</ele><time>2026-05-03T13:39:34.697Z</time></trkpt><trkpt lat="41.8556233" lon="19.6399515"><ele>3.0</ele><time>2026-05-03T13:39:35.698Z</time></trkpt><trkpt lat="41.8558085" lon="19.639889"><ele>3.0</ele><time>2026-05-03T13:39:36.698Z</time></trkpt><trkpt lat="41.8559984" lon="19.639838"><ele>3.0</ele><time>2026-05-03T13:39:37.695Z</time></trkpt><trkpt lat="41.8561831" lon="19.639782"><ele>3.0</ele><time>2026-05-03T13:39:38.699Z</time></trkpt><trkpt lat="41.8563682" lon="19.6397303"><ele>3.0</ele><time>2026-05-03T13:39:39.699Z</time></trkpt><trkpt lat="41.8565544" lon="19.6396791"><ele>3.0</ele><time>2026-05-03T13:39:40.698Z</time></trkpt><trkpt lat="41.8567383" lon="19.6396164"><ele>3.0</ele><time>2026-05-03T13:39:41.7Z</time></trkpt><trkpt lat="41.8569266" lon="19.6395576"><ele>2.3333333333333335</ele><time>2026-05-03T13:39:42.699Z</time></trkpt><trkpt lat="41.8571131" lon="19.6394992"><ele>1.6666666666666665</ele><time>2026-05-03T13:39:43.698Z</time></trkpt><trkpt lat="41.8572971" lon="19.6394401"><ele>1.0</ele><time>2026-05-03T13:39:44.697Z</time></trkpt><trkpt lat="41.8574767" lon="19.639392"><ele>1.25</ele><time>2026-05-03T13:39:45.699Z</time></trkpt><trkpt lat="41.8576417" lon="19.6393429"><ele>1.5</ele><time>2026-05-03T13:39:46.696Z</time></trkpt><trkpt lat="41.8577865" lon="19.639307"><ele>1.75</ele><time>2026-05-03T13:39:47.697Z</time></trkpt><trkpt lat="41.8579117" lon="19.639287"><ele>2.0</ele><time>2026-05-03T13:39:48.7Z</time></trkpt><trkpt lat="41.8580215" lon="19.6392721"><ele>2.0</ele><time>2026-05-03T13:39:49.698Z</time></trkpt><trkpt lat="41.8581235" lon="19.6392655"><ele>2.0</ele><time>2026-05-03T13:39:50.699Z</time></trkpt><trkpt lat="41.8582198" lon="19.6392579"><ele>2.0</ele><time>2026-05-03T13:39:51.7Z</time></trkpt><trkpt lat="41.858309" lon="19.6392448"><ele>2.0</ele><time>2026-05-03T13:39:52.7Z</time></trkpt><trkpt lat="41.8583938" lon="19.6392262"><ele>2.0</ele><time>2026-05-03T13:39:53.697Z</time></trkpt><trkpt lat="41.8584738" lon="19.63921"><ele>2.1666666666666665</ele><time>2026-05-03T13:39:54.701Z</time></trkpt><trkpt lat="41.8585877" lon="19.6391912"><ele>2.333333333333333</ele><time>2026-05-03T13:39:56.697Z</time></trkpt><trkpt lat="41.8586505" lon="19.6391619"><ele>2.5</ele><time>2026-05-03T13:39:58.698Z</time></trkpt><trkpt lat="41.8587" lon="19.6392183"><ele>2.6666666666666665</ele><time>2026-05-03T13:41:03.7Z</time></trkpt><trkpt lat="41.8587313" lon="19.6393059"><ele>2.8333333333333335</ele><time>2026-05-03T13:41:09.696Z</time></trkpt><trkpt lat="41.8587084" lon="19.639222"><ele>3.0</ele><time>2026-05-03T13:41:49.7Z</time></trkpt><trkpt lat="41.8586859" lon="19.639136"><ele>3.0</ele><time>2026-05-03T13:41:55.694Z</time></trkpt><trkpt lat="41.8588173" lon="19.6389686"><ele>3.0</ele><time>2026-05-03T13:46:44.69Z</time></trkpt><trkpt lat="41.8589687" lon="19.6389137"><ele>3.0</ele><time>2026-05-03T13:46:45.689Z</time></trkpt><trkpt lat="41.8590929" lon="19.6388764"><ele>3.0</ele><time>2026-05-03T13:46:46.69Z</time></trkpt><trkpt lat="41.8592424" lon="19.6388371"><ele>3.0</ele><time>2026-05-03T13:46:47.689Z</time></trkpt><trkpt lat="41.8594263" lon="19.638779"><ele>3.0</ele><time>2026-05-03T13:46:48.689Z</time></trkpt><trkpt lat="41.8596369" lon="19.6387178"><ele>3.0</ele><time>2026-05-03T13:46:49.69Z</time></trkpt><trkpt lat="41.8598698" lon="19.6386482"><ele>3.0</ele><time>2026-05-03T13:46:50.69Z</time></trkpt><trkpt lat="41.8601146" lon="19.6385759"><ele>2.5</ele><time>2026-05-03T13:46:51.69Z</time></trkpt><trkpt lat="41.8603816" lon="19.6384946"><ele>2.0</ele><time>2026-05-03T13:46:52.69Z</time></trkpt><trkpt lat="41.8606655" lon="19.6384115"><ele>2.0</ele><time>2026-05-03T13:46:53.689Z</time></trkpt><trkpt lat="41.8609466" lon="19.6383267"><ele>2.0</ele><time>2026-05-03T13:46:54.69Z</time></trkpt><trkpt lat="41.861227" lon="19.6382397"><ele>2.5</ele><time>2026-05-03T13:46:55.69Z</time></trkpt><trkpt lat="41.8614978" lon="19.6381614"><ele>3.0</ele><time>2026-05-03T13:46:56.689Z</time></trkpt><trkpt lat="41.8617673" lon="19.6380724"><ele>3.5</ele><time>2026-05-03T13:46:57.689Z</time></trkpt><trkpt lat="41.8620255" lon="19.6379968"><ele>4.0</ele><time>2026-05-03T13:46:58.69Z</time></trkpt><trkpt lat="41.8622742" lon="19.6379217"><ele>4.0</ele><time>2026-05-03T13:46:59.69Z</time></trkpt><trkpt lat="41.8625151" lon="19.6378437"><ele>4.0</ele><time>2026-05-03T13:47:00.69Z</time></trkpt><trkpt lat="41.8627509" lon="19.6377696"><ele>4.0</ele><time>2026-05-03T13:47:01.689Z</time></trkpt><trkpt lat="41.8629797" lon="19.6376839"><ele>4.0</ele><time>2026-05-03T13:47:02.69Z</time></trkpt><trkpt lat="41.8632075" lon="19.6376034"><ele>4.0</ele><time>2026-05-03T13:47:03.689Z</time></trkpt><trkpt lat="41.8634318" lon="19.6375157"><ele>4.0</ele><time>2026-05-03T13:47:04.689Z</time></trkpt><trkpt lat="41.8636567" lon="19.6374267"><ele>3.5</ele><time>2026-05-03T13:47:05.69Z</time></trkpt><trkpt lat="41.8638793" lon="19.6373315"><ele>3.0</ele><time>2026-05-03T13:47:06.69Z</time></trkpt><trkpt lat="41.8641064" lon="19.6372341"><ele>2.5</ele><time>2026-05-03T13:47:07.689Z</time></trkpt><trkpt lat="41.8643282" lon="19.6371285"><ele>2.0</ele><time>2026-05-03T13:47:08.69Z</time></trkpt><trkpt lat="41.8645509" lon="19.6370203"><ele>2.0</ele><time>2026-05-03T13:47:09.69Z</time></trkpt><trkpt lat="41.8647725" lon="19.6369084"><ele>2.0</ele><time>2026-05-03T13:47:10.689Z</time></trkpt><trkpt lat="41.8649902" lon="19.6367941"><ele>2.0</ele><time>2026-05-03T13:47:11.69Z</time></trkpt><trkpt lat="41.8652078" lon="19.6366709"><ele>2.0</ele><time>2026-05-03T13:47:12.689Z</time></trkpt><trkpt lat="41.8654249" lon="19.6365493"><ele>2.0</ele><time>2026-05-03T13:47:13.689Z</time></trkpt><trkpt lat="41.8656413" lon="19.636424"><ele>2.0</ele><time>2026-05-03T13:47:14.689Z</time></trkpt><trkpt lat="41.8658571" lon="19.6362907"><ele>2.0</ele><time>2026-05-03T13:47:15.689Z</time></trkpt><trkpt lat="41.8660725" lon="19.6361538"><ele>2.0</ele><time>2026-05-03T13:47:16.69Z</time></trkpt><trkpt lat="41.8662885" lon="19.6360113"><ele>2.0</ele><time>2026-05-03T13:47:17.69Z</time></trkpt><trkpt lat="41.866501" lon="19.6358674"><ele>2.0</ele><time>2026-05-03T13:47:18.689Z</time></trkpt><trkpt lat="41.8667104" lon="19.6357215"><ele>3.0</ele><time>2026-05-03T13:47:19.69Z</time></trkpt><trkpt lat="41.8669224" lon="19.6355722"><ele>4.0</ele><time>2026-05-03T13:47:20.69Z</time></trkpt><trkpt lat="41.8671275" lon="19.6354107"><ele>4.0</ele><time>2026-05-03T13:47:21.69Z</time></trkpt><trkpt lat="41.8673354" lon="19.6352513"><ele>4.0</ele><time>2026-05-03T13:47:22.689Z</time></trkpt><trkpt lat="41.8675395" lon="19.6350928"><ele>3.5</ele><time>2026-05-03T13:47:23.69Z</time></trkpt><trkpt lat="41.8677449" lon="19.6349309"><ele>3.0</ele><time>2026-05-03T13:47:24.689Z</time></trkpt><trkpt lat="41.867949" lon="19.6347672"><ele>3.0</ele><time>2026-05-03T13:47:25.689Z</time></trkpt><trkpt lat="41.8681509" lon="19.6345925"><ele>3.0</ele><time>2026-05-03T13:47:26.69Z</time></trkpt><trkpt lat="41.8683528" lon="19.6344264"><ele>3.0</ele><time>2026-05-03T13:47:27.69Z</time></trkpt><trkpt lat="41.8685518" lon="19.6342607"><ele>3.0</ele><time>2026-05-03T13:47:28.689Z</time></trkpt><trkpt lat="41.8687491" lon="19.634094"><ele>3.0</ele><time>2026-05-03T13:47:29.689Z</time></trkpt><trkpt lat="41.8689452" lon="19.6339292"><ele>3.0</ele><time>2026-05-03T13:47:30.689Z</time></trkpt><trkpt lat="41.8691471" lon="19.6337692"><ele>2.5</ele><time>2026-05-03T13:47:31.69Z</time></trkpt><trkpt lat="41.8693501" lon="19.6336098"><ele>2.0</ele><time>2026-05-03T13:47:32.689Z</time></trkpt><trkpt lat="41.8695453" lon="19.6334455"><ele>2.0</ele><time>2026-05-03T13:47:33.69Z</time></trkpt><trkpt lat="41.8697365" lon="19.6332812"><ele>2.0</ele><time>2026-05-03T13:47:34.69Z</time></trkpt><trkpt lat="41.8699314" lon="19.6331205"><ele>2.0</ele><time>2026-05-03T13:47:35.689Z</time></trkpt><trkpt lat="41.870128" lon="19.6329589"><ele>2.0</ele><time>2026-05-03T13:47:36.689Z</time></trkpt><trkpt lat="41.8703262" lon="19.6327999"><ele>2.5</ele><time>2026-05-03T13:47:37.69Z</time></trkpt><trkpt lat="41.8705225" lon="19.6326417"><ele>3.0</ele><time>2026-05-03T13:47:38.689Z</time></trkpt><trkpt lat="41.8707205" lon="19.632481"><ele>3.0</ele><time>2026-05-03T13:47:39.69Z</time></trkpt><trkpt lat="41.8709165" lon="19.6323145"><ele>3.0</ele><time>2026-05-03T13:47:40.689Z</time></trkpt><trkpt lat="41.8711094" lon="19.6321544"><ele>4.0</ele><time>2026-05-03T13:47:41.69Z</time></trkpt><trkpt lat="41.8713032" lon="19.6319975"><ele>5.0</ele><time>2026-05-03T13:47:42.689Z</time></trkpt><trkpt lat="41.871497" lon="19.6318394"><ele>5.0</ele><time>2026-05-03T13:47:43.689Z</time></trkpt><trkpt lat="41.8716939" lon="19.6316865"><ele>5.0</ele><time>2026-05-03T13:47:44.69Z</time></trkpt><trkpt lat="41.8718884" lon="19.6315355"><ele>5.0</ele><time>2026-05-03T13:47:45.69Z</time></trkpt><trkpt lat="41.8720793" lon="19.6313799"><ele>5.0</ele><time>2026-05-03T13:47:46.69Z</time></trkpt><trkpt lat="41.8722674" lon="19.6312207"><ele>5.0</ele><time>2026-05-03T13:47:47.69Z</time></trkpt><trkpt lat="41.8724607" lon="19.6310569"><ele>4.666666666666667</ele><time>2026-05-03T13:47:48.69Z</time></trkpt><trkpt lat="41.8726457" lon="19.6308914"><ele>4.333333333333333</ele><time>2026-05-03T13:47:49.689Z</time></trkpt><trkpt lat="41.8728297" lon="19.6307266"><ele>4.0</ele><time>2026-05-03T13:47:50.689Z</time></trkpt><trkpt lat="41.8730135" lon="19.6305722"><ele>4.0</ele><time>2026-05-03T13:47:51.689Z</time></trkpt><trkpt lat="41.8732038" lon="19.630419"><ele>4.0</ele><time>2026-05-03T13:47:52.689Z</time></trkpt><trkpt lat="41.8733962" lon="19.6302645"><ele>4.0</ele><time>2026-05-03T13:47:53.69Z</time></trkpt><trkpt lat="41.8735853" lon="19.6301077"><ele>4.0</ele><time>2026-05-03T13:47:54.69Z</time></trkpt><trkpt lat="41.8737748" lon="19.6299524"><ele>4.0</ele><time>2026-05-03T13:47:55.69Z</time></trkpt><trkpt lat="41.8739622" lon="19.6297904"><ele>4.0</ele><time>2026-05-03T13:47:56.689Z</time></trkpt><trkpt lat="41.8741499" lon="19.6296325"><ele>4.0</ele><time>2026-05-03T13:47:57.69Z</time></trkpt><trkpt lat="41.8743355" lon="19.6294781"><ele>4.0</ele><time>2026-05-03T13:47:58.69Z</time></trkpt><trkpt lat="41.874522" lon="19.6293243"><ele>4.0</ele><time>2026-05-03T13:47:59.69Z</time></trkpt><trkpt lat="41.8747145" lon="19.6291695"><ele>4.0</ele><time>2026-05-03T13:48:00.69Z</time></trkpt><trkpt lat="41.8749108" lon="19.6290074"><ele>4.0</ele><time>2026-05-03T13:48:01.69Z</time></trkpt><trkpt lat="41.8751023" lon="19.6288474"><ele>3.6666666666666665</ele><time>2026-05-03T13:48:02.689Z</time></trkpt><trkpt lat="41.8752936" lon="19.6286908"><ele>3.333333333333333</ele><time>2026-05-03T13:48:03.69Z</time></trkpt><trkpt lat="41.8754817" lon="19.6285282"><ele>3.0</ele><time>2026-05-03T13:48:04.69Z</time></trkpt><trkpt lat="41.8756799" lon="19.6283712"><ele>3.0</ele><time>2026-05-03T13:48:05.69Z</time></trkpt><trkpt lat="41.8758791" lon="19.6282118"><ele>3.0</ele><time>2026-05-03T13:48:06.69Z</time></trkpt><trkpt lat="41.8760757" lon="19.6280385"><ele>3.0</ele><time>2026-05-03T13:48:07.69Z</time></trkpt><trkpt lat="41.8762725" lon="19.6278661"><ele>3.0</ele><time>2026-05-03T13:48:08.689Z</time></trkpt><trkpt lat="41.876471" lon="19.6277019"><ele>2.5</ele><time>2026-05-03T13:48:09.69Z</time></trkpt><trkpt lat="41.8766694" lon="19.6275402"><ele>2.0</ele><time>2026-05-03T13:48:10.69Z</time></trkpt><trkpt lat="41.8768684" lon="19.6273757"><ele>2.0</ele><time>2026-05-03T13:48:11.689Z</time></trkpt><trkpt lat="41.8770666" lon="19.6272146"><ele>2.0</ele><time>2026-05-03T13:48:12.69Z</time></trkpt><trkpt lat="41.8772635" lon="19.6270523"><ele>2.5</ele><time>2026-05-03T13:48:13.69Z</time></trkpt><trkpt lat="41.877462" lon="19.62689"><ele>3.0</ele><time>2026-05-03T13:48:14.689Z</time></trkpt><trkpt lat="41.8776633" lon="19.62673"><ele>3.0</ele><time>2026-05-03T13:48:15.69Z</time></trkpt><trkpt lat="41.877863" lon="19.6265622"><ele>3.0</ele><time>2026-05-03T13:48:16.69Z</time></trkpt><trkpt lat="41.8780604" lon="19.6263971"><ele>3.0</ele><time>2026-05-03T13:48:17.69Z</time></trkpt><trkpt lat="41.8782572" lon="19.6262297"><ele>3.0</ele><time>2026-05-03T13:48:18.689Z</time></trkpt><trkpt lat="41.8784576" lon="19.6260608"><ele>3.0</ele><time>2026-05-03T13:48:19.689Z</time></trkpt><trkpt lat="41.8786589" lon="19.625895"><ele>3.0</ele><time>2026-05-03T13:48:20.69Z</time></trkpt><trkpt lat="41.8788591" lon="19.6257269"><ele>3.0</ele><time>2026-05-03T13:48:21.689Z</time></trkpt><trkpt lat="41.8790618" lon="19.6255656"><ele>3.0</ele><time>2026-05-03T13:48:22.69Z</time></trkpt><trkpt lat="41.8792646" lon="19.6253955"><ele>3.5</ele><time>2026-05-03T13:48:23.689Z</time></trkpt><trkpt lat="41.8794669" lon="19.6252302"><ele>4.0</ele><time>2026-05-03T13:48:24.69Z</time></trkpt><trkpt lat="41.8796736" lon="19.6250583"><ele>4.0</ele><time>2026-05-03T13:48:25.69Z</time></trkpt><trkpt lat="41.879879" lon="19.6248909"><ele>4.0</ele><time>2026-05-03T13:48:26.69Z</time></trkpt><trkpt lat="41.8800819" lon="19.6247237"><ele>4.0</ele><time>2026-05-03T13:48:27.69Z</time></trkpt><trkpt lat="41.8802874" lon="19.6245531"><ele>4.0</ele><time>2026-05-03T13:48:28.69Z</time></trkpt><trkpt lat="41.8804944" lon="19.6243835"><ele>4.0</ele><time>2026-05-03T13:48:29.689Z</time></trkpt><trkpt lat="41.8806987" lon="19.6242178"><ele>4.0</ele><time>2026-05-03T13:48:30.689Z</time></trkpt><trkpt lat="41.8809051" lon="19.6240473"><ele>3.5</ele><time>2026-05-03T13:48:31.689Z</time></trkpt><trkpt lat="41.8811096" lon="19.6238805"><ele>3.0</ele><time>2026-05-03T13:48:32.689Z</time></trkpt><trkpt lat="41.8813136" lon="19.6237092"><ele>3.0</ele><time>2026-05-03T13:48:33.69Z</time></trkpt><trkpt lat="41.8815186" lon="19.6235389"><ele>3.0</ele><time>2026-05-03T13:48:34.689Z</time></trkpt><trkpt lat="41.8817242" lon="19.6233706"><ele>3.0</ele><time>2026-05-03T13:48:35.69Z</time></trkpt><trkpt lat="41.8819312" lon="19.6232011"><ele>3.0</ele><time>2026-05-03T13:48:36.689Z</time></trkpt><trkpt lat="41.8821344" lon="19.623033"><ele>3.0</ele><time>2026-05-03T13:48:37.69Z</time></trkpt><trkpt lat="41.8823421" lon="19.6228608"><ele>3.0</ele><time>2026-05-03T13:48:38.69Z</time></trkpt><trkpt lat="41.8825478" lon="19.6226904"><ele>2.5</ele><time>2026-05-03T13:48:39.69Z</time></trkpt><trkpt lat="41.8827534" lon="19.6225165"><ele>2.0</ele><time>2026-05-03T13:48:40.689Z</time></trkpt><trkpt lat="41.8829596" lon="19.6223446"><ele>2.0</ele><time>2026-05-03T13:48:41.689Z</time></trkpt><trkpt lat="41.8831674" lon="19.6221733"><ele>2.0</ele><time>2026-05-03T13:48:42.69Z</time></trkpt><trkpt lat="41.8833749" lon="19.6220022"><ele>1.5</ele><time>2026-05-03T13:48:43.69Z</time></trkpt><trkpt lat="41.8835827" lon="19.6218347"><ele>1.0</ele><time>2026-05-03T13:48:44.689Z</time></trkpt><trkpt lat="41.8837866" lon="19.6216648"><ele>1.0</ele><time>2026-05-03T13:48:45.69Z</time></trkpt><trkpt lat="41.8839892" lon="19.6214971"><ele>1.0</ele><time>2026-05-03T13:48:46.689Z</time></trkpt><trkpt lat="41.8841972" lon="19.6213268"><ele>1.0</ele><time>2026-05-03T13:48:47.69Z</time></trkpt><trkpt lat="41.8844038" lon="19.6211604"><ele>1.0</ele><time>2026-05-03T13:48:48.689Z</time></trkpt><trkpt lat="41.8846042" lon="19.6209909"><ele>1.0</ele><time>2026-05-03T13:48:49.69Z</time></trkpt><trkpt lat="41.8848063" lon="19.6208271"><ele>1.0</ele><time>2026-05-03T13:48:50.689Z</time></trkpt><trkpt lat="41.8850054" lon="19.6206556"><ele>2.0</ele><time>2026-05-03T13:48:51.689Z</time></trkpt><trkpt lat="41.8852063" lon="19.6204899"><ele>3.0</ele><time>2026-05-03T13:48:52.689Z</time></trkpt><trkpt lat="41.8854072" lon="19.6203267"><ele>5.0</ele><time>2026-05-03T13:48:53.69Z</time></trkpt><trkpt lat="41.8856081" lon="19.6201531"><ele>7.0</ele><time>2026-05-03T13:48:54.69Z</time></trkpt><trkpt lat="41.8858098" lon="19.6199871"><ele>7.0</ele><time>2026-05-03T13:48:55.69Z</time></trkpt><trkpt lat="41.8860088" lon="19.6198228"><ele>7.0</ele><time>2026-05-03T13:48:56.689Z</time></trkpt><trkpt lat="41.8862072" lon="19.6196553"><ele>7.0</ele><time>2026-05-03T13:48:57.69Z</time></trkpt><trkpt lat="41.8864073" lon="19.619489"><ele>7.0</ele><time>2026-05-03T13:48:58.689Z</time></trkpt><trkpt lat="41.8866066" lon="19.6193251"><ele>6.5</ele><time>2026-05-03T13:48:59.689Z</time></trkpt><trkpt lat="41.8868024" lon="19.6191635"><ele>6.0</ele><time>2026-05-03T13:49:00.689Z</time></trkpt><trkpt lat="41.8869995" lon="19.6190046"><ele>6.0</ele><time>2026-05-03T13:49:01.689Z</time></trkpt><trkpt lat="41.8871957" lon="19.6188387"><ele>6.0</ele><time>2026-05-03T13:49:02.69Z</time></trkpt><trkpt lat="41.8873911" lon="19.6186686"><ele>6.0</ele><time>2026-05-03T13:49:03.69Z</time></trkpt><trkpt lat="41.887589" lon="19.6185069"><ele>6.0</ele><time>2026-05-03T13:49:04.69Z</time></trkpt><trkpt lat="41.8877851" lon="19.6183425"><ele>6.0</ele><time>2026-05-03T13:49:05.689Z</time></trkpt><trkpt lat="41.887986" lon="19.6181835"><ele>6.0</ele><time>2026-05-03T13:49:06.689Z</time></trkpt><trkpt lat="41.888184" lon="19.6180227"><ele>6.0</ele><time>2026-05-03T13:49:07.69Z</time></trkpt><trkpt lat="41.8883838" lon="19.6178555"><ele>6.0</ele><time>2026-05-03T13:49:08.689Z</time></trkpt><trkpt lat="41.888579" lon="19.6176944"><ele>4.0</ele><time>2026-05-03T13:49:09.69Z</time></trkpt><trkpt lat="41.8887731" lon="19.6175296"><ele>2.0</ele><time>2026-05-03T13:49:10.69Z</time></trkpt><trkpt lat="41.8889747" lon="19.6173684"><ele>2.0</ele><time>2026-05-03T13:49:11.689Z</time></trkpt><trkpt lat="41.8891697" lon="19.6172072"><ele>2.0</ele><time>2026-05-03T13:49:12.689Z</time></trkpt><trkpt lat="41.8893677" lon="19.6170438"><ele>3.0</ele><time>2026-05-03T13:49:13.689Z</time></trkpt><trkpt lat="41.889568" lon="19.6168798"><ele>4.0</ele><time>2026-05-03T13:49:14.689Z</time></trkpt><trkpt lat="41.8897701" lon="19.6167207"><ele>4.0</ele><time>2026-05-03T13:49:15.69Z</time></trkpt><trkpt lat="41.889969" lon="19.6165589"><ele>4.0</ele><time>2026-05-03T13:49:16.69Z</time></trkpt><trkpt lat="41.890168" lon="19.616401"><ele>4.0</ele><time>2026-05-03T13:49:17.69Z</time></trkpt><trkpt lat="41.8903664" lon="19.616238"><ele>4.0</ele><time>2026-05-03T13:49:18.69Z</time></trkpt><trkpt lat="41.8905622" lon="19.6160765"><ele>4.0</ele><time>2026-05-03T13:49:19.689Z</time></trkpt><trkpt lat="41.8907607" lon="19.6159153"><ele>4.0</ele><time>2026-05-03T13:49:20.69Z</time></trkpt><trkpt lat="41.8909553" lon="19.6157561"><ele>3.5</ele><time>2026-05-03T13:49:21.69Z</time></trkpt><trkpt lat="41.8911496" lon="19.6155937"><ele>3.0</ele><time>2026-05-03T13:49:22.689Z</time></trkpt><trkpt lat="41.8913426" lon="19.6154256"><ele>4.0</ele><time>2026-05-03T13:49:23.69Z</time></trkpt><trkpt lat="41.8915399" lon="19.6152605"><ele>5.0</ele><time>2026-05-03T13:49:24.69Z</time></trkpt><trkpt lat="41.8917414" lon="19.6150967"><ele>4.5</ele><time>2026-05-03T13:49:25.69Z</time></trkpt><trkpt lat="41.8919384" lon="19.6149294"><ele>4.0</ele><time>2026-05-03T13:49:26.69Z</time></trkpt><trkpt lat="41.8921378" lon="19.6147636"><ele>4.0</ele><time>2026-05-03T13:49:27.69Z</time></trkpt><trkpt lat="41.8923404" lon="19.6145928"><ele>4.0</ele><time>2026-05-03T13:49:28.689Z</time></trkpt><trkpt lat="41.8925433" lon="19.6144279"><ele>4.0</ele><time>2026-05-03T13:49:29.689Z</time></trkpt><trkpt lat="41.892748" lon="19.6142609"><ele>4.0</ele><time>2026-05-03T13:49:30.689Z</time></trkpt><trkpt lat="41.8929538" lon="19.6140974"><ele>4.0</ele><time>2026-05-03T13:49:31.69Z</time></trkpt><trkpt lat="41.8931597" lon="19.6139272"><ele>4.0</ele><time>2026-05-03T13:49:32.689Z</time></trkpt><trkpt lat="41.8933592" lon="19.6137532"><ele>3.0</ele><time>2026-05-03T13:49:33.689Z</time></trkpt><trkpt lat="41.893558" lon="19.6135874"><ele>2.0</ele><time>2026-05-03T13:49:34.689Z</time></trkpt><trkpt lat="41.8937589" lon="19.613425"><ele>2.0</ele><time>2026-05-03T13:49:35.689Z</time></trkpt><trkpt lat="41.8939594" lon="19.613255"><ele>2.0</ele><time>2026-05-03T13:49:36.689Z</time></trkpt><trkpt lat="41.8941594" lon="19.6130913"><ele>2.0</ele><time>2026-05-03T13:49:37.689Z</time></trkpt><trkpt lat="41.8943585" lon="19.6129196"><ele>2.0</ele><time>2026-05-03T13:49:38.69Z</time></trkpt><trkpt lat="41.8945627" lon="19.6127573"><ele>2.0</ele><time>2026-05-03T13:49:39.69Z</time></trkpt><trkpt lat="41.8947666" lon="19.6125871"><ele>2.0</ele><time>2026-05-03T13:49:40.69Z</time></trkpt><trkpt lat="41.8949658" lon="19.6124212"><ele>3.0</ele><time>2026-05-03T13:49:41.69Z</time></trkpt><trkpt lat="41.8951675" lon="19.6122478"><ele>4.0</ele><time>2026-05-03T13:49:42.69Z</time></trkpt><trkpt lat="41.8953667" lon="19.6120801"><ele>4.5</ele><time>2026-05-03T13:49:43.69Z</time></trkpt><trkpt lat="41.8955699" lon="19.611911"><ele>5.0</ele><time>2026-05-03T13:49:44.69Z</time></trkpt><trkpt lat="41.8957728" lon="19.6117508"><ele>5.0</ele><time>2026-05-03T13:49:45.69Z</time></trkpt><trkpt lat="41.8959766" lon="19.611581"><ele>5.0</ele><time>2026-05-03T13:49:46.689Z</time></trkpt><trkpt lat="41.8961781" lon="19.6114144"><ele>5.0</ele><time>2026-05-03T13:49:47.689Z</time></trkpt><trkpt lat="41.8963811" lon="19.6112464"><ele>5.0</ele><time>2026-05-03T13:49:48.689Z</time></trkpt><trkpt lat="41.8965824" lon="19.6110775"><ele>5.0</ele><time>2026-05-03T13:49:49.689Z</time></trkpt><trkpt lat="41.8967862" lon="19.6109083"><ele>5.0</ele><time>2026-05-03T13:49:50.69Z</time></trkpt><trkpt lat="41.8969879" lon="19.6107344"><ele>5.0</ele><time>2026-05-03T13:49:51.689Z</time></trkpt><trkpt lat="41.8971925" lon="19.6105679"><ele>5.0</ele><time>2026-05-03T13:49:52.689Z</time></trkpt><trkpt lat="41.8973984" lon="19.6103975"><ele>4.0</ele><time>2026-05-03T13:49:53.69Z</time></trkpt><trkpt lat="41.8976044" lon="19.610232"><ele>3.0</ele><time>2026-05-03T13:49:54.689Z</time></trkpt><trkpt lat="41.8978111" lon="19.6100681"><ele>3.0</ele><time>2026-05-03T13:49:55.689Z</time></trkpt><trkpt lat="41.8980145" lon="19.6099023"><ele>3.0</ele><time>2026-05-03T13:49:56.69Z</time></trkpt><trkpt lat="41.8982169" lon="19.6097347"><ele>3.0</ele><time>2026-05-03T13:49:57.69Z</time></trkpt><trkpt lat="41.8984183" lon="19.6095644"><ele>3.0</ele><time>2026-05-03T13:49:58.689Z</time></trkpt><trkpt lat="41.8986179" lon="19.6093944"><ele>3.5</ele><time>2026-05-03T13:49:59.689Z</time></trkpt><trkpt lat="41.8988183" lon="19.6092267"><ele>4.0</ele><time>2026-05-03T13:50:00.69Z</time></trkpt><trkpt lat="41.8990149" lon="19.6090581"><ele>4.0</ele><time>2026-05-03T13:50:01.69Z</time></trkpt><trkpt lat="41.8992168" lon="19.6088891"><ele>4.0</ele><time>2026-05-03T13:50:02.69Z</time></trkpt><trkpt lat="41.8994135" lon="19.6087235"><ele>3.5</ele><time>2026-05-03T13:50:03.69Z</time></trkpt><trkpt lat="41.8996146" lon="19.6085569"><ele>3.0</ele><time>2026-05-03T13:50:04.689Z</time></trkpt><trkpt lat="41.8998139" lon="19.608392"><ele>3.0</ele><time>2026-05-03T13:50:05.69Z</time></trkpt><trkpt lat="41.9000136" lon="19.6082256"><ele>3.0</ele><time>2026-05-03T13:50:06.689Z</time></trkpt><trkpt lat="41.9002132" lon="19.6080641"><ele>3.0</ele><time>2026-05-03T13:50:07.69Z</time></trkpt><trkpt lat="41.9004117" lon="19.6079039"><ele>3.0</ele><time>2026-05-03T13:50:08.69Z</time></trkpt><trkpt lat="41.9006142" lon="19.6077307"><ele>3.0</ele><time>2026-05-03T13:50:09.689Z</time></trkpt><trkpt lat="41.9008147" lon="19.6075572"><ele>3.0</ele><time>2026-05-03T13:50:10.69Z</time></trkpt><trkpt lat="41.9010193" lon="19.6073857"><ele>3.0</ele><time>2026-05-03T13:50:11.69Z</time></trkpt><trkpt lat="41.9012256" lon="19.6072114"><ele>3.0</ele><time>2026-05-03T13:50:12.689Z</time></trkpt><trkpt lat="41.9014344" lon="19.6070318"><ele>3.0</ele><time>2026-05-03T13:50:13.689Z</time></trkpt><trkpt lat="41.9016434" lon="19.6068554"><ele>3.0</ele><time>2026-05-03T13:50:14.689Z</time></trkpt><trkpt lat="41.9018566" lon="19.6066759"><ele>3.0</ele><time>2026-05-03T13:50:15.689Z</time></trkpt><trkpt lat="41.9020674" lon="19.6065031"><ele>3.0</ele><time>2026-05-03T13:50:16.69Z</time></trkpt><trkpt lat="41.9022761" lon="19.6062976"><ele>3.5</ele><time>2026-05-03T13:50:17.69Z</time></trkpt><trkpt lat="41.9024842" lon="19.6061235"><ele>4.0</ele><time>2026-05-03T13:50:18.689Z</time></trkpt><trkpt lat="41.9026932" lon="19.6059488"><ele>4.5</ele><time>2026-05-03T13:50:19.689Z</time></trkpt><trkpt lat="41.9028981" lon="19.605777"><ele>5.0</ele><time>2026-05-03T13:50:20.69Z</time></trkpt><trkpt lat="41.9031019" lon="19.6056072"><ele>5.0</ele><time>2026-05-03T13:50:21.69Z</time></trkpt><trkpt lat="41.9033076" lon="19.6054352"><ele>5.0</ele><time>2026-05-03T13:50:22.69Z</time></trkpt><trkpt lat="41.9035139" lon="19.6052635"><ele>4.5</ele><time>2026-05-03T13:50:23.69Z</time></trkpt><trkpt lat="41.9037218" lon="19.6050928"><ele>4.0</ele><time>2026-05-03T13:50:24.69Z</time></trkpt><trkpt lat="41.9039267" lon="19.6049232"><ele>4.0</ele><time>2026-05-03T13:50:25.689Z</time></trkpt><trkpt lat="41.9041303" lon="19.6047536"><ele>4.0</ele><time>2026-05-03T13:50:26.69Z</time></trkpt><trkpt lat="41.9043321" lon="19.6045817"><ele>4.0</ele><time>2026-05-03T13:50:27.689Z</time></trkpt><trkpt lat="41.9045351" lon="19.6044142"><ele>4.0</ele><time>2026-05-03T13:50:28.69Z</time></trkpt><trkpt lat="41.9047379" lon="19.6042479"><ele>4.0</ele><time>2026-05-03T13:50:29.689Z</time></trkpt><trkpt lat="41.9049368" lon="19.6040838"><ele>4.0</ele><time>2026-05-03T13:50:30.69Z</time></trkpt><trkpt lat="41.9051355" lon="19.6039195"><ele>3.5</ele><time>2026-05-03T13:50:31.689Z</time></trkpt><trkpt lat="41.905334" lon="19.6037573"><ele>3.0</ele><time>2026-05-03T13:50:32.69Z</time></trkpt><trkpt lat="41.9055313" lon="19.6035935"><ele>3.0</ele><time>2026-05-03T13:50:33.69Z</time></trkpt><trkpt lat="41.9057273" lon="19.6034257"><ele>3.0</ele><time>2026-05-03T13:50:34.69Z</time></trkpt><trkpt lat="41.9059232" lon="19.603265"><ele>3.5</ele><time>2026-05-03T13:50:35.69Z</time></trkpt><trkpt lat="41.9061198" lon="19.6030981"><ele>4.0</ele><time>2026-05-03T13:50:36.689Z</time></trkpt><trkpt lat="41.9063097" lon="19.6029329"><ele>4.0</ele><time>2026-05-03T13:50:37.689Z</time></trkpt><trkpt lat="41.906505" lon="19.6027742"><ele>4.0</ele><time>2026-05-03T13:50:38.69Z</time></trkpt><trkpt lat="41.9066916" lon="19.6026137"><ele>4.666666666666666</ele><time>2026-05-03T13:50:39.69Z</time></trkpt><trkpt lat="41.9068752" lon="19.6024597"><ele>5.333333333333333</ele><time>2026-05-03T13:50:40.69Z</time></trkpt><trkpt lat="41.9070556" lon="19.6023068"><ele>6.0</ele><time>2026-05-03T13:50:41.69Z</time></trkpt><trkpt lat="41.9072347" lon="19.6021607"><ele>6.0</ele><time>2026-05-03T13:50:42.69Z</time></trkpt><trkpt lat="41.9074111" lon="19.6020141"><ele>6.0</ele><time>2026-05-03T13:50:43.689Z</time></trkpt><trkpt lat="41.9075853" lon="19.6018639"><ele>6.0</ele><time>2026-05-03T13:50:44.69Z</time></trkpt><trkpt lat="41.9077581" lon="19.6017153"><ele>5.666666666666667</ele><time>2026-05-03T13:50:45.689Z</time></trkpt><trkpt lat="41.9079278" lon="19.6015743"><ele>5.333333333333334</ele><time>2026-05-03T13:50:46.689Z</time></trkpt><trkpt lat="41.9081024" lon="19.6014303"><ele>5.0</ele><time>2026-05-03T13:50:47.69Z</time></trkpt><trkpt lat="41.9082841" lon="19.6012765"><ele>5.0</ele><time>2026-05-03T13:50:48.69Z</time></trkpt><trkpt lat="41.9084621" lon="19.6011327"><ele>5.0</ele><time>2026-05-03T13:50:49.689Z</time></trkpt><trkpt lat="41.9086417" lon="19.6009879"><ele>5.0</ele><time>2026-05-03T13:50:50.689Z</time></trkpt><trkpt lat="41.9088137" lon="19.6008439"><ele>5.0</ele><time>2026-05-03T13:50:51.689Z</time></trkpt><trkpt lat="41.9089802" lon="19.600701"><ele>5.0</ele><time>2026-05-03T13:50:52.69Z</time></trkpt><trkpt lat="41.9091343" lon="19.6005668"><ele>5.0</ele><time>2026-05-03T13:50:53.69Z</time></trkpt><trkpt lat="41.9092879" lon="19.6004342"><ele>5.333333333333334</ele><time>2026-05-03T13:50:54.689Z</time></trkpt><trkpt lat="41.9094414" lon="19.6002994"><ele>5.666666666666667</ele><time>2026-05-03T13:50:55.689Z</time></trkpt><trkpt lat="41.9095799" lon="19.6001297"><ele>6.0</ele><time>2026-05-03T13:50:56.69Z</time></trkpt><trkpt lat="41.9097266" lon="19.5999939"><ele>6.0</ele><time>2026-05-03T13:50:57.69Z</time></trkpt><trkpt lat="41.9098727" lon="19.599859"><ele>6.0</ele><time>2026-05-03T13:50:58.69Z</time></trkpt><trkpt lat="41.9100168" lon="19.599721"><ele>6.0</ele><time>2026-05-03T13:50:59.689Z</time></trkpt><trkpt lat="41.9101594" lon="19.599582"><ele>6.0</ele><time>2026-05-03T13:51:00.689Z</time></trkpt><trkpt lat="41.9103022" lon="19.5994436"><ele>6.0</ele><time>2026-05-03T13:51:01.69Z</time></trkpt><trkpt lat="41.9104442" lon="19.5993088"><ele>6.0</ele><time>2026-05-03T13:51:02.689Z</time></trkpt><trkpt lat="41.9105861" lon="19.5991706"><ele>6.0</ele><time>2026-05-03T13:51:03.69Z</time></trkpt><trkpt lat="41.9107273" lon="19.5990359"><ele>6.0</ele><time>2026-05-03T13:51:04.689Z</time></trkpt><trkpt lat="41.910867" lon="19.598901"><ele>6.0</ele><time>2026-05-03T13:51:05.689Z</time></trkpt><trkpt lat="41.9110086" lon="19.598767"><ele>6.0</ele><time>2026-05-03T13:51:06.689Z</time></trkpt><trkpt lat="41.9111532" lon="19.5986284"><ele>6.0</ele><time>2026-05-03T13:51:07.69Z</time></trkpt><trkpt lat="41.9112941" lon="19.5984927"><ele>6.0</ele><time>2026-05-03T13:51:08.689Z</time></trkpt><trkpt lat="41.9114345" lon="19.5983568"><ele>6.0</ele><time>2026-05-03T13:51:09.69Z</time></trkpt><trkpt lat="41.9115773" lon="19.5982223"><ele>6.0</ele><time>2026-05-03T13:51:10.69Z</time></trkpt><trkpt lat="41.9117208" lon="19.5980896"><ele>6.0</ele><time>2026-05-03T13:51:11.69Z</time></trkpt><trkpt lat="41.9118614" lon="19.5979614"><ele>6.333333333333334</ele><time>2026-05-03T13:51:12.69Z</time></trkpt><trkpt lat="41.9120015" lon="19.5978346"><ele>6.666666666666667</ele><time>2026-05-03T13:51:13.689Z</time></trkpt><trkpt lat="41.9121452" lon="19.5977083"><ele>7.0</ele><time>2026-05-03T13:51:14.69Z</time></trkpt><trkpt lat="41.9122906" lon="19.5975779"><ele>7.0</ele><time>2026-05-03T13:51:15.69Z</time></trkpt><trkpt lat="41.9124391" lon="19.5974526"><ele>7.0</ele><time>2026-05-03T13:51:16.69Z</time></trkpt><trkpt lat="41.9125892" lon="19.5973248"><ele>7.0</ele><time>2026-05-03T13:51:17.69Z</time></trkpt><trkpt lat="41.9127391" lon="19.5971905"><ele>7.0</ele><time>2026-05-03T13:51:18.689Z</time></trkpt><trkpt lat="41.912883" lon="19.5970615"><ele>7.0</ele><time>2026-05-03T13:51:19.69Z</time></trkpt><trkpt lat="41.9130329" lon="19.5969419"><ele>7.0</ele><time>2026-05-03T13:51:20.69Z</time></trkpt><trkpt lat="41.9131814" lon="19.5968066"><ele>7.333333333333334</ele><time>2026-05-03T13:51:21.689Z</time></trkpt><trkpt lat="41.9133396" lon="19.596682"><ele>7.666666666666666</ele><time>2026-05-03T13:51:22.689Z</time></trkpt><trkpt lat="41.913504" lon="19.5965552"><ele>8.0</ele><time>2026-05-03T13:51:23.689Z</time></trkpt><trkpt lat="41.9136752" lon="19.5964232"><ele>8.0</ele><time>2026-05-03T13:51:24.69Z</time></trkpt><trkpt lat="41.9138451" lon="19.5962892"><ele>8.0</ele><time>2026-05-03T13:51:25.689Z</time></trkpt><trkpt lat="41.9140191" lon="19.5961604"><ele>8.0</ele><time>2026-05-03T13:51:26.69Z</time></trkpt><trkpt lat="41.9141933" lon="19.5960315"><ele>7.666666666666666</ele><time>2026-05-03T13:51:27.69Z</time></trkpt><trkpt lat="41.9143673" lon="19.5959062"><ele>7.333333333333334</ele><time>2026-05-03T13:51:28.69Z</time></trkpt><trkpt lat="41.914543" lon="19.5957788"><ele>7.0</ele><time>2026-05-03T13:51:29.689Z</time></trkpt><trkpt lat="41.9147182" lon="19.5956527"><ele>7.0</ele><time>2026-05-03T13:51:30.69Z</time></trkpt><trkpt lat="41.9148974" lon="19.5955295"><ele>7.0</ele><time>2026-05-03T13:51:31.689Z</time></trkpt><trkpt lat="41.9150712" lon="19.5954072"><ele>7.0</ele><time>2026-05-03T13:51:32.69Z</time></trkpt><trkpt lat="41.9152358" lon="19.595293"><ele>6.333333333333334</ele><time>2026-05-03T13:51:33.69Z</time></trkpt><trkpt lat="41.915395" lon="19.5951851"><ele>5.666666666666667</ele><time>2026-05-03T13:51:34.689Z</time></trkpt><trkpt lat="41.9155561" lon="19.5950733"><ele>5.0</ele><time>2026-05-03T13:51:35.689Z</time></trkpt><trkpt lat="41.9157205" lon="19.594961"><ele>5.0</ele><time>2026-05-03T13:51:36.69Z</time></trkpt><trkpt lat="41.9158865" lon="19.5948463"><ele>5.0</ele><time>2026-05-03T13:51:37.69Z</time></trkpt><trkpt lat="41.9160542" lon="19.5947279"><ele>5.0</ele><time>2026-05-03T13:51:38.69Z</time></trkpt><trkpt lat="41.9162258" lon="19.5946094"><ele>6.0</ele><time>2026-05-03T13:51:39.689Z</time></trkpt><trkpt lat="41.916399" lon="19.5944875"><ele>7.0</ele><time>2026-05-03T13:51:40.69Z</time></trkpt><trkpt lat="41.9165781" lon="19.5943578"><ele>8.0</ele><time>2026-05-03T13:51:41.69Z</time></trkpt><trkpt lat="41.9167533" lon="19.5942238"><ele>8.0</ele><time>2026-05-03T13:51:42.689Z</time></trkpt><trkpt lat="41.9169259" lon="19.5940899"><ele>8.0</ele><time>2026-05-03T13:51:43.689Z</time></trkpt><trkpt lat="41.917098" lon="19.593959"><ele>8.0</ele><time>2026-05-03T13:51:44.689Z</time></trkpt><trkpt lat="41.9172707" lon="19.5938276"><ele>8.0</ele><time>2026-05-03T13:51:45.689Z</time></trkpt><trkpt lat="41.9174453" lon="19.5936855"><ele>8.0</ele><time>2026-05-03T13:51:46.69Z</time></trkpt><trkpt lat="41.9176273" lon="19.5935282"><ele>8.0</ele><time>2026-05-03T13:51:47.689Z</time></trkpt><trkpt lat="41.9178119" lon="19.5933599"><ele>7.333333333333333</ele><time>2026-05-03T13:51:48.689Z</time></trkpt><trkpt lat="41.917996" lon="19.5931864"><ele>6.666666666666666</ele><time>2026-05-03T13:51:49.69Z</time></trkpt><trkpt lat="41.9181598" lon="19.5930408"><ele>6.0</ele><time>2026-05-03T13:51:50.689Z</time></trkpt><trkpt lat="41.9183185" lon="19.5929079"><ele>6.666666666666666</ele><time>2026-05-03T13:51:51.689Z</time></trkpt><trkpt lat="41.9184689" lon="19.5927816"><ele>7.333333333333333</ele><time>2026-05-03T13:51:52.69Z</time></trkpt><trkpt lat="41.9186137" lon="19.5926518"><ele>8.0</ele><time>2026-05-03T13:51:53.689Z</time></trkpt><trkpt lat="41.9187551" lon="19.5925117"><ele>8.0</ele><time>2026-05-03T13:51:54.689Z</time></trkpt><trkpt lat="41.9188979" lon="19.5923606"><ele>8.0</ele><time>2026-05-03T13:51:55.69Z</time></trkpt><trkpt lat="41.9190259" lon="19.5922348"><ele>8.0</ele><time>2026-05-03T13:51:56.69Z</time></trkpt><trkpt lat="41.9191629" lon="19.5921086"><ele>8.0</ele><time>2026-05-03T13:51:57.689Z</time></trkpt><trkpt lat="41.9193031" lon="19.5919716"><ele>8.0</ele><time>2026-05-03T13:51:58.689Z</time></trkpt><trkpt lat="41.919455" lon="19.5918099"><ele>8.0</ele><time>2026-05-03T13:51:59.69Z</time></trkpt><trkpt lat="41.9196265" lon="19.5916214"><ele>8.0</ele><time>2026-05-03T13:52:00.69Z</time></trkpt><trkpt lat="41.9198007" lon="19.5914191"><ele>8.0</ele><time>2026-05-03T13:52:01.689Z</time></trkpt><trkpt lat="41.9200283" lon="19.591195"><ele>7.0</ele><time>2026-05-03T13:52:02.69Z</time></trkpt><trkpt lat="41.9202475" lon="19.5909689"><ele>6.0</ele><time>2026-05-03T13:52:03.69Z</time></trkpt><trkpt lat="41.9204476" lon="19.5907672"><ele>6.0</ele><time>2026-05-03T13:52:04.69Z</time></trkpt><trkpt lat="41.9206319" lon="19.5905777"><ele>6.0</ele><time>2026-05-03T13:52:05.69Z</time></trkpt><trkpt lat="41.9207996" lon="19.5903925"><ele>6.0</ele><time>2026-05-03T13:52:06.689Z</time></trkpt><trkpt lat="41.9209652" lon="19.5902127"><ele>6.0</ele><time>2026-05-03T13:52:07.69Z</time></trkpt><trkpt lat="41.9211268" lon="19.5900297"><ele>6.0</ele><time>2026-05-03T13:52:08.689Z</time></trkpt><trkpt lat="41.9212869" lon="19.5898404"><ele>6.0</ele><time>2026-05-03T13:52:09.69Z</time></trkpt><trkpt lat="41.921443" lon="19.5896504"><ele>6.0</ele><time>2026-05-03T13:52:10.689Z</time></trkpt><trkpt lat="41.9216056" lon="19.5894685"><ele>6.0</ele><time>2026-05-03T13:52:11.689Z</time></trkpt><trkpt lat="41.921766" lon="19.5892687"><ele>6.0</ele><time>2026-05-03T13:52:12.69Z</time></trkpt><trkpt lat="41.9219211" lon="19.5890803"><ele>6.0</ele><time>2026-05-03T13:52:13.689Z</time></trkpt><trkpt lat="41.9220666" lon="19.5888856"><ele>6.0</ele><time>2026-05-03T13:52:14.689Z</time></trkpt><trkpt lat="41.9222207" lon="19.5886881"><ele>6.0</ele><time>2026-05-03T13:52:15.69Z</time></trkpt><trkpt lat="41.9223788" lon="19.5884802"><ele>6.0</ele><time>2026-05-03T13:52:16.689Z</time></trkpt><trkpt lat="41.9225422" lon="19.5882683"><ele>6.0</ele><time>2026-05-03T13:52:17.69Z</time></trkpt><trkpt lat="41.9227044" lon="19.5880522"><ele>6.0</ele><time>2026-05-03T13:52:18.689Z</time></trkpt><trkpt lat="41.9228674" lon="19.5878286"><ele>6.0</ele><time>2026-05-03T13:52:19.689Z</time></trkpt><trkpt lat="41.9230312" lon="19.5876069"><ele>6.0</ele><time>2026-05-03T13:52:20.69Z</time></trkpt><trkpt lat="41.9231879" lon="19.5873846"><ele>6.0</ele><time>2026-05-03T13:52:21.69Z</time></trkpt><trkpt lat="41.9233395" lon="19.5871694"><ele>6.0</ele><time>2026-05-03T13:52:22.69Z</time></trkpt><trkpt lat="41.9234854" lon="19.5869499"><ele>6.0</ele><time>2026-05-03T13:52:23.69Z</time></trkpt><trkpt lat="41.9236277" lon="19.5867364"><ele>6.0</ele><time>2026-05-03T13:52:24.689Z</time></trkpt><trkpt lat="41.9237708" lon="19.5865221"><ele>6.0</ele><time>2026-05-03T13:52:25.69Z</time></trkpt><trkpt lat="41.9239199" lon="19.5862894"><ele>5.5</ele><time>2026-05-03T13:52:26.689Z</time></trkpt><trkpt lat="41.9240802" lon="19.5860255"><ele>5.0</ele><time>2026-05-03T13:52:27.69Z</time></trkpt><trkpt lat="41.9242535" lon="19.5857463"><ele>5.0</ele><time>2026-05-03T13:52:28.69Z</time></trkpt><trkpt lat="41.9244243" lon="19.5854874"><ele>5.0</ele><time>2026-05-03T13:52:29.689Z</time></trkpt><trkpt lat="41.924583" lon="19.5852331"><ele>5.5</ele><time>2026-05-03T13:52:30.689Z</time></trkpt><trkpt lat="41.9247382" lon="19.5849772"><ele>6.0</ele><time>2026-05-03T13:52:31.689Z</time></trkpt><trkpt lat="41.9248902" lon="19.5847299"><ele>6.0</ele><time>2026-05-03T13:52:32.689Z</time></trkpt><trkpt lat="41.925035" lon="19.5844964"><ele>6.0</ele><time>2026-05-03T13:52:33.69Z</time></trkpt><trkpt lat="41.9251801" lon="19.5842589"><ele>6.0</ele><time>2026-05-03T13:52:34.689Z</time></trkpt><trkpt lat="41.9253221" lon="19.5840225"><ele>6.0</ele><time>2026-05-03T13:52:35.69Z</time></trkpt><trkpt lat="41.9254643" lon="19.5837899"><ele>6.0</ele><time>2026-05-03T13:52:36.69Z</time></trkpt><trkpt lat="41.9256052" lon="19.5835537"><ele>6.0</ele><time>2026-05-03T13:52:37.69Z</time></trkpt><trkpt lat="41.9257515" lon="19.5833157"><ele>6.0</ele><time>2026-05-03T13:52:38.69Z</time></trkpt><trkpt lat="41.925912" lon="19.5830532"><ele>6.0</ele><time>2026-05-03T13:52:39.69Z</time></trkpt><trkpt lat="41.9260603" lon="19.5828093"><ele>5.0</ele><time>2026-05-03T13:52:40.69Z</time></trkpt><trkpt lat="41.9262104" lon="19.5825641"><ele>4.0</ele><time>2026-05-03T13:52:41.69Z</time></trkpt><trkpt lat="41.926355" lon="19.5823223"><ele>4.0</ele><time>2026-05-03T13:52:42.69Z</time></trkpt><trkpt lat="41.9265068" lon="19.5820722"><ele>4.0</ele><time>2026-05-03T13:52:43.689Z</time></trkpt><trkpt lat="41.9266534" lon="19.5818331"><ele>6.0</ele><time>2026-05-03T13:52:44.689Z</time></trkpt><trkpt lat="41.9268006" lon="19.5815947"><ele>8.0</ele><time>2026-05-03T13:52:45.689Z</time></trkpt><trkpt lat="41.92695" lon="19.5813576"><ele>7.333333333333333</ele><time>2026-05-03T13:52:46.689Z</time></trkpt><trkpt lat="41.9271067" lon="19.5811427"><ele>6.666666666666666</ele><time>2026-05-03T13:52:47.69Z</time></trkpt><trkpt lat="41.9272464" lon="19.5809082"><ele>6.0</ele><time>2026-05-03T13:52:48.689Z</time></trkpt><trkpt lat="41.9273967" lon="19.5806751"><ele>6.0</ele><time>2026-05-03T13:52:49.69Z</time></trkpt><trkpt lat="41.9275489" lon="19.5804444"><ele>6.0</ele><time>2026-05-03T13:52:50.69Z</time></trkpt><trkpt lat="41.927701" lon="19.5802129"><ele>6.333333333333334</ele><time>2026-05-03T13:52:51.689Z</time></trkpt><trkpt lat="41.9278486" lon="19.5799898"><ele>6.666666666666667</ele><time>2026-05-03T13:52:52.69Z</time></trkpt><trkpt lat="41.9279937" lon="19.5797694"><ele>7.0</ele><time>2026-05-03T13:52:53.69Z</time></trkpt><trkpt lat="41.9281415" lon="19.5795505"><ele>7.0</ele><time>2026-05-03T13:52:54.689Z</time></trkpt><trkpt lat="41.9282897" lon="19.5793335"><ele>7.0</ele><time>2026-05-03T13:52:55.69Z</time></trkpt><trkpt lat="41.9284394" lon="19.5791225"><ele>7.0</ele><time>2026-05-03T13:52:56.69Z</time></trkpt><trkpt lat="41.9285875" lon="19.5789146"><ele>7.0</ele><time>2026-05-03T13:52:57.69Z</time></trkpt><trkpt lat="41.9287394" lon="19.5787029"><ele>7.0</ele><time>2026-05-03T13:52:58.689Z</time></trkpt><trkpt lat="41.9288898" lon="19.5784897"><ele>7.0</ele><time>2026-05-03T13:52:59.689Z</time></trkpt><trkpt lat="41.9290478" lon="19.5782758"><ele>7.0</ele><time>2026-05-03T13:53:00.689Z</time></trkpt><trkpt lat="41.9292037" lon="19.5780649"><ele>7.0</ele><time>2026-05-03T13:53:01.689Z</time></trkpt><trkpt lat="41.9293541" lon="19.5778584"><ele>7.0</ele><time>2026-05-03T13:53:02.689Z</time></trkpt><trkpt lat="41.9295052" lon="19.5776549"><ele>7.333333333333334</ele><time>2026-05-03T13:53:03.69Z</time></trkpt><trkpt lat="41.9296539" lon="19.5774557"><ele>7.666666666666666</ele><time>2026-05-03T13:53:04.69Z</time></trkpt><trkpt lat="41.929809" lon="19.5772611"><ele>8.0</ele><time>2026-05-03T13:53:05.69Z</time></trkpt><trkpt lat="41.9299581" lon="19.5770647"><ele>8.0</ele><time>2026-05-03T13:53:06.69Z</time></trkpt><trkpt lat="41.9301025" lon="19.5768696"><ele>8.0</ele><time>2026-05-03T13:53:07.689Z</time></trkpt><trkpt lat="41.930257" lon="19.5766533"><ele>8.0</ele><time>2026-05-03T13:53:08.69Z</time></trkpt><trkpt lat="41.9304169" lon="19.5764588"><ele>8.0</ele><time>2026-05-03T13:53:09.689Z</time></trkpt><trkpt lat="41.9305606" lon="19.5762763"><ele>8.0</ele><time>2026-05-03T13:53:10.689Z</time></trkpt><trkpt lat="41.9307145" lon="19.5760864"><ele>8.0</ele><time>2026-05-03T13:53:11.689Z</time></trkpt><trkpt lat="41.9308651" lon="19.5758988"><ele>8.0</ele><time>2026-05-03T13:53:12.689Z</time></trkpt><trkpt lat="41.9310184" lon="19.5757032"><ele>8.0</ele><time>2026-05-03T13:53:13.689Z</time></trkpt><trkpt lat="41.9311729" lon="19.5755109"><ele>8.0</ele><time>2026-05-03T13:53:14.69Z</time></trkpt><trkpt lat="41.9313365" lon="19.5753204"><ele>8.0</ele><time>2026-05-03T13:53:15.69Z</time></trkpt><trkpt lat="41.9314996" lon="19.5751288"><ele>8.0</ele><time>2026-05-03T13:53:16.689Z</time></trkpt><trkpt lat="41.9316641" lon="19.574935"><ele>8.0</ele><time>2026-05-03T13:53:17.689Z</time></trkpt><trkpt lat="41.9318291" lon="19.5747417"><ele>8.0</ele><time>2026-05-03T13:53:18.689Z</time></trkpt><trkpt lat="41.9319948" lon="19.5745535"><ele>8.0</ele><time>2026-05-03T13:53:19.69Z</time></trkpt><trkpt lat="41.9321556" lon="19.574369"><ele>8.0</ele><time>2026-05-03T13:53:20.69Z</time></trkpt><trkpt lat="41.932317" lon="19.5741863"><ele>8.0</ele><time>2026-05-03T13:53:21.689Z</time></trkpt><trkpt lat="41.9324816" lon="19.5739982"><ele>8.0</ele><time>2026-05-03T13:53:22.69Z</time></trkpt><trkpt lat="41.9326493" lon="19.5737978"><ele>8.0</ele><time>2026-05-03T13:53:23.69Z</time></trkpt><trkpt lat="41.9328149" lon="19.573623"><ele>8.333333333333332</ele><time>2026-05-03T13:53:24.69Z</time></trkpt><trkpt lat="41.9329833" lon="19.5734419"><ele>8.666666666666666</ele><time>2026-05-03T13:53:25.69Z</time></trkpt><trkpt lat="41.9331543" lon="19.5732579"><ele>9.0</ele><time>2026-05-03T13:53:26.69Z</time></trkpt><trkpt lat="41.9333254" lon="19.5730738"><ele>8.666666666666666</ele><time>2026-05-03T13:53:27.689Z</time></trkpt><trkpt lat="41.9335005" lon="19.5728897"><ele>8.333333333333332</ele><time>2026-05-03T13:53:28.689Z</time></trkpt><trkpt lat="41.9336761" lon="19.5727049"><ele>8.0</ele><time>2026-05-03T13:53:29.689Z</time></trkpt><trkpt lat="41.9338562" lon="19.5725243"><ele>8.0</ele><time>2026-05-03T13:53:30.689Z</time></trkpt><trkpt lat="41.9340314" lon="19.5723418"><ele>8.0</ele><time>2026-05-03T13:53:31.689Z</time></trkpt><trkpt lat="41.9342077" lon="19.5721646"><ele>8.0</ele><time>2026-05-03T13:53:32.69Z</time></trkpt><trkpt lat="41.9343789" lon="19.5719849"><ele>8.0</ele><time>2026-05-03T13:53:33.689Z</time></trkpt><trkpt lat="41.9345514" lon="19.5718114"><ele>8.0</ele><time>2026-05-03T13:53:34.69Z</time></trkpt><trkpt lat="41.9347219" lon="19.5716406"><ele>8.0</ele><time>2026-05-03T13:53:35.69Z</time></trkpt><trkpt lat="41.934891" lon="19.5714746"><ele>8.0</ele><time>2026-05-03T13:53:36.689Z</time></trkpt><trkpt lat="41.9350585" lon="19.5713116"><ele>8.0</ele><time>2026-05-03T13:53:37.689Z</time></trkpt><trkpt lat="41.935228" lon="19.5711518"><ele>8.0</ele><time>2026-05-03T13:53:38.69Z</time></trkpt><trkpt lat="41.9354009" lon="19.5709854"><ele>8.0</ele><time>2026-05-03T13:53:39.689Z</time></trkpt><trkpt lat="41.9355838" lon="19.5708178"><ele>8.0</ele><time>2026-05-03T13:53:40.689Z</time></trkpt><trkpt lat="41.9357698" lon="19.5706491"><ele>8.0</ele><time>2026-05-03T13:53:41.689Z</time></trkpt><trkpt lat="41.9359563" lon="19.5704809"><ele>8.5</ele><time>2026-05-03T13:53:42.69Z</time></trkpt><trkpt lat="41.9361451" lon="19.570312"><ele>9.0</ele><time>2026-05-03T13:53:43.69Z</time></trkpt><trkpt lat="41.9363321" lon="19.5701387"><ele>9.0</ele><time>2026-05-03T13:53:44.689Z</time></trkpt><trkpt lat="41.9365225" lon="19.5699669"><ele>9.0</ele><time>2026-05-03T13:53:45.689Z</time></trkpt><trkpt lat="41.936715" lon="19.5697948"><ele>8.5</ele><time>2026-05-03T13:53:46.69Z</time></trkpt><trkpt lat="41.9369092" lon="19.5696251"><ele>8.0</ele><time>2026-05-03T13:53:47.69Z</time></trkpt><trkpt lat="41.9371042" lon="19.5694506"><ele>8.0</ele><time>2026-05-03T13:53:48.69Z</time></trkpt><trkpt lat="41.9373039" lon="19.5692805"><ele>8.0</ele><time>2026-05-03T13:53:49.689Z</time></trkpt><trkpt lat="41.9375053" lon="19.569102"><ele>7.5</ele><time>2026-05-03T13:53:50.69Z</time></trkpt><trkpt lat="41.9377118" lon="19.5689218"><ele>7.0</ele><time>2026-05-03T13:53:51.689Z</time></trkpt><trkpt lat="41.9379217" lon="19.5687385"><ele>7.0</ele><time>2026-05-03T13:53:52.689Z</time></trkpt><trkpt lat="41.9381373" lon="19.5685482"><ele>7.0</ele><time>2026-05-03T13:53:53.689Z</time></trkpt><trkpt lat="41.9383522" lon="19.5683584"><ele>7.0</ele><time>2026-05-03T13:53:54.689Z</time></trkpt><trkpt lat="41.9385682" lon="19.5681701"><ele>7.0</ele><time>2026-05-03T13:53:55.689Z</time></trkpt><trkpt lat="41.9387866" lon="19.5679824"><ele>7.0</ele><time>2026-05-03T13:53:56.69Z</time></trkpt><trkpt lat="41.9390053" lon="19.5677924"><ele>7.0</ele><time>2026-05-03T13:53:57.689Z</time></trkpt><trkpt lat="41.9392218" lon="19.5676009"><ele>7.0</ele><time>2026-05-03T13:53:58.689Z</time></trkpt><trkpt lat="41.939439" lon="19.5674118"><ele>7.0</ele><time>2026-05-03T13:53:59.689Z</time></trkpt><trkpt lat="41.9396553" lon="19.5672224"><ele>7.0</ele><time>2026-05-03T13:54:00.689Z</time></trkpt><trkpt lat="41.9398694" lon="19.5670333"><ele>7.0</ele><time>2026-05-03T13:54:01.689Z</time></trkpt><trkpt lat="41.9400828" lon="19.5668436"><ele>8.5</ele><time>2026-05-03T13:54:02.69Z</time></trkpt><trkpt lat="41.9402954" lon="19.5666641"><ele>10.0</ele><time>2026-05-03T13:54:03.689Z</time></trkpt><trkpt lat="41.9405058" lon="19.5664835"><ele>10.0</ele><time>2026-05-03T13:54:04.69Z</time></trkpt><trkpt lat="41.9407121" lon="19.5663035"><ele>10.0</ele><time>2026-05-03T13:54:05.689Z</time></trkpt><trkpt lat="41.9409183" lon="19.5661263"><ele>10.5</ele><time>2026-05-03T13:54:06.69Z</time></trkpt><trkpt lat="41.9411212" lon="19.5659512"><ele>11.0</ele><time>2026-05-03T13:54:07.69Z</time></trkpt><trkpt lat="41.9413268" lon="19.5657736"><ele>11.0</ele><time>2026-05-03T13:54:08.689Z</time></trkpt><trkpt lat="41.9415264" lon="19.5655979"><ele>11.0</ele><time>2026-05-03T13:54:09.69Z</time></trkpt><trkpt lat="41.9417259" lon="19.5654252"><ele>10.0</ele><time>2026-05-03T13:54:10.689Z</time></trkpt><trkpt lat="41.9419242" lon="19.5652524"><ele>9.0</ele><time>2026-05-03T13:54:11.689Z</time></trkpt><trkpt lat="41.9421224" lon="19.5650821"><ele>9.0</ele><time>2026-05-03T13:54:12.689Z</time></trkpt><trkpt lat="41.9423181" lon="19.5649163"><ele>9.0</ele><time>2026-05-03T13:54:13.689Z</time></trkpt><trkpt lat="41.9425223" lon="19.5647401"><ele>9.0</ele><time>2026-05-03T13:54:14.69Z</time></trkpt><trkpt lat="41.9427192" lon="19.5645666"><ele>9.0</ele><time>2026-05-03T13:54:15.689Z</time></trkpt><trkpt lat="41.9429167" lon="19.5643926"><ele>8.5</ele><time>2026-05-03T13:54:16.689Z</time></trkpt><trkpt lat="41.9431116" lon="19.564215"><ele>8.0</ele><time>2026-05-03T13:54:17.689Z</time></trkpt><trkpt lat="41.9433057" lon="19.564039"><ele>8.0</ele><time>2026-05-03T13:54:18.69Z</time></trkpt><trkpt lat="41.9434904" lon="19.5638589"><ele>8.0</ele><time>2026-05-03T13:54:19.69Z</time></trkpt><trkpt lat="41.9436734" lon="19.5636884"><ele>7.666666666666666</ele><time>2026-05-03T13:54:20.689Z</time></trkpt><trkpt lat="41.9438515" lon="19.5635243"><ele>7.333333333333334</ele><time>2026-05-03T13:54:21.69Z</time></trkpt><trkpt lat="41.9440232" lon="19.563356"><ele>7.0</ele><time>2026-05-03T13:54:22.69Z</time></trkpt><trkpt lat="41.9441834" lon="19.5631903"><ele>7.666666666666667</ele><time>2026-05-03T13:54:23.689Z</time></trkpt><trkpt lat="41.9443394" lon="19.5630325"><ele>8.333333333333334</ele><time>2026-05-03T13:54:24.689Z</time></trkpt><trkpt lat="41.9444847" lon="19.5628772"><ele>9.0</ele><time>2026-05-03T13:54:25.689Z</time></trkpt><trkpt lat="41.9446201" lon="19.5627259"><ele>9.0</ele><time>2026-05-03T13:54:26.69Z</time></trkpt><trkpt lat="41.9447538" lon="19.5625804"><ele>9.0</ele><time>2026-05-03T13:54:27.69Z</time></trkpt><trkpt lat="41.9448854" lon="19.5624319"><ele>9.0</ele><time>2026-05-03T13:54:28.69Z</time></trkpt><trkpt lat="41.9450212" lon="19.562277"><ele>10.0</ele><time>2026-05-03T13:54:29.69Z</time></trkpt><trkpt lat="41.9451525" lon="19.5621342"><ele>11.0</ele><time>2026-05-03T13:54:30.689Z</time></trkpt><trkpt lat="41.9452774" lon="19.5619947"><ele>12.0</ele><time>2026-05-03T13:54:31.689Z</time></trkpt><trkpt lat="41.9453903" lon="19.5618714"><ele>12.0</ele><time>2026-05-03T13:54:32.69Z</time></trkpt><trkpt lat="41.9454921" lon="19.5617428"><ele>12.0</ele><time>2026-05-03T13:54:33.69Z</time></trkpt><trkpt lat="41.9456034" lon="19.5616068"><ele>12.0</ele><time>2026-05-03T13:54:34.69Z</time></trkpt><trkpt lat="41.9457238" lon="19.5614636"><ele>12.0</ele><time>2026-05-03T13:54:35.69Z</time></trkpt><trkpt lat="41.9458397" lon="19.5613172"><ele>12.0</ele><time>2026-05-03T13:54:36.689Z</time></trkpt><trkpt lat="41.9459566" lon="19.5611673"><ele>12.0</ele><time>2026-05-03T13:54:37.69Z</time></trkpt><trkpt lat="41.9460826" lon="19.5610019"><ele>14.666666666666668</ele><time>2026-05-03T13:54:38.69Z</time></trkpt><trkpt lat="41.9461944" lon="19.5608544"><ele>17.333333333333336</ele><time>2026-05-03T13:54:39.69Z</time></trkpt><trkpt lat="41.9463079" lon="19.5607018"><ele>20.0</ele><time>2026-05-03T13:54:40.689Z</time></trkpt><trkpt lat="41.9464201" lon="19.5605442"><ele>20.0</ele><time>2026-05-03T13:54:41.69Z</time></trkpt><trkpt lat="41.9465237" lon="19.5604008"><ele>20.0</ele><time>2026-05-03T13:54:42.69Z</time></trkpt><trkpt lat="41.9466287" lon="19.5602505"><ele>20.0</ele><time>2026-05-03T13:54:43.69Z</time></trkpt><trkpt lat="41.9467342" lon="19.5601076"><ele>24.5</ele><time>2026-05-03T13:54:44.69Z</time></trkpt><trkpt lat="41.9468387" lon="19.5599763"><ele>29.0</ele><time>2026-05-03T13:54:45.69Z</time></trkpt><trkpt lat="41.9469366" lon="19.5598476"><ele>33.5</ele><time>2026-05-03T13:54:46.69Z</time></trkpt><trkpt lat="41.9470303" lon="19.5597366"><ele>38.0</ele><time>2026-05-03T13:54:47.689Z</time></trkpt><trkpt lat="41.9471279" lon="19.5596048"><ele>37.5</ele><time>2026-05-03T13:54:48.689Z</time></trkpt><trkpt lat="41.9472234" lon="19.5594916"><ele>37.0</ele><time>2026-05-03T13:54:49.689Z</time></trkpt><trkpt lat="41.9473156" lon="19.5593715"><ele>36.5</ele><time>2026-05-03T13:54:50.689Z</time></trkpt><trkpt lat="41.9474067" lon="19.5592519"><ele>36.0</ele><time>2026-05-03T13:54:51.69Z</time></trkpt><trkpt lat="41.947497" lon="19.5591227"><ele>32.75</ele><time>2026-05-03T13:54:52.689Z</time></trkpt><trkpt lat="41.9475912" lon="19.5589874"><ele>29.5</ele><time>2026-05-03T13:54:53.689Z</time></trkpt><trkpt lat="41.9476906" lon="19.5588478"><ele>26.25</ele><time>2026-05-03T13:54:54.689Z</time></trkpt><trkpt lat="41.947795" lon="19.5587058"><ele>23.0</ele><time>2026-05-03T13:54:55.689Z</time></trkpt><trkpt lat="41.9478992" lon="19.5585611"><ele>20.666666666666668</ele><time>2026-05-03T13:54:56.689Z</time></trkpt><trkpt lat="41.948007" lon="19.5584166"><ele>18.333333333333332</ele><time>2026-05-03T13:54:57.69Z</time></trkpt><trkpt lat="41.948113" lon="19.5582676"><ele>16.0</ele><time>2026-05-03T13:54:58.69Z</time></trkpt><trkpt lat="41.9482212" lon="19.5581242"><ele>16.0</ele><time>2026-05-03T13:54:59.689Z</time></trkpt><trkpt lat="41.9483255" lon="19.5579871"><ele>16.0</ele><time>2026-05-03T13:55:00.689Z</time></trkpt><trkpt lat="41.948431" lon="19.5578507"><ele>16.0</ele><time>2026-05-03T13:55:01.689Z</time></trkpt><trkpt lat="41.9485389" lon="19.5577161"><ele>16.0</ele><time>2026-05-03T13:55:02.69Z</time></trkpt><trkpt lat="41.9486485" lon="19.5575807"><ele>13.666666666666666</ele><time>2026-05-03T13:55:03.689Z</time></trkpt><trkpt lat="41.9487569" lon="19.5574456"><ele>11.333333333333332</ele><time>2026-05-03T13:55:04.689Z</time></trkpt><trkpt lat="41.9488708" lon="19.557314"><ele>9.0</ele><time>2026-05-03T13:55:05.69Z</time></trkpt><trkpt lat="41.9489925" lon="19.5571793"><ele>9.0</ele><time>2026-05-03T13:55:06.69Z</time></trkpt><trkpt lat="41.9491092" lon="19.5570438"><ele>9.0</ele><time>2026-05-03T13:55:07.69Z</time></trkpt><trkpt lat="41.9492254" lon="19.5569107"><ele>9.0</ele><time>2026-05-03T13:55:08.69Z</time></trkpt><trkpt lat="41.9493439" lon="19.5567836"><ele>8.666666666666666</ele><time>2026-05-03T13:55:09.69Z</time></trkpt><trkpt lat="41.9494634" lon="19.5566516"><ele>8.333333333333332</ele><time>2026-05-03T13:55:10.69Z</time></trkpt><trkpt lat="41.9495863" lon="19.5565268"><ele>8.0</ele><time>2026-05-03T13:55:11.689Z</time></trkpt><trkpt lat="41.9497083" lon="19.5564087"><ele>8.0</ele><time>2026-05-03T13:55:12.69Z</time></trkpt><trkpt lat="41.9498302" lon="19.5562926"><ele>8.0</ele><time>2026-05-03T13:55:13.689Z</time></trkpt><trkpt lat="41.9499528" lon="19.5561748"><ele>8.0</ele><time>2026-05-03T13:55:14.689Z</time></trkpt><trkpt lat="41.950079" lon="19.556062"><ele>8.0</ele><time>2026-05-03T13:55:15.69Z</time></trkpt><trkpt lat="41.9502041" lon="19.5559476"><ele>8.0</ele><time>2026-05-03T13:55:16.689Z</time></trkpt><trkpt lat="41.9503279" lon="19.5558348"><ele>8.0</ele><time>2026-05-03T13:55:17.69Z</time></trkpt><trkpt lat="41.9504528" lon="19.5557271"><ele>8.0</ele><time>2026-05-03T13:55:18.69Z</time></trkpt><trkpt lat="41.9505846" lon="19.5556177"><ele>8.0</ele><time>2026-05-03T13:55:19.69Z</time></trkpt><trkpt lat="41.9507155" lon="19.5555096"><ele>8.0</ele><time>2026-05-03T13:55:20.69Z</time></trkpt><trkpt lat="41.9508533" lon="19.5553934"><ele>8.0</ele><time>2026-05-03T13:55:21.69Z</time></trkpt><trkpt lat="41.9509951" lon="19.5552787"><ele>7.666666666666666</ele><time>2026-05-03T13:55:22.689Z</time></trkpt><trkpt lat="41.95114" lon="19.5551692"><ele>7.333333333333334</ele><time>2026-05-03T13:55:23.69Z</time></trkpt><trkpt lat="41.9512902" lon="19.5550646"><ele>7.0</ele><time>2026-05-03T13:55:24.689Z</time></trkpt><trkpt lat="41.9514273" lon="19.5549579"><ele>7.0</ele><time>2026-05-03T13:55:25.69Z</time></trkpt><trkpt lat="41.9515753" lon="19.554855"><ele>7.0</ele><time>2026-05-03T13:55:26.69Z</time></trkpt><trkpt lat="41.9517218" lon="19.5547546"><ele>7.0</ele><time>2026-05-03T13:55:27.689Z</time></trkpt><trkpt lat="41.9518694" lon="19.5546591"><ele>8.0</ele><time>2026-05-03T13:55:28.689Z</time></trkpt><trkpt lat="41.952023" lon="19.5545555"><ele>9.0</ele><time>2026-05-03T13:55:29.69Z</time></trkpt><trkpt lat="41.9521737" lon="19.5544569"><ele>10.0</ele><time>2026-05-03T13:55:30.689Z</time></trkpt><trkpt lat="41.9523287" lon="19.5543669"><ele>10.0</ele><time>2026-05-03T13:55:31.69Z</time></trkpt><trkpt lat="41.9524809" lon="19.5542746"><ele>10.0</ele><time>2026-05-03T13:55:32.689Z</time></trkpt><trkpt lat="41.9526362" lon="19.5541864"><ele>10.0</ele><time>2026-05-03T13:55:33.69Z</time></trkpt><trkpt lat="41.9527938" lon="19.5541005"><ele>9.666666666666668</ele><time>2026-05-03T13:55:34.69Z</time></trkpt><trkpt lat="41.9529533" lon="19.5540202"><ele>9.333333333333334</ele><time>2026-05-03T13:55:35.689Z</time></trkpt><trkpt lat="41.9531138" lon="19.5539394"><ele>9.0</ele><time>2026-05-03T13:55:36.689Z</time></trkpt><trkpt lat="41.9532785" lon="19.5538601"><ele>8.666666666666666</ele><time>2026-05-03T13:55:37.69Z</time></trkpt><trkpt lat="41.9534416" lon="19.5537818"><ele>8.333333333333332</ele><time>2026-05-03T13:55:38.689Z</time></trkpt><trkpt lat="41.9536078" lon="19.5537065"><ele>8.0</ele><time>2026-05-03T13:55:39.69Z</time></trkpt><trkpt lat="41.953766" lon="19.5536334"><ele>8.0</ele><time>2026-05-03T13:55:40.689Z</time></trkpt><trkpt lat="41.9539355" lon="19.5535738"><ele>8.0</ele><time>2026-05-03T13:55:41.689Z</time></trkpt><trkpt lat="41.9541062" lon="19.5535068"><ele>8.0</ele><time>2026-05-03T13:55:42.689Z</time></trkpt><trkpt lat="41.9542713" lon="19.5534411"><ele>7.666666666666666</ele><time>2026-05-03T13:55:43.69Z</time></trkpt><trkpt lat="41.9544367" lon="19.5533854"><ele>7.333333333333334</ele><time>2026-05-03T13:55:44.69Z</time></trkpt><trkpt lat="41.9546025" lon="19.5533345"><ele>7.0</ele><time>2026-05-03T13:55:45.69Z</time></trkpt><trkpt lat="41.9547682" lon="19.5532874"><ele>7.0</ele><time>2026-05-03T13:55:46.69Z</time></trkpt><trkpt lat="41.9549345" lon="19.5532326"><ele>7.0</ele><time>2026-05-03T13:55:47.689Z</time></trkpt><trkpt lat="41.9551024" lon="19.5531846"><ele>7.0</ele><time>2026-05-03T13:55:48.689Z</time></trkpt><trkpt lat="41.9552674" lon="19.5531421"><ele>11.0</ele><time>2026-05-03T13:55:49.69Z</time></trkpt><trkpt lat="41.9554331" lon="19.5531018"><ele>15.0</ele><time>2026-05-03T13:55:50.69Z</time></trkpt><trkpt lat="41.9556021" lon="19.5530626"><ele>19.0</ele><time>2026-05-03T13:55:51.69Z</time></trkpt><trkpt lat="41.9557672" lon="19.5530321"><ele>23.0</ele><time>2026-05-03T13:55:52.69Z</time></trkpt><trkpt lat="41.9559322" lon="19.5530013"><ele>27.0</ele><time>2026-05-03T13:55:53.69Z</time></trkpt><trkpt lat="41.9561035" lon="19.552971"><ele>31.0</ele><time>2026-05-03T13:55:54.69Z</time></trkpt><trkpt lat="41.9562751" lon="19.5529428"><ele>31.0</ele><time>2026-05-03T13:55:55.689Z</time></trkpt><trkpt lat="41.9564497" lon="19.5529218"><ele>31.0</ele><time>2026-05-03T13:55:56.689Z</time></trkpt><trkpt lat="41.9566223" lon="19.5529034"><ele>31.0</ele><time>2026-05-03T13:55:57.689Z</time></trkpt><trkpt lat="41.9567994" lon="19.5528857"><ele>27.0</ele><time>2026-05-03T13:55:58.69Z</time></trkpt><trkpt lat="41.956975" lon="19.5528545"><ele>23.0</ele><time>2026-05-03T13:55:59.689Z</time></trkpt><trkpt lat="41.9571499" lon="19.5528302"><ele>19.0</ele><time>2026-05-03T13:56:00.689Z</time></trkpt><trkpt lat="41.9573202" lon="19.5528097"><ele>19.0</ele><time>2026-05-03T13:56:01.69Z</time></trkpt><trkpt lat="41.9574889" lon="19.5527896"><ele>19.0</ele><time>2026-05-03T13:56:02.69Z</time></trkpt><trkpt lat="41.9576623" lon="19.5527661"><ele>19.0</ele><time>2026-05-03T13:56:03.689Z</time></trkpt><trkpt lat="41.9578331" lon="19.5527463"><ele>17.666666666666664</ele><time>2026-05-03T13:56:04.69Z</time></trkpt><trkpt lat="41.9580065" lon="19.5527254"><ele>16.333333333333332</ele><time>2026-05-03T13:56:05.689Z</time></trkpt><trkpt lat="41.9581834" lon="19.5526981"><ele>15.0</ele><time>2026-05-03T13:56:06.689Z</time></trkpt><trkpt lat="41.9583588" lon="19.5526775"><ele>14.0</ele><time>2026-05-03T13:56:07.69Z</time></trkpt><trkpt lat="41.9585303" lon="19.5526534"><ele>13.0</ele><time>2026-05-03T13:56:08.689Z</time></trkpt><trkpt lat="41.9587116" lon="19.552631"><ele>12.0</ele><time>2026-05-03T13:56:09.689Z</time></trkpt><trkpt lat="41.9588882" lon="19.5526047"><ele>12.0</ele><time>2026-05-03T13:56:10.689Z</time></trkpt><trkpt lat="41.9590623" lon="19.5525808"><ele>12.0</ele><time>2026-05-03T13:56:11.69Z</time></trkpt><trkpt lat="41.9592368" lon="19.5525593"><ele>12.0</ele><time>2026-05-03T13:56:12.69Z</time></trkpt><trkpt lat="41.9594146" lon="19.5525359"><ele>11.666666666666666</ele><time>2026-05-03T13:56:13.69Z</time></trkpt><trkpt lat="41.9595912" lon="19.5525173"><ele>11.333333333333332</ele><time>2026-05-03T13:56:14.689Z</time></trkpt><trkpt lat="41.9597692" lon="19.5524953"><ele>11.0</ele><time>2026-05-03T13:56:15.689Z</time></trkpt><trkpt lat="41.9599533" lon="19.5524728"><ele>10.666666666666666</ele><time>2026-05-03T13:56:16.69Z</time></trkpt><trkpt lat="41.9601325" lon="19.5524496"><ele>10.333333333333334</ele><time>2026-05-03T13:56:17.69Z</time></trkpt><trkpt lat="41.9603094" lon="19.5524252"><ele>10.0</ele><time>2026-05-03T13:56:18.689Z</time></trkpt><trkpt lat="41.9604868" lon="19.5523988"><ele>10.0</ele><time>2026-05-03T13:56:19.69Z</time></trkpt><trkpt lat="41.9606672" lon="19.5523772"><ele>10.0</ele><time>2026-05-03T13:56:20.69Z</time></trkpt><trkpt lat="41.9608496" lon="19.5523489"><ele>10.0</ele><time>2026-05-03T13:56:21.689Z</time></trkpt><trkpt lat="41.9610279" lon="19.552325"><ele>11.333333333333334</ele><time>2026-05-03T13:56:22.69Z</time></trkpt><trkpt lat="41.9612134" lon="19.5523013"><ele>12.666666666666668</ele><time>2026-05-03T13:56:23.69Z</time></trkpt><trkpt lat="41.9614006" lon="19.552274"><ele>14.0</ele><time>2026-05-03T13:56:24.69Z</time></trkpt><trkpt lat="41.9615883" lon="19.5522495"><ele>14.333333333333334</ele><time>2026-05-03T13:56:25.689Z</time></trkpt><trkpt lat="41.9617712" lon="19.5522143"><ele>14.666666666666668</ele><time>2026-05-03T13:56:26.69Z</time></trkpt><trkpt lat="41.9619448" lon="19.5521859"><ele>15.0</ele><time>2026-05-03T13:56:27.69Z</time></trkpt><trkpt lat="41.9621208" lon="19.5521503"><ele>15.0</ele><time>2026-05-03T13:56:28.69Z</time></trkpt><trkpt lat="41.9622915" lon="19.5521179"><ele>15.0</ele><time>2026-05-03T13:56:29.689Z</time></trkpt><trkpt lat="41.962466" lon="19.5520757"><ele>15.0</ele><time>2026-05-03T13:56:30.69Z</time></trkpt><trkpt lat="41.9626433" lon="19.5520265"><ele>18.0</ele><time>2026-05-03T13:56:31.69Z</time></trkpt><trkpt lat="41.9628186" lon="19.5519701"><ele>21.0</ele><time>2026-05-03T13:56:32.689Z</time></trkpt><trkpt lat="41.9629915" lon="19.5519152"><ele>24.0</ele><time>2026-05-03T13:56:33.69Z</time></trkpt><trkpt lat="41.9631621" lon="19.5518588"><ele>24.0</ele><time>2026-05-03T13:56:34.69Z</time></trkpt><trkpt lat="41.9633375" lon="19.5517931"><ele>24.0</ele><time>2026-05-03T13:56:35.69Z</time></trkpt><trkpt lat="41.9635114" lon="19.5517253"><ele>24.0</ele><time>2026-05-03T13:56:36.69Z</time></trkpt><trkpt lat="41.9636852" lon="19.5516553"><ele>22.333333333333332</ele><time>2026-05-03T13:56:37.69Z</time></trkpt><trkpt lat="41.9638525" lon="19.5515876"><ele>20.666666666666664</ele><time>2026-05-03T13:56:38.69Z</time></trkpt><trkpt lat="41.9640168" lon="19.5515054"><ele>19.0</ele><time>2026-05-03T13:56:39.69Z</time></trkpt><trkpt lat="41.9641853" lon="19.5514189"><ele>19.333333333333332</ele><time>2026-05-03T13:56:40.69Z</time></trkpt><trkpt lat="41.964352" lon="19.5513242"><ele>19.666666666666668</ele><time>2026-05-03T13:56:41.689Z</time></trkpt><trkpt lat="41.9645231" lon="19.5512172"><ele>20.0</ele><time>2026-05-03T13:56:42.689Z</time></trkpt><trkpt lat="41.9647044" lon="19.5510975"><ele>18.333333333333336</ele><time>2026-05-03T13:56:43.689Z</time></trkpt><trkpt lat="41.9648902" lon="19.5509772"><ele>16.666666666666668</ele><time>2026-05-03T13:56:44.689Z</time></trkpt><trkpt lat="41.9650814" lon="19.5508451"><ele>15.0</ele><time>2026-05-03T13:56:45.689Z</time></trkpt><trkpt lat="41.9652803" lon="19.5506924"><ele>14.333333333333332</ele><time>2026-05-03T13:56:46.689Z</time></trkpt><trkpt lat="41.9654707" lon="19.5505412"><ele>13.666666666666666</ele><time>2026-05-03T13:56:47.69Z</time></trkpt><trkpt lat="41.9656552" lon="19.5503812"><ele>13.0</ele><time>2026-05-03T13:56:48.689Z</time></trkpt><trkpt lat="41.9658384" lon="19.550227"><ele>12.666666666666666</ele><time>2026-05-03T13:56:49.689Z</time></trkpt><trkpt lat="41.9660075" lon="19.5500678"><ele>12.333333333333332</ele><time>2026-05-03T13:56:50.69Z</time></trkpt><trkpt lat="41.9661701" lon="19.549908"><ele>12.0</ele><time>2026-05-03T13:56:51.689Z</time></trkpt><trkpt lat="41.9663308" lon="19.5497483"><ele>12.0</ele><time>2026-05-03T13:56:52.689Z</time></trkpt><trkpt lat="41.9664827" lon="19.5495796"><ele>12.0</ele><time>2026-05-03T13:56:53.689Z</time></trkpt><trkpt lat="41.9666337" lon="19.5494247"><ele>12.0</ele><time>2026-05-03T13:56:54.69Z</time></trkpt><trkpt lat="41.9667923" lon="19.5492492"><ele>11.666666666666666</ele><time>2026-05-03T13:56:55.69Z</time></trkpt><trkpt lat="41.9669476" lon="19.5490802"><ele>11.333333333333332</ele><time>2026-05-03T13:56:56.69Z</time></trkpt><trkpt lat="41.9671022" lon="19.548912"><ele>11.0</ele><time>2026-05-03T13:56:57.689Z</time></trkpt><trkpt lat="41.967256" lon="19.5487355"><ele>11.333333333333332</ele><time>2026-05-03T13:56:58.69Z</time></trkpt><trkpt lat="41.9674088" lon="19.5485661"><ele>11.666666666666666</ele><time>2026-05-03T13:56:59.69Z</time></trkpt><trkpt lat="41.9675649" lon="19.5483981"><ele>12.0</ele><time>2026-05-03T13:57:00.69Z</time></trkpt><trkpt lat="41.9677275" lon="19.5482417"><ele>12.0</ele><time>2026-05-03T13:57:01.69Z</time></trkpt><trkpt lat="41.9678872" lon="19.5480851"><ele>12.0</ele><time>2026-05-03T13:57:02.69Z</time></trkpt><trkpt lat="41.9680565" lon="19.5479397"><ele>12.0</ele><time>2026-05-03T13:57:03.69Z</time></trkpt><trkpt lat="41.9682302" lon="19.54781"><ele>12.666666666666668</ele><time>2026-05-03T13:57:04.69Z</time></trkpt><trkpt lat="41.9684059" lon="19.5476913"><ele>13.333333333333334</ele><time>2026-05-03T13:57:05.689Z</time></trkpt><trkpt lat="41.9685805" lon="19.547584"><ele>14.0</ele><time>2026-05-03T13:57:06.69Z</time></trkpt><trkpt lat="41.9687588" lon="19.5474868"><ele>14.0</ele><time>2026-05-03T13:57:07.689Z</time></trkpt><trkpt lat="41.9689411" lon="19.5474009"><ele>14.0</ele><time>2026-05-03T13:57:08.69Z</time></trkpt><trkpt lat="41.9691292" lon="19.5472908"><ele>14.0</ele><time>2026-05-03T13:57:09.69Z</time></trkpt><trkpt lat="41.9693282" lon="19.5472043"><ele>13.666666666666668</ele><time>2026-05-03T13:57:10.69Z</time></trkpt><trkpt lat="41.9695244" lon="19.5471569"><ele>13.333333333333332</ele><time>2026-05-03T13:57:11.69Z</time></trkpt><trkpt lat="41.9697109" lon="19.5471132"><ele>13.0</ele><time>2026-05-03T13:57:12.69Z</time></trkpt><trkpt lat="41.9699004" lon="19.5470809"><ele>12.666666666666666</ele><time>2026-05-03T13:57:13.69Z</time></trkpt><trkpt lat="41.970086" lon="19.5470517"><ele>12.333333333333332</ele><time>2026-05-03T13:57:14.689Z</time></trkpt><trkpt lat="41.9702674" lon="19.5470327"><ele>12.0</ele><time>2026-05-03T13:57:15.69Z</time></trkpt><trkpt lat="41.9704484" lon="19.5470259"><ele>12.0</ele><time>2026-05-03T13:57:16.69Z</time></trkpt><trkpt lat="41.9706308" lon="19.5470327"><ele>12.0</ele><time>2026-05-03T13:57:17.69Z</time></trkpt><trkpt lat="41.9708211" lon="19.5470308"><ele>12.0</ele><time>2026-05-03T13:57:18.689Z</time></trkpt><trkpt lat="41.9710113" lon="19.5470399"><ele>11.666666666666666</ele><time>2026-05-03T13:57:19.69Z</time></trkpt><trkpt lat="41.9711971" lon="19.5470496"><ele>11.333333333333332</ele><time>2026-05-03T13:57:20.69Z</time></trkpt><trkpt lat="41.9713919" lon="19.5470499"><ele>11.0</ele><time>2026-05-03T13:57:21.69Z</time></trkpt><trkpt lat="41.9715861" lon="19.5470575"><ele>11.333333333333332</ele><time>2026-05-03T13:57:22.69Z</time></trkpt><trkpt lat="41.9717785" lon="19.5470548"><ele>11.666666666666666</ele><time>2026-05-03T13:57:23.689Z</time></trkpt><trkpt lat="41.9719742" lon="19.5470415"><ele>12.0</ele><time>2026-05-03T13:57:24.689Z</time></trkpt><trkpt lat="41.9721685" lon="19.5470558"><ele>12.0</ele><time>2026-05-03T13:57:25.69Z</time></trkpt><trkpt lat="41.972369" lon="19.5470519"><ele>12.0</ele><time>2026-05-03T13:57:26.69Z</time></trkpt><trkpt lat="41.9725691" lon="19.5470642"><ele>12.0</ele><time>2026-05-03T13:57:27.689Z</time></trkpt><trkpt lat="41.9727682" lon="19.5470727"><ele>12.0</ele><time>2026-05-03T13:57:28.69Z</time></trkpt><trkpt lat="41.9729723" lon="19.5470652"><ele>12.0</ele><time>2026-05-03T13:57:29.69Z</time></trkpt><trkpt lat="41.9731712" lon="19.5470781"><ele>12.0</ele><time>2026-05-03T13:57:30.689Z</time></trkpt><trkpt lat="41.9733711" lon="19.5470831"><ele>12.0</ele><time>2026-05-03T13:57:31.69Z</time></trkpt><trkpt lat="41.9735711" lon="19.5470784"><ele>12.0</ele><time>2026-05-03T13:57:32.69Z</time></trkpt><trkpt lat="41.9737679" lon="19.5470726"><ele>12.0</ele><time>2026-05-03T13:57:33.689Z</time></trkpt><trkpt lat="41.9739683" lon="19.5470578"><ele>12.333333333333332</ele><time>2026-05-03T13:57:34.69Z</time></trkpt><trkpt lat="41.9741674" lon="19.5470335"><ele>12.666666666666666</ele><time>2026-05-03T13:57:35.689Z</time></trkpt><trkpt lat="41.9743675" lon="19.5469975"><ele>13.0</ele><time>2026-05-03T13:57:36.69Z</time></trkpt><trkpt lat="41.9745601" lon="19.5469544"><ele>13.0</ele><time>2026-05-03T13:57:37.69Z</time></trkpt><trkpt lat="41.9747535" lon="19.5468943"><ele>13.0</ele><time>2026-05-03T13:57:38.69Z</time></trkpt><trkpt lat="41.9749413" lon="19.5468286"><ele>13.0</ele><time>2026-05-03T13:57:39.689Z</time></trkpt><trkpt lat="41.9751241" lon="19.5467675"><ele>13.333333333333332</ele><time>2026-05-03T13:57:40.69Z</time></trkpt><trkpt lat="41.9753127" lon="19.5467073"><ele>13.666666666666668</ele><time>2026-05-03T13:57:41.689Z</time></trkpt><trkpt lat="41.9754975" lon="19.5466398"><ele>14.0</ele><time>2026-05-03T13:57:42.69Z</time></trkpt><trkpt lat="41.9756743" lon="19.5465621"><ele>14.333333333333334</ele><time>2026-05-03T13:57:43.69Z</time></trkpt><trkpt lat="41.9758562" lon="19.5464877"><ele>14.666666666666668</ele><time>2026-05-03T13:57:44.69Z</time></trkpt><trkpt lat="41.9760399" lon="19.5464263"><ele>15.0</ele><time>2026-05-03T13:57:45.689Z</time></trkpt><trkpt lat="41.9762299" lon="19.5463541"><ele>15.0</ele><time>2026-05-03T13:57:46.69Z</time></trkpt><trkpt lat="41.9764286" lon="19.5462749"><ele>15.0</ele><time>2026-05-03T13:57:47.69Z</time></trkpt><trkpt lat="41.9766227" lon="19.5462007"><ele>15.0</ele><time>2026-05-03T13:57:48.689Z</time></trkpt><trkpt lat="41.976815" lon="19.5461258"><ele>14.0</ele><time>2026-05-03T13:57:49.689Z</time></trkpt><trkpt lat="41.9770088" lon="19.5460538"><ele>13.0</ele><time>2026-05-03T13:57:50.69Z</time></trkpt><trkpt lat="41.9772022" lon="19.5459783"><ele>12.0</ele><time>2026-05-03T13:57:51.689Z</time></trkpt><trkpt lat="41.9773916" lon="19.5458999"><ele>12.0</ele><time>2026-05-03T13:57:52.689Z</time></trkpt><trkpt lat="41.9775812" lon="19.5458213"><ele>12.0</ele><time>2026-05-03T13:57:53.689Z</time></trkpt><trkpt lat="41.9777704" lon="19.5457393"><ele>12.0</ele><time>2026-05-03T13:57:54.689Z</time></trkpt><trkpt lat="41.9779546" lon="19.5456559"><ele>12.0</ele><time>2026-05-03T13:57:55.69Z</time></trkpt><trkpt lat="41.9781357" lon="19.5455671"><ele>12.0</ele><time>2026-05-03T13:57:56.689Z</time></trkpt><trkpt lat="41.9783146" lon="19.5454734"><ele>12.0</ele><time>2026-05-03T13:57:57.689Z</time></trkpt><trkpt lat="41.9784975" lon="19.5453788"><ele>12.666666666666668</ele><time>2026-05-03T13:57:58.689Z</time></trkpt><trkpt lat="41.9786754" lon="19.5452778"><ele>13.333333333333334</ele><time>2026-05-03T13:57:59.689Z</time></trkpt><trkpt lat="41.9788494" lon="19.5451727"><ele>14.0</ele><time>2026-05-03T13:58:00.689Z</time></trkpt><trkpt lat="41.9790184" lon="19.5450622"><ele>13.666666666666668</ele><time>2026-05-03T13:58:01.689Z</time></trkpt><trkpt lat="41.9791857" lon="19.5449503"><ele>13.333333333333332</ele><time>2026-05-03T13:58:02.689Z</time></trkpt><trkpt lat="41.9793516" lon="19.5448428"><ele>13.0</ele><time>2026-05-03T13:58:03.689Z</time></trkpt><trkpt lat="41.9795137" lon="19.5447332"><ele>13.0</ele><time>2026-05-03T13:58:04.69Z</time></trkpt><trkpt lat="41.9796723" lon="19.54462"><ele>13.0</ele><time>2026-05-03T13:58:05.689Z</time></trkpt><trkpt lat="41.9798277" lon="19.5445082"><ele>13.0</ele><time>2026-05-03T13:58:06.69Z</time></trkpt><trkpt lat="41.9799728" lon="19.5443966"><ele>12.666666666666666</ele><time>2026-05-03T13:58:07.69Z</time></trkpt><trkpt lat="41.9801133" lon="19.5442765"><ele>12.333333333333332</ele><time>2026-05-03T13:58:08.69Z</time></trkpt><trkpt lat="41.9802475" lon="19.5441711"><ele>12.0</ele><time>2026-05-03T13:58:09.69Z</time></trkpt><trkpt lat="41.9803807" lon="19.544066"><ele>12.0</ele><time>2026-05-03T13:58:10.689Z</time></trkpt><trkpt lat="41.9805091" lon="19.543958"><ele>12.0</ele><time>2026-05-03T13:58:11.689Z</time></trkpt><trkpt lat="41.9806399" lon="19.5438525"><ele>12.0</ele><time>2026-05-03T13:58:12.69Z</time></trkpt><trkpt lat="41.9807728" lon="19.5437442"><ele>12.333333333333332</ele><time>2026-05-03T13:58:13.689Z</time></trkpt><trkpt lat="41.9809062" lon="19.5436342"><ele>12.666666666666666</ele><time>2026-05-03T13:58:14.69Z</time></trkpt><trkpt lat="41.9810338" lon="19.5435248"><ele>13.0</ele><time>2026-05-03T13:58:15.689Z</time></trkpt><trkpt lat="41.9811598" lon="19.5434218"><ele>13.0</ele><time>2026-05-03T13:58:16.689Z</time></trkpt><trkpt lat="41.981285" lon="19.5433209"><ele>13.0</ele><time>2026-05-03T13:58:17.689Z</time></trkpt><trkpt lat="41.9814061" lon="19.5432213"><ele>13.0</ele><time>2026-05-03T13:58:18.69Z</time></trkpt><trkpt lat="41.9815164" lon="19.5431254"><ele>13.0</ele><time>2026-05-03T13:58:19.69Z</time></trkpt><trkpt lat="41.9816261" lon="19.5430434"><ele>12.75</ele><time>2026-05-03T13:58:20.69Z</time></trkpt><trkpt lat="41.9817298" lon="19.5429561"><ele>12.5</ele><time>2026-05-03T13:58:21.689Z</time></trkpt><trkpt lat="41.9818319" lon="19.5428728"><ele>12.25</ele><time>2026-05-03T13:58:22.69Z</time></trkpt><trkpt lat="41.9819288" lon="19.542792"><ele>12.0</ele><time>2026-05-03T13:58:23.69Z</time></trkpt><trkpt lat="41.9820197" lon="19.5427173"><ele>12.0</ele><time>2026-05-03T13:58:24.689Z</time></trkpt><trkpt lat="41.9820982" lon="19.5426514"><ele>12.0</ele><time>2026-05-03T13:58:25.689Z</time></trkpt><trkpt lat="41.9821633" lon="19.5425998"><ele>12.0</ele><time>2026-05-03T13:58:26.69Z</time></trkpt><trkpt lat="41.9822577" lon="19.5425338"><ele>12.0</ele><time>2026-05-03T13:58:28.69Z</time></trkpt><trkpt lat="41.9823405" lon="19.542469"><ele>12.0</ele><time>2026-05-03T13:58:30.69Z</time></trkpt><trkpt lat="41.9824261" lon="19.5423977"><ele>12.0</ele><time>2026-05-03T13:58:32.689Z</time></trkpt><trkpt lat="41.9825075" lon="19.5423212"><ele>12.0</ele><time>2026-05-03T13:58:34.69Z</time></trkpt><trkpt lat="41.9825915" lon="19.5422604"><ele>12.0</ele><time>2026-05-03T13:58:36.69Z</time></trkpt><trkpt lat="41.9826721" lon="19.5422054"><ele>12.0</ele><time>2026-05-03T13:58:38.689Z</time></trkpt><trkpt lat="41.9827554" lon="19.5421259"><ele>12.0</ele><time>2026-05-03T13:58:40.689Z</time></trkpt><trkpt lat="41.9828596" lon="19.5420429"><ele>12.333333333333334</ele><time>2026-05-03T13:58:42.689Z</time></trkpt><trkpt lat="41.9829162" lon="19.5419855"><ele>12.666666666666668</ele><time>2026-05-03T13:58:43.689Z</time></trkpt><trkpt lat="41.9829742" lon="19.5419381"><ele>13.0</ele><time>2026-05-03T13:58:44.69Z</time></trkpt><trkpt lat="41.9830325" lon="19.5418885"><ele>13.333333333333334</ele><time>2026-05-03T13:58:45.69Z</time></trkpt><trkpt lat="41.9830927" lon="19.5418311"><ele>13.666666666666668</ele><time>2026-05-03T13:58:46.689Z</time></trkpt><trkpt lat="41.9831735" lon="19.541767"><ele>14.0</ele><time>2026-05-03T13:58:47.689Z</time></trkpt><trkpt lat="41.9832542" lon="19.5416918"><ele>13.666666666666668</ele><time>2026-05-03T13:58:48.689Z</time></trkpt><trkpt lat="41.9833488" lon="19.5415948"><ele>13.333333333333332</ele><time>2026-05-03T13:58:49.69Z</time></trkpt><trkpt lat="41.9834832" lon="19.5414842"><ele>13.0</ele><time>2026-05-03T13:58:50.69Z</time></trkpt><trkpt lat="41.9836546" lon="19.5413333"><ele>14.0</ele><time>2026-05-03T13:58:51.689Z</time></trkpt><trkpt lat="41.9838489" lon="19.5411685"><ele>15.0</ele><time>2026-05-03T13:58:52.69Z</time></trkpt><trkpt lat="41.9840817" lon="19.5409761"><ele>14.0</ele><time>2026-05-03T13:58:53.689Z</time></trkpt><trkpt lat="41.9843145" lon="19.5408061"><ele>13.0</ele><time>2026-05-03T13:58:54.689Z</time></trkpt><trkpt lat="41.9845325" lon="19.5406409"><ele>13.0</ele><time>2026-05-03T13:58:55.69Z</time></trkpt><trkpt lat="41.9847351" lon="19.540476"><ele>13.0</ele><time>2026-05-03T13:58:56.69Z</time></trkpt><trkpt lat="41.9849241" lon="19.5403194"><ele>12.666666666666666</ele><time>2026-05-03T13:58:57.69Z</time></trkpt><trkpt lat="41.9851023" lon="19.5401754"><ele>12.333333333333332</ele><time>2026-05-03T13:58:58.689Z</time></trkpt><trkpt lat="41.9852732" lon="19.5400368"><ele>12.0</ele><time>2026-05-03T13:58:59.69Z</time></trkpt><trkpt lat="41.9854397" lon="19.5398994"><ele>12.0</ele><time>2026-05-03T13:59:00.69Z</time></trkpt><trkpt lat="41.9856007" lon="19.5397655"><ele>12.0</ele><time>2026-05-03T13:59:01.689Z</time></trkpt><trkpt lat="41.985766" lon="19.5396301"><ele>12.0</ele><time>2026-05-03T13:59:02.689Z</time></trkpt><trkpt lat="41.9859242" lon="19.5395023"><ele>11.666666666666666</ele><time>2026-05-03T13:59:03.69Z</time></trkpt><trkpt lat="41.9860829" lon="19.5393722"><ele>11.333333333333332</ele><time>2026-05-03T13:59:04.689Z</time></trkpt><trkpt lat="41.9862372" lon="19.5392387"><ele>11.0</ele><time>2026-05-03T13:59:05.689Z</time></trkpt><trkpt lat="41.9864034" lon="19.5390984"><ele>11.0</ele><time>2026-05-03T13:59:06.689Z</time></trkpt><trkpt lat="41.9865678" lon="19.5389594"><ele>11.0</ele><time>2026-05-03T13:59:07.69Z</time></trkpt><trkpt lat="41.9867222" lon="19.5388331"><ele>11.0</ele><time>2026-05-03T13:59:08.69Z</time></trkpt><trkpt lat="41.9868712" lon="19.538703"><ele>11.666666666666666</ele><time>2026-05-03T13:59:09.69Z</time></trkpt><trkpt lat="41.9870237" lon="19.538575"><ele>12.333333333333332</ele><time>2026-05-03T13:59:10.689Z</time></trkpt><trkpt lat="41.9871763" lon="19.5384456"><ele>13.0</ele><time>2026-05-03T13:59:11.689Z</time></trkpt><trkpt lat="41.987329" lon="19.5383157"><ele>13.0</ele><time>2026-05-03T13:59:12.69Z</time></trkpt><trkpt lat="41.9874861" lon="19.5381863"><ele>13.0</ele><time>2026-05-03T13:59:13.689Z</time></trkpt><trkpt lat="41.9876412" lon="19.5380575"><ele>13.0</ele><time>2026-05-03T13:59:14.689Z</time></trkpt><trkpt lat="41.9877997" lon="19.5379331"><ele>12.666666666666666</ele><time>2026-05-03T13:59:15.69Z</time></trkpt><trkpt lat="41.9879563" lon="19.5378024"><ele>12.333333333333332</ele><time>2026-05-03T13:59:16.69Z</time></trkpt><trkpt lat="41.9881072" lon="19.5376595"><ele>12.0</ele><time>2026-05-03T13:59:17.69Z</time></trkpt><trkpt lat="41.9882622" lon="19.537531"><ele>11.333333333333334</ele><time>2026-05-03T13:59:18.689Z</time></trkpt><trkpt lat="41.9884167" lon="19.5374032"><ele>10.666666666666668</ele><time>2026-05-03T13:59:19.69Z</time></trkpt><trkpt lat="41.9885713" lon="19.5372778"><ele>10.0</ele><time>2026-05-03T13:59:20.69Z</time></trkpt><trkpt lat="41.9887208" lon="19.5371493"><ele>10.0</ele><time>2026-05-03T13:59:21.69Z</time></trkpt><trkpt lat="41.9888718" lon="19.5370211"><ele>10.0</ele><time>2026-05-03T13:59:22.69Z</time></trkpt><trkpt lat="41.9890213" lon="19.5369043"><ele>10.0</ele><time>2026-05-03T13:59:23.69Z</time></trkpt><trkpt lat="41.9891697" lon="19.5367847"><ele>10.0</ele><time>2026-05-03T13:59:24.69Z</time></trkpt><trkpt lat="41.9893118" lon="19.5366666"><ele>10.0</ele><time>2026-05-03T13:59:25.689Z</time></trkpt><trkpt lat="41.989454" lon="19.5365475"><ele>10.0</ele><time>2026-05-03T13:59:26.69Z</time></trkpt><trkpt lat="41.9895961" lon="19.5364246"><ele>10.0</ele><time>2026-05-03T13:59:27.689Z</time></trkpt><trkpt lat="41.9897388" lon="19.5363006"><ele>10.0</ele><time>2026-05-03T13:59:28.69Z</time></trkpt><trkpt lat="41.9898798" lon="19.5361768"><ele>10.0</ele><time>2026-05-03T13:59:29.689Z</time></trkpt><trkpt lat="41.9900243" lon="19.5360513"><ele>9.333333333333334</ele><time>2026-05-03T13:59:30.69Z</time></trkpt><trkpt lat="41.9901673" lon="19.5359195"><ele>8.666666666666666</ele><time>2026-05-03T13:59:31.689Z</time></trkpt><trkpt lat="41.9903067" lon="19.5357898"><ele>8.0</ele><time>2026-05-03T13:59:32.69Z</time></trkpt><trkpt lat="41.9904476" lon="19.5356605"><ele>8.0</ele><time>2026-05-03T13:59:33.69Z</time></trkpt><trkpt lat="41.9905856" lon="19.5355331"><ele>8.0</ele><time>2026-05-03T13:59:34.689Z</time></trkpt><trkpt lat="41.9907219" lon="19.5354029"><ele>8.0</ele><time>2026-05-03T13:59:35.689Z</time></trkpt><trkpt lat="41.990857" lon="19.5352704"><ele>9.0</ele><time>2026-05-03T13:59:36.69Z</time></trkpt><trkpt lat="41.9909939" lon="19.535143"><ele>10.0</ele><time>2026-05-03T13:59:37.689Z</time></trkpt><trkpt lat="41.9911301" lon="19.5350135"><ele>11.0</ele><time>2026-05-03T13:59:38.689Z</time></trkpt><trkpt lat="41.9912651" lon="19.5348821"><ele>11.0</ele><time>2026-05-03T13:59:39.69Z</time></trkpt><trkpt lat="41.9913944" lon="19.5347524"><ele>11.0</ele><time>2026-05-03T13:59:40.69Z</time></trkpt><trkpt lat="41.9915271" lon="19.5346227"><ele>11.0</ele><time>2026-05-03T13:59:41.689Z</time></trkpt><trkpt lat="41.9916628" lon="19.5344961"><ele>10.666666666666666</ele><time>2026-05-03T13:59:42.69Z</time></trkpt><trkpt lat="41.9918005" lon="19.5343672"><ele>10.333333333333334</ele><time>2026-05-03T13:59:43.69Z</time></trkpt><trkpt lat="41.9919303" lon="19.5342288"><ele>10.0</ele><time>2026-05-03T13:59:44.689Z</time></trkpt><trkpt lat="41.9920628" lon="19.5340933"><ele>10.0</ele><time>2026-05-03T13:59:45.69Z</time></trkpt><trkpt lat="41.9921967" lon="19.5339615"><ele>10.0</ele><time>2026-05-03T13:59:46.689Z</time></trkpt><trkpt lat="41.9923319" lon="19.5338245"><ele>10.0</ele><time>2026-05-03T13:59:47.689Z</time></trkpt><trkpt lat="41.9924717" lon="19.5336844"><ele>10.0</ele><time>2026-05-03T13:59:48.69Z</time></trkpt><trkpt lat="41.9926145" lon="19.5335431"><ele>10.0</ele><time>2026-05-03T13:59:49.69Z</time></trkpt><trkpt lat="41.9927557" lon="19.5333915"><ele>10.0</ele><time>2026-05-03T13:59:50.689Z</time></trkpt><trkpt lat="41.9928967" lon="19.5332385"><ele>10.0</ele><time>2026-05-03T13:59:51.69Z</time></trkpt><trkpt lat="41.9930399" lon="19.533093"><ele>10.0</ele><time>2026-05-03T13:59:52.69Z</time></trkpt><trkpt lat="41.9931808" lon="19.5329421"><ele>10.0</ele><time>2026-05-03T13:59:53.69Z</time></trkpt><trkpt lat="41.9933204" lon="19.5327904"><ele>10.0</ele><time>2026-05-03T13:59:54.69Z</time></trkpt><trkpt lat="41.9934617" lon="19.532626"><ele>10.0</ele><time>2026-05-03T13:59:55.69Z</time></trkpt><trkpt lat="41.9935993" lon="19.5324591"><ele>10.0</ele><time>2026-05-03T13:59:56.69Z</time></trkpt><trkpt lat="41.993734" lon="19.53228"><ele>10.0</ele><time>2026-05-03T13:59:57.69Z</time></trkpt><trkpt lat="41.9938602" lon="19.5321031"><ele>10.0</ele><time>2026-05-03T13:59:58.69Z</time></trkpt><trkpt lat="41.9939843" lon="19.5319176"><ele>10.0</ele><time>2026-05-03T13:59:59.69Z</time></trkpt><trkpt lat="41.9941151" lon="19.5317246"><ele>9.666666666666668</ele><time>2026-05-03T14:00:00.69Z</time></trkpt><trkpt lat="41.9942444" lon="19.5315322"><ele>9.333333333333334</ele><time>2026-05-03T14:00:01.69Z</time></trkpt><trkpt lat="41.9943654" lon="19.5313459"><ele>9.0</ele><time>2026-05-03T14:00:02.689Z</time></trkpt><trkpt lat="41.9944827" lon="19.531163"><ele>9.0</ele><time>2026-05-03T14:00:03.689Z</time></trkpt><trkpt lat="41.9945958" lon="19.5309792"><ele>9.0</ele><time>2026-05-03T14:00:04.69Z</time></trkpt><trkpt lat="41.9947072" lon="19.5307987"><ele>9.0</ele><time>2026-05-03T14:00:05.689Z</time></trkpt><trkpt lat="41.9948139" lon="19.5306173"><ele>9.0</ele><time>2026-05-03T14:00:06.69Z</time></trkpt><trkpt lat="41.9949173" lon="19.5304333"><ele>9.0</ele><time>2026-05-03T14:00:07.689Z</time></trkpt><trkpt lat="41.9950236" lon="19.5302559"><ele>9.0</ele><time>2026-05-03T14:00:08.689Z</time></trkpt><trkpt lat="41.9951337" lon="19.5300762"><ele>9.666666666666666</ele><time>2026-05-03T14:00:09.69Z</time></trkpt><trkpt lat="41.9952393" lon="19.5299015"><ele>10.333333333333332</ele><time>2026-05-03T14:00:10.689Z</time></trkpt><trkpt lat="41.9953522" lon="19.529732"><ele>11.0</ele><time>2026-05-03T14:00:11.689Z</time></trkpt><trkpt lat="41.9954592" lon="19.529569"><ele>10.666666666666666</ele><time>2026-05-03T14:00:12.689Z</time></trkpt><trkpt lat="41.9955623" lon="19.5294132"><ele>10.333333333333334</ele><time>2026-05-03T14:00:13.689Z</time></trkpt><trkpt lat="41.9956716" lon="19.5292583"><ele>10.0</ele><time>2026-05-03T14:00:14.689Z</time></trkpt><trkpt lat="41.9957739" lon="19.5290933"><ele>10.666666666666668</ele><time>2026-05-03T14:00:15.689Z</time></trkpt><trkpt lat="41.9958929" lon="19.5289186"><ele>11.333333333333334</ele><time>2026-05-03T14:00:16.689Z</time></trkpt><trkpt lat="41.9960072" lon="19.5287688"><ele>12.0</ele><time>2026-05-03T14:00:17.689Z</time></trkpt><trkpt lat="41.9961185" lon="19.5286219"><ele>12.0</ele><time>2026-05-03T14:00:18.69Z</time></trkpt><trkpt lat="41.9962274" lon="19.5284751"><ele>12.0</ele><time>2026-05-03T14:00:19.689Z</time></trkpt><trkpt lat="41.9963341" lon="19.5283254"><ele>12.0</ele><time>2026-05-03T14:00:20.689Z</time></trkpt><trkpt lat="41.9964542" lon="19.5281783"><ele>12.0</ele><time>2026-05-03T14:00:21.689Z</time></trkpt><trkpt lat="41.9965713" lon="19.5280389"><ele>12.0</ele><time>2026-05-03T14:00:22.689Z</time></trkpt><trkpt lat="41.9966974" lon="19.5278988"><ele>12.0</ele><time>2026-05-03T14:00:23.689Z</time></trkpt><trkpt lat="41.9968126" lon="19.5277644"><ele>11.0</ele><time>2026-05-03T14:00:24.689Z</time></trkpt><trkpt lat="41.9969329" lon="19.5276324"><ele>10.0</ele><time>2026-05-03T14:00:25.69Z</time></trkpt><trkpt lat="41.9970547" lon="19.5275005"><ele>9.0</ele><time>2026-05-03T14:00:26.69Z</time></trkpt><trkpt lat="41.9971778" lon="19.5273756"><ele>9.0</ele><time>2026-05-03T14:00:27.69Z</time></trkpt><trkpt lat="41.9972999" lon="19.5272455"><ele>9.0</ele><time>2026-05-03T14:00:28.689Z</time></trkpt><trkpt lat="41.9974211" lon="19.5271256"><ele>9.0</ele><time>2026-05-03T14:00:29.689Z</time></trkpt><trkpt lat="41.997542" lon="19.5270031"><ele>8.75</ele><time>2026-05-03T14:00:30.689Z</time></trkpt><trkpt lat="41.9976639" lon="19.5268928"><ele>8.5</ele><time>2026-05-03T14:00:31.689Z</time></trkpt><trkpt lat="41.9977831" lon="19.5267874"><ele>8.25</ele><time>2026-05-03T14:00:32.689Z</time></trkpt><trkpt lat="41.997901" lon="19.5266816"><ele>8.0</ele><time>2026-05-03T14:00:33.69Z</time></trkpt><trkpt lat="41.9980167" lon="19.5265796"><ele>8.0</ele><time>2026-05-03T14:00:34.69Z</time></trkpt><trkpt lat="41.9981355" lon="19.5264752"><ele>8.0</ele><time>2026-05-03T14:00:35.69Z</time></trkpt><trkpt lat="41.9982527" lon="19.5263661"><ele>8.0</ele><time>2026-05-03T14:00:36.689Z</time></trkpt><trkpt lat="41.9983749" lon="19.5262628"><ele>8.0</ele><time>2026-05-03T14:00:37.69Z</time></trkpt><trkpt lat="41.9985041" lon="19.5261487"><ele>8.25</ele><time>2026-05-03T14:00:38.69Z</time></trkpt><trkpt lat="41.9986258" lon="19.5260373"><ele>8.5</ele><time>2026-05-03T14:00:39.69Z</time></trkpt><trkpt lat="41.9987507" lon="19.5259299"><ele>8.75</ele><time>2026-05-03T14:00:40.69Z</time></trkpt><trkpt lat="41.9988751" lon="19.5258222"><ele>9.0</ele><time>2026-05-03T14:00:41.689Z</time></trkpt><trkpt lat="41.9990102" lon="19.525704"><ele>9.0</ele><time>2026-05-03T14:00:42.689Z</time></trkpt><trkpt lat="41.9991522" lon="19.5255726"><ele>9.0</ele><time>2026-05-03T14:00:43.69Z</time></trkpt><trkpt lat="41.9993144" lon="19.5254371"><ele>9.0</ele><time>2026-05-03T14:00:44.689Z</time></trkpt><trkpt lat="41.9994874" lon="19.5252963"><ele>9.333333333333334</ele><time>2026-05-03T14:00:45.69Z</time></trkpt><trkpt lat="41.9996685" lon="19.5251528"><ele>9.666666666666668</ele><time>2026-05-03T14:00:46.689Z</time></trkpt><trkpt lat="41.9998615" lon="19.5250385"><ele>10.0</ele><time>2026-05-03T14:00:47.689Z</time></trkpt><trkpt lat="42.0000498" lon="19.524931"><ele>10.0</ele><time>2026-05-03T14:00:48.689Z</time></trkpt><trkpt lat="42.0002427" lon="19.5248156"><ele>10.0</ele><time>2026-05-03T14:00:49.689Z</time></trkpt><trkpt lat="42.0004257" lon="19.5247186"><ele>10.0</ele><time>2026-05-03T14:00:50.689Z</time></trkpt><trkpt lat="42.0006093" lon="19.5246363"><ele>10.0</ele><time>2026-05-03T14:00:51.689Z</time></trkpt><trkpt lat="42.0007917" lon="19.524549"><ele>10.0</ele><time>2026-05-03T14:00:52.689Z</time></trkpt><trkpt lat="42.0009776" lon="19.524468"><ele>10.0</ele><time>2026-05-03T14:00:53.69Z</time></trkpt><trkpt lat="42.0011659" lon="19.5243831"><ele>10.0</ele><time>2026-05-03T14:00:54.689Z</time></trkpt><trkpt lat="42.0013531" lon="19.5242983"><ele>10.0</ele><time>2026-05-03T14:00:55.689Z</time></trkpt><trkpt lat="42.0015448" lon="19.5242156"><ele>10.0</ele><time>2026-05-03T14:00:56.69Z</time></trkpt><trkpt lat="42.0017342" lon="19.524138"><ele>10.333333333333334</ele><time>2026-05-03T14:00:57.69Z</time></trkpt><trkpt lat="42.0019188" lon="19.5240579"><ele>10.666666666666666</ele><time>2026-05-03T14:00:58.689Z</time></trkpt><trkpt lat="42.0021056" lon="19.5239774"><ele>11.0</ele><time>2026-05-03T14:00:59.689Z</time></trkpt><trkpt lat="42.0022928" lon="19.5239028"><ele>11.0</ele><time>2026-05-03T14:01:00.689Z</time></trkpt><trkpt lat="42.0024815" lon="19.5238276"><ele>11.0</ele><time>2026-05-03T14:01:01.689Z</time></trkpt><trkpt lat="42.0026714" lon="19.5237523"><ele>11.0</ele><time>2026-05-03T14:01:02.69Z</time></trkpt><trkpt lat="42.0028629" lon="19.5236845"><ele>10.333333333333332</ele><time>2026-05-03T14:01:03.69Z</time></trkpt><trkpt lat="42.0030561" lon="19.5236124"><ele>9.666666666666666</ele><time>2026-05-03T14:01:04.689Z</time></trkpt><trkpt lat="42.0032505" lon="19.5235426"><ele>9.0</ele><time>2026-05-03T14:01:05.69Z</time></trkpt><trkpt lat="42.0034442" lon="19.5234572"><ele>9.0</ele><time>2026-05-03T14:01:06.69Z</time></trkpt><trkpt lat="42.0036357" lon="19.5233889"><ele>9.0</ele><time>2026-05-03T14:01:07.689Z</time></trkpt><trkpt lat="42.0038273" lon="19.5233098"><ele>9.0</ele><time>2026-05-03T14:01:08.689Z</time></trkpt><trkpt lat="42.0040083" lon="19.5232467"><ele>9.0</ele><time>2026-05-03T14:01:09.689Z</time></trkpt><trkpt lat="42.004185" lon="19.5231871"><ele>9.0</ele><time>2026-05-03T14:01:10.689Z</time></trkpt><trkpt lat="42.0043545" lon="19.5231335"><ele>9.0</ele><time>2026-05-03T14:01:11.689Z</time></trkpt><trkpt lat="42.0045282" lon="19.5230775"><ele>9.0</ele><time>2026-05-03T14:01:12.69Z</time></trkpt><trkpt lat="42.0047039" lon="19.5230302"><ele>9.0</ele><time>2026-05-03T14:01:13.689Z</time></trkpt><trkpt lat="42.0048813" lon="19.5229773"><ele>9.0</ele><time>2026-05-03T14:01:14.69Z</time></trkpt><trkpt lat="42.0050627" lon="19.5229275"><ele>9.333333333333334</ele><time>2026-05-03T14:01:15.689Z</time></trkpt><trkpt lat="42.0052446" lon="19.5228761"><ele>9.666666666666668</ele><time>2026-05-03T14:01:16.69Z</time></trkpt><trkpt lat="42.0054249" lon="19.5228292"><ele>10.0</ele><time>2026-05-03T14:01:17.689Z</time></trkpt><trkpt lat="42.0056065" lon="19.5227725"><ele>10.0</ele><time>2026-05-03T14:01:18.689Z</time></trkpt><trkpt lat="42.0057921" lon="19.5227217"><ele>10.0</ele><time>2026-05-03T14:01:19.69Z</time></trkpt><trkpt lat="42.0059791" lon="19.5226663"><ele>10.0</ele><time>2026-05-03T14:01:20.69Z</time></trkpt><trkpt lat="42.0061579" lon="19.5226068"><ele>9.333333333333334</ele><time>2026-05-03T14:01:21.69Z</time></trkpt><trkpt lat="42.006346" lon="19.5225415"><ele>8.666666666666666</ele><time>2026-05-03T14:01:22.689Z</time></trkpt><trkpt lat="42.0065465" lon="19.5224595"><ele>8.0</ele><time>2026-05-03T14:01:23.69Z</time></trkpt><trkpt lat="42.006765" lon="19.5223612"><ele>8.0</ele><time>2026-05-03T14:01:24.69Z</time></trkpt><trkpt lat="42.0070037" lon="19.5222369"><ele>8.0</ele><time>2026-05-03T14:01:25.69Z</time></trkpt><trkpt lat="42.0072576" lon="19.5220961"><ele>8.0</ele><time>2026-05-03T14:01:26.689Z</time></trkpt><trkpt lat="42.0075128" lon="19.5219425"><ele>8.0</ele><time>2026-05-03T14:01:27.69Z</time></trkpt><trkpt lat="42.0077707" lon="19.5217791"><ele>8.0</ele><time>2026-05-03T14:01:28.689Z</time></trkpt><trkpt lat="42.0080235" lon="19.521607"><ele>8.0</ele><time>2026-05-03T14:01:29.689Z</time></trkpt><trkpt lat="42.0082766" lon="19.5214036"><ele>8.5</ele><time>2026-05-03T14:01:30.689Z</time></trkpt><trkpt lat="42.0085085" lon="19.521205"><ele>9.0</ele><time>2026-05-03T14:01:31.69Z</time></trkpt><trkpt lat="42.0087244" lon="19.5209961"><ele>9.0</ele><time>2026-05-03T14:01:32.689Z</time></trkpt><trkpt lat="42.0089334" lon="19.5207423"><ele>9.0</ele><time>2026-05-03T14:01:33.69Z</time></trkpt><trkpt lat="42.0091381" lon="19.5205002"><ele>9.0</ele><time>2026-05-03T14:01:34.689Z</time></trkpt><trkpt lat="42.0093349" lon="19.5202646"><ele>9.0</ele><time>2026-05-03T14:01:35.689Z</time></trkpt><trkpt lat="42.0095335" lon="19.5200272"><ele>9.0</ele><time>2026-05-03T14:01:36.689Z</time></trkpt><trkpt lat="42.0097284" lon="19.5197854"><ele>9.0</ele><time>2026-05-03T14:01:37.689Z</time></trkpt><trkpt lat="42.0099207" lon="19.5195393"><ele>8.0</ele><time>2026-05-03T14:01:38.689Z</time></trkpt><trkpt lat="42.0101129" lon="19.5192844"><ele>7.0</ele><time>2026-05-03T14:01:39.69Z</time></trkpt><trkpt lat="42.0103025" lon="19.5190475"><ele>7.0</ele><time>2026-05-03T14:01:40.69Z</time></trkpt><trkpt lat="42.0104874" lon="19.5188199"><ele>7.0</ele><time>2026-05-03T14:01:41.69Z</time></trkpt><trkpt lat="42.0106618" lon="19.518611"><ele>7.666666666666667</ele><time>2026-05-03T14:01:42.689Z</time></trkpt><trkpt lat="42.0108316" lon="19.5184163"><ele>8.333333333333334</ele><time>2026-05-03T14:01:43.69Z</time></trkpt><trkpt lat="42.0109961" lon="19.5182373"><ele>9.0</ele><time>2026-05-03T14:01:44.69Z</time></trkpt><trkpt lat="42.0111598" lon="19.5180665"><ele>9.0</ele><time>2026-05-03T14:01:45.69Z</time></trkpt><trkpt lat="42.0113226" lon="19.5179042"><ele>9.0</ele><time>2026-05-03T14:01:46.69Z</time></trkpt><trkpt lat="42.0114883" lon="19.5177555"><ele>9.0</ele><time>2026-05-03T14:01:47.689Z</time></trkpt><trkpt lat="42.0116557" lon="19.517616"><ele>9.0</ele><time>2026-05-03T14:01:48.69Z</time></trkpt><trkpt lat="42.0118272" lon="19.51749"><ele>9.0</ele><time>2026-05-03T14:01:49.689Z</time></trkpt><trkpt lat="42.0119956" lon="19.5173754"><ele>9.0</ele><time>2026-05-03T14:01:50.689Z</time></trkpt><trkpt lat="42.0121533" lon="19.5172747"><ele>9.0</ele><time>2026-05-03T14:01:51.69Z</time></trkpt><trkpt lat="42.0123021" lon="19.5171878"><ele>9.0</ele><time>2026-05-03T14:01:52.689Z</time></trkpt><trkpt lat="42.0124402" lon="19.5171106"><ele>9.0</ele><time>2026-05-03T14:01:53.69Z</time></trkpt><trkpt lat="42.0125666" lon="19.5170422"><ele>9.0</ele><time>2026-05-03T14:01:54.69Z</time></trkpt><trkpt lat="42.0126826" lon="19.5169862"><ele>8.5</ele><time>2026-05-03T14:01:55.689Z</time></trkpt><trkpt lat="42.0128025" lon="19.5169278"><ele>8.0</ele><time>2026-05-03T14:01:56.689Z</time></trkpt><trkpt lat="42.0129369" lon="19.5168766"><ele>7.5</ele><time>2026-05-03T14:01:57.69Z</time></trkpt><trkpt lat="42.0130773" lon="19.5168365"><ele>7.0</ele><time>2026-05-03T14:01:58.689Z</time></trkpt><trkpt lat="42.0132385" lon="19.516789"><ele>8.0</ele><time>2026-05-03T14:01:59.69Z</time></trkpt><trkpt lat="42.013408" lon="19.5167498"><ele>9.0</ele><time>2026-05-03T14:02:00.689Z</time></trkpt><trkpt lat="42.0135778" lon="19.5167107"><ele>10.0</ele><time>2026-05-03T14:02:01.689Z</time></trkpt><trkpt lat="42.0137579" lon="19.5166831"><ele>10.0</ele><time>2026-05-03T14:02:02.689Z</time></trkpt><trkpt lat="42.0139396" lon="19.5166621"><ele>10.0</ele><time>2026-05-03T14:02:03.689Z</time></trkpt><trkpt lat="42.0141208" lon="19.5166578"><ele>10.0</ele><time>2026-05-03T14:02:04.69Z</time></trkpt><trkpt lat="42.0142958" lon="19.5166513"><ele>11.666666666666668</ele><time>2026-05-03T14:02:05.69Z</time></trkpt><trkpt lat="42.0144728" lon="19.5166562"><ele>13.333333333333334</ele><time>2026-05-03T14:02:06.69Z</time></trkpt><trkpt lat="42.0146471" lon="19.5166594"><ele>15.0</ele><time>2026-05-03T14:02:07.69Z</time></trkpt><trkpt lat="42.0148228" lon="19.5166697"><ele>15.666666666666668</ele><time>2026-05-03T14:02:08.69Z</time></trkpt><trkpt lat="42.0149931" lon="19.5166883"><ele>16.333333333333336</ele><time>2026-05-03T14:02:09.69Z</time></trkpt><trkpt lat="42.0151556" lon="19.5167049"><ele>17.0</ele><time>2026-05-03T14:02:10.689Z</time></trkpt><trkpt lat="42.0153034" lon="19.5167304"><ele>17.0</ele><time>2026-05-03T14:02:11.69Z</time></trkpt><trkpt lat="42.0154505" lon="19.516747"><ele>17.0</ele><time>2026-05-03T14:02:12.69Z</time></trkpt><trkpt lat="42.0155912" lon="19.5167535"><ele>17.0</ele><time>2026-05-03T14:02:13.69Z</time></trkpt><trkpt lat="42.0157392" lon="19.5167629"><ele>17.0</ele><time>2026-05-03T14:02:14.689Z</time></trkpt><trkpt lat="42.0158928" lon="19.5167763"><ele>16.666666666666668</ele><time>2026-05-03T14:02:15.69Z</time></trkpt><trkpt lat="42.0160664" lon="19.5167882"><ele>16.333333333333332</ele><time>2026-05-03T14:02:16.69Z</time></trkpt><trkpt lat="42.0162513" lon="19.516801"><ele>16.0</ele><time>2026-05-03T14:02:17.69Z</time></trkpt><trkpt lat="42.0164487" lon="19.5168191"><ele>16.0</ele><time>2026-05-03T14:02:18.69Z</time></trkpt><trkpt lat="42.0166522" lon="19.5168362"><ele>16.0</ele><time>2026-05-03T14:02:19.689Z</time></trkpt><trkpt lat="42.0168627" lon="19.5168526"><ele>16.0</ele><time>2026-05-03T14:02:20.69Z</time></trkpt><trkpt lat="42.0170749" lon="19.5168716"><ele>16.0</ele><time>2026-05-03T14:02:21.69Z</time></trkpt><trkpt lat="42.0172801" lon="19.516887"><ele>16.0</ele><time>2026-05-03T14:02:22.689Z</time></trkpt><trkpt lat="42.0174905" lon="19.5169035"><ele>16.0</ele><time>2026-05-03T14:02:23.689Z</time></trkpt><trkpt lat="42.0176961" lon="19.5169188"><ele>16.0</ele><time>2026-05-03T14:02:24.69Z</time></trkpt><trkpt lat="42.0179038" lon="19.5169221"><ele>16.0</ele><time>2026-05-03T14:02:25.69Z</time></trkpt><trkpt lat="42.0181092" lon="19.5169325"><ele>16.0</ele><time>2026-05-03T14:02:26.69Z</time></trkpt><trkpt lat="42.0183033" lon="19.5169572"><ele>17.333333333333332</ele><time>2026-05-03T14:02:27.69Z</time></trkpt><trkpt lat="42.0184936" lon="19.5169827"><ele>18.666666666666668</ele><time>2026-05-03T14:02:28.69Z</time></trkpt><trkpt lat="42.0186775" lon="19.5170056"><ele>20.0</ele><time>2026-05-03T14:02:29.689Z</time></trkpt><trkpt lat="42.0188597" lon="19.5170421"><ele>17.0</ele><time>2026-05-03T14:02:30.69Z</time></trkpt><trkpt lat="42.0190498" lon="19.5170944"><ele>14.0</ele><time>2026-05-03T14:02:31.689Z</time></trkpt><trkpt lat="42.0192336" lon="19.5171589"><ele>11.0</ele><time>2026-05-03T14:02:32.69Z</time></trkpt><trkpt lat="42.0194286" lon="19.5172274"><ele>11.0</ele><time>2026-05-03T14:02:33.689Z</time></trkpt><trkpt lat="42.0196246" lon="19.5173097"><ele>11.0</ele><time>2026-05-03T14:02:34.69Z</time></trkpt><trkpt lat="42.0198234" lon="19.5173918"><ele>11.0</ele><time>2026-05-03T14:02:35.69Z</time></trkpt><trkpt lat="42.0200198" lon="19.517488"><ele>10.666666666666666</ele><time>2026-05-03T14:02:36.689Z</time></trkpt><trkpt lat="42.0202186" lon="19.5175747"><ele>10.333333333333334</ele><time>2026-05-03T14:02:37.689Z</time></trkpt><trkpt lat="42.0204263" lon="19.5176606"><ele>10.0</ele><time>2026-05-03T14:02:38.689Z</time></trkpt><trkpt lat="42.0206267" lon="19.5177365"><ele>11.666666666666668</ele><time>2026-05-03T14:02:39.69Z</time></trkpt><trkpt lat="42.0208351" lon="19.5177972"><ele>13.333333333333334</ele><time>2026-05-03T14:02:40.689Z</time></trkpt><trkpt lat="42.0210359" lon="19.517845"><ele>15.0</ele><time>2026-05-03T14:02:41.689Z</time></trkpt><trkpt lat="42.0212341" lon="19.5178848"><ele>13.0</ele><time>2026-05-03T14:02:42.69Z</time></trkpt><trkpt lat="42.0214362" lon="19.5179235"><ele>11.0</ele><time>2026-05-03T14:02:43.69Z</time></trkpt><trkpt lat="42.0216368" lon="19.5179526"><ele>9.0</ele><time>2026-05-03T14:02:44.69Z</time></trkpt><trkpt lat="42.0218282" lon="19.5179824"><ele>9.0</ele><time>2026-05-03T14:02:45.689Z</time></trkpt><trkpt lat="42.0220221" lon="19.5180184"><ele>9.0</ele><time>2026-05-03T14:02:46.689Z</time></trkpt><trkpt lat="42.0222133" lon="19.5180527"><ele>9.0</ele><time>2026-05-03T14:02:47.69Z</time></trkpt><trkpt lat="42.0224019" lon="19.5181125"><ele>8.666666666666666</ele><time>2026-05-03T14:02:48.689Z</time></trkpt><trkpt lat="42.0225865" lon="19.5181877"><ele>8.333333333333332</ele><time>2026-05-03T14:02:49.689Z</time></trkpt><trkpt lat="42.0227613" lon="19.5182605"><ele>8.0</ele><time>2026-05-03T14:02:50.689Z</time></trkpt><trkpt lat="42.0229318" lon="19.5183313"><ele>8.0</ele><time>2026-05-03T14:02:51.69Z</time></trkpt><trkpt lat="42.0230905" lon="19.5184118"><ele>8.0</ele><time>2026-05-03T14:02:52.689Z</time></trkpt><trkpt lat="42.0232393" lon="19.5184812"><ele>8.0</ele><time>2026-05-03T14:02:53.689Z</time></trkpt><trkpt lat="42.0233927" lon="19.5185496"><ele>10.0</ele><time>2026-05-03T14:02:54.69Z</time></trkpt><trkpt lat="42.0235497" lon="19.5186079"><ele>12.0</ele><time>2026-05-03T14:02:55.689Z</time></trkpt><trkpt lat="42.0237067" lon="19.5186604"><ele>14.0</ele><time>2026-05-03T14:02:56.69Z</time></trkpt><trkpt lat="42.0238664" lon="19.5187123"><ele>12.666666666666668</ele><time>2026-05-03T14:02:57.69Z</time></trkpt><trkpt lat="42.0240343" lon="19.5187556"><ele>11.333333333333334</ele><time>2026-05-03T14:02:58.69Z</time></trkpt><trkpt lat="42.0242053" lon="19.5187945"><ele>10.0</ele><time>2026-05-03T14:02:59.689Z</time></trkpt><trkpt lat="42.0243774" lon="19.5188289"><ele>9.333333333333334</ele><time>2026-05-03T14:03:00.69Z</time></trkpt><trkpt lat="42.0245483" lon="19.5188614"><ele>8.666666666666666</ele><time>2026-05-03T14:03:01.69Z</time></trkpt><trkpt lat="42.0247239" lon="19.5188832"><ele>8.0</ele><time>2026-05-03T14:03:02.69Z</time></trkpt><trkpt lat="42.0248905" lon="19.5188814"><ele>10.0</ele><time>2026-05-03T14:03:03.69Z</time></trkpt><trkpt lat="42.025059" lon="19.5188615"><ele>12.0</ele><time>2026-05-03T14:03:04.69Z</time></trkpt><trkpt lat="42.0252299" lon="19.518806"><ele>14.0</ele><time>2026-05-03T14:03:05.689Z</time></trkpt><trkpt lat="42.0253858" lon="19.5187239"><ele>18.333333333333336</ele><time>2026-05-03T14:03:06.69Z</time></trkpt><trkpt lat="42.0255376" lon="19.5186179"><ele>22.666666666666668</ele><time>2026-05-03T14:03:07.689Z</time></trkpt><trkpt lat="42.0256813" lon="19.5184841"><ele>27.0</ele><time>2026-05-03T14:03:08.69Z</time></trkpt><trkpt lat="42.025809" lon="19.5183263"><ele>27.333333333333336</ele><time>2026-05-03T14:03:09.69Z</time></trkpt><trkpt lat="42.0259197" lon="19.5181569"><ele>27.666666666666668</ele><time>2026-05-03T14:03:10.689Z</time></trkpt><trkpt lat="42.0260207" lon="19.5179852"><ele>28.0</ele><time>2026-05-03T14:03:11.689Z</time></trkpt><trkpt lat="42.0261079" lon="19.5178088"><ele>28.0</ele><time>2026-05-03T14:03:12.689Z</time></trkpt><trkpt lat="42.0261982" lon="19.5176217"><ele>28.0</ele><time>2026-05-03T14:03:13.689Z</time></trkpt><trkpt lat="42.026285" lon="19.517435"><ele>28.0</ele><time>2026-05-03T14:03:14.689Z</time></trkpt><trkpt lat="42.0263684" lon="19.5172497"><ele>27.0</ele><time>2026-05-03T14:03:15.689Z</time></trkpt><trkpt lat="42.0264507" lon="19.5170673"><ele>26.0</ele><time>2026-05-03T14:03:16.69Z</time></trkpt><trkpt lat="42.0265331" lon="19.5168931"><ele>25.0</ele><time>2026-05-03T14:03:17.689Z</time></trkpt><trkpt lat="42.0266113" lon="19.5167144"><ele>20.333333333333336</ele><time>2026-05-03T14:03:18.69Z</time></trkpt><trkpt lat="42.0266935" lon="19.5165338"><ele>15.666666666666668</ele><time>2026-05-03T14:03:19.689Z</time></trkpt><trkpt lat="42.0267717" lon="19.5163513"><ele>11.0</ele><time>2026-05-03T14:03:20.689Z</time></trkpt><trkpt lat="42.0268483" lon="19.5161615"><ele>11.0</ele><time>2026-05-03T14:03:21.69Z</time></trkpt><trkpt lat="42.0269272" lon="19.5159631"><ele>11.0</ele><time>2026-05-03T14:03:22.689Z</time></trkpt><trkpt lat="42.0270132" lon="19.5157443"><ele>11.0</ele><time>2026-05-03T14:03:23.689Z</time></trkpt><trkpt lat="42.0271062" lon="19.5155113"><ele>10.333333333333332</ele><time>2026-05-03T14:03:24.69Z</time></trkpt><trkpt lat="42.027206" lon="19.5152592"><ele>9.666666666666666</ele><time>2026-05-03T14:03:25.69Z</time></trkpt><trkpt lat="42.0273078" lon="19.5150066"><ele>9.0</ele><time>2026-05-03T14:03:26.69Z</time></trkpt><trkpt lat="42.027409" lon="19.5147692"><ele>9.0</ele><time>2026-05-03T14:03:27.69Z</time></trkpt><trkpt lat="42.0275077" lon="19.5145367"><ele>9.0</ele><time>2026-05-03T14:03:28.689Z</time></trkpt><trkpt lat="42.0276102" lon="19.5143088"><ele>9.0</ele><time>2026-05-03T14:03:29.689Z</time></trkpt><trkpt lat="42.0277123" lon="19.5140947"><ele>9.0</ele><time>2026-05-03T14:03:30.69Z</time></trkpt><trkpt lat="42.0278158" lon="19.513886"><ele>9.0</ele><time>2026-05-03T14:03:31.69Z</time></trkpt><trkpt lat="42.0279243" lon="19.5136842"><ele>9.0</ele><time>2026-05-03T14:03:32.689Z</time></trkpt><trkpt lat="42.028025" lon="19.5134617"><ele>9.333333333333334</ele><time>2026-05-03T14:03:33.69Z</time></trkpt><trkpt lat="42.0281403" lon="19.5132658"><ele>9.666666666666668</ele><time>2026-05-03T14:03:34.69Z</time></trkpt><trkpt lat="42.0282626" lon="19.5130665"><ele>10.0</ele><time>2026-05-03T14:03:35.69Z</time></trkpt><trkpt lat="42.0283833" lon="19.5128732"><ele>10.0</ele><time>2026-05-03T14:03:36.689Z</time></trkpt><trkpt lat="42.028508" lon="19.5126882"><ele>10.0</ele><time>2026-05-03T14:03:37.689Z</time></trkpt><trkpt lat="42.0286384" lon="19.5125003"><ele>10.0</ele><time>2026-05-03T14:03:38.69Z</time></trkpt><trkpt lat="42.0287685" lon="19.5123137"><ele>10.0</ele><time>2026-05-03T14:03:39.69Z</time></trkpt><trkpt lat="42.0289068" lon="19.5121428"><ele>10.0</ele><time>2026-05-03T14:03:40.689Z</time></trkpt><trkpt lat="42.0290498" lon="19.5119769"><ele>10.0</ele><time>2026-05-03T14:03:41.689Z</time></trkpt><trkpt lat="42.029196" lon="19.5118122"><ele>9.333333333333334</ele><time>2026-05-03T14:03:42.689Z</time></trkpt><trkpt lat="42.0293329" lon="19.511658"><ele>8.666666666666666</ele><time>2026-05-03T14:03:43.689Z</time></trkpt><trkpt lat="42.0294781" lon="19.5115022"><ele>8.0</ele><time>2026-05-03T14:03:44.69Z</time></trkpt><trkpt lat="42.029614" lon="19.5113418"><ele>8.0</ele><time>2026-05-03T14:03:45.689Z</time></trkpt><trkpt lat="42.0297477" lon="19.5111793"><ele>8.0</ele><time>2026-05-03T14:03:46.689Z</time></trkpt><trkpt lat="42.0298743" lon="19.5110173"><ele>8.0</ele><time>2026-05-03T14:03:47.689Z</time></trkpt><trkpt lat="42.0299995" lon="19.5108502"><ele>8.0</ele><time>2026-05-03T14:03:48.69Z</time></trkpt><trkpt lat="42.0301129" lon="19.5106793"><ele>8.0</ele><time>2026-05-03T14:03:49.689Z</time></trkpt><trkpt lat="42.03022" lon="19.5105011"><ele>8.0</ele><time>2026-05-03T14:03:50.69Z</time></trkpt><trkpt lat="42.0303194" lon="19.5103217"><ele>10.666666666666666</ele><time>2026-05-03T14:03:51.689Z</time></trkpt><trkpt lat="42.0304164" lon="19.5101422"><ele>13.333333333333332</ele><time>2026-05-03T14:03:52.689Z</time></trkpt><trkpt lat="42.0305029" lon="19.5099534"><ele>16.0</ele><time>2026-05-03T14:03:53.69Z</time></trkpt><trkpt lat="42.0305812" lon="19.5097644"><ele>16.0</ele><time>2026-05-03T14:03:54.69Z</time></trkpt><trkpt lat="42.0306618" lon="19.5095755"><ele>16.0</ele><time>2026-05-03T14:03:55.689Z</time></trkpt><trkpt lat="42.0307179" lon="19.509412"><ele>16.0</ele><time>2026-05-03T14:03:56.689Z</time></trkpt><trkpt lat="42.0307686" lon="19.509255"><ele>16.0</ele><time>2026-05-03T14:03:57.689Z</time></trkpt><trkpt lat="42.0308115" lon="19.5091105"><ele>15.25</ele><time>2026-05-03T14:03:58.69Z</time></trkpt><trkpt lat="42.0308532" lon="19.5089555"><ele>14.5</ele><time>2026-05-03T14:03:59.69Z</time></trkpt><trkpt lat="42.0309024" lon="19.5088024"><ele>13.75</ele><time>2026-05-03T14:04:00.689Z</time></trkpt><trkpt lat="42.0309488" lon="19.5086297"><ele>13.0</ele><time>2026-05-03T14:04:01.69Z</time></trkpt><trkpt lat="42.0309899" lon="19.5084637"><ele>13.0</ele><time>2026-05-03T14:04:02.689Z</time></trkpt><trkpt lat="42.0310351" lon="19.5082906"><ele>13.0</ele><time>2026-05-03T14:04:03.689Z</time></trkpt><trkpt lat="42.0310832" lon="19.5081133"><ele>13.0</ele><time>2026-05-03T14:04:04.69Z</time></trkpt><trkpt lat="42.0311361" lon="19.5079236"><ele>13.0</ele><time>2026-05-03T14:04:05.689Z</time></trkpt><trkpt lat="42.0311872" lon="19.5077339"><ele>15.666666666666666</ele><time>2026-05-03T14:04:06.69Z</time></trkpt><trkpt lat="42.0312509" lon="19.5075373"><ele>18.333333333333332</ele><time>2026-05-03T14:04:07.689Z</time></trkpt><trkpt lat="42.0313032" lon="19.5073369"><ele>21.0</ele><time>2026-05-03T14:04:08.69Z</time></trkpt><trkpt lat="42.0313561" lon="19.5071317"><ele>21.666666666666668</ele><time>2026-05-03T14:04:09.69Z</time></trkpt><trkpt lat="42.0314119" lon="19.506931"><ele>22.333333333333336</ele><time>2026-05-03T14:04:10.69Z</time></trkpt><trkpt lat="42.0314644" lon="19.5067342"><ele>23.0</ele><time>2026-05-03T14:04:11.689Z</time></trkpt><trkpt lat="42.0315055" lon="19.5065409"><ele>23.0</ele><time>2026-05-03T14:04:12.69Z</time></trkpt><trkpt lat="42.0315456" lon="19.5063387"><ele>23.0</ele><time>2026-05-03T14:04:13.69Z</time></trkpt><trkpt lat="42.0315839" lon="19.5061155"><ele>23.0</ele><time>2026-05-03T14:04:14.69Z</time></trkpt><trkpt lat="42.0316057" lon="19.505907"><ele>21.666666666666668</ele><time>2026-05-03T14:04:15.689Z</time></trkpt><trkpt lat="42.0316245" lon="19.5057031"><ele>20.333333333333332</ele><time>2026-05-03T14:04:16.689Z</time></trkpt><trkpt lat="42.0316398" lon="19.5055069"><ele>19.0</ele><time>2026-05-03T14:04:17.69Z</time></trkpt><trkpt lat="42.031657" lon="19.5053023"><ele>16.0</ele><time>2026-05-03T14:04:18.69Z</time></trkpt><trkpt lat="42.0316634" lon="19.5051197"><ele>13.0</ele><time>2026-05-03T14:04:19.69Z</time></trkpt><trkpt lat="42.0316691" lon="19.5049485"><ele>10.0</ele><time>2026-05-03T14:04:20.689Z</time></trkpt><trkpt lat="42.0316754" lon="19.5047916"><ele>7.0</ele><time>2026-05-03T14:04:21.689Z</time></trkpt><trkpt lat="42.0316643" lon="19.5046244"><ele>7.25</ele><time>2026-05-03T14:04:22.689Z</time></trkpt><trkpt lat="42.0316669" lon="19.5044724"><ele>7.5</ele><time>2026-05-03T14:04:23.689Z</time></trkpt><trkpt lat="42.0316825" lon="19.5043249"><ele>7.75</ele><time>2026-05-03T14:04:24.689Z</time></trkpt><trkpt lat="42.0317028" lon="19.5041775"><ele>8.0</ele><time>2026-05-03T14:04:25.689Z</time></trkpt><trkpt lat="42.0317318" lon="19.5040281"><ele>8.0</ele><time>2026-05-03T14:04:26.689Z</time></trkpt><trkpt lat="42.0317661" lon="19.5038926"><ele>8.0</ele><time>2026-05-03T14:04:27.69Z</time></trkpt><trkpt lat="42.0318096" lon="19.5037618"><ele>8.0</ele><time>2026-05-03T14:04:28.689Z</time></trkpt><trkpt lat="42.0318677" lon="19.5036469"><ele>8.0</ele><time>2026-05-03T14:04:29.69Z</time></trkpt><trkpt lat="42.0319185" lon="19.5035445"><ele>8.0</ele><time>2026-05-03T14:04:30.689Z</time></trkpt><trkpt lat="42.0319699" lon="19.5034485"><ele>7.800000000000001</ele><time>2026-05-03T14:04:31.69Z</time></trkpt><trkpt lat="42.0320311" lon="19.5033599"><ele>7.6000000000000005</ele><time>2026-05-03T14:04:32.69Z</time></trkpt><trkpt lat="42.032094" lon="19.5032699"><ele>7.3999999999999995</ele><time>2026-05-03T14:04:33.69Z</time></trkpt><trkpt lat="42.0321704" lon="19.5031791"><ele>7.199999999999999</ele><time>2026-05-03T14:04:34.69Z</time></trkpt><trkpt lat="42.0322517" lon="19.5030797"><ele>7.0</ele><time>2026-05-03T14:04:35.689Z</time></trkpt><trkpt lat="42.0323483" lon="19.502976"><ele>7.0</ele><time>2026-05-03T14:04:36.69Z</time></trkpt><trkpt lat="42.0324479" lon="19.5028673"><ele>7.0</ele><time>2026-05-03T14:04:37.689Z</time></trkpt><trkpt lat="42.0325681" lon="19.5027535"><ele>7.0</ele><time>2026-05-03T14:04:38.689Z</time></trkpt><trkpt lat="42.032701" lon="19.5026346"><ele>7.0</ele><time>2026-05-03T14:04:39.69Z</time></trkpt><trkpt lat="42.032847" lon="19.5024958"><ele>7.333333333333334</ele><time>2026-05-03T14:04:40.689Z</time></trkpt><trkpt lat="42.032995" lon="19.5023691"><ele>7.666666666666666</ele><time>2026-05-03T14:04:41.689Z</time></trkpt><trkpt lat="42.0331455" lon="19.502236"><ele>8.0</ele><time>2026-05-03T14:04:42.689Z</time></trkpt><trkpt lat="42.0332942" lon="19.5020956"><ele>7.666666666666666</ele><time>2026-05-03T14:04:43.69Z</time></trkpt><trkpt lat="42.033449" lon="19.5019494"><ele>7.333333333333334</ele><time>2026-05-03T14:04:44.69Z</time></trkpt><trkpt lat="42.0336066" lon="19.5018112"><ele>7.0</ele><time>2026-05-03T14:04:45.689Z</time></trkpt><trkpt lat="42.0337658" lon="19.501669"><ele>7.0</ele><time>2026-05-03T14:04:46.69Z</time></trkpt><trkpt lat="42.0339218" lon="19.5015256"><ele>7.0</ele><time>2026-05-03T14:04:47.689Z</time></trkpt><trkpt lat="42.0340819" lon="19.5013837"><ele>7.0</ele><time>2026-05-03T14:04:48.689Z</time></trkpt><trkpt lat="42.0342462" lon="19.5012373"><ele>6.666666666666667</ele><time>2026-05-03T14:04:49.69Z</time></trkpt><trkpt lat="42.0344137" lon="19.501084"><ele>6.333333333333334</ele><time>2026-05-03T14:04:50.69Z</time></trkpt><trkpt lat="42.0345856" lon="19.5009333"><ele>6.0</ele><time>2026-05-03T14:04:51.69Z</time></trkpt><trkpt lat="42.0347561" lon="19.5007829"><ele>6.0</ele><time>2026-05-03T14:04:52.69Z</time></trkpt><trkpt lat="42.0349252" lon="19.5006332"><ele>6.0</ele><time>2026-05-03T14:04:53.69Z</time></trkpt><trkpt lat="42.035093" lon="19.5004799"><ele>6.0</ele><time>2026-05-03T14:04:54.69Z</time></trkpt><trkpt lat="42.0352676" lon="19.5003319"><ele>6.333333333333334</ele><time>2026-05-03T14:04:55.689Z</time></trkpt><trkpt lat="42.0354316" lon="19.5001941"><ele>6.666666666666667</ele><time>2026-05-03T14:04:56.69Z</time></trkpt><trkpt lat="42.0355945" lon="19.5000564"><ele>7.0</ele><time>2026-05-03T14:04:57.689Z</time></trkpt><trkpt lat="42.0357586" lon="19.4999081"><ele>7.333333333333334</ele><time>2026-05-03T14:04:58.69Z</time></trkpt><trkpt lat="42.0359201" lon="19.4997734"><ele>7.666666666666666</ele><time>2026-05-03T14:04:59.69Z</time></trkpt><trkpt lat="42.0360664" lon="19.4996377"><ele>8.0</ele><time>2026-05-03T14:05:00.69Z</time></trkpt><trkpt lat="42.0362215" lon="19.4994946"><ele>8.666666666666666</ele><time>2026-05-03T14:05:01.689Z</time></trkpt><trkpt lat="42.0363684" lon="19.4993568"><ele>9.333333333333334</ele><time>2026-05-03T14:05:02.689Z</time></trkpt><trkpt lat="42.0365215" lon="19.4992191"><ele>10.0</ele><time>2026-05-03T14:05:03.689Z</time></trkpt><trkpt lat="42.0366766" lon="19.4990869"><ele>10.0</ele><time>2026-05-03T14:05:04.69Z</time></trkpt><trkpt lat="42.0368251" lon="19.4989528"><ele>10.0</ele><time>2026-05-03T14:05:05.69Z</time></trkpt><trkpt lat="42.0369716" lon="19.4988198"><ele>10.0</ele><time>2026-05-03T14:05:06.69Z</time></trkpt><trkpt lat="42.0371187" lon="19.4986875"><ele>10.0</ele><time>2026-05-03T14:05:07.69Z</time></trkpt><trkpt lat="42.0372592" lon="19.4985505"><ele>10.0</ele><time>2026-05-03T14:05:08.689Z</time></trkpt><trkpt lat="42.0373936" lon="19.4984277"><ele>10.0</ele><time>2026-05-03T14:05:09.69Z</time></trkpt><trkpt lat="42.0375295" lon="19.4982922"><ele>10.0</ele><time>2026-05-03T14:05:10.689Z</time></trkpt><trkpt lat="42.0376616" lon="19.4981566"><ele>10.0</ele><time>2026-05-03T14:05:11.689Z</time></trkpt><trkpt lat="42.0377836" lon="19.4980295"><ele>10.0</ele><time>2026-05-03T14:05:12.69Z</time></trkpt><trkpt lat="42.0378915" lon="19.4979029"><ele>10.0</ele><time>2026-05-03T14:05:13.689Z</time></trkpt><trkpt lat="42.0380042" lon="19.4977761"><ele>10.0</ele><time>2026-05-03T14:05:14.69Z</time></trkpt><trkpt lat="42.0381095" lon="19.4976513"><ele>10.0</ele><time>2026-05-03T14:05:15.69Z</time></trkpt><trkpt lat="42.0382158" lon="19.4975291"><ele>10.0</ele><time>2026-05-03T14:05:16.69Z</time></trkpt><trkpt lat="42.0383169" lon="19.4974056"><ele>10.25</ele><time>2026-05-03T14:05:17.69Z</time></trkpt><trkpt lat="42.0384168" lon="19.4972828"><ele>10.5</ele><time>2026-05-03T14:05:18.69Z</time></trkpt><trkpt lat="42.0385128" lon="19.4971656"><ele>10.75</ele><time>2026-05-03T14:05:19.689Z</time></trkpt><trkpt lat="42.0386048" lon="19.497056"><ele>11.0</ele><time>2026-05-03T14:05:20.69Z</time></trkpt><trkpt lat="42.0386991" lon="19.4969521"><ele>10.600000000000001</ele><time>2026-05-03T14:05:21.689Z</time></trkpt><trkpt lat="42.0387987" lon="19.4968853"><ele>10.200000000000001</ele><time>2026-05-03T14:05:22.689Z</time></trkpt><trkpt lat="42.0388848" lon="19.4968085"><ele>9.8</ele><time>2026-05-03T14:05:23.689Z</time></trkpt><trkpt lat="42.0389514" lon="19.496724"><ele>9.4</ele><time>2026-05-03T14:05:24.689Z</time></trkpt><trkpt lat="42.0390104" lon="19.4966196"><ele>9.0</ele><time>2026-05-03T14:05:25.69Z</time></trkpt><trkpt lat="42.0390764" lon="19.4964893"><ele>9.0</ele><time>2026-05-03T14:05:26.69Z</time></trkpt><trkpt lat="42.0391585" lon="19.4963661"><ele>9.0</ele><time>2026-05-03T14:05:27.69Z</time></trkpt><trkpt lat="42.0392584" lon="19.4962338"><ele>9.0</ele><time>2026-05-03T14:05:28.69Z</time></trkpt><trkpt lat="42.0393741" lon="19.4960853"><ele>9.0</ele><time>2026-05-03T14:05:29.69Z</time></trkpt><trkpt lat="42.0395027" lon="19.4959538"><ele>8.666666666666666</ele><time>2026-05-03T14:05:30.69Z</time></trkpt><trkpt lat="42.0396255" lon="19.4958052"><ele>8.333333333333332</ele><time>2026-05-03T14:05:31.69Z</time></trkpt><trkpt lat="42.0397473" lon="19.4956572"><ele>8.0</ele><time>2026-05-03T14:05:32.689Z</time></trkpt><trkpt lat="42.0398745" lon="19.4955106"><ele>8.0</ele><time>2026-05-03T14:05:33.69Z</time></trkpt><trkpt lat="42.0400013" lon="19.4953553"><ele>8.0</ele><time>2026-05-03T14:05:34.689Z</time></trkpt><trkpt lat="42.0401256" lon="19.4952066"><ele>8.0</ele><time>2026-05-03T14:05:35.69Z</time></trkpt><trkpt lat="42.0402465" lon="19.4950559"><ele>8.0</ele><time>2026-05-03T14:05:36.689Z</time></trkpt><trkpt lat="42.0403619" lon="19.4949155"><ele>8.0</ele><time>2026-05-03T14:05:37.69Z</time></trkpt><trkpt lat="42.04047" lon="19.4947766"><ele>8.0</ele><time>2026-05-03T14:05:38.689Z</time></trkpt><trkpt lat="42.0405774" lon="19.4946354"><ele>8.25</ele><time>2026-05-03T14:05:39.689Z</time></trkpt><trkpt lat="42.0406824" lon="19.4944944"><ele>8.5</ele><time>2026-05-03T14:05:40.689Z</time></trkpt><trkpt lat="42.0407837" lon="19.4943513"><ele>8.75</ele><time>2026-05-03T14:05:41.689Z</time></trkpt><trkpt lat="42.0408765" lon="19.4942149"><ele>9.0</ele><time>2026-05-03T14:05:42.689Z</time></trkpt><trkpt lat="42.0409699" lon="19.4940745"><ele>9.0</ele><time>2026-05-03T14:05:43.689Z</time></trkpt><trkpt lat="42.0410548" lon="19.4939511"><ele>9.0</ele><time>2026-05-03T14:05:44.689Z</time></trkpt><trkpt lat="42.0411261" lon="19.4938437"><ele>9.0</ele><time>2026-05-03T14:05:45.69Z</time></trkpt><trkpt lat="42.0411965" lon="19.4937501"><ele>9.0</ele><time>2026-05-03T14:05:46.69Z</time></trkpt><trkpt lat="42.0412622" lon="19.4936655"><ele>9.0</ele><time>2026-05-03T14:05:47.689Z</time></trkpt><trkpt lat="42.0413189" lon="19.4935823"><ele>8.4</ele><time>2026-05-03T14:05:48.689Z</time></trkpt><trkpt lat="42.0413678" lon="19.4935085"><ele>7.800000000000001</ele><time>2026-05-03T14:05:49.689Z</time></trkpt><trkpt lat="42.041431" lon="19.493413"><ele>7.199999999999999</ele><time>2026-05-03T14:05:51.689Z</time></trkpt><trkpt lat="42.04149" lon="19.493317"><ele>6.6</ele><time>2026-05-03T14:05:53.689Z</time></trkpt><trkpt lat="42.0415643" lon="19.4932256"><ele>6.0</ele><time>2026-05-03T14:05:55.69Z</time></trkpt><trkpt lat="42.0416296" lon="19.4931262"><ele>6.166666666666667</ele><time>2026-05-03T14:05:57.69Z</time></trkpt><trkpt lat="42.0416787" lon="19.4930428"><ele>6.333333333333334</ele><time>2026-05-03T14:05:59.69Z</time></trkpt><trkpt lat="42.0417447" lon="19.4929818"><ele>6.5</ele><time>2026-05-03T14:06:02.689Z</time></trkpt><trkpt lat="42.0418036" lon="19.4928955"><ele>6.666666666666667</ele><time>2026-05-03T14:06:04.69Z</time></trkpt><trkpt lat="42.0418806" lon="19.4927848"><ele>6.833333333333334</ele><time>2026-05-03T14:06:06.69Z</time></trkpt><trkpt lat="42.0419271" lon="19.492726"><ele>7.0</ele><time>2026-05-03T14:06:07.689Z</time></trkpt><trkpt lat="42.0419716" lon="19.4926639"><ele>7.000000000000001</ele><time>2026-05-03T14:06:08.689Z</time></trkpt><trkpt lat="42.0420478" lon="19.4925479"><ele>7.0</ele><time>2026-05-03T14:06:10.689Z</time></trkpt><trkpt lat="42.0420978" lon="19.4924838"><ele>7.0</ele><time>2026-05-03T14:06:11.69Z</time></trkpt><trkpt lat="42.0421472" lon="19.4924162"><ele>7.0</ele><time>2026-05-03T14:06:12.689Z</time></trkpt><trkpt lat="42.042199" lon="19.4923483"><ele>7.000000000000001</ele><time>2026-05-03T14:06:13.689Z</time></trkpt><trkpt lat="42.0422471" lon="19.4922888"><ele>7.0</ele><time>2026-05-03T14:06:14.69Z</time></trkpt><trkpt lat="42.0423238" lon="19.4921754"><ele>6.8</ele><time>2026-05-03T14:06:16.69Z</time></trkpt><trkpt lat="42.0423996" lon="19.492063"><ele>6.6</ele><time>2026-05-03T14:06:18.689Z</time></trkpt><trkpt lat="42.0424645" lon="19.4919601"><ele>6.3999999999999995</ele><time>2026-05-03T14:06:20.689Z</time></trkpt><trkpt lat="42.0425324" lon="19.491858"><ele>6.199999999999999</ele><time>2026-05-03T14:06:22.69Z</time></trkpt><trkpt lat="42.042605" lon="19.4917735"><ele>6.0</ele><time>2026-05-03T14:06:24.689Z</time></trkpt><trkpt lat="42.0426958" lon="19.4916507"><ele>6.0</ele><time>2026-05-03T14:06:26.689Z</time></trkpt><trkpt lat="42.0427643" lon="19.491573"><ele>6.0</ele><time>2026-05-03T14:06:27.69Z</time></trkpt><trkpt lat="42.0428442" lon="19.4915027"><ele>6.0</ele><time>2026-05-03T14:06:28.69Z</time></trkpt><trkpt lat="42.0429255" lon="19.4914381"><ele>6.0</ele><time>2026-05-03T14:06:29.69Z</time></trkpt><trkpt lat="42.0430116" lon="19.4913755"><ele>6.0</ele><time>2026-05-03T14:06:30.69Z</time></trkpt><trkpt lat="42.0431006" lon="19.4913118"><ele>6.166666666666667</ele><time>2026-05-03T14:06:31.69Z</time></trkpt><trkpt lat="42.043185" lon="19.4912443"><ele>6.333333333333334</ele><time>2026-05-03T14:06:32.689Z</time></trkpt><trkpt lat="42.0432642" lon="19.4911805"><ele>6.5</ele><time>2026-05-03T14:06:33.689Z</time></trkpt><trkpt lat="42.0433384" lon="19.491126"><ele>6.666666666666667</ele><time>2026-05-03T14:06:34.689Z</time></trkpt><trkpt lat="42.0434085" lon="19.4910737"><ele>6.833333333333334</ele><time>2026-05-03T14:06:35.69Z</time></trkpt><trkpt lat="42.0434678" lon="19.4910357"><ele>7.0</ele><time>2026-05-03T14:06:36.689Z</time></trkpt><trkpt lat="42.0435519" lon="19.4909852"><ele>7.0</ele><time>2026-05-03T14:06:38.689Z</time></trkpt><trkpt lat="42.0436196" lon="19.4909382"><ele>6.999999999999999</ele><time>2026-05-03T14:06:40.69Z</time></trkpt><trkpt lat="42.0437032" lon="19.4908789"><ele>6.999999999999999</ele><time>2026-05-03T14:06:42.69Z</time></trkpt><trkpt lat="42.0437542" lon="19.4908292"><ele>7.0</ele><time>2026-05-03T14:06:43.69Z</time></trkpt><trkpt lat="42.0438768" lon="19.4907508"><ele>7.0</ele><time>2026-05-03T14:06:45.69Z</time></trkpt><trkpt lat="42.0439648" lon="19.4906978"><ele>7.0</ele><time>2026-05-03T14:06:46.69Z</time></trkpt><trkpt lat="42.0440598" lon="19.4906315"><ele>7.0</ele><time>2026-05-03T14:06:47.689Z</time></trkpt><trkpt lat="42.0441559" lon="19.4905601"><ele>7.0</ele><time>2026-05-03T14:06:48.69Z</time></trkpt><trkpt lat="42.0442621" lon="19.4904877"><ele>7.0</ele><time>2026-05-03T14:06:49.69Z</time></trkpt><trkpt lat="42.0443614" lon="19.4904108"><ele>7.3999999999999995</ele><time>2026-05-03T14:06:50.689Z</time></trkpt><trkpt lat="42.0444652" lon="19.4903192"><ele>7.799999999999999</ele><time>2026-05-03T14:06:51.69Z</time></trkpt><trkpt lat="42.0445495" lon="19.4902584"><ele>8.2</ele><time>2026-05-03T14:06:52.69Z</time></trkpt><trkpt lat="42.0446346" lon="19.4901948"><ele>8.6</ele><time>2026-05-03T14:06:53.689Z</time></trkpt><trkpt lat="42.0447437" lon="19.4901216"><ele>9.0</ele><time>2026-05-03T14:06:55.689Z</time></trkpt><trkpt lat="42.0448264" lon="19.4900765"><ele>9.0</ele><time>2026-05-03T14:06:57.69Z</time></trkpt><trkpt lat="42.0449039" lon="19.4900357"><ele>9.0</ele><time>2026-05-03T14:07:01.689Z</time></trkpt><trkpt lat="42.0449872" lon="19.4899978"><ele>9.0</ele><time>2026-05-03T14:07:03.689Z</time></trkpt><trkpt lat="42.0450498" lon="19.4898831"><ele>9.0</ele><time>2026-05-03T14:07:05.689Z</time></trkpt><trkpt lat="42.0450646" lon="19.489737"><ele>9.0</ele><time>2026-05-03T14:07:07.689Z</time></trkpt><trkpt lat="42.0450785" lon="19.4895872"><ele>8.0</ele><time>2026-05-03T14:07:09.689Z</time></trkpt><trkpt lat="42.0450984" lon="19.4894951"><ele>7.0</ele><time>2026-05-03T14:07:10.69Z</time></trkpt><trkpt lat="42.0451248" lon="19.4894007"><ele>6.0</ele><time>2026-05-03T14:07:11.689Z</time></trkpt><trkpt lat="42.0451554" lon="19.4893058"><ele>5.0</ele><time>2026-05-03T14:07:12.689Z</time></trkpt><trkpt lat="42.045184" lon="19.4891994"><ele>4.0</ele><time>2026-05-03T14:07:13.69Z</time></trkpt><trkpt lat="42.0452162" lon="19.4890893"><ele>3.0</ele><time>2026-05-03T14:07:14.689Z</time></trkpt><trkpt lat="42.0452519" lon="19.4889678"><ele>3.0</ele><time>2026-05-03T14:07:15.689Z</time></trkpt><trkpt lat="42.045285" lon="19.4888444"><ele>3.0</ele><time>2026-05-03T14:07:16.69Z</time></trkpt><trkpt lat="42.0453181" lon="19.4887174"><ele>3.0</ele><time>2026-05-03T14:07:17.689Z</time></trkpt><trkpt lat="42.0453532" lon="19.488594"><ele>3.0</ele><time>2026-05-03T14:07:18.689Z</time></trkpt><trkpt lat="42.0453883" lon="19.4884721"><ele>3.0</ele><time>2026-05-03T14:07:19.69Z</time></trkpt><trkpt lat="42.0454296" lon="19.4883448"><ele>2.8</ele><time>2026-05-03T14:07:20.689Z</time></trkpt><trkpt lat="42.0454664" lon="19.4882195"><ele>2.5999999999999996</ele><time>2026-05-03T14:07:21.69Z</time></trkpt><trkpt lat="42.0455065" lon="19.4880937"><ele>2.4000000000000004</ele><time>2026-05-03T14:07:22.689Z</time></trkpt><trkpt lat="42.0455439" lon="19.4879682"><ele>2.2</ele><time>2026-05-03T14:07:23.69Z</time></trkpt><trkpt lat="42.0455837" lon="19.487836"><ele>2.0</ele><time>2026-05-03T14:07:24.69Z</time></trkpt><trkpt lat="42.0456239" lon="19.4876948"><ele>1.25</ele><time>2026-05-03T14:07:25.689Z</time></trkpt><trkpt lat="42.0456658" lon="19.4875565"><ele>0.5</ele><time>2026-05-03T14:07:26.69Z</time></trkpt><trkpt lat="42.0457074" lon="19.4874112"><ele>-0.25</ele><time>2026-05-03T14:07:27.689Z</time></trkpt><trkpt lat="42.0457512" lon="19.4872664"><ele>-1.0</ele><time>2026-05-03T14:07:28.69Z</time></trkpt><trkpt lat="42.0458197" lon="19.4871229"><ele>-1.4</ele><time>2026-05-03T14:07:29.69Z</time></trkpt><trkpt lat="42.0458652" lon="19.4869679"><ele>-1.8</ele><time>2026-05-03T14:07:30.69Z</time></trkpt><trkpt lat="42.0459007" lon="19.4868251"><ele>-2.1999999999999997</ele><time>2026-05-03T14:07:31.69Z</time></trkpt><trkpt lat="42.0459366" lon="19.4866889"><ele>-2.6</ele><time>2026-05-03T14:07:32.689Z</time></trkpt><trkpt lat="42.0459726" lon="19.4865558"><ele>-3.0</ele><time>2026-05-03T14:07:33.689Z</time></trkpt><trkpt lat="42.0460039" lon="19.4864447"><ele>-3.0</ele><time>2026-05-03T14:07:34.69Z</time></trkpt><trkpt lat="42.0460354" lon="19.4863311"><ele>-3.0</ele><time>2026-05-03T14:07:35.69Z</time></trkpt><trkpt lat="42.0460641" lon="19.4862358"><ele>-3.0</ele><time>2026-05-03T14:07:36.69Z</time></trkpt><trkpt lat="42.0460927" lon="19.4861405"><ele>-3.0</ele><time>2026-05-03T14:07:37.69Z</time></trkpt><trkpt lat="42.0461201" lon="19.4860474"><ele>-3.0</ele><time>2026-05-03T14:07:38.689Z</time></trkpt><trkpt lat="42.0461482" lon="19.4859666"><ele>-3.0</ele><time>2026-05-03T14:07:39.69Z</time></trkpt><trkpt lat="42.0461968" lon="19.4858298"><ele>-2.5</ele><time>2026-05-03T14:07:41.689Z</time></trkpt><trkpt lat="42.0462345" lon="19.4857369"><ele>-2.0</ele><time>2026-05-03T14:07:43.689Z</time></trkpt><trkpt lat="42.0462643" lon="19.4856471"><ele>-1.5</ele><time>2026-05-03T14:07:46.689Z</time></trkpt><trkpt lat="42.0462456" lon="19.4855387"><ele>-1.0</ele><time>2026-05-03T14:07:48.69Z</time></trkpt><trkpt lat="42.0461378" lon="19.4854391"><ele>-0.5</ele><time>2026-05-03T14:07:50.69Z</time></trkpt><trkpt lat="42.0460626" lon="19.4854008"><ele>0.0</ele><time>2026-05-03T14:07:51.69Z</time></trkpt><trkpt lat="42.0459679" lon="19.4853716"><ele>1.25</ele><time>2026-05-03T14:07:52.69Z</time></trkpt><trkpt lat="42.0458467" lon="19.4853298"><ele>2.5</ele><time>2026-05-03T14:07:53.689Z</time></trkpt><trkpt lat="42.0457329" lon="19.4852954"><ele>3.75</ele><time>2026-05-03T14:07:54.69Z</time></trkpt><trkpt lat="42.0456139" lon="19.4852473"><ele>5.0</ele><time>2026-05-03T14:07:55.69Z</time></trkpt><trkpt lat="42.0454992" lon="19.4851829"><ele>5.0</ele><time>2026-05-03T14:07:56.69Z</time></trkpt><trkpt lat="42.0453785" lon="19.4850941"><ele>5.0</ele><time>2026-05-03T14:07:57.689Z</time></trkpt><trkpt lat="42.0452466" lon="19.4849996"><ele>5.0</ele><time>2026-05-03T14:07:58.689Z</time></trkpt><trkpt lat="42.0451232" lon="19.4848955"><ele>5.0</ele><time>2026-05-03T14:07:59.689Z</time></trkpt><trkpt lat="42.0449978" lon="19.4847924"><ele>5.0</ele><time>2026-05-03T14:08:00.69Z</time></trkpt><trkpt lat="42.0448762" lon="19.4846928"><ele>5.0</ele><time>2026-05-03T14:08:01.689Z</time></trkpt><trkpt lat="42.0447582" lon="19.4845948"><ele>5.0</ele><time>2026-05-03T14:08:02.69Z</time></trkpt><trkpt lat="42.0446385" lon="19.4844985"><ele>5.0</ele><time>2026-05-03T14:08:03.69Z</time></trkpt><trkpt lat="42.0445201" lon="19.4843941"><ele>5.25</ele><time>2026-05-03T14:08:04.69Z</time></trkpt><trkpt lat="42.0444004" lon="19.4842911"><ele>5.5</ele><time>2026-05-03T14:08:05.689Z</time></trkpt><trkpt lat="42.0442789" lon="19.4841846"><ele>5.75</ele><time>2026-05-03T14:08:06.69Z</time></trkpt><trkpt lat="42.044155" lon="19.4840756"><ele>6.0</ele><time>2026-05-03T14:08:07.69Z</time></trkpt><trkpt lat="42.0440383" lon="19.4839826"><ele>6.0</ele><time>2026-05-03T14:08:08.689Z</time></trkpt><trkpt lat="42.0439247" lon="19.4838972"><ele>6.0</ele><time>2026-05-03T14:08:09.689Z</time></trkpt><trkpt lat="42.0438231" lon="19.4838208"><ele>6.0</ele><time>2026-05-03T14:08:10.689Z</time></trkpt><trkpt lat="42.0437239" lon="19.4837523"><ele>6.0</ele><time>2026-05-03T14:08:11.689Z</time></trkpt><trkpt lat="42.0436446" lon="19.4836937"><ele>6.0</ele><time>2026-05-03T14:08:12.689Z</time></trkpt><trkpt lat="42.0435744" lon="19.4836492"><ele>6.8</ele><time>2026-05-03T14:08:13.69Z</time></trkpt><trkpt lat="42.0434771" lon="19.4835858"><ele>7.6</ele><time>2026-05-03T14:08:15.69Z</time></trkpt><trkpt lat="42.0434009" lon="19.4835262"><ele>8.4</ele><time>2026-05-03T14:08:18.69Z</time></trkpt><trkpt lat="42.0433221" lon="19.4834851"><ele>9.2</ele><time>2026-05-03T14:08:20.69Z</time></trkpt><trkpt lat="42.0432121" lon="19.4834055"><ele>10.0</ele><time>2026-05-03T14:08:22.69Z</time></trkpt><trkpt lat="42.0431405" lon="19.4833494"><ele>10.0</ele><time>2026-05-03T14:08:23.689Z</time></trkpt><trkpt lat="42.0430646" lon="19.4832929"><ele>10.0</ele><time>2026-05-03T14:08:24.69Z</time></trkpt><trkpt lat="42.0429963" lon="19.4832391"><ele>10.0</ele><time>2026-05-03T14:08:25.689Z</time></trkpt><trkpt lat="42.0429307" lon="19.483192"><ele>10.0</ele><time>2026-05-03T14:08:26.689Z</time></trkpt><trkpt lat="42.0428751" lon="19.4831481"><ele>10.0</ele><time>2026-05-03T14:08:27.689Z</time></trkpt><trkpt lat="42.0428175" lon="19.4831036"><ele>10.0</ele><time>2026-05-03T14:08:28.689Z</time></trkpt><trkpt lat="42.0427074" lon="19.4830317"><ele>10.0</ele><time>2026-05-03T14:08:30.689Z</time></trkpt><trkpt lat="42.0426385" lon="19.4829886"><ele>10.0</ele><time>2026-05-03T14:08:31.689Z</time></trkpt><trkpt lat="42.0425628" lon="19.4829369"><ele>10.0</ele><time>2026-05-03T14:08:32.69Z</time></trkpt><trkpt lat="42.0424889" lon="19.482874"><ele>10.0</ele><time>2026-05-03T14:08:33.69Z</time></trkpt><trkpt lat="42.0424012" lon="19.4828086"><ele>10.0</ele><time>2026-05-03T14:08:34.69Z</time></trkpt><trkpt lat="42.0423147" lon="19.482749"><ele>10.0</ele><time>2026-05-03T14:08:35.69Z</time></trkpt><trkpt lat="42.0422287" lon="19.4826818"><ele>11.6</ele><time>2026-05-03T14:08:36.689Z</time></trkpt><trkpt lat="42.0421414" lon="19.4826216"><ele>13.2</ele><time>2026-05-03T14:08:37.69Z</time></trkpt><trkpt lat="42.0420397" lon="19.4825606"><ele>14.8</ele><time>2026-05-03T14:08:38.69Z</time></trkpt><trkpt lat="42.0419446" lon="19.4824993"><ele>16.4</ele><time>2026-05-03T14:08:39.689Z</time></trkpt><trkpt lat="42.0418451" lon="19.4824333"><ele>18.0</ele><time>2026-05-03T14:08:40.689Z</time></trkpt><trkpt lat="42.0417437" lon="19.4823561"><ele>18.0</ele><time>2026-05-03T14:08:41.69Z</time></trkpt><trkpt lat="42.0416433" lon="19.4822922"><ele>18.0</ele><time>2026-05-03T14:08:42.69Z</time></trkpt><trkpt lat="42.0415442" lon="19.4822299"><ele>18.0</ele><time>2026-05-03T14:08:43.69Z</time></trkpt><trkpt lat="42.0414432" lon="19.4821611"><ele>18.0</ele><time>2026-05-03T14:08:44.689Z</time></trkpt><trkpt lat="42.0413527" lon="19.4820951"><ele>18.0</ele><time>2026-05-03T14:08:45.689Z</time></trkpt><trkpt lat="42.0412663" lon="19.4820329"><ele>18.6</ele><time>2026-05-03T14:08:46.689Z</time></trkpt><trkpt lat="42.0411789" lon="19.4819678"><ele>19.200000000000003</ele><time>2026-05-03T14:08:47.69Z</time></trkpt><trkpt lat="42.0410896" lon="19.4819096"><ele>19.8</ele><time>2026-05-03T14:08:48.689Z</time></trkpt><trkpt lat="42.0409921" lon="19.4818594"><ele>20.400000000000002</ele><time>2026-05-03T14:08:49.689Z</time></trkpt><trkpt lat="42.0408879" lon="19.4818159"><ele>21.0</ele><time>2026-05-03T14:08:50.689Z</time></trkpt><trkpt lat="42.0407866" lon="19.4817791"><ele>19.400000000000002</ele><time>2026-05-03T14:08:51.69Z</time></trkpt><trkpt lat="42.0406858" lon="19.4817299"><ele>17.8</ele><time>2026-05-03T14:08:52.689Z</time></trkpt><trkpt lat="42.0405802" lon="19.4816855"><ele>16.200000000000003</ele><time>2026-05-03T14:08:53.69Z</time></trkpt><trkpt lat="42.0404726" lon="19.4816426"><ele>14.600000000000001</ele><time>2026-05-03T14:08:54.689Z</time></trkpt><trkpt lat="42.0403682" lon="19.4815982"><ele>13.0</ele><time>2026-05-03T14:08:55.69Z</time></trkpt><trkpt lat="42.0402603" lon="19.4815539"><ele>13.0</ele><time>2026-05-03T14:08:56.69Z</time></trkpt><trkpt lat="42.0401489" lon="19.4815222"><ele>13.0</ele><time>2026-05-03T14:08:57.689Z</time></trkpt><trkpt lat="42.0400341" lon="19.4815016"><ele>13.0</ele><time>2026-05-03T14:08:58.689Z</time></trkpt><trkpt lat="42.0399209" lon="19.4814921"><ele>13.0</ele><time>2026-05-03T14:08:59.69Z</time></trkpt><trkpt lat="42.0398049" lon="19.4814938"><ele>13.0</ele><time>2026-05-03T14:09:00.69Z</time></trkpt><trkpt lat="42.039691" lon="19.4815064"><ele>13.0</ele><time>2026-05-03T14:09:01.69Z</time></trkpt><trkpt lat="42.0395767" lon="19.4815127"><ele>13.0</ele><time>2026-05-03T14:09:02.69Z</time></trkpt><trkpt lat="42.039464" lon="19.4815196"><ele>13.0</ele><time>2026-05-03T14:09:03.689Z</time></trkpt><trkpt lat="42.0393486" lon="19.4815207"><ele>13.0</ele><time>2026-05-03T14:09:04.689Z</time></trkpt><trkpt lat="42.0392342" lon="19.4815143"><ele>13.0</ele><time>2026-05-03T14:09:05.69Z</time></trkpt><trkpt lat="42.0391248" lon="19.4814925"><ele>13.0</ele><time>2026-05-03T14:09:06.69Z</time></trkpt><trkpt lat="42.0390263" lon="19.4814596"><ele>13.0</ele><time>2026-05-03T14:09:07.689Z</time></trkpt><trkpt lat="42.0389328" lon="19.4814216"><ele>13.0</ele><time>2026-05-03T14:09:08.689Z</time></trkpt><trkpt lat="42.0388412" lon="19.4813687"><ele>12.8</ele><time>2026-05-03T14:09:09.689Z</time></trkpt><trkpt lat="42.0387536" lon="19.4813068"><ele>12.600000000000001</ele><time>2026-05-03T14:09:10.689Z</time></trkpt><trkpt lat="42.0386738" lon="19.4812291"><ele>12.399999999999999</ele><time>2026-05-03T14:09:11.69Z</time></trkpt><trkpt lat="42.0386063" lon="19.4811441"><ele>12.2</ele><time>2026-05-03T14:09:12.69Z</time></trkpt><trkpt lat="42.0385423" lon="19.4810673"><ele>12.0</ele><time>2026-05-03T14:09:13.69Z</time></trkpt><trkpt lat="42.0384799" lon="19.4809895"><ele>11.999999999999998</ele><time>2026-05-03T14:09:14.69Z</time></trkpt><trkpt lat="42.0384242" lon="19.4809231"><ele>12.0</ele><time>2026-05-03T14:09:15.689Z</time></trkpt><trkpt lat="42.0383689" lon="19.4808504"><ele>12.0</ele><time>2026-05-03T14:09:16.689Z</time></trkpt><trkpt lat="42.0383109" lon="19.4807929"><ele>12.0</ele><time>2026-05-03T14:09:17.69Z</time></trkpt><trkpt lat="42.0382601" lon="19.4807297"><ele>12.0</ele><time>2026-05-03T14:09:18.689Z</time></trkpt><trkpt lat="42.0382077" lon="19.4806702"><ele>11.999999999999998</ele><time>2026-05-03T14:09:19.69Z</time></trkpt><trkpt lat="42.0381505" lon="19.4806137"><ele>12.0</ele><time>2026-05-03T14:09:20.69Z</time></trkpt><trkpt lat="42.0380989" lon="19.4805644"><ele>11.666666666666666</ele><time>2026-05-03T14:09:21.689Z</time></trkpt><trkpt lat="42.0380423" lon="19.4805109"><ele>11.333333333333334</ele><time>2026-05-03T14:09:22.689Z</time></trkpt><trkpt lat="42.0379496" lon="19.4803997"><ele>11.0</ele><time>2026-05-03T14:09:24.69Z</time></trkpt><trkpt lat="42.0379046" lon="19.4803382"><ele>10.666666666666668</ele><time>2026-05-03T14:09:25.69Z</time></trkpt><trkpt lat="42.0378529" lon="19.4802764"><ele>10.333333333333334</ele><time>2026-05-03T14:09:26.69Z</time></trkpt><trkpt lat="42.0377941" lon="19.4802147"><ele>10.0</ele><time>2026-05-03T14:09:27.69Z</time></trkpt><trkpt lat="42.0377411" lon="19.480153"><ele>10.0</ele><time>2026-05-03T14:09:28.689Z</time></trkpt><trkpt lat="42.0376818" lon="19.4800747"><ele>10.0</ele><time>2026-05-03T14:09:29.69Z</time></trkpt><trkpt lat="42.0376102" lon="19.4800055"><ele>10.0</ele><time>2026-05-03T14:09:30.69Z</time></trkpt><trkpt lat="42.0375358" lon="19.4799489"><ele>10.0</ele><time>2026-05-03T14:09:31.69Z</time></trkpt><trkpt lat="42.0374622" lon="19.4798851"><ele>10.0</ele><time>2026-05-03T14:09:32.69Z</time></trkpt><trkpt lat="42.0373929" lon="19.4798161"><ele>10.0</ele><time>2026-05-03T14:09:33.689Z</time></trkpt><trkpt lat="42.0373177" lon="19.4797513"><ele>10.0</ele><time>2026-05-03T14:09:34.689Z</time></trkpt><trkpt lat="42.0372465" lon="19.4796847"><ele>10.0</ele><time>2026-05-03T14:09:35.69Z</time></trkpt><trkpt lat="42.0371767" lon="19.4796338"><ele>10.0</ele><time>2026-05-03T14:09:36.689Z</time></trkpt><trkpt lat="42.0371034" lon="19.4795808"><ele>10.0</ele><time>2026-05-03T14:09:37.69Z</time></trkpt><trkpt lat="42.037025" lon="19.4795277"><ele>10.0</ele><time>2026-05-03T14:09:38.689Z</time></trkpt><trkpt lat="42.0369496" lon="19.4794756"><ele>10.0</ele><time>2026-05-03T14:09:39.689Z</time></trkpt><trkpt lat="42.0368735" lon="19.4794233"><ele>10.0</ele><time>2026-05-03T14:09:40.689Z</time></trkpt><trkpt lat="42.0367982" lon="19.4793685"><ele>10.0</ele><time>2026-05-03T14:09:41.69Z</time></trkpt><trkpt lat="42.0367238" lon="19.4793142"><ele>10.0</ele><time>2026-05-03T14:09:42.69Z</time></trkpt><trkpt lat="42.0366433" lon="19.479259"><ele>10.0</ele><time>2026-05-03T14:09:43.689Z</time></trkpt><trkpt lat="42.0365714" lon="19.4792108"><ele>10.0</ele><time>2026-05-03T14:09:44.689Z</time></trkpt><trkpt lat="42.0365002" lon="19.4791639"><ele>10.0</ele><time>2026-05-03T14:09:45.69Z</time></trkpt><trkpt lat="42.0364413" lon="19.4791252"><ele>9.5</ele><time>2026-05-03T14:09:46.69Z</time></trkpt><trkpt lat="42.0363761" lon="19.4790803"><ele>9.0</ele><time>2026-05-03T14:09:47.69Z</time></trkpt><trkpt lat="42.036309" lon="19.4790527"><ele>8.5</ele><time>2026-05-03T14:09:48.689Z</time></trkpt><trkpt lat="42.0362509" lon="19.4790188"><ele>8.0</ele><time>2026-05-03T14:09:49.69Z</time></trkpt><trkpt lat="42.0361393" lon="19.4789641"><ele>7.500000000000001</ele><time>2026-05-03T14:09:51.689Z</time></trkpt><trkpt lat="42.0360305" lon="19.4788994"><ele>7.0</ele><time>2026-05-03T14:09:53.689Z</time></trkpt><trkpt lat="42.0359158" lon="19.47885"><ele>7.0</ele><time>2026-05-03T14:09:55.689Z</time></trkpt><trkpt lat="42.035853" lon="19.4788277"><ele>6.999999999999999</ele><time>2026-05-03T14:09:56.689Z</time></trkpt><trkpt lat="42.0357426" lon="19.4787805"><ele>6.999999999999999</ele><time>2026-05-03T14:09:58.689Z</time></trkpt><trkpt lat="42.0356318" lon="19.478729"><ele>7.0</ele><time>2026-05-03T14:10:00.689Z</time></trkpt><trkpt lat="42.035523" lon="19.4786805"><ele>7.0</ele><time>2026-05-03T14:10:02.69Z</time></trkpt><trkpt lat="42.0354121" lon="19.4786177"><ele>7.6</ele><time>2026-05-03T14:10:04.689Z</time></trkpt><trkpt lat="42.0353476" lon="19.4785965"><ele>8.2</ele><time>2026-05-03T14:10:05.69Z</time></trkpt><trkpt lat="42.0352332" lon="19.4785354"><ele>8.8</ele><time>2026-05-03T14:10:07.69Z</time></trkpt><trkpt lat="42.0351167" lon="19.4784928"><ele>9.4</ele><time>2026-05-03T14:10:09.689Z</time></trkpt><trkpt lat="42.0349958" lon="19.4784438"><ele>10.0</ele><time>2026-05-03T14:10:11.69Z</time></trkpt><trkpt lat="42.0349307" lon="19.4784184"><ele>10.0</ele><time>2026-05-03T14:10:12.69Z</time></trkpt><trkpt lat="42.0348117" lon="19.4783813"><ele>10.0</ele><time>2026-05-03T14:10:14.689Z</time></trkpt><trkpt lat="42.0347475" lon="19.4783574"><ele>10.0</ele><time>2026-05-03T14:10:15.689Z</time></trkpt><trkpt lat="42.034685" lon="19.4783297"><ele>10.0</ele><time>2026-05-03T14:10:16.69Z</time></trkpt><trkpt lat="42.0346236" lon="19.4783074"><ele>10.0</ele><time>2026-05-03T14:10:17.69Z</time></trkpt><trkpt lat="42.034559" lon="19.478287"><ele>10.0</ele><time>2026-05-03T14:10:18.69Z</time></trkpt><trkpt lat="42.0344441" lon="19.4782268"><ele>10.0</ele><time>2026-05-03T14:10:20.689Z</time></trkpt><trkpt lat="42.0343864" lon="19.4781755"><ele>10.0</ele><time>2026-05-03T14:10:21.689Z</time></trkpt><trkpt lat="42.0343311" lon="19.4781205"><ele>10.0</ele><time>2026-05-03T14:10:22.69Z</time></trkpt><trkpt lat="42.0342301" lon="19.478016"><ele>10.0</ele><time>2026-05-03T14:10:24.69Z</time></trkpt><trkpt lat="42.0341794" lon="19.477953"><ele>10.0</ele><time>2026-05-03T14:10:25.689Z</time></trkpt><trkpt lat="42.0341265" lon="19.4779006"><ele>10.0</ele><time>2026-05-03T14:10:26.69Z</time></trkpt><trkpt lat="42.0340704" lon="19.4778584"><ele>10.0</ele><time>2026-05-03T14:10:27.689Z</time></trkpt><trkpt lat="42.0340146" lon="19.4777992"><ele>10.0</ele><time>2026-05-03T14:10:28.689Z</time></trkpt><trkpt lat="42.0339581" lon="19.4777404"><ele>10.0</ele><time>2026-05-03T14:10:29.69Z</time></trkpt><trkpt lat="42.0338987" lon="19.4776821"><ele>10.0</ele><time>2026-05-03T14:10:30.69Z</time></trkpt><trkpt lat="42.0338364" lon="19.4776277"><ele>10.0</ele><time>2026-05-03T14:10:31.689Z</time></trkpt><trkpt lat="42.0337767" lon="19.4775715"><ele>10.0</ele><time>2026-05-03T14:10:32.69Z</time></trkpt><trkpt lat="42.0337118" lon="19.4775152"><ele>10.0</ele><time>2026-05-03T14:10:33.689Z</time></trkpt><trkpt lat="42.0336479" lon="19.4774589"><ele>10.0</ele><time>2026-05-03T14:10:34.689Z</time></trkpt><trkpt lat="42.0335831" lon="19.4773962"><ele>10.0</ele><time>2026-05-03T14:10:35.689Z</time></trkpt><trkpt lat="42.0335214" lon="19.4773383"><ele>10.0</ele><time>2026-05-03T14:10:36.69Z</time></trkpt><trkpt lat="42.0334576" lon="19.4772694"><ele>10.0</ele><time>2026-05-03T14:10:37.69Z</time></trkpt><trkpt lat="42.0333934" lon="19.4772138"><ele>10.0</ele><time>2026-05-03T14:10:38.689Z</time></trkpt><trkpt lat="42.0333245" lon="19.4771546"><ele>10.0</ele><time>2026-05-03T14:10:39.69Z</time></trkpt><trkpt lat="42.0332553" lon="19.4770955"><ele>9.666666666666668</ele><time>2026-05-03T14:10:40.69Z</time></trkpt><trkpt lat="42.0331832" lon="19.4770415"><ele>9.333333333333334</ele><time>2026-05-03T14:10:41.69Z</time></trkpt><trkpt lat="42.0331149" lon="19.4769828"><ele>9.0</ele><time>2026-05-03T14:10:42.69Z</time></trkpt><trkpt lat="42.0330489" lon="19.4769163"><ele>8.666666666666666</ele><time>2026-05-03T14:10:43.689Z</time></trkpt><trkpt lat="42.0329919" lon="19.4768543"><ele>8.333333333333332</ele><time>2026-05-03T14:10:44.69Z</time></trkpt><trkpt lat="42.0329453" lon="19.4767908"><ele>8.0</ele><time>2026-05-03T14:10:45.69Z</time></trkpt><trkpt lat="42.0328556" lon="19.4766632"><ele>7.999999999999999</ele><time>2026-05-03T14:10:47.689Z</time></trkpt><trkpt lat="42.0328081" lon="19.4765906"><ele>8.0</ele><time>2026-05-03T14:10:48.689Z</time></trkpt><trkpt lat="42.0327579" lon="19.4765234"><ele>8.0</ele><time>2026-05-03T14:10:49.69Z</time></trkpt><trkpt lat="42.0327158" lon="19.4764556"><ele>8.0</ele><time>2026-05-03T14:10:50.689Z</time></trkpt><trkpt lat="42.0326712" lon="19.4763809"><ele>7.999999999999999</ele><time>2026-05-03T14:10:51.69Z</time></trkpt><trkpt lat="42.0326343" lon="19.4763083"><ele>8.0</ele><time>2026-05-03T14:10:52.69Z</time></trkpt><trkpt lat="42.0325622" lon="19.4761806"><ele>8.25</ele><time>2026-05-03T14:10:54.69Z</time></trkpt><trkpt lat="42.0324889" lon="19.4760669"><ele>8.5</ele><time>2026-05-03T14:10:56.69Z</time></trkpt><trkpt lat="42.0324142" lon="19.4759514"><ele>8.75</ele><time>2026-05-03T14:10:58.689Z</time></trkpt><trkpt lat="42.0323372" lon="19.4758361"><ele>9.0</ele><time>2026-05-03T14:11:00.689Z</time></trkpt><trkpt lat="42.0322602" lon="19.4757136"><ele>9.000000000000002</ele><time>2026-05-03T14:11:02.689Z</time></trkpt><trkpt lat="42.0322188" lon="19.4756403"><ele>9.0</ele><time>2026-05-03T14:11:03.69Z</time></trkpt><trkpt lat="42.0321815" lon="19.4755669"><ele>9.0</ele><time>2026-05-03T14:11:04.689Z</time></trkpt><trkpt lat="42.0321395" lon="19.4755001"><ele>9.0</ele><time>2026-05-03T14:11:05.69Z</time></trkpt><trkpt lat="42.0320813" lon="19.47543"><ele>9.0</ele><time>2026-05-03T14:11:06.689Z</time></trkpt><trkpt lat="42.0320282" lon="19.4753645"><ele>9.000000000000002</ele><time>2026-05-03T14:11:07.689Z</time></trkpt><trkpt lat="42.0319735" lon="19.4752934"><ele>9.0</ele><time>2026-05-03T14:11:08.689Z</time></trkpt><trkpt lat="42.0319297" lon="19.4752141"><ele>8.833333333333334</ele><time>2026-05-03T14:11:09.69Z</time></trkpt><trkpt lat="42.0318708" lon="19.4751423"><ele>8.666666666666666</ele><time>2026-05-03T14:11:10.689Z</time></trkpt><trkpt lat="42.0318106" lon="19.4750646"><ele>8.5</ele><time>2026-05-03T14:11:11.689Z</time></trkpt><trkpt lat="42.0317474" lon="19.4749856"><ele>8.333333333333332</ele><time>2026-05-03T14:11:12.69Z</time></trkpt><trkpt lat="42.0316911" lon="19.4749102"><ele>8.166666666666666</ele><time>2026-05-03T14:11:13.689Z</time></trkpt><trkpt lat="42.0316273" lon="19.4748291"><ele>8.0</ele><time>2026-05-03T14:11:14.689Z</time></trkpt><trkpt lat="42.0315629" lon="19.4747533"><ele>8.166666666666666</ele><time>2026-05-03T14:11:15.689Z</time></trkpt><trkpt lat="42.0314941" lon="19.4746899"><ele>8.333333333333332</ele><time>2026-05-03T14:11:16.689Z</time></trkpt><trkpt lat="42.0314338" lon="19.4746209"><ele>8.5</ele><time>2026-05-03T14:11:17.69Z</time></trkpt><trkpt lat="42.031357" lon="19.474558"><ele>8.666666666666666</ele><time>2026-05-03T14:11:18.69Z</time></trkpt><trkpt lat="42.0312799" lon="19.474506"><ele>8.833333333333334</ele><time>2026-05-03T14:11:19.69Z</time></trkpt><trkpt lat="42.0312064" lon="19.4744517"><ele>9.0</ele><time>2026-05-03T14:11:20.69Z</time></trkpt><trkpt lat="42.0311332" lon="19.4743965"><ele>9.0</ele><time>2026-05-03T14:11:21.69Z</time></trkpt><trkpt lat="42.0310666" lon="19.4743413"><ele>9.0</ele><time>2026-05-03T14:11:22.69Z</time></trkpt><trkpt lat="42.0309999" lon="19.4742799"><ele>9.0</ele><time>2026-05-03T14:11:23.689Z</time></trkpt><trkpt lat="42.0309492" lon="19.4742123"><ele>9.0</ele><time>2026-05-03T14:11:24.69Z</time></trkpt><trkpt lat="42.0308961" lon="19.4741364"><ele>9.0</ele><time>2026-05-03T14:11:25.69Z</time></trkpt><trkpt lat="42.0308407" lon="19.47405"><ele>9.0</ele><time>2026-05-03T14:11:26.69Z</time></trkpt><trkpt lat="42.0307923" lon="19.4739677"><ele>9.0</ele><time>2026-05-03T14:11:27.689Z</time></trkpt><trkpt lat="42.030753" lon="19.4738869"><ele>9.0</ele><time>2026-05-03T14:11:28.689Z</time></trkpt><trkpt lat="42.0307095" lon="19.4738057"><ele>9.0</ele><time>2026-05-03T14:11:29.69Z</time></trkpt><trkpt lat="42.0306633" lon="19.4737328"><ele>9.0</ele><time>2026-05-03T14:11:30.69Z</time></trkpt><trkpt lat="42.0306247" lon="19.4736569"><ele>9.0</ele><time>2026-05-03T14:11:31.689Z</time></trkpt><trkpt lat="42.030589" lon="19.4735814"><ele>9.0</ele><time>2026-05-03T14:11:32.689Z</time></trkpt><trkpt lat="42.0305317" lon="19.4734471"><ele>9.0</ele><time>2026-05-03T14:11:34.69Z</time></trkpt><trkpt lat="42.0304828" lon="19.4733383"><ele>9.0</ele><time>2026-05-03T14:11:36.689Z</time></trkpt><trkpt lat="42.0303958" lon="19.4732337"><ele>9.0</ele><time>2026-05-03T14:11:38.689Z</time></trkpt><trkpt lat="42.030324" lon="19.4731854"><ele>9.0</ele><time>2026-05-03T14:11:39.69Z</time></trkpt><trkpt lat="42.0302433" lon="19.4731619"><ele>9.0</ele><time>2026-05-03T14:11:40.689Z</time></trkpt><trkpt lat="42.0301554" lon="19.4731504"><ele>9.0</ele><time>2026-05-03T14:11:41.69Z</time></trkpt><trkpt lat="42.0300467" lon="19.4731334"><ele>9.0</ele><time>2026-05-03T14:11:42.689Z</time></trkpt><trkpt lat="42.0299323" lon="19.4731096"><ele>9.0</ele><time>2026-05-03T14:11:43.689Z</time></trkpt><trkpt lat="42.0298328" lon="19.4730626"><ele>9.0</ele><time>2026-05-03T14:11:44.69Z</time></trkpt><trkpt lat="42.0297372" lon="19.4729955"><ele>9.0</ele><time>2026-05-03T14:11:45.689Z</time></trkpt><trkpt lat="42.0296467" lon="19.4729112"><ele>10.2</ele><time>2026-05-03T14:11:46.689Z</time></trkpt><trkpt lat="42.0295597" lon="19.4728193"><ele>11.4</ele><time>2026-05-03T14:11:47.69Z</time></trkpt><trkpt lat="42.0294715" lon="19.4727165"><ele>12.6</ele><time>2026-05-03T14:11:48.689Z</time></trkpt><trkpt lat="42.0293908" lon="19.4726229"><ele>13.8</ele><time>2026-05-03T14:11:49.69Z</time></trkpt><trkpt lat="42.0293154" lon="19.4725272"><ele>15.0</ele><time>2026-05-03T14:11:50.689Z</time></trkpt><trkpt lat="42.0292479" lon="19.4724354"><ele>15.0</ele><time>2026-05-03T14:11:51.69Z</time></trkpt><trkpt lat="42.0291933" lon="19.4723528"><ele>15.0</ele><time>2026-05-03T14:11:52.689Z</time></trkpt><trkpt lat="42.0291502" lon="19.4722516"><ele>15.0</ele><time>2026-05-03T14:11:53.689Z</time></trkpt><trkpt lat="42.0291078" lon="19.4721447"><ele>15.0</ele><time>2026-05-03T14:11:54.689Z</time></trkpt><trkpt lat="42.0290684" lon="19.4720369"><ele>15.0</ele><time>2026-05-03T14:11:55.69Z</time></trkpt><trkpt lat="42.0290225" lon="19.471927"><ele>15.0</ele><time>2026-05-03T14:11:56.689Z</time></trkpt><trkpt lat="42.0289777" lon="19.4718163"><ele>13.8</ele><time>2026-05-03T14:11:57.689Z</time></trkpt><trkpt lat="42.0289246" lon="19.4717139"><ele>12.6</ele><time>2026-05-03T14:11:58.689Z</time></trkpt><trkpt lat="42.0288693" lon="19.4716108"><ele>11.4</ele><time>2026-05-03T14:11:59.689Z</time></trkpt><trkpt lat="42.0288154" lon="19.4715176"><ele>10.2</ele><time>2026-05-03T14:12:00.69Z</time></trkpt><trkpt lat="42.0287613" lon="19.4714201"><ele>9.0</ele><time>2026-05-03T14:12:01.69Z</time></trkpt><trkpt lat="42.0287117" lon="19.4713263"><ele>9.5</ele><time>2026-05-03T14:12:02.689Z</time></trkpt><trkpt lat="42.0286627" lon="19.4712361"><ele>10.0</ele><time>2026-05-03T14:12:03.69Z</time></trkpt><trkpt lat="42.0286155" lon="19.471152"><ele>10.5</ele><time>2026-05-03T14:12:04.69Z</time></trkpt><trkpt lat="42.0285617" lon="19.4710647"><ele>11.0</ele><time>2026-05-03T14:12:05.689Z</time></trkpt><trkpt lat="42.0285004" lon="19.4709861"><ele>11.5</ele><time>2026-05-03T14:12:06.69Z</time></trkpt><trkpt lat="42.0284408" lon="19.4709069"><ele>12.0</ele><time>2026-05-03T14:12:07.69Z</time></trkpt><trkpt lat="42.0283745" lon="19.4708316"><ele>11.0</ele><time>2026-05-03T14:12:08.689Z</time></trkpt><trkpt lat="42.028308" lon="19.4707635"><ele>10.0</ele><time>2026-05-03T14:12:09.69Z</time></trkpt><trkpt lat="42.0282264" lon="19.4706953"><ele>9.0</ele><time>2026-05-03T14:12:10.689Z</time></trkpt><trkpt lat="42.0281514" lon="19.4706379"><ele>8.0</ele><time>2026-05-03T14:12:11.689Z</time></trkpt><trkpt lat="42.0280731" lon="19.4705871"><ele>7.0</ele><time>2026-05-03T14:12:12.689Z</time></trkpt><trkpt lat="42.0279932" lon="19.470525"><ele>6.0</ele><time>2026-05-03T14:12:13.689Z</time></trkpt><trkpt lat="42.027917" lon="19.4704765"><ele>6.6</ele><time>2026-05-03T14:12:14.689Z</time></trkpt><trkpt lat="42.0278334" lon="19.4704223"><ele>7.199999999999999</ele><time>2026-05-03T14:12:15.69Z</time></trkpt><trkpt lat="42.0277498" lon="19.4703549"><ele>7.800000000000001</ele><time>2026-05-03T14:12:16.689Z</time></trkpt><trkpt lat="42.0276642" lon="19.4702903"><ele>8.4</ele><time>2026-05-03T14:12:17.689Z</time></trkpt><trkpt lat="42.0275778" lon="19.4702328"><ele>9.0</ele><time>2026-05-03T14:12:18.69Z</time></trkpt><trkpt lat="42.0274941" lon="19.4701729"><ele>8.6</ele><time>2026-05-03T14:12:19.69Z</time></trkpt><trkpt lat="42.027409" lon="19.4701024"><ele>8.2</ele><time>2026-05-03T14:12:20.689Z</time></trkpt><trkpt lat="42.0273249" lon="19.4700425"><ele>7.799999999999999</ele><time>2026-05-03T14:12:21.69Z</time></trkpt><trkpt lat="42.0272453" lon="19.4699842"><ele>7.3999999999999995</ele><time>2026-05-03T14:12:22.689Z</time></trkpt><trkpt lat="42.0271651" lon="19.4699354"><ele>7.0</ele><time>2026-05-03T14:12:23.69Z</time></trkpt><trkpt lat="42.0270871" lon="19.4698756"><ele>7.0</ele><time>2026-05-03T14:12:24.69Z</time></trkpt><trkpt lat="42.0270091" lon="19.4698162"><ele>6.999999999999999</ele><time>2026-05-03T14:12:25.69Z</time></trkpt><trkpt lat="42.0269298" lon="19.4697576"><ele>6.999999999999999</ele><time>2026-05-03T14:12:26.69Z</time></trkpt><trkpt lat="42.0268518" lon="19.4696989"><ele>7.0</ele><time>2026-05-03T14:12:27.689Z</time></trkpt><trkpt lat="42.0267707" lon="19.4696339"><ele>7.0</ele><time>2026-05-03T14:12:28.69Z</time></trkpt><trkpt lat="42.0266877" lon="19.4695737"><ele>7.199999999999999</ele><time>2026-05-03T14:12:29.689Z</time></trkpt><trkpt lat="42.0266016" lon="19.4695117"><ele>7.3999999999999995</ele><time>2026-05-03T14:12:30.69Z</time></trkpt><trkpt lat="42.0265164" lon="19.4694521"><ele>7.6000000000000005</ele><time>2026-05-03T14:12:31.689Z</time></trkpt><trkpt lat="42.026427" lon="19.4693924"><ele>7.800000000000001</ele><time>2026-05-03T14:12:32.689Z</time></trkpt><trkpt lat="42.0263428" lon="19.469326"><ele>8.0</ele><time>2026-05-03T14:12:33.69Z</time></trkpt><trkpt lat="42.0262699" lon="19.4692681"><ele>8.0</ele><time>2026-05-03T14:12:34.689Z</time></trkpt><trkpt lat="42.02619" lon="19.4691991"><ele>8.0</ele><time>2026-05-03T14:12:35.69Z</time></trkpt><trkpt lat="42.0261169" lon="19.4691146"><ele>8.0</ele><time>2026-05-03T14:12:36.689Z</time></trkpt><trkpt lat="42.0260532" lon="19.4690393"><ele>8.0</ele><time>2026-05-03T14:12:37.689Z</time></trkpt><trkpt lat="42.0259869" lon="19.4689618"><ele>8.0</ele><time>2026-05-03T14:12:38.689Z</time></trkpt><trkpt lat="42.0259178" lon="19.4688874"><ele>7.999999999999999</ele><time>2026-05-03T14:12:39.69Z</time></trkpt><trkpt lat="42.0258493" lon="19.4688276"><ele>8.0</ele><time>2026-05-03T14:12:40.69Z</time></trkpt><trkpt lat="42.0257759" lon="19.4687843"><ele>8.0</ele><time>2026-05-03T14:12:41.69Z</time></trkpt><trkpt lat="42.0256926" lon="19.4687528"><ele>8.0</ele><time>2026-05-03T14:12:42.689Z</time></trkpt><trkpt lat="42.025602" lon="19.468726"><ele>7.999999999999999</ele><time>2026-05-03T14:12:43.689Z</time></trkpt><trkpt lat="42.0255231" lon="19.4686916"><ele>8.0</ele><time>2026-05-03T14:12:44.69Z</time></trkpt><trkpt lat="42.0254467" lon="19.4686518"><ele>8.166666666666666</ele><time>2026-05-03T14:12:45.69Z</time></trkpt><trkpt lat="42.0253754" lon="19.4685941"><ele>8.333333333333332</ele><time>2026-05-03T14:12:46.69Z</time></trkpt><trkpt lat="42.025313" lon="19.4685249"><ele>8.5</ele><time>2026-05-03T14:12:47.689Z</time></trkpt><trkpt lat="42.0252592" lon="19.4684404"><ele>8.666666666666666</ele><time>2026-05-03T14:12:48.689Z</time></trkpt><trkpt lat="42.025205" lon="19.4683463"><ele>8.833333333333334</ele><time>2026-05-03T14:12:49.69Z</time></trkpt><trkpt lat="42.0251624" lon="19.4682561"><ele>9.0</ele><time>2026-05-03T14:12:50.689Z</time></trkpt><trkpt lat="42.0251198" lon="19.4681587"><ele>9.0</ele><time>2026-05-03T14:12:51.689Z</time></trkpt><trkpt lat="42.0250918" lon="19.4680564"><ele>9.0</ele><time>2026-05-03T14:12:52.69Z</time></trkpt><trkpt lat="42.0250653" lon="19.4679464"><ele>9.0</ele><time>2026-05-03T14:12:53.689Z</time></trkpt><trkpt lat="42.0250534" lon="19.4678279"><ele>9.0</ele><time>2026-05-03T14:12:54.689Z</time></trkpt><trkpt lat="42.02504" lon="19.4677163"><ele>9.0</ele><time>2026-05-03T14:12:55.69Z</time></trkpt><trkpt lat="42.0250322" lon="19.4675973"><ele>9.0</ele><time>2026-05-03T14:12:56.69Z</time></trkpt><trkpt lat="42.0250249" lon="19.4674834"><ele>8.666666666666666</ele><time>2026-05-03T14:12:57.689Z</time></trkpt><trkpt lat="42.0250042" lon="19.4673733"><ele>8.333333333333334</ele><time>2026-05-03T14:12:58.689Z</time></trkpt><trkpt lat="42.0249703" lon="19.467273"><ele>8.0</ele><time>2026-05-03T14:12:59.689Z</time></trkpt><trkpt lat="42.024926" lon="19.46717"><ele>7.666666666666667</ele><time>2026-05-03T14:13:00.69Z</time></trkpt><trkpt lat="42.0248942" lon="19.4670768"><ele>7.333333333333334</ele><time>2026-05-03T14:13:01.689Z</time></trkpt><trkpt lat="42.0248601" lon="19.4669799"><ele>7.0</ele><time>2026-05-03T14:13:02.69Z</time></trkpt><trkpt lat="42.0248305" lon="19.4668757"><ele>7.0</ele><time>2026-05-03T14:13:03.689Z</time></trkpt><trkpt lat="42.0248048" lon="19.4667611"><ele>6.999999999999999</ele><time>2026-05-03T14:13:04.689Z</time></trkpt><trkpt lat="42.0247714" lon="19.4666276"><ele>6.999999999999999</ele><time>2026-05-03T14:13:05.689Z</time></trkpt><trkpt lat="42.0247481" lon="19.4664889"><ele>7.0</ele><time>2026-05-03T14:13:06.69Z</time></trkpt><trkpt lat="42.0247192" lon="19.4663319"><ele>7.0</ele><time>2026-05-03T14:13:07.689Z</time></trkpt><trkpt lat="42.024706" lon="19.4661786"><ele>7.25</ele><time>2026-05-03T14:13:08.689Z</time></trkpt><trkpt lat="42.024689" lon="19.4660005"><ele>7.5</ele><time>2026-05-03T14:13:09.689Z</time></trkpt><trkpt lat="42.0246843" lon="19.465831"><ele>7.75</ele><time>2026-05-03T14:13:10.69Z</time></trkpt><trkpt lat="42.0246789" lon="19.4656638"><ele>8.0</ele><time>2026-05-03T14:13:11.69Z</time></trkpt><trkpt lat="42.0246671" lon="19.4654929"><ele>8.0</ele><time>2026-05-03T14:13:12.69Z</time></trkpt><trkpt lat="42.0246599" lon="19.4653181"><ele>8.0</ele><time>2026-05-03T14:13:13.689Z</time></trkpt><trkpt lat="42.0246548" lon="19.4651358"><ele>8.0</ele><time>2026-05-03T14:13:14.69Z</time></trkpt><trkpt lat="42.0246479" lon="19.4649541"><ele>8.0</ele><time>2026-05-03T14:13:15.69Z</time></trkpt><trkpt lat="42.0246441" lon="19.4647764"><ele>7.75</ele><time>2026-05-03T14:13:16.69Z</time></trkpt><trkpt lat="42.0246409" lon="19.4645962"><ele>7.5</ele><time>2026-05-03T14:13:17.689Z</time></trkpt><trkpt lat="42.0246381" lon="19.4644407"><ele>7.25</ele><time>2026-05-03T14:13:18.689Z</time></trkpt><trkpt lat="42.0246551" lon="19.4642772"><ele>7.0</ele><time>2026-05-03T14:13:19.69Z</time></trkpt><trkpt lat="42.0246843" lon="19.4641197"><ele>7.0</ele><time>2026-05-03T14:13:20.689Z</time></trkpt><trkpt lat="42.0247201" lon="19.4639652"><ele>7.0</ele><time>2026-05-03T14:13:21.69Z</time></trkpt><trkpt lat="42.0247756" lon="19.4637995"><ele>7.0</ele><time>2026-05-03T14:13:22.69Z</time></trkpt><trkpt lat="42.0248364" lon="19.4636369"><ele>7.0</ele><time>2026-05-03T14:13:23.69Z</time></trkpt><trkpt lat="42.0248796" lon="19.4634728"><ele>7.0</ele><time>2026-05-03T14:13:24.689Z</time></trkpt><trkpt lat="42.0249043" lon="19.4632988"><ele>7.0</ele><time>2026-05-03T14:13:25.689Z</time></trkpt><trkpt lat="42.0249148" lon="19.4631123"><ele>7.0</ele><time>2026-05-03T14:13:26.689Z</time></trkpt><trkpt lat="42.0249176" lon="19.4629004"><ele>7.0</ele><time>2026-05-03T14:13:27.689Z</time></trkpt><trkpt lat="42.0249153" lon="19.462716"><ele>7.0</ele><time>2026-05-03T14:13:28.69Z</time></trkpt><trkpt lat="42.0249018" lon="19.4625436"><ele>7.0</ele><time>2026-05-03T14:13:29.69Z</time></trkpt><trkpt lat="42.0248788" lon="19.4623787"><ele>7.0</ele><time>2026-05-03T14:13:30.69Z</time></trkpt><trkpt lat="42.0248317" lon="19.4622274"><ele>7.0</ele><time>2026-05-03T14:13:31.689Z</time></trkpt><trkpt lat="42.0247687" lon="19.4621014"><ele>8.25</ele><time>2026-05-03T14:13:32.69Z</time></trkpt><trkpt lat="42.0246843" lon="19.4619883"><ele>9.5</ele><time>2026-05-03T14:13:33.69Z</time></trkpt><trkpt lat="42.0245833" lon="19.461891"><ele>10.75</ele><time>2026-05-03T14:13:34.69Z</time></trkpt><trkpt lat="42.0244828" lon="19.4618004"><ele>12.0</ele><time>2026-05-03T14:13:35.69Z</time></trkpt><trkpt lat="42.0243794" lon="19.4616808"><ele>12.0</ele><time>2026-05-03T14:13:36.69Z</time></trkpt><trkpt lat="42.0242744" lon="19.4615647"><ele>12.0</ele><time>2026-05-03T14:13:37.69Z</time></trkpt><trkpt lat="42.0241572" lon="19.4614438"><ele>12.0</ele><time>2026-05-03T14:13:38.69Z</time></trkpt><trkpt lat="42.0240337" lon="19.4613139"><ele>12.0</ele><time>2026-05-03T14:13:39.69Z</time></trkpt><trkpt lat="42.0239048" lon="19.4611888"><ele>11.5</ele><time>2026-05-03T14:13:40.69Z</time></trkpt><trkpt lat="42.0237868" lon="19.461061"><ele>11.0</ele><time>2026-05-03T14:13:41.69Z</time></trkpt><trkpt lat="42.0236701" lon="19.4609305"><ele>10.5</ele><time>2026-05-03T14:13:42.689Z</time></trkpt><trkpt lat="42.0235585" lon="19.4608069"><ele>10.0</ele><time>2026-05-03T14:13:43.689Z</time></trkpt><trkpt lat="42.0234454" lon="19.4606854"><ele>10.0</ele><time>2026-05-03T14:13:44.689Z</time></trkpt><trkpt lat="42.0233315" lon="19.4605736"><ele>10.0</ele><time>2026-05-03T14:13:45.689Z</time></trkpt><trkpt lat="42.0232123" lon="19.4604476"><ele>10.0</ele><time>2026-05-03T14:13:46.689Z</time></trkpt><trkpt lat="42.0230925" lon="19.4603023"><ele>9.0</ele><time>2026-05-03T14:13:47.69Z</time></trkpt><trkpt lat="42.0229742" lon="19.4601452"><ele>8.0</ele><time>2026-05-03T14:13:48.689Z</time></trkpt><trkpt lat="42.0228666" lon="19.4599802"><ele>7.0</ele><time>2026-05-03T14:13:49.689Z</time></trkpt><trkpt lat="42.0227688" lon="19.4598086"><ele>7.0</ele><time>2026-05-03T14:13:50.69Z</time></trkpt><trkpt lat="42.0226743" lon="19.459642"><ele>7.0</ele><time>2026-05-03T14:13:51.69Z</time></trkpt><trkpt lat="42.0225817" lon="19.4594729"><ele>7.0</ele><time>2026-05-03T14:13:52.69Z</time></trkpt><trkpt lat="42.0224928" lon="19.4593106"><ele>7.0</ele><time>2026-05-03T14:13:53.689Z</time></trkpt><trkpt lat="42.0224117" lon="19.4591448"><ele>7.0</ele><time>2026-05-03T14:13:54.69Z</time></trkpt><trkpt lat="42.0223196" lon="19.4589968"><ele>7.0</ele><time>2026-05-03T14:13:55.689Z</time></trkpt><trkpt lat="42.022217" lon="19.4588815"><ele>7.0</ele><time>2026-05-03T14:13:56.689Z</time></trkpt><trkpt lat="42.0221074" lon="19.4587677"><ele>8.0</ele><time>2026-05-03T14:13:57.689Z</time></trkpt><trkpt lat="42.0219857" lon="19.4586595"><ele>9.0</ele><time>2026-05-03T14:13:58.69Z</time></trkpt><trkpt lat="42.0218674" lon="19.4585504"><ele>10.0</ele><time>2026-05-03T14:13:59.69Z</time></trkpt><trkpt lat="42.0217588" lon="19.4584508"><ele>11.0</ele><time>2026-05-03T14:14:00.69Z</time></trkpt><trkpt lat="42.0216487" lon="19.4583597"><ele>10.0</ele><time>2026-05-03T14:14:01.689Z</time></trkpt><trkpt lat="42.021543" lon="19.4582752"><ele>9.0</ele><time>2026-05-03T14:14:02.69Z</time></trkpt><trkpt lat="42.0214391" lon="19.4581932"><ele>8.0</ele><time>2026-05-03T14:14:03.69Z</time></trkpt><trkpt lat="42.0213472" lon="19.4580911"><ele>7.0</ele><time>2026-05-03T14:14:04.69Z</time></trkpt><trkpt lat="42.0212773" lon="19.4579686"><ele>7.3999999999999995</ele><time>2026-05-03T14:14:05.689Z</time></trkpt><trkpt lat="42.0212397" lon="19.4578163"><ele>7.799999999999999</ele><time>2026-05-03T14:14:06.69Z</time></trkpt><trkpt lat="42.0211974" lon="19.4576718"><ele>8.2</ele><time>2026-05-03T14:14:07.69Z</time></trkpt><trkpt lat="42.0211596" lon="19.4575361"><ele>8.6</ele><time>2026-05-03T14:14:08.69Z</time></trkpt><trkpt lat="42.0211095" lon="19.4574126"><ele>9.0</ele><time>2026-05-03T14:14:09.69Z</time></trkpt><trkpt lat="42.021047" lon="19.4572971"><ele>9.0</ele><time>2026-05-03T14:14:10.69Z</time></trkpt><trkpt lat="42.0209707" lon="19.457204"><ele>9.0</ele><time>2026-05-03T14:14:11.689Z</time></trkpt><trkpt lat="42.0208905" lon="19.4571352"><ele>9.0</ele><time>2026-05-03T14:14:12.689Z</time></trkpt><trkpt lat="42.0208102" lon="19.4570797"><ele>9.0</ele><time>2026-05-03T14:14:13.69Z</time></trkpt><trkpt lat="42.0207232" lon="19.4570306"><ele>9.0</ele><time>2026-05-03T14:14:14.689Z</time></trkpt><trkpt lat="42.0206396" lon="19.4569751"><ele>9.2</ele><time>2026-05-03T14:14:15.69Z</time></trkpt><trkpt lat="42.0205583" lon="19.4569008"><ele>9.4</ele><time>2026-05-03T14:14:16.69Z</time></trkpt><trkpt lat="42.020473" lon="19.4568146"><ele>9.6</ele><time>2026-05-03T14:14:17.689Z</time></trkpt><trkpt lat="42.020387" lon="19.4567198"><ele>9.8</ele><time>2026-05-03T14:14:18.689Z</time></trkpt><trkpt lat="42.0202857" lon="19.456627"><ele>10.0</ele><time>2026-05-03T14:14:19.689Z</time></trkpt><trkpt lat="42.0201631" lon="19.4565445"><ele>10.0</ele><time>2026-05-03T14:14:20.689Z</time></trkpt><trkpt lat="42.0200023" lon="19.4564734"><ele>10.0</ele><time>2026-05-03T14:14:21.689Z</time></trkpt><trkpt lat="42.0198372" lon="19.4563616"><ele>10.0</ele><time>2026-05-03T14:14:22.689Z</time></trkpt><trkpt lat="42.019691" lon="19.4562592"><ele>10.25</ele><time>2026-05-03T14:14:23.69Z</time></trkpt><trkpt lat="42.0195486" lon="19.4561565"><ele>10.5</ele><time>2026-05-03T14:14:24.689Z</time></trkpt><trkpt lat="42.01942" lon="19.4560575"><ele>10.75</ele><time>2026-05-03T14:14:25.689Z</time></trkpt><trkpt lat="42.0193022" lon="19.4559621"><ele>11.0</ele><time>2026-05-03T14:14:26.69Z</time></trkpt><trkpt lat="42.0191951" lon="19.4558808"><ele>10.25</ele><time>2026-05-03T14:14:27.689Z</time></trkpt><trkpt lat="42.0190879" lon="19.4557958"><ele>9.5</ele><time>2026-05-03T14:14:28.69Z</time></trkpt><trkpt lat="42.0189873" lon="19.4557021"><ele>8.75</ele><time>2026-05-03T14:14:29.689Z</time></trkpt><trkpt lat="42.0188872" lon="19.4555827"><ele>8.0</ele><time>2026-05-03T14:14:30.69Z</time></trkpt><trkpt lat="42.0187944" lon="19.4554241"><ele>8.0</ele><time>2026-05-03T14:14:31.69Z</time></trkpt><trkpt lat="42.0186913" lon="19.4552417"><ele>8.0</ele><time>2026-05-03T14:14:32.69Z</time></trkpt><trkpt lat="42.0185995" lon="19.4550748"><ele>8.0</ele><time>2026-05-03T14:14:33.69Z</time></trkpt><trkpt lat="42.0185157" lon="19.4549166"><ele>8.0</ele><time>2026-05-03T14:14:34.689Z</time></trkpt><trkpt lat="42.018434" lon="19.4547623"><ele>8.0</ele><time>2026-05-03T14:14:35.69Z</time></trkpt><trkpt lat="42.0183496" lon="19.4545993"><ele>8.0</ele><time>2026-05-03T14:14:36.689Z</time></trkpt><trkpt lat="42.0182647" lon="19.4544314"><ele>8.0</ele><time>2026-05-03T14:14:37.69Z</time></trkpt><trkpt lat="42.0181699" lon="19.4542736"><ele>8.25</ele><time>2026-05-03T14:14:38.689Z</time></trkpt><trkpt lat="42.0180845" lon="19.4541146"><ele>8.5</ele><time>2026-05-03T14:14:39.689Z</time></trkpt><trkpt lat="42.017992" lon="19.453954"><ele>8.75</ele><time>2026-05-03T14:14:40.69Z</time></trkpt><trkpt lat="42.0179104" lon="19.4538024"><ele>9.0</ele><time>2026-05-03T14:14:41.69Z</time></trkpt><trkpt lat="42.017837" lon="19.4536409"><ele>9.0</ele><time>2026-05-03T14:14:42.69Z</time></trkpt><trkpt lat="42.0177482" lon="19.4534861"><ele>9.0</ele><time>2026-05-03T14:14:43.689Z</time></trkpt><trkpt lat="42.017675" lon="19.4533045"><ele>9.0</ele><time>2026-05-03T14:14:44.69Z</time></trkpt><trkpt lat="42.0176093" lon="19.4531178"><ele>8.0</ele><time>2026-05-03T14:14:45.689Z</time></trkpt><trkpt lat="42.0175499" lon="19.4529241"><ele>7.0</ele><time>2026-05-03T14:14:46.69Z</time></trkpt><trkpt lat="42.0174914" lon="19.4527407"><ele>6.0</ele><time>2026-05-03T14:14:47.69Z</time></trkpt><trkpt lat="42.0174365" lon="19.4525504"><ele>6.0</ele><time>2026-05-03T14:14:48.689Z</time></trkpt><trkpt lat="42.0173787" lon="19.4523592"><ele>6.0</ele><time>2026-05-03T14:14:49.689Z</time></trkpt><trkpt lat="42.0173257" lon="19.4521623"><ele>6.0</ele><time>2026-05-03T14:14:50.69Z</time></trkpt><trkpt lat="42.017269" lon="19.4519611"><ele>6.0</ele><time>2026-05-03T14:14:51.689Z</time></trkpt><trkpt lat="42.0172047" lon="19.4517228"><ele>6.0</ele><time>2026-05-03T14:14:52.689Z</time></trkpt><trkpt lat="42.017146" lon="19.4514454"><ele>6.0</ele><time>2026-05-03T14:14:53.69Z</time></trkpt><trkpt lat="42.0170909" lon="19.4511602"><ele>6.0</ele><time>2026-05-03T14:14:54.689Z</time></trkpt><trkpt lat="42.0170431" lon="19.4509001"><ele>6.0</ele><time>2026-05-03T14:14:55.689Z</time></trkpt><trkpt lat="42.017" lon="19.4506672"><ele>6.0</ele><time>2026-05-03T14:14:56.69Z</time></trkpt><trkpt lat="42.0169698" lon="19.4504608"><ele>6.333333333333334</ele><time>2026-05-03T14:14:57.69Z</time></trkpt><trkpt lat="42.0169633" lon="19.450253"><ele>6.666666666666667</ele><time>2026-05-03T14:14:58.689Z</time></trkpt><trkpt lat="42.0169589" lon="19.4500238"><ele>7.0</ele><time>2026-05-03T14:14:59.689Z</time></trkpt><trkpt lat="42.0169595" lon="19.4497875"><ele>7.333333333333334</ele><time>2026-05-03T14:15:00.69Z</time></trkpt><trkpt lat="42.0169666" lon="19.4495523"><ele>7.666666666666666</ele><time>2026-05-03T14:15:01.689Z</time></trkpt><trkpt lat="42.016965" lon="19.4492955"><ele>8.0</ele><time>2026-05-03T14:15:02.689Z</time></trkpt><trkpt lat="42.016987" lon="19.4490085"><ele>9.5</ele><time>2026-05-03T14:15:03.69Z</time></trkpt><trkpt lat="42.0170076" lon="19.4487014"><ele>11.0</ele><time>2026-05-03T14:15:04.689Z</time></trkpt><trkpt lat="42.0170562" lon="19.4484028"><ele>11.0</ele><time>2026-05-03T14:15:05.689Z</time></trkpt><trkpt lat="42.0170996" lon="19.4481179"><ele>11.0</ele><time>2026-05-03T14:15:06.69Z</time></trkpt><trkpt lat="42.0171451" lon="19.4478693"><ele>11.0</ele><time>2026-05-03T14:15:07.69Z</time></trkpt><trkpt lat="42.0171805" lon="19.4476362"><ele>12.75</ele><time>2026-05-03T14:15:08.69Z</time></trkpt><trkpt lat="42.0172088" lon="19.4474415"><ele>14.5</ele><time>2026-05-03T14:15:09.689Z</time></trkpt><trkpt lat="42.0172314" lon="19.4472622"><ele>16.25</ele><time>2026-05-03T14:15:10.689Z</time></trkpt><trkpt lat="42.0172282" lon="19.4471031"><ele>18.0</ele><time>2026-05-03T14:15:11.689Z</time></trkpt><trkpt lat="42.0171949" lon="19.4469582"><ele>18.75</ele><time>2026-05-03T14:15:12.69Z</time></trkpt><trkpt lat="42.0171373" lon="19.4468255"><ele>19.5</ele><time>2026-05-03T14:15:13.69Z</time></trkpt><trkpt lat="42.0170409" lon="19.4467099"><ele>20.25</ele><time>2026-05-03T14:15:14.689Z</time></trkpt><trkpt lat="42.016917" lon="19.4466134"><ele>21.0</ele><time>2026-05-03T14:15:15.69Z</time></trkpt><trkpt lat="42.0167918" lon="19.4465405"><ele>21.0</ele><time>2026-05-03T14:15:16.689Z</time></trkpt><trkpt lat="42.0166806" lon="19.446467"><ele>21.0</ele><time>2026-05-03T14:15:17.69Z</time></trkpt><trkpt lat="42.01659" lon="19.4463687"><ele>21.0</ele><time>2026-05-03T14:15:18.69Z</time></trkpt><trkpt lat="42.0165347" lon="19.44624"><ele>21.0</ele><time>2026-05-03T14:15:19.69Z</time></trkpt><trkpt lat="42.0164927" lon="19.4460959"><ele>23.0</ele><time>2026-05-03T14:15:20.689Z</time></trkpt><trkpt lat="42.0165009" lon="19.4458738"><ele>25.0</ele><time>2026-05-03T14:15:21.69Z</time></trkpt><trkpt lat="42.0165108" lon="19.4456347"><ele>27.0</ele><time>2026-05-03T14:15:22.689Z</time></trkpt><trkpt lat="42.0165149" lon="19.4453772"><ele>27.0</ele><time>2026-05-03T14:15:23.689Z</time></trkpt><trkpt lat="42.0165157" lon="19.4451216"><ele>27.0</ele><time>2026-05-03T14:15:24.69Z</time></trkpt><trkpt lat="42.0165131" lon="19.4448796"><ele>27.0</ele><time>2026-05-03T14:15:25.689Z</time></trkpt><trkpt lat="42.0165049" lon="19.4446444"><ele>24.0</ele><time>2026-05-03T14:15:26.689Z</time></trkpt><trkpt lat="42.0164848" lon="19.4444157"><ele>21.0</ele><time>2026-05-03T14:15:27.69Z</time></trkpt><trkpt lat="42.0164507" lon="19.4441807"><ele>18.0</ele><time>2026-05-03T14:15:28.689Z</time></trkpt><trkpt lat="42.016404" lon="19.4439455"><ele>17.0</ele><time>2026-05-03T14:15:29.69Z</time></trkpt><trkpt lat="42.0163664" lon="19.4437233"><ele>16.0</ele><time>2026-05-03T14:15:30.69Z</time></trkpt><trkpt lat="42.0163298" lon="19.4435131"><ele>15.0</ele><time>2026-05-03T14:15:31.69Z</time></trkpt><trkpt lat="42.0162908" lon="19.4433106"><ele>15.0</ele><time>2026-05-03T14:15:32.689Z</time></trkpt><trkpt lat="42.016248" lon="19.4431151"><ele>15.0</ele><time>2026-05-03T14:15:33.69Z</time></trkpt><trkpt lat="42.0162081" lon="19.4429206"><ele>15.0</ele><time>2026-05-03T14:15:34.689Z</time></trkpt><trkpt lat="42.0161733" lon="19.4427261"><ele>15.333333333333332</ele><time>2026-05-03T14:15:35.69Z</time></trkpt><trkpt lat="42.0161314" lon="19.442536"><ele>15.666666666666666</ele><time>2026-05-03T14:15:36.69Z</time></trkpt><trkpt lat="42.0160691" lon="19.4423286"><ele>16.0</ele><time>2026-05-03T14:15:37.69Z</time></trkpt><trkpt lat="42.0159924" lon="19.4421307"><ele>16.0</ele><time>2026-05-03T14:15:38.689Z</time></trkpt><trkpt lat="42.0159062" lon="19.4419258"><ele>16.0</ele><time>2026-05-03T14:15:39.69Z</time></trkpt><trkpt lat="42.0158141" lon="19.4417207"><ele>16.0</ele><time>2026-05-03T14:15:40.689Z</time></trkpt><trkpt lat="42.0157318" lon="19.4415359"><ele>15.75</ele><time>2026-05-03T14:15:41.689Z</time></trkpt><trkpt lat="42.0156496" lon="19.4413631"><ele>15.5</ele><time>2026-05-03T14:15:42.689Z</time></trkpt><trkpt lat="42.0155727" lon="19.4411962"><ele>15.25</ele><time>2026-05-03T14:15:43.69Z</time></trkpt><trkpt lat="42.015503" lon="19.4410403"><ele>15.0</ele><time>2026-05-03T14:15:44.689Z</time></trkpt><trkpt lat="42.0154342" lon="19.4408913"><ele>14.8</ele><time>2026-05-03T14:15:45.69Z</time></trkpt><trkpt lat="42.0153843" lon="19.4407633"><ele>14.6</ele><time>2026-05-03T14:15:46.69Z</time></trkpt><trkpt lat="42.015346" lon="19.4406241"><ele>14.399999999999999</ele><time>2026-05-03T14:15:47.69Z</time></trkpt><trkpt lat="42.0153202" lon="19.4405031"><ele>14.2</ele><time>2026-05-03T14:15:48.69Z</time></trkpt><trkpt lat="42.0153195" lon="19.440388"><ele>14.0</ele><time>2026-05-03T14:15:49.69Z</time></trkpt><trkpt lat="42.015344" lon="19.4402572"><ele>13.75</ele><time>2026-05-03T14:15:50.689Z</time></trkpt><trkpt lat="42.01538" lon="19.4401218"><ele>13.5</ele><time>2026-05-03T14:15:51.69Z</time></trkpt><trkpt lat="42.0154548" lon="19.4399875"><ele>13.25</ele><time>2026-05-03T14:15:52.69Z</time></trkpt><trkpt lat="42.0155187" lon="19.4398461"><ele>13.0</ele><time>2026-05-03T14:15:53.689Z</time></trkpt><trkpt lat="42.0155702" lon="19.4396942"><ele>12.25</ele><time>2026-05-03T14:15:54.69Z</time></trkpt><trkpt lat="42.0156197" lon="19.4395168"><ele>11.5</ele><time>2026-05-03T14:15:55.69Z</time></trkpt><trkpt lat="42.0156549" lon="19.4393398"><ele>10.75</ele><time>2026-05-03T14:15:56.689Z</time></trkpt><trkpt lat="42.0156832" lon="19.4391713"><ele>10.0</ele><time>2026-05-03T14:15:57.69Z</time></trkpt><trkpt lat="42.0157066" lon="19.4389927"><ele>10.333333333333334</ele><time>2026-05-03T14:15:58.689Z</time></trkpt><trkpt lat="42.0156997" lon="19.4387991"><ele>10.666666666666666</ele><time>2026-05-03T14:15:59.69Z</time></trkpt><trkpt lat="42.0156391" lon="19.4386053"><ele>11.0</ele><time>2026-05-03T14:16:00.689Z</time></trkpt><trkpt lat="42.0155848" lon="19.438415"><ele>11.0</ele><time>2026-05-03T14:16:01.69Z</time></trkpt><trkpt lat="42.0155359" lon="19.4382332"><ele>11.0</ele><time>2026-05-03T14:16:02.689Z</time></trkpt><trkpt lat="42.0154948" lon="19.43805"><ele>11.0</ele><time>2026-05-03T14:16:03.69Z</time></trkpt><trkpt lat="42.0154658" lon="19.4378841"><ele>11.0</ele><time>2026-05-03T14:16:04.69Z</time></trkpt><trkpt lat="42.0154406" lon="19.4377005"><ele>11.0</ele><time>2026-05-03T14:16:05.69Z</time></trkpt><trkpt lat="42.0154337" lon="19.4375179"><ele>11.0</ele><time>2026-05-03T14:16:06.69Z</time></trkpt><trkpt lat="42.0154441" lon="19.4373117"><ele>11.0</ele><time>2026-05-03T14:16:07.69Z</time></trkpt><trkpt lat="42.0154675" lon="19.4371064"><ele>11.0</ele><time>2026-05-03T14:16:08.69Z</time></trkpt><trkpt lat="42.0154951" lon="19.4369091"><ele>11.0</ele><time>2026-05-03T14:16:09.69Z</time></trkpt><trkpt lat="42.0155326" lon="19.4367135"><ele>11.0</ele><time>2026-05-03T14:16:10.689Z</time></trkpt><trkpt lat="42.0155662" lon="19.4365207"><ele>11.0</ele><time>2026-05-03T14:16:11.689Z</time></trkpt><trkpt lat="42.0155963" lon="19.4363432"><ele>11.0</ele><time>2026-05-03T14:16:12.69Z</time></trkpt><trkpt lat="42.0156204" lon="19.436174"><ele>11.5</ele><time>2026-05-03T14:16:13.689Z</time></trkpt><trkpt lat="42.0156276" lon="19.4360169"><ele>12.0</ele><time>2026-05-03T14:16:14.689Z</time></trkpt><trkpt lat="42.0156149" lon="19.4358534"><ele>12.5</ele><time>2026-05-03T14:16:15.689Z</time></trkpt><trkpt lat="42.0155918" lon="19.4356836"><ele>13.0</ele><time>2026-05-03T14:16:16.69Z</time></trkpt><trkpt lat="42.0155557" lon="19.4355172"><ele>12.5</ele><time>2026-05-03T14:16:17.69Z</time></trkpt><trkpt lat="42.0155188" lon="19.4353415"><ele>12.0</ele><time>2026-05-03T14:16:18.69Z</time></trkpt><trkpt lat="42.0154794" lon="19.4351742"><ele>11.5</ele><time>2026-05-03T14:16:19.689Z</time></trkpt><trkpt lat="42.0154494" lon="19.4349994"><ele>11.0</ele><time>2026-05-03T14:16:20.689Z</time></trkpt><trkpt lat="42.0154247" lon="19.4348066"><ele>10.666666666666666</ele><time>2026-05-03T14:16:21.689Z</time></trkpt><trkpt lat="42.0154096" lon="19.4345956"><ele>10.333333333333334</ele><time>2026-05-03T14:16:22.689Z</time></trkpt><trkpt lat="42.0153983" lon="19.4343801"><ele>10.0</ele><time>2026-05-03T14:16:23.689Z</time></trkpt><trkpt lat="42.0153873" lon="19.4341552"><ele>10.0</ele><time>2026-05-03T14:16:24.689Z</time></trkpt><trkpt lat="42.0153704" lon="19.4339218"><ele>10.0</ele><time>2026-05-03T14:16:25.689Z</time></trkpt><trkpt lat="42.0153504" lon="19.433677"><ele>10.0</ele><time>2026-05-03T14:16:26.69Z</time></trkpt><trkpt lat="42.0153328" lon="19.4334221"><ele>9.666666666666668</ele><time>2026-05-03T14:16:27.69Z</time></trkpt><trkpt lat="42.0153155" lon="19.4331721"><ele>9.333333333333334</ele><time>2026-05-03T14:16:28.69Z</time></trkpt><trkpt lat="42.0152964" lon="19.4329207"><ele>9.0</ele><time>2026-05-03T14:16:29.689Z</time></trkpt><trkpt lat="42.0152744" lon="19.4326625"><ele>9.0</ele><time>2026-05-03T14:16:30.689Z</time></trkpt><trkpt lat="42.0152519" lon="19.4324123"><ele>9.0</ele><time>2026-05-03T14:16:31.689Z</time></trkpt><trkpt lat="42.0152249" lon="19.43216"><ele>9.0</ele><time>2026-05-03T14:16:32.69Z</time></trkpt><trkpt lat="42.0151958" lon="19.4319207"><ele>8.333333333333334</ele><time>2026-05-03T14:16:33.69Z</time></trkpt><trkpt lat="42.0151698" lon="19.4316901"><ele>7.666666666666667</ele><time>2026-05-03T14:16:34.689Z</time></trkpt><trkpt lat="42.0151412" lon="19.4314692"><ele>7.0</ele><time>2026-05-03T14:16:35.69Z</time></trkpt><trkpt lat="42.0151248" lon="19.4312654"><ele>7.0</ele><time>2026-05-03T14:16:36.689Z</time></trkpt><trkpt lat="42.015108" lon="19.4310806"><ele>7.0</ele><time>2026-05-03T14:16:37.69Z</time></trkpt><trkpt lat="42.0150924" lon="19.430903"><ele>7.0</ele><time>2026-05-03T14:16:38.689Z</time></trkpt><trkpt lat="42.0150718" lon="19.4307267"><ele>7.0</ele><time>2026-05-03T14:16:39.689Z</time></trkpt><trkpt lat="42.0150981" lon="19.4305276"><ele>8.0</ele><time>2026-05-03T14:16:40.689Z</time></trkpt><trkpt lat="42.0151321" lon="19.4303051"><ele>9.0</ele><time>2026-05-03T14:16:41.689Z</time></trkpt><trkpt lat="42.0151726" lon="19.4300667"><ele>10.0</ele><time>2026-05-03T14:16:42.689Z</time></trkpt><trkpt lat="42.0152148" lon="19.4298373"><ele>9.333333333333334</ele><time>2026-05-03T14:16:43.69Z</time></trkpt><trkpt lat="42.0152532" lon="19.4296157"><ele>8.666666666666666</ele><time>2026-05-03T14:16:44.689Z</time></trkpt><trkpt lat="42.0152903" lon="19.4294045"><ele>8.0</ele><time>2026-05-03T14:16:45.689Z</time></trkpt><trkpt lat="42.0153322" lon="19.429205"><ele>8.0</ele><time>2026-05-03T14:16:46.69Z</time></trkpt><trkpt lat="42.0153844" lon="19.42901"><ele>8.0</ele><time>2026-05-03T14:16:47.69Z</time></trkpt><trkpt lat="42.015442" lon="19.4288258"><ele>8.0</ele><time>2026-05-03T14:16:48.689Z</time></trkpt><trkpt lat="42.0155238" lon="19.4286432"><ele>7.5</ele><time>2026-05-03T14:16:49.69Z</time></trkpt><trkpt lat="42.0156135" lon="19.4284565"><ele>7.0</ele><time>2026-05-03T14:16:50.69Z</time></trkpt><trkpt lat="42.0156814" lon="19.4283036"><ele>6.5</ele><time>2026-05-03T14:16:51.69Z</time></trkpt><trkpt lat="42.015732" lon="19.4281616"><ele>6.0</ele><time>2026-05-03T14:16:52.69Z</time></trkpt><trkpt lat="42.015768" lon="19.4280218"><ele>5.75</ele><time>2026-05-03T14:16:53.689Z</time></trkpt><trkpt lat="42.0157796" lon="19.4278803"><ele>5.5</ele><time>2026-05-03T14:16:54.689Z</time></trkpt><trkpt lat="42.0157511" lon="19.4277355"><ele>5.25</ele><time>2026-05-03T14:16:55.69Z</time></trkpt><trkpt lat="42.0156807" lon="19.4275868"><ele>5.0</ele><time>2026-05-03T14:16:56.689Z</time></trkpt><trkpt lat="42.0155681" lon="19.4274259"><ele>5.0</ele><time>2026-05-03T14:16:57.689Z</time></trkpt><trkpt lat="42.01542" lon="19.4272494"><ele>5.0</ele><time>2026-05-03T14:16:58.69Z</time></trkpt><trkpt lat="42.0152466" lon="19.4270696"><ele>5.0</ele><time>2026-05-03T14:16:59.69Z</time></trkpt><trkpt lat="42.0150695" lon="19.4268792"><ele>5.0</ele><time>2026-05-03T14:17:00.69Z</time></trkpt><trkpt lat="42.0148826" lon="19.4266918"><ele>5.0</ele><time>2026-05-03T14:17:01.689Z</time></trkpt><trkpt lat="42.0146928" lon="19.4264891"><ele>5.5</ele><time>2026-05-03T14:17:02.69Z</time></trkpt><trkpt lat="42.0145128" lon="19.4262912"><ele>6.0</ele><time>2026-05-03T14:17:03.69Z</time></trkpt><trkpt lat="42.0143255" lon="19.426088"><ele>6.0</ele><time>2026-05-03T14:17:04.689Z</time></trkpt><trkpt lat="42.0141473" lon="19.4258959"><ele>6.0</ele><time>2026-05-03T14:17:05.689Z</time></trkpt><trkpt lat="42.0139762" lon="19.425705"><ele>6.0</ele><time>2026-05-03T14:17:06.689Z</time></trkpt><trkpt lat="42.0138084" lon="19.4255258"><ele>6.0</ele><time>2026-05-03T14:17:07.69Z</time></trkpt><trkpt lat="42.0136463" lon="19.4253506"><ele>6.0</ele><time>2026-05-03T14:17:08.69Z</time></trkpt><trkpt lat="42.0134835" lon="19.4251819"><ele>5.333333333333333</ele><time>2026-05-03T14:17:09.69Z</time></trkpt><trkpt lat="42.0133168" lon="19.4249934"><ele>4.666666666666666</ele><time>2026-05-03T14:17:10.69Z</time></trkpt><trkpt lat="42.0131504" lon="19.4248021"><ele>4.0</ele><time>2026-05-03T14:17:11.689Z</time></trkpt><trkpt lat="42.0129795" lon="19.4246018"><ele>3.5</ele><time>2026-05-03T14:17:12.689Z</time></trkpt><trkpt lat="42.0128039" lon="19.4243878"><ele>3.0</ele><time>2026-05-03T14:17:13.69Z</time></trkpt><trkpt lat="42.0126315" lon="19.4241822"><ele>3.0</ele><time>2026-05-03T14:17:14.69Z</time></trkpt><trkpt lat="42.0124619" lon="19.4239761"><ele>3.0</ele><time>2026-05-03T14:17:15.69Z</time></trkpt><trkpt lat="42.01229" lon="19.4237677"><ele>3.0</ele><time>2026-05-03T14:17:16.689Z</time></trkpt><trkpt lat="42.0121175" lon="19.4235615"><ele>3.0</ele><time>2026-05-03T14:17:17.69Z</time></trkpt><trkpt lat="42.0119734" lon="19.4233406"><ele>3.0</ele><time>2026-05-03T14:17:18.689Z</time></trkpt><trkpt lat="42.0118034" lon="19.4231385"><ele>3.0</ele><time>2026-05-03T14:17:19.689Z</time></trkpt><trkpt lat="42.0116334" lon="19.422933"><ele>3.0</ele><time>2026-05-03T14:17:20.689Z</time></trkpt><trkpt lat="42.0114719" lon="19.4227349"><ele>3.0</ele><time>2026-05-03T14:17:21.689Z</time></trkpt><trkpt lat="42.0113126" lon="19.4225468"><ele>3.0</ele><time>2026-05-03T14:17:22.69Z</time></trkpt><trkpt lat="42.0111712" lon="19.4223673"><ele>3.0</ele><time>2026-05-03T14:17:23.69Z</time></trkpt><trkpt lat="42.0110319" lon="19.4222015"><ele>3.0</ele><time>2026-05-03T14:17:24.69Z</time></trkpt><trkpt lat="42.0109148" lon="19.4220555"><ele>3.25</ele><time>2026-05-03T14:17:25.689Z</time></trkpt><trkpt lat="42.010802" lon="19.4219192"><ele>3.5</ele><time>2026-05-03T14:17:26.69Z</time></trkpt><trkpt lat="42.0106965" lon="19.4218006"><ele>3.75</ele><time>2026-05-03T14:17:27.69Z</time></trkpt><trkpt lat="42.0105929" lon="19.4216953"><ele>4.0</ele><time>2026-05-03T14:17:28.69Z</time></trkpt><trkpt lat="42.0105078" lon="19.4215756"><ele>4.0</ele><time>2026-05-03T14:17:29.69Z</time></trkpt><trkpt lat="42.0104447" lon="19.4214377"><ele>4.0</ele><time>2026-05-03T14:17:30.69Z</time></trkpt><trkpt lat="42.010394" lon="19.4212734"><ele>4.0</ele><time>2026-05-03T14:17:31.689Z</time></trkpt><trkpt lat="42.01037" lon="19.4210825"><ele>4.0</ele><time>2026-05-03T14:17:32.69Z</time></trkpt><trkpt lat="42.0103578" lon="19.4208726"><ele>4.666666666666666</ele><time>2026-05-03T14:17:33.689Z</time></trkpt><trkpt lat="42.0103488" lon="19.4206656"><ele>5.333333333333333</ele><time>2026-05-03T14:17:34.69Z</time></trkpt><trkpt lat="42.0103342" lon="19.4204584"><ele>6.0</ele><time>2026-05-03T14:17:35.689Z</time></trkpt><trkpt lat="42.0103309" lon="19.4202523"><ele>6.25</ele><time>2026-05-03T14:17:36.69Z</time></trkpt><trkpt lat="42.0103328" lon="19.4200619"><ele>6.5</ele><time>2026-05-03T14:17:37.69Z</time></trkpt><trkpt lat="42.0103506" lon="19.4198603"><ele>6.75</ele><time>2026-05-03T14:17:38.689Z</time></trkpt><trkpt lat="42.0103787" lon="19.4196539"><ele>7.0</ele><time>2026-05-03T14:17:39.689Z</time></trkpt><trkpt lat="42.0104078" lon="19.4194463"><ele>7.0</ele><time>2026-05-03T14:17:40.69Z</time></trkpt><trkpt lat="42.0104274" lon="19.4192458"><ele>7.0</ele><time>2026-05-03T14:17:41.69Z</time></trkpt><trkpt lat="42.0104381" lon="19.4190353"><ele>7.0</ele><time>2026-05-03T14:17:42.689Z</time></trkpt><trkpt lat="42.0104349" lon="19.4188207"><ele>6.25</ele><time>2026-05-03T14:17:43.69Z</time></trkpt><trkpt lat="42.0104339" lon="19.4186121"><ele>5.5</ele><time>2026-05-03T14:17:44.69Z</time></trkpt><trkpt lat="42.0104311" lon="19.4184142"><ele>4.75</ele><time>2026-05-03T14:17:45.69Z</time></trkpt><trkpt lat="42.0104592" lon="19.4182194"><ele>4.0</ele><time>2026-05-03T14:17:46.69Z</time></trkpt><trkpt lat="42.0105074" lon="19.4180198"><ele>3.6666666666666665</ele><time>2026-05-03T14:17:47.689Z</time></trkpt><trkpt lat="42.0105454" lon="19.4178174"><ele>3.333333333333333</ele><time>2026-05-03T14:17:48.69Z</time></trkpt><trkpt lat="42.0105783" lon="19.4175958"><ele>3.0</ele><time>2026-05-03T14:17:49.69Z</time></trkpt><trkpt lat="42.0106151" lon="19.4173652"><ele>4.0</ele><time>2026-05-03T14:17:50.69Z</time></trkpt><trkpt lat="42.0106497" lon="19.4171402"><ele>5.0</ele><time>2026-05-03T14:17:51.689Z</time></trkpt><trkpt lat="42.0106797" lon="19.4169181"><ele>6.0</ele><time>2026-05-03T14:17:52.689Z</time></trkpt><trkpt lat="42.0107082" lon="19.4167023"><ele>6.0</ele><time>2026-05-03T14:17:53.689Z</time></trkpt><trkpt lat="42.0107462" lon="19.4164806"><ele>6.0</ele><time>2026-05-03T14:17:54.689Z</time></trkpt><trkpt lat="42.0107875" lon="19.4162539"><ele>6.0</ele><time>2026-05-03T14:17:55.69Z</time></trkpt><trkpt lat="42.010835" lon="19.4160215"><ele>6.333333333333334</ele><time>2026-05-03T14:17:56.69Z</time></trkpt><trkpt lat="42.0108717" lon="19.4157966"><ele>6.666666666666667</ele><time>2026-05-03T14:17:57.69Z</time></trkpt><trkpt lat="42.010908" lon="19.4155721"><ele>7.0</ele><time>2026-05-03T14:17:58.689Z</time></trkpt><trkpt lat="42.0109445" lon="19.4153587"><ele>7.0</ele><time>2026-05-03T14:17:59.69Z</time></trkpt><trkpt lat="42.0109771" lon="19.4151324"><ele>7.0</ele><time>2026-05-03T14:18:00.689Z</time></trkpt><trkpt lat="42.0110155" lon="19.4149174"><ele>7.0</ele><time>2026-05-03T14:18:01.689Z</time></trkpt><trkpt lat="42.011057" lon="19.4147121"><ele>7.25</ele><time>2026-05-03T14:18:02.69Z</time></trkpt><trkpt lat="42.0110863" lon="19.4145249"><ele>7.5</ele><time>2026-05-03T14:18:03.69Z</time></trkpt><trkpt lat="42.0111172" lon="19.4143216"><ele>7.75</ele><time>2026-05-03T14:18:04.69Z</time></trkpt><trkpt lat="42.0111406" lon="19.4141337"><ele>8.0</ele><time>2026-05-03T14:18:05.69Z</time></trkpt><trkpt lat="42.0111719" lon="19.4139501"><ele>7.25</ele><time>2026-05-03T14:18:06.69Z</time></trkpt><trkpt lat="42.0112101" lon="19.4137681"><ele>6.5</ele><time>2026-05-03T14:18:07.69Z</time></trkpt><trkpt lat="42.0112433" lon="19.413585"><ele>5.75</ele><time>2026-05-03T14:18:08.69Z</time></trkpt><trkpt lat="42.0112794" lon="19.4134112"><ele>5.0</ele><time>2026-05-03T14:18:09.69Z</time></trkpt><trkpt lat="42.0113182" lon="19.4132167"><ele>5.0</ele><time>2026-05-03T14:18:10.689Z</time></trkpt><trkpt lat="42.0113476" lon="19.4130361"><ele>5.0</ele><time>2026-05-03T14:18:11.69Z</time></trkpt><trkpt lat="42.0113866" lon="19.412843"><ele>5.0</ele><time>2026-05-03T14:18:12.69Z</time></trkpt><trkpt lat="42.0114164" lon="19.4126487"><ele>5.0</ele><time>2026-05-03T14:18:13.69Z</time></trkpt><trkpt lat="42.0114533" lon="19.4124589"><ele>4.5</ele><time>2026-05-03T14:18:14.69Z</time></trkpt><trkpt lat="42.0114845" lon="19.4123011"><ele>4.0</ele><time>2026-05-03T14:18:15.69Z</time></trkpt><trkpt lat="42.0115343" lon="19.4121147"><ele>3.5</ele><time>2026-05-03T14:18:16.689Z</time></trkpt><trkpt lat="42.0115908" lon="19.4119268"><ele>3.0</ele><time>2026-05-03T14:18:17.69Z</time></trkpt><trkpt lat="42.0116446" lon="19.4117269"><ele>3.0</ele><time>2026-05-03T14:18:18.69Z</time></trkpt><trkpt lat="42.0117029" lon="19.4115305"><ele>3.0</ele><time>2026-05-03T14:18:19.69Z</time></trkpt><trkpt lat="42.0117648" lon="19.4113443"><ele>3.0</ele><time>2026-05-03T14:18:20.689Z</time></trkpt><trkpt lat="42.0118187" lon="19.4111446"><ele>3.0</ele><time>2026-05-03T14:18:21.69Z</time></trkpt><trkpt lat="42.01188" lon="19.4109458"><ele>3.0</ele><time>2026-05-03T14:18:22.69Z</time></trkpt><trkpt lat="42.0119298" lon="19.41076"><ele>3.0</ele><time>2026-05-03T14:18:23.69Z</time></trkpt><trkpt lat="42.0119767" lon="19.4105639"><ele>3.25</ele><time>2026-05-03T14:18:24.689Z</time></trkpt><trkpt lat="42.0120212" lon="19.410377"><ele>3.5</ele><time>2026-05-03T14:18:25.69Z</time></trkpt><trkpt lat="42.0120609" lon="19.4101911"><ele>3.75</ele><time>2026-05-03T14:18:26.689Z</time></trkpt><trkpt lat="42.012091" lon="19.4100157"><ele>4.0</ele><time>2026-05-03T14:18:27.689Z</time></trkpt><trkpt lat="42.0121227" lon="19.4098549"><ele>4.0</ele><time>2026-05-03T14:18:28.689Z</time></trkpt><trkpt lat="42.0121529" lon="19.4096977"><ele>4.0</ele><time>2026-05-03T14:18:29.689Z</time></trkpt><trkpt lat="42.0121791" lon="19.4095663"><ele>4.0</ele><time>2026-05-03T14:18:30.69Z</time></trkpt><trkpt lat="42.0122088" lon="19.4094569"><ele>4.0</ele><time>2026-05-03T14:18:31.69Z</time></trkpt><trkpt lat="42.012233" lon="19.4093141"><ele>4.0</ele><time>2026-05-03T14:18:32.689Z</time></trkpt><trkpt lat="42.0122562" lon="19.4091528"><ele>4.0</ele><time>2026-05-03T14:18:33.69Z</time></trkpt><trkpt lat="42.0122994" lon="19.408936"><ele>4.0</ele><time>2026-05-03T14:18:34.69Z</time></trkpt><trkpt lat="42.0123519" lon="19.4087259"><ele>4.0</ele><time>2026-05-03T14:18:35.689Z</time></trkpt><trkpt lat="42.0124022" lon="19.4085201"><ele>4.0</ele><time>2026-05-03T14:18:36.69Z</time></trkpt><trkpt lat="42.0124521" lon="19.4083166"><ele>4.0</ele><time>2026-05-03T14:18:37.689Z</time></trkpt><trkpt lat="42.0125015" lon="19.4081164"><ele>4.0</ele><time>2026-05-03T14:18:38.69Z</time></trkpt><trkpt lat="42.0125565" lon="19.4079171"><ele>4.0</ele><time>2026-05-03T14:18:39.689Z</time></trkpt><trkpt lat="42.0126183" lon="19.4077369"><ele>4.0</ele><time>2026-05-03T14:18:40.689Z</time></trkpt><trkpt lat="42.0126959" lon="19.4075347"><ele>4.0</ele><time>2026-05-03T14:18:41.689Z</time></trkpt><trkpt lat="42.0127775" lon="19.4073397"><ele>4.333333333333333</ele><time>2026-05-03T14:18:42.69Z</time></trkpt><trkpt lat="42.0128641" lon="19.4071352"><ele>4.666666666666667</ele><time>2026-05-03T14:18:43.69Z</time></trkpt><trkpt lat="42.0129397" lon="19.4069372"><ele>5.0</ele><time>2026-05-03T14:18:44.689Z</time></trkpt><trkpt lat="42.013017" lon="19.4067434"><ele>5.0</ele><time>2026-05-03T14:18:45.69Z</time></trkpt><trkpt lat="42.0130892" lon="19.4065445"><ele>5.0</ele><time>2026-05-03T14:18:46.69Z</time></trkpt><trkpt lat="42.0131645" lon="19.4063452"><ele>5.0</ele><time>2026-05-03T14:18:47.69Z</time></trkpt><trkpt lat="42.0132424" lon="19.4061274"><ele>4.333333333333334</ele><time>2026-05-03T14:18:48.69Z</time></trkpt><trkpt lat="42.0133215" lon="19.4059131"><ele>3.666666666666667</ele><time>2026-05-03T14:18:49.689Z</time></trkpt><trkpt lat="42.0133975" lon="19.4057057"><ele>3.0</ele><time>2026-05-03T14:18:50.69Z</time></trkpt><trkpt lat="42.0134724" lon="19.4055113"><ele>4.0</ele><time>2026-05-03T14:18:51.689Z</time></trkpt><trkpt lat="42.0135404" lon="19.4053333"><ele>5.0</ele><time>2026-05-03T14:18:52.689Z</time></trkpt><trkpt lat="42.0136075" lon="19.4051549"><ele>6.0</ele><time>2026-05-03T14:18:53.689Z</time></trkpt><trkpt lat="42.0136691" lon="19.4049968"><ele>7.0</ele><time>2026-05-03T14:18:54.689Z</time></trkpt><trkpt lat="42.0137275" lon="19.4048454"><ele>7.0</ele><time>2026-05-03T14:18:55.689Z</time></trkpt><trkpt lat="42.013792" lon="19.4046887"><ele>7.0</ele><time>2026-05-03T14:18:56.69Z</time></trkpt><trkpt lat="42.0138512" lon="19.404523"><ele>7.0</ele><time>2026-05-03T14:18:57.69Z</time></trkpt><trkpt lat="42.0139033" lon="19.4043534"><ele>7.0</ele><time>2026-05-03T14:18:58.69Z</time></trkpt><trkpt lat="42.013953" lon="19.4041877"><ele>7.0</ele><time>2026-05-03T14:18:59.69Z</time></trkpt><trkpt lat="42.0140069" lon="19.4040355"><ele>7.0</ele><time>2026-05-03T14:19:00.69Z</time></trkpt><trkpt lat="42.0140557" lon="19.4038913"><ele>7.0</ele><time>2026-05-03T14:19:01.689Z</time></trkpt><trkpt lat="42.0141004" lon="19.4037445"><ele>7.0</ele><time>2026-05-03T14:19:02.69Z</time></trkpt><trkpt lat="42.0141477" lon="19.403593"><ele>6.75</ele><time>2026-05-03T14:19:03.69Z</time></trkpt><trkpt lat="42.0141949" lon="19.4034401"><ele>6.5</ele><time>2026-05-03T14:19:04.69Z</time></trkpt><trkpt lat="42.0142437" lon="19.4032846"><ele>6.25</ele><time>2026-05-03T14:19:05.689Z</time></trkpt><trkpt lat="42.0142924" lon="19.4031314"><ele>6.0</ele><time>2026-05-03T14:19:06.69Z</time></trkpt><trkpt lat="42.0143439" lon="19.4029555"><ele>5.5</ele><time>2026-05-03T14:19:07.69Z</time></trkpt><trkpt lat="42.0143938" lon="19.4027958"><ele>5.0</ele><time>2026-05-03T14:19:08.69Z</time></trkpt><trkpt lat="42.0144425" lon="19.4026356"><ele>4.5</ele><time>2026-05-03T14:19:09.69Z</time></trkpt><trkpt lat="42.014491" lon="19.4024774"><ele>4.0</ele><time>2026-05-03T14:19:10.689Z</time></trkpt><trkpt lat="42.014543" lon="19.4023175"><ele>4.0</ele><time>2026-05-03T14:19:11.689Z</time></trkpt><trkpt lat="42.0145941" lon="19.4021679"><ele>4.0</ele><time>2026-05-03T14:19:12.69Z</time></trkpt><trkpt lat="42.0146503" lon="19.4020133"><ele>4.0</ele><time>2026-05-03T14:19:13.689Z</time></trkpt><trkpt lat="42.0147019" lon="19.4018483"><ele>4.0</ele><time>2026-05-03T14:19:14.69Z</time></trkpt><trkpt lat="42.0147481" lon="19.4016884"><ele>3.75</ele><time>2026-05-03T14:19:15.69Z</time></trkpt><trkpt lat="42.0148001" lon="19.4015426"><ele>3.5</ele><time>2026-05-03T14:19:16.689Z</time></trkpt><trkpt lat="42.0148555" lon="19.4014026"><ele>3.25</ele><time>2026-05-03T14:19:17.689Z</time></trkpt><trkpt lat="42.0149218" lon="19.4012676"><ele>3.0</ele><time>2026-05-03T14:19:18.69Z</time></trkpt><trkpt lat="42.014998" lon="19.4011267"><ele>4.25</ele><time>2026-05-03T14:19:19.689Z</time></trkpt><trkpt lat="42.0150784" lon="19.4009917"><ele>5.5</ele><time>2026-05-03T14:19:20.689Z</time></trkpt><trkpt lat="42.0151656" lon="19.4008566"><ele>6.75</ele><time>2026-05-03T14:19:21.69Z</time></trkpt><trkpt lat="42.0152551" lon="19.4007095"><ele>8.0</ele><time>2026-05-03T14:19:22.69Z</time></trkpt><trkpt lat="42.0153446" lon="19.400557"><ele>7.75</ele><time>2026-05-03T14:19:23.69Z</time></trkpt><trkpt lat="42.015437" lon="19.4003936"><ele>7.5</ele><time>2026-05-03T14:19:24.689Z</time></trkpt><trkpt lat="42.0155281" lon="19.4002352"><ele>7.25</ele><time>2026-05-03T14:19:25.689Z</time></trkpt><trkpt lat="42.0156028" lon="19.4000872"><ele>7.0</ele><time>2026-05-03T14:19:26.689Z</time></trkpt><trkpt lat="42.0156854" lon="19.3999437"><ele>7.0</ele><time>2026-05-03T14:19:27.69Z</time></trkpt><trkpt lat="42.0157716" lon="19.3998019"><ele>7.0</ele><time>2026-05-03T14:19:28.69Z</time></trkpt><trkpt lat="42.0158526" lon="19.3996629"><ele>7.0</ele><time>2026-05-03T14:19:29.689Z</time></trkpt><trkpt lat="42.0159412" lon="19.3995231"><ele>7.0</ele><time>2026-05-03T14:19:30.689Z</time></trkpt><trkpt lat="42.0160316" lon="19.3993827"><ele>8.0</ele><time>2026-05-03T14:19:31.689Z</time></trkpt><trkpt lat="42.0161211" lon="19.3992604"><ele>9.0</ele><time>2026-05-03T14:19:32.689Z</time></trkpt><trkpt lat="42.0162217" lon="19.3991277"><ele>10.0</ele><time>2026-05-03T14:19:33.69Z</time></trkpt><trkpt lat="42.0163238" lon="19.3989945"><ele>11.0</ele><time>2026-05-03T14:19:34.69Z</time></trkpt><trkpt lat="42.016416" lon="19.398869"><ele>10.8</ele><time>2026-05-03T14:19:35.69Z</time></trkpt><trkpt lat="42.0165042" lon="19.3987549"><ele>10.600000000000001</ele><time>2026-05-03T14:19:36.69Z</time></trkpt><trkpt lat="42.0165809" lon="19.3986545"><ele>10.4</ele><time>2026-05-03T14:19:37.69Z</time></trkpt><trkpt lat="42.0166489" lon="19.3985576"><ele>10.2</ele><time>2026-05-03T14:19:38.69Z</time></trkpt><trkpt lat="42.0167135" lon="19.3984656"><ele>10.0</ele><time>2026-05-03T14:19:39.689Z</time></trkpt><trkpt lat="42.0167736" lon="19.3983813"><ele>10.5</ele><time>2026-05-03T14:19:40.69Z</time></trkpt><trkpt lat="42.0168296" lon="19.398303"><ele>11.0</ele><time>2026-05-03T14:19:41.689Z</time></trkpt><trkpt lat="42.0168754" lon="19.3982283"><ele>11.5</ele><time>2026-05-03T14:19:42.689Z</time></trkpt><trkpt lat="42.0169222" lon="19.3981585"><ele>12.0</ele><time>2026-05-03T14:19:43.69Z</time></trkpt><trkpt lat="42.0169763" lon="19.3980885"><ele>12.499999999999998</ele><time>2026-05-03T14:19:44.69Z</time></trkpt><trkpt lat="42.0170639" lon="19.3979864"><ele>13.0</ele><time>2026-05-03T14:19:45.689Z</time></trkpt><trkpt lat="42.0171688" lon="19.3978656"><ele>13.0</ele><time>2026-05-03T14:19:46.69Z</time></trkpt><trkpt lat="42.0172811" lon="19.3977321"><ele>13.0</ele><time>2026-05-03T14:19:47.69Z</time></trkpt><trkpt lat="42.0173983" lon="19.3975984"><ele>13.0</ele><time>2026-05-03T14:19:48.69Z</time></trkpt><trkpt lat="42.0175084" lon="19.3974666"><ele>13.25</ele><time>2026-05-03T14:19:49.689Z</time></trkpt><trkpt lat="42.0176144" lon="19.3973421"><ele>13.5</ele><time>2026-05-03T14:19:50.689Z</time></trkpt><trkpt lat="42.0177139" lon="19.3972188"><ele>13.75</ele><time>2026-05-03T14:19:51.689Z</time></trkpt><trkpt lat="42.017805" lon="19.3970851"><ele>14.0</ele><time>2026-05-03T14:19:52.69Z</time></trkpt><trkpt lat="42.0178766" lon="19.3969484"><ele>14.0</ele><time>2026-05-03T14:19:53.689Z</time></trkpt><trkpt lat="42.0179258" lon="19.3968038"><ele>14.0</ele><time>2026-05-03T14:19:54.689Z</time></trkpt><trkpt lat="42.0179576" lon="19.3966226"><ele>14.0</ele><time>2026-05-03T14:19:55.689Z</time></trkpt><trkpt lat="42.0179725" lon="19.3964225"><ele>14.0</ele><time>2026-05-03T14:19:56.689Z</time></trkpt><trkpt lat="42.0179837" lon="19.3962217"><ele>12.666666666666668</ele><time>2026-05-03T14:19:57.689Z</time></trkpt><trkpt lat="42.017995" lon="19.3960206"><ele>11.333333333333334</ele><time>2026-05-03T14:19:58.689Z</time></trkpt><trkpt lat="42.0180126" lon="19.395817"><ele>10.0</ele><time>2026-05-03T14:19:59.69Z</time></trkpt><trkpt lat="42.0180289" lon="19.3956145"><ele>9.333333333333334</ele><time>2026-05-03T14:20:00.689Z</time></trkpt><trkpt lat="42.0180473" lon="19.3953943"><ele>8.666666666666666</ele><time>2026-05-03T14:20:01.69Z</time></trkpt><trkpt lat="42.0180812" lon="19.3951755"><ele>8.0</ele><time>2026-05-03T14:20:02.689Z</time></trkpt><trkpt lat="42.0181281" lon="19.3949576"><ele>8.0</ele><time>2026-05-03T14:20:03.69Z</time></trkpt><trkpt lat="42.018175" lon="19.3947213"><ele>8.0</ele><time>2026-05-03T14:20:04.69Z</time></trkpt><trkpt lat="42.0182093" lon="19.3945019"><ele>8.0</ele><time>2026-05-03T14:20:05.689Z</time></trkpt><trkpt lat="42.0182409" lon="19.3942815"><ele>8.333333333333332</ele><time>2026-05-03T14:20:06.689Z</time></trkpt><trkpt lat="42.0182562" lon="19.3940507"><ele>8.666666666666666</ele><time>2026-05-03T14:20:07.689Z</time></trkpt><trkpt lat="42.0182561" lon="19.3938156"><ele>9.0</ele><time>2026-05-03T14:20:08.689Z</time></trkpt><trkpt lat="42.0182492" lon="19.3935765"><ele>9.0</ele><time>2026-05-03T14:20:09.689Z</time></trkpt><trkpt lat="42.018235" lon="19.3933369"><ele>9.0</ele><time>2026-05-03T14:20:10.689Z</time></trkpt><trkpt lat="42.0182195" lon="19.3931086"><ele>9.0</ele><time>2026-05-03T14:20:11.69Z</time></trkpt><trkpt lat="42.0181924" lon="19.3928842"><ele>8.0</ele><time>2026-05-03T14:20:12.689Z</time></trkpt><trkpt lat="42.0181815" lon="19.3926374"><ele>7.0</ele><time>2026-05-03T14:20:13.689Z</time></trkpt><trkpt lat="42.0181709" lon="19.3923935"><ele>6.0</ele><time>2026-05-03T14:20:14.689Z</time></trkpt><trkpt lat="42.0181536" lon="19.3921468"><ele>6.0</ele><time>2026-05-03T14:20:15.689Z</time></trkpt><trkpt lat="42.0181393" lon="19.3918963"><ele>6.0</ele><time>2026-05-03T14:20:16.69Z</time></trkpt><trkpt lat="42.0181209" lon="19.3916502"><ele>6.0</ele><time>2026-05-03T14:20:17.689Z</time></trkpt><trkpt lat="42.0181015" lon="19.3914051"><ele>6.666666666666666</ele><time>2026-05-03T14:20:18.689Z</time></trkpt><trkpt lat="42.0180808" lon="19.3911653"><ele>7.333333333333333</ele><time>2026-05-03T14:20:19.689Z</time></trkpt><trkpt lat="42.0180546" lon="19.3909297"><ele>8.0</ele><time>2026-05-03T14:20:20.69Z</time></trkpt><trkpt lat="42.0180376" lon="19.3906952"><ele>7.666666666666666</ele><time>2026-05-03T14:20:21.69Z</time></trkpt><trkpt lat="42.0180271" lon="19.3904582"><ele>7.333333333333334</ele><time>2026-05-03T14:20:22.69Z</time></trkpt><trkpt lat="42.0180243" lon="19.3902227"><ele>7.0</ele><time>2026-05-03T14:20:23.689Z</time></trkpt><trkpt lat="42.0180325" lon="19.3899655"><ele>7.0</ele><time>2026-05-03T14:20:24.689Z</time></trkpt><trkpt lat="42.0180499" lon="19.3896966"><ele>7.0</ele><time>2026-05-03T14:20:25.69Z</time></trkpt><trkpt lat="42.0180693" lon="19.389427"><ele>7.0</ele><time>2026-05-03T14:20:26.689Z</time></trkpt><trkpt lat="42.0180921" lon="19.389152"><ele>7.0</ele><time>2026-05-03T14:20:27.689Z</time></trkpt><trkpt lat="42.0181215" lon="19.388876"><ele>7.0</ele><time>2026-05-03T14:20:28.69Z</time></trkpt><trkpt lat="42.0181533" lon="19.3886162"><ele>7.0</ele><time>2026-05-03T14:20:29.689Z</time></trkpt><trkpt lat="42.0181803" lon="19.3883598"><ele>7.0</ele><time>2026-05-03T14:20:30.69Z</time></trkpt><trkpt lat="42.0181915" lon="19.388108"><ele>7.0</ele><time>2026-05-03T14:20:31.69Z</time></trkpt><trkpt lat="42.018196" lon="19.3878615"><ele>7.0</ele><time>2026-05-03T14:20:32.69Z</time></trkpt><trkpt lat="42.0181838" lon="19.3876181"><ele>7.333333333333334</ele><time>2026-05-03T14:20:33.69Z</time></trkpt><trkpt lat="42.0181613" lon="19.3873758"><ele>7.666666666666666</ele><time>2026-05-03T14:20:34.689Z</time></trkpt><trkpt lat="42.0181339" lon="19.3871448"><ele>8.0</ele><time>2026-05-03T14:20:35.689Z</time></trkpt><trkpt lat="42.018102" lon="19.3869284"><ele>7.0</ele><time>2026-05-03T14:20:36.69Z</time></trkpt><trkpt lat="42.0180767" lon="19.3867265"><ele>6.0</ele><time>2026-05-03T14:20:37.689Z</time></trkpt><trkpt lat="42.0180472" lon="19.3865293"><ele>5.0</ele><time>2026-05-03T14:20:38.689Z</time></trkpt><trkpt lat="42.0180245" lon="19.3863301"><ele>5.0</ele><time>2026-05-03T14:20:39.69Z</time></trkpt><trkpt lat="42.0180241" lon="19.3861312"><ele>5.0</ele><time>2026-05-03T14:20:40.69Z</time></trkpt><trkpt lat="42.0180403" lon="19.3859263"><ele>5.0</ele><time>2026-05-03T14:20:41.689Z</time></trkpt><trkpt lat="42.018068" lon="19.3857367"><ele>5.0</ele><time>2026-05-03T14:20:42.689Z</time></trkpt><trkpt lat="42.0181062" lon="19.3855603"><ele>5.25</ele><time>2026-05-03T14:20:43.69Z</time></trkpt><trkpt lat="42.0181629" lon="19.3854039"><ele>5.5</ele><time>2026-05-03T14:20:44.69Z</time></trkpt><trkpt lat="42.0182452" lon="19.3852394"><ele>5.75</ele><time>2026-05-03T14:20:45.689Z</time></trkpt><trkpt lat="42.0183541" lon="19.3850789"><ele>6.0</ele><time>2026-05-03T14:20:46.689Z</time></trkpt><trkpt lat="42.0184539" lon="19.384929"><ele>6.0</ele><time>2026-05-03T14:20:47.69Z</time></trkpt><trkpt lat="42.018566" lon="19.3847815"><ele>6.0</ele><time>2026-05-03T14:20:48.69Z</time></trkpt><trkpt lat="42.0186865" lon="19.3846358"><ele>6.0</ele><time>2026-05-03T14:20:49.69Z</time></trkpt><trkpt lat="42.0188155" lon="19.384487"><ele>6.0</ele><time>2026-05-03T14:20:50.69Z</time></trkpt><trkpt lat="42.0189435" lon="19.3843206"><ele>6.0</ele><time>2026-05-03T14:20:51.69Z</time></trkpt><trkpt lat="42.0190771" lon="19.3841547"><ele>6.0</ele><time>2026-05-03T14:20:52.689Z</time></trkpt><trkpt lat="42.0191935" lon="19.3839792"><ele>6.333333333333334</ele><time>2026-05-03T14:20:53.69Z</time></trkpt><trkpt lat="42.0192974" lon="19.3837888"><ele>6.666666666666667</ele><time>2026-05-03T14:20:54.689Z</time></trkpt><trkpt lat="42.0194091" lon="19.383586"><ele>7.0</ele><time>2026-05-03T14:20:55.689Z</time></trkpt><trkpt lat="42.0195182" lon="19.3833808"><ele>7.0</ele><time>2026-05-03T14:20:56.69Z</time></trkpt><trkpt lat="42.0196191" lon="19.3831692"><ele>7.0</ele><time>2026-05-03T14:20:57.689Z</time></trkpt><trkpt lat="42.0197214" lon="19.3829522"><ele>7.0</ele><time>2026-05-03T14:20:58.69Z</time></trkpt><trkpt lat="42.0198267" lon="19.3827362"><ele>6.666666666666667</ele><time>2026-05-03T14:20:59.689Z</time></trkpt><trkpt lat="42.0199346" lon="19.3825216"><ele>6.333333333333334</ele><time>2026-05-03T14:21:00.69Z</time></trkpt><trkpt lat="42.0200406" lon="19.3823142"><ele>6.0</ele><time>2026-05-03T14:21:01.69Z</time></trkpt><trkpt lat="42.0201445" lon="19.3821107"><ele>6.0</ele><time>2026-05-03T14:21:02.69Z</time></trkpt><trkpt lat="42.0202379" lon="19.381911"><ele>6.0</ele><time>2026-05-03T14:21:03.689Z</time></trkpt><trkpt lat="42.0203245" lon="19.3817035"><ele>6.0</ele><time>2026-05-03T14:21:04.69Z</time></trkpt><trkpt lat="42.0204079" lon="19.3814984"><ele>6.333333333333334</ele><time>2026-05-03T14:21:05.69Z</time></trkpt><trkpt lat="42.0204759" lon="19.3812883"><ele>6.666666666666667</ele><time>2026-05-03T14:21:06.69Z</time></trkpt><trkpt lat="42.0205348" lon="19.3810795"><ele>7.0</ele><time>2026-05-03T14:21:07.689Z</time></trkpt><trkpt lat="42.0205917" lon="19.3808682"><ele>7.0</ele><time>2026-05-03T14:21:08.69Z</time></trkpt><trkpt lat="42.0206459" lon="19.3806664"><ele>7.0</ele><time>2026-05-03T14:21:09.69Z</time></trkpt><trkpt lat="42.0206991" lon="19.3804728"><ele>7.0</ele><time>2026-05-03T14:21:10.689Z</time></trkpt><trkpt lat="42.0207478" lon="19.3802795"><ele>7.0</ele><time>2026-05-03T14:21:11.69Z</time></trkpt><trkpt lat="42.0207985" lon="19.3800918"><ele>7.0</ele><time>2026-05-03T14:21:12.689Z</time></trkpt><trkpt lat="42.0208483" lon="19.3798991"><ele>7.0</ele><time>2026-05-03T14:21:13.69Z</time></trkpt><trkpt lat="42.0209028" lon="19.3797065"><ele>7.0</ele><time>2026-05-03T14:21:14.69Z</time></trkpt><trkpt lat="42.0209508" lon="19.3795083"><ele>7.0</ele><time>2026-05-03T14:21:15.69Z</time></trkpt><trkpt lat="42.0209873" lon="19.3793081"><ele>7.0</ele><time>2026-05-03T14:21:16.689Z</time></trkpt><trkpt lat="42.0210156" lon="19.3791067"><ele>7.0</ele><time>2026-05-03T14:21:17.69Z</time></trkpt><trkpt lat="42.0210331" lon="19.3789274"><ele>7.0</ele><time>2026-05-03T14:21:18.689Z</time></trkpt><trkpt lat="42.0210445" lon="19.3787752"><ele>7.0</ele><time>2026-05-03T14:21:19.69Z</time></trkpt><trkpt lat="42.0210313" lon="19.3786338"><ele>7.0</ele><time>2026-05-03T14:21:20.69Z</time></trkpt><trkpt lat="42.0209862" lon="19.3785065"><ele>7.0</ele><time>2026-05-03T14:21:21.69Z</time></trkpt><trkpt lat="42.0209128" lon="19.3783771"><ele>7.0</ele><time>2026-05-03T14:21:22.69Z</time></trkpt><trkpt lat="42.0208129" lon="19.3782566"><ele>7.0</ele><time>2026-05-03T14:21:23.69Z</time></trkpt><trkpt lat="42.0206975" lon="19.3781304"><ele>7.0</ele><time>2026-05-03T14:21:24.689Z</time></trkpt><trkpt lat="42.0205738" lon="19.3780063"><ele>7.0</ele><time>2026-05-03T14:21:25.69Z</time></trkpt><trkpt lat="42.0204478" lon="19.3778817"><ele>7.0</ele><time>2026-05-03T14:21:26.689Z</time></trkpt><trkpt lat="42.0203248" lon="19.3777557"><ele>7.0</ele><time>2026-05-03T14:21:27.689Z</time></trkpt><trkpt lat="42.0201994" lon="19.3776241"><ele>7.0</ele><time>2026-05-03T14:21:28.69Z</time></trkpt><trkpt lat="42.020061" lon="19.3774836"><ele>7.0</ele><time>2026-05-03T14:21:29.689Z</time></trkpt><trkpt lat="42.0199191" lon="19.3773253"><ele>7.0</ele><time>2026-05-03T14:21:30.69Z</time></trkpt><trkpt lat="42.0197744" lon="19.3771687"><ele>7.0</ele><time>2026-05-03T14:21:31.689Z</time></trkpt><trkpt lat="42.0196331" lon="19.3770176"><ele>7.0</ele><time>2026-05-03T14:21:32.689Z</time></trkpt><trkpt lat="42.0194868" lon="19.3768648"><ele>7.0</ele><time>2026-05-03T14:21:33.689Z</time></trkpt><trkpt lat="42.0193437" lon="19.3767146"><ele>7.0</ele><time>2026-05-03T14:21:34.69Z</time></trkpt><trkpt lat="42.0191979" lon="19.3765618"><ele>7.0</ele><time>2026-05-03T14:21:35.689Z</time></trkpt><trkpt lat="42.0190521" lon="19.3764089"><ele>7.0</ele><time>2026-05-03T14:21:36.689Z</time></trkpt><trkpt lat="42.0189071" lon="19.3762576"><ele>6.0</ele><time>2026-05-03T14:21:37.69Z</time></trkpt><trkpt lat="42.0187656" lon="19.3761076"><ele>5.0</ele><time>2026-05-03T14:21:38.689Z</time></trkpt><trkpt lat="42.0186288" lon="19.3759587"><ele>4.0</ele><time>2026-05-03T14:21:39.689Z</time></trkpt><trkpt lat="42.0184972" lon="19.3757963"><ele>4.0</ele><time>2026-05-03T14:21:40.69Z</time></trkpt><trkpt lat="42.0183767" lon="19.3756387"><ele>4.0</ele><time>2026-05-03T14:21:41.69Z</time></trkpt><trkpt lat="42.018271" lon="19.3754826"><ele>4.0</ele><time>2026-05-03T14:21:42.69Z</time></trkpt><trkpt lat="42.0181714" lon="19.3753346"><ele>4.25</ele><time>2026-05-03T14:21:43.69Z</time></trkpt><trkpt lat="42.0180781" lon="19.3751924"><ele>4.5</ele><time>2026-05-03T14:21:44.689Z</time></trkpt><trkpt lat="42.0179816" lon="19.3750444"><ele>4.75</ele><time>2026-05-03T14:21:45.689Z</time></trkpt><trkpt lat="42.0178825" lon="19.3748873"><ele>5.0</ele><time>2026-05-03T14:21:46.69Z</time></trkpt><trkpt lat="42.0177806" lon="19.3747326"><ele>5.0</ele><time>2026-05-03T14:21:47.69Z</time></trkpt><trkpt lat="42.0176849" lon="19.3745842"><ele>5.0</ele><time>2026-05-03T14:21:48.689Z</time></trkpt><trkpt lat="42.0175954" lon="19.374448"><ele>5.0</ele><time>2026-05-03T14:21:49.69Z</time></trkpt><trkpt lat="42.0175463" lon="19.3743214"><ele>5.0</ele><time>2026-05-03T14:21:50.689Z</time></trkpt><trkpt lat="42.0175162" lon="19.3741982"><ele>5.0</ele><time>2026-05-03T14:21:51.689Z</time></trkpt><trkpt lat="42.0175015" lon="19.3740823"><ele>5.0</ele><time>2026-05-03T14:21:52.689Z</time></trkpt><trkpt lat="42.0174858" lon="19.3739733"><ele>5.0</ele><time>2026-05-03T14:21:53.69Z</time></trkpt><trkpt lat="42.0174671" lon="19.373873"><ele>5.0</ele><time>2026-05-03T14:21:54.69Z</time></trkpt><trkpt lat="42.0174455" lon="19.3737807"><ele>5.0</ele><time>2026-05-03T14:21:55.69Z</time></trkpt><trkpt lat="42.0174289" lon="19.3736958"><ele>5.0</ele><time>2026-05-03T14:21:56.69Z</time></trkpt><trkpt lat="42.0173924" lon="19.3735564"><ele>5.666666666666667</ele><time>2026-05-03T14:21:58.689Z</time></trkpt><trkpt lat="42.0173282" lon="19.3734307"><ele>6.333333333333334</ele><time>2026-05-03T14:22:00.689Z</time></trkpt><trkpt lat="42.0172635" lon="19.3733355"><ele>7.0</ele><time>2026-05-03T14:22:02.69Z</time></trkpt><trkpt lat="42.0172226" lon="19.3732525"><ele>7.666666666666667</ele><time>2026-05-03T14:22:04.689Z</time></trkpt><trkpt lat="42.017171" lon="19.3731594"><ele>8.333333333333334</ele><time>2026-05-03T14:22:07.69Z</time></trkpt><trkpt lat="42.0171372" lon="19.3730699"><ele>9.0</ele><time>2026-05-03T14:22:11.69Z</time></trkpt><trkpt lat="42.0171259" lon="19.3729598"><ele>9.000000000000002</ele><time>2026-05-03T14:23:29.689Z</time></trkpt><trkpt lat="42.0170995" lon="19.3728678"><ele>9.0</ele><time>2026-05-03T14:25:47.68Z</time></trkpt><trkpt lat="42.0170826" lon="19.3727732"><ele>9.0</ele><time>2026-05-03T14:26:20.681Z</time></trkpt><trkpt lat="42.0170493" lon="19.3726728"><ele>9.0</ele><time>2026-05-03T14:27:53.678Z</time></trkpt><trkpt lat="42.0170297" lon="19.3725889"><ele>9.0</ele><time>2026-05-03T14:29:09.678Z</time></trkpt><trkpt lat="42.0170027" lon="19.3725109"><ele>9.000000000000002</ele><time>2026-05-03T14:31:11.679Z</time></trkpt><trkpt lat="42.0169814" lon="19.3724086"><ele>9.0</ele><time>2026-05-03T14:33:33.689Z</time></trkpt><trkpt lat="42.0169659" lon="19.3723262"><ele>9.0</ele><time>2026-05-03T14:34:55.688Z</time></trkpt><trkpt lat="42.0169052" lon="19.37221"><ele>9.0</ele><time>2026-05-03T14:38:53.684Z</time></trkpt><trkpt lat="42.0168604" lon="19.3721466"><ele>9.0</ele><time>2026-05-03T14:38:55.684Z</time></trkpt><trkpt lat="42.0168064" lon="19.3720523"><ele>9.0</ele><time>2026-05-03T14:38:58.683Z</time></trkpt><trkpt lat="42.0167564" lon="19.3719802"><ele>9.0</ele><time>2026-05-03T14:40:16.684Z</time></trkpt><trkpt lat="42.0167281" lon="19.3718852"><ele>9.0</ele><time>2026-05-03T14:40:18.684Z</time></trkpt><trkpt lat="42.0166719" lon="19.3717242"><ele>8.666666666666666</ele><time>2026-05-03T14:40:20.684Z</time></trkpt><trkpt lat="42.0166391" lon="19.3716447"><ele>8.333333333333334</ele><time>2026-05-03T14:40:21.684Z</time></trkpt><trkpt lat="42.0166048" lon="19.3715603"><ele>8.0</ele><time>2026-05-03T14:40:22.683Z</time></trkpt><trkpt lat="42.0165661" lon="19.3714656"><ele>7.666666666666667</ele><time>2026-05-03T14:40:23.683Z</time></trkpt><trkpt lat="42.016545" lon="19.3713602"><ele>7.333333333333334</ele><time>2026-05-03T14:40:24.683Z</time></trkpt><trkpt lat="42.0165106" lon="19.3712607"><ele>7.0</ele><time>2026-05-03T14:40:25.684Z</time></trkpt><trkpt lat="42.0164842" lon="19.3711242"><ele>6.833333333333334</ele><time>2026-05-03T14:40:26.684Z</time></trkpt><trkpt lat="42.0164771" lon="19.3709868"><ele>6.666666666666667</ele><time>2026-05-03T14:40:27.684Z</time></trkpt><trkpt lat="42.0164574" lon="19.3708701"><ele>6.5</ele><time>2026-05-03T14:40:28.683Z</time></trkpt><trkpt lat="42.0164447" lon="19.3707503"><ele>6.333333333333334</ele><time>2026-05-03T14:40:29.683Z</time></trkpt><trkpt lat="42.016426" lon="19.370634"><ele>6.166666666666667</ele><time>2026-05-03T14:40:30.684Z</time></trkpt><trkpt lat="42.0164098" lon="19.3705401"><ele>6.0</ele><time>2026-05-03T14:40:31.683Z</time></trkpt><trkpt lat="42.0163896" lon="19.3704369"><ele>6.5</ele><time>2026-05-03T14:40:32.683Z</time></trkpt><trkpt lat="42.0163729" lon="19.3703284"><ele>7.0</ele><time>2026-05-03T14:40:33.683Z</time></trkpt><trkpt lat="42.0163555" lon="19.3702117"><ele>7.5</ele><time>2026-05-03T14:40:34.684Z</time></trkpt><trkpt lat="42.0163339" lon="19.3700914"><ele>8.0</ele><time>2026-05-03T14:40:35.684Z</time></trkpt><trkpt lat="42.0163134" lon="19.3699707"><ele>8.5</ele><time>2026-05-03T14:40:36.684Z</time></trkpt><trkpt lat="42.016297" lon="19.3698515"><ele>9.0</ele><time>2026-05-03T14:40:37.683Z</time></trkpt><trkpt lat="42.0162736" lon="19.369745"><ele>8.6</ele><time>2026-05-03T14:40:38.683Z</time></trkpt><trkpt lat="42.0162525" lon="19.3696308"><ele>8.2</ele><time>2026-05-03T14:40:39.684Z</time></trkpt><trkpt lat="42.0162255" lon="19.3695118"><ele>7.799999999999999</ele><time>2026-05-03T14:40:40.684Z</time></trkpt><trkpt lat="42.0161932" lon="19.3693937"><ele>7.3999999999999995</ele><time>2026-05-03T14:40:41.683Z</time></trkpt><trkpt lat="42.016157" lon="19.3692753"><ele>7.0</ele><time>2026-05-03T14:40:42.683Z</time></trkpt><trkpt lat="42.0161199" lon="19.3691598"><ele>7.000000000000001</ele><time>2026-05-03T14:40:43.684Z</time></trkpt><trkpt lat="42.0160851" lon="19.3690504"><ele>7.0</ele><time>2026-05-03T14:40:44.683Z</time></trkpt><trkpt lat="42.016057" lon="19.3689672"><ele>7.0</ele><time>2026-05-03T14:40:45.684Z</time></trkpt><trkpt lat="42.016013" lon="19.3688393"><ele>7.0</ele><time>2026-05-03T14:40:47.683Z</time></trkpt><trkpt lat="42.0159885" lon="19.3687489"><ele>7.000000000000001</ele><time>2026-05-03T14:40:50.684Z</time></trkpt><trkpt lat="42.0159276" lon="19.368647"><ele>7.0</ele><time>2026-05-03T14:42:38.684Z</time></trkpt><trkpt lat="42.0158689" lon="19.3684948"><ele>7.0</ele><time>2026-05-03T14:42:40.683Z</time></trkpt><trkpt lat="42.0158366" lon="19.3684017"><ele>6.999999999999999</ele><time>2026-05-03T14:42:41.684Z</time></trkpt><trkpt lat="42.0157944" lon="19.3682976"><ele>6.999999999999999</ele><time>2026-05-03T14:42:42.683Z</time></trkpt><trkpt lat="42.0157514" lon="19.3681749"><ele>7.0</ele><time>2026-05-03T14:42:43.684Z</time></trkpt><trkpt lat="42.0157102" lon="19.368052"><ele>7.0</ele><time>2026-05-03T14:42:44.684Z</time></trkpt><trkpt lat="42.0156643" lon="19.3679255"><ele>6.5</ele><time>2026-05-03T14:42:45.684Z</time></trkpt><trkpt lat="42.0156129" lon="19.3677868"><ele>6.0</ele><time>2026-05-03T14:42:46.684Z</time></trkpt><trkpt lat="42.0155653" lon="19.3676448"><ele>5.5</ele><time>2026-05-03T14:42:47.683Z</time></trkpt><trkpt lat="42.0155143" lon="19.3674913"><ele>5.0</ele><time>2026-05-03T14:42:48.683Z</time></trkpt><trkpt lat="42.0154599" lon="19.3673365"><ele>5.5</ele><time>2026-05-03T14:42:49.684Z</time></trkpt><trkpt lat="42.0153976" lon="19.3671745"><ele>6.0</ele><time>2026-05-03T14:42:50.684Z</time></trkpt><trkpt lat="42.0153388" lon="19.3670095"><ele>6.5</ele><time>2026-05-03T14:42:51.684Z</time></trkpt><trkpt lat="42.0152801" lon="19.3668457"><ele>7.0</ele><time>2026-05-03T14:42:52.684Z</time></trkpt><trkpt lat="42.0152213" lon="19.3666702"><ele>7.0</ele><time>2026-05-03T14:42:53.684Z</time></trkpt><trkpt lat="42.0151514" lon="19.3664932"><ele>7.0</ele><time>2026-05-03T14:42:54.683Z</time></trkpt><trkpt lat="42.0150862" lon="19.3663156"><ele>7.0</ele><time>2026-05-03T14:42:55.683Z</time></trkpt><trkpt lat="42.0150206" lon="19.366135"><ele>7.0</ele><time>2026-05-03T14:42:56.683Z</time></trkpt><trkpt lat="42.0149544" lon="19.3659586"><ele>7.0</ele><time>2026-05-03T14:42:57.683Z</time></trkpt><trkpt lat="42.0148912" lon="19.3657767"><ele>7.0</ele><time>2026-05-03T14:42:58.684Z</time></trkpt><trkpt lat="42.0148281" lon="19.3655981"><ele>7.0</ele><time>2026-05-03T14:42:59.683Z</time></trkpt><trkpt lat="42.0147586" lon="19.3654267"><ele>7.0</ele><time>2026-05-03T14:43:00.683Z</time></trkpt><trkpt lat="42.0146882" lon="19.3652467"><ele>7.0</ele><time>2026-05-03T14:43:01.683Z</time></trkpt><trkpt lat="42.014605" lon="19.3650815"><ele>7.0</ele><time>2026-05-03T14:43:02.684Z</time></trkpt><trkpt lat="42.014515" lon="19.3649212"><ele>7.0</ele><time>2026-05-03T14:43:03.683Z</time></trkpt><trkpt lat="42.0144136" lon="19.3647774"><ele>7.0</ele><time>2026-05-03T14:43:04.684Z</time></trkpt><trkpt lat="42.0143007" lon="19.3646392"><ele>8.25</ele><time>2026-05-03T14:43:05.684Z</time></trkpt><trkpt lat="42.0141843" lon="19.3645267"><ele>9.5</ele><time>2026-05-03T14:43:06.683Z</time></trkpt><trkpt lat="42.0140537" lon="19.3644352"><ele>10.75</ele><time>2026-05-03T14:43:07.683Z</time></trkpt><trkpt lat="42.0139157" lon="19.3643609"><ele>12.0</ele><time>2026-05-03T14:43:08.683Z</time></trkpt><trkpt lat="42.0137805" lon="19.3643007"><ele>12.0</ele><time>2026-05-03T14:43:09.684Z</time></trkpt><trkpt lat="42.0136431" lon="19.3642441"><ele>12.0</ele><time>2026-05-03T14:43:10.683Z</time></trkpt><trkpt lat="42.0135092" lon="19.3641885"><ele>12.0</ele><time>2026-05-03T14:43:11.684Z</time></trkpt><trkpt lat="42.0133783" lon="19.3641351"><ele>12.0</ele><time>2026-05-03T14:43:12.684Z</time></trkpt><trkpt lat="42.0132432" lon="19.3640826"><ele>11.0</ele><time>2026-05-03T14:43:13.684Z</time></trkpt><trkpt lat="42.0131148" lon="19.3640134"><ele>10.0</ele><time>2026-05-03T14:43:14.683Z</time></trkpt><trkpt lat="42.0129852" lon="19.3639263"><ele>9.0</ele><time>2026-05-03T14:43:15.683Z</time></trkpt><trkpt lat="42.0128646" lon="19.3638327"><ele>8.0</ele><time>2026-05-03T14:43:16.684Z</time></trkpt><trkpt lat="42.0127411" lon="19.363729"><ele>8.0</ele><time>2026-05-03T14:43:17.683Z</time></trkpt><trkpt lat="42.0126208" lon="19.3636106"><ele>8.0</ele><time>2026-05-03T14:43:18.684Z</time></trkpt><trkpt lat="42.0125037" lon="19.3634749"><ele>8.0</ele><time>2026-05-03T14:43:19.683Z</time></trkpt><trkpt lat="42.0123912" lon="19.3633367"><ele>7.75</ele><time>2026-05-03T14:43:20.683Z</time></trkpt><trkpt lat="42.0122796" lon="19.3631916"><ele>7.5</ele><time>2026-05-03T14:43:21.684Z</time></trkpt><trkpt lat="42.0122073" lon="19.3630573"><ele>7.25</ele><time>2026-05-03T14:43:22.683Z</time></trkpt><trkpt lat="42.0121016" lon="19.3629105"><ele>7.0</ele><time>2026-05-03T14:43:23.684Z</time></trkpt><trkpt lat="42.0119919" lon="19.3627704"><ele>7.0</ele><time>2026-05-03T14:43:24.684Z</time></trkpt><trkpt lat="42.0118913" lon="19.362635"><ele>7.0</ele><time>2026-05-03T14:43:25.684Z</time></trkpt><trkpt lat="42.0117964" lon="19.3625047"><ele>7.0</ele><time>2026-05-03T14:43:26.684Z</time></trkpt><trkpt lat="42.0117076" lon="19.3623657"><ele>7.0</ele><time>2026-05-03T14:43:27.683Z</time></trkpt><trkpt lat="42.0116291" lon="19.3622129"><ele>7.25</ele><time>2026-05-03T14:43:28.684Z</time></trkpt><trkpt lat="42.0115629" lon="19.3620443"><ele>7.5</ele><time>2026-05-03T14:43:29.683Z</time></trkpt><trkpt lat="42.0115047" lon="19.3618598"><ele>7.75</ele><time>2026-05-03T14:43:30.684Z</time></trkpt><trkpt lat="42.0114504" lon="19.3616621"><ele>8.0</ele><time>2026-05-03T14:43:31.684Z</time></trkpt><trkpt lat="42.0113995" lon="19.3614617"><ele>8.0</ele><time>2026-05-03T14:43:32.684Z</time></trkpt><trkpt lat="42.0113407" lon="19.3612578"><ele>8.0</ele><time>2026-05-03T14:43:33.684Z</time></trkpt><trkpt lat="42.011281" lon="19.361045"><ele>8.0</ele><time>2026-05-03T14:43:34.684Z</time></trkpt><trkpt lat="42.011218" lon="19.3608289"><ele>8.0</ele><time>2026-05-03T14:43:35.683Z</time></trkpt><trkpt lat="42.0111569" lon="19.3606188"><ele>8.0</ele><time>2026-05-03T14:43:36.684Z</time></trkpt><trkpt lat="42.0110964" lon="19.3604174"><ele>8.0</ele><time>2026-05-03T14:43:37.683Z</time></trkpt><trkpt lat="42.0110411" lon="19.3602228"><ele>8.5</ele><time>2026-05-03T14:43:38.684Z</time></trkpt><trkpt lat="42.0109886" lon="19.3600378"><ele>9.0</ele><time>2026-05-03T14:43:39.683Z</time></trkpt><trkpt lat="42.0109427" lon="19.3598729"><ele>9.5</ele><time>2026-05-03T14:43:40.684Z</time></trkpt><trkpt lat="42.0109028" lon="19.3597186"><ele>10.0</ele><time>2026-05-03T14:43:41.684Z</time></trkpt><trkpt lat="42.0108735" lon="19.3595719"><ele>10.0</ele><time>2026-05-03T14:43:42.683Z</time></trkpt><trkpt lat="42.0108609" lon="19.3594349"><ele>10.0</ele><time>2026-05-03T14:43:43.683Z</time></trkpt><trkpt lat="42.0108722" lon="19.359301"><ele>10.0</ele><time>2026-05-03T14:43:44.684Z</time></trkpt><trkpt lat="42.0109065" lon="19.3591803"><ele>10.0</ele><time>2026-05-03T14:43:45.684Z</time></trkpt><trkpt lat="42.0109492" lon="19.3590612"><ele>10.0</ele><time>2026-05-03T14:43:46.684Z</time></trkpt><trkpt lat="42.0110131" lon="19.3589299"><ele>9.5</ele><time>2026-05-03T14:43:47.684Z</time></trkpt><trkpt lat="42.0110714" lon="19.358796"><ele>9.0</ele><time>2026-05-03T14:43:48.684Z</time></trkpt><trkpt lat="42.0111204" lon="19.3586452"><ele>8.5</ele><time>2026-05-03T14:43:49.684Z</time></trkpt><trkpt lat="42.0111615" lon="19.3584859"><ele>8.0</ele><time>2026-05-03T14:43:50.683Z</time></trkpt><trkpt lat="42.0111918" lon="19.3583069"><ele>8.0</ele><time>2026-05-03T14:43:51.683Z</time></trkpt><trkpt lat="42.0112141" lon="19.3581358"><ele>8.0</ele><time>2026-05-03T14:43:52.683Z</time></trkpt><trkpt lat="42.011237" lon="19.3579773"><ele>8.0</ele><time>2026-05-03T14:43:53.683Z</time></trkpt><trkpt lat="42.0112578" lon="19.3578376"><ele>8.0</ele><time>2026-05-03T14:43:54.684Z</time></trkpt><trkpt lat="42.0112821" lon="19.3577203"><ele>8.0</ele><time>2026-05-03T14:43:55.684Z</time></trkpt><trkpt lat="42.0113218" lon="19.357635"><ele>8.200000000000001</ele><time>2026-05-03T14:43:56.684Z</time></trkpt><trkpt lat="42.0113919" lon="19.3575716"><ele>8.4</ele><time>2026-05-03T14:43:57.684Z</time></trkpt><trkpt lat="42.0114785" lon="19.3575411"><ele>8.600000000000001</ele><time>2026-05-03T14:43:58.684Z</time></trkpt><trkpt lat="42.0115802" lon="19.3575304"><ele>8.8</ele><time>2026-05-03T14:43:59.684Z</time></trkpt><trkpt lat="42.0117016" lon="19.3575116"><ele>9.0</ele><time>2026-05-03T14:44:00.684Z</time></trkpt><trkpt lat="42.011823" lon="19.3574739"><ele>8.75</ele><time>2026-05-03T14:44:01.684Z</time></trkpt><trkpt lat="42.0119464" lon="19.3574247"><ele>8.5</ele><time>2026-05-03T14:44:02.684Z</time></trkpt><trkpt lat="42.0120737" lon="19.3573666"><ele>8.25</ele><time>2026-05-03T14:44:03.684Z</time></trkpt><trkpt lat="42.0121986" lon="19.3572877"><ele>8.0</ele><time>2026-05-03T14:44:04.684Z</time></trkpt><trkpt lat="42.0123209" lon="19.3571926"><ele>8.0</ele><time>2026-05-03T14:44:05.684Z</time></trkpt><trkpt lat="42.0124388" lon="19.3570927"><ele>8.0</ele><time>2026-05-03T14:44:06.684Z</time></trkpt><trkpt lat="42.0125454" lon="19.3569831"><ele>8.0</ele><time>2026-05-03T14:44:07.684Z</time></trkpt><trkpt lat="42.0126412" lon="19.3568702"><ele>8.0</ele><time>2026-05-03T14:44:08.684Z</time></trkpt><trkpt lat="42.0127077" lon="19.3567462"><ele>8.0</ele><time>2026-05-03T14:44:09.684Z</time></trkpt><trkpt lat="42.0127526" lon="19.356607"><ele>8.0</ele><time>2026-05-03T14:44:10.684Z</time></trkpt><trkpt lat="42.0127657" lon="19.3564471"><ele>8.0</ele><time>2026-05-03T14:44:11.683Z</time></trkpt><trkpt lat="42.0127349" lon="19.3562798"><ele>8.0</ele><time>2026-05-03T14:44:12.683Z</time></trkpt><trkpt lat="42.0126884" lon="19.3560963"><ele>8.0</ele><time>2026-05-03T14:44:13.683Z</time></trkpt><trkpt lat="42.0126409" lon="19.355896"><ele>8.0</ele><time>2026-05-03T14:44:14.684Z</time></trkpt><trkpt lat="42.0125945" lon="19.3556881"><ele>8.0</ele><time>2026-05-03T14:44:15.683Z</time></trkpt><trkpt lat="42.0125457" lon="19.3554807"><ele>8.0</ele><time>2026-05-03T14:44:16.684Z</time></trkpt><trkpt lat="42.0124874" lon="19.3552732"><ele>8.0</ele><time>2026-05-03T14:44:17.683Z</time></trkpt><trkpt lat="42.0124084" lon="19.3550642"><ele>8.0</ele><time>2026-05-03T14:44:18.684Z</time></trkpt><trkpt lat="42.0123167" lon="19.354868"><ele>8.666666666666666</ele><time>2026-05-03T14:44:19.683Z</time></trkpt><trkpt lat="42.0122215" lon="19.3546763"><ele>9.333333333333334</ele><time>2026-05-03T14:44:20.684Z</time></trkpt><trkpt lat="42.0121195" lon="19.3544933"><ele>10.0</ele><time>2026-05-03T14:44:21.683Z</time></trkpt><trkpt lat="42.0120166" lon="19.3543236"><ele>10.0</ele><time>2026-05-03T14:44:22.684Z</time></trkpt><trkpt lat="42.0119122" lon="19.3541498"><ele>10.0</ele><time>2026-05-03T14:44:23.683Z</time></trkpt><trkpt lat="42.0118102" lon="19.353973"><ele>10.0</ele><time>2026-05-03T14:44:24.684Z</time></trkpt><trkpt lat="42.0117085" lon="19.3537942"><ele>8.666666666666668</ele><time>2026-05-03T14:44:25.683Z</time></trkpt><trkpt lat="42.0116101" lon="19.3536202"><ele>7.333333333333334</ele><time>2026-05-03T14:44:26.683Z</time></trkpt><trkpt lat="42.011506" lon="19.3534513"><ele>6.0</ele><time>2026-05-03T14:44:27.683Z</time></trkpt><trkpt lat="42.0114028" lon="19.3532781"><ele>6.0</ele><time>2026-05-03T14:44:28.684Z</time></trkpt><trkpt lat="42.0112992" lon="19.3531063"><ele>6.0</ele><time>2026-05-03T14:44:29.683Z</time></trkpt><trkpt lat="42.0111934" lon="19.3529334"><ele>6.0</ele><time>2026-05-03T14:44:30.683Z</time></trkpt><trkpt lat="42.0110935" lon="19.3527559"><ele>9.333333333333332</ele><time>2026-05-03T14:44:31.684Z</time></trkpt><trkpt lat="42.0109926" lon="19.3525857"><ele>12.666666666666666</ele><time>2026-05-03T14:44:32.683Z</time></trkpt><trkpt lat="42.0108938" lon="19.3524164"><ele>16.0</ele><time>2026-05-03T14:44:33.683Z</time></trkpt><trkpt lat="42.0108023" lon="19.3522476"><ele>17.0</ele><time>2026-05-03T14:44:34.683Z</time></trkpt><trkpt lat="42.0107245" lon="19.3520874"><ele>18.0</ele><time>2026-05-03T14:44:35.683Z</time></trkpt><trkpt lat="42.010662" lon="19.351931"><ele>19.0</ele><time>2026-05-03T14:44:36.683Z</time></trkpt><trkpt lat="42.0106078" lon="19.3517774"><ele>20.0</ele><time>2026-05-03T14:44:37.684Z</time></trkpt><trkpt lat="42.0105545" lon="19.3516384"><ele>20.0</ele><time>2026-05-03T14:44:38.684Z</time></trkpt><trkpt lat="42.0104927" lon="19.3515083"><ele>20.0</ele><time>2026-05-03T14:44:39.684Z</time></trkpt><trkpt lat="42.0104228" lon="19.3513906"><ele>20.0</ele><time>2026-05-03T14:44:40.684Z</time></trkpt><trkpt lat="42.0103298" lon="19.3512738"><ele>20.0</ele><time>2026-05-03T14:44:41.683Z</time></trkpt><trkpt lat="42.0102288" lon="19.3511761"><ele>19.0</ele><time>2026-05-03T14:44:42.683Z</time></trkpt><trkpt lat="42.0101232" lon="19.3510749"><ele>18.0</ele><time>2026-05-03T14:44:43.684Z</time></trkpt><trkpt lat="42.0100088" lon="19.3509789"><ele>17.0</ele><time>2026-05-03T14:44:44.683Z</time></trkpt><trkpt lat="42.0098938" lon="19.3508779"><ele>16.0</ele><time>2026-05-03T14:44:45.684Z</time></trkpt><trkpt lat="42.0097814" lon="19.3507729"><ele>15.5</ele><time>2026-05-03T14:44:46.683Z</time></trkpt><trkpt lat="42.0096702" lon="19.3506622"><ele>15.0</ele><time>2026-05-03T14:44:47.683Z</time></trkpt><trkpt lat="42.0095712" lon="19.3505446"><ele>14.5</ele><time>2026-05-03T14:44:48.684Z</time></trkpt><trkpt lat="42.0094858" lon="19.3503928"><ele>14.0</ele><time>2026-05-03T14:44:49.684Z</time></trkpt><trkpt lat="42.0094278" lon="19.3502137"><ele>13.333333333333334</ele><time>2026-05-03T14:44:50.684Z</time></trkpt><trkpt lat="42.0093967" lon="19.3500096"><ele>12.666666666666668</ele><time>2026-05-03T14:44:51.684Z</time></trkpt><trkpt lat="42.0093708" lon="19.3497773"><ele>12.0</ele><time>2026-05-03T14:44:52.684Z</time></trkpt><trkpt lat="42.00935" lon="19.3495397"><ele>11.333333333333334</ele><time>2026-05-03T14:44:53.683Z</time></trkpt><trkpt lat="42.0093307" lon="19.3493041"><ele>10.666666666666668</ele><time>2026-05-03T14:44:54.684Z</time></trkpt><trkpt lat="42.009312" lon="19.3490748"><ele>10.0</ele><time>2026-05-03T14:44:55.684Z</time></trkpt><trkpt lat="42.0093097" lon="19.3488515"><ele>10.0</ele><time>2026-05-03T14:44:56.683Z</time></trkpt><trkpt lat="42.0093309" lon="19.3486365"><ele>10.0</ele><time>2026-05-03T14:44:57.683Z</time></trkpt><trkpt lat="42.0093801" lon="19.3484205"><ele>10.0</ele><time>2026-05-03T14:44:58.684Z</time></trkpt><trkpt lat="42.0094597" lon="19.3482031"><ele>10.333333333333334</ele><time>2026-05-03T14:44:59.684Z</time></trkpt><trkpt lat="42.0095433" lon="19.3479898"><ele>10.666666666666666</ele><time>2026-05-03T14:45:00.683Z</time></trkpt><trkpt lat="42.0096239" lon="19.3477691"><ele>11.0</ele><time>2026-05-03T14:45:01.684Z</time></trkpt><trkpt lat="42.0097103" lon="19.3475402"><ele>11.0</ele><time>2026-05-03T14:45:02.683Z</time></trkpt><trkpt lat="42.0098058" lon="19.3472736"><ele>11.0</ele><time>2026-05-03T14:45:03.684Z</time></trkpt><trkpt lat="42.0098868" lon="19.3470286"><ele>11.0</ele><time>2026-05-03T14:45:04.684Z</time></trkpt><trkpt lat="42.0099754" lon="19.3467785"><ele>11.666666666666666</ele><time>2026-05-03T14:45:05.683Z</time></trkpt><trkpt lat="42.0100624" lon="19.3465274"><ele>12.333333333333332</ele><time>2026-05-03T14:45:06.683Z</time></trkpt><trkpt lat="42.0101473" lon="19.3462757"><ele>13.0</ele><time>2026-05-03T14:45:07.683Z</time></trkpt><trkpt lat="42.01023" lon="19.3460454"><ele>13.0</ele><time>2026-05-03T14:45:08.683Z</time></trkpt><trkpt lat="42.0103168" lon="19.345816"><ele>13.0</ele><time>2026-05-03T14:45:09.684Z</time></trkpt><trkpt lat="42.0103967" lon="19.3456028"><ele>13.0</ele><time>2026-05-03T14:45:10.683Z</time></trkpt><trkpt lat="42.0104726" lon="19.345387"><ele>13.0</ele><time>2026-05-03T14:45:11.683Z</time></trkpt><trkpt lat="42.0105358" lon="19.3451851"><ele>13.0</ele><time>2026-05-03T14:45:12.683Z</time></trkpt><trkpt lat="42.010578" lon="19.3449769"><ele>13.0</ele><time>2026-05-03T14:45:13.684Z</time></trkpt><trkpt lat="42.0105987" lon="19.3447493"><ele>12.666666666666666</ele><time>2026-05-03T14:45:14.684Z</time></trkpt><trkpt lat="42.0106078" lon="19.3445182"><ele>12.333333333333332</ele><time>2026-05-03T14:45:15.684Z</time></trkpt><trkpt lat="42.010613" lon="19.3442604"><ele>12.0</ele><time>2026-05-03T14:45:16.684Z</time></trkpt><trkpt lat="42.0106167" lon="19.3440025"><ele>12.333333333333332</ele><time>2026-05-03T14:45:17.684Z</time></trkpt><trkpt lat="42.0106153" lon="19.3437472"><ele>12.666666666666666</ele><time>2026-05-03T14:45:18.684Z</time></trkpt><trkpt lat="42.0106226" lon="19.3434886"><ele>13.0</ele><time>2026-05-03T14:45:19.684Z</time></trkpt><trkpt lat="42.0106266" lon="19.3432344"><ele>13.0</ele><time>2026-05-03T14:45:20.683Z</time></trkpt><trkpt lat="42.0106325" lon="19.34298"><ele>13.0</ele><time>2026-05-03T14:45:21.684Z</time></trkpt><trkpt lat="42.0106315" lon="19.3427348"><ele>13.0</ele><time>2026-05-03T14:45:22.683Z</time></trkpt><trkpt lat="42.0106222" lon="19.3424979"><ele>13.0</ele><time>2026-05-03T14:45:23.684Z</time></trkpt><trkpt lat="42.0106021" lon="19.3422638"><ele>13.0</ele><time>2026-05-03T14:45:24.684Z</time></trkpt><trkpt lat="42.0105695" lon="19.3420582"><ele>13.0</ele><time>2026-05-03T14:45:25.683Z</time></trkpt><trkpt lat="42.0105281" lon="19.3418635"><ele>13.5</ele><time>2026-05-03T14:45:26.684Z</time></trkpt><trkpt lat="42.0104866" lon="19.341678"><ele>14.0</ele><time>2026-05-03T14:45:27.683Z</time></trkpt><trkpt lat="42.0104517" lon="19.34149"><ele>14.5</ele><time>2026-05-03T14:45:28.683Z</time></trkpt><trkpt lat="42.010441" lon="19.3413125"><ele>15.0</ele><time>2026-05-03T14:45:29.684Z</time></trkpt><trkpt lat="42.0104771" lon="19.3411436"><ele>15.25</ele><time>2026-05-03T14:45:30.683Z</time></trkpt><trkpt lat="42.010544" lon="19.3409734"><ele>15.5</ele><time>2026-05-03T14:45:31.683Z</time></trkpt><trkpt lat="42.01063" lon="19.3408062"><ele>15.75</ele><time>2026-05-03T14:45:32.683Z</time></trkpt><trkpt lat="42.0107275" lon="19.3406445"><ele>16.0</ele><time>2026-05-03T14:45:33.684Z</time></trkpt><trkpt lat="42.0108292" lon="19.3404813"><ele>15.5</ele><time>2026-05-03T14:45:34.683Z</time></trkpt><trkpt lat="42.0109159" lon="19.3403288"><ele>15.0</ele><time>2026-05-03T14:45:35.684Z</time></trkpt><trkpt lat="42.0109911" lon="19.3401712"><ele>14.5</ele><time>2026-05-03T14:45:36.684Z</time></trkpt><trkpt lat="42.011033" lon="19.340011"><ele>14.0</ele><time>2026-05-03T14:45:37.683Z</time></trkpt><trkpt lat="42.0110407" lon="19.3398293"><ele>15.666666666666668</ele><time>2026-05-03T14:45:38.684Z</time></trkpt><trkpt lat="42.0110255" lon="19.3396244"><ele>17.333333333333332</ele><time>2026-05-03T14:45:39.683Z</time></trkpt><trkpt lat="42.0109925" lon="19.3393951"><ele>19.0</ele><time>2026-05-03T14:45:40.684Z</time></trkpt><trkpt lat="42.0109553" lon="19.3391568"><ele>19.0</ele><time>2026-05-03T14:45:41.683Z</time></trkpt><trkpt lat="42.0109132" lon="19.3389048"><ele>19.0</ele><time>2026-05-03T14:45:42.684Z</time></trkpt><trkpt lat="42.010879" lon="19.3386296"><ele>19.0</ele><time>2026-05-03T14:45:43.683Z</time></trkpt><trkpt lat="42.0108289" lon="19.3383532"><ele>18.0</ele><time>2026-05-03T14:45:44.684Z</time></trkpt><trkpt lat="42.0107846" lon="19.3380762"><ele>17.0</ele><time>2026-05-03T14:45:45.684Z</time></trkpt><trkpt lat="42.0107449" lon="19.3377939"><ele>16.0</ele><time>2026-05-03T14:45:46.684Z</time></trkpt><trkpt lat="42.010705" lon="19.3375316"><ele>18.666666666666664</ele><time>2026-05-03T14:45:47.683Z</time></trkpt><trkpt lat="42.0106641" lon="19.3372771"><ele>21.333333333333332</ele><time>2026-05-03T14:45:48.684Z</time></trkpt><trkpt lat="42.010625" lon="19.3370436"><ele>24.0</ele><time>2026-05-03T14:45:49.684Z</time></trkpt><trkpt lat="42.0105928" lon="19.3368133"><ele>25.333333333333336</ele><time>2026-05-03T14:45:50.684Z</time></trkpt><trkpt lat="42.0105691" lon="19.336588"><ele>26.666666666666668</ele><time>2026-05-03T14:45:51.684Z</time></trkpt><trkpt lat="42.0105624" lon="19.3363884"><ele>28.0</ele><time>2026-05-03T14:45:52.683Z</time></trkpt><trkpt lat="42.0105875" lon="19.3361754"><ele>29.666666666666668</ele><time>2026-05-03T14:45:53.683Z</time></trkpt><trkpt lat="42.0106339" lon="19.3359594"><ele>31.333333333333336</ele><time>2026-05-03T14:45:54.683Z</time></trkpt><trkpt lat="42.0107041" lon="19.3357341"><ele>33.0</ele><time>2026-05-03T14:45:55.683Z</time></trkpt><trkpt lat="42.0107836" lon="19.3355015"><ele>29.0</ele><time>2026-05-03T14:45:56.684Z</time></trkpt><trkpt lat="42.0108642" lon="19.3352788"><ele>25.0</ele><time>2026-05-03T14:45:57.684Z</time></trkpt><trkpt lat="42.010955" lon="19.3350669"><ele>21.0</ele><time>2026-05-03T14:45:58.684Z</time></trkpt><trkpt lat="42.0110627" lon="19.3348641"><ele>21.666666666666668</ele><time>2026-05-03T14:45:59.684Z</time></trkpt><trkpt lat="42.011192" lon="19.3346673"><ele>22.333333333333336</ele><time>2026-05-03T14:46:00.684Z</time></trkpt><trkpt lat="42.0113288" lon="19.3344844"><ele>23.0</ele><time>2026-05-03T14:46:01.683Z</time></trkpt><trkpt lat="42.0114719" lon="19.3343076"><ele>23.0</ele><time>2026-05-03T14:46:02.683Z</time></trkpt><trkpt lat="42.0116095" lon="19.3341442"><ele>23.0</ele><time>2026-05-03T14:46:03.684Z</time></trkpt><trkpt lat="42.0117428" lon="19.3339879"><ele>23.0</ele><time>2026-05-03T14:46:04.684Z</time></trkpt><trkpt lat="42.0118677" lon="19.3338417"><ele>24.75</ele><time>2026-05-03T14:46:05.684Z</time></trkpt><trkpt lat="42.0119869" lon="19.3337097"><ele>26.5</ele><time>2026-05-03T14:46:06.684Z</time></trkpt><trkpt lat="42.0120801" lon="19.3335947"><ele>28.25</ele><time>2026-05-03T14:46:07.684Z</time></trkpt><trkpt lat="42.0121599" lon="19.3334847"><ele>30.0</ele><time>2026-05-03T14:46:08.683Z</time></trkpt><trkpt lat="42.0122183" lon="19.3333489"><ele>30.0</ele><time>2026-05-03T14:46:09.684Z</time></trkpt><trkpt lat="42.0122596" lon="19.3332101"><ele>30.0</ele><time>2026-05-03T14:46:10.683Z</time></trkpt><trkpt lat="42.0122549" lon="19.333062"><ele>30.0</ele><time>2026-05-03T14:46:11.683Z</time></trkpt><trkpt lat="42.012223" lon="19.3329125"><ele>30.0</ele><time>2026-05-03T14:46:12.683Z</time></trkpt><trkpt lat="42.0121581" lon="19.3327652"><ele>27.75</ele><time>2026-05-03T14:46:13.684Z</time></trkpt><trkpt lat="42.0120628" lon="19.3326549"><ele>25.5</ele><time>2026-05-03T14:46:14.683Z</time></trkpt><trkpt lat="42.0119437" lon="19.3325799"><ele>23.25</ele><time>2026-05-03T14:46:15.683Z</time></trkpt><trkpt lat="42.011807" lon="19.3325162"><ele>21.0</ele><time>2026-05-03T14:46:16.684Z</time></trkpt><trkpt lat="42.0116677" lon="19.3324428"><ele>20.666666666666668</ele><time>2026-05-03T14:46:17.683Z</time></trkpt><trkpt lat="42.0115485" lon="19.332324"><ele>20.333333333333336</ele><time>2026-05-03T14:46:18.684Z</time></trkpt><trkpt lat="42.0114461" lon="19.3321631"><ele>20.0</ele><time>2026-05-03T14:46:19.684Z</time></trkpt><trkpt lat="42.0113348" lon="19.3319709"><ele>20.0</ele><time>2026-05-03T14:46:20.683Z</time></trkpt><trkpt lat="42.0112086" lon="19.3317964"><ele>20.0</ele><time>2026-05-03T14:46:21.684Z</time></trkpt><trkpt lat="42.0110631" lon="19.3316247"><ele>20.0</ele><time>2026-05-03T14:46:22.684Z</time></trkpt><trkpt lat="42.0108981" lon="19.3314616"><ele>20.0</ele><time>2026-05-03T14:46:23.684Z</time></trkpt><trkpt lat="42.0107269" lon="19.331295"><ele>20.0</ele><time>2026-05-03T14:46:24.684Z</time></trkpt><trkpt lat="42.0105538" lon="19.3311228"><ele>20.0</ele><time>2026-05-03T14:46:25.683Z</time></trkpt><trkpt lat="42.0103846" lon="19.3309541"><ele>20.0</ele><time>2026-05-03T14:46:26.683Z</time></trkpt><trkpt lat="42.0102158" lon="19.3307867"><ele>20.0</ele><time>2026-05-03T14:46:27.683Z</time></trkpt><trkpt lat="42.0100503" lon="19.3306282"><ele>20.0</ele><time>2026-05-03T14:46:28.684Z</time></trkpt><trkpt lat="42.0098858" lon="19.3304799"><ele>18.0</ele><time>2026-05-03T14:46:29.684Z</time></trkpt><trkpt lat="42.0097235" lon="19.3303568"><ele>16.0</ele><time>2026-05-03T14:46:30.684Z</time></trkpt><trkpt lat="42.0095522" lon="19.3302458"><ele>14.0</ele><time>2026-05-03T14:46:31.683Z</time></trkpt><trkpt lat="42.0093707" lon="19.3301456"><ele>14.0</ele><time>2026-05-03T14:46:32.684Z</time></trkpt><trkpt lat="42.009194" lon="19.3300518"><ele>14.0</ele><time>2026-05-03T14:46:33.683Z</time></trkpt><trkpt lat="42.0090139" lon="19.3299617"><ele>14.0</ele><time>2026-05-03T14:46:34.684Z</time></trkpt><trkpt lat="42.0088292" lon="19.3298727"><ele>13.666666666666668</ele><time>2026-05-03T14:46:35.683Z</time></trkpt><trkpt lat="42.0086426" lon="19.3297843"><ele>13.333333333333332</ele><time>2026-05-03T14:46:36.684Z</time></trkpt><trkpt lat="42.0084545" lon="19.3296899"><ele>13.0</ele><time>2026-05-03T14:46:37.683Z</time></trkpt><trkpt lat="42.0082686" lon="19.3295979"><ele>14.666666666666666</ele><time>2026-05-03T14:46:38.684Z</time></trkpt><trkpt lat="42.0080798" lon="19.3295079"><ele>16.333333333333332</ele><time>2026-05-03T14:46:39.684Z</time></trkpt><trkpt lat="42.0078935" lon="19.3294094"><ele>18.0</ele><time>2026-05-03T14:46:40.683Z</time></trkpt><trkpt lat="42.0077058" lon="19.3292958"><ele>18.0</ele><time>2026-05-03T14:46:41.684Z</time></trkpt><trkpt lat="42.0075166" lon="19.3291705"><ele>18.0</ele><time>2026-05-03T14:46:42.683Z</time></trkpt><trkpt lat="42.0073213" lon="19.3290481"><ele>18.0</ele><time>2026-05-03T14:46:43.684Z</time></trkpt><trkpt lat="42.0071297" lon="19.3289168"><ele>18.666666666666668</ele><time>2026-05-03T14:46:44.683Z</time></trkpt><trkpt lat="42.0069449" lon="19.3287896"><ele>19.333333333333336</ele><time>2026-05-03T14:46:45.683Z</time></trkpt><trkpt lat="42.0067557" lon="19.3286602"><ele>20.0</ele><time>2026-05-03T14:46:46.683Z</time></trkpt><trkpt lat="42.0065646" lon="19.3285334"><ele>20.333333333333336</ele><time>2026-05-03T14:46:47.684Z</time></trkpt><trkpt lat="42.0063726" lon="19.3284126"><ele>20.666666666666668</ele><time>2026-05-03T14:46:48.683Z</time></trkpt><trkpt lat="42.0061908" lon="19.3282919"><ele>21.0</ele><time>2026-05-03T14:46:49.684Z</time></trkpt><trkpt lat="42.006035" lon="19.3281843"><ele>21.0</ele><time>2026-05-03T14:46:50.684Z</time></trkpt><trkpt lat="42.005873" lon="19.3280763"><ele>21.0</ele><time>2026-05-03T14:46:51.683Z</time></trkpt><trkpt lat="42.0057283" lon="19.3279818"><ele>21.0</ele><time>2026-05-03T14:46:52.683Z</time></trkpt><trkpt lat="42.0056029" lon="19.3279002"><ele>22.25</ele><time>2026-05-03T14:46:53.684Z</time></trkpt><trkpt lat="42.0054913" lon="19.3278155"><ele>23.5</ele><time>2026-05-03T14:46:54.684Z</time></trkpt><trkpt lat="42.0054041" lon="19.3277147"><ele>24.75</ele><time>2026-05-03T14:46:55.683Z</time></trkpt><trkpt lat="42.0053278" lon="19.3275962"><ele>26.0</ele><time>2026-05-03T14:46:56.683Z</time></trkpt><trkpt lat="42.0053057" lon="19.3274473"><ele>26.0</ele><time>2026-05-03T14:46:57.684Z</time></trkpt><trkpt lat="42.0052945" lon="19.3272759"><ele>26.0</ele><time>2026-05-03T14:46:58.683Z</time></trkpt><trkpt lat="42.0052946" lon="19.3271046"><ele>26.0</ele><time>2026-05-03T14:46:59.684Z</time></trkpt><trkpt lat="42.0052905" lon="19.3269368"><ele>26.0</ele><time>2026-05-03T14:47:00.683Z</time></trkpt><trkpt lat="42.0052673" lon="19.3267758"><ele>27.0</ele><time>2026-05-03T14:47:01.684Z</time></trkpt><trkpt lat="42.0052301" lon="19.3266258"><ele>28.0</ele><time>2026-05-03T14:47:02.684Z</time></trkpt><trkpt lat="42.0051977" lon="19.3264768"><ele>29.0</ele><time>2026-05-03T14:47:03.683Z</time></trkpt><trkpt lat="42.0051655" lon="19.3263314"><ele>30.0</ele><time>2026-05-03T14:47:04.684Z</time></trkpt><trkpt lat="42.005152" lon="19.326205"><ele>31.0</ele><time>2026-05-03T14:47:05.683Z</time></trkpt><trkpt lat="42.0051855" lon="19.326068"><ele>31.75</ele><time>2026-05-03T14:47:06.684Z</time></trkpt><trkpt lat="42.0052404" lon="19.3259361"><ele>32.5</ele><time>2026-05-03T14:47:07.684Z</time></trkpt><trkpt lat="42.0053156" lon="19.3258168"><ele>33.25</ele><time>2026-05-03T14:47:08.684Z</time></trkpt><trkpt lat="42.0054004" lon="19.3257027"><ele>34.0</ele><time>2026-05-03T14:47:09.684Z</time></trkpt><trkpt lat="42.0054661" lon="19.3255742"><ele>33.5</ele><time>2026-05-03T14:47:10.684Z</time></trkpt><trkpt lat="42.0055046" lon="19.3254257"><ele>33.0</ele><time>2026-05-03T14:47:11.684Z</time></trkpt><trkpt lat="42.0055284" lon="19.3252809"><ele>32.5</ele><time>2026-05-03T14:47:12.683Z</time></trkpt><trkpt lat="42.0055583" lon="19.3251339"><ele>32.0</ele><time>2026-05-03T14:47:13.683Z</time></trkpt><trkpt lat="42.0056154" lon="19.3249918"><ele>32.0</ele><time>2026-05-03T14:47:14.684Z</time></trkpt><trkpt lat="42.0056835" lon="19.3248858"><ele>32.0</ele><time>2026-05-03T14:47:15.684Z</time></trkpt><trkpt lat="42.0057845" lon="19.3247682"><ele>32.0</ele><time>2026-05-03T14:47:16.684Z</time></trkpt><trkpt lat="42.0058684" lon="19.324698"><ele>32.0</ele><time>2026-05-03T14:47:17.684Z</time></trkpt><trkpt lat="42.005964" lon="19.3246403"><ele>32.0</ele><time>2026-05-03T14:47:18.683Z</time></trkpt><trkpt lat="42.0060468" lon="19.3245827"><ele>32.4</ele><time>2026-05-03T14:47:19.684Z</time></trkpt><trkpt lat="42.0061264" lon="19.324535"><ele>32.800000000000004</ele><time>2026-05-03T14:47:20.683Z</time></trkpt><trkpt lat="42.0062016" lon="19.3244805"><ele>33.2</ele><time>2026-05-03T14:47:21.684Z</time></trkpt><trkpt lat="42.0062887" lon="19.3244183"><ele>33.6</ele><time>2026-05-03T14:47:22.684Z</time></trkpt><trkpt lat="42.006365" lon="19.3243468"><ele>34.0</ele><time>2026-05-03T14:47:23.684Z</time></trkpt><trkpt lat="42.0064341" lon="19.3242699"><ele>33.99999999999999</ele><time>2026-05-03T14:47:24.684Z</time></trkpt><trkpt lat="42.0064896" lon="19.3241947"><ele>34.0</ele><time>2026-05-03T14:47:25.684Z</time></trkpt><trkpt lat="42.0065432" lon="19.3241336"><ele>34.0</ele><time>2026-05-03T14:47:26.683Z</time></trkpt><trkpt lat="42.0065937" lon="19.3240682"><ele>34.0</ele><time>2026-05-03T14:47:27.683Z</time></trkpt><trkpt lat="42.0066413" lon="19.3240041"><ele>34.0</ele><time>2026-05-03T14:47:28.684Z</time></trkpt><trkpt lat="42.0066819" lon="19.3239372"><ele>33.99999999999999</ele><time>2026-05-03T14:47:29.684Z</time></trkpt><trkpt lat="42.0067181" lon="19.3238603"><ele>34.0</ele><time>2026-05-03T14:47:30.683Z</time></trkpt><trkpt lat="42.0067548" lon="19.3237863"><ele>34.333333333333336</ele><time>2026-05-03T14:47:31.683Z</time></trkpt><trkpt lat="42.0067974" lon="19.3237177"><ele>34.66666666666667</ele><time>2026-05-03T14:47:32.683Z</time></trkpt><trkpt lat="42.0068737" lon="19.323583"><ele>35.0</ele><time>2026-05-03T14:47:34.684Z</time></trkpt><trkpt lat="42.0069208" lon="19.3235059"><ele>35.333333333333336</ele><time>2026-05-03T14:47:36.684Z</time></trkpt><trkpt lat="42.0069833" lon="19.3233995"><ele>35.666666666666664</ele><time>2026-05-03T14:47:38.684Z</time></trkpt><trkpt lat="42.0070331" lon="19.3233119"><ele>36.0</ele><time>2026-05-03T14:47:39.683Z</time></trkpt><trkpt lat="42.0070911" lon="19.3232085"><ele>36.0</ele><time>2026-05-03T14:47:40.684Z</time></trkpt><trkpt lat="42.0071538" lon="19.3230882"><ele>36.0</ele><time>2026-05-03T14:47:41.683Z</time></trkpt><trkpt lat="42.0072167" lon="19.322937"><ele>36.0</ele><time>2026-05-03T14:47:42.684Z</time></trkpt><trkpt lat="42.0072742" lon="19.3227874"><ele>36.0</ele><time>2026-05-03T14:47:43.684Z</time></trkpt><trkpt lat="42.0073261" lon="19.3226243"><ele>36.0</ele><time>2026-05-03T14:47:44.684Z</time></trkpt><trkpt lat="42.0073798" lon="19.3224437"><ele>36.0</ele><time>2026-05-03T14:47:45.683Z</time></trkpt><trkpt lat="42.0074255" lon="19.3222556"><ele>36.0</ele><time>2026-05-03T14:47:46.683Z</time></trkpt><trkpt lat="42.007475" lon="19.3220654"><ele>36.0</ele><time>2026-05-03T14:47:47.683Z</time></trkpt><trkpt lat="42.0075131" lon="19.321893"><ele>36.0</ele><time>2026-05-03T14:47:48.684Z</time></trkpt><trkpt lat="42.0075189" lon="19.321725"><ele>36.0</ele><time>2026-05-03T14:47:49.684Z</time></trkpt><trkpt lat="42.0074939" lon="19.3215679"><ele>36.0</ele><time>2026-05-03T14:47:50.684Z</time></trkpt><trkpt lat="42.0074563" lon="19.3214186"><ele>36.0</ele><time>2026-05-03T14:47:51.684Z</time></trkpt><trkpt lat="42.0074288" lon="19.3212669"><ele>37.75</ele><time>2026-05-03T14:47:52.683Z</time></trkpt><trkpt lat="42.0074188" lon="19.3211101"><ele>39.5</ele><time>2026-05-03T14:47:53.684Z</time></trkpt><trkpt lat="42.0074367" lon="19.3209513"><ele>41.25</ele><time>2026-05-03T14:47:54.683Z</time></trkpt><trkpt lat="42.0074801" lon="19.3207966"><ele>43.0</ele><time>2026-05-03T14:47:55.684Z</time></trkpt><trkpt lat="42.0075746" lon="19.3206385"><ele>42.0</ele><time>2026-05-03T14:47:56.683Z</time></trkpt><trkpt lat="42.007671" lon="19.3204763"><ele>41.0</ele><time>2026-05-03T14:47:57.684Z</time></trkpt><trkpt lat="42.0077639" lon="19.3203057"><ele>40.0</ele><time>2026-05-03T14:47:58.684Z</time></trkpt><trkpt lat="42.0078483" lon="19.320134"><ele>40.0</ele><time>2026-05-03T14:47:59.683Z</time></trkpt><trkpt lat="42.0079237" lon="19.3199507"><ele>40.0</ele><time>2026-05-03T14:48:00.684Z</time></trkpt><trkpt lat="42.0079864" lon="19.3197579"><ele>40.0</ele><time>2026-05-03T14:48:01.684Z</time></trkpt><trkpt lat="42.0080367" lon="19.3195503"><ele>38.333333333333336</ele><time>2026-05-03T14:48:02.684Z</time></trkpt><trkpt lat="42.0080807" lon="19.3193563"><ele>36.666666666666664</ele><time>2026-05-03T14:48:03.683Z</time></trkpt><trkpt lat="42.0081126" lon="19.3191578"><ele>35.0</ele><time>2026-05-03T14:48:04.683Z</time></trkpt><trkpt lat="42.0081343" lon="19.3189608"><ele>34.25</ele><time>2026-05-03T14:48:05.684Z</time></trkpt><trkpt lat="42.008145" lon="19.3187724"><ele>33.5</ele><time>2026-05-03T14:48:06.684Z</time></trkpt><trkpt lat="42.0081542" lon="19.3186033"><ele>32.75</ele><time>2026-05-03T14:48:07.684Z</time></trkpt><trkpt lat="42.008174" lon="19.3184519"><ele>32.0</ele><time>2026-05-03T14:48:08.683Z</time></trkpt><trkpt lat="42.0082193" lon="19.318309"><ele>32.0</ele><time>2026-05-03T14:48:09.683Z</time></trkpt><trkpt lat="42.0082935" lon="19.3181802"><ele>32.0</ele><time>2026-05-03T14:48:10.684Z</time></trkpt><trkpt lat="42.008389" lon="19.3180569"><ele>32.0</ele><time>2026-05-03T14:48:11.683Z</time></trkpt><trkpt lat="42.0084928" lon="19.3179274"><ele>32.0</ele><time>2026-05-03T14:48:12.683Z</time></trkpt><trkpt lat="42.0085854" lon="19.3177725"><ele>32.33333333333333</ele><time>2026-05-03T14:48:13.684Z</time></trkpt><trkpt lat="42.0086643" lon="19.3175987"><ele>32.666666666666664</ele><time>2026-05-03T14:48:14.684Z</time></trkpt><trkpt lat="42.0087411" lon="19.3174156"><ele>33.0</ele><time>2026-05-03T14:48:15.683Z</time></trkpt><trkpt lat="42.008816" lon="19.3172299"><ele>33.666666666666664</ele><time>2026-05-03T14:48:16.683Z</time></trkpt><trkpt lat="42.0088792" lon="19.3170502"><ele>34.33333333333333</ele><time>2026-05-03T14:48:17.683Z</time></trkpt><trkpt lat="42.0089477" lon="19.3168633"><ele>35.0</ele><time>2026-05-03T14:48:18.684Z</time></trkpt><trkpt lat="42.0090187" lon="19.3166724"><ele>35.0</ele><time>2026-05-03T14:48:19.684Z</time></trkpt><trkpt lat="42.0090869" lon="19.3164778"><ele>35.0</ele><time>2026-05-03T14:48:20.683Z</time></trkpt><trkpt lat="42.0091582" lon="19.3162816"><ele>35.0</ele><time>2026-05-03T14:48:21.683Z</time></trkpt><trkpt lat="42.0092287" lon="19.316093"><ele>35.5</ele><time>2026-05-03T14:48:22.684Z</time></trkpt><trkpt lat="42.0092935" lon="19.3159126"><ele>36.0</ele><time>2026-05-03T14:48:23.683Z</time></trkpt><trkpt lat="42.009361" lon="19.3157298"><ele>36.5</ele><time>2026-05-03T14:48:24.684Z</time></trkpt><trkpt lat="42.0094258" lon="19.3155562"><ele>37.0</ele><time>2026-05-03T14:48:25.683Z</time></trkpt><trkpt lat="42.0094882" lon="19.3153807"><ele>37.75</ele><time>2026-05-03T14:48:26.684Z</time></trkpt><trkpt lat="42.0095595" lon="19.3152249"><ele>38.5</ele><time>2026-05-03T14:48:27.684Z</time></trkpt><trkpt lat="42.0096188" lon="19.3150915"><ele>39.25</ele><time>2026-05-03T14:48:28.684Z</time></trkpt><trkpt lat="42.0096758" lon="19.3149585"><ele>40.0</ele><time>2026-05-03T14:48:29.683Z</time></trkpt><trkpt lat="42.0097273" lon="19.3148371"><ele>40.8</ele><time>2026-05-03T14:48:30.683Z</time></trkpt><trkpt lat="42.009796" lon="19.3147243"><ele>41.6</ele><time>2026-05-03T14:48:31.684Z</time></trkpt><trkpt lat="42.0098445" lon="19.3145985"><ele>42.400000000000006</ele><time>2026-05-03T14:48:32.684Z</time></trkpt><trkpt lat="42.0098948" lon="19.3144766"><ele>43.2</ele><time>2026-05-03T14:48:33.683Z</time></trkpt><trkpt lat="42.0099342" lon="19.3143553"><ele>44.0</ele><time>2026-05-03T14:48:34.683Z</time></trkpt><trkpt lat="42.0099789" lon="19.3142204"><ele>44.800000000000004</ele><time>2026-05-03T14:48:35.684Z</time></trkpt><trkpt lat="42.0100072" lon="19.314082"><ele>45.6</ele><time>2026-05-03T14:48:36.684Z</time></trkpt><trkpt lat="42.0100256" lon="19.3139385"><ele>46.4</ele><time>2026-05-03T14:48:37.683Z</time></trkpt><trkpt lat="42.0100195" lon="19.3137907"><ele>47.2</ele><time>2026-05-03T14:48:38.684Z</time></trkpt><trkpt lat="42.0099877" lon="19.3136543"><ele>48.0</ele><time>2026-05-03T14:48:39.684Z</time></trkpt><trkpt lat="42.009937" lon="19.3135312"><ele>48.0</ele><time>2026-05-03T14:48:40.683Z</time></trkpt><trkpt lat="42.0098645" lon="19.3134192"><ele>48.0</ele><time>2026-05-03T14:48:41.683Z</time></trkpt><trkpt lat="42.0097808" lon="19.3133222"><ele>48.0</ele><time>2026-05-03T14:48:42.684Z</time></trkpt><trkpt lat="42.0096892" lon="19.3132394"><ele>48.0</ele><time>2026-05-03T14:48:43.683Z</time></trkpt><trkpt lat="42.0096018" lon="19.313177"><ele>48.0</ele><time>2026-05-03T14:48:44.684Z</time></trkpt><trkpt lat="42.0095192" lon="19.3131168"><ele>47.0</ele><time>2026-05-03T14:48:45.684Z</time></trkpt><trkpt lat="42.0094369" lon="19.3130436"><ele>46.0</ele><time>2026-05-03T14:48:46.683Z</time></trkpt><trkpt lat="42.0093604" lon="19.3129498"><ele>45.0</ele><time>2026-05-03T14:48:47.683Z</time></trkpt><trkpt lat="42.0093028" lon="19.3128499"><ele>44.0</ele><time>2026-05-03T14:48:48.684Z</time></trkpt><trkpt lat="42.0092596" lon="19.3127305"><ele>43.0</ele><time>2026-05-03T14:48:49.684Z</time></trkpt><trkpt lat="42.0092273" lon="19.3125978"><ele>43.0</ele><time>2026-05-03T14:48:50.683Z</time></trkpt><trkpt lat="42.0092172" lon="19.3124519"><ele>43.0</ele><time>2026-05-03T14:48:51.683Z</time></trkpt><trkpt lat="42.0092133" lon="19.312296"><ele>43.0</ele><time>2026-05-03T14:48:52.683Z</time></trkpt><trkpt lat="42.0092185" lon="19.312128"><ele>43.0</ele><time>2026-05-03T14:48:53.683Z</time></trkpt><trkpt lat="42.0092287" lon="19.311973"><ele>42.25</ele><time>2026-05-03T14:48:54.684Z</time></trkpt><trkpt lat="42.0092346" lon="19.3118181"><ele>41.5</ele><time>2026-05-03T14:48:55.684Z</time></trkpt><trkpt lat="42.009242" lon="19.3116628"><ele>40.75</ele><time>2026-05-03T14:48:56.683Z</time></trkpt><trkpt lat="42.0092615" lon="19.3115177"><ele>40.0</ele><time>2026-05-03T14:48:57.683Z</time></trkpt><trkpt lat="42.0092921" lon="19.311365"><ele>38.6</ele><time>2026-05-03T14:48:58.683Z</time></trkpt><trkpt lat="42.0093346" lon="19.3112229"><ele>37.2</ele><time>2026-05-03T14:48:59.683Z</time></trkpt><trkpt lat="42.0093744" lon="19.3110886"><ele>35.8</ele><time>2026-05-03T14:49:00.684Z</time></trkpt><trkpt lat="42.0094162" lon="19.3109578"><ele>34.4</ele><time>2026-05-03T14:49:01.684Z</time></trkpt><trkpt lat="42.0094583" lon="19.3108185"><ele>33.0</ele><time>2026-05-03T14:49:02.683Z</time></trkpt><trkpt lat="42.0094967" lon="19.3106799"><ele>33.199999999999996</ele><time>2026-05-03T14:49:03.683Z</time></trkpt><trkpt lat="42.0095424" lon="19.3105517"><ele>33.4</ele><time>2026-05-03T14:49:04.683Z</time></trkpt><trkpt lat="42.009581" lon="19.3104308"><ele>33.599999999999994</ele><time>2026-05-03T14:49:05.684Z</time></trkpt><trkpt lat="42.0096147" lon="19.3103075"><ele>33.8</ele><time>2026-05-03T14:49:06.684Z</time></trkpt><trkpt lat="42.0096367" lon="19.310179"><ele>34.0</ele><time>2026-05-03T14:49:07.684Z</time></trkpt><trkpt lat="42.0096422" lon="19.3100505"><ele>34.0</ele><time>2026-05-03T14:49:08.684Z</time></trkpt><trkpt lat="42.0096321" lon="19.30992"><ele>34.0</ele><time>2026-05-03T14:49:09.683Z</time></trkpt><trkpt lat="42.0096082" lon="19.3097999"><ele>34.0</ele><time>2026-05-03T14:49:10.684Z</time></trkpt><trkpt lat="42.0095688" lon="19.3096889"><ele>34.0</ele><time>2026-05-03T14:49:11.684Z</time></trkpt><trkpt lat="42.0095115" lon="19.3095974"><ele>34.0</ele><time>2026-05-03T14:49:12.683Z</time></trkpt><trkpt lat="42.0094419" lon="19.309542"><ele>34.25</ele><time>2026-05-03T14:49:13.683Z</time></trkpt><trkpt lat="42.0093507" lon="19.3094982"><ele>34.5</ele><time>2026-05-03T14:49:14.684Z</time></trkpt><trkpt lat="42.0092431" lon="19.3094601"><ele>34.75</ele><time>2026-05-03T14:49:15.684Z</time></trkpt><trkpt lat="42.0091238" lon="19.3094252"><ele>35.0</ele><time>2026-05-03T14:49:16.684Z</time></trkpt><trkpt lat="42.0089998" lon="19.3093961"><ele>35.25</ele><time>2026-05-03T14:49:17.684Z</time></trkpt><trkpt lat="42.008876" lon="19.3093657"><ele>35.5</ele><time>2026-05-03T14:49:18.683Z</time></trkpt><trkpt lat="42.0087531" lon="19.3093313"><ele>35.75</ele><time>2026-05-03T14:49:19.684Z</time></trkpt><trkpt lat="42.0086299" lon="19.3092976"><ele>36.0</ele><time>2026-05-03T14:49:20.684Z</time></trkpt><trkpt lat="42.008521" lon="19.3092481"><ele>36.0</ele><time>2026-05-03T14:49:21.683Z</time></trkpt><trkpt lat="42.0083944" lon="19.3092082"><ele>36.0</ele><time>2026-05-03T14:49:22.684Z</time></trkpt><trkpt lat="42.0082683" lon="19.3091512"><ele>36.0</ele><time>2026-05-03T14:49:23.684Z</time></trkpt><trkpt lat="42.0081454" lon="19.3090764"><ele>36.0</ele><time>2026-05-03T14:49:24.683Z</time></trkpt><trkpt lat="42.0080265" lon="19.308984"><ele>35.0</ele><time>2026-05-03T14:49:25.684Z</time></trkpt><trkpt lat="42.0079241" lon="19.3088673"><ele>34.0</ele><time>2026-05-03T14:49:26.684Z</time></trkpt><trkpt lat="42.0078427" lon="19.3087318"><ele>33.0</ele><time>2026-05-03T14:49:27.683Z</time></trkpt><trkpt lat="42.007773" lon="19.3085784"><ele>32.0</ele><time>2026-05-03T14:49:28.684Z</time></trkpt><trkpt lat="42.0077173" lon="19.3084187"><ele>32.0</ele><time>2026-05-03T14:49:29.684Z</time></trkpt><trkpt lat="42.0076877" lon="19.3082578"><ele>32.0</ele><time>2026-05-03T14:49:30.683Z</time></trkpt><trkpt lat="42.0076811" lon="19.3080937"><ele>32.0</ele><time>2026-05-03T14:49:31.684Z</time></trkpt><trkpt lat="42.0076858" lon="19.3078913"><ele>32.0</ele><time>2026-05-03T14:49:32.684Z</time></trkpt><trkpt lat="42.0076993" lon="19.3076977"><ele>32.25</ele><time>2026-05-03T14:49:33.683Z</time></trkpt><trkpt lat="42.0077257" lon="19.3075202"><ele>32.5</ele><time>2026-05-03T14:49:34.684Z</time></trkpt><trkpt lat="42.0077274" lon="19.3073302"><ele>32.75</ele><time>2026-05-03T14:49:35.684Z</time></trkpt><trkpt lat="42.0077324" lon="19.3071324"><ele>33.0</ele><time>2026-05-03T14:49:36.684Z</time></trkpt><trkpt lat="42.0077115" lon="19.3069594"><ele>33.0</ele><time>2026-05-03T14:49:37.683Z</time></trkpt><trkpt lat="42.007682" lon="19.3067901"><ele>33.0</ele><time>2026-05-03T14:49:38.683Z</time></trkpt><trkpt lat="42.0076365" lon="19.3066194"><ele>33.0</ele><time>2026-05-03T14:49:39.683Z</time></trkpt><trkpt lat="42.0075601" lon="19.3064707"><ele>33.0</ele><time>2026-05-03T14:49:40.683Z</time></trkpt><trkpt lat="42.0074606" lon="19.3063414"><ele>34.0</ele><time>2026-05-03T14:49:41.684Z</time></trkpt><trkpt lat="42.0073401" lon="19.306238"><ele>35.0</ele><time>2026-05-03T14:49:42.684Z</time></trkpt><trkpt lat="42.0071988" lon="19.3061545"><ele>36.0</ele><time>2026-05-03T14:49:43.684Z</time></trkpt><trkpt lat="42.007047" lon="19.3060831"><ele>36.0</ele><time>2026-05-03T14:49:44.684Z</time></trkpt><trkpt lat="42.0068976" lon="19.3060101"><ele>36.0</ele><time>2026-05-03T14:49:45.683Z</time></trkpt><trkpt lat="42.0067445" lon="19.305936"><ele>36.0</ele><time>2026-05-03T14:49:46.684Z</time></trkpt><trkpt lat="42.0065958" lon="19.3058605"><ele>36.333333333333336</ele><time>2026-05-03T14:49:47.684Z</time></trkpt><trkpt lat="42.0064293" lon="19.3058072"><ele>36.66666666666667</ele><time>2026-05-03T14:49:48.683Z</time></trkpt><trkpt lat="42.0062606" lon="19.305757"><ele>37.0</ele><time>2026-05-03T14:49:49.683Z</time></trkpt><trkpt lat="42.0060928" lon="19.3057058"><ele>37.0</ele><time>2026-05-03T14:49:50.683Z</time></trkpt><trkpt lat="42.0059182" lon="19.3056614"><ele>37.0</ele><time>2026-05-03T14:49:51.683Z</time></trkpt><trkpt lat="42.0057465" lon="19.3056066"><ele>37.0</ele><time>2026-05-03T14:49:52.684Z</time></trkpt><trkpt lat="42.0055803" lon="19.3055602"><ele>35.66666666666667</ele><time>2026-05-03T14:49:53.684Z</time></trkpt><trkpt lat="42.0054219" lon="19.3055141"><ele>34.333333333333336</ele><time>2026-05-03T14:49:54.684Z</time></trkpt><trkpt lat="42.0052747" lon="19.3054711"><ele>33.0</ele><time>2026-05-03T14:49:55.683Z</time></trkpt><trkpt lat="42.0051374" lon="19.3054155"><ele>33.0</ele><time>2026-05-03T14:49:56.683Z</time></trkpt><trkpt lat="42.0050168" lon="19.30534"><ele>33.0</ele><time>2026-05-03T14:49:57.683Z</time></trkpt><trkpt lat="42.0049234" lon="19.3052393"><ele>33.0</ele><time>2026-05-03T14:49:58.684Z</time></trkpt><trkpt lat="42.0048697" lon="19.3051158"><ele>33.0</ele><time>2026-05-03T14:49:59.683Z</time></trkpt><trkpt lat="42.0048433" lon="19.3049651"><ele>32.75</ele><time>2026-05-03T14:50:00.683Z</time></trkpt><trkpt lat="42.0048517" lon="19.3047932"><ele>32.5</ele><time>2026-05-03T14:50:01.684Z</time></trkpt><trkpt lat="42.0048814" lon="19.3046176"><ele>32.25</ele><time>2026-05-03T14:50:02.683Z</time></trkpt><trkpt lat="42.0049083" lon="19.304444"><ele>32.0</ele><time>2026-05-03T14:50:03.684Z</time></trkpt><trkpt lat="42.0049224" lon="19.3042764"><ele>32.0</ele><time>2026-05-03T14:50:04.683Z</time></trkpt><trkpt lat="42.0048988" lon="19.3041145"><ele>32.0</ele><time>2026-05-03T14:50:05.683Z</time></trkpt><trkpt lat="42.0048513" lon="19.3039654"><ele>32.0</ele><time>2026-05-03T14:50:06.684Z</time></trkpt><trkpt lat="42.0047777" lon="19.3038392"><ele>32.0</ele><time>2026-05-03T14:50:07.683Z</time></trkpt><trkpt lat="42.0046783" lon="19.3037339"><ele>32.5</ele><time>2026-05-03T14:50:08.683Z</time></trkpt><trkpt lat="42.0045542" lon="19.3036409"><ele>33.0</ele><time>2026-05-03T14:50:09.683Z</time></trkpt><trkpt lat="42.0044227" lon="19.3035472"><ele>33.5</ele><time>2026-05-03T14:50:10.683Z</time></trkpt><trkpt lat="42.0042859" lon="19.30346"><ele>34.0</ele><time>2026-05-03T14:50:11.684Z</time></trkpt><trkpt lat="42.004149" lon="19.303363"><ele>32.66666666666667</ele><time>2026-05-03T14:50:12.684Z</time></trkpt><trkpt lat="42.0040096" lon="19.3032706"><ele>31.333333333333336</ele><time>2026-05-03T14:50:13.684Z</time></trkpt><trkpt lat="42.0038727" lon="19.3031783"><ele>30.0</ele><time>2026-05-03T14:50:14.683Z</time></trkpt><trkpt lat="42.0037423" lon="19.3030674"><ele>30.0</ele><time>2026-05-03T14:50:15.684Z</time></trkpt><trkpt lat="42.0036288" lon="19.3029508"><ele>30.0</ele><time>2026-05-03T14:50:16.684Z</time></trkpt><trkpt lat="42.0035385" lon="19.3028094"><ele>30.0</ele><time>2026-05-03T14:50:17.684Z</time></trkpt><trkpt lat="42.0034492" lon="19.3026562"><ele>30.0</ele><time>2026-05-03T14:50:18.684Z</time></trkpt><trkpt lat="42.0033913" lon="19.3024824"><ele>30.0</ele><time>2026-05-03T14:50:19.684Z</time></trkpt><trkpt lat="42.0033486" lon="19.3022954"><ele>30.0</ele><time>2026-05-03T14:50:20.683Z</time></trkpt><trkpt lat="42.0033164" lon="19.3020939"><ele>30.0</ele><time>2026-05-03T14:50:21.684Z</time></trkpt><trkpt lat="42.0032819" lon="19.3018837"><ele>31.0</ele><time>2026-05-03T14:50:22.683Z</time></trkpt><trkpt lat="42.0032532" lon="19.3016797"><ele>32.0</ele><time>2026-05-03T14:50:23.684Z</time></trkpt><trkpt lat="42.0032242" lon="19.3014774"><ele>33.0</ele><time>2026-05-03T14:50:24.684Z</time></trkpt><trkpt lat="42.003196" lon="19.3012755"><ele>33.0</ele><time>2026-05-03T14:50:25.683Z</time></trkpt><trkpt lat="42.0031678" lon="19.3010705"><ele>33.0</ele><time>2026-05-03T14:50:26.684Z</time></trkpt><trkpt lat="42.0031383" lon="19.3008661"><ele>33.0</ele><time>2026-05-03T14:50:27.684Z</time></trkpt><trkpt lat="42.003106" lon="19.3006679"><ele>33.666666666666664</ele><time>2026-05-03T14:50:28.683Z</time></trkpt><trkpt lat="42.003078" lon="19.3004612"><ele>34.33333333333333</ele><time>2026-05-03T14:50:29.684Z</time></trkpt><trkpt lat="42.0030512" lon="19.300263"><ele>35.0</ele><time>2026-05-03T14:50:30.684Z</time></trkpt><trkpt lat="42.0030253" lon="19.3000715"><ele>35.0</ele><time>2026-05-03T14:50:31.684Z</time></trkpt><trkpt lat="42.0029977" lon="19.2998847"><ele>35.0</ele><time>2026-05-03T14:50:32.684Z</time></trkpt><trkpt lat="42.0029772" lon="19.2996942"><ele>35.0</ele><time>2026-05-03T14:50:33.683Z</time></trkpt><trkpt lat="42.0029505" lon="19.2995243"><ele>35.0</ele><time>2026-05-03T14:50:34.683Z</time></trkpt><trkpt lat="42.0029355" lon="19.2993655"><ele>35.25</ele><time>2026-05-03T14:50:35.684Z</time></trkpt><trkpt lat="42.0029326" lon="19.2992093"><ele>35.5</ele><time>2026-05-03T14:50:36.683Z</time></trkpt><trkpt lat="42.0029383" lon="19.2990455"><ele>35.75</ele><time>2026-05-03T14:50:37.683Z</time></trkpt><trkpt lat="42.0029673" lon="19.2988747"><ele>36.0</ele><time>2026-05-03T14:50:38.683Z</time></trkpt><trkpt lat="42.0030205" lon="19.2987092"><ele>36.0</ele><time>2026-05-03T14:50:39.683Z</time></trkpt><trkpt lat="42.0030907" lon="19.2985455"><ele>36.0</ele><time>2026-05-03T14:50:40.684Z</time></trkpt><trkpt lat="42.0031744" lon="19.2983882"><ele>36.0</ele><time>2026-05-03T14:50:41.684Z</time></trkpt><trkpt lat="42.0032526" lon="19.2982375"><ele>36.0</ele><time>2026-05-03T14:50:42.683Z</time></trkpt><trkpt lat="42.0033327" lon="19.2980942"><ele>38.0</ele><time>2026-05-03T14:50:43.683Z</time></trkpt><trkpt lat="42.0034051" lon="19.2979596"><ele>40.0</ele><time>2026-05-03T14:50:44.684Z</time></trkpt><trkpt lat="42.0034714" lon="19.2978378"><ele>42.0</ele><time>2026-05-03T14:50:45.683Z</time></trkpt><trkpt lat="42.0035302" lon="19.2977169"><ele>44.0</ele><time>2026-05-03T14:50:46.683Z</time></trkpt><trkpt lat="42.0035894" lon="19.2976123"><ele>46.0</ele><time>2026-05-03T14:50:47.684Z</time></trkpt><trkpt lat="42.0036387" lon="19.2975238"><ele>46.0</ele><time>2026-05-03T14:50:48.683Z</time></trkpt><trkpt lat="42.0036821" lon="19.2974462"><ele>46.0</ele><time>2026-05-03T14:50:49.684Z</time></trkpt><trkpt lat="42.0037649" lon="19.2973089"><ele>46.0</ele><time>2026-05-03T14:50:51.683Z</time></trkpt><trkpt lat="42.0038386" lon="19.2972055"><ele>46.0</ele><time>2026-05-03T14:50:53.684Z</time></trkpt><trkpt lat="42.0039086" lon="19.2971029"><ele>46.0</ele><time>2026-05-03T14:50:55.683Z</time></trkpt><trkpt lat="42.0040134" lon="19.2970114"><ele>46.0</ele><time>2026-05-03T14:50:57.684Z</time></trkpt><trkpt lat="42.0040696" lon="19.2969711"><ele>46.0</ele><time>2026-05-03T14:50:58.683Z</time></trkpt><trkpt lat="42.0041451" lon="19.296923"><ele>46.0</ele><time>2026-05-03T14:50:59.684Z</time></trkpt><trkpt lat="42.0042091" lon="19.2968854"><ele>46.0</ele><time>2026-05-03T14:51:00.684Z</time></trkpt><trkpt lat="42.0042751" lon="19.2968454"><ele>46.0</ele><time>2026-05-03T14:51:01.683Z</time></trkpt><trkpt lat="42.0043366" lon="19.296806"><ele>46.0</ele><time>2026-05-03T14:51:02.684Z</time></trkpt><trkpt lat="42.0044055" lon="19.2967542"><ele>46.0</ele><time>2026-05-03T14:51:03.684Z</time></trkpt><trkpt lat="42.0044792" lon="19.2966993"><ele>45.75</ele><time>2026-05-03T14:51:04.684Z</time></trkpt><trkpt lat="42.0045504" lon="19.2966293"><ele>45.5</ele><time>2026-05-03T14:51:05.683Z</time></trkpt><trkpt lat="42.0046293" lon="19.2965178"><ele>45.25</ele><time>2026-05-03T14:51:06.683Z</time></trkpt><trkpt lat="42.0047258" lon="19.2963734"><ele>45.0</ele><time>2026-05-03T14:51:07.684Z</time></trkpt><trkpt lat="42.0048174" lon="19.2962152"><ele>45.0</ele><time>2026-05-03T14:51:08.684Z</time></trkpt><trkpt lat="42.0049235" lon="19.296049"><ele>45.0</ele><time>2026-05-03T14:51:09.683Z</time></trkpt><trkpt lat="42.005022" lon="19.2958741"><ele>45.0</ele><time>2026-05-03T14:51:10.683Z</time></trkpt><trkpt lat="42.0051137" lon="19.2956949"><ele>45.333333333333336</ele><time>2026-05-03T14:51:11.683Z</time></trkpt><trkpt lat="42.0051958" lon="19.2955071"><ele>45.66666666666667</ele><time>2026-05-03T14:51:12.684Z</time></trkpt><trkpt lat="42.0052543" lon="19.2953"><ele>46.0</ele><time>2026-05-03T14:51:13.683Z</time></trkpt><trkpt lat="42.0053048" lon="19.2950605"><ele>46.0</ele><time>2026-05-03T14:51:14.683Z</time></trkpt><trkpt lat="42.005346" lon="19.2948338"><ele>46.0</ele><time>2026-05-03T14:51:15.684Z</time></trkpt><trkpt lat="42.0053797" lon="19.2946092"><ele>46.0</ele><time>2026-05-03T14:51:16.684Z</time></trkpt><trkpt lat="42.005421" lon="19.2943592"><ele>47.66666666666667</ele><time>2026-05-03T14:51:17.683Z</time></trkpt><trkpt lat="42.0054572" lon="19.2941246"><ele>49.333333333333336</ele><time>2026-05-03T14:51:18.683Z</time></trkpt><trkpt lat="42.0054968" lon="19.29389"><ele>51.0</ele><time>2026-05-03T14:51:19.684Z</time></trkpt><trkpt lat="42.0055314" lon="19.2936634"><ele>51.0</ele><time>2026-05-03T14:51:20.684Z</time></trkpt><trkpt lat="42.0055659" lon="19.2934379"><ele>51.0</ele><time>2026-05-03T14:51:21.684Z</time></trkpt><trkpt lat="42.0056014" lon="19.2932107"><ele>51.0</ele><time>2026-05-03T14:51:22.684Z</time></trkpt><trkpt lat="42.0056387" lon="19.2929898"><ele>53.0</ele><time>2026-05-03T14:51:23.684Z</time></trkpt><trkpt lat="42.0056877" lon="19.2927739"><ele>55.0</ele><time>2026-05-03T14:51:24.683Z</time></trkpt><trkpt lat="42.0057437" lon="19.2925596"><ele>57.0</ele><time>2026-05-03T14:51:25.683Z</time></trkpt><trkpt lat="42.00581" lon="19.2923477"><ele>54.66666666666667</ele><time>2026-05-03T14:51:26.684Z</time></trkpt><trkpt lat="42.0058842" lon="19.2921377"><ele>52.333333333333336</ele><time>2026-05-03T14:51:27.684Z</time></trkpt><trkpt lat="42.0059929" lon="19.2919289"><ele>50.0</ele><time>2026-05-03T14:51:28.684Z</time></trkpt><trkpt lat="42.0060681" lon="19.2917054"><ele>50.0</ele><time>2026-05-03T14:51:29.684Z</time></trkpt><trkpt lat="42.0061431" lon="19.291477"><ele>50.0</ele><time>2026-05-03T14:51:30.684Z</time></trkpt><trkpt lat="42.0062176" lon="19.291248"><ele>50.0</ele><time>2026-05-03T14:51:31.684Z</time></trkpt><trkpt lat="42.0062908" lon="19.291023"><ele>50.333333333333336</ele><time>2026-05-03T14:51:32.683Z</time></trkpt><trkpt lat="42.0063646" lon="19.2907973"><ele>50.66666666666667</ele><time>2026-05-03T14:51:33.684Z</time></trkpt><trkpt lat="42.0064385" lon="19.2905767"><ele>51.0</ele><time>2026-05-03T14:51:34.684Z</time></trkpt><trkpt lat="42.0065098" lon="19.2903444"><ele>53.66666666666667</ele><time>2026-05-03T14:51:35.683Z</time></trkpt><trkpt lat="42.0065793" lon="19.2901435"><ele>56.333333333333336</ele><time>2026-05-03T14:51:36.683Z</time></trkpt><trkpt lat="42.0066476" lon="19.2899607"><ele>59.0</ele><time>2026-05-03T14:51:37.683Z</time></trkpt><trkpt lat="42.0067314" lon="19.2897911"><ele>57.0</ele><time>2026-05-03T14:51:38.683Z</time></trkpt><trkpt lat="42.0068343" lon="19.289638"><ele>55.0</ele><time>2026-05-03T14:51:39.683Z</time></trkpt><trkpt lat="42.0069562" lon="19.28951"><ele>53.0</ele><time>2026-05-03T14:51:40.684Z</time></trkpt><trkpt lat="42.0070845" lon="19.289401"><ele>53.0</ele><time>2026-05-03T14:51:41.684Z</time></trkpt><trkpt lat="42.0071993" lon="19.2893063"><ele>53.0</ele><time>2026-05-03T14:51:42.684Z</time></trkpt><trkpt lat="42.0072928" lon="19.2892062"><ele>53.0</ele><time>2026-05-03T14:51:43.683Z</time></trkpt><trkpt lat="42.007371" lon="19.2890897"><ele>53.0</ele><time>2026-05-03T14:51:44.683Z</time></trkpt><trkpt lat="42.007422" lon="19.2889389"><ele>51.75</ele><time>2026-05-03T14:51:45.683Z</time></trkpt><trkpt lat="42.0074689" lon="19.2887655"><ele>50.5</ele><time>2026-05-03T14:51:46.684Z</time></trkpt><trkpt lat="42.0075311" lon="19.2885825"><ele>49.25</ele><time>2026-05-03T14:51:47.684Z</time></trkpt><trkpt lat="42.0076069" lon="19.288415"><ele>48.0</ele><time>2026-05-03T14:51:48.683Z</time></trkpt><trkpt lat="42.0076852" lon="19.2882664"><ele>48.0</ele><time>2026-05-03T14:51:49.683Z</time></trkpt><trkpt lat="42.0077513" lon="19.2880947"><ele>48.0</ele><time>2026-05-03T14:51:50.683Z</time></trkpt><trkpt lat="42.0078047" lon="19.287917"><ele>48.0</ele><time>2026-05-03T14:51:51.684Z</time></trkpt><trkpt lat="42.0078428" lon="19.2877245"><ele>48.0</ele><time>2026-05-03T14:51:52.683Z</time></trkpt><trkpt lat="42.0078644" lon="19.2875262"><ele>52.0</ele><time>2026-05-03T14:51:53.683Z</time></trkpt><trkpt lat="42.0078961" lon="19.2873241"><ele>56.0</ele><time>2026-05-03T14:51:54.683Z</time></trkpt><trkpt lat="42.0079595" lon="19.2871111"><ele>60.0</ele><time>2026-05-03T14:51:55.684Z</time></trkpt><trkpt lat="42.0080296" lon="19.286913"><ele>60.66666666666667</ele><time>2026-05-03T14:51:56.683Z</time></trkpt><trkpt lat="42.0081106" lon="19.2867155"><ele>61.333333333333336</ele><time>2026-05-03T14:51:57.684Z</time></trkpt><trkpt lat="42.0081796" lon="19.2865043"><ele>62.0</ele><time>2026-05-03T14:51:58.683Z</time></trkpt><trkpt lat="42.0082211" lon="19.286271"><ele>62.0</ele><time>2026-05-03T14:51:59.684Z</time></trkpt><trkpt lat="42.0082608" lon="19.2860261"><ele>62.0</ele><time>2026-05-03T14:52:00.684Z</time></trkpt><trkpt lat="42.0082982" lon="19.2857934"><ele>62.0</ele><time>2026-05-03T14:52:01.684Z</time></trkpt><trkpt lat="42.0083356" lon="19.2855737"><ele>59.5</ele><time>2026-05-03T14:52:02.683Z</time></trkpt><trkpt lat="42.0083765" lon="19.2853791"><ele>57.0</ele><time>2026-05-03T14:52:03.684Z</time></trkpt><trkpt lat="42.0084336" lon="19.285204"><ele>54.5</ele><time>2026-05-03T14:52:04.683Z</time></trkpt><trkpt lat="42.0085242" lon="19.2850553"><ele>52.0</ele><time>2026-05-03T14:52:05.683Z</time></trkpt><trkpt lat="42.008645" lon="19.2849493"><ele>52.0</ele><time>2026-05-03T14:52:06.683Z</time></trkpt><trkpt lat="42.0087789" lon="19.2848821"><ele>52.0</ele><time>2026-05-03T14:52:07.683Z</time></trkpt><trkpt lat="42.0089092" lon="19.2848309"><ele>52.0</ele><time>2026-05-03T14:52:08.684Z</time></trkpt><trkpt lat="42.0090223" lon="19.2847624"><ele>52.0</ele><time>2026-05-03T14:52:09.683Z</time></trkpt><trkpt lat="42.0091291" lon="19.2846629"><ele>53.0</ele><time>2026-05-03T14:52:10.683Z</time></trkpt><trkpt lat="42.0092195" lon="19.2845202"><ele>54.0</ele><time>2026-05-03T14:52:11.684Z</time></trkpt><trkpt lat="42.0092989" lon="19.2843444"><ele>55.0</ele><time>2026-05-03T14:52:12.684Z</time></trkpt><trkpt lat="42.0093668" lon="19.2841676"><ele>56.0</ele><time>2026-05-03T14:52:13.684Z</time></trkpt><trkpt lat="42.0094355" lon="19.2839886"><ele>56.75</ele><time>2026-05-03T14:52:14.684Z</time></trkpt><trkpt lat="42.0095002" lon="19.2838066"><ele>57.5</ele><time>2026-05-03T14:52:15.683Z</time></trkpt><trkpt lat="42.0095669" lon="19.2836328"><ele>58.25</ele><time>2026-05-03T14:52:16.683Z</time></trkpt><trkpt lat="42.009636" lon="19.2834572"><ele>59.0</ele><time>2026-05-03T14:52:17.683Z</time></trkpt><trkpt lat="42.0097129" lon="19.2832801"><ele>58.66666666666667</ele><time>2026-05-03T14:52:18.684Z</time></trkpt><trkpt lat="42.0097928" lon="19.2830952"><ele>58.33333333333333</ele><time>2026-05-03T14:52:19.684Z</time></trkpt><trkpt lat="42.0098658" lon="19.2829098"><ele>58.0</ele><time>2026-05-03T14:52:20.684Z</time></trkpt><trkpt lat="42.0099363" lon="19.2827287"><ele>57.33333333333333</ele><time>2026-05-03T14:52:21.684Z</time></trkpt><trkpt lat="42.0099958" lon="19.2825382"><ele>56.66666666666667</ele><time>2026-05-03T14:52:22.684Z</time></trkpt><trkpt lat="42.0100315" lon="19.2823445"><ele>56.0</ele><time>2026-05-03T14:52:23.684Z</time></trkpt><trkpt lat="42.0100475" lon="19.2821405"><ele>58.0</ele><time>2026-05-03T14:52:24.683Z</time></trkpt><trkpt lat="42.010039" lon="19.2819446"><ele>60.0</ele><time>2026-05-03T14:52:25.684Z</time></trkpt><trkpt lat="42.0100113" lon="19.2817558"><ele>62.0</ele><time>2026-05-03T14:52:26.684Z</time></trkpt><trkpt lat="42.0099887" lon="19.2815797"><ele>64.0</ele><time>2026-05-03T14:52:27.683Z</time></trkpt><trkpt lat="42.009986" lon="19.2814087"><ele>64.75</ele><time>2026-05-03T14:52:28.683Z</time></trkpt><trkpt lat="42.010008" lon="19.2812414"><ele>65.5</ele><time>2026-05-03T14:52:29.683Z</time></trkpt><trkpt lat="42.010049" lon="19.2810821"><ele>66.25</ele><time>2026-05-03T14:52:30.683Z</time></trkpt><trkpt lat="42.0101409" lon="19.28093"><ele>67.0</ele><time>2026-05-03T14:52:31.683Z</time></trkpt><trkpt lat="42.0102253" lon="19.2807888"><ele>67.0</ele><time>2026-05-03T14:52:32.683Z</time></trkpt><trkpt lat="42.0103057" lon="19.2806393"><ele>67.0</ele><time>2026-05-03T14:52:33.684Z</time></trkpt><trkpt lat="42.0103531" lon="19.2804846"><ele>67.0</ele><time>2026-05-03T14:52:34.684Z</time></trkpt><trkpt lat="42.0103728" lon="19.2803115"><ele>67.0</ele><time>2026-05-03T14:52:35.683Z</time></trkpt><trkpt lat="42.0103422" lon="19.2801436"><ele>68.75</ele><time>2026-05-03T14:52:36.684Z</time></trkpt><trkpt lat="42.0102867" lon="19.2799804"><ele>70.5</ele><time>2026-05-03T14:52:37.684Z</time></trkpt><trkpt lat="42.0102189" lon="19.2798312"><ele>72.25</ele><time>2026-05-03T14:52:38.683Z</time></trkpt><trkpt lat="42.0101441" lon="19.2796864"><ele>74.0</ele><time>2026-05-03T14:52:39.684Z</time></trkpt><trkpt lat="42.0100826" lon="19.2795428"><ele>74.5</ele><time>2026-05-03T14:52:40.684Z</time></trkpt><trkpt lat="42.0100522" lon="19.2793932"><ele>75.0</ele><time>2026-05-03T14:52:41.683Z</time></trkpt><trkpt lat="42.0100472" lon="19.2792312"><ele>75.5</ele><time>2026-05-03T14:52:42.684Z</time></trkpt><trkpt lat="42.0100644" lon="19.279061"><ele>76.0</ele><time>2026-05-03T14:52:43.684Z</time></trkpt><trkpt lat="42.0101015" lon="19.2788927"><ele>77.5</ele><time>2026-05-03T14:52:44.683Z</time></trkpt><trkpt lat="42.0101484" lon="19.2787237"><ele>79.0</ele><time>2026-05-03T14:52:45.683Z</time></trkpt><trkpt lat="42.0102094" lon="19.2785662"><ele>80.5</ele><time>2026-05-03T14:52:46.684Z</time></trkpt><trkpt lat="42.0102957" lon="19.2784288"><ele>82.0</ele><time>2026-05-03T14:52:47.683Z</time></trkpt><trkpt lat="42.010402" lon="19.2783088"><ele>82.0</ele><time>2026-05-03T14:52:48.684Z</time></trkpt><trkpt lat="42.0105225" lon="19.2782231"><ele>82.0</ele><time>2026-05-03T14:52:49.684Z</time></trkpt><trkpt lat="42.0106533" lon="19.2781365"><ele>82.0</ele><time>2026-05-03T14:52:50.684Z</time></trkpt><trkpt lat="42.0107745" lon="19.2780123"><ele>82.0</ele><time>2026-05-03T14:52:51.683Z</time></trkpt><trkpt lat="42.0108942" lon="19.2778612"><ele>82.66666666666666</ele><time>2026-05-03T14:52:52.684Z</time></trkpt><trkpt lat="42.0110097" lon="19.2777048"><ele>83.33333333333333</ele><time>2026-05-03T14:52:53.684Z</time></trkpt><trkpt lat="42.0111393" lon="19.2775468"><ele>84.0</ele><time>2026-05-03T14:52:54.684Z</time></trkpt><trkpt lat="42.0112659" lon="19.2774045"><ele>83.66666666666667</ele><time>2026-05-03T14:52:55.684Z</time></trkpt><trkpt lat="42.0113998" lon="19.2772658"><ele>83.33333333333334</ele><time>2026-05-03T14:52:56.683Z</time></trkpt><trkpt lat="42.0115261" lon="19.2771356"><ele>83.0</ele><time>2026-05-03T14:52:57.683Z</time></trkpt><trkpt lat="42.011626" lon="19.2769859"><ele>81.66666666666667</ele><time>2026-05-03T14:52:58.683Z</time></trkpt><trkpt lat="42.0117144" lon="19.2768258"><ele>80.33333333333333</ele><time>2026-05-03T14:52:59.684Z</time></trkpt><trkpt lat="42.0117969" lon="19.2766357"><ele>79.0</ele><time>2026-05-03T14:53:00.683Z</time></trkpt><trkpt lat="42.0118722" lon="19.2764261"><ele>81.66666666666666</ele><time>2026-05-03T14:53:01.684Z</time></trkpt><trkpt lat="42.0119499" lon="19.2762051"><ele>84.33333333333333</ele><time>2026-05-03T14:53:02.684Z</time></trkpt><trkpt lat="42.0120211" lon="19.2759885"><ele>87.0</ele><time>2026-05-03T14:53:03.684Z</time></trkpt><trkpt lat="42.0120931" lon="19.2757647"><ele>89.0</ele><time>2026-05-03T14:53:04.684Z</time></trkpt><trkpt lat="42.0121621" lon="19.2755331"><ele>91.0</ele><time>2026-05-03T14:53:05.684Z</time></trkpt><trkpt lat="42.0122362" lon="19.2753032"><ele>93.0</ele><time>2026-05-03T14:53:06.684Z</time></trkpt><trkpt lat="42.0123078" lon="19.2750743"><ele>93.0</ele><time>2026-05-03T14:53:07.683Z</time></trkpt><trkpt lat="42.0123831" lon="19.274859"><ele>93.0</ele><time>2026-05-03T14:53:08.684Z</time></trkpt><trkpt lat="42.0124703" lon="19.2746326"><ele>93.0</ele><time>2026-05-03T14:53:09.684Z</time></trkpt><trkpt lat="42.0125565" lon="19.2744064"><ele>92.33333333333333</ele><time>2026-05-03T14:53:10.684Z</time></trkpt><trkpt lat="42.0126404" lon="19.2741804"><ele>91.66666666666666</ele><time>2026-05-03T14:53:11.684Z</time></trkpt><trkpt lat="42.0127308" lon="19.2739544"><ele>91.0</ele><time>2026-05-03T14:53:12.684Z</time></trkpt><trkpt lat="42.0128165" lon="19.2737327"><ele>92.0</ele><time>2026-05-03T14:53:13.684Z</time></trkpt><trkpt lat="42.0129104" lon="19.2735198"><ele>93.0</ele><time>2026-05-03T14:53:14.683Z</time></trkpt><trkpt lat="42.0129984" lon="19.2733132"><ele>94.0</ele><time>2026-05-03T14:53:15.684Z</time></trkpt><trkpt lat="42.0130749" lon="19.2731047"><ele>94.0</ele><time>2026-05-03T14:53:16.683Z</time></trkpt><trkpt lat="42.0131359" lon="19.2729021"><ele>94.0</ele><time>2026-05-03T14:53:17.683Z</time></trkpt><trkpt lat="42.0131803" lon="19.2726897"><ele>94.0</ele><time>2026-05-03T14:53:18.684Z</time></trkpt><trkpt lat="42.0132101" lon="19.2724624"><ele>93.66666666666666</ele><time>2026-05-03T14:53:19.684Z</time></trkpt><trkpt lat="42.0132183" lon="19.2722474"><ele>93.33333333333333</ele><time>2026-05-03T14:53:20.684Z</time></trkpt><trkpt lat="42.0132189" lon="19.2720477"><ele>93.0</ele><time>2026-05-03T14:53:21.683Z</time></trkpt><trkpt lat="42.0132236" lon="19.2718517"><ele>93.0</ele><time>2026-05-03T14:53:22.684Z</time></trkpt><trkpt lat="42.0132493" lon="19.271655"><ele>93.0</ele><time>2026-05-03T14:53:23.683Z</time></trkpt><trkpt lat="42.0132928" lon="19.2714481"><ele>93.0</ele><time>2026-05-03T14:53:24.684Z</time></trkpt><trkpt lat="42.0133647" lon="19.2712224"><ele>94.0</ele><time>2026-05-03T14:53:25.683Z</time></trkpt><trkpt lat="42.0134411" lon="19.2709895"><ele>95.0</ele><time>2026-05-03T14:53:26.684Z</time></trkpt><trkpt lat="42.0135164" lon="19.2707562"><ele>96.0</ele><time>2026-05-03T14:53:27.683Z</time></trkpt><trkpt lat="42.0135925" lon="19.2705143"><ele>96.0</ele><time>2026-05-03T14:53:28.684Z</time></trkpt><trkpt lat="42.0136748" lon="19.270267"><ele>96.0</ele><time>2026-05-03T14:53:29.683Z</time></trkpt><trkpt lat="42.0137553" lon="19.2700269"><ele>96.0</ele><time>2026-05-03T14:53:30.684Z</time></trkpt><trkpt lat="42.0138234" lon="19.2697935"><ele>96.0</ele><time>2026-05-03T14:53:31.684Z</time></trkpt><trkpt lat="42.013874" lon="19.2695715"><ele>96.0</ele><time>2026-05-03T14:53:32.684Z</time></trkpt><trkpt lat="42.0139145" lon="19.2693547"><ele>96.0</ele><time>2026-05-03T14:53:33.684Z</time></trkpt><trkpt lat="42.0139629" lon="19.2691636"><ele>96.0</ele><time>2026-05-03T14:53:34.683Z</time></trkpt><trkpt lat="42.0140246" lon="19.2689939"><ele>96.0</ele><time>2026-05-03T14:53:35.684Z</time></trkpt><trkpt lat="42.0141032" lon="19.2688468"><ele>96.0</ele><time>2026-05-03T14:53:36.684Z</time></trkpt><trkpt lat="42.0142148" lon="19.2687239"><ele>96.0</ele><time>2026-05-03T14:53:37.684Z</time></trkpt><trkpt lat="42.0143308" lon="19.2686069"><ele>95.5</ele><time>2026-05-03T14:53:38.683Z</time></trkpt><trkpt lat="42.0144456" lon="19.2684914"><ele>95.0</ele><time>2026-05-03T14:53:39.683Z</time></trkpt><trkpt lat="42.014547" lon="19.2683537"><ele>94.5</ele><time>2026-05-03T14:53:40.683Z</time></trkpt><trkpt lat="42.014627" lon="19.2681938"><ele>94.0</ele><time>2026-05-03T14:53:41.683Z</time></trkpt><trkpt lat="42.0146893" lon="19.2680165"><ele>94.0</ele><time>2026-05-03T14:53:42.684Z</time></trkpt><trkpt lat="42.0147432" lon="19.2677887"><ele>94.0</ele><time>2026-05-03T14:53:43.684Z</time></trkpt><trkpt lat="42.0147779" lon="19.2675551"><ele>94.0</ele><time>2026-05-03T14:53:44.684Z</time></trkpt><trkpt lat="42.0147972" lon="19.267333"><ele>95.0</ele><time>2026-05-03T14:53:45.684Z</time></trkpt><trkpt lat="42.014818" lon="19.2671306"><ele>96.0</ele><time>2026-05-03T14:53:46.683Z</time></trkpt><trkpt lat="42.0148405" lon="19.2669295"><ele>97.0</ele><time>2026-05-03T14:53:47.683Z</time></trkpt><trkpt lat="42.0148749" lon="19.2667351"><ele>97.0</ele><time>2026-05-03T14:53:48.683Z</time></trkpt><trkpt lat="42.0149215" lon="19.2665419"><ele>97.0</ele><time>2026-05-03T14:53:49.684Z</time></trkpt><trkpt lat="42.0149786" lon="19.2663555"><ele>97.0</ele><time>2026-05-03T14:53:50.683Z</time></trkpt><trkpt lat="42.0150479" lon="19.2661745"><ele>98.5</ele><time>2026-05-03T14:53:51.683Z</time></trkpt><trkpt lat="42.0151163" lon="19.2660053"><ele>100.0</ele><time>2026-05-03T14:53:52.684Z</time></trkpt><trkpt lat="42.0151661" lon="19.2658417"><ele>101.5</ele><time>2026-05-03T14:53:53.683Z</time></trkpt><trkpt lat="42.015203" lon="19.2656965"><ele>103.0</ele><time>2026-05-03T14:53:54.683Z</time></trkpt><trkpt lat="42.0152069" lon="19.265549"><ele>103.5</ele><time>2026-05-03T14:53:55.684Z</time></trkpt><trkpt lat="42.0151834" lon="19.2653931"><ele>104.0</ele><time>2026-05-03T14:53:56.683Z</time></trkpt><trkpt lat="42.0151335" lon="19.2652461"><ele>104.5</ele><time>2026-05-03T14:53:57.684Z</time></trkpt><trkpt lat="42.0150596" lon="19.2651161"><ele>105.0</ele><time>2026-05-03T14:53:58.684Z</time></trkpt><trkpt lat="42.0149582" lon="19.2650123"><ele>105.5</ele><time>2026-05-03T14:53:59.683Z</time></trkpt><trkpt lat="42.0148362" lon="19.2649368"><ele>106.0</ele><time>2026-05-03T14:54:00.684Z</time></trkpt><trkpt lat="42.0147054" lon="19.2648853"><ele>106.5</ele><time>2026-05-03T14:54:01.683Z</time></trkpt><trkpt lat="42.0145743" lon="19.2648462"><ele>107.0</ele><time>2026-05-03T14:54:02.684Z</time></trkpt><trkpt lat="42.014455" lon="19.2647967"><ele>108.25</ele><time>2026-05-03T14:54:03.683Z</time></trkpt><trkpt lat="42.0143477" lon="19.2647283"><ele>109.5</ele><time>2026-05-03T14:54:04.684Z</time></trkpt><trkpt lat="42.0142739" lon="19.2646247"><ele>110.75</ele><time>2026-05-03T14:54:05.683Z</time></trkpt><trkpt lat="42.0142098" lon="19.2644947"><ele>112.0</ele><time>2026-05-03T14:54:06.683Z</time></trkpt><trkpt lat="42.0141631" lon="19.2643449"><ele>112.25</ele><time>2026-05-03T14:54:07.684Z</time></trkpt><trkpt lat="42.0141255" lon="19.2641762"><ele>112.5</ele><time>2026-05-03T14:54:08.684Z</time></trkpt><trkpt lat="42.0140926" lon="19.2640051"><ele>112.75</ele><time>2026-05-03T14:54:09.684Z</time></trkpt><trkpt lat="42.0140693" lon="19.2638375"><ele>113.0</ele><time>2026-05-03T14:54:10.683Z</time></trkpt><trkpt lat="42.014059" lon="19.2636814"><ele>113.0</ele><time>2026-05-03T14:54:11.684Z</time></trkpt><trkpt lat="42.0140594" lon="19.2635249"><ele>113.0</ele><time>2026-05-03T14:54:12.684Z</time></trkpt><trkpt lat="42.0140658" lon="19.2633735"><ele>113.0</ele><time>2026-05-03T14:54:13.683Z</time></trkpt><trkpt lat="42.0140834" lon="19.2632187"><ele>113.0</ele><time>2026-05-03T14:54:14.684Z</time></trkpt><trkpt lat="42.0140994" lon="19.2630732"><ele>112.66666666666666</ele><time>2026-05-03T14:54:15.683Z</time></trkpt><trkpt lat="42.0141096" lon="19.2629506"><ele>112.33333333333333</ele><time>2026-05-03T14:54:16.684Z</time></trkpt><trkpt lat="42.014112" lon="19.262838"><ele>112.0</ele><time>2026-05-03T14:54:17.684Z</time></trkpt><trkpt lat="42.0140959" lon="19.2627462"><ele>111.66666666666666</ele><time>2026-05-03T14:54:18.683Z</time></trkpt><trkpt lat="42.0140719" lon="19.2626385"><ele>111.33333333333333</ele><time>2026-05-03T14:54:19.684Z</time></trkpt><trkpt lat="42.0140306" lon="19.2625212"><ele>111.0</ele><time>2026-05-03T14:54:20.684Z</time></trkpt><trkpt lat="42.0139957" lon="19.2624048"><ele>111.0</ele><time>2026-05-03T14:54:21.683Z</time></trkpt><trkpt lat="42.0139589" lon="19.2622562"><ele>111.0</ele><time>2026-05-03T14:54:22.684Z</time></trkpt><trkpt lat="42.013931" lon="19.2621186"><ele>111.0</ele><time>2026-05-03T14:54:23.683Z</time></trkpt><trkpt lat="42.0139087" lon="19.2619722"><ele>111.0</ele><time>2026-05-03T14:54:24.683Z</time></trkpt><trkpt lat="42.0139036" lon="19.261789"><ele>111.0</ele><time>2026-05-03T14:54:25.684Z</time></trkpt><trkpt lat="42.0139173" lon="19.2615807"><ele>111.0</ele><time>2026-05-03T14:54:26.683Z</time></trkpt><trkpt lat="42.0139315" lon="19.2613773"><ele>111.0</ele><time>2026-05-03T14:54:27.683Z</time></trkpt><trkpt lat="42.0139483" lon="19.261173"><ele>112.66666666666666</ele><time>2026-05-03T14:54:28.684Z</time></trkpt><trkpt lat="42.0139843" lon="19.2609642"><ele>114.33333333333333</ele><time>2026-05-03T14:54:29.684Z</time></trkpt><trkpt lat="42.0140213" lon="19.2607632"><ele>116.0</ele><time>2026-05-03T14:54:30.683Z</time></trkpt><trkpt lat="42.0140713" lon="19.2605587"><ele>116.33333333333333</ele><time>2026-05-03T14:54:31.684Z</time></trkpt><trkpt lat="42.014117" lon="19.2603546"><ele>116.66666666666666</ele><time>2026-05-03T14:54:32.684Z</time></trkpt><trkpt lat="42.0141668" lon="19.2601413"><ele>117.0</ele><time>2026-05-03T14:54:33.684Z</time></trkpt><trkpt lat="42.0142054" lon="19.2599176"><ele>117.75</ele><time>2026-05-03T14:54:34.683Z</time></trkpt><trkpt lat="42.0142344" lon="19.2597133"><ele>118.5</ele><time>2026-05-03T14:54:35.683Z</time></trkpt><trkpt lat="42.0142394" lon="19.259511"><ele>119.25</ele><time>2026-05-03T14:54:36.684Z</time></trkpt><trkpt lat="42.0142196" lon="19.259325"><ele>120.0</ele><time>2026-05-03T14:54:37.684Z</time></trkpt><trkpt lat="42.0141967" lon="19.2591488"><ele>120.0</ele><time>2026-05-03T14:54:38.683Z</time></trkpt><trkpt lat="42.0141724" lon="19.2589795"><ele>120.0</ele><time>2026-05-03T14:54:39.684Z</time></trkpt><trkpt lat="42.014151" lon="19.2587994"><ele>120.0</ele><time>2026-05-03T14:54:40.683Z</time></trkpt><trkpt lat="42.0141595" lon="19.2586124"><ele>120.0</ele><time>2026-05-03T14:54:41.684Z</time></trkpt><trkpt lat="42.0141758" lon="19.2584188"><ele>120.5</ele><time>2026-05-03T14:54:42.683Z</time></trkpt><trkpt lat="42.0141988" lon="19.2582275"><ele>121.0</ele><time>2026-05-03T14:54:43.684Z</time></trkpt><trkpt lat="42.0142544" lon="19.258029"><ele>121.5</ele><time>2026-05-03T14:54:44.683Z</time></trkpt><trkpt lat="42.0143036" lon="19.257846"><ele>122.0</ele><time>2026-05-03T14:54:45.683Z</time></trkpt><trkpt lat="42.0143553" lon="19.2576646"><ele>122.75</ele><time>2026-05-03T14:54:46.683Z</time></trkpt><trkpt lat="42.0144074" lon="19.2574974"><ele>123.5</ele><time>2026-05-03T14:54:47.684Z</time></trkpt><trkpt lat="42.0144557" lon="19.2573362"><ele>124.25</ele><time>2026-05-03T14:54:48.683Z</time></trkpt><trkpt lat="42.0144895" lon="19.2571744"><ele>125.0</ele><time>2026-05-03T14:54:49.684Z</time></trkpt><trkpt lat="42.0145249" lon="19.2570079"><ele>126.0</ele><time>2026-05-03T14:54:50.683Z</time></trkpt><trkpt lat="42.0145603" lon="19.2568397"><ele>127.0</ele><time>2026-05-03T14:54:51.683Z</time></trkpt><trkpt lat="42.0145883" lon="19.2566632"><ele>128.0</ele><time>2026-05-03T14:54:52.683Z</time></trkpt><trkpt lat="42.0146104" lon="19.2564812"><ele>129.0</ele><time>2026-05-03T14:54:53.683Z</time></trkpt><trkpt lat="42.014639" lon="19.2562867"><ele>129.66666666666666</ele><time>2026-05-03T14:54:54.684Z</time></trkpt><trkpt lat="42.0146827" lon="19.2560778"><ele>130.33333333333331</ele><time>2026-05-03T14:54:55.683Z</time></trkpt><trkpt lat="42.0147331" lon="19.2558749"><ele>131.0</ele><time>2026-05-03T14:54:56.684Z</time></trkpt><trkpt lat="42.0147896" lon="19.2556749"><ele>131.66666666666666</ele><time>2026-05-03T14:54:57.683Z</time></trkpt><trkpt lat="42.0148414" lon="19.2554726"><ele>132.33333333333334</ele><time>2026-05-03T14:54:58.684Z</time></trkpt><trkpt lat="42.0148953" lon="19.2552749"><ele>133.0</ele><time>2026-05-03T14:54:59.684Z</time></trkpt><trkpt lat="42.0149456" lon="19.2550899"><ele>133.0</ele><time>2026-05-03T14:55:00.684Z</time></trkpt><trkpt lat="42.0149873" lon="19.2548876"><ele>133.0</ele><time>2026-05-03T14:55:01.683Z</time></trkpt><trkpt lat="42.01503" lon="19.2546703"><ele>133.0</ele><time>2026-05-03T14:55:02.683Z</time></trkpt><trkpt lat="42.0150545" lon="19.2544341"><ele>134.66666666666669</ele><time>2026-05-03T14:55:03.683Z</time></trkpt><trkpt lat="42.015074" lon="19.2541537"><ele>136.33333333333334</ele><time>2026-05-03T14:55:04.684Z</time></trkpt><trkpt lat="42.0150828" lon="19.2538584"><ele>138.0</ele><time>2026-05-03T14:55:05.684Z</time></trkpt><trkpt lat="42.0150883" lon="19.2535669"><ele>138.66666666666666</ele><time>2026-05-03T14:55:06.684Z</time></trkpt><trkpt lat="42.0150978" lon="19.2532931"><ele>139.33333333333331</ele><time>2026-05-03T14:55:07.684Z</time></trkpt><trkpt lat="42.015111" lon="19.2530099"><ele>140.0</ele><time>2026-05-03T14:55:08.683Z</time></trkpt><trkpt lat="42.0151373" lon="19.2527497"><ele>141.66666666666666</ele><time>2026-05-03T14:55:09.684Z</time></trkpt><trkpt lat="42.0151743" lon="19.2524899"><ele>143.33333333333334</ele><time>2026-05-03T14:55:10.683Z</time></trkpt><trkpt lat="42.0152033" lon="19.2522396"><ele>145.0</ele><time>2026-05-03T14:55:11.684Z</time></trkpt><trkpt lat="42.0152341" lon="19.2520102"><ele>146.0</ele><time>2026-05-03T14:55:12.684Z</time></trkpt><trkpt lat="42.0152441" lon="19.2517835"><ele>147.0</ele><time>2026-05-03T14:55:13.683Z</time></trkpt><trkpt lat="42.0152312" lon="19.2515677"><ele>148.0</ele><time>2026-05-03T14:55:14.684Z</time></trkpt><trkpt lat="42.0151918" lon="19.2513537"><ele>148.33333333333334</ele><time>2026-05-03T14:55:15.684Z</time></trkpt><trkpt lat="42.0151241" lon="19.2511433"><ele>148.66666666666666</ele><time>2026-05-03T14:55:16.683Z</time></trkpt><trkpt lat="42.0150396" lon="19.2509333"><ele>149.0</ele><time>2026-05-03T14:55:17.684Z</time></trkpt><trkpt lat="42.014952" lon="19.2507352"><ele>148.66666666666666</ele><time>2026-05-03T14:55:18.684Z</time></trkpt><trkpt lat="42.0148732" lon="19.2505329"><ele>148.33333333333334</ele><time>2026-05-03T14:55:19.684Z</time></trkpt><trkpt lat="42.0148029" lon="19.2503346"><ele>148.0</ele><time>2026-05-03T14:55:20.684Z</time></trkpt><trkpt lat="42.0147508" lon="19.2501386"><ele>148.0</ele><time>2026-05-03T14:55:21.683Z</time></trkpt><trkpt lat="42.0147131" lon="19.249939"><ele>148.0</ele><time>2026-05-03T14:55:22.683Z</time></trkpt><trkpt lat="42.0147004" lon="19.2497341"><ele>148.0</ele><time>2026-05-03T14:55:23.684Z</time></trkpt><trkpt lat="42.0146954" lon="19.2495162"><ele>149.66666666666669</ele><time>2026-05-03T14:55:24.684Z</time></trkpt><trkpt lat="42.0147032" lon="19.249292"><ele>151.33333333333334</ele><time>2026-05-03T14:55:25.684Z</time></trkpt><trkpt lat="42.0147071" lon="19.2490641"><ele>153.0</ele><time>2026-05-03T14:55:26.684Z</time></trkpt><trkpt lat="42.0147154" lon="19.2488427"><ele>154.0</ele><time>2026-05-03T14:55:27.684Z</time></trkpt><trkpt lat="42.0147283" lon="19.2486269"><ele>155.0</ele><time>2026-05-03T14:55:28.684Z</time></trkpt><trkpt lat="42.0147435" lon="19.2484121"><ele>156.0</ele><time>2026-05-03T14:55:29.683Z</time></trkpt><trkpt lat="42.0147605" lon="19.2481916"><ele>156.66666666666666</ele><time>2026-05-03T14:55:30.683Z</time></trkpt><trkpt lat="42.0148007" lon="19.2479693"><ele>157.33333333333331</ele><time>2026-05-03T14:55:31.684Z</time></trkpt><trkpt lat="42.0148604" lon="19.247749"><ele>158.0</ele><time>2026-05-03T14:55:32.683Z</time></trkpt><trkpt lat="42.0149291" lon="19.2475347"><ele>158.66666666666666</ele><time>2026-05-03T14:55:33.683Z</time></trkpt><trkpt lat="42.015002" lon="19.2473195"><ele>159.33333333333334</ele><time>2026-05-03T14:55:34.684Z</time></trkpt><trkpt lat="42.0150831" lon="19.2471278"><ele>160.0</ele><time>2026-05-03T14:55:35.683Z</time></trkpt><trkpt lat="42.0151866" lon="19.246945"><ele>160.33333333333334</ele><time>2026-05-03T14:55:36.683Z</time></trkpt><trkpt lat="42.0153057" lon="19.2467693"><ele>160.66666666666666</ele><time>2026-05-03T14:55:37.683Z</time></trkpt><trkpt lat="42.0154335" lon="19.2466114"><ele>161.0</ele><time>2026-05-03T14:55:38.684Z</time></trkpt><trkpt lat="42.0155554" lon="19.2464556"><ele>161.0</ele><time>2026-05-03T14:55:39.684Z</time></trkpt><trkpt lat="42.0156567" lon="19.2462996"><ele>161.0</ele><time>2026-05-03T14:55:40.683Z</time></trkpt><trkpt lat="42.0157379" lon="19.246132"><ele>161.0</ele><time>2026-05-03T14:55:41.684Z</time></trkpt><trkpt lat="42.0158112" lon="19.2459586"><ele>162.33333333333331</ele><time>2026-05-03T14:55:42.684Z</time></trkpt><trkpt lat="42.0158703" lon="19.2457621"><ele>163.66666666666666</ele><time>2026-05-03T14:55:43.684Z</time></trkpt><trkpt lat="42.0159099" lon="19.245556"><ele>165.0</ele><time>2026-05-03T14:55:44.683Z</time></trkpt><trkpt lat="42.0159284" lon="19.2453299"><ele>165.0</ele><time>2026-05-03T14:55:45.684Z</time></trkpt><trkpt lat="42.015926" lon="19.2451071"><ele>165.0</ele><time>2026-05-03T14:55:46.684Z</time></trkpt><trkpt lat="42.0159268" lon="19.2448759"><ele>165.0</ele><time>2026-05-03T14:55:47.683Z</time></trkpt><trkpt lat="42.0159261" lon="19.2446295"><ele>165.33333333333334</ele><time>2026-05-03T14:55:48.684Z</time></trkpt><trkpt lat="42.0159273" lon="19.2443834"><ele>165.66666666666669</ele><time>2026-05-03T14:55:49.683Z</time></trkpt><trkpt lat="42.0159303" lon="19.244136"><ele>166.0</ele><time>2026-05-03T14:55:50.684Z</time></trkpt><trkpt lat="42.0159271" lon="19.243889"><ele>166.66666666666669</ele><time>2026-05-03T14:55:51.683Z</time></trkpt><trkpt lat="42.0159253" lon="19.243652"><ele>167.33333333333334</ele><time>2026-05-03T14:55:52.683Z</time></trkpt><trkpt lat="42.015929" lon="19.2434182"><ele>168.0</ele><time>2026-05-03T14:55:53.684Z</time></trkpt><trkpt lat="42.0159325" lon="19.2431993"><ele>168.33333333333334</ele><time>2026-05-03T14:55:54.683Z</time></trkpt><trkpt lat="42.0159422" lon="19.2429831"><ele>168.66666666666669</ele><time>2026-05-03T14:55:55.684Z</time></trkpt><trkpt lat="42.0159629" lon="19.2427622"><ele>169.0</ele><time>2026-05-03T14:55:56.683Z</time></trkpt><trkpt lat="42.0159953" lon="19.2425475"><ele>169.0</ele><time>2026-05-03T14:55:57.683Z</time></trkpt><trkpt lat="42.0160257" lon="19.2423125"><ele>169.0</ele><time>2026-05-03T14:55:58.684Z</time></trkpt><trkpt lat="42.0160609" lon="19.2420669"><ele>169.0</ele><time>2026-05-03T14:55:59.684Z</time></trkpt><trkpt lat="42.0160828" lon="19.2418307"><ele>170.66666666666669</ele><time>2026-05-03T14:56:00.684Z</time></trkpt><trkpt lat="42.01611" lon="19.2415613"><ele>172.33333333333334</ele><time>2026-05-03T14:56:01.684Z</time></trkpt><trkpt lat="42.0161161" lon="19.2413159"><ele>174.0</ele><time>2026-05-03T14:56:02.683Z</time></trkpt><trkpt lat="42.0161157" lon="19.2410857"><ele>174.33333333333334</ele><time>2026-05-03T14:56:03.683Z</time></trkpt><trkpt lat="42.0161099" lon="19.2408619"><ele>174.66666666666669</ele><time>2026-05-03T14:56:04.684Z</time></trkpt><trkpt lat="42.0161101" lon="19.2406485"><ele>175.0</ele><time>2026-05-03T14:56:05.683Z</time></trkpt><trkpt lat="42.016125" lon="19.2404348"><ele>175.0</ele><time>2026-05-03T14:56:06.684Z</time></trkpt><trkpt lat="42.016171" lon="19.2402389"><ele>175.0</ele><time>2026-05-03T14:56:07.684Z</time></trkpt><trkpt lat="42.0162357" lon="19.2400397"><ele>175.0</ele><time>2026-05-03T14:56:08.684Z</time></trkpt><trkpt lat="42.016312" lon="19.2398133"><ele>175.0</ele><time>2026-05-03T14:56:09.683Z</time></trkpt><trkpt lat="42.016381" lon="19.2396111"><ele>175.0</ele><time>2026-05-03T14:56:10.684Z</time></trkpt><trkpt lat="42.0164756" lon="19.2394149"><ele>175.0</ele><time>2026-05-03T14:56:11.683Z</time></trkpt><trkpt lat="42.0165885" lon="19.2392353"><ele>175.33333333333334</ele><time>2026-05-03T14:56:12.683Z</time></trkpt><trkpt lat="42.0166972" lon="19.239047"><ele>175.66666666666666</ele><time>2026-05-03T14:56:13.684Z</time></trkpt><trkpt lat="42.016783" lon="19.2388377"><ele>176.0</ele><time>2026-05-03T14:56:14.684Z</time></trkpt><trkpt lat="42.0168495" lon="19.2386071"><ele>176.0</ele><time>2026-05-03T14:56:15.683Z</time></trkpt><trkpt lat="42.0169132" lon="19.2383441"><ele>176.0</ele><time>2026-05-03T14:56:16.684Z</time></trkpt><trkpt lat="42.0169828" lon="19.2380735"><ele>176.0</ele><time>2026-05-03T14:56:17.683Z</time></trkpt><trkpt lat="42.017053" lon="19.2378"><ele>176.33333333333331</ele><time>2026-05-03T14:56:18.684Z</time></trkpt><trkpt lat="42.0171226" lon="19.2375306"><ele>176.66666666666666</ele><time>2026-05-03T14:56:19.684Z</time></trkpt><trkpt lat="42.0171909" lon="19.2372571"><ele>177.0</ele><time>2026-05-03T14:56:20.683Z</time></trkpt><trkpt lat="42.0172644" lon="19.2369869"><ele>177.0</ele><time>2026-05-03T14:56:21.684Z</time></trkpt><trkpt lat="42.0173401" lon="19.2367191"><ele>177.0</ele><time>2026-05-03T14:56:22.684Z</time></trkpt><trkpt lat="42.0174182" lon="19.2364564"><ele>177.0</ele><time>2026-05-03T14:56:23.683Z</time></trkpt><trkpt lat="42.0174885" lon="19.2361894"><ele>179.66666666666666</ele><time>2026-05-03T14:56:24.683Z</time></trkpt><trkpt lat="42.0175615" lon="19.2359313"><ele>182.33333333333331</ele><time>2026-05-03T14:56:25.683Z</time></trkpt><trkpt lat="42.0176332" lon="19.2356825"><ele>185.0</ele><time>2026-05-03T14:56:26.683Z</time></trkpt><trkpt lat="42.0177073" lon="19.2354325"><ele>185.66666666666666</ele><time>2026-05-03T14:56:27.684Z</time></trkpt><trkpt lat="42.0177791" lon="19.2351885"><ele>186.33333333333334</ele><time>2026-05-03T14:56:28.683Z</time></trkpt><trkpt lat="42.0178503" lon="19.2349404"><ele>187.0</ele><time>2026-05-03T14:56:29.684Z</time></trkpt><trkpt lat="42.017924" lon="19.2346815"><ele>186.0</ele><time>2026-05-03T14:56:30.684Z</time></trkpt><trkpt lat="42.0179954" lon="19.234424"><ele>185.0</ele><time>2026-05-03T14:56:31.684Z</time></trkpt><trkpt lat="42.0180715" lon="19.2341703"><ele>184.0</ele><time>2026-05-03T14:56:32.684Z</time></trkpt><trkpt lat="42.0181474" lon="19.2339136"><ele>184.0</ele><time>2026-05-03T14:56:33.683Z</time></trkpt><trkpt lat="42.018221" lon="19.2336425"><ele>184.0</ele><time>2026-05-03T14:56:34.684Z</time></trkpt><trkpt lat="42.0182917" lon="19.233375"><ele>184.0</ele><time>2026-05-03T14:56:35.683Z</time></trkpt><trkpt lat="42.0183587" lon="19.2331113"><ele>186.33333333333334</ele><time>2026-05-03T14:56:36.683Z</time></trkpt><trkpt lat="42.0184262" lon="19.2328457"><ele>188.66666666666666</ele><time>2026-05-03T14:56:37.683Z</time></trkpt><trkpt lat="42.0184881" lon="19.2325784"><ele>191.0</ele><time>2026-05-03T14:56:38.683Z</time></trkpt><trkpt lat="42.0185554" lon="19.2323094"><ele>191.0</ele><time>2026-05-03T14:56:39.684Z</time></trkpt><trkpt lat="42.0186206" lon="19.232036"><ele>191.0</ele><time>2026-05-03T14:56:40.684Z</time></trkpt><trkpt lat="42.0186817" lon="19.2317586"><ele>191.0</ele><time>2026-05-03T14:56:41.684Z</time></trkpt><trkpt lat="42.0187338" lon="19.2314815"><ele>190.0</ele><time>2026-05-03T14:56:42.683Z</time></trkpt><trkpt lat="42.0187902" lon="19.2312028"><ele>189.0</ele><time>2026-05-03T14:56:43.684Z</time></trkpt><trkpt lat="42.0188454" lon="19.2309235"><ele>188.0</ele><time>2026-05-03T14:56:44.684Z</time></trkpt><trkpt lat="42.0188963" lon="19.2306344"><ele>188.0</ele><time>2026-05-03T14:56:45.683Z</time></trkpt><trkpt lat="42.0189448" lon="19.2303484"><ele>188.0</ele><time>2026-05-03T14:56:46.683Z</time></trkpt><trkpt lat="42.0189935" lon="19.2300615"><ele>188.0</ele><time>2026-05-03T14:56:47.684Z</time></trkpt><trkpt lat="42.0190375" lon="19.2297714"><ele>189.66666666666666</ele><time>2026-05-03T14:56:48.683Z</time></trkpt><trkpt lat="42.01908" lon="19.2294816"><ele>191.33333333333331</ele><time>2026-05-03T14:56:49.684Z</time></trkpt><trkpt lat="42.0191263" lon="19.229195"><ele>193.0</ele><time>2026-05-03T14:56:50.683Z</time></trkpt><trkpt lat="42.0191678" lon="19.2289099"><ele>193.0</ele><time>2026-05-03T14:56:51.684Z</time></trkpt><trkpt lat="42.0192118" lon="19.2286216"><ele>193.0</ele><time>2026-05-03T14:56:52.683Z</time></trkpt><trkpt lat="42.0192654" lon="19.228306"><ele>193.0</ele><time>2026-05-03T14:56:53.683Z</time></trkpt><trkpt lat="42.0193082" lon="19.2280263"><ele>193.0</ele><time>2026-05-03T14:56:54.684Z</time></trkpt><trkpt lat="42.0193532" lon="19.2277518"><ele>193.0</ele><time>2026-05-03T14:56:55.684Z</time></trkpt><trkpt lat="42.0194027" lon="19.2274737"><ele>195.0</ele><time>2026-05-03T14:56:56.683Z</time></trkpt><trkpt lat="42.0194566" lon="19.2271956"><ele>197.0</ele><time>2026-05-03T14:56:57.683Z</time></trkpt><trkpt lat="42.0195145" lon="19.2269384"><ele>199.0</ele><time>2026-05-03T14:56:58.684Z</time></trkpt><trkpt lat="42.0195881" lon="19.2267014"><ele>201.0</ele><time>2026-05-03T14:56:59.683Z</time></trkpt><trkpt lat="42.0196765" lon="19.2264705"><ele>203.0</ele><time>2026-05-03T14:57:00.684Z</time></trkpt><trkpt lat="42.0197885" lon="19.2262536"><ele>205.0</ele><time>2026-05-03T14:57:01.684Z</time></trkpt><trkpt lat="42.0199113" lon="19.2260439"><ele>202.66666666666666</ele><time>2026-05-03T14:57:02.683Z</time></trkpt><trkpt lat="42.0200435" lon="19.2258415"><ele>200.33333333333331</ele><time>2026-05-03T14:57:03.683Z</time></trkpt><trkpt lat="42.0201806" lon="19.2256383"><ele>198.0</ele><time>2026-05-03T14:57:04.684Z</time></trkpt><trkpt lat="42.020319" lon="19.2254247"><ele>198.0</ele><time>2026-05-03T14:57:05.684Z</time></trkpt><trkpt lat="42.0204467" lon="19.2251944"><ele>198.0</ele><time>2026-05-03T14:57:06.683Z</time></trkpt><trkpt lat="42.0205735" lon="19.2249589"><ele>198.0</ele><time>2026-05-03T14:57:07.683Z</time></trkpt><trkpt lat="42.0207009" lon="19.2247425"><ele>199.66666666666669</ele><time>2026-05-03T14:57:08.684Z</time></trkpt><trkpt lat="42.0208169" lon="19.2245087"><ele>201.33333333333334</ele><time>2026-05-03T14:57:09.683Z</time></trkpt><trkpt lat="42.0209321" lon="19.2242698"><ele>203.0</ele><time>2026-05-03T14:57:10.684Z</time></trkpt><trkpt lat="42.0210364" lon="19.2240257"><ele>202.33333333333334</ele><time>2026-05-03T14:57:11.684Z</time></trkpt><trkpt lat="42.0211339" lon="19.2237829"><ele>201.66666666666669</ele><time>2026-05-03T14:57:12.684Z</time></trkpt><trkpt lat="42.0212264" lon="19.2235326"><ele>201.0</ele><time>2026-05-03T14:57:13.684Z</time></trkpt><trkpt lat="42.0213166" lon="19.2232894"><ele>202.0</ele><time>2026-05-03T14:57:14.683Z</time></trkpt><trkpt lat="42.0214107" lon="19.2230638"><ele>203.0</ele><time>2026-05-03T14:57:15.683Z</time></trkpt><trkpt lat="42.0215019" lon="19.2228438"><ele>204.0</ele><time>2026-05-03T14:57:16.683Z</time></trkpt><trkpt lat="42.0216045" lon="19.2226388"><ele>204.25</ele><time>2026-05-03T14:57:17.683Z</time></trkpt><trkpt lat="42.0216976" lon="19.2224516"><ele>204.5</ele><time>2026-05-03T14:57:18.683Z</time></trkpt><trkpt lat="42.0217829" lon="19.2222948"><ele>204.75</ele><time>2026-05-03T14:57:19.683Z</time></trkpt><trkpt lat="42.0218471" lon="19.2221685"><ele>205.0</ele><time>2026-05-03T14:57:20.683Z</time></trkpt><trkpt lat="42.0219131" lon="19.2220568"><ele>204.83333333333331</ele><time>2026-05-03T14:57:21.684Z</time></trkpt><trkpt lat="42.0219599" lon="19.2219581"><ele>204.66666666666666</ele><time>2026-05-03T14:57:22.683Z</time></trkpt><trkpt lat="42.0219967" lon="19.221865"><ele>204.5</ele><time>2026-05-03T14:57:23.683Z</time></trkpt><trkpt lat="42.0220305" lon="19.2217741"><ele>204.33333333333331</ele><time>2026-05-03T14:57:24.684Z</time></trkpt><trkpt lat="42.0220895" lon="19.2216166"><ele>204.16666666666666</ele><time>2026-05-03T14:57:26.683Z</time></trkpt><trkpt lat="42.0221213" lon="19.2215354"><ele>204.0</ele><time>2026-05-03T14:57:27.683Z</time></trkpt><trkpt lat="42.0221849" lon="19.2213871"><ele>204.0</ele><time>2026-05-03T14:57:29.683Z</time></trkpt><trkpt lat="42.0222273" lon="19.2212494"><ele>204.0</ele><time>2026-05-03T14:57:31.684Z</time></trkpt><trkpt lat="42.0222761" lon="19.2211124"><ele>204.0</ele><time>2026-05-03T14:57:33.684Z</time></trkpt><trkpt lat="42.0223343" lon="19.2209699"><ele>204.0</ele><time>2026-05-03T14:57:35.683Z</time></trkpt><trkpt lat="42.0223665" lon="19.2208953"><ele>204.0</ele><time>2026-05-03T14:57:36.683Z</time></trkpt><trkpt lat="42.0224196" lon="19.220782"><ele>204.16666666666666</ele><time>2026-05-03T14:57:38.683Z</time></trkpt><trkpt lat="42.0224847" lon="19.2206838"><ele>204.33333333333331</ele><time>2026-05-03T14:57:40.683Z</time></trkpt><trkpt lat="42.022548" lon="19.2205926"><ele>204.5</ele><time>2026-05-03T14:57:42.683Z</time></trkpt><trkpt lat="42.0226138" lon="19.2205263"><ele>204.66666666666666</ele><time>2026-05-03T14:57:44.683Z</time></trkpt><trkpt lat="42.0226967" lon="19.2204615"><ele>204.83333333333331</ele><time>2026-05-03T14:57:47.684Z</time></trkpt><trkpt lat="42.0227622" lon="19.220412"><ele>205.0</ele><time>2026-05-03T14:57:49.684Z</time></trkpt><trkpt lat="42.0228242" lon="19.2203472"><ele>204.99999999999997</ele><time>2026-05-03T14:57:51.684Z</time></trkpt><trkpt lat="42.0228759" lon="19.2202834"><ele>205.0</ele><time>2026-05-03T14:57:53.683Z</time></trkpt><trkpt lat="42.022929" lon="19.2202"><ele>205.0</ele><time>2026-05-03T14:57:56.683Z</time></trkpt><trkpt lat="42.0229757" lon="19.2201192"><ele>205.0</ele><time>2026-05-03T14:57:59.684Z</time></trkpt><trkpt lat="42.0229887" lon="19.2200175"><ele>204.99999999999997</ele><time>2026-05-03T14:58:08.683Z</time></trkpt><trkpt lat="42.0229763" lon="19.2199096"><ele>205.0</ele><time>2026-05-03T14:58:10.683Z</time></trkpt><trkpt lat="42.0229321" lon="19.2197833"><ele>205.4</ele><time>2026-05-03T14:58:12.684Z</time></trkpt><trkpt lat="42.0228727" lon="19.2196584"><ele>205.8</ele><time>2026-05-03T14:58:14.684Z</time></trkpt><trkpt lat="42.0228209" lon="19.2195179"><ele>206.2</ele><time>2026-05-03T14:58:16.683Z</time></trkpt><trkpt lat="42.02281" lon="19.2193994"><ele>206.6</ele><time>2026-05-03T14:58:18.684Z</time></trkpt><trkpt lat="42.0228426" lon="19.2193051"><ele>207.0</ele><time>2026-05-03T14:58:22.683Z</time></trkpt><trkpt lat="42.0229065" lon="19.2192168"><ele>207.0</ele><time>2026-05-03T14:58:29.684Z</time></trkpt><trkpt lat="42.0229479" lon="19.2191259"><ele>207.0</ele><time>2026-05-03T14:58:31.683Z</time></trkpt><trkpt lat="42.0229808" lon="19.2190089"><ele>207.0</ele><time>2026-05-03T14:58:33.684Z</time></trkpt><trkpt lat="42.0230294" lon="19.2188824"><ele>207.0</ele><time>2026-05-03T14:58:35.684Z</time></trkpt><trkpt lat="42.0230711" lon="19.2187745"><ele>207.0</ele><time>2026-05-03T14:58:37.684Z</time></trkpt><trkpt lat="42.0231002" lon="19.2186778"><ele>207.0</ele><time>2026-05-03T14:58:39.684Z</time></trkpt><trkpt lat="42.0231287" lon="19.2186011"><ele>207.33333333333334</ele><time>2026-05-03T14:58:41.684Z</time></trkpt><trkpt lat="42.0231577" lon="19.2185157"><ele>207.66666666666669</ele><time>2026-05-03T14:58:44.684Z</time></trkpt><trkpt lat="42.0232241" lon="19.2184498"><ele>208.0</ele><time>2026-05-03T14:58:53.684Z</time></trkpt><trkpt lat="42.0232784" lon="19.2183403"><ele>208.33333333333334</ele><time>2026-05-03T14:58:55.683Z</time></trkpt><trkpt lat="42.0233141" lon="19.2182456"><ele>208.66666666666669</ele><time>2026-05-03T14:58:56.683Z</time></trkpt><trkpt lat="42.0233537" lon="19.2181348"><ele>209.0</ele><time>2026-05-03T14:58:57.684Z</time></trkpt><trkpt lat="42.0234205" lon="19.2179944"><ele>209.25</ele><time>2026-05-03T14:58:58.684Z</time></trkpt><trkpt lat="42.0234843" lon="19.2178307"><ele>209.5</ele><time>2026-05-03T14:58:59.684Z</time></trkpt><trkpt lat="42.0235473" lon="19.2176575"><ele>209.75</ele><time>2026-05-03T14:59:00.684Z</time></trkpt><trkpt lat="42.0236299" lon="19.2174858"><ele>210.0</ele><time>2026-05-03T14:59:01.684Z</time></trkpt><trkpt lat="42.0237094" lon="19.2173132"><ele>210.25</ele><time>2026-05-03T14:59:02.684Z</time></trkpt><trkpt lat="42.0237812" lon="19.2171523"><ele>210.5</ele><time>2026-05-03T14:59:03.683Z</time></trkpt><trkpt lat="42.0238499" lon="19.2169988"><ele>210.75</ele><time>2026-05-03T14:59:04.683Z</time></trkpt><trkpt lat="42.0239123" lon="19.2168427"><ele>211.0</ele><time>2026-05-03T14:59:05.683Z</time></trkpt><trkpt lat="42.0239699" lon="19.2166917"><ele>211.0</ele><time>2026-05-03T14:59:06.683Z</time></trkpt><trkpt lat="42.0240273" lon="19.2165369"><ele>211.0</ele><time>2026-05-03T14:59:07.684Z</time></trkpt><trkpt lat="42.0240717" lon="19.2163741"><ele>211.0</ele><time>2026-05-03T14:59:08.683Z</time></trkpt><trkpt lat="42.0241076" lon="19.216202"><ele>211.0</ele><time>2026-05-03T14:59:09.684Z</time></trkpt><trkpt lat="42.0241308" lon="19.216014"><ele>212.0</ele><time>2026-05-03T14:59:10.683Z</time></trkpt><trkpt lat="42.024154" lon="19.2158027"><ele>213.0</ele><time>2026-05-03T14:59:11.684Z</time></trkpt><trkpt lat="42.0241771" lon="19.2155847"><ele>214.0</ele><time>2026-05-03T14:59:12.683Z</time></trkpt><trkpt lat="42.0242014" lon="19.2153748"><ele>214.0</ele><time>2026-05-03T14:59:13.684Z</time></trkpt><trkpt lat="42.0242233" lon="19.2151714"><ele>214.0</ele><time>2026-05-03T14:59:14.683Z</time></trkpt><trkpt lat="42.024249" lon="19.2149587"><ele>214.0</ele><time>2026-05-03T14:59:15.684Z</time></trkpt><trkpt lat="42.024294" lon="19.2147471"><ele>214.0</ele><time>2026-05-03T14:59:16.683Z</time></trkpt><trkpt lat="42.0243555" lon="19.2145318"><ele>214.0</ele><time>2026-05-03T14:59:17.683Z</time></trkpt><trkpt lat="42.0244223" lon="19.2143148"><ele>214.0</ele><time>2026-05-03T14:59:18.683Z</time></trkpt><trkpt lat="42.024494" lon="19.214092"><ele>214.66666666666666</ele><time>2026-05-03T14:59:19.683Z</time></trkpt><trkpt lat="42.0245674" lon="19.2138613"><ele>215.33333333333331</ele><time>2026-05-03T14:59:20.684Z</time></trkpt><trkpt lat="42.0246373" lon="19.2136326"><ele>216.0</ele><time>2026-05-03T14:59:21.683Z</time></trkpt><trkpt lat="42.0247097" lon="19.2133966"><ele>216.0</ele><time>2026-05-03T14:59:22.684Z</time></trkpt><trkpt lat="42.0247805" lon="19.2131639"><ele>216.0</ele><time>2026-05-03T14:59:23.684Z</time></trkpt><trkpt lat="42.0248317" lon="19.2129279"><ele>216.0</ele><time>2026-05-03T14:59:24.683Z</time></trkpt><trkpt lat="42.024886" lon="19.2127008"><ele>216.66666666666669</ele><time>2026-05-03T14:59:25.683Z</time></trkpt><trkpt lat="42.0249373" lon="19.2124711"><ele>217.33333333333334</ele><time>2026-05-03T14:59:26.684Z</time></trkpt><trkpt lat="42.0249874" lon="19.2122384"><ele>218.0</ele><time>2026-05-03T14:59:27.684Z</time></trkpt><trkpt lat="42.0250404" lon="19.2120007"><ele>218.66666666666669</ele><time>2026-05-03T14:59:28.684Z</time></trkpt><trkpt lat="42.0250972" lon="19.2117619"><ele>219.33333333333331</ele><time>2026-05-03T14:59:29.683Z</time></trkpt><trkpt lat="42.0251582" lon="19.2115248"><ele>220.0</ele><time>2026-05-03T14:59:30.684Z</time></trkpt><trkpt lat="42.0252248" lon="19.2112887"><ele>220.33333333333331</ele><time>2026-05-03T14:59:31.684Z</time></trkpt><trkpt lat="42.0252986" lon="19.211057"><ele>220.66666666666669</ele><time>2026-05-03T14:59:32.684Z</time></trkpt><trkpt lat="42.0253803" lon="19.2108307"><ele>221.0</ele><time>2026-05-03T14:59:33.683Z</time></trkpt><trkpt lat="42.025461" lon="19.2106063"><ele>221.66666666666669</ele><time>2026-05-03T14:59:34.683Z</time></trkpt><trkpt lat="42.0255424" lon="19.2103789"><ele>222.33333333333331</ele><time>2026-05-03T14:59:35.684Z</time></trkpt><trkpt lat="42.0256113" lon="19.2101579"><ele>223.0</ele><time>2026-05-03T14:59:36.684Z</time></trkpt><trkpt lat="42.0256679" lon="19.2099343"><ele>223.33333333333331</ele><time>2026-05-03T14:59:37.683Z</time></trkpt><trkpt lat="42.0257077" lon="19.2097069"><ele>223.66666666666669</ele><time>2026-05-03T14:59:38.684Z</time></trkpt><trkpt lat="42.0257356" lon="19.2094799"><ele>224.0</ele><time>2026-05-03T14:59:39.684Z</time></trkpt><trkpt lat="42.0257568" lon="19.2092464"><ele>224.0</ele><time>2026-05-03T14:59:40.683Z</time></trkpt><trkpt lat="42.0257794" lon="19.2090213"><ele>224.0</ele><time>2026-05-03T14:59:41.684Z</time></trkpt><trkpt lat="42.0257909" lon="19.2087921"><ele>224.0</ele><time>2026-05-03T14:59:42.684Z</time></trkpt><trkpt lat="42.0257929" lon="19.2085634"><ele>224.66666666666669</ele><time>2026-05-03T14:59:43.684Z</time></trkpt><trkpt lat="42.0257928" lon="19.2083084"><ele>225.33333333333331</ele><time>2026-05-03T14:59:44.683Z</time></trkpt><trkpt lat="42.0257717" lon="19.2080817"><ele>226.0</ele><time>2026-05-03T14:59:45.683Z</time></trkpt><trkpt lat="42.0257418" lon="19.2078648"><ele>226.33333333333331</ele><time>2026-05-03T14:59:46.684Z</time></trkpt><trkpt lat="42.0256945" lon="19.2076496"><ele>226.66666666666669</ele><time>2026-05-03T14:59:47.683Z</time></trkpt><trkpt lat="42.0256511" lon="19.2074463"><ele>227.0</ele><time>2026-05-03T14:59:48.683Z</time></trkpt><trkpt lat="42.0256123" lon="19.2072363"><ele>227.33333333333334</ele><time>2026-05-03T14:59:49.683Z</time></trkpt><trkpt lat="42.0255819" lon="19.2070252"><ele>227.66666666666669</ele><time>2026-05-03T14:59:50.684Z</time></trkpt><trkpt lat="42.0255576" lon="19.206809"><ele>228.0</ele><time>2026-05-03T14:59:51.684Z</time></trkpt><trkpt lat="42.0255302" lon="19.2065829"><ele>228.66666666666669</ele><time>2026-05-03T14:59:52.684Z</time></trkpt><trkpt lat="42.0254898" lon="19.2063316"><ele>229.33333333333334</ele><time>2026-05-03T14:59:53.684Z</time></trkpt><trkpt lat="42.0254353" lon="19.206072"><ele>230.0</ele><time>2026-05-03T14:59:54.683Z</time></trkpt><trkpt lat="42.0253732" lon="19.2058089"><ele>230.0</ele><time>2026-05-03T14:59:55.683Z</time></trkpt><trkpt lat="42.0253062" lon="19.2055433"><ele>230.0</ele><time>2026-05-03T14:59:56.683Z</time></trkpt><trkpt lat="42.0252452" lon="19.2052568"><ele>230.0</ele><time>2026-05-03T14:59:57.683Z</time></trkpt><trkpt lat="42.0251873" lon="19.204982"><ele>230.0</ele><time>2026-05-03T14:59:58.684Z</time></trkpt><trkpt lat="42.0251343" lon="19.2047096"><ele>230.0</ele><time>2026-05-03T14:59:59.684Z</time></trkpt><trkpt lat="42.0250811" lon="19.2044347"><ele>230.0</ele><time>2026-05-03T15:00:00.684Z</time></trkpt><trkpt lat="42.0250301" lon="19.204156"><ele>230.0</ele><time>2026-05-03T15:00:01.684Z</time></trkpt><trkpt lat="42.0249828" lon="19.2038765"><ele>230.0</ele><time>2026-05-03T15:00:02.684Z</time></trkpt><trkpt lat="42.0249422" lon="19.2035882"><ele>230.0</ele><time>2026-05-03T15:00:03.684Z</time></trkpt><trkpt lat="42.0249031" lon="19.2033059"><ele>229.66666666666669</ele><time>2026-05-03T15:00:04.684Z</time></trkpt><trkpt lat="42.0248508" lon="19.2030343"><ele>229.33333333333331</ele><time>2026-05-03T15:00:05.684Z</time></trkpt><trkpt lat="42.0247943" lon="19.2027724"><ele>229.0</ele><time>2026-05-03T15:00:06.683Z</time></trkpt><trkpt lat="42.0247243" lon="19.2025197"><ele>229.33333333333331</ele><time>2026-05-03T15:00:07.683Z</time></trkpt><trkpt lat="42.0246544" lon="19.2022685"><ele>229.66666666666669</ele><time>2026-05-03T15:00:08.684Z</time></trkpt><trkpt lat="42.0245876" lon="19.2020144"><ele>230.0</ele><time>2026-05-03T15:00:09.684Z</time></trkpt><trkpt lat="42.0245278" lon="19.2017578"><ele>230.0</ele><time>2026-05-03T15:00:10.683Z</time></trkpt><trkpt lat="42.0244742" lon="19.2015059"><ele>230.0</ele><time>2026-05-03T15:00:11.684Z</time></trkpt><trkpt lat="42.0244252" lon="19.2012481"><ele>230.0</ele><time>2026-05-03T15:00:12.684Z</time></trkpt><trkpt lat="42.0243771" lon="19.2009865"><ele>229.66666666666669</ele><time>2026-05-03T15:00:13.684Z</time></trkpt><trkpt lat="42.0243243" lon="19.2007238"><ele>229.33333333333331</ele><time>2026-05-03T15:00:14.683Z</time></trkpt><trkpt lat="42.0242751" lon="19.2004587"><ele>229.0</ele><time>2026-05-03T15:00:15.683Z</time></trkpt><trkpt lat="42.024223" lon="19.2002101"><ele>229.0</ele><time>2026-05-03T15:00:16.684Z</time></trkpt><trkpt lat="42.0241755" lon="19.1999739"><ele>229.0</ele><time>2026-05-03T15:00:17.684Z</time></trkpt><trkpt lat="42.0241452" lon="19.1997483"><ele>229.0</ele><time>2026-05-03T15:00:18.683Z</time></trkpt><trkpt lat="42.0241357" lon="19.1995328"><ele>229.0</ele><time>2026-05-03T15:00:19.683Z</time></trkpt><trkpt lat="42.0241494" lon="19.1993134"><ele>229.0</ele><time>2026-05-03T15:00:20.684Z</time></trkpt><trkpt lat="42.0241859" lon="19.1990808"><ele>229.0</ele><time>2026-05-03T15:00:21.683Z</time></trkpt><trkpt lat="42.0242348" lon="19.198841"><ele>229.0</ele><time>2026-05-03T15:00:22.683Z</time></trkpt><trkpt lat="42.0242859" lon="19.1985989"><ele>229.0</ele><time>2026-05-03T15:00:23.683Z</time></trkpt><trkpt lat="42.0243326" lon="19.198346"><ele>229.0</ele><time>2026-05-03T15:00:24.683Z</time></trkpt><trkpt lat="42.0243702" lon="19.1980938"><ele>229.0</ele><time>2026-05-03T15:00:25.683Z</time></trkpt><trkpt lat="42.0244127" lon="19.1978281"><ele>229.0</ele><time>2026-05-03T15:00:26.683Z</time></trkpt><trkpt lat="42.0244468" lon="19.197556"><ele>229.0</ele><time>2026-05-03T15:00:27.683Z</time></trkpt><trkpt lat="42.0244738" lon="19.1972868"><ele>229.33333333333331</ele><time>2026-05-03T15:00:28.684Z</time></trkpt><trkpt lat="42.0245033" lon="19.1970172"><ele>229.66666666666669</ele><time>2026-05-03T15:00:29.683Z</time></trkpt><trkpt lat="42.0245443" lon="19.1967556"><ele>230.0</ele><time>2026-05-03T15:00:30.684Z</time></trkpt><trkpt lat="42.0245784" lon="19.1965052"><ele>230.0</ele><time>2026-05-03T15:00:31.684Z</time></trkpt><trkpt lat="42.02461" lon="19.1962872"><ele>230.0</ele><time>2026-05-03T15:00:32.684Z</time></trkpt><trkpt lat="42.0246384" lon="19.1960839"><ele>230.0</ele><time>2026-05-03T15:00:33.684Z</time></trkpt><trkpt lat="42.0246635" lon="19.1958807"><ele>230.0</ele><time>2026-05-03T15:00:34.684Z</time></trkpt><trkpt lat="42.0246687" lon="19.1956867"><ele>230.0</ele><time>2026-05-03T15:00:35.683Z</time></trkpt><trkpt lat="42.0246432" lon="19.1954816"><ele>230.0</ele><time>2026-05-03T15:00:36.684Z</time></trkpt><trkpt lat="42.0245862" lon="19.1952777"><ele>230.0</ele><time>2026-05-03T15:00:37.683Z</time></trkpt><trkpt lat="42.0244968" lon="19.1950723"><ele>230.0</ele><time>2026-05-03T15:00:38.684Z</time></trkpt><trkpt lat="42.0243772" lon="19.1948448"><ele>230.0</ele><time>2026-05-03T15:00:39.684Z</time></trkpt><trkpt lat="42.024251" lon="19.1946174"><ele>229.33333333333334</ele><time>2026-05-03T15:00:40.683Z</time></trkpt><trkpt lat="42.0241213" lon="19.1943889"><ele>228.66666666666669</ele><time>2026-05-03T15:00:41.683Z</time></trkpt><trkpt lat="42.0239973" lon="19.194156"><ele>228.0</ele><time>2026-05-03T15:00:42.683Z</time></trkpt><trkpt lat="42.0239001" lon="19.1939241"><ele>227.66666666666669</ele><time>2026-05-03T15:00:43.684Z</time></trkpt><trkpt lat="42.0238244" lon="19.1936969"><ele>227.33333333333334</ele><time>2026-05-03T15:00:44.683Z</time></trkpt><trkpt lat="42.023773" lon="19.1934697"><ele>227.0</ele><time>2026-05-03T15:00:45.683Z</time></trkpt><trkpt lat="42.0237476" lon="19.1932341"><ele>227.33333333333334</ele><time>2026-05-03T15:00:46.683Z</time></trkpt><trkpt lat="42.0237483" lon="19.1929824"><ele>227.66666666666669</ele><time>2026-05-03T15:00:47.683Z</time></trkpt><trkpt lat="42.0237698" lon="19.1927145"><ele>228.0</ele><time>2026-05-03T15:00:48.684Z</time></trkpt><trkpt lat="42.0237991" lon="19.1924408"><ele>227.0</ele><time>2026-05-03T15:00:49.683Z</time></trkpt><trkpt lat="42.0238302" lon="19.1921665"><ele>226.0</ele><time>2026-05-03T15:00:50.684Z</time></trkpt><trkpt lat="42.0238645" lon="19.1918985"><ele>225.0</ele><time>2026-05-03T15:00:51.684Z</time></trkpt><trkpt lat="42.0238872" lon="19.191635"><ele>224.66666666666669</ele><time>2026-05-03T15:00:52.684Z</time></trkpt><trkpt lat="42.0238949" lon="19.1913748"><ele>224.33333333333334</ele><time>2026-05-03T15:00:53.684Z</time></trkpt><trkpt lat="42.023896" lon="19.1911246"><ele>224.0</ele><time>2026-05-03T15:00:54.683Z</time></trkpt><trkpt lat="42.023896" lon="19.190885"><ele>224.66666666666669</ele><time>2026-05-03T15:00:55.683Z</time></trkpt><trkpt lat="42.0238895" lon="19.1906543"><ele>225.33333333333331</ele><time>2026-05-03T15:00:56.684Z</time></trkpt><trkpt lat="42.0238862" lon="19.1904184"><ele>226.0</ele><time>2026-05-03T15:00:57.684Z</time></trkpt><trkpt lat="42.0239011" lon="19.1901838"><ele>226.0</ele><time>2026-05-03T15:00:58.683Z</time></trkpt><trkpt lat="42.0239332" lon="19.1899779"><ele>226.0</ele><time>2026-05-03T15:00:59.684Z</time></trkpt><trkpt lat="42.0239912" lon="19.1897827"><ele>226.0</ele><time>2026-05-03T15:01:00.684Z</time></trkpt><trkpt lat="42.0240821" lon="19.1895921"><ele>225.66666666666666</ele><time>2026-05-03T15:01:01.683Z</time></trkpt><trkpt lat="42.0241937" lon="19.1894251"><ele>225.33333333333331</ele><time>2026-05-03T15:01:02.684Z</time></trkpt><trkpt lat="42.0243022" lon="19.1892756"><ele>225.0</ele><time>2026-05-03T15:01:03.683Z</time></trkpt><trkpt lat="42.0244027" lon="19.1891179"><ele>223.66666666666669</ele><time>2026-05-03T15:01:04.683Z</time></trkpt><trkpt lat="42.024499" lon="19.1889295"><ele>222.33333333333334</ele><time>2026-05-03T15:01:05.683Z</time></trkpt><trkpt lat="42.0245878" lon="19.1887241"><ele>221.0</ele><time>2026-05-03T15:01:06.684Z</time></trkpt><trkpt lat="42.0246647" lon="19.1884985"><ele>221.0</ele><time>2026-05-03T15:01:07.683Z</time></trkpt><trkpt lat="42.0247362" lon="19.1882622"><ele>221.0</ele><time>2026-05-03T15:01:08.683Z</time></trkpt><trkpt lat="42.024801" lon="19.1880275"><ele>221.0</ele><time>2026-05-03T15:01:09.684Z</time></trkpt><trkpt lat="42.0248665" lon="19.1877757"><ele>220.66666666666669</ele><time>2026-05-03T15:01:10.683Z</time></trkpt><trkpt lat="42.0249311" lon="19.1875197"><ele>220.33333333333331</ele><time>2026-05-03T15:01:11.683Z</time></trkpt><trkpt lat="42.024994" lon="19.1872634"><ele>220.0</ele><time>2026-05-03T15:01:12.684Z</time></trkpt><trkpt lat="42.0250542" lon="19.1869959"><ele>219.33333333333331</ele><time>2026-05-03T15:01:13.684Z</time></trkpt><trkpt lat="42.0251129" lon="19.186729"><ele>218.66666666666669</ele><time>2026-05-03T15:01:14.683Z</time></trkpt><trkpt lat="42.0251618" lon="19.186466"><ele>218.0</ele><time>2026-05-03T15:01:15.684Z</time></trkpt><trkpt lat="42.0251927" lon="19.1862197"><ele>216.33333333333334</ele><time>2026-05-03T15:01:16.683Z</time></trkpt><trkpt lat="42.0252366" lon="19.1859862"><ele>214.66666666666669</ele><time>2026-05-03T15:01:17.683Z</time></trkpt><trkpt lat="42.0252979" lon="19.1857604"><ele>213.0</ele><time>2026-05-03T15:01:18.684Z</time></trkpt><trkpt lat="42.0253781" lon="19.1855494"><ele>212.66666666666669</ele><time>2026-05-03T15:01:19.684Z</time></trkpt><trkpt lat="42.025483" lon="19.1853496"><ele>212.33333333333334</ele><time>2026-05-03T15:01:20.684Z</time></trkpt><trkpt lat="42.0256077" lon="19.185156"><ele>212.0</ele><time>2026-05-03T15:01:21.684Z</time></trkpt><trkpt lat="42.0257446" lon="19.1849658"><ele>211.66666666666669</ele><time>2026-05-03T15:01:22.684Z</time></trkpt><trkpt lat="42.0258772" lon="19.1847768"><ele>211.33333333333331</ele><time>2026-05-03T15:01:23.684Z</time></trkpt><trkpt lat="42.0259997" lon="19.1845908"><ele>211.0</ele><time>2026-05-03T15:01:24.683Z</time></trkpt><trkpt lat="42.0261106" lon="19.1844093"><ele>211.0</ele><time>2026-05-03T15:01:25.683Z</time></trkpt><trkpt lat="42.0262041" lon="19.1842098"><ele>211.0</ele><time>2026-05-03T15:01:26.683Z</time></trkpt><trkpt lat="42.0262804" lon="19.1839832"><ele>211.0</ele><time>2026-05-03T15:01:27.683Z</time></trkpt><trkpt lat="42.0263356" lon="19.1837367"><ele>210.33333333333331</ele><time>2026-05-03T15:01:28.683Z</time></trkpt><trkpt lat="42.0263795" lon="19.183506"><ele>209.66666666666669</ele><time>2026-05-03T15:01:29.684Z</time></trkpt><trkpt lat="42.0264094" lon="19.1832894"><ele>209.0</ele><time>2026-05-03T15:01:30.684Z</time></trkpt><trkpt lat="42.0264347" lon="19.1830876"><ele>208.33333333333334</ele><time>2026-05-03T15:01:31.683Z</time></trkpt><trkpt lat="42.0264571" lon="19.1828842"><ele>207.66666666666669</ele><time>2026-05-03T15:01:32.683Z</time></trkpt><trkpt lat="42.0264746" lon="19.1826765"><ele>207.0</ele><time>2026-05-03T15:01:33.684Z</time></trkpt><trkpt lat="42.0264822" lon="19.182458"><ele>206.25</ele><time>2026-05-03T15:01:34.684Z</time></trkpt><trkpt lat="42.0264697" lon="19.1822543"><ele>205.5</ele><time>2026-05-03T15:01:35.684Z</time></trkpt><trkpt lat="42.0264506" lon="19.1820558"><ele>204.75</ele><time>2026-05-03T15:01:36.683Z</time></trkpt><trkpt lat="42.0264371" lon="19.1818877"><ele>204.0</ele><time>2026-05-03T15:01:37.683Z</time></trkpt><trkpt lat="42.0264315" lon="19.1817207"><ele>204.0</ele><time>2026-05-03T15:01:38.683Z</time></trkpt><trkpt lat="42.0264627" lon="19.1815548"><ele>204.0</ele><time>2026-05-03T15:01:39.684Z</time></trkpt><trkpt lat="42.0265127" lon="19.1813761"><ele>204.0</ele><time>2026-05-03T15:01:40.683Z</time></trkpt><trkpt lat="42.026607" lon="19.1812392"><ele>204.0</ele><time>2026-05-03T15:01:41.684Z</time></trkpt><trkpt lat="42.0266915" lon="19.181085"><ele>203.0</ele><time>2026-05-03T15:01:42.684Z</time></trkpt><trkpt lat="42.0267744" lon="19.1809195"><ele>202.0</ele><time>2026-05-03T15:01:43.683Z</time></trkpt><trkpt lat="42.0268595" lon="19.1807617"><ele>201.0</ele><time>2026-05-03T15:01:44.683Z</time></trkpt><trkpt lat="42.0269542" lon="19.1806067"><ele>200.0</ele><time>2026-05-03T15:01:45.684Z</time></trkpt><trkpt lat="42.0270519" lon="19.180449"><ele>200.0</ele><time>2026-05-03T15:01:46.683Z</time></trkpt><trkpt lat="42.027132" lon="19.1802763"><ele>200.0</ele><time>2026-05-03T15:01:47.683Z</time></trkpt><trkpt lat="42.027191" lon="19.1800921"><ele>200.0</ele><time>2026-05-03T15:01:48.683Z</time></trkpt><trkpt lat="42.0272214" lon="19.1799013"><ele>200.0</ele><time>2026-05-03T15:01:49.684Z</time></trkpt><trkpt lat="42.0272482" lon="19.1797123"><ele>199.0</ele><time>2026-05-03T15:01:50.684Z</time></trkpt><trkpt lat="42.0272862" lon="19.1795179"><ele>198.0</ele><time>2026-05-03T15:01:51.683Z</time></trkpt><trkpt lat="42.0273543" lon="19.1793266"><ele>197.0</ele><time>2026-05-03T15:01:52.684Z</time></trkpt><trkpt lat="42.0274482" lon="19.1791573"><ele>199.33333333333334</ele><time>2026-05-03T15:01:53.684Z</time></trkpt><trkpt lat="42.0275623" lon="19.1789817"><ele>201.66666666666669</ele><time>2026-05-03T15:01:54.683Z</time></trkpt><trkpt lat="42.0276822" lon="19.1787986"><ele>204.0</ele><time>2026-05-03T15:01:55.683Z</time></trkpt><trkpt lat="42.0278014" lon="19.1786034"><ele>204.0</ele><time>2026-05-03T15:01:56.684Z</time></trkpt><trkpt lat="42.0279003" lon="19.1784048"><ele>204.0</ele><time>2026-05-03T15:01:57.684Z</time></trkpt><trkpt lat="42.0279869" lon="19.1781924"><ele>204.0</ele><time>2026-05-03T15:01:58.683Z</time></trkpt><trkpt lat="42.0280607" lon="19.177981"><ele>200.66666666666669</ele><time>2026-05-03T15:01:59.683Z</time></trkpt><trkpt lat="42.0281353" lon="19.1777689"><ele>197.33333333333334</ele><time>2026-05-03T15:02:00.684Z</time></trkpt><trkpt lat="42.0282157" lon="19.1775603"><ele>194.0</ele><time>2026-05-03T15:02:01.684Z</time></trkpt><trkpt lat="42.0282962" lon="19.1773508"><ele>197.0</ele><time>2026-05-03T15:02:02.684Z</time></trkpt><trkpt lat="42.0283758" lon="19.1771425"><ele>200.0</ele><time>2026-05-03T15:02:03.684Z</time></trkpt><trkpt lat="42.0284649" lon="19.1769467"><ele>203.0</ele><time>2026-05-03T15:02:04.684Z</time></trkpt><trkpt lat="42.0285773" lon="19.1767468"><ele>203.0</ele><time>2026-05-03T15:02:05.684Z</time></trkpt><trkpt lat="42.0286622" lon="19.176572"><ele>203.0</ele><time>2026-05-03T15:02:06.683Z</time></trkpt><trkpt lat="42.0287587" lon="19.1764101"><ele>203.0</ele><time>2026-05-03T15:02:07.683Z</time></trkpt><trkpt lat="42.0288615" lon="19.1762563"><ele>203.0</ele><time>2026-05-03T15:02:08.683Z</time></trkpt><trkpt lat="42.0289766" lon="19.1761344"><ele>203.0</ele><time>2026-05-03T15:02:09.684Z</time></trkpt><trkpt lat="42.0291001" lon="19.1760249"><ele>203.0</ele><time>2026-05-03T15:02:10.684Z</time></trkpt><trkpt lat="42.0292127" lon="19.1759515"><ele>203.0</ele><time>2026-05-03T15:02:11.683Z</time></trkpt><trkpt lat="42.029311" lon="19.1758938"><ele>203.00000000000003</ele><time>2026-05-03T15:02:12.684Z</time></trkpt><trkpt lat="42.0294093" lon="19.175839"><ele>203.0</ele><time>2026-05-03T15:02:13.683Z</time></trkpt><trkpt lat="42.0294956" lon="19.1758012"><ele>203.0</ele><time>2026-05-03T15:02:14.684Z</time></trkpt><trkpt lat="42.0295707" lon="19.1757603"><ele>203.0</ele><time>2026-05-03T15:02:15.684Z</time></trkpt><trkpt lat="42.0296341" lon="19.175718"><ele>203.00000000000003</ele><time>2026-05-03T15:02:16.684Z</time></trkpt><trkpt lat="42.0296991" lon="19.1756582"><ele>203.0</ele><time>2026-05-03T15:02:17.684Z</time></trkpt><trkpt lat="42.0297579" lon="19.1755936"><ele>202.50000000000003</ele><time>2026-05-03T15:02:18.683Z</time></trkpt><trkpt lat="42.0298089" lon="19.1755309"><ele>202.0</ele><time>2026-05-03T15:02:19.683Z</time></trkpt><trkpt lat="42.0298579" lon="19.1754599"><ele>201.5</ele><time>2026-05-03T15:02:20.683Z</time></trkpt><trkpt lat="42.0298993" lon="19.1753911"><ele>201.0</ele><time>2026-05-03T15:02:21.684Z</time></trkpt><trkpt lat="42.0299406" lon="19.1753205"><ele>200.50000000000003</ele><time>2026-05-03T15:02:22.684Z</time></trkpt><trkpt lat="42.030015" lon="19.1751987"><ele>200.0</ele><time>2026-05-03T15:02:24.683Z</time></trkpt><trkpt lat="42.0300799" lon="19.1750907"><ele>200.0</ele><time>2026-05-03T15:02:26.684Z</time></trkpt><trkpt lat="42.0301503" lon="19.1749835"><ele>200.0</ele><time>2026-05-03T15:02:28.684Z</time></trkpt><trkpt lat="42.0302307" lon="19.1748966"><ele>200.0</ele><time>2026-05-03T15:02:30.683Z</time></trkpt><trkpt lat="42.0303169" lon="19.1748381"><ele>200.0</ele><time>2026-05-03T15:02:32.683Z</time></trkpt><trkpt lat="42.0304072" lon="19.1747873"><ele>200.0</ele><time>2026-05-03T15:02:34.683Z</time></trkpt><trkpt lat="42.0304849" lon="19.1747543"><ele>199.50000000000003</ele><time>2026-05-03T15:02:36.683Z</time></trkpt><trkpt lat="42.0305574" lon="19.1747177"><ele>199.0</ele><time>2026-05-03T15:02:38.683Z</time></trkpt><trkpt lat="42.0306366" lon="19.1746845"><ele>198.5</ele><time>2026-05-03T15:02:40.683Z</time></trkpt><trkpt lat="42.0307148" lon="19.1746623"><ele>198.0</ele><time>2026-05-03T15:02:42.683Z</time></trkpt><trkpt lat="42.0308007" lon="19.1746529"><ele>197.50000000000003</ele><time>2026-05-03T15:02:44.684Z</time></trkpt><trkpt lat="42.0308847" lon="19.1746448"><ele>197.0</ele><time>2026-05-03T15:02:46.684Z</time></trkpt><trkpt lat="42.0309574" lon="19.1746465"><ele>197.00000000000003</ele><time>2026-05-03T15:02:48.684Z</time></trkpt><trkpt lat="42.0310332" lon="19.1746536"><ele>197.0</ele><time>2026-05-03T15:02:50.684Z</time></trkpt><trkpt lat="42.0311157" lon="19.1746611"><ele>197.0</ele><time>2026-05-03T15:02:52.684Z</time></trkpt><trkpt lat="42.0311986" lon="19.1746503"><ele>197.0</ele><time>2026-05-03T15:02:54.684Z</time></trkpt><trkpt lat="42.031283" lon="19.1746323"><ele>197.00000000000003</ele><time>2026-05-03T15:02:56.683Z</time></trkpt><trkpt lat="42.0313645" lon="19.1745972"><ele>197.0</ele><time>2026-05-03T15:02:58.684Z</time></trkpt><trkpt lat="42.0314332" lon="19.1745479"><ele>197.00000000000003</ele><time>2026-05-03T15:03:00.684Z</time></trkpt><trkpt lat="42.031492" lon="19.1744817"><ele>197.0</ele><time>2026-05-03T15:03:02.684Z</time></trkpt><trkpt lat="42.0315435" lon="19.1744094"><ele>197.0</ele><time>2026-05-03T15:03:04.684Z</time></trkpt><trkpt lat="42.031593" lon="19.1743276"><ele>197.0</ele><time>2026-05-03T15:03:06.683Z</time></trkpt><trkpt lat="42.0316422" lon="19.1742379"><ele>197.00000000000003</ele><time>2026-05-03T15:03:08.684Z</time></trkpt><trkpt lat="42.0316877" lon="19.1741447"><ele>197.0</ele><time>2026-05-03T15:03:10.683Z</time></trkpt><trkpt lat="42.031729" lon="19.1740433"><ele>197.16666666666669</ele><time>2026-05-03T15:03:12.683Z</time></trkpt><trkpt lat="42.0317718" lon="19.1739338"><ele>197.33333333333334</ele><time>2026-05-03T15:03:14.684Z</time></trkpt><trkpt lat="42.0318063" lon="19.1738457"><ele>197.5</ele><time>2026-05-03T15:03:16.684Z</time></trkpt><trkpt lat="42.031842" lon="19.1737593"><ele>197.66666666666669</ele><time>2026-05-03T15:03:18.684Z</time></trkpt><trkpt lat="42.0318783" lon="19.1736479"><ele>197.83333333333334</ele><time>2026-05-03T15:03:21.684Z</time></trkpt><trkpt lat="42.0318438" lon="19.1735602"><ele>198.0</ele><time>2026-05-03T15:03:24.684Z</time></trkpt><trkpt lat="42.0317708" lon="19.17353"><ele>198.0</ele><time>2026-05-03T15:03:26.683Z</time></trkpt><trkpt lat="42.0316503" lon="19.1735169"><ele>198.0</ele><time>2026-05-03T15:03:28.683Z</time></trkpt><trkpt lat="42.0315174" lon="19.1735319"><ele>198.0</ele><time>2026-05-03T15:03:30.683Z</time></trkpt><trkpt lat="42.0314512" lon="19.1735249"><ele>198.0</ele><time>2026-05-03T15:03:31.683Z</time></trkpt><trkpt lat="42.0313336" lon="19.1734778"><ele>198.0</ele><time>2026-05-03T15:03:33.684Z</time></trkpt><trkpt lat="42.0312699" lon="19.1734305"><ele>196.71428571428572</ele><time>2026-05-03T15:03:34.684Z</time></trkpt><trkpt lat="42.0312141" lon="19.1733854"><ele>195.42857142857142</ele><time>2026-05-03T15:03:35.683Z</time></trkpt><trkpt lat="42.0311525" lon="19.1733341"><ele>194.14285714285714</ele><time>2026-05-03T15:03:36.684Z</time></trkpt><trkpt lat="42.0310907" lon="19.1732825"><ele>192.85714285714286</ele><time>2026-05-03T15:03:37.683Z</time></trkpt><trkpt lat="42.0310373" lon="19.1732199"><ele>191.57142857142856</ele><time>2026-05-03T15:03:38.684Z</time></trkpt><trkpt lat="42.0309966" lon="19.17315"><ele>190.28571428571428</ele><time>2026-05-03T15:03:39.684Z</time></trkpt><trkpt lat="42.0309654" lon="19.1730652"><ele>189.0</ele><time>2026-05-03T15:03:40.684Z</time></trkpt><trkpt lat="42.0309217" lon="19.1729663"><ele>187.83333333333334</ele><time>2026-05-03T15:03:41.683Z</time></trkpt><trkpt lat="42.0308796" lon="19.1728674"><ele>186.66666666666666</ele><time>2026-05-03T15:03:42.683Z</time></trkpt><trkpt lat="42.0308369" lon="19.1727786"><ele>185.5</ele><time>2026-05-03T15:03:43.683Z</time></trkpt><trkpt lat="42.0308137" lon="19.1726754"><ele>184.33333333333331</ele><time>2026-05-03T15:03:44.683Z</time></trkpt><trkpt lat="42.0307876" lon="19.1725857"><ele>183.16666666666666</ele><time>2026-05-03T15:03:45.684Z</time></trkpt><trkpt lat="42.0307498" lon="19.1724938"><ele>182.0</ele><time>2026-05-03T15:03:46.684Z</time></trkpt><trkpt lat="42.0307085" lon="19.1723941"><ele>179.71428571428572</ele><time>2026-05-03T15:03:47.684Z</time></trkpt><trkpt lat="42.0306678" lon="19.1722977"><ele>177.42857142857144</ele><time>2026-05-03T15:03:48.683Z</time></trkpt><trkpt lat="42.0306205" lon="19.1722072"><ele>175.14285714285714</ele><time>2026-05-03T15:03:49.684Z</time></trkpt><trkpt lat="42.0305686" lon="19.1721389"><ele>172.85714285714286</ele><time>2026-05-03T15:03:50.684Z</time></trkpt><trkpt lat="42.0305096" lon="19.1720822"><ele>170.57142857142858</ele><time>2026-05-03T15:03:51.684Z</time></trkpt><trkpt lat="42.0304495" lon="19.172038"><ele>168.28571428571428</ele><time>2026-05-03T15:03:52.684Z</time></trkpt><trkpt lat="42.030388" lon="19.1720069"><ele>166.0</ele><time>2026-05-03T15:03:53.683Z</time></trkpt><trkpt lat="42.0303227" lon="19.1719772"><ele>166.0</ele><time>2026-05-03T15:03:54.684Z</time></trkpt><trkpt lat="42.0302581" lon="19.1719456"><ele>166.0</ele><time>2026-05-03T15:03:55.683Z</time></trkpt><trkpt lat="42.0301879" lon="19.1719023"><ele>166.0</ele><time>2026-05-03T15:03:56.684Z</time></trkpt><trkpt lat="42.0301231" lon="19.1718389"><ele>166.0</ele><time>2026-05-03T15:03:57.684Z</time></trkpt><trkpt lat="42.0300646" lon="19.1717681"><ele>166.0</ele><time>2026-05-03T15:03:58.684Z</time></trkpt><trkpt lat="42.030013" lon="19.1717003"><ele>166.0</ele><time>2026-05-03T15:03:59.684Z</time></trkpt><trkpt lat="42.0299522" lon="19.1716256"><ele>164.83333333333334</ele><time>2026-05-03T15:04:00.683Z</time></trkpt><trkpt lat="42.0298924" lon="19.171546"><ele>163.66666666666669</ele><time>2026-05-03T15:04:01.683Z</time></trkpt><trkpt lat="42.0298323" lon="19.1714654"><ele>162.5</ele><time>2026-05-03T15:04:02.684Z</time></trkpt><trkpt lat="42.029769" lon="19.1713941"><ele>161.33333333333334</ele><time>2026-05-03T15:04:03.684Z</time></trkpt><trkpt lat="42.0296999" lon="19.1713196"><ele>160.16666666666666</ele><time>2026-05-03T15:04:04.683Z</time></trkpt><trkpt lat="42.0296184" lon="19.1712566"><ele>159.0</ele><time>2026-05-03T15:04:05.683Z</time></trkpt><trkpt lat="42.029536" lon="19.1711983"><ele>157.83333333333334</ele><time>2026-05-03T15:04:06.683Z</time></trkpt><trkpt lat="42.0294596" lon="19.1711306"><ele>156.66666666666666</ele><time>2026-05-03T15:04:07.683Z</time></trkpt><trkpt lat="42.0293891" lon="19.1710716"><ele>155.5</ele><time>2026-05-03T15:04:08.684Z</time></trkpt><trkpt lat="42.0293199" lon="19.1710048"><ele>154.33333333333331</ele><time>2026-05-03T15:04:09.683Z</time></trkpt><trkpt lat="42.029249" lon="19.1709548"><ele>153.16666666666666</ele><time>2026-05-03T15:04:10.684Z</time></trkpt><trkpt lat="42.0291806" lon="19.1709061"><ele>152.0</ele><time>2026-05-03T15:04:11.684Z</time></trkpt><trkpt lat="42.0291121" lon="19.1708695"><ele>152.0</ele><time>2026-05-03T15:04:12.684Z</time></trkpt><trkpt lat="42.0290497" lon="19.1708307"><ele>152.0</ele><time>2026-05-03T15:04:13.683Z</time></trkpt><trkpt lat="42.0289379" lon="19.1707705"><ele>152.0</ele><time>2026-05-03T15:04:15.683Z</time></trkpt><trkpt lat="42.0288572" lon="19.1706825"><ele>152.0</ele><time>2026-05-03T15:04:17.684Z</time></trkpt><trkpt lat="42.028825" lon="19.1706001"><ele>152.0</ele><time>2026-05-03T15:04:18.684Z</time></trkpt><trkpt lat="42.0287647" lon="19.1704552"><ele>150.2</ele><time>2026-05-03T15:04:20.684Z</time></trkpt><trkpt lat="42.0286829" lon="19.1703565"><ele>148.39999999999998</ele><time>2026-05-03T15:04:22.684Z</time></trkpt><trkpt lat="42.0285889" lon="19.1702859"><ele>146.60000000000002</ele><time>2026-05-03T15:04:24.683Z</time></trkpt><trkpt lat="42.0285148" lon="19.170178"><ele>144.8</ele><time>2026-05-03T15:04:26.684Z</time></trkpt><trkpt lat="42.0284729" lon="19.1700336"><ele>143.0</ele><time>2026-05-03T15:04:28.683Z</time></trkpt><trkpt lat="42.0284796" lon="19.169897"><ele>140.33333333333331</ele><time>2026-05-03T15:04:30.684Z</time></trkpt><trkpt lat="42.0284857" lon="19.1698095"><ele>137.66666666666666</ele><time>2026-05-03T15:04:56.683Z</time></trkpt><trkpt lat="42.0285137" lon="19.1697103"><ele>135.0</ele><time>2026-05-03T15:04:58.683Z</time></trkpt><trkpt lat="42.0285797" lon="19.1695795"><ele>132.33333333333334</ele><time>2026-05-03T15:05:00.684Z</time></trkpt><trkpt lat="42.0286099" lon="19.1694899"><ele>129.66666666666669</ele><time>2026-05-03T15:05:01.683Z</time></trkpt><trkpt lat="42.0286415" lon="19.1693849"><ele>127.0</ele><time>2026-05-03T15:05:02.683Z</time></trkpt><trkpt lat="42.0286753" lon="19.1692685"><ele>127.0</ele><time>2026-05-03T15:05:03.683Z</time></trkpt><trkpt lat="42.0286949" lon="19.1691515"><ele>126.99999999999999</ele><time>2026-05-03T15:05:04.683Z</time></trkpt><trkpt lat="42.0287146" lon="19.169024"><ele>126.99999999999999</ele><time>2026-05-03T15:05:05.684Z</time></trkpt><trkpt lat="42.0287308" lon="19.168893"><ele>127.0</ele><time>2026-05-03T15:05:06.683Z</time></trkpt><trkpt lat="42.0287443" lon="19.1687674"><ele>127.0</ele><time>2026-05-03T15:05:07.684Z</time></trkpt><trkpt lat="42.028765" lon="19.1686418"><ele>125.19999999999999</ele><time>2026-05-03T15:05:08.684Z</time></trkpt><trkpt lat="42.0287886" lon="19.1685043"><ele>123.39999999999999</ele><time>2026-05-03T15:05:09.684Z</time></trkpt><trkpt lat="42.0288216" lon="19.1683762"><ele>121.60000000000001</ele><time>2026-05-03T15:05:10.683Z</time></trkpt><trkpt lat="42.0288561" lon="19.1682539"><ele>119.80000000000001</ele><time>2026-05-03T15:05:11.683Z</time></trkpt><trkpt lat="42.0288972" lon="19.1681205"><ele>118.0</ele><time>2026-05-03T15:05:12.684Z</time></trkpt><trkpt lat="42.0289319" lon="19.1679939"><ele>117.2</ele><time>2026-05-03T15:05:13.684Z</time></trkpt><trkpt lat="42.0289722" lon="19.1678647"><ele>116.4</ele><time>2026-05-03T15:05:14.683Z</time></trkpt><trkpt lat="42.0290199" lon="19.1677395"><ele>115.60000000000001</ele><time>2026-05-03T15:05:15.683Z</time></trkpt><trkpt lat="42.0290614" lon="19.1676123"><ele>114.80000000000001</ele><time>2026-05-03T15:05:16.684Z</time></trkpt><trkpt lat="42.029104" lon="19.1674834"><ele>114.0</ele><time>2026-05-03T15:05:17.684Z</time></trkpt><trkpt lat="42.029155" lon="19.1673515"><ele>112.75</ele><time>2026-05-03T15:05:18.684Z</time></trkpt><trkpt lat="42.0292004" lon="19.167215"><ele>111.5</ele><time>2026-05-03T15:05:19.683Z</time></trkpt><trkpt lat="42.0292472" lon="19.1670797"><ele>110.25</ele><time>2026-05-03T15:05:20.683Z</time></trkpt><trkpt lat="42.0292938" lon="19.1669389"><ele>109.0</ele><time>2026-05-03T15:05:21.684Z</time></trkpt><trkpt lat="42.0293439" lon="19.1667968"><ele>109.0</ele><time>2026-05-03T15:05:22.684Z</time></trkpt><trkpt lat="42.0293916" lon="19.1666537"><ele>109.0</ele><time>2026-05-03T15:05:23.684Z</time></trkpt><trkpt lat="42.0294305" lon="19.1665159"><ele>109.0</ele><time>2026-05-03T15:05:24.684Z</time></trkpt><trkpt lat="42.0294616" lon="19.1663782"><ele>109.0</ele><time>2026-05-03T15:05:25.683Z</time></trkpt><trkpt lat="42.0294792" lon="19.1662378"><ele>109.0</ele><time>2026-05-03T15:05:26.684Z</time></trkpt><trkpt lat="42.0294908" lon="19.166096"><ele>109.0</ele><time>2026-05-03T15:05:27.683Z</time></trkpt><trkpt lat="42.0294941" lon="19.1659537"><ele>109.0</ele><time>2026-05-03T15:05:28.684Z</time></trkpt><trkpt lat="42.0295037" lon="19.1658122"><ele>109.0</ele><time>2026-05-03T15:05:29.684Z</time></trkpt><trkpt lat="42.0295062" lon="19.1656691"><ele>109.0</ele><time>2026-05-03T15:05:30.684Z</time></trkpt><trkpt lat="42.0295118" lon="19.1655295"><ele>109.0</ele><time>2026-05-03T15:05:31.683Z</time></trkpt><trkpt lat="42.0295128" lon="19.1653911"><ele>108.2</ele><time>2026-05-03T15:05:32.683Z</time></trkpt><trkpt lat="42.0295159" lon="19.1652568"><ele>107.4</ele><time>2026-05-03T15:05:33.683Z</time></trkpt><trkpt lat="42.02951" lon="19.165128"><ele>106.6</ele><time>2026-05-03T15:05:34.683Z</time></trkpt><trkpt lat="42.0295121" lon="19.1649851"><ele>105.8</ele><time>2026-05-03T15:05:35.684Z</time></trkpt><trkpt lat="42.0295249" lon="19.1648626"><ele>105.0</ele><time>2026-05-03T15:05:36.684Z</time></trkpt><trkpt lat="42.029559" lon="19.1647454"><ele>104.4</ele><time>2026-05-03T15:05:37.684Z</time></trkpt><trkpt lat="42.0296307" lon="19.1646444"><ele>103.8</ele><time>2026-05-03T15:05:38.683Z</time></trkpt><trkpt lat="42.0296791" lon="19.1645225"><ele>103.19999999999999</ele><time>2026-05-03T15:05:39.683Z</time></trkpt><trkpt lat="42.0297172" lon="19.164391"><ele>102.6</ele><time>2026-05-03T15:05:40.684Z</time></trkpt><trkpt lat="42.0297405" lon="19.164253"><ele>102.0</ele><time>2026-05-03T15:05:41.683Z</time></trkpt><trkpt lat="42.0297643" lon="19.1641258"><ele>102.33333333333333</ele><time>2026-05-03T15:05:42.683Z</time></trkpt><trkpt lat="42.0297897" lon="19.1640027"><ele>102.66666666666666</ele><time>2026-05-03T15:05:43.684Z</time></trkpt><trkpt lat="42.0298119" lon="19.1638927"><ele>103.0</ele><time>2026-05-03T15:05:44.683Z</time></trkpt><trkpt lat="42.0298139" lon="19.1637885"><ele>103.33333333333333</ele><time>2026-05-03T15:05:45.683Z</time></trkpt><trkpt lat="42.029786" lon="19.1636855"><ele>103.66666666666666</ele><time>2026-05-03T15:05:46.684Z</time></trkpt><trkpt lat="42.0297479" lon="19.163585"><ele>104.0</ele><time>2026-05-03T15:05:47.683Z</time></trkpt><trkpt lat="42.0297168" lon="19.1634887"><ele>103.99999999999999</ele><time>2026-05-03T15:05:48.683Z</time></trkpt><trkpt lat="42.0296923" lon="19.163363"><ele>104.0</ele><time>2026-05-03T15:05:49.684Z</time></trkpt><trkpt lat="42.029698" lon="19.1632475"><ele>104.0</ele><time>2026-05-03T15:05:50.684Z</time></trkpt><trkpt lat="42.0297201" lon="19.163142"><ele>104.0</ele><time>2026-05-03T15:05:51.683Z</time></trkpt><trkpt lat="42.0297441" lon="19.163035"><ele>103.99999999999999</ele><time>2026-05-03T15:05:52.683Z</time></trkpt><trkpt lat="42.0297702" lon="19.1629204"><ele>104.0</ele><time>2026-05-03T15:05:53.683Z</time></trkpt><trkpt lat="42.0298048" lon="19.1627987"><ele>104.6</ele><time>2026-05-03T15:05:54.684Z</time></trkpt><trkpt lat="42.0298358" lon="19.1626716"><ele>105.2</ele><time>2026-05-03T15:05:55.684Z</time></trkpt><trkpt lat="42.0298705" lon="19.1625299"><ele>105.79999999999998</ele><time>2026-05-03T15:05:56.684Z</time></trkpt><trkpt lat="42.0299107" lon="19.1623825"><ele>106.39999999999999</ele><time>2026-05-03T15:05:57.684Z</time></trkpt><trkpt lat="42.0299397" lon="19.162261"><ele>107.0</ele><time>2026-05-03T15:05:58.683Z</time></trkpt><trkpt lat="42.0299681" lon="19.1621639"><ele>105.66666666666666</ele><time>2026-05-03T15:05:59.684Z</time></trkpt><trkpt lat="42.0300093" lon="19.1620892"><ele>104.33333333333333</ele><time>2026-05-03T15:06:00.683Z</time></trkpt><trkpt lat="42.0300664" lon="19.1620289"><ele>103.0</ele><time>2026-05-03T15:06:01.684Z</time></trkpt><trkpt lat="42.0301446" lon="19.1620065"><ele>101.66666666666666</ele><time>2026-05-03T15:06:02.683Z</time></trkpt><trkpt lat="42.0302335" lon="19.1620042"><ele>100.33333333333333</ele><time>2026-05-03T15:06:03.683Z</time></trkpt><trkpt lat="42.0303131" lon="19.1619926"><ele>99.0</ele><time>2026-05-03T15:06:04.683Z</time></trkpt><trkpt lat="42.0303903" lon="19.1619708"><ele>99.0</ele><time>2026-05-03T15:06:05.684Z</time></trkpt><trkpt lat="42.0304595" lon="19.1619377"><ele>99.0</ele><time>2026-05-03T15:06:06.683Z</time></trkpt><trkpt lat="42.0305296" lon="19.1618767"><ele>99.0</ele><time>2026-05-03T15:06:07.683Z</time></trkpt><trkpt lat="42.0305769" lon="19.1618061"><ele>99.0</ele><time>2026-05-03T15:06:08.683Z</time></trkpt><trkpt lat="42.0306034" lon="19.161723"><ele>99.0</ele><time>2026-05-03T15:06:09.683Z</time></trkpt><trkpt lat="42.0306255" lon="19.1616125"><ele>99.0</ele><time>2026-05-03T15:06:10.683Z</time></trkpt><trkpt lat="42.030646" lon="19.1614988"><ele>99.4</ele><time>2026-05-03T15:06:11.683Z</time></trkpt><trkpt lat="42.0306526" lon="19.1613929"><ele>99.80000000000001</ele><time>2026-05-03T15:06:12.684Z</time></trkpt><trkpt lat="42.0306687" lon="19.1612634"><ele>100.19999999999999</ele><time>2026-05-03T15:06:13.684Z</time></trkpt><trkpt lat="42.0306773" lon="19.1611223"><ele>100.6</ele><time>2026-05-03T15:06:14.684Z</time></trkpt><trkpt lat="42.0306879" lon="19.160979"><ele>101.0</ele><time>2026-05-03T15:06:15.684Z</time></trkpt><trkpt lat="42.0306959" lon="19.1608232"><ele>100.33333333333333</ele><time>2026-05-03T15:06:16.683Z</time></trkpt><trkpt lat="42.0307167" lon="19.1606923"><ele>99.66666666666666</ele><time>2026-05-03T15:06:17.684Z</time></trkpt><trkpt lat="42.0307362" lon="19.1605727"><ele>99.0</ele><time>2026-05-03T15:06:18.683Z</time></trkpt><trkpt lat="42.0307645" lon="19.160456"><ele>98.33333333333334</ele><time>2026-05-03T15:06:19.683Z</time></trkpt><trkpt lat="42.0307994" lon="19.1603547"><ele>97.66666666666667</ele><time>2026-05-03T15:06:20.683Z</time></trkpt><trkpt lat="42.0308291" lon="19.1602599"><ele>97.0</ele><time>2026-05-03T15:06:21.683Z</time></trkpt><trkpt lat="42.0308605" lon="19.1601706"><ele>97.0</ele><time>2026-05-03T15:06:22.683Z</time></trkpt><trkpt lat="42.0308854" lon="19.1600735"><ele>97.0</ele><time>2026-05-03T15:06:23.683Z</time></trkpt><trkpt lat="42.0309154" lon="19.1599908"><ele>97.0</ele><time>2026-05-03T15:06:24.684Z</time></trkpt><trkpt lat="42.0309773" lon="19.1598566"><ele>97.0</ele><time>2026-05-03T15:06:26.684Z</time></trkpt><trkpt lat="42.0310522" lon="19.1597238"><ele>97.0</ele><time>2026-05-03T15:06:28.683Z</time></trkpt><trkpt lat="42.0310866" lon="19.159582"><ele>97.0</ele><time>2026-05-03T15:06:30.684Z</time></trkpt><trkpt lat="42.0311094" lon="19.1594384"><ele>97.0</ele><time>2026-05-03T15:06:32.684Z</time></trkpt><trkpt lat="42.0311391" lon="19.159285"><ele>97.0</ele><time>2026-05-03T15:06:34.683Z</time></trkpt><trkpt lat="42.0311825" lon="19.1591343"><ele>97.0</ele><time>2026-05-03T15:06:36.684Z</time></trkpt><trkpt lat="42.031221" lon="19.1589988"><ele>96.0</ele><time>2026-05-03T15:06:38.684Z</time></trkpt><trkpt lat="42.0312285" lon="19.1588398"><ele>95.0</ele><time>2026-05-03T15:06:40.684Z</time></trkpt><trkpt lat="42.03122" lon="19.1586682"><ele>94.0</ele><time>2026-05-03T15:06:42.684Z</time></trkpt><trkpt lat="42.0312121" lon="19.1585677"><ele>93.0</ele><time>2026-05-03T15:06:43.684Z</time></trkpt><trkpt lat="42.0312039" lon="19.1584672"><ele>92.0</ele><time>2026-05-03T15:06:44.683Z</time></trkpt><trkpt lat="42.0311937" lon="19.1583609"><ele>92.0</ele><time>2026-05-03T15:06:45.683Z</time></trkpt><trkpt lat="42.0311849" lon="19.1582536"><ele>92.0</ele><time>2026-05-03T15:06:46.683Z</time></trkpt><trkpt lat="42.0311864" lon="19.1581627"><ele>92.0</ele><time>2026-05-03T15:06:47.684Z</time></trkpt><trkpt lat="42.0311882" lon="19.1580668"><ele>92.0</ele><time>2026-05-03T15:06:48.684Z</time></trkpt><trkpt lat="42.031191" lon="19.1579773"><ele>92.0</ele><time>2026-05-03T15:06:49.684Z</time></trkpt><trkpt lat="42.0311684" lon="19.1578217"><ele>92.0</ele><time>2026-05-03T15:06:51.684Z</time></trkpt><trkpt lat="42.0311325" lon="19.1577492"><ele>91.14285714285715</ele><time>2026-05-03T15:06:52.683Z</time></trkpt><trkpt lat="42.0310933" lon="19.1576704"><ele>90.28571428571428</ele><time>2026-05-03T15:06:53.683Z</time></trkpt><trkpt lat="42.0310617" lon="19.1575836"><ele>89.42857142857143</ele><time>2026-05-03T15:06:54.684Z</time></trkpt><trkpt lat="42.031032" lon="19.1574988"><ele>88.57142857142858</ele><time>2026-05-03T15:06:55.683Z</time></trkpt><trkpt lat="42.0309852" lon="19.1574166"><ele>87.71428571428572</ele><time>2026-05-03T15:06:56.683Z</time></trkpt><trkpt lat="42.0309312" lon="19.1573479"><ele>86.85714285714286</ele><time>2026-05-03T15:06:57.683Z</time></trkpt><trkpt lat="42.0308699" lon="19.1572905"><ele>86.0</ele><time>2026-05-03T15:06:58.683Z</time></trkpt><trkpt lat="42.0307961" lon="19.1572464"><ele>85.5</ele><time>2026-05-03T15:06:59.684Z</time></trkpt><trkpt lat="42.0307238" lon="19.1571999"><ele>85.0</ele><time>2026-05-03T15:07:00.683Z</time></trkpt><trkpt lat="42.0306424" lon="19.157147"><ele>84.5</ele><time>2026-05-03T15:07:01.684Z</time></trkpt><trkpt lat="42.0305608" lon="19.1570961"><ele>84.0</ele><time>2026-05-03T15:07:02.683Z</time></trkpt><trkpt lat="42.0304868" lon="19.1570393"><ele>83.5</ele><time>2026-05-03T15:07:03.684Z</time></trkpt><trkpt lat="42.0304312" lon="19.1569824"><ele>83.0</ele><time>2026-05-03T15:07:04.684Z</time></trkpt><trkpt lat="42.0303676" lon="19.1569407"><ele>83.0</ele><time>2026-05-03T15:07:05.684Z</time></trkpt><trkpt lat="42.0302994" lon="19.1569137"><ele>83.0</ele><time>2026-05-03T15:07:06.684Z</time></trkpt><trkpt lat="42.0302179" lon="19.1569045"><ele>83.0</ele><time>2026-05-03T15:07:07.684Z</time></trkpt><trkpt lat="42.0300812" lon="19.156887"><ele>83.0</ele><time>2026-05-03T15:07:09.683Z</time></trkpt><trkpt lat="42.030007" lon="19.1568779"><ele>83.0</ele><time>2026-05-03T15:07:10.684Z</time></trkpt><trkpt lat="42.0299293" lon="19.1568583"><ele>83.0</ele><time>2026-05-03T15:07:11.684Z</time></trkpt><trkpt lat="42.0298668" lon="19.156837"><ele>84.0</ele><time>2026-05-03T15:07:12.684Z</time></trkpt><trkpt lat="42.0297428" lon="19.1567531"><ele>85.0</ele><time>2026-05-03T15:07:14.683Z</time></trkpt><trkpt lat="42.0296628" lon="19.1567174"><ele>86.0</ele><time>2026-05-03T15:07:15.684Z</time></trkpt><trkpt lat="42.0295919" lon="19.1566793"><ele>87.0</ele><time>2026-05-03T15:07:16.683Z</time></trkpt><trkpt lat="42.029522" lon="19.1566347"><ele>88.0</ele><time>2026-05-03T15:07:17.684Z</time></trkpt><trkpt lat="42.0294624" lon="19.1565911"><ele>89.0</ele><time>2026-05-03T15:07:18.684Z</time></trkpt><trkpt lat="42.0293672" lon="19.1564947"><ele>89.2</ele><time>2026-05-03T15:07:20.684Z</time></trkpt><trkpt lat="42.0292934" lon="19.1563937"><ele>89.4</ele><time>2026-05-03T15:07:22.683Z</time></trkpt><trkpt lat="42.0292765" lon="19.156275"><ele>89.6</ele><time>2026-05-03T15:07:24.684Z</time></trkpt><trkpt lat="42.0293459" lon="19.1561771"><ele>89.8</ele><time>2026-05-03T15:07:26.684Z</time></trkpt><trkpt lat="42.0294187" lon="19.1560676"><ele>90.0</ele><time>2026-05-03T15:07:28.684Z</time></trkpt><trkpt lat="42.0294655" lon="19.1560095"><ele>90.0</ele><time>2026-05-03T15:07:29.683Z</time></trkpt><trkpt lat="42.0295068" lon="19.1559431"><ele>90.0</ele><time>2026-05-03T15:07:30.683Z</time></trkpt><trkpt lat="42.0295452" lon="19.1558704"><ele>90.0</ele><time>2026-05-03T15:07:31.683Z</time></trkpt><trkpt lat="42.0296295" lon="19.1557193"><ele>90.0</ele><time>2026-05-03T15:07:33.683Z</time></trkpt><trkpt lat="42.0296719" lon="19.1556397"><ele>90.0</ele><time>2026-05-03T15:07:34.684Z</time></trkpt><trkpt lat="42.0297105" lon="19.1555472"><ele>90.0</ele><time>2026-05-03T15:07:35.684Z</time></trkpt><trkpt lat="42.0297448" lon="19.1554526"><ele>90.16666666666667</ele><time>2026-05-03T15:07:36.684Z</time></trkpt><trkpt lat="42.0297854" lon="19.1553564"><ele>90.33333333333333</ele><time>2026-05-03T15:07:37.684Z</time></trkpt><trkpt lat="42.0298172" lon="19.1552644"><ele>90.5</ele><time>2026-05-03T15:07:38.684Z</time></trkpt><trkpt lat="42.0298471" lon="19.155176"><ele>90.66666666666666</ele><time>2026-05-03T15:07:39.684Z</time></trkpt><trkpt lat="42.029877" lon="19.1550693"><ele>90.83333333333333</ele><time>2026-05-03T15:07:40.684Z</time></trkpt><trkpt lat="42.0299285" lon="19.1549322"><ele>91.0</ele><time>2026-05-03T15:07:42.684Z</time></trkpt><trkpt lat="42.0299595" lon="19.1548458"><ele>88.2</ele><time>2026-05-03T15:07:44.684Z</time></trkpt><trkpt lat="42.0299918" lon="19.154724"><ele>85.39999999999999</ele><time>2026-05-03T15:07:54.684Z</time></trkpt><trkpt lat="42.0300139" lon="19.1545635"><ele>82.6</ele><time>2026-05-03T15:07:56.684Z</time></trkpt><trkpt lat="42.0300368" lon="19.1543824"><ele>79.8</ele><time>2026-05-03T15:07:58.684Z</time></trkpt><trkpt lat="42.0300556" lon="19.1542723"><ele>77.0</ele><time>2026-05-03T15:07:59.684Z</time></trkpt><trkpt lat="42.0300685" lon="19.1541663"><ele>77.0</ele><time>2026-05-03T15:08:00.683Z</time></trkpt><trkpt lat="42.0300768" lon="19.1540677"><ele>77.0</ele><time>2026-05-03T15:08:01.683Z</time></trkpt><trkpt lat="42.0300805" lon="19.1539696"><ele>77.0</ele><time>2026-05-03T15:08:02.683Z</time></trkpt><trkpt lat="42.0300885" lon="19.1538816"><ele>77.0</ele><time>2026-05-03T15:08:03.684Z</time></trkpt><trkpt lat="42.0301059" lon="19.1537867"><ele>77.0</ele><time>2026-05-03T15:08:04.684Z</time></trkpt><trkpt lat="42.030125" lon="19.1536942"><ele>77.0</ele><time>2026-05-03T15:08:05.684Z</time></trkpt><trkpt lat="42.0301322" lon="19.1536016"><ele>77.0</ele><time>2026-05-03T15:08:06.684Z</time></trkpt><trkpt lat="42.0301375" lon="19.1535073"><ele>76.42857142857143</ele><time>2026-05-03T15:08:07.683Z</time></trkpt><trkpt lat="42.0301385" lon="19.1534146"><ele>75.85714285714286</ele><time>2026-05-03T15:08:08.684Z</time></trkpt><trkpt lat="42.0301302" lon="19.1533067"><ele>75.28571428571428</ele><time>2026-05-03T15:08:09.684Z</time></trkpt><trkpt lat="42.0301209" lon="19.1532128"><ele>74.71428571428572</ele><time>2026-05-03T15:08:10.683Z</time></trkpt><trkpt lat="42.0300934" lon="19.1531036"><ele>74.14285714285714</ele><time>2026-05-03T15:08:11.683Z</time></trkpt><trkpt lat="42.0300891" lon="19.1530119"><ele>73.57142857142857</ele><time>2026-05-03T15:08:12.683Z</time></trkpt><trkpt lat="42.0300932" lon="19.1529237"><ele>73.0</ele><time>2026-05-03T15:08:13.683Z</time></trkpt><trkpt lat="42.0301059" lon="19.1528386"><ele>72.42857142857143</ele><time>2026-05-03T15:08:14.683Z</time></trkpt><trkpt lat="42.0301192" lon="19.1527492"><ele>71.85714285714286</ele><time>2026-05-03T15:08:15.683Z</time></trkpt><trkpt lat="42.0301262" lon="19.1526579"><ele>71.28571428571429</ele><time>2026-05-03T15:08:16.684Z</time></trkpt><trkpt lat="42.0301292" lon="19.15257"><ele>70.71428571428572</ele><time>2026-05-03T15:08:17.684Z</time></trkpt><trkpt lat="42.0301347" lon="19.1524789"><ele>70.14285714285715</ele><time>2026-05-03T15:08:18.683Z</time></trkpt><trkpt lat="42.0301419" lon="19.1523897"><ele>69.57142857142857</ele><time>2026-05-03T15:08:19.683Z</time></trkpt><trkpt lat="42.0301501" lon="19.1522867"><ele>69.0</ele><time>2026-05-03T15:08:21.683Z</time></trkpt><trkpt lat="42.0301496" lon="19.1521537"><ele>68.5</ele><time>2026-05-03T15:08:23.683Z</time></trkpt><trkpt lat="42.0301397" lon="19.1520673"><ele>68.0</ele><time>2026-05-03T15:08:24.684Z</time></trkpt><trkpt lat="42.0301475" lon="19.1519031"><ele>67.5</ele><time>2026-05-03T15:08:26.684Z</time></trkpt><trkpt lat="42.0301477" lon="19.1518167"><ele>67.0</ele><time>2026-05-03T15:08:27.683Z</time></trkpt><trkpt lat="42.0301491" lon="19.1517206"><ele>66.5</ele><time>2026-05-03T15:08:28.683Z</time></trkpt><trkpt lat="42.0301633" lon="19.1516159"><ele>66.0</ele><time>2026-05-03T15:08:29.683Z</time></trkpt><trkpt lat="42.0301796" lon="19.1515178"><ele>65.85714285714286</ele><time>2026-05-03T15:08:30.683Z</time></trkpt><trkpt lat="42.0301949" lon="19.1514227"><ele>65.71428571428572</ele><time>2026-05-03T15:08:31.684Z</time></trkpt><trkpt lat="42.0302051" lon="19.151322"><ele>65.57142857142858</ele><time>2026-05-03T15:08:32.684Z</time></trkpt><trkpt lat="42.0302192" lon="19.1512211"><ele>65.42857142857143</ele><time>2026-05-03T15:08:33.684Z</time></trkpt><trkpt lat="42.0302288" lon="19.1511269"><ele>65.28571428571429</ele><time>2026-05-03T15:08:34.684Z</time></trkpt><trkpt lat="42.0302497" lon="19.1510344"><ele>65.14285714285715</ele><time>2026-05-03T15:08:35.684Z</time></trkpt><trkpt lat="42.0302666" lon="19.1509482"><ele>65.0</ele><time>2026-05-03T15:08:36.684Z</time></trkpt><trkpt lat="42.0302838" lon="19.1508526"><ele>65.0</ele><time>2026-05-03T15:08:37.684Z</time></trkpt><trkpt lat="42.0302998" lon="19.1507637"><ele>65.0</ele><time>2026-05-03T15:08:38.683Z</time></trkpt><trkpt lat="42.030316" lon="19.1506331"><ele>65.0</ele><time>2026-05-03T15:08:40.684Z</time></trkpt><trkpt lat="42.0303269" lon="19.1505315"><ele>65.0</ele><time>2026-05-03T15:08:42.684Z</time></trkpt><trkpt lat="42.0303389" lon="19.1504179"><ele>65.0</ele><time>2026-05-03T15:08:44.683Z</time></trkpt><trkpt lat="42.0303586" lon="19.150304"><ele>65.0</ele><time>2026-05-03T15:08:46.683Z</time></trkpt><trkpt lat="42.0303698" lon="19.1502134"><ele>64.83333333333334</ele><time>2026-05-03T15:08:54.683Z</time></trkpt><trkpt lat="42.0303776" lon="19.1500668"><ele>64.66666666666667</ele><time>2026-05-03T15:08:57.683Z</time></trkpt><trkpt lat="42.0304001" lon="19.1499316"><ele>64.5</ele><time>2026-05-03T15:08:59.684Z</time></trkpt><trkpt lat="42.0304206" lon="19.1498444"><ele>64.33333333333333</ele><time>2026-05-03T15:09:01.683Z</time></trkpt><trkpt lat="42.0303996" lon="19.1497628"><ele>64.16666666666666</ele><time>2026-05-03T15:09:03.684Z</time></trkpt><trkpt lat="42.0303376" lon="19.1497005"><ele>64.0</ele><time>2026-05-03T15:09:05.684Z</time></trkpt><trkpt lat="42.0302376" lon="19.1496263"><ele>63.33333333333333</ele><time>2026-05-03T15:09:07.684Z</time></trkpt><trkpt lat="42.0301518" lon="19.1495784"><ele>62.666666666666664</ele><time>2026-05-03T15:09:08.684Z</time></trkpt><trkpt lat="42.030089" lon="19.1495341"><ele>62.0</ele><time>2026-05-03T15:09:09.684Z</time></trkpt><trkpt lat="42.0300171" lon="19.1494936"><ele>61.33333333333333</ele><time>2026-05-03T15:09:10.683Z</time></trkpt><trkpt lat="42.0299439" lon="19.1494579"><ele>60.666666666666664</ele><time>2026-05-03T15:09:11.684Z</time></trkpt><trkpt lat="42.0298833" lon="19.1494229"><ele>60.0</ele><time>2026-05-03T15:09:12.683Z</time></trkpt><trkpt lat="42.0298111" lon="19.1493925"><ele>61.5</ele><time>2026-05-03T15:09:13.684Z</time></trkpt><trkpt lat="42.0297426" lon="19.1493625"><ele>63.0</ele><time>2026-05-03T15:09:14.683Z</time></trkpt><trkpt lat="42.0296331" lon="19.1493219"><ele>64.5</ele><time>2026-05-03T15:09:16.684Z</time></trkpt><trkpt lat="42.029569" lon="19.1493105"><ele>66.0</ele><time>2026-05-03T15:09:17.683Z</time></trkpt><trkpt lat="42.0295058" lon="19.1493018"><ele>67.5</ele><time>2026-05-03T15:09:18.682Z</time></trkpt><trkpt lat="42.0293915" lon="19.1492844"><ele>69.0</ele><time>2026-05-03T15:09:20.684Z</time></trkpt><trkpt lat="42.0293275" lon="19.1492703"><ele>69.0</ele><time>2026-05-03T15:09:21.683Z</time></trkpt><trkpt lat="42.0292572" lon="19.1492455"><ele>69.0</ele><time>2026-05-03T15:09:22.683Z</time></trkpt><trkpt lat="42.0291931" lon="19.1492165"><ele>69.0</ele><time>2026-05-03T15:09:23.684Z</time></trkpt><trkpt lat="42.0291267" lon="19.1491898"><ele>69.0</ele><time>2026-05-03T15:09:24.683Z</time></trkpt><trkpt lat="42.0290663" lon="19.149163"><ele>69.0</ele><time>2026-05-03T15:09:25.683Z</time></trkpt><trkpt lat="42.0289787" lon="19.149087"><ele>69.0</ele><time>2026-05-03T15:09:27.683Z</time></trkpt><trkpt lat="42.0289186" lon="19.1490312"><ele>69.0</ele><time>2026-05-03T15:09:29.683Z</time></trkpt><trkpt lat="42.0289727" lon="19.1491077"><ele>69.0</ele><time>2026-05-03T15:12:10.676Z</time></trkpt><trkpt lat="42.0290383" lon="19.1491701"><ele>69.0</ele><time>2026-05-03T15:12:12.675Z</time></trkpt><trkpt lat="42.0291519" lon="19.1492321"><ele>69.0</ele><time>2026-05-03T15:12:14.676Z</time></trkpt><trkpt lat="42.0292183" lon="19.1492616"><ele>69.0</ele><time>2026-05-03T15:12:15.676Z</time></trkpt><trkpt lat="42.0292829" lon="19.1492774"><ele>69.0</ele><time>2026-05-03T15:12:16.675Z</time></trkpt><trkpt lat="42.0293457" lon="19.1492956"><ele>69.0</ele><time>2026-05-03T15:12:17.676Z</time></trkpt><trkpt lat="42.0294094" lon="19.149307"><ele>69.0</ele><time>2026-05-03T15:12:18.676Z</time></trkpt><trkpt lat="42.0294782" lon="19.1493234"><ele>69.0</ele><time>2026-05-03T15:12:19.675Z</time></trkpt><trkpt lat="42.0296061" lon="19.1493422"><ele>69.0</ele><time>2026-05-03T15:12:21.675Z</time></trkpt><trkpt lat="42.0296712" lon="19.1493551"><ele>69.0</ele><time>2026-05-03T15:12:22.676Z</time></trkpt><trkpt lat="42.0297409" lon="19.1493796"><ele>69.0</ele><time>2026-05-03T15:12:23.676Z</time></trkpt><trkpt lat="42.0298078" lon="19.1493999"><ele>69.0</ele><time>2026-05-03T15:12:24.675Z</time></trkpt><trkpt lat="42.029882" lon="19.1494282"><ele>69.0</ele><time>2026-05-03T15:12:25.675Z</time></trkpt><trkpt lat="42.029948" lon="19.1494587"><ele>69.0</ele><time>2026-05-03T15:12:26.675Z</time></trkpt><trkpt lat="42.0300152" lon="19.1494955"><ele>69.0</ele><time>2026-05-03T15:12:27.676Z</time></trkpt><trkpt lat="42.0300799" lon="19.1495331"><ele>69.0</ele><time>2026-05-03T15:12:28.675Z</time></trkpt><trkpt lat="42.0301369" lon="19.1495695"><ele>69.0</ele><time>2026-05-03T15:12:29.676Z</time></trkpt><trkpt lat="42.0302401" lon="19.1496407"><ele>67.2</ele><time>2026-05-03T15:12:31.676Z</time></trkpt><trkpt lat="42.0303317" lon="19.1497018"><ele>65.4</ele><time>2026-05-03T15:12:33.675Z</time></trkpt><trkpt lat="42.0303878" lon="19.149762"><ele>63.6</ele><time>2026-05-03T15:12:36.676Z</time></trkpt><trkpt lat="42.0304647" lon="19.1497081"><ele>61.8</ele><time>2026-05-03T15:12:39.675Z</time></trkpt><trkpt lat="42.0305295" lon="19.1495953"><ele>60.0</ele><time>2026-05-03T15:12:41.676Z</time></trkpt><trkpt lat="42.030573" lon="19.1494944"><ele>60.0</ele><time>2026-05-03T15:12:43.676Z</time></trkpt><trkpt lat="42.0306169" lon="19.1494102"><ele>60.0</ele><time>2026-05-03T15:12:46.676Z</time></trkpt><trkpt lat="42.0306521" lon="19.1492992"><ele>60.0</ele><time>2026-05-03T15:12:49.675Z</time></trkpt><trkpt lat="42.030677" lon="19.1492002"><ele>60.0</ele><time>2026-05-03T15:12:51.675Z</time></trkpt><trkpt lat="42.0306989" lon="19.1491095"><ele>60.0</ele><time>2026-05-03T15:12:53.676Z</time></trkpt><trkpt lat="42.0307335" lon="19.1489815"><ele>60.0</ele><time>2026-05-03T15:12:55.675Z</time></trkpt><trkpt lat="42.0307744" lon="19.1488635"><ele>58.166666666666664</ele><time>2026-05-03T15:12:57.675Z</time></trkpt><trkpt lat="42.0308139" lon="19.148765"><ele>56.33333333333333</ele><time>2026-05-03T15:12:59.675Z</time></trkpt><trkpt lat="42.0308514" lon="19.1486695"><ele>54.5</ele><time>2026-05-03T15:13:01.675Z</time></trkpt><trkpt lat="42.0308946" lon="19.1485761"><ele>52.666666666666664</ele><time>2026-05-03T15:13:03.675Z</time></trkpt><trkpt lat="42.0309484" lon="19.1484934"><ele>50.83333333333333</ele><time>2026-05-03T15:13:05.675Z</time></trkpt><trkpt lat="42.0310058" lon="19.1484318"><ele>49.0</ele><time>2026-05-03T15:13:11.675Z</time></trkpt><trkpt lat="42.0310784" lon="19.1484372"><ele>49.0</ele><time>2026-05-03T15:13:13.675Z</time></trkpt><trkpt lat="42.0311866" lon="19.1485206"><ele>49.0</ele><time>2026-05-03T15:13:15.676Z</time></trkpt><trkpt lat="42.0312394" lon="19.1485676"><ele>49.0</ele><time>2026-05-03T15:13:16.676Z</time></trkpt><trkpt lat="42.0313513" lon="19.1486536"><ele>49.0</ele><time>2026-05-03T15:13:18.676Z</time></trkpt><trkpt lat="42.0314128" lon="19.1487098"><ele>49.0</ele><time>2026-05-03T15:13:19.675Z</time></trkpt><trkpt lat="42.0314881" lon="19.1487754"><ele>49.0</ele><time>2026-05-03T15:13:20.676Z</time></trkpt><trkpt lat="42.0315698" lon="19.1488517"><ele>49.0</ele><time>2026-05-03T15:13:21.675Z</time></trkpt><trkpt lat="42.0316531" lon="19.1489312"><ele>49.0</ele><time>2026-05-03T15:13:22.675Z</time></trkpt><trkpt lat="42.0317377" lon="19.1490153"><ele>49.0</ele><time>2026-05-03T15:13:23.675Z</time></trkpt><trkpt lat="42.0318177" lon="19.1491121"><ele>49.0</ele><time>2026-05-03T15:13:24.676Z</time></trkpt><trkpt lat="42.0319012" lon="19.1492169"><ele>48.6</ele><time>2026-05-03T15:13:25.675Z</time></trkpt><trkpt lat="42.0319738" lon="19.1493359"><ele>48.2</ele><time>2026-05-03T15:13:26.676Z</time></trkpt><trkpt lat="42.0320424" lon="19.1494524"><ele>47.800000000000004</ele><time>2026-05-03T15:13:27.676Z</time></trkpt><trkpt lat="42.0321101" lon="19.1495691"><ele>47.400000000000006</ele><time>2026-05-03T15:13:28.676Z</time></trkpt><trkpt lat="42.0321762" lon="19.1496874"><ele>47.0</ele><time>2026-05-03T15:13:29.676Z</time></trkpt><trkpt lat="42.0322377" lon="19.1498077"><ele>47.75</ele><time>2026-05-03T15:13:30.675Z</time></trkpt><trkpt lat="42.0323" lon="19.1499261"><ele>48.5</ele><time>2026-05-03T15:13:31.676Z</time></trkpt><trkpt lat="42.0323677" lon="19.1500475"><ele>49.25</ele><time>2026-05-03T15:13:32.676Z</time></trkpt><trkpt lat="42.0324396" lon="19.1501674"><ele>50.0</ele><time>2026-05-03T15:13:33.675Z</time></trkpt><trkpt lat="42.0325197" lon="19.1502831"><ele>47.75</ele><time>2026-05-03T15:13:34.675Z</time></trkpt><trkpt lat="42.032605" lon="19.1503957"><ele>45.5</ele><time>2026-05-03T15:13:35.675Z</time></trkpt><trkpt lat="42.0327003" lon="19.1504991"><ele>43.25</ele><time>2026-05-03T15:13:36.676Z</time></trkpt><trkpt lat="42.0328035" lon="19.1505905"><ele>41.0</ele><time>2026-05-03T15:13:37.675Z</time></trkpt><trkpt lat="42.0329096" lon="19.1506634"><ele>41.25</ele><time>2026-05-03T15:13:38.675Z</time></trkpt><trkpt lat="42.0330254" lon="19.1507222"><ele>41.5</ele><time>2026-05-03T15:13:39.675Z</time></trkpt><trkpt lat="42.0331384" lon="19.150771"><ele>41.75</ele><time>2026-05-03T15:13:40.676Z</time></trkpt><trkpt lat="42.0332499" lon="19.1508028"><ele>42.0</ele><time>2026-05-03T15:13:41.675Z</time></trkpt><trkpt lat="42.0333646" lon="19.1508169"><ele>39.5</ele><time>2026-05-03T15:13:42.675Z</time></trkpt><trkpt lat="42.033484" lon="19.1508156"><ele>37.0</ele><time>2026-05-03T15:13:43.675Z</time></trkpt><trkpt lat="42.0336068" lon="19.1507904"><ele>34.5</ele><time>2026-05-03T15:13:44.676Z</time></trkpt><trkpt lat="42.0337312" lon="19.1507527"><ele>32.0</ele><time>2026-05-03T15:13:45.676Z</time></trkpt><trkpt lat="42.0338546" lon="19.1506978"><ele>31.75</ele><time>2026-05-03T15:13:46.675Z</time></trkpt><trkpt lat="42.0339684" lon="19.1506228"><ele>31.5</ele><time>2026-05-03T15:13:47.675Z</time></trkpt><trkpt lat="42.034077" lon="19.150533"><ele>31.25</ele><time>2026-05-03T15:13:48.676Z</time></trkpt><trkpt lat="42.034181" lon="19.1504236"><ele>31.0</ele><time>2026-05-03T15:13:49.676Z</time></trkpt><trkpt lat="42.0342762" lon="19.1503019"><ele>31.5</ele><time>2026-05-03T15:13:50.676Z</time></trkpt><trkpt lat="42.0343624" lon="19.1501616"><ele>32.0</ele><time>2026-05-03T15:13:51.676Z</time></trkpt><trkpt lat="42.0344497" lon="19.1500171"><ele>32.5</ele><time>2026-05-03T15:13:52.675Z</time></trkpt><trkpt lat="42.0345313" lon="19.1498689"><ele>33.0</ele><time>2026-05-03T15:13:53.676Z</time></trkpt><trkpt lat="42.0346196" lon="19.1497214"><ele>31.0</ele><time>2026-05-03T15:13:54.676Z</time></trkpt><trkpt lat="42.0347005" lon="19.1495621"><ele>29.0</ele><time>2026-05-03T15:13:55.676Z</time></trkpt><trkpt lat="42.0347817" lon="19.1494062"><ele>27.0</ele><time>2026-05-03T15:13:56.675Z</time></trkpt><trkpt lat="42.034863" lon="19.1492489"><ele>25.0</ele><time>2026-05-03T15:13:57.675Z</time></trkpt><trkpt lat="42.0349431" lon="19.1490957"><ele>26.25</ele><time>2026-05-03T15:13:58.676Z</time></trkpt><trkpt lat="42.0350233" lon="19.1489544"><ele>27.5</ele><time>2026-05-03T15:13:59.676Z</time></trkpt><trkpt lat="42.0351122" lon="19.1488178"><ele>28.75</ele><time>2026-05-03T15:14:00.675Z</time></trkpt><trkpt lat="42.0352063" lon="19.1486961"><ele>30.0</ele><time>2026-05-03T15:14:01.676Z</time></trkpt><trkpt lat="42.035305" lon="19.1485811"><ele>30.0</ele><time>2026-05-03T15:14:02.675Z</time></trkpt><trkpt lat="42.0354198" lon="19.1484657"><ele>30.0</ele><time>2026-05-03T15:14:03.676Z</time></trkpt><trkpt lat="42.0355423" lon="19.1483469"><ele>30.0</ele><time>2026-05-03T15:14:04.675Z</time></trkpt><trkpt lat="42.0356694" lon="19.1482336"><ele>30.0</ele><time>2026-05-03T15:14:05.676Z</time></trkpt><trkpt lat="42.0357932" lon="19.148115"><ele>30.333333333333336</ele><time>2026-05-03T15:14:06.676Z</time></trkpt><trkpt lat="42.0359306" lon="19.1480018"><ele>30.666666666666668</ele><time>2026-05-03T15:14:07.676Z</time></trkpt><trkpt lat="42.0360542" lon="19.1478765"><ele>31.0</ele><time>2026-05-03T15:14:08.676Z</time></trkpt><trkpt lat="42.036169" lon="19.1477357"><ele>31.0</ele><time>2026-05-03T15:14:09.676Z</time></trkpt><trkpt lat="42.0362707" lon="19.1475827"><ele>31.0</ele><time>2026-05-03T15:14:10.676Z</time></trkpt><trkpt lat="42.0363644" lon="19.1474166"><ele>31.0</ele><time>2026-05-03T15:14:11.676Z</time></trkpt><trkpt lat="42.0364498" lon="19.1472586"><ele>31.5</ele><time>2026-05-03T15:14:12.676Z</time></trkpt><trkpt lat="42.0365261" lon="19.1471055"><ele>32.0</ele><time>2026-05-03T15:14:13.676Z</time></trkpt><trkpt lat="42.0365984" lon="19.1469561"><ele>32.5</ele><time>2026-05-03T15:14:14.675Z</time></trkpt><trkpt lat="42.0366739" lon="19.1468166"><ele>33.0</ele><time>2026-05-03T15:14:15.675Z</time></trkpt><trkpt lat="42.0367502" lon="19.1466775"><ele>33.0</ele><time>2026-05-03T15:14:16.676Z</time></trkpt><trkpt lat="42.0368267" lon="19.1465692"><ele>33.0</ele><time>2026-05-03T15:14:17.675Z</time></trkpt><trkpt lat="42.0368987" lon="19.146479"><ele>33.0</ele><time>2026-05-03T15:14:18.675Z</time></trkpt><trkpt lat="42.036961" lon="19.146403"><ele>33.0</ele><time>2026-05-03T15:14:19.675Z</time></trkpt><trkpt lat="42.0370119" lon="19.1463301"><ele>33.0</ele><time>2026-05-03T15:14:20.676Z</time></trkpt><trkpt lat="42.0370727" lon="19.1462133"><ele>32.0</ele><time>2026-05-03T15:14:22.675Z</time></trkpt><trkpt lat="42.0370573" lon="19.1460917"><ele>31.0</ele><time>2026-05-03T15:14:24.676Z</time></trkpt><trkpt lat="42.037006" lon="19.1459497"><ele>30.0</ele><time>2026-05-03T15:14:26.676Z</time></trkpt><trkpt lat="42.0369769" lon="19.1458669"><ele>29.0</ele><time>2026-05-03T15:14:27.675Z</time></trkpt><trkpt lat="42.0369521" lon="19.145784"><ele>28.0</ele><time>2026-05-03T15:14:28.676Z</time></trkpt><trkpt lat="42.0369282" lon="19.145679"><ele>27.0</ele><time>2026-05-03T15:14:29.675Z</time></trkpt><trkpt lat="42.0369384" lon="19.1455553"><ele>26.166666666666668</ele><time>2026-05-03T15:14:30.676Z</time></trkpt><trkpt lat="42.0369409" lon="19.145452"><ele>25.333333333333332</ele><time>2026-05-03T15:14:31.676Z</time></trkpt><trkpt lat="42.0369454" lon="19.1453455"><ele>24.5</ele><time>2026-05-03T15:14:32.676Z</time></trkpt><trkpt lat="42.0369616" lon="19.1452436"><ele>23.666666666666664</ele><time>2026-05-03T15:14:33.676Z</time></trkpt><trkpt lat="42.0369727" lon="19.1451565"><ele>22.833333333333332</ele><time>2026-05-03T15:14:34.675Z</time></trkpt><trkpt lat="42.0369933" lon="19.145056"><ele>22.0</ele><time>2026-05-03T15:14:36.675Z</time></trkpt><trkpt lat="42.036976" lon="19.1449481"><ele>22.0</ele><time>2026-05-03T15:14:40.675Z</time></trkpt><trkpt lat="42.0369004" lon="19.1449297"><ele>22.0</ele><time>2026-05-03T15:14:42.675Z</time></trkpt><trkpt lat="42.0367808" lon="19.1449425"><ele>22.0</ele><time>2026-05-03T15:14:44.675Z</time></trkpt><trkpt lat="42.0367041" lon="19.1449493"><ele>22.0</ele><time>2026-05-03T15:14:45.676Z</time></trkpt><trkpt lat="42.0366193" lon="19.1449557"><ele>22.0</ele><time>2026-05-03T15:14:46.675Z</time></trkpt><trkpt lat="42.0365354" lon="19.1449596"><ele>22.0</ele><time>2026-05-03T15:14:47.676Z</time></trkpt><trkpt lat="42.0364573" lon="19.1449757"><ele>21.142857142857142</ele><time>2026-05-03T15:14:48.675Z</time></trkpt><trkpt lat="42.0363829" lon="19.1449721"><ele>20.285714285714285</ele><time>2026-05-03T15:14:49.675Z</time></trkpt><trkpt lat="42.0363074" lon="19.1449669"><ele>19.428571428571427</ele><time>2026-05-03T15:14:50.676Z</time></trkpt><trkpt lat="42.0362269" lon="19.1449588"><ele>18.57142857142857</ele><time>2026-05-03T15:14:51.675Z</time></trkpt><trkpt lat="42.036159" lon="19.1449378"><ele>17.71428571428571</ele><time>2026-05-03T15:14:52.675Z</time></trkpt><trkpt lat="42.0360835" lon="19.1449175"><ele>16.857142857142858</ele><time>2026-05-03T15:14:53.675Z</time></trkpt><trkpt lat="42.0360195" lon="19.1448894"><ele>16.0</ele><time>2026-05-03T15:14:54.675Z</time></trkpt><trkpt lat="42.0359484" lon="19.1448732"><ele>14.999999999999998</ele><time>2026-05-03T15:14:55.675Z</time></trkpt><trkpt lat="42.0358708" lon="19.144848"><ele>14.0</ele><time>2026-05-03T15:14:56.676Z</time></trkpt><trkpt lat="42.0358024" lon="19.1448192"><ele>13.0</ele><time>2026-05-03T15:14:57.675Z</time></trkpt><trkpt lat="42.0357352" lon="19.1447869"><ele>12.0</ele><time>2026-05-03T15:14:58.676Z</time></trkpt><trkpt lat="42.0356749" lon="19.1447534"><ele>11.0</ele><time>2026-05-03T15:14:59.675Z</time></trkpt><trkpt lat="42.0355779" lon="19.1447114"><ele>10.0</ele><time>2026-05-03T15:15:01.676Z</time></trkpt><trkpt lat="42.0355066" lon="19.1446724"><ele>9.333333333333334</ele><time>2026-05-03T15:15:04.676Z</time></trkpt><trkpt lat="42.0354914" lon="19.1445891"><ele>8.666666666666668</ele><time>2026-05-03T15:15:06.676Z</time></trkpt><trkpt lat="42.035499" lon="19.1444601"><ele>8.0</ele><time>2026-05-03T15:15:08.676Z</time></trkpt><trkpt lat="42.0355054" lon="19.1443662"><ele>7.333333333333334</ele><time>2026-05-03T15:15:09.676Z</time></trkpt><trkpt lat="42.0355091" lon="19.1442353"><ele>6.666666666666667</ele><time>2026-05-03T15:15:11.675Z</time></trkpt><trkpt lat="42.0355129" lon="19.144127"><ele>6.0</ele><time>2026-05-03T15:15:13.676Z</time></trkpt><trkpt lat="42.0355008" lon="19.1440059"><ele>5.666666666666667</ele><time>2026-05-03T15:15:15.676Z</time></trkpt><trkpt lat="42.035486" lon="19.1438612"><ele>5.333333333333333</ele><time>2026-05-03T15:15:17.675Z</time></trkpt><trkpt lat="42.0354521" lon="19.1437122"><ele>5.0</ele><time>2026-05-03T15:15:19.676Z</time></trkpt><trkpt lat="42.0354226" lon="19.1436288"><ele>4.666666666666666</ele><time>2026-05-03T15:15:20.675Z</time></trkpt><trkpt lat="42.0353872" lon="19.1435428"><ele>4.333333333333333</ele><time>2026-05-03T15:15:21.676Z</time></trkpt><trkpt lat="42.0353592" lon="19.1434539"><ele>4.0</ele><time>2026-05-03T15:15:22.676Z</time></trkpt><trkpt lat="42.0353344" lon="19.1433677"><ele>3.9999999999999996</ele><time>2026-05-03T15:15:23.675Z</time></trkpt><trkpt lat="42.0352775" lon="19.1432283"><ele>4.0</ele><time>2026-05-03T15:15:25.675Z</time></trkpt><trkpt lat="42.0352303" lon="19.1431327"><ele>4.0</ele><time>2026-05-03T15:15:27.675Z</time></trkpt><trkpt lat="42.0351707" lon="19.1430636"><ele>4.0</ele><time>2026-05-03T15:15:29.675Z</time></trkpt><trkpt lat="42.0350995" lon="19.1429985"><ele>3.9999999999999996</ele><time>2026-05-03T15:15:31.676Z</time></trkpt><trkpt lat="42.0350393" lon="19.142925"><ele>4.0</ele><time>2026-05-03T15:15:33.676Z</time></trkpt><trkpt lat="42.0349761" lon="19.1428758"><ele>3.4999999999999996</ele><time>2026-05-03T15:15:35.676Z</time></trkpt><trkpt lat="42.0348901" lon="19.1428634"><ele>3.0</ele><time>2026-05-03T15:15:37.675Z</time></trkpt><trkpt lat="42.0348081" lon="19.1428788"><ele>2.5</ele><time>2026-05-03T15:15:39.676Z</time></trkpt><trkpt lat="42.0347253" lon="19.1429153"><ele>2.0</ele><time>2026-05-03T15:15:41.676Z</time></trkpt><trkpt lat="42.0346317" lon="19.1429436"><ele>1.5</ele><time>2026-05-03T15:15:43.676Z</time></trkpt><trkpt lat="42.0345461" lon="19.1429831"><ele>1.0</ele><time>2026-05-03T15:15:45.675Z</time></trkpt><trkpt lat="42.0344551" lon="19.1430342"><ele>1.0</ele><time>2026-05-03T15:15:47.675Z</time></trkpt><trkpt lat="42.0343817" lon="19.1430724"><ele>1.0</ele><time>2026-05-03T15:15:49.676Z</time></trkpt><trkpt lat="42.0342896" lon="19.1431089"><ele>1.0</ele><time>2026-05-03T15:15:51.676Z</time></trkpt><trkpt lat="42.034199" lon="19.1431522"><ele>1.0</ele><time>2026-05-03T15:15:53.675Z</time></trkpt><trkpt lat="42.0341092" lon="19.1431893"><ele>1.0</ele><time>2026-05-03T15:15:55.675Z</time></trkpt><trkpt lat="42.0340276" lon="19.1432224"><ele>0.9999999999999999</ele><time>2026-05-03T15:15:57.675Z</time></trkpt><trkpt lat="42.0339532" lon="19.1432476"><ele>1.0</ele><time>2026-05-03T15:15:59.675Z</time></trkpt><trkpt lat="42.0338729" lon="19.1432511"><ele>1.0</ele><time>2026-05-03T15:16:01.676Z</time></trkpt><trkpt lat="42.0337937" lon="19.1432309"><ele>1.0</ele><time>2026-05-03T15:16:03.676Z</time></trkpt><trkpt lat="42.0337211" lon="19.1431985"><ele>0.9999999999999999</ele><time>2026-05-03T15:16:05.675Z</time></trkpt><trkpt lat="42.0336544" lon="19.1431725"><ele>1.0</ele><time>2026-05-03T15:16:07.675Z</time></trkpt><trkpt lat="42.0335922" lon="19.1431237"><ele>0.9999999999999999</ele><time>2026-05-03T15:16:09.676Z</time></trkpt><trkpt lat="42.0335201" lon="19.1430823"><ele>1.0</ele><time>2026-05-03T15:16:11.676Z</time></trkpt><trkpt lat="42.0334247" lon="19.1430564"><ele>1.0</ele><time>2026-05-03T15:16:13.675Z</time></trkpt><trkpt lat="42.0333487" lon="19.1430472"><ele>1.0</ele><time>2026-05-03T15:16:15.675Z</time></trkpt><trkpt lat="42.0332841" lon="19.1430728"><ele>0.9999999999999999</ele><time>2026-05-03T15:16:32.676Z</time></trkpt><trkpt lat="42.033234" lon="19.1432132"><ele>1.0</ele><time>2026-05-03T15:16:35.675Z</time></trkpt><trkpt lat="42.0331916" lon="19.1432792"><ele>3.166666666666667</ele><time>2026-05-03T15:16:36.676Z</time></trkpt><trkpt lat="42.0331352" lon="19.1433327"><ele>5.333333333333334</ele><time>2026-05-03T15:16:37.676Z</time></trkpt><trkpt lat="42.0330869" lon="19.1434033"><ele>7.5</ele><time>2026-05-03T15:16:38.675Z</time></trkpt><trkpt lat="42.0330159" lon="19.1435151"><ele>9.666666666666668</ele><time>2026-05-03T15:16:40.675Z</time></trkpt><trkpt lat="42.0330149" lon="19.1436209"><ele>11.833333333333334</ele><time>2026-05-03T15:16:45.676Z</time></trkpt><trkpt lat="42.0330592" lon="19.1436822"><ele>14.0</ele><time>2026-05-03T15:16:47.676Z</time></trkpt><trkpt lat="42.0330946" lon="19.1437558"><ele>14.0</ele><time>2026-05-03T15:16:51.674Z</time></trkpt><trkpt lat="42.0331026" lon="19.1436665"><ele>14.0</ele><time>2026-05-03T15:19:39.674Z</time></trkpt><trkpt lat="42.03305" lon="19.1436145"><ele>14.0</ele><time>2026-05-03T15:19:54.675Z</time></trkpt><trkpt lat="42.0330061" lon="19.1436819"><ele>14.0</ele><time>2026-05-03T15:20:02.675Z</time></trkpt><trkpt lat="42.0329363" lon="19.1437075"><ele>14.0</ele><time>2026-05-03T15:20:20.675Z</time></trkpt><trkpt lat="42.0330007" lon="19.1436289"><ele>14.0</ele><time>2026-05-03T15:23:48.674Z</time></trkpt><trkpt lat="42.0329721" lon="19.1437162"><ele>14.0</ele><time>2026-05-03T15:24:46.675Z</time></trkpt><trkpt lat="42.0330272" lon="19.1436589"><ele>14.0</ele><time>2026-05-03T15:26:49.675Z</time></trkpt></trkseg><trkseg><trkpt lat="42.0330461" lon="19.1435663"><ele>14.000000000000002</ele><time>2026-05-04T06:37:14.678Z</time></trkpt><trkpt lat="42.0329814" lon="19.143557"><ele>14.0</ele><time>2026-05-04T06:37:17.678Z</time></trkpt><trkpt lat="42.0329021" lon="19.1436053"><ele>14.0</ele><time>2026-05-04T06:37:19.678Z</time></trkpt><trkpt lat="42.0328248" lon="19.1437256"><ele>14.0</ele><time>2026-05-04T06:37:21.678Z</time></trkpt><trkpt lat="42.0327458" lon="19.1437712"><ele>14.000000000000002</ele><time>2026-05-04T06:37:22.677Z</time></trkpt><trkpt lat="42.032685" lon="19.1438427"><ele>14.0</ele><time>2026-05-04T06:37:23.678Z</time></trkpt><trkpt lat="42.0326074" lon="19.1439159"><ele>14.0</ele><time>2026-05-04T06:37:24.678Z</time></trkpt><trkpt lat="42.0325406" lon="19.1439982"><ele>13.999999999999998</ele><time>2026-05-04T06:37:25.678Z</time></trkpt><trkpt lat="42.0324743" lon="19.1440865"><ele>13.999999999999998</ele><time>2026-05-04T06:37:26.678Z</time></trkpt><trkpt lat="42.032405" lon="19.1441778"><ele>14.0</ele><time>2026-05-04T06:37:27.678Z</time></trkpt><trkpt lat="42.0323397" lon="19.1442702"><ele>14.0</ele><time>2026-05-04T06:37:28.677Z</time></trkpt><trkpt lat="42.0322809" lon="19.1443559"><ele>16.4</ele><time>2026-05-04T06:37:29.678Z</time></trkpt><trkpt lat="42.0322222" lon="19.1444496"><ele>18.799999999999997</ele><time>2026-05-04T06:37:30.677Z</time></trkpt><trkpt lat="42.0321707" lon="19.1445551"><ele>21.200000000000003</ele><time>2026-05-04T06:37:31.678Z</time></trkpt><trkpt lat="42.0321327" lon="19.1446694"><ele>23.6</ele><time>2026-05-04T06:37:32.677Z</time></trkpt><trkpt lat="42.0321057" lon="19.1447943"><ele>26.0</ele><time>2026-05-04T06:37:33.677Z</time></trkpt><trkpt lat="42.0320799" lon="19.1449237"><ele>26.833333333333332</ele><time>2026-05-04T06:37:34.677Z</time></trkpt><trkpt lat="42.0320567" lon="19.1450305"><ele>27.666666666666664</ele><time>2026-05-04T06:37:35.677Z</time></trkpt><trkpt lat="42.0320317" lon="19.1451323"><ele>28.5</ele><time>2026-05-04T06:37:36.678Z</time></trkpt><trkpt lat="42.0320115" lon="19.145235"><ele>29.333333333333336</ele><time>2026-05-04T06:37:37.677Z</time></trkpt><trkpt lat="42.0319861" lon="19.1453444"><ele>30.166666666666668</ele><time>2026-05-04T06:37:38.677Z</time></trkpt><trkpt lat="42.031957" lon="19.1454659"><ele>31.0</ele><time>2026-05-04T06:37:39.678Z</time></trkpt><trkpt lat="42.0319293" lon="19.1455839"><ele>31.0</ele><time>2026-05-04T06:37:40.677Z</time></trkpt><trkpt lat="42.0319034" lon="19.1457011"><ele>31.0</ele><time>2026-05-04T06:37:41.678Z</time></trkpt><trkpt lat="42.0318677" lon="19.1458227"><ele>31.0</ele><time>2026-05-04T06:37:42.678Z</time></trkpt><trkpt lat="42.031816" lon="19.1459259"><ele>31.0</ele><time>2026-05-04T06:37:43.678Z</time></trkpt><trkpt lat="42.0317817" lon="19.1460412"><ele>31.0</ele><time>2026-05-04T06:37:44.677Z</time></trkpt><trkpt lat="42.0317466" lon="19.146145"><ele>31.200000000000003</ele><time>2026-05-04T06:37:45.677Z</time></trkpt><trkpt lat="42.0316792" lon="19.1462499"><ele>31.400000000000002</ele><time>2026-05-04T06:37:46.677Z</time></trkpt><trkpt lat="42.0315974" lon="19.1463256"><ele>31.6</ele><time>2026-05-04T06:37:47.678Z</time></trkpt><trkpt lat="42.0315332" lon="19.1464194"><ele>31.8</ele><time>2026-05-04T06:37:48.678Z</time></trkpt><trkpt lat="42.0314726" lon="19.14652"><ele>32.0</ele><time>2026-05-04T06:37:49.677Z</time></trkpt><trkpt lat="42.0314211" lon="19.1466242"><ele>34.0</ele><time>2026-05-04T06:37:50.677Z</time></trkpt><trkpt lat="42.031376" lon="19.14674"><ele>36.0</ele><time>2026-05-04T06:37:51.678Z</time></trkpt><trkpt lat="42.0313419" lon="19.1468613"><ele>38.0</ele><time>2026-05-04T06:37:52.678Z</time></trkpt><trkpt lat="42.0313017" lon="19.1469735"><ele>40.0</ele><time>2026-05-04T06:37:53.678Z</time></trkpt><trkpt lat="42.0312792" lon="19.1470873"><ele>42.0</ele><time>2026-05-04T06:37:54.677Z</time></trkpt><trkpt lat="42.0312598" lon="19.1472019"><ele>42.0</ele><time>2026-05-04T06:37:55.677Z</time></trkpt><trkpt lat="42.0312342" lon="19.1473238"><ele>42.0</ele><time>2026-05-04T06:37:56.677Z</time></trkpt><trkpt lat="42.0312055" lon="19.1474282"><ele>42.0</ele><time>2026-05-04T06:37:57.677Z</time></trkpt><trkpt lat="42.0311732" lon="19.1475329"><ele>42.0</ele><time>2026-05-04T06:37:58.678Z</time></trkpt><trkpt lat="42.0311531" lon="19.1476449"><ele>42.0</ele><time>2026-05-04T06:37:59.678Z</time></trkpt><trkpt lat="42.0311475" lon="19.1477666"><ele>42.0</ele><time>2026-05-04T06:38:00.678Z</time></trkpt><trkpt lat="42.0311345" lon="19.1478762"><ele>42.5</ele><time>2026-05-04T06:38:01.677Z</time></trkpt><trkpt lat="42.0311193" lon="19.1479754"><ele>43.0</ele><time>2026-05-04T06:38:02.678Z</time></trkpt><trkpt lat="42.0311081" lon="19.1480601"><ele>43.5</ele><time>2026-05-04T06:38:03.678Z</time></trkpt><trkpt lat="42.0310804" lon="19.1481739"><ele>44.0</ele><time>2026-05-04T06:38:05.677Z</time></trkpt><trkpt lat="42.0310285" lon="19.1482558"><ele>44.5</ele><time>2026-05-04T06:38:14.678Z</time></trkpt><trkpt lat="42.0310619" lon="19.1483704"><ele>45.0</ele><time>2026-05-04T06:38:16.678Z</time></trkpt><trkpt lat="42.031112" lon="19.1484323"><ele>45.8</ele><time>2026-05-04T06:38:17.678Z</time></trkpt><trkpt lat="42.0312218" lon="19.1485396"><ele>46.6</ele><time>2026-05-04T06:38:19.678Z</time></trkpt><trkpt lat="42.0312865" lon="19.1485997"><ele>47.400000000000006</ele><time>2026-05-04T06:38:20.677Z</time></trkpt><trkpt lat="42.03136" lon="19.1486674"><ele>48.2</ele><time>2026-05-04T06:38:21.677Z</time></trkpt><trkpt lat="42.031436" lon="19.1487386"><ele>49.0</ele><time>2026-05-04T06:38:22.677Z</time></trkpt><trkpt lat="42.0315196" lon="19.1488105"><ele>49.0</ele><time>2026-05-04T06:38:23.677Z</time></trkpt><trkpt lat="42.0316031" lon="19.1488887"><ele>49.0</ele><time>2026-05-04T06:38:24.678Z</time></trkpt><trkpt lat="42.0316853" lon="19.1489733"><ele>49.0</ele><time>2026-05-04T06:38:25.678Z</time></trkpt><trkpt lat="42.031768" lon="19.1490665"><ele>49.0</ele><time>2026-05-04T06:38:26.678Z</time></trkpt><trkpt lat="42.0318522" lon="19.1491611"><ele>49.0</ele><time>2026-05-04T06:38:27.678Z</time></trkpt><trkpt lat="42.0319258" lon="19.1492655"><ele>48.6</ele><time>2026-05-04T06:38:28.677Z</time></trkpt><trkpt lat="42.0319945" lon="19.1493768"><ele>48.2</ele><time>2026-05-04T06:38:29.677Z</time></trkpt><trkpt lat="42.032056" lon="19.1494896"><ele>47.800000000000004</ele><time>2026-05-04T06:38:30.677Z</time></trkpt><trkpt lat="42.0321212" lon="19.1496053"><ele>47.400000000000006</ele><time>2026-05-04T06:38:31.677Z</time></trkpt><trkpt lat="42.0321866" lon="19.1497283"><ele>47.0</ele><time>2026-05-04T06:38:32.678Z</time></trkpt><trkpt lat="42.0322504" lon="19.14985"><ele>47.6</ele><time>2026-05-04T06:38:33.677Z</time></trkpt><trkpt lat="42.0323171" lon="19.1499672"><ele>48.2</ele><time>2026-05-04T06:38:34.678Z</time></trkpt><trkpt lat="42.032385" lon="19.1500854"><ele>48.8</ele><time>2026-05-04T06:38:35.677Z</time></trkpt><trkpt lat="42.0324598" lon="19.1501985"><ele>49.4</ele><time>2026-05-04T06:38:36.678Z</time></trkpt><trkpt lat="42.03254" lon="19.1503079"><ele>50.0</ele><time>2026-05-04T06:38:37.678Z</time></trkpt><trkpt lat="42.0326253" lon="19.150412"><ele>48.0</ele><time>2026-05-04T06:38:38.677Z</time></trkpt><trkpt lat="42.0327179" lon="19.1505082"><ele>46.0</ele><time>2026-05-04T06:38:39.678Z</time></trkpt><trkpt lat="42.0328187" lon="19.1505918"><ele>44.0</ele><time>2026-05-04T06:38:40.678Z</time></trkpt><trkpt lat="42.032927" lon="19.1506608"><ele>42.0</ele><time>2026-05-04T06:38:41.678Z</time></trkpt><trkpt lat="42.0330421" lon="19.1507137"><ele>42.0</ele><time>2026-05-04T06:38:42.678Z</time></trkpt><trkpt lat="42.0331632" lon="19.1507504"><ele>42.0</ele><time>2026-05-04T06:38:43.678Z</time></trkpt><trkpt lat="42.0332858" lon="19.1507731"><ele>42.0</ele><time>2026-05-04T06:38:44.678Z</time></trkpt><trkpt lat="42.0334091" lon="19.150784"><ele>42.0</ele><time>2026-05-04T06:38:45.678Z</time></trkpt><trkpt lat="42.0335312" lon="19.1507751"><ele>39.5</ele><time>2026-05-04T06:38:46.678Z</time></trkpt><trkpt lat="42.0336528" lon="19.1507479"><ele>37.0</ele><time>2026-05-04T06:38:47.678Z</time></trkpt><trkpt lat="42.0337697" lon="19.1507025"><ele>34.5</ele><time>2026-05-04T06:38:48.678Z</time></trkpt><trkpt lat="42.033884" lon="19.1506407"><ele>32.0</ele><time>2026-05-04T06:38:49.677Z</time></trkpt><trkpt lat="42.0339983" lon="19.1505511"><ele>31.75</ele><time>2026-05-04T06:38:50.678Z</time></trkpt><trkpt lat="42.0341088" lon="19.1504486"><ele>31.5</ele><time>2026-05-04T06:38:51.677Z</time></trkpt><trkpt lat="42.0342121" lon="19.1503309"><ele>31.25</ele><time>2026-05-04T06:38:52.678Z</time></trkpt><trkpt lat="42.0343095" lon="19.1501983"><ele>31.0</ele><time>2026-05-04T06:38:53.677Z</time></trkpt><trkpt lat="42.0343962" lon="19.1500524"><ele>31.5</ele><time>2026-05-04T06:38:54.677Z</time></trkpt><trkpt lat="42.0344758" lon="19.1498982"><ele>32.0</ele><time>2026-05-04T06:38:55.677Z</time></trkpt><trkpt lat="42.0345615" lon="19.1497346"><ele>32.5</ele><time>2026-05-04T06:38:56.677Z</time></trkpt><trkpt lat="42.0346454" lon="19.1495769"><ele>33.0</ele><time>2026-05-04T06:38:57.678Z</time></trkpt><trkpt lat="42.034723" lon="19.1494199"><ele>32.25</ele><time>2026-05-04T06:38:58.677Z</time></trkpt><trkpt lat="42.034801" lon="19.1492638"><ele>31.5</ele><time>2026-05-04T06:38:59.677Z</time></trkpt><trkpt lat="42.0348816" lon="19.1491209"><ele>30.75</ele><time>2026-05-04T06:39:00.678Z</time></trkpt><trkpt lat="42.0349601" lon="19.1489821"><ele>30.0</ele><time>2026-05-04T06:39:01.677Z</time></trkpt><trkpt lat="42.0350411" lon="19.1488461"><ele>30.0</ele><time>2026-05-04T06:39:02.678Z</time></trkpt><trkpt lat="42.0351311" lon="19.1487184"><ele>30.0</ele><time>2026-05-04T06:39:03.678Z</time></trkpt><trkpt lat="42.0352295" lon="19.148594"><ele>30.0</ele><time>2026-05-04T06:39:04.678Z</time></trkpt><trkpt lat="42.0353337" lon="19.1484815"><ele>30.0</ele><time>2026-05-04T06:39:05.678Z</time></trkpt><trkpt lat="42.035442" lon="19.1483732"><ele>30.0</ele><time>2026-05-04T06:39:06.677Z</time></trkpt><trkpt lat="42.0355608" lon="19.1482741"><ele>30.0</ele><time>2026-05-04T06:39:07.677Z</time></trkpt><trkpt lat="42.0356752" lon="19.1481774"><ele>30.0</ele><time>2026-05-04T06:39:08.677Z</time></trkpt><trkpt lat="42.0357889" lon="19.1480776"><ele>30.0</ele><time>2026-05-04T06:39:09.678Z</time></trkpt><trkpt lat="42.0359056" lon="19.1479755"><ele>30.25</ele><time>2026-05-04T06:39:10.677Z</time></trkpt><trkpt lat="42.0360169" lon="19.1478723"><ele>30.5</ele><time>2026-05-04T06:39:11.678Z</time></trkpt><trkpt lat="42.0361204" lon="19.1477577"><ele>30.75</ele><time>2026-05-04T06:39:12.678Z</time></trkpt><trkpt lat="42.0362143" lon="19.1476289"><ele>31.0</ele><time>2026-05-04T06:39:13.677Z</time></trkpt><trkpt lat="42.0362975" lon="19.1474893"><ele>29.5</ele><time>2026-05-04T06:39:14.678Z</time></trkpt><trkpt lat="42.0363748" lon="19.147342"><ele>28.0</ele><time>2026-05-04T06:39:15.678Z</time></trkpt><trkpt lat="42.0364498" lon="19.1471928"><ele>26.5</ele><time>2026-05-04T06:39:16.677Z</time></trkpt><trkpt lat="42.0365216" lon="19.147044"><ele>25.0</ele><time>2026-05-04T06:39:17.677Z</time></trkpt><trkpt lat="42.0365974" lon="19.1469012"><ele>25.5</ele><time>2026-05-04T06:39:18.678Z</time></trkpt><trkpt lat="42.0366793" lon="19.146761"><ele>26.0</ele><time>2026-05-04T06:39:19.678Z</time></trkpt><trkpt lat="42.0367649" lon="19.1466279"><ele>26.5</ele><time>2026-05-04T06:39:20.678Z</time></trkpt><trkpt lat="42.0368566" lon="19.1465063"><ele>27.0</ele><time>2026-05-04T06:39:21.678Z</time></trkpt><trkpt lat="42.0369567" lon="19.1463894"><ele>27.0</ele><time>2026-05-04T06:39:22.677Z</time></trkpt><trkpt lat="42.0370599" lon="19.1462986"><ele>27.0</ele><time>2026-05-04T06:39:23.677Z</time></trkpt><trkpt lat="42.0371683" lon="19.1462137"><ele>27.0</ele><time>2026-05-04T06:39:24.678Z</time></trkpt><trkpt lat="42.037285" lon="19.1461409"><ele>27.0</ele><time>2026-05-04T06:39:25.678Z</time></trkpt><trkpt lat="42.0374027" lon="19.1460721"><ele>28.25</ele><time>2026-05-04T06:39:26.677Z</time></trkpt><trkpt lat="42.0375208" lon="19.1460113"><ele>29.5</ele><time>2026-05-04T06:39:27.677Z</time></trkpt><trkpt lat="42.0376399" lon="19.1459533"><ele>30.75</ele><time>2026-05-04T06:39:28.678Z</time></trkpt><trkpt lat="42.0377587" lon="19.145897"><ele>32.0</ele><time>2026-05-04T06:39:29.677Z</time></trkpt><trkpt lat="42.0378802" lon="19.1458438"><ele>32.0</ele><time>2026-05-04T06:39:30.678Z</time></trkpt><trkpt lat="42.038004" lon="19.1457796"><ele>32.0</ele><time>2026-05-04T06:39:31.677Z</time></trkpt><trkpt lat="42.0381202" lon="19.1457112"><ele>32.0</ele><time>2026-05-04T06:39:32.677Z</time></trkpt><trkpt lat="42.0382368" lon="19.1456315"><ele>32.0</ele><time>2026-05-04T06:39:33.677Z</time></trkpt><trkpt lat="42.0383462" lon="19.1455374"><ele>31.25</ele><time>2026-05-04T06:39:34.677Z</time></trkpt><trkpt lat="42.0384509" lon="19.1454325"><ele>30.5</ele><time>2026-05-04T06:39:35.678Z</time></trkpt><trkpt lat="42.0385499" lon="19.145323"><ele>29.75</ele><time>2026-05-04T06:39:36.677Z</time></trkpt><trkpt lat="42.0386486" lon="19.1452106"><ele>29.0</ele><time>2026-05-04T06:39:37.678Z</time></trkpt><trkpt lat="42.0387472" lon="19.1450961"><ele>29.0</ele><time>2026-05-04T06:39:38.677Z</time></trkpt><trkpt lat="42.0388491" lon="19.1449867"><ele>29.0</ele><time>2026-05-04T06:39:39.678Z</time></trkpt><trkpt lat="42.0389523" lon="19.1448905"><ele>29.0</ele><time>2026-05-04T06:39:40.678Z</time></trkpt><trkpt lat="42.0390633" lon="19.1447936"><ele>29.0</ele><time>2026-05-04T06:39:41.678Z</time></trkpt><trkpt lat="42.0391747" lon="19.144705"><ele>28.25</ele><time>2026-05-04T06:39:42.678Z</time></trkpt><trkpt lat="42.0392885" lon="19.144629"><ele>27.5</ele><time>2026-05-04T06:39:43.677Z</time></trkpt><trkpt lat="42.039406" lon="19.1445601"><ele>26.75</ele><time>2026-05-04T06:39:44.677Z</time></trkpt><trkpt lat="42.0395263" lon="19.144512"><ele>26.0</ele><time>2026-05-04T06:39:45.677Z</time></trkpt><trkpt lat="42.0396497" lon="19.1444707"><ele>26.0</ele><time>2026-05-04T06:39:46.678Z</time></trkpt><trkpt lat="42.0397702" lon="19.1444529"><ele>26.0</ele><time>2026-05-04T06:39:47.678Z</time></trkpt><trkpt lat="42.0398946" lon="19.1444371"><ele>26.0</ele><time>2026-05-04T06:39:48.678Z</time></trkpt><trkpt lat="42.0400284" lon="19.1444361"><ele>26.0</ele><time>2026-05-04T06:39:49.677Z</time></trkpt><trkpt lat="42.0401573" lon="19.1444364"><ele>25.75</ele><time>2026-05-04T06:39:50.677Z</time></trkpt><trkpt lat="42.040287" lon="19.1444389"><ele>25.5</ele><time>2026-05-04T06:39:51.677Z</time></trkpt><trkpt lat="42.0404139" lon="19.1444425"><ele>25.25</ele><time>2026-05-04T06:39:52.677Z</time></trkpt><trkpt lat="42.0405385" lon="19.1444435"><ele>25.0</ele><time>2026-05-04T06:39:53.677Z</time></trkpt><trkpt lat="42.0406638" lon="19.144442"><ele>25.0</ele><time>2026-05-04T06:39:54.677Z</time></trkpt><trkpt lat="42.0407962" lon="19.1444329"><ele>25.0</ele><time>2026-05-04T06:39:55.677Z</time></trkpt><trkpt lat="42.0409369" lon="19.1444177"><ele>25.0</ele><time>2026-05-04T06:39:56.677Z</time></trkpt><trkpt lat="42.0410802" lon="19.1443983"><ele>25.0</ele><time>2026-05-04T06:39:57.677Z</time></trkpt><trkpt lat="42.041224" lon="19.144375"><ele>27.0</ele><time>2026-05-04T06:39:58.678Z</time></trkpt><trkpt lat="42.0413792" lon="19.1443371"><ele>29.0</ele><time>2026-05-04T06:39:59.678Z</time></trkpt><trkpt lat="42.0415249" lon="19.1442946"><ele>31.0</ele><time>2026-05-04T06:40:00.678Z</time></trkpt><trkpt lat="42.0416681" lon="19.1442462"><ele>31.75</ele><time>2026-05-04T06:40:01.678Z</time></trkpt><trkpt lat="42.041807" lon="19.1441867"><ele>32.5</ele><time>2026-05-04T06:40:02.677Z</time></trkpt><trkpt lat="42.0419494" lon="19.1441082"><ele>33.25</ele><time>2026-05-04T06:40:03.678Z</time></trkpt><trkpt lat="42.0420829" lon="19.1440441"><ele>34.0</ele><time>2026-05-04T06:40:04.677Z</time></trkpt><trkpt lat="42.0422232" lon="19.1439743"><ele>32.0</ele><time>2026-05-04T06:40:05.677Z</time></trkpt><trkpt lat="42.0423516" lon="19.1439099"><ele>30.0</ele><time>2026-05-04T06:40:06.678Z</time></trkpt><trkpt lat="42.0424886" lon="19.1438476"><ele>28.0</ele><time>2026-05-04T06:40:07.677Z</time></trkpt><trkpt lat="42.0426193" lon="19.1437905"><ele>26.0</ele><time>2026-05-04T06:40:08.678Z</time></trkpt><trkpt lat="42.0427461" lon="19.1437463"><ele>26.0</ele><time>2026-05-04T06:40:09.677Z</time></trkpt><trkpt lat="42.0428724" lon="19.1437029"><ele>26.0</ele><time>2026-05-04T06:40:10.678Z</time></trkpt><trkpt lat="42.0429983" lon="19.1436609"><ele>26.0</ele><time>2026-05-04T06:40:11.677Z</time></trkpt><trkpt lat="42.0431329" lon="19.1436141"><ele>26.0</ele><time>2026-05-04T06:40:12.678Z</time></trkpt><trkpt lat="42.0432659" lon="19.1435662"><ele>28.5</ele><time>2026-05-04T06:40:13.677Z</time></trkpt><trkpt lat="42.0434021" lon="19.1435095"><ele>31.0</ele><time>2026-05-04T06:40:14.678Z</time></trkpt><trkpt lat="42.0435412" lon="19.1434416"><ele>33.5</ele><time>2026-05-04T06:40:15.677Z</time></trkpt><trkpt lat="42.0436833" lon="19.143382"><ele>36.0</ele><time>2026-05-04T06:40:16.678Z</time></trkpt><trkpt lat="42.0438217" lon="19.1433122"><ele>36.0</ele><time>2026-05-04T06:40:17.678Z</time></trkpt><trkpt lat="42.043955" lon="19.143224"><ele>36.0</ele><time>2026-05-04T06:40:18.678Z</time></trkpt><trkpt lat="42.0440909" lon="19.1431341"><ele>36.0</ele><time>2026-05-04T06:40:19.678Z</time></trkpt><trkpt lat="42.0442231" lon="19.1430365"><ele>33.666666666666664</ele><time>2026-05-04T06:40:20.677Z</time></trkpt><trkpt lat="42.044355" lon="19.1429319"><ele>31.333333333333332</ele><time>2026-05-04T06:40:21.678Z</time></trkpt><trkpt lat="42.0444807" lon="19.1428225"><ele>29.0</ele><time>2026-05-04T06:40:22.678Z</time></trkpt><trkpt lat="42.0446097" lon="19.1427023"><ele>29.0</ele><time>2026-05-04T06:40:23.678Z</time></trkpt><trkpt lat="42.0447317" lon="19.1425792"><ele>29.0</ele><time>2026-05-04T06:40:24.677Z</time></trkpt><trkpt lat="42.0448496" lon="19.142452"><ele>29.0</ele><time>2026-05-04T06:40:25.678Z</time></trkpt><trkpt lat="42.0449626" lon="19.1423144"><ele>30.0</ele><time>2026-05-04T06:40:26.678Z</time></trkpt><trkpt lat="42.0450705" lon="19.1421724"><ele>31.0</ele><time>2026-05-04T06:40:27.678Z</time></trkpt><trkpt lat="42.0451726" lon="19.1420204"><ele>32.0</ele><time>2026-05-04T06:40:28.677Z</time></trkpt><trkpt lat="42.0452701" lon="19.1418407"><ele>32.0</ele><time>2026-05-04T06:40:29.678Z</time></trkpt><trkpt lat="42.045365" lon="19.1416679"><ele>32.0</ele><time>2026-05-04T06:40:30.678Z</time></trkpt><trkpt lat="42.0454501" lon="19.1414955"><ele>32.0</ele><time>2026-05-04T06:40:31.677Z</time></trkpt><trkpt lat="42.0455301" lon="19.1413122"><ele>28.0</ele><time>2026-05-04T06:40:32.678Z</time></trkpt><trkpt lat="42.0456113" lon="19.1411377"><ele>24.0</ele><time>2026-05-04T06:40:33.678Z</time></trkpt><trkpt lat="42.0456982" lon="19.1409685"><ele>20.0</ele><time>2026-05-04T06:40:34.677Z</time></trkpt><trkpt lat="42.0457886" lon="19.1408049"><ele>22.666666666666668</ele><time>2026-05-04T06:40:35.677Z</time></trkpt><trkpt lat="42.0458863" lon="19.1406493"><ele>25.333333333333336</ele><time>2026-05-04T06:40:36.677Z</time></trkpt><trkpt lat="42.0459812" lon="19.1404996"><ele>28.0</ele><time>2026-05-04T06:40:37.677Z</time></trkpt><trkpt lat="42.0460868" lon="19.1403448"><ele>28.0</ele><time>2026-05-04T06:40:38.678Z</time></trkpt><trkpt lat="42.0461983" lon="19.1401919"><ele>28.0</ele><time>2026-05-04T06:40:39.677Z</time></trkpt><trkpt lat="42.0463182" lon="19.1400474"><ele>28.0</ele><time>2026-05-04T06:40:40.678Z</time></trkpt><trkpt lat="42.0464473" lon="19.139909"><ele>30.0</ele><time>2026-05-04T06:40:41.677Z</time></trkpt><trkpt lat="42.0465808" lon="19.1397704"><ele>32.0</ele><time>2026-05-04T06:40:42.678Z</time></trkpt><trkpt lat="42.0467157" lon="19.1396408"><ele>34.0</ele><time>2026-05-04T06:40:43.677Z</time></trkpt><trkpt lat="42.046854" lon="19.1395178"><ele>34.0</ele><time>2026-05-04T06:40:44.678Z</time></trkpt><trkpt lat="42.046998" lon="19.1394038"><ele>34.0</ele><time>2026-05-04T06:40:45.677Z</time></trkpt><trkpt lat="42.0471406" lon="19.1392797"><ele>34.0</ele><time>2026-05-04T06:40:46.677Z</time></trkpt><trkpt lat="42.0472705" lon="19.1391434"><ele>32.0</ele><time>2026-05-04T06:40:47.677Z</time></trkpt><trkpt lat="42.0473889" lon="19.1389975"><ele>30.0</ele><time>2026-05-04T06:40:48.677Z</time></trkpt><trkpt lat="42.0474942" lon="19.138836"><ele>28.0</ele><time>2026-05-04T06:40:49.678Z</time></trkpt><trkpt lat="42.047592" lon="19.1386608"><ele>28.0</ele><time>2026-05-04T06:40:50.677Z</time></trkpt><trkpt lat="42.0476793" lon="19.1384706"><ele>28.0</ele><time>2026-05-04T06:40:51.677Z</time></trkpt><trkpt lat="42.0477551" lon="19.1382639"><ele>28.0</ele><time>2026-05-04T06:40:52.677Z</time></trkpt><trkpt lat="42.0478156" lon="19.1380488"><ele>28.666666666666668</ele><time>2026-05-04T06:40:53.677Z</time></trkpt><trkpt lat="42.04786" lon="19.1378191"><ele>29.333333333333336</ele><time>2026-05-04T06:40:54.677Z</time></trkpt><trkpt lat="42.0478863" lon="19.1375932"><ele>30.0</ele><time>2026-05-04T06:40:55.677Z</time></trkpt><trkpt lat="42.0479007" lon="19.1373664"><ele>35.0</ele><time>2026-05-04T06:40:56.677Z</time></trkpt><trkpt lat="42.0478981" lon="19.137144"><ele>40.0</ele><time>2026-05-04T06:40:57.677Z</time></trkpt><trkpt lat="42.0478799" lon="19.1369266"><ele>45.0</ele><time>2026-05-04T06:40:58.678Z</time></trkpt><trkpt lat="42.0478552" lon="19.1367096"><ele>46.33333333333333</ele><time>2026-05-04T06:40:59.677Z</time></trkpt><trkpt lat="42.0478358" lon="19.1364949"><ele>47.666666666666664</ele><time>2026-05-04T06:41:00.678Z</time></trkpt><trkpt lat="42.0478146" lon="19.1362982"><ele>49.0</ele><time>2026-05-04T06:41:01.678Z</time></trkpt><trkpt lat="42.0478034" lon="19.1361005"><ele>49.0</ele><time>2026-05-04T06:41:02.678Z</time></trkpt><trkpt lat="42.0478052" lon="19.1359082"><ele>49.0</ele><time>2026-05-04T06:41:03.678Z</time></trkpt><trkpt lat="42.0479991" lon="19.1348275"><ele>53.0</ele><time>2026-05-04T06:41:08.678Z</time></trkpt><trkpt lat="42.0480841" lon="19.134628"><ele>57.0</ele><time>2026-05-04T06:41:09.677Z</time></trkpt><trkpt lat="42.0482062" lon="19.134442"><ele>61.0</ele><time>2026-05-04T06:41:10.678Z</time></trkpt><trkpt lat="42.0483279" lon="19.1342735"><ele>61.0</ele><time>2026-05-04T06:41:11.677Z</time></trkpt><trkpt lat="42.0484353" lon="19.13409"><ele>61.0</ele><time>2026-05-04T06:41:12.677Z</time></trkpt><trkpt lat="42.0485357" lon="19.1339082"><ele>61.0</ele><time>2026-05-04T06:41:13.678Z</time></trkpt><trkpt lat="42.0486479" lon="19.1337384"><ele>53.33333333333333</ele><time>2026-05-04T06:41:14.678Z</time></trkpt><trkpt lat="42.0487656" lon="19.1335778"><ele>45.666666666666664</ele><time>2026-05-04T06:41:15.678Z</time></trkpt><trkpt lat="42.0488983" lon="19.1334344"><ele>38.0</ele><time>2026-05-04T06:41:16.678Z</time></trkpt><trkpt lat="42.0490391" lon="19.133299"><ele>42.33333333333333</ele><time>2026-05-04T06:41:17.678Z</time></trkpt><trkpt lat="42.0491806" lon="19.1331791"><ele>46.666666666666664</ele><time>2026-05-04T06:41:18.678Z</time></trkpt><trkpt lat="42.0493319" lon="19.1330647"><ele>51.0</ele><time>2026-05-04T06:41:19.677Z</time></trkpt><trkpt lat="42.0494758" lon="19.1329593"><ele>51.0</ele><time>2026-05-04T06:41:20.677Z</time></trkpt><trkpt lat="42.0496149" lon="19.1328457"><ele>51.0</ele><time>2026-05-04T06:41:21.678Z</time></trkpt><trkpt lat="42.0497479" lon="19.1327193"><ele>51.0</ele><time>2026-05-04T06:41:22.678Z</time></trkpt><trkpt lat="42.0498677" lon="19.1325766"><ele>55.66666666666667</ele><time>2026-05-04T06:41:23.678Z</time></trkpt><trkpt lat="42.0499888" lon="19.1324224"><ele>60.333333333333336</ele><time>2026-05-04T06:41:24.678Z</time></trkpt><trkpt lat="42.0500911" lon="19.1322587"><ele>65.0</ele><time>2026-05-04T06:41:25.677Z</time></trkpt><trkpt lat="42.0501864" lon="19.1320822"><ele>65.0</ele><time>2026-05-04T06:41:26.677Z</time></trkpt><trkpt lat="42.0502574" lon="19.1318927"><ele>65.0</ele><time>2026-05-04T06:41:27.678Z</time></trkpt><trkpt lat="42.0503318" lon="19.131695"><ele>65.0</ele><time>2026-05-04T06:41:28.677Z</time></trkpt><trkpt lat="42.050405" lon="19.1314937"><ele>61.0</ele><time>2026-05-04T06:41:29.677Z</time></trkpt><trkpt lat="42.0504831" lon="19.1312987"><ele>57.0</ele><time>2026-05-04T06:41:30.678Z</time></trkpt><trkpt lat="42.0505445" lon="19.1310881"><ele>53.0</ele><time>2026-05-04T06:41:31.677Z</time></trkpt><trkpt lat="42.0506087" lon="19.1308847"><ele>49.333333333333336</ele><time>2026-05-04T06:41:32.677Z</time></trkpt><trkpt lat="42.0506742" lon="19.130682"><ele>45.66666666666667</ele><time>2026-05-04T06:41:33.678Z</time></trkpt><trkpt lat="42.0507401" lon="19.1304801"><ele>42.0</ele><time>2026-05-04T06:41:34.678Z</time></trkpt><trkpt lat="42.0508059" lon="19.1302778"><ele>51.66666666666667</ele><time>2026-05-04T06:41:35.677Z</time></trkpt><trkpt lat="42.0508696" lon="19.1300796"><ele>61.333333333333336</ele><time>2026-05-04T06:41:36.678Z</time></trkpt><trkpt lat="42.0509329" lon="19.1298799"><ele>71.0</ele><time>2026-05-04T06:41:37.677Z</time></trkpt><trkpt lat="42.0510033" lon="19.1296833"><ele>71.0</ele><time>2026-05-04T06:41:38.678Z</time></trkpt><trkpt lat="42.0510809" lon="19.1294911"><ele>71.0</ele><time>2026-05-04T06:41:39.678Z</time></trkpt><trkpt lat="42.0511652" lon="19.1292994"><ele>71.0</ele><time>2026-05-04T06:41:40.677Z</time></trkpt><trkpt lat="42.0512583" lon="19.1291204"><ele>63.333333333333336</ele><time>2026-05-04T06:41:41.678Z</time></trkpt><trkpt lat="42.0513655" lon="19.1289402"><ele>55.66666666666667</ele><time>2026-05-04T06:41:42.678Z</time></trkpt><trkpt lat="42.0514872" lon="19.1287728"><ele>48.0</ele><time>2026-05-04T06:41:43.678Z</time></trkpt><trkpt lat="42.0516216" lon="19.1286168"><ele>52.66666666666667</ele><time>2026-05-04T06:41:44.678Z</time></trkpt><trkpt lat="42.0517648" lon="19.1284628"><ele>57.333333333333336</ele><time>2026-05-04T06:41:45.677Z</time></trkpt><trkpt lat="42.0518955" lon="19.1283318"><ele>62.0</ele><time>2026-05-04T06:41:46.677Z</time></trkpt><trkpt lat="42.0520449" lon="19.1282013"><ele>62.0</ele><time>2026-05-04T06:41:47.677Z</time></trkpt><trkpt lat="42.0521861" lon="19.1280623"><ele>62.0</ele><time>2026-05-04T06:41:48.677Z</time></trkpt><trkpt lat="42.0523138" lon="19.127908"><ele>62.0</ele><time>2026-05-04T06:41:49.677Z</time></trkpt><trkpt lat="42.0524352" lon="19.1277353"><ele>68.33333333333334</ele><time>2026-05-04T06:41:50.677Z</time></trkpt><trkpt lat="42.0525428" lon="19.127549"><ele>74.66666666666667</ele><time>2026-05-04T06:41:51.677Z</time></trkpt><trkpt lat="42.0526389" lon="19.1273497"><ele>81.0</ele><time>2026-05-04T06:41:52.677Z</time></trkpt><trkpt lat="42.0527293" lon="19.1271616"><ele>81.0</ele><time>2026-05-04T06:41:53.677Z</time></trkpt><trkpt lat="42.0528148" lon="19.1269755"><ele>81.0</ele><time>2026-05-04T06:41:54.677Z</time></trkpt><trkpt lat="42.0529026" lon="19.1267908"><ele>81.0</ele><time>2026-05-04T06:41:55.678Z</time></trkpt><trkpt lat="42.0529899" lon="19.1266117"><ele>76.33333333333333</ele><time>2026-05-04T06:41:56.678Z</time></trkpt><trkpt lat="42.0530809" lon="19.1264367"><ele>71.66666666666666</ele><time>2026-05-04T06:41:57.678Z</time></trkpt><trkpt lat="42.053182" lon="19.126268"><ele>67.0</ele><time>2026-05-04T06:41:58.677Z</time></trkpt><trkpt lat="42.0532902" lon="19.1261063"><ele>71.0</ele><time>2026-05-04T06:41:59.677Z</time></trkpt><trkpt lat="42.0534179" lon="19.1259502"><ele>75.0</ele><time>2026-05-04T06:42:00.678Z</time></trkpt><trkpt lat="42.0535474" lon="19.1258116"><ele>79.0</ele><time>2026-05-04T06:42:01.677Z</time></trkpt><trkpt lat="42.0536757" lon="19.1256876"><ele>79.0</ele><time>2026-05-04T06:42:02.678Z</time></trkpt><trkpt lat="42.0538118" lon="19.125574"><ele>79.0</ele><time>2026-05-04T06:42:03.678Z</time></trkpt><trkpt lat="42.0539538" lon="19.1254714"><ele>79.0</ele><time>2026-05-04T06:42:04.677Z</time></trkpt><trkpt lat="42.0541043" lon="19.1253836"><ele>83.66666666666666</ele><time>2026-05-04T06:42:05.678Z</time></trkpt><trkpt lat="42.0542529" lon="19.1253097"><ele>88.33333333333333</ele><time>2026-05-04T06:42:06.678Z</time></trkpt><trkpt lat="42.0543994" lon="19.1252394"><ele>93.0</ele><time>2026-05-04T06:42:07.677Z</time></trkpt><trkpt lat="42.05455" lon="19.1251914"><ele>93.0</ele><time>2026-05-04T06:42:08.678Z</time></trkpt><trkpt lat="42.0547123" lon="19.1251586"><ele>93.0</ele><time>2026-05-04T06:42:09.677Z</time></trkpt><trkpt lat="42.0548794" lon="19.1251451"><ele>93.0</ele><time>2026-05-04T06:42:10.677Z</time></trkpt><trkpt lat="42.0550422" lon="19.1251473"><ele>99.0</ele><time>2026-05-04T06:42:11.678Z</time></trkpt><trkpt lat="42.0552045" lon="19.1251581"><ele>105.0</ele><time>2026-05-04T06:42:12.677Z</time></trkpt><trkpt lat="42.0553637" lon="19.1251808"><ele>111.0</ele><time>2026-05-04T06:42:13.678Z</time></trkpt><trkpt lat="42.0569569" lon="19.1277852"><ele>111.33333333333334</ele><time>2026-05-04T06:42:29.677Z</time></trkpt><trkpt lat="42.0570275" lon="19.1280364"><ele>111.66666666666667</ele><time>2026-05-04T06:42:30.677Z</time></trkpt><trkpt lat="42.0570782" lon="19.1282424"><ele>112.0</ele><time>2026-05-04T06:42:31.677Z</time></trkpt><trkpt lat="42.0571302" lon="19.1284446"><ele>109.33333333333334</ele><time>2026-05-04T06:42:32.678Z</time></trkpt><trkpt lat="42.0571771" lon="19.1286421"><ele>106.66666666666666</ele><time>2026-05-04T06:42:33.677Z</time></trkpt><trkpt lat="42.0572651" lon="19.1288443"><ele>104.0</ele><time>2026-05-04T06:42:34.678Z</time></trkpt><trkpt lat="42.0573644" lon="19.1290194"><ele>94.33333333333333</ele><time>2026-05-04T06:42:35.678Z</time></trkpt><trkpt lat="42.0574814" lon="19.1291792"><ele>84.66666666666666</ele><time>2026-05-04T06:42:36.678Z</time></trkpt><trkpt lat="42.0576148" lon="19.1293291"><ele>75.0</ele><time>2026-05-04T06:42:37.678Z</time></trkpt><trkpt lat="42.0577548" lon="19.1294643"><ele>75.0</ele><time>2026-05-04T06:42:38.678Z</time></trkpt><trkpt lat="42.0579022" lon="19.1295891"><ele>75.0</ele><time>2026-05-04T06:42:39.678Z</time></trkpt><trkpt lat="42.0580509" lon="19.1296993"><ele>75.0</ele><time>2026-05-04T06:42:40.677Z</time></trkpt><trkpt lat="42.0582007" lon="19.1297973"><ele>75.66666666666667</ele><time>2026-05-04T06:42:41.678Z</time></trkpt><trkpt lat="42.0583546" lon="19.1298782"><ele>76.33333333333334</ele><time>2026-05-04T06:42:42.677Z</time></trkpt><trkpt lat="42.0585159" lon="19.1299372"><ele>77.0</ele><time>2026-05-04T06:42:43.678Z</time></trkpt><trkpt lat="42.0586707" lon="19.12999"><ele>77.0</ele><time>2026-05-04T06:42:44.678Z</time></trkpt><trkpt lat="42.0588237" lon="19.1300309"><ele>77.0</ele><time>2026-05-04T06:42:45.678Z</time></trkpt><trkpt lat="42.0589717" lon="19.1300607"><ele>77.0</ele><time>2026-05-04T06:42:46.678Z</time></trkpt><trkpt lat="42.05912" lon="19.1300839"><ele>75.5</ele><time>2026-05-04T06:42:47.678Z</time></trkpt><trkpt lat="42.0592665" lon="19.1300954"><ele>74.0</ele><time>2026-05-04T06:42:48.677Z</time></trkpt><trkpt lat="42.0594124" lon="19.1300964"><ele>72.5</ele><time>2026-05-04T06:42:49.677Z</time></trkpt><trkpt lat="42.0595571" lon="19.1300797"><ele>71.0</ele><time>2026-05-04T06:42:50.677Z</time></trkpt><trkpt lat="42.0597042" lon="19.1300517"><ele>71.0</ele><time>2026-05-04T06:42:51.678Z</time></trkpt><trkpt lat="42.0598518" lon="19.1300167"><ele>71.0</ele><time>2026-05-04T06:42:52.677Z</time></trkpt><trkpt lat="42.060009" lon="19.1299624"><ele>71.0</ele><time>2026-05-04T06:42:53.677Z</time></trkpt><trkpt lat="42.0601542" lon="19.1299058"><ele>65.75</ele><time>2026-05-04T06:42:54.678Z</time></trkpt><trkpt lat="42.0602959" lon="19.1298362"><ele>60.5</ele><time>2026-05-04T06:42:55.677Z</time></trkpt><trkpt lat="42.0604334" lon="19.1297546"><ele>55.25</ele><time>2026-05-04T06:42:56.678Z</time></trkpt><trkpt lat="42.0605571" lon="19.1296622"><ele>50.0</ele><time>2026-05-04T06:42:57.678Z</time></trkpt><trkpt lat="42.0606769" lon="19.1295629"><ele>51.75</ele><time>2026-05-04T06:42:58.677Z</time></trkpt><trkpt lat="42.0607915" lon="19.1294601"><ele>53.5</ele><time>2026-05-04T06:42:59.677Z</time></trkpt><trkpt lat="42.0609024" lon="19.1293466"><ele>55.25</ele><time>2026-05-04T06:43:00.678Z</time></trkpt><trkpt lat="42.0610116" lon="19.1292282"><ele>57.0</ele><time>2026-05-04T06:43:01.678Z</time></trkpt><trkpt lat="42.0611129" lon="19.1291009"><ele>53.0</ele><time>2026-05-04T06:43:02.677Z</time></trkpt><trkpt lat="42.0612105" lon="19.1289673"><ele>49.0</ele><time>2026-05-04T06:43:03.677Z</time></trkpt><trkpt lat="42.061307" lon="19.1288349"><ele>45.0</ele><time>2026-05-04T06:43:04.677Z</time></trkpt><trkpt lat="42.0614061" lon="19.1286951"><ele>41.0</ele><time>2026-05-04T06:43:05.678Z</time></trkpt><trkpt lat="42.0615079" lon="19.1285529"><ele>41.0</ele><time>2026-05-04T06:43:06.678Z</time></trkpt><trkpt lat="42.0616099" lon="19.1284088"><ele>41.0</ele><time>2026-05-04T06:43:07.677Z</time></trkpt><trkpt lat="42.0617103" lon="19.128283"><ele>41.0</ele><time>2026-05-04T06:43:08.677Z</time></trkpt><trkpt lat="42.0618082" lon="19.1281621"><ele>41.0</ele><time>2026-05-04T06:43:09.678Z</time></trkpt><trkpt lat="42.0619074" lon="19.1280546"><ele>40.25</ele><time>2026-05-04T06:43:10.677Z</time></trkpt><trkpt lat="42.0620049" lon="19.1279471"><ele>39.5</ele><time>2026-05-04T06:43:11.677Z</time></trkpt><trkpt lat="42.0621047" lon="19.1278428"><ele>38.75</ele><time>2026-05-04T06:43:12.678Z</time></trkpt><trkpt lat="42.062216" lon="19.1277422"><ele>38.0</ele><time>2026-05-04T06:43:13.678Z</time></trkpt><trkpt lat="42.0623224" lon="19.1276427"><ele>38.0</ele><time>2026-05-04T06:43:14.678Z</time></trkpt><trkpt lat="42.0624354" lon="19.1275498"><ele>38.0</ele><time>2026-05-04T06:43:15.678Z</time></trkpt><trkpt lat="42.0625438" lon="19.1274586"><ele>38.0</ele><time>2026-05-04T06:43:16.678Z</time></trkpt><trkpt lat="42.0626594" lon="19.1273708"><ele>38.0</ele><time>2026-05-04T06:43:17.678Z</time></trkpt><trkpt lat="42.0627744" lon="19.1272859"><ele>37.75</ele><time>2026-05-04T06:43:18.677Z</time></trkpt><trkpt lat="42.0628949" lon="19.1272052"><ele>37.5</ele><time>2026-05-04T06:43:19.677Z</time></trkpt><trkpt lat="42.0630203" lon="19.1271298"><ele>37.25</ele><time>2026-05-04T06:43:20.678Z</time></trkpt><trkpt lat="42.0631458" lon="19.1270636"><ele>37.0</ele><time>2026-05-04T06:43:21.677Z</time></trkpt><trkpt lat="42.0632797" lon="19.1270046"><ele>37.75</ele><time>2026-05-04T06:43:22.678Z</time></trkpt><trkpt lat="42.0634063" lon="19.1269473"><ele>38.5</ele><time>2026-05-04T06:43:23.678Z</time></trkpt><trkpt lat="42.0635409" lon="19.1268904"><ele>39.25</ele><time>2026-05-04T06:43:24.677Z</time></trkpt><trkpt lat="42.0636598" lon="19.1268434"><ele>40.0</ele><time>2026-05-04T06:43:25.678Z</time></trkpt><trkpt lat="42.0637814" lon="19.1268019"><ele>40.0</ele><time>2026-05-04T06:43:26.678Z</time></trkpt><trkpt lat="42.063904" lon="19.1267659"><ele>40.0</ele><time>2026-05-04T06:43:27.678Z</time></trkpt><trkpt lat="42.064024" lon="19.1267353"><ele>40.0</ele><time>2026-05-04T06:43:28.677Z</time></trkpt><trkpt lat="42.0641423" lon="19.1267104"><ele>40.0</ele><time>2026-05-04T06:43:29.677Z</time></trkpt><trkpt lat="42.0642586" lon="19.1266892"><ele>40.2</ele><time>2026-05-04T06:43:30.677Z</time></trkpt><trkpt lat="42.0643689" lon="19.1266709"><ele>40.4</ele><time>2026-05-04T06:43:31.677Z</time></trkpt><trkpt lat="42.064472" lon="19.1266586"><ele>40.599999999999994</ele><time>2026-05-04T06:43:32.678Z</time></trkpt><trkpt lat="42.0645705" lon="19.1266533"><ele>40.8</ele><time>2026-05-04T06:43:33.678Z</time></trkpt><trkpt lat="42.0646677" lon="19.1266513"><ele>41.0</ele><time>2026-05-04T06:43:34.678Z</time></trkpt><trkpt lat="42.064764" lon="19.1266506"><ele>41.0</ele><time>2026-05-04T06:43:35.677Z</time></trkpt><trkpt lat="42.0648545" lon="19.1266469"><ele>41.0</ele><time>2026-05-04T06:43:36.677Z</time></trkpt><trkpt lat="42.0649554" lon="19.1266443"><ele>41.0</ele><time>2026-05-04T06:43:37.678Z</time></trkpt><trkpt lat="42.0650581" lon="19.1266548"><ele>41.0</ele><time>2026-05-04T06:43:38.678Z</time></trkpt><trkpt lat="42.0651623" lon="19.1266687"><ele>41.0</ele><time>2026-05-04T06:43:39.677Z</time></trkpt><trkpt lat="42.0652695" lon="19.1266872"><ele>41.599999999999994</ele><time>2026-05-04T06:43:40.677Z</time></trkpt><trkpt lat="42.0653733" lon="19.1267037"><ele>42.2</ele><time>2026-05-04T06:43:41.677Z</time></trkpt><trkpt lat="42.0654761" lon="19.126726"><ele>42.8</ele><time>2026-05-04T06:43:42.677Z</time></trkpt><trkpt lat="42.0655752" lon="19.1267503"><ele>43.400000000000006</ele><time>2026-05-04T06:43:43.678Z</time></trkpt><trkpt lat="42.0656893" lon="19.1267616"><ele>44.0</ele><time>2026-05-04T06:43:44.678Z</time></trkpt><trkpt lat="42.0657903" lon="19.1267996"><ele>44.0</ele><time>2026-05-04T06:43:45.678Z</time></trkpt><trkpt lat="42.0658866" lon="19.1268312"><ele>44.0</ele><time>2026-05-04T06:43:46.678Z</time></trkpt><trkpt lat="42.065993" lon="19.1268577"><ele>44.0</ele><time>2026-05-04T06:43:47.677Z</time></trkpt><trkpt lat="42.0660826" lon="19.1268881"><ele>44.0</ele><time>2026-05-04T06:43:48.677Z</time></trkpt><trkpt lat="42.0661765" lon="19.126925"><ele>44.0</ele><time>2026-05-04T06:43:49.678Z</time></trkpt><trkpt lat="42.0662641" lon="19.1269615"><ele>44.0</ele><time>2026-05-04T06:43:50.678Z</time></trkpt><trkpt lat="42.0663496" lon="19.1269921"><ele>44.0</ele><time>2026-05-04T06:43:51.678Z</time></trkpt><trkpt lat="42.0664271" lon="19.1270222"><ele>44.0</ele><time>2026-05-04T06:43:52.678Z</time></trkpt><trkpt lat="42.0664988" lon="19.1270496"><ele>44.0</ele><time>2026-05-04T06:43:53.677Z</time></trkpt><trkpt lat="42.0665695" lon="19.1270779"><ele>44.0</ele><time>2026-05-04T06:43:54.677Z</time></trkpt><trkpt lat="42.0666389" lon="19.1271133"><ele>44.0</ele><time>2026-05-04T06:43:55.677Z</time></trkpt><trkpt lat="42.0667063" lon="19.127142"><ele>43.33333333333333</ele><time>2026-05-04T06:43:56.678Z</time></trkpt><trkpt lat="42.0667733" lon="19.1271697"><ele>42.666666666666664</ele><time>2026-05-04T06:43:57.678Z</time></trkpt><trkpt lat="42.0668423" lon="19.1272053"><ele>42.0</ele><time>2026-05-04T06:43:58.677Z</time></trkpt><trkpt lat="42.0669185" lon="19.1272312"><ele>41.333333333333336</ele><time>2026-05-04T06:43:59.677Z</time></trkpt><trkpt lat="42.0669955" lon="19.1272611"><ele>40.66666666666667</ele><time>2026-05-04T06:44:00.678Z</time></trkpt><trkpt lat="42.0670739" lon="19.12729"><ele>40.0</ele><time>2026-05-04T06:44:01.677Z</time></trkpt><trkpt lat="42.0671599" lon="19.1273123"><ele>40.0</ele><time>2026-05-04T06:44:02.677Z</time></trkpt><trkpt lat="42.0672481" lon="19.1273339"><ele>40.0</ele><time>2026-05-04T06:44:03.678Z</time></trkpt><trkpt lat="42.0673407" lon="19.1273543"><ele>40.0</ele><time>2026-05-04T06:44:04.677Z</time></trkpt><trkpt lat="42.0674295" lon="19.127374"><ele>40.0</ele><time>2026-05-04T06:44:05.678Z</time></trkpt><trkpt lat="42.0675172" lon="19.1273928"><ele>40.0</ele><time>2026-05-04T06:44:06.677Z</time></trkpt><trkpt lat="42.0676035" lon="19.127409"><ele>40.0</ele><time>2026-05-04T06:44:07.677Z</time></trkpt><trkpt lat="42.0676917" lon="19.1274273"><ele>40.2</ele><time>2026-05-04T06:44:08.677Z</time></trkpt><trkpt lat="42.0677841" lon="19.1274377"><ele>40.4</ele><time>2026-05-04T06:44:09.677Z</time></trkpt><trkpt lat="42.0678784" lon="19.1274442"><ele>40.599999999999994</ele><time>2026-05-04T06:44:10.677Z</time></trkpt><trkpt lat="42.0679712" lon="19.1274495"><ele>40.8</ele><time>2026-05-04T06:44:11.677Z</time></trkpt><trkpt lat="42.0680626" lon="19.1274489"><ele>41.0</ele><time>2026-05-04T06:44:12.677Z</time></trkpt><trkpt lat="42.0681656" lon="19.1274492"><ele>41.0</ele><time>2026-05-04T06:44:13.678Z</time></trkpt><trkpt lat="42.0682701" lon="19.1274481"><ele>41.0</ele><time>2026-05-04T06:44:14.678Z</time></trkpt><trkpt lat="42.0683828" lon="19.1274458"><ele>41.0</ele><time>2026-05-04T06:44:15.677Z</time></trkpt><trkpt lat="42.068497" lon="19.1274369"><ele>41.0</ele><time>2026-05-04T06:44:16.678Z</time></trkpt><trkpt lat="42.068612" lon="19.1274267"><ele>41.0</ele><time>2026-05-04T06:44:17.678Z</time></trkpt><trkpt lat="42.0687289" lon="19.1274088"><ele>40.25</ele><time>2026-05-04T06:44:18.678Z</time></trkpt><trkpt lat="42.0688445" lon="19.1273867"><ele>39.5</ele><time>2026-05-04T06:44:19.678Z</time></trkpt><trkpt lat="42.0689602" lon="19.1273613"><ele>38.75</ele><time>2026-05-04T06:44:20.678Z</time></trkpt><trkpt lat="42.0690738" lon="19.1273328"><ele>38.0</ele><time>2026-05-04T06:44:21.678Z</time></trkpt><trkpt lat="42.0691873" lon="19.1273027"><ele>37.5</ele><time>2026-05-04T06:44:22.678Z</time></trkpt><trkpt lat="42.0693033" lon="19.1272692"><ele>37.0</ele><time>2026-05-04T06:44:23.677Z</time></trkpt><trkpt lat="42.0694196" lon="19.1272216"><ele>36.5</ele><time>2026-05-04T06:44:24.678Z</time></trkpt><trkpt lat="42.0695361" lon="19.1271786"><ele>36.0</ele><time>2026-05-04T06:44:25.678Z</time></trkpt><trkpt lat="42.069652" lon="19.1271298"><ele>36.0</ele><time>2026-05-04T06:44:26.677Z</time></trkpt><trkpt lat="42.069758" lon="19.1270813"><ele>36.0</ele><time>2026-05-04T06:44:27.678Z</time></trkpt><trkpt lat="42.0698678" lon="19.1270369"><ele>36.0</ele><time>2026-05-04T06:44:28.678Z</time></trkpt><trkpt lat="42.0699769" lon="19.1269859"><ele>36.0</ele><time>2026-05-04T06:44:29.678Z</time></trkpt><trkpt lat="42.0700828" lon="19.1269423"><ele>35.75</ele><time>2026-05-04T06:44:30.677Z</time></trkpt><trkpt lat="42.0701924" lon="19.1268983"><ele>35.5</ele><time>2026-05-04T06:44:31.678Z</time></trkpt><trkpt lat="42.0702997" lon="19.1268556"><ele>35.25</ele><time>2026-05-04T06:44:32.678Z</time></trkpt><trkpt lat="42.0704064" lon="19.1268131"><ele>35.0</ele><time>2026-05-04T06:44:33.677Z</time></trkpt><trkpt lat="42.0705138" lon="19.1267698"><ele>35.0</ele><time>2026-05-04T06:44:34.677Z</time></trkpt><trkpt lat="42.0706229" lon="19.1267251"><ele>35.0</ele><time>2026-05-04T06:44:35.677Z</time></trkpt><trkpt lat="42.0707308" lon="19.1266786"><ele>35.0</ele><time>2026-05-04T06:44:36.678Z</time></trkpt><trkpt lat="42.0708395" lon="19.1266358"><ele>35.0</ele><time>2026-05-04T06:44:37.678Z</time></trkpt><trkpt lat="42.0709465" lon="19.1265782"><ele>33.75</ele><time>2026-05-04T06:44:38.678Z</time></trkpt><trkpt lat="42.0710525" lon="19.126544"><ele>32.5</ele><time>2026-05-04T06:44:39.677Z</time></trkpt><trkpt lat="42.0711591" lon="19.1265026"><ele>31.25</ele><time>2026-05-04T06:44:40.677Z</time></trkpt><trkpt lat="42.0712699" lon="19.1264569"><ele>30.0</ele><time>2026-05-04T06:44:41.678Z</time></trkpt><trkpt lat="42.0713809" lon="19.1264062"><ele>30.0</ele><time>2026-05-04T06:44:42.677Z</time></trkpt><trkpt lat="42.0714951" lon="19.1263563"><ele>30.0</ele><time>2026-05-04T06:44:43.678Z</time></trkpt><trkpt lat="42.0716105" lon="19.1263078"><ele>30.0</ele><time>2026-05-04T06:44:44.677Z</time></trkpt><trkpt lat="42.0717216" lon="19.1262663"><ele>30.0</ele><time>2026-05-04T06:44:45.677Z</time></trkpt><trkpt lat="42.0718232" lon="19.1262217"><ele>30.0</ele><time>2026-05-04T06:44:46.678Z</time></trkpt><trkpt lat="42.0719227" lon="19.1261815"><ele>30.0</ele><time>2026-05-04T06:44:47.678Z</time></trkpt><trkpt lat="42.0720168" lon="19.1261402"><ele>30.0</ele><time>2026-05-04T06:44:48.677Z</time></trkpt><trkpt lat="42.0721188" lon="19.1261086"><ele>30.0</ele><time>2026-05-04T06:44:49.678Z</time></trkpt><trkpt lat="42.0722223" lon="19.1260681"><ele>30.0</ele><time>2026-05-04T06:44:50.677Z</time></trkpt><trkpt lat="42.07233" lon="19.1260267"><ele>30.0</ele><time>2026-05-04T06:44:51.677Z</time></trkpt><trkpt lat="42.0724298" lon="19.125984"><ele>30.0</ele><time>2026-05-04T06:44:52.678Z</time></trkpt><trkpt lat="42.0725333" lon="19.1259381"><ele>30.0</ele><time>2026-05-04T06:44:53.678Z</time></trkpt><trkpt lat="42.0726436" lon="19.1258998"><ele>30.0</ele><time>2026-05-04T06:44:54.677Z</time></trkpt><trkpt lat="42.0727564" lon="19.1258562"><ele>30.0</ele><time>2026-05-04T06:44:55.677Z</time></trkpt><trkpt lat="42.0728701" lon="19.1258114"><ele>30.0</ele><time>2026-05-04T06:44:56.678Z</time></trkpt><trkpt lat="42.0729882" lon="19.1257691"><ele>30.0</ele><time>2026-05-04T06:44:57.677Z</time></trkpt><trkpt lat="42.0731019" lon="19.1257239"><ele>30.0</ele><time>2026-05-04T06:44:58.678Z</time></trkpt><trkpt lat="42.0732182" lon="19.1256773"><ele>30.0</ele><time>2026-05-04T06:44:59.678Z</time></trkpt><trkpt lat="42.0733337" lon="19.1256247"><ele>29.25</ele><time>2026-05-04T06:45:00.677Z</time></trkpt><trkpt lat="42.0734485" lon="19.1255725"><ele>28.5</ele><time>2026-05-04T06:45:01.678Z</time></trkpt><trkpt lat="42.0735691" lon="19.1255217"><ele>27.75</ele><time>2026-05-04T06:45:02.678Z</time></trkpt><trkpt lat="42.0736909" lon="19.1254722"><ele>27.0</ele><time>2026-05-04T06:45:03.677Z</time></trkpt><trkpt lat="42.0738109" lon="19.1254244"><ele>27.0</ele><time>2026-05-04T06:45:04.678Z</time></trkpt><trkpt lat="42.0739351" lon="19.1253776"><ele>27.0</ele><time>2026-05-04T06:45:05.678Z</time></trkpt><trkpt lat="42.0740585" lon="19.1253221"><ele>27.0</ele><time>2026-05-04T06:45:06.677Z</time></trkpt><trkpt lat="42.0741835" lon="19.1252701"><ele>27.0</ele><time>2026-05-04T06:45:07.678Z</time></trkpt><trkpt lat="42.07431" lon="19.125217"><ele>27.0</ele><time>2026-05-04T06:45:08.677Z</time></trkpt><trkpt lat="42.0744392" lon="19.1251647"><ele>27.0</ele><time>2026-05-04T06:45:09.678Z</time></trkpt><trkpt lat="42.0745692" lon="19.1251123"><ele>27.0</ele><time>2026-05-04T06:45:10.677Z</time></trkpt><trkpt lat="42.0746994" lon="19.1250634"><ele>27.0</ele><time>2026-05-04T06:45:11.678Z</time></trkpt><trkpt lat="42.0748301" lon="19.1250155"><ele>26.75</ele><time>2026-05-04T06:45:12.678Z</time></trkpt><trkpt lat="42.0749621" lon="19.1249714"><ele>26.5</ele><time>2026-05-04T06:45:13.678Z</time></trkpt><trkpt lat="42.0750948" lon="19.1249286"><ele>26.25</ele><time>2026-05-04T06:45:14.677Z</time></trkpt><trkpt lat="42.075229" lon="19.1248893"><ele>26.0</ele><time>2026-05-04T06:45:15.677Z</time></trkpt><trkpt lat="42.0753684" lon="19.124854"><ele>25.5</ele><time>2026-05-04T06:45:16.678Z</time></trkpt><trkpt lat="42.075509" lon="19.1248254"><ele>25.0</ele><time>2026-05-04T06:45:17.677Z</time></trkpt><trkpt lat="42.0756517" lon="19.1248022"><ele>24.5</ele><time>2026-05-04T06:45:18.677Z</time></trkpt><trkpt lat="42.0757948" lon="19.1247863"><ele>24.0</ele><time>2026-05-04T06:45:19.678Z</time></trkpt><trkpt lat="42.0759383" lon="19.1247724"><ele>24.0</ele><time>2026-05-04T06:45:20.678Z</time></trkpt><trkpt lat="42.0760815" lon="19.1247639"><ele>24.0</ele><time>2026-05-04T06:45:21.677Z</time></trkpt><trkpt lat="42.0762259" lon="19.1247652"><ele>24.0</ele><time>2026-05-04T06:45:22.678Z</time></trkpt><trkpt lat="42.07637" lon="19.1247597"><ele>24.0</ele><time>2026-05-04T06:45:23.678Z</time></trkpt><trkpt lat="42.0765053" lon="19.1247618"><ele>25.75</ele><time>2026-05-04T06:45:24.678Z</time></trkpt><trkpt lat="42.0766347" lon="19.1247804"><ele>27.5</ele><time>2026-05-04T06:45:25.678Z</time></trkpt><trkpt lat="42.076777" lon="19.1248023"><ele>29.25</ele><time>2026-05-04T06:45:26.678Z</time></trkpt><trkpt lat="42.0769214" lon="19.1248241"><ele>31.0</ele><time>2026-05-04T06:45:27.678Z</time></trkpt><trkpt lat="42.0770554" lon="19.1248537"><ele>31.0</ele><time>2026-05-04T06:45:28.677Z</time></trkpt><trkpt lat="42.0771924" lon="19.124878"><ele>31.0</ele><time>2026-05-04T06:45:29.677Z</time></trkpt><trkpt lat="42.0773261" lon="19.1249109"><ele>31.0</ele><time>2026-05-04T06:45:30.678Z</time></trkpt><trkpt lat="42.0774578" lon="19.1249471"><ele>31.0</ele><time>2026-05-04T06:45:31.678Z</time></trkpt><trkpt lat="42.0775841" lon="19.1249837"><ele>32.25</ele><time>2026-05-04T06:45:32.677Z</time></trkpt><trkpt lat="42.0777067" lon="19.1250235"><ele>33.5</ele><time>2026-05-04T06:45:33.678Z</time></trkpt><trkpt lat="42.077828" lon="19.1250715"><ele>34.75</ele><time>2026-05-04T06:45:34.678Z</time></trkpt><trkpt lat="42.0779477" lon="19.1251204"><ele>36.0</ele><time>2026-05-04T06:45:35.678Z</time></trkpt><trkpt lat="42.0780642" lon="19.1251716"><ele>36.0</ele><time>2026-05-04T06:45:36.677Z</time></trkpt><trkpt lat="42.0781801" lon="19.1252267"><ele>36.0</ele><time>2026-05-04T06:45:37.678Z</time></trkpt><trkpt lat="42.0782952" lon="19.1252865"><ele>36.0</ele><time>2026-05-04T06:45:38.677Z</time></trkpt><trkpt lat="42.0784057" lon="19.1253493"><ele>36.0</ele><time>2026-05-04T06:45:39.677Z</time></trkpt><trkpt lat="42.0785157" lon="19.125413"><ele>35.0</ele><time>2026-05-04T06:45:40.678Z</time></trkpt><trkpt lat="42.078623" lon="19.1254746"><ele>34.0</ele><time>2026-05-04T06:45:41.678Z</time></trkpt><trkpt lat="42.0787285" lon="19.1255365"><ele>33.0</ele><time>2026-05-04T06:45:42.678Z</time></trkpt><trkpt lat="42.0788352" lon="19.1255979"><ele>32.0</ele><time>2026-05-04T06:45:43.678Z</time></trkpt><trkpt lat="42.07894" lon="19.125657"><ele>32.0</ele><time>2026-05-04T06:45:44.677Z</time></trkpt><trkpt lat="42.0790446" lon="19.1257121"><ele>32.0</ele><time>2026-05-04T06:45:45.677Z</time></trkpt><trkpt lat="42.079146" lon="19.1257637"><ele>32.0</ele><time>2026-05-04T06:45:46.677Z</time></trkpt><trkpt lat="42.0792467" lon="19.1258115"><ele>32.0</ele><time>2026-05-04T06:45:47.677Z</time></trkpt><trkpt lat="42.0793423" lon="19.1258584"><ele>32.0</ele><time>2026-05-04T06:45:48.677Z</time></trkpt><trkpt lat="42.0794385" lon="19.1258995"><ele>32.5</ele><time>2026-05-04T06:45:49.678Z</time></trkpt><trkpt lat="42.0795273" lon="19.1259336"><ele>33.0</ele><time>2026-05-04T06:45:50.677Z</time></trkpt><trkpt lat="42.079613" lon="19.1259674"><ele>33.5</ele><time>2026-05-04T06:45:51.678Z</time></trkpt><trkpt lat="42.0796966" lon="19.1259931"><ele>34.0</ele><time>2026-05-04T06:45:52.678Z</time></trkpt><trkpt lat="42.0797775" lon="19.1260199"><ele>34.5</ele><time>2026-05-04T06:45:53.678Z</time></trkpt><trkpt lat="42.0798527" lon="19.1260479"><ele>35.0</ele><time>2026-05-04T06:45:54.678Z</time></trkpt><trkpt lat="42.079926" lon="19.1260718"><ele>34.666666666666664</ele><time>2026-05-04T06:45:55.678Z</time></trkpt><trkpt lat="42.0799991" lon="19.1260954"><ele>34.33333333333333</ele><time>2026-05-04T06:45:56.678Z</time></trkpt><trkpt lat="42.0800694" lon="19.1261181"><ele>34.0</ele><time>2026-05-04T06:45:57.677Z</time></trkpt><trkpt lat="42.0801599" lon="19.1261425"><ele>33.666666666666664</ele><time>2026-05-04T06:45:59.678Z</time></trkpt><trkpt lat="42.0802312" lon="19.1261607"><ele>33.333333333333336</ele><time>2026-05-04T06:46:01.677Z</time></trkpt><trkpt lat="42.0802994" lon="19.1261773"><ele>33.0</ele><time>2026-05-04T06:46:03.678Z</time></trkpt><trkpt lat="42.0803888" lon="19.1262064"><ele>33.0</ele><time>2026-05-04T06:46:05.678Z</time></trkpt><trkpt lat="42.0805106" lon="19.1262325"><ele>33.0</ele><time>2026-05-04T06:46:07.677Z</time></trkpt><trkpt lat="42.0805827" lon="19.126247"><ele>33.0</ele><time>2026-05-04T06:46:08.677Z</time></trkpt><trkpt lat="42.0806608" lon="19.126262"><ele>33.0</ele><time>2026-05-04T06:46:09.678Z</time></trkpt><trkpt lat="42.0807426" lon="19.1262767"><ele>33.0</ele><time>2026-05-04T06:46:10.677Z</time></trkpt><trkpt lat="42.0808204" lon="19.1262875"><ele>33.0</ele><time>2026-05-04T06:46:11.678Z</time></trkpt><trkpt lat="42.080898" lon="19.1262971"><ele>33.0</ele><time>2026-05-04T06:46:12.677Z</time></trkpt><trkpt lat="42.0809722" lon="19.1263079"><ele>33.0</ele><time>2026-05-04T06:46:13.677Z</time></trkpt><trkpt lat="42.0810452" lon="19.126316"><ele>33.0</ele><time>2026-05-04T06:46:14.678Z</time></trkpt><trkpt lat="42.0811139" lon="19.1263236"><ele>33.0</ele><time>2026-05-04T06:46:15.678Z</time></trkpt><trkpt lat="42.0812276" lon="19.1263349"><ele>33.0</ele><time>2026-05-04T06:46:17.678Z</time></trkpt><trkpt lat="42.0813261" lon="19.1263411"><ele>33.0</ele><time>2026-05-04T06:46:19.678Z</time></trkpt><trkpt lat="42.0814457" lon="19.1263526"><ele>33.0</ele><time>2026-05-04T06:46:21.678Z</time></trkpt><trkpt lat="42.0815093" lon="19.1263546"><ele>33.0</ele><time>2026-05-04T06:46:22.678Z</time></trkpt><trkpt lat="42.0816311" lon="19.1263585"><ele>33.0</ele><time>2026-05-04T06:46:24.677Z</time></trkpt><trkpt lat="42.081754" lon="19.1263573"><ele>33.0</ele><time>2026-05-04T06:46:26.678Z</time></trkpt><trkpt lat="42.0818676" lon="19.1263518"><ele>33.0</ele><time>2026-05-04T06:46:28.678Z</time></trkpt><trkpt lat="42.0819799" lon="19.1263483"><ele>33.0</ele><time>2026-05-04T06:46:30.678Z</time></trkpt><trkpt lat="42.0821081" lon="19.1263397"><ele>33.0</ele><time>2026-05-04T06:46:32.677Z</time></trkpt><trkpt lat="42.082175" lon="19.1263337"><ele>33.0</ele><time>2026-05-04T06:46:33.678Z</time></trkpt><trkpt lat="42.0822472" lon="19.1263271"><ele>33.0</ele><time>2026-05-04T06:46:34.677Z</time></trkpt><trkpt lat="42.0823263" lon="19.1263185"><ele>33.0</ele><time>2026-05-04T06:46:35.677Z</time></trkpt><trkpt lat="42.0824122" lon="19.1263071"><ele>33.0</ele><time>2026-05-04T06:46:36.678Z</time></trkpt><trkpt lat="42.0825009" lon="19.1262934"><ele>33.199999999999996</ele><time>2026-05-04T06:46:37.677Z</time></trkpt><trkpt lat="42.0825886" lon="19.1262858"><ele>33.4</ele><time>2026-05-04T06:46:38.678Z</time></trkpt><trkpt lat="42.0826751" lon="19.1262689"><ele>33.599999999999994</ele><time>2026-05-04T06:46:39.677Z</time></trkpt><trkpt lat="42.0827642" lon="19.1262487"><ele>33.8</ele><time>2026-05-04T06:46:40.678Z</time></trkpt><trkpt lat="42.0828551" lon="19.1262282"><ele>34.0</ele><time>2026-05-04T06:46:41.678Z</time></trkpt><trkpt lat="42.0829492" lon="19.126202"><ele>34.0</ele><time>2026-05-04T06:46:42.678Z</time></trkpt><trkpt lat="42.0830431" lon="19.126179"><ele>34.0</ele><time>2026-05-04T06:46:43.678Z</time></trkpt><trkpt lat="42.0831335" lon="19.1261566"><ele>34.0</ele><time>2026-05-04T06:46:44.678Z</time></trkpt><trkpt lat="42.0832179" lon="19.1261463"><ele>34.0</ele><time>2026-05-04T06:46:45.678Z</time></trkpt><trkpt lat="42.0832979" lon="19.1261185"><ele>34.0</ele><time>2026-05-04T06:46:46.677Z</time></trkpt><trkpt lat="42.0833737" lon="19.1260942"><ele>34.0</ele><time>2026-05-04T06:46:47.677Z</time></trkpt><trkpt lat="42.0834478" lon="19.1260664"><ele>34.0</ele><time>2026-05-04T06:46:48.678Z</time></trkpt><trkpt lat="42.0835253" lon="19.1260347"><ele>34.0</ele><time>2026-05-04T06:46:49.678Z</time></trkpt><trkpt lat="42.0836005" lon="19.1260083"><ele>34.0</ele><time>2026-05-04T06:46:50.678Z</time></trkpt><trkpt lat="42.0836755" lon="19.125982"><ele>34.0</ele><time>2026-05-04T06:46:51.677Z</time></trkpt><trkpt lat="42.0837474" lon="19.1259517"><ele>34.0</ele><time>2026-05-04T06:46:52.678Z</time></trkpt><trkpt lat="42.0838198" lon="19.1259216"><ele>34.0</ele><time>2026-05-04T06:46:53.678Z</time></trkpt><trkpt lat="42.0838889" lon="19.1258852"><ele>34.0</ele><time>2026-05-04T06:46:54.678Z</time></trkpt><trkpt lat="42.0839521" lon="19.1258575"><ele>34.0</ele><time>2026-05-04T06:46:55.678Z</time></trkpt><trkpt lat="42.0840674" lon="19.1258055"><ele>34.0</ele><time>2026-05-04T06:46:57.678Z</time></trkpt><trkpt lat="42.0841775" lon="19.1257636"><ele>34.0</ele><time>2026-05-04T06:46:59.677Z</time></trkpt><trkpt lat="42.0842804" lon="19.1257097"><ele>34.0</ele><time>2026-05-04T06:47:01.677Z</time></trkpt><trkpt lat="42.0843857" lon="19.1256486"><ele>34.16666666666667</ele><time>2026-05-04T06:47:03.677Z</time></trkpt><trkpt lat="42.0844771" lon="19.1255954"><ele>34.333333333333336</ele><time>2026-05-04T06:47:05.677Z</time></trkpt><trkpt lat="42.0845564" lon="19.1255538"><ele>34.5</ele><time>2026-05-04T06:47:08.678Z</time></trkpt><trkpt lat="42.0846253" lon="19.125505"><ele>34.666666666666664</ele><time>2026-05-04T06:47:15.677Z</time></trkpt><trkpt lat="42.0846841" lon="19.1254522"><ele>34.83333333333333</ele><time>2026-05-04T06:47:18.678Z</time></trkpt><trkpt lat="42.0847766" lon="19.1253746"><ele>35.0</ele><time>2026-05-04T06:47:21.678Z</time></trkpt><trkpt lat="42.0848327" lon="19.1253302"><ele>35.0</ele><time>2026-05-04T06:47:22.678Z</time></trkpt><trkpt lat="42.0848963" lon="19.1252955"><ele>35.0</ele><time>2026-05-04T06:47:23.678Z</time></trkpt><trkpt lat="42.0849628" lon="19.1252482"><ele>35.0</ele><time>2026-05-04T06:47:24.677Z</time></trkpt><trkpt lat="42.085029" lon="19.1252046"><ele>35.0</ele><time>2026-05-04T06:47:25.677Z</time></trkpt><trkpt lat="42.0850944" lon="19.125164"><ele>35.0</ele><time>2026-05-04T06:47:26.677Z</time></trkpt><trkpt lat="42.0851583" lon="19.1251187"><ele>35.0</ele><time>2026-05-04T06:47:27.678Z</time></trkpt><trkpt lat="42.0852195" lon="19.1250753"><ele>35.0</ele><time>2026-05-04T06:47:28.678Z</time></trkpt><trkpt lat="42.0852796" lon="19.1250247"><ele>35.166666666666664</ele><time>2026-05-04T06:47:29.678Z</time></trkpt><trkpt lat="42.0853357" lon="19.1249732"><ele>35.33333333333333</ele><time>2026-05-04T06:47:30.678Z</time></trkpt><trkpt lat="42.0854006" lon="19.1249168"><ele>35.5</ele><time>2026-05-04T06:47:31.678Z</time></trkpt><trkpt lat="42.0854749" lon="19.1248601"><ele>35.666666666666664</ele><time>2026-05-04T06:47:32.677Z</time></trkpt><trkpt lat="42.08554" lon="19.1248056"><ele>35.833333333333336</ele><time>2026-05-04T06:47:33.677Z</time></trkpt><trkpt lat="42.0856136" lon="19.1247507"><ele>36.0</ele><time>2026-05-04T06:47:35.677Z</time></trkpt><trkpt lat="42.0856771" lon="19.1246991"><ele>36.0</ele><time>2026-05-04T06:47:39.677Z</time></trkpt><trkpt lat="42.0857527" lon="19.1246416"><ele>36.0</ele><time>2026-05-04T06:47:42.678Z</time></trkpt><trkpt lat="42.0858085" lon="19.1245959"><ele>36.0</ele><time>2026-05-04T06:47:44.678Z</time></trkpt><trkpt lat="42.0858667" lon="19.1245384"><ele>36.0</ele><time>2026-05-04T06:47:46.678Z</time></trkpt><trkpt lat="42.0859353" lon="19.1244801"><ele>36.0</ele><time>2026-05-04T06:47:48.678Z</time></trkpt><trkpt lat="42.0860063" lon="19.1244136"><ele>36.0</ele><time>2026-05-04T06:47:50.677Z</time></trkpt><trkpt lat="42.0860898" lon="19.1243446"><ele>36.0</ele><time>2026-05-04T06:47:52.678Z</time></trkpt><trkpt lat="42.0861805" lon="19.1242528"><ele>36.0</ele><time>2026-05-04T06:47:54.677Z</time></trkpt><trkpt lat="42.0862599" lon="19.1241719"><ele>36.0</ele><time>2026-05-04T06:47:56.678Z</time></trkpt><trkpt lat="42.0863195" lon="19.1240889"><ele>36.0</ele><time>2026-05-04T06:47:58.678Z</time></trkpt><trkpt lat="42.0863712" lon="19.1240344"><ele>36.0</ele><time>2026-05-04T06:48:01.677Z</time></trkpt><trkpt lat="42.0864276" lon="19.1239665"><ele>36.0</ele><time>2026-05-04T06:48:05.677Z</time></trkpt><trkpt lat="42.0864964" lon="19.1238883"><ele>36.0</ele><time>2026-05-04T06:48:07.678Z</time></trkpt><trkpt lat="42.0865886" lon="19.1237691"><ele>36.0</ele><time>2026-05-04T06:48:09.677Z</time></trkpt><trkpt lat="42.0866816" lon="19.1236558"><ele>36.0</ele><time>2026-05-04T06:48:11.677Z</time></trkpt><trkpt lat="42.0867301" lon="19.1235935"><ele>36.0</ele><time>2026-05-04T06:48:12.677Z</time></trkpt><trkpt lat="42.0867837" lon="19.1235248"><ele>36.0</ele><time>2026-05-04T06:48:13.678Z</time></trkpt><trkpt lat="42.0868414" lon="19.1234486"><ele>36.0</ele><time>2026-05-04T06:48:14.677Z</time></trkpt><trkpt lat="42.0868993" lon="19.1233631"><ele>36.0</ele><time>2026-05-04T06:48:15.677Z</time></trkpt><trkpt lat="42.0869582" lon="19.1232754"><ele>36.0</ele><time>2026-05-04T06:48:16.678Z</time></trkpt><trkpt lat="42.0870144" lon="19.1231841"><ele>36.0</ele><time>2026-05-04T06:48:17.678Z</time></trkpt><trkpt lat="42.0870736" lon="19.1230909"><ele>36.0</ele><time>2026-05-04T06:48:18.677Z</time></trkpt><trkpt lat="42.0871284" lon="19.1230028"><ele>36.0</ele><time>2026-05-04T06:48:19.678Z</time></trkpt><trkpt lat="42.0871814" lon="19.1228854"><ele>35.666666666666664</ele><time>2026-05-04T06:48:20.677Z</time></trkpt><trkpt lat="42.0872313" lon="19.1228015"><ele>35.333333333333336</ele><time>2026-05-04T06:48:21.677Z</time></trkpt><trkpt lat="42.0872842" lon="19.1227211"><ele>35.0</ele><time>2026-05-04T06:48:22.678Z</time></trkpt><trkpt lat="42.087341" lon="19.1226345"><ele>34.66666666666667</ele><time>2026-05-04T06:48:23.678Z</time></trkpt><trkpt lat="42.0873978" lon="19.1225405"><ele>34.333333333333336</ele><time>2026-05-04T06:48:24.678Z</time></trkpt><trkpt lat="42.0874571" lon="19.122439"><ele>34.0</ele><time>2026-05-04T06:48:25.677Z</time></trkpt><trkpt lat="42.0875189" lon="19.122325"><ele>33.4</ele><time>2026-05-04T06:48:26.678Z</time></trkpt><trkpt lat="42.0875818" lon="19.1222057"><ele>32.8</ele><time>2026-05-04T06:48:27.677Z</time></trkpt><trkpt lat="42.0876433" lon="19.1220923"><ele>32.2</ele><time>2026-05-04T06:48:28.677Z</time></trkpt><trkpt lat="42.0877041" lon="19.1219858"><ele>31.6</ele><time>2026-05-04T06:48:29.678Z</time></trkpt><trkpt lat="42.0877553" lon="19.1218686"><ele>31.0</ele><time>2026-05-04T06:48:30.678Z</time></trkpt><trkpt lat="42.0878099" lon="19.1217521"><ele>31.0</ele><time>2026-05-04T06:48:31.678Z</time></trkpt><trkpt lat="42.0878643" lon="19.1216337"><ele>31.0</ele><time>2026-05-04T06:48:32.677Z</time></trkpt><trkpt lat="42.0879185" lon="19.1215132"><ele>31.0</ele><time>2026-05-04T06:48:33.677Z</time></trkpt><trkpt lat="42.0879728" lon="19.1213892"><ele>31.0</ele><time>2026-05-04T06:48:34.678Z</time></trkpt><trkpt lat="42.0880252" lon="19.1212586"><ele>31.0</ele><time>2026-05-04T06:48:35.677Z</time></trkpt><trkpt lat="42.0880777" lon="19.121124"><ele>30.8</ele><time>2026-05-04T06:48:36.677Z</time></trkpt><trkpt lat="42.088129" lon="19.1209913"><ele>30.6</ele><time>2026-05-04T06:48:37.677Z</time></trkpt><trkpt lat="42.0881766" lon="19.1208609"><ele>30.4</ele><time>2026-05-04T06:48:38.677Z</time></trkpt><trkpt lat="42.0882191" lon="19.1207336"><ele>30.2</ele><time>2026-05-04T06:48:39.678Z</time></trkpt><trkpt lat="42.0882587" lon="19.1206152"><ele>30.0</ele><time>2026-05-04T06:48:40.678Z</time></trkpt><trkpt lat="42.0882951" lon="19.1205026"><ele>30.0</ele><time>2026-05-04T06:48:41.678Z</time></trkpt><trkpt lat="42.0883344" lon="19.1204084"><ele>30.0</ele><time>2026-05-04T06:48:42.677Z</time></trkpt><trkpt lat="42.0883642" lon="19.1203074"><ele>30.0</ele><time>2026-05-04T06:48:43.677Z</time></trkpt><trkpt lat="42.0883966" lon="19.1202012"><ele>30.0</ele><time>2026-05-04T06:48:44.677Z</time></trkpt><trkpt lat="42.0884269" lon="19.1200927"><ele>30.0</ele><time>2026-05-04T06:48:45.677Z</time></trkpt><trkpt lat="42.0884607" lon="19.1199727"><ele>30.0</ele><time>2026-05-04T06:48:46.678Z</time></trkpt><trkpt lat="42.088496" lon="19.1198419"><ele>29.75</ele><time>2026-05-04T06:48:47.678Z</time></trkpt><trkpt lat="42.0885317" lon="19.1197048"><ele>29.5</ele><time>2026-05-04T06:48:48.678Z</time></trkpt><trkpt lat="42.08857" lon="19.1195586"><ele>29.25</ele><time>2026-05-04T06:48:49.678Z</time></trkpt><trkpt lat="42.0886169" lon="19.1193843"><ele>29.0</ele><time>2026-05-04T06:48:50.678Z</time></trkpt><trkpt lat="42.0886549" lon="19.1192263"><ele>28.75</ele><time>2026-05-04T06:48:51.677Z</time></trkpt><trkpt lat="42.0886908" lon="19.1190542"><ele>28.5</ele><time>2026-05-04T06:48:52.678Z</time></trkpt><trkpt lat="42.0887256" lon="19.1188889"><ele>28.25</ele><time>2026-05-04T06:48:53.677Z</time></trkpt><trkpt lat="42.0887633" lon="19.1187198"><ele>28.0</ele><time>2026-05-04T06:48:54.678Z</time></trkpt><trkpt lat="42.088801" lon="19.1185481"><ele>28.0</ele><time>2026-05-04T06:48:55.677Z</time></trkpt><trkpt lat="42.0888345" lon="19.1183781"><ele>28.0</ele><time>2026-05-04T06:48:56.677Z</time></trkpt><trkpt lat="42.0888692" lon="19.1182125"><ele>28.0</ele><time>2026-05-04T06:48:57.677Z</time></trkpt><trkpt lat="42.088902" lon="19.1180462"><ele>28.0</ele><time>2026-05-04T06:48:58.677Z</time></trkpt><trkpt lat="42.0889335" lon="19.1178801"><ele>27.75</ele><time>2026-05-04T06:48:59.677Z</time></trkpt><trkpt lat="42.088965" lon="19.1177139"><ele>27.5</ele><time>2026-05-04T06:49:00.677Z</time></trkpt><trkpt lat="42.088998" lon="19.1175544"><ele>27.25</ele><time>2026-05-04T06:49:01.678Z</time></trkpt><trkpt lat="42.0890283" lon="19.117382"><ele>27.0</ele><time>2026-05-04T06:49:02.677Z</time></trkpt><trkpt lat="42.0890613" lon="19.1172105"><ele>27.0</ele><time>2026-05-04T06:49:03.677Z</time></trkpt><trkpt lat="42.0890931" lon="19.1170304"><ele>27.0</ele><time>2026-05-04T06:49:04.677Z</time></trkpt><trkpt lat="42.0891263" lon="19.1168409"><ele>27.0</ele><time>2026-05-04T06:49:05.677Z</time></trkpt><trkpt lat="42.0891612" lon="19.1166593"><ele>27.0</ele><time>2026-05-04T06:49:06.678Z</time></trkpt><trkpt lat="42.0891948" lon="19.1164737"><ele>26.25</ele><time>2026-05-04T06:49:07.677Z</time></trkpt><trkpt lat="42.0892267" lon="19.1162944"><ele>25.5</ele><time>2026-05-04T06:49:08.677Z</time></trkpt><trkpt lat="42.0892593" lon="19.1161159"><ele>24.75</ele><time>2026-05-04T06:49:09.677Z</time></trkpt><trkpt lat="42.089293" lon="19.1159347"><ele>24.0</ele><time>2026-05-04T06:49:10.677Z</time></trkpt><trkpt lat="42.089324" lon="19.1157642"><ele>23.75</ele><time>2026-05-04T06:49:11.678Z</time></trkpt><trkpt lat="42.0893546" lon="19.1155948"><ele>23.5</ele><time>2026-05-04T06:49:12.678Z</time></trkpt><trkpt lat="42.0893865" lon="19.1154293"><ele>23.25</ele><time>2026-05-04T06:49:13.678Z</time></trkpt><trkpt lat="42.0894144" lon="19.115252"><ele>23.0</ele><time>2026-05-04T06:49:14.678Z</time></trkpt><trkpt lat="42.0894382" lon="19.1150716"><ele>23.0</ele><time>2026-05-04T06:49:15.677Z</time></trkpt><trkpt lat="42.0894678" lon="19.1148971"><ele>23.0</ele><time>2026-05-04T06:49:16.677Z</time></trkpt><trkpt lat="42.0895043" lon="19.1147209"><ele>23.0</ele><time>2026-05-04T06:49:17.678Z</time></trkpt><trkpt lat="42.0895391" lon="19.1145466"><ele>23.0</ele><time>2026-05-04T06:49:18.677Z</time></trkpt><trkpt lat="42.0895754" lon="19.1143738"><ele>23.0</ele><time>2026-05-04T06:49:19.677Z</time></trkpt><trkpt lat="42.0896194" lon="19.1142023"><ele>23.0</ele><time>2026-05-04T06:49:20.678Z</time></trkpt><trkpt lat="42.0896672" lon="19.114032"><ele>23.0</ele><time>2026-05-04T06:49:21.678Z</time></trkpt><trkpt lat="42.0897213" lon="19.1138678"><ele>23.0</ele><time>2026-05-04T06:49:22.677Z</time></trkpt><trkpt lat="42.0897844" lon="19.1137072"><ele>22.0</ele><time>2026-05-04T06:49:23.678Z</time></trkpt><trkpt lat="42.0898588" lon="19.1135463"><ele>21.0</ele><time>2026-05-04T06:49:24.678Z</time></trkpt><trkpt lat="42.089935" lon="19.1133872"><ele>20.0</ele><time>2026-05-04T06:49:25.677Z</time></trkpt><trkpt lat="42.0900164" lon="19.1132415"><ele>19.0</ele><time>2026-05-04T06:49:26.677Z</time></trkpt><trkpt lat="42.0900982" lon="19.1130972"><ele>18.25</ele><time>2026-05-04T06:49:27.678Z</time></trkpt><trkpt lat="42.0901827" lon="19.1129646"><ele>17.5</ele><time>2026-05-04T06:49:28.678Z</time></trkpt><trkpt lat="42.0902752" lon="19.1128455"><ele>16.75</ele><time>2026-05-04T06:49:29.678Z</time></trkpt><trkpt lat="42.0903675" lon="19.1127272"><ele>16.0</ele><time>2026-05-04T06:49:30.677Z</time></trkpt><trkpt lat="42.0904692" lon="19.1126168"><ele>16.0</ele><time>2026-05-04T06:49:31.678Z</time></trkpt><trkpt lat="42.0905793" lon="19.112513"><ele>16.0</ele><time>2026-05-04T06:49:32.678Z</time></trkpt><trkpt lat="42.0906946" lon="19.1124175"><ele>16.0</ele><time>2026-05-04T06:49:33.678Z</time></trkpt><trkpt lat="42.0908201" lon="19.1123314"><ele>16.0</ele><time>2026-05-04T06:49:34.677Z</time></trkpt><trkpt lat="42.0909438" lon="19.1122445"><ele>16.5</ele><time>2026-05-04T06:49:35.677Z</time></trkpt><trkpt lat="42.0910648" lon="19.1121658"><ele>17.0</ele><time>2026-05-04T06:49:36.678Z</time></trkpt><trkpt lat="42.0911943" lon="19.1120981"><ele>17.5</ele><time>2026-05-04T06:49:37.677Z</time></trkpt><trkpt lat="42.0913262" lon="19.1120424"><ele>18.0</ele><time>2026-05-04T06:49:38.677Z</time></trkpt><trkpt lat="42.091454" lon="19.1119972"><ele>18.0</ele><time>2026-05-04T06:49:39.678Z</time></trkpt><trkpt lat="42.0915727" lon="19.1119551"><ele>18.0</ele><time>2026-05-04T06:49:40.678Z</time></trkpt><trkpt lat="42.0916787" lon="19.1119143"><ele>18.0</ele><time>2026-05-04T06:49:41.678Z</time></trkpt><trkpt lat="42.0917698" lon="19.1118799"><ele>18.0</ele><time>2026-05-04T06:49:42.677Z</time></trkpt><trkpt lat="42.0918526" lon="19.1118515"><ele>18.0</ele><time>2026-05-04T06:49:43.677Z</time></trkpt><trkpt lat="42.0919228" lon="19.1118302"><ele>17.4</ele><time>2026-05-04T06:49:44.678Z</time></trkpt><trkpt lat="42.0920481" lon="19.1117985"><ele>16.8</ele><time>2026-05-04T06:49:46.678Z</time></trkpt><trkpt lat="42.0921135" lon="19.1117788"><ele>16.2</ele><time>2026-05-04T06:49:47.678Z</time></trkpt><trkpt lat="42.0921743" lon="19.1117523"><ele>15.6</ele><time>2026-05-04T06:49:48.678Z</time></trkpt><trkpt lat="42.0922698" lon="19.1116557"><ele>15.0</ele><time>2026-05-04T06:49:50.677Z</time></trkpt><trkpt lat="42.0923013" lon="19.1115497"><ele>14.666666666666666</ele><time>2026-05-04T06:49:52.678Z</time></trkpt><trkpt lat="42.0922901" lon="19.1114427"><ele>14.333333333333332</ele><time>2026-05-04T06:49:54.677Z</time></trkpt><trkpt lat="42.0922601" lon="19.1112897"><ele>14.0</ele><time>2026-05-04T06:49:56.678Z</time></trkpt><trkpt lat="42.0922455" lon="19.1111867"><ele>13.666666666666666</ele><time>2026-05-04T06:49:57.678Z</time></trkpt><trkpt lat="42.0922361" lon="19.1110895"><ele>13.333333333333332</ele><time>2026-05-04T06:49:58.677Z</time></trkpt><trkpt lat="42.0922271" lon="19.1109833"><ele>13.0</ele><time>2026-05-04T06:49:59.678Z</time></trkpt><trkpt lat="42.0922185" lon="19.1108688"><ele>13.0</ele><time>2026-05-04T06:50:00.678Z</time></trkpt><trkpt lat="42.0922127" lon="19.110745"><ele>13.0</ele><time>2026-05-04T06:50:01.677Z</time></trkpt><trkpt lat="42.0922108" lon="19.1106187"><ele>13.0</ele><time>2026-05-04T06:50:02.678Z</time></trkpt><trkpt lat="42.0922143" lon="19.1104767"><ele>13.0</ele><time>2026-05-04T06:50:03.677Z</time></trkpt><trkpt lat="42.0922206" lon="19.1103227"><ele>13.0</ele><time>2026-05-04T06:50:04.678Z</time></trkpt><trkpt lat="42.0922333" lon="19.1101642"><ele>13.0</ele><time>2026-05-04T06:50:05.677Z</time></trkpt><trkpt lat="42.0922587" lon="19.1100006"><ele>13.0</ele><time>2026-05-04T06:50:06.678Z</time></trkpt><trkpt lat="42.0922847" lon="19.1098447"><ele>13.0</ele><time>2026-05-04T06:50:07.678Z</time></trkpt><trkpt lat="42.0923135" lon="19.1096929"><ele>13.0</ele><time>2026-05-04T06:50:08.678Z</time></trkpt><trkpt lat="42.0923405" lon="19.1095373"><ele>13.0</ele><time>2026-05-04T06:50:09.677Z</time></trkpt><trkpt lat="42.092364" lon="19.1093928"><ele>13.0</ele><time>2026-05-04T06:50:10.678Z</time></trkpt><trkpt lat="42.0923831" lon="19.1092335"><ele>13.0</ele><time>2026-05-04T06:50:11.678Z</time></trkpt><trkpt lat="42.0924047" lon="19.1090782"><ele>13.0</ele><time>2026-05-04T06:50:12.678Z</time></trkpt><trkpt lat="42.0924256" lon="19.1089238"><ele>12.5</ele><time>2026-05-04T06:50:13.678Z</time></trkpt><trkpt lat="42.092445" lon="19.108772"><ele>12.0</ele><time>2026-05-04T06:50:14.678Z</time></trkpt><trkpt lat="42.0924651" lon="19.1086193"><ele>11.5</ele><time>2026-05-04T06:50:15.677Z</time></trkpt><trkpt lat="42.0924858" lon="19.1084678"><ele>11.0</ele><time>2026-05-04T06:50:16.677Z</time></trkpt><trkpt lat="42.0925076" lon="19.1083083"><ele>10.5</ele><time>2026-05-04T06:50:17.678Z</time></trkpt><trkpt lat="42.0925327" lon="19.1081212"><ele>10.0</ele><time>2026-05-04T06:50:18.678Z</time></trkpt><trkpt lat="42.0925578" lon="19.1079353"><ele>9.5</ele><time>2026-05-04T06:50:19.678Z</time></trkpt><trkpt lat="42.0925824" lon="19.1077562"><ele>9.0</ele><time>2026-05-04T06:50:20.678Z</time></trkpt><trkpt lat="42.0926045" lon="19.1075843"><ele>9.0</ele><time>2026-05-04T06:50:21.678Z</time></trkpt><trkpt lat="42.0926238" lon="19.1074194"><ele>9.0</ele><time>2026-05-04T06:50:22.677Z</time></trkpt><trkpt lat="42.0926408" lon="19.1072665"><ele>9.0</ele><time>2026-05-04T06:50:23.677Z</time></trkpt><trkpt lat="42.0926736" lon="19.1071105"><ele>9.0</ele><time>2026-05-04T06:50:24.678Z</time></trkpt><trkpt lat="42.0927087" lon="19.1069592"><ele>9.0</ele><time>2026-05-04T06:50:25.678Z</time></trkpt><trkpt lat="42.0927242" lon="19.1068011"><ele>9.0</ele><time>2026-05-04T06:50:26.677Z</time></trkpt><trkpt lat="42.0927447" lon="19.1066441"><ele>9.0</ele><time>2026-05-04T06:50:27.677Z</time></trkpt><trkpt lat="42.0927648" lon="19.1064907"><ele>9.0</ele><time>2026-05-04T06:50:28.677Z</time></trkpt><trkpt lat="42.092785" lon="19.1063355"><ele>8.75</ele><time>2026-05-04T06:50:29.678Z</time></trkpt><trkpt lat="42.0928056" lon="19.1061759"><ele>8.5</ele><time>2026-05-04T06:50:30.677Z</time></trkpt><trkpt lat="42.092825" lon="19.1060123"><ele>8.25</ele><time>2026-05-04T06:50:31.677Z</time></trkpt><trkpt lat="42.0928457" lon="19.1058466"><ele>8.0</ele><time>2026-05-04T06:50:32.678Z</time></trkpt><trkpt lat="42.0928663" lon="19.1056797"><ele>7.800000000000001</ele><time>2026-05-04T06:50:33.678Z</time></trkpt><trkpt lat="42.0928867" lon="19.1055194"><ele>7.6000000000000005</ele><time>2026-05-04T06:50:34.678Z</time></trkpt><trkpt lat="42.0929039" lon="19.1053707"><ele>7.3999999999999995</ele><time>2026-05-04T06:50:35.678Z</time></trkpt><trkpt lat="42.0929186" lon="19.1052375"><ele>7.199999999999999</ele><time>2026-05-04T06:50:36.678Z</time></trkpt><trkpt lat="42.0929367" lon="19.1050874"><ele>7.0</ele><time>2026-05-04T06:50:37.677Z</time></trkpt><trkpt lat="42.0929561" lon="19.1049337"><ele>6.75</ele><time>2026-05-04T06:50:38.678Z</time></trkpt><trkpt lat="42.0929735" lon="19.104775"><ele>6.5</ele><time>2026-05-04T06:50:39.678Z</time></trkpt><trkpt lat="42.0929937" lon="19.1046137"><ele>6.25</ele><time>2026-05-04T06:50:40.678Z</time></trkpt><trkpt lat="42.0930152" lon="19.1044481"><ele>6.0</ele><time>2026-05-04T06:50:41.677Z</time></trkpt><trkpt lat="42.0930364" lon="19.1042749"><ele>6.0</ele><time>2026-05-04T06:50:42.677Z</time></trkpt><trkpt lat="42.0930588" lon="19.1041015"><ele>6.0</ele><time>2026-05-04T06:50:43.678Z</time></trkpt><trkpt lat="42.0930804" lon="19.1039265"><ele>6.0</ele><time>2026-05-04T06:50:44.678Z</time></trkpt><trkpt lat="42.0931036" lon="19.1037536"><ele>6.0</ele><time>2026-05-04T06:50:45.678Z</time></trkpt><trkpt lat="42.0931239" lon="19.1035784"><ele>5.75</ele><time>2026-05-04T06:50:46.677Z</time></trkpt><trkpt lat="42.0931604" lon="19.1034057"><ele>5.5</ele><time>2026-05-04T06:50:47.678Z</time></trkpt><trkpt lat="42.0931868" lon="19.1032116"><ele>5.25</ele><time>2026-05-04T06:50:48.678Z</time></trkpt><trkpt lat="42.0932057" lon="19.1030326"><ele>5.0</ele><time>2026-05-04T06:50:49.678Z</time></trkpt><trkpt lat="42.0932324" lon="19.1028523"><ele>5.0</ele><time>2026-05-04T06:50:50.677Z</time></trkpt><trkpt lat="42.0932537" lon="19.102663"><ele>5.0</ele><time>2026-05-04T06:50:51.677Z</time></trkpt><trkpt lat="42.0932779" lon="19.1024747"><ele>5.0</ele><time>2026-05-04T06:50:52.678Z</time></trkpt><trkpt lat="42.0933015" lon="19.1022843"><ele>5.0</ele><time>2026-05-04T06:50:53.678Z</time></trkpt><trkpt lat="42.0933242" lon="19.1020933"><ele>4.75</ele><time>2026-05-04T06:50:54.677Z</time></trkpt><trkpt lat="42.0933471" lon="19.1019046"><ele>4.5</ele><time>2026-05-04T06:50:55.678Z</time></trkpt><trkpt lat="42.0933743" lon="19.1017185"><ele>4.25</ele><time>2026-05-04T06:50:56.677Z</time></trkpt><trkpt lat="42.0933995" lon="19.1015237"><ele>4.0</ele><time>2026-05-04T06:50:57.677Z</time></trkpt><trkpt lat="42.0934139" lon="19.1013337"><ele>4.0</ele><time>2026-05-04T06:50:58.677Z</time></trkpt><trkpt lat="42.093455" lon="19.1009612"><ele>4.0</ele><time>2026-05-04T06:51:00.678Z</time></trkpt><trkpt lat="42.0934791" lon="19.100781"><ele>4.0</ele><time>2026-05-04T06:51:01.678Z</time></trkpt><trkpt lat="42.0935032" lon="19.1006041"><ele>4.0</ele><time>2026-05-04T06:51:02.678Z</time></trkpt><trkpt lat="42.0935254" lon="19.1004285"><ele>4.0</ele><time>2026-05-04T06:51:03.678Z</time></trkpt><trkpt lat="42.0935463" lon="19.1002547"><ele>4.0</ele><time>2026-05-04T06:51:04.677Z</time></trkpt><trkpt lat="42.0935702" lon="19.1000793"><ele>4.0</ele><time>2026-05-04T06:51:05.678Z</time></trkpt><trkpt lat="42.0935981" lon="19.0999101"><ele>3.8000000000000003</ele><time>2026-05-04T06:51:06.678Z</time></trkpt><trkpt lat="42.0936223" lon="19.0997412"><ele>3.6000000000000005</ele><time>2026-05-04T06:51:07.678Z</time></trkpt><trkpt lat="42.0936413" lon="19.0995904"><ele>3.4</ele><time>2026-05-04T06:51:08.677Z</time></trkpt><trkpt lat="42.0936571" lon="19.099453"><ele>3.2</ele><time>2026-05-04T06:51:09.678Z</time></trkpt><trkpt lat="42.0936712" lon="19.0993305"><ele>3.0</ele><time>2026-05-04T06:51:10.677Z</time></trkpt><trkpt lat="42.0936837" lon="19.0992281"><ele>2.9999999999999996</ele><time>2026-05-04T06:51:11.678Z</time></trkpt><trkpt lat="42.0936951" lon="19.0991426"><ele>3.0</ele><time>2026-05-04T06:51:12.678Z</time></trkpt><trkpt lat="42.0937102" lon="19.0990366"><ele>3.0</ele><time>2026-05-04T06:51:14.678Z</time></trkpt><trkpt lat="42.0937253" lon="19.0989373"><ele>3.0</ele><time>2026-05-04T06:51:17.678Z</time></trkpt><trkpt lat="42.0937583" lon="19.098838"><ele>3.0</ele><time>2026-05-04T06:51:19.678Z</time></trkpt><trkpt lat="42.0937985" lon="19.0987514"><ele>2.9999999999999996</ele><time>2026-05-04T06:51:21.677Z</time></trkpt><trkpt lat="42.093842" lon="19.0986797"><ele>3.0</ele><time>2026-05-04T06:51:23.677Z</time></trkpt><trkpt lat="42.0939444" lon="19.0985813"><ele>3.0</ele><time>2026-05-04T06:51:25.678Z</time></trkpt><trkpt lat="42.0940054" lon="19.0985485"><ele>3.0</ele><time>2026-05-04T06:51:26.677Z</time></trkpt><trkpt lat="42.0940706" lon="19.0985345"><ele>3.0</ele><time>2026-05-04T06:51:27.677Z</time></trkpt><trkpt lat="42.0941432" lon="19.0985239"><ele>3.0</ele><time>2026-05-04T06:51:28.677Z</time></trkpt><trkpt lat="42.0942211" lon="19.0985161"><ele>3.0</ele><time>2026-05-04T06:51:29.678Z</time></trkpt><trkpt lat="42.0943046" lon="19.0985085"><ele>3.0</ele><time>2026-05-04T06:51:30.678Z</time></trkpt><trkpt lat="42.0943951" lon="19.0985136"><ele>3.0</ele><time>2026-05-04T06:51:31.677Z</time></trkpt><trkpt lat="42.0944916" lon="19.098515"><ele>3.0</ele><time>2026-05-04T06:51:32.677Z</time></trkpt><trkpt lat="42.0945933" lon="19.0985157"><ele>3.0</ele><time>2026-05-04T06:51:33.678Z</time></trkpt><trkpt lat="42.0946907" lon="19.0985173"><ele>3.0</ele><time>2026-05-04T06:51:34.678Z</time></trkpt><trkpt lat="42.0947921" lon="19.0985308"><ele>3.0</ele><time>2026-05-04T06:51:35.678Z</time></trkpt><trkpt lat="42.0949016" lon="19.0985326"><ele>4.2</ele><time>2026-05-04T06:51:36.677Z</time></trkpt><trkpt lat="42.0950044" lon="19.0985305"><ele>5.4</ele><time>2026-05-04T06:51:37.677Z</time></trkpt><trkpt lat="42.0951117" lon="19.0985236"><ele>6.6000000000000005</ele><time>2026-05-04T06:51:38.678Z</time></trkpt><trkpt lat="42.0952212" lon="19.0985231"><ele>7.8</ele><time>2026-05-04T06:51:39.678Z</time></trkpt><trkpt lat="42.0953335" lon="19.0985263"><ele>9.0</ele><time>2026-05-04T06:51:40.677Z</time></trkpt><trkpt lat="42.0954466" lon="19.0985285"><ele>9.0</ele><time>2026-05-04T06:51:41.678Z</time></trkpt><trkpt lat="42.0955581" lon="19.0985293"><ele>9.0</ele><time>2026-05-04T06:51:42.678Z</time></trkpt><trkpt lat="42.0956712" lon="19.0985312"><ele>9.0</ele><time>2026-05-04T06:51:43.678Z</time></trkpt><trkpt lat="42.0957838" lon="19.0985299"><ele>9.0</ele><time>2026-05-04T06:51:44.678Z</time></trkpt><trkpt lat="42.0958949" lon="19.0985242"><ele>9.0</ele><time>2026-05-04T06:51:45.677Z</time></trkpt><trkpt lat="42.0960044" lon="19.0985153"><ele>8.2</ele><time>2026-05-04T06:51:46.678Z</time></trkpt><trkpt lat="42.0961035" lon="19.0985109"><ele>7.4</ele><time>2026-05-04T06:51:47.678Z</time></trkpt><trkpt lat="42.0961945" lon="19.0985088"><ele>6.6</ele><time>2026-05-04T06:51:48.677Z</time></trkpt><trkpt lat="42.0962883" lon="19.0985091"><ele>5.8</ele><time>2026-05-04T06:51:49.678Z</time></trkpt><trkpt lat="42.0963783" lon="19.0985092"><ele>5.0</ele><time>2026-05-04T06:51:50.677Z</time></trkpt><trkpt lat="42.0964638" lon="19.0985184"><ele>5.0</ele><time>2026-05-04T06:51:51.677Z</time></trkpt><trkpt lat="42.0965547" lon="19.0985269"><ele>5.0</ele><time>2026-05-04T06:51:52.678Z</time></trkpt><trkpt lat="42.0966423" lon="19.0985313"><ele>5.0</ele><time>2026-05-04T06:51:53.677Z</time></trkpt><trkpt lat="42.0967334" lon="19.098529"><ele>5.0</ele><time>2026-05-04T06:51:54.677Z</time></trkpt><trkpt lat="42.0968306" lon="19.0985294"><ele>5.0</ele><time>2026-05-04T06:51:55.678Z</time></trkpt><trkpt lat="42.0969557" lon="19.0985261"><ele>4.5</ele><time>2026-05-04T06:51:56.677Z</time></trkpt><trkpt lat="42.0970667" lon="19.0985255"><ele>4.0</ele><time>2026-05-04T06:51:57.678Z</time></trkpt><trkpt lat="42.0971783" lon="19.09852"><ele>3.5</ele><time>2026-05-04T06:51:58.678Z</time></trkpt><trkpt lat="42.0972905" lon="19.0985125"><ele>3.0</ele><time>2026-05-04T06:51:59.678Z</time></trkpt><trkpt lat="42.0974058" lon="19.0985207"><ele>3.75</ele><time>2026-05-04T06:52:00.677Z</time></trkpt><trkpt lat="42.0975217" lon="19.0985246"><ele>4.5</ele><time>2026-05-04T06:52:01.678Z</time></trkpt><trkpt lat="42.0976367" lon="19.0985283"><ele>5.25</ele><time>2026-05-04T06:52:02.677Z</time></trkpt><trkpt lat="42.0977504" lon="19.0985303"><ele>6.0</ele><time>2026-05-04T06:52:03.678Z</time></trkpt><trkpt lat="42.0978619" lon="19.0985336"><ele>6.0</ele><time>2026-05-04T06:52:04.678Z</time></trkpt><trkpt lat="42.0979748" lon="19.0985358"><ele>6.0</ele><time>2026-05-04T06:52:05.677Z</time></trkpt><trkpt lat="42.098087" lon="19.0985354"><ele>6.0</ele><time>2026-05-04T06:52:06.677Z</time></trkpt><trkpt lat="42.098198" lon="19.0985372"><ele>6.0</ele><time>2026-05-04T06:52:07.678Z</time></trkpt><trkpt lat="42.0983029" lon="19.0985362"><ele>6.0</ele><time>2026-05-04T06:52:08.677Z</time></trkpt><trkpt lat="42.098395" lon="19.0985412"><ele>5.666666666666667</ele><time>2026-05-04T06:52:09.678Z</time></trkpt><trkpt lat="42.0984785" lon="19.0985453"><ele>5.333333333333333</ele><time>2026-05-04T06:52:10.677Z</time></trkpt><trkpt lat="42.0985517" lon="19.0985535"><ele>5.0</ele><time>2026-05-04T06:52:11.678Z</time></trkpt><trkpt lat="42.0986301" lon="19.0985627"><ele>4.666666666666666</ele><time>2026-05-04T06:52:12.678Z</time></trkpt><trkpt lat="42.0987107" lon="19.0985751"><ele>4.333333333333333</ele><time>2026-05-04T06:52:13.678Z</time></trkpt><trkpt lat="42.0988096" lon="19.0985752"><ele>4.0</ele><time>2026-05-04T06:52:14.677Z</time></trkpt><trkpt lat="42.0989322" lon="19.0985634"><ele>4.0</ele><time>2026-05-04T06:52:15.677Z</time></trkpt><trkpt lat="42.0990618" lon="19.0985592"><ele>4.0</ele><time>2026-05-04T06:52:16.678Z</time></trkpt><trkpt lat="42.0991975" lon="19.0985599"><ele>4.0</ele><time>2026-05-04T06:52:17.677Z</time></trkpt><trkpt lat="42.0993393" lon="19.0985584"><ele>4.0</ele><time>2026-05-04T06:52:18.678Z</time></trkpt><trkpt lat="42.0994868" lon="19.0985574"><ele>4.0</ele><time>2026-05-04T06:52:19.678Z</time></trkpt><trkpt lat="42.0996287" lon="19.098556"><ele>4.0</ele><time>2026-05-04T06:52:20.677Z</time></trkpt><trkpt lat="42.0997727" lon="19.0985601"><ele>4.0</ele><time>2026-05-04T06:52:21.677Z</time></trkpt><trkpt lat="42.0999188" lon="19.0985606"><ele>4.0</ele><time>2026-05-04T06:52:22.678Z</time></trkpt><trkpt lat="42.1000732" lon="19.098561"><ele>4.0</ele><time>2026-05-04T06:52:23.678Z</time></trkpt><trkpt lat="42.1002253" lon="19.0985637"><ele>4.0</ele><time>2026-05-04T06:52:24.678Z</time></trkpt><trkpt lat="42.1003684" lon="19.0985657"><ele>4.0</ele><time>2026-05-04T06:52:25.678Z</time></trkpt><trkpt lat="42.1005039" lon="19.0985658"><ele>4.0</ele><time>2026-05-04T06:52:26.677Z</time></trkpt><trkpt lat="42.1006387" lon="19.0985618"><ele>4.800000000000001</ele><time>2026-05-04T06:52:27.678Z</time></trkpt><trkpt lat="42.1007648" lon="19.0985661"><ele>5.6000000000000005</ele><time>2026-05-04T06:52:28.678Z</time></trkpt><trkpt lat="42.1008832" lon="19.098571"><ele>6.4</ele><time>2026-05-04T06:52:29.677Z</time></trkpt><trkpt lat="42.1009883" lon="19.0985802"><ele>7.2</ele><time>2026-05-04T06:52:30.677Z</time></trkpt><trkpt lat="42.1010852" lon="19.09859"><ele>8.0</ele><time>2026-05-04T06:52:31.677Z</time></trkpt><trkpt lat="42.1011722" lon="19.0985812"><ele>7.999999999999999</ele><time>2026-05-04T06:52:32.678Z</time></trkpt><trkpt lat="42.1012598" lon="19.0985902"><ele>8.0</ele><time>2026-05-04T06:52:33.677Z</time></trkpt><trkpt lat="42.1013542" lon="19.0986005"><ele>8.0</ele><time>2026-05-04T06:52:34.678Z</time></trkpt><trkpt lat="42.1014229" lon="19.098612"><ele>8.0</ele><time>2026-05-04T06:52:35.678Z</time></trkpt><trkpt lat="42.1015168" lon="19.0986173"><ele>7.999999999999999</ele><time>2026-05-04T06:52:37.678Z</time></trkpt><trkpt lat="42.1015979" lon="19.0986216"><ele>8.0</ele><time>2026-05-04T06:52:40.677Z</time></trkpt><trkpt lat="42.1016973" lon="19.0986268"><ele>8.200000000000001</ele><time>2026-05-04T06:53:17.677Z</time></trkpt><trkpt lat="42.1017885" lon="19.0986278"><ele>8.4</ele><time>2026-05-04T06:53:19.677Z</time></trkpt><trkpt lat="42.101907" lon="19.0986381"><ele>8.600000000000001</ele><time>2026-05-04T06:53:21.677Z</time></trkpt><trkpt lat="42.1019757" lon="19.0986413"><ele>8.8</ele><time>2026-05-04T06:53:22.677Z</time></trkpt><trkpt lat="42.1020572" lon="19.0986322"><ele>9.0</ele><time>2026-05-04T06:53:23.678Z</time></trkpt><trkpt lat="42.1021537" lon="19.0986243"><ele>9.0</ele><time>2026-05-04T06:53:24.678Z</time></trkpt><trkpt lat="42.1022686" lon="19.0986226"><ele>9.0</ele><time>2026-05-04T06:53:25.677Z</time></trkpt><trkpt lat="42.1024041" lon="19.098619"><ele>9.0</ele><time>2026-05-04T06:53:26.678Z</time></trkpt><trkpt lat="42.1025398" lon="19.0986205"><ele>9.0</ele><time>2026-05-04T06:53:27.678Z</time></trkpt><trkpt lat="42.1026886" lon="19.0986043"><ele>8.666666666666666</ele><time>2026-05-04T06:53:28.657Z</time></trkpt><trkpt lat="42.1028441" lon="19.0985954"><ele>8.333333333333332</ele><time>2026-05-04T06:53:29.659Z</time></trkpt><trkpt lat="42.1029941" lon="19.0986254"><ele>8.0</ele><time>2026-05-04T06:53:30.659Z</time></trkpt><trkpt lat="42.1031416" lon="19.0986452"><ele>8.25</ele><time>2026-05-04T06:53:31.658Z</time></trkpt><trkpt lat="42.103286" lon="19.0986533"><ele>8.5</ele><time>2026-05-04T06:53:32.657Z</time></trkpt><trkpt lat="42.1034284" lon="19.098655"><ele>8.75</ele><time>2026-05-04T06:53:33.658Z</time></trkpt><trkpt lat="42.103569" lon="19.0986542"><ele>9.0</ele><time>2026-05-04T06:53:34.657Z</time></trkpt><trkpt lat="42.1037078" lon="19.0986566"><ele>9.0</ele><time>2026-05-04T06:53:35.657Z</time></trkpt><trkpt lat="42.1038487" lon="19.0986639"><ele>9.0</ele><time>2026-05-04T06:53:36.658Z</time></trkpt><trkpt lat="42.103992" lon="19.098668"><ele>9.0</ele><time>2026-05-04T06:53:37.658Z</time></trkpt><trkpt lat="42.1041299" lon="19.0986607"><ele>9.0</ele><time>2026-05-04T06:53:38.658Z</time></trkpt><trkpt lat="42.1042699" lon="19.098664"><ele>9.0</ele><time>2026-05-04T06:53:39.658Z</time></trkpt><trkpt lat="42.1044093" lon="19.0986677"><ele>9.0</ele><time>2026-05-04T06:53:40.658Z</time></trkpt><trkpt lat="42.1045485" lon="19.0986652"><ele>9.0</ele><time>2026-05-04T06:53:41.657Z</time></trkpt><trkpt lat="42.1046887" lon="19.0986546"><ele>9.0</ele><time>2026-05-04T06:53:42.657Z</time></trkpt><trkpt lat="42.1048284" lon="19.0986362"><ele>10.0</ele><time>2026-05-04T06:53:43.657Z</time></trkpt><trkpt lat="42.1049666" lon="19.0986105"><ele>11.0</ele><time>2026-05-04T06:53:44.658Z</time></trkpt><trkpt lat="42.1051044" lon="19.0985758"><ele>12.0</ele><time>2026-05-04T06:53:45.658Z</time></trkpt><trkpt lat="42.1052411" lon="19.0985313"><ele>13.0</ele><time>2026-05-04T06:53:46.658Z</time></trkpt><trkpt lat="42.1053749" lon="19.0984807"><ele>13.0</ele><time>2026-05-04T06:53:47.658Z</time></trkpt><trkpt lat="42.1055063" lon="19.0984219"><ele>13.0</ele><time>2026-05-04T06:53:48.657Z</time></trkpt><trkpt lat="42.1056368" lon="19.0983487"><ele>13.0</ele><time>2026-05-04T06:53:49.657Z</time></trkpt><trkpt lat="42.1057629" lon="19.0982668"><ele>13.0</ele><time>2026-05-04T06:53:50.657Z</time></trkpt><trkpt lat="42.1058864" lon="19.0981779"><ele>12.75</ele><time>2026-05-04T06:53:51.658Z</time></trkpt><trkpt lat="42.1060065" lon="19.0980837"><ele>12.5</ele><time>2026-05-04T06:53:52.658Z</time></trkpt><trkpt lat="42.1061156" lon="19.0979891"><ele>12.25</ele><time>2026-05-04T06:53:53.657Z</time></trkpt><trkpt lat="42.1062174" lon="19.0978997"><ele>12.0</ele><time>2026-05-04T06:53:54.658Z</time></trkpt><trkpt lat="42.1063133" lon="19.0978082"><ele>12.0</ele><time>2026-05-04T06:53:55.657Z</time></trkpt><trkpt lat="42.1064032" lon="19.0977245"><ele>12.0</ele><time>2026-05-04T06:53:56.657Z</time></trkpt><trkpt lat="42.1064848" lon="19.0976478"><ele>12.0</ele><time>2026-05-04T06:53:57.657Z</time></trkpt><trkpt lat="42.1065639" lon="19.0975914"><ele>12.0</ele><time>2026-05-04T06:53:58.657Z</time></trkpt><trkpt lat="42.1066419" lon="19.0975556"><ele>12.0</ele><time>2026-05-04T06:53:59.658Z</time></trkpt><trkpt lat="42.1067144" lon="19.0975377"><ele>12.166666666666666</ele><time>2026-05-04T06:54:00.658Z</time></trkpt><trkpt lat="42.1067836" lon="19.0975146"><ele>12.333333333333332</ele><time>2026-05-04T06:54:01.657Z</time></trkpt><trkpt lat="42.1068469" lon="19.0974754"><ele>12.5</ele><time>2026-05-04T06:54:02.657Z</time></trkpt><trkpt lat="42.106898" lon="19.09742"><ele>12.666666666666666</ele><time>2026-05-04T06:54:03.658Z</time></trkpt><trkpt lat="42.1069092" lon="19.0972927"><ele>12.833333333333332</ele><time>2026-05-04T06:54:05.658Z</time></trkpt><trkpt lat="42.1068749" lon="19.0971402"><ele>13.0</ele><time>2026-05-04T06:54:07.658Z</time></trkpt><trkpt lat="42.1068554" lon="19.0970545"><ele>13.0</ele><time>2026-05-04T06:54:08.657Z</time></trkpt><trkpt lat="42.106833" lon="19.0968727"><ele>13.0</ele><time>2026-05-04T06:54:10.658Z</time></trkpt><trkpt lat="42.1068334" lon="19.096762"><ele>13.0</ele><time>2026-05-04T06:54:11.658Z</time></trkpt><trkpt lat="42.1068399" lon="19.0966356"><ele>13.0</ele><time>2026-05-04T06:54:12.657Z</time></trkpt><trkpt lat="42.1068475" lon="19.0965005"><ele>13.0</ele><time>2026-05-04T06:54:13.658Z</time></trkpt><trkpt lat="42.1068572" lon="19.096358"><ele>13.0</ele><time>2026-05-04T06:54:14.657Z</time></trkpt><trkpt lat="42.1068668" lon="19.0962087"><ele>13.0</ele><time>2026-05-04T06:54:15.657Z</time></trkpt><trkpt lat="42.1068784" lon="19.0960539"><ele>13.0</ele><time>2026-05-04T06:54:16.657Z</time></trkpt><trkpt lat="42.1068902" lon="19.0958962"><ele>13.0</ele><time>2026-05-04T06:54:17.658Z</time></trkpt><trkpt lat="42.1069017" lon="19.0957425"><ele>12.600000000000001</ele><time>2026-05-04T06:54:18.658Z</time></trkpt><trkpt lat="42.1069126" lon="19.0955981"><ele>12.200000000000001</ele><time>2026-05-04T06:54:19.658Z</time></trkpt><trkpt lat="42.1069231" lon="19.0954564"><ele>11.8</ele><time>2026-05-04T06:54:20.658Z</time></trkpt><trkpt lat="42.1069324" lon="19.0953064"><ele>11.4</ele><time>2026-05-04T06:54:21.657Z</time></trkpt><trkpt lat="42.106941" lon="19.0951502"><ele>11.0</ele><time>2026-05-04T06:54:22.657Z</time></trkpt><trkpt lat="42.1069492" lon="19.0950009"><ele>10.833333333333332</ele><time>2026-05-04T06:54:23.658Z</time></trkpt><trkpt lat="42.1069584" lon="19.0948729"><ele>10.666666666666666</ele><time>2026-05-04T06:54:24.657Z</time></trkpt><trkpt lat="42.1069686" lon="19.0947748"><ele>10.5</ele><time>2026-05-04T06:54:25.657Z</time></trkpt><trkpt lat="42.1070097" lon="19.0946337"><ele>10.333333333333334</ele><time>2026-05-04T06:54:27.658Z</time></trkpt><trkpt lat="42.1070539" lon="19.0945341"><ele>10.166666666666668</ele><time>2026-05-04T06:54:29.657Z</time></trkpt><trkpt lat="42.1070753" lon="19.0944488"><ele>10.0</ele><time>2026-05-04T06:54:32.657Z</time></trkpt><trkpt lat="42.1070807" lon="19.0943632"><ele>10.0</ele><time>2026-05-04T06:54:47.657Z</time></trkpt><trkpt lat="42.1070835" lon="19.0942041"><ele>10.0</ele><time>2026-05-04T06:54:49.657Z</time></trkpt><trkpt lat="42.1070842" lon="19.094107"><ele>10.0</ele><time>2026-05-04T06:54:50.658Z</time></trkpt><trkpt lat="42.107085" lon="19.0940107"><ele>10.0</ele><time>2026-05-04T06:54:51.658Z</time></trkpt><trkpt lat="42.1070883" lon="19.0939205"><ele>10.0</ele><time>2026-05-04T06:54:52.658Z</time></trkpt><trkpt lat="42.1070727" lon="19.0937601"><ele>10.0</ele><time>2026-05-04T06:54:54.657Z</time></trkpt><trkpt lat="42.1070562" lon="19.093662"><ele>9.6</ele><time>2026-05-04T06:54:55.657Z</time></trkpt><trkpt lat="42.1070434" lon="19.0935454"><ele>9.2</ele><time>2026-05-04T06:54:56.657Z</time></trkpt><trkpt lat="42.1070357" lon="19.0934071"><ele>8.8</ele><time>2026-05-04T06:54:57.657Z</time></trkpt><trkpt lat="42.1070286" lon="19.0932636"><ele>8.4</ele><time>2026-05-04T06:54:58.657Z</time></trkpt><trkpt lat="42.1070255" lon="19.09311"><ele>8.0</ele><time>2026-05-04T06:54:59.657Z</time></trkpt><trkpt lat="42.1070289" lon="19.0929422"><ele>7.5</ele><time>2026-05-04T06:55:00.658Z</time></trkpt><trkpt lat="42.1070228" lon="19.0927699"><ele>7.0</ele><time>2026-05-04T06:55:01.658Z</time></trkpt><trkpt lat="42.1070137" lon="19.0925981"><ele>6.5</ele><time>2026-05-04T06:55:02.658Z</time></trkpt><trkpt lat="42.1070016" lon="19.092424"><ele>6.0</ele><time>2026-05-04T06:55:03.658Z</time></trkpt><trkpt lat="42.1069851" lon="19.0922492"><ele>6.0</ele><time>2026-05-04T06:55:04.658Z</time></trkpt><trkpt lat="42.1069635" lon="19.0920724"><ele>6.0</ele><time>2026-05-04T06:55:05.657Z</time></trkpt><trkpt lat="42.1069384" lon="19.0918991"><ele>6.0</ele><time>2026-05-04T06:55:06.658Z</time></trkpt><trkpt lat="42.1069127" lon="19.0917344"><ele>6.0</ele><time>2026-05-04T06:55:07.657Z</time></trkpt><trkpt lat="42.1068877" lon="19.0915816"><ele>6.199999999999999</ele><time>2026-05-04T06:55:08.657Z</time></trkpt><trkpt lat="42.1068639" lon="19.0914383"><ele>6.3999999999999995</ele><time>2026-05-04T06:55:09.657Z</time></trkpt><trkpt lat="42.1068428" lon="19.0913036"><ele>6.6</ele><time>2026-05-04T06:55:10.657Z</time></trkpt><trkpt lat="42.1068281" lon="19.0911784"><ele>6.8</ele><time>2026-05-04T06:55:11.657Z</time></trkpt><trkpt lat="42.1068268" lon="19.0910651"><ele>7.0</ele><time>2026-05-04T06:55:12.657Z</time></trkpt><trkpt lat="42.1068353" lon="19.090966"><ele>7.0</ele><time>2026-05-04T06:55:13.658Z</time></trkpt><trkpt lat="42.1068558" lon="19.0908825"><ele>7.0</ele><time>2026-05-04T06:55:14.657Z</time></trkpt><trkpt lat="42.1068885" lon="19.0908069"><ele>7.0</ele><time>2026-05-04T06:55:15.657Z</time></trkpt><trkpt lat="42.1069277" lon="19.0907375"><ele>7.0</ele><time>2026-05-04T06:55:16.657Z</time></trkpt><trkpt lat="42.1069738" lon="19.0906714"><ele>7.0</ele><time>2026-05-04T06:55:17.658Z</time></trkpt><trkpt lat="42.1070274" lon="19.0905964"><ele>7.0</ele><time>2026-05-04T06:55:18.658Z</time></trkpt><trkpt lat="42.107093" lon="19.0905334"><ele>7.0</ele><time>2026-05-04T06:55:19.657Z</time></trkpt><trkpt lat="42.107169" lon="19.09048"><ele>7.0</ele><time>2026-05-04T06:55:20.657Z</time></trkpt><trkpt lat="42.1072516" lon="19.0904329"><ele>6.999999999999999</ele><time>2026-05-04T06:55:21.658Z</time></trkpt><trkpt lat="42.1073432" lon="19.0903856"><ele>6.999999999999999</ele><time>2026-05-04T06:55:22.658Z</time></trkpt><trkpt lat="42.1074437" lon="19.0903296"><ele>7.0</ele><time>2026-05-04T06:55:23.658Z</time></trkpt><trkpt lat="42.1075424" lon="19.0902782"><ele>7.0</ele><time>2026-05-04T06:55:24.658Z</time></trkpt><trkpt lat="42.1076476" lon="19.0902248"><ele>7.0</ele><time>2026-05-04T06:55:25.658Z</time></trkpt><trkpt lat="42.1077552" lon="19.0901702"><ele>7.0</ele><time>2026-05-04T06:55:26.658Z</time></trkpt><trkpt lat="42.1078678" lon="19.0901141"><ele>7.0</ele><time>2026-05-04T06:55:27.657Z</time></trkpt><trkpt lat="42.1079832" lon="19.0900561"><ele>7.0</ele><time>2026-05-04T06:55:28.657Z</time></trkpt><trkpt lat="42.1081023" lon="19.0899965"><ele>7.0</ele><time>2026-05-04T06:55:29.658Z</time></trkpt><trkpt lat="42.1082227" lon="19.0899348"><ele>7.0</ele><time>2026-05-04T06:55:30.657Z</time></trkpt><trkpt lat="42.1083435" lon="19.0898759"><ele>7.0</ele><time>2026-05-04T06:55:31.658Z</time></trkpt><trkpt lat="42.1084634" lon="19.0898127"><ele>7.0</ele><time>2026-05-04T06:55:32.657Z</time></trkpt><trkpt lat="42.1085822" lon="19.0897516"><ele>6.25</ele><time>2026-05-04T06:55:33.658Z</time></trkpt><trkpt lat="42.1087005" lon="19.0896894"><ele>5.5</ele><time>2026-05-04T06:55:34.658Z</time></trkpt><trkpt lat="42.1088207" lon="19.0896271"><ele>4.75</ele><time>2026-05-04T06:55:35.658Z</time></trkpt><trkpt lat="42.1089469" lon="19.0895669"><ele>4.0</ele><time>2026-05-04T06:55:36.657Z</time></trkpt><trkpt lat="42.10907" lon="19.0895059"><ele>3.75</ele><time>2026-05-04T06:55:37.657Z</time></trkpt><trkpt lat="42.1091958" lon="19.0894417"><ele>3.5</ele><time>2026-05-04T06:55:38.658Z</time></trkpt><trkpt lat="42.1093219" lon="19.0893764"><ele>3.25</ele><time>2026-05-04T06:55:39.658Z</time></trkpt><trkpt lat="42.1094482" lon="19.0893083"><ele>3.0</ele><time>2026-05-04T06:55:40.658Z</time></trkpt><trkpt lat="42.1095743" lon="19.0892381"><ele>3.0</ele><time>2026-05-04T06:55:41.657Z</time></trkpt><trkpt lat="42.1096989" lon="19.0891603"><ele>3.0</ele><time>2026-05-04T06:55:42.658Z</time></trkpt><trkpt lat="42.1098187" lon="19.0890777"><ele>3.0</ele><time>2026-05-04T06:55:43.658Z</time></trkpt><trkpt lat="42.1099325" lon="19.0889904"><ele>3.0</ele><time>2026-05-04T06:55:44.658Z</time></trkpt><trkpt lat="42.1100414" lon="19.0888988"><ele>3.25</ele><time>2026-05-04T06:55:45.657Z</time></trkpt><trkpt lat="42.1101428" lon="19.0887988"><ele>3.5</ele><time>2026-05-04T06:55:46.658Z</time></trkpt><trkpt lat="42.1102403" lon="19.0886923"><ele>3.75</ele><time>2026-05-04T06:55:47.658Z</time></trkpt><trkpt lat="42.1103322" lon="19.0885818"><ele>4.0</ele><time>2026-05-04T06:55:48.658Z</time></trkpt><trkpt lat="42.1104193" lon="19.0884812"><ele>4.0</ele><time>2026-05-04T06:55:49.658Z</time></trkpt><trkpt lat="42.1105002" lon="19.088384"><ele>4.0</ele><time>2026-05-04T06:55:50.657Z</time></trkpt><trkpt lat="42.110579" lon="19.0882899"><ele>4.0</ele><time>2026-05-04T06:55:51.658Z</time></trkpt><trkpt lat="42.1106554" lon="19.0882108"><ele>4.0</ele><time>2026-05-04T06:55:52.658Z</time></trkpt><trkpt lat="42.110727" lon="19.0881421"><ele>4.0</ele><time>2026-05-04T06:55:53.658Z</time></trkpt><trkpt lat="42.1107865" lon="19.0880679"><ele>4.333333333333333</ele><time>2026-05-04T06:55:54.657Z</time></trkpt><trkpt lat="42.1108318" lon="19.0879825"><ele>4.666666666666666</ele><time>2026-05-04T06:55:55.657Z</time></trkpt><trkpt lat="42.1108618" lon="19.0878872"><ele>5.0</ele><time>2026-05-04T06:55:56.658Z</time></trkpt><trkpt lat="42.1108821" lon="19.0877805"><ele>5.333333333333333</ele><time>2026-05-04T06:55:57.658Z</time></trkpt><trkpt lat="42.1109086" lon="19.0876712"><ele>5.666666666666667</ele><time>2026-05-04T06:55:58.657Z</time></trkpt><trkpt lat="42.1109471" lon="19.087562"><ele>6.0</ele><time>2026-05-04T06:55:59.658Z</time></trkpt><trkpt lat="42.1109863" lon="19.087445"><ele>5.3999999999999995</ele><time>2026-05-04T06:56:00.658Z</time></trkpt><trkpt lat="42.1110284" lon="19.0873281"><ele>4.8</ele><time>2026-05-04T06:56:01.658Z</time></trkpt><trkpt lat="42.1110686" lon="19.0872142"><ele>4.199999999999999</ele><time>2026-05-04T06:56:02.658Z</time></trkpt><trkpt lat="42.1111044" lon="19.0871075"><ele>3.5999999999999996</ele><time>2026-05-04T06:56:03.657Z</time></trkpt><trkpt lat="42.1111342" lon="19.0870124"><ele>3.0</ele><time>2026-05-04T06:56:04.658Z</time></trkpt><trkpt lat="42.1111775" lon="19.0868759"><ele>3.0</ele><time>2026-05-04T06:56:06.658Z</time></trkpt><trkpt lat="42.1112062" lon="19.0867858"><ele>3.0</ele><time>2026-05-04T06:56:09.658Z</time></trkpt><trkpt lat="42.1112413" lon="19.0866774"><ele>3.0</ele><time>2026-05-04T06:56:16.657Z</time></trkpt><trkpt lat="42.1112905" lon="19.0865434"><ele>3.0</ele><time>2026-05-04T06:56:18.657Z</time></trkpt><trkpt lat="42.1113203" lon="19.0864645"><ele>3.0</ele><time>2026-05-04T06:56:19.657Z</time></trkpt><trkpt lat="42.1113526" lon="19.0863792"><ele>3.0</ele><time>2026-05-04T06:56:20.658Z</time></trkpt><trkpt lat="42.1113887" lon="19.0862904"><ele>3.0</ele><time>2026-05-04T06:56:21.657Z</time></trkpt><trkpt lat="42.1114302" lon="19.0861992"><ele>3.0</ele><time>2026-05-04T06:56:22.657Z</time></trkpt><trkpt lat="42.1114738" lon="19.086109"><ele>3.0</ele><time>2026-05-04T06:56:23.658Z</time></trkpt><trkpt lat="42.1115169" lon="19.0860184"><ele>3.0</ele><time>2026-05-04T06:56:24.658Z</time></trkpt><trkpt lat="42.1115604" lon="19.0859292"><ele>3.0</ele><time>2026-05-04T06:56:25.657Z</time></trkpt><trkpt lat="42.1116068" lon="19.0858452"><ele>3.0</ele><time>2026-05-04T06:56:26.657Z</time></trkpt><trkpt lat="42.1116517" lon="19.0857645"><ele>3.5</ele><time>2026-05-04T06:56:27.658Z</time></trkpt><trkpt lat="42.111696" lon="19.0856881"><ele>4.0</ele><time>2026-05-04T06:56:28.657Z</time></trkpt><trkpt lat="42.1117416" lon="19.0856133"><ele>4.5</ele><time>2026-05-04T06:56:29.658Z</time></trkpt><trkpt lat="42.1117889" lon="19.0855386"><ele>5.0</ele><time>2026-05-04T06:56:30.658Z</time></trkpt><trkpt lat="42.1118353" lon="19.0854651"><ele>5.5</ele><time>2026-05-04T06:56:31.658Z</time></trkpt><trkpt lat="42.1118792" lon="19.0854005"><ele>6.0</ele><time>2026-05-04T06:56:32.658Z</time></trkpt><trkpt lat="42.1119587" lon="19.0852892"><ele>6.0</ele><time>2026-05-04T06:56:34.658Z</time></trkpt><trkpt lat="42.1120325" lon="19.0851968"><ele>6.0</ele><time>2026-05-04T06:56:36.658Z</time></trkpt><trkpt lat="42.1121021" lon="19.0851077"><ele>6.0</ele><time>2026-05-04T06:56:38.657Z</time></trkpt><trkpt lat="42.112188" lon="19.0850063"><ele>6.0</ele><time>2026-05-04T06:56:40.657Z</time></trkpt><trkpt lat="42.1122385" lon="19.0849503"><ele>6.0</ele><time>2026-05-04T06:56:41.658Z</time></trkpt><trkpt lat="42.1122955" lon="19.0848903"><ele>6.0</ele><time>2026-05-04T06:56:42.657Z</time></trkpt><trkpt lat="42.1123593" lon="19.0848256"><ele>5.5</ele><time>2026-05-04T06:56:43.658Z</time></trkpt><trkpt lat="42.1124287" lon="19.0847541"><ele>5.0</ele><time>2026-05-04T06:56:44.658Z</time></trkpt><trkpt lat="42.1124993" lon="19.084688"><ele>4.5</ele><time>2026-05-04T06:56:45.657Z</time></trkpt><trkpt lat="42.1125698" lon="19.0846234"><ele>4.0</ele><time>2026-05-04T06:56:46.657Z</time></trkpt><trkpt lat="42.112642" lon="19.0845575"><ele>3.5</ele><time>2026-05-04T06:56:47.657Z</time></trkpt><trkpt lat="42.1127177" lon="19.0844893"><ele>3.0</ele><time>2026-05-04T06:56:48.658Z</time></trkpt><trkpt lat="42.1127967" lon="19.0844176"><ele>3.0</ele><time>2026-05-04T06:56:49.658Z</time></trkpt><trkpt lat="42.1128802" lon="19.0843422"><ele>3.0</ele><time>2026-05-04T06:56:50.658Z</time></trkpt><trkpt lat="42.1129659" lon="19.084261"><ele>3.0</ele><time>2026-05-04T06:56:51.657Z</time></trkpt><trkpt lat="42.1130543" lon="19.0841757"><ele>3.0</ele><time>2026-05-04T06:56:52.658Z</time></trkpt><trkpt lat="42.1131415" lon="19.0840869"><ele>3.0</ele><time>2026-05-04T06:56:53.658Z</time></trkpt><trkpt lat="42.1132293" lon="19.0839932"><ele>3.25</ele><time>2026-05-04T06:56:54.657Z</time></trkpt><trkpt lat="42.1133174" lon="19.0838926"><ele>3.5</ele><time>2026-05-04T06:56:55.657Z</time></trkpt><trkpt lat="42.113404" lon="19.0837828"><ele>3.75</ele><time>2026-05-04T06:56:56.657Z</time></trkpt><trkpt lat="42.1134885" lon="19.0836691"><ele>4.0</ele><time>2026-05-04T06:56:57.657Z</time></trkpt><trkpt lat="42.1135684" lon="19.0835587"><ele>4.0</ele><time>2026-05-04T06:56:58.658Z</time></trkpt><trkpt lat="42.1136477" lon="19.0834435"><ele>4.0</ele><time>2026-05-04T06:56:59.657Z</time></trkpt><trkpt lat="42.1137233" lon="19.0833257"><ele>4.0</ele><time>2026-05-04T06:57:00.658Z</time></trkpt><trkpt lat="42.1137968" lon="19.0832034"><ele>4.0</ele><time>2026-05-04T06:57:01.658Z</time></trkpt><trkpt lat="42.1138682" lon="19.0830766"><ele>3.75</ele><time>2026-05-04T06:57:02.657Z</time></trkpt><trkpt lat="42.1139353" lon="19.0829448"><ele>3.5</ele><time>2026-05-04T06:57:03.658Z</time></trkpt><trkpt lat="42.1140022" lon="19.0828107"><ele>3.25</ele><time>2026-05-04T06:57:04.658Z</time></trkpt><trkpt lat="42.1140662" lon="19.0826715"><ele>3.0</ele><time>2026-05-04T06:57:05.657Z</time></trkpt><trkpt lat="42.1141314" lon="19.0825296"><ele>5.25</ele><time>2026-05-04T06:57:06.658Z</time></trkpt><trkpt lat="42.1141951" lon="19.082383"><ele>7.5</ele><time>2026-05-04T06:57:07.657Z</time></trkpt><trkpt lat="42.1142614" lon="19.0822341"><ele>9.75</ele><time>2026-05-04T06:57:08.658Z</time></trkpt><trkpt lat="42.11433" lon="19.0820851"><ele>12.0</ele><time>2026-05-04T06:57:09.657Z</time></trkpt><trkpt lat="42.114402" lon="19.0819334"><ele>12.0</ele><time>2026-05-04T06:57:10.658Z</time></trkpt><trkpt lat="42.1144677" lon="19.081776"><ele>12.0</ele><time>2026-05-04T06:57:11.657Z</time></trkpt><trkpt lat="42.1145336" lon="19.0816235"><ele>12.0</ele><time>2026-05-04T06:57:12.657Z</time></trkpt><trkpt lat="42.1146028" lon="19.0814754"><ele>12.0</ele><time>2026-05-04T06:57:13.658Z</time></trkpt><trkpt lat="42.1146759" lon="19.0813341"><ele>10.0</ele><time>2026-05-04T06:57:14.658Z</time></trkpt><trkpt lat="42.1147459" lon="19.0811894"><ele>8.0</ele><time>2026-05-04T06:57:15.657Z</time></trkpt><trkpt lat="42.1148146" lon="19.0810462"><ele>6.0</ele><time>2026-05-04T06:57:16.657Z</time></trkpt><trkpt lat="42.1148813" lon="19.0809069"><ele>4.0</ele><time>2026-05-04T06:57:17.657Z</time></trkpt><trkpt lat="42.1149471" lon="19.0807699"><ele>6.5</ele><time>2026-05-04T06:57:18.657Z</time></trkpt><trkpt lat="42.1150144" lon="19.0806356"><ele>9.0</ele><time>2026-05-04T06:57:19.658Z</time></trkpt><trkpt lat="42.115084" lon="19.080498"><ele>11.5</ele><time>2026-05-04T06:57:20.657Z</time></trkpt><trkpt lat="42.1151572" lon="19.0803619"><ele>14.0</ele><time>2026-05-04T06:57:21.657Z</time></trkpt><trkpt lat="42.1152293" lon="19.0802283"><ele>14.0</ele><time>2026-05-04T06:57:22.657Z</time></trkpt><trkpt lat="42.1152979" lon="19.0800946"><ele>14.0</ele><time>2026-05-04T06:57:23.657Z</time></trkpt><trkpt lat="42.1153666" lon="19.0799625"><ele>14.0</ele><time>2026-05-04T06:57:24.658Z</time></trkpt><trkpt lat="42.1154356" lon="19.0798333"><ele>14.0</ele><time>2026-05-04T06:57:25.658Z</time></trkpt><trkpt lat="42.1155053" lon="19.079708"><ele>15.2</ele><time>2026-05-04T06:57:26.658Z</time></trkpt><trkpt lat="42.1155729" lon="19.0795848"><ele>16.4</ele><time>2026-05-04T06:57:27.658Z</time></trkpt><trkpt lat="42.1156394" lon="19.0794641"><ele>17.6</ele><time>2026-05-04T06:57:28.657Z</time></trkpt><trkpt lat="42.1157056" lon="19.0793436"><ele>18.8</ele><time>2026-05-04T06:57:29.658Z</time></trkpt><trkpt lat="42.1157725" lon="19.0792262"><ele>20.0</ele><time>2026-05-04T06:57:30.657Z</time></trkpt><trkpt lat="42.1158387" lon="19.0791078"><ele>18.5</ele><time>2026-05-04T06:57:31.657Z</time></trkpt><trkpt lat="42.115905" lon="19.0789871"><ele>17.0</ele><time>2026-05-04T06:57:32.657Z</time></trkpt><trkpt lat="42.1159736" lon="19.0788629"><ele>15.5</ele><time>2026-05-04T06:57:33.658Z</time></trkpt><trkpt lat="42.116045" lon="19.0787359"><ele>14.0</ele><time>2026-05-04T06:57:34.658Z</time></trkpt><trkpt lat="42.1161165" lon="19.0786044"><ele>14.0</ele><time>2026-05-04T06:57:35.658Z</time></trkpt><trkpt lat="42.1161876" lon="19.0784698"><ele>14.0</ele><time>2026-05-04T06:57:36.658Z</time></trkpt><trkpt lat="42.1162586" lon="19.0783342"><ele>14.0</ele><time>2026-05-04T06:57:37.657Z</time></trkpt><trkpt lat="42.1163333" lon="19.0781997"><ele>14.0</ele><time>2026-05-04T06:57:38.657Z</time></trkpt><trkpt lat="42.1164088" lon="19.0780658"><ele>11.75</ele><time>2026-05-04T06:57:39.657Z</time></trkpt><trkpt lat="42.1164825" lon="19.0779298"><ele>9.5</ele><time>2026-05-04T06:57:40.658Z</time></trkpt><trkpt lat="42.1165549" lon="19.0777935"><ele>7.25</ele><time>2026-05-04T06:57:41.658Z</time></trkpt><trkpt lat="42.1166265" lon="19.0776569"><ele>5.0</ele><time>2026-05-04T06:57:42.658Z</time></trkpt><trkpt lat="42.116694" lon="19.0775182"><ele>6.75</ele><time>2026-05-04T06:57:43.657Z</time></trkpt><trkpt lat="42.1167594" lon="19.0773777"><ele>8.5</ele><time>2026-05-04T06:57:44.658Z</time></trkpt><trkpt lat="42.1168228" lon="19.0772312"><ele>10.25</ele><time>2026-05-04T06:57:45.658Z</time></trkpt><trkpt lat="42.116885" lon="19.0770813"><ele>12.0</ele><time>2026-05-04T06:57:46.658Z</time></trkpt><trkpt lat="42.116946" lon="19.0769278"><ele>12.0</ele><time>2026-05-04T06:57:47.658Z</time></trkpt><trkpt lat="42.1170077" lon="19.076771"><ele>12.0</ele><time>2026-05-04T06:57:48.658Z</time></trkpt><trkpt lat="42.1170662" lon="19.0766087"><ele>12.0</ele><time>2026-05-04T06:57:49.658Z</time></trkpt><trkpt lat="42.117125" lon="19.0764447"><ele>12.0</ele><time>2026-05-04T06:57:50.658Z</time></trkpt><trkpt lat="42.1171866" lon="19.0762793"><ele>11.5</ele><time>2026-05-04T06:57:51.657Z</time></trkpt><trkpt lat="42.1172484" lon="19.0761114"><ele>11.0</ele><time>2026-05-04T06:57:52.657Z</time></trkpt><trkpt lat="42.1173174" lon="19.0759483"><ele>10.5</ele><time>2026-05-04T06:57:53.658Z</time></trkpt><trkpt lat="42.117395" lon="19.0757876"><ele>10.0</ele><time>2026-05-04T06:57:54.657Z</time></trkpt><trkpt lat="42.1174723" lon="19.0756252"><ele>10.0</ele><time>2026-05-04T06:57:55.658Z</time></trkpt><trkpt lat="42.117555" lon="19.0754636"><ele>10.0</ele><time>2026-05-04T06:57:56.658Z</time></trkpt><trkpt lat="42.1176403" lon="19.0753024"><ele>10.0</ele><time>2026-05-04T06:57:57.658Z</time></trkpt><trkpt lat="42.117729" lon="19.0751454"><ele>10.0</ele><time>2026-05-04T06:57:58.657Z</time></trkpt><trkpt lat="42.1178202" lon="19.0749938"><ele>8.75</ele><time>2026-05-04T06:57:59.658Z</time></trkpt><trkpt lat="42.1179132" lon="19.0748436"><ele>7.5</ele><time>2026-05-04T06:58:00.657Z</time></trkpt><trkpt lat="42.1180081" lon="19.0746988"><ele>6.25</ele><time>2026-05-04T06:58:01.658Z</time></trkpt><trkpt lat="42.1181025" lon="19.0745583"><ele>5.0</ele><time>2026-05-04T06:58:02.657Z</time></trkpt><trkpt lat="42.1181973" lon="19.0744221"><ele>5.5</ele><time>2026-05-04T06:58:03.657Z</time></trkpt><trkpt lat="42.118293" lon="19.07429"><ele>6.0</ele><time>2026-05-04T06:58:04.657Z</time></trkpt><trkpt lat="42.1183888" lon="19.0741598"><ele>6.5</ele><time>2026-05-04T06:58:05.657Z</time></trkpt><trkpt lat="42.1184841" lon="19.0740337"><ele>7.0</ele><time>2026-05-04T06:58:06.658Z</time></trkpt><trkpt lat="42.1185758" lon="19.0739057"><ele>7.0</ele><time>2026-05-04T06:58:07.658Z</time></trkpt><trkpt lat="42.1186666" lon="19.0737814"><ele>7.0</ele><time>2026-05-04T06:58:08.657Z</time></trkpt><trkpt lat="42.1187543" lon="19.0736567"><ele>7.0</ele><time>2026-05-04T06:58:09.658Z</time></trkpt><trkpt lat="42.1188412" lon="19.0735321"><ele>7.0</ele><time>2026-05-04T06:58:10.658Z</time></trkpt><trkpt lat="42.1189268" lon="19.0734048"><ele>7.0</ele><time>2026-05-04T06:58:11.657Z</time></trkpt><trkpt lat="42.1190151" lon="19.0732815"><ele>7.0</ele><time>2026-05-04T06:58:12.658Z</time></trkpt><trkpt lat="42.1191028" lon="19.0731594"><ele>7.0</ele><time>2026-05-04T06:58:13.658Z</time></trkpt><trkpt lat="42.1191858" lon="19.073038"><ele>7.0</ele><time>2026-05-04T06:58:14.658Z</time></trkpt><trkpt lat="42.1192642" lon="19.0729163"><ele>7.25</ele><time>2026-05-04T06:58:15.658Z</time></trkpt><trkpt lat="42.119337" lon="19.0727922"><ele>7.5</ele><time>2026-05-04T06:58:16.658Z</time></trkpt><trkpt lat="42.1194068" lon="19.0726685"><ele>7.75</ele><time>2026-05-04T06:58:17.658Z</time></trkpt><trkpt lat="42.1194771" lon="19.0725469"><ele>8.0</ele><time>2026-05-04T06:58:18.657Z</time></trkpt><trkpt lat="42.1195472" lon="19.072429"><ele>8.0</ele><time>2026-05-04T06:58:19.658Z</time></trkpt><trkpt lat="42.1196192" lon="19.0723154"><ele>8.0</ele><time>2026-05-04T06:58:20.658Z</time></trkpt><trkpt lat="42.1196925" lon="19.0722031"><ele>8.0</ele><time>2026-05-04T06:58:21.658Z</time></trkpt><trkpt lat="42.1197665" lon="19.0720929"><ele>8.0</ele><time>2026-05-04T06:58:22.658Z</time></trkpt><trkpt lat="42.1198422" lon="19.0719829"><ele>8.0</ele><time>2026-05-04T06:58:23.657Z</time></trkpt><trkpt lat="42.1199226" lon="19.0718718"><ele>8.0</ele><time>2026-05-04T06:58:24.657Z</time></trkpt><trkpt lat="42.120008" lon="19.0717599"><ele>8.0</ele><time>2026-05-04T06:58:25.658Z</time></trkpt><trkpt lat="42.1201023" lon="19.0716514"><ele>8.0</ele><time>2026-05-04T06:58:26.657Z</time></trkpt><trkpt lat="42.1201987" lon="19.0715402"><ele>8.0</ele><time>2026-05-04T06:58:27.658Z</time></trkpt><trkpt lat="42.1202986" lon="19.0714255"><ele>8.0</ele><time>2026-05-04T06:58:28.657Z</time></trkpt><trkpt lat="42.1204011" lon="19.0713125"><ele>8.0</ele><time>2026-05-04T06:58:29.657Z</time></trkpt><trkpt lat="42.1205053" lon="19.0711983"><ele>8.0</ele><time>2026-05-04T06:58:30.657Z</time></trkpt><trkpt lat="42.1206" lon="19.0710764"><ele>8.0</ele><time>2026-05-04T06:58:31.657Z</time></trkpt><trkpt lat="42.1206855" lon="19.0709403"><ele>10.0</ele><time>2026-05-04T06:58:32.657Z</time></trkpt><trkpt lat="42.120757" lon="19.0707844"><ele>12.0</ele><time>2026-05-04T06:58:33.657Z</time></trkpt><trkpt lat="42.1208131" lon="19.0706121"><ele>14.0</ele><time>2026-05-04T06:58:34.657Z</time></trkpt><trkpt lat="42.1208563" lon="19.0704285"><ele>16.0</ele><time>2026-05-04T06:58:35.658Z</time></trkpt><trkpt lat="42.1208865" lon="19.0702378"><ele>16.0</ele><time>2026-05-04T06:58:36.658Z</time></trkpt><trkpt lat="42.1209077" lon="19.0700446"><ele>16.0</ele><time>2026-05-04T06:58:37.657Z</time></trkpt><trkpt lat="42.1209233" lon="19.0698561"><ele>16.0</ele><time>2026-05-04T06:58:38.658Z</time></trkpt><trkpt lat="42.1209446" lon="19.0696718"><ele>16.0</ele><time>2026-05-04T06:58:39.657Z</time></trkpt><trkpt lat="42.1209765" lon="19.0694907"><ele>14.75</ele><time>2026-05-04T06:58:40.658Z</time></trkpt><trkpt lat="42.1210198" lon="19.0693163"><ele>13.5</ele><time>2026-05-04T06:58:41.657Z</time></trkpt><trkpt lat="42.1210782" lon="19.0691522"><ele>12.25</ele><time>2026-05-04T06:58:42.657Z</time></trkpt><trkpt lat="42.1211509" lon="19.0690022"><ele>11.0</ele><time>2026-05-04T06:58:43.658Z</time></trkpt><trkpt lat="42.1212388" lon="19.0688702"><ele>9.75</ele><time>2026-05-04T06:58:44.658Z</time></trkpt><trkpt lat="42.1213402" lon="19.0687513"><ele>8.5</ele><time>2026-05-04T06:58:45.657Z</time></trkpt><trkpt lat="42.1214509" lon="19.0686406"><ele>7.25</ele><time>2026-05-04T06:58:46.658Z</time></trkpt><trkpt lat="42.1215669" lon="19.068531"><ele>6.0</ele><time>2026-05-04T06:58:47.658Z</time></trkpt><trkpt lat="42.1216904" lon="19.0684259"><ele>6.0</ele><time>2026-05-04T06:58:48.657Z</time></trkpt><trkpt lat="42.121812" lon="19.0683182"><ele>6.0</ele><time>2026-05-04T06:58:49.658Z</time></trkpt><trkpt lat="42.1219307" lon="19.0682036"><ele>6.0</ele><time>2026-05-04T06:58:50.657Z</time></trkpt><trkpt lat="42.1220465" lon="19.0680773"><ele>6.0</ele><time>2026-05-04T06:58:51.657Z</time></trkpt><trkpt lat="42.122161" lon="19.0679387"><ele>4.333333333333333</ele><time>2026-05-04T06:58:52.658Z</time></trkpt><trkpt lat="42.1222712" lon="19.0677914"><ele>2.6666666666666665</ele><time>2026-05-04T06:58:53.658Z</time></trkpt><trkpt lat="42.1223794" lon="19.0676384"><ele>1.0</ele><time>2026-05-04T06:58:54.658Z</time></trkpt><trkpt lat="42.1224788" lon="19.0674781"><ele>3.333333333333333</ele><time>2026-05-04T06:58:55.658Z</time></trkpt><trkpt lat="42.1225737" lon="19.0673159"><ele>5.666666666666666</ele><time>2026-05-04T06:58:56.657Z</time></trkpt><trkpt lat="42.1226621" lon="19.0671519"><ele>8.0</ele><time>2026-05-04T06:58:57.658Z</time></trkpt><trkpt lat="42.122741" lon="19.0669813"><ele>8.0</ele><time>2026-05-04T06:58:58.658Z</time></trkpt><trkpt lat="42.1228091" lon="19.066802"><ele>8.0</ele><time>2026-05-04T06:58:59.658Z</time></trkpt><trkpt lat="42.1228647" lon="19.0666143"><ele>8.0</ele><time>2026-05-04T06:59:00.658Z</time></trkpt><trkpt lat="42.1229064" lon="19.0664202"><ele>8.0</ele><time>2026-05-04T06:59:01.657Z</time></trkpt><trkpt lat="42.1229322" lon="19.0662208"><ele>8.25</ele><time>2026-05-04T06:59:02.658Z</time></trkpt><trkpt lat="42.1229453" lon="19.0660204"><ele>8.5</ele><time>2026-05-04T06:59:03.657Z</time></trkpt><trkpt lat="42.1229415" lon="19.0658216"><ele>8.75</ele><time>2026-05-04T06:59:04.658Z</time></trkpt><trkpt lat="42.122926" lon="19.0656261"><ele>9.0</ele><time>2026-05-04T06:59:05.657Z</time></trkpt><trkpt lat="42.1229023" lon="19.0654351"><ele>9.5</ele><time>2026-05-04T06:59:06.658Z</time></trkpt><trkpt lat="42.1228774" lon="19.0652506"><ele>10.0</ele><time>2026-05-04T06:59:07.658Z</time></trkpt><trkpt lat="42.1228516" lon="19.065072"><ele>10.5</ele><time>2026-05-04T06:59:08.658Z</time></trkpt><trkpt lat="42.12283" lon="19.0648972"><ele>11.0</ele><time>2026-05-04T06:59:09.658Z</time></trkpt><trkpt lat="42.1228245" lon="19.064723"><ele>11.5</ele><time>2026-05-04T06:59:10.658Z</time></trkpt><trkpt lat="42.1228368" lon="19.0645451"><ele>12.0</ele><time>2026-05-04T06:59:11.657Z</time></trkpt><trkpt lat="42.1228666" lon="19.0643706"><ele>12.5</ele><time>2026-05-04T06:59:12.658Z</time></trkpt><trkpt lat="42.1229175" lon="19.064203"><ele>13.0</ele><time>2026-05-04T06:59:13.657Z</time></trkpt><trkpt lat="42.1229844" lon="19.0640538"><ele>11.75</ele><time>2026-05-04T06:59:14.658Z</time></trkpt><trkpt lat="42.1230687" lon="19.0639206"><ele>10.5</ele><time>2026-05-04T06:59:15.658Z</time></trkpt><trkpt lat="42.1231669" lon="19.0638051"><ele>9.25</ele><time>2026-05-04T06:59:16.658Z</time></trkpt><trkpt lat="42.1232791" lon="19.0637101"><ele>8.0</ele><time>2026-05-04T06:59:17.658Z</time></trkpt><trkpt lat="42.1234017" lon="19.063637"><ele>13.0</ele><time>2026-05-04T06:59:18.657Z</time></trkpt><trkpt lat="42.1235294" lon="19.0635839"><ele>18.0</ele><time>2026-05-04T06:59:19.658Z</time></trkpt><trkpt lat="42.1236627" lon="19.0635517"><ele>23.0</ele><time>2026-05-04T06:59:20.657Z</time></trkpt><trkpt lat="42.1237928" lon="19.0635437"><ele>28.0</ele><time>2026-05-04T06:59:21.658Z</time></trkpt><trkpt lat="42.1239228" lon="19.0635601"><ele>28.0</ele><time>2026-05-04T06:59:22.657Z</time></trkpt><trkpt lat="42.1240476" lon="19.0635978"><ele>28.0</ele><time>2026-05-04T06:59:23.657Z</time></trkpt><trkpt lat="42.1241686" lon="19.063651"><ele>28.0</ele><time>2026-05-04T06:59:24.657Z</time></trkpt><trkpt lat="42.1242898" lon="19.063704"><ele>28.0</ele><time>2026-05-04T06:59:25.657Z</time></trkpt><trkpt lat="42.1244029" lon="19.0637668"><ele>29.5</ele><time>2026-05-04T06:59:26.658Z</time></trkpt><trkpt lat="42.1245128" lon="19.063841"><ele>31.0</ele><time>2026-05-04T06:59:27.658Z</time></trkpt><trkpt lat="42.1246155" lon="19.063925"><ele>32.5</ele><time>2026-05-04T06:59:28.657Z</time></trkpt><trkpt lat="42.1247124" lon="19.0640161"><ele>34.0</ele><time>2026-05-04T06:59:29.658Z</time></trkpt><trkpt lat="42.1248071" lon="19.0641146"><ele>33.25</ele><time>2026-05-04T06:59:30.657Z</time></trkpt><trkpt lat="42.1249057" lon="19.0642179"><ele>32.5</ele><time>2026-05-04T06:59:31.657Z</time></trkpt><trkpt lat="42.125008" lon="19.0643248"><ele>31.75</ele><time>2026-05-04T06:59:32.658Z</time></trkpt><trkpt lat="42.1251116" lon="19.0644302"><ele>31.0</ele><time>2026-05-04T06:59:33.658Z</time></trkpt><trkpt lat="42.1252145" lon="19.064535"><ele>31.0</ele><time>2026-05-04T06:59:34.658Z</time></trkpt><trkpt lat="42.1253234" lon="19.064633"><ele>31.0</ele><time>2026-05-04T06:59:35.658Z</time></trkpt><trkpt lat="42.1254305" lon="19.0647117"><ele>31.0</ele><time>2026-05-04T06:59:36.657Z</time></trkpt><trkpt lat="42.1255385" lon="19.0647784"><ele>31.0</ele><time>2026-05-04T06:59:37.658Z</time></trkpt><trkpt lat="42.1256407" lon="19.0648428"><ele>29.0</ele><time>2026-05-04T06:59:38.657Z</time></trkpt><trkpt lat="42.1257457" lon="19.0648911"><ele>27.0</ele><time>2026-05-04T06:59:39.658Z</time></trkpt><trkpt lat="42.125853" lon="19.0649297"><ele>25.0</ele><time>2026-05-04T06:59:40.657Z</time></trkpt><trkpt lat="42.1259634" lon="19.0649633"><ele>23.0</ele><time>2026-05-04T06:59:41.658Z</time></trkpt><trkpt lat="42.1260794" lon="19.0649849"><ele>28.0</ele><time>2026-05-04T06:59:42.658Z</time></trkpt><trkpt lat="42.1261968" lon="19.0649976"><ele>33.0</ele><time>2026-05-04T06:59:43.658Z</time></trkpt><trkpt lat="42.1263115" lon="19.0650057"><ele>38.0</ele><time>2026-05-04T06:59:44.657Z</time></trkpt><trkpt lat="42.1264253" lon="19.0650084"><ele>43.0</ele><time>2026-05-04T06:59:45.657Z</time></trkpt><trkpt lat="42.1265387" lon="19.0650059"><ele>42.5</ele><time>2026-05-04T06:59:46.658Z</time></trkpt><trkpt lat="42.1266537" lon="19.0649999"><ele>42.0</ele><time>2026-05-04T06:59:47.657Z</time></trkpt><trkpt lat="42.1267684" lon="19.0649975"><ele>41.5</ele><time>2026-05-04T06:59:48.657Z</time></trkpt><trkpt lat="42.1268843" lon="19.0649946"><ele>41.0</ele><time>2026-05-04T06:59:49.658Z</time></trkpt><trkpt lat="42.1270028" lon="19.0649869"><ele>41.0</ele><time>2026-05-04T06:59:50.657Z</time></trkpt><trkpt lat="42.1271189" lon="19.0649711"><ele>41.0</ele><time>2026-05-04T06:59:51.658Z</time></trkpt><trkpt lat="42.1272344" lon="19.0649427"><ele>41.0</ele><time>2026-05-04T06:59:52.658Z</time></trkpt><trkpt lat="42.1273477" lon="19.0649021"><ele>41.0</ele><time>2026-05-04T06:59:53.658Z</time></trkpt><trkpt lat="42.1274576" lon="19.064836"><ele>36.75</ele><time>2026-05-04T06:59:54.657Z</time></trkpt><trkpt lat="42.1275599" lon="19.0647582"><ele>32.5</ele><time>2026-05-04T06:59:55.658Z</time></trkpt><trkpt lat="42.1276591" lon="19.0646731"><ele>28.25</ele><time>2026-05-04T06:59:56.658Z</time></trkpt><trkpt lat="42.1277553" lon="19.0645843"><ele>24.0</ele><time>2026-05-04T06:59:57.657Z</time></trkpt><trkpt lat="42.1278517" lon="19.0644916"><ele>24.0</ele><time>2026-05-04T06:59:58.657Z</time></trkpt><trkpt lat="42.1279494" lon="19.0643993"><ele>24.0</ele><time>2026-05-04T06:59:59.657Z</time></trkpt><trkpt lat="42.1280484" lon="19.0643036"><ele>24.0</ele><time>2026-05-04T07:00:00.657Z</time></trkpt><trkpt lat="42.1281457" lon="19.0642108"><ele>24.0</ele><time>2026-05-04T07:00:01.658Z</time></trkpt><trkpt lat="42.1282434" lon="19.0641175"><ele>22.0</ele><time>2026-05-04T07:00:02.657Z</time></trkpt><trkpt lat="42.1283405" lon="19.0640248"><ele>20.0</ele><time>2026-05-04T07:00:03.657Z</time></trkpt><trkpt lat="42.1284363" lon="19.0639337"><ele>18.0</ele><time>2026-05-04T07:00:04.658Z</time></trkpt><trkpt lat="42.1285346" lon="19.0638458"><ele>16.0</ele><time>2026-05-04T07:00:05.657Z</time></trkpt><trkpt lat="42.128637" lon="19.0637667"><ele>16.0</ele><time>2026-05-04T07:00:06.657Z</time></trkpt><trkpt lat="42.1287459" lon="19.0636978"><ele>16.0</ele><time>2026-05-04T07:00:07.657Z</time></trkpt><trkpt lat="42.1288549" lon="19.0636281"><ele>16.0</ele><time>2026-05-04T07:00:08.657Z</time></trkpt><trkpt lat="42.128972" lon="19.0635665"><ele>16.0</ele><time>2026-05-04T07:00:09.658Z</time></trkpt><trkpt lat="42.1290936" lon="19.0635134"><ele>18.5</ele><time>2026-05-04T07:00:10.657Z</time></trkpt><trkpt lat="42.1292164" lon="19.0634673"><ele>21.0</ele><time>2026-05-04T07:00:11.657Z</time></trkpt><trkpt lat="42.1293426" lon="19.0634238"><ele>23.5</ele><time>2026-05-04T07:00:12.657Z</time></trkpt><trkpt lat="42.1294667" lon="19.0633869"><ele>26.0</ele><time>2026-05-04T07:00:13.657Z</time></trkpt><trkpt lat="42.1295928" lon="19.0633588"><ele>26.0</ele><time>2026-05-04T07:00:14.657Z</time></trkpt><trkpt lat="42.1297205" lon="19.0633375"><ele>26.0</ele><time>2026-05-04T07:00:15.657Z</time></trkpt><trkpt lat="42.1298485" lon="19.0633189"><ele>26.0</ele><time>2026-05-04T07:00:16.658Z</time></trkpt><trkpt lat="42.1299775" lon="19.0632987"><ele>26.0</ele><time>2026-05-04T07:00:17.657Z</time></trkpt><trkpt lat="42.130106" lon="19.0632787"><ele>23.25</ele><time>2026-05-04T07:00:18.657Z</time></trkpt><trkpt lat="42.1302344" lon="19.0632593"><ele>20.5</ele><time>2026-05-04T07:00:19.658Z</time></trkpt><trkpt lat="42.1303599" lon="19.0632464"><ele>17.75</ele><time>2026-05-04T07:00:20.658Z</time></trkpt><trkpt lat="42.1304824" lon="19.0632332"><ele>15.0</ele><time>2026-05-04T07:00:21.657Z</time></trkpt><trkpt lat="42.1305982" lon="19.0632223"><ele>15.0</ele><time>2026-05-04T07:00:22.658Z</time></trkpt><trkpt lat="42.1307079" lon="19.0632108"><ele>15.0</ele><time>2026-05-04T07:00:23.658Z</time></trkpt><trkpt lat="42.1308127" lon="19.0631979"><ele>15.0</ele><time>2026-05-04T07:00:24.657Z</time></trkpt><trkpt lat="42.130911" lon="19.0631896"><ele>15.0</ele><time>2026-05-04T07:00:25.657Z</time></trkpt><trkpt lat="42.1310009" lon="19.0631841"><ele>15.0</ele><time>2026-05-04T07:00:26.657Z</time></trkpt><trkpt lat="42.1310877" lon="19.0631774"><ele>15.0</ele><time>2026-05-04T07:00:27.657Z</time></trkpt><trkpt lat="42.1311703" lon="19.0631681"><ele>15.0</ele><time>2026-05-04T07:00:28.657Z</time></trkpt><trkpt lat="42.1312523" lon="19.0631606"><ele>15.0</ele><time>2026-05-04T07:00:29.658Z</time></trkpt><trkpt lat="42.1313334" lon="19.0631514"><ele>15.0</ele><time>2026-05-04T07:00:30.658Z</time></trkpt><trkpt lat="42.1314128" lon="19.0631419"><ele>15.0</ele><time>2026-05-04T07:00:31.657Z</time></trkpt><trkpt lat="42.1314952" lon="19.0631336"><ele>15.0</ele><time>2026-05-04T07:00:32.657Z</time></trkpt><trkpt lat="42.1315806" lon="19.0631221"><ele>15.666666666666666</ele><time>2026-05-04T07:00:33.657Z</time></trkpt><trkpt lat="42.1316678" lon="19.0631139"><ele>16.333333333333332</ele><time>2026-05-04T07:00:34.657Z</time></trkpt><trkpt lat="42.1317493" lon="19.0631052"><ele>17.0</ele><time>2026-05-04T07:00:35.658Z</time></trkpt><trkpt lat="42.1318338" lon="19.0630999"><ele>17.666666666666664</ele><time>2026-05-04T07:00:36.657Z</time></trkpt><trkpt lat="42.1319233" lon="19.063097"><ele>18.333333333333332</ele><time>2026-05-04T07:00:37.658Z</time></trkpt><trkpt lat="42.1320253" lon="19.0630978"><ele>19.0</ele><time>2026-05-04T07:00:38.658Z</time></trkpt><trkpt lat="42.1321271" lon="19.063098"><ele>19.0</ele><time>2026-05-04T07:00:39.658Z</time></trkpt><trkpt lat="42.13223" lon="19.0630978"><ele>19.0</ele><time>2026-05-04T07:00:40.657Z</time></trkpt><trkpt lat="42.1323369" lon="19.0630987"><ele>19.0</ele><time>2026-05-04T07:00:41.657Z</time></trkpt><trkpt lat="42.1324458" lon="19.0631024"><ele>19.0</ele><time>2026-05-04T07:00:42.657Z</time></trkpt><trkpt lat="42.1325517" lon="19.0631121"><ele>19.0</ele><time>2026-05-04T07:00:43.658Z</time></trkpt><trkpt lat="42.1326577" lon="19.0631207"><ele>19.6</ele><time>2026-05-04T07:00:44.657Z</time></trkpt><trkpt lat="42.1327644" lon="19.0631389"><ele>20.2</ele><time>2026-05-04T07:00:45.657Z</time></trkpt><trkpt lat="42.1328693" lon="19.0631534"><ele>20.8</ele><time>2026-05-04T07:00:46.657Z</time></trkpt><trkpt lat="42.1329711" lon="19.0631718"><ele>21.400000000000002</ele><time>2026-05-04T07:00:47.658Z</time></trkpt><trkpt lat="42.1330712" lon="19.063195"><ele>22.0</ele><time>2026-05-04T07:00:48.657Z</time></trkpt><trkpt lat="42.1331699" lon="19.0632204"><ele>21.0</ele><time>2026-05-04T07:00:49.657Z</time></trkpt><trkpt lat="42.1332691" lon="19.0632474"><ele>20.0</ele><time>2026-05-04T07:00:50.657Z</time></trkpt><trkpt lat="42.133364" lon="19.0632775"><ele>19.0</ele><time>2026-05-04T07:00:51.658Z</time></trkpt><trkpt lat="42.1334635" lon="19.0633143"><ele>18.0</ele><time>2026-05-04T07:00:52.657Z</time></trkpt><trkpt lat="42.1335591" lon="19.0633505"><ele>17.0</ele><time>2026-05-04T07:00:53.657Z</time></trkpt><trkpt lat="42.1336571" lon="19.0633921"><ele>18.4</ele><time>2026-05-04T07:00:54.657Z</time></trkpt><trkpt lat="42.1337521" lon="19.0634354"><ele>19.799999999999997</ele><time>2026-05-04T07:00:55.657Z</time></trkpt><trkpt lat="42.1338473" lon="19.0634747"><ele>21.2</ele><time>2026-05-04T07:00:56.657Z</time></trkpt><trkpt lat="42.1339441" lon="19.0635229"><ele>22.599999999999998</ele><time>2026-05-04T07:00:57.658Z</time></trkpt><trkpt lat="42.1340375" lon="19.0635655"><ele>24.0</ele><time>2026-05-04T07:00:58.657Z</time></trkpt><trkpt lat="42.1341229" lon="19.063607"><ele>24.0</ele><time>2026-05-04T07:00:59.657Z</time></trkpt><trkpt lat="42.1341972" lon="19.0636332"><ele>24.0</ele><time>2026-05-04T07:01:00.657Z</time></trkpt><trkpt lat="42.1342614" lon="19.0636584"><ele>24.0</ele><time>2026-05-04T07:01:01.657Z</time></trkpt><trkpt lat="42.1343603" lon="19.0636941"><ele>24.0</ele><time>2026-05-04T07:01:03.658Z</time></trkpt><trkpt lat="42.1344284" lon="19.0637189"><ele>24.0</ele><time>2026-05-04T07:01:05.657Z</time></trkpt><trkpt lat="42.1344919" lon="19.0637373"><ele>24.0</ele><time>2026-05-04T07:01:07.657Z</time></trkpt><trkpt lat="42.1345665" lon="19.0637519"><ele>24.0</ele><time>2026-05-04T07:01:09.658Z</time></trkpt><trkpt lat="42.1346677" lon="19.0637719"><ele>24.0</ele><time>2026-05-04T07:01:11.658Z</time></trkpt><trkpt lat="42.1347334" lon="19.0637811"><ele>24.0</ele><time>2026-05-04T07:01:12.657Z</time></trkpt><trkpt lat="42.1347993" lon="19.0637891"><ele>24.0</ele><time>2026-05-04T07:01:13.658Z</time></trkpt><trkpt lat="42.1348678" lon="19.0637953"><ele>24.0</ele><time>2026-05-04T07:01:14.657Z</time></trkpt><trkpt lat="42.1349418" lon="19.0637971"><ele>24.0</ele><time>2026-05-04T07:01:15.657Z</time></trkpt><trkpt lat="42.1350223" lon="19.063794"><ele>23.4</ele><time>2026-05-04T07:01:16.658Z</time></trkpt><trkpt lat="42.1351102" lon="19.0637797"><ele>22.799999999999997</ele><time>2026-05-04T07:01:17.658Z</time></trkpt><trkpt lat="42.1352049" lon="19.0637578"><ele>22.200000000000003</ele><time>2026-05-04T07:01:18.658Z</time></trkpt><trkpt lat="42.1352952" lon="19.0637305"><ele>21.6</ele><time>2026-05-04T07:01:19.657Z</time></trkpt><trkpt lat="42.1353868" lon="19.0636925"><ele>21.0</ele><time>2026-05-04T07:01:20.657Z</time></trkpt><trkpt lat="42.135482" lon="19.0636425"><ele>21.0</ele><time>2026-05-04T07:01:21.657Z</time></trkpt><trkpt lat="42.135581" lon="19.0635785"><ele>21.0</ele><time>2026-05-04T07:01:22.658Z</time></trkpt><trkpt lat="42.1356834" lon="19.0635025"><ele>21.0</ele><time>2026-05-04T07:01:23.657Z</time></trkpt><trkpt lat="42.1357853" lon="19.0634119"><ele>21.0</ele><time>2026-05-04T07:01:24.657Z</time></trkpt><trkpt lat="42.1358846" lon="19.0633095"><ele>20.0</ele><time>2026-05-04T07:01:25.658Z</time></trkpt><trkpt lat="42.135978" lon="19.0631997"><ele>19.0</ele><time>2026-05-04T07:01:26.657Z</time></trkpt><trkpt lat="42.1360688" lon="19.0630815"><ele>18.0</ele><time>2026-05-04T07:01:27.657Z</time></trkpt><trkpt lat="42.1361557" lon="19.062951"><ele>17.0</ele><time>2026-05-04T07:01:28.657Z</time></trkpt><trkpt lat="42.1362461" lon="19.0628109"><ele>17.0</ele><time>2026-05-04T07:01:29.657Z</time></trkpt><trkpt lat="42.136333" lon="19.0626662"><ele>17.0</ele><time>2026-05-04T07:01:30.658Z</time></trkpt><trkpt lat="42.1364207" lon="19.0625178"><ele>17.0</ele><time>2026-05-04T07:01:31.657Z</time></trkpt><trkpt lat="42.1365031" lon="19.0623607"><ele>17.0</ele><time>2026-05-04T07:01:32.658Z</time></trkpt><trkpt lat="42.1365819" lon="19.0621945"><ele>17.75</ele><time>2026-05-04T07:01:33.657Z</time></trkpt><trkpt lat="42.1366559" lon="19.0620295"><ele>18.5</ele><time>2026-05-04T07:01:34.657Z</time></trkpt><trkpt lat="42.1367244" lon="19.061859"><ele>19.25</ele><time>2026-05-04T07:01:35.658Z</time></trkpt><trkpt lat="42.1367888" lon="19.061684"><ele>20.0</ele><time>2026-05-04T07:01:36.658Z</time></trkpt><trkpt lat="42.13685" lon="19.0615083"><ele>20.0</ele><time>2026-05-04T07:01:37.658Z</time></trkpt><trkpt lat="42.1369075" lon="19.0613285"><ele>20.0</ele><time>2026-05-04T07:01:38.657Z</time></trkpt><trkpt lat="42.1369604" lon="19.0611465"><ele>20.0</ele><time>2026-05-04T07:01:39.657Z</time></trkpt><trkpt lat="42.1370082" lon="19.0609615"><ele>20.0</ele><time>2026-05-04T07:01:40.658Z</time></trkpt><trkpt lat="42.13705" lon="19.0607726"><ele>19.25</ele><time>2026-05-04T07:01:41.658Z</time></trkpt><trkpt lat="42.1370872" lon="19.0605825"><ele>18.5</ele><time>2026-05-04T07:01:42.658Z</time></trkpt><trkpt lat="42.1371161" lon="19.0603878"><ele>17.75</ele><time>2026-05-04T07:01:43.658Z</time></trkpt><trkpt lat="42.1371407" lon="19.0601894"><ele>17.0</ele><time>2026-05-04T07:01:44.658Z</time></trkpt><trkpt lat="42.1371592" lon="19.0599863"><ele>16.666666666666668</ele><time>2026-05-04T07:01:45.658Z</time></trkpt><trkpt lat="42.1371734" lon="19.0597872"><ele>16.333333333333332</ele><time>2026-05-04T07:01:46.658Z</time></trkpt><trkpt lat="42.1371792" lon="19.0595833"><ele>16.0</ele><time>2026-05-04T07:01:47.657Z</time></trkpt><trkpt lat="42.1371774" lon="19.0593772"><ele>16.0</ele><time>2026-05-04T07:01:48.658Z</time></trkpt><trkpt lat="42.1371667" lon="19.0591717"><ele>16.0</ele><time>2026-05-04T07:01:49.658Z</time></trkpt><trkpt lat="42.1371433" lon="19.0589701"><ele>16.0</ele><time>2026-05-04T07:01:50.657Z</time></trkpt><trkpt lat="42.137104" lon="19.0587767"><ele>17.0</ele><time>2026-05-04T07:01:51.658Z</time></trkpt><trkpt lat="42.1370547" lon="19.05859"><ele>18.0</ele><time>2026-05-04T07:01:52.658Z</time></trkpt><trkpt lat="42.1370039" lon="19.0584099"><ele>19.0</ele><time>2026-05-04T07:01:53.657Z</time></trkpt><trkpt lat="42.1369507" lon="19.0582307"><ele>20.0</ele><time>2026-05-04T07:01:54.658Z</time></trkpt><trkpt lat="42.1369009" lon="19.0580544"><ele>20.75</ele><time>2026-05-04T07:01:55.658Z</time></trkpt><trkpt lat="42.1368569" lon="19.0578783"><ele>21.5</ele><time>2026-05-04T07:01:56.658Z</time></trkpt><trkpt lat="42.1368241" lon="19.0576944"><ele>22.25</ele><time>2026-05-04T07:01:57.658Z</time></trkpt><trkpt lat="42.1367998" lon="19.0575085"><ele>23.0</ele><time>2026-05-04T07:01:58.658Z</time></trkpt><trkpt lat="42.1367879" lon="19.0573228"><ele>21.5</ele><time>2026-05-04T07:01:59.658Z</time></trkpt><trkpt lat="42.1367865" lon="19.0571297"><ele>20.0</ele><time>2026-05-04T07:02:00.658Z</time></trkpt><trkpt lat="42.1367937" lon="19.0569289"><ele>18.5</ele><time>2026-05-04T07:02:01.658Z</time></trkpt><trkpt lat="42.136804" lon="19.0567284"><ele>17.0</ele><time>2026-05-04T07:02:02.658Z</time></trkpt><trkpt lat="42.1368235" lon="19.0565269"><ele>16.0</ele><time>2026-05-04T07:02:03.658Z</time></trkpt><trkpt lat="42.1368456" lon="19.0563245"><ele>15.0</ele><time>2026-05-04T07:02:04.658Z</time></trkpt><trkpt lat="42.1368728" lon="19.056124"><ele>14.0</ele><time>2026-05-04T07:02:05.658Z</time></trkpt><trkpt lat="42.1369063" lon="19.0559259"><ele>12.5</ele><time>2026-05-04T07:02:06.658Z</time></trkpt><trkpt lat="42.1369432" lon="19.055732"><ele>11.0</ele><time>2026-05-04T07:02:07.658Z</time></trkpt><trkpt lat="42.136981" lon="19.055548"><ele>9.5</ele><time>2026-05-04T07:02:08.657Z</time></trkpt><trkpt lat="42.1370213" lon="19.0553741"><ele>8.0</ele><time>2026-05-04T07:02:09.657Z</time></trkpt><trkpt lat="42.1370664" lon="19.0552067"><ele>8.0</ele><time>2026-05-04T07:02:10.658Z</time></trkpt><trkpt lat="42.1371115" lon="19.0550464"><ele>8.0</ele><time>2026-05-04T07:02:11.658Z</time></trkpt><trkpt lat="42.1371592" lon="19.0548887"><ele>8.0</ele><time>2026-05-04T07:02:12.657Z</time></trkpt><trkpt lat="42.1372033" lon="19.054732"><ele>8.0</ele><time>2026-05-04T07:02:13.657Z</time></trkpt><trkpt lat="42.1372418" lon="19.054571"><ele>8.25</ele><time>2026-05-04T07:02:14.658Z</time></trkpt><trkpt lat="42.1372913" lon="19.054414"><ele>8.5</ele><time>2026-05-04T07:02:15.657Z</time></trkpt><trkpt lat="42.1373522" lon="19.0542642"><ele>8.75</ele><time>2026-05-04T07:02:16.658Z</time></trkpt><trkpt lat="42.1374111" lon="19.0541173"><ele>9.0</ele><time>2026-05-04T07:02:17.657Z</time></trkpt><trkpt lat="42.1374715" lon="19.0539738"><ele>9.0</ele><time>2026-05-04T07:02:18.657Z</time></trkpt><trkpt lat="42.1375345" lon="19.0538336"><ele>9.0</ele><time>2026-05-04T07:02:19.658Z</time></trkpt><trkpt lat="42.1375885" lon="19.0537073"><ele>9.0</ele><time>2026-05-04T07:02:20.657Z</time></trkpt><trkpt lat="42.1376436" lon="19.0535922"><ele>9.0</ele><time>2026-05-04T07:02:21.657Z</time></trkpt><trkpt lat="42.1376921" lon="19.0534863"><ele>9.0</ele><time>2026-05-04T07:02:22.657Z</time></trkpt><trkpt lat="42.1377388" lon="19.0533885"><ele>9.0</ele><time>2026-05-04T07:02:23.657Z</time></trkpt><trkpt lat="42.1377822" lon="19.0532957"><ele>9.0</ele><time>2026-05-04T07:02:24.657Z</time></trkpt><trkpt lat="42.1378239" lon="19.0532071"><ele>9.0</ele><time>2026-05-04T07:02:25.658Z</time></trkpt><trkpt lat="42.1378657" lon="19.0531193"><ele>9.0</ele><time>2026-05-04T07:02:26.658Z</time></trkpt><trkpt lat="42.1379057" lon="19.0530328"><ele>9.0</ele><time>2026-05-04T07:02:27.658Z</time></trkpt><trkpt lat="42.1379457" lon="19.0529425"><ele>9.0</ele><time>2026-05-04T07:02:28.657Z</time></trkpt><trkpt lat="42.1379864" lon="19.0528517"><ele>8.5</ele><time>2026-05-04T07:02:29.657Z</time></trkpt><trkpt lat="42.1380262" lon="19.0527578"><ele>8.0</ele><time>2026-05-04T07:02:30.657Z</time></trkpt><trkpt lat="42.1380631" lon="19.0526625"><ele>7.5</ele><time>2026-05-04T07:02:31.657Z</time></trkpt><trkpt lat="42.1381" lon="19.0525662"><ele>7.0</ele><time>2026-05-04T07:02:32.658Z</time></trkpt><trkpt lat="42.1381352" lon="19.0524672"><ele>6.5</ele><time>2026-05-04T07:02:33.657Z</time></trkpt><trkpt lat="42.1381706" lon="19.0523696"><ele>6.0</ele><time>2026-05-04T07:02:34.657Z</time></trkpt><trkpt lat="42.1382048" lon="19.0522706"><ele>8.166666666666666</ele><time>2026-05-04T07:02:35.657Z</time></trkpt><trkpt lat="42.1382349" lon="19.0521689"><ele>10.333333333333332</ele><time>2026-05-04T07:02:36.657Z</time></trkpt><trkpt lat="42.1382664" lon="19.0520676"><ele>12.5</ele><time>2026-05-04T07:02:37.657Z</time></trkpt><trkpt lat="42.1382984" lon="19.0519635"><ele>14.666666666666666</ele><time>2026-05-04T07:02:38.657Z</time></trkpt><trkpt lat="42.1383274" lon="19.0518556"><ele>16.833333333333332</ele><time>2026-05-04T07:02:39.657Z</time></trkpt><trkpt lat="42.1383574" lon="19.0517477"><ele>19.0</ele><time>2026-05-04T07:02:40.657Z</time></trkpt><trkpt lat="42.1383865" lon="19.0516392"><ele>17.8</ele><time>2026-05-04T07:02:41.658Z</time></trkpt><trkpt lat="42.1384159" lon="19.0515296"><ele>16.599999999999998</ele><time>2026-05-04T07:02:42.658Z</time></trkpt><trkpt lat="42.1384457" lon="19.0514195"><ele>15.4</ele><time>2026-05-04T07:02:43.658Z</time></trkpt><trkpt lat="42.13848" lon="19.0513052"><ele>14.2</ele><time>2026-05-04T07:02:44.657Z</time></trkpt><trkpt lat="42.1385177" lon="19.0511873"><ele>13.0</ele><time>2026-05-04T07:02:45.658Z</time></trkpt><trkpt lat="42.1385574" lon="19.0510661"><ele>13.0</ele><time>2026-05-04T07:02:46.657Z</time></trkpt><trkpt lat="42.1386022" lon="19.0509465"><ele>13.0</ele><time>2026-05-04T07:02:47.658Z</time></trkpt><trkpt lat="42.1386506" lon="19.0508267"><ele>13.0</ele><time>2026-05-04T07:02:48.658Z</time></trkpt><trkpt lat="42.1387003" lon="19.0507067"><ele>13.0</ele><time>2026-05-04T07:02:49.658Z</time></trkpt><trkpt lat="42.1387597" lon="19.0505925"><ele>13.0</ele><time>2026-05-04T07:02:50.658Z</time></trkpt><trkpt lat="42.1388296" lon="19.0504784"><ele>11.75</ele><time>2026-05-04T07:02:51.658Z</time></trkpt><trkpt lat="42.1389015" lon="19.0503586"><ele>10.5</ele><time>2026-05-04T07:02:52.658Z</time></trkpt><trkpt lat="42.1389713" lon="19.0502338"><ele>9.25</ele><time>2026-05-04T07:02:53.658Z</time></trkpt><trkpt lat="42.1390489" lon="19.0501197"><ele>8.0</ele><time>2026-05-04T07:02:54.658Z</time></trkpt><trkpt lat="42.1391295" lon="19.0500041"><ele>9.0</ele><time>2026-05-04T07:02:55.657Z</time></trkpt><trkpt lat="42.1392178" lon="19.0498924"><ele>10.0</ele><time>2026-05-04T07:02:56.658Z</time></trkpt><trkpt lat="42.1393082" lon="19.0497775"><ele>11.0</ele><time>2026-05-04T07:02:57.658Z</time></trkpt><trkpt lat="42.1394032" lon="19.0496682"><ele>12.0</ele><time>2026-05-04T07:02:58.657Z</time></trkpt><trkpt lat="42.1394986" lon="19.0495621"><ele>12.0</ele><time>2026-05-04T07:02:59.657Z</time></trkpt><trkpt lat="42.1395964" lon="19.0494639"><ele>12.0</ele><time>2026-05-04T07:03:00.658Z</time></trkpt><trkpt lat="42.1396966" lon="19.0493742"><ele>12.0</ele><time>2026-05-04T07:03:01.658Z</time></trkpt><trkpt lat="42.1397951" lon="19.049292"><ele>12.0</ele><time>2026-05-04T07:03:02.657Z</time></trkpt><trkpt lat="42.1398956" lon="19.0492172"><ele>12.399999999999999</ele><time>2026-05-04T07:03:03.657Z</time></trkpt><trkpt lat="42.139995" lon="19.049147"><ele>12.799999999999999</ele><time>2026-05-04T07:03:04.658Z</time></trkpt><trkpt lat="42.1400928" lon="19.0490795"><ele>13.2</ele><time>2026-05-04T07:03:05.657Z</time></trkpt><trkpt lat="42.1401877" lon="19.0490133"><ele>13.6</ele><time>2026-05-04T07:03:06.658Z</time></trkpt><trkpt lat="42.1402836" lon="19.0489517"><ele>14.0</ele><time>2026-05-04T07:03:07.658Z</time></trkpt><trkpt lat="42.1403766" lon="19.0488893"><ele>14.0</ele><time>2026-05-04T07:03:08.657Z</time></trkpt><trkpt lat="42.140467" lon="19.0488238"><ele>13.999999999999998</ele><time>2026-05-04T07:03:09.658Z</time></trkpt><trkpt lat="42.1405559" lon="19.0487561"><ele>13.999999999999998</ele><time>2026-05-04T07:03:10.658Z</time></trkpt><trkpt lat="42.1406399" lon="19.0486862"><ele>14.0</ele><time>2026-05-04T07:03:11.658Z</time></trkpt><trkpt lat="42.1407193" lon="19.0486155"><ele>14.0</ele><time>2026-05-04T07:03:12.657Z</time></trkpt><trkpt lat="42.1407926" lon="19.048547"><ele>14.833333333333334</ele><time>2026-05-04T07:03:13.657Z</time></trkpt><trkpt lat="42.140861" lon="19.0484829"><ele>15.666666666666668</ele><time>2026-05-04T07:03:14.658Z</time></trkpt><trkpt lat="42.1409237" lon="19.0484174"><ele>16.5</ele><time>2026-05-04T07:03:15.658Z</time></trkpt><trkpt lat="42.1409848" lon="19.0483523"><ele>17.333333333333332</ele><time>2026-05-04T07:03:16.657Z</time></trkpt><trkpt lat="42.1410464" lon="19.0482835"><ele>18.166666666666664</ele><time>2026-05-04T07:03:17.658Z</time></trkpt><trkpt lat="42.1411088" lon="19.0482128"><ele>19.0</ele><time>2026-05-04T07:03:18.657Z</time></trkpt><trkpt lat="42.1411718" lon="19.0481367"><ele>19.0</ele><time>2026-05-04T07:03:19.657Z</time></trkpt><trkpt lat="42.1412372" lon="19.0480537"><ele>19.0</ele><time>2026-05-04T07:03:20.658Z</time></trkpt><trkpt lat="42.141306" lon="19.0479652"><ele>19.0</ele><time>2026-05-04T07:03:21.657Z</time></trkpt><trkpt lat="42.1413764" lon="19.0478727"><ele>19.0</ele><time>2026-05-04T07:03:22.658Z</time></trkpt><trkpt lat="42.1414455" lon="19.0477816"><ele>19.0</ele><time>2026-05-04T07:03:23.657Z</time></trkpt><trkpt lat="42.1415102" lon="19.0476923"><ele>19.833333333333332</ele><time>2026-05-04T07:03:24.658Z</time></trkpt><trkpt lat="42.1415694" lon="19.0476043"><ele>20.666666666666664</ele><time>2026-05-04T07:03:25.657Z</time></trkpt><trkpt lat="42.1416273" lon="19.0475211"><ele>21.5</ele><time>2026-05-04T07:03:26.657Z</time></trkpt><trkpt lat="42.1416789" lon="19.047443"><ele>22.333333333333332</ele><time>2026-05-04T07:03:27.657Z</time></trkpt><trkpt lat="42.1417241" lon="19.0473688"><ele>23.166666666666668</ele><time>2026-05-04T07:03:28.657Z</time></trkpt><trkpt lat="42.1417668" lon="19.0472993"><ele>24.0</ele><time>2026-05-04T07:03:29.657Z</time></trkpt><trkpt lat="42.1418327" lon="19.0471877"><ele>24.0</ele><time>2026-05-04T07:03:31.657Z</time></trkpt><trkpt lat="42.1418854" lon="19.047096"><ele>24.0</ele><time>2026-05-04T07:03:33.658Z</time></trkpt><trkpt lat="42.1419371" lon="19.047007"><ele>24.0</ele><time>2026-05-04T07:03:35.658Z</time></trkpt><trkpt lat="42.1419989" lon="19.0468991"><ele>24.0</ele><time>2026-05-04T07:03:37.657Z</time></trkpt><trkpt lat="42.1420714" lon="19.0467726"><ele>24.0</ele><time>2026-05-04T07:03:39.658Z</time></trkpt><trkpt lat="42.1421088" lon="19.0467022"><ele>24.0</ele><time>2026-05-04T07:03:40.658Z</time></trkpt><trkpt lat="42.142147" lon="19.0466301"><ele>24.0</ele><time>2026-05-04T07:03:41.658Z</time></trkpt><trkpt lat="42.142187" lon="19.0465539"><ele>24.0</ele><time>2026-05-04T07:03:42.658Z</time></trkpt><trkpt lat="42.142228" lon="19.0464766"><ele>24.0</ele><time>2026-05-04T07:03:43.658Z</time></trkpt><trkpt lat="42.1422726" lon="19.0463951"><ele>24.0</ele><time>2026-05-04T07:03:44.657Z</time></trkpt><trkpt lat="42.1423215" lon="19.046306"><ele>24.0</ele><time>2026-05-04T07:03:45.657Z</time></trkpt><trkpt lat="42.1423739" lon="19.046209"><ele>24.2</ele><time>2026-05-04T07:03:46.657Z</time></trkpt><trkpt lat="42.142426" lon="19.0461117"><ele>24.4</ele><time>2026-05-04T07:03:47.658Z</time></trkpt><trkpt lat="42.1424831" lon="19.0460118"><ele>24.6</ele><time>2026-05-04T07:03:48.658Z</time></trkpt><trkpt lat="42.1425485" lon="19.0459085"><ele>24.8</ele><time>2026-05-04T07:03:49.658Z</time></trkpt><trkpt lat="42.1426174" lon="19.0458022"><ele>25.0</ele><time>2026-05-04T07:03:50.657Z</time></trkpt><trkpt lat="42.1426889" lon="19.0456885"><ele>25.0</ele><time>2026-05-04T07:03:51.658Z</time></trkpt><trkpt lat="42.1427648" lon="19.0455698"><ele>25.0</ele><time>2026-05-04T07:03:52.658Z</time></trkpt><trkpt lat="42.142846" lon="19.0454495"><ele>25.0</ele><time>2026-05-04T07:03:53.658Z</time></trkpt><trkpt lat="42.1429311" lon="19.0453307"><ele>25.0</ele><time>2026-05-04T07:03:54.657Z</time></trkpt><trkpt lat="42.1430191" lon="19.045218"><ele>25.0</ele><time>2026-05-04T07:03:55.657Z</time></trkpt><trkpt lat="42.1431062" lon="19.0451081"><ele>25.0</ele><time>2026-05-04T07:03:56.657Z</time></trkpt><trkpt lat="42.1431955" lon="19.0450037"><ele>25.0</ele><time>2026-05-04T07:03:57.657Z</time></trkpt><trkpt lat="42.143287" lon="19.044902"><ele>25.0</ele><time>2026-05-04T07:03:58.657Z</time></trkpt><trkpt lat="42.1433816" lon="19.0448032"><ele>26.0</ele><time>2026-05-04T07:03:59.657Z</time></trkpt><trkpt lat="42.1434808" lon="19.044705"><ele>27.0</ele><time>2026-05-04T07:04:00.657Z</time></trkpt><trkpt lat="42.1435833" lon="19.0446087"><ele>28.0</ele><time>2026-05-04T07:04:01.657Z</time></trkpt><trkpt lat="42.1436909" lon="19.0445127"><ele>29.0</ele><time>2026-05-04T07:04:02.658Z</time></trkpt><trkpt lat="42.1438017" lon="19.0444206"><ele>29.0</ele><time>2026-05-04T07:04:03.658Z</time></trkpt><trkpt lat="42.1439179" lon="19.0443313"><ele>29.0</ele><time>2026-05-04T07:04:04.658Z</time></trkpt><trkpt lat="42.1440364" lon="19.0442478"><ele>29.0</ele><time>2026-05-04T07:04:05.657Z</time></trkpt><trkpt lat="42.1441558" lon="19.044168"><ele>29.0</ele><time>2026-05-04T07:04:06.657Z</time></trkpt><trkpt lat="42.1442757" lon="19.0440921"><ele>29.0</ele><time>2026-05-04T07:04:07.657Z</time></trkpt><trkpt lat="42.1443958" lon="19.0440184"><ele>29.0</ele><time>2026-05-04T07:04:08.657Z</time></trkpt><trkpt lat="42.1445164" lon="19.0439466"><ele>29.0</ele><time>2026-05-04T07:04:09.657Z</time></trkpt><trkpt lat="42.1446376" lon="19.0438734"><ele>29.0</ele><time>2026-05-04T07:04:10.658Z</time></trkpt><trkpt lat="42.1447591" lon="19.043798"><ele>29.5</ele><time>2026-05-04T07:04:11.657Z</time></trkpt><trkpt lat="42.1448815" lon="19.043722"><ele>30.0</ele><time>2026-05-04T07:04:12.658Z</time></trkpt><trkpt lat="42.1450011" lon="19.0436417"><ele>30.5</ele><time>2026-05-04T07:04:13.658Z</time></trkpt><trkpt lat="42.1451174" lon="19.0435555"><ele>31.0</ele><time>2026-05-04T07:04:14.658Z</time></trkpt><trkpt lat="42.1452292" lon="19.0434629"><ele>31.0</ele><time>2026-05-04T07:04:15.657Z</time></trkpt><trkpt lat="42.1453371" lon="19.0433635"><ele>31.0</ele><time>2026-05-04T07:04:16.658Z</time></trkpt><trkpt lat="42.1454361" lon="19.0432614"><ele>31.0</ele><time>2026-05-04T07:04:17.658Z</time></trkpt><trkpt lat="42.1455248" lon="19.0431606"><ele>31.0</ele><time>2026-05-04T07:04:18.658Z</time></trkpt><trkpt lat="42.1456043" lon="19.0430652"><ele>30.6</ele><time>2026-05-04T07:04:19.657Z</time></trkpt><trkpt lat="42.1456709" lon="19.0429778"><ele>30.200000000000003</ele><time>2026-05-04T07:04:20.657Z</time></trkpt><trkpt lat="42.1457294" lon="19.0429021"><ele>29.799999999999997</ele><time>2026-05-04T07:04:21.658Z</time></trkpt><trkpt lat="42.1457778" lon="19.0428305"><ele>29.4</ele><time>2026-05-04T07:04:22.657Z</time></trkpt><trkpt lat="42.1458549" lon="19.0427125"><ele>29.0</ele><time>2026-05-04T07:04:24.657Z</time></trkpt><trkpt lat="42.145923" lon="19.0425948"><ele>30.499999999999996</ele><time>2026-05-04T07:04:26.657Z</time></trkpt><trkpt lat="42.1459899" lon="19.0424506"><ele>32.0</ele><time>2026-05-04T07:04:28.658Z</time></trkpt><trkpt lat="42.1460259" lon="19.0423712"><ele>33.5</ele><time>2026-05-04T07:04:29.657Z</time></trkpt><trkpt lat="42.1460633" lon="19.0422869"><ele>35.0</ele><time>2026-05-04T07:04:30.658Z</time></trkpt><trkpt lat="42.1461051" lon="19.0421968"><ele>36.5</ele><time>2026-05-04T07:04:31.657Z</time></trkpt><trkpt lat="42.146149" lon="19.0421038"><ele>38.0</ele><time>2026-05-04T07:04:32.658Z</time></trkpt><trkpt lat="42.1461938" lon="19.0420034"><ele>38.0</ele><time>2026-05-04T07:04:33.657Z</time></trkpt><trkpt lat="42.1462395" lon="19.0418937"><ele>38.0</ele><time>2026-05-04T07:04:34.658Z</time></trkpt><trkpt lat="42.1462866" lon="19.0417878"><ele>38.0</ele><time>2026-05-04T07:04:35.657Z</time></trkpt><trkpt lat="42.1463352" lon="19.041678"><ele>38.0</ele><time>2026-05-04T07:04:36.657Z</time></trkpt><trkpt lat="42.1463884" lon="19.0415638"><ele>38.0</ele><time>2026-05-04T07:04:37.658Z</time></trkpt><trkpt lat="42.1464488" lon="19.0414475"><ele>37.25</ele><time>2026-05-04T07:04:38.658Z</time></trkpt><trkpt lat="42.1465161" lon="19.0413257"><ele>36.5</ele><time>2026-05-04T07:04:39.658Z</time></trkpt><trkpt lat="42.1465874" lon="19.0412017"><ele>35.75</ele><time>2026-05-04T07:04:40.658Z</time></trkpt><trkpt lat="42.1466648" lon="19.0410779"><ele>35.0</ele><time>2026-05-04T07:04:41.658Z</time></trkpt><trkpt lat="42.146746" lon="19.0409544"><ele>35.5</ele><time>2026-05-04T07:04:42.658Z</time></trkpt><trkpt lat="42.1468326" lon="19.04084"><ele>36.0</ele><time>2026-05-04T07:04:43.657Z</time></trkpt><trkpt lat="42.146922" lon="19.0407324"><ele>36.5</ele><time>2026-05-04T07:04:44.657Z</time></trkpt><trkpt lat="42.1470136" lon="19.0406301"><ele>37.0</ele><time>2026-05-04T07:04:45.657Z</time></trkpt><trkpt lat="42.147107" lon="19.0405353"><ele>37.0</ele><time>2026-05-04T07:04:46.657Z</time></trkpt><trkpt lat="42.1472019" lon="19.0404477"><ele>37.0</ele><time>2026-05-04T07:04:47.657Z</time></trkpt><trkpt lat="42.1472985" lon="19.0403669"><ele>37.0</ele><time>2026-05-04T07:04:48.658Z</time></trkpt><trkpt lat="42.1473972" lon="19.0402892"><ele>37.0</ele><time>2026-05-04T07:04:49.657Z</time></trkpt><trkpt lat="42.1474993" lon="19.0402167"><ele>38.5</ele><time>2026-05-04T07:04:50.658Z</time></trkpt><trkpt lat="42.1476012" lon="19.0401463"><ele>40.0</ele><time>2026-05-04T07:04:51.658Z</time></trkpt><trkpt lat="42.1477109" lon="19.0400862"><ele>41.5</ele><time>2026-05-04T07:04:52.657Z</time></trkpt><trkpt lat="42.1478201" lon="19.040032"><ele>43.0</ele><time>2026-05-04T07:04:53.657Z</time></trkpt><trkpt lat="42.1479293" lon="19.0399836"><ele>42.75</ele><time>2026-05-04T07:04:54.658Z</time></trkpt><trkpt lat="42.1480413" lon="19.0399417"><ele>42.5</ele><time>2026-05-04T07:04:55.657Z</time></trkpt><trkpt lat="42.1481592" lon="19.0399047"><ele>42.25</ele><time>2026-05-04T07:04:56.657Z</time></trkpt><trkpt lat="42.1482813" lon="19.0398779"><ele>42.0</ele><time>2026-05-04T07:04:57.657Z</time></trkpt><trkpt lat="42.1484069" lon="19.0398591"><ele>42.0</ele><time>2026-05-04T07:04:58.657Z</time></trkpt><trkpt lat="42.1485294" lon="19.0398455"><ele>42.0</ele><time>2026-05-04T07:04:59.657Z</time></trkpt><trkpt lat="42.1486529" lon="19.0398301"><ele>42.0</ele><time>2026-05-04T07:05:00.658Z</time></trkpt><trkpt lat="42.1487779" lon="19.0398223"><ele>42.0</ele><time>2026-05-04T07:05:01.658Z</time></trkpt><trkpt lat="42.1489065" lon="19.0398163"><ele>42.0</ele><time>2026-05-04T07:05:02.658Z</time></trkpt><trkpt lat="42.1490355" lon="19.0398071"><ele>42.0</ele><time>2026-05-04T07:05:03.657Z</time></trkpt><trkpt lat="42.1491634" lon="19.0397926"><ele>42.0</ele><time>2026-05-04T07:05:04.658Z</time></trkpt><trkpt lat="42.1492837" lon="19.0397731"><ele>42.0</ele><time>2026-05-04T07:05:05.658Z</time></trkpt><trkpt lat="42.1493958" lon="19.0397501"><ele>42.6</ele><time>2026-05-04T07:05:06.657Z</time></trkpt><trkpt lat="42.1494961" lon="19.0397248"><ele>43.2</ele><time>2026-05-04T07:05:07.657Z</time></trkpt><trkpt lat="42.1495848" lon="19.0397"><ele>43.8</ele><time>2026-05-04T07:05:08.658Z</time></trkpt><trkpt lat="42.1496685" lon="19.0396716"><ele>44.4</ele><time>2026-05-04T07:05:09.657Z</time></trkpt><trkpt lat="42.1497643" lon="19.0396272"><ele>45.0</ele><time>2026-05-04T07:05:10.657Z</time></trkpt><trkpt lat="42.1498804" lon="19.0395656"><ele>45.0</ele><time>2026-05-04T07:05:11.657Z</time></trkpt><trkpt lat="42.1500153" lon="19.0394815"><ele>45.0</ele><time>2026-05-04T07:05:12.657Z</time></trkpt><trkpt lat="42.1501584" lon="19.0393859"><ele>45.0</ele><time>2026-05-04T07:05:13.658Z</time></trkpt><trkpt lat="42.1503012" lon="19.0392841"><ele>45.0</ele><time>2026-05-04T07:05:14.657Z</time></trkpt><trkpt lat="42.1504389" lon="19.0391716"><ele>45.0</ele><time>2026-05-04T07:05:15.658Z</time></trkpt><trkpt lat="42.1505683" lon="19.0390497"><ele>45.0</ele><time>2026-05-04T07:05:16.657Z</time></trkpt><trkpt lat="42.1506853" lon="19.0389266"><ele>46.25</ele><time>2026-05-04T07:05:17.658Z</time></trkpt><trkpt lat="42.1507884" lon="19.0388053"><ele>47.5</ele><time>2026-05-04T07:05:18.658Z</time></trkpt><trkpt lat="42.1508795" lon="19.0386832"><ele>48.75</ele><time>2026-05-04T07:05:19.658Z</time></trkpt><trkpt lat="42.1509617" lon="19.0385592"><ele>50.0</ele><time>2026-05-04T07:05:20.658Z</time></trkpt><trkpt lat="42.1510391" lon="19.0384378"><ele>50.0</ele><time>2026-05-04T07:05:21.658Z</time></trkpt><trkpt lat="42.1511118" lon="19.0383131"><ele>50.0</ele><time>2026-05-04T07:05:22.657Z</time></trkpt><trkpt lat="42.1511786" lon="19.038186"><ele>50.0</ele><time>2026-05-04T07:05:23.657Z</time></trkpt><trkpt lat="42.1512387" lon="19.0380651"><ele>50.0</ele><time>2026-05-04T07:05:24.657Z</time></trkpt><trkpt lat="42.1512922" lon="19.0379491"><ele>50.0</ele><time>2026-05-04T07:05:25.658Z</time></trkpt><trkpt lat="42.1513407" lon="19.0378331"><ele>50.4</ele><time>2026-05-04T07:05:26.657Z</time></trkpt><trkpt lat="42.1513856" lon="19.037716"><ele>50.8</ele><time>2026-05-04T07:05:27.657Z</time></trkpt><trkpt lat="42.151428" lon="19.0375986"><ele>51.2</ele><time>2026-05-04T07:05:28.658Z</time></trkpt><trkpt lat="42.151466" lon="19.0374814"><ele>51.6</ele><time>2026-05-04T07:05:29.658Z</time></trkpt><trkpt lat="42.1515002" lon="19.0373684"><ele>52.0</ele><time>2026-05-04T07:05:30.658Z</time></trkpt><trkpt lat="42.1515313" lon="19.0372489"><ele>55.0</ele><time>2026-05-04T07:05:31.657Z</time></trkpt><trkpt lat="42.1515614" lon="19.0371257"><ele>58.0</ele><time>2026-05-04T07:05:32.658Z</time></trkpt><trkpt lat="42.1515929" lon="19.0369898"><ele>61.0</ele><time>2026-05-04T07:05:33.657Z</time></trkpt><trkpt lat="42.1516278" lon="19.0368374"><ele>64.0</ele><time>2026-05-04T07:05:34.658Z</time></trkpt><trkpt lat="42.1516678" lon="19.0366669"><ele>64.0</ele><time>2026-05-04T07:05:35.657Z</time></trkpt><trkpt lat="42.1517132" lon="19.0364765"><ele>64.0</ele><time>2026-05-04T07:05:36.658Z</time></trkpt><trkpt lat="42.1517654" lon="19.036282"><ele>64.0</ele><time>2026-05-04T07:05:37.658Z</time></trkpt><trkpt lat="42.1518245" lon="19.0360858"><ele>64.0</ele><time>2026-05-04T07:05:38.657Z</time></trkpt><trkpt lat="42.1518902" lon="19.0358919"><ele>64.0</ele><time>2026-05-04T07:05:39.657Z</time></trkpt><trkpt lat="42.1519597" lon="19.0356943"><ele>64.0</ele><time>2026-05-04T07:05:40.657Z</time></trkpt><trkpt lat="42.1520328" lon="19.0354906"><ele>63.33333333333333</ele><time>2026-05-04T07:05:41.658Z</time></trkpt><trkpt lat="42.1521145" lon="19.0352747"><ele>62.66666666666667</ele><time>2026-05-04T07:05:42.657Z</time></trkpt><trkpt lat="42.1522036" lon="19.0350629"><ele>62.0</ele><time>2026-05-04T07:05:43.658Z</time></trkpt><trkpt lat="42.1523022" lon="19.034853"><ele>63.66666666666667</ele><time>2026-05-04T07:05:44.658Z</time></trkpt><trkpt lat="42.1524065" lon="19.0346497"><ele>65.33333333333333</ele><time>2026-05-04T07:05:45.657Z</time></trkpt><trkpt lat="42.152514" lon="19.0344557"><ele>67.0</ele><time>2026-05-04T07:05:46.658Z</time></trkpt><trkpt lat="42.1526242" lon="19.0342683"><ele>67.33333333333333</ele><time>2026-05-04T07:05:47.657Z</time></trkpt><trkpt lat="42.1527364" lon="19.0340898"><ele>67.66666666666667</ele><time>2026-05-04T07:05:48.657Z</time></trkpt><trkpt lat="42.1528501" lon="19.0339203"><ele>68.0</ele><time>2026-05-04T07:05:49.657Z</time></trkpt><trkpt lat="42.1529628" lon="19.0337588"><ele>68.0</ele><time>2026-05-04T07:05:50.658Z</time></trkpt><trkpt lat="42.1530744" lon="19.0336137"><ele>68.0</ele><time>2026-05-04T07:05:51.658Z</time></trkpt><trkpt lat="42.1531833" lon="19.0334807"><ele>68.0</ele><time>2026-05-04T07:05:52.658Z</time></trkpt><trkpt lat="42.1532942" lon="19.0333554"><ele>68.0</ele><time>2026-05-04T07:05:53.658Z</time></trkpt><trkpt lat="42.1534059" lon="19.033236"><ele>69.5</ele><time>2026-05-04T07:05:54.658Z</time></trkpt><trkpt lat="42.153516" lon="19.0331266"><ele>71.0</ele><time>2026-05-04T07:05:55.657Z</time></trkpt><trkpt lat="42.1536256" lon="19.0330281"><ele>72.5</ele><time>2026-05-04T07:05:56.658Z</time></trkpt><trkpt lat="42.1537367" lon="19.0329352"><ele>74.0</ele><time>2026-05-04T07:05:57.658Z</time></trkpt><trkpt lat="42.153854" lon="19.0328452"><ele>74.0</ele><time>2026-05-04T07:05:58.658Z</time></trkpt><trkpt lat="42.153974" lon="19.032762"><ele>74.0</ele><time>2026-05-04T07:05:59.658Z</time></trkpt><trkpt lat="42.1540947" lon="19.0326844"><ele>74.0</ele><time>2026-05-04T07:06:00.657Z</time></trkpt><trkpt lat="42.1542142" lon="19.0326114"><ele>74.0</ele><time>2026-05-04T07:06:01.657Z</time></trkpt><trkpt lat="42.1543349" lon="19.0325426"><ele>74.5</ele><time>2026-05-04T07:06:02.658Z</time></trkpt><trkpt lat="42.1544557" lon="19.0324753"><ele>75.0</ele><time>2026-05-04T07:06:03.657Z</time></trkpt><trkpt lat="42.154579" lon="19.0324109"><ele>75.5</ele><time>2026-05-04T07:06:04.658Z</time></trkpt><trkpt lat="42.1547035" lon="19.0323482"><ele>76.0</ele><time>2026-05-04T07:06:05.657Z</time></trkpt><trkpt lat="42.1548301" lon="19.0322826"><ele>76.75</ele><time>2026-05-04T07:06:06.658Z</time></trkpt><trkpt lat="42.1549565" lon="19.0322144"><ele>77.5</ele><time>2026-05-04T07:06:07.657Z</time></trkpt><trkpt lat="42.1550815" lon="19.0321414"><ele>78.25</ele><time>2026-05-04T07:06:08.658Z</time></trkpt><trkpt lat="42.155207" lon="19.0320642"><ele>79.0</ele><time>2026-05-04T07:06:09.658Z</time></trkpt><trkpt lat="42.1553292" lon="19.0319837"><ele>79.0</ele><time>2026-05-04T07:06:10.658Z</time></trkpt><trkpt lat="42.1554481" lon="19.0319004"><ele>79.0</ele><time>2026-05-04T07:06:11.658Z</time></trkpt><trkpt lat="42.1555646" lon="19.031813"><ele>79.0</ele><time>2026-05-04T07:06:12.657Z</time></trkpt><trkpt lat="42.1556777" lon="19.0317239"><ele>79.0</ele><time>2026-05-04T07:06:13.658Z</time></trkpt><trkpt lat="42.1557817" lon="19.0316375"><ele>79.2</ele><time>2026-05-04T07:06:14.658Z</time></trkpt><trkpt lat="42.1558753" lon="19.0315559"><ele>79.4</ele><time>2026-05-04T07:06:15.658Z</time></trkpt><trkpt lat="42.1559624" lon="19.0314745"><ele>79.6</ele><time>2026-05-04T07:06:16.657Z</time></trkpt><trkpt lat="42.1560457" lon="19.0313932"><ele>79.8</ele><time>2026-05-04T07:06:17.658Z</time></trkpt><trkpt lat="42.1561295" lon="19.0313058"><ele>80.0</ele><time>2026-05-04T07:06:18.657Z</time></trkpt><trkpt lat="42.156215" lon="19.0312136"><ele>80.0</ele><time>2026-05-04T07:06:19.658Z</time></trkpt><trkpt lat="42.1563025" lon="19.0311148"><ele>80.0</ele><time>2026-05-04T07:06:20.657Z</time></trkpt><trkpt lat="42.156391" lon="19.0310135"><ele>80.0</ele><time>2026-05-04T07:06:21.658Z</time></trkpt><trkpt lat="42.15648" lon="19.0309135"><ele>80.0</ele><time>2026-05-04T07:06:22.658Z</time></trkpt><trkpt lat="42.1565688" lon="19.0308089"><ele>81.25</ele><time>2026-05-04T07:06:23.657Z</time></trkpt><trkpt lat="42.1566572" lon="19.0306984"><ele>82.5</ele><time>2026-05-04T07:06:24.657Z</time></trkpt><trkpt lat="42.1567446" lon="19.030584"><ele>83.75</ele><time>2026-05-04T07:06:25.657Z</time></trkpt><trkpt lat="42.1568315" lon="19.0304621"><ele>85.0</ele><time>2026-05-04T07:06:26.657Z</time></trkpt><trkpt lat="42.1569186" lon="19.0303372"><ele>85.0</ele><time>2026-05-04T07:06:27.658Z</time></trkpt><trkpt lat="42.1570057" lon="19.0302037"><ele>85.0</ele><time>2026-05-04T07:06:28.658Z</time></trkpt><trkpt lat="42.1570889" lon="19.0300678"><ele>85.0</ele><time>2026-05-04T07:06:29.657Z</time></trkpt><trkpt lat="42.1571708" lon="19.0299283"><ele>85.0</ele><time>2026-05-04T07:06:30.658Z</time></trkpt><trkpt lat="42.1572512" lon="19.0297843"><ele>84.25</ele><time>2026-05-04T07:06:31.658Z</time></trkpt><trkpt lat="42.1573301" lon="19.0296366"><ele>83.5</ele><time>2026-05-04T07:06:32.657Z</time></trkpt><trkpt lat="42.1574055" lon="19.0294851"><ele>82.75</ele><time>2026-05-04T07:06:33.657Z</time></trkpt><trkpt lat="42.1574767" lon="19.0293317"><ele>82.0</ele><time>2026-05-04T07:06:34.658Z</time></trkpt><trkpt lat="42.1575437" lon="19.0291789"><ele>85.0</ele><time>2026-05-04T07:06:35.658Z</time></trkpt><trkpt lat="42.1576092" lon="19.0290245"><ele>88.0</ele><time>2026-05-04T07:06:36.658Z</time></trkpt><trkpt lat="42.1576706" lon="19.0288664"><ele>91.0</ele><time>2026-05-04T07:06:37.658Z</time></trkpt><trkpt lat="42.1577321" lon="19.0287139"><ele>94.0</ele><time>2026-05-04T07:06:38.657Z</time></trkpt><trkpt lat="42.1577905" lon="19.0285577"><ele>94.0</ele><time>2026-05-04T07:06:39.658Z</time></trkpt><trkpt lat="42.157845" lon="19.0284"><ele>94.0</ele><time>2026-05-04T07:06:40.657Z</time></trkpt><trkpt lat="42.1578953" lon="19.028237"><ele>94.0</ele><time>2026-05-04T07:06:41.658Z</time></trkpt><trkpt lat="42.1579429" lon="19.0280678"><ele>94.0</ele><time>2026-05-04T07:06:42.657Z</time></trkpt><trkpt lat="42.157987" lon="19.027891"><ele>95.0</ele><time>2026-05-04T07:06:43.657Z</time></trkpt><trkpt lat="42.1580297" lon="19.027709"><ele>96.0</ele><time>2026-05-04T07:06:44.658Z</time></trkpt><trkpt lat="42.1580655" lon="19.0275246"><ele>97.0</ele><time>2026-05-04T07:06:45.658Z</time></trkpt><trkpt lat="42.1580971" lon="19.0273389"><ele>98.0</ele><time>2026-05-04T07:06:46.658Z</time></trkpt><trkpt lat="42.15812" lon="19.0271503"><ele>98.0</ele><time>2026-05-04T07:06:47.657Z</time></trkpt><trkpt lat="42.1581334" lon="19.0269602"><ele>98.0</ele><time>2026-05-04T07:06:48.658Z</time></trkpt><trkpt lat="42.1581391" lon="19.0267709"><ele>98.0</ele><time>2026-05-04T07:06:49.658Z</time></trkpt><trkpt lat="42.1581376" lon="19.0265831"><ele>98.0</ele><time>2026-05-04T07:06:50.658Z</time></trkpt><trkpt lat="42.1581317" lon="19.0263997"><ele>102.5</ele><time>2026-05-04T07:06:51.658Z</time></trkpt><trkpt lat="42.1581209" lon="19.0262157"><ele>107.0</ele><time>2026-05-04T07:06:52.657Z</time></trkpt><trkpt lat="42.1581072" lon="19.02603"><ele>111.5</ele><time>2026-05-04T07:06:53.658Z</time></trkpt><trkpt lat="42.1580917" lon="19.0258397"><ele>116.0</ele><time>2026-05-04T07:06:54.658Z</time></trkpt><trkpt lat="42.158078" lon="19.0256474"><ele>122.5</ele><time>2026-05-04T07:06:55.658Z</time></trkpt><trkpt lat="42.1580654" lon="19.0254542"><ele>129.0</ele><time>2026-05-04T07:06:56.658Z</time></trkpt><trkpt lat="42.1580565" lon="19.0252657"><ele>135.5</ele><time>2026-05-04T07:06:57.657Z</time></trkpt><trkpt lat="42.1580538" lon="19.0250862"><ele>142.0</ele><time>2026-05-04T07:06:58.657Z</time></trkpt><trkpt lat="42.1580579" lon="19.0249187"><ele>143.75</ele><time>2026-05-04T07:06:59.657Z</time></trkpt><trkpt lat="42.1580658" lon="19.0247619"><ele>145.5</ele><time>2026-05-04T07:07:00.657Z</time></trkpt><trkpt lat="42.1580787" lon="19.0246002"><ele>147.25</ele><time>2026-05-04T07:07:01.658Z</time></trkpt><trkpt lat="42.1580973" lon="19.0244263"><ele>149.0</ele><time>2026-05-04T07:07:02.658Z</time></trkpt><trkpt lat="42.1581249" lon="19.0242462"><ele>144.5</ele><time>2026-05-04T07:07:03.658Z</time></trkpt><trkpt lat="42.1581606" lon="19.0240632"><ele>140.0</ele><time>2026-05-04T07:07:04.657Z</time></trkpt><trkpt lat="42.1582066" lon="19.0238816"><ele>135.5</ele><time>2026-05-04T07:07:05.658Z</time></trkpt><trkpt lat="42.1582605" lon="19.023701"><ele>131.0</ele><time>2026-05-04T07:07:06.658Z</time></trkpt><trkpt lat="42.1583233" lon="19.0235215"><ele>130.66666666666666</ele><time>2026-05-04T07:07:07.657Z</time></trkpt><trkpt lat="42.1583937" lon="19.0233435"><ele>130.33333333333334</ele><time>2026-05-04T07:07:08.657Z</time></trkpt><trkpt lat="42.1584707" lon="19.0231695"><ele>130.0</ele><time>2026-05-04T07:07:09.657Z</time></trkpt><trkpt lat="42.1585919" lon="19.023011"><ele>123.0</ele><time>2026-05-04T07:07:10.657Z</time></trkpt><trkpt lat="42.1586738" lon="19.0228493"><ele>116.0</ele><time>2026-05-04T07:07:11.658Z</time></trkpt><trkpt lat="42.1587798" lon="19.0226951"><ele>109.0</ele><time>2026-05-04T07:07:12.658Z</time></trkpt><trkpt lat="42.1588924" lon="19.0225423"><ele>106.33333333333334</ele><time>2026-05-04T07:07:13.658Z</time></trkpt><trkpt lat="42.1590077" lon="19.0224"><ele>103.66666666666666</ele><time>2026-05-04T07:07:14.657Z</time></trkpt><trkpt lat="42.1591223" lon="19.0222597"><ele>101.0</ele><time>2026-05-04T07:07:15.658Z</time></trkpt><trkpt lat="42.159252" lon="19.0221276"><ele>100.0</ele><time>2026-05-04T07:07:16.658Z</time></trkpt><trkpt lat="42.1593807" lon="19.0220043"><ele>99.0</ele><time>2026-05-04T07:07:17.657Z</time></trkpt><trkpt lat="42.1595102" lon="19.021889"><ele>98.0</ele><time>2026-05-04T07:07:18.657Z</time></trkpt><trkpt lat="42.1596371" lon="19.021781"><ele>98.0</ele><time>2026-05-04T07:07:19.658Z</time></trkpt><trkpt lat="42.1597655" lon="19.0216846"><ele>98.0</ele><time>2026-05-04T07:07:20.658Z</time></trkpt><trkpt lat="42.159899" lon="19.021594"><ele>98.0</ele><time>2026-05-04T07:07:21.657Z</time></trkpt><trkpt lat="42.1600396" lon="19.0215122"><ele>98.0</ele><time>2026-05-04T07:07:22.658Z</time></trkpt><trkpt lat="42.1601835" lon="19.0214389"><ele>94.33333333333333</ele><time>2026-05-04T07:07:23.657Z</time></trkpt><trkpt lat="42.1603318" lon="19.0213736"><ele>90.66666666666666</ele><time>2026-05-04T07:07:24.658Z</time></trkpt><trkpt lat="42.1604836" lon="19.0213144"><ele>87.0</ele><time>2026-05-04T07:07:25.658Z</time></trkpt><trkpt lat="42.1606363" lon="19.0212599"><ele>87.0</ele><time>2026-05-04T07:07:26.657Z</time></trkpt><trkpt lat="42.1607886" lon="19.0212062"><ele>87.0</ele><time>2026-05-04T07:07:27.658Z</time></trkpt><trkpt lat="42.1609374" lon="19.0211426"><ele>87.0</ele><time>2026-05-04T07:07:28.657Z</time></trkpt><trkpt lat="42.1610858" lon="19.0210631"><ele>87.0</ele><time>2026-05-04T07:07:29.657Z</time></trkpt><trkpt lat="42.1612369" lon="19.0209651"><ele>87.0</ele><time>2026-05-04T07:07:30.658Z</time></trkpt><trkpt lat="42.1613825" lon="19.020838"><ele>87.0</ele><time>2026-05-04T07:07:31.657Z</time></trkpt><trkpt lat="42.1615261" lon="19.0206731"><ele>84.33333333333333</ele><time>2026-05-04T07:07:32.657Z</time></trkpt><trkpt lat="42.1616614" lon="19.0204812"><ele>81.66666666666666</ele><time>2026-05-04T07:07:33.658Z</time></trkpt><trkpt lat="42.1617848" lon="19.0202772"><ele>79.0</ele><time>2026-05-04T07:07:34.658Z</time></trkpt><trkpt lat="42.1619014" lon="19.0200734"><ele>76.66666666666666</ele><time>2026-05-04T07:07:35.657Z</time></trkpt><trkpt lat="42.1620187" lon="19.0198775"><ele>74.33333333333333</ele><time>2026-05-04T07:07:36.658Z</time></trkpt><trkpt lat="42.1621385" lon="19.0196959"><ele>72.0</ele><time>2026-05-04T07:07:37.658Z</time></trkpt><trkpt lat="42.1622664" lon="19.0195297"><ele>72.0</ele><time>2026-05-04T07:07:38.657Z</time></trkpt><trkpt lat="42.1624043" lon="19.019375"><ele>72.0</ele><time>2026-05-04T07:07:39.657Z</time></trkpt><trkpt lat="42.1625503" lon="19.0192383"><ele>72.0</ele><time>2026-05-04T07:07:40.657Z</time></trkpt><trkpt lat="42.1627064" lon="19.0191195"><ele>72.0</ele><time>2026-05-04T07:07:41.658Z</time></trkpt><trkpt lat="42.1628685" lon="19.0190073"><ele>72.0</ele><time>2026-05-04T07:07:42.658Z</time></trkpt><trkpt lat="42.1630296" lon="19.0188918"><ele>72.0</ele><time>2026-05-04T07:07:43.657Z</time></trkpt><trkpt lat="42.1631838" lon="19.0187666"><ele>73.0</ele><time>2026-05-04T07:07:44.657Z</time></trkpt><trkpt lat="42.163331" lon="19.0186244"><ele>74.0</ele><time>2026-05-04T07:07:45.657Z</time></trkpt><trkpt lat="42.1634652" lon="19.018465"><ele>75.0</ele><time>2026-05-04T07:07:46.657Z</time></trkpt><trkpt lat="42.1635869" lon="19.0182876"><ele>72.66666666666667</ele><time>2026-05-04T07:07:47.657Z</time></trkpt><trkpt lat="42.163694" lon="19.0180932"><ele>70.33333333333334</ele><time>2026-05-04T07:07:48.658Z</time></trkpt><trkpt lat="42.1637856" lon="19.0178908"><ele>68.0</ele><time>2026-05-04T07:07:49.658Z</time></trkpt><trkpt lat="42.1638612" lon="19.0176881"><ele>66.0</ele><time>2026-05-04T07:07:50.658Z</time></trkpt><trkpt lat="42.1639266" lon="19.0174844"><ele>64.0</ele><time>2026-05-04T07:07:51.658Z</time></trkpt><trkpt lat="42.1639857" lon="19.0172894"><ele>62.0</ele><time>2026-05-04T07:07:52.657Z</time></trkpt><trkpt lat="42.1640408" lon="19.0171047"><ele>63.0</ele><time>2026-05-04T07:07:53.658Z</time></trkpt><trkpt lat="42.1640979" lon="19.0169275"><ele>64.0</ele><time>2026-05-04T07:07:54.658Z</time></trkpt><trkpt lat="42.164161" lon="19.0167606"><ele>65.0</ele><time>2026-05-04T07:07:55.658Z</time></trkpt><trkpt lat="42.1642285" lon="19.0166008"><ele>66.0</ele><time>2026-05-04T07:07:56.657Z</time></trkpt><trkpt lat="42.1642998" lon="19.01645"><ele>66.0</ele><time>2026-05-04T07:07:57.658Z</time></trkpt><trkpt lat="42.1643741" lon="19.0163059"><ele>66.0</ele><time>2026-05-04T07:07:58.658Z</time></trkpt><trkpt lat="42.1644495" lon="19.016172"><ele>66.0</ele><time>2026-05-04T07:07:59.658Z</time></trkpt><trkpt lat="42.1645234" lon="19.0160504"><ele>66.0</ele><time>2026-05-04T07:08:00.658Z</time></trkpt><trkpt lat="42.1645959" lon="19.015931"><ele>65.2</ele><time>2026-05-04T07:08:01.658Z</time></trkpt><trkpt lat="42.1646647" lon="19.0158101"><ele>64.39999999999999</ele><time>2026-05-04T07:08:02.658Z</time></trkpt><trkpt lat="42.1647241" lon="19.0156804"><ele>63.6</ele><time>2026-05-04T07:08:03.657Z</time></trkpt><trkpt lat="42.1647836" lon="19.0155561"><ele>62.8</ele><time>2026-05-04T07:08:04.658Z</time></trkpt><trkpt lat="42.1648374" lon="19.0154264"><ele>62.0</ele><time>2026-05-04T07:08:05.657Z</time></trkpt><trkpt lat="42.1648861" lon="19.0152932"><ele>63.8</ele><time>2026-05-04T07:08:06.658Z</time></trkpt><trkpt lat="42.1649293" lon="19.0151566"><ele>65.6</ele><time>2026-05-04T07:08:07.657Z</time></trkpt><trkpt lat="42.1649676" lon="19.0150218"><ele>67.39999999999999</ele><time>2026-05-04T07:08:08.657Z</time></trkpt><trkpt lat="42.1650017" lon="19.0148871"><ele>69.2</ele><time>2026-05-04T07:08:09.658Z</time></trkpt><trkpt lat="42.1650321" lon="19.0147536"><ele>71.0</ele><time>2026-05-04T07:08:10.658Z</time></trkpt><trkpt lat="42.1650659" lon="19.0146243"><ele>71.0</ele><time>2026-05-04T07:08:11.658Z</time></trkpt><trkpt lat="42.1651018" lon="19.0144933"><ele>71.0</ele><time>2026-05-04T07:08:12.658Z</time></trkpt><trkpt lat="42.1651439" lon="19.01436"><ele>71.0</ele><time>2026-05-04T07:08:13.658Z</time></trkpt><trkpt lat="42.1651919" lon="19.0142264"><ele>71.0</ele><time>2026-05-04T07:08:14.658Z</time></trkpt><trkpt lat="42.1652478" lon="19.0140914"><ele>71.0</ele><time>2026-05-04T07:08:15.658Z</time></trkpt><trkpt lat="42.1653142" lon="19.0139595"><ele>68.25</ele><time>2026-05-04T07:08:16.657Z</time></trkpt><trkpt lat="42.1653912" lon="19.0138348"><ele>65.5</ele><time>2026-05-04T07:08:17.657Z</time></trkpt><trkpt lat="42.1654802" lon="19.0137159"><ele>62.75</ele><time>2026-05-04T07:08:18.658Z</time></trkpt><trkpt lat="42.1655751" lon="19.0136084"><ele>60.0</ele><time>2026-05-04T07:08:19.657Z</time></trkpt><trkpt lat="42.1656743" lon="19.0135088"><ele>60.25</ele><time>2026-05-04T07:08:20.658Z</time></trkpt><trkpt lat="42.165777" lon="19.0134176"><ele>60.5</ele><time>2026-05-04T07:08:21.658Z</time></trkpt><trkpt lat="42.1658814" lon="19.0133364"><ele>60.75</ele><time>2026-05-04T07:08:22.658Z</time></trkpt><trkpt lat="42.1659826" lon="19.0132566"><ele>61.0</ele><time>2026-05-04T07:08:23.658Z</time></trkpt><trkpt lat="42.1660769" lon="19.0131817"><ele>61.0</ele><time>2026-05-04T07:08:24.657Z</time></trkpt><trkpt lat="42.1661684" lon="19.0131077"><ele>60.99999999999999</ele><time>2026-05-04T07:08:25.657Z</time></trkpt><trkpt lat="42.1662513" lon="19.013033"><ele>60.99999999999999</ele><time>2026-05-04T07:08:26.657Z</time></trkpt><trkpt lat="42.1663248" lon="19.0129594"><ele>61.0</ele><time>2026-05-04T07:08:27.658Z</time></trkpt><trkpt lat="42.1663879" lon="19.0128861"><ele>61.0</ele><time>2026-05-04T07:08:28.657Z</time></trkpt><trkpt lat="42.1664454" lon="19.0128128"><ele>60.99999999999999</ele><time>2026-05-04T07:08:29.657Z</time></trkpt><trkpt lat="42.1664954" lon="19.0127424"><ele>61.0</ele><time>2026-05-04T07:08:30.657Z</time></trkpt><trkpt lat="42.1665408" lon="19.0126641"><ele>61.0</ele><time>2026-05-04T07:08:31.657Z</time></trkpt><trkpt lat="42.1665865" lon="19.0125777"><ele>61.0</ele><time>2026-05-04T07:08:32.658Z</time></trkpt><trkpt lat="42.16663" lon="19.0124816"><ele>60.99999999999999</ele><time>2026-05-04T07:08:33.658Z</time></trkpt><trkpt lat="42.1666715" lon="19.0123737"><ele>61.0</ele><time>2026-05-04T07:08:34.657Z</time></trkpt><trkpt lat="42.1667067" lon="19.0122526"><ele>64.25</ele><time>2026-05-04T07:08:35.658Z</time></trkpt><trkpt lat="42.1667405" lon="19.0121188"><ele>67.5</ele><time>2026-05-04T07:08:36.658Z</time></trkpt><trkpt lat="42.1667736" lon="19.0119708"><ele>70.75</ele><time>2026-05-04T07:08:37.658Z</time></trkpt><trkpt lat="42.1668033" lon="19.0118222"><ele>74.0</ele><time>2026-05-04T07:08:38.658Z</time></trkpt><trkpt lat="42.166834" lon="19.0116638"><ele>72.5</ele><time>2026-05-04T07:08:39.658Z</time></trkpt><trkpt lat="42.1668723" lon="19.0114981"><ele>71.0</ele><time>2026-05-04T07:08:40.658Z</time></trkpt><trkpt lat="42.1669188" lon="19.0113298"><ele>69.5</ele><time>2026-05-04T07:08:41.658Z</time></trkpt><trkpt lat="42.1669724" lon="19.0111645"><ele>68.0</ele><time>2026-05-04T07:08:42.658Z</time></trkpt><trkpt lat="42.1670316" lon="19.0110036"><ele>68.0</ele><time>2026-05-04T07:08:43.658Z</time></trkpt><trkpt lat="42.1671034" lon="19.0108492"><ele>68.0</ele><time>2026-05-04T07:08:44.658Z</time></trkpt><trkpt lat="42.1671868" lon="19.0107026"><ele>68.0</ele><time>2026-05-04T07:08:45.658Z</time></trkpt><trkpt lat="42.1672866" lon="19.0105732"><ele>68.0</ele><time>2026-05-04T07:08:46.658Z</time></trkpt><trkpt lat="42.1673973" lon="19.0104509"><ele>73.5</ele><time>2026-05-04T07:08:47.658Z</time></trkpt><trkpt lat="42.167518" lon="19.0103406"><ele>79.0</ele><time>2026-05-04T07:08:48.658Z</time></trkpt><trkpt lat="42.167646" lon="19.0102475"><ele>84.5</ele><time>2026-05-04T07:08:49.658Z</time></trkpt><trkpt lat="42.1677861" lon="19.0101731"><ele>90.0</ele><time>2026-05-04T07:08:50.658Z</time></trkpt><trkpt lat="42.1679285" lon="19.0101233"><ele>90.0</ele><time>2026-05-04T07:08:51.658Z</time></trkpt><trkpt lat="42.168073" lon="19.0101003"><ele>90.0</ele><time>2026-05-04T07:08:52.657Z</time></trkpt><trkpt lat="42.1682216" lon="19.0101018"><ele>90.0</ele><time>2026-05-04T07:08:53.658Z</time></trkpt><trkpt lat="42.1683724" lon="19.0101238"><ele>90.0</ele><time>2026-05-04T07:08:54.658Z</time></trkpt><trkpt lat="42.1685314" lon="19.0101723"><ele>91.66666666666667</ele><time>2026-05-04T07:08:55.658Z</time></trkpt><trkpt lat="42.1686781" lon="19.0102193"><ele>93.33333333333334</ele><time>2026-05-04T07:08:56.657Z</time></trkpt><trkpt lat="42.1688226" lon="19.0102882"><ele>95.0</ele><time>2026-05-04T07:08:57.657Z</time></trkpt><trkpt lat="42.1689661" lon="19.0103731"><ele>94.75</ele><time>2026-05-04T07:08:58.658Z</time></trkpt><trkpt lat="42.1690922" lon="19.0104278"><ele>94.5</ele><time>2026-05-04T07:08:59.657Z</time></trkpt><trkpt lat="42.1692144" lon="19.0104757"><ele>94.25</ele><time>2026-05-04T07:09:00.657Z</time></trkpt><trkpt lat="42.1693438" lon="19.0105094"><ele>94.0</ele><time>2026-05-04T07:09:01.658Z</time></trkpt><trkpt lat="42.1694765" lon="19.0105234"><ele>94.0</ele><time>2026-05-04T07:09:02.657Z</time></trkpt><trkpt lat="42.1696079" lon="19.0105087"><ele>94.0</ele><time>2026-05-04T07:09:03.657Z</time></trkpt><trkpt lat="42.1697348" lon="19.0104728"><ele>94.0</ele><time>2026-05-04T07:09:04.657Z</time></trkpt><trkpt lat="42.1698552" lon="19.0104145"><ele>94.0</ele><time>2026-05-04T07:09:05.657Z</time></trkpt><trkpt lat="42.1699622" lon="19.0103321"><ele>92.5</ele><time>2026-05-04T07:09:06.658Z</time></trkpt><trkpt lat="42.1700645" lon="19.0102336"><ele>91.0</ele><time>2026-05-04T07:09:07.658Z</time></trkpt><trkpt lat="42.1701559" lon="19.0101275"><ele>89.5</ele><time>2026-05-04T07:09:08.658Z</time></trkpt><trkpt lat="42.1702393" lon="19.0100209"><ele>88.0</ele><time>2026-05-04T07:09:09.657Z</time></trkpt><trkpt lat="42.1703112" lon="19.0099206"><ele>88.0</ele><time>2026-05-04T07:09:10.658Z</time></trkpt><trkpt lat="42.1703772" lon="19.0098139"><ele>88.0</ele><time>2026-05-04T07:09:11.657Z</time></trkpt><trkpt lat="42.1704429" lon="19.0096998"><ele>88.0</ele><time>2026-05-04T07:09:12.657Z</time></trkpt><trkpt lat="42.1705118" lon="19.0095837"><ele>88.0</ele><time>2026-05-04T07:09:13.658Z</time></trkpt><trkpt lat="42.1705861" lon="19.0094678"><ele>88.0</ele><time>2026-05-04T07:09:14.657Z</time></trkpt><trkpt lat="42.1706674" lon="19.0093597"><ele>88.0</ele><time>2026-05-04T07:09:15.658Z</time></trkpt><trkpt lat="42.1707558" lon="19.0092552"><ele>88.0</ele><time>2026-05-04T07:09:16.658Z</time></trkpt><trkpt lat="42.1708472" lon="19.0091549"><ele>88.0</ele><time>2026-05-04T07:09:17.657Z</time></trkpt><trkpt lat="42.1709403" lon="19.0090632"><ele>88.0</ele><time>2026-05-04T07:09:18.658Z</time></trkpt><trkpt lat="42.1710377" lon="19.0089805"><ele>88.0</ele><time>2026-05-04T07:09:19.657Z</time></trkpt><trkpt lat="42.1711411" lon="19.0089094"><ele>88.0</ele><time>2026-05-04T07:09:20.658Z</time></trkpt><trkpt lat="42.1712462" lon="19.008847"><ele>88.0</ele><time>2026-05-04T07:09:21.657Z</time></trkpt><trkpt lat="42.1713482" lon="19.00879"><ele>88.0</ele><time>2026-05-04T07:09:22.658Z</time></trkpt><trkpt lat="42.1714552" lon="19.0087376"><ele>93.5</ele><time>2026-05-04T07:09:23.658Z</time></trkpt><trkpt lat="42.1715633" lon="19.0086943"><ele>99.0</ele><time>2026-05-04T07:09:24.658Z</time></trkpt><trkpt lat="42.1716754" lon="19.0086557"><ele>104.5</ele><time>2026-05-04T07:09:25.657Z</time></trkpt><trkpt lat="42.1717908" lon="19.0086232"><ele>110.0</ele><time>2026-05-04T07:09:26.658Z</time></trkpt><trkpt lat="42.1719054" lon="19.0085915"><ele>110.0</ele><time>2026-05-04T07:09:27.658Z</time></trkpt><trkpt lat="42.1720213" lon="19.0085603"><ele>110.0</ele><time>2026-05-04T07:09:28.657Z</time></trkpt><trkpt lat="42.1721373" lon="19.0085279"><ele>110.0</ele><time>2026-05-04T07:09:29.658Z</time></trkpt><trkpt lat="42.1722522" lon="19.0084918"><ele>110.0</ele><time>2026-05-04T07:09:30.658Z</time></trkpt><trkpt lat="42.1723607" lon="19.008451"><ele>110.0</ele><time>2026-05-04T07:09:31.658Z</time></trkpt><trkpt lat="42.1724695" lon="19.0084054"><ele>110.0</ele><time>2026-05-04T07:09:32.658Z</time></trkpt><trkpt lat="42.172576" lon="19.0083529"><ele>110.0</ele><time>2026-05-04T07:09:33.657Z</time></trkpt><trkpt lat="42.1726768" lon="19.0082957"><ele>110.0</ele><time>2026-05-04T07:09:34.657Z</time></trkpt><trkpt lat="42.1727722" lon="19.0082314"><ele>110.0</ele><time>2026-05-04T07:09:35.657Z</time></trkpt><trkpt lat="42.1728631" lon="19.0081595"><ele>110.0</ele><time>2026-05-04T07:09:36.657Z</time></trkpt><trkpt lat="42.1729478" lon="19.0080762"><ele>110.0</ele><time>2026-05-04T07:09:37.658Z</time></trkpt><trkpt lat="42.1730306" lon="19.00798"><ele>110.0</ele><time>2026-05-04T07:09:38.658Z</time></trkpt><trkpt lat="42.1731056" lon="19.0078728"><ele>110.0</ele><time>2026-05-04T07:09:39.657Z</time></trkpt><trkpt lat="42.1731753" lon="19.0077573"><ele>110.0</ele><time>2026-05-04T07:09:40.658Z</time></trkpt><trkpt lat="42.1732394" lon="19.007637"><ele>111.6</ele><time>2026-05-04T07:09:41.657Z</time></trkpt><trkpt lat="42.1732958" lon="19.0075114"><ele>113.2</ele><time>2026-05-04T07:09:42.658Z</time></trkpt><trkpt lat="42.173346" lon="19.0073789"><ele>114.80000000000001</ele><time>2026-05-04T07:09:43.657Z</time></trkpt><trkpt lat="42.1733853" lon="19.0072448"><ele>116.4</ele><time>2026-05-04T07:09:44.657Z</time></trkpt><trkpt lat="42.173418" lon="19.0071133"><ele>118.0</ele><time>2026-05-04T07:09:45.658Z</time></trkpt><trkpt lat="42.1734427" lon="19.0069848"><ele>119.2</ele><time>2026-05-04T07:09:46.658Z</time></trkpt><trkpt lat="42.1734587" lon="19.0068576"><ele>120.4</ele><time>2026-05-04T07:09:47.657Z</time></trkpt><trkpt lat="42.1734667" lon="19.0067215"><ele>121.60000000000001</ele><time>2026-05-04T07:09:48.657Z</time></trkpt><trkpt lat="42.1734703" lon="19.0065796"><ele>122.80000000000001</ele><time>2026-05-04T07:09:49.657Z</time></trkpt><trkpt lat="42.1734671" lon="19.0064331"><ele>124.0</ele><time>2026-05-04T07:09:50.658Z</time></trkpt><trkpt lat="42.1734541" lon="19.0062843"><ele>129.0</ele><time>2026-05-04T07:09:51.658Z</time></trkpt><trkpt lat="42.1734325" lon="19.0061348"><ele>134.0</ele><time>2026-05-04T07:09:52.658Z</time></trkpt><trkpt lat="42.1734026" lon="19.0059864"><ele>139.0</ele><time>2026-05-04T07:09:53.657Z</time></trkpt><trkpt lat="42.1733651" lon="19.0058407"><ele>144.0</ele><time>2026-05-04T07:09:54.657Z</time></trkpt><trkpt lat="42.1733199" lon="19.0056987"><ele>144.5</ele><time>2026-05-04T07:09:55.657Z</time></trkpt><trkpt lat="42.1732656" lon="19.0055601"><ele>145.0</ele><time>2026-05-04T07:09:56.657Z</time></trkpt><trkpt lat="42.1732028" lon="19.0054268"><ele>145.5</ele><time>2026-05-04T07:09:57.657Z</time></trkpt><trkpt lat="42.1731261" lon="19.0052856"><ele>146.0</ele><time>2026-05-04T07:09:58.657Z</time></trkpt><trkpt lat="42.1730367" lon="19.005135"><ele>148.0</ele><time>2026-05-04T07:09:59.658Z</time></trkpt><trkpt lat="42.1729343" lon="19.004978"><ele>150.0</ele><time>2026-05-04T07:10:00.657Z</time></trkpt><trkpt lat="42.1728301" lon="19.0048222"><ele>152.0</ele><time>2026-05-04T07:10:01.658Z</time></trkpt><trkpt lat="42.172722" lon="19.0046658"><ele>152.0</ele><time>2026-05-04T07:10:02.658Z</time></trkpt><trkpt lat="42.1726125" lon="19.0045018"><ele>152.0</ele><time>2026-05-04T07:10:03.658Z</time></trkpt><trkpt lat="42.1725022" lon="19.0043174"><ele>152.0</ele><time>2026-05-04T07:10:04.657Z</time></trkpt><trkpt lat="42.1724012" lon="19.0041166"><ele>150.33333333333331</ele><time>2026-05-04T07:10:05.657Z</time></trkpt><trkpt lat="42.1723161" lon="19.003901"><ele>148.66666666666666</ele><time>2026-05-04T07:10:06.658Z</time></trkpt><trkpt lat="42.1722455" lon="19.0036796"><ele>147.0</ele><time>2026-05-04T07:10:07.657Z</time></trkpt><trkpt lat="42.1721932" lon="19.0034515"><ele>148.33333333333334</ele><time>2026-05-04T07:10:08.657Z</time></trkpt><trkpt lat="42.1721565" lon="19.0032131"><ele>149.66666666666669</ele><time>2026-05-04T07:10:09.657Z</time></trkpt><trkpt lat="42.1721397" lon="19.0029656"><ele>151.0</ele><time>2026-05-04T07:10:10.658Z</time></trkpt><trkpt lat="42.1721415" lon="19.0027179"><ele>152.66666666666669</ele><time>2026-05-04T07:10:11.657Z</time></trkpt><trkpt lat="42.1721648" lon="19.0024732"><ele>154.33333333333334</ele><time>2026-05-04T07:10:12.658Z</time></trkpt><trkpt lat="42.1722079" lon="19.0022317"><ele>156.0</ele><time>2026-05-04T07:10:13.657Z</time></trkpt><trkpt lat="42.1722724" lon="19.0019942"><ele>156.0</ele><time>2026-05-04T07:10:14.658Z</time></trkpt><trkpt lat="42.1723607" lon="19.0017674"><ele>156.0</ele><time>2026-05-04T07:10:15.657Z</time></trkpt><trkpt lat="42.1724713" lon="19.0015494"><ele>156.0</ele><time>2026-05-04T07:10:16.657Z</time></trkpt><trkpt lat="42.1725984" lon="19.0013447"><ele>156.0</ele><time>2026-05-04T07:10:17.658Z</time></trkpt><trkpt lat="42.1727403" lon="19.0011578"><ele>156.0</ele><time>2026-05-04T07:10:18.657Z</time></trkpt><trkpt lat="42.1728958" lon="19.0009901"><ele>156.0</ele><time>2026-05-04T07:10:19.658Z</time></trkpt><trkpt lat="42.1730642" lon="19.0008361"><ele>164.33333333333334</ele><time>2026-05-04T07:10:20.658Z</time></trkpt><trkpt lat="42.1732408" lon="19.0006984"><ele>172.66666666666669</ele><time>2026-05-04T07:10:21.658Z</time></trkpt><trkpt lat="42.1734195" lon="19.000567"><ele>181.0</ele><time>2026-05-04T07:10:22.658Z</time></trkpt><trkpt lat="42.1735972" lon="19.0004357"><ele>181.0</ele><time>2026-05-04T07:10:23.657Z</time></trkpt><trkpt lat="42.1737721" lon="19.000298"><ele>181.0</ele><time>2026-05-04T07:10:24.657Z</time></trkpt><trkpt lat="42.17394" lon="19.000145"><ele>181.0</ele><time>2026-05-04T07:10:25.658Z</time></trkpt><trkpt lat="42.1741001" lon="18.9999773"><ele>184.0</ele><time>2026-05-04T07:10:26.658Z</time></trkpt><trkpt lat="42.17425" lon="18.9997972"><ele>187.0</ele><time>2026-05-04T07:10:27.657Z</time></trkpt><trkpt lat="42.174391" lon="18.9996016"><ele>190.0</ele><time>2026-05-04T07:10:28.658Z</time></trkpt><trkpt lat="42.1745218" lon="18.9993895"><ele>190.0</ele><time>2026-05-04T07:10:29.658Z</time></trkpt><trkpt lat="42.1746431" lon="18.9991685"><ele>190.0</ele><time>2026-05-04T07:10:30.657Z</time></trkpt><trkpt lat="42.1747584" lon="18.9989471"><ele>190.0</ele><time>2026-05-04T07:10:31.657Z</time></trkpt><trkpt lat="42.1748708" lon="18.9987309"><ele>190.33333333333334</ele><time>2026-05-04T07:10:32.658Z</time></trkpt><trkpt lat="42.1749868" lon="18.9985261"><ele>190.66666666666666</ele><time>2026-05-04T07:10:33.658Z</time></trkpt><trkpt lat="42.1751069" lon="18.9983354"><ele>191.0</ele><time>2026-05-04T07:10:34.657Z</time></trkpt><trkpt lat="42.1752246" lon="18.9981622"><ele>191.0</ele><time>2026-05-04T07:10:35.658Z</time></trkpt><trkpt lat="42.1753384" lon="18.9980029"><ele>191.0</ele><time>2026-05-04T07:10:36.657Z</time></trkpt><trkpt lat="42.1754471" lon="18.9978567"><ele>191.0</ele><time>2026-05-04T07:10:37.658Z</time></trkpt><trkpt lat="42.1755575" lon="18.9977195"><ele>191.0</ele><time>2026-05-04T07:10:38.658Z</time></trkpt><trkpt lat="42.1756776" lon="18.9976004"><ele>191.0</ele><time>2026-05-04T07:10:39.658Z</time></trkpt><trkpt lat="42.1758073" lon="18.9975"><ele>191.0</ele><time>2026-05-04T07:10:40.658Z</time></trkpt><trkpt lat="42.1759464" lon="18.9974292"><ele>191.0</ele><time>2026-05-04T07:10:41.658Z</time></trkpt><trkpt lat="42.1760967" lon="18.997387"><ele>191.66666666666666</ele><time>2026-05-04T07:10:42.657Z</time></trkpt><trkpt lat="42.1762523" lon="18.9973724"><ele>192.33333333333331</ele><time>2026-05-04T07:10:43.657Z</time></trkpt><trkpt lat="42.1764103" lon="18.9973788"><ele>193.0</ele><time>2026-05-04T07:10:44.657Z</time></trkpt><trkpt lat="42.1765687" lon="18.9974044"><ele>193.0</ele><time>2026-05-04T07:10:45.658Z</time></trkpt><trkpt lat="42.1767248" lon="18.9974284"><ele>193.0</ele><time>2026-05-04T07:10:46.657Z</time></trkpt><trkpt lat="42.1768792" lon="18.9974324"><ele>193.0</ele><time>2026-05-04T07:10:47.658Z</time></trkpt><trkpt lat="42.1770321" lon="18.9974122"><ele>193.0</ele><time>2026-05-04T07:10:48.657Z</time></trkpt><trkpt lat="42.1771858" lon="18.9973682"><ele>193.0</ele><time>2026-05-04T07:10:49.657Z</time></trkpt><trkpt lat="42.1773404" lon="18.9973075"><ele>193.0</ele><time>2026-05-04T07:10:50.658Z</time></trkpt><trkpt lat="42.1774966" lon="18.9972346"><ele>194.33333333333331</ele><time>2026-05-04T07:10:51.657Z</time></trkpt><trkpt lat="42.1776589" lon="18.9971495"><ele>195.66666666666669</ele><time>2026-05-04T07:10:52.657Z</time></trkpt><trkpt lat="42.1778247" lon="18.9970571"><ele>197.0</ele><time>2026-05-04T07:10:53.658Z</time></trkpt><trkpt lat="42.1779975" lon="18.9969689"><ele>197.0</ele><time>2026-05-04T07:10:54.658Z</time></trkpt><trkpt lat="42.1781684" lon="18.9968649"><ele>197.0</ele><time>2026-05-04T07:10:55.658Z</time></trkpt><trkpt lat="42.1783338" lon="18.996763"><ele>197.0</ele><time>2026-05-04T07:10:56.658Z</time></trkpt><trkpt lat="42.1785" lon="18.9966581"><ele>189.33333333333334</ele><time>2026-05-04T07:10:57.657Z</time></trkpt><trkpt lat="42.1786654" lon="18.9965528"><ele>181.66666666666669</ele><time>2026-05-04T07:10:58.658Z</time></trkpt><trkpt lat="42.1788304" lon="18.9964534"><ele>174.0</ele><time>2026-05-04T07:10:59.657Z</time></trkpt><trkpt lat="42.178999" lon="18.9963642"><ele>177.33333333333334</ele><time>2026-05-04T07:11:00.658Z</time></trkpt><trkpt lat="42.179173" lon="18.9962951"><ele>180.66666666666669</ele><time>2026-05-04T07:11:01.658Z</time></trkpt><trkpt lat="42.1793515" lon="18.9962427"><ele>184.0</ele><time>2026-05-04T07:11:02.658Z</time></trkpt><trkpt lat="42.1795327" lon="18.9961992"><ele>184.0</ele><time>2026-05-04T07:11:03.658Z</time></trkpt><trkpt lat="42.1797104" lon="18.9961641"><ele>184.0</ele><time>2026-05-04T07:11:04.657Z</time></trkpt><trkpt lat="42.1798847" lon="18.9961297"><ele>184.0</ele><time>2026-05-04T07:11:05.658Z</time></trkpt><trkpt lat="42.1800542" lon="18.9960828"><ele>185.33333333333334</ele><time>2026-05-04T07:11:06.657Z</time></trkpt><trkpt lat="42.1802174" lon="18.9960122"><ele>186.66666666666666</ele><time>2026-05-04T07:11:07.658Z</time></trkpt><trkpt lat="42.1803752" lon="18.9959131"><ele>188.0</ele><time>2026-05-04T07:11:08.658Z</time></trkpt><trkpt lat="42.1805276" lon="18.9957876"><ele>182.66666666666666</ele><time>2026-05-04T07:11:09.658Z</time></trkpt><trkpt lat="42.1806758" lon="18.9956407"><ele>177.33333333333334</ele><time>2026-05-04T07:11:10.658Z</time></trkpt><trkpt lat="42.1808166" lon="18.9954899"><ele>172.0</ele><time>2026-05-04T07:11:11.657Z</time></trkpt><trkpt lat="42.1809559" lon="18.9953427"><ele>172.0</ele><time>2026-05-04T07:11:12.658Z</time></trkpt><trkpt lat="42.1811017" lon="18.9951995"><ele>172.0</ele><time>2026-05-04T07:11:13.657Z</time></trkpt><trkpt lat="42.1812464" lon="18.9950707"><ele>172.0</ele><time>2026-05-04T07:11:14.658Z</time></trkpt><trkpt lat="42.1813915" lon="18.9949546"><ele>169.33333333333334</ele><time>2026-05-04T07:11:15.658Z</time></trkpt><trkpt lat="42.181541" lon="18.994848"><ele>166.66666666666666</ele><time>2026-05-04T07:11:16.658Z</time></trkpt><trkpt lat="42.1816999" lon="18.9947448"><ele>164.0</ele><time>2026-05-04T07:11:17.657Z</time></trkpt><trkpt lat="42.1818659" lon="18.9946497"><ele>164.0</ele><time>2026-05-04T07:11:18.657Z</time></trkpt><trkpt lat="42.1820385" lon="18.9945613"><ele>164.0</ele><time>2026-05-04T07:11:19.657Z</time></trkpt><trkpt lat="42.1822166" lon="18.9944828"><ele>164.0</ele><time>2026-05-04T07:11:20.658Z</time></trkpt><trkpt lat="42.1823987" lon="18.994417"><ele>168.66666666666666</ele><time>2026-05-04T07:11:21.658Z</time></trkpt><trkpt lat="42.1825844" lon="18.9943645"><ele>173.33333333333334</ele><time>2026-05-04T07:11:22.658Z</time></trkpt><trkpt lat="42.1827713" lon="18.9943241"><ele>178.0</ele><time>2026-05-04T07:11:23.657Z</time></trkpt><trkpt lat="42.1829538" lon="18.9942977"><ele>178.0</ele><time>2026-05-04T07:11:24.658Z</time></trkpt><trkpt lat="42.1831303" lon="18.9942859"><ele>178.0</ele><time>2026-05-04T07:11:25.657Z</time></trkpt><trkpt lat="42.1833044" lon="18.9942803"><ele>178.0</ele><time>2026-05-04T07:11:26.658Z</time></trkpt><trkpt lat="42.1834703" lon="18.9942795"><ele>178.66666666666669</ele><time>2026-05-04T07:11:27.658Z</time></trkpt><trkpt lat="42.1836355" lon="18.9942651"><ele>179.33333333333334</ele><time>2026-05-04T07:11:28.658Z</time></trkpt><trkpt lat="42.1837935" lon="18.9942295"><ele>180.0</ele><time>2026-05-04T07:11:29.657Z</time></trkpt><trkpt lat="42.1839408" lon="18.9941614"><ele>169.0</ele><time>2026-05-04T07:11:30.658Z</time></trkpt><trkpt lat="42.1840801" lon="18.9940651"><ele>158.0</ele><time>2026-05-04T07:11:31.657Z</time></trkpt><trkpt lat="42.184215" lon="18.9939357"><ele>147.0</ele><time>2026-05-04T07:11:32.657Z</time></trkpt><trkpt lat="42.184338" lon="18.9937721"><ele>147.0</ele><time>2026-05-04T07:11:33.658Z</time></trkpt><trkpt lat="42.1844497" lon="18.9935851"><ele>147.0</ele><time>2026-05-04T07:11:34.658Z</time></trkpt><trkpt lat="42.1845485" lon="18.9933808"><ele>147.0</ele><time>2026-05-04T07:11:35.658Z</time></trkpt><trkpt lat="42.1846394" lon="18.9931743"><ele>150.0</ele><time>2026-05-04T07:11:36.657Z</time></trkpt><trkpt lat="42.1847232" lon="18.9929691"><ele>153.0</ele><time>2026-05-04T07:11:37.658Z</time></trkpt><trkpt lat="42.1848005" lon="18.9927637"><ele>156.0</ele><time>2026-05-04T07:11:38.658Z</time></trkpt><trkpt lat="42.1848726" lon="18.9925575"><ele>149.0</ele><time>2026-05-04T07:11:39.658Z</time></trkpt><trkpt lat="42.1849362" lon="18.9923536"><ele>142.0</ele><time>2026-05-04T07:11:40.657Z</time></trkpt><trkpt lat="42.1849875" lon="18.9921455"><ele>135.0</ele><time>2026-05-04T07:11:41.658Z</time></trkpt><trkpt lat="42.1850308" lon="18.9919321"><ele>135.0</ele><time>2026-05-04T07:11:42.658Z</time></trkpt><trkpt lat="42.1850702" lon="18.9917158"><ele>135.0</ele><time>2026-05-04T07:11:43.658Z</time></trkpt><trkpt lat="42.1851103" lon="18.9914965"><ele>135.0</ele><time>2026-05-04T07:11:44.657Z</time></trkpt><trkpt lat="42.185154" lon="18.991277"><ele>131.0</ele><time>2026-05-04T07:11:45.658Z</time></trkpt><trkpt lat="42.1852054" lon="18.991056"><ele>127.0</ele><time>2026-05-04T07:11:46.658Z</time></trkpt><trkpt lat="42.1852654" lon="18.9908395"><ele>123.0</ele><time>2026-05-04T07:11:47.658Z</time></trkpt><trkpt lat="42.185329" lon="18.9906239"><ele>119.33333333333334</ele><time>2026-05-04T07:11:48.658Z</time></trkpt><trkpt lat="42.1853986" lon="18.9904143"><ele>115.66666666666667</ele><time>2026-05-04T07:11:49.657Z</time></trkpt><trkpt lat="42.1854722" lon="18.9902051"><ele>112.0</ele><time>2026-05-04T07:11:50.658Z</time></trkpt><trkpt lat="42.1855516" lon="18.9899992"><ele>106.0</ele><time>2026-05-04T07:11:51.658Z</time></trkpt><trkpt lat="42.1856324" lon="18.9897942"><ele>100.0</ele><time>2026-05-04T07:11:52.658Z</time></trkpt><trkpt lat="42.1857173" lon="18.9895902"><ele>94.0</ele><time>2026-05-04T07:11:53.657Z</time></trkpt><trkpt lat="42.185804" lon="18.9893901"><ele>99.33333333333333</ele><time>2026-05-04T07:11:54.658Z</time></trkpt><trkpt lat="42.1858889" lon="18.9891953"><ele>104.66666666666666</ele><time>2026-05-04T07:11:55.657Z</time></trkpt><trkpt lat="42.1859766" lon="18.9890087"><ele>110.0</ele><time>2026-05-04T07:11:56.657Z</time></trkpt><trkpt lat="42.186073" lon="18.9888391"><ele>110.0</ele><time>2026-05-04T07:11:57.657Z</time></trkpt><trkpt lat="42.186187" lon="18.9886985"><ele>110.0</ele><time>2026-05-04T07:11:58.658Z</time></trkpt><trkpt lat="42.1863117" lon="18.9885855"><ele>110.0</ele><time>2026-05-04T07:11:59.657Z</time></trkpt><trkpt lat="42.1864397" lon="18.9884974"><ele>110.0</ele><time>2026-05-04T07:12:00.658Z</time></trkpt><trkpt lat="42.1865816" lon="18.9884462"><ele>120.0</ele><time>2026-05-04T07:12:01.658Z</time></trkpt><trkpt lat="42.1867305" lon="18.9884316"><ele>130.0</ele><time>2026-05-04T07:12:02.658Z</time></trkpt><trkpt lat="42.1868834" lon="18.9884478"><ele>140.0</ele><time>2026-05-04T07:12:03.657Z</time></trkpt><trkpt lat="42.1870396" lon="18.9884814"><ele>140.0</ele><time>2026-05-04T07:12:04.658Z</time></trkpt><trkpt lat="42.1871956" lon="18.9885328"><ele>140.0</ele><time>2026-05-04T07:12:05.657Z</time></trkpt><trkpt lat="42.1873537" lon="18.988589"><ele>140.0</ele><time>2026-05-04T07:12:06.657Z</time></trkpt><trkpt lat="42.1875154" lon="18.9886405"><ele>137.0</ele><time>2026-05-04T07:12:07.657Z</time></trkpt><trkpt lat="42.1876793" lon="18.9886778"><ele>134.0</ele><time>2026-05-04T07:12:08.657Z</time></trkpt><trkpt lat="42.1878399" lon="18.9887011"><ele>131.0</ele><time>2026-05-04T07:12:09.658Z</time></trkpt><trkpt lat="42.1880003" lon="18.9887161"><ele>131.0</ele><time>2026-05-04T07:12:10.657Z</time></trkpt><trkpt lat="42.1881605" lon="18.9887254"><ele>131.0</ele><time>2026-05-04T07:12:11.658Z</time></trkpt><trkpt lat="42.1883235" lon="18.988726"><ele>131.0</ele><time>2026-05-04T07:12:12.657Z</time></trkpt><trkpt lat="42.1884873" lon="18.9887347"><ele>127.66666666666666</ele><time>2026-05-04T07:12:13.657Z</time></trkpt><trkpt lat="42.1886543" lon="18.9887582"><ele>124.33333333333334</ele><time>2026-05-04T07:12:14.658Z</time></trkpt><trkpt lat="42.1888165" lon="18.9887975"><ele>121.0</ele><time>2026-05-04T07:12:15.658Z</time></trkpt><trkpt lat="42.1889665" lon="18.9888566"><ele>117.0</ele><time>2026-05-04T07:12:16.657Z</time></trkpt><trkpt lat="42.1891178" lon="18.9889317"><ele>113.0</ele><time>2026-05-04T07:12:17.658Z</time></trkpt><trkpt lat="42.1892615" lon="18.9889959"><ele>109.0</ele><time>2026-05-04T07:12:18.658Z</time></trkpt><trkpt lat="42.1894098" lon="18.9890542"><ele>109.0</ele><time>2026-05-04T07:12:19.658Z</time></trkpt><trkpt lat="42.1895464" lon="18.989087"><ele>109.0</ele><time>2026-05-04T07:12:20.658Z</time></trkpt><trkpt lat="42.1896828" lon="18.9890984"><ele>109.0</ele><time>2026-05-04T07:12:21.658Z</time></trkpt><trkpt lat="42.189819" lon="18.9890824"><ele>109.0</ele><time>2026-05-04T07:12:22.658Z</time></trkpt><trkpt lat="42.1899534" lon="18.9890432"><ele>104.25</ele><time>2026-05-04T07:12:23.657Z</time></trkpt><trkpt lat="42.1900851" lon="18.9889749"><ele>99.5</ele><time>2026-05-04T07:12:24.657Z</time></trkpt><trkpt lat="42.1902084" lon="18.9888755"><ele>94.75</ele><time>2026-05-04T07:12:25.657Z</time></trkpt><trkpt lat="42.1903221" lon="18.9887461"><ele>90.0</ele><time>2026-05-04T07:12:26.658Z</time></trkpt><trkpt lat="42.1904217" lon="18.9885905"><ele>90.0</ele><time>2026-05-04T07:12:27.658Z</time></trkpt><trkpt lat="42.1905089" lon="18.9884134"><ele>90.0</ele><time>2026-05-04T07:12:28.658Z</time></trkpt><trkpt lat="42.1905884" lon="18.9882228"><ele>90.0</ele><time>2026-05-04T07:12:29.658Z</time></trkpt><trkpt lat="42.1906648" lon="18.9880287"><ele>93.66666666666666</ele><time>2026-05-04T07:12:30.657Z</time></trkpt><trkpt lat="42.190747" lon="18.9878289"><ele>97.33333333333333</ele><time>2026-05-04T07:12:31.658Z</time></trkpt><trkpt lat="42.1908404" lon="18.987632"><ele>101.0</ele><time>2026-05-04T07:12:32.658Z</time></trkpt><trkpt lat="42.1909406" lon="18.987444"><ele>93.66666666666666</ele><time>2026-05-04T07:12:33.658Z</time></trkpt><trkpt lat="42.1910418" lon="18.9872565"><ele>86.33333333333333</ele><time>2026-05-04T07:12:34.658Z</time></trkpt><trkpt lat="42.1911455" lon="18.9870708"><ele>79.0</ele><time>2026-05-04T07:12:35.658Z</time></trkpt><trkpt lat="42.1912357" lon="18.9868756"><ele>79.0</ele><time>2026-05-04T07:12:36.658Z</time></trkpt><trkpt lat="42.1913238" lon="18.9866812"><ele>79.0</ele><time>2026-05-04T07:12:37.657Z</time></trkpt><trkpt lat="42.1914045" lon="18.9864832"><ele>79.0</ele><time>2026-05-04T07:12:38.658Z</time></trkpt><trkpt lat="42.1914798" lon="18.986286"><ele>76.66666666666666</ele><time>2026-05-04T07:12:39.658Z</time></trkpt><trkpt lat="42.1915636" lon="18.986098"><ele>74.33333333333333</ele><time>2026-05-04T07:12:40.658Z</time></trkpt><trkpt lat="42.191657" lon="18.9859225"><ele>72.0</ele><time>2026-05-04T07:12:41.658Z</time></trkpt><trkpt lat="42.1917624" lon="18.9857664"><ele>72.0</ele><time>2026-05-04T07:12:42.657Z</time></trkpt><trkpt lat="42.1918766" lon="18.9856259"><ele>72.0</ele><time>2026-05-04T07:12:43.658Z</time></trkpt><trkpt lat="42.192006" lon="18.9855027"><ele>72.0</ele><time>2026-05-04T07:12:44.657Z</time></trkpt><trkpt lat="42.1921447" lon="18.9853924"><ele>72.0</ele><time>2026-05-04T07:12:45.658Z</time></trkpt><trkpt lat="42.1922879" lon="18.9852865"><ele>72.0</ele><time>2026-05-04T07:12:46.658Z</time></trkpt><trkpt lat="42.1924327" lon="18.9851721"><ele>72.0</ele><time>2026-05-04T07:12:47.657Z</time></trkpt><trkpt lat="42.1925686" lon="18.9850482"><ele>70.33333333333333</ele><time>2026-05-04T07:12:48.658Z</time></trkpt><trkpt lat="42.1926949" lon="18.9849148"><ele>68.66666666666666</ele><time>2026-05-04T07:12:49.658Z</time></trkpt><trkpt lat="42.1928174" lon="18.9847725"><ele>67.0</ele><time>2026-05-04T07:12:50.657Z</time></trkpt><trkpt lat="42.1929404" lon="18.9846323"><ele>67.0</ele><time>2026-05-04T07:12:51.658Z</time></trkpt><trkpt lat="42.1930713" lon="18.9844999"><ele>67.0</ele><time>2026-05-04T07:12:52.658Z</time></trkpt><trkpt lat="42.1932144" lon="18.9843762"><ele>67.0</ele><time>2026-05-04T07:12:53.657Z</time></trkpt><trkpt lat="42.1933672" lon="18.9842651"><ele>64.66666666666666</ele><time>2026-05-04T07:12:54.657Z</time></trkpt><trkpt lat="42.1935249" lon="18.9841607"><ele>62.33333333333333</ele><time>2026-05-04T07:12:55.658Z</time></trkpt><trkpt lat="42.1936792" lon="18.9840578"><ele>60.0</ele><time>2026-05-04T07:12:56.658Z</time></trkpt><trkpt lat="42.1938249" lon="18.9839472"><ele>60.0</ele><time>2026-05-04T07:12:57.658Z</time></trkpt><trkpt lat="42.19396" lon="18.9838282"><ele>60.0</ele><time>2026-05-04T07:12:58.658Z</time></trkpt><trkpt lat="42.1940822" lon="18.9837014"><ele>60.0</ele><time>2026-05-04T07:12:59.658Z</time></trkpt><trkpt lat="42.1941999" lon="18.9835696"><ele>57.75</ele><time>2026-05-04T07:13:00.658Z</time></trkpt><trkpt lat="42.1943186" lon="18.9834425"><ele>55.5</ele><time>2026-05-04T07:13:01.658Z</time></trkpt><trkpt lat="42.1944389" lon="18.9833244"><ele>53.25</ele><time>2026-05-04T07:13:02.658Z</time></trkpt><trkpt lat="42.1945662" lon="18.9832247"><ele>51.0</ele><time>2026-05-04T07:13:03.658Z</time></trkpt><trkpt lat="42.1947036" lon="18.9831455"><ele>55.0</ele><time>2026-05-04T07:13:04.658Z</time></trkpt><trkpt lat="42.1948498" lon="18.9830877"><ele>59.0</ele><time>2026-05-04T07:13:05.657Z</time></trkpt><trkpt lat="42.1949987" lon="18.9830513"><ele>63.0</ele><time>2026-05-04T07:13:06.657Z</time></trkpt><trkpt lat="42.1951536" lon="18.9830298"><ele>63.0</ele><time>2026-05-04T07:13:07.658Z</time></trkpt><trkpt lat="42.1953125" lon="18.9830194"><ele>63.0</ele><time>2026-05-04T07:13:08.658Z</time></trkpt><trkpt lat="42.1954726" lon="18.9830135"><ele>63.0</ele><time>2026-05-04T07:13:09.657Z</time></trkpt><trkpt lat="42.1956315" lon="18.9830114"><ele>61.33333333333333</ele><time>2026-05-04T07:13:10.657Z</time></trkpt><trkpt lat="42.1957849" lon="18.9830076"><ele>59.666666666666664</ele><time>2026-05-04T07:13:11.658Z</time></trkpt><trkpt lat="42.1959375" lon="18.9830027"><ele>58.0</ele><time>2026-05-04T07:13:12.657Z</time></trkpt><trkpt lat="42.1960857" lon="18.9829898"><ele>58.0</ele><time>2026-05-04T07:13:13.657Z</time></trkpt><trkpt lat="42.1962238" lon="18.9829577"><ele>58.0</ele><time>2026-05-04T07:13:14.658Z</time></trkpt><trkpt lat="42.1963503" lon="18.9828921"><ele>58.0</ele><time>2026-05-04T07:13:15.657Z</time></trkpt><trkpt lat="42.196463" lon="18.9828021"><ele>58.0</ele><time>2026-05-04T07:13:16.658Z</time></trkpt><trkpt lat="42.1965642" lon="18.9826946"><ele>57.25</ele><time>2026-05-04T07:13:17.658Z</time></trkpt><trkpt lat="42.1966543" lon="18.982571"><ele>56.5</ele><time>2026-05-04T07:13:18.657Z</time></trkpt><trkpt lat="42.1967333" lon="18.9824279"><ele>55.75</ele><time>2026-05-04T07:13:19.657Z</time></trkpt><trkpt lat="42.1968021" lon="18.9822713"><ele>55.0</ele><time>2026-05-04T07:13:20.657Z</time></trkpt><trkpt lat="42.196865" lon="18.9821013"><ele>50.5</ele><time>2026-05-04T07:13:21.658Z</time></trkpt><trkpt lat="42.1969146" lon="18.981921"><ele>46.0</ele><time>2026-05-04T07:13:22.657Z</time></trkpt><trkpt lat="42.1969548" lon="18.9817328"><ele>41.5</ele><time>2026-05-04T07:13:23.658Z</time></trkpt><trkpt lat="42.1969811" lon="18.9815441"><ele>37.0</ele><time>2026-05-04T07:13:24.658Z</time></trkpt><trkpt lat="42.1969924" lon="18.9813585"><ele>35.25</ele><time>2026-05-04T07:13:25.658Z</time></trkpt><trkpt lat="42.1969836" lon="18.981176"><ele>33.5</ele><time>2026-05-04T07:13:26.658Z</time></trkpt><trkpt lat="42.1969605" lon="18.9810009"><ele>31.75</ele><time>2026-05-04T07:13:27.658Z</time></trkpt><trkpt lat="42.196922" lon="18.9808305"><ele>30.0</ele><time>2026-05-04T07:13:28.658Z</time></trkpt><trkpt lat="42.1968739" lon="18.9806651"><ele>30.0</ele><time>2026-05-04T07:13:29.657Z</time></trkpt><trkpt lat="42.1968233" lon="18.9805036"><ele>30.0</ele><time>2026-05-04T07:13:30.657Z</time></trkpt><trkpt lat="42.1967726" lon="18.9803458"><ele>30.0</ele><time>2026-05-04T07:13:31.657Z</time></trkpt><trkpt lat="42.1967286" lon="18.9801946"><ele>30.0</ele><time>2026-05-04T07:13:32.657Z</time></trkpt><trkpt lat="42.1966944" lon="18.9800423"><ele>32.0</ele><time>2026-05-04T07:13:33.657Z</time></trkpt><trkpt lat="42.1966713" lon="18.9798873"><ele>34.0</ele><time>2026-05-04T07:13:34.657Z</time></trkpt><trkpt lat="42.1966589" lon="18.9797347"><ele>36.0</ele><time>2026-05-04T07:13:35.658Z</time></trkpt><trkpt lat="42.1966559" lon="18.9795794"><ele>38.0</ele><time>2026-05-04T07:13:36.658Z</time></trkpt><trkpt lat="42.1966757" lon="18.9794225"><ele>38.0</ele><time>2026-05-04T07:13:37.657Z</time></trkpt><trkpt lat="42.1967121" lon="18.9792693"><ele>38.0</ele><time>2026-05-04T07:13:38.658Z</time></trkpt><trkpt lat="42.196765" lon="18.9791151"><ele>38.0</ele><time>2026-05-04T07:13:39.658Z</time></trkpt><trkpt lat="42.1968272" lon="18.9789706"><ele>38.0</ele><time>2026-05-04T07:13:40.658Z</time></trkpt><trkpt lat="42.1969107" lon="18.9788406"><ele>40.25</ele><time>2026-05-04T07:13:41.658Z</time></trkpt><trkpt lat="42.1970065" lon="18.97872"><ele>42.5</ele><time>2026-05-04T07:13:42.658Z</time></trkpt><trkpt lat="42.1971193" lon="18.9786187"><ele>44.75</ele><time>2026-05-04T07:13:43.658Z</time></trkpt><trkpt lat="42.1972354" lon="18.9785309"><ele>47.0</ele><time>2026-05-04T07:13:44.657Z</time></trkpt><trkpt lat="42.1973555" lon="18.9784551"><ele>48.0</ele><time>2026-05-04T07:13:45.657Z</time></trkpt><trkpt lat="42.19748" lon="18.9783905"><ele>49.0</ele><time>2026-05-04T07:13:46.658Z</time></trkpt><trkpt lat="42.1976013" lon="18.9783184"><ele>50.0</ele><time>2026-05-04T07:13:47.657Z</time></trkpt><trkpt lat="42.1977207" lon="18.9782389"><ele>51.0</ele><time>2026-05-04T07:13:48.658Z</time></trkpt><trkpt lat="42.197833" lon="18.9781468"><ele>49.25</ele><time>2026-05-04T07:13:49.657Z</time></trkpt><trkpt lat="42.197938" lon="18.9780383"><ele>47.5</ele><time>2026-05-04T07:13:50.657Z</time></trkpt><trkpt lat="42.1980305" lon="18.9779139"><ele>45.75</ele><time>2026-05-04T07:13:51.657Z</time></trkpt><trkpt lat="42.1981091" lon="18.9777731"><ele>44.0</ele><time>2026-05-04T07:13:52.658Z</time></trkpt><trkpt lat="42.1981707" lon="18.9776222"><ele>42.0</ele><time>2026-05-04T07:13:53.657Z</time></trkpt><trkpt lat="42.1982145" lon="18.9774601"><ele>40.0</ele><time>2026-05-04T07:13:54.658Z</time></trkpt><trkpt lat="42.1982438" lon="18.9772843"><ele>38.0</ele><time>2026-05-04T07:13:55.658Z</time></trkpt><trkpt lat="42.1982524" lon="18.9771016"><ele>36.0</ele><time>2026-05-04T07:13:56.658Z</time></trkpt><trkpt lat="42.1982383" lon="18.9769167"><ele>36.0</ele><time>2026-05-04T07:13:57.658Z</time></trkpt><trkpt lat="42.1982054" lon="18.9767388"><ele>36.0</ele><time>2026-05-04T07:13:58.658Z</time></trkpt><trkpt lat="42.1981509" lon="18.9765644"><ele>36.0</ele><time>2026-05-04T07:13:59.658Z</time></trkpt><trkpt lat="42.1980785" lon="18.976395"><ele>36.0</ele><time>2026-05-04T07:14:00.658Z</time></trkpt><trkpt lat="42.1979967" lon="18.9762297"><ele>32.25</ele><time>2026-05-04T07:14:01.657Z</time></trkpt><trkpt lat="42.197908" lon="18.9760663"><ele>28.5</ele><time>2026-05-04T07:14:02.658Z</time></trkpt><trkpt lat="42.1978198" lon="18.9759075"><ele>24.75</ele><time>2026-05-04T07:14:03.657Z</time></trkpt><trkpt lat="42.1977374" lon="18.9757475"><ele>21.0</ele><time>2026-05-04T07:14:04.657Z</time></trkpt><trkpt lat="42.197656" lon="18.9755861"><ele>21.0</ele><time>2026-05-04T07:14:05.658Z</time></trkpt><trkpt lat="42.197583" lon="18.975424"><ele>21.0</ele><time>2026-05-04T07:14:06.658Z</time></trkpt><trkpt lat="42.1975161" lon="18.9752514"><ele>21.0</ele><time>2026-05-04T07:14:07.658Z</time></trkpt><trkpt lat="42.1974509" lon="18.9750758"><ele>21.0</ele><time>2026-05-04T07:14:08.658Z</time></trkpt><trkpt lat="42.1973858" lon="18.9748937"><ele>17.666666666666668</ele><time>2026-05-04T07:14:09.658Z</time></trkpt><trkpt lat="42.1973238" lon="18.9747092"><ele>14.333333333333332</ele><time>2026-05-04T07:14:10.658Z</time></trkpt><trkpt lat="42.1972674" lon="18.97452"><ele>11.0</ele><time>2026-05-04T07:14:11.658Z</time></trkpt><trkpt lat="42.1972148" lon="18.9743269"><ele>12.0</ele><time>2026-05-04T07:14:12.657Z</time></trkpt><trkpt lat="42.1971658" lon="18.9741341"><ele>13.0</ele><time>2026-05-04T07:14:13.657Z</time></trkpt><trkpt lat="42.1971236" lon="18.973938"><ele>14.0</ele><time>2026-05-04T07:14:14.657Z</time></trkpt><trkpt lat="42.1970871" lon="18.973741"><ele>14.0</ele><time>2026-05-04T07:14:15.658Z</time></trkpt><trkpt lat="42.1970502" lon="18.9735401"><ele>14.0</ele><time>2026-05-04T07:14:16.657Z</time></trkpt><trkpt lat="42.1970182" lon="18.9733393"><ele>14.0</ele><time>2026-05-04T07:14:17.658Z</time></trkpt><trkpt lat="42.1969925" lon="18.9731388"><ele>15.333333333333334</ele><time>2026-05-04T07:14:18.657Z</time></trkpt><trkpt lat="42.1969716" lon="18.9729366"><ele>16.666666666666668</ele><time>2026-05-04T07:14:19.658Z</time></trkpt><trkpt lat="42.1969586" lon="18.9727346"><ele>18.0</ele><time>2026-05-04T07:14:20.658Z</time></trkpt><trkpt lat="42.1969531" lon="18.9725332"><ele>17.25</ele><time>2026-05-04T07:14:21.658Z</time></trkpt><trkpt lat="42.1969527" lon="18.9723346"><ele>16.5</ele><time>2026-05-04T07:14:22.658Z</time></trkpt><trkpt lat="42.196961" lon="18.9721351"><ele>15.75</ele><time>2026-05-04T07:14:23.658Z</time></trkpt><trkpt lat="42.1969776" lon="18.9719368"><ele>15.0</ele><time>2026-05-04T07:14:24.657Z</time></trkpt><trkpt lat="42.1970032" lon="18.9717359"><ele>14.0</ele><time>2026-05-04T07:14:25.658Z</time></trkpt><trkpt lat="42.1970379" lon="18.9715312"><ele>13.0</ele><time>2026-05-04T07:14:26.658Z</time></trkpt><trkpt lat="42.1970811" lon="18.9713244"><ele>12.0</ele><time>2026-05-04T07:14:27.658Z</time></trkpt><trkpt lat="42.1971291" lon="18.9711156"><ele>12.0</ele><time>2026-05-04T07:14:28.658Z</time></trkpt><trkpt lat="42.1971862" lon="18.9709039"><ele>12.0</ele><time>2026-05-04T07:14:29.658Z</time></trkpt><trkpt lat="42.1972479" lon="18.9706932"><ele>12.0</ele><time>2026-05-04T07:14:30.658Z</time></trkpt><trkpt lat="42.1973136" lon="18.9704825"><ele>13.666666666666668</ele><time>2026-05-04T07:14:31.657Z</time></trkpt><trkpt lat="42.1973834" lon="18.9702738"><ele>15.333333333333334</ele><time>2026-05-04T07:14:32.658Z</time></trkpt><trkpt lat="42.1974585" lon="18.9700684"><ele>17.0</ele><time>2026-05-04T07:14:33.657Z</time></trkpt><trkpt lat="42.1975403" lon="18.9698673"><ele>17.0</ele><time>2026-05-04T07:14:34.657Z</time></trkpt><trkpt lat="42.1976264" lon="18.9696717"><ele>17.0</ele><time>2026-05-04T07:14:35.657Z</time></trkpt><trkpt lat="42.1977154" lon="18.9694804"><ele>17.0</ele><time>2026-05-04T07:14:36.658Z</time></trkpt><trkpt lat="42.1978114" lon="18.969296"><ele>14.0</ele><time>2026-05-04T07:14:37.658Z</time></trkpt><trkpt lat="42.1979118" lon="18.9691209"><ele>11.0</ele><time>2026-05-04T07:14:38.657Z</time></trkpt><trkpt lat="42.1980181" lon="18.9689574"><ele>8.0</ele><time>2026-05-04T07:14:39.658Z</time></trkpt><trkpt lat="42.1981314" lon="18.9688054"><ele>14.0</ele><time>2026-05-04T07:14:40.658Z</time></trkpt><trkpt lat="42.1982478" lon="18.9686639"><ele>20.0</ele><time>2026-05-04T07:14:41.657Z</time></trkpt><trkpt lat="42.1983639" lon="18.9685287"><ele>26.0</ele><time>2026-05-04T07:14:42.658Z</time></trkpt><trkpt lat="42.1984817" lon="18.9683955"><ele>22.666666666666664</ele><time>2026-05-04T07:14:43.658Z</time></trkpt><trkpt lat="42.1985997" lon="18.9682617"><ele>19.333333333333332</ele><time>2026-05-04T07:14:44.657Z</time></trkpt><trkpt lat="42.1987144" lon="18.9681239"><ele>16.0</ele><time>2026-05-04T07:14:45.658Z</time></trkpt><trkpt lat="42.1988263" lon="18.9679797"><ele>16.0</ele><time>2026-05-04T07:14:46.657Z</time></trkpt><trkpt lat="42.1989316" lon="18.9678271"><ele>16.0</ele><time>2026-05-04T07:14:47.658Z</time></trkpt><trkpt lat="42.1990314" lon="18.9676688"><ele>16.0</ele><time>2026-05-04T07:14:48.657Z</time></trkpt><trkpt lat="42.1991227" lon="18.9675007"><ele>16.333333333333332</ele><time>2026-05-04T07:14:49.657Z</time></trkpt><trkpt lat="42.1992076" lon="18.9673252"><ele>16.666666666666668</ele><time>2026-05-04T07:14:50.657Z</time></trkpt><trkpt lat="42.1992825" lon="18.967142"><ele>17.0</ele><time>2026-05-04T07:14:51.658Z</time></trkpt><trkpt lat="42.1993505" lon="18.9669547"><ele>17.0</ele><time>2026-05-04T07:14:52.657Z</time></trkpt><trkpt lat="42.1994135" lon="18.9667649"><ele>17.0</ele><time>2026-05-04T07:14:53.657Z</time></trkpt><trkpt lat="42.1994704" lon="18.9665745"><ele>17.0</ele><time>2026-05-04T07:14:54.657Z</time></trkpt><trkpt lat="42.1995232" lon="18.9663831"><ele>16.75</ele><time>2026-05-04T07:14:55.657Z</time></trkpt><trkpt lat="42.1995719" lon="18.9661915"><ele>16.5</ele><time>2026-05-04T07:14:56.658Z</time></trkpt><trkpt lat="42.1996177" lon="18.9660033"><ele>16.25</ele><time>2026-05-04T07:14:57.658Z</time></trkpt><trkpt lat="42.1996619" lon="18.9658161"><ele>16.0</ele><time>2026-05-04T07:14:58.658Z</time></trkpt><trkpt lat="42.1997081" lon="18.965631"><ele>16.0</ele><time>2026-05-04T07:14:59.658Z</time></trkpt><trkpt lat="42.1997551" lon="18.9654493"><ele>16.0</ele><time>2026-05-04T07:15:00.658Z</time></trkpt><trkpt lat="42.1998073" lon="18.9652678"><ele>16.0</ele><time>2026-05-04T07:15:01.657Z</time></trkpt><trkpt lat="42.199866" lon="18.9650853"><ele>16.0</ele><time>2026-05-04T07:15:02.657Z</time></trkpt><trkpt lat="42.1999314" lon="18.9649043"><ele>17.0</ele><time>2026-05-04T07:15:03.657Z</time></trkpt><trkpt lat="42.2000035" lon="18.9647277"><ele>18.0</ele><time>2026-05-04T07:15:04.658Z</time></trkpt><trkpt lat="42.2000812" lon="18.9645618"><ele>19.0</ele><time>2026-05-04T07:15:05.658Z</time></trkpt><trkpt lat="42.2001612" lon="18.9644109"><ele>20.0</ele><time>2026-05-04T07:15:06.658Z</time></trkpt><trkpt lat="42.2002389" lon="18.9642773"><ele>19.6</ele><time>2026-05-04T07:15:07.658Z</time></trkpt><trkpt lat="42.200309" lon="18.9641618"><ele>19.2</ele><time>2026-05-04T07:15:08.658Z</time></trkpt><trkpt lat="42.2003699" lon="18.9640699"><ele>18.8</ele><time>2026-05-04T07:15:09.658Z</time></trkpt><trkpt lat="42.2004241" lon="18.9640062"><ele>18.4</ele><time>2026-05-04T07:15:10.658Z</time></trkpt><trkpt lat="42.2005272" lon="18.9639404"><ele>18.0</ele><time>2026-05-04T07:15:12.658Z</time></trkpt><trkpt lat="42.2006049" lon="18.9639052"><ele>18.0</ele><time>2026-05-04T07:15:14.658Z</time></trkpt><trkpt lat="42.2006608" lon="18.9638562"><ele>18.0</ele><time>2026-05-04T07:15:18.658Z</time></trkpt><trkpt lat="42.2006281" lon="18.9637152"><ele>18.0</ele><time>2026-05-04T07:15:27.658Z</time></trkpt><trkpt lat="42.2006157" lon="18.9636245"><ele>18.0</ele><time>2026-05-04T07:15:28.658Z</time></trkpt><trkpt lat="42.200604" lon="18.963536"><ele>18.0</ele><time>2026-05-04T07:15:30.657Z</time></trkpt><trkpt lat="42.2006875" lon="18.9639209"><ele>21.4</ele><time>2026-05-04T07:15:42.678Z</time></trkpt><trkpt lat="42.2007125" lon="18.9638354"><ele>24.8</ele><time>2026-05-04T07:18:18.551Z</time></trkpt><trkpt lat="42.200775" lon="18.9637697"><ele>28.2</ele><time>2026-05-04T07:19:17.67Z</time></trkpt><trkpt lat="42.2008113" lon="18.9636245"><ele>31.6</ele><time>2026-05-04T07:19:19.671Z</time></trkpt><trkpt lat="42.2008195" lon="18.9635252"><ele>35.0</ele><time>2026-05-04T07:19:21.671Z</time></trkpt><trkpt lat="42.2008622" lon="18.963378"><ele>34.0</ele><time>2026-05-04T07:19:23.671Z</time></trkpt><trkpt lat="42.200906" lon="18.9632779"><ele>33.0</ele><time>2026-05-04T07:19:24.67Z</time></trkpt><trkpt lat="42.2009569" lon="18.9631752"><ele>32.0</ele><time>2026-05-04T07:19:25.67Z</time></trkpt><trkpt lat="42.2010149" lon="18.9630676"><ele>31.0</ele><time>2026-05-04T07:19:26.67Z</time></trkpt><trkpt lat="42.2010749" lon="18.9629357"><ele>30.0</ele><time>2026-05-04T07:19:27.67Z</time></trkpt><trkpt lat="42.2011476" lon="18.9627867"><ele>30.0</ele><time>2026-05-04T07:19:28.67Z</time></trkpt><trkpt lat="42.2012174" lon="18.9626376"><ele>30.0</ele><time>2026-05-04T07:19:29.67Z</time></trkpt><trkpt lat="42.2012829" lon="18.9624851"><ele>30.0</ele><time>2026-05-04T07:19:30.671Z</time></trkpt><trkpt lat="42.2013443" lon="18.9623251"><ele>30.0</ele><time>2026-05-04T07:19:31.671Z</time></trkpt><trkpt lat="42.2014023" lon="18.9621512"><ele>30.5</ele><time>2026-05-04T07:19:32.671Z</time></trkpt><trkpt lat="42.201461" lon="18.9619777"><ele>31.0</ele><time>2026-05-04T07:19:33.671Z</time></trkpt><trkpt lat="42.2015171" lon="18.9617995"><ele>31.5</ele><time>2026-05-04T07:19:34.67Z</time></trkpt><trkpt lat="42.2015713" lon="18.9616172"><ele>32.0</ele><time>2026-05-04T07:19:35.671Z</time></trkpt><trkpt lat="42.2016236" lon="18.9614366"><ele>32.0</ele><time>2026-05-04T07:19:36.67Z</time></trkpt><trkpt lat="42.2016775" lon="18.9612565"><ele>32.0</ele><time>2026-05-04T07:19:37.671Z</time></trkpt><trkpt lat="42.2017372" lon="18.9610794"><ele>32.0</ele><time>2026-05-04T07:19:38.67Z</time></trkpt><trkpt lat="42.2018039" lon="18.9608999"><ele>32.0</ele><time>2026-05-04T07:19:39.671Z</time></trkpt><trkpt lat="42.2018779" lon="18.9607188"><ele>31.0</ele><time>2026-05-04T07:19:40.67Z</time></trkpt><trkpt lat="42.2019613" lon="18.9605492"><ele>30.0</ele><time>2026-05-04T07:19:41.671Z</time></trkpt><trkpt lat="42.2020557" lon="18.9603868"><ele>29.0</ele><time>2026-05-04T07:19:42.671Z</time></trkpt><trkpt lat="42.2021523" lon="18.9602101"><ele>29.0</ele><time>2026-05-04T07:19:43.671Z</time></trkpt><trkpt lat="42.2022664" lon="18.9600559"><ele>29.0</ele><time>2026-05-04T07:19:44.67Z</time></trkpt><trkpt lat="42.2023916" lon="18.9599081"><ele>29.0</ele><time>2026-05-04T07:19:45.671Z</time></trkpt><trkpt lat="42.2025246" lon="18.9597739"><ele>32.33333333333333</ele><time>2026-05-04T07:19:46.67Z</time></trkpt><trkpt lat="42.2026683" lon="18.9596343"><ele>35.666666666666664</ele><time>2026-05-04T07:19:47.67Z</time></trkpt><trkpt lat="42.202822" lon="18.9594932"><ele>39.0</ele><time>2026-05-04T07:19:48.67Z</time></trkpt><trkpt lat="42.2029643" lon="18.9593597"><ele>39.0</ele><time>2026-05-04T07:19:49.67Z</time></trkpt><trkpt lat="42.2031022" lon="18.9592216"><ele>39.0</ele><time>2026-05-04T07:19:50.67Z</time></trkpt><trkpt lat="42.2032326" lon="18.9590735"><ele>39.0</ele><time>2026-05-04T07:19:51.671Z</time></trkpt><trkpt lat="42.203357" lon="18.9589194"><ele>40.0</ele><time>2026-05-04T07:19:52.671Z</time></trkpt><trkpt lat="42.2034711" lon="18.9587536"><ele>41.0</ele><time>2026-05-04T07:19:53.671Z</time></trkpt><trkpt lat="42.2035743" lon="18.95858"><ele>42.0</ele><time>2026-05-04T07:19:54.67Z</time></trkpt><trkpt lat="42.2036682" lon="18.9584008"><ele>38.333333333333336</ele><time>2026-05-04T07:19:55.67Z</time></trkpt><trkpt lat="42.2037587" lon="18.9582046"><ele>34.66666666666667</ele><time>2026-05-04T07:19:56.671Z</time></trkpt><trkpt lat="42.203827" lon="18.9580043"><ele>31.0</ele><time>2026-05-04T07:19:57.67Z</time></trkpt><trkpt lat="42.2038868" lon="18.9577982"><ele>31.0</ele><time>2026-05-04T07:19:58.671Z</time></trkpt><trkpt lat="42.2039417" lon="18.9575893"><ele>31.0</ele><time>2026-05-04T07:19:59.671Z</time></trkpt><trkpt lat="42.2039871" lon="18.9573705"><ele>31.0</ele><time>2026-05-04T07:20:00.67Z</time></trkpt><trkpt lat="42.2040231" lon="18.9571473"><ele>35.66666666666667</ele><time>2026-05-04T07:20:01.671Z</time></trkpt><trkpt lat="42.2040514" lon="18.9569202"><ele>40.333333333333336</ele><time>2026-05-04T07:20:02.671Z</time></trkpt><trkpt lat="42.2040739" lon="18.9566866"><ele>45.0</ele><time>2026-05-04T07:20:03.671Z</time></trkpt><trkpt lat="42.2040868" lon="18.9564512"><ele>43.0</ele><time>2026-05-04T07:20:04.67Z</time></trkpt><trkpt lat="42.204089" lon="18.9562171"><ele>41.0</ele><time>2026-05-04T07:20:05.671Z</time></trkpt><trkpt lat="42.2038659" lon="18.9548399"><ele>41.0</ele><time>2026-05-04T07:20:11.671Z</time></trkpt><trkpt lat="42.2038159" lon="18.9545773"><ele>41.0</ele><time>2026-05-04T07:20:12.671Z</time></trkpt><trkpt lat="42.2037598" lon="18.9543879"><ele>41.0</ele><time>2026-05-04T07:20:13.671Z</time></trkpt><trkpt lat="42.2037062" lon="18.9541959"><ele>41.33333333333333</ele><time>2026-05-04T07:20:14.671Z</time></trkpt><trkpt lat="42.2036572" lon="18.9540141"><ele>41.666666666666664</ele><time>2026-05-04T07:20:15.671Z</time></trkpt><trkpt lat="42.2036114" lon="18.9538122"><ele>42.0</ele><time>2026-05-04T07:20:16.67Z</time></trkpt><trkpt lat="42.2035709" lon="18.9536111"><ele>42.0</ele><time>2026-05-04T07:20:17.671Z</time></trkpt><trkpt lat="42.20355" lon="18.9534038"><ele>42.0</ele><time>2026-05-04T07:20:18.67Z</time></trkpt><trkpt lat="42.2035408" lon="18.9531976"><ele>42.0</ele><time>2026-05-04T07:20:19.671Z</time></trkpt><trkpt lat="42.2035489" lon="18.9529942"><ele>42.666666666666664</ele><time>2026-05-04T07:20:20.67Z</time></trkpt><trkpt lat="42.2035688" lon="18.9527841"><ele>43.33333333333333</ele><time>2026-05-04T07:20:21.67Z</time></trkpt><trkpt lat="42.2036075" lon="18.9525864"><ele>44.0</ele><time>2026-05-04T07:20:22.671Z</time></trkpt><trkpt lat="42.2036628" lon="18.952394"><ele>44.0</ele><time>2026-05-04T07:20:23.671Z</time></trkpt><trkpt lat="42.2037323" lon="18.9521939"><ele>44.0</ele><time>2026-05-04T07:20:24.671Z</time></trkpt><trkpt lat="42.2038101" lon="18.9520004"><ele>44.0</ele><time>2026-05-04T07:20:25.67Z</time></trkpt><trkpt lat="42.2039069" lon="18.9518094"><ele>53.33333333333333</ele><time>2026-05-04T07:20:26.671Z</time></trkpt><trkpt lat="42.2040064" lon="18.9516304"><ele>62.666666666666664</ele><time>2026-05-04T07:20:27.67Z</time></trkpt><trkpt lat="42.2041055" lon="18.9514477"><ele>72.0</ele><time>2026-05-04T07:20:28.67Z</time></trkpt><trkpt lat="42.2042122" lon="18.9512742"><ele>72.0</ele><time>2026-05-04T07:20:29.67Z</time></trkpt><trkpt lat="42.2043252" lon="18.9511044"><ele>72.0</ele><time>2026-05-04T07:20:30.67Z</time></trkpt><trkpt lat="42.2044513" lon="18.9509481"><ele>72.0</ele><time>2026-05-04T07:20:31.67Z</time></trkpt><trkpt lat="42.2045782" lon="18.9507824"><ele>65.66666666666667</ele><time>2026-05-04T07:20:32.671Z</time></trkpt><trkpt lat="42.2047071" lon="18.9506357"><ele>59.333333333333336</ele><time>2026-05-04T07:20:33.671Z</time></trkpt><trkpt lat="42.2048452" lon="18.9504976"><ele>53.0</ele><time>2026-05-04T07:20:34.671Z</time></trkpt><trkpt lat="42.2049954" lon="18.9503662"><ele>66.66666666666667</ele><time>2026-05-04T07:20:35.67Z</time></trkpt><trkpt lat="42.2051641" lon="18.9502486"><ele>80.33333333333333</ele><time>2026-05-04T07:20:36.671Z</time></trkpt><trkpt lat="42.205335" lon="18.9501452"><ele>94.0</ele><time>2026-05-04T07:20:37.67Z</time></trkpt><trkpt lat="42.2055065" lon="18.9500602"><ele>90.33333333333333</ele><time>2026-05-04T07:20:38.671Z</time></trkpt><trkpt lat="42.2056837" lon="18.9499906"><ele>86.66666666666667</ele><time>2026-05-04T07:20:39.671Z</time></trkpt><trkpt lat="42.2058469" lon="18.949949"><ele>83.0</ele><time>2026-05-04T07:20:40.67Z</time></trkpt><trkpt lat="42.2060222" lon="18.9499254"><ele>83.0</ele><time>2026-05-04T07:20:41.67Z</time></trkpt><trkpt lat="42.2062038" lon="18.9499055"><ele>83.0</ele><time>2026-05-04T07:20:42.67Z</time></trkpt><trkpt lat="42.2063827" lon="18.9498778"><ele>83.0</ele><time>2026-05-04T07:20:43.671Z</time></trkpt><trkpt lat="42.2065676" lon="18.9497961"><ele>89.66666666666667</ele><time>2026-05-04T07:20:44.671Z</time></trkpt><trkpt lat="42.2067565" lon="18.949702"><ele>96.33333333333334</ele><time>2026-05-04T07:20:45.67Z</time></trkpt><trkpt lat="42.2069575" lon="18.9495927"><ele>103.0</ele><time>2026-05-04T07:20:46.671Z</time></trkpt><trkpt lat="42.2071431" lon="18.9494905"><ele>103.0</ele><time>2026-05-04T07:20:47.671Z</time></trkpt><trkpt lat="42.2073255" lon="18.9494081"><ele>103.0</ele><time>2026-05-04T07:20:48.671Z</time></trkpt><trkpt lat="42.2074934" lon="18.9493093"><ele>103.0</ele><time>2026-05-04T07:20:49.671Z</time></trkpt><trkpt lat="42.2076629" lon="18.9492109"><ele>99.0</ele><time>2026-05-04T07:20:50.671Z</time></trkpt><trkpt lat="42.2078198" lon="18.9491016"><ele>95.0</ele><time>2026-05-04T07:20:51.671Z</time></trkpt><trkpt lat="42.2079695" lon="18.9489786"><ele>91.0</ele><time>2026-05-04T07:20:52.67Z</time></trkpt><trkpt lat="42.2080948" lon="18.9488036"><ele>92.66666666666666</ele><time>2026-05-04T07:20:53.67Z</time></trkpt><trkpt lat="42.2082113" lon="18.9486257"><ele>94.33333333333333</ele><time>2026-05-04T07:20:54.67Z</time></trkpt><trkpt lat="42.2083354" lon="18.9484273"><ele>96.0</ele><time>2026-05-04T07:20:55.67Z</time></trkpt><trkpt lat="42.2084417" lon="18.9482275"><ele>96.0</ele><time>2026-05-04T07:20:56.67Z</time></trkpt><trkpt lat="42.2085609" lon="18.9480371"><ele>96.0</ele><time>2026-05-04T07:20:57.67Z</time></trkpt><trkpt lat="42.2086903" lon="18.94783"><ele>96.0</ele><time>2026-05-04T07:20:58.67Z</time></trkpt><trkpt lat="42.2088196" lon="18.9476144"><ele>90.0</ele><time>2026-05-04T07:20:59.671Z</time></trkpt><trkpt lat="42.2089389" lon="18.9474067"><ele>84.0</ele><time>2026-05-04T07:21:00.671Z</time></trkpt><trkpt lat="42.209043" lon="18.9472058"><ele>78.0</ele><time>2026-05-04T07:21:01.67Z</time></trkpt><trkpt lat="42.2091538" lon="18.9470107"><ele>85.33333333333334</ele><time>2026-05-04T07:21:02.671Z</time></trkpt><trkpt lat="42.2092529" lon="18.9468224"><ele>92.66666666666667</ele><time>2026-05-04T07:21:03.67Z</time></trkpt><trkpt lat="42.2093529" lon="18.9466281"><ele>100.0</ele><time>2026-05-04T07:21:04.67Z</time></trkpt><trkpt lat="42.2094614" lon="18.9464532"><ele>100.0</ele><time>2026-05-04T07:21:05.67Z</time></trkpt><trkpt lat="42.2095881" lon="18.9462884"><ele>100.0</ele><time>2026-05-04T07:21:06.67Z</time></trkpt><trkpt lat="42.2097175" lon="18.9461469"><ele>100.0</ele><time>2026-05-04T07:21:07.671Z</time></trkpt><trkpt lat="42.2098612" lon="18.9460155"><ele>104.66666666666667</ele><time>2026-05-04T07:21:08.671Z</time></trkpt><trkpt lat="42.2100047" lon="18.9458868"><ele>109.33333333333334</ele><time>2026-05-04T07:21:09.67Z</time></trkpt><trkpt lat="42.2101427" lon="18.9457531"><ele>114.0</ele><time>2026-05-04T07:21:10.671Z</time></trkpt><trkpt lat="42.2102688" lon="18.9456279"><ele>114.0</ele><time>2026-05-04T07:21:11.67Z</time></trkpt><trkpt lat="42.2103734" lon="18.9455006"><ele>114.0</ele><time>2026-05-04T07:21:12.671Z</time></trkpt><trkpt lat="42.2104472" lon="18.9453621"><ele>114.0</ele><time>2026-05-04T07:21:13.67Z</time></trkpt><trkpt lat="42.2105131" lon="18.9452376"><ele>114.0</ele><time>2026-05-04T07:21:14.67Z</time></trkpt><trkpt lat="42.2105629" lon="18.9451379"><ele>114.0</ele><time>2026-05-04T07:21:15.67Z</time></trkpt><trkpt lat="42.2106013" lon="18.9450519"><ele>114.0</ele><time>2026-05-04T07:21:16.671Z</time></trkpt><trkpt lat="42.2106538" lon="18.944962"><ele>114.0</ele><time>2026-05-04T07:21:18.671Z</time></trkpt><trkpt lat="42.2106991" lon="18.9448852"><ele>114.0</ele><time>2026-05-04T07:21:25.671Z</time></trkpt><trkpt lat="42.2107472" lon="18.9448188"><ele>114.0</ele><time>2026-05-04T07:21:28.67Z</time></trkpt><trkpt lat="42.2108209" lon="18.9447763"><ele>114.0</ele><time>2026-05-04T07:21:31.671Z</time></trkpt><trkpt lat="42.2108923" lon="18.9448092"><ele>116.0</ele><time>2026-05-04T07:21:33.67Z</time></trkpt><trkpt lat="42.2109522" lon="18.9448663"><ele>118.0</ele><time>2026-05-04T07:21:36.671Z</time></trkpt><trkpt lat="42.2110549" lon="18.9447879"><ele>120.0</ele><time>2026-05-04T07:21:39.671Z</time></trkpt><trkpt lat="42.2111269" lon="18.9447084"><ele>122.0</ele><time>2026-05-04T07:21:40.67Z</time></trkpt><trkpt lat="42.2111833" lon="18.944614"><ele>124.0</ele><time>2026-05-04T07:21:41.671Z</time></trkpt><trkpt lat="42.2112594" lon="18.9445142"><ele>124.0</ele><time>2026-05-04T07:21:42.67Z</time></trkpt><trkpt lat="42.2113383" lon="18.9443942"><ele>124.0</ele><time>2026-05-04T07:21:43.671Z</time></trkpt><trkpt lat="42.2114361" lon="18.9442611"><ele>124.0</ele><time>2026-05-04T07:21:44.67Z</time></trkpt><trkpt lat="42.2115263" lon="18.9441309"><ele>124.0</ele><time>2026-05-04T07:21:45.67Z</time></trkpt><trkpt lat="42.2116228" lon="18.9440052"><ele>125.25</ele><time>2026-05-04T07:21:46.67Z</time></trkpt><trkpt lat="42.2117051" lon="18.9438808"><ele>126.5</ele><time>2026-05-04T07:21:47.671Z</time></trkpt><trkpt lat="42.2117829" lon="18.9437437"><ele>127.75</ele><time>2026-05-04T07:21:48.671Z</time></trkpt><trkpt lat="42.2118339" lon="18.9435715"><ele>129.0</ele><time>2026-05-04T07:21:49.671Z</time></trkpt><trkpt lat="42.2118576" lon="18.9433893"><ele>122.0</ele><time>2026-05-04T07:21:50.67Z</time></trkpt><trkpt lat="42.2118715" lon="18.9432198"><ele>115.0</ele><time>2026-05-04T07:21:51.67Z</time></trkpt><trkpt lat="42.2118668" lon="18.9430513"><ele>108.0</ele><time>2026-05-04T07:21:52.671Z</time></trkpt><trkpt lat="42.2118272" lon="18.9428813"><ele>101.0</ele><time>2026-05-04T07:21:53.67Z</time></trkpt><trkpt lat="42.2117799" lon="18.9427259"><ele>101.0</ele><time>2026-05-04T07:21:54.67Z</time></trkpt><trkpt lat="42.2117121" lon="18.9425821"><ele>101.0</ele><time>2026-05-04T07:21:55.67Z</time></trkpt><trkpt lat="42.2116206" lon="18.9424512"><ele>101.0</ele><time>2026-05-04T07:21:56.671Z</time></trkpt><trkpt lat="42.2115251" lon="18.9423164"><ele>101.0</ele><time>2026-05-04T07:21:57.671Z</time></trkpt><trkpt lat="42.2114356" lon="18.9421793"><ele>98.25</ele><time>2026-05-04T07:21:58.671Z</time></trkpt><trkpt lat="42.2113322" lon="18.9420348"><ele>95.5</ele><time>2026-05-04T07:21:59.67Z</time></trkpt><trkpt lat="42.2112322" lon="18.9418865"><ele>92.75</ele><time>2026-05-04T07:22:00.67Z</time></trkpt><trkpt lat="42.2111491" lon="18.9417254"><ele>90.0</ele><time>2026-05-04T07:22:01.67Z</time></trkpt><trkpt lat="42.2110722" lon="18.9415693"><ele>90.0</ele><time>2026-05-04T07:22:02.67Z</time></trkpt><trkpt lat="42.2109864" lon="18.9414069"><ele>90.0</ele><time>2026-05-04T07:22:03.671Z</time></trkpt><trkpt lat="42.2109104" lon="18.9412181"><ele>90.0</ele><time>2026-05-04T07:22:04.67Z</time></trkpt><trkpt lat="42.2108402" lon="18.9410338"><ele>92.25</ele><time>2026-05-04T07:22:05.67Z</time></trkpt><trkpt lat="42.2107875" lon="18.9408487"><ele>94.5</ele><time>2026-05-04T07:22:06.671Z</time></trkpt><trkpt lat="42.21074" lon="18.9406581"><ele>96.75</ele><time>2026-05-04T07:22:07.67Z</time></trkpt><trkpt lat="42.2107164" lon="18.9404556"><ele>99.0</ele><time>2026-05-04T07:22:08.671Z</time></trkpt><trkpt lat="42.2107077" lon="18.9402516"><ele>102.0</ele><time>2026-05-04T07:22:09.67Z</time></trkpt><trkpt lat="42.2107087" lon="18.9400349"><ele>105.0</ele><time>2026-05-04T07:22:10.671Z</time></trkpt><trkpt lat="42.2107132" lon="18.9398271"><ele>108.0</ele><time>2026-05-04T07:22:11.671Z</time></trkpt><trkpt lat="42.2107018" lon="18.9396223"><ele>108.0</ele><time>2026-05-04T07:22:12.67Z</time></trkpt><trkpt lat="42.210699" lon="18.9394141"><ele>108.0</ele><time>2026-05-04T07:22:13.671Z</time></trkpt><trkpt lat="42.2107025" lon="18.9392085"><ele>108.0</ele><time>2026-05-04T07:22:14.671Z</time></trkpt><trkpt lat="42.210694" lon="18.9390006"><ele>108.25</ele><time>2026-05-04T07:22:15.671Z</time></trkpt><trkpt lat="42.2106798" lon="18.938801"><ele>108.5</ele><time>2026-05-04T07:22:16.671Z</time></trkpt><trkpt lat="42.210644" lon="18.9386049"><ele>108.75</ele><time>2026-05-04T07:22:17.671Z</time></trkpt><trkpt lat="42.2106142" lon="18.938413"><ele>109.0</ele><time>2026-05-04T07:22:18.671Z</time></trkpt><trkpt lat="42.2105652" lon="18.9382384"><ele>102.0</ele><time>2026-05-04T07:22:19.67Z</time></trkpt><trkpt lat="42.2105176" lon="18.9380685"><ele>95.0</ele><time>2026-05-04T07:22:20.671Z</time></trkpt><trkpt lat="42.2104703" lon="18.9379139"><ele>88.0</ele><time>2026-05-04T07:22:21.67Z</time></trkpt><trkpt lat="42.2104225" lon="18.9377584"><ele>81.0</ele><time>2026-05-04T07:22:22.67Z</time></trkpt><trkpt lat="42.2103766" lon="18.9376154"><ele>81.83333333333333</ele><time>2026-05-04T07:22:23.67Z</time></trkpt><trkpt lat="42.2103378" lon="18.9374936"><ele>82.66666666666667</ele><time>2026-05-04T07:22:24.67Z</time></trkpt><trkpt lat="42.2103073" lon="18.9373948"><ele>83.5</ele><time>2026-05-04T07:22:25.671Z</time></trkpt><trkpt lat="42.2102788" lon="18.9372609"><ele>84.33333333333334</ele><time>2026-05-04T07:22:27.671Z</time></trkpt><trkpt lat="42.2102672" lon="18.9371453"><ele>85.16666666666667</ele><time>2026-05-04T07:22:29.67Z</time></trkpt><trkpt lat="42.210253" lon="18.9370624"><ele>86.0</ele><time>2026-05-04T07:22:30.671Z</time></trkpt><trkpt lat="42.2102415" lon="18.9369622"><ele>86.0</ele><time>2026-05-04T07:22:31.671Z</time></trkpt><trkpt lat="42.2102307" lon="18.9368414"><ele>86.0</ele><time>2026-05-04T07:22:32.671Z</time></trkpt><trkpt lat="42.210225" lon="18.9366229"><ele>86.0</ele><time>2026-05-04T07:22:33.671Z</time></trkpt><trkpt lat="42.2102217" lon="18.9364056"><ele>86.0</ele><time>2026-05-04T07:22:34.671Z</time></trkpt><trkpt lat="42.2102114" lon="18.9361709"><ele>86.33333333333334</ele><time>2026-05-04T07:22:35.67Z</time></trkpt><trkpt lat="42.2101899" lon="18.9359039"><ele>86.66666666666667</ele><time>2026-05-04T07:22:36.67Z</time></trkpt><trkpt lat="42.210168" lon="18.9356283"><ele>87.0</ele><time>2026-05-04T07:22:37.67Z</time></trkpt><trkpt lat="42.2101029" lon="18.9353502"><ele>94.5</ele><time>2026-05-04T07:22:38.67Z</time></trkpt><trkpt lat="42.2100238" lon="18.9350443"><ele>102.0</ele><time>2026-05-04T07:22:39.671Z</time></trkpt><trkpt lat="42.2099625" lon="18.934764"><ele>102.0</ele><time>2026-05-04T07:22:40.67Z</time></trkpt><trkpt lat="42.20991" lon="18.934493"><ele>102.0</ele><time>2026-05-04T07:22:41.671Z</time></trkpt><trkpt lat="42.2098462" lon="18.9342321"><ele>102.0</ele><time>2026-05-04T07:22:42.671Z</time></trkpt><trkpt lat="42.2097921" lon="18.9339809"><ele>100.33333333333334</ele><time>2026-05-04T07:22:43.67Z</time></trkpt><trkpt lat="42.2097376" lon="18.9337485"><ele>98.66666666666667</ele><time>2026-05-04T07:22:44.671Z</time></trkpt><trkpt lat="42.2096711" lon="18.9335382"><ele>97.0</ele><time>2026-05-04T07:22:45.671Z</time></trkpt><trkpt lat="42.2095848" lon="18.9333383"><ele>97.0</ele><time>2026-05-04T07:22:46.67Z</time></trkpt><trkpt lat="42.2094845" lon="18.9331632"><ele>97.0</ele><time>2026-05-04T07:22:47.67Z</time></trkpt><trkpt lat="42.2093649" lon="18.9330013"><ele>97.0</ele><time>2026-05-04T07:22:48.67Z</time></trkpt><trkpt lat="42.2092316" lon="18.9328394"><ele>97.0</ele><time>2026-05-04T07:22:49.67Z</time></trkpt><trkpt lat="42.2091082" lon="18.9326878"><ele>97.0</ele><time>2026-05-04T07:22:50.67Z</time></trkpt><trkpt lat="42.2090024" lon="18.93254"><ele>97.0</ele><time>2026-05-04T07:22:51.671Z</time></trkpt><trkpt lat="42.2089098" lon="18.9323843"><ele>97.25</ele><time>2026-05-04T07:22:52.67Z</time></trkpt><trkpt lat="42.2088315" lon="18.9322319"><ele>97.5</ele><time>2026-05-04T07:22:53.67Z</time></trkpt><trkpt lat="42.2087793" lon="18.9320731"><ele>97.75</ele><time>2026-05-04T07:22:54.671Z</time></trkpt><trkpt lat="42.2087471" lon="18.9318975"><ele>98.0</ele><time>2026-05-04T07:22:55.67Z</time></trkpt><trkpt lat="42.2087309" lon="18.9317024"><ele>98.0</ele><time>2026-05-04T07:22:56.67Z</time></trkpt><trkpt lat="42.2087181" lon="18.9314962"><ele>98.0</ele><time>2026-05-04T07:22:57.67Z</time></trkpt><trkpt lat="42.2087102" lon="18.9312904"><ele>98.0</ele><time>2026-05-04T07:22:58.67Z</time></trkpt><trkpt lat="42.2087051" lon="18.9310895"><ele>98.0</ele><time>2026-05-04T07:22:59.67Z</time></trkpt><trkpt lat="42.2086997" lon="18.930892"><ele>98.0</ele><time>2026-05-04T07:23:00.671Z</time></trkpt><trkpt lat="42.2086676" lon="18.9307124"><ele>98.0</ele><time>2026-05-04T07:23:01.671Z</time></trkpt><trkpt lat="42.2086193" lon="18.930542"><ele>98.0</ele><time>2026-05-04T07:23:02.67Z</time></trkpt><trkpt lat="42.2085638" lon="18.930365"><ele>98.25</ele><time>2026-05-04T07:23:03.671Z</time></trkpt><trkpt lat="42.2084864" lon="18.9301989"><ele>98.5</ele><time>2026-05-04T07:23:04.67Z</time></trkpt><trkpt lat="42.2084134" lon="18.9300362"><ele>98.75</ele><time>2026-05-04T07:23:05.671Z</time></trkpt><trkpt lat="42.2083489" lon="18.9298807"><ele>99.0</ele><time>2026-05-04T07:23:06.671Z</time></trkpt><trkpt lat="42.2082871" lon="18.9297079"><ele>103.25</ele><time>2026-05-04T07:23:07.67Z</time></trkpt><trkpt lat="42.208242" lon="18.9295269"><ele>107.5</ele><time>2026-05-04T07:23:08.671Z</time></trkpt><trkpt lat="42.2082119" lon="18.9293393"><ele>111.75</ele><time>2026-05-04T07:23:09.671Z</time></trkpt><trkpt lat="42.2082015" lon="18.9291533"><ele>116.0</ele><time>2026-05-04T07:23:10.671Z</time></trkpt><trkpt lat="42.208197" lon="18.9289631"><ele>117.0</ele><time>2026-05-04T07:23:11.671Z</time></trkpt><trkpt lat="42.2081909" lon="18.9287806"><ele>118.0</ele><time>2026-05-04T07:23:12.67Z</time></trkpt><trkpt lat="42.2082082" lon="18.9285943"><ele>119.0</ele><time>2026-05-04T07:23:13.671Z</time></trkpt><trkpt lat="42.2082452" lon="18.9284379"><ele>120.0</ele><time>2026-05-04T07:23:14.67Z</time></trkpt><trkpt lat="42.208301" lon="18.928276"><ele>117.5</ele><time>2026-05-04T07:23:15.67Z</time></trkpt><trkpt lat="42.20838" lon="18.9281261"><ele>115.0</ele><time>2026-05-04T07:23:16.671Z</time></trkpt><trkpt lat="42.2084587" lon="18.927993"><ele>112.5</ele><time>2026-05-04T07:23:17.67Z</time></trkpt><trkpt lat="42.2085531" lon="18.9278895"><ele>110.0</ele><time>2026-05-04T07:23:18.67Z</time></trkpt><trkpt lat="42.2086398" lon="18.9278323"><ele>110.0</ele><time>2026-05-04T07:23:19.671Z</time></trkpt><trkpt lat="42.2087587" lon="18.9277911"><ele>110.0</ele><time>2026-05-04T07:23:20.671Z</time></trkpt><trkpt lat="42.2088895" lon="18.9277681"><ele>110.0</ele><time>2026-05-04T07:23:21.671Z</time></trkpt><trkpt lat="42.2090404" lon="18.9277775"><ele>110.0</ele><time>2026-05-04T07:23:22.671Z</time></trkpt><trkpt lat="42.2091637" lon="18.9278201"><ele>120.25</ele><time>2026-05-04T07:23:23.671Z</time></trkpt><trkpt lat="42.2092864" lon="18.9278678"><ele>130.5</ele><time>2026-05-04T07:23:24.67Z</time></trkpt><trkpt lat="42.2094169" lon="18.9279312"><ele>140.75</ele><time>2026-05-04T07:23:25.67Z</time></trkpt><trkpt lat="42.2095383" lon="18.9279893"><ele>151.0</ele><time>2026-05-04T07:23:26.671Z</time></trkpt><trkpt lat="42.2096513" lon="18.9280661"><ele>151.0</ele><time>2026-05-04T07:23:27.67Z</time></trkpt><trkpt lat="42.2097592" lon="18.9281567"><ele>151.0</ele><time>2026-05-04T07:23:28.671Z</time></trkpt><trkpt lat="42.2098551" lon="18.9282534"><ele>151.0</ele><time>2026-05-04T07:23:29.671Z</time></trkpt><trkpt lat="42.209956" lon="18.9283553"><ele>151.0</ele><time>2026-05-04T07:23:30.671Z</time></trkpt><trkpt lat="42.2100518" lon="18.928479"><ele>156.75</ele><time>2026-05-04T07:23:31.671Z</time></trkpt><trkpt lat="42.2101565" lon="18.9285963"><ele>162.5</ele><time>2026-05-04T07:23:32.67Z</time></trkpt><trkpt lat="42.2102667" lon="18.9286926"><ele>168.25</ele><time>2026-05-04T07:23:33.67Z</time></trkpt><trkpt lat="42.2103903" lon="18.9287727"><ele>174.0</ele><time>2026-05-04T07:23:34.671Z</time></trkpt><trkpt lat="42.2105115" lon="18.9288396"><ele>174.0</ele><time>2026-05-04T07:23:35.671Z</time></trkpt><trkpt lat="42.2106355" lon="18.9289142"><ele>174.0</ele><time>2026-05-04T07:23:36.67Z</time></trkpt><trkpt lat="42.2107677" lon="18.9289848"><ele>174.0</ele><time>2026-05-04T07:23:37.671Z</time></trkpt><trkpt lat="42.2108762" lon="18.9290431"><ele>174.0</ele><time>2026-05-04T07:23:38.67Z</time></trkpt><trkpt lat="42.2109845" lon="18.929124"><ele>169.0</ele><time>2026-05-04T07:23:39.67Z</time></trkpt><trkpt lat="42.2110972" lon="18.9292089"><ele>164.0</ele><time>2026-05-04T07:23:40.671Z</time></trkpt><trkpt lat="42.2112047" lon="18.929282"><ele>159.0</ele><time>2026-05-04T07:23:41.67Z</time></trkpt><trkpt lat="42.2113194" lon="18.9293577"><ele>154.0</ele><time>2026-05-04T07:23:42.671Z</time></trkpt><trkpt lat="42.2114376" lon="18.9294236"><ele>159.5</ele><time>2026-05-04T07:23:43.671Z</time></trkpt><trkpt lat="42.2115567" lon="18.9294922"><ele>165.0</ele><time>2026-05-04T07:23:44.671Z</time></trkpt><trkpt lat="42.2116771" lon="18.9295568"><ele>170.5</ele><time>2026-05-04T07:23:45.671Z</time></trkpt><trkpt lat="42.211802" lon="18.9296259"><ele>176.0</ele><time>2026-05-04T07:23:46.671Z</time></trkpt><trkpt lat="42.2119226" lon="18.9296992"><ele>176.0</ele><time>2026-05-04T07:23:47.671Z</time></trkpt><trkpt lat="42.212041" lon="18.9297794"><ele>176.0</ele><time>2026-05-04T07:23:48.671Z</time></trkpt><trkpt lat="42.2121592" lon="18.9298718"><ele>176.0</ele><time>2026-05-04T07:23:49.671Z</time></trkpt><trkpt lat="42.2122775" lon="18.9299682"><ele>176.0</ele><time>2026-05-04T07:23:50.671Z</time></trkpt><trkpt lat="42.2124018" lon="18.9300846"><ele>177.33333333333331</ele><time>2026-05-04T07:23:51.671Z</time></trkpt><trkpt lat="42.2125238" lon="18.930209"><ele>178.66666666666666</ele><time>2026-05-04T07:23:52.671Z</time></trkpt><trkpt lat="42.2126446" lon="18.9303527"><ele>180.0</ele><time>2026-05-04T07:23:53.671Z</time></trkpt><trkpt lat="42.2127632" lon="18.9304933"><ele>180.0</ele><time>2026-05-04T07:23:54.671Z</time></trkpt><trkpt lat="42.2128802" lon="18.9306339"><ele>180.0</ele><time>2026-05-04T07:23:55.67Z</time></trkpt><trkpt lat="42.2129985" lon="18.9307632"><ele>180.0</ele><time>2026-05-04T07:23:56.67Z</time></trkpt><trkpt lat="42.2131302" lon="18.9308925"><ele>181.33333333333334</ele><time>2026-05-04T07:23:57.671Z</time></trkpt><trkpt lat="42.2132963" lon="18.931025"><ele>182.66666666666669</ele><time>2026-05-04T07:23:58.671Z</time></trkpt><trkpt lat="42.2134734" lon="18.9311498"><ele>184.0</ele><time>2026-05-04T07:23:59.671Z</time></trkpt><trkpt lat="42.2136795" lon="18.931289"><ele>184.0</ele><time>2026-05-04T07:24:00.67Z</time></trkpt><trkpt lat="42.2138778" lon="18.9314223"><ele>184.0</ele><time>2026-05-04T07:24:01.67Z</time></trkpt><trkpt lat="42.2140678" lon="18.9315467"><ele>184.0</ele><time>2026-05-04T07:24:02.67Z</time></trkpt><trkpt lat="42.2142445" lon="18.93164"><ele>187.66666666666669</ele><time>2026-05-04T07:24:03.671Z</time></trkpt><trkpt lat="42.2144184" lon="18.9317263"><ele>191.33333333333334</ele><time>2026-05-04T07:24:04.671Z</time></trkpt><trkpt lat="42.2145765" lon="18.931778"><ele>195.0</ele><time>2026-05-04T07:24:05.671Z</time></trkpt><trkpt lat="42.2147313" lon="18.931813"><ele>188.0</ele><time>2026-05-04T07:24:06.671Z</time></trkpt><trkpt lat="42.2148828" lon="18.9318103"><ele>181.0</ele><time>2026-05-04T07:24:07.671Z</time></trkpt><trkpt lat="42.2150365" lon="18.9317811"><ele>174.0</ele><time>2026-05-04T07:24:08.671Z</time></trkpt><trkpt lat="42.2151862" lon="18.9317287"><ele>168.5</ele><time>2026-05-04T07:24:09.671Z</time></trkpt><trkpt lat="42.2153093" lon="18.9316366"><ele>163.0</ele><time>2026-05-04T07:24:10.671Z</time></trkpt><trkpt lat="42.2154248" lon="18.9315202"><ele>157.5</ele><time>2026-05-04T07:24:11.671Z</time></trkpt><trkpt lat="42.2155134" lon="18.9313622"><ele>152.0</ele><time>2026-05-04T07:24:12.67Z</time></trkpt><trkpt lat="42.2155712" lon="18.93119"><ele>152.0</ele><time>2026-05-04T07:24:13.671Z</time></trkpt><trkpt lat="42.2156103" lon="18.9310102"><ele>152.0</ele><time>2026-05-04T07:24:14.671Z</time></trkpt><trkpt lat="42.2156313" lon="18.9308237"><ele>152.0</ele><time>2026-05-04T07:24:15.671Z</time></trkpt><trkpt lat="42.2156171" lon="18.9306397"><ele>152.0</ele><time>2026-05-04T07:24:16.671Z</time></trkpt><trkpt lat="42.2155757" lon="18.9304655"><ele>150.0</ele><time>2026-05-04T07:24:17.671Z</time></trkpt><trkpt lat="42.2155104" lon="18.9302977"><ele>148.0</ele><time>2026-05-04T07:24:18.671Z</time></trkpt><trkpt lat="42.2154169" lon="18.930128"><ele>146.0</ele><time>2026-05-04T07:24:19.67Z</time></trkpt><trkpt lat="42.2153017" lon="18.9299607"><ele>146.0</ele><time>2026-05-04T07:24:20.67Z</time></trkpt><trkpt lat="42.2151854" lon="18.9298281"><ele>146.0</ele><time>2026-05-04T07:24:21.671Z</time></trkpt><trkpt lat="42.2150983" lon="18.9297054"><ele>146.0</ele><time>2026-05-04T07:24:22.671Z</time></trkpt><trkpt lat="42.2150146" lon="18.9295703"><ele>146.0</ele><time>2026-05-04T07:24:23.67Z</time></trkpt><trkpt lat="42.2149313" lon="18.929424"><ele>146.0</ele><time>2026-05-04T07:24:24.671Z</time></trkpt><trkpt lat="42.2148652" lon="18.9292647"><ele>146.0</ele><time>2026-05-04T07:24:25.671Z</time></trkpt><trkpt lat="42.2148057" lon="18.9291117"><ele>146.0</ele><time>2026-05-04T07:24:26.671Z</time></trkpt><trkpt lat="42.2147975" lon="18.928927"><ele>146.0</ele><time>2026-05-04T07:24:27.671Z</time></trkpt><trkpt lat="42.2147822" lon="18.9287565"><ele>150.5</ele><time>2026-05-04T07:24:28.671Z</time></trkpt><trkpt lat="42.2148116" lon="18.9285846"><ele>155.0</ele><time>2026-05-04T07:24:29.67Z</time></trkpt><trkpt lat="42.2148526" lon="18.9284309"><ele>159.5</ele><time>2026-05-04T07:24:30.67Z</time></trkpt><trkpt lat="42.2149037" lon="18.9282829"><ele>164.0</ele><time>2026-05-04T07:24:31.67Z</time></trkpt><trkpt lat="42.2149961" lon="18.9281423"><ele>164.0</ele><time>2026-05-04T07:24:32.671Z</time></trkpt><trkpt lat="42.2150826" lon="18.9280092"><ele>164.0</ele><time>2026-05-04T07:24:33.671Z</time></trkpt><trkpt lat="42.2151991" lon="18.9278771"><ele>164.0</ele><time>2026-05-04T07:24:34.67Z</time></trkpt><trkpt lat="42.2153222" lon="18.9277547"><ele>164.0</ele><time>2026-05-04T07:24:35.671Z</time></trkpt><trkpt lat="42.2154399" lon="18.9276208"><ele>165.66666666666666</ele><time>2026-05-04T07:24:36.671Z</time></trkpt><trkpt lat="42.2155631" lon="18.927464"><ele>167.33333333333334</ele><time>2026-05-04T07:24:37.67Z</time></trkpt><trkpt lat="42.2156648" lon="18.9273013"><ele>169.0</ele><time>2026-05-04T07:24:38.671Z</time></trkpt><trkpt lat="42.2157468" lon="18.9271284"><ele>169.0</ele><time>2026-05-04T07:24:39.671Z</time></trkpt><trkpt lat="42.2158035" lon="18.9269355"><ele>169.0</ele><time>2026-05-04T07:24:40.67Z</time></trkpt><trkpt lat="42.2158494" lon="18.9267442"><ele>169.0</ele><time>2026-05-04T07:24:41.671Z</time></trkpt><trkpt lat="42.2158803" lon="18.9265485"><ele>167.0</ele><time>2026-05-04T07:24:42.67Z</time></trkpt><trkpt lat="42.215909" lon="18.9263673"><ele>165.0</ele><time>2026-05-04T07:24:43.67Z</time></trkpt><trkpt lat="42.2159273" lon="18.926183"><ele>163.0</ele><time>2026-05-04T07:24:44.671Z</time></trkpt><trkpt lat="42.2159407" lon="18.9260015"><ele>161.0</ele><time>2026-05-04T07:24:45.671Z</time></trkpt><trkpt lat="42.2159525" lon="18.9258276"><ele>158.75</ele><time>2026-05-04T07:24:46.671Z</time></trkpt><trkpt lat="42.2159615" lon="18.9256574"><ele>156.5</ele><time>2026-05-04T07:24:47.671Z</time></trkpt><trkpt lat="42.2159811" lon="18.9255021"><ele>154.25</ele><time>2026-05-04T07:24:48.671Z</time></trkpt><trkpt lat="42.2159991" lon="18.9253463"><ele>152.0</ele><time>2026-05-04T07:24:49.671Z</time></trkpt><trkpt lat="42.2160171" lon="18.9251951"><ele>150.75</ele><time>2026-05-04T07:24:50.671Z</time></trkpt><trkpt lat="42.2160363" lon="18.9250435"><ele>149.5</ele><time>2026-05-04T07:24:51.67Z</time></trkpt><trkpt lat="42.2160547" lon="18.9248949"><ele>148.25</ele><time>2026-05-04T07:24:52.67Z</time></trkpt><trkpt lat="42.2160729" lon="18.9247437"><ele>147.0</ele><time>2026-05-04T07:24:53.671Z</time></trkpt><trkpt lat="42.2160947" lon="18.9245868"><ele>147.0</ele><time>2026-05-04T07:24:54.671Z</time></trkpt><trkpt lat="42.2161115" lon="18.9244316"><ele>147.0</ele><time>2026-05-04T07:24:55.67Z</time></trkpt><trkpt lat="42.2161227" lon="18.9242713"><ele>147.0</ele><time>2026-05-04T07:24:56.671Z</time></trkpt><trkpt lat="42.2161196" lon="18.924106"><ele>147.0</ele><time>2026-05-04T07:24:57.671Z</time></trkpt><trkpt lat="42.216117" lon="18.9239421"><ele>146.75</ele><time>2026-05-04T07:24:58.671Z</time></trkpt><trkpt lat="42.2161039" lon="18.9237825"><ele>146.5</ele><time>2026-05-04T07:24:59.671Z</time></trkpt><trkpt lat="42.2160813" lon="18.923627"><ele>146.25</ele><time>2026-05-04T07:25:00.67Z</time></trkpt><trkpt lat="42.2160569" lon="18.9234687"><ele>146.0</ele><time>2026-05-04T07:25:01.671Z</time></trkpt><trkpt lat="42.2160437" lon="18.923309"><ele>146.75</ele><time>2026-05-04T07:25:02.671Z</time></trkpt><trkpt lat="42.2160319" lon="18.9231434"><ele>147.5</ele><time>2026-05-04T07:25:03.671Z</time></trkpt><trkpt lat="42.2160271" lon="18.92297"><ele>148.25</ele><time>2026-05-04T07:25:04.671Z</time></trkpt><trkpt lat="42.2160297" lon="18.9228013"><ele>149.0</ele><time>2026-05-04T07:25:05.67Z</time></trkpt><trkpt lat="42.2160659" lon="18.9226441"><ele>149.75</ele><time>2026-05-04T07:25:06.671Z</time></trkpt><trkpt lat="42.2160872" lon="18.9224859"><ele>150.5</ele><time>2026-05-04T07:25:07.671Z</time></trkpt><trkpt lat="42.216117" lon="18.9223163"><ele>151.25</ele><time>2026-05-04T07:25:08.67Z</time></trkpt><trkpt lat="42.2161521" lon="18.922157"><ele>152.0</ele><time>2026-05-04T07:25:09.671Z</time></trkpt><trkpt lat="42.2161997" lon="18.9219915"><ele>152.0</ele><time>2026-05-04T07:25:10.67Z</time></trkpt><trkpt lat="42.21625" lon="18.9218379"><ele>152.0</ele><time>2026-05-04T07:25:11.671Z</time></trkpt><trkpt lat="42.2163103" lon="18.921686"><ele>152.0</ele><time>2026-05-04T07:25:12.671Z</time></trkpt><trkpt lat="42.2163744" lon="18.9215434"><ele>152.0</ele><time>2026-05-04T07:25:13.671Z</time></trkpt><trkpt lat="42.2164429" lon="18.9214015"><ele>151.75</ele><time>2026-05-04T07:25:14.671Z</time></trkpt><trkpt lat="42.2165204" lon="18.9212569"><ele>151.5</ele><time>2026-05-04T07:25:15.671Z</time></trkpt><trkpt lat="42.216594" lon="18.9211295"><ele>151.25</ele><time>2026-05-04T07:25:16.67Z</time></trkpt><trkpt lat="42.2166678" lon="18.921009"><ele>151.0</ele><time>2026-05-04T07:25:17.671Z</time></trkpt><trkpt lat="42.2167462" lon="18.9209053"><ele>148.5</ele><time>2026-05-04T07:25:18.67Z</time></trkpt><trkpt lat="42.2168349" lon="18.9208076"><ele>146.0</ele><time>2026-05-04T07:25:19.67Z</time></trkpt><trkpt lat="42.2169264" lon="18.9207053"><ele>143.5</ele><time>2026-05-04T07:25:20.67Z</time></trkpt><trkpt lat="42.2170238" lon="18.9206023"><ele>141.0</ele><time>2026-05-04T07:25:21.671Z</time></trkpt><trkpt lat="42.2171231" lon="18.9205125"><ele>141.0</ele><time>2026-05-04T07:25:22.671Z</time></trkpt><trkpt lat="42.2172242" lon="18.9204166"><ele>141.0</ele><time>2026-05-04T07:25:23.671Z</time></trkpt><trkpt lat="42.2173253" lon="18.9203177"><ele>141.0</ele><time>2026-05-04T07:25:24.671Z</time></trkpt><trkpt lat="42.2174202" lon="18.9201982"><ele>141.0</ele><time>2026-05-04T07:25:25.67Z</time></trkpt><trkpt lat="42.2175045" lon="18.9200882"><ele>141.0</ele><time>2026-05-04T07:25:26.67Z</time></trkpt><trkpt lat="42.2175866" lon="18.9199588"><ele>141.0</ele><time>2026-05-04T07:25:27.671Z</time></trkpt><trkpt lat="42.2176643" lon="18.9197834"><ele>141.0</ele><time>2026-05-04T07:25:28.67Z</time></trkpt><trkpt lat="42.2177434" lon="18.9195571"><ele>141.0</ele><time>2026-05-04T07:25:29.67Z</time></trkpt><trkpt lat="42.2178114" lon="18.9193239"><ele>141.0</ele><time>2026-05-04T07:25:30.671Z</time></trkpt><trkpt lat="42.2178877" lon="18.9190888"><ele>141.0</ele><time>2026-05-04T07:25:31.67Z</time></trkpt><trkpt lat="42.2179544" lon="18.9188641"><ele>140.25</ele><time>2026-05-04T07:25:32.67Z</time></trkpt><trkpt lat="42.218017" lon="18.9186572"><ele>139.5</ele><time>2026-05-04T07:25:33.671Z</time></trkpt><trkpt lat="42.2180737" lon="18.9184744"><ele>138.75</ele><time>2026-05-04T07:25:34.671Z</time></trkpt><trkpt lat="42.2181191" lon="18.9183251"><ele>138.0</ele><time>2026-05-04T07:25:35.671Z</time></trkpt><trkpt lat="42.2181587" lon="18.9181951"><ele>138.0</ele><time>2026-05-04T07:25:36.671Z</time></trkpt><trkpt lat="42.2181949" lon="18.9180711"><ele>138.0</ele><time>2026-05-04T07:25:37.671Z</time></trkpt><trkpt lat="42.2182319" lon="18.9179441"><ele>138.0</ele><time>2026-05-04T07:25:38.67Z</time></trkpt><trkpt lat="42.2182708" lon="18.9178137"><ele>138.0</ele><time>2026-05-04T07:25:39.671Z</time></trkpt><trkpt lat="42.2183115" lon="18.9176815"><ele>138.0</ele><time>2026-05-04T07:25:40.671Z</time></trkpt><trkpt lat="42.2183552" lon="18.9175502"><ele>136.6</ele><time>2026-05-04T07:25:41.67Z</time></trkpt><trkpt lat="42.2184033" lon="18.9174137"><ele>135.20000000000002</ele><time>2026-05-04T07:25:42.67Z</time></trkpt><trkpt lat="42.2184471" lon="18.9172821"><ele>133.8</ele><time>2026-05-04T07:25:43.67Z</time></trkpt><trkpt lat="42.2184964" lon="18.9171509"><ele>132.4</ele><time>2026-05-04T07:25:44.671Z</time></trkpt><trkpt lat="42.2185538" lon="18.9170223"><ele>131.0</ele><time>2026-05-04T07:25:45.671Z</time></trkpt><trkpt lat="42.2186094" lon="18.9168909"><ele>131.0</ele><time>2026-05-04T07:25:46.671Z</time></trkpt><trkpt lat="42.2186746" lon="18.9167567"><ele>131.0</ele><time>2026-05-04T07:25:47.67Z</time></trkpt><trkpt lat="42.2187378" lon="18.916608"><ele>131.0</ele><time>2026-05-04T07:25:48.671Z</time></trkpt><trkpt lat="42.2188008" lon="18.9164751"><ele>131.0</ele><time>2026-05-04T07:25:49.67Z</time></trkpt><trkpt lat="42.2188735" lon="18.9163532"><ele>130.75</ele><time>2026-05-04T07:25:50.67Z</time></trkpt><trkpt lat="42.2189467" lon="18.9162361"><ele>130.5</ele><time>2026-05-04T07:25:51.671Z</time></trkpt><trkpt lat="42.2190148" lon="18.9161161"><ele>130.25</ele><time>2026-05-04T07:25:52.67Z</time></trkpt><trkpt lat="42.2190888" lon="18.9159856"><ele>130.0</ele><time>2026-05-04T07:25:53.67Z</time></trkpt><trkpt lat="42.2191604" lon="18.9158461"><ele>130.0</ele><time>2026-05-04T07:25:54.671Z</time></trkpt><trkpt lat="42.2192392" lon="18.9157117"><ele>130.0</ele><time>2026-05-04T07:25:55.67Z</time></trkpt><trkpt lat="42.2193206" lon="18.9155641"><ele>130.0</ele><time>2026-05-04T07:25:56.67Z</time></trkpt><trkpt lat="42.2194083" lon="18.9153902"><ele>130.0</ele><time>2026-05-04T07:25:57.671Z</time></trkpt><trkpt lat="42.2195028" lon="18.9151876"><ele>126.33333333333334</ele><time>2026-05-04T07:25:58.671Z</time></trkpt><trkpt lat="42.2195997" lon="18.9149722"><ele>122.66666666666666</ele><time>2026-05-04T07:25:59.671Z</time></trkpt><trkpt lat="42.2196904" lon="18.9147615"><ele>119.0</ele><time>2026-05-04T07:26:00.671Z</time></trkpt><trkpt lat="42.2197712" lon="18.9145645"><ele>121.66666666666666</ele><time>2026-05-04T07:26:01.671Z</time></trkpt><trkpt lat="42.2198453" lon="18.9143702"><ele>124.33333333333334</ele><time>2026-05-04T07:26:02.67Z</time></trkpt><trkpt lat="42.2199237" lon="18.9141672"><ele>127.0</ele><time>2026-05-04T07:26:03.671Z</time></trkpt><trkpt lat="42.2199917" lon="18.9139703"><ele>127.0</ele><time>2026-05-04T07:26:04.671Z</time></trkpt><trkpt lat="42.2200568" lon="18.9137414"><ele>127.0</ele><time>2026-05-04T07:26:05.671Z</time></trkpt><trkpt lat="42.2201232" lon="18.9135224"><ele>127.0</ele><time>2026-05-04T07:26:06.67Z</time></trkpt><trkpt lat="42.220186" lon="18.9133197"><ele>125.25</ele><time>2026-05-04T07:26:07.671Z</time></trkpt><trkpt lat="42.2202431" lon="18.9131449"><ele>123.5</ele><time>2026-05-04T07:26:08.671Z</time></trkpt><trkpt lat="42.2202996" lon="18.9129832"><ele>121.75</ele><time>2026-05-04T07:26:09.671Z</time></trkpt><trkpt lat="42.2203453" lon="18.912836"><ele>120.0</ele><time>2026-05-04T07:26:10.671Z</time></trkpt><trkpt lat="42.2203861" lon="18.9127001"><ele>118.2</ele><time>2026-05-04T07:26:11.67Z</time></trkpt><trkpt lat="42.2204277" lon="18.9125709"><ele>116.4</ele><time>2026-05-04T07:26:12.671Z</time></trkpt><trkpt lat="42.2204716" lon="18.9124487"><ele>114.6</ele><time>2026-05-04T07:26:13.671Z</time></trkpt><trkpt lat="42.2205193" lon="18.9123258"><ele>112.8</ele><time>2026-05-04T07:26:14.671Z</time></trkpt><trkpt lat="42.2205751" lon="18.9121994"><ele>111.0</ele><time>2026-05-04T07:26:15.67Z</time></trkpt><trkpt lat="42.2206653" lon="18.9120758"><ele>113.5</ele><time>2026-05-04T07:26:16.671Z</time></trkpt><trkpt lat="42.2207532" lon="18.9119515"><ele>116.0</ele><time>2026-05-04T07:26:17.67Z</time></trkpt><trkpt lat="42.2208547" lon="18.9118381"><ele>118.5</ele><time>2026-05-04T07:26:18.671Z</time></trkpt><trkpt lat="42.2209541" lon="18.9117447"><ele>121.0</ele><time>2026-05-04T07:26:19.671Z</time></trkpt><trkpt lat="42.2210614" lon="18.9116805"><ele>121.0</ele><time>2026-05-04T07:26:20.67Z</time></trkpt><trkpt lat="42.2211743" lon="18.9116343"><ele>121.0</ele><time>2026-05-04T07:26:21.67Z</time></trkpt><trkpt lat="42.221285" lon="18.9116048"><ele>121.0</ele><time>2026-05-04T07:26:22.671Z</time></trkpt><trkpt lat="42.2214006" lon="18.9115936"><ele>121.0</ele><time>2026-05-04T07:26:23.671Z</time></trkpt><trkpt lat="42.2215178" lon="18.9116039"><ele>122.0</ele><time>2026-05-04T07:26:24.671Z</time></trkpt><trkpt lat="42.221641" lon="18.9116257"><ele>123.0</ele><time>2026-05-04T07:26:25.67Z</time></trkpt><trkpt lat="42.2217575" lon="18.9116484"><ele>124.0</ele><time>2026-05-04T07:26:26.671Z</time></trkpt><trkpt lat="42.2218783" lon="18.9116767"><ele>125.0</ele><time>2026-05-04T07:26:27.671Z</time></trkpt><trkpt lat="42.2220046" lon="18.9117002"><ele>125.0</ele><time>2026-05-04T07:26:28.671Z</time></trkpt><trkpt lat="42.2221273" lon="18.9117208"><ele>125.0</ele><time>2026-05-04T07:26:29.671Z</time></trkpt><trkpt lat="42.2222437" lon="18.911741"><ele>125.0</ele><time>2026-05-04T07:26:30.671Z</time></trkpt><trkpt lat="42.2223586" lon="18.9117437"><ele>125.0</ele><time>2026-05-04T07:26:31.671Z</time></trkpt><trkpt lat="42.2224693" lon="18.9117327"><ele>124.25</ele><time>2026-05-04T07:26:32.671Z</time></trkpt><trkpt lat="42.2225815" lon="18.9117063"><ele>123.5</ele><time>2026-05-04T07:26:33.671Z</time></trkpt><trkpt lat="42.2226877" lon="18.9116591"><ele>122.75</ele><time>2026-05-04T07:26:34.671Z</time></trkpt><trkpt lat="42.2227905" lon="18.9115983"><ele>122.0</ele><time>2026-05-04T07:26:35.67Z</time></trkpt><trkpt lat="42.2228938" lon="18.9115299"><ele>122.0</ele><time>2026-05-04T07:26:36.67Z</time></trkpt><trkpt lat="42.2229974" lon="18.9114542"><ele>122.0</ele><time>2026-05-04T07:26:37.671Z</time></trkpt><trkpt lat="42.223102" lon="18.9113766"><ele>122.0</ele><time>2026-05-04T07:26:38.67Z</time></trkpt><trkpt lat="42.2232044" lon="18.9113"><ele>122.0</ele><time>2026-05-04T07:26:39.671Z</time></trkpt><trkpt lat="42.2233037" lon="18.9112265"><ele>123.25</ele><time>2026-05-04T07:26:40.671Z</time></trkpt><trkpt lat="42.2234048" lon="18.9111517"><ele>124.5</ele><time>2026-05-04T07:26:41.67Z</time></trkpt><trkpt lat="42.2235074" lon="18.9110787"><ele>125.75</ele><time>2026-05-04T07:26:42.671Z</time></trkpt><trkpt lat="42.2236122" lon="18.9110073"><ele>127.0</ele><time>2026-05-04T07:26:43.67Z</time></trkpt><trkpt lat="42.2237173" lon="18.9109418"><ele>126.0</ele><time>2026-05-04T07:26:44.67Z</time></trkpt><trkpt lat="42.2238245" lon="18.9108856"><ele>125.0</ele><time>2026-05-04T07:26:45.67Z</time></trkpt><trkpt lat="42.2239372" lon="18.9108415"><ele>124.0</ele><time>2026-05-04T07:26:46.671Z</time></trkpt><trkpt lat="42.224048" lon="18.9108067"><ele>123.0</ele><time>2026-05-04T07:26:47.671Z</time></trkpt><trkpt lat="42.2241599" lon="18.9107706"><ele>123.0</ele><time>2026-05-04T07:26:48.67Z</time></trkpt><trkpt lat="42.224275" lon="18.9107429"><ele>123.0</ele><time>2026-05-04T07:26:49.671Z</time></trkpt><trkpt lat="42.2243904" lon="18.9107269"><ele>123.0</ele><time>2026-05-04T07:26:50.67Z</time></trkpt><trkpt lat="42.22451" lon="18.9107102"><ele>123.0</ele><time>2026-05-04T07:26:51.67Z</time></trkpt><trkpt lat="42.2246297" lon="18.9107045"><ele>123.0</ele><time>2026-05-04T07:26:52.67Z</time></trkpt><trkpt lat="42.2247443" lon="18.9107073"><ele>123.0</ele><time>2026-05-04T07:26:53.671Z</time></trkpt><trkpt lat="42.2248586" lon="18.9107178"><ele>123.0</ele><time>2026-05-04T07:26:54.67Z</time></trkpt><trkpt lat="42.224972" lon="18.910735"><ele>123.0</ele><time>2026-05-04T07:26:55.671Z</time></trkpt><trkpt lat="42.2250879" lon="18.91076"><ele>121.25</ele><time>2026-05-04T07:26:56.671Z</time></trkpt><trkpt lat="42.2252031" lon="18.9107971"><ele>119.5</ele><time>2026-05-04T07:26:57.671Z</time></trkpt><trkpt lat="42.2253173" lon="18.9108421"><ele>117.75</ele><time>2026-05-04T07:26:58.67Z</time></trkpt><trkpt lat="42.2254264" lon="18.9108975"><ele>116.0</ele><time>2026-05-04T07:26:59.67Z</time></trkpt><trkpt lat="42.2255333" lon="18.9109582"><ele>120.0</ele><time>2026-05-04T07:27:00.671Z</time></trkpt><trkpt lat="42.2256362" lon="18.9110242"><ele>124.0</ele><time>2026-05-04T07:27:01.671Z</time></trkpt><trkpt lat="42.2257399" lon="18.9110907"><ele>128.0</ele><time>2026-05-04T07:27:02.671Z</time></trkpt><trkpt lat="42.2258388" lon="18.9111573"><ele>132.0</ele><time>2026-05-04T07:27:03.671Z</time></trkpt><trkpt lat="42.2259286" lon="18.911224"><ele>136.0</ele><time>2026-05-04T07:27:04.67Z</time></trkpt><trkpt lat="42.2260272" lon="18.9113067"><ele>136.0</ele><time>2026-05-04T07:27:05.671Z</time></trkpt><trkpt lat="42.2261282" lon="18.9113809"><ele>136.0</ele><time>2026-05-04T07:27:06.671Z</time></trkpt><trkpt lat="42.226229" lon="18.9114435"><ele>136.0</ele><time>2026-05-04T07:27:07.67Z</time></trkpt><trkpt lat="42.2263311" lon="18.9115135"><ele>136.0</ele><time>2026-05-04T07:27:08.671Z</time></trkpt><trkpt lat="42.2264486" lon="18.9116014"><ele>136.75</ele><time>2026-05-04T07:27:09.671Z</time></trkpt><trkpt lat="42.2265604" lon="18.9116849"><ele>137.5</ele><time>2026-05-04T07:27:10.671Z</time></trkpt><trkpt lat="42.2266722" lon="18.9117598"><ele>138.25</ele><time>2026-05-04T07:27:11.67Z</time></trkpt><trkpt lat="42.2267892" lon="18.9118146"><ele>139.0</ele><time>2026-05-04T07:27:12.671Z</time></trkpt><trkpt lat="42.2269094" lon="18.9118492"><ele>139.0</ele><time>2026-05-04T07:27:13.671Z</time></trkpt><trkpt lat="42.2270367" lon="18.9118736"><ele>139.0</ele><time>2026-05-04T07:27:14.67Z</time></trkpt><trkpt lat="42.22717" lon="18.9118839"><ele>139.0</ele><time>2026-05-04T07:27:15.671Z</time></trkpt><trkpt lat="42.2273055" lon="18.9118822"><ele>139.0</ele><time>2026-05-04T07:27:16.67Z</time></trkpt><trkpt lat="42.2274453" lon="18.9118777"><ele>134.25</ele><time>2026-05-04T07:27:17.67Z</time></trkpt><trkpt lat="42.2275832" lon="18.9118657"><ele>129.5</ele><time>2026-05-04T07:27:18.671Z</time></trkpt><trkpt lat="42.2277172" lon="18.9118439"><ele>124.75</ele><time>2026-05-04T07:27:19.671Z</time></trkpt><trkpt lat="42.2278449" lon="18.9118203"><ele>120.0</ele><time>2026-05-04T07:27:20.671Z</time></trkpt><trkpt lat="42.2279683" lon="18.9117871"><ele>120.0</ele><time>2026-05-04T07:27:21.671Z</time></trkpt><trkpt lat="42.2280865" lon="18.9117464"><ele>120.0</ele><time>2026-05-04T07:27:22.67Z</time></trkpt><trkpt lat="42.2281985" lon="18.9116967"><ele>120.0</ele><time>2026-05-04T07:27:23.67Z</time></trkpt><trkpt lat="42.2283019" lon="18.9116436"><ele>120.0</ele><time>2026-05-04T07:27:24.67Z</time></trkpt><trkpt lat="42.2283965" lon="18.9115821"><ele>115.4</ele><time>2026-05-04T07:27:25.671Z</time></trkpt><trkpt lat="42.228492" lon="18.9115198"><ele>110.8</ele><time>2026-05-04T07:27:26.67Z</time></trkpt><trkpt lat="42.2285856" lon="18.9114502"><ele>106.19999999999999</ele><time>2026-05-04T07:27:27.671Z</time></trkpt><trkpt lat="42.2286843" lon="18.9113696"><ele>101.6</ele><time>2026-05-04T07:27:28.67Z</time></trkpt><trkpt lat="42.22878" lon="18.9112798"><ele>97.0</ele><time>2026-05-04T07:27:29.671Z</time></trkpt><trkpt lat="42.2288759" lon="18.9111792"><ele>97.0</ele><time>2026-05-04T07:27:30.67Z</time></trkpt><trkpt lat="42.2289708" lon="18.9110632"><ele>97.0</ele><time>2026-05-04T07:27:31.67Z</time></trkpt><trkpt lat="42.2290624" lon="18.9109393"><ele>97.0</ele><time>2026-05-04T07:27:32.671Z</time></trkpt><trkpt lat="42.2291529" lon="18.9108083"><ele>97.0</ele><time>2026-05-04T07:27:33.67Z</time></trkpt><trkpt lat="42.2292343" lon="18.9106745"><ele>96.0</ele><time>2026-05-04T07:27:34.67Z</time></trkpt><trkpt lat="42.2293103" lon="18.9105378"><ele>95.0</ele><time>2026-05-04T07:27:35.67Z</time></trkpt><trkpt lat="42.2293775" lon="18.9103995"><ele>94.0</ele><time>2026-05-04T07:27:36.67Z</time></trkpt><trkpt lat="42.2294378" lon="18.9102592"><ele>93.0</ele><time>2026-05-04T07:27:37.67Z</time></trkpt><trkpt lat="42.229497" lon="18.9101189"><ele>91.25</ele><time>2026-05-04T07:27:38.67Z</time></trkpt><trkpt lat="42.2295555" lon="18.9099808"><ele>89.5</ele><time>2026-05-04T07:27:39.67Z</time></trkpt><trkpt lat="42.2296131" lon="18.9098405"><ele>87.75</ele><time>2026-05-04T07:27:40.67Z</time></trkpt><trkpt lat="42.2296688" lon="18.9096997"><ele>86.0</ele><time>2026-05-04T07:27:41.671Z</time></trkpt><trkpt lat="42.2297282" lon="18.9095611"><ele>86.0</ele><time>2026-05-04T07:27:42.67Z</time></trkpt><trkpt lat="42.2297891" lon="18.9094223"><ele>86.0</ele><time>2026-05-04T07:27:43.67Z</time></trkpt><trkpt lat="42.229851" lon="18.9092916"><ele>86.0</ele><time>2026-05-04T07:27:44.671Z</time></trkpt><trkpt lat="42.2299179" lon="18.9091685"><ele>86.0</ele><time>2026-05-04T07:27:45.671Z</time></trkpt><trkpt lat="42.2299855" lon="18.9090579"><ele>89.6</ele><time>2026-05-04T07:27:46.67Z</time></trkpt><trkpt lat="42.2300607" lon="18.908958"><ele>93.19999999999999</ele><time>2026-05-04T07:27:47.67Z</time></trkpt><trkpt lat="42.230153" lon="18.9088731"><ele>96.80000000000001</ele><time>2026-05-04T07:27:48.671Z</time></trkpt><trkpt lat="42.230252" lon="18.9088049"><ele>100.4</ele><time>2026-05-04T07:27:49.671Z</time></trkpt><trkpt lat="42.2303669" lon="18.9087535"><ele>104.0</ele><time>2026-05-04T07:27:50.67Z</time></trkpt><trkpt lat="42.2304786" lon="18.9087222"><ele>104.0</ele><time>2026-05-04T07:27:51.671Z</time></trkpt><trkpt lat="42.2305926" lon="18.9087007"><ele>104.0</ele><time>2026-05-04T07:27:52.671Z</time></trkpt><trkpt lat="42.2307146" lon="18.9086874"><ele>104.0</ele><time>2026-05-04T07:27:53.671Z</time></trkpt><trkpt lat="42.2308378" lon="18.9086798"><ele>104.0</ele><time>2026-05-04T07:27:54.671Z</time></trkpt><trkpt lat="42.2309601" lon="18.9086766"><ele>106.0</ele><time>2026-05-04T07:27:55.671Z</time></trkpt><trkpt lat="42.2310779" lon="18.908678"><ele>108.0</ele><time>2026-05-04T07:27:56.671Z</time></trkpt><trkpt lat="42.2311921" lon="18.9086857"><ele>110.0</ele><time>2026-05-04T07:27:57.67Z</time></trkpt><trkpt lat="42.2313151" lon="18.9087012"><ele>112.0</ele><time>2026-05-04T07:27:58.671Z</time></trkpt><trkpt lat="42.2314219" lon="18.9087223"><ele>111.25</ele><time>2026-05-04T07:27:59.671Z</time></trkpt><trkpt lat="42.2315351" lon="18.908749"><ele>110.5</ele><time>2026-05-04T07:28:00.671Z</time></trkpt><trkpt lat="42.2316466" lon="18.908779"><ele>109.75</ele><time>2026-05-04T07:28:01.671Z</time></trkpt><trkpt lat="42.2317669" lon="18.9088133"><ele>109.0</ele><time>2026-05-04T07:28:02.67Z</time></trkpt><trkpt lat="42.231887" lon="18.9088371"><ele>109.0</ele><time>2026-05-04T07:28:03.671Z</time></trkpt><trkpt lat="42.2320118" lon="18.9088539"><ele>109.0</ele><time>2026-05-04T07:28:04.67Z</time></trkpt><trkpt lat="42.23214" lon="18.9088717"><ele>109.0</ele><time>2026-05-04T07:28:05.67Z</time></trkpt><trkpt lat="42.2322734" lon="18.9088754"><ele>109.0</ele><time>2026-05-04T07:28:06.671Z</time></trkpt><trkpt lat="42.2324082" lon="18.9088744"><ele>111.0</ele><time>2026-05-04T07:28:07.671Z</time></trkpt><trkpt lat="42.2325391" lon="18.9088618"><ele>113.0</ele><time>2026-05-04T07:28:08.67Z</time></trkpt><trkpt lat="42.2326685" lon="18.9088415"><ele>115.0</ele><time>2026-05-04T07:28:09.671Z</time></trkpt><trkpt lat="42.2327981" lon="18.9088107"><ele>117.0</ele><time>2026-05-04T07:28:10.671Z</time></trkpt><trkpt lat="42.2329163" lon="18.9087595"><ele>117.0</ele><time>2026-05-04T07:28:11.671Z</time></trkpt><trkpt lat="42.2330281" lon="18.9086897"><ele>117.0</ele><time>2026-05-04T07:28:12.67Z</time></trkpt><trkpt lat="42.2331378" lon="18.9086015"><ele>117.0</ele><time>2026-05-04T07:28:13.67Z</time></trkpt><trkpt lat="42.2332426" lon="18.9085102"><ele>117.0</ele><time>2026-05-04T07:28:14.671Z</time></trkpt><trkpt lat="42.2333387" lon="18.9084139"><ele>113.0</ele><time>2026-05-04T07:28:15.671Z</time></trkpt><trkpt lat="42.2334303" lon="18.9083149"><ele>109.0</ele><time>2026-05-04T07:28:16.67Z</time></trkpt><trkpt lat="42.2335253" lon="18.9082195"><ele>105.0</ele><time>2026-05-04T07:28:17.671Z</time></trkpt><trkpt lat="42.233626" lon="18.9081237"><ele>101.0</ele><time>2026-05-04T07:28:18.671Z</time></trkpt><trkpt lat="42.2337178" lon="18.9080282"><ele>101.0</ele><time>2026-05-04T07:28:19.671Z</time></trkpt><trkpt lat="42.2338132" lon="18.9079382"><ele>101.0</ele><time>2026-05-04T07:28:20.67Z</time></trkpt><trkpt lat="42.233911" lon="18.9078618"><ele>101.0</ele><time>2026-05-04T07:28:21.67Z</time></trkpt><trkpt lat="42.2340148" lon="18.9078028"><ele>101.0</ele><time>2026-05-04T07:28:22.67Z</time></trkpt><trkpt lat="42.2341273" lon="18.9077576"><ele>105.75</ele><time>2026-05-04T07:28:23.671Z</time></trkpt><trkpt lat="42.2342397" lon="18.9077209"><ele>110.5</ele><time>2026-05-04T07:28:24.671Z</time></trkpt><trkpt lat="42.2343555" lon="18.9077062"><ele>115.25</ele><time>2026-05-04T07:28:25.67Z</time></trkpt><trkpt lat="42.234479" lon="18.907706"><ele>120.0</ele><time>2026-05-04T07:28:26.671Z</time></trkpt><trkpt lat="42.234598" lon="18.9077047"><ele>120.0</ele><time>2026-05-04T07:28:27.671Z</time></trkpt><trkpt lat="42.2347179" lon="18.9077048"><ele>120.0</ele><time>2026-05-04T07:28:28.671Z</time></trkpt><trkpt lat="42.2348355" lon="18.9077022"><ele>120.0</ele><time>2026-05-04T07:28:29.671Z</time></trkpt><trkpt lat="42.2349506" lon="18.9076995"><ele>120.0</ele><time>2026-05-04T07:28:30.67Z</time></trkpt><trkpt lat="42.2350567" lon="18.9076785"><ele>122.8</ele><time>2026-05-04T07:28:31.671Z</time></trkpt><trkpt lat="42.2351623" lon="18.9076439"><ele>125.6</ele><time>2026-05-04T07:28:32.67Z</time></trkpt><trkpt lat="42.2352703" lon="18.9075882"><ele>128.4</ele><time>2026-05-04T07:28:33.67Z</time></trkpt><trkpt lat="42.2353677" lon="18.9075185"><ele>131.2</ele><time>2026-05-04T07:28:34.671Z</time></trkpt><trkpt lat="42.2354622" lon="18.9074305"><ele>134.0</ele><time>2026-05-04T07:28:35.671Z</time></trkpt><trkpt lat="42.2355533" lon="18.9073314"><ele>128.75</ele><time>2026-05-04T07:28:36.671Z</time></trkpt><trkpt lat="42.235644" lon="18.9072294"><ele>123.5</ele><time>2026-05-04T07:28:37.67Z</time></trkpt><trkpt lat="42.2357327" lon="18.9071316"><ele>118.25</ele><time>2026-05-04T07:28:38.67Z</time></trkpt><trkpt lat="42.2358264" lon="18.9070275"><ele>113.0</ele><time>2026-05-04T07:28:39.67Z</time></trkpt><trkpt lat="42.2359181" lon="18.9069382"><ele>113.0</ele><time>2026-05-04T07:28:40.67Z</time></trkpt><trkpt lat="42.2360202" lon="18.9068613"><ele>113.0</ele><time>2026-05-04T07:28:41.671Z</time></trkpt><trkpt lat="42.2361251" lon="18.9067936"><ele>113.0</ele><time>2026-05-04T07:28:42.67Z</time></trkpt><trkpt lat="42.2362334" lon="18.9067274"><ele>113.0</ele><time>2026-05-04T07:28:43.67Z</time></trkpt><trkpt lat="42.2363526" lon="18.9066747"><ele>111.0</ele><time>2026-05-04T07:28:44.671Z</time></trkpt><trkpt lat="42.2364654" lon="18.906621"><ele>109.0</ele><time>2026-05-04T07:28:45.671Z</time></trkpt><trkpt lat="42.2365738" lon="18.9065696"><ele>107.0</ele><time>2026-05-04T07:28:46.671Z</time></trkpt><trkpt lat="42.2366806" lon="18.9065214"><ele>105.0</ele><time>2026-05-04T07:28:47.671Z</time></trkpt><trkpt lat="42.2367893" lon="18.9064735"><ele>105.0</ele><time>2026-05-04T07:28:48.67Z</time></trkpt><trkpt lat="42.2368988" lon="18.9064277"><ele>105.0</ele><time>2026-05-04T07:28:49.67Z</time></trkpt><trkpt lat="42.2370083" lon="18.9063809"><ele>105.0</ele><time>2026-05-04T07:28:50.671Z</time></trkpt><trkpt lat="42.2371184" lon="18.9063339"><ele>105.0</ele><time>2026-05-04T07:28:51.67Z</time></trkpt><trkpt lat="42.2372282" lon="18.906292"><ele>106.4</ele><time>2026-05-04T07:28:52.67Z</time></trkpt><trkpt lat="42.237341" lon="18.9062456"><ele>107.8</ele><time>2026-05-04T07:28:53.67Z</time></trkpt><trkpt lat="42.2374511" lon="18.9062008"><ele>109.19999999999999</ele><time>2026-05-04T07:28:54.67Z</time></trkpt><trkpt lat="42.2375571" lon="18.9061618"><ele>110.6</ele><time>2026-05-04T07:28:55.671Z</time></trkpt><trkpt lat="42.2376609" lon="18.9061306"><ele>112.0</ele><time>2026-05-04T07:28:56.671Z</time></trkpt><trkpt lat="42.2377677" lon="18.9061041"><ele>112.0</ele><time>2026-05-04T07:28:57.67Z</time></trkpt><trkpt lat="42.237874" lon="18.906083"><ele>111.99999999999999</ele><time>2026-05-04T07:28:58.67Z</time></trkpt><trkpt lat="42.2379814" lon="18.9060566"><ele>111.99999999999999</ele><time>2026-05-04T07:28:59.67Z</time></trkpt><trkpt lat="42.2380906" lon="18.9060297"><ele>112.0</ele><time>2026-05-04T07:29:00.67Z</time></trkpt><trkpt lat="42.238201" lon="18.9060042"><ele>112.0</ele><time>2026-05-04T07:29:01.67Z</time></trkpt><trkpt lat="42.2383139" lon="18.905975"><ele>110.75</ele><time>2026-05-04T07:29:02.671Z</time></trkpt><trkpt lat="42.2384323" lon="18.9059446"><ele>109.5</ele><time>2026-05-04T07:29:03.671Z</time></trkpt><trkpt lat="42.2385501" lon="18.9059138"><ele>108.25</ele><time>2026-05-04T07:29:04.67Z</time></trkpt><trkpt lat="42.2386705" lon="18.9058827"><ele>107.0</ele><time>2026-05-04T07:29:05.67Z</time></trkpt><trkpt lat="42.2387912" lon="18.9058534"><ele>107.0</ele><time>2026-05-04T07:29:06.671Z</time></trkpt><trkpt lat="42.2389152" lon="18.9058213"><ele>107.0</ele><time>2026-05-04T07:29:07.67Z</time></trkpt><trkpt lat="42.2390399" lon="18.9057876"><ele>107.0</ele><time>2026-05-04T07:29:08.671Z</time></trkpt><trkpt lat="42.2391641" lon="18.9057499"><ele>107.0</ele><time>2026-05-04T07:29:09.671Z</time></trkpt><trkpt lat="42.2392884" lon="18.9057032"><ele>109.0</ele><time>2026-05-04T07:29:10.67Z</time></trkpt><trkpt lat="42.2394117" lon="18.9056511"><ele>111.0</ele><time>2026-05-04T07:29:11.67Z</time></trkpt><trkpt lat="42.2395334" lon="18.9055881"><ele>113.0</ele><time>2026-05-04T07:29:12.671Z</time></trkpt><trkpt lat="42.2396483" lon="18.9055167"><ele>115.0</ele><time>2026-05-04T07:29:13.67Z</time></trkpt><trkpt lat="42.2397611" lon="18.9054316"><ele>114.75</ele><time>2026-05-04T07:29:14.67Z</time></trkpt><trkpt lat="42.2398675" lon="18.9053287"><ele>114.5</ele><time>2026-05-04T07:29:15.67Z</time></trkpt><trkpt lat="42.2399711" lon="18.9052195"><ele>114.25</ele><time>2026-05-04T07:29:16.67Z</time></trkpt><trkpt lat="42.2400746" lon="18.9051037"><ele>114.0</ele><time>2026-05-04T07:29:17.671Z</time></trkpt><trkpt lat="42.2401817" lon="18.9049926"><ele>114.0</ele><time>2026-05-04T07:29:18.671Z</time></trkpt><trkpt lat="42.2402912" lon="18.9048728"><ele>114.0</ele><time>2026-05-04T07:29:19.67Z</time></trkpt><trkpt lat="42.2403988" lon="18.904758"><ele>114.0</ele><time>2026-05-04T07:29:20.67Z</time></trkpt><trkpt lat="42.2405066" lon="18.904643"><ele>114.0</ele><time>2026-05-04T07:29:21.67Z</time></trkpt><trkpt lat="42.2406142" lon="18.9045297"><ele>115.25</ele><time>2026-05-04T07:29:22.67Z</time></trkpt><trkpt lat="42.2407239" lon="18.9044186"><ele>116.5</ele><time>2026-05-04T07:29:23.67Z</time></trkpt><trkpt lat="42.2408333" lon="18.9043168"><ele>117.75</ele><time>2026-05-04T07:29:24.671Z</time></trkpt><trkpt lat="42.2409425" lon="18.9042184"><ele>119.0</ele><time>2026-05-04T07:29:25.671Z</time></trkpt><trkpt lat="42.2410524" lon="18.9041255"><ele>119.0</ele><time>2026-05-04T07:29:26.67Z</time></trkpt><trkpt lat="42.2411633" lon="18.9040383"><ele>119.0</ele><time>2026-05-04T07:29:27.671Z</time></trkpt><trkpt lat="42.2412787" lon="18.9039572"><ele>119.0</ele><time>2026-05-04T07:29:28.67Z</time></trkpt><trkpt lat="42.2413948" lon="18.9038795"><ele>119.0</ele><time>2026-05-04T07:29:29.67Z</time></trkpt><trkpt lat="42.2415139" lon="18.9038072"><ele>120.0</ele><time>2026-05-04T07:29:30.671Z</time></trkpt><trkpt lat="42.2416372" lon="18.9037442"><ele>121.0</ele><time>2026-05-04T07:29:31.671Z</time></trkpt><trkpt lat="42.2417649" lon="18.9036897"><ele>122.0</ele><time>2026-05-04T07:29:32.671Z</time></trkpt><trkpt lat="42.2418932" lon="18.9036398"><ele>123.0</ele><time>2026-05-04T07:29:33.671Z</time></trkpt><trkpt lat="42.2420234" lon="18.9035939"><ele>123.0</ele><time>2026-05-04T07:29:34.671Z</time></trkpt><trkpt lat="42.2421538" lon="18.9035547"><ele>123.0</ele><time>2026-05-04T07:29:35.67Z</time></trkpt><trkpt lat="42.2422846" lon="18.9035258"><ele>123.0</ele><time>2026-05-04T07:29:36.671Z</time></trkpt><trkpt lat="42.2424132" lon="18.9035038"><ele>123.0</ele><time>2026-05-04T07:29:37.671Z</time></trkpt><trkpt lat="42.2425413" lon="18.9034886"><ele>125.25</ele><time>2026-05-04T07:29:38.671Z</time></trkpt><trkpt lat="42.2426689" lon="18.9034731"><ele>127.5</ele><time>2026-05-04T07:29:39.671Z</time></trkpt><trkpt lat="42.2427949" lon="18.9034578"><ele>129.75</ele><time>2026-05-04T07:29:40.671Z</time></trkpt><trkpt lat="42.2429169" lon="18.903442"><ele>132.0</ele><time>2026-05-04T07:29:41.671Z</time></trkpt><trkpt lat="42.243035" lon="18.9034231"><ele>130.0</ele><time>2026-05-04T07:29:42.671Z</time></trkpt><trkpt lat="42.2431501" lon="18.9033947"><ele>128.0</ele><time>2026-05-04T07:29:43.671Z</time></trkpt><trkpt lat="42.2432629" lon="18.9033578"><ele>126.0</ele><time>2026-05-04T07:29:44.67Z</time></trkpt><trkpt lat="42.2433727" lon="18.9033074"><ele>124.0</ele><time>2026-05-04T07:29:45.671Z</time></trkpt><trkpt lat="42.2434794" lon="18.903243"><ele>124.0</ele><time>2026-05-04T07:29:46.671Z</time></trkpt><trkpt lat="42.2435813" lon="18.903172"><ele>124.0</ele><time>2026-05-04T07:29:47.67Z</time></trkpt><trkpt lat="42.2436811" lon="18.9030949"><ele>124.0</ele><time>2026-05-04T07:29:48.67Z</time></trkpt><trkpt lat="42.2437757" lon="18.9030085"><ele>124.0</ele><time>2026-05-04T07:29:49.671Z</time></trkpt><trkpt lat="42.2438707" lon="18.90291"><ele>123.0</ele><time>2026-05-04T07:29:50.671Z</time></trkpt><trkpt lat="42.243964" lon="18.9028055"><ele>122.0</ele><time>2026-05-04T07:29:51.671Z</time></trkpt><trkpt lat="42.2440559" lon="18.9027019"><ele>121.0</ele><time>2026-05-04T07:29:52.67Z</time></trkpt><trkpt lat="42.2441494" lon="18.9026045"><ele>120.0</ele><time>2026-05-04T07:29:53.671Z</time></trkpt><trkpt lat="42.2442465" lon="18.9025143"><ele>120.0</ele><time>2026-05-04T07:29:54.67Z</time></trkpt><trkpt lat="42.2443464" lon="18.9024391"><ele>120.0</ele><time>2026-05-04T07:29:55.67Z</time></trkpt><trkpt lat="42.2444472" lon="18.9023711"><ele>120.0</ele><time>2026-05-04T07:29:56.671Z</time></trkpt><trkpt lat="42.2445533" lon="18.9023412"><ele>120.0</ele><time>2026-05-04T07:29:57.67Z</time></trkpt><trkpt lat="42.2446562" lon="18.9023315"><ele>120.0</ele><time>2026-05-04T07:29:58.671Z</time></trkpt><trkpt lat="42.2447726" lon="18.9023571"><ele>120.5</ele><time>2026-05-04T07:29:59.67Z</time></trkpt><trkpt lat="42.2448841" lon="18.9023919"><ele>121.0</ele><time>2026-05-04T07:30:00.67Z</time></trkpt><trkpt lat="42.244994" lon="18.9024337"><ele>121.5</ele><time>2026-05-04T07:30:01.671Z</time></trkpt><trkpt lat="42.2450996" lon="18.9024847"><ele>122.0</ele><time>2026-05-04T07:30:02.671Z</time></trkpt><trkpt lat="42.2452017" lon="18.9025507"><ele>123.75</ele><time>2026-05-04T07:30:03.67Z</time></trkpt><trkpt lat="42.2453087" lon="18.9026149"><ele>125.5</ele><time>2026-05-04T07:30:04.67Z</time></trkpt><trkpt lat="42.2454173" lon="18.9026734"><ele>127.25</ele><time>2026-05-04T07:30:05.671Z</time></trkpt><trkpt lat="42.2455315" lon="18.9027302"><ele>129.0</ele><time>2026-05-04T07:30:06.67Z</time></trkpt><trkpt lat="42.2456454" lon="18.9027722"><ele>129.0</ele><time>2026-05-04T07:30:07.671Z</time></trkpt><trkpt lat="42.2457617" lon="18.9028088"><ele>129.0</ele><time>2026-05-04T07:30:08.671Z</time></trkpt><trkpt lat="42.2458822" lon="18.902831"><ele>129.0</ele><time>2026-05-04T07:30:09.67Z</time></trkpt><trkpt lat="42.2460083" lon="18.9028423"><ele>129.0</ele><time>2026-05-04T07:30:10.67Z</time></trkpt><trkpt lat="42.2461341" lon="18.9028459"><ele>129.0</ele><time>2026-05-04T07:30:11.671Z</time></trkpt><trkpt lat="42.246263" lon="18.9028486"><ele>129.0</ele><time>2026-05-04T07:30:12.671Z</time></trkpt><trkpt lat="42.2463945" lon="18.9028466"><ele>129.0</ele><time>2026-05-04T07:30:13.67Z</time></trkpt><trkpt lat="42.2465245" lon="18.9028462"><ele>129.0</ele><time>2026-05-04T07:30:14.67Z</time></trkpt><trkpt lat="42.2466528" lon="18.9028488"><ele>127.75</ele><time>2026-05-04T07:30:15.67Z</time></trkpt><trkpt lat="42.2467874" lon="18.9028556"><ele>126.5</ele><time>2026-05-04T07:30:16.671Z</time></trkpt><trkpt lat="42.2469219" lon="18.9028727"><ele>125.25</ele><time>2026-05-04T07:30:17.671Z</time></trkpt><trkpt lat="42.2470441" lon="18.9029012"><ele>124.0</ele><time>2026-05-04T07:30:18.67Z</time></trkpt><trkpt lat="42.2471741" lon="18.9029258"><ele>123.0</ele><time>2026-05-04T07:30:19.67Z</time></trkpt><trkpt lat="42.2473029" lon="18.9029515"><ele>122.0</ele><time>2026-05-04T07:30:20.671Z</time></trkpt><trkpt lat="42.2474383" lon="18.9029798"><ele>121.0</ele><time>2026-05-04T07:30:21.671Z</time></trkpt><trkpt lat="42.2475675" lon="18.9029883"><ele>120.0</ele><time>2026-05-04T07:30:22.67Z</time></trkpt><trkpt lat="42.2476955" lon="18.9029856"><ele>120.0</ele><time>2026-05-04T07:30:23.67Z</time></trkpt><trkpt lat="42.2478215" lon="18.9029656"><ele>120.0</ele><time>2026-05-04T07:30:24.671Z</time></trkpt><trkpt lat="42.2479422" lon="18.9029226"><ele>120.0</ele><time>2026-05-04T07:30:25.671Z</time></trkpt><trkpt lat="42.248059" lon="18.9028569"><ele>120.0</ele><time>2026-05-04T07:30:26.671Z</time></trkpt><trkpt lat="42.2481676" lon="18.902774"><ele>122.0</ele><time>2026-05-04T07:30:27.671Z</time></trkpt><trkpt lat="42.2482709" lon="18.9026783"><ele>124.0</ele><time>2026-05-04T07:30:28.67Z</time></trkpt><trkpt lat="42.2483623" lon="18.9025821"><ele>126.0</ele><time>2026-05-04T07:30:29.67Z</time></trkpt><trkpt lat="42.2484496" lon="18.9024825"><ele>128.0</ele><time>2026-05-04T07:30:30.671Z</time></trkpt><trkpt lat="42.2485303" lon="18.9023798"><ele>123.4</ele><time>2026-05-04T07:30:31.67Z</time></trkpt><trkpt lat="42.2486118" lon="18.9022815"><ele>118.80000000000001</ele><time>2026-05-04T07:30:32.67Z</time></trkpt><trkpt lat="42.2486898" lon="18.9021859"><ele>114.2</ele><time>2026-05-04T07:30:33.67Z</time></trkpt><trkpt lat="42.2487707" lon="18.902092"><ele>109.6</ele><time>2026-05-04T07:30:34.67Z</time></trkpt><trkpt lat="42.2488541" lon="18.9019964"><ele>105.0</ele><time>2026-05-04T07:30:35.671Z</time></trkpt><trkpt lat="42.2489354" lon="18.9019002"><ele>105.4</ele><time>2026-05-04T07:30:36.67Z</time></trkpt><trkpt lat="42.2490191" lon="18.9018055"><ele>105.8</ele><time>2026-05-04T07:30:37.67Z</time></trkpt><trkpt lat="42.2491039" lon="18.9017245"><ele>106.19999999999999</ele><time>2026-05-04T07:30:38.67Z</time></trkpt><trkpt lat="42.2491899" lon="18.9016379"><ele>106.6</ele><time>2026-05-04T07:30:39.671Z</time></trkpt><trkpt lat="42.2492721" lon="18.9015636"><ele>107.0</ele><time>2026-05-04T07:30:40.67Z</time></trkpt><trkpt lat="42.2493608" lon="18.9014883"><ele>107.0</ele><time>2026-05-04T07:30:41.67Z</time></trkpt><trkpt lat="42.2494447" lon="18.9014167"><ele>106.99999999999999</ele><time>2026-05-04T07:30:42.67Z</time></trkpt><trkpt lat="42.2495256" lon="18.9013576"><ele>106.99999999999999</ele><time>2026-05-04T07:30:43.671Z</time></trkpt><trkpt lat="42.2496009" lon="18.901303"><ele>107.0</ele><time>2026-05-04T07:30:44.671Z</time></trkpt><trkpt lat="42.2496767" lon="18.901256"><ele>107.0</ele><time>2026-05-04T07:30:45.671Z</time></trkpt><trkpt lat="42.2497705" lon="18.9012056"><ele>105.6</ele><time>2026-05-04T07:30:46.671Z</time></trkpt><trkpt lat="42.2498499" lon="18.9011466"><ele>104.19999999999999</ele><time>2026-05-04T07:30:47.67Z</time></trkpt><trkpt lat="42.2499392" lon="18.9010808"><ele>102.8</ele><time>2026-05-04T07:30:48.67Z</time></trkpt><trkpt lat="42.250026" lon="18.9010145"><ele>101.4</ele><time>2026-05-04T07:30:49.67Z</time></trkpt><trkpt lat="42.2501272" lon="18.9009468"><ele>100.0</ele><time>2026-05-04T07:30:50.671Z</time></trkpt><trkpt lat="42.2502357" lon="18.9008697"><ele>100.0</ele><time>2026-05-04T07:30:51.671Z</time></trkpt><trkpt lat="42.2503391" lon="18.9007901"><ele>100.0</ele><time>2026-05-04T07:30:52.67Z</time></trkpt><trkpt lat="42.2504537" lon="18.900724"><ele>100.0</ele><time>2026-05-04T07:30:53.67Z</time></trkpt><trkpt lat="42.2505781" lon="18.9006535"><ele>100.0</ele><time>2026-05-04T07:30:54.67Z</time></trkpt><trkpt lat="42.2506932" lon="18.9005895"><ele>103.0</ele><time>2026-05-04T07:30:55.67Z</time></trkpt><trkpt lat="42.2508081" lon="18.900525"><ele>106.0</ele><time>2026-05-04T07:30:56.67Z</time></trkpt><trkpt lat="42.2509247" lon="18.9004655"><ele>109.0</ele><time>2026-05-04T07:30:57.67Z</time></trkpt><trkpt lat="42.2510498" lon="18.9004221"><ele>112.0</ele><time>2026-05-04T07:30:58.671Z</time></trkpt><trkpt lat="42.2511672" lon="18.9003777"><ele>112.0</ele><time>2026-05-04T07:30:59.67Z</time></trkpt><trkpt lat="42.2512825" lon="18.9003299"><ele>112.0</ele><time>2026-05-04T07:31:00.671Z</time></trkpt><trkpt lat="42.2513915" lon="18.900287"><ele>112.0</ele><time>2026-05-04T07:31:01.67Z</time></trkpt><trkpt lat="42.2514964" lon="18.9002491"><ele>112.0</ele><time>2026-05-04T07:31:02.671Z</time></trkpt><trkpt lat="42.2516" lon="18.9002104"><ele>114.6</ele><time>2026-05-04T07:31:03.671Z</time></trkpt><trkpt lat="42.2517" lon="18.900171"><ele>117.19999999999999</ele><time>2026-05-04T07:31:04.67Z</time></trkpt><trkpt lat="42.2518024" lon="18.9001243"><ele>119.8</ele><time>2026-05-04T07:31:05.671Z</time></trkpt><trkpt lat="42.2519012" lon="18.900089"><ele>122.4</ele><time>2026-05-04T07:31:06.67Z</time></trkpt><trkpt lat="42.2520036" lon="18.9000569"><ele>125.0</ele><time>2026-05-04T07:31:07.671Z</time></trkpt><trkpt lat="42.2521098" lon="18.9000263"><ele>117.0</ele><time>2026-05-04T07:31:08.67Z</time></trkpt><trkpt lat="42.2522203" lon="18.9000043"><ele>109.0</ele><time>2026-05-04T07:31:09.671Z</time></trkpt><trkpt lat="42.2523293" lon="18.9000004"><ele>101.0</ele><time>2026-05-04T07:31:10.671Z</time></trkpt><trkpt lat="42.2524496" lon="18.9000071"><ele>93.0</ele><time>2026-05-04T07:31:11.67Z</time></trkpt><trkpt lat="42.2525639" lon="18.900028"><ele>93.0</ele><time>2026-05-04T07:31:12.67Z</time></trkpt><trkpt lat="42.2526757" lon="18.9000537"><ele>93.0</ele><time>2026-05-04T07:31:13.671Z</time></trkpt><trkpt lat="42.2527939" lon="18.9000842"><ele>93.0</ele><time>2026-05-04T07:31:14.67Z</time></trkpt><trkpt lat="42.252913" lon="18.9001285"><ele>93.0</ele><time>2026-05-04T07:31:15.671Z</time></trkpt><trkpt lat="42.2530248" lon="18.9001818"><ele>95.80000000000001</ele><time>2026-05-04T07:31:16.67Z</time></trkpt><trkpt lat="42.2531391" lon="18.9002343"><ele>98.6</ele><time>2026-05-04T07:31:17.67Z</time></trkpt><trkpt lat="42.2532447" lon="18.9002846"><ele>101.39999999999999</ele><time>2026-05-04T07:31:18.67Z</time></trkpt><trkpt lat="42.2533473" lon="18.9003307"><ele>104.19999999999999</ele><time>2026-05-04T07:31:19.67Z</time></trkpt><trkpt lat="42.2534481" lon="18.9003757"><ele>107.0</ele><time>2026-05-04T07:31:20.67Z</time></trkpt><trkpt lat="42.2535423" lon="18.9004206"><ele>107.0</ele><time>2026-05-04T07:31:21.671Z</time></trkpt><trkpt lat="42.2536366" lon="18.9004651"><ele>106.99999999999999</ele><time>2026-05-04T07:31:22.67Z</time></trkpt><trkpt lat="42.2537302" lon="18.9005086"><ele>106.99999999999999</ele><time>2026-05-04T07:31:23.67Z</time></trkpt><trkpt lat="42.2538243" lon="18.9005423"><ele>107.0</ele><time>2026-05-04T07:31:24.67Z</time></trkpt><trkpt lat="42.2539152" lon="18.9005679"><ele>107.0</ele><time>2026-05-04T07:31:25.671Z</time></trkpt><trkpt lat="42.2540116" lon="18.9005873"><ele>104.6</ele><time>2026-05-04T07:31:26.671Z</time></trkpt><trkpt lat="42.2541075" lon="18.9005925"><ele>102.19999999999999</ele><time>2026-05-04T07:31:27.67Z</time></trkpt><trkpt lat="42.2542064" lon="18.9005866"><ele>99.8</ele><time>2026-05-04T07:31:28.671Z</time></trkpt><trkpt lat="42.2543079" lon="18.9005692"><ele>97.4</ele><time>2026-05-04T07:31:29.671Z</time></trkpt><trkpt lat="42.2544156" lon="18.9005287"><ele>95.0</ele><time>2026-05-04T07:31:30.67Z</time></trkpt><trkpt lat="42.2545265" lon="18.9004678"><ele>95.0</ele><time>2026-05-04T07:31:31.671Z</time></trkpt><trkpt lat="42.254632" lon="18.9003919"><ele>95.0</ele><time>2026-05-04T07:31:32.671Z</time></trkpt><trkpt lat="42.2547293" lon="18.9003086"><ele>95.0</ele><time>2026-05-04T07:31:33.671Z</time></trkpt><trkpt lat="42.254823" lon="18.9001997"><ele>95.0</ele><time>2026-05-04T07:31:34.67Z</time></trkpt><trkpt lat="42.2549018" lon="18.9000849"><ele>91.8</ele><time>2026-05-04T07:31:35.671Z</time></trkpt><trkpt lat="42.254978" lon="18.8999765"><ele>88.6</ele><time>2026-05-04T07:31:36.671Z</time></trkpt><trkpt lat="42.2550478" lon="18.8998645"><ele>85.4</ele><time>2026-05-04T07:31:37.671Z</time></trkpt><trkpt lat="42.2551139" lon="18.8997438"><ele>82.2</ele><time>2026-05-04T07:31:38.67Z</time></trkpt><trkpt lat="42.255184" lon="18.8996278"><ele>79.0</ele><time>2026-05-04T07:31:39.67Z</time></trkpt><trkpt lat="42.2552587" lon="18.8995175"><ele>79.0</ele><time>2026-05-04T07:31:40.67Z</time></trkpt><trkpt lat="42.2553265" lon="18.8994056"><ele>79.0</ele><time>2026-05-04T07:31:41.67Z</time></trkpt><trkpt lat="42.2553883" lon="18.8992866"><ele>79.0</ele><time>2026-05-04T07:31:42.671Z</time></trkpt><trkpt lat="42.2554424" lon="18.8991719"><ele>79.0</ele><time>2026-05-04T07:31:43.67Z</time></trkpt><trkpt lat="42.255493" lon="18.8990518"><ele>79.0</ele><time>2026-05-04T07:31:44.671Z</time></trkpt><trkpt lat="42.2555383" lon="18.898934"><ele>77.8</ele><time>2026-05-04T07:31:45.671Z</time></trkpt><trkpt lat="42.2555802" lon="18.8988172"><ele>76.60000000000001</ele><time>2026-05-04T07:31:46.671Z</time></trkpt><trkpt lat="42.2556186" lon="18.8986863"><ele>75.4</ele><time>2026-05-04T07:31:47.67Z</time></trkpt><trkpt lat="42.2556602" lon="18.8985403"><ele>74.2</ele><time>2026-05-04T07:31:48.671Z</time></trkpt><trkpt lat="42.2557013" lon="18.8984079"><ele>73.0</ele><time>2026-05-04T07:31:49.67Z</time></trkpt><trkpt lat="42.2557588" lon="18.8982717"><ele>73.0</ele><time>2026-05-04T07:31:50.67Z</time></trkpt><trkpt lat="42.2558285" lon="18.8981468"><ele>73.0</ele><time>2026-05-04T07:31:51.671Z</time></trkpt><trkpt lat="42.2559071" lon="18.8980304"><ele>73.0</ele><time>2026-05-04T07:31:52.671Z</time></trkpt><trkpt lat="42.2559957" lon="18.8979258"><ele>73.0</ele><time>2026-05-04T07:31:53.67Z</time></trkpt><trkpt lat="42.2560891" lon="18.8978349"><ele>73.0</ele><time>2026-05-04T07:31:54.67Z</time></trkpt><trkpt lat="42.25619" lon="18.8977557"><ele>73.0</ele><time>2026-05-04T07:31:55.671Z</time></trkpt><trkpt lat="42.2562954" lon="18.8976832"><ele>73.0</ele><time>2026-05-04T07:31:56.67Z</time></trkpt><trkpt lat="42.2564041" lon="18.8976104"><ele>73.0</ele><time>2026-05-04T07:31:57.671Z</time></trkpt><trkpt lat="42.2565071" lon="18.8975367"><ele>74.0</ele><time>2026-05-04T07:31:58.67Z</time></trkpt><trkpt lat="42.2566157" lon="18.8974566"><ele>75.0</ele><time>2026-05-04T07:31:59.671Z</time></trkpt><trkpt lat="42.2567204" lon="18.8973678"><ele>76.0</ele><time>2026-05-04T07:32:00.671Z</time></trkpt><trkpt lat="42.256819" lon="18.897264"><ele>77.0</ele><time>2026-05-04T07:32:01.671Z</time></trkpt><trkpt lat="42.2569097" lon="18.8971303"><ele>77.0</ele><time>2026-05-04T07:32:02.671Z</time></trkpt><trkpt lat="42.256989" lon="18.8970151"><ele>77.0</ele><time>2026-05-04T07:32:03.671Z</time></trkpt><trkpt lat="42.2570597" lon="18.8968861"><ele>77.0</ele><time>2026-05-04T07:32:04.67Z</time></trkpt><trkpt lat="42.257139" lon="18.8967661"><ele>77.0</ele><time>2026-05-04T07:32:05.67Z</time></trkpt><trkpt lat="42.2572146" lon="18.896649"><ele>77.25</ele><time>2026-05-04T07:32:06.67Z</time></trkpt><trkpt lat="42.2572928" lon="18.8965311"><ele>77.5</ele><time>2026-05-04T07:32:07.671Z</time></trkpt><trkpt lat="42.2573739" lon="18.8964157"><ele>77.75</ele><time>2026-05-04T07:32:08.67Z</time></trkpt><trkpt lat="42.2574612" lon="18.8963166"><ele>78.0</ele><time>2026-05-04T07:32:09.67Z</time></trkpt><trkpt lat="42.2575554" lon="18.8962322"><ele>78.0</ele><time>2026-05-04T07:32:10.67Z</time></trkpt><trkpt lat="42.2576596" lon="18.8961718"><ele>78.0</ele><time>2026-05-04T07:32:11.67Z</time></trkpt><trkpt lat="42.2577662" lon="18.8961271"><ele>78.0</ele><time>2026-05-04T07:32:12.67Z</time></trkpt><trkpt lat="42.2578843" lon="18.8961062"><ele>78.0</ele><time>2026-05-04T07:32:13.671Z</time></trkpt><trkpt lat="42.2580013" lon="18.8960922"><ele>78.0</ele><time>2026-05-04T07:32:14.671Z</time></trkpt><trkpt lat="42.2581166" lon="18.8961002"><ele>78.0</ele><time>2026-05-04T07:32:15.671Z</time></trkpt><trkpt lat="42.2582348" lon="18.8961219"><ele>78.0</ele><time>2026-05-04T07:32:16.671Z</time></trkpt><trkpt lat="42.2583446" lon="18.8961532"><ele>78.0</ele><time>2026-05-04T07:32:17.671Z</time></trkpt><trkpt lat="42.2584623" lon="18.8962061"><ele>75.25</ele><time>2026-05-04T07:32:18.671Z</time></trkpt><trkpt lat="42.2585997" lon="18.8962672"><ele>72.5</ele><time>2026-05-04T07:32:19.671Z</time></trkpt><trkpt lat="42.25873" lon="18.8963436"><ele>69.75</ele><time>2026-05-04T07:32:20.67Z</time></trkpt><trkpt lat="42.2588598" lon="18.8964154"><ele>67.0</ele><time>2026-05-04T07:32:21.67Z</time></trkpt><trkpt lat="42.2589955" lon="18.8964894"><ele>67.0</ele><time>2026-05-04T07:32:22.67Z</time></trkpt><trkpt lat="42.2591236" lon="18.8965621"><ele>67.0</ele><time>2026-05-04T07:32:23.67Z</time></trkpt><trkpt lat="42.259244" lon="18.8966377"><ele>67.0</ele><time>2026-05-04T07:32:24.671Z</time></trkpt><trkpt lat="42.2593585" lon="18.8967223"><ele>67.0</ele><time>2026-05-04T07:32:25.671Z</time></trkpt><trkpt lat="42.2594649" lon="18.8968243"><ele>66.5</ele><time>2026-05-04T07:32:26.67Z</time></trkpt><trkpt lat="42.2595653" lon="18.8969567"><ele>66.0</ele><time>2026-05-04T07:32:27.67Z</time></trkpt><trkpt lat="42.2596616" lon="18.8970857"><ele>65.5</ele><time>2026-05-04T07:32:28.67Z</time></trkpt><trkpt lat="42.2597539" lon="18.8972221"><ele>65.0</ele><time>2026-05-04T07:32:29.671Z</time></trkpt><trkpt lat="42.2598468" lon="18.8973644"><ele>65.0</ele><time>2026-05-04T07:32:30.671Z</time></trkpt><trkpt lat="42.2599454" lon="18.8974976"><ele>65.0</ele><time>2026-05-04T07:32:31.671Z</time></trkpt><trkpt lat="42.260046" lon="18.8976207"><ele>65.0</ele><time>2026-05-04T07:32:32.67Z</time></trkpt><trkpt lat="42.2601543" lon="18.8977303"><ele>65.0</ele><time>2026-05-04T07:32:33.671Z</time></trkpt><trkpt lat="42.2602752" lon="18.8978287"><ele>70.0</ele><time>2026-05-04T07:32:34.671Z</time></trkpt><trkpt lat="42.260402" lon="18.8979059"><ele>75.0</ele><time>2026-05-04T07:32:35.671Z</time></trkpt><trkpt lat="42.2605317" lon="18.8979622"><ele>80.0</ele><time>2026-05-04T07:32:36.67Z</time></trkpt><trkpt lat="42.2606668" lon="18.8980024"><ele>85.0</ele><time>2026-05-04T07:32:37.671Z</time></trkpt><trkpt lat="42.2608005" lon="18.8980271"><ele>85.0</ele><time>2026-05-04T07:32:38.671Z</time></trkpt><trkpt lat="42.2609337" lon="18.8980338"><ele>85.0</ele><time>2026-05-04T07:32:39.671Z</time></trkpt><trkpt lat="42.2610566" lon="18.8980158"><ele>85.0</ele><time>2026-05-04T07:32:40.671Z</time></trkpt><trkpt lat="42.2611798" lon="18.8979699"><ele>85.0</ele><time>2026-05-04T07:32:41.67Z</time></trkpt><trkpt lat="42.2612976" lon="18.8978976"><ele>85.0</ele><time>2026-05-04T07:32:42.671Z</time></trkpt><trkpt lat="42.2614067" lon="18.8977949"><ele>85.0</ele><time>2026-05-04T07:32:43.67Z</time></trkpt><trkpt lat="42.2615039" lon="18.8976724"><ele>85.0</ele><time>2026-05-04T07:32:44.671Z</time></trkpt><trkpt lat="42.2615964" lon="18.8975305"><ele>85.0</ele><time>2026-05-04T07:32:45.671Z</time></trkpt><trkpt lat="42.2616789" lon="18.8973852"><ele>79.5</ele><time>2026-05-04T07:32:46.671Z</time></trkpt><trkpt lat="42.2617745" lon="18.8972281"><ele>74.0</ele><time>2026-05-04T07:32:47.67Z</time></trkpt><trkpt lat="42.2618663" lon="18.8970856"><ele>68.5</ele><time>2026-05-04T07:32:48.67Z</time></trkpt><trkpt lat="42.2619592" lon="18.8969344"><ele>63.0</ele><time>2026-05-04T07:32:49.671Z</time></trkpt><trkpt lat="42.2620522" lon="18.8967886"><ele>63.75</ele><time>2026-05-04T07:32:50.671Z</time></trkpt><trkpt lat="42.2621374" lon="18.8966506"><ele>64.5</ele><time>2026-05-04T07:32:51.671Z</time></trkpt><trkpt lat="42.2622286" lon="18.8965155"><ele>65.25</ele><time>2026-05-04T07:32:52.671Z</time></trkpt><trkpt lat="42.2623219" lon="18.8963917"><ele>66.0</ele><time>2026-05-04T07:32:53.67Z</time></trkpt><trkpt lat="42.2624211" lon="18.8962869"><ele>66.0</ele><time>2026-05-04T07:32:54.671Z</time></trkpt><trkpt lat="42.2625291" lon="18.8962058"><ele>66.0</ele><time>2026-05-04T07:32:55.67Z</time></trkpt><trkpt lat="42.2626437" lon="18.8961473"><ele>66.0</ele><time>2026-05-04T07:32:56.67Z</time></trkpt><trkpt lat="42.2627666" lon="18.8961127"><ele>66.0</ele><time>2026-05-04T07:32:57.671Z</time></trkpt><trkpt lat="42.2628863" lon="18.8960843"><ele>66.0</ele><time>2026-05-04T07:32:58.671Z</time></trkpt><trkpt lat="42.2630024" lon="18.8960639"><ele>66.0</ele><time>2026-05-04T07:32:59.67Z</time></trkpt><trkpt lat="42.2631105" lon="18.8960502"><ele>66.0</ele><time>2026-05-04T07:33:00.671Z</time></trkpt><trkpt lat="42.2632107" lon="18.8960384"><ele>66.0</ele><time>2026-05-04T07:33:01.671Z</time></trkpt><trkpt lat="42.2632987" lon="18.8960302"><ele>66.0</ele><time>2026-05-04T07:33:02.67Z</time></trkpt><trkpt lat="42.2633792" lon="18.8960213"><ele>68.28571428571428</ele><time>2026-05-04T07:33:03.67Z</time></trkpt><trkpt lat="42.2634521" lon="18.8960108"><ele>70.57142857142857</ele><time>2026-05-04T07:33:04.671Z</time></trkpt><trkpt lat="42.2635186" lon="18.8960033"><ele>72.85714285714286</ele><time>2026-05-04T07:33:05.67Z</time></trkpt><trkpt lat="42.2635837" lon="18.8959948"><ele>75.14285714285714</ele><time>2026-05-04T07:33:06.671Z</time></trkpt><trkpt lat="42.2636542" lon="18.8959856"><ele>77.42857142857143</ele><time>2026-05-04T07:33:07.671Z</time></trkpt><trkpt lat="42.2637369" lon="18.895985"><ele>79.71428571428571</ele><time>2026-05-04T07:33:08.671Z</time></trkpt><trkpt lat="42.2638215" lon="18.8959733"><ele>82.0</ele><time>2026-05-04T07:33:09.671Z</time></trkpt><trkpt lat="42.2639168" lon="18.8959609"><ele>79.0</ele><time>2026-05-04T07:33:10.671Z</time></trkpt><trkpt lat="42.2640111" lon="18.8959433"><ele>76.0</ele><time>2026-05-04T07:33:11.671Z</time></trkpt><trkpt lat="42.264109" lon="18.8959361"><ele>73.0</ele><time>2026-05-04T07:33:12.671Z</time></trkpt><trkpt lat="42.264197" lon="18.8959255"><ele>70.0</ele><time>2026-05-04T07:33:13.671Z</time></trkpt><trkpt lat="42.2642861" lon="18.8959144"><ele>67.0</ele><time>2026-05-04T07:33:14.67Z</time></trkpt><trkpt lat="42.2643784" lon="18.8959079"><ele>67.0</ele><time>2026-05-04T07:33:15.671Z</time></trkpt><trkpt lat="42.2644746" lon="18.8959"><ele>67.0</ele><time>2026-05-04T07:33:16.671Z</time></trkpt><trkpt lat="42.2645704" lon="18.8958897"><ele>67.0</ele><time>2026-05-04T07:33:17.67Z</time></trkpt><trkpt lat="42.2646647" lon="18.8958767"><ele>67.0</ele><time>2026-05-04T07:33:18.67Z</time></trkpt><trkpt lat="42.2647618" lon="18.8958648"><ele>67.0</ele><time>2026-05-04T07:33:19.67Z</time></trkpt><trkpt lat="42.2648599" lon="18.8958523"><ele>67.4</ele><time>2026-05-04T07:33:20.671Z</time></trkpt><trkpt lat="42.2649539" lon="18.8958386"><ele>67.80000000000001</ele><time>2026-05-04T07:33:21.671Z</time></trkpt><trkpt lat="42.2650474" lon="18.8958252"><ele>68.2</ele><time>2026-05-04T07:33:22.67Z</time></trkpt><trkpt lat="42.265144" lon="18.8958041"><ele>68.60000000000001</ele><time>2026-05-04T07:33:23.67Z</time></trkpt><trkpt lat="42.2652421" lon="18.895777"><ele>69.0</ele><time>2026-05-04T07:33:24.671Z</time></trkpt><trkpt lat="42.2653397" lon="18.8957329"><ele>69.0</ele><time>2026-05-04T07:33:25.671Z</time></trkpt><trkpt lat="42.2654367" lon="18.8956725"><ele>69.0</ele><time>2026-05-04T07:33:26.671Z</time></trkpt><trkpt lat="42.2655294" lon="18.8955913"><ele>69.0</ele><time>2026-05-04T07:33:27.67Z</time></trkpt><trkpt lat="42.2656152" lon="18.8954926"><ele>69.0</ele><time>2026-05-04T07:33:28.67Z</time></trkpt><trkpt lat="42.2656889" lon="18.8953823"><ele>69.0</ele><time>2026-05-04T07:33:29.671Z</time></trkpt><trkpt lat="42.2657553" lon="18.895272"><ele>69.4</ele><time>2026-05-04T07:33:30.67Z</time></trkpt><trkpt lat="42.2658169" lon="18.8951622"><ele>69.80000000000001</ele><time>2026-05-04T07:33:31.67Z</time></trkpt><trkpt lat="42.2658784" lon="18.8950525"><ele>70.19999999999999</ele><time>2026-05-04T07:33:32.67Z</time></trkpt><trkpt lat="42.2659453" lon="18.8949475"><ele>70.6</ele><time>2026-05-04T07:33:33.67Z</time></trkpt><trkpt lat="42.2660194" lon="18.8948443"><ele>71.0</ele><time>2026-05-04T07:33:34.67Z</time></trkpt><trkpt lat="42.2660998" lon="18.8947352"><ele>70.6</ele><time>2026-05-04T07:33:35.671Z</time></trkpt><trkpt lat="42.2661859" lon="18.8946512"><ele>70.19999999999999</ele><time>2026-05-04T07:33:36.67Z</time></trkpt><trkpt lat="42.2662765" lon="18.8945841"><ele>69.80000000000001</ele><time>2026-05-04T07:33:37.67Z</time></trkpt><trkpt lat="42.2663717" lon="18.8945235"><ele>69.4</ele><time>2026-05-04T07:33:38.671Z</time></trkpt><trkpt lat="42.2664634" lon="18.8944835"><ele>69.0</ele><time>2026-05-04T07:33:39.671Z</time></trkpt><trkpt lat="42.2665625" lon="18.8944583"><ele>69.0</ele><time>2026-05-04T07:33:40.671Z</time></trkpt><trkpt lat="42.2666603" lon="18.8944479"><ele>69.0</ele><time>2026-05-04T07:33:41.67Z</time></trkpt><trkpt lat="42.2667554" lon="18.894447"><ele>69.0</ele><time>2026-05-04T07:33:42.67Z</time></trkpt><trkpt lat="42.2668649" lon="18.8944568"><ele>69.0</ele><time>2026-05-04T07:33:43.671Z</time></trkpt><trkpt lat="42.2669679" lon="18.894482"><ele>69.0</ele><time>2026-05-04T07:33:44.671Z</time></trkpt><trkpt lat="42.2670662" lon="18.894524"><ele>69.0</ele><time>2026-05-04T07:33:45.67Z</time></trkpt><trkpt lat="42.2671652" lon="18.8945778"><ele>69.0</ele><time>2026-05-04T07:33:46.671Z</time></trkpt><trkpt lat="42.2672597" lon="18.8946602"><ele>69.0</ele><time>2026-05-04T07:33:47.671Z</time></trkpt><trkpt lat="42.2673474" lon="18.8947599"><ele>69.0</ele><time>2026-05-04T07:33:48.67Z</time></trkpt><trkpt lat="42.2674271" lon="18.8948639"><ele>69.0</ele><time>2026-05-04T07:33:49.67Z</time></trkpt><trkpt lat="42.2675023" lon="18.8949664"><ele>69.60000000000001</ele><time>2026-05-04T07:33:50.671Z</time></trkpt><trkpt lat="42.2675608" lon="18.8950692"><ele>70.2</ele><time>2026-05-04T07:33:51.67Z</time></trkpt><trkpt lat="42.2676102" lon="18.8951708"><ele>70.80000000000001</ele><time>2026-05-04T07:33:52.671Z</time></trkpt><trkpt lat="42.2676679" lon="18.8952869"><ele>71.4</ele><time>2026-05-04T07:33:53.67Z</time></trkpt><trkpt lat="42.2677294" lon="18.8954201"><ele>72.0</ele><time>2026-05-04T07:33:54.67Z</time></trkpt><trkpt lat="42.2677799" lon="18.8955422"><ele>72.0</ele><time>2026-05-04T07:33:55.67Z</time></trkpt><trkpt lat="42.267841" lon="18.895652"><ele>72.0</ele><time>2026-05-04T07:33:56.671Z</time></trkpt><trkpt lat="42.2679018" lon="18.8957527"><ele>72.0</ele><time>2026-05-04T07:33:57.67Z</time></trkpt><trkpt lat="42.2679762" lon="18.895846"><ele>72.0</ele><time>2026-05-04T07:33:58.67Z</time></trkpt><trkpt lat="42.2680493" lon="18.8959281"><ele>72.0</ele><time>2026-05-04T07:33:59.67Z</time></trkpt><trkpt lat="42.2681264" lon="18.8959939"><ele>67.8</ele><time>2026-05-04T07:34:00.67Z</time></trkpt><trkpt lat="42.2682092" lon="18.8960455"><ele>63.6</ele><time>2026-05-04T07:34:01.67Z</time></trkpt><trkpt lat="42.2683052" lon="18.896092"><ele>59.4</ele><time>2026-05-04T07:34:02.671Z</time></trkpt><trkpt lat="42.2683998" lon="18.8961307"><ele>55.199999999999996</ele><time>2026-05-04T07:34:03.671Z</time></trkpt><trkpt lat="42.2685016" lon="18.8961577"><ele>51.0</ele><time>2026-05-04T07:34:04.67Z</time></trkpt><trkpt lat="42.268599" lon="18.8961748"><ele>51.0</ele><time>2026-05-04T07:34:05.67Z</time></trkpt><trkpt lat="42.268701" lon="18.8961665"><ele>51.0</ele><time>2026-05-04T07:34:06.67Z</time></trkpt><trkpt lat="42.2688022" lon="18.896148"><ele>51.0</ele><time>2026-05-04T07:34:07.671Z</time></trkpt><trkpt lat="42.2689083" lon="18.8961138"><ele>51.0</ele><time>2026-05-04T07:34:08.67Z</time></trkpt><trkpt lat="42.2690183" lon="18.8960612"><ele>51.0</ele><time>2026-05-04T07:34:09.671Z</time></trkpt><trkpt lat="42.269116" lon="18.8959989"><ele>52.5</ele><time>2026-05-04T07:34:10.67Z</time></trkpt><trkpt lat="42.2692032" lon="18.8959201"><ele>54.0</ele><time>2026-05-04T07:34:11.671Z</time></trkpt><trkpt lat="42.2692858" lon="18.8958249"><ele>55.5</ele><time>2026-05-04T07:34:12.67Z</time></trkpt><trkpt lat="42.2693717" lon="18.8957094"><ele>57.0</ele><time>2026-05-04T07:34:13.671Z</time></trkpt><trkpt lat="42.2694504" lon="18.8955925"><ele>53.0</ele><time>2026-05-04T07:34:14.671Z</time></trkpt><trkpt lat="42.2695158" lon="18.8954634"><ele>49.0</ele><time>2026-05-04T07:34:15.67Z</time></trkpt><trkpt lat="42.2695636" lon="18.8952961"><ele>45.0</ele><time>2026-05-04T07:34:16.671Z</time></trkpt><trkpt lat="42.2695992" lon="18.8951467"><ele>41.0</ele><time>2026-05-04T07:34:17.67Z</time></trkpt><trkpt lat="42.2696223" lon="18.8950025"><ele>38.4</ele><time>2026-05-04T07:34:18.671Z</time></trkpt><trkpt lat="42.2696302" lon="18.894854"><ele>35.8</ele><time>2026-05-04T07:34:19.671Z</time></trkpt><trkpt lat="42.2696299" lon="18.8947162"><ele>33.199999999999996</ele><time>2026-05-04T07:34:20.671Z</time></trkpt><trkpt lat="42.2696186" lon="18.8945753"><ele>30.599999999999998</ele><time>2026-05-04T07:34:21.67Z</time></trkpt><trkpt lat="42.2696067" lon="18.8944334"><ele>28.0</ele><time>2026-05-04T07:34:22.671Z</time></trkpt><trkpt lat="42.2695949" lon="18.8942751"><ele>25.799999999999997</ele><time>2026-05-04T07:34:23.671Z</time></trkpt><trkpt lat="42.2695837" lon="18.894141"><ele>23.599999999999998</ele><time>2026-05-04T07:34:24.67Z</time></trkpt><trkpt lat="42.2695765" lon="18.8940013"><ele>21.4</ele><time>2026-05-04T07:34:25.67Z</time></trkpt><trkpt lat="42.2695772" lon="18.8938606"><ele>19.2</ele><time>2026-05-04T07:34:26.671Z</time></trkpt><trkpt lat="42.2695936" lon="18.8937315"><ele>17.0</ele><time>2026-05-04T07:34:27.671Z</time></trkpt><trkpt lat="42.26961" lon="18.893618"><ele>16.999999999999996</ele><time>2026-05-04T07:34:28.671Z</time></trkpt><trkpt lat="42.2696476" lon="18.8935028"><ele>17.0</ele><time>2026-05-04T07:34:29.671Z</time></trkpt><trkpt lat="42.2696878" lon="18.8933946"><ele>17.0</ele><time>2026-05-04T07:34:30.67Z</time></trkpt><trkpt lat="42.2697235" lon="18.8933139"><ele>17.0</ele><time>2026-05-04T07:34:31.671Z</time></trkpt><trkpt lat="42.2697614" lon="18.8932448"><ele>17.0</ele><time>2026-05-04T07:34:32.67Z</time></trkpt><trkpt lat="42.2698008" lon="18.8931761"><ele>16.999999999999996</ele><time>2026-05-04T07:34:33.671Z</time></trkpt><trkpt lat="42.2698388" lon="18.8931006"><ele>17.0</ele><time>2026-05-04T07:34:34.67Z</time></trkpt><trkpt lat="42.2698739" lon="18.8930229"><ele>18.833333333333336</ele><time>2026-05-04T07:34:35.67Z</time></trkpt><trkpt lat="42.2699158" lon="18.8929349"><ele>20.666666666666668</ele><time>2026-05-04T07:34:36.67Z</time></trkpt><trkpt lat="42.2699517" lon="18.8928454"><ele>22.5</ele><time>2026-05-04T07:34:37.67Z</time></trkpt><trkpt lat="42.2699943" lon="18.8927467"><ele>24.333333333333336</ele><time>2026-05-04T07:34:38.671Z</time></trkpt><trkpt lat="42.270041" lon="18.8926237"><ele>26.166666666666668</ele><time>2026-05-04T07:34:39.671Z</time></trkpt><trkpt lat="42.2700798" lon="18.8925075"><ele>28.0</ele><time>2026-05-04T07:34:40.671Z</time></trkpt><trkpt lat="42.2701116" lon="18.8923903"><ele>28.0</ele><time>2026-05-04T07:34:41.671Z</time></trkpt><trkpt lat="42.2701499" lon="18.8922612"><ele>27.999999999999996</ele><time>2026-05-04T07:34:42.67Z</time></trkpt><trkpt lat="42.2701831" lon="18.8921425"><ele>27.999999999999996</ele><time>2026-05-04T07:34:43.671Z</time></trkpt><trkpt lat="42.2702111" lon="18.8920149"><ele>28.0</ele><time>2026-05-04T07:34:44.67Z</time></trkpt><trkpt lat="42.270248" lon="18.8918772"><ele>28.0</ele><time>2026-05-04T07:34:45.671Z</time></trkpt><trkpt lat="42.2702896" lon="18.8917481"><ele>26.2</ele><time>2026-05-04T07:34:46.671Z</time></trkpt><trkpt lat="42.270341" lon="18.8916157"><ele>24.4</ele><time>2026-05-04T07:34:47.671Z</time></trkpt><trkpt lat="42.2703975" lon="18.891496"><ele>22.599999999999998</ele><time>2026-05-04T07:34:48.671Z</time></trkpt><trkpt lat="42.2704646" lon="18.8913765"><ele>20.799999999999997</ele><time>2026-05-04T07:34:49.671Z</time></trkpt><trkpt lat="42.2705348" lon="18.8912694"><ele>19.0</ele><time>2026-05-04T07:34:50.671Z</time></trkpt><trkpt lat="42.2706068" lon="18.8911762"><ele>21.799999999999997</ele><time>2026-05-04T07:34:51.671Z</time></trkpt><trkpt lat="42.2706671" lon="18.8910793"><ele>24.599999999999998</ele><time>2026-05-04T07:34:52.67Z</time></trkpt><trkpt lat="42.2707331" lon="18.8909986"><ele>27.4</ele><time>2026-05-04T07:34:53.67Z</time></trkpt><trkpt lat="42.2708036" lon="18.8909223"><ele>30.2</ele><time>2026-05-04T07:34:54.671Z</time></trkpt><trkpt lat="42.2708806" lon="18.8908434"><ele>33.0</ele><time>2026-05-04T07:34:55.67Z</time></trkpt><trkpt lat="42.2709608" lon="18.8907728"><ele>33.0</ele><time>2026-05-04T07:34:56.671Z</time></trkpt><trkpt lat="42.2710384" lon="18.8907081"><ele>33.0</ele><time>2026-05-04T07:34:57.671Z</time></trkpt><trkpt lat="42.2711279" lon="18.8906513"><ele>33.0</ele><time>2026-05-04T07:34:58.67Z</time></trkpt><trkpt lat="42.2712165" lon="18.8906131"><ele>33.0</ele><time>2026-05-04T07:34:59.671Z</time></trkpt><trkpt lat="42.2713109" lon="18.8905781"><ele>33.0</ele><time>2026-05-04T07:35:00.67Z</time></trkpt><trkpt lat="42.271405" lon="18.8905516"><ele>34.199999999999996</ele><time>2026-05-04T07:35:01.67Z</time></trkpt><trkpt lat="42.2715056" lon="18.8905376"><ele>35.4</ele><time>2026-05-04T07:35:02.67Z</time></trkpt><trkpt lat="42.2716105" lon="18.8905362"><ele>36.599999999999994</ele><time>2026-05-04T07:35:03.671Z</time></trkpt><trkpt lat="42.2717143" lon="18.8905495"><ele>37.8</ele><time>2026-05-04T07:35:04.671Z</time></trkpt><trkpt lat="42.2718167" lon="18.8905706"><ele>39.0</ele><time>2026-05-04T07:35:05.671Z</time></trkpt><trkpt lat="42.2719259" lon="18.8906074"><ele>39.0</ele><time>2026-05-04T07:35:06.671Z</time></trkpt><trkpt lat="42.2720212" lon="18.8906499"><ele>39.0</ele><time>2026-05-04T07:35:07.671Z</time></trkpt><trkpt lat="42.2721147" lon="18.8907014"><ele>39.0</ele><time>2026-05-04T07:35:08.67Z</time></trkpt><trkpt lat="42.272202" lon="18.8907474"><ele>39.0</ele><time>2026-05-04T07:35:09.671Z</time></trkpt><trkpt lat="42.2722861" lon="18.8908014"><ele>39.0</ele><time>2026-05-04T07:35:10.671Z</time></trkpt><trkpt lat="42.2723767" lon="18.8908766"><ele>40.2</ele><time>2026-05-04T07:35:11.671Z</time></trkpt><trkpt lat="42.2724687" lon="18.890948"><ele>41.4</ele><time>2026-05-04T07:35:12.671Z</time></trkpt><trkpt lat="42.2725613" lon="18.8910183"><ele>42.6</ele><time>2026-05-04T07:35:13.67Z</time></trkpt><trkpt lat="42.2726504" lon="18.8910908"><ele>43.8</ele><time>2026-05-04T07:35:14.671Z</time></trkpt><trkpt lat="42.272746" lon="18.8911537"><ele>45.0</ele><time>2026-05-04T07:35:15.671Z</time></trkpt><trkpt lat="42.2728421" lon="18.8912165"><ele>45.0</ele><time>2026-05-04T07:35:16.67Z</time></trkpt><trkpt lat="42.2729404" lon="18.89128"><ele>45.0</ele><time>2026-05-04T07:35:17.671Z</time></trkpt><trkpt lat="42.2730343" lon="18.8913371"><ele>45.0</ele><time>2026-05-04T07:35:18.671Z</time></trkpt><trkpt lat="42.2731346" lon="18.8913795"><ele>45.0</ele><time>2026-05-04T07:35:19.67Z</time></trkpt><trkpt lat="42.2732496" lon="18.8913983"><ele>45.0</ele><time>2026-05-04T07:35:20.67Z</time></trkpt><trkpt lat="42.2733655" lon="18.8914136"><ele>41.0</ele><time>2026-05-04T07:35:21.67Z</time></trkpt><trkpt lat="42.2734793" lon="18.8914063"><ele>37.0</ele><time>2026-05-04T07:35:22.671Z</time></trkpt><trkpt lat="42.2735923" lon="18.8913679"><ele>33.0</ele><time>2026-05-04T07:35:23.67Z</time></trkpt><trkpt lat="42.2737043" lon="18.8913036"><ele>29.0</ele><time>2026-05-04T07:35:24.671Z</time></trkpt><trkpt lat="42.2738076" lon="18.8912186"><ele>29.0</ele><time>2026-05-04T07:35:25.671Z</time></trkpt><trkpt lat="42.2739168" lon="18.8910822"><ele>29.0</ele><time>2026-05-04T07:35:26.671Z</time></trkpt><trkpt lat="42.2739936" lon="18.8909539"><ele>29.0</ele><time>2026-05-04T07:35:27.67Z</time></trkpt><trkpt lat="42.274063" lon="18.8907891"><ele>29.0</ele><time>2026-05-04T07:35:28.671Z</time></trkpt><trkpt lat="42.2741205" lon="18.8906388"><ele>29.2</ele><time>2026-05-04T07:35:29.671Z</time></trkpt><trkpt lat="42.2741613" lon="18.8904953"><ele>29.4</ele><time>2026-05-04T07:35:30.671Z</time></trkpt><trkpt lat="42.2742025" lon="18.8903636"><ele>29.6</ele><time>2026-05-04T07:35:31.67Z</time></trkpt><trkpt lat="42.2742353" lon="18.8902177"><ele>29.8</ele><time>2026-05-04T07:35:32.671Z</time></trkpt><trkpt lat="42.2742688" lon="18.8900861"><ele>30.0</ele><time>2026-05-04T07:35:33.67Z</time></trkpt><trkpt lat="42.2743077" lon="18.8899343"><ele>29.25</ele><time>2026-05-04T07:35:34.67Z</time></trkpt><trkpt lat="42.2743442" lon="18.8897899"><ele>28.5</ele><time>2026-05-04T07:35:35.671Z</time></trkpt><trkpt lat="42.2743818" lon="18.88964"><ele>27.75</ele><time>2026-05-04T07:35:36.67Z</time></trkpt><trkpt lat="42.2744228" lon="18.8894936"><ele>27.0</ele><time>2026-05-04T07:35:37.671Z</time></trkpt><trkpt lat="42.2744639" lon="18.8893457"><ele>25.5</ele><time>2026-05-04T07:35:38.671Z</time></trkpt><trkpt lat="42.2745132" lon="18.8892047"><ele>24.0</ele><time>2026-05-04T07:35:39.671Z</time></trkpt><trkpt lat="42.2745726" lon="18.8890542"><ele>22.5</ele><time>2026-05-04T07:35:40.67Z</time></trkpt><trkpt lat="42.2746556" lon="18.8888798"><ele>21.0</ele><time>2026-05-04T07:35:41.671Z</time></trkpt><trkpt lat="42.2747537" lon="18.8887145"><ele>22.0</ele><time>2026-05-04T07:35:42.671Z</time></trkpt><trkpt lat="42.2748633" lon="18.8885591"><ele>23.0</ele><time>2026-05-04T07:35:43.671Z</time></trkpt><trkpt lat="42.2750116" lon="18.8884046"><ele>24.0</ele><time>2026-05-04T07:35:44.671Z</time></trkpt><trkpt lat="42.2751628" lon="18.8882731"><ele>24.0</ele><time>2026-05-04T07:35:45.671Z</time></trkpt><trkpt lat="42.2753251" lon="18.8881473"><ele>24.0</ele><time>2026-05-04T07:35:46.671Z</time></trkpt><trkpt lat="42.2754951" lon="18.8880208"><ele>24.0</ele><time>2026-05-04T07:35:47.67Z</time></trkpt><trkpt lat="42.2756649" lon="18.8878966"><ele>25.333333333333336</ele><time>2026-05-04T07:35:48.671Z</time></trkpt><trkpt lat="42.2758169" lon="18.8877651"><ele>26.666666666666668</ele><time>2026-05-04T07:35:49.671Z</time></trkpt><trkpt lat="42.2759603" lon="18.887637"><ele>28.0</ele><time>2026-05-04T07:35:50.671Z</time></trkpt><trkpt lat="42.2760824" lon="18.887484"><ele>28.0</ele><time>2026-05-04T07:35:51.671Z</time></trkpt><trkpt lat="42.2761867" lon="18.8873094"><ele>28.0</ele><time>2026-05-04T07:35:52.671Z</time></trkpt><trkpt lat="42.2762603" lon="18.8871051"><ele>28.0</ele><time>2026-05-04T07:35:53.671Z</time></trkpt><trkpt lat="42.2763255" lon="18.8868622"><ele>22.666666666666668</ele><time>2026-05-04T07:35:54.67Z</time></trkpt><trkpt lat="42.276385" lon="18.8866063"><ele>17.333333333333336</ele><time>2026-05-04T07:35:55.671Z</time></trkpt><trkpt lat="42.2764498" lon="18.8863464"><ele>12.0</ele><time>2026-05-04T07:35:56.671Z</time></trkpt><trkpt lat="42.2765117" lon="18.8860751"><ele>25.333333333333332</ele><time>2026-05-04T07:35:57.67Z</time></trkpt><trkpt lat="42.2765727" lon="18.8858056"><ele>38.666666666666664</ele><time>2026-05-04T07:35:58.671Z</time></trkpt><trkpt lat="42.2766187" lon="18.8855494"><ele>52.0</ele><time>2026-05-04T07:35:59.671Z</time></trkpt><trkpt lat="42.2766466" lon="18.8853018"><ele>52.5</ele><time>2026-05-04T07:36:00.671Z</time></trkpt><trkpt lat="42.2766672" lon="18.8850667"><ele>53.0</ele><time>2026-05-04T07:36:01.67Z</time></trkpt><trkpt lat="42.2766758" lon="18.8848773"><ele>53.5</ele><time>2026-05-04T07:36:02.67Z</time></trkpt><trkpt lat="42.27668" lon="18.8847053"><ele>54.0</ele><time>2026-05-04T07:36:03.671Z</time></trkpt><trkpt lat="42.2766738" lon="18.884529"><ele>54.0</ele><time>2026-05-04T07:36:04.671Z</time></trkpt><trkpt lat="42.2766597" lon="18.8843623"><ele>54.0</ele><time>2026-05-04T07:36:05.67Z</time></trkpt><trkpt lat="42.2766418" lon="18.8841937"><ele>54.0</ele><time>2026-05-04T07:36:06.671Z</time></trkpt><trkpt lat="42.2766215" lon="18.8840308"><ele>54.0</ele><time>2026-05-04T07:36:07.671Z</time></trkpt><trkpt lat="42.2765992" lon="18.8838606"><ele>54.75</ele><time>2026-05-04T07:36:08.671Z</time></trkpt><trkpt lat="42.2765749" lon="18.883679"><ele>55.5</ele><time>2026-05-04T07:36:09.671Z</time></trkpt><trkpt lat="42.2765566" lon="18.8834967"><ele>56.25</ele><time>2026-05-04T07:36:10.671Z</time></trkpt><trkpt lat="42.276547" lon="18.8833104"><ele>57.0</ele><time>2026-05-04T07:36:11.671Z</time></trkpt><trkpt lat="42.2765482" lon="18.8831341"><ele>57.5</ele><time>2026-05-04T07:36:12.671Z</time></trkpt><trkpt lat="42.2765718" lon="18.8829551"><ele>58.0</ele><time>2026-05-04T07:36:13.671Z</time></trkpt><trkpt lat="42.2766146" lon="18.8827874"><ele>58.5</ele><time>2026-05-04T07:36:14.67Z</time></trkpt><trkpt lat="42.2766753" lon="18.8826308"><ele>59.0</ele><time>2026-05-04T07:36:15.67Z</time></trkpt><trkpt lat="42.2767479" lon="18.882511"><ele>56.75</ele><time>2026-05-04T07:36:16.67Z</time></trkpt><trkpt lat="42.2768268" lon="18.882411"><ele>54.5</ele><time>2026-05-04T07:36:17.67Z</time></trkpt><trkpt lat="42.2769196" lon="18.882316"><ele>52.25</ele><time>2026-05-04T07:36:18.671Z</time></trkpt><trkpt lat="42.2770237" lon="18.8822442"><ele>50.0</ele><time>2026-05-04T07:36:19.671Z</time></trkpt><trkpt lat="42.2771551" lon="18.8821943"><ele>53.75</ele><time>2026-05-04T07:36:20.67Z</time></trkpt><trkpt lat="42.2772783" lon="18.8821776"><ele>57.5</ele><time>2026-05-04T07:36:21.67Z</time></trkpt><trkpt lat="42.2774132" lon="18.8821923"><ele>61.25</ele><time>2026-05-04T07:36:22.671Z</time></trkpt><trkpt lat="42.2775453" lon="18.8822468"><ele>65.0</ele><time>2026-05-04T07:36:23.67Z</time></trkpt><trkpt lat="42.2776466" lon="18.8822951"><ele>65.0</ele><time>2026-05-04T07:36:24.671Z</time></trkpt><trkpt lat="42.2777576" lon="18.8823675"><ele>65.0</ele><time>2026-05-04T07:36:25.67Z</time></trkpt><trkpt lat="42.2778575" lon="18.8824502"><ele>65.0</ele><time>2026-05-04T07:36:26.67Z</time></trkpt><trkpt lat="42.2779571" lon="18.8825477"><ele>65.0</ele><time>2026-05-04T07:36:27.671Z</time></trkpt><trkpt lat="42.2780634" lon="18.8826491"><ele>66.0</ele><time>2026-05-04T07:36:28.67Z</time></trkpt><trkpt lat="42.2781687" lon="18.8827498"><ele>67.0</ele><time>2026-05-04T07:36:29.671Z</time></trkpt><trkpt lat="42.2782752" lon="18.8828674"><ele>68.0</ele><time>2026-05-04T07:36:30.671Z</time></trkpt><trkpt lat="42.2783794" lon="18.882974"><ele>69.0</ele><time>2026-05-04T07:36:31.67Z</time></trkpt><trkpt lat="42.278486" lon="18.8830877"><ele>69.0</ele><time>2026-05-04T07:36:32.671Z</time></trkpt><trkpt lat="42.2785927" lon="18.8832068"><ele>69.0</ele><time>2026-05-04T07:36:33.671Z</time></trkpt><trkpt lat="42.2786955" lon="18.8833308"><ele>69.0</ele><time>2026-05-04T07:36:34.671Z</time></trkpt><trkpt lat="42.2787958" lon="18.8834442"><ele>69.0</ele><time>2026-05-04T07:36:35.671Z</time></trkpt><trkpt lat="42.2789008" lon="18.8835713"><ele>66.5</ele><time>2026-05-04T07:36:36.67Z</time></trkpt><trkpt lat="42.2790064" lon="18.8837003"><ele>64.0</ele><time>2026-05-04T07:36:37.671Z</time></trkpt><trkpt lat="42.2791134" lon="18.8838331"><ele>61.5</ele><time>2026-05-04T07:36:38.67Z</time></trkpt><trkpt lat="42.2792165" lon="18.8839697"><ele>59.0</ele><time>2026-05-04T07:36:39.671Z</time></trkpt><trkpt lat="42.2793173" lon="18.8840883"><ele>59.0</ele><time>2026-05-04T07:36:40.67Z</time></trkpt><trkpt lat="42.2794274" lon="18.8842157"><ele>59.0</ele><time>2026-05-04T07:36:41.671Z</time></trkpt><trkpt lat="42.2795229" lon="18.8843376"><ele>59.0</ele><time>2026-05-04T07:36:42.67Z</time></trkpt><trkpt lat="42.279621" lon="18.8844603"><ele>59.0</ele><time>2026-05-04T07:36:43.671Z</time></trkpt><trkpt lat="42.2797247" lon="18.884583"><ele>58.75</ele><time>2026-05-04T07:36:44.67Z</time></trkpt><trkpt lat="42.2798282" lon="18.8846955"><ele>58.5</ele><time>2026-05-04T07:36:45.67Z</time></trkpt><trkpt lat="42.2799379" lon="18.8848018"><ele>58.25</ele><time>2026-05-04T07:36:46.671Z</time></trkpt><trkpt lat="42.2800505" lon="18.8849023"><ele>58.0</ele><time>2026-05-04T07:36:47.67Z</time></trkpt><trkpt lat="42.2801757" lon="18.8849727"><ele>58.0</ele><time>2026-05-04T07:36:48.671Z</time></trkpt><trkpt lat="42.2802967" lon="18.885025"><ele>58.0</ele><time>2026-05-04T07:36:49.67Z</time></trkpt><trkpt lat="42.2804216" lon="18.8850475"><ele>58.0</ele><time>2026-05-04T07:36:50.671Z</time></trkpt><trkpt lat="42.2805418" lon="18.8850438"><ele>58.0</ele><time>2026-05-04T07:36:51.67Z</time></trkpt><trkpt lat="42.2806675" lon="18.88502"><ele>55.25</ele><time>2026-05-04T07:36:52.671Z</time></trkpt><trkpt lat="42.2807872" lon="18.8849692"><ele>52.5</ele><time>2026-05-04T07:36:53.67Z</time></trkpt><trkpt lat="42.2809016" lon="18.8848892"><ele>49.75</ele><time>2026-05-04T07:36:54.67Z</time></trkpt><trkpt lat="42.2810046" lon="18.8848089"><ele>47.0</ele><time>2026-05-04T07:36:55.671Z</time></trkpt><trkpt lat="42.2810963" lon="18.8846963"><ele>47.0</ele><time>2026-05-04T07:36:56.67Z</time></trkpt><trkpt lat="42.2811745" lon="18.884554"><ele>47.0</ele><time>2026-05-04T07:36:57.671Z</time></trkpt><trkpt lat="42.2812348" lon="18.8843952"><ele>47.0</ele><time>2026-05-04T07:36:58.671Z</time></trkpt><trkpt lat="42.2812756" lon="18.8842188"><ele>47.0</ele><time>2026-05-04T07:36:59.671Z</time></trkpt><trkpt lat="42.2812971" lon="18.8840365"><ele>41.0</ele><time>2026-05-04T07:37:00.67Z</time></trkpt><trkpt lat="42.2812947" lon="18.883842"><ele>35.0</ele><time>2026-05-04T07:37:01.67Z</time></trkpt><trkpt lat="42.2812778" lon="18.8836495"><ele>29.0</ele><time>2026-05-04T07:37:02.671Z</time></trkpt><trkpt lat="42.2812596" lon="18.8834663"><ele>23.0</ele><time>2026-05-04T07:37:03.671Z</time></trkpt><trkpt lat="42.2812416" lon="18.8832869"><ele>22.0</ele><time>2026-05-04T07:37:04.671Z</time></trkpt><trkpt lat="42.281237" lon="18.8831082"><ele>21.0</ele><time>2026-05-04T07:37:05.67Z</time></trkpt><trkpt lat="42.28124" lon="18.8829446"><ele>20.0</ele><time>2026-05-04T07:37:06.671Z</time></trkpt><trkpt lat="42.2812553" lon="18.8827734"><ele>19.0</ele><time>2026-05-04T07:37:07.671Z</time></trkpt><trkpt lat="42.2812795" lon="18.8826145"><ele>18.75</ele><time>2026-05-04T07:37:08.671Z</time></trkpt><trkpt lat="42.2813264" lon="18.8824523"><ele>18.5</ele><time>2026-05-04T07:37:09.67Z</time></trkpt><trkpt lat="42.2813841" lon="18.8823063"><ele>18.25</ele><time>2026-05-04T07:37:10.671Z</time></trkpt><trkpt lat="42.2814489" lon="18.8821644"><ele>18.0</ele><time>2026-05-04T07:37:11.67Z</time></trkpt><trkpt lat="42.2815169" lon="18.8820285"><ele>18.25</ele><time>2026-05-04T07:37:12.671Z</time></trkpt><trkpt lat="42.2815876" lon="18.881892"><ele>18.5</ele><time>2026-05-04T07:37:13.67Z</time></trkpt><trkpt lat="42.2816566" lon="18.8817558"><ele>18.75</ele><time>2026-05-04T07:37:14.671Z</time></trkpt><trkpt lat="42.2817203" lon="18.8816126"><ele>19.0</ele><time>2026-05-04T07:37:15.671Z</time></trkpt><trkpt lat="42.2817765" lon="18.8814605"><ele>19.0</ele><time>2026-05-04T07:37:16.67Z</time></trkpt><trkpt lat="42.2818249" lon="18.8812995"><ele>19.0</ele><time>2026-05-04T07:37:17.67Z</time></trkpt><trkpt lat="42.2818582" lon="18.8811327"><ele>19.0</ele><time>2026-05-04T07:37:18.67Z</time></trkpt><trkpt lat="42.281875" lon="18.8809634"><ele>19.0</ele><time>2026-05-04T07:37:19.671Z</time></trkpt><trkpt lat="42.2818776" lon="18.8807936"><ele>18.5</ele><time>2026-05-04T07:37:20.67Z</time></trkpt><trkpt lat="42.2818671" lon="18.8806307"><ele>18.0</ele><time>2026-05-04T07:37:21.671Z</time></trkpt><trkpt lat="42.2818449" lon="18.8804707"><ele>17.5</ele><time>2026-05-04T07:37:22.671Z</time></trkpt><trkpt lat="42.281809" lon="18.8803152"><ele>17.0</ele><time>2026-05-04T07:37:23.671Z</time></trkpt><trkpt lat="42.2817668" lon="18.8801689"><ele>18.75</ele><time>2026-05-04T07:37:24.671Z</time></trkpt><trkpt lat="42.2817219" lon="18.8800283"><ele>20.5</ele><time>2026-05-04T07:37:25.67Z</time></trkpt><trkpt lat="42.2816775" lon="18.879889"><ele>22.25</ele><time>2026-05-04T07:37:26.671Z</time></trkpt><trkpt lat="42.2816347" lon="18.8797457"><ele>24.0</ele><time>2026-05-04T07:37:27.671Z</time></trkpt><trkpt lat="42.2815899" lon="18.8795943"><ele>24.0</ele><time>2026-05-04T07:37:28.671Z</time></trkpt><trkpt lat="42.2815523" lon="18.8794463"><ele>24.0</ele><time>2026-05-04T07:37:29.67Z</time></trkpt><trkpt lat="42.2815298" lon="18.8792888"><ele>24.0</ele><time>2026-05-04T07:37:30.671Z</time></trkpt><trkpt lat="42.2815072" lon="18.8791303"><ele>24.0</ele><time>2026-05-04T07:37:31.671Z</time></trkpt><trkpt lat="42.2815059" lon="18.8789671"><ele>24.25</ele><time>2026-05-04T07:37:32.67Z</time></trkpt><trkpt lat="42.281508" lon="18.8788133"><ele>24.5</ele><time>2026-05-04T07:37:33.67Z</time></trkpt><trkpt lat="42.281533" lon="18.8786672"><ele>24.75</ele><time>2026-05-04T07:37:34.67Z</time></trkpt><trkpt lat="42.2815779" lon="18.8785003"><ele>25.0</ele><time>2026-05-04T07:37:35.671Z</time></trkpt><trkpt lat="42.2816214" lon="18.8783605"><ele>23.0</ele><time>2026-05-04T07:37:36.67Z</time></trkpt><trkpt lat="42.2816854" lon="18.8782265"><ele>21.0</ele><time>2026-05-04T07:37:37.67Z</time></trkpt><trkpt lat="42.2817621" lon="18.8781039"><ele>19.0</ele><time>2026-05-04T07:37:38.67Z</time></trkpt><trkpt lat="42.2818455" lon="18.8779951"><ele>17.0</ele><time>2026-05-04T07:37:39.671Z</time></trkpt><trkpt lat="42.2819543" lon="18.8778934"><ele>17.0</ele><time>2026-05-04T07:37:40.67Z</time></trkpt><trkpt lat="42.282072" lon="18.877803"><ele>17.0</ele><time>2026-05-04T07:37:41.67Z</time></trkpt><trkpt lat="42.2821876" lon="18.8777208"><ele>17.0</ele><time>2026-05-04T07:37:42.671Z</time></trkpt><trkpt lat="42.28231" lon="18.8776482"><ele>17.0</ele><time>2026-05-04T07:37:43.671Z</time></trkpt><trkpt lat="42.2824196" lon="18.877578"><ele>16.8</ele><time>2026-05-04T07:37:44.67Z</time></trkpt><trkpt lat="42.2825305" lon="18.8775033"><ele>16.6</ele><time>2026-05-04T07:37:45.67Z</time></trkpt><trkpt lat="42.2826362" lon="18.8774272"><ele>16.400000000000002</ele><time>2026-05-04T07:37:46.671Z</time></trkpt><trkpt lat="42.2827268" lon="18.8773568"><ele>16.2</ele><time>2026-05-04T07:37:47.67Z</time></trkpt><trkpt lat="42.2827973" lon="18.8772934"><ele>16.0</ele><time>2026-05-04T07:37:48.671Z</time></trkpt><trkpt lat="42.2828582" lon="18.8772435"><ele>16.0</ele><time>2026-05-04T07:37:49.67Z</time></trkpt><trkpt lat="42.2829647" lon="18.8771554"><ele>16.0</ele><time>2026-05-04T07:37:51.67Z</time></trkpt><trkpt lat="42.2830648" lon="18.8771167"><ele>16.0</ele><time>2026-05-04T07:37:53.671Z</time></trkpt><trkpt lat="42.2831544" lon="18.8770777"><ele>16.0</ele><time>2026-05-04T07:37:55.67Z</time></trkpt><trkpt lat="42.2832217" lon="18.8769776"><ele>16.0</ele><time>2026-05-04T07:37:57.67Z</time></trkpt><trkpt lat="42.283267" lon="18.8769177"><ele>15.75</ele><time>2026-05-04T07:37:58.671Z</time></trkpt><trkpt lat="42.2833818" lon="18.8767739"><ele>15.5</ele><time>2026-05-04T07:38:00.67Z</time></trkpt><trkpt lat="42.2834596" lon="18.8766583"><ele>15.25</ele><time>2026-05-04T07:38:01.67Z</time></trkpt><trkpt lat="42.283513" lon="18.8765479"><ele>15.0</ele><time>2026-05-04T07:38:02.671Z</time></trkpt><trkpt lat="42.283563" lon="18.8764166"><ele>14.5</ele><time>2026-05-04T07:38:03.671Z</time></trkpt><trkpt lat="42.2836161" lon="18.8762596"><ele>14.0</ele><time>2026-05-04T07:38:04.67Z</time></trkpt><trkpt lat="42.2836443" lon="18.8761135"><ele>13.5</ele><time>2026-05-04T07:38:05.67Z</time></trkpt><trkpt lat="42.283652" lon="18.8759611"><ele>13.0</ele><time>2026-05-04T07:38:06.67Z</time></trkpt><trkpt lat="42.2836435" lon="18.8757972"><ele>12.5</ele><time>2026-05-04T07:38:07.67Z</time></trkpt><trkpt lat="42.2836169" lon="18.8756364"><ele>12.0</ele><time>2026-05-04T07:38:08.671Z</time></trkpt><trkpt lat="42.2835706" lon="18.8754655"><ele>11.5</ele><time>2026-05-04T07:38:09.671Z</time></trkpt><trkpt lat="42.2835372" lon="18.8752881"><ele>11.0</ele><time>2026-05-04T07:38:10.67Z</time></trkpt><trkpt lat="42.2834638" lon="18.8751277"><ele>13.0</ele><time>2026-05-04T07:38:11.67Z</time></trkpt><trkpt lat="42.2833947" lon="18.8749877"><ele>15.0</ele><time>2026-05-04T07:38:12.671Z</time></trkpt><trkpt lat="42.2833264" lon="18.8748252"><ele>17.0</ele><time>2026-05-04T07:38:13.671Z</time></trkpt><trkpt lat="42.2832793" lon="18.8746485"><ele>19.0</ele><time>2026-05-04T07:38:14.67Z</time></trkpt><trkpt lat="42.2832336" lon="18.8744841"><ele>19.0</ele><time>2026-05-04T07:38:15.671Z</time></trkpt><trkpt lat="42.2832281" lon="18.8743055"><ele>19.0</ele><time>2026-05-04T07:38:16.67Z</time></trkpt><trkpt lat="42.2832402" lon="18.8741322"><ele>19.0</ele><time>2026-05-04T07:38:17.67Z</time></trkpt><trkpt lat="42.2832703" lon="18.873952"><ele>19.0</ele><time>2026-05-04T07:38:18.671Z</time></trkpt><trkpt lat="42.2833104" lon="18.8737682"><ele>19.5</ele><time>2026-05-04T07:38:19.671Z</time></trkpt><trkpt lat="42.2833478" lon="18.8735825"><ele>20.0</ele><time>2026-05-04T07:38:20.671Z</time></trkpt><trkpt lat="42.2833904" lon="18.8733989"><ele>20.5</ele><time>2026-05-04T07:38:21.67Z</time></trkpt><trkpt lat="42.2834346" lon="18.8732091"><ele>21.0</ele><time>2026-05-04T07:38:22.671Z</time></trkpt><trkpt lat="42.2834847" lon="18.8730262"><ele>19.25</ele><time>2026-05-04T07:38:23.671Z</time></trkpt><trkpt lat="42.2835273" lon="18.8728508"><ele>17.5</ele><time>2026-05-04T07:38:24.671Z</time></trkpt><trkpt lat="42.2835547" lon="18.8726944"><ele>15.75</ele><time>2026-05-04T07:38:25.671Z</time></trkpt><trkpt lat="42.2835676" lon="18.8725436"><ele>14.0</ele><time>2026-05-04T07:38:26.671Z</time></trkpt><trkpt lat="42.2835858" lon="18.8723872"><ele>14.0</ele><time>2026-05-04T07:38:27.67Z</time></trkpt><trkpt lat="42.2836023" lon="18.8722228"><ele>14.0</ele><time>2026-05-04T07:38:28.671Z</time></trkpt><trkpt lat="42.283609" lon="18.872058"><ele>14.0</ele><time>2026-05-04T07:38:29.671Z</time></trkpt><trkpt lat="42.2836137" lon="18.871888"><ele>14.0</ele><time>2026-05-04T07:38:30.67Z</time></trkpt><trkpt lat="42.2836156" lon="18.8717152"><ele>13.75</ele><time>2026-05-04T07:38:31.67Z</time></trkpt><trkpt lat="42.2836192" lon="18.8715474"><ele>13.5</ele><time>2026-05-04T07:38:32.67Z</time></trkpt><trkpt lat="42.2835975" lon="18.8713731"><ele>13.25</ele><time>2026-05-04T07:38:33.67Z</time></trkpt><trkpt lat="42.2835652" lon="18.8712141"><ele>13.0</ele><time>2026-05-04T07:38:34.671Z</time></trkpt><trkpt lat="42.2834967" lon="18.8710605"><ele>12.75</ele><time>2026-05-04T07:38:35.671Z</time></trkpt><trkpt lat="42.2834128" lon="18.8709122"><ele>12.5</ele><time>2026-05-04T07:38:36.67Z</time></trkpt><trkpt lat="42.2833058" lon="18.8707955"><ele>12.25</ele><time>2026-05-04T07:38:37.67Z</time></trkpt><trkpt lat="42.2831999" lon="18.8706884"><ele>12.0</ele><time>2026-05-04T07:38:38.671Z</time></trkpt><trkpt lat="42.2830858" lon="18.8705847"><ele>12.0</ele><time>2026-05-04T07:38:39.671Z</time></trkpt><trkpt lat="42.2829783" lon="18.8704838"><ele>12.0</ele><time>2026-05-04T07:38:40.671Z</time></trkpt><trkpt lat="42.2828676" lon="18.870382"><ele>12.0</ele><time>2026-05-04T07:38:41.67Z</time></trkpt><trkpt lat="42.2827633" lon="18.8702695"><ele>12.0</ele><time>2026-05-04T07:38:42.67Z</time></trkpt><trkpt lat="42.2826716" lon="18.8701474"><ele>13.0</ele><time>2026-05-04T07:38:43.671Z</time></trkpt><trkpt lat="42.2825929" lon="18.8700063"><ele>14.0</ele><time>2026-05-04T07:38:44.671Z</time></trkpt><trkpt lat="42.2825151" lon="18.8698561"><ele>15.0</ele><time>2026-05-04T07:38:45.671Z</time></trkpt><trkpt lat="42.2824612" lon="18.8696963"><ele>16.0</ele><time>2026-05-04T07:38:46.67Z</time></trkpt><trkpt lat="42.2824082" lon="18.8695195"><ele>16.0</ele><time>2026-05-04T07:38:47.671Z</time></trkpt><trkpt lat="42.2823578" lon="18.8693369"><ele>16.0</ele><time>2026-05-04T07:38:48.67Z</time></trkpt><trkpt lat="42.2823224" lon="18.8691602"><ele>16.0</ele><time>2026-05-04T07:38:49.671Z</time></trkpt><trkpt lat="42.2822899" lon="18.8689869"><ele>16.0</ele><time>2026-05-04T07:38:50.671Z</time></trkpt><trkpt lat="42.2822596" lon="18.8688276"><ele>14.25</ele><time>2026-05-04T07:38:51.67Z</time></trkpt><trkpt lat="42.2822317" lon="18.8686531"><ele>12.5</ele><time>2026-05-04T07:38:52.671Z</time></trkpt><trkpt lat="42.2822072" lon="18.8684848"><ele>10.75</ele><time>2026-05-04T07:38:53.67Z</time></trkpt><trkpt lat="42.2821855" lon="18.8683117"><ele>9.0</ele><time>2026-05-04T07:38:54.67Z</time></trkpt><trkpt lat="42.2821706" lon="18.8681425"><ele>9.25</ele><time>2026-05-04T07:38:55.671Z</time></trkpt><trkpt lat="42.2821891" lon="18.867989"><ele>9.5</ele><time>2026-05-04T07:38:56.67Z</time></trkpt><trkpt lat="42.2821867" lon="18.8678241"><ele>9.75</ele><time>2026-05-04T07:38:57.67Z</time></trkpt><trkpt lat="42.2821944" lon="18.8676717"><ele>10.0</ele><time>2026-05-04T07:38:58.67Z</time></trkpt><trkpt lat="42.2822113" lon="18.8675198"><ele>10.0</ele><time>2026-05-04T07:38:59.67Z</time></trkpt><trkpt lat="42.2822424" lon="18.8673716"><ele>10.0</ele><time>2026-05-04T07:39:00.671Z</time></trkpt><trkpt lat="42.2822705" lon="18.8672206"><ele>10.0</ele><time>2026-05-04T07:39:01.67Z</time></trkpt><trkpt lat="42.2823361" lon="18.8670692"><ele>10.0</ele><time>2026-05-04T07:39:02.67Z</time></trkpt><trkpt lat="42.2823906" lon="18.866921"><ele>10.5</ele><time>2026-05-04T07:39:03.671Z</time></trkpt><trkpt lat="42.2824538" lon="18.8667777"><ele>11.0</ele><time>2026-05-04T07:39:04.67Z</time></trkpt><trkpt lat="42.2825173" lon="18.8666451"><ele>11.5</ele><time>2026-05-04T07:39:05.67Z</time></trkpt><trkpt lat="42.2825746" lon="18.866509"><ele>12.0</ele><time>2026-05-04T07:39:06.67Z</time></trkpt><trkpt lat="42.2826361" lon="18.8663787"><ele>12.0</ele><time>2026-05-04T07:39:07.67Z</time></trkpt><trkpt lat="42.2826993" lon="18.866254"><ele>12.0</ele><time>2026-05-04T07:39:08.671Z</time></trkpt><trkpt lat="42.2827636" lon="18.8661392"><ele>12.0</ele><time>2026-05-04T07:39:09.67Z</time></trkpt><trkpt lat="42.2828332" lon="18.8660206"><ele>12.0</ele><time>2026-05-04T07:39:10.671Z</time></trkpt><trkpt lat="42.2829127" lon="18.8659103"><ele>12.0</ele><time>2026-05-04T07:39:11.67Z</time></trkpt><trkpt lat="42.2829815" lon="18.8658172"><ele>11.2</ele><time>2026-05-04T07:39:12.67Z</time></trkpt><trkpt lat="42.2830658" lon="18.8657146"><ele>10.399999999999999</ele><time>2026-05-04T07:39:13.67Z</time></trkpt><trkpt lat="42.2831553" lon="18.865627"><ele>9.600000000000001</ele><time>2026-05-04T07:39:14.671Z</time></trkpt><trkpt lat="42.2832313" lon="18.8655261"><ele>8.8</ele><time>2026-05-04T07:39:15.671Z</time></trkpt><trkpt lat="42.2833049" lon="18.8654105"><ele>8.0</ele><time>2026-05-04T07:39:16.671Z</time></trkpt><trkpt lat="42.2833744" lon="18.8652915"><ele>9.0</ele><time>2026-05-04T07:39:17.67Z</time></trkpt><trkpt lat="42.2834445" lon="18.8651627"><ele>10.0</ele><time>2026-05-04T07:39:18.671Z</time></trkpt><trkpt lat="42.2835104" lon="18.8650008"><ele>11.0</ele><time>2026-05-04T07:39:19.671Z</time></trkpt><trkpt lat="42.283559" lon="18.8648369"><ele>12.0</ele><time>2026-05-04T07:39:20.67Z</time></trkpt><trkpt lat="42.2836064" lon="18.8646563"><ele>12.0</ele><time>2026-05-04T07:39:21.67Z</time></trkpt><trkpt lat="42.283645" lon="18.8644665"><ele>12.0</ele><time>2026-05-04T07:39:22.67Z</time></trkpt><trkpt lat="42.2836719" lon="18.8642659"><ele>12.0</ele><time>2026-05-04T07:39:23.67Z</time></trkpt><trkpt lat="42.2836893" lon="18.8640671"><ele>12.0</ele><time>2026-05-04T07:39:24.67Z</time></trkpt><trkpt lat="42.283694" lon="18.8638778"><ele>11.5</ele><time>2026-05-04T07:39:25.671Z</time></trkpt><trkpt lat="42.2836892" lon="18.8636891"><ele>11.0</ele><time>2026-05-04T07:39:26.67Z</time></trkpt><trkpt lat="42.2836811" lon="18.8635108"><ele>10.5</ele><time>2026-05-04T07:39:27.67Z</time></trkpt><trkpt lat="42.2836709" lon="18.8633379"><ele>10.0</ele><time>2026-05-04T07:39:28.67Z</time></trkpt><trkpt lat="42.2836594" lon="18.8631653"><ele>10.0</ele><time>2026-05-04T07:39:29.671Z</time></trkpt><trkpt lat="42.2836485" lon="18.862996"><ele>10.0</ele><time>2026-05-04T07:39:30.671Z</time></trkpt><trkpt lat="42.2836422" lon="18.8628114"><ele>10.0</ele><time>2026-05-04T07:39:31.67Z</time></trkpt><trkpt lat="42.2836436" lon="18.8626004"><ele>10.0</ele><time>2026-05-04T07:39:32.67Z</time></trkpt><trkpt lat="42.2836492" lon="18.8623657"><ele>10.666666666666668</ele><time>2026-05-04T07:39:33.67Z</time></trkpt><trkpt lat="42.2836531" lon="18.8621194"><ele>11.333333333333334</ele><time>2026-05-04T07:39:34.671Z</time></trkpt><trkpt lat="42.2836561" lon="18.8618802"><ele>12.0</ele><time>2026-05-04T07:39:35.671Z</time></trkpt><trkpt lat="42.2836531" lon="18.8616505"><ele>13.333333333333332</ele><time>2026-05-04T07:39:36.67Z</time></trkpt><trkpt lat="42.283639" lon="18.8614311"><ele>14.666666666666666</ele><time>2026-05-04T07:39:37.671Z</time></trkpt><trkpt lat="42.2836124" lon="18.8612165"><ele>16.0</ele><time>2026-05-04T07:39:38.671Z</time></trkpt><trkpt lat="42.2835664" lon="18.8610053"><ele>17.0</ele><time>2026-05-04T07:39:39.67Z</time></trkpt><trkpt lat="42.2835009" lon="18.8608188"><ele>18.0</ele><time>2026-05-04T07:39:40.671Z</time></trkpt><trkpt lat="42.2834829" lon="18.8606424"><ele>19.0</ele><time>2026-05-04T07:39:41.67Z</time></trkpt><trkpt lat="42.2833992" lon="18.8604852"><ele>20.0</ele><time>2026-05-04T07:39:42.671Z</time></trkpt><trkpt lat="42.2832912" lon="18.8603579"><ele>20.0</ele><time>2026-05-04T07:39:43.67Z</time></trkpt><trkpt lat="42.2831725" lon="18.8602305"><ele>20.0</ele><time>2026-05-04T07:39:44.671Z</time></trkpt><trkpt lat="42.2830601" lon="18.8601182"><ele>20.0</ele><time>2026-05-04T07:39:45.671Z</time></trkpt><trkpt lat="42.2829516" lon="18.8600166"><ele>20.0</ele><time>2026-05-04T07:39:46.671Z</time></trkpt><trkpt lat="42.2828644" lon="18.8599166"><ele>19.5</ele><time>2026-05-04T07:39:47.67Z</time></trkpt><trkpt lat="42.2827835" lon="18.8598276"><ele>19.0</ele><time>2026-05-04T07:39:48.67Z</time></trkpt><trkpt lat="42.2827142" lon="18.8597215"><ele>18.5</ele><time>2026-05-04T07:39:49.671Z</time></trkpt><trkpt lat="42.2826381" lon="18.8596015"><ele>18.0</ele><time>2026-05-04T07:39:50.67Z</time></trkpt><trkpt lat="42.2825731" lon="18.8594526"><ele>18.0</ele><time>2026-05-04T07:39:51.671Z</time></trkpt><trkpt lat="42.2825261" lon="18.8592984"><ele>18.0</ele><time>2026-05-04T07:39:52.671Z</time></trkpt><trkpt lat="42.2825109" lon="18.8591296"><ele>18.0</ele><time>2026-05-04T07:39:53.67Z</time></trkpt><trkpt lat="42.2825231" lon="18.8589532"><ele>18.0</ele><time>2026-05-04T07:39:54.67Z</time></trkpt><trkpt lat="42.2825455" lon="18.8587901"><ele>19.25</ele><time>2026-05-04T07:39:55.67Z</time></trkpt><trkpt lat="42.2825886" lon="18.858636"><ele>20.5</ele><time>2026-05-04T07:39:56.671Z</time></trkpt><trkpt lat="42.2826698" lon="18.8584549"><ele>21.75</ele><time>2026-05-04T07:39:57.67Z</time></trkpt><trkpt lat="42.2827533" lon="18.8582783"><ele>23.0</ele><time>2026-05-04T07:39:58.67Z</time></trkpt><trkpt lat="42.2828434" lon="18.8581063"><ele>23.0</ele><time>2026-05-04T07:39:59.671Z</time></trkpt><trkpt lat="42.2829286" lon="18.8579466"><ele>23.0</ele><time>2026-05-04T07:40:00.67Z</time></trkpt><trkpt lat="42.2830042" lon="18.8577983"><ele>23.0</ele><time>2026-05-04T07:40:01.671Z</time></trkpt><trkpt lat="42.2830764" lon="18.8576503"><ele>23.0</ele><time>2026-05-04T07:40:02.67Z</time></trkpt><trkpt lat="42.2831446" lon="18.8575165"><ele>26.0</ele><time>2026-05-04T07:40:03.67Z</time></trkpt><trkpt lat="42.2832094" lon="18.8574095"><ele>29.0</ele><time>2026-05-04T07:40:04.67Z</time></trkpt><trkpt lat="42.2832695" lon="18.857331"><ele>31.999999999999996</ele><time>2026-05-04T07:40:05.671Z</time></trkpt><trkpt lat="42.2833446" lon="18.8572376"><ele>35.0</ele><time>2026-05-04T07:40:06.67Z</time></trkpt><trkpt lat="42.2834102" lon="18.8571306"><ele>38.0</ele><time>2026-05-04T07:40:07.67Z</time></trkpt><trkpt lat="42.2834729" lon="18.856994"><ele>38.0</ele><time>2026-05-04T07:40:08.67Z</time></trkpt><trkpt lat="42.2835191" lon="18.8568644"><ele>38.0</ele><time>2026-05-04T07:40:09.67Z</time></trkpt><trkpt lat="42.2835813" lon="18.8567421"><ele>38.0</ele><time>2026-05-04T07:40:10.671Z</time></trkpt><trkpt lat="42.2836639" lon="18.8566083"><ele>38.0</ele><time>2026-05-04T07:40:11.671Z</time></trkpt><trkpt lat="42.2837601" lon="18.8564952"><ele>42.0</ele><time>2026-05-04T07:40:12.671Z</time></trkpt><trkpt lat="42.2838726" lon="18.856353"><ele>46.0</ele><time>2026-05-04T07:40:13.67Z</time></trkpt><trkpt lat="42.2839907" lon="18.8562354"><ele>50.0</ele><time>2026-05-04T07:40:14.67Z</time></trkpt><trkpt lat="42.284111" lon="18.8561142"><ele>50.0</ele><time>2026-05-04T07:40:15.671Z</time></trkpt><trkpt lat="42.2842328" lon="18.8559915"><ele>50.0</ele><time>2026-05-04T07:40:16.67Z</time></trkpt><trkpt lat="42.2843553" lon="18.8558792"><ele>50.0</ele><time>2026-05-04T07:40:17.67Z</time></trkpt><trkpt lat="42.284483" lon="18.8557491"><ele>50.75</ele><time>2026-05-04T07:40:18.67Z</time></trkpt><trkpt lat="42.2845927" lon="18.8556371"><ele>51.5</ele><time>2026-05-04T07:40:19.67Z</time></trkpt><trkpt lat="42.2846842" lon="18.8555275"><ele>52.25</ele><time>2026-05-04T07:40:20.671Z</time></trkpt><trkpt lat="42.2847827" lon="18.8554019"><ele>53.0</ele><time>2026-05-04T07:40:21.67Z</time></trkpt><trkpt lat="42.2848788" lon="18.8552645"><ele>53.0</ele><time>2026-05-04T07:40:22.671Z</time></trkpt><trkpt lat="42.2849767" lon="18.8551426"><ele>53.0</ele><time>2026-05-04T07:40:23.67Z</time></trkpt><trkpt lat="42.2850844" lon="18.8550227"><ele>53.0</ele><time>2026-05-04T07:40:24.671Z</time></trkpt><trkpt lat="42.2851875" lon="18.8548841"><ele>53.0</ele><time>2026-05-04T07:40:25.67Z</time></trkpt><trkpt lat="42.2852961" lon="18.8547654"><ele>53.75</ele><time>2026-05-04T07:40:26.67Z</time></trkpt><trkpt lat="42.2854189" lon="18.8546521"><ele>54.5</ele><time>2026-05-04T07:40:27.671Z</time></trkpt><trkpt lat="42.2855387" lon="18.8545381"><ele>55.25</ele><time>2026-05-04T07:40:28.671Z</time></trkpt><trkpt lat="42.2856665" lon="18.8544297"><ele>56.0</ele><time>2026-05-04T07:40:29.671Z</time></trkpt><trkpt lat="42.2857946" lon="18.8543289"><ele>47.25</ele><time>2026-05-04T07:40:30.671Z</time></trkpt><trkpt lat="42.2859264" lon="18.854217"><ele>38.5</ele><time>2026-05-04T07:40:31.67Z</time></trkpt><trkpt lat="42.2860427" lon="18.8541012"><ele>29.75</ele><time>2026-05-04T07:40:32.67Z</time></trkpt><trkpt lat="42.2861555" lon="18.8539855"><ele>21.0</ele><time>2026-05-04T07:40:33.671Z</time></trkpt><trkpt lat="42.2862512" lon="18.8538618"><ele>21.0</ele><time>2026-05-04T07:40:34.671Z</time></trkpt><trkpt lat="42.2863346" lon="18.8537373"><ele>21.0</ele><time>2026-05-04T07:40:35.67Z</time></trkpt><trkpt lat="42.2864119" lon="18.8536112"><ele>21.0</ele><time>2026-05-04T07:40:36.671Z</time></trkpt><trkpt lat="42.2864862" lon="18.8534664"><ele>21.0</ele><time>2026-05-04T07:40:37.67Z</time></trkpt><trkpt lat="42.2865463" lon="18.853333"><ele>20.166666666666668</ele><time>2026-05-04T07:40:38.671Z</time></trkpt><trkpt lat="42.2865883" lon="18.8532328"><ele>19.333333333333332</ele><time>2026-05-04T07:40:39.671Z</time></trkpt><trkpt lat="42.2866279" lon="18.8531397"><ele>18.5</ele><time>2026-05-04T07:40:40.67Z</time></trkpt><trkpt lat="42.2866666" lon="18.8530403"><ele>17.666666666666664</ele><time>2026-05-04T07:40:42.67Z</time></trkpt><trkpt lat="42.2866987" lon="18.8529519"><ele>16.833333333333332</ele><time>2026-05-04T07:40:46.671Z</time></trkpt><trkpt lat="42.2867355" lon="18.852851"><ele>16.0</ele><time>2026-05-04T07:40:50.671Z</time></trkpt><trkpt lat="42.2867734" lon="18.8527539"><ele>15.999999999999998</ele><time>2026-05-04T07:40:53.67Z</time></trkpt><trkpt lat="42.2868163" lon="18.85265"><ele>16.0</ele><time>2026-05-04T07:40:56.67Z</time></trkpt><trkpt lat="42.2868458" lon="18.8525742"><ele>16.0</ele><time>2026-05-04T07:40:58.671Z</time></trkpt><trkpt lat="42.2868866" lon="18.8525046"><ele>16.0</ele><time>2026-05-04T07:41:02.671Z</time></trkpt><trkpt lat="42.2869311" lon="18.8524022"><ele>15.999999999999998</ele><time>2026-05-04T07:41:05.671Z</time></trkpt><trkpt lat="42.2870109" lon="18.8522746"><ele>16.0</ele><time>2026-05-04T07:41:07.67Z</time></trkpt><trkpt lat="42.2870653" lon="18.8521178"><ele>14.600000000000001</ele><time>2026-05-04T07:41:09.671Z</time></trkpt><trkpt lat="42.2870656" lon="18.852002"><ele>13.200000000000001</ele><time>2026-05-04T07:41:10.671Z</time></trkpt><trkpt lat="42.2870703" lon="18.8518955"><ele>11.8</ele><time>2026-05-04T07:41:11.67Z</time></trkpt><trkpt lat="42.2870778" lon="18.8517803"><ele>10.4</ele><time>2026-05-04T07:41:12.671Z</time></trkpt><trkpt lat="42.2871116" lon="18.8516622"><ele>9.0</ele><time>2026-05-04T07:41:13.67Z</time></trkpt><trkpt lat="42.287184" lon="18.8514863"><ele>8.5</ele><time>2026-05-04T07:41:14.671Z</time></trkpt><trkpt lat="42.2872418" lon="18.851327"><ele>8.0</ele><time>2026-05-04T07:41:15.671Z</time></trkpt><trkpt lat="42.2872944" lon="18.8511641"><ele>7.5</ele><time>2026-05-04T07:41:16.67Z</time></trkpt><trkpt lat="42.287338" lon="18.850986"><ele>7.0</ele><time>2026-05-04T07:41:17.67Z</time></trkpt><trkpt lat="42.2873845" lon="18.8508173"><ele>6.75</ele><time>2026-05-04T07:41:18.671Z</time></trkpt><trkpt lat="42.2874331" lon="18.8506585"><ele>6.5</ele><time>2026-05-04T07:41:19.67Z</time></trkpt><trkpt lat="42.2874763" lon="18.8505046"><ele>6.25</ele><time>2026-05-04T07:41:20.67Z</time></trkpt><trkpt lat="42.2875207" lon="18.8503562"><ele>6.0</ele><time>2026-05-04T07:41:21.67Z</time></trkpt><trkpt lat="42.28757" lon="18.8502145"><ele>5.8</ele><time>2026-05-04T07:41:22.67Z</time></trkpt><trkpt lat="42.2876153" lon="18.8500709"><ele>5.6</ele><time>2026-05-04T07:41:23.67Z</time></trkpt><trkpt lat="42.2876606" lon="18.8499327"><ele>5.4</ele><time>2026-05-04T07:41:24.67Z</time></trkpt><trkpt lat="42.2877024" lon="18.8498002"><ele>5.2</ele><time>2026-05-04T07:41:25.67Z</time></trkpt><trkpt lat="42.2877427" lon="18.849669"><ele>5.0</ele><time>2026-05-04T07:41:26.671Z</time></trkpt><trkpt lat="42.2877849" lon="18.8495405"><ele>5.0</ele><time>2026-05-04T07:41:27.671Z</time></trkpt><trkpt lat="42.2878338" lon="18.8494089"><ele>5.0</ele><time>2026-05-04T07:41:28.671Z</time></trkpt><trkpt lat="42.2878761" lon="18.8492757"><ele>5.0</ele><time>2026-05-04T07:41:29.67Z</time></trkpt><trkpt lat="42.2879159" lon="18.8491433"><ele>5.0</ele><time>2026-05-04T07:41:30.671Z</time></trkpt><trkpt lat="42.2879501" lon="18.8490141"><ele>5.0</ele><time>2026-05-04T07:41:31.671Z</time></trkpt><trkpt lat="42.2879861" lon="18.8488817"><ele>4.6</ele><time>2026-05-04T07:41:32.67Z</time></trkpt><trkpt lat="42.2880257" lon="18.8487429"><ele>4.2</ele><time>2026-05-04T07:41:33.67Z</time></trkpt><trkpt lat="42.2880689" lon="18.8486067"><ele>3.8</ele><time>2026-05-04T07:41:34.671Z</time></trkpt><trkpt lat="42.2880986" lon="18.8484595"><ele>3.4</ele><time>2026-05-04T07:41:35.67Z</time></trkpt><trkpt lat="42.2881282" lon="18.8483216"><ele>3.0</ele><time>2026-05-04T07:41:36.67Z</time></trkpt><trkpt lat="42.2881611" lon="18.848185"><ele>3.8</ele><time>2026-05-04T07:41:37.67Z</time></trkpt><trkpt lat="42.28819" lon="18.8480494"><ele>4.6</ele><time>2026-05-04T07:41:38.671Z</time></trkpt><trkpt lat="42.2882173" lon="18.8479103"><ele>5.3999999999999995</ele><time>2026-05-04T07:41:39.67Z</time></trkpt><trkpt lat="42.2882438" lon="18.8477696"><ele>6.199999999999999</ele><time>2026-05-04T07:41:40.671Z</time></trkpt><trkpt lat="42.2882703" lon="18.847627"><ele>7.0</ele><time>2026-05-04T07:41:41.671Z</time></trkpt><trkpt lat="42.288295" lon="18.8474857"><ele>7.0</ele><time>2026-05-04T07:41:42.67Z</time></trkpt><trkpt lat="42.2883247" lon="18.8473347"><ele>6.999999999999999</ele><time>2026-05-04T07:41:43.67Z</time></trkpt><trkpt lat="42.2883474" lon="18.8471872"><ele>6.999999999999999</ele><time>2026-05-04T07:41:44.671Z</time></trkpt><trkpt lat="42.2883658" lon="18.8470371"><ele>7.0</ele><time>2026-05-04T07:41:45.671Z</time></trkpt><trkpt lat="42.2883803" lon="18.8469045"><ele>7.0</ele><time>2026-05-04T07:41:46.67Z</time></trkpt><trkpt lat="42.2883914" lon="18.8467956"><ele>7.333333333333334</ele><time>2026-05-04T07:41:47.671Z</time></trkpt><trkpt lat="42.2884022" lon="18.8466899"><ele>7.666666666666667</ele><time>2026-05-04T07:41:48.67Z</time></trkpt><trkpt lat="42.2884138" lon="18.8466015"><ele>8.0</ele><time>2026-05-04T07:41:49.671Z</time></trkpt><trkpt lat="42.288429" lon="18.84646"><ele>8.333333333333334</ele><time>2026-05-04T07:41:51.671Z</time></trkpt><trkpt lat="42.2884367" lon="18.8463672"><ele>8.666666666666666</ele><time>2026-05-04T07:41:53.67Z</time></trkpt><trkpt lat="42.2884434" lon="18.8462643"><ele>9.0</ele><time>2026-05-04T07:42:17.671Z</time></trkpt><trkpt lat="42.2884742" lon="18.8461676"><ele>9.0</ele><time>2026-05-04T07:42:31.67Z</time></trkpt><trkpt lat="42.2884844" lon="18.8460801"><ele>9.0</ele><time>2026-05-04T07:42:32.67Z</time></trkpt><trkpt lat="42.2884885" lon="18.845956"><ele>9.0</ele><time>2026-05-04T07:42:33.67Z</time></trkpt><trkpt lat="42.2885049" lon="18.845807"><ele>9.0</ele><time>2026-05-04T07:42:34.67Z</time></trkpt><trkpt lat="42.2885161" lon="18.8456378"><ele>9.0</ele><time>2026-05-04T07:42:35.671Z</time></trkpt><trkpt lat="42.2885293" lon="18.8454561"><ele>9.0</ele><time>2026-05-04T07:42:36.671Z</time></trkpt><trkpt lat="42.2885302" lon="18.8452576"><ele>9.0</ele><time>2026-05-04T07:42:37.67Z</time></trkpt><trkpt lat="42.288569" lon="18.8450887"><ele>9.0</ele><time>2026-05-04T07:42:38.671Z</time></trkpt><trkpt lat="42.2885989" lon="18.8449009"><ele>9.0</ele><time>2026-05-04T07:42:39.671Z</time></trkpt><trkpt lat="42.2885737" lon="18.8446593"><ele>8.666666666666666</ele><time>2026-05-04T07:42:40.671Z</time></trkpt><trkpt lat="42.2885344" lon="18.8444628"><ele>8.333333333333332</ele><time>2026-05-04T07:42:41.67Z</time></trkpt><trkpt lat="42.2885276" lon="18.8442619"><ele>8.0</ele><time>2026-05-04T07:42:42.671Z</time></trkpt><trkpt lat="42.2885164" lon="18.8440534"><ele>8.0</ele><time>2026-05-04T07:42:43.67Z</time></trkpt><trkpt lat="42.2885011" lon="18.8438461"><ele>8.0</ele><time>2026-05-04T07:42:44.67Z</time></trkpt><trkpt lat="42.288502" lon="18.8436506"><ele>8.0</ele><time>2026-05-04T07:42:45.671Z</time></trkpt><trkpt lat="42.2884832" lon="18.8434475"><ele>8.0</ele><time>2026-05-04T07:42:46.67Z</time></trkpt><trkpt lat="42.2884597" lon="18.8432431"><ele>8.0</ele><time>2026-05-04T07:42:47.671Z</time></trkpt><trkpt lat="42.2884333" lon="18.8430356"><ele>8.0</ele><time>2026-05-04T07:42:48.67Z</time></trkpt><trkpt lat="42.2884101" lon="18.8428407"><ele>8.666666666666666</ele><time>2026-05-04T07:42:49.67Z</time></trkpt><trkpt lat="42.2883621" lon="18.8426268"><ele>9.333333333333334</ele><time>2026-05-04T07:42:50.67Z</time></trkpt><trkpt lat="42.2883279" lon="18.8424331"><ele>10.0</ele><time>2026-05-04T07:42:51.67Z</time></trkpt><trkpt lat="42.2882563" lon="18.8422574"><ele>10.0</ele><time>2026-05-04T07:42:52.67Z</time></trkpt><trkpt lat="42.2882166" lon="18.8420841"><ele>10.0</ele><time>2026-05-04T07:42:53.671Z</time></trkpt><trkpt lat="42.2881893" lon="18.8419155"><ele>10.0</ele><time>2026-05-04T07:42:54.67Z</time></trkpt><trkpt lat="42.2881532" lon="18.8417418"><ele>10.0</ele><time>2026-05-04T07:42:55.67Z</time></trkpt><trkpt lat="42.2881138" lon="18.8415602"><ele>10.0</ele><time>2026-05-04T07:42:56.671Z</time></trkpt><trkpt lat="42.2880688" lon="18.8413825"><ele>10.0</ele><time>2026-05-04T07:42:57.67Z</time></trkpt><trkpt lat="42.2880335" lon="18.8412084"><ele>10.0</ele><time>2026-05-04T07:42:58.67Z</time></trkpt><trkpt lat="42.2879782" lon="18.8410408"><ele>10.0</ele><time>2026-05-04T07:42:59.67Z</time></trkpt><trkpt lat="42.2879137" lon="18.8408617"><ele>10.0</ele><time>2026-05-04T07:43:00.67Z</time></trkpt><trkpt lat="42.2878483" lon="18.840673"><ele>10.0</ele><time>2026-05-04T07:43:01.671Z</time></trkpt><trkpt lat="42.2877865" lon="18.8404865"><ele>10.0</ele><time>2026-05-04T07:43:02.671Z</time></trkpt><trkpt lat="42.2877261" lon="18.8402877"><ele>9.5</ele><time>2026-05-04T07:43:03.671Z</time></trkpt><trkpt lat="42.2876659" lon="18.8401007"><ele>9.0</ele><time>2026-05-04T07:43:04.671Z</time></trkpt><trkpt lat="42.2876055" lon="18.8399359"><ele>8.5</ele><time>2026-05-04T07:43:05.67Z</time></trkpt><trkpt lat="42.287543" lon="18.8397863"><ele>8.0</ele><time>2026-05-04T07:43:06.671Z</time></trkpt><trkpt lat="42.2874747" lon="18.8396652"><ele>8.0</ele><time>2026-05-04T07:43:07.67Z</time></trkpt><trkpt lat="42.2874278" lon="18.8395719"><ele>8.0</ele><time>2026-05-04T07:43:08.67Z</time></trkpt><trkpt lat="42.2873852" lon="18.8394548"><ele>8.0</ele><time>2026-05-04T07:43:10.671Z</time></trkpt><trkpt lat="42.2873346" lon="18.8393282"><ele>8.0</ele><time>2026-05-04T07:43:51.67Z</time></trkpt><trkpt lat="42.2872592" lon="18.8391593"><ele>8.0</ele><time>2026-05-04T07:43:53.67Z</time></trkpt><trkpt lat="42.2872059" lon="18.8390307"><ele>7.75</ele><time>2026-05-04T07:43:54.671Z</time></trkpt><trkpt lat="42.2871379" lon="18.8388864"><ele>7.5</ele><time>2026-05-04T07:43:55.67Z</time></trkpt><trkpt lat="42.2870484" lon="18.8387179"><ele>7.25</ele><time>2026-05-04T07:43:56.67Z</time></trkpt><trkpt lat="42.2869606" lon="18.8385431"><ele>7.0</ele><time>2026-05-04T07:43:57.67Z</time></trkpt><trkpt lat="42.2868607" lon="18.8383476"><ele>6.0</ele><time>2026-05-04T07:43:58.67Z</time></trkpt><trkpt lat="42.2867501" lon="18.8381489"><ele>5.0</ele><time>2026-05-04T07:43:59.671Z</time></trkpt><trkpt lat="42.2866374" lon="18.8379569"><ele>4.0</ele><time>2026-05-04T07:44:00.67Z</time></trkpt><trkpt lat="42.2865369" lon="18.83778"><ele>4.333333333333333</ele><time>2026-05-04T07:44:01.67Z</time></trkpt><trkpt lat="42.286424" lon="18.8376164"><ele>4.666666666666667</ele><time>2026-05-04T07:44:02.671Z</time></trkpt><trkpt lat="42.2863199" lon="18.8374595"><ele>5.0</ele><time>2026-05-04T07:44:03.671Z</time></trkpt><trkpt lat="42.2862241" lon="18.8373072"><ele>5.0</ele><time>2026-05-04T07:44:04.67Z</time></trkpt><trkpt lat="42.2861363" lon="18.8371749"><ele>5.0</ele><time>2026-05-04T07:44:05.671Z</time></trkpt><trkpt lat="42.2860553" lon="18.8370584"><ele>5.0</ele><time>2026-05-04T07:44:06.67Z</time></trkpt><trkpt lat="42.2859745" lon="18.8369576"><ele>5.0</ele><time>2026-05-04T07:44:07.671Z</time></trkpt><trkpt lat="42.2859154" lon="18.8368678"><ele>5.0</ele><time>2026-05-04T07:44:08.671Z</time></trkpt><trkpt lat="42.2858676" lon="18.8368039"><ele>5.0</ele><time>2026-05-04T07:44:09.671Z</time></trkpt><trkpt lat="42.2858179" lon="18.836731"><ele>5.0</ele><time>2026-05-04T07:44:11.671Z</time></trkpt><trkpt lat="42.2857703" lon="18.8366299"><ele>5.0</ele><time>2026-05-04T07:44:50.671Z</time></trkpt><trkpt lat="42.2856826" lon="18.8365565"><ele>5.0</ele><time>2026-05-04T07:44:51.67Z</time></trkpt><trkpt lat="42.2856134" lon="18.8364959"><ele>5.0</ele><time>2026-05-04T07:44:52.671Z</time></trkpt><trkpt lat="42.2855361" lon="18.8364361"><ele>5.0</ele><time>2026-05-04T07:44:53.67Z</time></trkpt><trkpt lat="42.285474" lon="18.8363758"><ele>5.0</ele><time>2026-05-04T07:44:54.671Z</time></trkpt><trkpt lat="42.2853849" lon="18.8362945"><ele>5.0</ele><time>2026-05-04T07:44:56.67Z</time></trkpt><trkpt lat="42.2853092" lon="18.8362324"><ele>5.0</ele><time>2026-05-04T07:44:58.67Z</time></trkpt><trkpt lat="42.2852359" lon="18.8361685"><ele>5.0</ele><time>2026-05-04T07:45:00.671Z</time></trkpt><trkpt lat="42.2851612" lon="18.8360937"><ele>5.0</ele><time>2026-05-04T07:45:02.671Z</time></trkpt><trkpt lat="42.2850771" lon="18.8360219"><ele>5.0</ele><time>2026-05-04T07:45:04.67Z</time></trkpt><trkpt lat="42.2849896" lon="18.8359435"><ele>5.0</ele><time>2026-05-04T07:45:06.67Z</time></trkpt><trkpt lat="42.2848958" lon="18.8358588"><ele>5.0</ele><time>2026-05-04T07:45:08.67Z</time></trkpt><trkpt lat="42.2848074" lon="18.8357951"><ele>5.0</ele><time>2026-05-04T07:45:10.67Z</time></trkpt><trkpt lat="42.2847418" lon="18.8357366"><ele>5.0</ele><time>2026-05-04T07:45:12.671Z</time></trkpt><trkpt lat="42.2846728" lon="18.8356656"><ele>5.0</ele><time>2026-05-04T07:45:15.67Z</time></trkpt><trkpt lat="42.284587" lon="18.8355861"><ele>5.0</ele><time>2026-05-04T07:45:17.67Z</time></trkpt><trkpt lat="42.2845241" lon="18.8355255"><ele>5.0</ele><time>2026-05-04T07:45:18.671Z</time></trkpt><trkpt lat="42.2844594" lon="18.835459"><ele>5.0</ele><time>2026-05-04T07:45:19.67Z</time></trkpt><trkpt lat="42.28437" lon="18.8353859"><ele>5.0</ele><time>2026-05-04T07:45:20.67Z</time></trkpt><trkpt lat="42.2842621" lon="18.835286"><ele>5.0</ele><time>2026-05-04T07:45:21.67Z</time></trkpt><trkpt lat="42.284141" lon="18.8351674"><ele>5.0</ele><time>2026-05-04T07:45:22.671Z</time></trkpt><trkpt lat="42.283998" lon="18.8350234"><ele>5.0</ele><time>2026-05-04T07:45:23.671Z</time></trkpt><trkpt lat="42.2838516" lon="18.8348738"><ele>6.333333333333334</ele><time>2026-05-04T07:45:24.671Z</time></trkpt><trkpt lat="42.2837048" lon="18.8347184"><ele>7.666666666666667</ele><time>2026-05-04T07:45:25.67Z</time></trkpt><trkpt lat="42.2835646" lon="18.8345762"><ele>9.0</ele><time>2026-05-04T07:45:26.67Z</time></trkpt><trkpt lat="42.2834335" lon="18.8344518"><ele>9.0</ele><time>2026-05-04T07:45:27.67Z</time></trkpt><trkpt lat="42.2833097" lon="18.8343482"><ele>9.0</ele><time>2026-05-04T07:45:28.67Z</time></trkpt><trkpt lat="42.2831908" lon="18.8342599"><ele>9.0</ele><time>2026-05-04T07:45:29.671Z</time></trkpt><trkpt lat="42.2830734" lon="18.8341812"><ele>9.0</ele><time>2026-05-04T07:45:30.671Z</time></trkpt><trkpt lat="42.2829577" lon="18.8341149"><ele>12.25</ele><time>2026-05-04T07:45:31.671Z</time></trkpt><trkpt lat="42.2828421" lon="18.8340618"><ele>15.5</ele><time>2026-05-04T07:45:32.67Z</time></trkpt><trkpt lat="42.282723" lon="18.834016"><ele>18.75</ele><time>2026-05-04T07:45:33.67Z</time></trkpt><trkpt lat="42.2825992" lon="18.8339861"><ele>22.0</ele><time>2026-05-04T07:45:34.67Z</time></trkpt><trkpt lat="42.2824772" lon="18.8339675"><ele>22.0</ele><time>2026-05-04T07:45:35.671Z</time></trkpt><trkpt lat="42.2823555" lon="18.8339664"><ele>22.0</ele><time>2026-05-04T07:45:36.67Z</time></trkpt><trkpt lat="42.282231" lon="18.8339756"><ele>22.0</ele><time>2026-05-04T07:45:37.67Z</time></trkpt><trkpt lat="42.2821081" lon="18.8339978"><ele>22.0</ele><time>2026-05-04T07:45:38.671Z</time></trkpt><trkpt lat="42.2819872" lon="18.8340263"><ele>23.5</ele><time>2026-05-04T07:45:39.671Z</time></trkpt><trkpt lat="42.2818599" lon="18.8340469"><ele>25.0</ele><time>2026-05-04T07:45:40.67Z</time></trkpt><trkpt lat="42.2817402" lon="18.8340805"><ele>26.5</ele><time>2026-05-04T07:45:41.67Z</time></trkpt><trkpt lat="42.2816099" lon="18.8341157"><ele>28.0</ele><time>2026-05-04T07:45:42.671Z</time></trkpt><trkpt lat="42.2814778" lon="18.8341398"><ele>29.0</ele><time>2026-05-04T07:45:43.67Z</time></trkpt><trkpt lat="42.2813444" lon="18.8341542"><ele>30.0</ele><time>2026-05-04T07:45:44.67Z</time></trkpt><trkpt lat="42.2812171" lon="18.8341519"><ele>31.0</ele><time>2026-05-04T07:45:45.67Z</time></trkpt><trkpt lat="42.2810836" lon="18.8341295"><ele>32.0</ele><time>2026-05-04T07:45:46.671Z</time></trkpt><trkpt lat="42.2809584" lon="18.8340989"><ele>32.0</ele><time>2026-05-04T07:45:47.671Z</time></trkpt><trkpt lat="42.2808446" lon="18.8340403"><ele>32.0</ele><time>2026-05-04T07:45:48.67Z</time></trkpt><trkpt lat="42.2807263" lon="18.8339648"><ele>32.0</ele><time>2026-05-04T07:45:49.67Z</time></trkpt><trkpt lat="42.2806085" lon="18.8338664"><ele>32.0</ele><time>2026-05-04T07:45:50.671Z</time></trkpt><trkpt lat="42.2805024" lon="18.8337442"><ele>30.5</ele><time>2026-05-04T07:45:51.67Z</time></trkpt><trkpt lat="42.2803996" lon="18.8336102"><ele>29.0</ele><time>2026-05-04T07:45:52.671Z</time></trkpt><trkpt lat="42.2803106" lon="18.8334489"><ele>27.5</ele><time>2026-05-04T07:45:53.671Z</time></trkpt><trkpt lat="42.2802212" lon="18.8332797"><ele>26.0</ele><time>2026-05-04T07:45:54.671Z</time></trkpt><trkpt lat="42.2801451" lon="18.8331215"><ele>29.25</ele><time>2026-05-04T07:45:55.67Z</time></trkpt><trkpt lat="42.2800743" lon="18.8329664"><ele>32.5</ele><time>2026-05-04T07:45:56.67Z</time></trkpt><trkpt lat="42.2799958" lon="18.8328396"><ele>35.75</ele><time>2026-05-04T07:45:57.67Z</time></trkpt><trkpt lat="42.2798894" lon="18.8327477"><ele>39.0</ele><time>2026-05-04T07:45:58.671Z</time></trkpt><trkpt lat="42.2797645" lon="18.8326984"><ele>39.75</ele><time>2026-05-04T07:45:59.671Z</time></trkpt><trkpt lat="42.2796366" lon="18.8326767"><ele>40.5</ele><time>2026-05-04T07:46:00.671Z</time></trkpt><trkpt lat="42.2795056" lon="18.8326922"><ele>41.25</ele><time>2026-05-04T07:46:01.67Z</time></trkpt><trkpt lat="42.2793847" lon="18.8327402"><ele>42.0</ele><time>2026-05-04T07:46:02.67Z</time></trkpt><trkpt lat="42.2792759" lon="18.8328231"><ele>42.0</ele><time>2026-05-04T07:46:03.67Z</time></trkpt><trkpt lat="42.2791739" lon="18.8329318"><ele>42.0</ele><time>2026-05-04T07:46:04.671Z</time></trkpt><trkpt lat="42.2790792" lon="18.8330482"><ele>42.0</ele><time>2026-05-04T07:46:05.671Z</time></trkpt><trkpt lat="42.2789869" lon="18.8331554"><ele>42.0</ele><time>2026-05-04T07:46:06.671Z</time></trkpt><trkpt lat="42.2788902" lon="18.8332629"><ele>46.25</ele><time>2026-05-04T07:46:07.67Z</time></trkpt><trkpt lat="42.2787861" lon="18.833353"><ele>50.5</ele><time>2026-05-04T07:46:08.67Z</time></trkpt><trkpt lat="42.2786694" lon="18.8334216"><ele>54.75</ele><time>2026-05-04T07:46:09.671Z</time></trkpt><trkpt lat="42.2785413" lon="18.8334508"><ele>59.0</ele><time>2026-05-04T07:46:10.67Z</time></trkpt><trkpt lat="42.2784156" lon="18.833446"><ele>59.0</ele><time>2026-05-04T07:46:11.67Z</time></trkpt><trkpt lat="42.2782849" lon="18.8334007"><ele>59.0</ele><time>2026-05-04T07:46:12.67Z</time></trkpt><trkpt lat="42.2781677" lon="18.8333324"><ele>59.0</ele><time>2026-05-04T07:46:13.671Z</time></trkpt><trkpt lat="42.2780585" lon="18.8332391"><ele>59.0</ele><time>2026-05-04T07:46:14.671Z</time></trkpt><trkpt lat="42.2779732" lon="18.8331082"><ele>52.66666666666667</ele><time>2026-05-04T07:46:15.671Z</time></trkpt><trkpt lat="42.2779122" lon="18.8329358"><ele>46.333333333333336</ele><time>2026-05-04T07:46:16.67Z</time></trkpt><trkpt lat="42.2778678" lon="18.8327348"><ele>40.0</ele><time>2026-05-04T07:46:17.67Z</time></trkpt><trkpt lat="42.2778293" lon="18.8325047"><ele>40.0</ele><time>2026-05-04T07:46:18.671Z</time></trkpt><trkpt lat="42.2777887" lon="18.8322689"><ele>40.0</ele><time>2026-05-04T07:46:19.67Z</time></trkpt><trkpt lat="42.2777555" lon="18.832044"><ele>40.0</ele><time>2026-05-04T07:46:20.671Z</time></trkpt><trkpt lat="42.2777296" lon="18.8318119"><ele>42.25</ele><time>2026-05-04T07:46:21.671Z</time></trkpt><trkpt lat="42.2777281" lon="18.8316353"><ele>44.5</ele><time>2026-05-04T07:46:22.671Z</time></trkpt><trkpt lat="42.2777441" lon="18.8314547"><ele>46.75</ele><time>2026-05-04T07:46:23.67Z</time></trkpt><trkpt lat="42.2777884" lon="18.8312846"><ele>49.0</ele><time>2026-05-04T07:46:24.67Z</time></trkpt><trkpt lat="42.2778508" lon="18.8311141"><ele>49.0</ele><time>2026-05-04T07:46:25.67Z</time></trkpt><trkpt lat="42.277916" lon="18.8309491"><ele>49.0</ele><time>2026-05-04T07:46:26.67Z</time></trkpt><trkpt lat="42.277958" lon="18.830769"><ele>49.0</ele><time>2026-05-04T07:46:27.67Z</time></trkpt><trkpt lat="42.2780115" lon="18.8305861"><ele>49.0</ele><time>2026-05-04T07:46:28.67Z</time></trkpt><trkpt lat="42.2780313" lon="18.8303787"><ele>49.0</ele><time>2026-05-04T07:46:29.671Z</time></trkpt><trkpt lat="42.2780254" lon="18.8301595"><ele>49.0</ele><time>2026-05-04T07:46:30.67Z</time></trkpt><trkpt lat="42.2779578" lon="18.8299829"><ele>49.0</ele><time>2026-05-04T07:46:31.671Z</time></trkpt><trkpt lat="42.2779214" lon="18.8297783"><ele>49.75</ele><time>2026-05-04T07:46:32.671Z</time></trkpt><trkpt lat="42.2779025" lon="18.8295818"><ele>50.5</ele><time>2026-05-04T07:46:33.671Z</time></trkpt><trkpt lat="42.2779014" lon="18.829418"><ele>51.25</ele><time>2026-05-04T07:46:34.671Z</time></trkpt><trkpt lat="42.2779321" lon="18.8292458"><ele>52.0</ele><time>2026-05-04T07:46:35.67Z</time></trkpt><trkpt lat="42.2779701" lon="18.8290721"><ele>53.75</ele><time>2026-05-04T07:46:36.67Z</time></trkpt><trkpt lat="42.2780196" lon="18.8289299"><ele>55.5</ele><time>2026-05-04T07:46:37.67Z</time></trkpt><trkpt lat="42.2780647" lon="18.8287616"><ele>57.25</ele><time>2026-05-04T07:46:38.67Z</time></trkpt><trkpt lat="42.2780895" lon="18.8285689"><ele>59.0</ele><time>2026-05-04T07:46:39.671Z</time></trkpt><trkpt lat="42.2780971" lon="18.8283781"><ele>59.0</ele><time>2026-05-04T07:46:40.67Z</time></trkpt><trkpt lat="42.2780848" lon="18.8281465"><ele>59.0</ele><time>2026-05-04T07:46:41.67Z</time></trkpt><trkpt lat="42.2780652" lon="18.827911"><ele>59.0</ele><time>2026-05-04T07:46:42.671Z</time></trkpt><trkpt lat="42.2780594" lon="18.827663"><ele>60.333333333333336</ele><time>2026-05-04T07:46:43.67Z</time></trkpt><trkpt lat="42.2780436" lon="18.8274171"><ele>61.66666666666667</ele><time>2026-05-04T07:46:44.671Z</time></trkpt><trkpt lat="42.2780219" lon="18.8271667"><ele>63.0</ele><time>2026-05-04T07:46:45.67Z</time></trkpt><trkpt lat="42.2779956" lon="18.8269171"><ele>65.66666666666667</ele><time>2026-05-04T07:46:46.67Z</time></trkpt><trkpt lat="42.277983" lon="18.8266626"><ele>68.33333333333334</ele><time>2026-05-04T07:46:47.671Z</time></trkpt><trkpt lat="42.2779729" lon="18.8264073"><ele>71.0</ele><time>2026-05-04T07:46:48.671Z</time></trkpt><trkpt lat="42.2779662" lon="18.8261738"><ele>75.0</ele><time>2026-05-04T07:46:49.671Z</time></trkpt><trkpt lat="42.2779671" lon="18.8259457"><ele>79.0</ele><time>2026-05-04T07:46:50.671Z</time></trkpt><trkpt lat="42.277971" lon="18.8257311"><ele>83.0</ele><time>2026-05-04T07:46:51.67Z</time></trkpt><trkpt lat="42.2779773" lon="18.8255189"><ele>83.0</ele><time>2026-05-04T07:46:52.67Z</time></trkpt><trkpt lat="42.2780003" lon="18.8252963"><ele>83.0</ele><time>2026-05-04T07:46:53.671Z</time></trkpt><trkpt lat="42.2780277" lon="18.8250775"><ele>83.0</ele><time>2026-05-04T07:46:54.67Z</time></trkpt><trkpt lat="42.2780631" lon="18.8248553"><ele>79.33333333333334</ele><time>2026-05-04T07:46:55.671Z</time></trkpt><trkpt lat="42.2781026" lon="18.8246414"><ele>75.66666666666667</ele><time>2026-05-04T07:46:56.67Z</time></trkpt><trkpt lat="42.2781484" lon="18.8244316"><ele>72.0</ele><time>2026-05-04T07:46:57.67Z</time></trkpt><trkpt lat="42.2812439" lon="18.8199826"><ele>72.0</ele><time>2026-05-04T07:47:27.671Z</time></trkpt><trkpt lat="42.2813189" lon="18.8198961"><ele>72.0</ele><time>2026-05-04T07:47:28.67Z</time></trkpt><trkpt lat="42.2814165" lon="18.8197451"><ele>72.0</ele><time>2026-05-04T07:47:29.671Z</time></trkpt><trkpt lat="42.2815474" lon="18.8196394"><ele>72.0</ele><time>2026-05-04T07:47:30.671Z</time></trkpt><trkpt lat="42.2816916" lon="18.8195508"><ele>86.33333333333334</ele><time>2026-05-04T07:47:31.67Z</time></trkpt><trkpt lat="42.2818391" lon="18.8194782"><ele>100.66666666666667</ele><time>2026-05-04T07:47:32.67Z</time></trkpt><trkpt lat="42.2819882" lon="18.8194012"><ele>115.0</ele><time>2026-05-04T07:47:33.67Z</time></trkpt><trkpt lat="42.2821329" lon="18.8193194"><ele>114.0</ele><time>2026-05-04T07:47:34.67Z</time></trkpt><trkpt lat="42.2822726" lon="18.819211"><ele>113.0</ele><time>2026-05-04T07:47:35.671Z</time></trkpt><trkpt lat="42.2823876" lon="18.8190774"><ele>112.0</ele><time>2026-05-04T07:47:36.671Z</time></trkpt><trkpt lat="42.2824957" lon="18.8189278"><ele>112.0</ele><time>2026-05-04T07:47:37.671Z</time></trkpt><trkpt lat="42.2825964" lon="18.8187682"><ele>112.0</ele><time>2026-05-04T07:47:38.67Z</time></trkpt><trkpt lat="42.2826886" lon="18.8186016"><ele>112.0</ele><time>2026-05-04T07:47:39.671Z</time></trkpt><trkpt lat="42.2827713" lon="18.8184327"><ele>116.0</ele><time>2026-05-04T07:47:40.671Z</time></trkpt><trkpt lat="42.282859" lon="18.8182656"><ele>120.0</ele><time>2026-05-04T07:47:41.67Z</time></trkpt><trkpt lat="42.2829472" lon="18.8181041"><ele>124.0</ele><time>2026-05-04T07:47:42.67Z</time></trkpt><trkpt lat="42.2830388" lon="18.8179596"><ele>128.0</ele><time>2026-05-04T07:47:43.671Z</time></trkpt><trkpt lat="42.2831365" lon="18.817828"><ele>128.0</ele><time>2026-05-04T07:47:44.671Z</time></trkpt><trkpt lat="42.28323" lon="18.8176949"><ele>128.0</ele><time>2026-05-04T07:47:45.67Z</time></trkpt><trkpt lat="42.283314" lon="18.8175634"><ele>128.0</ele><time>2026-05-04T07:47:46.671Z</time></trkpt><trkpt lat="42.2833866" lon="18.8174195"><ele>128.0</ele><time>2026-05-04T07:47:47.671Z</time></trkpt><trkpt lat="42.283455" lon="18.8172638"><ele>120.0</ele><time>2026-05-04T07:47:48.671Z</time></trkpt><trkpt lat="42.2835122" lon="18.8171112"><ele>112.0</ele><time>2026-05-04T07:47:49.67Z</time></trkpt><trkpt lat="42.2835738" lon="18.8169553"><ele>104.0</ele><time>2026-05-04T07:47:50.671Z</time></trkpt><trkpt lat="42.283634" lon="18.8167949"><ele>96.0</ele><time>2026-05-04T07:47:51.67Z</time></trkpt><trkpt lat="42.2837089" lon="18.8166481"><ele>101.75</ele><time>2026-05-04T07:47:52.671Z</time></trkpt><trkpt lat="42.2837867" lon="18.8165064"><ele>107.5</ele><time>2026-05-04T07:47:53.671Z</time></trkpt><trkpt lat="42.2838752" lon="18.8163788"><ele>113.25</ele><time>2026-05-04T07:47:54.67Z</time></trkpt><trkpt lat="42.2839615" lon="18.8162626"><ele>119.0</ele><time>2026-05-04T07:47:55.67Z</time></trkpt><trkpt lat="42.2840517" lon="18.8161514"><ele>119.0</ele><time>2026-05-04T07:47:56.671Z</time></trkpt><trkpt lat="42.2841446" lon="18.8160557"><ele>119.0</ele><time>2026-05-04T07:47:57.671Z</time></trkpt><trkpt lat="42.284238" lon="18.8159793"><ele>119.0</ele><time>2026-05-04T07:47:58.671Z</time></trkpt><trkpt lat="42.2843327" lon="18.815909"><ele>119.0</ele><time>2026-05-04T07:47:59.67Z</time></trkpt><trkpt lat="42.2844257" lon="18.8158279"><ele>119.0</ele><time>2026-05-04T07:48:00.671Z</time></trkpt><trkpt lat="42.2845136" lon="18.8157434"><ele>118.5</ele><time>2026-05-04T07:48:01.67Z</time></trkpt><trkpt lat="42.2846057" lon="18.8156462"><ele>118.0</ele><time>2026-05-04T07:48:02.67Z</time></trkpt><trkpt lat="42.2846947" lon="18.8155426"><ele>117.5</ele><time>2026-05-04T07:48:03.671Z</time></trkpt><trkpt lat="42.2847736" lon="18.8154396"><ele>117.0</ele><time>2026-05-04T07:48:04.67Z</time></trkpt><trkpt lat="42.2848626" lon="18.8153326"><ele>117.0</ele><time>2026-05-04T07:48:05.671Z</time></trkpt><trkpt lat="42.2849578" lon="18.8152493"><ele>117.0</ele><time>2026-05-04T07:48:06.67Z</time></trkpt><trkpt lat="42.2850469" lon="18.8151688"><ele>117.0</ele><time>2026-05-04T07:48:07.67Z</time></trkpt><trkpt lat="42.2851517" lon="18.8151029"><ele>117.0</ele><time>2026-05-04T07:48:08.671Z</time></trkpt><trkpt lat="42.2852579" lon="18.815042"><ele>117.0</ele><time>2026-05-04T07:48:09.671Z</time></trkpt><trkpt lat="42.2853602" lon="18.814983"><ele>117.0</ele><time>2026-05-04T07:48:10.67Z</time></trkpt><trkpt lat="42.2854562" lon="18.8149204"><ele>117.0</ele><time>2026-05-04T07:48:11.67Z</time></trkpt><trkpt lat="42.2855501" lon="18.8148349"><ele>117.0</ele><time>2026-05-04T07:48:12.671Z</time></trkpt><trkpt lat="42.2856377" lon="18.8147253"><ele>117.0</ele><time>2026-05-04T07:48:13.67Z</time></trkpt><trkpt lat="42.2857175" lon="18.8145943"><ele>117.0</ele><time>2026-05-04T07:48:14.671Z</time></trkpt><trkpt lat="42.2857909" lon="18.81444"><ele>117.0</ele><time>2026-05-04T07:48:15.67Z</time></trkpt><trkpt lat="42.2858536" lon="18.8142789"><ele>117.0</ele><time>2026-05-04T07:48:16.671Z</time></trkpt><trkpt lat="42.2859143" lon="18.8141122"><ele>113.75</ele><time>2026-05-04T07:48:17.671Z</time></trkpt><trkpt lat="42.2859717" lon="18.8139495"><ele>110.5</ele><time>2026-05-04T07:48:18.67Z</time></trkpt><trkpt lat="42.2860248" lon="18.8137796"><ele>107.25</ele><time>2026-05-04T07:48:19.671Z</time></trkpt><trkpt lat="42.2860707" lon="18.8136075"><ele>104.0</ele><time>2026-05-04T07:48:20.671Z</time></trkpt><trkpt lat="42.2861017" lon="18.8134343"><ele>102.0</ele><time>2026-05-04T07:48:21.67Z</time></trkpt><trkpt lat="42.2861242" lon="18.813263"><ele>100.0</ele><time>2026-05-04T07:48:22.67Z</time></trkpt><trkpt lat="42.286143" lon="18.8130957"><ele>98.0</ele><time>2026-05-04T07:48:23.671Z</time></trkpt><trkpt lat="42.2861443" lon="18.8129375"><ele>96.0</ele><time>2026-05-04T07:48:24.671Z</time></trkpt><trkpt lat="42.2861397" lon="18.8127822"><ele>94.75</ele><time>2026-05-04T07:48:25.67Z</time></trkpt><trkpt lat="42.28613" lon="18.8126278"><ele>93.5</ele><time>2026-05-04T07:48:26.67Z</time></trkpt><trkpt lat="42.2861186" lon="18.8124784"><ele>92.25</ele><time>2026-05-04T07:48:27.671Z</time></trkpt><trkpt lat="42.2861003" lon="18.8123228"><ele>91.0</ele><time>2026-05-04T07:48:28.671Z</time></trkpt><trkpt lat="42.2860809" lon="18.8121725"><ele>91.0</ele><time>2026-05-04T07:48:29.671Z</time></trkpt><trkpt lat="42.2860558" lon="18.8120216"><ele>91.0</ele><time>2026-05-04T07:48:30.671Z</time></trkpt><trkpt lat="42.2860299" lon="18.8118738"><ele>91.0</ele><time>2026-05-04T07:48:31.671Z</time></trkpt><trkpt lat="42.2859868" lon="18.8117243"><ele>91.0</ele><time>2026-05-04T07:48:32.671Z</time></trkpt><trkpt lat="42.2859553" lon="18.8115725"><ele>91.5</ele><time>2026-05-04T07:48:33.67Z</time></trkpt><trkpt lat="42.2859237" lon="18.8114136"><ele>92.0</ele><time>2026-05-04T07:48:34.67Z</time></trkpt><trkpt lat="42.2858876" lon="18.8112594"><ele>92.5</ele><time>2026-05-04T07:48:35.67Z</time></trkpt><trkpt lat="42.2858484" lon="18.8111072"><ele>93.0</ele><time>2026-05-04T07:48:36.67Z</time></trkpt><trkpt lat="42.2858139" lon="18.8109553"><ele>93.0</ele><time>2026-05-04T07:48:37.67Z</time></trkpt><trkpt lat="42.2857865" lon="18.8108022"><ele>93.0</ele><time>2026-05-04T07:48:38.67Z</time></trkpt><trkpt lat="42.2857579" lon="18.8106578"><ele>93.0</ele><time>2026-05-04T07:48:39.671Z</time></trkpt><trkpt lat="42.2857331" lon="18.8105053"><ele>93.0</ele><time>2026-05-04T07:48:40.67Z</time></trkpt><trkpt lat="42.2857093" lon="18.8103541"><ele>93.0</ele><time>2026-05-04T07:48:41.67Z</time></trkpt><trkpt lat="42.2856874" lon="18.8101944"><ele>93.0</ele><time>2026-05-04T07:48:42.67Z</time></trkpt><trkpt lat="42.2856643" lon="18.8100208"><ele>93.0</ele><time>2026-05-04T07:48:43.671Z</time></trkpt><trkpt lat="42.2856296" lon="18.8098558"><ele>93.0</ele><time>2026-05-04T07:48:44.671Z</time></trkpt><trkpt lat="42.2855888" lon="18.8096901"><ele>85.0</ele><time>2026-05-04T07:48:45.671Z</time></trkpt><trkpt lat="42.2855342" lon="18.8095362"><ele>77.0</ele><time>2026-05-04T07:48:46.671Z</time></trkpt><trkpt lat="42.2854793" lon="18.8093964"><ele>69.0</ele><time>2026-05-04T07:48:47.671Z</time></trkpt><trkpt lat="42.2854108" lon="18.8092491"><ele>61.0</ele><time>2026-05-04T07:48:48.671Z</time></trkpt><trkpt lat="42.2853305" lon="18.8091181"><ele>61.0</ele><time>2026-05-04T07:48:49.671Z</time></trkpt><trkpt lat="42.2852531" lon="18.8090093"><ele>60.99999999999999</ele><time>2026-05-04T07:48:50.671Z</time></trkpt><trkpt lat="42.2851825" lon="18.8089056"><ele>60.99999999999999</ele><time>2026-05-04T07:48:51.67Z</time></trkpt><trkpt lat="42.2851222" lon="18.8088014"><ele>61.0</ele><time>2026-05-04T07:48:52.671Z</time></trkpt><trkpt lat="42.2850535" lon="18.8086826"><ele>61.0</ele><time>2026-05-04T07:48:53.671Z</time></trkpt><trkpt lat="42.2850053" lon="18.8085661"><ele>59.4</ele><time>2026-05-04T07:48:54.671Z</time></trkpt><trkpt lat="42.2849669" lon="18.8084232"><ele>57.8</ele><time>2026-05-04T07:48:55.67Z</time></trkpt><trkpt lat="42.2849371" lon="18.8082773"><ele>56.199999999999996</ele><time>2026-05-04T07:48:56.671Z</time></trkpt><trkpt lat="42.2849159" lon="18.8081464"><ele>54.599999999999994</ele><time>2026-05-04T07:48:57.671Z</time></trkpt><trkpt lat="42.2849197" lon="18.8080134"><ele>53.0</ele><time>2026-05-04T07:48:58.671Z</time></trkpt><trkpt lat="42.2849766" lon="18.8078832"><ele>53.0</ele><time>2026-05-04T07:48:59.67Z</time></trkpt><trkpt lat="42.2850258" lon="18.807744"><ele>53.0</ele><time>2026-05-04T07:49:00.671Z</time></trkpt><trkpt lat="42.2850915" lon="18.8076047"><ele>53.0</ele><time>2026-05-04T07:49:01.671Z</time></trkpt><trkpt lat="42.2851541" lon="18.8074513"><ele>53.0</ele><time>2026-05-04T07:49:02.67Z</time></trkpt><trkpt lat="42.2852088" lon="18.8072872"><ele>52.75</ele><time>2026-05-04T07:49:03.67Z</time></trkpt><trkpt lat="42.2852532" lon="18.8071176"><ele>52.5</ele><time>2026-05-04T07:49:04.671Z</time></trkpt><trkpt lat="42.2852835" lon="18.8069445"><ele>52.25</ele><time>2026-05-04T07:49:05.671Z</time></trkpt><trkpt lat="42.2853038" lon="18.8067763"><ele>52.0</ele><time>2026-05-04T07:49:06.671Z</time></trkpt><trkpt lat="42.2853154" lon="18.8066133"><ele>52.0</ele><time>2026-05-04T07:49:07.67Z</time></trkpt><trkpt lat="42.2853303" lon="18.8064496"><ele>52.0</ele><time>2026-05-04T07:49:08.67Z</time></trkpt><trkpt lat="42.2853363" lon="18.8063027"><ele>52.0</ele><time>2026-05-04T07:49:09.671Z</time></trkpt><trkpt lat="42.2853619" lon="18.8061578"><ele>52.0</ele><time>2026-05-04T07:49:10.671Z</time></trkpt><trkpt lat="42.2854096" lon="18.8060172"><ele>49.75</ele><time>2026-05-04T07:49:11.67Z</time></trkpt><trkpt lat="42.2854711" lon="18.8058839"><ele>47.5</ele><time>2026-05-04T07:49:12.671Z</time></trkpt><trkpt lat="42.2855401" lon="18.8057615"><ele>45.25</ele><time>2026-05-04T07:49:13.67Z</time></trkpt><trkpt lat="42.2856146" lon="18.805659"><ele>43.0</ele><time>2026-05-04T07:49:14.67Z</time></trkpt><trkpt lat="42.2857117" lon="18.8055771"><ele>49.2</ele><time>2026-05-04T07:49:15.671Z</time></trkpt><trkpt lat="42.2858348" lon="18.8055005"><ele>55.4</ele><time>2026-05-04T07:49:16.671Z</time></trkpt><trkpt lat="42.2859241" lon="18.8054737"><ele>61.60000000000001</ele><time>2026-05-04T07:49:17.67Z</time></trkpt><trkpt lat="42.2860168" lon="18.8054581"><ele>67.8</ele><time>2026-05-04T07:49:18.671Z</time></trkpt><trkpt lat="42.2861277" lon="18.8054554"><ele>74.0</ele><time>2026-05-04T07:49:19.67Z</time></trkpt><trkpt lat="42.28626" lon="18.8054516"><ele>74.0</ele><time>2026-05-04T07:49:20.671Z</time></trkpt><trkpt lat="42.2863864" lon="18.805485"><ele>74.0</ele><time>2026-05-04T07:49:21.671Z</time></trkpt><trkpt lat="42.2865101" lon="18.8055102"><ele>74.0</ele><time>2026-05-04T07:49:22.671Z</time></trkpt><trkpt lat="42.2866355" lon="18.8055346"><ele>74.0</ele><time>2026-05-04T07:49:23.67Z</time></trkpt><trkpt lat="42.2867775" lon="18.8055703"><ele>72.5</ele><time>2026-05-04T07:49:24.671Z</time></trkpt><trkpt lat="42.2869136" lon="18.8055922"><ele>71.0</ele><time>2026-05-04T07:49:25.67Z</time></trkpt><trkpt lat="42.2870544" lon="18.8056046"><ele>69.5</ele><time>2026-05-04T07:49:26.67Z</time></trkpt><trkpt lat="42.2872002" lon="18.8056174"><ele>68.0</ele><time>2026-05-04T07:49:27.671Z</time></trkpt><trkpt lat="42.287359" lon="18.8056532"><ele>63.0</ele><time>2026-05-04T07:49:28.671Z</time></trkpt><trkpt lat="42.2875025" lon="18.805663"><ele>58.0</ele><time>2026-05-04T07:49:29.67Z</time></trkpt><trkpt lat="42.2876541" lon="18.8056808"><ele>53.0</ele><time>2026-05-04T07:49:30.67Z</time></trkpt><trkpt lat="42.2877995" lon="18.8056967"><ele>48.0</ele><time>2026-05-04T07:49:31.67Z</time></trkpt><trkpt lat="42.2879463" lon="18.8057102"><ele>48.0</ele><time>2026-05-04T07:49:32.67Z</time></trkpt><trkpt lat="42.2880862" lon="18.8057271"><ele>48.0</ele><time>2026-05-04T07:49:33.67Z</time></trkpt><trkpt lat="42.2882172" lon="18.8057568"><ele>48.0</ele><time>2026-05-04T07:49:34.67Z</time></trkpt><trkpt lat="42.288348" lon="18.8057958"><ele>48.0</ele><time>2026-05-04T07:49:35.671Z</time></trkpt><trkpt lat="42.2884835" lon="18.8058625"><ele>45.25</ele><time>2026-05-04T07:49:36.67Z</time></trkpt><trkpt lat="42.2886044" lon="18.8059291"><ele>42.5</ele><time>2026-05-04T07:49:37.67Z</time></trkpt><trkpt lat="42.2887149" lon="18.8060149"><ele>39.75</ele><time>2026-05-04T07:49:38.671Z</time></trkpt><trkpt lat="42.2888331" lon="18.8061423"><ele>37.0</ele><time>2026-05-04T07:49:39.671Z</time></trkpt><trkpt lat="42.2889198" lon="18.8062535"><ele>35.4</ele><time>2026-05-04T07:49:40.671Z</time></trkpt><trkpt lat="42.2890044" lon="18.8063696"><ele>33.800000000000004</ele><time>2026-05-04T07:49:41.67Z</time></trkpt><trkpt lat="42.289081" lon="18.8064793"><ele>32.2</ele><time>2026-05-04T07:49:42.67Z</time></trkpt><trkpt lat="42.2891532" lon="18.8065864"><ele>30.6</ele><time>2026-05-04T07:49:43.67Z</time></trkpt><trkpt lat="42.2892255" lon="18.8066854"><ele>29.0</ele><time>2026-05-04T07:49:44.671Z</time></trkpt><trkpt lat="42.2892958" lon="18.8067818"><ele>30.333333333333332</ele><time>2026-05-04T07:49:45.671Z</time></trkpt><trkpt lat="42.2893632" lon="18.8068713"><ele>31.666666666666664</ele><time>2026-05-04T07:49:46.67Z</time></trkpt><trkpt lat="42.2894207" lon="18.8069519"><ele>33.0</ele><time>2026-05-04T07:49:47.671Z</time></trkpt><trkpt lat="42.2894767" lon="18.807023"><ele>34.333333333333336</ele><time>2026-05-04T07:49:48.67Z</time></trkpt><trkpt lat="42.289528" lon="18.8070787"><ele>35.66666666666667</ele><time>2026-05-04T07:49:49.67Z</time></trkpt><trkpt lat="42.2896019" lon="18.807157"><ele>37.0</ele><time>2026-05-04T07:49:51.67Z</time></trkpt><trkpt lat="42.2896693" lon="18.8072343"><ele>37.0</ele><time>2026-05-04T07:49:53.67Z</time></trkpt><trkpt lat="42.2897278" lon="18.8073049"><ele>37.0</ele><time>2026-05-04T07:49:55.67Z</time></trkpt><trkpt lat="42.2897926" lon="18.8073526"><ele>37.0</ele><time>2026-05-04T07:49:59.671Z</time></trkpt><trkpt lat="42.2898546" lon="18.8074036"><ele>37.0</ele><time>2026-05-04T07:50:01.67Z</time></trkpt><trkpt lat="42.289955" lon="18.8074712"><ele>37.0</ele><time>2026-05-04T07:50:03.67Z</time></trkpt><trkpt lat="42.290014" lon="18.8075071"><ele>37.0</ele><time>2026-05-04T07:50:04.671Z</time></trkpt><trkpt lat="42.2900841" lon="18.8075347"><ele>33.66666666666667</ele><time>2026-05-04T07:50:05.67Z</time></trkpt><trkpt lat="42.2901604" lon="18.8075685"><ele>30.333333333333336</ele><time>2026-05-04T07:50:06.67Z</time></trkpt><trkpt lat="42.2902441" lon="18.8075898"><ele>27.0</ele><time>2026-05-04T07:50:07.671Z</time></trkpt><trkpt lat="42.2903329" lon="18.8075988"><ele>23.666666666666668</ele><time>2026-05-04T07:50:08.67Z</time></trkpt><trkpt lat="42.2904089" lon="18.8075973"><ele>20.333333333333336</ele><time>2026-05-04T07:50:09.67Z</time></trkpt><trkpt lat="42.290486" lon="18.8075923"><ele>17.0</ele><time>2026-05-04T07:50:10.67Z</time></trkpt><trkpt lat="42.2905548" lon="18.8075856"><ele>16.5</ele><time>2026-05-04T07:50:11.67Z</time></trkpt><trkpt lat="42.2906626" lon="18.8075685"><ele>16.0</ele><time>2026-05-04T07:50:13.67Z</time></trkpt><trkpt lat="42.2907454" lon="18.8075562"><ele>15.5</ele><time>2026-05-04T07:50:15.67Z</time></trkpt><trkpt lat="42.290819" lon="18.8075214"><ele>15.0</ele><time>2026-05-04T07:50:17.67Z</time></trkpt><trkpt lat="42.2908839" lon="18.8074994"><ele>14.500000000000002</ele><time>2026-05-04T07:50:19.671Z</time></trkpt><trkpt lat="42.2909458" lon="18.8074691"><ele>14.0</ele><time>2026-05-04T07:50:21.671Z</time></trkpt><trkpt lat="42.2910102" lon="18.8074427"><ele>14.000000000000002</ele><time>2026-05-04T07:50:24.671Z</time></trkpt><trkpt lat="42.2910907" lon="18.8074162"><ele>14.0</ele><time>2026-05-04T07:50:27.67Z</time></trkpt><trkpt lat="42.2911714" lon="18.8073954"><ele>14.0</ele><time>2026-05-04T07:50:30.67Z</time></trkpt><trkpt lat="42.291269" lon="18.8073676"><ele>14.0</ele><time>2026-05-04T07:50:33.671Z</time></trkpt><trkpt lat="42.291345" lon="18.8073357"><ele>14.000000000000002</ele><time>2026-05-04T07:50:35.67Z</time></trkpt><trkpt lat="42.2914209" lon="18.8073124"><ele>14.0</ele><time>2026-05-04T07:50:37.671Z</time></trkpt><trkpt lat="42.2915365" lon="18.8073317"><ele>13.666666666666668</ele><time>2026-05-04T07:50:39.67Z</time></trkpt><trkpt lat="42.2916108" lon="18.807329"><ele>13.333333333333334</ele><time>2026-05-04T07:50:40.671Z</time></trkpt><trkpt lat="42.2916851" lon="18.8073179"><ele>13.0</ele><time>2026-05-04T07:50:41.67Z</time></trkpt><trkpt lat="42.2917629" lon="18.8072884"><ele>12.666666666666668</ele><time>2026-05-04T07:50:42.67Z</time></trkpt><trkpt lat="42.2918476" lon="18.8072497"><ele>12.333333333333334</ele><time>2026-05-04T07:50:43.671Z</time></trkpt><trkpt lat="42.291934" lon="18.8072198"><ele>12.0</ele><time>2026-05-04T07:50:44.671Z</time></trkpt><trkpt lat="42.2920255" lon="18.8071802"><ele>12.0</ele><time>2026-05-04T07:50:45.67Z</time></trkpt><trkpt lat="42.2921207" lon="18.8071561"><ele>12.0</ele><time>2026-05-04T07:50:46.671Z</time></trkpt><trkpt lat="42.2922235" lon="18.8071154"><ele>12.0</ele><time>2026-05-04T07:50:47.671Z</time></trkpt><trkpt lat="42.2923284" lon="18.8070836"><ele>12.0</ele><time>2026-05-04T07:50:48.67Z</time></trkpt><trkpt lat="42.2924398" lon="18.8070516"><ele>12.0</ele><time>2026-05-04T07:50:49.671Z</time></trkpt><trkpt lat="42.2925583" lon="18.8070303"><ele>11.25</ele><time>2026-05-04T07:50:50.671Z</time></trkpt><trkpt lat="42.2926819" lon="18.8070009"><ele>10.5</ele><time>2026-05-04T07:50:51.671Z</time></trkpt><trkpt lat="42.2928053" lon="18.8069662"><ele>9.75</ele><time>2026-05-04T07:50:52.671Z</time></trkpt><trkpt lat="42.2929288" lon="18.8069312"><ele>9.0</ele><time>2026-05-04T07:50:53.67Z</time></trkpt><trkpt lat="42.2930582" lon="18.8069041"><ele>9.0</ele><time>2026-05-04T07:50:54.67Z</time></trkpt><trkpt lat="42.2931784" lon="18.8068811"><ele>9.0</ele><time>2026-05-04T07:50:55.67Z</time></trkpt><trkpt lat="42.2932883" lon="18.8068639"><ele>9.0</ele><time>2026-05-04T07:50:56.671Z</time></trkpt><trkpt lat="42.2933954" lon="18.8068447"><ele>9.0</ele><time>2026-05-04T07:50:57.67Z</time></trkpt><trkpt lat="42.2935071" lon="18.8068315"><ele>8.833333333333334</ele><time>2026-05-04T07:50:58.671Z</time></trkpt><trkpt lat="42.2936028" lon="18.8068238"><ele>8.666666666666666</ele><time>2026-05-04T07:50:59.67Z</time></trkpt><trkpt lat="42.2936952" lon="18.8068141"><ele>8.5</ele><time>2026-05-04T07:51:00.67Z</time></trkpt><trkpt lat="42.2937872" lon="18.8068094"><ele>8.333333333333332</ele><time>2026-05-04T07:51:01.671Z</time></trkpt><trkpt lat="42.2938623" lon="18.8068135"><ele>8.166666666666666</ele><time>2026-05-04T07:51:02.67Z</time></trkpt><trkpt lat="42.2939314" lon="18.8068124"><ele>8.0</ele><time>2026-05-04T07:51:03.67Z</time></trkpt><trkpt lat="42.2939968" lon="18.8068105"><ele>7.999999999999999</ele><time>2026-05-04T07:51:04.67Z</time></trkpt><trkpt lat="42.2940613" lon="18.806802"><ele>8.0</ele><time>2026-05-04T07:51:05.67Z</time></trkpt><trkpt lat="42.2941252" lon="18.8068005"><ele>8.0</ele><time>2026-05-04T07:51:06.671Z</time></trkpt><trkpt lat="42.2942284" lon="18.8067978"><ele>8.0</ele><time>2026-05-04T07:51:08.67Z</time></trkpt><trkpt lat="42.2943323" lon="18.8067765"><ele>7.999999999999999</ele><time>2026-05-04T07:51:10.67Z</time></trkpt><trkpt lat="42.2944413" lon="18.8067901"><ele>8.0</ele><time>2026-05-04T07:51:12.671Z</time></trkpt><trkpt lat="42.294524" lon="18.8067899"><ele>8.0</ele><time>2026-05-04T07:51:14.671Z</time></trkpt><trkpt lat="42.2946196" lon="18.8068021"><ele>8.0</ele><time>2026-05-04T07:51:28.67Z</time></trkpt><trkpt lat="42.2947472" lon="18.8068108"><ele>8.0</ele><time>2026-05-04T07:51:30.671Z</time></trkpt><trkpt lat="42.294829" lon="18.8068233"><ele>8.0</ele><time>2026-05-04T07:51:31.67Z</time></trkpt><trkpt lat="42.2949428" lon="18.8068556"><ele>8.0</ele><time>2026-05-04T07:51:32.67Z</time></trkpt><trkpt lat="42.2950478" lon="18.8068745"><ele>8.25</ele><time>2026-05-04T07:51:33.67Z</time></trkpt><trkpt lat="42.2951803" lon="18.8068946"><ele>8.5</ele><time>2026-05-04T07:51:34.671Z</time></trkpt><trkpt lat="42.2953106" lon="18.8069152"><ele>8.75</ele><time>2026-05-04T07:51:35.67Z</time></trkpt><trkpt lat="42.2954458" lon="18.8069349"><ele>9.0</ele><time>2026-05-04T07:51:36.67Z</time></trkpt><trkpt lat="42.2955691" lon="18.8069481"><ele>9.2</ele><time>2026-05-04T07:51:37.671Z</time></trkpt><trkpt lat="42.2956895" lon="18.8069681"><ele>9.4</ele><time>2026-05-04T07:51:38.67Z</time></trkpt><trkpt lat="42.2957959" lon="18.8069848"><ele>9.6</ele><time>2026-05-04T07:51:39.67Z</time></trkpt><trkpt lat="42.2959099" lon="18.8070006"><ele>9.8</ele><time>2026-05-04T07:51:40.67Z</time></trkpt><trkpt lat="42.2960091" lon="18.8070096"><ele>10.0</ele><time>2026-05-04T07:51:41.67Z</time></trkpt><trkpt lat="42.2961011" lon="18.8070228"><ele>10.0</ele><time>2026-05-04T07:51:42.671Z</time></trkpt><trkpt lat="42.2961888" lon="18.8070297"><ele>10.0</ele><time>2026-05-04T07:51:43.671Z</time></trkpt><trkpt lat="42.2962604" lon="18.8070435"><ele>10.0</ele><time>2026-05-04T07:51:44.671Z</time></trkpt><trkpt lat="42.2963544" lon="18.8070771"><ele>10.0</ele><time>2026-05-04T07:51:46.67Z</time></trkpt><trkpt lat="42.2964286" lon="18.8071087"><ele>10.0</ele><time>2026-05-04T07:51:52.671Z</time></trkpt><trkpt lat="42.2965035" lon="18.8071129"><ele>10.0</ele><time>2026-05-04T07:52:08.67Z</time></trkpt><trkpt lat="42.2965731" lon="18.807125"><ele>9.714285714285714</ele><time>2026-05-04T07:52:11.671Z</time></trkpt><trkpt lat="42.2966456" lon="18.8071484"><ele>9.428571428571429</ele><time>2026-05-04T07:52:14.671Z</time></trkpt><trkpt lat="42.2967168" lon="18.8071558"><ele>9.142857142857142</ele><time>2026-05-04T07:52:17.671Z</time></trkpt><trkpt lat="42.2967825" lon="18.8071579"><ele>8.857142857142858</ele><time>2026-05-04T07:52:20.67Z</time></trkpt><trkpt lat="42.2968574" lon="18.8071586"><ele>8.571428571428571</ele><time>2026-05-04T07:52:34.671Z</time></trkpt><trkpt lat="42.296924" lon="18.8071714"><ele>8.285714285714285</ele><time>2026-05-04T07:52:37.67Z</time></trkpt><trkpt lat="42.2969902" lon="18.8071745"><ele>8.0</ele><time>2026-05-04T07:52:57.671Z</time></trkpt><trkpt lat="42.2970637" lon="18.8071791"><ele>7.999999999999999</ele><time>2026-05-04T07:53:11.67Z</time></trkpt><trkpt lat="42.2971561" lon="18.8071816"><ele>8.0</ele><time>2026-05-04T07:53:13.67Z</time></trkpt><trkpt lat="42.2972338" lon="18.8071677"><ele>8.0</ele><time>2026-05-04T07:53:15.671Z</time></trkpt><trkpt lat="42.2972978" lon="18.8072"><ele>8.0</ele><time>2026-05-04T07:53:20.657Z</time></trkpt><trkpt lat="42.2973774" lon="18.8072052"><ele>7.999999999999999</ele><time>2026-05-04T07:53:32.648Z</time></trkpt><trkpt lat="42.297459" lon="18.8072101"><ele>8.0</ele><time>2026-05-04T07:53:34.647Z</time></trkpt><trkpt lat="42.2975269" lon="18.8072155"><ele>7.857142857142857</ele><time>2026-05-04T07:53:37.647Z</time></trkpt><trkpt lat="42.2975913" lon="18.8072017"><ele>7.7142857142857135</ele><time>2026-05-04T07:54:03.648Z</time></trkpt><trkpt lat="42.29767" lon="18.8071991"><ele>7.571428571428571</ele><time>2026-05-04T07:54:05.647Z</time></trkpt><trkpt lat="42.2977492" lon="18.8071911"><ele>7.428571428571429</ele><time>2026-05-04T07:54:07.648Z</time></trkpt><trkpt lat="42.2978142" lon="18.8071927"><ele>7.285714285714286</ele><time>2026-05-04T07:54:13.648Z</time></trkpt><trkpt lat="42.2978899" lon="18.8071963"><ele>7.142857142857142</ele><time>2026-05-04T07:54:18.648Z</time></trkpt><trkpt lat="42.2979615" lon="18.8071977"><ele>7.0</ele><time>2026-05-04T07:54:21.647Z</time></trkpt><trkpt lat="42.2980284" lon="18.8071895"><ele>7.8</ele><time>2026-05-04T07:54:25.647Z</time></trkpt><trkpt lat="42.2981131" lon="18.8071607"><ele>8.6</ele><time>2026-05-04T07:54:31.648Z</time></trkpt><trkpt lat="42.2982475" lon="18.8071457"><ele>9.4</ele><time>2026-05-04T07:54:33.647Z</time></trkpt><trkpt lat="42.2983433" lon="18.8071466"><ele>10.200000000000001</ele><time>2026-05-04T07:54:34.648Z</time></trkpt><trkpt lat="42.2984372" lon="18.807138"><ele>11.0</ele><time>2026-05-04T07:54:35.648Z</time></trkpt><trkpt lat="42.2985222" lon="18.8071349"><ele>11.0</ele><time>2026-05-04T07:54:36.647Z</time></trkpt><trkpt lat="42.2985867" lon="18.8071326"><ele>11.0</ele><time>2026-05-04T07:54:37.648Z</time></trkpt><trkpt lat="42.2986565" lon="18.807132"><ele>11.0</ele><time>2026-05-04T07:54:39.648Z</time></trkpt><trkpt lat="42.2987228" lon="18.8071371"><ele>11.0</ele><time>2026-05-04T07:54:43.647Z</time></trkpt><trkpt lat="42.2988054" lon="18.8071273"><ele>11.0</ele><time>2026-05-04T07:54:48.647Z</time></trkpt><trkpt lat="42.2989073" lon="18.8071091"><ele>11.0</ele><time>2026-05-04T07:54:50.647Z</time></trkpt><trkpt lat="42.2989895" lon="18.8070936"><ele>11.8</ele><time>2026-05-04T07:54:51.648Z</time></trkpt><trkpt lat="42.2990773" lon="18.8070821"><ele>12.600000000000001</ele><time>2026-05-04T07:54:52.648Z</time></trkpt><trkpt lat="42.2991675" lon="18.8070719"><ele>13.4</ele><time>2026-05-04T07:54:53.648Z</time></trkpt><trkpt lat="42.2992732" lon="18.8070548"><ele>14.2</ele><time>2026-05-04T07:54:54.647Z</time></trkpt><trkpt lat="42.299372" lon="18.8070438"><ele>15.0</ele><time>2026-05-04T07:54:55.647Z</time></trkpt><trkpt lat="42.299476" lon="18.8070264"><ele>15.0</ele><time>2026-05-04T07:54:56.647Z</time></trkpt><trkpt lat="42.2995777" lon="18.807011"><ele>15.0</ele><time>2026-05-04T07:54:57.647Z</time></trkpt><trkpt lat="42.2996829" lon="18.8069931"><ele>15.0</ele><time>2026-05-04T07:54:58.647Z</time></trkpt><trkpt lat="42.2997917" lon="18.806974"><ele>15.0</ele><time>2026-05-04T07:54:59.647Z</time></trkpt><trkpt lat="42.2999036" lon="18.8069551"><ele>15.0</ele><time>2026-05-04T07:55:00.647Z</time></trkpt><trkpt lat="42.3000078" lon="18.8069335"><ele>15.166666666666666</ele><time>2026-05-04T07:55:01.647Z</time></trkpt><trkpt lat="42.3001016" lon="18.8069158"><ele>15.333333333333332</ele><time>2026-05-04T07:55:02.648Z</time></trkpt><trkpt lat="42.3001838" lon="18.8069057"><ele>15.5</ele><time>2026-05-04T07:55:03.648Z</time></trkpt><trkpt lat="42.300298" lon="18.8068898"><ele>15.666666666666666</ele><time>2026-05-04T07:55:05.648Z</time></trkpt><trkpt lat="42.3003604" lon="18.8068664"><ele>15.833333333333332</ele><time>2026-05-04T07:55:07.647Z</time></trkpt><trkpt lat="42.3004277" lon="18.8068437"><ele>16.0</ele><time>2026-05-04T07:55:12.648Z</time></trkpt><trkpt lat="42.2987228" lon="18.8071371"><ele>15.833333333333332</ele><time>2026-05-04T07:54:43.647Z</time></trkpt><trkpt lat="42.2988054" lon="18.8071273"><ele>15.666666666666666</ele><time>2026-05-04T07:54:48.647Z</time></trkpt><trkpt lat="42.2989073" lon="18.8071091"><ele>15.5</ele><time>2026-05-04T07:54:50.647Z</time></trkpt><trkpt lat="42.2989895" lon="18.8070936"><ele>15.333333333333332</ele><time>2026-05-04T07:54:51.648Z</time></trkpt><trkpt lat="42.2990773" lon="18.8070821"><ele>15.166666666666666</ele><time>2026-05-04T07:54:52.648Z</time></trkpt><trkpt lat="42.2991675" lon="18.8070719"><ele>15.0</ele><time>2026-05-04T07:54:53.648Z</time></trkpt><trkpt lat="42.2992732" lon="18.8070548"><ele>15.0</ele><time>2026-05-04T07:54:54.647Z</time></trkpt><trkpt lat="42.299372" lon="18.8070438"><ele>15.0</ele><time>2026-05-04T07:54:55.647Z</time></trkpt><trkpt lat="42.299476" lon="18.8070264"><ele>15.0</ele><time>2026-05-04T07:54:56.647Z</time></trkpt><trkpt lat="42.2995777" lon="18.807011"><ele>15.0</ele><time>2026-05-04T07:54:57.647Z</time></trkpt><trkpt lat="42.2996829" lon="18.8069931"><ele>15.0</ele><time>2026-05-04T07:54:58.647Z</time></trkpt><trkpt lat="42.2997917" lon="18.806974"><ele>15.2</ele><time>2026-05-04T07:54:59.647Z</time></trkpt><trkpt lat="42.2999036" lon="18.8069551"><ele>15.4</ele><time>2026-05-04T07:55:00.647Z</time></trkpt><trkpt lat="42.3000078" lon="18.8069335"><ele>15.600000000000001</ele><time>2026-05-04T07:55:01.647Z</time></trkpt><trkpt lat="42.3001016" lon="18.8069158"><ele>15.8</ele><time>2026-05-04T07:55:02.648Z</time></trkpt><trkpt lat="42.3001838" lon="18.8069057"><ele>16.0</ele><time>2026-05-04T07:55:03.648Z</time></trkpt><trkpt lat="42.300298" lon="18.8068898"><ele>15.999999999999998</ele><time>2026-05-04T07:55:05.648Z</time></trkpt><trkpt lat="42.3003604" lon="18.8068664"><ele>16.0</ele><time>2026-05-04T07:55:07.647Z</time></trkpt><trkpt lat="42.3004277" lon="18.8068437"><ele>16.0</ele><time>2026-05-04T07:55:12.648Z</time></trkpt><trkpt lat="42.3005156" lon="18.8068092"><ele>16.0</ele><time>2026-05-04T07:55:15.647Z</time></trkpt><trkpt lat="42.3006218" lon="18.8067586"><ele>15.999999999999998</ele><time>2026-05-04T07:55:17.648Z</time></trkpt><trkpt lat="42.3006966" lon="18.8067293"><ele>16.0</ele><time>2026-05-04T07:55:18.648Z</time></trkpt><trkpt lat="42.300783" lon="18.8067323"><ele>14.8</ele><time>2026-05-04T07:55:19.647Z</time></trkpt><trkpt lat="42.3008657" lon="18.8067244"><ele>13.600000000000001</ele><time>2026-05-04T07:55:20.648Z</time></trkpt><trkpt lat="42.3009423" lon="18.8067142"><ele>12.4</ele><time>2026-05-04T07:55:21.647Z</time></trkpt><trkpt lat="42.3010075" lon="18.8067004"><ele>11.2</ele><time>2026-05-04T07:55:22.647Z</time></trkpt><trkpt lat="42.3011214" lon="18.8066714"><ele>10.0</ele><time>2026-05-04T07:55:24.647Z</time></trkpt><trkpt lat="42.301234" lon="18.8066407"><ele>10.0</ele><time>2026-05-04T07:55:26.648Z</time></trkpt><trkpt lat="42.3013026" lon="18.8066185"><ele>10.0</ele><time>2026-05-04T07:55:27.647Z</time></trkpt><trkpt lat="42.3013818" lon="18.8065948"><ele>10.0</ele><time>2026-05-04T07:55:28.648Z</time></trkpt><trkpt lat="42.3014731" lon="18.8065738"><ele>10.0</ele><time>2026-05-04T07:55:29.648Z</time></trkpt><trkpt lat="42.30157" lon="18.8065538"><ele>10.0</ele><time>2026-05-04T07:55:30.648Z</time></trkpt><trkpt lat="42.3016719" lon="18.8065331"><ele>10.0</ele><time>2026-05-04T07:55:31.648Z</time></trkpt><trkpt lat="42.3017758" lon="18.8065099"><ele>10.6</ele><time>2026-05-04T07:55:32.647Z</time></trkpt><trkpt lat="42.3018827" lon="18.8064848"><ele>11.2</ele><time>2026-05-04T07:55:33.647Z</time></trkpt><trkpt lat="42.3019919" lon="18.8064604"><ele>11.8</ele><time>2026-05-04T07:55:34.647Z</time></trkpt><trkpt lat="42.3020998" lon="18.8064357"><ele>12.4</ele><time>2026-05-04T07:55:35.648Z</time></trkpt><trkpt lat="42.302204" lon="18.8064079"><ele>13.0</ele><time>2026-05-04T07:55:36.648Z</time></trkpt><trkpt lat="42.3022939" lon="18.8063869"><ele>14.333333333333332</ele><time>2026-05-04T07:55:37.647Z</time></trkpt><trkpt lat="42.3023735" lon="18.8063679"><ele>15.666666666666666</ele><time>2026-05-04T07:55:38.648Z</time></trkpt><trkpt lat="42.3024411" lon="18.8063567"><ele>17.0</ele><time>2026-05-04T07:55:39.648Z</time></trkpt><trkpt lat="42.3025355" lon="18.8063369"><ele>18.333333333333332</ele><time>2026-05-04T07:55:41.648Z</time></trkpt><trkpt lat="42.3026009" lon="18.8063265"><ele>19.666666666666668</ele><time>2026-05-04T07:55:45.648Z</time></trkpt><trkpt lat="42.3026869" lon="18.8062973"><ele>21.0</ele><time>2026-05-04T07:55:50.648Z</time></trkpt><trkpt lat="42.3027569" lon="18.8062791"><ele>21.0</ele><time>2026-05-04T07:55:51.648Z</time></trkpt><trkpt lat="42.30284" lon="18.8062555"><ele>21.0</ele><time>2026-05-04T07:55:52.648Z</time></trkpt><trkpt lat="42.3029286" lon="18.8062365"><ele>21.0</ele><time>2026-05-04T07:55:53.648Z</time></trkpt><trkpt lat="42.303019" lon="18.8062192"><ele>21.0</ele><time>2026-05-04T07:55:54.648Z</time></trkpt><trkpt lat="42.3030999" lon="18.8062045"><ele>21.0</ele><time>2026-05-04T07:55:55.647Z</time></trkpt><trkpt lat="42.3031738" lon="18.8061937"><ele>21.0</ele><time>2026-05-04T07:55:56.647Z</time></trkpt><trkpt lat="42.3032859" lon="18.8061676"><ele>21.714285714285715</ele><time>2026-05-04T07:55:58.648Z</time></trkpt><trkpt lat="42.303353" lon="18.806154"><ele>22.42857142857143</ele><time>2026-05-04T07:56:00.648Z</time></trkpt><trkpt lat="42.3034166" lon="18.8061442"><ele>23.142857142857142</ele><time>2026-05-04T07:56:22.648Z</time></trkpt><trkpt lat="42.3034836" lon="18.8061406"><ele>23.857142857142858</ele><time>2026-05-04T07:56:27.648Z</time></trkpt><trkpt lat="42.3035601" lon="18.806128"><ele>24.571428571428573</ele><time>2026-05-04T07:56:32.648Z</time></trkpt><trkpt lat="42.3036251" lon="18.8061108"><ele>25.285714285714285</ele><time>2026-05-04T07:56:36.648Z</time></trkpt><trkpt lat="42.303691" lon="18.806091"><ele>26.0</ele><time>2026-05-04T07:56:40.648Z</time></trkpt><trkpt lat="42.3037592" lon="18.8060731"><ele>26.0</ele><time>2026-05-04T07:56:44.647Z</time></trkpt><trkpt lat="42.303833" lon="18.8060401"><ele>26.0</ele><time>2026-05-04T07:56:48.647Z</time></trkpt><trkpt lat="42.3039059" lon="18.8060207"><ele>26.0</ele><time>2026-05-04T07:56:52.648Z</time></trkpt><trkpt lat="42.3039729" lon="18.8059961"><ele>26.0</ele><time>2026-05-04T07:56:56.648Z</time></trkpt><trkpt lat="42.3040485" lon="18.8059762"><ele>26.0</ele><time>2026-05-04T07:57:01.647Z</time></trkpt><trkpt lat="42.3041104" lon="18.8059481"><ele>26.0</ele><time>2026-05-04T07:57:05.647Z</time></trkpt><trkpt lat="42.3041719" lon="18.8059187"><ele>26.0</ele><time>2026-05-04T07:57:17.648Z</time></trkpt><trkpt lat="42.3042446" lon="18.8059012"><ele>24.57142857142857</ele><time>2026-05-04T07:57:38.648Z</time></trkpt><trkpt lat="42.3043128" lon="18.8058748"><ele>23.142857142857146</ele><time>2026-05-04T07:57:41.647Z</time></trkpt><trkpt lat="42.3043844" lon="18.8058489"><ele>21.714285714285715</ele><time>2026-05-04T07:57:45.647Z</time></trkpt><trkpt lat="42.3044656" lon="18.8058155"><ele>20.285714285714285</ele><time>2026-05-04T07:57:49.647Z</time></trkpt><trkpt lat="42.3045299" lon="18.8057842"><ele>18.857142857142854</ele><time>2026-05-04T07:57:52.648Z</time></trkpt><trkpt lat="42.3045922" lon="18.8057543"><ele>17.428571428571427</ele><time>2026-05-04T07:57:55.648Z</time></trkpt><trkpt lat="42.3046584" lon="18.8057249"><ele>16.0</ele><time>2026-05-04T07:57:59.648Z</time></trkpt><trkpt lat="42.3047241" lon="18.8056903"><ele>16.714285714285715</ele><time>2026-05-04T07:58:04.648Z</time></trkpt><trkpt lat="42.3047798" lon="18.8056504"><ele>17.428571428571427</ele><time>2026-05-04T07:58:28.648Z</time></trkpt><trkpt lat="42.304852" lon="18.8056147"><ele>18.142857142857142</ele><time>2026-05-04T07:58:32.647Z</time></trkpt><trkpt lat="42.3049232" lon="18.8055998"><ele>18.857142857142858</ele><time>2026-05-04T07:58:37.648Z</time></trkpt><trkpt lat="42.3049888" lon="18.805614"><ele>19.57142857142857</ele><time>2026-05-04T07:58:50.647Z</time></trkpt><trkpt lat="42.3050659" lon="18.8056089"><ele>20.285714285714285</ele><time>2026-05-04T07:58:55.647Z</time></trkpt><trkpt lat="42.3051411" lon="18.8056106"><ele>21.0</ele><time>2026-05-04T07:59:00.648Z</time></trkpt><trkpt lat="42.3052149" lon="18.8056102"><ele>21.0</ele><time>2026-05-04T07:59:14.648Z</time></trkpt><trkpt lat="42.3052986" lon="18.8055744"><ele>21.0</ele><time>2026-05-04T07:59:17.647Z</time></trkpt><trkpt lat="42.3053635" lon="18.8055473"><ele>21.0</ele><time>2026-05-04T07:59:19.647Z</time></trkpt><trkpt lat="42.3054296" lon="18.8055103"><ele>21.0</ele><time>2026-05-04T07:59:22.648Z</time></trkpt><trkpt lat="42.3055039" lon="18.80547"><ele>21.0</ele><time>2026-05-04T07:59:25.648Z</time></trkpt><trkpt lat="42.3055735" lon="18.8054159"><ele>21.0</ele><time>2026-05-04T07:59:28.647Z</time></trkpt><trkpt lat="42.3056315" lon="18.8053754"><ele>20.571428571428573</ele><time>2026-05-04T07:59:31.648Z</time></trkpt><trkpt lat="42.3057156" lon="18.8053267"><ele>20.142857142857142</ele><time>2026-05-04T07:59:35.648Z</time></trkpt><trkpt lat="42.3057877" lon="18.8053001"><ele>19.714285714285715</ele><time>2026-05-04T07:59:39.648Z</time></trkpt><trkpt lat="42.305849" lon="18.805273"><ele>19.285714285714285</ele><time>2026-05-04T07:59:43.647Z</time></trkpt><trkpt lat="42.3059068" lon="18.8052376"><ele>18.857142857142858</ele><time>2026-05-04T07:59:46.648Z</time></trkpt><trkpt lat="42.3059664" lon="18.8052071"><ele>18.42857142857143</ele><time>2026-05-04T07:59:50.647Z</time></trkpt><trkpt lat="42.3060232" lon="18.8051498"><ele>18.0</ele><time>2026-05-04T07:59:54.648Z</time></trkpt><trkpt lat="42.3060781" lon="18.8051067"><ele>18.000000000000004</ele><time>2026-05-04T08:00:05.647Z</time></trkpt><trkpt lat="42.3061317" lon="18.8050536"><ele>18.0</ele><time>2026-05-04T08:00:14.647Z</time></trkpt><trkpt lat="42.3061895" lon="18.8049914"><ele>18.0</ele><time>2026-05-04T08:00:21.647Z</time></trkpt><trkpt lat="42.3062407" lon="18.8049151"><ele>18.0</ele><time>2026-05-04T08:00:41.648Z</time></trkpt><trkpt lat="42.3062821" lon="18.804834"><ele>18.0</ele><time>2026-05-04T08:00:44.648Z</time></trkpt><trkpt lat="42.3063124" lon="18.8047561"><ele>18.000000000000004</ele><time>2026-05-04T08:00:47.648Z</time></trkpt><trkpt lat="42.3063501" lon="18.8046682"><ele>18.0</ele><time>2026-05-04T08:00:57.648Z</time></trkpt><trkpt lat="42.3064115" lon="18.8045921"><ele>18.166666666666668</ele><time>2026-05-04T08:01:17.647Z</time></trkpt><trkpt lat="42.3064837" lon="18.8044875"><ele>18.333333333333332</ele><time>2026-05-04T08:01:20.648Z</time></trkpt><trkpt lat="42.3065421" lon="18.8044194"><ele>18.5</ele><time>2026-05-04T08:01:23.647Z</time></trkpt><trkpt lat="42.3065937" lon="18.8043656"><ele>18.666666666666664</ele><time>2026-05-04T08:01:26.647Z</time></trkpt><trkpt lat="42.3066421" lon="18.8042941"><ele>18.833333333333332</ele><time>2026-05-04T08:01:28.647Z</time></trkpt><trkpt lat="42.3067052" lon="18.8042569"><ele>19.0</ele><time>2026-05-04T08:01:32.648Z</time></trkpt><trkpt lat="42.3067804" lon="18.8042174"><ele>18.71428571428571</ele><time>2026-05-04T08:01:37.647Z</time></trkpt><trkpt lat="42.3068545" lon="18.8041863"><ele>18.42857142857143</ele><time>2026-05-04T08:01:42.648Z</time></trkpt><trkpt lat="42.3069137" lon="18.8041466"><ele>18.142857142857142</ele><time>2026-05-04T08:01:46.648Z</time></trkpt><trkpt lat="42.3069813" lon="18.8041042"><ele>17.857142857142854</ele><time>2026-05-04T08:01:50.647Z</time></trkpt><trkpt lat="42.3070383" lon="18.8040614"><ele>17.57142857142857</ele><time>2026-05-04T08:01:58.647Z</time></trkpt><trkpt lat="42.3070988" lon="18.8040373"><ele>17.285714285714285</ele><time>2026-05-04T08:02:03.647Z</time></trkpt><trkpt lat="42.3071646" lon="18.8040059"><ele>17.0</ele><time>2026-05-04T08:02:07.648Z</time></trkpt><trkpt lat="42.3072265" lon="18.8039568"><ele>17.0</ele><time>2026-05-04T08:02:11.648Z</time></trkpt><trkpt lat="42.3072937" lon="18.8038965"><ele>17.0</ele><time>2026-05-04T08:02:15.647Z</time></trkpt><trkpt lat="42.3073514" lon="18.8038408"><ele>17.0</ele><time>2026-05-04T08:02:19.648Z</time></trkpt><trkpt lat="42.3070383" lon="18.8040614"><ele>16.999999999999996</ele><time>2026-05-04T08:01:58.647Z</time></trkpt><trkpt lat="42.3070988" lon="18.8040373"><ele>17.0</ele><time>2026-05-04T08:02:03.647Z</time></trkpt><trkpt lat="42.3071646" lon="18.8040059"><ele>17.0</ele><time>2026-05-04T08:02:07.648Z</time></trkpt><trkpt lat="42.3072265" lon="18.8039568"><ele>17.0</ele><time>2026-05-04T08:02:11.648Z</time></trkpt><trkpt lat="42.3072937" lon="18.8038965"><ele>17.0</ele><time>2026-05-04T08:02:15.647Z</time></trkpt><trkpt lat="42.3073514" lon="18.8038408"><ele>16.999999999999996</ele><time>2026-05-04T08:02:19.648Z</time></trkpt><trkpt lat="42.3074075" lon="18.8037839"><ele>17.0</ele><time>2026-05-04T08:02:23.647Z</time></trkpt><trkpt lat="42.3074639" lon="18.8037287"><ele>17.166666666666668</ele><time>2026-05-04T08:02:28.647Z</time></trkpt><trkpt lat="42.3075285" lon="18.803663"><ele>17.333333333333336</ele><time>2026-05-04T08:02:32.647Z</time></trkpt><trkpt lat="42.3075868" lon="18.8035931"><ele>17.5</ele><time>2026-05-04T08:02:35.647Z</time></trkpt><trkpt lat="42.3076391" lon="18.803535"><ele>17.666666666666668</ele><time>2026-05-04T08:02:37.647Z</time></trkpt><trkpt lat="42.3077066" lon="18.8034472"><ele>17.833333333333332</ele><time>2026-05-04T08:02:40.647Z</time></trkpt><trkpt lat="42.3077619" lon="18.8033579"><ele>18.0</ele><time>2026-05-04T08:02:43.647Z</time></trkpt><trkpt lat="42.3078052" lon="18.8032817"><ele>17.6</ele><time>2026-05-04T08:02:45.648Z</time></trkpt><trkpt lat="42.3078229" lon="18.8031629"><ele>17.200000000000003</ele><time>2026-05-04T08:02:48.647Z</time></trkpt><trkpt lat="42.3077994" lon="18.8030373"><ele>16.8</ele><time>2026-05-04T08:02:50.647Z</time></trkpt><trkpt lat="42.3077522" lon="18.8029504"><ele>16.400000000000002</ele><time>2026-05-04T08:02:52.647Z</time></trkpt><trkpt lat="42.307669" lon="18.8028471"><ele>16.0</ele><time>2026-05-04T08:02:54.647Z</time></trkpt><trkpt lat="42.3076273" lon="18.8027647"><ele>15.833333333333332</ele><time>2026-05-04T08:02:55.647Z</time></trkpt><trkpt lat="42.3075921" lon="18.8026627"><ele>15.666666666666666</ele><time>2026-05-04T08:02:56.648Z</time></trkpt><trkpt lat="42.3075475" lon="18.8025614"><ele>15.5</ele><time>2026-05-04T08:02:57.648Z</time></trkpt><trkpt lat="42.3074986" lon="18.8024648"><ele>15.333333333333332</ele><time>2026-05-04T08:02:58.647Z</time></trkpt><trkpt lat="42.3074603" lon="18.8023575"><ele>15.166666666666666</ele><time>2026-05-04T08:02:59.648Z</time></trkpt><trkpt lat="42.307422" lon="18.8022615"><ele>15.0</ele><time>2026-05-04T08:03:00.647Z</time></trkpt><trkpt lat="42.3073889" lon="18.802184"><ele>15.0</ele><time>2026-05-04T08:03:01.647Z</time></trkpt><trkpt lat="42.3073436" lon="18.8020663"><ele>15.0</ele><time>2026-05-04T08:03:03.647Z</time></trkpt><trkpt lat="42.3073103" lon="18.8019656"><ele>15.0</ele><time>2026-05-04T08:03:05.647Z</time></trkpt><trkpt lat="42.3072749" lon="18.8018744"><ele>15.0</ele><time>2026-05-04T08:03:07.648Z</time></trkpt><trkpt lat="42.3072339" lon="18.8017791"><ele>15.0</ele><time>2026-05-04T08:03:09.648Z</time></trkpt><trkpt lat="42.3071937" lon="18.8016642"><ele>15.0</ele><time>2026-05-04T08:03:11.648Z</time></trkpt><trkpt lat="42.3071512" lon="18.8015414"><ele>14.8</ele><time>2026-05-04T08:03:13.647Z</time></trkpt><trkpt lat="42.3071165" lon="18.8014322"><ele>14.6</ele><time>2026-05-04T08:03:15.648Z</time></trkpt><trkpt lat="42.3070913" lon="18.8013252"><ele>14.399999999999999</ele><time>2026-05-04T08:03:17.648Z</time></trkpt><trkpt lat="42.3070665" lon="18.8011842"><ele>14.2</ele><time>2026-05-04T08:03:19.647Z</time></trkpt><trkpt lat="42.3070416" lon="18.8010151"><ele>14.0</ele><time>2026-05-04T08:03:21.648Z</time></trkpt><trkpt lat="42.3070362" lon="18.8009261"><ele>13.799999999999999</ele><time>2026-05-04T08:03:22.648Z</time></trkpt><trkpt lat="42.3070383" lon="18.8008384"><ele>13.599999999999998</ele><time>2026-05-04T08:03:23.648Z</time></trkpt><trkpt lat="42.3070673" lon="18.8006834"><ele>13.4</ele><time>2026-05-04T08:03:25.647Z</time></trkpt><trkpt lat="42.3070854" lon="18.8005379"><ele>13.2</ele><time>2026-05-04T08:03:27.647Z</time></trkpt><trkpt lat="42.307109" lon="18.8003757"><ele>13.0</ele><time>2026-05-04T08:03:29.648Z</time></trkpt><trkpt lat="42.3071147" lon="18.8002827"><ele>13.0</ele><time>2026-05-04T08:03:30.648Z</time></trkpt><trkpt lat="42.3071153" lon="18.8001942"><ele>13.0</ele><time>2026-05-04T08:03:31.648Z</time></trkpt><trkpt lat="42.3071135" lon="18.8001065"><ele>13.0</ele><time>2026-05-04T08:03:32.648Z</time></trkpt><trkpt lat="42.3071038" lon="18.8000121"><ele>13.0</ele><time>2026-05-04T08:03:33.648Z</time></trkpt><trkpt lat="42.3070951" lon="18.7999104"><ele>13.0</ele><time>2026-05-04T08:03:34.647Z</time></trkpt><trkpt lat="42.3070821" lon="18.799811"><ele>13.0</ele><time>2026-05-04T08:03:35.648Z</time></trkpt><trkpt lat="42.3070788" lon="18.7997057"><ele>13.0</ele><time>2026-05-04T08:03:36.647Z</time></trkpt><trkpt lat="42.3070741" lon="18.799601"><ele>12.999999999999998</ele><time>2026-05-04T08:03:37.647Z</time></trkpt><trkpt lat="42.3070671" lon="18.7995002"><ele>13.0</ele><time>2026-05-04T08:03:38.647Z</time></trkpt><trkpt lat="42.307065" lon="18.7994013"><ele>13.0</ele><time>2026-05-04T08:03:39.648Z</time></trkpt><trkpt lat="42.3070508" lon="18.7993073"><ele>13.0</ele><time>2026-05-04T08:03:40.647Z</time></trkpt><trkpt lat="42.3070441" lon="18.7991986"><ele>12.999999999999998</ele><time>2026-05-04T08:03:41.647Z</time></trkpt><trkpt lat="42.3070311" lon="18.7990734"><ele>13.0</ele><time>2026-05-04T08:03:42.648Z</time></trkpt><trkpt lat="42.3070212" lon="18.7989407"><ele>13.0</ele><time>2026-05-04T08:03:43.648Z</time></trkpt><trkpt lat="42.3070179" lon="18.7987941"><ele>13.0</ele><time>2026-05-04T08:03:44.648Z</time></trkpt><trkpt lat="42.307011" lon="18.7986448"><ele>13.0</ele><time>2026-05-04T08:03:45.648Z</time></trkpt><trkpt lat="42.3070074" lon="18.7985009"><ele>13.0</ele><time>2026-05-04T08:03:46.648Z</time></trkpt><trkpt lat="42.3069987" lon="18.7983573"><ele>13.0</ele><time>2026-05-04T08:03:47.648Z</time></trkpt><trkpt lat="42.3069896" lon="18.7982154"><ele>12.833333333333332</ele><time>2026-05-04T08:03:48.647Z</time></trkpt><trkpt lat="42.306977" lon="18.7980793"><ele>12.666666666666666</ele><time>2026-05-04T08:03:49.648Z</time></trkpt><trkpt lat="42.3069537" lon="18.7979624"><ele>12.5</ele><time>2026-05-04T08:03:50.648Z</time></trkpt><trkpt lat="42.3069315" lon="18.7978509"><ele>12.333333333333332</ele><time>2026-05-04T08:03:51.647Z</time></trkpt><trkpt lat="42.3069078" lon="18.7977551"><ele>12.166666666666666</ele><time>2026-05-04T08:03:52.647Z</time></trkpt><trkpt lat="42.3068878" lon="18.7976651"><ele>12.0</ele><time>2026-05-04T08:03:53.648Z</time></trkpt><trkpt lat="42.3069057" lon="18.7975666"><ele>11.6</ele><time>2026-05-04T08:03:54.648Z</time></trkpt><trkpt lat="42.3069426" lon="18.7974669"><ele>11.2</ele><time>2026-05-04T08:03:55.647Z</time></trkpt><trkpt lat="42.3069858" lon="18.7973629"><ele>10.8</ele><time>2026-05-04T08:03:56.648Z</time></trkpt><trkpt lat="42.307029" lon="18.7972412"><ele>10.4</ele><time>2026-05-04T08:03:57.648Z</time></trkpt><trkpt lat="42.307071" lon="18.7971122"><ele>10.0</ele><time>2026-05-04T08:03:58.647Z</time></trkpt><trkpt lat="42.30711" lon="18.7969746"><ele>9.4</ele><time>2026-05-04T08:03:59.648Z</time></trkpt><trkpt lat="42.3071451" lon="18.7968317"><ele>8.8</ele><time>2026-05-04T08:04:00.648Z</time></trkpt><trkpt lat="42.3071721" lon="18.7966834"><ele>8.2</ele><time>2026-05-04T08:04:01.648Z</time></trkpt><trkpt lat="42.3071935" lon="18.796542"><ele>7.6</ele><time>2026-05-04T08:04:02.647Z</time></trkpt><trkpt lat="42.307209" lon="18.7963997"><ele>7.0</ele><time>2026-05-04T08:04:03.647Z</time></trkpt><trkpt lat="42.3072269" lon="18.7962746"><ele>7.500000000000001</ele><time>2026-05-04T08:04:04.647Z</time></trkpt><trkpt lat="42.3072466" lon="18.7961647"><ele>8.0</ele><time>2026-05-04T08:04:05.648Z</time></trkpt><trkpt lat="42.3072701" lon="18.796076"><ele>8.5</ele><time>2026-05-04T08:04:06.648Z</time></trkpt><trkpt lat="42.3073021" lon="18.7959953"><ele>9.0</ele><time>2026-05-04T08:04:07.648Z</time></trkpt><trkpt lat="42.3073487" lon="18.7959287"><ele>9.5</ele><time>2026-05-04T08:04:08.648Z</time></trkpt><trkpt lat="42.3074082" lon="18.7958502"><ele>10.0</ele><time>2026-05-04T08:04:09.648Z</time></trkpt><trkpt lat="42.3074618" lon="18.7957507"><ele>10.0</ele><time>2026-05-04T08:04:10.647Z</time></trkpt><trkpt lat="42.3075048" lon="18.7956346"><ele>10.0</ele><time>2026-05-04T08:04:11.648Z</time></trkpt><trkpt lat="42.3075439" lon="18.795509"><ele>10.0</ele><time>2026-05-04T08:04:12.647Z</time></trkpt><trkpt lat="42.3075948" lon="18.7953794"><ele>10.0</ele><time>2026-05-04T08:04:13.647Z</time></trkpt><trkpt lat="42.3076554" lon="18.7952403"><ele>10.0</ele><time>2026-05-04T08:04:14.648Z</time></trkpt><trkpt lat="42.3077215" lon="18.7951027"><ele>10.2</ele><time>2026-05-04T08:04:15.648Z</time></trkpt><trkpt lat="42.3077873" lon="18.7949766"><ele>10.4</ele><time>2026-05-04T08:04:16.647Z</time></trkpt><trkpt lat="42.3078548" lon="18.7948653"><ele>10.600000000000001</ele><time>2026-05-04T08:04:17.647Z</time></trkpt><trkpt lat="42.307914" lon="18.7947803"><ele>10.8</ele><time>2026-05-04T08:04:18.647Z</time></trkpt><trkpt lat="42.3079924" lon="18.7947071"><ele>11.0</ele><time>2026-05-04T08:04:19.647Z</time></trkpt><trkpt lat="42.3080797" lon="18.7946254"><ele>11.0</ele><time>2026-05-04T08:04:20.648Z</time></trkpt><trkpt lat="42.3081745" lon="18.794539"><ele>11.0</ele><time>2026-05-04T08:04:21.647Z</time></trkpt><trkpt lat="42.308274" lon="18.794458"><ele>11.0</ele><time>2026-05-04T08:04:22.648Z</time></trkpt><trkpt lat="42.3083781" lon="18.7943853"><ele>11.0</ele><time>2026-05-04T08:04:23.647Z</time></trkpt><trkpt lat="42.3084809" lon="18.7943054"><ele>10.75</ele><time>2026-05-04T08:04:24.648Z</time></trkpt><trkpt lat="42.3085866" lon="18.79423"><ele>10.5</ele><time>2026-05-04T08:04:25.647Z</time></trkpt><trkpt lat="42.3086897" lon="18.7941527"><ele>10.25</ele><time>2026-05-04T08:04:26.647Z</time></trkpt><trkpt lat="42.308791" lon="18.7940792"><ele>10.0</ele><time>2026-05-04T08:04:27.648Z</time></trkpt><trkpt lat="42.3088916" lon="18.7940114"><ele>9.6</ele><time>2026-05-04T08:04:28.647Z</time></trkpt><trkpt lat="42.3089917" lon="18.7939469"><ele>9.2</ele><time>2026-05-04T08:04:29.648Z</time></trkpt><trkpt lat="42.3090863" lon="18.7938922"><ele>8.8</ele><time>2026-05-04T08:04:30.648Z</time></trkpt><trkpt lat="42.3091828" lon="18.793841"><ele>8.4</ele><time>2026-05-04T08:04:31.647Z</time></trkpt><trkpt lat="42.3092811" lon="18.793792"><ele>8.0</ele><time>2026-05-04T08:04:32.648Z</time></trkpt><trkpt lat="42.3093829" lon="18.7937324"><ele>8.0</ele><time>2026-05-04T08:04:33.648Z</time></trkpt><trkpt lat="42.3094854" lon="18.7936765"><ele>8.0</ele><time>2026-05-04T08:04:34.647Z</time></trkpt><trkpt lat="42.3095861" lon="18.7936175"><ele>8.0</ele><time>2026-05-04T08:04:35.648Z</time></trkpt><trkpt lat="42.309686" lon="18.7935556"><ele>8.0</ele><time>2026-05-04T08:04:36.647Z</time></trkpt><trkpt lat="42.309789" lon="18.7934951"><ele>8.0</ele><time>2026-05-04T08:04:37.647Z</time></trkpt><trkpt lat="42.3098895" lon="18.7934376"><ele>7.800000000000001</ele><time>2026-05-04T08:04:38.648Z</time></trkpt><trkpt lat="42.3099919" lon="18.7933767"><ele>7.6000000000000005</ele><time>2026-05-04T08:04:39.647Z</time></trkpt><trkpt lat="42.3100907" lon="18.793312"><ele>7.3999999999999995</ele><time>2026-05-04T08:04:40.647Z</time></trkpt><trkpt lat="42.3101899" lon="18.7932414"><ele>7.199999999999999</ele><time>2026-05-04T08:04:41.647Z</time></trkpt><trkpt lat="42.3102877" lon="18.7931766"><ele>7.0</ele><time>2026-05-04T08:04:42.648Z</time></trkpt><trkpt lat="42.3103891" lon="18.7930994"><ele>7.0</ele><time>2026-05-04T08:04:43.647Z</time></trkpt><trkpt lat="42.3104883" lon="18.7930232"><ele>7.0</ele><time>2026-05-04T08:04:44.648Z</time></trkpt><trkpt lat="42.3105891" lon="18.7929417"><ele>7.0</ele><time>2026-05-04T08:04:45.647Z</time></trkpt><trkpt lat="42.3106873" lon="18.7928599"><ele>7.0</ele><time>2026-05-04T08:04:46.647Z</time></trkpt><trkpt lat="42.3107838" lon="18.7927883"><ele>7.166666666666667</ele><time>2026-05-04T08:04:47.647Z</time></trkpt><trkpt lat="42.3108742" lon="18.7927226"><ele>7.333333333333334</ele><time>2026-05-04T08:04:48.648Z</time></trkpt><trkpt lat="42.3109515" lon="18.792664"><ele>7.5</ele><time>2026-05-04T08:04:49.648Z</time></trkpt><trkpt lat="42.3110136" lon="18.7926159"><ele>7.666666666666666</ele><time>2026-05-04T08:04:50.648Z</time></trkpt><trkpt lat="42.3111097" lon="18.7925492"><ele>7.833333333333333</ele><time>2026-05-04T08:04:52.647Z</time></trkpt><trkpt lat="42.3111728" lon="18.7926076"><ele>8.0</ele><time>2026-05-04T08:05:16.648Z</time></trkpt><trkpt lat="42.3112029" lon="18.7926954"><ele>7.999999999999999</ele><time>2026-05-04T08:05:22.648Z</time></trkpt><trkpt lat="42.3111274" lon="18.7927602"><ele>8.0</ele><time>2026-05-04T08:05:24.647Z</time></trkpt><trkpt lat="42.3110538" lon="18.7928793"><ele>8.0</ele><time>2026-05-04T08:05:26.648Z</time></trkpt><trkpt lat="42.311004" lon="18.7929517"><ele>8.0</ele><time>2026-05-04T08:05:28.648Z</time></trkpt><trkpt lat="42.3109811" lon="18.793044"><ele>7.999999999999999</ele><time>2026-05-04T08:05:31.648Z</time></trkpt><trkpt lat="42.3110334" lon="18.7931166"><ele>8.0</ele><time>2026-05-04T08:05:36.648Z</time></trkpt><trkpt lat="42.3111043" lon="18.7930817"><ele>7.999999999999999</ele><time>2026-05-04T08:05:39.648Z</time></trkpt><trkpt lat="42.3111438" lon="18.7930035"><ele>8.0</ele><time>2026-05-04T08:05:41.647Z</time></trkpt><trkpt lat="42.3111969" lon="18.7929048"><ele>8.0</ele><time>2026-05-04T08:05:43.648Z</time></trkpt><trkpt lat="42.3112666" lon="18.7928075"><ele>8.0</ele><time>2026-05-04T08:05:45.648Z</time></trkpt><trkpt lat="42.3113371" lon="18.7927554"><ele>7.999999999999999</ele><time>2026-05-04T08:05:47.648Z</time></trkpt><trkpt lat="42.311403" lon="18.7926876"><ele>8.0</ele><time>2026-05-04T08:05:49.647Z</time></trkpt><trkpt lat="42.3114663" lon="18.7926183"><ele>9.0</ele><time>2026-05-04T08:05:51.647Z</time></trkpt><trkpt lat="42.3115374" lon="18.792543"><ele>10.0</ele><time>2026-05-04T08:05:53.647Z</time></trkpt><trkpt lat="42.3116103" lon="18.7924706"><ele>11.0</ele><time>2026-05-04T08:05:55.647Z</time></trkpt><trkpt lat="42.311691" lon="18.7924054"><ele>12.0</ele><time>2026-05-04T08:05:57.647Z</time></trkpt><trkpt lat="42.3117864" lon="18.7923199"><ele>13.0</ele><time>2026-05-04T08:05:59.648Z</time></trkpt><trkpt lat="42.3118732" lon="18.7922548"><ele>13.0</ele><time>2026-05-04T08:06:01.648Z</time></trkpt><trkpt lat="42.3119552" lon="18.7921899"><ele>13.0</ele><time>2026-05-04T08:06:03.647Z</time></trkpt><trkpt lat="42.3120332" lon="18.7921256"><ele>13.0</ele><time>2026-05-04T08:06:05.648Z</time></trkpt><trkpt lat="42.31212" lon="18.7920477"><ele>13.0</ele><time>2026-05-04T08:06:07.647Z</time></trkpt><trkpt lat="42.3122053" lon="18.7919785"><ele>13.0</ele><time>2026-05-04T08:06:09.648Z</time></trkpt><trkpt lat="42.3122914" lon="18.7919342"><ele>12.666666666666666</ele><time>2026-05-04T08:06:11.647Z</time></trkpt><trkpt lat="42.3123704" lon="18.7918865"><ele>12.333333333333332</ele><time>2026-05-04T08:06:13.647Z</time></trkpt><trkpt lat="42.3124495" lon="18.7918384"><ele>12.0</ele><time>2026-05-04T08:06:15.647Z</time></trkpt><trkpt lat="42.3125264" lon="18.7917989"><ele>11.666666666666666</ele><time>2026-05-04T08:06:17.647Z</time></trkpt><trkpt lat="42.3126002" lon="18.7917628"><ele>11.333333333333332</ele><time>2026-05-04T08:06:19.647Z</time></trkpt><trkpt lat="42.3126683" lon="18.7917155"><ele>11.0</ele><time>2026-05-04T08:06:21.647Z</time></trkpt><trkpt lat="42.3127493" lon="18.7916777"><ele>11.0</ele><time>2026-05-04T08:06:23.648Z</time></trkpt><trkpt lat="42.312824" lon="18.7916305"><ele>11.0</ele><time>2026-05-04T08:06:25.648Z</time></trkpt><trkpt lat="42.3129021" lon="18.7915887"><ele>11.0</ele><time>2026-05-04T08:06:27.647Z</time></trkpt><trkpt lat="42.3129829" lon="18.791545"><ele>11.0</ele><time>2026-05-04T08:06:29.647Z</time></trkpt><trkpt lat="42.3130869" lon="18.791492"><ele>11.0</ele><time>2026-05-04T08:06:31.647Z</time></trkpt><trkpt lat="42.313149" lon="18.7914507"><ele>11.0</ele><time>2026-05-04T08:06:32.648Z</time></trkpt><trkpt lat="42.3132193" lon="18.7914004"><ele>14.0</ele><time>2026-05-04T08:06:33.648Z</time></trkpt><trkpt lat="42.3133049" lon="18.7913491"><ele>17.0</ele><time>2026-05-04T08:06:34.648Z</time></trkpt><trkpt lat="42.3134061" lon="18.7912853"><ele>20.0</ele><time>2026-05-04T08:06:35.648Z</time></trkpt><trkpt lat="42.3135195" lon="18.791221"><ele>23.0</ele><time>2026-05-04T08:06:36.647Z</time></trkpt><trkpt lat="42.3136397" lon="18.7911539"><ele>23.0</ele><time>2026-05-04T08:06:37.647Z</time></trkpt><trkpt lat="42.3137646" lon="18.7910833"><ele>23.0</ele><time>2026-05-04T08:06:38.647Z</time></trkpt><trkpt lat="42.3138964" lon="18.7910076"><ele>23.0</ele><time>2026-05-04T08:06:39.647Z</time></trkpt><trkpt lat="42.3140332" lon="18.7909233"><ele>23.0</ele><time>2026-05-04T08:06:40.648Z</time></trkpt><trkpt lat="42.3141714" lon="18.7908462"><ele>21.666666666666668</ele><time>2026-05-04T08:06:41.648Z</time></trkpt><trkpt lat="42.3143251" lon="18.7907455"><ele>20.333333333333332</ele><time>2026-05-04T08:06:42.647Z</time></trkpt><trkpt lat="42.314481" lon="18.7906409"><ele>19.0</ele><time>2026-05-04T08:06:43.648Z</time></trkpt><trkpt lat="42.3146394" lon="18.7905326"><ele>17.0</ele><time>2026-05-04T08:06:44.647Z</time></trkpt><trkpt lat="42.3148046" lon="18.7904135"><ele>15.0</ele><time>2026-05-04T08:06:45.647Z</time></trkpt><trkpt lat="42.3149754" lon="18.7902808"><ele>13.0</ele><time>2026-05-04T08:06:46.647Z</time></trkpt><trkpt lat="42.3151636" lon="18.7901346"><ele>13.0</ele><time>2026-05-04T08:06:47.648Z</time></trkpt><trkpt lat="42.3153506" lon="18.7899711"><ele>13.0</ele><time>2026-05-04T08:06:48.647Z</time></trkpt><trkpt lat="42.3155413" lon="18.7898068"><ele>13.0</ele><time>2026-05-04T08:06:49.648Z</time></trkpt><trkpt lat="42.3157306" lon="18.7896441"><ele>12.5</ele><time>2026-05-04T08:06:50.647Z</time></trkpt><trkpt lat="42.3159224" lon="18.7894752"><ele>12.0</ele><time>2026-05-04T08:06:51.647Z</time></trkpt><trkpt lat="42.3161154" lon="18.7893003"><ele>12.0</ele><time>2026-05-04T08:06:52.647Z</time></trkpt><trkpt lat="42.3163098" lon="18.7891252"><ele>12.0</ele><time>2026-05-04T08:06:53.647Z</time></trkpt><trkpt lat="42.3165031" lon="18.78895"><ele>18.0</ele><time>2026-05-04T08:06:54.647Z</time></trkpt><trkpt lat="42.316699" lon="18.7887745"><ele>24.0</ele><time>2026-05-04T08:06:55.647Z</time></trkpt><trkpt lat="42.3168909" lon="18.7886024"><ele>23.0</ele><time>2026-05-04T08:06:56.648Z</time></trkpt><trkpt lat="42.3170771" lon="18.7884359"><ele>22.0</ele><time>2026-05-04T08:06:57.647Z</time></trkpt><trkpt lat="42.3172617" lon="18.7882726"><ele>21.0</ele><time>2026-05-04T08:06:58.647Z</time></trkpt><trkpt lat="42.3174312" lon="18.7881245"><ele>21.0</ele><time>2026-05-04T08:06:59.647Z</time></trkpt><trkpt lat="42.3175624" lon="18.7880084"><ele>21.0</ele><time>2026-05-04T08:07:00.647Z</time></trkpt><trkpt lat="42.3176705" lon="18.7879119"><ele>21.0</ele><time>2026-05-04T08:07:01.647Z</time></trkpt><trkpt lat="42.3177734" lon="18.7878192"><ele>21.0</ele><time>2026-05-04T08:07:02.648Z</time></trkpt><trkpt lat="42.3178909" lon="18.7877126"><ele>21.0</ele><time>2026-05-04T08:07:03.648Z</time></trkpt><trkpt lat="42.3180316" lon="18.7875922"><ele>21.0</ele><time>2026-05-04T08:07:04.647Z</time></trkpt><trkpt lat="42.3181962" lon="18.7874623"><ele>21.0</ele><time>2026-05-04T08:07:05.647Z</time></trkpt><trkpt lat="42.3183733" lon="18.7873317"><ele>21.0</ele><time>2026-05-04T08:07:06.648Z</time></trkpt><trkpt lat="42.3185635" lon="18.7871955"><ele>21.0</ele><time>2026-05-04T08:07:07.648Z</time></trkpt><trkpt lat="42.3187572" lon="18.7870583"><ele>21.0</ele><time>2026-05-04T08:07:08.647Z</time></trkpt><trkpt lat="42.3189452" lon="18.7869268"><ele>19.666666666666668</ele><time>2026-05-04T08:07:09.647Z</time></trkpt><trkpt lat="42.3191174" lon="18.786799"><ele>18.333333333333336</ele><time>2026-05-04T08:07:10.647Z</time></trkpt><trkpt lat="42.3192891" lon="18.7866722"><ele>17.0</ele><time>2026-05-04T08:07:11.648Z</time></trkpt><trkpt lat="42.319454" lon="18.7865498"><ele>17.0</ele><time>2026-05-04T08:07:12.647Z</time></trkpt><trkpt lat="42.3196193" lon="18.7864253"><ele>17.0</ele><time>2026-05-04T08:07:13.648Z</time></trkpt><trkpt lat="42.3197792" lon="18.786298"><ele>17.0</ele><time>2026-05-04T08:07:14.648Z</time></trkpt><trkpt lat="42.3199362" lon="18.7861653"><ele>17.333333333333336</ele><time>2026-05-04T08:07:15.647Z</time></trkpt><trkpt lat="42.320089" lon="18.7860333"><ele>17.666666666666668</ele><time>2026-05-04T08:07:16.648Z</time></trkpt><trkpt lat="42.3202398" lon="18.7858945"><ele>18.0</ele><time>2026-05-04T08:07:17.647Z</time></trkpt><trkpt lat="42.3203884" lon="18.785748"><ele>18.0</ele><time>2026-05-04T08:07:18.647Z</time></trkpt><trkpt lat="42.3205406" lon="18.7855809"><ele>18.0</ele><time>2026-05-04T08:07:19.648Z</time></trkpt><trkpt lat="42.3206911" lon="18.7854075"><ele>18.0</ele><time>2026-05-04T08:07:20.648Z</time></trkpt><trkpt lat="42.3208424" lon="18.7852241"><ele>17.666666666666668</ele><time>2026-05-04T08:07:21.647Z</time></trkpt><trkpt lat="42.3209849" lon="18.7850439"><ele>17.333333333333336</ele><time>2026-05-04T08:07:22.647Z</time></trkpt><trkpt lat="42.321121" lon="18.7848678"><ele>17.0</ele><time>2026-05-04T08:07:23.647Z</time></trkpt><trkpt lat="42.3212593" lon="18.7846908"><ele>17.0</ele><time>2026-05-04T08:07:24.648Z</time></trkpt><trkpt lat="42.3214013" lon="18.7845076"><ele>17.0</ele><time>2026-05-04T08:07:25.648Z</time></trkpt><trkpt lat="42.321544" lon="18.7843278"><ele>17.0</ele><time>2026-05-04T08:07:26.647Z</time></trkpt><trkpt lat="42.3216838" lon="18.7841556"><ele>17.0</ele><time>2026-05-04T08:07:27.648Z</time></trkpt><trkpt lat="42.3218201" lon="18.7839882"><ele>17.0</ele><time>2026-05-04T08:07:28.647Z</time></trkpt><trkpt lat="42.3219594" lon="18.7838147"><ele>17.0</ele><time>2026-05-04T08:07:29.647Z</time></trkpt><trkpt lat="42.3221003" lon="18.7836409"><ele>19.0</ele><time>2026-05-04T08:07:30.648Z</time></trkpt><trkpt lat="42.3222458" lon="18.7834544"><ele>21.0</ele><time>2026-05-04T08:07:31.647Z</time></trkpt><trkpt lat="42.3223936" lon="18.7832769"><ele>23.0</ele><time>2026-05-04T08:07:32.647Z</time></trkpt><trkpt lat="42.3225498" lon="18.7830812"><ele>23.0</ele><time>2026-05-04T08:07:33.647Z</time></trkpt><trkpt lat="42.3227081" lon="18.782899"><ele>23.0</ele><time>2026-05-04T08:07:34.647Z</time></trkpt><trkpt lat="42.3228755" lon="18.7827101"><ele>23.0</ele><time>2026-05-04T08:07:35.648Z</time></trkpt><trkpt lat="42.3230487" lon="18.782519"><ele>22.5</ele><time>2026-05-04T08:07:36.648Z</time></trkpt><trkpt lat="42.3232293" lon="18.782329"><ele>22.0</ele><time>2026-05-04T08:07:37.648Z</time></trkpt><trkpt lat="42.323414" lon="18.7821377"><ele>22.0</ele><time>2026-05-04T08:07:38.647Z</time></trkpt><trkpt lat="42.3235974" lon="18.7819571"><ele>22.0</ele><time>2026-05-04T08:07:39.647Z</time></trkpt><trkpt lat="42.3237742" lon="18.7817873"><ele>22.0</ele><time>2026-05-04T08:07:40.647Z</time></trkpt><trkpt lat="42.3239435" lon="18.7816342"><ele>21.333333333333332</ele><time>2026-05-04T08:07:41.647Z</time></trkpt><trkpt lat="42.3241035" lon="18.7814849"><ele>20.666666666666668</ele><time>2026-05-04T08:07:42.648Z</time></trkpt><trkpt lat="42.3242528" lon="18.7813492"><ele>20.0</ele><time>2026-05-04T08:07:43.647Z</time></trkpt><trkpt lat="42.3243873" lon="18.7812333"><ele>20.0</ele><time>2026-05-04T08:07:44.648Z</time></trkpt><trkpt lat="42.3245113" lon="18.7811282"><ele>20.0</ele><time>2026-05-04T08:07:45.648Z</time></trkpt><trkpt lat="42.3246226" lon="18.7810476"><ele>20.0</ele><time>2026-05-04T08:07:46.647Z</time></trkpt><trkpt lat="42.324726" lon="18.7809958"><ele>20.0</ele><time>2026-05-04T08:07:47.648Z</time></trkpt><trkpt lat="42.324828" lon="18.7809673"><ele>19.8</ele><time>2026-05-04T08:07:48.648Z</time></trkpt><trkpt lat="42.324925" lon="18.7809483"><ele>19.6</ele><time>2026-05-04T08:07:49.647Z</time></trkpt><trkpt lat="42.3250093" lon="18.7809156"><ele>19.4</ele><time>2026-05-04T08:07:50.648Z</time></trkpt><trkpt lat="42.3250847" lon="18.7808475"><ele>19.2</ele><time>2026-05-04T08:07:51.647Z</time></trkpt><trkpt lat="42.3251462" lon="18.7807516"><ele>19.0</ele><time>2026-05-04T08:07:52.648Z</time></trkpt><trkpt lat="42.3251975" lon="18.7806302"><ele>19.0</ele><time>2026-05-04T08:07:53.647Z</time></trkpt><trkpt lat="42.3252625" lon="18.7805128"><ele>19.0</ele><time>2026-05-04T08:07:54.647Z</time></trkpt><trkpt lat="42.3253542" lon="18.7803871"><ele>19.0</ele><time>2026-05-04T08:07:55.648Z</time></trkpt><trkpt lat="42.3254752" lon="18.7802551"><ele>19.0</ele><time>2026-05-04T08:07:56.647Z</time></trkpt><trkpt lat="42.3256113" lon="18.7801238"><ele>20.0</ele><time>2026-05-04T08:07:57.648Z</time></trkpt><trkpt lat="42.325767" lon="18.7799832"><ele>21.0</ele><time>2026-05-04T08:07:58.647Z</time></trkpt><trkpt lat="42.3259269" lon="18.7798332"><ele>22.0</ele><time>2026-05-04T08:07:59.647Z</time></trkpt><trkpt lat="42.3260868" lon="18.7796801"><ele>22.0</ele><time>2026-05-04T08:08:00.647Z</time></trkpt><trkpt lat="42.3262514" lon="18.779528"><ele>22.0</ele><time>2026-05-04T08:08:01.648Z</time></trkpt><trkpt lat="42.3264126" lon="18.7793767"><ele>22.0</ele><time>2026-05-04T08:08:02.647Z</time></trkpt><trkpt lat="42.3265728" lon="18.779225"><ele>22.0</ele><time>2026-05-04T08:08:03.648Z</time></trkpt><trkpt lat="42.3267275" lon="18.7790783"><ele>22.0</ele><time>2026-05-04T08:08:04.647Z</time></trkpt><trkpt lat="42.3268837" lon="18.7789271"><ele>22.0</ele><time>2026-05-04T08:08:05.648Z</time></trkpt><trkpt lat="42.3270356" lon="18.7787827"><ele>22.0</ele><time>2026-05-04T08:08:06.648Z</time></trkpt><trkpt lat="42.3271874" lon="18.7786371"><ele>22.0</ele><time>2026-05-04T08:08:07.648Z</time></trkpt><trkpt lat="42.3273345" lon="18.7784891"><ele>22.0</ele><time>2026-05-04T08:08:08.647Z</time></trkpt><trkpt lat="42.3274865" lon="18.7783345"><ele>22.666666666666664</ele><time>2026-05-04T08:08:09.647Z</time></trkpt><trkpt lat="42.3276407" lon="18.7781832"><ele>23.333333333333332</ele><time>2026-05-04T08:08:10.648Z</time></trkpt><trkpt lat="42.3278022" lon="18.7780181"><ele>24.0</ele><time>2026-05-04T08:08:11.647Z</time></trkpt><trkpt lat="42.3279729" lon="18.7778299"><ele>26.5</ele><time>2026-05-04T08:08:12.648Z</time></trkpt><trkpt lat="42.3281505" lon="18.7776342"><ele>29.0</ele><time>2026-05-04T08:08:13.647Z</time></trkpt><trkpt lat="42.3283343" lon="18.7774362"><ele>29.0</ele><time>2026-05-04T08:08:14.647Z</time></trkpt><trkpt lat="42.3285245" lon="18.7772314"><ele>29.0</ele><time>2026-05-04T08:08:15.647Z</time></trkpt><trkpt lat="42.3287148" lon="18.7770253"><ele>31.0</ele><time>2026-05-04T08:08:16.648Z</time></trkpt><trkpt lat="42.3289084" lon="18.7768166"><ele>33.0</ele><time>2026-05-04T08:08:17.648Z</time></trkpt><trkpt lat="42.3290965" lon="18.7766139"><ele>33.0</ele><time>2026-05-04T08:08:18.647Z</time></trkpt><trkpt lat="42.3292832" lon="18.7764034"><ele>33.0</ele><time>2026-05-04T08:08:19.647Z</time></trkpt><trkpt lat="42.3294631" lon="18.7762045"><ele>32.5</ele><time>2026-05-04T08:08:20.648Z</time></trkpt><trkpt lat="42.3296416" lon="18.7760047"><ele>32.0</ele><time>2026-05-04T08:08:21.648Z</time></trkpt><trkpt lat="42.3298169" lon="18.7758115"><ele>32.0</ele><time>2026-05-04T08:08:22.647Z</time></trkpt><trkpt lat="42.3299902" lon="18.775618"><ele>32.0</ele><time>2026-05-04T08:08:23.648Z</time></trkpt><trkpt lat="42.3301569" lon="18.7754306"><ele>32.0</ele><time>2026-05-04T08:08:24.648Z</time></trkpt><trkpt lat="42.3303248" lon="18.7752454"><ele>33.0</ele><time>2026-05-04T08:08:25.648Z</time></trkpt><trkpt lat="42.3304863" lon="18.7750626"><ele>34.0</ele><time>2026-05-04T08:08:26.648Z</time></trkpt><trkpt lat="42.330649" lon="18.7748794"><ele>35.0</ele><time>2026-05-04T08:08:27.648Z</time></trkpt><trkpt lat="42.330808" lon="18.7747076"><ele>35.0</ele><time>2026-05-04T08:08:28.647Z</time></trkpt><trkpt lat="42.3309701" lon="18.7745352"><ele>35.0</ele><time>2026-05-04T08:08:29.648Z</time></trkpt><trkpt lat="42.3311316" lon="18.7743722"><ele>35.0</ele><time>2026-05-04T08:08:30.647Z</time></trkpt><trkpt lat="42.3312931" lon="18.7742057"><ele>35.33333333333333</ele><time>2026-05-04T08:08:31.648Z</time></trkpt><trkpt lat="42.3314562" lon="18.7740496"><ele>35.666666666666664</ele><time>2026-05-04T08:08:32.648Z</time></trkpt><trkpt lat="42.3316265" lon="18.7739025"><ele>36.0</ele><time>2026-05-04T08:08:33.648Z</time></trkpt><trkpt lat="42.331802" lon="18.7737484"><ele>36.0</ele><time>2026-05-04T08:08:34.647Z</time></trkpt><trkpt lat="42.3319845" lon="18.7736062"><ele>36.0</ele><time>2026-05-04T08:08:35.647Z</time></trkpt><trkpt lat="42.3321666" lon="18.7734777"><ele>36.0</ele><time>2026-05-04T08:08:36.647Z</time></trkpt><trkpt lat="42.3323541" lon="18.7733517"><ele>34.666666666666664</ele><time>2026-05-04T08:08:37.647Z</time></trkpt><trkpt lat="42.3325399" lon="18.7732389"><ele>33.33333333333333</ele><time>2026-05-04T08:08:38.648Z</time></trkpt><trkpt lat="42.3327303" lon="18.7731327"><ele>32.0</ele><time>2026-05-04T08:08:39.647Z</time></trkpt><trkpt lat="42.3329246" lon="18.7730439"><ele>34.33333333333333</ele><time>2026-05-04T08:08:40.647Z</time></trkpt><trkpt lat="42.3331213" lon="18.7729572"><ele>36.666666666666664</ele><time>2026-05-04T08:08:41.648Z</time></trkpt><trkpt lat="42.3333212" lon="18.7728741"><ele>39.0</ele><time>2026-05-04T08:08:42.648Z</time></trkpt><trkpt lat="42.3335157" lon="18.7727982"><ele>39.0</ele><time>2026-05-04T08:08:43.648Z</time></trkpt><trkpt lat="42.3337146" lon="18.7727388"><ele>39.0</ele><time>2026-05-04T08:08:44.647Z</time></trkpt><trkpt lat="42.3339177" lon="18.7726838"><ele>39.0</ele><time>2026-05-04T08:08:45.648Z</time></trkpt><trkpt lat="42.3341119" lon="18.7726349"><ele>37.666666666666664</ele><time>2026-05-04T08:08:46.648Z</time></trkpt><trkpt lat="42.3343108" lon="18.7725953"><ele>36.33333333333333</ele><time>2026-05-04T08:08:47.648Z</time></trkpt><trkpt lat="42.334496" lon="18.772565"><ele>35.0</ele><time>2026-05-04T08:08:48.647Z</time></trkpt><trkpt lat="42.3346652" lon="18.7725393"><ele>35.25</ele><time>2026-05-04T08:08:49.647Z</time></trkpt><trkpt lat="42.3348189" lon="18.7725222"><ele>35.5</ele><time>2026-05-04T08:08:50.647Z</time></trkpt><trkpt lat="42.3349707" lon="18.7725078"><ele>35.75</ele><time>2026-05-04T08:08:51.647Z</time></trkpt><trkpt lat="42.3351099" lon="18.7724959"><ele>36.0</ele><time>2026-05-04T08:08:52.648Z</time></trkpt><trkpt lat="42.3352447" lon="18.7724864"><ele>36.0</ele><time>2026-05-04T08:08:53.648Z</time></trkpt><trkpt lat="42.3353742" lon="18.772477"><ele>36.0</ele><time>2026-05-04T08:08:54.648Z</time></trkpt><trkpt lat="42.3354985" lon="18.7724673"><ele>36.0</ele><time>2026-05-04T08:08:55.647Z</time></trkpt><trkpt lat="42.3356112" lon="18.7724607"><ele>36.0</ele><time>2026-05-04T08:08:56.648Z</time></trkpt><trkpt lat="42.3357181" lon="18.7724507"><ele>36.4</ele><time>2026-05-04T08:08:57.648Z</time></trkpt><trkpt lat="42.3358135" lon="18.7724401"><ele>36.8</ele><time>2026-05-04T08:08:58.648Z</time></trkpt><trkpt lat="42.3358996" lon="18.7724289"><ele>37.199999999999996</ele><time>2026-05-04T08:08:59.648Z</time></trkpt><trkpt lat="42.3359711" lon="18.7724199"><ele>37.6</ele><time>2026-05-04T08:09:00.647Z</time></trkpt><trkpt lat="42.3360891" lon="18.7723994"><ele>38.0</ele><time>2026-05-04T08:09:02.648Z</time></trkpt><trkpt lat="42.3362058" lon="18.7723496"><ele>38.0</ele><time>2026-05-04T08:09:04.648Z</time></trkpt><trkpt lat="42.3362761" lon="18.7723185"><ele>38.0</ele><time>2026-05-04T08:09:05.648Z</time></trkpt><trkpt lat="42.3363487" lon="18.7722955"><ele>38.0</ele><time>2026-05-04T08:09:06.648Z</time></trkpt><trkpt lat="42.3364257" lon="18.7722794"><ele>38.0</ele><time>2026-05-04T08:09:07.648Z</time></trkpt><trkpt lat="42.3365016" lon="18.7722752"><ele>38.0</ele><time>2026-05-04T08:09:08.647Z</time></trkpt><trkpt lat="42.3365764" lon="18.7722821"><ele>38.0</ele><time>2026-05-04T08:09:09.647Z</time></trkpt><trkpt lat="42.3366498" lon="18.7722726"><ele>37.33333333333333</ele><time>2026-05-04T08:09:10.647Z</time></trkpt><trkpt lat="42.3367202" lon="18.7722739"><ele>36.666666666666664</ele><time>2026-05-04T08:09:11.648Z</time></trkpt><trkpt lat="42.3367939" lon="18.7722642"><ele>36.0</ele><time>2026-05-04T08:09:12.648Z</time></trkpt><trkpt lat="42.3368706" lon="18.7722551"><ele>35.333333333333336</ele><time>2026-05-04T08:09:13.647Z</time></trkpt><trkpt lat="42.3369487" lon="18.7722507"><ele>34.66666666666667</ele><time>2026-05-04T08:09:14.648Z</time></trkpt><trkpt lat="42.3370298" lon="18.7722439"><ele>34.0</ele><time>2026-05-04T08:09:15.647Z</time></trkpt><trkpt lat="42.337112" lon="18.7722306"><ele>34.0</ele><time>2026-05-04T08:09:16.647Z</time></trkpt><trkpt lat="42.337196" lon="18.7722146"><ele>34.0</ele><time>2026-05-04T08:09:17.648Z</time></trkpt><trkpt lat="42.3372802" lon="18.7722016"><ele>34.0</ele><time>2026-05-04T08:09:18.647Z</time></trkpt><trkpt lat="42.3373667" lon="18.7721864"><ele>34.0</ele><time>2026-05-04T08:09:19.647Z</time></trkpt><trkpt lat="42.3374505" lon="18.772171"><ele>34.0</ele><time>2026-05-04T08:09:20.647Z</time></trkpt><trkpt lat="42.3375301" lon="18.7721562"><ele>34.0</ele><time>2026-05-04T08:09:21.648Z</time></trkpt><trkpt lat="42.337607" lon="18.7721422"><ele>34.66666666666667</ele><time>2026-05-04T08:09:22.648Z</time></trkpt><trkpt lat="42.3376844" lon="18.7721291"><ele>35.333333333333336</ele><time>2026-05-04T08:09:23.647Z</time></trkpt><trkpt lat="42.3377629" lon="18.7721017"><ele>36.0</ele><time>2026-05-04T08:09:24.647Z</time></trkpt><trkpt lat="42.3378399" lon="18.7720822"><ele>36.666666666666664</ele><time>2026-05-04T08:09:25.647Z</time></trkpt><trkpt lat="42.3379142" lon="18.7720616"><ele>37.33333333333333</ele><time>2026-05-04T08:09:26.647Z</time></trkpt><trkpt lat="42.3379772" lon="18.7720445"><ele>38.0</ele><time>2026-05-04T08:09:27.647Z</time></trkpt><trkpt lat="42.338064" lon="18.7720169"><ele>38.714285714285715</ele><time>2026-05-04T08:09:29.647Z</time></trkpt><trkpt lat="42.338142" lon="18.771979"><ele>39.42857142857143</ele><time>2026-05-04T08:09:32.648Z</time></trkpt><trkpt lat="42.338207" lon="18.7719679"><ele>40.142857142857146</ele><time>2026-05-04T08:09:35.648Z</time></trkpt><trkpt lat="42.3382815" lon="18.7719179"><ele>40.85714285714286</ele><time>2026-05-04T08:09:39.648Z</time></trkpt><trkpt lat="42.3383512" lon="18.7718734"><ele>41.57142857142857</ele><time>2026-05-04T08:09:43.648Z</time></trkpt><trkpt lat="42.338422" lon="18.7718466"><ele>42.28571428571429</ele><time>2026-05-04T08:09:47.648Z</time></trkpt><trkpt lat="42.3384854" lon="18.7718398"><ele>43.0</ele><time>2026-05-04T08:09:50.648Z</time></trkpt><trkpt lat="42.3385606" lon="18.771811"><ele>43.16666666666667</ele><time>2026-05-04T08:09:53.647Z</time></trkpt><trkpt lat="42.3386417" lon="18.7717827"><ele>43.333333333333336</ele><time>2026-05-04T08:09:57.647Z</time></trkpt><trkpt lat="42.3387084" lon="18.7717493"><ele>43.5</ele><time>2026-05-04T08:10:00.647Z</time></trkpt><trkpt lat="42.3387858" lon="18.7717263"><ele>43.666666666666664</ele><time>2026-05-04T08:10:03.648Z</time></trkpt><trkpt lat="42.33885" lon="18.7716916"><ele>43.83333333333333</ele><time>2026-05-04T08:10:05.648Z</time></trkpt><trkpt lat="42.3389338" lon="18.7716572"><ele>44.0</ele><time>2026-05-04T08:10:07.647Z</time></trkpt><trkpt lat="42.3390622" lon="18.771622"><ele>44.400000000000006</ele><time>2026-05-04T08:10:09.648Z</time></trkpt><trkpt lat="42.3391392" lon="18.7715961"><ele>44.8</ele><time>2026-05-04T08:10:10.648Z</time></trkpt><trkpt lat="42.3392212" lon="18.771566"><ele>45.2</ele><time>2026-05-04T08:10:11.647Z</time></trkpt><trkpt lat="42.3393081" lon="18.7715285"><ele>45.599999999999994</ele><time>2026-05-04T08:10:12.648Z</time></trkpt><trkpt lat="42.3394036" lon="18.7714842"><ele>46.0</ele><time>2026-05-04T08:10:13.648Z</time></trkpt><trkpt lat="42.3395019" lon="18.771435"><ele>46.0</ele><time>2026-05-04T08:10:14.648Z</time></trkpt><trkpt lat="42.3396011" lon="18.7713894"><ele>46.0</ele><time>2026-05-04T08:10:15.648Z</time></trkpt><trkpt lat="42.3396979" lon="18.7713409"><ele>46.0</ele><time>2026-05-04T08:10:16.647Z</time></trkpt><trkpt lat="42.3397934" lon="18.7712941"><ele>46.0</ele><time>2026-05-04T08:10:17.647Z</time></trkpt><trkpt lat="42.3398875" lon="18.7712471"><ele>46.0</ele><time>2026-05-04T08:10:18.648Z</time></trkpt><trkpt lat="42.339983" lon="18.7712016"><ele>46.199999999999996</ele><time>2026-05-04T08:10:19.647Z</time></trkpt><trkpt lat="42.3400787" lon="18.7711539"><ele>46.4</ele><time>2026-05-04T08:10:20.648Z</time></trkpt><trkpt lat="42.3401748" lon="18.7711095"><ele>46.6</ele><time>2026-05-04T08:10:21.647Z</time></trkpt><trkpt lat="42.3402686" lon="18.7710682"><ele>46.8</ele><time>2026-05-04T08:10:22.647Z</time></trkpt><trkpt lat="42.3403659" lon="18.7710129"><ele>47.0</ele><time>2026-05-04T08:10:23.647Z</time></trkpt><trkpt lat="42.3404657" lon="18.7709572"><ele>47.25</ele><time>2026-05-04T08:10:24.648Z</time></trkpt><trkpt lat="42.3405655" lon="18.7709023"><ele>47.5</ele><time>2026-05-04T08:10:25.647Z</time></trkpt><trkpt lat="42.3406696" lon="18.7708417"><ele>47.75</ele><time>2026-05-04T08:10:26.647Z</time></trkpt><trkpt lat="42.3407753" lon="18.770787"><ele>48.0</ele><time>2026-05-04T08:10:27.647Z</time></trkpt><trkpt lat="42.3408844" lon="18.7707309"><ele>48.0</ele><time>2026-05-04T08:10:28.647Z</time></trkpt><trkpt lat="42.340995" lon="18.7706744"><ele>48.0</ele><time>2026-05-04T08:10:29.648Z</time></trkpt><trkpt lat="42.3411063" lon="18.7706188"><ele>48.0</ele><time>2026-05-04T08:10:30.648Z</time></trkpt><trkpt lat="42.3412201" lon="18.7705559"><ele>48.0</ele><time>2026-05-04T08:10:31.647Z</time></trkpt><trkpt lat="42.3413341" lon="18.770498"><ele>50.0</ele><time>2026-05-04T08:10:32.648Z</time></trkpt><trkpt lat="42.341448" lon="18.7704392"><ele>52.0</ele><time>2026-05-04T08:10:33.647Z</time></trkpt><trkpt lat="42.3415604" lon="18.7703808"><ele>54.0</ele><time>2026-05-04T08:10:34.648Z</time></trkpt><trkpt lat="42.3416728" lon="18.7703221"><ele>56.0</ele><time>2026-05-04T08:10:35.647Z</time></trkpt><trkpt lat="42.341786" lon="18.770258"><ele>56.0</ele><time>2026-05-04T08:10:36.648Z</time></trkpt><trkpt lat="42.3418982" lon="18.7701972"><ele>56.0</ele><time>2026-05-04T08:10:37.648Z</time></trkpt><trkpt lat="42.3420141" lon="18.7701361"><ele>56.0</ele><time>2026-05-04T08:10:38.647Z</time></trkpt><trkpt lat="42.342134" lon="18.7700734"><ele>56.0</ele><time>2026-05-04T08:10:39.647Z</time></trkpt><trkpt lat="42.342254" lon="18.7700115"><ele>56.25</ele><time>2026-05-04T08:10:40.647Z</time></trkpt><trkpt lat="42.3423716" lon="18.7699506"><ele>56.5</ele><time>2026-05-04T08:10:41.648Z</time></trkpt><trkpt lat="42.3424896" lon="18.7698876"><ele>56.75</ele><time>2026-05-04T08:10:42.647Z</time></trkpt><trkpt lat="42.3426056" lon="18.769832"><ele>57.0</ele><time>2026-05-04T08:10:43.647Z</time></trkpt><trkpt lat="42.3427241" lon="18.769775"><ele>57.0</ele><time>2026-05-04T08:10:44.647Z</time></trkpt><trkpt lat="42.3428457" lon="18.7697165"><ele>57.0</ele><time>2026-05-04T08:10:45.647Z</time></trkpt><trkpt lat="42.3429688" lon="18.7696626"><ele>57.0</ele><time>2026-05-04T08:10:46.647Z</time></trkpt><trkpt lat="42.3430942" lon="18.7696086"><ele>57.0</ele><time>2026-05-04T08:10:47.648Z</time></trkpt><trkpt lat="42.3432208" lon="18.7695575"><ele>59.25</ele><time>2026-05-04T08:10:48.648Z</time></trkpt><trkpt lat="42.3433491" lon="18.7695072"><ele>61.5</ele><time>2026-05-04T08:10:49.648Z</time></trkpt><trkpt lat="42.3434807" lon="18.7694579"><ele>63.75</ele><time>2026-05-04T08:10:50.647Z</time></trkpt><trkpt lat="42.3436139" lon="18.7694097"><ele>66.0</ele><time>2026-05-04T08:10:51.648Z</time></trkpt><trkpt lat="42.3437506" lon="18.7693628"><ele>65.5</ele><time>2026-05-04T08:10:52.648Z</time></trkpt><trkpt lat="42.3438898" lon="18.7693156"><ele>65.0</ele><time>2026-05-04T08:10:53.648Z</time></trkpt><trkpt lat="42.3440291" lon="18.7692714"><ele>64.5</ele><time>2026-05-04T08:10:54.647Z</time></trkpt><trkpt lat="42.3441675" lon="18.7692307"><ele>64.0</ele><time>2026-05-04T08:10:55.647Z</time></trkpt><trkpt lat="42.3443039" lon="18.7691931"><ele>64.0</ele><time>2026-05-04T08:10:56.647Z</time></trkpt><trkpt lat="42.3444379" lon="18.7691579"><ele>64.0</ele><time>2026-05-04T08:10:57.648Z</time></trkpt><trkpt lat="42.3445677" lon="18.7691231"><ele>64.0</ele><time>2026-05-04T08:10:58.647Z</time></trkpt><trkpt lat="42.3446951" lon="18.7690896"><ele>64.0</ele><time>2026-05-04T08:10:59.648Z</time></trkpt><trkpt lat="42.3448191" lon="18.7690649"><ele>65.5</ele><time>2026-05-04T08:11:00.647Z</time></trkpt><trkpt lat="42.3449418" lon="18.7690414"><ele>67.0</ele><time>2026-05-04T08:11:01.647Z</time></trkpt><trkpt lat="42.345065" lon="18.7690184"><ele>68.5</ele><time>2026-05-04T08:11:02.647Z</time></trkpt><trkpt lat="42.3451892" lon="18.7689945"><ele>70.0</ele><time>2026-05-04T08:11:03.647Z</time></trkpt><trkpt lat="42.3453186" lon="18.7689678"><ele>70.0</ele><time>2026-05-04T08:11:04.648Z</time></trkpt><trkpt lat="42.3454525" lon="18.7689376"><ele>70.0</ele><time>2026-05-04T08:11:05.647Z</time></trkpt><trkpt lat="42.3455875" lon="18.7689092"><ele>70.0</ele><time>2026-05-04T08:11:06.648Z</time></trkpt><trkpt lat="42.3457226" lon="18.7688814"><ele>70.0</ele><time>2026-05-04T08:11:07.647Z</time></trkpt><trkpt lat="42.3458589" lon="18.7688582"><ele>70.25</ele><time>2026-05-04T08:11:08.648Z</time></trkpt><trkpt lat="42.3459961" lon="18.76883"><ele>70.5</ele><time>2026-05-04T08:11:09.648Z</time></trkpt><trkpt lat="42.3461343" lon="18.7688016"><ele>70.75</ele><time>2026-05-04T08:11:10.648Z</time></trkpt><trkpt lat="42.3462746" lon="18.7687723"><ele>71.0</ele><time>2026-05-04T08:11:11.648Z</time></trkpt><trkpt lat="42.3464141" lon="18.7687437"><ele>71.5</ele><time>2026-05-04T08:11:12.648Z</time></trkpt><trkpt lat="42.3465509" lon="18.7687111"><ele>72.0</ele><time>2026-05-04T08:11:13.647Z</time></trkpt><trkpt lat="42.3466828" lon="18.768677"><ele>72.5</ele><time>2026-05-04T08:11:14.647Z</time></trkpt><trkpt lat="42.346812" lon="18.7686422"><ele>73.0</ele><time>2026-05-04T08:11:15.648Z</time></trkpt><trkpt lat="42.3469364" lon="18.7686044"><ele>73.0</ele><time>2026-05-04T08:11:16.648Z</time></trkpt><trkpt lat="42.3470601" lon="18.7685634"><ele>73.0</ele><time>2026-05-04T08:11:17.647Z</time></trkpt><trkpt lat="42.3471857" lon="18.7685204"><ele>73.0</ele><time>2026-05-04T08:11:18.647Z</time></trkpt><trkpt lat="42.3473167" lon="18.7684695"><ele>73.0</ele><time>2026-05-04T08:11:19.648Z</time></trkpt><trkpt lat="42.3474516" lon="18.7684167"><ele>71.33333333333333</ele><time>2026-05-04T08:11:20.647Z</time></trkpt><trkpt lat="42.3475898" lon="18.7683565"><ele>69.66666666666667</ele><time>2026-05-04T08:11:21.648Z</time></trkpt><trkpt lat="42.3477401" lon="18.7682894"><ele>68.0</ele><time>2026-05-04T08:11:22.648Z</time></trkpt><trkpt lat="42.3479084" lon="18.7682083"><ele>70.66666666666667</ele><time>2026-05-04T08:11:23.647Z</time></trkpt><trkpt lat="42.3480892" lon="18.7681241"><ele>73.33333333333333</ele><time>2026-05-04T08:11:24.648Z</time></trkpt><trkpt lat="42.3482683" lon="18.7680478"><ele>76.0</ele><time>2026-05-04T08:11:25.647Z</time></trkpt><trkpt lat="42.3484347" lon="18.7679755"><ele>76.0</ele><time>2026-05-04T08:11:26.647Z</time></trkpt><trkpt lat="42.3485887" lon="18.767887"><ele>76.0</ele><time>2026-05-04T08:11:27.647Z</time></trkpt><trkpt lat="42.3487321" lon="18.7678057"><ele>76.0</ele><time>2026-05-04T08:11:28.648Z</time></trkpt><trkpt lat="42.3488664" lon="18.7677299"><ele>76.0</ele><time>2026-05-04T08:11:29.648Z</time></trkpt><trkpt lat="42.3489944" lon="18.7676556"><ele>76.0</ele><time>2026-05-04T08:11:30.648Z</time></trkpt><trkpt lat="42.3491185" lon="18.7675822"><ele>76.0</ele><time>2026-05-04T08:11:31.647Z</time></trkpt><trkpt lat="42.349243" lon="18.7675033"><ele>76.0</ele><time>2026-05-04T08:11:32.647Z</time></trkpt><trkpt lat="42.3493655" lon="18.7674238"><ele>76.0</ele><time>2026-05-04T08:11:33.647Z</time></trkpt><trkpt lat="42.3494928" lon="18.7673343"><ele>76.0</ele><time>2026-05-04T08:11:34.647Z</time></trkpt><trkpt lat="42.3496182" lon="18.7672457"><ele>76.0</ele><time>2026-05-04T08:11:35.647Z</time></trkpt><trkpt lat="42.3497418" lon="18.7671557"><ele>76.0</ele><time>2026-05-04T08:11:36.648Z</time></trkpt><trkpt lat="42.3498633" lon="18.767064"><ele>76.33333333333333</ele><time>2026-05-04T08:11:37.648Z</time></trkpt><trkpt lat="42.3499864" lon="18.7669673"><ele>76.66666666666667</ele><time>2026-05-04T08:11:38.648Z</time></trkpt><trkpt lat="42.3501157" lon="18.7668609"><ele>77.0</ele><time>2026-05-04T08:11:39.648Z</time></trkpt><trkpt lat="42.350251" lon="18.7667403"><ele>77.33333333333334</ele><time>2026-05-04T08:11:40.648Z</time></trkpt><trkpt lat="42.3503945" lon="18.7666097"><ele>77.66666666666667</ele><time>2026-05-04T08:11:41.648Z</time></trkpt><trkpt lat="42.3505382" lon="18.7664727"><ele>78.0</ele><time>2026-05-04T08:11:42.648Z</time></trkpt><trkpt lat="42.3506814" lon="18.7663286"><ele>79.33333333333333</ele><time>2026-05-04T08:11:43.648Z</time></trkpt><trkpt lat="42.3508295" lon="18.766174"><ele>80.66666666666666</ele><time>2026-05-04T08:11:44.647Z</time></trkpt><trkpt lat="42.3509863" lon="18.7660054"><ele>82.0</ele><time>2026-05-04T08:11:45.648Z</time></trkpt><trkpt lat="42.3511447" lon="18.7658669"><ele>82.66666666666666</ele><time>2026-05-04T08:11:46.647Z</time></trkpt><trkpt lat="42.3513055" lon="18.7657097"><ele>83.33333333333333</ele><time>2026-05-04T08:11:47.648Z</time></trkpt><trkpt lat="42.351467" lon="18.7655591"><ele>84.0</ele><time>2026-05-04T08:11:48.647Z</time></trkpt><trkpt lat="42.3516211" lon="18.7653964"><ele>84.0</ele><time>2026-05-04T08:11:49.648Z</time></trkpt><trkpt lat="42.3517677" lon="18.7652539"><ele>84.0</ele><time>2026-05-04T08:11:50.647Z</time></trkpt><trkpt lat="42.3519106" lon="18.7651108"><ele>84.0</ele><time>2026-05-04T08:11:51.648Z</time></trkpt><trkpt lat="42.3520526" lon="18.7649649"><ele>84.0</ele><time>2026-05-04T08:11:52.647Z</time></trkpt><trkpt lat="42.3521937" lon="18.7648204"><ele>84.0</ele><time>2026-05-04T08:11:53.647Z</time></trkpt><trkpt lat="42.3523345" lon="18.7646729"><ele>84.0</ele><time>2026-05-04T08:11:54.648Z</time></trkpt><trkpt lat="42.3524748" lon="18.7645228"><ele>84.0</ele><time>2026-05-04T08:11:55.648Z</time></trkpt><trkpt lat="42.352614" lon="18.7643732"><ele>84.0</ele><time>2026-05-04T08:11:56.648Z</time></trkpt><trkpt lat="42.3527545" lon="18.7642259"><ele>84.0</ele><time>2026-05-04T08:11:57.648Z</time></trkpt><trkpt lat="42.3528939" lon="18.7640925"><ele>84.33333333333333</ele><time>2026-05-04T08:11:58.647Z</time></trkpt><trkpt lat="42.3530335" lon="18.7639506"><ele>84.66666666666666</ele><time>2026-05-04T08:11:59.647Z</time></trkpt><trkpt lat="42.3531706" lon="18.7638272"><ele>85.0</ele><time>2026-05-04T08:12:00.647Z</time></trkpt><trkpt lat="42.3533075" lon="18.7637017"><ele>85.0</ele><time>2026-05-04T08:12:01.648Z</time></trkpt><trkpt lat="42.3534458" lon="18.7635848"><ele>85.0</ele><time>2026-05-04T08:12:02.647Z</time></trkpt><trkpt lat="42.3535817" lon="18.7634785"><ele>85.0</ele><time>2026-05-04T08:12:03.647Z</time></trkpt><trkpt lat="42.3537105" lon="18.7633818"><ele>85.5</ele><time>2026-05-04T08:12:04.648Z</time></trkpt><trkpt lat="42.3538372" lon="18.763281"><ele>86.0</ele><time>2026-05-04T08:12:05.647Z</time></trkpt><trkpt lat="42.3539601" lon="18.7631825"><ele>86.5</ele><time>2026-05-04T08:12:06.648Z</time></trkpt><trkpt lat="42.3540811" lon="18.7630815"><ele>87.0</ele><time>2026-05-04T08:12:07.647Z</time></trkpt><trkpt lat="42.3541972" lon="18.7629846"><ele>87.0</ele><time>2026-05-04T08:12:08.647Z</time></trkpt><trkpt lat="42.3543097" lon="18.7628904"><ele>87.0</ele><time>2026-05-04T08:12:09.648Z</time></trkpt><trkpt lat="42.354417" lon="18.7628066"><ele>87.0</ele><time>2026-05-04T08:12:10.648Z</time></trkpt><trkpt lat="42.3545169" lon="18.7627287"><ele>87.0</ele><time>2026-05-04T08:12:11.647Z</time></trkpt><trkpt lat="42.354609" lon="18.7626571"><ele>86.16666666666667</ele><time>2026-05-04T08:12:12.647Z</time></trkpt><trkpt lat="42.3546922" lon="18.7625929"><ele>85.33333333333333</ele><time>2026-05-04T08:12:13.647Z</time></trkpt><trkpt lat="42.354761" lon="18.7625392"><ele>84.5</ele><time>2026-05-04T08:12:14.648Z</time></trkpt><trkpt lat="42.3548178" lon="18.7624931"><ele>83.66666666666666</ele><time>2026-05-04T08:12:15.647Z</time></trkpt><trkpt lat="42.3548718" lon="18.7624465"><ele>82.83333333333333</ele><time>2026-05-04T08:12:16.648Z</time></trkpt><trkpt lat="42.3549695" lon="18.7623787"><ele>82.0</ele><time>2026-05-04T08:12:18.648Z</time></trkpt><trkpt lat="42.3550568" lon="18.762315"><ele>81.85714285714285</ele><time>2026-05-04T08:12:20.648Z</time></trkpt><trkpt lat="42.3551283" lon="18.762265"><ele>81.71428571428571</ele><time>2026-05-04T08:12:22.647Z</time></trkpt><trkpt lat="42.355195" lon="18.762221"><ele>81.57142857142857</ele><time>2026-05-04T08:12:24.648Z</time></trkpt><trkpt lat="42.3552588" lon="18.7621825"><ele>81.42857142857142</ele><time>2026-05-04T08:12:26.648Z</time></trkpt><trkpt lat="42.3553258" lon="18.7621452"><ele>81.28571428571428</ele><time>2026-05-04T08:12:28.648Z</time></trkpt><trkpt lat="42.3553856" lon="18.7621117"><ele>81.14285714285714</ele><time>2026-05-04T08:12:30.648Z</time></trkpt><trkpt lat="42.355469" lon="18.7620765"><ele>81.0</ele><time>2026-05-04T08:12:33.648Z</time></trkpt><trkpt lat="42.3555453" lon="18.7620305"><ele>81.28571428571429</ele><time>2026-05-04T08:12:36.647Z</time></trkpt><trkpt lat="42.3556136" lon="18.761995"><ele>81.57142857142857</ele><time>2026-05-04T08:12:40.647Z</time></trkpt><trkpt lat="42.3556792" lon="18.7619595"><ele>81.85714285714286</ele><time>2026-05-04T08:12:44.648Z</time></trkpt><trkpt lat="42.3557458" lon="18.761943"><ele>82.14285714285714</ele><time>2026-05-04T08:12:48.648Z</time></trkpt><trkpt lat="42.3558234" lon="18.7619601"><ele>82.42857142857143</ele><time>2026-05-04T08:12:52.647Z</time></trkpt><trkpt lat="42.355887" lon="18.7619764"><ele>82.71428571428571</ele><time>2026-05-04T08:12:55.648Z</time></trkpt><trkpt lat="42.3559604" lon="18.7619706"><ele>83.0</ele><time>2026-05-04T08:12:59.647Z</time></trkpt><trkpt lat="42.3560379" lon="18.7619435"><ele>83.0</ele><time>2026-05-04T08:13:03.647Z</time></trkpt><trkpt lat="42.3561046" lon="18.7619198"><ele>83.0</ele><time>2026-05-04T08:13:06.647Z</time></trkpt><trkpt lat="42.3561836" lon="18.7618682"><ele>83.0</ele><time>2026-05-04T08:13:09.648Z</time></trkpt><trkpt lat="42.3562512" lon="18.7618333"><ele>83.0</ele><time>2026-05-04T08:13:11.648Z</time></trkpt><trkpt lat="42.3563205" lon="18.7617976"><ele>83.0</ele><time>2026-05-04T08:13:13.648Z</time></trkpt><trkpt lat="42.3563819" lon="18.7617478"><ele>83.0</ele><time>2026-05-04T08:13:15.648Z</time></trkpt><trkpt lat="42.356438" lon="18.7616982"><ele>83.0</ele><time>2026-05-04T08:13:17.648Z</time></trkpt><trkpt lat="42.3565016" lon="18.7616549"><ele>82.5</ele><time>2026-05-04T08:13:19.648Z</time></trkpt><trkpt lat="42.3565661" lon="18.7616019"><ele>82.0</ele><time>2026-05-04T08:13:21.648Z</time></trkpt><trkpt lat="42.3566256" lon="18.7615564"><ele>81.5</ele><time>2026-05-04T08:13:23.648Z</time></trkpt><trkpt lat="42.3566921" lon="18.7615321"><ele>81.0</ele><time>2026-05-04T08:13:25.648Z</time></trkpt><trkpt lat="42.3567694" lon="18.7615067"><ele>80.5</ele><time>2026-05-04T08:13:27.648Z</time></trkpt><trkpt lat="42.3568579" lon="18.7614735"><ele>80.0</ele><time>2026-05-04T08:13:29.647Z</time></trkpt><trkpt lat="42.3569605" lon="18.7614438"><ele>80.0</ele><time>2026-05-04T08:13:31.647Z</time></trkpt><trkpt lat="42.3570237" lon="18.7614138"><ele>80.0</ele><time>2026-05-04T08:13:32.647Z</time></trkpt><trkpt lat="42.3570985" lon="18.7613868"><ele>80.0</ele><time>2026-05-04T08:13:33.648Z</time></trkpt><trkpt lat="42.3571888" lon="18.7613482"><ele>80.0</ele><time>2026-05-04T08:13:34.647Z</time></trkpt><trkpt lat="42.3573009" lon="18.7613083"><ele>80.0</ele><time>2026-05-04T08:13:35.647Z</time></trkpt><trkpt lat="42.3574331" lon="18.7612572"><ele>79.5</ele><time>2026-05-04T08:13:36.647Z</time></trkpt><trkpt lat="42.3575823" lon="18.7612043"><ele>79.0</ele><time>2026-05-04T08:13:37.648Z</time></trkpt><trkpt lat="42.3577268" lon="18.7611586"><ele>78.5</ele><time>2026-05-04T08:13:38.648Z</time></trkpt><trkpt lat="42.3578672" lon="18.76112"><ele>78.0</ele><time>2026-05-04T08:13:39.648Z</time></trkpt><trkpt lat="42.3580012" lon="18.761082"><ele>76.66666666666667</ele><time>2026-05-04T08:13:40.648Z</time></trkpt><trkpt lat="42.3581373" lon="18.761045"><ele>75.33333333333334</ele><time>2026-05-04T08:13:41.648Z</time></trkpt><trkpt lat="42.3582827" lon="18.7609877"><ele>74.0</ele><time>2026-05-04T08:13:42.647Z</time></trkpt><trkpt lat="42.3584544" lon="18.760922"><ele>73.33333333333334</ele><time>2026-05-04T08:13:43.647Z</time></trkpt><trkpt lat="42.3586366" lon="18.7608804"><ele>72.66666666666667</ele><time>2026-05-04T08:13:44.648Z</time></trkpt><trkpt lat="42.3588241" lon="18.760838"><ele>72.0</ele><time>2026-05-04T08:13:45.648Z</time></trkpt><trkpt lat="42.3590083" lon="18.7607879"><ele>71.0</ele><time>2026-05-04T08:13:46.647Z</time></trkpt><trkpt lat="42.3591832" lon="18.7607318"><ele>70.0</ele><time>2026-05-04T08:13:47.648Z</time></trkpt><trkpt lat="42.359353" lon="18.7606693"><ele>69.0</ele><time>2026-05-04T08:13:48.648Z</time></trkpt><trkpt lat="42.3595189" lon="18.7606031"><ele>69.0</ele><time>2026-05-04T08:13:49.648Z</time></trkpt><trkpt lat="42.3596801" lon="18.7605311"><ele>69.0</ele><time>2026-05-04T08:13:50.647Z</time></trkpt><trkpt lat="42.359836" lon="18.760449"><ele>69.0</ele><time>2026-05-04T08:13:51.647Z</time></trkpt><trkpt lat="42.359988" lon="18.7603561"><ele>68.33333333333333</ele><time>2026-05-04T08:13:52.648Z</time></trkpt><trkpt lat="42.3601339" lon="18.7602579"><ele>67.66666666666666</ele><time>2026-05-04T08:13:53.647Z</time></trkpt><trkpt lat="42.3602764" lon="18.7601503"><ele>67.0</ele><time>2026-05-04T08:13:54.648Z</time></trkpt><trkpt lat="42.3604154" lon="18.7600371"><ele>65.0</ele><time>2026-05-04T08:13:55.648Z</time></trkpt><trkpt lat="42.3605535" lon="18.7599198"><ele>63.0</ele><time>2026-05-04T08:13:56.647Z</time></trkpt><trkpt lat="42.3606878" lon="18.759799"><ele>61.0</ele><time>2026-05-04T08:13:57.648Z</time></trkpt><trkpt lat="42.3608193" lon="18.7596733"><ele>61.0</ele><time>2026-05-04T08:13:58.648Z</time></trkpt><trkpt lat="42.3609483" lon="18.7595423"><ele>61.0</ele><time>2026-05-04T08:13:59.647Z</time></trkpt><trkpt lat="42.361076" lon="18.7594115"><ele>61.0</ele><time>2026-05-04T08:14:00.647Z</time></trkpt><trkpt lat="42.361205" lon="18.759279"><ele>60.666666666666664</ele><time>2026-05-04T08:14:01.648Z</time></trkpt><trkpt lat="42.3613313" lon="18.7591458"><ele>60.33333333333333</ele><time>2026-05-04T08:14:02.647Z</time></trkpt><trkpt lat="42.3614564" lon="18.7590179"><ele>60.0</ele><time>2026-05-04T08:14:03.648Z</time></trkpt><trkpt lat="42.3615823" lon="18.7588853"><ele>60.5</ele><time>2026-05-04T08:14:04.647Z</time></trkpt><trkpt lat="42.361703" lon="18.75876"><ele>61.0</ele><time>2026-05-04T08:14:05.648Z</time></trkpt><trkpt lat="42.3618193" lon="18.7586382"><ele>61.5</ele><time>2026-05-04T08:14:06.648Z</time></trkpt><trkpt lat="42.3619342" lon="18.7585208"><ele>62.0</ele><time>2026-05-04T08:14:07.648Z</time></trkpt><trkpt lat="42.3620418" lon="18.7584133"><ele>61.2</ele><time>2026-05-04T08:14:08.648Z</time></trkpt><trkpt lat="42.3621441" lon="18.7583139"><ele>60.400000000000006</ele><time>2026-05-04T08:14:09.647Z</time></trkpt><trkpt lat="42.3622328" lon="18.758224"><ele>59.599999999999994</ele><time>2026-05-04T08:14:10.648Z</time></trkpt><trkpt lat="42.3623082" lon="18.7581429"><ele>58.8</ele><time>2026-05-04T08:14:11.647Z</time></trkpt><trkpt lat="42.3623689" lon="18.7580787"><ele>58.0</ele><time>2026-05-04T08:14:12.647Z</time></trkpt><trkpt lat="42.3624689" lon="18.7579952"><ele>58.0</ele><time>2026-05-04T08:14:14.648Z</time></trkpt><trkpt lat="42.362571" lon="18.7579915"><ele>58.0</ele><time>2026-05-04T08:14:16.648Z</time></trkpt><trkpt lat="42.3626229" lon="18.758043"><ele>58.0</ele><time>2026-05-04T08:14:17.648Z</time></trkpt><trkpt lat="42.3627464" lon="18.758104"><ele>58.0</ele><time>2026-05-04T08:14:19.647Z</time></trkpt><trkpt lat="42.362819" lon="18.7580938"><ele>58.0</ele><time>2026-05-04T08:14:20.647Z</time></trkpt><trkpt lat="42.3628917" lon="18.7580532"><ele>58.0</ele><time>2026-05-04T08:14:21.648Z</time></trkpt><trkpt lat="42.3629568" lon="18.7579795"><ele>58.0</ele><time>2026-05-04T08:14:22.647Z</time></trkpt><trkpt lat="42.3630111" lon="18.7578823"><ele>58.0</ele><time>2026-05-04T08:14:23.648Z</time></trkpt><trkpt lat="42.3630668" lon="18.757778"><ele>58.0</ele><time>2026-05-04T08:14:24.648Z</time></trkpt><trkpt lat="42.3631388" lon="18.7576876"><ele>58.0</ele><time>2026-05-04T08:14:25.647Z</time></trkpt><trkpt lat="42.3632311" lon="18.7576029"><ele>57.25</ele><time>2026-05-04T08:14:26.647Z</time></trkpt><trkpt lat="42.3633491" lon="18.7575188"><ele>56.5</ele><time>2026-05-04T08:14:27.648Z</time></trkpt><trkpt lat="42.3634703" lon="18.7574347"><ele>55.75</ele><time>2026-05-04T08:14:28.647Z</time></trkpt><trkpt lat="42.3635954" lon="18.7573517"><ele>55.0</ele><time>2026-05-04T08:14:29.647Z</time></trkpt><trkpt lat="42.3637229" lon="18.7572719"><ele>55.0</ele><time>2026-05-04T08:14:30.648Z</time></trkpt><trkpt lat="42.3638547" lon="18.7571895"><ele>55.0</ele><time>2026-05-04T08:14:31.648Z</time></trkpt><trkpt lat="42.3639892" lon="18.7571008"><ele>55.0</ele><time>2026-05-04T08:14:32.647Z</time></trkpt><trkpt lat="42.3641237" lon="18.7570176"><ele>55.0</ele><time>2026-05-04T08:14:33.647Z</time></trkpt><trkpt lat="42.3642637" lon="18.756926"><ele>53.666666666666664</ele><time>2026-05-04T08:14:34.647Z</time></trkpt><trkpt lat="42.3644041" lon="18.7568342"><ele>52.33333333333333</ele><time>2026-05-04T08:14:35.648Z</time></trkpt><trkpt lat="42.3645441" lon="18.7567425"><ele>51.0</ele><time>2026-05-04T08:14:36.648Z</time></trkpt><trkpt lat="42.3646833" lon="18.7566462"><ele>51.0</ele><time>2026-05-04T08:14:37.648Z</time></trkpt><trkpt lat="42.3648228" lon="18.7565448"><ele>51.0</ele><time>2026-05-04T08:14:38.647Z</time></trkpt><trkpt lat="42.3649615" lon="18.7564443"><ele>51.0</ele><time>2026-05-04T08:14:39.648Z</time></trkpt><trkpt lat="42.3651016" lon="18.7563402"><ele>51.0</ele><time>2026-05-04T08:14:40.647Z</time></trkpt><trkpt lat="42.3652416" lon="18.7562319"><ele>51.0</ele><time>2026-05-04T08:14:41.648Z</time></trkpt><trkpt lat="42.3653785" lon="18.7561172"><ele>51.0</ele><time>2026-05-04T08:14:42.647Z</time></trkpt><trkpt lat="42.3655141" lon="18.7560032"><ele>50.66666666666667</ele><time>2026-05-04T08:14:43.647Z</time></trkpt><trkpt lat="42.3656495" lon="18.7558869"><ele>50.333333333333336</ele><time>2026-05-04T08:14:44.648Z</time></trkpt><trkpt lat="42.3657826" lon="18.7557695"><ele>50.0</ele><time>2026-05-04T08:14:45.648Z</time></trkpt><trkpt lat="42.3659153" lon="18.7556544"><ele>50.0</ele><time>2026-05-04T08:14:46.647Z</time></trkpt><trkpt lat="42.3660446" lon="18.7555523"><ele>50.0</ele><time>2026-05-04T08:14:47.648Z</time></trkpt><trkpt lat="42.3661718" lon="18.7554408"><ele>50.0</ele><time>2026-05-04T08:14:48.648Z</time></trkpt><trkpt lat="42.3662989" lon="18.7553298"><ele>48.5</ele><time>2026-05-04T08:14:49.648Z</time></trkpt><trkpt lat="42.3664256" lon="18.755233"><ele>47.0</ele><time>2026-05-04T08:14:50.647Z</time></trkpt><trkpt lat="42.3665543" lon="18.7551392"><ele>45.5</ele><time>2026-05-04T08:14:51.647Z</time></trkpt><trkpt lat="42.3666874" lon="18.7550508"><ele>44.0</ele><time>2026-05-04T08:14:52.648Z</time></trkpt><trkpt lat="42.3668233" lon="18.7549661"><ele>44.0</ele><time>2026-05-04T08:14:53.647Z</time></trkpt><trkpt lat="42.3669602" lon="18.7548905"><ele>44.0</ele><time>2026-05-04T08:14:54.647Z</time></trkpt><trkpt lat="42.3671033" lon="18.7548222"><ele>44.0</ele><time>2026-05-04T08:14:55.647Z</time></trkpt><trkpt lat="42.3672482" lon="18.7547621"><ele>42.0</ele><time>2026-05-04T08:14:56.647Z</time></trkpt><trkpt lat="42.3674001" lon="18.7547065"><ele>40.0</ele><time>2026-05-04T08:14:57.648Z</time></trkpt><trkpt lat="42.3675554" lon="18.7546645"><ele>38.0</ele><time>2026-05-04T08:14:58.648Z</time></trkpt><trkpt lat="42.3677102" lon="18.7546274"><ele>38.0</ele><time>2026-05-04T08:14:59.648Z</time></trkpt><trkpt lat="42.3678615" lon="18.7545894"><ele>38.0</ele><time>2026-05-04T08:15:00.647Z</time></trkpt><trkpt lat="42.3680093" lon="18.754553"><ele>38.0</ele><time>2026-05-04T08:15:01.647Z</time></trkpt><trkpt lat="42.3681561" lon="18.7545185"><ele>37.666666666666664</ele><time>2026-05-04T08:15:02.648Z</time></trkpt><trkpt lat="42.368304" lon="18.7544753"><ele>37.333333333333336</ele><time>2026-05-04T08:15:03.647Z</time></trkpt><trkpt lat="42.3684493" lon="18.7544331"><ele>37.0</ele><time>2026-05-04T08:15:04.647Z</time></trkpt><trkpt lat="42.3685972" lon="18.7543955"><ele>36.75</ele><time>2026-05-04T08:15:05.648Z</time></trkpt><trkpt lat="42.3687409" lon="18.7543548"><ele>36.5</ele><time>2026-05-04T08:15:06.647Z</time></trkpt><trkpt lat="42.3688845" lon="18.7543047"><ele>36.25</ele><time>2026-05-04T08:15:07.647Z</time></trkpt><trkpt lat="42.3690265" lon="18.7542637"><ele>36.0</ele><time>2026-05-04T08:15:08.648Z</time></trkpt><trkpt lat="42.3691712" lon="18.7542241"><ele>35.25</ele><time>2026-05-04T08:15:09.647Z</time></trkpt><trkpt lat="42.3693142" lon="18.7541842"><ele>34.5</ele><time>2026-05-04T08:15:10.648Z</time></trkpt><trkpt lat="42.3694586" lon="18.7541443"><ele>33.75</ele><time>2026-05-04T08:15:11.648Z</time></trkpt><trkpt lat="42.3696026" lon="18.7541059"><ele>33.0</ele><time>2026-05-04T08:15:12.647Z</time></trkpt><trkpt lat="42.3697504" lon="18.7540663"><ele>33.0</ele><time>2026-05-04T08:15:13.647Z</time></trkpt><trkpt lat="42.3698984" lon="18.7540288"><ele>33.0</ele><time>2026-05-04T08:15:14.647Z</time></trkpt><trkpt lat="42.3700504" lon="18.7539848"><ele>33.0</ele><time>2026-05-04T08:15:15.648Z</time></trkpt><trkpt lat="42.3702" lon="18.7539459"><ele>33.0</ele><time>2026-05-04T08:15:16.648Z</time></trkpt><trkpt lat="42.3703505" lon="18.7539076"><ele>33.0</ele><time>2026-05-04T08:15:17.648Z</time></trkpt><trkpt lat="42.3705023" lon="18.7538606"><ele>33.0</ele><time>2026-05-04T08:15:18.647Z</time></trkpt><trkpt lat="42.370658" lon="18.7538102"><ele>33.333333333333336</ele><time>2026-05-04T08:15:19.648Z</time></trkpt><trkpt lat="42.3708076" lon="18.7537626"><ele>33.66666666666667</ele><time>2026-05-04T08:15:20.647Z</time></trkpt><trkpt lat="42.3709583" lon="18.7537132"><ele>34.0</ele><time>2026-05-04T08:15:21.647Z</time></trkpt><trkpt lat="42.3711056" lon="18.7536673"><ele>34.0</ele><time>2026-05-04T08:15:22.648Z</time></trkpt><trkpt lat="42.3712524" lon="18.753626"><ele>34.0</ele><time>2026-05-04T08:15:23.647Z</time></trkpt><trkpt lat="42.3713944" lon="18.7535825"><ele>34.0</ele><time>2026-05-04T08:15:24.648Z</time></trkpt><trkpt lat="42.3715378" lon="18.7535286"><ele>34.0</ele><time>2026-05-04T08:15:25.647Z</time></trkpt><trkpt lat="42.3716742" lon="18.7534941"><ele>33.0</ele><time>2026-05-04T08:15:26.648Z</time></trkpt><trkpt lat="42.3718129" lon="18.7534509"><ele>32.0</ele><time>2026-05-04T08:15:27.647Z</time></trkpt><trkpt lat="42.3719511" lon="18.7533929"><ele>31.0</ele><time>2026-05-04T08:15:28.648Z</time></trkpt><trkpt lat="42.3720894" lon="18.7533471"><ele>30.0</ele><time>2026-05-04T08:15:29.648Z</time></trkpt><trkpt lat="42.372228" lon="18.7532953"><ele>29.666666666666664</ele><time>2026-05-04T08:15:30.647Z</time></trkpt><trkpt lat="42.3723691" lon="18.7532458"><ele>29.333333333333332</ele><time>2026-05-04T08:15:31.647Z</time></trkpt><trkpt lat="42.3725136" lon="18.7531875"><ele>29.0</ele><time>2026-05-04T08:15:32.648Z</time></trkpt><trkpt lat="42.3726691" lon="18.7531155"><ele>29.0</ele><time>2026-05-04T08:15:33.648Z</time></trkpt><trkpt lat="42.3728303" lon="18.7530388"><ele>29.0</ele><time>2026-05-04T08:15:34.647Z</time></trkpt><trkpt lat="42.3729942" lon="18.7529693"><ele>29.0</ele><time>2026-05-04T08:15:35.647Z</time></trkpt><trkpt lat="42.3731528" lon="18.7528981"><ele>29.25</ele><time>2026-05-04T08:15:36.648Z</time></trkpt><trkpt lat="42.37331" lon="18.7528293"><ele>29.5</ele><time>2026-05-04T08:15:37.648Z</time></trkpt><trkpt lat="42.373445" lon="18.7527692"><ele>29.75</ele><time>2026-05-04T08:15:38.648Z</time></trkpt><trkpt lat="42.3735605" lon="18.7527241"><ele>30.0</ele><time>2026-05-04T08:15:39.647Z</time></trkpt><trkpt lat="42.3736521" lon="18.7526842"><ele>30.0</ele><time>2026-05-04T08:15:40.647Z</time></trkpt><trkpt lat="42.3737293" lon="18.7526526"><ele>30.0</ele><time>2026-05-04T08:15:41.648Z</time></trkpt><trkpt lat="42.3738019" lon="18.752617"><ele>30.0</ele><time>2026-05-04T08:15:42.648Z</time></trkpt><trkpt lat="42.373872" lon="18.7525881"><ele>30.0</ele><time>2026-05-04T08:15:43.648Z</time></trkpt><trkpt lat="42.373948" lon="18.7525529"><ele>30.0</ele><time>2026-05-04T08:15:44.647Z</time></trkpt><trkpt lat="42.3740339" lon="18.7525127"><ele>30.0</ele><time>2026-05-04T08:15:45.647Z</time></trkpt><trkpt lat="42.3741279" lon="18.7524688"><ele>30.25</ele><time>2026-05-04T08:15:46.647Z</time></trkpt><trkpt lat="42.3742286" lon="18.7524204"><ele>30.5</ele><time>2026-05-04T08:15:47.647Z</time></trkpt><trkpt lat="42.3743351" lon="18.7523744"><ele>30.75</ele><time>2026-05-04T08:15:48.648Z</time></trkpt><trkpt lat="42.3744511" lon="18.7523279"><ele>31.0</ele><time>2026-05-04T08:15:49.647Z</time></trkpt><trkpt lat="42.3745744" lon="18.7522792"><ele>31.5</ele><time>2026-05-04T08:15:50.648Z</time></trkpt><trkpt lat="42.3747063" lon="18.7522255"><ele>32.0</ele><time>2026-05-04T08:15:51.648Z</time></trkpt><trkpt lat="42.3748403" lon="18.7521673"><ele>32.5</ele><time>2026-05-04T08:15:52.648Z</time></trkpt><trkpt lat="42.3749756" lon="18.7521043"><ele>33.0</ele><time>2026-05-04T08:15:53.647Z</time></trkpt><trkpt lat="42.3751122" lon="18.7520378"><ele>33.0</ele><time>2026-05-04T08:15:54.648Z</time></trkpt><trkpt lat="42.3752498" lon="18.7519684"><ele>33.0</ele><time>2026-05-04T08:15:55.647Z</time></trkpt><trkpt lat="42.3753919" lon="18.7518972"><ele>33.0</ele><time>2026-05-04T08:15:56.647Z</time></trkpt><trkpt lat="42.3755379" lon="18.7518274"><ele>32.0</ele><time>2026-05-04T08:15:57.647Z</time></trkpt><trkpt lat="42.3756854" lon="18.7517561"><ele>31.0</ele><time>2026-05-04T08:15:58.648Z</time></trkpt><trkpt lat="42.3758346" lon="18.7516758"><ele>30.0</ele><time>2026-05-04T08:15:59.648Z</time></trkpt><trkpt lat="42.3759869" lon="18.75159"><ele>30.0</ele><time>2026-05-04T08:16:00.647Z</time></trkpt><trkpt lat="42.3761389" lon="18.7515066"><ele>30.0</ele><time>2026-05-04T08:16:01.648Z</time></trkpt><trkpt lat="42.3762932" lon="18.7514149"><ele>30.0</ele><time>2026-05-04T08:16:02.648Z</time></trkpt><trkpt lat="42.3764481" lon="18.7513231"><ele>29.333333333333336</ele><time>2026-05-04T08:16:03.647Z</time></trkpt><trkpt lat="42.3766041" lon="18.7512308"><ele>28.666666666666668</ele><time>2026-05-04T08:16:04.648Z</time></trkpt><trkpt lat="42.3767615" lon="18.7511365"><ele>28.0</ele><time>2026-05-04T08:16:05.648Z</time></trkpt><trkpt lat="42.3769172" lon="18.7510421"><ele>28.0</ele><time>2026-05-04T08:16:06.648Z</time></trkpt><trkpt lat="42.3770775" lon="18.7509454"><ele>28.0</ele><time>2026-05-04T08:16:07.648Z</time></trkpt><trkpt lat="42.3772341" lon="18.7508506"><ele>28.0</ele><time>2026-05-04T08:16:08.647Z</time></trkpt><trkpt lat="42.3773902" lon="18.7507492"><ele>28.0</ele><time>2026-05-04T08:16:09.648Z</time></trkpt><trkpt lat="42.3775388" lon="18.7506548"><ele>28.0</ele><time>2026-05-04T08:16:10.648Z</time></trkpt><trkpt lat="42.377679" lon="18.7505712"><ele>28.0</ele><time>2026-05-04T08:16:11.647Z</time></trkpt><trkpt lat="42.3778136" lon="18.7504898"><ele>28.0</ele><time>2026-05-04T08:16:12.648Z</time></trkpt><trkpt lat="42.3779401" lon="18.7504097"><ele>28.0</ele><time>2026-05-04T08:16:13.648Z</time></trkpt><trkpt lat="42.3780586" lon="18.7503333"><ele>28.0</ele><time>2026-05-04T08:16:14.647Z</time></trkpt><trkpt lat="42.3781665" lon="18.7502661"><ele>28.0</ele><time>2026-05-04T08:16:15.647Z</time></trkpt><trkpt lat="42.3782689" lon="18.7502111"><ele>27.799999999999997</ele><time>2026-05-04T08:16:16.647Z</time></trkpt><trkpt lat="42.3783665" lon="18.7501828"><ele>27.599999999999998</ele><time>2026-05-04T08:16:17.648Z</time></trkpt><trkpt lat="42.3784605" lon="18.7501704"><ele>27.400000000000002</ele><time>2026-05-04T08:16:18.648Z</time></trkpt><trkpt lat="42.3785476" lon="18.7501603"><ele>27.200000000000003</ele><time>2026-05-04T08:16:19.647Z</time></trkpt><trkpt lat="42.3786298" lon="18.7501248"><ele>27.0</ele><time>2026-05-04T08:16:20.647Z</time></trkpt><trkpt lat="42.3787035" lon="18.7500648"><ele>27.0</ele><time>2026-05-04T08:16:21.647Z</time></trkpt><trkpt lat="42.3787689" lon="18.7499792"><ele>27.000000000000004</ele><time>2026-05-04T08:16:22.648Z</time></trkpt><trkpt lat="42.3788302" lon="18.7498806"><ele>27.000000000000004</ele><time>2026-05-04T08:16:23.647Z</time></trkpt><trkpt lat="42.3788963" lon="18.7497777"><ele>27.0</ele><time>2026-05-04T08:16:24.648Z</time></trkpt><trkpt lat="42.3789885" lon="18.7496886"><ele>27.0</ele><time>2026-05-04T08:16:25.647Z</time></trkpt><trkpt lat="42.3790942" lon="18.7495953"><ele>27.25</ele><time>2026-05-04T08:16:26.647Z</time></trkpt><trkpt lat="42.3792036" lon="18.7495088"><ele>27.5</ele><time>2026-05-04T08:16:27.648Z</time></trkpt><trkpt lat="42.3793181" lon="18.7494192"><ele>27.75</ele><time>2026-05-04T08:16:28.648Z</time></trkpt><trkpt lat="42.3794365" lon="18.7493271"><ele>28.0</ele><time>2026-05-04T08:16:29.647Z</time></trkpt><trkpt lat="42.3795566" lon="18.7492363"><ele>27.5</ele><time>2026-05-04T08:16:30.648Z</time></trkpt><trkpt lat="42.3796809" lon="18.7491416"><ele>27.0</ele><time>2026-05-04T08:16:31.648Z</time></trkpt><trkpt lat="42.3798062" lon="18.7490485"><ele>26.5</ele><time>2026-05-04T08:16:32.648Z</time></trkpt><trkpt lat="42.3799337" lon="18.7489552"><ele>26.0</ele><time>2026-05-04T08:16:33.647Z</time></trkpt><trkpt lat="42.3800612" lon="18.7488615"><ele>25.25</ele><time>2026-05-04T08:16:34.648Z</time></trkpt><trkpt lat="42.3801889" lon="18.7487652"><ele>24.5</ele><time>2026-05-04T08:16:35.647Z</time></trkpt><trkpt lat="42.380317" lon="18.7486623"><ele>23.75</ele><time>2026-05-04T08:16:36.647Z</time></trkpt><trkpt lat="42.380446" lon="18.7485651"><ele>23.0</ele><time>2026-05-04T08:16:37.648Z</time></trkpt><trkpt lat="42.3805722" lon="18.7484748"><ele>23.0</ele><time>2026-05-04T08:16:38.647Z</time></trkpt><trkpt lat="42.3807016" lon="18.7483733"><ele>23.0</ele><time>2026-05-04T08:16:39.648Z</time></trkpt><trkpt lat="42.3808293" lon="18.7482733"><ele>23.0</ele><time>2026-05-04T08:16:40.647Z</time></trkpt><trkpt lat="42.3809566" lon="18.7481698"><ele>23.0</ele><time>2026-05-04T08:16:41.647Z</time></trkpt><trkpt lat="42.3810834" lon="18.7480647"><ele>23.0</ele><time>2026-05-04T08:16:42.648Z</time></trkpt><trkpt lat="42.3812076" lon="18.7479661"><ele>23.0</ele><time>2026-05-04T08:16:43.647Z</time></trkpt><trkpt lat="42.3813314" lon="18.7478617"><ele>23.0</ele><time>2026-05-04T08:16:44.647Z</time></trkpt><trkpt lat="42.3814545" lon="18.747755"><ele>23.0</ele><time>2026-05-04T08:16:45.648Z</time></trkpt><trkpt lat="42.3815762" lon="18.7476518"><ele>22.0</ele><time>2026-05-04T08:16:46.648Z</time></trkpt><trkpt lat="42.3816975" lon="18.7475477"><ele>21.0</ele><time>2026-05-04T08:16:47.647Z</time></trkpt><trkpt lat="42.3818175" lon="18.747443"><ele>20.0</ele><time>2026-05-04T08:16:48.648Z</time></trkpt><trkpt lat="42.3819353" lon="18.7473406"><ele>19.0</ele><time>2026-05-04T08:16:49.648Z</time></trkpt><trkpt lat="42.3820523" lon="18.7472396"><ele>19.0</ele><time>2026-05-04T08:16:50.647Z</time></trkpt><trkpt lat="42.382168" lon="18.7471341"><ele>19.0</ele><time>2026-05-04T08:16:51.648Z</time></trkpt><trkpt lat="42.3822829" lon="18.7470309"><ele>19.0</ele><time>2026-05-04T08:16:52.647Z</time></trkpt><trkpt lat="42.3823942" lon="18.7469251"><ele>19.0</ele><time>2026-05-04T08:16:53.647Z</time></trkpt><trkpt lat="42.382502" lon="18.7468312"><ele>18.75</ele><time>2026-05-04T08:16:54.647Z</time></trkpt><trkpt lat="42.3826062" lon="18.7467348"><ele>18.5</ele><time>2026-05-04T08:16:55.647Z</time></trkpt><trkpt lat="42.3827062" lon="18.7466425"><ele>18.25</ele><time>2026-05-04T08:16:56.647Z</time></trkpt><trkpt lat="42.3828012" lon="18.7465536"><ele>18.0</ele><time>2026-05-04T08:16:57.648Z</time></trkpt><trkpt lat="42.3828915" lon="18.7464698"><ele>18.0</ele><time>2026-05-04T08:16:58.648Z</time></trkpt><trkpt lat="42.3829738" lon="18.7463966"><ele>18.0</ele><time>2026-05-04T08:16:59.647Z</time></trkpt><trkpt lat="42.3830485" lon="18.7463417"><ele>18.0</ele><time>2026-05-04T08:17:00.647Z</time></trkpt><trkpt lat="42.3831225" lon="18.7462977"><ele>18.0</ele><time>2026-05-04T08:17:01.647Z</time></trkpt><trkpt lat="42.3831954" lon="18.7462706"><ele>18.0</ele><time>2026-05-04T08:17:02.648Z</time></trkpt><trkpt lat="42.383266" lon="18.7462507"><ele>18.0</ele><time>2026-05-04T08:17:03.648Z</time></trkpt><trkpt lat="42.3833354" lon="18.7462362"><ele>17.857142857142858</ele><time>2026-05-04T08:17:04.648Z</time></trkpt><trkpt lat="42.3834031" lon="18.7462208"><ele>17.714285714285715</ele><time>2026-05-04T08:17:05.647Z</time></trkpt><trkpt lat="42.3834727" lon="18.7461687"><ele>17.57142857142857</ele><time>2026-05-04T08:17:06.647Z</time></trkpt><trkpt lat="42.3835279" lon="18.7461114"><ele>17.42857142857143</ele><time>2026-05-04T08:17:07.648Z</time></trkpt><trkpt lat="42.3835713" lon="18.7460355"><ele>17.285714285714285</ele><time>2026-05-04T08:17:08.648Z</time></trkpt><trkpt lat="42.3836079" lon="18.745942"><ele>17.142857142857142</ele><time>2026-05-04T08:17:09.647Z</time></trkpt><trkpt lat="42.3836448" lon="18.7458426"><ele>17.0</ele><time>2026-05-04T08:17:10.648Z</time></trkpt><trkpt lat="42.3836893" lon="18.7457458"><ele>17.4</ele><time>2026-05-04T08:17:11.647Z</time></trkpt><trkpt lat="42.3837416" lon="18.7456515"><ele>17.799999999999997</ele><time>2026-05-04T08:17:12.648Z</time></trkpt><trkpt lat="42.3838077" lon="18.74556"><ele>18.2</ele><time>2026-05-04T08:17:13.647Z</time></trkpt><trkpt lat="42.3838781" lon="18.7454687"><ele>18.599999999999998</ele><time>2026-05-04T08:17:14.648Z</time></trkpt><trkpt lat="42.3839539" lon="18.7453769"><ele>19.0</ele><time>2026-05-04T08:17:15.648Z</time></trkpt><trkpt lat="42.3840373" lon="18.7452941"><ele>18.25</ele><time>2026-05-04T08:17:16.647Z</time></trkpt><trkpt lat="42.3841269" lon="18.7452039"><ele>17.5</ele><time>2026-05-04T08:17:17.648Z</time></trkpt><trkpt lat="42.3842188" lon="18.745112"><ele>16.75</ele><time>2026-05-04T08:17:18.647Z</time></trkpt><trkpt lat="42.3843148" lon="18.7450148"><ele>16.0</ele><time>2026-05-04T08:17:19.648Z</time></trkpt><trkpt lat="42.3844154" lon="18.7449093"><ele>16.0</ele><time>2026-05-04T08:17:20.647Z</time></trkpt><trkpt lat="42.3845203" lon="18.7447992"><ele>16.0</ele><time>2026-05-04T08:17:21.647Z</time></trkpt><trkpt lat="42.3846289" lon="18.7446915"><ele>16.0</ele><time>2026-05-04T08:17:22.647Z</time></trkpt><trkpt lat="42.3847387" lon="18.7445775"><ele>16.0</ele><time>2026-05-04T08:17:23.648Z</time></trkpt><trkpt lat="42.3848528" lon="18.7444659"><ele>15.0</ele><time>2026-05-04T08:17:24.647Z</time></trkpt><trkpt lat="42.3849725" lon="18.744343"><ele>14.0</ele><time>2026-05-04T08:17:25.648Z</time></trkpt><trkpt lat="42.3850906" lon="18.7442233"><ele>13.0</ele><time>2026-05-04T08:17:26.647Z</time></trkpt><trkpt lat="42.3852122" lon="18.7440991"><ele>13.0</ele><time>2026-05-04T08:17:27.647Z</time></trkpt><trkpt lat="42.3853337" lon="18.7439738"><ele>13.0</ele><time>2026-05-04T08:17:28.648Z</time></trkpt><trkpt lat="42.3854584" lon="18.7438391"><ele>13.0</ele><time>2026-05-04T08:17:29.647Z</time></trkpt><trkpt lat="42.3855873" lon="18.7437122"><ele>12.333333333333332</ele><time>2026-05-04T08:17:30.647Z</time></trkpt><trkpt lat="42.3857192" lon="18.7435742"><ele>11.666666666666666</ele><time>2026-05-04T08:17:31.647Z</time></trkpt><trkpt lat="42.3858529" lon="18.743436"><ele>11.0</ele><time>2026-05-04T08:17:32.648Z</time></trkpt><trkpt lat="42.3859861" lon="18.7433005"><ele>10.666666666666666</ele><time>2026-05-04T08:17:33.648Z</time></trkpt><trkpt lat="42.3861186" lon="18.7431654"><ele>10.333333333333334</ele><time>2026-05-04T08:17:34.648Z</time></trkpt><trkpt lat="42.386251" lon="18.7430282"><ele>10.0</ele><time>2026-05-04T08:17:35.647Z</time></trkpt><trkpt lat="42.3863853" lon="18.742893"><ele>10.0</ele><time>2026-05-04T08:17:36.648Z</time></trkpt><trkpt lat="42.3865239" lon="18.7427511"><ele>10.0</ele><time>2026-05-04T08:17:37.648Z</time></trkpt><trkpt lat="42.3866619" lon="18.742625"><ele>10.0</ele><time>2026-05-04T08:17:38.647Z</time></trkpt><trkpt lat="42.386801" lon="18.7424833"><ele>10.0</ele><time>2026-05-04T08:17:39.647Z</time></trkpt><trkpt lat="42.3869439" lon="18.7423303"><ele>10.0</ele><time>2026-05-04T08:17:40.647Z</time></trkpt><trkpt lat="42.3870864" lon="18.7421948"><ele>10.0</ele><time>2026-05-04T08:17:41.648Z</time></trkpt><trkpt lat="42.3872284" lon="18.7420544"><ele>10.0</ele><time>2026-05-04T08:17:42.648Z</time></trkpt><trkpt lat="42.387368" lon="18.7419221"><ele>10.0</ele><time>2026-05-04T08:17:43.648Z</time></trkpt><trkpt lat="42.3875059" lon="18.741789"><ele>10.0</ele><time>2026-05-04T08:17:44.647Z</time></trkpt><trkpt lat="42.3876447" lon="18.7416615"><ele>10.0</ele><time>2026-05-04T08:17:45.647Z</time></trkpt><trkpt lat="42.3877811" lon="18.7415343"><ele>10.0</ele><time>2026-05-04T08:17:46.647Z</time></trkpt><trkpt lat="42.3879115" lon="18.7414129"><ele>10.0</ele><time>2026-05-04T08:17:47.648Z</time></trkpt><trkpt lat="42.3880383" lon="18.7412876"><ele>10.0</ele><time>2026-05-04T08:17:48.647Z</time></trkpt><trkpt lat="42.3881563" lon="18.7411848"><ele>10.0</ele><time>2026-05-04T08:17:49.648Z</time></trkpt><trkpt lat="42.3882721" lon="18.7410804"><ele>10.0</ele><time>2026-05-04T08:17:50.648Z</time></trkpt><trkpt lat="42.3883891" lon="18.7409736"><ele>10.0</ele><time>2026-05-04T08:17:51.647Z</time></trkpt><trkpt lat="42.3885038" lon="18.7408846"><ele>10.0</ele><time>2026-05-04T08:17:52.648Z</time></trkpt><trkpt lat="42.3886162" lon="18.7407803"><ele>10.0</ele><time>2026-05-04T08:17:53.647Z</time></trkpt><trkpt lat="42.3887229" lon="18.7406809"><ele>10.0</ele><time>2026-05-04T08:17:54.647Z</time></trkpt><trkpt lat="42.3888253" lon="18.7405905"><ele>10.0</ele><time>2026-05-04T08:17:55.648Z</time></trkpt><trkpt lat="42.3889217" lon="18.7405062"><ele>9.8</ele><time>2026-05-04T08:17:56.647Z</time></trkpt><trkpt lat="42.3890124" lon="18.7404315"><ele>9.6</ele><time>2026-05-04T08:17:57.648Z</time></trkpt><trkpt lat="42.3890997" lon="18.7403523"><ele>9.4</ele><time>2026-05-04T08:17:58.648Z</time></trkpt><trkpt lat="42.3891846" lon="18.740279"><ele>9.2</ele><time>2026-05-04T08:17:59.648Z</time></trkpt><trkpt lat="42.3892682" lon="18.7402075"><ele>9.0</ele><time>2026-05-04T08:18:00.648Z</time></trkpt><trkpt lat="42.3893448" lon="18.7401368"><ele>9.0</ele><time>2026-05-04T08:18:01.647Z</time></trkpt><trkpt lat="42.3894225" lon="18.7400708"><ele>9.0</ele><time>2026-05-04T08:18:02.647Z</time></trkpt><trkpt lat="42.3894929" lon="18.7400091"><ele>9.0</ele><time>2026-05-04T08:18:03.647Z</time></trkpt><trkpt lat="42.3895582" lon="18.7399507"><ele>9.0</ele><time>2026-05-04T08:18:04.647Z</time></trkpt><trkpt lat="42.3896169" lon="18.7398991"><ele>9.0</ele><time>2026-05-04T08:18:05.648Z</time></trkpt><trkpt lat="42.3896697" lon="18.7398505"><ele>9.0</ele><time>2026-05-04T08:18:06.647Z</time></trkpt><trkpt lat="42.3897533" lon="18.7397794"><ele>8.833333333333334</ele><time>2026-05-04T08:18:08.648Z</time></trkpt><trkpt lat="42.3898132" lon="18.739735"><ele>8.666666666666666</ele><time>2026-05-04T08:18:10.648Z</time></trkpt><trkpt lat="42.3898907" lon="18.7396698"><ele>8.5</ele><time>2026-05-04T08:18:13.648Z</time></trkpt><trkpt lat="42.3899655" lon="18.7396066"><ele>8.333333333333332</ele><time>2026-05-04T08:18:16.647Z</time></trkpt><trkpt lat="42.3900195" lon="18.7395622"><ele>8.166666666666666</ele><time>2026-05-04T08:18:18.647Z</time></trkpt><trkpt lat="42.3900913" lon="18.7395034"><ele>8.0</ele><time>2026-05-04T08:18:20.648Z</time></trkpt><trkpt lat="42.3901691" lon="18.7394377"><ele>7.833333333333333</ele><time>2026-05-04T08:18:22.647Z</time></trkpt><trkpt lat="42.3902453" lon="18.7393726"><ele>7.666666666666666</ele><time>2026-05-04T08:18:24.647Z</time></trkpt><trkpt lat="42.3903098" lon="18.7393204"><ele>7.5</ele><time>2026-05-04T08:18:26.648Z</time></trkpt><trkpt lat="42.3903691" lon="18.739266"><ele>7.333333333333334</ele><time>2026-05-04T08:18:28.648Z</time></trkpt><trkpt lat="42.3904328" lon="18.7392131"><ele>7.166666666666667</ele><time>2026-05-04T08:18:30.647Z</time></trkpt><trkpt lat="42.3905102" lon="18.7391397"><ele>7.0</ele><time>2026-05-04T08:18:32.648Z</time></trkpt><trkpt lat="42.3905942" lon="18.7390682"><ele>6.833333333333334</ele><time>2026-05-04T08:18:34.647Z</time></trkpt><trkpt lat="42.3906633" lon="18.7390115"><ele>6.666666666666667</ele><time>2026-05-04T08:18:36.647Z</time></trkpt><trkpt lat="42.3907188" lon="18.7389694"><ele>6.5</ele><time>2026-05-04T08:18:38.647Z</time></trkpt><trkpt lat="42.3908022" lon="18.7389003"><ele>6.333333333333334</ele><time>2026-05-04T08:18:41.647Z</time></trkpt><trkpt lat="42.3908778" lon="18.7388331"><ele>6.166666666666667</ele><time>2026-05-04T08:18:43.648Z</time></trkpt><trkpt lat="42.3909566" lon="18.7387627"><ele>6.0</ele><time>2026-05-04T08:18:45.648Z</time></trkpt><trkpt lat="42.3910119" lon="18.7387146"><ele>5.999999999999999</ele><time>2026-05-04T08:18:47.647Z</time></trkpt><trkpt lat="42.391065" lon="18.7386657"><ele>6.0</ele><time>2026-05-04T08:18:54.648Z</time></trkpt><trkpt lat="42.3911392" lon="18.7386114"><ele>6.0</ele><time>2026-05-04T08:18:58.647Z</time></trkpt><trkpt lat="42.3911932" lon="18.7385654"><ele>6.0</ele><time>2026-05-04T08:19:03.648Z</time></trkpt><trkpt lat="42.3912507" lon="18.7385219"><ele>6.0</ele><time>2026-05-04T08:19:08.647Z</time></trkpt><trkpt lat="42.3913178" lon="18.7384653"><ele>5.999999999999999</ele><time>2026-05-04T08:19:11.648Z</time></trkpt><trkpt lat="42.3913795" lon="18.7384119"><ele>6.0</ele><time>2026-05-04T08:19:16.648Z</time></trkpt><trkpt lat="42.391451" lon="18.7383475"><ele>6.142857142857142</ele><time>2026-05-04T08:19:20.648Z</time></trkpt><trkpt lat="42.3915084" lon="18.7382974"><ele>6.285714285714286</ele><time>2026-05-04T08:19:22.648Z</time></trkpt><trkpt lat="42.3915683" lon="18.73825"><ele>6.428571428571429</ele><time>2026-05-04T08:19:24.647Z</time></trkpt><trkpt lat="42.3916316" lon="18.7382094"><ele>6.571428571428571</ele><time>2026-05-04T08:19:27.648Z</time></trkpt><trkpt lat="42.3916999" lon="18.7381738"><ele>6.714285714285714</ele><time>2026-05-04T08:19:30.647Z</time></trkpt><trkpt lat="42.3917832" lon="18.7381504"><ele>6.857142857142857</ele><time>2026-05-04T08:19:33.647Z</time></trkpt><trkpt lat="42.3918536" lon="18.7381496"><ele>7.0</ele><time>2026-05-04T08:19:35.648Z</time></trkpt><trkpt lat="42.3919271" lon="18.738161"><ele>7.000000000000001</ele><time>2026-05-04T08:19:37.647Z</time></trkpt><trkpt lat="42.3920141" lon="18.738168"><ele>7.0</ele><time>2026-05-04T08:19:39.647Z</time></trkpt><trkpt lat="42.3921031" lon="18.73815"><ele>7.0</ele><time>2026-05-04T08:19:41.647Z</time></trkpt><trkpt lat="42.3921697" lon="18.7381091"><ele>7.0</ele><time>2026-05-04T08:19:43.648Z</time></trkpt><trkpt lat="42.3922214" lon="18.7380542"><ele>7.000000000000001</ele><time>2026-05-04T08:19:45.648Z</time></trkpt><trkpt lat="42.3922676" lon="18.7379795"><ele>7.0</ele><time>2026-05-04T08:19:47.647Z</time></trkpt><trkpt lat="42.3923045" lon="18.737858"><ele>6.833333333333334</ele><time>2026-05-04T08:19:50.647Z</time></trkpt><trkpt lat="42.392336" lon="18.7377567"><ele>6.666666666666667</ele><time>2026-05-04T08:19:52.648Z</time></trkpt><trkpt lat="42.392379" lon="18.7376557"><ele>6.5</ele><time>2026-05-04T08:19:54.647Z</time></trkpt><trkpt lat="42.3924479" lon="18.7375495"><ele>6.333333333333334</ele><time>2026-05-04T08:19:56.648Z</time></trkpt><trkpt lat="42.3924992" lon="18.7374884"><ele>6.166666666666667</ele><time>2026-05-04T08:19:57.647Z</time></trkpt><trkpt lat="42.3925577" lon="18.7374284"><ele>6.0</ele><time>2026-05-04T08:19:58.648Z</time></trkpt><trkpt lat="42.3926223" lon="18.7373771"><ele>6.0</ele><time>2026-05-04T08:19:59.648Z</time></trkpt><trkpt lat="42.3926951" lon="18.7373319"><ele>6.0</ele><time>2026-05-04T08:20:00.647Z</time></trkpt><trkpt lat="42.3927739" lon="18.7372919"><ele>6.0</ele><time>2026-05-04T08:20:01.647Z</time></trkpt><trkpt lat="42.3928589" lon="18.7372632"><ele>6.0</ele><time>2026-05-04T08:20:02.648Z</time></trkpt><trkpt lat="42.3929506" lon="18.7372433"><ele>6.0</ele><time>2026-05-04T08:20:03.648Z</time></trkpt><trkpt lat="42.3930449" lon="18.737231"><ele>6.0</ele><time>2026-05-04T08:20:04.648Z</time></trkpt><trkpt lat="42.393142" lon="18.7372281"><ele>5.6</ele><time>2026-05-04T08:20:05.647Z</time></trkpt><trkpt lat="42.3932428" lon="18.7372365"><ele>5.199999999999999</ele><time>2026-05-04T08:20:06.648Z</time></trkpt><trkpt lat="42.3933437" lon="18.7372486"><ele>4.800000000000001</ele><time>2026-05-04T08:20:07.647Z</time></trkpt><trkpt lat="42.3934459" lon="18.7372748"><ele>4.4</ele><time>2026-05-04T08:20:08.647Z</time></trkpt><trkpt lat="42.3935492" lon="18.7373109"><ele>4.0</ele><time>2026-05-04T08:20:09.648Z</time></trkpt><trkpt lat="42.3936579" lon="18.7373466"><ele>4.0</ele><time>2026-05-04T08:20:10.648Z</time></trkpt><trkpt lat="42.3937717" lon="18.7373873"><ele>4.0</ele><time>2026-05-04T08:20:11.648Z</time></trkpt><trkpt lat="42.3938949" lon="18.7374273"><ele>4.0</ele><time>2026-05-04T08:20:12.648Z</time></trkpt><trkpt lat="42.3940262" lon="18.737465"><ele>4.0</ele><time>2026-05-04T08:20:13.648Z</time></trkpt><trkpt lat="42.3941632" lon="18.7374915"><ele>4.75</ele><time>2026-05-04T08:20:14.648Z</time></trkpt><trkpt lat="42.3943024" lon="18.7375073"><ele>5.5</ele><time>2026-05-04T08:20:15.648Z</time></trkpt><trkpt lat="42.3944417" lon="18.7375116"><ele>6.25</ele><time>2026-05-04T08:20:16.648Z</time></trkpt><trkpt lat="42.3945799" lon="18.7375045"><ele>7.0</ele><time>2026-05-04T08:20:17.647Z</time></trkpt><trkpt lat="42.3947176" lon="18.7374786"><ele>7.25</ele><time>2026-05-04T08:20:18.648Z</time></trkpt><trkpt lat="42.3948516" lon="18.7374484"><ele>7.5</ele><time>2026-05-04T08:20:19.648Z</time></trkpt><trkpt lat="42.3949834" lon="18.7374045"><ele>7.75</ele><time>2026-05-04T08:20:20.648Z</time></trkpt><trkpt lat="42.3951084" lon="18.7373552"><ele>8.0</ele><time>2026-05-04T08:20:21.647Z</time></trkpt><trkpt lat="42.395228" lon="18.7372944"><ele>8.0</ele><time>2026-05-04T08:20:22.647Z</time></trkpt><trkpt lat="42.3953425" lon="18.7372306"><ele>8.0</ele><time>2026-05-04T08:20:23.647Z</time></trkpt><trkpt lat="42.3954521" lon="18.7371616"><ele>8.0</ele><time>2026-05-04T08:20:24.648Z</time></trkpt><trkpt lat="42.3955612" lon="18.7370822"><ele>8.0</ele><time>2026-05-04T08:20:25.647Z</time></trkpt><trkpt lat="42.3956698" lon="18.7369896"><ele>7.5</ele><time>2026-05-04T08:20:26.648Z</time></trkpt><trkpt lat="42.3957773" lon="18.7368858"><ele>7.0</ele><time>2026-05-04T08:20:27.647Z</time></trkpt><trkpt lat="42.3958816" lon="18.7367714"><ele>6.5</ele><time>2026-05-04T08:20:28.647Z</time></trkpt><trkpt lat="42.3959845" lon="18.7366512"><ele>6.0</ele><time>2026-05-04T08:20:29.647Z</time></trkpt><trkpt lat="42.3960857" lon="18.7365335"><ele>6.0</ele><time>2026-05-04T08:20:30.647Z</time></trkpt><trkpt lat="42.3961877" lon="18.7364158"><ele>6.0</ele><time>2026-05-04T08:20:31.648Z</time></trkpt><trkpt lat="42.3962898" lon="18.7362965"><ele>6.0</ele><time>2026-05-04T08:20:32.647Z</time></trkpt><trkpt lat="42.3963933" lon="18.7361774"><ele>6.0</ele><time>2026-05-04T08:20:33.648Z</time></trkpt><trkpt lat="42.3964974" lon="18.7360482"><ele>6.25</ele><time>2026-05-04T08:20:34.648Z</time></trkpt><trkpt lat="42.3966012" lon="18.7359175"><ele>6.5</ele><time>2026-05-04T08:20:35.648Z</time></trkpt><trkpt lat="42.3967049" lon="18.7357884"><ele>6.75</ele><time>2026-05-04T08:20:36.647Z</time></trkpt><trkpt lat="42.3968077" lon="18.7356596"><ele>7.0</ele><time>2026-05-04T08:20:37.648Z</time></trkpt><trkpt lat="42.3969094" lon="18.7355391"><ele>7.0</ele><time>2026-05-04T08:20:38.647Z</time></trkpt><trkpt lat="42.3970122" lon="18.7354137"><ele>7.0</ele><time>2026-05-04T08:20:39.647Z</time></trkpt><trkpt lat="42.3971164" lon="18.7352919"><ele>7.0</ele><time>2026-05-04T08:20:40.647Z</time></trkpt><trkpt lat="42.3972232" lon="18.7351692"><ele>7.0</ele><time>2026-05-04T08:20:41.647Z</time></trkpt><trkpt lat="42.397332" lon="18.7350605"><ele>7.5</ele><time>2026-05-04T08:20:42.647Z</time></trkpt><trkpt lat="42.3974414" lon="18.7349423"><ele>8.0</ele><time>2026-05-04T08:20:43.647Z</time></trkpt><trkpt lat="42.3975498" lon="18.7348173"><ele>8.5</ele><time>2026-05-04T08:20:44.647Z</time></trkpt><trkpt lat="42.3976588" lon="18.7346901"><ele>9.0</ele><time>2026-05-04T08:20:45.648Z</time></trkpt><trkpt lat="42.3977703" lon="18.7345645"><ele>9.0</ele><time>2026-05-04T08:20:46.648Z</time></trkpt><trkpt lat="42.3978856" lon="18.7344296"><ele>9.0</ele><time>2026-05-04T08:20:47.647Z</time></trkpt><trkpt lat="42.3980052" lon="18.7342898"><ele>9.0</ele><time>2026-05-04T08:20:48.648Z</time></trkpt><trkpt lat="42.3981288" lon="18.734149"><ele>8.333333333333334</ele><time>2026-05-04T08:20:49.647Z</time></trkpt><trkpt lat="42.3982515" lon="18.7340008"><ele>7.666666666666667</ele><time>2026-05-04T08:20:50.648Z</time></trkpt><trkpt lat="42.3983715" lon="18.7338527"><ele>7.0</ele><time>2026-05-04T08:20:51.648Z</time></trkpt><trkpt lat="42.3984892" lon="18.7337038"><ele>7.0</ele><time>2026-05-04T08:20:52.648Z</time></trkpt><trkpt lat="42.3985992" lon="18.733574"><ele>7.0</ele><time>2026-05-04T08:20:53.648Z</time></trkpt><trkpt lat="42.3987116" lon="18.7334517"><ele>7.0</ele><time>2026-05-04T08:20:54.647Z</time></trkpt><trkpt lat="42.3988186" lon="18.7333366"><ele>7.0</ele><time>2026-05-04T08:20:55.648Z</time></trkpt><trkpt lat="42.3989222" lon="18.7332143"><ele>6.25</ele><time>2026-05-04T08:20:56.647Z</time></trkpt><trkpt lat="42.3990246" lon="18.733095"><ele>5.5</ele><time>2026-05-04T08:20:57.647Z</time></trkpt><trkpt lat="42.3991243" lon="18.7329767"><ele>4.75</ele><time>2026-05-04T08:20:58.648Z</time></trkpt><trkpt lat="42.3992215" lon="18.7328535"><ele>4.0</ele><time>2026-05-04T08:20:59.648Z</time></trkpt><trkpt lat="42.3993195" lon="18.7327395"><ele>3.75</ele><time>2026-05-04T08:21:00.648Z</time></trkpt><trkpt lat="42.399418" lon="18.7326253"><ele>3.5</ele><time>2026-05-04T08:21:01.647Z</time></trkpt><trkpt lat="42.3995146" lon="18.7325121"><ele>3.25</ele><time>2026-05-04T08:21:02.647Z</time></trkpt><trkpt lat="42.3996086" lon="18.7323927"><ele>3.0</ele><time>2026-05-04T08:21:03.647Z</time></trkpt><trkpt lat="42.3997055" lon="18.7322739"><ele>2.75</ele><time>2026-05-04T08:21:04.647Z</time></trkpt><trkpt lat="42.3998019" lon="18.7321651"><ele>2.5</ele><time>2026-05-04T08:21:05.647Z</time></trkpt><trkpt lat="42.3998952" lon="18.7320551"><ele>2.25</ele><time>2026-05-04T08:21:06.648Z</time></trkpt><trkpt lat="42.399988" lon="18.7319406"><ele>2.0</ele><time>2026-05-04T08:21:07.648Z</time></trkpt><trkpt lat="42.4000791" lon="18.7318307"><ele>2.0</ele><time>2026-05-04T08:21:08.647Z</time></trkpt><trkpt lat="42.4001702" lon="18.7317217"><ele>2.0</ele><time>2026-05-04T08:21:09.647Z</time></trkpt><trkpt lat="42.4002627" lon="18.7316172"><ele>2.0</ele><time>2026-05-04T08:21:10.648Z</time></trkpt><trkpt lat="42.4003522" lon="18.7315115"><ele>2.0</ele><time>2026-05-04T08:21:11.648Z</time></trkpt><trkpt lat="42.400442" lon="18.7314114"><ele>2.0</ele><time>2026-05-04T08:21:12.648Z</time></trkpt><trkpt lat="42.4005261" lon="18.7313142"><ele>2.0</ele><time>2026-05-04T08:21:13.647Z</time></trkpt><trkpt lat="42.4006124" lon="18.7312171"><ele>2.0</ele><time>2026-05-04T08:21:14.648Z</time></trkpt><trkpt lat="42.4006936" lon="18.7311133"><ele>2.0</ele><time>2026-05-04T08:21:15.647Z</time></trkpt><trkpt lat="42.4007799" lon="18.7310056"><ele>2.25</ele><time>2026-05-04T08:21:16.647Z</time></trkpt><trkpt lat="42.4008698" lon="18.7308926"><ele>2.5</ele><time>2026-05-04T08:21:17.648Z</time></trkpt><trkpt lat="42.4009625" lon="18.730782"><ele>2.75</ele><time>2026-05-04T08:21:18.647Z</time></trkpt><trkpt lat="42.4010608" lon="18.7306733"><ele>3.0</ele><time>2026-05-04T08:21:19.648Z</time></trkpt><trkpt lat="42.4011622" lon="18.7305579"><ele>3.0</ele><time>2026-05-04T08:21:20.648Z</time></trkpt><trkpt lat="42.4012607" lon="18.7304348"><ele>3.0</ele><time>2026-05-04T08:21:21.648Z</time></trkpt><trkpt lat="42.4013662" lon="18.7303092"><ele>3.0</ele><time>2026-05-04T08:21:22.647Z</time></trkpt><trkpt lat="42.4014733" lon="18.7301838"><ele>3.0</ele><time>2026-05-04T08:21:23.648Z</time></trkpt><trkpt lat="42.4015811" lon="18.7300581"><ele>3.0</ele><time>2026-05-04T08:21:24.648Z</time></trkpt><trkpt lat="42.4016852" lon="18.729935"><ele>3.0</ele><time>2026-05-04T08:21:25.647Z</time></trkpt><trkpt lat="42.4017868" lon="18.7298114"><ele>3.0</ele><time>2026-05-04T08:21:26.648Z</time></trkpt><trkpt lat="42.4018824" lon="18.7296975"><ele>3.0</ele><time>2026-05-04T08:21:27.647Z</time></trkpt><trkpt lat="42.4019789" lon="18.7295804"><ele>3.0</ele><time>2026-05-04T08:21:28.648Z</time></trkpt><trkpt lat="42.4020728" lon="18.7294739"><ele>3.0</ele><time>2026-05-04T08:21:29.647Z</time></trkpt><trkpt lat="42.4021685" lon="18.7293543"><ele>3.0</ele><time>2026-05-04T08:21:30.648Z</time></trkpt><trkpt lat="42.4022738" lon="18.7292332"><ele>3.0</ele><time>2026-05-04T08:21:31.647Z</time></trkpt><trkpt lat="42.4023818" lon="18.7291081"><ele>3.25</ele><time>2026-05-04T08:21:32.647Z</time></trkpt><trkpt lat="42.4024911" lon="18.7289755"><ele>3.5</ele><time>2026-05-04T08:21:33.647Z</time></trkpt><trkpt lat="42.4026039" lon="18.7288437"><ele>3.75</ele><time>2026-05-04T08:21:34.648Z</time></trkpt><trkpt lat="42.4027185" lon="18.7287111"><ele>4.0</ele><time>2026-05-04T08:21:35.647Z</time></trkpt><trkpt lat="42.4028331" lon="18.7285779"><ele>4.0</ele><time>2026-05-04T08:21:36.647Z</time></trkpt><trkpt lat="42.402948" lon="18.7284418"><ele>4.0</ele><time>2026-05-04T08:21:37.647Z</time></trkpt><trkpt lat="42.4030635" lon="18.728299"><ele>4.0</ele><time>2026-05-04T08:21:38.648Z</time></trkpt><trkpt lat="42.4031838" lon="18.728142"><ele>4.0</ele><time>2026-05-04T08:21:39.648Z</time></trkpt><trkpt lat="42.4033092" lon="18.7279864"><ele>4.0</ele><time>2026-05-04T08:21:40.648Z</time></trkpt><trkpt lat="42.4034361" lon="18.7278251"><ele>4.0</ele><time>2026-05-04T08:21:41.647Z</time></trkpt><trkpt lat="42.4035668" lon="18.7276666"><ele>3.6666666666666665</ele><time>2026-05-04T08:21:42.648Z</time></trkpt><trkpt lat="42.4036947" lon="18.7275117"><ele>3.333333333333333</ele><time>2026-05-04T08:21:43.648Z</time></trkpt><trkpt lat="42.4038211" lon="18.7273637"><ele>3.0</ele><time>2026-05-04T08:21:44.647Z</time></trkpt><trkpt lat="42.4039515" lon="18.7272343"><ele>3.666666666666667</ele><time>2026-05-04T08:21:45.647Z</time></trkpt><trkpt lat="42.4040757" lon="18.7270986"><ele>4.333333333333334</ele><time>2026-05-04T08:21:46.648Z</time></trkpt><trkpt lat="42.4041986" lon="18.7269543"><ele>5.0</ele><time>2026-05-04T08:21:47.648Z</time></trkpt><trkpt lat="42.4043227" lon="18.726809"><ele>5.0</ele><time>2026-05-04T08:21:48.647Z</time></trkpt><trkpt lat="42.4044459" lon="18.7266613"><ele>5.0</ele><time>2026-05-04T08:21:49.648Z</time></trkpt><trkpt lat="42.4045674" lon="18.7265192"><ele>5.0</ele><time>2026-05-04T08:21:50.648Z</time></trkpt><trkpt lat="42.4046871" lon="18.7263757"><ele>5.0</ele><time>2026-05-04T08:21:51.648Z</time></trkpt><trkpt lat="42.404805" lon="18.7262374"><ele>5.0</ele><time>2026-05-04T08:21:52.647Z</time></trkpt><trkpt lat="42.4049185" lon="18.7261014"><ele>5.0</ele><time>2026-05-04T08:21:53.648Z</time></trkpt><trkpt lat="42.4050302" lon="18.7259606"><ele>5.333333333333334</ele><time>2026-05-04T08:21:54.648Z</time></trkpt><trkpt lat="42.4051448" lon="18.7258253"><ele>5.666666666666667</ele><time>2026-05-04T08:21:55.648Z</time></trkpt><trkpt lat="42.4052646" lon="18.7256969"><ele>6.0</ele><time>2026-05-04T08:21:56.648Z</time></trkpt><trkpt lat="42.4053834" lon="18.7255634"><ele>6.0</ele><time>2026-05-04T08:21:57.647Z</time></trkpt><trkpt lat="42.4055026" lon="18.7254249"><ele>6.0</ele><time>2026-05-04T08:21:58.647Z</time></trkpt><trkpt lat="42.4056218" lon="18.7252811"><ele>6.0</ele><time>2026-05-04T08:21:59.647Z</time></trkpt><trkpt lat="42.4057443" lon="18.725138"><ele>6.0</ele><time>2026-05-04T08:22:00.647Z</time></trkpt><trkpt lat="42.4058695" lon="18.724987"><ele>6.0</ele><time>2026-05-04T08:22:01.647Z</time></trkpt><trkpt lat="42.4059972" lon="18.7248338"><ele>6.0</ele><time>2026-05-04T08:22:02.648Z</time></trkpt><trkpt lat="42.4061308" lon="18.7246831"><ele>6.0</ele><time>2026-05-04T08:22:03.648Z</time></trkpt><trkpt lat="42.4062654" lon="18.724535"><ele>6.0</ele><time>2026-05-04T08:22:04.648Z</time></trkpt><trkpt lat="42.4064005" lon="18.7243686"><ele>6.0</ele><time>2026-05-04T08:22:05.647Z</time></trkpt><trkpt lat="42.4065386" lon="18.7241927"><ele>5.666666666666667</ele><time>2026-05-04T08:22:06.648Z</time></trkpt><trkpt lat="42.4066847" lon="18.7240155"><ele>5.333333333333334</ele><time>2026-05-04T08:22:07.647Z</time></trkpt><trkpt lat="42.4068334" lon="18.7238425"><ele>5.0</ele><time>2026-05-04T08:22:08.647Z</time></trkpt><trkpt lat="42.4069799" lon="18.7236705"><ele>5.0</ele><time>2026-05-04T08:22:09.648Z</time></trkpt><trkpt lat="42.4071269" lon="18.7234995"><ele>5.0</ele><time>2026-05-04T08:22:10.648Z</time></trkpt><trkpt lat="42.4072755" lon="18.723326"><ele>5.0</ele><time>2026-05-04T08:22:11.647Z</time></trkpt><trkpt lat="42.4074277" lon="18.723163"><ele>5.0</ele><time>2026-05-04T08:22:12.648Z</time></trkpt><trkpt lat="42.4075802" lon="18.7230024"><ele>5.0</ele><time>2026-05-04T08:22:13.648Z</time></trkpt><trkpt lat="42.4077272" lon="18.7228497"><ele>5.0</ele><time>2026-05-04T08:22:14.647Z</time></trkpt><trkpt lat="42.4078707" lon="18.7227017"><ele>5.333333333333334</ele><time>2026-05-04T08:22:15.647Z</time></trkpt><trkpt lat="42.4080125" lon="18.7225577"><ele>5.666666666666667</ele><time>2026-05-04T08:22:16.648Z</time></trkpt><trkpt lat="42.408152" lon="18.72242"><ele>6.0</ele><time>2026-05-04T08:22:17.647Z</time></trkpt><trkpt lat="42.4082848" lon="18.7222835"><ele>6.0</ele><time>2026-05-04T08:22:18.647Z</time></trkpt><trkpt lat="42.4084166" lon="18.7221489"><ele>6.0</ele><time>2026-05-04T08:22:19.648Z</time></trkpt><trkpt lat="42.408549" lon="18.7220201"><ele>6.0</ele><time>2026-05-04T08:22:20.648Z</time></trkpt><trkpt lat="42.4086792" lon="18.7218855"><ele>6.0</ele><time>2026-05-04T08:22:21.647Z</time></trkpt><trkpt lat="42.4088094" lon="18.7217588"><ele>6.0</ele><time>2026-05-04T08:22:22.648Z</time></trkpt><trkpt lat="42.4089395" lon="18.7216403"><ele>6.0</ele><time>2026-05-04T08:22:23.648Z</time></trkpt><trkpt lat="42.4090734" lon="18.7215296"><ele>5.666666666666667</ele><time>2026-05-04T08:22:24.647Z</time></trkpt><trkpt lat="42.4092064" lon="18.7214078"><ele>5.333333333333334</ele><time>2026-05-04T08:22:25.647Z</time></trkpt><trkpt lat="42.4093423" lon="18.7212916"><ele>5.0</ele><time>2026-05-04T08:22:26.648Z</time></trkpt><trkpt lat="42.4094755" lon="18.7211832"><ele>5.0</ele><time>2026-05-04T08:22:27.648Z</time></trkpt><trkpt lat="42.4096102" lon="18.7210725"><ele>5.0</ele><time>2026-05-04T08:22:28.647Z</time></trkpt><trkpt lat="42.4097451" lon="18.7209651"><ele>5.0</ele><time>2026-05-04T08:22:29.647Z</time></trkpt><trkpt lat="42.40988" lon="18.7208603"><ele>5.333333333333334</ele><time>2026-05-04T08:22:30.647Z</time></trkpt><trkpt lat="42.4100152" lon="18.7207578"><ele>5.666666666666667</ele><time>2026-05-04T08:22:31.648Z</time></trkpt><trkpt lat="42.4101516" lon="18.720653"><ele>6.0</ele><time>2026-05-04T08:22:32.647Z</time></trkpt><trkpt lat="42.4102853" lon="18.7205536"><ele>6.0</ele><time>2026-05-04T08:22:33.647Z</time></trkpt><trkpt lat="42.4104222" lon="18.7204524"><ele>6.0</ele><time>2026-05-04T08:22:34.648Z</time></trkpt><trkpt lat="42.4105588" lon="18.7203521"><ele>6.0</ele><time>2026-05-04T08:22:35.648Z</time></trkpt><trkpt lat="42.4106914" lon="18.720256"><ele>5.5</ele><time>2026-05-04T08:22:36.647Z</time></trkpt><trkpt lat="42.4108219" lon="18.7201664"><ele>5.0</ele><time>2026-05-04T08:22:37.648Z</time></trkpt><trkpt lat="42.4109488" lon="18.7200818"><ele>4.5</ele><time>2026-05-04T08:22:38.647Z</time></trkpt><trkpt lat="42.4110718" lon="18.7199993"><ele>4.0</ele><time>2026-05-04T08:22:39.648Z</time></trkpt><trkpt lat="42.4111885" lon="18.7199255"><ele>4.0</ele><time>2026-05-04T08:22:40.647Z</time></trkpt><trkpt lat="42.4112973" lon="18.7198575"><ele>4.0</ele><time>2026-05-04T08:22:41.648Z</time></trkpt><trkpt lat="42.4114014" lon="18.7197917"><ele>4.0</ele><time>2026-05-04T08:22:42.648Z</time></trkpt><trkpt lat="42.4114982" lon="18.7197349"><ele>4.0</ele><time>2026-05-04T08:22:43.648Z</time></trkpt><trkpt lat="42.4115869" lon="18.7196837"><ele>4.0</ele><time>2026-05-04T08:22:44.648Z</time></trkpt><trkpt lat="42.4116762" lon="18.7196338"><ele>3.833333333333333</ele><time>2026-05-04T08:22:45.647Z</time></trkpt><trkpt lat="42.4117613" lon="18.7195928"><ele>3.6666666666666665</ele><time>2026-05-04T08:22:46.648Z</time></trkpt><trkpt lat="42.4118416" lon="18.7195669"><ele>3.5</ele><time>2026-05-04T08:22:47.648Z</time></trkpt><trkpt lat="42.4119155" lon="18.719548"><ele>3.333333333333333</ele><time>2026-05-04T08:22:48.647Z</time></trkpt><trkpt lat="42.4119801" lon="18.7195515"><ele>3.1666666666666665</ele><time>2026-05-04T08:22:49.647Z</time></trkpt><trkpt lat="42.4121013" lon="18.7195586"><ele>3.0</ele><time>2026-05-04T08:22:51.647Z</time></trkpt><trkpt lat="42.4122138" lon="18.7195114"><ele>3.5999999999999996</ele><time>2026-05-04T08:22:53.647Z</time></trkpt><trkpt lat="42.4122899" lon="18.7194023"><ele>4.199999999999999</ele><time>2026-05-04T08:22:55.648Z</time></trkpt><trkpt lat="42.4123692" lon="18.719264"><ele>4.8</ele><time>2026-05-04T08:22:57.648Z</time></trkpt><trkpt lat="42.4124285" lon="18.7191996"><ele>5.3999999999999995</ele><time>2026-05-04T08:22:58.648Z</time></trkpt><trkpt lat="42.4124938" lon="18.7191494"><ele>6.0</ele><time>2026-05-04T08:22:59.648Z</time></trkpt><trkpt lat="42.4125672" lon="18.719096"><ele>6.0</ele><time>2026-05-04T08:23:00.648Z</time></trkpt><trkpt lat="42.4126487" lon="18.7190635"><ele>6.0</ele><time>2026-05-04T08:23:01.648Z</time></trkpt><trkpt lat="42.412731" lon="18.7190227"><ele>6.0</ele><time>2026-05-04T08:23:02.648Z</time></trkpt><trkpt lat="42.4128136" lon="18.718979"><ele>6.0</ele><time>2026-05-04T08:23:03.648Z</time></trkpt><trkpt lat="42.4128914" lon="18.7189355"><ele>6.0</ele><time>2026-05-04T08:23:04.648Z</time></trkpt><trkpt lat="42.4129662" lon="18.7188956"><ele>6.0</ele><time>2026-05-04T08:23:05.648Z</time></trkpt><trkpt lat="42.4130402" lon="18.7188594"><ele>5.2</ele><time>2026-05-04T08:23:06.647Z</time></trkpt><trkpt lat="42.4131203" lon="18.7188284"><ele>4.3999999999999995</ele><time>2026-05-04T08:23:07.648Z</time></trkpt><trkpt lat="42.4132183" lon="18.7187824"><ele>3.6</ele><time>2026-05-04T08:23:08.647Z</time></trkpt><trkpt lat="42.4133306" lon="18.7187383"><ele>2.8</ele><time>2026-05-04T08:23:09.647Z</time></trkpt><trkpt lat="42.4134626" lon="18.7186998"><ele>2.0</ele><time>2026-05-04T08:23:10.648Z</time></trkpt><trkpt lat="42.4135951" lon="18.7186635"><ele>2.0</ele><time>2026-05-04T08:23:11.647Z</time></trkpt><trkpt lat="42.413724" lon="18.7186228"><ele>2.0</ele><time>2026-05-04T08:23:12.647Z</time></trkpt><trkpt lat="42.4138465" lon="18.7185824"><ele>2.0</ele><time>2026-05-04T08:23:13.648Z</time></trkpt><trkpt lat="42.4139636" lon="18.7185433"><ele>2.0</ele><time>2026-05-04T08:23:14.647Z</time></trkpt><trkpt lat="42.4140821" lon="18.7185016"><ele>2.6</ele><time>2026-05-04T08:23:15.647Z</time></trkpt><trkpt lat="42.4141925" lon="18.7184592"><ele>3.2</ele><time>2026-05-04T08:23:16.647Z</time></trkpt><trkpt lat="42.414292" lon="18.7184211"><ele>3.8</ele><time>2026-05-04T08:23:17.647Z</time></trkpt><trkpt lat="42.4143818" lon="18.7183816"><ele>4.4</ele><time>2026-05-04T08:23:18.647Z</time></trkpt><trkpt lat="42.4144659" lon="18.718341"><ele>5.0</ele><time>2026-05-04T08:23:19.648Z</time></trkpt><trkpt lat="42.4145414" lon="18.7182999"><ele>5.0</ele><time>2026-05-04T08:23:20.647Z</time></trkpt><trkpt lat="42.4146118" lon="18.7182723"><ele>5.0</ele><time>2026-05-04T08:23:21.647Z</time></trkpt><trkpt lat="42.4146843" lon="18.7182548"><ele>5.0</ele><time>2026-05-04T08:23:22.648Z</time></trkpt><trkpt lat="42.4147537" lon="18.7182378"><ele>5.0</ele><time>2026-05-04T08:23:23.648Z</time></trkpt><trkpt lat="42.4148225" lon="18.7182163"><ele>5.0</ele><time>2026-05-04T08:23:24.647Z</time></trkpt><trkpt lat="42.4148873" lon="18.7181981"><ele>5.0</ele><time>2026-05-04T08:23:25.648Z</time></trkpt><trkpt lat="42.4149995" lon="18.7181645"><ele>5.666666666666667</ele><time>2026-05-04T08:23:27.647Z</time></trkpt><trkpt lat="42.4150943" lon="18.7181281"><ele>6.333333333333334</ele><time>2026-05-04T08:23:29.647Z</time></trkpt><trkpt lat="42.4151717" lon="18.7181194"><ele>7.0</ele><time>2026-05-04T08:23:31.648Z</time></trkpt><trkpt lat="42.4152464" lon="18.7181057"><ele>7.666666666666667</ele><time>2026-05-04T08:23:34.647Z</time></trkpt><trkpt lat="42.4153092" lon="18.7180921"><ele>8.333333333333334</ele><time>2026-05-04T08:23:49.647Z</time></trkpt><trkpt lat="42.4153765" lon="18.7180728"><ele>9.0</ele><time>2026-05-04T08:23:52.648Z</time></trkpt><trkpt lat="42.4154466" lon="18.7180479"><ele>9.857142857142858</ele><time>2026-05-04T08:23:56.647Z</time></trkpt><trkpt lat="42.4155181" lon="18.7180204"><ele>10.714285714285715</ele><time>2026-05-04T08:24:00.647Z</time></trkpt><trkpt lat="42.4155887" lon="18.7179978"><ele>11.571428571428573</ele><time>2026-05-04T08:24:03.648Z</time></trkpt><trkpt lat="42.415658" lon="18.717976"><ele>12.428571428571429</ele><time>2026-05-04T08:24:06.647Z</time></trkpt><trkpt lat="42.4157395" lon="18.717953"><ele>13.285714285714285</ele><time>2026-05-04T08:24:09.647Z</time></trkpt><trkpt lat="42.4158038" lon="18.7179333"><ele>14.142857142857144</ele><time>2026-05-04T08:24:13.648Z</time></trkpt><trkpt lat="42.415879" lon="18.7179067"><ele>15.0</ele><time>2026-05-04T08:24:17.648Z</time></trkpt><trkpt lat="42.4159694" lon="18.7178882"><ele>15.0</ele><time>2026-05-04T08:24:20.648Z</time></trkpt><trkpt lat="42.4160523" lon="18.7179027"><ele>15.0</ele><time>2026-05-04T08:24:22.647Z</time></trkpt><trkpt lat="42.4161455" lon="18.7179889"><ele>15.0</ele><time>2026-05-04T08:24:24.648Z</time></trkpt><trkpt lat="42.4162011" lon="18.7181393"><ele>15.0</ele><time>2026-05-04T08:24:26.648Z</time></trkpt><trkpt lat="42.4162159" lon="18.7182306"><ele>15.0</ele><time>2026-05-04T08:24:27.647Z</time></trkpt><trkpt lat="42.4162312" lon="18.7183305"><ele>15.0</ele><time>2026-05-04T08:24:28.648Z</time></trkpt><trkpt lat="42.4162494" lon="18.7184277"><ele>15.0</ele><time>2026-05-04T08:24:29.647Z</time></trkpt><trkpt lat="42.4162649" lon="18.7185211"><ele>15.0</ele><time>2026-05-04T08:24:30.647Z</time></trkpt><trkpt lat="42.416296" lon="18.7186713"><ele>15.0</ele><time>2026-05-04T08:24:32.648Z</time></trkpt><trkpt lat="42.4163733" lon="18.7187466"><ele>15.0</ele><time>2026-05-04T08:24:34.647Z</time></trkpt><trkpt lat="42.4164682" lon="18.7187195"><ele>14.2</ele><time>2026-05-04T08:24:36.647Z</time></trkpt><trkpt lat="42.4165463" lon="18.7186545"><ele>13.4</ele><time>2026-05-04T08:24:38.648Z</time></trkpt><trkpt lat="42.4166098" lon="18.7186003"><ele>12.600000000000001</ele><time>2026-05-04T08:24:40.647Z</time></trkpt><trkpt lat="42.4166857" lon="18.7185355"><ele>11.8</ele><time>2026-05-04T08:24:42.648Z</time></trkpt><trkpt lat="42.4167853" lon="18.7184415"><ele>11.0</ele><time>2026-05-04T08:24:44.647Z</time></trkpt><trkpt lat="42.4168442" lon="18.7183829"><ele>11.0</ele><time>2026-05-04T08:24:45.648Z</time></trkpt><trkpt lat="42.4169002" lon="18.7183352"><ele>11.0</ele><time>2026-05-04T08:24:46.648Z</time></trkpt><trkpt lat="42.416956" lon="18.7182911"><ele>11.0</ele><time>2026-05-04T08:24:47.647Z</time></trkpt><trkpt lat="42.4170157" lon="18.7182389"><ele>11.0</ele><time>2026-05-04T08:24:48.647Z</time></trkpt><trkpt lat="42.4170751" lon="18.7181858"><ele>11.0</ele><time>2026-05-04T08:24:49.647Z</time></trkpt><trkpt lat="42.417125" lon="18.7181323"><ele>11.0</ele><time>2026-05-04T08:24:50.647Z</time></trkpt><trkpt lat="42.4172105" lon="18.7180351"><ele>11.0</ele><time>2026-05-04T08:24:52.647Z</time></trkpt><trkpt lat="42.4172734" lon="18.7179707"><ele>11.4</ele><time>2026-05-04T08:24:54.648Z</time></trkpt><trkpt lat="42.417341" lon="18.7179139"><ele>11.8</ele><time>2026-05-04T08:24:56.648Z</time></trkpt><trkpt lat="42.4174324" lon="18.7178434"><ele>12.200000000000001</ele><time>2026-05-04T08:24:58.648Z</time></trkpt><trkpt lat="42.4175424" lon="18.7177779"><ele>12.600000000000001</ele><time>2026-05-04T08:25:00.648Z</time></trkpt><trkpt lat="42.4176523" lon="18.7177195"><ele>13.0</ele><time>2026-05-04T08:25:02.648Z</time></trkpt><trkpt lat="42.4177442" lon="18.7177011"><ele>12.999999999999998</ele><time>2026-05-04T08:25:04.648Z</time></trkpt><trkpt lat="42.4178174" lon="18.7176924"><ele>13.0</ele><time>2026-05-04T08:25:06.647Z</time></trkpt><trkpt lat="42.4179097" lon="18.7176834"><ele>13.0</ele><time>2026-05-04T08:25:08.648Z</time></trkpt><trkpt lat="42.417996" lon="18.7176819"><ele>13.0</ele><time>2026-05-04T08:25:10.648Z</time></trkpt><trkpt lat="42.4180608" lon="18.7176737"><ele>12.999999999999998</ele><time>2026-05-04T08:25:12.648Z</time></trkpt><trkpt lat="42.4181375" lon="18.7176647"><ele>13.0</ele><time>2026-05-04T08:25:14.648Z</time></trkpt><trkpt lat="42.4182301" lon="18.7176379"><ele>13.4</ele><time>2026-05-04T08:25:16.647Z</time></trkpt><trkpt lat="42.4183662" lon="18.7176088"><ele>13.8</ele><time>2026-05-04T08:25:18.648Z</time></trkpt><trkpt lat="42.418444" lon="18.7175905"><ele>14.2</ele><time>2026-05-04T08:25:19.648Z</time></trkpt><trkpt lat="42.4185314" lon="18.7175573"><ele>14.6</ele><time>2026-05-04T08:25:20.647Z</time></trkpt><trkpt lat="42.4186207" lon="18.7175332"><ele>15.0</ele><time>2026-05-04T08:25:21.648Z</time></trkpt><trkpt lat="42.4172105" lon="18.7180351"><ele>15.0</ele><time>2026-05-04T08:24:52.647Z</time></trkpt><trkpt lat="42.4172734" lon="18.7179707"><ele>15.0</ele><time>2026-05-04T08:24:54.648Z</time></trkpt><trkpt lat="42.417341" lon="18.7179139"><ele>15.0</ele><time>2026-05-04T08:24:56.648Z</time></trkpt><trkpt lat="42.4174324" lon="18.7178434"><ele>15.0</ele><time>2026-05-04T08:24:58.648Z</time></trkpt><trkpt lat="42.4175424" lon="18.7177779"><ele>15.0</ele><time>2026-05-04T08:25:00.648Z</time></trkpt><trkpt lat="42.4176523" lon="18.7177195"><ele>15.0</ele><time>2026-05-04T08:25:02.648Z</time></trkpt><trkpt lat="42.4177442" lon="18.7177011"><ele>15.0</ele><time>2026-05-04T08:25:04.648Z</time></trkpt><trkpt lat="42.4178174" lon="18.7176924"><ele>15.0</ele><time>2026-05-04T08:25:06.647Z</time></trkpt><trkpt lat="42.4179097" lon="18.7176834"><ele>15.0</ele><time>2026-05-04T08:25:08.648Z</time></trkpt><trkpt lat="42.417996" lon="18.7176819"><ele>15.0</ele><time>2026-05-04T08:25:10.648Z</time></trkpt><trkpt lat="42.4180608" lon="18.7176737"><ele>15.0</ele><time>2026-05-04T08:25:12.648Z</time></trkpt><trkpt lat="42.4181375" lon="18.7176647"><ele>15.0</ele><time>2026-05-04T08:25:14.648Z</time></trkpt><trkpt lat="42.4182301" lon="18.7176379"><ele>15.0</ele><time>2026-05-04T08:25:16.647Z</time></trkpt><trkpt lat="42.4183662" lon="18.7176088"><ele>15.0</ele><time>2026-05-04T08:25:18.648Z</time></trkpt><trkpt lat="42.418444" lon="18.7175905"><ele>15.0</ele><time>2026-05-04T08:25:19.648Z</time></trkpt><trkpt lat="42.4185314" lon="18.7175573"><ele>15.0</ele><time>2026-05-04T08:25:20.647Z</time></trkpt><trkpt lat="42.4186207" lon="18.7175332"><ele>15.0</ele><time>2026-05-04T08:25:21.648Z</time></trkpt><trkpt lat="42.4187096" lon="18.7175085"><ele>15.0</ele><time>2026-05-04T08:25:22.648Z</time></trkpt><trkpt lat="42.4187926" lon="18.7174907"><ele>15.0</ele><time>2026-05-04T08:25:23.648Z</time></trkpt><trkpt lat="42.418871" lon="18.7174712"><ele>15.0</ele><time>2026-05-04T08:25:24.647Z</time></trkpt><trkpt lat="42.4189459" lon="18.7174434"><ele>15.0</ele><time>2026-05-04T08:25:25.648Z</time></trkpt><trkpt lat="42.4190171" lon="18.7174165"><ele>15.0</ele><time>2026-05-04T08:25:26.647Z</time></trkpt><trkpt lat="42.4190883" lon="18.7173715"><ele>15.6</ele><time>2026-05-04T08:25:27.647Z</time></trkpt><trkpt lat="42.4191525" lon="18.717328"><ele>16.2</ele><time>2026-05-04T08:25:28.648Z</time></trkpt><trkpt lat="42.4192123" lon="18.7172699"><ele>16.8</ele><time>2026-05-04T08:25:29.648Z</time></trkpt><trkpt lat="42.4192629" lon="18.7172082"><ele>17.4</ele><time>2026-05-04T08:25:30.647Z</time></trkpt><trkpt lat="42.4193395" lon="18.7170974"><ele>18.0</ele><time>2026-05-04T08:25:32.648Z</time></trkpt><trkpt lat="42.4194174" lon="18.7169438"><ele>17.6</ele><time>2026-05-04T08:25:34.648Z</time></trkpt><trkpt lat="42.419464" lon="18.7168629"><ele>17.200000000000003</ele><time>2026-05-04T08:25:35.647Z</time></trkpt><trkpt lat="42.4195046" lon="18.716793"><ele>16.8</ele><time>2026-05-04T08:25:36.647Z</time></trkpt><trkpt lat="42.4195701" lon="18.7166748"><ele>16.400000000000002</ele><time>2026-05-04T08:25:38.647Z</time></trkpt><trkpt lat="42.4196294" lon="18.716544"><ele>16.0</ele><time>2026-05-04T08:25:40.648Z</time></trkpt><trkpt lat="42.4196851" lon="18.7164065"><ele>16.2</ele><time>2026-05-04T08:25:42.648Z</time></trkpt><trkpt lat="42.4197477" lon="18.7162699"><ele>16.400000000000002</ele><time>2026-05-04T08:25:44.647Z</time></trkpt><trkpt lat="42.4198148" lon="18.7161329"><ele>16.6</ele><time>2026-05-04T08:25:46.647Z</time></trkpt><trkpt lat="42.4198671" lon="18.7160095"><ele>16.8</ele><time>2026-05-04T08:25:48.648Z</time></trkpt><trkpt lat="42.4199089" lon="18.7158929"><ele>17.0</ele><time>2026-05-04T08:25:50.648Z</time></trkpt><trkpt lat="42.4199365" lon="18.7157829"><ele>17.0</ele><time>2026-05-04T08:25:52.647Z</time></trkpt><trkpt lat="42.4199606" lon="18.7157007"><ele>17.0</ele><time>2026-05-04T08:25:54.647Z</time></trkpt><trkpt lat="42.4200017" lon="18.7155684"><ele>17.0</ele><time>2026-05-04T08:25:57.647Z</time></trkpt><trkpt lat="42.4200654" lon="18.7154655"><ele>17.0</ele><time>2026-05-04T08:25:59.648Z</time></trkpt><trkpt lat="42.4201705" lon="18.7153371"><ele>17.0</ele><time>2026-05-04T08:26:01.647Z</time></trkpt><trkpt lat="42.4202312" lon="18.7152716"><ele>16.666666666666668</ele><time>2026-05-04T08:26:02.648Z</time></trkpt><trkpt lat="42.4202867" lon="18.7151998"><ele>16.333333333333336</ele><time>2026-05-04T08:26:03.648Z</time></trkpt><trkpt lat="42.4203367" lon="18.7151308"><ele>16.0</ele><time>2026-05-04T08:26:04.647Z</time></trkpt><trkpt lat="42.4204323" lon="18.7150187"><ele>15.666666666666668</ele><time>2026-05-04T08:26:06.648Z</time></trkpt><trkpt lat="42.4204857" lon="18.714943"><ele>15.333333333333334</ele><time>2026-05-04T08:26:07.647Z</time></trkpt><trkpt lat="42.4205486" lon="18.7148527"><ele>15.0</ele><time>2026-05-04T08:26:08.648Z</time></trkpt><trkpt lat="42.4206222" lon="18.7147581"><ele>16.25</ele><time>2026-05-04T08:26:09.647Z</time></trkpt><trkpt lat="42.4207035" lon="18.7146423"><ele>17.5</ele><time>2026-05-04T08:26:10.648Z</time></trkpt><trkpt lat="42.4207899" lon="18.7145234"><ele>18.75</ele><time>2026-05-04T08:26:11.647Z</time></trkpt><trkpt lat="42.4208667" lon="18.7144169"><ele>20.0</ele><time>2026-05-04T08:26:12.647Z</time></trkpt><trkpt lat="42.4209359" lon="18.714314"><ele>20.0</ele><time>2026-05-04T08:26:13.648Z</time></trkpt><trkpt lat="42.4210024" lon="18.7142079"><ele>20.0</ele><time>2026-05-04T08:26:14.648Z</time></trkpt><trkpt lat="42.4210667" lon="18.7140972"><ele>20.0</ele><time>2026-05-04T08:26:15.647Z</time></trkpt><trkpt lat="42.4211246" lon="18.7139939"><ele>20.0</ele><time>2026-05-04T08:26:16.648Z</time></trkpt><trkpt lat="42.4211801" lon="18.71391"><ele>20.0</ele><time>2026-05-04T08:26:17.648Z</time></trkpt><trkpt lat="42.4212238" lon="18.7138407"><ele>20.0</ele><time>2026-05-04T08:26:18.647Z</time></trkpt><trkpt lat="42.4212797" lon="18.7137465"><ele>20.0</ele><time>2026-05-04T08:26:20.648Z</time></trkpt><trkpt lat="42.421336" lon="18.713667"><ele>20.0</ele><time>2026-05-04T08:26:24.647Z</time></trkpt><trkpt lat="42.4213809" lon="18.7135708"><ele>20.0</ele><time>2026-05-04T08:26:28.648Z</time></trkpt><trkpt lat="42.4214249" lon="18.7134968"><ele>20.0</ele><time>2026-05-04T08:26:31.648Z</time></trkpt><trkpt lat="42.4214806" lon="18.7134052"><ele>20.0</ele><time>2026-05-04T08:26:34.648Z</time></trkpt><trkpt lat="42.4215232" lon="18.7133228"><ele>19.5</ele><time>2026-05-04T08:26:36.648Z</time></trkpt><trkpt lat="42.4215726" lon="18.7132473"><ele>19.0</ele><time>2026-05-04T08:26:39.648Z</time></trkpt><trkpt lat="42.4216278" lon="18.7131531"><ele>18.5</ele><time>2026-05-04T08:26:42.647Z</time></trkpt><trkpt lat="42.4216673" lon="18.7130742"><ele>18.0</ele><time>2026-05-04T08:26:44.648Z</time></trkpt><trkpt lat="42.4217128" lon="18.712968"><ele>17.5</ele><time>2026-05-04T08:26:46.648Z</time></trkpt><trkpt lat="42.4217572" lon="18.7128443"><ele>17.0</ele><time>2026-05-04T08:26:48.647Z</time></trkpt><trkpt lat="42.4218183" lon="18.7127213"><ele>16.333333333333336</ele><time>2026-05-04T08:26:50.648Z</time></trkpt><trkpt lat="42.4218827" lon="18.7125898"><ele>15.666666666666668</ele><time>2026-05-04T08:26:52.648Z</time></trkpt><trkpt lat="42.421922" lon="18.7124965"><ele>15.0</ele><time>2026-05-04T08:26:54.648Z</time></trkpt><trkpt lat="42.4219585" lon="18.7124123"><ele>14.333333333333332</ele><time>2026-05-04T08:26:57.648Z</time></trkpt><trkpt lat="42.4220008" lon="18.7123273"><ele>13.666666666666666</ele><time>2026-05-04T08:27:00.647Z</time></trkpt><trkpt lat="42.4220371" lon="18.7122471"><ele>13.0</ele><time>2026-05-04T08:27:02.647Z</time></trkpt><trkpt lat="42.4220767" lon="18.7121406"><ele>12.999999999999998</ele><time>2026-05-04T08:27:04.648Z</time></trkpt><trkpt lat="42.4221087" lon="18.7120478"><ele>13.0</ele><time>2026-05-04T08:27:06.647Z</time></trkpt><trkpt lat="42.4221388" lon="18.711955"><ele>13.0</ele><time>2026-05-04T08:27:08.647Z</time></trkpt><trkpt lat="42.4221823" lon="18.7118591"><ele>13.0</ele><time>2026-05-04T08:27:11.647Z</time></trkpt><trkpt lat="42.4222229" lon="18.7117494"><ele>12.999999999999998</ele><time>2026-05-04T08:27:13.647Z</time></trkpt><trkpt lat="42.4222546" lon="18.7116701"><ele>13.0</ele><time>2026-05-04T08:27:14.648Z</time></trkpt><trkpt lat="42.4222896" lon="18.7115803"><ele>13.4</ele><time>2026-05-04T08:27:15.648Z</time></trkpt><trkpt lat="42.4223307" lon="18.7114772"><ele>13.8</ele><time>2026-05-04T08:27:16.648Z</time></trkpt><trkpt lat="42.4223759" lon="18.7113637"><ele>14.2</ele><time>2026-05-04T08:27:17.647Z</time></trkpt><trkpt lat="42.4224207" lon="18.7112484"><ele>14.6</ele><time>2026-05-04T08:27:18.647Z</time></trkpt><trkpt lat="42.4224677" lon="18.7111304"><ele>15.0</ele><time>2026-05-04T08:27:19.648Z</time></trkpt><trkpt lat="42.4225096" lon="18.7110173"><ele>15.0</ele><time>2026-05-04T08:27:20.647Z</time></trkpt><trkpt lat="42.4225529" lon="18.7109117"><ele>15.0</ele><time>2026-05-04T08:27:21.647Z</time></trkpt><trkpt lat="42.4225842" lon="18.7108126"><ele>15.0</ele><time>2026-05-04T08:27:22.648Z</time></trkpt><trkpt lat="42.4226181" lon="18.7107248"><ele>15.0</ele><time>2026-05-04T08:27:23.648Z</time></trkpt><trkpt lat="42.4226487" lon="18.7106363"><ele>15.0</ele><time>2026-05-04T08:27:24.648Z</time></trkpt><trkpt lat="42.4226794" lon="18.7105496"><ele>15.0</ele><time>2026-05-04T08:27:25.648Z</time></trkpt><trkpt lat="42.4227086" lon="18.7104701"><ele>15.0</ele><time>2026-05-04T08:27:26.648Z</time></trkpt><trkpt lat="42.4227384" lon="18.7103945"><ele>15.0</ele><time>2026-05-04T08:27:27.647Z</time></trkpt><trkpt lat="42.422794" lon="18.710245"><ele>15.0</ele><time>2026-05-04T08:27:29.647Z</time></trkpt><trkpt lat="42.4228457" lon="18.7100961"><ele>15.0</ele><time>2026-05-04T08:27:31.647Z</time></trkpt><trkpt lat="42.4228927" lon="18.7099606"><ele>15.0</ele><time>2026-05-04T08:27:33.648Z</time></trkpt><trkpt lat="42.4229451" lon="18.7098361"><ele>15.2</ele><time>2026-05-04T08:27:35.647Z</time></trkpt><trkpt lat="42.422984" lon="18.7096967"><ele>15.4</ele><time>2026-05-04T08:27:37.648Z</time></trkpt><trkpt lat="42.4230352" lon="18.7095516"><ele>15.600000000000001</ele><time>2026-05-04T08:27:39.647Z</time></trkpt><trkpt lat="42.423085" lon="18.7094081"><ele>15.8</ele><time>2026-05-04T08:27:41.647Z</time></trkpt><trkpt lat="42.423136" lon="18.7092915"><ele>16.0</ele><time>2026-05-04T08:27:43.647Z</time></trkpt><trkpt lat="42.4231726" lon="18.7091983"><ele>15.666666666666666</ele><time>2026-05-04T08:27:45.648Z</time></trkpt><trkpt lat="42.4232007" lon="18.709107"><ele>15.333333333333332</ele><time>2026-05-04T08:27:47.647Z</time></trkpt><trkpt lat="42.4232333" lon="18.7090171"><ele>15.0</ele><time>2026-05-04T08:27:49.648Z</time></trkpt><trkpt lat="42.423265" lon="18.7089305"><ele>14.666666666666668</ele><time>2026-05-04T08:27:51.648Z</time></trkpt><trkpt lat="42.4232984" lon="18.7088414"><ele>14.333333333333334</ele><time>2026-05-04T08:27:53.647Z</time></trkpt><trkpt lat="42.4233356" lon="18.7087428"><ele>14.0</ele><time>2026-05-04T08:27:55.647Z</time></trkpt><trkpt lat="42.4233752" lon="18.7086429"><ele>13.399999999999999</ele><time>2026-05-04T08:27:57.648Z</time></trkpt><trkpt lat="42.4234182" lon="18.7085339"><ele>12.799999999999999</ele><time>2026-05-04T08:27:59.647Z</time></trkpt><trkpt lat="42.4234615" lon="18.7084139"><ele>12.2</ele><time>2026-05-04T08:28:01.648Z</time></trkpt><trkpt lat="42.4235114" lon="18.7082612"><ele>11.600000000000001</ele><time>2026-05-04T08:28:03.648Z</time></trkpt><trkpt lat="42.4235404" lon="18.7081758"><ele>11.0</ele><time>2026-05-04T08:28:04.647Z</time></trkpt><trkpt lat="42.4235706" lon="18.7080933"><ele>11.0</ele><time>2026-05-04T08:28:05.648Z</time></trkpt><trkpt lat="42.423597" lon="18.7080138"><ele>11.0</ele><time>2026-05-04T08:28:06.647Z</time></trkpt><trkpt lat="42.4236532" lon="18.707868"><ele>11.0</ele><time>2026-05-04T08:28:08.648Z</time></trkpt><trkpt lat="42.4237124" lon="18.7077272"><ele>11.0</ele><time>2026-05-04T08:28:10.647Z</time></trkpt><trkpt lat="42.4237686" lon="18.707592"><ele>11.0</ele><time>2026-05-04T08:28:12.647Z</time></trkpt><trkpt lat="42.4238245" lon="18.7074589"><ele>11.0</ele><time>2026-05-04T08:28:14.647Z</time></trkpt><trkpt lat="42.4238705" lon="18.7073386"><ele>11.0</ele><time>2026-05-04T08:28:16.648Z</time></trkpt><trkpt lat="42.4239111" lon="18.7072477"><ele>11.0</ele><time>2026-05-04T08:28:18.647Z</time></trkpt><trkpt lat="42.4239634" lon="18.7071332"><ele>11.0</ele><time>2026-05-04T08:28:20.647Z</time></trkpt><trkpt lat="42.4240329" lon="18.7069887"><ele>11.0</ele><time>2026-05-04T08:28:22.647Z</time></trkpt><trkpt lat="42.4240741" lon="18.7069077"><ele>10.833333333333332</ele><time>2026-05-04T08:28:23.648Z</time></trkpt><trkpt lat="42.4241153" lon="18.7068131"><ele>10.666666666666666</ele><time>2026-05-04T08:28:24.648Z</time></trkpt><trkpt lat="42.4241523" lon="18.7067371"><ele>10.5</ele><time>2026-05-04T08:28:25.647Z</time></trkpt><trkpt lat="42.4242116" lon="18.7066334"><ele>10.333333333333334</ele><time>2026-05-04T08:28:27.648Z</time></trkpt><trkpt lat="42.4242494" lon="18.7065509"><ele>10.166666666666668</ele><time>2026-05-04T08:28:39.648Z</time></trkpt><trkpt lat="42.4242904" lon="18.7064702"><ele>10.0</ele><time>2026-05-04T08:28:41.648Z</time></trkpt><trkpt lat="42.4243438" lon="18.70639"><ele>10.0</ele><time>2026-05-04T08:28:43.648Z</time></trkpt><trkpt lat="42.4243879" lon="18.706308"><ele>10.0</ele><time>2026-05-04T08:28:45.647Z</time></trkpt><trkpt lat="42.4244407" lon="18.7062197"><ele>10.0</ele><time>2026-05-04T08:28:47.648Z</time></trkpt><trkpt lat="42.4244893" lon="18.7061361"><ele>10.0</ele><time>2026-05-04T08:28:50.648Z</time></trkpt><trkpt lat="42.4245527" lon="18.7060495"><ele>10.0</ele><time>2026-05-04T08:29:01.648Z</time></trkpt><trkpt lat="42.4246321" lon="18.705939"><ele>10.0</ele><time>2026-05-04T08:29:03.648Z</time></trkpt><trkpt lat="42.4246797" lon="18.7058624"><ele>10.166666666666668</ele><time>2026-05-04T08:29:04.648Z</time></trkpt><trkpt lat="42.4247303" lon="18.7057867"><ele>10.333333333333334</ele><time>2026-05-04T08:29:05.648Z</time></trkpt><trkpt lat="42.4247794" lon="18.7057214"><ele>10.5</ele><time>2026-05-04T08:29:06.647Z</time></trkpt><trkpt lat="42.4248266" lon="18.7056544"><ele>10.666666666666666</ele><time>2026-05-04T08:29:07.648Z</time></trkpt><trkpt lat="42.4249061" lon="18.7055383"><ele>10.833333333333332</ele><time>2026-05-04T08:29:09.648Z</time></trkpt><trkpt lat="42.4249723" lon="18.7054511"><ele>11.0</ele><time>2026-05-04T08:29:11.648Z</time></trkpt><trkpt lat="42.425045" lon="18.7053527"><ele>10.4</ele><time>2026-05-04T08:29:13.647Z</time></trkpt><trkpt lat="42.4251233" lon="18.705242"><ele>9.8</ele><time>2026-05-04T08:29:15.647Z</time></trkpt><trkpt lat="42.4251905" lon="18.7051639"><ele>9.200000000000001</ele><time>2026-05-04T08:29:17.648Z</time></trkpt><trkpt lat="42.4252568" lon="18.7051034"><ele>8.600000000000001</ele><time>2026-05-04T08:29:24.648Z</time></trkpt><trkpt lat="42.4253371" lon="18.7050336"><ele>8.0</ele><time>2026-05-04T08:29:33.647Z</time></trkpt><trkpt lat="42.4254289" lon="18.7049615"><ele>7.999999999999999</ele><time>2026-05-04T08:29:35.648Z</time></trkpt><trkpt lat="42.4254817" lon="18.7049148"><ele>8.0</ele><time>2026-05-04T08:29:36.647Z</time></trkpt><trkpt lat="42.4255467" lon="18.7048544"><ele>8.0</ele><time>2026-05-04T08:29:37.647Z</time></trkpt><trkpt lat="42.4256162" lon="18.7047934"><ele>8.0</ele><time>2026-05-04T08:29:38.648Z</time></trkpt><trkpt lat="42.4256856" lon="18.7047452"><ele>7.999999999999999</ele><time>2026-05-04T08:29:39.648Z</time></trkpt><trkpt lat="42.425771" lon="18.7046688"><ele>8.0</ele><time>2026-05-04T08:29:40.647Z</time></trkpt><trkpt lat="42.4258586" lon="18.7045915"><ele>8.0</ele><time>2026-05-04T08:29:41.647Z</time></trkpt><trkpt lat="42.4259522" lon="18.7045187"><ele>8.0</ele><time>2026-05-04T08:29:42.648Z</time></trkpt><trkpt lat="42.4260453" lon="18.7044522"><ele>8.0</ele><time>2026-05-04T08:29:43.647Z</time></trkpt><trkpt lat="42.4261463" lon="18.704366"><ele>8.0</ele><time>2026-05-04T08:29:44.647Z</time></trkpt><trkpt lat="42.4262487" lon="18.704276"><ele>7.75</ele><time>2026-05-04T08:29:45.647Z</time></trkpt><trkpt lat="42.4263575" lon="18.7041884"><ele>7.5</ele><time>2026-05-04T08:29:46.648Z</time></trkpt><trkpt lat="42.4264684" lon="18.7041105"><ele>7.25</ele><time>2026-05-04T08:29:47.647Z</time></trkpt><trkpt lat="42.4265834" lon="18.7040128"><ele>7.0</ele><time>2026-05-04T08:29:48.648Z</time></trkpt><trkpt lat="42.4267023" lon="18.7039226"><ele>7.0</ele><time>2026-05-04T08:29:49.648Z</time></trkpt><trkpt lat="42.4268137" lon="18.7038473"><ele>6.999999999999999</ele><time>2026-05-04T08:29:50.647Z</time></trkpt><trkpt lat="42.426924" lon="18.7037878"><ele>6.999999999999999</ele><time>2026-05-04T08:29:51.647Z</time></trkpt><trkpt lat="42.4270244" lon="18.7037283"><ele>7.0</ele><time>2026-05-04T08:29:52.648Z</time></trkpt><trkpt lat="42.4271137" lon="18.7036825"><ele>7.0</ele><time>2026-05-04T08:29:53.648Z</time></trkpt><trkpt lat="42.4272013" lon="18.7036443"><ele>7.0</ele><time>2026-05-04T08:29:54.648Z</time></trkpt><trkpt lat="42.4272866" lon="18.7036157"><ele>6.999999999999999</ele><time>2026-05-04T08:29:55.647Z</time></trkpt><trkpt lat="42.427374" lon="18.7035732"><ele>6.999999999999999</ele><time>2026-05-04T08:29:56.648Z</time></trkpt><trkpt lat="42.4274559" lon="18.7035286"><ele>7.0</ele><time>2026-05-04T08:29:57.647Z</time></trkpt><trkpt lat="42.4275404" lon="18.7034846"><ele>7.0</ele><time>2026-05-04T08:29:58.648Z</time></trkpt><trkpt lat="42.4276274" lon="18.7034416"><ele>7.0</ele><time>2026-05-04T08:29:59.648Z</time></trkpt><trkpt lat="42.4277125" lon="18.7034052"><ele>6.999999999999999</ele><time>2026-05-04T08:30:00.648Z</time></trkpt><trkpt lat="42.4277929" lon="18.7033686"><ele>6.999999999999999</ele><time>2026-05-04T08:30:01.648Z</time></trkpt><trkpt lat="42.4278817" lon="18.7033236"><ele>7.0</ele><time>2026-05-04T08:30:02.648Z</time></trkpt><trkpt lat="42.4280002" lon="18.7032642"><ele>7.0</ele><time>2026-05-04T08:30:03.647Z</time></trkpt><trkpt lat="42.4281468" lon="18.7031946"><ele>7.0</ele><time>2026-05-04T08:30:04.648Z</time></trkpt><trkpt lat="42.4282964" lon="18.7031385"><ele>7.0</ele><time>2026-05-04T08:30:05.647Z</time></trkpt><trkpt lat="42.428432" lon="18.7030796"><ele>7.0</ele><time>2026-05-04T08:30:06.648Z</time></trkpt><trkpt lat="42.4285553" lon="18.7030221"><ele>7.0</ele><time>2026-05-04T08:30:07.647Z</time></trkpt><trkpt lat="42.4286652" lon="18.7029737"><ele>7.000000000000001</ele><time>2026-05-04T08:30:08.648Z</time></trkpt><trkpt lat="42.4287679" lon="18.7029236"><ele>7.0</ele><time>2026-05-04T08:30:09.647Z</time></trkpt><trkpt lat="42.4288562" lon="18.7028848"><ele>7.0</ele><time>2026-05-04T08:30:10.647Z</time></trkpt><trkpt lat="42.4289396" lon="18.7028494"><ele>7.0</ele><time>2026-05-04T08:30:11.647Z</time></trkpt><trkpt lat="42.4290167" lon="18.7028114"><ele>7.000000000000001</ele><time>2026-05-04T08:30:12.648Z</time></trkpt><trkpt lat="42.4290865" lon="18.7027862"><ele>7.0</ele><time>2026-05-04T08:30:13.648Z</time></trkpt><trkpt lat="42.4291941" lon="18.7027265"><ele>6.333333333333334</ele><time>2026-05-04T08:30:15.647Z</time></trkpt><trkpt lat="42.4293173" lon="18.7026788"><ele>5.666666666666667</ele><time>2026-05-04T08:30:17.647Z</time></trkpt><trkpt lat="42.4293942" lon="18.7026388"><ele>5.0</ele><time>2026-05-04T08:30:18.648Z</time></trkpt><trkpt lat="42.4294676" lon="18.7026051"><ele>4.333333333333334</ele><time>2026-05-04T08:30:19.648Z</time></trkpt><trkpt lat="42.4295378" lon="18.7025655"><ele>3.666666666666667</ele><time>2026-05-04T08:30:20.648Z</time></trkpt><trkpt lat="42.4296076" lon="18.7025141"><ele>3.0</ele><time>2026-05-04T08:30:21.647Z</time></trkpt><trkpt lat="42.4296696" lon="18.7024645"><ele>3.0</ele><time>2026-05-04T08:30:22.648Z</time></trkpt><trkpt lat="42.4297643" lon="18.7023861"><ele>3.0</ele><time>2026-05-04T08:30:24.648Z</time></trkpt><trkpt lat="42.4298303" lon="18.7023174"><ele>3.0</ele><time>2026-05-04T08:30:26.647Z</time></trkpt><trkpt lat="42.4298903" lon="18.7022587"><ele>3.0</ele><time>2026-05-04T08:30:29.648Z</time></trkpt><trkpt lat="42.4299508" lon="18.7022143"><ele>3.0</ele><time>2026-05-04T08:30:31.647Z</time></trkpt><trkpt lat="42.4300037" lon="18.7021598"><ele>3.0</ele><time>2026-05-04T08:30:32.648Z</time></trkpt><trkpt lat="42.4300893" lon="18.7020738"><ele>3.0</ele><time>2026-05-04T08:30:34.648Z</time></trkpt><trkpt lat="42.4301719" lon="18.7019771"><ele>3.0</ele><time>2026-05-04T08:30:36.647Z</time></trkpt><trkpt lat="42.4302364" lon="18.701886"><ele>3.0</ele><time>2026-05-04T08:30:37.647Z</time></trkpt><trkpt lat="42.4303081" lon="18.7017955"><ele>3.0</ele><time>2026-05-04T08:30:38.648Z</time></trkpt><trkpt lat="42.4303943" lon="18.7016834"><ele>3.0</ele><time>2026-05-04T08:30:39.648Z</time></trkpt><trkpt lat="42.4304811" lon="18.7015645"><ele>3.25</ele><time>2026-05-04T08:30:40.647Z</time></trkpt><trkpt lat="42.4305632" lon="18.7014216"><ele>3.5</ele><time>2026-05-04T08:30:41.647Z</time></trkpt><trkpt lat="42.4306468" lon="18.7012666"><ele>3.75</ele><time>2026-05-04T08:30:42.647Z</time></trkpt><trkpt lat="42.430729" lon="18.7010983"><ele>4.0</ele><time>2026-05-04T08:30:43.648Z</time></trkpt><trkpt lat="42.4308119" lon="18.7009068"><ele>5.0</ele><time>2026-05-04T08:30:44.647Z</time></trkpt><trkpt lat="42.430897" lon="18.7007077"><ele>6.0</ele><time>2026-05-04T08:30:45.647Z</time></trkpt><trkpt lat="42.4309817" lon="18.7005065"><ele>7.0</ele><time>2026-05-04T08:30:46.647Z</time></trkpt><trkpt lat="42.4310585" lon="18.7003227"><ele>8.5</ele><time>2026-05-04T08:30:47.647Z</time></trkpt><trkpt lat="42.4311324" lon="18.7001336"><ele>10.0</ele><time>2026-05-04T08:30:48.647Z</time></trkpt><trkpt lat="42.431195" lon="18.6999839"><ele>11.5</ele><time>2026-05-04T08:30:49.648Z</time></trkpt><trkpt lat="42.4312549" lon="18.6998474"><ele>13.0</ele><time>2026-05-04T08:30:50.647Z</time></trkpt><trkpt lat="42.4313134" lon="18.6997326"><ele>13.600000000000001</ele><time>2026-05-04T08:30:51.647Z</time></trkpt><trkpt lat="42.4313705" lon="18.6996131"><ele>14.200000000000001</ele><time>2026-05-04T08:30:52.647Z</time></trkpt><trkpt lat="42.4314305" lon="18.6995017"><ele>14.8</ele><time>2026-05-04T08:30:53.648Z</time></trkpt><trkpt lat="42.4314963" lon="18.6993995"><ele>15.4</ele><time>2026-05-04T08:30:54.648Z</time></trkpt><trkpt lat="42.4315644" lon="18.6993035"><ele>16.0</ele><time>2026-05-04T08:30:55.647Z</time></trkpt><trkpt lat="42.431633" lon="18.6991993"><ele>16.0</ele><time>2026-05-04T08:30:56.648Z</time></trkpt><trkpt lat="42.4317084" lon="18.6990947"><ele>16.0</ele><time>2026-05-04T08:30:57.647Z</time></trkpt><trkpt lat="42.4317882" lon="18.6990073"><ele>16.0</ele><time>2026-05-04T08:30:58.648Z</time></trkpt><trkpt lat="42.4318822" lon="18.6989218"><ele>16.0</ele><time>2026-05-04T08:30:59.648Z</time></trkpt><trkpt lat="42.431977" lon="18.6988492"><ele>16.0</ele><time>2026-05-04T08:31:00.648Z</time></trkpt><trkpt lat="42.4320863" lon="18.6987853"><ele>16.8</ele><time>2026-05-04T08:31:01.648Z</time></trkpt><trkpt lat="42.4321896" lon="18.6987376"><ele>17.6</ele><time>2026-05-04T08:31:02.648Z</time></trkpt><trkpt lat="42.432294" lon="18.698701"><ele>18.4</ele><time>2026-05-04T08:31:03.647Z</time></trkpt><trkpt lat="42.4323959" lon="18.6986736"><ele>19.2</ele><time>2026-05-04T08:31:04.648Z</time></trkpt><trkpt lat="42.432496" lon="18.698652"><ele>20.0</ele><time>2026-05-04T08:31:05.648Z</time></trkpt><trkpt lat="42.4325925" lon="18.698634"><ele>20.0</ele><time>2026-05-04T08:31:06.647Z</time></trkpt><trkpt lat="42.43268" lon="18.6986274"><ele>20.0</ele><time>2026-05-04T08:31:07.648Z</time></trkpt><trkpt lat="42.4327597" lon="18.6986302"><ele>20.0</ele><time>2026-05-04T08:31:08.648Z</time></trkpt><trkpt lat="42.4328323" lon="18.6986422"><ele>20.0</ele><time>2026-05-04T08:31:09.648Z</time></trkpt><trkpt lat="42.4328959" lon="18.6986508"><ele>20.0</ele><time>2026-05-04T08:31:10.648Z</time></trkpt><trkpt lat="42.4329751" lon="18.6986712"><ele>20.0</ele><time>2026-05-04T08:31:12.647Z</time></trkpt><trkpt lat="42.433046" lon="18.6986783"><ele>19.833333333333336</ele><time>2026-05-04T08:31:16.648Z</time></trkpt><trkpt lat="42.4331242" lon="18.6986878"><ele>19.666666666666668</ele><time>2026-05-04T08:31:18.648Z</time></trkpt><trkpt lat="42.4331946" lon="18.6987164"><ele>19.5</ele><time>2026-05-04T08:31:19.648Z</time></trkpt><trkpt lat="42.4332741" lon="18.6987527"><ele>19.333333333333332</ele><time>2026-05-04T08:31:20.647Z</time></trkpt><trkpt lat="42.4333685" lon="18.698801"><ele>19.166666666666664</ele><time>2026-05-04T08:31:21.648Z</time></trkpt><trkpt lat="42.4334619" lon="18.6988479"><ele>19.0</ele><time>2026-05-04T08:31:22.648Z</time></trkpt><trkpt lat="42.4335574" lon="18.698894"><ele>19.0</ele><time>2026-05-04T08:31:23.648Z</time></trkpt><trkpt lat="42.4336517" lon="18.6989404"><ele>19.0</ele><time>2026-05-04T08:31:24.647Z</time></trkpt><trkpt lat="42.4337464" lon="18.6989851"><ele>19.0</ele><time>2026-05-04T08:31:25.647Z</time></trkpt><trkpt lat="42.4338395" lon="18.6990344"><ele>19.0</ele><time>2026-05-04T08:31:26.648Z</time></trkpt><trkpt lat="42.4339348" lon="18.6990709"><ele>19.0</ele><time>2026-05-04T08:31:27.647Z</time></trkpt><trkpt lat="42.4340245" lon="18.6991062"><ele>19.5</ele><time>2026-05-04T08:31:28.648Z</time></trkpt><trkpt lat="42.4341107" lon="18.6991309"><ele>20.0</ele><time>2026-05-04T08:31:29.647Z</time></trkpt><trkpt lat="42.4341878" lon="18.6991474"><ele>20.5</ele><time>2026-05-04T08:31:30.647Z</time></trkpt><trkpt lat="42.4342659" lon="18.6991726"><ele>21.0</ele><time>2026-05-04T08:31:31.648Z</time></trkpt><trkpt lat="42.4343494" lon="18.6991779"><ele>21.5</ele><time>2026-05-04T08:31:32.647Z</time></trkpt><trkpt lat="42.434443" lon="18.699178"><ele>22.0</ele><time>2026-05-04T08:31:33.647Z</time></trkpt><trkpt lat="42.4345393" lon="18.6991849"><ele>22.0</ele><time>2026-05-04T08:31:34.647Z</time></trkpt><trkpt lat="42.4346265" lon="18.6991883"><ele>22.0</ele><time>2026-05-04T08:31:35.648Z</time></trkpt><trkpt lat="42.4347054" lon="18.6991777"><ele>22.0</ele><time>2026-05-04T08:31:36.647Z</time></trkpt><trkpt lat="42.4347829" lon="18.69917"><ele>22.0</ele><time>2026-05-04T08:31:37.648Z</time></trkpt><trkpt lat="42.4348554" lon="18.6991732"><ele>22.0</ele><time>2026-05-04T08:31:38.647Z</time></trkpt><trkpt lat="42.4349269" lon="18.6991599"><ele>22.0</ele><time>2026-05-04T08:31:39.647Z</time></trkpt><trkpt lat="42.4349943" lon="18.6991452"><ele>21.333333333333332</ele><time>2026-05-04T08:31:40.647Z</time></trkpt><trkpt lat="42.4350576" lon="18.6991291"><ele>20.666666666666664</ele><time>2026-05-04T08:31:41.648Z</time></trkpt><trkpt lat="42.4351203" lon="18.6991064"><ele>20.0</ele><time>2026-05-04T08:31:42.647Z</time></trkpt><trkpt lat="42.435245" lon="18.6990568"><ele>19.333333333333332</ele><time>2026-05-04T08:31:44.648Z</time></trkpt><trkpt lat="42.4353148" lon="18.6990243"><ele>18.666666666666668</ele><time>2026-05-04T08:31:45.648Z</time></trkpt><trkpt lat="42.4353807" lon="18.6989878"><ele>18.0</ele><time>2026-05-04T08:31:46.648Z</time></trkpt><trkpt lat="42.4354409" lon="18.69895"><ele>18.000000000000004</ele><time>2026-05-04T08:31:47.647Z</time></trkpt><trkpt lat="42.435498" lon="18.6989137"><ele>18.0</ele><time>2026-05-04T08:31:48.647Z</time></trkpt><trkpt lat="42.435553" lon="18.6988708"><ele>18.0</ele><time>2026-05-04T08:31:49.647Z</time></trkpt><trkpt lat="42.4356105" lon="18.6988228"><ele>18.0</ele><time>2026-05-04T08:31:50.648Z</time></trkpt><trkpt lat="42.4356688" lon="18.6987737"><ele>18.0</ele><time>2026-05-04T08:31:51.648Z</time></trkpt><trkpt lat="42.4357271" lon="18.6987232"><ele>18.000000000000004</ele><time>2026-05-04T08:31:52.648Z</time></trkpt><trkpt lat="42.435784" lon="18.6986652"><ele>18.0</ele><time>2026-05-04T08:31:53.647Z</time></trkpt><trkpt lat="42.4358434" lon="18.6986012"><ele>17.5</ele><time>2026-05-04T08:31:54.647Z</time></trkpt><trkpt lat="42.4359003" lon="18.698534"><ele>17.0</ele><time>2026-05-04T08:31:55.647Z</time></trkpt><trkpt lat="42.4359561" lon="18.6984613"><ele>16.5</ele><time>2026-05-04T08:31:56.648Z</time></trkpt><trkpt lat="42.4360094" lon="18.698397"><ele>16.0</ele><time>2026-05-04T08:31:57.648Z</time></trkpt><trkpt lat="42.4360683" lon="18.6983193"><ele>15.5</ele><time>2026-05-04T08:31:58.647Z</time></trkpt><trkpt lat="42.4361168" lon="18.6982446"><ele>15.0</ele><time>2026-05-04T08:31:59.648Z</time></trkpt><trkpt lat="42.4361643" lon="18.6981687"><ele>15.0</ele><time>2026-05-04T08:32:00.647Z</time></trkpt><trkpt lat="42.4362092" lon="18.69809"><ele>15.0</ele><time>2026-05-04T08:32:01.647Z</time></trkpt><trkpt lat="42.436252" lon="18.6980081"><ele>15.0</ele><time>2026-05-04T08:32:02.648Z</time></trkpt><trkpt lat="42.4362924" lon="18.6979222"><ele>15.0</ele><time>2026-05-04T08:32:03.648Z</time></trkpt><trkpt lat="42.4363336" lon="18.697832"><ele>15.0</ele><time>2026-05-04T08:32:04.647Z</time></trkpt><trkpt lat="42.4363746" lon="18.6977329"><ele>15.0</ele><time>2026-05-04T08:32:05.647Z</time></trkpt><trkpt lat="42.4364089" lon="18.6976105"><ele>14.5</ele><time>2026-05-04T08:32:06.648Z</time></trkpt><trkpt lat="42.436444" lon="18.6974978"><ele>14.0</ele><time>2026-05-04T08:32:07.648Z</time></trkpt><trkpt lat="42.4364762" lon="18.6973935"><ele>13.5</ele><time>2026-05-04T08:32:08.647Z</time></trkpt><trkpt lat="42.4365064" lon="18.6972975"><ele>13.0</ele><time>2026-05-04T08:32:09.648Z</time></trkpt><trkpt lat="42.436535" lon="18.6972036"><ele>12.5</ele><time>2026-05-04T08:32:10.648Z</time></trkpt><trkpt lat="42.4365647" lon="18.6971155"><ele>12.0</ele><time>2026-05-04T08:32:11.648Z</time></trkpt><trkpt lat="42.4365966" lon="18.6970333"><ele>12.0</ele><time>2026-05-04T08:32:12.648Z</time></trkpt><trkpt lat="42.436632" lon="18.6969481"><ele>12.0</ele><time>2026-05-04T08:32:13.647Z</time></trkpt><trkpt lat="42.4366746" lon="18.6968589"><ele>12.0</ele><time>2026-05-04T08:32:14.647Z</time></trkpt><trkpt lat="42.43673" lon="18.6967819"><ele>12.0</ele><time>2026-05-04T08:32:15.648Z</time></trkpt><trkpt lat="42.4367852" lon="18.6966887"><ele>12.0</ele><time>2026-05-04T08:32:16.647Z</time></trkpt><trkpt lat="42.4368635" lon="18.696619"><ele>12.0</ele><time>2026-05-04T08:32:17.647Z</time></trkpt><trkpt lat="42.4369414" lon="18.6965413"><ele>12.0</ele><time>2026-05-04T08:32:18.647Z</time></trkpt><trkpt lat="42.437025" lon="18.6964767"><ele>12.0</ele><time>2026-05-04T08:32:19.648Z</time></trkpt><trkpt lat="42.4371082" lon="18.6964173"><ele>12.0</ele><time>2026-05-04T08:32:20.647Z</time></trkpt><trkpt lat="42.4371991" lon="18.6963756"><ele>12.0</ele><time>2026-05-04T08:32:21.647Z</time></trkpt><trkpt lat="42.4372917" lon="18.6963375"><ele>12.0</ele><time>2026-05-04T08:32:22.648Z</time></trkpt><trkpt lat="42.4373926" lon="18.6963119"><ele>12.0</ele><time>2026-05-04T08:32:23.647Z</time></trkpt><trkpt lat="42.4374922" lon="18.6962859"><ele>12.0</ele><time>2026-05-04T08:32:24.648Z</time></trkpt><trkpt lat="42.4375985" lon="18.6962666"><ele>12.0</ele><time>2026-05-04T08:32:25.647Z</time></trkpt><trkpt lat="42.4377072" lon="18.6962528"><ele>12.0</ele><time>2026-05-04T08:32:26.648Z</time></trkpt><trkpt lat="42.4378147" lon="18.6962382"><ele>12.0</ele><time>2026-05-04T08:32:27.648Z</time></trkpt><trkpt lat="42.4379177" lon="18.6962228"><ele>12.8</ele><time>2026-05-04T08:32:28.647Z</time></trkpt><trkpt lat="42.4380182" lon="18.6961955"><ele>13.6</ele><time>2026-05-04T08:32:29.647Z</time></trkpt><trkpt lat="42.4381174" lon="18.6961613"><ele>14.400000000000002</ele><time>2026-05-04T08:32:30.648Z</time></trkpt><trkpt lat="42.4382101" lon="18.6961139"><ele>15.200000000000001</ele><time>2026-05-04T08:32:31.647Z</time></trkpt><trkpt lat="42.4382963" lon="18.6960519"><ele>16.0</ele><time>2026-05-04T08:32:32.648Z</time></trkpt><trkpt lat="42.4383857" lon="18.6959816"><ele>14.4</ele><time>2026-05-04T08:32:33.648Z</time></trkpt><trkpt lat="42.4384726" lon="18.6958964"><ele>12.8</ele><time>2026-05-04T08:32:34.648Z</time></trkpt><trkpt lat="42.4385508" lon="18.6958019"><ele>11.200000000000001</ele><time>2026-05-04T08:32:35.647Z</time></trkpt><trkpt lat="42.4386229" lon="18.6956945"><ele>9.600000000000001</ele><time>2026-05-04T08:32:36.647Z</time></trkpt><trkpt lat="42.4386851" lon="18.6955791"><ele>8.0</ele><time>2026-05-04T08:32:37.648Z</time></trkpt><trkpt lat="42.4387408" lon="18.6954553"><ele>8.0</ele><time>2026-05-04T08:32:38.647Z</time></trkpt><trkpt lat="42.4387872" lon="18.6953005"><ele>8.0</ele><time>2026-05-04T08:32:39.648Z</time></trkpt><trkpt lat="42.4388268" lon="18.6951176"><ele>8.0</ele><time>2026-05-04T08:32:40.647Z</time></trkpt><trkpt lat="42.4388698" lon="18.6949334"><ele>8.0</ele><time>2026-05-04T08:32:41.647Z</time></trkpt><trkpt lat="42.4389129" lon="18.6947598"><ele>7.800000000000001</ele><time>2026-05-04T08:32:42.648Z</time></trkpt><trkpt lat="42.4389522" lon="18.694607"><ele>7.6000000000000005</ele><time>2026-05-04T08:32:43.648Z</time></trkpt><trkpt lat="42.4389894" lon="18.6944684"><ele>7.3999999999999995</ele><time>2026-05-04T08:32:44.648Z</time></trkpt><trkpt lat="42.4390246" lon="18.6943456"><ele>7.199999999999999</ele><time>2026-05-04T08:32:45.647Z</time></trkpt><trkpt lat="42.4390626" lon="18.6942372"><ele>7.0</ele><time>2026-05-04T08:32:46.647Z</time></trkpt><trkpt lat="42.4391" lon="18.6941388"><ele>6.833333333333334</ele><time>2026-05-04T08:32:47.647Z</time></trkpt><trkpt lat="42.4391375" lon="18.6940481"><ele>6.666666666666667</ele><time>2026-05-04T08:32:48.648Z</time></trkpt><trkpt lat="42.4391823" lon="18.6939659"><ele>6.5</ele><time>2026-05-04T08:32:49.648Z</time></trkpt><trkpt lat="42.4392294" lon="18.6938796"><ele>6.333333333333334</ele><time>2026-05-04T08:32:50.647Z</time></trkpt><trkpt lat="42.4392793" lon="18.693797"><ele>6.166666666666667</ele><time>2026-05-04T08:32:51.648Z</time></trkpt><trkpt lat="42.439332" lon="18.6937236"><ele>6.0</ele><time>2026-05-04T08:32:52.647Z</time></trkpt><trkpt lat="42.4393884" lon="18.6936516"><ele>5.8</ele><time>2026-05-04T08:32:53.648Z</time></trkpt><trkpt lat="42.4394485" lon="18.6935705"><ele>5.6</ele><time>2026-05-04T08:32:54.647Z</time></trkpt><trkpt lat="42.4395089" lon="18.6934739"><ele>5.4</ele><time>2026-05-04T08:32:55.647Z</time></trkpt><trkpt lat="42.4395744" lon="18.6933784"><ele>5.2</ele><time>2026-05-04T08:32:56.648Z</time></trkpt><trkpt lat="42.4396621" lon="18.6933291"><ele>5.0</ele><time>2026-05-04T08:32:57.647Z</time></trkpt><trkpt lat="42.4397285" lon="18.6932233"><ele>5.0</ele><time>2026-05-04T08:32:58.647Z</time></trkpt><trkpt lat="42.4398089" lon="18.6931065"><ele>5.0</ele><time>2026-05-04T08:32:59.647Z</time></trkpt><trkpt lat="42.4399076" lon="18.692971"><ele>5.0</ele><time>2026-05-04T08:33:00.647Z</time></trkpt><trkpt lat="42.4400138" lon="18.6928394"><ele>5.0</ele><time>2026-05-04T08:33:01.648Z</time></trkpt><trkpt lat="42.4401252" lon="18.6927094"><ele>4.75</ele><time>2026-05-04T08:33:02.648Z</time></trkpt><trkpt lat="42.4402394" lon="18.6925785"><ele>4.5</ele><time>2026-05-04T08:33:03.647Z</time></trkpt><trkpt lat="42.4403451" lon="18.6924629"><ele>4.25</ele><time>2026-05-04T08:33:04.648Z</time></trkpt><trkpt lat="42.4404433" lon="18.6923449"><ele>4.0</ele><time>2026-05-04T08:33:05.647Z</time></trkpt><trkpt lat="42.4405308" lon="18.6922289"><ele>4.2</ele><time>2026-05-04T08:33:06.648Z</time></trkpt><trkpt lat="42.4406163" lon="18.6921252"><ele>4.4</ele><time>2026-05-04T08:33:07.648Z</time></trkpt><trkpt lat="42.4407" lon="18.6920284"><ele>4.6</ele><time>2026-05-04T08:33:08.647Z</time></trkpt><trkpt lat="42.4407834" lon="18.6919279"><ele>4.8</ele><time>2026-05-04T08:33:09.648Z</time></trkpt><trkpt lat="42.4408669" lon="18.6918303"><ele>5.0</ele><time>2026-05-04T08:33:10.647Z</time></trkpt><trkpt lat="42.4409529" lon="18.6917383"><ele>5.0</ele><time>2026-05-04T08:33:11.648Z</time></trkpt><trkpt lat="42.4410342" lon="18.6916455"><ele>5.0</ele><time>2026-05-04T08:33:12.647Z</time></trkpt><trkpt lat="42.4411136" lon="18.6915518"><ele>5.0</ele><time>2026-05-04T08:33:13.648Z</time></trkpt><trkpt lat="42.4411858" lon="18.6914528"><ele>5.0</ele><time>2026-05-04T08:33:14.647Z</time></trkpt><trkpt lat="42.4412601" lon="18.6913582"><ele>5.0</ele><time>2026-05-04T08:33:15.647Z</time></trkpt><trkpt lat="42.4413335" lon="18.6912697"><ele>5.166666666666667</ele><time>2026-05-04T08:33:16.648Z</time></trkpt><trkpt lat="42.4413954" lon="18.691194"><ele>5.333333333333334</ele><time>2026-05-04T08:33:17.647Z</time></trkpt><trkpt lat="42.4414578" lon="18.6911165"><ele>5.5</ele><time>2026-05-04T08:33:18.648Z</time></trkpt><trkpt lat="42.4415158" lon="18.6910435"><ele>5.666666666666667</ele><time>2026-05-04T08:33:19.648Z</time></trkpt><trkpt lat="42.4415773" lon="18.6909744"><ele>5.833333333333333</ele><time>2026-05-04T08:33:20.647Z</time></trkpt><trkpt lat="42.441639" lon="18.6908982"><ele>6.0</ele><time>2026-05-04T08:33:21.648Z</time></trkpt><trkpt lat="42.4416989" lon="18.690826"><ele>6.199999999999999</ele><time>2026-05-04T08:33:22.648Z</time></trkpt><trkpt lat="42.4417573" lon="18.6907554"><ele>6.3999999999999995</ele><time>2026-05-04T08:33:23.648Z</time></trkpt><trkpt lat="42.4418201" lon="18.6906685"><ele>6.6</ele><time>2026-05-04T08:33:24.647Z</time></trkpt><trkpt lat="42.441887" lon="18.6905826"><ele>6.8</ele><time>2026-05-04T08:33:25.647Z</time></trkpt><trkpt lat="42.441973" lon="18.6904679"><ele>7.0</ele><time>2026-05-04T08:33:26.648Z</time></trkpt><trkpt lat="42.4420788" lon="18.6903456"><ele>7.333333333333334</ele><time>2026-05-04T08:33:27.648Z</time></trkpt><trkpt lat="42.442201" lon="18.6902125"><ele>7.666666666666666</ele><time>2026-05-04T08:33:28.648Z</time></trkpt><trkpt lat="42.4423312" lon="18.6900775"><ele>8.0</ele><time>2026-05-04T08:33:29.648Z</time></trkpt><trkpt lat="42.442458" lon="18.6899405"><ele>8.0</ele><time>2026-05-04T08:33:30.647Z</time></trkpt><trkpt lat="42.4425856" lon="18.6898165"><ele>8.0</ele><time>2026-05-04T08:33:31.648Z</time></trkpt><trkpt lat="42.4427118" lon="18.6896995"><ele>8.0</ele><time>2026-05-04T08:33:32.648Z</time></trkpt><trkpt lat="42.4428406" lon="18.6895899"><ele>7.666666666666666</ele><time>2026-05-04T08:33:33.647Z</time></trkpt><trkpt lat="42.4429747" lon="18.6894851"><ele>7.333333333333334</ele><time>2026-05-04T08:33:34.647Z</time></trkpt><trkpt lat="42.4431041" lon="18.6893837"><ele>7.0</ele><time>2026-05-04T08:33:35.647Z</time></trkpt><trkpt lat="42.4432365" lon="18.6892876"><ele>7.0</ele><time>2026-05-04T08:33:36.647Z</time></trkpt><trkpt lat="42.4433707" lon="18.6892006"><ele>7.0</ele><time>2026-05-04T08:33:37.648Z</time></trkpt><trkpt lat="42.4435027" lon="18.6891327"><ele>7.0</ele><time>2026-05-04T08:33:38.647Z</time></trkpt><trkpt lat="42.4436346" lon="18.6890613"><ele>7.0</ele><time>2026-05-04T08:33:39.647Z</time></trkpt><trkpt lat="42.4437662" lon="18.6889973"><ele>7.0</ele><time>2026-05-04T08:33:40.648Z</time></trkpt><trkpt lat="42.4438948" lon="18.6889373"><ele>7.0</ele><time>2026-05-04T08:33:41.648Z</time></trkpt><trkpt lat="42.4440211" lon="18.6888881"><ele>7.0</ele><time>2026-05-04T08:33:42.647Z</time></trkpt><trkpt lat="42.4441415" lon="18.6888449"><ele>7.0</ele><time>2026-05-04T08:33:43.647Z</time></trkpt><trkpt lat="42.4442525" lon="18.68881"><ele>7.000000000000001</ele><time>2026-05-04T08:33:44.647Z</time></trkpt><trkpt lat="42.4443577" lon="18.6887643"><ele>7.0</ele><time>2026-05-04T08:33:45.647Z</time></trkpt><trkpt lat="42.444442" lon="18.6887235"><ele>7.0</ele><time>2026-05-04T08:33:46.648Z</time></trkpt><trkpt lat="42.4445146" lon="18.6887023"><ele>7.0</ele><time>2026-05-04T08:33:47.648Z</time></trkpt><trkpt lat="42.4445748" lon="18.6886767"><ele>7.000000000000001</ele><time>2026-05-04T08:33:48.647Z</time></trkpt><trkpt lat="42.4446396" lon="18.6886467"><ele>7.0</ele><time>2026-05-04T08:33:49.648Z</time></trkpt><trkpt lat="42.4447157" lon="18.6886265"><ele>7.0</ele><time>2026-05-04T08:33:50.648Z</time></trkpt><trkpt lat="42.4447966" lon="18.6886155"><ele>6.999999999999999</ele><time>2026-05-04T08:33:51.648Z</time></trkpt><trkpt lat="42.4448661" lon="18.6886138"><ele>6.999999999999999</ele><time>2026-05-04T08:33:52.647Z</time></trkpt><trkpt lat="42.4449724" lon="18.6886012"><ele>7.0</ele><time>2026-05-04T08:33:54.648Z</time></trkpt><trkpt lat="42.4450953" lon="18.6885778"><ele>7.0</ele><time>2026-05-04T08:33:56.647Z</time></trkpt><trkpt lat="42.4451795" lon="18.6885575"><ele>6.8</ele><time>2026-05-04T08:33:57.648Z</time></trkpt><trkpt lat="42.4452764" lon="18.6885399"><ele>6.6</ele><time>2026-05-04T08:33:58.647Z</time></trkpt><trkpt lat="42.4453858" lon="18.6885185"><ele>6.3999999999999995</ele><time>2026-05-04T08:33:59.647Z</time></trkpt><trkpt lat="42.4455001" lon="18.6884923"><ele>6.199999999999999</ele><time>2026-05-04T08:34:00.648Z</time></trkpt><trkpt lat="42.4456188" lon="18.688464"><ele>6.0</ele><time>2026-05-04T08:34:01.648Z</time></trkpt><trkpt lat="42.4457378" lon="18.6884346"><ele>6.0</ele><time>2026-05-04T08:34:02.648Z</time></trkpt><trkpt lat="42.4458611" lon="18.6884026"><ele>6.0</ele><time>2026-05-04T08:34:03.647Z</time></trkpt><trkpt lat="42.4459836" lon="18.6883701"><ele>6.0</ele><time>2026-05-04T08:34:04.647Z</time></trkpt><trkpt lat="42.4461085" lon="18.6883337"><ele>6.0</ele><time>2026-05-04T08:34:05.647Z</time></trkpt><trkpt lat="42.4462308" lon="18.688287"><ele>6.0</ele><time>2026-05-04T08:34:06.647Z</time></trkpt><trkpt lat="42.4463546" lon="18.68823"><ele>6.0</ele><time>2026-05-04T08:34:07.648Z</time></trkpt><trkpt lat="42.4464808" lon="18.6881635"><ele>6.0</ele><time>2026-05-04T08:34:08.647Z</time></trkpt><trkpt lat="42.4466089" lon="18.6880863"><ele>6.0</ele><time>2026-05-04T08:34:09.647Z</time></trkpt><trkpt lat="42.446732" lon="18.6880012"><ele>6.0</ele><time>2026-05-04T08:34:10.648Z</time></trkpt><trkpt lat="42.4468493" lon="18.6879097"><ele>6.0</ele><time>2026-05-04T08:34:11.647Z</time></trkpt><trkpt lat="42.4469634" lon="18.6878165"><ele>6.0</ele><time>2026-05-04T08:34:12.647Z</time></trkpt><trkpt lat="42.4470743" lon="18.6877189"><ele>6.0</ele><time>2026-05-04T08:34:13.647Z</time></trkpt><trkpt lat="42.4471821" lon="18.6876208"><ele>6.0</ele><time>2026-05-04T08:34:14.647Z</time></trkpt><trkpt lat="42.4472841" lon="18.6875217"><ele>6.0</ele><time>2026-05-04T08:34:15.648Z</time></trkpt><trkpt lat="42.4473833" lon="18.6874129"><ele>6.0</ele><time>2026-05-04T08:34:16.648Z</time></trkpt><trkpt lat="42.4474773" lon="18.6873259"><ele>6.0</ele><time>2026-05-04T08:34:17.647Z</time></trkpt><trkpt lat="42.4475649" lon="18.6872453"><ele>6.0</ele><time>2026-05-04T08:34:18.647Z</time></trkpt><trkpt lat="42.4476482" lon="18.68718"><ele>6.0</ele><time>2026-05-04T08:34:19.648Z</time></trkpt><trkpt lat="42.4477253" lon="18.6871445"><ele>6.0</ele><time>2026-05-04T08:34:20.647Z</time></trkpt><trkpt lat="42.4478044" lon="18.687095"><ele>6.0</ele><time>2026-05-04T08:34:21.647Z</time></trkpt><trkpt lat="42.4478752" lon="18.6870632"><ele>6.0</ele><time>2026-05-04T08:34:22.648Z</time></trkpt><trkpt lat="42.4479599" lon="18.6870178"><ele>6.0</ele><time>2026-05-04T08:34:23.648Z</time></trkpt><trkpt lat="42.4480535" lon="18.6869654"><ele>6.0</ele><time>2026-05-04T08:34:24.648Z</time></trkpt><trkpt lat="42.4481604" lon="18.6869129"><ele>6.0</ele><time>2026-05-04T08:34:25.647Z</time></trkpt><trkpt lat="42.4482744" lon="18.6868585"><ele>6.0</ele><time>2026-05-04T08:34:26.647Z</time></trkpt><trkpt lat="42.4483983" lon="18.6868143"><ele>6.0</ele><time>2026-05-04T08:34:27.648Z</time></trkpt><trkpt lat="42.4485218" lon="18.6867644"><ele>6.0</ele><time>2026-05-04T08:34:28.647Z</time></trkpt><trkpt lat="42.4486436" lon="18.6867021"><ele>6.0</ele><time>2026-05-04T08:34:29.647Z</time></trkpt><trkpt lat="42.448762" lon="18.6866291"><ele>6.0</ele><time>2026-05-04T08:34:30.648Z</time></trkpt><trkpt lat="42.4488786" lon="18.6865427"><ele>6.0</ele><time>2026-05-04T08:34:31.647Z</time></trkpt><trkpt lat="42.4489951" lon="18.6864406"><ele>6.0</ele><time>2026-05-04T08:34:32.647Z</time></trkpt><trkpt lat="42.4491044" lon="18.6863366"><ele>6.0</ele><time>2026-05-04T08:34:33.648Z</time></trkpt><trkpt lat="42.4492077" lon="18.686227"><ele>6.0</ele><time>2026-05-04T08:34:34.648Z</time></trkpt><trkpt lat="42.4493115" lon="18.6861141"><ele>6.0</ele><time>2026-05-04T08:34:35.647Z</time></trkpt><trkpt lat="42.4494116" lon="18.686006"><ele>6.0</ele><time>2026-05-04T08:34:36.647Z</time></trkpt><trkpt lat="42.4495081" lon="18.685897"><ele>6.0</ele><time>2026-05-04T08:34:37.647Z</time></trkpt><trkpt lat="42.4496028" lon="18.6857892"><ele>6.0</ele><time>2026-05-04T08:34:38.647Z</time></trkpt><trkpt lat="42.4496971" lon="18.6856849"><ele>6.0</ele><time>2026-05-04T08:34:39.647Z</time></trkpt><trkpt lat="42.4497896" lon="18.6855807"><ele>5.75</ele><time>2026-05-04T08:34:40.647Z</time></trkpt><trkpt lat="42.4498883" lon="18.6854713"><ele>5.5</ele><time>2026-05-04T08:34:41.648Z</time></trkpt><trkpt lat="42.4499878" lon="18.6853747"><ele>5.25</ele><time>2026-05-04T08:34:42.648Z</time></trkpt><trkpt lat="42.4500914" lon="18.6852861"><ele>5.0</ele><time>2026-05-04T08:34:43.647Z</time></trkpt><trkpt lat="42.4502126" lon="18.6851871"><ele>5.0</ele><time>2026-05-04T08:34:44.647Z</time></trkpt><trkpt lat="42.4503304" lon="18.6851125"><ele>5.0</ele><time>2026-05-04T08:34:45.648Z</time></trkpt><trkpt lat="42.4504595" lon="18.6850477"><ele>5.0</ele><time>2026-05-04T08:34:46.648Z</time></trkpt><trkpt lat="42.4505889" lon="18.6850035"><ele>5.0</ele><time>2026-05-04T08:34:47.648Z</time></trkpt><trkpt lat="42.4507234" lon="18.6849841"><ele>6.5</ele><time>2026-05-04T08:34:48.647Z</time></trkpt><trkpt lat="42.450859" lon="18.6849619"><ele>8.0</ele><time>2026-05-04T08:34:49.648Z</time></trkpt><trkpt lat="42.4509973" lon="18.6849399"><ele>9.5</ele><time>2026-05-04T08:34:50.647Z</time></trkpt><trkpt lat="42.4511377" lon="18.6849202"><ele>11.0</ele><time>2026-05-04T08:34:51.648Z</time></trkpt><trkpt lat="42.4512785" lon="18.684889"><ele>12.0</ele><time>2026-05-04T08:34:52.647Z</time></trkpt><trkpt lat="42.451421" lon="18.6848494"><ele>13.0</ele><time>2026-05-04T08:34:53.648Z</time></trkpt><trkpt lat="42.451552" lon="18.6848094"><ele>14.0</ele><time>2026-05-04T08:34:54.647Z</time></trkpt><trkpt lat="42.4516775" lon="18.684764"><ele>15.0</ele><time>2026-05-04T08:34:55.648Z</time></trkpt><trkpt lat="42.4517905" lon="18.6847186"><ele>15.0</ele><time>2026-05-04T08:34:56.648Z</time></trkpt><trkpt lat="42.4518946" lon="18.6846789"><ele>15.0</ele><time>2026-05-04T08:34:57.648Z</time></trkpt><trkpt lat="42.4519712" lon="18.6846511"><ele>15.0</ele><time>2026-05-04T08:34:58.647Z</time></trkpt><trkpt lat="42.4520319" lon="18.6846275"><ele>15.0</ele><time>2026-05-04T08:34:59.648Z</time></trkpt><trkpt lat="42.4521125" lon="18.6845712"><ele>15.0</ele><time>2026-05-04T08:35:01.648Z</time></trkpt><trkpt lat="42.452153" lon="18.6844914"><ele>15.0</ele><time>2026-05-04T08:35:04.647Z</time></trkpt><trkpt lat="42.4522281" lon="18.684507"><ele>13.6</ele><time>2026-05-04T08:43:36.668Z</time></trkpt><trkpt lat="42.4523517" lon="18.6844956"><ele>12.2</ele><time>2026-05-04T08:43:38.668Z</time></trkpt><trkpt lat="42.4524259" lon="18.6844693"><ele>10.8</ele><time>2026-05-04T08:43:39.668Z</time></trkpt><trkpt lat="42.452507" lon="18.6844415"><ele>9.4</ele><time>2026-05-04T08:43:40.667Z</time></trkpt><trkpt lat="42.4525945" lon="18.6844124"><ele>8.0</ele><time>2026-05-04T08:43:41.668Z</time></trkpt><trkpt lat="42.4526833" lon="18.6843696"><ele>8.0</ele><time>2026-05-04T08:43:42.668Z</time></trkpt><trkpt lat="42.4527741" lon="18.6843298"><ele>8.0</ele><time>2026-05-04T08:43:43.667Z</time></trkpt><trkpt lat="42.4528696" lon="18.6842969"><ele>8.0</ele><time>2026-05-04T08:43:44.667Z</time></trkpt><trkpt lat="42.4529633" lon="18.6842656"><ele>8.0</ele><time>2026-05-04T08:43:45.668Z</time></trkpt><trkpt lat="42.453053" lon="18.6842341"><ele>8.0</ele><time>2026-05-04T08:43:46.665Z</time></trkpt><trkpt lat="42.4531421" lon="18.6842013"><ele>8.833333333333332</ele><time>2026-05-04T08:43:47.667Z</time></trkpt><trkpt lat="42.453225" lon="18.6841647"><ele>9.666666666666666</ele><time>2026-05-04T08:43:48.667Z</time></trkpt><trkpt lat="42.453312" lon="18.6841535"><ele>10.5</ele><time>2026-05-04T08:43:49.667Z</time></trkpt><trkpt lat="42.4533965" lon="18.6841293"><ele>11.333333333333332</ele><time>2026-05-04T08:43:50.667Z</time></trkpt><trkpt lat="42.4534779" lon="18.684086"><ele>12.166666666666666</ele><time>2026-05-04T08:43:51.667Z</time></trkpt><trkpt lat="42.4535655" lon="18.6840468"><ele>13.0</ele><time>2026-05-04T08:43:52.667Z</time></trkpt><trkpt lat="42.453649" lon="18.6840006"><ele>13.0</ele><time>2026-05-04T08:43:53.667Z</time></trkpt><trkpt lat="42.4537375" lon="18.683962"><ele>13.0</ele><time>2026-05-04T08:43:54.667Z</time></trkpt><trkpt lat="42.4538441" lon="18.6839159"><ele>13.0</ele><time>2026-05-04T08:43:55.668Z</time></trkpt><trkpt lat="42.4539478" lon="18.6838655"><ele>13.0</ele><time>2026-05-04T08:43:56.667Z</time></trkpt><trkpt lat="42.4540659" lon="18.6837864"><ele>13.0</ele><time>2026-05-04T08:43:57.668Z</time></trkpt><trkpt lat="42.4541864" lon="18.6837015"><ele>9.0</ele><time>2026-05-04T08:43:58.667Z</time></trkpt><trkpt lat="42.4543134" lon="18.6835872"><ele>5.0</ele><time>2026-05-04T08:43:59.668Z</time></trkpt><trkpt lat="42.4544525" lon="18.6834506"><ele>1.0</ele><time>2026-05-04T08:44:00.668Z</time></trkpt><trkpt lat="42.4545887" lon="18.6832838"><ele>1.6666666666666665</ele><time>2026-05-04T08:44:01.668Z</time></trkpt><trkpt lat="42.4547179" lon="18.6830937"><ele>2.3333333333333335</ele><time>2026-05-04T08:44:02.667Z</time></trkpt><trkpt lat="42.4548413" lon="18.6829181"><ele>3.0</ele><time>2026-05-04T08:44:03.668Z</time></trkpt><trkpt lat="42.4549541" lon="18.6827401"><ele>3.0</ele><time>2026-05-04T08:44:04.668Z</time></trkpt><trkpt lat="42.4550629" lon="18.6825695"><ele>3.0</ele><time>2026-05-04T08:44:05.667Z</time></trkpt><trkpt lat="42.4551619" lon="18.6824106"><ele>3.0</ele><time>2026-05-04T08:44:06.667Z</time></trkpt><trkpt lat="42.4552592" lon="18.6822616"><ele>3.0</ele><time>2026-05-04T08:44:07.668Z</time></trkpt><trkpt lat="42.455363" lon="18.6821274"><ele>3.0</ele><time>2026-05-04T08:44:08.667Z</time></trkpt><trkpt lat="42.4554712" lon="18.6820112"><ele>3.0</ele><time>2026-05-04T08:44:09.667Z</time></trkpt><trkpt lat="42.455584" lon="18.6819093"><ele>3.0</ele><time>2026-05-04T08:44:10.668Z</time></trkpt><trkpt lat="42.4557053" lon="18.681828"><ele>3.5</ele><time>2026-05-04T08:44:11.668Z</time></trkpt><trkpt lat="42.4558196" lon="18.6817599"><ele>4.0</ele><time>2026-05-04T08:44:12.667Z</time></trkpt><trkpt lat="42.4559405" lon="18.681709"><ele>4.5</ele><time>2026-05-04T08:44:13.667Z</time></trkpt><trkpt lat="42.4560645" lon="18.6816699"><ele>5.0</ele><time>2026-05-04T08:44:14.667Z</time></trkpt><trkpt lat="42.4561912" lon="18.6816408"><ele>3.75</ele><time>2026-05-04T08:44:15.667Z</time></trkpt><trkpt lat="42.4563206" lon="18.6816416"><ele>2.5</ele><time>2026-05-04T08:44:16.668Z</time></trkpt><trkpt lat="42.456445" lon="18.6816513"><ele>1.25</ele><time>2026-05-04T08:44:17.667Z</time></trkpt><trkpt lat="42.4565831" lon="18.6816832"><ele>0.0</ele><time>2026-05-04T08:44:18.668Z</time></trkpt><trkpt lat="42.4567331" lon="18.6817275"><ele>0.0</ele><time>2026-05-04T08:44:19.668Z</time></trkpt><trkpt lat="42.4568786" lon="18.6817811"><ele>0.0</ele><time>2026-05-04T08:44:20.667Z</time></trkpt><trkpt lat="42.4570243" lon="18.6818342"><ele>0.0</ele><time>2026-05-04T08:44:21.667Z</time></trkpt><trkpt lat="42.4571736" lon="18.6818815"><ele>2.25</ele><time>2026-05-04T08:44:22.668Z</time></trkpt><trkpt lat="42.4573151" lon="18.6818999"><ele>4.5</ele><time>2026-05-04T08:44:23.667Z</time></trkpt><trkpt lat="42.4574495" lon="18.6818742"><ele>6.75</ele><time>2026-05-04T08:44:24.667Z</time></trkpt><trkpt lat="42.457581" lon="18.6818161"><ele>9.0</ele><time>2026-05-04T08:44:25.668Z</time></trkpt><trkpt lat="42.457699" lon="18.6817347"><ele>9.0</ele><time>2026-05-04T08:44:26.667Z</time></trkpt><trkpt lat="42.4578098" lon="18.6816434"><ele>9.0</ele><time>2026-05-04T08:44:27.667Z</time></trkpt><trkpt lat="42.4579136" lon="18.6815602"><ele>9.0</ele><time>2026-05-04T08:44:28.667Z</time></trkpt><trkpt lat="42.4580183" lon="18.6815056"><ele>9.0</ele><time>2026-05-04T08:44:29.668Z</time></trkpt><trkpt lat="42.4581395" lon="18.681498"><ele>10.5</ele><time>2026-05-04T08:44:30.667Z</time></trkpt><trkpt lat="42.4582668" lon="18.6815068"><ele>12.0</ele><time>2026-05-04T08:44:31.668Z</time></trkpt><trkpt lat="42.4584051" lon="18.6815374"><ele>13.5</ele><time>2026-05-04T08:44:32.667Z</time></trkpt><trkpt lat="42.4585395" lon="18.6815725"><ele>15.0</ele><time>2026-05-04T08:44:33.668Z</time></trkpt><trkpt lat="42.4586802" lon="18.6816099"><ele>12.75</ele><time>2026-05-04T08:44:34.667Z</time></trkpt><trkpt lat="42.4588186" lon="18.6816518"><ele>10.5</ele><time>2026-05-04T08:44:35.668Z</time></trkpt><trkpt lat="42.4589597" lon="18.681689"><ele>8.25</ele><time>2026-05-04T08:44:36.667Z</time></trkpt><trkpt lat="42.4590962" lon="18.6817529"><ele>6.0</ele><time>2026-05-04T08:44:37.668Z</time></trkpt><trkpt lat="42.4592257" lon="18.6818413"><ele>6.0</ele><time>2026-05-04T08:44:38.666Z</time></trkpt><trkpt lat="42.4593483" lon="18.6819297"><ele>6.0</ele><time>2026-05-04T08:44:39.667Z</time></trkpt><trkpt lat="42.4594641" lon="18.6820359"><ele>6.0</ele><time>2026-05-04T08:44:40.667Z</time></trkpt><trkpt lat="42.4595758" lon="18.6821531"><ele>6.0</ele><time>2026-05-04T08:44:41.668Z</time></trkpt><trkpt lat="42.4596857" lon="18.682283"><ele>4.0</ele><time>2026-05-04T08:44:42.668Z</time></trkpt><trkpt lat="42.4597959" lon="18.682418"><ele>2.0</ele><time>2026-05-04T08:44:43.667Z</time></trkpt><trkpt lat="42.4599179" lon="18.6825676"><ele>0.0</ele><time>2026-05-04T08:44:44.668Z</time></trkpt><trkpt lat="42.4600352" lon="18.6827037"><ele>3.0</ele><time>2026-05-04T08:44:45.667Z</time></trkpt><trkpt lat="42.4601559" lon="18.6828486"><ele>6.0</ele><time>2026-05-04T08:44:46.668Z</time></trkpt><trkpt lat="42.4602629" lon="18.6829867"><ele>9.0</ele><time>2026-05-04T08:44:47.668Z</time></trkpt><trkpt lat="42.4603622" lon="18.6831219"><ele>7.25</ele><time>2026-05-04T08:44:48.668Z</time></trkpt><trkpt lat="42.4604669" lon="18.6832397"><ele>5.5</ele><time>2026-05-04T08:44:49.668Z</time></trkpt><trkpt lat="42.4605802" lon="18.6833374"><ele>3.75</ele><time>2026-05-04T08:44:50.668Z</time></trkpt><trkpt lat="42.4606963" lon="18.6834221"><ele>2.0</ele><time>2026-05-04T08:44:51.667Z</time></trkpt><trkpt lat="42.4608198" lon="18.6834767"><ele>2.0</ele><time>2026-05-04T08:44:52.668Z</time></trkpt><trkpt lat="42.4609547" lon="18.6835141"><ele>2.0</ele><time>2026-05-04T08:44:53.667Z</time></trkpt><trkpt lat="42.4610926" lon="18.6835058"><ele>2.0</ele><time>2026-05-04T08:44:54.668Z</time></trkpt><trkpt lat="42.461226" lon="18.6834699"><ele>2.0</ele><time>2026-05-04T08:44:55.667Z</time></trkpt><trkpt lat="42.4613535" lon="18.6833727"><ele>6.75</ele><time>2026-05-04T08:44:56.667Z</time></trkpt><trkpt lat="42.461478" lon="18.6832688"><ele>11.5</ele><time>2026-05-04T08:44:57.668Z</time></trkpt><trkpt lat="42.4615981" lon="18.6831442"><ele>16.25</ele><time>2026-05-04T08:44:58.668Z</time></trkpt><trkpt lat="42.4617119" lon="18.6830114"><ele>21.0</ele><time>2026-05-04T08:44:59.668Z</time></trkpt><trkpt lat="42.4618243" lon="18.6829116"><ele>21.0</ele><time>2026-05-04T08:45:00.667Z</time></trkpt><trkpt lat="42.4619282" lon="18.6828146"><ele>21.0</ele><time>2026-05-04T08:45:01.667Z</time></trkpt><trkpt lat="42.4620324" lon="18.6827423"><ele>21.0</ele><time>2026-05-04T08:45:02.667Z</time></trkpt><trkpt lat="42.4621457" lon="18.6827101"><ele>21.0</ele><time>2026-05-04T08:45:03.668Z</time></trkpt><trkpt lat="42.4622634" lon="18.6827072"><ele>19.5</ele><time>2026-05-04T08:45:04.667Z</time></trkpt><trkpt lat="42.4623832" lon="18.6827376"><ele>18.0</ele><time>2026-05-04T08:45:05.668Z</time></trkpt><trkpt lat="42.4624966" lon="18.682796"><ele>16.5</ele><time>2026-05-04T08:45:06.668Z</time></trkpt><trkpt lat="42.4626168" lon="18.6828866"><ele>15.0</ele><time>2026-05-04T08:45:07.668Z</time></trkpt><trkpt lat="42.4627216" lon="18.6829973"><ele>15.0</ele><time>2026-05-04T08:45:08.668Z</time></trkpt><trkpt lat="42.462832" lon="18.6831036"><ele>15.0</ele><time>2026-05-04T08:45:09.667Z</time></trkpt><trkpt lat="42.462953" lon="18.6831967"><ele>15.0</ele><time>2026-05-04T08:45:10.668Z</time></trkpt><trkpt lat="42.46308" lon="18.6832601"><ele>15.0</ele><time>2026-05-04T08:45:11.668Z</time></trkpt><trkpt lat="42.4632135" lon="18.6833048"><ele>12.75</ele><time>2026-05-04T08:45:12.668Z</time></trkpt><trkpt lat="42.4633487" lon="18.6833334"><ele>10.5</ele><time>2026-05-04T08:45:13.667Z</time></trkpt><trkpt lat="42.4634816" lon="18.6833563"><ele>8.25</ele><time>2026-05-04T08:45:14.668Z</time></trkpt><trkpt lat="42.4636235" lon="18.6833747"><ele>6.0</ele><time>2026-05-04T08:45:15.667Z</time></trkpt><trkpt lat="42.4637571" lon="18.683399"><ele>5.25</ele><time>2026-05-04T08:45:16.667Z</time></trkpt><trkpt lat="42.4638916" lon="18.6834347"><ele>4.5</ele><time>2026-05-04T08:45:17.667Z</time></trkpt><trkpt lat="42.4640238" lon="18.6834856"><ele>3.75</ele><time>2026-05-04T08:45:18.668Z</time></trkpt><trkpt lat="42.4641475" lon="18.6835626"><ele>3.0</ele><time>2026-05-04T08:45:19.668Z</time></trkpt><trkpt lat="42.4642633" lon="18.6836496"><ele>3.0</ele><time>2026-05-04T08:45:20.668Z</time></trkpt><trkpt lat="42.4643662" lon="18.6837591"><ele>3.0</ele><time>2026-05-04T08:45:21.668Z</time></trkpt><trkpt lat="42.4644362" lon="18.6839093"><ele>3.0</ele><time>2026-05-04T08:45:22.667Z</time></trkpt><trkpt lat="42.4645119" lon="18.6840609"><ele>3.0</ele><time>2026-05-04T08:45:23.668Z</time></trkpt><trkpt lat="42.4645777" lon="18.684199"><ele>2.75</ele><time>2026-05-04T08:45:24.668Z</time></trkpt><trkpt lat="42.4646527" lon="18.6843536"><ele>2.5</ele><time>2026-05-04T08:45:25.667Z</time></trkpt><trkpt lat="42.4647184" lon="18.6844889"><ele>2.25</ele><time>2026-05-04T08:45:26.667Z</time></trkpt><trkpt lat="42.464785" lon="18.6846285"><ele>2.0</ele><time>2026-05-04T08:45:27.668Z</time></trkpt><trkpt lat="42.4648452" lon="18.6847633"><ele>2.4000000000000004</ele><time>2026-05-04T08:45:28.668Z</time></trkpt><trkpt lat="42.4649029" lon="18.6848845"><ele>2.8000000000000003</ele><time>2026-05-04T08:45:29.667Z</time></trkpt><trkpt lat="42.4649586" lon="18.6849982"><ele>3.2</ele><time>2026-05-04T08:45:30.667Z</time></trkpt><trkpt lat="42.4650131" lon="18.6851145"><ele>3.6</ele><time>2026-05-04T08:45:31.668Z</time></trkpt><trkpt lat="42.4650759" lon="18.6852218"><ele>4.0</ele><time>2026-05-04T08:45:32.668Z</time></trkpt><trkpt lat="42.4651294" lon="18.6853218"><ele>4.285714285714286</ele><time>2026-05-04T08:45:33.666Z</time></trkpt><trkpt lat="42.4651647" lon="18.68542"><ele>4.571428571428571</ele><time>2026-05-04T08:45:34.668Z</time></trkpt><trkpt lat="42.4652085" lon="18.6855032"><ele>4.857142857142857</ele><time>2026-05-04T08:45:35.668Z</time></trkpt><trkpt lat="42.4652493" lon="18.6855696"><ele>5.142857142857142</ele><time>2026-05-04T08:45:36.668Z</time></trkpt><trkpt lat="42.4652898" lon="18.6856724"><ele>5.428571428571429</ele><time>2026-05-04T08:45:38.668Z</time></trkpt><trkpt lat="42.4653228" lon="18.6857452"><ele>5.7142857142857135</ele><time>2026-05-04T08:45:40.667Z</time></trkpt><trkpt lat="42.4653567" lon="18.6858237"><ele>6.0</ele><time>2026-05-04T08:45:43.668Z</time></trkpt><trkpt lat="42.4654129" lon="18.68591"><ele>6.75</ele><time>2026-05-04T08:45:46.667Z</time></trkpt><trkpt lat="42.4655344" lon="18.6861173"><ele>7.5</ele><time>2026-05-04T08:45:48.667Z</time></trkpt><trkpt lat="42.4655912" lon="18.6862374"><ele>8.25</ele><time>2026-05-04T08:45:49.667Z</time></trkpt><trkpt lat="42.4656436" lon="18.686346"><ele>9.0</ele><time>2026-05-04T08:45:50.667Z</time></trkpt><trkpt lat="42.4657144" lon="18.6864178"><ele>9.0</ele><time>2026-05-04T08:45:51.668Z</time></trkpt><trkpt lat="42.4657973" lon="18.6864623"><ele>9.0</ele><time>2026-05-04T08:45:52.668Z</time></trkpt><trkpt lat="42.4658769" lon="18.6864913"><ele>9.0</ele><time>2026-05-04T08:45:53.666Z</time></trkpt><trkpt lat="42.4659481" lon="18.6864986"><ele>9.0</ele><time>2026-05-04T08:45:55.667Z</time></trkpt><trkpt lat="42.4660824" lon="18.6864983"><ele>9.0</ele><time>2026-05-04T08:45:57.667Z</time></trkpt><trkpt lat="42.4661636" lon="18.6864955"><ele>9.0</ele><time>2026-05-04T08:45:58.666Z</time></trkpt><trkpt lat="42.466248" lon="18.6864934"><ele>9.0</ele><time>2026-05-04T08:45:59.668Z</time></trkpt><trkpt lat="42.4663228" lon="18.6864607"><ele>9.0</ele><time>2026-05-04T08:46:00.667Z</time></trkpt><trkpt lat="42.4664083" lon="18.6864247"><ele>9.0</ele><time>2026-05-04T08:46:01.668Z</time></trkpt><trkpt lat="42.4665222" lon="18.6863917"><ele>9.0</ele><time>2026-05-04T08:46:02.667Z</time></trkpt><trkpt lat="42.4666279" lon="18.6863958"><ele>9.5</ele><time>2026-05-04T08:46:03.667Z</time></trkpt><trkpt lat="42.4667446" lon="18.6863971"><ele>10.0</ele><time>2026-05-04T08:46:04.666Z</time></trkpt><trkpt lat="42.4668469" lon="18.6863869"><ele>10.5</ele><time>2026-05-04T08:46:05.668Z</time></trkpt><trkpt lat="42.4669282" lon="18.6863999"><ele>11.0</ele><time>2026-05-04T08:46:06.667Z</time></trkpt><trkpt lat="42.466996" lon="18.6864052"><ele>11.5</ele><time>2026-05-04T08:46:07.668Z</time></trkpt><trkpt lat="42.4670661" lon="18.6864039"><ele>12.0</ele><time>2026-05-04T08:46:09.667Z</time></trkpt><trkpt lat="42.4671449" lon="18.6863974"><ele>12.333333333333334</ele><time>2026-05-04T08:46:15.668Z</time></trkpt><trkpt lat="42.4672347" lon="18.6863313"><ele>12.666666666666668</ele><time>2026-05-04T08:46:17.668Z</time></trkpt><trkpt lat="42.4672958" lon="18.6863031"><ele>13.0</ele><time>2026-05-04T08:46:18.668Z</time></trkpt><trkpt lat="42.4673591" lon="18.6862584"><ele>13.333333333333334</ele><time>2026-05-04T08:46:19.667Z</time></trkpt><trkpt lat="42.4674105" lon="18.6862076"><ele>13.666666666666668</ele><time>2026-05-04T08:46:20.667Z</time></trkpt><trkpt lat="42.467469" lon="18.6861354"><ele>14.0</ele><time>2026-05-04T08:46:21.668Z</time></trkpt><trkpt lat="42.4675194" lon="18.6860572"><ele>11.666666666666668</ele><time>2026-05-04T08:46:22.667Z</time></trkpt><trkpt lat="42.4675659" lon="18.6859719"><ele>9.333333333333334</ele><time>2026-05-04T08:46:23.667Z</time></trkpt><trkpt lat="42.4676085" lon="18.6858966"><ele>7.0</ele><time>2026-05-04T08:46:24.667Z</time></trkpt><trkpt lat="42.4676523" lon="18.6858193"><ele>4.666666666666667</ele><time>2026-05-04T08:46:25.668Z</time></trkpt><trkpt lat="42.4676872" lon="18.6857474"><ele>2.3333333333333335</ele><time>2026-05-04T08:46:26.667Z</time></trkpt><trkpt lat="42.4677294" lon="18.6856795"><ele>0.0</ele><time>2026-05-04T08:46:27.668Z</time></trkpt><trkpt lat="42.4678239" lon="18.6855615"><ele>0.0</ele><time>2026-05-04T08:46:29.668Z</time></trkpt><trkpt lat="42.4679335" lon="18.6854955"><ele>0.0</ele><time>2026-05-04T08:46:31.667Z</time></trkpt><trkpt lat="42.4680141" lon="18.6855047"><ele>0.0</ele><time>2026-05-04T08:46:32.668Z</time></trkpt><trkpt lat="42.4681033" lon="18.6855231"><ele>0.0</ele><time>2026-05-04T08:46:33.668Z</time></trkpt><trkpt lat="42.4681993" lon="18.6855644"><ele>0.0</ele><time>2026-05-04T08:46:34.667Z</time></trkpt><trkpt lat="42.4682925" lon="18.6856151"><ele>1.2</ele><time>2026-05-04T08:46:35.668Z</time></trkpt><trkpt lat="42.4683875" lon="18.685665"><ele>2.4</ele><time>2026-05-04T08:46:36.667Z</time></trkpt><trkpt lat="42.4684769" lon="18.685721"><ele>3.5999999999999996</ele><time>2026-05-04T08:46:37.667Z</time></trkpt><trkpt lat="42.4685615" lon="18.6857646"><ele>4.8</ele><time>2026-05-04T08:46:38.667Z</time></trkpt><trkpt lat="42.4686396" lon="18.6858202"><ele>6.0</ele><time>2026-05-04T08:46:39.668Z</time></trkpt><trkpt lat="42.4687048" lon="18.6858585"><ele>6.0</ele><time>2026-05-04T08:46:40.668Z</time></trkpt><trkpt lat="42.468771" lon="18.6858954"><ele>6.0</ele><time>2026-05-04T08:46:41.667Z</time></trkpt><trkpt lat="42.4688895" lon="18.6859566"><ele>6.0</ele><time>2026-05-04T08:46:43.666Z</time></trkpt><trkpt lat="42.4689511" lon="18.6859794"><ele>6.0</ele><time>2026-05-04T08:46:44.668Z</time></trkpt><trkpt lat="42.4690133" lon="18.6859946"><ele>6.0</ele><time>2026-05-04T08:46:45.667Z</time></trkpt><trkpt lat="42.4690874" lon="18.6859946"><ele>6.0</ele><time>2026-05-04T08:46:46.667Z</time></trkpt><trkpt lat="42.4691623" lon="18.6859979"><ele>5.666666666666667</ele><time>2026-05-04T08:46:47.668Z</time></trkpt><trkpt lat="42.469235" lon="18.6860029"><ele>5.333333333333333</ele><time>2026-05-04T08:46:48.667Z</time></trkpt><trkpt lat="42.4693051" lon="18.6860183"><ele>5.0</ele><time>2026-05-04T08:46:49.667Z</time></trkpt><trkpt lat="42.4693725" lon="18.6860426"><ele>4.666666666666666</ele><time>2026-05-04T08:46:50.667Z</time></trkpt><trkpt lat="42.4694751" lon="18.6861403"><ele>4.333333333333333</ele><time>2026-05-04T08:46:52.667Z</time></trkpt><trkpt lat="42.4695291" lon="18.6862374"><ele>4.0</ele><time>2026-05-04T08:46:53.667Z</time></trkpt><trkpt lat="42.4695818" lon="18.6863115"><ele>5.0</ele><time>2026-05-04T08:46:54.668Z</time></trkpt><trkpt lat="42.4696468" lon="18.6863814"><ele>6.0</ele><time>2026-05-04T08:46:55.668Z</time></trkpt><trkpt lat="42.4697284" lon="18.6864422"><ele>7.0</ele><time>2026-05-04T08:46:56.667Z</time></trkpt><trkpt lat="42.46982" lon="18.6865013"><ele>8.0</ele><time>2026-05-04T08:46:57.668Z</time></trkpt><trkpt lat="42.4699172" lon="18.6865525"><ele>9.0</ele><time>2026-05-04T08:46:58.668Z</time></trkpt><trkpt lat="42.4700139" lon="18.6866092"><ele>9.0</ele><time>2026-05-04T08:46:59.668Z</time></trkpt><trkpt lat="42.4701145" lon="18.6866637"><ele>9.0</ele><time>2026-05-04T08:47:00.667Z</time></trkpt><trkpt lat="42.4702262" lon="18.6867219"><ele>9.0</ele><time>2026-05-04T08:47:01.667Z</time></trkpt><trkpt lat="42.4703282" lon="18.6867637"><ele>9.0</ele><time>2026-05-04T08:47:02.668Z</time></trkpt><trkpt lat="42.4704438" lon="18.6868095"><ele>10.25</ele><time>2026-05-04T08:47:03.667Z</time></trkpt><trkpt lat="42.4705605" lon="18.6868593"><ele>11.5</ele><time>2026-05-04T08:47:04.668Z</time></trkpt><trkpt lat="42.4706756" lon="18.6868929"><ele>12.75</ele><time>2026-05-04T08:47:05.667Z</time></trkpt><trkpt lat="42.4707967" lon="18.6869054"><ele>14.0</ele><time>2026-05-04T08:47:06.667Z</time></trkpt><trkpt lat="42.4709227" lon="18.6868935"><ele>14.0</ele><time>2026-05-04T08:47:07.668Z</time></trkpt><trkpt lat="42.4710512" lon="18.6868733"><ele>14.0</ele><time>2026-05-04T08:47:08.668Z</time></trkpt><trkpt lat="42.4711683" lon="18.6868372"><ele>14.0</ele><time>2026-05-04T08:47:09.668Z</time></trkpt><trkpt lat="42.4712996" lon="18.6868146"><ele>14.0</ele><time>2026-05-04T08:47:10.668Z</time></trkpt><trkpt lat="42.4714296" lon="18.686794"><ele>14.25</ele><time>2026-05-04T08:47:11.668Z</time></trkpt><trkpt lat="42.4715627" lon="18.6867786"><ele>14.5</ele><time>2026-05-04T08:47:12.668Z</time></trkpt><trkpt lat="42.4716972" lon="18.686767"><ele>14.75</ele><time>2026-05-04T08:47:13.668Z</time></trkpt><trkpt lat="42.4718379" lon="18.6867467"><ele>15.0</ele><time>2026-05-04T08:47:14.667Z</time></trkpt><trkpt lat="42.4719633" lon="18.6867101"><ele>15.0</ele><time>2026-05-04T08:47:15.668Z</time></trkpt><trkpt lat="42.4720878" lon="18.6866635"><ele>15.0</ele><time>2026-05-04T08:47:16.667Z</time></trkpt><trkpt lat="42.4722069" lon="18.6866183"><ele>15.0</ele><time>2026-05-04T08:47:17.668Z</time></trkpt><trkpt lat="42.4723176" lon="18.6865795"><ele>15.0</ele><time>2026-05-04T08:47:18.668Z</time></trkpt><trkpt lat="42.4724331" lon="18.6865408"><ele>17.25</ele><time>2026-05-04T08:47:19.667Z</time></trkpt><trkpt lat="42.4725513" lon="18.6865186"><ele>19.5</ele><time>2026-05-04T08:47:20.667Z</time></trkpt><trkpt lat="42.472668" lon="18.6864967"><ele>21.75</ele><time>2026-05-04T08:47:21.668Z</time></trkpt><trkpt lat="42.4727752" lon="18.6864681"><ele>24.0</ele><time>2026-05-04T08:47:22.668Z</time></trkpt><trkpt lat="42.4728783" lon="18.6864493"><ele>21.4</ele><time>2026-05-04T08:47:23.668Z</time></trkpt><trkpt lat="42.4729795" lon="18.6864289"><ele>18.799999999999997</ele><time>2026-05-04T08:47:24.668Z</time></trkpt><trkpt lat="42.4730705" lon="18.6864337"><ele>16.2</ele><time>2026-05-04T08:47:25.667Z</time></trkpt><trkpt lat="42.4731585" lon="18.6864551"><ele>13.600000000000001</ele><time>2026-05-04T08:47:26.667Z</time></trkpt><trkpt lat="42.4732505" lon="18.6864949"><ele>11.0</ele><time>2026-05-04T08:47:27.668Z</time></trkpt><trkpt lat="42.4733338" lon="18.6865456"><ele>11.0</ele><time>2026-05-04T08:47:28.667Z</time></trkpt><trkpt lat="42.4734329" lon="18.6866406"><ele>11.0</ele><time>2026-05-04T08:47:29.667Z</time></trkpt><trkpt lat="42.4735243" lon="18.6867216"><ele>11.0</ele><time>2026-05-04T08:47:30.667Z</time></trkpt><trkpt lat="42.4736231" lon="18.6868101"><ele>11.0</ele><time>2026-05-04T08:47:31.667Z</time></trkpt><trkpt lat="42.473721" lon="18.6868923"><ele>12.25</ele><time>2026-05-04T08:47:32.668Z</time></trkpt><trkpt lat="42.4738159" lon="18.6869672"><ele>13.5</ele><time>2026-05-04T08:47:33.668Z</time></trkpt><trkpt lat="42.4739154" lon="18.6870528"><ele>14.75</ele><time>2026-05-04T08:47:34.668Z</time></trkpt><trkpt lat="42.474019" lon="18.6871591"><ele>16.0</ele><time>2026-05-04T08:47:35.667Z</time></trkpt><trkpt lat="42.474109" lon="18.6872706"><ele>16.0</ele><time>2026-05-04T08:47:36.668Z</time></trkpt><trkpt lat="42.4741951" lon="18.687382"><ele>16.0</ele><time>2026-05-04T08:47:37.668Z</time></trkpt><trkpt lat="42.4742916" lon="18.687498"><ele>16.0</ele><time>2026-05-04T08:47:38.667Z</time></trkpt><trkpt lat="42.4743792" lon="18.6876249"><ele>16.0</ele><time>2026-05-04T08:47:39.667Z</time></trkpt><trkpt lat="42.4744769" lon="18.6877228"><ele>14.600000000000001</ele><time>2026-05-04T08:47:40.666Z</time></trkpt><trkpt lat="42.4745655" lon="18.687803"><ele>13.200000000000001</ele><time>2026-05-04T08:47:41.668Z</time></trkpt><trkpt lat="42.474647" lon="18.6878845"><ele>11.8</ele><time>2026-05-04T08:47:42.667Z</time></trkpt><trkpt lat="42.4747056" lon="18.6879763"><ele>10.4</ele><time>2026-05-04T08:47:43.665Z</time></trkpt><trkpt lat="42.4747453" lon="18.6880809"><ele>9.0</ele><time>2026-05-04T08:47:44.668Z</time></trkpt><trkpt lat="42.4747782" lon="18.6881889"><ele>9.0</ele><time>2026-05-04T08:47:45.667Z</time></trkpt><trkpt lat="42.4748043" lon="18.6882983"><ele>9.0</ele><time>2026-05-04T08:47:46.667Z</time></trkpt><trkpt lat="42.4748334" lon="18.6884091"><ele>9.0</ele><time>2026-05-04T08:47:47.668Z</time></trkpt><trkpt lat="42.4748725" lon="18.6885104"><ele>9.0</ele><time>2026-05-04T08:47:48.668Z</time></trkpt><trkpt lat="42.4749241" lon="18.6886006"><ele>9.0</ele><time>2026-05-04T08:47:49.668Z</time></trkpt><trkpt lat="42.4750048" lon="18.6886676"><ele>9.0</ele><time>2026-05-04T08:47:50.668Z</time></trkpt><trkpt lat="42.4750934" lon="18.6887351"><ele>8.0</ele><time>2026-05-04T08:47:51.667Z</time></trkpt><trkpt lat="42.4751907" lon="18.6888187"><ele>7.0</ele><time>2026-05-04T08:47:52.667Z</time></trkpt><trkpt lat="42.4752864" lon="18.6888991"><ele>6.0</ele><time>2026-05-04T08:47:53.668Z</time></trkpt><trkpt lat="42.475398" lon="18.6889841"><ele>5.0</ele><time>2026-05-04T08:47:54.667Z</time></trkpt><trkpt lat="42.4755104" lon="18.6890713"><ele>5.0</ele><time>2026-05-04T08:47:55.667Z</time></trkpt><trkpt lat="42.4756175" lon="18.6891499"><ele>5.0</ele><time>2026-05-04T08:47:56.667Z</time></trkpt><trkpt lat="42.4757257" lon="18.6892398"><ele>5.0</ele><time>2026-05-04T08:47:57.668Z</time></trkpt><trkpt lat="42.4758403" lon="18.6893238"><ele>5.0</ele><time>2026-05-04T08:47:58.668Z</time></trkpt><trkpt lat="42.4759526" lon="18.6894087"><ele>7.2</ele><time>2026-05-04T08:47:59.667Z</time></trkpt><trkpt lat="42.4760536" lon="18.6894905"><ele>9.4</ele><time>2026-05-04T08:48:00.667Z</time></trkpt><trkpt lat="42.4761546" lon="18.6895612"><ele>11.600000000000001</ele><time>2026-05-04T08:48:01.668Z</time></trkpt><trkpt lat="42.4762514" lon="18.6896305"><ele>13.8</ele><time>2026-05-04T08:48:02.667Z</time></trkpt><trkpt lat="42.4763401" lon="18.6897095"><ele>16.0</ele><time>2026-05-04T08:48:03.668Z</time></trkpt><trkpt lat="42.4764261" lon="18.6897583"><ele>16.0</ele><time>2026-05-04T08:48:04.667Z</time></trkpt><trkpt lat="42.4765211" lon="18.6898127"><ele>16.0</ele><time>2026-05-04T08:48:05.668Z</time></trkpt><trkpt lat="42.4766176" lon="18.6898701"><ele>16.0</ele><time>2026-05-04T08:48:06.668Z</time></trkpt><trkpt lat="42.4767127" lon="18.6899195"><ele>16.0</ele><time>2026-05-04T08:48:07.668Z</time></trkpt><trkpt lat="42.4767984" lon="18.6899689"><ele>16.0</ele><time>2026-05-04T08:48:08.667Z</time></trkpt><trkpt lat="42.4768837" lon="18.6900096"><ele>15.999999999999998</ele><time>2026-05-04T08:48:09.668Z</time></trkpt><trkpt lat="42.476961" lon="18.6900549"><ele>16.0</ele><time>2026-05-04T08:48:10.668Z</time></trkpt><trkpt lat="42.4770286" lon="18.6901023"><ele>16.0</ele><time>2026-05-04T08:48:11.668Z</time></trkpt><trkpt lat="42.4770893" lon="18.6901554"><ele>16.0</ele><time>2026-05-04T08:48:12.667Z</time></trkpt><trkpt lat="42.4771761" lon="18.6902757"><ele>15.999999999999998</ele><time>2026-05-04T08:48:14.667Z</time></trkpt><trkpt lat="42.4772049" lon="18.6903659"><ele>16.0</ele><time>2026-05-04T08:48:15.667Z</time></trkpt><trkpt lat="42.4772284" lon="18.6904663"><ele>14.999999999999998</ele><time>2026-05-04T08:48:16.667Z</time></trkpt><trkpt lat="42.4772472" lon="18.6905851"><ele>14.0</ele><time>2026-05-04T08:48:17.668Z</time></trkpt><trkpt lat="42.4772528" lon="18.6907019"><ele>13.0</ele><time>2026-05-04T08:48:18.667Z</time></trkpt><trkpt lat="42.4772489" lon="18.690818"><ele>12.0</ele><time>2026-05-04T08:48:19.668Z</time></trkpt><trkpt lat="42.4772321" lon="18.6909395"><ele>11.0</ele><time>2026-05-04T08:48:20.668Z</time></trkpt><trkpt lat="42.4772115" lon="18.6910667"><ele>10.0</ele><time>2026-05-04T08:48:21.668Z</time></trkpt><trkpt lat="42.4771906" lon="18.6912028"><ele>9.2</ele><time>2026-05-04T08:48:22.667Z</time></trkpt><trkpt lat="42.4771634" lon="18.6913507"><ele>8.4</ele><time>2026-05-04T08:48:23.667Z</time></trkpt><trkpt lat="42.477138" lon="18.6915007"><ele>7.6</ele><time>2026-05-04T08:48:24.668Z</time></trkpt><trkpt lat="42.4771133" lon="18.6916472"><ele>6.8</ele><time>2026-05-04T08:48:25.668Z</time></trkpt><trkpt lat="42.4770883" lon="18.6917844"><ele>6.0</ele><time>2026-05-04T08:48:26.667Z</time></trkpt><trkpt lat="42.4770608" lon="18.6919181"><ele>12.2</ele><time>2026-05-04T08:48:27.667Z</time></trkpt><trkpt lat="42.477033" lon="18.6920456"><ele>18.4</ele><time>2026-05-04T08:48:28.668Z</time></trkpt><trkpt lat="42.4770063" lon="18.6921631"><ele>24.6</ele><time>2026-05-04T08:48:29.668Z</time></trkpt><trkpt lat="42.4769724" lon="18.6922903"><ele>30.8</ele><time>2026-05-04T08:48:30.667Z</time></trkpt><trkpt lat="42.4769402" lon="18.6924257"><ele>37.0</ele><time>2026-05-04T08:48:31.668Z</time></trkpt><trkpt lat="42.4769052" lon="18.692561"><ele>37.0</ele><time>2026-05-04T08:48:32.667Z</time></trkpt><trkpt lat="42.4768694" lon="18.6927047"><ele>37.0</ele><time>2026-05-04T08:48:33.667Z</time></trkpt><trkpt lat="42.4768253" lon="18.692855"><ele>37.0</ele><time>2026-05-04T08:48:34.668Z</time></trkpt><trkpt lat="42.4767854" lon="18.6930002"><ele>37.0</ele><time>2026-05-04T08:48:35.668Z</time></trkpt><trkpt lat="42.4767464" lon="18.6931566"><ele>34.25</ele><time>2026-05-04T08:48:36.667Z</time></trkpt><trkpt lat="42.4767053" lon="18.6933106"><ele>31.5</ele><time>2026-05-04T08:48:37.667Z</time></trkpt><trkpt lat="42.4766677" lon="18.6934687"><ele>28.75</ele><time>2026-05-04T08:48:38.668Z</time></trkpt><trkpt lat="42.476625" lon="18.6936272"><ele>26.0</ele><time>2026-05-04T08:48:39.668Z</time></trkpt><trkpt lat="42.4765833" lon="18.6937899"><ele>23.5</ele><time>2026-05-04T08:48:40.667Z</time></trkpt><trkpt lat="42.4765432" lon="18.693941"><ele>21.0</ele><time>2026-05-04T08:48:41.667Z</time></trkpt><trkpt lat="42.4765035" lon="18.6940903"><ele>18.5</ele><time>2026-05-04T08:48:42.668Z</time></trkpt><trkpt lat="42.4764638" lon="18.6942353"><ele>16.0</ele><time>2026-05-04T08:48:43.666Z</time></trkpt><trkpt lat="42.4764248" lon="18.6943792"><ele>13.5</ele><time>2026-05-04T08:48:44.667Z</time></trkpt><trkpt lat="42.4763837" lon="18.6945228"><ele>11.0</ele><time>2026-05-04T08:48:45.667Z</time></trkpt><trkpt lat="42.4763443" lon="18.6946754"><ele>8.5</ele><time>2026-05-04T08:48:46.668Z</time></trkpt><trkpt lat="42.4763046" lon="18.6948184"><ele>6.0</ele><time>2026-05-04T08:48:47.667Z</time></trkpt><trkpt lat="42.4762655" lon="18.6949629"><ele>9.399999999999999</ele><time>2026-05-04T08:48:48.667Z</time></trkpt><trkpt lat="42.4762209" lon="18.695109"><ele>12.799999999999999</ele><time>2026-05-04T08:48:49.668Z</time></trkpt><trkpt lat="42.4761739" lon="18.6952323"><ele>16.2</ele><time>2026-05-04T08:48:50.668Z</time></trkpt><trkpt lat="42.4761279" lon="18.6953703"><ele>19.599999999999998</ele><time>2026-05-04T08:48:51.667Z</time></trkpt><trkpt lat="42.4760775" lon="18.6955125"><ele>23.0</ele><time>2026-05-04T08:48:52.668Z</time></trkpt><trkpt lat="42.4760267" lon="18.6956496"><ele>23.0</ele><time>2026-05-04T08:48:53.667Z</time></trkpt><trkpt lat="42.4759747" lon="18.6957955"><ele>23.0</ele><time>2026-05-04T08:48:54.668Z</time></trkpt><trkpt lat="42.4759217" lon="18.6959339"><ele>23.0</ele><time>2026-05-04T08:48:55.667Z</time></trkpt><trkpt lat="42.4758747" lon="18.696073"><ele>23.0</ele><time>2026-05-04T08:48:56.667Z</time></trkpt><trkpt lat="42.475836" lon="18.6962039"><ele>21.4</ele><time>2026-05-04T08:48:57.668Z</time></trkpt><trkpt lat="42.4757987" lon="18.696339"><ele>19.799999999999997</ele><time>2026-05-04T08:48:58.668Z</time></trkpt><trkpt lat="42.4757722" lon="18.6964753"><ele>18.2</ele><time>2026-05-04T08:48:59.668Z</time></trkpt><trkpt lat="42.4757491" lon="18.6966141"><ele>16.6</ele><time>2026-05-04T08:49:00.668Z</time></trkpt><trkpt lat="42.4757322" lon="18.6967367"><ele>15.0</ele><time>2026-05-04T08:49:01.668Z</time></trkpt><trkpt lat="42.475715" lon="18.696892"><ele>13.714285714285715</ele><time>2026-05-04T08:49:02.667Z</time></trkpt><trkpt lat="42.4757145" lon="18.6970076"><ele>12.428571428571427</ele><time>2026-05-04T08:49:03.668Z</time></trkpt><trkpt lat="42.4757164" lon="18.6971111"><ele>11.142857142857142</ele><time>2026-05-04T08:49:04.668Z</time></trkpt><trkpt lat="42.4757206" lon="18.6972095"><ele>9.857142857142858</ele><time>2026-05-04T08:49:05.668Z</time></trkpt><trkpt lat="42.4757275" lon="18.6973078"><ele>8.571428571428571</ele><time>2026-05-04T08:49:06.668Z</time></trkpt><trkpt lat="42.4757396" lon="18.6974029"><ele>7.285714285714285</ele><time>2026-05-04T08:49:07.667Z</time></trkpt><trkpt lat="42.4757454" lon="18.6974953"><ele>6.0</ele><time>2026-05-04T08:49:08.667Z</time></trkpt><trkpt lat="42.4757503" lon="18.6976071"><ele>6.0</ele><time>2026-05-04T08:49:09.668Z</time></trkpt><trkpt lat="42.4757557" lon="18.6977122"><ele>6.0</ele><time>2026-05-04T08:49:10.666Z</time></trkpt><trkpt lat="42.4757456" lon="18.6978431"><ele>6.0</ele><time>2026-05-04T08:49:11.668Z</time></trkpt><trkpt lat="42.4757311" lon="18.6979534"><ele>6.0</ele><time>2026-05-04T08:49:12.667Z</time></trkpt><trkpt lat="42.4757081" lon="18.6980671"><ele>6.0</ele><time>2026-05-04T08:49:13.667Z</time></trkpt><trkpt lat="42.475676" lon="18.6981742"><ele>6.0</ele><time>2026-05-04T08:49:14.668Z</time></trkpt><trkpt lat="42.4756407" lon="18.6982674"><ele>6.166666666666667</ele><time>2026-05-04T08:49:15.668Z</time></trkpt><trkpt lat="42.4755956" lon="18.69835"><ele>6.333333333333334</ele><time>2026-05-04T08:49:16.666Z</time></trkpt><trkpt lat="42.4755441" lon="18.6984291"><ele>6.5</ele><time>2026-05-04T08:49:17.667Z</time></trkpt><trkpt lat="42.4754817" lon="18.6985059"><ele>6.666666666666667</ele><time>2026-05-04T08:49:18.668Z</time></trkpt><trkpt lat="42.4754186" lon="18.6985808"><ele>6.833333333333334</ele><time>2026-05-04T08:49:19.667Z</time></trkpt><trkpt lat="42.4753544" lon="18.698656"><ele>7.0</ele><time>2026-05-04T08:49:20.668Z</time></trkpt><trkpt lat="42.4752891" lon="18.6987337"><ele>7.000000000000001</ele><time>2026-05-04T08:49:21.668Z</time></trkpt><trkpt lat="42.4752248" lon="18.6988325"><ele>7.0</ele><time>2026-05-04T08:49:22.667Z</time></trkpt><trkpt lat="42.4751704" lon="18.698907"><ele>7.0</ele><time>2026-05-04T08:49:23.667Z</time></trkpt><trkpt lat="42.4751206" lon="18.6989814"><ele>7.0</ele><time>2026-05-04T08:49:24.667Z</time></trkpt><trkpt lat="42.4750778" lon="18.6990567"><ele>7.000000000000001</ele><time>2026-05-04T08:49:25.667Z</time></trkpt><trkpt lat="42.4750486" lon="18.6991413"><ele>7.0</ele><time>2026-05-04T08:49:26.667Z</time></trkpt><trkpt lat="42.4750234" lon="18.6992964"><ele>6.199999999999999</ele><time>2026-05-04T08:49:28.667Z</time></trkpt><trkpt lat="42.474984" lon="18.6994695"><ele>5.3999999999999995</ele><time>2026-05-04T08:49:30.668Z</time></trkpt><trkpt lat="42.4749567" lon="18.699554"><ele>4.6</ele><time>2026-05-04T08:49:31.668Z</time></trkpt><trkpt lat="42.4748819" lon="18.699708"><ele>3.8</ele><time>2026-05-04T08:49:33.667Z</time></trkpt><trkpt lat="42.474838" lon="18.6997888"><ele>3.0</ele><time>2026-05-04T08:49:34.668Z</time></trkpt><trkpt lat="42.4747947" lon="18.6998665"><ele>3.0</ele><time>2026-05-04T08:49:35.668Z</time></trkpt><trkpt lat="42.4747585" lon="18.6999524"><ele>3.0</ele><time>2026-05-04T08:49:36.668Z</time></trkpt><trkpt lat="42.4747212" lon="18.7000539"><ele>3.0</ele><time>2026-05-04T08:49:37.667Z</time></trkpt><trkpt lat="42.4747011" lon="18.7001529"><ele>3.0</ele><time>2026-05-04T08:49:38.668Z</time></trkpt><trkpt lat="42.4746914" lon="18.7002504"><ele>3.0</ele><time>2026-05-04T08:49:39.668Z</time></trkpt><trkpt lat="42.474689" lon="18.7003783"><ele>3.0</ele><time>2026-05-04T08:49:40.668Z</time></trkpt><trkpt lat="42.4747" lon="18.7005024"><ele>2.6666666666666665</ele><time>2026-05-04T08:49:41.668Z</time></trkpt><trkpt lat="42.4747099" lon="18.7006158"><ele>2.3333333333333335</ele><time>2026-05-04T08:49:42.668Z</time></trkpt><trkpt lat="42.4747166" lon="18.7007249"><ele>2.0</ele><time>2026-05-04T08:49:43.668Z</time></trkpt><trkpt lat="42.474721" lon="18.7008164"><ele>1.6666666666666665</ele><time>2026-05-04T08:49:44.668Z</time></trkpt><trkpt lat="42.4747172" lon="18.7009022"><ele>1.3333333333333333</ele><time>2026-05-04T08:49:45.668Z</time></trkpt><trkpt lat="42.4746661" lon="18.7010569"><ele>1.0</ele><time>2026-05-04T08:49:47.667Z</time></trkpt><trkpt lat="42.47462" lon="18.7011227"><ele>1.6666666666666665</ele><time>2026-05-04T08:49:48.668Z</time></trkpt><trkpt lat="42.4745649" lon="18.7011935"><ele>2.3333333333333335</ele><time>2026-05-04T08:49:49.667Z</time></trkpt><trkpt lat="42.474517" lon="18.7012572"><ele>3.0</ele><time>2026-05-04T08:49:50.667Z</time></trkpt><trkpt lat="42.4744626" lon="18.7013275"><ele>3.666666666666667</ele><time>2026-05-04T08:49:51.668Z</time></trkpt><trkpt lat="42.4744105" lon="18.7013988"><ele>4.333333333333334</ele><time>2026-05-04T08:49:52.667Z</time></trkpt><trkpt lat="42.4743506" lon="18.7014741"><ele>5.0</ele><time>2026-05-04T08:49:53.668Z</time></trkpt><trkpt lat="42.4742861" lon="18.7015437"><ele>5.0</ele><time>2026-05-04T08:49:54.668Z</time></trkpt><trkpt lat="42.4742214" lon="18.7016067"><ele>5.0</ele><time>2026-05-04T08:49:55.667Z</time></trkpt><trkpt lat="42.4741488" lon="18.7016639"><ele>5.0</ele><time>2026-05-04T08:49:56.667Z</time></trkpt><trkpt lat="42.4740738" lon="18.7017131"><ele>5.0</ele><time>2026-05-04T08:49:57.667Z</time></trkpt><trkpt lat="42.4739941" lon="18.7017622"><ele>5.0</ele><time>2026-05-04T08:49:58.667Z</time></trkpt><trkpt lat="42.4739174" lon="18.7018087"><ele>5.0</ele><time>2026-05-04T08:49:59.666Z</time></trkpt><trkpt lat="42.4738436" lon="18.7018553"><ele>5.833333333333334</ele><time>2026-05-04T08:50:00.668Z</time></trkpt><trkpt lat="42.4737709" lon="18.7019194"><ele>6.666666666666667</ele><time>2026-05-04T08:50:01.667Z</time></trkpt><trkpt lat="42.4737097" lon="18.7019976"><ele>7.5</ele><time>2026-05-04T08:50:02.666Z</time></trkpt><trkpt lat="42.4736589" lon="18.702088"><ele>8.333333333333334</ele><time>2026-05-04T08:50:03.666Z</time></trkpt><trkpt lat="42.473614" lon="18.7021846"><ele>9.166666666666668</ele><time>2026-05-04T08:50:04.667Z</time></trkpt><trkpt lat="42.4735719" lon="18.7022788"><ele>10.0</ele><time>2026-05-04T08:50:05.668Z</time></trkpt><trkpt lat="42.4735441" lon="18.7023766"><ele>10.0</ele><time>2026-05-04T08:50:06.668Z</time></trkpt><trkpt lat="42.4735209" lon="18.7024803"><ele>10.0</ele><time>2026-05-04T08:50:07.667Z</time></trkpt><trkpt lat="42.4735027" lon="18.7025893"><ele>10.0</ele><time>2026-05-04T08:50:08.667Z</time></trkpt><trkpt lat="42.4734862" lon="18.7026935"><ele>10.0</ele><time>2026-05-04T08:50:09.667Z</time></trkpt><trkpt lat="42.4734724" lon="18.7027947"><ele>10.0</ele><time>2026-05-04T08:50:10.667Z</time></trkpt><trkpt lat="42.4734625" lon="18.7028968"><ele>10.0</ele><time>2026-05-04T08:50:11.668Z</time></trkpt><trkpt lat="42.4734483" lon="18.7029876"><ele>9.0</ele><time>2026-05-04T08:50:12.668Z</time></trkpt><trkpt lat="42.4734321" lon="18.7031491"><ele>8.0</ele><time>2026-05-04T08:50:14.667Z</time></trkpt><trkpt lat="42.4734131" lon="18.7032341"><ele>7.0</ele><time>2026-05-04T08:50:15.667Z</time></trkpt><trkpt lat="42.4733817" lon="18.7033873"><ele>6.0</ele><time>2026-05-04T08:50:17.667Z</time></trkpt><trkpt lat="42.4733598" lon="18.7034705"><ele>5.0</ele><time>2026-05-04T08:50:18.666Z</time></trkpt><trkpt lat="42.4733127" lon="18.7035974"><ele>4.2</ele><time>2026-05-04T08:50:20.667Z</time></trkpt><trkpt lat="42.4732442" lon="18.7037353"><ele>3.4</ele><time>2026-05-04T08:50:22.667Z</time></trkpt><trkpt lat="42.473203" lon="18.7038234"><ele>2.6</ele><time>2026-05-04T08:50:23.667Z</time></trkpt><trkpt lat="42.4731566" lon="18.7039179"><ele>1.8</ele><time>2026-05-04T08:50:24.667Z</time></trkpt><trkpt lat="42.4731102" lon="18.7040178"><ele>1.0</ele><time>2026-05-04T08:50:25.667Z</time></trkpt><trkpt lat="42.4730676" lon="18.7041105"><ele>0.9999999999999999</ele><time>2026-05-04T08:50:26.668Z</time></trkpt><trkpt lat="42.473028" lon="18.7041947"><ele>1.0</ele><time>2026-05-04T08:50:27.667Z</time></trkpt><trkpt lat="42.4729807" lon="18.7042752"><ele>1.0</ele><time>2026-05-04T08:50:28.667Z</time></trkpt><trkpt lat="42.4729167" lon="18.7043508"><ele>1.0</ele><time>2026-05-04T08:50:29.668Z</time></trkpt><trkpt lat="42.4728513" lon="18.7044101"><ele>0.9999999999999999</ele><time>2026-05-04T08:50:30.667Z</time></trkpt><trkpt lat="42.4727793" lon="18.7044659"><ele>1.0</ele><time>2026-05-04T08:50:31.668Z</time></trkpt><trkpt lat="42.4727026" lon="18.7045163"><ele>1.8333333333333333</ele><time>2026-05-04T08:50:32.667Z</time></trkpt><trkpt lat="42.4726203" lon="18.7045457"><ele>2.6666666666666665</ele><time>2026-05-04T08:50:33.668Z</time></trkpt><trkpt lat="42.472538" lon="18.7045692"><ele>3.5</ele><time>2026-05-04T08:50:34.667Z</time></trkpt><trkpt lat="42.4724659" lon="18.7046047"><ele>4.333333333333333</ele><time>2026-05-04T08:50:35.668Z</time></trkpt><trkpt lat="42.4723944" lon="18.7046535"><ele>5.166666666666667</ele><time>2026-05-04T08:50:36.668Z</time></trkpt><trkpt lat="42.4723267" lon="18.7047056"><ele>6.0</ele><time>2026-05-04T08:50:37.668Z</time></trkpt><trkpt lat="42.4722589" lon="18.7047663"><ele>6.0</ele><time>2026-05-04T08:50:38.666Z</time></trkpt><trkpt lat="42.4721969" lon="18.7048468"><ele>6.0</ele><time>2026-05-04T08:50:39.667Z</time></trkpt><trkpt lat="42.4721475" lon="18.7049434"><ele>6.0</ele><time>2026-05-04T08:50:40.668Z</time></trkpt><trkpt lat="42.4721049" lon="18.7050373"><ele>6.0</ele><time>2026-05-04T08:50:41.667Z</time></trkpt><trkpt lat="42.4720691" lon="18.7051317"><ele>6.0</ele><time>2026-05-04T08:50:42.668Z</time></trkpt><trkpt lat="42.4720515" lon="18.7052448"><ele>6.0</ele><time>2026-05-04T08:50:43.668Z</time></trkpt><trkpt lat="42.4720397" lon="18.7053641"><ele>6.166666666666667</ele><time>2026-05-04T08:50:44.668Z</time></trkpt><trkpt lat="42.4720209" lon="18.7054825"><ele>6.333333333333334</ele><time>2026-05-04T08:50:45.667Z</time></trkpt><trkpt lat="42.471993" lon="18.7055873"><ele>6.5</ele><time>2026-05-04T08:50:46.667Z</time></trkpt><trkpt lat="42.4719618" lon="18.7056917"><ele>6.666666666666667</ele><time>2026-05-04T08:50:47.667Z</time></trkpt><trkpt lat="42.4719206" lon="18.7057917"><ele>6.833333333333334</ele><time>2026-05-04T08:50:48.668Z</time></trkpt><trkpt lat="42.4718788" lon="18.7058943"><ele>7.0</ele><time>2026-05-04T08:50:49.668Z</time></trkpt><trkpt lat="42.471829" lon="18.7059946"><ele>6.500000000000001</ele><time>2026-05-04T08:50:50.668Z</time></trkpt><trkpt lat="42.4717904" lon="18.7060928"><ele>6.0</ele><time>2026-05-04T08:50:51.668Z</time></trkpt><trkpt lat="42.4717577" lon="18.7061942"><ele>5.5</ele><time>2026-05-04T08:50:52.668Z</time></trkpt><trkpt lat="42.4717364" lon="18.7062938"><ele>5.0</ele><time>2026-05-04T08:50:53.667Z</time></trkpt><trkpt lat="42.4717339" lon="18.7064034"><ele>4.5</ele><time>2026-05-04T08:50:54.666Z</time></trkpt><trkpt lat="42.4717328" lon="18.7065398"><ele>4.0</ele><time>2026-05-04T08:50:55.668Z</time></trkpt><trkpt lat="42.4717478" lon="18.7066588"><ele>3.9999999999999996</ele><time>2026-05-04T08:50:56.667Z</time></trkpt><trkpt lat="42.4717678" lon="18.7067604"><ele>4.0</ele><time>2026-05-04T08:50:57.668Z</time></trkpt><trkpt lat="42.4717845" lon="18.7068607"><ele>4.0</ele><time>2026-05-04T08:50:58.667Z</time></trkpt><trkpt lat="42.4718188" lon="18.7069493"><ele>4.0</ele><time>2026-05-04T08:50:59.667Z</time></trkpt><trkpt lat="42.4718731" lon="18.7070867"><ele>3.9999999999999996</ele><time>2026-05-04T08:51:01.666Z</time></trkpt><trkpt lat="42.4719193" lon="18.7071879"><ele>4.0</ele><time>2026-05-04T08:51:03.667Z</time></trkpt><trkpt lat="42.4719682" lon="18.7072781"><ele>3.4999999999999996</ele><time>2026-05-04T08:51:04.668Z</time></trkpt><trkpt lat="42.4720045" lon="18.707401"><ele>3.0</ele><time>2026-05-04T08:51:06.667Z</time></trkpt><trkpt lat="42.4720381" lon="18.7074941"><ele>2.5</ele><time>2026-05-04T08:51:08.668Z</time></trkpt><trkpt lat="42.4720608" lon="18.7075808"><ele>2.0</ele><time>2026-05-04T08:51:10.667Z</time></trkpt><trkpt lat="42.4720901" lon="18.707691"><ele>1.5</ele><time>2026-05-04T08:51:12.668Z</time></trkpt><trkpt lat="42.4721211" lon="18.70784"><ele>1.0</ele><time>2026-05-04T08:51:14.667Z</time></trkpt><trkpt lat="42.4721469" lon="18.7079346"><ele>1.0</ele><time>2026-05-04T08:51:15.667Z</time></trkpt><trkpt lat="42.4721672" lon="18.7080428"><ele>1.0</ele><time>2026-05-04T08:51:16.667Z</time></trkpt><trkpt lat="42.4721973" lon="18.7081478"><ele>1.0</ele><time>2026-05-04T08:51:17.667Z</time></trkpt><trkpt lat="42.4722324" lon="18.7082444"><ele>1.0</ele><time>2026-05-04T08:51:18.668Z</time></trkpt><trkpt lat="42.4723046" lon="18.708392"><ele>1.0</ele><time>2026-05-04T08:51:20.668Z</time></trkpt><trkpt lat="42.472362" lon="18.7084947"><ele>1.6666666666666665</ele><time>2026-05-04T08:51:22.667Z</time></trkpt><trkpt lat="42.4724292" lon="18.708594"><ele>2.3333333333333335</ele><time>2026-05-04T08:51:24.668Z</time></trkpt><trkpt lat="42.4724731" lon="18.7086889"><ele>3.0</ele><time>2026-05-04T08:51:26.668Z</time></trkpt><trkpt lat="42.4725188" lon="18.708775"><ele>3.666666666666667</ele><time>2026-05-04T08:51:28.667Z</time></trkpt><trkpt lat="42.4725811" lon="18.7089165"><ele>4.333333333333334</ele><time>2026-05-04T08:51:30.668Z</time></trkpt><trkpt lat="42.4726165" lon="18.7089906"><ele>5.0</ele><time>2026-05-04T08:51:31.667Z</time></trkpt><trkpt lat="42.472647" lon="18.7090666"><ele>5.0</ele><time>2026-05-04T08:51:32.667Z</time></trkpt><trkpt lat="42.4726825" lon="18.7091503"><ele>5.0</ele><time>2026-05-04T08:51:33.668Z</time></trkpt><trkpt lat="42.4727099" lon="18.7092412"><ele>5.0</ele><time>2026-05-04T08:51:34.667Z</time></trkpt><trkpt lat="42.4727315" lon="18.7093292"><ele>5.0</ele><time>2026-05-04T08:51:35.668Z</time></trkpt><trkpt lat="42.4727365" lon="18.7094811"><ele>5.0</ele><time>2026-05-04T08:51:37.668Z</time></trkpt><trkpt lat="42.4727183" lon="18.7096143"><ele>5.0</ele><time>2026-05-04T08:51:39.667Z</time></trkpt><trkpt lat="42.4726816" lon="18.7097528"><ele>5.0</ele><time>2026-05-04T08:51:41.668Z</time></trkpt><trkpt lat="42.4726488" lon="18.7098952"><ele>5.0</ele><time>2026-05-04T08:51:43.668Z</time></trkpt><trkpt lat="42.472601" lon="18.7100433"><ele>5.0</ele><time>2026-05-04T08:51:45.668Z</time></trkpt><trkpt lat="42.472551" lon="18.7101956"><ele>5.0</ele><time>2026-05-04T08:51:47.667Z</time></trkpt><trkpt lat="42.4725232" lon="18.7102733"><ele>5.0</ele><time>2026-05-04T08:51:48.668Z</time></trkpt><trkpt lat="42.472487" lon="18.7104183"><ele>5.0</ele><time>2026-05-04T08:51:50.668Z</time></trkpt><trkpt lat="42.472455" lon="18.7105376"><ele>5.0</ele><time>2026-05-04T08:51:52.666Z</time></trkpt><trkpt lat="42.4724341" lon="18.7106552"><ele>5.0</ele><time>2026-05-04T08:51:54.667Z</time></trkpt><trkpt lat="42.4724225" lon="18.7107465"><ele>5.0</ele><time>2026-05-04T08:51:56.668Z</time></trkpt><trkpt lat="42.4724215" lon="18.7108396"><ele>5.0</ele><time>2026-05-04T08:52:04.668Z</time></trkpt><trkpt lat="42.4724163" lon="18.7109783"><ele>5.0</ele><time>2026-05-04T08:52:06.668Z</time></trkpt><trkpt lat="42.4724002" lon="18.711086"><ele>4.75</ele><time>2026-05-04T08:52:07.668Z</time></trkpt><trkpt lat="42.4723823" lon="18.7112292"><ele>4.5</ele><time>2026-05-04T08:52:08.668Z</time></trkpt><trkpt lat="42.4723663" lon="18.7113885"><ele>4.25</ele><time>2026-05-04T08:52:09.667Z</time></trkpt><trkpt lat="42.4723595" lon="18.7115534"><ele>4.0</ele><time>2026-05-04T08:52:10.667Z</time></trkpt><trkpt lat="42.4723607" lon="18.7117187"><ele>4.0</ele><time>2026-05-04T08:52:11.668Z</time></trkpt><trkpt lat="42.4723586" lon="18.711885"><ele>4.0</ele><time>2026-05-04T08:52:12.667Z</time></trkpt><trkpt lat="42.4723691" lon="18.7120551"><ele>4.0</ele><time>2026-05-04T08:52:13.667Z</time></trkpt><trkpt lat="42.4723905" lon="18.7122035"><ele>4.0</ele><time>2026-05-04T08:52:14.667Z</time></trkpt><trkpt lat="42.4724166" lon="18.712348"><ele>3.6666666666666665</ele><time>2026-05-04T08:52:15.667Z</time></trkpt><trkpt lat="42.4724439" lon="18.7124757"><ele>3.333333333333333</ele><time>2026-05-04T08:52:16.667Z</time></trkpt><trkpt lat="42.4724668" lon="18.7125957"><ele>3.0</ele><time>2026-05-04T08:52:17.668Z</time></trkpt><trkpt lat="42.4724825" lon="18.7127119"><ele>2.6666666666666665</ele><time>2026-05-04T08:52:18.667Z</time></trkpt><trkpt lat="42.4724741" lon="18.7128328"><ele>2.333333333333333</ele><time>2026-05-04T08:52:19.668Z</time></trkpt><trkpt lat="42.4724648" lon="18.7129314"><ele>2.0</ele><time>2026-05-04T08:52:20.667Z</time></trkpt><trkpt lat="42.4724344" lon="18.7130478"><ele>1.8</ele><time>2026-05-04T08:52:21.667Z</time></trkpt><trkpt lat="42.4723904" lon="18.7131659"><ele>1.6</ele><time>2026-05-04T08:52:22.667Z</time></trkpt><trkpt lat="42.4723464" lon="18.713277"><ele>1.4000000000000001</ele><time>2026-05-04T08:52:23.667Z</time></trkpt><trkpt lat="42.4723118" lon="18.7133924"><ele>1.2000000000000002</ele><time>2026-05-04T08:52:24.668Z</time></trkpt><trkpt lat="42.4722886" lon="18.7135123"><ele>1.0</ele><time>2026-05-04T08:52:25.668Z</time></trkpt><trkpt lat="42.4722695" lon="18.7136349"><ele>1.3333333333333333</ele><time>2026-05-04T08:52:26.668Z</time></trkpt><trkpt lat="42.4722704" lon="18.7137495"><ele>1.6666666666666665</ele><time>2026-05-04T08:52:27.668Z</time></trkpt><trkpt lat="42.4722731" lon="18.713863"><ele>2.0</ele><time>2026-05-04T08:52:28.667Z</time></trkpt><trkpt lat="42.4722713" lon="18.7139694"><ele>2.3333333333333335</ele><time>2026-05-04T08:52:29.668Z</time></trkpt><trkpt lat="42.4722632" lon="18.7140802"><ele>2.6666666666666665</ele><time>2026-05-04T08:52:30.667Z</time></trkpt><trkpt lat="42.4722441" lon="18.7141898"><ele>3.0</ele><time>2026-05-04T08:52:31.667Z</time></trkpt><trkpt lat="42.4722205" lon="18.7142943"><ele>3.0</ele><time>2026-05-04T08:52:32.668Z</time></trkpt><trkpt lat="42.4721964" lon="18.71438"><ele>3.0</ele><time>2026-05-04T08:52:33.666Z</time></trkpt><trkpt lat="42.4721543" lon="18.7144542"><ele>3.0</ele><time>2026-05-04T08:52:34.666Z</time></trkpt><trkpt lat="42.4721065" lon="18.7145183"><ele>3.0</ele><time>2026-05-04T08:52:35.667Z</time></trkpt><trkpt lat="42.4720394" lon="18.7145921"><ele>3.0</ele><time>2026-05-04T08:52:36.667Z</time></trkpt><trkpt lat="42.4719771" lon="18.7146626"><ele>3.0</ele><time>2026-05-04T08:52:37.666Z</time></trkpt><trkpt lat="42.4719012" lon="18.7147386"><ele>3.5</ele><time>2026-05-04T08:52:38.666Z</time></trkpt><trkpt lat="42.4718315" lon="18.7148069"><ele>4.0</ele><time>2026-05-04T08:52:39.668Z</time></trkpt><trkpt lat="42.4717644" lon="18.714878"><ele>4.5</ele><time>2026-05-04T08:52:40.668Z</time></trkpt><trkpt lat="42.4716955" lon="18.7149351"><ele>5.0</ele><time>2026-05-04T08:52:41.667Z</time></trkpt><trkpt lat="42.4716157" lon="18.7149876"><ele>5.5</ele><time>2026-05-04T08:52:42.668Z</time></trkpt><trkpt lat="42.4715222" lon="18.715039"><ele>6.0</ele><time>2026-05-04T08:52:43.668Z</time></trkpt><trkpt lat="42.4714317" lon="18.7150867"><ele>6.0</ele><time>2026-05-04T08:52:44.668Z</time></trkpt><trkpt lat="42.4713358" lon="18.715137"><ele>6.0</ele><time>2026-05-04T08:52:45.668Z</time></trkpt><trkpt lat="42.4712412" lon="18.7151925"><ele>6.0</ele><time>2026-05-04T08:52:46.667Z</time></trkpt><trkpt lat="42.4711459" lon="18.7152609"><ele>6.0</ele><time>2026-05-04T08:52:47.667Z</time></trkpt><trkpt lat="42.4710423" lon="18.7153209"><ele>6.0</ele><time>2026-05-04T08:52:48.667Z</time></trkpt><trkpt lat="42.4709453" lon="18.7154066"><ele>6.0</ele><time>2026-05-04T08:52:49.667Z</time></trkpt><trkpt lat="42.4708496" lon="18.7154978"><ele>6.0</ele><time>2026-05-04T08:52:50.666Z</time></trkpt><trkpt lat="42.4707508" lon="18.7155999"><ele>6.0</ele><time>2026-05-04T08:52:51.668Z</time></trkpt><trkpt lat="42.4706413" lon="18.7157184"><ele>6.0</ele><time>2026-05-04T08:52:52.668Z</time></trkpt><trkpt lat="42.4705487" lon="18.7158255"><ele>6.0</ele><time>2026-05-04T08:52:53.667Z</time></trkpt><trkpt lat="42.4704622" lon="18.7159492"><ele>6.0</ele><time>2026-05-04T08:52:54.668Z</time></trkpt><trkpt lat="42.4703788" lon="18.7160979"><ele>6.0</ele><time>2026-05-04T08:52:55.667Z</time></trkpt><trkpt lat="42.4703058" lon="18.716253"><ele>6.0</ele><time>2026-05-04T08:52:56.668Z</time></trkpt><trkpt lat="42.4702385" lon="18.7164177"><ele>7.5</ele><time>2026-05-04T08:52:57.668Z</time></trkpt><trkpt lat="42.470172" lon="18.7165889"><ele>9.0</ele><time>2026-05-04T08:52:58.668Z</time></trkpt><trkpt lat="42.4701105" lon="18.7167547"><ele>10.5</ele><time>2026-05-04T08:52:59.667Z</time></trkpt><trkpt lat="42.4700531" lon="18.7169415"><ele>12.0</ele><time>2026-05-04T08:53:00.666Z</time></trkpt><trkpt lat="42.4700159" lon="18.7171013"><ele>12.0</ele><time>2026-05-04T08:53:01.668Z</time></trkpt><trkpt lat="42.4699841" lon="18.7172609"><ele>12.0</ele><time>2026-05-04T08:53:02.668Z</time></trkpt><trkpt lat="42.46996" lon="18.7174115"><ele>12.0</ele><time>2026-05-04T08:53:03.668Z</time></trkpt><trkpt lat="42.469947" lon="18.7175582"><ele>12.0</ele><time>2026-05-04T08:53:04.667Z</time></trkpt><trkpt lat="42.4699424" lon="18.7176987"><ele>12.0</ele><time>2026-05-04T08:53:05.668Z</time></trkpt><trkpt lat="42.4699456" lon="18.7178384"><ele>11.333333333333334</ele><time>2026-05-04T08:53:06.667Z</time></trkpt><trkpt lat="42.4699563" lon="18.7179743"><ele>10.666666666666666</ele><time>2026-05-04T08:53:07.667Z</time></trkpt><trkpt lat="42.4699745" lon="18.7181092"><ele>10.0</ele><time>2026-05-04T08:53:08.668Z</time></trkpt><trkpt lat="42.4699985" lon="18.7182134"><ele>9.333333333333332</ele><time>2026-05-04T08:53:09.668Z</time></trkpt><trkpt lat="42.4700256" lon="18.7183172"><ele>8.666666666666666</ele><time>2026-05-04T08:53:10.667Z</time></trkpt><trkpt lat="42.4700535" lon="18.7184226"><ele>8.0</ele><time>2026-05-04T08:53:11.668Z</time></trkpt><trkpt lat="42.4700841" lon="18.7185281"><ele>8.166666666666666</ele><time>2026-05-04T08:53:12.668Z</time></trkpt><trkpt lat="42.4701151" lon="18.7186392"><ele>8.333333333333332</ele><time>2026-05-04T08:53:13.667Z</time></trkpt><trkpt lat="42.4701352" lon="18.7187381"><ele>8.5</ele><time>2026-05-04T08:53:14.668Z</time></trkpt><trkpt lat="42.4701377" lon="18.7188511"><ele>8.666666666666666</ele><time>2026-05-04T08:53:15.668Z</time></trkpt><trkpt lat="42.4701442" lon="18.7189767"><ele>8.833333333333334</ele><time>2026-05-04T08:53:16.668Z</time></trkpt><trkpt lat="42.4701419" lon="18.7191182"><ele>9.0</ele><time>2026-05-04T08:53:17.667Z</time></trkpt><trkpt lat="42.4701416" lon="18.7192594"><ele>9.0</ele><time>2026-05-04T08:53:18.667Z</time></trkpt><trkpt lat="42.4701441" lon="18.7193927"><ele>9.0</ele><time>2026-05-04T08:53:19.668Z</time></trkpt><trkpt lat="42.4701376" lon="18.7195283"><ele>9.0</ele><time>2026-05-04T08:53:20.668Z</time></trkpt><trkpt lat="42.4701241" lon="18.7196487"><ele>9.0</ele><time>2026-05-04T08:53:21.667Z</time></trkpt><trkpt lat="42.4700805" lon="18.7197571"><ele>9.0</ele><time>2026-05-04T08:53:22.667Z</time></trkpt><trkpt lat="42.4700632" lon="18.7198398"><ele>9.0</ele><time>2026-05-04T08:53:23.667Z</time></trkpt><trkpt lat="42.470052" lon="18.7199273"><ele>9.2</ele><time>2026-05-04T08:53:24.668Z</time></trkpt><trkpt lat="42.4700325" lon="18.720032"><ele>9.4</ele><time>2026-05-04T08:53:25.667Z</time></trkpt><trkpt lat="42.4700024" lon="18.7201455"><ele>9.6</ele><time>2026-05-04T08:53:26.667Z</time></trkpt><trkpt lat="42.4699673" lon="18.7202585"><ele>9.8</ele><time>2026-05-04T08:53:27.667Z</time></trkpt><trkpt lat="42.4699217" lon="18.7203699"><ele>10.0</ele><time>2026-05-04T08:53:28.668Z</time></trkpt><trkpt lat="42.4698569" lon="18.7204847"><ele>9.0</ele><time>2026-05-04T08:53:29.666Z</time></trkpt><trkpt lat="42.4697899" lon="18.7206178"><ele>8.0</ele><time>2026-05-04T08:53:30.668Z</time></trkpt><trkpt lat="42.4697214" lon="18.7207538"><ele>7.0</ele><time>2026-05-04T08:53:31.668Z</time></trkpt><trkpt lat="42.469648" lon="18.7208928"><ele>6.0</ele><time>2026-05-04T08:53:32.668Z</time></trkpt><trkpt lat="42.4695777" lon="18.7210378"><ele>10.5</ele><time>2026-05-04T08:53:33.668Z</time></trkpt><trkpt lat="42.4695032" lon="18.7211774"><ele>15.0</ele><time>2026-05-04T08:53:34.667Z</time></trkpt><trkpt lat="42.4694399" lon="18.7213198"><ele>19.5</ele><time>2026-05-04T08:53:35.667Z</time></trkpt><trkpt lat="42.4693717" lon="18.7214549"><ele>24.0</ele><time>2026-05-04T08:53:36.667Z</time></trkpt><trkpt lat="42.4693035" lon="18.7215975"><ele>24.0</ele><time>2026-05-04T08:53:37.668Z</time></trkpt><trkpt lat="42.469243" lon="18.721721"><ele>24.0</ele><time>2026-05-04T08:53:38.668Z</time></trkpt><trkpt lat="42.4691842" lon="18.7218369"><ele>24.0</ele><time>2026-05-04T08:53:39.667Z</time></trkpt><trkpt lat="42.4691237" lon="18.7219482"><ele>24.0</ele><time>2026-05-04T08:53:40.668Z</time></trkpt><trkpt lat="42.4690751" lon="18.7220623"><ele>24.0</ele><time>2026-05-04T08:53:41.668Z</time></trkpt><trkpt lat="42.4690307" lon="18.7221825"><ele>21.2</ele><time>2026-05-04T08:53:42.667Z</time></trkpt><trkpt lat="42.4689931" lon="18.7223034"><ele>18.4</ele><time>2026-05-04T08:53:43.668Z</time></trkpt><trkpt lat="42.468958" lon="18.7224313"><ele>15.6</ele><time>2026-05-04T08:53:44.668Z</time></trkpt><trkpt lat="42.4689268" lon="18.7225595"><ele>12.8</ele><time>2026-05-04T08:53:45.664Z</time></trkpt><trkpt lat="42.4688977" lon="18.7226916"><ele>10.0</ele><time>2026-05-04T08:53:46.668Z</time></trkpt><trkpt lat="42.4688687" lon="18.7228258"><ele>8.8</ele><time>2026-05-04T08:53:47.667Z</time></trkpt><trkpt lat="42.4688389" lon="18.7229584"><ele>7.6</ele><time>2026-05-04T08:53:48.668Z</time></trkpt><trkpt lat="42.468814" lon="18.7230987"><ele>6.4</ele><time>2026-05-04T08:53:49.668Z</time></trkpt><trkpt lat="42.4688058" lon="18.7232351"><ele>5.2</ele><time>2026-05-04T08:53:50.667Z</time></trkpt><trkpt lat="42.468803" lon="18.7233722"><ele>4.0</ele><time>2026-05-04T08:53:51.667Z</time></trkpt><trkpt lat="42.4688048" lon="18.7235036"><ele>3.6</ele><time>2026-05-04T08:53:52.667Z</time></trkpt><trkpt lat="42.4688163" lon="18.7236035"><ele>3.2</ele><time>2026-05-04T08:53:53.668Z</time></trkpt><trkpt lat="42.4688189" lon="18.7237296"><ele>2.8000000000000003</ele><time>2026-05-04T08:53:54.667Z</time></trkpt><trkpt lat="42.468806" lon="18.7238596"><ele>2.4000000000000004</ele><time>2026-05-04T08:53:55.667Z</time></trkpt><trkpt lat="42.468784" lon="18.7239921"><ele>2.0</ele><time>2026-05-04T08:53:56.667Z</time></trkpt><trkpt lat="42.4687712" lon="18.7241132"><ele>4.2</ele><time>2026-05-04T08:53:57.667Z</time></trkpt><trkpt lat="42.4687553" lon="18.7242439"><ele>6.4</ele><time>2026-05-04T08:53:58.668Z</time></trkpt><trkpt lat="42.4687224" lon="18.7243739"><ele>8.600000000000001</ele><time>2026-05-04T08:53:59.667Z</time></trkpt><trkpt lat="42.4686933" lon="18.7244979"><ele>10.8</ele><time>2026-05-04T08:54:00.668Z</time></trkpt><trkpt lat="42.4686657" lon="18.7246196"><ele>13.0</ele><time>2026-05-04T08:54:01.667Z</time></trkpt><trkpt lat="42.4686404" lon="18.7247327"><ele>12.999999999999998</ele><time>2026-05-04T08:54:02.668Z</time></trkpt><trkpt lat="42.4686212" lon="18.7248358"><ele>13.0</ele><time>2026-05-04T08:54:03.668Z</time></trkpt><trkpt lat="42.4685943" lon="18.7249177"><ele>13.0</ele><time>2026-05-04T08:54:04.667Z</time></trkpt><trkpt lat="42.4685678" lon="18.7250068"><ele>13.0</ele><time>2026-05-04T08:54:05.668Z</time></trkpt><trkpt lat="42.4685415" lon="18.7250993"><ele>12.999999999999998</ele><time>2026-05-04T08:54:06.668Z</time></trkpt><trkpt lat="42.4685097" lon="18.7252167"><ele>13.0</ele><time>2026-05-04T08:54:07.667Z</time></trkpt><trkpt lat="42.4684793" lon="18.7253132"><ele>12.166666666666666</ele><time>2026-05-04T08:54:08.668Z</time></trkpt><trkpt lat="42.4684436" lon="18.7253945"><ele>11.333333333333332</ele><time>2026-05-04T08:54:09.667Z</time></trkpt><trkpt lat="42.4683974" lon="18.725494"><ele>10.5</ele><time>2026-05-04T08:54:10.668Z</time></trkpt><trkpt lat="42.4683507" lon="18.7255831"><ele>9.666666666666666</ele><time>2026-05-04T08:54:11.667Z</time></trkpt><trkpt lat="42.468303" lon="18.7256672"><ele>8.833333333333332</ele><time>2026-05-04T08:54:12.668Z</time></trkpt><trkpt lat="42.4682476" lon="18.7257488"><ele>8.0</ele><time>2026-05-04T08:54:13.668Z</time></trkpt><trkpt lat="42.4681973" lon="18.7258406"><ele>8.0</ele><time>2026-05-04T08:54:14.667Z</time></trkpt><trkpt lat="42.4681363" lon="18.7259202"><ele>8.0</ele><time>2026-05-04T08:54:15.667Z</time></trkpt><trkpt lat="42.468069" lon="18.7260029"><ele>8.0</ele><time>2026-05-04T08:54:16.667Z</time></trkpt><trkpt lat="42.4680026" lon="18.7260915"><ele>8.0</ele><time>2026-05-04T08:54:17.668Z</time></trkpt><trkpt lat="42.4679335" lon="18.7261804"><ele>8.0</ele><time>2026-05-04T08:54:18.668Z</time></trkpt><trkpt lat="42.4678623" lon="18.7262676"><ele>8.4</ele><time>2026-05-04T08:54:19.666Z</time></trkpt><trkpt lat="42.4677798" lon="18.7263462"><ele>8.8</ele><time>2026-05-04T08:54:20.665Z</time></trkpt><trkpt lat="42.4677056" lon="18.7264399"><ele>9.2</ele><time>2026-05-04T08:54:21.668Z</time></trkpt><trkpt lat="42.4676303" lon="18.7265326"><ele>9.6</ele><time>2026-05-04T08:54:22.665Z</time></trkpt><trkpt lat="42.4675525" lon="18.7266245"><ele>10.0</ele><time>2026-05-04T08:54:23.668Z</time></trkpt><trkpt lat="42.4674859" lon="18.7267204"><ele>10.0</ele><time>2026-05-04T08:54:24.667Z</time></trkpt><trkpt lat="42.4674132" lon="18.7268213"><ele>10.0</ele><time>2026-05-04T08:54:25.667Z</time></trkpt><trkpt lat="42.4673464" lon="18.7269203"><ele>10.0</ele><time>2026-05-04T08:54:26.668Z</time></trkpt><trkpt lat="42.4672795" lon="18.7270266"><ele>10.0</ele><time>2026-05-04T08:54:27.667Z</time></trkpt><trkpt lat="42.4672081" lon="18.7271339"><ele>10.0</ele><time>2026-05-04T08:54:28.668Z</time></trkpt><trkpt lat="42.467142" lon="18.7272432"><ele>10.2</ele><time>2026-05-04T08:54:29.667Z</time></trkpt><trkpt lat="42.467073" lon="18.7273561"><ele>10.4</ele><time>2026-05-04T08:54:30.667Z</time></trkpt><trkpt lat="42.4670123" lon="18.7274731"><ele>10.600000000000001</ele><time>2026-05-04T08:54:31.668Z</time></trkpt><trkpt lat="42.4669506" lon="18.7275915"><ele>10.8</ele><time>2026-05-04T08:54:32.666Z</time></trkpt><trkpt lat="42.4668886" lon="18.727716"><ele>11.0</ele><time>2026-05-04T08:54:33.667Z</time></trkpt><trkpt lat="42.4668305" lon="18.7278409"><ele>9.4</ele><time>2026-05-04T08:54:34.667Z</time></trkpt><trkpt lat="42.4667678" lon="18.7279687"><ele>7.800000000000001</ele><time>2026-05-04T08:54:35.667Z</time></trkpt><trkpt lat="42.4667064" lon="18.7280921"><ele>6.2</ele><time>2026-05-04T08:54:36.668Z</time></trkpt><trkpt lat="42.4666487" lon="18.7282153"><ele>4.6</ele><time>2026-05-04T08:54:37.667Z</time></trkpt><trkpt lat="42.4665895" lon="18.7283418"><ele>3.0</ele><time>2026-05-04T08:54:38.668Z</time></trkpt><trkpt lat="42.4665389" lon="18.7284758"><ele>2.6</ele><time>2026-05-04T08:54:39.667Z</time></trkpt><trkpt lat="42.4664835" lon="18.7286134"><ele>2.1999999999999997</ele><time>2026-05-04T08:54:40.668Z</time></trkpt><trkpt lat="42.4664304" lon="18.7287476"><ele>1.8</ele><time>2026-05-04T08:54:41.667Z</time></trkpt><trkpt lat="42.4663851" lon="18.7288823"><ele>1.4</ele><time>2026-05-04T08:54:42.667Z</time></trkpt><trkpt lat="42.4663438" lon="18.7290163"><ele>1.0</ele><time>2026-05-04T08:54:43.668Z</time></trkpt><trkpt lat="42.4663075" lon="18.7291394"><ele>1.4</ele><time>2026-05-04T08:54:44.667Z</time></trkpt><trkpt lat="42.4662759" lon="18.7292664"><ele>1.8</ele><time>2026-05-04T08:54:45.668Z</time></trkpt><trkpt lat="42.4662439" lon="18.729388"><ele>2.1999999999999997</ele><time>2026-05-04T08:54:46.668Z</time></trkpt><trkpt lat="42.4662115" lon="18.7295089"><ele>2.6</ele><time>2026-05-04T08:54:47.668Z</time></trkpt><trkpt lat="42.4661837" lon="18.7296329"><ele>3.0</ele><time>2026-05-04T08:54:48.668Z</time></trkpt><trkpt lat="42.4661557" lon="18.7297479"><ele>3.0</ele><time>2026-05-04T08:54:49.665Z</time></trkpt><trkpt lat="42.4661241" lon="18.7298622"><ele>3.0</ele><time>2026-05-04T08:54:50.667Z</time></trkpt><trkpt lat="42.4660759" lon="18.7299581"><ele>3.0</ele><time>2026-05-04T08:54:51.667Z</time></trkpt><trkpt lat="42.4660366" lon="18.7300532"><ele>3.0</ele><time>2026-05-04T08:54:52.668Z</time></trkpt><trkpt lat="42.4659984" lon="18.7301499"><ele>3.0</ele><time>2026-05-04T08:54:53.667Z</time></trkpt><trkpt lat="42.4659556" lon="18.7302421"><ele>3.0</ele><time>2026-05-04T08:54:54.666Z</time></trkpt><trkpt lat="42.4659034" lon="18.7303507"><ele>3.2</ele><time>2026-05-04T08:54:55.668Z</time></trkpt><trkpt lat="42.4658502" lon="18.7304435"><ele>3.4</ele><time>2026-05-04T08:54:56.667Z</time></trkpt><trkpt lat="42.4657961" lon="18.7305377"><ele>3.6000000000000005</ele><time>2026-05-04T08:54:57.667Z</time></trkpt><trkpt lat="42.4657394" lon="18.7306338"><ele>3.8000000000000003</ele><time>2026-05-04T08:54:58.667Z</time></trkpt><trkpt lat="42.4656766" lon="18.7307349"><ele>4.0</ele><time>2026-05-04T08:54:59.667Z</time></trkpt><trkpt lat="42.4656159" lon="18.7308308"><ele>4.0</ele><time>2026-05-04T08:55:00.668Z</time></trkpt><trkpt lat="42.4655616" lon="18.730916"><ele>4.0</ele><time>2026-05-04T08:55:01.668Z</time></trkpt><trkpt lat="42.4655096" lon="18.7310061"><ele>4.0</ele><time>2026-05-04T08:55:02.668Z</time></trkpt><trkpt lat="42.4654635" lon="18.7311049"><ele>4.0</ele><time>2026-05-04T08:55:03.665Z</time></trkpt><trkpt lat="42.4654252" lon="18.731222"><ele>4.0</ele><time>2026-05-04T08:55:04.668Z</time></trkpt><trkpt lat="42.4653863" lon="18.7313574"><ele>3.9999999999999996</ele><time>2026-05-04T08:55:05.668Z</time></trkpt><trkpt lat="42.4653568" lon="18.7314856"><ele>4.0</ele><time>2026-05-04T08:55:06.665Z</time></trkpt><trkpt lat="42.4653298" lon="18.7316158"><ele>4.0</ele><time>2026-05-04T08:55:07.667Z</time></trkpt><trkpt lat="42.4653075" lon="18.7317256"><ele>4.0</ele><time>2026-05-04T08:55:08.666Z</time></trkpt><trkpt lat="42.4652937" lon="18.7318283"><ele>3.9999999999999996</ele><time>2026-05-04T08:55:09.665Z</time></trkpt><trkpt lat="42.4652701" lon="18.7319303"><ele>4.0</ele><time>2026-05-04T08:55:10.668Z</time></trkpt><trkpt lat="42.465255" lon="18.7320226"><ele>4.0</ele><time>2026-05-04T08:55:11.665Z</time></trkpt><trkpt lat="42.46525" lon="18.7321186"><ele>4.0</ele><time>2026-05-04T08:55:12.666Z</time></trkpt><trkpt lat="42.4652539" lon="18.7322222"><ele>4.0</ele><time>2026-05-04T08:55:13.666Z</time></trkpt><trkpt lat="42.4652705" lon="18.7324124"><ele>4.0</ele><time>2026-05-04T08:55:15.668Z</time></trkpt><trkpt lat="42.4652667" lon="18.7325541"><ele>4.0</ele><time>2026-05-04T08:55:16.667Z</time></trkpt><trkpt lat="42.4652682" lon="18.7326764"><ele>4.666666666666666</ele><time>2026-05-04T08:55:17.666Z</time></trkpt><trkpt lat="42.4652639" lon="18.732801"><ele>5.333333333333333</ele><time>2026-05-04T08:55:18.668Z</time></trkpt><trkpt lat="42.4652539" lon="18.7329248"><ele>6.0</ele><time>2026-05-04T08:55:19.668Z</time></trkpt><trkpt lat="42.4652452" lon="18.7330448"><ele>6.666666666666666</ele><time>2026-05-04T08:55:20.666Z</time></trkpt><trkpt lat="42.4652281" lon="18.7331464"><ele>7.333333333333333</ele><time>2026-05-04T08:55:21.668Z</time></trkpt><trkpt lat="42.4652101" lon="18.7332486"><ele>8.0</ele><time>2026-05-04T08:55:22.667Z</time></trkpt><trkpt lat="42.4651831" lon="18.7333567"><ele>7.999999999999999</ele><time>2026-05-04T08:55:23.668Z</time></trkpt><trkpt lat="42.4651538" lon="18.7334566"><ele>8.0</ele><time>2026-05-04T08:55:24.668Z</time></trkpt><trkpt lat="42.4651158" lon="18.7335549"><ele>8.0</ele><time>2026-05-04T08:55:25.666Z</time></trkpt><trkpt lat="42.4650752" lon="18.7336534"><ele>8.0</ele><time>2026-05-04T08:55:26.665Z</time></trkpt><trkpt lat="42.4650337" lon="18.7337434"><ele>7.999999999999999</ele><time>2026-05-04T08:55:27.667Z</time></trkpt><trkpt lat="42.4649967" lon="18.733814"><ele>8.0</ele><time>2026-05-04T08:55:28.667Z</time></trkpt><trkpt lat="42.4649456" lon="18.7339122"><ele>7.833333333333333</ele><time>2026-05-04T08:55:30.668Z</time></trkpt><trkpt lat="42.4649094" lon="18.733991"><ele>7.666666666666666</ele><time>2026-05-04T08:55:32.668Z</time></trkpt><trkpt lat="42.464873" lon="18.7340744"><ele>7.5</ele><time>2026-05-04T08:55:41.666Z</time></trkpt><trkpt lat="42.4647981" lon="18.7341877"><ele>7.333333333333334</ele><time>2026-05-04T08:55:43.668Z</time></trkpt><trkpt lat="42.4647435" lon="18.7342617"><ele>7.166666666666667</ele><time>2026-05-04T08:55:44.667Z</time></trkpt><trkpt lat="42.4646841" lon="18.7343417"><ele>7.0</ele><time>2026-05-04T08:55:45.667Z</time></trkpt><trkpt lat="42.4646243" lon="18.7344194"><ele>6.166666666666667</ele><time>2026-05-04T08:55:46.665Z</time></trkpt><trkpt lat="42.4645639" lon="18.7345029"><ele>5.333333333333334</ele><time>2026-05-04T08:55:47.666Z</time></trkpt><trkpt lat="42.4645021" lon="18.7345931"><ele>4.5</ele><time>2026-05-04T08:55:48.667Z</time></trkpt><trkpt lat="42.4644388" lon="18.7346849"><ele>3.666666666666667</ele><time>2026-05-04T08:55:49.667Z</time></trkpt><trkpt lat="42.4643773" lon="18.7347745"><ele>2.833333333333333</ele><time>2026-05-04T08:55:50.667Z</time></trkpt><trkpt lat="42.4643178" lon="18.7348596"><ele>2.0</ele><time>2026-05-04T08:55:51.668Z</time></trkpt><trkpt lat="42.4642587" lon="18.734939"><ele>1.9999999999999998</ele><time>2026-05-04T08:55:52.667Z</time></trkpt><trkpt lat="42.4641987" lon="18.7350152"><ele>2.0</ele><time>2026-05-04T08:55:53.668Z</time></trkpt><trkpt lat="42.4641381" lon="18.7350855"><ele>2.0</ele><time>2026-05-04T08:55:54.667Z</time></trkpt><trkpt lat="42.464077" lon="18.735151"><ele>2.0</ele><time>2026-05-04T08:55:55.666Z</time></trkpt><trkpt lat="42.4640135" lon="18.7352131"><ele>1.9999999999999998</ele><time>2026-05-04T08:55:56.665Z</time></trkpt><trkpt lat="42.4639498" lon="18.7352525"><ele>2.0</ele><time>2026-05-04T08:55:57.666Z</time></trkpt><trkpt lat="42.4638831" lon="18.7353129"><ele>1.6666666666666665</ele><time>2026-05-04T08:55:58.665Z</time></trkpt><trkpt lat="42.4638212" lon="18.7353821"><ele>1.3333333333333333</ele><time>2026-05-04T08:55:59.667Z</time></trkpt><trkpt lat="42.4637628" lon="18.7354548"><ele>1.0</ele><time>2026-05-04T08:56:00.667Z</time></trkpt><trkpt lat="42.4636968" lon="18.7355305"><ele>0.6666666666666666</ele><time>2026-05-04T08:56:01.668Z</time></trkpt><trkpt lat="42.4636334" lon="18.7356213"><ele>0.3333333333333333</ele><time>2026-05-04T08:56:02.664Z</time></trkpt><trkpt lat="42.4635741" lon="18.7357165"><ele>0.0</ele><time>2026-05-04T08:56:03.667Z</time></trkpt><trkpt lat="42.4635263" lon="18.7358016"><ele>0.2857142857142857</ele><time>2026-05-04T08:56:04.666Z</time></trkpt><trkpt lat="42.4634785" lon="18.7358928"><ele>0.5714285714285714</ele><time>2026-05-04T08:56:05.667Z</time></trkpt><trkpt lat="42.4634371" lon="18.7359846"><ele>0.8571428571428571</ele><time>2026-05-04T08:56:06.666Z</time></trkpt><trkpt lat="42.4633997" lon="18.7360653"><ele>1.1428571428571428</ele><time>2026-05-04T08:56:07.668Z</time></trkpt><trkpt lat="42.4633653" lon="18.7361485"><ele>1.4285714285714284</ele><time>2026-05-04T08:56:08.667Z</time></trkpt><trkpt lat="42.4633294" lon="18.7362329"><ele>1.7142857142857142</ele><time>2026-05-04T08:56:09.666Z</time></trkpt><trkpt lat="42.4632821" lon="18.7363074"><ele>2.0</ele><time>2026-05-04T08:56:10.668Z</time></trkpt><trkpt lat="42.4632245" lon="18.7363923"><ele>1.9999999999999998</ele><time>2026-05-04T08:56:11.666Z</time></trkpt><trkpt lat="42.4631698" lon="18.7364753"><ele>2.0</ele><time>2026-05-04T08:56:12.668Z</time></trkpt><trkpt lat="42.4630895" lon="18.7365297"><ele>2.0</ele><time>2026-05-04T08:56:13.666Z</time></trkpt><trkpt lat="42.4630171" lon="18.7365844"><ele>2.0</ele><time>2026-05-04T08:56:14.665Z</time></trkpt><trkpt lat="42.4629456" lon="18.736643"><ele>1.9999999999999998</ele><time>2026-05-04T08:56:15.667Z</time></trkpt><trkpt lat="42.462862" lon="18.7367082"><ele>2.0</ele><time>2026-05-04T08:56:16.668Z</time></trkpt><trkpt lat="42.4627937" lon="18.7367461"><ele>2.833333333333333</ele><time>2026-05-04T08:56:17.668Z</time></trkpt><trkpt lat="42.4627139" lon="18.7367782"><ele>3.666666666666667</ele><time>2026-05-04T08:56:18.668Z</time></trkpt><trkpt lat="42.4626342" lon="18.7368198"><ele>4.5</ele><time>2026-05-04T08:56:19.667Z</time></trkpt><trkpt lat="42.4625555" lon="18.736861"><ele>5.333333333333334</ele><time>2026-05-04T08:56:20.667Z</time></trkpt><trkpt lat="42.4624842" lon="18.7369077"><ele>6.166666666666667</ele><time>2026-05-04T08:56:21.667Z</time></trkpt><trkpt lat="42.4624035" lon="18.7369513"><ele>7.0</ele><time>2026-05-04T08:56:22.668Z</time></trkpt><trkpt lat="42.4623316" lon="18.7369941"><ele>7.000000000000001</ele><time>2026-05-04T08:56:23.668Z</time></trkpt><trkpt lat="42.4622496" lon="18.7370212"><ele>7.0</ele><time>2026-05-04T08:56:24.668Z</time></trkpt><trkpt lat="42.4621691" lon="18.7370412"><ele>7.0</ele><time>2026-05-04T08:56:25.667Z</time></trkpt><trkpt lat="42.4620864" lon="18.7370687"><ele>7.0</ele><time>2026-05-04T08:56:26.668Z</time></trkpt><trkpt lat="42.4619993" lon="18.737095"><ele>7.000000000000001</ele><time>2026-05-04T08:56:27.666Z</time></trkpt><trkpt lat="42.4619082" lon="18.7371249"><ele>7.0</ele><time>2026-05-04T08:56:28.668Z</time></trkpt><trkpt lat="42.4618133" lon="18.7371635"><ele>8.399999999999999</ele><time>2026-05-04T08:56:29.668Z</time></trkpt><trkpt lat="42.4617196" lon="18.7372159"><ele>9.799999999999999</ele><time>2026-05-04T08:56:30.668Z</time></trkpt><trkpt lat="42.4616263" lon="18.7372727"><ele>11.2</ele><time>2026-05-04T08:56:31.668Z</time></trkpt><trkpt lat="42.4615302" lon="18.7373314"><ele>12.6</ele><time>2026-05-04T08:56:32.668Z</time></trkpt><trkpt lat="42.4614361" lon="18.7373983"><ele>14.0</ele><time>2026-05-04T08:56:33.668Z</time></trkpt><trkpt lat="42.4613648" lon="18.7374497"><ele>14.0</ele><time>2026-05-04T08:56:34.668Z</time></trkpt><trkpt lat="42.4612887" lon="18.7375263"><ele>13.999999999999998</ele><time>2026-05-04T08:56:35.667Z</time></trkpt><trkpt lat="42.4612086" lon="18.7376203"><ele>13.999999999999998</ele><time>2026-05-04T08:56:36.667Z</time></trkpt><trkpt lat="42.4611284" lon="18.7377182"><ele>14.0</ele><time>2026-05-04T08:56:37.668Z</time></trkpt><trkpt lat="42.4610533" lon="18.7378505"><ele>14.0</ele><time>2026-05-04T08:56:38.667Z</time></trkpt><trkpt lat="42.4609729" lon="18.7379657"><ele>11.799999999999999</ele><time>2026-05-04T08:56:39.665Z</time></trkpt><trkpt lat="42.4608947" lon="18.7380684"><ele>9.599999999999998</ele><time>2026-05-04T08:56:40.666Z</time></trkpt><trkpt lat="42.4608267" lon="18.7381777"><ele>7.3999999999999995</ele><time>2026-05-04T08:56:41.668Z</time></trkpt><trkpt lat="42.4607585" lon="18.7382861"><ele>5.199999999999999</ele><time>2026-05-04T08:56:42.667Z</time></trkpt><trkpt lat="42.4606925" lon="18.738393"><ele>3.0</ele><time>2026-05-04T08:56:43.668Z</time></trkpt><trkpt lat="42.4606405" lon="18.7384831"><ele>2.6</ele><time>2026-05-04T08:56:44.668Z</time></trkpt><trkpt lat="42.4605896" lon="18.7385636"><ele>2.1999999999999997</ele><time>2026-05-04T08:56:45.667Z</time></trkpt><trkpt lat="42.4605242" lon="18.7386759"><ele>1.8</ele><time>2026-05-04T08:56:46.666Z</time></trkpt><trkpt lat="42.4604767" lon="18.7387736"><ele>1.4</ele><time>2026-05-04T08:56:47.667Z</time></trkpt><trkpt lat="42.4604341" lon="18.738881"><ele>1.0</ele><time>2026-05-04T08:56:48.668Z</time></trkpt><trkpt lat="42.4603969" lon="18.7389931"><ele>1.5</ele><time>2026-05-04T08:56:49.668Z</time></trkpt><trkpt lat="42.4603482" lon="18.7391068"><ele>2.0</ele><time>2026-05-04T08:56:50.668Z</time></trkpt><trkpt lat="42.4602946" lon="18.7392019"><ele>2.5</ele><time>2026-05-04T08:56:51.667Z</time></trkpt><trkpt lat="42.4602604" lon="18.7393022"><ele>3.0</ele><time>2026-05-04T08:56:52.668Z</time></trkpt><trkpt lat="42.4602233" lon="18.7394047"><ele>3.4999999999999996</ele><time>2026-05-04T08:56:53.668Z</time></trkpt><trkpt lat="42.4601843" lon="18.739495"><ele>4.0</ele><time>2026-05-04T08:56:54.668Z</time></trkpt><trkpt lat="42.4601323" lon="18.7395904"><ele>3.9999999999999996</ele><time>2026-05-04T08:56:55.668Z</time></trkpt><trkpt lat="42.4600844" lon="18.7396592"><ele>4.0</ele><time>2026-05-04T08:56:56.668Z</time></trkpt><trkpt lat="42.4600039" lon="18.739722"><ele>4.0</ele><time>2026-05-04T08:56:57.666Z</time></trkpt><trkpt lat="42.459927" lon="18.7397821"><ele>4.0</ele><time>2026-05-04T08:56:58.668Z</time></trkpt><trkpt lat="42.4598494" lon="18.7398569"><ele>3.9999999999999996</ele><time>2026-05-04T08:56:59.666Z</time></trkpt><trkpt lat="42.4597707" lon="18.7399392"><ele>4.0</ele><time>2026-05-04T08:57:00.668Z</time></trkpt><trkpt lat="42.4596915" lon="18.740046"><ele>4.6</ele><time>2026-05-04T08:57:01.668Z</time></trkpt><trkpt lat="42.4596132" lon="18.7401397"><ele>5.2</ele><time>2026-05-04T08:57:02.667Z</time></trkpt><trkpt lat="42.4595433" lon="18.7402411"><ele>5.799999999999999</ele><time>2026-05-04T08:57:03.667Z</time></trkpt><trkpt lat="42.4594818" lon="18.7403534"><ele>6.3999999999999995</ele><time>2026-05-04T08:57:04.666Z</time></trkpt><trkpt lat="42.4594183" lon="18.7404619"><ele>7.0</ele><time>2026-05-04T08:57:05.667Z</time></trkpt><trkpt lat="42.459352" lon="18.7405712"><ele>7.0</ele><time>2026-05-04T08:57:06.668Z</time></trkpt><trkpt lat="42.4593014" lon="18.7406806"><ele>6.999999999999999</ele><time>2026-05-04T08:57:07.667Z</time></trkpt><trkpt lat="42.4592599" lon="18.740787"><ele>6.999999999999999</ele><time>2026-05-04T08:57:08.667Z</time></trkpt><trkpt lat="42.4592117" lon="18.740913"><ele>7.0</ele><time>2026-05-04T08:57:09.667Z</time></trkpt><trkpt lat="42.4591556" lon="18.7410315"><ele>7.0</ele><time>2026-05-04T08:57:10.666Z</time></trkpt><trkpt lat="42.4591026" lon="18.7411418"><ele>7.666666666666667</ele><time>2026-05-04T08:57:11.668Z</time></trkpt><trkpt lat="42.459052" lon="18.74125"><ele>8.333333333333334</ele><time>2026-05-04T08:57:12.668Z</time></trkpt><trkpt lat="42.4590015" lon="18.7413597"><ele>9.0</ele><time>2026-05-04T08:57:13.667Z</time></trkpt><trkpt lat="42.4589513" lon="18.7414595"><ele>9.666666666666666</ele><time>2026-05-04T08:57:14.666Z</time></trkpt><trkpt lat="42.4588958" lon="18.7415455"><ele>10.333333333333332</ele><time>2026-05-04T08:57:15.668Z</time></trkpt><trkpt lat="42.4588387" lon="18.7416098"><ele>11.0</ele><time>2026-05-04T08:57:16.668Z</time></trkpt><trkpt lat="42.4587682" lon="18.7416636"><ele>11.0</ele><time>2026-05-04T08:57:17.667Z</time></trkpt><trkpt lat="42.4586908" lon="18.7417106"><ele>11.0</ele><time>2026-05-04T08:57:18.668Z</time></trkpt><trkpt lat="42.4586078" lon="18.7417536"><ele>11.0</ele><time>2026-05-04T08:57:19.668Z</time></trkpt><trkpt lat="42.4585183" lon="18.7418041"><ele>11.0</ele><time>2026-05-04T08:57:20.667Z</time></trkpt><trkpt lat="42.4584323" lon="18.7418509"><ele>11.0</ele><time>2026-05-04T08:57:21.668Z</time></trkpt><trkpt lat="42.4583536" lon="18.7419018"><ele>10.4</ele><time>2026-05-04T08:57:22.666Z</time></trkpt><trkpt lat="42.4582718" lon="18.7419456"><ele>9.8</ele><time>2026-05-04T08:57:23.665Z</time></trkpt><trkpt lat="42.4581905" lon="18.7419889"><ele>9.200000000000001</ele><time>2026-05-04T08:57:24.667Z</time></trkpt><trkpt lat="42.4581116" lon="18.7420354"><ele>8.600000000000001</ele><time>2026-05-04T08:57:25.667Z</time></trkpt><trkpt lat="42.4580443" lon="18.7420782"><ele>8.0</ele><time>2026-05-04T08:57:26.666Z</time></trkpt><trkpt lat="42.4579405" lon="18.7421834"><ele>8.0</ele><time>2026-05-04T08:57:28.668Z</time></trkpt><trkpt lat="42.4578601" lon="18.7422548"><ele>8.0</ele><time>2026-05-04T08:57:29.666Z</time></trkpt><trkpt lat="42.4577931" lon="18.7423394"><ele>8.0</ele><time>2026-05-04T08:57:30.668Z</time></trkpt><trkpt lat="42.4577146" lon="18.7424264"><ele>8.0</ele><time>2026-05-04T08:57:31.668Z</time></trkpt><trkpt lat="42.4576394" lon="18.7425136"><ele>8.0</ele><time>2026-05-04T08:57:32.668Z</time></trkpt><trkpt lat="42.4575735" lon="18.7426049"><ele>8.0</ele><time>2026-05-04T08:57:33.668Z</time></trkpt><trkpt lat="42.4575204" lon="18.7427101"><ele>8.0</ele><time>2026-05-04T08:57:34.667Z</time></trkpt><trkpt lat="42.4574696" lon="18.7428239"><ele>8.0</ele><time>2026-05-04T08:57:35.667Z</time></trkpt><trkpt lat="42.4574177" lon="18.7429309"><ele>8.0</ele><time>2026-05-04T08:57:36.668Z</time></trkpt><trkpt lat="42.4573691" lon="18.7430399"><ele>8.0</ele><time>2026-05-04T08:57:37.668Z</time></trkpt><trkpt lat="42.4573142" lon="18.7431473"><ele>7.2</ele><time>2026-05-04T08:57:38.667Z</time></trkpt><trkpt lat="42.4572655" lon="18.7432589"><ele>6.4</ele><time>2026-05-04T08:57:39.668Z</time></trkpt><trkpt lat="42.4572128" lon="18.7433671"><ele>5.6000000000000005</ele><time>2026-05-04T08:57:40.667Z</time></trkpt><trkpt lat="42.457164" lon="18.7434748"><ele>4.800000000000001</ele><time>2026-05-04T08:57:41.668Z</time></trkpt><trkpt lat="42.4571184" lon="18.7435761"><ele>4.0</ele><time>2026-05-04T08:57:42.666Z</time></trkpt><trkpt lat="42.4570676" lon="18.7436797"><ele>3.9999999999999996</ele><time>2026-05-04T08:57:43.666Z</time></trkpt><trkpt lat="42.4570166" lon="18.7437856"><ele>4.0</ele><time>2026-05-04T08:57:44.668Z</time></trkpt><trkpt lat="42.4569672" lon="18.7438896"><ele>4.0</ele><time>2026-05-04T08:57:45.668Z</time></trkpt><trkpt lat="42.4569134" lon="18.7439871"><ele>4.0</ele><time>2026-05-04T08:57:46.664Z</time></trkpt><trkpt lat="42.4568688" lon="18.7440762"><ele>3.9999999999999996</ele><time>2026-05-04T08:57:47.668Z</time></trkpt><trkpt lat="42.4568186" lon="18.7441734"><ele>4.0</ele><time>2026-05-04T08:57:48.667Z</time></trkpt><trkpt lat="42.456766" lon="18.7442734"><ele>3.9999999999999996</ele><time>2026-05-04T08:57:49.667Z</time></trkpt><trkpt lat="42.4567112" lon="18.7443747"><ele>4.0</ele><time>2026-05-04T08:57:50.667Z</time></trkpt><trkpt lat="42.4566593" lon="18.7444726"><ele>4.0</ele><time>2026-05-04T08:57:51.668Z</time></trkpt><trkpt lat="42.4566096" lon="18.7445678"><ele>4.0</ele><time>2026-05-04T08:57:52.668Z</time></trkpt><trkpt lat="42.4565601" lon="18.7446591"><ele>3.9999999999999996</ele><time>2026-05-04T08:57:53.668Z</time></trkpt><trkpt lat="42.4565153" lon="18.7447519"><ele>4.0</ele><time>2026-05-04T08:57:54.668Z</time></trkpt><trkpt lat="42.4564719" lon="18.7448499"><ele>3.833333333333333</ele><time>2026-05-04T08:57:55.667Z</time></trkpt><trkpt lat="42.4564285" lon="18.7449542"><ele>3.6666666666666665</ele><time>2026-05-04T08:57:56.668Z</time></trkpt><trkpt lat="42.4563904" lon="18.7450521"><ele>3.5</ele><time>2026-05-04T08:57:57.667Z</time></trkpt><trkpt lat="42.4563474" lon="18.7451552"><ele>3.333333333333333</ele><time>2026-05-04T08:57:58.668Z</time></trkpt><trkpt lat="42.4563133" lon="18.7452577"><ele>3.1666666666666665</ele><time>2026-05-04T08:57:59.667Z</time></trkpt><trkpt lat="42.4562797" lon="18.7453667"><ele>3.0</ele><time>2026-05-04T08:58:00.667Z</time></trkpt><trkpt lat="42.4562471" lon="18.7454722"><ele>3.1666666666666665</ele><time>2026-05-04T08:58:01.667Z</time></trkpt><trkpt lat="42.4562157" lon="18.7455759"><ele>3.333333333333333</ele><time>2026-05-04T08:58:02.668Z</time></trkpt><trkpt lat="42.4561837" lon="18.745675"><ele>3.5</ele><time>2026-05-04T08:58:03.667Z</time></trkpt><trkpt lat="42.4561537" lon="18.7457786"><ele>3.6666666666666665</ele><time>2026-05-04T08:58:04.667Z</time></trkpt><trkpt lat="42.4561297" lon="18.7458881"><ele>3.833333333333333</ele><time>2026-05-04T08:58:05.668Z</time></trkpt><trkpt lat="42.4561014" lon="18.7459998"><ele>4.0</ele><time>2026-05-04T08:58:06.668Z</time></trkpt><trkpt lat="42.4560814" lon="18.7461086"><ele>3.9999999999999996</ele><time>2026-05-04T08:58:07.668Z</time></trkpt><trkpt lat="42.4560548" lon="18.7462162"><ele>4.0</ele><time>2026-05-04T08:58:08.667Z</time></trkpt><trkpt lat="42.4560277" lon="18.7463214"><ele>4.0</ele><time>2026-05-04T08:58:09.667Z</time></trkpt><trkpt lat="42.4559988" lon="18.7464276"><ele>4.0</ele><time>2026-05-04T08:58:10.668Z</time></trkpt><trkpt lat="42.4559697" lon="18.7465406"><ele>3.9999999999999996</ele><time>2026-05-04T08:58:11.667Z</time></trkpt><trkpt lat="42.4559404" lon="18.746645"><ele>4.0</ele><time>2026-05-04T08:58:12.668Z</time></trkpt><trkpt lat="42.4558959" lon="18.7468012"><ele>3.833333333333333</ele><time>2026-05-04T08:58:14.667Z</time></trkpt><trkpt lat="42.4558475" lon="18.7469256"><ele>3.6666666666666665</ele><time>2026-05-04T08:58:16.668Z</time></trkpt><trkpt lat="42.4558067" lon="18.7470042"><ele>3.5</ele><time>2026-05-04T08:58:17.667Z</time></trkpt><trkpt lat="42.4557605" lon="18.7470865"><ele>3.333333333333333</ele><time>2026-05-04T08:58:18.668Z</time></trkpt><trkpt lat="42.4557081" lon="18.7471836"><ele>3.1666666666666665</ele><time>2026-05-04T08:58:19.665Z</time></trkpt><trkpt lat="42.4556536" lon="18.7472583"><ele>3.0</ele><time>2026-05-04T08:58:20.666Z</time></trkpt><trkpt lat="42.4555981" lon="18.7473263"><ele>3.0</ele><time>2026-05-04T08:58:21.665Z</time></trkpt><trkpt lat="42.4555156" lon="18.7473856"><ele>3.0</ele><time>2026-05-04T08:58:22.668Z</time></trkpt><trkpt lat="42.4554473" lon="18.7474308"><ele>3.0</ele><time>2026-05-04T08:58:23.667Z</time></trkpt><trkpt lat="42.455375" lon="18.7474662"><ele>3.0</ele><time>2026-05-04T08:58:24.666Z</time></trkpt><trkpt lat="42.4553035" lon="18.747491"><ele>3.0</ele><time>2026-05-04T08:58:25.667Z</time></trkpt><trkpt lat="42.4552265" lon="18.7475177"><ele>3.0</ele><time>2026-05-04T08:58:26.667Z</time></trkpt><trkpt lat="42.4551566" lon="18.7475358"><ele>4.4</ele><time>2026-05-04T08:58:27.666Z</time></trkpt><trkpt lat="42.4550801" lon="18.7475557"><ele>5.8</ele><time>2026-05-04T08:58:28.667Z</time></trkpt><trkpt lat="42.4549943" lon="18.7475747"><ele>7.2</ele><time>2026-05-04T08:58:29.668Z</time></trkpt><trkpt lat="42.4548954" lon="18.7476059"><ele>8.6</ele><time>2026-05-04T08:58:30.668Z</time></trkpt><trkpt lat="42.4548083" lon="18.7476337"><ele>10.0</ele><time>2026-05-04T08:58:31.667Z</time></trkpt><trkpt lat="42.4547168" lon="18.7476643"><ele>10.0</ele><time>2026-05-04T08:58:32.668Z</time></trkpt><trkpt lat="42.4546261" lon="18.7476901"><ele>10.0</ele><time>2026-05-04T08:58:33.667Z</time></trkpt><trkpt lat="42.4545331" lon="18.7477143"><ele>10.0</ele><time>2026-05-04T08:58:34.667Z</time></trkpt><trkpt lat="42.4544502" lon="18.7477415"><ele>10.0</ele><time>2026-05-04T08:58:35.668Z</time></trkpt><trkpt lat="42.4543695" lon="18.7478011"><ele>10.0</ele><time>2026-05-04T08:58:36.666Z</time></trkpt><trkpt lat="42.4543068" lon="18.7478609"><ele>10.0</ele><time>2026-05-04T08:58:37.667Z</time></trkpt><trkpt lat="42.4542328" lon="18.7479282"><ele>8.8</ele><time>2026-05-04T08:58:38.667Z</time></trkpt><trkpt lat="42.4541547" lon="18.7480058"><ele>7.6</ele><time>2026-05-04T08:58:39.664Z</time></trkpt><trkpt lat="42.4540702" lon="18.7480771"><ele>6.4</ele><time>2026-05-04T08:58:40.665Z</time></trkpt><trkpt lat="42.4539935" lon="18.7481439"><ele>5.2</ele><time>2026-05-04T08:58:41.667Z</time></trkpt><trkpt lat="42.4539144" lon="18.7481951"><ele>4.0</ele><time>2026-05-04T08:58:42.668Z</time></trkpt><trkpt lat="42.4538352" lon="18.748243"><ele>5.0</ele><time>2026-05-04T08:58:43.668Z</time></trkpt><trkpt lat="42.4537596" lon="18.748287"><ele>6.0</ele><time>2026-05-04T08:58:44.667Z</time></trkpt><trkpt lat="42.4536936" lon="18.7483251"><ele>7.0</ele><time>2026-05-04T08:58:45.667Z</time></trkpt><trkpt lat="42.4535974" lon="18.7483713"><ele>8.0</ele><time>2026-05-04T08:58:47.665Z</time></trkpt><trkpt lat="42.4535248" lon="18.7484173"><ele>9.0</ele><time>2026-05-04T08:58:53.665Z</time></trkpt><trkpt lat="42.453429" lon="18.7484361"><ele>10.0</ele><time>2026-05-04T08:58:55.667Z</time></trkpt><trkpt lat="42.4533564" lon="18.7484583"><ele>10.0</ele><time>2026-05-04T08:58:56.664Z</time></trkpt><trkpt lat="42.4532859" lon="18.7484909"><ele>10.0</ele><time>2026-05-04T08:58:57.667Z</time></trkpt><trkpt lat="42.4532135" lon="18.7485243"><ele>10.0</ele><time>2026-05-04T08:58:58.666Z</time></trkpt><trkpt lat="42.4531402" lon="18.748566"><ele>10.0</ele><time>2026-05-04T08:58:59.668Z</time></trkpt><trkpt lat="42.4530748" lon="18.748604"><ele>10.0</ele><time>2026-05-04T08:59:00.666Z</time></trkpt><trkpt lat="42.4529822" lon="18.748686"><ele>10.0</ele><time>2026-05-04T08:59:02.667Z</time></trkpt><trkpt lat="42.4529035" lon="18.7487838"><ele>8.5</ele><time>2026-05-04T08:59:04.667Z</time></trkpt><trkpt lat="42.4528239" lon="18.748889"><ele>7.0</ele><time>2026-05-04T08:59:06.667Z</time></trkpt><trkpt lat="42.4527298" lon="18.749035"><ele>5.5</ele><time>2026-05-04T08:59:08.664Z</time></trkpt><trkpt lat="42.4526441" lon="18.7491253"><ele>4.0</ele><time>2026-05-04T08:59:10.666Z</time></trkpt><trkpt lat="42.4525711" lon="18.7492158"><ele>4.0</ele><time>2026-05-04T08:59:12.667Z</time></trkpt><trkpt lat="42.4524797" lon="18.7493083"><ele>4.0</ele><time>2026-05-04T08:59:14.668Z</time></trkpt><trkpt lat="42.452425" lon="18.7493871"><ele>4.0</ele><time>2026-05-04T08:59:16.665Z</time></trkpt><trkpt lat="42.4523648" lon="18.749449"><ele>4.0</ele><time>2026-05-04T08:59:20.664Z</time></trkpt><trkpt lat="42.4522958" lon="18.7495048"><ele>4.0</ele><time>2026-05-04T08:59:24.668Z</time></trkpt><trkpt lat="42.4521693" lon="18.7495346"><ele>3.8000000000000003</ele><time>2026-05-04T08:59:27.668Z</time></trkpt><trkpt lat="42.452101" lon="18.7495568"><ele>3.6000000000000005</ele><time>2026-05-04T08:59:28.666Z</time></trkpt><trkpt lat="42.4520258" lon="18.7495862"><ele>3.4</ele><time>2026-05-04T08:59:29.666Z</time></trkpt><trkpt lat="42.4519433" lon="18.7496276"><ele>3.2</ele><time>2026-05-04T08:59:30.667Z</time></trkpt><trkpt lat="42.451802" lon="18.7496714"><ele>3.0</ele><time>2026-05-04T08:59:31.667Z</time></trkpt><trkpt lat="42.45172" lon="18.7497115"><ele>2.9999999999999996</ele><time>2026-05-04T08:59:32.668Z</time></trkpt><trkpt lat="42.451644" lon="18.7497481"><ele>3.0</ele><time>2026-05-04T08:59:33.666Z</time></trkpt><trkpt lat="42.4515772" lon="18.7497836"><ele>3.0</ele><time>2026-05-04T08:59:34.668Z</time></trkpt><trkpt lat="42.4515122" lon="18.7498276"><ele>3.0</ele><time>2026-05-04T08:59:35.666Z</time></trkpt><trkpt lat="42.4514556" lon="18.7498681"><ele>3.0</ele><time>2026-05-04T08:59:36.667Z</time></trkpt><trkpt lat="42.451383" lon="18.7499079"><ele>2.9999999999999996</ele><time>2026-05-04T08:59:37.666Z</time></trkpt><trkpt lat="42.4513198" lon="18.7499271"><ele>3.0</ele><time>2026-05-04T08:59:38.667Z</time></trkpt><trkpt lat="42.4512012" lon="18.7499096"><ele>3.5999999999999996</ele><time>2026-05-04T08:59:40.667Z</time></trkpt><trkpt lat="42.4511187" lon="18.7499328"><ele>4.199999999999999</ele><time>2026-05-04T08:59:41.665Z</time></trkpt><trkpt lat="42.4510312" lon="18.7499729"><ele>4.8</ele><time>2026-05-04T08:59:42.667Z</time></trkpt><trkpt lat="42.4509496" lon="18.7500228"><ele>5.3999999999999995</ele><time>2026-05-04T08:59:43.665Z</time></trkpt><trkpt lat="42.4508655" lon="18.7500879"><ele>6.0</ele><time>2026-05-04T08:59:44.667Z</time></trkpt><trkpt lat="42.4507876" lon="18.7501583"><ele>6.0</ele><time>2026-05-04T08:59:45.667Z</time></trkpt><trkpt lat="42.4507052" lon="18.7502408"><ele>6.0</ele><time>2026-05-04T08:59:46.666Z</time></trkpt><trkpt lat="42.4506192" lon="18.7503262"><ele>6.0</ele><time>2026-05-04T08:59:47.665Z</time></trkpt><trkpt lat="42.450535" lon="18.7504129"><ele>6.0</ele><time>2026-05-04T08:59:48.667Z</time></trkpt><trkpt lat="42.4504549" lon="18.7504954"><ele>6.0</ele><time>2026-05-04T08:59:49.667Z</time></trkpt><trkpt lat="42.4503833" lon="18.7505748"><ele>6.0</ele><time>2026-05-04T08:59:50.666Z</time></trkpt><trkpt lat="42.4503157" lon="18.750656"><ele>6.0</ele><time>2026-05-04T08:59:51.665Z</time></trkpt><trkpt lat="42.4502555" lon="18.750742"><ele>6.0</ele><time>2026-05-04T08:59:52.666Z</time></trkpt><trkpt lat="42.4502034" lon="18.7508361"><ele>6.0</ele><time>2026-05-04T08:59:53.666Z</time></trkpt><trkpt lat="42.4501511" lon="18.7509242"><ele>6.0</ele><time>2026-05-04T08:59:54.665Z</time></trkpt><trkpt lat="42.4501008" lon="18.7510189"><ele>6.0</ele><time>2026-05-04T08:59:55.667Z</time></trkpt><trkpt lat="42.4500501" lon="18.7511132"><ele>5.5</ele><time>2026-05-04T08:59:56.667Z</time></trkpt><trkpt lat="42.4500026" lon="18.7512012"><ele>5.0</ele><time>2026-05-04T08:59:57.667Z</time></trkpt><trkpt lat="42.4499535" lon="18.7512896"><ele>4.5</ele><time>2026-05-04T08:59:58.668Z</time></trkpt><trkpt lat="42.4498988" lon="18.7513546"><ele>4.0</ele><time>2026-05-04T08:59:59.667Z</time></trkpt><trkpt lat="42.4498439" lon="18.7514253"><ele>3.5</ele><time>2026-05-04T09:00:00.668Z</time></trkpt><trkpt lat="42.4497897" lon="18.7515042"><ele>3.0</ele><time>2026-05-04T09:00:01.665Z</time></trkpt><trkpt lat="42.4497462" lon="18.7515883"><ele>3.0</ele><time>2026-05-04T09:00:02.665Z</time></trkpt><trkpt lat="42.4497106" lon="18.7516791"><ele>3.0</ele><time>2026-05-04T09:00:03.666Z</time></trkpt><trkpt lat="42.4496797" lon="18.7517793"><ele>3.0</ele><time>2026-05-04T09:00:04.666Z</time></trkpt><trkpt lat="42.449657" lon="18.7518841"><ele>3.0</ele><time>2026-05-04T09:00:05.666Z</time></trkpt><trkpt lat="42.4496362" lon="18.7519929"><ele>3.0</ele><time>2026-05-04T09:00:06.667Z</time></trkpt><trkpt lat="42.449615" lon="18.7521024"><ele>3.0</ele><time>2026-05-04T09:00:07.666Z</time></trkpt><trkpt lat="42.4495937" lon="18.7522133"><ele>3.5</ele><time>2026-05-04T09:00:08.667Z</time></trkpt><trkpt lat="42.4495718" lon="18.752322"><ele>4.0</ele><time>2026-05-04T09:00:09.668Z</time></trkpt><trkpt lat="42.4495509" lon="18.7524328"><ele>4.5</ele><time>2026-05-04T09:00:10.667Z</time></trkpt><trkpt lat="42.4495298" lon="18.7525393"><ele>5.0</ele><time>2026-05-04T09:00:11.666Z</time></trkpt><trkpt lat="42.4495077" lon="18.7526402"><ele>5.5</ele><time>2026-05-04T09:00:12.668Z</time></trkpt><trkpt lat="42.4494914" lon="18.7527371"><ele>6.0</ele><time>2026-05-04T09:00:13.667Z</time></trkpt><trkpt lat="42.4494639" lon="18.7528307"><ele>6.0</ele><time>2026-05-04T09:00:14.667Z</time></trkpt><trkpt lat="42.4494326" lon="18.752926"><ele>6.0</ele><time>2026-05-04T09:00:15.665Z</time></trkpt><trkpt lat="42.4493892" lon="18.7530301"><ele>6.0</ele><time>2026-05-04T09:00:16.665Z</time></trkpt><trkpt lat="42.4493534" lon="18.7531359"><ele>6.0</ele><time>2026-05-04T09:00:17.668Z</time></trkpt><trkpt lat="42.4493151" lon="18.7532504"><ele>6.0</ele><time>2026-05-04T09:00:18.666Z</time></trkpt><trkpt lat="42.4492751" lon="18.7533441"><ele>6.0</ele><time>2026-05-04T09:00:19.668Z</time></trkpt><trkpt lat="42.4492359" lon="18.7534349"><ele>5.999999999999999</ele><time>2026-05-04T09:00:20.664Z</time></trkpt><trkpt lat="42.4491934" lon="18.753519"><ele>6.0</ele><time>2026-05-04T09:00:21.667Z</time></trkpt><trkpt lat="42.4491567" lon="18.7536069"><ele>6.0</ele><time>2026-05-04T09:00:22.664Z</time></trkpt><trkpt lat="42.4491148" lon="18.7537116"><ele>6.0</ele><time>2026-05-04T09:00:23.667Z</time></trkpt><trkpt lat="42.4490769" lon="18.7537869"><ele>6.0</ele><time>2026-05-04T09:00:24.664Z</time></trkpt><trkpt lat="42.4490328" lon="18.7538645"><ele>5.999999999999999</ele><time>2026-05-04T09:00:25.666Z</time></trkpt><trkpt lat="42.4489906" lon="18.7539393"><ele>6.0</ele><time>2026-05-04T09:00:26.664Z</time></trkpt><trkpt lat="42.4489416" lon="18.7539985"><ele>6.0</ele><time>2026-05-04T09:00:27.667Z</time></trkpt><trkpt lat="42.4488872" lon="18.7540492"><ele>6.0</ele><time>2026-05-04T09:00:28.666Z</time></trkpt><trkpt lat="42.4488223" lon="18.754099"><ele>6.0</ele><time>2026-05-04T09:00:29.666Z</time></trkpt><trkpt lat="42.4487426" lon="18.7541213"><ele>6.0</ele><time>2026-05-04T09:00:30.668Z</time></trkpt><trkpt lat="42.4486608" lon="18.7541393"><ele>6.0</ele><time>2026-05-04T09:00:31.666Z</time></trkpt><trkpt lat="42.4485809" lon="18.7541602"><ele>6.0</ele><time>2026-05-04T09:00:32.663Z</time></trkpt><trkpt lat="42.4484855" lon="18.754184"><ele>6.0</ele><time>2026-05-04T09:00:33.665Z</time></trkpt><trkpt lat="42.4483968" lon="18.7542062"><ele>6.0</ele><time>2026-05-04T09:00:34.667Z</time></trkpt><trkpt lat="42.4483074" lon="18.7542279"><ele>6.0</ele><time>2026-05-04T09:00:35.668Z</time></trkpt><trkpt lat="42.4482123" lon="18.7542518"><ele>6.0</ele><time>2026-05-04T09:00:36.667Z</time></trkpt><trkpt lat="42.4481145" lon="18.7542767"><ele>6.0</ele><time>2026-05-04T09:00:37.667Z</time></trkpt><trkpt lat="42.4480153" lon="18.7543006"><ele>5.8</ele><time>2026-05-04T09:00:38.667Z</time></trkpt><trkpt lat="42.4479149" lon="18.7543164"><ele>5.6</ele><time>2026-05-04T09:00:39.667Z</time></trkpt><trkpt lat="42.4478162" lon="18.7543408"><ele>5.4</ele><time>2026-05-04T09:00:40.667Z</time></trkpt><trkpt lat="42.4477226" lon="18.7543702"><ele>5.2</ele><time>2026-05-04T09:00:41.668Z</time></trkpt><trkpt lat="42.4476364" lon="18.7543966"><ele>5.0</ele><time>2026-05-04T09:00:42.668Z</time></trkpt><trkpt lat="42.4475553" lon="18.7544193"><ele>5.0</ele><time>2026-05-04T09:00:43.667Z</time></trkpt><trkpt lat="42.4474713" lon="18.754428"><ele>5.0</ele><time>2026-05-04T09:00:44.665Z</time></trkpt><trkpt lat="42.4473916" lon="18.7544306"><ele>5.0</ele><time>2026-05-04T09:00:45.666Z</time></trkpt><trkpt lat="42.4473027" lon="18.7544192"><ele>5.0</ele><time>2026-05-04T09:00:46.666Z</time></trkpt><trkpt lat="42.447201" lon="18.7544351"><ele>5.0</ele><time>2026-05-04T09:00:47.667Z</time></trkpt><trkpt lat="42.4471247" lon="18.754429"><ele>5.0</ele><time>2026-05-04T09:00:48.667Z</time></trkpt><trkpt lat="42.4470404" lon="18.7544173"><ele>4.666666666666667</ele><time>2026-05-04T09:00:49.668Z</time></trkpt><trkpt lat="42.4469584" lon="18.7544047"><ele>4.333333333333334</ele><time>2026-05-04T09:00:50.663Z</time></trkpt><trkpt lat="42.446874" lon="18.7543837"><ele>4.0</ele><time>2026-05-04T09:00:51.664Z</time></trkpt><trkpt lat="42.4468075" lon="18.7543589"><ele>3.666666666666667</ele><time>2026-05-04T09:00:52.668Z</time></trkpt><trkpt lat="42.4467384" lon="18.7543039"><ele>3.3333333333333335</ele><time>2026-05-04T09:00:53.666Z</time></trkpt><trkpt lat="42.4466555" lon="18.7542252"><ele>3.0</ele><time>2026-05-04T09:00:54.665Z</time></trkpt><trkpt lat="42.4465746" lon="18.7541388"><ele>3.0</ele><time>2026-05-04T09:00:55.666Z</time></trkpt><trkpt lat="42.446494" lon="18.7540409"><ele>3.0</ele><time>2026-05-04T09:00:56.668Z</time></trkpt><trkpt lat="42.4464208" lon="18.7539543"><ele>3.0</ele><time>2026-05-04T09:00:57.668Z</time></trkpt><trkpt lat="42.4463177" lon="18.7538577"><ele>3.0</ele><time>2026-05-04T09:00:58.667Z</time></trkpt><trkpt lat="42.4462573" lon="18.7537512"><ele>3.0</ele><time>2026-05-04T09:00:59.666Z</time></trkpt><trkpt lat="42.4461919" lon="18.7536391"><ele>3.2</ele><time>2026-05-04T09:01:00.666Z</time></trkpt><trkpt lat="42.4461261" lon="18.7535327"><ele>3.4</ele><time>2026-05-04T09:01:01.664Z</time></trkpt><trkpt lat="42.4460505" lon="18.7534207"><ele>3.6000000000000005</ele><time>2026-05-04T09:01:02.667Z</time></trkpt><trkpt lat="42.4459929" lon="18.7533102"><ele>3.8000000000000003</ele><time>2026-05-04T09:01:03.666Z</time></trkpt><trkpt lat="42.445941" lon="18.7532147"><ele>4.0</ele><time>2026-05-04T09:01:04.667Z</time></trkpt><trkpt lat="42.4458835" lon="18.753118"><ele>4.0</ele><time>2026-05-04T09:01:05.668Z</time></trkpt><trkpt lat="42.4458148" lon="18.7530234"><ele>4.0</ele><time>2026-05-04T09:01:06.664Z</time></trkpt><trkpt lat="42.4457128" lon="18.7529284"><ele>4.0</ele><time>2026-05-04T09:01:07.666Z</time></trkpt><trkpt lat="42.4456165" lon="18.7528353"><ele>4.0</ele><time>2026-05-04T09:01:08.667Z</time></trkpt><trkpt lat="42.4455374" lon="18.752747"><ele>4.0</ele><time>2026-05-04T09:01:09.667Z</time></trkpt><trkpt lat="42.4454332" lon="18.7526511"><ele>3.5</ele><time>2026-05-04T09:01:10.667Z</time></trkpt><trkpt lat="42.4453415" lon="18.7525618"><ele>3.0</ele><time>2026-05-04T09:01:11.668Z</time></trkpt><trkpt lat="42.4452399" lon="18.7524745"><ele>2.5</ele><time>2026-05-04T09:01:12.666Z</time></trkpt><trkpt lat="42.4451389" lon="18.7524024"><ele>2.0</ele><time>2026-05-04T09:01:13.668Z</time></trkpt><trkpt lat="42.44503" lon="18.7523343"><ele>2.0</ele><time>2026-05-04T09:01:14.664Z</time></trkpt><trkpt lat="42.4449254" lon="18.7522699"><ele>2.0</ele><time>2026-05-04T09:01:15.668Z</time></trkpt><trkpt lat="42.4448241" lon="18.7522167"><ele>2.0</ele><time>2026-05-04T09:01:16.664Z</time></trkpt><trkpt lat="42.4447168" lon="18.7521719"><ele>2.0</ele><time>2026-05-04T09:01:17.665Z</time></trkpt><trkpt lat="42.4446106" lon="18.7521387"><ele>2.0</ele><time>2026-05-04T09:01:18.668Z</time></trkpt><trkpt lat="42.4445003" lon="18.7521295"><ele>2.6</ele><time>2026-05-04T09:01:19.666Z</time></trkpt><trkpt lat="42.4443752" lon="18.7521396"><ele>3.2</ele><time>2026-05-04T09:01:20.666Z</time></trkpt><trkpt lat="42.44428" lon="18.7521373"><ele>3.8</ele><time>2026-05-04T09:01:21.664Z</time></trkpt><trkpt lat="42.4441876" lon="18.7521541"><ele>4.4</ele><time>2026-05-04T09:01:22.666Z</time></trkpt><trkpt lat="42.4441015" lon="18.7521915"><ele>5.0</ele><time>2026-05-04T09:01:23.667Z</time></trkpt><trkpt lat="42.4440243" lon="18.75224"><ele>5.0</ele><time>2026-05-04T09:01:24.666Z</time></trkpt><trkpt lat="42.4439578" lon="18.7522992"><ele>5.0</ele><time>2026-05-04T09:01:25.668Z</time></trkpt><trkpt lat="42.4438935" lon="18.7523645"><ele>5.0</ele><time>2026-05-04T09:01:26.666Z</time></trkpt><trkpt lat="42.4438253" lon="18.7524367"><ele>5.0</ele><time>2026-05-04T09:01:27.664Z</time></trkpt><trkpt lat="42.4437721" lon="18.752495"><ele>5.0</ele><time>2026-05-04T09:01:28.665Z</time></trkpt><trkpt lat="42.4436702" lon="18.7526245"><ele>5.0</ele><time>2026-05-04T09:01:30.667Z</time></trkpt><trkpt lat="42.443623" lon="18.7527046"><ele>5.0</ele><time>2026-05-04T09:01:31.667Z</time></trkpt><trkpt lat="42.4435811" lon="18.7528089"><ele>5.0</ele><time>2026-05-04T09:01:32.667Z</time></trkpt><trkpt lat="42.4435272" lon="18.7529171"><ele>5.0</ele><time>2026-05-04T09:01:33.668Z</time></trkpt><trkpt lat="42.4434874" lon="18.7530126"><ele>5.0</ele><time>2026-05-04T09:01:34.667Z</time></trkpt><trkpt lat="42.4434463" lon="18.7531153"><ele>5.0</ele><time>2026-05-04T09:01:35.666Z</time></trkpt><trkpt lat="42.4434104" lon="18.7532114"><ele>5.0</ele><time>2026-05-04T09:01:36.665Z</time></trkpt><trkpt lat="42.4433716" lon="18.7533028"><ele>5.0</ele><time>2026-05-04T09:01:37.668Z</time></trkpt><trkpt lat="42.4433387" lon="18.7533888"><ele>5.0</ele><time>2026-05-04T09:01:38.667Z</time></trkpt><trkpt lat="42.4433075" lon="18.753477"><ele>5.0</ele><time>2026-05-04T09:01:39.668Z</time></trkpt><trkpt lat="42.4432773" lon="18.7535679"><ele>5.0</ele><time>2026-05-04T09:01:40.668Z</time></trkpt><trkpt lat="42.4432451" lon="18.7536717"><ele>5.0</ele><time>2026-05-04T09:01:41.667Z</time></trkpt><trkpt lat="42.4431681" lon="18.7537946"><ele>4.666666666666667</ele><time>2026-05-04T09:01:43.668Z</time></trkpt><trkpt lat="42.4430894" lon="18.7538539"><ele>4.333333333333334</ele><time>2026-05-04T09:01:44.667Z</time></trkpt><trkpt lat="42.4430105" lon="18.7539092"><ele>4.0</ele><time>2026-05-04T09:01:45.665Z</time></trkpt><trkpt lat="42.4429374" lon="18.7539647"><ele>3.666666666666667</ele><time>2026-05-04T09:01:46.664Z</time></trkpt><trkpt lat="42.4428592" lon="18.754017"><ele>3.3333333333333335</ele><time>2026-05-04T09:01:47.666Z</time></trkpt><trkpt lat="42.4427926" lon="18.7540919"><ele>3.0</ele><time>2026-05-04T09:01:48.664Z</time></trkpt><trkpt lat="42.4427278" lon="18.7541688"><ele>3.833333333333333</ele><time>2026-05-04T09:01:49.665Z</time></trkpt><trkpt lat="42.4426587" lon="18.7542461"><ele>4.666666666666666</ele><time>2026-05-04T09:01:50.667Z</time></trkpt><trkpt lat="42.4425928" lon="18.7543091"><ele>5.5</ele><time>2026-05-04T09:01:51.664Z</time></trkpt><trkpt lat="42.442524" lon="18.7543736"><ele>6.333333333333333</ele><time>2026-05-04T09:01:52.667Z</time></trkpt><trkpt lat="42.4424604" lon="18.7544332"><ele>7.166666666666666</ele><time>2026-05-04T09:01:53.666Z</time></trkpt><trkpt lat="42.4424031" lon="18.7544787"><ele>8.0</ele><time>2026-05-04T09:01:54.668Z</time></trkpt><trkpt lat="42.4423401" lon="18.7545224"><ele>7.666666666666666</ele><time>2026-05-04T09:01:55.667Z</time></trkpt><trkpt lat="42.4422741" lon="18.7545543"><ele>7.333333333333333</ele><time>2026-05-04T09:01:56.668Z</time></trkpt><trkpt lat="42.4422023" lon="18.7545742"><ele>7.0</ele><time>2026-05-04T09:01:57.667Z</time></trkpt><trkpt lat="42.4421238" lon="18.754586"><ele>6.666666666666666</ele><time>2026-05-04T09:01:58.668Z</time></trkpt><trkpt lat="42.4420377" lon="18.7545965"><ele>6.333333333333333</ele><time>2026-05-04T09:01:59.668Z</time></trkpt><trkpt lat="42.4419471" lon="18.7546047"><ele>6.0</ele><time>2026-05-04T09:02:00.667Z</time></trkpt><trkpt lat="42.441854" lon="18.7546016"><ele>6.0</ele><time>2026-05-04T09:02:01.665Z</time></trkpt><trkpt lat="42.44177" lon="18.7545985"><ele>6.0</ele><time>2026-05-04T09:02:02.667Z</time></trkpt><trkpt lat="42.4416859" lon="18.7545933"><ele>6.0</ele><time>2026-05-04T09:02:03.667Z</time></trkpt><trkpt lat="42.4416044" lon="18.7545801"><ele>6.0</ele><time>2026-05-04T09:02:04.667Z</time></trkpt><trkpt lat="42.4415334" lon="18.7545583"><ele>6.0</ele><time>2026-05-04T09:02:05.667Z</time></trkpt><trkpt lat="42.4414466" lon="18.7545229"><ele>6.0</ele><time>2026-05-04T09:02:06.668Z</time></trkpt><trkpt lat="42.4413701" lon="18.7544786"><ele>5.3999999999999995</ele><time>2026-05-04T09:02:07.667Z</time></trkpt><trkpt lat="42.441285" lon="18.7544292"><ele>4.8</ele><time>2026-05-04T09:02:08.667Z</time></trkpt><trkpt lat="42.4411998" lon="18.7543774"><ele>4.199999999999999</ele><time>2026-05-04T09:02:09.667Z</time></trkpt><trkpt lat="42.4411139" lon="18.7543223"><ele>3.5999999999999996</ele><time>2026-05-04T09:02:10.667Z</time></trkpt><trkpt lat="42.4410234" lon="18.7542654"><ele>3.0</ele><time>2026-05-04T09:02:11.666Z</time></trkpt><trkpt lat="42.4409279" lon="18.7542073"><ele>2.8</ele><time>2026-05-04T09:02:12.666Z</time></trkpt><trkpt lat="42.4408357" lon="18.7541459"><ele>2.5999999999999996</ele><time>2026-05-04T09:02:13.668Z</time></trkpt><trkpt lat="42.4407426" lon="18.7540852"><ele>2.4000000000000004</ele><time>2026-05-04T09:02:14.668Z</time></trkpt><trkpt lat="42.4406415" lon="18.7540147"><ele>2.2</ele><time>2026-05-04T09:02:15.666Z</time></trkpt><trkpt lat="42.4405385" lon="18.7539484"><ele>2.0</ele><time>2026-05-04T09:02:16.665Z</time></trkpt><trkpt lat="42.4404344" lon="18.7538897"><ele>2.0</ele><time>2026-05-04T09:02:17.668Z</time></trkpt><trkpt lat="42.4403308" lon="18.753821"><ele>2.0</ele><time>2026-05-04T09:02:18.667Z</time></trkpt><trkpt lat="42.4402294" lon="18.7537581"><ele>2.0</ele><time>2026-05-04T09:02:19.667Z</time></trkpt><trkpt lat="42.4401261" lon="18.7536926"><ele>2.0</ele><time>2026-05-04T09:02:20.668Z</time></trkpt><trkpt lat="42.4400243" lon="18.7536217"><ele>2.0</ele><time>2026-05-04T09:02:21.668Z</time></trkpt><trkpt lat="42.4399279" lon="18.7535479"><ele>2.0</ele><time>2026-05-04T09:02:22.668Z</time></trkpt><trkpt lat="42.4398325" lon="18.7534783"><ele>2.0</ele><time>2026-05-04T09:02:23.667Z</time></trkpt><trkpt lat="42.4397398" lon="18.7534127"><ele>2.0</ele><time>2026-05-04T09:02:24.668Z</time></trkpt><trkpt lat="42.4396564" lon="18.7533683"><ele>2.0</ele><time>2026-05-04T09:02:25.666Z</time></trkpt><trkpt lat="42.4395859" lon="18.753345"><ele>3.4000000000000004</ele><time>2026-05-04T09:02:26.664Z</time></trkpt><trkpt lat="42.4394813" lon="18.7533536"><ele>4.800000000000001</ele><time>2026-05-04T09:02:28.667Z</time></trkpt><trkpt lat="42.4393961" lon="18.75344"><ele>6.2</ele><time>2026-05-04T09:02:30.666Z</time></trkpt><trkpt lat="42.4393371" lon="18.7535265"><ele>7.6000000000000005</ele><time>2026-05-04T09:02:31.667Z</time></trkpt><trkpt lat="42.4392814" lon="18.7536134"><ele>9.0</ele><time>2026-05-04T09:02:32.663Z</time></trkpt><trkpt lat="42.4392226" lon="18.7537124"><ele>9.0</ele><time>2026-05-04T09:02:33.665Z</time></trkpt><trkpt lat="42.4391651" lon="18.7538194"><ele>9.0</ele><time>2026-05-04T09:02:34.665Z</time></trkpt><trkpt lat="42.439111" lon="18.7539183"><ele>9.0</ele><time>2026-05-04T09:02:35.667Z</time></trkpt><trkpt lat="42.4390518" lon="18.7540091"><ele>9.0</ele><time>2026-05-04T09:02:36.668Z</time></trkpt><trkpt lat="42.4389953" lon="18.7541007"><ele>9.0</ele><time>2026-05-04T09:02:37.668Z</time></trkpt><trkpt lat="42.4389359" lon="18.7541844"><ele>9.0</ele><time>2026-05-04T09:02:38.666Z</time></trkpt><trkpt lat="42.4388792" lon="18.7542641"><ele>9.0</ele><time>2026-05-04T09:02:39.668Z</time></trkpt><trkpt lat="42.438822" lon="18.7543322"><ele>9.0</ele><time>2026-05-04T09:02:40.668Z</time></trkpt><trkpt lat="42.4387558" lon="18.7543958"><ele>9.0</ele><time>2026-05-04T09:02:41.666Z</time></trkpt><trkpt lat="42.4386811" lon="18.7544515"><ele>9.0</ele><time>2026-05-04T09:02:42.663Z</time></trkpt><trkpt lat="42.4386036" lon="18.7545058"><ele>9.0</ele><time>2026-05-04T09:02:43.666Z</time></trkpt><trkpt lat="42.4385222" lon="18.75456"><ele>8.4</ele><time>2026-05-04T09:02:44.666Z</time></trkpt><trkpt lat="42.4384314" lon="18.7546222"><ele>7.800000000000001</ele><time>2026-05-04T09:02:45.665Z</time></trkpt><trkpt lat="42.438337" lon="18.7546811"><ele>7.199999999999999</ele><time>2026-05-04T09:02:46.663Z</time></trkpt><trkpt lat="42.4382366" lon="18.754745"><ele>6.6</ele><time>2026-05-04T09:02:47.668Z</time></trkpt><trkpt lat="42.4381382" lon="18.7547986"><ele>6.0</ele><time>2026-05-04T09:02:48.668Z</time></trkpt><trkpt lat="42.4380504" lon="18.7548609"><ele>7.4</ele><time>2026-05-04T09:02:49.668Z</time></trkpt><trkpt lat="42.4379547" lon="18.7549057"><ele>8.8</ele><time>2026-05-04T09:02:50.668Z</time></trkpt><trkpt lat="42.4378629" lon="18.7549476"><ele>10.200000000000001</ele><time>2026-05-04T09:02:51.667Z</time></trkpt><trkpt lat="42.4377664" lon="18.7549914"><ele>11.6</ele><time>2026-05-04T09:02:52.666Z</time></trkpt><trkpt lat="42.4376761" lon="18.7550338"><ele>13.0</ele><time>2026-05-04T09:02:53.667Z</time></trkpt><trkpt lat="42.4375898" lon="18.7550835"><ele>12.999999999999998</ele><time>2026-05-04T09:02:54.666Z</time></trkpt><trkpt lat="42.4375063" lon="18.7551381"><ele>13.0</ele><time>2026-05-04T09:02:55.667Z</time></trkpt><trkpt lat="42.4374355" lon="18.7552004"><ele>13.0</ele><time>2026-05-04T09:02:56.667Z</time></trkpt><trkpt lat="42.437375" lon="18.755281"><ele>13.0</ele><time>2026-05-04T09:02:57.665Z</time></trkpt><trkpt lat="42.4373236" lon="18.7553705"><ele>12.999999999999998</ele><time>2026-05-04T09:02:58.667Z</time></trkpt><trkpt lat="42.4372749" lon="18.7554597"><ele>13.0</ele><time>2026-05-04T09:02:59.667Z</time></trkpt><trkpt lat="42.4372218" lon="18.7555455"><ele>12.499999999999998</ele><time>2026-05-04T09:03:00.666Z</time></trkpt><trkpt lat="42.4371608" lon="18.7556046"><ele>12.0</ele><time>2026-05-04T09:03:01.668Z</time></trkpt><trkpt lat="42.4370997" lon="18.7556674"><ele>11.5</ele><time>2026-05-04T09:03:02.667Z</time></trkpt><trkpt lat="42.437036" lon="18.7557296"><ele>11.0</ele><time>2026-05-04T09:03:03.665Z</time></trkpt><trkpt lat="42.4369715" lon="18.7557926"><ele>10.5</ele><time>2026-05-04T09:03:04.667Z</time></trkpt><trkpt lat="42.4369014" lon="18.7558479"><ele>10.0</ele><time>2026-05-04T09:03:05.666Z</time></trkpt><trkpt lat="42.4368283" lon="18.7559009"><ele>10.0</ele><time>2026-05-04T09:03:06.666Z</time></trkpt><trkpt lat="42.4367574" lon="18.7559464"><ele>10.0</ele><time>2026-05-04T09:03:07.666Z</time></trkpt><trkpt lat="42.43668" lon="18.7559881"><ele>10.0</ele><time>2026-05-04T09:03:08.668Z</time></trkpt><trkpt lat="42.4366037" lon="18.7560255"><ele>10.0</ele><time>2026-05-04T09:03:09.668Z</time></trkpt><trkpt lat="42.4365365" lon="18.7560617"><ele>10.0</ele><time>2026-05-04T09:03:10.668Z</time></trkpt><trkpt lat="42.4364704" lon="18.7560961"><ele>10.0</ele><time>2026-05-04T09:03:11.667Z</time></trkpt><trkpt lat="42.4364086" lon="18.7561284"><ele>9.571428571428571</ele><time>2026-05-04T09:03:12.668Z</time></trkpt><trkpt lat="42.4363466" lon="18.7561619"><ele>9.142857142857142</ele><time>2026-05-04T09:03:13.667Z</time></trkpt><trkpt lat="42.4362826" lon="18.7561974"><ele>8.714285714285715</ele><time>2026-05-04T09:03:14.668Z</time></trkpt><trkpt lat="42.4362167" lon="18.7562329"><ele>8.285714285714285</ele><time>2026-05-04T09:03:15.668Z</time></trkpt><trkpt lat="42.4361443" lon="18.756269"><ele>7.857142857142858</ele><time>2026-05-04T09:03:16.665Z</time></trkpt><trkpt lat="42.4360721" lon="18.7563039"><ele>7.428571428571429</ele><time>2026-05-04T09:03:17.666Z</time></trkpt><trkpt lat="42.4359954" lon="18.7563358"><ele>7.0</ele><time>2026-05-04T09:03:18.668Z</time></trkpt><trkpt lat="42.4359157" lon="18.7563732"><ele>7.000000000000001</ele><time>2026-05-04T09:03:19.667Z</time></trkpt><trkpt lat="42.4358321" lon="18.7564134"><ele>7.0</ele><time>2026-05-04T09:03:20.667Z</time></trkpt><trkpt lat="42.4357681" lon="18.7564419"><ele>7.0</ele><time>2026-05-04T09:03:21.666Z</time></trkpt><trkpt lat="42.4356931" lon="18.7564835"><ele>7.0</ele><time>2026-05-04T09:03:22.666Z</time></trkpt><trkpt lat="42.4356249" lon="18.7565246"><ele>7.000000000000001</ele><time>2026-05-04T09:03:23.668Z</time></trkpt><trkpt lat="42.4355628" lon="18.7565679"><ele>7.0</ele><time>2026-05-04T09:03:24.666Z</time></trkpt><trkpt lat="42.4355016" lon="18.7566139"><ele>6.666666666666667</ele><time>2026-05-04T09:03:25.667Z</time></trkpt><trkpt lat="42.4354374" lon="18.756661"><ele>6.333333333333334</ele><time>2026-05-04T09:03:26.667Z</time></trkpt><trkpt lat="42.4353713" lon="18.7567083"><ele>6.0</ele><time>2026-05-04T09:03:27.667Z</time></trkpt><trkpt lat="42.4353045" lon="18.7567492"><ele>5.666666666666667</ele><time>2026-05-04T09:03:28.665Z</time></trkpt><trkpt lat="42.4352219" lon="18.7568032"><ele>5.333333333333334</ele><time>2026-05-04T09:03:29.665Z</time></trkpt><trkpt lat="42.4351268" lon="18.7568407"><ele>5.0</ele><time>2026-05-04T09:03:30.666Z</time></trkpt><trkpt lat="42.435015" lon="18.756871"><ele>5.0</ele><time>2026-05-04T09:03:31.666Z</time></trkpt><trkpt lat="42.434901" lon="18.7568898"><ele>5.0</ele><time>2026-05-04T09:03:32.668Z</time></trkpt><trkpt lat="42.4347855" lon="18.7568972"><ele>5.0</ele><time>2026-05-04T09:03:33.666Z</time></trkpt><trkpt lat="42.4346826" lon="18.7569192"><ele>5.0</ele><time>2026-05-04T09:03:34.668Z</time></trkpt><trkpt lat="42.4345793" lon="18.7569617"><ele>5.0</ele><time>2026-05-04T09:03:35.664Z</time></trkpt><trkpt lat="42.4344817" lon="18.7570149"><ele>4.6</ele><time>2026-05-04T09:03:36.666Z</time></trkpt><trkpt lat="42.4343963" lon="18.7570773"><ele>4.2</ele><time>2026-05-04T09:03:37.668Z</time></trkpt><trkpt lat="42.4343179" lon="18.7571525"><ele>3.8</ele><time>2026-05-04T09:03:38.667Z</time></trkpt><trkpt lat="42.4342436" lon="18.7572395"><ele>3.4</ele><time>2026-05-04T09:03:39.666Z</time></trkpt><trkpt lat="42.4341769" lon="18.757323"><ele>3.0</ele><time>2026-05-04T09:03:40.668Z</time></trkpt><trkpt lat="42.434104" lon="18.7574058"><ele>3.0</ele><time>2026-05-04T09:03:41.666Z</time></trkpt><trkpt lat="42.4340311" lon="18.7575018"><ele>3.0</ele><time>2026-05-04T09:03:42.666Z</time></trkpt><trkpt lat="42.4339647" lon="18.7575867"><ele>3.0</ele><time>2026-05-04T09:03:43.666Z</time></trkpt><trkpt lat="42.4338898" lon="18.757662"><ele>3.0</ele><time>2026-05-04T09:03:44.666Z</time></trkpt><trkpt lat="42.4338118" lon="18.7577321"><ele>3.0</ele><time>2026-05-04T09:03:45.666Z</time></trkpt><trkpt lat="42.4337309" lon="18.7577959"><ele>2.6666666666666665</ele><time>2026-05-04T09:03:46.663Z</time></trkpt><trkpt lat="42.4336516" lon="18.7578447"><ele>2.3333333333333335</ele><time>2026-05-04T09:03:47.664Z</time></trkpt><trkpt lat="42.4335696" lon="18.7578842"><ele>2.0</ele><time>2026-05-04T09:03:48.664Z</time></trkpt><trkpt lat="42.4334895" lon="18.7579146"><ele>1.6666666666666665</ele><time>2026-05-04T09:03:49.665Z</time></trkpt><trkpt lat="42.4333939" lon="18.7579185"><ele>1.3333333333333333</ele><time>2026-05-04T09:03:50.666Z</time></trkpt><trkpt lat="42.4333002" lon="18.7579047"><ele>1.0</ele><time>2026-05-04T09:03:51.666Z</time></trkpt><trkpt lat="42.4331964" lon="18.7578753"><ele>1.0</ele><time>2026-05-04T09:03:52.664Z</time></trkpt><trkpt lat="42.433106" lon="18.7578384"><ele>1.0</ele><time>2026-05-04T09:03:53.667Z</time></trkpt><trkpt lat="42.4330009" lon="18.757771"><ele>1.0</ele><time>2026-05-04T09:03:54.665Z</time></trkpt><trkpt lat="42.4329006" lon="18.7576956"><ele>1.0</ele><time>2026-05-04T09:03:55.666Z</time></trkpt><trkpt lat="42.4328086" lon="18.7576443"><ele>1.0</ele><time>2026-05-04T09:03:56.667Z</time></trkpt><trkpt lat="42.4327346" lon="18.7576338"><ele>2.1666666666666665</ele><time>2026-05-04T09:03:57.662Z</time></trkpt><trkpt lat="42.4326678" lon="18.7576271"><ele>3.333333333333333</ele><time>2026-05-04T09:03:58.665Z</time></trkpt><trkpt lat="42.432597" lon="18.7576164"><ele>4.5</ele><time>2026-05-04T09:03:59.663Z</time></trkpt><trkpt lat="42.4324886" lon="18.7575852"><ele>5.666666666666666</ele><time>2026-05-04T09:04:01.663Z</time></trkpt><trkpt lat="42.4324159" lon="18.7575843"><ele>6.833333333333333</ele><time>2026-05-04T09:04:02.667Z</time></trkpt><trkpt lat="42.4322928" lon="18.757573"><ele>8.0</ele><time>2026-05-04T09:04:04.665Z</time></trkpt><trkpt lat="42.4322168" lon="18.7575841"><ele>8.0</ele><time>2026-05-04T09:04:05.667Z</time></trkpt><trkpt lat="42.4321504" lon="18.7575902"><ele>7.999999999999999</ele><time>2026-05-04T09:04:06.664Z</time></trkpt><trkpt lat="42.4320877" lon="18.7576271"><ele>8.0</ele><time>2026-05-04T09:04:07.667Z</time></trkpt><trkpt lat="42.4320245" lon="18.7576748"><ele>8.0</ele><time>2026-05-04T09:04:08.667Z</time></trkpt><trkpt lat="42.4319631" lon="18.7577183"><ele>7.999999999999999</ele><time>2026-05-04T09:04:09.667Z</time></trkpt><trkpt lat="42.431898" lon="18.7577592"><ele>8.0</ele><time>2026-05-04T09:04:10.665Z</time></trkpt><trkpt lat="42.4318058" lon="18.7578058"><ele>8.0</ele><time>2026-05-04T09:04:11.664Z</time></trkpt><trkpt lat="42.4317199" lon="18.7578154"><ele>7.800000000000001</ele><time>2026-05-04T09:04:12.666Z</time></trkpt><trkpt lat="42.4316309" lon="18.7578192"><ele>7.6000000000000005</ele><time>2026-05-04T09:04:13.666Z</time></trkpt><trkpt lat="42.4315374" lon="18.7578271"><ele>7.3999999999999995</ele><time>2026-05-04T09:04:14.664Z</time></trkpt><trkpt lat="42.4314438" lon="18.7578324"><ele>7.199999999999999</ele><time>2026-05-04T09:04:15.668Z</time></trkpt><trkpt lat="42.4313475" lon="18.7578355"><ele>7.0</ele><time>2026-05-04T09:04:16.665Z</time></trkpt><trkpt lat="42.4312543" lon="18.7578406"><ele>7.0</ele><time>2026-05-04T09:04:17.667Z</time></trkpt><trkpt lat="42.4311633" lon="18.7578556"><ele>6.999999999999999</ele><time>2026-05-04T09:04:18.663Z</time></trkpt><trkpt lat="42.431071" lon="18.7578823"><ele>6.999999999999999</ele><time>2026-05-04T09:04:19.662Z</time></trkpt><trkpt lat="42.4309795" lon="18.7579252"><ele>7.0</ele><time>2026-05-04T09:04:20.664Z</time></trkpt><trkpt lat="42.4308937" lon="18.757974"><ele>7.0</ele><time>2026-05-04T09:04:21.666Z</time></trkpt><trkpt lat="42.4308014" lon="18.7580348"><ele>7.000000000000001</ele><time>2026-05-04T09:04:22.665Z</time></trkpt><trkpt lat="42.4307097" lon="18.7580973"><ele>7.0</ele><time>2026-05-04T09:04:23.667Z</time></trkpt><trkpt lat="42.4306191" lon="18.7581525"><ele>7.0</ele><time>2026-05-04T09:04:24.665Z</time></trkpt><trkpt lat="42.4305381" lon="18.7582013"><ele>7.0</ele><time>2026-05-04T09:04:25.666Z</time></trkpt><trkpt lat="42.4304665" lon="18.7582447"><ele>7.000000000000001</ele><time>2026-05-04T09:04:26.662Z</time></trkpt><trkpt lat="42.4303955" lon="18.7582872"><ele>7.0</ele><time>2026-05-04T09:04:27.666Z</time></trkpt><trkpt lat="42.430313" lon="18.7583103"><ele>7.6</ele><time>2026-05-04T09:04:28.667Z</time></trkpt><trkpt lat="42.4302276" lon="18.7583166"><ele>8.2</ele><time>2026-05-04T09:04:29.667Z</time></trkpt><trkpt lat="42.4301305" lon="18.7583193"><ele>8.8</ele><time>2026-05-04T09:04:30.665Z</time></trkpt><trkpt lat="42.4300209" lon="18.7583167"><ele>9.4</ele><time>2026-05-04T09:04:31.667Z</time></trkpt><trkpt lat="42.4299107" lon="18.7583119"><ele>10.0</ele><time>2026-05-04T09:04:32.667Z</time></trkpt><trkpt lat="42.429797" lon="18.7583069"><ele>10.0</ele><time>2026-05-04T09:04:33.666Z</time></trkpt><trkpt lat="42.4296846" lon="18.7583008"><ele>10.0</ele><time>2026-05-04T09:04:34.664Z</time></trkpt><trkpt lat="42.4295811" lon="18.7582976"><ele>10.0</ele><time>2026-05-04T09:04:35.667Z</time></trkpt><trkpt lat="42.4294811" lon="18.7582956"><ele>10.0</ele><time>2026-05-04T09:04:36.667Z</time></trkpt><trkpt lat="42.4293797" lon="18.7582979"><ele>10.0</ele><time>2026-05-04T09:04:37.666Z</time></trkpt><trkpt lat="42.4292678" lon="18.7582938"><ele>10.5</ele><time>2026-05-04T09:04:38.666Z</time></trkpt><trkpt lat="42.4291388" lon="18.7582909"><ele>11.0</ele><time>2026-05-04T09:04:39.666Z</time></trkpt><trkpt lat="42.4290137" lon="18.7582971"><ele>11.5</ele><time>2026-05-04T09:04:40.667Z</time></trkpt><trkpt lat="42.4288828" lon="18.7582969"><ele>12.0</ele><time>2026-05-04T09:04:41.666Z</time></trkpt><trkpt lat="42.4287505" lon="18.7583233"><ele>12.0</ele><time>2026-05-04T09:04:42.665Z</time></trkpt><trkpt lat="42.4286212" lon="18.758359"><ele>12.0</ele><time>2026-05-04T09:04:43.665Z</time></trkpt><trkpt lat="42.4284951" lon="18.758399"><ele>12.0</ele><time>2026-05-04T09:04:44.667Z</time></trkpt><trkpt lat="42.42837" lon="18.7584424"><ele>12.0</ele><time>2026-05-04T09:04:45.665Z</time></trkpt><trkpt lat="42.4282547" lon="18.758487"><ele>12.0</ele><time>2026-05-04T09:04:46.667Z</time></trkpt><trkpt lat="42.4281416" lon="18.7585314"><ele>12.0</ele><time>2026-05-04T09:04:47.666Z</time></trkpt><trkpt lat="42.4280325" lon="18.7585787"><ele>12.0</ele><time>2026-05-04T09:04:48.664Z</time></trkpt><trkpt lat="42.4279279" lon="18.7586245"><ele>12.0</ele><time>2026-05-04T09:04:49.665Z</time></trkpt><trkpt lat="42.4278219" lon="18.7586662"><ele>10.0</ele><time>2026-05-04T09:04:50.667Z</time></trkpt><trkpt lat="42.4277375" lon="18.7587088"><ele>7.999999999999999</ele><time>2026-05-04T09:04:51.666Z</time></trkpt><trkpt lat="42.4276513" lon="18.7587294"><ele>6.0</ele><time>2026-05-04T09:04:52.666Z</time></trkpt><trkpt lat="42.4275434" lon="18.7587203"><ele>4.0</ele><time>2026-05-04T09:04:53.666Z</time></trkpt><trkpt lat="42.427438" lon="18.7587405"><ele>2.0</ele><time>2026-05-04T09:04:54.666Z</time></trkpt><trkpt lat="42.427339" lon="18.7587545"><ele>2.0</ele><time>2026-05-04T09:04:55.668Z</time></trkpt><trkpt lat="42.4272396" lon="18.7587729"><ele>2.0</ele><time>2026-05-04T09:04:56.667Z</time></trkpt><trkpt lat="42.4271413" lon="18.7587864"><ele>2.0</ele><time>2026-05-04T09:04:57.666Z</time></trkpt><trkpt lat="42.427034" lon="18.7588079"><ele>2.0</ele><time>2026-05-04T09:04:58.666Z</time></trkpt><trkpt lat="42.4269312" lon="18.7588184"><ele>2.0</ele><time>2026-05-04T09:04:59.667Z</time></trkpt><trkpt lat="42.42683" lon="18.7588304"><ele>1.8</ele><time>2026-05-04T09:05:00.665Z</time></trkpt><trkpt lat="42.4267381" lon="18.7588433"><ele>1.6</ele><time>2026-05-04T09:05:01.666Z</time></trkpt><trkpt lat="42.4266454" lon="18.7588561"><ele>1.4000000000000001</ele><time>2026-05-04T09:05:02.666Z</time></trkpt><trkpt lat="42.4265518" lon="18.7588758"><ele>1.2000000000000002</ele><time>2026-05-04T09:05:03.666Z</time></trkpt><trkpt lat="42.4264669" lon="18.7588874"><ele>1.0</ele><time>2026-05-04T09:05:04.667Z</time></trkpt><trkpt lat="42.4263695" lon="18.7589095"><ele>2.4000000000000004</ele><time>2026-05-04T09:05:05.667Z</time></trkpt><trkpt lat="42.4262818" lon="18.7589187"><ele>3.8000000000000003</ele><time>2026-05-04T09:05:06.666Z</time></trkpt><trkpt lat="42.4261965" lon="18.7589354"><ele>5.200000000000001</ele><time>2026-05-04T09:05:07.663Z</time></trkpt><trkpt lat="42.4261089" lon="18.7589539"><ele>6.6000000000000005</ele><time>2026-05-04T09:05:08.663Z</time></trkpt><trkpt lat="42.4260164" lon="18.7589927"><ele>8.0</ele><time>2026-05-04T09:05:09.665Z</time></trkpt><trkpt lat="42.4259167" lon="18.7590318"><ele>8.0</ele><time>2026-05-04T09:05:10.665Z</time></trkpt><trkpt lat="42.4258176" lon="18.7590786"><ele>8.0</ele><time>2026-05-04T09:05:11.665Z</time></trkpt><trkpt lat="42.4257325" lon="18.7591328"><ele>8.0</ele><time>2026-05-04T09:05:12.666Z</time></trkpt><trkpt lat="42.4256521" lon="18.759192"><ele>8.0</ele><time>2026-05-04T09:05:13.663Z</time></trkpt><trkpt lat="42.4255771" lon="18.7592502"><ele>8.0</ele><time>2026-05-04T09:05:14.664Z</time></trkpt><trkpt lat="42.4255071" lon="18.7593175"><ele>7.333333333333333</ele><time>2026-05-04T09:05:15.666Z</time></trkpt><trkpt lat="42.4254412" lon="18.7593949"><ele>6.666666666666666</ele><time>2026-05-04T09:05:16.665Z</time></trkpt><trkpt lat="42.4253817" lon="18.7594879"><ele>6.0</ele><time>2026-05-04T09:05:17.664Z</time></trkpt><trkpt lat="42.4253255" lon="18.7595818"><ele>5.333333333333333</ele><time>2026-05-04T09:05:18.668Z</time></trkpt><trkpt lat="42.4252676" lon="18.7596774"><ele>4.666666666666666</ele><time>2026-05-04T09:05:19.665Z</time></trkpt><trkpt lat="42.425206" lon="18.7597656"><ele>4.0</ele><time>2026-05-04T09:05:20.667Z</time></trkpt><trkpt lat="42.4251477" lon="18.7598549"><ele>3.9999999999999996</ele><time>2026-05-04T09:05:21.666Z</time></trkpt><trkpt lat="42.4250923" lon="18.7599369"><ele>4.0</ele><time>2026-05-04T09:05:22.665Z</time></trkpt><trkpt lat="42.4250293" lon="18.7600164"><ele>4.0</ele><time>2026-05-04T09:05:23.665Z</time></trkpt><trkpt lat="42.4249619" lon="18.76008"><ele>4.0</ele><time>2026-05-04T09:05:24.666Z</time></trkpt><trkpt lat="42.424896" lon="18.7601338"><ele>3.9999999999999996</ele><time>2026-05-04T09:05:25.668Z</time></trkpt><trkpt lat="42.4248282" lon="18.7601769"><ele>4.0</ele><time>2026-05-04T09:05:26.662Z</time></trkpt><trkpt lat="42.4247586" lon="18.7602182"><ele>3.9999999999999996</ele><time>2026-05-04T09:05:27.665Z</time></trkpt><trkpt lat="42.4246805" lon="18.7602611"><ele>4.0</ele><time>2026-05-04T09:05:28.667Z</time></trkpt><trkpt lat="42.4246067" lon="18.7602919"><ele>4.0</ele><time>2026-05-04T09:05:29.665Z</time></trkpt><trkpt lat="42.4245245" lon="18.7603093"><ele>4.0</ele><time>2026-05-04T09:05:30.666Z</time></trkpt><trkpt lat="42.4244398" lon="18.760318"><ele>3.9999999999999996</ele><time>2026-05-04T09:05:31.664Z</time></trkpt><trkpt lat="42.4243551" lon="18.7603295"><ele>4.0</ele><time>2026-05-04T09:05:32.663Z</time></trkpt><trkpt lat="42.4242712" lon="18.7603392"><ele>3.9999999999999996</ele><time>2026-05-04T09:05:33.667Z</time></trkpt><trkpt lat="42.4241867" lon="18.7603511"><ele>4.0</ele><time>2026-05-04T09:05:34.666Z</time></trkpt><trkpt lat="42.4241054" lon="18.7603758"><ele>4.0</ele><time>2026-05-04T09:05:35.665Z</time></trkpt><trkpt lat="42.4240288" lon="18.7604292"><ele>4.0</ele><time>2026-05-04T09:05:36.667Z</time></trkpt><trkpt lat="42.4239623" lon="18.7604976"><ele>3.9999999999999996</ele><time>2026-05-04T09:05:37.665Z</time></trkpt><trkpt lat="42.4239001" lon="18.7605786"><ele>4.0</ele><time>2026-05-04T09:05:38.666Z</time></trkpt><trkpt lat="42.423839" lon="18.760679"><ele>3.9999999999999996</ele><time>2026-05-04T09:05:39.665Z</time></trkpt><trkpt lat="42.423782" lon="18.7607571"><ele>4.0</ele><time>2026-05-04T09:05:40.666Z</time></trkpt><trkpt lat="42.4237165" lon="18.7608358"><ele>4.0</ele><time>2026-05-04T09:05:41.666Z</time></trkpt><trkpt lat="42.4236563" lon="18.7609179"><ele>4.0</ele><time>2026-05-04T09:05:42.667Z</time></trkpt><trkpt lat="42.4235927" lon="18.7609963"><ele>3.9999999999999996</ele><time>2026-05-04T09:05:43.666Z</time></trkpt><trkpt lat="42.4235257" lon="18.7610702"><ele>4.0</ele><time>2026-05-04T09:05:44.666Z</time></trkpt><trkpt lat="42.4234614" lon="18.7611433"><ele>3.9999999999999996</ele><time>2026-05-04T09:05:45.666Z</time></trkpt><trkpt lat="42.4233995" lon="18.7612237"><ele>4.0</ele><time>2026-05-04T09:05:46.664Z</time></trkpt><trkpt lat="42.4233365" lon="18.7613049"><ele>4.0</ele><time>2026-05-04T09:05:47.664Z</time></trkpt><trkpt lat="42.4232757" lon="18.7613848"><ele>4.0</ele><time>2026-05-04T09:05:48.667Z</time></trkpt><trkpt lat="42.4232105" lon="18.7614599"><ele>3.9999999999999996</ele><time>2026-05-04T09:05:49.666Z</time></trkpt><trkpt lat="42.4231375" lon="18.7615362"><ele>4.0</ele><time>2026-05-04T09:05:50.667Z</time></trkpt><trkpt lat="42.4230798" lon="18.7616078"><ele>4.0</ele><time>2026-05-04T09:05:51.667Z</time></trkpt><trkpt lat="42.4230247" lon="18.7616619"><ele>4.0</ele><time>2026-05-04T09:05:52.665Z</time></trkpt><trkpt lat="42.4228959" lon="18.7617121"><ele>4.0</ele><time>2026-05-04T09:05:54.668Z</time></trkpt><trkpt lat="42.422819" lon="18.7617298"><ele>4.0</ele><time>2026-05-04T09:05:55.668Z</time></trkpt><trkpt lat="42.4227257" lon="18.7617472"><ele>4.0</ele><time>2026-05-04T09:05:56.666Z</time></trkpt><trkpt lat="42.4226309" lon="18.7617615"><ele>3.9999999999999996</ele><time>2026-05-04T09:05:57.667Z</time></trkpt><trkpt lat="42.4225448" lon="18.7617832"><ele>4.0</ele><time>2026-05-04T09:05:58.667Z</time></trkpt><trkpt lat="42.4224617" lon="18.7618054"><ele>4.0</ele><time>2026-05-04T09:05:59.668Z</time></trkpt><trkpt lat="42.4223751" lon="18.7618175"><ele>4.0</ele><time>2026-05-04T09:06:00.668Z</time></trkpt><trkpt lat="42.4223108" lon="18.7618492"><ele>3.9999999999999996</ele><time>2026-05-04T09:06:01.666Z</time></trkpt><trkpt lat="42.4222455" lon="18.7618972"><ele>4.0</ele><time>2026-05-04T09:06:02.667Z</time></trkpt><trkpt lat="42.4221812" lon="18.7619569"><ele>4.0</ele><time>2026-05-04T09:06:03.667Z</time></trkpt><trkpt lat="42.4221252" lon="18.7620309"><ele>3.9999999999999996</ele><time>2026-05-04T09:06:04.667Z</time></trkpt><trkpt lat="42.422084" lon="18.7621007"><ele>4.0</ele><time>2026-05-04T09:06:05.665Z</time></trkpt><trkpt lat="42.4220427" lon="18.7621708"><ele>4.0</ele><time>2026-05-04T09:06:06.664Z</time></trkpt><trkpt lat="42.4220091" lon="18.7622478"><ele>3.9999999999999996</ele><time>2026-05-04T09:06:07.667Z</time></trkpt><trkpt lat="42.4219728" lon="18.762329"><ele>4.0</ele><time>2026-05-04T09:06:08.664Z</time></trkpt><trkpt lat="42.4219388" lon="18.7624168"><ele>4.0</ele><time>2026-05-04T09:06:09.666Z</time></trkpt><trkpt lat="42.4218989" lon="18.7625111"><ele>3.9999999999999996</ele><time>2026-05-04T09:06:10.666Z</time></trkpt><trkpt lat="42.4218565" lon="18.7626029"><ele>4.0</ele><time>2026-05-04T09:06:11.668Z</time></trkpt><trkpt lat="42.4218163" lon="18.7627024"><ele>4.0</ele><time>2026-05-04T09:06:12.664Z</time></trkpt><trkpt lat="42.4217714" lon="18.7627995"><ele>4.0</ele><time>2026-05-04T09:06:13.665Z</time></trkpt><trkpt lat="42.4217374" lon="18.7628919"><ele>3.9999999999999996</ele><time>2026-05-04T09:06:14.666Z</time></trkpt><trkpt lat="42.4217077" lon="18.7629757"><ele>4.0</ele><time>2026-05-04T09:06:15.664Z</time></trkpt><trkpt lat="42.4216769" lon="18.7630599"><ele>4.166666666666666</ele><time>2026-05-04T09:06:16.665Z</time></trkpt><trkpt lat="42.42164" lon="18.7631494"><ele>4.333333333333333</ele><time>2026-05-04T09:06:17.665Z</time></trkpt><trkpt lat="42.4216031" lon="18.7632457"><ele>4.5</ele><time>2026-05-04T09:06:18.665Z</time></trkpt><trkpt lat="42.4215672" lon="18.7633508"><ele>4.666666666666667</ele><time>2026-05-04T09:06:19.665Z</time></trkpt><trkpt lat="42.4215385" lon="18.7634506"><ele>4.833333333333334</ele><time>2026-05-04T09:06:20.663Z</time></trkpt><trkpt lat="42.4215143" lon="18.7635574"><ele>5.0</ele><time>2026-05-04T09:06:21.666Z</time></trkpt><trkpt lat="42.4214987" lon="18.7636594"><ele>4.666666666666667</ele><time>2026-05-04T09:06:22.668Z</time></trkpt><trkpt lat="42.421484" lon="18.7637837"><ele>4.333333333333334</ele><time>2026-05-04T09:06:23.666Z</time></trkpt><trkpt lat="42.4214671" lon="18.763889"><ele>4.0</ele><time>2026-05-04T09:06:24.664Z</time></trkpt><trkpt lat="42.4214548" lon="18.7640011"><ele>3.666666666666667</ele><time>2026-05-04T09:06:25.668Z</time></trkpt><trkpt lat="42.4214461" lon="18.7641157"><ele>3.3333333333333335</ele><time>2026-05-04T09:06:26.664Z</time></trkpt><trkpt lat="42.4214449" lon="18.7642293"><ele>3.0</ele><time>2026-05-04T09:06:27.668Z</time></trkpt><trkpt lat="42.4214398" lon="18.7643531"><ele>2.8333333333333335</ele><time>2026-05-04T09:06:28.664Z</time></trkpt><trkpt lat="42.4214382" lon="18.7644632"><ele>2.6666666666666665</ele><time>2026-05-04T09:06:29.667Z</time></trkpt><trkpt lat="42.4214294" lon="18.7645945"><ele>2.5</ele><time>2026-05-04T09:06:30.667Z</time></trkpt><trkpt lat="42.4214157" lon="18.7647174"><ele>2.333333333333333</ele><time>2026-05-04T09:06:31.664Z</time></trkpt><trkpt lat="42.4214086" lon="18.7648298"><ele>2.1666666666666665</ele><time>2026-05-04T09:06:32.666Z</time></trkpt><trkpt lat="42.421405" lon="18.7649462"><ele>2.0</ele><time>2026-05-04T09:06:33.666Z</time></trkpt><trkpt lat="42.4214042" lon="18.7650491"><ele>2.0</ele><time>2026-05-04T09:06:34.666Z</time></trkpt><trkpt lat="42.4214046" lon="18.7651656"><ele>2.0</ele><time>2026-05-04T09:06:35.664Z</time></trkpt><trkpt lat="42.4214095" lon="18.7652866"><ele>2.0</ele><time>2026-05-04T09:06:36.663Z</time></trkpt><trkpt lat="42.421412" lon="18.765415"><ele>2.0</ele><time>2026-05-04T09:06:37.666Z</time></trkpt><trkpt lat="42.4214195" lon="18.7655507"><ele>2.0</ele><time>2026-05-04T09:06:38.666Z</time></trkpt><trkpt lat="42.4214323" lon="18.7656879"><ele>2.0</ele><time>2026-05-04T09:06:39.667Z</time></trkpt><trkpt lat="42.421439" lon="18.7658236"><ele>2.0</ele><time>2026-05-04T09:06:40.666Z</time></trkpt><trkpt lat="42.4214456" lon="18.7659569"><ele>2.0</ele><time>2026-05-04T09:06:41.662Z</time></trkpt><trkpt lat="42.4214612" lon="18.766076"><ele>2.0</ele><time>2026-05-04T09:06:42.665Z</time></trkpt><trkpt lat="42.4214724" lon="18.7662026"><ele>2.0</ele><time>2026-05-04T09:06:43.664Z</time></trkpt><trkpt lat="42.4214789" lon="18.7663302"><ele>2.2</ele><time>2026-05-04T09:06:44.665Z</time></trkpt><trkpt lat="42.4214826" lon="18.7664579"><ele>2.4000000000000004</ele><time>2026-05-04T09:06:45.663Z</time></trkpt><trkpt lat="42.4214877" lon="18.7665821"><ele>2.5999999999999996</ele><time>2026-05-04T09:06:46.666Z</time></trkpt><trkpt lat="42.4214871" lon="18.7667048"><ele>2.8</ele><time>2026-05-04T09:06:47.663Z</time></trkpt><trkpt lat="42.4214941" lon="18.7668239"><ele>3.0</ele><time>2026-05-04T09:06:48.665Z</time></trkpt><trkpt lat="42.4215048" lon="18.7669501"><ele>3.833333333333333</ele><time>2026-05-04T09:06:49.665Z</time></trkpt><trkpt lat="42.4215096" lon="18.7670756"><ele>4.666666666666666</ele><time>2026-05-04T09:06:50.667Z</time></trkpt><trkpt lat="42.4215061" lon="18.7672085"><ele>5.5</ele><time>2026-05-04T09:06:51.668Z</time></trkpt><trkpt lat="42.4215106" lon="18.7673234"><ele>6.333333333333333</ele><time>2026-05-04T09:06:52.665Z</time></trkpt><trkpt lat="42.421513" lon="18.7674322"><ele>7.166666666666666</ele><time>2026-05-04T09:06:53.665Z</time></trkpt><trkpt lat="42.4215186" lon="18.7675309"><ele>8.0</ele><time>2026-05-04T09:06:54.665Z</time></trkpt><trkpt lat="42.4215211" lon="18.7676316"><ele>7.800000000000001</ele><time>2026-05-04T09:06:55.664Z</time></trkpt><trkpt lat="42.4215222" lon="18.7677255"><ele>7.6000000000000005</ele><time>2026-05-04T09:06:56.664Z</time></trkpt><trkpt lat="42.421525" lon="18.7678902"><ele>7.3999999999999995</ele><time>2026-05-04T09:06:58.668Z</time></trkpt><trkpt lat="42.4215311" lon="18.7680309"><ele>7.199999999999999</ele><time>2026-05-04T09:07:00.663Z</time></trkpt><trkpt lat="42.4215348" lon="18.7681706"><ele>7.0</ele><time>2026-05-04T09:07:02.667Z</time></trkpt><trkpt lat="42.4215422" lon="18.768324"><ele>7.0</ele><time>2026-05-04T09:07:04.667Z</time></trkpt><trkpt lat="42.4215552" lon="18.7684286"><ele>7.0</ele><time>2026-05-04T09:07:06.666Z</time></trkpt><trkpt lat="42.4215582" lon="18.7685278"><ele>7.0</ele><time>2026-05-04T09:07:08.665Z</time></trkpt><trkpt lat="42.4215671" lon="18.768624"><ele>7.0</ele><time>2026-05-04T09:07:10.667Z</time></trkpt><trkpt lat="42.4215717" lon="18.7687352"><ele>7.0</ele><time>2026-05-04T09:07:13.663Z</time></trkpt><trkpt lat="42.4215771" lon="18.7688317"><ele>7.0</ele><time>2026-05-04T09:07:17.663Z</time></trkpt><trkpt lat="42.4215731" lon="18.7689195"><ele>7.0</ele><time>2026-05-04T09:07:20.667Z</time></trkpt><trkpt lat="42.4215766" lon="18.7690096"><ele>6.666666666666667</ele><time>2026-05-04T09:07:23.664Z</time></trkpt><trkpt lat="42.4215722" lon="18.7691053"><ele>6.333333333333334</ele><time>2026-05-04T09:07:26.664Z</time></trkpt><trkpt lat="42.4215881" lon="18.7691981"><ele>6.0</ele><time>2026-05-04T09:07:29.668Z</time></trkpt><trkpt lat="42.4216029" lon="18.7693732"><ele>5.666666666666667</ele><time>2026-05-04T09:07:31.668Z</time></trkpt><trkpt lat="42.4216063" lon="18.7694678"><ele>5.333333333333334</ele><time>2026-05-04T09:07:32.668Z</time></trkpt><trkpt lat="42.4216219" lon="18.7696118"><ele>5.0</ele><time>2026-05-04T09:07:34.665Z</time></trkpt><trkpt lat="42.421613" lon="18.7697322"><ele>5.0</ele><time>2026-05-04T09:07:38.668Z</time></trkpt><trkpt lat="42.4215959" lon="18.7698144"><ele>5.0</ele><time>2026-05-04T09:07:41.664Z</time></trkpt><trkpt lat="42.4215672" lon="18.7699173"><ele>5.0</ele><time>2026-05-04T09:07:50.664Z</time></trkpt><trkpt lat="42.4215734" lon="18.7700269"><ele>5.0</ele><time>2026-05-04T09:07:53.667Z</time></trkpt><trkpt lat="42.4216357" lon="18.7701226"><ele>5.0</ele><time>2026-05-04T09:07:56.663Z</time></trkpt><trkpt lat="42.4216968" lon="18.7702404"><ele>5.0</ele><time>2026-05-04T09:07:58.664Z</time></trkpt><trkpt lat="42.4217397" lon="18.7703453"><ele>5.0</ele><time>2026-05-04T09:08:00.665Z</time></trkpt><trkpt lat="42.4217811" lon="18.7704564"><ele>5.0</ele><time>2026-05-04T09:08:02.667Z</time></trkpt><trkpt lat="42.4218327" lon="18.7705561"><ele>5.0</ele><time>2026-05-04T09:08:04.665Z</time></trkpt><trkpt lat="42.4218693" lon="18.7706591"><ele>5.0</ele><time>2026-05-04T09:08:06.666Z</time></trkpt><trkpt lat="42.4219135" lon="18.7707672"><ele>5.0</ele><time>2026-05-04T09:08:08.668Z</time></trkpt><trkpt lat="42.4219709" lon="18.7708989"><ele>5.0</ele><time>2026-05-04T09:08:10.667Z</time></trkpt><trkpt lat="42.4220051" lon="18.7709715"><ele>5.0</ele><time>2026-05-04T09:08:11.664Z</time></trkpt><trkpt lat="42.4220871" lon="18.77112"><ele>5.0</ele><time>2026-05-04T09:08:13.667Z</time></trkpt><trkpt lat="42.4221786" lon="18.771228"><ele>5.0</ele><time>2026-05-04T09:08:15.664Z</time></trkpt><trkpt lat="42.4222705" lon="18.7713049"><ele>5.0</ele><time>2026-05-04T09:08:17.668Z</time></trkpt><trkpt lat="42.4223707" lon="18.7713545"><ele>6.666666666666667</ele><time>2026-05-04T09:08:19.667Z</time></trkpt><trkpt lat="42.42245" lon="18.7713726"><ele>8.333333333333334</ele><time>2026-05-04T09:08:21.666Z</time></trkpt><trkpt lat="42.4225212" lon="18.7713681"><ele>10.0</ele><time>2026-05-04T09:08:36.664Z</time></trkpt><trkpt lat="42.4225842" lon="18.7713621"><ele>11.666666666666666</ele><time>2026-05-04T09:08:38.665Z</time></trkpt><trkpt lat="42.4226743" lon="18.7713398"><ele>13.333333333333334</ele><time>2026-05-04T09:08:40.663Z</time></trkpt><trkpt lat="42.4227588" lon="18.771322"><ele>15.0</ele><time>2026-05-04T09:08:42.662Z</time></trkpt><trkpt lat="42.4228478" lon="18.7713205"><ele>15.0</ele><time>2026-05-04T09:08:45.668Z</time></trkpt><trkpt lat="42.4229257" lon="18.77131"><ele>15.0</ele><time>2026-05-04T09:08:48.667Z</time></trkpt><trkpt lat="42.4230006" lon="18.7712821"><ele>15.0</ele><time>2026-05-04T09:08:51.663Z</time></trkpt><trkpt lat="42.423068" lon="18.7712931"><ele>15.0</ele><time>2026-05-04T09:09:05.667Z</time></trkpt><trkpt lat="42.4231423" lon="18.771287"><ele>15.0</ele><time>2026-05-04T09:09:07.666Z</time></trkpt><trkpt lat="42.4232096" lon="18.7712585"><ele>15.0</ele><time>2026-05-04T09:09:09.664Z</time></trkpt><trkpt lat="42.4233079" lon="18.7711719"><ele>15.6</ele><time>2026-05-04T09:09:11.667Z</time></trkpt><trkpt lat="42.4233801" lon="18.7710793"><ele>16.2</ele><time>2026-05-04T09:09:13.667Z</time></trkpt><trkpt lat="42.4234548" lon="18.7709664"><ele>16.8</ele><time>2026-05-04T09:09:15.667Z</time></trkpt><trkpt lat="42.4235229" lon="18.7708882"><ele>17.4</ele><time>2026-05-04T09:09:17.668Z</time></trkpt><trkpt lat="42.4235705" lon="18.7708016"><ele>18.0</ele><time>2026-05-04T09:09:19.668Z</time></trkpt><trkpt lat="42.4236332" lon="18.7707129"><ele>16.0</ele><time>2026-05-04T09:09:21.667Z</time></trkpt><trkpt lat="42.4236874" lon="18.7706197"><ele>14.0</ele><time>2026-05-04T09:09:23.668Z</time></trkpt><trkpt lat="42.4237329" lon="18.7705447"><ele>12.0</ele><time>2026-05-04T09:09:25.666Z</time></trkpt><trkpt lat="42.4237843" lon="18.7704459"><ele>10.0</ele><time>2026-05-04T09:09:28.668Z</time></trkpt><trkpt lat="42.4238318" lon="18.77038"><ele>8.0</ele><time>2026-05-04T09:09:30.668Z</time></trkpt><trkpt lat="42.4238847" lon="18.7703108"><ele>6.0</ele><time>2026-05-04T09:09:33.668Z</time></trkpt><trkpt lat="42.4239431" lon="18.770261"><ele>6.0</ele><time>2026-05-04T09:09:58.666Z</time></trkpt><trkpt lat="42.4239886" lon="18.7701998"><ele>6.0</ele><time>2026-05-04T09:10:00.663Z</time></trkpt><trkpt lat="42.4240436" lon="18.7701251"><ele>6.0</ele><time>2026-05-04T09:10:02.667Z</time></trkpt><trkpt lat="42.4241217" lon="18.7700165"><ele>6.0</ele><time>2026-05-04T09:10:04.662Z</time></trkpt><trkpt lat="42.4242074" lon="18.7699027"><ele>6.0</ele><time>2026-05-04T09:10:06.667Z</time></trkpt><trkpt lat="42.4242539" lon="18.7698346"><ele>6.0</ele><time>2026-05-04T09:10:07.667Z</time></trkpt><trkpt lat="42.4242994" lon="18.7697584"><ele>5.571428571428571</ele><time>2026-05-04T09:10:08.665Z</time></trkpt><trkpt lat="42.4243466" lon="18.7696968"><ele>5.142857142857142</ele><time>2026-05-04T09:10:09.666Z</time></trkpt><trkpt lat="42.4243978" lon="18.7696346"><ele>4.7142857142857135</ele><time>2026-05-04T09:10:10.664Z</time></trkpt><trkpt lat="42.4244514" lon="18.7695687"><ele>4.285714285714286</ele><time>2026-05-04T09:10:11.664Z</time></trkpt><trkpt lat="42.4245047" lon="18.7694957"><ele>3.8571428571428568</ele><time>2026-05-04T09:10:12.663Z</time></trkpt><trkpt lat="42.4245601" lon="18.7694178"><ele>3.4285714285714284</ele><time>2026-05-04T09:10:13.667Z</time></trkpt><trkpt lat="42.4246113" lon="18.7693505"><ele>3.0</ele><time>2026-05-04T09:10:14.668Z</time></trkpt><trkpt lat="42.4246747" lon="18.7692596"><ele>3.0</ele><time>2026-05-04T09:10:16.667Z</time></trkpt><trkpt lat="42.4247209" lon="18.7691972"><ele>3.0</ele><time>2026-05-04T09:10:28.663Z</time></trkpt><trkpt lat="42.4247532" lon="18.7691177"><ele>3.0</ele><time>2026-05-04T09:10:30.666Z</time></trkpt><trkpt lat="42.4248334" lon="18.7690011"><ele>3.0</ele><time>2026-05-04T09:10:32.668Z</time></trkpt><trkpt lat="42.4248823" lon="18.768925"><ele>3.0</ele><time>2026-05-04T09:10:33.667Z</time></trkpt><trkpt lat="42.4249273" lon="18.7688478"><ele>3.0</ele><time>2026-05-04T09:10:34.667Z</time></trkpt><trkpt lat="42.4249698" lon="18.7687758"><ele>3.0</ele><time>2026-05-04T09:10:35.667Z</time></trkpt><trkpt lat="42.4250207" lon="18.7686926"><ele>3.0</ele><time>2026-05-04T09:10:36.665Z</time></trkpt><trkpt lat="42.4250688" lon="18.7686184"><ele>3.0</ele><time>2026-05-04T09:10:37.666Z</time></trkpt><trkpt lat="42.4251504" lon="18.7684953"><ele>3.0</ele><time>2026-05-04T09:10:39.668Z</time></trkpt><trkpt lat="42.4252002" lon="18.7684394"><ele>3.0</ele><time>2026-05-04T09:10:40.665Z</time></trkpt><trkpt lat="42.4253003" lon="18.7683826"><ele>3.0</ele><time>2026-05-04T09:10:42.667Z</time></trkpt><trkpt lat="42.4254096" lon="18.7683518"><ele>3.0</ele><time>2026-05-04T09:10:44.661Z</time></trkpt><trkpt lat="42.4254744" lon="18.7683539"><ele>3.0</ele><time>2026-05-04T09:10:45.668Z</time></trkpt><trkpt lat="42.4255517" lon="18.7683674"><ele>3.0</ele><time>2026-05-04T09:10:46.666Z</time></trkpt><trkpt lat="42.4256251" lon="18.7683896"><ele>3.0</ele><time>2026-05-04T09:10:47.668Z</time></trkpt><trkpt lat="42.4256937" lon="18.7683934"><ele>3.0</ele><time>2026-05-04T09:10:48.668Z</time></trkpt><trkpt lat="42.4257665" lon="18.7684105"><ele>3.0</ele><time>2026-05-04T09:10:49.667Z</time></trkpt><trkpt lat="42.4258724" lon="18.7684338"><ele>3.0</ele><time>2026-05-04T09:10:51.666Z</time></trkpt><trkpt lat="42.4259419" lon="18.7684526"><ele>3.0</ele><time>2026-05-04T09:10:52.662Z</time></trkpt><trkpt lat="42.426024" lon="18.7684667"><ele>3.0</ele><time>2026-05-04T09:10:53.662Z</time></trkpt><trkpt lat="42.4261138" lon="18.7684825"><ele>3.0</ele><time>2026-05-04T09:10:54.666Z</time></trkpt><trkpt lat="42.4262028" lon="18.7685125"><ele>3.0</ele><time>2026-05-04T09:10:55.666Z</time></trkpt><trkpt lat="42.4263079" lon="18.76853"><ele>3.0</ele><time>2026-05-04T09:10:56.666Z</time></trkpt><trkpt lat="42.4264051" lon="18.7685569"><ele>3.4</ele><time>2026-05-04T09:10:57.663Z</time></trkpt><trkpt lat="42.4265045" lon="18.7685853"><ele>3.8</ele><time>2026-05-04T09:10:58.662Z</time></trkpt><trkpt lat="42.4266014" lon="18.7686162"><ele>4.2</ele><time>2026-05-04T09:10:59.662Z</time></trkpt><trkpt lat="42.4266999" lon="18.7686493"><ele>4.6</ele><time>2026-05-04T09:11:00.666Z</time></trkpt><trkpt lat="42.426792" lon="18.7686742"><ele>5.0</ele><time>2026-05-04T09:11:01.665Z</time></trkpt><trkpt lat="42.4268829" lon="18.7686979"><ele>5.0</ele><time>2026-05-04T09:11:02.666Z</time></trkpt><trkpt lat="42.426956" lon="18.7687186"><ele>5.0</ele><time>2026-05-04T09:11:03.664Z</time></trkpt><trkpt lat="42.4270209" lon="18.7687361"><ele>5.0</ele><time>2026-05-04T09:11:04.666Z</time></trkpt><trkpt lat="42.4271407" lon="18.7687748"><ele>5.0</ele><time>2026-05-04T09:11:06.666Z</time></trkpt><trkpt lat="42.4272076" lon="18.7687941"><ele>5.0</ele><time>2026-05-04T09:11:07.668Z</time></trkpt><trkpt lat="42.4272893" lon="18.7688251"><ele>5.0</ele><time>2026-05-04T09:11:08.665Z</time></trkpt><trkpt lat="42.4273745" lon="18.7688588"><ele>5.166666666666667</ele><time>2026-05-04T09:11:09.668Z</time></trkpt><trkpt lat="42.4274506" lon="18.7688853"><ele>5.333333333333334</ele><time>2026-05-04T09:11:10.668Z</time></trkpt><trkpt lat="42.4275489" lon="18.7689295"><ele>5.5</ele><time>2026-05-04T09:11:12.664Z</time></trkpt><trkpt lat="42.4276162" lon="18.7689496"><ele>5.666666666666667</ele><time>2026-05-04T09:11:14.667Z</time></trkpt><trkpt lat="42.4276873" lon="18.768973"><ele>5.833333333333333</ele><time>2026-05-04T09:11:16.666Z</time></trkpt><trkpt lat="42.4277871" lon="18.7690365"><ele>6.0</ele><time>2026-05-04T09:11:18.665Z</time></trkpt><trkpt lat="42.4278522" lon="18.7690671"><ele>6.0</ele><time>2026-05-04T09:11:19.663Z</time></trkpt><trkpt lat="42.4279197" lon="18.7690877"><ele>6.0</ele><time>2026-05-04T09:11:20.668Z</time></trkpt><trkpt lat="42.4280099" lon="18.769106"><ele>6.0</ele><time>2026-05-04T09:11:21.666Z</time></trkpt><trkpt lat="42.4280874" lon="18.7691383"><ele>6.0</ele><time>2026-05-04T09:11:22.665Z</time></trkpt><trkpt lat="42.4281752" lon="18.7691683"><ele>6.0</ele><time>2026-05-04T09:11:23.666Z</time></trkpt><trkpt lat="42.4282947" lon="18.7692071"><ele>5.6</ele><time>2026-05-04T09:11:24.666Z</time></trkpt><trkpt lat="42.4283852" lon="18.7692388"><ele>5.199999999999999</ele><time>2026-05-04T09:11:25.664Z</time></trkpt><trkpt lat="42.4284865" lon="18.7692604"><ele>4.800000000000001</ele><time>2026-05-04T09:11:26.667Z</time></trkpt><trkpt lat="42.4285862" lon="18.7692955"><ele>4.4</ele><time>2026-05-04T09:11:27.663Z</time></trkpt><trkpt lat="42.4286807" lon="18.7693148"><ele>4.0</ele><time>2026-05-04T09:11:28.664Z</time></trkpt><trkpt lat="42.4287974" lon="18.769353"><ele>6.4</ele><time>2026-05-04T09:11:29.661Z</time></trkpt><trkpt lat="42.4288994" lon="18.769373"><ele>8.8</ele><time>2026-05-04T09:11:30.664Z</time></trkpt><trkpt lat="42.4290082" lon="18.7693925"><ele>11.200000000000001</ele><time>2026-05-04T09:11:31.667Z</time></trkpt><trkpt lat="42.4291216" lon="18.7693999"><ele>13.600000000000001</ele><time>2026-05-04T09:11:32.666Z</time></trkpt><trkpt lat="42.4292426" lon="18.7693994"><ele>16.0</ele><time>2026-05-04T09:11:33.666Z</time></trkpt><trkpt lat="42.42936" lon="18.769388"><ele>16.0</ele><time>2026-05-04T09:11:34.665Z</time></trkpt><trkpt lat="42.4294721" lon="18.7693696"><ele>16.0</ele><time>2026-05-04T09:11:35.665Z</time></trkpt><trkpt lat="42.4295841" lon="18.7693466"><ele>16.0</ele><time>2026-05-04T09:11:36.663Z</time></trkpt><trkpt lat="42.4296816" lon="18.7693159"><ele>16.0</ele><time>2026-05-04T09:11:37.664Z</time></trkpt><trkpt lat="42.4297671" lon="18.7692815"><ele>16.0</ele><time>2026-05-04T09:11:38.665Z</time></trkpt><trkpt lat="42.4298319" lon="18.7692673"><ele>17.0</ele><time>2026-05-04T09:11:39.667Z</time></trkpt><trkpt lat="42.4299196" lon="18.7692155"><ele>18.0</ele><time>2026-05-04T09:11:40.666Z</time></trkpt><trkpt lat="42.430016" lon="18.7691899"><ele>19.0</ele><time>2026-05-04T09:11:41.666Z</time></trkpt><trkpt lat="42.4301215" lon="18.7691359"><ele>20.0</ele><time>2026-05-04T09:11:42.664Z</time></trkpt><trkpt lat="42.4302168" lon="18.769085"><ele>21.0</ele><time>2026-05-04T09:11:43.664Z</time></trkpt><trkpt lat="42.430318" lon="18.7690401"><ele>21.0</ele><time>2026-05-04T09:11:44.667Z</time></trkpt><trkpt lat="42.4304002" lon="18.7690054"><ele>21.0</ele><time>2026-05-04T09:11:45.665Z</time></trkpt><trkpt lat="42.4304794" lon="18.7689652"><ele>21.0</ele><time>2026-05-04T09:11:46.665Z</time></trkpt><trkpt lat="42.4305655" lon="18.768943"><ele>21.0</ele><time>2026-05-04T09:11:47.663Z</time></trkpt><trkpt lat="42.4306628" lon="18.768937"><ele>21.0</ele><time>2026-05-04T09:11:48.666Z</time></trkpt><trkpt lat="42.4307649" lon="18.7689489"><ele>21.8</ele><time>2026-05-04T09:11:49.664Z</time></trkpt><trkpt lat="42.4308659" lon="18.7689768"><ele>22.6</ele><time>2026-05-04T09:11:50.666Z</time></trkpt><trkpt lat="42.4309516" lon="18.7690069"><ele>23.4</ele><time>2026-05-04T09:11:51.664Z</time></trkpt><trkpt lat="42.4310395" lon="18.7690391"><ele>24.2</ele><time>2026-05-04T09:11:53.665Z</time></trkpt><trkpt lat="42.431102" lon="18.7690528"><ele>25.0</ele><time>2026-05-04T09:11:55.665Z</time></trkpt><trkpt lat="42.4312049" lon="18.7691064"><ele>25.0</ele><time>2026-05-04T09:11:57.667Z</time></trkpt><trkpt lat="42.4312826" lon="18.7691419"><ele>25.0</ele><time>2026-05-04T09:11:58.665Z</time></trkpt><trkpt lat="42.4313778" lon="18.7691841"><ele>25.0</ele><time>2026-05-04T09:11:59.665Z</time></trkpt><trkpt lat="42.4314681" lon="18.7692256"><ele>25.0</ele><time>2026-05-04T09:12:00.666Z</time></trkpt><trkpt lat="42.4315604" lon="18.7692567"><ele>25.0</ele><time>2026-05-04T09:12:01.664Z</time></trkpt><trkpt lat="42.4316565" lon="18.7692836"><ele>25.4</ele><time>2026-05-04T09:12:02.666Z</time></trkpt><trkpt lat="42.4317523" lon="18.769309"><ele>25.8</ele><time>2026-05-04T09:12:03.667Z</time></trkpt><trkpt lat="42.4318491" lon="18.7693299"><ele>26.200000000000003</ele><time>2026-05-04T09:12:04.666Z</time></trkpt><trkpt lat="42.4319435" lon="18.7693436"><ele>26.6</ele><time>2026-05-04T09:12:05.666Z</time></trkpt><trkpt lat="42.4320418" lon="18.7693511"><ele>27.0</ele><time>2026-05-04T09:12:06.663Z</time></trkpt><trkpt lat="42.432139" lon="18.7693545"><ele>27.166666666666668</ele><time>2026-05-04T09:12:07.666Z</time></trkpt><trkpt lat="42.432236" lon="18.7693514"><ele>27.333333333333336</ele><time>2026-05-04T09:12:08.663Z</time></trkpt><trkpt lat="42.4323287" lon="18.7693394"><ele>27.5</ele><time>2026-05-04T09:12:09.664Z</time></trkpt><trkpt lat="42.432416" lon="18.7693259"><ele>27.666666666666668</ele><time>2026-05-04T09:12:10.666Z</time></trkpt><trkpt lat="42.4324956" lon="18.7693088"><ele>27.833333333333336</ele><time>2026-05-04T09:12:11.664Z</time></trkpt><trkpt lat="42.4325702" lon="18.7692875"><ele>28.0</ele><time>2026-05-04T09:12:12.663Z</time></trkpt><trkpt lat="42.4326383" lon="18.769267"><ele>28.0</ele><time>2026-05-04T09:12:13.666Z</time></trkpt><trkpt lat="42.4327373" lon="18.7692242"><ele>27.999999999999996</ele><time>2026-05-04T09:12:15.667Z</time></trkpt><trkpt lat="42.4328201" lon="18.769187"><ele>27.999999999999996</ele><time>2026-05-04T09:12:18.667Z</time></trkpt><trkpt lat="42.432896" lon="18.7691389"><ele>28.0</ele><time>2026-05-04T09:12:51.664Z</time></trkpt><trkpt lat="42.4329786" lon="18.7691046"><ele>28.0</ele><time>2026-05-04T09:12:54.664Z</time></trkpt><trkpt lat="42.4330775" lon="18.7690698"><ele>27.4</ele><time>2026-05-04T09:12:56.665Z</time></trkpt><trkpt lat="42.4332054" lon="18.7690118"><ele>26.799999999999997</ele><time>2026-05-04T09:12:58.668Z</time></trkpt><trkpt lat="42.4332828" lon="18.7689734"><ele>26.2</ele><time>2026-05-04T09:12:59.664Z</time></trkpt><trkpt lat="42.4333636" lon="18.7689374"><ele>25.6</ele><time>2026-05-04T09:13:00.668Z</time></trkpt><trkpt lat="42.4334399" lon="18.7688999"><ele>25.0</ele><time>2026-05-04T09:13:01.667Z</time></trkpt><trkpt lat="42.4335194" lon="18.768869"><ele>25.000000000000004</ele><time>2026-05-04T09:13:02.667Z</time></trkpt><trkpt lat="42.4335955" lon="18.7688223"><ele>25.0</ele><time>2026-05-04T09:13:03.662Z</time></trkpt><trkpt lat="42.4336734" lon="18.7687897"><ele>25.0</ele><time>2026-05-04T09:13:04.666Z</time></trkpt><trkpt lat="42.4337567" lon="18.7687442"><ele>25.0</ele><time>2026-05-04T09:13:05.668Z</time></trkpt><trkpt lat="42.433833" lon="18.7686865"><ele>25.000000000000004</ele><time>2026-05-04T09:13:06.666Z</time></trkpt><trkpt lat="42.4339048" lon="18.7686477"><ele>25.0</ele><time>2026-05-04T09:13:07.667Z</time></trkpt><trkpt lat="42.4339739" lon="18.7686049"><ele>24.333333333333336</ele><time>2026-05-04T09:13:08.663Z</time></trkpt><trkpt lat="42.4340515" lon="18.7685663"><ele>23.666666666666668</ele><time>2026-05-04T09:13:09.667Z</time></trkpt><trkpt lat="42.4341262" lon="18.7685336"><ele>23.0</ele><time>2026-05-04T09:13:10.667Z</time></trkpt><trkpt lat="42.434201" lon="18.7684933"><ele>22.333333333333336</ele><time>2026-05-04T09:13:11.666Z</time></trkpt><trkpt lat="42.4342726" lon="18.7684538"><ele>21.666666666666668</ele><time>2026-05-04T09:13:12.667Z</time></trkpt><trkpt lat="42.4343455" lon="18.7684206"><ele>21.0</ele><time>2026-05-04T09:13:13.664Z</time></trkpt><trkpt lat="42.434432" lon="18.7683664"><ele>20.666666666666668</ele><time>2026-05-04T09:13:14.664Z</time></trkpt><trkpt lat="42.4345113" lon="18.7683235"><ele>20.333333333333332</ele><time>2026-05-04T09:13:15.665Z</time></trkpt><trkpt lat="42.4345891" lon="18.768292"><ele>20.0</ele><time>2026-05-04T09:13:16.664Z</time></trkpt><trkpt lat="42.4346699" lon="18.7682375"><ele>19.666666666666664</ele><time>2026-05-04T09:13:17.662Z</time></trkpt><trkpt lat="42.4347415" lon="18.7681939"><ele>19.333333333333332</ele><time>2026-05-04T09:13:18.666Z</time></trkpt><trkpt lat="42.4348166" lon="18.7681489"><ele>19.0</ele><time>2026-05-04T09:13:19.665Z</time></trkpt><trkpt lat="42.4348977" lon="18.768107"><ele>19.0</ele><time>2026-05-04T09:13:20.666Z</time></trkpt><trkpt lat="42.4349824" lon="18.7680557"><ele>19.0</ele><time>2026-05-04T09:13:21.668Z</time></trkpt><trkpt lat="42.4350623" lon="18.7680194"><ele>19.0</ele><time>2026-05-04T09:13:22.667Z</time></trkpt><trkpt lat="42.435148" lon="18.7679769"><ele>19.0</ele><time>2026-05-04T09:13:23.666Z</time></trkpt><trkpt lat="42.4352286" lon="18.7679298"><ele>19.0</ele><time>2026-05-04T09:13:24.663Z</time></trkpt><trkpt lat="42.4353108" lon="18.7678811"><ele>19.0</ele><time>2026-05-04T09:13:25.667Z</time></trkpt><trkpt lat="42.4353924" lon="18.7678418"><ele>19.4</ele><time>2026-05-04T09:13:26.667Z</time></trkpt><trkpt lat="42.435476" lon="18.7678027"><ele>19.799999999999997</ele><time>2026-05-04T09:13:27.667Z</time></trkpt><trkpt lat="42.4355604" lon="18.7677557"><ele>20.200000000000003</ele><time>2026-05-04T09:13:28.662Z</time></trkpt><trkpt lat="42.435649" lon="18.7676983"><ele>20.6</ele><time>2026-05-04T09:13:29.665Z</time></trkpt><trkpt lat="42.4357466" lon="18.7676471"><ele>21.0</ele><time>2026-05-04T09:13:30.665Z</time></trkpt><trkpt lat="42.4358411" lon="18.7675856"><ele>20.0</ele><time>2026-05-04T09:13:31.668Z</time></trkpt><trkpt lat="42.4359295" lon="18.7675143"><ele>19.0</ele><time>2026-05-04T09:13:32.664Z</time></trkpt><trkpt lat="42.4360129" lon="18.7674605"><ele>18.0</ele><time>2026-05-04T09:13:33.667Z</time></trkpt><trkpt lat="42.4361095" lon="18.7674008"><ele>17.0</ele><time>2026-05-04T09:13:34.666Z</time></trkpt><trkpt lat="42.4361946" lon="18.7673395"><ele>16.0</ele><time>2026-05-04T09:13:35.668Z</time></trkpt><trkpt lat="42.4362659" lon="18.767292"><ele>15.999999999999998</ele><time>2026-05-04T09:13:36.666Z</time></trkpt><trkpt lat="42.4363392" lon="18.7672335"><ele>16.0</ele><time>2026-05-04T09:13:37.668Z</time></trkpt><trkpt lat="42.436418" lon="18.7671703"><ele>16.0</ele><time>2026-05-04T09:13:38.667Z</time></trkpt><trkpt lat="42.4364963" lon="18.7671126"><ele>16.0</ele><time>2026-05-04T09:13:39.661Z</time></trkpt><trkpt lat="42.4365811" lon="18.7670436"><ele>15.999999999999998</ele><time>2026-05-04T09:13:40.664Z</time></trkpt><trkpt lat="42.4366544" lon="18.766986"><ele>16.0</ele><time>2026-05-04T09:13:41.666Z</time></trkpt><trkpt lat="42.4367169" lon="18.766933"><ele>15.600000000000001</ele><time>2026-05-04T09:13:42.666Z</time></trkpt><trkpt lat="42.4368211" lon="18.7668361"><ele>15.200000000000001</ele><time>2026-05-04T09:13:44.664Z</time></trkpt><trkpt lat="42.43692" lon="18.7667515"><ele>14.799999999999999</ele><time>2026-05-04T09:13:46.668Z</time></trkpt><trkpt lat="42.4370206" lon="18.7666765"><ele>14.399999999999999</ele><time>2026-05-04T09:13:48.661Z</time></trkpt><trkpt lat="42.4370816" lon="18.7666087"><ele>14.0</ele><time>2026-05-04T09:13:50.661Z</time></trkpt><trkpt lat="42.4371445" lon="18.7665475"><ele>14.0</ele><time>2026-05-04T09:13:53.665Z</time></trkpt><trkpt lat="42.4371972" lon="18.7664987"><ele>13.999999999999998</ele><time>2026-05-04T09:13:55.664Z</time></trkpt><trkpt lat="42.437269" lon="18.7664379"><ele>13.999999999999998</ele><time>2026-05-04T09:13:57.667Z</time></trkpt><trkpt lat="42.4373594" lon="18.7663548"><ele>14.0</ele><time>2026-05-04T09:13:59.661Z</time></trkpt><trkpt lat="42.4374541" lon="18.7662792"><ele>14.0</ele><time>2026-05-04T09:14:01.664Z</time></trkpt><trkpt lat="42.4375506" lon="18.7662119"><ele>14.0</ele><time>2026-05-04T09:14:03.664Z</time></trkpt><trkpt lat="42.437653" lon="18.7661506"><ele>13.999999999999998</ele><time>2026-05-04T09:14:05.664Z</time></trkpt><trkpt lat="42.4377672" lon="18.7660825"><ele>13.999999999999998</ele><time>2026-05-04T09:14:07.662Z</time></trkpt><trkpt lat="42.4378462" lon="18.7660167"><ele>14.0</ele><time>2026-05-04T09:14:09.663Z</time></trkpt><trkpt lat="42.4379058" lon="18.7659652"><ele>14.0</ele><time>2026-05-04T09:14:12.664Z</time></trkpt><trkpt lat="42.4379929" lon="18.7659327"><ele>14.0</ele><time>2026-05-04T09:14:29.663Z</time></trkpt><trkpt lat="42.4380655" lon="18.7658547"><ele>13.999999999999998</ele><time>2026-05-04T09:14:31.665Z</time></trkpt><trkpt lat="42.438134" lon="18.7658141"><ele>13.999999999999998</ele><time>2026-05-04T09:14:34.661Z</time></trkpt><trkpt lat="42.4382343" lon="18.7657581"><ele>14.0</ele><time>2026-05-04T09:14:37.663Z</time></trkpt><trkpt lat="42.4383436" lon="18.7657036"><ele>14.0</ele><time>2026-05-04T09:14:39.662Z</time></trkpt><trkpt lat="42.438464" lon="18.7656203"><ele>14.000000000000002</ele><time>2026-05-04T09:14:41.668Z</time></trkpt><trkpt lat="42.4385354" lon="18.7655839"><ele>14.0</ele><time>2026-05-04T09:14:42.664Z</time></trkpt><trkpt lat="42.4386042" lon="18.7655544"><ele>14.0</ele><time>2026-05-04T09:14:43.664Z</time></trkpt><trkpt lat="42.4386677" lon="18.7655072"><ele>14.0</ele><time>2026-05-04T09:14:44.664Z</time></trkpt><trkpt lat="42.4387406" lon="18.7654553"><ele>14.000000000000002</ele><time>2026-05-04T09:14:45.664Z</time></trkpt><trkpt lat="42.4388019" lon="18.7653941"><ele>14.0</ele><time>2026-05-04T09:14:46.665Z</time></trkpt><trkpt lat="42.4388667" lon="18.7653288"><ele>14.6</ele><time>2026-05-04T09:14:47.661Z</time></trkpt><trkpt lat="42.4389299" lon="18.7652554"><ele>15.2</ele><time>2026-05-04T09:14:48.667Z</time></trkpt><trkpt lat="42.438995" lon="18.7651595"><ele>15.799999999999999</ele><time>2026-05-04T09:14:49.665Z</time></trkpt><trkpt lat="42.4390619" lon="18.7650397"><ele>16.4</ele><time>2026-05-04T09:14:50.663Z</time></trkpt><trkpt lat="42.4391307" lon="18.7649116"><ele>17.0</ele><time>2026-05-04T09:14:51.664Z</time></trkpt><trkpt lat="42.439183" lon="18.764801"><ele>15.833333333333334</ele><time>2026-05-04T09:14:52.665Z</time></trkpt><trkpt lat="42.4392274" lon="18.7646988"><ele>14.666666666666668</ele><time>2026-05-04T09:14:53.664Z</time></trkpt><trkpt lat="42.4392485" lon="18.7646102"><ele>13.5</ele><time>2026-05-04T09:14:54.665Z</time></trkpt><trkpt lat="42.4392756" lon="18.7645181"><ele>12.333333333333334</ele><time>2026-05-04T09:14:55.662Z</time></trkpt><trkpt lat="42.4393268" lon="18.7643481"><ele>11.166666666666668</ele><time>2026-05-04T09:14:57.664Z</time></trkpt><trkpt lat="42.4393481" lon="18.7642509"><ele>10.0</ele><time>2026-05-04T09:14:58.661Z</time></trkpt><trkpt lat="42.4393876" lon="18.7641446"><ele>9.833333333333334</ele><time>2026-05-04T09:14:59.663Z</time></trkpt><trkpt lat="42.4394249" lon="18.764043"><ele>9.666666666666668</ele><time>2026-05-04T09:15:00.664Z</time></trkpt><trkpt lat="42.4394603" lon="18.7639542"><ele>9.5</ele><time>2026-05-04T09:15:01.663Z</time></trkpt><trkpt lat="42.4395059" lon="18.7638599"><ele>9.333333333333334</ele><time>2026-05-04T09:15:02.666Z</time></trkpt><trkpt lat="42.43956" lon="18.7637729"><ele>9.166666666666666</ele><time>2026-05-04T09:15:03.665Z</time></trkpt><trkpt lat="42.4396171" lon="18.7636934"><ele>9.0</ele><time>2026-05-04T09:15:04.664Z</time></trkpt><trkpt lat="42.4396871" lon="18.7636089"><ele>9.4</ele><time>2026-05-04T09:15:05.661Z</time></trkpt><trkpt lat="42.4397623" lon="18.7635317"><ele>9.8</ele><time>2026-05-04T09:15:06.665Z</time></trkpt><trkpt lat="42.4398445" lon="18.7634574"><ele>10.200000000000001</ele><time>2026-05-04T09:15:07.665Z</time></trkpt><trkpt lat="42.4399344" lon="18.7633942"><ele>10.600000000000001</ele><time>2026-05-04T09:15:08.662Z</time></trkpt><trkpt lat="42.4400272" lon="18.763335"><ele>11.0</ele><time>2026-05-04T09:15:09.665Z</time></trkpt><trkpt lat="42.4401413" lon="18.7632647"><ele>11.0</ele><time>2026-05-04T09:15:10.665Z</time></trkpt><trkpt lat="42.4402717" lon="18.763178"><ele>11.0</ele><time>2026-05-04T09:15:11.665Z</time></trkpt><trkpt lat="42.4404455" lon="18.763077"><ele>11.0</ele><time>2026-05-04T09:15:12.666Z</time></trkpt><trkpt lat="42.4406238" lon="18.7629727"><ele>14.333333333333332</ele><time>2026-05-04T09:15:13.667Z</time></trkpt><trkpt lat="42.440797" lon="18.7628932"><ele>17.666666666666668</ele><time>2026-05-04T09:15:14.665Z</time></trkpt><trkpt lat="42.4409505" lon="18.7628319"><ele>21.0</ele><time>2026-05-04T09:15:15.666Z</time></trkpt><trkpt lat="42.4410925" lon="18.7627779"><ele>21.0</ele><time>2026-05-04T09:15:16.666Z</time></trkpt><trkpt lat="42.4412335" lon="18.7627464"><ele>21.0</ele><time>2026-05-04T09:15:17.665Z</time></trkpt><trkpt lat="42.4413632" lon="18.7627259"><ele>21.0</ele><time>2026-05-04T09:15:18.667Z</time></trkpt><trkpt lat="42.441498" lon="18.7627198"><ele>21.0</ele><time>2026-05-04T09:15:19.668Z</time></trkpt><trkpt lat="42.4416354" lon="18.762757"><ele>21.5</ele><time>2026-05-04T09:15:20.667Z</time></trkpt><trkpt lat="42.4417565" lon="18.7627909"><ele>22.0</ele><time>2026-05-04T09:15:21.665Z</time></trkpt><trkpt lat="42.4418704" lon="18.762832"><ele>22.5</ele><time>2026-05-04T09:15:22.663Z</time></trkpt><trkpt lat="42.441983" lon="18.7628823"><ele>23.0</ele><time>2026-05-04T09:15:23.667Z</time></trkpt><trkpt lat="42.4420801" lon="18.7629477"><ele>20.5</ele><time>2026-05-04T09:15:24.662Z</time></trkpt><trkpt lat="42.4421713" lon="18.7630307"><ele>18.0</ele><time>2026-05-04T09:15:25.663Z</time></trkpt><trkpt lat="42.4422492" lon="18.7631233"><ele>15.5</ele><time>2026-05-04T09:15:26.663Z</time></trkpt><trkpt lat="42.4423302" lon="18.7632628"><ele>13.0</ele><time>2026-05-04T09:15:27.664Z</time></trkpt><trkpt lat="42.4423991" lon="18.7634147"><ele>14.0</ele><time>2026-05-04T09:15:28.662Z</time></trkpt><trkpt lat="42.4424444" lon="18.7635568"><ele>15.0</ele><time>2026-05-04T09:15:29.663Z</time></trkpt><trkpt lat="42.4424868" lon="18.7637069"><ele>16.0</ele><time>2026-05-04T09:15:30.664Z</time></trkpt><trkpt lat="42.4425201" lon="18.7638564"><ele>17.0</ele><time>2026-05-04T09:15:31.66Z</time></trkpt><trkpt lat="42.4425634" lon="18.7640184"><ele>17.0</ele><time>2026-05-04T09:15:32.664Z</time></trkpt><trkpt lat="42.4426169" lon="18.7641742"><ele>17.0</ele><time>2026-05-04T09:15:33.661Z</time></trkpt><trkpt lat="42.4426856" lon="18.7643171"><ele>17.0</ele><time>2026-05-04T09:15:34.661Z</time></trkpt><trkpt lat="42.4427753" lon="18.7644534"><ele>17.0</ele><time>2026-05-04T09:15:35.664Z</time></trkpt><trkpt lat="42.4428715" lon="18.7645823"><ele>15.75</ele><time>2026-05-04T09:15:36.664Z</time></trkpt><trkpt lat="42.4429698" lon="18.7646982"><ele>14.5</ele><time>2026-05-04T09:15:37.664Z</time></trkpt><trkpt lat="42.4430819" lon="18.7648114"><ele>13.25</ele><time>2026-05-04T09:15:38.665Z</time></trkpt><trkpt lat="42.4432072" lon="18.7649299"><ele>12.0</ele><time>2026-05-04T09:15:39.661Z</time></trkpt><trkpt lat="42.4433254" lon="18.7650373"><ele>12.0</ele><time>2026-05-04T09:15:40.664Z</time></trkpt><trkpt lat="42.4434475" lon="18.7651437"><ele>12.0</ele><time>2026-05-04T09:15:41.664Z</time></trkpt><trkpt lat="42.443571" lon="18.7652449"><ele>12.0</ele><time>2026-05-04T09:15:42.662Z</time></trkpt><trkpt lat="42.4436966" lon="18.7653366"><ele>12.0</ele><time>2026-05-04T09:15:43.663Z</time></trkpt><trkpt lat="42.4438283" lon="18.7654032"><ele>13.0</ele><time>2026-05-04T09:15:44.663Z</time></trkpt><trkpt lat="42.443966" lon="18.7654399"><ele>14.0</ele><time>2026-05-04T09:15:45.665Z</time></trkpt><trkpt lat="42.4441065" lon="18.7654522"><ele>15.0</ele><time>2026-05-04T09:15:46.663Z</time></trkpt><trkpt lat="42.4442439" lon="18.7654497"><ele>16.0</ele><time>2026-05-04T09:15:47.664Z</time></trkpt><trkpt lat="42.444377" lon="18.7654331"><ele>16.0</ele><time>2026-05-04T09:15:48.663Z</time></trkpt><trkpt lat="42.4445028" lon="18.7654233"><ele>16.0</ele><time>2026-05-04T09:15:49.664Z</time></trkpt><trkpt lat="42.4446266" lon="18.7654258"><ele>16.0</ele><time>2026-05-04T09:15:50.664Z</time></trkpt><trkpt lat="42.4447323" lon="18.7654539"><ele>16.0</ele><time>2026-05-04T09:15:51.667Z</time></trkpt><trkpt lat="42.4448487" lon="18.7655007"><ele>16.0</ele><time>2026-05-04T09:15:52.663Z</time></trkpt><trkpt lat="42.4449631" lon="18.765555"><ele>16.0</ele><time>2026-05-04T09:15:53.665Z</time></trkpt><trkpt lat="42.4450773" lon="18.7656268"><ele>16.0</ele><time>2026-05-04T09:15:54.665Z</time></trkpt><trkpt lat="42.4452001" lon="18.7657182"><ele>16.0</ele><time>2026-05-04T09:15:55.662Z</time></trkpt><trkpt lat="42.4453183" lon="18.7657882"><ele>16.0</ele><time>2026-05-04T09:15:56.665Z</time></trkpt><trkpt lat="42.4454418" lon="18.7658328"><ele>16.0</ele><time>2026-05-04T09:15:57.661Z</time></trkpt><trkpt lat="42.4455672" lon="18.7658594"><ele>16.0</ele><time>2026-05-04T09:15:58.663Z</time></trkpt><trkpt lat="42.4456949" lon="18.7658756"><ele>16.0</ele><time>2026-05-04T09:15:59.662Z</time></trkpt><trkpt lat="42.4458243" lon="18.7658877"><ele>15.25</ele><time>2026-05-04T09:16:00.662Z</time></trkpt><trkpt lat="42.4459564" lon="18.7659018"><ele>14.5</ele><time>2026-05-04T09:16:01.666Z</time></trkpt><trkpt lat="42.4460921" lon="18.7659277"><ele>13.75</ele><time>2026-05-04T09:16:02.667Z</time></trkpt><trkpt lat="42.4462309" lon="18.7659612"><ele>13.0</ele><time>2026-05-04T09:16:03.665Z</time></trkpt><trkpt lat="42.446366" lon="18.7660081"><ele>16.0</ele><time>2026-05-04T09:16:04.664Z</time></trkpt><trkpt lat="42.4465021" lon="18.7660623"><ele>19.0</ele><time>2026-05-04T09:16:05.663Z</time></trkpt><trkpt lat="42.4466375" lon="18.7661172"><ele>22.0</ele><time>2026-05-04T09:16:06.666Z</time></trkpt><trkpt lat="42.4467709" lon="18.7661769"><ele>25.0</ele><time>2026-05-04T09:16:07.663Z</time></trkpt><trkpt lat="42.4469015" lon="18.7662318"><ele>25.0</ele><time>2026-05-04T09:16:08.665Z</time></trkpt><trkpt lat="42.4470279" lon="18.766284"><ele>25.0</ele><time>2026-05-04T09:16:09.668Z</time></trkpt><trkpt lat="42.4471533" lon="18.7663292"><ele>25.0</ele><time>2026-05-04T09:16:10.665Z</time></trkpt><trkpt lat="42.447273" lon="18.7663733"><ele>25.0</ele><time>2026-05-04T09:16:11.664Z</time></trkpt><trkpt lat="42.447386" lon="18.7664106"><ele>23.25</ele><time>2026-05-04T09:16:12.665Z</time></trkpt><trkpt lat="42.4474952" lon="18.7664381"><ele>21.5</ele><time>2026-05-04T09:16:13.664Z</time></trkpt><trkpt lat="42.4476073" lon="18.7664568"><ele>19.75</ele><time>2026-05-04T09:16:14.666Z</time></trkpt><trkpt lat="42.4477226" lon="18.7664701"><ele>18.0</ele><time>2026-05-04T09:16:15.663Z</time></trkpt><trkpt lat="42.4478438" lon="18.7664778"><ele>18.0</ele><time>2026-05-04T09:16:16.662Z</time></trkpt><trkpt lat="42.4479594" lon="18.7664832"><ele>18.0</ele><time>2026-05-04T09:16:17.662Z</time></trkpt><trkpt lat="42.4480732" lon="18.7664776"><ele>18.0</ele><time>2026-05-04T09:16:18.663Z</time></trkpt><trkpt lat="42.448184" lon="18.7664741"><ele>18.0</ele><time>2026-05-04T09:16:19.663Z</time></trkpt><trkpt lat="42.4482957" lon="18.7664594"><ele>17.6</ele><time>2026-05-04T09:16:20.665Z</time></trkpt><trkpt lat="42.448406" lon="18.7664418"><ele>17.200000000000003</ele><time>2026-05-04T09:16:21.664Z</time></trkpt><trkpt lat="42.4485091" lon="18.7664186"><ele>16.8</ele><time>2026-05-04T09:16:22.667Z</time></trkpt><trkpt lat="42.4486059" lon="18.7663928"><ele>16.400000000000002</ele><time>2026-05-04T09:16:23.666Z</time></trkpt><trkpt lat="42.4486968" lon="18.76636"><ele>16.0</ele><time>2026-05-04T09:16:24.665Z</time></trkpt><trkpt lat="42.4487817" lon="18.7663185"><ele>17.0</ele><time>2026-05-04T09:16:25.664Z</time></trkpt><trkpt lat="42.4488634" lon="18.76627"><ele>18.0</ele><time>2026-05-04T09:16:26.665Z</time></trkpt><trkpt lat="42.4489467" lon="18.7662135"><ele>19.0</ele><time>2026-05-04T09:16:27.664Z</time></trkpt><trkpt lat="42.4490342" lon="18.766151"><ele>20.0</ele><time>2026-05-04T09:16:28.662Z</time></trkpt><trkpt lat="42.4491215" lon="18.7660903"><ele>21.0</ele><time>2026-05-04T09:16:29.667Z</time></trkpt><trkpt lat="42.4492101" lon="18.7660318"><ele>21.200000000000003</ele><time>2026-05-04T09:16:30.663Z</time></trkpt><trkpt lat="42.4492947" lon="18.7659539"><ele>21.400000000000002</ele><time>2026-05-04T09:16:31.663Z</time></trkpt><trkpt lat="42.4493782" lon="18.7658711"><ele>21.6</ele><time>2026-05-04T09:16:32.663Z</time></trkpt><trkpt lat="42.4494631" lon="18.7657897"><ele>21.8</ele><time>2026-05-04T09:16:33.664Z</time></trkpt><trkpt lat="42.4495474" lon="18.7657134"><ele>22.0</ele><time>2026-05-04T09:16:34.665Z</time></trkpt><trkpt lat="42.4496259" lon="18.7656495"><ele>22.0</ele><time>2026-05-04T09:16:35.664Z</time></trkpt><trkpt lat="42.449708" lon="18.7655873"><ele>22.0</ele><time>2026-05-04T09:16:36.663Z</time></trkpt><trkpt lat="42.4497906" lon="18.7655315"><ele>22.0</ele><time>2026-05-04T09:16:37.663Z</time></trkpt><trkpt lat="42.449874" lon="18.7654921"><ele>22.0</ele><time>2026-05-04T09:16:38.667Z</time></trkpt><trkpt lat="42.4499538" lon="18.7654538"><ele>22.0</ele><time>2026-05-04T09:16:39.664Z</time></trkpt><trkpt lat="42.4500349" lon="18.7654338"><ele>22.0</ele><time>2026-05-04T09:16:40.664Z</time></trkpt><trkpt lat="42.4501209" lon="18.7654251"><ele>22.0</ele><time>2026-05-04T09:16:41.664Z</time></trkpt><trkpt lat="42.4502042" lon="18.7654301"><ele>22.0</ele><time>2026-05-04T09:16:42.664Z</time></trkpt><trkpt lat="42.4502984" lon="18.7654482"><ele>22.0</ele><time>2026-05-04T09:16:43.663Z</time></trkpt><trkpt lat="42.4503964" lon="18.7654791"><ele>22.0</ele><time>2026-05-04T09:16:44.663Z</time></trkpt><trkpt lat="42.4504854" lon="18.7655302"><ele>22.0</ele><time>2026-05-04T09:16:45.663Z</time></trkpt><trkpt lat="42.4505895" lon="18.7656181"><ele>21.0</ele><time>2026-05-04T09:16:46.664Z</time></trkpt><trkpt lat="42.4506814" lon="18.765724"><ele>20.0</ele><time>2026-05-04T09:16:47.663Z</time></trkpt><trkpt lat="42.4507693" lon="18.7658253"><ele>19.0</ele><time>2026-05-04T09:16:48.663Z</time></trkpt><trkpt lat="42.4508516" lon="18.765924"><ele>18.0</ele><time>2026-05-04T09:16:49.661Z</time></trkpt><trkpt lat="42.4509393" lon="18.7660115"><ele>20.4</ele><time>2026-05-04T09:16:50.663Z</time></trkpt><trkpt lat="42.4510321" lon="18.7660756"><ele>22.8</ele><time>2026-05-04T09:16:51.664Z</time></trkpt><trkpt lat="42.4511299" lon="18.7661155"><ele>25.2</ele><time>2026-05-04T09:16:52.664Z</time></trkpt><trkpt lat="42.4512306" lon="18.76614"><ele>27.6</ele><time>2026-05-04T09:16:53.663Z</time></trkpt><trkpt lat="42.4513291" lon="18.7661474"><ele>30.0</ele><time>2026-05-04T09:16:54.663Z</time></trkpt><trkpt lat="42.4514258" lon="18.7661366"><ele>30.0</ele><time>2026-05-04T09:16:55.662Z</time></trkpt><trkpt lat="42.4515163" lon="18.7661137"><ele>30.0</ele><time>2026-05-04T09:16:56.663Z</time></trkpt><trkpt lat="42.4516032" lon="18.7660825"><ele>30.0</ele><time>2026-05-04T09:16:57.664Z</time></trkpt><trkpt lat="42.4516909" lon="18.7660395"><ele>30.0</ele><time>2026-05-04T09:16:58.667Z</time></trkpt><trkpt lat="42.4517705" lon="18.765995"><ele>30.0</ele><time>2026-05-04T09:16:59.663Z</time></trkpt><trkpt lat="42.4518521" lon="18.7659471"><ele>27.8</ele><time>2026-05-04T09:17:00.664Z</time></trkpt><trkpt lat="42.4519412" lon="18.7659024"><ele>25.6</ele><time>2026-05-04T09:17:01.662Z</time></trkpt><trkpt lat="42.4520304" lon="18.7658576"><ele>23.4</ele><time>2026-05-04T09:17:02.662Z</time></trkpt><trkpt lat="42.4521218" lon="18.7658178"><ele>21.2</ele><time>2026-05-04T09:17:03.665Z</time></trkpt><trkpt lat="42.4522208" lon="18.7657791"><ele>19.0</ele><time>2026-05-04T09:17:04.662Z</time></trkpt><trkpt lat="42.4523244" lon="18.7657453"><ele>19.0</ele><time>2026-05-04T09:17:05.664Z</time></trkpt><trkpt lat="42.4524263" lon="18.765716"><ele>19.0</ele><time>2026-05-04T09:17:06.667Z</time></trkpt><trkpt lat="42.4525305" lon="18.7656951"><ele>19.0</ele><time>2026-05-04T09:17:07.664Z</time></trkpt><trkpt lat="42.4526402" lon="18.765685"><ele>19.0</ele><time>2026-05-04T09:17:08.666Z</time></trkpt><trkpt lat="42.4527606" lon="18.7656777"><ele>19.0</ele><time>2026-05-04T09:17:09.665Z</time></trkpt><trkpt lat="42.4529119" lon="18.7656758"><ele>17.666666666666664</ele><time>2026-05-04T09:17:10.664Z</time></trkpt><trkpt lat="42.4530671" lon="18.7657076"><ele>16.333333333333332</ele><time>2026-05-04T09:17:11.666Z</time></trkpt><trkpt lat="42.4532214" lon="18.7657559"><ele>15.0</ele><time>2026-05-04T09:17:12.664Z</time></trkpt><trkpt lat="42.4533873" lon="18.7658335"><ele>15.0</ele><time>2026-05-04T09:17:13.665Z</time></trkpt><trkpt lat="42.453544" lon="18.7659271"><ele>15.0</ele><time>2026-05-04T09:17:14.664Z</time></trkpt><trkpt lat="42.4537067" lon="18.7660279"><ele>15.0</ele><time>2026-05-04T09:17:15.664Z</time></trkpt><trkpt lat="42.453864" lon="18.7661383"><ele>17.666666666666668</ele><time>2026-05-04T09:17:16.667Z</time></trkpt><trkpt lat="42.4540177" lon="18.7662611"><ele>20.333333333333336</ele><time>2026-05-04T09:17:17.662Z</time></trkpt><trkpt lat="42.4541806" lon="18.7663724"><ele>23.0</ele><time>2026-05-04T09:17:18.662Z</time></trkpt><trkpt lat="42.4543089" lon="18.7664612"><ele>23.0</ele><time>2026-05-04T09:17:19.664Z</time></trkpt><trkpt lat="42.4544516" lon="18.7665388"><ele>23.0</ele><time>2026-05-04T09:17:20.665Z</time></trkpt><trkpt lat="42.4545885" lon="18.7665997"><ele>23.0</ele><time>2026-05-04T09:17:21.663Z</time></trkpt><trkpt lat="42.454723" lon="18.7666588"><ele>23.0</ele><time>2026-05-04T09:17:22.664Z</time></trkpt><trkpt lat="42.4548595" lon="18.7667088"><ele>20.75</ele><time>2026-05-04T09:17:23.663Z</time></trkpt><trkpt lat="42.4549928" lon="18.7667422"><ele>18.5</ele><time>2026-05-04T09:17:24.663Z</time></trkpt><trkpt lat="42.4551218" lon="18.7667655"><ele>16.25</ele><time>2026-05-04T09:17:25.663Z</time></trkpt><trkpt lat="42.4552473" lon="18.7667824"><ele>14.0</ele><time>2026-05-04T09:17:26.666Z</time></trkpt><trkpt lat="42.4553648" lon="18.7667873"><ele>13.399999999999999</ele><time>2026-05-04T09:17:27.665Z</time></trkpt><trkpt lat="42.4554814" lon="18.7667779"><ele>12.799999999999999</ele><time>2026-05-04T09:17:28.666Z</time></trkpt><trkpt lat="42.4555988" lon="18.7667723"><ele>12.2</ele><time>2026-05-04T09:17:29.666Z</time></trkpt><trkpt lat="42.4557054" lon="18.7667512"><ele>11.600000000000001</ele><time>2026-05-04T09:17:30.663Z</time></trkpt><trkpt lat="42.45581" lon="18.7667251"><ele>11.0</ele><time>2026-05-04T09:17:31.665Z</time></trkpt><trkpt lat="42.4559105" lon="18.7666915"><ele>11.0</ele><time>2026-05-04T09:17:32.664Z</time></trkpt><trkpt lat="42.4560148" lon="18.7666493"><ele>11.0</ele><time>2026-05-04T09:17:33.664Z</time></trkpt><trkpt lat="42.4561219" lon="18.7665946"><ele>11.0</ele><time>2026-05-04T09:17:34.663Z</time></trkpt><trkpt lat="42.4562351" lon="18.7665286"><ele>11.0</ele><time>2026-05-04T09:17:35.665Z</time></trkpt><trkpt lat="42.456346" lon="18.7664525"><ele>12.5</ele><time>2026-05-04T09:17:36.665Z</time></trkpt><trkpt lat="42.4564641" lon="18.766383"><ele>14.0</ele><time>2026-05-04T09:17:37.665Z</time></trkpt><trkpt lat="42.4565771" lon="18.7663092"><ele>15.5</ele><time>2026-05-04T09:17:38.665Z</time></trkpt><trkpt lat="42.4566915" lon="18.7662253"><ele>17.0</ele><time>2026-05-04T09:17:39.665Z</time></trkpt><trkpt lat="42.4567963" lon="18.7661578"><ele>17.0</ele><time>2026-05-04T09:17:40.663Z</time></trkpt><trkpt lat="42.456898" lon="18.7660932"><ele>17.0</ele><time>2026-05-04T09:17:41.667Z</time></trkpt><trkpt lat="42.4570036" lon="18.7660307"><ele>17.0</ele><time>2026-05-04T09:17:42.663Z</time></trkpt><trkpt lat="42.4571086" lon="18.7659776"><ele>17.0</ele><time>2026-05-04T09:17:43.664Z</time></trkpt><trkpt lat="42.4572108" lon="18.7659387"><ele>17.0</ele><time>2026-05-04T09:17:44.661Z</time></trkpt><trkpt lat="42.4573106" lon="18.7659077"><ele>16.0</ele><time>2026-05-04T09:17:45.667Z</time></trkpt><trkpt lat="42.4574032" lon="18.7658998"><ele>15.0</ele><time>2026-05-04T09:17:46.664Z</time></trkpt><trkpt lat="42.4575023" lon="18.7658901"><ele>14.0</ele><time>2026-05-04T09:17:47.667Z</time></trkpt><trkpt lat="42.4576027" lon="18.7658907"><ele>13.0</ele><time>2026-05-04T09:17:48.664Z</time></trkpt><trkpt lat="42.4577024" lon="18.7659004"><ele>12.0</ele><time>2026-05-04T09:17:49.666Z</time></trkpt><trkpt lat="42.4578031" lon="18.7659262"><ele>12.0</ele><time>2026-05-04T09:17:50.664Z</time></trkpt><trkpt lat="42.457905" lon="18.7659446"><ele>12.0</ele><time>2026-05-04T09:17:51.665Z</time></trkpt><trkpt lat="42.4580122" lon="18.7659743"><ele>12.0</ele><time>2026-05-04T09:17:52.661Z</time></trkpt><trkpt lat="42.4581201" lon="18.7659929"><ele>12.0</ele><time>2026-05-04T09:17:53.665Z</time></trkpt><trkpt lat="42.4582315" lon="18.7660001"><ele>12.0</ele><time>2026-05-04T09:17:54.664Z</time></trkpt><trkpt lat="42.4583458" lon="18.766007"><ele>12.0</ele><time>2026-05-04T09:17:55.663Z</time></trkpt><trkpt lat="42.4584657" lon="18.7660032"><ele>12.0</ele><time>2026-05-04T09:17:56.667Z</time></trkpt><trkpt lat="42.4585935" lon="18.7659964"><ele>12.0</ele><time>2026-05-04T09:17:57.664Z</time></trkpt><trkpt lat="42.4587172" lon="18.7659813"><ele>12.0</ele><time>2026-05-04T09:17:58.665Z</time></trkpt><trkpt lat="42.4588477" lon="18.765957"><ele>12.75</ele><time>2026-05-04T09:17:59.666Z</time></trkpt><trkpt lat="42.4589715" lon="18.7659216"><ele>13.5</ele><time>2026-05-04T09:18:00.665Z</time></trkpt><trkpt lat="42.4590966" lon="18.7658754"><ele>14.25</ele><time>2026-05-04T09:18:01.664Z</time></trkpt><trkpt lat="42.4592216" lon="18.7658203"><ele>15.0</ele><time>2026-05-04T09:18:02.664Z</time></trkpt><trkpt lat="42.4593484" lon="18.7657545"><ele>15.0</ele><time>2026-05-04T09:18:03.665Z</time></trkpt><trkpt lat="42.4594749" lon="18.7656794"><ele>15.0</ele><time>2026-05-04T09:18:04.664Z</time></trkpt><trkpt lat="42.4595917" lon="18.7656032"><ele>15.0</ele><time>2026-05-04T09:18:05.662Z</time></trkpt><trkpt lat="42.459703" lon="18.7655287"><ele>15.0</ele><time>2026-05-04T09:18:06.665Z</time></trkpt><trkpt lat="42.4598097" lon="18.765458"><ele>15.8</ele><time>2026-05-04T09:18:07.663Z</time></trkpt><trkpt lat="42.4599155" lon="18.7653959"><ele>16.6</ele><time>2026-05-04T09:18:08.665Z</time></trkpt><trkpt lat="42.4600083" lon="18.7653347"><ele>17.4</ele><time>2026-05-04T09:18:09.667Z</time></trkpt><trkpt lat="42.460101" lon="18.7652829"><ele>18.2</ele><time>2026-05-04T09:18:10.665Z</time></trkpt><trkpt lat="42.4601926" lon="18.7652382"><ele>19.0</ele><time>2026-05-04T09:18:11.665Z</time></trkpt><trkpt lat="42.4602855" lon="18.7651964"><ele>17.666666666666664</ele><time>2026-05-04T09:18:12.664Z</time></trkpt><trkpt lat="42.4603757" lon="18.7651618"><ele>16.333333333333332</ele><time>2026-05-04T09:18:13.665Z</time></trkpt><trkpt lat="42.4604641" lon="18.7651317"><ele>15.0</ele><time>2026-05-04T09:18:14.665Z</time></trkpt><trkpt lat="42.4605424" lon="18.7651107"><ele>13.666666666666666</ele><time>2026-05-04T09:18:15.663Z</time></trkpt><trkpt lat="42.4606237" lon="18.7650961"><ele>12.333333333333332</ele><time>2026-05-04T09:18:16.666Z</time></trkpt><trkpt lat="42.4606987" lon="18.7650915"><ele>11.0</ele><time>2026-05-04T09:18:17.664Z</time></trkpt><trkpt lat="42.460766" lon="18.7650834"><ele>11.0</ele><time>2026-05-04T09:18:18.662Z</time></trkpt><trkpt lat="42.460894" lon="18.7650725"><ele>11.0</ele><time>2026-05-04T09:18:20.662Z</time></trkpt><trkpt lat="42.460999" lon="18.765076"><ele>11.0</ele><time>2026-05-04T09:18:22.664Z</time></trkpt><trkpt lat="42.4610987" lon="18.7650853"><ele>11.0</ele><time>2026-05-04T09:18:24.663Z</time></trkpt><trkpt lat="42.4611668" lon="18.7650851"><ele>11.0</ele><time>2026-05-04T09:18:25.662Z</time></trkpt><trkpt lat="42.4612568" lon="18.7650763"><ele>11.25</ele><time>2026-05-04T09:18:26.663Z</time></trkpt><trkpt lat="42.4613749" lon="18.7651007"><ele>11.5</ele><time>2026-05-04T09:18:27.668Z</time></trkpt><trkpt lat="42.4614943" lon="18.7651204"><ele>11.75</ele><time>2026-05-04T09:18:28.662Z</time></trkpt><trkpt lat="42.4616138" lon="18.7651361"><ele>12.0</ele><time>2026-05-04T09:18:29.662Z</time></trkpt><trkpt lat="42.4617351" lon="18.7651471"><ele>12.0</ele><time>2026-05-04T09:18:30.664Z</time></trkpt><trkpt lat="42.461852" lon="18.7651556"><ele>12.0</ele><time>2026-05-04T09:18:31.662Z</time></trkpt><trkpt lat="42.4619679" lon="18.7651558"><ele>12.0</ele><time>2026-05-04T09:18:32.666Z</time></trkpt><trkpt lat="42.4620724" lon="18.7651547"><ele>12.0</ele><time>2026-05-04T09:18:33.665Z</time></trkpt><trkpt lat="42.4621888" lon="18.7651541"><ele>11.75</ele><time>2026-05-04T09:18:34.667Z</time></trkpt><trkpt lat="42.4623093" lon="18.7651529"><ele>11.5</ele><time>2026-05-04T09:18:35.663Z</time></trkpt><trkpt lat="42.4624278" lon="18.7651485"><ele>11.25</ele><time>2026-05-04T09:18:36.665Z</time></trkpt><trkpt lat="42.4625408" lon="18.7651381"><ele>11.0</ele><time>2026-05-04T09:18:37.666Z</time></trkpt><trkpt lat="42.4626545" lon="18.7651271"><ele>11.0</ele><time>2026-05-04T09:18:38.662Z</time></trkpt><trkpt lat="42.4627691" lon="18.7651158"><ele>11.0</ele><time>2026-05-04T09:18:39.663Z</time></trkpt><trkpt lat="42.4628844" lon="18.7650979"><ele>11.0</ele><time>2026-05-04T09:18:40.666Z</time></trkpt><trkpt lat="42.4630097" lon="18.7650685"><ele>11.0</ele><time>2026-05-04T09:18:41.664Z</time></trkpt><trkpt lat="42.4631462" lon="18.7650352"><ele>11.75</ele><time>2026-05-04T09:18:42.666Z</time></trkpt><trkpt lat="42.4632886" lon="18.7650089"><ele>12.5</ele><time>2026-05-04T09:18:43.665Z</time></trkpt><trkpt lat="42.4634362" lon="18.7649851"><ele>13.25</ele><time>2026-05-04T09:18:44.667Z</time></trkpt><trkpt lat="42.4635777" lon="18.764959"><ele>14.0</ele><time>2026-05-04T09:18:45.663Z</time></trkpt><trkpt lat="42.4637113" lon="18.7649316"><ele>14.5</ele><time>2026-05-04T09:18:46.664Z</time></trkpt><trkpt lat="42.4638358" lon="18.7649134"><ele>15.0</ele><time>2026-05-04T09:18:47.664Z</time></trkpt><trkpt lat="42.4639542" lon="18.7648823"><ele>15.5</ele><time>2026-05-04T09:18:48.664Z</time></trkpt><trkpt lat="42.4640726" lon="18.764853"><ele>16.0</ele><time>2026-05-04T09:18:49.663Z</time></trkpt><trkpt lat="42.4641865" lon="18.7648275"><ele>16.0</ele><time>2026-05-04T09:18:50.665Z</time></trkpt><trkpt lat="42.4642979" lon="18.7647985"><ele>16.0</ele><time>2026-05-04T09:18:51.663Z</time></trkpt><trkpt lat="42.464402" lon="18.7647697"><ele>16.0</ele><time>2026-05-04T09:18:52.665Z</time></trkpt><trkpt lat="42.4645006" lon="18.7647431"><ele>16.0</ele><time>2026-05-04T09:18:53.664Z</time></trkpt><trkpt lat="42.4645965" lon="18.7647205"><ele>16.0</ele><time>2026-05-04T09:18:54.665Z</time></trkpt><trkpt lat="42.464686" lon="18.7646951"><ele>16.5</ele><time>2026-05-04T09:18:55.663Z</time></trkpt><trkpt lat="42.4647736" lon="18.764672"><ele>17.0</ele><time>2026-05-04T09:18:56.664Z</time></trkpt><trkpt lat="42.4648526" lon="18.7646517"><ele>17.5</ele><time>2026-05-04T09:18:57.663Z</time></trkpt><trkpt lat="42.4649321" lon="18.7646315"><ele>18.0</ele><time>2026-05-04T09:18:58.664Z</time></trkpt><trkpt lat="42.4650141" lon="18.7646137"><ele>18.5</ele><time>2026-05-04T09:18:59.663Z</time></trkpt><trkpt lat="42.4650944" lon="18.7645946"><ele>19.0</ele><time>2026-05-04T09:19:00.664Z</time></trkpt><trkpt lat="42.4651811" lon="18.7645771"><ele>19.0</ele><time>2026-05-04T09:19:01.661Z</time></trkpt><trkpt lat="42.4652765" lon="18.7645594"><ele>19.0</ele><time>2026-05-04T09:19:02.662Z</time></trkpt><trkpt lat="42.4653561" lon="18.7645376"><ele>19.0</ele><time>2026-05-04T09:19:03.665Z</time></trkpt><trkpt lat="42.4654372" lon="18.7645231"><ele>19.0</ele><time>2026-05-04T09:19:04.665Z</time></trkpt><trkpt lat="42.4655196" lon="18.7645085"><ele>19.0</ele><time>2026-05-04T09:19:05.666Z</time></trkpt><trkpt lat="42.4656056" lon="18.7644947"><ele>19.0</ele><time>2026-05-04T09:19:06.662Z</time></trkpt><trkpt lat="42.4656938" lon="18.7644845"><ele>19.0</ele><time>2026-05-04T09:19:07.664Z</time></trkpt><trkpt lat="42.4657845" lon="18.7644716"><ele>19.0</ele><time>2026-05-04T09:19:08.66Z</time></trkpt><trkpt lat="42.4658747" lon="18.7644609"><ele>19.0</ele><time>2026-05-04T09:19:09.664Z</time></trkpt><trkpt lat="42.4659616" lon="18.764452"><ele>19.0</ele><time>2026-05-04T09:19:10.663Z</time></trkpt><trkpt lat="42.4660426" lon="18.7644449"><ele>19.0</ele><time>2026-05-04T09:19:11.664Z</time></trkpt><trkpt lat="42.4661188" lon="18.7644424"><ele>19.0</ele><time>2026-05-04T09:19:12.665Z</time></trkpt><trkpt lat="42.4661893" lon="18.7644373"><ele>19.0</ele><time>2026-05-04T09:19:13.666Z</time></trkpt><trkpt lat="42.4662528" lon="18.7644354"><ele>19.0</ele><time>2026-05-04T09:19:14.664Z</time></trkpt><trkpt lat="42.4663648" lon="18.76443"><ele>19.0</ele><time>2026-05-04T09:19:16.664Z</time></trkpt><trkpt lat="42.4664925" lon="18.7644332"><ele>19.0</ele><time>2026-05-04T09:19:18.664Z</time></trkpt><trkpt lat="42.4665633" lon="18.7644341"><ele>19.0</ele><time>2026-05-04T09:19:19.662Z</time></trkpt><trkpt lat="42.4666409" lon="18.7644341"><ele>18.8</ele><time>2026-05-04T09:19:20.668Z</time></trkpt><trkpt lat="42.4667304" lon="18.7644354"><ele>18.599999999999998</ele><time>2026-05-04T09:19:21.665Z</time></trkpt><trkpt lat="42.4668227" lon="18.76444"><ele>18.4</ele><time>2026-05-04T09:19:22.664Z</time></trkpt><trkpt lat="42.4669135" lon="18.764448"><ele>18.2</ele><time>2026-05-04T09:19:23.665Z</time></trkpt><trkpt lat="42.4670089" lon="18.7644581"><ele>18.0</ele><time>2026-05-04T09:19:24.665Z</time></trkpt><trkpt lat="42.4670983" lon="18.7644677"><ele>17.8</ele><time>2026-05-04T09:19:25.664Z</time></trkpt><trkpt lat="42.4671846" lon="18.7644746"><ele>17.6</ele><time>2026-05-04T09:19:26.665Z</time></trkpt><trkpt lat="42.4672727" lon="18.7644844"><ele>17.4</ele><time>2026-05-04T09:19:27.663Z</time></trkpt><trkpt lat="42.4673593" lon="18.7644926"><ele>17.2</ele><time>2026-05-04T09:19:28.667Z</time></trkpt><trkpt lat="42.4674584" lon="18.7645066"><ele>17.0</ele><time>2026-05-04T09:19:29.662Z</time></trkpt><trkpt lat="42.4675583" lon="18.7645264"><ele>17.0</ele><time>2026-05-04T09:19:30.664Z</time></trkpt><trkpt lat="42.4676639" lon="18.7645511"><ele>17.0</ele><time>2026-05-04T09:19:31.662Z</time></trkpt><trkpt lat="42.4677788" lon="18.7645759"><ele>17.0</ele><time>2026-05-04T09:19:32.663Z</time></trkpt><trkpt lat="42.4678939" lon="18.7646044"><ele>17.0</ele><time>2026-05-04T09:19:33.665Z</time></trkpt><trkpt lat="42.46801" lon="18.7646346"><ele>16.25</ele><time>2026-05-04T09:19:34.664Z</time></trkpt><trkpt lat="42.4681274" lon="18.7646665"><ele>15.5</ele><time>2026-05-04T09:19:35.662Z</time></trkpt><trkpt lat="42.4682444" lon="18.7646976"><ele>14.75</ele><time>2026-05-04T09:19:36.665Z</time></trkpt><trkpt lat="42.4683628" lon="18.7647333"><ele>14.0</ele><time>2026-05-04T09:19:37.667Z</time></trkpt><trkpt lat="42.4684823" lon="18.7647759"><ele>14.0</ele><time>2026-05-04T09:19:38.667Z</time></trkpt><trkpt lat="42.4686023" lon="18.7648161"><ele>14.0</ele><time>2026-05-04T09:19:39.664Z</time></trkpt><trkpt lat="42.4687299" lon="18.7648466"><ele>14.0</ele><time>2026-05-04T09:19:40.663Z</time></trkpt><trkpt lat="42.4688448" lon="18.7648777"><ele>14.0</ele><time>2026-05-04T09:19:41.666Z</time></trkpt><trkpt lat="42.4689568" lon="18.7649175"><ele>14.0</ele><time>2026-05-04T09:19:42.664Z</time></trkpt><trkpt lat="42.4690672" lon="18.7649536"><ele>14.0</ele><time>2026-05-04T09:19:43.668Z</time></trkpt><trkpt lat="42.4691762" lon="18.7649843"><ele>14.0</ele><time>2026-05-04T09:19:44.666Z</time></trkpt><trkpt lat="42.4692864" lon="18.7650142"><ele>14.0</ele><time>2026-05-04T09:19:45.664Z</time></trkpt><trkpt lat="42.4694089" lon="18.7650396"><ele>14.0</ele><time>2026-05-04T09:19:46.661Z</time></trkpt><trkpt lat="42.4695217" lon="18.7650469"><ele>14.0</ele><time>2026-05-04T09:19:47.664Z</time></trkpt><trkpt lat="42.4696432" lon="18.7650567"><ele>14.0</ele><time>2026-05-04T09:19:48.667Z</time></trkpt><trkpt lat="42.4697617" lon="18.7650614"><ele>14.0</ele><time>2026-05-04T09:19:49.662Z</time></trkpt><trkpt lat="42.4698966" lon="18.7650544"><ele>13.75</ele><time>2026-05-04T09:19:50.663Z</time></trkpt><trkpt lat="42.4700183" lon="18.7650376"><ele>13.5</ele><time>2026-05-04T09:19:51.664Z</time></trkpt><trkpt lat="42.4701387" lon="18.7650072"><ele>13.25</ele><time>2026-05-04T09:19:52.665Z</time></trkpt><trkpt lat="42.470263" lon="18.7649582"><ele>13.0</ele><time>2026-05-04T09:19:53.664Z</time></trkpt><trkpt lat="42.4703823" lon="18.7649048"><ele>14.25</ele><time>2026-05-04T09:19:54.664Z</time></trkpt><trkpt lat="42.4704979" lon="18.7648463"><ele>15.5</ele><time>2026-05-04T09:19:55.663Z</time></trkpt><trkpt lat="42.4706173" lon="18.764778"><ele>16.75</ele><time>2026-05-04T09:19:56.662Z</time></trkpt><trkpt lat="42.4707362" lon="18.7647122"><ele>18.0</ele><time>2026-05-04T09:19:57.666Z</time></trkpt><trkpt lat="42.4708564" lon="18.7646458"><ele>18.0</ele><time>2026-05-04T09:19:58.664Z</time></trkpt><trkpt lat="42.4709676" lon="18.7645687"><ele>18.0</ele><time>2026-05-04T09:19:59.665Z</time></trkpt><trkpt lat="42.4710805" lon="18.7645011"><ele>18.0</ele><time>2026-05-04T09:20:00.665Z</time></trkpt><trkpt lat="42.4711906" lon="18.764431"><ele>18.0</ele><time>2026-05-04T09:20:01.662Z</time></trkpt><trkpt lat="42.4713006" lon="18.7643604"><ele>16.25</ele><time>2026-05-04T09:20:02.664Z</time></trkpt><trkpt lat="42.4714141" lon="18.7642992"><ele>14.5</ele><time>2026-05-04T09:20:03.665Z</time></trkpt><trkpt lat="42.4715221" lon="18.7642272"><ele>12.75</ele><time>2026-05-04T09:20:04.664Z</time></trkpt><trkpt lat="42.4716305" lon="18.7641593"><ele>11.0</ele><time>2026-05-04T09:20:05.661Z</time></trkpt><trkpt lat="42.4717416" lon="18.7640974"><ele>11.0</ele><time>2026-05-04T09:20:06.662Z</time></trkpt><trkpt lat="42.4718447" lon="18.7640521"><ele>11.0</ele><time>2026-05-04T09:20:07.663Z</time></trkpt><trkpt lat="42.471946" lon="18.7640209"><ele>11.0</ele><time>2026-05-04T09:20:08.668Z</time></trkpt><trkpt lat="42.4720589" lon="18.7640134"><ele>11.0</ele><time>2026-05-04T09:20:09.662Z</time></trkpt><trkpt lat="42.4721646" lon="18.7640129"><ele>11.0</ele><time>2026-05-04T09:20:10.664Z</time></trkpt><trkpt lat="42.4722736" lon="18.7640417"><ele>11.0</ele><time>2026-05-04T09:20:11.663Z</time></trkpt><trkpt lat="42.4723731" lon="18.7640984"><ele>11.0</ele><time>2026-05-04T09:20:12.664Z</time></trkpt><trkpt lat="42.472476" lon="18.7641721"><ele>11.0</ele><time>2026-05-04T09:20:13.665Z</time></trkpt><trkpt lat="42.4725767" lon="18.7642674"><ele>11.0</ele><time>2026-05-04T09:20:14.665Z</time></trkpt><trkpt lat="42.4726808" lon="18.7643802"><ele>11.75</ele><time>2026-05-04T09:20:15.664Z</time></trkpt><trkpt lat="42.4727851" lon="18.7644893"><ele>12.5</ele><time>2026-05-04T09:20:16.666Z</time></trkpt><trkpt lat="42.4728952" lon="18.7645899"><ele>13.25</ele><time>2026-05-04T09:20:17.666Z</time></trkpt><trkpt lat="42.473011" lon="18.764663"><ele>14.0</ele><time>2026-05-04T09:20:18.663Z</time></trkpt><trkpt lat="42.4731288" lon="18.7647177"><ele>14.0</ele><time>2026-05-04T09:20:19.668Z</time></trkpt><trkpt lat="42.4732586" lon="18.7647471"><ele>14.0</ele><time>2026-05-04T09:20:20.663Z</time></trkpt><trkpt lat="42.4733878" lon="18.7647612"><ele>14.0</ele><time>2026-05-04T09:20:21.665Z</time></trkpt><trkpt lat="42.4735127" lon="18.7647482"><ele>14.0</ele><time>2026-05-04T09:20:22.659Z</time></trkpt><trkpt lat="42.4736232" lon="18.7647192"><ele>14.0</ele><time>2026-05-04T09:20:23.664Z</time></trkpt><trkpt lat="42.4737305" lon="18.7646786"><ele>13.999999999999998</ele><time>2026-05-04T09:20:24.663Z</time></trkpt><trkpt lat="42.4738363" lon="18.7646479"><ele>13.999999999999998</ele><time>2026-05-04T09:20:25.665Z</time></trkpt><trkpt lat="42.4739395" lon="18.7646143"><ele>14.0</ele><time>2026-05-04T09:20:26.664Z</time></trkpt><trkpt lat="42.4740476" lon="18.7645887"><ele>14.0</ele><time>2026-05-04T09:20:27.662Z</time></trkpt><trkpt lat="42.4741567" lon="18.76459"><ele>13.799999999999999</ele><time>2026-05-04T09:20:28.665Z</time></trkpt><trkpt lat="42.4742643" lon="18.7646089"><ele>13.599999999999998</ele><time>2026-05-04T09:20:29.663Z</time></trkpt><trkpt lat="42.47437" lon="18.764647"><ele>13.4</ele><time>2026-05-04T09:20:30.664Z</time></trkpt><trkpt lat="42.4744733" lon="18.7646981"><ele>13.2</ele><time>2026-05-04T09:20:31.664Z</time></trkpt><trkpt lat="42.4745811" lon="18.7647439"><ele>13.0</ele><time>2026-05-04T09:20:32.662Z</time></trkpt><trkpt lat="42.474698" lon="18.7647975"><ele>12.75</ele><time>2026-05-04T09:20:33.667Z</time></trkpt><trkpt lat="42.4748209" lon="18.7648315"><ele>12.5</ele><time>2026-05-04T09:20:34.665Z</time></trkpt><trkpt lat="42.4749455" lon="18.7648281"><ele>12.25</ele><time>2026-05-04T09:20:35.664Z</time></trkpt><trkpt lat="42.475069" lon="18.7648186"><ele>12.0</ele><time>2026-05-04T09:20:36.664Z</time></trkpt><trkpt lat="42.4751944" lon="18.7648015"><ele>12.0</ele><time>2026-05-04T09:20:37.664Z</time></trkpt><trkpt lat="42.4753183" lon="18.7647759"><ele>12.0</ele><time>2026-05-04T09:20:38.666Z</time></trkpt><trkpt lat="42.4754456" lon="18.7647662"><ele>12.0</ele><time>2026-05-04T09:20:39.663Z</time></trkpt><trkpt lat="42.4755781" lon="18.7647834"><ele>12.0</ele><time>2026-05-04T09:20:40.664Z</time></trkpt><trkpt lat="42.4757061" lon="18.7648052"><ele>12.5</ele><time>2026-05-04T09:20:41.666Z</time></trkpt><trkpt lat="42.4758242" lon="18.7648227"><ele>13.0</ele><time>2026-05-04T09:20:42.663Z</time></trkpt><trkpt lat="42.4759478" lon="18.7648197"><ele>13.5</ele><time>2026-05-04T09:20:43.661Z</time></trkpt><trkpt lat="42.4760618" lon="18.7647909"><ele>14.0</ele><time>2026-05-04T09:20:44.662Z</time></trkpt><trkpt lat="42.4761691" lon="18.7647203"><ele>15.5</ele><time>2026-05-04T09:20:45.665Z</time></trkpt><trkpt lat="42.4762728" lon="18.7646276"><ele>17.0</ele><time>2026-05-04T09:20:46.665Z</time></trkpt><trkpt lat="42.4763675" lon="18.7645122"><ele>18.5</ele><time>2026-05-04T09:20:47.666Z</time></trkpt><trkpt lat="42.4764624" lon="18.7644"><ele>20.0</ele><time>2026-05-04T09:20:48.663Z</time></trkpt><trkpt lat="42.4765554" lon="18.7642818"><ele>17.0</ele><time>2026-05-04T09:20:49.663Z</time></trkpt><trkpt lat="42.4766521" lon="18.764163"><ele>14.0</ele><time>2026-05-04T09:20:50.665Z</time></trkpt><trkpt lat="42.4767482" lon="18.764046"><ele>11.0</ele><time>2026-05-04T09:20:51.663Z</time></trkpt><trkpt lat="42.4768584" lon="18.7639602"><ele>8.0</ele><time>2026-05-04T09:20:52.662Z</time></trkpt><trkpt lat="42.4769716" lon="18.763871"><ele>8.0</ele><time>2026-05-04T09:20:53.665Z</time></trkpt><trkpt lat="42.4770859" lon="18.76379"><ele>8.0</ele><time>2026-05-04T09:20:54.664Z</time></trkpt><trkpt lat="42.477203" lon="18.7637185"><ele>8.0</ele><time>2026-05-04T09:20:55.667Z</time></trkpt><trkpt lat="42.4773213" lon="18.7636567"><ele>8.0</ele><time>2026-05-04T09:20:56.664Z</time></trkpt><trkpt lat="42.4774453" lon="18.7636139"><ele>7.75</ele><time>2026-05-04T09:20:57.664Z</time></trkpt><trkpt lat="42.4775693" lon="18.763583"><ele>7.5</ele><time>2026-05-04T09:20:58.662Z</time></trkpt><trkpt lat="42.4776949" lon="18.7635539"><ele>7.25</ele><time>2026-05-04T09:20:59.664Z</time></trkpt><trkpt lat="42.4778233" lon="18.763535"><ele>7.0</ele><time>2026-05-04T09:21:00.663Z</time></trkpt><trkpt lat="42.4779508" lon="18.7635152"><ele>7.0</ele><time>2026-05-04T09:21:01.663Z</time></trkpt><trkpt lat="42.4780795" lon="18.7635047"><ele>7.0</ele><time>2026-05-04T09:21:02.664Z</time></trkpt><trkpt lat="42.4782093" lon="18.7635073"><ele>7.0</ele><time>2026-05-04T09:21:03.664Z</time></trkpt><trkpt lat="42.4783364" lon="18.7635251"><ele>7.0</ele><time>2026-05-04T09:21:04.663Z</time></trkpt><trkpt lat="42.4784639" lon="18.7635489"><ele>8.25</ele><time>2026-05-04T09:21:05.663Z</time></trkpt><trkpt lat="42.4785886" lon="18.7635818"><ele>9.5</ele><time>2026-05-04T09:21:06.662Z</time></trkpt><trkpt lat="42.4787178" lon="18.7636263"><ele>10.75</ele><time>2026-05-04T09:21:07.662Z</time></trkpt><trkpt lat="42.4788447" lon="18.7636864"><ele>12.0</ele><time>2026-05-04T09:21:08.663Z</time></trkpt><trkpt lat="42.4789666" lon="18.7637499"><ele>12.0</ele><time>2026-05-04T09:21:09.663Z</time></trkpt><trkpt lat="42.4790756" lon="18.7638366"><ele>12.0</ele><time>2026-05-04T09:21:10.666Z</time></trkpt><trkpt lat="42.4791878" lon="18.7639212"><ele>12.0</ele><time>2026-05-04T09:21:11.664Z</time></trkpt><trkpt lat="42.4792906" lon="18.7640099"><ele>12.0</ele><time>2026-05-04T09:21:12.664Z</time></trkpt><trkpt lat="42.4794036" lon="18.7641111"><ele>12.0</ele><time>2026-05-04T09:21:13.665Z</time></trkpt><trkpt lat="42.479491" lon="18.7642369"><ele>12.0</ele><time>2026-05-04T09:21:14.661Z</time></trkpt><trkpt lat="42.4795921" lon="18.7643642"><ele>12.0</ele><time>2026-05-04T09:21:15.661Z</time></trkpt><trkpt lat="42.479695" lon="18.7644632"><ele>12.0</ele><time>2026-05-04T09:21:16.663Z</time></trkpt><trkpt lat="42.4798136" lon="18.7645439"><ele>14.25</ele><time>2026-05-04T09:21:17.665Z</time></trkpt><trkpt lat="42.4799406" lon="18.7646042"><ele>16.5</ele><time>2026-05-04T09:21:18.667Z</time></trkpt><trkpt lat="42.4800665" lon="18.764641"><ele>18.75</ele><time>2026-05-04T09:21:19.664Z</time></trkpt><trkpt lat="42.4802053" lon="18.7646494"><ele>21.0</ele><time>2026-05-04T09:21:20.665Z</time></trkpt><trkpt lat="42.480334" lon="18.7646348"><ele>21.0</ele><time>2026-05-04T09:21:21.664Z</time></trkpt><trkpt lat="42.4804581" lon="18.7645948"><ele>21.0</ele><time>2026-05-04T09:21:22.664Z</time></trkpt><trkpt lat="42.4805684" lon="18.7645493"><ele>21.0</ele><time>2026-05-04T09:21:23.662Z</time></trkpt><trkpt lat="42.480685" lon="18.7645034"><ele>21.0</ele><time>2026-05-04T09:21:24.661Z</time></trkpt><trkpt lat="42.480809" lon="18.7644753"><ele>21.0</ele><time>2026-05-04T09:21:25.665Z</time></trkpt><trkpt lat="42.4809337" lon="18.7644552"><ele>21.0</ele><time>2026-05-04T09:21:26.663Z</time></trkpt><trkpt lat="42.481058" lon="18.7644484"><ele>21.0</ele><time>2026-05-04T09:21:27.663Z</time></trkpt><trkpt lat="42.4811871" lon="18.7644508"><ele>21.0</ele><time>2026-05-04T09:21:28.664Z</time></trkpt><trkpt lat="42.481319" lon="18.7644746"><ele>20.75</ele><time>2026-05-04T09:21:29.666Z</time></trkpt><trkpt lat="42.4814468" lon="18.7645073"><ele>20.5</ele><time>2026-05-04T09:21:30.661Z</time></trkpt><trkpt lat="42.4815646" lon="18.764553"><ele>20.25</ele><time>2026-05-04T09:21:31.661Z</time></trkpt><trkpt lat="42.4817233" lon="18.7646614"><ele>20.0</ele><time>2026-05-04T09:21:32.664Z</time></trkpt><trkpt lat="42.4818427" lon="18.7647533"><ele>20.0</ele><time>2026-05-04T09:21:33.664Z</time></trkpt><trkpt lat="42.4819578" lon="18.7648469"><ele>20.0</ele><time>2026-05-04T09:21:34.665Z</time></trkpt><trkpt lat="42.4820664" lon="18.7649452"><ele>20.0</ele><time>2026-05-04T09:21:35.664Z</time></trkpt><trkpt lat="42.4821741" lon="18.7650361"><ele>20.0</ele><time>2026-05-04T09:21:36.666Z</time></trkpt><trkpt lat="42.4822877" lon="18.7651228"><ele>20.75</ele><time>2026-05-04T09:21:37.662Z</time></trkpt><trkpt lat="42.4824091" lon="18.7652055"><ele>21.5</ele><time>2026-05-04T09:21:38.666Z</time></trkpt><trkpt lat="42.4825306" lon="18.7652747"><ele>22.25</ele><time>2026-05-04T09:21:39.662Z</time></trkpt><trkpt lat="42.4826644" lon="18.7653271"><ele>23.0</ele><time>2026-05-04T09:21:40.664Z</time></trkpt><trkpt lat="42.4828039" lon="18.7653639"><ele>22.0</ele><time>2026-05-04T09:21:41.66Z</time></trkpt><trkpt lat="42.4829487" lon="18.7653829"><ele>21.0</ele><time>2026-05-04T09:21:42.663Z</time></trkpt><trkpt lat="42.483091" lon="18.7653868"><ele>20.0</ele><time>2026-05-04T09:21:43.659Z</time></trkpt><trkpt lat="42.4832292" lon="18.765388"><ele>19.0</ele><time>2026-05-04T09:21:44.664Z</time></trkpt><trkpt lat="42.4833591" lon="18.7653898"><ele>19.0</ele><time>2026-05-04T09:21:45.661Z</time></trkpt><trkpt lat="42.4834864" lon="18.7654023"><ele>19.0</ele><time>2026-05-04T09:21:46.667Z</time></trkpt><trkpt lat="42.4836108" lon="18.7654224"><ele>19.0</ele><time>2026-05-04T09:21:47.662Z</time></trkpt><trkpt lat="42.483725" lon="18.7654612"><ele>19.0</ele><time>2026-05-04T09:21:48.665Z</time></trkpt><trkpt lat="42.4838459" lon="18.7655049"><ele>17.25</ele><time>2026-05-04T09:21:49.662Z</time></trkpt><trkpt lat="42.4839762" lon="18.7655819"><ele>15.5</ele><time>2026-05-04T09:21:50.665Z</time></trkpt><trkpt lat="42.4840837" lon="18.7656732"><ele>13.75</ele><time>2026-05-04T09:21:51.663Z</time></trkpt><trkpt lat="42.4841914" lon="18.7657791"><ele>12.0</ele><time>2026-05-04T09:21:52.664Z</time></trkpt><trkpt lat="42.4842959" lon="18.7658828"><ele>12.0</ele><time>2026-05-04T09:21:53.661Z</time></trkpt><trkpt lat="42.4844083" lon="18.7659911"><ele>12.0</ele><time>2026-05-04T09:21:54.664Z</time></trkpt><trkpt lat="42.484522" lon="18.7660918"><ele>12.0</ele><time>2026-05-04T09:21:55.665Z</time></trkpt><trkpt lat="42.4846341" lon="18.7662014"><ele>12.0</ele><time>2026-05-04T09:21:56.665Z</time></trkpt><trkpt lat="42.4847491" lon="18.7662958"><ele>14.0</ele><time>2026-05-04T09:21:57.664Z</time></trkpt><trkpt lat="42.4848727" lon="18.766389"><ele>16.0</ele><time>2026-05-04T09:21:58.666Z</time></trkpt><trkpt lat="42.4850003" lon="18.766477"><ele>18.0</ele><time>2026-05-04T09:21:59.665Z</time></trkpt><trkpt lat="42.4851297" lon="18.7665591"><ele>20.0</ele><time>2026-05-04T09:22:00.662Z</time></trkpt><trkpt lat="42.485262" lon="18.7666316"><ele>20.0</ele><time>2026-05-04T09:22:01.664Z</time></trkpt><trkpt lat="42.4853987" lon="18.766695"><ele>20.0</ele><time>2026-05-04T09:22:02.663Z</time></trkpt><trkpt lat="42.4855354" lon="18.7667543"><ele>20.0</ele><time>2026-05-04T09:22:03.663Z</time></trkpt><trkpt lat="42.4856699" lon="18.7668074"><ele>20.0</ele><time>2026-05-04T09:22:04.664Z</time></trkpt><trkpt lat="42.4857914" lon="18.7668492"><ele>20.2</ele><time>2026-05-04T09:22:05.665Z</time></trkpt><trkpt lat="42.4859059" lon="18.7668922"><ele>20.4</ele><time>2026-05-04T09:22:06.663Z</time></trkpt><trkpt lat="42.4860095" lon="18.7669212"><ele>20.6</ele><time>2026-05-04T09:22:07.664Z</time></trkpt><trkpt lat="42.4861083" lon="18.7669206"><ele>20.8</ele><time>2026-05-04T09:22:08.667Z</time></trkpt><trkpt lat="42.4862001" lon="18.766895"><ele>21.0</ele><time>2026-05-04T09:22:09.665Z</time></trkpt><trkpt lat="42.4862823" lon="18.7668481"><ele>21.0</ele><time>2026-05-04T09:22:10.665Z</time></trkpt><trkpt lat="42.486352" lon="18.7667893"><ele>21.0</ele><time>2026-05-04T09:22:11.662Z</time></trkpt><trkpt lat="42.4864019" lon="18.7666956"><ele>21.0</ele><time>2026-05-04T09:22:12.662Z</time></trkpt><trkpt lat="42.4864331" lon="18.7665938"><ele>21.0</ele><time>2026-05-04T09:22:13.663Z</time></trkpt><trkpt lat="42.4864525" lon="18.7664644"><ele>21.0</ele><time>2026-05-04T09:22:14.665Z</time></trkpt><trkpt lat="42.4864652" lon="18.7663301"><ele>21.0</ele><time>2026-05-04T09:22:15.663Z</time></trkpt><trkpt lat="42.4864713" lon="18.7661862"><ele>21.0</ele><time>2026-05-04T09:22:16.664Z</time></trkpt><trkpt lat="42.4865048" lon="18.7660378"><ele>21.0</ele><time>2026-05-04T09:22:17.666Z</time></trkpt><trkpt lat="42.4865416" lon="18.7659083"><ele>21.0</ele><time>2026-05-04T09:22:18.665Z</time></trkpt><trkpt lat="42.4865958" lon="18.7657899"><ele>21.0</ele><time>2026-05-04T09:22:19.662Z</time></trkpt><trkpt lat="42.4866912" lon="18.7656727"><ele>21.0</ele><time>2026-05-04T09:22:20.663Z</time></trkpt><trkpt lat="42.4867941" lon="18.7655767"><ele>22.5</ele><time>2026-05-04T09:22:21.66Z</time></trkpt><trkpt lat="42.4869161" lon="18.7654894"><ele>24.0</ele><time>2026-05-04T09:22:22.664Z</time></trkpt><trkpt lat="42.4870376" lon="18.7654233"><ele>25.5</ele><time>2026-05-04T09:22:23.664Z</time></trkpt><trkpt lat="42.4871637" lon="18.7653533"><ele>27.0</ele><time>2026-05-04T09:22:24.665Z</time></trkpt><trkpt lat="42.4872869" lon="18.7653"><ele>27.0</ele><time>2026-05-04T09:22:25.665Z</time></trkpt><trkpt lat="42.4874084" lon="18.7652606"><ele>27.0</ele><time>2026-05-04T09:22:26.66Z</time></trkpt><trkpt lat="42.4875393" lon="18.7652609"><ele>27.0</ele><time>2026-05-04T09:22:27.662Z</time></trkpt><trkpt lat="42.4876646" lon="18.7652873"><ele>27.0</ele><time>2026-05-04T09:22:28.664Z</time></trkpt><trkpt lat="42.487787" lon="18.7653173"><ele>27.0</ele><time>2026-05-04T09:22:29.663Z</time></trkpt><trkpt lat="42.4879103" lon="18.7653406"><ele>27.0</ele><time>2026-05-04T09:22:30.664Z</time></trkpt><trkpt lat="42.4880343" lon="18.7653419"><ele>27.0</ele><time>2026-05-04T09:22:31.664Z</time></trkpt><trkpt lat="42.4881574" lon="18.7653201"><ele>27.0</ele><time>2026-05-04T09:22:32.663Z</time></trkpt><trkpt lat="42.4882796" lon="18.7652696"><ele>27.0</ele><time>2026-05-04T09:22:33.666Z</time></trkpt><trkpt lat="42.4883946" lon="18.7651978"><ele>27.0</ele><time>2026-05-04T09:22:34.662Z</time></trkpt><trkpt lat="42.4885138" lon="18.765095"><ele>27.0</ele><time>2026-05-04T09:22:35.662Z</time></trkpt><trkpt lat="42.4886283" lon="18.764984"><ele>27.0</ele><time>2026-05-04T09:22:36.661Z</time></trkpt><trkpt lat="42.4887328" lon="18.7648613"><ele>24.75</ele><time>2026-05-04T09:22:37.663Z</time></trkpt><trkpt lat="42.488834" lon="18.7647329"><ele>22.5</ele><time>2026-05-04T09:22:38.664Z</time></trkpt><trkpt lat="42.4889368" lon="18.7646048"><ele>20.25</ele><time>2026-05-04T09:22:39.665Z</time></trkpt><trkpt lat="42.4890432" lon="18.7644903"><ele>18.0</ele><time>2026-05-04T09:22:40.664Z</time></trkpt><trkpt lat="42.4891557" lon="18.7643885"><ele>15.25</ele><time>2026-05-04T09:22:41.663Z</time></trkpt><trkpt lat="42.489278" lon="18.7642997"><ele>12.5</ele><time>2026-05-04T09:22:42.664Z</time></trkpt><trkpt lat="42.4894034" lon="18.7642149"><ele>9.75</ele><time>2026-05-04T09:22:43.663Z</time></trkpt><trkpt lat="42.4895316" lon="18.7641411"><ele>7.0</ele><time>2026-05-04T09:22:44.665Z</time></trkpt><trkpt lat="42.4896686" lon="18.764069"><ele>7.0</ele><time>2026-05-04T09:22:45.662Z</time></trkpt><trkpt lat="42.4897981" lon="18.7639992"><ele>7.0</ele><time>2026-05-04T09:22:46.663Z</time></trkpt><trkpt lat="42.4899168" lon="18.7639045"><ele>7.0</ele><time>2026-05-04T09:22:47.663Z</time></trkpt><trkpt lat="42.490027" lon="18.7637947"><ele>7.0</ele><time>2026-05-04T09:22:48.664Z</time></trkpt><trkpt lat="42.4901307" lon="18.763648"><ele>6.75</ele><time>2026-05-04T09:22:49.663Z</time></trkpt><trkpt lat="42.4902219" lon="18.763484"><ele>6.5</ele><time>2026-05-04T09:22:50.666Z</time></trkpt><trkpt lat="42.4903016" lon="18.7633133"><ele>6.25</ele><time>2026-05-04T09:22:51.662Z</time></trkpt><trkpt lat="42.4903667" lon="18.7631513"><ele>6.0</ele><time>2026-05-04T09:22:52.664Z</time></trkpt><trkpt lat="42.4904263" lon="18.7629885"><ele>8.5</ele><time>2026-05-04T09:22:53.664Z</time></trkpt><trkpt lat="42.4904728" lon="18.7628194"><ele>11.0</ele><time>2026-05-04T09:22:54.662Z</time></trkpt><trkpt lat="42.4905059" lon="18.7626402"><ele>13.5</ele><time>2026-05-04T09:22:55.666Z</time></trkpt><trkpt lat="42.490522" lon="18.7624671"><ele>16.0</ele><time>2026-05-04T09:22:56.66Z</time></trkpt><trkpt lat="42.4905075" lon="18.7622804"><ele>16.0</ele><time>2026-05-04T09:22:57.66Z</time></trkpt><trkpt lat="42.4904682" lon="18.7620786"><ele>16.0</ele><time>2026-05-04T09:22:58.665Z</time></trkpt><trkpt lat="42.4903946" lon="18.7618525"><ele>16.0</ele><time>2026-05-04T09:22:59.665Z</time></trkpt><trkpt lat="42.4903324" lon="18.7616079"><ele>13.0</ele><time>2026-05-04T09:23:00.663Z</time></trkpt><trkpt lat="42.4902701" lon="18.7613483"><ele>10.0</ele><time>2026-05-04T09:23:01.661Z</time></trkpt><trkpt lat="42.4902282" lon="18.7611068"><ele>7.0</ele><time>2026-05-04T09:23:02.663Z</time></trkpt><trkpt lat="42.4901982" lon="18.7608808"><ele>7.0</ele><time>2026-05-04T09:23:03.666Z</time></trkpt><trkpt lat="42.4901801" lon="18.7606621"><ele>7.0</ele><time>2026-05-04T09:23:04.664Z</time></trkpt><trkpt lat="42.4901706" lon="18.7604598"><ele>7.0</ele><time>2026-05-04T09:23:05.663Z</time></trkpt><trkpt lat="42.4901803" lon="18.7602654"><ele>7.666666666666667</ele><time>2026-05-04T09:23:06.663Z</time></trkpt><trkpt lat="42.4902007" lon="18.7600606"><ele>8.333333333333334</ele><time>2026-05-04T09:23:07.661Z</time></trkpt><trkpt lat="42.4902424" lon="18.7598479"><ele>9.0</ele><time>2026-05-04T09:23:08.665Z</time></trkpt><trkpt lat="42.4902945" lon="18.7596393"><ele>9.0</ele><time>2026-05-04T09:23:09.664Z</time></trkpt><trkpt lat="42.4903463" lon="18.7594369"><ele>9.0</ele><time>2026-05-04T09:23:10.668Z</time></trkpt><trkpt lat="42.4904119" lon="18.759222"><ele>9.0</ele><time>2026-05-04T09:23:11.662Z</time></trkpt><trkpt lat="42.490476" lon="18.759013"><ele>12.0</ele><time>2026-05-04T09:23:12.664Z</time></trkpt><trkpt lat="42.4905329" lon="18.7588083"><ele>15.0</ele><time>2026-05-04T09:23:13.664Z</time></trkpt><trkpt lat="42.4905758" lon="18.7585987"><ele>18.0</ele><time>2026-05-04T09:23:14.667Z</time></trkpt><trkpt lat="42.490604" lon="18.7583836"><ele>18.0</ele><time>2026-05-04T09:23:15.665Z</time></trkpt><trkpt lat="42.4906189" lon="18.7581814"><ele>18.0</ele><time>2026-05-04T09:23:16.664Z</time></trkpt><trkpt lat="42.4906211" lon="18.7579826"><ele>18.0</ele><time>2026-05-04T09:23:17.666Z</time></trkpt><trkpt lat="42.4906189" lon="18.7577863"><ele>18.0</ele><time>2026-05-04T09:23:18.662Z</time></trkpt><trkpt lat="42.4905834" lon="18.7575959"><ele>17.666666666666668</ele><time>2026-05-04T09:23:19.665Z</time></trkpt><trkpt lat="42.4905445" lon="18.7573942"><ele>17.333333333333336</ele><time>2026-05-04T09:23:20.664Z</time></trkpt><trkpt lat="42.4904874" lon="18.7572072"><ele>17.0</ele><time>2026-05-04T09:23:21.665Z</time></trkpt><trkpt lat="42.4904295" lon="18.7570104"><ele>14.0</ele><time>2026-05-04T09:23:22.66Z</time></trkpt><trkpt lat="42.4903606" lon="18.7568178"><ele>11.0</ele><time>2026-05-04T09:23:23.664Z</time></trkpt><trkpt lat="42.490288" lon="18.7566261"><ele>8.0</ele><time>2026-05-04T09:23:24.664Z</time></trkpt><trkpt lat="42.4902181" lon="18.7564487"><ele>8.0</ele><time>2026-05-04T09:23:25.662Z</time></trkpt><trkpt lat="42.4901598" lon="18.756274"><ele>8.0</ele><time>2026-05-04T09:23:26.663Z</time></trkpt><trkpt lat="42.4900997" lon="18.7561006"><ele>8.0</ele><time>2026-05-04T09:23:27.665Z</time></trkpt><trkpt lat="42.4900495" lon="18.7559313"><ele>8.0</ele><time>2026-05-04T09:23:28.664Z</time></trkpt><trkpt lat="42.4900103" lon="18.755753"><ele>8.0</ele><time>2026-05-04T09:23:29.664Z</time></trkpt><trkpt lat="42.4899835" lon="18.7555833"><ele>8.0</ele><time>2026-05-04T09:23:30.664Z</time></trkpt><trkpt lat="42.4899745" lon="18.7554135"><ele>8.0</ele><time>2026-05-04T09:23:31.665Z</time></trkpt><trkpt lat="42.4899821" lon="18.7552546"><ele>8.0</ele><time>2026-05-04T09:23:32.666Z</time></trkpt><trkpt lat="42.4900067" lon="18.7551018"><ele>8.0</ele><time>2026-05-04T09:23:33.665Z</time></trkpt><trkpt lat="42.4900491" lon="18.754949"><ele>8.0</ele><time>2026-05-04T09:23:34.666Z</time></trkpt><trkpt lat="42.4901175" lon="18.7547724"><ele>8.0</ele><time>2026-05-04T09:23:35.664Z</time></trkpt><trkpt lat="42.4901841" lon="18.7546145"><ele>8.0</ele><time>2026-05-04T09:23:36.663Z</time></trkpt><trkpt lat="42.4902536" lon="18.7544653"><ele>7.75</ele><time>2026-05-04T09:23:37.661Z</time></trkpt><trkpt lat="42.4903078" lon="18.7543121"><ele>7.5</ele><time>2026-05-04T09:23:38.665Z</time></trkpt><trkpt lat="42.4903374" lon="18.754167"><ele>7.25</ele><time>2026-05-04T09:23:39.665Z</time></trkpt><trkpt lat="42.4903566" lon="18.7540094"><ele>7.0</ele><time>2026-05-04T09:23:40.663Z</time></trkpt><trkpt lat="42.4903471" lon="18.7538382"><ele>7.0</ele><time>2026-05-04T09:23:41.663Z</time></trkpt><trkpt lat="42.4903261" lon="18.7536594"><ele>7.0</ele><time>2026-05-04T09:23:42.665Z</time></trkpt><trkpt lat="42.4902486" lon="18.7534981"><ele>7.0</ele><time>2026-05-04T09:23:43.667Z</time></trkpt><trkpt lat="42.490169" lon="18.7533534"><ele>7.0</ele><time>2026-05-04T09:23:44.666Z</time></trkpt><trkpt lat="42.4900594" lon="18.7532158"><ele>8.25</ele><time>2026-05-04T09:23:45.664Z</time></trkpt><trkpt lat="42.489954" lon="18.7530973"><ele>9.5</ele><time>2026-05-04T09:23:46.665Z</time></trkpt><trkpt lat="42.4898476" lon="18.7529823"><ele>10.75</ele><time>2026-05-04T09:23:47.663Z</time></trkpt><trkpt lat="42.4897338" lon="18.7528493"><ele>12.0</ele><time>2026-05-04T09:23:48.664Z</time></trkpt><trkpt lat="42.4896276" lon="18.7527098"><ele>10.0</ele><time>2026-05-04T09:23:49.662Z</time></trkpt><trkpt lat="42.4895334" lon="18.7525471"><ele>8.0</ele><time>2026-05-04T09:23:50.664Z</time></trkpt><trkpt lat="42.4894335" lon="18.7523687"><ele>6.0</ele><time>2026-05-04T09:23:51.662Z</time></trkpt><trkpt lat="42.4893299" lon="18.7521764"><ele>6.0</ele><time>2026-05-04T09:23:52.663Z</time></trkpt><trkpt lat="42.4892263" lon="18.7519788"><ele>6.0</ele><time>2026-05-04T09:23:53.663Z</time></trkpt><trkpt lat="42.48912" lon="18.751774"><ele>6.0</ele><time>2026-05-04T09:23:54.663Z</time></trkpt><trkpt lat="42.4890166" lon="18.7515785"><ele>4.0</ele><time>2026-05-04T09:23:55.662Z</time></trkpt><trkpt lat="42.4889118" lon="18.7513779"><ele>2.0</ele><time>2026-05-04T09:23:56.661Z</time></trkpt><trkpt lat="42.4888205" lon="18.7511696"><ele>0.0</ele><time>2026-05-04T09:23:57.66Z</time></trkpt><trkpt lat="42.4887237" lon="18.7509512"><ele>0.0</ele><time>2026-05-04T09:23:58.664Z</time></trkpt><trkpt lat="42.4886406" lon="18.750742"><ele>0.0</ele><time>2026-05-04T09:23:59.665Z</time></trkpt><trkpt lat="42.4885528" lon="18.7505527"><ele>0.0</ele><time>2026-05-04T09:24:00.665Z</time></trkpt><trkpt lat="42.4884563" lon="18.750382"><ele>0.0</ele><time>2026-05-04T09:24:01.66Z</time></trkpt><trkpt lat="42.488343" lon="18.7502447"><ele>0.0</ele><time>2026-05-04T09:24:02.664Z</time></trkpt><trkpt lat="42.4882301" lon="18.750121"><ele>0.0</ele><time>2026-05-04T09:24:03.663Z</time></trkpt><trkpt lat="42.4881298" lon="18.7500003"><ele>0.0</ele><time>2026-05-04T09:24:04.664Z</time></trkpt><trkpt lat="42.4880385" lon="18.7498491"><ele>0.0</ele><time>2026-05-04T09:24:05.664Z</time></trkpt><trkpt lat="42.4879884" lon="18.7496003"><ele>0.0</ele><time>2026-05-04T09:24:06.663Z</time></trkpt><trkpt lat="42.4879234" lon="18.7493872"><ele>0.0</ele><time>2026-05-04T09:24:07.663Z</time></trkpt><trkpt lat="42.4878608" lon="18.7491772"><ele>0.0</ele><time>2026-05-04T09:24:08.662Z</time></trkpt><trkpt lat="42.4878221" lon="18.7489666"><ele>0.0</ele><time>2026-05-04T09:24:09.662Z</time></trkpt><trkpt lat="42.4877884" lon="18.7487495"><ele>0.0</ele><time>2026-05-04T09:24:10.663Z</time></trkpt><trkpt lat="42.487746" lon="18.7485369"><ele>2.6666666666666665</ele><time>2026-05-04T09:24:11.663Z</time></trkpt><trkpt lat="42.4876931" lon="18.7483278"><ele>5.333333333333333</ele><time>2026-05-04T09:24:12.664Z</time></trkpt><trkpt lat="42.4876051" lon="18.7481388"><ele>8.0</ele><time>2026-05-04T09:24:13.665Z</time></trkpt><trkpt lat="42.4875088" lon="18.7479619"><ele>8.0</ele><time>2026-05-04T09:24:14.663Z</time></trkpt><trkpt lat="42.4874191" lon="18.7477968"><ele>8.0</ele><time>2026-05-04T09:24:15.667Z</time></trkpt><trkpt lat="42.487342" lon="18.747628"><ele>8.0</ele><time>2026-05-04T09:24:16.66Z</time></trkpt><trkpt lat="42.4872777" lon="18.7474395"><ele>13.666666666666668</ele><time>2026-05-04T09:24:17.665Z</time></trkpt><trkpt lat="42.4872263" lon="18.7472302"><ele>19.333333333333336</ele><time>2026-05-04T09:24:18.663Z</time></trkpt><trkpt lat="42.4871797" lon="18.7470047"><ele>25.0</ele><time>2026-05-04T09:24:19.665Z</time></trkpt><trkpt lat="42.4871334" lon="18.7467741"><ele>16.666666666666668</ele><time>2026-05-04T09:24:20.667Z</time></trkpt><trkpt lat="42.4870883" lon="18.7465448"><ele>8.333333333333334</ele><time>2026-05-04T09:24:21.667Z</time></trkpt><trkpt lat="42.4870389" lon="18.7463013"><ele>0.0</ele><time>2026-05-04T09:24:22.664Z</time></trkpt><trkpt lat="42.4869843" lon="18.7460476"><ele>2.6666666666666665</ele><time>2026-05-04T09:24:23.666Z</time></trkpt><trkpt lat="42.4869281" lon="18.7457891"><ele>5.333333333333333</ele><time>2026-05-04T09:24:24.664Z</time></trkpt><trkpt lat="42.4868503" lon="18.7455261"><ele>8.0</ele><time>2026-05-04T09:24:25.664Z</time></trkpt><trkpt lat="42.4867653" lon="18.7452606"><ele>14.333333333333332</ele><time>2026-05-04T09:24:26.665Z</time></trkpt><trkpt lat="42.4866926" lon="18.7449869"><ele>20.666666666666668</ele><time>2026-05-04T09:24:27.664Z</time></trkpt><trkpt lat="42.4866174" lon="18.7447179"><ele>27.0</ele><time>2026-05-04T09:24:28.662Z</time></trkpt><trkpt lat="42.4865502" lon="18.7444738"><ele>28.0</ele><time>2026-05-04T09:24:29.664Z</time></trkpt><trkpt lat="42.4864874" lon="18.7442384"><ele>29.0</ele><time>2026-05-04T09:24:30.665Z</time></trkpt><trkpt lat="42.4864257" lon="18.7440245"><ele>30.0</ele><time>2026-05-04T09:24:31.663Z</time></trkpt><trkpt lat="42.4863541" lon="18.7438221"><ele>30.0</ele><time>2026-05-04T09:24:32.664Z</time></trkpt><trkpt lat="42.4862745" lon="18.7436503"><ele>30.0</ele><time>2026-05-04T09:24:33.659Z</time></trkpt><trkpt lat="42.4861864" lon="18.7435092"><ele>30.0</ele><time>2026-05-04T09:24:34.665Z</time></trkpt><trkpt lat="42.4860838" lon="18.7433971"><ele>30.0</ele><time>2026-05-04T09:24:35.664Z</time></trkpt><trkpt lat="42.4859793" lon="18.7432789"><ele>25.25</ele><time>2026-05-04T09:24:36.663Z</time></trkpt><trkpt lat="42.485886" lon="18.7431777"><ele>20.5</ele><time>2026-05-04T09:24:37.666Z</time></trkpt><trkpt lat="42.4857999" lon="18.7430645"><ele>15.75</ele><time>2026-05-04T09:24:38.664Z</time></trkpt><trkpt lat="42.4857372" lon="18.742932"><ele>11.0</ele><time>2026-05-04T09:24:39.665Z</time></trkpt><trkpt lat="42.4856971" lon="18.7427785"><ele>12.5</ele><time>2026-05-04T09:24:40.664Z</time></trkpt><trkpt lat="42.4856747" lon="18.7426274"><ele>14.0</ele><time>2026-05-04T09:24:41.664Z</time></trkpt><trkpt lat="42.4856754" lon="18.7424798"><ele>15.5</ele><time>2026-05-04T09:24:42.662Z</time></trkpt><trkpt lat="42.4856847" lon="18.7423212"><ele>17.0</ele><time>2026-05-04T09:24:43.662Z</time></trkpt><trkpt lat="42.48569" lon="18.7421579"><ele>17.0</ele><time>2026-05-04T09:24:44.664Z</time></trkpt><trkpt lat="42.4856953" lon="18.741992"><ele>17.0</ele><time>2026-05-04T09:24:45.663Z</time></trkpt><trkpt lat="42.4856994" lon="18.7418273"><ele>17.0</ele><time>2026-05-04T09:24:46.663Z</time></trkpt><trkpt lat="42.4856962" lon="18.7416615"><ele>17.0</ele><time>2026-05-04T09:24:47.661Z</time></trkpt><trkpt lat="42.4856742" lon="18.7415046"><ele>18.25</ele><time>2026-05-04T09:24:48.663Z</time></trkpt><trkpt lat="42.4856363" lon="18.7413587"><ele>19.5</ele><time>2026-05-04T09:24:49.663Z</time></trkpt><trkpt lat="42.4855867" lon="18.7412205"><ele>20.75</ele><time>2026-05-04T09:24:50.663Z</time></trkpt><trkpt lat="42.4855354" lon="18.7410834"><ele>22.0</ele><time>2026-05-04T09:24:51.663Z</time></trkpt><trkpt lat="42.4854884" lon="18.7409433"><ele>23.75</ele><time>2026-05-04T09:24:52.663Z</time></trkpt><trkpt lat="42.485441" lon="18.7407944"><ele>25.5</ele><time>2026-05-04T09:24:53.665Z</time></trkpt><trkpt lat="42.4854077" lon="18.7406242"><ele>27.25</ele><time>2026-05-04T09:24:54.663Z</time></trkpt><trkpt lat="42.4853876" lon="18.7404602"><ele>29.0</ele><time>2026-05-04T09:24:55.663Z</time></trkpt><trkpt lat="42.4853647" lon="18.7402912"><ele>23.25</ele><time>2026-05-04T09:24:56.663Z</time></trkpt><trkpt lat="42.4853335" lon="18.7401291"><ele>17.5</ele><time>2026-05-04T09:24:57.667Z</time></trkpt><trkpt lat="42.4852876" lon="18.7399831"><ele>11.75</ele><time>2026-05-04T09:24:58.666Z</time></trkpt><trkpt lat="42.4852254" lon="18.7398529"><ele>6.0</ele><time>2026-05-04T09:24:59.665Z</time></trkpt><trkpt lat="42.4851542" lon="18.7397343"><ele>6.0</ele><time>2026-05-04T09:25:00.664Z</time></trkpt><trkpt lat="42.4850742" lon="18.7396256"><ele>6.0</ele><time>2026-05-04T09:25:01.661Z</time></trkpt><trkpt lat="42.4849931" lon="18.7395256"><ele>6.0</ele><time>2026-05-04T09:25:02.66Z</time></trkpt><trkpt lat="42.4849115" lon="18.7394298"><ele>6.0</ele><time>2026-05-04T09:25:03.662Z</time></trkpt><trkpt lat="42.4848285" lon="18.7393363"><ele>6.0</ele><time>2026-05-04T09:25:04.665Z</time></trkpt><trkpt lat="42.4847483" lon="18.7392416"><ele>4.5</ele><time>2026-05-04T09:25:05.661Z</time></trkpt><trkpt lat="42.4846697" lon="18.7391358"><ele>3.0</ele><time>2026-05-04T09:25:06.662Z</time></trkpt><trkpt lat="42.4845925" lon="18.7390225"><ele>1.5</ele><time>2026-05-04T09:25:07.664Z</time></trkpt><trkpt lat="42.4845192" lon="18.7388977"><ele>0.0</ele><time>2026-05-04T09:25:08.665Z</time></trkpt><trkpt lat="42.4844609" lon="18.7387595"><ele>0.0</ele><time>2026-05-04T09:25:09.663Z</time></trkpt><trkpt lat="42.484413" lon="18.7386058"><ele>0.0</ele><time>2026-05-04T09:25:10.66Z</time></trkpt><trkpt lat="42.4843774" lon="18.7384464"><ele>0.0</ele><time>2026-05-04T09:25:11.662Z</time></trkpt><trkpt lat="42.4843483" lon="18.7382859"><ele>0.0</ele><time>2026-05-04T09:25:12.663Z</time></trkpt><trkpt lat="42.4843385" lon="18.7381107"><ele>1.25</ele><time>2026-05-04T09:25:13.663Z</time></trkpt><trkpt lat="42.4843427" lon="18.7379269"><ele>2.5</ele><time>2026-05-04T09:25:14.663Z</time></trkpt><trkpt lat="42.4843555" lon="18.7377436"><ele>3.75</ele><time>2026-05-04T09:25:15.666Z</time></trkpt><trkpt lat="42.4843664" lon="18.7375679"><ele>5.0</ele><time>2026-05-04T09:25:16.665Z</time></trkpt><trkpt lat="42.4843783" lon="18.7373936"><ele>5.0</ele><time>2026-05-04T09:25:17.663Z</time></trkpt><trkpt lat="42.484387" lon="18.737221"><ele>5.0</ele><time>2026-05-04T09:25:18.661Z</time></trkpt><trkpt lat="42.4843812" lon="18.7370541"><ele>5.0</ele><time>2026-05-04T09:25:19.663Z</time></trkpt><trkpt lat="42.4843685" lon="18.7368918"><ele>5.0</ele><time>2026-05-04T09:25:20.663Z</time></trkpt><trkpt lat="42.4843449" lon="18.7367321"><ele>5.0</ele><time>2026-05-04T09:25:21.664Z</time></trkpt><trkpt lat="42.4843185" lon="18.7365765"><ele>5.0</ele><time>2026-05-04T09:25:22.663Z</time></trkpt><trkpt lat="42.4842941" lon="18.7364213"><ele>5.0</ele><time>2026-05-04T09:25:23.662Z</time></trkpt><trkpt lat="42.4842751" lon="18.7362705"><ele>5.0</ele><time>2026-05-04T09:25:24.665Z</time></trkpt><trkpt lat="42.4842684" lon="18.7361166"><ele>6.0</ele><time>2026-05-04T09:25:25.663Z</time></trkpt><trkpt lat="42.4842662" lon="18.735958"><ele>7.0</ele><time>2026-05-04T09:25:26.664Z</time></trkpt><trkpt lat="42.4842713" lon="18.7358019"><ele>8.0</ele><time>2026-05-04T09:25:27.666Z</time></trkpt><trkpt lat="42.4842757" lon="18.7356419"><ele>9.0</ele><time>2026-05-04T09:25:28.662Z</time></trkpt><trkpt lat="42.4842757" lon="18.7354856"><ele>9.0</ele><time>2026-05-04T09:25:29.662Z</time></trkpt><trkpt lat="42.484277" lon="18.7353237"><ele>9.0</ele><time>2026-05-04T09:25:30.663Z</time></trkpt><trkpt lat="42.4842529" lon="18.7351584"><ele>9.0</ele><time>2026-05-04T09:25:31.663Z</time></trkpt><trkpt lat="42.4842228" lon="18.7350053"><ele>9.0</ele><time>2026-05-04T09:25:32.664Z</time></trkpt><trkpt lat="42.4841721" lon="18.7348601"><ele>9.0</ele><time>2026-05-04T09:25:33.661Z</time></trkpt><trkpt lat="42.4841149" lon="18.734723"><ele>9.0</ele><time>2026-05-04T09:25:34.663Z</time></trkpt><trkpt lat="42.4840436" lon="18.7345889"><ele>9.0</ele><time>2026-05-04T09:25:35.664Z</time></trkpt><trkpt lat="42.48397" lon="18.7344564"><ele>9.0</ele><time>2026-05-04T09:25:36.667Z</time></trkpt><trkpt lat="42.4838913" lon="18.7343271"><ele>7.6000000000000005</ele><time>2026-05-04T09:25:37.665Z</time></trkpt><trkpt lat="42.4838126" lon="18.7342058"><ele>6.2</ele><time>2026-05-04T09:25:38.665Z</time></trkpt><trkpt lat="42.4837473" lon="18.7340846"><ele>4.800000000000001</ele><time>2026-05-04T09:25:39.664Z</time></trkpt><trkpt lat="42.4836963" lon="18.7339616"><ele>3.4000000000000004</ele><time>2026-05-04T09:25:40.665Z</time></trkpt><trkpt lat="42.483644" lon="18.7338297"><ele>2.0</ele><time>2026-05-04T09:25:41.664Z</time></trkpt><trkpt lat="42.4836058" lon="18.7337017"><ele>2.0</ele><time>2026-05-04T09:25:42.665Z</time></trkpt><trkpt lat="42.4835729" lon="18.7335603"><ele>2.0</ele><time>2026-05-04T09:25:43.663Z</time></trkpt><trkpt lat="42.4835447" lon="18.733418"><ele>2.0</ele><time>2026-05-04T09:25:44.664Z</time></trkpt><trkpt lat="42.4835287" lon="18.7332778"><ele>2.0</ele><time>2026-05-04T09:25:45.663Z</time></trkpt><trkpt lat="42.4835165" lon="18.7331285"><ele>2.0</ele><time>2026-05-04T09:25:46.661Z</time></trkpt><trkpt lat="42.4835031" lon="18.7329727"><ele>2.5</ele><time>2026-05-04T09:25:47.663Z</time></trkpt><trkpt lat="42.4834953" lon="18.7328284"><ele>3.0</ele><time>2026-05-04T09:25:48.661Z</time></trkpt><trkpt lat="42.4835024" lon="18.7326647"><ele>3.5</ele><time>2026-05-04T09:25:49.663Z</time></trkpt><trkpt lat="42.4835135" lon="18.7325096"><ele>4.0</ele><time>2026-05-04T09:25:50.663Z</time></trkpt><trkpt lat="42.4835333" lon="18.7323448"><ele>4.0</ele><time>2026-05-04T09:25:51.663Z</time></trkpt><trkpt lat="42.4835583" lon="18.7321931"><ele>4.0</ele><time>2026-05-04T09:25:52.664Z</time></trkpt><trkpt lat="42.4835902" lon="18.732048"><ele>4.0</ele><time>2026-05-04T09:25:53.663Z</time></trkpt><trkpt lat="42.4836405" lon="18.7318962"><ele>4.0</ele><time>2026-05-04T09:25:54.665Z</time></trkpt><trkpt lat="42.4836896" lon="18.7317466"><ele>3.5</ele><time>2026-05-04T09:25:55.664Z</time></trkpt><trkpt lat="42.483749" lon="18.7316004"><ele>3.0</ele><time>2026-05-04T09:25:56.661Z</time></trkpt><trkpt lat="42.483812" lon="18.7314619"><ele>2.5</ele><time>2026-05-04T09:25:57.665Z</time></trkpt><trkpt lat="42.4838793" lon="18.7313262"><ele>2.0</ele><time>2026-05-04T09:25:58.664Z</time></trkpt><trkpt lat="42.483951" lon="18.731201"><ele>2.8</ele><time>2026-05-04T09:25:59.665Z</time></trkpt><trkpt lat="42.4840299" lon="18.7310833"><ele>3.6</ele><time>2026-05-04T09:26:00.664Z</time></trkpt><trkpt lat="42.4841059" lon="18.7309739"><ele>4.3999999999999995</ele><time>2026-05-04T09:26:01.664Z</time></trkpt><trkpt lat="42.48418" lon="18.7308653"><ele>5.2</ele><time>2026-05-04T09:26:02.663Z</time></trkpt><trkpt lat="42.484255" lon="18.7307597"><ele>6.0</ele><time>2026-05-04T09:26:03.663Z</time></trkpt><trkpt lat="42.4843315" lon="18.7306563"><ele>6.0</ele><time>2026-05-04T09:26:04.664Z</time></trkpt><trkpt lat="42.4843935" lon="18.7305425"><ele>6.0</ele><time>2026-05-04T09:26:05.663Z</time></trkpt><trkpt lat="42.48445" lon="18.7304217"><ele>6.0</ele><time>2026-05-04T09:26:06.665Z</time></trkpt><trkpt lat="42.4844944" lon="18.7302943"><ele>6.0</ele><time>2026-05-04T09:26:07.663Z</time></trkpt><trkpt lat="42.4845312" lon="18.7301566"><ele>6.0</ele><time>2026-05-04T09:26:08.66Z</time></trkpt><trkpt lat="42.4845626" lon="18.7300139"><ele>4.5</ele><time>2026-05-04T09:26:09.665Z</time></trkpt><trkpt lat="42.484583" lon="18.729872"><ele>3.0</ele><time>2026-05-04T09:26:10.664Z</time></trkpt><trkpt lat="42.4845983" lon="18.7297104"><ele>1.5</ele><time>2026-05-04T09:26:11.662Z</time></trkpt><trkpt lat="42.4846108" lon="18.7295528"><ele>0.0</ele><time>2026-05-04T09:26:12.663Z</time></trkpt><trkpt lat="42.484617" lon="18.729393"><ele>7.25</ele><time>2026-05-04T09:26:13.663Z</time></trkpt><trkpt lat="42.4846209" lon="18.7292354"><ele>14.5</ele><time>2026-05-04T09:26:14.663Z</time></trkpt><trkpt lat="42.4846231" lon="18.7290729"><ele>21.75</ele><time>2026-05-04T09:26:15.663Z</time></trkpt><trkpt lat="42.4846243" lon="18.7289091"><ele>29.0</ele><time>2026-05-04T09:26:16.663Z</time></trkpt><trkpt lat="42.4846218" lon="18.728743"><ele>29.0</ele><time>2026-05-04T09:26:17.663Z</time></trkpt><trkpt lat="42.4846151" lon="18.7285745"><ele>29.0</ele><time>2026-05-04T09:26:18.662Z</time></trkpt><trkpt lat="42.4846066" lon="18.7284067"><ele>29.0</ele><time>2026-05-04T09:26:19.661Z</time></trkpt><trkpt lat="42.4845944" lon="18.7282328"><ele>29.0</ele><time>2026-05-04T09:26:20.663Z</time></trkpt><trkpt lat="42.484581" lon="18.7280599"><ele>22.5</ele><time>2026-05-04T09:26:21.662Z</time></trkpt><trkpt lat="42.4845686" lon="18.7278951"><ele>16.0</ele><time>2026-05-04T09:26:22.663Z</time></trkpt><trkpt lat="42.4845526" lon="18.7277326"><ele>9.5</ele><time>2026-05-04T09:26:23.663Z</time></trkpt><trkpt lat="42.4845315" lon="18.7275781"><ele>3.0</ele><time>2026-05-04T09:26:24.665Z</time></trkpt><trkpt lat="42.484503" lon="18.7274308"><ele>3.0</ele><time>2026-05-04T09:26:25.662Z</time></trkpt><trkpt lat="42.4844787" lon="18.7272857"><ele>3.0</ele><time>2026-05-04T09:26:26.664Z</time></trkpt><trkpt lat="42.4844578" lon="18.7271485"><ele>3.0</ele><time>2026-05-04T09:26:27.663Z</time></trkpt><trkpt lat="42.4844251" lon="18.7270175"><ele>3.0</ele><time>2026-05-04T09:26:28.665Z</time></trkpt><trkpt lat="42.4843996" lon="18.7268816"><ele>3.0</ele><time>2026-05-04T09:26:29.664Z</time></trkpt><trkpt lat="42.484369" lon="18.7267375"><ele>4.5</ele><time>2026-05-04T09:26:30.664Z</time></trkpt><trkpt lat="42.4843441" lon="18.7265917"><ele>6.0</ele><time>2026-05-04T09:26:31.665Z</time></trkpt><trkpt lat="42.484316" lon="18.726441"><ele>7.5</ele><time>2026-05-04T09:26:32.666Z</time></trkpt><trkpt lat="42.4842899" lon="18.7262897"><ele>9.0</ele><time>2026-05-04T09:26:33.665Z</time></trkpt><trkpt lat="42.4842636" lon="18.7261325"><ele>9.25</ele><time>2026-05-04T09:26:34.666Z</time></trkpt><trkpt lat="42.4842427" lon="18.725955"><ele>9.5</ele><time>2026-05-04T09:26:35.664Z</time></trkpt><trkpt lat="42.484228" lon="18.7257753"><ele>9.75</ele><time>2026-05-04T09:26:36.666Z</time></trkpt><trkpt lat="42.4842028" lon="18.7255949"><ele>10.0</ele><time>2026-05-04T09:26:37.668Z</time></trkpt><trkpt lat="42.4841839" lon="18.7254064"><ele>10.75</ele><time>2026-05-04T09:26:38.665Z</time></trkpt><trkpt lat="42.4841618" lon="18.725214"><ele>11.5</ele><time>2026-05-04T09:26:39.661Z</time></trkpt><trkpt lat="42.4841484" lon="18.7250159"><ele>12.25</ele><time>2026-05-04T09:26:40.667Z</time></trkpt><trkpt lat="42.4841414" lon="18.7248094"><ele>13.0</ele><time>2026-05-04T09:26:41.668Z</time></trkpt><trkpt lat="42.4841396" lon="18.7246034"><ele>13.0</ele><time>2026-05-04T09:26:42.665Z</time></trkpt><trkpt lat="42.4841382" lon="18.724397"><ele>13.0</ele><time>2026-05-04T09:26:43.661Z</time></trkpt><trkpt lat="42.4841403" lon="18.724196"><ele>13.0</ele><time>2026-05-04T09:26:44.662Z</time></trkpt><trkpt lat="42.4841453" lon="18.7239952"><ele>13.0</ele><time>2026-05-04T09:26:45.662Z</time></trkpt><trkpt lat="42.484154" lon="18.7237972"><ele>13.333333333333332</ele><time>2026-05-04T09:26:46.666Z</time></trkpt><trkpt lat="42.4841645" lon="18.7235924"><ele>13.666666666666668</ele><time>2026-05-04T09:26:47.664Z</time></trkpt><trkpt lat="42.4841763" lon="18.7233842"><ele>14.0</ele><time>2026-05-04T09:26:48.662Z</time></trkpt><trkpt lat="42.4841986" lon="18.7231774"><ele>14.0</ele><time>2026-05-04T09:26:49.664Z</time></trkpt><trkpt lat="42.4842111" lon="18.7229709"><ele>14.0</ele><time>2026-05-04T09:26:50.667Z</time></trkpt><trkpt lat="42.4842251" lon="18.7227652"><ele>14.0</ele><time>2026-05-04T09:26:51.661Z</time></trkpt><trkpt lat="42.4842346" lon="18.7225659"><ele>14.0</ele><time>2026-05-04T09:26:52.662Z</time></trkpt><trkpt lat="42.4842486" lon="18.7223744"><ele>14.0</ele><time>2026-05-04T09:26:53.666Z</time></trkpt><trkpt lat="42.4842555" lon="18.7221802"><ele>14.0</ele><time>2026-05-04T09:26:54.668Z</time></trkpt><trkpt lat="42.4842695" lon="18.7219883"><ele>14.0</ele><time>2026-05-04T09:26:55.665Z</time></trkpt><trkpt lat="42.4842723" lon="18.7217923"><ele>12.75</ele><time>2026-05-04T09:26:56.667Z</time></trkpt><trkpt lat="42.4842732" lon="18.7216076"><ele>11.5</ele><time>2026-05-04T09:26:57.667Z</time></trkpt><trkpt lat="42.4842767" lon="18.721414"><ele>10.25</ele><time>2026-05-04T09:26:58.663Z</time></trkpt><trkpt lat="42.4842742" lon="18.7212141"><ele>9.0</ele><time>2026-05-04T09:26:59.663Z</time></trkpt><trkpt lat="42.484279" lon="18.7210032"><ele>9.0</ele><time>2026-05-04T09:27:00.664Z</time></trkpt><trkpt lat="42.484263" lon="18.7208016"><ele>9.0</ele><time>2026-05-04T09:27:01.663Z</time></trkpt><trkpt lat="42.4842516" lon="18.7205944"><ele>9.0</ele><time>2026-05-04T09:27:02.664Z</time></trkpt><trkpt lat="42.4842361" lon="18.7203872"><ele>9.666666666666666</ele><time>2026-05-04T09:27:03.663Z</time></trkpt><trkpt lat="42.4842195" lon="18.7201834"><ele>10.333333333333332</ele><time>2026-05-04T09:27:04.665Z</time></trkpt><trkpt lat="42.4841974" lon="18.7199795"><ele>11.0</ele><time>2026-05-04T09:27:05.661Z</time></trkpt><trkpt lat="42.484169" lon="18.7197724"><ele>11.0</ele><time>2026-05-04T09:27:06.661Z</time></trkpt><trkpt lat="42.4841494" lon="18.7195709"><ele>11.0</ele><time>2026-05-04T09:27:07.661Z</time></trkpt><trkpt lat="42.4841186" lon="18.719374"><ele>11.0</ele><time>2026-05-04T09:27:08.667Z</time></trkpt><trkpt lat="42.4840899" lon="18.7191849"><ele>11.0</ele><time>2026-05-04T09:27:09.667Z</time></trkpt><trkpt lat="42.4840634" lon="18.7190004"><ele>12.5</ele><time>2026-05-04T09:27:10.664Z</time></trkpt><trkpt lat="42.4840396" lon="18.7188206"><ele>14.0</ele><time>2026-05-04T09:27:11.661Z</time></trkpt><trkpt lat="42.4840126" lon="18.7186571"><ele>15.5</ele><time>2026-05-04T09:27:12.666Z</time></trkpt><trkpt lat="42.4839824" lon="18.7184937"><ele>17.0</ele><time>2026-05-04T09:27:13.661Z</time></trkpt><trkpt lat="42.4839572" lon="18.7183285"><ele>17.25</ele><time>2026-05-04T09:27:14.666Z</time></trkpt><trkpt lat="42.4839368" lon="18.7181677"><ele>17.5</ele><time>2026-05-04T09:27:15.66Z</time></trkpt><trkpt lat="42.4839225" lon="18.7179976"><ele>17.75</ele><time>2026-05-04T09:27:16.663Z</time></trkpt><trkpt lat="42.4839051" lon="18.7178299"><ele>18.0</ele><time>2026-05-04T09:27:17.666Z</time></trkpt><trkpt lat="42.4838801" lon="18.717654"><ele>20.25</ele><time>2026-05-04T09:27:18.665Z</time></trkpt><trkpt lat="42.4838753" lon="18.7174673"><ele>22.5</ele><time>2026-05-04T09:27:19.662Z</time></trkpt><trkpt lat="42.4838647" lon="18.7172992"><ele>24.75</ele><time>2026-05-04T09:27:20.665Z</time></trkpt><trkpt lat="42.4838445" lon="18.7171337"><ele>27.0</ele><time>2026-05-04T09:27:21.667Z</time></trkpt><trkpt lat="42.4838293" lon="18.7169424"><ele>27.75</ele><time>2026-05-04T09:27:22.663Z</time></trkpt><trkpt lat="42.4838113" lon="18.71676"><ele>28.5</ele><time>2026-05-04T09:27:23.661Z</time></trkpt><trkpt lat="42.4837975" lon="18.7165541"><ele>29.25</ele><time>2026-05-04T09:27:24.661Z</time></trkpt><trkpt lat="42.4837747" lon="18.7163718"><ele>30.0</ele><time>2026-05-04T09:27:25.664Z</time></trkpt><trkpt lat="42.4837694" lon="18.7162001"><ele>30.5</ele><time>2026-05-04T09:27:26.663Z</time></trkpt><trkpt lat="42.4837678" lon="18.7160008"><ele>31.0</ele><time>2026-05-04T09:27:27.662Z</time></trkpt><trkpt lat="42.4837661" lon="18.715799"><ele>31.5</ele><time>2026-05-04T09:27:28.665Z</time></trkpt><trkpt lat="42.483763" lon="18.7155973"><ele>32.0</ele><time>2026-05-04T09:27:29.662Z</time></trkpt><trkpt lat="42.4837511" lon="18.7154038"><ele>25.0</ele><time>2026-05-04T09:27:30.664Z</time></trkpt><trkpt lat="42.4837441" lon="18.7152129"><ele>18.0</ele><time>2026-05-04T09:27:31.66Z</time></trkpt><trkpt lat="42.4837521" lon="18.7150003"><ele>11.0</ele><time>2026-05-04T09:27:32.66Z</time></trkpt><trkpt lat="42.4837572" lon="18.7147993"><ele>4.0</ele><time>2026-05-04T09:27:33.667Z</time></trkpt><trkpt lat="42.4837557" lon="18.7146135"><ele>4.0</ele><time>2026-05-04T09:27:34.665Z</time></trkpt><trkpt lat="42.4837614" lon="18.7144173"><ele>4.0</ele><time>2026-05-04T09:27:35.662Z</time></trkpt><trkpt lat="42.4837674" lon="18.7142189"><ele>4.0</ele><time>2026-05-04T09:27:36.665Z</time></trkpt><trkpt lat="42.4837783" lon="18.7140203"><ele>4.0</ele><time>2026-05-04T09:27:37.665Z</time></trkpt><trkpt lat="42.4837883" lon="18.7138251"><ele>11.0</ele><time>2026-05-04T09:27:38.666Z</time></trkpt><trkpt lat="42.4838021" lon="18.7136269"><ele>18.0</ele><time>2026-05-04T09:27:39.658Z</time></trkpt><trkpt lat="42.483824" lon="18.7134309"><ele>25.0</ele><time>2026-05-04T09:27:40.66Z</time></trkpt><trkpt lat="42.4838533" lon="18.7132385"><ele>32.0</ele><time>2026-05-04T09:27:41.665Z</time></trkpt><trkpt lat="42.4838726" lon="18.7130465"><ele>32.5</ele><time>2026-05-04T09:27:42.664Z</time></trkpt><trkpt lat="42.483888" lon="18.7128559"><ele>33.0</ele><time>2026-05-04T09:27:43.664Z</time></trkpt><trkpt lat="42.4839039" lon="18.7126627"><ele>33.5</ele><time>2026-05-04T09:27:44.664Z</time></trkpt><trkpt lat="42.4839179" lon="18.7124649"><ele>34.0</ele><time>2026-05-04T09:27:45.666Z</time></trkpt><trkpt lat="42.4839289" lon="18.7122684"><ele>31.5</ele><time>2026-05-04T09:27:46.663Z</time></trkpt><trkpt lat="42.483937" lon="18.7120659"><ele>29.0</ele><time>2026-05-04T09:27:47.661Z</time></trkpt><trkpt lat="42.4839551" lon="18.7118676"><ele>26.5</ele><time>2026-05-04T09:27:48.661Z</time></trkpt><trkpt lat="42.4839606" lon="18.7116728"><ele>24.0</ele><time>2026-05-04T09:27:49.663Z</time></trkpt><trkpt lat="42.4839623" lon="18.7114787"><ele>23.75</ele><time>2026-05-04T09:27:50.662Z</time></trkpt><trkpt lat="42.4839585" lon="18.7112838"><ele>23.5</ele><time>2026-05-04T09:27:51.666Z</time></trkpt><trkpt lat="42.4839498" lon="18.7110864"><ele>23.25</ele><time>2026-05-04T09:27:52.664Z</time></trkpt><trkpt lat="42.4839504" lon="18.7108991"><ele>23.0</ele><time>2026-05-04T09:27:53.663Z</time></trkpt><trkpt lat="42.4839505" lon="18.7107163"><ele>22.5</ele><time>2026-05-04T09:27:54.666Z</time></trkpt><trkpt lat="42.4839483" lon="18.7105326"><ele>22.0</ele><time>2026-05-04T09:27:55.661Z</time></trkpt><trkpt lat="42.4839459" lon="18.7103499"><ele>21.5</ele><time>2026-05-04T09:27:56.662Z</time></trkpt><trkpt lat="42.4839463" lon="18.7101782"><ele>21.0</ele><time>2026-05-04T09:27:57.663Z</time></trkpt><trkpt lat="42.4839389" lon="18.7100147"><ele>21.200000000000003</ele><time>2026-05-04T09:27:58.664Z</time></trkpt><trkpt lat="42.4839424" lon="18.7098564"><ele>21.400000000000002</ele><time>2026-05-04T09:27:59.666Z</time></trkpt><trkpt lat="42.4839481" lon="18.7097062"><ele>21.6</ele><time>2026-05-04T09:28:00.663Z</time></trkpt><trkpt lat="42.4839551" lon="18.7095638"><ele>21.8</ele><time>2026-05-04T09:28:01.662Z</time></trkpt><trkpt lat="42.4839623" lon="18.7094312"><ele>22.0</ele><time>2026-05-04T09:28:02.663Z</time></trkpt><trkpt lat="42.4839698" lon="18.7093008"><ele>22.0</ele><time>2026-05-04T09:28:03.662Z</time></trkpt><trkpt lat="42.483978" lon="18.7091778"><ele>22.0</ele><time>2026-05-04T09:28:04.658Z</time></trkpt><trkpt lat="42.483987" lon="18.7090611"><ele>22.0</ele><time>2026-05-04T09:28:05.661Z</time></trkpt><trkpt lat="42.484" lon="18.7089484"><ele>22.0</ele><time>2026-05-04T09:28:06.66Z</time></trkpt><trkpt lat="42.4840096" lon="18.708826"><ele>22.0</ele><time>2026-05-04T09:28:07.665Z</time></trkpt><trkpt lat="42.4840186" lon="18.7087098"><ele>22.0</ele><time>2026-05-04T09:28:08.663Z</time></trkpt><trkpt lat="42.4840399" lon="18.7085814"><ele>21.333333333333332</ele><time>2026-05-04T09:28:09.664Z</time></trkpt><trkpt lat="42.484055" lon="18.7084513"><ele>20.666666666666664</ele><time>2026-05-04T09:28:10.659Z</time></trkpt><trkpt lat="42.4840683" lon="18.7083281"><ele>20.0</ele><time>2026-05-04T09:28:11.663Z</time></trkpt><trkpt lat="42.4840939" lon="18.7082177"><ele>19.333333333333332</ele><time>2026-05-04T09:28:12.664Z</time></trkpt><trkpt lat="42.4841149" lon="18.7081052"><ele>18.666666666666668</ele><time>2026-05-04T09:28:13.662Z</time></trkpt><trkpt lat="42.484146" lon="18.7079956"><ele>18.0</ele><time>2026-05-04T09:28:14.664Z</time></trkpt><trkpt lat="42.4841762" lon="18.7078638"><ele>16.5</ele><time>2026-05-04T09:28:15.66Z</time></trkpt><trkpt lat="42.4842153" lon="18.7077266"><ele>15.0</ele><time>2026-05-04T09:28:16.661Z</time></trkpt><trkpt lat="42.484263" lon="18.7075822"><ele>13.5</ele><time>2026-05-04T09:28:17.659Z</time></trkpt><trkpt lat="42.4843153" lon="18.7074153"><ele>12.0</ele><time>2026-05-04T09:28:18.661Z</time></trkpt><trkpt lat="42.4843534" lon="18.7072723"><ele>12.0</ele><time>2026-05-04T09:28:19.659Z</time></trkpt><trkpt lat="42.484408" lon="18.7071289"><ele>12.0</ele><time>2026-05-04T09:28:20.658Z</time></trkpt><trkpt lat="42.4844575" lon="18.7069768"><ele>12.0</ele><time>2026-05-04T09:28:21.662Z</time></trkpt><trkpt lat="42.4845058" lon="18.7068239"><ele>12.0</ele><time>2026-05-04T09:28:22.663Z</time></trkpt><trkpt lat="42.4845438" lon="18.7066626"><ele>11.5</ele><time>2026-05-04T09:28:23.662Z</time></trkpt><trkpt lat="42.4845665" lon="18.7064942"><ele>11.0</ele><time>2026-05-04T09:28:24.662Z</time></trkpt><trkpt lat="42.4845801" lon="18.7063275"><ele>10.5</ele><time>2026-05-04T09:28:25.664Z</time></trkpt><trkpt lat="42.4845921" lon="18.7061618"><ele>10.0</ele><time>2026-05-04T09:28:26.664Z</time></trkpt><trkpt lat="42.4846009" lon="18.7060056"><ele>16.6</ele><time>2026-05-04T09:28:27.663Z</time></trkpt><trkpt lat="42.4846127" lon="18.7058567"><ele>23.2</ele><time>2026-05-04T09:28:28.659Z</time></trkpt><trkpt lat="42.4846242" lon="18.7057153"><ele>29.799999999999997</ele><time>2026-05-04T09:28:29.662Z</time></trkpt><trkpt lat="42.4846319" lon="18.705598"><ele>36.4</ele><time>2026-05-04T09:28:30.662Z</time></trkpt><trkpt lat="42.4846385" lon="18.7054834"><ele>43.0</ele><time>2026-05-04T09:28:31.661Z</time></trkpt><trkpt lat="42.4846523" lon="18.7053844"><ele>43.0</ele><time>2026-05-04T09:28:32.66Z</time></trkpt><trkpt lat="42.4846731" lon="18.7052645"><ele>43.0</ele><time>2026-05-04T09:28:33.66Z</time></trkpt><trkpt lat="42.484704" lon="18.7051365"><ele>43.0</ele><time>2026-05-04T09:28:34.66Z</time></trkpt><trkpt lat="42.4847479" lon="18.7050179"><ele>43.0</ele><time>2026-05-04T09:28:35.662Z</time></trkpt><trkpt lat="42.4847974" lon="18.7049065"><ele>43.0</ele><time>2026-05-04T09:28:36.662Z</time></trkpt><trkpt lat="42.4848502" lon="18.7047936"><ele>41.6</ele><time>2026-05-04T09:28:37.661Z</time></trkpt><trkpt lat="42.4849133" lon="18.7046856"><ele>40.199999999999996</ele><time>2026-05-04T09:28:38.663Z</time></trkpt><trkpt lat="42.4849828" lon="18.7045722"><ele>38.8</ele><time>2026-05-04T09:28:39.66Z</time></trkpt><trkpt lat="42.485055" lon="18.7044836"><ele>37.4</ele><time>2026-05-04T09:28:40.661Z</time></trkpt><trkpt lat="42.4851318" lon="18.7043997"><ele>36.0</ele><time>2026-05-04T09:28:41.661Z</time></trkpt><trkpt lat="42.485213" lon="18.7043206"><ele>38.8</ele><time>2026-05-04T09:28:42.663Z</time></trkpt><trkpt lat="42.4852882" lon="18.7042618"><ele>41.6</ele><time>2026-05-04T09:28:43.662Z</time></trkpt><trkpt lat="42.4853809" lon="18.7041939"><ele>44.4</ele><time>2026-05-04T09:28:44.661Z</time></trkpt><trkpt lat="42.4854691" lon="18.7041272"><ele>47.2</ele><time>2026-05-04T09:28:45.664Z</time></trkpt><trkpt lat="42.4855542" lon="18.7040614"><ele>50.0</ele><time>2026-05-04T09:28:46.659Z</time></trkpt><trkpt lat="42.4856408" lon="18.7039906"><ele>50.0</ele><time>2026-05-04T09:28:47.661Z</time></trkpt><trkpt lat="42.4857282" lon="18.7039207"><ele>50.0</ele><time>2026-05-04T09:28:48.662Z</time></trkpt><trkpt lat="42.4858095" lon="18.7038485"><ele>50.0</ele><time>2026-05-04T09:28:49.664Z</time></trkpt><trkpt lat="42.4858914" lon="18.7037672"><ele>50.0</ele><time>2026-05-04T09:28:50.663Z</time></trkpt><trkpt lat="42.4859649" lon="18.703683"><ele>50.0</ele><time>2026-05-04T09:28:51.663Z</time></trkpt><trkpt lat="42.4860528" lon="18.7035945"><ele>45.0</ele><time>2026-05-04T09:28:52.663Z</time></trkpt><trkpt lat="42.4861291" lon="18.7034823"><ele>40.0</ele><time>2026-05-04T09:28:53.665Z</time></trkpt><trkpt lat="42.486196" lon="18.7033647"><ele>35.0</ele><time>2026-05-04T09:28:54.665Z</time></trkpt><trkpt lat="42.4862632" lon="18.7032347"><ele>30.0</ele><time>2026-05-04T09:28:55.662Z</time></trkpt><trkpt lat="42.486324" lon="18.7030964"><ele>36.2</ele><time>2026-05-04T09:28:56.661Z</time></trkpt><trkpt lat="42.4863755" lon="18.7029584"><ele>42.4</ele><time>2026-05-04T09:28:57.665Z</time></trkpt><trkpt lat="42.48642" lon="18.7028105"><ele>48.599999999999994</ele><time>2026-05-04T09:28:58.659Z</time></trkpt><trkpt lat="42.4864372" lon="18.7026792"><ele>54.8</ele><time>2026-05-04T09:28:59.661Z</time></trkpt><trkpt lat="42.4864604" lon="18.7025557"><ele>61.0</ele><time>2026-05-04T09:29:00.663Z</time></trkpt><trkpt lat="42.4864697" lon="18.7024272"><ele>61.0</ele><time>2026-05-04T09:29:01.662Z</time></trkpt><trkpt lat="42.4864775" lon="18.7023057"><ele>60.99999999999999</ele><time>2026-05-04T09:29:02.663Z</time></trkpt><trkpt lat="42.4864892" lon="18.7021871"><ele>60.99999999999999</ele><time>2026-05-04T09:29:03.662Z</time></trkpt><trkpt lat="42.4864943" lon="18.7020589"><ele>61.0</ele><time>2026-05-04T09:29:04.659Z</time></trkpt><trkpt lat="42.4864951" lon="18.7019248"><ele>61.0</ele><time>2026-05-04T09:29:05.665Z</time></trkpt><trkpt lat="42.4864976" lon="18.7017913"><ele>60.666666666666664</ele><time>2026-05-04T09:29:06.665Z</time></trkpt><trkpt lat="42.4864957" lon="18.7016497"><ele>60.33333333333333</ele><time>2026-05-04T09:29:07.659Z</time></trkpt><trkpt lat="42.4865" lon="18.7015187"><ele>60.0</ele><time>2026-05-04T09:29:08.663Z</time></trkpt><trkpt lat="42.4865089" lon="18.701414"><ele>59.66666666666667</ele><time>2026-05-04T09:29:09.663Z</time></trkpt><trkpt lat="42.4865208" lon="18.7013042"><ele>59.333333333333336</ele><time>2026-05-04T09:29:10.659Z</time></trkpt><trkpt lat="42.4865354" lon="18.7012001"><ele>59.0</ele><time>2026-05-04T09:29:11.664Z</time></trkpt><trkpt lat="42.4865495" lon="18.7010879"><ele>57.2</ele><time>2026-05-04T09:29:12.668Z</time></trkpt><trkpt lat="42.486574" lon="18.7009655"><ele>55.400000000000006</ele><time>2026-05-04T09:29:13.658Z</time></trkpt><trkpt lat="42.4865986" lon="18.7008355"><ele>53.6</ele><time>2026-05-04T09:29:14.662Z</time></trkpt><trkpt lat="42.4866237" lon="18.7007109"><ele>51.8</ele><time>2026-05-04T09:29:15.66Z</time></trkpt><trkpt lat="42.4866529" lon="18.7005921"><ele>50.0</ele><time>2026-05-04T09:29:16.659Z</time></trkpt><trkpt lat="42.4866854" lon="18.7004747"><ele>50.00000000000001</ele><time>2026-05-04T09:29:17.665Z</time></trkpt><trkpt lat="42.4867159" lon="18.700358"><ele>50.0</ele><time>2026-05-04T09:29:18.664Z</time></trkpt><trkpt lat="42.4867437" lon="18.7002454"><ele>50.0</ele><time>2026-05-04T09:29:19.662Z</time></trkpt><trkpt lat="42.4867765" lon="18.7001369"><ele>50.0</ele><time>2026-05-04T09:29:20.661Z</time></trkpt><trkpt lat="42.4868144" lon="18.7000238"><ele>50.00000000000001</ele><time>2026-05-04T09:29:21.663Z</time></trkpt><trkpt lat="42.4868377" lon="18.699934"><ele>50.0</ele><time>2026-05-04T09:29:22.663Z</time></trkpt><trkpt lat="42.4868673" lon="18.6998182"><ele>49.6</ele><time>2026-05-04T09:29:23.662Z</time></trkpt><trkpt lat="42.4869042" lon="18.6997073"><ele>49.2</ele><time>2026-05-04T09:29:24.662Z</time></trkpt><trkpt lat="42.4869528" lon="18.6995668"><ele>48.8</ele><time>2026-05-04T09:29:25.664Z</time></trkpt><trkpt lat="42.4870023" lon="18.699453"><ele>48.4</ele><time>2026-05-04T09:29:26.663Z</time></trkpt><trkpt lat="42.4870433" lon="18.6993496"><ele>48.0</ele><time>2026-05-04T09:29:27.667Z</time></trkpt><trkpt lat="42.4871045" lon="18.6992483"><ele>48.0</ele><time>2026-05-04T09:29:28.661Z</time></trkpt><trkpt lat="42.4871587" lon="18.6991431"><ele>48.0</ele><time>2026-05-04T09:29:29.663Z</time></trkpt><trkpt lat="42.4872267" lon="18.6990347"><ele>48.0</ele><time>2026-05-04T09:29:30.662Z</time></trkpt><trkpt lat="42.4873031" lon="18.6989123"><ele>48.0</ele><time>2026-05-04T09:29:31.66Z</time></trkpt><trkpt lat="42.4873763" lon="18.6988042"><ele>48.0</ele><time>2026-05-04T09:29:32.662Z</time></trkpt><trkpt lat="42.4874522" lon="18.6986958"><ele>48.0</ele><time>2026-05-04T09:29:33.661Z</time></trkpt><trkpt lat="42.4875291" lon="18.6985947"><ele>48.0</ele><time>2026-05-04T09:29:34.667Z</time></trkpt><trkpt lat="42.4876186" lon="18.6984818"><ele>48.0</ele><time>2026-05-04T09:29:35.664Z</time></trkpt><trkpt lat="42.4877022" lon="18.6983609"><ele>48.0</ele><time>2026-05-04T09:29:36.662Z</time></trkpt><trkpt lat="42.4877802" lon="18.6982318"><ele>47.4</ele><time>2026-05-04T09:29:37.663Z</time></trkpt><trkpt lat="42.4878428" lon="18.6981129"><ele>46.8</ele><time>2026-05-04T09:29:38.661Z</time></trkpt><trkpt lat="42.4878975" lon="18.6980093"><ele>46.2</ele><time>2026-05-04T09:29:39.659Z</time></trkpt><trkpt lat="42.4879389" lon="18.6979193"><ele>45.6</ele><time>2026-05-04T09:29:40.661Z</time></trkpt><trkpt lat="42.4879959" lon="18.6977828"><ele>45.0</ele><time>2026-05-04T09:29:42.666Z</time></trkpt><trkpt lat="42.4880232" lon="18.6977003"><ele>45.0</ele><time>2026-05-04T09:29:44.662Z</time></trkpt><trkpt lat="42.4880798" lon="18.6976013"><ele>45.0</ele><time>2026-05-04T09:29:47.658Z</time></trkpt><trkpt lat="42.4881203" lon="18.6974836"><ele>45.0</ele><time>2026-05-04T09:29:49.662Z</time></trkpt><trkpt lat="42.4881469" lon="18.6974052"><ele>45.0</ele><time>2026-05-04T09:29:50.663Z</time></trkpt><trkpt lat="42.48818" lon="18.6973163"><ele>45.0</ele><time>2026-05-04T09:29:51.663Z</time></trkpt><trkpt lat="42.4882083" lon="18.6972282"><ele>45.0</ele><time>2026-05-04T09:29:52.662Z</time></trkpt><trkpt lat="42.4882407" lon="18.697123"><ele>45.0</ele><time>2026-05-04T09:29:53.664Z</time></trkpt><trkpt lat="42.4882822" lon="18.6970284"><ele>45.0</ele><time>2026-05-04T09:29:54.668Z</time></trkpt><trkpt lat="42.4883283" lon="18.6969269"><ele>45.0</ele><time>2026-05-04T09:29:55.664Z</time></trkpt><trkpt lat="42.48836" lon="18.6968143"><ele>45.0</ele><time>2026-05-04T09:29:56.663Z</time></trkpt><trkpt lat="42.488394" lon="18.6967041"><ele>45.0</ele><time>2026-05-04T09:29:57.663Z</time></trkpt><trkpt lat="42.4884255" lon="18.6965828"><ele>45.0</ele><time>2026-05-04T09:29:58.665Z</time></trkpt><trkpt lat="42.4884568" lon="18.696465"><ele>41.333333333333336</ele><time>2026-05-04T09:29:59.667Z</time></trkpt><trkpt lat="42.488485" lon="18.6963495"><ele>37.666666666666664</ele><time>2026-05-04T09:30:00.663Z</time></trkpt><trkpt lat="42.4885039" lon="18.6962249"><ele>34.0</ele><time>2026-05-04T09:30:01.663Z</time></trkpt><trkpt lat="42.4885178" lon="18.6961099"><ele>30.333333333333336</ele><time>2026-05-04T09:30:02.663Z</time></trkpt><trkpt lat="42.4885302" lon="18.6959928"><ele>26.666666666666668</ele><time>2026-05-04T09:30:03.663Z</time></trkpt><trkpt lat="42.4885405" lon="18.6958769"><ele>23.0</ele><time>2026-05-04T09:30:04.663Z</time></trkpt><trkpt lat="42.4885609" lon="18.6957632"><ele>21.799999999999997</ele><time>2026-05-04T09:30:05.667Z</time></trkpt><trkpt lat="42.4885743" lon="18.6956406"><ele>20.599999999999998</ele><time>2026-05-04T09:30:06.665Z</time></trkpt><trkpt lat="42.4886016" lon="18.6955135"><ele>19.4</ele><time>2026-05-04T09:30:07.663Z</time></trkpt><trkpt lat="42.4886304" lon="18.6953916"><ele>18.2</ele><time>2026-05-04T09:30:08.666Z</time></trkpt><trkpt lat="42.4886699" lon="18.6952727"><ele>17.0</ele><time>2026-05-04T09:30:09.661Z</time></trkpt><trkpt lat="42.4887311" lon="18.6951598"><ele>20.75</ele><time>2026-05-04T09:30:10.662Z</time></trkpt><trkpt lat="42.4887986" lon="18.6950318"><ele>24.5</ele><time>2026-05-04T09:30:11.662Z</time></trkpt><trkpt lat="42.4888741" lon="18.6949204"><ele>28.25</ele><time>2026-05-04T09:30:12.66Z</time></trkpt><trkpt lat="42.4889605" lon="18.6948163"><ele>32.0</ele><time>2026-05-04T09:30:13.663Z</time></trkpt><trkpt lat="42.489044" lon="18.6947217"><ele>32.0</ele><time>2026-05-04T09:30:14.664Z</time></trkpt><trkpt lat="42.4891263" lon="18.6946254"><ele>32.0</ele><time>2026-05-04T09:30:15.661Z</time></trkpt><trkpt lat="42.4892079" lon="18.6945287"><ele>32.0</ele><time>2026-05-04T09:30:16.663Z</time></trkpt><trkpt lat="42.4892865" lon="18.6944308"><ele>32.0</ele><time>2026-05-04T09:30:17.665Z</time></trkpt><trkpt lat="42.4893639" lon="18.6943317"><ele>32.0</ele><time>2026-05-04T09:30:18.661Z</time></trkpt><trkpt lat="42.4894308" lon="18.6942333"><ele>28.400000000000002</ele><time>2026-05-04T09:30:19.665Z</time></trkpt><trkpt lat="42.4894881" lon="18.6941274"><ele>24.800000000000004</ele><time>2026-05-04T09:30:20.66Z</time></trkpt><trkpt lat="42.489549" lon="18.6940263"><ele>21.2</ele><time>2026-05-04T09:30:21.666Z</time></trkpt><trkpt lat="42.489604" lon="18.6939164"><ele>17.6</ele><time>2026-05-04T09:30:22.663Z</time></trkpt><trkpt lat="42.4896573" lon="18.6938196"><ele>14.0</ele><time>2026-05-04T09:30:23.664Z</time></trkpt><trkpt lat="42.4897112" lon="18.6937132"><ele>16.0</ele><time>2026-05-04T09:30:24.663Z</time></trkpt><trkpt lat="42.489761" lon="18.6936034"><ele>18.0</ele><time>2026-05-04T09:30:25.662Z</time></trkpt><trkpt lat="42.4898232" lon="18.6935013"><ele>20.0</ele><time>2026-05-04T09:30:26.662Z</time></trkpt><trkpt lat="42.4898832" lon="18.6933971"><ele>22.0</ele><time>2026-05-04T09:30:27.659Z</time></trkpt><trkpt lat="42.4899452" lon="18.693268"><ele>24.0</ele><time>2026-05-04T09:30:28.662Z</time></trkpt><trkpt lat="42.4900107" lon="18.6931783"><ele>24.0</ele><time>2026-05-04T09:30:29.662Z</time></trkpt><trkpt lat="42.4900943" lon="18.6930877"><ele>24.0</ele><time>2026-05-04T09:30:30.665Z</time></trkpt><trkpt lat="42.4901807" lon="18.692985"><ele>24.0</ele><time>2026-05-04T09:30:31.661Z</time></trkpt><trkpt lat="42.4902695" lon="18.6929022"><ele>24.0</ele><time>2026-05-04T09:30:32.659Z</time></trkpt><trkpt lat="42.4903642" lon="18.6928104"><ele>24.0</ele><time>2026-05-04T09:30:33.66Z</time></trkpt><trkpt lat="42.4904562" lon="18.6927197"><ele>23.25</ele><time>2026-05-04T09:30:34.66Z</time></trkpt><trkpt lat="42.4905593" lon="18.6926202"><ele>22.5</ele><time>2026-05-04T09:30:35.66Z</time></trkpt><trkpt lat="42.4906597" lon="18.6925191"><ele>21.75</ele><time>2026-05-04T09:30:36.667Z</time></trkpt><trkpt lat="42.4907653" lon="18.6924288"><ele>21.0</ele><time>2026-05-04T09:30:37.659Z</time></trkpt><trkpt lat="42.4908752" lon="18.6923457"><ele>21.0</ele><time>2026-05-04T09:30:38.659Z</time></trkpt><trkpt lat="42.4909787" lon="18.6922642"><ele>21.0</ele><time>2026-05-04T09:30:39.66Z</time></trkpt><trkpt lat="42.4911037" lon="18.6921787"><ele>21.0</ele><time>2026-05-04T09:30:40.663Z</time></trkpt><trkpt lat="42.4912291" lon="18.6921046"><ele>21.0</ele><time>2026-05-04T09:30:41.661Z</time></trkpt><trkpt lat="42.4913683" lon="18.6920418"><ele>18.25</ele><time>2026-05-04T09:30:42.661Z</time></trkpt><trkpt lat="42.4915038" lon="18.6919806"><ele>15.5</ele><time>2026-05-04T09:30:43.662Z</time></trkpt><trkpt lat="42.4916422" lon="18.6919133"><ele>12.75</ele><time>2026-05-04T09:30:44.66Z</time></trkpt><trkpt lat="42.4917727" lon="18.6918488"><ele>10.0</ele><time>2026-05-04T09:30:45.661Z</time></trkpt><trkpt lat="42.491908" lon="18.6917828"><ele>10.0</ele><time>2026-05-04T09:30:46.663Z</time></trkpt><trkpt lat="42.4920465" lon="18.6917227"><ele>10.0</ele><time>2026-05-04T09:30:47.667Z</time></trkpt><trkpt lat="42.4921779" lon="18.6916677"><ele>10.0</ele><time>2026-05-04T09:30:48.662Z</time></trkpt><trkpt lat="42.4923047" lon="18.6916282"><ele>10.0</ele><time>2026-05-04T09:30:49.661Z</time></trkpt><trkpt lat="42.4924433" lon="18.6916019"><ele>12.0</ele><time>2026-05-04T09:30:50.663Z</time></trkpt><trkpt lat="42.4925749" lon="18.691592"><ele>14.0</ele><time>2026-05-04T09:30:51.662Z</time></trkpt><trkpt lat="42.4927165" lon="18.6915887"><ele>16.0</ele><time>2026-05-04T09:30:52.662Z</time></trkpt><trkpt lat="42.4928657" lon="18.6915849"><ele>18.0</ele><time>2026-05-04T09:30:53.664Z</time></trkpt><trkpt lat="42.4930008" lon="18.6915807"><ele>21.0</ele><time>2026-05-04T09:30:54.664Z</time></trkpt><trkpt lat="42.4931363" lon="18.6915653"><ele>24.0</ele><time>2026-05-04T09:30:55.663Z</time></trkpt><trkpt lat="42.493274" lon="18.6915458"><ele>27.0</ele><time>2026-05-04T09:30:56.663Z</time></trkpt><trkpt lat="42.4934058" lon="18.6915246"><ele>30.0</ele><time>2026-05-04T09:30:57.662Z</time></trkpt><trkpt lat="42.4935468" lon="18.6915136"><ele>30.0</ele><time>2026-05-04T09:30:58.663Z</time></trkpt><trkpt lat="42.4936887" lon="18.6915135"><ele>30.0</ele><time>2026-05-04T09:30:59.663Z</time></trkpt><trkpt lat="42.4938595" lon="18.6915265"><ele>30.0</ele><time>2026-05-04T09:31:00.661Z</time></trkpt><trkpt lat="42.4940246" lon="18.6915478"><ele>28.0</ele><time>2026-05-04T09:31:01.661Z</time></trkpt><trkpt lat="42.4941801" lon="18.6915629"><ele>26.0</ele><time>2026-05-04T09:31:02.66Z</time></trkpt><trkpt lat="42.4943333" lon="18.6915742"><ele>24.0</ele><time>2026-05-04T09:31:03.662Z</time></trkpt><trkpt lat="42.4944805" lon="18.6915673"><ele>24.666666666666664</ele><time>2026-05-04T09:31:04.661Z</time></trkpt><trkpt lat="42.4946329" lon="18.6915256"><ele>25.333333333333332</ele><time>2026-05-04T09:31:05.659Z</time></trkpt><trkpt lat="42.4947847" lon="18.6914561"><ele>26.0</ele><time>2026-05-04T09:31:06.663Z</time></trkpt><trkpt lat="42.4949321" lon="18.6913734"><ele>26.0</ele><time>2026-05-04T09:31:07.664Z</time></trkpt><trkpt lat="42.4950706" lon="18.6912832"><ele>26.0</ele><time>2026-05-04T09:31:08.66Z</time></trkpt><trkpt lat="42.4952144" lon="18.6911943"><ele>26.0</ele><time>2026-05-04T09:31:09.666Z</time></trkpt><trkpt lat="42.4953663" lon="18.6911358"><ele>21.0</ele><time>2026-05-04T09:31:10.659Z</time></trkpt><trkpt lat="42.4955145" lon="18.6910811"><ele>16.0</ele><time>2026-05-04T09:31:11.661Z</time></trkpt><trkpt lat="42.4956732" lon="18.6910522"><ele>11.0</ele><time>2026-05-04T09:31:12.662Z</time></trkpt><trkpt lat="42.4958283" lon="18.6910385"><ele>11.0</ele><time>2026-05-04T09:31:13.661Z</time></trkpt><trkpt lat="42.4959815" lon="18.6910433"><ele>11.0</ele><time>2026-05-04T09:31:14.661Z</time></trkpt><trkpt lat="42.496127" lon="18.69106"><ele>11.0</ele><time>2026-05-04T09:31:15.663Z</time></trkpt><trkpt lat="42.4962641" lon="18.6911014"><ele>11.0</ele><time>2026-05-04T09:31:16.658Z</time></trkpt><trkpt lat="42.4963903" lon="18.6911428"><ele>14.0</ele><time>2026-05-04T09:31:17.662Z</time></trkpt><trkpt lat="42.4965028" lon="18.6911931"><ele>17.0</ele><time>2026-05-04T09:31:18.66Z</time></trkpt><trkpt lat="42.4966274" lon="18.6912541"><ele>20.0</ele><time>2026-05-04T09:31:19.661Z</time></trkpt><trkpt lat="42.4967336" lon="18.691314"><ele>23.0</ele><time>2026-05-04T09:31:20.659Z</time></trkpt><trkpt lat="42.4968334" lon="18.691379"><ele>23.0</ele><time>2026-05-04T09:31:21.661Z</time></trkpt><trkpt lat="42.4969317" lon="18.6914428"><ele>23.0</ele><time>2026-05-04T09:31:22.659Z</time></trkpt><trkpt lat="42.4970259" lon="18.6915072"><ele>23.0</ele><time>2026-05-04T09:31:23.659Z</time></trkpt><trkpt lat="42.4971145" lon="18.691573"><ele>23.0</ele><time>2026-05-04T09:31:24.661Z</time></trkpt><trkpt lat="42.4972036" lon="18.6916328"><ele>23.0</ele><time>2026-05-04T09:31:25.662Z</time></trkpt><trkpt lat="42.4972955" lon="18.6917067"><ele>19.0</ele><time>2026-05-04T09:31:26.662Z</time></trkpt><trkpt lat="42.4973943" lon="18.6917782"><ele>15.0</ele><time>2026-05-04T09:31:27.66Z</time></trkpt><trkpt lat="42.4975063" lon="18.69185"><ele>11.0</ele><time>2026-05-04T09:31:28.659Z</time></trkpt><trkpt lat="42.4976287" lon="18.6919181"><ele>7.0</ele><time>2026-05-04T09:31:29.66Z</time></trkpt><trkpt lat="42.497772" lon="18.6919858"><ele>15.333333333333332</ele><time>2026-05-04T09:31:30.659Z</time></trkpt><trkpt lat="42.4979238" lon="18.6920499"><ele>23.666666666666664</ele><time>2026-05-04T09:31:31.661Z</time></trkpt><trkpt lat="42.498077" lon="18.6921054"><ele>32.0</ele><time>2026-05-04T09:31:32.66Z</time></trkpt><trkpt lat="42.4982426" lon="18.6921542"><ele>32.0</ele><time>2026-05-04T09:31:33.663Z</time></trkpt><trkpt lat="42.4984156" lon="18.6921882"><ele>32.0</ele><time>2026-05-04T09:31:34.659Z</time></trkpt><trkpt lat="42.4985899" lon="18.6922185"><ele>32.0</ele><time>2026-05-04T09:31:35.662Z</time></trkpt><trkpt lat="42.4987648" lon="18.6922537"><ele>29.333333333333332</ele><time>2026-05-04T09:31:36.659Z</time></trkpt><trkpt lat="42.4989366" lon="18.6922819"><ele>26.666666666666664</ele><time>2026-05-04T09:31:37.662Z</time></trkpt><trkpt lat="42.4991092" lon="18.6923119"><ele>24.0</ele><time>2026-05-04T09:31:38.659Z</time></trkpt><trkpt lat="42.4992784" lon="18.6923377"><ele>24.0</ele><time>2026-05-04T09:31:39.662Z</time></trkpt><trkpt lat="42.4994428" lon="18.6923737"><ele>24.0</ele><time>2026-05-04T09:31:40.661Z</time></trkpt><trkpt lat="42.4996071" lon="18.6924231"><ele>24.0</ele><time>2026-05-04T09:31:41.664Z</time></trkpt><trkpt lat="42.4997709" lon="18.6924763"><ele>21.666666666666668</ele><time>2026-05-04T09:31:42.661Z</time></trkpt><trkpt lat="42.4999271" lon="18.6925295"><ele>19.333333333333336</ele><time>2026-05-04T09:31:43.663Z</time></trkpt><trkpt lat="42.5000775" lon="18.6925762"><ele>17.0</ele><time>2026-05-04T09:31:44.66Z</time></trkpt><trkpt lat="42.5002216" lon="18.6926213"><ele>17.0</ele><time>2026-05-04T09:31:45.663Z</time></trkpt><trkpt lat="42.5003599" lon="18.6926586"><ele>17.0</ele><time>2026-05-04T09:31:46.662Z</time></trkpt><trkpt lat="42.5005008" lon="18.6926678"><ele>17.0</ele><time>2026-05-04T09:31:47.658Z</time></trkpt><trkpt lat="42.5006411" lon="18.6926526"><ele>17.0</ele><time>2026-05-04T09:31:48.658Z</time></trkpt><trkpt lat="42.5007889" lon="18.6925788"><ele>15.666666666666668</ele><time>2026-05-04T09:31:49.662Z</time></trkpt><trkpt lat="42.500928" lon="18.6924843"><ele>14.333333333333332</ele><time>2026-05-04T09:31:50.661Z</time></trkpt><trkpt lat="42.5010676" lon="18.6923938"><ele>13.0</ele><time>2026-05-04T09:31:51.664Z</time></trkpt><trkpt lat="42.5012057" lon="18.6923045"><ele>12.666666666666666</ele><time>2026-05-04T09:31:52.659Z</time></trkpt><trkpt lat="42.5013559" lon="18.6922434"><ele>12.333333333333332</ele><time>2026-05-04T09:31:53.661Z</time></trkpt><trkpt lat="42.5015079" lon="18.6921942"><ele>12.0</ele><time>2026-05-04T09:31:54.659Z</time></trkpt><trkpt lat="42.5016554" lon="18.6921581"><ele>12.0</ele><time>2026-05-04T09:31:55.663Z</time></trkpt><trkpt lat="42.5018019" lon="18.692135"><ele>12.0</ele><time>2026-05-04T09:31:56.662Z</time></trkpt><trkpt lat="42.5019429" lon="18.6921294"><ele>12.0</ele><time>2026-05-04T09:31:57.662Z</time></trkpt><trkpt lat="42.5020834" lon="18.6921598"><ele>12.0</ele><time>2026-05-04T09:31:58.661Z</time></trkpt><trkpt lat="42.5022117" lon="18.6922236"><ele>11.75</ele><time>2026-05-04T09:31:59.664Z</time></trkpt><trkpt lat="42.5023317" lon="18.6923125"><ele>11.5</ele><time>2026-05-04T09:32:00.66Z</time></trkpt><trkpt lat="42.5024306" lon="18.6924503"><ele>11.25</ele><time>2026-05-04T09:32:01.661Z</time></trkpt><trkpt lat="42.5025091" lon="18.6925966"><ele>11.0</ele><time>2026-05-04T09:32:02.658Z</time></trkpt><trkpt lat="42.5025695" lon="18.6927594"><ele>11.0</ele><time>2026-05-04T09:32:03.659Z</time></trkpt><trkpt lat="42.5026055" lon="18.692933"><ele>11.0</ele><time>2026-05-04T09:32:04.66Z</time></trkpt><trkpt lat="42.5026219" lon="18.6931105"><ele>11.0</ele><time>2026-05-04T09:32:05.66Z</time></trkpt><trkpt lat="42.5026343" lon="18.6933038"><ele>11.0</ele><time>2026-05-04T09:32:06.659Z</time></trkpt><trkpt lat="42.5026563" lon="18.693486"><ele>9.5</ele><time>2026-05-04T09:32:07.66Z</time></trkpt><trkpt lat="42.5027009" lon="18.6936498"><ele>8.0</ele><time>2026-05-04T09:32:08.659Z</time></trkpt><trkpt lat="42.5027717" lon="18.6938023"><ele>6.5</ele><time>2026-05-04T09:32:09.661Z</time></trkpt><trkpt lat="42.5028615" lon="18.6939253"><ele>5.0</ele><time>2026-05-04T09:32:10.659Z</time></trkpt><trkpt lat="42.5029634" lon="18.6940379"><ele>5.0</ele><time>2026-05-04T09:32:11.662Z</time></trkpt><trkpt lat="42.5030771" lon="18.6941404"><ele>5.0</ele><time>2026-05-04T09:32:12.661Z</time></trkpt><trkpt lat="42.5031935" lon="18.6942318"><ele>5.0</ele><time>2026-05-04T09:32:13.658Z</time></trkpt><trkpt lat="42.5033024" lon="18.6943182"><ele>5.0</ele><time>2026-05-04T09:32:14.663Z</time></trkpt><trkpt lat="42.5034115" lon="18.6944064"><ele>8.6</ele><time>2026-05-04T09:32:15.662Z</time></trkpt><trkpt lat="42.5035202" lon="18.6944786"><ele>12.2</ele><time>2026-05-04T09:32:16.66Z</time></trkpt><trkpt lat="42.5036303" lon="18.6945311"><ele>15.799999999999999</ele><time>2026-05-04T09:32:17.658Z</time></trkpt><trkpt lat="42.5037328" lon="18.6945522"><ele>19.4</ele><time>2026-05-04T09:32:18.659Z</time></trkpt><trkpt lat="42.5038304" lon="18.694556"><ele>23.0</ele><time>2026-05-04T09:32:19.662Z</time></trkpt><trkpt lat="42.5039314" lon="18.6945425"><ele>23.0</ele><time>2026-05-04T09:32:20.661Z</time></trkpt><trkpt lat="42.5040293" lon="18.6945169"><ele>23.0</ele><time>2026-05-04T09:32:21.661Z</time></trkpt><trkpt lat="42.5041246" lon="18.6944717"><ele>23.0</ele><time>2026-05-04T09:32:22.658Z</time></trkpt><trkpt lat="42.5042187" lon="18.694413"><ele>23.0</ele><time>2026-05-04T09:32:23.661Z</time></trkpt><trkpt lat="42.5043152" lon="18.6943524"><ele>23.0</ele><time>2026-05-04T09:32:24.659Z</time></trkpt><trkpt lat="42.5044092" lon="18.6942931"><ele>21.599999999999998</ele><time>2026-05-04T09:32:25.661Z</time></trkpt><trkpt lat="42.5045013" lon="18.6942433"><ele>20.2</ele><time>2026-05-04T09:32:26.659Z</time></trkpt><trkpt lat="42.5045949" lon="18.694192"><ele>18.8</ele><time>2026-05-04T09:32:27.662Z</time></trkpt><trkpt lat="42.5046832" lon="18.6941378"><ele>17.4</ele><time>2026-05-04T09:32:28.663Z</time></trkpt><trkpt lat="42.5047653" lon="18.6940786"><ele>16.0</ele><time>2026-05-04T09:32:29.661Z</time></trkpt><trkpt lat="42.5048496" lon="18.694025"><ele>16.0</ele><time>2026-05-04T09:32:30.662Z</time></trkpt><trkpt lat="42.5049395" lon="18.6939735"><ele>16.0</ele><time>2026-05-04T09:32:31.662Z</time></trkpt><trkpt lat="42.5050294" lon="18.6939203"><ele>16.0</ele><time>2026-05-04T09:32:32.663Z</time></trkpt><trkpt lat="42.5051206" lon="18.6938608"><ele>16.0</ele><time>2026-05-04T09:32:33.659Z</time></trkpt><trkpt lat="42.5052142" lon="18.6938076"><ele>16.0</ele><time>2026-05-04T09:32:34.66Z</time></trkpt><trkpt lat="42.5053119" lon="18.693756"><ele>16.0</ele><time>2026-05-04T09:32:35.661Z</time></trkpt><trkpt lat="42.5054068" lon="18.6937037"><ele>16.0</ele><time>2026-05-04T09:32:36.664Z</time></trkpt><trkpt lat="42.5055036" lon="18.6936623"><ele>16.0</ele><time>2026-05-04T09:32:37.66Z</time></trkpt><trkpt lat="42.5056063" lon="18.6936393"><ele>16.0</ele><time>2026-05-04T09:32:38.661Z</time></trkpt><trkpt lat="42.5057108" lon="18.6936328"><ele>16.0</ele><time>2026-05-04T09:32:39.659Z</time></trkpt><trkpt lat="42.5058143" lon="18.6936431"><ele>14.8</ele><time>2026-05-04T09:32:40.66Z</time></trkpt><trkpt lat="42.5059182" lon="18.6936757"><ele>13.600000000000001</ele><time>2026-05-04T09:32:41.659Z</time></trkpt><trkpt lat="42.5060154" lon="18.6937238"><ele>12.4</ele><time>2026-05-04T09:32:42.66Z</time></trkpt><trkpt lat="42.5061097" lon="18.6937929"><ele>11.2</ele><time>2026-05-04T09:32:43.661Z</time></trkpt><trkpt lat="42.5062" lon="18.6938827"><ele>10.0</ele><time>2026-05-04T09:32:44.664Z</time></trkpt><trkpt lat="42.5062846" lon="18.6939863"><ele>10.0</ele><time>2026-05-04T09:32:45.662Z</time></trkpt><trkpt lat="42.5063619" lon="18.6940995"><ele>10.0</ele><time>2026-05-04T09:32:46.663Z</time></trkpt><trkpt lat="42.5064412" lon="18.6942207"><ele>10.0</ele><time>2026-05-04T09:32:47.664Z</time></trkpt><trkpt lat="42.5065228" lon="18.6943475"><ele>10.0</ele><time>2026-05-04T09:32:48.662Z</time></trkpt><trkpt lat="42.5066104" lon="18.6944712"><ele>10.0</ele><time>2026-05-04T09:32:49.662Z</time></trkpt><trkpt lat="42.5066932" lon="18.6945989"><ele>10.0</ele><time>2026-05-04T09:32:50.663Z</time></trkpt><trkpt lat="42.5067727" lon="18.6947251"><ele>10.0</ele><time>2026-05-04T09:32:51.662Z</time></trkpt><trkpt lat="42.5068561" lon="18.6948554"><ele>10.0</ele><time>2026-05-04T09:32:52.659Z</time></trkpt><trkpt lat="42.5069398" lon="18.6949772"><ele>10.0</ele><time>2026-05-04T09:32:53.662Z</time></trkpt><trkpt lat="42.5070089" lon="18.6950873"><ele>10.0</ele><time>2026-05-04T09:32:54.666Z</time></trkpt><trkpt lat="42.5070787" lon="18.6952012"><ele>10.0</ele><time>2026-05-04T09:32:55.66Z</time></trkpt><trkpt lat="42.5071524" lon="18.6953119"><ele>10.0</ele><time>2026-05-04T09:32:56.666Z</time></trkpt><trkpt lat="42.5072298" lon="18.6954163"><ele>10.0</ele><time>2026-05-04T09:32:57.662Z</time></trkpt><trkpt lat="42.5073134" lon="18.6955064"><ele>8.6</ele><time>2026-05-04T09:32:58.663Z</time></trkpt><trkpt lat="42.5074121" lon="18.6955916"><ele>7.2</ele><time>2026-05-04T09:32:59.664Z</time></trkpt><trkpt lat="42.5075102" lon="18.6956642"><ele>5.8</ele><time>2026-05-04T09:33:00.663Z</time></trkpt><trkpt lat="42.5076049" lon="18.6957196"><ele>4.4</ele><time>2026-05-04T09:33:01.662Z</time></trkpt><trkpt lat="42.5076987" lon="18.6957737"><ele>3.0</ele><time>2026-05-04T09:33:02.661Z</time></trkpt><trkpt lat="42.5077863" lon="18.6958225"><ele>3.0</ele><time>2026-05-04T09:33:03.663Z</time></trkpt><trkpt lat="42.5078698" lon="18.6958617"><ele>3.0</ele><time>2026-05-04T09:33:04.66Z</time></trkpt><trkpt lat="42.5079564" lon="18.6959012"><ele>3.0</ele><time>2026-05-04T09:33:05.66Z</time></trkpt><trkpt lat="42.5080498" lon="18.695939"><ele>3.0</ele><time>2026-05-04T09:33:06.661Z</time></trkpt><trkpt lat="42.508142" lon="18.695975"><ele>3.0</ele><time>2026-05-04T09:33:07.66Z</time></trkpt><trkpt lat="42.5082349" lon="18.6960186"><ele>2.6</ele><time>2026-05-04T09:33:08.661Z</time></trkpt><trkpt lat="42.508325" lon="18.6960776"><ele>2.1999999999999997</ele><time>2026-05-04T09:33:09.659Z</time></trkpt><trkpt lat="42.5084104" lon="18.6961503"><ele>1.8</ele><time>2026-05-04T09:33:10.661Z</time></trkpt><trkpt lat="42.5084868" lon="18.69621"><ele>1.4</ele><time>2026-05-04T09:33:11.665Z</time></trkpt><trkpt lat="42.50857" lon="18.6962738"><ele>1.0</ele><time>2026-05-04T09:33:12.66Z</time></trkpt><trkpt lat="42.5086482" lon="18.6963311"><ele>1.0</ele><time>2026-05-04T09:33:13.664Z</time></trkpt><trkpt lat="42.5087359" lon="18.696388"><ele>1.0</ele><time>2026-05-04T09:33:14.659Z</time></trkpt><trkpt lat="42.508823" lon="18.6964483"><ele>1.0</ele><time>2026-05-04T09:33:15.66Z</time></trkpt><trkpt lat="42.5089135" lon="18.6965019"><ele>1.0</ele><time>2026-05-04T09:33:16.659Z</time></trkpt><trkpt lat="42.5090055" lon="18.6965481"><ele>1.0</ele><time>2026-05-04T09:33:17.66Z</time></trkpt><trkpt lat="42.5090968" lon="18.696591"><ele>1.0</ele><time>2026-05-04T09:33:18.66Z</time></trkpt><trkpt lat="42.50919" lon="18.69662"><ele>1.0</ele><time>2026-05-04T09:33:19.664Z</time></trkpt><trkpt lat="42.5092869" lon="18.6966495"><ele>1.0</ele><time>2026-05-04T09:33:20.662Z</time></trkpt><trkpt lat="42.5093814" lon="18.6966645"><ele>1.0</ele><time>2026-05-04T09:33:21.665Z</time></trkpt><trkpt lat="42.5094718" lon="18.6966776"><ele>1.0</ele><time>2026-05-04T09:33:22.661Z</time></trkpt><trkpt lat="42.5095567" lon="18.6966856"><ele>0.6000000000000001</ele><time>2026-05-04T09:33:23.663Z</time></trkpt><trkpt lat="42.5096308" lon="18.6966787"><ele>0.20000000000000007</ele><time>2026-05-04T09:33:24.663Z</time></trkpt><trkpt lat="42.5097374" lon="18.696684"><ele>-0.20000000000000007</ele><time>2026-05-04T09:33:26.663Z</time></trkpt><trkpt lat="42.5098535" lon="18.6966745"><ele>-0.6000000000000001</ele><time>2026-05-04T09:33:28.663Z</time></trkpt><trkpt lat="42.5099727" lon="18.6966568"><ele>-1.0</ele><time>2026-05-04T09:33:30.662Z</time></trkpt><trkpt lat="42.5100425" lon="18.6966334"><ele>-0.9999999999999999</ele><time>2026-05-04T09:33:31.667Z</time></trkpt><trkpt lat="42.5101174" lon="18.6966074"><ele>-1.0</ele><time>2026-05-04T09:33:32.662Z</time></trkpt><trkpt lat="42.5101953" lon="18.6965684"><ele>-1.0</ele><time>2026-05-04T09:33:33.662Z</time></trkpt><trkpt lat="42.5102714" lon="18.6965311"><ele>-1.0</ele><time>2026-05-04T09:33:34.663Z</time></trkpt><trkpt lat="42.5103515" lon="18.6964863"><ele>-0.9999999999999999</ele><time>2026-05-04T09:33:35.664Z</time></trkpt><trkpt lat="42.5104302" lon="18.6964262"><ele>-1.0</ele><time>2026-05-04T09:33:36.665Z</time></trkpt><trkpt lat="42.5105119" lon="18.6963726"><ele>-0.4</ele><time>2026-05-04T09:33:37.665Z</time></trkpt><trkpt lat="42.5105874" lon="18.6963149"><ele>0.19999999999999996</ele><time>2026-05-04T09:33:38.661Z</time></trkpt><trkpt lat="42.5106652" lon="18.6962611"><ele>0.8000000000000002</ele><time>2026-05-04T09:33:39.665Z</time></trkpt><trkpt lat="42.5107407" lon="18.6962081"><ele>1.4000000000000001</ele><time>2026-05-04T09:33:40.659Z</time></trkpt><trkpt lat="42.5108251" lon="18.6961455"><ele>2.0</ele><time>2026-05-04T09:33:41.663Z</time></trkpt><trkpt lat="42.5109136" lon="18.696083"><ele>2.0</ele><time>2026-05-04T09:33:42.662Z</time></trkpt><trkpt lat="42.5109976" lon="18.6960261"><ele>2.0</ele><time>2026-05-04T09:33:43.662Z</time></trkpt><trkpt lat="42.5110853" lon="18.6959745"><ele>2.0</ele><time>2026-05-04T09:33:44.663Z</time></trkpt><trkpt lat="42.5111774" lon="18.6959307"><ele>2.0</ele><time>2026-05-04T09:33:45.663Z</time></trkpt><trkpt lat="42.5112735" lon="18.6958852"><ele>2.0</ele><time>2026-05-04T09:33:46.663Z</time></trkpt><trkpt lat="42.5113658" lon="18.6958456"><ele>2.4000000000000004</ele><time>2026-05-04T09:33:47.661Z</time></trkpt><trkpt lat="42.5114575" lon="18.6958063"><ele>2.8000000000000003</ele><time>2026-05-04T09:33:48.664Z</time></trkpt><trkpt lat="42.5115537" lon="18.6957828"><ele>3.2</ele><time>2026-05-04T09:33:49.662Z</time></trkpt><trkpt lat="42.5116585" lon="18.6957528"><ele>3.6</ele><time>2026-05-04T09:33:50.663Z</time></trkpt><trkpt lat="42.5117582" lon="18.69573"><ele>4.0</ele><time>2026-05-04T09:33:51.664Z</time></trkpt><trkpt lat="42.5118596" lon="18.6957068"><ele>4.0</ele><time>2026-05-04T09:33:52.663Z</time></trkpt><trkpt lat="42.5119628" lon="18.6956862"><ele>4.0</ele><time>2026-05-04T09:33:53.661Z</time></trkpt><trkpt lat="42.5120674" lon="18.6956735"><ele>4.0</ele><time>2026-05-04T09:33:54.664Z</time></trkpt><trkpt lat="42.5121751" lon="18.6956619"><ele>4.0</ele><time>2026-05-04T09:33:55.662Z</time></trkpt><trkpt lat="42.5122811" lon="18.695643"><ele>4.0</ele><time>2026-05-04T09:33:56.661Z</time></trkpt><trkpt lat="42.5123826" lon="18.6956162"><ele>3.9999999999999996</ele><time>2026-05-04T09:33:57.664Z</time></trkpt><trkpt lat="42.5124764" lon="18.6955836"><ele>4.0</ele><time>2026-05-04T09:33:58.661Z</time></trkpt><trkpt lat="42.5125683" lon="18.6955584"><ele>4.0</ele><time>2026-05-04T09:33:59.666Z</time></trkpt><trkpt lat="42.5126415" lon="18.6955289"><ele>4.0</ele><time>2026-05-04T09:34:00.662Z</time></trkpt><trkpt lat="42.5127049" lon="18.695503"><ele>3.9999999999999996</ele><time>2026-05-04T09:34:01.663Z</time></trkpt><trkpt lat="42.5127696" lon="18.6954627"><ele>4.0</ele><time>2026-05-04T09:34:02.663Z</time></trkpt><trkpt lat="42.5128555" lon="18.6954193"><ele>3.5</ele><time>2026-05-04T09:34:03.659Z</time></trkpt><trkpt lat="42.5129572" lon="18.6953781"><ele>3.0</ele><time>2026-05-04T09:34:04.663Z</time></trkpt><trkpt lat="42.513076" lon="18.6953312"><ele>2.5</ele><time>2026-05-04T09:34:05.662Z</time></trkpt><trkpt lat="42.5132095" lon="18.6952625"><ele>2.0</ele><time>2026-05-04T09:34:06.659Z</time></trkpt><trkpt lat="42.5133489" lon="18.6952015"><ele>2.0</ele><time>2026-05-04T09:34:07.665Z</time></trkpt><trkpt lat="42.5134856" lon="18.6951326"><ele>2.0</ele><time>2026-05-04T09:34:08.665Z</time></trkpt><trkpt lat="42.5136203" lon="18.6950572"><ele>2.0</ele><time>2026-05-04T09:34:09.666Z</time></trkpt><trkpt lat="42.5137513" lon="18.6949758"><ele>2.0</ele><time>2026-05-04T09:34:10.664Z</time></trkpt><trkpt lat="42.5138836" lon="18.6949013"><ele>2.75</ele><time>2026-05-04T09:34:11.666Z</time></trkpt><trkpt lat="42.5140148" lon="18.6948113"><ele>3.5</ele><time>2026-05-04T09:34:12.661Z</time></trkpt><trkpt lat="42.514139" lon="18.6947214"><ele>4.25</ele><time>2026-05-04T09:34:13.668Z</time></trkpt><trkpt lat="42.5142582" lon="18.6946386"><ele>5.0</ele><time>2026-05-04T09:34:14.662Z</time></trkpt><trkpt lat="42.514372" lon="18.6945562"><ele>5.0</ele><time>2026-05-04T09:34:15.668Z</time></trkpt><trkpt lat="42.5144727" lon="18.6944819"><ele>5.0</ele><time>2026-05-04T09:34:16.661Z</time></trkpt><trkpt lat="42.5145728" lon="18.6944081"><ele>5.0</ele><time>2026-05-04T09:34:17.662Z</time></trkpt><trkpt lat="42.514667" lon="18.694339"><ele>5.0</ele><time>2026-05-04T09:34:18.665Z</time></trkpt><trkpt lat="42.5147629" lon="18.6942721"><ele>5.0</ele><time>2026-05-04T09:34:19.662Z</time></trkpt><trkpt lat="42.5148523" lon="18.6942051"><ele>4.6</ele><time>2026-05-04T09:34:20.662Z</time></trkpt><trkpt lat="42.5149453" lon="18.6941361"><ele>4.2</ele><time>2026-05-04T09:34:21.667Z</time></trkpt><trkpt lat="42.515028" lon="18.6940673"><ele>3.8</ele><time>2026-05-04T09:34:22.667Z</time></trkpt><trkpt lat="42.5151198" lon="18.6939997"><ele>3.4</ele><time>2026-05-04T09:34:23.668Z</time></trkpt><trkpt lat="42.5152133" lon="18.6939321"><ele>3.0</ele><time>2026-05-04T09:34:24.662Z</time></trkpt><trkpt lat="42.5153006" lon="18.6938564"><ele>3.0</ele><time>2026-05-04T09:34:25.664Z</time></trkpt><trkpt lat="42.5153881" lon="18.6937805"><ele>3.0</ele><time>2026-05-04T09:34:26.663Z</time></trkpt><trkpt lat="42.5154735" lon="18.6937042"><ele>3.0</ele><time>2026-05-04T09:34:27.662Z</time></trkpt><trkpt lat="42.5155597" lon="18.6936235"><ele>3.0</ele><time>2026-05-04T09:34:28.661Z</time></trkpt><trkpt lat="42.5156441" lon="18.69354"><ele>3.0</ele><time>2026-05-04T09:34:29.662Z</time></trkpt><trkpt lat="42.5157283" lon="18.6934568"><ele>2.4</ele><time>2026-05-04T09:34:30.664Z</time></trkpt><trkpt lat="42.5158065" lon="18.6933606"><ele>1.7999999999999998</ele><time>2026-05-04T09:34:31.665Z</time></trkpt><trkpt lat="42.5158889" lon="18.6932694"><ele>1.2</ele><time>2026-05-04T09:34:32.662Z</time></trkpt><trkpt lat="42.5159688" lon="18.693175"><ele>0.6</ele><time>2026-05-04T09:34:33.665Z</time></trkpt><trkpt lat="42.5160496" lon="18.6930752"><ele>0.0</ele><time>2026-05-04T09:34:34.665Z</time></trkpt><trkpt lat="42.5161222" lon="18.6929575"><ele>0.0</ele><time>2026-05-04T09:34:35.661Z</time></trkpt><trkpt lat="42.5161944" lon="18.6928583"><ele>0.0</ele><time>2026-05-04T09:34:36.663Z</time></trkpt><trkpt lat="42.5162593" lon="18.6927575"><ele>0.0</ele><time>2026-05-04T09:34:37.666Z</time></trkpt><trkpt lat="42.5163211" lon="18.6926612"><ele>0.0</ele><time>2026-05-04T09:34:38.664Z</time></trkpt><trkpt lat="42.5163835" lon="18.6925649"><ele>0.0</ele><time>2026-05-04T09:34:39.662Z</time></trkpt><trkpt lat="42.5164489" lon="18.6924601"><ele>0.75</ele><time>2026-05-04T09:34:40.666Z</time></trkpt><trkpt lat="42.5165199" lon="18.692334"><ele>1.5</ele><time>2026-05-04T09:34:41.668Z</time></trkpt><trkpt lat="42.5165886" lon="18.6922058"><ele>2.25</ele><time>2026-05-04T09:34:42.663Z</time></trkpt><trkpt lat="42.5166502" lon="18.6920662"><ele>3.0</ele><time>2026-05-04T09:34:43.66Z</time></trkpt><trkpt lat="42.5167145" lon="18.6919259"><ele>3.25</ele><time>2026-05-04T09:34:44.663Z</time></trkpt><trkpt lat="42.5167732" lon="18.6917818"><ele>3.5</ele><time>2026-05-04T09:34:45.662Z</time></trkpt><trkpt lat="42.5168257" lon="18.6916428"><ele>3.75</ele><time>2026-05-04T09:34:46.665Z</time></trkpt><trkpt lat="42.5168784" lon="18.6915049"><ele>4.0</ele><time>2026-05-04T09:34:47.663Z</time></trkpt><trkpt lat="42.5169256" lon="18.6913603"><ele>4.0</ele><time>2026-05-04T09:34:48.664Z</time></trkpt><trkpt lat="42.5169684" lon="18.6912188"><ele>4.0</ele><time>2026-05-04T09:34:49.668Z</time></trkpt><trkpt lat="42.5170121" lon="18.6910765"><ele>4.0</ele><time>2026-05-04T09:34:50.664Z</time></trkpt><trkpt lat="42.5170533" lon="18.6909288"><ele>4.0</ele><time>2026-05-04T09:34:51.662Z</time></trkpt><trkpt lat="42.517092" lon="18.6907832"><ele>5.5</ele><time>2026-05-04T09:34:52.661Z</time></trkpt><trkpt lat="42.5171288" lon="18.6906346"><ele>7.0</ele><time>2026-05-04T09:34:53.663Z</time></trkpt><trkpt lat="42.5171642" lon="18.6904881"><ele>8.5</ele><time>2026-05-04T09:34:54.662Z</time></trkpt><trkpt lat="42.5171945" lon="18.6903426"><ele>10.0</ele><time>2026-05-04T09:34:55.668Z</time></trkpt><trkpt lat="42.5172218" lon="18.6901887"><ele>10.6</ele><time>2026-05-04T09:34:56.664Z</time></trkpt><trkpt lat="42.5172374" lon="18.6900392"><ele>11.2</ele><time>2026-05-04T09:34:57.661Z</time></trkpt><trkpt lat="42.5172552" lon="18.6898892"><ele>11.8</ele><time>2026-05-04T09:34:58.666Z</time></trkpt><trkpt lat="42.5172671" lon="18.6897514"><ele>12.4</ele><time>2026-05-04T09:34:59.66Z</time></trkpt><trkpt lat="42.5172767" lon="18.6896085"><ele>13.0</ele><time>2026-05-04T09:35:00.659Z</time></trkpt><trkpt lat="42.5172853" lon="18.6894587"><ele>14.2</ele><time>2026-05-04T09:35:01.663Z</time></trkpt><trkpt lat="42.5172939" lon="18.6893115"><ele>15.4</ele><time>2026-05-04T09:35:02.661Z</time></trkpt><trkpt lat="42.5173031" lon="18.6891632"><ele>16.599999999999998</ele><time>2026-05-04T09:35:03.667Z</time></trkpt><trkpt lat="42.517307" lon="18.6890125"><ele>17.8</ele><time>2026-05-04T09:35:04.665Z</time></trkpt><trkpt lat="42.5172906" lon="18.6888552"><ele>19.0</ele><time>2026-05-04T09:35:05.664Z</time></trkpt><trkpt lat="42.5172906" lon="18.6887059"><ele>21.0</ele><time>2026-05-04T09:35:06.666Z</time></trkpt><trkpt lat="42.517288" lon="18.6885518"><ele>23.0</ele><time>2026-05-04T09:35:07.66Z</time></trkpt><trkpt lat="42.5172831" lon="18.6883927"><ele>25.0</ele><time>2026-05-04T09:35:08.661Z</time></trkpt><trkpt lat="42.5172741" lon="18.6882141"><ele>27.0</ele><time>2026-05-04T09:35:09.664Z</time></trkpt><trkpt lat="42.5172667" lon="18.6880559"><ele>27.0</ele><time>2026-05-04T09:35:10.665Z</time></trkpt><trkpt lat="42.5172539" lon="18.6879013"><ele>27.0</ele><time>2026-05-04T09:35:11.662Z</time></trkpt><trkpt lat="42.5172374" lon="18.6877456"><ele>27.0</ele><time>2026-05-04T09:35:12.662Z</time></trkpt><trkpt lat="42.5172114" lon="18.6875925"><ele>27.0</ele><time>2026-05-04T09:35:13.666Z</time></trkpt><trkpt lat="42.5171767" lon="18.6874361"><ele>28.0</ele><time>2026-05-04T09:35:14.662Z</time></trkpt><trkpt lat="42.5171344" lon="18.6872878"><ele>29.0</ele><time>2026-05-04T09:35:15.666Z</time></trkpt><trkpt lat="42.5170723" lon="18.6871572"><ele>30.0</ele><time>2026-05-04T09:35:16.661Z</time></trkpt><trkpt lat="42.5170005" lon="18.6870282"><ele>31.0</ele><time>2026-05-04T09:35:17.664Z</time></trkpt><trkpt lat="42.5169128" lon="18.6869114"><ele>27.25</ele><time>2026-05-04T09:35:18.664Z</time></trkpt><trkpt lat="42.5168233" lon="18.6867997"><ele>23.5</ele><time>2026-05-04T09:35:19.663Z</time></trkpt><trkpt lat="42.5167147" lon="18.6866834"><ele>19.75</ele><time>2026-05-04T09:35:20.662Z</time></trkpt><trkpt lat="42.5166071" lon="18.6865727"><ele>16.0</ele><time>2026-05-04T09:35:21.663Z</time></trkpt><trkpt lat="42.5165076" lon="18.6864701"><ele>16.0</ele><time>2026-05-04T09:35:22.658Z</time></trkpt><trkpt lat="42.5164219" lon="18.6863522"><ele>16.0</ele><time>2026-05-04T09:35:23.664Z</time></trkpt><trkpt lat="42.5163392" lon="18.6862398"><ele>16.0</ele><time>2026-05-04T09:35:24.662Z</time></trkpt><trkpt lat="42.516258" lon="18.6860964"><ele>16.0</ele><time>2026-05-04T09:35:25.665Z</time></trkpt><trkpt lat="42.5162" lon="18.6859357"><ele>12.0</ele><time>2026-05-04T09:35:26.664Z</time></trkpt><trkpt lat="42.5161609" lon="18.6857703"><ele>8.0</ele><time>2026-05-04T09:35:27.662Z</time></trkpt><trkpt lat="42.51614" lon="18.6855996"><ele>4.0</ele><time>2026-05-04T09:35:28.662Z</time></trkpt><trkpt lat="42.5161355" lon="18.6854331"><ele>0.0</ele><time>2026-05-04T09:35:29.665Z</time></trkpt><trkpt lat="42.5161404" lon="18.6852651"><ele>1.6</ele><time>2026-05-04T09:35:30.66Z</time></trkpt><trkpt lat="42.5161459" lon="18.6851154"><ele>3.2</ele><time>2026-05-04T09:35:31.66Z</time></trkpt><trkpt lat="42.516149" lon="18.6849605"><ele>4.800000000000001</ele><time>2026-05-04T09:35:32.659Z</time></trkpt><trkpt lat="42.51615" lon="18.6848156"><ele>6.4</ele><time>2026-05-04T09:35:33.66Z</time></trkpt><trkpt lat="42.5161427" lon="18.6846818"><ele>8.0</ele><time>2026-05-04T09:35:34.661Z</time></trkpt><trkpt lat="42.5161191" lon="18.6845528"><ele>8.0</ele><time>2026-05-04T09:35:35.66Z</time></trkpt><trkpt lat="42.5160875" lon="18.684434"><ele>8.0</ele><time>2026-05-04T09:35:36.661Z</time></trkpt><trkpt lat="42.5160373" lon="18.6843294"><ele>8.0</ele><time>2026-05-04T09:35:37.66Z</time></trkpt><trkpt lat="42.5159762" lon="18.6842344"><ele>8.0</ele><time>2026-05-04T09:35:38.66Z</time></trkpt><trkpt lat="42.5159134" lon="18.6841401"><ele>8.0</ele><time>2026-05-04T09:35:39.66Z</time></trkpt><trkpt lat="42.5158516" lon="18.6840463"><ele>9.600000000000001</ele><time>2026-05-04T09:35:40.659Z</time></trkpt><trkpt lat="42.5157969" lon="18.6839487"><ele>11.200000000000001</ele><time>2026-05-04T09:35:41.661Z</time></trkpt><trkpt lat="42.5157426" lon="18.6838383"><ele>12.8</ele><time>2026-05-04T09:35:42.66Z</time></trkpt><trkpt lat="42.5156861" lon="18.6837299"><ele>14.4</ele><time>2026-05-04T09:35:43.663Z</time></trkpt><trkpt lat="42.5156334" lon="18.6836113"><ele>16.0</ele><time>2026-05-04T09:35:44.662Z</time></trkpt><trkpt lat="42.5155902" lon="18.6834857"><ele>15.0</ele><time>2026-05-04T09:35:45.661Z</time></trkpt><trkpt lat="42.5155481" lon="18.6833581"><ele>14.000000000000002</ele><time>2026-05-04T09:35:46.662Z</time></trkpt><trkpt lat="42.5155077" lon="18.6832363"><ele>13.0</ele><time>2026-05-04T09:35:47.66Z</time></trkpt><trkpt lat="42.5154625" lon="18.6831196"><ele>12.0</ele><time>2026-05-04T09:35:48.66Z</time></trkpt><trkpt lat="42.5154098" lon="18.6830175"><ele>11.0</ele><time>2026-05-04T09:35:49.665Z</time></trkpt><trkpt lat="42.5153383" lon="18.6829266"><ele>11.0</ele><time>2026-05-04T09:35:50.662Z</time></trkpt><trkpt lat="42.5152548" lon="18.6828557"><ele>11.0</ele><time>2026-05-04T09:35:51.661Z</time></trkpt><trkpt lat="42.5151649" lon="18.6828115"><ele>11.0</ele><time>2026-05-04T09:35:52.662Z</time></trkpt><trkpt lat="42.5150729" lon="18.6827882"><ele>11.0</ele><time>2026-05-04T09:35:53.661Z</time></trkpt><trkpt lat="42.5149758" lon="18.6827844"><ele>11.0</ele><time>2026-05-04T09:35:54.662Z</time></trkpt><trkpt lat="42.5148795" lon="18.6827932"><ele>11.0</ele><time>2026-05-04T09:35:55.661Z</time></trkpt><trkpt lat="42.5147846" lon="18.6827914"><ele>11.0</ele><time>2026-05-04T09:35:56.662Z</time></trkpt><trkpt lat="42.5146917" lon="18.68277"><ele>11.0</ele><time>2026-05-04T09:35:57.659Z</time></trkpt><trkpt lat="42.5145993" lon="18.6827324"><ele>11.0</ele><time>2026-05-04T09:35:58.661Z</time></trkpt><trkpt lat="42.5145073" lon="18.6826721"><ele>11.0</ele><time>2026-05-04T09:35:59.661Z</time></trkpt><trkpt lat="42.5144108" lon="18.6826019"><ele>15.25</ele><time>2026-05-04T09:36:00.661Z</time></trkpt><trkpt lat="42.5143218" lon="18.6825201"><ele>19.5</ele><time>2026-05-04T09:36:01.665Z</time></trkpt><trkpt lat="42.514231" lon="18.6824137"><ele>23.75</ele><time>2026-05-04T09:36:02.661Z</time></trkpt><trkpt lat="42.5141397" lon="18.6822982"><ele>28.0</ele><time>2026-05-04T09:36:03.662Z</time></trkpt><trkpt lat="42.5140582" lon="18.6821856"><ele>28.0</ele><time>2026-05-04T09:36:04.663Z</time></trkpt><trkpt lat="42.5139744" lon="18.6820631"><ele>28.0</ele><time>2026-05-04T09:36:05.664Z</time></trkpt><trkpt lat="42.5138911" lon="18.6819424"><ele>28.0</ele><time>2026-05-04T09:36:06.662Z</time></trkpt><trkpt lat="42.5138211" lon="18.6818335"><ele>28.0</ele><time>2026-05-04T09:36:07.662Z</time></trkpt><trkpt lat="42.5137503" lon="18.6817382"><ele>28.2</ele><time>2026-05-04T09:36:08.659Z</time></trkpt><trkpt lat="42.5136699" lon="18.6816501"><ele>28.4</ele><time>2026-05-04T09:36:09.662Z</time></trkpt><trkpt lat="42.5135784" lon="18.6815743"><ele>28.599999999999998</ele><time>2026-05-04T09:36:10.668Z</time></trkpt><trkpt lat="42.5134778" lon="18.6814999"><ele>28.799999999999997</ele><time>2026-05-04T09:36:11.664Z</time></trkpt><trkpt lat="42.5133838" lon="18.6814319"><ele>29.0</ele><time>2026-05-04T09:36:12.66Z</time></trkpt><trkpt lat="42.5132888" lon="18.6813698"><ele>29.0</ele><time>2026-05-04T09:36:13.664Z</time></trkpt><trkpt lat="42.5131957" lon="18.6813172"><ele>29.0</ele><time>2026-05-04T09:36:14.661Z</time></trkpt><trkpt lat="42.5131001" lon="18.6812869"><ele>29.0</ele><time>2026-05-04T09:36:15.663Z</time></trkpt><trkpt lat="42.5130102" lon="18.6812872"><ele>29.0</ele><time>2026-05-04T09:36:16.663Z</time></trkpt><trkpt lat="42.5129246" lon="18.6813021"><ele>29.0</ele><time>2026-05-04T09:36:17.663Z</time></trkpt><trkpt lat="42.512846" lon="18.6813211"><ele>27.6</ele><time>2026-05-04T09:36:18.666Z</time></trkpt><trkpt lat="42.5127553" lon="18.6813607"><ele>26.2</ele><time>2026-05-04T09:36:19.663Z</time></trkpt><trkpt lat="42.5126576" lon="18.6814094"><ele>24.8</ele><time>2026-05-04T09:36:20.662Z</time></trkpt><trkpt lat="42.5125622" lon="18.6814354"><ele>23.400000000000002</ele><time>2026-05-04T09:36:21.664Z</time></trkpt><trkpt lat="42.5124349" lon="18.6814575"><ele>22.0</ele><time>2026-05-04T09:36:22.662Z</time></trkpt><trkpt lat="42.5123303" lon="18.6814486"><ele>22.0</ele><time>2026-05-04T09:36:23.664Z</time></trkpt><trkpt lat="42.5122231" lon="18.6814162"><ele>22.0</ele><time>2026-05-04T09:36:24.663Z</time></trkpt><trkpt lat="42.5121314" lon="18.6813565"><ele>22.0</ele><time>2026-05-04T09:36:25.66Z</time></trkpt><trkpt lat="42.5120434" lon="18.6812838"><ele>22.0</ele><time>2026-05-04T09:36:26.662Z</time></trkpt><trkpt lat="42.5119617" lon="18.6811724"><ele>22.0</ele><time>2026-05-04T09:36:27.663Z</time></trkpt><trkpt lat="42.5118929" lon="18.6810543"><ele>22.25</ele><time>2026-05-04T09:36:28.662Z</time></trkpt><trkpt lat="42.5118121" lon="18.6809333"><ele>22.5</ele><time>2026-05-04T09:36:29.663Z</time></trkpt><trkpt lat="42.5117353" lon="18.6808237"><ele>22.75</ele><time>2026-05-04T09:36:30.66Z</time></trkpt><trkpt lat="42.5116695" lon="18.6806978"><ele>23.0</ele><time>2026-05-04T09:36:31.661Z</time></trkpt><trkpt lat="42.5116082" lon="18.6805652"><ele>23.0</ele><time>2026-05-04T09:36:32.665Z</time></trkpt><trkpt lat="42.5115475" lon="18.6804317"><ele>23.0</ele><time>2026-05-04T09:36:33.663Z</time></trkpt><trkpt lat="42.5114978" lon="18.6802868"><ele>23.0</ele><time>2026-05-04T09:36:34.661Z</time></trkpt><trkpt lat="42.5114545" lon="18.6801472"><ele>23.0</ele><time>2026-05-04T09:36:35.662Z</time></trkpt><trkpt lat="42.5114164" lon="18.6800082"><ele>21.25</ele><time>2026-05-04T09:36:36.662Z</time></trkpt><trkpt lat="42.511366" lon="18.6798656"><ele>19.5</ele><time>2026-05-04T09:36:37.659Z</time></trkpt><trkpt lat="42.5113188" lon="18.6797008"><ele>17.75</ele><time>2026-05-04T09:36:38.662Z</time></trkpt><trkpt lat="42.5112858" lon="18.6795379"><ele>16.0</ele><time>2026-05-04T09:36:39.667Z</time></trkpt><trkpt lat="42.5112385" lon="18.6793854"><ele>16.0</ele><time>2026-05-04T09:36:40.66Z</time></trkpt><trkpt lat="42.51119" lon="18.6792371"><ele>16.0</ele><time>2026-05-04T09:36:41.663Z</time></trkpt><trkpt lat="42.5111296" lon="18.6791054"><ele>16.0</ele><time>2026-05-04T09:36:42.662Z</time></trkpt><trkpt lat="42.5110329" lon="18.6789931"><ele>16.0</ele><time>2026-05-04T09:36:43.667Z</time></trkpt><trkpt lat="42.5109225" lon="18.6789042"><ele>16.0</ele><time>2026-05-04T09:36:44.66Z</time></trkpt><trkpt lat="42.5108115" lon="18.6788205"><ele>16.0</ele><time>2026-05-04T09:36:45.661Z</time></trkpt><trkpt lat="42.5106849" lon="18.6787446"><ele>16.0</ele><time>2026-05-04T09:36:46.662Z</time></trkpt><trkpt lat="42.5105649" lon="18.6786802"><ele>16.0</ele><time>2026-05-04T09:36:47.66Z</time></trkpt><trkpt lat="42.5104491" lon="18.6786118"><ele>14.75</ele><time>2026-05-04T09:36:48.665Z</time></trkpt><trkpt lat="42.5103329" lon="18.6785773"><ele>13.5</ele><time>2026-05-04T09:36:49.664Z</time></trkpt><trkpt lat="42.5102033" lon="18.6786032"><ele>12.25</ele><time>2026-05-04T09:36:50.66Z</time></trkpt><trkpt lat="42.5100877" lon="18.6786209"><ele>11.0</ele><time>2026-05-04T09:36:51.665Z</time></trkpt><trkpt lat="42.5099761" lon="18.6786458"><ele>11.0</ele><time>2026-05-04T09:36:52.664Z</time></trkpt><trkpt lat="42.5098628" lon="18.6786787"><ele>11.0</ele><time>2026-05-04T09:36:53.663Z</time></trkpt><trkpt lat="42.5097517" lon="18.6786956"><ele>11.0</ele><time>2026-05-04T09:36:54.661Z</time></trkpt><trkpt lat="42.5096265" lon="18.6787227"><ele>11.0</ele><time>2026-05-04T09:36:55.66Z</time></trkpt><trkpt lat="42.5095121" lon="18.6787442"><ele>8.75</ele><time>2026-05-04T09:36:56.668Z</time></trkpt><trkpt lat="42.5093893" lon="18.6787235"><ele>6.5</ele><time>2026-05-04T09:36:57.664Z</time></trkpt><trkpt lat="42.509278" lon="18.6786825"><ele>4.25</ele><time>2026-05-04T09:36:58.666Z</time></trkpt><trkpt lat="42.5091674" lon="18.6786205"><ele>2.0</ele><time>2026-05-04T09:36:59.665Z</time></trkpt><trkpt lat="42.5090862" lon="18.6785514"><ele>2.25</ele><time>2026-05-04T09:37:00.661Z</time></trkpt><trkpt lat="42.5089712" lon="18.6784525"><ele>2.5</ele><time>2026-05-04T09:37:01.661Z</time></trkpt><trkpt lat="42.5088611" lon="18.6783564"><ele>2.75</ele><time>2026-05-04T09:37:02.659Z</time></trkpt><trkpt lat="42.5087559" lon="18.6782483"><ele>3.0</ele><time>2026-05-04T09:37:03.661Z</time></trkpt><trkpt lat="42.5086626" lon="18.6781343"><ele>3.0</ele><time>2026-05-04T09:37:04.658Z</time></trkpt><trkpt lat="42.5085646" lon="18.6780321"><ele>3.0</ele><time>2026-05-04T09:37:05.66Z</time></trkpt><trkpt lat="42.5084732" lon="18.6779107"><ele>3.0</ele><time>2026-05-04T09:37:06.661Z</time></trkpt><trkpt lat="42.50838" lon="18.6777984"><ele>3.0</ele><time>2026-05-04T09:37:07.659Z</time></trkpt><trkpt lat="42.5082937" lon="18.6776759"><ele>7.0</ele><time>2026-05-04T09:37:08.66Z</time></trkpt><trkpt lat="42.5082014" lon="18.6775546"><ele>11.0</ele><time>2026-05-04T09:37:09.665Z</time></trkpt><trkpt lat="42.5081165" lon="18.6774441"><ele>15.0</ele><time>2026-05-04T09:37:10.66Z</time></trkpt><trkpt lat="42.5080357" lon="18.6773359"><ele>19.0</ele><time>2026-05-04T09:37:11.66Z</time></trkpt><trkpt lat="42.5079504" lon="18.6772394"><ele>15.25</ele><time>2026-05-04T09:37:12.662Z</time></trkpt><trkpt lat="42.5078442" lon="18.677165"><ele>11.5</ele><time>2026-05-04T09:37:13.659Z</time></trkpt><trkpt lat="42.5077393" lon="18.6771039"><ele>7.75</ele><time>2026-05-04T09:37:14.663Z</time></trkpt><trkpt lat="42.50763" lon="18.677053"><ele>4.0</ele><time>2026-05-04T09:37:15.659Z</time></trkpt><trkpt lat="42.5075221" lon="18.6770101"><ele>4.0</ele><time>2026-05-04T09:37:16.659Z</time></trkpt><trkpt lat="42.5074143" lon="18.6769611"><ele>4.0</ele><time>2026-05-04T09:37:17.659Z</time></trkpt><trkpt lat="42.5073004" lon="18.676915"><ele>4.0</ele><time>2026-05-04T09:37:18.659Z</time></trkpt><trkpt lat="42.5071817" lon="18.6768761"><ele>4.0</ele><time>2026-05-04T09:37:19.659Z</time></trkpt><trkpt lat="42.5070641" lon="18.6768438"><ele>8.0</ele><time>2026-05-04T09:37:20.66Z</time></trkpt><trkpt lat="42.5069422" lon="18.676822"><ele>12.0</ele><time>2026-05-04T09:37:21.663Z</time></trkpt><trkpt lat="42.5068213" lon="18.6768067"><ele>16.0</ele><time>2026-05-04T09:37:22.66Z</time></trkpt><trkpt lat="42.506698" lon="18.676809"><ele>20.0</ele><time>2026-05-04T09:37:23.661Z</time></trkpt><trkpt lat="42.5065752" lon="18.6768074"><ele>20.0</ele><time>2026-05-04T09:37:24.663Z</time></trkpt><trkpt lat="42.5064518" lon="18.6768089"><ele>20.0</ele><time>2026-05-04T09:37:25.662Z</time></trkpt><trkpt lat="42.5063325" lon="18.6768158"><ele>20.0</ele><time>2026-05-04T09:37:26.663Z</time></trkpt><trkpt lat="42.5062099" lon="18.676819"><ele>20.0</ele><time>2026-05-04T09:37:27.664Z</time></trkpt><trkpt lat="42.5060931" lon="18.6768068"><ele>18.5</ele><time>2026-05-04T09:37:28.662Z</time></trkpt><trkpt lat="42.5059762" lon="18.6767723"><ele>17.0</ele><time>2026-05-04T09:37:29.661Z</time></trkpt><trkpt lat="42.5058605" lon="18.6767228"><ele>15.5</ele><time>2026-05-04T09:37:30.662Z</time></trkpt><trkpt lat="42.5057459" lon="18.6766606"><ele>14.0</ele><time>2026-05-04T09:37:31.661Z</time></trkpt><trkpt lat="42.5056393" lon="18.6765825"><ele>14.0</ele><time>2026-05-04T09:37:32.661Z</time></trkpt><trkpt lat="42.5055333" lon="18.6764927"><ele>14.0</ele><time>2026-05-04T09:37:33.662Z</time></trkpt><trkpt lat="42.505425" lon="18.6763917"><ele>14.0</ele><time>2026-05-04T09:37:34.663Z</time></trkpt><trkpt lat="42.5053305" lon="18.6762677"><ele>14.0</ele><time>2026-05-04T09:37:35.659Z</time></trkpt><trkpt lat="42.5052459" lon="18.6761317"><ele>12.0</ele><time>2026-05-04T09:37:36.661Z</time></trkpt><trkpt lat="42.5051592" lon="18.675974"><ele>10.0</ele><time>2026-05-04T09:37:37.66Z</time></trkpt><trkpt lat="42.5050793" lon="18.6758137"><ele>8.0</ele><time>2026-05-04T09:37:38.663Z</time></trkpt><trkpt lat="42.5050097" lon="18.6756479"><ele>6.0</ele><time>2026-05-04T09:37:39.661Z</time></trkpt><trkpt lat="42.5049472" lon="18.6754821"><ele>6.0</ele><time>2026-05-04T09:37:40.661Z</time></trkpt><trkpt lat="42.5048917" lon="18.6753108"><ele>6.0</ele><time>2026-05-04T09:37:41.66Z</time></trkpt><trkpt lat="42.5048425" lon="18.675139"><ele>6.0</ele><time>2026-05-04T09:37:42.663Z</time></trkpt><trkpt lat="42.5048122" lon="18.6749611"><ele>6.0</ele><time>2026-05-04T09:37:43.664Z</time></trkpt><trkpt lat="42.5047955" lon="18.6747877"><ele>8.0</ele><time>2026-05-04T09:37:44.659Z</time></trkpt><trkpt lat="42.5047956" lon="18.6746136"><ele>10.0</ele><time>2026-05-04T09:37:45.662Z</time></trkpt><trkpt lat="42.504806" lon="18.674443"><ele>12.0</ele><time>2026-05-04T09:37:46.662Z</time></trkpt><trkpt lat="42.5048283" lon="18.6742764"><ele>14.0</ele><time>2026-05-04T09:37:47.659Z</time></trkpt><trkpt lat="42.504862" lon="18.6741097"><ele>14.25</ele><time>2026-05-04T09:37:48.66Z</time></trkpt><trkpt lat="42.5049044" lon="18.6739439"><ele>14.5</ele><time>2026-05-04T09:37:49.664Z</time></trkpt><trkpt lat="42.504956" lon="18.6737794"><ele>14.75</ele><time>2026-05-04T09:37:50.662Z</time></trkpt><trkpt lat="42.5050072" lon="18.6736224"><ele>15.0</ele><time>2026-05-04T09:37:51.663Z</time></trkpt><trkpt lat="42.5050615" lon="18.6734719"><ele>13.0</ele><time>2026-05-04T09:37:52.664Z</time></trkpt><trkpt lat="42.5051192" lon="18.6733193"><ele>11.0</ele><time>2026-05-04T09:37:53.662Z</time></trkpt><trkpt lat="42.5051782" lon="18.6731667"><ele>9.0</ele><time>2026-05-04T09:37:54.663Z</time></trkpt><trkpt lat="42.5052342" lon="18.6730157"><ele>7.0</ele><time>2026-05-04T09:37:55.662Z</time></trkpt><trkpt lat="42.5052855" lon="18.6728562"><ele>7.5</ele><time>2026-05-04T09:37:56.66Z</time></trkpt><trkpt lat="42.5053231" lon="18.6726779"><ele>8.0</ele><time>2026-05-04T09:37:57.665Z</time></trkpt><trkpt lat="42.5053407" lon="18.6725253"><ele>8.5</ele><time>2026-05-04T09:37:58.662Z</time></trkpt><trkpt lat="42.5053408" lon="18.6723717"><ele>9.0</ele><time>2026-05-04T09:37:59.662Z</time></trkpt><trkpt lat="42.5053122" lon="18.6722251"><ele>9.0</ele><time>2026-05-04T09:38:00.66Z</time></trkpt><trkpt lat="42.5052661" lon="18.6720809"><ele>9.0</ele><time>2026-05-04T09:38:01.662Z</time></trkpt><trkpt lat="42.5051958" lon="18.6719385"><ele>9.0</ele><time>2026-05-04T09:38:02.66Z</time></trkpt><trkpt lat="42.5051306" lon="18.6718112"><ele>9.0</ele><time>2026-05-04T09:38:03.662Z</time></trkpt><trkpt lat="42.5050689" lon="18.6716878"><ele>8.0</ele><time>2026-05-04T09:38:04.664Z</time></trkpt><trkpt lat="42.5049953" lon="18.6715679"><ele>7.0</ele><time>2026-05-04T09:38:05.664Z</time></trkpt><trkpt lat="42.5049229" lon="18.6714387"><ele>6.0</ele><time>2026-05-04T09:38:06.663Z</time></trkpt><trkpt lat="42.5048644" lon="18.6713045"><ele>5.0</ele><time>2026-05-04T09:38:07.663Z</time></trkpt><trkpt lat="42.5048073" lon="18.6711697"><ele>5.75</ele><time>2026-05-04T09:38:08.662Z</time></trkpt><trkpt lat="42.5047588" lon="18.6710327"><ele>6.5</ele><time>2026-05-04T09:38:09.661Z</time></trkpt><trkpt lat="42.504721" lon="18.670881"><ele>7.25</ele><time>2026-05-04T09:38:10.661Z</time></trkpt><trkpt lat="42.5047048" lon="18.6707307"><ele>8.0</ele><time>2026-05-04T09:38:11.656Z</time></trkpt><trkpt lat="42.5046933" lon="18.6705747"><ele>8.0</ele><time>2026-05-04T09:38:12.664Z</time></trkpt><trkpt lat="42.504678" lon="18.6704167"><ele>8.0</ele><time>2026-05-04T09:38:13.662Z</time></trkpt><trkpt lat="42.5046679" lon="18.670256"><ele>8.0</ele><time>2026-05-04T09:38:14.661Z</time></trkpt><trkpt lat="42.5046525" lon="18.6700923"><ele>8.0</ele><time>2026-05-04T09:38:15.661Z</time></trkpt><trkpt lat="42.5046377" lon="18.6699357"><ele>8.4</ele><time>2026-05-04T09:38:16.661Z</time></trkpt><trkpt lat="42.5046162" lon="18.6697768"><ele>8.8</ele><time>2026-05-04T09:38:17.658Z</time></trkpt><trkpt lat="42.5045985" lon="18.6696316"><ele>9.2</ele><time>2026-05-04T09:38:18.662Z</time></trkpt><trkpt lat="42.5045897" lon="18.6694815"><ele>9.6</ele><time>2026-05-04T09:38:19.657Z</time></trkpt><trkpt lat="42.5045869" lon="18.6693367"><ele>10.0</ele><time>2026-05-04T09:38:20.658Z</time></trkpt><trkpt lat="42.5045956" lon="18.6691982"><ele>10.8</ele><time>2026-05-04T09:38:21.658Z</time></trkpt><trkpt lat="42.5046129" lon="18.6690507"><ele>11.6</ele><time>2026-05-04T09:38:22.66Z</time></trkpt><trkpt lat="42.5046354" lon="18.668904"><ele>12.399999999999999</ele><time>2026-05-04T09:38:23.658Z</time></trkpt><trkpt lat="42.504661" lon="18.6687545"><ele>13.2</ele><time>2026-05-04T09:38:24.663Z</time></trkpt><trkpt lat="42.5046887" lon="18.6686091"><ele>14.0</ele><time>2026-05-04T09:38:25.66Z</time></trkpt><trkpt lat="42.5047244" lon="18.6684664"><ele>15.2</ele><time>2026-05-04T09:38:26.664Z</time></trkpt><trkpt lat="42.5047361" lon="18.6683298"><ele>16.4</ele><time>2026-05-04T09:38:27.659Z</time></trkpt><trkpt lat="42.5047441" lon="18.6681805"><ele>17.6</ele><time>2026-05-04T09:38:28.66Z</time></trkpt><trkpt lat="42.5047276" lon="18.6680428"><ele>18.8</ele><time>2026-05-04T09:38:29.666Z</time></trkpt><trkpt lat="42.5046988" lon="18.6679124"><ele>20.0</ele><time>2026-05-04T09:38:30.663Z</time></trkpt><trkpt lat="42.5046502" lon="18.6677952"><ele>17.4</ele><time>2026-05-04T09:38:31.663Z</time></trkpt><trkpt lat="42.5045791" lon="18.6677094"><ele>14.8</ele><time>2026-05-04T09:38:32.663Z</time></trkpt><trkpt lat="42.5044951" lon="18.6676374"><ele>12.2</ele><time>2026-05-04T09:38:33.658Z</time></trkpt><trkpt lat="42.5043938" lon="18.6675795"><ele>9.6</ele><time>2026-05-04T09:38:34.662Z</time></trkpt><trkpt lat="42.5042946" lon="18.6675379"><ele>7.0</ele><time>2026-05-04T09:38:35.662Z</time></trkpt><trkpt lat="42.5041909" lon="18.6674982"><ele>7.0</ele><time>2026-05-04T09:38:36.66Z</time></trkpt><trkpt lat="42.5040956" lon="18.6674551"><ele>6.999999999999999</ele><time>2026-05-04T09:38:37.668Z</time></trkpt><trkpt lat="42.5040039" lon="18.6673918"><ele>6.999999999999999</ele><time>2026-05-04T09:38:38.661Z</time></trkpt><trkpt lat="42.5039064" lon="18.6673377"><ele>7.0</ele><time>2026-05-04T09:38:39.662Z</time></trkpt><trkpt lat="42.5038097" lon="18.667282"><ele>7.0</ele><time>2026-05-04T09:38:40.66Z</time></trkpt><trkpt lat="42.5037143" lon="18.6672019"><ele>7.5</ele><time>2026-05-04T09:38:41.662Z</time></trkpt><trkpt lat="42.5036236" lon="18.6671132"><ele>8.0</ele><time>2026-05-04T09:38:42.662Z</time></trkpt><trkpt lat="42.5035325" lon="18.6670203"><ele>8.5</ele><time>2026-05-04T09:38:43.661Z</time></trkpt><trkpt lat="42.5034483" lon="18.6669143"><ele>9.0</ele><time>2026-05-04T09:38:44.66Z</time></trkpt><trkpt lat="42.5033755" lon="18.6667955"><ele>9.0</ele><time>2026-05-04T09:38:45.662Z</time></trkpt><trkpt lat="42.5033025" lon="18.6666761"><ele>9.0</ele><time>2026-05-04T09:38:46.661Z</time></trkpt><trkpt lat="42.5032392" lon="18.6665475"><ele>9.0</ele><time>2026-05-04T09:38:47.661Z</time></trkpt><trkpt lat="42.5031754" lon="18.6664123"><ele>9.0</ele><time>2026-05-04T09:38:48.662Z</time></trkpt><trkpt lat="42.5031175" lon="18.6662454"><ele>6.75</ele><time>2026-05-04T09:38:49.662Z</time></trkpt><trkpt lat="42.5030647" lon="18.6660878"><ele>4.5</ele><time>2026-05-04T09:38:50.661Z</time></trkpt><trkpt lat="42.5030142" lon="18.6659356"><ele>2.25</ele><time>2026-05-04T09:38:51.661Z</time></trkpt><trkpt lat="42.5029611" lon="18.6657781"><ele>0.0</ele><time>2026-05-04T09:38:52.66Z</time></trkpt><trkpt lat="42.5028999" lon="18.6656297"><ele>0.0</ele><time>2026-05-04T09:38:53.661Z</time></trkpt><trkpt lat="42.502828" lon="18.6654836"><ele>0.0</ele><time>2026-05-04T09:38:54.662Z</time></trkpt><trkpt lat="42.5027429" lon="18.6653525"><ele>0.0</ele><time>2026-05-04T09:38:55.662Z</time></trkpt><trkpt lat="42.5026658" lon="18.6652113"><ele>0.0</ele><time>2026-05-04T09:38:56.66Z</time></trkpt><trkpt lat="42.5025823" lon="18.6650845"><ele>1.75</ele><time>2026-05-04T09:38:57.661Z</time></trkpt><trkpt lat="42.5025012" lon="18.6649622"><ele>3.5</ele><time>2026-05-04T09:38:58.666Z</time></trkpt><trkpt lat="42.5024092" lon="18.6648244"><ele>5.25</ele><time>2026-05-04T09:38:59.663Z</time></trkpt><trkpt lat="42.5023201" lon="18.6646939"><ele>7.0</ele><time>2026-05-04T09:39:00.657Z</time></trkpt><trkpt lat="42.5022084" lon="18.6645584"><ele>7.0</ele><time>2026-05-04T09:39:01.663Z</time></trkpt><trkpt lat="42.5020779" lon="18.6644141"><ele>7.0</ele><time>2026-05-04T09:39:02.66Z</time></trkpt><trkpt lat="42.5019271" lon="18.6642508"><ele>7.0</ele><time>2026-05-04T09:39:03.659Z</time></trkpt><trkpt lat="42.501776" lon="18.6640868"><ele>7.0</ele><time>2026-05-04T09:39:04.661Z</time></trkpt><trkpt lat="42.5016362" lon="18.6639461"><ele>7.0</ele><time>2026-05-04T09:39:05.663Z</time></trkpt><trkpt lat="42.5015008" lon="18.6638004"><ele>7.0</ele><time>2026-05-04T09:39:06.661Z</time></trkpt><trkpt lat="42.5013656" lon="18.663671"><ele>6.25</ele><time>2026-05-04T09:39:07.658Z</time></trkpt><trkpt lat="42.5012446" lon="18.6635602"><ele>5.5</ele><time>2026-05-04T09:39:08.661Z</time></trkpt><trkpt lat="42.5011306" lon="18.6634388"><ele>4.75</ele><time>2026-05-04T09:39:09.66Z</time></trkpt><trkpt lat="42.5010326" lon="18.6633206"><ele>4.0</ele><time>2026-05-04T09:39:10.66Z</time></trkpt><trkpt lat="42.500973" lon="18.6631888"><ele>4.0</ele><time>2026-05-04T09:39:11.658Z</time></trkpt><trkpt lat="42.5009314" lon="18.663069"><ele>4.0</ele><time>2026-05-04T09:39:12.662Z</time></trkpt><trkpt lat="42.5009114" lon="18.6629467"><ele>4.0</ele><time>2026-05-04T09:39:13.66Z</time></trkpt><trkpt lat="42.5008888" lon="18.6627851"><ele>4.0</ele><time>2026-05-04T09:39:14.661Z</time></trkpt><trkpt lat="42.5008746" lon="18.66262"><ele>4.0</ele><time>2026-05-04T09:39:15.66Z</time></trkpt><trkpt lat="42.5008673" lon="18.6624532"><ele>5.5</ele><time>2026-05-04T09:39:16.663Z</time></trkpt><trkpt lat="42.5008645" lon="18.6622879"><ele>7.0</ele><time>2026-05-04T09:39:17.661Z</time></trkpt><trkpt lat="42.50085" lon="18.6621398"><ele>8.5</ele><time>2026-05-04T09:39:18.663Z</time></trkpt><trkpt lat="42.500828" lon="18.6619817"><ele>10.0</ele><time>2026-05-04T09:39:19.66Z</time></trkpt><trkpt lat="42.5007903" lon="18.6618241"><ele>11.75</ele><time>2026-05-04T09:39:20.663Z</time></trkpt><trkpt lat="42.5007406" lon="18.6616737"><ele>13.5</ele><time>2026-05-04T09:39:21.664Z</time></trkpt><trkpt lat="42.5006764" lon="18.6615305"><ele>15.25</ele><time>2026-05-04T09:39:22.66Z</time></trkpt><trkpt lat="42.5006018" lon="18.6614028"><ele>17.0</ele><time>2026-05-04T09:39:23.661Z</time></trkpt><trkpt lat="42.5005144" lon="18.6612833"><ele>15.25</ele><time>2026-05-04T09:39:24.658Z</time></trkpt><trkpt lat="42.5004142" lon="18.6611848"><ele>13.5</ele><time>2026-05-04T09:39:25.661Z</time></trkpt><trkpt lat="42.5003171" lon="18.6610855"><ele>11.75</ele><time>2026-05-04T09:39:26.659Z</time></trkpt><trkpt lat="42.5002147" lon="18.6610091"><ele>10.0</ele><time>2026-05-04T09:39:27.659Z</time></trkpt><trkpt lat="42.5001031" lon="18.6609467"><ele>10.0</ele><time>2026-05-04T09:39:28.665Z</time></trkpt><trkpt lat="42.4999854" lon="18.6608888"><ele>10.0</ele><time>2026-05-04T09:39:29.662Z</time></trkpt><trkpt lat="42.4998709" lon="18.6608255"><ele>10.0</ele><time>2026-05-04T09:39:30.663Z</time></trkpt><trkpt lat="42.4997534" lon="18.6607773"><ele>10.0</ele><time>2026-05-04T09:39:31.66Z</time></trkpt><trkpt lat="42.4996473" lon="18.6607259"><ele>7.75</ele><time>2026-05-04T09:39:32.659Z</time></trkpt><trkpt lat="42.4995415" lon="18.6606622"><ele>5.5</ele><time>2026-05-04T09:39:33.662Z</time></trkpt><trkpt lat="42.4994423" lon="18.6605971"><ele>3.25</ele><time>2026-05-04T09:39:34.66Z</time></trkpt><trkpt lat="42.4993404" lon="18.6605236"><ele>1.0</ele><time>2026-05-04T09:39:35.661Z</time></trkpt><trkpt lat="42.4992397" lon="18.6604342"><ele>1.0</ele><time>2026-05-04T09:39:36.659Z</time></trkpt><trkpt lat="42.4991301" lon="18.6603269"><ele>1.0</ele><time>2026-05-04T09:39:37.657Z</time></trkpt><trkpt lat="42.4990394" lon="18.6602053"><ele>1.0</ele><time>2026-05-04T09:39:38.657Z</time></trkpt><trkpt lat="42.4989552" lon="18.6600717"><ele>1.0</ele><time>2026-05-04T09:39:39.662Z</time></trkpt><trkpt lat="42.4988705" lon="18.6599271"><ele>0.75</ele><time>2026-05-04T09:39:40.659Z</time></trkpt><trkpt lat="42.4987889" lon="18.6597829"><ele>0.5</ele><time>2026-05-04T09:39:41.661Z</time></trkpt><trkpt lat="42.4987093" lon="18.6596386"><ele>0.25</ele><time>2026-05-04T09:39:42.661Z</time></trkpt><trkpt lat="42.4986283" lon="18.6595004"><ele>0.0</ele><time>2026-05-04T09:39:43.661Z</time></trkpt><trkpt lat="42.498545" lon="18.65937"><ele>1.0</ele><time>2026-05-04T09:39:44.658Z</time></trkpt><trkpt lat="42.4984618" lon="18.6592449"><ele>2.0</ele><time>2026-05-04T09:39:45.658Z</time></trkpt><trkpt lat="42.4983741" lon="18.659136"><ele>3.0</ele><time>2026-05-04T09:39:46.661Z</time></trkpt><trkpt lat="42.4982911" lon="18.6590207"><ele>4.0</ele><time>2026-05-04T09:39:47.665Z</time></trkpt><trkpt lat="42.498209" lon="18.6589053"><ele>4.0</ele><time>2026-05-04T09:39:48.66Z</time></trkpt><trkpt lat="42.4981162" lon="18.6587991"><ele>4.0</ele><time>2026-05-04T09:39:49.662Z</time></trkpt><trkpt lat="42.4980292" lon="18.6586962"><ele>4.0</ele><time>2026-05-04T09:39:50.657Z</time></trkpt><trkpt lat="42.4979371" lon="18.6585895"><ele>4.0</ele><time>2026-05-04T09:39:51.66Z</time></trkpt><trkpt lat="42.4978571" lon="18.6584963"><ele>4.2</ele><time>2026-05-04T09:39:52.659Z</time></trkpt><trkpt lat="42.4977633" lon="18.6584314"><ele>4.4</ele><time>2026-05-04T09:39:53.662Z</time></trkpt><trkpt lat="42.4976619" lon="18.6583864"><ele>4.6</ele><time>2026-05-04T09:39:54.665Z</time></trkpt><trkpt lat="42.4975696" lon="18.658372"><ele>4.8</ele><time>2026-05-04T09:39:55.664Z</time></trkpt><trkpt lat="42.4974848" lon="18.6583319"><ele>5.0</ele><time>2026-05-04T09:39:56.661Z</time></trkpt><trkpt lat="42.4973717" lon="18.6582832"><ele>5.0</ele><time>2026-05-04T09:39:57.663Z</time></trkpt><trkpt lat="42.4972741" lon="18.6582156"><ele>5.0</ele><time>2026-05-04T09:39:58.662Z</time></trkpt><trkpt lat="42.4971835" lon="18.6581262"><ele>5.0</ele><time>2026-05-04T09:39:59.66Z</time></trkpt><trkpt lat="42.4970962" lon="18.6580375"><ele>5.0</ele><time>2026-05-04T09:40:00.66Z</time></trkpt><trkpt lat="42.4970259" lon="18.6579167"><ele>5.0</ele><time>2026-05-04T09:40:01.659Z</time></trkpt><trkpt lat="42.4969564" lon="18.6577799"><ele>4.5</ele><time>2026-05-04T09:40:02.659Z</time></trkpt><trkpt lat="42.4968966" lon="18.6576296"><ele>4.0</ele><time>2026-05-04T09:40:03.658Z</time></trkpt><trkpt lat="42.4968384" lon="18.6574823"><ele>3.5</ele><time>2026-05-04T09:40:04.66Z</time></trkpt><trkpt lat="42.4967873" lon="18.6573249"><ele>3.0</ele><time>2026-05-04T09:40:05.658Z</time></trkpt><trkpt lat="42.4967365" lon="18.6571777"><ele>3.0</ele><time>2026-05-04T09:40:06.663Z</time></trkpt><trkpt lat="42.4966835" lon="18.6570331"><ele>3.0</ele><time>2026-05-04T09:40:07.659Z</time></trkpt><trkpt lat="42.4966338" lon="18.6568849"><ele>3.0</ele><time>2026-05-04T09:40:08.662Z</time></trkpt><trkpt lat="42.4965815" lon="18.6567452"><ele>3.0</ele><time>2026-05-04T09:40:09.662Z</time></trkpt><trkpt lat="42.4965286" lon="18.6566035"><ele>2.4</ele><time>2026-05-04T09:40:10.66Z</time></trkpt><trkpt lat="42.496485" lon="18.6564696"><ele>1.7999999999999998</ele><time>2026-05-04T09:40:11.659Z</time></trkpt><trkpt lat="42.4964484" lon="18.6563264"><ele>1.2</ele><time>2026-05-04T09:40:12.66Z</time></trkpt><trkpt lat="42.4964206" lon="18.6561862"><ele>0.6</ele><time>2026-05-04T09:40:13.662Z</time></trkpt><trkpt lat="42.4964005" lon="18.6560488"><ele>0.0</ele><time>2026-05-04T09:40:14.664Z</time></trkpt><trkpt lat="42.4963829" lon="18.6559097"><ele>0.8</ele><time>2026-05-04T09:40:15.664Z</time></trkpt><trkpt lat="42.4963647" lon="18.6557789"><ele>1.6</ele><time>2026-05-04T09:40:16.662Z</time></trkpt><trkpt lat="42.496343" lon="18.6556449"><ele>2.4000000000000004</ele><time>2026-05-04T09:40:17.662Z</time></trkpt><trkpt lat="42.4963088" lon="18.6555198"><ele>3.2</ele><time>2026-05-04T09:40:18.659Z</time></trkpt><trkpt lat="42.4962716" lon="18.6553966"><ele>4.0</ele><time>2026-05-04T09:40:19.657Z</time></trkpt><trkpt lat="42.4962298" lon="18.6552807"><ele>4.0</ele><time>2026-05-04T09:40:20.663Z</time></trkpt><trkpt lat="42.4961799" lon="18.6551718"><ele>4.0</ele><time>2026-05-04T09:40:21.66Z</time></trkpt><trkpt lat="42.4961229" lon="18.6550772"><ele>4.0</ele><time>2026-05-04T09:40:22.659Z</time></trkpt><trkpt lat="42.4960761" lon="18.654986"><ele>4.0</ele><time>2026-05-04T09:40:23.662Z</time></trkpt><trkpt lat="42.4959927" lon="18.6548928"><ele>4.0</ele><time>2026-05-04T09:40:24.661Z</time></trkpt><trkpt lat="42.495942" lon="18.6547923"><ele>3.9999999999999996</ele><time>2026-05-04T09:40:25.658Z</time></trkpt><trkpt lat="42.4958927" lon="18.654687"><ele>4.0</ele><time>2026-05-04T09:40:26.657Z</time></trkpt><trkpt lat="42.4958527" lon="18.6545879"><ele>4.0</ele><time>2026-05-04T09:40:27.66Z</time></trkpt><trkpt lat="42.4958099" lon="18.6544983"><ele>4.0</ele><time>2026-05-04T09:40:28.661Z</time></trkpt><trkpt lat="42.4957647" lon="18.6544305"><ele>3.9999999999999996</ele><time>2026-05-04T09:40:29.665Z</time></trkpt><trkpt lat="42.4956622" lon="18.6543498"><ele>4.0</ele><time>2026-05-04T09:40:31.663Z</time></trkpt><trkpt lat="42.4956001" lon="18.654376"><ele>4.0</ele><time>2026-05-04T09:40:32.662Z</time></trkpt><trkpt lat="42.4955077" lon="18.6544198"><ele>4.0</ele><time>2026-05-04T09:40:34.66Z</time></trkpt><trkpt lat="42.4954008" lon="18.654398"><ele>4.0</ele><time>2026-05-04T09:40:36.664Z</time></trkpt><trkpt lat="42.4953265" lon="18.6543202"><ele>4.0</ele><time>2026-05-04T09:40:38.66Z</time></trkpt><trkpt lat="42.4952687" lon="18.6541805"><ele>4.0</ele><time>2026-05-04T09:40:40.662Z</time></trkpt><trkpt lat="42.4952435" lon="18.6540947"><ele>3.9999999999999996</ele><time>2026-05-04T09:40:41.658Z</time></trkpt><trkpt lat="42.4952199" lon="18.6539959"><ele>4.0</ele><time>2026-05-04T09:40:42.663Z</time></trkpt><trkpt lat="42.4951928" lon="18.6538883"><ele>4.0</ele><time>2026-05-04T09:40:43.66Z</time></trkpt><trkpt lat="42.495169" lon="18.6537742"><ele>4.0</ele><time>2026-05-04T09:40:44.662Z</time></trkpt><trkpt lat="42.4951482" lon="18.6536655"><ele>3.9999999999999996</ele><time>2026-05-04T09:40:45.66Z</time></trkpt><trkpt lat="42.4951283" lon="18.6535458"><ele>4.0</ele><time>2026-05-04T09:40:46.663Z</time></trkpt><trkpt lat="42.4951009" lon="18.6534173"><ele>5.25</ele><time>2026-05-04T09:40:47.663Z</time></trkpt><trkpt lat="42.495061" lon="18.6532579"><ele>6.5</ele><time>2026-05-04T09:40:48.662Z</time></trkpt><trkpt lat="42.4950201" lon="18.6530701"><ele>7.75</ele><time>2026-05-04T09:40:49.663Z</time></trkpt><trkpt lat="42.4949745" lon="18.652881"><ele>9.0</ele><time>2026-05-04T09:40:50.663Z</time></trkpt><trkpt lat="42.4949256" lon="18.6527008"><ele>11.25</ele><time>2026-05-04T09:40:51.66Z</time></trkpt><trkpt lat="42.4948711" lon="18.6525441"><ele>13.5</ele><time>2026-05-04T09:40:52.66Z</time></trkpt><trkpt lat="42.4948114" lon="18.6524039"><ele>15.75</ele><time>2026-05-04T09:40:53.66Z</time></trkpt><trkpt lat="42.4947483" lon="18.6522733"><ele>18.0</ele><time>2026-05-04T09:40:54.664Z</time></trkpt><trkpt lat="42.4946932" lon="18.6521724"><ele>18.0</ele><time>2026-05-04T09:40:55.66Z</time></trkpt><trkpt lat="42.4946293" lon="18.6520602"><ele>18.0</ele><time>2026-05-04T09:40:56.663Z</time></trkpt><trkpt lat="42.4945638" lon="18.651943"><ele>18.0</ele><time>2026-05-04T09:40:57.664Z</time></trkpt><trkpt lat="42.4944947" lon="18.6518548"><ele>18.0</ele><time>2026-05-04T09:40:58.658Z</time></trkpt><trkpt lat="42.4944184" lon="18.651779"><ele>18.0</ele><time>2026-05-04T09:40:59.661Z</time></trkpt><trkpt lat="42.4943424" lon="18.651728"><ele>17.666666666666668</ele><time>2026-05-04T09:41:00.658Z</time></trkpt><trkpt lat="42.4942633" lon="18.6516896"><ele>17.333333333333332</ele><time>2026-05-04T09:41:01.663Z</time></trkpt><trkpt lat="42.4941791" lon="18.6516926"><ele>17.0</ele><time>2026-05-04T09:41:02.668Z</time></trkpt><trkpt lat="42.4940972" lon="18.6517133"><ele>16.666666666666664</ele><time>2026-05-04T09:41:03.664Z</time></trkpt><trkpt lat="42.4940101" lon="18.6517447"><ele>16.333333333333332</ele><time>2026-05-04T09:41:04.66Z</time></trkpt><trkpt lat="42.4939276" lon="18.6517727"><ele>16.0</ele><time>2026-05-04T09:41:05.662Z</time></trkpt><trkpt lat="42.4938423" lon="18.6517995"><ele>13.4</ele><time>2026-05-04T09:41:06.664Z</time></trkpt><trkpt lat="42.4937394" lon="18.6518131"><ele>10.8</ele><time>2026-05-04T09:41:07.659Z</time></trkpt><trkpt lat="42.4936498" lon="18.6518043"><ele>8.2</ele><time>2026-05-04T09:41:08.661Z</time></trkpt><trkpt lat="42.4935487" lon="18.6517603"><ele>5.6</ele><time>2026-05-04T09:41:09.658Z</time></trkpt><trkpt lat="42.4934502" lon="18.6517088"><ele>3.0</ele><time>2026-05-04T09:41:10.661Z</time></trkpt><trkpt lat="42.4933604" lon="18.6516127"><ele>3.0</ele><time>2026-05-04T09:41:11.657Z</time></trkpt><trkpt lat="42.4932589" lon="18.6515119"><ele>3.0</ele><time>2026-05-04T09:41:12.66Z</time></trkpt><trkpt lat="42.4931541" lon="18.6514086"><ele>3.0</ele><time>2026-05-04T09:41:13.664Z</time></trkpt><trkpt lat="42.4930439" lon="18.6512645"><ele>3.0</ele><time>2026-05-04T09:41:14.659Z</time></trkpt><trkpt lat="42.4928804" lon="18.6510954"><ele>5.0</ele><time>2026-05-04T09:41:15.663Z</time></trkpt><trkpt lat="42.4927033" lon="18.6509074"><ele>7.0</ele><time>2026-05-04T09:41:16.658Z</time></trkpt><trkpt lat="42.4925145" lon="18.6507324"><ele>7.0</ele><time>2026-05-04T09:41:17.658Z</time></trkpt><trkpt lat="42.4923413" lon="18.6505603"><ele>7.0</ele><time>2026-05-04T09:41:18.658Z</time></trkpt><trkpt lat="42.4921851" lon="18.6504052"><ele>7.0</ele><time>2026-05-04T09:41:19.661Z</time></trkpt><trkpt lat="42.4920432" lon="18.6502805"><ele>9.25</ele><time>2026-05-04T09:41:20.665Z</time></trkpt><trkpt lat="42.4919114" lon="18.650204"><ele>11.5</ele><time>2026-05-04T09:41:21.661Z</time></trkpt><trkpt lat="42.4917756" lon="18.6501492"><ele>13.75</ele><time>2026-05-04T09:41:22.661Z</time></trkpt><trkpt lat="42.4916445" lon="18.6501588"><ele>16.0</ele><time>2026-05-04T09:41:23.66Z</time></trkpt><trkpt lat="42.491506" lon="18.6502096"><ele>16.0</ele><time>2026-05-04T09:41:24.662Z</time></trkpt><trkpt lat="42.4913806" lon="18.650258"><ele>16.0</ele><time>2026-05-04T09:41:25.66Z</time></trkpt><trkpt lat="42.4912544" lon="18.6503045"><ele>16.0</ele><time>2026-05-04T09:41:26.66Z</time></trkpt><trkpt lat="42.4911373" lon="18.6503037"><ele>16.0</ele><time>2026-05-04T09:41:27.662Z</time></trkpt><trkpt lat="42.491003" lon="18.6502967"><ele>14.75</ele><time>2026-05-04T09:41:28.659Z</time></trkpt><trkpt lat="42.4908753" lon="18.6502533"><ele>13.5</ele><time>2026-05-04T09:41:29.661Z</time></trkpt><trkpt lat="42.490777" lon="18.6501326"><ele>12.25</ele><time>2026-05-04T09:41:30.66Z</time></trkpt><trkpt lat="42.4906571" lon="18.6500306"><ele>11.0</ele><time>2026-05-04T09:41:31.66Z</time></trkpt><trkpt lat="42.490543" lon="18.6499191"><ele>11.0</ele><time>2026-05-04T09:41:32.66Z</time></trkpt><trkpt lat="42.4904382" lon="18.6498003"><ele>11.0</ele><time>2026-05-04T09:41:33.659Z</time></trkpt><trkpt lat="42.4903487" lon="18.6496369"><ele>11.0</ele><time>2026-05-04T09:41:34.66Z</time></trkpt><trkpt lat="42.4902537" lon="18.6494938"><ele>11.0</ele><time>2026-05-04T09:41:35.659Z</time></trkpt><trkpt lat="42.4901619" lon="18.6493553"><ele>11.75</ele><time>2026-05-04T09:41:36.661Z</time></trkpt><trkpt lat="42.4900607" lon="18.6492285"><ele>12.5</ele><time>2026-05-04T09:41:37.659Z</time></trkpt><trkpt lat="42.4899573" lon="18.6491299"><ele>13.25</ele><time>2026-05-04T09:41:38.661Z</time></trkpt><trkpt lat="42.4898493" lon="18.6490512"><ele>14.0</ele><time>2026-05-04T09:41:39.66Z</time></trkpt><trkpt lat="42.4897383" lon="18.6489947"><ele>14.0</ele><time>2026-05-04T09:41:40.66Z</time></trkpt><trkpt lat="42.4896177" lon="18.6489768"><ele>14.0</ele><time>2026-05-04T09:41:41.659Z</time></trkpt><trkpt lat="42.4895061" lon="18.6489658"><ele>14.0</ele><time>2026-05-04T09:41:42.662Z</time></trkpt><trkpt lat="42.4893947" lon="18.6489869"><ele>14.0</ele><time>2026-05-04T09:41:43.661Z</time></trkpt><trkpt lat="42.489287" lon="18.6490317"><ele>11.25</ele><time>2026-05-04T09:41:44.663Z</time></trkpt><trkpt lat="42.4891855" lon="18.6491011"><ele>8.5</ele><time>2026-05-04T09:41:45.663Z</time></trkpt><trkpt lat="42.4890932" lon="18.649188"><ele>5.75</ele><time>2026-05-04T09:41:46.66Z</time></trkpt><trkpt lat="42.4890087" lon="18.6492942"><ele>3.0</ele><time>2026-05-04T09:41:47.659Z</time></trkpt><trkpt lat="42.4889276" lon="18.649422"><ele>3.25</ele><time>2026-05-04T09:41:48.66Z</time></trkpt><trkpt lat="42.4888444" lon="18.6495692"><ele>3.5</ele><time>2026-05-04T09:41:49.659Z</time></trkpt><trkpt lat="42.4887751" lon="18.6497174"><ele>3.75</ele><time>2026-05-04T09:41:50.662Z</time></trkpt><trkpt lat="42.4886989" lon="18.649873"><ele>4.0</ele><time>2026-05-04T09:41:51.66Z</time></trkpt><trkpt lat="42.4886172" lon="18.6500377"><ele>4.0</ele><time>2026-05-04T09:41:52.662Z</time></trkpt><trkpt lat="42.4885275" lon="18.6501986"><ele>4.0</ele><time>2026-05-04T09:41:53.659Z</time></trkpt><trkpt lat="42.4884358" lon="18.6503649"><ele>4.0</ele><time>2026-05-04T09:41:54.661Z</time></trkpt><trkpt lat="42.4883366" lon="18.650517"><ele>3.6666666666666665</ele><time>2026-05-04T09:41:55.662Z</time></trkpt><trkpt lat="42.4882423" lon="18.6506599"><ele>3.333333333333333</ele><time>2026-05-04T09:41:56.66Z</time></trkpt><trkpt lat="42.4881322" lon="18.6508054"><ele>3.0</ele><time>2026-05-04T09:41:57.662Z</time></trkpt><trkpt lat="42.4880121" lon="18.6509425"><ele>2.0</ele><time>2026-05-04T09:41:58.661Z</time></trkpt><trkpt lat="42.4878762" lon="18.6510731"><ele>1.0</ele><time>2026-05-04T09:41:59.659Z</time></trkpt><trkpt lat="42.4877331" lon="18.6511974"><ele>0.0</ele><time>2026-05-04T09:42:00.659Z</time></trkpt><trkpt lat="42.4875898" lon="18.6513172"><ele>0.0</ele><time>2026-05-04T09:42:01.659Z</time></trkpt><trkpt lat="42.4874486" lon="18.6514314"><ele>0.0</ele><time>2026-05-04T09:42:02.661Z</time></trkpt><trkpt lat="42.4873217" lon="18.651534"><ele>0.0</ele><time>2026-05-04T09:42:03.661Z</time></trkpt><trkpt lat="42.4872034" lon="18.6516324"><ele>0.0</ele><time>2026-05-04T09:42:04.66Z</time></trkpt><trkpt lat="42.4871022" lon="18.6517442"><ele>0.0</ele><time>2026-05-04T09:42:05.66Z</time></trkpt><trkpt lat="42.487024" lon="18.6518762"><ele>0.0</ele><time>2026-05-04T09:42:06.66Z</time></trkpt><trkpt lat="42.486981" lon="18.6520346"><ele>0.0</ele><time>2026-05-04T09:42:07.661Z</time></trkpt><trkpt lat="42.4869638" lon="18.652203"><ele>3.0</ele><time>2026-05-04T09:42:08.664Z</time></trkpt><trkpt lat="42.486976" lon="18.6523764"><ele>6.0</ele><time>2026-05-04T09:42:09.659Z</time></trkpt><trkpt lat="42.4869996" lon="18.6525544"><ele>9.0</ele><time>2026-05-04T09:42:10.66Z</time></trkpt><trkpt lat="42.4870378" lon="18.6527527"><ele>12.0</ele><time>2026-05-04T09:42:11.66Z</time></trkpt><trkpt lat="42.4870603" lon="18.6529522"><ele>13.75</ele><time>2026-05-04T09:42:12.66Z</time></trkpt><trkpt lat="42.4870701" lon="18.6531511"><ele>15.5</ele><time>2026-05-04T09:42:13.66Z</time></trkpt><trkpt lat="42.4870765" lon="18.6533555"><ele>17.25</ele><time>2026-05-04T09:42:14.659Z</time></trkpt><trkpt lat="42.4870764" lon="18.6535557"><ele>19.0</ele><time>2026-05-04T09:42:15.661Z</time></trkpt><trkpt lat="42.4870778" lon="18.6537566"><ele>20.0</ele><time>2026-05-04T09:42:16.66Z</time></trkpt><trkpt lat="42.4870774" lon="18.6539623"><ele>21.0</ele><time>2026-05-04T09:42:17.661Z</time></trkpt><trkpt lat="42.4870717" lon="18.654165"><ele>22.0</ele><time>2026-05-04T09:42:18.661Z</time></trkpt><trkpt lat="42.487064" lon="18.6543741"><ele>26.666666666666664</ele><time>2026-05-04T09:42:19.662Z</time></trkpt><trkpt lat="42.4870508" lon="18.6545848"><ele>31.333333333333332</ele><time>2026-05-04T09:42:20.661Z</time></trkpt><trkpt lat="42.4870436" lon="18.6548161"><ele>36.0</ele><time>2026-05-04T09:42:21.66Z</time></trkpt><trkpt lat="42.4870232" lon="18.6550386"><ele>36.0</ele><time>2026-05-04T09:42:22.663Z</time></trkpt><trkpt lat="42.4869971" lon="18.6552898"><ele>36.0</ele><time>2026-05-04T09:42:23.663Z</time></trkpt><trkpt lat="42.4869758" lon="18.6555259"><ele>36.0</ele><time>2026-05-04T09:42:24.659Z</time></trkpt><trkpt lat="42.4869533" lon="18.6557675"><ele>36.0</ele><time>2026-05-04T09:42:25.665Z</time></trkpt><trkpt lat="42.4869332" lon="18.6560075"><ele>36.0</ele><time>2026-05-04T09:42:26.663Z</time></trkpt><trkpt lat="42.4869167" lon="18.6562476"><ele>36.0</ele><time>2026-05-04T09:42:27.663Z</time></trkpt><trkpt lat="42.4869038" lon="18.6564744"><ele>34.333333333333336</ele><time>2026-05-04T09:42:28.662Z</time></trkpt><trkpt lat="42.4869061" lon="18.6567078"><ele>32.66666666666667</ele><time>2026-05-04T09:42:29.659Z</time></trkpt><trkpt lat="42.4869311" lon="18.6569512"><ele>31.0</ele><time>2026-05-04T09:42:30.664Z</time></trkpt><trkpt lat="42.4869675" lon="18.657195"><ele>29.333333333333336</ele><time>2026-05-04T09:42:31.662Z</time></trkpt><trkpt lat="42.4870135" lon="18.6574219"><ele>27.666666666666664</ele><time>2026-05-04T09:42:32.664Z</time></trkpt><trkpt lat="42.4870596" lon="18.6576403"><ele>26.0</ele><time>2026-05-04T09:42:33.66Z</time></trkpt><trkpt lat="42.4871018" lon="18.6578451"><ele>26.75</ele><time>2026-05-04T09:42:34.66Z</time></trkpt><trkpt lat="42.4871337" lon="18.6580435"><ele>27.5</ele><time>2026-05-04T09:42:35.663Z</time></trkpt><trkpt lat="42.4871384" lon="18.6582453"><ele>28.25</ele><time>2026-05-04T09:42:36.661Z</time></trkpt><trkpt lat="42.4871157" lon="18.6584469"><ele>29.0</ele><time>2026-05-04T09:42:37.663Z</time></trkpt><trkpt lat="42.4870706" lon="18.6586803"><ele>29.0</ele><time>2026-05-04T09:42:38.659Z</time></trkpt><trkpt lat="42.4870141" lon="18.6589163"><ele>29.0</ele><time>2026-05-04T09:42:39.664Z</time></trkpt><trkpt lat="42.4869588" lon="18.659154"><ele>29.0</ele><time>2026-05-04T09:42:40.661Z</time></trkpt><trkpt lat="42.4869149" lon="18.6593851"><ele>27.333333333333332</ele><time>2026-05-04T09:42:41.66Z</time></trkpt><trkpt lat="42.4868957" lon="18.6596061"><ele>25.666666666666664</ele><time>2026-05-04T09:42:42.663Z</time></trkpt><trkpt lat="42.4869094" lon="18.6598277"><ele>24.0</ele><time>2026-05-04T09:42:43.666Z</time></trkpt><trkpt lat="42.486948" lon="18.6600472"><ele>24.0</ele><time>2026-05-04T09:42:44.659Z</time></trkpt><trkpt lat="42.4870044" lon="18.660269"><ele>24.0</ele><time>2026-05-04T09:42:45.659Z</time></trkpt><trkpt lat="42.4870609" lon="18.6604829"><ele>24.0</ele><time>2026-05-04T09:42:46.661Z</time></trkpt><trkpt lat="42.4871204" lon="18.6606884"><ele>18.5</ele><time>2026-05-04T09:42:47.662Z</time></trkpt><trkpt lat="42.4871695" lon="18.6608851"><ele>13.0</ele><time>2026-05-04T09:42:48.661Z</time></trkpt><trkpt lat="42.4872043" lon="18.6610714"><ele>7.5</ele><time>2026-05-04T09:42:49.662Z</time></trkpt><trkpt lat="42.4872379" lon="18.6612549"><ele>2.0</ele><time>2026-05-04T09:42:50.663Z</time></trkpt><trkpt lat="42.4872567" lon="18.6614434"><ele>2.0</ele><time>2026-05-04T09:42:51.661Z</time></trkpt><trkpt lat="42.4872587" lon="18.6616445"><ele>2.0</ele><time>2026-05-04T09:42:52.663Z</time></trkpt><trkpt lat="42.4872368" lon="18.6618325"><ele>2.0</ele><time>2026-05-04T09:42:53.663Z</time></trkpt><trkpt lat="42.487203" lon="18.6620342"><ele>2.0</ele><time>2026-05-04T09:42:54.66Z</time></trkpt><trkpt lat="42.4871594" lon="18.662239"><ele>2.0</ele><time>2026-05-04T09:42:55.659Z</time></trkpt><trkpt lat="42.4871005" lon="18.6624542"><ele>2.0</ele><time>2026-05-04T09:42:56.662Z</time></trkpt><trkpt lat="42.4870377" lon="18.6626613"><ele>2.0</ele><time>2026-05-04T09:42:57.664Z</time></trkpt><trkpt lat="42.4869775" lon="18.6628771"><ele>7.0</ele><time>2026-05-04T09:42:58.658Z</time></trkpt><trkpt lat="42.4869138" lon="18.6630664"><ele>12.0</ele><time>2026-05-04T09:42:59.66Z</time></trkpt><trkpt lat="42.486869" lon="18.6632826"><ele>17.0</ele><time>2026-05-04T09:43:00.661Z</time></trkpt><trkpt lat="42.4868351" lon="18.6635014"><ele>14.666666666666668</ele><time>2026-05-04T09:43:01.659Z</time></trkpt><trkpt lat="42.4868095" lon="18.663727"><ele>12.333333333333334</ele><time>2026-05-04T09:43:02.661Z</time></trkpt><trkpt lat="42.4867772" lon="18.6639447"><ele>10.0</ele><time>2026-05-04T09:43:03.663Z</time></trkpt><trkpt lat="42.4867404" lon="18.6641609"><ele>10.0</ele><time>2026-05-04T09:43:04.66Z</time></trkpt><trkpt lat="42.4866812" lon="18.664369"><ele>10.0</ele><time>2026-05-04T09:43:05.662Z</time></trkpt><trkpt lat="42.4866128" lon="18.6645728"><ele>10.0</ele><time>2026-05-04T09:43:06.661Z</time></trkpt><trkpt lat="42.4865362" lon="18.6647755"><ele>8.75</ele><time>2026-05-04T09:43:07.658Z</time></trkpt><trkpt lat="42.4864609" lon="18.6649554"><ele>7.5</ele><time>2026-05-04T09:43:08.659Z</time></trkpt><trkpt lat="42.4863921" lon="18.6651356"><ele>6.25</ele><time>2026-05-04T09:43:09.659Z</time></trkpt><trkpt lat="42.4863424" lon="18.6653133"><ele>5.0</ele><time>2026-05-04T09:43:10.66Z</time></trkpt><trkpt lat="42.4863143" lon="18.6654926"><ele>4.75</ele><time>2026-05-04T09:43:11.658Z</time></trkpt><trkpt lat="42.4863108" lon="18.6656834"><ele>4.5</ele><time>2026-05-04T09:43:12.661Z</time></trkpt><trkpt lat="42.4863323" lon="18.6658796"><ele>4.25</ele><time>2026-05-04T09:43:13.663Z</time></trkpt><trkpt lat="42.4863683" lon="18.6660794"><ele>4.0</ele><time>2026-05-04T09:43:14.66Z</time></trkpt><trkpt lat="42.4864081" lon="18.6662763"><ele>4.0</ele><time>2026-05-04T09:43:15.661Z</time></trkpt><trkpt lat="42.486421" lon="18.6664768"><ele>4.0</ele><time>2026-05-04T09:43:16.66Z</time></trkpt><trkpt lat="42.4864261" lon="18.6666875"><ele>4.0</ele><time>2026-05-04T09:43:17.662Z</time></trkpt><trkpt lat="42.4864064" lon="18.6668946"><ele>3.5</ele><time>2026-05-04T09:43:18.663Z</time></trkpt><trkpt lat="42.4863753" lon="18.6671008"><ele>3.0</ele><time>2026-05-04T09:43:19.661Z</time></trkpt><trkpt lat="42.4863364" lon="18.6672846"><ele>2.5</ele><time>2026-05-04T09:43:20.665Z</time></trkpt><trkpt lat="42.4862944" lon="18.6674714"><ele>2.0</ele><time>2026-05-04T09:43:21.658Z</time></trkpt><trkpt lat="42.4862228" lon="18.6676544"><ele>3.666666666666667</ele><time>2026-05-04T09:43:22.66Z</time></trkpt><trkpt lat="42.48614" lon="18.6678279"><ele>5.333333333333334</ele><time>2026-05-04T09:43:23.66Z</time></trkpt><trkpt lat="42.4860389" lon="18.6680252"><ele>7.0</ele><time>2026-05-04T09:43:24.658Z</time></trkpt><trkpt lat="42.4859351" lon="18.6682013"><ele>7.0</ele><time>2026-05-04T09:43:25.66Z</time></trkpt><trkpt lat="42.4858283" lon="18.6683763"><ele>7.0</ele><time>2026-05-04T09:43:26.659Z</time></trkpt><trkpt lat="42.4857187" lon="18.668547"><ele>7.0</ele><time>2026-05-04T09:43:27.662Z</time></trkpt><trkpt lat="42.4856129" lon="18.66872"><ele>6.333333333333334</ele><time>2026-05-04T09:43:28.658Z</time></trkpt><trkpt lat="42.4855104" lon="18.6689215"><ele>5.666666666666667</ele><time>2026-05-04T09:43:29.658Z</time></trkpt><trkpt lat="42.4854329" lon="18.6691415"><ele>5.0</ele><time>2026-05-04T09:43:30.66Z</time></trkpt><trkpt lat="42.4853491" lon="18.6693667"><ele>6.666666666666667</ele><time>2026-05-04T09:43:31.658Z</time></trkpt><trkpt lat="42.4852651" lon="18.6695908"><ele>8.333333333333334</ele><time>2026-05-04T09:43:32.662Z</time></trkpt><trkpt lat="42.4851798" lon="18.6698132"><ele>10.0</ele><time>2026-05-04T09:43:33.661Z</time></trkpt><trkpt lat="42.4850916" lon="18.6700242"><ele>10.0</ele><time>2026-05-04T09:43:34.662Z</time></trkpt><trkpt lat="42.4850059" lon="18.670221"><ele>10.0</ele><time>2026-05-04T09:43:35.664Z</time></trkpt><trkpt lat="42.4849199" lon="18.6704173"><ele>10.0</ele><time>2026-05-04T09:43:36.66Z</time></trkpt><trkpt lat="42.4848407" lon="18.6706209"><ele>9.0</ele><time>2026-05-04T09:43:37.656Z</time></trkpt><trkpt lat="42.4847668" lon="18.6708388"><ele>8.0</ele><time>2026-05-04T09:43:38.666Z</time></trkpt><trkpt lat="42.4846991" lon="18.6710612"><ele>7.0</ele><time>2026-05-04T09:43:39.658Z</time></trkpt><trkpt lat="42.4846448" lon="18.6712945"><ele>12.666666666666668</ele><time>2026-05-04T09:43:40.66Z</time></trkpt><trkpt lat="42.4845944" lon="18.6715329"><ele>18.333333333333332</ele><time>2026-05-04T09:43:41.658Z</time></trkpt><trkpt lat="42.4845582" lon="18.6717849"><ele>24.0</ele><time>2026-05-04T09:43:42.663Z</time></trkpt><trkpt lat="42.4845329" lon="18.6720368"><ele>24.0</ele><time>2026-05-04T09:43:43.66Z</time></trkpt><trkpt lat="42.484515" lon="18.672289"><ele>24.0</ele><time>2026-05-04T09:43:44.663Z</time></trkpt><trkpt lat="42.4845044" lon="18.6725399"><ele>24.0</ele><time>2026-05-04T09:43:45.661Z</time></trkpt><trkpt lat="42.484494" lon="18.6727772"><ele>21.666666666666668</ele><time>2026-05-04T09:43:46.661Z</time></trkpt><trkpt lat="42.4844789" lon="18.6729974"><ele>19.333333333333336</ele><time>2026-05-04T09:43:47.663Z</time></trkpt><trkpt lat="42.4844604" lon="18.6732085"><ele>17.0</ele><time>2026-05-04T09:43:48.66Z</time></trkpt><trkpt lat="42.4844423" lon="18.6734119"><ele>14.0</ele><time>2026-05-04T09:43:49.658Z</time></trkpt><trkpt lat="42.4844013" lon="18.6736134"><ele>11.0</ele><time>2026-05-04T09:43:50.662Z</time></trkpt><trkpt lat="42.4843531" lon="18.6738151"><ele>8.0</ele><time>2026-05-04T09:43:51.661Z</time></trkpt><trkpt lat="42.4842872" lon="18.6740058"><ele>8.0</ele><time>2026-05-04T09:43:52.659Z</time></trkpt><trkpt lat="42.4842154" lon="18.6742009"><ele>8.0</ele><time>2026-05-04T09:43:53.659Z</time></trkpt><trkpt lat="42.4841338" lon="18.6744005"><ele>8.0</ele><time>2026-05-04T09:43:54.66Z</time></trkpt><trkpt lat="42.4840427" lon="18.6745961"><ele>7.333333333333333</ele><time>2026-05-04T09:43:55.659Z</time></trkpt><trkpt lat="42.4839459" lon="18.6747856"><ele>6.666666666666666</ele><time>2026-05-04T09:43:56.658Z</time></trkpt><trkpt lat="42.4838381" lon="18.6749762"><ele>6.0</ele><time>2026-05-04T09:43:57.66Z</time></trkpt><trkpt lat="42.4837302" lon="18.675162"><ele>9.666666666666668</ele><time>2026-05-04T09:43:58.659Z</time></trkpt><trkpt lat="42.4836252" lon="18.6753503"><ele>13.333333333333334</ele><time>2026-05-04T09:43:59.66Z</time></trkpt><trkpt lat="42.4835261" lon="18.6755362"><ele>17.0</ele><time>2026-05-04T09:44:00.66Z</time></trkpt><trkpt lat="42.4834414" lon="18.675718"><ele>17.0</ele><time>2026-05-04T09:44:01.662Z</time></trkpt><trkpt lat="42.483354" lon="18.6759198"><ele>17.0</ele><time>2026-05-04T09:44:02.662Z</time></trkpt><trkpt lat="42.483275" lon="18.6761289"><ele>17.0</ele><time>2026-05-04T09:44:03.659Z</time></trkpt><trkpt lat="42.4832067" lon="18.6763472"><ele>14.333333333333334</ele><time>2026-05-04T09:44:04.663Z</time></trkpt><trkpt lat="42.483148" lon="18.6765657"><ele>11.666666666666668</ele><time>2026-05-04T09:44:05.662Z</time></trkpt><trkpt lat="42.4830791" lon="18.6767893"><ele>9.0</ele><time>2026-05-04T09:44:06.659Z</time></trkpt><trkpt lat="42.4830145" lon="18.6770033"><ele>7.333333333333333</ele><time>2026-05-04T09:44:07.658Z</time></trkpt><trkpt lat="42.4829504" lon="18.677218"><ele>5.666666666666666</ele><time>2026-05-04T09:44:08.66Z</time></trkpt><trkpt lat="42.4828835" lon="18.6774206"><ele>4.0</ele><time>2026-05-04T09:44:09.659Z</time></trkpt><trkpt lat="42.4828086" lon="18.6776271"><ele>8.0</ele><time>2026-05-04T09:44:10.66Z</time></trkpt><trkpt lat="42.4827348" lon="18.6778241"><ele>12.0</ele><time>2026-05-04T09:44:11.66Z</time></trkpt><trkpt lat="42.4826619" lon="18.6780234"><ele>16.0</ele><time>2026-05-04T09:44:12.659Z</time></trkpt><trkpt lat="42.4825787" lon="18.6782295"><ele>16.0</ele><time>2026-05-04T09:44:13.659Z</time></trkpt><trkpt lat="42.4824954" lon="18.6784211"><ele>16.0</ele><time>2026-05-04T09:44:14.66Z</time></trkpt><trkpt lat="42.4824072" lon="18.6786155"><ele>16.0</ele><time>2026-05-04T09:44:15.662Z</time></trkpt><trkpt lat="42.482311" lon="18.6788027"><ele>12.666666666666666</ele><time>2026-05-04T09:44:16.663Z</time></trkpt><trkpt lat="42.482219" lon="18.679"><ele>9.333333333333332</ele><time>2026-05-04T09:44:17.661Z</time></trkpt><trkpt lat="42.4821295" lon="18.6791804"><ele>6.0</ele><time>2026-05-04T09:44:18.66Z</time></trkpt><trkpt lat="42.4820369" lon="18.6793708"><ele>10.666666666666668</ele><time>2026-05-04T09:44:19.657Z</time></trkpt><trkpt lat="42.4819452" lon="18.6795614"><ele>15.333333333333334</ele><time>2026-05-04T09:44:20.659Z</time></trkpt><trkpt lat="42.4818489" lon="18.6797635"><ele>20.0</ele><time>2026-05-04T09:44:21.662Z</time></trkpt><trkpt lat="42.4817498" lon="18.6799709"><ele>20.0</ele><time>2026-05-04T09:44:22.665Z</time></trkpt><trkpt lat="42.4816618" lon="18.6801874"><ele>20.0</ele><time>2026-05-04T09:44:23.66Z</time></trkpt><trkpt lat="42.481571" lon="18.6804143"><ele>20.0</ele><time>2026-05-04T09:44:24.662Z</time></trkpt><trkpt lat="42.4814824" lon="18.680636"><ele>15.0</ele><time>2026-05-04T09:44:25.664Z</time></trkpt><trkpt lat="42.4814016" lon="18.680858"><ele>10.0</ele><time>2026-05-04T09:44:26.66Z</time></trkpt><trkpt lat="42.4813171" lon="18.6810902"><ele>5.0</ele><time>2026-05-04T09:44:27.658Z</time></trkpt><trkpt lat="42.4812381" lon="18.6813076"><ele>11.0</ele><time>2026-05-04T09:44:28.66Z</time></trkpt><trkpt lat="42.481165" lon="18.6815368"><ele>17.0</ele><time>2026-05-04T09:44:29.665Z</time></trkpt><trkpt lat="42.4810892" lon="18.6817563"><ele>23.0</ele><time>2026-05-04T09:44:30.661Z</time></trkpt><trkpt lat="42.4810077" lon="18.6819771"><ele>23.0</ele><time>2026-05-04T09:44:31.66Z</time></trkpt><trkpt lat="42.4809215" lon="18.6821779"><ele>23.0</ele><time>2026-05-04T09:44:32.66Z</time></trkpt><trkpt lat="42.4808313" lon="18.6823838"><ele>23.0</ele><time>2026-05-04T09:44:33.661Z</time></trkpt><trkpt lat="42.4807458" lon="18.6825925"><ele>17.666666666666668</ele><time>2026-05-04T09:44:34.658Z</time></trkpt><trkpt lat="42.4806631" lon="18.6828028"><ele>12.333333333333334</ele><time>2026-05-04T09:44:35.662Z</time></trkpt><trkpt lat="42.4805785" lon="18.6830178"><ele>7.0</ele><time>2026-05-04T09:44:36.658Z</time></trkpt><trkpt lat="42.4804847" lon="18.6832238"><ele>13.666666666666668</ele><time>2026-05-04T09:44:37.66Z</time></trkpt><trkpt lat="42.4803939" lon="18.6834281"><ele>20.333333333333332</ele><time>2026-05-04T09:44:38.66Z</time></trkpt><trkpt lat="42.4802985" lon="18.683649"><ele>27.0</ele><time>2026-05-04T09:44:39.661Z</time></trkpt><trkpt lat="42.4801909" lon="18.6838481"><ele>27.0</ele><time>2026-05-04T09:44:40.659Z</time></trkpt><trkpt lat="42.4800997" lon="18.68406"><ele>27.0</ele><time>2026-05-04T09:44:41.66Z</time></trkpt><trkpt lat="42.4800115" lon="18.6842768"><ele>27.0</ele><time>2026-05-04T09:44:42.657Z</time></trkpt><trkpt lat="42.4799" lon="18.684488"><ele>22.333333333333332</ele><time>2026-05-04T09:44:43.657Z</time></trkpt><trkpt lat="42.4798013" lon="18.6847014"><ele>17.666666666666664</ele><time>2026-05-04T09:44:44.658Z</time></trkpt><trkpt lat="42.479709" lon="18.684908"><ele>13.0</ele><time>2026-05-04T09:44:45.657Z</time></trkpt><trkpt lat="42.4796154" lon="18.6851073"><ele>15.666666666666666</ele><time>2026-05-04T09:44:46.659Z</time></trkpt><trkpt lat="42.479537" lon="18.6852922"><ele>18.333333333333332</ele><time>2026-05-04T09:44:47.659Z</time></trkpt><trkpt lat="42.4794569" lon="18.6854653"><ele>21.0</ele><time>2026-05-04T09:44:48.661Z</time></trkpt><trkpt lat="42.4793749" lon="18.6856251"><ele>21.0</ele><time>2026-05-04T09:44:49.659Z</time></trkpt><trkpt lat="42.4792849" lon="18.6857785"><ele>21.0</ele><time>2026-05-04T09:44:50.663Z</time></trkpt><trkpt lat="42.4792141" lon="18.6859214"><ele>21.0</ele><time>2026-05-04T09:44:51.66Z</time></trkpt><trkpt lat="42.4791408" lon="18.6860593"><ele>21.0</ele><time>2026-05-04T09:44:52.66Z</time></trkpt><trkpt lat="42.4790695" lon="18.6861781"><ele>18.400000000000002</ele><time>2026-05-04T09:44:53.66Z</time></trkpt><trkpt lat="42.4789876" lon="18.6862646"><ele>15.8</ele><time>2026-05-04T09:44:54.663Z</time></trkpt><trkpt lat="42.4788833" lon="18.6863175"><ele>13.200000000000001</ele><time>2026-05-04T09:44:55.66Z</time></trkpt><trkpt lat="42.4787608" lon="18.6863464"><ele>10.600000000000001</ele><time>2026-05-04T09:44:56.66Z</time></trkpt><trkpt lat="42.4786861" lon="18.6863448"><ele>8.0</ele><time>2026-05-04T09:44:57.66Z</time></trkpt><trkpt lat="42.4786016" lon="18.6863025"><ele>7.2</ele><time>2026-05-04T09:44:58.66Z</time></trkpt><trkpt lat="42.4785105" lon="18.6862186"><ele>6.4</ele><time>2026-05-04T09:44:59.658Z</time></trkpt><trkpt lat="42.4784334" lon="18.6861035"><ele>5.6000000000000005</ele><time>2026-05-04T09:45:00.661Z</time></trkpt><trkpt lat="42.478377" lon="18.6859831"><ele>4.800000000000001</ele><time>2026-05-04T09:45:01.66Z</time></trkpt><trkpt lat="42.4783147" lon="18.6858505"><ele>4.0</ele><time>2026-05-04T09:45:02.661Z</time></trkpt><trkpt lat="42.4782453" lon="18.6857257"><ele>3.0</ele><time>2026-05-04T09:45:03.66Z</time></trkpt><trkpt lat="42.4781733" lon="18.6855976"><ele>2.0</ele><time>2026-05-04T09:45:04.66Z</time></trkpt><trkpt lat="42.4780921" lon="18.685477"><ele>1.0</ele><time>2026-05-04T09:45:05.662Z</time></trkpt><trkpt lat="42.4779914" lon="18.6853792"><ele>0.0</ele><time>2026-05-04T09:45:06.663Z</time></trkpt><trkpt lat="42.4778877" lon="18.6853017"><ele>2.25</ele><time>2026-05-04T09:45:07.661Z</time></trkpt><trkpt lat="42.477831" lon="18.6851627"><ele>4.5</ele><time>2026-05-04T09:45:08.661Z</time></trkpt><trkpt lat="42.4777726" lon="18.6850147"><ele>6.75</ele><time>2026-05-04T09:45:09.661Z</time></trkpt><trkpt lat="42.477721" lon="18.6848754"><ele>9.0</ele><time>2026-05-04T09:45:10.661Z</time></trkpt><trkpt lat="42.4776609" lon="18.6847247"><ele>9.0</ele><time>2026-05-04T09:45:11.662Z</time></trkpt><trkpt lat="42.4775932" lon="18.6845767"><ele>9.0</ele><time>2026-05-04T09:45:12.66Z</time></trkpt><trkpt lat="42.4774973" lon="18.6844503"><ele>9.0</ele><time>2026-05-04T09:45:13.66Z</time></trkpt><trkpt lat="42.4774076" lon="18.6843139"><ele>9.0</ele><time>2026-05-04T09:45:14.664Z</time></trkpt><trkpt lat="42.477308" lon="18.6841994"><ele>9.0</ele><time>2026-05-04T09:45:15.661Z</time></trkpt><trkpt lat="42.4772095" lon="18.6840828"><ele>9.0</ele><time>2026-05-04T09:45:16.66Z</time></trkpt><trkpt lat="42.4771136" lon="18.6839549"><ele>9.0</ele><time>2026-05-04T09:45:17.661Z</time></trkpt><trkpt lat="42.4770119" lon="18.6838573"><ele>9.0</ele><time>2026-05-04T09:45:18.662Z</time></trkpt><trkpt lat="42.47689" lon="18.6838021"><ele>9.0</ele><time>2026-05-04T09:45:19.659Z</time></trkpt><trkpt lat="42.4767601" lon="18.6837816"><ele>9.0</ele><time>2026-05-04T09:45:20.663Z</time></trkpt><trkpt lat="42.4766272" lon="18.6837938"><ele>9.0</ele><time>2026-05-04T09:45:21.661Z</time></trkpt><trkpt lat="42.4765113" lon="18.6838202"><ele>9.0</ele><time>2026-05-04T09:45:22.66Z</time></trkpt><trkpt lat="42.4764006" lon="18.6838362"><ele>9.0</ele><time>2026-05-04T09:45:23.662Z</time></trkpt><trkpt lat="42.4762944" lon="18.6838319"><ele>9.0</ele><time>2026-05-04T09:45:24.661Z</time></trkpt><trkpt lat="42.4762003" lon="18.6838166"><ele>9.0</ele><time>2026-05-04T09:45:25.657Z</time></trkpt><trkpt lat="42.4760914" lon="18.6837528"><ele>9.0</ele><time>2026-05-04T09:45:26.657Z</time></trkpt><trkpt lat="42.4759877" lon="18.683639"><ele>11.25</ele><time>2026-05-04T09:45:27.66Z</time></trkpt><trkpt lat="42.4758946" lon="18.6835293"><ele>13.5</ele><time>2026-05-04T09:45:28.66Z</time></trkpt><trkpt lat="42.4758024" lon="18.683423"><ele>15.75</ele><time>2026-05-04T09:45:29.662Z</time></trkpt><trkpt lat="42.4757095" lon="18.683327"><ele>18.0</ele><time>2026-05-04T09:45:30.661Z</time></trkpt><trkpt lat="42.4755957" lon="18.6832441"><ele>18.0</ele><time>2026-05-04T09:45:31.656Z</time></trkpt><trkpt lat="42.4754746" lon="18.6831515"><ele>18.0</ele><time>2026-05-04T09:45:32.66Z</time></trkpt><trkpt lat="42.4753613" lon="18.6830641"><ele>18.0</ele><time>2026-05-04T09:45:33.658Z</time></trkpt><trkpt lat="42.4752542" lon="18.6829569"><ele>18.0</ele><time>2026-05-04T09:45:34.662Z</time></trkpt><trkpt lat="42.4751563" lon="18.6828382"><ele>16.666666666666668</ele><time>2026-05-04T09:45:35.662Z</time></trkpt><trkpt lat="42.4750416" lon="18.6826976"><ele>15.333333333333334</ele><time>2026-05-04T09:45:36.664Z</time></trkpt><trkpt lat="42.4749279" lon="18.6825513"><ele>14.0</ele><time>2026-05-04T09:45:37.656Z</time></trkpt><trkpt lat="42.4748119" lon="18.6824059"><ele>14.0</ele><time>2026-05-04T09:45:38.661Z</time></trkpt><trkpt lat="42.4746939" lon="18.6822266"><ele>14.0</ele><time>2026-05-04T09:45:39.658Z</time></trkpt><trkpt lat="42.4745823" lon="18.6820669"><ele>14.0</ele><time>2026-05-04T09:45:40.66Z</time></trkpt><trkpt lat="42.4744734" lon="18.6819117"><ele>12.0</ele><time>2026-05-04T09:45:41.66Z</time></trkpt><trkpt lat="42.4743583" lon="18.6817403"><ele>10.0</ele><time>2026-05-04T09:45:42.658Z</time></trkpt><trkpt lat="42.47424" lon="18.6815695"><ele>8.0</ele><time>2026-05-04T09:45:43.662Z</time></trkpt><trkpt lat="42.4741293" lon="18.6814202"><ele>8.0</ele><time>2026-05-04T09:45:44.658Z</time></trkpt><trkpt lat="42.4740231" lon="18.6812503"><ele>8.0</ele><time>2026-05-04T09:45:45.658Z</time></trkpt><trkpt lat="42.4739216" lon="18.681105"><ele>8.0</ele><time>2026-05-04T09:45:46.659Z</time></trkpt><trkpt lat="42.4738152" lon="18.6809714"><ele>9.0</ele><time>2026-05-04T09:45:47.66Z</time></trkpt><trkpt lat="42.4736873" lon="18.6808697"><ele>10.0</ele><time>2026-05-04T09:45:48.658Z</time></trkpt><trkpt lat="42.4735496" lon="18.6807891"><ele>11.0</ele><time>2026-05-04T09:45:49.659Z</time></trkpt><trkpt lat="42.4733966" lon="18.6807192"><ele>11.0</ele><time>2026-05-04T09:45:50.656Z</time></trkpt><trkpt lat="42.4732469" lon="18.6806615"><ele>11.0</ele><time>2026-05-04T09:45:51.659Z</time></trkpt><trkpt lat="42.4731052" lon="18.6805818"><ele>11.0</ele><time>2026-05-04T09:45:52.659Z</time></trkpt><trkpt lat="42.472962" lon="18.6805199"><ele>8.333333333333332</ele><time>2026-05-04T09:45:53.66Z</time></trkpt><trkpt lat="42.4728133" lon="18.6804747"><ele>5.666666666666666</ele><time>2026-05-04T09:45:54.66Z</time></trkpt><trkpt lat="42.4726583" lon="18.6804761"><ele>3.0</ele><time>2026-05-04T09:45:55.661Z</time></trkpt><trkpt lat="42.4725022" lon="18.6805058"><ele>3.0</ele><time>2026-05-04T09:45:56.658Z</time></trkpt><trkpt lat="42.4723538" lon="18.6805289"><ele>3.0</ele><time>2026-05-04T09:45:57.668Z</time></trkpt><trkpt lat="42.472212" lon="18.6805499"><ele>3.0</ele><time>2026-05-04T09:45:58.66Z</time></trkpt><trkpt lat="42.4720747" lon="18.6805642"><ele>3.0</ele><time>2026-05-04T09:45:59.659Z</time></trkpt><trkpt lat="42.4719466" lon="18.6805521"><ele>2.75</ele><time>2026-05-04T09:46:00.66Z</time></trkpt><trkpt lat="42.4718293" lon="18.680522"><ele>2.5</ele><time>2026-05-04T09:46:01.662Z</time></trkpt><trkpt lat="42.4717112" lon="18.6804948"><ele>2.25</ele><time>2026-05-04T09:46:02.659Z</time></trkpt><trkpt lat="42.4715927" lon="18.6804553"><ele>2.0</ele><time>2026-05-04T09:46:03.659Z</time></trkpt><trkpt lat="42.4714827" lon="18.6804062"><ele>2.0</ele><time>2026-05-04T09:46:04.662Z</time></trkpt><trkpt lat="42.4713916" lon="18.6803451"><ele>2.0</ele><time>2026-05-04T09:46:05.658Z</time></trkpt><trkpt lat="42.4712946" lon="18.6802637"><ele>2.0</ele><time>2026-05-04T09:46:06.661Z</time></trkpt><trkpt lat="42.4712086" lon="18.680165"><ele>2.0</ele><time>2026-05-04T09:46:07.663Z</time></trkpt><trkpt lat="42.4711251" lon="18.6800236"><ele>2.25</ele><time>2026-05-04T09:46:08.66Z</time></trkpt><trkpt lat="42.4710545" lon="18.6798695"><ele>2.5</ele><time>2026-05-04T09:46:09.662Z</time></trkpt><trkpt lat="42.470991" lon="18.6796893"><ele>2.75</ele><time>2026-05-04T09:46:10.658Z</time></trkpt><trkpt lat="42.4709383" lon="18.6795023"><ele>3.0</ele><time>2026-05-04T09:46:11.664Z</time></trkpt><trkpt lat="42.4708897" lon="18.6793048"><ele>5.333333333333334</ele><time>2026-05-04T09:46:12.66Z</time></trkpt><trkpt lat="42.4708445" lon="18.6791106"><ele>7.666666666666667</ele><time>2026-05-04T09:46:13.663Z</time></trkpt><trkpt lat="42.4707985" lon="18.6789117"><ele>10.0</ele><time>2026-05-04T09:46:14.667Z</time></trkpt><trkpt lat="42.4707545" lon="18.6787092"><ele>12.0</ele><time>2026-05-04T09:46:15.66Z</time></trkpt><trkpt lat="42.4707056" lon="18.6785091"><ele>14.0</ele><time>2026-05-04T09:46:16.657Z</time></trkpt><trkpt lat="42.4706536" lon="18.6783159"><ele>16.0</ele><time>2026-05-04T09:46:17.662Z</time></trkpt><trkpt lat="42.470595" lon="18.6781329"><ele>16.0</ele><time>2026-05-04T09:46:18.657Z</time></trkpt><trkpt lat="42.4705209" lon="18.6779659"><ele>16.0</ele><time>2026-05-04T09:46:19.66Z</time></trkpt><trkpt lat="42.4704239" lon="18.677819"><ele>16.0</ele><time>2026-05-04T09:46:20.658Z</time></trkpt><trkpt lat="42.4703065" lon="18.6777"><ele>16.0</ele><time>2026-05-04T09:46:21.661Z</time></trkpt><trkpt lat="42.4701325" lon="18.6775953"><ele>13.666666666666666</ele><time>2026-05-04T09:46:22.658Z</time></trkpt><trkpt lat="42.4699756" lon="18.6774913"><ele>11.333333333333332</ele><time>2026-05-04T09:46:23.657Z</time></trkpt><trkpt lat="42.4698199" lon="18.6773746"><ele>9.0</ele><time>2026-05-04T09:46:24.659Z</time></trkpt><trkpt lat="42.4696675" lon="18.6772678"><ele>9.333333333333334</ele><time>2026-05-04T09:46:25.66Z</time></trkpt><trkpt lat="42.4695225" lon="18.6771487"><ele>9.666666666666668</ele><time>2026-05-04T09:46:26.66Z</time></trkpt><trkpt lat="42.4693878" lon="18.6770247"><ele>10.0</ele><time>2026-05-04T09:46:27.657Z</time></trkpt><trkpt lat="42.4692713" lon="18.6768992"><ele>9.5</ele><time>2026-05-04T09:46:28.659Z</time></trkpt><trkpt lat="42.4691712" lon="18.6767622"><ele>9.0</ele><time>2026-05-04T09:46:29.662Z</time></trkpt><trkpt lat="42.4690809" lon="18.6765969"><ele>8.5</ele><time>2026-05-04T09:46:30.659Z</time></trkpt><trkpt lat="42.4690077" lon="18.6764195"><ele>8.0</ele><time>2026-05-04T09:46:31.66Z</time></trkpt><trkpt lat="42.4689331" lon="18.6762447"><ele>7.75</ele><time>2026-05-04T09:46:32.656Z</time></trkpt><trkpt lat="42.4688494" lon="18.6760754"><ele>7.5</ele><time>2026-05-04T09:46:33.661Z</time></trkpt><trkpt lat="42.4687666" lon="18.6759227"><ele>7.25</ele><time>2026-05-04T09:46:34.659Z</time></trkpt><trkpt lat="42.4686621" lon="18.6757934"><ele>7.0</ele><time>2026-05-04T09:46:35.663Z</time></trkpt><trkpt lat="42.4685353" lon="18.6756769"><ele>6.75</ele><time>2026-05-04T09:46:36.661Z</time></trkpt><trkpt lat="42.4683974" lon="18.6755961"><ele>6.5</ele><time>2026-05-04T09:46:37.663Z</time></trkpt><trkpt lat="42.4682603" lon="18.6755512"><ele>6.25</ele><time>2026-05-04T09:46:38.662Z</time></trkpt><trkpt lat="42.4681255" lon="18.6755274"><ele>6.0</ele><time>2026-05-04T09:46:39.663Z</time></trkpt><trkpt lat="42.4679954" lon="18.6755282"><ele>6.199999999999999</ele><time>2026-05-04T09:46:40.659Z</time></trkpt><trkpt lat="42.4678864" lon="18.6755299"><ele>6.3999999999999995</ele><time>2026-05-04T09:46:41.66Z</time></trkpt><trkpt lat="42.4677815" lon="18.6755288"><ele>6.6</ele><time>2026-05-04T09:46:42.665Z</time></trkpt><trkpt lat="42.4676816" lon="18.6755036"><ele>6.8</ele><time>2026-05-04T09:46:43.66Z</time></trkpt><trkpt lat="42.4675835" lon="18.6754707"><ele>7.0</ele><time>2026-05-04T09:46:44.66Z</time></trkpt><trkpt lat="42.4674894" lon="18.6754107"><ele>7.0</ele><time>2026-05-04T09:46:45.661Z</time></trkpt><trkpt lat="42.4673979" lon="18.6753297"><ele>7.0</ele><time>2026-05-04T09:46:46.657Z</time></trkpt><trkpt lat="42.4673187" lon="18.6752176"><ele>7.0</ele><time>2026-05-04T09:46:47.661Z</time></trkpt><trkpt lat="42.4672312" lon="18.6750854"><ele>7.0</ele><time>2026-05-04T09:46:48.657Z</time></trkpt><trkpt lat="42.4671621" lon="18.6749542"><ele>6.8</ele><time>2026-05-04T09:46:49.662Z</time></trkpt><trkpt lat="42.4671013" lon="18.6748214"><ele>6.6</ele><time>2026-05-04T09:46:50.661Z</time></trkpt><trkpt lat="42.4670529" lon="18.6746791"><ele>6.3999999999999995</ele><time>2026-05-04T09:46:51.66Z</time></trkpt><trkpt lat="42.4669985" lon="18.674557"><ele>6.199999999999999</ele><time>2026-05-04T09:46:52.658Z</time></trkpt><trkpt lat="42.4669401" lon="18.674461"><ele>6.0</ele><time>2026-05-04T09:46:53.66Z</time></trkpt><trkpt lat="42.4668784" lon="18.6743777"><ele>5.5</ele><time>2026-05-04T09:46:54.659Z</time></trkpt><trkpt lat="42.4668149" lon="18.6743277"><ele>5.0</ele><time>2026-05-04T09:46:55.656Z</time></trkpt><trkpt lat="42.466753" lon="18.6742803"><ele>4.5</ele><time>2026-05-04T09:46:56.655Z</time></trkpt><trkpt lat="42.4666922" lon="18.674152"><ele>4.0</ele><time>2026-05-04T09:46:58.666Z</time></trkpt><trkpt lat="42.4666606" lon="18.6740658"><ele>3.5</ele><time>2026-05-04T09:46:59.66Z</time></trkpt><trkpt lat="42.4666311" lon="18.6739774"><ele>3.0</ele><time>2026-05-04T09:47:00.662Z</time></trkpt><trkpt lat="42.4665899" lon="18.6738786"><ele>3.0</ele><time>2026-05-04T09:47:01.659Z</time></trkpt><trkpt lat="42.4665475" lon="18.6737799"><ele>3.0</ele><time>2026-05-04T09:47:02.661Z</time></trkpt><trkpt lat="42.4664968" lon="18.6736691"><ele>3.0</ele><time>2026-05-04T09:47:03.662Z</time></trkpt><trkpt lat="42.4664609" lon="18.6735565"><ele>3.0</ele><time>2026-05-04T09:47:04.664Z</time></trkpt><trkpt lat="42.4664015" lon="18.6734811"><ele>3.0</ele><time>2026-05-04T09:47:05.661Z</time></trkpt><trkpt lat="42.4663314" lon="18.6734317"><ele>3.0</ele><time>2026-05-04T09:47:06.663Z</time></trkpt><trkpt lat="42.4662686" lon="18.6733943"><ele>2.8</ele><time>2026-05-04T09:47:07.661Z</time></trkpt><trkpt lat="42.4661879" lon="18.6733745"><ele>2.5999999999999996</ele><time>2026-05-04T09:47:08.66Z</time></trkpt><trkpt lat="42.4661049" lon="18.6733459"><ele>2.4000000000000004</ele><time>2026-05-04T09:47:09.658Z</time></trkpt><trkpt lat="42.4660035" lon="18.6733111"><ele>2.2</ele><time>2026-05-04T09:47:10.662Z</time></trkpt><trkpt lat="42.4658922" lon="18.673309"><ele>2.0</ele><time>2026-05-04T09:47:11.661Z</time></trkpt><trkpt lat="42.4657866" lon="18.6733261"><ele>2.0</ele><time>2026-05-04T09:47:12.66Z</time></trkpt><trkpt lat="42.465678" lon="18.6733389"><ele>2.0</ele><time>2026-05-04T09:47:13.664Z</time></trkpt><trkpt lat="42.4655685" lon="18.6733465"><ele>2.0</ele><time>2026-05-04T09:47:14.664Z</time></trkpt><trkpt lat="42.4654504" lon="18.6733495"><ele>2.0</ele><time>2026-05-04T09:47:15.662Z</time></trkpt><trkpt lat="42.4653095" lon="18.6733493"><ele>0.75</ele><time>2026-05-04T09:47:16.655Z</time></trkpt><trkpt lat="42.4651637" lon="18.6733338"><ele>-0.5</ele><time>2026-05-04T09:47:17.657Z</time></trkpt><trkpt lat="42.4650144" lon="18.6733262"><ele>-1.75</ele><time>2026-05-04T09:47:18.663Z</time></trkpt><trkpt lat="42.4648636" lon="18.6733321"><ele>-3.0</ele><time>2026-05-04T09:47:19.661Z</time></trkpt><trkpt lat="42.4647195" lon="18.6733331"><ele>-0.6666666666666667</ele><time>2026-05-04T09:47:20.663Z</time></trkpt><trkpt lat="42.4645676" lon="18.6733338"><ele>1.6666666666666665</ele><time>2026-05-04T09:47:21.662Z</time></trkpt><trkpt lat="42.4644172" lon="18.6733374"><ele>4.0</ele><time>2026-05-04T09:47:22.663Z</time></trkpt><trkpt lat="42.4642631" lon="18.6733428"><ele>4.0</ele><time>2026-05-04T09:47:23.663Z</time></trkpt><trkpt lat="42.4641096" lon="18.6733471"><ele>4.0</ele><time>2026-05-04T09:47:24.659Z</time></trkpt><trkpt lat="42.4639575" lon="18.673345"><ele>4.0</ele><time>2026-05-04T09:47:25.658Z</time></trkpt><trkpt lat="42.463819" lon="18.6733309"><ele>4.0</ele><time>2026-05-04T09:47:26.665Z</time></trkpt><trkpt lat="42.4636827" lon="18.673324"><ele>5.0</ele><time>2026-05-04T09:47:27.661Z</time></trkpt><trkpt lat="42.4635558" lon="18.6732975"><ele>6.0</ele><time>2026-05-04T09:47:28.664Z</time></trkpt><trkpt lat="42.4634367" lon="18.673235"><ele>7.0</ele><time>2026-05-04T09:47:29.662Z</time></trkpt><trkpt lat="42.4633336" lon="18.6731758"><ele>8.0</ele><time>2026-05-04T09:47:30.665Z</time></trkpt><trkpt lat="42.4632272" lon="18.6731119"><ele>8.0</ele><time>2026-05-04T09:47:31.661Z</time></trkpt><trkpt lat="42.4631296" lon="18.6730576"><ele>8.0</ele><time>2026-05-04T09:47:32.657Z</time></trkpt><trkpt lat="42.4630194" lon="18.672999"><ele>8.0</ele><time>2026-05-04T09:47:33.66Z</time></trkpt><trkpt lat="42.4629064" lon="18.6729549"><ele>8.0</ele><time>2026-05-04T09:47:34.663Z</time></trkpt><trkpt lat="42.4627865" lon="18.6729216"><ele>7.75</ele><time>2026-05-04T09:47:35.658Z</time></trkpt><trkpt lat="42.462655" lon="18.6729103"><ele>7.5</ele><time>2026-05-04T09:47:36.659Z</time></trkpt><trkpt lat="42.4625171" lon="18.6729125"><ele>7.25</ele><time>2026-05-04T09:47:37.658Z</time></trkpt><trkpt lat="42.4623769" lon="18.6729349"><ele>7.0</ele><time>2026-05-04T09:47:38.657Z</time></trkpt><trkpt lat="42.4622304" lon="18.6729791"><ele>4.666666666666667</ele><time>2026-05-04T09:47:39.658Z</time></trkpt><trkpt lat="42.4620792" lon="18.6730479"><ele>2.3333333333333335</ele><time>2026-05-04T09:47:40.66Z</time></trkpt><trkpt lat="42.4619304" lon="18.673142"><ele>0.0</ele><time>2026-05-04T09:47:41.658Z</time></trkpt><trkpt lat="42.4617784" lon="18.6732625"><ele>0.0</ele><time>2026-05-04T09:47:42.659Z</time></trkpt><trkpt lat="42.4616304" lon="18.6733973"><ele>0.0</ele><time>2026-05-04T09:47:43.659Z</time></trkpt><trkpt lat="42.4614808" lon="18.6735481"><ele>0.0</ele><time>2026-05-04T09:47:44.663Z</time></trkpt><trkpt lat="42.4613466" lon="18.673711"><ele>5.0</ele><time>2026-05-04T09:47:45.662Z</time></trkpt><trkpt lat="42.4612319" lon="18.673895"><ele>10.0</ele><time>2026-05-04T09:47:46.663Z</time></trkpt><trkpt lat="42.4611354" lon="18.6740862"><ele>15.0</ele><time>2026-05-04T09:47:47.663Z</time></trkpt><trkpt lat="42.4610694" lon="18.67429"><ele>12.25</ele><time>2026-05-04T09:47:48.66Z</time></trkpt><trkpt lat="42.4610086" lon="18.6744737"><ele>9.5</ele><time>2026-05-04T09:47:49.658Z</time></trkpt><trkpt lat="42.4609453" lon="18.6746497"><ele>6.75</ele><time>2026-05-04T09:47:50.663Z</time></trkpt><trkpt lat="42.4608873" lon="18.6747998"><ele>4.0</ele><time>2026-05-04T09:47:51.66Z</time></trkpt><trkpt lat="42.4608118" lon="18.6749284"><ele>4.0</ele><time>2026-05-04T09:47:52.665Z</time></trkpt><trkpt lat="42.4607286" lon="18.6750497"><ele>4.0</ele><time>2026-05-04T09:47:53.662Z</time></trkpt><trkpt lat="42.4606345" lon="18.6751564"><ele>4.0</ele><time>2026-05-04T09:47:54.659Z</time></trkpt><trkpt lat="42.4605396" lon="18.6752501"><ele>4.0</ele><time>2026-05-04T09:47:55.66Z</time></trkpt><trkpt lat="42.4604322" lon="18.6753292"><ele>4.0</ele><time>2026-05-04T09:47:56.66Z</time></trkpt><trkpt lat="42.4603161" lon="18.6753857"><ele>4.0</ele><time>2026-05-04T09:47:57.662Z</time></trkpt><trkpt lat="42.4602173" lon="18.6754463"><ele>4.0</ele><time>2026-05-04T09:47:58.659Z</time></trkpt><trkpt lat="42.4600939" lon="18.6754709"><ele>4.0</ele><time>2026-05-04T09:47:59.66Z</time></trkpt><trkpt lat="42.4599739" lon="18.6754623"><ele>4.0</ele><time>2026-05-04T09:48:00.661Z</time></trkpt><trkpt lat="42.4598758" lon="18.6754197"><ele>4.0</ele><time>2026-05-04T09:48:01.66Z</time></trkpt><trkpt lat="42.4597806" lon="18.6753695"><ele>4.0</ele><time>2026-05-04T09:48:02.664Z</time></trkpt><trkpt lat="42.4596988" lon="18.675299"><ele>4.0</ele><time>2026-05-04T09:48:03.661Z</time></trkpt><trkpt lat="42.4596153" lon="18.675186"><ele>4.0</ele><time>2026-05-04T09:48:04.659Z</time></trkpt><trkpt lat="42.4595657" lon="18.6750838"><ele>4.0</ele><time>2026-05-04T09:48:05.657Z</time></trkpt><trkpt lat="42.4595303" lon="18.674912"><ele>4.0</ele><time>2026-05-04T09:48:06.66Z</time></trkpt><trkpt lat="42.4595222" lon="18.6747411"><ele>4.0</ele><time>2026-05-04T09:48:07.659Z</time></trkpt><trkpt lat="42.4595192" lon="18.6745563"><ele>4.0</ele><time>2026-05-04T09:48:08.657Z</time></trkpt><trkpt lat="42.4595189" lon="18.6743283"><ele>4.333333333333333</ele><time>2026-05-04T09:48:09.661Z</time></trkpt><trkpt lat="42.4595203" lon="18.6741222"><ele>4.666666666666667</ele><time>2026-05-04T09:48:10.662Z</time></trkpt><trkpt lat="42.4595221" lon="18.673885"><ele>5.0</ele><time>2026-05-04T09:48:11.658Z</time></trkpt><trkpt lat="42.4595282" lon="18.6736424"><ele>5.0</ele><time>2026-05-04T09:48:12.66Z</time></trkpt><trkpt lat="42.4595301" lon="18.6734176"><ele>5.0</ele><time>2026-05-04T09:48:13.662Z</time></trkpt><trkpt lat="42.4595289" lon="18.6732044"><ele>5.0</ele><time>2026-05-04T09:48:14.664Z</time></trkpt><trkpt lat="42.4595297" lon="18.6729964"><ele>5.0</ele><time>2026-05-04T09:48:15.661Z</time></trkpt><trkpt lat="42.4595366" lon="18.6727865"><ele>5.0</ele><time>2026-05-04T09:48:16.66Z</time></trkpt><trkpt lat="42.459531" lon="18.6725634"><ele>5.0</ele><time>2026-05-04T09:48:17.662Z</time></trkpt><trkpt lat="42.4595184" lon="18.6723593"><ele>5.0</ele><time>2026-05-04T09:48:18.663Z</time></trkpt><trkpt lat="42.4595007" lon="18.6721506"><ele>5.0</ele><time>2026-05-04T09:48:19.657Z</time></trkpt><trkpt lat="42.4594785" lon="18.671947"><ele>5.0</ele><time>2026-05-04T09:48:20.661Z</time></trkpt><trkpt lat="42.4594385" lon="18.6717364"><ele>6.0</ele><time>2026-05-04T09:48:21.661Z</time></trkpt><trkpt lat="42.4593743" lon="18.6715255"><ele>7.0</ele><time>2026-05-04T09:48:22.664Z</time></trkpt><trkpt lat="42.4592989" lon="18.6713174"><ele>8.0</ele><time>2026-05-04T09:48:23.66Z</time></trkpt><trkpt lat="42.4592227" lon="18.671109"><ele>10.333333333333332</ele><time>2026-05-04T09:48:24.663Z</time></trkpt><trkpt lat="42.459147" lon="18.6709001"><ele>12.666666666666666</ele><time>2026-05-04T09:48:25.659Z</time></trkpt><trkpt lat="42.4590732" lon="18.6706927"><ele>15.0</ele><time>2026-05-04T09:48:26.659Z</time></trkpt><trkpt lat="42.4589935" lon="18.670494"><ele>15.0</ele><time>2026-05-04T09:48:27.659Z</time></trkpt><trkpt lat="42.4589025" lon="18.6703009"><ele>15.0</ele><time>2026-05-04T09:48:28.666Z</time></trkpt><trkpt lat="42.4587974" lon="18.670115"><ele>15.0</ele><time>2026-05-04T09:48:29.66Z</time></trkpt><trkpt lat="42.458685" lon="18.6699238"><ele>15.333333333333332</ele><time>2026-05-04T09:48:30.662Z</time></trkpt><trkpt lat="42.4585623" lon="18.6697352"><ele>15.666666666666666</ele><time>2026-05-04T09:48:31.663Z</time></trkpt><trkpt lat="42.4584381" lon="18.6695447"><ele>16.0</ele><time>2026-05-04T09:48:32.66Z</time></trkpt><trkpt lat="42.458316" lon="18.6693523"><ele>16.0</ele><time>2026-05-04T09:48:33.661Z</time></trkpt><trkpt lat="42.4581954" lon="18.6691625"><ele>16.0</ele><time>2026-05-04T09:48:34.661Z</time></trkpt><trkpt lat="42.4580764" lon="18.6689999"><ele>16.0</ele><time>2026-05-04T09:48:35.659Z</time></trkpt><trkpt lat="42.4579665" lon="18.6688028"><ele>13.666666666666666</ele><time>2026-05-04T09:48:36.658Z</time></trkpt><trkpt lat="42.4578571" lon="18.6686185"><ele>11.333333333333332</ele><time>2026-05-04T09:48:37.66Z</time></trkpt><trkpt lat="42.4577702" lon="18.6684354"><ele>9.0</ele><time>2026-05-04T09:48:38.659Z</time></trkpt><trkpt lat="42.4576885" lon="18.668234"><ele>9.0</ele><time>2026-05-04T09:48:39.66Z</time></trkpt><trkpt lat="42.4576386" lon="18.6680618"><ele>9.0</ele><time>2026-05-04T09:48:40.661Z</time></trkpt><trkpt lat="42.457599" lon="18.6678816"><ele>9.0</ele><time>2026-05-04T09:48:41.659Z</time></trkpt><trkpt lat="42.4575789" lon="18.6677173"><ele>9.0</ele><time>2026-05-04T09:48:42.658Z</time></trkpt><trkpt lat="42.4575728" lon="18.6675057"><ele>9.0</ele><time>2026-05-04T09:48:43.659Z</time></trkpt><trkpt lat="42.4575697" lon="18.6672986"><ele>9.0</ele><time>2026-05-04T09:48:44.659Z</time></trkpt><trkpt lat="42.4575677" lon="18.6670928"><ele>9.0</ele><time>2026-05-04T09:48:45.661Z</time></trkpt><trkpt lat="42.4575683" lon="18.666871"><ele>9.333333333333334</ele><time>2026-05-04T09:48:46.661Z</time></trkpt><trkpt lat="42.4575683" lon="18.6666528"><ele>9.666666666666668</ele><time>2026-05-04T09:48:47.659Z</time></trkpt><trkpt lat="42.4575672" lon="18.6664306"><ele>10.0</ele><time>2026-05-04T09:48:48.66Z</time></trkpt><trkpt lat="42.4575653" lon="18.6662068"><ele>11.0</ele><time>2026-05-04T09:48:49.662Z</time></trkpt><trkpt lat="42.4575641" lon="18.6659822"><ele>12.0</ele><time>2026-05-04T09:48:50.656Z</time></trkpt><trkpt lat="42.4575622" lon="18.6657619"><ele>13.0</ele><time>2026-05-04T09:48:51.658Z</time></trkpt><trkpt lat="42.4575587" lon="18.6655383"><ele>13.0</ele><time>2026-05-04T09:48:52.659Z</time></trkpt><trkpt lat="42.457554" lon="18.6653171"><ele>13.0</ele><time>2026-05-04T09:48:53.659Z</time></trkpt><trkpt lat="42.4575509" lon="18.665097"><ele>13.0</ele><time>2026-05-04T09:48:54.66Z</time></trkpt><trkpt lat="42.4575453" lon="18.6648785"><ele>12.333333333333332</ele><time>2026-05-04T09:48:55.66Z</time></trkpt><trkpt lat="42.4575362" lon="18.6646587"><ele>11.666666666666666</ele><time>2026-05-04T09:48:56.66Z</time></trkpt><trkpt lat="42.4575246" lon="18.66444"><ele>11.0</ele><time>2026-05-04T09:48:57.658Z</time></trkpt><trkpt lat="42.45751" lon="18.6642273"><ele>10.666666666666666</ele><time>2026-05-04T09:48:58.658Z</time></trkpt><trkpt lat="42.4574947" lon="18.6640128"><ele>10.333333333333334</ele><time>2026-05-04T09:48:59.658Z</time></trkpt><trkpt lat="42.4574783" lon="18.6637963"><ele>10.0</ele><time>2026-05-04T09:49:00.661Z</time></trkpt><trkpt lat="42.4574597" lon="18.6635837"><ele>11.666666666666668</ele><time>2026-05-04T09:49:01.66Z</time></trkpt><trkpt lat="42.4574359" lon="18.6633702"><ele>13.333333333333334</ele><time>2026-05-04T09:49:02.658Z</time></trkpt><trkpt lat="42.4574082" lon="18.6631585"><ele>15.0</ele><time>2026-05-04T09:49:03.66Z</time></trkpt><trkpt lat="42.4573791" lon="18.6629455"><ele>14.666666666666668</ele><time>2026-05-04T09:49:04.659Z</time></trkpt><trkpt lat="42.4573473" lon="18.6627267"><ele>14.333333333333334</ele><time>2026-05-04T09:49:05.661Z</time></trkpt><trkpt lat="42.4573098" lon="18.6625058"><ele>14.0</ele><time>2026-05-04T09:49:06.662Z</time></trkpt><trkpt lat="42.4572676" lon="18.6623001"><ele>14.0</ele><time>2026-05-04T09:49:07.66Z</time></trkpt><trkpt lat="42.4572302" lon="18.6621052"><ele>14.0</ele><time>2026-05-04T09:49:08.662Z</time></trkpt><trkpt lat="42.4571927" lon="18.6619192"><ele>14.0</ele><time>2026-05-04T09:49:09.662Z</time></trkpt><trkpt lat="42.4571522" lon="18.6617311"><ele>14.0</ele><time>2026-05-04T09:49:10.66Z</time></trkpt><trkpt lat="42.4571106" lon="18.6615429"><ele>12.25</ele><time>2026-05-04T09:49:11.657Z</time></trkpt><trkpt lat="42.4570657" lon="18.6613541"><ele>10.5</ele><time>2026-05-04T09:49:12.659Z</time></trkpt><trkpt lat="42.4570161" lon="18.6611731"><ele>8.75</ele><time>2026-05-04T09:49:13.66Z</time></trkpt><trkpt lat="42.4569694" lon="18.6610042"><ele>7.0</ele><time>2026-05-04T09:49:14.661Z</time></trkpt><trkpt lat="42.4569232" lon="18.6608402"><ele>7.0</ele><time>2026-05-04T09:49:15.659Z</time></trkpt><trkpt lat="42.456876" lon="18.6606862"><ele>7.0</ele><time>2026-05-04T09:49:16.661Z</time></trkpt><trkpt lat="42.456827" lon="18.6605405"><ele>7.0</ele><time>2026-05-04T09:49:17.662Z</time></trkpt><trkpt lat="42.4567856" lon="18.6604017"><ele>7.0</ele><time>2026-05-04T09:49:18.661Z</time></trkpt><trkpt lat="42.4567455" lon="18.6602742"><ele>8.0</ele><time>2026-05-04T09:49:19.658Z</time></trkpt><trkpt lat="42.4567001" lon="18.66014"><ele>9.0</ele><time>2026-05-04T09:49:20.66Z</time></trkpt><trkpt lat="42.4566479" lon="18.6599971"><ele>10.0</ele><time>2026-05-04T09:49:21.662Z</time></trkpt><trkpt lat="42.4565792" lon="18.6598367"><ele>11.0</ele><time>2026-05-04T09:49:22.657Z</time></trkpt><trkpt lat="42.456498" lon="18.6596352"><ele>11.333333333333332</ele><time>2026-05-04T09:49:23.66Z</time></trkpt><trkpt lat="42.4564226" lon="18.6594215"><ele>11.666666666666666</ele><time>2026-05-04T09:49:24.659Z</time></trkpt><trkpt lat="42.456353" lon="18.6591915"><ele>12.0</ele><time>2026-05-04T09:49:25.657Z</time></trkpt><trkpt lat="42.4562799" lon="18.6589729"><ele>11.666666666666666</ele><time>2026-05-04T09:49:26.66Z</time></trkpt><trkpt lat="42.4562039" lon="18.6587573"><ele>11.333333333333332</ele><time>2026-05-04T09:49:27.657Z</time></trkpt><trkpt lat="42.4561331" lon="18.6585533"><ele>11.0</ele><time>2026-05-04T09:49:28.659Z</time></trkpt><trkpt lat="42.4560644" lon="18.6583601"><ele>11.0</ele><time>2026-05-04T09:49:29.66Z</time></trkpt><trkpt lat="42.4560001" lon="18.6581792"><ele>11.0</ele><time>2026-05-04T09:49:30.66Z</time></trkpt><trkpt lat="42.4559394" lon="18.6580039"><ele>11.0</ele><time>2026-05-04T09:49:31.659Z</time></trkpt><trkpt lat="42.4558776" lon="18.6578298"><ele>11.0</ele><time>2026-05-04T09:49:32.66Z</time></trkpt><trkpt lat="42.455815" lon="18.6576575"><ele>11.0</ele><time>2026-05-04T09:49:33.658Z</time></trkpt><trkpt lat="42.4557524" lon="18.6574861"><ele>11.0</ele><time>2026-05-04T09:49:34.664Z</time></trkpt><trkpt lat="42.4556963" lon="18.6573224"><ele>11.0</ele><time>2026-05-04T09:49:35.663Z</time></trkpt><trkpt lat="42.4556421" lon="18.6571788"><ele>11.0</ele><time>2026-05-04T09:49:36.663Z</time></trkpt><trkpt lat="42.4555932" lon="18.6570354"><ele>11.4</ele><time>2026-05-04T09:49:37.661Z</time></trkpt><trkpt lat="42.4555494" lon="18.656898"><ele>11.8</ele><time>2026-05-04T09:49:38.658Z</time></trkpt><trkpt lat="42.4554963" lon="18.6567575"><ele>12.200000000000001</ele><time>2026-05-04T09:49:39.66Z</time></trkpt><trkpt lat="42.4554538" lon="18.6566369"><ele>12.600000000000001</ele><time>2026-05-04T09:49:40.656Z</time></trkpt><trkpt lat="42.4554165" lon="18.6565408"><ele>13.0</ele><time>2026-05-04T09:49:41.657Z</time></trkpt><trkpt lat="42.4553805" lon="18.6564389"><ele>12.833333333333332</ele><time>2026-05-04T09:49:42.661Z</time></trkpt><trkpt lat="42.4553506" lon="18.6563471"><ele>12.666666666666666</ele><time>2026-05-04T09:49:43.66Z</time></trkpt><trkpt lat="42.4553072" lon="18.6562107"><ele>12.5</ele><time>2026-05-04T09:49:45.668Z</time></trkpt><trkpt lat="42.455266" lon="18.6560887"><ele>12.333333333333332</ele><time>2026-05-04T09:49:47.661Z</time></trkpt><trkpt lat="42.4552395" lon="18.6560061"><ele>12.166666666666666</ele><time>2026-05-04T09:49:48.661Z</time></trkpt><trkpt lat="42.4552077" lon="18.6559304"><ele>12.0</ele><time>2026-05-04T09:49:49.66Z</time></trkpt><trkpt lat="42.4551775" lon="18.6558287"><ele>12.0</ele><time>2026-05-04T09:49:50.661Z</time></trkpt><trkpt lat="42.4551423" lon="18.6557411"><ele>12.0</ele><time>2026-05-04T09:49:51.659Z</time></trkpt><trkpt lat="42.4551056" lon="18.6556548"><ele>12.0</ele><time>2026-05-04T09:49:52.659Z</time></trkpt><trkpt lat="42.4550676" lon="18.6555799"><ele>12.0</ele><time>2026-05-04T09:49:53.662Z</time></trkpt><trkpt lat="42.455037" lon="18.6554965"><ele>12.0</ele><time>2026-05-04T09:49:54.663Z</time></trkpt><trkpt lat="42.4549708" lon="18.6553594"><ele>12.0</ele><time>2026-05-04T09:49:56.658Z</time></trkpt><trkpt lat="42.4549366" lon="18.6552842"><ele>12.333333333333334</ele><time>2026-05-04T09:49:57.66Z</time></trkpt><trkpt lat="42.4549078" lon="18.6552073"><ele>12.666666666666668</ele><time>2026-05-04T09:49:58.657Z</time></trkpt><trkpt lat="42.4548341" lon="18.6550672"><ele>13.0</ele><time>2026-05-04T09:50:00.661Z</time></trkpt><trkpt lat="42.4547916" lon="18.6549801"><ele>13.333333333333334</ele><time>2026-05-04T09:50:01.655Z</time></trkpt><trkpt lat="42.4547523" lon="18.6549049"><ele>13.666666666666668</ele><time>2026-05-04T09:50:02.66Z</time></trkpt><trkpt lat="42.4547163" lon="18.6548293"><ele>14.0</ele><time>2026-05-04T09:50:03.657Z</time></trkpt><trkpt lat="42.4546537" lon="18.6546985"><ele>13.166666666666668</ele><time>2026-05-04T09:50:05.66Z</time></trkpt><trkpt lat="42.4545996" lon="18.6546039"><ele>12.333333333333334</ele><time>2026-05-04T09:50:07.661Z</time></trkpt><trkpt lat="42.4545438" lon="18.654507"><ele>11.5</ele><time>2026-05-04T09:50:09.655Z</time></trkpt><trkpt lat="42.454461" lon="18.6543815"><ele>10.666666666666668</ele><time>2026-05-04T09:50:11.658Z</time></trkpt><trkpt lat="42.4544178" lon="18.6543073"><ele>9.833333333333334</ele><time>2026-05-04T09:50:12.662Z</time></trkpt><trkpt lat="42.4543786" lon="18.6542314"><ele>9.0</ele><time>2026-05-04T09:50:13.66Z</time></trkpt><trkpt lat="42.4543439" lon="18.6541559"><ele>8.833333333333334</ele><time>2026-05-04T09:50:14.665Z</time></trkpt><trkpt lat="42.4542607" lon="18.6540137"><ele>8.666666666666666</ele><time>2026-05-04T09:50:16.657Z</time></trkpt><trkpt lat="42.454218" lon="18.6539364"><ele>8.5</ele><time>2026-05-04T09:50:17.665Z</time></trkpt><trkpt lat="42.4541715" lon="18.6538531"><ele>8.333333333333332</ele><time>2026-05-04T09:50:18.657Z</time></trkpt><trkpt lat="42.4541302" lon="18.6537701"><ele>8.166666666666666</ele><time>2026-05-04T09:50:19.657Z</time></trkpt><trkpt lat="42.4540819" lon="18.6536886"><ele>8.0</ele><time>2026-05-04T09:50:20.659Z</time></trkpt><trkpt lat="42.454029" lon="18.6536065"><ele>7.999999999999999</ele><time>2026-05-04T09:50:21.662Z</time></trkpt><trkpt lat="42.4539798" lon="18.6535177"><ele>8.0</ele><time>2026-05-04T09:50:22.66Z</time></trkpt><trkpt lat="42.4539204" lon="18.6534315"><ele>8.0</ele><time>2026-05-04T09:50:23.662Z</time></trkpt><trkpt lat="42.4538743" lon="18.6533447"><ele>8.0</ele><time>2026-05-04T09:50:24.659Z</time></trkpt><trkpt lat="42.4538189" lon="18.6532606"><ele>7.999999999999999</ele><time>2026-05-04T09:50:25.656Z</time></trkpt><trkpt lat="42.4537738" lon="18.653179"><ele>8.0</ele><time>2026-05-04T09:50:26.658Z</time></trkpt><trkpt lat="42.453726" lon="18.6530821"><ele>7.999999999999999</ele><time>2026-05-04T09:50:27.658Z</time></trkpt><trkpt lat="42.4536676" lon="18.6529932"><ele>8.0</ele><time>2026-05-04T09:50:28.659Z</time></trkpt><trkpt lat="42.4536124" lon="18.6528886"><ele>8.0</ele><time>2026-05-04T09:50:29.658Z</time></trkpt><trkpt lat="42.4535613" lon="18.6527952"><ele>8.0</ele><time>2026-05-04T09:50:30.665Z</time></trkpt><trkpt lat="42.4535062" lon="18.6527062"><ele>7.999999999999999</ele><time>2026-05-04T09:50:31.659Z</time></trkpt><trkpt lat="42.4534508" lon="18.6526143"><ele>8.0</ele><time>2026-05-04T09:50:32.664Z</time></trkpt><trkpt lat="42.4533874" lon="18.6525195"><ele>8.600000000000001</ele><time>2026-05-04T09:50:33.658Z</time></trkpt><trkpt lat="42.4533211" lon="18.6524071"><ele>9.200000000000001</ele><time>2026-05-04T09:50:34.66Z</time></trkpt><trkpt lat="42.4532594" lon="18.6523044"><ele>9.8</ele><time>2026-05-04T09:50:35.659Z</time></trkpt><trkpt lat="42.4532009" lon="18.6521891"><ele>10.4</ele><time>2026-05-04T09:50:36.659Z</time></trkpt><trkpt lat="42.4531386" lon="18.6520775"><ele>11.0</ele><time>2026-05-04T09:50:37.661Z</time></trkpt><trkpt lat="42.4530759" lon="18.6519742"><ele>11.600000000000001</ele><time>2026-05-04T09:50:38.663Z</time></trkpt><trkpt lat="42.4530048" lon="18.6518578"><ele>12.2</ele><time>2026-05-04T09:50:39.66Z</time></trkpt><trkpt lat="42.4529398" lon="18.6517429"><ele>12.799999999999999</ele><time>2026-05-04T09:50:40.659Z</time></trkpt><trkpt lat="42.4528761" lon="18.6516296"><ele>13.399999999999999</ele><time>2026-05-04T09:50:41.661Z</time></trkpt><trkpt lat="42.4528136" lon="18.6515283"><ele>14.0</ele><time>2026-05-04T09:50:42.661Z</time></trkpt><trkpt lat="42.4527562" lon="18.6514332"><ele>14.000000000000002</ele><time>2026-05-04T09:50:43.66Z</time></trkpt><trkpt lat="42.4527006" lon="18.6513402"><ele>14.0</ele><time>2026-05-04T09:50:44.659Z</time></trkpt><trkpt lat="42.4526492" lon="18.65125"><ele>14.0</ele><time>2026-05-04T09:50:45.658Z</time></trkpt><trkpt lat="42.4525962" lon="18.651161"><ele>14.0</ele><time>2026-05-04T09:50:46.661Z</time></trkpt><trkpt lat="42.4525349" lon="18.6510719"><ele>14.000000000000002</ele><time>2026-05-04T09:50:47.661Z</time></trkpt><trkpt lat="42.4524697" lon="18.650968"><ele>14.0</ele><time>2026-05-04T09:50:48.659Z</time></trkpt><trkpt lat="42.4524045" lon="18.6508707"><ele>14.0</ele><time>2026-05-04T09:50:49.663Z</time></trkpt><trkpt lat="42.4523336" lon="18.6507657"><ele>13.999999999999998</ele><time>2026-05-04T09:50:50.66Z</time></trkpt><trkpt lat="42.4522626" lon="18.6506597"><ele>13.999999999999998</ele><time>2026-05-04T09:50:51.661Z</time></trkpt><trkpt lat="42.4521824" lon="18.6505469"><ele>14.0</ele><time>2026-05-04T09:50:52.661Z</time></trkpt><trkpt lat="42.4521033" lon="18.6504215"><ele>14.0</ele><time>2026-05-04T09:50:53.659Z</time></trkpt><trkpt lat="42.4520185" lon="18.6502941"><ele>13.5</ele><time>2026-05-04T09:50:54.66Z</time></trkpt><trkpt lat="42.4519291" lon="18.6501577"><ele>13.0</ele><time>2026-05-04T09:50:55.66Z</time></trkpt><trkpt lat="42.4518462" lon="18.6500244"><ele>12.5</ele><time>2026-05-04T09:50:56.661Z</time></trkpt><trkpt lat="42.4517526" lon="18.6498893"><ele>12.0</ele><time>2026-05-04T09:50:57.659Z</time></trkpt><trkpt lat="42.4516622" lon="18.6497483"><ele>12.0</ele><time>2026-05-04T09:50:58.664Z</time></trkpt><trkpt lat="42.4515806" lon="18.64961"><ele>12.0</ele><time>2026-05-04T09:50:59.661Z</time></trkpt><trkpt lat="42.4514791" lon="18.6494614"><ele>12.0</ele><time>2026-05-04T09:51:00.661Z</time></trkpt><trkpt lat="42.451386" lon="18.6493194"><ele>12.0</ele><time>2026-05-04T09:51:01.658Z</time></trkpt><trkpt lat="42.4512851" lon="18.6491627"><ele>10.333333333333334</ele><time>2026-05-04T09:51:02.661Z</time></trkpt><trkpt lat="42.4511831" lon="18.6490158"><ele>8.666666666666668</ele><time>2026-05-04T09:51:03.657Z</time></trkpt><trkpt lat="42.4510763" lon="18.6488693"><ele>7.0</ele><time>2026-05-04T09:51:04.66Z</time></trkpt><trkpt lat="42.4509649" lon="18.6487186"><ele>7.666666666666667</ele><time>2026-05-04T09:51:05.657Z</time></trkpt><trkpt lat="42.4508595" lon="18.6485627"><ele>8.333333333333334</ele><time>2026-05-04T09:51:06.663Z</time></trkpt><trkpt lat="42.4507531" lon="18.6484017"><ele>9.0</ele><time>2026-05-04T09:51:07.659Z</time></trkpt><trkpt lat="42.4506594" lon="18.6482393"><ele>9.0</ele><time>2026-05-04T09:51:08.66Z</time></trkpt><trkpt lat="42.4505678" lon="18.6480824"><ele>9.0</ele><time>2026-05-04T09:51:09.66Z</time></trkpt><trkpt lat="42.4504818" lon="18.6479265"><ele>9.0</ele><time>2026-05-04T09:51:10.661Z</time></trkpt><trkpt lat="42.4503966" lon="18.6477655"><ele>9.0</ele><time>2026-05-04T09:51:11.656Z</time></trkpt><trkpt lat="42.4503044" lon="18.6476013"><ele>9.0</ele><time>2026-05-04T09:51:12.655Z</time></trkpt><trkpt lat="42.4502183" lon="18.6474307"><ele>9.0</ele><time>2026-05-04T09:51:13.661Z</time></trkpt><trkpt lat="42.4501397" lon="18.6472661"><ele>9.0</ele><time>2026-05-04T09:51:14.662Z</time></trkpt><trkpt lat="42.4500586" lon="18.6470918"><ele>9.0</ele><time>2026-05-04T09:51:15.658Z</time></trkpt><trkpt lat="42.4499828" lon="18.6469199"><ele>9.0</ele><time>2026-05-04T09:51:16.659Z</time></trkpt><trkpt lat="42.4499132" lon="18.6467307"><ele>9.0</ele><time>2026-05-04T09:51:17.658Z</time></trkpt><trkpt lat="42.4498344" lon="18.6465439"><ele>9.0</ele><time>2026-05-04T09:51:18.657Z</time></trkpt><trkpt lat="42.4497627" lon="18.6463543"><ele>9.0</ele><time>2026-05-04T09:51:19.659Z</time></trkpt><trkpt lat="42.4496946" lon="18.646168"><ele>9.0</ele><time>2026-05-04T09:51:20.661Z</time></trkpt><trkpt lat="42.449626" lon="18.6459778"><ele>9.0</ele><time>2026-05-04T09:51:21.66Z</time></trkpt><trkpt lat="42.4495571" lon="18.6457809"><ele>8.333333333333334</ele><time>2026-05-04T09:51:22.659Z</time></trkpt><trkpt lat="42.4494941" lon="18.6455872"><ele>7.666666666666667</ele><time>2026-05-04T09:51:23.658Z</time></trkpt><trkpt lat="42.4494273" lon="18.6453914"><ele>7.0</ele><time>2026-05-04T09:51:24.659Z</time></trkpt><trkpt lat="42.4493586" lon="18.645197"><ele>7.0</ele><time>2026-05-04T09:51:25.659Z</time></trkpt><trkpt lat="42.4492844" lon="18.6450087"><ele>7.0</ele><time>2026-05-04T09:51:26.659Z</time></trkpt><trkpt lat="42.449202" lon="18.6448377"><ele>7.0</ele><time>2026-05-04T09:51:27.661Z</time></trkpt><trkpt lat="42.449118" lon="18.6446569"><ele>7.0</ele><time>2026-05-04T09:51:28.657Z</time></trkpt><trkpt lat="42.4490274" lon="18.6444779"><ele>7.0</ele><time>2026-05-04T09:51:29.658Z</time></trkpt><trkpt lat="42.4489324" lon="18.6443124"><ele>7.0</ele><time>2026-05-04T09:51:30.658Z</time></trkpt><trkpt lat="42.4488356" lon="18.6441532"><ele>7.333333333333334</ele><time>2026-05-04T09:51:31.661Z</time></trkpt><trkpt lat="42.4487298" lon="18.6440048"><ele>7.666666666666666</ele><time>2026-05-04T09:51:32.659Z</time></trkpt><trkpt lat="42.4486166" lon="18.6438532"><ele>8.0</ele><time>2026-05-04T09:51:33.656Z</time></trkpt><trkpt lat="42.4485049" lon="18.6437067"><ele>11.0</ele><time>2026-05-04T09:51:34.657Z</time></trkpt><trkpt lat="42.4483891" lon="18.6435608"><ele>14.0</ele><time>2026-05-04T09:51:35.656Z</time></trkpt><trkpt lat="42.4482606" lon="18.6434295"><ele>17.0</ele><time>2026-05-04T09:51:36.658Z</time></trkpt><trkpt lat="42.4481333" lon="18.643308"><ele>17.0</ele><time>2026-05-04T09:51:37.659Z</time></trkpt><trkpt lat="42.4479991" lon="18.6431828"><ele>17.0</ele><time>2026-05-04T09:51:38.659Z</time></trkpt><trkpt lat="42.4478654" lon="18.64308"><ele>17.0</ele><time>2026-05-04T09:51:39.655Z</time></trkpt><trkpt lat="42.4477307" lon="18.6429741"><ele>16.333333333333336</ele><time>2026-05-04T09:51:40.657Z</time></trkpt><trkpt lat="42.4475905" lon="18.6428795"><ele>15.666666666666668</ele><time>2026-05-04T09:51:41.661Z</time></trkpt><trkpt lat="42.4474495" lon="18.6427888"><ele>15.0</ele><time>2026-05-04T09:51:42.658Z</time></trkpt><trkpt lat="42.4473123" lon="18.6426901"><ele>15.0</ele><time>2026-05-04T09:51:43.66Z</time></trkpt><trkpt lat="42.4471729" lon="18.6425901"><ele>15.0</ele><time>2026-05-04T09:51:44.66Z</time></trkpt><trkpt lat="42.4470384" lon="18.6424949"><ele>15.0</ele><time>2026-05-04T09:51:45.66Z</time></trkpt><trkpt lat="42.4469159" lon="18.64239"><ele>16.5</ele><time>2026-05-04T09:51:46.657Z</time></trkpt><trkpt lat="42.4468031" lon="18.6422813"><ele>18.0</ele><time>2026-05-04T09:51:47.66Z</time></trkpt><trkpt lat="42.446699" lon="18.6421626"><ele>19.5</ele><time>2026-05-04T09:51:48.659Z</time></trkpt><trkpt lat="42.4466013" lon="18.6420287"><ele>21.0</ele><time>2026-05-04T09:51:49.658Z</time></trkpt><trkpt lat="42.4465047" lon="18.6418841"><ele>21.0</ele><time>2026-05-04T09:51:50.662Z</time></trkpt><trkpt lat="42.446405" lon="18.6417252"><ele>21.0</ele><time>2026-05-04T09:51:51.657Z</time></trkpt><trkpt lat="42.446311" lon="18.6415734"><ele>21.0</ele><time>2026-05-04T09:51:52.659Z</time></trkpt><trkpt lat="42.4462316" lon="18.6414249"><ele>21.0</ele><time>2026-05-04T09:51:53.66Z</time></trkpt><trkpt lat="42.4461593" lon="18.6412576"><ele>18.75</ele><time>2026-05-04T09:51:54.661Z</time></trkpt><trkpt lat="42.4460945" lon="18.6410929"><ele>16.5</ele><time>2026-05-04T09:51:55.66Z</time></trkpt><trkpt lat="42.4460158" lon="18.6409401"><ele>14.25</ele><time>2026-05-04T09:51:56.661Z</time></trkpt><trkpt lat="42.4459362" lon="18.6407809"><ele>12.0</ele><time>2026-05-04T09:51:57.66Z</time></trkpt><trkpt lat="42.4458584" lon="18.6406198"><ele>12.0</ele><time>2026-05-04T09:51:58.658Z</time></trkpt><trkpt lat="42.4457792" lon="18.6404667"><ele>12.0</ele><time>2026-05-04T09:51:59.661Z</time></trkpt><trkpt lat="42.4457017" lon="18.6403195"><ele>12.0</ele><time>2026-05-04T09:52:00.661Z</time></trkpt><trkpt lat="42.4456176" lon="18.640162"><ele>12.0</ele><time>2026-05-04T09:52:01.659Z</time></trkpt><trkpt lat="42.4455389" lon="18.6399943"><ele>10.75</ele><time>2026-05-04T09:52:02.659Z</time></trkpt><trkpt lat="42.4454489" lon="18.6398256"><ele>9.5</ele><time>2026-05-04T09:52:03.66Z</time></trkpt><trkpt lat="42.4453573" lon="18.6396766"><ele>8.25</ele><time>2026-05-04T09:52:04.657Z</time></trkpt><trkpt lat="42.4452661" lon="18.6395301"><ele>7.0</ele><time>2026-05-04T09:52:05.659Z</time></trkpt><trkpt lat="42.4451761" lon="18.6394023"><ele>10.0</ele><time>2026-05-04T09:52:06.66Z</time></trkpt><trkpt lat="42.445084" lon="18.6392673"><ele>13.0</ele><time>2026-05-04T09:52:07.661Z</time></trkpt><trkpt lat="42.4450038" lon="18.6391331"><ele>16.0</ele><time>2026-05-04T09:52:08.659Z</time></trkpt><trkpt lat="42.4449201" lon="18.6390069"><ele>19.0</ele><time>2026-05-04T09:52:09.659Z</time></trkpt><trkpt lat="42.4448362" lon="18.6388812"><ele>19.0</ele><time>2026-05-04T09:52:10.658Z</time></trkpt><trkpt lat="42.4447534" lon="18.6387426"><ele>19.0</ele><time>2026-05-04T09:52:11.657Z</time></trkpt><trkpt lat="42.4446649" lon="18.6386089"><ele>19.0</ele><time>2026-05-04T09:52:12.656Z</time></trkpt><trkpt lat="42.4445809" lon="18.6384597"><ele>19.0</ele><time>2026-05-04T09:52:13.656Z</time></trkpt><trkpt lat="42.4445111" lon="18.6383082"><ele>19.0</ele><time>2026-05-04T09:52:14.658Z</time></trkpt><trkpt lat="42.4444366" lon="18.6381538"><ele>19.0</ele><time>2026-05-04T09:52:15.659Z</time></trkpt><trkpt lat="42.4443588" lon="18.6379904"><ele>19.0</ele><time>2026-05-04T09:52:16.66Z</time></trkpt><trkpt lat="42.4442817" lon="18.6378251"><ele>19.0</ele><time>2026-05-04T09:52:17.658Z</time></trkpt><trkpt lat="42.4442138" lon="18.6376636"><ele>19.0</ele><time>2026-05-04T09:52:18.661Z</time></trkpt><trkpt lat="42.4441537" lon="18.6375099"><ele>19.0</ele><time>2026-05-04T09:52:19.658Z</time></trkpt><trkpt lat="42.4441014" lon="18.6373698"><ele>19.0</ele><time>2026-05-04T09:52:20.661Z</time></trkpt><trkpt lat="42.4440477" lon="18.6372054"><ele>19.0</ele><time>2026-05-04T09:52:21.66Z</time></trkpt><trkpt lat="42.4440029" lon="18.6370541"><ele>20.25</ele><time>2026-05-04T09:52:22.661Z</time></trkpt><trkpt lat="42.4439615" lon="18.6368995"><ele>21.5</ele><time>2026-05-04T09:52:23.659Z</time></trkpt><trkpt lat="42.4439228" lon="18.6367401"><ele>22.75</ele><time>2026-05-04T09:52:24.66Z</time></trkpt><trkpt lat="42.4438935" lon="18.6365611"><ele>24.0</ele><time>2026-05-04T09:52:25.658Z</time></trkpt><trkpt lat="42.4438685" lon="18.6363841"><ele>24.0</ele><time>2026-05-04T09:52:26.659Z</time></trkpt><trkpt lat="42.443846" lon="18.6362048"><ele>24.0</ele><time>2026-05-04T09:52:27.661Z</time></trkpt><trkpt lat="42.4438277" lon="18.636028"><ele>24.0</ele><time>2026-05-04T09:52:28.658Z</time></trkpt><trkpt lat="42.4438138" lon="18.6358495"><ele>24.0</ele><time>2026-05-04T09:52:29.661Z</time></trkpt><trkpt lat="42.4437952" lon="18.6356791"><ele>19.25</ele><time>2026-05-04T09:52:30.657Z</time></trkpt><trkpt lat="42.4437753" lon="18.635516"><ele>14.5</ele><time>2026-05-04T09:52:31.659Z</time></trkpt><trkpt lat="42.4437597" lon="18.6353458"><ele>9.75</ele><time>2026-05-04T09:52:32.654Z</time></trkpt><trkpt lat="42.4437546" lon="18.6351791"><ele>5.0</ele><time>2026-05-04T09:52:33.657Z</time></trkpt><trkpt lat="42.4437517" lon="18.6350068"><ele>5.0</ele><time>2026-05-04T09:52:34.656Z</time></trkpt><trkpt lat="42.4437402" lon="18.6348144"><ele>5.0</ele><time>2026-05-04T09:52:35.656Z</time></trkpt><trkpt lat="42.4437279" lon="18.6346254"><ele>5.0</ele><time>2026-05-04T09:52:36.658Z</time></trkpt><trkpt lat="42.4437232" lon="18.6344304"><ele>5.0</ele><time>2026-05-04T09:52:37.656Z</time></trkpt><trkpt lat="42.4437129" lon="18.6342433"><ele>5.5</ele><time>2026-05-04T09:52:38.657Z</time></trkpt><trkpt lat="42.4437032" lon="18.6340602"><ele>6.0</ele><time>2026-05-04T09:52:39.656Z</time></trkpt><trkpt lat="42.4436943" lon="18.6338738"><ele>6.5</ele><time>2026-05-04T09:52:40.657Z</time></trkpt><trkpt lat="42.4436834" lon="18.6336886"><ele>7.0</ele><time>2026-05-04T09:52:41.656Z</time></trkpt><trkpt lat="42.4436728" lon="18.6335066"><ele>7.0</ele><time>2026-05-04T09:52:42.657Z</time></trkpt><trkpt lat="42.4436615" lon="18.6333249"><ele>7.0</ele><time>2026-05-04T09:52:43.656Z</time></trkpt><trkpt lat="42.4436523" lon="18.6331421"><ele>7.0</ele><time>2026-05-04T09:52:44.655Z</time></trkpt><trkpt lat="42.443647" lon="18.6329594"><ele>7.0</ele><time>2026-05-04T09:52:45.66Z</time></trkpt><trkpt lat="42.4436386" lon="18.6327771"><ele>8.0</ele><time>2026-05-04T09:52:46.658Z</time></trkpt><trkpt lat="42.44363" lon="18.6326018"><ele>9.0</ele><time>2026-05-04T09:52:47.657Z</time></trkpt><trkpt lat="42.4436232" lon="18.6324263"><ele>10.0</ele><time>2026-05-04T09:52:48.659Z</time></trkpt><trkpt lat="42.4436157" lon="18.6322471"><ele>11.0</ele><time>2026-05-04T09:52:49.658Z</time></trkpt><trkpt lat="42.4436083" lon="18.6320642"><ele>11.5</ele><time>2026-05-04T09:52:50.657Z</time></trkpt><trkpt lat="42.4435993" lon="18.6318764"><ele>12.0</ele><time>2026-05-04T09:52:51.659Z</time></trkpt><trkpt lat="42.4435894" lon="18.6316934"><ele>12.5</ele><time>2026-05-04T09:52:52.657Z</time></trkpt><trkpt lat="42.4435824" lon="18.6315212"><ele>13.0</ele><time>2026-05-04T09:52:53.656Z</time></trkpt><trkpt lat="42.443575" lon="18.6313576"><ele>13.0</ele><time>2026-05-04T09:52:54.661Z</time></trkpt><trkpt lat="42.4435636" lon="18.6311945"><ele>13.0</ele><time>2026-05-04T09:52:55.66Z</time></trkpt><trkpt lat="42.4435511" lon="18.6310252"><ele>13.0</ele><time>2026-05-04T09:52:56.658Z</time></trkpt><trkpt lat="42.4435406" lon="18.6308516"><ele>13.0</ele><time>2026-05-04T09:52:57.659Z</time></trkpt><trkpt lat="42.4435272" lon="18.6306705"><ele>13.0</ele><time>2026-05-04T09:52:58.658Z</time></trkpt><trkpt lat="42.4435172" lon="18.6304843"><ele>13.0</ele><time>2026-05-04T09:52:59.659Z</time></trkpt><trkpt lat="42.4435072" lon="18.6302954"><ele>13.0</ele><time>2026-05-04T09:53:00.66Z</time></trkpt><trkpt lat="42.4434977" lon="18.630101"><ele>13.0</ele><time>2026-05-04T09:53:01.661Z</time></trkpt><trkpt lat="42.4434888" lon="18.6299089"><ele>13.0</ele><time>2026-05-04T09:53:02.66Z</time></trkpt><trkpt lat="42.4434769" lon="18.6297127"><ele>13.0</ele><time>2026-05-04T09:53:03.659Z</time></trkpt><trkpt lat="42.4434646" lon="18.6295164"><ele>13.0</ele><time>2026-05-04T09:53:04.66Z</time></trkpt><trkpt lat="42.4434549" lon="18.6293206"><ele>13.0</ele><time>2026-05-04T09:53:05.66Z</time></trkpt><trkpt lat="42.4434425" lon="18.6291287"><ele>13.0</ele><time>2026-05-04T09:53:06.657Z</time></trkpt><trkpt lat="42.4434266" lon="18.6289483"><ele>13.0</ele><time>2026-05-04T09:53:07.661Z</time></trkpt><trkpt lat="42.4434131" lon="18.6287858"><ele>13.0</ele><time>2026-05-04T09:53:08.659Z</time></trkpt><trkpt lat="42.4433986" lon="18.628647"><ele>13.0</ele><time>2026-05-04T09:53:09.66Z</time></trkpt><trkpt lat="42.4433842" lon="18.6285129"><ele>13.4</ele><time>2026-05-04T09:53:10.658Z</time></trkpt><trkpt lat="42.4433676" lon="18.6283791"><ele>13.8</ele><time>2026-05-04T09:53:11.658Z</time></trkpt><trkpt lat="42.4433445" lon="18.6282411"><ele>14.2</ele><time>2026-05-04T09:53:12.659Z</time></trkpt><trkpt lat="42.4433125" lon="18.6280997"><ele>14.6</ele><time>2026-05-04T09:53:13.658Z</time></trkpt><trkpt lat="42.443273" lon="18.6279479"><ele>15.0</ele><time>2026-05-04T09:53:14.658Z</time></trkpt><trkpt lat="42.443225" lon="18.6277879"><ele>15.0</ele><time>2026-05-04T09:53:15.66Z</time></trkpt><trkpt lat="42.4431695" lon="18.6276328"><ele>15.0</ele><time>2026-05-04T09:53:16.657Z</time></trkpt><trkpt lat="42.4431066" lon="18.6274718"><ele>15.0</ele><time>2026-05-04T09:53:17.662Z</time></trkpt><trkpt lat="42.443039" lon="18.6273212"><ele>15.0</ele><time>2026-05-04T09:53:18.66Z</time></trkpt><trkpt lat="42.4429625" lon="18.6271576"><ele>15.5</ele><time>2026-05-04T09:53:19.66Z</time></trkpt><trkpt lat="42.4428748" lon="18.627007"><ele>16.0</ele><time>2026-05-04T09:53:20.66Z</time></trkpt><trkpt lat="42.442778" lon="18.6268602"><ele>16.5</ele><time>2026-05-04T09:53:21.656Z</time></trkpt><trkpt lat="42.4426813" lon="18.626707"><ele>17.0</ele><time>2026-05-04T09:53:22.659Z</time></trkpt><trkpt lat="42.442581" lon="18.6265538"><ele>17.0</ele><time>2026-05-04T09:53:23.657Z</time></trkpt><trkpt lat="42.4424818" lon="18.6264026"><ele>17.0</ele><time>2026-05-04T09:53:24.657Z</time></trkpt><trkpt lat="42.4423896" lon="18.6262503"><ele>17.0</ele><time>2026-05-04T09:53:25.664Z</time></trkpt><trkpt lat="42.4422954" lon="18.6261075"><ele>17.0</ele><time>2026-05-04T09:53:26.66Z</time></trkpt><trkpt lat="42.4422095" lon="18.6259612"><ele>16.75</ele><time>2026-05-04T09:53:27.663Z</time></trkpt><trkpt lat="42.4421312" lon="18.6258178"><ele>16.5</ele><time>2026-05-04T09:53:28.661Z</time></trkpt><trkpt lat="42.4420572" lon="18.6256745"><ele>16.25</ele><time>2026-05-04T09:53:29.661Z</time></trkpt><trkpt lat="42.4419973" lon="18.6255238"><ele>16.0</ele><time>2026-05-04T09:53:30.661Z</time></trkpt><trkpt lat="42.4419432" lon="18.6253756"><ele>16.5</ele><time>2026-05-04T09:53:31.667Z</time></trkpt><trkpt lat="42.4418997" lon="18.625227"><ele>17.0</ele><time>2026-05-04T09:53:32.66Z</time></trkpt><trkpt lat="42.4418616" lon="18.6250818"><ele>17.5</ele><time>2026-05-04T09:53:33.662Z</time></trkpt><trkpt lat="42.4418273" lon="18.6249293"><ele>18.0</ele><time>2026-05-04T09:53:34.656Z</time></trkpt><trkpt lat="42.4417962" lon="18.6247841"><ele>18.0</ele><time>2026-05-04T09:53:35.659Z</time></trkpt><trkpt lat="42.4417625" lon="18.6246479"><ele>18.0</ele><time>2026-05-04T09:53:36.658Z</time></trkpt><trkpt lat="42.441732" lon="18.6245159"><ele>18.0</ele><time>2026-05-04T09:53:37.662Z</time></trkpt><trkpt lat="42.4417058" lon="18.6243876"><ele>18.0</ele><time>2026-05-04T09:53:38.658Z</time></trkpt><trkpt lat="42.4416775" lon="18.6242591"><ele>18.0</ele><time>2026-05-04T09:53:39.657Z</time></trkpt><trkpt lat="42.4416476" lon="18.6241349"><ele>18.25</ele><time>2026-05-04T09:53:40.66Z</time></trkpt><trkpt lat="42.4416182" lon="18.6239969"><ele>18.5</ele><time>2026-05-04T09:53:41.66Z</time></trkpt><trkpt lat="42.441584" lon="18.6238558"><ele>18.75</ele><time>2026-05-04T09:53:42.656Z</time></trkpt><trkpt lat="42.4415494" lon="18.6237064"><ele>19.0</ele><time>2026-05-04T09:53:43.66Z</time></trkpt><trkpt lat="42.4415173" lon="18.6235463"><ele>20.25</ele><time>2026-05-04T09:53:44.664Z</time></trkpt><trkpt lat="42.4414713" lon="18.6233841"><ele>21.5</ele><time>2026-05-04T09:53:45.66Z</time></trkpt><trkpt lat="42.4414082" lon="18.6232121"><ele>22.75</ele><time>2026-05-04T09:53:46.662Z</time></trkpt><trkpt lat="42.4413347" lon="18.6230345"><ele>24.0</ele><time>2026-05-04T09:53:47.657Z</time></trkpt><trkpt lat="42.4412513" lon="18.6228532"><ele>23.0</ele><time>2026-05-04T09:53:48.657Z</time></trkpt><trkpt lat="42.4411626" lon="18.6226845"><ele>22.0</ele><time>2026-05-04T09:53:49.663Z</time></trkpt><trkpt lat="42.4410783" lon="18.622529"><ele>21.0</ele><time>2026-05-04T09:53:50.658Z</time></trkpt><trkpt lat="42.4409927" lon="18.6223692"><ele>20.0</ele><time>2026-05-04T09:53:51.657Z</time></trkpt><trkpt lat="42.4409045" lon="18.6222049"><ele>20.0</ele><time>2026-05-04T09:53:52.659Z</time></trkpt><trkpt lat="42.440827" lon="18.6220427"><ele>20.0</ele><time>2026-05-04T09:53:53.66Z</time></trkpt><trkpt lat="42.4407583" lon="18.6218699"><ele>20.0</ele><time>2026-05-04T09:53:54.659Z</time></trkpt><trkpt lat="42.4406944" lon="18.6216943"><ele>20.0</ele><time>2026-05-04T09:53:55.666Z</time></trkpt><trkpt lat="42.440635" lon="18.6215192"><ele>18.75</ele><time>2026-05-04T09:53:56.662Z</time></trkpt><trkpt lat="42.4405814" lon="18.6213386"><ele>17.5</ele><time>2026-05-04T09:53:57.657Z</time></trkpt><trkpt lat="42.440532" lon="18.6211575"><ele>16.25</ele><time>2026-05-04T09:53:58.658Z</time></trkpt><trkpt lat="42.440476" lon="18.6209604"><ele>15.0</ele><time>2026-05-04T09:53:59.658Z</time></trkpt><trkpt lat="42.4404298" lon="18.6207731"><ele>15.0</ele><time>2026-05-04T09:54:00.66Z</time></trkpt><trkpt lat="42.4403841" lon="18.6205874"><ele>15.0</ele><time>2026-05-04T09:54:01.66Z</time></trkpt><trkpt lat="42.4403415" lon="18.6204102"><ele>15.0</ele><time>2026-05-04T09:54:02.659Z</time></trkpt><trkpt lat="42.4403037" lon="18.6202362"><ele>15.0</ele><time>2026-05-04T09:54:03.662Z</time></trkpt><trkpt lat="42.4402729" lon="18.6200652"><ele>16.5</ele><time>2026-05-04T09:54:04.659Z</time></trkpt><trkpt lat="42.4402438" lon="18.6198982"><ele>18.0</ele><time>2026-05-04T09:54:05.658Z</time></trkpt><trkpt lat="42.4402182" lon="18.6197327"><ele>19.5</ele><time>2026-05-04T09:54:06.658Z</time></trkpt><trkpt lat="42.4401993" lon="18.6195667"><ele>21.0</ele><time>2026-05-04T09:54:07.659Z</time></trkpt><trkpt lat="42.4401867" lon="18.6194041"><ele>21.25</ele><time>2026-05-04T09:54:08.66Z</time></trkpt><trkpt lat="42.440174" lon="18.6192385"><ele>21.5</ele><time>2026-05-04T09:54:09.659Z</time></trkpt><trkpt lat="42.4401679" lon="18.6190776"><ele>21.75</ele><time>2026-05-04T09:54:10.657Z</time></trkpt><trkpt lat="42.440167" lon="18.6189095"><ele>22.0</ele><time>2026-05-04T09:54:11.66Z</time></trkpt><trkpt lat="42.4401742" lon="18.6187397"><ele>21.75</ele><time>2026-05-04T09:54:12.659Z</time></trkpt><trkpt lat="42.4401933" lon="18.6185447"><ele>21.5</ele><time>2026-05-04T09:54:13.658Z</time></trkpt><trkpt lat="42.4402082" lon="18.6183667"><ele>21.25</ele><time>2026-05-04T09:54:14.659Z</time></trkpt><trkpt lat="42.44023" lon="18.6181893"><ele>21.0</ele><time>2026-05-04T09:54:15.656Z</time></trkpt><trkpt lat="42.4402509" lon="18.6180169"><ele>21.0</ele><time>2026-05-04T09:54:16.658Z</time></trkpt><trkpt lat="42.4402728" lon="18.6178367"><ele>21.0</ele><time>2026-05-04T09:54:17.661Z</time></trkpt><trkpt lat="42.4403058" lon="18.6176557"><ele>21.0</ele><time>2026-05-04T09:54:18.659Z</time></trkpt><trkpt lat="42.4403405" lon="18.6174752"><ele>21.0</ele><time>2026-05-04T09:54:19.659Z</time></trkpt><trkpt lat="42.4403792" lon="18.6172939"><ele>20.5</ele><time>2026-05-04T09:54:20.657Z</time></trkpt><trkpt lat="42.4404104" lon="18.6171093"><ele>20.0</ele><time>2026-05-04T09:54:21.656Z</time></trkpt><trkpt lat="42.4404434" lon="18.6169158"><ele>19.5</ele><time>2026-05-04T09:54:22.658Z</time></trkpt><trkpt lat="42.4404718" lon="18.6167201"><ele>19.0</ele><time>2026-05-04T09:54:23.658Z</time></trkpt><trkpt lat="42.4404891" lon="18.6165224"><ele>19.0</ele><time>2026-05-04T09:54:24.66Z</time></trkpt><trkpt lat="42.4404863" lon="18.6163186"><ele>19.0</ele><time>2026-05-04T09:54:25.658Z</time></trkpt><trkpt lat="42.4404649" lon="18.6161237"><ele>19.0</ele><time>2026-05-04T09:54:26.658Z</time></trkpt><trkpt lat="42.440423" lon="18.6159335"><ele>19.0</ele><time>2026-05-04T09:54:27.657Z</time></trkpt><trkpt lat="42.4403609" lon="18.6157486"><ele>19.0</ele><time>2026-05-04T09:54:28.66Z</time></trkpt><trkpt lat="42.4402845" lon="18.6155766"><ele>19.0</ele><time>2026-05-04T09:54:29.661Z</time></trkpt><trkpt lat="42.4401851" lon="18.6154236"><ele>19.0</ele><time>2026-05-04T09:54:30.66Z</time></trkpt><trkpt lat="42.4400735" lon="18.615275"><ele>23.666666666666664</ele><time>2026-05-04T09:54:31.658Z</time></trkpt><trkpt lat="42.4399593" lon="18.6151485"><ele>28.333333333333332</ele><time>2026-05-04T09:54:32.66Z</time></trkpt><trkpt lat="42.4398466" lon="18.6150062"><ele>33.0</ele><time>2026-05-04T09:54:33.658Z</time></trkpt><trkpt lat="42.4397516" lon="18.6148495"><ele>33.0</ele><time>2026-05-04T09:54:34.663Z</time></trkpt><trkpt lat="42.4396698" lon="18.6146988"><ele>33.0</ele><time>2026-05-04T09:54:35.66Z</time></trkpt><trkpt lat="42.4396019" lon="18.6145267"><ele>33.0</ele><time>2026-05-04T09:54:36.658Z</time></trkpt><trkpt lat="42.439548" lon="18.6143433"><ele>33.0</ele><time>2026-05-04T09:54:37.658Z</time></trkpt><trkpt lat="42.4394943" lon="18.6141571"><ele>29.333333333333332</ele><time>2026-05-04T09:54:38.659Z</time></trkpt><trkpt lat="42.4394545" lon="18.6139739"><ele>25.666666666666664</ele><time>2026-05-04T09:54:39.658Z</time></trkpt><trkpt lat="42.4394095" lon="18.6137732"><ele>22.0</ele><time>2026-05-04T09:54:40.661Z</time></trkpt><trkpt lat="42.4393694" lon="18.6135717"><ele>22.0</ele><time>2026-05-04T09:54:41.661Z</time></trkpt><trkpt lat="42.4393272" lon="18.6133781"><ele>22.0</ele><time>2026-05-04T09:54:42.66Z</time></trkpt><trkpt lat="42.4392911" lon="18.6131829"><ele>22.0</ele><time>2026-05-04T09:54:43.657Z</time></trkpt><trkpt lat="42.4392626" lon="18.6129851"><ele>22.0</ele><time>2026-05-04T09:54:44.658Z</time></trkpt><trkpt lat="42.4392404" lon="18.6127909"><ele>23.25</ele><time>2026-05-04T09:54:45.659Z</time></trkpt><trkpt lat="42.4392288" lon="18.6125928"><ele>24.5</ele><time>2026-05-04T09:54:46.659Z</time></trkpt><trkpt lat="42.4392193" lon="18.6123934"><ele>25.75</ele><time>2026-05-04T09:54:47.66Z</time></trkpt><trkpt lat="42.4392166" lon="18.6121926"><ele>27.0</ele><time>2026-05-04T09:54:48.659Z</time></trkpt><trkpt lat="42.4392203" lon="18.6119938"><ele>28.0</ele><time>2026-05-04T09:54:49.666Z</time></trkpt><trkpt lat="42.4392255" lon="18.6117986"><ele>29.0</ele><time>2026-05-04T09:54:50.661Z</time></trkpt><trkpt lat="42.4392305" lon="18.6116123"><ele>30.0</ele><time>2026-05-04T09:54:51.665Z</time></trkpt><trkpt lat="42.439235" lon="18.6114388"><ele>31.0</ele><time>2026-05-04T09:54:52.661Z</time></trkpt><trkpt lat="42.4392403" lon="18.6112619"><ele>30.5</ele><time>2026-05-04T09:54:53.663Z</time></trkpt><trkpt lat="42.4392389" lon="18.6110887"><ele>30.0</ele><time>2026-05-04T09:54:54.657Z</time></trkpt><trkpt lat="42.4392264" lon="18.610907"><ele>29.5</ele><time>2026-05-04T09:54:55.656Z</time></trkpt><trkpt lat="42.439197" lon="18.610732"><ele>29.0</ele><time>2026-05-04T09:54:56.657Z</time></trkpt><trkpt lat="42.4391536" lon="18.6105624"><ele>29.0</ele><time>2026-05-04T09:54:57.656Z</time></trkpt><trkpt lat="42.4390958" lon="18.6103973"><ele>29.0</ele><time>2026-05-04T09:54:58.66Z</time></trkpt><trkpt lat="42.4390191" lon="18.6102482"><ele>29.0</ele><time>2026-05-04T09:54:59.656Z</time></trkpt><trkpt lat="42.4389358" lon="18.610115"><ele>29.0</ele><time>2026-05-04T09:55:00.657Z</time></trkpt><trkpt lat="42.4388382" lon="18.6099978"><ele>28.5</ele><time>2026-05-04T09:55:01.658Z</time></trkpt><trkpt lat="42.4387294" lon="18.6099197"><ele>28.0</ele><time>2026-05-04T09:55:02.656Z</time></trkpt><trkpt lat="42.4386106" lon="18.6098656"><ele>27.5</ele><time>2026-05-04T09:55:03.657Z</time></trkpt><trkpt lat="42.4384839" lon="18.6098112"><ele>27.0</ele><time>2026-05-04T09:55:04.657Z</time></trkpt><trkpt lat="42.4383539" lon="18.6097728"><ele>27.0</ele><time>2026-05-04T09:55:05.656Z</time></trkpt><trkpt lat="42.4382178" lon="18.609729"><ele>27.0</ele><time>2026-05-04T09:55:06.658Z</time></trkpt><trkpt lat="42.4380905" lon="18.6096897"><ele>27.0</ele><time>2026-05-04T09:55:07.656Z</time></trkpt><trkpt lat="42.4379727" lon="18.6096495"><ele>27.0</ele><time>2026-05-04T09:55:08.659Z</time></trkpt><trkpt lat="42.4378502" lon="18.6095819"><ele>26.75</ele><time>2026-05-04T09:55:09.658Z</time></trkpt><trkpt lat="42.4377426" lon="18.6094936"><ele>26.5</ele><time>2026-05-04T09:55:10.654Z</time></trkpt><trkpt lat="42.4376389" lon="18.6094096"><ele>26.25</ele><time>2026-05-04T09:55:11.656Z</time></trkpt><trkpt lat="42.4375513" lon="18.6093028"><ele>26.0</ele><time>2026-05-04T09:55:12.656Z</time></trkpt><trkpt lat="42.4374702" lon="18.6091774"><ele>27.0</ele><time>2026-05-04T09:55:13.656Z</time></trkpt><trkpt lat="42.4374171" lon="18.6090407"><ele>28.0</ele><time>2026-05-04T09:55:14.659Z</time></trkpt><trkpt lat="42.4373716" lon="18.6088986"><ele>29.0</ele><time>2026-05-04T09:55:15.659Z</time></trkpt><trkpt lat="42.4373363" lon="18.6087678"><ele>30.0</ele><time>2026-05-04T09:55:16.657Z</time></trkpt><trkpt lat="42.4373174" lon="18.6086394"><ele>31.0</ele><time>2026-05-04T09:55:17.66Z</time></trkpt><trkpt lat="42.4373096" lon="18.6085064"><ele>31.200000000000003</ele><time>2026-05-04T09:55:18.661Z</time></trkpt><trkpt lat="42.4373135" lon="18.6083766"><ele>31.400000000000002</ele><time>2026-05-04T09:55:19.66Z</time></trkpt><trkpt lat="42.4373266" lon="18.6082456"><ele>31.6</ele><time>2026-05-04T09:55:20.661Z</time></trkpt><trkpt lat="42.4373514" lon="18.6081271"><ele>31.8</ele><time>2026-05-04T09:55:21.662Z</time></trkpt><trkpt lat="42.4373803" lon="18.6080164"><ele>32.0</ele><time>2026-05-04T09:55:22.656Z</time></trkpt><trkpt lat="42.4374152" lon="18.6079095"><ele>31.6</ele><time>2026-05-04T09:55:23.659Z</time></trkpt><trkpt lat="42.4374616" lon="18.6078048"><ele>31.200000000000003</ele><time>2026-05-04T09:55:24.659Z</time></trkpt><trkpt lat="42.4375165" lon="18.6077074"><ele>30.8</ele><time>2026-05-04T09:55:25.658Z</time></trkpt><trkpt lat="42.4375801" lon="18.6076184"><ele>30.4</ele><time>2026-05-04T09:55:26.66Z</time></trkpt><trkpt lat="42.4376485" lon="18.6075353"><ele>30.0</ele><time>2026-05-04T09:55:27.659Z</time></trkpt><trkpt lat="42.4377183" lon="18.6074658"><ele>30.0</ele><time>2026-05-04T09:55:28.658Z</time></trkpt><trkpt lat="42.4377774" lon="18.6073946"><ele>30.0</ele><time>2026-05-04T09:55:29.662Z</time></trkpt><trkpt lat="42.4378466" lon="18.6073396"><ele>30.0</ele><time>2026-05-04T09:55:30.655Z</time></trkpt><trkpt lat="42.4379085" lon="18.6072887"><ele>30.0</ele><time>2026-05-04T09:55:31.662Z</time></trkpt><trkpt lat="42.4380177" lon="18.6071993"><ele>30.0</ele><time>2026-05-04T09:55:33.66Z</time></trkpt><trkpt lat="42.4380905" lon="18.6071513"><ele>30.0</ele><time>2026-05-04T09:55:34.658Z</time></trkpt><trkpt lat="42.4381532" lon="18.607095"><ele>30.8</ele><time>2026-05-04T09:55:35.663Z</time></trkpt><trkpt lat="42.4382274" lon="18.6070267"><ele>31.6</ele><time>2026-05-04T09:55:36.658Z</time></trkpt><trkpt lat="42.4382929" lon="18.6069561"><ele>32.4</ele><time>2026-05-04T09:55:37.658Z</time></trkpt><trkpt lat="42.4383616" lon="18.6068714"><ele>33.2</ele><time>2026-05-04T09:55:38.661Z</time></trkpt><trkpt lat="42.438429" lon="18.6067735"><ele>34.0</ele><time>2026-05-04T09:55:39.66Z</time></trkpt><trkpt lat="42.4384926" lon="18.6066621"><ele>34.0</ele><time>2026-05-04T09:55:40.662Z</time></trkpt><trkpt lat="42.4385518" lon="18.6065425"><ele>34.0</ele><time>2026-05-04T09:55:41.66Z</time></trkpt><trkpt lat="42.4385976" lon="18.6064186"><ele>34.0</ele><time>2026-05-04T09:55:42.657Z</time></trkpt><trkpt lat="42.4386313" lon="18.6062969"><ele>34.0</ele><time>2026-05-04T09:55:43.658Z</time></trkpt><trkpt lat="42.4386548" lon="18.6061725"><ele>34.0</ele><time>2026-05-04T09:55:44.659Z</time></trkpt><trkpt lat="42.4386734" lon="18.6060499"><ele>33.0</ele><time>2026-05-04T09:55:45.661Z</time></trkpt><trkpt lat="42.4386858" lon="18.605931"><ele>32.0</ele><time>2026-05-04T09:55:46.659Z</time></trkpt><trkpt lat="42.438693" lon="18.6058141"><ele>31.0</ele><time>2026-05-04T09:55:47.657Z</time></trkpt><trkpt lat="42.4386882" lon="18.6057089"><ele>30.0</ele><time>2026-05-04T09:55:48.662Z</time></trkpt><trkpt lat="42.4386836" lon="18.6055967"><ele>29.000000000000004</ele><time>2026-05-04T09:55:49.657Z</time></trkpt><trkpt lat="42.4386739" lon="18.6054775"><ele>28.0</ele><time>2026-05-04T09:55:50.661Z</time></trkpt><trkpt lat="42.4386538" lon="18.6053359"><ele>29.25</ele><time>2026-05-04T09:55:51.658Z</time></trkpt><trkpt lat="42.4386246" lon="18.6051824"><ele>30.5</ele><time>2026-05-04T09:55:52.657Z</time></trkpt><trkpt lat="42.4385861" lon="18.6050224"><ele>31.75</ele><time>2026-05-04T09:55:53.66Z</time></trkpt><trkpt lat="42.4385419" lon="18.6048599"><ele>33.0</ele><time>2026-05-04T09:55:54.658Z</time></trkpt><trkpt lat="42.4384933" lon="18.6047023"><ele>33.0</ele><time>2026-05-04T09:55:55.661Z</time></trkpt><trkpt lat="42.4384427" lon="18.604542"><ele>33.0</ele><time>2026-05-04T09:55:56.657Z</time></trkpt><trkpt lat="42.4383964" lon="18.6043796"><ele>33.0</ele><time>2026-05-04T09:55:57.663Z</time></trkpt><trkpt lat="42.4383543" lon="18.6042092"><ele>33.0</ele><time>2026-05-04T09:55:58.659Z</time></trkpt><trkpt lat="42.4383156" lon="18.6040167"><ele>33.75</ele><time>2026-05-04T09:55:59.659Z</time></trkpt><trkpt lat="42.4382827" lon="18.6038402"><ele>34.5</ele><time>2026-05-04T09:56:00.667Z</time></trkpt><trkpt lat="42.4382613" lon="18.6036652"><ele>35.25</ele><time>2026-05-04T09:56:01.659Z</time></trkpt><trkpt lat="42.4382484" lon="18.6034858"><ele>36.0</ele><time>2026-05-04T09:56:02.66Z</time></trkpt><trkpt lat="42.4382372" lon="18.6033107"><ele>37.0</ele><time>2026-05-04T09:56:03.667Z</time></trkpt><trkpt lat="42.4382269" lon="18.603135"><ele>38.0</ele><time>2026-05-04T09:56:04.658Z</time></trkpt><trkpt lat="42.4382247" lon="18.6029634"><ele>39.0</ele><time>2026-05-04T09:56:05.659Z</time></trkpt><trkpt lat="42.4382206" lon="18.6027851"><ele>40.0</ele><time>2026-05-04T09:56:06.66Z</time></trkpt><trkpt lat="42.4382084" lon="18.6026123"><ele>40.0</ele><time>2026-05-04T09:56:07.662Z</time></trkpt><trkpt lat="42.4381996" lon="18.6024564"><ele>40.0</ele><time>2026-05-04T09:56:08.662Z</time></trkpt><trkpt lat="42.438191" lon="18.6022915"><ele>40.0</ele><time>2026-05-04T09:56:09.662Z</time></trkpt><trkpt lat="42.4381877" lon="18.6021256"><ele>40.0</ele><time>2026-05-04T09:56:10.655Z</time></trkpt><trkpt lat="42.4381815" lon="18.6019508"><ele>40.0</ele><time>2026-05-04T09:56:11.656Z</time></trkpt><trkpt lat="42.4381781" lon="18.6017785"><ele>40.0</ele><time>2026-05-04T09:56:12.66Z</time></trkpt><trkpt lat="42.4381681" lon="18.6016013"><ele>40.0</ele><time>2026-05-04T09:56:13.664Z</time></trkpt><trkpt lat="42.4381599" lon="18.6014267"><ele>40.0</ele><time>2026-05-04T09:56:14.66Z</time></trkpt><trkpt lat="42.4381495" lon="18.6012706"><ele>39.25</ele><time>2026-05-04T09:56:15.657Z</time></trkpt><trkpt lat="42.4381432" lon="18.6011014"><ele>38.5</ele><time>2026-05-04T09:56:16.661Z</time></trkpt><trkpt lat="42.4381393" lon="18.6009321"><ele>37.75</ele><time>2026-05-04T09:56:17.662Z</time></trkpt><trkpt lat="42.4381353" lon="18.6007667"><ele>37.0</ele><time>2026-05-04T09:56:18.662Z</time></trkpt><trkpt lat="42.4381292" lon="18.6006011"><ele>37.0</ele><time>2026-05-04T09:56:19.659Z</time></trkpt><trkpt lat="42.4381235" lon="18.6004425"><ele>37.0</ele><time>2026-05-04T09:56:20.659Z</time></trkpt><trkpt lat="42.4381148" lon="18.6002812"><ele>37.0</ele><time>2026-05-04T09:56:21.656Z</time></trkpt><trkpt lat="42.4381016" lon="18.6001262"><ele>37.0</ele><time>2026-05-04T09:56:22.658Z</time></trkpt><trkpt lat="42.4380856" lon="18.5999753"><ele>38.25</ele><time>2026-05-04T09:56:23.659Z</time></trkpt><trkpt lat="42.4380671" lon="18.5998222"><ele>39.5</ele><time>2026-05-04T09:56:24.659Z</time></trkpt><trkpt lat="42.4380464" lon="18.5996669"><ele>40.75</ele><time>2026-05-04T09:56:25.659Z</time></trkpt><trkpt lat="42.4380237" lon="18.5995048"><ele>42.0</ele><time>2026-05-04T09:56:26.663Z</time></trkpt><trkpt lat="42.4380068" lon="18.5993378"><ele>43.0</ele><time>2026-05-04T09:56:27.659Z</time></trkpt><trkpt lat="42.4379893" lon="18.5991699"><ele>44.0</ele><time>2026-05-04T09:56:28.656Z</time></trkpt><trkpt lat="42.4379807" lon="18.5990055"><ele>45.0</ele><time>2026-05-04T09:56:29.658Z</time></trkpt><trkpt lat="42.4379629" lon="18.5988423"><ele>46.0</ele><time>2026-05-04T09:56:30.659Z</time></trkpt><trkpt lat="42.4379603" lon="18.5986765"><ele>44.75</ele><time>2026-05-04T09:56:31.66Z</time></trkpt><trkpt lat="42.4379614" lon="18.5985103"><ele>43.5</ele><time>2026-05-04T09:56:32.659Z</time></trkpt><trkpt lat="42.437969" lon="18.598339"><ele>42.25</ele><time>2026-05-04T09:56:33.659Z</time></trkpt><trkpt lat="42.4379905" lon="18.5981714"><ele>41.0</ele><time>2026-05-04T09:56:34.66Z</time></trkpt><trkpt lat="42.4380206" lon="18.5980014"><ele>41.0</ele><time>2026-05-04T09:56:35.657Z</time></trkpt><trkpt lat="42.4380565" lon="18.5978373"><ele>41.0</ele><time>2026-05-04T09:56:36.659Z</time></trkpt><trkpt lat="42.4380993" lon="18.5976835"><ele>41.0</ele><time>2026-05-04T09:56:37.66Z</time></trkpt><trkpt lat="42.4381745" lon="18.5975407"><ele>41.0</ele><time>2026-05-04T09:56:38.658Z</time></trkpt><trkpt lat="42.4382533" lon="18.597406"><ele>39.75</ele><time>2026-05-04T09:56:39.663Z</time></trkpt><trkpt lat="42.4383353" lon="18.5972721"><ele>38.5</ele><time>2026-05-04T09:56:40.657Z</time></trkpt><trkpt lat="42.4384112" lon="18.5971306"><ele>37.25</ele><time>2026-05-04T09:56:41.66Z</time></trkpt><trkpt lat="42.4384766" lon="18.5969761"><ele>36.0</ele><time>2026-05-04T09:56:42.659Z</time></trkpt><trkpt lat="42.4385312" lon="18.5968021"><ele>34.0</ele><time>2026-05-04T09:56:43.66Z</time></trkpt><trkpt lat="42.4385726" lon="18.5966357"><ele>32.0</ele><time>2026-05-04T09:56:44.664Z</time></trkpt><trkpt lat="42.4386047" lon="18.5964691"><ele>30.0</ele><time>2026-05-04T09:56:45.657Z</time></trkpt><trkpt lat="42.4386325" lon="18.596297"><ele>28.0</ele><time>2026-05-04T09:56:46.658Z</time></trkpt><trkpt lat="42.4386665" lon="18.5961241"><ele>27.25</ele><time>2026-05-04T09:56:47.658Z</time></trkpt><trkpt lat="42.4386776" lon="18.5959601"><ele>26.5</ele><time>2026-05-04T09:56:48.66Z</time></trkpt><trkpt lat="42.4386863" lon="18.5957934"><ele>25.75</ele><time>2026-05-04T09:56:49.66Z</time></trkpt><trkpt lat="42.4386842" lon="18.5956326"><ele>25.0</ele><time>2026-05-04T09:56:50.659Z</time></trkpt><trkpt lat="42.4386769" lon="18.5954739"><ele>24.5</ele><time>2026-05-04T09:56:51.659Z</time></trkpt><trkpt lat="42.4386638" lon="18.5953204"><ele>24.0</ele><time>2026-05-04T09:56:52.66Z</time></trkpt><trkpt lat="42.4386347" lon="18.5951634"><ele>23.5</ele><time>2026-05-04T09:56:53.661Z</time></trkpt><trkpt lat="42.4385989" lon="18.5950054"><ele>23.0</ele><time>2026-05-04T09:56:54.66Z</time></trkpt><trkpt lat="42.4385634" lon="18.5948449"><ele>23.0</ele><time>2026-05-04T09:56:55.661Z</time></trkpt><trkpt lat="42.438525" lon="18.5946825"><ele>23.0</ele><time>2026-05-04T09:56:56.662Z</time></trkpt><trkpt lat="42.438488" lon="18.5945096"><ele>23.0</ele><time>2026-05-04T09:56:57.656Z</time></trkpt><trkpt lat="42.4384475" lon="18.5943294"><ele>23.0</ele><time>2026-05-04T09:56:58.659Z</time></trkpt><trkpt lat="42.4384281" lon="18.5941502"><ele>23.75</ele><time>2026-05-04T09:56:59.661Z</time></trkpt><trkpt lat="42.4384165" lon="18.5939732"><ele>24.5</ele><time>2026-05-04T09:57:00.66Z</time></trkpt><trkpt lat="42.4384299" lon="18.593783"><ele>25.25</ele><time>2026-05-04T09:57:01.658Z</time></trkpt><trkpt lat="42.4384585" lon="18.593593"><ele>26.0</ele><time>2026-05-04T09:57:02.659Z</time></trkpt><trkpt lat="42.4384927" lon="18.5934119"><ele>24.5</ele><time>2026-05-04T09:57:03.66Z</time></trkpt><trkpt lat="42.4385334" lon="18.5932264"><ele>23.0</ele><time>2026-05-04T09:57:04.66Z</time></trkpt><trkpt lat="42.4385846" lon="18.593038"><ele>21.5</ele><time>2026-05-04T09:57:05.661Z</time></trkpt><trkpt lat="42.4386388" lon="18.5928655"><ele>20.0</ele><time>2026-05-04T09:57:06.662Z</time></trkpt><trkpt lat="42.4386923" lon="18.5927068"><ele>18.5</ele><time>2026-05-04T09:57:07.664Z</time></trkpt><trkpt lat="42.4387481" lon="18.5925523"><ele>17.0</ele><time>2026-05-04T09:57:08.661Z</time></trkpt><trkpt lat="42.4387987" lon="18.5923995"><ele>15.5</ele><time>2026-05-04T09:57:09.658Z</time></trkpt><trkpt lat="42.4388524" lon="18.5922526"><ele>14.0</ele><time>2026-05-04T09:57:10.662Z</time></trkpt><trkpt lat="42.4389062" lon="18.5921081"><ele>17.5</ele><time>2026-05-04T09:57:11.657Z</time></trkpt><trkpt lat="42.4389573" lon="18.591967"><ele>21.0</ele><time>2026-05-04T09:57:12.658Z</time></trkpt><trkpt lat="42.4390053" lon="18.5918284"><ele>24.5</ele><time>2026-05-04T09:57:13.661Z</time></trkpt><trkpt lat="42.4390566" lon="18.5916922"><ele>28.0</ele><time>2026-05-04T09:57:14.661Z</time></trkpt><trkpt lat="42.4391032" lon="18.5915561"><ele>28.0</ele><time>2026-05-04T09:57:15.661Z</time></trkpt><trkpt lat="42.4391464" lon="18.591421"><ele>28.0</ele><time>2026-05-04T09:57:16.658Z</time></trkpt><trkpt lat="42.4391938" lon="18.5912851"><ele>28.0</ele><time>2026-05-04T09:57:17.656Z</time></trkpt><trkpt lat="42.4392444" lon="18.591142"><ele>28.0</ele><time>2026-05-04T09:57:18.661Z</time></trkpt><trkpt lat="42.4392981" lon="18.5910059"><ele>26.5</ele><time>2026-05-04T09:57:19.656Z</time></trkpt><trkpt lat="42.4393587" lon="18.5908489"><ele>25.0</ele><time>2026-05-04T09:57:20.661Z</time></trkpt><trkpt lat="42.4394101" lon="18.5906985"><ele>23.5</ele><time>2026-05-04T09:57:21.662Z</time></trkpt><trkpt lat="42.4394545" lon="18.5905411"><ele>22.0</ele><time>2026-05-04T09:57:22.658Z</time></trkpt><trkpt lat="42.4394864" lon="18.5903809"><ele>21.0</ele><time>2026-05-04T09:57:23.657Z</time></trkpt><trkpt lat="42.4395054" lon="18.590211"><ele>20.0</ele><time>2026-05-04T09:57:24.66Z</time></trkpt><trkpt lat="42.4395263" lon="18.5900287"><ele>19.0</ele><time>2026-05-04T09:57:25.656Z</time></trkpt><trkpt lat="42.4395332" lon="18.5898677"><ele>18.0</ele><time>2026-05-04T09:57:26.659Z</time></trkpt><trkpt lat="42.4395301" lon="18.5897075"><ele>18.0</ele><time>2026-05-04T09:57:27.658Z</time></trkpt><trkpt lat="42.4395219" lon="18.5895495"><ele>18.0</ele><time>2026-05-04T09:57:28.658Z</time></trkpt><trkpt lat="42.4395106" lon="18.5893942"><ele>18.0</ele><time>2026-05-04T09:57:29.662Z</time></trkpt><trkpt lat="42.4394901" lon="18.5892326"><ele>18.0</ele><time>2026-05-04T09:57:30.663Z</time></trkpt><trkpt lat="42.439473" lon="18.5890755"><ele>17.75</ele><time>2026-05-04T09:57:31.66Z</time></trkpt><trkpt lat="42.4394537" lon="18.5889164"><ele>17.5</ele><time>2026-05-04T09:57:32.661Z</time></trkpt><trkpt lat="42.4394315" lon="18.5887559"><ele>17.25</ele><time>2026-05-04T09:57:33.659Z</time></trkpt><trkpt lat="42.4394289" lon="18.5886065"><ele>17.0</ele><time>2026-05-04T09:57:34.66Z</time></trkpt><trkpt lat="42.4394469" lon="18.5884578"><ele>16.75</ele><time>2026-05-04T09:57:35.66Z</time></trkpt><trkpt lat="42.4394664" lon="18.588307"><ele>16.5</ele><time>2026-05-04T09:57:36.663Z</time></trkpt><trkpt lat="42.4394928" lon="18.5881569"><ele>16.25</ele><time>2026-05-04T09:57:37.659Z</time></trkpt><trkpt lat="42.4395433" lon="18.5880181"><ele>16.0</ele><time>2026-05-04T09:57:38.657Z</time></trkpt><trkpt lat="42.4395992" lon="18.5878838"><ele>17.75</ele><time>2026-05-04T09:57:39.655Z</time></trkpt><trkpt lat="42.4396654" lon="18.5877711"><ele>19.5</ele><time>2026-05-04T09:57:40.659Z</time></trkpt><trkpt lat="42.439741" lon="18.5876568"><ele>21.25</ele><time>2026-05-04T09:57:41.659Z</time></trkpt><trkpt lat="42.4398278" lon="18.5875292"><ele>23.0</ele><time>2026-05-04T09:57:42.658Z</time></trkpt><trkpt lat="42.4399151" lon="18.5874209"><ele>23.0</ele><time>2026-05-04T09:57:43.659Z</time></trkpt><trkpt lat="42.4400058" lon="18.5873117"><ele>23.0</ele><time>2026-05-04T09:57:44.659Z</time></trkpt><trkpt lat="42.4400891" lon="18.587194"><ele>23.0</ele><time>2026-05-04T09:57:45.657Z</time></trkpt><trkpt lat="42.4401613" lon="18.5870685"><ele>23.0</ele><time>2026-05-04T09:57:46.661Z</time></trkpt><trkpt lat="42.440222" lon="18.5869254"><ele>20.25</ele><time>2026-05-04T09:57:47.656Z</time></trkpt><trkpt lat="42.4402644" lon="18.5867708"><ele>17.5</ele><time>2026-05-04T09:57:48.66Z</time></trkpt><trkpt lat="42.4402993" lon="18.586612"><ele>14.75</ele><time>2026-05-04T09:57:49.663Z</time></trkpt><trkpt lat="42.4403312" lon="18.5864487"><ele>12.0</ele><time>2026-05-04T09:57:50.656Z</time></trkpt><trkpt lat="42.440364" lon="18.5862819"><ele>11.5</ele><time>2026-05-04T09:57:51.659Z</time></trkpt><trkpt lat="42.44039" lon="18.5861122"><ele>11.0</ele><time>2026-05-04T09:57:52.658Z</time></trkpt><trkpt lat="42.4404152" lon="18.5859502"><ele>10.5</ele><time>2026-05-04T09:57:53.657Z</time></trkpt><trkpt lat="42.440443" lon="18.5857843"><ele>10.0</ele><time>2026-05-04T09:57:54.661Z</time></trkpt><trkpt lat="42.4404828" lon="18.5856294"><ele>10.75</ele><time>2026-05-04T09:57:55.661Z</time></trkpt><trkpt lat="42.4405312" lon="18.5854817"><ele>11.5</ele><time>2026-05-04T09:57:56.661Z</time></trkpt><trkpt lat="42.4405902" lon="18.5853406"><ele>12.25</ele><time>2026-05-04T09:57:57.661Z</time></trkpt><trkpt lat="42.4406597" lon="18.5852095"><ele>13.0</ele><time>2026-05-04T09:57:58.66Z</time></trkpt><trkpt lat="42.4407362" lon="18.5850926"><ele>13.0</ele><time>2026-05-04T09:57:59.657Z</time></trkpt><trkpt lat="42.4408191" lon="18.5849898"><ele>13.0</ele><time>2026-05-04T09:58:00.659Z</time></trkpt><trkpt lat="42.4409046" lon="18.5848997"><ele>13.0</ele><time>2026-05-04T09:58:01.656Z</time></trkpt><trkpt lat="42.4410028" lon="18.5848208"><ele>13.0</ele><time>2026-05-04T09:58:02.658Z</time></trkpt><trkpt lat="42.4411126" lon="18.584755"><ele>13.0</ele><time>2026-05-04T09:58:03.656Z</time></trkpt><trkpt lat="42.4412196" lon="18.5847044"><ele>13.0</ele><time>2026-05-04T09:58:04.66Z</time></trkpt><trkpt lat="42.4413308" lon="18.5846639"><ele>13.0</ele><time>2026-05-04T09:58:05.662Z</time></trkpt><trkpt lat="42.4414418" lon="18.5846242"><ele>13.0</ele><time>2026-05-04T09:58:06.659Z</time></trkpt><trkpt lat="42.4415578" lon="18.5845871"><ele>13.0</ele><time>2026-05-04T09:58:07.658Z</time></trkpt><trkpt lat="42.4416782" lon="18.5845498"><ele>13.0</ele><time>2026-05-04T09:58:08.658Z</time></trkpt><trkpt lat="42.4418025" lon="18.5845134"><ele>13.0</ele><time>2026-05-04T09:58:09.657Z</time></trkpt><trkpt lat="42.4419279" lon="18.5844807"><ele>13.0</ele><time>2026-05-04T09:58:10.662Z</time></trkpt><trkpt lat="42.4420543" lon="18.5844378"><ele>14.25</ele><time>2026-05-04T09:58:11.657Z</time></trkpt><trkpt lat="42.4421801" lon="18.5844087"><ele>15.5</ele><time>2026-05-04T09:58:12.658Z</time></trkpt><trkpt lat="42.4423015" lon="18.5843753"><ele>16.75</ele><time>2026-05-04T09:58:13.66Z</time></trkpt><trkpt lat="42.4424171" lon="18.5843314"><ele>18.0</ele><time>2026-05-04T09:58:14.66Z</time></trkpt><trkpt lat="42.4425317" lon="18.5842836"><ele>18.0</ele><time>2026-05-04T09:58:15.658Z</time></trkpt><trkpt lat="42.4426431" lon="18.5842365"><ele>18.0</ele><time>2026-05-04T09:58:16.66Z</time></trkpt><trkpt lat="42.4427524" lon="18.5841682"><ele>18.0</ele><time>2026-05-04T09:58:17.662Z</time></trkpt><trkpt lat="42.4428512" lon="18.584085"><ele>18.0</ele><time>2026-05-04T09:58:18.658Z</time></trkpt><trkpt lat="42.4429526" lon="18.5839962"><ele>17.25</ele><time>2026-05-04T09:58:19.658Z</time></trkpt><trkpt lat="42.4430448" lon="18.5838893"><ele>16.5</ele><time>2026-05-04T09:58:20.658Z</time></trkpt><trkpt lat="42.4431408" lon="18.5837566"><ele>15.75</ele><time>2026-05-04T09:58:21.663Z</time></trkpt><trkpt lat="42.4432248" lon="18.5836182"><ele>15.0</ele><time>2026-05-04T09:58:22.663Z</time></trkpt><trkpt lat="42.4433037" lon="18.5834673"><ele>15.0</ele><time>2026-05-04T09:58:23.658Z</time></trkpt><trkpt lat="42.4433739" lon="18.5832972"><ele>15.0</ele><time>2026-05-04T09:58:24.66Z</time></trkpt><trkpt lat="42.4434289" lon="18.5831097"><ele>15.0</ele><time>2026-05-04T09:58:25.659Z</time></trkpt><trkpt lat="42.4434688" lon="18.5829197"><ele>15.0</ele><time>2026-05-04T09:58:26.66Z</time></trkpt><trkpt lat="42.4434976" lon="18.5827159"><ele>12.333333333333334</ele><time>2026-05-04T09:58:27.66Z</time></trkpt><trkpt lat="42.4435169" lon="18.5825164"><ele>9.666666666666668</ele><time>2026-05-04T09:58:28.66Z</time></trkpt><trkpt lat="42.4435313" lon="18.5823151"><ele>7.0</ele><time>2026-05-04T09:58:29.659Z</time></trkpt><trkpt lat="42.4435463" lon="18.5821069"><ele>6.333333333333334</ele><time>2026-05-04T09:58:30.659Z</time></trkpt><trkpt lat="42.443565" lon="18.5819023"><ele>5.666666666666667</ele><time>2026-05-04T09:58:31.658Z</time></trkpt><trkpt lat="42.4435784" lon="18.5817042"><ele>5.0</ele><time>2026-05-04T09:58:32.66Z</time></trkpt><trkpt lat="42.4435914" lon="18.5814987"><ele>5.0</ele><time>2026-05-04T09:58:33.657Z</time></trkpt><trkpt lat="42.4436074" lon="18.5812958"><ele>5.0</ele><time>2026-05-04T09:58:34.664Z</time></trkpt><trkpt lat="42.4436254" lon="18.5810936"><ele>5.0</ele><time>2026-05-04T09:58:35.659Z</time></trkpt><trkpt lat="42.4436471" lon="18.580886"><ele>5.0</ele><time>2026-05-04T09:58:36.659Z</time></trkpt><trkpt lat="42.4436718" lon="18.5807027"><ele>5.0</ele><time>2026-05-04T09:58:37.659Z</time></trkpt><trkpt lat="42.4437043" lon="18.5805149"><ele>5.0</ele><time>2026-05-04T09:58:38.657Z</time></trkpt><trkpt lat="42.4437404" lon="18.5803463"><ele>5.0</ele><time>2026-05-04T09:58:39.659Z</time></trkpt><trkpt lat="42.443781" lon="18.5801827"><ele>9.75</ele><time>2026-05-04T09:58:40.659Z</time></trkpt><trkpt lat="42.4438276" lon="18.5800136"><ele>14.5</ele><time>2026-05-04T09:58:41.658Z</time></trkpt><trkpt lat="42.4438757" lon="18.5798513"><ele>19.25</ele><time>2026-05-04T09:58:42.663Z</time></trkpt><trkpt lat="42.4439259" lon="18.579692"><ele>24.0</ele><time>2026-05-04T09:58:43.658Z</time></trkpt><trkpt lat="42.4439819" lon="18.5795382"><ele>20.75</ele><time>2026-05-04T09:58:44.66Z</time></trkpt><trkpt lat="42.4440528" lon="18.5793601"><ele>17.5</ele><time>2026-05-04T09:58:45.659Z</time></trkpt><trkpt lat="42.4441262" lon="18.5792073"><ele>14.25</ele><time>2026-05-04T09:58:46.655Z</time></trkpt><trkpt lat="42.4441996" lon="18.5790555"><ele>11.0</ele><time>2026-05-04T09:58:47.657Z</time></trkpt><trkpt lat="42.4442834" lon="18.5789214"><ele>11.0</ele><time>2026-05-04T09:58:48.659Z</time></trkpt><trkpt lat="42.4443677" lon="18.5787908"><ele>11.0</ele><time>2026-05-04T09:58:49.655Z</time></trkpt><trkpt lat="42.4444548" lon="18.5786553"><ele>11.0</ele><time>2026-05-04T09:58:50.662Z</time></trkpt><trkpt lat="42.4445437" lon="18.5785175"><ele>11.0</ele><time>2026-05-04T09:58:51.656Z</time></trkpt><trkpt lat="42.4446385" lon="18.5783853"><ele>12.0</ele><time>2026-05-04T09:58:52.657Z</time></trkpt><trkpt lat="42.4447229" lon="18.5782727"><ele>13.0</ele><time>2026-05-04T09:58:53.656Z</time></trkpt><trkpt lat="42.4448153" lon="18.5781663"><ele>14.0</ele><time>2026-05-04T09:58:54.656Z</time></trkpt><trkpt lat="42.4449081" lon="18.5780647"><ele>15.0</ele><time>2026-05-04T09:58:55.658Z</time></trkpt><trkpt lat="42.4450011" lon="18.5779751"><ele>15.0</ele><time>2026-05-04T09:58:56.659Z</time></trkpt><trkpt lat="42.4450955" lon="18.5778989"><ele>15.0</ele><time>2026-05-04T09:58:57.653Z</time></trkpt><trkpt lat="42.4451942" lon="18.5778288"><ele>15.0</ele><time>2026-05-04T09:58:58.656Z</time></trkpt><trkpt lat="42.4452901" lon="18.5777631"><ele>15.0</ele><time>2026-05-04T09:58:59.657Z</time></trkpt><trkpt lat="42.445387" lon="18.5777008"><ele>15.0</ele><time>2026-05-04T09:59:00.658Z</time></trkpt><trkpt lat="42.4454852" lon="18.5776381"><ele>13.8</ele><time>2026-05-04T09:59:01.657Z</time></trkpt><trkpt lat="42.4455862" lon="18.5775732"><ele>12.6</ele><time>2026-05-04T09:59:02.656Z</time></trkpt><trkpt lat="42.4456868" lon="18.5775121"><ele>11.4</ele><time>2026-05-04T09:59:03.655Z</time></trkpt><trkpt lat="42.4457836" lon="18.5774398"><ele>10.2</ele><time>2026-05-04T09:59:04.659Z</time></trkpt><trkpt lat="42.4458765" lon="18.5773687"><ele>9.0</ele><time>2026-05-04T09:59:05.66Z</time></trkpt><trkpt lat="42.445968" lon="18.5772927"><ele>9.0</ele><time>2026-05-04T09:59:06.656Z</time></trkpt><trkpt lat="42.4460568" lon="18.5772137"><ele>9.0</ele><time>2026-05-04T09:59:07.656Z</time></trkpt><trkpt lat="42.4461403" lon="18.5771436"><ele>9.0</ele><time>2026-05-04T09:59:08.656Z</time></trkpt><trkpt lat="42.4462211" lon="18.577076"><ele>9.0</ele><time>2026-05-04T09:59:09.661Z</time></trkpt><trkpt lat="42.4462998" lon="18.5770115"><ele>9.0</ele><time>2026-05-04T09:59:10.657Z</time></trkpt><trkpt lat="42.4464059" lon="18.5769159"><ele>8.2</ele><time>2026-05-04T09:59:12.658Z</time></trkpt><trkpt lat="42.4464989" lon="18.5768322"><ele>7.4</ele><time>2026-05-04T09:59:14.66Z</time></trkpt><trkpt lat="42.4465813" lon="18.5767587"><ele>6.6</ele><time>2026-05-04T09:59:16.66Z</time></trkpt><trkpt lat="42.4466568" lon="18.5766865"><ele>5.8</ele><time>2026-05-04T09:59:18.662Z</time></trkpt><trkpt lat="42.4467327" lon="18.5766236"><ele>5.0</ele><time>2026-05-04T09:59:20.657Z</time></trkpt><trkpt lat="42.4468344" lon="18.576541"><ele>5.0</ele><time>2026-05-04T09:59:22.664Z</time></trkpt><trkpt lat="42.446931" lon="18.5764488"><ele>5.0</ele><time>2026-05-04T09:59:24.662Z</time></trkpt><trkpt lat="42.4469867" lon="18.5763986"><ele>5.0</ele><time>2026-05-04T09:59:25.666Z</time></trkpt><trkpt lat="42.4470444" lon="18.5763414"><ele>5.0</ele><time>2026-05-04T09:59:26.657Z</time></trkpt><trkpt lat="42.4471508" lon="18.5762252"><ele>5.0</ele><time>2026-05-04T09:59:28.665Z</time></trkpt><trkpt lat="42.4472111" lon="18.5761736"><ele>4.666666666666667</ele><time>2026-05-04T09:59:29.664Z</time></trkpt><trkpt lat="42.4472668" lon="18.5761275"><ele>4.333333333333334</ele><time>2026-05-04T09:59:30.659Z</time></trkpt><trkpt lat="42.4473503" lon="18.5760566"><ele>4.0</ele><time>2026-05-04T09:59:32.658Z</time></trkpt><trkpt lat="42.4474128" lon="18.5759866"><ele>3.666666666666667</ele><time>2026-05-04T09:59:35.661Z</time></trkpt><trkpt lat="42.4474719" lon="18.5759345"><ele>3.3333333333333335</ele><time>2026-05-04T09:59:38.663Z</time></trkpt><trkpt lat="42.4475273" lon="18.5758778"><ele>3.0</ele><time>2026-05-04T09:59:40.66Z</time></trkpt><trkpt lat="42.4475886" lon="18.5758141"><ele>3.0</ele><time>2026-05-04T09:59:42.663Z</time></trkpt><trkpt lat="42.4476486" lon="18.5757558"><ele>3.0</ele><time>2026-05-04T09:59:44.664Z</time></trkpt><trkpt lat="42.4477285" lon="18.5756737"><ele>3.0</ele><time>2026-05-04T09:59:46.662Z</time></trkpt><trkpt lat="42.4478138" lon="18.5755495"><ele>3.0</ele><time>2026-05-04T09:59:48.664Z</time></trkpt><trkpt lat="42.4479087" lon="18.5754535"><ele>3.0</ele><time>2026-05-04T09:59:50.656Z</time></trkpt><trkpt lat="42.4480117" lon="18.575339"><ele>2.8</ele><time>2026-05-04T09:59:52.655Z</time></trkpt><trkpt lat="42.4480973" lon="18.5752505"><ele>2.5999999999999996</ele><time>2026-05-04T09:59:53.657Z</time></trkpt><trkpt lat="42.448172" lon="18.5751718"><ele>2.4000000000000004</ele><time>2026-05-04T09:59:54.662Z</time></trkpt><trkpt lat="42.4482486" lon="18.5750963"><ele>2.2</ele><time>2026-05-04T09:59:55.657Z</time></trkpt><trkpt lat="42.4483249" lon="18.575016"><ele>2.0</ele><time>2026-05-04T09:59:56.655Z</time></trkpt><trkpt lat="42.4484045" lon="18.5749389"><ele>2.0</ele><time>2026-05-04T09:59:57.66Z</time></trkpt><trkpt lat="42.4484807" lon="18.5748632"><ele>2.0</ele><time>2026-05-04T09:59:58.662Z</time></trkpt><trkpt lat="42.4485509" lon="18.5747907"><ele>2.0</ele><time>2026-05-04T09:59:59.664Z</time></trkpt><trkpt lat="42.4486282" lon="18.5747089"><ele>2.0</ele><time>2026-05-04T10:00:00.657Z</time></trkpt><trkpt lat="42.4487001" lon="18.5746271"><ele>2.0</ele><time>2026-05-04T10:00:01.656Z</time></trkpt><trkpt lat="42.4487715" lon="18.5745326"><ele>1.8</ele><time>2026-05-04T10:00:02.654Z</time></trkpt><trkpt lat="42.4488444" lon="18.5744572"><ele>1.6</ele><time>2026-05-04T10:00:03.662Z</time></trkpt><trkpt lat="42.4489102" lon="18.5743864"><ele>1.4000000000000001</ele><time>2026-05-04T10:00:04.663Z</time></trkpt><trkpt lat="42.4489782" lon="18.5743127"><ele>1.2000000000000002</ele><time>2026-05-04T10:00:05.66Z</time></trkpt><trkpt lat="42.4490485" lon="18.5742372"><ele>1.0</ele><time>2026-05-04T10:00:06.657Z</time></trkpt><trkpt lat="42.4491217" lon="18.5741452"><ele>1.0</ele><time>2026-05-04T10:00:07.662Z</time></trkpt><trkpt lat="42.4491991" lon="18.5740685"><ele>1.0</ele><time>2026-05-04T10:00:08.661Z</time></trkpt><trkpt lat="42.4492803" lon="18.5739984"><ele>1.0</ele><time>2026-05-04T10:00:09.664Z</time></trkpt><trkpt lat="42.4493729" lon="18.5738978"><ele>1.0</ele><time>2026-05-04T10:00:10.657Z</time></trkpt><trkpt lat="42.4494583" lon="18.5738365"><ele>1.0</ele><time>2026-05-04T10:00:11.66Z</time></trkpt><trkpt lat="42.4495455" lon="18.5737778"><ele>1.2000000000000002</ele><time>2026-05-04T10:00:12.656Z</time></trkpt><trkpt lat="42.4496347" lon="18.5737307"><ele>1.4000000000000001</ele><time>2026-05-04T10:00:13.658Z</time></trkpt><trkpt lat="42.4497255" lon="18.5736882"><ele>1.6</ele><time>2026-05-04T10:00:14.661Z</time></trkpt><trkpt lat="42.4498143" lon="18.5736517"><ele>1.8</ele><time>2026-05-04T10:00:15.658Z</time></trkpt><trkpt lat="42.4498947" lon="18.5736304"><ele>2.0</ele><time>2026-05-04T10:00:16.659Z</time></trkpt><trkpt lat="42.4499817" lon="18.5736104"><ele>2.0</ele><time>2026-05-04T10:00:17.661Z</time></trkpt><trkpt lat="42.4500707" lon="18.5735738"><ele>2.0</ele><time>2026-05-04T10:00:18.662Z</time></trkpt><trkpt lat="42.4501671" lon="18.5735296"><ele>2.0</ele><time>2026-05-04T10:00:19.658Z</time></trkpt><trkpt lat="42.4502564" lon="18.5734921"><ele>2.0</ele><time>2026-05-04T10:00:20.656Z</time></trkpt><trkpt lat="42.4503447" lon="18.5734445"><ele>2.0</ele><time>2026-05-04T10:00:21.661Z</time></trkpt><trkpt lat="42.4504267" lon="18.5733859"><ele>1.8</ele><time>2026-05-04T10:00:22.657Z</time></trkpt><trkpt lat="42.4505079" lon="18.5733331"><ele>1.6</ele><time>2026-05-04T10:00:23.661Z</time></trkpt><trkpt lat="42.4505844" lon="18.5732755"><ele>1.4000000000000001</ele><time>2026-05-04T10:00:24.661Z</time></trkpt><trkpt lat="42.4506638" lon="18.5732098"><ele>1.2000000000000002</ele><time>2026-05-04T10:00:25.659Z</time></trkpt><trkpt lat="42.4507406" lon="18.5731451"><ele>1.0</ele><time>2026-05-04T10:00:26.656Z</time></trkpt><trkpt lat="42.4508119" lon="18.5730738"><ele>0.9999999999999999</ele><time>2026-05-04T10:00:27.657Z</time></trkpt><trkpt lat="42.4508815" lon="18.5730043"><ele>1.0</ele><time>2026-05-04T10:00:28.657Z</time></trkpt><trkpt lat="42.4509474" lon="18.5729321"><ele>1.0</ele><time>2026-05-04T10:00:29.658Z</time></trkpt><trkpt lat="42.4510113" lon="18.5728618"><ele>1.0</ele><time>2026-05-04T10:00:30.66Z</time></trkpt><trkpt lat="42.4510629" lon="18.5727993"><ele>0.9999999999999999</ele><time>2026-05-04T10:00:31.659Z</time></trkpt><trkpt lat="42.451129" lon="18.5727376"><ele>1.0</ele><time>2026-05-04T10:00:32.66Z</time></trkpt><trkpt lat="42.4511893" lon="18.5726596"><ele>0.9999999999999999</ele><time>2026-05-04T10:00:33.662Z</time></trkpt><trkpt lat="42.4512512" lon="18.5725885"><ele>1.0</ele><time>2026-05-04T10:00:34.657Z</time></trkpt><trkpt lat="42.451309" lon="18.5725132"><ele>1.0</ele><time>2026-05-04T10:00:35.658Z</time></trkpt><trkpt lat="42.451372" lon="18.5724321"><ele>1.0</ele><time>2026-05-04T10:00:36.656Z</time></trkpt><trkpt lat="42.451433" lon="18.5723392"><ele>0.9999999999999999</ele><time>2026-05-04T10:00:37.659Z</time></trkpt><trkpt lat="42.4514901" lon="18.5722401"><ele>1.0</ele><time>2026-05-04T10:00:38.656Z</time></trkpt><trkpt lat="42.4515367" lon="18.5721494"><ele>2.333333333333333</ele><time>2026-05-04T10:00:39.658Z</time></trkpt><trkpt lat="42.4515816" lon="18.5720542"><ele>3.6666666666666665</ele><time>2026-05-04T10:00:40.657Z</time></trkpt><trkpt lat="42.4516273" lon="18.5719547"><ele>5.0</ele><time>2026-05-04T10:00:41.66Z</time></trkpt><trkpt lat="42.4516735" lon="18.571844"><ele>6.333333333333333</ele><time>2026-05-04T10:00:42.658Z</time></trkpt><trkpt lat="42.4517081" lon="18.5717442"><ele>7.666666666666667</ele><time>2026-05-04T10:00:43.657Z</time></trkpt><trkpt lat="42.4517542" lon="18.5716369"><ele>9.0</ele><time>2026-05-04T10:00:44.658Z</time></trkpt><trkpt lat="42.4518056" lon="18.5715243"><ele>9.0</ele><time>2026-05-04T10:00:45.659Z</time></trkpt><trkpt lat="42.4518568" lon="18.571387"><ele>9.0</ele><time>2026-05-04T10:00:46.66Z</time></trkpt><trkpt lat="42.4519151" lon="18.571256"><ele>9.0</ele><time>2026-05-04T10:00:47.659Z</time></trkpt><trkpt lat="42.4519719" lon="18.5711247"><ele>9.0</ele><time>2026-05-04T10:00:48.658Z</time></trkpt><trkpt lat="42.4520343" lon="18.5709935"><ele>7.0</ele><time>2026-05-04T10:00:49.661Z</time></trkpt><trkpt lat="42.4520916" lon="18.5708702"><ele>5.0</ele><time>2026-05-04T10:00:50.662Z</time></trkpt><trkpt lat="42.4521594" lon="18.5707525"><ele>3.0</ele><time>2026-05-04T10:00:51.656Z</time></trkpt><trkpt lat="42.4522442" lon="18.5706364"><ele>1.0</ele><time>2026-05-04T10:00:52.659Z</time></trkpt><trkpt lat="42.4523353" lon="18.5705373"><ele>2.0</ele><time>2026-05-04T10:00:53.664Z</time></trkpt><trkpt lat="42.4524235" lon="18.5704399"><ele>3.0</ele><time>2026-05-04T10:00:54.659Z</time></trkpt><trkpt lat="42.4525079" lon="18.5703527"><ele>3.9999999999999996</ele><time>2026-05-04T10:00:55.661Z</time></trkpt><trkpt lat="42.4525904" lon="18.5702731"><ele>5.0</ele><time>2026-05-04T10:00:56.657Z</time></trkpt><trkpt lat="42.4526655" lon="18.5702094"><ele>6.0</ele><time>2026-05-04T10:00:57.657Z</time></trkpt><trkpt lat="42.4527277" lon="18.5701576"><ele>6.0</ele><time>2026-05-04T10:00:58.656Z</time></trkpt><trkpt lat="42.4527793" lon="18.5701012"><ele>6.0</ele><time>2026-05-04T10:00:59.657Z</time></trkpt><trkpt lat="42.4528599" lon="18.5700175"><ele>6.0</ele><time>2026-05-04T10:01:01.655Z</time></trkpt><trkpt lat="42.4529323" lon="18.56994"><ele>6.0</ele><time>2026-05-04T10:01:03.658Z</time></trkpt><trkpt lat="42.4530341" lon="18.5698267"><ele>6.0</ele><time>2026-05-04T10:01:05.658Z</time></trkpt><trkpt lat="42.4531094" lon="18.5697456"><ele>6.75</ele><time>2026-05-04T10:01:06.655Z</time></trkpt><trkpt lat="42.4531884" lon="18.5696666"><ele>7.5</ele><time>2026-05-04T10:01:07.66Z</time></trkpt><trkpt lat="42.453295" lon="18.5695661"><ele>8.25</ele><time>2026-05-04T10:01:08.655Z</time></trkpt><trkpt lat="42.4533929" lon="18.569465"><ele>9.0</ele><time>2026-05-04T10:01:09.656Z</time></trkpt><trkpt lat="42.4534902" lon="18.5693669"><ele>9.0</ele><time>2026-05-04T10:01:10.659Z</time></trkpt><trkpt lat="42.4535793" lon="18.5692711"><ele>9.0</ele><time>2026-05-04T10:01:11.655Z</time></trkpt><trkpt lat="42.4536588" lon="18.5691949"><ele>9.0</ele><time>2026-05-04T10:01:12.662Z</time></trkpt><trkpt lat="42.4537136" lon="18.5691237"><ele>9.0</ele><time>2026-05-04T10:01:13.663Z</time></trkpt><trkpt lat="42.4537684" lon="18.5690463"><ele>9.0</ele><time>2026-05-04T10:01:14.659Z</time></trkpt><trkpt lat="42.4538288" lon="18.5689758"><ele>9.0</ele><time>2026-05-04T10:01:15.656Z</time></trkpt><trkpt lat="42.4539025" lon="18.5688904"><ele>10.4</ele><time>2026-05-04T10:01:16.663Z</time></trkpt><trkpt lat="42.4539804" lon="18.5688004"><ele>11.8</ele><time>2026-05-04T10:01:17.659Z</time></trkpt><trkpt lat="42.4540651" lon="18.5687009"><ele>13.200000000000001</ele><time>2026-05-04T10:01:18.654Z</time></trkpt><trkpt lat="42.4541393" lon="18.568615"><ele>14.600000000000001</ele><time>2026-05-04T10:01:19.658Z</time></trkpt><trkpt lat="42.4541995" lon="18.5685389"><ele>16.0</ele><time>2026-05-04T10:01:20.655Z</time></trkpt><trkpt lat="42.454249" lon="18.568484"><ele>16.0</ele><time>2026-05-04T10:01:21.656Z</time></trkpt><trkpt lat="42.4543167" lon="18.5684072"><ele>16.0</ele><time>2026-05-04T10:01:23.658Z</time></trkpt><trkpt lat="42.454426" lon="18.5682644"><ele>16.0</ele><time>2026-05-04T10:01:25.657Z</time></trkpt><trkpt lat="42.4545083" lon="18.5681744"><ele>16.0</ele><time>2026-05-04T10:01:26.66Z</time></trkpt><trkpt lat="42.4545787" lon="18.5681129"><ele>16.0</ele><time>2026-05-04T10:01:27.657Z</time></trkpt><trkpt lat="42.4546431" lon="18.5680504"><ele>31.0</ele><time>2026-05-04T10:01:28.66Z</time></trkpt><trkpt lat="42.4556044" lon="18.5665162"><ele>31.0</ele><time>2026-05-04T10:02:37.659Z</time></trkpt><trkpt lat="42.4556426" lon="18.5663723"><ele>31.0</ele><time>2026-05-04T10:02:38.659Z</time></trkpt><trkpt lat="42.4556759" lon="18.5662341"><ele>31.0</ele><time>2026-05-04T10:02:39.66Z</time></trkpt><trkpt lat="42.4557051" lon="18.5661055"><ele>31.0</ele><time>2026-05-04T10:02:40.656Z</time></trkpt><trkpt lat="42.4557262" lon="18.5660089"><ele>31.0</ele><time>2026-05-04T10:02:41.657Z</time></trkpt><trkpt lat="42.4557398" lon="18.5659252"><ele>29.000000000000004</ele><time>2026-05-04T10:02:42.653Z</time></trkpt><trkpt lat="42.4557563" lon="18.5657834"><ele>27.0</ele><time>2026-05-04T10:02:44.656Z</time></trkpt><trkpt lat="42.4557616" lon="18.5656525"><ele>25.0</ele><time>2026-05-04T10:02:46.655Z</time></trkpt><trkpt lat="42.4557668" lon="18.5655552"><ele>23.0</ele><time>2026-05-04T10:02:48.658Z</time></trkpt><trkpt lat="42.4557708" lon="18.5654224"><ele>21.0</ele><time>2026-05-04T10:02:51.655Z</time></trkpt><trkpt lat="42.4557644" lon="18.5653286"><ele>19.0</ele><time>2026-05-04T10:02:53.656Z</time></trkpt><trkpt lat="42.455758" lon="18.5652303"><ele>19.0</ele><time>2026-05-04T10:02:56.659Z</time></trkpt><trkpt lat="42.4557525" lon="18.565105"><ele>19.0</ele><time>2026-05-04T10:02:58.655Z</time></trkpt><trkpt lat="42.4557441" lon="18.5650137"><ele>19.0</ele><time>2026-05-04T10:02:59.657Z</time></trkpt><trkpt lat="42.4557353" lon="18.5649144"><ele>19.0</ele><time>2026-05-04T10:03:00.656Z</time></trkpt><trkpt lat="42.4557229" lon="18.5648096"><ele>19.0</ele><time>2026-05-04T10:03:01.657Z</time></trkpt><trkpt lat="42.4557005" lon="18.5646433"><ele>19.0</ele><time>2026-05-04T10:03:03.659Z</time></trkpt><trkpt lat="42.4556752" lon="18.5645477"><ele>19.333333333333332</ele><time>2026-05-04T10:03:04.658Z</time></trkpt><trkpt lat="42.4556499" lon="18.5644344"><ele>19.666666666666664</ele><time>2026-05-04T10:03:05.656Z</time></trkpt><trkpt lat="42.4556293" lon="18.5643116"><ele>20.0</ele><time>2026-05-04T10:03:06.656Z</time></trkpt><trkpt lat="42.4556077" lon="18.5641998"><ele>20.333333333333332</ele><time>2026-05-04T10:03:07.657Z</time></trkpt><trkpt lat="42.455581" lon="18.5640982"><ele>20.666666666666668</ele><time>2026-05-04T10:03:08.654Z</time></trkpt><trkpt lat="42.4555507" lon="18.5640117"><ele>21.0</ele><time>2026-05-04T10:03:09.66Z</time></trkpt><trkpt lat="42.4555069" lon="18.5638522"><ele>21.0</ele><time>2026-05-04T10:03:11.658Z</time></trkpt><trkpt lat="42.4554743" lon="18.5637481"><ele>21.0</ele><time>2026-05-04T10:03:12.656Z</time></trkpt><trkpt lat="42.4554489" lon="18.5636414"><ele>21.0</ele><time>2026-05-04T10:03:13.658Z</time></trkpt><trkpt lat="42.4554252" lon="18.5635367"><ele>21.0</ele><time>2026-05-04T10:03:14.656Z</time></trkpt><trkpt lat="42.4553996" lon="18.5634138"><ele>21.0</ele><time>2026-05-04T10:03:15.658Z</time></trkpt><trkpt lat="42.4553794" lon="18.5632982"><ele>21.0</ele><time>2026-05-04T10:03:16.654Z</time></trkpt><trkpt lat="42.4553614" lon="18.5631999"><ele>18.833333333333332</ele><time>2026-05-04T10:03:17.658Z</time></trkpt><trkpt lat="42.4553427" lon="18.5630547"><ele>16.666666666666668</ele><time>2026-05-04T10:03:19.658Z</time></trkpt><trkpt lat="42.4553294" lon="18.562955"><ele>14.5</ele><time>2026-05-04T10:03:21.658Z</time></trkpt><trkpt lat="42.4553189" lon="18.5628564"><ele>12.333333333333332</ele><time>2026-05-04T10:03:23.656Z</time></trkpt><trkpt lat="42.455306" lon="18.562744"><ele>10.166666666666666</ele><time>2026-05-04T10:03:26.659Z</time></trkpt><trkpt lat="42.4552881" lon="18.562661"><ele>8.0</ele><time>2026-05-04T10:03:28.657Z</time></trkpt><trkpt lat="42.455275" lon="18.5624938"><ele>7.666666666666666</ele><time>2026-05-04T10:03:30.657Z</time></trkpt><trkpt lat="42.4552686" lon="18.5624019"><ele>7.333333333333333</ele><time>2026-05-04T10:03:31.657Z</time></trkpt><trkpt lat="42.455262" lon="18.562316"><ele>7.0</ele><time>2026-05-04T10:03:32.658Z</time></trkpt><trkpt lat="42.455254" lon="18.5621547"><ele>6.666666666666666</ele><time>2026-05-04T10:03:34.66Z</time></trkpt><trkpt lat="42.4552501" lon="18.5620221"><ele>6.333333333333333</ele><time>2026-05-04T10:03:36.658Z</time></trkpt><trkpt lat="42.455248" lon="18.5619124"><ele>6.0</ele><time>2026-05-04T10:03:38.656Z</time></trkpt><trkpt lat="42.4552547" lon="18.5617945"><ele>5.8</ele><time>2026-05-04T10:03:48.656Z</time></trkpt><trkpt lat="42.4552535" lon="18.5616713"><ele>5.6</ele><time>2026-05-04T10:03:50.653Z</time></trkpt><trkpt lat="42.4552529" lon="18.5615358"><ele>5.4</ele><time>2026-05-04T10:03:52.662Z</time></trkpt><trkpt lat="42.4552543" lon="18.5613928"><ele>5.2</ele><time>2026-05-04T10:03:54.658Z</time></trkpt><trkpt lat="42.4552551" lon="18.5612346"><ele>5.0</ele><time>2026-05-04T10:03:56.657Z</time></trkpt><trkpt lat="42.4552561" lon="18.5611451"><ele>4.833333333333334</ele><time>2026-05-04T10:03:57.656Z</time></trkpt><trkpt lat="42.455261" lon="18.5610537"><ele>4.666666666666667</ele><time>2026-05-04T10:03:58.657Z</time></trkpt><trkpt lat="42.4552645" lon="18.5609573"><ele>4.5</ele><time>2026-05-04T10:03:59.656Z</time></trkpt><trkpt lat="42.4552663" lon="18.5608506"><ele>4.333333333333333</ele><time>2026-05-04T10:04:00.657Z</time></trkpt><trkpt lat="42.4552698" lon="18.5607582"><ele>4.166666666666666</ele><time>2026-05-04T10:04:01.654Z</time></trkpt><trkpt lat="42.4552735" lon="18.5605999"><ele>4.0</ele><time>2026-05-04T10:04:03.658Z</time></trkpt><trkpt lat="42.4552829" lon="18.5605136"><ele>4.75</ele><time>2026-05-04T10:04:04.657Z</time></trkpt><trkpt lat="42.4552804" lon="18.5603544"><ele>5.5</ele><time>2026-05-04T10:04:06.659Z</time></trkpt><trkpt lat="42.4552852" lon="18.5601895"><ele>6.25</ele><time>2026-05-04T10:04:08.66Z</time></trkpt><trkpt lat="42.4552885" lon="18.5600204"><ele>7.0</ele><time>2026-05-04T10:04:10.659Z</time></trkpt><trkpt lat="42.4552929" lon="18.5598934"><ele>7.0</ele><time>2026-05-04T10:04:12.653Z</time></trkpt><trkpt lat="42.4552924" lon="18.5598013"><ele>7.0</ele><time>2026-05-04T10:04:15.658Z</time></trkpt><trkpt lat="42.455288" lon="18.5597024"><ele>7.0</ele><time>2026-05-04T10:04:19.657Z</time></trkpt><trkpt lat="42.4552896" lon="18.5595862"><ele>7.0</ele><time>2026-05-04T10:04:23.659Z</time></trkpt><trkpt lat="42.4552891" lon="18.5594803"><ele>7.0</ele><time>2026-05-04T10:04:26.66Z</time></trkpt><trkpt lat="42.4552879" lon="18.5593945"><ele>7.0</ele><time>2026-05-04T10:04:29.66Z</time></trkpt><trkpt lat="42.4552724" lon="18.5593045"><ele>7.0</ele><time>2026-05-04T10:04:31.659Z</time></trkpt><trkpt lat="42.4552617" lon="18.5592197"><ele>6.833333333333334</ele><time>2026-05-04T10:04:32.656Z</time></trkpt><trkpt lat="42.4552457" lon="18.5591101"><ele>6.666666666666667</ele><time>2026-05-04T10:04:33.66Z</time></trkpt><trkpt lat="42.4552341" lon="18.5589915"><ele>6.5</ele><time>2026-05-04T10:04:34.658Z</time></trkpt><trkpt lat="42.4552162" lon="18.5589056"><ele>6.333333333333334</ele><time>2026-05-04T10:04:35.654Z</time></trkpt><trkpt lat="42.4552162" lon="18.5587532"><ele>6.166666666666667</ele><time>2026-05-04T10:04:37.658Z</time></trkpt><trkpt lat="42.4552329" lon="18.5586691"><ele>6.0</ele><time>2026-05-04T10:04:38.661Z</time></trkpt><trkpt lat="42.4552638" lon="18.5585334"><ele>6.0</ele><time>2026-05-04T10:04:40.658Z</time></trkpt><trkpt lat="42.4552608" lon="18.5583717"><ele>6.0</ele><time>2026-05-04T10:04:44.664Z</time></trkpt><trkpt lat="42.4551919" lon="18.5582526"><ele>6.0</ele><time>2026-05-04T10:04:45.662Z</time></trkpt><trkpt lat="42.4551255" lon="18.5581136"><ele>6.0</ele><time>2026-05-04T10:04:47.658Z</time></trkpt><trkpt lat="42.4550997" lon="18.5580162"><ele>6.0</ele><time>2026-05-04T10:04:48.661Z</time></trkpt><trkpt lat="42.4550741" lon="18.5579278"><ele>6.0</ele><time>2026-05-04T10:04:49.659Z</time></trkpt><trkpt lat="42.4550533" lon="18.5578327"><ele>6.0</ele><time>2026-05-04T10:04:50.656Z</time></trkpt><trkpt lat="42.4550304" lon="18.557726"><ele>6.0</ele><time>2026-05-04T10:04:51.657Z</time></trkpt><trkpt lat="42.4550042" lon="18.5576097"><ele>6.0</ele><time>2026-05-04T10:04:52.656Z</time></trkpt><trkpt lat="42.4549784" lon="18.5574985"><ele>6.0</ele><time>2026-05-04T10:04:53.658Z</time></trkpt><trkpt lat="42.454952" lon="18.5573859"><ele>6.0</ele><time>2026-05-04T10:04:54.657Z</time></trkpt><trkpt lat="42.4549304" lon="18.5572711"><ele>6.0</ele><time>2026-05-04T10:04:55.659Z</time></trkpt><trkpt lat="42.4549055" lon="18.5571589"><ele>6.0</ele><time>2026-05-04T10:04:56.656Z</time></trkpt><trkpt lat="42.4548854" lon="18.5570568"><ele>6.0</ele><time>2026-05-04T10:04:57.658Z</time></trkpt><trkpt lat="42.4548658" lon="18.5569311"><ele>6.0</ele><time>2026-05-04T10:04:58.657Z</time></trkpt><trkpt lat="42.4548457" lon="18.5567885"><ele>6.0</ele><time>2026-05-04T10:04:59.656Z</time></trkpt><trkpt lat="42.4548254" lon="18.5566652"><ele>6.0</ele><time>2026-05-04T10:05:00.657Z</time></trkpt><trkpt lat="42.4548063" lon="18.5565327"><ele>6.0</ele><time>2026-05-04T10:05:01.658Z</time></trkpt><trkpt lat="42.45479" lon="18.5563993"><ele>6.0</ele><time>2026-05-04T10:05:02.653Z</time></trkpt><trkpt lat="42.4547728" lon="18.5562619"><ele>6.0</ele><time>2026-05-04T10:05:03.655Z</time></trkpt><trkpt lat="42.4547607" lon="18.5561143"><ele>6.0</ele><time>2026-05-04T10:05:04.659Z</time></trkpt><trkpt lat="42.4547478" lon="18.5559648"><ele>6.5</ele><time>2026-05-04T10:05:05.66Z</time></trkpt><trkpt lat="42.4547454" lon="18.5558006"><ele>7.0</ele><time>2026-05-04T10:05:06.655Z</time></trkpt><trkpt lat="42.4547408" lon="18.5556163"><ele>7.5</ele><time>2026-05-04T10:05:07.655Z</time></trkpt><trkpt lat="42.4547449" lon="18.5554331"><ele>8.0</ele><time>2026-05-04T10:05:08.656Z</time></trkpt><trkpt lat="42.4547527" lon="18.5552537"><ele>9.0</ele><time>2026-05-04T10:05:09.654Z</time></trkpt><trkpt lat="42.4547619" lon="18.5550709"><ele>10.0</ele><time>2026-05-04T10:05:10.657Z</time></trkpt><trkpt lat="42.4547829" lon="18.5549036"><ele>11.0</ele><time>2026-05-04T10:05:11.661Z</time></trkpt><trkpt lat="42.4548082" lon="18.5547435"><ele>12.0</ele><time>2026-05-04T10:05:12.659Z</time></trkpt><trkpt lat="42.4548297" lon="18.5545976"><ele>12.6</ele><time>2026-05-04T10:05:13.66Z</time></trkpt><trkpt lat="42.4548552" lon="18.55446"><ele>13.2</ele><time>2026-05-04T10:05:14.654Z</time></trkpt><trkpt lat="42.4548883" lon="18.5543195"><ele>13.8</ele><time>2026-05-04T10:05:15.655Z</time></trkpt><trkpt lat="42.4549279" lon="18.5541787"><ele>14.4</ele><time>2026-05-04T10:05:16.656Z</time></trkpt><trkpt lat="42.4549697" lon="18.5540366"><ele>15.0</ele><time>2026-05-04T10:05:17.659Z</time></trkpt><trkpt lat="42.4550127" lon="18.5538939"><ele>15.0</ele><time>2026-05-04T10:05:18.659Z</time></trkpt><trkpt lat="42.4550621" lon="18.5537441"><ele>15.0</ele><time>2026-05-04T10:05:19.657Z</time></trkpt><trkpt lat="42.455117" lon="18.5535928"><ele>15.0</ele><time>2026-05-04T10:05:20.658Z</time></trkpt><trkpt lat="42.4551681" lon="18.5534337"><ele>15.0</ele><time>2026-05-04T10:05:21.658Z</time></trkpt><trkpt lat="42.4552242" lon="18.5532551"><ele>15.75</ele><time>2026-05-04T10:05:22.658Z</time></trkpt><trkpt lat="42.4552854" lon="18.5530879"><ele>16.5</ele><time>2026-05-04T10:05:23.657Z</time></trkpt><trkpt lat="42.4553487" lon="18.552912"><ele>17.25</ele><time>2026-05-04T10:05:24.659Z</time></trkpt><trkpt lat="42.4554109" lon="18.5527327"><ele>18.0</ele><time>2026-05-04T10:05:25.656Z</time></trkpt><trkpt lat="42.455472" lon="18.5525543"><ele>18.5</ele><time>2026-05-04T10:05:26.66Z</time></trkpt><trkpt lat="42.455532" lon="18.5523753"><ele>19.0</ele><time>2026-05-04T10:05:27.657Z</time></trkpt><trkpt lat="42.4555804" lon="18.5521891"><ele>19.5</ele><time>2026-05-04T10:05:28.658Z</time></trkpt><trkpt lat="42.4556187" lon="18.5520075"><ele>20.0</ele><time>2026-05-04T10:05:29.66Z</time></trkpt><trkpt lat="42.4556439" lon="18.5518204"><ele>20.0</ele><time>2026-05-04T10:05:30.66Z</time></trkpt><trkpt lat="42.4556699" lon="18.5516389"><ele>20.0</ele><time>2026-05-04T10:05:31.654Z</time></trkpt><trkpt lat="42.4556762" lon="18.5514579"><ele>20.0</ele><time>2026-05-04T10:05:32.654Z</time></trkpt><trkpt lat="42.4556696" lon="18.5512836"><ele>20.0</ele><time>2026-05-04T10:05:33.651Z</time></trkpt><trkpt lat="42.4556451" lon="18.5511125"><ele>21.5</ele><time>2026-05-04T10:05:34.657Z</time></trkpt><trkpt lat="42.4556057" lon="18.5509398"><ele>23.0</ele><time>2026-05-04T10:05:35.658Z</time></trkpt><trkpt lat="42.4555522" lon="18.5507675"><ele>24.5</ele><time>2026-05-04T10:05:36.662Z</time></trkpt><trkpt lat="42.4554799" lon="18.5505824"><ele>26.0</ele><time>2026-05-04T10:05:37.656Z</time></trkpt><trkpt lat="42.4553971" lon="18.5503906"><ele>31.0</ele><time>2026-05-04T10:05:38.657Z</time></trkpt><trkpt lat="42.4552956" lon="18.5502046"><ele>36.0</ele><time>2026-05-04T10:05:39.656Z</time></trkpt><trkpt lat="42.4551937" lon="18.5499896"><ele>41.0</ele><time>2026-05-04T10:05:40.653Z</time></trkpt><trkpt lat="42.4551007" lon="18.549758"><ele>42.0</ele><time>2026-05-04T10:05:41.657Z</time></trkpt><trkpt lat="42.4550419" lon="18.5494939"><ele>43.0</ele><time>2026-05-04T10:05:42.661Z</time></trkpt><trkpt lat="42.4550186" lon="18.5492306"><ele>44.0</ele><time>2026-05-04T10:05:43.657Z</time></trkpt><trkpt lat="42.4550152" lon="18.5489672"><ele>44.0</ele><time>2026-05-04T10:05:44.656Z</time></trkpt><trkpt lat="42.4550057" lon="18.5487099"><ele>44.0</ele><time>2026-05-04T10:05:45.658Z</time></trkpt><trkpt lat="42.4549933" lon="18.5484607"><ele>44.0</ele><time>2026-05-04T10:05:46.655Z</time></trkpt><trkpt lat="42.4549711" lon="18.5482214"><ele>44.0</ele><time>2026-05-04T10:05:47.656Z</time></trkpt><trkpt lat="42.4549408" lon="18.5479979"><ele>44.0</ele><time>2026-05-04T10:05:48.658Z</time></trkpt><trkpt lat="42.4549021" lon="18.5478016"><ele>44.0</ele><time>2026-05-04T10:05:49.659Z</time></trkpt><trkpt lat="42.4548579" lon="18.5476195"><ele>44.0</ele><time>2026-05-04T10:05:50.659Z</time></trkpt><trkpt lat="42.4548127" lon="18.5474571"><ele>44.0</ele><time>2026-05-04T10:05:51.657Z</time></trkpt><trkpt lat="42.4547728" lon="18.547292"><ele>44.0</ele><time>2026-05-04T10:05:52.656Z</time></trkpt><trkpt lat="42.4547371" lon="18.5472093"><ele>44.0</ele><time>2026-05-04T10:05:53.659Z</time></trkpt><trkpt lat="42.4546973" lon="18.5470901"><ele>44.0</ele><time>2026-05-04T10:05:54.657Z</time></trkpt><trkpt lat="42.4546496" lon="18.5469643"><ele>47.400000000000006</ele><time>2026-05-04T10:05:55.656Z</time></trkpt><trkpt lat="42.4545968" lon="18.5468356"><ele>50.8</ele><time>2026-05-04T10:05:56.66Z</time></trkpt><trkpt lat="42.4545489" lon="18.5467045"><ele>54.199999999999996</ele><time>2026-05-04T10:05:57.66Z</time></trkpt><trkpt lat="42.4544961" lon="18.5465658"><ele>57.599999999999994</ele><time>2026-05-04T10:05:58.663Z</time></trkpt><trkpt lat="42.4544472" lon="18.5464345"><ele>61.0</ele><time>2026-05-04T10:05:59.659Z</time></trkpt><trkpt lat="42.4543663" lon="18.5463273"><ele>60.33333333333333</ele><time>2026-05-04T10:06:00.66Z</time></trkpt><trkpt lat="42.4543241" lon="18.5462005"><ele>59.666666666666664</ele><time>2026-05-04T10:06:01.661Z</time></trkpt><trkpt lat="42.4542854" lon="18.5460944"><ele>59.0</ele><time>2026-05-04T10:06:02.656Z</time></trkpt><trkpt lat="42.4542492" lon="18.545999"><ele>58.33333333333333</ele><time>2026-05-04T10:06:03.656Z</time></trkpt><trkpt lat="42.4542144" lon="18.5459137"><ele>57.666666666666664</ele><time>2026-05-04T10:06:04.657Z</time></trkpt><trkpt lat="42.4541743" lon="18.5458089"><ele>57.0</ele><time>2026-05-04T10:06:06.659Z</time></trkpt><trkpt lat="42.4541449" lon="18.5457279"><ele>57.0</ele><time>2026-05-04T10:06:09.658Z</time></trkpt><trkpt lat="42.45411" lon="18.5456149"><ele>57.0</ele><time>2026-05-04T10:06:13.658Z</time></trkpt><trkpt lat="42.4540849" lon="18.5455214"><ele>57.0</ele><time>2026-05-04T10:06:16.657Z</time></trkpt><trkpt lat="42.4540559" lon="18.5454363"><ele>57.0</ele><time>2026-05-04T10:06:21.659Z</time></trkpt><trkpt lat="42.4540283" lon="18.5453468"><ele>57.0</ele><time>2026-05-04T10:06:28.661Z</time></trkpt><trkpt lat="42.4540034" lon="18.5452306"><ele>57.0</ele><time>2026-05-04T10:06:39.654Z</time></trkpt><trkpt lat="42.4539556" lon="18.5450996"><ele>57.400000000000006</ele><time>2026-05-04T10:06:40.659Z</time></trkpt><trkpt lat="42.4539125" lon="18.5449617"><ele>57.800000000000004</ele><time>2026-05-04T10:06:41.658Z</time></trkpt><trkpt lat="42.4538767" lon="18.5448252"><ele>58.2</ele><time>2026-05-04T10:06:42.658Z</time></trkpt><trkpt lat="42.4538495" lon="18.5446787"><ele>58.6</ele><time>2026-05-04T10:06:43.659Z</time></trkpt><trkpt lat="42.453827" lon="18.5445438"><ele>59.0</ele><time>2026-05-04T10:06:44.656Z</time></trkpt><trkpt lat="42.4538142" lon="18.5444353"><ele>60.0</ele><time>2026-05-04T10:06:45.657Z</time></trkpt><trkpt lat="42.453804" lon="18.5442866"><ele>61.00000000000001</ele><time>2026-05-04T10:06:47.655Z</time></trkpt><trkpt lat="42.4537954" lon="18.5441735"><ele>62.00000000000001</ele><time>2026-05-04T10:06:49.66Z</time></trkpt><trkpt lat="42.453789" lon="18.544061"><ele>63.0</ele><time>2026-05-04T10:06:51.657Z</time></trkpt><trkpt lat="42.4537811" lon="18.5438914"><ele>64.0</ele><time>2026-05-04T10:06:53.658Z</time></trkpt><trkpt lat="42.4537909" lon="18.5437757"><ele>63.6</ele><time>2026-05-04T10:06:54.657Z</time></trkpt><trkpt lat="42.4538124" lon="18.5436437"><ele>63.2</ele><time>2026-05-04T10:06:55.657Z</time></trkpt><trkpt lat="42.4538379" lon="18.5435119"><ele>62.800000000000004</ele><time>2026-05-04T10:06:56.659Z</time></trkpt><trkpt lat="42.4538648" lon="18.54339"><ele>62.400000000000006</ele><time>2026-05-04T10:06:57.661Z</time></trkpt><trkpt lat="42.4538808" lon="18.5432866"><ele>62.0</ele><time>2026-05-04T10:06:58.659Z</time></trkpt><trkpt lat="42.4538944" lon="18.5431626"><ele>62.0</ele><time>2026-05-04T10:06:59.657Z</time></trkpt><trkpt lat="42.4539354" lon="18.5430244"><ele>62.0</ele><time>2026-05-04T10:07:00.657Z</time></trkpt><trkpt lat="42.4539776" lon="18.5428976"><ele>62.0</ele><time>2026-05-04T10:07:01.66Z</time></trkpt><trkpt lat="42.4540129" lon="18.5427785"><ele>62.0</ele><time>2026-05-04T10:07:02.66Z</time></trkpt><trkpt lat="42.4540358" lon="18.5426823"><ele>62.0</ele><time>2026-05-04T10:07:03.66Z</time></trkpt><trkpt lat="42.4540518" lon="18.5425806"><ele>62.714285714285715</ele><time>2026-05-04T10:07:04.659Z</time></trkpt><trkpt lat="42.4540739" lon="18.5424785"><ele>63.42857142857143</ele><time>2026-05-04T10:07:05.659Z</time></trkpt><trkpt lat="42.4540885" lon="18.5423775"><ele>64.14285714285714</ele><time>2026-05-04T10:07:06.657Z</time></trkpt><trkpt lat="42.4540933" lon="18.5422922"><ele>64.85714285714286</ele><time>2026-05-04T10:07:07.657Z</time></trkpt><trkpt lat="42.4540905" lon="18.5421993"><ele>65.57142857142857</ele><time>2026-05-04T10:07:08.663Z</time></trkpt><trkpt lat="42.4540802" lon="18.5421015"><ele>66.28571428571429</ele><time>2026-05-04T10:07:09.659Z</time></trkpt><trkpt lat="42.4540647" lon="18.5419853"><ele>67.0</ele><time>2026-05-04T10:07:10.658Z</time></trkpt><trkpt lat="42.4540352" lon="18.5418574"><ele>68.6</ele><time>2026-05-04T10:07:11.658Z</time></trkpt><trkpt lat="42.4540076" lon="18.5417326"><ele>70.2</ele><time>2026-05-04T10:07:12.66Z</time></trkpt><trkpt lat="42.4539763" lon="18.5416199"><ele>71.8</ele><time>2026-05-04T10:07:13.657Z</time></trkpt><trkpt lat="42.453932" lon="18.5414953"><ele>73.4</ele><time>2026-05-04T10:07:14.659Z</time></trkpt><trkpt lat="42.4538808" lon="18.541384"><ele>75.0</ele><time>2026-05-04T10:07:15.654Z</time></trkpt><trkpt lat="42.4538285" lon="18.5412685"><ele>76.2</ele><time>2026-05-04T10:07:16.659Z</time></trkpt><trkpt lat="42.4537708" lon="18.5411543"><ele>77.4</ele><time>2026-05-04T10:07:17.657Z</time></trkpt><trkpt lat="42.4537089" lon="18.5410382"><ele>78.6</ele><time>2026-05-04T10:07:18.655Z</time></trkpt><trkpt lat="42.45365" lon="18.5409248"><ele>79.8</ele><time>2026-05-04T10:07:19.658Z</time></trkpt><trkpt lat="42.4535948" lon="18.540828"><ele>81.0</ele><time>2026-05-04T10:07:20.654Z</time></trkpt><trkpt lat="42.4535502" lon="18.5407142"><ele>81.0</ele><time>2026-05-04T10:07:21.656Z</time></trkpt><trkpt lat="42.453508" lon="18.5406025"><ele>81.0</ele><time>2026-05-04T10:07:22.657Z</time></trkpt><trkpt lat="42.4534759" lon="18.5404797"><ele>81.0</ele><time>2026-05-04T10:07:23.656Z</time></trkpt><trkpt lat="42.4534598" lon="18.5403635"><ele>81.0</ele><time>2026-05-04T10:07:24.658Z</time></trkpt><trkpt lat="42.4534473" lon="18.5402484"><ele>81.0</ele><time>2026-05-04T10:07:25.657Z</time></trkpt><trkpt lat="42.4534378" lon="18.5401598"><ele>81.0</ele><time>2026-05-04T10:07:26.657Z</time></trkpt><trkpt lat="42.453435" lon="18.5400745"><ele>81.5</ele><time>2026-05-04T10:07:27.656Z</time></trkpt><trkpt lat="42.4534212" lon="18.5399685"><ele>82.0</ele><time>2026-05-04T10:07:28.661Z</time></trkpt><trkpt lat="42.4534074" lon="18.539875"><ele>82.5</ele><time>2026-05-04T10:07:29.659Z</time></trkpt><trkpt lat="42.4534025" lon="18.5397791"><ele>83.0</ele><time>2026-05-04T10:07:30.659Z</time></trkpt><trkpt lat="42.4534044" lon="18.5396686"><ele>83.5</ele><time>2026-05-04T10:07:32.656Z</time></trkpt><trkpt lat="42.4533997" lon="18.5395556"><ele>84.0</ele><time>2026-05-04T10:07:35.656Z</time></trkpt><trkpt lat="42.4533817" lon="18.5394305"><ele>84.33333333333333</ele><time>2026-05-04T10:07:38.656Z</time></trkpt><trkpt lat="42.453365" lon="18.5393342"><ele>84.66666666666667</ele><time>2026-05-04T10:07:40.657Z</time></trkpt><trkpt lat="42.4533475" lon="18.5392172"><ele>85.0</ele><time>2026-05-04T10:07:43.656Z</time></trkpt><trkpt lat="42.4533295" lon="18.5391315"><ele>85.33333333333334</ele><time>2026-05-04T10:07:46.655Z</time></trkpt><trkpt lat="42.4532977" lon="18.5390014"><ele>85.66666666666667</ele><time>2026-05-04T10:07:49.657Z</time></trkpt><trkpt lat="42.4532651" lon="18.5388545"><ele>86.0</ele><time>2026-05-04T10:07:51.653Z</time></trkpt><trkpt lat="42.4532329" lon="18.5387197"><ele>86.25</ele><time>2026-05-04T10:07:53.657Z</time></trkpt><trkpt lat="42.4532054" lon="18.5385867"><ele>86.5</ele><time>2026-05-04T10:07:55.658Z</time></trkpt><trkpt lat="42.4531811" lon="18.538427"><ele>86.75</ele><time>2026-05-04T10:07:57.654Z</time></trkpt><trkpt lat="42.4531534" lon="18.5382667"><ele>87.0</ele><time>2026-05-04T10:07:59.651Z</time></trkpt><trkpt lat="42.4531356" lon="18.5381194"><ele>87.0</ele><time>2026-05-04T10:08:01.655Z</time></trkpt><trkpt lat="42.4531329" lon="18.5380021"><ele>87.0</ele><time>2026-05-04T10:08:02.654Z</time></trkpt><trkpt lat="42.4531232" lon="18.5379168"><ele>87.0</ele><time>2026-05-04T10:08:03.654Z</time></trkpt><trkpt lat="42.4531166" lon="18.537821"><ele>87.0</ele><time>2026-05-04T10:08:04.656Z</time></trkpt><trkpt lat="42.4531138" lon="18.5377252"><ele>87.0</ele><time>2026-05-04T10:08:05.658Z</time></trkpt><trkpt lat="42.4531184" lon="18.5376371"><ele>87.0</ele><time>2026-05-04T10:08:06.655Z</time></trkpt><trkpt lat="42.4531212" lon="18.5374854"><ele>87.0</ele><time>2026-05-04T10:08:08.658Z</time></trkpt><trkpt lat="42.4531344" lon="18.5373579"><ele>87.0</ele><time>2026-05-04T10:08:10.658Z</time></trkpt><trkpt lat="42.4531491" lon="18.5372425"><ele>87.0</ele><time>2026-05-04T10:08:12.657Z</time></trkpt><trkpt lat="42.4531595" lon="18.537133"><ele>87.0</ele><time>2026-05-04T10:08:15.659Z</time></trkpt><trkpt lat="42.4531744" lon="18.5370332"><ele>87.0</ele><time>2026-05-04T10:08:20.659Z</time></trkpt><trkpt lat="42.4531927" lon="18.5369255"><ele>87.0</ele><time>2026-05-04T10:08:24.657Z</time></trkpt><trkpt lat="42.4532017" lon="18.5368231"><ele>86.39999999999999</ele><time>2026-05-04T10:08:26.657Z</time></trkpt><trkpt lat="42.4532091" lon="18.536714"><ele>85.8</ele><time>2026-05-04T10:08:28.657Z</time></trkpt><trkpt lat="42.4532106" lon="18.5365805"><ele>85.2</ele><time>2026-05-04T10:08:30.658Z</time></trkpt><trkpt lat="42.4532054" lon="18.5364822"><ele>84.6</ele><time>2026-05-04T10:08:31.655Z</time></trkpt><trkpt lat="42.4531958" lon="18.5363452"><ele>84.0</ele><time>2026-05-04T10:08:32.659Z</time></trkpt><trkpt lat="42.4531904" lon="18.5362024"><ele>83.0</ele><time>2026-05-04T10:08:33.656Z</time></trkpt><trkpt lat="42.4531866" lon="18.5360301"><ele>82.0</ele><time>2026-05-04T10:08:34.658Z</time></trkpt><trkpt lat="42.4531856" lon="18.5358687"><ele>81.0</ele><time>2026-05-04T10:08:35.653Z</time></trkpt><trkpt lat="42.4531823" lon="18.5356881"><ele>80.0</ele><time>2026-05-04T10:08:36.655Z</time></trkpt><trkpt lat="42.4531814" lon="18.535512"><ele>79.25</ele><time>2026-05-04T10:08:37.658Z</time></trkpt><trkpt lat="42.4531826" lon="18.53534"><ele>78.5</ele><time>2026-05-04T10:08:38.658Z</time></trkpt><trkpt lat="42.4531713" lon="18.5351801"><ele>77.75</ele><time>2026-05-04T10:08:39.655Z</time></trkpt><trkpt lat="42.453161" lon="18.5350007"><ele>77.0</ele><time>2026-05-04T10:08:40.659Z</time></trkpt><trkpt lat="42.4531513" lon="18.5348572"><ele>77.0</ele><time>2026-05-04T10:08:41.656Z</time></trkpt><trkpt lat="42.4531442" lon="18.5347229"><ele>77.0</ele><time>2026-05-04T10:08:42.66Z</time></trkpt><trkpt lat="42.4531415" lon="18.5345887"><ele>77.0</ele><time>2026-05-04T10:08:43.658Z</time></trkpt><trkpt lat="42.4531412" lon="18.5344598"><ele>77.0</ele><time>2026-05-04T10:08:44.655Z</time></trkpt><trkpt lat="42.453143" lon="18.53433"><ele>77.0</ele><time>2026-05-04T10:08:45.657Z</time></trkpt><trkpt lat="42.4531505" lon="18.534207"><ele>77.0</ele><time>2026-05-04T10:08:46.659Z</time></trkpt><trkpt lat="42.4531595" lon="18.5340818"><ele>77.0</ele><time>2026-05-04T10:08:47.656Z</time></trkpt><trkpt lat="42.4531753" lon="18.5339548"><ele>77.0</ele><time>2026-05-04T10:08:48.656Z</time></trkpt><trkpt lat="42.4531953" lon="18.5338236"><ele>77.0</ele><time>2026-05-04T10:08:49.66Z</time></trkpt><trkpt lat="42.4532252" lon="18.5336917"><ele>77.0</ele><time>2026-05-04T10:08:50.655Z</time></trkpt><trkpt lat="42.4532671" lon="18.5335665"><ele>75.4</ele><time>2026-05-04T10:08:51.661Z</time></trkpt><trkpt lat="42.453317" lon="18.5334419"><ele>73.80000000000001</ele><time>2026-05-04T10:08:52.655Z</time></trkpt><trkpt lat="42.4533725" lon="18.5333179"><ele>72.2</ele><time>2026-05-04T10:08:53.655Z</time></trkpt><trkpt lat="42.453433" lon="18.5331933"><ele>70.60000000000001</ele><time>2026-05-04T10:08:54.655Z</time></trkpt><trkpt lat="42.4534976" lon="18.5330714"><ele>69.0</ele><time>2026-05-04T10:08:55.653Z</time></trkpt><trkpt lat="42.4535578" lon="18.5329593"><ele>66.2</ele><time>2026-05-04T10:08:56.657Z</time></trkpt><trkpt lat="42.453607" lon="18.5328472"><ele>63.400000000000006</ele><time>2026-05-04T10:08:57.655Z</time></trkpt><trkpt lat="42.4536678" lon="18.532747"><ele>60.6</ele><time>2026-05-04T10:08:58.657Z</time></trkpt><trkpt lat="42.4537267" lon="18.5326417"><ele>57.8</ele><time>2026-05-04T10:08:59.656Z</time></trkpt><trkpt lat="42.4537861" lon="18.5325343"><ele>55.0</ele><time>2026-05-04T10:09:00.656Z</time></trkpt><trkpt lat="42.4538531" lon="18.5324373"><ele>56.8</ele><time>2026-05-04T10:09:01.657Z</time></trkpt><trkpt lat="42.4539109" lon="18.5323351"><ele>58.6</ele><time>2026-05-04T10:09:02.66Z</time></trkpt><trkpt lat="42.4539785" lon="18.5322345"><ele>60.400000000000006</ele><time>2026-05-04T10:09:03.654Z</time></trkpt><trkpt lat="42.4540493" lon="18.5321186"><ele>62.2</ele><time>2026-05-04T10:09:04.659Z</time></trkpt><trkpt lat="42.4541195" lon="18.5320168"><ele>64.0</ele><time>2026-05-04T10:09:05.66Z</time></trkpt><trkpt lat="42.4541922" lon="18.5319186"><ele>64.0</ele><time>2026-05-04T10:09:06.656Z</time></trkpt><trkpt lat="42.4542692" lon="18.5318168"><ele>64.0</ele><time>2026-05-04T10:09:07.654Z</time></trkpt><trkpt lat="42.4543531" lon="18.5317102"><ele>64.0</ele><time>2026-05-04T10:09:08.656Z</time></trkpt><trkpt lat="42.4544302" lon="18.5316318"><ele>64.0</ele><time>2026-05-04T10:09:09.658Z</time></trkpt><trkpt lat="42.4545061" lon="18.5315392"><ele>64.0</ele><time>2026-05-04T10:09:10.658Z</time></trkpt><trkpt lat="42.4545794" lon="18.5314275"><ele>65.2</ele><time>2026-05-04T10:09:11.656Z</time></trkpt><trkpt lat="42.4546606" lon="18.5313471"><ele>66.4</ele><time>2026-05-04T10:09:12.657Z</time></trkpt><trkpt lat="42.4547362" lon="18.5312371"><ele>67.6</ele><time>2026-05-04T10:09:13.657Z</time></trkpt><trkpt lat="42.454817" lon="18.5311305"><ele>68.8</ele><time>2026-05-04T10:09:14.652Z</time></trkpt><trkpt lat="42.4548834" lon="18.5310053"><ele>70.0</ele><time>2026-05-04T10:09:15.654Z</time></trkpt><trkpt lat="42.454942" lon="18.5308666"><ele>70.0</ele><time>2026-05-04T10:09:16.656Z</time></trkpt><trkpt lat="42.4549936" lon="18.5307377"><ele>70.0</ele><time>2026-05-04T10:09:17.657Z</time></trkpt><trkpt lat="42.4550399" lon="18.530602"><ele>70.0</ele><time>2026-05-04T10:09:18.655Z</time></trkpt><trkpt lat="42.4550835" lon="18.5304585"><ele>70.0</ele><time>2026-05-04T10:09:19.654Z</time></trkpt><trkpt lat="42.455123" lon="18.5303312"><ele>70.0</ele><time>2026-05-04T10:09:20.658Z</time></trkpt><trkpt lat="42.4551558" lon="18.5302119"><ele>68.2</ele><time>2026-05-04T10:09:21.657Z</time></trkpt><trkpt lat="42.4551871" lon="18.5300821"><ele>66.4</ele><time>2026-05-04T10:09:22.656Z</time></trkpt><trkpt lat="42.4552202" lon="18.5299428"><ele>64.6</ele><time>2026-05-04T10:09:23.655Z</time></trkpt><trkpt lat="42.4552524" lon="18.5298007"><ele>62.8</ele><time>2026-05-04T10:09:24.658Z</time></trkpt><trkpt lat="42.4552845" lon="18.5296602"><ele>61.0</ele><time>2026-05-04T10:09:25.656Z</time></trkpt><trkpt lat="42.4553202" lon="18.5295169"><ele>58.5</ele><time>2026-05-04T10:09:26.659Z</time></trkpt><trkpt lat="42.4553511" lon="18.529361"><ele>56.0</ele><time>2026-05-04T10:09:27.659Z</time></trkpt><trkpt lat="42.4553838" lon="18.5292039"><ele>53.5</ele><time>2026-05-04T10:09:28.658Z</time></trkpt><trkpt lat="42.4554244" lon="18.5290522"><ele>51.0</ele><time>2026-05-04T10:09:29.653Z</time></trkpt><trkpt lat="42.4554611" lon="18.5289052"><ele>54.0</ele><time>2026-05-04T10:09:30.655Z</time></trkpt><trkpt lat="42.4554996" lon="18.528753"><ele>57.0</ele><time>2026-05-04T10:09:31.658Z</time></trkpt><trkpt lat="42.4555446" lon="18.5286093"><ele>60.0</ele><time>2026-05-04T10:09:32.658Z</time></trkpt><trkpt lat="42.4555854" lon="18.5284638"><ele>63.0</ele><time>2026-05-04T10:09:33.66Z</time></trkpt><trkpt lat="42.4556295" lon="18.5283176"><ele>63.0</ele><time>2026-05-04T10:09:34.656Z</time></trkpt><trkpt lat="42.4556768" lon="18.5281837"><ele>63.0</ele><time>2026-05-04T10:09:35.654Z</time></trkpt><trkpt lat="42.4557271" lon="18.5280348"><ele>63.0</ele><time>2026-05-04T10:09:36.657Z</time></trkpt><trkpt lat="42.4557873" lon="18.527904"><ele>63.0</ele><time>2026-05-04T10:09:37.657Z</time></trkpt><trkpt lat="42.4558514" lon="18.5277709"><ele>58.75</ele><time>2026-05-04T10:09:38.656Z</time></trkpt><trkpt lat="42.4559206" lon="18.5276497"><ele>54.5</ele><time>2026-05-04T10:09:39.655Z</time></trkpt><trkpt lat="42.4560025" lon="18.5275361"><ele>50.25</ele><time>2026-05-04T10:09:40.653Z</time></trkpt><trkpt lat="42.4560886" lon="18.5274254"><ele>46.0</ele><time>2026-05-04T10:09:41.656Z</time></trkpt><trkpt lat="42.4561779" lon="18.5273264"><ele>46.0</ele><time>2026-05-04T10:09:42.658Z</time></trkpt><trkpt lat="42.4562587" lon="18.5272416"><ele>46.0</ele><time>2026-05-04T10:09:43.654Z</time></trkpt><trkpt lat="42.4563559" lon="18.5271798"><ele>46.0</ele><time>2026-05-04T10:09:44.652Z</time></trkpt><trkpt lat="42.456448" lon="18.5271397"><ele>46.0</ele><time>2026-05-04T10:09:45.654Z</time></trkpt><trkpt lat="42.4565419" lon="18.5271274"><ele>46.0</ele><time>2026-05-04T10:09:46.656Z</time></trkpt><trkpt lat="42.4566345" lon="18.5270937"><ele>48.599999999999994</ele><time>2026-05-04T10:09:47.656Z</time></trkpt><trkpt lat="42.4567351" lon="18.5270791"><ele>51.2</ele><time>2026-05-04T10:09:48.656Z</time></trkpt><trkpt lat="42.456835" lon="18.5270752"><ele>53.800000000000004</ele><time>2026-05-04T10:09:49.655Z</time></trkpt><trkpt lat="42.4569318" lon="18.52708"><ele>56.400000000000006</ele><time>2026-05-04T10:09:50.656Z</time></trkpt><trkpt lat="42.4570349" lon="18.5270929"><ele>59.0</ele><time>2026-05-04T10:09:51.658Z</time></trkpt><trkpt lat="42.4571368" lon="18.5271115"><ele>59.00000000000001</ele><time>2026-05-04T10:09:52.655Z</time></trkpt><trkpt lat="42.4572336" lon="18.5271288"><ele>59.0</ele><time>2026-05-04T10:09:53.653Z</time></trkpt><trkpt lat="42.4573226" lon="18.5271413"><ele>59.0</ele><time>2026-05-04T10:09:54.656Z</time></trkpt><trkpt lat="42.4574118" lon="18.5271539"><ele>59.0</ele><time>2026-05-04T10:09:55.655Z</time></trkpt><trkpt lat="42.4574979" lon="18.5271595"><ele>59.00000000000001</ele><time>2026-05-04T10:09:56.654Z</time></trkpt><trkpt lat="42.4575822" lon="18.527162"><ele>59.0</ele><time>2026-05-04T10:09:57.655Z</time></trkpt><trkpt lat="42.4576686" lon="18.5271687"><ele>59.0</ele><time>2026-05-04T10:09:58.655Z</time></trkpt><trkpt lat="42.4577617" lon="18.5271782"><ele>59.00000000000001</ele><time>2026-05-04T10:09:59.658Z</time></trkpt><trkpt lat="42.4578547" lon="18.5271843"><ele>59.00000000000001</ele><time>2026-05-04T10:10:00.654Z</time></trkpt><trkpt lat="42.457947" lon="18.5271769"><ele>59.0</ele><time>2026-05-04T10:10:01.655Z</time></trkpt><trkpt lat="42.4580417" lon="18.5271607"><ele>59.0</ele><time>2026-05-04T10:10:02.655Z</time></trkpt><trkpt lat="42.4581299" lon="18.5271424"><ele>57.66666666666667</ele><time>2026-05-04T10:10:03.656Z</time></trkpt><trkpt lat="42.4582152" lon="18.5271059"><ele>56.333333333333336</ele><time>2026-05-04T10:10:04.659Z</time></trkpt><trkpt lat="42.4582962" lon="18.5270545"><ele>55.0</ele><time>2026-05-04T10:10:05.657Z</time></trkpt><trkpt lat="42.4583701" lon="18.5269944"><ele>53.66666666666667</ele><time>2026-05-04T10:10:06.657Z</time></trkpt><trkpt lat="42.4584332" lon="18.5269371"><ele>52.333333333333336</ele><time>2026-05-04T10:10:07.656Z</time></trkpt><trkpt lat="42.4584973" lon="18.5268553"><ele>51.0</ele><time>2026-05-04T10:10:08.653Z</time></trkpt><trkpt lat="42.4585577" lon="18.5267802"><ele>50.0</ele><time>2026-05-04T10:10:09.656Z</time></trkpt><trkpt lat="42.458614" lon="18.5267053"><ele>49.0</ele><time>2026-05-04T10:10:10.656Z</time></trkpt><trkpt lat="42.4586622" lon="18.5266299"><ele>48.0</ele><time>2026-05-04T10:10:11.656Z</time></trkpt><trkpt lat="42.4587084" lon="18.5265528"><ele>47.0</ele><time>2026-05-04T10:10:12.656Z</time></trkpt><trkpt lat="42.4587519" lon="18.5264489"><ele>46.0</ele><time>2026-05-04T10:10:13.654Z</time></trkpt><trkpt lat="42.4587942" lon="18.5263488"><ele>45.0</ele><time>2026-05-04T10:10:14.656Z</time></trkpt><trkpt lat="42.4588244" lon="18.5262436"><ele>45.0</ele><time>2026-05-04T10:10:15.655Z</time></trkpt><trkpt lat="42.4588476" lon="18.5261591"><ele>45.0</ele><time>2026-05-04T10:10:16.658Z</time></trkpt><trkpt lat="42.4588762" lon="18.5259919"><ele>45.0</ele><time>2026-05-04T10:10:18.657Z</time></trkpt><trkpt lat="42.4588844" lon="18.5259005"><ele>45.0</ele><time>2026-05-04T10:10:19.655Z</time></trkpt><trkpt lat="42.4588867" lon="18.5257988"><ele>45.0</ele><time>2026-05-04T10:10:20.657Z</time></trkpt><trkpt lat="42.4588929" lon="18.525713"><ele>45.0</ele><time>2026-05-04T10:10:21.655Z</time></trkpt><trkpt lat="42.4588878" lon="18.5256197"><ele>45.0</ele><time>2026-05-04T10:10:22.656Z</time></trkpt><trkpt lat="42.458886" lon="18.5255341"><ele>45.0</ele><time>2026-05-04T10:10:23.658Z</time></trkpt><trkpt lat="42.4588701" lon="18.5254347"><ele>45.0</ele><time>2026-05-04T10:10:24.659Z</time></trkpt><trkpt lat="42.4588461" lon="18.5253287"><ele>45.0</ele><time>2026-05-04T10:10:25.66Z</time></trkpt><trkpt lat="42.4588191" lon="18.5252391"><ele>45.0</ele><time>2026-05-04T10:10:26.658Z</time></trkpt><trkpt lat="42.4587925" lon="18.5251295"><ele>45.0</ele><time>2026-05-04T10:10:27.654Z</time></trkpt><trkpt lat="42.4587636" lon="18.5250295"><ele>42.0</ele><time>2026-05-04T10:10:28.655Z</time></trkpt><trkpt lat="42.4587309" lon="18.5249223"><ele>39.0</ele><time>2026-05-04T10:10:29.655Z</time></trkpt><trkpt lat="42.4586995" lon="18.5248082"><ele>36.0</ele><time>2026-05-04T10:10:30.66Z</time></trkpt><trkpt lat="42.4586671" lon="18.5246953"><ele>33.0</ele><time>2026-05-04T10:10:31.657Z</time></trkpt><trkpt lat="42.4586345" lon="18.5245757"><ele>30.0</ele><time>2026-05-04T10:10:32.655Z</time></trkpt><trkpt lat="42.4586052" lon="18.5244593"><ele>30.0</ele><time>2026-05-04T10:10:33.657Z</time></trkpt><trkpt lat="42.4585703" lon="18.5243351"><ele>30.0</ele><time>2026-05-04T10:10:34.658Z</time></trkpt><trkpt lat="42.4585383" lon="18.5242025"><ele>30.0</ele><time>2026-05-04T10:10:35.655Z</time></trkpt><trkpt lat="42.4585075" lon="18.5240623"><ele>30.0</ele><time>2026-05-04T10:10:36.655Z</time></trkpt><trkpt lat="42.4584824" lon="18.523934"><ele>30.0</ele><time>2026-05-04T10:10:37.656Z</time></trkpt><trkpt lat="42.4584667" lon="18.5238101"><ele>30.4</ele><time>2026-05-04T10:10:38.658Z</time></trkpt><trkpt lat="42.4584555" lon="18.5236717"><ele>30.8</ele><time>2026-05-04T10:10:39.653Z</time></trkpt><trkpt lat="42.458446" lon="18.5235564"><ele>31.200000000000003</ele><time>2026-05-04T10:10:40.656Z</time></trkpt><trkpt lat="42.4584399" lon="18.5234454"><ele>31.6</ele><time>2026-05-04T10:10:41.659Z</time></trkpt><trkpt lat="42.4584334" lon="18.5233066"><ele>32.0</ele><time>2026-05-04T10:10:42.658Z</time></trkpt><trkpt lat="42.4584415" lon="18.5231956"><ele>31.999999999999996</ele><time>2026-05-04T10:10:43.655Z</time></trkpt><trkpt lat="42.4584461" lon="18.523083"><ele>32.0</ele><time>2026-05-04T10:10:44.653Z</time></trkpt><trkpt lat="42.4584606" lon="18.5229659"><ele>32.0</ele><time>2026-05-04T10:10:45.655Z</time></trkpt><trkpt lat="42.4584806" lon="18.5228542"><ele>32.0</ele><time>2026-05-04T10:10:46.661Z</time></trkpt><trkpt lat="42.4584993" lon="18.5227426"><ele>31.999999999999996</ele><time>2026-05-04T10:10:47.657Z</time></trkpt><trkpt lat="42.4585211" lon="18.5226134"><ele>32.0</ele><time>2026-05-04T10:10:48.664Z</time></trkpt><trkpt lat="42.45855" lon="18.5224969"><ele>32.6</ele><time>2026-05-04T10:10:49.662Z</time></trkpt><trkpt lat="42.4585958" lon="18.5223904"><ele>33.2</ele><time>2026-05-04T10:10:50.662Z</time></trkpt><trkpt lat="42.4586405" lon="18.5222804"><ele>33.8</ele><time>2026-05-04T10:10:51.654Z</time></trkpt><trkpt lat="42.4586872" lon="18.5221731"><ele>34.4</ele><time>2026-05-04T10:10:52.654Z</time></trkpt><trkpt lat="42.4587384" lon="18.522065"><ele>35.0</ele><time>2026-05-04T10:10:53.655Z</time></trkpt><trkpt lat="42.458798" lon="18.5219609"><ele>35.0</ele><time>2026-05-04T10:10:54.657Z</time></trkpt><trkpt lat="42.4588611" lon="18.5218653"><ele>35.0</ele><time>2026-05-04T10:10:55.656Z</time></trkpt><trkpt lat="42.4589262" lon="18.5217619"><ele>35.0</ele><time>2026-05-04T10:10:56.656Z</time></trkpt><trkpt lat="42.4590018" lon="18.521654"><ele>35.0</ele><time>2026-05-04T10:10:57.657Z</time></trkpt><trkpt lat="42.4590842" lon="18.5215622"><ele>35.0</ele><time>2026-05-04T10:10:58.654Z</time></trkpt><trkpt lat="42.459171" lon="18.5214746"><ele>35.0</ele><time>2026-05-04T10:10:59.658Z</time></trkpt><trkpt lat="42.4592594" lon="18.5214"><ele>35.0</ele><time>2026-05-04T10:11:00.656Z</time></trkpt><trkpt lat="42.4593478" lon="18.521341"><ele>35.0</ele><time>2026-05-04T10:11:01.658Z</time></trkpt><trkpt lat="42.4594312" lon="18.5213076"><ele>35.0</ele><time>2026-05-04T10:11:02.657Z</time></trkpt><trkpt lat="42.4595149" lon="18.5212586"><ele>35.0</ele><time>2026-05-04T10:11:03.658Z</time></trkpt><trkpt lat="42.4596048" lon="18.5212118"><ele>34.5</ele><time>2026-05-04T10:11:04.653Z</time></trkpt><trkpt lat="42.4596891" lon="18.5211569"><ele>34.0</ele><time>2026-05-04T10:11:05.656Z</time></trkpt><trkpt lat="42.4597609" lon="18.5211272"><ele>33.5</ele><time>2026-05-04T10:11:06.657Z</time></trkpt><trkpt lat="42.4598369" lon="18.5210911"><ele>33.0</ele><time>2026-05-04T10:11:07.655Z</time></trkpt><trkpt lat="42.4599152" lon="18.5210642"><ele>32.5</ele><time>2026-05-04T10:11:08.655Z</time></trkpt><trkpt lat="42.4599892" lon="18.5210427"><ele>32.0</ele><time>2026-05-04T10:11:09.657Z</time></trkpt><trkpt lat="42.4600709" lon="18.5210139"><ele>31.999999999999996</ele><time>2026-05-04T10:11:10.656Z</time></trkpt><trkpt lat="42.4601509" lon="18.5209838"><ele>32.0</ele><time>2026-05-04T10:11:11.658Z</time></trkpt><trkpt lat="42.4602379" lon="18.5209544"><ele>32.0</ele><time>2026-05-04T10:11:12.655Z</time></trkpt><trkpt lat="42.460322" lon="18.520939"><ele>32.0</ele><time>2026-05-04T10:11:13.656Z</time></trkpt><trkpt lat="42.4604111" lon="18.5209236"><ele>31.999999999999996</ele><time>2026-05-04T10:11:14.655Z</time></trkpt><trkpt lat="42.4604997" lon="18.5209031"><ele>32.0</ele><time>2026-05-04T10:11:15.655Z</time></trkpt><trkpt lat="42.4605886" lon="18.5208776"><ele>32.666666666666664</ele><time>2026-05-04T10:11:16.655Z</time></trkpt><trkpt lat="42.4606694" lon="18.5208529"><ele>33.33333333333333</ele><time>2026-05-04T10:11:17.654Z</time></trkpt><trkpt lat="42.4607533" lon="18.5208321"><ele>34.0</ele><time>2026-05-04T10:11:18.654Z</time></trkpt><trkpt lat="42.4608384" lon="18.5208039"><ele>34.666666666666664</ele><time>2026-05-04T10:11:19.653Z</time></trkpt><trkpt lat="42.4609252" lon="18.5207819"><ele>35.333333333333336</ele><time>2026-05-04T10:11:20.656Z</time></trkpt><trkpt lat="42.4610145" lon="18.5207608"><ele>36.0</ele><time>2026-05-04T10:11:21.653Z</time></trkpt><trkpt lat="42.4611105" lon="18.5207339"><ele>36.0</ele><time>2026-05-04T10:11:22.653Z</time></trkpt><trkpt lat="42.4612032" lon="18.5207029"><ele>36.0</ele><time>2026-05-04T10:11:23.656Z</time></trkpt><trkpt lat="42.4612903" lon="18.5206688"><ele>36.0</ele><time>2026-05-04T10:11:24.657Z</time></trkpt><trkpt lat="42.4613869" lon="18.520633"><ele>36.0</ele><time>2026-05-04T10:11:25.655Z</time></trkpt><trkpt lat="42.4614723" lon="18.5205945"><ele>36.0</ele><time>2026-05-04T10:11:26.658Z</time></trkpt><trkpt lat="42.4615621" lon="18.5205448"><ele>36.0</ele><time>2026-05-04T10:11:27.658Z</time></trkpt><trkpt lat="42.4616464" lon="18.5204829"><ele>36.0</ele><time>2026-05-04T10:11:28.656Z</time></trkpt><trkpt lat="42.461725" lon="18.52041"><ele>36.0</ele><time>2026-05-04T10:11:29.659Z</time></trkpt><trkpt lat="42.4617951" lon="18.5203242"><ele>36.0</ele><time>2026-05-04T10:11:30.655Z</time></trkpt><trkpt lat="42.4618606" lon="18.5202276"><ele>36.0</ele><time>2026-05-04T10:11:31.652Z</time></trkpt><trkpt lat="42.4619254" lon="18.5201284"><ele>34.2</ele><time>2026-05-04T10:11:32.656Z</time></trkpt><trkpt lat="42.46198" lon="18.5200122"><ele>32.400000000000006</ele><time>2026-05-04T10:11:33.657Z</time></trkpt><trkpt lat="42.4620273" lon="18.5198891"><ele>30.6</ele><time>2026-05-04T10:11:34.655Z</time></trkpt><trkpt lat="42.4620593" lon="18.5197506"><ele>28.8</ele><time>2026-05-04T10:11:35.655Z</time></trkpt><trkpt lat="42.4620807" lon="18.5196114"><ele>27.0</ele><time>2026-05-04T10:11:36.657Z</time></trkpt><trkpt lat="42.46209" lon="18.5194744"><ele>26.8</ele><time>2026-05-04T10:11:37.659Z</time></trkpt><trkpt lat="42.4620908" lon="18.5193471"><ele>26.6</ele><time>2026-05-04T10:11:38.659Z</time></trkpt><trkpt lat="42.4620797" lon="18.5192313"><ele>26.400000000000002</ele><time>2026-05-04T10:11:39.654Z</time></trkpt><trkpt lat="42.4620586" lon="18.5191083"><ele>26.200000000000003</ele><time>2026-05-04T10:11:40.659Z</time></trkpt><trkpt lat="42.4620287" lon="18.5189784"><ele>26.0</ele><time>2026-05-04T10:11:41.656Z</time></trkpt><trkpt lat="42.4619886" lon="18.5188572"><ele>26.0</ele><time>2026-05-04T10:11:42.653Z</time></trkpt><trkpt lat="42.4619482" lon="18.5187424"><ele>26.0</ele><time>2026-05-04T10:11:43.655Z</time></trkpt><trkpt lat="42.4619056" lon="18.5186238"><ele>26.0</ele><time>2026-05-04T10:11:44.658Z</time></trkpt><trkpt lat="42.4618532" lon="18.5185065"><ele>26.0</ele><time>2026-05-04T10:11:45.657Z</time></trkpt><trkpt lat="42.4618016" lon="18.5183904"><ele>26.0</ele><time>2026-05-04T10:11:46.657Z</time></trkpt><trkpt lat="42.4617497" lon="18.5182801"><ele>26.833333333333332</ele><time>2026-05-04T10:11:47.656Z</time></trkpt><trkpt lat="42.4617096" lon="18.5181765"><ele>27.666666666666664</ele><time>2026-05-04T10:11:48.657Z</time></trkpt><trkpt lat="42.4616634" lon="18.5180645"><ele>28.5</ele><time>2026-05-04T10:11:49.655Z</time></trkpt><trkpt lat="42.4616215" lon="18.5179808"><ele>29.333333333333336</ele><time>2026-05-04T10:11:50.656Z</time></trkpt><trkpt lat="42.4615847" lon="18.5179021"><ele>30.166666666666668</ele><time>2026-05-04T10:11:51.657Z</time></trkpt><trkpt lat="42.4615453" lon="18.5178083"><ele>31.0</ele><time>2026-05-04T10:11:52.658Z</time></trkpt><trkpt lat="42.4615104" lon="18.5177258"><ele>32.285714285714285</ele><time>2026-05-04T10:11:53.655Z</time></trkpt><trkpt lat="42.4614717" lon="18.5176431"><ele>33.57142857142858</ele><time>2026-05-04T10:11:54.66Z</time></trkpt><trkpt lat="42.4614267" lon="18.5175606"><ele>34.85714285714286</ele><time>2026-05-04T10:11:55.655Z</time></trkpt><trkpt lat="42.4613958" lon="18.5174818"><ele>36.142857142857146</ele><time>2026-05-04T10:11:56.656Z</time></trkpt><trkpt lat="42.4613656" lon="18.5174"><ele>37.42857142857143</ele><time>2026-05-04T10:11:57.657Z</time></trkpt><trkpt lat="42.4613359" lon="18.5173198"><ele>38.714285714285715</ele><time>2026-05-04T10:11:58.657Z</time></trkpt><trkpt lat="42.4613065" lon="18.5172392"><ele>40.0</ele><time>2026-05-04T10:11:59.658Z</time></trkpt><trkpt lat="42.4612726" lon="18.5171523"><ele>38.0</ele><time>2026-05-04T10:12:00.654Z</time></trkpt><trkpt lat="42.4612464" lon="18.517062"><ele>36.0</ele><time>2026-05-04T10:12:01.653Z</time></trkpt><trkpt lat="42.4612182" lon="18.5169765"><ele>34.0</ele><time>2026-05-04T10:12:02.657Z</time></trkpt><trkpt lat="42.4611884" lon="18.5168791"><ele>32.0</ele><time>2026-05-04T10:12:03.655Z</time></trkpt><trkpt lat="42.4611628" lon="18.5167881"><ele>30.0</ele><time>2026-05-04T10:12:04.658Z</time></trkpt><trkpt lat="42.4611378" lon="18.5166988"><ele>28.0</ele><time>2026-05-04T10:12:05.656Z</time></trkpt><trkpt lat="42.4611029" lon="18.5166"><ele>26.0</ele><time>2026-05-04T10:12:06.664Z</time></trkpt><trkpt lat="42.4610846" lon="18.5165101"><ele>25.999999999999996</ele><time>2026-05-04T10:12:07.655Z</time></trkpt><trkpt lat="42.4610681" lon="18.5164177"><ele>26.0</ele><time>2026-05-04T10:12:08.663Z</time></trkpt><trkpt lat="42.461051" lon="18.516326"><ele>26.0</ele><time>2026-05-04T10:12:09.659Z</time></trkpt><trkpt lat="42.4610308" lon="18.5162244"><ele>26.0</ele><time>2026-05-04T10:12:10.66Z</time></trkpt><trkpt lat="42.4610169" lon="18.5161178"><ele>25.999999999999996</ele><time>2026-05-04T10:12:11.654Z</time></trkpt><trkpt lat="42.461005" lon="18.5160078"><ele>26.0</ele><time>2026-05-04T10:12:12.658Z</time></trkpt><trkpt lat="42.4609978" lon="18.5159079"><ele>26.333333333333332</ele><time>2026-05-04T10:12:13.656Z</time></trkpt><trkpt lat="42.4609961" lon="18.5157989"><ele>26.666666666666664</ele><time>2026-05-04T10:12:14.655Z</time></trkpt><trkpt lat="42.4609992" lon="18.5156906"><ele>27.0</ele><time>2026-05-04T10:12:15.659Z</time></trkpt><trkpt lat="42.4610126" lon="18.5155851"><ele>27.333333333333336</ele><time>2026-05-04T10:12:16.659Z</time></trkpt><trkpt lat="42.4610254" lon="18.5154811"><ele>27.666666666666668</ele><time>2026-05-04T10:12:17.656Z</time></trkpt><trkpt lat="42.4610465" lon="18.5153699"><ele>28.0</ele><time>2026-05-04T10:12:18.656Z</time></trkpt><trkpt lat="42.4610733" lon="18.5152641"><ele>28.0</ele><time>2026-05-04T10:12:19.653Z</time></trkpt><trkpt lat="42.4610982" lon="18.5151574"><ele>27.999999999999996</ele><time>2026-05-04T10:12:20.653Z</time></trkpt><trkpt lat="42.4611383" lon="18.5150515"><ele>27.999999999999996</ele><time>2026-05-04T10:12:21.657Z</time></trkpt><trkpt lat="42.4611847" lon="18.5149545"><ele>28.0</ele><time>2026-05-04T10:12:22.66Z</time></trkpt><trkpt lat="42.4612367" lon="18.514852"><ele>28.0</ele><time>2026-05-04T10:12:23.654Z</time></trkpt><trkpt lat="42.4612985" lon="18.5147329"><ele>30.0</ele><time>2026-05-04T10:12:24.654Z</time></trkpt><trkpt lat="42.4613728" lon="18.5146133"><ele>32.0</ele><time>2026-05-04T10:12:25.659Z</time></trkpt><trkpt lat="42.4614669" lon="18.5144935"><ele>34.0</ele><time>2026-05-04T10:12:26.657Z</time></trkpt><trkpt lat="42.461571" lon="18.514376"><ele>36.0</ele><time>2026-05-04T10:12:27.657Z</time></trkpt><trkpt lat="42.461666" lon="18.5142639"><ele>36.0</ele><time>2026-05-04T10:12:28.656Z</time></trkpt><trkpt lat="42.461753" lon="18.5141508"><ele>36.0</ele><time>2026-05-04T10:12:29.656Z</time></trkpt><trkpt lat="42.4618132" lon="18.5140564"><ele>36.0</ele><time>2026-05-04T10:12:30.653Z</time></trkpt><trkpt lat="42.4618837" lon="18.5139618"><ele>36.0</ele><time>2026-05-04T10:12:31.657Z</time></trkpt><trkpt lat="42.4619583" lon="18.513871"><ele>36.0</ele><time>2026-05-04T10:12:32.653Z</time></trkpt><trkpt lat="42.4620251" lon="18.5137677"><ele>38.75</ele><time>2026-05-04T10:12:33.66Z</time></trkpt><trkpt lat="42.4621194" lon="18.5135976"><ele>41.5</ele><time>2026-05-04T10:12:34.654Z</time></trkpt><trkpt lat="42.4621768" lon="18.5134426"><ele>44.25</ele><time>2026-05-04T10:12:35.656Z</time></trkpt><trkpt lat="42.4622335" lon="18.5132513"><ele>47.0</ele><time>2026-05-04T10:12:36.655Z</time></trkpt><trkpt lat="42.4622566" lon="18.5131004"><ele>47.0</ele><time>2026-05-04T10:12:37.653Z</time></trkpt><trkpt lat="42.4622598" lon="18.5129589"><ele>47.0</ele><time>2026-05-04T10:12:38.652Z</time></trkpt><trkpt lat="42.4622494" lon="18.5128236"><ele>47.0</ele><time>2026-05-04T10:12:39.653Z</time></trkpt><trkpt lat="42.4622175" lon="18.5126922"><ele>47.0</ele><time>2026-05-04T10:12:40.656Z</time></trkpt><trkpt lat="42.4621677" lon="18.5125495"><ele>47.0</ele><time>2026-05-04T10:12:41.655Z</time></trkpt><trkpt lat="42.4621133" lon="18.5124049"><ele>43.25</ele><time>2026-05-04T10:12:42.654Z</time></trkpt><trkpt lat="42.462053" lon="18.5122656"><ele>39.5</ele><time>2026-05-04T10:12:43.655Z</time></trkpt><trkpt lat="42.4620007" lon="18.5121321"><ele>35.75</ele><time>2026-05-04T10:12:44.655Z</time></trkpt><trkpt lat="42.4619435" lon="18.5119951"><ele>32.0</ele><time>2026-05-04T10:12:45.657Z</time></trkpt><trkpt lat="42.4618893" lon="18.5118694"><ele>31.999999999999996</ele><time>2026-05-04T10:12:46.655Z</time></trkpt><trkpt lat="42.4618332" lon="18.511751"><ele>32.0</ele><time>2026-05-04T10:12:47.656Z</time></trkpt><trkpt lat="42.4617791" lon="18.511647"><ele>32.0</ele><time>2026-05-04T10:12:48.655Z</time></trkpt><trkpt lat="42.4617376" lon="18.5115439"><ele>32.0</ele><time>2026-05-04T10:12:49.657Z</time></trkpt><trkpt lat="42.4616893" lon="18.5114539"><ele>31.999999999999996</ele><time>2026-05-04T10:12:50.656Z</time></trkpt><trkpt lat="42.4616459" lon="18.5113623"><ele>32.0</ele><time>2026-05-04T10:12:51.66Z</time></trkpt><trkpt lat="42.4616055" lon="18.5112626"><ele>32.6</ele><time>2026-05-04T10:12:52.656Z</time></trkpt><trkpt lat="42.4615693" lon="18.5111524"><ele>33.2</ele><time>2026-05-04T10:12:53.658Z</time></trkpt><trkpt lat="42.4615387" lon="18.5110224"><ele>33.8</ele><time>2026-05-04T10:12:54.653Z</time></trkpt><trkpt lat="42.461511" lon="18.5108744"><ele>34.4</ele><time>2026-05-04T10:12:55.658Z</time></trkpt><trkpt lat="42.4614953" lon="18.5107197"><ele>35.0</ele><time>2026-05-04T10:12:56.657Z</time></trkpt><trkpt lat="42.4614931" lon="18.5105536"><ele>35.5</ele><time>2026-05-04T10:12:57.657Z</time></trkpt><trkpt lat="42.4615044" lon="18.5103827"><ele>36.0</ele><time>2026-05-04T10:12:58.657Z</time></trkpt><trkpt lat="42.4615237" lon="18.5102108"><ele>36.5</ele><time>2026-05-04T10:12:59.657Z</time></trkpt><trkpt lat="42.4615513" lon="18.5100408"><ele>37.0</ele><time>2026-05-04T10:13:00.656Z</time></trkpt><trkpt lat="42.4615835" lon="18.5098686"><ele>37.0</ele><time>2026-05-04T10:13:01.655Z</time></trkpt><trkpt lat="42.4616086" lon="18.5096986"><ele>37.0</ele><time>2026-05-04T10:13:02.656Z</time></trkpt><trkpt lat="42.4616213" lon="18.5095378"><ele>37.0</ele><time>2026-05-04T10:13:03.655Z</time></trkpt><trkpt lat="42.4616231" lon="18.5093944"><ele>37.0</ele><time>2026-05-04T10:13:04.654Z</time></trkpt><trkpt lat="42.4616104" lon="18.509255"><ele>37.8</ele><time>2026-05-04T10:13:05.657Z</time></trkpt><trkpt lat="42.4615851" lon="18.5091255"><ele>38.6</ele><time>2026-05-04T10:13:06.657Z</time></trkpt><trkpt lat="42.4615512" lon="18.5089983"><ele>39.4</ele><time>2026-05-04T10:13:07.659Z</time></trkpt><trkpt lat="42.461511" lon="18.508883"><ele>40.199999999999996</ele><time>2026-05-04T10:13:08.656Z</time></trkpt><trkpt lat="42.4614616" lon="18.5087758"><ele>41.0</ele><time>2026-05-04T10:13:09.66Z</time></trkpt><trkpt lat="42.4614032" lon="18.5086783"><ele>41.25</ele><time>2026-05-04T10:13:10.656Z</time></trkpt><trkpt lat="42.4613382" lon="18.5085967"><ele>41.5</ele><time>2026-05-04T10:13:11.657Z</time></trkpt><trkpt lat="42.4612075" lon="18.5085007"><ele>41.75</ele><time>2026-05-04T10:13:12.656Z</time></trkpt><trkpt lat="42.4610769" lon="18.5084346"><ele>42.0</ele><time>2026-05-04T10:13:13.661Z</time></trkpt><trkpt lat="42.4609491" lon="18.5083745"><ele>42.0</ele><time>2026-05-04T10:13:14.657Z</time></trkpt><trkpt lat="42.4608239" lon="18.5083382"><ele>42.0</ele><time>2026-05-04T10:13:15.661Z</time></trkpt><trkpt lat="42.4606796" lon="18.5083029"><ele>42.0</ele><time>2026-05-04T10:13:16.659Z</time></trkpt><trkpt lat="42.4605597" lon="18.5082595"><ele>42.0</ele><time>2026-05-04T10:13:17.657Z</time></trkpt><trkpt lat="42.4604485" lon="18.5082196"><ele>41.0</ele><time>2026-05-04T10:13:18.655Z</time></trkpt><trkpt lat="42.4603411" lon="18.5081785"><ele>40.0</ele><time>2026-05-04T10:13:19.657Z</time></trkpt><trkpt lat="42.4602343" lon="18.5081408"><ele>39.0</ele><time>2026-05-04T10:13:20.656Z</time></trkpt><trkpt lat="42.4601299" lon="18.5081062"><ele>38.0</ele><time>2026-05-04T10:13:21.656Z</time></trkpt><trkpt lat="42.460031" lon="18.508071"><ele>37.0</ele><time>2026-05-04T10:13:22.659Z</time></trkpt><trkpt lat="42.459932" lon="18.5080303"><ele>37.0</ele><time>2026-05-04T10:13:23.655Z</time></trkpt><trkpt lat="42.4598203" lon="18.5079713"><ele>37.0</ele><time>2026-05-04T10:13:24.66Z</time></trkpt><trkpt lat="42.4597162" lon="18.5079139"><ele>37.0</ele><time>2026-05-04T10:13:25.66Z</time></trkpt><trkpt lat="42.4596107" lon="18.5078437"><ele>37.0</ele><time>2026-05-04T10:13:26.656Z</time></trkpt><trkpt lat="42.4594965" lon="18.5077652"><ele>34.5</ele><time>2026-05-04T10:13:27.654Z</time></trkpt><trkpt lat="42.4593844" lon="18.5076845"><ele>32.0</ele><time>2026-05-04T10:13:28.657Z</time></trkpt><trkpt lat="42.4592919" lon="18.5076075"><ele>29.5</ele><time>2026-05-04T10:13:29.659Z</time></trkpt><trkpt lat="42.4592005" lon="18.5075225"><ele>27.0</ele><time>2026-05-04T10:13:30.658Z</time></trkpt><trkpt lat="42.4590857" lon="18.5074288"><ele>27.0</ele><time>2026-05-04T10:13:31.655Z</time></trkpt><trkpt lat="42.4589872" lon="18.5073284"><ele>27.0</ele><time>2026-05-04T10:13:32.655Z</time></trkpt><trkpt lat="42.4588838" lon="18.5072449"><ele>27.0</ele><time>2026-05-04T10:13:33.657Z</time></trkpt><trkpt lat="42.4587908" lon="18.5071587"><ele>27.0</ele><time>2026-05-04T10:13:34.654Z</time></trkpt><trkpt lat="42.4586955" lon="18.5070724"><ele>24.75</ele><time>2026-05-04T10:13:35.654Z</time></trkpt><trkpt lat="42.458604" lon="18.5069883"><ele>22.5</ele><time>2026-05-04T10:13:36.655Z</time></trkpt><trkpt lat="42.4585136" lon="18.5069035"><ele>20.25</ele><time>2026-05-04T10:13:37.656Z</time></trkpt><trkpt lat="42.4584172" lon="18.5068163"><ele>18.0</ele><time>2026-05-04T10:13:38.658Z</time></trkpt><trkpt lat="42.4583149" lon="18.5067282"><ele>18.0</ele><time>2026-05-04T10:13:39.657Z</time></trkpt><trkpt lat="42.4581928" lon="18.5066429"><ele>18.0</ele><time>2026-05-04T10:13:40.654Z</time></trkpt><trkpt lat="42.4580908" lon="18.5065409"><ele>18.0</ele><time>2026-05-04T10:13:41.653Z</time></trkpt><trkpt lat="42.4579902" lon="18.5064462"><ele>18.0</ele><time>2026-05-04T10:13:42.657Z</time></trkpt><trkpt lat="42.4578898" lon="18.5063537"><ele>17.5</ele><time>2026-05-04T10:13:43.658Z</time></trkpt><trkpt lat="42.4577853" lon="18.5062558"><ele>17.0</ele><time>2026-05-04T10:13:44.654Z</time></trkpt><trkpt lat="42.4576721" lon="18.506163"><ele>16.5</ele><time>2026-05-04T10:13:45.656Z</time></trkpt><trkpt lat="42.4575634" lon="18.5060634"><ele>16.0</ele><time>2026-05-04T10:13:46.656Z</time></trkpt><trkpt lat="42.4574534" lon="18.5059712"><ele>16.0</ele><time>2026-05-04T10:13:47.658Z</time></trkpt><trkpt lat="42.4573366" lon="18.5058825"><ele>16.0</ele><time>2026-05-04T10:13:48.657Z</time></trkpt><trkpt lat="42.4572343" lon="18.5057939"><ele>16.0</ele><time>2026-05-04T10:13:49.657Z</time></trkpt><trkpt lat="42.4571368" lon="18.5057093"><ele>16.0</ele><time>2026-05-04T10:13:50.657Z</time></trkpt><trkpt lat="42.4570389" lon="18.5056233"><ele>16.25</ele><time>2026-05-04T10:13:51.653Z</time></trkpt><trkpt lat="42.4569384" lon="18.5055361"><ele>16.5</ele><time>2026-05-04T10:13:52.653Z</time></trkpt><trkpt lat="42.4568437" lon="18.5054585"><ele>16.75</ele><time>2026-05-04T10:13:53.655Z</time></trkpt><trkpt lat="42.4567467" lon="18.5053735"><ele>17.0</ele><time>2026-05-04T10:13:54.656Z</time></trkpt><trkpt lat="42.4566535" lon="18.5052868"><ele>15.6</ele><time>2026-05-04T10:13:55.654Z</time></trkpt><trkpt lat="42.4565599" lon="18.5052107"><ele>14.2</ele><time>2026-05-04T10:13:56.655Z</time></trkpt><trkpt lat="42.4564679" lon="18.5051328"><ele>12.8</ele><time>2026-05-04T10:13:57.656Z</time></trkpt><trkpt lat="42.4563764" lon="18.505054"><ele>11.4</ele><time>2026-05-04T10:13:58.654Z</time></trkpt><trkpt lat="42.4562856" lon="18.504959"><ele>10.0</ele><time>2026-05-04T10:13:59.655Z</time></trkpt><trkpt lat="42.4561994" lon="18.5048628"><ele>10.0</ele><time>2026-05-04T10:14:00.656Z</time></trkpt><trkpt lat="42.4561102" lon="18.5047618"><ele>10.0</ele><time>2026-05-04T10:14:01.656Z</time></trkpt><trkpt lat="42.4560264" lon="18.5046561"><ele>10.0</ele><time>2026-05-04T10:14:02.656Z</time></trkpt><trkpt lat="42.4559529" lon="18.5045575"><ele>10.0</ele><time>2026-05-04T10:14:03.655Z</time></trkpt><trkpt lat="42.4558897" lon="18.5044612"><ele>10.0</ele><time>2026-05-04T10:14:04.654Z</time></trkpt><trkpt lat="42.4558492" lon="18.5043752"><ele>9.0</ele><time>2026-05-04T10:14:05.655Z</time></trkpt><trkpt lat="42.4557972" lon="18.5042766"><ele>8.0</ele><time>2026-05-04T10:14:07.659Z</time></trkpt><trkpt lat="42.4557525" lon="18.5041856"><ele>7.0</ele><time>2026-05-04T10:14:09.661Z</time></trkpt><trkpt lat="42.4556998" lon="18.5040425"><ele>6.0</ele><time>2026-05-04T10:14:11.656Z</time></trkpt><trkpt lat="42.4556608" lon="18.5038907"><ele>5.0</ele><time>2026-05-04T10:14:13.658Z</time></trkpt><trkpt lat="42.4556576" lon="18.5037666"><ele>5.333333333333334</ele><time>2026-05-04T10:14:15.654Z</time></trkpt><trkpt lat="42.4556655" lon="18.503661"><ele>5.666666666666667</ele><time>2026-05-04T10:14:17.659Z</time></trkpt><trkpt lat="42.4556528" lon="18.5035615"><ele>6.0</ele><time>2026-05-04T10:14:19.656Z</time></trkpt><trkpt lat="42.4556342" lon="18.5034478"><ele>6.333333333333334</ele><time>2026-05-04T10:14:22.656Z</time></trkpt><trkpt lat="42.4556014" lon="18.503362"><ele>6.666666666666667</ele><time>2026-05-04T10:14:26.659Z</time></trkpt><trkpt lat="42.4556634" lon="18.5034087"><ele>7.0</ele><time>2026-05-04T10:15:39.654Z</time></trkpt><trkpt lat="42.4557348" lon="18.5034181"><ele>7.0</ele><time>2026-05-04T10:15:47.654Z</time></trkpt><trkpt lat="42.4557374" lon="18.5033249"><ele>7.0</ele><time>2026-05-04T10:15:56.657Z</time></trkpt><trkpt lat="42.4556537" lon="18.5033671"><ele>7.0</ele><time>2026-05-04T10:17:23.654Z</time></trkpt><trkpt lat="42.4557016" lon="18.5033052"><ele>7.0</ele><time>2026-05-04T10:17:29.259Z</time></trkpt><trkpt lat="42.4556513" lon="18.5033631"><ele>7.0</ele><time>2026-05-04T10:17:57.654Z</time></trkpt><trkpt lat="42.4556092" lon="18.5034389"><ele>7.0</ele><time>2026-05-04T10:23:02.596Z</time></trkpt><trkpt lat="42.4555515" lon="18.5033949"><ele>7.0</ele><time>2026-05-04T10:23:06.656Z</time></trkpt><trkpt lat="42.4555372" lon="18.5033084"><ele>7.0</ele><time>2026-05-04T10:23:11.65Z</time></trkpt><trkpt lat="42.4555861" lon="18.5033942"><ele>7.0</ele><time>2026-05-04T10:29:37.654Z</time></trkpt><trkpt lat="42.4556423" lon="18.5033476"><ele>7.0</ele><time>2026-05-04T10:29:48.651Z</time></trkpt><trkpt lat="42.4556233" lon="18.5032557"><ele>7.0</ele><time>2026-05-04T10:29:56.65Z</time></trkpt><trkpt lat="42.45568" lon="18.5033023"><ele>7.0</ele><time>2026-05-04T10:31:17.65Z</time></trkpt><trkpt lat="42.45565" lon="18.5032241"><ele>7.0</ele><time>2026-05-04T10:31:38.577Z</time></trkpt><trkpt lat="42.4556006" lon="18.5031414"><ele>7.0</ele><time>2026-05-04T10:33:16.623Z</time></trkpt><trkpt lat="42.4555692" lon="18.5032243"><ele>7.000000000000001</ele><time>2026-05-04T10:33:22.654Z</time></trkpt><trkpt lat="42.4556335" lon="18.5032488"><ele>7.0</ele><time>2026-05-04T10:33:30.659Z</time></trkpt><trkpt lat="42.4555626" lon="18.5033078"><ele>7.0</ele><time>2026-05-04T10:34:17.655Z</time></trkpt><trkpt lat="42.4555945" lon="18.5033935"><ele>7.0</ele><time>2026-05-04T10:34:22.653Z</time></trkpt><trkpt lat="42.4555692" lon="18.5033138"><ele>7.000000000000001</ele><time>2026-05-04T10:34:41.577Z</time></trkpt><trkpt lat="42.4554871" lon="18.5031959"><ele>7.0</ele><time>2026-05-04T10:38:40.642Z</time></trkpt><trkpt lat="42.4554866" lon="18.5030215"><ele>7.833333333333334</ele><time>2026-05-04T10:38:49.642Z</time></trkpt><trkpt lat="42.4554623" lon="18.5028969"><ele>8.666666666666668</ele><time>2026-05-04T10:38:51.641Z</time></trkpt><trkpt lat="42.455451" lon="18.502808"><ele>9.5</ele><time>2026-05-04T10:38:52.641Z</time></trkpt><trkpt lat="42.4554355" lon="18.5027114"><ele>10.333333333333334</ele><time>2026-05-04T10:38:53.641Z</time></trkpt><trkpt lat="42.4554142" lon="18.502616"><ele>11.166666666666666</ele><time>2026-05-04T10:38:54.642Z</time></trkpt><trkpt lat="42.4553952" lon="18.5025094"><ele>12.0</ele><time>2026-05-04T10:38:55.641Z</time></trkpt><trkpt lat="42.4553851" lon="18.5023872"><ele>10.4</ele><time>2026-05-04T10:38:56.641Z</time></trkpt><trkpt lat="42.4553883" lon="18.5022557"><ele>8.799999999999999</ele><time>2026-05-04T10:38:57.641Z</time></trkpt><trkpt lat="42.4553912" lon="18.5021281"><ele>7.2</ele><time>2026-05-04T10:38:58.642Z</time></trkpt><trkpt lat="42.4553946" lon="18.5019983"><ele>5.6</ele><time>2026-05-04T10:38:59.641Z</time></trkpt><trkpt lat="42.4553985" lon="18.5018733"><ele>4.0</ele><time>2026-05-04T10:39:00.642Z</time></trkpt><trkpt lat="42.4554032" lon="18.5017417"><ele>4.0</ele><time>2026-05-04T10:39:01.641Z</time></trkpt><trkpt lat="42.4554086" lon="18.5016085"><ele>4.0</ele><time>2026-05-04T10:39:02.641Z</time></trkpt><trkpt lat="42.4554133" lon="18.5014749"><ele>4.0</ele><time>2026-05-04T10:39:03.641Z</time></trkpt><trkpt lat="42.4554199" lon="18.5013427"><ele>4.0</ele><time>2026-05-04T10:39:04.642Z</time></trkpt><trkpt lat="42.4554245" lon="18.5012093"><ele>4.0</ele><time>2026-05-04T10:39:05.642Z</time></trkpt><trkpt lat="42.4554272" lon="18.5010775"><ele>3.8000000000000003</ele><time>2026-05-04T10:39:06.641Z</time></trkpt><trkpt lat="42.4554325" lon="18.5009458"><ele>3.6000000000000005</ele><time>2026-05-04T10:39:07.641Z</time></trkpt><trkpt lat="42.4554345" lon="18.5008135"><ele>3.4</ele><time>2026-05-04T10:39:08.642Z</time></trkpt><trkpt lat="42.4554382" lon="18.5006796"><ele>3.2</ele><time>2026-05-04T10:39:09.641Z</time></trkpt><trkpt lat="42.4554443" lon="18.5005468"><ele>3.0</ele><time>2026-05-04T10:39:10.641Z</time></trkpt><trkpt lat="42.4554502" lon="18.5004056"><ele>3.5</ele><time>2026-05-04T10:39:11.641Z</time></trkpt><trkpt lat="42.4554506" lon="18.5002614"><ele>4.0</ele><time>2026-05-04T10:39:12.642Z</time></trkpt><trkpt lat="42.4554467" lon="18.5001059"><ele>4.5</ele><time>2026-05-04T10:39:13.642Z</time></trkpt><trkpt lat="42.455435" lon="18.4999432"><ele>5.0</ele><time>2026-05-04T10:39:14.642Z</time></trkpt><trkpt lat="42.4554146" lon="18.4997753"><ele>5.0</ele><time>2026-05-04T10:39:15.641Z</time></trkpt><trkpt lat="42.455385" lon="18.4996071"><ele>5.0</ele><time>2026-05-04T10:39:16.642Z</time></trkpt><trkpt lat="42.4553525" lon="18.499435"><ele>5.0</ele><time>2026-05-04T10:39:17.641Z</time></trkpt><trkpt lat="42.4553129" lon="18.4992628"><ele>5.0</ele><time>2026-05-04T10:39:18.641Z</time></trkpt><trkpt lat="42.4552725" lon="18.4990876"><ele>4.75</ele><time>2026-05-04T10:39:19.641Z</time></trkpt><trkpt lat="42.4552301" lon="18.4989161"><ele>4.5</ele><time>2026-05-04T10:39:20.642Z</time></trkpt><trkpt lat="42.4551875" lon="18.4987401"><ele>4.25</ele><time>2026-05-04T10:39:21.642Z</time></trkpt><trkpt lat="42.4551577" lon="18.4985645"><ele>4.0</ele><time>2026-05-04T10:39:22.641Z</time></trkpt><trkpt lat="42.4551342" lon="18.4983897"><ele>3.75</ele><time>2026-05-04T10:39:23.642Z</time></trkpt><trkpt lat="42.4551238" lon="18.4982249"><ele>3.5</ele><time>2026-05-04T10:39:24.641Z</time></trkpt><trkpt lat="42.4551297" lon="18.4980648"><ele>3.25</ele><time>2026-05-04T10:39:25.642Z</time></trkpt><trkpt lat="42.4551443" lon="18.4979047"><ele>3.0</ele><time>2026-05-04T10:39:26.642Z</time></trkpt><trkpt lat="42.4551797" lon="18.4977419"><ele>2.25</ele><time>2026-05-04T10:39:27.642Z</time></trkpt><trkpt lat="42.4552329" lon="18.4975864"><ele>1.5</ele><time>2026-05-04T10:39:28.642Z</time></trkpt><trkpt lat="42.4552885" lon="18.4974371"><ele>0.75</ele><time>2026-05-04T10:39:29.641Z</time></trkpt><trkpt lat="42.4553571" lon="18.4972778"><ele>0.0</ele><time>2026-05-04T10:39:30.641Z</time></trkpt><trkpt lat="42.4554398" lon="18.4971257"><ele>1.75</ele><time>2026-05-04T10:39:31.641Z</time></trkpt><trkpt lat="42.4555318" lon="18.4969722"><ele>3.5</ele><time>2026-05-04T10:39:32.641Z</time></trkpt><trkpt lat="42.455625" lon="18.4968179"><ele>5.25</ele><time>2026-05-04T10:39:33.642Z</time></trkpt><trkpt lat="42.4557233" lon="18.4966681"><ele>7.0</ele><time>2026-05-04T10:39:34.642Z</time></trkpt><trkpt lat="42.455826" lon="18.4965208"><ele>7.0</ele><time>2026-05-04T10:39:35.641Z</time></trkpt><trkpt lat="42.4559285" lon="18.496367"><ele>7.0</ele><time>2026-05-04T10:39:36.642Z</time></trkpt><trkpt lat="42.4560299" lon="18.4962194"><ele>7.0</ele><time>2026-05-04T10:39:37.641Z</time></trkpt><trkpt lat="42.4561298" lon="18.4960707"><ele>6.5</ele><time>2026-05-04T10:39:38.642Z</time></trkpt><trkpt lat="42.4562134" lon="18.4959173"><ele>6.0</ele><time>2026-05-04T10:39:39.642Z</time></trkpt><trkpt lat="42.4563122" lon="18.4957703"><ele>5.5</ele><time>2026-05-04T10:39:40.642Z</time></trkpt><trkpt lat="42.45641" lon="18.4956297"><ele>5.0</ele><time>2026-05-04T10:39:41.641Z</time></trkpt><trkpt lat="42.4565008" lon="18.4954918"><ele>4.25</ele><time>2026-05-04T10:39:42.642Z</time></trkpt><trkpt lat="42.4565779" lon="18.4953444"><ele>3.5</ele><time>2026-05-04T10:39:43.642Z</time></trkpt><trkpt lat="42.4566519" lon="18.4951992"><ele>2.75</ele><time>2026-05-04T10:39:44.642Z</time></trkpt><trkpt lat="42.4567137" lon="18.4950486"><ele>2.0</ele><time>2026-05-04T10:39:45.642Z</time></trkpt><trkpt lat="42.4567653" lon="18.4948979"><ele>2.0</ele><time>2026-05-04T10:39:46.641Z</time></trkpt><trkpt lat="42.4568069" lon="18.4947524"><ele>2.0</ele><time>2026-05-04T10:39:47.641Z</time></trkpt><trkpt lat="42.4568361" lon="18.4946107"><ele>2.0</ele><time>2026-05-04T10:39:48.641Z</time></trkpt><trkpt lat="42.4568517" lon="18.4944734"><ele>2.0</ele><time>2026-05-04T10:39:49.641Z</time></trkpt><trkpt lat="42.4568617" lon="18.4943379"><ele>2.0</ele><time>2026-05-04T10:39:50.641Z</time></trkpt><trkpt lat="42.4568715" lon="18.4942185"><ele>2.2857142857142856</ele><time>2026-05-04T10:39:51.642Z</time></trkpt><trkpt lat="42.4568795" lon="18.4940996"><ele>2.571428571428571</ele><time>2026-05-04T10:39:52.642Z</time></trkpt><trkpt lat="42.4568805" lon="18.4939885"><ele>2.8571428571428568</ele><time>2026-05-04T10:39:53.642Z</time></trkpt><trkpt lat="42.4568808" lon="18.4938932"><ele>3.142857142857143</ele><time>2026-05-04T10:39:54.641Z</time></trkpt><trkpt lat="42.4568873" lon="18.493808"><ele>3.428571428571428</ele><time>2026-05-04T10:39:55.642Z</time></trkpt><trkpt lat="42.4568902" lon="18.4937213"><ele>3.714285714285714</ele><time>2026-05-04T10:39:56.642Z</time></trkpt><trkpt lat="42.45689" lon="18.4936278"><ele>4.0</ele><time>2026-05-04T10:39:57.641Z</time></trkpt><trkpt lat="42.4568937" lon="18.4935215"><ele>4.2</ele><time>2026-05-04T10:39:58.641Z</time></trkpt><trkpt lat="42.4568952" lon="18.4933733"><ele>4.4</ele><time>2026-05-04T10:39:59.641Z</time></trkpt><trkpt lat="42.4568961" lon="18.4932236"><ele>4.6</ele><time>2026-05-04T10:40:00.642Z</time></trkpt><trkpt lat="42.4568995" lon="18.493079"><ele>4.8</ele><time>2026-05-04T10:40:01.641Z</time></trkpt><trkpt lat="42.4569009" lon="18.4929506"><ele>5.0</ele><time>2026-05-04T10:40:02.642Z</time></trkpt><trkpt lat="42.4569029" lon="18.4928485"><ele>7.8</ele><time>2026-05-04T10:40:03.641Z</time></trkpt><trkpt lat="42.4569086" lon="18.4927592"><ele>10.6</ele><time>2026-05-04T10:40:04.642Z</time></trkpt><trkpt lat="42.456896" lon="18.4926102"><ele>13.399999999999999</ele><time>2026-05-04T10:40:06.641Z</time></trkpt><trkpt lat="42.4568197" lon="18.4925413"><ele>16.2</ele><time>2026-05-04T10:40:08.642Z</time></trkpt><trkpt lat="42.4567044" lon="18.4925637"><ele>19.0</ele><time>2026-05-04T10:40:10.642Z</time></trkpt><trkpt lat="42.456632" lon="18.4926242"><ele>19.0</ele><time>2026-05-04T10:40:11.641Z</time></trkpt><trkpt lat="42.4565457" lon="18.492694"><ele>19.0</ele><time>2026-05-04T10:40:12.641Z</time></trkpt><trkpt lat="42.456455" lon="18.4927752"><ele>19.0</ele><time>2026-05-04T10:40:13.642Z</time></trkpt><trkpt lat="42.4563715" lon="18.4928762"><ele>19.0</ele><time>2026-05-04T10:40:14.641Z</time></trkpt><trkpt lat="42.4562695" lon="18.4929639"><ele>19.0</ele><time>2026-05-04T10:40:15.641Z</time></trkpt><trkpt lat="42.456166" lon="18.4930501"><ele>17.75</ele><time>2026-05-04T10:40:16.642Z</time></trkpt><trkpt lat="42.4560578" lon="18.4931346"><ele>16.5</ele><time>2026-05-04T10:40:17.641Z</time></trkpt><trkpt lat="42.4559513" lon="18.4932236"><ele>15.25</ele><time>2026-05-04T10:40:18.641Z</time></trkpt><trkpt lat="42.4558482" lon="18.4933161"><ele>14.0</ele><time>2026-05-04T10:40:19.642Z</time></trkpt><trkpt lat="42.4557557" lon="18.4934194"><ele>14.0</ele><time>2026-05-04T10:40:20.642Z</time></trkpt><trkpt lat="42.455654" lon="18.4935169"><ele>14.0</ele><time>2026-05-04T10:40:21.641Z</time></trkpt><trkpt lat="42.4555456" lon="18.4936052"><ele>14.0</ele><time>2026-05-04T10:40:22.641Z</time></trkpt><trkpt lat="42.4554524" lon="18.4936627"><ele>14.0</ele><time>2026-05-04T10:40:23.642Z</time></trkpt><trkpt lat="42.455332" lon="18.4937321"><ele>13.399999999999999</ele><time>2026-05-04T10:40:24.641Z</time></trkpt><trkpt lat="42.4552347" lon="18.4938043"><ele>12.799999999999999</ele><time>2026-05-04T10:40:25.642Z</time></trkpt><trkpt lat="42.4551552" lon="18.4938827"><ele>12.2</ele><time>2026-05-04T10:40:26.641Z</time></trkpt><trkpt lat="42.4550706" lon="18.4939615"><ele>11.600000000000001</ele><time>2026-05-04T10:40:27.641Z</time></trkpt><trkpt lat="42.4549777" lon="18.4940538"><ele>11.0</ele><time>2026-05-04T10:40:28.641Z</time></trkpt><trkpt lat="42.4548846" lon="18.4941573"><ele>11.0</ele><time>2026-05-04T10:40:29.642Z</time></trkpt><trkpt lat="42.4547949" lon="18.494261"><ele>11.0</ele><time>2026-05-04T10:40:30.642Z</time></trkpt><trkpt lat="42.4546914" lon="18.4943722"><ele>11.0</ele><time>2026-05-04T10:40:31.641Z</time></trkpt><trkpt lat="42.4545973" lon="18.4944817"><ele>11.0</ele><time>2026-05-04T10:40:32.642Z</time></trkpt><trkpt lat="42.4545052" lon="18.4945898"><ele>11.5</ele><time>2026-05-04T10:40:33.642Z</time></trkpt><trkpt lat="42.4544199" lon="18.4946926"><ele>12.0</ele><time>2026-05-04T10:40:34.641Z</time></trkpt><trkpt lat="42.4543222" lon="18.4948104"><ele>12.5</ele><time>2026-05-04T10:40:35.642Z</time></trkpt><trkpt lat="42.4542035" lon="18.4949143"><ele>13.0</ele><time>2026-05-04T10:40:36.642Z</time></trkpt><trkpt lat="42.4540956" lon="18.4950222"><ele>13.0</ele><time>2026-05-04T10:40:37.642Z</time></trkpt><trkpt lat="42.4539867" lon="18.4951298"><ele>13.0</ele><time>2026-05-04T10:40:38.642Z</time></trkpt><trkpt lat="42.4538666" lon="18.4952424"><ele>13.0</ele><time>2026-05-04T10:40:39.641Z</time></trkpt><trkpt lat="42.4537497" lon="18.4953714"><ele>13.0</ele><time>2026-05-04T10:40:40.641Z</time></trkpt><trkpt lat="42.4536344" lon="18.4955025"><ele>12.333333333333332</ele><time>2026-05-04T10:40:41.642Z</time></trkpt><trkpt lat="42.4535255" lon="18.4956414"><ele>11.666666666666666</ele><time>2026-05-04T10:40:42.641Z</time></trkpt><trkpt lat="42.4534223" lon="18.4957998"><ele>11.0</ele><time>2026-05-04T10:40:43.642Z</time></trkpt><trkpt lat="42.4533285" lon="18.4959539"><ele>11.0</ele><time>2026-05-04T10:40:44.642Z</time></trkpt><trkpt lat="42.4532338" lon="18.4961097"><ele>11.0</ele><time>2026-05-04T10:40:45.642Z</time></trkpt><trkpt lat="42.4531431" lon="18.4962544"><ele>11.0</ele><time>2026-05-04T10:40:46.642Z</time></trkpt><trkpt lat="42.4530374" lon="18.4964038"><ele>11.0</ele><time>2026-05-04T10:40:47.641Z</time></trkpt><trkpt lat="42.452938" lon="18.496558"><ele>9.75</ele><time>2026-05-04T10:40:48.641Z</time></trkpt><trkpt lat="42.4528426" lon="18.4967123"><ele>8.5</ele><time>2026-05-04T10:40:49.641Z</time></trkpt><trkpt lat="42.452742" lon="18.4968579"><ele>7.25</ele><time>2026-05-04T10:40:50.642Z</time></trkpt><trkpt lat="42.452637" lon="18.4969974"><ele>6.0</ele><time>2026-05-04T10:40:51.642Z</time></trkpt><trkpt lat="42.4525274" lon="18.4971336"><ele>6.0</ele><time>2026-05-04T10:40:52.641Z</time></trkpt><trkpt lat="42.4524158" lon="18.4972753"><ele>6.0</ele><time>2026-05-04T10:40:53.642Z</time></trkpt><trkpt lat="42.4523038" lon="18.4974034"><ele>6.0</ele><time>2026-05-04T10:40:54.642Z</time></trkpt><trkpt lat="42.4521923" lon="18.4975329"><ele>6.0</ele><time>2026-05-04T10:40:55.641Z</time></trkpt><trkpt lat="42.4520812" lon="18.4976677"><ele>6.5</ele><time>2026-05-04T10:40:56.642Z</time></trkpt><trkpt lat="42.4519757" lon="18.4978078"><ele>7.0</ele><time>2026-05-04T10:40:57.642Z</time></trkpt><trkpt lat="42.4518723" lon="18.4979439"><ele>7.5</ele><time>2026-05-04T10:40:58.641Z</time></trkpt><trkpt lat="42.4517685" lon="18.4980798"><ele>8.0</ele><time>2026-05-04T10:40:59.641Z</time></trkpt><trkpt lat="42.4516572" lon="18.4982208"><ele>8.0</ele><time>2026-05-04T10:41:00.641Z</time></trkpt><trkpt lat="42.4515512" lon="18.4983488"><ele>8.0</ele><time>2026-05-04T10:41:01.641Z</time></trkpt><trkpt lat="42.4514338" lon="18.4984785"><ele>8.0</ele><time>2026-05-04T10:41:02.642Z</time></trkpt><trkpt lat="42.451322" lon="18.4985945"><ele>8.0</ele><time>2026-05-04T10:41:03.642Z</time></trkpt><trkpt lat="42.4512136" lon="18.4987104"><ele>8.75</ele><time>2026-05-04T10:41:04.641Z</time></trkpt><trkpt lat="42.4510931" lon="18.4988401"><ele>9.5</ele><time>2026-05-04T10:41:05.641Z</time></trkpt><trkpt lat="42.4509797" lon="18.4989599"><ele>10.25</ele><time>2026-05-04T10:41:06.641Z</time></trkpt><trkpt lat="42.450865" lon="18.4990806"><ele>11.0</ele><time>2026-05-04T10:41:07.642Z</time></trkpt><trkpt lat="42.4507602" lon="18.4992129"><ele>11.0</ele><time>2026-05-04T10:41:08.641Z</time></trkpt><trkpt lat="42.4506551" lon="18.499346"><ele>11.0</ele><time>2026-05-04T10:41:09.642Z</time></trkpt><trkpt lat="42.4505568" lon="18.4995058"><ele>11.0</ele><time>2026-05-04T10:41:10.641Z</time></trkpt><trkpt lat="42.450467" lon="18.4996627"><ele>11.0</ele><time>2026-05-04T10:41:11.641Z</time></trkpt><trkpt lat="42.4503871" lon="18.499828"><ele>11.75</ele><time>2026-05-04T10:41:12.641Z</time></trkpt><trkpt lat="42.4503187" lon="18.499991"><ele>12.5</ele><time>2026-05-04T10:41:13.642Z</time></trkpt><trkpt lat="42.450255" lon="18.5001358"><ele>13.25</ele><time>2026-05-04T10:41:14.642Z</time></trkpt><trkpt lat="42.4501891" lon="18.5002767"><ele>14.0</ele><time>2026-05-04T10:41:15.641Z</time></trkpt><trkpt lat="42.4501627" lon="18.5004235"><ele>14.0</ele><time>2026-05-04T10:41:16.641Z</time></trkpt><trkpt lat="42.4501582" lon="18.5005687"><ele>13.999999999999998</ele><time>2026-05-04T10:41:17.642Z</time></trkpt><trkpt lat="42.4501483" lon="18.5007204"><ele>13.999999999999998</ele><time>2026-05-04T10:41:18.642Z</time></trkpt><trkpt lat="42.4501302" lon="18.5008701"><ele>14.0</ele><time>2026-05-04T10:41:19.642Z</time></trkpt><trkpt lat="42.4500989" lon="18.5009998"><ele>14.0</ele><time>2026-05-04T10:41:20.641Z</time></trkpt><trkpt lat="42.45003" lon="18.5011125"><ele>14.0</ele><time>2026-05-04T10:41:21.641Z</time></trkpt><trkpt lat="42.4499491" lon="18.501229"><ele>14.0</ele><time>2026-05-04T10:41:22.642Z</time></trkpt><trkpt lat="42.4498559" lon="18.5013441"><ele>14.0</ele><time>2026-05-04T10:41:23.641Z</time></trkpt><trkpt lat="42.4497597" lon="18.5014481"><ele>14.0</ele><time>2026-05-04T10:41:24.642Z</time></trkpt><trkpt lat="42.4496618" lon="18.501566"><ele>18.0</ele><time>2026-05-04T10:41:25.642Z</time></trkpt><trkpt lat="42.4495604" lon="18.5016914"><ele>22.0</ele><time>2026-05-04T10:41:26.641Z</time></trkpt><trkpt lat="42.4494542" lon="18.5018227"><ele>26.0</ele><time>2026-05-04T10:41:27.641Z</time></trkpt><trkpt lat="42.4493463" lon="18.5019508"><ele>30.0</ele><time>2026-05-04T10:41:28.642Z</time></trkpt><trkpt lat="42.4492317" lon="18.5020789"><ele>23.0</ele><time>2026-05-04T10:41:29.642Z</time></trkpt><trkpt lat="42.4490993" lon="18.5022186"><ele>16.0</ele><time>2026-05-04T10:41:30.642Z</time></trkpt><trkpt lat="42.4489703" lon="18.5023661"><ele>9.0</ele><time>2026-05-04T10:41:31.642Z</time></trkpt><trkpt lat="42.4488232" lon="18.5025068"><ele>9.666666666666666</ele><time>2026-05-04T10:41:32.641Z</time></trkpt><trkpt lat="42.4486739" lon="18.5026462"><ele>10.333333333333332</ele><time>2026-05-04T10:41:33.641Z</time></trkpt><trkpt lat="42.4485322" lon="18.502792"><ele>11.0</ele><time>2026-05-04T10:41:34.641Z</time></trkpt><trkpt lat="42.4483871" lon="18.5029294"><ele>11.0</ele><time>2026-05-04T10:41:35.642Z</time></trkpt><trkpt lat="42.4482418" lon="18.5030646"><ele>11.0</ele><time>2026-05-04T10:41:36.642Z</time></trkpt><trkpt lat="42.4480924" lon="18.5032013"><ele>11.0</ele><time>2026-05-04T10:41:37.641Z</time></trkpt><trkpt lat="42.4479347" lon="18.5033301"><ele>22.666666666666668</ele><time>2026-05-04T10:41:38.642Z</time></trkpt><trkpt lat="42.4477826" lon="18.5034615"><ele>34.333333333333336</ele><time>2026-05-04T10:41:39.642Z</time></trkpt><trkpt lat="42.4476323" lon="18.503591"><ele>46.0</ele><time>2026-05-04T10:41:40.642Z</time></trkpt><trkpt lat="42.447499" lon="18.5037192"><ele>46.333333333333336</ele><time>2026-05-04T10:41:41.642Z</time></trkpt><trkpt lat="42.4473572" lon="18.503845"><ele>46.666666666666664</ele><time>2026-05-04T10:41:42.641Z</time></trkpt><trkpt lat="42.4472178" lon="18.5039742"><ele>47.0</ele><time>2026-05-04T10:41:43.642Z</time></trkpt><trkpt lat="42.4470702" lon="18.5040976"><ele>47.0</ele><time>2026-05-04T10:41:44.642Z</time></trkpt><trkpt lat="42.4469219" lon="18.5042118"><ele>47.0</ele><time>2026-05-04T10:41:45.642Z</time></trkpt><trkpt lat="42.4467602" lon="18.504325"><ele>47.0</ele><time>2026-05-04T10:41:46.642Z</time></trkpt><trkpt lat="42.4465993" lon="18.504417"><ele>47.0</ele><time>2026-05-04T10:41:47.641Z</time></trkpt><trkpt lat="42.4464328" lon="18.5045044"><ele>47.0</ele><time>2026-05-04T10:41:48.641Z</time></trkpt><trkpt lat="42.4462674" lon="18.5045848"><ele>47.0</ele><time>2026-05-04T10:41:49.641Z</time></trkpt><trkpt lat="42.4460945" lon="18.5046737"><ele>42.666666666666664</ele><time>2026-05-04T10:41:50.642Z</time></trkpt><trkpt lat="42.4459382" lon="18.5047345"><ele>38.333333333333336</ele><time>2026-05-04T10:41:51.641Z</time></trkpt><trkpt lat="42.4457752" lon="18.5048247"><ele>34.0</ele><time>2026-05-04T10:41:52.641Z</time></trkpt><trkpt lat="42.4456" lon="18.5049157"><ele>43.66666666666667</ele><time>2026-05-04T10:41:53.642Z</time></trkpt><trkpt lat="42.4454618" lon="18.5050071"><ele>53.333333333333336</ele><time>2026-05-04T10:41:54.642Z</time></trkpt><trkpt lat="42.4453176" lon="18.505098"><ele>63.0</ele><time>2026-05-04T10:41:55.641Z</time></trkpt><trkpt lat="42.4451805" lon="18.505185"><ele>63.0</ele><time>2026-05-04T10:41:56.642Z</time></trkpt><trkpt lat="42.4450362" lon="18.5052808"><ele>63.0</ele><time>2026-05-04T10:41:57.642Z</time></trkpt><trkpt lat="42.4448825" lon="18.505384"><ele>63.0</ele><time>2026-05-04T10:41:58.641Z</time></trkpt><trkpt lat="42.4447212" lon="18.5054916"><ele>58.66666666666667</ele><time>2026-05-04T10:41:59.641Z</time></trkpt><trkpt lat="42.4445679" lon="18.5055894"><ele>54.333333333333336</ele><time>2026-05-04T10:42:00.642Z</time></trkpt><trkpt lat="42.4444104" lon="18.5056794"><ele>50.0</ele><time>2026-05-04T10:42:01.641Z</time></trkpt><trkpt lat="42.4442541" lon="18.505766"><ele>50.0</ele><time>2026-05-04T10:42:02.641Z</time></trkpt><trkpt lat="42.444094" lon="18.5058543"><ele>50.0</ele><time>2026-05-04T10:42:03.641Z</time></trkpt><trkpt lat="42.4439309" lon="18.5059406"><ele>50.0</ele><time>2026-05-04T10:42:04.641Z</time></trkpt><trkpt lat="42.4437661" lon="18.5060421"><ele>45.333333333333336</ele><time>2026-05-04T10:42:05.641Z</time></trkpt><trkpt lat="42.443604" lon="18.5061524"><ele>40.66666666666667</ele><time>2026-05-04T10:42:06.641Z</time></trkpt><trkpt lat="42.4434498" lon="18.5062721"><ele>36.0</ele><time>2026-05-04T10:42:07.641Z</time></trkpt><trkpt lat="42.4432942" lon="18.5063823"><ele>36.0</ele><time>2026-05-04T10:42:08.641Z</time></trkpt><trkpt lat="42.4431427" lon="18.5064732"><ele>36.0</ele><time>2026-05-04T10:42:09.642Z</time></trkpt><trkpt lat="42.4429795" lon="18.5065865"><ele>36.0</ele><time>2026-05-04T10:42:10.642Z</time></trkpt><trkpt lat="42.4428305" lon="18.506707"><ele>32.666666666666664</ele><time>2026-05-04T10:42:11.642Z</time></trkpt><trkpt lat="42.4426771" lon="18.506841"><ele>29.333333333333332</ele><time>2026-05-04T10:42:12.642Z</time></trkpt><trkpt lat="42.4425274" lon="18.5069817"><ele>26.0</ele><time>2026-05-04T10:42:13.641Z</time></trkpt><trkpt lat="42.4423739" lon="18.5071202"><ele>26.0</ele><time>2026-05-04T10:42:14.642Z</time></trkpt><trkpt lat="42.4422083" lon="18.507253"><ele>26.0</ele><time>2026-05-04T10:42:15.641Z</time></trkpt><trkpt lat="42.4420361" lon="18.5073775"><ele>26.0</ele><time>2026-05-04T10:42:16.641Z</time></trkpt><trkpt lat="42.4418652" lon="18.5074987"><ele>33.666666666666664</ele><time>2026-05-04T10:42:17.642Z</time></trkpt><trkpt lat="42.4417043" lon="18.5076292"><ele>41.33333333333333</ele><time>2026-05-04T10:42:18.642Z</time></trkpt><trkpt lat="42.4415434" lon="18.507756"><ele>49.0</ele><time>2026-05-04T10:42:19.641Z</time></trkpt><trkpt lat="42.4413871" lon="18.5078791"><ele>47.666666666666664</ele><time>2026-05-04T10:42:20.642Z</time></trkpt><trkpt lat="42.4412339" lon="18.5080081"><ele>46.33333333333333</ele><time>2026-05-04T10:42:21.642Z</time></trkpt><trkpt lat="42.4410873" lon="18.5081427"><ele>45.0</ele><time>2026-05-04T10:42:22.642Z</time></trkpt><trkpt lat="42.4409398" lon="18.5082627"><ele>45.0</ele><time>2026-05-04T10:42:23.641Z</time></trkpt><trkpt lat="42.4407834" lon="18.5083821"><ele>45.0</ele><time>2026-05-04T10:42:24.642Z</time></trkpt><trkpt lat="42.4406101" lon="18.5084802"><ele>45.0</ele><time>2026-05-04T10:42:25.641Z</time></trkpt><trkpt lat="42.4404503" lon="18.5085915"><ele>43.0</ele><time>2026-05-04T10:42:26.642Z</time></trkpt><trkpt lat="42.4402897" lon="18.5086999"><ele>41.0</ele><time>2026-05-04T10:42:27.642Z</time></trkpt><trkpt lat="42.4401323" lon="18.508806"><ele>39.0</ele><time>2026-05-04T10:42:28.642Z</time></trkpt><trkpt lat="42.4399772" lon="18.5089121"><ele>39.0</ele><time>2026-05-04T10:42:29.641Z</time></trkpt><trkpt lat="42.4398199" lon="18.5090105"><ele>39.0</ele><time>2026-05-04T10:42:30.641Z</time></trkpt><trkpt lat="42.4396633" lon="18.5091076"><ele>39.0</ele><time>2026-05-04T10:42:31.642Z</time></trkpt><trkpt lat="42.4395085" lon="18.5091905"><ele>46.66666666666667</ele><time>2026-05-04T10:42:32.641Z</time></trkpt><trkpt lat="42.4393492" lon="18.5092681"><ele>54.333333333333336</ele><time>2026-05-04T10:42:33.642Z</time></trkpt><trkpt lat="42.4391984" lon="18.5093242"><ele>62.0</ele><time>2026-05-04T10:42:34.641Z</time></trkpt><trkpt lat="42.4390419" lon="18.5093825"><ele>62.0</ele><time>2026-05-04T10:42:35.642Z</time></trkpt><trkpt lat="42.4388872" lon="18.509459"><ele>62.0</ele><time>2026-05-04T10:42:36.641Z</time></trkpt><trkpt lat="42.4387398" lon="18.5095243"><ele>62.0</ele><time>2026-05-04T10:42:37.641Z</time></trkpt><trkpt lat="42.4385829" lon="18.5095266"><ele>67.5</ele><time>2026-05-04T10:42:38.642Z</time></trkpt><trkpt lat="42.438427" lon="18.5095621"><ele>73.0</ele><time>2026-05-04T10:42:39.642Z</time></trkpt><trkpt lat="42.438283" lon="18.509598"><ele>78.5</ele><time>2026-05-04T10:42:40.641Z</time></trkpt><trkpt lat="42.4381557" lon="18.5096745"><ele>84.0</ele><time>2026-05-04T10:42:41.642Z</time></trkpt><trkpt lat="42.4380248" lon="18.5097613"><ele>80.33333333333333</ele><time>2026-05-04T10:42:42.642Z</time></trkpt><trkpt lat="42.4379032" lon="18.5098677"><ele>76.66666666666666</ele><time>2026-05-04T10:42:43.641Z</time></trkpt><trkpt lat="42.4377735" lon="18.5099774"><ele>73.0</ele><time>2026-05-04T10:42:44.642Z</time></trkpt><trkpt lat="42.4376384" lon="18.510093"><ele>73.0</ele><time>2026-05-04T10:42:45.642Z</time></trkpt><trkpt lat="42.4375042" lon="18.5102127"><ele>73.0</ele><time>2026-05-04T10:42:46.642Z</time></trkpt><trkpt lat="42.4373741" lon="18.5103119"><ele>73.0</ele><time>2026-05-04T10:42:47.641Z</time></trkpt><trkpt lat="42.4372382" lon="18.5104221"><ele>72.0</ele><time>2026-05-04T10:42:48.642Z</time></trkpt><trkpt lat="42.4370906" lon="18.5105078"><ele>71.0</ele><time>2026-05-04T10:42:49.642Z</time></trkpt><trkpt lat="42.4369714" lon="18.5105873"><ele>70.0</ele><time>2026-05-04T10:42:50.642Z</time></trkpt><trkpt lat="42.436833" lon="18.5106509"><ele>69.0</ele><time>2026-05-04T10:42:51.642Z</time></trkpt><trkpt lat="42.4367136" lon="18.510744"><ele>69.0</ele><time>2026-05-04T10:42:52.642Z</time></trkpt><trkpt lat="42.436598" lon="18.5108498"><ele>69.0</ele><time>2026-05-04T10:42:53.642Z</time></trkpt><trkpt lat="42.4364766" lon="18.5109992"><ele>69.0</ele><time>2026-05-04T10:42:54.642Z</time></trkpt><trkpt lat="42.4363725" lon="18.5111154"><ele>69.0</ele><time>2026-05-04T10:42:55.641Z</time></trkpt><trkpt lat="42.4362432" lon="18.5112416"><ele>70.33333333333333</ele><time>2026-05-04T10:42:56.642Z</time></trkpt><trkpt lat="42.4361075" lon="18.51136"><ele>71.66666666666666</ele><time>2026-05-04T10:42:57.642Z</time></trkpt><trkpt lat="42.4359673" lon="18.5114759"><ele>73.0</ele><time>2026-05-04T10:42:58.642Z</time></trkpt><trkpt lat="42.435824" lon="18.5115875"><ele>73.0</ele><time>2026-05-04T10:42:59.642Z</time></trkpt><trkpt lat="42.4356773" lon="18.5116858"><ele>73.0</ele><time>2026-05-04T10:43:00.641Z</time></trkpt><trkpt lat="42.435539" lon="18.5117929"><ele>73.0</ele><time>2026-05-04T10:43:01.642Z</time></trkpt><trkpt lat="42.4354057" lon="18.5119015"><ele>75.33333333333333</ele><time>2026-05-04T10:43:02.642Z</time></trkpt><trkpt lat="42.4352804" lon="18.5120359"><ele>77.66666666666667</ele><time>2026-05-04T10:43:03.642Z</time></trkpt><trkpt lat="42.4351595" lon="18.5121626"><ele>80.0</ele><time>2026-05-04T10:43:04.642Z</time></trkpt><trkpt lat="42.4350367" lon="18.51229"><ele>80.0</ele><time>2026-05-04T10:43:05.641Z</time></trkpt><trkpt lat="42.4349364" lon="18.5124251"><ele>80.0</ele><time>2026-05-04T10:43:06.641Z</time></trkpt><trkpt lat="42.4348339" lon="18.5125598"><ele>80.0</ele><time>2026-05-04T10:43:07.642Z</time></trkpt><trkpt lat="42.4347536" lon="18.5127062"><ele>80.0</ele><time>2026-05-04T10:43:08.642Z</time></trkpt><trkpt lat="42.4346783" lon="18.5128499"><ele>83.75</ele><time>2026-05-04T10:43:09.642Z</time></trkpt><trkpt lat="42.4346091" lon="18.5129838"><ele>87.5</ele><time>2026-05-04T10:43:10.642Z</time></trkpt><trkpt lat="42.4345097" lon="18.5130849"><ele>91.25</ele><time>2026-05-04T10:43:11.641Z</time></trkpt><trkpt lat="42.4344121" lon="18.5131842"><ele>95.0</ele><time>2026-05-04T10:43:12.641Z</time></trkpt><trkpt lat="42.4343086" lon="18.513274"><ele>95.0</ele><time>2026-05-04T10:43:13.641Z</time></trkpt><trkpt lat="42.4342043" lon="18.513362"><ele>95.0</ele><time>2026-05-04T10:43:14.642Z</time></trkpt><trkpt lat="42.4341092" lon="18.5134788"><ele>95.0</ele><time>2026-05-04T10:43:15.642Z</time></trkpt><trkpt lat="42.4340062" lon="18.5136146"><ele>95.0</ele><time>2026-05-04T10:43:16.641Z</time></trkpt><trkpt lat="42.4339296" lon="18.5137788"><ele>90.5</ele><time>2026-05-04T10:43:17.641Z</time></trkpt><trkpt lat="42.4338397" lon="18.5139418"><ele>86.0</ele><time>2026-05-04T10:43:18.642Z</time></trkpt><trkpt lat="42.4337815" lon="18.5140975"><ele>81.5</ele><time>2026-05-04T10:43:19.642Z</time></trkpt><trkpt lat="42.4337031" lon="18.51425"><ele>77.0</ele><time>2026-05-04T10:43:20.642Z</time></trkpt><trkpt lat="42.4336664" lon="18.5143886"><ele>80.75</ele><time>2026-05-04T10:43:21.642Z</time></trkpt><trkpt lat="42.4335843" lon="18.5145356"><ele>84.5</ele><time>2026-05-04T10:43:22.641Z</time></trkpt><trkpt lat="42.4334989" lon="18.514681"><ele>88.25</ele><time>2026-05-04T10:43:23.641Z</time></trkpt><trkpt lat="42.4334085" lon="18.5148369"><ele>92.0</ele><time>2026-05-04T10:43:24.642Z</time></trkpt><trkpt lat="42.4333349" lon="18.5149781"><ele>92.0</ele><time>2026-05-04T10:43:25.642Z</time></trkpt><trkpt lat="42.433243" lon="18.5151209"><ele>92.0</ele><time>2026-05-04T10:43:26.642Z</time></trkpt><trkpt lat="42.4331426" lon="18.5152684"><ele>92.0</ele><time>2026-05-04T10:43:27.642Z</time></trkpt><trkpt lat="42.4330404" lon="18.5153936"><ele>92.0</ele><time>2026-05-04T10:43:28.642Z</time></trkpt><trkpt lat="42.4329329" lon="18.5155301"><ele>94.75</ele><time>2026-05-04T10:43:29.641Z</time></trkpt><trkpt lat="42.432825" lon="18.515652"><ele>97.5</ele><time>2026-05-04T10:43:30.641Z</time></trkpt><trkpt lat="42.4327242" lon="18.5157993"><ele>100.25</ele><time>2026-05-04T10:43:31.642Z</time></trkpt><trkpt lat="42.4326178" lon="18.5159478"><ele>103.0</ele><time>2026-05-04T10:43:32.641Z</time></trkpt><trkpt lat="42.4325173" lon="18.5160694"><ele>103.0</ele><time>2026-05-04T10:43:33.642Z</time></trkpt><trkpt lat="42.4324036" lon="18.5161917"><ele>103.0</ele><time>2026-05-04T10:43:34.642Z</time></trkpt><trkpt lat="42.4322624" lon="18.5163122"><ele>103.0</ele><time>2026-05-04T10:43:35.641Z</time></trkpt><trkpt lat="42.4321208" lon="18.5164217"><ele>108.0</ele><time>2026-05-04T10:43:36.641Z</time></trkpt><trkpt lat="42.4319612" lon="18.5165513"><ele>113.0</ele><time>2026-05-04T10:43:37.641Z</time></trkpt><trkpt lat="42.43183" lon="18.5166926"><ele>118.0</ele><time>2026-05-04T10:43:38.642Z</time></trkpt><trkpt lat="42.4316921" lon="18.5168375"><ele>118.0</ele><time>2026-05-04T10:43:39.642Z</time></trkpt><trkpt lat="42.4315398" lon="18.5169893"><ele>118.0</ele><time>2026-05-04T10:43:40.641Z</time></trkpt><trkpt lat="42.4313844" lon="18.5171437"><ele>118.0</ele><time>2026-05-04T10:43:41.642Z</time></trkpt><trkpt lat="42.4312386" lon="18.517308"><ele>117.66666666666667</ele><time>2026-05-04T10:43:42.641Z</time></trkpt><trkpt lat="42.4311072" lon="18.5174715"><ele>117.33333333333334</ele><time>2026-05-04T10:43:43.641Z</time></trkpt><trkpt lat="42.4309707" lon="18.517624"><ele>117.0</ele><time>2026-05-04T10:43:44.642Z</time></trkpt><trkpt lat="42.4308374" lon="18.5177551"><ele>117.0</ele><time>2026-05-04T10:43:45.641Z</time></trkpt><trkpt lat="42.4307106" lon="18.517889"><ele>117.0</ele><time>2026-05-04T10:43:46.642Z</time></trkpt><trkpt lat="42.4305908" lon="18.5180521"><ele>117.0</ele><time>2026-05-04T10:43:47.642Z</time></trkpt><trkpt lat="42.4304719" lon="18.5182285"><ele>113.0</ele><time>2026-05-04T10:43:48.641Z</time></trkpt><trkpt lat="42.4303496" lon="18.5184023"><ele>109.0</ele><time>2026-05-04T10:43:49.642Z</time></trkpt><trkpt lat="42.4302231" lon="18.5185773"><ele>105.0</ele><time>2026-05-04T10:43:50.641Z</time></trkpt><trkpt lat="42.4300912" lon="18.5187497"><ele>105.0</ele><time>2026-05-04T10:43:51.642Z</time></trkpt><trkpt lat="42.4299412" lon="18.5189273"><ele>105.0</ele><time>2026-05-04T10:43:52.641Z</time></trkpt><trkpt lat="42.4297979" lon="18.5190992"><ele>105.0</ele><time>2026-05-04T10:43:53.641Z</time></trkpt><trkpt lat="42.4296702" lon="18.519266"><ele>110.33333333333334</ele><time>2026-05-04T10:43:54.642Z</time></trkpt><trkpt lat="42.429545" lon="18.519432"><ele>115.66666666666667</ele><time>2026-05-04T10:43:55.642Z</time></trkpt><trkpt lat="42.4294317" lon="18.5196067"><ele>121.0</ele><time>2026-05-04T10:43:56.641Z</time></trkpt><trkpt lat="42.429317" lon="18.5197931"><ele>121.0</ele><time>2026-05-04T10:43:57.641Z</time></trkpt><trkpt lat="42.42921" lon="18.5199655"><ele>121.0</ele><time>2026-05-04T10:43:58.641Z</time></trkpt><trkpt lat="42.4290969" lon="18.5201432"><ele>121.0</ele><time>2026-05-04T10:43:59.642Z</time></trkpt><trkpt lat="42.4289764" lon="18.5203152"><ele>126.0</ele><time>2026-05-04T10:44:00.642Z</time></trkpt><trkpt lat="42.4288429" lon="18.5204941"><ele>131.0</ele><time>2026-05-04T10:44:01.641Z</time></trkpt><trkpt lat="42.4287131" lon="18.5206611"><ele>136.0</ele><time>2026-05-04T10:44:02.642Z</time></trkpt><trkpt lat="42.4285766" lon="18.5208364"><ele>136.0</ele><time>2026-05-04T10:44:03.641Z</time></trkpt><trkpt lat="42.4284375" lon="18.5210119"><ele>136.0</ele><time>2026-05-04T10:44:04.641Z</time></trkpt><trkpt lat="42.4282981" lon="18.5211882"><ele>136.0</ele><time>2026-05-04T10:44:05.642Z</time></trkpt><trkpt lat="42.4281576" lon="18.5213686"><ele>139.0</ele><time>2026-05-04T10:44:06.642Z</time></trkpt><trkpt lat="42.4280242" lon="18.5215393"><ele>142.0</ele><time>2026-05-04T10:44:07.641Z</time></trkpt><trkpt lat="42.4278987" lon="18.5216991"><ele>145.0</ele><time>2026-05-04T10:44:08.641Z</time></trkpt><trkpt lat="42.4277838" lon="18.5218513"><ele>145.0</ele><time>2026-05-04T10:44:09.641Z</time></trkpt><trkpt lat="42.4276784" lon="18.5220087"><ele>145.0</ele><time>2026-05-04T10:44:10.642Z</time></trkpt><trkpt lat="42.4275869" lon="18.5221365"><ele>145.0</ele><time>2026-05-04T10:44:11.642Z</time></trkpt><trkpt lat="42.427505" lon="18.5222409"><ele>145.0</ele><time>2026-05-04T10:44:12.641Z</time></trkpt><trkpt lat="42.4274406" lon="18.5223242"><ele>144.66666666666669</ele><time>2026-05-04T10:44:13.642Z</time></trkpt><trkpt lat="42.4273831" lon="18.5224047"><ele>144.33333333333334</ele><time>2026-05-04T10:44:14.641Z</time></trkpt><trkpt lat="42.427338" lon="18.5224658"><ele>144.0</ele><time>2026-05-04T10:44:15.642Z</time></trkpt><trkpt lat="42.427254" lon="18.5225793"><ele>143.66666666666666</ele><time>2026-05-04T10:44:17.642Z</time></trkpt><trkpt lat="42.4272036" lon="18.5226405"><ele>143.33333333333331</ele><time>2026-05-04T10:44:20.641Z</time></trkpt><trkpt lat="42.4271258" lon="18.5226776"><ele>143.0</ele><time>2026-05-04T10:45:35.641Z</time></trkpt><trkpt lat="42.4270085" lon="18.5227556"><ele>143.0</ele><time>2026-05-04T10:45:37.642Z</time></trkpt><trkpt lat="42.4269279" lon="18.5228028"><ele>143.0</ele><time>2026-05-04T10:45:38.641Z</time></trkpt><trkpt lat="42.4268331" lon="18.5228399"><ele>143.0</ele><time>2026-05-04T10:45:39.642Z</time></trkpt><trkpt lat="42.4267264" lon="18.5228845"><ele>143.0</ele><time>2026-05-04T10:45:40.641Z</time></trkpt><trkpt lat="42.4266146" lon="18.5229254"><ele>143.0</ele><time>2026-05-04T10:45:41.642Z</time></trkpt><trkpt lat="42.42649" lon="18.522963"><ele>140.0</ele><time>2026-05-04T10:45:42.642Z</time></trkpt><trkpt lat="42.4263541" lon="18.5229962"><ele>137.0</ele><time>2026-05-04T10:45:43.642Z</time></trkpt><trkpt lat="42.426209" lon="18.5230394"><ele>134.0</ele><time>2026-05-04T10:45:44.641Z</time></trkpt><trkpt lat="42.4260641" lon="18.5230795"><ele>131.0</ele><time>2026-05-04T10:45:45.642Z</time></trkpt><trkpt lat="42.4259235" lon="18.5231082"><ele>130.33333333333331</ele><time>2026-05-04T10:45:46.642Z</time></trkpt><trkpt lat="42.4257692" lon="18.5231503"><ele>129.66666666666666</ele><time>2026-05-04T10:45:47.642Z</time></trkpt><trkpt lat="42.4256159" lon="18.5232004"><ele>129.0</ele><time>2026-05-04T10:45:48.642Z</time></trkpt><trkpt lat="42.4254641" lon="18.5232645"><ele>129.0</ele><time>2026-05-04T10:45:49.641Z</time></trkpt><trkpt lat="42.4253111" lon="18.5233023"><ele>129.0</ele><time>2026-05-04T10:45:50.641Z</time></trkpt><trkpt lat="42.4251539" lon="18.5233317"><ele>129.0</ele><time>2026-05-04T10:45:51.642Z</time></trkpt><trkpt lat="42.4249984" lon="18.5233655"><ele>129.0</ele><time>2026-05-04T10:45:52.642Z</time></trkpt><trkpt lat="42.4248478" lon="18.5234007"><ele>129.0</ele><time>2026-05-04T10:45:53.642Z</time></trkpt><trkpt lat="42.4246958" lon="18.5234306"><ele>129.0</ele><time>2026-05-04T10:45:54.641Z</time></trkpt><trkpt lat="42.4245473" lon="18.5234481"><ele>128.33333333333334</ele><time>2026-05-04T10:45:55.642Z</time></trkpt><trkpt lat="42.424394" lon="18.5234643"><ele>127.66666666666667</ele><time>2026-05-04T10:45:56.641Z</time></trkpt><trkpt lat="42.4242381" lon="18.523474"><ele>127.0</ele><time>2026-05-04T10:45:57.641Z</time></trkpt><trkpt lat="42.4240843" lon="18.523481"><ele>127.0</ele><time>2026-05-04T10:45:58.642Z</time></trkpt><trkpt lat="42.4239321" lon="18.5234869"><ele>127.0</ele><time>2026-05-04T10:45:59.642Z</time></trkpt><trkpt lat="42.4237799" lon="18.5234955"><ele>127.0</ele><time>2026-05-04T10:46:00.641Z</time></trkpt><trkpt lat="42.4236255" lon="18.5235013"><ele>124.66666666666667</ele><time>2026-05-04T10:46:01.641Z</time></trkpt><trkpt lat="42.4234692" lon="18.5234938"><ele>122.33333333333334</ele><time>2026-05-04T10:46:02.641Z</time></trkpt><trkpt lat="42.4233143" lon="18.5234772"><ele>120.0</ele><time>2026-05-04T10:46:03.642Z</time></trkpt><trkpt lat="42.4231595" lon="18.5234516"><ele>120.0</ele><time>2026-05-04T10:46:04.642Z</time></trkpt><trkpt lat="42.4230132" lon="18.5234158"><ele>120.0</ele><time>2026-05-04T10:46:05.642Z</time></trkpt><trkpt lat="42.4228545" lon="18.5233709"><ele>120.0</ele><time>2026-05-04T10:46:06.641Z</time></trkpt><trkpt lat="42.422698" lon="18.5233182"><ele>116.0</ele><time>2026-05-04T10:46:07.641Z</time></trkpt><trkpt lat="42.42254" lon="18.523266"><ele>112.0</ele><time>2026-05-04T10:46:08.641Z</time></trkpt><trkpt lat="42.4223831" lon="18.5232118"><ele>108.0</ele><time>2026-05-04T10:46:09.641Z</time></trkpt><trkpt lat="42.4222267" lon="18.5231599"><ele>103.5</ele><time>2026-05-04T10:46:10.642Z</time></trkpt><trkpt lat="42.4220769" lon="18.5231119"><ele>99.0</ele><time>2026-05-04T10:46:11.641Z</time></trkpt><trkpt lat="42.4219357" lon="18.5230603"><ele>94.5</ele><time>2026-05-04T10:46:12.641Z</time></trkpt><trkpt lat="42.4218033" lon="18.5230041"><ele>90.0</ele><time>2026-05-04T10:46:13.641Z</time></trkpt><trkpt lat="42.4216885" lon="18.5229448"><ele>95.25</ele><time>2026-05-04T10:46:14.641Z</time></trkpt><trkpt lat="42.4215833" lon="18.5228511"><ele>100.5</ele><time>2026-05-04T10:46:15.641Z</time></trkpt><trkpt lat="42.4214916" lon="18.5227401"><ele>105.75</ele><time>2026-05-04T10:46:16.642Z</time></trkpt><trkpt lat="42.4214169" lon="18.5226218"><ele>111.0</ele><time>2026-05-04T10:46:17.641Z</time></trkpt><trkpt lat="42.4213726" lon="18.5224928"><ele>111.0</ele><time>2026-05-04T10:46:18.641Z</time></trkpt><trkpt lat="42.4213651" lon="18.5223432"><ele>111.0</ele><time>2026-05-04T10:46:19.641Z</time></trkpt><trkpt lat="42.4213707" lon="18.5221827"><ele>111.0</ele><time>2026-05-04T10:46:20.641Z</time></trkpt><trkpt lat="42.4213952" lon="18.5220241"><ele>111.0</ele><time>2026-05-04T10:46:21.641Z</time></trkpt><trkpt lat="42.4214272" lon="18.521881"><ele>110.6</ele><time>2026-05-04T10:46:22.641Z</time></trkpt><trkpt lat="42.421468" lon="18.5217515"><ele>110.19999999999999</ele><time>2026-05-04T10:46:23.641Z</time></trkpt><trkpt lat="42.4215056" lon="18.5216216"><ele>109.80000000000001</ele><time>2026-05-04T10:46:24.642Z</time></trkpt><trkpt lat="42.4215318" lon="18.5214855"><ele>109.4</ele><time>2026-05-04T10:46:25.641Z</time></trkpt><trkpt lat="42.4215482" lon="18.5213341"><ele>109.0</ele><time>2026-05-04T10:46:26.641Z</time></trkpt><trkpt lat="42.4215537" lon="18.5211682"><ele>109.0</ele><time>2026-05-04T10:46:27.642Z</time></trkpt><trkpt lat="42.4215562" lon="18.5210001"><ele>109.0</ele><time>2026-05-04T10:46:28.642Z</time></trkpt><trkpt lat="42.4215557" lon="18.5208309"><ele>109.0</ele><time>2026-05-04T10:46:29.642Z</time></trkpt><trkpt lat="42.4215585" lon="18.5206526"><ele>109.0</ele><time>2026-05-04T10:46:30.642Z</time></trkpt><trkpt lat="42.4215661" lon="18.5204703"><ele>106.75</ele><time>2026-05-04T10:46:31.642Z</time></trkpt><trkpt lat="42.4215788" lon="18.5202778"><ele>104.5</ele><time>2026-05-04T10:46:32.641Z</time></trkpt><trkpt lat="42.421604" lon="18.5200796"><ele>102.25</ele><time>2026-05-04T10:46:33.642Z</time></trkpt><trkpt lat="42.4216373" lon="18.5198775"><ele>100.0</ele><time>2026-05-04T10:46:34.642Z</time></trkpt><trkpt lat="42.4216727" lon="18.5196717"><ele>95.66666666666667</ele><time>2026-05-04T10:46:35.641Z</time></trkpt><trkpt lat="42.4217144" lon="18.5194694"><ele>91.33333333333334</ele><time>2026-05-04T10:46:36.642Z</time></trkpt><trkpt lat="42.4217627" lon="18.5192632"><ele>87.0</ele><time>2026-05-04T10:46:37.642Z</time></trkpt><trkpt lat="42.4218191" lon="18.5190607"><ele>87.0</ele><time>2026-05-04T10:46:38.642Z</time></trkpt><trkpt lat="42.4218771" lon="18.5188508"><ele>87.0</ele><time>2026-05-04T10:46:39.642Z</time></trkpt><trkpt lat="42.4219337" lon="18.5186417"><ele>87.0</ele><time>2026-05-04T10:46:40.641Z</time></trkpt><trkpt lat="42.4219937" lon="18.5184299"><ele>91.66666666666666</ele><time>2026-05-04T10:46:41.642Z</time></trkpt><trkpt lat="42.4220523" lon="18.5182016"><ele>96.33333333333333</ele><time>2026-05-04T10:46:42.642Z</time></trkpt><trkpt lat="42.4221289" lon="18.517985"><ele>101.0</ele><time>2026-05-04T10:46:43.642Z</time></trkpt><trkpt lat="42.4221944" lon="18.5177774"><ele>101.0</ele><time>2026-05-04T10:46:44.641Z</time></trkpt><trkpt lat="42.4222568" lon="18.517558"><ele>101.0</ele><time>2026-05-04T10:46:45.641Z</time></trkpt><trkpt lat="42.4223208" lon="18.5173451"><ele>101.0</ele><time>2026-05-04T10:46:46.641Z</time></trkpt><trkpt lat="42.4223785" lon="18.5171329"><ele>94.33333333333333</ele><time>2026-05-04T10:46:47.642Z</time></trkpt><trkpt lat="42.4224353" lon="18.5169294"><ele>87.66666666666666</ele><time>2026-05-04T10:46:48.642Z</time></trkpt><trkpt lat="42.4224967" lon="18.5167356"><ele>81.0</ele><time>2026-05-04T10:46:49.641Z</time></trkpt><trkpt lat="42.4225471" lon="18.5165491"><ele>81.0</ele><time>2026-05-04T10:46:50.641Z</time></trkpt><trkpt lat="42.4226006" lon="18.5163894"><ele>81.0</ele><time>2026-05-04T10:46:51.642Z</time></trkpt><trkpt lat="42.4226516" lon="18.5162084"><ele>81.0</ele><time>2026-05-04T10:46:52.641Z</time></trkpt><trkpt lat="42.4227019" lon="18.516053"><ele>81.0</ele><time>2026-05-04T10:46:53.642Z</time></trkpt><trkpt lat="42.4227467" lon="18.5159005"><ele>78.0</ele><time>2026-05-04T10:46:54.641Z</time></trkpt><trkpt lat="42.4227933" lon="18.5157456"><ele>75.0</ele><time>2026-05-04T10:46:55.642Z</time></trkpt><trkpt lat="42.4228331" lon="18.5156192"><ele>72.0</ele><time>2026-05-04T10:46:56.642Z</time></trkpt><trkpt lat="42.4228629" lon="18.5155106"><ele>69.0</ele><time>2026-05-04T10:46:57.641Z</time></trkpt><trkpt lat="42.4228978" lon="18.5153993"><ele>66.0</ele><time>2026-05-04T10:46:58.641Z</time></trkpt><trkpt lat="42.4229219" lon="18.5153073"><ele>63.833333333333336</ele><time>2026-05-04T10:46:59.642Z</time></trkpt><trkpt lat="42.4229497" lon="18.5151923"><ele>61.66666666666667</ele><time>2026-05-04T10:47:01.641Z</time></trkpt><trkpt lat="42.4229853" lon="18.5151026"><ele>59.5</ele><time>2026-05-04T10:48:36.641Z</time></trkpt><trkpt lat="42.4229979" lon="18.5150134"><ele>57.333333333333336</ele><time>2026-05-04T10:48:58.641Z</time></trkpt><trkpt lat="42.4230182" lon="18.5149052"><ele>55.16666666666667</ele><time>2026-05-04T10:51:04.641Z</time></trkpt><trkpt lat="42.4230554" lon="18.5148092"><ele>53.0</ele><time>2026-05-04T10:53:16.642Z</time></trkpt><trkpt lat="42.4230757" lon="18.5147206"><ele>56.833333333333336</ele><time>2026-05-04T10:53:20.641Z</time></trkpt><trkpt lat="42.4230898" lon="18.5146237"><ele>60.66666666666667</ele><time>2026-05-04T10:57:12.642Z</time></trkpt><trkpt lat="42.4231018" lon="18.5145241"><ele>64.5</ele><time>2026-05-04T10:59:23.642Z</time></trkpt><trkpt lat="42.4231239" lon="18.5144093"><ele>68.33333333333333</ele><time>2026-05-04T11:02:45.642Z</time></trkpt><trkpt lat="42.4231359" lon="18.5143112"><ele>72.16666666666666</ele><time>2026-05-04T11:03:34.642Z</time></trkpt><trkpt lat="42.4231551" lon="18.5141971"><ele>76.0</ele><time>2026-05-04T11:03:37.642Z</time></trkpt><trkpt lat="42.4231816" lon="18.5140988"><ele>76.0</ele><time>2026-05-04T11:04:10.643Z</time></trkpt><trkpt lat="42.4232018" lon="18.5140003"><ele>76.0</ele><time>2026-05-04T11:04:29.642Z</time></trkpt><trkpt lat="42.4232316" lon="18.513925"><ele>76.0</ele><time>2026-05-04T11:09:20.641Z</time></trkpt><trkpt lat="42.4232638" lon="18.5138257"><ele>76.0</ele><time>2026-05-04T11:09:23.641Z</time></trkpt><trkpt lat="42.4233168" lon="18.5137251"><ele>76.0</ele><time>2026-05-04T11:09:27.64Z</time></trkpt><trkpt lat="42.4232905" lon="18.5136336"><ele>76.0</ele><time>2026-05-04T11:10:30.64Z</time></trkpt><trkpt lat="42.4233302" lon="18.513484"><ele>74.8</ele><time>2026-05-04T11:10:32.64Z</time></trkpt><trkpt lat="42.4233565" lon="18.5133808"><ele>73.6</ele><time>2026-05-04T11:10:33.641Z</time></trkpt><trkpt lat="42.4234001" lon="18.5132406"><ele>72.4</ele><time>2026-05-04T11:10:34.64Z</time></trkpt><trkpt lat="42.4234397" lon="18.513129"><ele>71.2</ele><time>2026-05-04T11:10:35.641Z</time></trkpt><trkpt lat="42.4234799" lon="18.5129975"><ele>70.0</ele><time>2026-05-04T11:10:36.64Z</time></trkpt><trkpt lat="42.4235225" lon="18.51285"><ele>69.33333333333333</ele><time>2026-05-04T11:10:37.641Z</time></trkpt><trkpt lat="42.4235694" lon="18.512677"><ele>68.66666666666667</ele><time>2026-05-04T11:10:38.64Z</time></trkpt><trkpt lat="42.4236253" lon="18.5124824"><ele>68.0</ele><time>2026-05-04T11:10:39.64Z</time></trkpt><trkpt lat="42.4236842" lon="18.5122758"><ele>68.0</ele><time>2026-05-04T11:10:40.641Z</time></trkpt><trkpt lat="42.4237419" lon="18.5120735"><ele>68.0</ele><time>2026-05-04T11:10:41.64Z</time></trkpt><trkpt lat="42.4238025" lon="18.5118625"><ele>68.0</ele><time>2026-05-04T11:10:42.641Z</time></trkpt><trkpt lat="42.4238607" lon="18.511646"><ele>78.33333333333334</ele><time>2026-05-04T11:10:43.64Z</time></trkpt><trkpt lat="42.4239196" lon="18.5114223"><ele>88.66666666666667</ele><time>2026-05-04T11:10:44.64Z</time></trkpt><trkpt lat="42.4239833" lon="18.5111826"><ele>99.0</ele><time>2026-05-04T11:10:45.64Z</time></trkpt><trkpt lat="42.4240517" lon="18.5109263"><ele>99.0</ele><time>2026-05-04T11:10:46.641Z</time></trkpt><trkpt lat="42.4241202" lon="18.510678"><ele>99.0</ele><time>2026-05-04T11:10:47.64Z</time></trkpt><trkpt lat="42.4241934" lon="18.5104268"><ele>99.0</ele><time>2026-05-04T11:10:48.641Z</time></trkpt><trkpt lat="42.4242681" lon="18.510175"><ele>100.66666666666666</ele><time>2026-05-04T11:10:49.641Z</time></trkpt><trkpt lat="42.4243402" lon="18.5099207"><ele>102.33333333333333</ele><time>2026-05-04T11:10:50.641Z</time></trkpt><trkpt lat="42.4244171" lon="18.5096692"><ele>104.0</ele><time>2026-05-04T11:10:51.641Z</time></trkpt><trkpt lat="42.4244911" lon="18.5094138"><ele>105.0</ele><time>2026-05-04T11:10:52.641Z</time></trkpt><trkpt lat="42.4245657" lon="18.5091581"><ele>106.0</ele><time>2026-05-04T11:10:53.641Z</time></trkpt><trkpt lat="42.4246405" lon="18.5089013"><ele>107.0</ele><time>2026-05-04T11:10:54.641Z</time></trkpt><trkpt lat="42.4247117" lon="18.5086465"><ele>115.0</ele><time>2026-05-04T11:10:55.64Z</time></trkpt><trkpt lat="42.4247843" lon="18.5083894"><ele>123.0</ele><time>2026-05-04T11:10:56.641Z</time></trkpt><trkpt lat="42.4248583" lon="18.5081373"><ele>131.0</ele><time>2026-05-04T11:10:57.641Z</time></trkpt><trkpt lat="42.4249368" lon="18.5078876"><ele>131.0</ele><time>2026-05-04T11:10:58.641Z</time></trkpt><trkpt lat="42.425006" lon="18.5076412"><ele>131.0</ele><time>2026-05-04T11:10:59.641Z</time></trkpt><trkpt lat="42.4250807" lon="18.5073885"><ele>131.0</ele><time>2026-05-04T11:11:00.641Z</time></trkpt><trkpt lat="42.4251548" lon="18.5071311"><ele>70.0</ele><time>2026-05-04T11:11:01.641Z</time></trkpt><trkpt lat="42.4233302" lon="18.513484"><ele>70.0</ele><time>2026-05-04T11:10:32.64Z</time></trkpt><trkpt lat="42.4233565" lon="18.5133808"><ele>70.0</ele><time>2026-05-04T11:10:33.641Z</time></trkpt><trkpt lat="42.4234001" lon="18.5132406"><ele>70.0</ele><time>2026-05-04T11:10:34.64Z</time></trkpt><trkpt lat="42.4234397" lon="18.513129"><ele>70.0</ele><time>2026-05-04T11:10:35.641Z</time></trkpt><trkpt lat="42.4234799" lon="18.5129975"><ele>70.0</ele><time>2026-05-04T11:10:36.64Z</time></trkpt><trkpt lat="42.4235225" lon="18.51285"><ele>69.33333333333333</ele><time>2026-05-04T11:10:37.641Z</time></trkpt><trkpt lat="42.4235694" lon="18.512677"><ele>68.66666666666667</ele><time>2026-05-04T11:10:38.64Z</time></trkpt><trkpt lat="42.4236253" lon="18.5124824"><ele>68.0</ele><time>2026-05-04T11:10:39.64Z</time></trkpt><trkpt lat="42.4236842" lon="18.5122758"><ele>68.0</ele><time>2026-05-04T11:10:40.641Z</time></trkpt><trkpt lat="42.4237419" lon="18.5120735"><ele>68.0</ele><time>2026-05-04T11:10:41.64Z</time></trkpt><trkpt lat="42.4238025" lon="18.5118625"><ele>68.0</ele><time>2026-05-04T11:10:42.641Z</time></trkpt><trkpt lat="42.4238607" lon="18.511646"><ele>78.33333333333334</ele><time>2026-05-04T11:10:43.64Z</time></trkpt><trkpt lat="42.4239196" lon="18.5114223"><ele>88.66666666666667</ele><time>2026-05-04T11:10:44.64Z</time></trkpt><trkpt lat="42.4239833" lon="18.5111826"><ele>99.0</ele><time>2026-05-04T11:10:45.64Z</time></trkpt><trkpt lat="42.4240517" lon="18.5109263"><ele>99.0</ele><time>2026-05-04T11:10:46.641Z</time></trkpt><trkpt lat="42.4241202" lon="18.510678"><ele>99.0</ele><time>2026-05-04T11:10:47.64Z</time></trkpt><trkpt lat="42.4241934" lon="18.5104268"><ele>99.0</ele><time>2026-05-04T11:10:48.641Z</time></trkpt><trkpt lat="42.4242681" lon="18.510175"><ele>100.66666666666666</ele><time>2026-05-04T11:10:49.641Z</time></trkpt><trkpt lat="42.4243402" lon="18.5099207"><ele>102.33333333333333</ele><time>2026-05-04T11:10:50.641Z</time></trkpt><trkpt lat="42.4244171" lon="18.5096692"><ele>104.0</ele><time>2026-05-04T11:10:51.641Z</time></trkpt><trkpt lat="42.4244911" lon="18.5094138"><ele>105.0</ele><time>2026-05-04T11:10:52.641Z</time></trkpt><trkpt lat="42.4245657" lon="18.5091581"><ele>106.0</ele><time>2026-05-04T11:10:53.641Z</time></trkpt><trkpt lat="42.4246405" lon="18.5089013"><ele>107.0</ele><time>2026-05-04T11:10:54.641Z</time></trkpt><trkpt lat="42.4247117" lon="18.5086465"><ele>115.0</ele><time>2026-05-04T11:10:55.64Z</time></trkpt><trkpt lat="42.4247843" lon="18.5083894"><ele>123.0</ele><time>2026-05-04T11:10:56.641Z</time></trkpt><trkpt lat="42.4248583" lon="18.5081373"><ele>131.0</ele><time>2026-05-04T11:10:57.641Z</time></trkpt><trkpt lat="42.4249368" lon="18.5078876"><ele>131.0</ele><time>2026-05-04T11:10:58.641Z</time></trkpt><trkpt lat="42.425006" lon="18.5076412"><ele>131.0</ele><time>2026-05-04T11:10:59.641Z</time></trkpt><trkpt lat="42.4250807" lon="18.5073885"><ele>131.0</ele><time>2026-05-04T11:11:00.641Z</time></trkpt><trkpt lat="42.4251548" lon="18.5071311"><ele>131.66666666666666</ele><time>2026-05-04T11:11:01.641Z</time></trkpt><trkpt lat="42.4252359" lon="18.5068503"><ele>132.33333333333334</ele><time>2026-05-04T11:11:02.64Z</time></trkpt><trkpt lat="42.425322" lon="18.5065717"><ele>133.0</ele><time>2026-05-04T11:11:03.641Z</time></trkpt><trkpt lat="42.4254065" lon="18.5063082"><ele>137.66666666666669</ele><time>2026-05-04T11:11:04.641Z</time></trkpt><trkpt lat="42.4254908" lon="18.506051"><ele>142.33333333333334</ele><time>2026-05-04T11:11:05.64Z</time></trkpt><trkpt lat="42.4255708" lon="18.5058051"><ele>147.0</ele><time>2026-05-04T11:11:06.641Z</time></trkpt><trkpt lat="42.4256473" lon="18.5055615"><ele>145.0</ele><time>2026-05-04T11:11:07.64Z</time></trkpt><trkpt lat="42.425723" lon="18.5053287"><ele>143.0</ele><time>2026-05-04T11:11:08.64Z</time></trkpt><trkpt lat="42.4257965" lon="18.5051038"><ele>141.0</ele><time>2026-05-04T11:11:09.64Z</time></trkpt><trkpt lat="42.4258713" lon="18.5048808"><ele>141.0</ele><time>2026-05-04T11:11:10.64Z</time></trkpt><trkpt lat="42.4259476" lon="18.5046539"><ele>141.0</ele><time>2026-05-04T11:11:11.641Z</time></trkpt><trkpt lat="42.4260242" lon="18.5044312"><ele>141.0</ele><time>2026-05-04T11:11:12.64Z</time></trkpt><trkpt lat="42.4261093" lon="18.5042146"><ele>141.33333333333334</ele><time>2026-05-04T11:11:13.64Z</time></trkpt><trkpt lat="42.4262103" lon="18.5039993"><ele>141.66666666666669</ele><time>2026-05-04T11:11:14.64Z</time></trkpt><trkpt lat="42.4263174" lon="18.5037811"><ele>142.0</ele><time>2026-05-04T11:11:15.641Z</time></trkpt><trkpt lat="42.4264352" lon="18.5035775"><ele>144.33333333333334</ele><time>2026-05-04T11:11:16.64Z</time></trkpt><trkpt lat="42.4265581" lon="18.50338"><ele>146.66666666666666</ele><time>2026-05-04T11:11:17.64Z</time></trkpt><trkpt lat="42.4266901" lon="18.5031847"><ele>149.0</ele><time>2026-05-04T11:11:18.64Z</time></trkpt><trkpt lat="42.4268266" lon="18.5029913"><ele>148.33333333333331</ele><time>2026-05-04T11:11:19.641Z</time></trkpt><trkpt lat="42.4269594" lon="18.5027876"><ele>147.66666666666666</ele><time>2026-05-04T11:11:20.641Z</time></trkpt><trkpt lat="42.4270871" lon="18.5025714"><ele>147.0</ele><time>2026-05-04T11:11:21.64Z</time></trkpt><trkpt lat="42.4272084" lon="18.5023468"><ele>149.66666666666666</ele><time>2026-05-04T11:11:22.641Z</time></trkpt><trkpt lat="42.4273184" lon="18.5021137"><ele>152.33333333333331</ele><time>2026-05-04T11:11:23.641Z</time></trkpt><trkpt lat="42.4274171" lon="18.5018763"><ele>155.0</ele><time>2026-05-04T11:11:24.641Z</time></trkpt><trkpt lat="42.4275037" lon="18.5016393"><ele>155.0</ele><time>2026-05-04T11:11:25.64Z</time></trkpt><trkpt lat="42.4275822" lon="18.5014007"><ele>155.0</ele><time>2026-05-04T11:11:26.64Z</time></trkpt><trkpt lat="42.4276594" lon="18.5011542"><ele>155.0</ele><time>2026-05-04T11:11:27.64Z</time></trkpt><trkpt lat="42.4277289" lon="18.5009035"><ele>153.66666666666666</ele><time>2026-05-04T11:11:28.641Z</time></trkpt><trkpt lat="42.4277993" lon="18.5006572"><ele>152.33333333333334</ele><time>2026-05-04T11:11:29.641Z</time></trkpt><trkpt lat="42.4278731" lon="18.500405"><ele>151.0</ele><time>2026-05-04T11:11:30.64Z</time></trkpt><trkpt lat="42.4279413" lon="18.5001425"><ele>151.66666666666669</ele><time>2026-05-04T11:11:31.64Z</time></trkpt><trkpt lat="42.4280145" lon="18.4998768"><ele>152.33333333333334</ele><time>2026-05-04T11:11:32.641Z</time></trkpt><trkpt lat="42.4280854" lon="18.4996078"><ele>153.0</ele><time>2026-05-04T11:11:33.641Z</time></trkpt><trkpt lat="42.4281629" lon="18.4993407"><ele>149.66666666666666</ele><time>2026-05-04T11:11:34.64Z</time></trkpt><trkpt lat="42.4282494" lon="18.4990707"><ele>146.33333333333331</ele><time>2026-05-04T11:11:35.641Z</time></trkpt><trkpt lat="42.4283478" lon="18.4988045"><ele>143.0</ele><time>2026-05-04T11:11:36.641Z</time></trkpt><trkpt lat="42.4284573" lon="18.4985455"><ele>141.66666666666666</ele><time>2026-05-04T11:11:37.64Z</time></trkpt><trkpt lat="42.4285834" lon="18.4983036"><ele>140.33333333333334</ele><time>2026-05-04T11:11:38.641Z</time></trkpt><trkpt lat="42.4287173" lon="18.4980571"><ele>139.0</ele><time>2026-05-04T11:11:39.641Z</time></trkpt><trkpt lat="42.4288671" lon="18.4978625"><ele>138.33333333333334</ele><time>2026-05-04T11:11:40.64Z</time></trkpt><trkpt lat="42.4290223" lon="18.4976517"><ele>137.66666666666666</ele><time>2026-05-04T11:11:41.641Z</time></trkpt><trkpt lat="42.429188" lon="18.4974672"><ele>137.0</ele><time>2026-05-04T11:11:42.641Z</time></trkpt><trkpt lat="42.429354" lon="18.4972765"><ele>137.0</ele><time>2026-05-04T11:11:43.64Z</time></trkpt><trkpt lat="42.4295199" lon="18.4970955"><ele>137.0</ele><time>2026-05-04T11:11:44.641Z</time></trkpt><trkpt lat="42.4296755" lon="18.4968994"><ele>137.0</ele><time>2026-05-04T11:11:45.641Z</time></trkpt><trkpt lat="42.4298196" lon="18.4966874"><ele>135.66666666666666</ele><time>2026-05-04T11:11:46.641Z</time></trkpt><trkpt lat="42.4299499" lon="18.4964554"><ele>134.33333333333334</ele><time>2026-05-04T11:11:47.64Z</time></trkpt><trkpt lat="42.4300665" lon="18.4962071"><ele>133.0</ele><time>2026-05-04T11:11:48.641Z</time></trkpt><trkpt lat="42.4301747" lon="18.4959464"><ele>131.33333333333334</ele><time>2026-05-04T11:11:49.641Z</time></trkpt><trkpt lat="42.4302805" lon="18.4956784"><ele>129.66666666666666</ele><time>2026-05-04T11:11:50.64Z</time></trkpt><trkpt lat="42.4303841" lon="18.4954096"><ele>128.0</ele><time>2026-05-04T11:11:51.641Z</time></trkpt><trkpt lat="42.430484" lon="18.4951456"><ele>127.66666666666666</ele><time>2026-05-04T11:11:52.641Z</time></trkpt><trkpt lat="42.4305814" lon="18.4949003"><ele>127.33333333333334</ele><time>2026-05-04T11:11:53.64Z</time></trkpt><trkpt lat="42.4306789" lon="18.4946636"><ele>127.0</ele><time>2026-05-04T11:11:54.64Z</time></trkpt><trkpt lat="42.4307838" lon="18.4944385"><ele>126.66666666666667</ele><time>2026-05-04T11:11:55.64Z</time></trkpt><trkpt lat="42.4309017" lon="18.4942248"><ele>126.33333333333334</ele><time>2026-05-04T11:11:56.64Z</time></trkpt><trkpt lat="42.4310534" lon="18.4940495"><ele>126.0</ele><time>2026-05-04T11:11:57.641Z</time></trkpt><trkpt lat="42.431216" lon="18.493876"><ele>125.33333333333334</ele><time>2026-05-04T11:11:58.641Z</time></trkpt><trkpt lat="42.4313866" lon="18.4937187"><ele>124.66666666666667</ele><time>2026-05-04T11:11:59.64Z</time></trkpt><trkpt lat="42.4315533" lon="18.493553"><ele>124.0</ele><time>2026-05-04T11:12:00.64Z</time></trkpt><trkpt lat="42.43171" lon="18.4933766"><ele>124.0</ele><time>2026-05-04T11:12:01.641Z</time></trkpt><trkpt lat="42.4318543" lon="18.4931786"><ele>124.0</ele><time>2026-05-04T11:12:02.641Z</time></trkpt><trkpt lat="42.4319822" lon="18.4929548"><ele>124.0</ele><time>2026-05-04T11:12:03.64Z</time></trkpt><trkpt lat="42.4321039" lon="18.4927141"><ele>124.33333333333334</ele><time>2026-05-04T11:12:04.64Z</time></trkpt><trkpt lat="42.4322206" lon="18.4924647"><ele>124.66666666666666</ele><time>2026-05-04T11:12:05.64Z</time></trkpt><trkpt lat="42.4323405" lon="18.4922159"><ele>125.0</ele><time>2026-05-04T11:12:06.641Z</time></trkpt><trkpt lat="42.4324748" lon="18.4919783"><ele>125.33333333333333</ele><time>2026-05-04T11:12:07.64Z</time></trkpt><trkpt lat="42.4326202" lon="18.4917639"><ele>125.66666666666666</ele><time>2026-05-04T11:12:08.64Z</time></trkpt><trkpt lat="42.4327679" lon="18.4915448"><ele>126.0</ele><time>2026-05-04T11:12:09.64Z</time></trkpt><trkpt lat="42.4329125" lon="18.4913137"><ele>126.0</ele><time>2026-05-04T11:12:10.64Z</time></trkpt><trkpt lat="42.433047" lon="18.4910765"><ele>126.0</ele><time>2026-05-04T11:12:11.641Z</time></trkpt><trkpt lat="42.4331681" lon="18.4908288"><ele>126.0</ele><time>2026-05-04T11:12:12.64Z</time></trkpt><trkpt lat="42.4332852" lon="18.4905806"><ele>126.0</ele><time>2026-05-04T11:12:13.641Z</time></trkpt><trkpt lat="42.4333984" lon="18.4903518"><ele>126.0</ele><time>2026-05-04T11:12:14.64Z</time></trkpt><trkpt lat="42.4335106" lon="18.4901317"><ele>126.0</ele><time>2026-05-04T11:12:15.641Z</time></trkpt><trkpt lat="42.4336187" lon="18.4899262"><ele>126.0</ele><time>2026-05-04T11:12:16.641Z</time></trkpt><trkpt lat="42.4337193" lon="18.4897133"><ele>126.0</ele><time>2026-05-04T11:12:17.641Z</time></trkpt><trkpt lat="42.4338043" lon="18.4894815"><ele>126.0</ele><time>2026-05-04T11:12:18.641Z</time></trkpt><trkpt lat="42.4338705" lon="18.489236"><ele>127.33333333333334</ele><time>2026-05-04T11:12:19.641Z</time></trkpt><trkpt lat="42.433921" lon="18.4889679"><ele>128.66666666666669</ele><time>2026-05-04T11:12:20.641Z</time></trkpt><trkpt lat="42.4339679" lon="18.4886992"><ele>130.0</ele><time>2026-05-04T11:12:21.641Z</time></trkpt><trkpt lat="42.4340186" lon="18.4884344"><ele>130.0</ele><time>2026-05-04T11:12:22.64Z</time></trkpt><trkpt lat="42.4340734" lon="18.4881713"><ele>130.0</ele><time>2026-05-04T11:12:23.641Z</time></trkpt><trkpt lat="42.4341288" lon="18.4879112"><ele>130.0</ele><time>2026-05-04T11:12:24.641Z</time></trkpt><trkpt lat="42.4341833" lon="18.4876601"><ele>130.0</ele><time>2026-05-04T11:12:25.641Z</time></trkpt><trkpt lat="42.434238" lon="18.4874272"><ele>130.0</ele><time>2026-05-04T11:12:26.64Z</time></trkpt><trkpt lat="42.4342921" lon="18.4872139"><ele>130.0</ele><time>2026-05-04T11:12:27.641Z</time></trkpt><trkpt lat="42.4343424" lon="18.4870135"><ele>130.25</ele><time>2026-05-04T11:12:28.64Z</time></trkpt><trkpt lat="42.4343954" lon="18.4868209"><ele>130.5</ele><time>2026-05-04T11:12:29.641Z</time></trkpt><trkpt lat="42.4344523" lon="18.4866371"><ele>130.75</ele><time>2026-05-04T11:12:30.64Z</time></trkpt><trkpt lat="42.4345222" lon="18.4864604"><ele>131.0</ele><time>2026-05-04T11:12:31.641Z</time></trkpt><trkpt lat="42.434609" lon="18.4862771"><ele>131.66666666666666</ele><time>2026-05-04T11:12:32.64Z</time></trkpt><trkpt lat="42.4347139" lon="18.4860875"><ele>132.33333333333334</ele><time>2026-05-04T11:12:33.641Z</time></trkpt><trkpt lat="42.4348233" lon="18.4859157"><ele>133.0</ele><time>2026-05-04T11:12:34.641Z</time></trkpt><trkpt lat="42.4349319" lon="18.4857625"><ele>133.0</ele><time>2026-05-04T11:12:35.64Z</time></trkpt><trkpt lat="42.4350437" lon="18.4856144"><ele>133.0</ele><time>2026-05-04T11:12:36.64Z</time></trkpt><trkpt lat="42.4351651" lon="18.4854773"><ele>133.0</ele><time>2026-05-04T11:12:37.64Z</time></trkpt><trkpt lat="42.4352948" lon="18.4853609"><ele>132.66666666666669</ele><time>2026-05-04T11:12:38.641Z</time></trkpt><trkpt lat="42.4354328" lon="18.4852622"><ele>132.33333333333334</ele><time>2026-05-04T11:12:39.641Z</time></trkpt><trkpt lat="42.435582" lon="18.4851802"><ele>132.0</ele><time>2026-05-04T11:12:40.641Z</time></trkpt><trkpt lat="42.4357546" lon="18.485102"><ele>132.0</ele><time>2026-05-04T11:12:41.64Z</time></trkpt><trkpt lat="42.4359303" lon="18.485018"><ele>132.0</ele><time>2026-05-04T11:12:42.641Z</time></trkpt><trkpt lat="42.4361788" lon="18.4849075"><ele>132.0</ele><time>2026-05-04T11:12:43.64Z</time></trkpt><trkpt lat="42.4364112" lon="18.4848173"><ele>136.0</ele><time>2026-05-04T11:12:44.641Z</time></trkpt><trkpt lat="42.4366546" lon="18.484723"><ele>140.0</ele><time>2026-05-04T11:12:45.64Z</time></trkpt><trkpt lat="42.4368928" lon="18.4846115"><ele>139.0</ele><time>2026-05-04T11:12:46.64Z</time></trkpt><trkpt lat="42.4371549" lon="18.4844613"><ele>138.0</ele><time>2026-05-04T11:12:47.64Z</time></trkpt><trkpt lat="42.4374277" lon="18.4842639"><ele>138.0</ele><time>2026-05-04T11:12:48.641Z</time></trkpt><trkpt lat="42.4376911" lon="18.4840857"><ele>138.0</ele><time>2026-05-04T11:12:49.64Z</time></trkpt><trkpt lat="42.437953" lon="18.48391"><ele>138.5</ele><time>2026-05-04T11:12:50.641Z</time></trkpt><trkpt lat="42.4382003" lon="18.483737"><ele>139.0</ele><time>2026-05-04T11:12:51.64Z</time></trkpt><trkpt lat="42.4384389" lon="18.4835644"><ele>139.0</ele><time>2026-05-04T11:12:52.641Z</time></trkpt><trkpt lat="42.4386808" lon="18.4834011"><ele>139.0</ele><time>2026-05-04T11:12:53.64Z</time></trkpt><trkpt lat="42.4389093" lon="18.4832427"><ele>141.5</ele><time>2026-05-04T11:12:54.641Z</time></trkpt><trkpt lat="42.4391367" lon="18.4830863"><ele>144.0</ele><time>2026-05-04T11:12:55.641Z</time></trkpt><trkpt lat="42.4393475" lon="18.482938"><ele>143.0</ele><time>2026-05-04T11:12:56.641Z</time></trkpt><trkpt lat="42.4395437" lon="18.4828033"><ele>142.0</ele><time>2026-05-04T11:12:57.641Z</time></trkpt><trkpt lat="42.4397085" lon="18.4826789"><ele>141.0</ele><time>2026-05-04T11:12:58.64Z</time></trkpt><trkpt lat="42.4398764" lon="18.4825574"><ele>143.33333333333334</ele><time>2026-05-04T11:12:59.64Z</time></trkpt><trkpt lat="42.4400422" lon="18.4824525"><ele>145.66666666666669</ele><time>2026-05-04T11:13:00.641Z</time></trkpt><trkpt lat="42.4401743" lon="18.482365"><ele>148.0</ele><time>2026-05-04T11:13:01.641Z</time></trkpt><trkpt lat="42.4403092" lon="18.4823011"><ele>148.0</ele><time>2026-05-04T11:13:02.64Z</time></trkpt><trkpt lat="42.440466" lon="18.4822434"><ele>148.0</ele><time>2026-05-04T11:13:03.64Z</time></trkpt><trkpt lat="42.440642" lon="18.4822366"><ele>148.0</ele><time>2026-05-04T11:13:04.641Z</time></trkpt><trkpt lat="42.4408133" lon="18.4822249"><ele>148.33333333333334</ele><time>2026-05-04T11:13:05.641Z</time></trkpt><trkpt lat="42.4409765" lon="18.4822291"><ele>148.66666666666666</ele><time>2026-05-04T11:13:06.641Z</time></trkpt><trkpt lat="42.4411359" lon="18.4822228"><ele>149.0</ele><time>2026-05-04T11:13:07.64Z</time></trkpt><trkpt lat="42.4412982" lon="18.4822099"><ele>149.0</ele><time>2026-05-04T11:13:08.64Z</time></trkpt><trkpt lat="42.4414502" lon="18.4821896"><ele>149.0</ele><time>2026-05-04T11:13:09.641Z</time></trkpt><trkpt lat="42.4415926" lon="18.4821496"><ele>149.0</ele><time>2026-05-04T11:13:10.641Z</time></trkpt><trkpt lat="42.441739" lon="18.4820767"><ele>149.0</ele><time>2026-05-04T11:13:11.64Z</time></trkpt><trkpt lat="42.441903" lon="18.4819751"><ele>149.0</ele><time>2026-05-04T11:13:12.64Z</time></trkpt><trkpt lat="42.442082" lon="18.4818293"><ele>149.0</ele><time>2026-05-04T11:13:13.64Z</time></trkpt><trkpt lat="42.44229" lon="18.4816916"><ele>142.0</ele><time>2026-05-04T11:13:14.641Z</time></trkpt><trkpt lat="42.4425158" lon="18.4815106"><ele>135.0</ele><time>2026-05-04T11:13:15.64Z</time></trkpt><trkpt lat="42.4427405" lon="18.4813456"><ele>135.5</ele><time>2026-05-04T11:13:16.641Z</time></trkpt><trkpt lat="42.4429657" lon="18.4811795"><ele>136.0</ele><time>2026-05-04T11:13:17.641Z</time></trkpt><trkpt lat="42.4431925" lon="18.4810043"><ele>136.0</ele><time>2026-05-04T11:13:18.64Z</time></trkpt><trkpt lat="42.4434153" lon="18.4808332"><ele>136.0</ele><time>2026-05-04T11:13:19.64Z</time></trkpt><trkpt lat="42.4436337" lon="18.4806684"><ele>138.5</ele><time>2026-05-04T11:13:20.64Z</time></trkpt><trkpt lat="42.4438427" lon="18.4805082"><ele>141.0</ele><time>2026-05-04T11:13:21.641Z</time></trkpt><trkpt lat="42.4440483" lon="18.4803526"><ele>141.0</ele><time>2026-05-04T11:13:22.64Z</time></trkpt><trkpt lat="42.4442493" lon="18.4802043"><ele>141.0</ele><time>2026-05-04T11:13:23.64Z</time></trkpt><trkpt lat="42.4444465" lon="18.4800549"><ele>133.66666666666666</ele><time>2026-05-04T11:13:24.641Z</time></trkpt><trkpt lat="42.4446427" lon="18.4799083"><ele>126.33333333333333</ele><time>2026-05-04T11:13:25.641Z</time></trkpt><trkpt lat="42.444838" lon="18.4797614"><ele>119.0</ele><time>2026-05-04T11:13:26.641Z</time></trkpt><trkpt lat="42.4450316" lon="18.4796195"><ele>120.0</ele><time>2026-05-04T11:13:27.641Z</time></trkpt><trkpt lat="42.4452232" lon="18.4794715"><ele>121.0</ele><time>2026-05-04T11:13:28.641Z</time></trkpt><trkpt lat="42.4454138" lon="18.4793268"><ele>122.0</ele><time>2026-05-04T11:13:29.641Z</time></trkpt><trkpt lat="42.4456068" lon="18.4791756"><ele>122.0</ele><time>2026-05-04T11:13:30.64Z</time></trkpt><trkpt lat="42.4457964" lon="18.4790194"><ele>122.0</ele><time>2026-05-04T11:13:31.641Z</time></trkpt><trkpt lat="42.4459803" lon="18.4788622"><ele>122.0</ele><time>2026-05-04T11:13:32.641Z</time></trkpt><trkpt lat="42.4461617" lon="18.4786971"><ele>121.66666666666666</ele><time>2026-05-04T11:13:33.641Z</time></trkpt><trkpt lat="42.4463402" lon="18.4785278"><ele>121.33333333333334</ele><time>2026-05-04T11:13:34.64Z</time></trkpt><trkpt lat="42.4465141" lon="18.4783506"><ele>121.0</ele><time>2026-05-04T11:13:35.641Z</time></trkpt><trkpt lat="42.4466838" lon="18.4781608"><ele>121.0</ele><time>2026-05-04T11:13:36.641Z</time></trkpt><trkpt lat="42.4468526" lon="18.4779566"><ele>121.0</ele><time>2026-05-04T11:13:37.64Z</time></trkpt><trkpt lat="42.4470233" lon="18.4777347"><ele>121.0</ele><time>2026-05-04T11:13:38.64Z</time></trkpt><trkpt lat="42.4471918" lon="18.4775052"><ele>121.0</ele><time>2026-05-04T11:13:39.641Z</time></trkpt><trkpt lat="42.4473568" lon="18.4772737"><ele>128.0</ele><time>2026-05-04T11:13:40.641Z</time></trkpt><trkpt lat="42.4475188" lon="18.4770368"><ele>135.0</ele><time>2026-05-04T11:13:41.64Z</time></trkpt><trkpt lat="42.4476808" lon="18.4768026"><ele>135.0</ele><time>2026-05-04T11:13:42.641Z</time></trkpt><trkpt lat="42.4478435" lon="18.4765703"><ele>135.0</ele><time>2026-05-04T11:13:43.641Z</time></trkpt><trkpt lat="42.4480052" lon="18.4763379"><ele>131.5</ele><time>2026-05-04T11:13:44.64Z</time></trkpt><trkpt lat="42.4481662" lon="18.4761069"><ele>128.0</ele><time>2026-05-04T11:13:45.64Z</time></trkpt><trkpt lat="42.4483429" lon="18.4758258"><ele>128.0</ele><time>2026-05-04T11:13:46.64Z</time></trkpt><trkpt lat="42.4485048" lon="18.4755956"><ele>128.0</ele><time>2026-05-04T11:13:47.641Z</time></trkpt><trkpt lat="42.4486672" lon="18.4753708"><ele>125.5</ele><time>2026-05-04T11:13:48.641Z</time></trkpt><trkpt lat="42.4488344" lon="18.4751599"><ele>123.0</ele><time>2026-05-04T11:13:49.64Z</time></trkpt><trkpt lat="42.4489989" lon="18.4749581"><ele>123.0</ele><time>2026-05-04T11:13:50.64Z</time></trkpt><trkpt lat="42.4491579" lon="18.4747732"><ele>123.0</ele><time>2026-05-04T11:13:51.641Z</time></trkpt><trkpt lat="42.4493081" lon="18.4746041"><ele>123.0</ele><time>2026-05-04T11:13:52.64Z</time></trkpt><trkpt lat="42.4494581" lon="18.4744416"><ele>123.66666666666666</ele><time>2026-05-04T11:13:53.64Z</time></trkpt><trkpt lat="42.4496183" lon="18.474291"><ele>124.33333333333333</ele><time>2026-05-04T11:13:54.641Z</time></trkpt><trkpt lat="42.4497981" lon="18.4741445"><ele>125.0</ele><time>2026-05-04T11:13:55.64Z</time></trkpt><trkpt lat="42.4499717" lon="18.4740155"><ele>125.0</ele><time>2026-05-04T11:13:56.64Z</time></trkpt><trkpt lat="42.4501516" lon="18.4739026"><ele>125.0</ele><time>2026-05-04T11:13:57.64Z</time></trkpt><trkpt lat="42.4503239" lon="18.4737818"><ele>125.0</ele><time>2026-05-04T11:13:58.64Z</time></trkpt><trkpt lat="42.4504894" lon="18.4736469"><ele>127.0</ele><time>2026-05-04T11:13:59.641Z</time></trkpt><trkpt lat="42.4506546" lon="18.4735006"><ele>129.0</ele><time>2026-05-04T11:14:00.641Z</time></trkpt><trkpt lat="42.4508085" lon="18.4733358"><ele>131.0</ele><time>2026-05-04T11:14:01.64Z</time></trkpt><trkpt lat="42.4509695" lon="18.4731458"><ele>131.0</ele><time>2026-05-04T11:14:02.641Z</time></trkpt><trkpt lat="42.4511113" lon="18.4729453"><ele>131.0</ele><time>2026-05-04T11:14:03.641Z</time></trkpt><trkpt lat="42.4512482" lon="18.472757"><ele>131.0</ele><time>2026-05-04T11:14:04.641Z</time></trkpt><trkpt lat="42.4513814" lon="18.4725684"><ele>133.33333333333331</ele><time>2026-05-04T11:14:05.641Z</time></trkpt><trkpt lat="42.4515175" lon="18.4724064"><ele>135.66666666666666</ele><time>2026-05-04T11:14:06.641Z</time></trkpt><trkpt lat="42.4516722" lon="18.4722411"><ele>138.0</ele><time>2026-05-04T11:14:07.641Z</time></trkpt><trkpt lat="42.4518403" lon="18.4720796"><ele>140.33333333333334</ele><time>2026-05-04T11:14:08.641Z</time></trkpt><trkpt lat="42.4520158" lon="18.4719001"><ele>142.66666666666669</ele><time>2026-05-04T11:14:09.641Z</time></trkpt><trkpt lat="42.4521894" lon="18.4716995"><ele>145.0</ele><time>2026-05-04T11:14:10.641Z</time></trkpt><trkpt lat="42.4523564" lon="18.471519"><ele>145.0</ele><time>2026-05-04T11:14:11.641Z</time></trkpt><trkpt lat="42.4525231" lon="18.4713212"><ele>145.0</ele><time>2026-05-04T11:14:12.641Z</time></trkpt><trkpt lat="42.452689" lon="18.4711306"><ele>145.0</ele><time>2026-05-04T11:14:13.64Z</time></trkpt><trkpt lat="42.4528504" lon="18.4709526"><ele>148.33333333333334</ele><time>2026-05-04T11:14:14.64Z</time></trkpt><trkpt lat="42.4530099" lon="18.4707742"><ele>151.66666666666666</ele><time>2026-05-04T11:14:15.641Z</time></trkpt><trkpt lat="42.453166" lon="18.4706504"><ele>155.0</ele><time>2026-05-04T11:14:16.641Z</time></trkpt><trkpt lat="42.4533268" lon="18.4705375"><ele>155.0</ele><time>2026-05-04T11:14:17.64Z</time></trkpt><trkpt lat="42.4534949" lon="18.470449"><ele>155.0</ele><time>2026-05-04T11:14:18.64Z</time></trkpt><trkpt lat="42.4536758" lon="18.4703621"><ele>155.0</ele><time>2026-05-04T11:14:19.641Z</time></trkpt><trkpt lat="42.4538603" lon="18.4702849"><ele>162.66666666666666</ele><time>2026-05-04T11:14:20.641Z</time></trkpt><trkpt lat="42.4540487" lon="18.4702083"><ele>170.33333333333334</ele><time>2026-05-04T11:14:21.641Z</time></trkpt><trkpt lat="42.4542395" lon="18.4701358"><ele>178.0</ele><time>2026-05-04T11:14:22.64Z</time></trkpt><trkpt lat="42.4544283" lon="18.4700587"><ele>178.0</ele><time>2026-05-04T11:14:23.641Z</time></trkpt><trkpt lat="42.4546188" lon="18.4699935"><ele>178.0</ele><time>2026-05-04T11:14:24.641Z</time></trkpt><trkpt lat="42.4548152" lon="18.469908"><ele>178.0</ele><time>2026-05-04T11:14:25.641Z</time></trkpt><trkpt lat="42.4550166" lon="18.4698286"><ele>179.0</ele><time>2026-05-04T11:14:26.64Z</time></trkpt><trkpt lat="42.4552073" lon="18.4697453"><ele>180.0</ele><time>2026-05-04T11:14:27.64Z</time></trkpt><trkpt lat="42.4553823" lon="18.4696658"><ele>181.0</ele><time>2026-05-04T11:14:28.64Z</time></trkpt><trkpt lat="42.4555401" lon="18.4695688"><ele>187.0</ele><time>2026-05-04T11:14:29.64Z</time></trkpt><trkpt lat="42.4556825" lon="18.4694436"><ele>193.0</ele><time>2026-05-04T11:14:30.64Z</time></trkpt><trkpt lat="42.4558125" lon="18.4692914"><ele>199.0</ele><time>2026-05-04T11:14:31.64Z</time></trkpt><trkpt lat="42.4559263" lon="18.4691083"><ele>199.0</ele><time>2026-05-04T11:14:32.64Z</time></trkpt><trkpt lat="42.4560303" lon="18.4689027"><ele>199.0</ele><time>2026-05-04T11:14:33.64Z</time></trkpt><trkpt lat="42.4561202" lon="18.4686963"><ele>199.0</ele><time>2026-05-04T11:14:34.64Z</time></trkpt><trkpt lat="42.4561909" lon="18.4685015"><ele>201.0</ele><time>2026-05-04T11:14:35.641Z</time></trkpt><trkpt lat="42.4562375" lon="18.46832"><ele>203.0</ele><time>2026-05-04T11:14:36.641Z</time></trkpt><trkpt lat="42.4562602" lon="18.4681197"><ele>205.0</ele><time>2026-05-04T11:14:37.64Z</time></trkpt><trkpt lat="42.4562653" lon="18.467901"><ele>207.66666666666666</ele><time>2026-05-04T11:14:38.641Z</time></trkpt><trkpt lat="42.4562622" lon="18.4676594"><ele>210.33333333333331</ele><time>2026-05-04T11:14:39.64Z</time></trkpt><trkpt lat="42.4562571" lon="18.4674079"><ele>213.0</ele><time>2026-05-04T11:14:40.641Z</time></trkpt><trkpt lat="42.4562626" lon="18.4671761"><ele>211.66666666666669</ele><time>2026-05-04T11:14:41.641Z</time></trkpt><trkpt lat="42.4562755" lon="18.4669628"><ele>210.33333333333334</ele><time>2026-05-04T11:14:42.64Z</time></trkpt><trkpt lat="42.4563127" lon="18.4667493"><ele>209.0</ele><time>2026-05-04T11:14:43.641Z</time></trkpt><trkpt lat="42.456373" lon="18.4665462"><ele>209.0</ele><time>2026-05-04T11:14:44.64Z</time></trkpt><trkpt lat="42.4564451" lon="18.4663559"><ele>209.0</ele><time>2026-05-04T11:14:45.641Z</time></trkpt><trkpt lat="42.4565346" lon="18.4661801"><ele>209.0</ele><time>2026-05-04T11:14:46.641Z</time></trkpt><trkpt lat="42.4566234" lon="18.4660071"><ele>210.33333333333334</ele><time>2026-05-04T11:14:47.64Z</time></trkpt><trkpt lat="42.4567366" lon="18.4658488"><ele>211.66666666666669</ele><time>2026-05-04T11:14:48.64Z</time></trkpt><trkpt lat="42.4568732" lon="18.4656849"><ele>213.0</ele><time>2026-05-04T11:14:49.64Z</time></trkpt><trkpt lat="42.4570286" lon="18.4655043"><ele>212.0</ele><time>2026-05-04T11:14:50.641Z</time></trkpt><trkpt lat="42.4571824" lon="18.4653227"><ele>211.0</ele><time>2026-05-04T11:14:51.64Z</time></trkpt><trkpt lat="42.4573743" lon="18.4651135"><ele>211.0</ele><time>2026-05-04T11:14:52.64Z</time></trkpt><trkpt lat="42.4575759" lon="18.4649037"><ele>211.0</ele><time>2026-05-04T11:14:53.641Z</time></trkpt><trkpt lat="42.4577723" lon="18.4646938"><ele>209.5</ele><time>2026-05-04T11:14:54.64Z</time></trkpt><trkpt lat="42.4579636" lon="18.4644866"><ele>208.0</ele><time>2026-05-04T11:14:55.64Z</time></trkpt><trkpt lat="42.4581494" lon="18.4642797"><ele>208.0</ele><time>2026-05-04T11:14:56.64Z</time></trkpt><trkpt lat="42.4583296" lon="18.4640796"><ele>208.0</ele><time>2026-05-04T11:14:57.64Z</time></trkpt><trkpt lat="42.4585045" lon="18.4638872"><ele>207.33333333333331</ele><time>2026-05-04T11:14:58.641Z</time></trkpt><trkpt lat="42.458677" lon="18.4637032"><ele>206.66666666666669</ele><time>2026-05-04T11:14:59.641Z</time></trkpt><trkpt lat="42.4588428" lon="18.4635233"><ele>206.0</ele><time>2026-05-04T11:15:00.64Z</time></trkpt><trkpt lat="42.4590165" lon="18.4633379"><ele>206.0</ele><time>2026-05-04T11:15:01.641Z</time></trkpt><trkpt lat="42.4591831" lon="18.4631625"><ele>206.0</ele><time>2026-05-04T11:15:02.64Z</time></trkpt><trkpt lat="42.4593505" lon="18.4629832"><ele>206.0</ele><time>2026-05-04T11:15:03.641Z</time></trkpt><trkpt lat="42.4595171" lon="18.4628026"><ele>205.66666666666669</ele><time>2026-05-04T11:15:04.64Z</time></trkpt><trkpt lat="42.459679" lon="18.462623"><ele>205.33333333333331</ele><time>2026-05-04T11:15:05.64Z</time></trkpt><trkpt lat="42.4598415" lon="18.4624372"><ele>205.0</ele><time>2026-05-04T11:15:06.64Z</time></trkpt><trkpt lat="42.4599959" lon="18.4622469"><ele>208.33333333333331</ele><time>2026-05-04T11:15:07.64Z</time></trkpt><trkpt lat="42.4601483" lon="18.4620524"><ele>211.66666666666669</ele><time>2026-05-04T11:15:08.64Z</time></trkpt><trkpt lat="42.4602948" lon="18.4618501"><ele>215.0</ele><time>2026-05-04T11:15:09.641Z</time></trkpt><trkpt lat="42.4604372" lon="18.4616403"><ele>213.66666666666669</ele><time>2026-05-04T11:15:10.64Z</time></trkpt><trkpt lat="42.4605799" lon="18.4614261"><ele>212.33333333333331</ele><time>2026-05-04T11:15:11.64Z</time></trkpt><trkpt lat="42.4607206" lon="18.461216"><ele>211.0</ele><time>2026-05-04T11:15:12.64Z</time></trkpt><trkpt lat="42.4608613" lon="18.4610067"><ele>211.0</ele><time>2026-05-04T11:15:13.641Z</time></trkpt><trkpt lat="42.4609969" lon="18.4607926"><ele>211.0</ele><time>2026-05-04T11:15:14.64Z</time></trkpt><trkpt lat="42.4611318" lon="18.4605854"><ele>211.0</ele><time>2026-05-04T11:15:15.64Z</time></trkpt><trkpt lat="42.4612657" lon="18.4603852"><ele>209.33333333333331</ele><time>2026-05-04T11:15:16.64Z</time></trkpt><trkpt lat="42.4614061" lon="18.4601877"><ele>207.66666666666669</ele><time>2026-05-04T11:15:17.64Z</time></trkpt><trkpt lat="42.4615492" lon="18.4599997"><ele>206.0</ele><time>2026-05-04T11:15:18.64Z</time></trkpt><trkpt lat="42.4616919" lon="18.4598134"><ele>206.0</ele><time>2026-05-04T11:15:19.641Z</time></trkpt><trkpt lat="42.461828" lon="18.4596428"><ele>206.0</ele><time>2026-05-04T11:15:20.641Z</time></trkpt><trkpt lat="42.4619675" lon="18.4594942"><ele>206.0</ele><time>2026-05-04T11:15:21.641Z</time></trkpt><trkpt lat="42.4621127" lon="18.4593594"><ele>205.0</ele><time>2026-05-04T11:15:22.641Z</time></trkpt><trkpt lat="42.4622699" lon="18.4592466"><ele>204.0</ele><time>2026-05-04T11:15:23.641Z</time></trkpt><trkpt lat="42.4624328" lon="18.4591381"><ele>203.0</ele><time>2026-05-04T11:15:24.641Z</time></trkpt><trkpt lat="42.4626001" lon="18.4590275"><ele>203.0</ele><time>2026-05-04T11:15:25.641Z</time></trkpt><trkpt lat="42.4627658" lon="18.458911"><ele>203.0</ele><time>2026-05-04T11:15:26.64Z</time></trkpt><trkpt lat="42.4629303" lon="18.4587773"><ele>203.0</ele><time>2026-05-04T11:15:27.64Z</time></trkpt><trkpt lat="42.463091" lon="18.458621"><ele>203.0</ele><time>2026-05-04T11:15:28.641Z</time></trkpt><trkpt lat="42.463249" lon="18.4584509"><ele>203.0</ele><time>2026-05-04T11:15:29.64Z</time></trkpt><trkpt lat="42.4634116" lon="18.4582748"><ele>203.0</ele><time>2026-05-04T11:15:30.64Z</time></trkpt><trkpt lat="42.4635752" lon="18.4580956"><ele>202.66666666666669</ele><time>2026-05-04T11:15:31.641Z</time></trkpt><trkpt lat="42.4637356" lon="18.4579169"><ele>202.33333333333331</ele><time>2026-05-04T11:15:32.64Z</time></trkpt><trkpt lat="42.4638936" lon="18.4577328"><ele>202.0</ele><time>2026-05-04T11:15:33.64Z</time></trkpt><trkpt lat="42.4640463" lon="18.4575377"><ele>202.0</ele><time>2026-05-04T11:15:34.64Z</time></trkpt><trkpt lat="42.4641934" lon="18.4573322"><ele>202.0</ele><time>2026-05-04T11:15:35.641Z</time></trkpt><trkpt lat="42.4643404" lon="18.4571182"><ele>202.0</ele><time>2026-05-04T11:15:36.64Z</time></trkpt><trkpt lat="42.4644828" lon="18.4569088"><ele>201.0</ele><time>2026-05-04T11:15:37.641Z</time></trkpt><trkpt lat="42.4646214" lon="18.4566972"><ele>200.0</ele><time>2026-05-04T11:15:38.64Z</time></trkpt><trkpt lat="42.4647561" lon="18.4564818"><ele>199.0</ele><time>2026-05-04T11:15:39.641Z</time></trkpt><trkpt lat="42.4648885" lon="18.4562664"><ele>201.66666666666666</ele><time>2026-05-04T11:15:40.64Z</time></trkpt><trkpt lat="42.4650197" lon="18.4560511"><ele>204.33333333333331</ele><time>2026-05-04T11:15:41.641Z</time></trkpt><trkpt lat="42.4651522" lon="18.4558381"><ele>207.0</ele><time>2026-05-04T11:15:42.641Z</time></trkpt><trkpt lat="42.4652848" lon="18.4556176"><ele>207.0</ele><time>2026-05-04T11:15:43.64Z</time></trkpt><trkpt lat="42.4654162" lon="18.4554176"><ele>207.0</ele><time>2026-05-04T11:15:44.641Z</time></trkpt><trkpt lat="42.4655467" lon="18.4552173"><ele>207.0</ele><time>2026-05-04T11:15:45.641Z</time></trkpt><trkpt lat="42.4656786" lon="18.4550135"><ele>207.0</ele><time>2026-05-04T11:15:46.64Z</time></trkpt><trkpt lat="42.4658132" lon="18.4548103"><ele>207.0</ele><time>2026-05-04T11:15:47.641Z</time></trkpt><trkpt lat="42.4659479" lon="18.4545966"><ele>207.0</ele><time>2026-05-04T11:15:48.641Z</time></trkpt><trkpt lat="42.4660785" lon="18.4543824"><ele>207.0</ele><time>2026-05-04T11:15:49.641Z</time></trkpt><trkpt lat="42.4662124" lon="18.454155"><ele>207.0</ele><time>2026-05-04T11:15:50.64Z</time></trkpt><trkpt lat="42.466355" lon="18.4539239"><ele>207.0</ele><time>2026-05-04T11:15:51.641Z</time></trkpt><trkpt lat="42.4664971" lon="18.453697"><ele>209.66666666666669</ele><time>2026-05-04T11:15:52.64Z</time></trkpt><trkpt lat="42.4666364" lon="18.4534734"><ele>212.33333333333334</ele><time>2026-05-04T11:15:53.641Z</time></trkpt><trkpt lat="42.4667717" lon="18.4532528"><ele>215.0</ele><time>2026-05-04T11:15:54.64Z</time></trkpt><trkpt lat="42.4669098" lon="18.4530367"><ele>215.33333333333334</ele><time>2026-05-04T11:15:55.641Z</time></trkpt><trkpt lat="42.4670474" lon="18.4528128"><ele>215.66666666666669</ele><time>2026-05-04T11:15:56.64Z</time></trkpt><trkpt lat="42.4671744" lon="18.4526007"><ele>216.0</ele><time>2026-05-04T11:15:57.64Z</time></trkpt><trkpt lat="42.4672964" lon="18.4524013"><ele>216.0</ele><time>2026-05-04T11:15:58.641Z</time></trkpt><trkpt lat="42.4674496" lon="18.4522183"><ele>216.0</ele><time>2026-05-04T11:15:59.641Z</time></trkpt><trkpt lat="42.4676028" lon="18.4520456"><ele>216.0</ele><time>2026-05-04T11:16:00.641Z</time></trkpt><trkpt lat="42.4677594" lon="18.4518791"><ele>219.0</ele><time>2026-05-04T11:16:01.641Z</time></trkpt><trkpt lat="42.4679294" lon="18.4517225"><ele>222.0</ele><time>2026-05-04T11:16:02.641Z</time></trkpt><trkpt lat="42.4681061" lon="18.4515802"><ele>225.0</ele><time>2026-05-04T11:16:03.641Z</time></trkpt><trkpt lat="42.4682814" lon="18.4514585"><ele>225.0</ele><time>2026-05-04T11:16:04.641Z</time></trkpt><trkpt lat="42.4684519" lon="18.4513388"><ele>225.0</ele><time>2026-05-04T11:16:05.641Z</time></trkpt><trkpt lat="42.4686143" lon="18.4512172"><ele>225.0</ele><time>2026-05-04T11:16:06.641Z</time></trkpt><trkpt lat="42.4687739" lon="18.4510851"><ele>228.0</ele><time>2026-05-04T11:16:07.641Z</time></trkpt><trkpt lat="42.4689165" lon="18.4509697"><ele>231.0</ele><time>2026-05-04T11:16:08.64Z</time></trkpt><trkpt lat="42.4690435" lon="18.4508492"><ele>234.0</ele><time>2026-05-04T11:16:09.641Z</time></trkpt><trkpt lat="42.4691541" lon="18.4507374"><ele>234.0</ele><time>2026-05-04T11:16:10.64Z</time></trkpt><trkpt lat="42.4692502" lon="18.4506031"><ele>234.0</ele><time>2026-05-04T11:16:11.641Z</time></trkpt><trkpt lat="42.4693315" lon="18.4504475"><ele>234.0</ele><time>2026-05-04T11:16:12.641Z</time></trkpt><trkpt lat="42.4694048" lon="18.4502546"><ele>234.0</ele><time>2026-05-04T11:16:13.641Z</time></trkpt><trkpt lat="42.4694657" lon="18.4500514"><ele>235.0</ele><time>2026-05-04T11:16:14.64Z</time></trkpt><trkpt lat="42.4695266" lon="18.4498339"><ele>236.0</ele><time>2026-05-04T11:16:15.641Z</time></trkpt><trkpt lat="42.4695833" lon="18.4496165"><ele>237.0</ele><time>2026-05-04T11:16:16.64Z</time></trkpt><trkpt lat="42.4696472" lon="18.4494181"><ele>234.33333333333331</ele><time>2026-05-04T11:16:17.641Z</time></trkpt><trkpt lat="42.4697135" lon="18.4492384"><ele>231.66666666666666</ele><time>2026-05-04T11:16:18.641Z</time></trkpt><trkpt lat="42.469808" lon="18.4490677"><ele>229.0</ele><time>2026-05-04T11:16:19.641Z</time></trkpt><trkpt lat="42.4699309" lon="18.448907"><ele>230.33333333333331</ele><time>2026-05-04T11:16:20.64Z</time></trkpt><trkpt lat="42.47007" lon="18.4487525"><ele>231.66666666666669</ele><time>2026-05-04T11:16:21.64Z</time></trkpt><trkpt lat="42.4702155" lon="18.4486017"><ele>233.0</ele><time>2026-05-04T11:16:22.641Z</time></trkpt><trkpt lat="42.4703567" lon="18.448439"><ele>228.0</ele><time>2026-05-04T11:16:23.641Z</time></trkpt><trkpt lat="42.4704897" lon="18.4482539"><ele>223.0</ele><time>2026-05-04T11:16:24.64Z</time></trkpt><trkpt lat="42.470616" lon="18.4480526"><ele>218.0</ele><time>2026-05-04T11:16:25.641Z</time></trkpt><trkpt lat="42.4707367" lon="18.447838"><ele>217.33333333333334</ele><time>2026-05-04T11:16:26.64Z</time></trkpt><trkpt lat="42.4708587" lon="18.4476149"><ele>216.66666666666669</ele><time>2026-05-04T11:16:27.64Z</time></trkpt><trkpt lat="42.4709786" lon="18.4473847"><ele>216.0</ele><time>2026-05-04T11:16:28.641Z</time></trkpt><trkpt lat="42.4710978" lon="18.4471474"><ele>217.33333333333331</ele><time>2026-05-04T11:16:29.64Z</time></trkpt><trkpt lat="42.4712129" lon="18.446903"><ele>218.66666666666666</ele><time>2026-05-04T11:16:30.641Z</time></trkpt><trkpt lat="42.4713226" lon="18.4466617"><ele>220.0</ele><time>2026-05-04T11:16:31.64Z</time></trkpt><trkpt lat="42.4714218" lon="18.4464296"><ele>213.33333333333331</ele><time>2026-05-04T11:16:32.64Z</time></trkpt><trkpt lat="42.4715048" lon="18.4462228"><ele>206.66666666666669</ele><time>2026-05-04T11:16:33.641Z</time></trkpt><trkpt lat="42.471577" lon="18.4460197"><ele>200.0</ele><time>2026-05-04T11:16:34.641Z</time></trkpt><trkpt lat="42.4716258" lon="18.4458095"><ele>200.0</ele><time>2026-05-04T11:16:35.641Z</time></trkpt><trkpt lat="42.4716489" lon="18.4455876"><ele>200.0</ele><time>2026-05-04T11:16:36.64Z</time></trkpt><trkpt lat="42.4716553" lon="18.4453568"><ele>200.0</ele><time>2026-05-04T11:16:37.64Z</time></trkpt><trkpt lat="42.4716417" lon="18.4451124"><ele>198.33333333333334</ele><time>2026-05-04T11:16:38.64Z</time></trkpt><trkpt lat="42.4716093" lon="18.4448626"><ele>196.66666666666669</ele><time>2026-05-04T11:16:39.641Z</time></trkpt><trkpt lat="42.4715666" lon="18.4446158"><ele>195.0</ele><time>2026-05-04T11:16:40.64Z</time></trkpt><trkpt lat="42.4715334" lon="18.4443554"><ele>192.33333333333334</ele><time>2026-05-04T11:16:41.641Z</time></trkpt><trkpt lat="42.4715003" lon="18.4440883"><ele>189.66666666666669</ele><time>2026-05-04T11:16:42.641Z</time></trkpt><trkpt lat="42.4714788" lon="18.4438246"><ele>187.0</ele><time>2026-05-04T11:16:43.64Z</time></trkpt><trkpt lat="42.4714694" lon="18.4435721"><ele>186.0</ele><time>2026-05-04T11:16:44.641Z</time></trkpt><trkpt lat="42.4714696" lon="18.4433282"><ele>185.0</ele><time>2026-05-04T11:16:45.641Z</time></trkpt><trkpt lat="42.4714919" lon="18.4430958"><ele>184.0</ele><time>2026-05-04T11:16:46.641Z</time></trkpt><trkpt lat="42.4715322" lon="18.4428784"><ele>184.0</ele><time>2026-05-04T11:16:47.641Z</time></trkpt><trkpt lat="42.4715891" lon="18.4426756"><ele>184.0</ele><time>2026-05-04T11:16:48.641Z</time></trkpt><trkpt lat="42.4716541" lon="18.4424949"><ele>184.0</ele><time>2026-05-04T11:16:49.641Z</time></trkpt><trkpt lat="42.4717448" lon="18.442321"><ele>184.0</ele><time>2026-05-04T11:16:50.641Z</time></trkpt><trkpt lat="42.4718408" lon="18.4421698"><ele>184.0</ele><time>2026-05-04T11:16:51.64Z</time></trkpt><trkpt lat="42.4719534" lon="18.4420531"><ele>184.0</ele><time>2026-05-04T11:16:52.64Z</time></trkpt><trkpt lat="42.4720851" lon="18.441959"><ele>184.0</ele><time>2026-05-04T11:16:53.641Z</time></trkpt><trkpt lat="42.4722371" lon="18.4418983"><ele>182.66666666666669</ele><time>2026-05-04T11:16:54.64Z</time></trkpt><trkpt lat="42.4724005" lon="18.4418509"><ele>181.33333333333334</ele><time>2026-05-04T11:16:55.641Z</time></trkpt><trkpt lat="42.4725698" lon="18.4417992"><ele>180.0</ele><time>2026-05-04T11:16:56.64Z</time></trkpt><trkpt lat="42.472731" lon="18.4417441"><ele>180.0</ele><time>2026-05-04T11:16:57.64Z</time></trkpt><trkpt lat="42.4728802" lon="18.4416605"><ele>180.0</ele><time>2026-05-04T11:16:58.641Z</time></trkpt><trkpt lat="42.4730217" lon="18.441549"><ele>180.0</ele><time>2026-05-04T11:16:59.641Z</time></trkpt><trkpt lat="42.4731534" lon="18.4414079"><ele>177.0</ele><time>2026-05-04T11:17:00.641Z</time></trkpt><trkpt lat="42.4732724" lon="18.4412378"><ele>174.0</ele><time>2026-05-04T11:17:01.641Z</time></trkpt><trkpt lat="42.4733738" lon="18.4410406"><ele>171.0</ele><time>2026-05-04T11:17:02.641Z</time></trkpt><trkpt lat="42.4734706" lon="18.440808"><ele>171.0</ele><time>2026-05-04T11:17:03.64Z</time></trkpt><trkpt lat="42.4735692" lon="18.4405439"><ele>171.0</ele><time>2026-05-04T11:17:04.641Z</time></trkpt><trkpt lat="42.4736703" lon="18.4402663"><ele>171.0</ele><time>2026-05-04T11:17:05.64Z</time></trkpt><trkpt lat="42.4737765" lon="18.4399649"><ele>164.0</ele><time>2026-05-04T11:17:06.64Z</time></trkpt><trkpt lat="42.4738762" lon="18.4396413"><ele>157.0</ele><time>2026-05-04T11:17:07.641Z</time></trkpt><trkpt lat="42.4739631" lon="18.4392988"><ele>157.0</ele><time>2026-05-04T11:17:08.641Z</time></trkpt><trkpt lat="42.4740356" lon="18.4389541"><ele>157.0</ele><time>2026-05-04T11:17:09.641Z</time></trkpt><trkpt lat="42.4741004" lon="18.4386213"><ele>158.5</ele><time>2026-05-04T11:17:10.64Z</time></trkpt><trkpt lat="42.4741595" lon="18.438311"><ele>160.0</ele><time>2026-05-04T11:17:11.641Z</time></trkpt><trkpt lat="42.4742177" lon="18.4380233"><ele>160.33333333333334</ele><time>2026-05-04T11:17:12.641Z</time></trkpt><trkpt lat="42.4742728" lon="18.4377617"><ele>160.66666666666666</ele><time>2026-05-04T11:17:13.64Z</time></trkpt><trkpt lat="42.4743334" lon="18.4375273"><ele>161.0</ele><time>2026-05-04T11:17:14.64Z</time></trkpt><trkpt lat="42.4744148" lon="18.4373112"><ele>162.0</ele><time>2026-05-04T11:17:15.64Z</time></trkpt><trkpt lat="42.474525" lon="18.4371286"><ele>163.0</ele><time>2026-05-04T11:17:16.641Z</time></trkpt><trkpt lat="42.4746608" lon="18.4369662"><ele>164.0</ele><time>2026-05-04T11:17:17.641Z</time></trkpt><trkpt lat="42.4748053" lon="18.4368127"><ele>162.0</ele><time>2026-05-04T11:17:18.641Z</time></trkpt><trkpt lat="42.474934" lon="18.4366388"><ele>160.0</ele><time>2026-05-04T11:17:19.64Z</time></trkpt><trkpt lat="42.4750338" lon="18.4364383"><ele>158.0</ele><time>2026-05-04T11:17:20.641Z</time></trkpt><trkpt lat="42.4751088" lon="18.4362021"><ele>158.0</ele><time>2026-05-04T11:17:21.64Z</time></trkpt><trkpt lat="42.4751664" lon="18.4359402"><ele>158.0</ele><time>2026-05-04T11:17:22.641Z</time></trkpt><trkpt lat="42.4752225" lon="18.4356752"><ele>158.0</ele><time>2026-05-04T11:17:23.641Z</time></trkpt><trkpt lat="42.4752971" lon="18.4354121"><ele>158.66666666666666</ele><time>2026-05-04T11:17:24.641Z</time></trkpt><trkpt lat="42.4753886" lon="18.4351512"><ele>159.33333333333334</ele><time>2026-05-04T11:17:25.641Z</time></trkpt><trkpt lat="42.4754826" lon="18.4348937"><ele>160.0</ele><time>2026-05-04T11:17:26.64Z</time></trkpt><trkpt lat="42.475579" lon="18.434643"><ele>158.0</ele><time>2026-05-04T11:17:27.641Z</time></trkpt><trkpt lat="42.4756995" lon="18.4344155"><ele>156.0</ele><time>2026-05-04T11:17:28.641Z</time></trkpt><trkpt lat="42.4758035" lon="18.4342022"><ele>154.0</ele><time>2026-05-04T11:17:29.64Z</time></trkpt><trkpt lat="42.4759138" lon="18.4340042"><ele>154.0</ele><time>2026-05-04T11:17:30.64Z</time></trkpt><trkpt lat="42.4760403" lon="18.4338521"><ele>154.0</ele><time>2026-05-04T11:17:31.64Z</time></trkpt><trkpt lat="42.4761729" lon="18.4337158"><ele>154.0</ele><time>2026-05-04T11:17:32.641Z</time></trkpt><trkpt lat="42.4763273" lon="18.4336241"><ele>153.33333333333334</ele><time>2026-05-04T11:17:33.641Z</time></trkpt><trkpt lat="42.4765215" lon="18.4335628"><ele>152.66666666666666</ele><time>2026-05-04T11:17:34.64Z</time></trkpt><trkpt lat="42.4767" lon="18.4334985"><ele>152.0</ele><time>2026-05-04T11:17:35.64Z</time></trkpt><trkpt lat="42.4768784" lon="18.4334372"><ele>152.0</ele><time>2026-05-04T11:17:36.641Z</time></trkpt><trkpt lat="42.4770335" lon="18.4333633"><ele>152.0</ele><time>2026-05-04T11:17:37.64Z</time></trkpt><trkpt lat="42.47718" lon="18.4332693"><ele>152.0</ele><time>2026-05-04T11:17:38.64Z</time></trkpt><trkpt lat="42.4772975" lon="18.4331412"><ele>151.33333333333331</ele><time>2026-05-04T11:17:39.641Z</time></trkpt><trkpt lat="42.4774087" lon="18.4329771"><ele>150.66666666666666</ele><time>2026-05-04T11:17:40.64Z</time></trkpt><trkpt lat="42.4775109" lon="18.4328004"><ele>150.0</ele><time>2026-05-04T11:17:41.641Z</time></trkpt><trkpt lat="42.4776132" lon="18.4325431"><ele>150.0</ele><time>2026-05-04T11:17:42.64Z</time></trkpt><trkpt lat="42.4777385" lon="18.4323199"><ele>150.0</ele><time>2026-05-04T11:17:43.64Z</time></trkpt><trkpt lat="42.4778743" lon="18.4321217"><ele>150.0</ele><time>2026-05-04T11:17:44.64Z</time></trkpt><trkpt lat="42.4780169" lon="18.4319191"><ele>149.66666666666666</ele><time>2026-05-04T11:17:45.641Z</time></trkpt><trkpt lat="42.4781564" lon="18.4317137"><ele>149.33333333333331</ele><time>2026-05-04T11:17:46.64Z</time></trkpt><trkpt lat="42.4782898" lon="18.4314959"><ele>149.0</ele><time>2026-05-04T11:17:47.641Z</time></trkpt><trkpt lat="42.478419" lon="18.4312813"><ele>149.66666666666666</ele><time>2026-05-04T11:17:48.641Z</time></trkpt><trkpt lat="42.4785481" lon="18.4310664"><ele>150.33333333333334</ele><time>2026-05-04T11:17:49.64Z</time></trkpt><trkpt lat="42.4786741" lon="18.4308571"><ele>151.0</ele><time>2026-05-04T11:17:50.641Z</time></trkpt><trkpt lat="42.4787989" lon="18.4306537"><ele>153.33333333333334</ele><time>2026-05-04T11:17:51.641Z</time></trkpt><trkpt lat="42.4789198" lon="18.4304534"><ele>155.66666666666666</ele><time>2026-05-04T11:17:52.641Z</time></trkpt><trkpt lat="42.4790484" lon="18.430276"><ele>158.0</ele><time>2026-05-04T11:17:53.641Z</time></trkpt><trkpt lat="42.4791943" lon="18.4301106"><ele>158.0</ele><time>2026-05-04T11:17:54.641Z</time></trkpt><trkpt lat="42.4793574" lon="18.4299483"><ele>158.0</ele><time>2026-05-04T11:17:55.641Z</time></trkpt><trkpt lat="42.4795081" lon="18.4297918"><ele>158.0</ele><time>2026-05-04T11:17:56.641Z</time></trkpt><trkpt lat="42.4796507" lon="18.4296285"><ele>157.33333333333331</ele><time>2026-05-04T11:17:57.641Z</time></trkpt><trkpt lat="42.4797757" lon="18.429432"><ele>156.66666666666666</ele><time>2026-05-04T11:17:58.641Z</time></trkpt><trkpt lat="42.4798828" lon="18.4292095"><ele>156.0</ele><time>2026-05-04T11:17:59.641Z</time></trkpt><trkpt lat="42.4799792" lon="18.4289734"><ele>157.66666666666666</ele><time>2026-05-04T11:18:00.64Z</time></trkpt><trkpt lat="42.4800717" lon="18.4287404"><ele>159.33333333333331</ele><time>2026-05-04T11:18:01.641Z</time></trkpt><trkpt lat="42.4801628" lon="18.4285081"><ele>161.0</ele><time>2026-05-04T11:18:02.641Z</time></trkpt><trkpt lat="42.4802532" lon="18.4282768"><ele>161.0</ele><time>2026-05-04T11:18:03.64Z</time></trkpt><trkpt lat="42.4803454" lon="18.4280431"><ele>161.0</ele><time>2026-05-04T11:18:04.64Z</time></trkpt><trkpt lat="42.4804369" lon="18.4278157"><ele>161.0</ele><time>2026-05-04T11:18:05.641Z</time></trkpt><trkpt lat="42.480532" lon="18.427581"><ele>160.33333333333331</ele><time>2026-05-04T11:18:06.64Z</time></trkpt><trkpt lat="42.4806271" lon="18.4273543"><ele>159.66666666666666</ele><time>2026-05-04T11:18:07.641Z</time></trkpt><trkpt lat="42.4807306" lon="18.4271297"><ele>159.0</ele><time>2026-05-04T11:18:08.64Z</time></trkpt><trkpt lat="42.4808413" lon="18.4269179"><ele>159.0</ele><time>2026-05-04T11:18:09.641Z</time></trkpt><trkpt lat="42.4809704" lon="18.4267144"><ele>159.0</ele><time>2026-05-04T11:18:10.641Z</time></trkpt><trkpt lat="42.481104" lon="18.4265103"><ele>159.0</ele><time>2026-05-04T11:18:11.64Z</time></trkpt><trkpt lat="42.481249" lon="18.4263132"><ele>159.0</ele><time>2026-05-04T11:18:12.641Z</time></trkpt><trkpt lat="42.4813997" lon="18.4261173"><ele>159.0</ele><time>2026-05-04T11:18:13.64Z</time></trkpt><trkpt lat="42.481555" lon="18.4259478"><ele>159.0</ele><time>2026-05-04T11:18:14.64Z</time></trkpt><trkpt lat="42.4817101" lon="18.4257894"><ele>159.0</ele><time>2026-05-04T11:18:15.64Z</time></trkpt><trkpt lat="42.4818577" lon="18.4256233"><ele>159.0</ele><time>2026-05-04T11:18:16.64Z</time></trkpt><trkpt lat="42.4819998" lon="18.4254462"><ele>159.0</ele><time>2026-05-04T11:18:17.64Z</time></trkpt><trkpt lat="42.4821268" lon="18.4252493"><ele>158.33333333333334</ele><time>2026-05-04T11:18:18.64Z</time></trkpt><trkpt lat="42.4822402" lon="18.4250429"><ele>157.66666666666669</ele><time>2026-05-04T11:18:19.64Z</time></trkpt><trkpt lat="42.4823426" lon="18.4248172"><ele>157.0</ele><time>2026-05-04T11:18:20.64Z</time></trkpt><trkpt lat="42.4824347" lon="18.424587"><ele>159.66666666666669</ele><time>2026-05-04T11:18:21.641Z</time></trkpt><trkpt lat="42.482526" lon="18.4243541"><ele>162.33333333333334</ele><time>2026-05-04T11:18:22.641Z</time></trkpt><trkpt lat="42.4826119" lon="18.4241269"><ele>165.0</ele><time>2026-05-04T11:18:23.64Z</time></trkpt><trkpt lat="42.4826991" lon="18.4239014"><ele>164.66666666666666</ele><time>2026-05-04T11:18:24.641Z</time></trkpt><trkpt lat="42.482802" lon="18.4237054"><ele>164.33333333333331</ele><time>2026-05-04T11:18:25.64Z</time></trkpt><trkpt lat="42.4829184" lon="18.4235218"><ele>164.0</ele><time>2026-05-04T11:18:26.641Z</time></trkpt><trkpt lat="42.4830711" lon="18.4233682"><ele>164.0</ele><time>2026-05-04T11:18:27.64Z</time></trkpt><trkpt lat="42.4832184" lon="18.4232187"><ele>164.0</ele><time>2026-05-04T11:18:28.64Z</time></trkpt><trkpt lat="42.4833689" lon="18.4230783"><ele>164.0</ele><time>2026-05-04T11:18:29.641Z</time></trkpt><trkpt lat="42.4835183" lon="18.4229335"><ele>168.66666666666666</ele><time>2026-05-04T11:18:30.64Z</time></trkpt><trkpt lat="42.4836728" lon="18.422788"><ele>173.33333333333334</ele><time>2026-05-04T11:18:31.64Z</time></trkpt><trkpt lat="42.4838256" lon="18.4226441"><ele>178.0</ele><time>2026-05-04T11:18:32.64Z</time></trkpt><trkpt lat="42.4839758" lon="18.4225056"><ele>178.0</ele><time>2026-05-04T11:18:33.64Z</time></trkpt><trkpt lat="42.4841255" lon="18.4223599"><ele>178.0</ele><time>2026-05-04T11:18:34.641Z</time></trkpt><trkpt lat="42.4842798" lon="18.4222071"><ele>178.0</ele><time>2026-05-04T11:18:35.641Z</time></trkpt><trkpt lat="42.4844309" lon="18.4220513"><ele>180.66666666666669</ele><time>2026-05-04T11:18:36.641Z</time></trkpt><trkpt lat="42.4845726" lon="18.4218897"><ele>183.33333333333334</ele><time>2026-05-04T11:18:37.641Z</time></trkpt><trkpt lat="42.4847151" lon="18.4217202"><ele>186.0</ele><time>2026-05-04T11:18:38.64Z</time></trkpt><trkpt lat="42.4848625" lon="18.4215456"><ele>186.0</ele><time>2026-05-04T11:18:39.64Z</time></trkpt><trkpt lat="42.4850066" lon="18.4213589"><ele>186.0</ele><time>2026-05-04T11:18:40.64Z</time></trkpt><trkpt lat="42.4851525" lon="18.4211761"><ele>186.0</ele><time>2026-05-04T11:18:41.64Z</time></trkpt><trkpt lat="42.4852839" lon="18.4209859"><ele>186.66666666666666</ele><time>2026-05-04T11:18:42.64Z</time></trkpt><trkpt lat="42.4854213" lon="18.4208093"><ele>187.33333333333331</ele><time>2026-05-04T11:18:43.641Z</time></trkpt><trkpt lat="42.4855607" lon="18.4206289"><ele>188.0</ele><time>2026-05-04T11:18:44.641Z</time></trkpt><trkpt lat="42.4856966" lon="18.420454"><ele>190.66666666666666</ele><time>2026-05-04T11:18:45.641Z</time></trkpt><trkpt lat="42.4858268" lon="18.4202882"><ele>193.33333333333331</ele><time>2026-05-04T11:18:46.64Z</time></trkpt><trkpt lat="42.4859444" lon="18.4201213"><ele>196.0</ele><time>2026-05-04T11:18:47.64Z</time></trkpt><trkpt lat="42.4860528" lon="18.4199373"><ele>196.0</ele><time>2026-05-04T11:18:48.641Z</time></trkpt><trkpt lat="42.4861469" lon="18.4197451"><ele>196.0</ele><time>2026-05-04T11:18:49.64Z</time></trkpt><trkpt lat="42.4862267" lon="18.4195538"><ele>196.0</ele><time>2026-05-04T11:18:50.64Z</time></trkpt><trkpt lat="42.486306" lon="18.4193867"><ele>196.33333333333331</ele><time>2026-05-04T11:18:51.641Z</time></trkpt><trkpt lat="42.4864107" lon="18.4192534"><ele>196.66666666666669</ele><time>2026-05-04T11:18:52.64Z</time></trkpt><trkpt lat="42.4865394" lon="18.4191306"><ele>197.0</ele><time>2026-05-04T11:18:53.64Z</time></trkpt><trkpt lat="42.486687" lon="18.4190196"><ele>197.0</ele><time>2026-05-04T11:18:54.641Z</time></trkpt><trkpt lat="42.4868427" lon="18.418913"><ele>197.0</ele><time>2026-05-04T11:18:55.64Z</time></trkpt><trkpt lat="42.4869958" lon="18.4188093"><ele>197.0</ele><time>2026-05-04T11:18:56.641Z</time></trkpt><trkpt lat="42.4871545" lon="18.4187182"><ele>199.0</ele><time>2026-05-04T11:18:57.641Z</time></trkpt><trkpt lat="42.4873205" lon="18.4186435"><ele>201.0</ele><time>2026-05-04T11:18:58.641Z</time></trkpt><trkpt lat="42.487484" lon="18.418568"><ele>203.0</ele><time>2026-05-04T11:18:59.641Z</time></trkpt><trkpt lat="42.4876572" lon="18.4184867"><ele>203.0</ele><time>2026-05-04T11:19:00.64Z</time></trkpt><trkpt lat="42.4878278" lon="18.4183844"><ele>203.0</ele><time>2026-05-04T11:19:01.641Z</time></trkpt><trkpt lat="42.4879952" lon="18.4182627"><ele>203.0</ele><time>2026-05-04T11:19:02.641Z</time></trkpt><trkpt lat="42.4881578" lon="18.418131"><ele>204.33333333333334</ele><time>2026-05-04T11:19:03.641Z</time></trkpt><trkpt lat="42.488318" lon="18.417985"><ele>205.66666666666669</ele><time>2026-05-04T11:19:04.64Z</time></trkpt><trkpt lat="42.488471" lon="18.4178285"><ele>207.0</ele><time>2026-05-04T11:19:05.641Z</time></trkpt><trkpt lat="42.4886139" lon="18.4176522"><ele>207.0</ele><time>2026-05-04T11:19:06.64Z</time></trkpt><trkpt lat="42.4887507" lon="18.4174694"><ele>207.0</ele><time>2026-05-04T11:19:07.64Z</time></trkpt><trkpt lat="42.4888879" lon="18.4172766"><ele>207.0</ele><time>2026-05-04T11:19:08.64Z</time></trkpt><trkpt lat="42.4890337" lon="18.4170688"><ele>206.66666666666669</ele><time>2026-05-04T11:19:09.641Z</time></trkpt><trkpt lat="42.4891833" lon="18.4168441"><ele>206.33333333333334</ele><time>2026-05-04T11:19:10.641Z</time></trkpt><trkpt lat="42.4893278" lon="18.4166168"><ele>206.0</ele><time>2026-05-04T11:19:11.64Z</time></trkpt><trkpt lat="42.4894668" lon="18.4163786"><ele>205.0</ele><time>2026-05-04T11:19:12.641Z</time></trkpt><trkpt lat="42.4896042" lon="18.4161369"><ele>204.0</ele><time>2026-05-04T11:19:13.641Z</time></trkpt><trkpt lat="42.4897396" lon="18.4159004"><ele>203.0</ele><time>2026-05-04T11:19:14.641Z</time></trkpt><trkpt lat="42.4898667" lon="18.4156773"><ele>206.33333333333334</ele><time>2026-05-04T11:19:15.64Z</time></trkpt><trkpt lat="42.4899876" lon="18.4154649"><ele>209.66666666666669</ele><time>2026-05-04T11:19:16.641Z</time></trkpt><trkpt lat="42.4900981" lon="18.4152639"><ele>213.0</ele><time>2026-05-04T11:19:17.641Z</time></trkpt><trkpt lat="42.4902021" lon="18.4150817"><ele>213.0</ele><time>2026-05-04T11:19:18.641Z</time></trkpt><trkpt lat="42.4903152" lon="18.4149427"><ele>213.0</ele><time>2026-05-04T11:19:19.641Z</time></trkpt><trkpt lat="42.4904517" lon="18.4148494"><ele>213.0</ele><time>2026-05-04T11:19:20.641Z</time></trkpt><trkpt lat="42.4905772" lon="18.4147432"><ele>213.0</ele><time>2026-05-04T11:19:21.641Z</time></trkpt><trkpt lat="42.4907601" lon="18.4147115"><ele>213.0</ele><time>2026-05-04T11:19:22.641Z</time></trkpt><trkpt lat="42.4909161" lon="18.414678"><ele>213.0</ele><time>2026-05-04T11:19:23.64Z</time></trkpt><trkpt lat="42.4910592" lon="18.4146012"><ele>213.0</ele><time>2026-05-04T11:19:24.641Z</time></trkpt><trkpt lat="42.4911886" lon="18.414496"><ele>213.0</ele><time>2026-05-04T11:19:25.64Z</time></trkpt><trkpt lat="42.4913108" lon="18.4143563"><ele>213.0</ele><time>2026-05-04T11:19:26.64Z</time></trkpt><trkpt lat="42.4914235" lon="18.4141975"><ele>213.33333333333331</ele><time>2026-05-04T11:19:27.641Z</time></trkpt><trkpt lat="42.4915378" lon="18.4140373"><ele>213.66666666666666</ele><time>2026-05-04T11:19:28.641Z</time></trkpt><trkpt lat="42.4916563" lon="18.4138737"><ele>214.0</ele><time>2026-05-04T11:19:29.641Z</time></trkpt><trkpt lat="42.4917807" lon="18.413717"><ele>214.0</ele><time>2026-05-04T11:19:30.641Z</time></trkpt><trkpt lat="42.4919147" lon="18.4135661"><ele>214.0</ele><time>2026-05-04T11:19:31.641Z</time></trkpt><trkpt lat="42.492062" lon="18.4134179"><ele>214.0</ele><time>2026-05-04T11:19:32.641Z</time></trkpt><trkpt lat="42.492218" lon="18.4132803"><ele>215.33333333333331</ele><time>2026-05-04T11:19:33.64Z</time></trkpt><trkpt lat="42.4923813" lon="18.4131542"><ele>216.66666666666669</ele><time>2026-05-04T11:19:34.641Z</time></trkpt><trkpt lat="42.4925512" lon="18.413075"><ele>218.0</ele><time>2026-05-04T11:19:35.64Z</time></trkpt><trkpt lat="42.4927286" lon="18.4129794"><ele>218.0</ele><time>2026-05-04T11:19:36.641Z</time></trkpt><trkpt lat="42.4929189" lon="18.4129043"><ele>218.0</ele><time>2026-05-04T11:19:37.641Z</time></trkpt><trkpt lat="42.4931107" lon="18.4128477"><ele>218.0</ele><time>2026-05-04T11:19:38.641Z</time></trkpt><trkpt lat="42.4932977" lon="18.4127984"><ele>215.66666666666669</ele><time>2026-05-04T11:19:39.641Z</time></trkpt><trkpt lat="42.4934821" lon="18.4127443"><ele>213.33333333333331</ele><time>2026-05-04T11:19:40.64Z</time></trkpt><trkpt lat="42.4936649" lon="18.4127083"><ele>211.0</ele><time>2026-05-04T11:19:41.641Z</time></trkpt><trkpt lat="42.4938377" lon="18.4126587"><ele>209.0</ele><time>2026-05-04T11:19:42.64Z</time></trkpt><trkpt lat="42.4940029" lon="18.4126086"><ele>207.0</ele><time>2026-05-04T11:19:43.64Z</time></trkpt><trkpt lat="42.4941605" lon="18.4125534"><ele>205.0</ele><time>2026-05-04T11:19:44.641Z</time></trkpt><trkpt lat="42.4943136" lon="18.4124922"><ele>205.0</ele><time>2026-05-04T11:19:45.641Z</time></trkpt><trkpt lat="42.4944676" lon="18.4124144"><ele>205.0</ele><time>2026-05-04T11:19:46.641Z</time></trkpt><trkpt lat="42.4946306" lon="18.4123312"><ele>205.0</ele><time>2026-05-04T11:19:47.641Z</time></trkpt><trkpt lat="42.4948036" lon="18.4122427"><ele>205.33333333333331</ele><time>2026-05-04T11:19:48.641Z</time></trkpt><trkpt lat="42.4949875" lon="18.4121497"><ele>205.66666666666669</ele><time>2026-05-04T11:19:49.641Z</time></trkpt><trkpt lat="42.49517" lon="18.4120614"><ele>206.0</ele><time>2026-05-04T11:19:50.641Z</time></trkpt><trkpt lat="42.4953627" lon="18.4119781"><ele>203.0</ele><time>2026-05-04T11:19:51.641Z</time></trkpt><trkpt lat="42.4955635" lon="18.4118969"><ele>200.0</ele><time>2026-05-04T11:19:52.641Z</time></trkpt><trkpt lat="42.4957668" lon="18.4118289"><ele>197.0</ele><time>2026-05-04T11:19:53.641Z</time></trkpt><trkpt lat="42.4959781" lon="18.4117668"><ele>197.0</ele><time>2026-05-04T11:19:54.641Z</time></trkpt><trkpt lat="42.4961935" lon="18.411715"><ele>197.0</ele><time>2026-05-04T11:19:55.64Z</time></trkpt><trkpt lat="42.4964042" lon="18.4116778"><ele>197.0</ele><time>2026-05-04T11:19:56.641Z</time></trkpt><trkpt lat="42.4966183" lon="18.4116446"><ele>195.0</ele><time>2026-05-04T11:19:57.64Z</time></trkpt><trkpt lat="42.4968163" lon="18.4116053"><ele>193.0</ele><time>2026-05-04T11:19:58.641Z</time></trkpt><trkpt lat="42.497006" lon="18.4115482"><ele>191.0</ele><time>2026-05-04T11:19:59.641Z</time></trkpt><trkpt lat="42.4971871" lon="18.4114718"><ele>191.0</ele><time>2026-05-04T11:20:00.64Z</time></trkpt><trkpt lat="42.4973615" lon="18.4113668"><ele>191.0</ele><time>2026-05-04T11:20:01.641Z</time></trkpt><trkpt lat="42.4975347" lon="18.4112277"><ele>191.0</ele><time>2026-05-04T11:20:02.641Z</time></trkpt><trkpt lat="42.4977067" lon="18.4110716"><ele>190.66666666666666</ele><time>2026-05-04T11:20:03.641Z</time></trkpt><trkpt lat="42.4978808" lon="18.4109079"><ele>190.33333333333334</ele><time>2026-05-04T11:20:04.641Z</time></trkpt><trkpt lat="42.4980502" lon="18.4107474"><ele>190.0</ele><time>2026-05-04T11:20:05.641Z</time></trkpt><trkpt lat="42.4982278" lon="18.410593"><ele>187.66666666666669</ele><time>2026-05-04T11:20:06.641Z</time></trkpt><trkpt lat="42.4984182" lon="18.4104484"><ele>185.33333333333334</ele><time>2026-05-04T11:20:07.64Z</time></trkpt><trkpt lat="42.4986195" lon="18.4103174"><ele>183.0</ele><time>2026-05-04T11:20:08.64Z</time></trkpt><trkpt lat="42.4988215" lon="18.4102019"><ele>180.66666666666666</ele><time>2026-05-04T11:20:09.641Z</time></trkpt><trkpt lat="42.4990215" lon="18.4100932"><ele>178.33333333333331</ele><time>2026-05-04T11:20:10.641Z</time></trkpt><trkpt lat="42.4992194" lon="18.4099836"><ele>176.0</ele><time>2026-05-04T11:20:11.64Z</time></trkpt><trkpt lat="42.4994089" lon="18.409874"><ele>175.33333333333331</ele><time>2026-05-04T11:20:12.64Z</time></trkpt><trkpt lat="42.4995914" lon="18.4097575"><ele>174.66666666666666</ele><time>2026-05-04T11:20:13.641Z</time></trkpt><trkpt lat="42.4997591" lon="18.4096215"><ele>174.0</ele><time>2026-05-04T11:20:14.64Z</time></trkpt><trkpt lat="42.4999195" lon="18.4094557"><ele>172.33333333333334</ele><time>2026-05-04T11:20:15.641Z</time></trkpt><trkpt lat="42.5000787" lon="18.409261"><ele>170.66666666666669</ele><time>2026-05-04T11:20:16.641Z</time></trkpt><trkpt lat="42.5002344" lon="18.4090508"><ele>169.0</ele><time>2026-05-04T11:20:17.641Z</time></trkpt><trkpt lat="42.5003916" lon="18.40884"><ele>167.0</ele><time>2026-05-04T11:20:18.64Z</time></trkpt><trkpt lat="42.5005577" lon="18.4086423"><ele>165.0</ele><time>2026-05-04T11:20:19.64Z</time></trkpt><trkpt lat="42.5007336" lon="18.4084548"><ele>163.0</ele><time>2026-05-04T11:20:20.641Z</time></trkpt><trkpt lat="42.5009151" lon="18.4082829"><ele>163.0</ele><time>2026-05-04T11:20:21.641Z</time></trkpt><trkpt lat="42.5011069" lon="18.4081283"><ele>163.0</ele><time>2026-05-04T11:20:22.641Z</time></trkpt><trkpt lat="42.5012964" lon="18.407998"><ele>163.0</ele><time>2026-05-04T11:20:23.64Z</time></trkpt><trkpt lat="42.50149" lon="18.4078751"><ele>160.0</ele><time>2026-05-04T11:20:24.641Z</time></trkpt><trkpt lat="42.5016729" lon="18.4077716"><ele>157.0</ele><time>2026-05-04T11:20:25.64Z</time></trkpt><trkpt lat="42.5018369" lon="18.407673"><ele>154.0</ele><time>2026-05-04T11:20:26.641Z</time></trkpt><trkpt lat="42.5019803" lon="18.4075684"><ele>152.0</ele><time>2026-05-04T11:20:27.64Z</time></trkpt><trkpt lat="42.5021055" lon="18.4074434"><ele>150.0</ele><time>2026-05-04T11:20:28.641Z</time></trkpt><trkpt lat="42.5022136" lon="18.4072928"><ele>148.0</ele><time>2026-05-04T11:20:29.641Z</time></trkpt><trkpt lat="42.5023053" lon="18.4071156"><ele>146.33333333333334</ele><time>2026-05-04T11:20:30.641Z</time></trkpt><trkpt lat="42.5023905" lon="18.4068898"><ele>144.66666666666666</ele><time>2026-05-04T11:20:31.64Z</time></trkpt><trkpt lat="42.5024691" lon="18.4066756"><ele>143.0</ele><time>2026-05-04T11:20:32.64Z</time></trkpt><trkpt lat="42.5025521" lon="18.4064709"><ele>143.66666666666666</ele><time>2026-05-04T11:20:33.64Z</time></trkpt><trkpt lat="42.5026488" lon="18.4062913"><ele>144.33333333333334</ele><time>2026-05-04T11:20:34.641Z</time></trkpt><trkpt lat="42.5027631" lon="18.4061235"><ele>145.0</ele><time>2026-05-04T11:20:35.641Z</time></trkpt><trkpt lat="42.5028846" lon="18.4060056"><ele>141.66666666666669</ele><time>2026-05-04T11:20:36.64Z</time></trkpt><trkpt lat="42.5030116" lon="18.4059077"><ele>138.33333333333334</ele><time>2026-05-04T11:20:37.64Z</time></trkpt><trkpt lat="42.5031479" lon="18.4058236"><ele>135.0</ele><time>2026-05-04T11:20:38.641Z</time></trkpt><trkpt lat="42.5033296" lon="18.4057262"><ele>135.0</ele><time>2026-05-04T11:20:39.64Z</time></trkpt><trkpt lat="42.5034842" lon="18.4056399"><ele>135.0</ele><time>2026-05-04T11:20:40.64Z</time></trkpt><trkpt lat="42.5036705" lon="18.4055674"><ele>135.0</ele><time>2026-05-04T11:20:41.64Z</time></trkpt><trkpt lat="42.503827" lon="18.4054833"><ele>131.0</ele><time>2026-05-04T11:20:42.641Z</time></trkpt><trkpt lat="42.503976" lon="18.4053907"><ele>127.0</ele><time>2026-05-04T11:20:43.641Z</time></trkpt><trkpt lat="42.504115" lon="18.4052877"><ele>123.0</ele><time>2026-05-04T11:20:44.641Z</time></trkpt><trkpt lat="42.5042407" lon="18.4051646"><ele>123.0</ele><time>2026-05-04T11:20:45.64Z</time></trkpt><trkpt lat="42.5043515" lon="18.405014"><ele>123.0</ele><time>2026-05-04T11:20:46.64Z</time></trkpt><trkpt lat="42.5044443" lon="18.4048433"><ele>123.0</ele><time>2026-05-04T11:20:47.64Z</time></trkpt><trkpt lat="42.5045216" lon="18.4046532"><ele>117.0</ele><time>2026-05-04T11:20:48.641Z</time></trkpt><trkpt lat="42.5045842" lon="18.4044441"><ele>111.0</ele><time>2026-05-04T11:20:49.64Z</time></trkpt><trkpt lat="42.5046309" lon="18.4042285"><ele>105.0</ele><time>2026-05-04T11:20:50.64Z</time></trkpt><trkpt lat="42.5046768" lon="18.4040049"><ele>106.0</ele><time>2026-05-04T11:20:51.64Z</time></trkpt><trkpt lat="42.5047148" lon="18.4037988"><ele>107.0</ele><time>2026-05-04T11:20:52.64Z</time></trkpt><trkpt lat="42.5047626" lon="18.4036015"><ele>108.0</ele><time>2026-05-04T11:20:53.64Z</time></trkpt><trkpt lat="42.5048309" lon="18.4034165"><ele>108.0</ele><time>2026-05-04T11:20:54.641Z</time></trkpt><trkpt lat="42.5049175" lon="18.4032554"><ele>108.0</ele><time>2026-05-04T11:20:55.64Z</time></trkpt><trkpt lat="42.5050136" lon="18.4031068"><ele>108.0</ele><time>2026-05-04T11:20:56.64Z</time></trkpt><trkpt lat="42.5051196" lon="18.4029887"><ele>108.0</ele><time>2026-05-04T11:20:57.641Z</time></trkpt><trkpt lat="42.5052529" lon="18.4029039"><ele>109.2</ele><time>2026-05-04T11:20:58.641Z</time></trkpt><trkpt lat="42.5053731" lon="18.4028327"><ele>110.4</ele><time>2026-05-04T11:20:59.64Z</time></trkpt><trkpt lat="42.5054856" lon="18.4027931"><ele>111.60000000000001</ele><time>2026-05-04T11:21:00.64Z</time></trkpt><trkpt lat="42.505576" lon="18.4027702"><ele>112.80000000000001</ele><time>2026-05-04T11:21:01.641Z</time></trkpt><trkpt lat="42.5056503" lon="18.40276"><ele>114.0</ele><time>2026-05-04T11:21:02.641Z</time></trkpt><trkpt lat="42.5057473" lon="18.4027657"><ele>110.4</ele><time>2026-05-04T11:21:04.641Z</time></trkpt><trkpt lat="42.5058434" lon="18.4027257"><ele>106.80000000000001</ele><time>2026-05-04T11:21:07.641Z</time></trkpt><trkpt lat="42.5058851" lon="18.4026605"><ele>103.19999999999999</ele><time>2026-05-04T11:21:08.64Z</time></trkpt><trkpt lat="42.5059261" lon="18.4025434"><ele>99.6</ele><time>2026-05-04T11:21:09.641Z</time></trkpt><trkpt lat="42.5059622" lon="18.4023652"><ele>96.0</ele><time>2026-05-04T11:21:10.641Z</time></trkpt><trkpt lat="42.5060006" lon="18.4021694"><ele>98.33333333333334</ele><time>2026-05-04T11:21:11.64Z</time></trkpt><trkpt lat="42.5060577" lon="18.4019339"><ele>100.66666666666667</ele><time>2026-05-04T11:21:12.641Z</time></trkpt><trkpt lat="42.5061155" lon="18.4016924"><ele>103.0</ele><time>2026-05-04T11:21:13.64Z</time></trkpt><trkpt lat="42.5061709" lon="18.4014252"><ele>103.66666666666667</ele><time>2026-05-04T11:21:14.641Z</time></trkpt><trkpt lat="42.5062153" lon="18.4011477"><ele>104.33333333333334</ele><time>2026-05-04T11:21:15.64Z</time></trkpt><trkpt lat="42.5062453" lon="18.4008649"><ele>105.0</ele><time>2026-05-04T11:21:16.641Z</time></trkpt><trkpt lat="42.506263" lon="18.4005749"><ele>99.66666666666667</ele><time>2026-05-04T11:21:17.641Z</time></trkpt><trkpt lat="42.5062763" lon="18.4002858"><ele>94.33333333333334</ele><time>2026-05-04T11:21:18.641Z</time></trkpt><trkpt lat="42.5062886" lon="18.3999964"><ele>89.0</ele><time>2026-05-04T11:21:19.641Z</time></trkpt><trkpt lat="42.5063061" lon="18.3997097"><ele>90.0</ele><time>2026-05-04T11:21:20.641Z</time></trkpt><trkpt lat="42.5063343" lon="18.3994282"><ele>91.0</ele><time>2026-05-04T11:21:21.64Z</time></trkpt><trkpt lat="42.5063773" lon="18.3991478"><ele>92.0</ele><time>2026-05-04T11:21:22.641Z</time></trkpt><trkpt lat="42.5064315" lon="18.3988785"><ele>93.66666666666667</ele><time>2026-05-04T11:21:23.64Z</time></trkpt><trkpt lat="42.5064983" lon="18.39861"><ele>95.33333333333334</ele><time>2026-05-04T11:21:24.64Z</time></trkpt><trkpt lat="42.5065728" lon="18.39834"><ele>97.0</ele><time>2026-05-04T11:21:25.64Z</time></trkpt><trkpt lat="42.5066623" lon="18.3980678"><ele>99.33333333333334</ele><time>2026-05-04T11:21:26.64Z</time></trkpt><trkpt lat="42.5067497" lon="18.3978012"><ele>101.66666666666666</ele><time>2026-05-04T11:21:27.641Z</time></trkpt><trkpt lat="42.5068387" lon="18.3975385"><ele>104.0</ele><time>2026-05-04T11:21:28.641Z</time></trkpt><trkpt lat="42.5069324" lon="18.3972702"><ele>100.33333333333333</ele><time>2026-05-04T11:21:29.641Z</time></trkpt><trkpt lat="42.5070256" lon="18.3970006"><ele>96.66666666666666</ele><time>2026-05-04T11:21:30.641Z</time></trkpt><trkpt lat="42.5071146" lon="18.3967315"><ele>93.0</ele><time>2026-05-04T11:21:31.641Z</time></trkpt><trkpt lat="42.5071951" lon="18.3964623"><ele>96.0</ele><time>2026-05-04T11:21:32.64Z</time></trkpt><trkpt lat="42.5072686" lon="18.3961968"><ele>99.0</ele><time>2026-05-04T11:21:33.64Z</time></trkpt><trkpt lat="42.5073333" lon="18.3959327"><ele>102.0</ele><time>2026-05-04T11:21:34.64Z</time></trkpt><trkpt lat="42.5073956" lon="18.395668"><ele>105.33333333333334</ele><time>2026-05-04T11:21:35.64Z</time></trkpt><trkpt lat="42.5074609" lon="18.3954014"><ele>108.66666666666667</ele><time>2026-05-04T11:21:36.641Z</time></trkpt><trkpt lat="42.5075309" lon="18.3951473"><ele>112.0</ele><time>2026-05-04T11:21:37.641Z</time></trkpt><trkpt lat="42.5076081" lon="18.3949"><ele>115.66666666666667</ele><time>2026-05-04T11:21:38.64Z</time></trkpt><trkpt lat="42.507705" lon="18.3946511"><ele>119.33333333333334</ele><time>2026-05-04T11:21:39.641Z</time></trkpt><trkpt lat="42.5078135" lon="18.3944248"><ele>123.0</ele><time>2026-05-04T11:21:40.641Z</time></trkpt><trkpt lat="42.5079364" lon="18.3942102"><ele>120.33333333333334</ele><time>2026-05-04T11:21:41.64Z</time></trkpt><trkpt lat="42.5080705" lon="18.394006"><ele>117.66666666666667</ele><time>2026-05-04T11:21:42.641Z</time></trkpt><trkpt lat="42.508206" lon="18.3938056"><ele>115.0</ele><time>2026-05-04T11:21:43.641Z</time></trkpt><trkpt lat="42.5083413" lon="18.3936067"><ele>115.0</ele><time>2026-05-04T11:21:44.641Z</time></trkpt><trkpt lat="42.5084648" lon="18.3934006"><ele>115.0</ele><time>2026-05-04T11:21:45.641Z</time></trkpt><trkpt lat="42.5085729" lon="18.3931798"><ele>115.0</ele><time>2026-05-04T11:21:46.64Z</time></trkpt><trkpt lat="42.5086678" lon="18.3929451"><ele>110.0</ele><time>2026-05-04T11:21:47.64Z</time></trkpt><trkpt lat="42.5087474" lon="18.3926964"><ele>105.0</ele><time>2026-05-04T11:21:48.64Z</time></trkpt><trkpt lat="42.5088148" lon="18.3924399"><ele>100.0</ele><time>2026-05-04T11:21:49.641Z</time></trkpt><trkpt lat="42.5088761" lon="18.3921793"><ele>102.33333333333334</ele><time>2026-05-04T11:21:50.641Z</time></trkpt><trkpt lat="42.5089377" lon="18.3919199"><ele>104.66666666666666</ele><time>2026-05-04T11:21:51.641Z</time></trkpt><trkpt lat="42.5090024" lon="18.3916622"><ele>107.0</ele><time>2026-05-04T11:21:52.64Z</time></trkpt><trkpt lat="42.5090685" lon="18.3914078"><ele>109.0</ele><time>2026-05-04T11:21:53.64Z</time></trkpt><trkpt lat="42.5091421" lon="18.3911593"><ele>111.0</ele><time>2026-05-04T11:21:54.641Z</time></trkpt><trkpt lat="42.5092317" lon="18.3909149"><ele>113.0</ele><time>2026-05-04T11:21:55.641Z</time></trkpt><trkpt lat="42.5093419" lon="18.3906843"><ele>115.66666666666666</ele><time>2026-05-04T11:21:56.64Z</time></trkpt><trkpt lat="42.5094569" lon="18.3904527"><ele>118.33333333333334</ele><time>2026-05-04T11:21:57.641Z</time></trkpt><trkpt lat="42.5095847" lon="18.390218"><ele>121.0</ele><time>2026-05-04T11:21:58.64Z</time></trkpt><trkpt lat="42.5097107" lon="18.3899866"><ele>115.66666666666667</ele><time>2026-05-04T11:21:59.641Z</time></trkpt><trkpt lat="42.5098355" lon="18.3897512"><ele>110.33333333333334</ele><time>2026-05-04T11:22:00.64Z</time></trkpt><trkpt lat="42.509951" lon="18.3895085"><ele>105.0</ele><time>2026-05-04T11:22:01.64Z</time></trkpt><trkpt lat="42.5100451" lon="18.3892538"><ele>105.0</ele><time>2026-05-04T11:22:02.64Z</time></trkpt><trkpt lat="42.5101162" lon="18.3889836"><ele>105.0</ele><time>2026-05-04T11:22:03.64Z</time></trkpt><trkpt lat="42.5101674" lon="18.3886998"><ele>105.0</ele><time>2026-05-04T11:22:04.641Z</time></trkpt><trkpt lat="42.5101999" lon="18.3884085"><ele>106.33333333333334</ele><time>2026-05-04T11:22:05.641Z</time></trkpt><trkpt lat="42.5102164" lon="18.3881134"><ele>107.66666666666667</ele><time>2026-05-04T11:22:06.641Z</time></trkpt><trkpt lat="42.5102278" lon="18.3878195"><ele>109.0</ele><time>2026-05-04T11:22:07.641Z</time></trkpt><trkpt lat="42.5102432" lon="18.3875256"><ele>109.0</ele><time>2026-05-04T11:22:08.64Z</time></trkpt><trkpt lat="42.5102622" lon="18.3872366"><ele>109.0</ele><time>2026-05-04T11:22:09.64Z</time></trkpt><trkpt lat="42.5102884" lon="18.3869544"><ele>109.0</ele><time>2026-05-04T11:22:10.64Z</time></trkpt><trkpt lat="42.5103308" lon="18.3866883"><ele>108.66666666666667</ele><time>2026-05-04T11:22:11.641Z</time></trkpt><trkpt lat="42.5103944" lon="18.3864355"><ele>108.33333333333334</ele><time>2026-05-04T11:22:12.641Z</time></trkpt><trkpt lat="42.5104816" lon="18.3861947"><ele>108.0</ele><time>2026-05-04T11:22:13.64Z</time></trkpt><trkpt lat="42.5105865" lon="18.385956"><ele>106.33333333333334</ele><time>2026-05-04T11:22:14.641Z</time></trkpt><trkpt lat="42.5107095" lon="18.385731"><ele>104.66666666666667</ele><time>2026-05-04T11:22:15.641Z</time></trkpt><trkpt lat="42.5108403" lon="18.3855121"><ele>103.0</ele><time>2026-05-04T11:22:16.64Z</time></trkpt><trkpt lat="42.5109745" lon="18.3853003"><ele>103.0</ele><time>2026-05-04T11:22:17.64Z</time></trkpt><trkpt lat="42.5111093" lon="18.3850924"><ele>103.0</ele><time>2026-05-04T11:22:18.64Z</time></trkpt><trkpt lat="42.5112459" lon="18.3848806"><ele>103.0</ele><time>2026-05-04T11:22:19.641Z</time></trkpt><trkpt lat="42.5113758" lon="18.3846659"><ele>101.0</ele><time>2026-05-04T11:22:20.64Z</time></trkpt><trkpt lat="42.5115034" lon="18.3844493"><ele>99.0</ele><time>2026-05-04T11:22:21.641Z</time></trkpt><trkpt lat="42.5116221" lon="18.3842283"><ele>97.0</ele><time>2026-05-04T11:22:22.64Z</time></trkpt><trkpt lat="42.5117355" lon="18.384001"><ele>99.66666666666667</ele><time>2026-05-04T11:22:23.64Z</time></trkpt><trkpt lat="42.5118419" lon="18.3837657"><ele>102.33333333333334</ele><time>2026-05-04T11:22:24.641Z</time></trkpt><trkpt lat="42.511943" lon="18.3835273"><ele>105.0</ele><time>2026-05-04T11:22:25.641Z</time></trkpt><trkpt lat="42.5120408" lon="18.3832872"><ele>100.0</ele><time>2026-05-04T11:22:26.64Z</time></trkpt><trkpt lat="42.5121339" lon="18.3830441"><ele>95.0</ele><time>2026-05-04T11:22:27.641Z</time></trkpt><trkpt lat="42.5122257" lon="18.3828017"><ele>90.0</ele><time>2026-05-04T11:22:28.64Z</time></trkpt><trkpt lat="42.5123177" lon="18.3825521"><ele>90.0</ele><time>2026-05-04T11:22:29.641Z</time></trkpt><trkpt lat="42.5124035" lon="18.3823098"><ele>90.0</ele><time>2026-05-04T11:22:30.641Z</time></trkpt><trkpt lat="42.5124851" lon="18.3820787"><ele>90.0</ele><time>2026-05-04T11:22:31.64Z</time></trkpt><trkpt lat="42.5125589" lon="18.381858"><ele>90.66666666666667</ele><time>2026-05-04T11:22:32.641Z</time></trkpt><trkpt lat="42.5126264" lon="18.3816443"><ele>91.33333333333334</ele><time>2026-05-04T11:22:33.64Z</time></trkpt><trkpt lat="42.5126883" lon="18.3814364"><ele>92.0</ele><time>2026-05-04T11:22:34.64Z</time></trkpt><trkpt lat="42.5127507" lon="18.3812342"><ele>93.66666666666667</ele><time>2026-05-04T11:22:35.64Z</time></trkpt><trkpt lat="42.5128091" lon="18.3810255"><ele>95.33333333333334</ele><time>2026-05-04T11:22:36.641Z</time></trkpt><trkpt lat="42.5128676" lon="18.3808007"><ele>97.0</ele><time>2026-05-04T11:22:37.64Z</time></trkpt><trkpt lat="42.5129236" lon="18.3805599"><ele>93.33333333333334</ele><time>2026-05-04T11:22:38.64Z</time></trkpt><trkpt lat="42.5129731" lon="18.3803173"><ele>89.66666666666667</ele><time>2026-05-04T11:22:39.641Z</time></trkpt><trkpt lat="42.5130155" lon="18.3800748"><ele>86.0</ele><time>2026-05-04T11:22:40.64Z</time></trkpt><trkpt lat="42.5130567" lon="18.3798292"><ele>86.66666666666667</ele><time>2026-05-04T11:22:41.64Z</time></trkpt><trkpt lat="42.5131019" lon="18.3795831"><ele>87.33333333333333</ele><time>2026-05-04T11:22:42.64Z</time></trkpt><trkpt lat="42.5131513" lon="18.3793378"><ele>88.0</ele><time>2026-05-04T11:22:43.64Z</time></trkpt><trkpt lat="42.5132062" lon="18.3790955"><ele>88.0</ele><time>2026-05-04T11:22:44.64Z</time></trkpt><trkpt lat="42.5132689" lon="18.3788531"><ele>88.0</ele><time>2026-05-04T11:22:45.641Z</time></trkpt><trkpt lat="42.5133419" lon="18.3786145"><ele>88.0</ele><time>2026-05-04T11:22:46.64Z</time></trkpt><trkpt lat="42.5134295" lon="18.3783818"><ele>88.33333333333333</ele><time>2026-05-04T11:22:47.64Z</time></trkpt><trkpt lat="42.5135314" lon="18.3781469"><ele>88.66666666666667</ele><time>2026-05-04T11:22:48.641Z</time></trkpt><trkpt lat="42.5136441" lon="18.3779239"><ele>89.0</ele><time>2026-05-04T11:22:49.64Z</time></trkpt><trkpt lat="42.5137635" lon="18.3777043"><ele>88.0</ele><time>2026-05-04T11:22:50.641Z</time></trkpt><trkpt lat="42.5138882" lon="18.3774848"><ele>87.0</ele><time>2026-05-04T11:22:51.64Z</time></trkpt><trkpt lat="42.5140137" lon="18.3772635"><ele>86.0</ele><time>2026-05-04T11:22:52.64Z</time></trkpt><trkpt lat="42.5141418" lon="18.3770404"><ele>88.33333333333334</ele><time>2026-05-04T11:22:53.641Z</time></trkpt><trkpt lat="42.5142629" lon="18.3768186"><ele>90.66666666666667</ele><time>2026-05-04T11:22:54.64Z</time></trkpt><trkpt lat="42.5143788" lon="18.3765967"><ele>93.0</ele><time>2026-05-04T11:22:55.641Z</time></trkpt><trkpt lat="42.5144973" lon="18.3763695"><ele>90.0</ele><time>2026-05-04T11:22:56.64Z</time></trkpt><trkpt lat="42.5146064" lon="18.3761478"><ele>87.0</ele><time>2026-05-04T11:22:57.641Z</time></trkpt><trkpt lat="42.5147063" lon="18.3759295"><ele>84.0</ele><time>2026-05-04T11:22:58.641Z</time></trkpt><trkpt lat="42.5148013" lon="18.3757156"><ele>85.33333333333333</ele><time>2026-05-04T11:22:59.641Z</time></trkpt><trkpt lat="42.5148882" lon="18.3755114"><ele>86.66666666666666</ele><time>2026-05-04T11:23:00.641Z</time></trkpt><trkpt lat="42.5149708" lon="18.3753143"><ele>88.0</ele><time>2026-05-04T11:23:01.641Z</time></trkpt><trkpt lat="42.5150446" lon="18.3751268"><ele>88.0</ele><time>2026-05-04T11:23:02.641Z</time></trkpt><trkpt lat="42.5151118" lon="18.3749624"><ele>88.0</ele><time>2026-05-04T11:23:03.64Z</time></trkpt><trkpt lat="42.515175" lon="18.3748012"><ele>88.0</ele><time>2026-05-04T11:23:04.641Z</time></trkpt><trkpt lat="42.5152293" lon="18.3746508"><ele>88.0</ele><time>2026-05-04T11:23:05.64Z</time></trkpt><trkpt lat="42.5152823" lon="18.3745065"><ele>88.5</ele><time>2026-05-04T11:23:06.641Z</time></trkpt><trkpt lat="42.5153333" lon="18.3743593"><ele>89.0</ele><time>2026-05-04T11:23:07.641Z</time></trkpt><trkpt lat="42.515386" lon="18.3742128"><ele>89.5</ele><time>2026-05-04T11:23:08.641Z</time></trkpt><trkpt lat="42.5154403" lon="18.3740677"><ele>90.0</ele><time>2026-05-04T11:23:09.64Z</time></trkpt><trkpt lat="42.5154956" lon="18.3739202"><ele>88.5</ele><time>2026-05-04T11:23:10.64Z</time></trkpt><trkpt lat="42.5155492" lon="18.3737693"><ele>87.0</ele><time>2026-05-04T11:23:11.64Z</time></trkpt><trkpt lat="42.5156" lon="18.3736112"><ele>85.5</ele><time>2026-05-04T11:23:12.64Z</time></trkpt><trkpt lat="42.5156554" lon="18.3734463"><ele>84.0</ele><time>2026-05-04T11:23:13.641Z</time></trkpt><trkpt lat="42.5157116" lon="18.3732714"><ele>84.0</ele><time>2026-05-04T11:23:14.641Z</time></trkpt><trkpt lat="42.5157648" lon="18.3731022"><ele>84.0</ele><time>2026-05-04T11:23:15.641Z</time></trkpt><trkpt lat="42.5158161" lon="18.3729273"><ele>84.0</ele><time>2026-05-04T11:23:16.64Z</time></trkpt><trkpt lat="42.5158663" lon="18.3727347"><ele>84.0</ele><time>2026-05-04T11:23:17.64Z</time></trkpt><trkpt lat="42.5159152" lon="18.3725523"><ele>84.25</ele><time>2026-05-04T11:23:18.641Z</time></trkpt><trkpt lat="42.515964" lon="18.3723697"><ele>84.5</ele><time>2026-05-04T11:23:19.64Z</time></trkpt><trkpt lat="42.5160128" lon="18.3721816"><ele>84.75</ele><time>2026-05-04T11:23:20.64Z</time></trkpt><trkpt lat="42.5160631" lon="18.3719978"><ele>85.0</ele><time>2026-05-04T11:23:21.64Z</time></trkpt><trkpt lat="42.5161099" lon="18.3718097"><ele>85.0</ele><time>2026-05-04T11:23:22.641Z</time></trkpt><trkpt lat="42.5161546" lon="18.3716189"><ele>85.0</ele><time>2026-05-04T11:23:23.641Z</time></trkpt><trkpt lat="42.516198" lon="18.3714285"><ele>85.0</ele><time>2026-05-04T11:23:24.641Z</time></trkpt><trkpt lat="42.5162444" lon="18.3712376"><ele>85.0</ele><time>2026-05-04T11:23:25.64Z</time></trkpt><trkpt lat="42.5162911" lon="18.3710434"><ele>83.0</ele><time>2026-05-04T11:23:26.64Z</time></trkpt><trkpt lat="42.516336" lon="18.370845"><ele>81.0</ele><time>2026-05-04T11:23:27.641Z</time></trkpt><trkpt lat="42.5163841" lon="18.3706397"><ele>79.0</ele><time>2026-05-04T11:23:28.64Z</time></trkpt><trkpt lat="42.5164303" lon="18.3704351"><ele>79.0</ele><time>2026-05-04T11:23:29.641Z</time></trkpt><trkpt lat="42.5164774" lon="18.3702263"><ele>79.0</ele><time>2026-05-04T11:23:30.641Z</time></trkpt><trkpt lat="42.5165231" lon="18.3700131"><ele>79.0</ele><time>2026-05-04T11:23:31.641Z</time></trkpt><trkpt lat="42.5165685" lon="18.3697925"><ele>79.66666666666666</ele><time>2026-05-04T11:23:32.64Z</time></trkpt><trkpt lat="42.5166148" lon="18.3695718"><ele>80.33333333333333</ele><time>2026-05-04T11:23:33.64Z</time></trkpt><trkpt lat="42.5166623" lon="18.3693435"><ele>81.0</ele><time>2026-05-04T11:23:34.641Z</time></trkpt><trkpt lat="42.5167052" lon="18.369117"><ele>81.0</ele><time>2026-05-04T11:23:35.64Z</time></trkpt><trkpt lat="42.5167474" lon="18.3688966"><ele>81.0</ele><time>2026-05-04T11:23:36.641Z</time></trkpt><trkpt lat="42.5167928" lon="18.3686756"><ele>81.0</ele><time>2026-05-04T11:23:37.64Z</time></trkpt><trkpt lat="42.5168354" lon="18.3684531"><ele>81.0</ele><time>2026-05-04T11:23:38.64Z</time></trkpt><trkpt lat="42.5168781" lon="18.3682342"><ele>81.0</ele><time>2026-05-04T11:23:39.641Z</time></trkpt><trkpt lat="42.5169201" lon="18.3680159"><ele>81.0</ele><time>2026-05-04T11:23:40.641Z</time></trkpt><trkpt lat="42.5169616" lon="18.3678021"><ele>81.0</ele><time>2026-05-04T11:23:41.64Z</time></trkpt><trkpt lat="42.5170051" lon="18.3675878"><ele>81.0</ele><time>2026-05-04T11:23:42.64Z</time></trkpt><trkpt lat="42.5170517" lon="18.3673763"><ele>81.0</ele><time>2026-05-04T11:23:43.64Z</time></trkpt><trkpt lat="42.5171038" lon="18.3671686"><ele>78.0</ele><time>2026-05-04T11:23:44.641Z</time></trkpt><trkpt lat="42.517169" lon="18.3669478"><ele>75.0</ele><time>2026-05-04T11:23:45.64Z</time></trkpt><trkpt lat="42.5172346" lon="18.3667337"><ele>72.0</ele><time>2026-05-04T11:23:46.64Z</time></trkpt><trkpt lat="42.517316" lon="18.3665116"><ele>73.0</ele><time>2026-05-04T11:23:47.641Z</time></trkpt><trkpt lat="42.5173981" lon="18.3662908"><ele>74.0</ele><time>2026-05-04T11:23:48.641Z</time></trkpt><trkpt lat="42.517484" lon="18.3660662"><ele>75.0</ele><time>2026-05-04T11:23:49.641Z</time></trkpt><trkpt lat="42.5175672" lon="18.3658424"><ele>75.0</ele><time>2026-05-04T11:23:50.641Z</time></trkpt><trkpt lat="42.5176437" lon="18.3656195"><ele>75.0</ele><time>2026-05-04T11:23:51.641Z</time></trkpt><trkpt lat="42.5177115" lon="18.3654002"><ele>75.0</ele><time>2026-05-04T11:23:52.641Z</time></trkpt><trkpt lat="42.5177686" lon="18.3651811"><ele>75.66666666666667</ele><time>2026-05-04T11:23:53.641Z</time></trkpt><trkpt lat="42.5178109" lon="18.3649604"><ele>76.33333333333334</ele><time>2026-05-04T11:23:54.641Z</time></trkpt><trkpt lat="42.5178415" lon="18.3647397"><ele>77.0</ele><time>2026-05-04T11:23:55.641Z</time></trkpt><trkpt lat="42.5178603" lon="18.3645202"><ele>77.66666666666667</ele><time>2026-05-04T11:23:56.64Z</time></trkpt><trkpt lat="42.5178748" lon="18.3643031"><ele>78.33333333333333</ele><time>2026-05-04T11:23:57.64Z</time></trkpt><trkpt lat="42.5178761" lon="18.3640855"><ele>79.0</ele><time>2026-05-04T11:23:58.64Z</time></trkpt><trkpt lat="42.5178674" lon="18.3638709"><ele>78.66666666666666</ele><time>2026-05-04T11:23:59.64Z</time></trkpt><trkpt lat="42.5178489" lon="18.3636582"><ele>78.33333333333333</ele><time>2026-05-04T11:24:00.641Z</time></trkpt><trkpt lat="42.5178229" lon="18.3634412"><ele>78.0</ele><time>2026-05-04T11:24:01.64Z</time></trkpt><trkpt lat="42.517788" lon="18.3632109"><ele>76.33333333333333</ele><time>2026-05-04T11:24:02.641Z</time></trkpt><trkpt lat="42.5177418" lon="18.3629627"><ele>74.66666666666666</ele><time>2026-05-04T11:24:03.64Z</time></trkpt><trkpt lat="42.5176829" lon="18.3626985"><ele>73.0</ele><time>2026-05-04T11:24:04.64Z</time></trkpt><trkpt lat="42.5176202" lon="18.3624285"><ele>71.66666666666666</ele><time>2026-05-04T11:24:05.641Z</time></trkpt><trkpt lat="42.5175582" lon="18.3621535"><ele>70.33333333333333</ele><time>2026-05-04T11:24:06.641Z</time></trkpt><trkpt lat="42.5175039" lon="18.3618783"><ele>69.0</ele><time>2026-05-04T11:24:07.641Z</time></trkpt><trkpt lat="42.5174515" lon="18.3616139"><ele>68.66666666666667</ele><time>2026-05-04T11:24:08.641Z</time></trkpt><trkpt lat="42.5174078" lon="18.3613514"><ele>68.33333333333334</ele><time>2026-05-04T11:24:09.64Z</time></trkpt><trkpt lat="42.5173722" lon="18.3610867"><ele>68.0</ele><time>2026-05-04T11:24:10.64Z</time></trkpt><trkpt lat="42.5173391" lon="18.3608287"><ele>68.0</ele><time>2026-05-04T11:24:11.64Z</time></trkpt><trkpt lat="42.5173114" lon="18.3605687"><ele>68.0</ele><time>2026-05-04T11:24:12.64Z</time></trkpt><trkpt lat="42.5172985" lon="18.3603033"><ele>68.0</ele><time>2026-05-04T11:24:13.641Z</time></trkpt><trkpt lat="42.5172861" lon="18.3600402"><ele>67.0</ele><time>2026-05-04T11:24:14.641Z</time></trkpt><trkpt lat="42.5172826" lon="18.3597898"><ele>66.0</ele><time>2026-05-04T11:24:15.641Z</time></trkpt><trkpt lat="42.5172839" lon="18.3595312"><ele>65.0</ele><time>2026-05-04T11:24:16.641Z</time></trkpt><trkpt lat="42.51729" lon="18.3592719"><ele>65.0</ele><time>2026-05-04T11:24:17.641Z</time></trkpt><trkpt lat="42.5173039" lon="18.359014"><ele>65.0</ele><time>2026-05-04T11:24:18.641Z</time></trkpt><trkpt lat="42.5173254" lon="18.358757"><ele>65.0</ele><time>2026-05-04T11:24:19.641Z</time></trkpt><trkpt lat="42.5173535" lon="18.3585"><ele>65.0</ele><time>2026-05-04T11:24:20.64Z</time></trkpt><trkpt lat="42.5173874" lon="18.3582408"><ele>65.0</ele><time>2026-05-04T11:24:21.641Z</time></trkpt><trkpt lat="42.5174257" lon="18.3579759"><ele>65.0</ele><time>2026-05-04T11:24:22.64Z</time></trkpt><trkpt lat="42.5174687" lon="18.3577157"><ele>65.0</ele><time>2026-05-04T11:24:23.64Z</time></trkpt><trkpt lat="42.5175182" lon="18.3574559"><ele>65.0</ele><time>2026-05-04T11:24:24.64Z</time></trkpt><trkpt lat="42.5175663" lon="18.3571944"><ele>65.0</ele><time>2026-05-04T11:24:25.64Z</time></trkpt><trkpt lat="42.5176118" lon="18.3569322"><ele>65.0</ele><time>2026-05-04T11:24:26.641Z</time></trkpt><trkpt lat="42.5176603" lon="18.3566656"><ele>65.0</ele><time>2026-05-04T11:24:27.64Z</time></trkpt><trkpt lat="42.5177154" lon="18.3563954"><ele>65.0</ele><time>2026-05-04T11:24:28.64Z</time></trkpt><trkpt lat="42.5177761" lon="18.3561232"><ele>66.33333333333334</ele><time>2026-05-04T11:24:29.64Z</time></trkpt><trkpt lat="42.5178427" lon="18.355847"><ele>67.66666666666667</ele><time>2026-05-04T11:24:30.641Z</time></trkpt><trkpt lat="42.5179152" lon="18.3555741"><ele>69.0</ele><time>2026-05-04T11:24:31.64Z</time></trkpt><trkpt lat="42.5179938" lon="18.3553033"><ele>66.33333333333333</ele><time>2026-05-04T11:24:32.641Z</time></trkpt><trkpt lat="42.5180803" lon="18.3550351"><ele>63.666666666666664</ele><time>2026-05-04T11:24:33.641Z</time></trkpt><trkpt lat="42.5181642" lon="18.3547721"><ele>61.0</ele><time>2026-05-04T11:24:34.64Z</time></trkpt><trkpt lat="42.5182633" lon="18.3545067"><ele>61.0</ele><time>2026-05-04T11:24:35.64Z</time></trkpt><trkpt lat="42.518369" lon="18.3542443"><ele>61.0</ele><time>2026-05-04T11:24:36.641Z</time></trkpt><trkpt lat="42.5184767" lon="18.3539694"><ele>65.5</ele><time>2026-05-04T11:24:37.64Z</time></trkpt><trkpt lat="42.5185937" lon="18.353687"><ele>70.0</ele><time>2026-05-04T11:24:38.641Z</time></trkpt><trkpt lat="42.518713" lon="18.353395"><ele>65.0</ele><time>2026-05-04T11:24:39.641Z</time></trkpt><trkpt lat="42.5188389" lon="18.3530925"><ele>60.0</ele><time>2026-05-04T11:24:40.641Z</time></trkpt><trkpt lat="42.518972" lon="18.3527843"><ele>60.0</ele><time>2026-05-04T11:24:41.641Z</time></trkpt><trkpt lat="42.519103" lon="18.3524707"><ele>60.0</ele><time>2026-05-04T11:24:42.64Z</time></trkpt><trkpt lat="42.5192423" lon="18.3521368"><ele>63.5</ele><time>2026-05-04T11:24:43.64Z</time></trkpt><trkpt lat="42.5193797" lon="18.351819"><ele>67.0</ele><time>2026-05-04T11:24:44.641Z</time></trkpt><trkpt lat="42.5195138" lon="18.3515024"><ele>60.5</ele><time>2026-05-04T11:24:45.641Z</time></trkpt><trkpt lat="42.5196484" lon="18.3511872"><ele>54.0</ele><time>2026-05-04T11:24:46.641Z</time></trkpt><trkpt lat="42.5197812" lon="18.3508748"><ele>54.0</ele><time>2026-05-04T11:24:47.64Z</time></trkpt><trkpt lat="42.5199125" lon="18.3505657"><ele>54.0</ele><time>2026-05-04T11:24:48.641Z</time></trkpt><trkpt lat="42.5200412" lon="18.35026"><ele>58.0</ele><time>2026-05-04T11:24:49.641Z</time></trkpt><trkpt lat="42.5201668" lon="18.3499564"><ele>62.0</ele><time>2026-05-04T11:24:50.641Z</time></trkpt><trkpt lat="42.5202876" lon="18.3496639"><ele>57.5</ele><time>2026-05-04T11:24:51.64Z</time></trkpt><trkpt lat="42.5204084" lon="18.3493685"><ele>53.0</ele><time>2026-05-04T11:24:52.641Z</time></trkpt><trkpt lat="42.520523" lon="18.3490903"><ele>55.0</ele><time>2026-05-04T11:24:53.64Z</time></trkpt><trkpt lat="42.5206359" lon="18.3488366"><ele>57.0</ele><time>2026-05-04T11:24:54.64Z</time></trkpt><trkpt lat="42.5207344" lon="18.3485926"><ele>59.0</ele><time>2026-05-04T11:24:55.64Z</time></trkpt><trkpt lat="42.5208371" lon="18.3483378"><ele>59.0</ele><time>2026-05-04T11:24:56.64Z</time></trkpt><trkpt lat="42.5209438" lon="18.3480737"><ele>59.0</ele><time>2026-05-04T11:24:57.641Z</time></trkpt><trkpt lat="42.5210519" lon="18.3478037"><ele>59.0</ele><time>2026-05-04T11:24:58.641Z</time></trkpt><trkpt lat="42.5211608" lon="18.3475288"><ele>56.0</ele><time>2026-05-04T11:24:59.641Z</time></trkpt><trkpt lat="42.521273" lon="18.3472495"><ele>53.0</ele><time>2026-05-04T11:25:00.64Z</time></trkpt><trkpt lat="42.5213831" lon="18.3469689"><ele>53.0</ele><time>2026-05-04T11:25:01.64Z</time></trkpt><trkpt lat="42.5214961" lon="18.3466892"><ele>53.0</ele><time>2026-05-04T11:25:02.641Z</time></trkpt><trkpt lat="42.5216087" lon="18.3464123"><ele>56.5</ele><time>2026-05-04T11:25:03.641Z</time></trkpt><trkpt lat="42.5217191" lon="18.346137"><ele>60.0</ele><time>2026-05-04T11:25:04.641Z</time></trkpt><trkpt lat="42.52183" lon="18.3458608"><ele>60.0</ele><time>2026-05-04T11:25:05.64Z</time></trkpt><trkpt lat="42.521938" lon="18.3455841"><ele>60.0</ele><time>2026-05-04T11:25:06.64Z</time></trkpt><trkpt lat="42.5220466" lon="18.3453092"><ele>55.0</ele><time>2026-05-04T11:25:07.641Z</time></trkpt><trkpt lat="42.5221608" lon="18.3450329"><ele>50.0</ele><time>2026-05-04T11:25:08.641Z</time></trkpt><trkpt lat="42.5222745" lon="18.344759"><ele>53.5</ele><time>2026-05-04T11:25:09.641Z</time></trkpt><trkpt lat="42.522389" lon="18.344484"><ele>57.0</ele><time>2026-05-04T11:25:10.641Z</time></trkpt><trkpt lat="42.5225045" lon="18.3442096"><ele>57.0</ele><time>2026-05-04T11:25:11.641Z</time></trkpt><trkpt lat="42.5226224" lon="18.3439333"><ele>57.0</ele><time>2026-05-04T11:25:12.64Z</time></trkpt><trkpt lat="42.5227392" lon="18.3436569"><ele>53.5</ele><time>2026-05-04T11:25:13.64Z</time></trkpt><trkpt lat="42.5228586" lon="18.3433846"><ele>50.0</ele><time>2026-05-04T11:25:14.641Z</time></trkpt><trkpt lat="42.5229801" lon="18.3431096"><ele>53.5</ele><time>2026-05-04T11:25:15.641Z</time></trkpt><trkpt lat="42.5231039" lon="18.342837"><ele>57.0</ele><time>2026-05-04T11:25:16.64Z</time></trkpt><trkpt lat="42.5232291" lon="18.3425653"><ele>57.0</ele><time>2026-05-04T11:25:17.641Z</time></trkpt><trkpt lat="42.5233541" lon="18.3422942"><ele>57.0</ele><time>2026-05-04T11:25:18.641Z</time></trkpt><trkpt lat="42.5234806" lon="18.3420274"><ele>54.0</ele><time>2026-05-04T11:25:19.64Z</time></trkpt><trkpt lat="42.5236053" lon="18.341761"><ele>51.0</ele><time>2026-05-04T11:25:20.641Z</time></trkpt><trkpt lat="42.5237329" lon="18.3414951"><ele>55.5</ele><time>2026-05-04T11:25:21.641Z</time></trkpt><trkpt lat="42.5238624" lon="18.3412302"><ele>60.0</ele><time>2026-05-04T11:25:22.64Z</time></trkpt><trkpt lat="42.5239918" lon="18.340969"><ele>60.0</ele><time>2026-05-04T11:25:23.64Z</time></trkpt><trkpt lat="42.5241199" lon="18.3407021"><ele>60.0</ele><time>2026-05-04T11:25:24.641Z</time></trkpt><trkpt lat="42.5242564" lon="18.3404493"><ele>66.0</ele><time>2026-05-04T11:25:25.641Z</time></trkpt><trkpt lat="42.5243922" lon="18.3401882"><ele>72.0</ele><time>2026-05-04T11:25:26.64Z</time></trkpt><trkpt lat="42.5245325" lon="18.3399303"><ele>67.0</ele><time>2026-05-04T11:25:27.64Z</time></trkpt><trkpt lat="42.5246782" lon="18.3396914"><ele>62.0</ele><time>2026-05-04T11:25:28.641Z</time></trkpt><trkpt lat="42.5248361" lon="18.3394462"><ele>62.0</ele><time>2026-05-04T11:25:29.641Z</time></trkpt><trkpt lat="42.5250017" lon="18.3391947"><ele>62.0</ele><time>2026-05-04T11:25:30.64Z</time></trkpt><trkpt lat="42.5251741" lon="18.338935"><ele>57.0</ele><time>2026-05-04T11:25:31.64Z</time></trkpt><trkpt lat="42.5253542" lon="18.33867"><ele>52.0</ele><time>2026-05-04T11:25:32.641Z</time></trkpt><trkpt lat="42.5255426" lon="18.3383992"><ele>52.0</ele><time>2026-05-04T11:25:33.641Z</time></trkpt><trkpt lat="42.5257316" lon="18.3381232"><ele>52.0</ele><time>2026-05-04T11:25:34.64Z</time></trkpt><trkpt lat="42.5259274" lon="18.3378406"><ele>50.0</ele><time>2026-05-04T11:25:35.641Z</time></trkpt><trkpt lat="42.5261259" lon="18.3375558"><ele>48.0</ele><time>2026-05-04T11:25:36.64Z</time></trkpt><trkpt lat="42.5263234" lon="18.3372745"><ele>55.0</ele><time>2026-05-04T11:25:37.64Z</time></trkpt><trkpt lat="42.5265207" lon="18.3369962"><ele>62.0</ele><time>2026-05-04T11:25:38.64Z</time></trkpt><trkpt lat="42.5267168" lon="18.3367241"><ele>62.0</ele><time>2026-05-04T11:25:39.641Z</time></trkpt><trkpt lat="42.5269117" lon="18.3364555"><ele>62.0</ele><time>2026-05-04T11:25:40.64Z</time></trkpt><trkpt lat="42.5271044" lon="18.3361922"><ele>59.0</ele><time>2026-05-04T11:25:41.64Z</time></trkpt><trkpt lat="42.5272918" lon="18.3359344"><ele>56.0</ele><time>2026-05-04T11:25:42.64Z</time></trkpt><trkpt lat="42.527472" lon="18.3356912"><ele>65.0</ele><time>2026-05-04T11:25:43.641Z</time></trkpt><trkpt lat="42.5276439" lon="18.3354586"><ele>74.0</ele><time>2026-05-04T11:25:44.641Z</time></trkpt><trkpt lat="42.5278105" lon="18.3352369"><ele>62.0</ele><time>2026-05-04T11:25:45.64Z</time></trkpt><trkpt lat="42.5279707" lon="18.3350125"><ele>50.0</ele><time>2026-05-04T11:25:46.641Z</time></trkpt><trkpt lat="42.5281306" lon="18.334787"><ele>58.5</ele><time>2026-05-04T11:25:47.64Z</time></trkpt><trkpt lat="42.5282871" lon="18.3345577"><ele>67.0</ele><time>2026-05-04T11:25:48.64Z</time></trkpt><trkpt lat="42.52844" lon="18.3343188"><ele>67.0</ele><time>2026-05-04T11:25:49.641Z</time></trkpt><trkpt lat="42.5285896" lon="18.3340618"><ele>67.0</ele><time>2026-05-04T11:25:50.64Z</time></trkpt><trkpt lat="42.528734" lon="18.3337931"><ele>59.5</ele><time>2026-05-04T11:25:51.641Z</time></trkpt><trkpt lat="42.5288719" lon="18.3335139"><ele>52.0</ele><time>2026-05-04T11:25:52.641Z</time></trkpt><trkpt lat="42.5290025" lon="18.3332349"><ele>56.5</ele><time>2026-05-04T11:25:53.641Z</time></trkpt><trkpt lat="42.5291209" lon="18.332958"><ele>61.0</ele><time>2026-05-04T11:25:54.641Z</time></trkpt><trkpt lat="42.5292282" lon="18.3326847"><ele>61.0</ele><time>2026-05-04T11:25:55.64Z</time></trkpt><trkpt lat="42.5293281" lon="18.3324071"><ele>61.0</ele><time>2026-05-04T11:25:56.64Z</time></trkpt><trkpt lat="42.529423" lon="18.3321429"><ele>61.0</ele><time>2026-05-04T11:25:57.64Z</time></trkpt><trkpt lat="42.5295142" lon="18.3318792"><ele>59.666666666666664</ele><time>2026-05-04T11:25:58.641Z</time></trkpt><trkpt lat="42.5296061" lon="18.3316133"><ele>58.33333333333333</ele><time>2026-05-04T11:25:59.641Z</time></trkpt><trkpt lat="42.5297011" lon="18.3313455"><ele>57.0</ele><time>2026-05-04T11:26:00.641Z</time></trkpt><trkpt lat="42.5297972" lon="18.3310768"><ele>57.0</ele><time>2026-05-04T11:26:01.641Z</time></trkpt><trkpt lat="42.5298981" lon="18.3308101"><ele>57.0</ele><time>2026-05-04T11:26:02.641Z</time></trkpt><trkpt lat="42.5300054" lon="18.3305438"><ele>57.0</ele><time>2026-05-04T11:26:03.64Z</time></trkpt><trkpt lat="42.5301257" lon="18.3302736"><ele>55.5</ele><time>2026-05-04T11:26:04.641Z</time></trkpt><trkpt lat="42.5302561" lon="18.3300006"><ele>54.0</ele><time>2026-05-04T11:26:05.641Z</time></trkpt><trkpt lat="42.5303948" lon="18.3297228"><ele>54.0</ele><time>2026-05-04T11:26:06.641Z</time></trkpt><trkpt lat="42.5305398" lon="18.3294401"><ele>54.0</ele><time>2026-05-04T11:26:07.64Z</time></trkpt><trkpt lat="42.5306904" lon="18.32915"><ele>60.5</ele><time>2026-05-04T11:26:08.641Z</time></trkpt><trkpt lat="42.5308457" lon="18.3288535"><ele>67.0</ele><time>2026-05-04T11:26:09.641Z</time></trkpt><trkpt lat="42.5310061" lon="18.3285508"><ele>67.0</ele><time>2026-05-04T11:26:10.64Z</time></trkpt><trkpt lat="42.531165" lon="18.3282429"><ele>67.0</ele><time>2026-05-04T11:26:11.64Z</time></trkpt><trkpt lat="42.5313257" lon="18.3279322"><ele>63.0</ele><time>2026-05-04T11:26:12.641Z</time></trkpt><trkpt lat="42.531485" lon="18.3276196"><ele>59.0</ele><time>2026-05-04T11:26:13.641Z</time></trkpt><trkpt lat="42.5316385" lon="18.3273064"><ele>67.0</ele><time>2026-05-04T11:26:14.641Z</time></trkpt><trkpt lat="42.5317935" lon="18.3270068"><ele>75.0</ele><time>2026-05-04T11:26:15.641Z</time></trkpt><trkpt lat="42.5319486" lon="18.3267061"><ele>67.0</ele><time>2026-05-04T11:26:16.64Z</time></trkpt><trkpt lat="42.5321013" lon="18.326397"><ele>59.0</ele><time>2026-05-04T11:26:17.641Z</time></trkpt><trkpt lat="42.5322581" lon="18.3260907"><ele>59.0</ele><time>2026-05-04T11:26:18.64Z</time></trkpt><trkpt lat="42.5324157" lon="18.3257905"><ele>59.0</ele><time>2026-05-04T11:26:19.64Z</time></trkpt><trkpt lat="42.5325735" lon="18.3254911"><ele>54.0</ele><time>2026-05-04T11:26:20.641Z</time></trkpt><trkpt lat="42.5327316" lon="18.325194"><ele>49.0</ele><time>2026-05-04T11:26:21.64Z</time></trkpt><trkpt lat="42.532891" lon="18.3248984"><ele>54.0</ele><time>2026-05-04T11:26:22.64Z</time></trkpt><trkpt lat="42.5330513" lon="18.3246085"><ele>59.0</ele><time>2026-05-04T11:26:23.641Z</time></trkpt><trkpt lat="42.5332064" lon="18.32432"><ele>59.0</ele><time>2026-05-04T11:26:24.64Z</time></trkpt><trkpt lat="42.5333595" lon="18.3240392"><ele>59.0</ele><time>2026-05-04T11:26:25.641Z</time></trkpt><trkpt lat="42.5335086" lon="18.323762"><ele>56.0</ele><time>2026-05-04T11:26:26.64Z</time></trkpt><trkpt lat="42.5336567" lon="18.323483"><ele>53.0</ele><time>2026-05-04T11:26:27.64Z</time></trkpt><trkpt lat="42.5337987" lon="18.3232029"><ele>59.0</ele><time>2026-05-04T11:26:28.641Z</time></trkpt><trkpt lat="42.5339375" lon="18.3229206"><ele>65.0</ele><time>2026-05-04T11:26:29.641Z</time></trkpt><trkpt lat="42.5340734" lon="18.3226355"><ele>65.0</ele><time>2026-05-04T11:26:30.641Z</time></trkpt><trkpt lat="42.5342021" lon="18.3223497"><ele>65.0</ele><time>2026-05-04T11:26:31.641Z</time></trkpt><trkpt lat="42.5343299" lon="18.322063"><ele>59.5</ele><time>2026-05-04T11:26:32.641Z</time></trkpt><trkpt lat="42.5344529" lon="18.3217905"><ele>54.0</ele><time>2026-05-04T11:26:33.64Z</time></trkpt><trkpt lat="42.5345759" lon="18.3215006"><ele>58.5</ele><time>2026-05-04T11:26:34.641Z</time></trkpt><trkpt lat="42.5346981" lon="18.3212277"><ele>63.0</ele><time>2026-05-04T11:26:35.64Z</time></trkpt><trkpt lat="42.534825" lon="18.3209664"><ele>63.0</ele><time>2026-05-04T11:26:36.64Z</time></trkpt><trkpt lat="42.5349611" lon="18.3207189"><ele>63.0</ele><time>2026-05-04T11:26:37.641Z</time></trkpt><trkpt lat="42.5350967" lon="18.3204736"><ele>60.0</ele><time>2026-05-04T11:26:38.64Z</time></trkpt><trkpt lat="42.5352469" lon="18.3202477"><ele>57.0</ele><time>2026-05-04T11:26:39.641Z</time></trkpt><trkpt lat="42.5354198" lon="18.3200203"><ele>57.0</ele><time>2026-05-04T11:26:40.641Z</time></trkpt><trkpt lat="42.5356005" lon="18.3197912"><ele>57.0</ele><time>2026-05-04T11:26:41.641Z</time></trkpt><trkpt lat="42.5357881" lon="18.3195543"><ele>63.5</ele><time>2026-05-04T11:26:42.64Z</time></trkpt><trkpt lat="42.5359865" lon="18.3193139"><ele>70.0</ele><time>2026-05-04T11:26:43.641Z</time></trkpt><trkpt lat="42.5361933" lon="18.3190756"><ele>72.5</ele><time>2026-05-04T11:26:44.641Z</time></trkpt><trkpt lat="42.5364003" lon="18.3188338"><ele>75.0</ele><time>2026-05-04T11:26:45.641Z</time></trkpt><trkpt lat="42.5366062" lon="18.3185774"><ele>75.0</ele><time>2026-05-04T11:26:46.64Z</time></trkpt><trkpt lat="42.5368112" lon="18.3183096"><ele>75.0</ele><time>2026-05-04T11:26:47.64Z</time></trkpt><trkpt lat="42.5370045" lon="18.3180454"><ele>74.0</ele><time>2026-05-04T11:26:48.641Z</time></trkpt><trkpt lat="42.5371906" lon="18.3177834"><ele>73.0</ele><time>2026-05-04T11:26:49.641Z</time></trkpt><trkpt lat="42.53737" lon="18.3175305"><ele>73.0</ele><time>2026-05-04T11:26:50.641Z</time></trkpt><trkpt lat="42.5375401" lon="18.3172852"><ele>73.0</ele><time>2026-05-04T11:26:51.64Z</time></trkpt><trkpt lat="42.5376997" lon="18.3170435"><ele>71.0</ele><time>2026-05-04T11:26:52.64Z</time></trkpt><trkpt lat="42.5378521" lon="18.3168076"><ele>69.0</ele><time>2026-05-04T11:26:53.641Z</time></trkpt><trkpt lat="42.5379965" lon="18.3165798"><ele>72.66666666666667</ele><time>2026-05-04T11:26:54.641Z</time></trkpt><trkpt lat="42.538146" lon="18.3163669"><ele>76.33333333333334</ele><time>2026-05-04T11:26:55.641Z</time></trkpt><trkpt lat="42.5382915" lon="18.3161418"><ele>80.0</ele><time>2026-05-04T11:26:56.641Z</time></trkpt><trkpt lat="42.5384426" lon="18.3159011"><ele>80.0</ele><time>2026-05-04T11:26:57.64Z</time></trkpt><trkpt lat="42.5385928" lon="18.3156606"><ele>80.0</ele><time>2026-05-04T11:26:58.641Z</time></trkpt><trkpt lat="42.5387487" lon="18.3154119"><ele>75.5</ele><time>2026-05-04T11:26:59.64Z</time></trkpt><trkpt lat="42.5389085" lon="18.3151581"><ele>71.0</ele><time>2026-05-04T11:27:00.64Z</time></trkpt><trkpt lat="42.5390786" lon="18.3148906"><ele>78.0</ele><time>2026-05-04T11:27:01.641Z</time></trkpt><trkpt lat="42.5392457" lon="18.3146223"><ele>85.0</ele><time>2026-05-04T11:27:02.64Z</time></trkpt><trkpt lat="42.5394183" lon="18.314354"><ele>81.0</ele><time>2026-05-04T11:27:03.641Z</time></trkpt><trkpt lat="42.5395919" lon="18.3140774"><ele>77.0</ele><time>2026-05-04T11:27:04.641Z</time></trkpt><trkpt lat="42.5397654" lon="18.3137994"><ele>77.0</ele><time>2026-05-04T11:27:05.641Z</time></trkpt><trkpt lat="42.5399407" lon="18.3135208"><ele>77.0</ele><time>2026-05-04T11:27:06.64Z</time></trkpt><trkpt lat="42.5401166" lon="18.3132404"><ele>77.5</ele><time>2026-05-04T11:27:07.64Z</time></trkpt><trkpt lat="42.5402897" lon="18.3129587"><ele>78.0</ele><time>2026-05-04T11:27:08.641Z</time></trkpt><trkpt lat="42.5404719" lon="18.3126627"><ele>78.0</ele><time>2026-05-04T11:27:09.64Z</time></trkpt><trkpt lat="42.5406452" lon="18.3123928"><ele>78.0</ele><time>2026-05-04T11:27:10.641Z</time></trkpt><trkpt lat="42.5408182" lon="18.3121175"><ele>85.5</ele><time>2026-05-04T11:27:11.641Z</time></trkpt><trkpt lat="42.5409844" lon="18.3118559"><ele>93.0</ele><time>2026-05-04T11:27:12.641Z</time></trkpt><trkpt lat="42.5411515" lon="18.3115899"><ele>89.0</ele><time>2026-05-04T11:27:13.64Z</time></trkpt><trkpt lat="42.5413107" lon="18.3113243"><ele>85.0</ele><time>2026-05-04T11:27:14.64Z</time></trkpt><trkpt lat="42.5414697" lon="18.3110488"><ele>85.0</ele><time>2026-05-04T11:27:15.64Z</time></trkpt><trkpt lat="42.5416209" lon="18.3107849"><ele>85.0</ele><time>2026-05-04T11:27:16.641Z</time></trkpt><trkpt lat="42.5417657" lon="18.3105194"><ele>91.0</ele><time>2026-05-04T11:27:17.64Z</time></trkpt><trkpt lat="42.5419018" lon="18.3102479"><ele>97.0</ele><time>2026-05-04T11:27:18.641Z</time></trkpt><trkpt lat="42.5420313" lon="18.3099732"><ele>91.0</ele><time>2026-05-04T11:27:19.641Z</time></trkpt><trkpt lat="42.5421558" lon="18.3096893"><ele>85.0</ele><time>2026-05-04T11:27:20.641Z</time></trkpt><trkpt lat="42.5422766" lon="18.3093965"><ele>85.0</ele><time>2026-05-04T11:27:21.64Z</time></trkpt><trkpt lat="42.5423923" lon="18.3090976"><ele>85.0</ele><time>2026-05-04T11:27:22.64Z</time></trkpt><trkpt lat="42.5424995" lon="18.3087923"><ele>92.0</ele><time>2026-05-04T11:27:23.641Z</time></trkpt><trkpt lat="42.5426023" lon="18.3084784"><ele>99.0</ele><time>2026-05-04T11:27:24.641Z</time></trkpt><trkpt lat="42.5426993" lon="18.3081666"><ele>93.5</ele><time>2026-05-04T11:27:25.64Z</time></trkpt><trkpt lat="42.5427989" lon="18.307842"><ele>88.0</ele><time>2026-05-04T11:27:26.641Z</time></trkpt><trkpt lat="42.5428934" lon="18.3075235"><ele>94.0</ele><time>2026-05-04T11:27:27.641Z</time></trkpt><trkpt lat="42.5429797" lon="18.3072099"><ele>100.0</ele><time>2026-05-04T11:27:28.641Z</time></trkpt><trkpt lat="42.5430649" lon="18.306903"><ele>100.0</ele><time>2026-05-04T11:27:29.64Z</time></trkpt><trkpt lat="42.5431514" lon="18.3066017"><ele>100.0</ele><time>2026-05-04T11:27:30.64Z</time></trkpt><trkpt lat="42.5432463" lon="18.306312"><ele>104.0</ele><time>2026-05-04T11:27:31.641Z</time></trkpt><trkpt lat="42.5433577" lon="18.3060389"><ele>108.0</ele><time>2026-05-04T11:27:32.64Z</time></trkpt><trkpt lat="42.5434758" lon="18.305773"><ele>107.5</ele><time>2026-05-04T11:27:33.641Z</time></trkpt><trkpt lat="42.5436132" lon="18.3055243"><ele>107.0</ele><time>2026-05-04T11:27:34.641Z</time></trkpt><trkpt lat="42.5437668" lon="18.3052857"><ele>107.0</ele><time>2026-05-04T11:27:35.64Z</time></trkpt><trkpt lat="42.5439316" lon="18.3050536"><ele>107.0</ele><time>2026-05-04T11:27:36.641Z</time></trkpt><trkpt lat="42.544101" lon="18.3048248"><ele>113.5</ele><time>2026-05-04T11:27:37.64Z</time></trkpt><trkpt lat="42.5442702" lon="18.3045969"><ele>120.0</ele><time>2026-05-04T11:27:38.641Z</time></trkpt><trkpt lat="42.5444344" lon="18.3043606"><ele>117.5</ele><time>2026-05-04T11:27:39.64Z</time></trkpt><trkpt lat="42.5445904" lon="18.3041131"><ele>115.0</ele><time>2026-05-04T11:27:40.641Z</time></trkpt><trkpt lat="42.544736" lon="18.3038571"><ele>115.0</ele><time>2026-05-04T11:27:41.641Z</time></trkpt><trkpt lat="42.5448658" lon="18.3035847"><ele>115.0</ele><time>2026-05-04T11:27:42.64Z</time></trkpt><trkpt lat="42.5449818" lon="18.3032997"><ele>120.0</ele><time>2026-05-04T11:27:43.64Z</time></trkpt><trkpt lat="42.5450802" lon="18.3030061"><ele>125.0</ele><time>2026-05-04T11:27:44.64Z</time></trkpt><trkpt lat="42.5451715" lon="18.3027009"><ele>125.0</ele><time>2026-05-04T11:27:45.64Z</time></trkpt><trkpt lat="42.5452546" lon="18.3023921"><ele>125.0</ele><time>2026-05-04T11:27:46.64Z</time></trkpt><trkpt lat="42.5453387" lon="18.3020867"><ele>121.5</ele><time>2026-05-04T11:27:47.64Z</time></trkpt><trkpt lat="42.5454229" lon="18.3017829"><ele>118.0</ele><time>2026-05-04T11:27:48.64Z</time></trkpt><trkpt lat="42.5455077" lon="18.3014849"><ele>122.0</ele><time>2026-05-04T11:27:49.641Z</time></trkpt><trkpt lat="42.5455914" lon="18.3011868"><ele>126.0</ele><time>2026-05-04T11:27:50.641Z</time></trkpt><trkpt lat="42.5456783" lon="18.3008938"><ele>126.0</ele><time>2026-05-04T11:27:51.64Z</time></trkpt><trkpt lat="42.5457746" lon="18.3006063"><ele>126.0</ele><time>2026-05-04T11:27:52.641Z</time></trkpt><trkpt lat="42.5458846" lon="18.3003298"><ele>131.5</ele><time>2026-05-04T11:27:53.641Z</time></trkpt><trkpt lat="42.5460163" lon="18.3000672"><ele>137.0</ele><time>2026-05-04T11:27:54.64Z</time></trkpt><trkpt lat="42.5461565" lon="18.2998093"><ele>137.5</ele><time>2026-05-04T11:27:55.641Z</time></trkpt><trkpt lat="42.5463182" lon="18.2995585"><ele>138.0</ele><time>2026-05-04T11:27:56.641Z</time></trkpt><trkpt lat="42.5464887" lon="18.2993191"><ele>138.0</ele><time>2026-05-04T11:27:57.64Z</time></trkpt><trkpt lat="42.5466673" lon="18.2990809"><ele>138.0</ele><time>2026-05-04T11:27:58.641Z</time></trkpt><trkpt lat="42.5468446" lon="18.2988457"><ele>136.0</ele><time>2026-05-04T11:27:59.641Z</time></trkpt><trkpt lat="42.5470209" lon="18.2986117"><ele>134.0</ele><time>2026-05-04T11:28:00.64Z</time></trkpt><trkpt lat="42.5471978" lon="18.298377"><ele>134.0</ele><time>2026-05-04T11:28:01.64Z</time></trkpt><trkpt lat="42.5473736" lon="18.2981439"><ele>134.0</ele><time>2026-05-04T11:28:02.64Z</time></trkpt><trkpt lat="42.5475478" lon="18.2979081"><ele>132.5</ele><time>2026-05-04T11:28:03.64Z</time></trkpt><trkpt lat="42.5477163" lon="18.2976675"><ele>131.0</ele><time>2026-05-04T11:28:04.641Z</time></trkpt><trkpt lat="42.5478805" lon="18.2974168"><ele>134.5</ele><time>2026-05-04T11:28:05.64Z</time></trkpt><trkpt lat="42.5480333" lon="18.297159"><ele>138.0</ele><time>2026-05-04T11:28:06.64Z</time></trkpt><trkpt lat="42.5481751" lon="18.2968876"><ele>138.0</ele><time>2026-05-04T11:28:07.641Z</time></trkpt><trkpt lat="42.5483052" lon="18.2966082"><ele>138.0</ele><time>2026-05-04T11:28:08.64Z</time></trkpt><trkpt lat="42.5484254" lon="18.2963222"><ele>140.5</ele><time>2026-05-04T11:28:09.64Z</time></trkpt><trkpt lat="42.5485338" lon="18.2960288"><ele>143.0</ele><time>2026-05-04T11:28:10.64Z</time></trkpt><trkpt lat="42.5486286" lon="18.2957246"><ele>140.0</ele><time>2026-05-04T11:28:11.64Z</time></trkpt><trkpt lat="42.5487118" lon="18.29541"><ele>137.0</ele><time>2026-05-04T11:28:12.641Z</time></trkpt><trkpt lat="42.5487905" lon="18.2950802"><ele>137.5</ele><time>2026-05-04T11:28:13.64Z</time></trkpt><trkpt lat="42.5488603" lon="18.2947388"><ele>138.0</ele><time>2026-05-04T11:28:14.641Z</time></trkpt><trkpt lat="42.5489233" lon="18.2943923"><ele>138.0</ele><time>2026-05-04T11:28:15.64Z</time></trkpt><trkpt lat="42.548985" lon="18.2940503"><ele>138.0</ele><time>2026-05-04T11:28:16.64Z</time></trkpt><trkpt lat="42.5490483" lon="18.2937135"><ele>139.0</ele><time>2026-05-04T11:28:17.641Z</time></trkpt><trkpt lat="42.5491179" lon="18.2933822"><ele>140.0</ele><time>2026-05-04T11:28:18.64Z</time></trkpt><trkpt lat="42.549197" lon="18.293051"><ele>141.5</ele><time>2026-05-04T11:28:19.64Z</time></trkpt><trkpt lat="42.5492888" lon="18.2927203"><ele>143.0</ele><time>2026-05-04T11:28:20.641Z</time></trkpt><trkpt lat="42.5493962" lon="18.2923899"><ele>142.0</ele><time>2026-05-04T11:28:21.64Z</time></trkpt><trkpt lat="42.5495147" lon="18.2920637"><ele>141.0</ele><time>2026-05-04T11:28:22.641Z</time></trkpt><trkpt lat="42.5496377" lon="18.2917336"><ele>143.5</ele><time>2026-05-04T11:28:23.641Z</time></trkpt><trkpt lat="42.5497573" lon="18.2914038"><ele>146.0</ele><time>2026-05-04T11:28:24.641Z</time></trkpt><trkpt lat="42.5498728" lon="18.2910777"><ele>146.0</ele><time>2026-05-04T11:28:25.641Z</time></trkpt><trkpt lat="42.549975" lon="18.2907568"><ele>146.0</ele><time>2026-05-04T11:28:26.64Z</time></trkpt><trkpt lat="42.5500672" lon="18.2904356"><ele>148.0</ele><time>2026-05-04T11:28:27.64Z</time></trkpt><trkpt lat="42.5501484" lon="18.2901123"><ele>150.0</ele><time>2026-05-04T11:28:28.64Z</time></trkpt><trkpt lat="42.5502214" lon="18.2897885"><ele>152.0</ele><time>2026-05-04T11:28:29.64Z</time></trkpt><trkpt lat="42.5502772" lon="18.289468"><ele>154.0</ele><time>2026-05-04T11:28:30.64Z</time></trkpt><trkpt lat="42.5503213" lon="18.2891548"><ele>154.0</ele><time>2026-05-04T11:28:31.64Z</time></trkpt><trkpt lat="42.5503479" lon="18.2888658"><ele>154.0</ele><time>2026-05-04T11:28:32.64Z</time></trkpt><trkpt lat="42.5503625" lon="18.2886034"><ele>154.0</ele><time>2026-05-04T11:28:33.64Z</time></trkpt><trkpt lat="42.5503798" lon="18.2883607"><ele>152.66666666666669</ele><time>2026-05-04T11:28:34.64Z</time></trkpt><trkpt lat="42.5503903" lon="18.2881298"><ele>151.33333333333334</ele><time>2026-05-04T11:28:35.64Z</time></trkpt><trkpt lat="42.5503983" lon="18.2879054"><ele>150.0</ele><time>2026-05-04T11:28:36.64Z</time></trkpt><trkpt lat="42.5504042" lon="18.2876942"><ele>150.0</ele><time>2026-05-04T11:28:37.64Z</time></trkpt><trkpt lat="42.5504092" lon="18.2874962"><ele>150.0</ele><time>2026-05-04T11:28:38.64Z</time></trkpt><trkpt lat="42.5504146" lon="18.2873016"><ele>150.0</ele><time>2026-05-04T11:28:39.641Z</time></trkpt><trkpt lat="42.5504197" lon="18.2871094"><ele>150.0</ele><time>2026-05-04T11:28:40.641Z</time></trkpt><trkpt lat="42.550423" lon="18.2869183"><ele>150.5</ele><time>2026-05-04T11:28:41.641Z</time></trkpt><trkpt lat="42.5504251" lon="18.2867304"><ele>151.0</ele><time>2026-05-04T11:28:42.64Z</time></trkpt><trkpt lat="42.5504327" lon="18.2865449"><ele>151.5</ele><time>2026-05-04T11:28:43.641Z</time></trkpt><trkpt lat="42.5504451" lon="18.2863674"><ele>152.0</ele><time>2026-05-04T11:28:44.64Z</time></trkpt><trkpt lat="42.5504572" lon="18.2861942"><ele>153.25</ele><time>2026-05-04T11:28:45.64Z</time></trkpt><trkpt lat="42.5504742" lon="18.2860212"><ele>154.5</ele><time>2026-05-04T11:28:46.64Z</time></trkpt><trkpt lat="42.5504937" lon="18.2858486"><ele>155.75</ele><time>2026-05-04T11:28:47.64Z</time></trkpt><trkpt lat="42.5505183" lon="18.2856779"><ele>157.0</ele><time>2026-05-04T11:28:48.641Z</time></trkpt><trkpt lat="42.5505479" lon="18.2855117"><ele>157.0</ele><time>2026-05-04T11:28:49.641Z</time></trkpt><trkpt lat="42.5505846" lon="18.2853441"><ele>157.0</ele><time>2026-05-04T11:28:50.64Z</time></trkpt><trkpt lat="42.5506183" lon="18.2851751"><ele>157.0</ele><time>2026-05-04T11:28:51.641Z</time></trkpt><trkpt lat="42.5506508" lon="18.2850066"><ele>157.0</ele><time>2026-05-04T11:28:52.641Z</time></trkpt><trkpt lat="42.5506864" lon="18.2848355"><ele>156.75</ele><time>2026-05-04T11:28:53.64Z</time></trkpt><trkpt lat="42.5507249" lon="18.2846636"><ele>156.5</ele><time>2026-05-04T11:28:54.64Z</time></trkpt><trkpt lat="42.5507789" lon="18.2844862"><ele>156.25</ele><time>2026-05-04T11:28:55.641Z</time></trkpt><trkpt lat="42.5508249" lon="18.2843097"><ele>156.0</ele><time>2026-05-04T11:28:56.641Z</time></trkpt><trkpt lat="42.5508686" lon="18.2841324"><ele>156.0</ele><time>2026-05-04T11:28:57.64Z</time></trkpt><trkpt lat="42.5509133" lon="18.2839527"><ele>156.0</ele><time>2026-05-04T11:28:58.641Z</time></trkpt><trkpt lat="42.5509572" lon="18.2837685"><ele>156.0</ele><time>2026-05-04T11:28:59.64Z</time></trkpt><trkpt lat="42.5510024" lon="18.2835793"><ele>156.0</ele><time>2026-05-04T11:29:00.641Z</time></trkpt><trkpt lat="42.5510463" lon="18.2833864"><ele>155.66666666666666</ele><time>2026-05-04T11:29:01.641Z</time></trkpt><trkpt lat="42.5510941" lon="18.283186"><ele>155.33333333333331</ele><time>2026-05-04T11:29:02.641Z</time></trkpt><trkpt lat="42.5511408" lon="18.2829902"><ele>155.0</ele><time>2026-05-04T11:29:03.641Z</time></trkpt><trkpt lat="42.5511904" lon="18.2827873"><ele>154.66666666666666</ele><time>2026-05-04T11:29:04.64Z</time></trkpt><trkpt lat="42.5512374" lon="18.2825802"><ele>154.33333333333334</ele><time>2026-05-04T11:29:05.64Z</time></trkpt><trkpt lat="42.5512892" lon="18.2823694"><ele>154.0</ele><time>2026-05-04T11:29:06.64Z</time></trkpt><trkpt lat="42.5513423" lon="18.282154"><ele>153.0</ele><time>2026-05-04T11:29:07.64Z</time></trkpt><trkpt lat="42.5513956" lon="18.2819386"><ele>152.0</ele><time>2026-05-04T11:29:08.641Z</time></trkpt><trkpt lat="42.5514487" lon="18.2817209"><ele>151.0</ele><time>2026-05-04T11:29:09.64Z</time></trkpt><trkpt lat="42.5515001" lon="18.2814998"><ele>150.66666666666669</ele><time>2026-05-04T11:29:10.64Z</time></trkpt><trkpt lat="42.5515551" lon="18.2812779"><ele>150.33333333333334</ele><time>2026-05-04T11:29:11.64Z</time></trkpt><trkpt lat="42.5516104" lon="18.2810507"><ele>150.0</ele><time>2026-05-04T11:29:12.641Z</time></trkpt><trkpt lat="42.551668" lon="18.2808198"><ele>148.66666666666666</ele><time>2026-05-04T11:29:13.64Z</time></trkpt><trkpt lat="42.5517247" lon="18.2805831"><ele>147.33333333333331</ele><time>2026-05-04T11:29:14.64Z</time></trkpt><trkpt lat="42.5517822" lon="18.2803463"><ele>146.0</ele><time>2026-05-04T11:29:15.64Z</time></trkpt><trkpt lat="42.551843" lon="18.2801104"><ele>146.0</ele><time>2026-05-04T11:29:16.641Z</time></trkpt><trkpt lat="42.5519013" lon="18.2798731"><ele>146.0</ele><time>2026-05-04T11:29:17.64Z</time></trkpt><trkpt lat="42.5519615" lon="18.2796247"><ele>146.0</ele><time>2026-05-04T11:29:18.64Z</time></trkpt><trkpt lat="42.5520245" lon="18.2793776"><ele>146.66666666666666</ele><time>2026-05-04T11:29:19.641Z</time></trkpt><trkpt lat="42.5520924" lon="18.2791077"><ele>147.33333333333334</ele><time>2026-05-04T11:29:20.641Z</time></trkpt><trkpt lat="42.5521471" lon="18.2788498"><ele>148.0</ele><time>2026-05-04T11:29:21.64Z</time></trkpt><trkpt lat="42.5522122" lon="18.2786033"><ele>148.0</ele><time>2026-05-04T11:29:22.64Z</time></trkpt><trkpt lat="42.5522755" lon="18.2783613"><ele>148.0</ele><time>2026-05-04T11:29:23.64Z</time></trkpt><trkpt lat="42.5523362" lon="18.2781183"><ele>148.0</ele><time>2026-05-04T11:29:24.64Z</time></trkpt><trkpt lat="42.5523971" lon="18.2778787"><ele>148.33333333333334</ele><time>2026-05-04T11:29:25.64Z</time></trkpt><trkpt lat="42.5524607" lon="18.2776362"><ele>148.66666666666666</ele><time>2026-05-04T11:29:26.641Z</time></trkpt><trkpt lat="42.5525233" lon="18.2774107"><ele>149.0</ele><time>2026-05-04T11:29:27.641Z</time></trkpt><trkpt lat="42.5525844" lon="18.2771784"><ele>149.66666666666666</ele><time>2026-05-04T11:29:28.641Z</time></trkpt><trkpt lat="42.5526483" lon="18.2769512"><ele>150.33333333333334</ele><time>2026-05-04T11:29:29.641Z</time></trkpt><trkpt lat="42.5527171" lon="18.2767235"><ele>151.0</ele><time>2026-05-04T11:29:30.64Z</time></trkpt><trkpt lat="42.5527871" lon="18.2765"><ele>151.0</ele><time>2026-05-04T11:29:31.641Z</time></trkpt><trkpt lat="42.5528554" lon="18.276285"><ele>151.0</ele><time>2026-05-04T11:29:32.641Z</time></trkpt><trkpt lat="42.5529259" lon="18.2760844"><ele>151.0</ele><time>2026-05-04T11:29:33.641Z</time></trkpt><trkpt lat="42.552988" lon="18.2758934"><ele>151.25</ele><time>2026-05-04T11:29:34.641Z</time></trkpt><trkpt lat="42.553048" lon="18.2757122"><ele>151.5</ele><time>2026-05-04T11:29:35.641Z</time></trkpt><trkpt lat="42.5531095" lon="18.2755405"><ele>151.75</ele><time>2026-05-04T11:29:36.64Z</time></trkpt><trkpt lat="42.5531739" lon="18.2753735"><ele>152.0</ele><time>2026-05-04T11:29:37.641Z</time></trkpt><trkpt lat="42.5532365" lon="18.2752102"><ele>152.0</ele><time>2026-05-04T11:29:38.64Z</time></trkpt><trkpt lat="42.553299" lon="18.2750534"><ele>152.0</ele><time>2026-05-04T11:29:39.641Z</time></trkpt><trkpt lat="42.5533637" lon="18.2748959"><ele>152.0</ele><time>2026-05-04T11:29:40.641Z</time></trkpt><trkpt lat="42.5534353" lon="18.27474"><ele>152.0</ele><time>2026-05-04T11:29:41.64Z</time></trkpt><trkpt lat="42.5535049" lon="18.2745795"><ele>151.75</ele><time>2026-05-04T11:29:42.641Z</time></trkpt><trkpt lat="42.5535767" lon="18.2744185"><ele>151.5</ele><time>2026-05-04T11:29:43.64Z</time></trkpt><trkpt lat="42.5536508" lon="18.2742576"><ele>151.25</ele><time>2026-05-04T11:29:44.64Z</time></trkpt><trkpt lat="42.5537288" lon="18.2740986"><ele>151.0</ele><time>2026-05-04T11:29:45.641Z</time></trkpt><trkpt lat="42.5538028" lon="18.273939"><ele>150.25</ele><time>2026-05-04T11:29:46.64Z</time></trkpt><trkpt lat="42.5538832" lon="18.2737772"><ele>149.5</ele><time>2026-05-04T11:29:47.641Z</time></trkpt><trkpt lat="42.5539662" lon="18.2736201"><ele>148.75</ele><time>2026-05-04T11:29:48.64Z</time></trkpt><trkpt lat="42.5540503" lon="18.2734626"><ele>148.0</ele><time>2026-05-04T11:29:49.641Z</time></trkpt><trkpt lat="42.5541373" lon="18.2733038"><ele>148.0</ele><time>2026-05-04T11:29:50.641Z</time></trkpt><trkpt lat="42.554224" lon="18.2731457"><ele>148.0</ele><time>2026-05-04T11:29:51.64Z</time></trkpt><trkpt lat="42.5543129" lon="18.272986"><ele>148.0</ele><time>2026-05-04T11:29:52.64Z</time></trkpt><trkpt lat="42.5544029" lon="18.2728268"><ele>148.0</ele><time>2026-05-04T11:29:53.641Z</time></trkpt><trkpt lat="42.5544935" lon="18.2726657"><ele>149.33333333333334</ele><time>2026-05-04T11:29:54.641Z</time></trkpt><trkpt lat="42.5545872" lon="18.2725015"><ele>150.66666666666666</ele><time>2026-05-04T11:29:55.64Z</time></trkpt><trkpt lat="42.5546836" lon="18.2723405"><ele>152.0</ele><time>2026-05-04T11:29:56.64Z</time></trkpt><trkpt lat="42.5547864" lon="18.2721794"><ele>152.0</ele><time>2026-05-04T11:29:57.64Z</time></trkpt><trkpt lat="42.5548872" lon="18.2720195"><ele>152.0</ele><time>2026-05-04T11:29:58.64Z</time></trkpt><trkpt lat="42.5549892" lon="18.2718545"><ele>152.0</ele><time>2026-05-04T11:29:59.641Z</time></trkpt><trkpt lat="42.5550967" lon="18.2716941"><ele>152.0</ele><time>2026-05-04T11:30:00.64Z</time></trkpt><trkpt lat="42.5552017" lon="18.2715357"><ele>152.0</ele><time>2026-05-04T11:30:01.641Z</time></trkpt><trkpt lat="42.5553047" lon="18.2713768"><ele>152.0</ele><time>2026-05-04T11:30:02.64Z</time></trkpt><trkpt lat="42.5554083" lon="18.2712191"><ele>152.66666666666666</ele><time>2026-05-04T11:30:03.64Z</time></trkpt><trkpt lat="42.555511" lon="18.2710611"><ele>153.33333333333334</ele><time>2026-05-04T11:30:04.641Z</time></trkpt><trkpt lat="42.5556114" lon="18.2709057"><ele>154.0</ele><time>2026-05-04T11:30:05.641Z</time></trkpt><trkpt lat="42.5557104" lon="18.2707533"><ele>153.66666666666669</ele><time>2026-05-04T11:30:06.64Z</time></trkpt><trkpt lat="42.5558089" lon="18.270599"><ele>153.33333333333334</ele><time>2026-05-04T11:30:07.64Z</time></trkpt><trkpt lat="42.5559109" lon="18.2704482"><ele>153.0</ele><time>2026-05-04T11:30:08.641Z</time></trkpt><trkpt lat="42.5560163" lon="18.2702817"><ele>153.0</ele><time>2026-05-04T11:30:09.64Z</time></trkpt><trkpt lat="42.5561164" lon="18.2701239"><ele>153.0</ele><time>2026-05-04T11:30:10.641Z</time></trkpt><trkpt lat="42.5562182" lon="18.269967"><ele>153.0</ele><time>2026-05-04T11:30:11.64Z</time></trkpt><trkpt lat="42.5563227" lon="18.2698079"><ele>153.0</ele><time>2026-05-04T11:30:12.64Z</time></trkpt><trkpt lat="42.5564268" lon="18.2696488"><ele>153.0</ele><time>2026-05-04T11:30:13.64Z</time></trkpt><trkpt lat="42.5565305" lon="18.2694867"><ele>153.0</ele><time>2026-05-04T11:30:14.641Z</time></trkpt><trkpt lat="42.5566388" lon="18.2693252"><ele>153.0</ele><time>2026-05-04T11:30:15.64Z</time></trkpt><trkpt lat="42.5567435" lon="18.269164"><ele>153.0</ele><time>2026-05-04T11:30:16.641Z</time></trkpt><trkpt lat="42.5568438" lon="18.2689983"><ele>153.0</ele><time>2026-05-04T11:30:17.64Z</time></trkpt><trkpt lat="42.5569455" lon="18.2688302"><ele>152.0</ele><time>2026-05-04T11:30:18.641Z</time></trkpt><trkpt lat="42.5570474" lon="18.2686568"><ele>151.0</ele><time>2026-05-04T11:30:19.641Z</time></trkpt><trkpt lat="42.5571472" lon="18.2684856"><ele>150.0</ele><time>2026-05-04T11:30:20.641Z</time></trkpt><trkpt lat="42.5572462" lon="18.26831"><ele>150.0</ele><time>2026-05-04T11:30:21.64Z</time></trkpt><trkpt lat="42.5573421" lon="18.2681312"><ele>150.0</ele><time>2026-05-04T11:30:22.64Z</time></trkpt><trkpt lat="42.557434" lon="18.2679493"><ele>150.0</ele><time>2026-05-04T11:30:23.64Z</time></trkpt><trkpt lat="42.5575211" lon="18.2677634"><ele>149.33333333333334</ele><time>2026-05-04T11:30:24.641Z</time></trkpt><trkpt lat="42.5576047" lon="18.2675712"><ele>148.66666666666669</ele><time>2026-05-04T11:30:25.64Z</time></trkpt><trkpt lat="42.5576841" lon="18.2673752"><ele>148.0</ele><time>2026-05-04T11:30:26.641Z</time></trkpt><trkpt lat="42.5577619" lon="18.2671731"><ele>147.33333333333334</ele><time>2026-05-04T11:30:27.641Z</time></trkpt><trkpt lat="42.5578335" lon="18.2669674"><ele>146.66666666666666</ele><time>2026-05-04T11:30:28.641Z</time></trkpt><trkpt lat="42.5579033" lon="18.266755"><ele>146.0</ele><time>2026-05-04T11:30:29.641Z</time></trkpt><trkpt lat="42.5579673" lon="18.2665398"><ele>147.33333333333331</ele><time>2026-05-04T11:30:30.64Z</time></trkpt><trkpt lat="42.5580292" lon="18.2663159"><ele>148.66666666666666</ele><time>2026-05-04T11:30:31.64Z</time></trkpt><trkpt lat="42.5580881" lon="18.2660894"><ele>150.0</ele><time>2026-05-04T11:30:32.64Z</time></trkpt><trkpt lat="42.5581421" lon="18.265858"><ele>150.0</ele><time>2026-05-04T11:30:33.64Z</time></trkpt><trkpt lat="42.5581929" lon="18.2656271"><ele>150.0</ele><time>2026-05-04T11:30:34.641Z</time></trkpt><trkpt lat="42.5582432" lon="18.265398"><ele>150.0</ele><time>2026-05-04T11:30:35.641Z</time></trkpt><trkpt lat="42.5582912" lon="18.265171"><ele>149.33333333333334</ele><time>2026-05-04T11:30:36.64Z</time></trkpt><trkpt lat="42.5583369" lon="18.2649391"><ele>148.66666666666669</ele><time>2026-05-04T11:30:37.641Z</time></trkpt><trkpt lat="42.5583778" lon="18.2647125"><ele>148.0</ele><time>2026-05-04T11:30:38.641Z</time></trkpt><trkpt lat="42.558415" lon="18.264482"><ele>147.66666666666669</ele><time>2026-05-04T11:30:39.64Z</time></trkpt><trkpt lat="42.5584479" lon="18.2642527"><ele>147.33333333333334</ele><time>2026-05-04T11:30:40.641Z</time></trkpt><trkpt lat="42.5584856" lon="18.26403"><ele>147.0</ele><time>2026-05-04T11:30:41.64Z</time></trkpt><trkpt lat="42.5585191" lon="18.2638117"><ele>147.0</ele><time>2026-05-04T11:30:42.64Z</time></trkpt><trkpt lat="42.5585552" lon="18.2635931"><ele>147.0</ele><time>2026-05-04T11:30:43.641Z</time></trkpt><trkpt lat="42.5585891" lon="18.263377"><ele>147.0</ele><time>2026-05-04T11:30:44.64Z</time></trkpt><trkpt lat="42.5586232" lon="18.2631616"><ele>147.0</ele><time>2026-05-04T11:30:45.641Z</time></trkpt><trkpt lat="42.5586579" lon="18.2629493"><ele>147.0</ele><time>2026-05-04T11:30:46.64Z</time></trkpt><trkpt lat="42.5586914" lon="18.2627515"><ele>147.0</ele><time>2026-05-04T11:30:47.641Z</time></trkpt><trkpt lat="42.5587309" lon="18.2625604"><ele>147.25</ele><time>2026-05-04T11:30:48.641Z</time></trkpt><trkpt lat="42.5587715" lon="18.2623634"><ele>147.5</ele><time>2026-05-04T11:30:49.64Z</time></trkpt><trkpt lat="42.5588075" lon="18.2621746"><ele>147.75</ele><time>2026-05-04T11:30:50.64Z</time></trkpt><trkpt lat="42.5588366" lon="18.2619953"><ele>148.0</ele><time>2026-05-04T11:30:51.641Z</time></trkpt><trkpt lat="42.5588649" lon="18.2618231"><ele>148.0</ele><time>2026-05-04T11:30:52.641Z</time></trkpt><trkpt lat="42.5588907" lon="18.2616578"><ele>148.0</ele><time>2026-05-04T11:30:53.641Z</time></trkpt><trkpt lat="42.5589206" lon="18.2614744"><ele>148.0</ele><time>2026-05-04T11:30:54.641Z</time></trkpt><trkpt lat="42.558954" lon="18.2612741"><ele>148.0</ele><time>2026-05-04T11:30:55.64Z</time></trkpt><trkpt lat="42.5589882" lon="18.2610726"><ele>148.33333333333334</ele><time>2026-05-04T11:30:56.64Z</time></trkpt><trkpt lat="42.5590246" lon="18.2608648"><ele>148.66666666666666</ele><time>2026-05-04T11:30:57.641Z</time></trkpt><trkpt lat="42.5590682" lon="18.2606523"><ele>149.0</ele><time>2026-05-04T11:30:58.641Z</time></trkpt><trkpt lat="42.5591203" lon="18.2604359"><ele>151.0</ele><time>2026-05-04T11:30:59.641Z</time></trkpt><trkpt lat="42.5591776" lon="18.2602204"><ele>153.0</ele><time>2026-05-04T11:31:00.64Z</time></trkpt><trkpt lat="42.5592378" lon="18.2600108"><ele>155.0</ele><time>2026-05-04T11:31:01.641Z</time></trkpt><trkpt lat="42.5593011" lon="18.2598083"><ele>157.0</ele><time>2026-05-04T11:31:02.641Z</time></trkpt><trkpt lat="42.5593661" lon="18.2596088"><ele>159.0</ele><time>2026-05-04T11:31:03.641Z</time></trkpt><trkpt lat="42.5594358" lon="18.2594093"><ele>161.0</ele><time>2026-05-04T11:31:04.641Z</time></trkpt><trkpt lat="42.5595093" lon="18.2592081"><ele>160.33333333333331</ele><time>2026-05-04T11:31:05.64Z</time></trkpt><trkpt lat="42.5595889" lon="18.2590024"><ele>159.66666666666666</ele><time>2026-05-04T11:31:06.64Z</time></trkpt><trkpt lat="42.5596729" lon="18.2588004"><ele>159.0</ele><time>2026-05-04T11:31:07.64Z</time></trkpt><trkpt lat="42.5597619" lon="18.2585975"><ele>159.0</ele><time>2026-05-04T11:31:08.641Z</time></trkpt><trkpt lat="42.5598562" lon="18.2584003"><ele>159.0</ele><time>2026-05-04T11:31:09.64Z</time></trkpt><trkpt lat="42.5599509" lon="18.2582047"><ele>159.0</ele><time>2026-05-04T11:31:10.641Z</time></trkpt><trkpt lat="42.5600446" lon="18.2580101"><ele>158.33333333333334</ele><time>2026-05-04T11:31:11.641Z</time></trkpt><trkpt lat="42.5601392" lon="18.2578147"><ele>157.66666666666669</ele><time>2026-05-04T11:31:12.641Z</time></trkpt><trkpt lat="42.5602314" lon="18.2576195"><ele>157.0</ele><time>2026-05-04T11:31:13.64Z</time></trkpt><trkpt lat="42.5603237" lon="18.2574244"><ele>156.66666666666669</ele><time>2026-05-04T11:31:14.641Z</time></trkpt><trkpt lat="42.5604167" lon="18.2572291"><ele>156.33333333333334</ele><time>2026-05-04T11:31:15.64Z</time></trkpt><trkpt lat="42.5605099" lon="18.2570349"><ele>156.0</ele><time>2026-05-04T11:31:16.64Z</time></trkpt><trkpt lat="42.5606012" lon="18.2568391"><ele>156.0</ele><time>2026-05-04T11:31:17.64Z</time></trkpt><trkpt lat="42.5606982" lon="18.2566402"><ele>156.0</ele><time>2026-05-04T11:31:18.641Z</time></trkpt><trkpt lat="42.5607943" lon="18.2564443"><ele>156.0</ele><time>2026-05-04T11:31:19.641Z</time></trkpt><trkpt lat="42.5608887" lon="18.2562515"><ele>155.33333333333334</ele><time>2026-05-04T11:31:20.64Z</time></trkpt><trkpt lat="42.5609801" lon="18.2560584"><ele>154.66666666666669</ele><time>2026-05-04T11:31:21.641Z</time></trkpt><trkpt lat="42.5610686" lon="18.2558724"><ele>154.0</ele><time>2026-05-04T11:31:22.64Z</time></trkpt><trkpt lat="42.5611572" lon="18.2556885"><ele>155.33333333333334</ele><time>2026-05-04T11:31:23.64Z</time></trkpt><trkpt lat="42.5612415" lon="18.2555109"><ele>156.66666666666666</ele><time>2026-05-04T11:31:24.64Z</time></trkpt><trkpt lat="42.5613264" lon="18.2553323"><ele>158.0</ele><time>2026-05-04T11:31:25.641Z</time></trkpt><trkpt lat="42.5614133" lon="18.2551544"><ele>158.0</ele><time>2026-05-04T11:31:26.64Z</time></trkpt><trkpt lat="42.5614956" lon="18.2549713"><ele>158.0</ele><time>2026-05-04T11:31:27.64Z</time></trkpt><trkpt lat="42.5615828" lon="18.2547897"><ele>158.0</ele><time>2026-05-04T11:31:28.64Z</time></trkpt><trkpt lat="42.5616707" lon="18.2546104"><ele>158.0</ele><time>2026-05-04T11:31:29.64Z</time></trkpt><trkpt lat="42.5617584" lon="18.2544327"><ele>158.0</ele><time>2026-05-04T11:31:30.641Z</time></trkpt><trkpt lat="42.5618453" lon="18.25424"><ele>158.0</ele><time>2026-05-04T11:31:31.641Z</time></trkpt><trkpt lat="42.5619362" lon="18.2540561"><ele>157.66666666666666</ele><time>2026-05-04T11:31:32.64Z</time></trkpt><trkpt lat="42.5620245" lon="18.2538695"><ele>157.33333333333334</ele><time>2026-05-04T11:31:33.64Z</time></trkpt><trkpt lat="42.5621124" lon="18.2536899"><ele>157.0</ele><time>2026-05-04T11:31:34.64Z</time></trkpt><trkpt lat="42.5621976" lon="18.2534973"><ele>156.66666666666669</ele><time>2026-05-04T11:31:35.64Z</time></trkpt><trkpt lat="42.562283" lon="18.2533192"><ele>156.33333333333334</ele><time>2026-05-04T11:31:36.641Z</time></trkpt><trkpt lat="42.5623704" lon="18.253141"><ele>156.0</ele><time>2026-05-04T11:31:37.64Z</time></trkpt><trkpt lat="42.5624606" lon="18.2529717"><ele>156.0</ele><time>2026-05-04T11:31:38.641Z</time></trkpt><trkpt lat="42.5625448" lon="18.2528075"><ele>156.0</ele><time>2026-05-04T11:31:39.641Z</time></trkpt><trkpt lat="42.5626257" lon="18.2526483"><ele>156.0</ele><time>2026-05-04T11:31:40.641Z</time></trkpt><trkpt lat="42.5627048" lon="18.252484"><ele>156.0</ele><time>2026-05-04T11:31:41.64Z</time></trkpt><trkpt lat="42.5627845" lon="18.2523224"><ele>155.5</ele><time>2026-05-04T11:31:42.64Z</time></trkpt><trkpt lat="42.5628621" lon="18.2521623"><ele>155.0</ele><time>2026-05-04T11:31:43.641Z</time></trkpt><trkpt lat="42.562936" lon="18.2520037"><ele>154.5</ele><time>2026-05-04T11:31:44.64Z</time></trkpt><trkpt lat="42.5630123" lon="18.2518431"><ele>154.0</ele><time>2026-05-04T11:31:45.641Z</time></trkpt><trkpt lat="42.5630864" lon="18.2516832"><ele>154.0</ele><time>2026-05-04T11:31:46.641Z</time></trkpt><trkpt lat="42.5631597" lon="18.2515257"><ele>154.0</ele><time>2026-05-04T11:31:47.641Z</time></trkpt><trkpt lat="42.5632327" lon="18.2513698"><ele>154.0</ele><time>2026-05-04T11:31:48.64Z</time></trkpt><trkpt lat="42.5633045" lon="18.2512037"><ele>154.0</ele><time>2026-05-04T11:31:49.641Z</time></trkpt><trkpt lat="42.5633744" lon="18.2510269"><ele>153.75</ele><time>2026-05-04T11:31:50.641Z</time></trkpt><trkpt lat="42.5634438" lon="18.2508569"><ele>153.5</ele><time>2026-05-04T11:31:51.64Z</time></trkpt><trkpt lat="42.5635096" lon="18.2506809"><ele>153.25</ele><time>2026-05-04T11:31:52.64Z</time></trkpt><trkpt lat="42.5635742" lon="18.2505027"><ele>153.0</ele><time>2026-05-04T11:31:53.641Z</time></trkpt><trkpt lat="42.563636" lon="18.2503261"><ele>152.0</ele><time>2026-05-04T11:31:54.641Z</time></trkpt><trkpt lat="42.5636963" lon="18.2501502"><ele>151.0</ele><time>2026-05-04T11:31:55.64Z</time></trkpt><trkpt lat="42.563753" lon="18.2499757"><ele>150.0</ele><time>2026-05-04T11:31:56.641Z</time></trkpt><trkpt lat="42.5638086" lon="18.2498034"><ele>149.0</ele><time>2026-05-04T11:31:57.641Z</time></trkpt><trkpt lat="42.5638576" lon="18.249633"><ele>149.0</ele><time>2026-05-04T11:31:58.641Z</time></trkpt><trkpt lat="42.5639037" lon="18.2494656"><ele>149.0</ele><time>2026-05-04T11:31:59.64Z</time></trkpt><trkpt lat="42.5639488" lon="18.2492968"><ele>149.0</ele><time>2026-05-04T11:32:00.641Z</time></trkpt><trkpt lat="42.563993" lon="18.2491269"><ele>149.0</ele><time>2026-05-04T11:32:01.64Z</time></trkpt><trkpt lat="42.5640387" lon="18.2489551"><ele>149.25</ele><time>2026-05-04T11:32:02.64Z</time></trkpt><trkpt lat="42.5640782" lon="18.2487786"><ele>149.5</ele><time>2026-05-04T11:32:03.641Z</time></trkpt><trkpt lat="42.5641191" lon="18.2485988"><ele>149.75</ele><time>2026-05-04T11:32:04.641Z</time></trkpt><trkpt lat="42.5641615" lon="18.2484179"><ele>150.0</ele><time>2026-05-04T11:32:05.64Z</time></trkpt><trkpt lat="42.5642054" lon="18.2482311"><ele>149.25</ele><time>2026-05-04T11:32:06.641Z</time></trkpt><trkpt lat="42.5642454" lon="18.248049"><ele>148.5</ele><time>2026-05-04T11:32:07.639Z</time></trkpt><trkpt lat="42.5642921" lon="18.2478568"><ele>147.75</ele><time>2026-05-04T11:32:08.64Z</time></trkpt><trkpt lat="42.5643465" lon="18.2476573"><ele>147.0</ele><time>2026-05-04T11:32:09.64Z</time></trkpt><trkpt lat="42.5644048" lon="18.2474587"><ele>147.33333333333334</ele><time>2026-05-04T11:32:10.64Z</time></trkpt><trkpt lat="42.5644647" lon="18.2472684"><ele>147.66666666666669</ele><time>2026-05-04T11:32:11.64Z</time></trkpt><trkpt lat="42.564528" lon="18.2470763"><ele>148.0</ele><time>2026-05-04T11:32:12.64Z</time></trkpt><trkpt lat="42.5645961" lon="18.246891"><ele>147.0</ele><time>2026-05-04T11:32:13.641Z</time></trkpt><trkpt lat="42.5646706" lon="18.246709"><ele>146.0</ele><time>2026-05-04T11:32:14.641Z</time></trkpt><trkpt lat="42.564753" lon="18.2465315"><ele>145.0</ele><time>2026-05-04T11:32:15.641Z</time></trkpt><trkpt lat="42.5648398" lon="18.2463586"><ele>148.0</ele><time>2026-05-04T11:32:16.641Z</time></trkpt><trkpt lat="42.564933" lon="18.2461886"><ele>151.0</ele><time>2026-05-04T11:32:17.641Z</time></trkpt><trkpt lat="42.5650393" lon="18.2460301"><ele>154.0</ele><time>2026-05-04T11:32:18.641Z</time></trkpt><trkpt lat="42.5651518" lon="18.2458803"><ele>154.0</ele><time>2026-05-04T11:32:19.64Z</time></trkpt><trkpt lat="42.5652732" lon="18.2457404"><ele>154.0</ele><time>2026-05-04T11:32:20.64Z</time></trkpt><trkpt lat="42.5653975" lon="18.2456124"><ele>154.0</ele><time>2026-05-04T11:32:21.641Z</time></trkpt><trkpt lat="42.5655256" lon="18.2454909"><ele>155.0</ele><time>2026-05-04T11:32:22.641Z</time></trkpt><trkpt lat="42.5656599" lon="18.2453837"><ele>156.0</ele><time>2026-05-04T11:32:23.64Z</time></trkpt><trkpt lat="42.5658008" lon="18.2452824"><ele>157.0</ele><time>2026-05-04T11:32:24.641Z</time></trkpt><trkpt lat="42.5659432" lon="18.2452007"><ele>157.0</ele><time>2026-05-04T11:32:25.64Z</time></trkpt><trkpt lat="42.5660825" lon="18.2451271"><ele>157.0</ele><time>2026-05-04T11:32:26.64Z</time></trkpt><trkpt lat="42.5662276" lon="18.245059"><ele>157.0</ele><time>2026-05-04T11:32:27.641Z</time></trkpt><trkpt lat="42.5663837" lon="18.2450101"><ele>155.33333333333334</ele><time>2026-05-04T11:32:28.64Z</time></trkpt><trkpt lat="42.5665325" lon="18.2449672"><ele>153.66666666666666</ele><time>2026-05-04T11:32:29.641Z</time></trkpt><trkpt lat="42.5666848" lon="18.2449346"><ele>152.0</ele><time>2026-05-04T11:32:30.64Z</time></trkpt><trkpt lat="42.5668422" lon="18.2449188"><ele>152.0</ele><time>2026-05-04T11:32:31.64Z</time></trkpt><trkpt lat="42.5670008" lon="18.2449165"><ele>152.0</ele><time>2026-05-04T11:32:32.641Z</time></trkpt><trkpt lat="42.5671603" lon="18.2449239"><ele>152.0</ele><time>2026-05-04T11:32:33.641Z</time></trkpt><trkpt lat="42.5673197" lon="18.244939"><ele>152.66666666666666</ele><time>2026-05-04T11:32:34.64Z</time></trkpt><trkpt lat="42.5674779" lon="18.2449647"><ele>153.33333333333334</ele><time>2026-05-04T11:32:35.641Z</time></trkpt><trkpt lat="42.5676334" lon="18.2449967"><ele>154.0</ele><time>2026-05-04T11:32:36.641Z</time></trkpt><trkpt lat="42.5677882" lon="18.2450322"><ele>154.66666666666669</ele><time>2026-05-04T11:32:37.64Z</time></trkpt><trkpt lat="42.5679407" lon="18.245077"><ele>155.33333333333334</ele><time>2026-05-04T11:32:38.641Z</time></trkpt><trkpt lat="42.5680926" lon="18.2451238"><ele>156.0</ele><time>2026-05-04T11:32:39.64Z</time></trkpt><trkpt lat="42.5682475" lon="18.2451688"><ele>156.0</ele><time>2026-05-04T11:32:40.64Z</time></trkpt><trkpt lat="42.5683926" lon="18.2452209"><ele>156.0</ele><time>2026-05-04T11:32:41.64Z</time></trkpt><trkpt lat="42.5685429" lon="18.2452686"><ele>156.0</ele><time>2026-05-04T11:32:42.64Z</time></trkpt><trkpt lat="42.5686924" lon="18.2453209"><ele>156.0</ele><time>2026-05-04T11:32:43.64Z</time></trkpt><trkpt lat="42.5688404" lon="18.2453578"><ele>156.0</ele><time>2026-05-04T11:32:44.64Z</time></trkpt><trkpt lat="42.5689869" lon="18.2453941"><ele>156.0</ele><time>2026-05-04T11:32:45.64Z</time></trkpt><trkpt lat="42.5691377" lon="18.2454173"><ele>156.0</ele><time>2026-05-04T11:32:46.64Z</time></trkpt><trkpt lat="42.5692844" lon="18.2454363"><ele>156.0</ele><time>2026-05-04T11:32:47.64Z</time></trkpt><trkpt lat="42.5694315" lon="18.2454471"><ele>156.0</ele><time>2026-05-04T11:32:48.64Z</time></trkpt><trkpt lat="42.5695779" lon="18.2454495"><ele>156.0</ele><time>2026-05-04T11:32:49.64Z</time></trkpt><trkpt lat="42.5697243" lon="18.2454353"><ele>155.5</ele><time>2026-05-04T11:32:50.641Z</time></trkpt><trkpt lat="42.569869" lon="18.2454104"><ele>155.0</ele><time>2026-05-04T11:32:51.641Z</time></trkpt><trkpt lat="42.5700129" lon="18.2453652"><ele>154.5</ele><time>2026-05-04T11:32:52.64Z</time></trkpt><trkpt lat="42.5701531" lon="18.245306"><ele>154.0</ele><time>2026-05-04T11:32:53.641Z</time></trkpt><trkpt lat="42.5702917" lon="18.2452283"><ele>151.33333333333334</ele><time>2026-05-04T11:32:54.638Z</time></trkpt><trkpt lat="42.5704274" lon="18.2451332"><ele>148.66666666666666</ele><time>2026-05-04T11:32:55.64Z</time></trkpt><trkpt lat="42.5705606" lon="18.2450259"><ele>146.0</ele><time>2026-05-04T11:32:56.64Z</time></trkpt><trkpt lat="42.5706907" lon="18.2448989"><ele>145.66666666666666</ele><time>2026-05-04T11:32:57.64Z</time></trkpt><trkpt lat="42.5708168" lon="18.2447537"><ele>145.33333333333334</ele><time>2026-05-04T11:32:58.641Z</time></trkpt><trkpt lat="42.5709366" lon="18.244599"><ele>145.0</ele><time>2026-05-04T11:32:59.64Z</time></trkpt><trkpt lat="42.5710573" lon="18.244445"><ele>145.0</ele><time>2026-05-04T11:33:00.64Z</time></trkpt><trkpt lat="42.5711771" lon="18.2442874"><ele>145.0</ele><time>2026-05-04T11:33:01.64Z</time></trkpt><trkpt lat="42.5712934" lon="18.2441244"><ele>145.0</ele><time>2026-05-04T11:33:02.641Z</time></trkpt><trkpt lat="42.5714109" lon="18.2439588"><ele>143.0</ele><time>2026-05-04T11:33:03.639Z</time></trkpt><trkpt lat="42.5715231" lon="18.2437972"><ele>141.0</ele><time>2026-05-04T11:33:04.641Z</time></trkpt><trkpt lat="42.5716328" lon="18.2436415"><ele>139.0</ele><time>2026-05-04T11:33:05.64Z</time></trkpt><trkpt lat="42.5717443" lon="18.2434856"><ele>139.0</ele><time>2026-05-04T11:33:06.641Z</time></trkpt><trkpt lat="42.5718555" lon="18.2433289"><ele>139.0</ele><time>2026-05-04T11:33:07.64Z</time></trkpt><trkpt lat="42.5719627" lon="18.2431762"><ele>139.0</ele><time>2026-05-04T11:33:08.641Z</time></trkpt><trkpt lat="42.572065" lon="18.2430291"><ele>138.75</ele><time>2026-05-04T11:33:09.641Z</time></trkpt><trkpt lat="42.5721682" lon="18.2428804"><ele>138.5</ele><time>2026-05-04T11:33:10.641Z</time></trkpt><trkpt lat="42.5722679" lon="18.2427375"><ele>138.25</ele><time>2026-05-04T11:33:11.641Z</time></trkpt><trkpt lat="42.5723556" lon="18.2426149"><ele>138.0</ele><time>2026-05-04T11:33:12.641Z</time></trkpt><trkpt lat="42.572432" lon="18.2425068"><ele>138.0</ele><time>2026-05-04T11:33:13.64Z</time></trkpt><trkpt lat="42.5724981" lon="18.2424107"><ele>138.0</ele><time>2026-05-04T11:33:14.64Z</time></trkpt><trkpt lat="42.5725586" lon="18.2423239"><ele>138.0</ele><time>2026-05-04T11:33:15.641Z</time></trkpt><trkpt lat="42.5726157" lon="18.2422427"><ele>138.0</ele><time>2026-05-04T11:33:16.641Z</time></trkpt><trkpt lat="42.5726724" lon="18.2421645"><ele>138.0</ele><time>2026-05-04T11:33:17.641Z</time></trkpt><trkpt lat="42.5727294" lon="18.2420823"><ele>138.0</ele><time>2026-05-04T11:33:18.639Z</time></trkpt><trkpt lat="42.5727814" lon="18.242007"><ele>137.66666666666666</ele><time>2026-05-04T11:33:19.641Z</time></trkpt><trkpt lat="42.5728311" lon="18.2419359"><ele>137.33333333333334</ele><time>2026-05-04T11:33:20.64Z</time></trkpt><trkpt lat="42.5728818" lon="18.2418642"><ele>137.0</ele><time>2026-05-04T11:33:21.64Z</time></trkpt><trkpt lat="42.5729293" lon="18.2417983"><ele>136.66666666666669</ele><time>2026-05-04T11:33:22.641Z</time></trkpt><trkpt lat="42.5730067" lon="18.2416929"><ele>136.33333333333334</ele><time>2026-05-04T11:33:24.641Z</time></trkpt><trkpt lat="42.573054" lon="18.2416275"><ele>136.0</ele><time>2026-05-04T11:33:26.64Z</time></trkpt><trkpt lat="42.5731023" lon="18.2415691"><ele>136.66666666666669</ele><time>2026-05-04T11:33:47.641Z</time></trkpt><trkpt lat="42.5731476" lon="18.241509"><ele>137.33333333333334</ele><time>2026-05-04T11:33:50.641Z</time></trkpt><trkpt lat="42.5732059" lon="18.2414358"><ele>138.0</ele><time>2026-05-04T11:34:03.641Z</time></trkpt><trkpt lat="42.5732675" lon="18.2413591"><ele>138.66666666666666</ele><time>2026-05-04T11:34:07.641Z</time></trkpt><trkpt lat="42.5733276" lon="18.2412801"><ele>139.33333333333331</ele><time>2026-05-04T11:34:10.64Z</time></trkpt><trkpt lat="42.5733884" lon="18.2412064"><ele>140.0</ele><time>2026-05-04T11:34:13.64Z</time></trkpt><trkpt lat="42.573448" lon="18.2411325"><ele>138.83333333333331</ele><time>2026-05-04T11:34:16.641Z</time></trkpt><trkpt lat="42.5735061" lon="18.2410537"><ele>137.66666666666666</ele><time>2026-05-04T11:34:19.64Z</time></trkpt><trkpt lat="42.5735631" lon="18.2409857"><ele>136.5</ele><time>2026-05-04T11:34:23.64Z</time></trkpt><trkpt lat="42.5736321" lon="18.2409148"><ele>135.33333333333334</ele><time>2026-05-04T11:34:27.641Z</time></trkpt><trkpt lat="42.5736941" lon="18.2408498"><ele>134.16666666666669</ele><time>2026-05-04T11:34:30.638Z</time></trkpt><trkpt lat="42.5737566" lon="18.2407894"><ele>133.0</ele><time>2026-05-04T11:34:34.639Z</time></trkpt><trkpt lat="42.5738158" lon="18.2407293"><ele>133.0</ele><time>2026-05-04T11:34:53.641Z</time></trkpt><trkpt lat="42.5738774" lon="18.2406661"><ele>133.0</ele><time>2026-05-04T11:34:56.641Z</time></trkpt><trkpt lat="42.5739394" lon="18.2406105"><ele>133.0</ele><time>2026-05-04T11:35:35.641Z</time></trkpt><trkpt lat="42.5740281" lon="18.2405327"><ele>133.0</ele><time>2026-05-04T11:36:22.64Z</time></trkpt><trkpt lat="42.5740899" lon="18.2404887"><ele>133.0</ele><time>2026-05-04T11:36:34.641Z</time></trkpt><trkpt lat="42.5741621" lon="18.240436"><ele>133.0</ele><time>2026-05-04T11:36:37.639Z</time></trkpt><trkpt lat="42.5742189" lon="18.2403961"><ele>131.0</ele><time>2026-05-04T11:36:39.639Z</time></trkpt><trkpt lat="42.5742875" lon="18.2403471"><ele>129.0</ele><time>2026-05-04T11:36:41.64Z</time></trkpt><trkpt lat="42.5743746" lon="18.2402841"><ele>127.0</ele><time>2026-05-04T11:36:43.64Z</time></trkpt><trkpt lat="42.5744769" lon="18.2402224"><ele>125.0</ele><time>2026-05-04T11:36:45.641Z</time></trkpt><trkpt lat="42.5745394" lon="18.240181"><ele>123.00000000000001</ele><time>2026-05-04T11:36:46.641Z</time></trkpt><trkpt lat="42.5746122" lon="18.2401321"><ele>121.0</ele><time>2026-05-04T11:36:47.64Z</time></trkpt><trkpt lat="42.5746914" lon="18.2400822"><ele>121.0</ele><time>2026-05-04T11:36:48.639Z</time></trkpt><trkpt lat="42.574779" lon="18.2400318"><ele>121.0</ele><time>2026-05-04T11:36:49.641Z</time></trkpt><trkpt lat="42.5748734" lon="18.2399825"><ele>121.0</ele><time>2026-05-04T11:36:50.638Z</time></trkpt><trkpt lat="42.5749783" lon="18.239928"><ele>121.0</ele><time>2026-05-04T11:36:51.641Z</time></trkpt><trkpt lat="42.5750852" lon="18.2398742"><ele>121.0</ele><time>2026-05-04T11:36:52.639Z</time></trkpt><trkpt lat="42.5751878" lon="18.2398164"><ele>118.50000000000001</ele><time>2026-05-04T11:36:53.639Z</time></trkpt><trkpt lat="42.575282" lon="18.2397725"><ele>116.0</ele><time>2026-05-04T11:36:54.639Z</time></trkpt><trkpt lat="42.5753594" lon="18.2397304"><ele>113.5</ele><time>2026-05-04T11:36:55.64Z</time></trkpt><trkpt lat="42.5754446" lon="18.2396923"><ele>111.0</ele><time>2026-05-04T11:36:57.641Z</time></trkpt><trkpt lat="42.5755073" lon="18.2396659"><ele>108.50000000000001</ele><time>2026-05-04T11:37:00.64Z</time></trkpt><trkpt lat="42.5755481" lon="18.2395943"><ele>106.0</ele><time>2026-05-04T11:37:02.641Z</time></trkpt><trkpt lat="42.5755197" lon="18.23943"><ele>106.0</ele><time>2026-05-04T11:37:04.64Z</time></trkpt><trkpt lat="42.5754835" lon="18.2393384"><ele>106.0</ele><time>2026-05-04T11:37:05.64Z</time></trkpt><trkpt lat="42.5754387" lon="18.2392504"><ele>106.0</ele><time>2026-05-04T11:37:06.641Z</time></trkpt><trkpt lat="42.5753919" lon="18.23915"><ele>106.0</ele><time>2026-05-04T11:37:07.64Z</time></trkpt><trkpt lat="42.5753519" lon="18.2390265"><ele>106.0</ele><time>2026-05-04T11:37:08.641Z</time></trkpt><trkpt lat="42.5753068" lon="18.2388807"><ele>103.5</ele><time>2026-05-04T11:37:09.638Z</time></trkpt><trkpt lat="42.575258" lon="18.2387168"><ele>101.0</ele><time>2026-05-04T11:37:10.639Z</time></trkpt><trkpt lat="42.5752022" lon="18.2385433"><ele>98.5</ele><time>2026-05-04T11:37:11.64Z</time></trkpt><trkpt lat="42.5751414" lon="18.2383555"><ele>96.0</ele><time>2026-05-04T11:37:12.641Z</time></trkpt><trkpt lat="42.5750754" lon="18.2381514"><ele>94.0</ele><time>2026-05-04T11:37:13.64Z</time></trkpt><trkpt lat="42.57501" lon="18.237942"><ele>92.0</ele><time>2026-05-04T11:37:14.641Z</time></trkpt><trkpt lat="42.5749406" lon="18.2377238"><ele>90.0</ele><time>2026-05-04T11:37:15.641Z</time></trkpt><trkpt lat="42.5748712" lon="18.2374971"><ele>88.0</ele><time>2026-05-04T11:37:16.641Z</time></trkpt><trkpt lat="42.5747978" lon="18.2372666"><ele>86.0</ele><time>2026-05-04T11:37:17.641Z</time></trkpt><trkpt lat="42.5747246" lon="18.2370377"><ele>84.0</ele><time>2026-05-04T11:37:18.64Z</time></trkpt><trkpt lat="42.5746536" lon="18.2368108"><ele>84.0</ele><time>2026-05-04T11:37:19.64Z</time></trkpt><trkpt lat="42.5745906" lon="18.2365828"><ele>84.0</ele><time>2026-05-04T11:37:20.64Z</time></trkpt><trkpt lat="42.5745461" lon="18.2363541"><ele>84.0</ele><time>2026-05-04T11:37:21.64Z</time></trkpt><trkpt lat="42.5745312" lon="18.2361347"><ele>82.75</ele><time>2026-05-04T11:37:22.639Z</time></trkpt><trkpt lat="42.5745399" lon="18.2359376"><ele>81.5</ele><time>2026-05-04T11:37:23.641Z</time></trkpt><trkpt lat="42.5745689" lon="18.2357538"><ele>80.25</ele><time>2026-05-04T11:37:24.64Z</time></trkpt><trkpt lat="42.5746258" lon="18.2355875"><ele>79.0</ele><time>2026-05-04T11:37:25.639Z</time></trkpt><trkpt lat="42.5747039" lon="18.2354288"><ele>79.0</ele><time>2026-05-04T11:37:26.64Z</time></trkpt><trkpt lat="42.5747886" lon="18.2352846"><ele>79.0</ele><time>2026-05-04T11:37:27.641Z</time></trkpt><trkpt lat="42.5748802" lon="18.2351552"><ele>79.0</ele><time>2026-05-04T11:37:28.641Z</time></trkpt><trkpt lat="42.5749733" lon="18.2350402"><ele>79.0</ele><time>2026-05-04T11:37:29.641Z</time></trkpt><trkpt lat="42.5750654" lon="18.2349604"><ele>79.0</ele><time>2026-05-04T11:37:30.64Z</time></trkpt><trkpt lat="42.5751655" lon="18.2349199"><ele>79.0</ele><time>2026-05-04T11:37:31.64Z</time></trkpt><trkpt lat="42.5752531" lon="18.2349456"><ele>79.0</ele><time>2026-05-04T11:37:32.641Z</time></trkpt><trkpt lat="42.5753556" lon="18.234943"><ele>79.0</ele><time>2026-05-04T11:37:33.64Z</time></trkpt><trkpt lat="42.5754782" lon="18.2348884"><ele>79.0</ele><time>2026-05-04T11:37:34.64Z</time></trkpt><trkpt lat="42.575613" lon="18.2348145"><ele>78.66666666666666</ele><time>2026-05-04T11:37:35.64Z</time></trkpt><trkpt lat="42.5757497" lon="18.2347325"><ele>78.33333333333333</ele><time>2026-05-04T11:37:36.641Z</time></trkpt><trkpt lat="42.5758907" lon="18.2346424"><ele>78.0</ele><time>2026-05-04T11:37:37.639Z</time></trkpt><trkpt lat="42.5760329" lon="18.2345459"><ele>78.0</ele><time>2026-05-04T11:37:38.641Z</time></trkpt><trkpt lat="42.5761668" lon="18.234436"><ele>78.0</ele><time>2026-05-04T11:37:39.641Z</time></trkpt><trkpt lat="42.5763051" lon="18.2343068"><ele>78.0</ele><time>2026-05-04T11:37:40.641Z</time></trkpt><trkpt lat="42.5764448" lon="18.2341571"><ele>74.33333333333333</ele><time>2026-05-04T11:37:41.64Z</time></trkpt><trkpt lat="42.5765787" lon="18.2339955"><ele>70.66666666666666</ele><time>2026-05-04T11:37:42.64Z</time></trkpt><trkpt lat="42.5767092" lon="18.2338268"><ele>67.0</ele><time>2026-05-04T11:37:43.64Z</time></trkpt><trkpt lat="42.5768365" lon="18.2336502"><ele>66.33333333333333</ele><time>2026-05-04T11:37:44.64Z</time></trkpt><trkpt lat="42.5769642" lon="18.2334698"><ele>65.66666666666667</ele><time>2026-05-04T11:37:45.641Z</time></trkpt><trkpt lat="42.5770903" lon="18.2332838"><ele>65.0</ele><time>2026-05-04T11:37:46.639Z</time></trkpt><trkpt lat="42.577207" lon="18.2330869"><ele>62.0</ele><time>2026-05-04T11:37:47.64Z</time></trkpt><trkpt lat="42.5773111" lon="18.2328766"><ele>59.0</ele><time>2026-05-04T11:37:48.641Z</time></trkpt><trkpt lat="42.5774087" lon="18.232659"><ele>56.0</ele><time>2026-05-04T11:37:49.64Z</time></trkpt><trkpt lat="42.5775053" lon="18.2324403"><ele>59.333333333333336</ele><time>2026-05-04T11:37:50.641Z</time></trkpt><trkpt lat="42.5776" lon="18.2322333"><ele>62.66666666666667</ele><time>2026-05-04T11:37:51.641Z</time></trkpt><trkpt lat="42.5776935" lon="18.2320347"><ele>66.0</ele><time>2026-05-04T11:37:52.641Z</time></trkpt><trkpt lat="42.577791" lon="18.2318563"><ele>63.66666666666667</ele><time>2026-05-04T11:37:53.641Z</time></trkpt><trkpt lat="42.5779004" lon="18.2316981"><ele>61.333333333333336</ele><time>2026-05-04T11:37:54.64Z</time></trkpt><trkpt lat="42.5780234" lon="18.2315447"><ele>59.0</ele><time>2026-05-04T11:37:55.641Z</time></trkpt><trkpt lat="42.5781514" lon="18.2314353"><ele>59.0</ele><time>2026-05-04T11:37:56.641Z</time></trkpt><trkpt lat="42.5782913" lon="18.2313427"><ele>59.0</ele><time>2026-05-04T11:37:57.641Z</time></trkpt><trkpt lat="42.5784427" lon="18.2312705"><ele>59.0</ele><time>2026-05-04T11:37:58.641Z</time></trkpt><trkpt lat="42.5785992" lon="18.2312222"><ele>56.0</ele><time>2026-05-04T11:37:59.64Z</time></trkpt><trkpt lat="42.5787557" lon="18.23119"><ele>53.0</ele><time>2026-05-04T11:38:00.641Z</time></trkpt><trkpt lat="42.5789087" lon="18.2311665"><ele>50.0</ele><time>2026-05-04T11:38:01.641Z</time></trkpt><trkpt lat="42.579062" lon="18.231145"><ele>50.0</ele><time>2026-05-04T11:38:02.641Z</time></trkpt><trkpt lat="42.5792109" lon="18.2311258"><ele>50.0</ele><time>2026-05-04T11:38:03.64Z</time></trkpt><trkpt lat="42.5793589" lon="18.2311004"><ele>50.0</ele><time>2026-05-04T11:38:04.641Z</time></trkpt><trkpt lat="42.5794991" lon="18.231078"><ele>50.0</ele><time>2026-05-04T11:38:05.64Z</time></trkpt><trkpt lat="42.5796307" lon="18.2310462"><ele>47.25</ele><time>2026-05-04T11:38:06.64Z</time></trkpt><trkpt lat="42.5797557" lon="18.2309961"><ele>44.5</ele><time>2026-05-04T11:38:07.638Z</time></trkpt><trkpt lat="42.5798786" lon="18.2309176"><ele>41.75</ele><time>2026-05-04T11:38:08.638Z</time></trkpt><trkpt lat="42.5799956" lon="18.2308187"><ele>39.0</ele><time>2026-05-04T11:38:09.64Z</time></trkpt><trkpt lat="42.5801087" lon="18.2307156"><ele>40.0</ele><time>2026-05-04T11:38:10.641Z</time></trkpt><trkpt lat="42.5802223" lon="18.230622"><ele>41.0</ele><time>2026-05-04T11:38:11.64Z</time></trkpt><trkpt lat="42.5803446" lon="18.2305507"><ele>42.0</ele><time>2026-05-04T11:38:12.64Z</time></trkpt><trkpt lat="42.5804848" lon="18.2305086"><ele>43.0</ele><time>2026-05-04T11:38:13.64Z</time></trkpt><trkpt lat="42.5806337" lon="18.2304883"><ele>43.0</ele><time>2026-05-04T11:38:14.641Z</time></trkpt><trkpt lat="42.5807788" lon="18.2304795"><ele>43.0</ele><time>2026-05-04T11:38:15.641Z</time></trkpt><trkpt lat="42.5809397" lon="18.2304696"><ele>43.0</ele><time>2026-05-04T11:38:16.641Z</time></trkpt><trkpt lat="42.5810834" lon="18.2304554"><ele>40.0</ele><time>2026-05-04T11:38:17.64Z</time></trkpt><trkpt lat="42.5812267" lon="18.2304115"><ele>37.0</ele><time>2026-05-04T11:38:18.64Z</time></trkpt><trkpt lat="42.5813608" lon="18.2303429"><ele>34.0</ele><time>2026-05-04T11:38:19.64Z</time></trkpt><trkpt lat="42.5814881" lon="18.2302473"><ele>31.0</ele><time>2026-05-04T11:38:20.639Z</time></trkpt><trkpt lat="42.5816112" lon="18.2301278"><ele>31.0</ele><time>2026-05-04T11:38:21.641Z</time></trkpt><trkpt lat="42.5817285" lon="18.2299981"><ele>31.0</ele><time>2026-05-04T11:38:22.64Z</time></trkpt><trkpt lat="42.5818381" lon="18.2298601"><ele>31.0</ele><time>2026-05-04T11:38:23.64Z</time></trkpt><trkpt lat="42.5819425" lon="18.2297227"><ele>31.0</ele><time>2026-05-04T11:38:24.64Z</time></trkpt><trkpt lat="42.5820463" lon="18.2295878"><ele>28.5</ele><time>2026-05-04T11:38:25.64Z</time></trkpt><trkpt lat="42.5821499" lon="18.2294551"><ele>26.0</ele><time>2026-05-04T11:38:26.641Z</time></trkpt><trkpt lat="42.5822548" lon="18.2293368"><ele>23.5</ele><time>2026-05-04T11:38:27.64Z</time></trkpt><trkpt lat="42.582357" lon="18.2292356"><ele>21.0</ele><time>2026-05-04T11:38:28.64Z</time></trkpt><trkpt lat="42.5824512" lon="18.2291519"><ele>21.0</ele><time>2026-05-04T11:38:29.641Z</time></trkpt><trkpt lat="42.5825368" lon="18.2290856"><ele>21.0</ele><time>2026-05-04T11:38:30.64Z</time></trkpt><trkpt lat="42.5826132" lon="18.2290313"><ele>21.0</ele><time>2026-05-04T11:38:31.641Z</time></trkpt><trkpt lat="42.582675" lon="18.2289833"><ele>21.0</ele><time>2026-05-04T11:38:32.641Z</time></trkpt><trkpt lat="42.5827452" lon="18.2289327"><ele>21.0</ele><time>2026-05-04T11:38:34.64Z</time></trkpt><trkpt lat="42.5828525" lon="18.2288421"><ele>21.0</ele><time>2026-05-04T11:38:48.641Z</time></trkpt><trkpt lat="42.5829262" lon="18.2287907"><ele>21.0</ele><time>2026-05-04T11:38:50.639Z</time></trkpt><trkpt lat="42.5829234" lon="18.2288782"><ele>21.0</ele><time>2026-05-04T11:38:54.639Z</time></trkpt><trkpt lat="42.582808" lon="18.2289723"><ele>21.0</ele><time>2026-05-04T11:38:56.64Z</time></trkpt><trkpt lat="42.5827452" lon="18.2290485"><ele>21.0</ele><time>2026-05-04T11:38:57.64Z</time></trkpt><trkpt lat="42.5826708" lon="18.2291601"><ele>21.0</ele><time>2026-05-04T11:38:58.641Z</time></trkpt><trkpt lat="42.5825964" lon="18.2292859"><ele>21.0</ele><time>2026-05-04T11:38:59.64Z</time></trkpt><trkpt lat="42.5825228" lon="18.2294266"><ele>21.0</ele><time>2026-05-04T11:39:00.64Z</time></trkpt><trkpt lat="42.5824459" lon="18.2295722"><ele>21.0</ele><time>2026-05-04T11:39:01.641Z</time></trkpt><trkpt lat="42.5823682" lon="18.2297251"><ele>19.25</ele><time>2026-05-04T11:39:02.64Z</time></trkpt><trkpt lat="42.5822937" lon="18.2298801"><ele>17.5</ele><time>2026-05-04T11:39:03.64Z</time></trkpt><trkpt lat="42.5822257" lon="18.2300255"><ele>15.75</ele><time>2026-05-04T11:39:04.641Z</time></trkpt><trkpt lat="42.5821596" lon="18.2301636"><ele>14.0</ele><time>2026-05-04T11:39:05.64Z</time></trkpt><trkpt lat="42.5820945" lon="18.2302891"><ele>14.0</ele><time>2026-05-04T11:39:06.64Z</time></trkpt><trkpt lat="42.5820313" lon="18.2304052"><ele>13.999999999999998</ele><time>2026-05-04T11:39:07.641Z</time></trkpt><trkpt lat="42.5819769" lon="18.2305132"><ele>13.999999999999998</ele><time>2026-05-04T11:39:08.638Z</time></trkpt><trkpt lat="42.5819381" lon="18.2306247"><ele>14.0</ele><time>2026-05-04T11:39:09.64Z</time></trkpt><trkpt lat="42.5819228" lon="18.2307326"><ele>14.0</ele><time>2026-05-04T11:39:10.64Z</time></trkpt><trkpt lat="42.5819101" lon="18.2308422"><ele>14.833333333333334</ele><time>2026-05-04T11:39:11.641Z</time></trkpt><trkpt lat="42.5819111" lon="18.2309691"><ele>15.666666666666668</ele><time>2026-05-04T11:39:12.64Z</time></trkpt><trkpt lat="42.5819148" lon="18.2310954"><ele>16.5</ele><time>2026-05-04T11:39:13.638Z</time></trkpt><trkpt lat="42.5818996" lon="18.2312161"><ele>17.333333333333332</ele><time>2026-05-04T11:39:14.641Z</time></trkpt><trkpt lat="42.5818983" lon="18.2313334"><ele>18.166666666666664</ele><time>2026-05-04T11:39:15.64Z</time></trkpt><trkpt lat="42.5819114" lon="18.2314456"><ele>19.0</ele><time>2026-05-04T11:39:16.64Z</time></trkpt><trkpt lat="42.5819387" lon="18.2315471"><ele>19.166666666666664</ele><time>2026-05-04T11:39:17.641Z</time></trkpt><trkpt lat="42.5819684" lon="18.2316387"><ele>19.333333333333332</ele><time>2026-05-04T11:39:18.641Z</time></trkpt><trkpt lat="42.582005" lon="18.2317341"><ele>19.5</ele><time>2026-05-04T11:39:19.641Z</time></trkpt><trkpt lat="42.5820469" lon="18.2318359"><ele>19.666666666666668</ele><time>2026-05-04T11:39:20.641Z</time></trkpt><trkpt lat="42.5820844" lon="18.2319266"><ele>19.833333333333336</ele><time>2026-05-04T11:39:21.641Z</time></trkpt><trkpt lat="42.5821251" lon="18.2320157"><ele>20.0</ele><time>2026-05-04T11:39:22.641Z</time></trkpt><trkpt lat="42.5821658" lon="18.2321172"><ele>19.666666666666668</ele><time>2026-05-04T11:39:23.64Z</time></trkpt><trkpt lat="42.5822054" lon="18.2322146"><ele>19.333333333333336</ele><time>2026-05-04T11:39:24.64Z</time></trkpt><trkpt lat="42.5822455" lon="18.2323158"><ele>19.0</ele><time>2026-05-04T11:39:25.64Z</time></trkpt><trkpt lat="42.582283" lon="18.2324235"><ele>18.666666666666668</ele><time>2026-05-04T11:39:26.64Z</time></trkpt><trkpt lat="42.5823078" lon="18.2325373"><ele>18.333333333333332</ele><time>2026-05-04T11:39:27.64Z</time></trkpt><trkpt lat="42.5823203" lon="18.2326462"><ele>18.0</ele><time>2026-05-04T11:39:28.639Z</time></trkpt><trkpt lat="42.5823312" lon="18.2327515"><ele>19.6</ele><time>2026-05-04T11:39:29.641Z</time></trkpt><trkpt lat="42.5823385" lon="18.232847"><ele>21.200000000000003</ele><time>2026-05-04T11:39:30.641Z</time></trkpt><trkpt lat="42.5823396" lon="18.2329366"><ele>22.8</ele><time>2026-05-04T11:39:31.641Z</time></trkpt><trkpt lat="42.5823348" lon="18.2330761"><ele>24.400000000000002</ele><time>2026-05-04T11:39:33.639Z</time></trkpt><trkpt lat="42.5823615" lon="18.233206"><ele>26.0</ele><time>2026-05-04T11:39:35.64Z</time></trkpt><trkpt lat="42.5824616" lon="18.2332828"><ele>28.333333333333332</ele><time>2026-05-04T11:39:37.64Z</time></trkpt><trkpt lat="42.5825589" lon="18.2333719"><ele>30.666666666666664</ele><time>2026-05-04T11:39:39.64Z</time></trkpt><trkpt lat="42.5826696" lon="18.2334397"><ele>33.0</ele><time>2026-05-04T11:39:41.64Z</time></trkpt><trkpt lat="42.5827389" lon="18.2334517"><ele>35.333333333333336</ele><time>2026-05-04T11:39:42.639Z</time></trkpt><trkpt lat="42.5828075" lon="18.2334612"><ele>37.66666666666667</ele><time>2026-05-04T11:39:43.637Z</time></trkpt><trkpt lat="42.5828771" lon="18.2334528"><ele>40.0</ele><time>2026-05-04T11:39:44.64Z</time></trkpt><trkpt lat="42.5829547" lon="18.2334441"><ele>40.0</ele><time>2026-05-04T11:39:45.64Z</time></trkpt><trkpt lat="42.5830224" lon="18.2334481"><ele>40.0</ele><time>2026-05-04T11:39:46.64Z</time></trkpt><trkpt lat="42.5831011" lon="18.2334774"><ele>40.0</ele><time>2026-05-04T11:39:47.641Z</time></trkpt><trkpt lat="42.5831816" lon="18.2335032"><ele>40.0</ele><time>2026-05-04T11:39:48.64Z</time></trkpt><trkpt lat="42.5832637" lon="18.2335304"><ele>40.0</ele><time>2026-05-04T11:39:49.64Z</time></trkpt><trkpt lat="42.5833436" lon="18.2335694"><ele>40.0</ele><time>2026-05-04T11:39:50.641Z</time></trkpt><trkpt lat="42.5834202" lon="18.2336156"><ele>40.0</ele><time>2026-05-04T11:39:51.64Z</time></trkpt><trkpt lat="42.5834955" lon="18.2336579"><ele>40.0</ele><time>2026-05-04T11:39:52.641Z</time></trkpt><trkpt lat="42.5835632" lon="18.2337114"><ele>40.0</ele><time>2026-05-04T11:39:53.64Z</time></trkpt><trkpt lat="42.5836608" lon="18.2338173"><ele>40.0</ele><time>2026-05-04T11:39:55.64Z</time></trkpt><trkpt lat="42.5837852" lon="18.23387"><ele>40.0</ele><time>2026-05-04T11:39:57.639Z</time></trkpt><trkpt lat="42.5838529" lon="18.2339079"><ele>40.0</ele><time>2026-05-04T11:39:58.64Z</time></trkpt><trkpt lat="42.5839229" lon="18.2339397"><ele>40.0</ele><time>2026-05-04T11:39:59.64Z</time></trkpt><trkpt lat="42.5839914" lon="18.2339731"><ele>40.0</ele><time>2026-05-04T11:40:00.641Z</time></trkpt><trkpt lat="42.5840553" lon="18.2340141"><ele>40.0</ele><time>2026-05-04T11:40:01.64Z</time></trkpt><trkpt lat="42.5841181" lon="18.2340554"><ele>40.0</ele><time>2026-05-04T11:40:02.64Z</time></trkpt><trkpt lat="42.5841796" lon="18.2340991"><ele>40.0</ele><time>2026-05-04T11:40:03.64Z</time></trkpt><trkpt lat="42.5842498" lon="18.2341416"><ele>40.0</ele><time>2026-05-04T11:40:04.64Z</time></trkpt><trkpt lat="42.5843335" lon="18.2341758"><ele>43.0</ele><time>2026-05-04T11:40:05.641Z</time></trkpt><trkpt lat="42.584409" lon="18.2342174"><ele>46.0</ele><time>2026-05-04T11:40:06.639Z</time></trkpt><trkpt lat="42.5844863" lon="18.2342437"><ele>49.0</ele><time>2026-05-04T11:40:07.64Z</time></trkpt><trkpt lat="42.5845571" lon="18.2342631"><ele>52.0</ele><time>2026-05-04T11:40:08.639Z</time></trkpt><trkpt lat="42.5847951" lon="18.2343018"><ele>52.99999999999999</ele><time>2026-05-04T11:40:14.64Z</time></trkpt><trkpt lat="42.5848798" lon="18.2342273"><ele>54.0</ele><time>2026-05-04T11:40:16.641Z</time></trkpt><trkpt lat="42.5849193" lon="18.2340719"><ele>55.0</ele><time>2026-05-04T11:40:18.64Z</time></trkpt><trkpt lat="42.5849383" lon="18.233983"><ele>56.0</ele><time>2026-05-04T11:40:19.64Z</time></trkpt><trkpt lat="42.5849562" lon="18.2338976"><ele>56.99999999999999</ele><time>2026-05-04T11:40:20.64Z</time></trkpt><trkpt lat="42.5849673" lon="18.2338116"><ele>58.0</ele><time>2026-05-04T11:40:21.639Z</time></trkpt><trkpt lat="42.5849807" lon="18.2337204"><ele>57.99999999999999</ele><time>2026-05-04T11:40:22.64Z</time></trkpt><trkpt lat="42.5849883" lon="18.2336347"><ele>58.0</ele><time>2026-05-04T11:40:23.64Z</time></trkpt><trkpt lat="42.5850005" lon="18.2334853"><ele>58.0</ele><time>2026-05-04T11:40:25.64Z</time></trkpt><trkpt lat="42.5850267" lon="18.2333652"><ele>58.0</ele><time>2026-05-04T11:40:27.64Z</time></trkpt><trkpt lat="42.5850346" lon="18.2332609"><ele>57.99999999999999</ele><time>2026-05-04T11:40:29.64Z</time></trkpt><trkpt lat="42.5850385" lon="18.2331753"><ele>58.0</ele><time>2026-05-04T11:40:32.64Z</time></trkpt><trkpt lat="42.5850545" lon="18.2330399"><ele>58.0</ele><time>2026-05-04T11:40:35.641Z</time></trkpt><trkpt lat="42.5851555" lon="18.2329109"><ele>58.0</ele><time>2026-05-04T11:40:37.641Z</time></trkpt><trkpt lat="42.5852352" lon="18.2328333"><ele>58.0</ele><time>2026-05-04T11:40:38.64Z</time></trkpt><trkpt lat="42.5853334" lon="18.2327334"><ele>58.0</ele><time>2026-05-04T11:40:39.64Z</time></trkpt><trkpt lat="42.585426" lon="18.2326522"><ele>58.0</ele><time>2026-05-04T11:40:40.64Z</time></trkpt><trkpt lat="42.5855218" lon="18.2325705"><ele>58.0</ele><time>2026-05-04T11:40:41.64Z</time></trkpt><trkpt lat="42.5856177" lon="18.2324975"><ele>58.0</ele><time>2026-05-04T11:40:42.639Z</time></trkpt><trkpt lat="42.5857273" lon="18.2324222"><ele>58.0</ele><time>2026-05-04T11:40:43.64Z</time></trkpt><trkpt lat="42.5858213" lon="18.2323636"><ele>58.0</ele><time>2026-05-04T11:40:44.64Z</time></trkpt><trkpt lat="42.5859174" lon="18.2323073"><ele>57.599999999999994</ele><time>2026-05-04T11:40:45.641Z</time></trkpt><trkpt lat="42.5860166" lon="18.2322501"><ele>57.199999999999996</ele><time>2026-05-04T11:40:46.64Z</time></trkpt><trkpt lat="42.5861122" lon="18.2321941"><ele>56.8</ele><time>2026-05-04T11:40:47.641Z</time></trkpt><trkpt lat="42.5862003" lon="18.2321478"><ele>56.4</ele><time>2026-05-04T11:40:48.641Z</time></trkpt><trkpt lat="42.5862776" lon="18.232101"><ele>56.0</ele><time>2026-05-04T11:40:49.641Z</time></trkpt><trkpt lat="42.5863476" lon="18.2320617"><ele>56.0</ele><time>2026-05-04T11:40:50.641Z</time></trkpt><trkpt lat="42.5864107" lon="18.2320241"><ele>55.99999999999999</ele><time>2026-05-04T11:40:51.639Z</time></trkpt><trkpt lat="42.5864882" lon="18.2319642"><ele>55.99999999999999</ele><time>2026-05-04T11:40:52.64Z</time></trkpt><trkpt lat="42.5865877" lon="18.2318905"><ele>56.0</ele><time>2026-05-04T11:40:53.64Z</time></trkpt><trkpt lat="42.5866839" lon="18.2318159"><ele>56.0</ele><time>2026-05-04T11:40:54.641Z</time></trkpt><trkpt lat="42.5867643" lon="18.2317713"><ele>56.0</ele><time>2026-05-04T11:40:55.64Z</time></trkpt><trkpt lat="42.5868269" lon="18.2317101"><ele>56.0</ele><time>2026-05-04T11:40:57.641Z</time></trkpt><trkpt lat="42.586901" lon="18.2316554"><ele>56.0</ele><time>2026-05-04T11:41:02.64Z</time></trkpt><trkpt lat="42.5870902" lon="18.2315027"><ele>56.0</ele><time>2026-05-04T11:41:04.64Z</time></trkpt><trkpt lat="42.5872018" lon="18.2314002"><ele>57.0</ele><time>2026-05-04T11:41:05.64Z</time></trkpt><trkpt lat="42.5873229" lon="18.2312773"><ele>58.0</ele><time>2026-05-04T11:41:06.64Z</time></trkpt><trkpt lat="42.587455" lon="18.2311535"><ele>59.0</ele><time>2026-05-04T11:41:07.64Z</time></trkpt><trkpt lat="42.5875785" lon="18.2310422"><ele>59.0</ele><time>2026-05-04T11:41:08.641Z</time></trkpt><trkpt lat="42.5876892" lon="18.230942"><ele>59.0</ele><time>2026-05-04T11:41:09.641Z</time></trkpt><trkpt lat="42.5878005" lon="18.2308267"><ele>59.0</ele><time>2026-05-04T11:41:10.641Z</time></trkpt><trkpt lat="42.5879138" lon="18.2307153"><ele>59.0</ele><time>2026-05-04T11:41:11.641Z</time></trkpt><trkpt lat="42.5880244" lon="18.2306147"><ele>60.75</ele><time>2026-05-04T11:41:12.64Z</time></trkpt><trkpt lat="42.5881329" lon="18.2305299"><ele>62.5</ele><time>2026-05-04T11:41:13.64Z</time></trkpt><trkpt lat="42.5882389" lon="18.2304277"><ele>64.25</ele><time>2026-05-04T11:41:14.64Z</time></trkpt><trkpt lat="42.5883667" lon="18.2303414"><ele>66.0</ele><time>2026-05-04T11:41:15.64Z</time></trkpt><trkpt lat="42.5885112" lon="18.2302555"><ele>66.0</ele><time>2026-05-04T11:41:16.64Z</time></trkpt><trkpt lat="42.5886542" lon="18.2301813"><ele>66.0</ele><time>2026-05-04T11:41:17.64Z</time></trkpt><trkpt lat="42.5887969" lon="18.2301188"><ele>66.0</ele><time>2026-05-04T11:41:18.641Z</time></trkpt><trkpt lat="42.5889325" lon="18.230064"><ele>66.0</ele><time>2026-05-04T11:41:19.64Z</time></trkpt><trkpt lat="42.5890712" lon="18.2300305"><ele>68.25</ele><time>2026-05-04T11:41:20.639Z</time></trkpt><trkpt lat="42.5892151" lon="18.2300004"><ele>70.5</ele><time>2026-05-04T11:41:21.64Z</time></trkpt><trkpt lat="42.589362" lon="18.2299836"><ele>72.75</ele><time>2026-05-04T11:41:22.641Z</time></trkpt><trkpt lat="42.5894977" lon="18.2299653"><ele>75.0</ele><time>2026-05-04T11:41:23.641Z</time></trkpt><trkpt lat="42.5896443" lon="18.2299639"><ele>76.5</ele><time>2026-05-04T11:41:24.641Z</time></trkpt><trkpt lat="42.5897828" lon="18.2299617"><ele>78.0</ele><time>2026-05-04T11:41:25.641Z</time></trkpt><trkpt lat="42.5899229" lon="18.2299747"><ele>79.5</ele><time>2026-05-04T11:41:26.64Z</time></trkpt><trkpt lat="42.5900591" lon="18.2299846"><ele>81.0</ele><time>2026-05-04T11:41:27.639Z</time></trkpt><trkpt lat="42.5901929" lon="18.2299893"><ele>81.0</ele><time>2026-05-04T11:41:28.64Z</time></trkpt><trkpt lat="42.5903186" lon="18.2299943"><ele>81.0</ele><time>2026-05-04T11:41:29.64Z</time></trkpt><trkpt lat="42.5904487" lon="18.2300105"><ele>81.0</ele><time>2026-05-04T11:41:30.641Z</time></trkpt><trkpt lat="42.5905764" lon="18.2300209"><ele>81.0</ele><time>2026-05-04T11:41:31.641Z</time></trkpt><trkpt lat="42.5907091" lon="18.2300354"><ele>81.0</ele><time>2026-05-04T11:41:32.641Z</time></trkpt><trkpt lat="42.5908562" lon="18.2300459"><ele>81.0</ele><time>2026-05-04T11:41:33.64Z</time></trkpt><trkpt lat="42.591013" lon="18.2300522"><ele>81.0</ele><time>2026-05-04T11:41:34.641Z</time></trkpt><trkpt lat="42.5911926" lon="18.2300584"><ele>81.0</ele><time>2026-05-04T11:41:35.64Z</time></trkpt><trkpt lat="42.5913816" lon="18.23007"><ele>81.0</ele><time>2026-05-04T11:41:36.641Z</time></trkpt><trkpt lat="42.5915707" lon="18.2300792"><ele>81.0</ele><time>2026-05-04T11:41:37.641Z</time></trkpt><trkpt lat="42.5917583" lon="18.2300743"><ele>81.0</ele><time>2026-05-04T11:41:38.641Z</time></trkpt><trkpt lat="42.5919426" lon="18.230069"><ele>81.0</ele><time>2026-05-04T11:41:39.641Z</time></trkpt><trkpt lat="42.5921223" lon="18.2300595"><ele>81.0</ele><time>2026-05-04T11:41:40.64Z</time></trkpt><trkpt lat="42.5922905" lon="18.230049"><ele>81.25</ele><time>2026-05-04T11:41:41.641Z</time></trkpt><trkpt lat="42.5924499" lon="18.2300392"><ele>81.5</ele><time>2026-05-04T11:41:42.641Z</time></trkpt><trkpt lat="42.5925958" lon="18.2300268"><ele>81.75</ele><time>2026-05-04T11:41:43.641Z</time></trkpt><trkpt lat="42.5927355" lon="18.2300139"><ele>82.0</ele><time>2026-05-04T11:41:44.64Z</time></trkpt><trkpt lat="42.5928692" lon="18.2299991"><ele>82.75</ele><time>2026-05-04T11:41:45.639Z</time></trkpt><trkpt lat="42.5930019" lon="18.2299825"><ele>83.5</ele><time>2026-05-04T11:41:46.64Z</time></trkpt><trkpt lat="42.5931312" lon="18.2299671"><ele>84.25</ele><time>2026-05-04T11:41:47.641Z</time></trkpt><trkpt lat="42.5932481" lon="18.2299603"><ele>85.0</ele><time>2026-05-04T11:41:48.641Z</time></trkpt><trkpt lat="42.5933576" lon="18.2299714"><ele>85.0</ele><time>2026-05-04T11:41:49.641Z</time></trkpt><trkpt lat="42.593462" lon="18.2300026"><ele>85.0</ele><time>2026-05-04T11:41:50.641Z</time></trkpt><trkpt lat="42.5935751" lon="18.2300475"><ele>85.0</ele><time>2026-05-04T11:41:51.641Z</time></trkpt><trkpt lat="42.5936932" lon="18.2300987"><ele>85.0</ele><time>2026-05-04T11:41:52.64Z</time></trkpt><trkpt lat="42.5938212" lon="18.2301674"><ele>82.33333333333333</ele><time>2026-05-04T11:41:53.641Z</time></trkpt><trkpt lat="42.593969" lon="18.2302403"><ele>79.66666666666667</ele><time>2026-05-04T11:41:54.64Z</time></trkpt><trkpt lat="42.5941228" lon="18.2303378"><ele>77.0</ele><time>2026-05-04T11:41:55.641Z</time></trkpt><trkpt lat="42.594278" lon="18.2304457"><ele>77.0</ele><time>2026-05-04T11:41:56.641Z</time></trkpt><trkpt lat="42.5944319" lon="18.2305556"><ele>77.0</ele><time>2026-05-04T11:41:57.641Z</time></trkpt><trkpt lat="42.5945773" lon="18.2306496"><ele>77.0</ele><time>2026-05-04T11:41:58.64Z</time></trkpt><trkpt lat="42.5947244" lon="18.2307351"><ele>78.33333333333334</ele><time>2026-05-04T11:41:59.64Z</time></trkpt><trkpt lat="42.5948666" lon="18.2308205"><ele>79.66666666666667</ele><time>2026-05-04T11:42:00.64Z</time></trkpt><trkpt lat="42.5950121" lon="18.2308982"><ele>81.0</ele><time>2026-05-04T11:42:01.641Z</time></trkpt><trkpt lat="42.5951672" lon="18.2309623"><ele>81.0</ele><time>2026-05-04T11:42:02.64Z</time></trkpt><trkpt lat="42.5953278" lon="18.231017"><ele>81.0</ele><time>2026-05-04T11:42:03.64Z</time></trkpt><trkpt lat="42.5954923" lon="18.2310627"><ele>81.0</ele><time>2026-05-04T11:42:04.641Z</time></trkpt><trkpt lat="42.5956609" lon="18.2310935"><ele>81.0</ele><time>2026-05-04T11:42:05.641Z</time></trkpt><trkpt lat="42.5958323" lon="18.2311055"><ele>81.0</ele><time>2026-05-04T11:42:06.641Z</time></trkpt><trkpt lat="42.596" lon="18.2311041"><ele>81.0</ele><time>2026-05-04T11:42:07.641Z</time></trkpt><trkpt lat="42.5961699" lon="18.2310848"><ele>81.33333333333333</ele><time>2026-05-04T11:42:08.64Z</time></trkpt><trkpt lat="42.5963386" lon="18.2310578"><ele>81.66666666666666</ele><time>2026-05-04T11:42:09.641Z</time></trkpt><trkpt lat="42.5965018" lon="18.2310354"><ele>82.0</ele><time>2026-05-04T11:42:10.637Z</time></trkpt><trkpt lat="42.5966639" lon="18.2310108"><ele>82.0</ele><time>2026-05-04T11:42:11.64Z</time></trkpt><trkpt lat="42.5968258" lon="18.2309847"><ele>82.0</ele><time>2026-05-04T11:42:12.64Z</time></trkpt><trkpt lat="42.5969954" lon="18.2309582"><ele>82.0</ele><time>2026-05-04T11:42:13.64Z</time></trkpt><trkpt lat="42.5971567" lon="18.2309366"><ele>81.0</ele><time>2026-05-04T11:42:14.64Z</time></trkpt><trkpt lat="42.5973135" lon="18.2309288"><ele>80.0</ele><time>2026-05-04T11:42:15.64Z</time></trkpt><trkpt lat="42.5974654" lon="18.2309398"><ele>79.0</ele><time>2026-05-04T11:42:16.64Z</time></trkpt><trkpt lat="42.5976075" lon="18.230974"><ele>79.0</ele><time>2026-05-04T11:42:17.641Z</time></trkpt><trkpt lat="42.5977494" lon="18.2310169"><ele>79.0</ele><time>2026-05-04T11:42:18.64Z</time></trkpt><trkpt lat="42.597883" lon="18.2310758"><ele>79.0</ele><time>2026-05-04T11:42:19.64Z</time></trkpt><trkpt lat="42.5980176" lon="18.2311471"><ele>79.0</ele><time>2026-05-04T11:42:20.639Z</time></trkpt><trkpt lat="42.5981417" lon="18.2312263"><ele>82.5</ele><time>2026-05-04T11:42:21.638Z</time></trkpt><trkpt lat="42.5982663" lon="18.2313136"><ele>86.0</ele><time>2026-05-04T11:42:22.641Z</time></trkpt><trkpt lat="42.5983829" lon="18.2314105"><ele>89.5</ele><time>2026-05-04T11:42:23.64Z</time></trkpt><trkpt lat="42.5984872" lon="18.2315225"><ele>93.0</ele><time>2026-05-04T11:42:24.64Z</time></trkpt><trkpt lat="42.5985838" lon="18.2316284"><ele>93.0</ele><time>2026-05-04T11:42:25.639Z</time></trkpt><trkpt lat="42.5986613" lon="18.2317355"><ele>93.0</ele><time>2026-05-04T11:42:26.639Z</time></trkpt><trkpt lat="42.5987306" lon="18.2318593"><ele>93.0</ele><time>2026-05-04T11:42:27.639Z</time></trkpt><trkpt lat="42.5987843" lon="18.2320072"><ele>93.0</ele><time>2026-05-04T11:42:28.638Z</time></trkpt><trkpt lat="42.5988353" lon="18.2321545"><ele>91.80000000000001</ele><time>2026-05-04T11:42:29.639Z</time></trkpt><trkpt lat="42.5988754" lon="18.2322913"><ele>90.6</ele><time>2026-05-04T11:42:30.639Z</time></trkpt><trkpt lat="42.5989196" lon="18.2324303"><ele>89.4</ele><time>2026-05-04T11:42:31.64Z</time></trkpt><trkpt lat="42.598978" lon="18.2325581"><ele>88.19999999999999</ele><time>2026-05-04T11:42:32.639Z</time></trkpt><trkpt lat="42.5990409" lon="18.2326746"><ele>87.0</ele><time>2026-05-04T11:42:33.641Z</time></trkpt><trkpt lat="42.5991274" lon="18.2327806"><ele>87.0</ele><time>2026-05-04T11:42:34.64Z</time></trkpt><trkpt lat="42.5992158" lon="18.2328744"><ele>87.0</ele><time>2026-05-04T11:42:35.641Z</time></trkpt><trkpt lat="42.599329" lon="18.2329204"><ele>87.0</ele><time>2026-05-04T11:42:36.64Z</time></trkpt><trkpt lat="42.5994445" lon="18.2329404"><ele>87.0</ele><time>2026-05-04T11:42:37.64Z</time></trkpt><trkpt lat="42.599561" lon="18.2329282"><ele>84.5</ele><time>2026-05-04T11:42:38.64Z</time></trkpt><trkpt lat="42.5996837" lon="18.2328743"><ele>82.0</ele><time>2026-05-04T11:42:39.641Z</time></trkpt><trkpt lat="42.5997842" lon="18.2328076"><ele>79.5</ele><time>2026-05-04T11:42:40.64Z</time></trkpt><trkpt lat="42.5998892" lon="18.2327131"><ele>77.0</ele><time>2026-05-04T11:42:41.64Z</time></trkpt><trkpt lat="42.5999908" lon="18.232607"><ele>77.0</ele><time>2026-05-04T11:42:42.64Z</time></trkpt><trkpt lat="42.6000982" lon="18.2325024"><ele>77.0</ele><time>2026-05-04T11:42:43.641Z</time></trkpt><trkpt lat="42.6002135" lon="18.2324405"><ele>77.0</ele><time>2026-05-04T11:42:44.64Z</time></trkpt><trkpt lat="42.6003357" lon="18.2323644"><ele>77.0</ele><time>2026-05-04T11:42:45.64Z</time></trkpt><trkpt lat="42.600518" lon="18.2322705"><ele>72.66666666666667</ele><time>2026-05-04T11:42:46.64Z</time></trkpt><trkpt lat="42.6006993" lon="18.2321514"><ele>68.33333333333333</ele><time>2026-05-04T11:42:47.641Z</time></trkpt><trkpt lat="42.600902" lon="18.2320552"><ele>64.0</ele><time>2026-05-04T11:42:48.641Z</time></trkpt><trkpt lat="42.6010865" lon="18.2319583"><ele>68.0</ele><time>2026-05-04T11:42:49.64Z</time></trkpt><trkpt lat="42.6012644" lon="18.2318677"><ele>72.0</ele><time>2026-05-04T11:42:50.641Z</time></trkpt><trkpt lat="42.6014271" lon="18.2317897"><ele>76.0</ele><time>2026-05-04T11:42:51.638Z</time></trkpt><trkpt lat="42.6015862" lon="18.2317223"><ele>76.0</ele><time>2026-05-04T11:42:52.641Z</time></trkpt><trkpt lat="42.6017343" lon="18.2316658"><ele>76.0</ele><time>2026-05-04T11:42:53.64Z</time></trkpt><trkpt lat="42.6018784" lon="18.2316213"><ele>76.0</ele><time>2026-05-04T11:42:54.64Z</time></trkpt><trkpt lat="42.6020184" lon="18.2316034"><ele>76.0</ele><time>2026-05-04T11:42:55.64Z</time></trkpt><trkpt lat="42.6021717" lon="18.2316059"><ele>76.66666666666666</ele><time>2026-05-04T11:42:56.641Z</time></trkpt><trkpt lat="42.6023214" lon="18.2316169"><ele>77.33333333333333</ele><time>2026-05-04T11:42:57.639Z</time></trkpt><trkpt lat="42.602477" lon="18.2316488"><ele>78.0</ele><time>2026-05-04T11:42:58.641Z</time></trkpt><trkpt lat="42.6026328" lon="18.231688"><ele>78.0</ele><time>2026-05-04T11:42:59.64Z</time></trkpt><trkpt lat="42.6027882" lon="18.2317436"><ele>78.0</ele><time>2026-05-04T11:43:00.639Z</time></trkpt><trkpt lat="42.6029407" lon="18.231805"><ele>78.0</ele><time>2026-05-04T11:43:01.64Z</time></trkpt><trkpt lat="42.6031025" lon="18.2318893"><ele>72.33333333333333</ele><time>2026-05-04T11:43:02.638Z</time></trkpt><trkpt lat="42.603277" lon="18.2319821"><ele>66.66666666666666</ele><time>2026-05-04T11:43:03.639Z</time></trkpt><trkpt lat="42.6034721" lon="18.2320868"><ele>61.0</ele><time>2026-05-04T11:43:04.64Z</time></trkpt><trkpt lat="42.6036877" lon="18.2322137"><ele>68.0</ele><time>2026-05-04T11:43:05.64Z</time></trkpt><trkpt lat="42.6038982" lon="18.2323468"><ele>75.0</ele><time>2026-05-04T11:43:06.64Z</time></trkpt><trkpt lat="42.6040951" lon="18.2324811"><ele>75.0</ele><time>2026-05-04T11:43:07.639Z</time></trkpt><trkpt lat="42.6042901" lon="18.2325822"><ele>75.0</ele><time>2026-05-04T11:43:08.641Z</time></trkpt><trkpt lat="42.6044695" lon="18.2326748"><ele>75.0</ele><time>2026-05-04T11:43:09.641Z</time></trkpt><trkpt lat="42.6046459" lon="18.2327415"><ele>72.0</ele><time>2026-05-04T11:43:10.641Z</time></trkpt><trkpt lat="42.6048109" lon="18.2328006"><ele>69.0</ele><time>2026-05-04T11:43:11.64Z</time></trkpt><trkpt lat="42.6049677" lon="18.2328442"><ele>66.0</ele><time>2026-05-04T11:43:12.64Z</time></trkpt><trkpt lat="42.6051251" lon="18.23288"><ele>66.0</ele><time>2026-05-04T11:43:13.641Z</time></trkpt><trkpt lat="42.605279" lon="18.2328973"><ele>66.0</ele><time>2026-05-04T11:43:14.641Z</time></trkpt><trkpt lat="42.6054233" lon="18.2329022"><ele>66.0</ele><time>2026-05-04T11:43:15.64Z</time></trkpt><trkpt lat="42.6055603" lon="18.2328988"><ele>66.0</ele><time>2026-05-04T11:43:16.641Z</time></trkpt><trkpt lat="42.6056957" lon="18.2328869"><ele>66.0</ele><time>2026-05-04T11:43:17.639Z</time></trkpt><trkpt lat="42.6058343" lon="18.2328646"><ele>66.0</ele><time>2026-05-04T11:43:18.64Z</time></trkpt><trkpt lat="42.6059663" lon="18.2328364"><ele>66.0</ele><time>2026-05-04T11:43:19.64Z</time></trkpt><trkpt lat="42.6060893" lon="18.2328193"><ele>66.0</ele><time>2026-05-04T11:43:20.641Z</time></trkpt><trkpt lat="42.6062116" lon="18.2327945"><ele>67.25</ele><time>2026-05-04T11:43:21.64Z</time></trkpt><trkpt lat="42.6063346" lon="18.23277"><ele>68.5</ele><time>2026-05-04T11:43:22.638Z</time></trkpt><trkpt lat="42.6064548" lon="18.2327446"><ele>69.75</ele><time>2026-05-04T11:43:23.64Z</time></trkpt><trkpt lat="42.6065663" lon="18.2327217"><ele>71.0</ele><time>2026-05-04T11:43:24.64Z</time></trkpt><trkpt lat="42.6066702" lon="18.2326991"><ele>71.0</ele><time>2026-05-04T11:43:25.638Z</time></trkpt><trkpt lat="42.6067558" lon="18.2326711"><ele>71.0</ele><time>2026-05-04T11:43:26.638Z</time></trkpt><trkpt lat="42.6068455" lon="18.2326179"><ele>71.0</ele><time>2026-05-04T11:43:27.64Z</time></trkpt><trkpt lat="42.6069294" lon="18.2325395"><ele>71.0</ele><time>2026-05-04T11:43:28.641Z</time></trkpt><trkpt lat="42.6070056" lon="18.232437"><ele>71.0</ele><time>2026-05-04T11:43:29.64Z</time></trkpt><trkpt lat="42.6070722" lon="18.2323163"><ele>73.0</ele><time>2026-05-04T11:43:30.64Z</time></trkpt><trkpt lat="42.6071349" lon="18.2321842"><ele>75.0</ele><time>2026-05-04T11:43:31.641Z</time></trkpt><trkpt lat="42.6071987" lon="18.2320494"><ele>77.0</ele><time>2026-05-04T11:43:32.64Z</time></trkpt><trkpt lat="42.6072611" lon="18.2319229"><ele>79.0</ele><time>2026-05-04T11:43:33.641Z</time></trkpt><trkpt lat="42.6073298" lon="18.2317972"><ele>79.0</ele><time>2026-05-04T11:43:34.641Z</time></trkpt><trkpt lat="42.6074049" lon="18.2316693"><ele>79.0</ele><time>2026-05-04T11:43:35.64Z</time></trkpt><trkpt lat="42.6074837" lon="18.23154"><ele>79.0</ele><time>2026-05-04T11:43:36.64Z</time></trkpt><trkpt lat="42.6075681" lon="18.2314163"><ele>79.0</ele><time>2026-05-04T11:43:37.64Z</time></trkpt><trkpt lat="42.6076747" lon="18.2312941"><ele>78.0</ele><time>2026-05-04T11:43:38.64Z</time></trkpt><trkpt lat="42.6077834" lon="18.2311871"><ele>77.0</ele><time>2026-05-04T11:43:39.639Z</time></trkpt><trkpt lat="42.6078934" lon="18.2311004"><ele>76.0</ele><time>2026-05-04T11:43:40.64Z</time></trkpt><trkpt lat="42.6080048" lon="18.2310182"><ele>75.0</ele><time>2026-05-04T11:43:41.639Z</time></trkpt><trkpt lat="42.6081189" lon="18.2309509"><ele>75.0</ele><time>2026-05-04T11:43:42.639Z</time></trkpt><trkpt lat="42.6082273" lon="18.2308759"><ele>75.0</ele><time>2026-05-04T11:43:43.639Z</time></trkpt><trkpt lat="42.6083348" lon="18.2307931"><ele>75.0</ele><time>2026-05-04T11:43:44.641Z</time></trkpt><trkpt lat="42.6084418" lon="18.2306988"><ele>75.0</ele><time>2026-05-04T11:43:45.639Z</time></trkpt><trkpt lat="42.6085443" lon="18.2305909"><ele>72.75</ele><time>2026-05-04T11:43:46.64Z</time></trkpt><trkpt lat="42.6086428" lon="18.2304663"><ele>70.5</ele><time>2026-05-04T11:43:47.639Z</time></trkpt><trkpt lat="42.6087351" lon="18.2303318"><ele>68.25</ele><time>2026-05-04T11:43:48.64Z</time></trkpt><trkpt lat="42.6088218" lon="18.2301889"><ele>66.0</ele><time>2026-05-04T11:43:49.639Z</time></trkpt><trkpt lat="42.6089" lon="18.2300412"><ele>68.5</ele><time>2026-05-04T11:43:50.639Z</time></trkpt><trkpt lat="42.6089839" lon="18.2298831"><ele>71.0</ele><time>2026-05-04T11:43:51.64Z</time></trkpt><trkpt lat="42.6090683" lon="18.2297271"><ele>73.5</ele><time>2026-05-04T11:43:52.639Z</time></trkpt><trkpt lat="42.6091464" lon="18.2295654"><ele>76.0</ele><time>2026-05-04T11:43:53.64Z</time></trkpt><trkpt lat="42.609226" lon="18.2294021"><ele>76.0</ele><time>2026-05-04T11:43:54.64Z</time></trkpt><trkpt lat="42.6093146" lon="18.2292421"><ele>76.0</ele><time>2026-05-04T11:43:55.64Z</time></trkpt><trkpt lat="42.6094029" lon="18.2290909"><ele>76.0</ele><time>2026-05-04T11:43:56.641Z</time></trkpt><trkpt lat="42.6094923" lon="18.2289506"><ele>76.0</ele><time>2026-05-04T11:43:57.64Z</time></trkpt><trkpt lat="42.6095843" lon="18.2288248"><ele>75.0</ele><time>2026-05-04T11:43:58.64Z</time></trkpt><trkpt lat="42.609675" lon="18.2287062"><ele>74.0</ele><time>2026-05-04T11:43:59.64Z</time></trkpt><trkpt lat="42.6097708" lon="18.2285946"><ele>73.0</ele><time>2026-05-04T11:44:00.64Z</time></trkpt><trkpt lat="42.609866" lon="18.2284925"><ele>72.0</ele><time>2026-05-04T11:44:01.641Z</time></trkpt><trkpt lat="42.6099585" lon="18.2284054"><ele>72.0</ele><time>2026-05-04T11:44:02.64Z</time></trkpt><trkpt lat="42.6100499" lon="18.2283309"><ele>72.0</ele><time>2026-05-04T11:44:03.64Z</time></trkpt><trkpt lat="42.6101449" lon="18.2282566"><ele>72.0</ele><time>2026-05-04T11:44:04.638Z</time></trkpt><trkpt lat="42.6102447" lon="18.2281852"><ele>72.0</ele><time>2026-05-04T11:44:05.64Z</time></trkpt><trkpt lat="42.6103424" lon="18.2281211"><ele>72.0</ele><time>2026-05-04T11:44:06.641Z</time></trkpt><trkpt lat="42.6104357" lon="18.228061"><ele>71.4</ele><time>2026-05-04T11:44:07.639Z</time></trkpt><trkpt lat="42.6105264" lon="18.2280056"><ele>70.80000000000001</ele><time>2026-05-04T11:44:08.639Z</time></trkpt><trkpt lat="42.6106215" lon="18.2279463"><ele>70.2</ele><time>2026-05-04T11:44:09.639Z</time></trkpt><trkpt lat="42.6107182" lon="18.2278951"><ele>69.60000000000001</ele><time>2026-05-04T11:44:10.641Z</time></trkpt><trkpt lat="42.6108184" lon="18.2278465"><ele>69.0</ele><time>2026-05-04T11:44:11.64Z</time></trkpt><trkpt lat="42.6109195" lon="18.2277981"><ele>69.0</ele><time>2026-05-04T11:44:12.64Z</time></trkpt><trkpt lat="42.6110148" lon="18.2277684"><ele>69.0</ele><time>2026-05-04T11:44:13.64Z</time></trkpt><trkpt lat="42.6111133" lon="18.2277332"><ele>69.0</ele><time>2026-05-04T11:44:14.64Z</time></trkpt><trkpt lat="42.6112113" lon="18.2276944"><ele>69.0</ele><time>2026-05-04T11:44:15.64Z</time></trkpt><trkpt lat="42.6112998" lon="18.2276537"><ele>69.0</ele><time>2026-05-04T11:44:16.641Z</time></trkpt><trkpt lat="42.6113985" lon="18.2276153"><ele>70.60000000000001</ele><time>2026-05-04T11:44:17.638Z</time></trkpt><trkpt lat="42.6114876" lon="18.2275772"><ele>72.2</ele><time>2026-05-04T11:44:18.64Z</time></trkpt><trkpt lat="42.6115798" lon="18.2275347"><ele>73.80000000000001</ele><time>2026-05-04T11:44:19.64Z</time></trkpt><trkpt lat="42.6116745" lon="18.2274926"><ele>75.4</ele><time>2026-05-04T11:44:20.64Z</time></trkpt><trkpt lat="42.61177" lon="18.2274502"><ele>77.0</ele><time>2026-05-04T11:44:21.639Z</time></trkpt><trkpt lat="42.6118644" lon="18.2274042"><ele>77.0</ele><time>2026-05-04T11:44:22.641Z</time></trkpt><trkpt lat="42.6119563" lon="18.2273528"><ele>77.0</ele><time>2026-05-04T11:44:23.641Z</time></trkpt><trkpt lat="42.6120456" lon="18.2273028"><ele>77.0</ele><time>2026-05-04T11:44:24.638Z</time></trkpt><trkpt lat="42.6121312" lon="18.2272502"><ele>77.0</ele><time>2026-05-04T11:44:25.641Z</time></trkpt><trkpt lat="42.6122142" lon="18.2271966"><ele>77.0</ele><time>2026-05-04T11:44:26.641Z</time></trkpt><trkpt lat="42.6122997" lon="18.2271368"><ele>75.6</ele><time>2026-05-04T11:44:27.64Z</time></trkpt><trkpt lat="42.6123841" lon="18.2270727"><ele>74.2</ele><time>2026-05-04T11:44:28.64Z</time></trkpt><trkpt lat="42.6124714" lon="18.2270002"><ele>72.8</ele><time>2026-05-04T11:44:29.641Z</time></trkpt><trkpt lat="42.6125606" lon="18.2269259"><ele>71.4</ele><time>2026-05-04T11:44:30.64Z</time></trkpt><trkpt lat="42.6126444" lon="18.226847"><ele>70.0</ele><time>2026-05-04T11:44:31.64Z</time></trkpt><trkpt lat="42.6127235" lon="18.2267665"><ele>70.0</ele><time>2026-05-04T11:44:32.639Z</time></trkpt><trkpt lat="42.6127891" lon="18.2266909"><ele>70.0</ele><time>2026-05-04T11:44:33.641Z</time></trkpt><trkpt lat="42.6128402" lon="18.2266337"><ele>70.0</ele><time>2026-05-04T11:44:34.641Z</time></trkpt><trkpt lat="42.6129326" lon="18.2265164"><ele>70.0</ele><time>2026-05-04T11:44:36.64Z</time></trkpt><trkpt lat="42.6129865" lon="18.2264488"><ele>70.0</ele><time>2026-05-04T11:44:37.64Z</time></trkpt><trkpt lat="42.6130398" lon="18.2263762"><ele>70.0</ele><time>2026-05-04T11:44:38.639Z</time></trkpt><trkpt lat="42.6130977" lon="18.2262911"><ele>72.25</ele><time>2026-05-04T11:44:39.64Z</time></trkpt><trkpt lat="42.6131677" lon="18.2261889"><ele>74.5</ele><time>2026-05-04T11:44:40.639Z</time></trkpt><trkpt lat="42.613242" lon="18.2260644"><ele>76.75</ele><time>2026-05-04T11:44:41.64Z</time></trkpt><trkpt lat="42.6133222" lon="18.2259112"><ele>79.0</ele><time>2026-05-04T11:44:42.64Z</time></trkpt><trkpt lat="42.6134064" lon="18.2257063"><ele>74.66666666666666</ele><time>2026-05-04T11:44:43.639Z</time></trkpt><trkpt lat="42.6135016" lon="18.2254861"><ele>70.33333333333333</ele><time>2026-05-04T11:44:44.641Z</time></trkpt><trkpt lat="42.6136022" lon="18.2252218"><ele>66.0</ele><time>2026-05-04T11:44:45.637Z</time></trkpt><trkpt lat="42.6137103" lon="18.2249248"><ele>73.5</ele><time>2026-05-04T11:44:46.64Z</time></trkpt><trkpt lat="42.613814" lon="18.2246137"><ele>81.0</ele><time>2026-05-04T11:44:47.64Z</time></trkpt><trkpt lat="42.6139224" lon="18.2243259"><ele>81.0</ele><time>2026-05-04T11:44:48.639Z</time></trkpt><trkpt lat="42.6140391" lon="18.2240596"><ele>81.0</ele><time>2026-05-04T11:44:49.64Z</time></trkpt><trkpt lat="42.6141436" lon="18.223813"><ele>81.0</ele><time>2026-05-04T11:44:50.641Z</time></trkpt><trkpt lat="42.6142449" lon="18.2235694"><ele>82.33333333333333</ele><time>2026-05-04T11:44:51.641Z</time></trkpt><trkpt lat="42.6143442" lon="18.2233396"><ele>83.66666666666666</ele><time>2026-05-04T11:44:52.641Z</time></trkpt><trkpt lat="42.6144348" lon="18.223113"><ele>85.0</ele><time>2026-05-04T11:44:53.64Z</time></trkpt><trkpt lat="42.6145214" lon="18.222894"><ele>85.0</ele><time>2026-05-04T11:44:54.641Z</time></trkpt><trkpt lat="42.6145956" lon="18.2226724"><ele>85.0</ele><time>2026-05-04T11:44:55.639Z</time></trkpt><trkpt lat="42.6146668" lon="18.2224474"><ele>85.0</ele><time>2026-05-04T11:44:56.64Z</time></trkpt><trkpt lat="42.6147164" lon="18.2222106"><ele>83.33333333333333</ele><time>2026-05-04T11:44:57.64Z</time></trkpt><trkpt lat="42.6147553" lon="18.2219874"><ele>81.66666666666667</ele><time>2026-05-04T11:44:58.641Z</time></trkpt><trkpt lat="42.6147833" lon="18.2217537"><ele>80.0</ele><time>2026-05-04T11:44:59.638Z</time></trkpt><trkpt lat="42.6148028" lon="18.2215202"><ele>80.0</ele><time>2026-05-04T11:45:00.64Z</time></trkpt><trkpt lat="42.614821" lon="18.2212875"><ele>80.0</ele><time>2026-05-04T11:45:01.64Z</time></trkpt><trkpt lat="42.614838" lon="18.2210535"><ele>80.0</ele><time>2026-05-04T11:45:02.639Z</time></trkpt><trkpt lat="42.6148565" lon="18.2208201"><ele>80.0</ele><time>2026-05-04T11:45:03.64Z</time></trkpt><trkpt lat="42.6148784" lon="18.2205875"><ele>80.0</ele><time>2026-05-04T11:45:04.64Z</time></trkpt><trkpt lat="42.6149038" lon="18.2203595"><ele>80.0</ele><time>2026-05-04T11:45:05.64Z</time></trkpt><trkpt lat="42.6149367" lon="18.2201367"><ele>80.0</ele><time>2026-05-04T11:45:06.639Z</time></trkpt><trkpt lat="42.6149678" lon="18.2199179"><ele>80.0</ele><time>2026-05-04T11:45:07.637Z</time></trkpt><trkpt lat="42.6150089" lon="18.2196962"><ele>80.0</ele><time>2026-05-04T11:45:08.639Z</time></trkpt><trkpt lat="42.6150646" lon="18.2194804"><ele>76.66666666666667</ele><time>2026-05-04T11:45:09.639Z</time></trkpt><trkpt lat="42.6151263" lon="18.2192669"><ele>73.33333333333333</ele><time>2026-05-04T11:45:10.639Z</time></trkpt><trkpt lat="42.6152069" lon="18.2190631"><ele>70.0</ele><time>2026-05-04T11:45:11.64Z</time></trkpt><trkpt lat="42.6152813" lon="18.2188558"><ele>77.33333333333333</ele><time>2026-05-04T11:45:12.64Z</time></trkpt><trkpt lat="42.6153666" lon="18.2186498"><ele>84.66666666666667</ele><time>2026-05-04T11:45:13.639Z</time></trkpt><trkpt lat="42.6154586" lon="18.2184476"><ele>92.0</ele><time>2026-05-04T11:45:14.641Z</time></trkpt><trkpt lat="42.6155585" lon="18.2182486"><ele>85.66666666666667</ele><time>2026-05-04T11:45:15.641Z</time></trkpt><trkpt lat="42.6156718" lon="18.2180421"><ele>79.33333333333333</ele><time>2026-05-04T11:45:16.638Z</time></trkpt><trkpt lat="42.6157877" lon="18.2178565"><ele>73.0</ele><time>2026-05-04T11:45:17.64Z</time></trkpt><trkpt lat="42.6159073" lon="18.2176718"><ele>73.0</ele><time>2026-05-04T11:45:18.64Z</time></trkpt><trkpt lat="42.6160281" lon="18.2174856"><ele>73.0</ele><time>2026-05-04T11:45:19.639Z</time></trkpt><trkpt lat="42.6161489" lon="18.2173059"><ele>73.0</ele><time>2026-05-04T11:45:20.637Z</time></trkpt><trkpt lat="42.6162738" lon="18.2171299"><ele>74.66666666666666</ele><time>2026-05-04T11:45:21.638Z</time></trkpt><trkpt lat="42.6163904" lon="18.2169524"><ele>76.33333333333333</ele><time>2026-05-04T11:45:22.638Z</time></trkpt><trkpt lat="42.6165116" lon="18.2167828"><ele>78.0</ele><time>2026-05-04T11:45:23.64Z</time></trkpt><trkpt lat="42.6166303" lon="18.2166098"><ele>74.33333333333333</ele><time>2026-05-04T11:45:24.641Z</time></trkpt><trkpt lat="42.6167478" lon="18.2164381"><ele>70.66666666666666</ele><time>2026-05-04T11:45:25.638Z</time></trkpt><trkpt lat="42.6168631" lon="18.2162717"><ele>67.0</ele><time>2026-05-04T11:45:26.64Z</time></trkpt><trkpt lat="42.6169763" lon="18.2161064"><ele>72.0</ele><time>2026-05-04T11:45:27.638Z</time></trkpt><trkpt lat="42.6170866" lon="18.2159544"><ele>77.0</ele><time>2026-05-04T11:45:28.64Z</time></trkpt><trkpt lat="42.6172069" lon="18.215806"><ele>82.0</ele><time>2026-05-04T11:45:29.639Z</time></trkpt><trkpt lat="42.6173268" lon="18.2156639"><ele>77.0</ele><time>2026-05-04T11:45:30.636Z</time></trkpt><trkpt lat="42.6174526" lon="18.2155285"><ele>72.0</ele><time>2026-05-04T11:45:31.637Z</time></trkpt><trkpt lat="42.6175862" lon="18.2154015"><ele>67.0</ele><time>2026-05-04T11:45:32.641Z</time></trkpt><trkpt lat="42.6177219" lon="18.2152771"><ele>70.33333333333333</ele><time>2026-05-04T11:45:33.641Z</time></trkpt><trkpt lat="42.6178529" lon="18.2151596"><ele>73.66666666666667</ele><time>2026-05-04T11:45:34.64Z</time></trkpt><trkpt lat="42.6179889" lon="18.215059"><ele>77.0</ele><time>2026-05-04T11:45:35.639Z</time></trkpt><trkpt lat="42.618128" lon="18.2149659"><ele>77.0</ele><time>2026-05-04T11:45:36.641Z</time></trkpt><trkpt lat="42.6182719" lon="18.2148771"><ele>77.0</ele><time>2026-05-04T11:45:37.639Z</time></trkpt><trkpt lat="42.6184145" lon="18.2148113"><ele>77.0</ele><time>2026-05-04T11:45:38.64Z</time></trkpt><trkpt lat="42.6185578" lon="18.2147497"><ele>77.33333333333334</ele><time>2026-05-04T11:45:39.639Z</time></trkpt><trkpt lat="42.6186989" lon="18.2146669"><ele>77.66666666666667</ele><time>2026-05-04T11:45:40.638Z</time></trkpt><trkpt lat="42.6188324" lon="18.2145652"><ele>78.0</ele><time>2026-05-04T11:45:41.641Z</time></trkpt><trkpt lat="42.6189593" lon="18.2144428"><ele>78.0</ele><time>2026-05-04T11:45:42.64Z</time></trkpt><trkpt lat="42.6190729" lon="18.2142925"><ele>78.0</ele><time>2026-05-04T11:45:43.64Z</time></trkpt><trkpt lat="42.619171" lon="18.2141087"><ele>78.0</ele><time>2026-05-04T11:45:44.64Z</time></trkpt><trkpt lat="42.6192699" lon="18.2139164"><ele>74.33333333333333</ele><time>2026-05-04T11:45:45.639Z</time></trkpt><trkpt lat="42.6193656" lon="18.2137199"><ele>70.66666666666666</ele><time>2026-05-04T11:45:46.64Z</time></trkpt><trkpt lat="42.619459" lon="18.21352"><ele>67.0</ele><time>2026-05-04T11:45:47.638Z</time></trkpt><trkpt lat="42.6195503" lon="18.2133136"><ele>69.0</ele><time>2026-05-04T11:45:48.64Z</time></trkpt><trkpt lat="42.6196314" lon="18.2131164"><ele>71.0</ele><time>2026-05-04T11:45:49.639Z</time></trkpt><trkpt lat="42.6197256" lon="18.2129467"><ele>73.0</ele><time>2026-05-04T11:45:50.641Z</time></trkpt><trkpt lat="42.6198211" lon="18.2127979"><ele>73.0</ele><time>2026-05-04T11:45:51.641Z</time></trkpt><trkpt lat="42.6199342" lon="18.2126638"><ele>73.0</ele><time>2026-05-04T11:45:52.64Z</time></trkpt><trkpt lat="42.620054" lon="18.212531"><ele>73.0</ele><time>2026-05-04T11:45:53.639Z</time></trkpt><trkpt lat="42.6201955" lon="18.2124247"><ele>75.66666666666666</ele><time>2026-05-04T11:45:54.639Z</time></trkpt><trkpt lat="42.6203426" lon="18.2123367"><ele>78.33333333333333</ele><time>2026-05-04T11:45:55.64Z</time></trkpt><trkpt lat="42.6204993" lon="18.2122694"><ele>81.0</ele><time>2026-05-04T11:45:56.636Z</time></trkpt><trkpt lat="42.6206578" lon="18.2122138"><ele>75.0</ele><time>2026-05-04T11:45:57.639Z</time></trkpt><trkpt lat="42.6208142" lon="18.2121867"><ele>69.0</ele><time>2026-05-04T11:45:58.639Z</time></trkpt><trkpt lat="42.6209818" lon="18.2121812"><ele>63.0</ele><time>2026-05-04T11:45:59.641Z</time></trkpt><trkpt lat="42.6211472" lon="18.2121807"><ele>62.66666666666667</ele><time>2026-05-04T11:46:00.64Z</time></trkpt><trkpt lat="42.6213085" lon="18.2121688"><ele>62.333333333333336</ele><time>2026-05-04T11:46:01.64Z</time></trkpt><trkpt lat="42.6214684" lon="18.2121427"><ele>62.0</ele><time>2026-05-04T11:46:02.64Z</time></trkpt><trkpt lat="42.6216273" lon="18.212092"><ele>62.0</ele><time>2026-05-04T11:46:03.638Z</time></trkpt><trkpt lat="42.6217817" lon="18.2120206"><ele>62.0</ele><time>2026-05-04T11:46:04.64Z</time></trkpt><trkpt lat="42.6219357" lon="18.2119421"><ele>62.0</ele><time>2026-05-04T11:46:05.641Z</time></trkpt><trkpt lat="42.622081" lon="18.2118539"><ele>65.33333333333334</ele><time>2026-05-04T11:46:06.641Z</time></trkpt><trkpt lat="42.6222212" lon="18.2117706"><ele>68.66666666666667</ele><time>2026-05-04T11:46:07.639Z</time></trkpt><trkpt lat="42.622361" lon="18.2116869"><ele>72.0</ele><time>2026-05-04T11:46:08.64Z</time></trkpt><trkpt lat="42.6225071" lon="18.2116026"><ele>72.0</ele><time>2026-05-04T11:46:09.64Z</time></trkpt><trkpt lat="42.6226512" lon="18.2115096"><ele>72.0</ele><time>2026-05-04T11:46:10.638Z</time></trkpt><trkpt lat="42.6228057" lon="18.2114175"><ele>72.0</ele><time>2026-05-04T11:46:11.639Z</time></trkpt><trkpt lat="42.622956" lon="18.2113208"><ele>69.66666666666667</ele><time>2026-05-04T11:46:12.639Z</time></trkpt><trkpt lat="42.6231145" lon="18.2112194"><ele>67.33333333333334</ele><time>2026-05-04T11:46:13.64Z</time></trkpt><trkpt lat="42.6232731" lon="18.2111228"><ele>65.0</ele><time>2026-05-04T11:46:14.639Z</time></trkpt><trkpt lat="42.623432" lon="18.2110215"><ele>65.0</ele><time>2026-05-04T11:46:15.641Z</time></trkpt><trkpt lat="42.6235889" lon="18.2109132"><ele>65.0</ele><time>2026-05-04T11:46:16.64Z</time></trkpt><trkpt lat="42.6237358" lon="18.2108087"><ele>65.0</ele><time>2026-05-04T11:46:17.64Z</time></trkpt><trkpt lat="42.6238746" lon="18.2107033"><ele>62.66666666666667</ele><time>2026-05-04T11:46:18.64Z</time></trkpt><trkpt lat="42.624005" lon="18.2105924"><ele>60.33333333333333</ele><time>2026-05-04T11:46:19.64Z</time></trkpt><trkpt lat="42.6241244" lon="18.2104713"><ele>58.0</ele><time>2026-05-04T11:46:20.64Z</time></trkpt><trkpt lat="42.624235" lon="18.2103391"><ele>58.0</ele><time>2026-05-04T11:46:21.64Z</time></trkpt><trkpt lat="42.6243361" lon="18.2101967"><ele>58.0</ele><time>2026-05-04T11:46:22.641Z</time></trkpt><trkpt lat="42.6244299" lon="18.2100557"><ele>58.0</ele><time>2026-05-04T11:46:23.638Z</time></trkpt><trkpt lat="42.6245116" lon="18.2099149"><ele>58.0</ele><time>2026-05-04T11:46:24.639Z</time></trkpt><trkpt lat="42.6245848" lon="18.2097713"><ele>60.0</ele><time>2026-05-04T11:46:25.64Z</time></trkpt><trkpt lat="42.6246482" lon="18.2096203"><ele>62.0</ele><time>2026-05-04T11:46:26.641Z</time></trkpt><trkpt lat="42.6247036" lon="18.2094629"><ele>64.0</ele><time>2026-05-04T11:46:27.64Z</time></trkpt><trkpt lat="42.6247513" lon="18.2093027"><ele>66.0</ele><time>2026-05-04T11:46:28.639Z</time></trkpt><trkpt lat="42.6247895" lon="18.2091415"><ele>65.5</ele><time>2026-05-04T11:46:29.639Z</time></trkpt><trkpt lat="42.6248163" lon="18.2089776"><ele>65.0</ele><time>2026-05-04T11:46:30.641Z</time></trkpt><trkpt lat="42.6248356" lon="18.2088199"><ele>64.5</ele><time>2026-05-04T11:46:31.638Z</time></trkpt><trkpt lat="42.6248465" lon="18.2086552"><ele>64.0</ele><time>2026-05-04T11:46:32.639Z</time></trkpt><trkpt lat="42.6248482" lon="18.2084963"><ele>64.0</ele><time>2026-05-04T11:46:33.64Z</time></trkpt><trkpt lat="42.6248447" lon="18.2083436"><ele>64.0</ele><time>2026-05-04T11:46:34.64Z</time></trkpt><trkpt lat="42.6248337" lon="18.2081968"><ele>64.0</ele><time>2026-05-04T11:46:35.64Z</time></trkpt><trkpt lat="42.6248193" lon="18.2080587"><ele>64.0</ele><time>2026-05-04T11:46:36.636Z</time></trkpt><trkpt lat="42.6248002" lon="18.2079252"><ele>64.0</ele><time>2026-05-04T11:46:37.639Z</time></trkpt><trkpt lat="42.6247813" lon="18.2077898"><ele>64.0</ele><time>2026-05-04T11:46:38.641Z</time></trkpt><trkpt lat="42.6247569" lon="18.2076551"><ele>64.0</ele><time>2026-05-04T11:46:39.64Z</time></trkpt><trkpt lat="42.6247247" lon="18.2075124"><ele>64.0</ele><time>2026-05-04T11:46:40.639Z</time></trkpt><trkpt lat="42.6246904" lon="18.2073699"><ele>64.0</ele><time>2026-05-04T11:46:41.639Z</time></trkpt><trkpt lat="42.624652" lon="18.2072305"><ele>64.0</ele><time>2026-05-04T11:46:42.64Z</time></trkpt><trkpt lat="42.624614" lon="18.207097"><ele>62.6</ele><time>2026-05-04T11:46:43.638Z</time></trkpt><trkpt lat="42.6245777" lon="18.2069714"><ele>61.2</ele><time>2026-05-04T11:46:44.638Z</time></trkpt><trkpt lat="42.624542" lon="18.2068526"><ele>59.800000000000004</ele><time>2026-05-04T11:46:45.637Z</time></trkpt><trkpt lat="42.6245013" lon="18.2067279"><ele>58.400000000000006</ele><time>2026-05-04T11:46:46.638Z</time></trkpt><trkpt lat="42.6244605" lon="18.2065942"><ele>57.0</ele><time>2026-05-04T11:46:47.64Z</time></trkpt><trkpt lat="42.6244209" lon="18.2064599"><ele>56.6</ele><time>2026-05-04T11:46:48.64Z</time></trkpt><trkpt lat="42.6243801" lon="18.2063112"><ele>56.2</ele><time>2026-05-04T11:46:49.64Z</time></trkpt><trkpt lat="42.6243333" lon="18.2061776"><ele>55.8</ele><time>2026-05-04T11:46:50.639Z</time></trkpt><trkpt lat="42.6243045" lon="18.206032"><ele>55.4</ele><time>2026-05-04T11:46:51.64Z</time></trkpt><trkpt lat="42.6242619" lon="18.2059059"><ele>55.0</ele><time>2026-05-04T11:46:52.64Z</time></trkpt><trkpt lat="42.6242221" lon="18.2057759"><ele>54.2</ele><time>2026-05-04T11:46:53.64Z</time></trkpt><trkpt lat="42.6241796" lon="18.2056473"><ele>53.4</ele><time>2026-05-04T11:46:54.638Z</time></trkpt><trkpt lat="42.6241453" lon="18.2055065"><ele>52.599999999999994</ele><time>2026-05-04T11:46:55.641Z</time></trkpt><trkpt lat="42.6241101" lon="18.205368"><ele>51.8</ele><time>2026-05-04T11:46:56.641Z</time></trkpt><trkpt lat="42.6240815" lon="18.2052355"><ele>51.0</ele><time>2026-05-04T11:46:57.639Z</time></trkpt><trkpt lat="42.6240544" lon="18.2051044"><ele>51.0</ele><time>2026-05-04T11:46:58.641Z</time></trkpt><trkpt lat="42.6240298" lon="18.2049737"><ele>51.0</ele><time>2026-05-04T11:46:59.639Z</time></trkpt><trkpt lat="42.6240091" lon="18.2048413"><ele>51.0</ele><time>2026-05-04T11:47:00.64Z</time></trkpt><trkpt lat="42.6239937" lon="18.2047087"><ele>51.0</ele><time>2026-05-04T11:47:01.638Z</time></trkpt><trkpt lat="42.6239805" lon="18.2045769"><ele>51.0</ele><time>2026-05-04T11:47:02.639Z</time></trkpt><trkpt lat="42.6239706" lon="18.2044458"><ele>51.199999999999996</ele><time>2026-05-04T11:47:03.639Z</time></trkpt><trkpt lat="42.6239675" lon="18.2043152"><ele>51.4</ele><time>2026-05-04T11:47:04.639Z</time></trkpt><trkpt lat="42.6239725" lon="18.2041864"><ele>51.6</ele><time>2026-05-04T11:47:05.64Z</time></trkpt><trkpt lat="42.6239826" lon="18.2040587"><ele>51.8</ele><time>2026-05-04T11:47:06.639Z</time></trkpt><trkpt lat="42.6239958" lon="18.2039313"><ele>52.0</ele><time>2026-05-04T11:47:07.639Z</time></trkpt><trkpt lat="42.6240137" lon="18.2038042"><ele>51.400000000000006</ele><time>2026-05-04T11:47:08.64Z</time></trkpt><trkpt lat="42.6240382" lon="18.2036771"><ele>50.800000000000004</ele><time>2026-05-04T11:47:09.639Z</time></trkpt><trkpt lat="42.6240661" lon="18.2035554"><ele>50.2</ele><time>2026-05-04T11:47:10.641Z</time></trkpt><trkpt lat="42.6240983" lon="18.2034278"><ele>49.6</ele><time>2026-05-04T11:47:11.641Z</time></trkpt><trkpt lat="42.6241313" lon="18.203308"><ele>49.0</ele><time>2026-05-04T11:47:12.641Z</time></trkpt><trkpt lat="42.6241732" lon="18.2031852"><ele>47.0</ele><time>2026-05-04T11:47:13.64Z</time></trkpt><trkpt lat="42.6242217" lon="18.2030668"><ele>45.0</ele><time>2026-05-04T11:47:14.641Z</time></trkpt><trkpt lat="42.6242742" lon="18.2029482"><ele>43.0</ele><time>2026-05-04T11:47:15.64Z</time></trkpt><trkpt lat="42.6243277" lon="18.202832"><ele>41.0</ele><time>2026-05-04T11:47:16.64Z</time></trkpt><trkpt lat="42.6243944" lon="18.202715"><ele>39.0</ele><time>2026-05-04T11:47:17.641Z</time></trkpt><trkpt lat="42.6244609" lon="18.2026036"><ele>39.0</ele><time>2026-05-04T11:47:18.638Z</time></trkpt><trkpt lat="42.6245285" lon="18.2025031"><ele>39.0</ele><time>2026-05-04T11:47:19.639Z</time></trkpt><trkpt lat="42.6245963" lon="18.2024029"><ele>39.0</ele><time>2026-05-04T11:47:20.64Z</time></trkpt><trkpt lat="42.624664" lon="18.202312"><ele>39.0</ele><time>2026-05-04T11:47:21.64Z</time></trkpt><trkpt lat="42.6247317" lon="18.2022272"><ele>39.0</ele><time>2026-05-04T11:47:22.639Z</time></trkpt><trkpt lat="42.6247988" lon="18.2021454"><ele>39.0</ele><time>2026-05-04T11:47:23.641Z</time></trkpt><trkpt lat="42.6248638" lon="18.2020627"><ele>39.0</ele><time>2026-05-04T11:47:24.641Z</time></trkpt><trkpt lat="42.6249252" lon="18.2019779"><ele>39.0</ele><time>2026-05-04T11:47:25.64Z</time></trkpt><trkpt lat="42.6249888" lon="18.2018907"><ele>39.0</ele><time>2026-05-04T11:47:26.64Z</time></trkpt><trkpt lat="42.6250535" lon="18.2017961"><ele>39.0</ele><time>2026-05-04T11:47:27.641Z</time></trkpt><trkpt lat="42.6251185" lon="18.2016993"><ele>39.0</ele><time>2026-05-04T11:47:28.64Z</time></trkpt><trkpt lat="42.6251852" lon="18.2015949"><ele>39.0</ele><time>2026-05-04T11:47:29.641Z</time></trkpt><trkpt lat="42.6252503" lon="18.2014849"><ele>39.0</ele><time>2026-05-04T11:47:30.64Z</time></trkpt><trkpt lat="42.6253139" lon="18.201368"><ele>39.0</ele><time>2026-05-04T11:47:31.641Z</time></trkpt><trkpt lat="42.6253722" lon="18.201246"><ele>39.0</ele><time>2026-05-04T11:47:32.641Z</time></trkpt><trkpt lat="42.6254242" lon="18.2011256"><ele>40.2</ele><time>2026-05-04T11:47:33.641Z</time></trkpt><trkpt lat="42.6254653" lon="18.2010069"><ele>41.4</ele><time>2026-05-04T11:47:34.639Z</time></trkpt><trkpt lat="42.6255016" lon="18.2008844"><ele>42.6</ele><time>2026-05-04T11:47:35.64Z</time></trkpt><trkpt lat="42.6255311" lon="18.2007495"><ele>43.8</ele><time>2026-05-04T11:47:36.64Z</time></trkpt><trkpt lat="42.6255535" lon="18.2006069"><ele>45.0</ele><time>2026-05-04T11:47:37.639Z</time></trkpt><trkpt lat="42.6255738" lon="18.2004669"><ele>45.0</ele><time>2026-05-04T11:47:38.641Z</time></trkpt><trkpt lat="42.6255857" lon="18.2003307"><ele>45.0</ele><time>2026-05-04T11:47:39.64Z</time></trkpt><trkpt lat="42.6255926" lon="18.2001922"><ele>45.0</ele><time>2026-05-04T11:47:40.638Z</time></trkpt><trkpt lat="42.6255902" lon="18.2000627"><ele>45.0</ele><time>2026-05-04T11:47:41.639Z</time></trkpt><trkpt lat="42.6255867" lon="18.199949"><ele>45.0</ele><time>2026-05-04T11:47:42.64Z</time></trkpt><trkpt lat="42.6255767" lon="18.1998367"><ele>44.666666666666664</ele><time>2026-05-04T11:47:43.64Z</time></trkpt><trkpt lat="42.6255617" lon="18.1997258"><ele>44.333333333333336</ele><time>2026-05-04T11:47:44.638Z</time></trkpt><trkpt lat="42.6255431" lon="18.1996141"><ele>44.0</ele><time>2026-05-04T11:47:45.64Z</time></trkpt><trkpt lat="42.6255206" lon="18.199505"><ele>43.66666666666667</ele><time>2026-05-04T11:47:46.636Z</time></trkpt><trkpt lat="42.6254945" lon="18.1993954"><ele>43.333333333333336</ele><time>2026-05-04T11:47:47.641Z</time></trkpt><trkpt lat="42.6254674" lon="18.1992867"><ele>43.0</ele><time>2026-05-04T11:47:48.639Z</time></trkpt><trkpt lat="42.6254381" lon="18.1991793"><ele>43.0</ele><time>2026-05-04T11:47:49.64Z</time></trkpt><trkpt lat="42.6254149" lon="18.1990966"><ele>43.0</ele><time>2026-05-04T11:47:50.64Z</time></trkpt><trkpt lat="42.6253864" lon="18.1990007"><ele>43.0</ele><time>2026-05-04T11:47:52.64Z</time></trkpt><trkpt lat="42.6253651" lon="18.1989119"><ele>43.0</ele><time>2026-05-04T11:48:07.64Z</time></trkpt><trkpt lat="42.6253335" lon="18.1988024"><ele>43.0</ele><time>2026-05-04T11:48:09.639Z</time></trkpt><trkpt lat="42.6252862" lon="18.1986559"><ele>43.0</ele><time>2026-05-04T11:48:11.641Z</time></trkpt><trkpt lat="42.6252581" lon="18.1985765"><ele>41.0</ele><time>2026-05-04T11:48:12.64Z</time></trkpt><trkpt lat="42.6252304" lon="18.1984903"><ele>39.0</ele><time>2026-05-04T11:48:13.64Z</time></trkpt><trkpt lat="42.6252006" lon="18.1983867"><ele>37.0</ele><time>2026-05-04T11:48:14.639Z</time></trkpt><trkpt lat="42.6251713" lon="18.1982728"><ele>35.0</ele><time>2026-05-04T11:48:15.641Z</time></trkpt><trkpt lat="42.6251435" lon="18.1981591"><ele>33.0</ele><time>2026-05-04T11:48:16.641Z</time></trkpt><trkpt lat="42.6251207" lon="18.1980208"><ele>31.0</ele><time>2026-05-04T11:48:17.638Z</time></trkpt><trkpt lat="42.6250979" lon="18.197882"><ele>31.0</ele><time>2026-05-04T11:48:18.638Z</time></trkpt><trkpt lat="42.6250857" lon="18.1977311"><ele>31.0</ele><time>2026-05-04T11:48:19.641Z</time></trkpt><trkpt lat="42.6250768" lon="18.1975766"><ele>31.0</ele><time>2026-05-04T11:48:20.64Z</time></trkpt><trkpt lat="42.6250791" lon="18.1974146"><ele>31.0</ele><time>2026-05-04T11:48:21.641Z</time></trkpt><trkpt lat="42.6250886" lon="18.1972504"><ele>29.75</ele><time>2026-05-04T11:48:22.639Z</time></trkpt><trkpt lat="42.6251045" lon="18.1970813"><ele>28.5</ele><time>2026-05-04T11:48:23.638Z</time></trkpt><trkpt lat="42.6251265" lon="18.1969077"><ele>27.25</ele><time>2026-05-04T11:48:24.64Z</time></trkpt><trkpt lat="42.6251518" lon="18.1967364"><ele>26.0</ele><time>2026-05-04T11:48:25.639Z</time></trkpt><trkpt lat="42.6251761" lon="18.1965633"><ele>24.75</ele><time>2026-05-04T11:48:26.641Z</time></trkpt><trkpt lat="42.625199" lon="18.1963973"><ele>23.5</ele><time>2026-05-04T11:48:27.641Z</time></trkpt><trkpt lat="42.6252184" lon="18.1962311"><ele>22.25</ele><time>2026-05-04T11:48:28.639Z</time></trkpt><trkpt lat="42.6252377" lon="18.19606"><ele>21.0</ele><time>2026-05-04T11:48:29.641Z</time></trkpt><trkpt lat="42.6252565" lon="18.195885"><ele>21.0</ele><time>2026-05-04T11:48:30.639Z</time></trkpt><trkpt lat="42.6252736" lon="18.1957074"><ele>21.0</ele><time>2026-05-04T11:48:31.64Z</time></trkpt><trkpt lat="42.6252842" lon="18.1955283"><ele>21.0</ele><time>2026-05-04T11:48:32.641Z</time></trkpt><trkpt lat="42.6252889" lon="18.1953505"><ele>21.0</ele><time>2026-05-04T11:48:33.64Z</time></trkpt><trkpt lat="42.6252923" lon="18.1951702"><ele>20.5</ele><time>2026-05-04T11:48:34.64Z</time></trkpt><trkpt lat="42.625294" lon="18.1949873"><ele>20.0</ele><time>2026-05-04T11:48:35.64Z</time></trkpt><trkpt lat="42.6252934" lon="18.1948034"><ele>19.5</ele><time>2026-05-04T11:48:36.64Z</time></trkpt><trkpt lat="42.62529" lon="18.1946158"><ele>19.0</ele><time>2026-05-04T11:48:37.639Z</time></trkpt><trkpt lat="42.6252826" lon="18.194425"><ele>18.5</ele><time>2026-05-04T11:48:38.641Z</time></trkpt><trkpt lat="42.6252731" lon="18.1942409"><ele>18.0</ele><time>2026-05-04T11:48:39.64Z</time></trkpt><trkpt lat="42.6252583" lon="18.1940623"><ele>17.5</ele><time>2026-05-04T11:48:40.64Z</time></trkpt><trkpt lat="42.6252401" lon="18.1938883"><ele>17.0</ele><time>2026-05-04T11:48:41.641Z</time></trkpt><trkpt lat="42.6252194" lon="18.1937203"><ele>16.4</ele><time>2026-05-04T11:48:42.64Z</time></trkpt><trkpt lat="42.6251958" lon="18.1935623"><ele>15.799999999999999</ele><time>2026-05-04T11:48:43.64Z</time></trkpt><trkpt lat="42.6251721" lon="18.1934185"><ele>15.2</ele><time>2026-05-04T11:48:44.64Z</time></trkpt><trkpt lat="42.6251467" lon="18.1932914"><ele>14.6</ele><time>2026-05-04T11:48:45.639Z</time></trkpt><trkpt lat="42.6251184" lon="18.1931752"><ele>14.0</ele><time>2026-05-04T11:48:46.639Z</time></trkpt><trkpt lat="42.6250968" lon="18.1930639"><ele>13.2</ele><time>2026-05-04T11:48:47.641Z</time></trkpt><trkpt lat="42.6250761" lon="18.1929592"><ele>12.399999999999999</ele><time>2026-05-04T11:48:48.641Z</time></trkpt><trkpt lat="42.6250581" lon="18.1928735"><ele>11.6</ele><time>2026-05-04T11:48:49.64Z</time></trkpt><trkpt lat="42.6250278" lon="18.1927486"><ele>10.8</ele><time>2026-05-04T11:48:51.64Z</time></trkpt><trkpt lat="42.6249985" lon="18.1926185"><ele>10.0</ele><time>2026-05-04T11:48:58.641Z</time></trkpt><trkpt lat="42.6249468" lon="18.1924301"><ele>8.75</ele><time>2026-05-04T11:49:00.64Z</time></trkpt><trkpt lat="42.6249135" lon="18.1922949"><ele>7.5</ele><time>2026-05-04T11:49:01.639Z</time></trkpt><trkpt lat="42.6248722" lon="18.1921357"><ele>6.25</ele><time>2026-05-04T11:49:02.639Z</time></trkpt><trkpt lat="42.624822" lon="18.191962"><ele>5.0</ele><time>2026-05-04T11:49:03.637Z</time></trkpt><trkpt lat="42.6247614" lon="18.1917855"><ele>5.0</ele><time>2026-05-04T11:49:04.638Z</time></trkpt><trkpt lat="42.6246897" lon="18.1915866"><ele>5.0</ele><time>2026-05-04T11:49:05.639Z</time></trkpt><trkpt lat="42.6246159" lon="18.191391"><ele>5.0</ele><time>2026-05-04T11:49:06.64Z</time></trkpt><trkpt lat="42.6245406" lon="18.1911882"><ele>4.333333333333334</ele><time>2026-05-04T11:49:07.638Z</time></trkpt><trkpt lat="42.6244622" lon="18.1909862"><ele>3.666666666666667</ele><time>2026-05-04T11:49:08.641Z</time></trkpt><trkpt lat="42.6243863" lon="18.1907842"><ele>3.0</ele><time>2026-05-04T11:49:09.638Z</time></trkpt><trkpt lat="42.6243129" lon="18.1905837"><ele>3.0</ele><time>2026-05-04T11:49:10.64Z</time></trkpt><trkpt lat="42.6242404" lon="18.1903939"><ele>3.0</ele><time>2026-05-04T11:49:11.64Z</time></trkpt><trkpt lat="42.6241761" lon="18.1902144"><ele>3.0</ele><time>2026-05-04T11:49:12.638Z</time></trkpt><trkpt lat="42.6241139" lon="18.1900401"><ele>3.0</ele><time>2026-05-04T11:49:13.64Z</time></trkpt><trkpt lat="42.6240533" lon="18.1898673"><ele>4.0</ele><time>2026-05-04T11:49:14.641Z</time></trkpt><trkpt lat="42.6239927" lon="18.1896913"><ele>5.0</ele><time>2026-05-04T11:49:15.64Z</time></trkpt><trkpt lat="42.623935" lon="18.1895153"><ele>6.0</ele><time>2026-05-04T11:49:16.639Z</time></trkpt><trkpt lat="42.6238781" lon="18.1893372"><ele>7.0</ele><time>2026-05-04T11:49:17.639Z</time></trkpt><trkpt lat="42.6238216" lon="18.1891573"><ele>6.666666666666667</ele><time>2026-05-04T11:49:18.64Z</time></trkpt><trkpt lat="42.6237669" lon="18.1889812"><ele>6.333333333333334</ele><time>2026-05-04T11:49:19.641Z</time></trkpt><trkpt lat="42.6237055" lon="18.1887904"><ele>6.0</ele><time>2026-05-04T11:49:20.64Z</time></trkpt><trkpt lat="42.623642" lon="18.1885845"><ele>6.0</ele><time>2026-05-04T11:49:21.641Z</time></trkpt><trkpt lat="42.6235683" lon="18.1883583"><ele>6.0</ele><time>2026-05-04T11:49:22.64Z</time></trkpt><trkpt lat="42.6235039" lon="18.1881324"><ele>6.0</ele><time>2026-05-04T11:49:23.64Z</time></trkpt><trkpt lat="42.6234487" lon="18.1879068"><ele>6.0</ele><time>2026-05-04T11:49:24.639Z</time></trkpt><trkpt lat="42.6233986" lon="18.1876911"><ele>6.0</ele><time>2026-05-04T11:49:25.64Z</time></trkpt><trkpt lat="42.623349" lon="18.1874849"><ele>6.0</ele><time>2026-05-04T11:49:26.64Z</time></trkpt><trkpt lat="42.6233022" lon="18.1872893"><ele>5.5</ele><time>2026-05-04T11:49:27.641Z</time></trkpt><trkpt lat="42.6232576" lon="18.1870972"><ele>5.0</ele><time>2026-05-04T11:49:28.64Z</time></trkpt><trkpt lat="42.6232149" lon="18.1869066"><ele>4.5</ele><time>2026-05-04T11:49:29.639Z</time></trkpt><trkpt lat="42.6231766" lon="18.1867268"><ele>4.0</ele><time>2026-05-04T11:49:30.638Z</time></trkpt><trkpt lat="42.6231395" lon="18.186558"><ele>3.75</ele><time>2026-05-04T11:49:31.637Z</time></trkpt><trkpt lat="42.6231063" lon="18.1863903"><ele>3.5</ele><time>2026-05-04T11:49:32.639Z</time></trkpt><trkpt lat="42.623073" lon="18.1862208"><ele>3.25</ele><time>2026-05-04T11:49:33.639Z</time></trkpt><trkpt lat="42.62304" lon="18.1860487"><ele>3.0</ele><time>2026-05-04T11:49:34.64Z</time></trkpt><trkpt lat="42.6230098" lon="18.1858738"><ele>3.0</ele><time>2026-05-04T11:49:35.639Z</time></trkpt><trkpt lat="42.6229824" lon="18.1857"><ele>3.0</ele><time>2026-05-04T11:49:36.641Z</time></trkpt><trkpt lat="42.6229529" lon="18.1855242"><ele>3.0</ele><time>2026-05-04T11:49:37.64Z</time></trkpt><trkpt lat="42.622924" lon="18.1853475"><ele>3.0</ele><time>2026-05-04T11:49:38.639Z</time></trkpt><trkpt lat="42.6228974" lon="18.185169"><ele>3.5</ele><time>2026-05-04T11:49:39.641Z</time></trkpt><trkpt lat="42.6228729" lon="18.1849882"><ele>4.0</ele><time>2026-05-04T11:49:40.64Z</time></trkpt><trkpt lat="42.6228496" lon="18.1848046"><ele>4.5</ele><time>2026-05-04T11:49:41.64Z</time></trkpt><trkpt lat="42.6228234" lon="18.18462"><ele>5.0</ele><time>2026-05-04T11:49:42.639Z</time></trkpt><trkpt lat="42.6227926" lon="18.184438"><ele>5.25</ele><time>2026-05-04T11:49:43.639Z</time></trkpt><trkpt lat="42.6227642" lon="18.1842574"><ele>5.5</ele><time>2026-05-04T11:49:44.641Z</time></trkpt><trkpt lat="42.62274" lon="18.1840792"><ele>5.75</ele><time>2026-05-04T11:49:45.641Z</time></trkpt><trkpt lat="42.6227223" lon="18.1839054"><ele>6.0</ele><time>2026-05-04T11:49:46.64Z</time></trkpt><trkpt lat="42.622708" lon="18.1837398"><ele>6.0</ele><time>2026-05-04T11:49:47.641Z</time></trkpt><trkpt lat="42.622685" lon="18.1835863"><ele>6.0</ele><time>2026-05-04T11:49:48.64Z</time></trkpt><trkpt lat="42.6226692" lon="18.1834391"><ele>6.0</ele><time>2026-05-04T11:49:49.64Z</time></trkpt><trkpt lat="42.6226579" lon="18.1832883"><ele>6.0</ele><time>2026-05-04T11:49:50.64Z</time></trkpt><trkpt lat="42.6226455" lon="18.1831256"><ele>7.0</ele><time>2026-05-04T11:49:51.641Z</time></trkpt><trkpt lat="42.6226411" lon="18.1829626"><ele>8.0</ele><time>2026-05-04T11:49:52.641Z</time></trkpt><trkpt lat="42.6226326" lon="18.1827959"><ele>9.0</ele><time>2026-05-04T11:49:53.638Z</time></trkpt><trkpt lat="42.6226253" lon="18.1826286"><ele>10.0</ele><time>2026-05-04T11:49:54.639Z</time></trkpt><trkpt lat="42.6226254" lon="18.1824548"><ele>10.5</ele><time>2026-05-04T11:49:55.64Z</time></trkpt><trkpt lat="42.6226094" lon="18.182292"><ele>11.0</ele><time>2026-05-04T11:49:56.641Z</time></trkpt><trkpt lat="42.6226025" lon="18.1821204"><ele>11.5</ele><time>2026-05-04T11:49:57.64Z</time></trkpt><trkpt lat="42.6225942" lon="18.1819532"><ele>12.0</ele><time>2026-05-04T11:49:58.638Z</time></trkpt><trkpt lat="42.6225857" lon="18.1817853"><ele>12.0</ele><time>2026-05-04T11:49:59.641Z</time></trkpt><trkpt lat="42.6225716" lon="18.1815942"><ele>12.0</ele><time>2026-05-04T11:50:00.639Z</time></trkpt><trkpt lat="42.6225516" lon="18.1813788"><ele>12.0</ele><time>2026-05-04T11:50:01.639Z</time></trkpt><trkpt lat="42.6225309" lon="18.1811413"><ele>11.666666666666666</ele><time>2026-05-04T11:50:02.639Z</time></trkpt><trkpt lat="42.6225193" lon="18.1808905"><ele>11.333333333333332</ele><time>2026-05-04T11:50:03.64Z</time></trkpt><trkpt lat="42.6225123" lon="18.1806386"><ele>11.0</ele><time>2026-05-04T11:50:04.641Z</time></trkpt><trkpt lat="42.6225022" lon="18.1803916"><ele>12.666666666666666</ele><time>2026-05-04T11:50:05.64Z</time></trkpt><trkpt lat="42.6224924" lon="18.1801518"><ele>14.333333333333332</ele><time>2026-05-04T11:50:06.641Z</time></trkpt><trkpt lat="42.6224796" lon="18.1799207"><ele>16.0</ele><time>2026-05-04T11:50:07.64Z</time></trkpt><trkpt lat="42.6224654" lon="18.1796977"><ele>17.666666666666664</ele><time>2026-05-04T11:50:08.64Z</time></trkpt><trkpt lat="42.6224524" lon="18.179476"><ele>19.333333333333332</ele><time>2026-05-04T11:50:09.639Z</time></trkpt><trkpt lat="42.6224452" lon="18.1792691"><ele>21.0</ele><time>2026-05-04T11:50:10.639Z</time></trkpt><trkpt lat="42.6224429" lon="18.1790577"><ele>20.666666666666668</ele><time>2026-05-04T11:50:11.639Z</time></trkpt><trkpt lat="42.6224408" lon="18.1788507"><ele>20.333333333333336</ele><time>2026-05-04T11:50:12.64Z</time></trkpt><trkpt lat="42.6224444" lon="18.1786471"><ele>20.0</ele><time>2026-05-04T11:50:13.64Z</time></trkpt><trkpt lat="42.6224517" lon="18.1784445"><ele>20.0</ele><time>2026-05-04T11:50:14.638Z</time></trkpt><trkpt lat="42.6224707" lon="18.1782378"><ele>20.0</ele><time>2026-05-04T11:50:15.641Z</time></trkpt><trkpt lat="42.6224981" lon="18.1780339"><ele>20.0</ele><time>2026-05-04T11:50:16.641Z</time></trkpt><trkpt lat="42.6225323" lon="18.1778347"><ele>22.666666666666668</ele><time>2026-05-04T11:50:17.641Z</time></trkpt><trkpt lat="42.6225909" lon="18.1776264"><ele>25.333333333333336</ele><time>2026-05-04T11:50:18.639Z</time></trkpt><trkpt lat="42.6226537" lon="18.177436"><ele>28.0</ele><time>2026-05-04T11:50:19.641Z</time></trkpt><trkpt lat="42.6227263" lon="18.1772537"><ele>29.25</ele><time>2026-05-04T11:50:20.638Z</time></trkpt><trkpt lat="42.6228112" lon="18.1770909"><ele>30.5</ele><time>2026-05-04T11:50:21.639Z</time></trkpt><trkpt lat="42.6229033" lon="18.1769331"><ele>31.75</ele><time>2026-05-04T11:50:22.64Z</time></trkpt><trkpt lat="42.6230054" lon="18.1767799"><ele>33.0</ele><time>2026-05-04T11:50:23.64Z</time></trkpt><trkpt lat="42.6231139" lon="18.1766366"><ele>39.0</ele><time>2026-05-04T11:50:24.64Z</time></trkpt><trkpt lat="42.6232266" lon="18.1765082"><ele>45.0</ele><time>2026-05-04T11:50:25.639Z</time></trkpt><trkpt lat="42.6233472" lon="18.1763997"><ele>51.0</ele><time>2026-05-04T11:50:26.639Z</time></trkpt><trkpt lat="42.6234665" lon="18.1762864"><ele>57.0</ele><time>2026-05-04T11:50:27.64Z</time></trkpt><trkpt lat="42.6235878" lon="18.1761773"><ele>53.666666666666664</ele><time>2026-05-04T11:50:28.638Z</time></trkpt><trkpt lat="42.6237123" lon="18.1760782"><ele>50.33333333333333</ele><time>2026-05-04T11:50:29.641Z</time></trkpt><trkpt lat="42.623877" lon="18.175955"><ele>47.0</ele><time>2026-05-04T11:50:30.64Z</time></trkpt><trkpt lat="42.6240491" lon="18.1758354"><ele>47.0</ele><time>2026-05-04T11:50:31.638Z</time></trkpt><trkpt lat="42.6242103" lon="18.1757247"><ele>47.0</ele><time>2026-05-04T11:50:32.639Z</time></trkpt><trkpt lat="42.6243686" lon="18.1756161"><ele>47.0</ele><time>2026-05-04T11:50:33.639Z</time></trkpt><trkpt lat="42.6244923" lon="18.1755232"><ele>48.0</ele><time>2026-05-04T11:50:34.637Z</time></trkpt><trkpt lat="42.6246038" lon="18.1754345"><ele>49.0</ele><time>2026-05-04T11:50:35.639Z</time></trkpt><trkpt lat="42.6247036" lon="18.175349"><ele>50.0</ele><time>2026-05-04T11:50:36.639Z</time></trkpt><trkpt lat="42.6247996" lon="18.1752555"><ele>51.0</ele><time>2026-05-04T11:50:37.636Z</time></trkpt><trkpt lat="42.6248922" lon="18.1751589"><ele>51.0</ele><time>2026-05-04T11:50:38.638Z</time></trkpt><trkpt lat="42.624981" lon="18.1750581"><ele>51.0</ele><time>2026-05-04T11:50:39.639Z</time></trkpt><trkpt lat="42.6250691" lon="18.1749546"><ele>51.0</ele><time>2026-05-04T11:50:40.64Z</time></trkpt><trkpt lat="42.6251497" lon="18.1748406"><ele>51.0</ele><time>2026-05-04T11:50:41.638Z</time></trkpt><trkpt lat="42.6252261" lon="18.1747223"><ele>53.0</ele><time>2026-05-04T11:50:42.639Z</time></trkpt><trkpt lat="42.625296" lon="18.1746006"><ele>55.0</ele><time>2026-05-04T11:50:43.639Z</time></trkpt><trkpt lat="42.6253561" lon="18.1744715"><ele>56.99999999999999</ele><time>2026-05-04T11:50:44.64Z</time></trkpt><trkpt lat="42.6254093" lon="18.1743449"><ele>59.0</ele><time>2026-05-04T11:50:45.641Z</time></trkpt><trkpt lat="42.625456" lon="18.1742199"><ele>61.0</ele><time>2026-05-04T11:50:46.638Z</time></trkpt><trkpt lat="42.6254946" lon="18.1740991"><ele>61.4</ele><time>2026-05-04T11:50:47.64Z</time></trkpt><trkpt lat="42.6255326" lon="18.1739769"><ele>61.8</ele><time>2026-05-04T11:50:48.639Z</time></trkpt><trkpt lat="42.6255704" lon="18.1738525"><ele>62.199999999999996</ele><time>2026-05-04T11:50:49.637Z</time></trkpt><trkpt lat="42.625601" lon="18.173742"><ele>62.599999999999994</ele><time>2026-05-04T11:50:50.641Z</time></trkpt><trkpt lat="42.625633" lon="18.1736317"><ele>63.0</ele><time>2026-05-04T11:50:51.641Z</time></trkpt><trkpt lat="42.6256699" lon="18.1735299"><ele>63.0</ele><time>2026-05-04T11:50:52.641Z</time></trkpt><trkpt lat="42.6257097" lon="18.1734238"><ele>63.0</ele><time>2026-05-04T11:50:53.64Z</time></trkpt><trkpt lat="42.625755" lon="18.1733203"><ele>63.0</ele><time>2026-05-04T11:50:54.639Z</time></trkpt><trkpt lat="42.625805" lon="18.1732103"><ele>63.0</ele><time>2026-05-04T11:50:55.638Z</time></trkpt><trkpt lat="42.6258591" lon="18.1731013"><ele>63.0</ele><time>2026-05-04T11:50:56.638Z</time></trkpt><trkpt lat="42.6259191" lon="18.1729928"><ele>63.4</ele><time>2026-05-04T11:50:57.638Z</time></trkpt><trkpt lat="42.6259892" lon="18.1728826"><ele>63.8</ele><time>2026-05-04T11:50:58.638Z</time></trkpt><trkpt lat="42.6260682" lon="18.1727676"><ele>64.2</ele><time>2026-05-04T11:50:59.636Z</time></trkpt><trkpt lat="42.6261497" lon="18.1726599"><ele>64.6</ele><time>2026-05-04T11:51:00.637Z</time></trkpt><trkpt lat="42.6262344" lon="18.1725601"><ele>65.0</ele><time>2026-05-04T11:51:01.639Z</time></trkpt><trkpt lat="42.6263233" lon="18.1724634"><ele>65.0</ele><time>2026-05-04T11:51:02.64Z</time></trkpt><trkpt lat="42.6264131" lon="18.1723647"><ele>65.0</ele><time>2026-05-04T11:51:03.638Z</time></trkpt><trkpt lat="42.6265035" lon="18.1722622"><ele>65.0</ele><time>2026-05-04T11:51:04.638Z</time></trkpt><trkpt lat="42.6265819" lon="18.172163"><ele>65.0</ele><time>2026-05-04T11:51:05.638Z</time></trkpt><trkpt lat="42.6266604" lon="18.1720635"><ele>65.0</ele><time>2026-05-04T11:51:06.638Z</time></trkpt><trkpt lat="42.6267354" lon="18.1719661"><ele>66.4</ele><time>2026-05-04T11:51:07.639Z</time></trkpt><trkpt lat="42.6268092" lon="18.1718621"><ele>67.8</ele><time>2026-05-04T11:51:08.638Z</time></trkpt><trkpt lat="42.6268778" lon="18.1717518"><ele>69.2</ele><time>2026-05-04T11:51:09.64Z</time></trkpt><trkpt lat="42.6269397" lon="18.1716342"><ele>70.6</ele><time>2026-05-04T11:51:10.639Z</time></trkpt><trkpt lat="42.6269957" lon="18.1715109"><ele>72.0</ele><time>2026-05-04T11:51:11.641Z</time></trkpt><trkpt lat="42.6270491" lon="18.1713855"><ele>72.0</ele><time>2026-05-04T11:51:12.64Z</time></trkpt><trkpt lat="42.627104" lon="18.1712493"><ele>72.0</ele><time>2026-05-04T11:51:13.64Z</time></trkpt><trkpt lat="42.6271482" lon="18.1711189"><ele>72.0</ele><time>2026-05-04T11:51:14.641Z</time></trkpt><trkpt lat="42.6271864" lon="18.1709818"><ele>72.0</ele><time>2026-05-04T11:51:15.639Z</time></trkpt><trkpt lat="42.6272323" lon="18.1708351"><ele>72.0</ele><time>2026-05-04T11:51:16.641Z</time></trkpt><trkpt lat="42.6272587" lon="18.1706847"><ele>73.0</ele><time>2026-05-04T11:51:17.64Z</time></trkpt><trkpt lat="42.6272784" lon="18.1705308"><ele>74.0</ele><time>2026-05-04T11:51:18.639Z</time></trkpt><trkpt lat="42.6272966" lon="18.170378"><ele>75.0</ele><time>2026-05-04T11:51:19.64Z</time></trkpt><trkpt lat="42.6273132" lon="18.1702293"><ele>76.0</ele><time>2026-05-04T11:51:20.638Z</time></trkpt><trkpt lat="42.6273244" lon="18.1700805"><ele>76.0</ele><time>2026-05-04T11:51:21.638Z</time></trkpt><trkpt lat="42.6273422" lon="18.1699373"><ele>76.0</ele><time>2026-05-04T11:51:22.64Z</time></trkpt><trkpt lat="42.6273586" lon="18.1697982"><ele>76.0</ele><time>2026-05-04T11:51:23.638Z</time></trkpt><trkpt lat="42.627373" lon="18.1696615"><ele>76.0</ele><time>2026-05-04T11:51:24.64Z</time></trkpt><trkpt lat="42.6273858" lon="18.1695279"><ele>76.0</ele><time>2026-05-04T11:51:25.639Z</time></trkpt><trkpt lat="42.6273984" lon="18.1693995"><ele>76.6</ele><time>2026-05-04T11:51:26.639Z</time></trkpt><trkpt lat="42.6274116" lon="18.1692607"><ele>77.19999999999999</ele><time>2026-05-04T11:51:27.638Z</time></trkpt><trkpt lat="42.6274269" lon="18.1691165"><ele>77.80000000000001</ele><time>2026-05-04T11:51:28.64Z</time></trkpt><trkpt lat="42.6274429" lon="18.1689697"><ele>78.4</ele><time>2026-05-04T11:51:29.64Z</time></trkpt><trkpt lat="42.6274588" lon="18.1688167"><ele>79.0</ele><time>2026-05-04T11:51:30.64Z</time></trkpt><trkpt lat="42.6274774" lon="18.1686696"><ele>80.0</ele><time>2026-05-04T11:51:31.639Z</time></trkpt><trkpt lat="42.6274943" lon="18.168499"><ele>81.0</ele><time>2026-05-04T11:51:32.64Z</time></trkpt><trkpt lat="42.627511" lon="18.1683194"><ele>82.0</ele><time>2026-05-04T11:51:33.639Z</time></trkpt><trkpt lat="42.6275294" lon="18.1681407"><ele>83.0</ele><time>2026-05-04T11:51:34.639Z</time></trkpt><trkpt lat="42.6275461" lon="18.1679725"><ele>84.25</ele><time>2026-05-04T11:51:35.638Z</time></trkpt><trkpt lat="42.6275779" lon="18.1678115"><ele>85.5</ele><time>2026-05-04T11:51:36.639Z</time></trkpt><trkpt lat="42.6275935" lon="18.1676478"><ele>86.75</ele><time>2026-05-04T11:51:37.638Z</time></trkpt><trkpt lat="42.6276085" lon="18.167483"><ele>88.0</ele><time>2026-05-04T11:51:38.64Z</time></trkpt><trkpt lat="42.6276336" lon="18.1673113"><ele>90.5</ele><time>2026-05-04T11:51:39.639Z</time></trkpt><trkpt lat="42.6276538" lon="18.1671353"><ele>93.0</ele><time>2026-05-04T11:51:40.637Z</time></trkpt><trkpt lat="42.6276746" lon="18.166964"><ele>95.5</ele><time>2026-05-04T11:51:41.637Z</time></trkpt><trkpt lat="42.6277017" lon="18.1667893"><ele>98.0</ele><time>2026-05-04T11:51:42.638Z</time></trkpt><trkpt lat="42.6277293" lon="18.1666148"><ele>101.25</ele><time>2026-05-04T11:51:43.64Z</time></trkpt><trkpt lat="42.6277582" lon="18.1664391"><ele>104.5</ele><time>2026-05-04T11:51:44.64Z</time></trkpt><trkpt lat="42.6277825" lon="18.1662778"><ele>107.75</ele><time>2026-05-04T11:51:45.638Z</time></trkpt><trkpt lat="42.6278113" lon="18.166106"><ele>111.0</ele><time>2026-05-04T11:51:46.637Z</time></trkpt><trkpt lat="42.6278382" lon="18.1659325"><ele>106.25</ele><time>2026-05-04T11:51:47.639Z</time></trkpt><trkpt lat="42.6278651" lon="18.1657714"><ele>101.5</ele><time>2026-05-04T11:51:48.639Z</time></trkpt><trkpt lat="42.6278932" lon="18.1655936"><ele>96.75</ele><time>2026-05-04T11:51:49.639Z</time></trkpt><trkpt lat="42.6279265" lon="18.1653913"><ele>92.0</ele><time>2026-05-04T11:51:50.636Z</time></trkpt><trkpt lat="42.6279709" lon="18.1651543"><ele>92.0</ele><time>2026-05-04T11:51:51.639Z</time></trkpt><trkpt lat="42.6280206" lon="18.1649312"><ele>92.0</ele><time>2026-05-04T11:51:52.639Z</time></trkpt><trkpt lat="42.6280665" lon="18.1647353"><ele>92.0</ele><time>2026-05-04T11:51:53.637Z</time></trkpt><trkpt lat="42.6281036" lon="18.1645659"><ele>93.0</ele><time>2026-05-04T11:51:54.64Z</time></trkpt><trkpt lat="42.6281375" lon="18.1644257"><ele>94.0</ele><time>2026-05-04T11:51:55.637Z</time></trkpt><trkpt lat="42.628169" lon="18.1643039"><ele>95.0</ele><time>2026-05-04T11:51:56.638Z</time></trkpt><trkpt lat="42.6281996" lon="18.164181"><ele>96.0</ele><time>2026-05-04T11:51:57.639Z</time></trkpt><trkpt lat="42.6282298" lon="18.1640481"><ele>97.0</ele><time>2026-05-04T11:51:58.641Z</time></trkpt><trkpt lat="42.6282669" lon="18.1639111"><ele>99.5</ele><time>2026-05-04T11:51:59.639Z</time></trkpt><trkpt lat="42.6283055" lon="18.1637691"><ele>102.0</ele><time>2026-05-04T11:52:00.638Z</time></trkpt><trkpt lat="42.6283473" lon="18.1636213"><ele>104.5</ele><time>2026-05-04T11:52:01.639Z</time></trkpt><trkpt lat="42.6283886" lon="18.1634656"><ele>107.0</ele><time>2026-05-04T11:52:02.637Z</time></trkpt><trkpt lat="42.6284326" lon="18.1633147"><ele>110.25</ele><time>2026-05-04T11:52:03.638Z</time></trkpt><trkpt lat="42.6284773" lon="18.1631664"><ele>113.5</ele><time>2026-05-04T11:52:04.639Z</time></trkpt><trkpt lat="42.6285238" lon="18.1630003"><ele>116.75</ele><time>2026-05-04T11:52:05.639Z</time></trkpt><trkpt lat="42.6285691" lon="18.1628421"><ele>120.0</ele><time>2026-05-04T11:52:06.638Z</time></trkpt><trkpt lat="42.6286146" lon="18.1626776"><ele>115.0</ele><time>2026-05-04T11:52:07.64Z</time></trkpt><trkpt lat="42.6286549" lon="18.1625218"><ele>110.0</ele><time>2026-05-04T11:52:08.639Z</time></trkpt><trkpt lat="42.6286886" lon="18.1623683"><ele>105.0</ele><time>2026-05-04T11:52:09.64Z</time></trkpt><trkpt lat="42.628723" lon="18.1622116"><ele>100.0</ele><time>2026-05-04T11:52:10.637Z</time></trkpt><trkpt lat="42.6287566" lon="18.1620531"><ele>100.0</ele><time>2026-05-04T11:52:11.637Z</time></trkpt><trkpt lat="42.6287942" lon="18.161884"><ele>100.0</ele><time>2026-05-04T11:52:12.638Z</time></trkpt><trkpt lat="42.6288351" lon="18.1616924"><ele>100.0</ele><time>2026-05-04T11:52:13.639Z</time></trkpt><trkpt lat="42.628876" lon="18.1614675"><ele>100.0</ele><time>2026-05-04T11:52:14.64Z</time></trkpt><trkpt lat="42.6289223" lon="18.161211"><ele>102.66666666666667</ele><time>2026-05-04T11:52:15.639Z</time></trkpt><trkpt lat="42.6289798" lon="18.1609408"><ele>105.33333333333334</ele><time>2026-05-04T11:52:16.637Z</time></trkpt><trkpt lat="42.6290339" lon="18.1606948"><ele>108.0</ele><time>2026-05-04T11:52:17.637Z</time></trkpt><trkpt lat="42.6290846" lon="18.1604819"><ele>111.25</ele><time>2026-05-04T11:52:18.639Z</time></trkpt><trkpt lat="42.6291283" lon="18.1602935"><ele>114.5</ele><time>2026-05-04T11:52:19.64Z</time></trkpt><trkpt lat="42.6291673" lon="18.1601174"><ele>117.75</ele><time>2026-05-04T11:52:20.64Z</time></trkpt><trkpt lat="42.6291973" lon="18.1599329"><ele>121.0</ele><time>2026-05-04T11:52:21.64Z</time></trkpt><trkpt lat="42.629213" lon="18.1597276"><ele>123.66666666666667</ele><time>2026-05-04T11:52:22.639Z</time></trkpt><trkpt lat="42.6292221" lon="18.1594821"><ele>126.33333333333334</ele><time>2026-05-04T11:52:23.639Z</time></trkpt><trkpt lat="42.6292334" lon="18.1592223"><ele>129.0</ele><time>2026-05-04T11:52:24.64Z</time></trkpt><trkpt lat="42.6292458" lon="18.1589732"><ele>129.0</ele><time>2026-05-04T11:52:25.639Z</time></trkpt><trkpt lat="42.6292551" lon="18.1587482"><ele>129.0</ele><time>2026-05-04T11:52:26.638Z</time></trkpt><trkpt lat="42.6292565" lon="18.1585336"><ele>129.0</ele><time>2026-05-04T11:52:27.639Z</time></trkpt><trkpt lat="42.6292572" lon="18.1583202"><ele>129.0</ele><time>2026-05-04T11:52:28.637Z</time></trkpt><trkpt lat="42.6292557" lon="18.1580953"><ele>129.0</ele><time>2026-05-04T11:52:29.638Z</time></trkpt><trkpt lat="42.6292522" lon="18.1578523"><ele>129.0</ele><time>2026-05-04T11:52:30.638Z</time></trkpt><trkpt lat="42.6292588" lon="18.1575881"><ele>132.0</ele><time>2026-05-04T11:52:31.638Z</time></trkpt><trkpt lat="42.62928" lon="18.1573163"><ele>135.0</ele><time>2026-05-04T11:52:32.638Z</time></trkpt><trkpt lat="42.6293099" lon="18.157085"><ele>138.0</ele><time>2026-05-04T11:52:33.64Z</time></trkpt><trkpt lat="42.6293417" lon="18.1568835"><ele>138.0</ele><time>2026-05-04T11:52:34.639Z</time></trkpt><trkpt lat="42.6293768" lon="18.1567006"><ele>138.0</ele><time>2026-05-04T11:52:35.64Z</time></trkpt><trkpt lat="42.6294158" lon="18.1565273"><ele>138.0</ele><time>2026-05-04T11:52:36.64Z</time></trkpt><trkpt lat="42.6294603" lon="18.1563623"><ele>138.0</ele><time>2026-05-04T11:52:37.638Z</time></trkpt><trkpt lat="42.6295107" lon="18.1562008"><ele>137.0</ele><time>2026-05-04T11:52:38.637Z</time></trkpt><trkpt lat="42.6295594" lon="18.1560607"><ele>136.0</ele><time>2026-05-04T11:52:39.637Z</time></trkpt><trkpt lat="42.6296107" lon="18.1559182"><ele>135.0</ele><time>2026-05-04T11:52:40.636Z</time></trkpt><trkpt lat="42.6296627" lon="18.1557786"><ele>134.0</ele><time>2026-05-04T11:52:41.639Z</time></trkpt><trkpt lat="42.6297118" lon="18.1556443"><ele>135.83333333333331</ele><time>2026-05-04T11:52:42.637Z</time></trkpt><trkpt lat="42.6297562" lon="18.1555148"><ele>137.66666666666666</ele><time>2026-05-04T11:52:43.638Z</time></trkpt><trkpt lat="42.6297917" lon="18.1554029"><ele>139.5</ele><time>2026-05-04T11:52:44.636Z</time></trkpt><trkpt lat="42.62982" lon="18.1553124"><ele>141.33333333333334</ele><time>2026-05-04T11:52:45.638Z</time></trkpt><trkpt lat="42.6298443" lon="18.1552251"><ele>143.16666666666669</ele><time>2026-05-04T11:52:46.638Z</time></trkpt><trkpt lat="42.6298655" lon="18.1551353"><ele>145.0</ele><time>2026-05-04T11:52:47.638Z</time></trkpt><trkpt lat="42.6298926" lon="18.1550407"><ele>145.0</ele><time>2026-05-04T11:52:48.641Z</time></trkpt><trkpt lat="42.6299139" lon="18.1549352"><ele>145.0</ele><time>2026-05-04T11:52:49.638Z</time></trkpt><trkpt lat="42.6299344" lon="18.1548037"><ele>145.0</ele><time>2026-05-04T11:52:50.641Z</time></trkpt><trkpt lat="42.6299533" lon="18.1546597"><ele>145.0</ele><time>2026-05-04T11:52:51.641Z</time></trkpt><trkpt lat="42.6299689" lon="18.1545136"><ele>145.0</ele><time>2026-05-04T11:52:52.641Z</time></trkpt><trkpt lat="42.6299826" lon="18.1543671"><ele>146.75</ele><time>2026-05-04T11:52:53.64Z</time></trkpt><trkpt lat="42.6299882" lon="18.1542003"><ele>148.5</ele><time>2026-05-04T11:52:54.64Z</time></trkpt><trkpt lat="42.6299857" lon="18.1540275"><ele>150.25</ele><time>2026-05-04T11:52:55.639Z</time></trkpt><trkpt lat="42.6299741" lon="18.1538514"><ele>152.0</ele><time>2026-05-04T11:52:56.637Z</time></trkpt><trkpt lat="42.62996" lon="18.1536634"><ele>152.0</ele><time>2026-05-04T11:52:57.64Z</time></trkpt><trkpt lat="42.6299562" lon="18.1534821"><ele>152.0</ele><time>2026-05-04T11:52:58.639Z</time></trkpt><trkpt lat="42.6299606" lon="18.1532991"><ele>152.0</ele><time>2026-05-04T11:52:59.64Z</time></trkpt><trkpt lat="42.6299634" lon="18.153112"><ele>152.0</ele><time>2026-05-04T11:53:00.64Z</time></trkpt><trkpt lat="42.6299776" lon="18.1529239"><ele>150.25</ele><time>2026-05-04T11:53:01.638Z</time></trkpt><trkpt lat="42.6300057" lon="18.1527455"><ele>148.5</ele><time>2026-05-04T11:53:02.639Z</time></trkpt><trkpt lat="42.6300409" lon="18.1525346"><ele>146.75</ele><time>2026-05-04T11:53:03.638Z</time></trkpt><trkpt lat="42.6300784" lon="18.1523318"><ele>145.0</ele><time>2026-05-04T11:53:04.64Z</time></trkpt><trkpt lat="42.6301227" lon="18.1521273"><ele>140.33333333333334</ele><time>2026-05-04T11:53:05.639Z</time></trkpt><trkpt lat="42.6301728" lon="18.1519192"><ele>135.66666666666666</ele><time>2026-05-04T11:53:06.639Z</time></trkpt><trkpt lat="42.6302227" lon="18.1517125"><ele>131.0</ele><time>2026-05-04T11:53:07.639Z</time></trkpt><trkpt lat="42.6302797" lon="18.151503"><ele>146.66666666666666</ele><time>2026-05-04T11:53:08.641Z</time></trkpt><trkpt lat="42.6303349" lon="18.1512882"><ele>162.33333333333334</ele><time>2026-05-04T11:53:09.637Z</time></trkpt><trkpt lat="42.6304004" lon="18.1510722"><ele>178.0</ele><time>2026-05-04T11:53:10.639Z</time></trkpt><trkpt lat="42.630473" lon="18.1508469"><ele>169.0</ele><time>2026-05-04T11:53:11.639Z</time></trkpt><trkpt lat="42.6305522" lon="18.1506291"><ele>160.0</ele><time>2026-05-04T11:53:12.641Z</time></trkpt><trkpt lat="42.6306375" lon="18.1504037"><ele>151.0</ele><time>2026-05-04T11:53:13.64Z</time></trkpt><trkpt lat="42.6307333" lon="18.1501742"><ele>151.0</ele><time>2026-05-04T11:53:14.639Z</time></trkpt><trkpt lat="42.630837" lon="18.1499366"><ele>151.0</ele><time>2026-05-04T11:53:15.638Z</time></trkpt><trkpt lat="42.6309624" lon="18.1496906"><ele>151.0</ele><time>2026-05-04T11:53:16.639Z</time></trkpt><trkpt lat="42.6310808" lon="18.149427"><ele>160.0</ele><time>2026-05-04T11:53:17.64Z</time></trkpt><trkpt lat="42.6311792" lon="18.1491569"><ele>169.0</ele><time>2026-05-04T11:53:18.639Z</time></trkpt><trkpt lat="42.6312729" lon="18.1488921"><ele>178.0</ele><time>2026-05-04T11:53:19.64Z</time></trkpt><trkpt lat="42.6313559" lon="18.1486199"><ele>178.0</ele><time>2026-05-04T11:53:20.641Z</time></trkpt><trkpt lat="42.6314276" lon="18.1483443"><ele>178.0</ele><time>2026-05-04T11:53:21.64Z</time></trkpt><trkpt lat="42.6314967" lon="18.1480714"><ele>178.0</ele><time>2026-05-04T11:53:22.64Z</time></trkpt><trkpt lat="42.6315619" lon="18.1477998"><ele>176.0</ele><time>2026-05-04T11:53:23.641Z</time></trkpt><trkpt lat="42.631627" lon="18.1475318"><ele>174.0</ele><time>2026-05-04T11:53:24.64Z</time></trkpt><trkpt lat="42.6316842" lon="18.1472605"><ele>172.0</ele><time>2026-05-04T11:53:25.64Z</time></trkpt><trkpt lat="42.631738" lon="18.1469934"><ele>172.0</ele><time>2026-05-04T11:53:26.638Z</time></trkpt><trkpt lat="42.6317864" lon="18.1467295"><ele>172.0</ele><time>2026-05-04T11:53:27.638Z</time></trkpt><trkpt lat="42.6318207" lon="18.1464674"><ele>172.0</ele><time>2026-05-04T11:53:28.639Z</time></trkpt><trkpt lat="42.6318444" lon="18.1462018"><ele>172.0</ele><time>2026-05-04T11:53:29.639Z</time></trkpt><trkpt lat="42.631861" lon="18.1459526"><ele>172.0</ele><time>2026-05-04T11:53:30.639Z</time></trkpt><trkpt lat="42.6318853" lon="18.1457297"><ele>172.0</ele><time>2026-05-04T11:53:31.638Z</time></trkpt><trkpt lat="42.6319135" lon="18.1455033"><ele>176.0</ele><time>2026-05-04T11:53:32.639Z</time></trkpt><trkpt lat="42.6319567" lon="18.145274"><ele>180.0</ele><time>2026-05-04T11:53:33.64Z</time></trkpt><trkpt lat="42.6320066" lon="18.1450352"><ele>184.0</ele><time>2026-05-04T11:53:34.641Z</time></trkpt><trkpt lat="42.6320571" lon="18.1448217"><ele>184.0</ele><time>2026-05-04T11:53:35.638Z</time></trkpt><trkpt lat="42.6321114" lon="18.1446292"><ele>184.0</ele><time>2026-05-04T11:53:36.64Z</time></trkpt><trkpt lat="42.632164" lon="18.1444412"><ele>184.0</ele><time>2026-05-04T11:53:37.64Z</time></trkpt><trkpt lat="42.6322363" lon="18.1442695"><ele>184.0</ele><time>2026-05-04T11:53:38.64Z</time></trkpt><trkpt lat="42.6323352" lon="18.144116"><ele>174.66666666666669</ele><time>2026-05-04T11:53:39.638Z</time></trkpt><trkpt lat="42.6324413" lon="18.1439832"><ele>165.33333333333334</ele><time>2026-05-04T11:53:40.636Z</time></trkpt><trkpt lat="42.6325745" lon="18.1438777"><ele>156.0</ele><time>2026-05-04T11:53:41.639Z</time></trkpt><trkpt lat="42.6327218" lon="18.1438013"><ele>166.66666666666666</ele><time>2026-05-04T11:53:42.641Z</time></trkpt><trkpt lat="42.6328709" lon="18.1437256"><ele>177.33333333333331</ele><time>2026-05-04T11:53:43.639Z</time></trkpt><trkpt lat="42.6330154" lon="18.1436325"><ele>188.0</ele><time>2026-05-04T11:53:44.638Z</time></trkpt><trkpt lat="42.633151" lon="18.1435259"><ele>188.0</ele><time>2026-05-04T11:53:45.639Z</time></trkpt><trkpt lat="42.6332606" lon="18.1433826"><ele>188.0</ele><time>2026-05-04T11:53:46.638Z</time></trkpt><trkpt lat="42.6333693" lon="18.1432132"><ele>188.0</ele><time>2026-05-04T11:53:47.638Z</time></trkpt><trkpt lat="42.6334262" lon="18.1429572"><ele>180.66666666666666</ele><time>2026-05-04T11:53:48.638Z</time></trkpt><trkpt lat="42.6335029" lon="18.1427264"><ele>173.33333333333334</ele><time>2026-05-04T11:53:49.639Z</time></trkpt><trkpt lat="42.6335911" lon="18.1425019"><ele>166.0</ele><time>2026-05-04T11:53:50.638Z</time></trkpt><trkpt lat="42.6335928" lon="18.1422041"><ele>182.66666666666669</ele><time>2026-05-04T11:53:51.64Z</time></trkpt><trkpt lat="42.6336617" lon="18.142009"><ele>199.33333333333334</ele><time>2026-05-04T11:53:52.639Z</time></trkpt><trkpt lat="42.6337088" lon="18.141805"><ele>216.0</ele><time>2026-05-04T11:53:53.64Z</time></trkpt><trkpt lat="42.6337273" lon="18.141594"><ele>220.33333333333331</ele><time>2026-05-04T11:53:54.639Z</time></trkpt><trkpt lat="42.6337274" lon="18.1413861"><ele>224.66666666666666</ele><time>2026-05-04T11:53:55.639Z</time></trkpt><trkpt lat="42.6336994" lon="18.1411704"><ele>229.0</ele><time>2026-05-04T11:53:56.64Z</time></trkpt><trkpt lat="42.6336594" lon="18.1409532"><ele>229.0</ele><time>2026-05-04T11:53:57.637Z</time></trkpt><trkpt lat="42.6336133" lon="18.1407273"><ele>229.0</ele><time>2026-05-04T11:53:58.64Z</time></trkpt><trkpt lat="42.6335661" lon="18.1405046"><ele>229.0</ele><time>2026-05-04T11:53:59.639Z</time></trkpt><trkpt lat="42.6335187" lon="18.1402748"><ele>223.33333333333331</ele><time>2026-05-04T11:54:00.64Z</time></trkpt><trkpt lat="42.6334793" lon="18.1400585"><ele>217.66666666666669</ele><time>2026-05-04T11:54:01.641Z</time></trkpt><trkpt lat="42.6334352" lon="18.1398452"><ele>212.0</ele><time>2026-05-04T11:54:02.638Z</time></trkpt><trkpt lat="42.633388" lon="18.1396283"><ele>212.0</ele><time>2026-05-04T11:54:03.64Z</time></trkpt><trkpt lat="42.6333512" lon="18.1394202"><ele>212.0</ele><time>2026-05-04T11:54:04.641Z</time></trkpt><trkpt lat="42.6333175" lon="18.1392083"><ele>212.0</ele><time>2026-05-04T11:54:05.639Z</time></trkpt><trkpt lat="42.6332933" lon="18.1390012"><ele>212.0</ele><time>2026-05-04T11:54:06.638Z</time></trkpt><trkpt lat="42.6332816" lon="18.1387802"><ele>212.0</ele><time>2026-05-04T11:54:07.64Z</time></trkpt><trkpt lat="42.6332869" lon="18.1385566"><ele>212.0</ele><time>2026-05-04T11:54:08.636Z</time></trkpt><trkpt lat="42.6332962" lon="18.1383306"><ele>206.33333333333334</ele><time>2026-05-04T11:54:09.638Z</time></trkpt><trkpt lat="42.6333084" lon="18.1381171"><ele>200.66666666666669</ele><time>2026-05-04T11:54:10.636Z</time></trkpt><trkpt lat="42.6333344" lon="18.1379096"><ele>195.0</ele><time>2026-05-04T11:54:11.639Z</time></trkpt><trkpt lat="42.6333719" lon="18.1377078"><ele>195.0</ele><time>2026-05-04T11:54:12.639Z</time></trkpt><trkpt lat="42.6334261" lon="18.1375088"><ele>195.0</ele><time>2026-05-04T11:54:13.64Z</time></trkpt><trkpt lat="42.633498" lon="18.1373193"><ele>195.0</ele><time>2026-05-04T11:54:14.639Z</time></trkpt><trkpt lat="42.6335889" lon="18.1371406"><ele>192.66666666666666</ele><time>2026-05-04T11:54:15.638Z</time></trkpt><trkpt lat="42.6336972" lon="18.1369733"><ele>190.33333333333331</ele><time>2026-05-04T11:54:16.639Z</time></trkpt><trkpt lat="42.6338215" lon="18.1368224"><ele>188.0</ele><time>2026-05-04T11:54:17.637Z</time></trkpt><trkpt lat="42.6339673" lon="18.1366935"><ele>188.0</ele><time>2026-05-04T11:54:18.64Z</time></trkpt><trkpt lat="42.6341322" lon="18.1365847"><ele>188.0</ele><time>2026-05-04T11:54:19.639Z</time></trkpt><trkpt lat="42.6343098" lon="18.1364852"><ele>188.0</ele><time>2026-05-04T11:54:20.64Z</time></trkpt><trkpt lat="42.6344894" lon="18.1363918"><ele>191.33333333333331</ele><time>2026-05-04T11:54:21.638Z</time></trkpt><trkpt lat="42.6346617" lon="18.1362936"><ele>194.66666666666666</ele><time>2026-05-04T11:54:22.639Z</time></trkpt><trkpt lat="42.6348307" lon="18.1361987"><ele>198.0</ele><time>2026-05-04T11:54:23.639Z</time></trkpt><trkpt lat="42.6350031" lon="18.1361018"><ele>198.0</ele><time>2026-05-04T11:54:24.638Z</time></trkpt><trkpt lat="42.6351735" lon="18.1359892"><ele>198.0</ele><time>2026-05-04T11:54:25.64Z</time></trkpt><trkpt lat="42.6353473" lon="18.1358578"><ele>198.0</ele><time>2026-05-04T11:54:26.639Z</time></trkpt><trkpt lat="42.6355092" lon="18.1356939"><ele>194.33333333333334</ele><time>2026-05-04T11:54:27.638Z</time></trkpt><trkpt lat="42.6356685" lon="18.1355323"><ele>190.66666666666669</ele><time>2026-05-04T11:54:28.637Z</time></trkpt><trkpt lat="42.6358222" lon="18.1353648"><ele>187.0</ele><time>2026-05-04T11:54:29.639Z</time></trkpt><trkpt lat="42.6359668" lon="18.1352064"><ele>187.0</ele><time>2026-05-04T11:54:30.64Z</time></trkpt><trkpt lat="42.6361101" lon="18.1350518"><ele>187.0</ele><time>2026-05-04T11:54:31.64Z</time></trkpt><trkpt lat="42.6362436" lon="18.1349229"><ele>187.0</ele><time>2026-05-04T11:54:32.641Z</time></trkpt><trkpt lat="42.6363858" lon="18.1348065"><ele>182.0</ele><time>2026-05-04T11:54:33.64Z</time></trkpt><trkpt lat="42.6365267" lon="18.1347214"><ele>177.0</ele><time>2026-05-04T11:54:34.639Z</time></trkpt><trkpt lat="42.6366679" lon="18.1346534"><ele>172.0</ele><time>2026-05-04T11:54:35.637Z</time></trkpt><trkpt lat="42.6368125" lon="18.1345843"><ele>172.0</ele><time>2026-05-04T11:54:36.639Z</time></trkpt><trkpt lat="42.6369577" lon="18.1345041"><ele>172.0</ele><time>2026-05-04T11:54:37.641Z</time></trkpt><trkpt lat="42.6371049" lon="18.1344146"><ele>172.0</ele><time>2026-05-04T11:54:38.639Z</time></trkpt><trkpt lat="42.6372485" lon="18.1343081"><ele>174.0</ele><time>2026-05-04T11:54:39.636Z</time></trkpt><trkpt lat="42.6373833" lon="18.1341765"><ele>176.0</ele><time>2026-05-04T11:54:40.639Z</time></trkpt><trkpt lat="42.6375114" lon="18.1340196"><ele>178.0</ele><time>2026-05-04T11:54:41.637Z</time></trkpt><trkpt lat="42.6376312" lon="18.1338597"><ele>178.0</ele><time>2026-05-04T11:54:42.639Z</time></trkpt><trkpt lat="42.6377417" lon="18.1336886"><ele>178.0</ele><time>2026-05-04T11:54:43.64Z</time></trkpt><trkpt lat="42.6378447" lon="18.1335033"><ele>178.0</ele><time>2026-05-04T11:54:44.64Z</time></trkpt><trkpt lat="42.6379363" lon="18.1332799"><ele>188.0</ele><time>2026-05-04T11:54:45.64Z</time></trkpt><trkpt lat="42.6379998" lon="18.1330834"><ele>198.0</ele><time>2026-05-04T11:54:46.639Z</time></trkpt><trkpt lat="42.6380507" lon="18.1328794"><ele>208.0</ele><time>2026-05-04T11:54:47.639Z</time></trkpt><trkpt lat="42.6380924" lon="18.1326742"><ele>208.0</ele><time>2026-05-04T11:54:48.64Z</time></trkpt><trkpt lat="42.6381302" lon="18.1324706"><ele>208.0</ele><time>2026-05-04T11:54:49.638Z</time></trkpt><trkpt lat="42.638168" lon="18.1322642"><ele>208.0</ele><time>2026-05-04T11:54:50.639Z</time></trkpt><trkpt lat="42.6382114" lon="18.1320665"><ele>202.5</ele><time>2026-05-04T11:54:51.638Z</time></trkpt><trkpt lat="42.6382612" lon="18.1318865"><ele>197.0</ele><time>2026-05-04T11:54:52.641Z</time></trkpt><trkpt lat="42.638337" lon="18.1317132"><ele>191.5</ele><time>2026-05-04T11:54:53.639Z</time></trkpt><trkpt lat="42.6384204" lon="18.1315526"><ele>186.0</ele><time>2026-05-04T11:54:54.64Z</time></trkpt><trkpt lat="42.6385161" lon="18.131396"><ele>192.0</ele><time>2026-05-04T11:54:55.639Z</time></trkpt><trkpt lat="42.6386215" lon="18.1312443"><ele>198.0</ele><time>2026-05-04T11:54:56.641Z</time></trkpt><trkpt lat="42.6387355" lon="18.1310995"><ele>204.0</ele><time>2026-05-04T11:54:57.639Z</time></trkpt><trkpt lat="42.6388542" lon="18.1309681"><ele>204.0</ele><time>2026-05-04T11:54:58.64Z</time></trkpt><trkpt lat="42.6389738" lon="18.13083"><ele>204.0</ele><time>2026-05-04T11:54:59.641Z</time></trkpt><trkpt lat="42.6391017" lon="18.1306939"><ele>204.0</ele><time>2026-05-04T11:55:00.638Z</time></trkpt><trkpt lat="42.6392413" lon="18.1305622"><ele>204.33333333333331</ele><time>2026-05-04T11:55:01.64Z</time></trkpt><trkpt lat="42.6393839" lon="18.1304173"><ele>204.66666666666666</ele><time>2026-05-04T11:55:02.641Z</time></trkpt><trkpt lat="42.6395192" lon="18.1302563"><ele>205.0</ele><time>2026-05-04T11:55:03.637Z</time></trkpt><trkpt lat="42.6396516" lon="18.1300899"><ele>205.0</ele><time>2026-05-04T11:55:04.639Z</time></trkpt><trkpt lat="42.6397845" lon="18.1299303"><ele>205.0</ele><time>2026-05-04T11:55:05.638Z</time></trkpt><trkpt lat="42.6399097" lon="18.1297632"><ele>205.0</ele><time>2026-05-04T11:55:06.638Z</time></trkpt><trkpt lat="42.6400376" lon="18.1295884"><ele>207.0</ele><time>2026-05-04T11:55:07.64Z</time></trkpt><trkpt lat="42.6401707" lon="18.1294143"><ele>209.0</ele><time>2026-05-04T11:55:08.638Z</time></trkpt><trkpt lat="42.6402914" lon="18.1292544"><ele>211.0</ele><time>2026-05-04T11:55:09.64Z</time></trkpt><trkpt lat="42.6404089" lon="18.1290939"><ele>201.33333333333331</ele><time>2026-05-04T11:55:10.638Z</time></trkpt><trkpt lat="42.6405232" lon="18.1289336"><ele>191.66666666666666</ele><time>2026-05-04T11:55:11.637Z</time></trkpt><trkpt lat="42.6406387" lon="18.1287704"><ele>182.0</ele><time>2026-05-04T11:55:12.64Z</time></trkpt><trkpt lat="42.6407551" lon="18.1286074"><ele>182.0</ele><time>2026-05-04T11:55:13.64Z</time></trkpt><trkpt lat="42.640868" lon="18.1284425"><ele>182.0</ele><time>2026-05-04T11:55:14.636Z</time></trkpt><trkpt lat="42.6409791" lon="18.12827"><ele>182.0</ele><time>2026-05-04T11:55:15.639Z</time></trkpt><trkpt lat="42.6410835" lon="18.1280915"><ele>189.33333333333331</ele><time>2026-05-04T11:55:16.641Z</time></trkpt><trkpt lat="42.6411828" lon="18.1279061"><ele>196.66666666666666</ele><time>2026-05-04T11:55:17.638Z</time></trkpt><trkpt lat="42.6412775" lon="18.127714"><ele>204.0</ele><time>2026-05-04T11:55:18.639Z</time></trkpt><trkpt lat="42.6413623" lon="18.1275113"><ele>199.66666666666666</ele><time>2026-05-04T11:55:19.639Z</time></trkpt><trkpt lat="42.6414349" lon="18.1272971"><ele>195.33333333333331</ele><time>2026-05-04T11:55:20.637Z</time></trkpt><trkpt lat="42.6414873" lon="18.1270819"><ele>191.0</ele><time>2026-05-04T11:55:21.636Z</time></trkpt><trkpt lat="42.6415269" lon="18.1268644"><ele>191.0</ele><time>2026-05-04T11:55:22.64Z</time></trkpt><trkpt lat="42.6415548" lon="18.1266431"><ele>191.0</ele><time>2026-05-04T11:55:23.638Z</time></trkpt><trkpt lat="42.6415728" lon="18.1264224"><ele>191.0</ele><time>2026-05-04T11:55:24.639Z</time></trkpt><trkpt lat="42.6415823" lon="18.1262026"><ele>188.66666666666666</ele><time>2026-05-04T11:55:25.639Z</time></trkpt><trkpt lat="42.6415849" lon="18.1259793"><ele>186.33333333333334</ele><time>2026-05-04T11:55:26.639Z</time></trkpt><trkpt lat="42.6415933" lon="18.1257334"><ele>184.0</ele><time>2026-05-04T11:55:27.638Z</time></trkpt><trkpt lat="42.6415982" lon="18.125509"><ele>181.0</ele><time>2026-05-04T11:55:28.639Z</time></trkpt><trkpt lat="42.6416128" lon="18.1252819"><ele>178.0</ele><time>2026-05-04T11:55:29.638Z</time></trkpt><trkpt lat="42.6416381" lon="18.1250542"><ele>175.0</ele><time>2026-05-04T11:55:30.637Z</time></trkpt><trkpt lat="42.6416698" lon="18.1248341"><ele>169.66666666666669</ele><time>2026-05-04T11:55:31.638Z</time></trkpt><trkpt lat="42.6417068" lon="18.1246103"><ele>164.33333333333334</ele><time>2026-05-04T11:55:32.639Z</time></trkpt><trkpt lat="42.6417461" lon="18.1243937"><ele>159.0</ele><time>2026-05-04T11:55:33.639Z</time></trkpt><trkpt lat="42.641787" lon="18.1241741"><ele>151.33333333333334</ele><time>2026-05-04T11:55:34.64Z</time></trkpt><trkpt lat="42.6418299" lon="18.1239577"><ele>143.66666666666669</ele><time>2026-05-04T11:55:35.637Z</time></trkpt><trkpt lat="42.6418748" lon="18.1237471"><ele>136.0</ele><time>2026-05-04T11:55:36.641Z</time></trkpt><trkpt lat="42.6419366" lon="18.1235345"><ele>149.0</ele><time>2026-05-04T11:55:37.639Z</time></trkpt><trkpt lat="42.6419983" lon="18.123332"><ele>162.0</ele><time>2026-05-04T11:55:38.639Z</time></trkpt><trkpt lat="42.6420671" lon="18.1231307"><ele>175.0</ele><time>2026-05-04T11:55:39.64Z</time></trkpt><trkpt lat="42.6421372" lon="18.122926"><ele>175.0</ele><time>2026-05-04T11:55:40.639Z</time></trkpt><trkpt lat="42.6422158" lon="18.1227152"><ele>175.0</ele><time>2026-05-04T11:55:41.639Z</time></trkpt><trkpt lat="42.6422931" lon="18.1225113"><ele>175.0</ele><time>2026-05-04T11:55:42.638Z</time></trkpt><trkpt lat="42.6423729" lon="18.1223"><ele>168.33333333333334</ele><time>2026-05-04T11:55:43.638Z</time></trkpt><trkpt lat="42.642452" lon="18.122084"><ele>161.66666666666666</ele><time>2026-05-04T11:55:44.641Z</time></trkpt><trkpt lat="42.6425318" lon="18.1218656"><ele>155.0</ele><time>2026-05-04T11:55:45.641Z</time></trkpt><trkpt lat="42.642611" lon="18.1216481"><ele>146.33333333333331</ele><time>2026-05-04T11:55:46.637Z</time></trkpt><trkpt lat="42.6426879" lon="18.1214392"><ele>137.66666666666666</ele><time>2026-05-04T11:55:47.64Z</time></trkpt><trkpt lat="42.6427711" lon="18.1212322"><ele>129.0</ele><time>2026-05-04T11:55:48.636Z</time></trkpt><trkpt lat="42.6428526" lon="18.1210272"><ele>139.66666666666666</ele><time>2026-05-04T11:55:49.639Z</time></trkpt><trkpt lat="42.6429375" lon="18.1208215"><ele>150.33333333333331</ele><time>2026-05-04T11:55:50.64Z</time></trkpt><trkpt lat="42.6430256" lon="18.1206224"><ele>161.0</ele><time>2026-05-04T11:55:51.64Z</time></trkpt><trkpt lat="42.6431214" lon="18.1204213"><ele>161.0</ele><time>2026-05-04T11:55:52.638Z</time></trkpt><trkpt lat="42.6432173" lon="18.1202182"><ele>161.0</ele><time>2026-05-04T11:55:53.639Z</time></trkpt><trkpt lat="42.6433306" lon="18.120008"><ele>161.0</ele><time>2026-05-04T11:55:54.639Z</time></trkpt><trkpt lat="42.6434366" lon="18.1198108"><ele>170.0</ele><time>2026-05-04T11:55:55.64Z</time></trkpt><trkpt lat="42.6435414" lon="18.1196052"><ele>179.0</ele><time>2026-05-04T11:55:56.64Z</time></trkpt><trkpt lat="42.6436494" lon="18.1193906"><ele>188.0</ele><time>2026-05-04T11:55:57.636Z</time></trkpt><trkpt lat="42.6437472" lon="18.11919"><ele>178.66666666666666</ele><time>2026-05-04T11:55:58.638Z</time></trkpt><trkpt lat="42.643839" lon="18.1189939"><ele>169.33333333333334</ele><time>2026-05-04T11:55:59.637Z</time></trkpt><trkpt lat="42.6439224" lon="18.1187878"><ele>160.0</ele><time>2026-05-04T11:56:00.637Z</time></trkpt><trkpt lat="42.6439966" lon="18.1185931"><ele>160.0</ele><time>2026-05-04T11:56:01.635Z</time></trkpt><trkpt lat="42.6440657" lon="18.1183908"><ele>160.0</ele><time>2026-05-04T11:56:02.637Z</time></trkpt><trkpt lat="42.6441281" lon="18.1181923"><ele>160.0</ele><time>2026-05-04T11:56:03.637Z</time></trkpt><trkpt lat="42.644188" lon="18.1180201"><ele>154.0</ele><time>2026-05-04T11:56:04.637Z</time></trkpt><trkpt lat="42.6442357" lon="18.1178396"><ele>148.0</ele><time>2026-05-04T11:56:05.638Z</time></trkpt><trkpt lat="42.644293" lon="18.1176533"><ele>142.0</ele><time>2026-05-04T11:56:06.639Z</time></trkpt><trkpt lat="42.6443471" lon="18.1174715"><ele>136.0</ele><time>2026-05-04T11:56:07.638Z</time></trkpt><trkpt lat="42.6444012" lon="18.1173011"><ele>131.75</ele><time>2026-05-04T11:56:08.636Z</time></trkpt><trkpt lat="42.6444526" lon="18.117127"><ele>127.5</ele><time>2026-05-04T11:56:09.638Z</time></trkpt><trkpt lat="42.6445009" lon="18.1169452"><ele>123.25</ele><time>2026-05-04T11:56:10.638Z</time></trkpt><trkpt lat="42.6445437" lon="18.1167684"><ele>119.0</ele><time>2026-05-04T11:56:11.636Z</time></trkpt><trkpt lat="42.6445852" lon="18.116593"><ele>129.25</ele><time>2026-05-04T11:56:12.639Z</time></trkpt><trkpt lat="42.6446269" lon="18.1164173"><ele>139.5</ele><time>2026-05-04T11:56:13.637Z</time></trkpt><trkpt lat="42.6446732" lon="18.1162428"><ele>149.75</ele><time>2026-05-04T11:56:14.637Z</time></trkpt><trkpt lat="42.6447096" lon="18.1160759"><ele>160.0</ele><time>2026-05-04T11:56:15.639Z</time></trkpt><trkpt lat="42.6447409" lon="18.1159133"><ele>160.0</ele><time>2026-05-04T11:56:16.638Z</time></trkpt><trkpt lat="42.6447666" lon="18.115755"><ele>160.0</ele><time>2026-05-04T11:56:17.639Z</time></trkpt><trkpt lat="42.64479" lon="18.1155985"><ele>160.0</ele><time>2026-05-04T11:56:18.639Z</time></trkpt><trkpt lat="42.6448154" lon="18.1154464"><ele>160.0</ele><time>2026-05-04T11:56:19.639Z</time></trkpt><trkpt lat="42.6448416" lon="18.1152911"><ele>157.0</ele><time>2026-05-04T11:56:20.637Z</time></trkpt><trkpt lat="42.6448627" lon="18.11514"><ele>154.0</ele><time>2026-05-04T11:56:21.64Z</time></trkpt><trkpt lat="42.6448814" lon="18.1149837"><ele>151.0</ele><time>2026-05-04T11:56:22.639Z</time></trkpt><trkpt lat="42.6448983" lon="18.1148344"><ele>148.0</ele><time>2026-05-04T11:56:23.64Z</time></trkpt><trkpt lat="42.644912" lon="18.1146738"><ele>145.25</ele><time>2026-05-04T11:56:24.637Z</time></trkpt><trkpt lat="42.6449252" lon="18.11452"><ele>142.5</ele><time>2026-05-04T11:56:25.639Z</time></trkpt><trkpt lat="42.6449392" lon="18.1143692"><ele>139.75</ele><time>2026-05-04T11:56:26.64Z</time></trkpt><trkpt lat="42.6449477" lon="18.1142034"><ele>137.0</ele><time>2026-05-04T11:56:27.639Z</time></trkpt><trkpt lat="42.6449526" lon="18.1140557"><ele>135.5</ele><time>2026-05-04T11:56:28.637Z</time></trkpt><trkpt lat="42.6449632" lon="18.113902"><ele>134.0</ele><time>2026-05-04T11:56:29.638Z</time></trkpt><trkpt lat="42.6449744" lon="18.113741"><ele>132.5</ele><time>2026-05-04T11:56:30.639Z</time></trkpt><trkpt lat="42.6449917" lon="18.1135827"><ele>131.0</ele><time>2026-05-04T11:56:31.638Z</time></trkpt><trkpt lat="42.6450107" lon="18.1134389"><ele>131.0</ele><time>2026-05-04T11:56:32.638Z</time></trkpt><trkpt lat="42.6450261" lon="18.1132872"><ele>131.0</ele><time>2026-05-04T11:56:33.639Z</time></trkpt><trkpt lat="42.6450454" lon="18.1131276"><ele>131.0</ele><time>2026-05-04T11:56:34.639Z</time></trkpt><trkpt lat="42.6450518" lon="18.1129703"><ele>131.0</ele><time>2026-05-04T11:56:35.637Z</time></trkpt><trkpt lat="42.6450639" lon="18.1128176"><ele>129.25</ele><time>2026-05-04T11:56:36.641Z</time></trkpt><trkpt lat="42.6450792" lon="18.1126586"><ele>127.5</ele><time>2026-05-04T11:56:37.638Z</time></trkpt><trkpt lat="42.6450942" lon="18.1125042"><ele>125.75</ele><time>2026-05-04T11:56:38.639Z</time></trkpt><trkpt lat="42.6451026" lon="18.1123472"><ele>124.0</ele><time>2026-05-04T11:56:39.639Z</time></trkpt><trkpt lat="42.6451082" lon="18.1121899"><ele>121.5</ele><time>2026-05-04T11:56:40.638Z</time></trkpt><trkpt lat="42.6451177" lon="18.1120337"><ele>119.0</ele><time>2026-05-04T11:56:41.639Z</time></trkpt><trkpt lat="42.6451421" lon="18.1118853"><ele>116.5</ele><time>2026-05-04T11:56:42.638Z</time></trkpt><trkpt lat="42.6451552" lon="18.111722"><ele>114.0</ele><time>2026-05-04T11:56:43.638Z</time></trkpt><trkpt lat="42.6451728" lon="18.1115668"><ele>111.5</ele><time>2026-05-04T11:56:44.641Z</time></trkpt><trkpt lat="42.6451965" lon="18.1114119"><ele>109.0</ele><time>2026-05-04T11:56:45.638Z</time></trkpt><trkpt lat="42.6452082" lon="18.1112597"><ele>106.5</ele><time>2026-05-04T11:56:46.637Z</time></trkpt><trkpt lat="42.6452312" lon="18.1111088"><ele>104.0</ele><time>2026-05-04T11:56:47.64Z</time></trkpt><trkpt lat="42.6452479" lon="18.1109565"><ele>104.0</ele><time>2026-05-04T11:56:48.64Z</time></trkpt><trkpt lat="42.6452673" lon="18.1108102"><ele>104.0</ele><time>2026-05-04T11:56:49.638Z</time></trkpt><trkpt lat="42.6452827" lon="18.1106618"><ele>104.0</ele><time>2026-05-04T11:56:50.639Z</time></trkpt><trkpt lat="42.6453017" lon="18.1105164"><ele>104.0</ele><time>2026-05-04T11:56:51.639Z</time></trkpt><trkpt lat="42.6452979" lon="18.1103637"><ele>104.0</ele><time>2026-05-04T11:56:52.639Z</time></trkpt><trkpt lat="42.6453047" lon="18.1101996"><ele>113.75</ele><time>2026-05-04T11:56:53.639Z</time></trkpt><trkpt lat="42.6453057" lon="18.1100337"><ele>123.5</ele><time>2026-05-04T11:56:54.636Z</time></trkpt><trkpt lat="42.6453045" lon="18.1098683"><ele>133.25</ele><time>2026-05-04T11:56:55.638Z</time></trkpt><trkpt lat="42.645305" lon="18.1097042"><ele>143.0</ele><time>2026-05-04T11:56:56.638Z</time></trkpt><trkpt lat="42.6453041" lon="18.1095428"><ele>143.0</ele><time>2026-05-04T11:56:57.637Z</time></trkpt><trkpt lat="42.6453083" lon="18.1093813"><ele>143.0</ele><time>2026-05-04T11:56:58.638Z</time></trkpt><trkpt lat="42.6453183" lon="18.1092213"><ele>143.0</ele><time>2026-05-04T11:56:59.636Z</time></trkpt><trkpt lat="42.6453493" lon="18.1090611"><ele>143.0</ele><time>2026-05-04T11:57:00.635Z</time></trkpt><trkpt lat="42.6453764" lon="18.1089024"><ele>139.5</ele><time>2026-05-04T11:57:01.639Z</time></trkpt><trkpt lat="42.6454185" lon="18.1087385"><ele>136.0</ele><time>2026-05-04T11:57:02.639Z</time></trkpt><trkpt lat="42.64546" lon="18.1085777"><ele>132.5</ele><time>2026-05-04T11:57:03.639Z</time></trkpt><trkpt lat="42.6455099" lon="18.1084162"><ele>129.0</ele><time>2026-05-04T11:57:04.636Z</time></trkpt><trkpt lat="42.6455655" lon="18.108265"><ele>125.25</ele><time>2026-05-04T11:57:05.637Z</time></trkpt><trkpt lat="42.645633" lon="18.1081168"><ele>121.5</ele><time>2026-05-04T11:57:06.638Z</time></trkpt><trkpt lat="42.6457105" lon="18.107969"><ele>117.75</ele><time>2026-05-04T11:57:07.639Z</time></trkpt><trkpt lat="42.645799" lon="18.107825"><ele>114.0</ele><time>2026-05-04T11:57:08.638Z</time></trkpt><trkpt lat="42.6458894" lon="18.1076765"><ele>114.0</ele><time>2026-05-04T11:57:09.638Z</time></trkpt><trkpt lat="42.6459765" lon="18.1075298"><ele>114.0</ele><time>2026-05-04T11:57:10.638Z</time></trkpt><trkpt lat="42.6460651" lon="18.1073777"><ele>114.0</ele><time>2026-05-04T11:57:11.637Z</time></trkpt><trkpt lat="42.6461669" lon="18.1072129"><ele>114.0</ele><time>2026-05-04T11:57:12.639Z</time></trkpt><trkpt lat="42.646263" lon="18.1070554"><ele>116.25</ele><time>2026-05-04T11:57:13.64Z</time></trkpt><trkpt lat="42.646353" lon="18.106895"><ele>118.5</ele><time>2026-05-04T11:57:14.638Z</time></trkpt><trkpt lat="42.6464363" lon="18.10673"><ele>120.75</ele><time>2026-05-04T11:57:15.638Z</time></trkpt><trkpt lat="42.6465191" lon="18.1065649"><ele>123.0</ele><time>2026-05-04T11:57:16.64Z</time></trkpt><trkpt lat="42.6466031" lon="18.1063982"><ele>123.0</ele><time>2026-05-04T11:57:17.638Z</time></trkpt><trkpt lat="42.6466878" lon="18.1062344"><ele>123.0</ele><time>2026-05-04T11:57:18.638Z</time></trkpt><trkpt lat="42.6467692" lon="18.1060668"><ele>123.0</ele><time>2026-05-04T11:57:19.639Z</time></trkpt><trkpt lat="42.646852" lon="18.1058979"><ele>123.0</ele><time>2026-05-04T11:57:20.638Z</time></trkpt><trkpt lat="42.6469339" lon="18.1057334"><ele>125.0</ele><time>2026-05-04T11:57:21.636Z</time></trkpt><trkpt lat="42.6470158" lon="18.1055715"><ele>127.0</ele><time>2026-05-04T11:57:22.638Z</time></trkpt><trkpt lat="42.6470967" lon="18.1054142"><ele>129.0</ele><time>2026-05-04T11:57:23.638Z</time></trkpt><trkpt lat="42.6471781" lon="18.1052684"><ele>131.0</ele><time>2026-05-04T11:57:24.637Z</time></trkpt><trkpt lat="42.647256" lon="18.1051097"><ele>131.0</ele><time>2026-05-04T11:57:25.637Z</time></trkpt><trkpt lat="42.6473397" lon="18.1049537"><ele>131.0</ele><time>2026-05-04T11:57:26.636Z</time></trkpt><trkpt lat="42.6474232" lon="18.1048066"><ele>131.0</ele><time>2026-05-04T11:57:27.635Z</time></trkpt><trkpt lat="42.6475117" lon="18.1046549"><ele>131.0</ele><time>2026-05-04T11:57:28.637Z</time></trkpt><trkpt lat="42.6476023" lon="18.1045048"><ele>130.0</ele><time>2026-05-04T11:57:29.64Z</time></trkpt><trkpt lat="42.6476893" lon="18.1043574"><ele>129.0</ele><time>2026-05-04T11:57:30.637Z</time></trkpt><trkpt lat="42.6477767" lon="18.104213"><ele>128.0</ele><time>2026-05-04T11:57:31.639Z</time></trkpt><trkpt lat="42.6478659" lon="18.1040707"><ele>127.0</ele><time>2026-05-04T11:57:32.638Z</time></trkpt><trkpt lat="42.6479547" lon="18.1039273"><ele>127.0</ele><time>2026-05-04T11:57:33.638Z</time></trkpt><trkpt lat="42.6480409" lon="18.1037913"><ele>127.0</ele><time>2026-05-04T11:57:34.639Z</time></trkpt><trkpt lat="42.6481188" lon="18.1036547"><ele>127.0</ele><time>2026-05-04T11:57:35.639Z</time></trkpt><trkpt lat="42.6482001" lon="18.1035191"><ele>127.0</ele><time>2026-05-04T11:57:36.639Z</time></trkpt><trkpt lat="42.6482795" lon="18.1033995"><ele>127.0</ele><time>2026-05-04T11:57:37.638Z</time></trkpt><trkpt lat="42.6483568" lon="18.1032851"><ele>126.99999999999999</ele><time>2026-05-04T11:57:38.638Z</time></trkpt><trkpt lat="42.6484193" lon="18.1031875"><ele>126.99999999999999</ele><time>2026-05-04T11:57:39.639Z</time></trkpt><trkpt lat="42.6484808" lon="18.1030991"><ele>127.0</ele><time>2026-05-04T11:57:40.641Z</time></trkpt><trkpt lat="42.6485264" lon="18.1030228"><ele>127.0</ele><time>2026-05-04T11:57:41.641Z</time></trkpt><trkpt lat="42.6485796" lon="18.1029446"><ele>130.0</ele><time>2026-05-04T11:57:42.641Z</time></trkpt><trkpt lat="42.6486346" lon="18.1028534"><ele>133.0</ele><time>2026-05-04T11:57:43.639Z</time></trkpt><trkpt lat="42.6486933" lon="18.1027623"><ele>136.0</ele><time>2026-05-04T11:57:44.638Z</time></trkpt><trkpt lat="42.6487528" lon="18.1026668"><ele>139.0</ele><time>2026-05-04T11:57:45.637Z</time></trkpt><trkpt lat="42.6488085" lon="18.1025624"><ele>142.0</ele><time>2026-05-04T11:57:46.636Z</time></trkpt><trkpt lat="42.6488761" lon="18.1024345"><ele>136.25</ele><time>2026-05-04T11:57:47.637Z</time></trkpt><trkpt lat="42.6489513" lon="18.1023173"><ele>130.5</ele><time>2026-05-04T11:57:48.639Z</time></trkpt><trkpt lat="42.6490256" lon="18.1021965"><ele>124.75</ele><time>2026-05-04T11:57:49.637Z</time></trkpt><trkpt lat="42.6491068" lon="18.1020506"><ele>119.0</ele><time>2026-05-04T11:57:50.636Z</time></trkpt><trkpt lat="42.6491785" lon="18.1019268"><ele>119.0</ele><time>2026-05-04T11:57:51.637Z</time></trkpt><trkpt lat="42.6492471" lon="18.1018036"><ele>119.0</ele><time>2026-05-04T11:57:52.637Z</time></trkpt><trkpt lat="42.6493174" lon="18.1016873"><ele>119.0</ele><time>2026-05-04T11:57:53.636Z</time></trkpt><trkpt lat="42.649381" lon="18.1015689"><ele>119.0</ele><time>2026-05-04T11:57:54.638Z</time></trkpt><trkpt lat="42.6494445" lon="18.1014539"><ele>119.0</ele><time>2026-05-04T11:57:55.637Z</time></trkpt><trkpt lat="42.6495169" lon="18.1013415"><ele>121.25</ele><time>2026-05-04T11:57:56.638Z</time></trkpt><trkpt lat="42.6495861" lon="18.1012289"><ele>123.5</ele><time>2026-05-04T11:57:57.638Z</time></trkpt><trkpt lat="42.6496566" lon="18.1011124"><ele>125.75</ele><time>2026-05-04T11:57:58.636Z</time></trkpt><trkpt lat="42.6497374" lon="18.1009892"><ele>128.0</ele><time>2026-05-04T11:57:59.637Z</time></trkpt><trkpt lat="42.6498127" lon="18.1008681"><ele>123.75</ele><time>2026-05-04T11:58:00.637Z</time></trkpt><trkpt lat="42.6498955" lon="18.1007379"><ele>119.5</ele><time>2026-05-04T11:58:01.638Z</time></trkpt><trkpt lat="42.6499828" lon="18.1006105"><ele>115.25</ele><time>2026-05-04T11:58:02.637Z</time></trkpt><trkpt lat="42.6500705" lon="18.1004819"><ele>111.0</ele><time>2026-05-04T11:58:03.639Z</time></trkpt><trkpt lat="42.6501659" lon="18.100341"><ele>111.0</ele><time>2026-05-04T11:58:04.637Z</time></trkpt><trkpt lat="42.6502573" lon="18.1002119"><ele>111.0</ele><time>2026-05-04T11:58:05.641Z</time></trkpt><trkpt lat="42.6503568" lon="18.1000881"><ele>111.0</ele><time>2026-05-04T11:58:06.638Z</time></trkpt><trkpt lat="42.6504536" lon="18.0999585"><ele>111.0</ele><time>2026-05-04T11:58:07.638Z</time></trkpt><trkpt lat="42.6505453" lon="18.0998356"><ele>111.75</ele><time>2026-05-04T11:58:08.639Z</time></trkpt><trkpt lat="42.650658" lon="18.0997075"><ele>112.5</ele><time>2026-05-04T11:58:09.64Z</time></trkpt><trkpt lat="42.6507652" lon="18.0995892"><ele>113.25</ele><time>2026-05-04T11:58:10.638Z</time></trkpt><trkpt lat="42.6508661" lon="18.0994645"><ele>114.0</ele><time>2026-05-04T11:58:11.638Z</time></trkpt><trkpt lat="42.6509733" lon="18.0993465"><ele>114.0</ele><time>2026-05-04T11:58:12.638Z</time></trkpt><trkpt lat="42.6510809" lon="18.099229"><ele>114.0</ele><time>2026-05-04T11:58:13.638Z</time></trkpt><trkpt lat="42.6511859" lon="18.0991111"><ele>114.0</ele><time>2026-05-04T11:58:14.64Z</time></trkpt><trkpt lat="42.6512906" lon="18.0989936"><ele>114.0</ele><time>2026-05-04T11:58:15.637Z</time></trkpt><trkpt lat="42.6513971" lon="18.098875"><ele>114.75</ele><time>2026-05-04T11:58:16.638Z</time></trkpt><trkpt lat="42.651498" lon="18.0987633"><ele>115.5</ele><time>2026-05-04T11:58:17.639Z</time></trkpt><trkpt lat="42.6515987" lon="18.0986557"><ele>116.25</ele><time>2026-05-04T11:58:18.637Z</time></trkpt><trkpt lat="42.6516991" lon="18.0985515"><ele>117.0</ele><time>2026-05-04T11:58:19.637Z</time></trkpt><trkpt lat="42.6518034" lon="18.0984485"><ele>117.0</ele><time>2026-05-04T11:58:20.639Z</time></trkpt><trkpt lat="42.6519053" lon="18.0983409"><ele>117.0</ele><time>2026-05-04T11:58:21.636Z</time></trkpt><trkpt lat="42.652014" lon="18.0982218"><ele>117.0</ele><time>2026-05-04T11:58:22.638Z</time></trkpt><trkpt lat="42.6521318" lon="18.0980926"><ele>117.0</ele><time>2026-05-04T11:58:23.637Z</time></trkpt><trkpt lat="42.6522558" lon="18.097957"><ele>116.33333333333334</ele><time>2026-05-04T11:58:24.638Z</time></trkpt><trkpt lat="42.6523857" lon="18.097821"><ele>115.66666666666667</ele><time>2026-05-04T11:58:25.638Z</time></trkpt><trkpt lat="42.6525155" lon="18.0976872"><ele>115.0</ele><time>2026-05-04T11:58:26.638Z</time></trkpt><trkpt lat="42.6526426" lon="18.0975476"><ele>115.66666666666667</ele><time>2026-05-04T11:58:27.637Z</time></trkpt><trkpt lat="42.6527679" lon="18.0974086"><ele>116.33333333333334</ele><time>2026-05-04T11:58:28.637Z</time></trkpt><trkpt lat="42.6528895" lon="18.0972645"><ele>117.0</ele><time>2026-05-04T11:58:29.638Z</time></trkpt><trkpt lat="42.6530109" lon="18.0971281"><ele>117.0</ele><time>2026-05-04T11:58:30.637Z</time></trkpt><trkpt lat="42.653126" lon="18.0969917"><ele>117.0</ele><time>2026-05-04T11:58:31.637Z</time></trkpt><trkpt lat="42.6532456" lon="18.0968568"><ele>117.0</ele><time>2026-05-04T11:58:32.637Z</time></trkpt><trkpt lat="42.6533684" lon="18.0967255"><ele>117.0</ele><time>2026-05-04T11:58:33.635Z</time></trkpt><trkpt lat="42.6534773" lon="18.0965941"><ele>117.0</ele><time>2026-05-04T11:58:34.637Z</time></trkpt><trkpt lat="42.6535956" lon="18.0964556"><ele>117.0</ele><time>2026-05-04T11:58:35.638Z</time></trkpt><trkpt lat="42.6537085" lon="18.0963266"><ele>117.0</ele><time>2026-05-04T11:58:36.637Z</time></trkpt><trkpt lat="42.6538204" lon="18.096192"><ele>117.75</ele><time>2026-05-04T11:58:37.639Z</time></trkpt><trkpt lat="42.6539308" lon="18.0960549"><ele>118.5</ele><time>2026-05-04T11:58:38.639Z</time></trkpt><trkpt lat="42.6540411" lon="18.095922"><ele>119.25</ele><time>2026-05-04T11:58:39.638Z</time></trkpt><trkpt lat="42.6541444" lon="18.0957892"><ele>120.0</ele><time>2026-05-04T11:58:40.638Z</time></trkpt><trkpt lat="42.6542587" lon="18.0956582"><ele>119.0</ele><time>2026-05-04T11:58:41.638Z</time></trkpt><trkpt lat="42.6543692" lon="18.0955386"><ele>118.0</ele><time>2026-05-04T11:58:42.639Z</time></trkpt><trkpt lat="42.654487" lon="18.0954171"><ele>117.0</ele><time>2026-05-04T11:58:43.64Z</time></trkpt><trkpt lat="42.6546183" lon="18.0952818"><ele>117.0</ele><time>2026-05-04T11:58:44.635Z</time></trkpt><trkpt lat="42.6547393" lon="18.0951694"><ele>117.0</ele><time>2026-05-04T11:58:45.637Z</time></trkpt><trkpt lat="42.6548609" lon="18.0950595"><ele>117.0</ele><time>2026-05-04T11:58:46.636Z</time></trkpt><trkpt lat="42.6549915" lon="18.0949429"><ele>117.0</ele><time>2026-05-04T11:58:47.635Z</time></trkpt><trkpt lat="42.6551153" lon="18.0948488"><ele>113.0</ele><time>2026-05-04T11:58:48.636Z</time></trkpt><trkpt lat="42.6552298" lon="18.0947541"><ele>109.0</ele><time>2026-05-04T11:58:49.637Z</time></trkpt><trkpt lat="42.6553595" lon="18.0946593"><ele>105.0</ele><time>2026-05-04T11:58:50.637Z</time></trkpt><trkpt lat="42.6554939" lon="18.0945724"><ele>101.0</ele><time>2026-05-04T11:58:51.641Z</time></trkpt><trkpt lat="42.6556437" lon="18.0944899"><ele>101.0</ele><time>2026-05-04T11:58:52.639Z</time></trkpt><trkpt lat="42.6557794" lon="18.094411"><ele>101.0</ele><time>2026-05-04T11:58:53.638Z</time></trkpt><trkpt lat="42.6559072" lon="18.0943345"><ele>101.0</ele><time>2026-05-04T11:58:54.634Z</time></trkpt><trkpt lat="42.6560295" lon="18.094263"><ele>101.0</ele><time>2026-05-04T11:58:55.636Z</time></trkpt><trkpt lat="42.6561461" lon="18.0941752"><ele>100.0</ele><time>2026-05-04T11:58:56.638Z</time></trkpt><trkpt lat="42.6562605" lon="18.0940782"><ele>99.0</ele><time>2026-05-04T11:58:57.638Z</time></trkpt><trkpt lat="42.6563722" lon="18.0939753"><ele>98.0</ele><time>2026-05-04T11:58:58.635Z</time></trkpt><trkpt lat="42.6564858" lon="18.0938576"><ele>97.0</ele><time>2026-05-04T11:58:59.635Z</time></trkpt><trkpt lat="42.656593" lon="18.0937366"><ele>97.0</ele><time>2026-05-04T11:59:00.636Z</time></trkpt><trkpt lat="42.6567004" lon="18.0936065"><ele>97.0</ele><time>2026-05-04T11:59:01.636Z</time></trkpt><trkpt lat="42.6568011" lon="18.0934814"><ele>97.0</ele><time>2026-05-04T11:59:02.638Z</time></trkpt><trkpt lat="42.6569015" lon="18.0933573"><ele>97.0</ele><time>2026-05-04T11:59:03.637Z</time></trkpt><trkpt lat="42.6570025" lon="18.093236"><ele>97.0</ele><time>2026-05-04T11:59:04.64Z</time></trkpt><trkpt lat="42.6571049" lon="18.0931302"><ele>97.0</ele><time>2026-05-04T11:59:05.639Z</time></trkpt><trkpt lat="42.6572122" lon="18.0930124"><ele>97.0</ele><time>2026-05-04T11:59:06.636Z</time></trkpt><trkpt lat="42.6573189" lon="18.0929015"><ele>97.0</ele><time>2026-05-04T11:59:07.637Z</time></trkpt><trkpt lat="42.6574312" lon="18.0927994"><ele>97.0</ele><time>2026-05-04T11:59:08.638Z</time></trkpt><trkpt lat="42.6575487" lon="18.0927064"><ele>97.0</ele><time>2026-05-04T11:59:09.638Z</time></trkpt><trkpt lat="42.65767" lon="18.0926213"><ele>97.0</ele><time>2026-05-04T11:59:10.638Z</time></trkpt><trkpt lat="42.6577943" lon="18.0925406"><ele>97.0</ele><time>2026-05-04T11:59:11.639Z</time></trkpt><trkpt lat="42.6579224" lon="18.0924691"><ele>93.25</ele><time>2026-05-04T11:59:12.639Z</time></trkpt><trkpt lat="42.65805" lon="18.0924155"><ele>89.5</ele><time>2026-05-04T11:59:13.637Z</time></trkpt><trkpt lat="42.6581734" lon="18.0923567"><ele>85.75</ele><time>2026-05-04T11:59:14.634Z</time></trkpt><trkpt lat="42.6582973" lon="18.0923073"><ele>82.0</ele><time>2026-05-04T11:59:15.641Z</time></trkpt><trkpt lat="42.6584203" lon="18.0922797"><ele>82.0</ele><time>2026-05-04T11:59:16.637Z</time></trkpt><trkpt lat="42.6585433" lon="18.0922473"><ele>82.0</ele><time>2026-05-04T11:59:17.64Z</time></trkpt><trkpt lat="42.6586697" lon="18.0922074"><ele>82.0</ele><time>2026-05-04T11:59:18.637Z</time></trkpt><trkpt lat="42.6587987" lon="18.0921802"><ele>82.0</ele><time>2026-05-04T11:59:19.639Z</time></trkpt><trkpt lat="42.6589316" lon="18.0921452"><ele>84.25</ele><time>2026-05-04T11:59:20.639Z</time></trkpt><trkpt lat="42.6590618" lon="18.0921113"><ele>86.5</ele><time>2026-05-04T11:59:21.637Z</time></trkpt><trkpt lat="42.6591941" lon="18.0920698"><ele>88.75</ele><time>2026-05-04T11:59:22.638Z</time></trkpt><trkpt lat="42.6593209" lon="18.0920195"><ele>91.0</ele><time>2026-05-04T11:59:23.638Z</time></trkpt><trkpt lat="42.6594535" lon="18.0919508"><ele>94.25</ele><time>2026-05-04T11:59:24.636Z</time></trkpt><trkpt lat="42.6595765" lon="18.0918732"><ele>97.5</ele><time>2026-05-04T11:59:25.636Z</time></trkpt><trkpt lat="42.6596936" lon="18.0917888"><ele>100.75</ele><time>2026-05-04T11:59:26.639Z</time></trkpt><trkpt lat="42.6597996" lon="18.0917063"><ele>104.0</ele><time>2026-05-04T11:59:27.637Z</time></trkpt><trkpt lat="42.6598989" lon="18.0916193"><ele>102.0</ele><time>2026-05-04T11:59:28.635Z</time></trkpt><trkpt lat="42.6599941" lon="18.091521"><ele>100.0</ele><time>2026-05-04T11:59:29.637Z</time></trkpt><trkpt lat="42.6600909" lon="18.091422"><ele>98.0</ele><time>2026-05-04T11:59:30.638Z</time></trkpt><trkpt lat="42.66019" lon="18.0913156"><ele>96.0</ele><time>2026-05-04T11:59:31.638Z</time></trkpt><trkpt lat="42.6602909" lon="18.0912153"><ele>96.0</ele><time>2026-05-04T11:59:32.638Z</time></trkpt><trkpt lat="42.6604075" lon="18.0911238"><ele>96.0</ele><time>2026-05-04T11:59:33.639Z</time></trkpt><trkpt lat="42.6605089" lon="18.0910419"><ele>96.0</ele><time>2026-05-04T11:59:34.638Z</time></trkpt><trkpt lat="42.6606149" lon="18.0909679"><ele>96.0</ele><time>2026-05-04T11:59:35.639Z</time></trkpt><trkpt lat="42.6607182" lon="18.090903"><ele>96.0</ele><time>2026-05-04T11:59:36.638Z</time></trkpt><trkpt lat="42.6608236" lon="18.0908449"><ele>96.0</ele><time>2026-05-04T11:59:37.636Z</time></trkpt><trkpt lat="42.6609332" lon="18.0907892"><ele>96.0</ele><time>2026-05-04T11:59:38.637Z</time></trkpt><trkpt lat="42.6610371" lon="18.0907365"><ele>96.0</ele><time>2026-05-04T11:59:39.634Z</time></trkpt><trkpt lat="42.6611387" lon="18.0906859"><ele>94.75</ele><time>2026-05-04T11:59:40.638Z</time></trkpt><trkpt lat="42.6612513" lon="18.0906262"><ele>93.5</ele><time>2026-05-04T11:59:41.639Z</time></trkpt><trkpt lat="42.6613602" lon="18.0905665"><ele>92.25</ele><time>2026-05-04T11:59:42.636Z</time></trkpt><trkpt lat="42.6614581" lon="18.0905017"><ele>91.0</ele><time>2026-05-04T11:59:43.636Z</time></trkpt><trkpt lat="42.6615514" lon="18.0904269"><ele>91.0</ele><time>2026-05-04T11:59:44.638Z</time></trkpt><trkpt lat="42.6616424" lon="18.0903395"><ele>91.0</ele><time>2026-05-04T11:59:45.638Z</time></trkpt><trkpt lat="42.6617226" lon="18.0902438"><ele>91.0</ele><time>2026-05-04T11:59:46.635Z</time></trkpt><trkpt lat="42.661789" lon="18.0901386"><ele>91.0</ele><time>2026-05-04T11:59:47.634Z</time></trkpt><trkpt lat="42.6618426" lon="18.0900133"><ele>91.0</ele><time>2026-05-04T11:59:48.636Z</time></trkpt><trkpt lat="42.6618771" lon="18.0898813"><ele>89.19999999999999</ele><time>2026-05-04T11:59:49.637Z</time></trkpt><trkpt lat="42.6618991" lon="18.0897481"><ele>87.39999999999999</ele><time>2026-05-04T11:59:50.637Z</time></trkpt><trkpt lat="42.6619112" lon="18.0896302"><ele>85.6</ele><time>2026-05-04T11:59:51.637Z</time></trkpt><trkpt lat="42.6619186" lon="18.0895135"><ele>83.8</ele><time>2026-05-04T11:59:52.64Z</time></trkpt><trkpt lat="42.6619242" lon="18.0893991"><ele>82.0</ele><time>2026-05-04T11:59:53.639Z</time></trkpt><trkpt lat="42.6619379" lon="18.089263"><ele>82.0</ele><time>2026-05-04T11:59:54.635Z</time></trkpt><trkpt lat="42.6619383" lon="18.0891319"><ele>82.0</ele><time>2026-05-04T11:59:55.638Z</time></trkpt><trkpt lat="42.6619387" lon="18.0890053"><ele>82.0</ele><time>2026-05-04T11:59:56.636Z</time></trkpt><trkpt lat="42.6619337" lon="18.0888783"><ele>82.0</ele><time>2026-05-04T11:59:57.638Z</time></trkpt><trkpt lat="42.6619293" lon="18.0887506"><ele>82.0</ele><time>2026-05-04T11:59:58.635Z</time></trkpt><trkpt lat="42.6619277" lon="18.0886202"><ele>80.19999999999999</ele><time>2026-05-04T11:59:59.638Z</time></trkpt><trkpt lat="42.6619258" lon="18.0884813"><ele>78.39999999999999</ele><time>2026-05-04T12:00:00.634Z</time></trkpt><trkpt lat="42.6619283" lon="18.0883399"><ele>76.6</ele><time>2026-05-04T12:00:01.636Z</time></trkpt><trkpt lat="42.6619381" lon="18.0881943"><ele>74.8</ele><time>2026-05-04T12:00:02.636Z</time></trkpt><trkpt lat="42.6619586" lon="18.0880464"><ele>73.0</ele><time>2026-05-04T12:00:03.638Z</time></trkpt><trkpt lat="42.6619898" lon="18.0879032"><ele>71.6</ele><time>2026-05-04T12:00:04.638Z</time></trkpt><trkpt lat="42.6620354" lon="18.0877729"><ele>70.19999999999999</ele><time>2026-05-04T12:00:05.639Z</time></trkpt><trkpt lat="42.6620966" lon="18.087648"><ele>68.8</ele><time>2026-05-04T12:00:06.639Z</time></trkpt><trkpt lat="42.6621651" lon="18.0875331"><ele>67.39999999999999</ele><time>2026-05-04T12:00:07.636Z</time></trkpt><trkpt lat="42.6622423" lon="18.0874281"><ele>66.0</ele><time>2026-05-04T12:00:08.639Z</time></trkpt><trkpt lat="42.6623266" lon="18.0873233"><ele>66.0</ele><time>2026-05-04T12:00:09.639Z</time></trkpt><trkpt lat="42.6624105" lon="18.0872129"><ele>66.0</ele><time>2026-05-04T12:00:10.639Z</time></trkpt><trkpt lat="42.6625044" lon="18.0871041"><ele>66.0</ele><time>2026-05-04T12:00:11.64Z</time></trkpt><trkpt lat="42.6625959" lon="18.0869952"><ele>66.0</ele><time>2026-05-04T12:00:12.638Z</time></trkpt><trkpt lat="42.6626893" lon="18.0868916"><ele>66.0</ele><time>2026-05-04T12:00:13.637Z</time></trkpt><trkpt lat="42.6627763" lon="18.0867817"><ele>66.0</ele><time>2026-05-04T12:00:14.638Z</time></trkpt><trkpt lat="42.6628608" lon="18.0866688"><ele>66.0</ele><time>2026-05-04T12:00:15.636Z</time></trkpt><trkpt lat="42.6629431" lon="18.0865394"><ele>66.0</ele><time>2026-05-04T12:00:16.639Z</time></trkpt><trkpt lat="42.6630215" lon="18.086401"><ele>67.75</ele><time>2026-05-04T12:00:17.638Z</time></trkpt><trkpt lat="42.6630918" lon="18.0862696"><ele>69.5</ele><time>2026-05-04T12:00:18.635Z</time></trkpt><trkpt lat="42.6631618" lon="18.0861353"><ele>71.25</ele><time>2026-05-04T12:00:19.641Z</time></trkpt><trkpt lat="42.6632339" lon="18.086002"><ele>73.0</ele><time>2026-05-04T12:00:20.639Z</time></trkpt><trkpt lat="42.6633071" lon="18.0858756"><ele>71.5</ele><time>2026-05-04T12:00:21.636Z</time></trkpt><trkpt lat="42.6633823" lon="18.0857549"><ele>70.0</ele><time>2026-05-04T12:00:22.638Z</time></trkpt><trkpt lat="42.6634578" lon="18.0856348"><ele>68.5</ele><time>2026-05-04T12:00:23.638Z</time></trkpt><trkpt lat="42.6635414" lon="18.0855169"><ele>67.0</ele><time>2026-05-04T12:00:24.639Z</time></trkpt><trkpt lat="42.6636341" lon="18.085404"><ele>67.0</ele><time>2026-05-04T12:00:25.638Z</time></trkpt><trkpt lat="42.6637315" lon="18.0852886"><ele>67.0</ele><time>2026-05-04T12:00:26.635Z</time></trkpt><trkpt lat="42.6638308" lon="18.0851828"><ele>67.0</ele><time>2026-05-04T12:00:27.639Z</time></trkpt><trkpt lat="42.6639371" lon="18.0850777"><ele>67.0</ele><time>2026-05-04T12:00:28.639Z</time></trkpt><trkpt lat="42.6640438" lon="18.0849767"><ele>68.0</ele><time>2026-05-04T12:00:29.639Z</time></trkpt><trkpt lat="42.6641547" lon="18.0848747"><ele>69.0</ele><time>2026-05-04T12:00:30.637Z</time></trkpt><trkpt lat="42.6642651" lon="18.0847662"><ele>70.0</ele><time>2026-05-04T12:00:31.637Z</time></trkpt><trkpt lat="42.6643766" lon="18.0846513"><ele>71.0</ele><time>2026-05-04T12:00:32.64Z</time></trkpt><trkpt lat="42.6644905" lon="18.0845352"><ele>71.0</ele><time>2026-05-04T12:00:33.637Z</time></trkpt><trkpt lat="42.6646003" lon="18.0844097"><ele>71.0</ele><time>2026-05-04T12:00:34.639Z</time></trkpt><trkpt lat="42.6647028" lon="18.0842718"><ele>71.0</ele><time>2026-05-04T12:00:35.638Z</time></trkpt><trkpt lat="42.6648005" lon="18.0841312"><ele>71.0</ele><time>2026-05-04T12:00:36.636Z</time></trkpt><trkpt lat="42.6648941" lon="18.0839852"><ele>63.66666666666667</ele><time>2026-05-04T12:00:37.637Z</time></trkpt><trkpt lat="42.6649808" lon="18.0838197"><ele>56.33333333333333</ele><time>2026-05-04T12:00:38.637Z</time></trkpt><trkpt lat="42.6650588" lon="18.0836376"><ele>49.0</ele><time>2026-05-04T12:00:39.639Z</time></trkpt><trkpt lat="42.6651388" lon="18.0834603"><ele>49.0</ele><time>2026-05-04T12:00:40.636Z</time></trkpt><trkpt lat="42.6652007" lon="18.0832779"><ele>49.0</ele><time>2026-05-04T12:00:41.64Z</time></trkpt><trkpt lat="42.6652638" lon="18.0830988"><ele>49.0</ele><time>2026-05-04T12:00:42.636Z</time></trkpt><trkpt lat="42.6653193" lon="18.0829232"><ele>49.0</ele><time>2026-05-04T12:00:43.636Z</time></trkpt><trkpt lat="42.6653742" lon="18.0827449"><ele>48.5</ele><time>2026-05-04T12:00:44.638Z</time></trkpt><trkpt lat="42.6654303" lon="18.0825683"><ele>48.0</ele><time>2026-05-04T12:00:45.638Z</time></trkpt><trkpt lat="42.6654964" lon="18.0823959"><ele>47.5</ele><time>2026-05-04T12:00:46.636Z</time></trkpt><trkpt lat="42.6655667" lon="18.0822292"><ele>47.0</ele><time>2026-05-04T12:00:47.638Z</time></trkpt><trkpt lat="42.6656412" lon="18.0820724"><ele>47.0</ele><time>2026-05-04T12:00:48.638Z</time></trkpt><trkpt lat="42.6657213" lon="18.0819236"><ele>47.0</ele><time>2026-05-04T12:00:49.637Z</time></trkpt><trkpt lat="42.6658197" lon="18.0817916"><ele>47.0</ele><time>2026-05-04T12:00:50.638Z</time></trkpt><trkpt lat="42.6659198" lon="18.0816629"><ele>47.0</ele><time>2026-05-04T12:00:51.638Z</time></trkpt><trkpt lat="42.6660213" lon="18.0815536"><ele>39.75</ele><time>2026-05-04T12:00:52.637Z</time></trkpt><trkpt lat="42.6661223" lon="18.0814465"><ele>32.5</ele><time>2026-05-04T12:00:53.639Z</time></trkpt><trkpt lat="42.6662236" lon="18.0813454"><ele>25.25</ele><time>2026-05-04T12:00:54.641Z</time></trkpt><trkpt lat="42.6663223" lon="18.0812428"><ele>18.0</ele><time>2026-05-04T12:00:55.639Z</time></trkpt><trkpt lat="42.6664216" lon="18.0811435"><ele>18.0</ele><time>2026-05-04T12:00:56.636Z</time></trkpt><trkpt lat="42.6665264" lon="18.0810457"><ele>18.0</ele><time>2026-05-04T12:00:57.638Z</time></trkpt><trkpt lat="42.6666345" lon="18.0809419"><ele>18.0</ele><time>2026-05-04T12:00:58.637Z</time></trkpt><trkpt lat="42.6667416" lon="18.0808398"><ele>18.0</ele><time>2026-05-04T12:00:59.636Z</time></trkpt><trkpt lat="42.666849" lon="18.0807429"><ele>13.5</ele><time>2026-05-04T12:01:00.638Z</time></trkpt><trkpt lat="42.6669548" lon="18.0806445"><ele>9.0</ele><time>2026-05-04T12:01:01.638Z</time></trkpt><trkpt lat="42.6670618" lon="18.0805447"><ele>4.5</ele><time>2026-05-04T12:01:02.638Z</time></trkpt><trkpt lat="42.6671822" lon="18.0804342"><ele>0.0</ele><time>2026-05-04T12:01:03.638Z</time></trkpt><trkpt lat="42.6673038" lon="18.0803218"><ele>0.0</ele><time>2026-05-04T12:01:04.637Z</time></trkpt><trkpt lat="42.667429" lon="18.0802125"><ele>0.0</ele><time>2026-05-04T12:01:05.638Z</time></trkpt><trkpt lat="42.6675583" lon="18.0800982"><ele>0.0</ele><time>2026-05-04T12:01:06.639Z</time></trkpt><trkpt lat="42.6676906" lon="18.0799795"><ele>0.0</ele><time>2026-05-04T12:01:07.637Z</time></trkpt><trkpt lat="42.6678248" lon="18.0798567"><ele>0.0</ele><time>2026-05-04T12:01:08.636Z</time></trkpt><trkpt lat="42.6679595" lon="18.0797314"><ele>0.0</ele><time>2026-05-04T12:01:09.637Z</time></trkpt><trkpt lat="42.6680981" lon="18.0796066"><ele>0.0</ele><time>2026-05-04T12:01:10.637Z</time></trkpt><trkpt lat="42.6682336" lon="18.079485"><ele>0.0</ele><time>2026-05-04T12:01:11.638Z</time></trkpt><trkpt lat="42.6683669" lon="18.0793637"><ele>0.0</ele><time>2026-05-04T12:01:12.637Z</time></trkpt><trkpt lat="42.668499" lon="18.0792441"><ele>1.3333333333333333</ele><time>2026-05-04T12:01:13.638Z</time></trkpt><trkpt lat="42.6686289" lon="18.0791254"><ele>2.6666666666666665</ele><time>2026-05-04T12:01:14.637Z</time></trkpt><trkpt lat="42.66876" lon="18.0790067"><ele>4.0</ele><time>2026-05-04T12:01:15.639Z</time></trkpt><trkpt lat="42.6688927" lon="18.0788856"><ele>4.666666666666666</ele><time>2026-05-04T12:01:16.638Z</time></trkpt><trkpt lat="42.6690258" lon="18.0787618"><ele>5.333333333333333</ele><time>2026-05-04T12:01:17.637Z</time></trkpt><trkpt lat="42.6691593" lon="18.0786368"><ele>6.0</ele><time>2026-05-04T12:01:18.638Z</time></trkpt><trkpt lat="42.6692881" lon="18.0785124"><ele>6.0</ele><time>2026-05-04T12:01:19.641Z</time></trkpt><trkpt lat="42.6694114" lon="18.0783917"><ele>6.0</ele><time>2026-05-04T12:01:20.637Z</time></trkpt><trkpt lat="42.6695279" lon="18.0782715"><ele>6.0</ele><time>2026-05-04T12:01:21.64Z</time></trkpt><trkpt lat="42.6696367" lon="18.0781446"><ele>6.0</ele><time>2026-05-04T12:01:22.639Z</time></trkpt><trkpt lat="42.6697322" lon="18.0780076"><ele>17.5</ele><time>2026-05-04T12:01:23.639Z</time></trkpt><trkpt lat="42.6698177" lon="18.0778604"><ele>29.0</ele><time>2026-05-04T12:01:24.641Z</time></trkpt><trkpt lat="42.6698976" lon="18.0777065"><ele>40.5</ele><time>2026-05-04T12:01:25.638Z</time></trkpt><trkpt lat="42.6699699" lon="18.0775451"><ele>52.0</ele><time>2026-05-04T12:01:26.637Z</time></trkpt><trkpt lat="42.6700315" lon="18.0773818"><ele>52.0</ele><time>2026-05-04T12:01:27.636Z</time></trkpt><trkpt lat="42.6700846" lon="18.0772086"><ele>52.0</ele><time>2026-05-04T12:01:28.637Z</time></trkpt><trkpt lat="42.6701303" lon="18.0770245"><ele>52.0</ele><time>2026-05-04T12:01:29.636Z</time></trkpt><trkpt lat="42.6701614" lon="18.0768324"><ele>52.0</ele><time>2026-05-04T12:01:30.639Z</time></trkpt><trkpt lat="42.6701813" lon="18.0766354"><ele>49.75</ele><time>2026-05-04T12:01:31.638Z</time></trkpt><trkpt lat="42.6701889" lon="18.0764338"><ele>47.5</ele><time>2026-05-04T12:01:32.637Z</time></trkpt><trkpt lat="42.6701867" lon="18.0762356"><ele>45.25</ele><time>2026-05-04T12:01:33.639Z</time></trkpt><trkpt lat="42.6701768" lon="18.0760365"><ele>43.0</ele><time>2026-05-04T12:01:34.636Z</time></trkpt><trkpt lat="42.6701599" lon="18.0758212"><ele>43.75</ele><time>2026-05-04T12:01:35.64Z</time></trkpt><trkpt lat="42.6701349" lon="18.0756299"><ele>44.5</ele><time>2026-05-04T12:01:36.638Z</time></trkpt><trkpt lat="42.6701118" lon="18.0754384"><ele>45.25</ele><time>2026-05-04T12:01:37.639Z</time></trkpt><trkpt lat="42.6700812" lon="18.075252"><ele>46.0</ele><time>2026-05-04T12:01:38.638Z</time></trkpt><trkpt lat="42.6700487" lon="18.0750654"><ele>49.5</ele><time>2026-05-04T12:01:39.639Z</time></trkpt><trkpt lat="42.6700139" lon="18.0748749"><ele>53.0</ele><time>2026-05-04T12:01:40.639Z</time></trkpt><trkpt lat="42.6699787" lon="18.0746813"><ele>56.5</ele><time>2026-05-04T12:01:41.638Z</time></trkpt><trkpt lat="42.6699479" lon="18.0744862"><ele>60.0</ele><time>2026-05-04T12:01:42.638Z</time></trkpt><trkpt lat="42.669918" lon="18.0742893"><ele>60.5</ele><time>2026-05-04T12:01:43.637Z</time></trkpt><trkpt lat="42.6698905" lon="18.0740921"><ele>61.0</ele><time>2026-05-04T12:01:44.639Z</time></trkpt><trkpt lat="42.6698732" lon="18.0738953"><ele>61.5</ele><time>2026-05-04T12:01:45.635Z</time></trkpt><trkpt lat="42.6698722" lon="18.0736951"><ele>62.0</ele><time>2026-05-04T12:01:46.634Z</time></trkpt><trkpt lat="42.6698773" lon="18.0735016"><ele>62.0</ele><time>2026-05-04T12:01:47.637Z</time></trkpt><trkpt lat="42.6698918" lon="18.0733124"><ele>62.0</ele><time>2026-05-04T12:01:48.637Z</time></trkpt><trkpt lat="42.6699232" lon="18.0730994"><ele>62.0</ele><time>2026-05-04T12:01:49.636Z</time></trkpt><trkpt lat="42.6699591" lon="18.0729046"><ele>62.0</ele><time>2026-05-04T12:01:50.639Z</time></trkpt><trkpt lat="42.6700081" lon="18.072715"><ele>57.333333333333336</ele><time>2026-05-04T12:01:51.637Z</time></trkpt><trkpt lat="42.6700657" lon="18.0725244"><ele>52.66666666666667</ele><time>2026-05-04T12:01:52.641Z</time></trkpt><trkpt lat="42.6701337" lon="18.0723408"><ele>48.0</ele><time>2026-05-04T12:01:53.636Z</time></trkpt><trkpt lat="42.6702084" lon="18.072153"><ele>47.666666666666664</ele><time>2026-05-04T12:01:54.639Z</time></trkpt><trkpt lat="42.6702847" lon="18.0719633"><ele>47.33333333333333</ele><time>2026-05-04T12:01:55.638Z</time></trkpt><trkpt lat="42.6703686" lon="18.0717583"><ele>47.0</ele><time>2026-05-04T12:01:56.637Z</time></trkpt><trkpt lat="42.6704489" lon="18.0715627"><ele>47.0</ele><time>2026-05-04T12:01:57.635Z</time></trkpt><trkpt lat="42.670538" lon="18.071371"><ele>47.0</ele><time>2026-05-04T12:01:58.638Z</time></trkpt><trkpt lat="42.6706328" lon="18.0711765"><ele>47.0</ele><time>2026-05-04T12:01:59.636Z</time></trkpt><trkpt lat="42.6707353" lon="18.0709952"><ele>47.0</ele><time>2026-05-04T12:02:00.636Z</time></trkpt><trkpt lat="42.670849" lon="18.0708283"><ele>47.0</ele><time>2026-05-04T12:02:01.637Z</time></trkpt><trkpt lat="42.6709723" lon="18.0706812"><ele>47.0</ele><time>2026-05-04T12:02:02.636Z</time></trkpt><trkpt lat="42.6710969" lon="18.070554"><ele>45.33333333333333</ele><time>2026-05-04T12:02:03.64Z</time></trkpt><trkpt lat="42.6712329" lon="18.0704377"><ele>43.666666666666664</ele><time>2026-05-04T12:02:04.637Z</time></trkpt><trkpt lat="42.671371" lon="18.0703489"><ele>42.0</ele><time>2026-05-04T12:02:05.639Z</time></trkpt><trkpt lat="42.6715258" lon="18.0702678"><ele>42.0</ele><time>2026-05-04T12:02:06.638Z</time></trkpt><trkpt lat="42.6716694" lon="18.0702087"><ele>42.0</ele><time>2026-05-04T12:02:07.636Z</time></trkpt><trkpt lat="42.6718122" lon="18.0701635"><ele>42.0</ele><time>2026-05-04T12:02:08.635Z</time></trkpt><trkpt lat="42.6719534" lon="18.0701338"><ele>42.0</ele><time>2026-05-04T12:02:09.633Z</time></trkpt><trkpt lat="42.6720973" lon="18.0701078"><ele>44.33333333333333</ele><time>2026-05-04T12:02:10.636Z</time></trkpt><trkpt lat="42.6722384" lon="18.0700856"><ele>46.666666666666664</ele><time>2026-05-04T12:02:11.638Z</time></trkpt><trkpt lat="42.672408" lon="18.0700537"><ele>49.0</ele><time>2026-05-04T12:02:12.636Z</time></trkpt><trkpt lat="42.672569" lon="18.0700198"><ele>49.0</ele><time>2026-05-04T12:02:13.637Z</time></trkpt><trkpt lat="42.6727309" lon="18.0699833"><ele>49.0</ele><time>2026-05-04T12:02:14.638Z</time></trkpt><trkpt lat="42.6728906" lon="18.0699412"><ele>49.0</ele><time>2026-05-04T12:02:15.637Z</time></trkpt><trkpt lat="42.6730505" lon="18.0698844"><ele>44.33333333333333</ele><time>2026-05-04T12:02:16.634Z</time></trkpt><trkpt lat="42.6731987" lon="18.0698089"><ele>39.666666666666664</ele><time>2026-05-04T12:02:17.638Z</time></trkpt><trkpt lat="42.6733428" lon="18.069699"><ele>35.0</ele><time>2026-05-04T12:02:18.636Z</time></trkpt><trkpt lat="42.6734762" lon="18.0695627"><ele>35.0</ele><time>2026-05-04T12:02:19.634Z</time></trkpt><trkpt lat="42.6735898" lon="18.069402"><ele>35.0</ele><time>2026-05-04T12:02:20.634Z</time></trkpt><trkpt lat="42.6736847" lon="18.0692106"><ele>35.0</ele><time>2026-05-04T12:02:21.637Z</time></trkpt><trkpt lat="42.673753" lon="18.0689962"><ele>44.0</ele><time>2026-05-04T12:02:22.638Z</time></trkpt><trkpt lat="42.6738048" lon="18.0687586"><ele>53.0</ele><time>2026-05-04T12:02:23.64Z</time></trkpt><trkpt lat="42.6738366" lon="18.06851"><ele>62.0</ele><time>2026-05-04T12:02:24.638Z</time></trkpt><trkpt lat="42.6738429" lon="18.0682584"><ele>62.0</ele><time>2026-05-04T12:02:25.638Z</time></trkpt><trkpt lat="42.6738389" lon="18.0680107"><ele>62.0</ele><time>2026-05-04T12:02:26.636Z</time></trkpt><trkpt lat="42.6738299" lon="18.0677636"><ele>62.0</ele><time>2026-05-04T12:02:27.638Z</time></trkpt><trkpt lat="42.6738255" lon="18.067526"><ele>60.66666666666667</ele><time>2026-05-04T12:02:28.635Z</time></trkpt><trkpt lat="42.6738254" lon="18.0673003"><ele>59.33333333333333</ele><time>2026-05-04T12:02:29.637Z</time></trkpt><trkpt lat="42.6738273" lon="18.0670885"><ele>58.0</ele><time>2026-05-04T12:02:30.638Z</time></trkpt><trkpt lat="42.6738497" lon="18.0668816"><ele>58.0</ele><time>2026-05-04T12:02:31.639Z</time></trkpt><trkpt lat="42.6738941" lon="18.066679"><ele>58.0</ele><time>2026-05-04T12:02:32.641Z</time></trkpt><trkpt lat="42.6739451" lon="18.0664681"><ele>58.0</ele><time>2026-05-04T12:02:33.636Z</time></trkpt><trkpt lat="42.6740134" lon="18.0662564"><ele>52.33333333333333</ele><time>2026-05-04T12:02:34.638Z</time></trkpt><trkpt lat="42.6740937" lon="18.0660563"><ele>46.666666666666664</ele><time>2026-05-04T12:02:35.638Z</time></trkpt><trkpt lat="42.6741822" lon="18.0658576"><ele>41.0</ele><time>2026-05-04T12:02:36.637Z</time></trkpt><trkpt lat="42.6743007" lon="18.0656834"><ele>44.33333333333333</ele><time>2026-05-04T12:02:37.637Z</time></trkpt><trkpt lat="42.6744216" lon="18.0655042"><ele>47.666666666666664</ele><time>2026-05-04T12:02:38.636Z</time></trkpt><trkpt lat="42.6745488" lon="18.0653274"><ele>51.0</ele><time>2026-05-04T12:02:39.636Z</time></trkpt><trkpt lat="42.6746959" lon="18.0651526"><ele>51.0</ele><time>2026-05-04T12:02:40.639Z</time></trkpt><trkpt lat="42.6748327" lon="18.0649818"><ele>51.0</ele><time>2026-05-04T12:02:41.636Z</time></trkpt><trkpt lat="42.6749581" lon="18.0648029"><ele>51.0</ele><time>2026-05-04T12:02:42.638Z</time></trkpt><trkpt lat="42.675081" lon="18.0646252"><ele>50.66666666666667</ele><time>2026-05-04T12:02:43.637Z</time></trkpt><trkpt lat="42.6751936" lon="18.0644481"><ele>50.333333333333336</ele><time>2026-05-04T12:02:44.637Z</time></trkpt><trkpt lat="42.6752999" lon="18.0642673"><ele>50.0</ele><time>2026-05-04T12:02:45.637Z</time></trkpt><trkpt lat="42.6753951" lon="18.0640862"><ele>50.0</ele><time>2026-05-04T12:02:46.635Z</time></trkpt><trkpt lat="42.6754864" lon="18.0638931"><ele>50.0</ele><time>2026-05-04T12:02:47.636Z</time></trkpt><trkpt lat="42.675569" lon="18.0637052"><ele>50.0</ele><time>2026-05-04T12:02:48.636Z</time></trkpt><trkpt lat="42.675641" lon="18.0635231"><ele>50.0</ele><time>2026-05-04T12:02:49.638Z</time></trkpt><trkpt lat="42.6756982" lon="18.0633475"><ele>50.0</ele><time>2026-05-04T12:02:50.639Z</time></trkpt><trkpt lat="42.6757451" lon="18.0631927"><ele>50.0</ele><time>2026-05-04T12:02:51.638Z</time></trkpt><trkpt lat="42.6757822" lon="18.0630707"><ele>50.0</ele><time>2026-05-04T12:02:52.639Z</time></trkpt><trkpt lat="42.6758155" lon="18.0629623"><ele>50.0</ele><time>2026-05-04T12:02:53.638Z</time></trkpt><trkpt lat="42.6758387" lon="18.062882"><ele>46.16666666666667</ele><time>2026-05-04T12:02:54.639Z</time></trkpt><trkpt lat="42.6758842" lon="18.0627522"><ele>42.333333333333336</ele><time>2026-05-04T12:02:56.638Z</time></trkpt><trkpt lat="42.6759145" lon="18.0626125"><ele>38.5</ele><time>2026-05-04T12:02:58.638Z</time></trkpt><trkpt lat="42.6759355" lon="18.0625312"><ele>34.66666666666667</ele><time>2026-05-04T12:02:59.637Z</time></trkpt><trkpt lat="42.6759638" lon="18.0624319"><ele>30.833333333333336</ele><time>2026-05-04T12:03:00.64Z</time></trkpt><trkpt lat="42.6759954" lon="18.0623194"><ele>27.0</ele><time>2026-05-04T12:03:01.638Z</time></trkpt><trkpt lat="42.67604" lon="18.0622006"><ele>28.400000000000002</ele><time>2026-05-04T12:03:02.635Z</time></trkpt><trkpt lat="42.6760748" lon="18.0620815"><ele>29.800000000000004</ele><time>2026-05-04T12:03:03.636Z</time></trkpt><trkpt lat="42.6761134" lon="18.0619549"><ele>31.2</ele><time>2026-05-04T12:03:04.636Z</time></trkpt><trkpt lat="42.6761626" lon="18.0618286"><ele>32.6</ele><time>2026-05-04T12:03:05.636Z</time></trkpt><trkpt lat="42.6762225" lon="18.0616892"><ele>34.0</ele><time>2026-05-04T12:03:06.637Z</time></trkpt><trkpt lat="42.6762892" lon="18.061543"><ele>34.0</ele><time>2026-05-04T12:03:07.636Z</time></trkpt><trkpt lat="42.6763649" lon="18.0613862"><ele>34.0</ele><time>2026-05-04T12:03:08.638Z</time></trkpt><trkpt lat="42.6764476" lon="18.0612303"><ele>34.0</ele><time>2026-05-04T12:03:09.636Z</time></trkpt><trkpt lat="42.6765328" lon="18.0610654"><ele>34.0</ele><time>2026-05-04T12:03:10.638Z</time></trkpt><trkpt lat="42.6766201" lon="18.0608986"><ele>28.666666666666668</ele><time>2026-05-04T12:03:11.638Z</time></trkpt><trkpt lat="42.6767154" lon="18.0607247"><ele>23.333333333333336</ele><time>2026-05-04T12:03:12.638Z</time></trkpt><trkpt lat="42.6768002" lon="18.0605497"><ele>18.0</ele><time>2026-05-04T12:03:13.637Z</time></trkpt><trkpt lat="42.6768916" lon="18.0603652"><ele>25.666666666666664</ele><time>2026-05-04T12:03:14.637Z</time></trkpt><trkpt lat="42.676992" lon="18.0601723"><ele>33.33333333333333</ele><time>2026-05-04T12:03:15.638Z</time></trkpt><trkpt lat="42.6770847" lon="18.0599736"><ele>41.0</ele><time>2026-05-04T12:03:16.638Z</time></trkpt><trkpt lat="42.6771744" lon="18.0597745"><ele>41.0</ele><time>2026-05-04T12:03:17.635Z</time></trkpt><trkpt lat="42.6772581" lon="18.0595688"><ele>41.0</ele><time>2026-05-04T12:03:18.639Z</time></trkpt><trkpt lat="42.6773392" lon="18.0593556"><ele>41.0</ele><time>2026-05-04T12:03:19.637Z</time></trkpt><trkpt lat="42.6774198" lon="18.0591401"><ele>36.33333333333333</ele><time>2026-05-04T12:03:20.637Z</time></trkpt><trkpt lat="42.6775004" lon="18.0589277"><ele>31.666666666666664</ele><time>2026-05-04T12:03:21.636Z</time></trkpt><trkpt lat="42.6775845" lon="18.0587195"><ele>27.0</ele><time>2026-05-04T12:03:22.638Z</time></trkpt><trkpt lat="42.6776677" lon="18.0585119"><ele>27.0</ele><time>2026-05-04T12:03:23.637Z</time></trkpt><trkpt lat="42.6777506" lon="18.0583047"><ele>27.0</ele><time>2026-05-04T12:03:24.636Z</time></trkpt><trkpt lat="42.6778326" lon="18.0580905"><ele>27.0</ele><time>2026-05-04T12:03:25.637Z</time></trkpt><trkpt lat="42.6779163" lon="18.0578912"><ele>29.0</ele><time>2026-05-04T12:03:26.637Z</time></trkpt><trkpt lat="42.6780033" lon="18.0576935"><ele>31.0</ele><time>2026-05-04T12:03:27.637Z</time></trkpt><trkpt lat="42.6780869" lon="18.0575026"><ele>33.0</ele><time>2026-05-04T12:03:28.639Z</time></trkpt><trkpt lat="42.6781728" lon="18.057312"><ele>33.0</ele><time>2026-05-04T12:03:29.636Z</time></trkpt><trkpt lat="42.6782577" lon="18.0571286"><ele>33.0</ele><time>2026-05-04T12:03:30.637Z</time></trkpt><trkpt lat="42.6783406" lon="18.0569494"><ele>33.0</ele><time>2026-05-04T12:03:31.638Z</time></trkpt><trkpt lat="42.6784277" lon="18.0567896"><ele>33.0</ele><time>2026-05-04T12:03:32.638Z</time></trkpt><trkpt lat="42.6785195" lon="18.0566482"><ele>33.0</ele><time>2026-05-04T12:03:33.637Z</time></trkpt><trkpt lat="42.6786229" lon="18.0565348"><ele>33.0</ele><time>2026-05-04T12:03:34.637Z</time></trkpt><trkpt lat="42.6787388" lon="18.0564673"><ele>33.0</ele><time>2026-05-04T12:03:35.636Z</time></trkpt><trkpt lat="42.6788633" lon="18.0564266"><ele>35.75</ele><time>2026-05-04T12:03:36.638Z</time></trkpt><trkpt lat="42.6789844" lon="18.0564228"><ele>38.5</ele><time>2026-05-04T12:03:37.636Z</time></trkpt><trkpt lat="42.6791175" lon="18.0564578"><ele>41.25</ele><time>2026-05-04T12:03:38.638Z</time></trkpt><trkpt lat="42.6792379" lon="18.056532"><ele>44.0</ele><time>2026-05-04T12:03:39.637Z</time></trkpt><trkpt lat="42.6793484" lon="18.0566276"><ele>36.5</ele><time>2026-05-04T12:03:40.638Z</time></trkpt><trkpt lat="42.6794347" lon="18.0567828"><ele>29.0</ele><time>2026-05-04T12:03:41.637Z</time></trkpt><trkpt lat="42.6795097" lon="18.0569575"><ele>21.5</ele><time>2026-05-04T12:03:42.636Z</time></trkpt><trkpt lat="42.6795715" lon="18.0571443"><ele>14.0</ele><time>2026-05-04T12:03:43.638Z</time></trkpt><trkpt lat="42.6796301" lon="18.0573504"><ele>20.333333333333336</ele><time>2026-05-04T12:03:44.636Z</time></trkpt><trkpt lat="42.6796838" lon="18.0575588"><ele>26.666666666666668</ele><time>2026-05-04T12:03:45.638Z</time></trkpt><trkpt lat="42.679744" lon="18.0577647"><ele>33.0</ele><time>2026-05-04T12:03:46.637Z</time></trkpt><trkpt lat="42.6797969" lon="18.0579518"><ele>33.0</ele><time>2026-05-04T12:03:47.636Z</time></trkpt><trkpt lat="42.6798748" lon="18.058111"><ele>33.0</ele><time>2026-05-04T12:03:48.635Z</time></trkpt><trkpt lat="42.6799559" lon="18.058276"><ele>33.0</ele><time>2026-05-04T12:03:49.637Z</time></trkpt><trkpt lat="42.6800477" lon="18.05841"><ele>33.0</ele><time>2026-05-04T12:03:50.634Z</time></trkpt><trkpt lat="42.6801383" lon="18.0585247"><ele>36.75</ele><time>2026-05-04T12:03:51.635Z</time></trkpt><trkpt lat="42.6802454" lon="18.0586176"><ele>40.5</ele><time>2026-05-04T12:03:52.638Z</time></trkpt><trkpt lat="42.6803502" lon="18.0586832"><ele>44.25</ele><time>2026-05-04T12:03:53.637Z</time></trkpt><trkpt lat="42.6804627" lon="18.0587155"><ele>48.0</ele><time>2026-05-04T12:03:54.639Z</time></trkpt><trkpt lat="42.680575" lon="18.0586894"><ele>48.0</ele><time>2026-05-04T12:03:55.636Z</time></trkpt><trkpt lat="42.6806835" lon="18.0586264"><ele>48.0</ele><time>2026-05-04T12:03:56.638Z</time></trkpt><trkpt lat="42.6807831" lon="18.0585415"><ele>48.0</ele><time>2026-05-04T12:03:57.638Z</time></trkpt><trkpt lat="42.6808619" lon="18.0584156"><ele>48.0</ele><time>2026-05-04T12:03:58.639Z</time></trkpt><trkpt lat="42.6809276" lon="18.0582639"><ele>44.0</ele><time>2026-05-04T12:03:59.638Z</time></trkpt><trkpt lat="42.6809913" lon="18.0580746"><ele>40.0</ele><time>2026-05-04T12:04:00.637Z</time></trkpt><trkpt lat="42.681053" lon="18.0578823"><ele>36.0</ele><time>2026-05-04T12:04:01.637Z</time></trkpt><trkpt lat="42.6811221" lon="18.0576799"><ele>45.0</ele><time>2026-05-04T12:04:02.637Z</time></trkpt><trkpt lat="42.6811926" lon="18.0574749"><ele>54.0</ele><time>2026-05-04T12:04:03.636Z</time></trkpt><trkpt lat="42.6812662" lon="18.0572643"><ele>63.0</ele><time>2026-05-04T12:04:04.638Z</time></trkpt><trkpt lat="42.6813529" lon="18.0570393"><ele>63.0</ele><time>2026-05-04T12:04:05.638Z</time></trkpt><trkpt lat="42.6814283" lon="18.056829"><ele>63.0</ele><time>2026-05-04T12:04:06.636Z</time></trkpt><trkpt lat="42.6815" lon="18.056616"><ele>63.0</ele><time>2026-05-04T12:04:07.635Z</time></trkpt><trkpt lat="42.6815715" lon="18.0564099"><ele>58.0</ele><time>2026-05-04T12:04:08.634Z</time></trkpt><trkpt lat="42.6816508" lon="18.0562122"><ele>53.0</ele><time>2026-05-04T12:04:09.637Z</time></trkpt><trkpt lat="42.6817313" lon="18.0560199"><ele>48.0</ele><time>2026-05-04T12:04:10.637Z</time></trkpt><trkpt lat="42.6818083" lon="18.055832"><ele>51.66666666666667</ele><time>2026-05-04T12:04:11.636Z</time></trkpt><trkpt lat="42.6818968" lon="18.0556498"><ele>55.333333333333336</ele><time>2026-05-04T12:04:12.636Z</time></trkpt><trkpt lat="42.6819948" lon="18.0554776"><ele>59.0</ele><time>2026-05-04T12:04:13.636Z</time></trkpt><trkpt lat="42.6821029" lon="18.0553116"><ele>59.0</ele><time>2026-05-04T12:04:14.635Z</time></trkpt><trkpt lat="42.682217" lon="18.0551562"><ele>59.0</ele><time>2026-05-04T12:04:15.635Z</time></trkpt><trkpt lat="42.6823402" lon="18.0550061"><ele>59.0</ele><time>2026-05-04T12:04:16.637Z</time></trkpt><trkpt lat="42.6824674" lon="18.0548583"><ele>61.333333333333336</ele><time>2026-05-04T12:04:17.637Z</time></trkpt><trkpt lat="42.6825951" lon="18.054714"><ele>63.66666666666667</ele><time>2026-05-04T12:04:18.638Z</time></trkpt><trkpt lat="42.682718" lon="18.0545846"><ele>66.0</ele><time>2026-05-04T12:04:19.638Z</time></trkpt><trkpt lat="42.6828407" lon="18.0544557"><ele>66.0</ele><time>2026-05-04T12:04:20.638Z</time></trkpt><trkpt lat="42.6829643" lon="18.054326"><ele>66.0</ele><time>2026-05-04T12:04:21.638Z</time></trkpt><trkpt lat="42.6830906" lon="18.0541931"><ele>66.0</ele><time>2026-05-04T12:04:22.637Z</time></trkpt><trkpt lat="42.6832193" lon="18.0540566"><ele>56.0</ele><time>2026-05-04T12:04:23.637Z</time></trkpt><trkpt lat="42.6833479" lon="18.0539178"><ele>46.0</ele><time>2026-05-04T12:04:24.637Z</time></trkpt><trkpt lat="42.6834739" lon="18.0537749"><ele>36.0</ele><time>2026-05-04T12:04:25.637Z</time></trkpt><trkpt lat="42.6835957" lon="18.0536272"><ele>44.66666666666667</ele><time>2026-05-04T12:04:26.638Z</time></trkpt><trkpt lat="42.6837006" lon="18.053467"><ele>53.333333333333336</ele><time>2026-05-04T12:04:27.636Z</time></trkpt><trkpt lat="42.6837884" lon="18.053284"><ele>62.0</ele><time>2026-05-04T12:04:28.639Z</time></trkpt><trkpt lat="42.6838559" lon="18.0531055"><ele>62.0</ele><time>2026-05-04T12:04:29.636Z</time></trkpt><trkpt lat="42.6839043" lon="18.0529076"><ele>62.0</ele><time>2026-05-04T12:04:30.636Z</time></trkpt><trkpt lat="42.6839386" lon="18.0527223"><ele>62.0</ele><time>2026-05-04T12:04:31.637Z</time></trkpt><trkpt lat="42.6839786" lon="18.0525317"><ele>62.0</ele><time>2026-05-04T12:04:32.637Z</time></trkpt><trkpt lat="42.6840274" lon="18.0523412"><ele>64.5</ele><time>2026-05-04T12:04:33.635Z</time></trkpt><trkpt lat="42.6840958" lon="18.0521767"><ele>67.0</ele><time>2026-05-04T12:04:34.636Z</time></trkpt><trkpt lat="42.6842019" lon="18.0520243"><ele>69.5</ele><time>2026-05-04T12:04:35.637Z</time></trkpt><trkpt lat="42.6843153" lon="18.0518821"><ele>72.0</ele><time>2026-05-04T12:04:36.636Z</time></trkpt><trkpt lat="42.6844345" lon="18.0517375"><ele>60.666666666666664</ele><time>2026-05-04T12:04:37.635Z</time></trkpt><trkpt lat="42.6845541" lon="18.0515914"><ele>49.33333333333333</ele><time>2026-05-04T12:04:38.633Z</time></trkpt><trkpt lat="42.6846774" lon="18.0514663"><ele>38.0</ele><time>2026-05-04T12:04:39.637Z</time></trkpt><trkpt lat="42.6848054" lon="18.0513533"><ele>38.0</ele><time>2026-05-04T12:04:40.638Z</time></trkpt><trkpt lat="42.6849328" lon="18.0512545"><ele>38.0</ele><time>2026-05-04T12:04:41.635Z</time></trkpt><trkpt lat="42.6850703" lon="18.051212"><ele>38.0</ele><time>2026-05-04T12:04:42.637Z</time></trkpt><trkpt lat="42.6852167" lon="18.05118"><ele>38.0</ele><time>2026-05-04T12:04:43.641Z</time></trkpt><trkpt lat="42.685362" lon="18.0511963"><ele>39.666666666666664</ele><time>2026-05-04T12:04:44.64Z</time></trkpt><trkpt lat="42.68552" lon="18.0512221"><ele>41.333333333333336</ele><time>2026-05-04T12:04:45.637Z</time></trkpt><trkpt lat="42.685689" lon="18.0512757"><ele>43.0</ele><time>2026-05-04T12:04:46.635Z</time></trkpt><trkpt lat="42.6858451" lon="18.0513194"><ele>43.0</ele><time>2026-05-04T12:04:47.64Z</time></trkpt><trkpt lat="42.6859977" lon="18.051365"><ele>43.0</ele><time>2026-05-04T12:04:48.638Z</time></trkpt><trkpt lat="42.6861482" lon="18.0514025"><ele>43.0</ele><time>2026-05-04T12:04:49.636Z</time></trkpt><trkpt lat="42.6863004" lon="18.0514459"><ele>41.5</ele><time>2026-05-04T12:04:50.638Z</time></trkpt><trkpt lat="42.6864427" lon="18.0514949"><ele>40.0</ele><time>2026-05-04T12:04:51.637Z</time></trkpt><trkpt lat="42.6865787" lon="18.0515579"><ele>38.5</ele><time>2026-05-04T12:04:52.639Z</time></trkpt><trkpt lat="42.6867075" lon="18.051634"><ele>37.0</ele><time>2026-05-04T12:04:53.638Z</time></trkpt><trkpt lat="42.6868244" lon="18.0517319"><ele>35.75</ele><time>2026-05-04T12:04:54.637Z</time></trkpt><trkpt lat="42.6869342" lon="18.0518588"><ele>34.5</ele><time>2026-05-04T12:04:55.638Z</time></trkpt><trkpt lat="42.6870364" lon="18.0519977"><ele>33.25</ele><time>2026-05-04T12:04:56.637Z</time></trkpt><trkpt lat="42.6871218" lon="18.0521614"><ele>32.0</ele><time>2026-05-04T12:04:57.636Z</time></trkpt><trkpt lat="42.6871959" lon="18.0523286"><ele>34.25</ele><time>2026-05-04T12:04:58.637Z</time></trkpt><trkpt lat="42.6872668" lon="18.0525061"><ele>36.5</ele><time>2026-05-04T12:04:59.636Z</time></trkpt><trkpt lat="42.6873296" lon="18.052676"><ele>38.75</ele><time>2026-05-04T12:05:00.638Z</time></trkpt><trkpt lat="42.6873946" lon="18.0528412"><ele>41.0</ele><time>2026-05-04T12:05:01.638Z</time></trkpt><trkpt lat="42.687465" lon="18.0529997"><ele>41.0</ele><time>2026-05-04T12:05:02.635Z</time></trkpt><trkpt lat="42.687545" lon="18.0531347"><ele>41.0</ele><time>2026-05-04T12:05:03.636Z</time></trkpt><trkpt lat="42.6876435" lon="18.0532423"><ele>41.0</ele><time>2026-05-04T12:05:04.637Z</time></trkpt><trkpt lat="42.68775" lon="18.0533191"><ele>41.0</ele><time>2026-05-04T12:05:05.635Z</time></trkpt><trkpt lat="42.6878559" lon="18.0533574"><ele>42.25</ele><time>2026-05-04T12:05:06.636Z</time></trkpt><trkpt lat="42.6879756" lon="18.0533617"><ele>43.5</ele><time>2026-05-04T12:05:07.636Z</time></trkpt><trkpt lat="42.6880933" lon="18.0532986"><ele>44.75</ele><time>2026-05-04T12:05:08.641Z</time></trkpt><trkpt lat="42.6881968" lon="18.0532286"><ele>46.0</ele><time>2026-05-04T12:05:09.636Z</time></trkpt><trkpt lat="42.6882926" lon="18.0531369"><ele>46.0</ele><time>2026-05-04T12:05:10.635Z</time></trkpt><trkpt lat="42.6883732" lon="18.0530325"><ele>46.0</ele><time>2026-05-04T12:05:11.638Z</time></trkpt><trkpt lat="42.6884494" lon="18.0528639"><ele>46.0</ele><time>2026-05-04T12:05:12.636Z</time></trkpt><trkpt lat="42.6884683" lon="18.0526759"><ele>46.0</ele><time>2026-05-04T12:05:13.639Z</time></trkpt><trkpt lat="42.6884608" lon="18.0524969"><ele>45.25</ele><time>2026-05-04T12:05:14.638Z</time></trkpt><trkpt lat="42.6884228" lon="18.0523275"><ele>44.5</ele><time>2026-05-04T12:05:15.636Z</time></trkpt><trkpt lat="42.688376" lon="18.0521605"><ele>43.75</ele><time>2026-05-04T12:05:16.64Z</time></trkpt><trkpt lat="42.6883194" lon="18.0519903"><ele>43.0</ele><time>2026-05-04T12:05:17.635Z</time></trkpt><trkpt lat="42.6882653" lon="18.0518385"><ele>43.0</ele><time>2026-05-04T12:05:18.638Z</time></trkpt><trkpt lat="42.6882148" lon="18.0516766"><ele>43.0</ele><time>2026-05-04T12:05:19.636Z</time></trkpt><trkpt lat="42.6881806" lon="18.0515214"><ele>43.0</ele><time>2026-05-04T12:05:20.639Z</time></trkpt><trkpt lat="42.6881838" lon="18.0513633"><ele>43.0</ele><time>2026-05-04T12:05:21.636Z</time></trkpt><trkpt lat="42.6882138" lon="18.0512007"><ele>39.75</ele><time>2026-05-04T12:05:22.636Z</time></trkpt><trkpt lat="42.6882704" lon="18.0510476"><ele>36.5</ele><time>2026-05-04T12:05:23.636Z</time></trkpt><trkpt lat="42.6883526" lon="18.0508984"><ele>33.25</ele><time>2026-05-04T12:05:24.635Z</time></trkpt><trkpt lat="42.6884552" lon="18.0507381"><ele>30.0</ele><time>2026-05-04T12:05:25.637Z</time></trkpt><trkpt lat="42.6885644" lon="18.0505742"><ele>29.333333333333336</ele><time>2026-05-04T12:05:26.636Z</time></trkpt><trkpt lat="42.6886724" lon="18.0504183"><ele>28.666666666666668</ele><time>2026-05-04T12:05:27.636Z</time></trkpt><trkpt lat="42.6887936" lon="18.0502535"><ele>28.0</ele><time>2026-05-04T12:05:28.637Z</time></trkpt><trkpt lat="42.6889081" lon="18.0501051"><ele>18.666666666666668</ele><time>2026-05-04T12:05:29.637Z</time></trkpt><trkpt lat="42.6890271" lon="18.0499545"><ele>9.333333333333334</ele><time>2026-05-04T12:05:30.637Z</time></trkpt><trkpt lat="42.6891493" lon="18.0498105"><ele>0.0</ele><time>2026-05-04T12:05:31.637Z</time></trkpt><trkpt lat="42.6892808" lon="18.0496793"><ele>0.0</ele><time>2026-05-04T12:05:32.635Z</time></trkpt><trkpt lat="42.6894146" lon="18.0495386"><ele>0.0</ele><time>2026-05-04T12:05:33.636Z</time></trkpt><trkpt lat="42.6895457" lon="18.0494134"><ele>0.0</ele><time>2026-05-04T12:05:34.636Z</time></trkpt><trkpt lat="42.6896838" lon="18.0492863"><ele>2.3333333333333335</ele><time>2026-05-04T12:05:35.636Z</time></trkpt><trkpt lat="42.6898162" lon="18.0491577"><ele>4.666666666666667</ele><time>2026-05-04T12:05:36.636Z</time></trkpt><trkpt lat="42.6899445" lon="18.0490336"><ele>7.0</ele><time>2026-05-04T12:05:37.637Z</time></trkpt><trkpt lat="42.6900676" lon="18.0489103"><ele>7.0</ele><time>2026-05-04T12:05:38.637Z</time></trkpt><trkpt lat="42.6901789" lon="18.0487794"><ele>7.0</ele><time>2026-05-04T12:05:39.637Z</time></trkpt><trkpt lat="42.6902766" lon="18.0486317"><ele>7.0</ele><time>2026-05-04T12:05:40.637Z</time></trkpt><trkpt lat="42.6903616" lon="18.0484771"><ele>7.0</ele><time>2026-05-04T12:05:41.636Z</time></trkpt><trkpt lat="42.6904388" lon="18.0483168"><ele>7.75</ele><time>2026-05-04T12:05:42.636Z</time></trkpt><trkpt lat="42.6905165" lon="18.0481462"><ele>8.5</ele><time>2026-05-04T12:05:43.637Z</time></trkpt><trkpt lat="42.6905909" lon="18.0479911"><ele>9.25</ele><time>2026-05-04T12:05:44.639Z</time></trkpt><trkpt lat="42.690673" lon="18.0478455"><ele>10.0</ele><time>2026-05-04T12:05:45.635Z</time></trkpt><trkpt lat="42.6907609" lon="18.0477133"><ele>10.0</ele><time>2026-05-04T12:05:46.636Z</time></trkpt><trkpt lat="42.6908535" lon="18.0475957"><ele>10.0</ele><time>2026-05-04T12:05:47.636Z</time></trkpt><trkpt lat="42.6909553" lon="18.0474959"><ele>10.0</ele><time>2026-05-04T12:05:48.635Z</time></trkpt><trkpt lat="42.6910748" lon="18.047425"><ele>10.0</ele><time>2026-05-04T12:05:49.637Z</time></trkpt><trkpt lat="42.6912038" lon="18.0473718"><ele>7.75</ele><time>2026-05-04T12:05:50.637Z</time></trkpt><trkpt lat="42.6913369" lon="18.0473389"><ele>5.5</ele><time>2026-05-04T12:05:51.637Z</time></trkpt><trkpt lat="42.6914734" lon="18.0473125"><ele>3.25</ele><time>2026-05-04T12:05:52.634Z</time></trkpt><trkpt lat="42.6916119" lon="18.0472962"><ele>1.0</ele><time>2026-05-04T12:05:53.638Z</time></trkpt><trkpt lat="42.6917609" lon="18.0472762"><ele>1.0</ele><time>2026-05-04T12:05:54.636Z</time></trkpt><trkpt lat="42.6919051" lon="18.0472563"><ele>1.0</ele><time>2026-05-04T12:05:55.638Z</time></trkpt><trkpt lat="42.6920485" lon="18.0472374"><ele>1.0</ele><time>2026-05-04T12:05:56.637Z</time></trkpt><trkpt lat="42.6921896" lon="18.0472212"><ele>1.0</ele><time>2026-05-04T12:05:57.637Z</time></trkpt><trkpt lat="42.692334" lon="18.0471966"><ele>0.75</ele><time>2026-05-04T12:05:58.637Z</time></trkpt><trkpt lat="42.6924733" lon="18.0471789"><ele>0.5</ele><time>2026-05-04T12:05:59.638Z</time></trkpt><trkpt lat="42.6926115" lon="18.0471585"><ele>0.25</ele><time>2026-05-04T12:06:00.638Z</time></trkpt><trkpt lat="42.6927485" lon="18.0471412"><ele>0.0</ele><time>2026-05-04T12:06:01.635Z</time></trkpt><trkpt lat="42.6928873" lon="18.047109"><ele>2.75</ele><time>2026-05-04T12:06:02.637Z</time></trkpt><trkpt lat="42.6930138" lon="18.0470653"><ele>5.5</ele><time>2026-05-04T12:06:03.637Z</time></trkpt><trkpt lat="42.6931345" lon="18.0470007"><ele>8.25</ele><time>2026-05-04T12:06:04.638Z</time></trkpt><trkpt lat="42.6932442" lon="18.0469131"><ele>11.0</ele><time>2026-05-04T12:06:05.636Z</time></trkpt><trkpt lat="42.6933427" lon="18.0467961"><ele>11.0</ele><time>2026-05-04T12:06:06.637Z</time></trkpt><trkpt lat="42.6934295" lon="18.0466682"><ele>11.0</ele><time>2026-05-04T12:06:07.638Z</time></trkpt><trkpt lat="42.6935062" lon="18.0465182"><ele>11.0</ele><time>2026-05-04T12:06:08.639Z</time></trkpt><trkpt lat="42.693574" lon="18.0463584"><ele>11.0</ele><time>2026-05-04T12:06:09.639Z</time></trkpt><trkpt lat="42.6936465" lon="18.0461739"><ele>12.25</ele><time>2026-05-04T12:06:10.634Z</time></trkpt><trkpt lat="42.6937232" lon="18.0460052"><ele>13.5</ele><time>2026-05-04T12:06:11.637Z</time></trkpt><trkpt lat="42.6937991" lon="18.045852"><ele>14.75</ele><time>2026-05-04T12:06:12.638Z</time></trkpt><trkpt lat="42.6938824" lon="18.0457135"><ele>16.0</ele><time>2026-05-04T12:06:13.64Z</time></trkpt><trkpt lat="42.6939895" lon="18.0455921"><ele>12.5</ele><time>2026-05-04T12:06:14.638Z</time></trkpt><trkpt lat="42.6941015" lon="18.0455014"><ele>9.0</ele><time>2026-05-04T12:06:15.634Z</time></trkpt><trkpt lat="42.6942211" lon="18.0454301"><ele>5.5</ele><time>2026-05-04T12:06:16.637Z</time></trkpt><trkpt lat="42.6943532" lon="18.0453794"><ele>2.0</ele><time>2026-05-04T12:06:17.64Z</time></trkpt><trkpt lat="42.6944913" lon="18.0453366"><ele>2.0</ele><time>2026-05-04T12:06:18.638Z</time></trkpt><trkpt lat="42.6946341" lon="18.0453012"><ele>2.0</ele><time>2026-05-04T12:06:19.64Z</time></trkpt><trkpt lat="42.6947803" lon="18.045278"><ele>2.0</ele><time>2026-05-04T12:06:20.637Z</time></trkpt><trkpt lat="42.6949313" lon="18.0452706"><ele>2.0</ele><time>2026-05-04T12:06:21.635Z</time></trkpt><trkpt lat="42.6950756" lon="18.045297"><ele>2.0</ele><time>2026-05-04T12:06:22.636Z</time></trkpt><trkpt lat="42.6952114" lon="18.0453586"><ele>2.0</ele><time>2026-05-04T12:06:23.638Z</time></trkpt><trkpt lat="42.6953319" lon="18.0454628"><ele>2.0</ele><time>2026-05-04T12:06:24.637Z</time></trkpt><trkpt lat="42.6954643" lon="18.04556"><ele>2.0</ele><time>2026-05-04T12:06:25.637Z</time></trkpt><trkpt lat="42.6955969" lon="18.0456949"><ele>1.6666666666666665</ele><time>2026-05-04T12:06:26.641Z</time></trkpt><trkpt lat="42.6957322" lon="18.0458345"><ele>1.3333333333333333</ele><time>2026-05-04T12:06:27.638Z</time></trkpt><trkpt lat="42.6958718" lon="18.0459703"><ele>1.0</ele><time>2026-05-04T12:06:28.638Z</time></trkpt><trkpt lat="42.6960103" lon="18.0460972"><ele>0.6666666666666666</ele><time>2026-05-04T12:06:29.639Z</time></trkpt><trkpt lat="42.6961627" lon="18.0461995"><ele>0.3333333333333333</ele><time>2026-05-04T12:06:30.637Z</time></trkpt><trkpt lat="42.69632" lon="18.0462612"><ele>0.0</ele><time>2026-05-04T12:06:31.641Z</time></trkpt><trkpt lat="42.6964755" lon="18.0462962"><ele>0.0</ele><time>2026-05-04T12:06:32.64Z</time></trkpt><trkpt lat="42.6966407" lon="18.0462952"><ele>0.0</ele><time>2026-05-04T12:06:33.638Z</time></trkpt><trkpt lat="42.6967963" lon="18.0462768"><ele>0.0</ele><time>2026-05-04T12:06:34.638Z</time></trkpt><trkpt lat="42.696946" lon="18.0462384"><ele>1.5</ele><time>2026-05-04T12:06:35.639Z</time></trkpt><trkpt lat="42.6970918" lon="18.0461856"><ele>3.0</ele><time>2026-05-04T12:06:36.635Z</time></trkpt><trkpt lat="42.6972371" lon="18.0461277"><ele>4.5</ele><time>2026-05-04T12:06:37.639Z</time></trkpt><trkpt lat="42.6973771" lon="18.0460728"><ele>6.0</ele><time>2026-05-04T12:06:38.638Z</time></trkpt><trkpt lat="42.6975176" lon="18.0460216"><ele>6.0</ele><time>2026-05-04T12:06:39.637Z</time></trkpt><trkpt lat="42.6976539" lon="18.0459903"><ele>6.0</ele><time>2026-05-04T12:06:40.637Z</time></trkpt><trkpt lat="42.6977919" lon="18.0459779"><ele>6.0</ele><time>2026-05-04T12:06:41.641Z</time></trkpt><trkpt lat="42.6979292" lon="18.0459959"><ele>6.0</ele><time>2026-05-04T12:06:42.638Z</time></trkpt><trkpt lat="42.6980731" lon="18.0460291"><ele>5.333333333333333</ele><time>2026-05-04T12:06:43.639Z</time></trkpt><trkpt lat="42.6982175" lon="18.0460971"><ele>4.666666666666666</ele><time>2026-05-04T12:06:44.636Z</time></trkpt><trkpt lat="42.6983652" lon="18.0461769"><ele>4.0</ele><time>2026-05-04T12:06:45.637Z</time></trkpt><trkpt lat="42.6985108" lon="18.0462649"><ele>3.333333333333333</ele><time>2026-05-04T12:06:46.637Z</time></trkpt><trkpt lat="42.6986579" lon="18.0463498"><ele>2.6666666666666665</ele><time>2026-05-04T12:06:47.635Z</time></trkpt><trkpt lat="42.6988068" lon="18.0464332"><ele>2.0</ele><time>2026-05-04T12:06:48.636Z</time></trkpt><trkpt lat="42.6989576" lon="18.0465064"><ele>2.0</ele><time>2026-05-04T12:06:49.639Z</time></trkpt><trkpt lat="42.6991134" lon="18.0465568"><ele>2.0</ele><time>2026-05-04T12:06:50.641Z</time></trkpt><trkpt lat="42.6992857" lon="18.0465814"><ele>2.0</ele><time>2026-05-04T12:06:51.639Z</time></trkpt><trkpt lat="42.6994519" lon="18.0465791"><ele>2.6666666666666665</ele><time>2026-05-04T12:06:52.638Z</time></trkpt><trkpt lat="42.6996156" lon="18.0465544"><ele>3.333333333333333</ele><time>2026-05-04T12:06:53.637Z</time></trkpt><trkpt lat="42.6997851" lon="18.0464998"><ele>4.0</ele><time>2026-05-04T12:06:54.636Z</time></trkpt><trkpt lat="42.6999463" lon="18.0464418"><ele>4.0</ele><time>2026-05-04T12:06:55.637Z</time></trkpt><trkpt lat="42.7000998" lon="18.0463644"><ele>4.0</ele><time>2026-05-04T12:06:56.637Z</time></trkpt><trkpt lat="42.7002536" lon="18.0462903"><ele>4.0</ele><time>2026-05-04T12:06:57.638Z</time></trkpt><trkpt lat="42.700411" lon="18.0462149"><ele>6.333333333333333</ele><time>2026-05-04T12:06:58.638Z</time></trkpt><trkpt lat="42.7005664" lon="18.0461492"><ele>8.666666666666666</ele><time>2026-05-04T12:06:59.636Z</time></trkpt><trkpt lat="42.7007209" lon="18.0460987"><ele>11.0</ele><time>2026-05-04T12:07:00.637Z</time></trkpt><trkpt lat="42.700872" lon="18.0460547"><ele>11.0</ele><time>2026-05-04T12:07:01.637Z</time></trkpt><trkpt lat="42.7010292" lon="18.0460194"><ele>11.0</ele><time>2026-05-04T12:07:02.637Z</time></trkpt><trkpt lat="42.7011871" lon="18.0459844"><ele>11.0</ele><time>2026-05-04T12:07:03.638Z</time></trkpt><trkpt lat="42.7013445" lon="18.0459583"><ele>14.333333333333332</ele><time>2026-05-04T12:07:04.637Z</time></trkpt><trkpt lat="42.7014973" lon="18.0459259"><ele>17.666666666666668</ele><time>2026-05-04T12:07:05.635Z</time></trkpt><trkpt lat="42.7016478" lon="18.0458787"><ele>21.0</ele><time>2026-05-04T12:07:06.636Z</time></trkpt><trkpt lat="42.7017959" lon="18.045812"><ele>22.333333333333336</ele><time>2026-05-04T12:07:07.638Z</time></trkpt><trkpt lat="42.7019364" lon="18.0457215"><ele>23.666666666666668</ele><time>2026-05-04T12:07:08.638Z</time></trkpt><trkpt lat="42.7020655" lon="18.0456077"><ele>25.0</ele><time>2026-05-04T12:07:09.637Z</time></trkpt><trkpt lat="42.7021846" lon="18.0454715"><ele>25.0</ele><time>2026-05-04T12:07:10.638Z</time></trkpt><trkpt lat="42.7022887" lon="18.04532"><ele>25.0</ele><time>2026-05-04T12:07:11.636Z</time></trkpt><trkpt lat="42.7023786" lon="18.045149"><ele>25.0</ele><time>2026-05-04T12:07:12.637Z</time></trkpt><trkpt lat="42.7024492" lon="18.0449678"><ele>23.0</ele><time>2026-05-04T12:07:13.636Z</time></trkpt><trkpt lat="42.7025024" lon="18.0447775"><ele>21.0</ele><time>2026-05-04T12:07:14.638Z</time></trkpt><trkpt lat="42.7025376" lon="18.0445744"><ele>19.0</ele><time>2026-05-04T12:07:15.639Z</time></trkpt><trkpt lat="42.7025559" lon="18.0443659"><ele>19.0</ele><time>2026-05-04T12:07:16.638Z</time></trkpt><trkpt lat="42.7025465" lon="18.0441559"><ele>19.0</ele><time>2026-05-04T12:07:17.638Z</time></trkpt><trkpt lat="42.7025189" lon="18.0439508"><ele>19.0</ele><time>2026-05-04T12:07:18.638Z</time></trkpt><trkpt lat="42.7024758" lon="18.0437496"><ele>22.0</ele><time>2026-05-04T12:07:19.637Z</time></trkpt><trkpt lat="42.7024143" lon="18.0435581"><ele>25.0</ele><time>2026-05-04T12:07:20.638Z</time></trkpt><trkpt lat="42.7023391" lon="18.0433859"><ele>28.0</ele><time>2026-05-04T12:07:21.638Z</time></trkpt><trkpt lat="42.7022521" lon="18.0432185"><ele>30.0</ele><time>2026-05-04T12:07:22.637Z</time></trkpt><trkpt lat="42.7021571" lon="18.0430623"><ele>32.0</ele><time>2026-05-04T12:07:23.636Z</time></trkpt><trkpt lat="42.702058" lon="18.0429101"><ele>34.0</ele><time>2026-05-04T12:07:24.639Z</time></trkpt><trkpt lat="42.7019677" lon="18.0427564"><ele>36.0</ele><time>2026-05-04T12:07:25.637Z</time></trkpt><trkpt lat="42.7018785" lon="18.042592"><ele>28.333333333333332</ele><time>2026-05-04T12:07:26.639Z</time></trkpt><trkpt lat="42.7018001" lon="18.0424153"><ele>20.666666666666664</ele><time>2026-05-04T12:07:27.637Z</time></trkpt><trkpt lat="42.7017269" lon="18.0422292"><ele>13.0</ele><time>2026-05-04T12:07:28.635Z</time></trkpt><trkpt lat="42.7016779" lon="18.042027"><ele>13.0</ele><time>2026-05-04T12:07:29.636Z</time></trkpt><trkpt lat="42.7016281" lon="18.0418192"><ele>13.0</ele><time>2026-05-04T12:07:30.638Z</time></trkpt><trkpt lat="42.7015755" lon="18.0416132"><ele>13.0</ele><time>2026-05-04T12:07:31.637Z</time></trkpt><trkpt lat="42.7015265" lon="18.0414195"><ele>13.0</ele><time>2026-05-04T12:07:32.638Z</time></trkpt><trkpt lat="42.7014811" lon="18.0412363"><ele>13.0</ele><time>2026-05-04T12:07:33.636Z</time></trkpt><trkpt lat="42.7014415" lon="18.0410795"><ele>13.0</ele><time>2026-05-04T12:07:34.638Z</time></trkpt><trkpt lat="42.7013992" lon="18.0409238"><ele>13.0</ele><time>2026-05-04T12:07:35.637Z</time></trkpt><trkpt lat="42.7013519" lon="18.0407767"><ele>14.25</ele><time>2026-05-04T12:07:36.637Z</time></trkpt><trkpt lat="42.7013012" lon="18.040628"><ele>15.5</ele><time>2026-05-04T12:07:37.639Z</time></trkpt><trkpt lat="42.7012439" lon="18.0404858"><ele>16.75</ele><time>2026-05-04T12:07:38.636Z</time></trkpt><trkpt lat="42.7011786" lon="18.0403468"><ele>18.0</ele><time>2026-05-04T12:07:39.638Z</time></trkpt><trkpt lat="42.7011079" lon="18.0402059"><ele>18.75</ele><time>2026-05-04T12:07:40.633Z</time></trkpt><trkpt lat="42.7010252" lon="18.0400745"><ele>19.5</ele><time>2026-05-04T12:07:41.637Z</time></trkpt><trkpt lat="42.7009378" lon="18.0399555"><ele>20.25</ele><time>2026-05-04T12:07:42.636Z</time></trkpt><trkpt lat="42.7008411" lon="18.0398447"><ele>21.0</ele><time>2026-05-04T12:07:43.637Z</time></trkpt><trkpt lat="42.7007417" lon="18.0397426"><ele>21.0</ele><time>2026-05-04T12:07:44.639Z</time></trkpt><trkpt lat="42.7006399" lon="18.0396551"><ele>21.0</ele><time>2026-05-04T12:07:45.638Z</time></trkpt><trkpt lat="42.7005415" lon="18.0395712"><ele>21.0</ele><time>2026-05-04T12:07:46.634Z</time></trkpt><trkpt lat="42.7004478" lon="18.0394853"><ele>21.0</ele><time>2026-05-04T12:07:47.64Z</time></trkpt><trkpt lat="42.7003509" lon="18.0394065"><ele>19.25</ele><time>2026-05-04T12:07:48.638Z</time></trkpt><trkpt lat="42.7002451" lon="18.039331"><ele>17.5</ele><time>2026-05-04T12:07:49.639Z</time></trkpt><trkpt lat="42.7001187" lon="18.039264"><ele>15.75</ele><time>2026-05-04T12:07:50.637Z</time></trkpt><trkpt lat="42.6999841" lon="18.0392039"><ele>14.0</ele><time>2026-05-04T12:07:51.637Z</time></trkpt><trkpt lat="42.6998666" lon="18.0391414"><ele>17.25</ele><time>2026-05-04T12:07:52.637Z</time></trkpt><trkpt lat="42.6997485" lon="18.0390985"><ele>20.5</ele><time>2026-05-04T12:07:53.636Z</time></trkpt><trkpt lat="42.6996212" lon="18.0390601"><ele>23.75</ele><time>2026-05-04T12:07:54.635Z</time></trkpt><trkpt lat="42.6994897" lon="18.0390309"><ele>27.0</ele><time>2026-05-04T12:07:55.637Z</time></trkpt><trkpt lat="42.6993696" lon="18.0389977"><ele>27.0</ele><time>2026-05-04T12:07:56.637Z</time></trkpt><trkpt lat="42.6992505" lon="18.038964"><ele>27.0</ele><time>2026-05-04T12:07:57.637Z</time></trkpt><trkpt lat="42.6991277" lon="18.0389267"><ele>27.0</ele><time>2026-05-04T12:07:58.638Z</time></trkpt><trkpt lat="42.6989955" lon="18.0388894"><ele>27.0</ele><time>2026-05-04T12:07:59.635Z</time></trkpt><trkpt lat="42.6988674" lon="18.0388672"><ele>27.0</ele><time>2026-05-04T12:08:00.638Z</time></trkpt><trkpt lat="42.6987388" lon="18.0388641"><ele>27.0</ele><time>2026-05-04T12:08:01.634Z</time></trkpt><trkpt lat="42.6986058" lon="18.0388789"><ele>27.0</ele><time>2026-05-04T12:08:02.635Z</time></trkpt><trkpt lat="42.6984751" lon="18.0389105"><ele>27.0</ele><time>2026-05-04T12:08:03.636Z</time></trkpt><trkpt lat="42.698349" lon="18.0389559"><ele>25.75</ele><time>2026-05-04T12:08:04.638Z</time></trkpt><trkpt lat="42.6982245" lon="18.0390145"><ele>24.5</ele><time>2026-05-04T12:08:05.638Z</time></trkpt><trkpt lat="42.6981032" lon="18.0390851"><ele>23.25</ele><time>2026-05-04T12:08:06.635Z</time></trkpt><trkpt lat="42.6979801" lon="18.0391651"><ele>22.0</ele><time>2026-05-04T12:08:07.634Z</time></trkpt><trkpt lat="42.6978584" lon="18.0392485"><ele>20.5</ele><time>2026-05-04T12:08:08.635Z</time></trkpt><trkpt lat="42.6977357" lon="18.0393325"><ele>19.0</ele><time>2026-05-04T12:08:09.636Z</time></trkpt><trkpt lat="42.6976073" lon="18.0394107"><ele>17.5</ele><time>2026-05-04T12:08:10.633Z</time></trkpt><trkpt lat="42.6974781" lon="18.0394625"><ele>16.0</ele><time>2026-05-04T12:08:11.638Z</time></trkpt><trkpt lat="42.6973447" lon="18.039499"><ele>16.0</ele><time>2026-05-04T12:08:12.634Z</time></trkpt><trkpt lat="42.6972223" lon="18.0395059"><ele>16.0</ele><time>2026-05-04T12:08:13.634Z</time></trkpt><trkpt lat="42.6971098" lon="18.0394772"><ele>16.0</ele><time>2026-05-04T12:08:14.635Z</time></trkpt><trkpt lat="42.696989" lon="18.0394136"><ele>16.0</ele><time>2026-05-04T12:08:15.635Z</time></trkpt><trkpt lat="42.6968603" lon="18.0393127"><ele>17.25</ele><time>2026-05-04T12:08:16.634Z</time></trkpt><trkpt lat="42.6967561" lon="18.0392066"><ele>18.5</ele><time>2026-05-04T12:08:17.636Z</time></trkpt><trkpt lat="42.6966507" lon="18.0390896"><ele>19.75</ele><time>2026-05-04T12:08:18.637Z</time></trkpt><trkpt lat="42.6965612" lon="18.0389907"><ele>21.0</ele><time>2026-05-04T12:08:19.638Z</time></trkpt><trkpt lat="42.6964616" lon="18.0388719"><ele>21.0</ele><time>2026-05-04T12:08:20.635Z</time></trkpt><trkpt lat="42.6963506" lon="18.0387808"><ele>21.0</ele><time>2026-05-04T12:08:21.636Z</time></trkpt><trkpt lat="42.6962347" lon="18.03871"><ele>21.0</ele><time>2026-05-04T12:08:22.635Z</time></trkpt><trkpt lat="42.6960984" lon="18.038666"><ele>21.0</ele><time>2026-05-04T12:08:23.637Z</time></trkpt><trkpt lat="42.6959567" lon="18.0386655"><ele>17.75</ele><time>2026-05-04T12:08:24.635Z</time></trkpt><trkpt lat="42.6958177" lon="18.0387063"><ele>14.5</ele><time>2026-05-04T12:08:25.638Z</time></trkpt><trkpt lat="42.6956875" lon="18.0387751"><ele>11.25</ele><time>2026-05-04T12:08:26.634Z</time></trkpt><trkpt lat="42.6955689" lon="18.0388785"><ele>8.0</ele><time>2026-05-04T12:08:27.637Z</time></trkpt><trkpt lat="42.6954647" lon="18.0390098"><ele>7.0</ele><time>2026-05-04T12:08:28.637Z</time></trkpt><trkpt lat="42.6953786" lon="18.0391678"><ele>6.0</ele><time>2026-05-04T12:08:29.635Z</time></trkpt><trkpt lat="42.6953139" lon="18.0393516"><ele>5.0</ele><time>2026-05-04T12:08:30.638Z</time></trkpt><trkpt lat="42.6952707" lon="18.0395345"><ele>4.0</ele><time>2026-05-04T12:08:31.637Z</time></trkpt><trkpt lat="42.6952389" lon="18.0397286"><ele>8.0</ele><time>2026-05-04T12:08:32.636Z</time></trkpt><trkpt lat="42.695217" lon="18.03992"><ele>12.0</ele><time>2026-05-04T12:08:33.636Z</time></trkpt><trkpt lat="42.6952016" lon="18.040113"><ele>16.0</ele><time>2026-05-04T12:08:34.637Z</time></trkpt><trkpt lat="42.6951801" lon="18.0403085"><ele>20.0</ele><time>2026-05-04T12:08:35.637Z</time></trkpt><trkpt lat="42.6951555" lon="18.0405047"><ele>20.0</ele><time>2026-05-04T12:08:36.635Z</time></trkpt><trkpt lat="42.6951169" lon="18.0406906"><ele>20.0</ele><time>2026-05-04T12:08:37.636Z</time></trkpt><trkpt lat="42.6950656" lon="18.0408591"><ele>20.0</ele><time>2026-05-04T12:08:38.634Z</time></trkpt><trkpt lat="42.6949997" lon="18.0410062"><ele>20.0</ele><time>2026-05-04T12:08:39.638Z</time></trkpt><trkpt lat="42.6949103" lon="18.0411352"><ele>19.0</ele><time>2026-05-04T12:08:40.634Z</time></trkpt><trkpt lat="42.6947968" lon="18.0412386"><ele>18.0</ele><time>2026-05-04T12:08:41.635Z</time></trkpt><trkpt lat="42.6946733" lon="18.0413247"><ele>17.0</ele><time>2026-05-04T12:08:42.636Z</time></trkpt><trkpt lat="42.6945446" lon="18.0413778"><ele>16.0</ele><time>2026-05-04T12:08:43.636Z</time></trkpt><trkpt lat="42.6944071" lon="18.0414051"><ele>21.0</ele><time>2026-05-04T12:08:44.636Z</time></trkpt><trkpt lat="42.6942577" lon="18.0414223"><ele>26.0</ele><time>2026-05-04T12:08:45.637Z</time></trkpt><trkpt lat="42.6940969" lon="18.0414218"><ele>31.0</ele><time>2026-05-04T12:08:46.636Z</time></trkpt><trkpt lat="42.6939334" lon="18.041405"><ele>31.0</ele><time>2026-05-04T12:08:47.637Z</time></trkpt><trkpt lat="42.6937668" lon="18.0413852"><ele>31.0</ele><time>2026-05-04T12:08:48.636Z</time></trkpt><trkpt lat="42.6935998" lon="18.0413647"><ele>31.0</ele><time>2026-05-04T12:08:49.636Z</time></trkpt><trkpt lat="42.6934344" lon="18.0413342"><ele>28.666666666666668</ele><time>2026-05-04T12:08:50.635Z</time></trkpt><trkpt lat="42.6932761" lon="18.0412983"><ele>26.333333333333336</ele><time>2026-05-04T12:08:51.637Z</time></trkpt><trkpt lat="42.6931259" lon="18.0412468"><ele>24.0</ele><time>2026-05-04T12:08:52.637Z</time></trkpt><trkpt lat="42.6929838" lon="18.0411816"><ele>24.0</ele><time>2026-05-04T12:08:53.637Z</time></trkpt><trkpt lat="42.6928563" lon="18.0410979"><ele>24.0</ele><time>2026-05-04T12:08:54.636Z</time></trkpt><trkpt lat="42.692738" lon="18.0409855"><ele>24.0</ele><time>2026-05-04T12:08:55.635Z</time></trkpt><trkpt lat="42.6926386" lon="18.0408454"><ele>24.0</ele><time>2026-05-04T12:08:56.636Z</time></trkpt><trkpt lat="42.6925467" lon="18.0406898"><ele>21.666666666666668</ele><time>2026-05-04T12:08:57.636Z</time></trkpt><trkpt lat="42.6924733" lon="18.0405015"><ele>19.333333333333336</ele><time>2026-05-04T12:08:58.635Z</time></trkpt><trkpt lat="42.692413" lon="18.0403178"><ele>17.0</ele><time>2026-05-04T12:08:59.638Z</time></trkpt><trkpt lat="42.6923617" lon="18.0401241"><ele>18.5</ele><time>2026-05-04T12:09:00.635Z</time></trkpt><trkpt lat="42.6923171" lon="18.0399267"><ele>20.0</ele><time>2026-05-04T12:09:01.635Z</time></trkpt><trkpt lat="42.692274" lon="18.0397342"><ele>21.5</ele><time>2026-05-04T12:09:02.636Z</time></trkpt><trkpt lat="42.692229" lon="18.0395509"><ele>23.0</ele><time>2026-05-04T12:09:03.637Z</time></trkpt><trkpt lat="42.6921798" lon="18.0393723"><ele>23.0</ele><time>2026-05-04T12:09:04.636Z</time></trkpt><trkpt lat="42.6921259" lon="18.0392034"><ele>23.0</ele><time>2026-05-04T12:09:05.635Z</time></trkpt><trkpt lat="42.6920626" lon="18.0390481"><ele>23.0</ele><time>2026-05-04T12:09:06.633Z</time></trkpt><trkpt lat="42.6919867" lon="18.0388881"><ele>23.0</ele><time>2026-05-04T12:09:07.634Z</time></trkpt><trkpt lat="42.6918971" lon="18.0387367"><ele>23.0</ele><time>2026-05-04T12:09:08.635Z</time></trkpt><trkpt lat="42.6917993" lon="18.0385968"><ele>23.0</ele><time>2026-05-04T12:09:09.639Z</time></trkpt><trkpt lat="42.6916913" lon="18.0384609"><ele>23.0</ele><time>2026-05-04T12:09:10.635Z</time></trkpt><trkpt lat="42.6915823" lon="18.0383352"><ele>23.0</ele><time>2026-05-04T12:09:11.637Z</time></trkpt><trkpt lat="42.6914705" lon="18.0382161"><ele>23.0</ele><time>2026-05-04T12:09:12.632Z</time></trkpt><trkpt lat="42.6913574" lon="18.0380878"><ele>23.0</ele><time>2026-05-04T12:09:13.636Z</time></trkpt><trkpt lat="42.6912459" lon="18.0379584"><ele>23.0</ele><time>2026-05-04T12:09:14.639Z</time></trkpt><trkpt lat="42.6911307" lon="18.037835"><ele>23.0</ele><time>2026-05-04T12:09:15.635Z</time></trkpt><trkpt lat="42.6910169" lon="18.0377127"><ele>22.0</ele><time>2026-05-04T12:09:16.638Z</time></trkpt><trkpt lat="42.6909156" lon="18.037577"><ele>21.0</ele><time>2026-05-04T12:09:17.637Z</time></trkpt><trkpt lat="42.6908149" lon="18.0374355"><ele>20.0</ele><time>2026-05-04T12:09:18.64Z</time></trkpt><trkpt lat="42.6907194" lon="18.037273"><ele>19.0</ele><time>2026-05-04T12:09:19.637Z</time></trkpt><trkpt lat="42.6906394" lon="18.0371061"><ele>19.0</ele><time>2026-05-04T12:09:20.638Z</time></trkpt><trkpt lat="42.6905829" lon="18.0369259"><ele>19.0</ele><time>2026-05-04T12:09:21.637Z</time></trkpt><trkpt lat="42.6905559" lon="18.0367275"><ele>19.0</ele><time>2026-05-04T12:09:22.635Z</time></trkpt><trkpt lat="42.6905421" lon="18.036524"><ele>19.0</ele><time>2026-05-04T12:09:23.635Z</time></trkpt><trkpt lat="42.6905479" lon="18.0363036"><ele>19.666666666666664</ele><time>2026-05-04T12:09:24.638Z</time></trkpt><trkpt lat="42.6905537" lon="18.0360806"><ele>20.333333333333332</ele><time>2026-05-04T12:09:25.635Z</time></trkpt><trkpt lat="42.6905599" lon="18.0358601"><ele>21.0</ele><time>2026-05-04T12:09:26.636Z</time></trkpt><trkpt lat="42.6905677" lon="18.035645"><ele>23.0</ele><time>2026-05-04T12:09:27.639Z</time></trkpt><trkpt lat="42.6905689" lon="18.0354375"><ele>25.0</ele><time>2026-05-04T12:09:28.636Z</time></trkpt><trkpt lat="42.6905547" lon="18.035236"><ele>27.0</ele><time>2026-05-04T12:09:29.636Z</time></trkpt><trkpt lat="42.6905201" lon="18.035032"><ele>28.0</ele><time>2026-05-04T12:09:30.639Z</time></trkpt><trkpt lat="42.6904747" lon="18.0348348"><ele>29.0</ele><time>2026-05-04T12:09:31.636Z</time></trkpt><trkpt lat="42.6904209" lon="18.0346456"><ele>30.0</ele><time>2026-05-04T12:09:32.634Z</time></trkpt><trkpt lat="42.690363" lon="18.0344651"><ele>31.0</ele><time>2026-05-04T12:09:33.64Z</time></trkpt><trkpt lat="42.6903024" lon="18.034284"><ele>31.5</ele><time>2026-05-04T12:09:34.635Z</time></trkpt><trkpt lat="42.690241" lon="18.0341032"><ele>32.0</ele><time>2026-05-04T12:09:35.634Z</time></trkpt><trkpt lat="42.6901798" lon="18.0339234"><ele>32.5</ele><time>2026-05-04T12:09:36.636Z</time></trkpt><trkpt lat="42.6901291" lon="18.033733"><ele>33.0</ele><time>2026-05-04T12:09:37.638Z</time></trkpt><trkpt lat="42.6900897" lon="18.0335284"><ele>33.0</ele><time>2026-05-04T12:09:38.639Z</time></trkpt><trkpt lat="42.6900673" lon="18.0333177"><ele>33.0</ele><time>2026-05-04T12:09:39.637Z</time></trkpt><trkpt lat="42.6900672" lon="18.0331043"><ele>33.0</ele><time>2026-05-04T12:09:40.633Z</time></trkpt><trkpt lat="42.6900872" lon="18.0328923"><ele>33.333333333333336</ele><time>2026-05-04T12:09:41.637Z</time></trkpt><trkpt lat="42.6901256" lon="18.0326861"><ele>33.66666666666667</ele><time>2026-05-04T12:09:42.637Z</time></trkpt><trkpt lat="42.6901782" lon="18.0324864"><ele>34.0</ele><time>2026-05-04T12:09:43.637Z</time></trkpt><trkpt lat="42.6902313" lon="18.0322923"><ele>38.333333333333336</ele><time>2026-05-04T12:09:44.633Z</time></trkpt><trkpt lat="42.6902915" lon="18.0321007"><ele>42.666666666666664</ele><time>2026-05-04T12:09:45.636Z</time></trkpt><trkpt lat="42.690358" lon="18.0319134"><ele>47.0</ele><time>2026-05-04T12:09:46.636Z</time></trkpt><trkpt lat="42.6904288" lon="18.0317309"><ele>47.666666666666664</ele><time>2026-05-04T12:09:47.637Z</time></trkpt><trkpt lat="42.690506" lon="18.0315562"><ele>48.33333333333333</ele><time>2026-05-04T12:09:48.634Z</time></trkpt><trkpt lat="42.690583" lon="18.0313782"><ele>49.0</ele><time>2026-05-04T12:09:49.633Z</time></trkpt><trkpt lat="42.6906591" lon="18.0311996"><ele>49.0</ele><time>2026-05-04T12:09:50.637Z</time></trkpt><trkpt lat="42.6907346" lon="18.0310226"><ele>49.0</ele><time>2026-05-04T12:09:51.637Z</time></trkpt><trkpt lat="42.6908153" lon="18.0308474"><ele>49.0</ele><time>2026-05-04T12:09:52.637Z</time></trkpt><trkpt lat="42.6908982" lon="18.0306667"><ele>48.33333333333333</ele><time>2026-05-04T12:09:53.637Z</time></trkpt><trkpt lat="42.6909848" lon="18.0304804"><ele>47.666666666666664</ele><time>2026-05-04T12:09:54.638Z</time></trkpt><trkpt lat="42.6910684" lon="18.0302941"><ele>47.0</ele><time>2026-05-04T12:09:55.637Z</time></trkpt><trkpt lat="42.6911516" lon="18.0301074"><ele>50.33333333333333</ele><time>2026-05-04T12:09:56.639Z</time></trkpt><trkpt lat="42.691235" lon="18.0299185"><ele>53.666666666666664</ele><time>2026-05-04T12:09:57.638Z</time></trkpt><trkpt lat="42.6913187" lon="18.0297319"><ele>57.0</ele><time>2026-05-04T12:09:58.637Z</time></trkpt><trkpt lat="42.6914022" lon="18.0295473"><ele>57.0</ele><time>2026-05-04T12:09:59.636Z</time></trkpt><trkpt lat="42.6914857" lon="18.0293631"><ele>57.0</ele><time>2026-05-04T12:10:00.636Z</time></trkpt><trkpt lat="42.6915614" lon="18.0291793"><ele>57.0</ele><time>2026-05-04T12:10:01.636Z</time></trkpt><trkpt lat="42.6916364" lon="18.0289924"><ele>57.0</ele><time>2026-05-04T12:10:02.638Z</time></trkpt><trkpt lat="42.6917027" lon="18.0287995"><ele>57.0</ele><time>2026-05-04T12:10:03.636Z</time></trkpt><trkpt lat="42.6917528" lon="18.0285946"><ele>57.0</ele><time>2026-05-04T12:10:04.64Z</time></trkpt><trkpt lat="42.6917926" lon="18.0283831"><ele>57.66666666666667</ele><time>2026-05-04T12:10:05.634Z</time></trkpt><trkpt lat="42.691818" lon="18.0281662"><ele>58.333333333333336</ele><time>2026-05-04T12:10:06.637Z</time></trkpt><trkpt lat="42.6918285" lon="18.0279475"><ele>59.0</ele><time>2026-05-04T12:10:07.637Z</time></trkpt><trkpt lat="42.6918318" lon="18.0277257"><ele>59.0</ele><time>2026-05-04T12:10:08.639Z</time></trkpt><trkpt lat="42.6918344" lon="18.0275027"><ele>59.0</ele><time>2026-05-04T12:10:09.638Z</time></trkpt><trkpt lat="42.6918373" lon="18.0272801"><ele>59.0</ele><time>2026-05-04T12:10:10.635Z</time></trkpt><trkpt lat="42.6918383" lon="18.0270566"><ele>60.333333333333336</ele><time>2026-05-04T12:10:11.636Z</time></trkpt><trkpt lat="42.6918457" lon="18.0268334"><ele>61.66666666666667</ele><time>2026-05-04T12:10:12.637Z</time></trkpt><trkpt lat="42.6918657" lon="18.0266234"><ele>63.0</ele><time>2026-05-04T12:10:13.636Z</time></trkpt><trkpt lat="42.6918891" lon="18.0264094"><ele>63.5</ele><time>2026-05-04T12:10:14.633Z</time></trkpt><trkpt lat="42.691919" lon="18.0262077"><ele>64.0</ele><time>2026-05-04T12:10:15.637Z</time></trkpt><trkpt lat="42.6919558" lon="18.0260179"><ele>64.5</ele><time>2026-05-04T12:10:16.635Z</time></trkpt><trkpt lat="42.6919897" lon="18.025836"><ele>65.0</ele><time>2026-05-04T12:10:17.636Z</time></trkpt><trkpt lat="42.6920308" lon="18.0256562"><ele>65.5</ele><time>2026-05-04T12:10:18.634Z</time></trkpt><trkpt lat="42.692075" lon="18.0254745"><ele>66.0</ele><time>2026-05-04T12:10:19.635Z</time></trkpt><trkpt lat="42.6921194" lon="18.0252856"><ele>66.5</ele><time>2026-05-04T12:10:20.638Z</time></trkpt><trkpt lat="42.6921628" lon="18.025098"><ele>67.0</ele><time>2026-05-04T12:10:21.634Z</time></trkpt><trkpt lat="42.6922108" lon="18.0249101"><ele>67.0</ele><time>2026-05-04T12:10:22.637Z</time></trkpt><trkpt lat="42.6922506" lon="18.0247171"><ele>67.0</ele><time>2026-05-04T12:10:23.634Z</time></trkpt><trkpt lat="42.6922962" lon="18.0245258"><ele>67.0</ele><time>2026-05-04T12:10:24.636Z</time></trkpt><trkpt lat="42.6923407" lon="18.0243359"><ele>67.0</ele><time>2026-05-04T12:10:25.635Z</time></trkpt><trkpt lat="42.6923877" lon="18.0241461"><ele>66.25</ele><time>2026-05-04T12:10:26.636Z</time></trkpt><trkpt lat="42.6924341" lon="18.0239554"><ele>65.5</ele><time>2026-05-04T12:10:27.638Z</time></trkpt><trkpt lat="42.6924793" lon="18.0237647"><ele>64.75</ele><time>2026-05-04T12:10:28.636Z</time></trkpt><trkpt lat="42.6925244" lon="18.0235836"><ele>64.0</ele><time>2026-05-04T12:10:29.636Z</time></trkpt><trkpt lat="42.692575" lon="18.0234088"><ele>64.0</ele><time>2026-05-04T12:10:30.637Z</time></trkpt><trkpt lat="42.6926354" lon="18.023243"><ele>64.0</ele><time>2026-05-04T12:10:31.636Z</time></trkpt><trkpt lat="42.6927169" lon="18.023082"><ele>64.0</ele><time>2026-05-04T12:10:32.637Z</time></trkpt><trkpt lat="42.6928151" lon="18.0229323"><ele>64.0</ele><time>2026-05-04T12:10:33.637Z</time></trkpt><trkpt lat="42.6929275" lon="18.0227946"><ele>64.0</ele><time>2026-05-04T12:10:34.636Z</time></trkpt><trkpt lat="42.6930471" lon="18.0226659"><ele>64.0</ele><time>2026-05-04T12:10:35.637Z</time></trkpt><trkpt lat="42.6931682" lon="18.022537"><ele>64.0</ele><time>2026-05-04T12:10:36.638Z</time></trkpt><trkpt lat="42.6932873" lon="18.0224023"><ele>65.33333333333333</ele><time>2026-05-04T12:10:37.637Z</time></trkpt><trkpt lat="42.6934057" lon="18.0222611"><ele>66.66666666666667</ele><time>2026-05-04T12:10:38.636Z</time></trkpt><trkpt lat="42.6935183" lon="18.0221078"><ele>68.0</ele><time>2026-05-04T12:10:39.637Z</time></trkpt><trkpt lat="42.6936253" lon="18.0219453"><ele>68.0</ele><time>2026-05-04T12:10:40.635Z</time></trkpt><trkpt lat="42.6937304" lon="18.0217748"><ele>68.0</ele><time>2026-05-04T12:10:41.636Z</time></trkpt><trkpt lat="42.6938361" lon="18.0216106"><ele>68.0</ele><time>2026-05-04T12:10:42.638Z</time></trkpt><trkpt lat="42.6939485" lon="18.0214547"><ele>60.66666666666667</ele><time>2026-05-04T12:10:43.635Z</time></trkpt><trkpt lat="42.694064" lon="18.0213026"><ele>53.333333333333336</ele><time>2026-05-04T12:10:44.634Z</time></trkpt><trkpt lat="42.6941832" lon="18.0211613"><ele>46.0</ele><time>2026-05-04T12:10:45.638Z</time></trkpt><trkpt lat="42.6943126" lon="18.0210285"><ele>46.333333333333336</ele><time>2026-05-04T12:10:46.635Z</time></trkpt><trkpt lat="42.6944457" lon="18.0209118"><ele>46.666666666666664</ele><time>2026-05-04T12:10:47.639Z</time></trkpt><trkpt lat="42.6945825" lon="18.020805"><ele>47.0</ele><time>2026-05-04T12:10:48.637Z</time></trkpt><trkpt lat="42.694723" lon="18.0207259"><ele>47.0</ele><time>2026-05-04T12:10:49.637Z</time></trkpt><trkpt lat="42.6948684" lon="18.0206695"><ele>47.0</ele><time>2026-05-04T12:10:50.638Z</time></trkpt><trkpt lat="42.6950089" lon="18.0206327"><ele>47.0</ele><time>2026-05-04T12:10:51.637Z</time></trkpt><trkpt lat="42.6951655" lon="18.02063"><ele>47.5</ele><time>2026-05-04T12:10:52.636Z</time></trkpt><trkpt lat="42.6953211" lon="18.0206398"><ele>48.0</ele><time>2026-05-04T12:10:53.639Z</time></trkpt><trkpt lat="42.6954712" lon="18.0206582"><ele>48.5</ele><time>2026-05-04T12:10:54.636Z</time></trkpt><trkpt lat="42.6956133" lon="18.0206766"><ele>49.0</ele><time>2026-05-04T12:10:55.637Z</time></trkpt><trkpt lat="42.6957531" lon="18.0206778"><ele>49.0</ele><time>2026-05-04T12:10:56.635Z</time></trkpt><trkpt lat="42.6958876" lon="18.020654"><ele>49.0</ele><time>2026-05-04T12:10:57.638Z</time></trkpt><trkpt lat="42.6960134" lon="18.020605"><ele>49.0</ele><time>2026-05-04T12:10:58.634Z</time></trkpt><trkpt lat="42.6961368" lon="18.0205311"><ele>49.0</ele><time>2026-05-04T12:10:59.636Z</time></trkpt><trkpt lat="42.6962499" lon="18.020429"><ele>51.25</ele><time>2026-05-04T12:11:00.639Z</time></trkpt><trkpt lat="42.6963256" lon="18.0203044"><ele>53.5</ele><time>2026-05-04T12:11:01.639Z</time></trkpt><trkpt lat="42.6964013" lon="18.0201592"><ele>55.75</ele><time>2026-05-04T12:11:02.635Z</time></trkpt><trkpt lat="42.6964592" lon="18.019997"><ele>58.0</ele><time>2026-05-04T12:11:03.636Z</time></trkpt><trkpt lat="42.6965271" lon="18.0198238"><ele>58.0</ele><time>2026-05-04T12:11:04.639Z</time></trkpt><trkpt lat="42.6965852" lon="18.0196534"><ele>58.0</ele><time>2026-05-04T12:11:05.635Z</time></trkpt><trkpt lat="42.6966529" lon="18.0194845"><ele>58.0</ele><time>2026-05-04T12:11:06.636Z</time></trkpt><trkpt lat="42.6967189" lon="18.0193092"><ele>58.0</ele><time>2026-05-04T12:11:07.638Z</time></trkpt><trkpt lat="42.6967782" lon="18.0191446"><ele>55.25</ele><time>2026-05-04T12:11:08.636Z</time></trkpt><trkpt lat="42.6968334" lon="18.0189734"><ele>52.5</ele><time>2026-05-04T12:11:09.637Z</time></trkpt><trkpt lat="42.6968873" lon="18.0187985"><ele>49.75</ele><time>2026-05-04T12:11:10.636Z</time></trkpt><trkpt lat="42.6969294" lon="18.0186208"><ele>47.0</ele><time>2026-05-04T12:11:11.637Z</time></trkpt><trkpt lat="42.6969712" lon="18.0184424"><ele>55.0</ele><time>2026-05-04T12:11:12.636Z</time></trkpt><trkpt lat="42.697015" lon="18.0182664"><ele>63.0</ele><time>2026-05-04T12:11:13.637Z</time></trkpt><trkpt lat="42.6970578" lon="18.0180941"><ele>71.0</ele><time>2026-05-04T12:11:14.637Z</time></trkpt><trkpt lat="42.6970971" lon="18.0179129"><ele>79.0</ele><time>2026-05-04T12:11:15.634Z</time></trkpt><trkpt lat="42.6971403" lon="18.0177198"><ele>79.0</ele><time>2026-05-04T12:11:16.635Z</time></trkpt><trkpt lat="42.6971802" lon="18.0175132"><ele>79.0</ele><time>2026-05-04T12:11:17.635Z</time></trkpt><trkpt lat="42.6972038" lon="18.0173046"><ele>79.0</ele><time>2026-05-04T12:11:18.636Z</time></trkpt><trkpt lat="42.6972181" lon="18.0170931"><ele>76.0</ele><time>2026-05-04T12:11:19.636Z</time></trkpt><trkpt lat="42.6972295" lon="18.0168785"><ele>73.0</ele><time>2026-05-04T12:11:20.635Z</time></trkpt><trkpt lat="42.6972399" lon="18.0166725"><ele>70.0</ele><time>2026-05-04T12:11:21.636Z</time></trkpt><trkpt lat="42.6972596" lon="18.016464"><ele>68.33333333333333</ele><time>2026-05-04T12:11:22.636Z</time></trkpt><trkpt lat="42.6972936" lon="18.0162587"><ele>66.66666666666667</ele><time>2026-05-04T12:11:23.638Z</time></trkpt><trkpt lat="42.6973406" lon="18.0160583"><ele>65.0</ele><time>2026-05-04T12:11:24.636Z</time></trkpt><trkpt lat="42.6974091" lon="18.015874"><ele>60.66666666666667</ele><time>2026-05-04T12:11:25.637Z</time></trkpt><trkpt lat="42.6974989" lon="18.0156989"><ele>56.33333333333333</ele><time>2026-05-04T12:11:26.638Z</time></trkpt><trkpt lat="42.6976017" lon="18.0155279"><ele>52.0</ele><time>2026-05-04T12:11:27.635Z</time></trkpt><trkpt lat="42.6977081" lon="18.0153637"><ele>56.33333333333333</ele><time>2026-05-04T12:11:28.636Z</time></trkpt><trkpt lat="42.6978184" lon="18.0152016"><ele>60.66666666666667</ele><time>2026-05-04T12:11:29.637Z</time></trkpt><trkpt lat="42.6979303" lon="18.0150388"><ele>65.0</ele><time>2026-05-04T12:11:30.639Z</time></trkpt><trkpt lat="42.6980361" lon="18.0148568"><ele>65.0</ele><time>2026-05-04T12:11:31.636Z</time></trkpt><trkpt lat="42.6981391" lon="18.0146672"><ele>65.0</ele><time>2026-05-04T12:11:32.638Z</time></trkpt><trkpt lat="42.6982395" lon="18.0144703"><ele>65.0</ele><time>2026-05-04T12:11:33.637Z</time></trkpt><trkpt lat="42.6983366" lon="18.0142779"><ele>69.0</ele><time>2026-05-04T12:11:34.639Z</time></trkpt><trkpt lat="42.6984354" lon="18.0140839"><ele>73.0</ele><time>2026-05-04T12:11:35.641Z</time></trkpt><trkpt lat="42.6985361" lon="18.0138867"><ele>77.0</ele><time>2026-05-04T12:11:36.637Z</time></trkpt><trkpt lat="42.6986467" lon="18.0136885"><ele>77.0</ele><time>2026-05-04T12:11:37.635Z</time></trkpt><trkpt lat="42.6987549" lon="18.0135051"><ele>77.0</ele><time>2026-05-04T12:11:38.638Z</time></trkpt><trkpt lat="42.6988623" lon="18.0133154"><ele>77.0</ele><time>2026-05-04T12:11:39.636Z</time></trkpt><trkpt lat="42.6989731" lon="18.013126"><ele>70.66666666666667</ele><time>2026-05-04T12:11:40.638Z</time></trkpt><trkpt lat="42.6990976" lon="18.0129234"><ele>64.33333333333333</ele><time>2026-05-04T12:11:41.636Z</time></trkpt><trkpt lat="42.6992214" lon="18.0127211"><ele>58.0</ele><time>2026-05-04T12:11:42.636Z</time></trkpt><trkpt lat="42.699343" lon="18.0125199"><ele>62.666666666666664</ele><time>2026-05-04T12:11:43.637Z</time></trkpt><trkpt lat="42.6994611" lon="18.0123212"><ele>67.33333333333333</ele><time>2026-05-04T12:11:44.637Z</time></trkpt><trkpt lat="42.6995731" lon="18.0121185"><ele>72.0</ele><time>2026-05-04T12:11:45.636Z</time></trkpt><trkpt lat="42.6996791" lon="18.0119171"><ele>72.0</ele><time>2026-05-04T12:11:46.636Z</time></trkpt><trkpt lat="42.6997737" lon="18.0117079"><ele>72.0</ele><time>2026-05-04T12:11:47.636Z</time></trkpt><trkpt lat="42.6998479" lon="18.0114973"><ele>72.0</ele><time>2026-05-04T12:11:48.639Z</time></trkpt><trkpt lat="42.6999068" lon="18.0112769"><ele>71.0</ele><time>2026-05-04T12:11:49.636Z</time></trkpt><trkpt lat="42.6999515" lon="18.0110376"><ele>70.0</ele><time>2026-05-04T12:11:50.638Z</time></trkpt><trkpt lat="42.699983" lon="18.0107888"><ele>69.0</ele><time>2026-05-04T12:11:51.636Z</time></trkpt><trkpt lat="42.6999943" lon="18.01053"><ele>69.0</ele><time>2026-05-04T12:11:52.637Z</time></trkpt><trkpt lat="42.699987" lon="18.0102682"><ele>69.0</ele><time>2026-05-04T12:11:53.636Z</time></trkpt><trkpt lat="42.6999603" lon="18.0100062"><ele>69.0</ele><time>2026-05-04T12:11:54.64Z</time></trkpt><trkpt lat="42.6999219" lon="18.0097486"><ele>70.0</ele><time>2026-05-04T12:11:55.636Z</time></trkpt><trkpt lat="42.69988" lon="18.0094979"><ele>71.0</ele><time>2026-05-04T12:11:56.637Z</time></trkpt><trkpt lat="42.6998383" lon="18.009262"><ele>72.0</ele><time>2026-05-04T12:11:57.636Z</time></trkpt><trkpt lat="42.6997961" lon="18.0090409"><ele>73.33333333333333</ele><time>2026-05-04T12:11:58.636Z</time></trkpt><trkpt lat="42.6997521" lon="18.0088242"><ele>74.66666666666666</ele><time>2026-05-04T12:11:59.632Z</time></trkpt><trkpt lat="42.6997097" lon="18.0086115"><ele>76.0</ele><time>2026-05-04T12:12:00.636Z</time></trkpt><trkpt lat="42.6996701" lon="18.0084049"><ele>77.33333333333333</ele><time>2026-05-04T12:12:01.638Z</time></trkpt><trkpt lat="42.6996365" lon="18.0082002"><ele>78.66666666666667</ele><time>2026-05-04T12:12:02.639Z</time></trkpt><trkpt lat="42.6996085" lon="18.0079837"><ele>80.0</ele><time>2026-05-04T12:12:03.637Z</time></trkpt><trkpt lat="42.699587" lon="18.0077738"><ele>80.0</ele><time>2026-05-04T12:12:04.636Z</time></trkpt><trkpt lat="42.6995701" lon="18.0075629"><ele>80.0</ele><time>2026-05-04T12:12:05.636Z</time></trkpt><trkpt lat="42.6995647" lon="18.0073555"><ele>80.0</ele><time>2026-05-04T12:12:06.636Z</time></trkpt><trkpt lat="42.6995665" lon="18.007152"><ele>80.0</ele><time>2026-05-04T12:12:07.638Z</time></trkpt><trkpt lat="42.6995801" lon="18.0069463"><ele>80.0</ele><time>2026-05-04T12:12:08.635Z</time></trkpt><trkpt lat="42.6996001" lon="18.0067448"><ele>80.0</ele><time>2026-05-04T12:12:09.637Z</time></trkpt><trkpt lat="42.6996295" lon="18.0065446"><ele>80.66666666666667</ele><time>2026-05-04T12:12:10.638Z</time></trkpt><trkpt lat="42.6996665" lon="18.0063537"><ele>81.33333333333333</ele><time>2026-05-04T12:12:11.64Z</time></trkpt><trkpt lat="42.699714" lon="18.0061608"><ele>82.0</ele><time>2026-05-04T12:12:12.637Z</time></trkpt><trkpt lat="42.6997726" lon="18.005963"><ele>83.0</ele><time>2026-05-04T12:12:13.636Z</time></trkpt><trkpt lat="42.6998367" lon="18.0057724"><ele>84.0</ele><time>2026-05-04T12:12:14.636Z</time></trkpt><trkpt lat="42.6999097" lon="18.0055849"><ele>85.0</ele><time>2026-05-04T12:12:15.639Z</time></trkpt><trkpt lat="42.699989" lon="18.005404"><ele>85.0</ele><time>2026-05-04T12:12:16.638Z</time></trkpt><trkpt lat="42.7000742" lon="18.0052308"><ele>85.0</ele><time>2026-05-04T12:12:17.636Z</time></trkpt><trkpt lat="42.7001595" lon="18.0050665"><ele>85.0</ele><time>2026-05-04T12:12:18.637Z</time></trkpt><trkpt lat="42.7002426" lon="18.0049123"><ele>85.0</ele><time>2026-05-04T12:12:19.637Z</time></trkpt><trkpt lat="42.7003216" lon="18.0047745"><ele>87.5</ele><time>2026-05-04T12:12:20.635Z</time></trkpt><trkpt lat="42.7003905" lon="18.0046658"><ele>90.0</ele><time>2026-05-04T12:12:21.633Z</time></trkpt><trkpt lat="42.7004603" lon="18.0045622"><ele>92.5</ele><time>2026-05-04T12:12:22.638Z</time></trkpt><trkpt lat="42.700534" lon="18.0044599"><ele>95.0</ele><time>2026-05-04T12:12:24.636Z</time></trkpt><trkpt lat="42.7006103" lon="18.0042454"><ele>95.0</ele><time>2026-05-04T12:27:55.62Z</time></trkpt><trkpt lat="42.7007141" lon="18.0040246"><ele>95.0</ele><time>2026-05-04T12:27:56.621Z</time></trkpt><trkpt lat="42.7008299" lon="18.0038207"><ele>95.0</ele><time>2026-05-04T12:27:57.62Z</time></trkpt><trkpt lat="42.7009221" lon="18.0036603"><ele>95.0</ele><time>2026-05-04T12:27:58.621Z</time></trkpt><trkpt lat="42.7010153" lon="18.0034968"><ele>95.0</ele><time>2026-05-04T12:27:59.621Z</time></trkpt><trkpt lat="42.7010975" lon="18.0033514"><ele>95.0</ele><time>2026-05-04T12:28:00.62Z</time></trkpt><trkpt lat="42.7011764" lon="18.0031923"><ele>95.0</ele><time>2026-05-04T12:28:01.62Z</time></trkpt><trkpt lat="42.701259" lon="18.00304"><ele>97.0</ele><time>2026-05-04T12:28:02.62Z</time></trkpt><trkpt lat="42.7013424" lon="18.0028881"><ele>99.0</ele><time>2026-05-04T12:28:03.621Z</time></trkpt><trkpt lat="42.7014281" lon="18.0027367"><ele>101.0</ele><time>2026-05-04T12:28:04.62Z</time></trkpt><trkpt lat="42.7015103" lon="18.0025785"><ele>103.0</ele><time>2026-05-04T12:28:05.621Z</time></trkpt><trkpt lat="42.701592" lon="18.0024209"><ele>105.25</ele><time>2026-05-04T12:28:06.62Z</time></trkpt><trkpt lat="42.7016761" lon="18.0022631"><ele>107.5</ele><time>2026-05-04T12:28:07.621Z</time></trkpt><trkpt lat="42.7017619" lon="18.0021038"><ele>109.75</ele><time>2026-05-04T12:28:08.621Z</time></trkpt><trkpt lat="42.7018422" lon="18.0019373"><ele>112.0</ele><time>2026-05-04T12:28:09.621Z</time></trkpt><trkpt lat="42.7019255" lon="18.0017716"><ele>114.0</ele><time>2026-05-04T12:28:10.62Z</time></trkpt><trkpt lat="42.7020095" lon="18.0015984"><ele>116.0</ele><time>2026-05-04T12:28:11.621Z</time></trkpt><trkpt lat="42.7020939" lon="18.0014219"><ele>118.0</ele><time>2026-05-04T12:28:12.621Z</time></trkpt><trkpt lat="42.7021746" lon="18.0012296"><ele>118.0</ele><time>2026-05-04T12:28:13.62Z</time></trkpt><trkpt lat="42.7022503" lon="18.0010198"><ele>118.0</ele><time>2026-05-04T12:28:14.621Z</time></trkpt><trkpt lat="42.702319" lon="18.0007984"><ele>118.0</ele><time>2026-05-04T12:28:15.621Z</time></trkpt><trkpt lat="42.7023854" lon="18.0005667"><ele>118.0</ele><time>2026-05-04T12:28:16.62Z</time></trkpt><trkpt lat="42.7024446" lon="18.0003287"><ele>118.0</ele><time>2026-05-04T12:28:17.621Z</time></trkpt><trkpt lat="42.7024928" lon="18.0000955"><ele>118.0</ele><time>2026-05-04T12:28:18.62Z</time></trkpt><trkpt lat="42.7025325" lon="17.9998554"><ele>118.0</ele><time>2026-05-04T12:28:19.62Z</time></trkpt><trkpt lat="42.7025657" lon="17.9996216"><ele>118.0</ele><time>2026-05-04T12:28:20.62Z</time></trkpt><trkpt lat="42.7025929" lon="17.9993805"><ele>118.0</ele><time>2026-05-04T12:28:21.62Z</time></trkpt><trkpt lat="42.7026144" lon="17.9991355"><ele>118.0</ele><time>2026-05-04T12:28:22.62Z</time></trkpt><trkpt lat="42.7026331" lon="17.99889"><ele>118.0</ele><time>2026-05-04T12:28:23.621Z</time></trkpt><trkpt lat="42.7026519" lon="17.9986451"><ele>118.0</ele><time>2026-05-04T12:28:24.621Z</time></trkpt><trkpt lat="42.7026711" lon="17.9984006"><ele>118.0</ele><time>2026-05-04T12:28:25.621Z</time></trkpt><trkpt lat="42.7026917" lon="17.9981563"><ele>118.0</ele><time>2026-05-04T12:28:26.621Z</time></trkpt><trkpt lat="42.7027109" lon="17.9979066"><ele>118.0</ele><time>2026-05-04T12:28:27.62Z</time></trkpt><trkpt lat="42.702734" lon="17.9976596"><ele>118.0</ele><time>2026-05-04T12:28:28.621Z</time></trkpt><trkpt lat="42.7027623" lon="17.9974084"><ele>118.0</ele><time>2026-05-04T12:28:29.621Z</time></trkpt><trkpt lat="42.7027946" lon="17.997156"><ele>118.0</ele><time>2026-05-04T12:28:30.62Z</time></trkpt><trkpt lat="42.7028306" lon="17.9969028"><ele>118.0</ele><time>2026-05-04T12:28:31.62Z</time></trkpt><trkpt lat="42.702872" lon="17.9966501"><ele>118.0</ele><time>2026-05-04T12:28:32.621Z</time></trkpt><trkpt lat="42.7029216" lon="17.9963922"><ele>118.0</ele><time>2026-05-04T12:28:33.62Z</time></trkpt><trkpt lat="42.7029788" lon="17.9961325"><ele>118.0</ele><time>2026-05-04T12:28:34.621Z</time></trkpt><trkpt lat="42.7030412" lon="17.9958704"><ele>118.0</ele><time>2026-05-04T12:28:35.621Z</time></trkpt><trkpt lat="42.7031056" lon="17.9956066"><ele>118.0</ele><time>2026-05-04T12:28:36.621Z</time></trkpt><trkpt lat="42.7031742" lon="17.9953453"><ele>118.0</ele><time>2026-05-04T12:28:37.621Z</time></trkpt><trkpt lat="42.7032411" lon="17.9950828"><ele>118.0</ele><time>2026-05-04T12:28:38.62Z</time></trkpt><trkpt lat="42.7033113" lon="17.9948211"><ele>118.0</ele><time>2026-05-04T12:28:39.62Z</time></trkpt><trkpt lat="42.7033765" lon="17.9945478"><ele>118.0</ele><time>2026-05-04T12:28:40.62Z</time></trkpt><trkpt lat="42.7034411" lon="17.9942717"><ele>118.0</ele><time>2026-05-04T12:28:41.621Z</time></trkpt><trkpt lat="42.7034999" lon="17.9939918"><ele>118.0</ele><time>2026-05-04T12:28:42.621Z</time></trkpt><trkpt lat="42.7035543" lon="17.9937092"><ele>118.0</ele><time>2026-05-04T12:28:43.62Z</time></trkpt><trkpt lat="42.7036022" lon="17.9934203"><ele>118.0</ele><time>2026-05-04T12:28:44.62Z</time></trkpt><trkpt lat="42.703648" lon="17.993136"><ele>118.0</ele><time>2026-05-04T12:28:45.62Z</time></trkpt><trkpt lat="42.7036873" lon="17.9928537"><ele>118.0</ele><time>2026-05-04T12:28:46.621Z</time></trkpt><trkpt lat="42.7037245" lon="17.9925733"><ele>118.0</ele><time>2026-05-04T12:28:47.621Z</time></trkpt><trkpt lat="42.7037613" lon="17.9923018"><ele>118.0</ele><time>2026-05-04T12:28:48.62Z</time></trkpt><trkpt lat="42.7037956" lon="17.9920296"><ele>118.0</ele><time>2026-05-04T12:28:49.621Z</time></trkpt><trkpt lat="42.7038337" lon="17.9917719"><ele>118.0</ele><time>2026-05-04T12:28:50.62Z</time></trkpt><trkpt lat="42.7038814" lon="17.9915277"><ele>118.0</ele><time>2026-05-04T12:28:51.62Z</time></trkpt><trkpt lat="42.7039388" lon="17.9912916"><ele>118.0</ele><time>2026-05-04T12:28:52.621Z</time></trkpt><trkpt lat="42.7040172" lon="17.9910604"><ele>118.0</ele><time>2026-05-04T12:28:53.62Z</time></trkpt><trkpt lat="42.7041055" lon="17.990838"><ele>118.0</ele><time>2026-05-04T12:28:54.621Z</time></trkpt><trkpt lat="42.7042127" lon="17.9906253"><ele>118.0</ele><time>2026-05-04T12:28:55.621Z</time></trkpt><trkpt lat="42.7043305" lon="17.9904306"><ele>118.0</ele><time>2026-05-04T12:28:56.62Z</time></trkpt><trkpt lat="42.7044611" lon="17.9902461"><ele>118.0</ele><time>2026-05-04T12:28:57.621Z</time></trkpt><trkpt lat="42.7046033" lon="17.9900757"><ele>118.0</ele><time>2026-05-04T12:28:58.621Z</time></trkpt><trkpt lat="42.7047555" lon="17.9899233"><ele>118.0</ele><time>2026-05-04T12:28:59.621Z</time></trkpt><trkpt lat="42.7049198" lon="17.9897832"><ele>118.0</ele><time>2026-05-04T12:29:00.62Z</time></trkpt><trkpt lat="42.7050911" lon="17.9896518"><ele>118.0</ele><time>2026-05-04T12:29:01.621Z</time></trkpt><trkpt lat="42.7052604" lon="17.989519"><ele>118.0</ele><time>2026-05-04T12:29:02.62Z</time></trkpt><trkpt lat="42.7054247" lon="17.9893634"><ele>118.0</ele><time>2026-05-04T12:29:03.62Z</time></trkpt><trkpt lat="42.7055689" lon="17.9891804"><ele>118.0</ele><time>2026-05-04T12:29:04.621Z</time></trkpt><trkpt lat="42.7056979" lon="17.988968"><ele>118.0</ele><time>2026-05-04T12:29:05.62Z</time></trkpt><trkpt lat="42.7058097" lon="17.9887217"><ele>118.0</ele><time>2026-05-04T12:29:06.621Z</time></trkpt><trkpt lat="42.7059055" lon="17.9884566"><ele>118.0</ele><time>2026-05-04T12:29:07.621Z</time></trkpt><trkpt lat="42.7059885" lon="17.9881809"><ele>118.0</ele><time>2026-05-04T12:29:08.62Z</time></trkpt><trkpt lat="42.7060648" lon="17.9879028"><ele>118.0</ele><time>2026-05-04T12:29:09.62Z</time></trkpt><trkpt lat="42.7061364" lon="17.9876276"><ele>118.0</ele><time>2026-05-04T12:29:10.62Z</time></trkpt><trkpt lat="42.7062145" lon="17.9873518"><ele>118.0</ele><time>2026-05-04T12:29:11.621Z</time></trkpt><trkpt lat="42.7062938" lon="17.9870804"><ele>118.0</ele><time>2026-05-04T12:29:12.621Z</time></trkpt><trkpt lat="42.7063808" lon="17.9868146"><ele>118.0</ele><time>2026-05-04T12:29:13.62Z</time></trkpt><trkpt lat="42.706475" lon="17.9865615"><ele>118.0</ele><time>2026-05-04T12:29:14.62Z</time></trkpt><trkpt lat="42.7065835" lon="17.986318"><ele>118.0</ele><time>2026-05-04T12:29:15.62Z</time></trkpt><trkpt lat="42.7066972" lon="17.9860778"><ele>118.0</ele><time>2026-05-04T12:29:16.62Z</time></trkpt><trkpt lat="42.7068351" lon="17.9858549"><ele>118.0</ele><time>2026-05-04T12:29:17.621Z</time></trkpt><trkpt lat="42.706984" lon="17.9856253"><ele>118.0</ele><time>2026-05-04T12:29:18.62Z</time></trkpt><trkpt lat="42.7071424" lon="17.9853946"><ele>118.0</ele><time>2026-05-04T12:29:19.621Z</time></trkpt><trkpt lat="42.7073032" lon="17.9851625"><ele>118.0</ele><time>2026-05-04T12:29:20.621Z</time></trkpt><trkpt lat="42.7074658" lon="17.9849285"><ele>118.0</ele><time>2026-05-04T12:29:21.62Z</time></trkpt><trkpt lat="42.7076318" lon="17.9846997"><ele>118.0</ele><time>2026-05-04T12:29:22.62Z</time></trkpt><trkpt lat="42.7077956" lon="17.9844622"><ele>115.5</ele><time>2026-05-04T12:29:23.62Z</time></trkpt><trkpt lat="42.7079569" lon="17.9842275"><ele>113.0</ele><time>2026-05-04T12:29:24.62Z</time></trkpt><trkpt lat="42.7081175" lon="17.9840024"><ele>113.0</ele><time>2026-05-04T12:29:25.62Z</time></trkpt><trkpt lat="42.7082797" lon="17.9837732"><ele>113.0</ele><time>2026-05-04T12:29:26.621Z</time></trkpt><trkpt lat="42.7084433" lon="17.9835433"><ele>119.0</ele><time>2026-05-04T12:29:27.621Z</time></trkpt><trkpt lat="42.7086149" lon="17.9833142"><ele>125.0</ele><time>2026-05-04T12:29:28.621Z</time></trkpt><trkpt lat="42.7087782" lon="17.9830926"><ele>125.0</ele><time>2026-05-04T12:29:29.621Z</time></trkpt><trkpt lat="42.7089412" lon="17.9828733"><ele>125.0</ele><time>2026-05-04T12:29:30.621Z</time></trkpt><trkpt lat="42.7091217" lon="17.9826651"><ele>123.0</ele><time>2026-05-04T12:29:31.621Z</time></trkpt><trkpt lat="42.7092995" lon="17.9824575"><ele>121.0</ele><time>2026-05-04T12:29:32.621Z</time></trkpt><trkpt lat="42.7094896" lon="17.9822669"><ele>121.0</ele><time>2026-05-04T12:29:33.62Z</time></trkpt><trkpt lat="42.7096721" lon="17.9820665"><ele>121.0</ele><time>2026-05-04T12:29:34.62Z</time></trkpt><trkpt lat="42.7098573" lon="17.9818792"><ele>121.0</ele><time>2026-05-04T12:29:35.621Z</time></trkpt><trkpt lat="42.7100389" lon="17.981682"><ele>121.0</ele><time>2026-05-04T12:29:36.621Z</time></trkpt><trkpt lat="42.7102192" lon="17.9814994"><ele>119.0</ele><time>2026-05-04T12:29:37.621Z</time></trkpt><trkpt lat="42.7103886" lon="17.9813198"><ele>117.0</ele><time>2026-05-04T12:29:38.621Z</time></trkpt><trkpt lat="42.7105553" lon="17.9811532"><ele>115.0</ele><time>2026-05-04T12:29:39.621Z</time></trkpt><trkpt lat="42.710717" lon="17.9809823"><ele>114.33333333333334</ele><time>2026-05-04T12:29:40.62Z</time></trkpt><trkpt lat="42.710884" lon="17.9808196"><ele>113.66666666666666</ele><time>2026-05-04T12:29:41.62Z</time></trkpt><trkpt lat="42.7110544" lon="17.9806593"><ele>113.0</ele><time>2026-05-04T12:29:42.62Z</time></trkpt><trkpt lat="42.7112242" lon="17.9805043"><ele>113.0</ele><time>2026-05-04T12:29:43.62Z</time></trkpt><trkpt lat="42.7113974" lon="17.9803517"><ele>113.0</ele><time>2026-05-04T12:29:44.62Z</time></trkpt><trkpt lat="42.7115583" lon="17.9801972"><ele>113.0</ele><time>2026-05-04T12:29:45.621Z</time></trkpt><trkpt lat="42.7117162" lon="17.9800509"><ele>111.66666666666666</ele><time>2026-05-04T12:29:46.621Z</time></trkpt><trkpt lat="42.7118681" lon="17.979918"><ele>110.33333333333334</ele><time>2026-05-04T12:29:47.621Z</time></trkpt><trkpt lat="42.7120137" lon="17.9797988"><ele>109.0</ele><time>2026-05-04T12:29:48.621Z</time></trkpt><trkpt lat="42.7121569" lon="17.9796974"><ele>109.0</ele><time>2026-05-04T12:29:49.62Z</time></trkpt><trkpt lat="42.7123078" lon="17.9796264"><ele>109.0</ele><time>2026-05-04T12:29:50.62Z</time></trkpt><trkpt lat="42.7124628" lon="17.9795798"><ele>109.0</ele><time>2026-05-04T12:29:51.621Z</time></trkpt><trkpt lat="42.7126234" lon="17.979565"><ele>107.33333333333334</ele><time>2026-05-04T12:29:52.62Z</time></trkpt><trkpt lat="42.7127832" lon="17.9795667"><ele>105.66666666666666</ele><time>2026-05-04T12:29:53.621Z</time></trkpt><trkpt lat="42.7129497" lon="17.9795782"><ele>104.0</ele><time>2026-05-04T12:29:54.62Z</time></trkpt><trkpt lat="42.7131033" lon="17.9795956"><ele>104.0</ele><time>2026-05-04T12:29:55.621Z</time></trkpt><trkpt lat="42.7132488" lon="17.9796037"><ele>104.0</ele><time>2026-05-04T12:29:56.62Z</time></trkpt><trkpt lat="42.7133915" lon="17.9796081"><ele>104.0</ele><time>2026-05-04T12:29:57.62Z</time></trkpt><trkpt lat="42.7135281" lon="17.9795844"><ele>104.0</ele><time>2026-05-04T12:29:58.621Z</time></trkpt><trkpt lat="42.7136549" lon="17.9795438"><ele>104.5</ele><time>2026-05-04T12:29:59.621Z</time></trkpt><trkpt lat="42.713771" lon="17.97947"><ele>105.0</ele><time>2026-05-04T12:30:00.62Z</time></trkpt><trkpt lat="42.7138732" lon="17.9793623"><ele>105.5</ele><time>2026-05-04T12:30:01.621Z</time></trkpt><trkpt lat="42.7139701" lon="17.9792344"><ele>106.0</ele><time>2026-05-04T12:30:02.621Z</time></trkpt><trkpt lat="42.7140566" lon="17.9790967"><ele>104.75</ele><time>2026-05-04T12:30:03.62Z</time></trkpt><trkpt lat="42.7141416" lon="17.9789533"><ele>103.5</ele><time>2026-05-04T12:30:04.62Z</time></trkpt><trkpt lat="42.7142226" lon="17.9788086"><ele>102.25</ele><time>2026-05-04T12:30:05.62Z</time></trkpt><trkpt lat="42.7143019" lon="17.9786693"><ele>101.0</ele><time>2026-05-04T12:30:06.62Z</time></trkpt><trkpt lat="42.7143772" lon="17.9785235"><ele>104.33333333333333</ele><time>2026-05-04T12:30:07.621Z</time></trkpt><trkpt lat="42.7144576" lon="17.9783568"><ele>107.66666666666666</ele><time>2026-05-04T12:30:08.62Z</time></trkpt><trkpt lat="42.7145472" lon="17.9781637"><ele>111.0</ele><time>2026-05-04T12:30:09.62Z</time></trkpt><trkpt lat="42.7146437" lon="17.9779725"><ele>111.0</ele><time>2026-05-04T12:30:10.621Z</time></trkpt><trkpt lat="42.7147368" lon="17.9777864"><ele>111.0</ele><time>2026-05-04T12:30:11.62Z</time></trkpt><trkpt lat="42.714824" lon="17.9775999"><ele>111.0</ele><time>2026-05-04T12:30:12.621Z</time></trkpt><trkpt lat="42.7149063" lon="17.9773709"><ele>107.0</ele><time>2026-05-04T12:30:13.62Z</time></trkpt><trkpt lat="42.7149882" lon="17.9771066"><ele>103.0</ele><time>2026-05-04T12:30:14.621Z</time></trkpt><trkpt lat="42.715077" lon="17.9768361"><ele>99.0</ele><time>2026-05-04T12:30:15.62Z</time></trkpt><trkpt lat="42.7151577" lon="17.9765523"><ele>98.0</ele><time>2026-05-04T12:30:16.621Z</time></trkpt><trkpt lat="42.7152334" lon="17.9762712"><ele>97.0</ele><time>2026-05-04T12:30:17.621Z</time></trkpt><trkpt lat="42.7153043" lon="17.9759865"><ele>96.0</ele><time>2026-05-04T12:30:18.62Z</time></trkpt><trkpt lat="42.7153683" lon="17.9757087"><ele>100.0</ele><time>2026-05-04T12:30:19.62Z</time></trkpt><trkpt lat="42.7154223" lon="17.9754201"><ele>104.0</ele><time>2026-05-04T12:30:20.621Z</time></trkpt><trkpt lat="42.7154535" lon="17.9751354"><ele>108.0</ele><time>2026-05-04T12:30:21.62Z</time></trkpt><trkpt lat="42.7154651" lon="17.9748476"><ele>108.0</ele><time>2026-05-04T12:30:22.621Z</time></trkpt><trkpt lat="42.7154512" lon="17.9745643"><ele>108.0</ele><time>2026-05-04T12:30:23.621Z</time></trkpt><trkpt lat="42.7154051" lon="17.9742849"><ele>108.0</ele><time>2026-05-04T12:30:24.62Z</time></trkpt><trkpt lat="42.7153427" lon="17.9740089"><ele>108.0</ele><time>2026-05-04T12:30:25.62Z</time></trkpt><trkpt lat="42.7152655" lon="17.9737396"><ele>108.0</ele><time>2026-05-04T12:30:26.62Z</time></trkpt><trkpt lat="42.715187" lon="17.9734863"><ele>108.0</ele><time>2026-05-04T12:30:27.62Z</time></trkpt><trkpt lat="42.7151115" lon="17.9732437"><ele>107.0</ele><time>2026-05-04T12:30:28.621Z</time></trkpt><trkpt lat="42.7150485" lon="17.9730021"><ele>106.0</ele><time>2026-05-04T12:30:29.62Z</time></trkpt><trkpt lat="42.7149987" lon="17.9727537"><ele>105.0</ele><time>2026-05-04T12:30:30.62Z</time></trkpt><trkpt lat="42.7149684" lon="17.9725041"><ele>105.0</ele><time>2026-05-04T12:30:31.62Z</time></trkpt><trkpt lat="42.7149595" lon="17.9722494"><ele>105.0</ele><time>2026-05-04T12:30:32.62Z</time></trkpt><trkpt lat="42.7149603" lon="17.9720038"><ele>105.0</ele><time>2026-05-04T12:30:33.62Z</time></trkpt><trkpt lat="42.7149867" lon="17.9717643"><ele>104.66666666666666</ele><time>2026-05-04T12:30:34.62Z</time></trkpt><trkpt lat="42.7150326" lon="17.9715209"><ele>104.33333333333333</ele><time>2026-05-04T12:30:35.621Z</time></trkpt><trkpt lat="42.7150873" lon="17.9712801"><ele>104.0</ele><time>2026-05-04T12:30:36.62Z</time></trkpt><trkpt lat="42.7151654" lon="17.971049"><ele>110.33333333333333</ele><time>2026-05-04T12:30:37.621Z</time></trkpt><trkpt lat="42.7152659" lon="17.9708214"><ele>116.66666666666666</ele><time>2026-05-04T12:30:38.621Z</time></trkpt><trkpt lat="42.7153726" lon="17.970592"><ele>123.0</ele><time>2026-05-04T12:30:39.621Z</time></trkpt><trkpt lat="42.7154844" lon="17.9703699"><ele>123.0</ele><time>2026-05-04T12:30:40.621Z</time></trkpt><trkpt lat="42.7155984" lon="17.970151"><ele>123.0</ele><time>2026-05-04T12:30:41.621Z</time></trkpt><trkpt lat="42.715714" lon="17.9699317"><ele>123.0</ele><time>2026-05-04T12:30:42.621Z</time></trkpt><trkpt lat="42.7158338" lon="17.9697131"><ele>123.66666666666666</ele><time>2026-05-04T12:30:43.62Z</time></trkpt><trkpt lat="42.7159552" lon="17.9694975"><ele>124.33333333333333</ele><time>2026-05-04T12:30:44.62Z</time></trkpt><trkpt lat="42.716081" lon="17.9692808"><ele>125.0</ele><time>2026-05-04T12:30:45.621Z</time></trkpt><trkpt lat="42.7162141" lon="17.9690751"><ele>125.0</ele><time>2026-05-04T12:30:46.62Z</time></trkpt><trkpt lat="42.716345" lon="17.9688664"><ele>125.0</ele><time>2026-05-04T12:30:47.62Z</time></trkpt><trkpt lat="42.7164948" lon="17.9686577"><ele>125.0</ele><time>2026-05-04T12:30:48.62Z</time></trkpt><trkpt lat="42.7166414" lon="17.9684599"><ele>127.33333333333333</ele><time>2026-05-04T12:30:49.621Z</time></trkpt><trkpt lat="42.7167808" lon="17.9682751"><ele>129.66666666666666</ele><time>2026-05-04T12:30:50.621Z</time></trkpt><trkpt lat="42.7169256" lon="17.9680935"><ele>132.0</ele><time>2026-05-04T12:30:51.62Z</time></trkpt><trkpt lat="42.7170659" lon="17.9679135"><ele>132.0</ele><time>2026-05-04T12:30:52.62Z</time></trkpt><trkpt lat="42.7172103" lon="17.9677386"><ele>132.0</ele><time>2026-05-04T12:30:53.62Z</time></trkpt><trkpt lat="42.7173699" lon="17.967574"><ele>132.0</ele><time>2026-05-04T12:30:54.621Z</time></trkpt><trkpt lat="42.7175215" lon="17.9674029"><ele>131.33333333333334</ele><time>2026-05-04T12:30:55.621Z</time></trkpt><trkpt lat="42.7176757" lon="17.9672424"><ele>130.66666666666669</ele><time>2026-05-04T12:30:56.62Z</time></trkpt><trkpt lat="42.7178331" lon="17.9670786"><ele>130.0</ele><time>2026-05-04T12:30:57.621Z</time></trkpt><trkpt lat="42.7179824" lon="17.9669187"><ele>130.0</ele><time>2026-05-04T12:30:58.62Z</time></trkpt><trkpt lat="42.7181452" lon="17.9667912"><ele>130.0</ele><time>2026-05-04T12:30:59.621Z</time></trkpt><trkpt lat="42.7183003" lon="17.9666631"><ele>130.0</ele><time>2026-05-04T12:31:00.62Z</time></trkpt><trkpt lat="42.7184988" lon="17.9665944"><ele>122.0</ele><time>2026-05-04T12:31:01.621Z</time></trkpt><trkpt lat="42.7186818" lon="17.9665201"><ele>114.0</ele><time>2026-05-04T12:31:02.62Z</time></trkpt><trkpt lat="42.7188612" lon="17.9664686"><ele>106.0</ele><time>2026-05-04T12:31:03.62Z</time></trkpt><trkpt lat="42.7190407" lon="17.9664433"><ele>106.0</ele><time>2026-05-04T12:31:04.62Z</time></trkpt><trkpt lat="42.719216" lon="17.9664361"><ele>106.0</ele><time>2026-05-04T12:31:05.621Z</time></trkpt><trkpt lat="42.7193933" lon="17.9664758"><ele>106.0</ele><time>2026-05-04T12:31:06.62Z</time></trkpt><trkpt lat="42.7195673" lon="17.9665315"><ele>108.33333333333334</ele><time>2026-05-04T12:31:07.62Z</time></trkpt><trkpt lat="42.7197451" lon="17.9666097"><ele>110.66666666666666</ele><time>2026-05-04T12:31:08.621Z</time></trkpt><trkpt lat="42.7199153" lon="17.9667067"><ele>113.0</ele><time>2026-05-04T12:31:09.62Z</time></trkpt><trkpt lat="42.7200861" lon="17.9668084"><ele>111.33333333333333</ele><time>2026-05-04T12:31:10.621Z</time></trkpt><trkpt lat="42.7202553" lon="17.9669226"><ele>109.66666666666666</ele><time>2026-05-04T12:31:11.62Z</time></trkpt><trkpt lat="42.7204235" lon="17.967042"><ele>108.0</ele><time>2026-05-04T12:31:12.62Z</time></trkpt><trkpt lat="42.7205924" lon="17.9671576"><ele>108.0</ele><time>2026-05-04T12:31:13.621Z</time></trkpt><trkpt lat="42.7207573" lon="17.9672495"><ele>108.0</ele><time>2026-05-04T12:31:14.621Z</time></trkpt><trkpt lat="42.7209222" lon="17.9673234"><ele>108.0</ele><time>2026-05-04T12:31:15.62Z</time></trkpt><trkpt lat="42.7210915" lon="17.9673672"><ele>104.0</ele><time>2026-05-04T12:31:16.62Z</time></trkpt><trkpt lat="42.7212626" lon="17.9673892"><ele>100.0</ele><time>2026-05-04T12:31:17.62Z</time></trkpt><trkpt lat="42.7214292" lon="17.9673746"><ele>96.0</ele><time>2026-05-04T12:31:18.621Z</time></trkpt><trkpt lat="42.721592" lon="17.9673236"><ele>96.0</ele><time>2026-05-04T12:31:19.621Z</time></trkpt><trkpt lat="42.721748" lon="17.9672455"><ele>96.0</ele><time>2026-05-04T12:31:20.62Z</time></trkpt><trkpt lat="42.7218962" lon="17.9671253"><ele>96.0</ele><time>2026-05-04T12:31:21.621Z</time></trkpt><trkpt lat="42.7220268" lon="17.9669821"><ele>99.66666666666666</ele><time>2026-05-04T12:31:22.62Z</time></trkpt><trkpt lat="42.7221368" lon="17.9668056"><ele>103.33333333333333</ele><time>2026-05-04T12:31:23.621Z</time></trkpt><trkpt lat="42.7222305" lon="17.9666017"><ele>107.0</ele><time>2026-05-04T12:31:24.62Z</time></trkpt><trkpt lat="42.7223028" lon="17.9663743"><ele>107.0</ele><time>2026-05-04T12:31:25.621Z</time></trkpt><trkpt lat="42.7223557" lon="17.9661219"><ele>107.0</ele><time>2026-05-04T12:31:26.621Z</time></trkpt><trkpt lat="42.7223935" lon="17.9658635"><ele>107.0</ele><time>2026-05-04T12:31:27.62Z</time></trkpt><trkpt lat="42.7224132" lon="17.9656011"><ele>102.33333333333333</ele><time>2026-05-04T12:31:28.621Z</time></trkpt><trkpt lat="42.722427" lon="17.9653367"><ele>97.66666666666666</ele><time>2026-05-04T12:31:29.621Z</time></trkpt><trkpt lat="42.7224442" lon="17.965081"><ele>93.0</ele><time>2026-05-04T12:31:30.62Z</time></trkpt><trkpt lat="42.7224614" lon="17.9648225"><ele>91.66666666666667</ele><time>2026-05-04T12:31:31.621Z</time></trkpt><trkpt lat="42.7224807" lon="17.964555"><ele>90.33333333333334</ele><time>2026-05-04T12:31:32.62Z</time></trkpt><trkpt lat="42.7225081" lon="17.9642959"><ele>89.0</ele><time>2026-05-04T12:31:33.621Z</time></trkpt><trkpt lat="42.7225542" lon="17.9640462"><ele>90.66666666666667</ele><time>2026-05-04T12:31:34.621Z</time></trkpt><trkpt lat="42.7226163" lon="17.9637968"><ele>92.33333333333333</ele><time>2026-05-04T12:31:35.621Z</time></trkpt><trkpt lat="42.7226925" lon="17.963552"><ele>94.0</ele><time>2026-05-04T12:31:36.621Z</time></trkpt><trkpt lat="42.7227974" lon="17.9633235"><ele>94.0</ele><time>2026-05-04T12:31:37.621Z</time></trkpt><trkpt lat="42.722915" lon="17.9631094"><ele>94.0</ele><time>2026-05-04T12:31:38.621Z</time></trkpt><trkpt lat="42.7230431" lon="17.9629097"><ele>94.0</ele><time>2026-05-04T12:31:39.62Z</time></trkpt><trkpt lat="42.7231844" lon="17.9627131"><ele>94.0</ele><time>2026-05-04T12:31:40.62Z</time></trkpt><trkpt lat="42.7233363" lon="17.9625209"><ele>94.0</ele><time>2026-05-04T12:31:41.621Z</time></trkpt><trkpt lat="42.7235119" lon="17.9623467"><ele>94.0</ele><time>2026-05-04T12:31:42.621Z</time></trkpt><trkpt lat="42.7237005" lon="17.9621846"><ele>94.0</ele><time>2026-05-04T12:31:43.62Z</time></trkpt><trkpt lat="42.7238932" lon="17.9620268"><ele>94.0</ele><time>2026-05-04T12:31:44.621Z</time></trkpt><trkpt lat="42.7240899" lon="17.9618815"><ele>94.0</ele><time>2026-05-04T12:31:45.62Z</time></trkpt><trkpt lat="42.7242901" lon="17.9617382"><ele>93.66666666666666</ele><time>2026-05-04T12:31:46.621Z</time></trkpt><trkpt lat="42.7244845" lon="17.9615941"><ele>93.33333333333333</ele><time>2026-05-04T12:31:47.621Z</time></trkpt><trkpt lat="42.7246757" lon="17.9614534"><ele>93.0</ele><time>2026-05-04T12:31:48.621Z</time></trkpt><trkpt lat="42.724869" lon="17.961311"><ele>93.0</ele><time>2026-05-04T12:31:49.621Z</time></trkpt><trkpt lat="42.7250717" lon="17.9611829"><ele>93.0</ele><time>2026-05-04T12:31:50.62Z</time></trkpt><trkpt lat="42.7252609" lon="17.9610424"><ele>93.0</ele><time>2026-05-04T12:31:51.62Z</time></trkpt><trkpt lat="42.7254492" lon="17.9609035"><ele>90.33333333333333</ele><time>2026-05-04T12:31:52.621Z</time></trkpt><trkpt lat="42.7256314" lon="17.9607658"><ele>87.66666666666666</ele><time>2026-05-04T12:31:53.621Z</time></trkpt><trkpt lat="42.725806" lon="17.9606313"><ele>85.0</ele><time>2026-05-04T12:31:54.62Z</time></trkpt><trkpt lat="42.7259793" lon="17.9604948"><ele>88.0</ele><time>2026-05-04T12:31:55.621Z</time></trkpt><trkpt lat="42.7261483" lon="17.96036"><ele>91.0</ele><time>2026-05-04T12:31:56.621Z</time></trkpt><trkpt lat="42.7263167" lon="17.9602245"><ele>94.0</ele><time>2026-05-04T12:31:57.62Z</time></trkpt><trkpt lat="42.7264856" lon="17.9600881"><ele>92.66666666666666</ele><time>2026-05-04T12:31:58.62Z</time></trkpt><trkpt lat="42.7266449" lon="17.9599459"><ele>91.33333333333333</ele><time>2026-05-04T12:31:59.62Z</time></trkpt><trkpt lat="42.726803" lon="17.959804"><ele>90.0</ele><time>2026-05-04T12:32:00.621Z</time></trkpt><trkpt lat="42.7269597" lon="17.9596641"><ele>90.0</ele><time>2026-05-04T12:32:01.62Z</time></trkpt><trkpt lat="42.7270997" lon="17.9595241"><ele>90.0</ele><time>2026-05-04T12:32:02.621Z</time></trkpt><trkpt lat="42.7272327" lon="17.9593913"><ele>90.0</ele><time>2026-05-04T12:32:03.62Z</time></trkpt><trkpt lat="42.7273616" lon="17.9592597"><ele>90.25</ele><time>2026-05-04T12:32:04.62Z</time></trkpt><trkpt lat="42.727479" lon="17.9591406"><ele>90.5</ele><time>2026-05-04T12:32:05.62Z</time></trkpt><trkpt lat="42.7275935" lon="17.9590187"><ele>90.75</ele><time>2026-05-04T12:32:06.62Z</time></trkpt><trkpt lat="42.727702" lon="17.9588885"><ele>91.0</ele><time>2026-05-04T12:32:07.62Z</time></trkpt><trkpt lat="42.727804" lon="17.9587669"><ele>91.0</ele><time>2026-05-04T12:32:08.62Z</time></trkpt><trkpt lat="42.7279131" lon="17.9586451"><ele>91.0</ele><time>2026-05-04T12:32:09.621Z</time></trkpt><trkpt lat="42.7280157" lon="17.9585309"><ele>91.0</ele><time>2026-05-04T12:32:10.621Z</time></trkpt><trkpt lat="42.7281026" lon="17.9584124"><ele>91.0</ele><time>2026-05-04T12:32:11.621Z</time></trkpt><trkpt lat="42.7281944" lon="17.958295"><ele>89.75</ele><time>2026-05-04T12:32:12.621Z</time></trkpt><trkpt lat="42.7282846" lon="17.9581772"><ele>88.5</ele><time>2026-05-04T12:32:13.621Z</time></trkpt><trkpt lat="42.7283728" lon="17.9580596"><ele>87.25</ele><time>2026-05-04T12:32:14.621Z</time></trkpt><trkpt lat="42.7284598" lon="17.9579475"><ele>86.0</ele><time>2026-05-04T12:32:15.621Z</time></trkpt><trkpt lat="42.7285482" lon="17.9578293"><ele>86.25</ele><time>2026-05-04T12:32:16.621Z</time></trkpt><trkpt lat="42.7286343" lon="17.9577137"><ele>86.5</ele><time>2026-05-04T12:32:17.621Z</time></trkpt><trkpt lat="42.7287224" lon="17.9575904"><ele>86.75</ele><time>2026-05-04T12:32:18.621Z</time></trkpt><trkpt lat="42.7288107" lon="17.9574595"><ele>87.0</ele><time>2026-05-04T12:32:19.621Z</time></trkpt><trkpt lat="42.728909" lon="17.9573159"><ele>87.0</ele><time>2026-05-04T12:32:20.621Z</time></trkpt><trkpt lat="42.7290161" lon="17.9571459"><ele>87.0</ele><time>2026-05-04T12:32:21.621Z</time></trkpt><trkpt lat="42.7291318" lon="17.956967"><ele>87.0</ele><time>2026-05-04T12:32:22.621Z</time></trkpt><trkpt lat="42.7292487" lon="17.9567846"><ele>87.66666666666667</ele><time>2026-05-04T12:32:23.621Z</time></trkpt><trkpt lat="42.7293699" lon="17.9565858"><ele>88.33333333333334</ele><time>2026-05-04T12:32:24.621Z</time></trkpt><trkpt lat="42.7294963" lon="17.9563786"><ele>89.0</ele><time>2026-05-04T12:32:25.62Z</time></trkpt><trkpt lat="42.7296179" lon="17.9561654"><ele>89.0</ele><time>2026-05-04T12:32:26.62Z</time></trkpt><trkpt lat="42.72974" lon="17.955948"><ele>89.0</ele><time>2026-05-04T12:32:27.62Z</time></trkpt><trkpt lat="42.7298597" lon="17.9557333"><ele>89.0</ele><time>2026-05-04T12:32:28.62Z</time></trkpt><trkpt lat="42.72998" lon="17.9555132"><ele>87.66666666666667</ele><time>2026-05-04T12:32:29.621Z</time></trkpt><trkpt lat="42.7300951" lon="17.9552988"><ele>86.33333333333333</ele><time>2026-05-04T12:32:30.621Z</time></trkpt><trkpt lat="42.7302079" lon="17.9550844"><ele>85.0</ele><time>2026-05-04T12:32:31.621Z</time></trkpt><trkpt lat="42.7303199" lon="17.9548735"><ele>88.66666666666666</ele><time>2026-05-04T12:32:32.62Z</time></trkpt><trkpt lat="42.7304289" lon="17.9546616"><ele>92.33333333333333</ele><time>2026-05-04T12:32:33.621Z</time></trkpt><trkpt lat="42.7305315" lon="17.9544389"><ele>96.0</ele><time>2026-05-04T12:32:34.62Z</time></trkpt><trkpt lat="42.7306287" lon="17.9542232"><ele>95.33333333333333</ele><time>2026-05-04T12:32:35.62Z</time></trkpt><trkpt lat="42.7307191" lon="17.9539926"><ele>94.66666666666666</ele><time>2026-05-04T12:32:36.621Z</time></trkpt><trkpt lat="42.7308054" lon="17.95377"><ele>94.0</ele><time>2026-05-04T12:32:37.62Z</time></trkpt><trkpt lat="42.73089" lon="17.9535471"><ele>90.0</ele><time>2026-05-04T12:32:38.62Z</time></trkpt><trkpt lat="42.7309701" lon="17.9533126"><ele>86.0</ele><time>2026-05-04T12:32:39.62Z</time></trkpt><trkpt lat="42.7310035" lon="17.9530844"><ele>82.0</ele><time>2026-05-04T12:32:40.62Z</time></trkpt><trkpt lat="42.7310366" lon="17.9528768"><ele>94.66666666666666</ele><time>2026-05-04T12:32:41.621Z</time></trkpt><trkpt lat="42.7310657" lon="17.9526498"><ele>107.33333333333333</ele><time>2026-05-04T12:32:42.62Z</time></trkpt><trkpt lat="42.7310876" lon="17.9524508"><ele>120.0</ele><time>2026-05-04T12:32:43.621Z</time></trkpt><trkpt lat="42.7310869" lon="17.952238"><ele>120.0</ele><time>2026-05-04T12:32:44.621Z</time></trkpt><trkpt lat="42.7310674" lon="17.9520459"><ele>120.0</ele><time>2026-05-04T12:32:45.621Z</time></trkpt><trkpt lat="42.7310082" lon="17.9518572"><ele>120.0</ele><time>2026-05-04T12:32:46.62Z</time></trkpt><trkpt lat="42.7309221" lon="17.9516954"><ele>120.0</ele><time>2026-05-04T12:32:47.621Z</time></trkpt><trkpt lat="42.7308187" lon="17.9515636"><ele>108.5</ele><time>2026-05-04T12:32:48.621Z</time></trkpt><trkpt lat="42.7306917" lon="17.9514854"><ele>97.0</ele><time>2026-05-04T12:32:49.62Z</time></trkpt><trkpt lat="42.7305566" lon="17.95145"><ele>85.5</ele><time>2026-05-04T12:32:50.621Z</time></trkpt><trkpt lat="42.7304246" lon="17.9514436"><ele>74.0</ele><time>2026-05-04T12:32:51.621Z</time></trkpt><trkpt lat="42.7302896" lon="17.9514632"><ele>71.25</ele><time>2026-05-04T12:32:52.621Z</time></trkpt><trkpt lat="42.730145" lon="17.9515035"><ele>68.5</ele><time>2026-05-04T12:32:53.62Z</time></trkpt><trkpt lat="42.7299964" lon="17.9515478"><ele>65.75</ele><time>2026-05-04T12:32:54.621Z</time></trkpt><trkpt lat="42.7298499" lon="17.9515891"><ele>63.0</ele><time>2026-05-04T12:32:55.62Z</time></trkpt><trkpt lat="42.7297021" lon="17.9516006"><ele>63.0</ele><time>2026-05-04T12:32:56.62Z</time></trkpt><trkpt lat="42.7295608" lon="17.9515848"><ele>63.0</ele><time>2026-05-04T12:32:57.621Z</time></trkpt><trkpt lat="42.7294224" lon="17.9515207"><ele>63.0</ele><time>2026-05-04T12:32:58.621Z</time></trkpt><trkpt lat="42.729297" lon="17.9514253"><ele>63.0</ele><time>2026-05-04T12:32:59.621Z</time></trkpt><trkpt lat="42.7291904" lon="17.9512985"><ele>63.33333333333333</ele><time>2026-05-04T12:33:00.62Z</time></trkpt><trkpt lat="42.7291054" lon="17.9511259"><ele>63.666666666666664</ele><time>2026-05-04T12:33:01.62Z</time></trkpt><trkpt lat="42.7290502" lon="17.9509405"><ele>64.0</ele><time>2026-05-04T12:33:02.62Z</time></trkpt><trkpt lat="42.7290305" lon="17.9507381"><ele>64.0</ele><time>2026-05-04T12:33:03.621Z</time></trkpt><trkpt lat="42.7290316" lon="17.9505232"><ele>64.0</ele><time>2026-05-04T12:33:04.62Z</time></trkpt><trkpt lat="42.7290623" lon="17.9503089"><ele>64.0</ele><time>2026-05-04T12:33:05.621Z</time></trkpt><trkpt lat="42.7291188" lon="17.9500966"><ele>64.33333333333333</ele><time>2026-05-04T12:33:06.62Z</time></trkpt><trkpt lat="42.7291945" lon="17.949881"><ele>64.66666666666667</ele><time>2026-05-04T12:33:07.62Z</time></trkpt><trkpt lat="42.729281" lon="17.9496703"><ele>65.0</ele><time>2026-05-04T12:33:08.62Z</time></trkpt><trkpt lat="42.7293723" lon="17.9494686"><ele>69.0</ele><time>2026-05-04T12:33:09.621Z</time></trkpt><trkpt lat="42.7294842" lon="17.9492713"><ele>73.0</ele><time>2026-05-04T12:33:10.621Z</time></trkpt><trkpt lat="42.7295995" lon="17.9490787"><ele>77.0</ele><time>2026-05-04T12:33:11.62Z</time></trkpt><trkpt lat="42.7297232" lon="17.9488865"><ele>77.0</ele><time>2026-05-04T12:33:12.621Z</time></trkpt><trkpt lat="42.7298514" lon="17.9486886"><ele>77.0</ele><time>2026-05-04T12:33:13.62Z</time></trkpt><trkpt lat="42.7299798" lon="17.9484895"><ele>77.0</ele><time>2026-05-04T12:33:14.62Z</time></trkpt><trkpt lat="42.7301122" lon="17.9482867"><ele>80.66666666666667</ele><time>2026-05-04T12:33:15.621Z</time></trkpt><trkpt lat="42.7302501" lon="17.9480978"><ele>84.33333333333333</ele><time>2026-05-04T12:33:16.62Z</time></trkpt><trkpt lat="42.7303824" lon="17.9478895"><ele>88.0</ele><time>2026-05-04T12:33:17.62Z</time></trkpt><trkpt lat="42.7305091" lon="17.9476788"><ele>82.0</ele><time>2026-05-04T12:33:18.621Z</time></trkpt><trkpt lat="42.7306271" lon="17.9474573"><ele>76.0</ele><time>2026-05-04T12:33:19.62Z</time></trkpt><trkpt lat="42.7307503" lon="17.9472333"><ele>70.0</ele><time>2026-05-04T12:33:20.621Z</time></trkpt><trkpt lat="42.7308614" lon="17.9470018"><ele>70.0</ele><time>2026-05-04T12:33:21.62Z</time></trkpt><trkpt lat="42.7309618" lon="17.9467629"><ele>70.0</ele><time>2026-05-04T12:33:22.62Z</time></trkpt><trkpt lat="42.7310601" lon="17.9465161"><ele>70.0</ele><time>2026-05-04T12:33:23.621Z</time></trkpt><trkpt lat="42.7311467" lon="17.9462616"><ele>70.66666666666666</ele><time>2026-05-04T12:33:24.621Z</time></trkpt><trkpt lat="42.7312284" lon="17.9460042"><ele>71.33333333333333</ele><time>2026-05-04T12:33:25.621Z</time></trkpt><trkpt lat="42.731304" lon="17.9457414"><ele>72.0</ele><time>2026-05-04T12:33:26.621Z</time></trkpt><trkpt lat="42.7313717" lon="17.9454707"><ele>72.0</ele><time>2026-05-04T12:33:27.62Z</time></trkpt><trkpt lat="42.731433" lon="17.9452097"><ele>72.0</ele><time>2026-05-04T12:33:28.621Z</time></trkpt><trkpt lat="42.7314845" lon="17.9449413"><ele>72.0</ele><time>2026-05-04T12:33:29.621Z</time></trkpt><trkpt lat="42.7315274" lon="17.9446639"><ele>69.0</ele><time>2026-05-04T12:33:30.62Z</time></trkpt><trkpt lat="42.7315651" lon="17.9443855"><ele>66.0</ele><time>2026-05-04T12:33:31.621Z</time></trkpt><trkpt lat="42.7315983" lon="17.944108"><ele>63.0</ele><time>2026-05-04T12:33:32.62Z</time></trkpt><trkpt lat="42.7316258" lon="17.9438283"><ele>60.0</ele><time>2026-05-04T12:33:33.62Z</time></trkpt><trkpt lat="42.7316469" lon="17.9435525"><ele>57.0</ele><time>2026-05-04T12:33:34.621Z</time></trkpt><trkpt lat="42.7316728" lon="17.9432762"><ele>54.0</ele><time>2026-05-04T12:33:35.621Z</time></trkpt><trkpt lat="42.7316921" lon="17.942997"><ele>52.33333333333333</ele><time>2026-05-04T12:33:36.62Z</time></trkpt><trkpt lat="42.7317162" lon="17.9427261"><ele>50.666666666666664</ele><time>2026-05-04T12:33:37.62Z</time></trkpt><trkpt lat="42.7317342" lon="17.9424494"><ele>49.0</ele><time>2026-05-04T12:33:38.62Z</time></trkpt><trkpt lat="42.7317573" lon="17.9421799"><ele>47.0</ele><time>2026-05-04T12:33:39.621Z</time></trkpt><trkpt lat="42.7317828" lon="17.9419146"><ele>45.0</ele><time>2026-05-04T12:33:40.621Z</time></trkpt><trkpt lat="42.7318147" lon="17.9416478"><ele>43.0</ele><time>2026-05-04T12:33:41.62Z</time></trkpt><trkpt lat="42.7318655" lon="17.9413972"><ele>46.333333333333336</ele><time>2026-05-04T12:33:42.621Z</time></trkpt><trkpt lat="42.7319242" lon="17.9411552"><ele>49.66666666666667</ele><time>2026-05-04T12:33:43.621Z</time></trkpt><trkpt lat="42.732006" lon="17.9409369"><ele>53.0</ele><time>2026-05-04T12:33:44.621Z</time></trkpt><trkpt lat="42.7321032" lon="17.9407471"><ele>53.0</ele><time>2026-05-04T12:33:45.62Z</time></trkpt><trkpt lat="42.7322251" lon="17.940571"><ele>53.0</ele><time>2026-05-04T12:33:46.621Z</time></trkpt><trkpt lat="42.7323627" lon="17.9404203"><ele>53.0</ele><time>2026-05-04T12:33:47.621Z</time></trkpt><trkpt lat="42.7325151" lon="17.940302"><ele>53.0</ele><time>2026-05-04T12:33:48.62Z</time></trkpt><trkpt lat="42.7326876" lon="17.9402377"><ele>53.0</ele><time>2026-05-04T12:33:49.621Z</time></trkpt><trkpt lat="42.7328476" lon="17.9401716"><ele>53.0</ele><time>2026-05-04T12:33:50.621Z</time></trkpt><trkpt lat="42.7330118" lon="17.9401008"><ele>48.333333333333336</ele><time>2026-05-04T12:33:51.62Z</time></trkpt><trkpt lat="42.7331793" lon="17.940019"><ele>43.66666666666667</ele><time>2026-05-04T12:33:52.621Z</time></trkpt><trkpt lat="42.733336" lon="17.9399089"><ele>39.0</ele><time>2026-05-04T12:33:53.621Z</time></trkpt><trkpt lat="42.7334713" lon="17.9397572"><ele>44.33333333333333</ele><time>2026-05-04T12:33:54.621Z</time></trkpt><trkpt lat="42.7335837" lon="17.9395762"><ele>49.666666666666664</ele><time>2026-05-04T12:33:55.621Z</time></trkpt><trkpt lat="42.7336759" lon="17.9393693"><ele>55.0</ele><time>2026-05-04T12:33:56.62Z</time></trkpt><trkpt lat="42.7337536" lon="17.9391459"><ele>55.0</ele><time>2026-05-04T12:33:57.62Z</time></trkpt><trkpt lat="42.7338101" lon="17.9389071"><ele>55.0</ele><time>2026-05-04T12:33:58.62Z</time></trkpt><trkpt lat="42.7338622" lon="17.9386741"><ele>55.0</ele><time>2026-05-04T12:33:59.621Z</time></trkpt><trkpt lat="42.7339141" lon="17.9384505"><ele>51.666666666666664</ele><time>2026-05-04T12:34:00.621Z</time></trkpt><trkpt lat="42.7339704" lon="17.9382428"><ele>48.33333333333333</ele><time>2026-05-04T12:34:01.62Z</time></trkpt><trkpt lat="42.7340394" lon="17.9380493"><ele>45.0</ele><time>2026-05-04T12:34:02.62Z</time></trkpt><trkpt lat="42.7341272" lon="17.9378695"><ele>45.0</ele><time>2026-05-04T12:34:03.621Z</time></trkpt><trkpt lat="42.734227" lon="17.9377126"><ele>45.0</ele><time>2026-05-04T12:34:04.62Z</time></trkpt><trkpt lat="42.7343497" lon="17.937569"><ele>45.0</ele><time>2026-05-04T12:34:05.621Z</time></trkpt><trkpt lat="42.7345034" lon="17.9374394"><ele>45.666666666666664</ele><time>2026-05-04T12:34:06.621Z</time></trkpt><trkpt lat="42.7346576" lon="17.9373072"><ele>46.33333333333333</ele><time>2026-05-04T12:34:07.621Z</time></trkpt><trkpt lat="42.7348137" lon="17.9371787"><ele>47.0</ele><time>2026-05-04T12:34:08.62Z</time></trkpt><trkpt lat="42.7349664" lon="17.9370362"><ele>47.0</ele><time>2026-05-04T12:34:09.621Z</time></trkpt><trkpt lat="42.7351141" lon="17.9368799"><ele>47.0</ele><time>2026-05-04T12:34:10.621Z</time></trkpt><trkpt lat="42.7352491" lon="17.9367071"><ele>47.0</ele><time>2026-05-04T12:34:11.621Z</time></trkpt><trkpt lat="42.7353628" lon="17.9365127"><ele>50.0</ele><time>2026-05-04T12:34:12.621Z</time></trkpt><trkpt lat="42.7354583" lon="17.936293"><ele>53.0</ele><time>2026-05-04T12:34:13.62Z</time></trkpt><trkpt lat="42.7355338" lon="17.9360606"><ele>56.0</ele><time>2026-05-04T12:34:14.62Z</time></trkpt><trkpt lat="42.7355919" lon="17.9358098"><ele>56.0</ele><time>2026-05-04T12:34:15.62Z</time></trkpt><trkpt lat="42.7356288" lon="17.93554"><ele>56.0</ele><time>2026-05-04T12:34:16.621Z</time></trkpt><trkpt lat="42.735663" lon="17.9352599"><ele>56.0</ele><time>2026-05-04T12:34:17.621Z</time></trkpt><trkpt lat="42.7356734" lon="17.9349523"><ele>53.333333333333336</ele><time>2026-05-04T12:34:18.621Z</time></trkpt><trkpt lat="42.7356728" lon="17.9346625"><ele>50.66666666666667</ele><time>2026-05-04T12:34:19.621Z</time></trkpt><trkpt lat="42.7356599" lon="17.9343636"><ele>48.0</ele><time>2026-05-04T12:34:20.621Z</time></trkpt><trkpt lat="42.7356518" lon="17.9340597"><ele>45.333333333333336</ele><time>2026-05-04T12:34:21.621Z</time></trkpt><trkpt lat="42.735645" lon="17.9337592"><ele>42.66666666666667</ele><time>2026-05-04T12:34:22.621Z</time></trkpt><trkpt lat="42.7356463" lon="17.9334537"><ele>40.0</ele><time>2026-05-04T12:34:23.62Z</time></trkpt><trkpt lat="42.7356574" lon="17.9331692"><ele>38.333333333333336</ele><time>2026-05-04T12:34:24.62Z</time></trkpt><trkpt lat="42.7356686" lon="17.9328921"><ele>36.666666666666664</ele><time>2026-05-04T12:34:25.621Z</time></trkpt><trkpt lat="42.7356977" lon="17.9326157"><ele>35.0</ele><time>2026-05-04T12:34:26.621Z</time></trkpt><trkpt lat="42.7357409" lon="17.9323451"><ele>35.0</ele><time>2026-05-04T12:34:27.62Z</time></trkpt><trkpt lat="42.7357987" lon="17.9320828"><ele>35.0</ele><time>2026-05-04T12:34:28.62Z</time></trkpt><trkpt lat="42.735879" lon="17.9318284"><ele>35.0</ele><time>2026-05-04T12:34:29.62Z</time></trkpt><trkpt lat="42.7359619" lon="17.9315939"><ele>43.0</ele><time>2026-05-04T12:34:30.621Z</time></trkpt><trkpt lat="42.7360644" lon="17.9313584"><ele>51.0</ele><time>2026-05-04T12:34:31.62Z</time></trkpt><trkpt lat="42.7361789" lon="17.9311371"><ele>59.0</ele><time>2026-05-04T12:34:32.62Z</time></trkpt><trkpt lat="42.7363002" lon="17.9309173"><ele>53.66666666666667</ele><time>2026-05-04T12:34:33.621Z</time></trkpt><trkpt lat="42.736426" lon="17.9307153"><ele>48.333333333333336</ele><time>2026-05-04T12:34:34.62Z</time></trkpt><trkpt lat="42.7365547" lon="17.9305243"><ele>43.0</ele><time>2026-05-04T12:34:35.62Z</time></trkpt><trkpt lat="42.7366873" lon="17.9303411"><ele>43.0</ele><time>2026-05-04T12:34:36.62Z</time></trkpt><trkpt lat="42.7368291" lon="17.9301676"><ele>43.0</ele><time>2026-05-04T12:34:37.62Z</time></trkpt><trkpt lat="42.7369783" lon="17.930007"><ele>43.0</ele><time>2026-05-04T12:34:38.62Z</time></trkpt><trkpt lat="42.7371413" lon="17.9298599"><ele>43.0</ele><time>2026-05-04T12:34:39.62Z</time></trkpt><trkpt lat="42.7373133" lon="17.929735"><ele>43.0</ele><time>2026-05-04T12:34:40.621Z</time></trkpt><trkpt lat="42.7375017" lon="17.9296237"><ele>43.0</ele><time>2026-05-04T12:34:41.62Z</time></trkpt><trkpt lat="42.7377046" lon="17.9295356"><ele>46.66666666666667</ele><time>2026-05-04T12:34:42.62Z</time></trkpt><trkpt lat="42.7379168" lon="17.9294705"><ele>50.333333333333336</ele><time>2026-05-04T12:34:43.621Z</time></trkpt><trkpt lat="42.7381396" lon="17.929393"><ele>54.0</ele><time>2026-05-04T12:34:44.62Z</time></trkpt><trkpt lat="42.7383635" lon="17.9293156"><ele>56.5</ele><time>2026-05-04T12:34:45.62Z</time></trkpt><trkpt lat="42.7385916" lon="17.9292444"><ele>59.0</ele><time>2026-05-04T12:34:46.62Z</time></trkpt><trkpt lat="42.7388077" lon="17.9291713"><ele>51.0</ele><time>2026-05-04T12:34:47.621Z</time></trkpt><trkpt lat="42.7390147" lon="17.9290973"><ele>43.0</ele><time>2026-05-04T12:34:48.621Z</time></trkpt><trkpt lat="42.7392165" lon="17.9290314"><ele>35.0</ele><time>2026-05-04T12:34:49.621Z</time></trkpt><trkpt lat="42.7394117" lon="17.9289762"><ele>35.0</ele><time>2026-05-04T12:34:50.621Z</time></trkpt><trkpt lat="42.7396046" lon="17.9289313"><ele>35.0</ele><time>2026-05-04T12:34:51.621Z</time></trkpt><trkpt lat="42.7397942" lon="17.9288978"><ele>35.0</ele><time>2026-05-04T12:34:52.621Z</time></trkpt><trkpt lat="42.7399919" lon="17.9288897"><ele>35.0</ele><time>2026-05-04T12:34:53.62Z</time></trkpt><trkpt lat="42.7401868" lon="17.9288884"><ele>35.0</ele><time>2026-05-04T12:34:54.62Z</time></trkpt><trkpt lat="42.7403703" lon="17.9288926"><ele>35.0</ele><time>2026-05-04T12:34:55.621Z</time></trkpt><trkpt lat="42.7405454" lon="17.9288759"><ele>32.33333333333333</ele><time>2026-05-04T12:34:56.621Z</time></trkpt><trkpt lat="42.7407118" lon="17.9288369"><ele>29.666666666666664</ele><time>2026-05-04T12:34:57.62Z</time></trkpt><trkpt lat="42.7408609" lon="17.9287756"><ele>27.0</ele><time>2026-05-04T12:34:58.62Z</time></trkpt><trkpt lat="42.7409935" lon="17.9286735"><ele>28.5</ele><time>2026-05-04T12:34:59.62Z</time></trkpt><trkpt lat="42.7411055" lon="17.9285409"><ele>30.0</ele><time>2026-05-04T12:35:00.621Z</time></trkpt><trkpt lat="42.7411928" lon="17.9283848"><ele>31.5</ele><time>2026-05-04T12:35:01.621Z</time></trkpt><trkpt lat="42.7412616" lon="17.9282084"><ele>33.0</ele><time>2026-05-04T12:35:02.62Z</time></trkpt><trkpt lat="42.7413054" lon="17.9280098"><ele>33.0</ele><time>2026-05-04T12:35:03.62Z</time></trkpt><trkpt lat="42.7413169" lon="17.9277986"><ele>33.0</ele><time>2026-05-04T12:35:04.621Z</time></trkpt><trkpt lat="42.7412985" lon="17.9275824"><ele>33.0</ele><time>2026-05-04T12:35:05.62Z</time></trkpt><trkpt lat="42.7412462" lon="17.9273606"><ele>34.666666666666664</ele><time>2026-05-04T12:35:06.621Z</time></trkpt><trkpt lat="42.741179" lon="17.9271466"><ele>36.33333333333333</ele><time>2026-05-04T12:35:07.62Z</time></trkpt><trkpt lat="42.7410992" lon="17.9269344"><ele>38.0</ele><time>2026-05-04T12:35:08.621Z</time></trkpt><trkpt lat="42.7410354" lon="17.9267283"><ele>30.333333333333332</ele><time>2026-05-04T12:35:09.621Z</time></trkpt><trkpt lat="42.7409824" lon="17.9265236"><ele>22.666666666666664</ele><time>2026-05-04T12:35:10.621Z</time></trkpt><trkpt lat="42.7409578" lon="17.9263164"><ele>15.0</ele><time>2026-05-04T12:35:11.62Z</time></trkpt><trkpt lat="42.7409432" lon="17.9261135"><ele>15.0</ele><time>2026-05-04T12:35:12.62Z</time></trkpt><trkpt lat="42.7409543" lon="17.9259126"><ele>15.0</ele><time>2026-05-04T12:35:13.621Z</time></trkpt><trkpt lat="42.7409975" lon="17.9257086"><ele>15.0</ele><time>2026-05-04T12:35:14.62Z</time></trkpt><trkpt lat="42.7410567" lon="17.9255145"><ele>26.0</ele><time>2026-05-04T12:35:15.621Z</time></trkpt><trkpt lat="42.741141" lon="17.9253175"><ele>37.0</ele><time>2026-05-04T12:35:16.62Z</time></trkpt><trkpt lat="42.7412455" lon="17.9251105"><ele>48.0</ele><time>2026-05-04T12:35:17.62Z</time></trkpt><trkpt lat="42.7413648" lon="17.9248826"><ele>48.0</ele><time>2026-05-04T12:35:18.62Z</time></trkpt><trkpt lat="42.7414969" lon="17.9246235"><ele>48.0</ele><time>2026-05-04T12:35:19.621Z</time></trkpt><trkpt lat="42.7416435" lon="17.9243462"><ele>37.5</ele><time>2026-05-04T12:35:20.62Z</time></trkpt><trkpt lat="42.7418029" lon="17.9240553"><ele>27.0</ele><time>2026-05-04T12:35:21.62Z</time></trkpt><trkpt lat="42.741968" lon="17.9237525"><ele>34.0</ele><time>2026-05-04T12:35:22.621Z</time></trkpt><trkpt lat="42.7421376" lon="17.9234555"><ele>41.0</ele><time>2026-05-04T12:35:23.62Z</time></trkpt><trkpt lat="42.7423037" lon="17.9231823"><ele>41.0</ele><time>2026-05-04T12:35:24.621Z</time></trkpt><trkpt lat="42.742456" lon="17.9229169"><ele>41.0</ele><time>2026-05-04T12:35:25.621Z</time></trkpt><trkpt lat="42.7426009" lon="17.922664"><ele>44.33333333333333</ele><time>2026-05-04T12:35:26.62Z</time></trkpt><trkpt lat="42.7427333" lon="17.9224205"><ele>47.666666666666664</ele><time>2026-05-04T12:35:27.62Z</time></trkpt><trkpt lat="42.7428629" lon="17.9221931"><ele>51.0</ele><time>2026-05-04T12:35:28.62Z</time></trkpt><trkpt lat="42.7429825" lon="17.9219672"><ele>51.0</ele><time>2026-05-04T12:35:29.621Z</time></trkpt><trkpt lat="42.7430874" lon="17.9217482"><ele>51.0</ele><time>2026-05-04T12:35:30.621Z</time></trkpt><trkpt lat="42.7431646" lon="17.9215264"><ele>51.0</ele><time>2026-05-04T12:35:31.62Z</time></trkpt><trkpt lat="42.7432167" lon="17.9213065"><ele>44.666666666666664</ele><time>2026-05-04T12:35:32.62Z</time></trkpt><trkpt lat="42.7432405" lon="17.9210882"><ele>38.33333333333333</ele><time>2026-05-04T12:35:33.621Z</time></trkpt><trkpt lat="42.743244" lon="17.9208747"><ele>32.0</ele><time>2026-05-04T12:35:34.62Z</time></trkpt><trkpt lat="42.7432379" lon="17.9206637"><ele>31.333333333333332</ele><time>2026-05-04T12:35:35.62Z</time></trkpt><trkpt lat="42.743226" lon="17.9204585"><ele>30.666666666666664</ele><time>2026-05-04T12:35:36.621Z</time></trkpt><trkpt lat="42.7432144" lon="17.9202463"><ele>30.0</ele><time>2026-05-04T12:35:37.621Z</time></trkpt><trkpt lat="42.7432165" lon="17.9200344"><ele>35.0</ele><time>2026-05-04T12:35:38.621Z</time></trkpt><trkpt lat="42.7432275" lon="17.9198304"><ele>40.0</ele><time>2026-05-04T12:35:39.62Z</time></trkpt><trkpt lat="42.7432477" lon="17.9196276"><ele>45.0</ele><time>2026-05-04T12:35:40.62Z</time></trkpt><trkpt lat="42.7432932" lon="17.9194274"><ele>45.0</ele><time>2026-05-04T12:35:41.621Z</time></trkpt><trkpt lat="42.7433515" lon="17.919237"><ele>45.0</ele><time>2026-05-04T12:35:42.62Z</time></trkpt><trkpt lat="42.7434246" lon="17.9190439"><ele>45.0</ele><time>2026-05-04T12:35:43.621Z</time></trkpt><trkpt lat="42.7435113" lon="17.9188517"><ele>53.33333333333333</ele><time>2026-05-04T12:35:44.62Z</time></trkpt><trkpt lat="42.7435988" lon="17.9186693"><ele>61.666666666666664</ele><time>2026-05-04T12:35:45.621Z</time></trkpt><trkpt lat="42.7436857" lon="17.918489"><ele>70.0</ele><time>2026-05-04T12:35:46.621Z</time></trkpt><trkpt lat="42.7437673" lon="17.9183058"><ele>70.0</ele><time>2026-05-04T12:35:47.621Z</time></trkpt><trkpt lat="42.7438509" lon="17.9181284"><ele>70.0</ele><time>2026-05-04T12:35:48.621Z</time></trkpt><trkpt lat="42.7439169" lon="17.917938"><ele>70.0</ele><time>2026-05-04T12:35:49.621Z</time></trkpt><trkpt lat="42.7439701" lon="17.9177399"><ele>64.66666666666666</ele><time>2026-05-04T12:35:50.62Z</time></trkpt><trkpt lat="42.744024" lon="17.9175473"><ele>59.33333333333333</ele><time>2026-05-04T12:35:51.621Z</time></trkpt><trkpt lat="42.7440747" lon="17.9173544"><ele>54.0</ele><time>2026-05-04T12:35:52.621Z</time></trkpt><trkpt lat="42.7441245" lon="17.9171543"><ele>54.0</ele><time>2026-05-04T12:35:53.62Z</time></trkpt><trkpt lat="42.7441799" lon="17.9169634"><ele>54.0</ele><time>2026-05-04T12:35:54.621Z</time></trkpt><trkpt lat="42.7442388" lon="17.9167521"><ele>54.0</ele><time>2026-05-04T12:35:55.621Z</time></trkpt><trkpt lat="42.7442955" lon="17.9165532"><ele>47.333333333333336</ele><time>2026-05-04T12:35:56.621Z</time></trkpt><trkpt lat="42.7443498" lon="17.9163474"><ele>40.66666666666667</ele><time>2026-05-04T12:35:57.621Z</time></trkpt><trkpt lat="42.7444265" lon="17.9161367"><ele>34.0</ele><time>2026-05-04T12:35:58.621Z</time></trkpt><trkpt lat="42.7445024" lon="17.9159409"><ele>45.66666666666667</ele><time>2026-05-04T12:35:59.62Z</time></trkpt><trkpt lat="42.7445942" lon="17.9157336"><ele>57.333333333333336</ele><time>2026-05-04T12:36:00.621Z</time></trkpt><trkpt lat="42.7447011" lon="17.9155231"><ele>69.0</ele><time>2026-05-04T12:36:01.62Z</time></trkpt><trkpt lat="42.744829" lon="17.9152707"><ele>53.0</ele><time>2026-05-04T12:36:02.621Z</time></trkpt><trkpt lat="42.7449729" lon="17.9150198"><ele>37.0</ele><time>2026-05-04T12:36:03.62Z</time></trkpt><trkpt lat="42.7451256" lon="17.9147807"><ele>40.0</ele><time>2026-05-04T12:36:04.62Z</time></trkpt><trkpt lat="42.7452842" lon="17.9145542"><ele>43.0</ele><time>2026-05-04T12:36:05.621Z</time></trkpt><trkpt lat="42.7454186" lon="17.9143389"><ele>46.0</ele><time>2026-05-04T12:36:06.621Z</time></trkpt><trkpt lat="42.7455183" lon="17.9140997"><ele>46.0</ele><time>2026-05-04T12:36:07.62Z</time></trkpt><trkpt lat="42.7456037" lon="17.9138494"><ele>46.0</ele><time>2026-05-04T12:36:08.62Z</time></trkpt><trkpt lat="42.7456634" lon="17.9135912"><ele>46.0</ele><time>2026-05-04T12:36:09.62Z</time></trkpt><trkpt lat="42.7457108" lon="17.9133084"><ele>44.0</ele><time>2026-05-04T12:36:10.621Z</time></trkpt><trkpt lat="42.7457255" lon="17.91299"><ele>42.0</ele><time>2026-05-04T12:36:11.621Z</time></trkpt><trkpt lat="42.7457284" lon="17.9126538"><ele>39.5</ele><time>2026-05-04T12:36:12.62Z</time></trkpt><trkpt lat="42.7457384" lon="17.9123098"><ele>37.0</ele><time>2026-05-04T12:36:13.621Z</time></trkpt><trkpt lat="42.7457513" lon="17.9119703"><ele>34.5</ele><time>2026-05-04T12:36:14.62Z</time></trkpt><trkpt lat="42.7457662" lon="17.9116279"><ele>32.0</ele><time>2026-05-04T12:36:15.62Z</time></trkpt><trkpt lat="42.7457875" lon="17.9112826"><ele>32.0</ele><time>2026-05-04T12:36:16.621Z</time></trkpt><trkpt lat="42.7458217" lon="17.910932"><ele>32.0</ele><time>2026-05-04T12:36:17.621Z</time></trkpt><trkpt lat="42.7458595" lon="17.9105724"><ele>31.0</ele><time>2026-05-04T12:36:18.621Z</time></trkpt><trkpt lat="42.7459027" lon="17.9102315"><ele>30.0</ele><time>2026-05-04T12:36:19.62Z</time></trkpt><trkpt lat="42.7459519" lon="17.909912"><ele>26.5</ele><time>2026-05-04T12:36:20.621Z</time></trkpt><trkpt lat="42.7459887" lon="17.9096049"><ele>23.0</ele><time>2026-05-04T12:36:21.62Z</time></trkpt><trkpt lat="42.7460285" lon="17.9093003"><ele>37.333333333333336</ele><time>2026-05-04T12:36:22.62Z</time></trkpt><trkpt lat="42.7460495" lon="17.9089967"><ele>51.666666666666664</ele><time>2026-05-04T12:36:23.621Z</time></trkpt><trkpt lat="42.7460858" lon="17.9087045"><ele>66.0</ele><time>2026-05-04T12:36:24.621Z</time></trkpt><trkpt lat="42.746097" lon="17.9084169"><ele>64.0</ele><time>2026-05-04T12:36:25.621Z</time></trkpt><trkpt lat="42.7460779" lon="17.9081268"><ele>62.0</ele><time>2026-05-04T12:36:26.62Z</time></trkpt><trkpt lat="42.7460427" lon="17.9078516"><ele>60.0</ele><time>2026-05-04T12:36:27.621Z</time></trkpt><trkpt lat="42.7459927" lon="17.9075944"><ele>46.333333333333336</ele><time>2026-05-04T12:36:28.62Z</time></trkpt><trkpt lat="42.7459354" lon="17.9073584"><ele>32.666666666666664</ele><time>2026-05-04T12:36:29.62Z</time></trkpt><trkpt lat="42.7458899" lon="17.9071309"><ele>19.0</ele><time>2026-05-04T12:36:30.62Z</time></trkpt><trkpt lat="42.7458671" lon="17.9069048"><ele>19.333333333333332</ele><time>2026-05-04T12:36:31.621Z</time></trkpt><trkpt lat="42.7458613" lon="17.9066736"><ele>19.666666666666668</ele><time>2026-05-04T12:36:32.62Z</time></trkpt><trkpt lat="42.745879" lon="17.9064429"><ele>20.0</ele><time>2026-05-04T12:36:33.62Z</time></trkpt><trkpt lat="42.7459121" lon="17.906212"><ele>20.0</ele><time>2026-05-04T12:36:34.621Z</time></trkpt><trkpt lat="42.7459622" lon="17.9059846"><ele>20.0</ele><time>2026-05-04T12:36:35.621Z</time></trkpt><trkpt lat="42.7460298" lon="17.9057686"><ele>20.0</ele><time>2026-05-04T12:36:36.62Z</time></trkpt><trkpt lat="42.746114" lon="17.9055676"><ele>24.666666666666668</ele><time>2026-05-04T12:36:37.62Z</time></trkpt><trkpt lat="42.7462208" lon="17.9053739"><ele>29.333333333333336</ele><time>2026-05-04T12:36:38.621Z</time></trkpt><trkpt lat="42.746351" lon="17.905172"><ele>34.0</ele><time>2026-05-04T12:36:39.621Z</time></trkpt><trkpt lat="42.7464935" lon="17.9049398"><ele>34.0</ele><time>2026-05-04T12:36:40.621Z</time></trkpt><trkpt lat="42.7466379" lon="17.9047111"><ele>34.0</ele><time>2026-05-04T12:36:41.62Z</time></trkpt><trkpt lat="42.7467902" lon="17.9044749"><ele>41.0</ele><time>2026-05-04T12:36:42.62Z</time></trkpt><trkpt lat="42.7469419" lon="17.9042221"><ele>48.0</ele><time>2026-05-04T12:36:43.621Z</time></trkpt><trkpt lat="42.7470917" lon="17.9039515"><ele>48.0</ele><time>2026-05-04T12:36:44.621Z</time></trkpt><trkpt lat="42.7472322" lon="17.90368"><ele>48.0</ele><time>2026-05-04T12:36:45.621Z</time></trkpt><trkpt lat="42.7473562" lon="17.9034114"><ele>42.333333333333336</ele><time>2026-05-04T12:36:46.62Z</time></trkpt><trkpt lat="42.74747" lon="17.9031552"><ele>36.66666666666667</ele><time>2026-05-04T12:36:47.621Z</time></trkpt><trkpt lat="42.7475878" lon="17.9029185"><ele>31.0</ele><time>2026-05-04T12:36:48.62Z</time></trkpt><trkpt lat="42.7477063" lon="17.9026873"><ele>35.0</ele><time>2026-05-04T12:36:49.621Z</time></trkpt><trkpt lat="42.7478319" lon="17.9024681"><ele>39.0</ele><time>2026-05-04T12:36:50.62Z</time></trkpt><trkpt lat="42.7479662" lon="17.9022639"><ele>43.0</ele><time>2026-05-04T12:36:51.62Z</time></trkpt><trkpt lat="42.7481262" lon="17.9020537"><ele>43.0</ele><time>2026-05-04T12:36:52.62Z</time></trkpt><trkpt lat="42.7482915" lon="17.9018398"><ele>43.0</ele><time>2026-05-04T12:36:53.621Z</time></trkpt><trkpt lat="42.7484592" lon="17.901633"><ele>46.5</ele><time>2026-05-04T12:36:54.62Z</time></trkpt><trkpt lat="42.7486398" lon="17.901421"><ele>50.0</ele><time>2026-05-04T12:36:55.621Z</time></trkpt><trkpt lat="42.7488192" lon="17.9012047"><ele>50.0</ele><time>2026-05-04T12:36:56.621Z</time></trkpt><trkpt lat="42.7489956" lon="17.900993"><ele>50.0</ele><time>2026-05-04T12:36:57.621Z</time></trkpt><trkpt lat="42.7491662" lon="17.9007921"><ele>56.0</ele><time>2026-05-04T12:36:58.62Z</time></trkpt><trkpt lat="42.7493255" lon="17.9005914"><ele>62.0</ele><time>2026-05-04T12:36:59.621Z</time></trkpt><trkpt lat="42.7494717" lon="17.9003773"><ele>68.0</ele><time>2026-05-04T12:37:00.621Z</time></trkpt><trkpt lat="42.7495965" lon="17.9001483"><ele>61.333333333333336</ele><time>2026-05-04T12:37:01.62Z</time></trkpt><trkpt lat="42.7496964" lon="17.8998882"><ele>54.66666666666667</ele><time>2026-05-04T12:37:02.62Z</time></trkpt><trkpt lat="42.7497749" lon="17.899621"><ele>48.0</ele><time>2026-05-04T12:37:03.621Z</time></trkpt><trkpt lat="42.7498446" lon="17.8993629"><ele>42.333333333333336</ele><time>2026-05-04T12:37:04.621Z</time></trkpt><trkpt lat="42.7499163" lon="17.8991148"><ele>36.66666666666667</ele><time>2026-05-04T12:37:05.62Z</time></trkpt><trkpt lat="42.7499963" lon="17.8988826"><ele>31.0</ele><time>2026-05-04T12:37:06.62Z</time></trkpt><trkpt lat="42.7500873" lon="17.8986442"><ele>31.0</ele><time>2026-05-04T12:37:07.62Z</time></trkpt><trkpt lat="42.7501886" lon="17.8984186"><ele>31.0</ele><time>2026-05-04T12:37:08.621Z</time></trkpt><trkpt lat="42.7502943" lon="17.8982015"><ele>31.0</ele><time>2026-05-04T12:37:09.621Z</time></trkpt><trkpt lat="42.7504122" lon="17.8979891"><ele>31.666666666666668</ele><time>2026-05-04T12:37:10.621Z</time></trkpt><trkpt lat="42.750545" lon="17.8977836"><ele>32.333333333333336</ele><time>2026-05-04T12:37:11.621Z</time></trkpt><trkpt lat="42.7506901" lon="17.8975781"><ele>33.0</ele><time>2026-05-04T12:37:12.621Z</time></trkpt><trkpt lat="42.7508569" lon="17.897351"><ele>33.0</ele><time>2026-05-04T12:37:13.62Z</time></trkpt><trkpt lat="42.7510181" lon="17.8971444"><ele>33.0</ele><time>2026-05-04T12:37:14.621Z</time></trkpt><trkpt lat="42.751179" lon="17.8969391"><ele>33.0</ele><time>2026-05-04T12:37:15.621Z</time></trkpt><trkpt lat="42.7513323" lon="17.8967492"><ele>35.333333333333336</ele><time>2026-05-04T12:37:16.621Z</time></trkpt><trkpt lat="42.7514836" lon="17.8965632"><ele>37.66666666666667</ele><time>2026-05-04T12:37:17.621Z</time></trkpt><trkpt lat="42.7516216" lon="17.8963876"><ele>40.0</ele><time>2026-05-04T12:37:18.62Z</time></trkpt><trkpt lat="42.7517469" lon="17.8962053"><ele>40.0</ele><time>2026-05-04T12:37:19.621Z</time></trkpt><trkpt lat="42.7518714" lon="17.8960321"><ele>40.0</ele><time>2026-05-04T12:37:20.621Z</time></trkpt><trkpt lat="42.7519932" lon="17.8958592"><ele>40.0</ele><time>2026-05-04T12:37:21.621Z</time></trkpt><trkpt lat="42.7521017" lon="17.8956821"><ele>42.333333333333336</ele><time>2026-05-04T12:37:22.621Z</time></trkpt><trkpt lat="42.7522077" lon="17.8955027"><ele>44.666666666666664</ele><time>2026-05-04T12:37:23.62Z</time></trkpt><trkpt lat="42.7523068" lon="17.8953228"><ele>47.0</ele><time>2026-05-04T12:37:24.62Z</time></trkpt><trkpt lat="42.7523985" lon="17.8951412"><ele>42.25</ele><time>2026-05-04T12:37:25.62Z</time></trkpt><trkpt lat="42.7524807" lon="17.8949712"><ele>37.5</ele><time>2026-05-04T12:37:26.62Z</time></trkpt><trkpt lat="42.7525538" lon="17.8947991"><ele>32.75</ele><time>2026-05-04T12:37:27.62Z</time></trkpt><trkpt lat="42.7526285" lon="17.894633"><ele>28.0</ele><time>2026-05-04T12:37:28.62Z</time></trkpt><trkpt lat="42.7527114" lon="17.8944607"><ele>32.75</ele><time>2026-05-04T12:37:29.62Z</time></trkpt><trkpt lat="42.7527883" lon="17.8942945"><ele>37.5</ele><time>2026-05-04T12:37:30.62Z</time></trkpt><trkpt lat="42.7528612" lon="17.8941258"><ele>42.25</ele><time>2026-05-04T12:37:31.621Z</time></trkpt><trkpt lat="42.7529364" lon="17.8939601"><ele>47.0</ele><time>2026-05-04T12:37:32.62Z</time></trkpt><trkpt lat="42.7530052" lon="17.8937963"><ele>47.0</ele><time>2026-05-04T12:37:33.621Z</time></trkpt><trkpt lat="42.7530798" lon="17.8936302"><ele>47.0</ele><time>2026-05-04T12:37:34.62Z</time></trkpt><trkpt lat="42.7531539" lon="17.8934667"><ele>47.0</ele><time>2026-05-04T12:37:35.621Z</time></trkpt><trkpt lat="42.7532311" lon="17.8933066"><ele>47.0</ele><time>2026-05-04T12:37:36.62Z</time></trkpt><trkpt lat="42.7533141" lon="17.8931529"><ele>46.5</ele><time>2026-05-04T12:37:37.621Z</time></trkpt><trkpt lat="42.7533944" lon="17.8930009"><ele>46.0</ele><time>2026-05-04T12:37:38.621Z</time></trkpt><trkpt lat="42.7534788" lon="17.8928547"><ele>45.5</ele><time>2026-05-04T12:37:39.621Z</time></trkpt><trkpt lat="42.7535615" lon="17.8927148"><ele>45.0</ele><time>2026-05-04T12:37:40.621Z</time></trkpt><trkpt lat="42.7536436" lon="17.8925704"><ele>45.0</ele><time>2026-05-04T12:37:41.62Z</time></trkpt><trkpt lat="42.7537292" lon="17.8924331"><ele>45.0</ele><time>2026-05-04T12:37:42.62Z</time></trkpt><trkpt lat="42.7538073" lon="17.8923012"><ele>45.0</ele><time>2026-05-04T12:37:43.62Z</time></trkpt><trkpt lat="42.7538836" lon="17.8921703"><ele>45.0</ele><time>2026-05-04T12:37:44.621Z</time></trkpt><trkpt lat="42.7539627" lon="17.8920495"><ele>45.0</ele><time>2026-05-04T12:37:45.621Z</time></trkpt><trkpt lat="42.7540357" lon="17.8919342"><ele>45.0</ele><time>2026-05-04T12:37:46.621Z</time></trkpt><trkpt lat="42.754101" lon="17.8918101"><ele>45.0</ele><time>2026-05-04T12:37:47.621Z</time></trkpt><trkpt lat="42.7541664" lon="17.8916856"><ele>45.0</ele><time>2026-05-04T12:37:48.62Z</time></trkpt><trkpt lat="42.7542408" lon="17.8915622"><ele>49.75</ele><time>2026-05-04T12:37:49.621Z</time></trkpt><trkpt lat="42.7543131" lon="17.8914356"><ele>54.5</ele><time>2026-05-04T12:37:50.62Z</time></trkpt><trkpt lat="42.7543953" lon="17.8913038"><ele>59.25</ele><time>2026-05-04T12:37:51.621Z</time></trkpt><trkpt lat="42.7544693" lon="17.8911686"><ele>64.0</ele><time>2026-05-04T12:37:52.621Z</time></trkpt><trkpt lat="42.7545461" lon="17.8910215"><ele>58.0</ele><time>2026-05-04T12:37:53.621Z</time></trkpt><trkpt lat="42.7546333" lon="17.8908838"><ele>52.0</ele><time>2026-05-04T12:37:54.621Z</time></trkpt><trkpt lat="42.7547228" lon="17.8907092"><ele>46.0</ele><time>2026-05-04T12:37:55.62Z</time></trkpt><trkpt lat="42.7548211" lon="17.8905243"><ele>46.0</ele><time>2026-05-04T12:37:56.62Z</time></trkpt><trkpt lat="42.7549303" lon="17.8903153"><ele>46.0</ele><time>2026-05-04T12:37:57.621Z</time></trkpt><trkpt lat="42.7550419" lon="17.8900918"><ele>46.0</ele><time>2026-05-04T12:37:58.621Z</time></trkpt><trkpt lat="42.7551536" lon="17.889873"><ele>45.66666666666667</ele><time>2026-05-04T12:37:59.621Z</time></trkpt><trkpt lat="42.7552734" lon="17.8896342"><ele>45.333333333333336</ele><time>2026-05-04T12:38:00.621Z</time></trkpt><trkpt lat="42.7553883" lon="17.8893964"><ele>45.0</ele><time>2026-05-04T12:38:01.621Z</time></trkpt><trkpt lat="42.7555163" lon="17.8891683"><ele>45.0</ele><time>2026-05-04T12:38:02.621Z</time></trkpt><trkpt lat="42.7556334" lon="17.8889424"><ele>45.0</ele><time>2026-05-04T12:38:03.621Z</time></trkpt><trkpt lat="42.7557569" lon="17.8887009"><ele>45.0</ele><time>2026-05-04T12:38:04.62Z</time></trkpt><trkpt lat="42.7558806" lon="17.8884687"><ele>39.0</ele><time>2026-05-04T12:38:05.62Z</time></trkpt><trkpt lat="42.7560011" lon="17.8882347"><ele>33.0</ele><time>2026-05-04T12:38:06.62Z</time></trkpt><trkpt lat="42.7561219" lon="17.8880119"><ele>27.0</ele><time>2026-05-04T12:38:07.621Z</time></trkpt><trkpt lat="42.7562465" lon="17.8877859"><ele>33.0</ele><time>2026-05-04T12:38:08.621Z</time></trkpt><trkpt lat="42.7563777" lon="17.8875746"><ele>39.0</ele><time>2026-05-04T12:38:09.621Z</time></trkpt><trkpt lat="42.7565008" lon="17.8873478"><ele>45.0</ele><time>2026-05-04T12:38:10.621Z</time></trkpt><trkpt lat="42.7566304" lon="17.8871193"><ele>45.0</ele><time>2026-05-04T12:38:11.62Z</time></trkpt><trkpt lat="42.7567595" lon="17.8868969"><ele>45.0</ele><time>2026-05-04T12:38:12.621Z</time></trkpt><trkpt lat="42.756888" lon="17.886684"><ele>45.0</ele><time>2026-05-04T12:38:13.621Z</time></trkpt><trkpt lat="42.757026" lon="17.8864678"><ele>42.333333333333336</ele><time>2026-05-04T12:38:14.621Z</time></trkpt><trkpt lat="42.7571569" lon="17.8862518"><ele>39.66666666666667</ele><time>2026-05-04T12:38:15.621Z</time></trkpt><trkpt lat="42.7572936" lon="17.8860447"><ele>37.0</ele><time>2026-05-04T12:38:16.621Z</time></trkpt><trkpt lat="42.7574342" lon="17.8858351"><ele>37.0</ele><time>2026-05-04T12:38:17.621Z</time></trkpt><trkpt lat="42.7575748" lon="17.8856274"><ele>37.0</ele><time>2026-05-04T12:38:18.62Z</time></trkpt><trkpt lat="42.7577105" lon="17.8854175"><ele>37.0</ele><time>2026-05-04T12:38:19.621Z</time></trkpt><trkpt lat="42.7578569" lon="17.8852206"><ele>42.0</ele><time>2026-05-04T12:38:20.621Z</time></trkpt><trkpt lat="42.7579962" lon="17.8850232"><ele>47.0</ele><time>2026-05-04T12:38:21.621Z</time></trkpt><trkpt lat="42.7581478" lon="17.884835"><ele>52.0</ele><time>2026-05-04T12:38:22.62Z</time></trkpt><trkpt lat="42.7583021" lon="17.8846385"><ele>52.0</ele><time>2026-05-04T12:38:23.62Z</time></trkpt><trkpt lat="42.7584553" lon="17.8844491"><ele>52.0</ele><time>2026-05-04T12:38:24.62Z</time></trkpt><trkpt lat="42.7586162" lon="17.8842579"><ele>52.0</ele><time>2026-05-04T12:38:25.62Z</time></trkpt><trkpt lat="42.7587746" lon="17.8840641"><ele>55.666666666666664</ele><time>2026-05-04T12:38:26.62Z</time></trkpt><trkpt lat="42.7589294" lon="17.883865"><ele>59.33333333333333</ele><time>2026-05-04T12:38:27.62Z</time></trkpt><trkpt lat="42.7591008" lon="17.8836651"><ele>63.0</ele><time>2026-05-04T12:38:28.62Z</time></trkpt><trkpt lat="42.7592693" lon="17.8834487"><ele>70.0</ele><time>2026-05-04T12:38:29.621Z</time></trkpt><trkpt lat="42.7594409" lon="17.8832282"><ele>77.0</ele><time>2026-05-04T12:38:30.62Z</time></trkpt><trkpt lat="42.759615" lon="17.8830011"><ele>77.0</ele><time>2026-05-04T12:38:31.62Z</time></trkpt><trkpt lat="42.7597826" lon="17.8827749"><ele>77.0</ele><time>2026-05-04T12:38:32.62Z</time></trkpt><trkpt lat="42.7599483" lon="17.8825423"><ele>84.0</ele><time>2026-05-04T12:38:33.621Z</time></trkpt><trkpt lat="42.7601195" lon="17.882309"><ele>91.0</ele><time>2026-05-04T12:38:34.621Z</time></trkpt><trkpt lat="42.7602825" lon="17.8820795"><ele>91.0</ele><time>2026-05-04T12:38:35.621Z</time></trkpt><trkpt lat="42.7604452" lon="17.8818541"><ele>91.0</ele><time>2026-05-04T12:38:36.621Z</time></trkpt><trkpt lat="42.7606042" lon="17.8816245"><ele>76.0</ele><time>2026-05-04T12:38:37.62Z</time></trkpt><trkpt lat="42.7607713" lon="17.8814071"><ele>61.0</ele><time>2026-05-04T12:38:38.621Z</time></trkpt><trkpt lat="42.7609328" lon="17.8811781"><ele>66.5</ele><time>2026-05-04T12:38:39.62Z</time></trkpt><trkpt lat="42.7610941" lon="17.8809638"><ele>72.0</ele><time>2026-05-04T12:38:40.621Z</time></trkpt><trkpt lat="42.7612642" lon="17.8807481"><ele>72.0</ele><time>2026-05-04T12:38:41.62Z</time></trkpt><trkpt lat="42.7614452" lon="17.8805416"><ele>72.0</ele><time>2026-05-04T12:38:42.621Z</time></trkpt><trkpt lat="42.76162" lon="17.8803429"><ele>72.0</ele><time>2026-05-04T12:38:43.62Z</time></trkpt><trkpt lat="42.7617963" lon="17.8801292"><ele>72.0</ele><time>2026-05-04T12:38:44.62Z</time></trkpt><trkpt lat="42.7619757" lon="17.8799237"><ele>77.0</ele><time>2026-05-04T12:38:45.621Z</time></trkpt><trkpt lat="42.7621562" lon="17.8797122"><ele>82.0</ele><time>2026-05-04T12:38:46.621Z</time></trkpt><trkpt lat="42.7623371" lon="17.8794998"><ele>82.0</ele><time>2026-05-04T12:38:47.621Z</time></trkpt><trkpt lat="42.7625173" lon="17.8792909"><ele>82.0</ele><time>2026-05-04T12:38:48.62Z</time></trkpt><trkpt lat="42.7627079" lon="17.8790876"><ele>83.5</ele><time>2026-05-04T12:38:49.62Z</time></trkpt><trkpt lat="42.7628913" lon="17.8788888"><ele>85.0</ele><time>2026-05-04T12:38:50.621Z</time></trkpt><trkpt lat="42.7630723" lon="17.8786902"><ele>85.0</ele><time>2026-05-04T12:38:51.621Z</time></trkpt><trkpt lat="42.7632462" lon="17.8784971"><ele>85.0</ele><time>2026-05-04T12:38:52.62Z</time></trkpt><trkpt lat="42.7634263" lon="17.8783124"><ele>86.66666666666666</ele><time>2026-05-04T12:38:53.621Z</time></trkpt><trkpt lat="42.7636082" lon="17.8781352"><ele>88.33333333333333</ele><time>2026-05-04T12:38:54.621Z</time></trkpt><trkpt lat="42.76379" lon="17.8779655"><ele>90.0</ele><time>2026-05-04T12:38:55.62Z</time></trkpt><trkpt lat="42.7639701" lon="17.8777949"><ele>90.0</ele><time>2026-05-04T12:38:56.62Z</time></trkpt><trkpt lat="42.7641421" lon="17.8776222"><ele>90.0</ele><time>2026-05-04T12:38:57.62Z</time></trkpt><trkpt lat="42.7643306" lon="17.8774472"><ele>90.0</ele><time>2026-05-04T12:38:58.62Z</time></trkpt><trkpt lat="42.7645241" lon="17.8772695"><ele>87.0</ele><time>2026-05-04T12:38:59.621Z</time></trkpt><trkpt lat="42.7647135" lon="17.8771024"><ele>84.0</ele><time>2026-05-04T12:39:00.621Z</time></trkpt><trkpt lat="42.7649041" lon="17.8769248"><ele>81.0</ele><time>2026-05-04T12:39:01.62Z</time></trkpt><trkpt lat="42.7651022" lon="17.8767639"><ele>78.0</ele><time>2026-05-04T12:39:02.621Z</time></trkpt><trkpt lat="42.7653106" lon="17.8766144"><ele>78.0</ele><time>2026-05-04T12:39:03.621Z</time></trkpt><trkpt lat="42.7655257" lon="17.8764776"><ele>78.0</ele><time>2026-05-04T12:39:04.621Z</time></trkpt><trkpt lat="42.7657437" lon="17.8763408"><ele>78.0</ele><time>2026-05-04T12:39:05.621Z</time></trkpt><trkpt lat="42.7659632" lon="17.8761944"><ele>78.0</ele><time>2026-05-04T12:39:06.62Z</time></trkpt><trkpt lat="42.7661884" lon="17.8760561"><ele>71.5</ele><time>2026-05-04T12:39:07.62Z</time></trkpt><trkpt lat="42.7664083" lon="17.8759253"><ele>65.0</ele><time>2026-05-04T12:39:08.621Z</time></trkpt><trkpt lat="42.7666026" lon="17.8758006"><ele>65.0</ele><time>2026-05-04T12:39:09.621Z</time></trkpt><trkpt lat="42.7667821" lon="17.8756861"><ele>65.0</ele><time>2026-05-04T12:39:10.62Z</time></trkpt><trkpt lat="42.7669535" lon="17.875586"><ele>65.0</ele><time>2026-05-04T12:39:11.62Z</time></trkpt><trkpt lat="42.7671236" lon="17.8755172"><ele>71.0</ele><time>2026-05-04T12:39:12.62Z</time></trkpt><trkpt lat="42.7672801" lon="17.8754655"><ele>77.0</ele><time>2026-05-04T12:39:13.62Z</time></trkpt><trkpt lat="42.7674402" lon="17.8754402"><ele>83.0</ele><time>2026-05-04T12:39:14.62Z</time></trkpt><trkpt lat="42.7676054" lon="17.8754424"><ele>79.0</ele><time>2026-05-04T12:39:15.621Z</time></trkpt><trkpt lat="42.767765" lon="17.8754709"><ele>75.0</ele><time>2026-05-04T12:39:16.621Z</time></trkpt><trkpt lat="42.7679305" lon="17.8755301"><ele>71.0</ele><time>2026-05-04T12:39:17.62Z</time></trkpt><trkpt lat="42.7681009" lon="17.8756432"><ele>71.0</ele><time>2026-05-04T12:39:18.62Z</time></trkpt><trkpt lat="42.7682731" lon="17.875742"><ele>71.0</ele><time>2026-05-04T12:39:19.621Z</time></trkpt><trkpt lat="42.7684371" lon="17.8758477"><ele>71.0</ele><time>2026-05-04T12:39:20.621Z</time></trkpt><trkpt lat="42.7686064" lon="17.8759389"><ele>75.0</ele><time>2026-05-04T12:39:21.62Z</time></trkpt><trkpt lat="42.7687742" lon="17.8760119"><ele>79.0</ele><time>2026-05-04T12:39:22.621Z</time></trkpt><trkpt lat="42.7689386" lon="17.8760575"><ele>83.0</ele><time>2026-05-04T12:39:23.621Z</time></trkpt><trkpt lat="42.7691057" lon="17.8760891"><ele>83.0</ele><time>2026-05-04T12:39:24.62Z</time></trkpt><trkpt lat="42.7692552" lon="17.8760884"><ele>83.0</ele><time>2026-05-04T12:39:25.621Z</time></trkpt><trkpt lat="42.769403" lon="17.8760915"><ele>83.0</ele><time>2026-05-04T12:39:26.62Z</time></trkpt><trkpt lat="42.7695461" lon="17.8760963"><ele>83.0</ele><time>2026-05-04T12:39:27.621Z</time></trkpt><trkpt lat="42.769698" lon="17.876121"><ele>82.25</ele><time>2026-05-04T12:39:28.621Z</time></trkpt><trkpt lat="42.769846" lon="17.8761619"><ele>81.5</ele><time>2026-05-04T12:39:29.621Z</time></trkpt><trkpt lat="42.7699838" lon="17.8762243"><ele>80.75</ele><time>2026-05-04T12:39:30.62Z</time></trkpt><trkpt lat="42.770113" lon="17.8763061"><ele>80.0</ele><time>2026-05-04T12:39:31.621Z</time></trkpt><trkpt lat="42.7702351" lon="17.8764186"><ele>78.5</ele><time>2026-05-04T12:39:32.621Z</time></trkpt><trkpt lat="42.7703427" lon="17.8765539"><ele>77.0</ele><time>2026-05-04T12:39:33.621Z</time></trkpt><trkpt lat="42.7704364" lon="17.876707"><ele>75.5</ele><time>2026-05-04T12:39:34.62Z</time></trkpt><trkpt lat="42.7705191" lon="17.8768687"><ele>74.0</ele><time>2026-05-04T12:39:35.621Z</time></trkpt><trkpt lat="42.7705821" lon="17.87705"><ele>73.75</ele><time>2026-05-04T12:39:36.621Z</time></trkpt><trkpt lat="42.7706249" lon="17.8772436"><ele>73.5</ele><time>2026-05-04T12:39:37.62Z</time></trkpt><trkpt lat="42.7706474" lon="17.8774411"><ele>73.25</ele><time>2026-05-04T12:39:38.62Z</time></trkpt><trkpt lat="42.7706505" lon="17.8776455"><ele>73.0</ele><time>2026-05-04T12:39:39.621Z</time></trkpt><trkpt lat="42.7706276" lon="17.8778491"><ele>69.66666666666666</ele><time>2026-05-04T12:39:40.621Z</time></trkpt><trkpt lat="42.7705859" lon="17.8780513"><ele>66.33333333333333</ele><time>2026-05-04T12:39:41.621Z</time></trkpt><trkpt lat="42.770521" lon="17.8782681"><ele>63.0</ele><time>2026-05-04T12:39:42.621Z</time></trkpt><trkpt lat="42.7704382" lon="17.8785104"><ele>61.66666666666667</ele><time>2026-05-04T12:39:43.62Z</time></trkpt><trkpt lat="42.7703291" lon="17.8787767"><ele>60.333333333333336</ele><time>2026-05-04T12:39:44.62Z</time></trkpt><trkpt lat="42.7702161" lon="17.8790414"><ele>59.0</ele><time>2026-05-04T12:39:45.62Z</time></trkpt><trkpt lat="42.7701077" lon="17.8792946"><ele>59.0</ele><time>2026-05-04T12:39:46.621Z</time></trkpt><trkpt lat="42.7700191" lon="17.8795515"><ele>59.0</ele><time>2026-05-04T12:39:47.621Z</time></trkpt><trkpt lat="42.7699573" lon="17.8797968"><ele>59.0</ele><time>2026-05-04T12:39:48.62Z</time></trkpt><trkpt lat="42.7699261" lon="17.8800363"><ele>58.333333333333336</ele><time>2026-05-04T12:39:49.62Z</time></trkpt><trkpt lat="42.7699212" lon="17.880279"><ele>57.66666666666667</ele><time>2026-05-04T12:39:50.621Z</time></trkpt><trkpt lat="42.7699389" lon="17.8805117"><ele>57.0</ele><time>2026-05-04T12:39:51.62Z</time></trkpt><trkpt lat="42.7699931" lon="17.8807364"><ele>57.0</ele><time>2026-05-04T12:39:52.62Z</time></trkpt><trkpt lat="42.770083" lon="17.8809203"><ele>57.0</ele><time>2026-05-04T12:39:53.62Z</time></trkpt><trkpt lat="42.7701961" lon="17.8810888"><ele>57.0</ele><time>2026-05-04T12:39:54.621Z</time></trkpt><trkpt lat="42.7703429" lon="17.8812382"><ele>59.33333333333333</ele><time>2026-05-04T12:39:55.62Z</time></trkpt><trkpt lat="42.7705279" lon="17.8813716"><ele>61.666666666666664</ele><time>2026-05-04T12:39:56.62Z</time></trkpt><trkpt lat="42.770732" lon="17.8814699"><ele>64.0</ele><time>2026-05-04T12:39:57.62Z</time></trkpt><trkpt lat="42.7709269" lon="17.8815537"><ele>64.33333333333333</ele><time>2026-05-04T12:39:58.621Z</time></trkpt><trkpt lat="42.7711224" lon="17.8816309"><ele>64.66666666666667</ele><time>2026-05-04T12:39:59.621Z</time></trkpt><trkpt lat="42.7713107" lon="17.8817161"><ele>65.0</ele><time>2026-05-04T12:40:00.62Z</time></trkpt><trkpt lat="42.771484" lon="17.8818205"><ele>67.0</ele><time>2026-05-04T12:40:01.62Z</time></trkpt><trkpt lat="42.7716373" lon="17.8819426"><ele>69.0</ele><time>2026-05-04T12:40:02.62Z</time></trkpt><trkpt lat="42.7717755" lon="17.882079"><ele>71.0</ele><time>2026-05-04T12:40:03.621Z</time></trkpt><trkpt lat="42.7718815" lon="17.8822504"><ele>60.66666666666667</ele><time>2026-05-04T12:40:04.621Z</time></trkpt><trkpt lat="42.7719617" lon="17.8824426"><ele>50.333333333333336</ele><time>2026-05-04T12:40:05.62Z</time></trkpt><trkpt lat="42.7719951" lon="17.8827014"><ele>40.0</ele><time>2026-05-04T12:40:06.62Z</time></trkpt><trkpt lat="42.7720193" lon="17.882964"><ele>37.66666666666667</ele><time>2026-05-04T12:40:07.62Z</time></trkpt><trkpt lat="42.7720096" lon="17.8832574"><ele>35.333333333333336</ele><time>2026-05-04T12:40:08.621Z</time></trkpt><trkpt lat="42.7719969" lon="17.8835571"><ele>33.0</ele><time>2026-05-04T12:40:09.62Z</time></trkpt><trkpt lat="42.7719883" lon="17.8838688"><ele>33.0</ele><time>2026-05-04T12:40:10.621Z</time></trkpt><trkpt lat="42.7719953" lon="17.8841779"><ele>33.0</ele><time>2026-05-04T12:40:11.621Z</time></trkpt><trkpt lat="42.7720258" lon="17.8844785"><ele>35.666666666666664</ele><time>2026-05-04T12:40:12.621Z</time></trkpt><trkpt lat="42.7720751" lon="17.8847682"><ele>38.33333333333333</ele><time>2026-05-04T12:40:13.62Z</time></trkpt><trkpt lat="42.7721369" lon="17.885052"><ele>41.0</ele><time>2026-05-04T12:40:14.62Z</time></trkpt><trkpt lat="42.772214" lon="17.8853228"><ele>45.666666666666664</ele><time>2026-05-04T12:40:15.621Z</time></trkpt><trkpt lat="42.7723123" lon="17.8855844"><ele>50.33333333333333</ele><time>2026-05-04T12:40:16.621Z</time></trkpt><trkpt lat="42.7724208" lon="17.8858319"><ele>55.0</ele><time>2026-05-04T12:40:17.621Z</time></trkpt><trkpt lat="42.7725408" lon="17.8860701"><ele>53.0</ele><time>2026-05-04T12:40:18.62Z</time></trkpt><trkpt lat="42.7726729" lon="17.8862956"><ele>51.0</ele><time>2026-05-04T12:40:19.621Z</time></trkpt><trkpt lat="42.7728216" lon="17.8865181"><ele>49.0</ele><time>2026-05-04T12:40:20.621Z</time></trkpt><trkpt lat="42.7729739" lon="17.8867237"><ele>52.0</ele><time>2026-05-04T12:40:21.62Z</time></trkpt><trkpt lat="42.7731371" lon="17.8869226"><ele>55.0</ele><time>2026-05-04T12:40:22.62Z</time></trkpt><trkpt lat="42.773311" lon="17.8871146"><ele>58.0</ele><time>2026-05-04T12:40:23.62Z</time></trkpt><trkpt lat="42.773499" lon="17.8872726"><ele>54.5</ele><time>2026-05-04T12:40:24.621Z</time></trkpt><trkpt lat="42.773702" lon="17.8874268"><ele>51.0</ele><time>2026-05-04T12:40:25.621Z</time></trkpt><trkpt lat="42.7739006" lon="17.8875491"><ele>59.33333333333333</ele><time>2026-05-04T12:40:26.621Z</time></trkpt><trkpt lat="42.7741193" lon="17.8876546"><ele>67.66666666666666</ele><time>2026-05-04T12:40:27.621Z</time></trkpt><trkpt lat="42.7743261" lon="17.8877287"><ele>76.0</ele><time>2026-05-04T12:40:28.62Z</time></trkpt><trkpt lat="42.7745381" lon="17.887777"><ele>77.0</ele><time>2026-05-04T12:40:29.62Z</time></trkpt><trkpt lat="42.7747511" lon="17.8878111"><ele>78.0</ele><time>2026-05-04T12:40:30.62Z</time></trkpt><trkpt lat="42.7749659" lon="17.8878177"><ele>79.0</ele><time>2026-05-04T12:40:31.621Z</time></trkpt><trkpt lat="42.7751788" lon="17.8877999"><ele>82.0</ele><time>2026-05-04T12:40:32.621Z</time></trkpt><trkpt lat="42.7753927" lon="17.8877596"><ele>85.0</ele><time>2026-05-04T12:40:33.62Z</time></trkpt><trkpt lat="42.7756043" lon="17.8876999"><ele>88.0</ele><time>2026-05-04T12:40:34.621Z</time></trkpt><trkpt lat="42.7758076" lon="17.887611"><ele>81.0</ele><time>2026-05-04T12:40:35.62Z</time></trkpt><trkpt lat="42.7760099" lon="17.8875097"><ele>74.0</ele><time>2026-05-04T12:40:36.621Z</time></trkpt><trkpt lat="42.7762011" lon="17.8873881"><ele>67.0</ele><time>2026-05-04T12:40:37.62Z</time></trkpt><trkpt lat="42.776389" lon="17.8872645"><ele>67.0</ele><time>2026-05-04T12:40:38.62Z</time></trkpt><trkpt lat="42.7765676" lon="17.8871425"><ele>67.0</ele><time>2026-05-04T12:40:39.621Z</time></trkpt><trkpt lat="42.7767324" lon="17.8870304"><ele>67.0</ele><time>2026-05-04T12:40:40.62Z</time></trkpt><trkpt lat="42.7768943" lon="17.8869453"><ele>68.0</ele><time>2026-05-04T12:40:41.621Z</time></trkpt><trkpt lat="42.7770556" lon="17.8868808"><ele>69.0</ele><time>2026-05-04T12:40:42.621Z</time></trkpt><trkpt lat="42.7772085" lon="17.8868369"><ele>70.0</ele><time>2026-05-04T12:40:43.621Z</time></trkpt><trkpt lat="42.7773583" lon="17.8868165"><ele>70.0</ele><time>2026-05-04T12:40:44.62Z</time></trkpt><trkpt lat="42.7775091" lon="17.8868266"><ele>70.0</ele><time>2026-05-04T12:40:45.621Z</time></trkpt><trkpt lat="42.7776584" lon="17.8868611"><ele>70.0</ele><time>2026-05-04T12:40:46.62Z</time></trkpt><trkpt lat="42.7778072" lon="17.8869179"><ele>64.33333333333333</ele><time>2026-05-04T12:40:47.62Z</time></trkpt><trkpt lat="42.7779539" lon="17.8869942"><ele>58.66666666666667</ele><time>2026-05-04T12:40:48.621Z</time></trkpt><trkpt lat="42.7780955" lon="17.8870981"><ele>53.0</ele><time>2026-05-04T12:40:49.62Z</time></trkpt><trkpt lat="42.7782256" lon="17.8872366"><ele>53.0</ele><time>2026-05-04T12:40:50.621Z</time></trkpt><trkpt lat="42.7783477" lon="17.8873949"><ele>53.0</ele><time>2026-05-04T12:40:51.62Z</time></trkpt><trkpt lat="42.7784748" lon="17.8875747"><ele>53.0</ele><time>2026-05-04T12:40:52.62Z</time></trkpt><trkpt lat="42.7785804" lon="17.8877649"><ele>51.0</ele><time>2026-05-04T12:40:53.62Z</time></trkpt><trkpt lat="42.7786688" lon="17.8879697"><ele>49.0</ele><time>2026-05-04T12:40:54.62Z</time></trkpt><trkpt lat="42.778756" lon="17.8881651"><ele>47.0</ele><time>2026-05-04T12:40:55.621Z</time></trkpt><trkpt lat="42.778823" lon="17.8883597"><ele>49.33333333333333</ele><time>2026-05-04T12:40:56.621Z</time></trkpt><trkpt lat="42.7788854" lon="17.8885697"><ele>51.666666666666664</ele><time>2026-05-04T12:40:57.621Z</time></trkpt><trkpt lat="42.7789382" lon="17.8887834"><ele>54.0</ele><time>2026-05-04T12:40:58.62Z</time></trkpt><trkpt lat="42.7789863" lon="17.8890145"><ele>54.0</ele><time>2026-05-04T12:40:59.621Z</time></trkpt><trkpt lat="42.7790386" lon="17.8892355"><ele>54.0</ele><time>2026-05-04T12:41:00.62Z</time></trkpt><trkpt lat="42.7790992" lon="17.8894483"><ele>54.0</ele><time>2026-05-04T12:41:01.62Z</time></trkpt><trkpt lat="42.7791686" lon="17.8896363"><ele>52.5</ele><time>2026-05-04T12:41:02.621Z</time></trkpt><trkpt lat="42.7792369" lon="17.8898187"><ele>51.0</ele><time>2026-05-04T12:41:03.621Z</time></trkpt><trkpt lat="42.7793208" lon="17.8899718"><ele>49.5</ele><time>2026-05-04T12:41:04.62Z</time></trkpt><trkpt lat="42.7794219" lon="17.890122"><ele>48.0</ele><time>2026-05-04T12:41:05.62Z</time></trkpt><trkpt lat="42.7795402" lon="17.8902519"><ele>53.33333333333333</ele><time>2026-05-04T12:41:06.62Z</time></trkpt><trkpt lat="42.7796769" lon="17.89036"><ele>58.666666666666664</ele><time>2026-05-04T12:41:07.621Z</time></trkpt><trkpt lat="42.7798299" lon="17.8904484"><ele>64.0</ele><time>2026-05-04T12:41:08.621Z</time></trkpt><trkpt lat="42.7800038" lon="17.8905047"><ele>64.66666666666666</ele><time>2026-05-04T12:41:09.621Z</time></trkpt><trkpt lat="42.7801939" lon="17.8905313"><ele>65.33333333333333</ele><time>2026-05-04T12:41:10.62Z</time></trkpt><trkpt lat="42.7803952" lon="17.8905338"><ele>66.0</ele><time>2026-05-04T12:41:11.62Z</time></trkpt><trkpt lat="42.7806011" lon="17.8905229"><ele>66.0</ele><time>2026-05-04T12:41:12.62Z</time></trkpt><trkpt lat="42.7808107" lon="17.8905039"><ele>66.0</ele><time>2026-05-04T12:41:13.621Z</time></trkpt><trkpt lat="42.7810203" lon="17.8904921"><ele>66.0</ele><time>2026-05-04T12:41:14.62Z</time></trkpt><trkpt lat="42.7812283" lon="17.8904992"><ele>62.66666666666667</ele><time>2026-05-04T12:41:15.62Z</time></trkpt><trkpt lat="42.7814315" lon="17.890517"><ele>59.333333333333336</ele><time>2026-05-04T12:41:16.621Z</time></trkpt><trkpt lat="42.7816317" lon="17.8905427"><ele>56.0</ele><time>2026-05-04T12:41:17.62Z</time></trkpt><trkpt lat="42.7818254" lon="17.8905965"><ele>50.333333333333336</ele><time>2026-05-04T12:41:18.62Z</time></trkpt><trkpt lat="42.7819982" lon="17.8906611"><ele>44.66666666666667</ele><time>2026-05-04T12:41:19.621Z</time></trkpt><trkpt lat="42.7821702" lon="17.8907383"><ele>39.0</ele><time>2026-05-04T12:41:20.62Z</time></trkpt><trkpt lat="42.782341" lon="17.890826"><ele>38.666666666666664</ele><time>2026-05-04T12:41:21.621Z</time></trkpt><trkpt lat="42.782497" lon="17.8909264"><ele>38.33333333333333</ele><time>2026-05-04T12:41:22.621Z</time></trkpt><trkpt lat="42.7826546" lon="17.8910458"><ele>38.0</ele><time>2026-05-04T12:41:23.62Z</time></trkpt><trkpt lat="42.7828162" lon="17.8911865"><ele>38.0</ele><time>2026-05-04T12:41:24.621Z</time></trkpt><trkpt lat="42.7829647" lon="17.8913329"><ele>38.0</ele><time>2026-05-04T12:41:25.621Z</time></trkpt><trkpt lat="42.7831139" lon="17.8914943"><ele>38.0</ele><time>2026-05-04T12:41:26.621Z</time></trkpt><trkpt lat="42.7832497" lon="17.8916656"><ele>33.0</ele><time>2026-05-04T12:41:27.621Z</time></trkpt><trkpt lat="42.7833761" lon="17.8918415"><ele>28.0</ele><time>2026-05-04T12:41:28.62Z</time></trkpt><trkpt lat="42.783491" lon="17.8920332"><ele>23.0</ele><time>2026-05-04T12:41:29.62Z</time></trkpt><trkpt lat="42.7835936" lon="17.8922296"><ele>23.0</ele><time>2026-05-04T12:41:30.62Z</time></trkpt><trkpt lat="42.7836731" lon="17.8924362"><ele>23.0</ele><time>2026-05-04T12:41:31.62Z</time></trkpt><trkpt lat="42.7837579" lon="17.8926407"><ele>23.0</ele><time>2026-05-04T12:41:32.621Z</time></trkpt><trkpt lat="42.7838605" lon="17.8928417"><ele>26.666666666666668</ele><time>2026-05-04T12:41:33.621Z</time></trkpt><trkpt lat="42.7839755" lon="17.8930412"><ele>30.333333333333336</ele><time>2026-05-04T12:41:34.621Z</time></trkpt><trkpt lat="42.7840984" lon="17.8932352"><ele>34.0</ele><time>2026-05-04T12:41:35.621Z</time></trkpt><trkpt lat="42.7842334" lon="17.8934284"><ele>34.0</ele><time>2026-05-04T12:41:36.621Z</time></trkpt><trkpt lat="42.7843829" lon="17.8936235"><ele>34.0</ele><time>2026-05-04T12:41:37.621Z</time></trkpt><trkpt lat="42.7845245" lon="17.8938161"><ele>34.0</ele><time>2026-05-04T12:41:38.621Z</time></trkpt><trkpt lat="42.7846633" lon="17.8939798"><ele>34.0</ele><time>2026-05-04T12:41:39.621Z</time></trkpt><trkpt lat="42.7848207" lon="17.89414"><ele>34.0</ele><time>2026-05-04T12:41:40.62Z</time></trkpt><trkpt lat="42.7849718" lon="17.8942774"><ele>34.0</ele><time>2026-05-04T12:41:41.621Z</time></trkpt><trkpt lat="42.7851293" lon="17.8944057"><ele>34.333333333333336</ele><time>2026-05-04T12:41:42.62Z</time></trkpt><trkpt lat="42.7852943" lon="17.8945166"><ele>34.666666666666664</ele><time>2026-05-04T12:41:43.621Z</time></trkpt><trkpt lat="42.785465" lon="17.8946043"><ele>35.0</ele><time>2026-05-04T12:41:44.62Z</time></trkpt><trkpt lat="42.785635" lon="17.8946707"><ele>35.0</ele><time>2026-05-04T12:41:45.621Z</time></trkpt><trkpt lat="42.7857993" lon="17.8947084"><ele>35.0</ele><time>2026-05-04T12:41:46.62Z</time></trkpt><trkpt lat="42.785959" lon="17.8947288"><ele>35.0</ele><time>2026-05-04T12:41:47.62Z</time></trkpt><trkpt lat="42.7861167" lon="17.8947254"><ele>33.0</ele><time>2026-05-04T12:41:48.62Z</time></trkpt><trkpt lat="42.7862666" lon="17.8947068"><ele>31.0</ele><time>2026-05-04T12:41:49.62Z</time></trkpt><trkpt lat="42.786415" lon="17.8946646"><ele>29.0</ele><time>2026-05-04T12:41:50.62Z</time></trkpt><trkpt lat="42.7865575" lon="17.8946021"><ele>29.0</ele><time>2026-05-04T12:41:51.621Z</time></trkpt><trkpt lat="42.7867107" lon="17.8945405"><ele>29.0</ele><time>2026-05-04T12:41:52.621Z</time></trkpt><trkpt lat="42.7868543" lon="17.8944505"><ele>29.0</ele><time>2026-05-04T12:41:53.621Z</time></trkpt><trkpt lat="42.7869895" lon="17.8943331"><ele>32.33333333333333</ele><time>2026-05-04T12:41:54.621Z</time></trkpt><trkpt lat="42.7871193" lon="17.8942046"><ele>35.666666666666664</ele><time>2026-05-04T12:41:55.621Z</time></trkpt><trkpt lat="42.7872474" lon="17.894076"><ele>39.0</ele><time>2026-05-04T12:41:56.621Z</time></trkpt><trkpt lat="42.7873653" lon="17.8939428"><ele>39.0</ele><time>2026-05-04T12:41:57.621Z</time></trkpt><trkpt lat="42.7874687" lon="17.8938018"><ele>39.0</ele><time>2026-05-04T12:41:58.621Z</time></trkpt><trkpt lat="42.7875661" lon="17.8936524"><ele>39.0</ele><time>2026-05-04T12:41:59.621Z</time></trkpt><trkpt lat="42.7876632" lon="17.8934994"><ele>39.0</ele><time>2026-05-04T12:42:00.621Z</time></trkpt><trkpt lat="42.7877528" lon="17.8933356"><ele>42.66666666666667</ele><time>2026-05-04T12:42:01.621Z</time></trkpt><trkpt lat="42.7878395" lon="17.8931649"><ele>46.333333333333336</ele><time>2026-05-04T12:42:02.62Z</time></trkpt><trkpt lat="42.7879168" lon="17.8929857"><ele>50.0</ele><time>2026-05-04T12:42:03.62Z</time></trkpt><trkpt lat="42.7879868" lon="17.8927993"><ele>50.0</ele><time>2026-05-04T12:42:04.621Z</time></trkpt><trkpt lat="42.7880447" lon="17.8926071"><ele>50.0</ele><time>2026-05-04T12:42:05.62Z</time></trkpt><trkpt lat="42.7880956" lon="17.8924029"><ele>50.0</ele><time>2026-05-04T12:42:06.62Z</time></trkpt><trkpt lat="42.7881435" lon="17.8922003"><ele>43.75</ele><time>2026-05-04T12:42:07.62Z</time></trkpt><trkpt lat="42.7881888" lon="17.8920038"><ele>37.5</ele><time>2026-05-04T12:42:08.621Z</time></trkpt><trkpt lat="42.7882268" lon="17.8918136"><ele>31.25</ele><time>2026-05-04T12:42:09.621Z</time></trkpt><trkpt lat="42.7882578" lon="17.8916243"><ele>25.0</ele><time>2026-05-04T12:42:10.621Z</time></trkpt><trkpt lat="42.7882809" lon="17.8914317"><ele>22.5</ele><time>2026-05-04T12:42:11.621Z</time></trkpt><trkpt lat="42.7883118" lon="17.8912473"><ele>20.0</ele><time>2026-05-04T12:42:12.621Z</time></trkpt><trkpt lat="42.7883316" lon="17.8910635"><ele>17.5</ele><time>2026-05-04T12:42:13.621Z</time></trkpt><trkpt lat="42.7883527" lon="17.8908773"><ele>15.0</ele><time>2026-05-04T12:42:14.62Z</time></trkpt><trkpt lat="42.7883649" lon="17.8906954"><ele>13.75</ele><time>2026-05-04T12:42:15.62Z</time></trkpt><trkpt lat="42.7883809" lon="17.8905226"><ele>12.5</ele><time>2026-05-04T12:42:16.62Z</time></trkpt><trkpt lat="42.7883979" lon="17.8903613"><ele>11.25</ele><time>2026-05-04T12:42:17.621Z</time></trkpt><trkpt lat="42.7884166" lon="17.89021"><ele>10.0</ele><time>2026-05-04T12:42:18.62Z</time></trkpt><trkpt lat="42.7884398" lon="17.8900583"><ele>9.75</ele><time>2026-05-04T12:42:19.621Z</time></trkpt><trkpt lat="42.7884506" lon="17.8899017"><ele>9.5</ele><time>2026-05-04T12:42:20.62Z</time></trkpt><trkpt lat="42.7884628" lon="17.8897369"><ele>9.25</ele><time>2026-05-04T12:42:21.621Z</time></trkpt><trkpt lat="42.7884807" lon="17.8895613"><ele>9.0</ele><time>2026-05-04T12:42:22.62Z</time></trkpt><trkpt lat="42.7885019" lon="17.8893698"><ele>17.333333333333336</ele><time>2026-05-04T12:42:23.62Z</time></trkpt><trkpt lat="42.7885287" lon="17.8891693"><ele>25.666666666666668</ele><time>2026-05-04T12:42:24.621Z</time></trkpt><trkpt lat="42.7885584" lon="17.8889647"><ele>34.0</ele><time>2026-05-04T12:42:25.62Z</time></trkpt><trkpt lat="42.7886095" lon="17.8887535"><ele>34.0</ele><time>2026-05-04T12:42:26.621Z</time></trkpt><trkpt lat="42.788668" lon="17.8885439"><ele>34.0</ele><time>2026-05-04T12:42:27.621Z</time></trkpt><trkpt lat="42.7887534" lon="17.888347"><ele>34.0</ele><time>2026-05-04T12:42:28.621Z</time></trkpt><trkpt lat="42.7888492" lon="17.8881607"><ele>30.333333333333336</ele><time>2026-05-04T12:42:29.62Z</time></trkpt><trkpt lat="42.7889554" lon="17.8880049"><ele>26.666666666666668</ele><time>2026-05-04T12:42:30.62Z</time></trkpt><trkpt lat="42.7890758" lon="17.8878661"><ele>23.0</ele><time>2026-05-04T12:42:31.62Z</time></trkpt><trkpt lat="42.7892111" lon="17.8877495"><ele>25.333333333333336</ele><time>2026-05-04T12:42:32.621Z</time></trkpt><trkpt lat="42.7893577" lon="17.8876487"><ele>27.666666666666668</ele><time>2026-05-04T12:42:33.621Z</time></trkpt><trkpt lat="42.7895071" lon="17.8875698"><ele>30.0</ele><time>2026-05-04T12:42:34.621Z</time></trkpt><trkpt lat="42.7896631" lon="17.8874815"><ele>30.0</ele><time>2026-05-04T12:42:35.621Z</time></trkpt><trkpt lat="42.7898276" lon="17.8874038"><ele>30.0</ele><time>2026-05-04T12:42:36.62Z</time></trkpt><trkpt lat="42.789978" lon="17.8873266"><ele>30.0</ele><time>2026-05-04T12:42:37.62Z</time></trkpt><trkpt lat="42.7901176" lon="17.8872278"><ele>36.33333333333333</ele><time>2026-05-04T12:42:38.62Z</time></trkpt><trkpt lat="42.7902615" lon="17.8871094"><ele>42.666666666666664</ele><time>2026-05-04T12:42:39.621Z</time></trkpt><trkpt lat="42.790385" lon="17.8869642"><ele>49.0</ele><time>2026-05-04T12:42:40.621Z</time></trkpt><trkpt lat="42.7905019" lon="17.886793"><ele>45.0</ele><time>2026-05-04T12:42:41.62Z</time></trkpt><trkpt lat="42.7905922" lon="17.8866022"><ele>41.0</ele><time>2026-05-04T12:42:42.62Z</time></trkpt><trkpt lat="42.790667" lon="17.8863891"><ele>37.0</ele><time>2026-05-04T12:42:43.621Z</time></trkpt><trkpt lat="42.7907232" lon="17.8861573"><ele>36.66666666666667</ele><time>2026-05-04T12:42:44.62Z</time></trkpt><trkpt lat="42.7907666" lon="17.8859007"><ele>36.333333333333336</ele><time>2026-05-04T12:42:45.62Z</time></trkpt><trkpt lat="42.7907987" lon="17.8856286"><ele>36.0</ele><time>2026-05-04T12:42:46.621Z</time></trkpt><trkpt lat="42.790826" lon="17.8853522"><ele>36.333333333333336</ele><time>2026-05-04T12:42:47.62Z</time></trkpt><trkpt lat="42.7908449" lon="17.8850739"><ele>36.66666666666667</ele><time>2026-05-04T12:42:48.62Z</time></trkpt><trkpt lat="42.7908558" lon="17.8847968"><ele>37.0</ele><time>2026-05-04T12:42:49.62Z</time></trkpt><trkpt lat="42.7908626" lon="17.8845227"><ele>37.333333333333336</ele><time>2026-05-04T12:42:50.62Z</time></trkpt><trkpt lat="42.7908531" lon="17.8842598"><ele>37.666666666666664</ele><time>2026-05-04T12:42:51.621Z</time></trkpt><trkpt lat="42.7908383" lon="17.8840149"><ele>38.0</ele><time>2026-05-04T12:42:52.62Z</time></trkpt><trkpt lat="42.7908182" lon="17.8837661"><ele>38.0</ele><time>2026-05-04T12:42:53.62Z</time></trkpt><trkpt lat="42.7907958" lon="17.883511"><ele>38.0</ele><time>2026-05-04T12:42:54.621Z</time></trkpt><trkpt lat="42.7907692" lon="17.8832577"><ele>38.0</ele><time>2026-05-04T12:42:55.621Z</time></trkpt><trkpt lat="42.7907373" lon="17.8830048"><ele>37.0</ele><time>2026-05-04T12:42:56.621Z</time></trkpt><trkpt lat="42.7907005" lon="17.8827522"><ele>36.0</ele><time>2026-05-04T12:42:57.621Z</time></trkpt><trkpt lat="42.7906539" lon="17.8824986"><ele>35.0</ele><time>2026-05-04T12:42:58.621Z</time></trkpt><trkpt lat="42.7906025" lon="17.8822443"><ele>33.0</ele><time>2026-05-04T12:42:59.621Z</time></trkpt><trkpt lat="42.7905418" lon="17.881984"><ele>31.0</ele><time>2026-05-04T12:43:00.621Z</time></trkpt><trkpt lat="42.790473" lon="17.8817266"><ele>29.0</ele><time>2026-05-04T12:43:01.62Z</time></trkpt><trkpt lat="42.7903956" lon="17.881464"><ele>29.333333333333332</ele><time>2026-05-04T12:43:02.62Z</time></trkpt><trkpt lat="42.7903081" lon="17.8812061"><ele>29.666666666666664</ele><time>2026-05-04T12:43:03.62Z</time></trkpt><trkpt lat="42.7902155" lon="17.8809436"><ele>30.0</ele><time>2026-05-04T12:43:04.62Z</time></trkpt><trkpt lat="42.7901126" lon="17.8806816"><ele>30.0</ele><time>2026-05-04T12:43:05.62Z</time></trkpt><trkpt lat="42.790004" lon="17.8804307"><ele>30.0</ele><time>2026-05-04T12:43:06.621Z</time></trkpt><trkpt lat="42.7898857" lon="17.8801808"><ele>30.0</ele><time>2026-05-04T12:43:07.62Z</time></trkpt><trkpt lat="42.7897637" lon="17.8799282"><ele>26.333333333333332</ele><time>2026-05-04T12:43:08.621Z</time></trkpt><trkpt lat="42.7896311" lon="17.8796885"><ele>22.666666666666664</ele><time>2026-05-04T12:43:09.62Z</time></trkpt><trkpt lat="42.7894949" lon="17.8794548"><ele>19.0</ele><time>2026-05-04T12:43:10.621Z</time></trkpt><trkpt lat="42.7893491" lon="17.8792314"><ele>19.0</ele><time>2026-05-04T12:43:11.62Z</time></trkpt><trkpt lat="42.7891903" lon="17.8790013"><ele>19.0</ele><time>2026-05-04T12:43:12.62Z</time></trkpt><trkpt lat="42.789027" lon="17.8787798"><ele>19.0</ele><time>2026-05-04T12:43:13.621Z</time></trkpt><trkpt lat="42.7888515" lon="17.8785618"><ele>19.0</ele><time>2026-05-04T12:43:14.62Z</time></trkpt><trkpt lat="42.7886659" lon="17.8783505"><ele>24.0</ele><time>2026-05-04T12:43:15.62Z</time></trkpt><trkpt lat="42.7884786" lon="17.8781394"><ele>29.0</ele><time>2026-05-04T12:43:16.621Z</time></trkpt><trkpt lat="42.7882962" lon="17.8779375"><ele>29.0</ele><time>2026-05-04T12:43:17.621Z</time></trkpt><trkpt lat="42.7881203" lon="17.8777408"><ele>29.0</ele><time>2026-05-04T12:43:18.621Z</time></trkpt><trkpt lat="42.7879478" lon="17.8775458"><ele>28.0</ele><time>2026-05-04T12:43:19.62Z</time></trkpt><trkpt lat="42.7877831" lon="17.8773409"><ele>27.0</ele><time>2026-05-04T12:43:20.621Z</time></trkpt><trkpt lat="42.7876225" lon="17.8771088"><ele>29.0</ele><time>2026-05-04T12:43:21.621Z</time></trkpt><trkpt lat="42.7874667" lon="17.8768698"><ele>31.0</ele><time>2026-05-04T12:43:22.621Z</time></trkpt><trkpt lat="42.787326" lon="17.8766272"><ele>31.0</ele><time>2026-05-04T12:43:23.62Z</time></trkpt><trkpt lat="42.787198" lon="17.8763768"><ele>31.0</ele><time>2026-05-04T12:43:24.62Z</time></trkpt><trkpt lat="42.7870841" lon="17.8761139"><ele>31.0</ele><time>2026-05-04T12:43:25.621Z</time></trkpt><trkpt lat="42.7869843" lon="17.8758453"><ele>31.333333333333336</ele><time>2026-05-04T12:43:26.62Z</time></trkpt><trkpt lat="42.7868981" lon="17.8755722"><ele>31.666666666666664</ele><time>2026-05-04T12:43:27.62Z</time></trkpt><trkpt lat="42.7868237" lon="17.8752968"><ele>32.0</ele><time>2026-05-04T12:43:28.62Z</time></trkpt><trkpt lat="42.7867586" lon="17.8750051"><ele>35.5</ele><time>2026-05-04T12:43:29.621Z</time></trkpt><trkpt lat="42.7867108" lon="17.8747038"><ele>39.0</ele><time>2026-05-04T12:43:30.62Z</time></trkpt><trkpt lat="42.7866752" lon="17.8743998"><ele>40.333333333333336</ele><time>2026-05-04T12:43:31.621Z</time></trkpt><trkpt lat="42.7866501" lon="17.8740992"><ele>41.66666666666667</ele><time>2026-05-04T12:43:32.62Z</time></trkpt><trkpt lat="42.7866418" lon="17.8737946"><ele>43.0</ele><time>2026-05-04T12:43:33.621Z</time></trkpt><trkpt lat="42.7866468" lon="17.8734998"><ele>45.0</ele><time>2026-05-04T12:43:34.621Z</time></trkpt><trkpt lat="42.786657" lon="17.873206"><ele>47.0</ele><time>2026-05-04T12:43:35.62Z</time></trkpt><trkpt lat="42.7866887" lon="17.8729155"><ele>49.0</ele><time>2026-05-04T12:43:36.621Z</time></trkpt><trkpt lat="42.7867332" lon="17.8726336"><ele>50.0</ele><time>2026-05-04T12:43:37.62Z</time></trkpt><trkpt lat="42.7867927" lon="17.8723554"><ele>51.0</ele><time>2026-05-04T12:43:38.62Z</time></trkpt><trkpt lat="42.7868629" lon="17.8720743"><ele>52.0</ele><time>2026-05-04T12:43:39.621Z</time></trkpt><trkpt lat="42.7869451" lon="17.8717978"><ele>49.5</ele><time>2026-05-04T12:43:40.62Z</time></trkpt><trkpt lat="42.7870344" lon="17.8715198"><ele>47.0</ele><time>2026-05-04T12:43:41.621Z</time></trkpt><trkpt lat="42.7871384" lon="17.8712427"><ele>47.0</ele><time>2026-05-04T12:43:42.621Z</time></trkpt><trkpt lat="42.7872409" lon="17.8709611"><ele>47.0</ele><time>2026-05-04T12:43:43.62Z</time></trkpt><trkpt lat="42.7873394" lon="17.8706797"><ele>49.5</ele><time>2026-05-04T12:43:44.62Z</time></trkpt><trkpt lat="42.7874438" lon="17.8704027"><ele>52.0</ele><time>2026-05-04T12:43:45.621Z</time></trkpt><trkpt lat="42.7875431" lon="17.8701225"><ele>54.0</ele><time>2026-05-04T12:43:46.62Z</time></trkpt><trkpt lat="42.7876289" lon="17.8698225"><ele>56.0</ele><time>2026-05-04T12:43:47.62Z</time></trkpt><trkpt lat="42.7877024" lon="17.8695176"><ele>58.5</ele><time>2026-05-04T12:43:48.62Z</time></trkpt><trkpt lat="42.7877666" lon="17.8692077"><ele>61.0</ele><time>2026-05-04T12:43:49.62Z</time></trkpt><trkpt lat="42.7878234" lon="17.8688943"><ele>61.0</ele><time>2026-05-04T12:43:50.621Z</time></trkpt><trkpt lat="42.7878713" lon="17.8685821"><ele>61.0</ele><time>2026-05-04T12:43:51.621Z</time></trkpt><trkpt lat="42.7879148" lon="17.8682674"><ele>62.0</ele><time>2026-05-04T12:43:52.621Z</time></trkpt><trkpt lat="42.7879438" lon="17.8679529"><ele>63.0</ele><time>2026-05-04T12:43:53.621Z</time></trkpt><trkpt lat="42.7879612" lon="17.8676401"><ele>65.5</ele><time>2026-05-04T12:43:54.62Z</time></trkpt><trkpt lat="42.7879682" lon="17.8673274"><ele>68.0</ele><time>2026-05-04T12:43:55.62Z</time></trkpt><trkpt lat="42.787973" lon="17.8670005"><ele>69.0</ele><time>2026-05-04T12:43:56.62Z</time></trkpt><trkpt lat="42.7879582" lon="17.8666993"><ele>70.0</ele><time>2026-05-04T12:43:57.621Z</time></trkpt><trkpt lat="42.7879322" lon="17.8664028"><ele>71.0</ele><time>2026-05-04T12:43:58.62Z</time></trkpt><trkpt lat="42.7879032" lon="17.8661097"><ele>71.66666666666667</ele><time>2026-05-04T12:43:59.621Z</time></trkpt><trkpt lat="42.7878682" lon="17.8658266"><ele>72.33333333333333</ele><time>2026-05-04T12:44:00.621Z</time></trkpt><trkpt lat="42.7878245" lon="17.8655468"><ele>73.0</ele><time>2026-05-04T12:44:01.621Z</time></trkpt><trkpt lat="42.7877736" lon="17.865278"><ele>74.33333333333333</ele><time>2026-05-04T12:44:02.621Z</time></trkpt><trkpt lat="42.7877104" lon="17.8650084"><ele>75.66666666666667</ele><time>2026-05-04T12:44:03.62Z</time></trkpt><trkpt lat="42.7876399" lon="17.8647373"><ele>77.0</ele><time>2026-05-04T12:44:04.62Z</time></trkpt><trkpt lat="42.78757" lon="17.8644584"><ele>79.0</ele><time>2026-05-04T12:44:05.62Z</time></trkpt><trkpt lat="42.7874888" lon="17.8641999"><ele>81.0</ele><time>2026-05-04T12:44:06.62Z</time></trkpt><trkpt lat="42.7874055" lon="17.8639568"><ele>83.0</ele><time>2026-05-04T12:44:07.62Z</time></trkpt><trkpt lat="42.7873208" lon="17.8637284"><ele>83.0</ele><time>2026-05-04T12:44:08.621Z</time></trkpt><trkpt lat="42.7872324" lon="17.8635033"><ele>83.0</ele><time>2026-05-04T12:44:09.621Z</time></trkpt><trkpt lat="42.7871364" lon="17.8632936"><ele>83.0</ele><time>2026-05-04T12:44:10.621Z</time></trkpt><trkpt lat="42.7870413" lon="17.8630879"><ele>83.0</ele><time>2026-05-04T12:44:11.621Z</time></trkpt><trkpt lat="42.7869443" lon="17.8628857"><ele>83.0</ele><time>2026-05-04T12:44:12.621Z</time></trkpt><trkpt lat="42.7868456" lon="17.8626926"><ele>83.0</ele><time>2026-05-04T12:44:13.621Z</time></trkpt><trkpt lat="42.7867471" lon="17.8624998"><ele>82.33333333333334</ele><time>2026-05-04T12:44:14.62Z</time></trkpt><trkpt lat="42.78665" lon="17.8623065"><ele>81.66666666666667</ele><time>2026-05-04T12:44:15.621Z</time></trkpt><trkpt lat="42.7865547" lon="17.8621071"><ele>81.0</ele><time>2026-05-04T12:44:16.62Z</time></trkpt><trkpt lat="42.7864623" lon="17.8619087"><ele>82.0</ele><time>2026-05-04T12:44:17.621Z</time></trkpt><trkpt lat="42.7863834" lon="17.8617146"><ele>83.0</ele><time>2026-05-04T12:44:18.62Z</time></trkpt><trkpt lat="42.7863053" lon="17.8615074"><ele>84.0</ele><time>2026-05-04T12:44:19.62Z</time></trkpt><trkpt lat="42.7862279" lon="17.8612969"><ele>84.0</ele><time>2026-05-04T12:44:20.621Z</time></trkpt><trkpt lat="42.7861638" lon="17.8610831"><ele>84.0</ele><time>2026-05-04T12:44:21.62Z</time></trkpt><trkpt lat="42.7861104" lon="17.8608669"><ele>84.0</ele><time>2026-05-04T12:44:22.621Z</time></trkpt><trkpt lat="42.7860665" lon="17.8606341"><ele>86.0</ele><time>2026-05-04T12:44:23.621Z</time></trkpt><trkpt lat="42.7860339" lon="17.8603948"><ele>88.0</ele><time>2026-05-04T12:44:24.621Z</time></trkpt><trkpt lat="42.7860141" lon="17.8601562"><ele>90.0</ele><time>2026-05-04T12:44:25.621Z</time></trkpt><trkpt lat="42.7860031" lon="17.8599193"><ele>93.0</ele><time>2026-05-04T12:44:26.62Z</time></trkpt><trkpt lat="42.7860003" lon="17.8596893"><ele>96.0</ele><time>2026-05-04T12:44:27.621Z</time></trkpt><trkpt lat="42.7860071" lon="17.8594568"><ele>99.0</ele><time>2026-05-04T12:44:28.621Z</time></trkpt><trkpt lat="42.7860274" lon="17.8592243"><ele>99.0</ele><time>2026-05-04T12:44:29.62Z</time></trkpt><trkpt lat="42.7860603" lon="17.85899"><ele>99.0</ele><time>2026-05-04T12:44:30.62Z</time></trkpt><trkpt lat="42.7861032" lon="17.8587537"><ele>99.0</ele><time>2026-05-04T12:44:31.62Z</time></trkpt><trkpt lat="42.7861628" lon="17.8585209"><ele>96.0</ele><time>2026-05-04T12:44:32.62Z</time></trkpt><trkpt lat="42.7862324" lon="17.8582907"><ele>93.0</ele><time>2026-05-04T12:44:33.62Z</time></trkpt><trkpt lat="42.7863148" lon="17.8580625"><ele>90.0</ele><time>2026-05-04T12:44:34.621Z</time></trkpt><trkpt lat="42.7864089" lon="17.8578359"><ele>90.0</ele><time>2026-05-04T12:44:35.62Z</time></trkpt><trkpt lat="42.7865079" lon="17.8576219"><ele>90.0</ele><time>2026-05-04T12:44:36.62Z</time></trkpt><trkpt lat="42.7866116" lon="17.8574133"><ele>90.0</ele><time>2026-05-04T12:44:37.62Z</time></trkpt><trkpt lat="42.7867145" lon="17.857208"><ele>86.33333333333333</ele><time>2026-05-04T12:44:38.621Z</time></trkpt><trkpt lat="42.7868246" lon="17.8569981"><ele>82.66666666666666</ele><time>2026-05-04T12:44:39.62Z</time></trkpt><trkpt lat="42.7869531" lon="17.8567946"><ele>79.0</ele><time>2026-05-04T12:44:40.621Z</time></trkpt><trkpt lat="42.7870751" lon="17.8565987"><ele>79.0</ele><time>2026-05-04T12:44:41.621Z</time></trkpt><trkpt lat="42.7872009" lon="17.8564155"><ele>79.0</ele><time>2026-05-04T12:44:42.62Z</time></trkpt><trkpt lat="42.7873321" lon="17.8562437"><ele>79.0</ele><time>2026-05-04T12:44:43.621Z</time></trkpt><trkpt lat="42.7874645" lon="17.8560768"><ele>77.33333333333333</ele><time>2026-05-04T12:44:44.621Z</time></trkpt><trkpt lat="42.7876075" lon="17.8559204"><ele>75.66666666666667</ele><time>2026-05-04T12:44:45.62Z</time></trkpt><trkpt lat="42.787756" lon="17.8557743"><ele>74.0</ele><time>2026-05-04T12:44:46.621Z</time></trkpt><trkpt lat="42.7879004" lon="17.8556284"><ele>74.0</ele><time>2026-05-04T12:44:47.621Z</time></trkpt><trkpt lat="42.7880473" lon="17.8554857"><ele>74.0</ele><time>2026-05-04T12:44:48.62Z</time></trkpt><trkpt lat="42.7881985" lon="17.8553469"><ele>74.0</ele><time>2026-05-04T12:44:49.62Z</time></trkpt><trkpt lat="42.7883609" lon="17.8552228"><ele>68.66666666666667</ele><time>2026-05-04T12:44:50.62Z</time></trkpt><trkpt lat="42.7885217" lon="17.8551065"><ele>63.33333333333333</ele><time>2026-05-04T12:44:51.621Z</time></trkpt><trkpt lat="42.7886854" lon="17.8549979"><ele>58.0</ele><time>2026-05-04T12:44:52.621Z</time></trkpt><trkpt lat="42.788843" lon="17.8548866"><ele>58.0</ele><time>2026-05-04T12:44:53.621Z</time></trkpt><trkpt lat="42.7890052" lon="17.8547866"><ele>58.0</ele><time>2026-05-04T12:44:54.62Z</time></trkpt><trkpt lat="42.789181" lon="17.8546961"><ele>58.0</ele><time>2026-05-04T12:44:55.62Z</time></trkpt><trkpt lat="42.7893546" lon="17.8546169"><ele>60.666666666666664</ele><time>2026-05-04T12:44:56.62Z</time></trkpt><trkpt lat="42.7895382" lon="17.8545457"><ele>63.33333333333333</ele><time>2026-05-04T12:44:57.621Z</time></trkpt><trkpt lat="42.7897246" lon="17.8544811"><ele>66.0</ele><time>2026-05-04T12:44:58.62Z</time></trkpt><trkpt lat="42.7899093" lon="17.8544198"><ele>66.0</ele><time>2026-05-04T12:44:59.62Z</time></trkpt><trkpt lat="42.7900956" lon="17.8543656"><ele>66.0</ele><time>2026-05-04T12:45:00.621Z</time></trkpt><trkpt lat="42.7902776" lon="17.8543225"><ele>66.0</ele><time>2026-05-04T12:45:01.621Z</time></trkpt><trkpt lat="42.7904637" lon="17.854292"><ele>57.0</ele><time>2026-05-04T12:45:02.621Z</time></trkpt><trkpt lat="42.7906577" lon="17.8542693"><ele>48.0</ele><time>2026-05-04T12:45:03.62Z</time></trkpt><trkpt lat="42.7908669" lon="17.8542591"><ele>39.0</ele><time>2026-05-04T12:45:04.62Z</time></trkpt><trkpt lat="42.7910848" lon="17.8542531"><ele>39.0</ele><time>2026-05-04T12:45:05.62Z</time></trkpt><trkpt lat="42.7913163" lon="17.8542489"><ele>39.0</ele><time>2026-05-04T12:45:06.621Z</time></trkpt><trkpt lat="42.7915495" lon="17.8542707"><ele>42.5</ele><time>2026-05-04T12:45:07.62Z</time></trkpt><trkpt lat="42.7917929" lon="17.8542974"><ele>46.0</ele><time>2026-05-04T12:45:08.621Z</time></trkpt><trkpt lat="42.7920266" lon="17.8543218"><ele>46.0</ele><time>2026-05-04T12:45:09.62Z</time></trkpt><trkpt lat="42.7922504" lon="17.8543449"><ele>46.0</ele><time>2026-05-04T12:45:10.621Z</time></trkpt><trkpt lat="42.7924737" lon="17.8543661"><ele>46.0</ele><time>2026-05-04T12:45:11.621Z</time></trkpt><trkpt lat="42.7926853" lon="17.8543835"><ele>43.333333333333336</ele><time>2026-05-04T12:45:12.62Z</time></trkpt><trkpt lat="42.7928973" lon="17.8544053"><ele>40.666666666666664</ele><time>2026-05-04T12:45:13.621Z</time></trkpt><trkpt lat="42.7930917" lon="17.8544207"><ele>38.0</ele><time>2026-05-04T12:45:14.621Z</time></trkpt><trkpt lat="42.793283" lon="17.8544357"><ele>38.0</ele><time>2026-05-04T12:45:15.621Z</time></trkpt><trkpt lat="42.7934692" lon="17.8544487"><ele>38.0</ele><time>2026-05-04T12:45:16.62Z</time></trkpt><trkpt lat="42.7936514" lon="17.854464"><ele>38.0</ele><time>2026-05-04T12:45:17.621Z</time></trkpt><trkpt lat="42.7938237" lon="17.8544713"><ele>37.666666666666664</ele><time>2026-05-04T12:45:18.62Z</time></trkpt><trkpt lat="42.7939887" lon="17.8544759"><ele>37.333333333333336</ele><time>2026-05-04T12:45:19.621Z</time></trkpt><trkpt lat="42.7941492" lon="17.854475"><ele>37.0</ele><time>2026-05-04T12:45:20.62Z</time></trkpt><trkpt lat="42.7943057" lon="17.8544677"><ele>37.333333333333336</ele><time>2026-05-04T12:45:21.62Z</time></trkpt><trkpt lat="42.7944574" lon="17.8544511"><ele>37.666666666666664</ele><time>2026-05-04T12:45:22.62Z</time></trkpt><trkpt lat="42.7946101" lon="17.8544318"><ele>38.0</ele><time>2026-05-04T12:45:23.621Z</time></trkpt><trkpt lat="42.7947629" lon="17.8544047"><ele>38.0</ele><time>2026-05-04T12:45:24.62Z</time></trkpt><trkpt lat="42.7949147" lon="17.8543658"><ele>38.0</ele><time>2026-05-04T12:45:25.62Z</time></trkpt><trkpt lat="42.7950647" lon="17.8543137"><ele>38.0</ele><time>2026-05-04T12:45:26.62Z</time></trkpt><trkpt lat="42.7952154" lon="17.8542547"><ele>37.666666666666664</ele><time>2026-05-04T12:45:27.621Z</time></trkpt><trkpt lat="42.7953596" lon="17.854185"><ele>37.333333333333336</ele><time>2026-05-04T12:45:28.621Z</time></trkpt><trkpt lat="42.7955054" lon="17.8541041"><ele>37.0</ele><time>2026-05-04T12:45:29.62Z</time></trkpt><trkpt lat="42.7956455" lon="17.8540144"><ele>37.0</ele><time>2026-05-04T12:45:30.621Z</time></trkpt><trkpt lat="42.7957804" lon="17.853915"><ele>37.0</ele><time>2026-05-04T12:45:31.621Z</time></trkpt><trkpt lat="42.7959085" lon="17.8538139"><ele>37.0</ele><time>2026-05-04T12:45:32.621Z</time></trkpt><trkpt lat="42.7960297" lon="17.8536971"><ele>37.333333333333336</ele><time>2026-05-04T12:45:33.62Z</time></trkpt><trkpt lat="42.7961569" lon="17.8535486"><ele>37.666666666666664</ele><time>2026-05-04T12:45:34.621Z</time></trkpt><trkpt lat="42.7962959" lon="17.8533834"><ele>38.0</ele><time>2026-05-04T12:45:35.621Z</time></trkpt><trkpt lat="42.7964323" lon="17.8532059"><ele>38.0</ele><time>2026-05-04T12:45:36.621Z</time></trkpt><trkpt lat="42.796559" lon="17.8530208"><ele>38.0</ele><time>2026-05-04T12:45:37.621Z</time></trkpt><trkpt lat="42.7966699" lon="17.8528392"><ele>38.0</ele><time>2026-05-04T12:45:38.621Z</time></trkpt><trkpt lat="42.7967688" lon="17.8526561"><ele>39.0</ele><time>2026-05-04T12:45:39.62Z</time></trkpt><trkpt lat="42.7968652" lon="17.8524461"><ele>40.0</ele><time>2026-05-04T12:45:40.62Z</time></trkpt><trkpt lat="42.7969556" lon="17.8522103"><ele>41.0</ele><time>2026-05-04T12:45:41.62Z</time></trkpt><trkpt lat="42.7970615" lon="17.8519757"><ele>40.33333333333333</ele><time>2026-05-04T12:45:42.62Z</time></trkpt><trkpt lat="42.7971769" lon="17.851747"><ele>39.666666666666664</ele><time>2026-05-04T12:45:43.621Z</time></trkpt><trkpt lat="42.7973002" lon="17.8515277"><ele>39.0</ele><time>2026-05-04T12:45:44.621Z</time></trkpt><trkpt lat="42.7974271" lon="17.8513274"><ele>39.0</ele><time>2026-05-04T12:45:45.62Z</time></trkpt><trkpt lat="42.7975636" lon="17.851137"><ele>39.0</ele><time>2026-05-04T12:45:46.621Z</time></trkpt><trkpt lat="42.7977047" lon="17.8509592"><ele>39.0</ele><time>2026-05-04T12:45:47.62Z</time></trkpt><trkpt lat="42.7978545" lon="17.850796"><ele>38.666666666666664</ele><time>2026-05-04T12:45:48.62Z</time></trkpt><trkpt lat="42.7980132" lon="17.8506517"><ele>38.33333333333333</ele><time>2026-05-04T12:45:49.62Z</time></trkpt><trkpt lat="42.7981684" lon="17.8505202"><ele>38.0</ele><time>2026-05-04T12:45:50.621Z</time></trkpt><trkpt lat="42.7983226" lon="17.8504124"><ele>38.0</ele><time>2026-05-04T12:45:51.62Z</time></trkpt><trkpt lat="42.7984757" lon="17.8503173"><ele>38.0</ele><time>2026-05-04T12:45:52.62Z</time></trkpt><trkpt lat="42.7986369" lon="17.8502432"><ele>38.0</ele><time>2026-05-04T12:45:53.621Z</time></trkpt><trkpt lat="42.7988076" lon="17.8501822"><ele>37.666666666666664</ele><time>2026-05-04T12:45:54.621Z</time></trkpt><trkpt lat="42.7989786" lon="17.8501331"><ele>37.333333333333336</ele><time>2026-05-04T12:45:55.62Z</time></trkpt><trkpt lat="42.7991551" lon="17.8500994"><ele>37.0</ele><time>2026-05-04T12:45:56.62Z</time></trkpt><trkpt lat="42.7993373" lon="17.8500805"><ele>37.0</ele><time>2026-05-04T12:45:57.621Z</time></trkpt><trkpt lat="42.7995263" lon="17.8500746"><ele>37.0</ele><time>2026-05-04T12:45:58.62Z</time></trkpt><trkpt lat="42.7997217" lon="17.8500774"><ele>37.0</ele><time>2026-05-04T12:45:59.62Z</time></trkpt><trkpt lat="42.7999144" lon="17.8500807"><ele>37.0</ele><time>2026-05-04T12:46:00.621Z</time></trkpt><trkpt lat="42.8001019" lon="17.8500738"><ele>37.0</ele><time>2026-05-04T12:46:01.621Z</time></trkpt><trkpt lat="42.8002839" lon="17.8500529"><ele>37.0</ele><time>2026-05-04T12:46:02.621Z</time></trkpt><trkpt lat="42.8004581" lon="17.8500075"><ele>34.66666666666667</ele><time>2026-05-04T12:46:03.62Z</time></trkpt><trkpt lat="42.8006293" lon="17.8499407"><ele>32.333333333333336</ele><time>2026-05-04T12:46:04.621Z</time></trkpt><trkpt lat="42.8007928" lon="17.8498393"><ele>30.0</ele><time>2026-05-04T12:46:05.62Z</time></trkpt><trkpt lat="42.8009484" lon="17.8497102"><ele>30.333333333333336</ele><time>2026-05-04T12:46:06.621Z</time></trkpt><trkpt lat="42.801086" lon="17.849553"><ele>30.666666666666668</ele><time>2026-05-04T12:46:07.62Z</time></trkpt><trkpt lat="42.8012063" lon="17.8493706"><ele>31.0</ele><time>2026-05-04T12:46:08.621Z</time></trkpt><trkpt lat="42.8013106" lon="17.8491648"><ele>31.0</ele><time>2026-05-04T12:46:09.621Z</time></trkpt><trkpt lat="42.8014023" lon="17.8489521"><ele>31.0</ele><time>2026-05-04T12:46:10.62Z</time></trkpt><trkpt lat="42.8014925" lon="17.8487222"><ele>31.0</ele><time>2026-05-04T12:46:11.621Z</time></trkpt><trkpt lat="42.8015757" lon="17.8484966"><ele>29.666666666666668</ele><time>2026-05-04T12:46:12.621Z</time></trkpt><trkpt lat="42.8016665" lon="17.8482789"><ele>28.333333333333336</ele><time>2026-05-04T12:46:13.62Z</time></trkpt><trkpt lat="42.8017676" lon="17.8480668"><ele>27.0</ele><time>2026-05-04T12:46:14.62Z</time></trkpt><trkpt lat="42.8018948" lon="17.8478663"><ele>27.0</ele><time>2026-05-04T12:46:15.62Z</time></trkpt><trkpt lat="42.8020331" lon="17.8476966"><ele>27.0</ele><time>2026-05-04T12:46:16.62Z</time></trkpt><trkpt lat="42.8021906" lon="17.8475548"><ele>27.0</ele><time>2026-05-04T12:46:17.62Z</time></trkpt><trkpt lat="42.802362" lon="17.8474417"><ele>22.333333333333332</ele><time>2026-05-04T12:46:18.62Z</time></trkpt><trkpt lat="42.8025335" lon="17.8473486"><ele>17.666666666666664</ele><time>2026-05-04T12:46:19.621Z</time></trkpt><trkpt lat="42.8027052" lon="17.8472738"><ele>13.0</ele><time>2026-05-04T12:46:20.621Z</time></trkpt><trkpt lat="42.8028747" lon="17.8472012"><ele>12.333333333333332</ele><time>2026-05-04T12:46:21.62Z</time></trkpt><trkpt lat="42.80304" lon="17.8471214"><ele>11.666666666666666</ele><time>2026-05-04T12:46:22.62Z</time></trkpt><trkpt lat="42.8031951" lon="17.8470243"><ele>11.0</ele><time>2026-05-04T12:46:23.621Z</time></trkpt><trkpt lat="42.8033395" lon="17.8469022"><ele>9.666666666666666</ele><time>2026-05-04T12:46:24.621Z</time></trkpt><trkpt lat="42.8034621" lon="17.8467434"><ele>8.333333333333334</ele><time>2026-05-04T12:46:25.621Z</time></trkpt><trkpt lat="42.8035728" lon="17.8465599"><ele>7.0</ele><time>2026-05-04T12:46:26.621Z</time></trkpt><trkpt lat="42.8036625" lon="17.8463481"><ele>12.0</ele><time>2026-05-04T12:46:27.621Z</time></trkpt><trkpt lat="42.8037358" lon="17.8461166"><ele>17.0</ele><time>2026-05-04T12:46:28.62Z</time></trkpt><trkpt lat="42.8037878" lon="17.8458794"><ele>22.0</ele><time>2026-05-04T12:46:29.621Z</time></trkpt><trkpt lat="42.8038325" lon="17.845638"><ele>22.0</ele><time>2026-05-04T12:46:30.621Z</time></trkpt><trkpt lat="42.8038768" lon="17.8453998"><ele>22.0</ele><time>2026-05-04T12:46:31.621Z</time></trkpt><trkpt lat="42.8039147" lon="17.8451715"><ele>22.0</ele><time>2026-05-04T12:46:32.621Z</time></trkpt><trkpt lat="42.803953" lon="17.8449587"><ele>20.666666666666664</ele><time>2026-05-04T12:46:33.62Z</time></trkpt><trkpt lat="42.8039984" lon="17.8447451"><ele>19.333333333333332</ele><time>2026-05-04T12:46:34.62Z</time></trkpt><trkpt lat="42.8040546" lon="17.8445379"><ele>18.0</ele><time>2026-05-04T12:46:35.62Z</time></trkpt><trkpt lat="42.8041242" lon="17.8443337"><ele>15.666666666666666</ele><time>2026-05-04T12:46:36.621Z</time></trkpt><trkpt lat="42.8041981" lon="17.8441172"><ele>13.333333333333332</ele><time>2026-05-04T12:46:37.62Z</time></trkpt><trkpt lat="42.8042874" lon="17.8438908"><ele>11.0</ele><time>2026-05-04T12:46:38.621Z</time></trkpt><trkpt lat="42.8043816" lon="17.8436731"><ele>17.666666666666668</ele><time>2026-05-04T12:46:39.621Z</time></trkpt><trkpt lat="42.8044798" lon="17.8434427"><ele>24.333333333333336</ele><time>2026-05-04T12:46:40.62Z</time></trkpt><trkpt lat="42.8045804" lon="17.843218"><ele>31.0</ele><time>2026-05-04T12:46:41.621Z</time></trkpt><trkpt lat="42.8046743" lon="17.8429878"><ele>31.0</ele><time>2026-05-04T12:46:42.621Z</time></trkpt><trkpt lat="42.8047608" lon="17.8427689"><ele>31.0</ele><time>2026-05-04T12:46:43.62Z</time></trkpt><trkpt lat="42.8048392" lon="17.8425487"><ele>31.0</ele><time>2026-05-04T12:46:44.621Z</time></trkpt><trkpt lat="42.8049052" lon="17.8423244"><ele>28.333333333333336</ele><time>2026-05-04T12:46:45.621Z</time></trkpt><trkpt lat="42.8049653" lon="17.8421053"><ele>25.666666666666668</ele><time>2026-05-04T12:46:46.621Z</time></trkpt><trkpt lat="42.8050164" lon="17.841883"><ele>23.0</ele><time>2026-05-04T12:46:47.621Z</time></trkpt><trkpt lat="42.8050574" lon="17.8416637"><ele>21.333333333333336</ele><time>2026-05-04T12:46:48.621Z</time></trkpt><trkpt lat="42.805097" lon="17.8414275"><ele>19.666666666666668</ele><time>2026-05-04T12:46:49.62Z</time></trkpt><trkpt lat="42.8051356" lon="17.8411817"><ele>18.0</ele><time>2026-05-04T12:46:50.62Z</time></trkpt><trkpt lat="42.8051661" lon="17.8408959"><ele>26.5</ele><time>2026-05-04T12:46:51.621Z</time></trkpt><trkpt lat="42.8051972" lon="17.8405769"><ele>35.0</ele><time>2026-05-04T12:46:52.62Z</time></trkpt><trkpt lat="42.8052298" lon="17.840267"><ele>29.666666666666664</ele><time>2026-05-04T12:46:53.62Z</time></trkpt><trkpt lat="42.8052508" lon="17.8399821"><ele>24.333333333333332</ele><time>2026-05-04T12:46:54.621Z</time></trkpt><trkpt lat="42.8052543" lon="17.8397215"><ele>19.0</ele><time>2026-05-04T12:46:55.62Z</time></trkpt><trkpt lat="42.8052464" lon="17.8394665"><ele>18.666666666666664</ele><time>2026-05-04T12:46:56.62Z</time></trkpt><trkpt lat="42.8052225" lon="17.8392248"><ele>18.333333333333332</ele><time>2026-05-04T12:46:57.621Z</time></trkpt><trkpt lat="42.8051793" lon="17.8389837"><ele>18.0</ele><time>2026-05-04T12:46:58.621Z</time></trkpt><trkpt lat="42.8051157" lon="17.8387552"><ele>15.666666666666666</ele><time>2026-05-04T12:46:59.62Z</time></trkpt><trkpt lat="42.805025" lon="17.838535"><ele>13.333333333333332</ele><time>2026-05-04T12:47:00.62Z</time></trkpt><trkpt lat="42.8049158" lon="17.8383166"><ele>11.0</ele><time>2026-05-04T12:47:01.62Z</time></trkpt><trkpt lat="42.8047862" lon="17.8381207"><ele>18.0</ele><time>2026-05-04T12:47:02.62Z</time></trkpt><trkpt lat="42.8045599" lon="17.8378956"><ele>25.0</ele><time>2026-05-04T12:47:03.621Z</time></trkpt><trkpt lat="42.8043339" lon="17.8376882"><ele>23.5</ele><time>2026-05-04T12:47:04.62Z</time></trkpt><trkpt lat="42.8041216" lon="17.83747"><ele>22.0</ele><time>2026-05-04T12:47:05.62Z</time></trkpt><trkpt lat="42.803919" lon="17.8372582"><ele>22.0</ele><time>2026-05-04T12:47:06.621Z</time></trkpt><trkpt lat="42.8037414" lon="17.8370596"><ele>22.0</ele><time>2026-05-04T12:47:07.62Z</time></trkpt><trkpt lat="42.8036145" lon="17.8368663"><ele>22.0</ele><time>2026-05-04T12:47:08.621Z</time></trkpt><trkpt lat="42.8034948" lon="17.8366492"><ele>21.333333333333332</ele><time>2026-05-04T12:47:09.621Z</time></trkpt><trkpt lat="42.8034031" lon="17.83642"><ele>20.666666666666668</ele><time>2026-05-04T12:47:10.62Z</time></trkpt><trkpt lat="42.8033325" lon="17.8361763"><ele>20.0</ele><time>2026-05-04T12:47:11.62Z</time></trkpt><trkpt lat="42.803275" lon="17.8359211"><ele>23.0</ele><time>2026-05-04T12:47:12.621Z</time></trkpt><trkpt lat="42.8032404" lon="17.8356935"><ele>26.0</ele><time>2026-05-04T12:47:13.621Z</time></trkpt><trkpt lat="42.8032238" lon="17.8354495"><ele>29.0</ele><time>2026-05-04T12:47:14.621Z</time></trkpt><trkpt lat="42.8032214" lon="17.8351912"><ele>31.666666666666664</ele><time>2026-05-04T12:47:15.621Z</time></trkpt><trkpt lat="42.8032204" lon="17.834935"><ele>34.333333333333336</ele><time>2026-05-04T12:47:16.621Z</time></trkpt><trkpt lat="42.8032173" lon="17.8346922"><ele>37.0</ele><time>2026-05-04T12:47:17.62Z</time></trkpt><trkpt lat="42.8031968" lon="17.8344394"><ele>37.333333333333336</ele><time>2026-05-04T12:47:18.621Z</time></trkpt><trkpt lat="42.8031636" lon="17.8342029"><ele>37.666666666666664</ele><time>2026-05-04T12:47:19.621Z</time></trkpt><trkpt lat="42.8030977" lon="17.8339745"><ele>38.0</ele><time>2026-05-04T12:47:20.621Z</time></trkpt><trkpt lat="42.8030023" lon="17.8337597"><ele>38.0</ele><time>2026-05-04T12:47:21.621Z</time></trkpt><trkpt lat="42.8028847" lon="17.8335659"><ele>38.0</ele><time>2026-05-04T12:47:22.621Z</time></trkpt><trkpt lat="42.8027575" lon="17.833383"><ele>38.0</ele><time>2026-05-04T12:47:23.621Z</time></trkpt><trkpt lat="42.8026304" lon="17.8332202"><ele>38.0</ele><time>2026-05-04T12:47:24.62Z</time></trkpt><trkpt lat="42.8025064" lon="17.8330482"><ele>38.0</ele><time>2026-05-04T12:47:25.62Z</time></trkpt><trkpt lat="42.8023837" lon="17.8328668"><ele>38.0</ele><time>2026-05-04T12:47:26.62Z</time></trkpt><trkpt lat="42.8022695" lon="17.8326722"><ele>43.33333333333333</ele><time>2026-05-04T12:47:27.621Z</time></trkpt><trkpt lat="42.8021663" lon="17.8324705"><ele>48.666666666666664</ele><time>2026-05-04T12:47:28.62Z</time></trkpt><trkpt lat="42.8020725" lon="17.8322659"><ele>54.0</ele><time>2026-05-04T12:47:29.621Z</time></trkpt><trkpt lat="42.8019838" lon="17.8320408"><ele>54.0</ele><time>2026-05-04T12:47:30.62Z</time></trkpt><trkpt lat="42.8019061" lon="17.8318096"><ele>54.0</ele><time>2026-05-04T12:47:31.621Z</time></trkpt><trkpt lat="42.8018403" lon="17.8315536"><ele>54.0</ele><time>2026-05-04T12:47:32.62Z</time></trkpt><trkpt lat="42.8017843" lon="17.8313035"><ele>51.666666666666664</ele><time>2026-05-04T12:47:33.621Z</time></trkpt><trkpt lat="42.8017358" lon="17.8310471"><ele>49.33333333333333</ele><time>2026-05-04T12:47:34.62Z</time></trkpt><trkpt lat="42.801698" lon="17.8307877"><ele>47.0</ele><time>2026-05-04T12:47:35.621Z</time></trkpt><trkpt lat="42.8016656" lon="17.8305228"><ele>47.0</ele><time>2026-05-04T12:47:36.621Z</time></trkpt><trkpt lat="42.8016436" lon="17.830259"><ele>47.0</ele><time>2026-05-04T12:47:37.621Z</time></trkpt><trkpt lat="42.8016302" lon="17.8299872"><ele>47.0</ele><time>2026-05-04T12:47:38.621Z</time></trkpt><trkpt lat="42.8016176" lon="17.8297054"><ele>47.33333333333333</ele><time>2026-05-04T12:47:39.62Z</time></trkpt><trkpt lat="42.801616" lon="17.8294231"><ele>47.666666666666664</ele><time>2026-05-04T12:47:40.621Z</time></trkpt><trkpt lat="42.8016254" lon="17.8291457"><ele>48.0</ele><time>2026-05-04T12:47:41.621Z</time></trkpt><trkpt lat="42.8016405" lon="17.8288698"><ele>49.33333333333333</ele><time>2026-05-04T12:47:42.621Z</time></trkpt><trkpt lat="42.8016654" lon="17.8285996"><ele>50.666666666666664</ele><time>2026-05-04T12:47:43.621Z</time></trkpt><trkpt lat="42.8016998" lon="17.8283326"><ele>52.0</ele><time>2026-05-04T12:47:44.62Z</time></trkpt><trkpt lat="42.8017417" lon="17.8280576"><ele>52.666666666666664</ele><time>2026-05-04T12:47:45.62Z</time></trkpt><trkpt lat="42.8017928" lon="17.8277738"><ele>53.33333333333333</ele><time>2026-05-04T12:47:46.62Z</time></trkpt><trkpt lat="42.8018511" lon="17.8274656"><ele>54.0</ele><time>2026-05-04T12:47:47.621Z</time></trkpt><trkpt lat="42.8019303" lon="17.8271335"><ele>67.0</ele><time>2026-05-04T12:47:48.62Z</time></trkpt><trkpt lat="42.8020175" lon="17.826808"><ele>80.0</ele><time>2026-05-04T12:47:49.62Z</time></trkpt><trkpt lat="42.802113" lon="17.8264897"><ele>80.0</ele><time>2026-05-04T12:47:50.621Z</time></trkpt><trkpt lat="42.8022384" lon="17.8261893"><ele>80.0</ele><time>2026-05-04T12:47:51.62Z</time></trkpt><trkpt lat="42.8023871" lon="17.8258967"><ele>77.0</ele><time>2026-05-04T12:47:52.62Z</time></trkpt><trkpt lat="42.8025579" lon="17.8256174"><ele>74.0</ele><time>2026-05-04T12:47:53.621Z</time></trkpt><trkpt lat="42.8027317" lon="17.8253689"><ele>79.0</ele><time>2026-05-04T12:47:54.621Z</time></trkpt><trkpt lat="42.8029018" lon="17.8251264"><ele>84.0</ele><time>2026-05-04T12:47:55.62Z</time></trkpt><trkpt lat="42.8030704" lon="17.8248984"><ele>84.0</ele><time>2026-05-04T12:47:56.621Z</time></trkpt><trkpt lat="42.8031985" lon="17.8246616"><ele>84.0</ele><time>2026-05-04T12:47:57.62Z</time></trkpt><trkpt lat="42.8033032" lon="17.8244202"><ele>84.0</ele><time>2026-05-04T12:47:58.62Z</time></trkpt><trkpt lat="42.8033887" lon="17.8241553"><ele>78.0</ele><time>2026-05-04T12:47:59.621Z</time></trkpt><trkpt lat="42.8034491" lon="17.8238529"><ele>72.0</ele><time>2026-05-04T12:48:00.621Z</time></trkpt><trkpt lat="42.8034875" lon="17.8235255"><ele>90.0</ele><time>2026-05-04T12:48:01.621Z</time></trkpt><trkpt lat="42.8035199" lon="17.8232022"><ele>108.0</ele><time>2026-05-04T12:48:02.62Z</time></trkpt><trkpt lat="42.8035592" lon="17.8228886"><ele>109.5</ele><time>2026-05-04T12:48:03.62Z</time></trkpt><trkpt lat="42.8036207" lon="17.8225759"><ele>111.0</ele><time>2026-05-04T12:48:04.621Z</time></trkpt><trkpt lat="42.8037062" lon="17.8222564"><ele>111.0</ele><time>2026-05-04T12:48:05.62Z</time></trkpt><trkpt lat="42.8038146" lon="17.8219479"><ele>111.0</ele><time>2026-05-04T12:48:06.62Z</time></trkpt><trkpt lat="42.8039504" lon="17.8216387"><ele>105.0</ele><time>2026-05-04T12:48:07.62Z</time></trkpt><trkpt lat="42.8040983" lon="17.8213091"><ele>99.0</ele><time>2026-05-04T12:48:08.62Z</time></trkpt><trkpt lat="42.8042563" lon="17.8209847"><ele>112.5</ele><time>2026-05-04T12:48:09.621Z</time></trkpt><trkpt lat="42.8044269" lon="17.8206481"><ele>126.0</ele><time>2026-05-04T12:48:10.621Z</time></trkpt><trkpt lat="42.8045986" lon="17.8203236"><ele>119.0</ele><time>2026-05-04T12:48:11.62Z</time></trkpt><trkpt lat="42.8047595" lon="17.8199929"><ele>112.0</ele><time>2026-05-04T12:48:12.621Z</time></trkpt><trkpt lat="42.80492" lon="17.8196872"><ele>112.0</ele><time>2026-05-04T12:48:13.62Z</time></trkpt><trkpt lat="42.8050785" lon="17.8193747"><ele>112.0</ele><time>2026-05-04T12:48:14.621Z</time></trkpt><trkpt lat="42.8052343" lon="17.8190676"><ele>124.5</ele><time>2026-05-04T12:48:15.621Z</time></trkpt><trkpt lat="42.8053682" lon="17.8188016"><ele>137.0</ele><time>2026-05-04T12:48:16.62Z</time></trkpt><trkpt lat="42.8055013" lon="17.8185368"><ele>126.0</ele><time>2026-05-04T12:48:17.62Z</time></trkpt><trkpt lat="42.8056428" lon="17.8182899"><ele>115.0</ele><time>2026-05-04T12:48:18.62Z</time></trkpt><trkpt lat="42.8057848" lon="17.8180435"><ele>115.0</ele><time>2026-05-04T12:48:19.62Z</time></trkpt><trkpt lat="42.8059428" lon="17.8178039"><ele>115.0</ele><time>2026-05-04T12:48:20.62Z</time></trkpt><trkpt lat="42.8061095" lon="17.8175789"><ele>122.0</ele><time>2026-05-04T12:48:21.621Z</time></trkpt><trkpt lat="42.8062909" lon="17.8173821"><ele>129.0</ele><time>2026-05-04T12:48:22.621Z</time></trkpt><trkpt lat="42.8064786" lon="17.8172031"><ele>129.0</ele><time>2026-05-04T12:48:23.621Z</time></trkpt><trkpt lat="42.8066614" lon="17.8170444"><ele>129.0</ele><time>2026-05-04T12:48:24.62Z</time></trkpt><trkpt lat="42.8068428" lon="17.8168799"><ele>129.0</ele><time>2026-05-04T12:48:25.62Z</time></trkpt><trkpt lat="42.8070205" lon="17.8167187"><ele>127.33333333333334</ele><time>2026-05-04T12:48:26.621Z</time></trkpt><trkpt lat="42.8071609" lon="17.8165481"><ele>125.66666666666667</ele><time>2026-05-04T12:48:27.621Z</time></trkpt><trkpt lat="42.8072872" lon="17.8163553"><ele>124.0</ele><time>2026-05-04T12:48:28.621Z</time></trkpt><trkpt lat="42.8073833" lon="17.8161407"><ele>119.0</ele><time>2026-05-04T12:48:29.62Z</time></trkpt><trkpt lat="42.8074508" lon="17.8159097"><ele>114.0</ele><time>2026-05-04T12:48:30.62Z</time></trkpt><trkpt lat="42.8074757" lon="17.8156624"><ele>109.0</ele><time>2026-05-04T12:48:31.621Z</time></trkpt><trkpt lat="42.8074657" lon="17.8154202"><ele>109.0</ele><time>2026-05-04T12:48:32.62Z</time></trkpt><trkpt lat="42.8074254" lon="17.8151663"><ele>109.0</ele><time>2026-05-04T12:48:33.621Z</time></trkpt><trkpt lat="42.8073587" lon="17.81492"><ele>109.0</ele><time>2026-05-04T12:48:34.62Z</time></trkpt><trkpt lat="42.8072608" lon="17.8146658"><ele>113.33333333333334</ele><time>2026-05-04T12:48:35.621Z</time></trkpt><trkpt lat="42.8071477" lon="17.8144235"><ele>117.66666666666666</ele><time>2026-05-04T12:48:36.62Z</time></trkpt><trkpt lat="42.8070206" lon="17.8141933"><ele>122.0</ele><time>2026-05-04T12:48:37.62Z</time></trkpt><trkpt lat="42.8068888" lon="17.8139668"><ele>121.33333333333333</ele><time>2026-05-04T12:48:38.621Z</time></trkpt><trkpt lat="42.8067607" lon="17.8137407"><ele>120.66666666666666</ele><time>2026-05-04T12:48:39.621Z</time></trkpt><trkpt lat="42.8066402" lon="17.8135198"><ele>120.0</ele><time>2026-05-04T12:48:40.62Z</time></trkpt><trkpt lat="42.8065272" lon="17.8132935"><ele>120.0</ele><time>2026-05-04T12:48:41.621Z</time></trkpt><trkpt lat="42.8064234" lon="17.8130587"><ele>120.0</ele><time>2026-05-04T12:48:42.621Z</time></trkpt><trkpt lat="42.8063301" lon="17.8128139"><ele>120.0</ele><time>2026-05-04T12:48:43.62Z</time></trkpt><trkpt lat="42.8062576" lon="17.8125656"><ele>122.66666666666666</ele><time>2026-05-04T12:48:44.62Z</time></trkpt><trkpt lat="42.8062054" lon="17.8123028"><ele>125.33333333333333</ele><time>2026-05-04T12:48:45.62Z</time></trkpt><trkpt lat="42.806178" lon="17.8120396"><ele>128.0</ele><time>2026-05-04T12:48:46.621Z</time></trkpt><trkpt lat="42.8061679" lon="17.8117731"><ele>129.33333333333331</ele><time>2026-05-04T12:48:47.62Z</time></trkpt><trkpt lat="42.8061938" lon="17.811505"><ele>130.66666666666666</ele><time>2026-05-04T12:48:48.62Z</time></trkpt><trkpt lat="42.8062466" lon="17.811245"><ele>132.0</ele><time>2026-05-04T12:48:49.621Z</time></trkpt><trkpt lat="42.8063201" lon="17.8109979"><ele>131.33333333333334</ele><time>2026-05-04T12:48:50.621Z</time></trkpt><trkpt lat="42.8064178" lon="17.8107756"><ele>130.66666666666669</ele><time>2026-05-04T12:48:51.621Z</time></trkpt><trkpt lat="42.8065428" lon="17.8105689"><ele>130.0</ele><time>2026-05-04T12:48:52.621Z</time></trkpt><trkpt lat="42.8066908" lon="17.810382"><ele>131.0</ele><time>2026-05-04T12:48:53.621Z</time></trkpt><trkpt lat="42.8068593" lon="17.8102197"><ele>132.0</ele><time>2026-05-04T12:48:54.62Z</time></trkpt><trkpt lat="42.8070492" lon="17.8100732"><ele>133.0</ele><time>2026-05-04T12:48:55.62Z</time></trkpt><trkpt lat="42.8072447" lon="17.8099421"><ele>130.0</ele><time>2026-05-04T12:48:56.62Z</time></trkpt><trkpt lat="42.8074451" lon="17.8098189"><ele>127.0</ele><time>2026-05-04T12:48:57.62Z</time></trkpt><trkpt lat="42.8076564" lon="17.809692"><ele>128.0</ele><time>2026-05-04T12:48:58.62Z</time></trkpt><trkpt lat="42.8078586" lon="17.8095744"><ele>129.0</ele><time>2026-05-04T12:48:59.621Z</time></trkpt><trkpt lat="42.8080636" lon="17.8094539"><ele>130.0</ele><time>2026-05-04T12:49:00.621Z</time></trkpt><trkpt lat="42.8082658" lon="17.8093062"><ele>130.0</ele><time>2026-05-04T12:49:01.62Z</time></trkpt><trkpt lat="42.8084747" lon="17.8091353"><ele>130.0</ele><time>2026-05-04T12:49:02.621Z</time></trkpt><trkpt lat="42.8086738" lon="17.8089324"><ele>135.5</ele><time>2026-05-04T12:49:03.62Z</time></trkpt><trkpt lat="42.8088624" lon="17.8087083"><ele>141.0</ele><time>2026-05-04T12:49:04.62Z</time></trkpt><trkpt lat="42.8090353" lon="17.8084686"><ele>141.0</ele><time>2026-05-04T12:49:05.62Z</time></trkpt><trkpt lat="42.8091971" lon="17.8082143"><ele>141.0</ele><time>2026-05-04T12:49:06.62Z</time></trkpt><trkpt lat="42.8093378" lon="17.8079472"><ele>146.5</ele><time>2026-05-04T12:49:07.621Z</time></trkpt><trkpt lat="42.809462" lon="17.8076655"><ele>152.0</ele><time>2026-05-04T12:49:08.62Z</time></trkpt><trkpt lat="42.8095704" lon="17.807369"><ele>152.0</ele><time>2026-05-04T12:49:09.62Z</time></trkpt><trkpt lat="42.8096674" lon="17.8070672"><ele>152.0</ele><time>2026-05-04T12:49:10.621Z</time></trkpt><trkpt lat="42.8097415" lon="17.8067536"><ele>149.5</ele><time>2026-05-04T12:49:11.62Z</time></trkpt><trkpt lat="42.8097936" lon="17.8064297"><ele>147.0</ele><time>2026-05-04T12:49:12.621Z</time></trkpt><trkpt lat="42.8098299" lon="17.8061065"><ele>146.0</ele><time>2026-05-04T12:49:13.621Z</time></trkpt><trkpt lat="42.809867" lon="17.805787"><ele>145.0</ele><time>2026-05-04T12:49:14.62Z</time></trkpt><trkpt lat="42.8099022" lon="17.8054669"><ele>142.5</ele><time>2026-05-04T12:49:15.62Z</time></trkpt><trkpt lat="42.8099466" lon="17.8051623"><ele>140.0</ele><time>2026-05-04T12:49:16.621Z</time></trkpt><trkpt lat="42.8099964" lon="17.80486"><ele>140.0</ele><time>2026-05-04T12:49:17.62Z</time></trkpt><trkpt lat="42.8100668" lon="17.8045661"><ele>140.0</ele><time>2026-05-04T12:49:18.62Z</time></trkpt><trkpt lat="42.8101551" lon="17.8042849"><ele>147.0</ele><time>2026-05-04T12:49:19.62Z</time></trkpt><trkpt lat="42.8102678" lon="17.8040089"><ele>154.0</ele><time>2026-05-04T12:49:20.62Z</time></trkpt><trkpt lat="42.8103929" lon="17.8037303"><ele>151.0</ele><time>2026-05-04T12:49:21.621Z</time></trkpt><trkpt lat="42.810514" lon="17.8034552"><ele>148.0</ele><time>2026-05-04T12:49:22.62Z</time></trkpt><trkpt lat="42.8106291" lon="17.8031882"><ele>148.0</ele><time>2026-05-04T12:49:23.621Z</time></trkpt><trkpt lat="42.8107291" lon="17.8029189"><ele>148.0</ele><time>2026-05-04T12:49:24.62Z</time></trkpt><trkpt lat="42.8108168" lon="17.8026551"><ele>148.0</ele><time>2026-05-04T12:49:25.621Z</time></trkpt><trkpt lat="42.8108844" lon="17.8023944"><ele>145.66666666666669</ele><time>2026-05-04T12:49:26.62Z</time></trkpt><trkpt lat="42.8109138" lon="17.802132"><ele>143.33333333333334</ele><time>2026-05-04T12:49:27.62Z</time></trkpt><trkpt lat="42.8109122" lon="17.8018651"><ele>141.0</ele><time>2026-05-04T12:49:28.62Z</time></trkpt><trkpt lat="42.8108731" lon="17.8015863"><ele>141.0</ele><time>2026-05-04T12:49:29.621Z</time></trkpt><trkpt lat="42.8108214" lon="17.8013235"><ele>141.0</ele><time>2026-05-04T12:49:30.621Z</time></trkpt><trkpt lat="42.8107413" lon="17.8010601"><ele>141.0</ele><time>2026-05-04T12:49:31.621Z</time></trkpt><trkpt lat="42.8106662" lon="17.8007838"><ele>141.0</ele><time>2026-05-04T12:49:32.621Z</time></trkpt><trkpt lat="42.8106422" lon="17.8005053"><ele>141.0</ele><time>2026-05-04T12:49:33.621Z</time></trkpt><trkpt lat="42.8106289" lon="17.8002358"><ele>141.0</ele><time>2026-05-04T12:49:34.62Z</time></trkpt><trkpt lat="42.8106505" lon="17.7999549"><ele>139.66666666666666</ele><time>2026-05-04T12:49:35.621Z</time></trkpt><trkpt lat="42.8106876" lon="17.7996673"><ele>138.33333333333331</ele><time>2026-05-04T12:49:36.62Z</time></trkpt><trkpt lat="42.8107331" lon="17.7993755"><ele>137.0</ele><time>2026-05-04T12:49:37.62Z</time></trkpt><trkpt lat="42.8107842" lon="17.7990839"><ele>137.0</ele><time>2026-05-04T12:49:38.62Z</time></trkpt><trkpt lat="42.8108279" lon="17.7987978"><ele>137.0</ele><time>2026-05-04T12:49:39.621Z</time></trkpt><trkpt lat="42.810878" lon="17.7985017"><ele>137.0</ele><time>2026-05-04T12:49:40.62Z</time></trkpt><trkpt lat="42.8109175" lon="17.7981924"><ele>133.5</ele><time>2026-05-04T12:49:41.621Z</time></trkpt><trkpt lat="42.8109474" lon="17.7978536"><ele>130.0</ele><time>2026-05-04T12:49:42.62Z</time></trkpt><trkpt lat="42.8109492" lon="17.7975003"><ele>128.5</ele><time>2026-05-04T12:49:43.621Z</time></trkpt><trkpt lat="42.8109379" lon="17.7971372"><ele>127.0</ele><time>2026-05-04T12:49:44.62Z</time></trkpt><trkpt lat="42.8109153" lon="17.7967965"><ele>126.0</ele><time>2026-05-04T12:49:45.62Z</time></trkpt><trkpt lat="42.8108896" lon="17.7964619"><ele>125.0</ele><time>2026-05-04T12:49:46.621Z</time></trkpt><trkpt lat="42.8108604" lon="17.7961272"><ele>126.0</ele><time>2026-05-04T12:49:47.621Z</time></trkpt><trkpt lat="42.8108405" lon="17.7958006"><ele>127.0</ele><time>2026-05-04T12:49:48.621Z</time></trkpt><trkpt lat="42.8108383" lon="17.7954719"><ele>125.0</ele><time>2026-05-04T12:49:49.621Z</time></trkpt><trkpt lat="42.8108533" lon="17.7951499"><ele>123.0</ele><time>2026-05-04T12:49:50.62Z</time></trkpt><trkpt lat="42.8108867" lon="17.7948392"><ele>123.0</ele><time>2026-05-04T12:49:51.62Z</time></trkpt><trkpt lat="42.8109388" lon="17.7945399"><ele>123.0</ele><time>2026-05-04T12:49:52.621Z</time></trkpt><trkpt lat="42.8110095" lon="17.794248"><ele>127.33333333333334</ele><time>2026-05-04T12:49:53.621Z</time></trkpt><trkpt lat="42.8111157" lon="17.7939837"><ele>131.66666666666669</ele><time>2026-05-04T12:49:54.621Z</time></trkpt><trkpt lat="42.8112335" lon="17.79373"><ele>136.0</ele><time>2026-05-04T12:49:55.621Z</time></trkpt><trkpt lat="42.8113661" lon="17.7934811"><ele>136.0</ele><time>2026-05-04T12:49:56.62Z</time></trkpt><trkpt lat="42.8115176" lon="17.7932552"><ele>136.0</ele><time>2026-05-04T12:49:57.62Z</time></trkpt><trkpt lat="42.8116958" lon="17.7930417"><ele>138.0</ele><time>2026-05-04T12:49:58.621Z</time></trkpt><trkpt lat="42.8118649" lon="17.7928707"><ele>140.0</ele><time>2026-05-04T12:49:59.62Z</time></trkpt><trkpt lat="42.8120348" lon="17.7926988"><ele>142.0</ele><time>2026-05-04T12:50:00.621Z</time></trkpt><trkpt lat="42.8122011" lon="17.7925221"><ele>142.0</ele><time>2026-05-04T12:50:01.62Z</time></trkpt><trkpt lat="42.8123676" lon="17.792327"><ele>142.0</ele><time>2026-05-04T12:50:02.621Z</time></trkpt><trkpt lat="42.8125158" lon="17.7921129"><ele>142.0</ele><time>2026-05-04T12:50:03.62Z</time></trkpt><trkpt lat="42.8126516" lon="17.7918772"><ele>144.33333333333334</ele><time>2026-05-04T12:50:04.62Z</time></trkpt><trkpt lat="42.8127766" lon="17.7916201"><ele>146.66666666666666</ele><time>2026-05-04T12:50:05.62Z</time></trkpt><trkpt lat="42.8128866" lon="17.7913564"><ele>149.0</ele><time>2026-05-04T12:50:06.621Z</time></trkpt><trkpt lat="42.8129704" lon="17.791077"><ele>144.5</ele><time>2026-05-04T12:50:07.621Z</time></trkpt><trkpt lat="42.8130305" lon="17.7907868"><ele>140.0</ele><time>2026-05-04T12:50:08.621Z</time></trkpt><trkpt lat="42.8130917" lon="17.7904718"><ele>140.0</ele><time>2026-05-04T12:50:09.62Z</time></trkpt><trkpt lat="42.813121" lon="17.7901784"><ele>140.0</ele><time>2026-05-04T12:50:10.621Z</time></trkpt><trkpt lat="42.8131365" lon="17.7898923"><ele>140.0</ele><time>2026-05-04T12:50:11.621Z</time></trkpt><trkpt lat="42.8131572" lon="17.7896192"><ele>137.66666666666666</ele><time>2026-05-04T12:50:12.62Z</time></trkpt><trkpt lat="42.8131762" lon="17.789341"><ele>135.33333333333334</ele><time>2026-05-04T12:50:13.621Z</time></trkpt><trkpt lat="42.8132103" lon="17.7890656"><ele>133.0</ele><time>2026-05-04T12:50:14.621Z</time></trkpt><trkpt lat="42.8132574" lon="17.7888021"><ele>133.0</ele><time>2026-05-04T12:50:15.62Z</time></trkpt><trkpt lat="42.8133185" lon="17.7885589"><ele>133.0</ele><time>2026-05-04T12:50:16.621Z</time></trkpt><trkpt lat="42.8133997" lon="17.7883284"><ele>133.0</ele><time>2026-05-04T12:50:17.62Z</time></trkpt><trkpt lat="42.8135021" lon="17.7881125"><ele>133.33333333333334</ele><time>2026-05-04T12:50:18.62Z</time></trkpt><trkpt lat="42.8136154" lon="17.7879097"><ele>133.66666666666666</ele><time>2026-05-04T12:50:19.621Z</time></trkpt><trkpt lat="42.8137448" lon="17.7877185"><ele>134.0</ele><time>2026-05-04T12:50:20.62Z</time></trkpt><trkpt lat="42.8138761" lon="17.7875249"><ele>134.0</ele><time>2026-05-04T12:50:21.62Z</time></trkpt><trkpt lat="42.8140146" lon="17.7873304"><ele>134.0</ele><time>2026-05-04T12:50:22.621Z</time></trkpt><trkpt lat="42.8141347" lon="17.7871201"><ele>134.0</ele><time>2026-05-04T12:50:23.62Z</time></trkpt><trkpt lat="42.8142427" lon="17.7868858"><ele>137.66666666666666</ele><time>2026-05-04T12:50:24.621Z</time></trkpt><trkpt lat="42.8143356" lon="17.7866527"><ele>141.33333333333334</ele><time>2026-05-04T12:50:25.62Z</time></trkpt><trkpt lat="42.8144165" lon="17.7864098"><ele>145.0</ele><time>2026-05-04T12:50:26.621Z</time></trkpt><trkpt lat="42.8144804" lon="17.786158"><ele>140.66666666666669</ele><time>2026-05-04T12:50:27.621Z</time></trkpt><trkpt lat="42.814528" lon="17.7859015"><ele>136.33333333333334</ele><time>2026-05-04T12:50:28.621Z</time></trkpt><trkpt lat="42.8145579" lon="17.7856432"><ele>132.0</ele><time>2026-05-04T12:50:29.621Z</time></trkpt><trkpt lat="42.8145685" lon="17.7853828"><ele>131.66666666666666</ele><time>2026-05-04T12:50:30.62Z</time></trkpt><trkpt lat="42.8145621" lon="17.7851218"><ele>131.33333333333331</ele><time>2026-05-04T12:50:31.62Z</time></trkpt><trkpt lat="42.8145381" lon="17.7848677"><ele>131.0</ele><time>2026-05-04T12:50:32.621Z</time></trkpt><trkpt lat="42.8145057" lon="17.7846196"><ele>131.0</ele><time>2026-05-04T12:50:33.62Z</time></trkpt><trkpt lat="42.8144679" lon="17.7843804"><ele>131.0</ele><time>2026-05-04T12:50:34.621Z</time></trkpt><trkpt lat="42.8144271" lon="17.7841458"><ele>131.0</ele><time>2026-05-04T12:50:35.621Z</time></trkpt><trkpt lat="42.8143865" lon="17.7839145"><ele>133.0</ele><time>2026-05-04T12:50:36.62Z</time></trkpt><trkpt lat="42.8143529" lon="17.783682"><ele>135.0</ele><time>2026-05-04T12:50:37.621Z</time></trkpt><trkpt lat="42.8143326" lon="17.7834493"><ele>137.0</ele><time>2026-05-04T12:50:38.62Z</time></trkpt><trkpt lat="42.8143228" lon="17.7832123"><ele>138.0</ele><time>2026-05-04T12:50:39.62Z</time></trkpt><trkpt lat="42.8143199" lon="17.7829805"><ele>139.0</ele><time>2026-05-04T12:50:40.621Z</time></trkpt><trkpt lat="42.8143246" lon="17.7827529"><ele>140.0</ele><time>2026-05-04T12:50:41.62Z</time></trkpt><trkpt lat="42.8143397" lon="17.782531"><ele>140.0</ele><time>2026-05-04T12:50:42.621Z</time></trkpt><trkpt lat="42.8143667" lon="17.782311"><ele>140.0</ele><time>2026-05-04T12:50:43.621Z</time></trkpt><trkpt lat="42.8144005" lon="17.7820987"><ele>140.0</ele><time>2026-05-04T12:50:44.621Z</time></trkpt><trkpt lat="42.8144523" lon="17.7818841"><ele>138.33333333333331</ele><time>2026-05-04T12:50:45.621Z</time></trkpt><trkpt lat="42.8145157" lon="17.7816656"><ele>136.66666666666666</ele><time>2026-05-04T12:50:46.62Z</time></trkpt><trkpt lat="42.8145867" lon="17.7814402"><ele>135.0</ele><time>2026-05-04T12:50:47.62Z</time></trkpt><trkpt lat="42.814668" lon="17.781222"><ele>135.0</ele><time>2026-05-04T12:50:48.62Z</time></trkpt><trkpt lat="42.8147573" lon="17.781018"><ele>135.0</ele><time>2026-05-04T12:50:49.62Z</time></trkpt><trkpt lat="42.8148656" lon="17.7808225"><ele>135.0</ele><time>2026-05-04T12:50:50.62Z</time></trkpt><trkpt lat="42.8149765" lon="17.780633"><ele>135.33333333333334</ele><time>2026-05-04T12:50:51.621Z</time></trkpt><trkpt lat="42.815104" lon="17.7804532"><ele>135.66666666666669</ele><time>2026-05-04T12:50:52.62Z</time></trkpt><trkpt lat="42.8152412" lon="17.7802767"><ele>136.0</ele><time>2026-05-04T12:50:53.62Z</time></trkpt><trkpt lat="42.8153755" lon="17.7801006"><ele>136.0</ele><time>2026-05-04T12:50:54.62Z</time></trkpt><trkpt lat="42.8155105" lon="17.7799334"><ele>136.0</ele><time>2026-05-04T12:50:55.62Z</time></trkpt><trkpt lat="42.815648" lon="17.7797741"><ele>136.0</ele><time>2026-05-04T12:50:56.621Z</time></trkpt><trkpt lat="42.8157808" lon="17.7796066"><ele>136.0</ele><time>2026-05-04T12:50:57.621Z</time></trkpt><trkpt lat="42.8159041" lon="17.7794387"><ele>136.0</ele><time>2026-05-04T12:50:58.62Z</time></trkpt><trkpt lat="42.8160193" lon="17.7792668"><ele>136.0</ele><time>2026-05-04T12:50:59.621Z</time></trkpt><trkpt lat="42.8161267" lon="17.77909"><ele>136.33333333333334</ele><time>2026-05-04T12:51:00.621Z</time></trkpt><trkpt lat="42.8162357" lon="17.7788959"><ele>136.66666666666666</ele><time>2026-05-04T12:51:01.62Z</time></trkpt><trkpt lat="42.8163359" lon="17.7786959"><ele>137.0</ele><time>2026-05-04T12:51:02.621Z</time></trkpt><trkpt lat="42.8164371" lon="17.7784545"><ele>135.0</ele><time>2026-05-04T12:51:03.62Z</time></trkpt><trkpt lat="42.8165403" lon="17.7781769"><ele>133.0</ele><time>2026-05-04T12:51:04.62Z</time></trkpt><trkpt lat="42.816651" lon="17.7778736"><ele>132.0</ele><time>2026-05-04T12:51:05.62Z</time></trkpt><trkpt lat="42.8167573" lon="17.7775578"><ele>131.0</ele><time>2026-05-04T12:51:06.62Z</time></trkpt><trkpt lat="42.81686" lon="17.7772293"><ele>131.0</ele><time>2026-05-04T12:51:07.621Z</time></trkpt><trkpt lat="42.8169638" lon="17.7769011"><ele>131.0</ele><time>2026-05-04T12:51:08.621Z</time></trkpt><trkpt lat="42.8170678" lon="17.7765822"><ele>131.0</ele><time>2026-05-04T12:51:09.62Z</time></trkpt><trkpt lat="42.817171" lon="17.7762631"><ele>131.0</ele><time>2026-05-04T12:51:10.621Z</time></trkpt><trkpt lat="42.81728" lon="17.7759507"><ele>130.0</ele><time>2026-05-04T12:51:11.62Z</time></trkpt><trkpt lat="42.8173998" lon="17.7756396"><ele>129.0</ele><time>2026-05-04T12:51:12.62Z</time></trkpt><trkpt lat="42.8175277" lon="17.7753283"><ele>129.5</ele><time>2026-05-04T12:51:13.62Z</time></trkpt><trkpt lat="42.8176596" lon="17.7750196"><ele>130.0</ele><time>2026-05-04T12:51:14.621Z</time></trkpt><trkpt lat="42.8177963" lon="17.7747193"><ele>130.0</ele><time>2026-05-04T12:51:15.62Z</time></trkpt><trkpt lat="42.8179416" lon="17.7744287"><ele>130.0</ele><time>2026-05-04T12:51:16.62Z</time></trkpt><trkpt lat="42.8181008" lon="17.7741347"><ele>128.5</ele><time>2026-05-04T12:51:17.621Z</time></trkpt><trkpt lat="42.8182662" lon="17.7738386"><ele>127.0</ele><time>2026-05-04T12:51:18.621Z</time></trkpt><trkpt lat="42.8184416" lon="17.7735367"><ele>127.0</ele><time>2026-05-04T12:51:19.621Z</time></trkpt><trkpt lat="42.8186232" lon="17.7732336"><ele>127.0</ele><time>2026-05-04T12:51:20.621Z</time></trkpt><trkpt lat="42.8188029" lon="17.7729298"><ele>126.0</ele><time>2026-05-04T12:51:21.62Z</time></trkpt><trkpt lat="42.8189861" lon="17.7726227"><ele>125.0</ele><time>2026-05-04T12:51:22.621Z</time></trkpt><trkpt lat="42.8191677" lon="17.7723193"><ele>126.0</ele><time>2026-05-04T12:51:23.621Z</time></trkpt><trkpt lat="42.8193473" lon="17.7720193"><ele>127.0</ele><time>2026-05-04T12:51:24.62Z</time></trkpt><trkpt lat="42.8195232" lon="17.7717149"><ele>127.0</ele><time>2026-05-04T12:51:25.621Z</time></trkpt><trkpt lat="42.8196974" lon="17.7714092"><ele>127.0</ele><time>2026-05-04T12:51:26.621Z</time></trkpt><trkpt lat="42.8198753" lon="17.7711128"><ele>125.0</ele><time>2026-05-04T12:51:27.62Z</time></trkpt><trkpt lat="42.8200515" lon="17.7708191"><ele>123.0</ele><time>2026-05-04T12:51:28.621Z</time></trkpt><trkpt lat="42.820227" lon="17.7705162"><ele>126.0</ele><time>2026-05-04T12:51:29.62Z</time></trkpt><trkpt lat="42.8204042" lon="17.7702103"><ele>129.0</ele><time>2026-05-04T12:51:30.62Z</time></trkpt><trkpt lat="42.8205851" lon="17.7699011"><ele>129.0</ele><time>2026-05-04T12:51:31.621Z</time></trkpt><trkpt lat="42.8207713" lon="17.769601"><ele>129.0</ele><time>2026-05-04T12:51:32.621Z</time></trkpt><trkpt lat="42.8209537" lon="17.7692961"><ele>131.5</ele><time>2026-05-04T12:51:33.621Z</time></trkpt><trkpt lat="42.8211365" lon="17.7689795"><ele>134.0</ele><time>2026-05-04T12:51:34.62Z</time></trkpt><trkpt lat="42.8213095" lon="17.7686821"><ele>128.5</ele><time>2026-05-04T12:51:35.621Z</time></trkpt><trkpt lat="42.8214844" lon="17.7683892"><ele>123.0</ele><time>2026-05-04T12:51:36.62Z</time></trkpt><trkpt lat="42.8216522" lon="17.7681023"><ele>124.0</ele><time>2026-05-04T12:51:37.621Z</time></trkpt><trkpt lat="42.8218207" lon="17.7678197"><ele>125.0</ele><time>2026-05-04T12:51:38.621Z</time></trkpt><trkpt lat="42.8219802" lon="17.7675477"><ele>125.0</ele><time>2026-05-04T12:51:39.62Z</time></trkpt><trkpt lat="42.8221331" lon="17.7672895"><ele>125.0</ele><time>2026-05-04T12:51:40.62Z</time></trkpt><trkpt lat="42.8222738" lon="17.7670386"><ele>123.66666666666666</ele><time>2026-05-04T12:51:41.621Z</time></trkpt><trkpt lat="42.8224025" lon="17.7667948"><ele>122.33333333333334</ele><time>2026-05-04T12:51:42.621Z</time></trkpt><trkpt lat="42.8225182" lon="17.7665498"><ele>121.0</ele><time>2026-05-04T12:51:43.62Z</time></trkpt><trkpt lat="42.8226243" lon="17.7662949"><ele>122.0</ele><time>2026-05-04T12:51:44.62Z</time></trkpt><trkpt lat="42.8227284" lon="17.7660334"><ele>123.0</ele><time>2026-05-04T12:51:45.621Z</time></trkpt><trkpt lat="42.8228256" lon="17.7657616"><ele>124.0</ele><time>2026-05-04T12:51:46.621Z</time></trkpt><trkpt lat="42.8229152" lon="17.7654861"><ele>124.0</ele><time>2026-05-04T12:51:47.62Z</time></trkpt><trkpt lat="42.8229941" lon="17.7652173"><ele>124.0</ele><time>2026-05-04T12:51:48.621Z</time></trkpt><trkpt lat="42.8230673" lon="17.7649519"><ele>124.0</ele><time>2026-05-04T12:51:49.621Z</time></trkpt><trkpt lat="42.8231318" lon="17.7646811"><ele>123.0</ele><time>2026-05-04T12:51:50.621Z</time></trkpt><trkpt lat="42.8231956" lon="17.7644064"><ele>122.0</ele><time>2026-05-04T12:51:51.621Z</time></trkpt><trkpt lat="42.8232478" lon="17.7641188"><ele>121.0</ele><time>2026-05-04T12:51:52.62Z</time></trkpt><trkpt lat="42.8232977" lon="17.7638162"><ele>119.5</ele><time>2026-05-04T12:51:53.62Z</time></trkpt><trkpt lat="42.8233471" lon="17.7634699"><ele>118.0</ele><time>2026-05-04T12:51:54.62Z</time></trkpt><trkpt lat="42.8234066" lon="17.7631152"><ele>117.0</ele><time>2026-05-04T12:51:55.62Z</time></trkpt><trkpt lat="42.8234806" lon="17.7627387"><ele>116.0</ele><time>2026-05-04T12:51:56.62Z</time></trkpt><trkpt lat="42.8235573" lon="17.7623634"><ele>113.5</ele><time>2026-05-04T12:51:57.62Z</time></trkpt><trkpt lat="42.8236314" lon="17.7619877"><ele>111.0</ele><time>2026-05-04T12:51:58.621Z</time></trkpt><trkpt lat="42.8237007" lon="17.7616163"><ele>107.5</ele><time>2026-05-04T12:51:59.62Z</time></trkpt><trkpt lat="42.823766" lon="17.7612459"><ele>104.0</ele><time>2026-05-04T12:52:00.62Z</time></trkpt><trkpt lat="42.8238278" lon="17.7608918"><ele>100.5</ele><time>2026-05-04T12:52:01.621Z</time></trkpt><trkpt lat="42.8238893" lon="17.7605491"><ele>97.0</ele><time>2026-05-04T12:52:02.621Z</time></trkpt><trkpt lat="42.8239503" lon="17.7602217"><ele>96.5</ele><time>2026-05-04T12:52:03.62Z</time></trkpt><trkpt lat="42.8240156" lon="17.7598997"><ele>96.0</ele><time>2026-05-04T12:52:04.62Z</time></trkpt><trkpt lat="42.824079" lon="17.7595838"><ele>93.5</ele><time>2026-05-04T12:52:05.621Z</time></trkpt><trkpt lat="42.8241532" lon="17.7592757"><ele>91.0</ele><time>2026-05-04T12:52:06.62Z</time></trkpt><trkpt lat="42.8242449" lon="17.7589727"><ele>88.5</ele><time>2026-05-04T12:52:07.62Z</time></trkpt><trkpt lat="42.8243586" lon="17.7586837"><ele>86.0</ele><time>2026-05-04T12:52:08.62Z</time></trkpt><trkpt lat="42.8244936" lon="17.7584033"><ele>85.5</ele><time>2026-05-04T12:52:09.62Z</time></trkpt><trkpt lat="42.8246458" lon="17.7581377"><ele>85.0</ele><time>2026-05-04T12:52:10.62Z</time></trkpt><trkpt lat="42.8248045" lon="17.7578842"><ele>88.5</ele><time>2026-05-04T12:52:11.62Z</time></trkpt><trkpt lat="42.8249617" lon="17.7576472"><ele>92.0</ele><time>2026-05-04T12:52:12.62Z</time></trkpt><trkpt lat="42.8251145" lon="17.7574135"><ele>87.33333333333334</ele><time>2026-05-04T12:52:13.62Z</time></trkpt><trkpt lat="42.8252575" lon="17.7571774"><ele>82.66666666666667</ele><time>2026-05-04T12:52:14.621Z</time></trkpt><trkpt lat="42.8253846" lon="17.7569296"><ele>78.0</ele><time>2026-05-04T12:52:15.62Z</time></trkpt><trkpt lat="42.8254994" lon="17.7566687"><ele>78.0</ele><time>2026-05-04T12:52:16.621Z</time></trkpt><trkpt lat="42.8255986" lon="17.7564007"><ele>78.0</ele><time>2026-05-04T12:52:17.621Z</time></trkpt><trkpt lat="42.8256801" lon="17.7561354"><ele>78.0</ele><time>2026-05-04T12:52:18.621Z</time></trkpt><trkpt lat="42.825745" lon="17.7558692"><ele>77.0</ele><time>2026-05-04T12:52:19.621Z</time></trkpt><trkpt lat="42.8257945" lon="17.7555991"><ele>76.0</ele><time>2026-05-04T12:52:20.621Z</time></trkpt><trkpt lat="42.8258256" lon="17.7553181"><ele>75.0</ele><time>2026-05-04T12:52:21.62Z</time></trkpt><trkpt lat="42.8258453" lon="17.7550227"><ele>74.0</ele><time>2026-05-04T12:52:22.621Z</time></trkpt><trkpt lat="42.8258386" lon="17.7547336"><ele>73.0</ele><time>2026-05-04T12:52:23.621Z</time></trkpt><trkpt lat="42.8258118" lon="17.7544477"><ele>72.0</ele><time>2026-05-04T12:52:24.62Z</time></trkpt><trkpt lat="42.8257709" lon="17.7541639"><ele>72.0</ele><time>2026-05-04T12:52:25.621Z</time></trkpt><trkpt lat="42.8257148" lon="17.7538806"><ele>72.0</ele><time>2026-05-04T12:52:26.621Z</time></trkpt><trkpt lat="42.8256437" lon="17.7536155"><ele>72.0</ele><time>2026-05-04T12:52:27.621Z</time></trkpt><trkpt lat="42.8255554" lon="17.7533584"><ele>73.33333333333333</ele><time>2026-05-04T12:52:28.621Z</time></trkpt><trkpt lat="42.8254569" lon="17.7531101"><ele>74.66666666666666</ele><time>2026-05-04T12:52:29.62Z</time></trkpt><trkpt lat="42.8253531" lon="17.7528608"><ele>76.0</ele><time>2026-05-04T12:52:30.621Z</time></trkpt><trkpt lat="42.8252385" lon="17.7526133"><ele>79.0</ele><time>2026-05-04T12:52:31.621Z</time></trkpt><trkpt lat="42.8251192" lon="17.7523656"><ele>82.0</ele><time>2026-05-04T12:52:32.621Z</time></trkpt><trkpt lat="42.8249953" lon="17.7521175"><ele>85.0</ele><time>2026-05-04T12:52:33.621Z</time></trkpt><trkpt lat="42.8248721" lon="17.7518625"><ele>85.66666666666666</ele><time>2026-05-04T12:52:34.62Z</time></trkpt><trkpt lat="42.8247522" lon="17.7516078"><ele>86.33333333333333</ele><time>2026-05-04T12:52:35.62Z</time></trkpt><trkpt lat="42.8246304" lon="17.7513587"><ele>87.0</ele><time>2026-05-04T12:52:36.621Z</time></trkpt><trkpt lat="42.8245068" lon="17.7511106"><ele>86.5</ele><time>2026-05-04T12:52:37.62Z</time></trkpt><trkpt lat="42.8243796" lon="17.7508566"><ele>86.0</ele><time>2026-05-04T12:52:38.621Z</time></trkpt><trkpt lat="42.8242522" lon="17.7506015"><ele>86.0</ele><time>2026-05-04T12:52:39.621Z</time></trkpt><trkpt lat="42.8241279" lon="17.7503476"><ele>86.0</ele><time>2026-05-04T12:52:40.621Z</time></trkpt><trkpt lat="42.8240006" lon="17.750095"><ele>86.0</ele><time>2026-05-04T12:52:41.621Z</time></trkpt><trkpt lat="42.8238808" lon="17.749841"><ele>84.5</ele><time>2026-05-04T12:52:42.621Z</time></trkpt><trkpt lat="42.8237611" lon="17.7495752"><ele>83.0</ele><time>2026-05-04T12:52:43.621Z</time></trkpt><trkpt lat="42.8236375" lon="17.749322"><ele>82.0</ele><time>2026-05-04T12:52:44.621Z</time></trkpt><trkpt lat="42.8235111" lon="17.7490699"><ele>81.0</ele><time>2026-05-04T12:52:45.62Z</time></trkpt><trkpt lat="42.8233925" lon="17.7488169"><ele>80.0</ele><time>2026-05-04T12:52:46.621Z</time></trkpt><trkpt lat="42.8232802" lon="17.748552"><ele>76.0</ele><time>2026-05-04T12:52:47.621Z</time></trkpt><trkpt lat="42.8231753" lon="17.7482874"><ele>72.0</ele><time>2026-05-04T12:52:48.621Z</time></trkpt><trkpt lat="42.8230693" lon="17.7480097"><ele>72.0</ele><time>2026-05-04T12:52:49.621Z</time></trkpt><trkpt lat="42.8229681" lon="17.7477393"><ele>72.0</ele><time>2026-05-04T12:52:50.621Z</time></trkpt><trkpt lat="42.8228718" lon="17.7474545"><ele>71.0</ele><time>2026-05-04T12:52:51.621Z</time></trkpt><trkpt lat="42.8227818" lon="17.7471663"><ele>70.0</ele><time>2026-05-04T12:52:52.62Z</time></trkpt><trkpt lat="42.822698" lon="17.7468725"><ele>72.0</ele><time>2026-05-04T12:52:53.621Z</time></trkpt><trkpt lat="42.8226211" lon="17.7465689"><ele>74.0</ele><time>2026-05-04T12:52:54.621Z</time></trkpt><trkpt lat="42.822554" lon="17.7462593"><ele>72.5</ele><time>2026-05-04T12:52:55.621Z</time></trkpt><trkpt lat="42.8224929" lon="17.745946"><ele>71.0</ele><time>2026-05-04T12:52:56.621Z</time></trkpt><trkpt lat="42.8224385" lon="17.7456243"><ele>71.0</ele><time>2026-05-04T12:52:57.62Z</time></trkpt><trkpt lat="42.8223904" lon="17.7453011"><ele>71.0</ele><time>2026-05-04T12:52:58.62Z</time></trkpt><trkpt lat="42.8223513" lon="17.7449742"><ele>69.5</ele><time>2026-05-04T12:52:59.621Z</time></trkpt><trkpt lat="42.8223168" lon="17.7446415"><ele>68.0</ele><time>2026-05-04T12:53:00.62Z</time></trkpt><trkpt lat="42.8222927" lon="17.744306"><ele>67.0</ele><time>2026-05-04T12:53:01.621Z</time></trkpt><trkpt lat="42.822277" lon="17.7439683"><ele>66.0</ele><time>2026-05-04T12:53:02.621Z</time></trkpt><trkpt lat="42.8222733" lon="17.7436301"><ele>64.5</ele><time>2026-05-04T12:53:03.62Z</time></trkpt><trkpt lat="42.8222792" lon="17.7432859"><ele>63.0</ele><time>2026-05-04T12:53:04.621Z</time></trkpt><trkpt lat="42.822294" lon="17.7429389"><ele>62.5</ele><time>2026-05-04T12:53:05.621Z</time></trkpt><trkpt lat="42.8223166" lon="17.7426011"><ele>62.0</ele><time>2026-05-04T12:53:06.621Z</time></trkpt><trkpt lat="42.8223449" lon="17.7422605"><ele>62.0</ele><time>2026-05-04T12:53:07.62Z</time></trkpt><trkpt lat="42.8223829" lon="17.7419218"><ele>62.0</ele><time>2026-05-04T12:53:08.62Z</time></trkpt><trkpt lat="42.8224312" lon="17.7415804"><ele>61.0</ele><time>2026-05-04T12:53:09.62Z</time></trkpt><trkpt lat="42.8224924" lon="17.7412397"><ele>60.0</ele><time>2026-05-04T12:53:10.621Z</time></trkpt><trkpt lat="42.8225606" lon="17.7408997"><ele>59.5</ele><time>2026-05-04T12:53:11.62Z</time></trkpt><trkpt lat="42.8226381" lon="17.7405628"><ele>59.0</ele><time>2026-05-04T12:53:12.621Z</time></trkpt><trkpt lat="42.8227247" lon="17.7402269"><ele>57.5</ele><time>2026-05-04T12:53:13.621Z</time></trkpt><trkpt lat="42.8228216" lon="17.7398938"><ele>56.0</ele><time>2026-05-04T12:53:14.62Z</time></trkpt><trkpt lat="42.8229222" lon="17.7395675"><ele>55.0</ele><time>2026-05-04T12:53:15.62Z</time></trkpt><trkpt lat="42.8230351" lon="17.7392435"><ele>54.0</ele><time>2026-05-04T12:53:16.621Z</time></trkpt><trkpt lat="42.8231531" lon="17.7389292"><ele>54.0</ele><time>2026-05-04T12:53:17.62Z</time></trkpt><trkpt lat="42.8232775" lon="17.738619"><ele>54.0</ele><time>2026-05-04T12:53:18.621Z</time></trkpt><trkpt lat="42.823415" lon="17.7383016"><ele>51.0</ele><time>2026-05-04T12:53:19.62Z</time></trkpt><trkpt lat="42.8235513" lon="17.7379904"><ele>48.0</ele><time>2026-05-04T12:53:20.62Z</time></trkpt><trkpt lat="42.8236916" lon="17.7376774"><ele>47.0</ele><time>2026-05-04T12:53:21.62Z</time></trkpt><trkpt lat="42.8238311" lon="17.7373627"><ele>46.0</ele><time>2026-05-04T12:53:22.621Z</time></trkpt><trkpt lat="42.8239703" lon="17.7370455"><ele>44.5</ele><time>2026-05-04T12:53:23.621Z</time></trkpt><trkpt lat="42.8241086" lon="17.7367261"><ele>43.0</ele><time>2026-05-04T12:53:24.621Z</time></trkpt><trkpt lat="42.8242463" lon="17.7364115"><ele>42.0</ele><time>2026-05-04T12:53:25.621Z</time></trkpt><trkpt lat="42.8243836" lon="17.7360977"><ele>41.0</ele><time>2026-05-04T12:53:26.62Z</time></trkpt><trkpt lat="42.8245209" lon="17.7357779"><ele>41.0</ele><time>2026-05-04T12:53:27.621Z</time></trkpt><trkpt lat="42.8246607" lon="17.7354656"><ele>41.0</ele><time>2026-05-04T12:53:28.62Z</time></trkpt><trkpt lat="42.8247933" lon="17.7351522"><ele>43.5</ele><time>2026-05-04T12:53:29.621Z</time></trkpt><trkpt lat="42.8249266" lon="17.734848"><ele>46.0</ele><time>2026-05-04T12:53:30.621Z</time></trkpt><trkpt lat="42.8250625" lon="17.7345447"><ele>46.0</ele><time>2026-05-04T12:53:31.621Z</time></trkpt><trkpt lat="42.8251934" lon="17.73424"><ele>46.0</ele><time>2026-05-04T12:53:32.62Z</time></trkpt><trkpt lat="42.8253233" lon="17.7339348"><ele>46.0</ele><time>2026-05-04T12:53:33.62Z</time></trkpt><trkpt lat="42.825453" lon="17.7336335"><ele>46.0</ele><time>2026-05-04T12:53:34.62Z</time></trkpt><trkpt lat="42.8255876" lon="17.7333368"><ele>47.0</ele><time>2026-05-04T12:53:35.621Z</time></trkpt><trkpt lat="42.8257178" lon="17.7330374"><ele>48.0</ele><time>2026-05-04T12:53:36.621Z</time></trkpt><trkpt lat="42.8258437" lon="17.7327469"><ele>47.5</ele><time>2026-05-04T12:53:37.621Z</time></trkpt><trkpt lat="42.825973" lon="17.7324525"><ele>47.0</ele><time>2026-05-04T12:53:38.621Z</time></trkpt><trkpt lat="42.8260986" lon="17.7321537"><ele>49.0</ele><time>2026-05-04T12:53:39.62Z</time></trkpt><trkpt lat="42.8262283" lon="17.7318598"><ele>51.0</ele><time>2026-05-04T12:53:40.62Z</time></trkpt><trkpt lat="42.8263591" lon="17.7315594"><ele>51.0</ele><time>2026-05-04T12:53:41.621Z</time></trkpt><trkpt lat="42.8264904" lon="17.7312658"><ele>51.0</ele><time>2026-05-04T12:53:42.621Z</time></trkpt><trkpt lat="42.8266185" lon="17.7309633"><ele>53.0</ele><time>2026-05-04T12:53:43.62Z</time></trkpt><trkpt lat="42.8267481" lon="17.7306631"><ele>55.0</ele><time>2026-05-04T12:53:44.62Z</time></trkpt><trkpt lat="42.8268807" lon="17.7303654"><ele>54.5</ele><time>2026-05-04T12:53:45.62Z</time></trkpt><trkpt lat="42.8270085" lon="17.7300712"><ele>54.0</ele><time>2026-05-04T12:53:46.62Z</time></trkpt><trkpt lat="42.8271379" lon="17.7297816"><ele>54.0</ele><time>2026-05-04T12:53:47.62Z</time></trkpt><trkpt lat="42.8272642" lon="17.7294885"><ele>54.0</ele><time>2026-05-04T12:53:48.621Z</time></trkpt><trkpt lat="42.8273878" lon="17.7292025"><ele>54.66666666666667</ele><time>2026-05-04T12:53:49.62Z</time></trkpt><trkpt lat="42.8274926" lon="17.7289581"><ele>55.333333333333336</ele><time>2026-05-04T12:53:50.621Z</time></trkpt><trkpt lat="42.8275896" lon="17.7287386"><ele>56.0</ele><time>2026-05-04T12:53:51.62Z</time></trkpt><trkpt lat="42.8276851" lon="17.7285326"><ele>56.0</ele><time>2026-05-04T12:53:52.62Z</time></trkpt><trkpt lat="42.8277737" lon="17.7283276"><ele>56.0</ele><time>2026-05-04T12:53:53.621Z</time></trkpt><trkpt lat="42.8278663" lon="17.7281147"><ele>56.0</ele><time>2026-05-04T12:53:54.62Z</time></trkpt><trkpt lat="42.8279616" lon="17.727902"><ele>58.0</ele><time>2026-05-04T12:53:55.62Z</time></trkpt><trkpt lat="42.8280514" lon="17.7276867"><ele>60.0</ele><time>2026-05-04T12:53:56.62Z</time></trkpt><trkpt lat="42.8281452" lon="17.7274734"><ele>62.0</ele><time>2026-05-04T12:53:57.621Z</time></trkpt><trkpt lat="42.828244" lon="17.7272483"><ele>62.0</ele><time>2026-05-04T12:53:58.621Z</time></trkpt><trkpt lat="42.8283414" lon="17.7270295"><ele>62.0</ele><time>2026-05-04T12:53:59.621Z</time></trkpt><trkpt lat="42.8284415" lon="17.7268059"><ele>62.0</ele><time>2026-05-04T12:54:00.62Z</time></trkpt><trkpt lat="42.8285388" lon="17.7265832"><ele>61.0</ele><time>2026-05-04T12:54:01.62Z</time></trkpt><trkpt lat="42.8286328" lon="17.7263579"><ele>60.0</ele><time>2026-05-04T12:54:02.621Z</time></trkpt><trkpt lat="42.8287305" lon="17.7261365"><ele>59.0</ele><time>2026-05-04T12:54:03.62Z</time></trkpt><trkpt lat="42.8288194" lon="17.7259009"><ele>59.0</ele><time>2026-05-04T12:54:04.621Z</time></trkpt><trkpt lat="42.8289118" lon="17.7256691"><ele>59.0</ele><time>2026-05-04T12:54:05.621Z</time></trkpt><trkpt lat="42.8290067" lon="17.7254381"><ele>59.0</ele><time>2026-05-04T12:54:06.62Z</time></trkpt><trkpt lat="42.8291003" lon="17.7252091"><ele>57.0</ele><time>2026-05-04T12:54:07.62Z</time></trkpt><trkpt lat="42.8291925" lon="17.7249808"><ele>55.0</ele><time>2026-05-04T12:54:08.621Z</time></trkpt><trkpt lat="42.8292819" lon="17.7247519"><ele>53.0</ele><time>2026-05-04T12:54:09.62Z</time></trkpt><trkpt lat="42.8293223" lon="17.7244796"><ele>59.0</ele><time>2026-05-04T12:54:10.621Z</time></trkpt><trkpt lat="42.8294055" lon="17.7242442"><ele>65.0</ele><time>2026-05-04T12:54:11.621Z</time></trkpt><trkpt lat="42.8269702" lon="17.7109918"><ele>55.66666666666667</ele><time>2026-05-04T12:55:11.621Z</time></trkpt><trkpt lat="42.8268389" lon="17.7108036"><ele>46.333333333333336</ele><time>2026-05-04T12:55:12.62Z</time></trkpt><trkpt lat="42.8266987" lon="17.7106069"><ele>37.0</ele><time>2026-05-04T12:55:13.62Z</time></trkpt><trkpt lat="42.8265541" lon="17.7104009"><ele>27.666666666666668</ele><time>2026-05-04T12:55:14.62Z</time></trkpt><trkpt lat="42.8264067" lon="17.7101998"><ele>18.333333333333336</ele><time>2026-05-04T12:55:15.621Z</time></trkpt><trkpt lat="42.8262572" lon="17.7099812"><ele>9.0</ele><time>2026-05-04T12:55:16.62Z</time></trkpt><trkpt lat="42.8261068" lon="17.7097623"><ele>6.666666666666667</ele><time>2026-05-04T12:55:17.621Z</time></trkpt><trkpt lat="42.8259558" lon="17.7095395"><ele>4.333333333333333</ele><time>2026-05-04T12:55:18.621Z</time></trkpt><trkpt lat="42.8258056" lon="17.7093235"><ele>2.0</ele><time>2026-05-04T12:55:19.62Z</time></trkpt><trkpt lat="42.8256548" lon="17.70911"><ele>1.3333333333333333</ele><time>2026-05-04T12:55:20.62Z</time></trkpt><trkpt lat="42.8255009" lon="17.7088934"><ele>0.6666666666666666</ele><time>2026-05-04T12:55:21.621Z</time></trkpt><trkpt lat="42.8253524" lon="17.7086818"><ele>0.0</ele><time>2026-05-04T12:55:22.621Z</time></trkpt><trkpt lat="42.8252077" lon="17.7084786"><ele>0.0</ele><time>2026-05-04T12:55:23.62Z</time></trkpt><trkpt lat="42.8250687" lon="17.7082785"><ele>0.0</ele><time>2026-05-04T12:55:24.62Z</time></trkpt><trkpt lat="42.8249376" lon="17.7080954"><ele>0.0</ele><time>2026-05-04T12:55:25.621Z</time></trkpt><trkpt lat="42.8248134" lon="17.7079189"><ele>0.6666666666666666</ele><time>2026-05-04T12:55:26.621Z</time></trkpt><trkpt lat="42.8246927" lon="17.707739"><ele>1.3333333333333333</ele><time>2026-05-04T12:55:27.62Z</time></trkpt><trkpt lat="42.8245765" lon="17.7075659"><ele>2.0</ele><time>2026-05-04T12:55:28.621Z</time></trkpt><trkpt lat="42.8244625" lon="17.7073994"><ele>2.0</ele><time>2026-05-04T12:55:29.621Z</time></trkpt><trkpt lat="42.8243478" lon="17.7072383"><ele>2.0</ele><time>2026-05-04T12:55:30.621Z</time></trkpt><trkpt lat="42.8242364" lon="17.7070785"><ele>2.0</ele><time>2026-05-04T12:55:31.621Z</time></trkpt><trkpt lat="42.8241265" lon="17.7069186"><ele>15.0</ele><time>2026-05-04T12:55:32.62Z</time></trkpt><trkpt lat="42.8240109" lon="17.706755"><ele>28.0</ele><time>2026-05-04T12:55:33.62Z</time></trkpt><trkpt lat="42.8238949" lon="17.7065958"><ele>41.0</ele><time>2026-05-04T12:55:34.621Z</time></trkpt><trkpt lat="42.823779" lon="17.706437"><ele>52.0</ele><time>2026-05-04T12:55:35.621Z</time></trkpt><trkpt lat="42.8164519" lon="17.6949856"><ele>52.0</ele><time>2026-05-04T12:56:36.621Z</time></trkpt><trkpt lat="42.8163741" lon="17.6947574"><ele>52.0</ele><time>2026-05-04T12:56:37.621Z</time></trkpt><trkpt lat="42.8162977" lon="17.6945318"><ele>52.0</ele><time>2026-05-04T12:56:38.62Z</time></trkpt><trkpt lat="42.8162286" lon="17.6942817"><ele>51.33333333333333</ele><time>2026-05-04T12:56:39.621Z</time></trkpt><trkpt lat="42.8161661" lon="17.6940496"><ele>50.66666666666667</ele><time>2026-05-04T12:56:40.621Z</time></trkpt><trkpt lat="42.8161075" lon="17.693818"><ele>50.0</ele><time>2026-05-04T12:56:41.62Z</time></trkpt><trkpt lat="42.8160439" lon="17.6935712"><ele>49.66666666666667</ele><time>2026-05-04T12:56:42.62Z</time></trkpt><trkpt lat="42.8159863" lon="17.6933292"><ele>49.33333333333333</ele><time>2026-05-04T12:56:43.62Z</time></trkpt><trkpt lat="42.8159359" lon="17.6930812"><ele>49.0</ele><time>2026-05-04T12:56:44.62Z</time></trkpt><trkpt lat="42.8158881" lon="17.6928252"><ele>48.0</ele><time>2026-05-04T12:56:45.621Z</time></trkpt><trkpt lat="42.8158493" lon="17.6925821"><ele>47.0</ele><time>2026-05-04T12:56:46.62Z</time></trkpt><trkpt lat="42.815809" lon="17.6923225"><ele>46.0</ele><time>2026-05-04T12:56:47.621Z</time></trkpt><trkpt lat="42.8157712" lon="17.6920608"><ele>45.0</ele><time>2026-05-04T12:56:48.62Z</time></trkpt><trkpt lat="42.815737" lon="17.6917971"><ele>44.0</ele><time>2026-05-04T12:56:49.62Z</time></trkpt><trkpt lat="42.8157061" lon="17.6915314"><ele>43.0</ele><time>2026-05-04T12:56:50.621Z</time></trkpt><trkpt lat="42.8156794" lon="17.691261"><ele>41.66666666666667</ele><time>2026-05-04T12:56:51.62Z</time></trkpt><trkpt lat="42.8156604" lon="17.6909906"><ele>40.333333333333336</ele><time>2026-05-04T12:56:52.62Z</time></trkpt><trkpt lat="42.815646" lon="17.6907161"><ele>39.0</ele><time>2026-05-04T12:56:53.62Z</time></trkpt><trkpt lat="42.8156345" lon="17.6904379"><ele>40.0</ele><time>2026-05-04T12:56:54.621Z</time></trkpt><trkpt lat="42.8156286" lon="17.6901577"><ele>41.0</ele><time>2026-05-04T12:56:55.621Z</time></trkpt><trkpt lat="42.8156255" lon="17.6898768"><ele>42.0</ele><time>2026-05-04T12:56:56.62Z</time></trkpt><trkpt lat="42.8156283" lon="17.6895902"><ele>43.333333333333336</ele><time>2026-05-04T12:56:57.62Z</time></trkpt><trkpt lat="42.8156361" lon="17.6893031"><ele>44.66666666666667</ele><time>2026-05-04T12:56:58.62Z</time></trkpt><trkpt lat="42.8156476" lon="17.6890121"><ele>46.0</ele><time>2026-05-04T12:56:59.62Z</time></trkpt><trkpt lat="42.8156658" lon="17.688726"><ele>48.333333333333336</ele><time>2026-05-04T12:57:00.62Z</time></trkpt><trkpt lat="42.8156903" lon="17.6884345"><ele>50.66666666666667</ele><time>2026-05-04T12:57:01.621Z</time></trkpt><trkpt lat="42.8157191" lon="17.6881373"><ele>53.0</ele><time>2026-05-04T12:57:02.621Z</time></trkpt><trkpt lat="42.8157559" lon="17.6878427"><ele>52.333333333333336</ele><time>2026-05-04T12:57:03.621Z</time></trkpt><trkpt lat="42.8157978" lon="17.6875467"><ele>51.66666666666667</ele><time>2026-05-04T12:57:04.62Z</time></trkpt><trkpt lat="42.8158474" lon="17.6872434"><ele>51.0</ele><time>2026-05-04T12:57:05.621Z</time></trkpt><trkpt lat="42.815902" lon="17.6869441"><ele>48.5</ele><time>2026-05-04T12:57:06.62Z</time></trkpt><trkpt lat="42.8159603" lon="17.6866464"><ele>46.0</ele><time>2026-05-04T12:57:07.62Z</time></trkpt><trkpt lat="42.8160217" lon="17.6863507"><ele>41.0</ele><time>2026-05-04T12:57:08.62Z</time></trkpt><trkpt lat="42.8160894" lon="17.6860587"><ele>36.0</ele><time>2026-05-04T12:57:09.621Z</time></trkpt><trkpt lat="42.8161657" lon="17.685767"><ele>36.0</ele><time>2026-05-04T12:57:10.62Z</time></trkpt><trkpt lat="42.8162495" lon="17.685476"><ele>36.0</ele><time>2026-05-04T12:57:11.621Z</time></trkpt><trkpt lat="42.8163352" lon="17.6851854"><ele>39.0</ele><time>2026-05-04T12:57:12.62Z</time></trkpt><trkpt lat="42.8164272" lon="17.684901"><ele>42.0</ele><time>2026-05-04T12:57:13.62Z</time></trkpt><trkpt lat="42.8165228" lon="17.6846172"><ele>46.5</ele><time>2026-05-04T12:57:14.621Z</time></trkpt><trkpt lat="42.8166262" lon="17.6843386"><ele>51.0</ele><time>2026-05-04T12:57:15.62Z</time></trkpt><trkpt lat="42.8167334" lon="17.6840642"><ele>51.5</ele><time>2026-05-04T12:57:16.62Z</time></trkpt><trkpt lat="42.8168464" lon="17.6837932"><ele>52.0</ele><time>2026-05-04T12:57:17.621Z</time></trkpt><trkpt lat="42.8169644" lon="17.6835251"><ele>54.0</ele><time>2026-05-04T12:57:18.621Z</time></trkpt><trkpt lat="42.8170884" lon="17.683264"><ele>56.0</ele><time>2026-05-04T12:57:19.62Z</time></trkpt><trkpt lat="42.817219" lon="17.6830034"><ele>60.5</ele><time>2026-05-04T12:57:20.62Z</time></trkpt><trkpt lat="42.8173549" lon="17.6827461"><ele>65.0</ele><time>2026-05-04T12:57:21.62Z</time></trkpt><trkpt lat="42.8174934" lon="17.6824929"><ele>65.0</ele><time>2026-05-04T12:57:22.621Z</time></trkpt><trkpt lat="42.817634" lon="17.6822418"><ele>65.0</ele><time>2026-05-04T12:57:23.621Z</time></trkpt><trkpt lat="42.8177757" lon="17.681996"><ele>59.5</ele><time>2026-05-04T12:57:24.621Z</time></trkpt><trkpt lat="42.8179158" lon="17.6817524"><ele>54.0</ele><time>2026-05-04T12:57:25.62Z</time></trkpt><trkpt lat="42.8180548" lon="17.6815086"><ele>54.0</ele><time>2026-05-04T12:57:26.62Z</time></trkpt><trkpt lat="42.8181929" lon="17.6812649"><ele>54.0</ele><time>2026-05-04T12:57:27.621Z</time></trkpt><trkpt lat="42.8183279" lon="17.6810184"><ele>53.0</ele><time>2026-05-04T12:57:28.62Z</time></trkpt><trkpt lat="42.8184594" lon="17.6807696"><ele>52.0</ele><time>2026-05-04T12:57:29.621Z</time></trkpt><trkpt lat="42.8185865" lon="17.6805174"><ele>51.0</ele><time>2026-05-04T12:57:30.62Z</time></trkpt><trkpt lat="42.8187095" lon="17.6802606"><ele>54.0</ele><time>2026-05-04T12:57:31.621Z</time></trkpt><trkpt lat="42.8188269" lon="17.6799994"><ele>57.0</ele><time>2026-05-04T12:57:32.621Z</time></trkpt><trkpt lat="42.8189393" lon="17.6797281"><ele>57.0</ele><time>2026-05-04T12:57:33.621Z</time></trkpt><trkpt lat="42.8190458" lon="17.6794579"><ele>57.0</ele><time>2026-05-04T12:57:34.62Z</time></trkpt><trkpt lat="42.8191534" lon="17.6791866"><ele>59.5</ele><time>2026-05-04T12:57:35.62Z</time></trkpt><trkpt lat="42.8192581" lon="17.6789096"><ele>62.0</ele><time>2026-05-04T12:57:36.621Z</time></trkpt><trkpt lat="42.8193576" lon="17.6786347"><ele>66.0</ele><time>2026-05-04T12:57:37.621Z</time></trkpt><trkpt lat="42.8194459" lon="17.6783524"><ele>70.0</ele><time>2026-05-04T12:57:38.621Z</time></trkpt><trkpt lat="42.8195321" lon="17.6780617"><ele>70.0</ele><time>2026-05-04T12:57:39.621Z</time></trkpt><trkpt lat="42.8196057" lon="17.6777708"><ele>70.0</ele><time>2026-05-04T12:57:40.62Z</time></trkpt><trkpt lat="42.8196781" lon="17.6774819"><ele>73.0</ele><time>2026-05-04T12:57:41.621Z</time></trkpt><trkpt lat="42.8197492" lon="17.6771898"><ele>76.0</ele><time>2026-05-04T12:57:42.621Z</time></trkpt><trkpt lat="42.8198139" lon="17.6768949"><ele>78.66666666666666</ele><time>2026-05-04T12:57:43.62Z</time></trkpt><trkpt lat="42.8198831" lon="17.6766043"><ele>81.33333333333333</ele><time>2026-05-04T12:57:44.621Z</time></trkpt><trkpt lat="42.8199494" lon="17.6763138"><ele>84.0</ele><time>2026-05-04T12:57:45.621Z</time></trkpt><trkpt lat="42.8200166" lon="17.6760198"><ele>84.0</ele><time>2026-05-04T12:57:46.621Z</time></trkpt><trkpt lat="42.8200887" lon="17.6757282"><ele>84.0</ele><time>2026-05-04T12:57:47.621Z</time></trkpt><trkpt lat="42.8201624" lon="17.6754331"><ele>94.5</ele><time>2026-05-04T12:57:48.621Z</time></trkpt><trkpt lat="42.8202357" lon="17.6751421"><ele>105.0</ele><time>2026-05-04T12:57:49.621Z</time></trkpt><trkpt lat="42.8203153" lon="17.6748489"><ele>105.0</ele><time>2026-05-04T12:57:50.62Z</time></trkpt><trkpt lat="42.8204008" lon="17.6745646"><ele>105.0</ele><time>2026-05-04T12:57:51.621Z</time></trkpt><trkpt lat="42.8204953" lon="17.6742824"><ele>100.0</ele><time>2026-05-04T12:57:52.62Z</time></trkpt><trkpt lat="42.8205963" lon="17.6740085"><ele>95.0</ele><time>2026-05-04T12:57:53.62Z</time></trkpt><trkpt lat="42.8207018" lon="17.6737251"><ele>89.0</ele><time>2026-05-04T12:57:54.621Z</time></trkpt><trkpt lat="42.8208097" lon="17.6734402"><ele>83.0</ele><time>2026-05-04T12:57:55.621Z</time></trkpt><trkpt lat="42.8209252" lon="17.6731627"><ele>83.0</ele><time>2026-05-04T12:57:56.621Z</time></trkpt><trkpt lat="42.8210488" lon="17.6728872"><ele>83.0</ele><time>2026-05-04T12:57:57.62Z</time></trkpt><trkpt lat="42.8211798" lon="17.6726145"><ele>83.0</ele><time>2026-05-04T12:57:58.62Z</time></trkpt><trkpt lat="42.8213118" lon="17.6723506"><ele>83.0</ele><time>2026-05-04T12:57:59.621Z</time></trkpt><trkpt lat="42.8214527" lon="17.6720825"><ele>79.5</ele><time>2026-05-04T12:58:00.621Z</time></trkpt><trkpt lat="42.8216016" lon="17.671814"><ele>76.0</ele><time>2026-05-04T12:58:01.62Z</time></trkpt><trkpt lat="42.8217512" lon="17.6715472"><ele>70.5</ele><time>2026-05-04T12:58:02.62Z</time></trkpt><trkpt lat="42.8219028" lon="17.6712781"><ele>65.0</ele><time>2026-05-04T12:58:03.621Z</time></trkpt><trkpt lat="42.8220565" lon="17.671008"><ele>61.0</ele><time>2026-05-04T12:58:04.621Z</time></trkpt><trkpt lat="42.8222122" lon="17.6707308"><ele>57.0</ele><time>2026-05-04T12:58:05.62Z</time></trkpt><trkpt lat="42.8223676" lon="17.6704468"><ele>58.5</ele><time>2026-05-04T12:58:06.621Z</time></trkpt><trkpt lat="42.8225223" lon="17.6701808"><ele>60.0</ele><time>2026-05-04T12:58:07.62Z</time></trkpt><trkpt lat="42.8226754" lon="17.6699104"><ele>61.0</ele><time>2026-05-04T12:58:08.62Z</time></trkpt><trkpt lat="42.8228271" lon="17.6696402"><ele>62.0</ele><time>2026-05-04T12:58:09.62Z</time></trkpt><trkpt lat="42.8229785" lon="17.6693653"><ele>67.0</ele><time>2026-05-04T12:58:10.621Z</time></trkpt><trkpt lat="42.8231344" lon="17.6690965"><ele>72.0</ele><time>2026-05-04T12:58:11.621Z</time></trkpt><trkpt lat="42.8232901" lon="17.6688328"><ele>72.0</ele><time>2026-05-04T12:58:12.62Z</time></trkpt><trkpt lat="42.8234459" lon="17.6685694"><ele>72.0</ele><time>2026-05-04T12:58:13.62Z</time></trkpt><trkpt lat="42.8235933" lon="17.6683042"><ele>72.0</ele><time>2026-05-04T12:58:14.62Z</time></trkpt><trkpt lat="42.8237424" lon="17.6680325"><ele>72.0</ele><time>2026-05-04T12:58:15.621Z</time></trkpt><trkpt lat="42.8238904" lon="17.6677538"><ele>80.5</ele><time>2026-05-04T12:58:16.621Z</time></trkpt><trkpt lat="42.8240358" lon="17.6674823"><ele>89.0</ele><time>2026-05-04T12:58:17.62Z</time></trkpt><trkpt lat="42.8241719" lon="17.6672061"><ele>81.5</ele><time>2026-05-04T12:58:18.62Z</time></trkpt><trkpt lat="42.8243098" lon="17.6669311"><ele>74.0</ele><time>2026-05-04T12:58:19.621Z</time></trkpt><trkpt lat="42.8244386" lon="17.6666613"><ele>74.0</ele><time>2026-05-04T12:58:20.62Z</time></trkpt><trkpt lat="42.8245628" lon="17.6663892"><ele>74.0</ele><time>2026-05-04T12:58:21.62Z</time></trkpt><trkpt lat="42.8246853" lon="17.6661111"><ele>79.5</ele><time>2026-05-04T12:58:22.621Z</time></trkpt><trkpt lat="42.8248024" lon="17.6658279"><ele>85.0</ele><time>2026-05-04T12:58:23.62Z</time></trkpt><trkpt lat="42.8249169" lon="17.6655418"><ele>91.5</ele><time>2026-05-04T12:58:24.62Z</time></trkpt><trkpt lat="42.825035" lon="17.6652525"><ele>98.0</ele><time>2026-05-04T12:58:25.62Z</time></trkpt><trkpt lat="42.8251368" lon="17.664957"><ele>89.5</ele><time>2026-05-04T12:58:26.621Z</time></trkpt><trkpt lat="42.8252379" lon="17.6646549"><ele>81.0</ele><time>2026-05-04T12:58:27.62Z</time></trkpt><trkpt lat="42.8253371" lon="17.6643573"><ele>81.0</ele><time>2026-05-04T12:58:28.62Z</time></trkpt><trkpt lat="42.8254246" lon="17.6640503"><ele>81.0</ele><time>2026-05-04T12:58:29.621Z</time></trkpt><trkpt lat="42.8255097" lon="17.6637439"><ele>84.0</ele><time>2026-05-04T12:58:30.62Z</time></trkpt><trkpt lat="42.8255899" lon="17.6634354"><ele>87.0</ele><time>2026-05-04T12:58:31.621Z</time></trkpt><trkpt lat="42.8256754" lon="17.6631197"><ele>87.0</ele><time>2026-05-04T12:58:32.621Z</time></trkpt><trkpt lat="42.8257509" lon="17.6628061"><ele>87.0</ele><time>2026-05-04T12:58:33.621Z</time></trkpt><trkpt lat="42.8258289" lon="17.6624875"><ele>92.5</ele><time>2026-05-04T12:58:34.62Z</time></trkpt><trkpt lat="42.8259009" lon="17.6621662"><ele>98.0</ele><time>2026-05-04T12:58:35.621Z</time></trkpt><trkpt lat="42.8259721" lon="17.6618431"><ele>102.0</ele><time>2026-05-04T12:58:36.621Z</time></trkpt><trkpt lat="42.8260441" lon="17.6615209"><ele>106.0</ele><time>2026-05-04T12:58:37.621Z</time></trkpt><trkpt lat="42.8261172" lon="17.6611993"><ele>102.0</ele><time>2026-05-04T12:58:38.62Z</time></trkpt><trkpt lat="42.8261912" lon="17.6608774"><ele>98.0</ele><time>2026-05-04T12:58:39.621Z</time></trkpt><trkpt lat="42.8262654" lon="17.6605581"><ele>98.0</ele><time>2026-05-04T12:58:40.621Z</time></trkpt><trkpt lat="42.8263452" lon="17.6602403"><ele>98.0</ele><time>2026-05-04T12:58:41.621Z</time></trkpt><trkpt lat="42.8264264" lon="17.6599225"><ele>98.0</ele><time>2026-05-04T12:58:42.621Z</time></trkpt><trkpt lat="42.8265192" lon="17.659615"><ele>98.0</ele><time>2026-05-04T12:58:43.621Z</time></trkpt><trkpt lat="42.8266136" lon="17.6593111"><ele>101.0</ele><time>2026-05-04T12:58:44.62Z</time></trkpt><trkpt lat="42.8267135" lon="17.6590062"><ele>104.0</ele><time>2026-05-04T12:58:45.62Z</time></trkpt><trkpt lat="42.8268233" lon="17.6587095"><ele>107.5</ele><time>2026-05-04T12:58:46.62Z</time></trkpt><trkpt lat="42.8269352" lon="17.6584142"><ele>111.0</ele><time>2026-05-04T12:58:47.621Z</time></trkpt><trkpt lat="42.82705" lon="17.65812"><ele>111.0</ele><time>2026-05-04T12:58:48.621Z</time></trkpt><trkpt lat="42.8271619" lon="17.6578322"><ele>111.0</ele><time>2026-05-04T12:58:49.62Z</time></trkpt><trkpt lat="42.8272772" lon="17.6575356"><ele>111.5</ele><time>2026-05-04T12:58:50.62Z</time></trkpt><trkpt lat="42.8273926" lon="17.6572498"><ele>112.0</ele><time>2026-05-04T12:58:51.621Z</time></trkpt><trkpt lat="42.8275107" lon="17.656964"><ele>113.0</ele><time>2026-05-04T12:58:52.62Z</time></trkpt><trkpt lat="42.8276271" lon="17.6566839"><ele>114.0</ele><time>2026-05-04T12:58:53.621Z</time></trkpt><trkpt lat="42.827745" lon="17.6563945"><ele>114.0</ele><time>2026-05-04T12:58:54.621Z</time></trkpt><trkpt lat="42.8278538" lon="17.6561152"><ele>114.0</ele><time>2026-05-04T12:58:55.621Z</time></trkpt><trkpt lat="42.8279612" lon="17.6558247"><ele>114.0</ele><time>2026-05-04T12:58:56.621Z</time></trkpt><trkpt lat="42.8280674" lon="17.6555433"><ele>114.0</ele><time>2026-05-04T12:58:57.62Z</time></trkpt><trkpt lat="42.8281692" lon="17.6552545"><ele>119.0</ele><time>2026-05-04T12:58:58.62Z</time></trkpt><trkpt lat="42.8282672" lon="17.6549627"><ele>124.0</ele><time>2026-05-04T12:58:59.621Z</time></trkpt><trkpt lat="42.8283623" lon="17.6546739"><ele>124.5</ele><time>2026-05-04T12:59:00.62Z</time></trkpt><trkpt lat="42.8284501" lon="17.6543825"><ele>125.0</ele><time>2026-05-04T12:59:01.621Z</time></trkpt><trkpt lat="42.8285394" lon="17.6540932"><ele>125.0</ele><time>2026-05-04T12:59:02.62Z</time></trkpt><trkpt lat="42.8286229" lon="17.6537956"><ele>125.0</ele><time>2026-05-04T12:59:03.62Z</time></trkpt><trkpt lat="42.8287067" lon="17.6534955"><ele>123.5</ele><time>2026-05-04T12:59:04.621Z</time></trkpt><trkpt lat="42.8287874" lon="17.6531978"><ele>122.0</ele><time>2026-05-04T12:59:05.62Z</time></trkpt><trkpt lat="42.8288675" lon="17.6528997"><ele>123.0</ele><time>2026-05-04T12:59:06.621Z</time></trkpt><trkpt lat="42.8289441" lon="17.6526009"><ele>124.0</ele><time>2026-05-04T12:59:07.62Z</time></trkpt><trkpt lat="42.8290239" lon="17.652305"><ele>124.0</ele><time>2026-05-04T12:59:08.621Z</time></trkpt><trkpt lat="42.829104" lon="17.6520086"><ele>124.0</ele><time>2026-05-04T12:59:09.62Z</time></trkpt><trkpt lat="42.8291821" lon="17.6517055"><ele>125.5</ele><time>2026-05-04T12:59:10.621Z</time></trkpt><trkpt lat="42.8292558" lon="17.6514173"><ele>127.0</ele><time>2026-05-04T12:59:11.621Z</time></trkpt><trkpt lat="42.8293369" lon="17.6511205"><ele>127.0</ele><time>2026-05-04T12:59:12.62Z</time></trkpt><trkpt lat="42.8294185" lon="17.6508255"><ele>127.0</ele><time>2026-05-04T12:59:13.62Z</time></trkpt><trkpt lat="42.8295016" lon="17.6505357"><ele>128.5</ele><time>2026-05-04T12:59:14.621Z</time></trkpt><trkpt lat="42.8295934" lon="17.6502436"><ele>130.0</ele><time>2026-05-04T12:59:15.621Z</time></trkpt><trkpt lat="42.8296824" lon="17.6499502"><ele>130.0</ele><time>2026-05-04T12:59:16.62Z</time></trkpt><trkpt lat="42.8297736" lon="17.6496546"><ele>130.0</ele><time>2026-05-04T12:59:17.621Z</time></trkpt><trkpt lat="42.8298708" lon="17.6493605"><ele>134.5</ele><time>2026-05-04T12:59:18.621Z</time></trkpt><trkpt lat="42.8299787" lon="17.6490718"><ele>139.0</ele><time>2026-05-04T12:59:19.621Z</time></trkpt><trkpt lat="42.8300859" lon="17.648777"><ele>138.0</ele><time>2026-05-04T12:59:20.621Z</time></trkpt><trkpt lat="42.8301992" lon="17.6484854"><ele>137.0</ele><time>2026-05-04T12:59:21.62Z</time></trkpt><trkpt lat="42.8303081" lon="17.6481937"><ele>137.0</ele><time>2026-05-04T12:59:22.62Z</time></trkpt><trkpt lat="42.8304212" lon="17.6479026"><ele>137.0</ele><time>2026-05-04T12:59:23.62Z</time></trkpt><trkpt lat="42.8305329" lon="17.6476149"><ele>137.5</ele><time>2026-05-04T12:59:24.621Z</time></trkpt><trkpt lat="42.8306416" lon="17.6473243"><ele>138.0</ele><time>2026-05-04T12:59:25.621Z</time></trkpt><trkpt lat="42.8307543" lon="17.6470287"><ele>142.5</ele><time>2026-05-04T12:59:26.621Z</time></trkpt><trkpt lat="42.8308672" lon="17.6467418"><ele>147.0</ele><time>2026-05-04T12:59:27.62Z</time></trkpt><trkpt lat="42.8309794" lon="17.6464508"><ele>147.0</ele><time>2026-05-04T12:59:28.62Z</time></trkpt><trkpt lat="42.8310878" lon="17.6461668"><ele>147.0</ele><time>2026-05-04T12:59:29.62Z</time></trkpt><trkpt lat="42.8311959" lon="17.6458775"><ele>146.5</ele><time>2026-05-04T12:59:30.621Z</time></trkpt><trkpt lat="42.8313084" lon="17.6455939"><ele>146.0</ele><time>2026-05-04T12:59:31.621Z</time></trkpt><trkpt lat="42.8314191" lon="17.6453146"><ele>147.5</ele><time>2026-05-04T12:59:32.62Z</time></trkpt><trkpt lat="42.8315284" lon="17.6450328"><ele>149.0</ele><time>2026-05-04T12:59:33.621Z</time></trkpt><trkpt lat="42.8316337" lon="17.6447543"><ele>149.0</ele><time>2026-05-04T12:59:34.621Z</time></trkpt><trkpt lat="42.8317408" lon="17.6444705"><ele>149.0</ele><time>2026-05-04T12:59:35.62Z</time></trkpt><trkpt lat="42.8318484" lon="17.6441878"><ele>152.0</ele><time>2026-05-04T12:59:36.621Z</time></trkpt><trkpt lat="42.8319515" lon="17.6439174"><ele>155.0</ele><time>2026-05-04T12:59:37.62Z</time></trkpt><trkpt lat="42.8320588" lon="17.6436404"><ele>154.5</ele><time>2026-05-04T12:59:38.62Z</time></trkpt><trkpt lat="42.8321704" lon="17.6433629"><ele>154.0</ele><time>2026-05-04T12:59:39.621Z</time></trkpt><trkpt lat="42.8322804" lon="17.643081"><ele>154.0</ele><time>2026-05-04T12:59:40.621Z</time></trkpt><trkpt lat="42.8323905" lon="17.6427987"><ele>154.0</ele><time>2026-05-04T12:59:41.62Z</time></trkpt><trkpt lat="42.8325003" lon="17.6425156"><ele>155.0</ele><time>2026-05-04T12:59:42.62Z</time></trkpt><trkpt lat="42.8326176" lon="17.6422398"><ele>156.0</ele><time>2026-05-04T12:59:43.621Z</time></trkpt><trkpt lat="42.832734" lon="17.6419579"><ele>156.0</ele><time>2026-05-04T12:59:44.62Z</time></trkpt><trkpt lat="42.832851" lon="17.6416728"><ele>156.0</ele><time>2026-05-04T12:59:45.621Z</time></trkpt><trkpt lat="42.8329628" lon="17.6413792"><ele>158.0</ele><time>2026-05-04T12:59:46.621Z</time></trkpt><trkpt lat="42.8330786" lon="17.6410817"><ele>160.0</ele><time>2026-05-04T12:59:47.621Z</time></trkpt><trkpt lat="42.833192" lon="17.640782"><ele>160.0</ele><time>2026-05-04T12:59:48.621Z</time></trkpt><trkpt lat="42.8333084" lon="17.6404833"><ele>160.0</ele><time>2026-05-04T12:59:49.621Z</time></trkpt><trkpt lat="42.8334206" lon="17.6401905"><ele>162.5</ele><time>2026-05-04T12:59:50.62Z</time></trkpt><trkpt lat="42.8335344" lon="17.6398867"><ele>165.0</ele><time>2026-05-04T12:59:51.621Z</time></trkpt><trkpt lat="42.8336458" lon="17.6395902"><ele>166.5</ele><time>2026-05-04T12:59:52.62Z</time></trkpt><trkpt lat="42.8337617" lon="17.6393019"><ele>168.0</ele><time>2026-05-04T12:59:53.621Z</time></trkpt><trkpt lat="42.8338727" lon="17.6390067"><ele>168.0</ele><time>2026-05-04T12:59:54.621Z</time></trkpt><trkpt lat="42.833986" lon="17.6387152"><ele>168.0</ele><time>2026-05-04T12:59:55.62Z</time></trkpt><trkpt lat="42.8340945" lon="17.63843"><ele>171.0</ele><time>2026-05-04T12:59:56.62Z</time></trkpt><trkpt lat="42.8342007" lon="17.6381489"><ele>174.0</ele><time>2026-05-04T12:59:57.62Z</time></trkpt><trkpt lat="42.8343097" lon="17.6378641"><ele>176.0</ele><time>2026-05-04T12:59:58.62Z</time></trkpt><trkpt lat="42.8344213" lon="17.6375873"><ele>178.0</ele><time>2026-05-04T12:59:59.62Z</time></trkpt><trkpt lat="42.8345298" lon="17.6373092"><ele>178.0</ele><time>2026-05-04T13:00:00.621Z</time></trkpt><trkpt lat="42.8346372" lon="17.6370314"><ele>178.0</ele><time>2026-05-04T13:00:01.621Z</time></trkpt><trkpt lat="42.8347435" lon="17.636747"><ele>179.0</ele><time>2026-05-04T13:00:02.62Z</time></trkpt><trkpt lat="42.834856" lon="17.6364578"><ele>180.0</ele><time>2026-05-04T13:00:03.621Z</time></trkpt><trkpt lat="42.8349665" lon="17.6361658"><ele>183.5</ele><time>2026-05-04T13:00:04.62Z</time></trkpt><trkpt lat="42.8350817" lon="17.6358676"><ele>187.0</ele><time>2026-05-04T13:00:05.621Z</time></trkpt><trkpt lat="42.8352" lon="17.6355718"><ele>188.5</ele><time>2026-05-04T13:00:06.621Z</time></trkpt><trkpt lat="42.8353119" lon="17.6352743"><ele>190.0</ele><time>2026-05-04T13:00:07.621Z</time></trkpt><trkpt lat="42.8354288" lon="17.6349738"><ele>190.0</ele><time>2026-05-04T13:00:08.621Z</time></trkpt><trkpt lat="42.8355475" lon="17.6346722"><ele>190.0</ele><time>2026-05-04T13:00:09.62Z</time></trkpt><trkpt lat="42.8356628" lon="17.6343722"><ele>190.0</ele><time>2026-05-04T13:00:10.62Z</time></trkpt><trkpt lat="42.8357788" lon="17.634067"><ele>190.0</ele><time>2026-05-04T13:00:11.621Z</time></trkpt><trkpt lat="42.8358898" lon="17.633768"><ele>191.0</ele><time>2026-05-04T13:00:12.62Z</time></trkpt><trkpt lat="42.8360021" lon="17.6334729"><ele>192.0</ele><time>2026-05-04T13:00:13.62Z</time></trkpt><trkpt lat="42.8361167" lon="17.633177"><ele>192.0</ele><time>2026-05-04T13:00:14.62Z</time></trkpt><trkpt lat="42.8362257" lon="17.6328852"><ele>192.0</ele><time>2026-05-04T13:00:15.621Z</time></trkpt><trkpt lat="42.8363399" lon="17.632598"><ele>191.5</ele><time>2026-05-04T13:00:16.62Z</time></trkpt><trkpt lat="42.8364505" lon="17.6323113"><ele>191.0</ele><time>2026-05-04T13:00:17.621Z</time></trkpt><trkpt lat="42.8365581" lon="17.6320236"><ele>193.0</ele><time>2026-05-04T13:00:18.62Z</time></trkpt><trkpt lat="42.8366682" lon="17.6317361"><ele>195.0</ele><time>2026-05-04T13:00:19.621Z</time></trkpt><trkpt lat="42.8367794" lon="17.6314506"><ele>194.0</ele><time>2026-05-04T13:00:20.621Z</time></trkpt><trkpt lat="42.8368837" lon="17.6311685"><ele>193.0</ele><time>2026-05-04T13:00:21.621Z</time></trkpt><trkpt lat="42.8369885" lon="17.6308804"><ele>192.5</ele><time>2026-05-04T13:00:22.62Z</time></trkpt><trkpt lat="42.8370904" lon="17.6305928"><ele>192.0</ele><time>2026-05-04T13:00:23.621Z</time></trkpt><trkpt lat="42.8371938" lon="17.6303038"><ele>192.0</ele><time>2026-05-04T13:00:24.62Z</time></trkpt><trkpt lat="42.8372997" lon="17.630019"><ele>192.0</ele><time>2026-05-04T13:00:25.621Z</time></trkpt><trkpt lat="42.8374022" lon="17.629733"><ele>193.0</ele><time>2026-05-04T13:00:26.621Z</time></trkpt><trkpt lat="42.8375058" lon="17.6294417"><ele>194.0</ele><time>2026-05-04T13:00:27.62Z</time></trkpt><trkpt lat="42.8376105" lon="17.6291554"><ele>190.0</ele><time>2026-05-04T13:00:28.621Z</time></trkpt><trkpt lat="42.8377135" lon="17.628864"><ele>186.0</ele><time>2026-05-04T13:00:29.621Z</time></trkpt><trkpt lat="42.8378084" lon="17.6285618"><ele>186.0</ele><time>2026-05-04T13:00:30.62Z</time></trkpt><trkpt lat="42.8379033" lon="17.6282543"><ele>186.0</ele><time>2026-05-04T13:00:31.621Z</time></trkpt><trkpt lat="42.8379906" lon="17.6279405"><ele>185.5</ele><time>2026-05-04T13:00:32.621Z</time></trkpt><trkpt lat="42.8380728" lon="17.6276213"><ele>185.0</ele><time>2026-05-04T13:00:33.621Z</time></trkpt><trkpt lat="42.8381524" lon="17.6272948"><ele>185.5</ele><time>2026-05-04T13:00:34.621Z</time></trkpt><trkpt lat="42.8382245" lon="17.626966"><ele>186.0</ele><time>2026-05-04T13:00:35.621Z</time></trkpt><trkpt lat="42.8382901" lon="17.6266329"><ele>186.0</ele><time>2026-05-04T13:00:36.62Z</time></trkpt><trkpt lat="42.8383507" lon="17.6262993"><ele>186.0</ele><time>2026-05-04T13:00:37.621Z</time></trkpt><trkpt lat="42.8383986" lon="17.6259592"><ele>186.0</ele><time>2026-05-04T13:00:38.62Z</time></trkpt><trkpt lat="42.8384467" lon="17.6256106"><ele>186.0</ele><time>2026-05-04T13:00:39.62Z</time></trkpt><trkpt lat="42.838481" lon="17.6252646"><ele>181.0</ele><time>2026-05-04T13:00:40.621Z</time></trkpt><trkpt lat="42.8385145" lon="17.6249186"><ele>176.0</ele><time>2026-05-04T13:00:41.62Z</time></trkpt><trkpt lat="42.8385366" lon="17.6245704"><ele>176.5</ele><time>2026-05-04T13:00:42.62Z</time></trkpt><trkpt lat="42.8385514" lon="17.6242207"><ele>177.0</ele><time>2026-05-04T13:00:43.621Z</time></trkpt><trkpt lat="42.8385655" lon="17.623872"><ele>177.0</ele><time>2026-05-04T13:00:44.621Z</time></trkpt><trkpt lat="42.8385676" lon="17.6235231"><ele>177.0</ele><time>2026-05-04T13:00:45.621Z</time></trkpt><trkpt lat="42.8385638" lon="17.6231749"><ele>177.0</ele><time>2026-05-04T13:00:46.621Z</time></trkpt><trkpt lat="42.8385487" lon="17.6228199"><ele>177.0</ele><time>2026-05-04T13:00:47.62Z</time></trkpt><trkpt lat="42.8385245" lon="17.622474"><ele>177.0</ele><time>2026-05-04T13:00:48.62Z</time></trkpt><trkpt lat="42.8384962" lon="17.6221288"><ele>177.0</ele><time>2026-05-04T13:00:49.62Z</time></trkpt><trkpt lat="42.8384588" lon="17.6217822"><ele>178.0</ele><time>2026-05-04T13:00:50.621Z</time></trkpt><trkpt lat="42.8384216" lon="17.6214366"><ele>179.0</ele><time>2026-05-04T13:00:51.621Z</time></trkpt><trkpt lat="42.8383744" lon="17.6210966"><ele>179.5</ele><time>2026-05-04T13:00:52.621Z</time></trkpt><trkpt lat="42.8383162" lon="17.6207564"><ele>180.0</ele><time>2026-05-04T13:00:53.62Z</time></trkpt><trkpt lat="42.8382588" lon="17.6204225"><ele>180.0</ele><time>2026-05-04T13:00:54.62Z</time></trkpt><trkpt lat="42.8381936" lon="17.6200904"><ele>180.0</ele><time>2026-05-04T13:00:55.621Z</time></trkpt><trkpt lat="42.8381307" lon="17.6197587"><ele>179.5</ele><time>2026-05-04T13:00:56.62Z</time></trkpt><trkpt lat="42.8380671" lon="17.6194244"><ele>179.0</ele><time>2026-05-04T13:00:57.62Z</time></trkpt><trkpt lat="42.8380098" lon="17.6190905"><ele>179.0</ele><time>2026-05-04T13:00:58.621Z</time></trkpt><trkpt lat="42.8379561" lon="17.6187612"><ele>179.0</ele><time>2026-05-04T13:00:59.621Z</time></trkpt><trkpt lat="42.8379066" lon="17.61843"><ele>180.0</ele><time>2026-05-04T13:01:00.621Z</time></trkpt><trkpt lat="42.8378603" lon="17.6181059"><ele>181.0</ele><time>2026-05-04T13:01:01.62Z</time></trkpt><trkpt lat="42.8378171" lon="17.6177803"><ele>182.5</ele><time>2026-05-04T13:01:02.621Z</time></trkpt><trkpt lat="42.8377823" lon="17.6174584"><ele>184.0</ele><time>2026-05-04T13:01:03.621Z</time></trkpt><trkpt lat="42.8377516" lon="17.6171364"><ele>184.5</ele><time>2026-05-04T13:01:04.62Z</time></trkpt><trkpt lat="42.8377281" lon="17.616825"><ele>185.0</ele><time>2026-05-04T13:01:05.621Z</time></trkpt><trkpt lat="42.8377091" lon="17.6165166"><ele>185.0</ele><time>2026-05-04T13:01:06.621Z</time></trkpt><trkpt lat="42.8376933" lon="17.61621"><ele>185.0</ele><time>2026-05-04T13:01:07.62Z</time></trkpt><trkpt lat="42.8376836" lon="17.6159036"><ele>184.0</ele><time>2026-05-04T13:01:08.62Z</time></trkpt><trkpt lat="42.8376801" lon="17.6155965"><ele>183.0</ele><time>2026-05-04T13:01:09.621Z</time></trkpt><trkpt lat="42.8376819" lon="17.6152888"><ele>181.0</ele><time>2026-05-04T13:01:10.621Z</time></trkpt><trkpt lat="42.8376863" lon="17.6149819"><ele>179.0</ele><time>2026-05-04T13:01:11.62Z</time></trkpt><trkpt lat="42.8376951" lon="17.6146743"><ele>178.5</ele><time>2026-05-04T13:01:12.621Z</time></trkpt><trkpt lat="42.8377068" lon="17.6143562"><ele>178.0</ele><time>2026-05-04T13:01:13.62Z</time></trkpt><trkpt lat="42.8377267" lon="17.6140395"><ele>178.0</ele><time>2026-05-04T13:01:14.62Z</time></trkpt><trkpt lat="42.8377504" lon="17.6137198"><ele>178.0</ele><time>2026-05-04T13:01:15.62Z</time></trkpt><trkpt lat="42.8377798" lon="17.6134018"><ele>178.0</ele><time>2026-05-04T13:01:16.62Z</time></trkpt><trkpt lat="42.8378161" lon="17.6130888"><ele>178.0</ele><time>2026-05-04T13:01:17.62Z</time></trkpt><trkpt lat="42.8378566" lon="17.6127828"><ele>178.0</ele><time>2026-05-04T13:01:18.621Z</time></trkpt><trkpt lat="42.837903" lon="17.6124746"><ele>178.0</ele><time>2026-05-04T13:01:19.621Z</time></trkpt><trkpt lat="42.8379521" lon="17.6121692"><ele>176.0</ele><time>2026-05-04T13:01:20.62Z</time></trkpt><trkpt lat="42.8380087" lon="17.6118652"><ele>174.0</ele><time>2026-05-04T13:01:21.621Z</time></trkpt><trkpt lat="42.8380653" lon="17.6115667"><ele>174.0</ele><time>2026-05-04T13:01:22.62Z</time></trkpt><trkpt lat="42.8381321" lon="17.6112729"><ele>174.0</ele><time>2026-05-04T13:01:23.62Z</time></trkpt><trkpt lat="42.8381991" lon="17.6109838"><ele>174.0</ele><time>2026-05-04T13:01:24.62Z</time></trkpt><trkpt lat="42.8382693" lon="17.6106924"><ele>173.66666666666666</ele><time>2026-05-04T13:01:25.62Z</time></trkpt><trkpt lat="42.8383426" lon="17.6104134"><ele>173.33333333333331</ele><time>2026-05-04T13:01:26.62Z</time></trkpt><trkpt lat="42.8384184" lon="17.6101385"><ele>173.0</ele><time>2026-05-04T13:01:27.621Z</time></trkpt><trkpt lat="42.8384977" lon="17.6098624"><ele>173.0</ele><time>2026-05-04T13:01:28.62Z</time></trkpt><trkpt lat="42.8385866" lon="17.6095987"><ele>173.0</ele><time>2026-05-04T13:01:29.62Z</time></trkpt><trkpt lat="42.8386775" lon="17.6093331"><ele>173.0</ele><time>2026-05-04T13:01:30.621Z</time></trkpt><trkpt lat="42.8387713" lon="17.609064"><ele>173.66666666666666</ele><time>2026-05-04T13:01:31.62Z</time></trkpt><trkpt lat="42.8388678" lon="17.6087961"><ele>174.33333333333334</ele><time>2026-05-04T13:01:32.62Z</time></trkpt><trkpt lat="42.8389688" lon="17.6085341"><ele>175.0</ele><time>2026-05-04T13:01:33.621Z</time></trkpt><trkpt lat="42.8390806" lon="17.6082704"><ele>175.33333333333334</ele><time>2026-05-04T13:01:34.62Z</time></trkpt><trkpt lat="42.8391894" lon="17.6080116"><ele>175.66666666666666</ele><time>2026-05-04T13:01:35.621Z</time></trkpt><trkpt lat="42.839304" lon="17.6077534"><ele>176.0</ele><time>2026-05-04T13:01:36.62Z</time></trkpt><trkpt lat="42.8394193" lon="17.6074999"><ele>176.66666666666666</ele><time>2026-05-04T13:01:37.62Z</time></trkpt><trkpt lat="42.8395451" lon="17.6072509"><ele>177.33333333333334</ele><time>2026-05-04T13:01:38.621Z</time></trkpt><trkpt lat="42.8396688" lon="17.607009"><ele>178.0</ele><time>2026-05-04T13:01:39.621Z</time></trkpt><trkpt lat="42.8398024" lon="17.6067667"><ele>178.0</ele><time>2026-05-04T13:01:40.621Z</time></trkpt><trkpt lat="42.8399356" lon="17.6065263"><ele>178.0</ele><time>2026-05-04T13:01:41.62Z</time></trkpt><trkpt lat="42.8400694" lon="17.606293"><ele>178.0</ele><time>2026-05-04T13:01:42.62Z</time></trkpt><trkpt lat="42.8402071" lon="17.6060652"><ele>175.66666666666669</ele><time>2026-05-04T13:01:43.62Z</time></trkpt><trkpt lat="42.8403465" lon="17.6058452"><ele>173.33333333333334</ele><time>2026-05-04T13:01:44.621Z</time></trkpt><trkpt lat="42.8404867" lon="17.6056289"><ele>171.0</ele><time>2026-05-04T13:01:45.62Z</time></trkpt><trkpt lat="42.8406293" lon="17.6054159"><ele>170.0</ele><time>2026-05-04T13:01:46.621Z</time></trkpt><trkpt lat="42.8407796" lon="17.6052055"><ele>169.0</ele><time>2026-05-04T13:01:47.621Z</time></trkpt><trkpt lat="42.8409265" lon="17.6049969"><ele>168.0</ele><time>2026-05-04T13:01:48.62Z</time></trkpt><trkpt lat="42.8410777" lon="17.6047907"><ele>168.0</ele><time>2026-05-04T13:01:49.62Z</time></trkpt><trkpt lat="42.8412204" lon="17.6045848"><ele>168.0</ele><time>2026-05-04T13:01:50.621Z</time></trkpt><trkpt lat="42.8413692" lon="17.6043776"><ele>168.0</ele><time>2026-05-04T13:01:51.62Z</time></trkpt><trkpt lat="42.8415129" lon="17.6041719"><ele>168.0</ele><time>2026-05-04T13:01:52.621Z</time></trkpt><trkpt lat="42.8416627" lon="17.6039664"><ele>168.0</ele><time>2026-05-04T13:01:53.62Z</time></trkpt><trkpt lat="42.8418109" lon="17.6037548"><ele>168.0</ele><time>2026-05-04T13:01:54.62Z</time></trkpt><trkpt lat="42.8419563" lon="17.6035376"><ele>168.0</ele><time>2026-05-04T13:01:55.62Z</time></trkpt><trkpt lat="42.8421067" lon="17.6033192"><ele>168.0</ele><time>2026-05-04T13:01:56.621Z</time></trkpt><trkpt lat="42.8422506" lon="17.6030927"><ele>168.0</ele><time>2026-05-04T13:01:57.62Z</time></trkpt><trkpt lat="42.8423983" lon="17.6028595"><ele>169.0</ele><time>2026-05-04T13:01:58.621Z</time></trkpt><trkpt lat="42.8425443" lon="17.6026129"><ele>170.0</ele><time>2026-05-04T13:01:59.621Z</time></trkpt><trkpt lat="42.8426897" lon="17.6023503"><ele>170.0</ele><time>2026-05-04T13:02:00.621Z</time></trkpt><trkpt lat="42.8428354" lon="17.6020834"><ele>170.0</ele><time>2026-05-04T13:02:01.62Z</time></trkpt><trkpt lat="42.8429868" lon="17.601802"><ele>169.5</ele><time>2026-05-04T13:02:02.621Z</time></trkpt><trkpt lat="42.8431375" lon="17.6015046"><ele>169.0</ele><time>2026-05-04T13:02:03.62Z</time></trkpt><trkpt lat="42.8432896" lon="17.6011969"><ele>171.0</ele><time>2026-05-04T13:02:04.62Z</time></trkpt><trkpt lat="42.8434455" lon="17.6008799"><ele>173.0</ele><time>2026-05-04T13:02:05.62Z</time></trkpt><trkpt lat="42.8436034" lon="17.6005566"><ele>175.5</ele><time>2026-05-04T13:02:06.62Z</time></trkpt><trkpt lat="42.8437691" lon="17.6002362"><ele>178.0</ele><time>2026-05-04T13:02:07.621Z</time></trkpt><trkpt lat="42.8439365" lon="17.5999113"><ele>178.0</ele><time>2026-05-04T13:02:08.621Z</time></trkpt><trkpt lat="42.8441088" lon="17.5995914"><ele>178.0</ele><time>2026-05-04T13:02:09.621Z</time></trkpt><trkpt lat="42.8442801" lon="17.5992729"><ele>180.0</ele><time>2026-05-04T13:02:10.62Z</time></trkpt><trkpt lat="42.8444479" lon="17.5989512"><ele>182.0</ele><time>2026-05-04T13:02:11.62Z</time></trkpt><trkpt lat="42.8446175" lon="17.5986258"><ele>182.5</ele><time>2026-05-04T13:02:12.621Z</time></trkpt><trkpt lat="42.8447859" lon="17.5983"><ele>183.0</ele><time>2026-05-04T13:02:13.621Z</time></trkpt><trkpt lat="42.8449494" lon="17.597968"><ele>183.5</ele><time>2026-05-04T13:02:14.621Z</time></trkpt><trkpt lat="42.8451134" lon="17.5976327"><ele>184.0</ele><time>2026-05-04T13:02:15.62Z</time></trkpt><trkpt lat="42.8452807" lon="17.5973033"><ele>190.5</ele><time>2026-05-04T13:02:16.621Z</time></trkpt><trkpt lat="42.8454471" lon="17.5969755"><ele>197.0</ele><time>2026-05-04T13:02:17.62Z</time></trkpt><trkpt lat="42.8456151" lon="17.5966446"><ele>197.0</ele><time>2026-05-04T13:02:18.62Z</time></trkpt><trkpt lat="42.8457837" lon="17.596323"><ele>197.0</ele><time>2026-05-04T13:02:19.621Z</time></trkpt><trkpt lat="42.845954" lon="17.5959877"><ele>197.0</ele><time>2026-05-04T13:02:20.621Z</time></trkpt><trkpt lat="42.8461222" lon="17.5956577"><ele>197.0</ele><time>2026-05-04T13:02:21.62Z</time></trkpt><trkpt lat="42.8462912" lon="17.595328"><ele>197.0</ele><time>2026-05-04T13:02:22.621Z</time></trkpt><trkpt lat="42.8464559" lon="17.5949954"><ele>197.0</ele><time>2026-05-04T13:02:23.62Z</time></trkpt><trkpt lat="42.8466243" lon="17.5946646"><ele>196.5</ele><time>2026-05-04T13:02:24.621Z</time></trkpt><trkpt lat="42.8467928" lon="17.5943341"><ele>196.0</ele><time>2026-05-04T13:02:25.62Z</time></trkpt><trkpt lat="42.8469622" lon="17.5940002"><ele>191.5</ele><time>2026-05-04T13:02:26.621Z</time></trkpt><trkpt lat="42.8471351" lon="17.5936628"><ele>187.0</ele><time>2026-05-04T13:02:27.621Z</time></trkpt><trkpt lat="42.8473134" lon="17.5933126"><ele>187.0</ele><time>2026-05-04T13:02:28.621Z</time></trkpt><trkpt lat="42.8474955" lon="17.5929483"><ele>187.0</ele><time>2026-05-04T13:02:29.621Z</time></trkpt><trkpt lat="42.847687" lon="17.5925692"><ele>184.5</ele><time>2026-05-04T13:02:30.621Z</time></trkpt><trkpt lat="42.84788" lon="17.5921838"><ele>182.0</ele><time>2026-05-04T13:02:31.621Z</time></trkpt><trkpt lat="42.8480794" lon="17.5917896"><ele>181.5</ele><time>2026-05-04T13:02:32.62Z</time></trkpt><trkpt lat="42.8482817" lon="17.5913911"><ele>181.0</ele><time>2026-05-04T13:02:33.621Z</time></trkpt><trkpt lat="42.848489" lon="17.5909815"><ele>181.0</ele><time>2026-05-04T13:02:34.62Z</time></trkpt><trkpt lat="42.8487013" lon="17.5905671"><ele>181.0</ele><time>2026-05-04T13:02:35.621Z</time></trkpt><trkpt lat="42.8489172" lon="17.5901427"><ele>181.0</ele><time>2026-05-04T13:02:36.62Z</time></trkpt><trkpt lat="42.8491378" lon="17.5897122"><ele>181.0</ele><time>2026-05-04T13:02:37.621Z</time></trkpt><trkpt lat="42.8493599" lon="17.5892765"><ele>181.5</ele><time>2026-05-04T13:02:38.62Z</time></trkpt><trkpt lat="42.8495862" lon="17.5888407"><ele>182.0</ele><time>2026-05-04T13:02:39.62Z</time></trkpt><trkpt lat="42.8498098" lon="17.5884037"><ele>182.0</ele><time>2026-05-04T13:02:40.62Z</time></trkpt><trkpt lat="42.8500369" lon="17.587967"><ele>182.0</ele><time>2026-05-04T13:02:41.621Z</time></trkpt><trkpt lat="42.8502565" lon="17.5875392"><ele>182.0</ele><time>2026-05-04T13:02:42.621Z</time></trkpt><trkpt lat="42.8504657" lon="17.5871271"><ele>182.0</ele><time>2026-05-04T13:02:43.62Z</time></trkpt><trkpt lat="42.8506646" lon="17.5867296"><ele>182.0</ele><time>2026-05-04T13:02:44.62Z</time></trkpt><trkpt lat="42.8508614" lon="17.5863382"><ele>182.0</ele><time>2026-05-04T13:02:45.621Z</time></trkpt><trkpt lat="42.8510525" lon="17.5859545"><ele>181.0</ele><time>2026-05-04T13:02:46.621Z</time></trkpt><trkpt lat="42.8512417" lon="17.5855723"><ele>180.0</ele><time>2026-05-04T13:02:47.621Z</time></trkpt><trkpt lat="42.8514329" lon="17.585196"><ele>180.0</ele><time>2026-05-04T13:02:48.621Z</time></trkpt><trkpt lat="42.8516203" lon="17.5848315"><ele>180.0</ele><time>2026-05-04T13:02:49.621Z</time></trkpt><trkpt lat="42.8518054" lon="17.5844733"><ele>181.0</ele><time>2026-05-04T13:02:50.62Z</time></trkpt><trkpt lat="42.8519888" lon="17.5841192"><ele>182.0</ele><time>2026-05-04T13:02:51.62Z</time></trkpt><trkpt lat="42.8521672" lon="17.5837699"><ele>180.5</ele><time>2026-05-04T13:02:52.62Z</time></trkpt><trkpt lat="42.8523476" lon="17.5834268"><ele>179.0</ele><time>2026-05-04T13:02:53.621Z</time></trkpt><trkpt lat="42.8525225" lon="17.5830925"><ele>182.5</ele><time>2026-05-04T13:02:54.621Z</time></trkpt><trkpt lat="42.8527023" lon="17.5827622"><ele>186.0</ele><time>2026-05-04T13:02:55.62Z</time></trkpt><trkpt lat="42.8528817" lon="17.5824293"><ele>186.0</ele><time>2026-05-04T13:02:56.621Z</time></trkpt><trkpt lat="42.8530661" lon="17.5820967"><ele>186.0</ele><time>2026-05-04T13:02:57.621Z</time></trkpt><trkpt lat="42.853252" lon="17.5817678"><ele>185.5</ele><time>2026-05-04T13:02:58.62Z</time></trkpt><trkpt lat="42.8534441" lon="17.5814334"><ele>185.0</ele><time>2026-05-04T13:02:59.621Z</time></trkpt><trkpt lat="42.8536371" lon="17.5811102"><ele>185.0</ele><time>2026-05-04T13:03:00.621Z</time></trkpt><trkpt lat="42.8538297" lon="17.5807885"><ele>185.0</ele><time>2026-05-04T13:03:01.621Z</time></trkpt><trkpt lat="42.8540229" lon="17.5804732"><ele>186.5</ele><time>2026-05-04T13:03:02.62Z</time></trkpt><trkpt lat="42.8542244" lon="17.5801594"><ele>188.0</ele><time>2026-05-04T13:03:03.62Z</time></trkpt><trkpt lat="42.8544239" lon="17.5798593"><ele>188.0</ele><time>2026-05-04T13:03:04.621Z</time></trkpt><trkpt lat="42.8546179" lon="17.5795646"><ele>188.0</ele><time>2026-05-04T13:03:05.62Z</time></trkpt><trkpt lat="42.8548127" lon="17.5792825"><ele>189.5</ele><time>2026-05-04T13:03:06.62Z</time></trkpt><trkpt lat="42.8550056" lon="17.5790114"><ele>191.0</ele><time>2026-05-04T13:03:07.621Z</time></trkpt><trkpt lat="42.8551921" lon="17.5787411"><ele>191.0</ele><time>2026-05-04T13:03:08.621Z</time></trkpt><trkpt lat="42.8553792" lon="17.5784755"><ele>191.0</ele><time>2026-05-04T13:03:09.62Z</time></trkpt><trkpt lat="42.8555658" lon="17.5782228"><ele>191.0</ele><time>2026-05-04T13:03:10.62Z</time></trkpt><trkpt lat="42.8557473" lon="17.577977"><ele>191.0</ele><time>2026-05-04T13:03:11.62Z</time></trkpt><trkpt lat="42.855937" lon="17.5777444"><ele>191.0</ele><time>2026-05-04T13:03:12.621Z</time></trkpt><trkpt lat="42.8561186" lon="17.5775116"><ele>191.0</ele><time>2026-05-04T13:03:13.621Z</time></trkpt><trkpt lat="42.8562951" lon="17.5772869"><ele>191.0</ele><time>2026-05-04T13:03:14.621Z</time></trkpt><trkpt lat="42.8564762" lon="17.5770725"><ele>191.0</ele><time>2026-05-04T13:03:15.621Z</time></trkpt><trkpt lat="42.8566497" lon="17.5768579"><ele>193.33333333333331</ele><time>2026-05-04T13:03:16.621Z</time></trkpt><trkpt lat="42.8568215" lon="17.5766539"><ele>195.66666666666666</ele><time>2026-05-04T13:03:17.62Z</time></trkpt><trkpt lat="42.8569812" lon="17.5764559"><ele>198.0</ele><time>2026-05-04T13:03:18.621Z</time></trkpt><trkpt lat="42.8571408" lon="17.5762619"><ele>198.33333333333331</ele><time>2026-05-04T13:03:19.62Z</time></trkpt><trkpt lat="42.8572966" lon="17.5760722"><ele>198.66666666666666</ele><time>2026-05-04T13:03:20.621Z</time></trkpt><trkpt lat="42.8574543" lon="17.5758862"><ele>199.0</ele><time>2026-05-04T13:03:21.62Z</time></trkpt><trkpt lat="42.8576138" lon="17.5756943"><ele>201.33333333333331</ele><time>2026-05-04T13:03:22.621Z</time></trkpt><trkpt lat="42.8577668" lon="17.5755057"><ele>203.66666666666669</ele><time>2026-05-04T13:03:23.621Z</time></trkpt><trkpt lat="42.85792" lon="17.5753194"><ele>206.0</ele><time>2026-05-04T13:03:24.62Z</time></trkpt><trkpt lat="42.8580744" lon="17.575132"><ele>206.0</ele><time>2026-05-04T13:03:25.62Z</time></trkpt><trkpt lat="42.8582285" lon="17.5749438"><ele>206.0</ele><time>2026-05-04T13:03:26.62Z</time></trkpt><trkpt lat="42.8583855" lon="17.5747572"><ele>206.0</ele><time>2026-05-04T13:03:27.621Z</time></trkpt><trkpt lat="42.8585402" lon="17.574571"><ele>207.0</ele><time>2026-05-04T13:03:28.62Z</time></trkpt><trkpt lat="42.858689" lon="17.57438"><ele>208.0</ele><time>2026-05-04T13:03:29.621Z</time></trkpt><trkpt lat="42.8588425" lon="17.5741885"><ele>209.0</ele><time>2026-05-04T13:03:30.62Z</time></trkpt><trkpt lat="42.8589931" lon="17.5739979"><ele>209.0</ele><time>2026-05-04T13:03:31.621Z</time></trkpt><trkpt lat="42.8591533" lon="17.5737932"><ele>209.0</ele><time>2026-05-04T13:03:32.621Z</time></trkpt><trkpt lat="42.859317" lon="17.5735782"><ele>209.0</ele><time>2026-05-04T13:03:33.62Z</time></trkpt><trkpt lat="42.8594814" lon="17.5733639"><ele>209.5</ele><time>2026-05-04T13:03:34.621Z</time></trkpt><trkpt lat="42.8596447" lon="17.5731347"><ele>210.0</ele><time>2026-05-04T13:03:35.621Z</time></trkpt><trkpt lat="42.8598043" lon="17.572902"><ele>208.5</ele><time>2026-05-04T13:03:36.62Z</time></trkpt><trkpt lat="42.8599671" lon="17.5726659"><ele>207.0</ele><time>2026-05-04T13:03:37.621Z</time></trkpt><trkpt lat="42.8601302" lon="17.5724274"><ele>207.0</ele><time>2026-05-04T13:03:38.62Z</time></trkpt><trkpt lat="42.8602988" lon="17.5721841"><ele>207.0</ele><time>2026-05-04T13:03:39.621Z</time></trkpt><trkpt lat="42.8604603" lon="17.571926"><ele>207.0</ele><time>2026-05-04T13:03:40.62Z</time></trkpt><trkpt lat="42.8606236" lon="17.5716653"><ele>207.0</ele><time>2026-05-04T13:03:41.621Z</time></trkpt><trkpt lat="42.8607828" lon="17.5714001"><ele>207.0</ele><time>2026-05-04T13:03:42.62Z</time></trkpt><trkpt lat="42.8609419" lon="17.5711354"><ele>207.0</ele><time>2026-05-04T13:03:43.621Z</time></trkpt><trkpt lat="42.8611066" lon="17.5708725"><ele>207.0</ele><time>2026-05-04T13:03:44.621Z</time></trkpt><trkpt lat="42.8612634" lon="17.5706103"><ele>207.0</ele><time>2026-05-04T13:03:45.621Z</time></trkpt><trkpt lat="42.8614229" lon="17.5703461"><ele>207.0</ele><time>2026-05-04T13:03:46.621Z</time></trkpt><trkpt lat="42.8615763" lon="17.5700785"><ele>207.0</ele><time>2026-05-04T13:03:47.621Z</time></trkpt><trkpt lat="42.8617311" lon="17.5698146"><ele>209.5</ele><time>2026-05-04T13:03:48.621Z</time></trkpt><trkpt lat="42.8618871" lon="17.56955"><ele>212.0</ele><time>2026-05-04T13:03:49.621Z</time></trkpt><trkpt lat="42.8620433" lon="17.5692841"><ele>212.0</ele><time>2026-05-04T13:03:50.621Z</time></trkpt><trkpt lat="42.8621907" lon="17.5690187"><ele>212.0</ele><time>2026-05-04T13:03:51.62Z</time></trkpt><trkpt lat="42.8623413" lon="17.5687576"><ele>212.0</ele><time>2026-05-04T13:03:52.621Z</time></trkpt><trkpt lat="42.8624908" lon="17.5685025"><ele>212.0</ele><time>2026-05-04T13:03:53.621Z</time></trkpt><trkpt lat="42.8626379" lon="17.5682506"><ele>212.5</ele><time>2026-05-04T13:03:54.621Z</time></trkpt><trkpt lat="42.8627803" lon="17.5680014"><ele>213.0</ele><time>2026-05-04T13:03:55.621Z</time></trkpt><trkpt lat="42.8629244" lon="17.5677587"><ele>213.5</ele><time>2026-05-04T13:03:56.621Z</time></trkpt><trkpt lat="42.8630686" lon="17.5675135"><ele>214.0</ele><time>2026-05-04T13:03:57.621Z</time></trkpt><trkpt lat="42.8632175" lon="17.5672703"><ele>214.0</ele><time>2026-05-04T13:03:58.62Z</time></trkpt><trkpt lat="42.8633705" lon="17.5670296"><ele>214.0</ele><time>2026-05-04T13:03:59.62Z</time></trkpt><trkpt lat="42.8635242" lon="17.5668084"><ele>214.0</ele><time>2026-05-04T13:04:00.62Z</time></trkpt><trkpt lat="42.8636866" lon="17.5665975"><ele>214.0</ele><time>2026-05-04T13:04:01.62Z</time></trkpt><trkpt lat="42.8638549" lon="17.5663994"><ele>214.0</ele><time>2026-05-04T13:04:02.62Z</time></trkpt><trkpt lat="42.8640305" lon="17.5662056"><ele>213.66666666666666</ele><time>2026-05-04T13:04:03.621Z</time></trkpt><trkpt lat="42.8642041" lon="17.5660234"><ele>213.33333333333331</ele><time>2026-05-04T13:04:04.621Z</time></trkpt><trkpt lat="42.8643782" lon="17.5658455"><ele>213.0</ele><time>2026-05-04T13:04:05.62Z</time></trkpt><trkpt lat="42.8645574" lon="17.5656812"><ele>213.66666666666669</ele><time>2026-05-04T13:04:06.62Z</time></trkpt><trkpt lat="42.8647424" lon="17.5655226"><ele>214.33333333333334</ele><time>2026-05-04T13:04:07.621Z</time></trkpt><trkpt lat="42.8649311" lon="17.5653761"><ele>215.0</ele><time>2026-05-04T13:04:08.62Z</time></trkpt><trkpt lat="42.8651248" lon="17.5652407"><ele>216.33333333333334</ele><time>2026-05-04T13:04:09.62Z</time></trkpt><trkpt lat="42.8653203" lon="17.565108"><ele>217.66666666666669</ele><time>2026-05-04T13:04:10.621Z</time></trkpt><trkpt lat="42.86552" lon="17.5649842"><ele>219.0</ele><time>2026-05-04T13:04:11.62Z</time></trkpt><trkpt lat="42.8657225" lon="17.5648728"><ele>219.0</ele><time>2026-05-04T13:04:12.62Z</time></trkpt><trkpt lat="42.8659316" lon="17.5647581"><ele>219.0</ele><time>2026-05-04T13:04:13.621Z</time></trkpt><trkpt lat="42.8661433" lon="17.5646707"><ele>219.0</ele><time>2026-05-04T13:04:14.621Z</time></trkpt><trkpt lat="42.866361" lon="17.5645892"><ele>220.66666666666669</ele><time>2026-05-04T13:04:15.621Z</time></trkpt><trkpt lat="42.8665738" lon="17.5645153"><ele>222.33333333333334</ele><time>2026-05-04T13:04:16.62Z</time></trkpt><trkpt lat="42.8667931" lon="17.5644542"><ele>224.0</ele><time>2026-05-04T13:04:17.62Z</time></trkpt><trkpt lat="42.8670151" lon="17.564405"><ele>225.0</ele><time>2026-05-04T13:04:18.62Z</time></trkpt><trkpt lat="42.8672371" lon="17.5643672"><ele>226.0</ele><time>2026-05-04T13:04:19.62Z</time></trkpt><trkpt lat="42.8674579" lon="17.5643405"><ele>227.0</ele><time>2026-05-04T13:04:20.62Z</time></trkpt><trkpt lat="42.8676815" lon="17.5643223"><ele>231.0</ele><time>2026-05-04T13:04:21.621Z</time></trkpt><trkpt lat="42.8679031" lon="17.5643166"><ele>235.0</ele><time>2026-05-04T13:04:22.62Z</time></trkpt><trkpt lat="42.8681275" lon="17.5643259"><ele>239.0</ele><time>2026-05-04T13:04:23.621Z</time></trkpt><trkpt lat="42.8683455" lon="17.5643379"><ele>242.0</ele><time>2026-05-04T13:04:24.621Z</time></trkpt><trkpt lat="42.8685575" lon="17.564361"><ele>245.0</ele><time>2026-05-04T13:04:25.62Z</time></trkpt><trkpt lat="42.8687609" lon="17.5643989"><ele>248.0</ele><time>2026-05-04T13:04:26.62Z</time></trkpt><trkpt lat="42.8689609" lon="17.5644412"><ele>248.0</ele><time>2026-05-04T13:04:27.62Z</time></trkpt><trkpt lat="42.8691535" lon="17.5644876"><ele>248.0</ele><time>2026-05-04T13:04:28.62Z</time></trkpt><trkpt lat="42.8693391" lon="17.5645394"><ele>248.0</ele><time>2026-05-04T13:04:29.62Z</time></trkpt><trkpt lat="42.8695141" lon="17.5645949"><ele>249.66666666666669</ele><time>2026-05-04T13:04:30.62Z</time></trkpt><trkpt lat="42.8696904" lon="17.564657"><ele>251.33333333333331</ele><time>2026-05-04T13:04:31.62Z</time></trkpt><trkpt lat="42.8698669" lon="17.5647294"><ele>253.0</ele><time>2026-05-04T13:04:32.621Z</time></trkpt><trkpt lat="42.87004" lon="17.5648068"><ele>257.3333333333333</ele><time>2026-05-04T13:04:33.621Z</time></trkpt><trkpt lat="42.8702121" lon="17.5648895"><ele>261.6666666666667</ele><time>2026-05-04T13:04:34.62Z</time></trkpt><trkpt lat="42.8703815" lon="17.5649811"><ele>266.0</ele><time>2026-05-04T13:04:35.62Z</time></trkpt><trkpt lat="42.8889296" lon="17.5789305"><ele>254.66666666666669</ele><time>2026-05-04T13:06:28.621Z</time></trkpt><trkpt lat="42.8890948" lon="17.5787904"><ele>243.33333333333331</ele><time>2026-05-04T13:06:29.62Z</time></trkpt><trkpt lat="42.8892601" lon="17.5786426"><ele>232.0</ele><time>2026-05-04T13:06:30.621Z</time></trkpt><trkpt lat="42.8894134" lon="17.5784863"><ele>226.66666666666666</ele><time>2026-05-04T13:06:31.62Z</time></trkpt><trkpt lat="42.8895717" lon="17.5783183"><ele>221.33333333333331</ele><time>2026-05-04T13:06:32.621Z</time></trkpt><trkpt lat="42.889725" lon="17.5781366"><ele>216.0</ele><time>2026-05-04T13:06:33.621Z</time></trkpt><trkpt lat="42.8898749" lon="17.5779424"><ele>218.0</ele><time>2026-05-04T13:06:34.621Z</time></trkpt><trkpt lat="42.8900208" lon="17.5777352"><ele>220.0</ele><time>2026-05-04T13:06:35.62Z</time></trkpt><trkpt lat="42.8901578" lon="17.5775152"><ele>222.0</ele><time>2026-05-04T13:06:36.621Z</time></trkpt><trkpt lat="42.8902958" lon="17.5772808"><ele>219.0</ele><time>2026-05-04T13:06:37.62Z</time></trkpt><trkpt lat="42.8904292" lon="17.5770393"><ele>216.0</ele><time>2026-05-04T13:06:38.621Z</time></trkpt><trkpt lat="42.8905566" lon="17.5767899"><ele>213.0</ele><time>2026-05-04T13:06:39.62Z</time></trkpt><trkpt lat="42.8906725" lon="17.5765259"><ele>213.0</ele><time>2026-05-04T13:06:40.62Z</time></trkpt><trkpt lat="42.8907833" lon="17.5762479"><ele>213.0</ele><time>2026-05-04T13:06:41.621Z</time></trkpt><trkpt lat="42.8908868" lon="17.5759604"><ele>208.0</ele><time>2026-05-04T13:06:42.621Z</time></trkpt><trkpt lat="42.8909799" lon="17.5756642"><ele>203.0</ele><time>2026-05-04T13:06:43.62Z</time></trkpt><trkpt lat="42.8910652" lon="17.5753598"><ele>205.0</ele><time>2026-05-04T13:06:44.621Z</time></trkpt><trkpt lat="42.8911421" lon="17.5750533"><ele>207.0</ele><time>2026-05-04T13:06:45.62Z</time></trkpt><trkpt lat="42.891203" lon="17.5747361"><ele>210.0</ele><time>2026-05-04T13:06:46.62Z</time></trkpt><trkpt lat="42.8912541" lon="17.5744148"><ele>213.0</ele><time>2026-05-04T13:06:47.62Z</time></trkpt><trkpt lat="42.8912974" lon="17.5740928"><ele>213.0</ele><time>2026-05-04T13:06:48.621Z</time></trkpt><trkpt lat="42.8913392" lon="17.5737721"><ele>213.0</ele><time>2026-05-04T13:06:49.62Z</time></trkpt><trkpt lat="42.8913782" lon="17.5734504"><ele>216.0</ele><time>2026-05-04T13:06:50.621Z</time></trkpt><trkpt lat="42.8914135" lon="17.5731293"><ele>219.0</ele><time>2026-05-04T13:06:51.621Z</time></trkpt><trkpt lat="42.891447" lon="17.5728077"><ele>221.5</ele><time>2026-05-04T13:06:52.621Z</time></trkpt><trkpt lat="42.8914862" lon="17.5724857"><ele>224.0</ele><time>2026-05-04T13:06:53.621Z</time></trkpt><trkpt lat="42.8915302" lon="17.5721724"><ele>225.0</ele><time>2026-05-04T13:06:54.621Z</time></trkpt><trkpt lat="42.8915837" lon="17.571869"><ele>226.0</ele><time>2026-05-04T13:06:55.621Z</time></trkpt><trkpt lat="42.8916421" lon="17.5715751"><ele>226.0</ele><time>2026-05-04T13:06:56.621Z</time></trkpt><trkpt lat="42.8917114" lon="17.5712873"><ele>226.0</ele><time>2026-05-04T13:06:57.62Z</time></trkpt><trkpt lat="42.8917885" lon="17.5710019"><ele>226.0</ele><time>2026-05-04T13:06:58.621Z</time></trkpt><trkpt lat="42.8918728" lon="17.5707201"><ele>216.33333333333331</ele><time>2026-05-04T13:06:59.621Z</time></trkpt><trkpt lat="42.8919693" lon="17.5704476"><ele>206.66666666666669</ele><time>2026-05-04T13:07:00.621Z</time></trkpt><trkpt lat="42.8920751" lon="17.5701812"><ele>197.0</ele><time>2026-05-04T13:07:01.62Z</time></trkpt><trkpt lat="42.8921907" lon="17.5699234"><ele>195.0</ele><time>2026-05-04T13:07:02.621Z</time></trkpt><trkpt lat="42.8923101" lon="17.5696747"><ele>193.0</ele><time>2026-05-04T13:07:03.621Z</time></trkpt><trkpt lat="42.8924394" lon="17.5694269"><ele>191.0</ele><time>2026-05-04T13:07:04.62Z</time></trkpt><trkpt lat="42.8925769" lon="17.5691864"><ele>186.0</ele><time>2026-05-04T13:07:05.62Z</time></trkpt><trkpt lat="42.8927226" lon="17.5689538"><ele>181.0</ele><time>2026-05-04T13:07:06.621Z</time></trkpt><trkpt lat="42.8928795" lon="17.568731"><ele>188.0</ele><time>2026-05-04T13:07:07.621Z</time></trkpt><trkpt lat="42.8930445" lon="17.5685177"><ele>195.0</ele><time>2026-05-04T13:07:08.62Z</time></trkpt><trkpt lat="42.8932194" lon="17.5683085"><ele>195.0</ele><time>2026-05-04T13:07:09.62Z</time></trkpt><trkpt lat="42.8934019" lon="17.5681156"><ele>195.0</ele><time>2026-05-04T13:07:10.62Z</time></trkpt><trkpt lat="42.8935938" lon="17.5679309"><ele>184.5</ele><time>2026-05-04T13:07:11.621Z</time></trkpt><trkpt lat="42.8937936" lon="17.5677629"><ele>174.0</ele><time>2026-05-04T13:07:12.62Z</time></trkpt><trkpt lat="42.8939955" lon="17.5675958"><ele>174.0</ele><time>2026-05-04T13:07:13.621Z</time></trkpt><trkpt lat="42.8942056" lon="17.5674444"><ele>174.0</ele><time>2026-05-04T13:07:14.62Z</time></trkpt><trkpt lat="42.8944209" lon="17.5673101"><ele>155.5</ele><time>2026-05-04T13:07:15.621Z</time></trkpt><trkpt lat="42.8946471" lon="17.5671828"><ele>137.0</ele><time>2026-05-04T13:07:16.621Z</time></trkpt><trkpt lat="42.8948731" lon="17.5670587"><ele>130.5</ele><time>2026-05-04T13:07:17.621Z</time></trkpt><trkpt lat="42.8951062" lon="17.5669378"><ele>124.0</ele><time>2026-05-04T13:07:18.621Z</time></trkpt><trkpt lat="42.8953401" lon="17.566815"><ele>124.0</ele><time>2026-05-04T13:07:19.62Z</time></trkpt><trkpt lat="42.8955723" lon="17.5666871"><ele>124.0</ele><time>2026-05-04T13:07:20.621Z</time></trkpt><trkpt lat="42.8958044" lon="17.566554"><ele>132.5</ele><time>2026-05-04T13:07:21.621Z</time></trkpt><trkpt lat="42.8960336" lon="17.56641"><ele>141.0</ele><time>2026-05-04T13:07:22.621Z</time></trkpt><trkpt lat="42.8962604" lon="17.566249"><ele>135.5</ele><time>2026-05-04T13:07:23.621Z</time></trkpt><trkpt lat="42.8964839" lon="17.5660791"><ele>130.0</ele><time>2026-05-04T13:07:24.62Z</time></trkpt><trkpt lat="42.8967014" lon="17.5658957"><ele>148.5</ele><time>2026-05-04T13:07:25.62Z</time></trkpt><trkpt lat="42.8969128" lon="17.5657033"><ele>167.0</ele><time>2026-05-04T13:07:26.621Z</time></trkpt><trkpt lat="42.8971142" lon="17.5654948"><ele>163.0</ele><time>2026-05-04T13:07:27.621Z</time></trkpt><trkpt lat="42.8973083" lon="17.5652776"><ele>159.0</ele><time>2026-05-04T13:07:28.62Z</time></trkpt><trkpt lat="42.8974973" lon="17.5650525"><ele>179.0</ele><time>2026-05-04T13:07:29.62Z</time></trkpt><trkpt lat="42.8976756" lon="17.5648225"><ele>199.0</ele><time>2026-05-04T13:07:30.621Z</time></trkpt><trkpt lat="42.8978489" lon="17.5645799"><ele>193.0</ele><time>2026-05-04T13:07:31.62Z</time></trkpt><trkpt lat="42.8980114" lon="17.5643324"><ele>187.0</ele><time>2026-05-04T13:07:32.621Z</time></trkpt><trkpt lat="42.8981661" lon="17.5640773"><ele>187.0</ele><time>2026-05-04T13:07:33.62Z</time></trkpt><trkpt lat="42.8983099" lon="17.563806"><ele>187.0</ele><time>2026-05-04T13:07:34.621Z</time></trkpt><trkpt lat="42.8984495" lon="17.5635282"><ele>198.0</ele><time>2026-05-04T13:07:35.62Z</time></trkpt><trkpt lat="42.8985769" lon="17.5632398"><ele>209.0</ele><time>2026-05-04T13:07:36.621Z</time></trkpt><trkpt lat="42.8986967" lon="17.5629418"><ele>199.0</ele><time>2026-05-04T13:07:37.62Z</time></trkpt><trkpt lat="42.8988131" lon="17.5626341"><ele>189.0</ele><time>2026-05-04T13:07:38.62Z</time></trkpt><trkpt lat="42.8989179" lon="17.5623221"><ele>179.0</ele><time>2026-05-04T13:07:39.62Z</time></trkpt><trkpt lat="42.8990096" lon="17.5620026"><ele>169.0</ele><time>2026-05-04T13:07:40.62Z</time></trkpt><trkpt lat="42.899104" lon="17.5616774"><ele>169.0</ele><time>2026-05-04T13:07:41.62Z</time></trkpt><trkpt lat="42.899178" lon="17.5613505"><ele>169.0</ele><time>2026-05-04T13:07:42.621Z</time></trkpt><trkpt lat="42.8992403" lon="17.5610309"><ele>178.5</ele><time>2026-05-04T13:07:43.62Z</time></trkpt><trkpt lat="42.8993001" lon="17.5607129"><ele>188.0</ele><time>2026-05-04T13:07:44.621Z</time></trkpt><trkpt lat="42.8993412" lon="17.5603878"><ele>180.5</ele><time>2026-05-04T13:07:45.621Z</time></trkpt><trkpt lat="42.8993794" lon="17.5600675"><ele>173.0</ele><time>2026-05-04T13:07:46.621Z</time></trkpt><trkpt lat="42.8994192" lon="17.5597433"><ele>171.5</ele><time>2026-05-04T13:07:47.621Z</time></trkpt><trkpt lat="42.8994622" lon="17.5594213"><ele>170.0</ele><time>2026-05-04T13:07:48.62Z</time></trkpt><trkpt lat="42.8995136" lon="17.5591004"><ele>170.0</ele><time>2026-05-04T13:07:49.62Z</time></trkpt><trkpt lat="42.8995689" lon="17.5587875"><ele>170.0</ele><time>2026-05-04T13:07:50.621Z</time></trkpt><trkpt lat="42.8996286" lon="17.5584739"><ele>167.5</ele><time>2026-05-04T13:07:51.621Z</time></trkpt><trkpt lat="42.8996959" lon="17.5581729"><ele>165.0</ele><time>2026-05-04T13:07:52.62Z</time></trkpt><trkpt lat="42.8997682" lon="17.5578723"><ele>159.5</ele><time>2026-05-04T13:07:53.621Z</time></trkpt><trkpt lat="42.8998505" lon="17.5575764"><ele>154.0</ele><time>2026-05-04T13:07:54.621Z</time></trkpt><trkpt lat="42.8999387" lon="17.5572827"><ele>144.5</ele><time>2026-05-04T13:07:55.62Z</time></trkpt><trkpt lat="42.9000346" lon="17.5570025"><ele>135.0</ele><time>2026-05-04T13:07:56.62Z</time></trkpt><trkpt lat="42.9001326" lon="17.5567198"><ele>146.5</ele><time>2026-05-04T13:07:57.621Z</time></trkpt><trkpt lat="42.9002342" lon="17.5564416"><ele>158.0</ele><time>2026-05-04T13:07:58.62Z</time></trkpt><trkpt lat="42.9003475" lon="17.5561676"><ele>158.0</ele><time>2026-05-04T13:07:59.62Z</time></trkpt><trkpt lat="42.9004648" lon="17.5558967"><ele>158.0</ele><time>2026-05-04T13:08:00.621Z</time></trkpt><trkpt lat="42.9005856" lon="17.5556242"><ele>146.5</ele><time>2026-05-04T13:08:01.621Z</time></trkpt><trkpt lat="42.9007051" lon="17.555355"><ele>135.0</ele><time>2026-05-04T13:08:02.62Z</time></trkpt><trkpt lat="42.9008238" lon="17.5550825"><ele>142.0</ele><time>2026-05-04T13:08:03.62Z</time></trkpt><trkpt lat="42.9009393" lon="17.554804"><ele>149.0</ele><time>2026-05-04T13:08:04.62Z</time></trkpt><trkpt lat="42.9010468" lon="17.5545119"><ele>149.0</ele><time>2026-05-04T13:08:05.621Z</time></trkpt><trkpt lat="42.9011408" lon="17.5542174"><ele>149.0</ele><time>2026-05-04T13:08:06.621Z</time></trkpt><trkpt lat="42.9012254" lon="17.5539197"><ele>139.0</ele><time>2026-05-04T13:08:07.621Z</time></trkpt><trkpt lat="42.9012987" lon="17.5536158"><ele>129.0</ele><time>2026-05-04T13:08:08.621Z</time></trkpt><trkpt lat="42.9013671" lon="17.5533069"><ele>129.0</ele><time>2026-05-04T13:08:09.62Z</time></trkpt><trkpt lat="42.9014169" lon="17.5529824"><ele>129.0</ele><time>2026-05-04T13:08:10.621Z</time></trkpt><trkpt lat="42.9014627" lon="17.5526721"><ele>124.33333333333334</ele><time>2026-05-04T13:08:11.62Z</time></trkpt><trkpt lat="42.9015015" lon="17.5523751"><ele>119.66666666666667</ele><time>2026-05-04T13:08:12.621Z</time></trkpt><trkpt lat="42.9015277" lon="17.5520864"><ele>115.0</ele><time>2026-05-04T13:08:13.621Z</time></trkpt><trkpt lat="42.9015534" lon="17.5518039"><ele>115.0</ele><time>2026-05-04T13:08:14.621Z</time></trkpt><trkpt lat="42.9015748" lon="17.5515311"><ele>115.0</ele><time>2026-05-04T13:08:15.62Z</time></trkpt><trkpt lat="42.9015871" lon="17.5512548"><ele>115.0</ele><time>2026-05-04T13:08:16.621Z</time></trkpt><trkpt lat="42.9016015" lon="17.5509748"><ele>118.0</ele><time>2026-05-04T13:08:17.621Z</time></trkpt><trkpt lat="42.9016263" lon="17.5506979"><ele>121.0</ele><time>2026-05-04T13:08:18.62Z</time></trkpt><trkpt lat="42.901655" lon="17.5504224"><ele>124.0</ele><time>2026-05-04T13:08:19.62Z</time></trkpt><trkpt lat="42.9036248" lon="17.5445395"><ele>124.0</ele><time>2026-05-04T13:08:43.621Z</time></trkpt><trkpt lat="42.9036769" lon="17.5442906"><ele>124.0</ele><time>2026-05-04T13:08:44.62Z</time></trkpt><trkpt lat="42.9037335" lon="17.5440492"><ele>124.0</ele><time>2026-05-04T13:08:45.621Z</time></trkpt><trkpt lat="42.9037819" lon="17.5438023"><ele>119.33333333333334</ele><time>2026-05-04T13:08:46.621Z</time></trkpt><trkpt lat="42.9038419" lon="17.5435592"><ele>114.66666666666666</ele><time>2026-05-04T13:08:47.621Z</time></trkpt><trkpt lat="42.9039104" lon="17.5433202"><ele>110.0</ele><time>2026-05-04T13:08:48.621Z</time></trkpt><trkpt lat="42.9039885" lon="17.5430776"><ele>104.66666666666666</ele><time>2026-05-04T13:08:49.621Z</time></trkpt><trkpt lat="42.904073" lon="17.5428391"><ele>99.33333333333333</ele><time>2026-05-04T13:08:50.621Z</time></trkpt><trkpt lat="42.9041603" lon="17.542602"><ele>94.0</ele><time>2026-05-04T13:08:51.621Z</time></trkpt><trkpt lat="42.9042556" lon="17.5423679"><ele>97.33333333333333</ele><time>2026-05-04T13:08:52.62Z</time></trkpt><trkpt lat="42.9043558" lon="17.5421385"><ele>100.66666666666666</ele><time>2026-05-04T13:08:53.62Z</time></trkpt><trkpt lat="42.9044661" lon="17.5419132"><ele>104.0</ele><time>2026-05-04T13:08:54.621Z</time></trkpt><trkpt lat="42.9045808" lon="17.5416956"><ele>104.0</ele><time>2026-05-04T13:08:55.621Z</time></trkpt><trkpt lat="42.904704" lon="17.5414796"><ele>104.0</ele><time>2026-05-04T13:08:56.621Z</time></trkpt><trkpt lat="42.904833" lon="17.5412683"><ele>104.0</ele><time>2026-05-04T13:08:57.62Z</time></trkpt><trkpt lat="42.9049663" lon="17.5410627"><ele>105.66666666666666</ele><time>2026-05-04T13:08:58.621Z</time></trkpt><trkpt lat="42.9051091" lon="17.5408651"><ele>107.33333333333334</ele><time>2026-05-04T13:08:59.62Z</time></trkpt><trkpt lat="42.9052606" lon="17.5406719"><ele>109.0</ele><time>2026-05-04T13:09:00.62Z</time></trkpt><trkpt lat="42.9054178" lon="17.5404806"><ele>102.33333333333334</ele><time>2026-05-04T13:09:01.62Z</time></trkpt><trkpt lat="42.9055742" lon="17.5402974"><ele>95.66666666666667</ele><time>2026-05-04T13:09:02.621Z</time></trkpt><trkpt lat="42.9057303" lon="17.5401202"><ele>89.0</ele><time>2026-05-04T13:09:03.621Z</time></trkpt><trkpt lat="42.9058857" lon="17.5399461"><ele>92.0</ele><time>2026-05-04T13:09:04.62Z</time></trkpt><trkpt lat="42.9060368" lon="17.5397738"><ele>95.0</ele><time>2026-05-04T13:09:05.62Z</time></trkpt><trkpt lat="42.9061843" lon="17.5395978"><ele>98.0</ele><time>2026-05-04T13:09:06.621Z</time></trkpt><trkpt lat="42.9063296" lon="17.539419"><ele>98.0</ele><time>2026-05-04T13:09:07.621Z</time></trkpt><trkpt lat="42.9064721" lon="17.5392352"><ele>98.0</ele><time>2026-05-04T13:09:08.621Z</time></trkpt><trkpt lat="42.9066152" lon="17.5390459"><ele>98.0</ele><time>2026-05-04T13:09:09.621Z</time></trkpt><trkpt lat="42.9067568" lon="17.5388506"><ele>92.0</ele><time>2026-05-04T13:09:10.621Z</time></trkpt><trkpt lat="42.9068852" lon="17.5386391"><ele>86.0</ele><time>2026-05-04T13:09:11.621Z</time></trkpt><trkpt lat="42.9070125" lon="17.5384233"><ele>80.0</ele><time>2026-05-04T13:09:12.621Z</time></trkpt><trkpt lat="42.9071352" lon="17.5382024"><ele>80.0</ele><time>2026-05-04T13:09:13.621Z</time></trkpt><trkpt lat="42.9072546" lon="17.5379748"><ele>80.0</ele><time>2026-05-04T13:09:14.62Z</time></trkpt><trkpt lat="42.907368" lon="17.5377396"><ele>80.0</ele><time>2026-05-04T13:09:15.62Z</time></trkpt><trkpt lat="42.9074755" lon="17.5375021"><ele>83.66666666666667</ele><time>2026-05-04T13:09:16.621Z</time></trkpt><trkpt lat="42.9075749" lon="17.5372556"><ele>87.33333333333333</ele><time>2026-05-04T13:09:17.621Z</time></trkpt><trkpt lat="42.9076679" lon="17.5370069"><ele>91.0</ele><time>2026-05-04T13:09:18.62Z</time></trkpt><trkpt lat="42.9077594" lon="17.5367545"><ele>91.0</ele><time>2026-05-04T13:09:19.62Z</time></trkpt><trkpt lat="42.9078433" lon="17.5365002"><ele>91.0</ele><time>2026-05-04T13:09:20.62Z</time></trkpt><trkpt lat="42.9079238" lon="17.5362451"><ele>91.0</ele><time>2026-05-04T13:09:21.62Z</time></trkpt><trkpt lat="42.9079948" lon="17.5359842"><ele>89.66666666666666</ele><time>2026-05-04T13:09:22.621Z</time></trkpt><trkpt lat="42.9080603" lon="17.5357178"><ele>88.33333333333333</ele><time>2026-05-04T13:09:23.621Z</time></trkpt><trkpt lat="42.9081202" lon="17.535448"><ele>87.0</ele><time>2026-05-04T13:09:24.62Z</time></trkpt><trkpt lat="42.908173" lon="17.5351759"><ele>83.33333333333333</ele><time>2026-05-04T13:09:25.621Z</time></trkpt><trkpt lat="42.9082236" lon="17.5349044"><ele>79.66666666666666</ele><time>2026-05-04T13:09:26.621Z</time></trkpt><trkpt lat="42.9082779" lon="17.5346348"><ele>76.0</ele><time>2026-05-04T13:09:27.62Z</time></trkpt><trkpt lat="42.9083333" lon="17.5343612"><ele>78.33333333333333</ele><time>2026-05-04T13:09:28.62Z</time></trkpt><trkpt lat="42.908395" lon="17.53409"><ele>80.66666666666667</ele><time>2026-05-04T13:09:29.62Z</time></trkpt><trkpt lat="42.9084602" lon="17.5338154"><ele>83.0</ele><time>2026-05-04T13:09:30.62Z</time></trkpt><trkpt lat="42.9085305" lon="17.5335419"><ele>83.0</ele><time>2026-05-04T13:09:31.62Z</time></trkpt><trkpt lat="42.9086053" lon="17.5332765"><ele>83.0</ele><time>2026-05-04T13:09:32.621Z</time></trkpt><trkpt lat="42.9086834" lon="17.5330352"><ele>83.0</ele><time>2026-05-04T13:09:33.62Z</time></trkpt><trkpt lat="42.9087598" lon="17.5328232"><ele>79.5</ele><time>2026-05-04T13:09:34.62Z</time></trkpt><trkpt lat="42.908834" lon="17.5326319"><ele>76.0</ele><time>2026-05-04T13:09:35.621Z</time></trkpt><trkpt lat="42.908902" lon="17.5324582"><ele>72.5</ele><time>2026-05-04T13:09:36.62Z</time></trkpt><trkpt lat="42.9089627" lon="17.5323033"><ele>69.0</ele><time>2026-05-04T13:09:37.621Z</time></trkpt><trkpt lat="42.9090135" lon="17.5321713"><ele>69.0</ele><time>2026-05-04T13:09:38.62Z</time></trkpt><trkpt lat="42.9090618" lon="17.5320653"><ele>69.0</ele><time>2026-05-04T13:09:39.621Z</time></trkpt><trkpt lat="42.909098" lon="17.5319733"><ele>69.0</ele><time>2026-05-04T13:09:40.62Z</time></trkpt><trkpt lat="42.9091559" lon="17.5318511"><ele>69.0</ele><time>2026-05-04T13:09:42.62Z</time></trkpt><trkpt lat="42.9092096" lon="17.5317493"><ele>69.0</ele><time>2026-05-04T13:09:44.621Z</time></trkpt><trkpt lat="42.9092587" lon="17.5316551"><ele>69.83333333333333</ele><time>2026-05-04T13:09:46.621Z</time></trkpt><trkpt lat="42.9093141" lon="17.531589"><ele>70.66666666666667</ele><time>2026-05-04T13:10:57.621Z</time></trkpt><trkpt lat="42.9093559" lon="17.5315124"><ele>71.5</ele><time>2026-05-04T13:10:59.621Z</time></trkpt><trkpt lat="42.9094181" lon="17.5313841"><ele>72.33333333333334</ele><time>2026-05-04T13:11:01.62Z</time></trkpt><trkpt lat="42.9094541" lon="17.5313112"><ele>73.16666666666667</ele><time>2026-05-04T13:11:02.62Z</time></trkpt><trkpt lat="42.9094992" lon="17.5312378"><ele>74.0</ele><time>2026-05-04T13:11:03.62Z</time></trkpt><trkpt lat="42.9095482" lon="17.5311527"><ele>74.0</ele><time>2026-05-04T13:11:04.621Z</time></trkpt><trkpt lat="42.9096049" lon="17.5310652"><ele>74.0</ele><time>2026-05-04T13:11:05.621Z</time></trkpt><trkpt lat="42.909661" lon="17.5309727"><ele>74.0</ele><time>2026-05-04T13:11:06.62Z</time></trkpt><trkpt lat="42.9097179" lon="17.5308764"><ele>74.0</ele><time>2026-05-04T13:11:07.621Z</time></trkpt><trkpt lat="42.9097719" lon="17.5307899"><ele>74.0</ele><time>2026-05-04T13:11:08.621Z</time></trkpt><trkpt lat="42.9098274" lon="17.5307067"><ele>74.0</ele><time>2026-05-04T13:11:09.621Z</time></trkpt><trkpt lat="42.9098831" lon="17.5306193"><ele>74.0</ele><time>2026-05-04T13:11:10.621Z</time></trkpt><trkpt lat="42.909943" lon="17.5305393"><ele>74.0</ele><time>2026-05-04T13:11:11.62Z</time></trkpt><trkpt lat="42.9100023" lon="17.5304615"><ele>74.0</ele><time>2026-05-04T13:11:12.62Z</time></trkpt><trkpt lat="42.9100766" lon="17.5303727"><ele>74.0</ele><time>2026-05-04T13:11:13.621Z</time></trkpt><trkpt lat="42.9101556" lon="17.5302773"><ele>74.0</ele><time>2026-05-04T13:11:14.62Z</time></trkpt><trkpt lat="42.9102319" lon="17.5301846"><ele>72.25</ele><time>2026-05-04T13:11:15.621Z</time></trkpt><trkpt lat="42.9103134" lon="17.5300933"><ele>70.5</ele><time>2026-05-04T13:11:16.62Z</time></trkpt><trkpt lat="42.9104032" lon="17.5300006"><ele>68.75</ele><time>2026-05-04T13:11:17.62Z</time></trkpt><trkpt lat="42.9104969" lon="17.529904"><ele>67.0</ele><time>2026-05-04T13:11:18.621Z</time></trkpt><trkpt lat="42.9105974" lon="17.5298016"><ele>67.0</ele><time>2026-05-04T13:11:19.621Z</time></trkpt><trkpt lat="42.9107085" lon="17.5297082"><ele>67.0</ele><time>2026-05-04T13:11:20.62Z</time></trkpt><trkpt lat="42.9108225" lon="17.5296202"><ele>67.0</ele><time>2026-05-04T13:11:21.621Z</time></trkpt><trkpt lat="42.9109314" lon="17.529524"><ele>67.0</ele><time>2026-05-04T13:11:22.62Z</time></trkpt><trkpt lat="42.9110384" lon="17.5294214"><ele>66.0</ele><time>2026-05-04T13:11:23.621Z</time></trkpt><trkpt lat="42.9111517" lon="17.5293211"><ele>65.0</ele><time>2026-05-04T13:11:24.621Z</time></trkpt><trkpt lat="42.911277" lon="17.5292221"><ele>64.0</ele><time>2026-05-04T13:11:25.62Z</time></trkpt><trkpt lat="42.9114164" lon="17.5291171"><ele>63.0</ele><time>2026-05-04T13:11:26.621Z</time></trkpt><trkpt lat="42.9115589" lon="17.5290172"><ele>63.0</ele><time>2026-05-04T13:11:27.621Z</time></trkpt><trkpt lat="42.9117099" lon="17.5289254"><ele>63.0</ele><time>2026-05-04T13:11:28.621Z</time></trkpt><trkpt lat="42.9118597" lon="17.5288316"><ele>63.0</ele><time>2026-05-04T13:11:29.621Z</time></trkpt><trkpt lat="42.912009" lon="17.5287377"><ele>59.66666666666667</ele><time>2026-05-04T13:11:30.621Z</time></trkpt><trkpt lat="42.9121597" lon="17.5286509"><ele>56.333333333333336</ele><time>2026-05-04T13:11:31.621Z</time></trkpt><trkpt lat="42.9123184" lon="17.5285701"><ele>53.0</ele><time>2026-05-04T13:11:32.621Z</time></trkpt><trkpt lat="42.912482" lon="17.5284909"><ele>53.333333333333336</ele><time>2026-05-04T13:11:33.621Z</time></trkpt><trkpt lat="42.9126465" lon="17.5284194"><ele>53.66666666666667</ele><time>2026-05-04T13:11:34.62Z</time></trkpt><trkpt lat="42.9128121" lon="17.528354"><ele>54.0</ele><time>2026-05-04T13:11:35.62Z</time></trkpt><trkpt lat="42.9129874" lon="17.5283015"><ele>54.0</ele><time>2026-05-04T13:11:36.62Z</time></trkpt><trkpt lat="42.9131668" lon="17.5282545"><ele>54.0</ele><time>2026-05-04T13:11:37.621Z</time></trkpt><trkpt lat="42.9133506" lon="17.5282092"><ele>54.0</ele><time>2026-05-04T13:11:38.62Z</time></trkpt><trkpt lat="42.9135262" lon="17.5281653"><ele>54.66666666666667</ele><time>2026-05-04T13:11:39.62Z</time></trkpt><trkpt lat="42.9137117" lon="17.5281353"><ele>55.333333333333336</ele><time>2026-05-04T13:11:40.621Z</time></trkpt><trkpt lat="42.9138987" lon="17.52811"><ele>56.0</ele><time>2026-05-04T13:11:41.62Z</time></trkpt><trkpt lat="42.9140877" lon="17.5280918"><ele>56.66666666666667</ele><time>2026-05-04T13:11:42.62Z</time></trkpt><trkpt lat="42.914274" lon="17.5280789"><ele>57.33333333333333</ele><time>2026-05-04T13:11:43.621Z</time></trkpt><trkpt lat="42.9144643" lon="17.5280726"><ele>58.0</ele><time>2026-05-04T13:11:44.621Z</time></trkpt><trkpt lat="42.9146545" lon="17.5280772"><ele>58.0</ele><time>2026-05-04T13:11:45.62Z</time></trkpt><trkpt lat="42.9148455" lon="17.5280861"><ele>58.0</ele><time>2026-05-04T13:11:46.621Z</time></trkpt><trkpt lat="42.9150393" lon="17.5280976"><ele>58.0</ele><time>2026-05-04T13:11:47.62Z</time></trkpt><trkpt lat="42.9152388" lon="17.5281131"><ele>57.33333333333333</ele><time>2026-05-04T13:11:48.62Z</time></trkpt><trkpt lat="42.9154386" lon="17.5281356"><ele>56.66666666666667</ele><time>2026-05-04T13:11:49.621Z</time></trkpt><trkpt lat="42.9156443" lon="17.5281519"><ele>56.0</ele><time>2026-05-04T13:11:50.621Z</time></trkpt><trkpt lat="42.9158514" lon="17.5281682"><ele>54.66666666666667</ele><time>2026-05-04T13:11:51.621Z</time></trkpt><trkpt lat="42.9160535" lon="17.5281702"><ele>53.33333333333333</ele><time>2026-05-04T13:11:52.62Z</time></trkpt><trkpt lat="42.9162573" lon="17.528167"><ele>52.0</ele><time>2026-05-04T13:11:53.621Z</time></trkpt><trkpt lat="42.9164664" lon="17.5281545"><ele>52.0</ele><time>2026-05-04T13:11:54.621Z</time></trkpt><trkpt lat="42.9166725" lon="17.5281327"><ele>52.0</ele><time>2026-05-04T13:11:55.62Z</time></trkpt><trkpt lat="42.9168757" lon="17.5280985"><ele>52.0</ele><time>2026-05-04T13:11:56.621Z</time></trkpt><trkpt lat="42.9170725" lon="17.5280497"><ele>50.666666666666664</ele><time>2026-05-04T13:11:57.621Z</time></trkpt><trkpt lat="42.9172648" lon="17.5279864"><ele>49.33333333333333</ele><time>2026-05-04T13:11:58.62Z</time></trkpt><trkpt lat="42.9174556" lon="17.5279067"><ele>48.0</ele><time>2026-05-04T13:11:59.621Z</time></trkpt><trkpt lat="42.9176413" lon="17.5278195"><ele>48.0</ele><time>2026-05-04T13:12:00.621Z</time></trkpt><trkpt lat="42.9178229" lon="17.5277249"><ele>48.0</ele><time>2026-05-04T13:12:01.62Z</time></trkpt><trkpt lat="42.9180028" lon="17.5276227"><ele>48.0</ele><time>2026-05-04T13:12:02.62Z</time></trkpt><trkpt lat="42.9181777" lon="17.5275089"><ele>48.0</ele><time>2026-05-04T13:12:03.621Z</time></trkpt><trkpt lat="42.9183544" lon="17.5273889"><ele>48.0</ele><time>2026-05-04T13:12:04.62Z</time></trkpt><trkpt lat="42.9185331" lon="17.5272706"><ele>48.0</ele><time>2026-05-04T13:12:05.621Z</time></trkpt><trkpt lat="42.9187101" lon="17.5271517"><ele>47.0</ele><time>2026-05-04T13:12:06.62Z</time></trkpt><trkpt lat="42.9188891" lon="17.5270359"><ele>46.0</ele><time>2026-05-04T13:12:07.621Z</time></trkpt><trkpt lat="42.9190668" lon="17.5269213"><ele>45.0</ele><time>2026-05-04T13:12:08.621Z</time></trkpt><trkpt lat="42.9192485" lon="17.5268216"><ele>41.0</ele><time>2026-05-04T13:12:09.62Z</time></trkpt><trkpt lat="42.9194306" lon="17.5267334"><ele>37.0</ele><time>2026-05-04T13:12:10.62Z</time></trkpt><trkpt lat="42.9196137" lon="17.5266634"><ele>33.0</ele><time>2026-05-04T13:12:11.621Z</time></trkpt><trkpt lat="42.9198052" lon="17.5266051"><ele>33.0</ele><time>2026-05-04T13:12:12.621Z</time></trkpt><trkpt lat="42.9199969" lon="17.5265601"><ele>33.0</ele><time>2026-05-04T13:12:13.621Z</time></trkpt><trkpt lat="42.920193" lon="17.5265247"><ele>33.0</ele><time>2026-05-04T13:12:14.621Z</time></trkpt><trkpt lat="42.9203872" lon="17.5264973"><ele>29.666666666666668</ele><time>2026-05-04T13:12:15.621Z</time></trkpt><trkpt lat="42.9205825" lon="17.5264841"><ele>26.333333333333336</ele><time>2026-05-04T13:12:16.62Z</time></trkpt><trkpt lat="42.9207829" lon="17.5264861"><ele>23.0</ele><time>2026-05-04T13:12:17.621Z</time></trkpt><trkpt lat="42.9209846" lon="17.5265086"><ele>19.0</ele><time>2026-05-04T13:12:18.621Z</time></trkpt><trkpt lat="42.921182" lon="17.5265417"><ele>15.0</ele><time>2026-05-04T13:12:19.62Z</time></trkpt><trkpt lat="42.9213774" lon="17.526582"><ele>11.0</ele><time>2026-05-04T13:12:20.621Z</time></trkpt><trkpt lat="42.9215746" lon="17.5266402"><ele>11.666666666666666</ele><time>2026-05-04T13:12:21.62Z</time></trkpt><trkpt lat="42.9217653" lon="17.5267111"><ele>12.333333333333332</ele><time>2026-05-04T13:12:22.62Z</time></trkpt><trkpt lat="42.9219528" lon="17.5267942"><ele>13.0</ele><time>2026-05-04T13:12:23.62Z</time></trkpt><trkpt lat="42.9221367" lon="17.5268965"><ele>13.0</ele><time>2026-05-04T13:12:24.62Z</time></trkpt><trkpt lat="42.9223134" lon="17.5270105"><ele>13.0</ele><time>2026-05-04T13:12:25.62Z</time></trkpt><trkpt lat="42.9224853" lon="17.5271331"><ele>13.0</ele><time>2026-05-04T13:12:26.62Z</time></trkpt><trkpt lat="42.9226503" lon="17.5272605"><ele>13.333333333333332</ele><time>2026-05-04T13:12:27.621Z</time></trkpt><trkpt lat="42.9228142" lon="17.5273973"><ele>13.666666666666668</ele><time>2026-05-04T13:12:28.62Z</time></trkpt><trkpt lat="42.9229731" lon="17.527543"><ele>14.0</ele><time>2026-05-04T13:12:29.621Z</time></trkpt><trkpt lat="42.9231342" lon="17.5277019"><ele>14.0</ele><time>2026-05-04T13:12:30.621Z</time></trkpt><trkpt lat="42.9232987" lon="17.5278574"><ele>14.0</ele><time>2026-05-04T13:12:31.621Z</time></trkpt><trkpt lat="42.9234634" lon="17.528021"><ele>14.0</ele><time>2026-05-04T13:12:32.62Z</time></trkpt><trkpt lat="42.9236337" lon="17.5281863"><ele>9.333333333333334</ele><time>2026-05-04T13:12:33.62Z</time></trkpt><trkpt lat="42.9238037" lon="17.5283483"><ele>4.666666666666667</ele><time>2026-05-04T13:12:34.621Z</time></trkpt><trkpt lat="42.9239742" lon="17.528514"><ele>0.0</ele><time>2026-05-04T13:12:35.621Z</time></trkpt><trkpt lat="42.9241462" lon="17.5286813"><ele>0.0</ele><time>2026-05-04T13:12:36.62Z</time></trkpt><trkpt lat="42.9243204" lon="17.5288496"><ele>0.0</ele><time>2026-05-04T13:12:37.621Z</time></trkpt><trkpt lat="42.9244945" lon="17.5290131"><ele>0.0</ele><time>2026-05-04T13:12:38.621Z</time></trkpt><trkpt lat="42.9246718" lon="17.5291856"><ele>0.0</ele><time>2026-05-04T13:12:39.62Z</time></trkpt><trkpt lat="42.9248482" lon="17.529359"><ele>0.0</ele><time>2026-05-04T13:12:40.62Z</time></trkpt><trkpt lat="42.9250248" lon="17.5295276"><ele>0.0</ele><time>2026-05-04T13:12:41.621Z</time></trkpt><trkpt lat="42.9252036" lon="17.5296939"><ele>0.0</ele><time>2026-05-04T13:12:42.62Z</time></trkpt><trkpt lat="42.9253808" lon="17.5298627"><ele>0.0</ele><time>2026-05-04T13:12:43.621Z</time></trkpt><trkpt lat="42.925558" lon="17.530037"><ele>0.0</ele><time>2026-05-04T13:12:44.621Z</time></trkpt><trkpt lat="42.9257398" lon="17.5302182"><ele>0.0</ele><time>2026-05-04T13:12:45.621Z</time></trkpt><trkpt lat="42.9259243" lon="17.5303888"><ele>0.0</ele><time>2026-05-04T13:12:46.621Z</time></trkpt><trkpt lat="42.9261061" lon="17.5305657"><ele>0.0</ele><time>2026-05-04T13:12:47.621Z</time></trkpt><trkpt lat="42.9262867" lon="17.5307532"><ele>0.0</ele><time>2026-05-04T13:12:48.62Z</time></trkpt><trkpt lat="42.9264671" lon="17.5309327"><ele>0.0</ele><time>2026-05-04T13:12:49.621Z</time></trkpt><trkpt lat="42.9266467" lon="17.531106"><ele>0.0</ele><time>2026-05-04T13:12:50.621Z</time></trkpt><trkpt lat="42.9268292" lon="17.5312802"><ele>0.0</ele><time>2026-05-04T13:12:51.62Z</time></trkpt><trkpt lat="42.9270109" lon="17.5314488"><ele>0.0</ele><time>2026-05-04T13:12:52.62Z</time></trkpt><trkpt lat="42.9271911" lon="17.531618"><ele>0.0</ele><time>2026-05-04T13:12:53.621Z</time></trkpt><trkpt lat="42.9273687" lon="17.5317907"><ele>0.0</ele><time>2026-05-04T13:12:54.62Z</time></trkpt><trkpt lat="42.9275484" lon="17.5319547"><ele>0.0</ele><time>2026-05-04T13:12:55.621Z</time></trkpt><trkpt lat="42.9277221" lon="17.5321224"><ele>0.0</ele><time>2026-05-04T13:12:56.62Z</time></trkpt><trkpt lat="42.9278981" lon="17.5322979"><ele>0.0</ele><time>2026-05-04T13:12:57.62Z</time></trkpt><trkpt lat="42.9280707" lon="17.5324678"><ele>0.0</ele><time>2026-05-04T13:12:58.621Z</time></trkpt><trkpt lat="42.9282455" lon="17.5326393"><ele>0.0</ele><time>2026-05-04T13:12:59.621Z</time></trkpt><trkpt lat="42.9284198" lon="17.5328139"><ele>0.0</ele><time>2026-05-04T13:13:00.62Z</time></trkpt><trkpt lat="42.9285887" lon="17.5329851"><ele>0.0</ele><time>2026-05-04T13:13:01.62Z</time></trkpt><trkpt lat="42.9287617" lon="17.5331547"><ele>0.0</ele><time>2026-05-04T13:13:02.62Z</time></trkpt><trkpt lat="42.9289361" lon="17.5333292"><ele>0.0</ele><time>2026-05-04T13:13:03.62Z</time></trkpt><trkpt lat="42.9291121" lon="17.5334957"><ele>0.0</ele><time>2026-05-04T13:13:04.62Z</time></trkpt><trkpt lat="42.9292838" lon="17.5336624"><ele>0.0</ele><time>2026-05-04T13:13:05.62Z</time></trkpt><trkpt lat="42.929464" lon="17.5338289"><ele>0.0</ele><time>2026-05-04T13:13:06.621Z</time></trkpt><trkpt lat="42.9296325" lon="17.5340007"><ele>0.0</ele><time>2026-05-04T13:13:07.621Z</time></trkpt><trkpt lat="42.9298081" lon="17.5341663"><ele>0.0</ele><time>2026-05-04T13:13:08.621Z</time></trkpt><trkpt lat="42.929985" lon="17.5343381"><ele>0.0</ele><time>2026-05-04T13:13:09.621Z</time></trkpt><trkpt lat="42.9301594" lon="17.5345105"><ele>0.0</ele><time>2026-05-04T13:13:10.621Z</time></trkpt><trkpt lat="42.9303373" lon="17.5346779"><ele>0.0</ele><time>2026-05-04T13:13:11.621Z</time></trkpt><trkpt lat="42.9305114" lon="17.5348514"><ele>0.0</ele><time>2026-05-04T13:13:12.621Z</time></trkpt><trkpt lat="42.9306838" lon="17.5350222"><ele>0.0</ele><time>2026-05-04T13:13:13.62Z</time></trkpt><trkpt lat="42.9308568" lon="17.5351929"><ele>0.0</ele><time>2026-05-04T13:13:14.621Z</time></trkpt><trkpt lat="42.9310311" lon="17.5353659"><ele>0.0</ele><time>2026-05-04T13:13:15.621Z</time></trkpt><trkpt lat="42.9312051" lon="17.535533"><ele>0.0</ele><time>2026-05-04T13:13:16.621Z</time></trkpt><trkpt lat="42.9313815" lon="17.5357042"><ele>0.0</ele><time>2026-05-04T13:13:17.62Z</time></trkpt><trkpt lat="42.9315579" lon="17.5358784"><ele>0.0</ele><time>2026-05-04T13:13:18.62Z</time></trkpt><trkpt lat="42.931735" lon="17.5360476"><ele>0.0</ele><time>2026-05-04T13:13:19.62Z</time></trkpt><trkpt lat="42.9319112" lon="17.5362172"><ele>0.0</ele><time>2026-05-04T13:13:20.621Z</time></trkpt><trkpt lat="42.9320936" lon="17.536396"><ele>0.0</ele><time>2026-05-04T13:13:21.621Z</time></trkpt><trkpt lat="42.9322761" lon="17.5365731"><ele>0.0</ele><time>2026-05-04T13:13:22.621Z</time></trkpt><trkpt lat="42.9324596" lon="17.5367555"><ele>0.0</ele><time>2026-05-04T13:13:23.62Z</time></trkpt><trkpt lat="42.9326445" lon="17.5369367"><ele>0.0</ele><time>2026-05-04T13:13:24.62Z</time></trkpt><trkpt lat="42.9328316" lon="17.537121"><ele>0.0</ele><time>2026-05-04T13:13:25.62Z</time></trkpt><trkpt lat="42.9330164" lon="17.5373036"><ele>0.0</ele><time>2026-05-04T13:13:26.621Z</time></trkpt><trkpt lat="42.933217" lon="17.5374745"><ele>0.0</ele><time>2026-05-04T13:13:27.62Z</time></trkpt><trkpt lat="42.9334048" lon="17.5376586"><ele>0.0</ele><time>2026-05-04T13:13:28.621Z</time></trkpt><trkpt lat="42.9335919" lon="17.5378436"><ele>0.0</ele><time>2026-05-04T13:13:29.62Z</time></trkpt><trkpt lat="42.9337817" lon="17.5380266"><ele>0.0</ele><time>2026-05-04T13:13:30.62Z</time></trkpt><trkpt lat="42.9339719" lon="17.5382143"><ele>0.0</ele><time>2026-05-04T13:13:31.621Z</time></trkpt><trkpt lat="42.93416" lon="17.5384033"><ele>0.0</ele><time>2026-05-04T13:13:32.621Z</time></trkpt><trkpt lat="42.9343511" lon="17.5385923"><ele>0.0</ele><time>2026-05-04T13:13:33.621Z</time></trkpt><trkpt lat="42.9345449" lon="17.5387816"><ele>0.0</ele><time>2026-05-04T13:13:34.621Z</time></trkpt><trkpt lat="42.9347374" lon="17.5389698"><ele>0.0</ele><time>2026-05-04T13:13:35.62Z</time></trkpt><trkpt lat="42.9349325" lon="17.5391563"><ele>0.0</ele><time>2026-05-04T13:13:36.62Z</time></trkpt><trkpt lat="42.9351267" lon="17.5393502"><ele>0.0</ele><time>2026-05-04T13:13:37.62Z</time></trkpt><trkpt lat="42.9353177" lon="17.5395446"><ele>0.0</ele><time>2026-05-04T13:13:38.621Z</time></trkpt><trkpt lat="42.9355121" lon="17.539734"><ele>0.0</ele><time>2026-05-04T13:13:39.62Z</time></trkpt><trkpt lat="42.9357076" lon="17.5399209"><ele>0.0</ele><time>2026-05-04T13:13:40.62Z</time></trkpt><trkpt lat="42.9359014" lon="17.5401105"><ele>0.0</ele><time>2026-05-04T13:13:41.62Z</time></trkpt><trkpt lat="42.9360954" lon="17.5402968"><ele>0.0</ele><time>2026-05-04T13:13:42.621Z</time></trkpt><trkpt lat="42.936291" lon="17.5404826"><ele>0.0</ele><time>2026-05-04T13:13:43.62Z</time></trkpt><trkpt lat="42.9364855" lon="17.5406742"><ele>0.0</ele><time>2026-05-04T13:13:44.621Z</time></trkpt><trkpt lat="42.9366785" lon="17.5408634"><ele>0.0</ele><time>2026-05-04T13:13:45.62Z</time></trkpt><trkpt lat="42.9368706" lon="17.5410461"><ele>0.0</ele><time>2026-05-04T13:13:46.62Z</time></trkpt><trkpt lat="42.9370632" lon="17.5412384"><ele>0.0</ele><time>2026-05-04T13:13:47.621Z</time></trkpt><trkpt lat="42.9372561" lon="17.54143"><ele>0.0</ele><time>2026-05-04T13:13:48.621Z</time></trkpt><trkpt lat="42.9374541" lon="17.5416211"><ele>0.0</ele><time>2026-05-04T13:13:49.62Z</time></trkpt><trkpt lat="42.9376544" lon="17.5418108"><ele>0.0</ele><time>2026-05-04T13:13:50.62Z</time></trkpt><trkpt lat="42.9378524" lon="17.5420036"><ele>0.0</ele><time>2026-05-04T13:13:51.62Z</time></trkpt><trkpt lat="42.9380518" lon="17.5421883"><ele>0.0</ele><time>2026-05-04T13:13:52.62Z</time></trkpt><trkpt lat="42.9382526" lon="17.5423833"><ele>0.0</ele><time>2026-05-04T13:13:53.621Z</time></trkpt><trkpt lat="42.9384552" lon="17.5425744"><ele>0.0</ele><time>2026-05-04T13:13:54.621Z</time></trkpt><trkpt lat="42.9386694" lon="17.5427435"><ele>0.0</ele><time>2026-05-04T13:13:55.621Z</time></trkpt><trkpt lat="42.9388878" lon="17.5428953"><ele>0.0</ele><time>2026-05-04T13:13:56.621Z</time></trkpt><trkpt lat="42.9391101" lon="17.5430322"><ele>3.5</ele><time>2026-05-04T13:13:57.62Z</time></trkpt><trkpt lat="42.9393437" lon="17.5431535"><ele>7.0</ele><time>2026-05-04T13:13:58.621Z</time></trkpt><trkpt lat="42.939581" lon="17.5432522"><ele>7.0</ele><time>2026-05-04T13:13:59.62Z</time></trkpt><trkpt lat="42.9398172" lon="17.5433355"><ele>7.0</ele><time>2026-05-04T13:14:00.621Z</time></trkpt><trkpt lat="42.9400565" lon="17.5433953"><ele>14.5</ele><time>2026-05-04T13:14:01.621Z</time></trkpt><trkpt lat="42.940297" lon="17.5434392"><ele>22.0</ele><time>2026-05-04T13:14:02.621Z</time></trkpt><trkpt lat="42.94054" lon="17.5434618"><ele>22.0</ele><time>2026-05-04T13:14:03.621Z</time></trkpt><trkpt lat="42.940772" lon="17.5434664"><ele>22.0</ele><time>2026-05-04T13:14:04.621Z</time></trkpt><trkpt lat="42.9410032" lon="17.5434446"><ele>28.0</ele><time>2026-05-04T13:14:05.621Z</time></trkpt><trkpt lat="42.9412324" lon="17.5434061"><ele>34.0</ele><time>2026-05-04T13:14:06.62Z</time></trkpt><trkpt lat="42.9414602" lon="17.5433458"><ele>34.0</ele><time>2026-05-04T13:14:07.621Z</time></trkpt><trkpt lat="42.9416908" lon="17.5432716"><ele>34.0</ele><time>2026-05-04T13:14:08.621Z</time></trkpt><trkpt lat="42.9419147" lon="17.5431759"><ele>34.5</ele><time>2026-05-04T13:14:09.621Z</time></trkpt><trkpt lat="42.9421392" lon="17.5430637"><ele>35.0</ele><time>2026-05-04T13:14:10.62Z</time></trkpt><trkpt lat="42.9423571" lon="17.5429278"><ele>32.0</ele><time>2026-05-04T13:14:11.621Z</time></trkpt><trkpt lat="42.9425659" lon="17.5427821"><ele>29.0</ele><time>2026-05-04T13:14:12.62Z</time></trkpt><trkpt lat="42.9427682" lon="17.5426215"><ele>29.0</ele><time>2026-05-04T13:14:13.621Z</time></trkpt><trkpt lat="42.9429614" lon="17.5424551"><ele>29.0</ele><time>2026-05-04T13:14:14.62Z</time></trkpt><trkpt lat="42.9431485" lon="17.5422778"><ele>29.0</ele><time>2026-05-04T13:14:15.621Z</time></trkpt><trkpt lat="42.9433262" lon="17.542086"><ele>29.0</ele><time>2026-05-04T13:14:16.621Z</time></trkpt><trkpt lat="42.9434962" lon="17.5418837"><ele>29.0</ele><time>2026-05-04T13:14:17.621Z</time></trkpt><trkpt lat="42.9436581" lon="17.5416685"><ele>29.0</ele><time>2026-05-04T13:14:18.62Z</time></trkpt><trkpt lat="42.9438039" lon="17.5414443"><ele>29.0</ele><time>2026-05-04T13:14:19.621Z</time></trkpt><trkpt lat="42.9439351" lon="17.5412093"><ele>30.333333333333332</ele><time>2026-05-04T13:14:20.62Z</time></trkpt><trkpt lat="42.9440575" lon="17.5409644"><ele>31.666666666666664</ele><time>2026-05-04T13:14:21.62Z</time></trkpt><trkpt lat="42.9441759" lon="17.5407122"><ele>33.0</ele><time>2026-05-04T13:14:22.621Z</time></trkpt><trkpt lat="42.9442855" lon="17.5404479"><ele>38.33333333333333</ele><time>2026-05-04T13:14:23.621Z</time></trkpt><trkpt lat="42.944389" lon="17.540184"><ele>43.666666666666664</ele><time>2026-05-04T13:14:24.62Z</time></trkpt><trkpt lat="42.9444971" lon="17.5399247"><ele>49.0</ele><time>2026-05-04T13:14:25.621Z</time></trkpt><trkpt lat="42.9446061" lon="17.5396702"><ele>53.0</ele><time>2026-05-04T13:14:26.621Z</time></trkpt><trkpt lat="42.9447115" lon="17.5394197"><ele>57.0</ele><time>2026-05-04T13:14:27.621Z</time></trkpt><trkpt lat="42.9448256" lon="17.5391761"><ele>61.0</ele><time>2026-05-04T13:14:28.621Z</time></trkpt><trkpt lat="42.9449481" lon="17.5389425"><ele>61.33333333333333</ele><time>2026-05-04T13:14:29.621Z</time></trkpt><trkpt lat="42.945083" lon="17.5387141"><ele>61.66666666666667</ele><time>2026-05-04T13:14:30.621Z</time></trkpt><trkpt lat="42.9452199" lon="17.5384978"><ele>62.0</ele><time>2026-05-04T13:14:31.62Z</time></trkpt><trkpt lat="42.9453604" lon="17.5382823"><ele>62.0</ele><time>2026-05-04T13:14:32.621Z</time></trkpt><trkpt lat="42.9455026" lon="17.5380714"><ele>62.0</ele><time>2026-05-04T13:14:33.62Z</time></trkpt><trkpt lat="42.9456545" lon="17.5378834"><ele>62.0</ele><time>2026-05-04T13:14:34.62Z</time></trkpt><trkpt lat="42.9458153" lon="17.537705"><ele>63.0</ele><time>2026-05-04T13:14:35.62Z</time></trkpt><trkpt lat="42.9459786" lon="17.5375336"><ele>64.0</ele><time>2026-05-04T13:14:36.62Z</time></trkpt><trkpt lat="42.9461484" lon="17.537372"><ele>65.0</ele><time>2026-05-04T13:14:37.621Z</time></trkpt><trkpt lat="42.9463163" lon="17.5372181"><ele>65.0</ele><time>2026-05-04T13:14:38.62Z</time></trkpt><trkpt lat="42.9464873" lon="17.5370785"><ele>65.0</ele><time>2026-05-04T13:14:39.621Z</time></trkpt><trkpt lat="42.9466605" lon="17.5369462"><ele>65.0</ele><time>2026-05-04T13:14:40.62Z</time></trkpt><trkpt lat="42.9468348" lon="17.5368202"><ele>69.0</ele><time>2026-05-04T13:14:41.62Z</time></trkpt><trkpt lat="42.947005" lon="17.5366973"><ele>73.0</ele><time>2026-05-04T13:14:42.62Z</time></trkpt><trkpt lat="42.9471768" lon="17.5365743"><ele>77.0</ele><time>2026-05-04T13:14:43.62Z</time></trkpt><trkpt lat="42.947351" lon="17.53645"><ele>77.0</ele><time>2026-05-04T13:14:44.62Z</time></trkpt><trkpt lat="42.9475214" lon="17.5363209"><ele>77.0</ele><time>2026-05-04T13:14:45.621Z</time></trkpt><trkpt lat="42.9476909" lon="17.5361881"><ele>77.0</ele><time>2026-05-04T13:14:46.621Z</time></trkpt><trkpt lat="42.9478613" lon="17.5360501"><ele>82.0</ele><time>2026-05-04T13:14:47.621Z</time></trkpt><trkpt lat="42.9480288" lon="17.5358959"><ele>87.0</ele><time>2026-05-04T13:14:48.621Z</time></trkpt><trkpt lat="42.9481953" lon="17.5357314"><ele>92.0</ele><time>2026-05-04T13:14:49.62Z</time></trkpt><trkpt lat="42.9483582" lon="17.5355497"><ele>93.33333333333334</ele><time>2026-05-04T13:14:50.621Z</time></trkpt><trkpt lat="42.9485201" lon="17.535367"><ele>94.66666666666667</ele><time>2026-05-04T13:14:51.62Z</time></trkpt><trkpt lat="42.9486766" lon="17.5351782"><ele>96.0</ele><time>2026-05-04T13:14:52.621Z</time></trkpt><trkpt lat="42.9488278" lon="17.5349802"><ele>96.0</ele><time>2026-05-04T13:14:53.62Z</time></trkpt><trkpt lat="42.9489766" lon="17.5347788"><ele>96.0</ele><time>2026-05-04T13:14:54.62Z</time></trkpt><trkpt lat="42.9491147" lon="17.5345793"><ele>96.0</ele><time>2026-05-04T13:14:55.621Z</time></trkpt><trkpt lat="42.9492495" lon="17.5343754"><ele>100.66666666666666</ele><time>2026-05-04T13:14:56.621Z</time></trkpt><trkpt lat="42.9493844" lon="17.5341658"><ele>105.33333333333333</ele><time>2026-05-04T13:14:57.621Z</time></trkpt><trkpt lat="42.9495151" lon="17.533951"><ele>110.0</ele><time>2026-05-04T13:14:58.621Z</time></trkpt><trkpt lat="42.9496502" lon="17.5337294"><ele>106.33333333333333</ele><time>2026-05-04T13:14:59.62Z</time></trkpt><trkpt lat="42.9497846" lon="17.5335133"><ele>102.66666666666666</ele><time>2026-05-04T13:15:00.621Z</time></trkpt><trkpt lat="42.9499184" lon="17.5332996"><ele>99.0</ele><time>2026-05-04T13:15:01.621Z</time></trkpt><trkpt lat="42.9500515" lon="17.5330919"><ele>100.66666666666666</ele><time>2026-05-04T13:15:02.621Z</time></trkpt><trkpt lat="42.9501886" lon="17.5328933"><ele>102.33333333333333</ele><time>2026-05-04T13:15:03.621Z</time></trkpt><trkpt lat="42.9503277" lon="17.5326926"><ele>104.0</ele><time>2026-05-04T13:15:04.621Z</time></trkpt><trkpt lat="42.9504665" lon="17.5324909"><ele>104.0</ele><time>2026-05-04T13:15:05.62Z</time></trkpt><trkpt lat="42.9506211" lon="17.5322914"><ele>104.0</ele><time>2026-05-04T13:15:06.621Z</time></trkpt><trkpt lat="42.9507717" lon="17.532091"><ele>104.0</ele><time>2026-05-04T13:15:07.62Z</time></trkpt><trkpt lat="42.9509256" lon="17.5318894"><ele>105.0</ele><time>2026-05-04T13:15:08.62Z</time></trkpt><trkpt lat="42.951082" lon="17.5316884"><ele>106.0</ele><time>2026-05-04T13:15:09.62Z</time></trkpt><trkpt lat="42.9512397" lon="17.531488"><ele>107.0</ele><time>2026-05-04T13:15:10.621Z</time></trkpt><trkpt lat="42.9514035" lon="17.5312934"><ele>108.33333333333333</ele><time>2026-05-04T13:15:11.62Z</time></trkpt><trkpt lat="42.9515699" lon="17.5311007"><ele>109.66666666666666</ele><time>2026-05-04T13:15:12.62Z</time></trkpt><trkpt lat="42.9517445" lon="17.5309074"><ele>111.0</ele><time>2026-05-04T13:15:13.62Z</time></trkpt><trkpt lat="42.9519221" lon="17.5307222"><ele>111.0</ele><time>2026-05-04T13:15:14.621Z</time></trkpt><trkpt lat="42.9521079" lon="17.530536"><ele>111.0</ele><time>2026-05-04T13:15:15.621Z</time></trkpt><trkpt lat="42.9522867" lon="17.5303571"><ele>109.66666666666666</ele><time>2026-05-04T13:15:16.621Z</time></trkpt><trkpt lat="42.9524698" lon="17.5301815"><ele>108.33333333333333</ele><time>2026-05-04T13:15:17.62Z</time></trkpt><trkpt lat="42.9526556" lon="17.5300074"><ele>107.0</ele><time>2026-05-04T13:15:18.621Z</time></trkpt><trkpt lat="42.9528437" lon="17.529843"><ele>107.0</ele><time>2026-05-04T13:15:19.62Z</time></trkpt><trkpt lat="42.9530355" lon="17.5296792"><ele>107.0</ele><time>2026-05-04T13:15:20.621Z</time></trkpt><trkpt lat="42.9532279" lon="17.5295121"><ele>108.0</ele><time>2026-05-04T13:15:21.621Z</time></trkpt><trkpt lat="42.953426" lon="17.5293554"><ele>109.0</ele><time>2026-05-04T13:15:22.621Z</time></trkpt><trkpt lat="42.9536288" lon="17.529202"><ele>109.0</ele><time>2026-05-04T13:15:23.62Z</time></trkpt><trkpt lat="42.9538304" lon="17.5290539"><ele>109.0</ele><time>2026-05-04T13:15:24.621Z</time></trkpt><trkpt lat="42.9540332" lon="17.5289093"><ele>106.5</ele><time>2026-05-04T13:15:25.62Z</time></trkpt><trkpt lat="42.9542364" lon="17.5287666"><ele>104.0</ele><time>2026-05-04T13:15:26.621Z</time></trkpt><trkpt lat="42.9544459" lon="17.5286281"><ele>104.0</ele><time>2026-05-04T13:15:27.621Z</time></trkpt><trkpt lat="42.9546501" lon="17.5284917"><ele>104.0</ele><time>2026-05-04T13:15:28.621Z</time></trkpt><trkpt lat="42.9548503" lon="17.528361"><ele>104.0</ele><time>2026-05-04T13:15:29.62Z</time></trkpt><trkpt lat="42.9550462" lon="17.5282258"><ele>104.66666666666666</ele><time>2026-05-04T13:15:30.62Z</time></trkpt><trkpt lat="42.9552437" lon="17.5280883"><ele>105.33333333333334</ele><time>2026-05-04T13:15:31.621Z</time></trkpt><trkpt lat="42.9554348" lon="17.5279409"><ele>106.0</ele><time>2026-05-04T13:15:32.62Z</time></trkpt><trkpt lat="42.9556193" lon="17.5277839"><ele>106.0</ele><time>2026-05-04T13:15:33.62Z</time></trkpt><trkpt lat="42.9558012" lon="17.5276297"><ele>106.0</ele><time>2026-05-04T13:15:34.62Z</time></trkpt><trkpt lat="42.9559836" lon="17.527477"><ele>106.0</ele><time>2026-05-04T13:15:35.621Z</time></trkpt><trkpt lat="42.9561625" lon="17.5273243"><ele>105.33333333333334</ele><time>2026-05-04T13:15:36.62Z</time></trkpt><trkpt lat="42.9563396" lon="17.5271684"><ele>104.66666666666666</ele><time>2026-05-04T13:15:37.62Z</time></trkpt><trkpt lat="42.9565169" lon="17.5270263"><ele>104.0</ele><time>2026-05-04T13:15:38.621Z</time></trkpt><trkpt lat="42.9567053" lon="17.5269049"><ele>108.33333333333333</ele><time>2026-05-04T13:15:39.62Z</time></trkpt><trkpt lat="42.9568947" lon="17.5267948"><ele>112.66666666666666</ele><time>2026-05-04T13:15:40.621Z</time></trkpt><trkpt lat="42.9570987" lon="17.5267096"><ele>117.0</ele><time>2026-05-04T13:15:41.62Z</time></trkpt><trkpt lat="42.9573019" lon="17.5266427"><ele>117.0</ele><time>2026-05-04T13:15:42.62Z</time></trkpt><trkpt lat="42.9575043" lon="17.5265896"><ele>117.0</ele><time>2026-05-04T13:15:43.62Z</time></trkpt><trkpt lat="42.9577001" lon="17.5265459"><ele>117.0</ele><time>2026-05-04T13:15:44.62Z</time></trkpt><trkpt lat="42.9578963" lon="17.5264995"><ele>120.0</ele><time>2026-05-04T13:15:45.621Z</time></trkpt><trkpt lat="42.9580862" lon="17.526438"><ele>123.0</ele><time>2026-05-04T13:15:46.621Z</time></trkpt><trkpt lat="42.9582698" lon="17.5263522"><ele>126.0</ele><time>2026-05-04T13:15:47.62Z</time></trkpt><trkpt lat="42.9584353" lon="17.5262318"><ele>128.0</ele><time>2026-05-04T13:15:48.62Z</time></trkpt><trkpt lat="42.9585776" lon="17.5260743"><ele>130.0</ele><time>2026-05-04T13:15:49.62Z</time></trkpt><trkpt lat="42.9587039" lon="17.5258799"><ele>132.0</ele><time>2026-05-04T13:15:50.621Z</time></trkpt><trkpt lat="42.9588111" lon="17.5256552"><ele>132.0</ele><time>2026-05-04T13:15:51.621Z</time></trkpt><trkpt lat="42.9589048" lon="17.5254195"><ele>132.0</ele><time>2026-05-04T13:15:52.62Z</time></trkpt><trkpt lat="42.9589989" lon="17.5251731"><ele>132.0</ele><time>2026-05-04T13:15:53.62Z</time></trkpt><trkpt lat="42.9590881" lon="17.5249294"><ele>129.66666666666666</ele><time>2026-05-04T13:15:54.621Z</time></trkpt><trkpt lat="42.9591792" lon="17.5246937"><ele>127.33333333333333</ele><time>2026-05-04T13:15:55.621Z</time></trkpt><trkpt lat="42.9592764" lon="17.5244675"><ele>125.0</ele><time>2026-05-04T13:15:56.62Z</time></trkpt><trkpt lat="42.9593841" lon="17.5242504"><ele>125.33333333333333</ele><time>2026-05-04T13:15:57.62Z</time></trkpt><trkpt lat="42.9595146" lon="17.5240481"><ele>125.66666666666666</ele><time>2026-05-04T13:15:58.62Z</time></trkpt><trkpt lat="42.9596586" lon="17.5238546"><ele>126.0</ele><time>2026-05-04T13:15:59.62Z</time></trkpt><trkpt lat="42.9598071" lon="17.523659"><ele>126.0</ele><time>2026-05-04T13:16:00.62Z</time></trkpt><trkpt lat="42.9599617" lon="17.5234608"><ele>126.0</ele><time>2026-05-04T13:16:01.62Z</time></trkpt><trkpt lat="42.9601157" lon="17.5232606"><ele>126.0</ele><time>2026-05-04T13:16:02.62Z</time></trkpt><trkpt lat="42.9602665" lon="17.5230627"><ele>130.0</ele><time>2026-05-04T13:16:03.621Z</time></trkpt><trkpt lat="42.960416" lon="17.5228666"><ele>134.0</ele><time>2026-05-04T13:16:04.621Z</time></trkpt><trkpt lat="42.9605718" lon="17.5226661"><ele>138.0</ele><time>2026-05-04T13:16:05.621Z</time></trkpt><trkpt lat="42.9607277" lon="17.5224641"><ele>141.33333333333334</ele><time>2026-05-04T13:16:06.62Z</time></trkpt><trkpt lat="42.9608922" lon="17.5222515"><ele>144.66666666666669</ele><time>2026-05-04T13:16:07.62Z</time></trkpt><trkpt lat="42.9610505" lon="17.522044"><ele>148.0</ele><time>2026-05-04T13:16:08.62Z</time></trkpt><trkpt lat="42.9612049" lon="17.5218375"><ele>148.0</ele><time>2026-05-04T13:16:09.621Z</time></trkpt><trkpt lat="42.9613634" lon="17.5216259"><ele>148.0</ele><time>2026-05-04T13:16:10.62Z</time></trkpt><trkpt lat="42.9615275" lon="17.5214177"><ele>148.0</ele><time>2026-05-04T13:16:11.62Z</time></trkpt><trkpt lat="42.9616889" lon="17.5212053"><ele>151.33333333333334</ele><time>2026-05-04T13:16:12.621Z</time></trkpt><trkpt lat="42.9618469" lon="17.5209874"><ele>154.66666666666666</ele><time>2026-05-04T13:16:13.62Z</time></trkpt><trkpt lat="42.9620064" lon="17.5207717"><ele>158.0</ele><time>2026-05-04T13:16:14.62Z</time></trkpt><trkpt lat="42.9621666" lon="17.5205563"><ele>148.5</ele><time>2026-05-04T13:16:15.62Z</time></trkpt><trkpt lat="42.96233" lon="17.5203408"><ele>139.0</ele><time>2026-05-04T13:16:16.621Z</time></trkpt><trkpt lat="42.9624896" lon="17.5201248"><ele>152.0</ele><time>2026-05-04T13:16:17.621Z</time></trkpt><trkpt lat="42.9626471" lon="17.5199073"><ele>165.0</ele><time>2026-05-04T13:16:18.621Z</time></trkpt><trkpt lat="42.9628068" lon="17.5196787"><ele>159.66666666666666</ele><time>2026-05-04T13:16:19.621Z</time></trkpt><trkpt lat="42.9629671" lon="17.5194651"><ele>154.33333333333331</ele><time>2026-05-04T13:16:20.621Z</time></trkpt><trkpt lat="42.9631223" lon="17.5192431"><ele>149.0</ele><time>2026-05-04T13:16:21.62Z</time></trkpt><trkpt lat="42.9632826" lon="17.5190271"><ele>151.33333333333331</ele><time>2026-05-04T13:16:22.62Z</time></trkpt><trkpt lat="42.9634361" lon="17.5188131"><ele>153.66666666666666</ele><time>2026-05-04T13:16:23.62Z</time></trkpt><trkpt lat="42.963583" lon="17.5186068"><ele>156.0</ele><time>2026-05-04T13:16:24.621Z</time></trkpt><trkpt lat="42.9637284" lon="17.5184208"><ele>156.0</ele><time>2026-05-04T13:16:25.62Z</time></trkpt><trkpt lat="42.9638676" lon="17.5182429"><ele>156.0</ele><time>2026-05-04T13:16:26.62Z</time></trkpt><trkpt lat="42.9640119" lon="17.5180896"><ele>156.0</ele><time>2026-05-04T13:16:27.621Z</time></trkpt><trkpt lat="42.9641714" lon="17.5179609"><ele>155.0</ele><time>2026-05-04T13:16:28.621Z</time></trkpt><trkpt lat="42.9643387" lon="17.5178631"><ele>154.0</ele><time>2026-05-04T13:16:29.62Z</time></trkpt><trkpt lat="42.964507" lon="17.5178011"><ele>153.0</ele><time>2026-05-04T13:16:30.621Z</time></trkpt><trkpt lat="42.9646688" lon="17.5177818"><ele>153.0</ele><time>2026-05-04T13:16:31.62Z</time></trkpt><trkpt lat="42.9648168" lon="17.5177888"><ele>153.0</ele><time>2026-05-04T13:16:32.621Z</time></trkpt><trkpt lat="42.9649513" lon="17.5178177"><ele>153.0</ele><time>2026-05-04T13:16:33.62Z</time></trkpt><trkpt lat="42.9650729" lon="17.5178586"><ele>153.0</ele><time>2026-05-04T13:16:34.621Z</time></trkpt><trkpt lat="42.9651772" lon="17.5178994"><ele>155.0</ele><time>2026-05-04T13:16:35.621Z</time></trkpt><trkpt lat="42.96527" lon="17.5179372"><ele>157.0</ele><time>2026-05-04T13:16:36.62Z</time></trkpt><trkpt lat="42.9653558" lon="17.5179743"><ele>159.0</ele><time>2026-05-04T13:16:37.621Z</time></trkpt><trkpt lat="42.9654445" lon="17.5180132"><ele>161.0</ele><time>2026-05-04T13:16:38.62Z</time></trkpt><trkpt lat="42.965547" lon="17.5180533"><ele>163.0</ele><time>2026-05-04T13:16:39.62Z</time></trkpt><trkpt lat="42.9656711" lon="17.518088"><ele>163.0</ele><time>2026-05-04T13:16:40.621Z</time></trkpt><trkpt lat="42.9657989" lon="17.5181172"><ele>163.0</ele><time>2026-05-04T13:16:41.62Z</time></trkpt><trkpt lat="42.9659464" lon="17.5181395"><ele>163.0</ele><time>2026-05-04T13:16:42.621Z</time></trkpt><trkpt lat="42.9661145" lon="17.5181292"><ele>163.0</ele><time>2026-05-04T13:16:43.621Z</time></trkpt><trkpt lat="42.9662878" lon="17.5180876"><ele>163.0</ele><time>2026-05-04T13:16:44.621Z</time></trkpt><trkpt lat="42.9664672" lon="17.5180127"><ele>163.0</ele><time>2026-05-04T13:16:45.621Z</time></trkpt><trkpt lat="42.9666577" lon="17.5179031"><ele>163.0</ele><time>2026-05-04T13:16:46.62Z</time></trkpt><trkpt lat="42.966849" lon="17.5177743"><ele>163.0</ele><time>2026-05-04T13:16:47.62Z</time></trkpt><trkpt lat="42.9670363" lon="17.5176263"><ele>163.0</ele><time>2026-05-04T13:16:48.621Z</time></trkpt><trkpt lat="42.9672241" lon="17.5174778"><ele>163.0</ele><time>2026-05-04T13:16:49.62Z</time></trkpt><trkpt lat="42.9674103" lon="17.517335"><ele>160.33333333333334</ele><time>2026-05-04T13:16:50.621Z</time></trkpt><trkpt lat="42.9675877" lon="17.5171945"><ele>157.66666666666666</ele><time>2026-05-04T13:16:51.621Z</time></trkpt><trkpt lat="42.9677476" lon="17.5170688"><ele>155.0</ele><time>2026-05-04T13:16:52.621Z</time></trkpt><trkpt lat="42.9679012" lon="17.51695"><ele>155.0</ele><time>2026-05-04T13:16:53.62Z</time></trkpt><trkpt lat="42.9680508" lon="17.5168316"><ele>155.0</ele><time>2026-05-04T13:16:54.62Z</time></trkpt><trkpt lat="42.968212" lon="17.5167116"><ele>155.0</ele><time>2026-05-04T13:16:55.621Z</time></trkpt><trkpt lat="42.9683719" lon="17.5165882"><ele>156.33333333333331</ele><time>2026-05-04T13:16:56.621Z</time></trkpt><trkpt lat="42.9685336" lon="17.5164726"><ele>157.66666666666666</ele><time>2026-05-04T13:16:57.621Z</time></trkpt><trkpt lat="42.9686973" lon="17.5163597"><ele>159.0</ele><time>2026-05-04T13:16:58.621Z</time></trkpt><trkpt lat="42.968869" lon="17.5162635"><ele>154.0</ele><time>2026-05-04T13:16:59.621Z</time></trkpt><trkpt lat="42.9690459" lon="17.5161817"><ele>149.0</ele><time>2026-05-04T13:17:00.621Z</time></trkpt><trkpt lat="42.9692187" lon="17.5161272"><ele>144.0</ele><time>2026-05-04T13:17:01.621Z</time></trkpt><trkpt lat="42.9694062" lon="17.5160877"><ele>143.66666666666666</ele><time>2026-05-04T13:17:02.621Z</time></trkpt><trkpt lat="42.9695991" lon="17.5160647"><ele>143.33333333333331</ele><time>2026-05-04T13:17:03.621Z</time></trkpt><trkpt lat="42.9697962" lon="17.5160485"><ele>143.0</ele><time>2026-05-04T13:17:04.62Z</time></trkpt><trkpt lat="42.9699904" lon="17.5160477"><ele>141.33333333333331</ele><time>2026-05-04T13:17:05.621Z</time></trkpt><trkpt lat="42.9701817" lon="17.5160551"><ele>139.66666666666666</ele><time>2026-05-04T13:17:06.62Z</time></trkpt><trkpt lat="42.9703756" lon="17.5160675"><ele>138.0</ele><time>2026-05-04T13:17:07.621Z</time></trkpt><trkpt lat="42.9705542" lon="17.5160975"><ele>138.0</ele><time>2026-05-04T13:17:08.62Z</time></trkpt><trkpt lat="42.9707252" lon="17.516162"><ele>138.0</ele><time>2026-05-04T13:17:09.62Z</time></trkpt><trkpt lat="42.9708844" lon="17.5162661"><ele>138.0</ele><time>2026-05-04T13:17:10.621Z</time></trkpt><trkpt lat="42.9710187" lon="17.5164027"><ele>141.66666666666666</ele><time>2026-05-04T13:17:11.62Z</time></trkpt><trkpt lat="42.9711263" lon="17.5165695"><ele>145.33333333333331</ele><time>2026-05-04T13:17:12.62Z</time></trkpt><trkpt lat="42.9712096" lon="17.5167643"><ele>149.0</ele><time>2026-05-04T13:17:13.62Z</time></trkpt><trkpt lat="42.9712673" lon="17.5169787"><ele>147.66666666666666</ele><time>2026-05-04T13:17:14.62Z</time></trkpt><trkpt lat="42.9712935" lon="17.5171999"><ele>146.33333333333334</ele><time>2026-05-04T13:17:15.621Z</time></trkpt><trkpt lat="42.9712898" lon="17.5174228"><ele>145.0</ele><time>2026-05-04T13:17:16.621Z</time></trkpt><trkpt lat="42.9712582" lon="17.5176474"><ele>145.0</ele><time>2026-05-04T13:17:17.621Z</time></trkpt><trkpt lat="42.9711968" lon="17.5178595"><ele>145.0</ele><time>2026-05-04T13:17:18.62Z</time></trkpt><trkpt lat="42.9711078" lon="17.5180713"><ele>145.0</ele><time>2026-05-04T13:17:19.621Z</time></trkpt><trkpt lat="42.9709882" lon="17.5182792"><ele>143.0</ele><time>2026-05-04T13:17:20.62Z</time></trkpt><trkpt lat="42.9708667" lon="17.5184833"><ele>141.0</ele><time>2026-05-04T13:17:21.621Z</time></trkpt><trkpt lat="42.9707388" lon="17.5186944"><ele>139.0</ele><time>2026-05-04T13:17:22.621Z</time></trkpt><trkpt lat="42.9706079" lon="17.5189174"><ele>139.0</ele><time>2026-05-04T13:17:23.621Z</time></trkpt><trkpt lat="42.9704747" lon="17.5191391"><ele>139.0</ele><time>2026-05-04T13:17:24.62Z</time></trkpt><trkpt lat="42.9703466" lon="17.5193663"><ele>139.0</ele><time>2026-05-04T13:17:25.62Z</time></trkpt><trkpt lat="42.9702382" lon="17.519597"><ele>135.66666666666669</ele><time>2026-05-04T13:17:26.621Z</time></trkpt><trkpt lat="42.970154" lon="17.5198251"><ele>132.33333333333334</ele><time>2026-05-04T13:17:27.621Z</time></trkpt><trkpt lat="42.9701012" lon="17.5200803"><ele>129.0</ele><time>2026-05-04T13:17:28.621Z</time></trkpt><trkpt lat="42.9700793" lon="17.5203416"><ele>128.0</ele><time>2026-05-04T13:17:29.621Z</time></trkpt><trkpt lat="42.9700873" lon="17.5206118"><ele>127.0</ele><time>2026-05-04T13:17:30.62Z</time></trkpt><trkpt lat="42.9701184" lon="17.5208939"><ele>126.0</ele><time>2026-05-04T13:17:31.62Z</time></trkpt><trkpt lat="42.9701626" lon="17.5211693"><ele>126.33333333333334</ele><time>2026-05-04T13:17:32.62Z</time></trkpt><trkpt lat="42.9702014" lon="17.5214375"><ele>126.66666666666667</ele><time>2026-05-04T13:17:33.621Z</time></trkpt><trkpt lat="42.9702196" lon="17.5217114"><ele>127.0</ele><time>2026-05-04T13:17:34.621Z</time></trkpt><trkpt lat="42.9702122" lon="17.5219859"><ele>127.33333333333334</ele><time>2026-05-04T13:17:35.62Z</time></trkpt><trkpt lat="42.9701809" lon="17.5222638"><ele>127.66666666666666</ele><time>2026-05-04T13:17:36.621Z</time></trkpt><trkpt lat="42.9701188" lon="17.5225454"><ele>128.0</ele><time>2026-05-04T13:17:37.62Z</time></trkpt><trkpt lat="42.9700369" lon="17.5228163"><ele>134.0</ele><time>2026-05-04T13:17:38.621Z</time></trkpt><trkpt lat="42.9699461" lon="17.5230894"><ele>140.0</ele><time>2026-05-04T13:17:39.621Z</time></trkpt><trkpt lat="42.9698634" lon="17.5233589"><ele>146.0</ele><time>2026-05-04T13:17:40.621Z</time></trkpt><trkpt lat="42.9697851" lon="17.5236221"><ele>143.33333333333331</ele><time>2026-05-04T13:17:41.621Z</time></trkpt><trkpt lat="42.9697275" lon="17.5238975"><ele>140.66666666666666</ele><time>2026-05-04T13:17:42.621Z</time></trkpt><trkpt lat="42.9696985" lon="17.5241754"><ele>138.0</ele><time>2026-05-04T13:17:43.621Z</time></trkpt><trkpt lat="42.9696974" lon="17.5244573"><ele>138.66666666666666</ele><time>2026-05-04T13:17:44.621Z</time></trkpt><trkpt lat="42.9697258" lon="17.5247507"><ele>139.33333333333331</ele><time>2026-05-04T13:17:45.62Z</time></trkpt><trkpt lat="42.9697694" lon="17.5250558"><ele>140.0</ele><time>2026-05-04T13:17:46.621Z</time></trkpt><trkpt lat="42.9698179" lon="17.5253516"><ele>142.33333333333331</ele><time>2026-05-04T13:17:47.621Z</time></trkpt><trkpt lat="42.9698627" lon="17.5256296"><ele>144.66666666666666</ele><time>2026-05-04T13:17:48.621Z</time></trkpt><trkpt lat="42.969893" lon="17.5258966"><ele>147.0</ele><time>2026-05-04T13:17:49.621Z</time></trkpt><trkpt lat="42.9699013" lon="17.5261575"><ele>146.66666666666666</ele><time>2026-05-04T13:17:50.621Z</time></trkpt><trkpt lat="42.9698854" lon="17.5264242"><ele>146.33333333333331</ele><time>2026-05-04T13:17:51.62Z</time></trkpt><trkpt lat="42.9698517" lon="17.5266932"><ele>146.0</ele><time>2026-05-04T13:17:52.621Z</time></trkpt><trkpt lat="42.9698012" lon="17.5269648"><ele>143.66666666666666</ele><time>2026-05-04T13:17:53.621Z</time></trkpt><trkpt lat="42.9697456" lon="17.5272386"><ele>141.33333333333334</ele><time>2026-05-04T13:17:54.621Z</time></trkpt><trkpt lat="42.969691" lon="17.5275228"><ele>139.0</ele><time>2026-05-04T13:17:55.62Z</time></trkpt><trkpt lat="42.969635" lon="17.5278078"><ele>137.33333333333334</ele><time>2026-05-04T13:17:56.62Z</time></trkpt><trkpt lat="42.9695787" lon="17.5281005"><ele>135.66666666666666</ele><time>2026-05-04T13:17:57.621Z</time></trkpt><trkpt lat="42.9695224" lon="17.5283938"><ele>134.0</ele><time>2026-05-04T13:17:58.621Z</time></trkpt><trkpt lat="42.9694654" lon="17.5286886"><ele>133.66666666666666</ele><time>2026-05-04T13:17:59.62Z</time></trkpt><trkpt lat="42.9694106" lon="17.5289823"><ele>133.33333333333334</ele><time>2026-05-04T13:18:00.62Z</time></trkpt><trkpt lat="42.969349" lon="17.5292767"><ele>133.0</ele><time>2026-05-04T13:18:01.62Z</time></trkpt><trkpt lat="42.9692804" lon="17.5295601"><ele>132.66666666666669</ele><time>2026-05-04T13:18:02.621Z</time></trkpt><trkpt lat="42.9692034" lon="17.5298472"><ele>132.33333333333334</ele><time>2026-05-04T13:18:03.62Z</time></trkpt><trkpt lat="42.9691108" lon="17.5301266"><ele>132.0</ele><time>2026-05-04T13:18:04.621Z</time></trkpt><trkpt lat="42.9690088" lon="17.5304075"><ele>136.5</ele><time>2026-05-04T13:18:05.62Z</time></trkpt><trkpt lat="42.9688983" lon="17.5306847"><ele>141.0</ele><time>2026-05-04T13:18:06.62Z</time></trkpt><trkpt lat="42.9687854" lon="17.5309644"><ele>139.5</ele><time>2026-05-04T13:18:07.62Z</time></trkpt><trkpt lat="42.9686636" lon="17.5312346"><ele>138.0</ele><time>2026-05-04T13:18:08.62Z</time></trkpt><trkpt lat="42.9685446" lon="17.5315047"><ele>138.0</ele><time>2026-05-04T13:18:09.62Z</time></trkpt><trkpt lat="42.9684283" lon="17.5317822"><ele>138.0</ele><time>2026-05-04T13:18:10.621Z</time></trkpt><trkpt lat="42.9683126" lon="17.5320551"><ele>141.0</ele><time>2026-05-04T13:18:11.62Z</time></trkpt><trkpt lat="42.9681997" lon="17.5323242"><ele>144.0</ele><time>2026-05-04T13:18:12.621Z</time></trkpt><trkpt lat="42.9680909" lon="17.5325831"><ele>147.0</ele><time>2026-05-04T13:18:13.621Z</time></trkpt><trkpt lat="42.9679875" lon="17.5328341"><ele>145.33333333333334</ele><time>2026-05-04T13:18:14.621Z</time></trkpt><trkpt lat="42.9678929" lon="17.5330714"><ele>143.66666666666669</ele><time>2026-05-04T13:18:15.62Z</time></trkpt><trkpt lat="42.9678136" lon="17.533294"><ele>142.0</ele><time>2026-05-04T13:18:16.62Z</time></trkpt><trkpt lat="42.9677517" lon="17.5335141"><ele>140.33333333333334</ele><time>2026-05-04T13:18:17.621Z</time></trkpt><trkpt lat="42.9677039" lon="17.5337284"><ele>138.66666666666666</ele><time>2026-05-04T13:18:18.621Z</time></trkpt><trkpt lat="42.9676821" lon="17.5339561"><ele>137.0</ele><time>2026-05-04T13:18:19.62Z</time></trkpt><trkpt lat="42.967677" lon="17.5341797"><ele>137.0</ele><time>2026-05-04T13:18:20.62Z</time></trkpt><trkpt lat="42.9676935" lon="17.5343986"><ele>137.0</ele><time>2026-05-04T13:18:21.621Z</time></trkpt><trkpt lat="42.9677439" lon="17.5346106"><ele>137.0</ele><time>2026-05-04T13:18:22.621Z</time></trkpt><trkpt lat="42.967812" lon="17.5348055"><ele>138.33333333333331</ele><time>2026-05-04T13:18:23.621Z</time></trkpt><trkpt lat="42.9679091" lon="17.5349804"><ele>139.66666666666666</ele><time>2026-05-04T13:18:24.621Z</time></trkpt><trkpt lat="42.9680297" lon="17.5351314"><ele>141.0</ele><time>2026-05-04T13:18:25.621Z</time></trkpt><trkpt lat="42.9681742" lon="17.5352425"><ele>141.0</ele><time>2026-05-04T13:18:26.621Z</time></trkpt><trkpt lat="42.968325" lon="17.5353269"><ele>141.0</ele><time>2026-05-04T13:18:27.621Z</time></trkpt><trkpt lat="42.9684816" lon="17.5353954"><ele>141.0</ele><time>2026-05-04T13:18:28.62Z</time></trkpt><trkpt lat="42.968662" lon="17.5354348"><ele>141.0</ele><time>2026-05-04T13:18:29.62Z</time></trkpt><trkpt lat="42.9688509" lon="17.5354386"><ele>141.0</ele><time>2026-05-04T13:18:30.62Z</time></trkpt><trkpt lat="42.9690513" lon="17.5354086"><ele>141.0</ele><time>2026-05-04T13:18:31.621Z</time></trkpt><trkpt lat="42.9692607" lon="17.5353428"><ele>141.0</ele><time>2026-05-04T13:18:32.621Z</time></trkpt><trkpt lat="42.9694705" lon="17.5352475"><ele>141.0</ele><time>2026-05-04T13:18:33.621Z</time></trkpt><trkpt lat="42.9696846" lon="17.5351427"><ele>141.0</ele><time>2026-05-04T13:18:34.621Z</time></trkpt><trkpt lat="42.9699016" lon="17.5350271"><ele>147.0</ele><time>2026-05-04T13:18:35.621Z</time></trkpt><trkpt lat="42.970119" lon="17.5349067"><ele>153.0</ele><time>2026-05-04T13:18:36.621Z</time></trkpt><trkpt lat="42.9703307" lon="17.5347889"><ele>153.0</ele><time>2026-05-04T13:18:37.621Z</time></trkpt><trkpt lat="42.9705536" lon="17.5346722"><ele>153.0</ele><time>2026-05-04T13:18:38.62Z</time></trkpt><trkpt lat="42.9707673" lon="17.5345603"><ele>150.33333333333334</ele><time>2026-05-04T13:18:39.62Z</time></trkpt><trkpt lat="42.970967" lon="17.5344522"><ele>147.66666666666669</ele><time>2026-05-04T13:18:40.621Z</time></trkpt><trkpt lat="42.9711599" lon="17.534354"><ele>145.0</ele><time>2026-05-04T13:18:41.621Z</time></trkpt><trkpt lat="42.971347" lon="17.5342745"><ele>145.0</ele><time>2026-05-04T13:18:42.62Z</time></trkpt><trkpt lat="42.9715381" lon="17.5342161"><ele>145.0</ele><time>2026-05-04T13:18:43.621Z</time></trkpt><trkpt lat="42.9717326" lon="17.5341876"><ele>145.0</ele><time>2026-05-04T13:18:44.621Z</time></trkpt><trkpt lat="42.9719313" lon="17.5341852"><ele>145.33333333333334</ele><time>2026-05-04T13:18:45.621Z</time></trkpt><trkpt lat="42.9721297" lon="17.5342081"><ele>145.66666666666666</ele><time>2026-05-04T13:18:46.62Z</time></trkpt><trkpt lat="42.9723193" lon="17.5342539"><ele>146.0</ele><time>2026-05-04T13:18:47.621Z</time></trkpt><trkpt lat="42.9725023" lon="17.5343492"><ele>145.0</ele><time>2026-05-04T13:18:48.621Z</time></trkpt><trkpt lat="42.9726876" lon="17.5344823"><ele>144.0</ele><time>2026-05-04T13:18:49.62Z</time></trkpt><trkpt lat="42.9728701" lon="17.5346239"><ele>143.0</ele><time>2026-05-04T13:18:50.62Z</time></trkpt><trkpt lat="42.9730569" lon="17.5347666"><ele>143.0</ele><time>2026-05-04T13:18:51.62Z</time></trkpt><trkpt lat="42.9732445" lon="17.5349079"><ele>143.0</ele><time>2026-05-04T13:18:52.62Z</time></trkpt><trkpt lat="42.9734291" lon="17.5350374"><ele>143.0</ele><time>2026-05-04T13:18:53.62Z</time></trkpt><trkpt lat="42.9736212" lon="17.5351426"><ele>142.33333333333331</ele><time>2026-05-04T13:18:54.621Z</time></trkpt><trkpt lat="42.9738213" lon="17.5352089"><ele>141.66666666666666</ele><time>2026-05-04T13:18:55.621Z</time></trkpt><trkpt lat="42.9740223" lon="17.5352364"><ele>141.0</ele><time>2026-05-04T13:18:56.621Z</time></trkpt><trkpt lat="42.9742169" lon="17.5352228"><ele>143.0</ele><time>2026-05-04T13:18:57.62Z</time></trkpt><trkpt lat="42.9744139" lon="17.5351718"><ele>145.0</ele><time>2026-05-04T13:18:58.621Z</time></trkpt><trkpt lat="42.9746057" lon="17.535084"><ele>147.0</ele><time>2026-05-04T13:18:59.621Z</time></trkpt><trkpt lat="42.9747923" lon="17.53497"><ele>147.0</ele><time>2026-05-04T13:19:00.621Z</time></trkpt><trkpt lat="42.9749713" lon="17.5348557"><ele>147.0</ele><time>2026-05-04T13:19:01.62Z</time></trkpt><trkpt lat="42.9751351" lon="17.5347472"><ele>147.0</ele><time>2026-05-04T13:19:02.62Z</time></trkpt><trkpt lat="42.9753075" lon="17.5346532"><ele>146.33333333333334</ele><time>2026-05-04T13:19:03.62Z</time></trkpt><trkpt lat="42.9754893" lon="17.5345889"><ele>145.66666666666669</ele><time>2026-05-04T13:19:04.62Z</time></trkpt><trkpt lat="42.9756677" lon="17.5345477"><ele>145.0</ele><time>2026-05-04T13:19:05.621Z</time></trkpt><trkpt lat="42.9758579" lon="17.5345444"><ele>145.0</ele><time>2026-05-04T13:19:06.62Z</time></trkpt><trkpt lat="42.976044" lon="17.5345738"><ele>145.0</ele><time>2026-05-04T13:19:07.621Z</time></trkpt><trkpt lat="42.9762354" lon="17.5346432"><ele>145.0</ele><time>2026-05-04T13:19:08.62Z</time></trkpt><trkpt lat="42.9764132" lon="17.5347537"><ele>145.0</ele><time>2026-05-04T13:19:09.621Z</time></trkpt><trkpt lat="42.9765923" lon="17.5348782"><ele>145.0</ele><time>2026-05-04T13:19:10.621Z</time></trkpt><trkpt lat="42.9767691" lon="17.5350085"><ele>145.0</ele><time>2026-05-04T13:19:11.62Z</time></trkpt><trkpt lat="42.9769399" lon="17.5351467"><ele>145.66666666666669</ele><time>2026-05-04T13:19:12.621Z</time></trkpt><trkpt lat="42.9771186" lon="17.5352766"><ele>146.33333333333334</ele><time>2026-05-04T13:19:13.62Z</time></trkpt><trkpt lat="42.9772993" lon="17.5354143"><ele>147.0</ele><time>2026-05-04T13:19:14.621Z</time></trkpt><trkpt lat="42.9774815" lon="17.5355447"><ele>137.66666666666666</ele><time>2026-05-04T13:19:15.62Z</time></trkpt><trkpt lat="42.9776603" lon="17.5356866"><ele>128.33333333333331</ele><time>2026-05-04T13:19:16.621Z</time></trkpt><trkpt lat="42.9778298" lon="17.535845"><ele>119.0</ele><time>2026-05-04T13:19:17.62Z</time></trkpt><trkpt lat="42.9779935" lon="17.5360163"><ele>119.0</ele><time>2026-05-04T13:19:18.62Z</time></trkpt><trkpt lat="42.978153" lon="17.5361878"><ele>119.0</ele><time>2026-05-04T13:19:19.62Z</time></trkpt><trkpt lat="42.9783062" lon="17.5363812"><ele>119.0</ele><time>2026-05-04T13:19:20.62Z</time></trkpt><trkpt lat="42.9784524" lon="17.536586"><ele>118.33333333333333</ele><time>2026-05-04T13:19:21.62Z</time></trkpt><trkpt lat="42.9785981" lon="17.5367994"><ele>117.66666666666666</ele><time>2026-05-04T13:19:22.621Z</time></trkpt><trkpt lat="42.9787345" lon="17.5370048"><ele>117.0</ele><time>2026-05-04T13:19:23.621Z</time></trkpt><trkpt lat="42.9788651" lon="17.5372132"><ele>117.0</ele><time>2026-05-04T13:19:24.621Z</time></trkpt><trkpt lat="42.9789927" lon="17.5374114"><ele>117.0</ele><time>2026-05-04T13:19:25.62Z</time></trkpt><trkpt lat="42.9791175" lon="17.537608"><ele>117.0</ele><time>2026-05-04T13:19:26.621Z</time></trkpt><trkpt lat="42.979236" lon="17.5378133"><ele>109.66666666666667</ele><time>2026-05-04T13:19:27.621Z</time></trkpt><trkpt lat="42.9793426" lon="17.5380323"><ele>102.33333333333334</ele><time>2026-05-04T13:19:28.621Z</time></trkpt><trkpt lat="42.9794348" lon="17.5382633"><ele>95.0</ele><time>2026-05-04T13:19:29.62Z</time></trkpt><trkpt lat="42.9795099" lon="17.5385241"><ele>95.66666666666667</ele><time>2026-05-04T13:19:30.62Z</time></trkpt><trkpt lat="42.979555" lon="17.5388002"><ele>96.33333333333334</ele><time>2026-05-04T13:19:31.621Z</time></trkpt><trkpt lat="42.9795946" lon="17.5390816"><ele>97.0</ele><time>2026-05-04T13:19:32.621Z</time></trkpt><trkpt lat="42.9796166" lon="17.5393653"><ele>98.33333333333334</ele><time>2026-05-04T13:19:33.621Z</time></trkpt><trkpt lat="42.9796379" lon="17.5396461"><ele>99.66666666666666</ele><time>2026-05-04T13:19:34.62Z</time></trkpt><trkpt lat="42.9796639" lon="17.5399383"><ele>101.0</ele><time>2026-05-04T13:19:35.621Z</time></trkpt><trkpt lat="42.9796972" lon="17.540221"><ele>101.66666666666666</ele><time>2026-05-04T13:19:36.62Z</time></trkpt><trkpt lat="42.979748" lon="17.5405015"><ele>102.33333333333334</ele><time>2026-05-04T13:19:37.621Z</time></trkpt><trkpt lat="42.9798131" lon="17.5407783"><ele>103.0</ele><time>2026-05-04T13:19:38.62Z</time></trkpt><trkpt lat="42.9799011" lon="17.5410571"><ele>111.5</ele><time>2026-05-04T13:19:39.621Z</time></trkpt><trkpt lat="42.9800138" lon="17.5413328"><ele>120.0</ele><time>2026-05-04T13:19:40.62Z</time></trkpt><trkpt lat="42.9801449" lon="17.5416003"><ele>106.5</ele><time>2026-05-04T13:19:41.621Z</time></trkpt><trkpt lat="42.9802914" lon="17.5418797"><ele>93.0</ele><time>2026-05-04T13:19:42.62Z</time></trkpt><trkpt lat="42.9804419" lon="17.5421621"><ele>93.0</ele><time>2026-05-04T13:19:43.621Z</time></trkpt><trkpt lat="42.9806008" lon="17.5424428"><ele>93.0</ele><time>2026-05-04T13:19:44.621Z</time></trkpt><trkpt lat="42.9807603" lon="17.5427231"><ele>80.0</ele><time>2026-05-04T13:19:45.621Z</time></trkpt><trkpt lat="42.9809211" lon="17.542993"><ele>67.0</ele><time>2026-05-04T13:19:46.621Z</time></trkpt><trkpt lat="42.9810803" lon="17.5432661"><ele>67.0</ele><time>2026-05-04T13:19:47.62Z</time></trkpt><trkpt lat="42.9812353" lon="17.5435188"><ele>67.0</ele><time>2026-05-04T13:19:48.621Z</time></trkpt><trkpt lat="42.9813911" lon="17.5437645"><ele>57.5</ele><time>2026-05-04T13:19:49.621Z</time></trkpt><trkpt lat="42.9815412" lon="17.5440065"><ele>48.0</ele><time>2026-05-04T13:19:50.62Z</time></trkpt><trkpt lat="42.9816916" lon="17.5442398"><ele>48.0</ele><time>2026-05-04T13:19:51.621Z</time></trkpt><trkpt lat="42.9818361" lon="17.5444581"><ele>48.0</ele><time>2026-05-04T13:19:52.62Z</time></trkpt><trkpt lat="42.9819741" lon="17.5446557"><ele>48.0</ele><time>2026-05-04T13:19:53.621Z</time></trkpt><trkpt lat="42.9820991" lon="17.5448436"><ele>55.0</ele><time>2026-05-04T13:19:54.621Z</time></trkpt><trkpt lat="42.9822135" lon="17.5450332"><ele>62.0</ele><time>2026-05-04T13:19:55.621Z</time></trkpt><trkpt lat="42.9823124" lon="17.5452347"><ele>69.0</ele><time>2026-05-04T13:19:56.621Z</time></trkpt><trkpt lat="42.9823884" lon="17.5454594"><ele>69.33333333333333</ele><time>2026-05-04T13:19:57.621Z</time></trkpt><trkpt lat="42.9824422" lon="17.5457006"><ele>69.66666666666666</ele><time>2026-05-04T13:19:58.62Z</time></trkpt><trkpt lat="42.9824853" lon="17.5459352"><ele>70.0</ele><time>2026-05-04T13:19:59.621Z</time></trkpt><trkpt lat="42.9825244" lon="17.5461622"><ele>62.33333333333333</ele><time>2026-05-04T13:20:00.62Z</time></trkpt><trkpt lat="42.9825628" lon="17.5463831"><ele>54.666666666666664</ele><time>2026-05-04T13:20:01.62Z</time></trkpt><trkpt lat="42.9826198" lon="17.546606"><ele>47.0</ele><time>2026-05-04T13:20:02.62Z</time></trkpt><trkpt lat="42.9826967" lon="17.5468041"><ele>47.0</ele><time>2026-05-04T13:20:03.621Z</time></trkpt><trkpt lat="42.9827912" lon="17.5469784"><ele>47.0</ele><time>2026-05-04T13:20:04.621Z</time></trkpt><trkpt lat="42.9829066" lon="17.5471259"><ele>47.0</ele><time>2026-05-04T13:20:05.62Z</time></trkpt><trkpt lat="42.9830411" lon="17.5472455"><ele>51.666666666666664</ele><time>2026-05-04T13:20:06.62Z</time></trkpt><trkpt lat="42.9831937" lon="17.5473271"><ele>56.33333333333333</ele><time>2026-05-04T13:20:07.621Z</time></trkpt><trkpt lat="42.9833569" lon="17.5473671"><ele>61.0</ele><time>2026-05-04T13:20:08.621Z</time></trkpt><trkpt lat="42.9835247" lon="17.5473819"><ele>65.0</ele><time>2026-05-04T13:20:09.62Z</time></trkpt><trkpt lat="42.9836974" lon="17.5473513"><ele>69.0</ele><time>2026-05-04T13:20:10.62Z</time></trkpt><trkpt lat="42.9838525" lon="17.5472952"><ele>73.0</ele><time>2026-05-04T13:20:11.62Z</time></trkpt><trkpt lat="42.9840039" lon="17.5472135"><ele>73.0</ele><time>2026-05-04T13:20:12.62Z</time></trkpt><trkpt lat="42.9841493" lon="17.5471174"><ele>73.0</ele><time>2026-05-04T13:20:13.62Z</time></trkpt><trkpt lat="42.9842951" lon="17.5470169"><ele>73.0</ele><time>2026-05-04T13:20:14.62Z</time></trkpt><trkpt lat="42.9844335" lon="17.5469077"><ele>73.0</ele><time>2026-05-04T13:20:15.62Z</time></trkpt><trkpt lat="42.9845689" lon="17.5467983"><ele>73.0</ele><time>2026-05-04T13:20:16.62Z</time></trkpt><trkpt lat="42.9846976" lon="17.5466865"><ele>73.0</ele><time>2026-05-04T13:20:17.621Z</time></trkpt><trkpt lat="42.9848229" lon="17.5465766"><ele>73.0</ele><time>2026-05-04T13:20:18.621Z</time></trkpt><trkpt lat="42.9849586" lon="17.5464633"><ele>73.0</ele><time>2026-05-04T13:20:19.621Z</time></trkpt><trkpt lat="42.9850906" lon="17.5463524"><ele>73.0</ele><time>2026-05-04T13:20:20.621Z</time></trkpt><trkpt lat="42.9852191" lon="17.5462456"><ele>70.0</ele><time>2026-05-04T13:20:21.62Z</time></trkpt><trkpt lat="42.9853468" lon="17.5461368"><ele>67.0</ele><time>2026-05-04T13:20:22.621Z</time></trkpt><trkpt lat="42.9854742" lon="17.5460224"><ele>64.0</ele><time>2026-05-04T13:20:23.621Z</time></trkpt><trkpt lat="42.9856027" lon="17.5459139"><ele>64.0</ele><time>2026-05-04T13:20:24.62Z</time></trkpt><trkpt lat="42.9857248" lon="17.5458067"><ele>64.0</ele><time>2026-05-04T13:20:25.621Z</time></trkpt><trkpt lat="42.9858436" lon="17.5456974"><ele>64.0</ele><time>2026-05-04T13:20:26.621Z</time></trkpt><trkpt lat="42.9859618" lon="17.545595"><ele>64.0</ele><time>2026-05-04T13:20:27.62Z</time></trkpt><trkpt lat="42.9860832" lon="17.5454905"><ele>65.0</ele><time>2026-05-04T13:20:28.621Z</time></trkpt><trkpt lat="42.9862042" lon="17.545398"><ele>66.0</ele><time>2026-05-04T13:20:29.621Z</time></trkpt><trkpt lat="42.9863383" lon="17.5453124"><ele>67.0</ele><time>2026-05-04T13:20:30.621Z</time></trkpt><trkpt lat="42.9864778" lon="17.5452421"><ele>68.0</ele><time>2026-05-04T13:20:31.62Z</time></trkpt><trkpt lat="42.9866194" lon="17.545185"><ele>67.66666666666667</ele><time>2026-05-04T13:20:32.621Z</time></trkpt><trkpt lat="42.9867678" lon="17.5451428"><ele>67.33333333333333</ele><time>2026-05-04T13:20:33.621Z</time></trkpt><trkpt lat="42.9869146" lon="17.5451213"><ele>67.0</ele><time>2026-05-04T13:20:34.62Z</time></trkpt><trkpt lat="42.9870675" lon="17.5451241"><ele>67.0</ele><time>2026-05-04T13:20:35.621Z</time></trkpt><trkpt lat="42.9872344" lon="17.545142"><ele>67.0</ele><time>2026-05-04T13:20:36.62Z</time></trkpt><trkpt lat="42.9874056" lon="17.545168"><ele>67.0</ele><time>2026-05-04T13:20:37.621Z</time></trkpt><trkpt lat="42.9875742" lon="17.545209"><ele>66.66666666666666</ele><time>2026-05-04T13:20:38.62Z</time></trkpt><trkpt lat="42.9877398" lon="17.5452564"><ele>66.33333333333333</ele><time>2026-05-04T13:20:39.62Z</time></trkpt><trkpt lat="42.9879027" lon="17.5452999"><ele>66.0</ele><time>2026-05-04T13:20:40.621Z</time></trkpt><trkpt lat="42.9880589" lon="17.5453401"><ele>70.33333333333333</ele><time>2026-05-04T13:20:41.62Z</time></trkpt><trkpt lat="42.9882143" lon="17.5453808"><ele>74.66666666666666</ele><time>2026-05-04T13:20:42.621Z</time></trkpt><trkpt lat="42.9883689" lon="17.545424"><ele>79.0</ele><time>2026-05-04T13:20:43.621Z</time></trkpt><trkpt lat="42.9885209" lon="17.545466"><ele>79.0</ele><time>2026-05-04T13:20:44.621Z</time></trkpt><trkpt lat="42.9886738" lon="17.5455018"><ele>79.0</ele><time>2026-05-04T13:20:45.62Z</time></trkpt><trkpt lat="42.9888287" lon="17.545539"><ele>79.0</ele><time>2026-05-04T13:20:46.621Z</time></trkpt><trkpt lat="42.9889766" lon="17.5455773"><ele>79.0</ele><time>2026-05-04T13:20:47.62Z</time></trkpt><trkpt lat="42.9891252" lon="17.545612"><ele>79.0</ele><time>2026-05-04T13:20:48.62Z</time></trkpt><trkpt lat="42.9892776" lon="17.5456361"><ele>79.0</ele><time>2026-05-04T13:20:49.621Z</time></trkpt><trkpt lat="42.9894296" lon="17.5456603"><ele>76.66666666666666</ele><time>2026-05-04T13:20:50.621Z</time></trkpt><trkpt lat="42.9895835" lon="17.5456871"><ele>74.33333333333333</ele><time>2026-05-04T13:20:51.62Z</time></trkpt><trkpt lat="42.989736" lon="17.5457076"><ele>72.0</ele><time>2026-05-04T13:20:52.62Z</time></trkpt><trkpt lat="42.9898967" lon="17.5457248"><ele>71.0</ele><time>2026-05-04T13:20:53.62Z</time></trkpt><trkpt lat="42.990058" lon="17.5457394"><ele>70.0</ele><time>2026-05-04T13:20:54.62Z</time></trkpt><trkpt lat="42.9902194" lon="17.545753"><ele>69.0</ele><time>2026-05-04T13:20:55.62Z</time></trkpt><trkpt lat="42.9903782" lon="17.5457599"><ele>69.0</ele><time>2026-05-04T13:20:56.621Z</time></trkpt><trkpt lat="42.9905422" lon="17.5457677"><ele>69.0</ele><time>2026-05-04T13:20:57.62Z</time></trkpt><trkpt lat="42.9907067" lon="17.5457604"><ele>69.0</ele><time>2026-05-04T13:20:58.621Z</time></trkpt><trkpt lat="42.9908703" lon="17.5457356"><ele>68.0</ele><time>2026-05-04T13:20:59.62Z</time></trkpt><trkpt lat="42.9910343" lon="17.5456968"><ele>67.0</ele><time>2026-05-04T13:21:00.621Z</time></trkpt><trkpt lat="42.9911963" lon="17.5456475"><ele>66.0</ele><time>2026-05-04T13:21:01.621Z</time></trkpt><trkpt lat="42.9913582" lon="17.5455854"><ele>66.0</ele><time>2026-05-04T13:21:02.62Z</time></trkpt><trkpt lat="42.9915199" lon="17.5455156"><ele>66.0</ele><time>2026-05-04T13:21:03.621Z</time></trkpt><trkpt lat="42.9916755" lon="17.5454289"><ele>66.0</ele><time>2026-05-04T13:21:04.62Z</time></trkpt><trkpt lat="42.9918226" lon="17.5453294"><ele>67.66666666666667</ele><time>2026-05-04T13:21:05.621Z</time></trkpt><trkpt lat="42.9919661" lon="17.5452227"><ele>69.33333333333334</ele><time>2026-05-04T13:21:06.62Z</time></trkpt><trkpt lat="42.9921031" lon="17.5451098"><ele>71.0</ele><time>2026-05-04T13:21:07.621Z</time></trkpt><trkpt lat="42.9922374" lon="17.5449809"><ele>71.0</ele><time>2026-05-04T13:21:08.62Z</time></trkpt><trkpt lat="42.9923674" lon="17.5448389"><ele>71.0</ele><time>2026-05-04T13:21:09.621Z</time></trkpt><trkpt lat="42.9924917" lon="17.5446886"><ele>71.0</ele><time>2026-05-04T13:21:10.621Z</time></trkpt><trkpt lat="42.9926112" lon="17.5445332"><ele>75.66666666666667</ele><time>2026-05-04T13:21:11.62Z</time></trkpt><trkpt lat="42.9927289" lon="17.5443765"><ele>80.33333333333333</ele><time>2026-05-04T13:21:12.62Z</time></trkpt><trkpt lat="42.9928386" lon="17.5442154"><ele>85.0</ele><time>2026-05-04T13:21:13.62Z</time></trkpt><trkpt lat="42.9929462" lon="17.5440451"><ele>85.0</ele><time>2026-05-04T13:21:14.62Z</time></trkpt><trkpt lat="42.9930544" lon="17.5438781"><ele>85.0</ele><time>2026-05-04T13:21:15.621Z</time></trkpt><trkpt lat="42.9931663" lon="17.5437055"><ele>85.0</ele><time>2026-05-04T13:21:16.621Z</time></trkpt><trkpt lat="42.993272" lon="17.5435343"><ele>87.0</ele><time>2026-05-04T13:21:17.621Z</time></trkpt><trkpt lat="42.9933822" lon="17.5433534"><ele>89.0</ele><time>2026-05-04T13:21:18.621Z</time></trkpt><trkpt lat="42.9934879" lon="17.5431793"><ele>91.0</ele><time>2026-05-04T13:21:19.62Z</time></trkpt><trkpt lat="42.9936003" lon="17.5430051"><ele>83.66666666666666</ele><time>2026-05-04T13:21:20.62Z</time></trkpt><trkpt lat="42.9937244" lon="17.5428149"><ele>76.33333333333333</ele><time>2026-05-04T13:21:21.62Z</time></trkpt><trkpt lat="42.9938315" lon="17.5426464"><ele>69.0</ele><time>2026-05-04T13:21:22.621Z</time></trkpt><trkpt lat="42.9939368" lon="17.5424724"><ele>69.0</ele><time>2026-05-04T13:21:23.621Z</time></trkpt><trkpt lat="42.9940422" lon="17.5422914"><ele>69.0</ele><time>2026-05-04T13:21:24.62Z</time></trkpt><trkpt lat="42.9941495" lon="17.5421147"><ele>69.0</ele><time>2026-05-04T13:21:25.62Z</time></trkpt><trkpt lat="42.9942574" lon="17.5419379"><ele>68.66666666666667</ele><time>2026-05-04T13:21:26.621Z</time></trkpt><trkpt lat="42.9943672" lon="17.5417761"><ele>68.33333333333334</ele><time>2026-05-04T13:21:27.62Z</time></trkpt><trkpt lat="42.9944858" lon="17.5416306"><ele>68.0</ele><time>2026-05-04T13:21:28.62Z</time></trkpt><trkpt lat="42.9946036" lon="17.541494"><ele>68.0</ele><time>2026-05-04T13:21:29.62Z</time></trkpt><trkpt lat="42.9947256" lon="17.5413841"><ele>68.0</ele><time>2026-05-04T13:21:30.621Z</time></trkpt><trkpt lat="42.9948504" lon="17.5412974"><ele>68.0</ele><time>2026-05-04T13:21:31.621Z</time></trkpt><trkpt lat="42.9949749" lon="17.5412365"><ele>68.0</ele><time>2026-05-04T13:21:32.62Z</time></trkpt><trkpt lat="42.995099" lon="17.5411978"><ele>67.25</ele><time>2026-05-04T13:21:33.62Z</time></trkpt><trkpt lat="42.9952502" lon="17.5411869"><ele>66.5</ele><time>2026-05-04T13:21:34.621Z</time></trkpt><trkpt lat="42.9953933" lon="17.5411958"><ele>65.75</ele><time>2026-05-04T13:21:35.62Z</time></trkpt><trkpt lat="42.9955421" lon="17.5412336"><ele>65.0</ele><time>2026-05-04T13:21:36.62Z</time></trkpt><trkpt lat="42.9956898" lon="17.5412999"><ele>65.0</ele><time>2026-05-04T13:21:37.621Z</time></trkpt><trkpt lat="42.9958318" lon="17.5413929"><ele>65.0</ele><time>2026-05-04T13:21:38.62Z</time></trkpt><trkpt lat="42.9959666" lon="17.5414941"><ele>65.0</ele><time>2026-05-04T13:21:39.62Z</time></trkpt><trkpt lat="42.9960889" lon="17.5416222"><ele>57.333333333333336</ele><time>2026-05-04T13:21:40.62Z</time></trkpt><trkpt lat="42.9961977" lon="17.5417754"><ele>49.66666666666667</ele><time>2026-05-04T13:21:41.62Z</time></trkpt><trkpt lat="42.9962933" lon="17.5419466"><ele>42.0</ele><time>2026-05-04T13:21:42.621Z</time></trkpt><trkpt lat="42.9963694" lon="17.5421199"><ele>42.0</ele><time>2026-05-04T13:21:43.621Z</time></trkpt><trkpt lat="42.9964359" lon="17.5423018"><ele>42.0</ele><time>2026-05-04T13:21:44.621Z</time></trkpt><trkpt lat="42.9964963" lon="17.5424949"><ele>42.0</ele><time>2026-05-04T13:21:45.62Z</time></trkpt><trkpt lat="42.9965469" lon="17.5426925"><ele>43.666666666666664</ele><time>2026-05-04T13:21:46.621Z</time></trkpt><trkpt lat="42.9965975" lon="17.5428954"><ele>45.33333333333333</ele><time>2026-05-04T13:21:47.621Z</time></trkpt><trkpt lat="42.9966472" lon="17.5430921"><ele>47.0</ele><time>2026-05-04T13:21:48.62Z</time></trkpt><trkpt lat="42.9966851" lon="17.5432967"><ele>38.33333333333333</ele><time>2026-05-04T13:21:49.62Z</time></trkpt><trkpt lat="42.996731" lon="17.5435068"><ele>29.666666666666664</ele><time>2026-05-04T13:21:50.621Z</time></trkpt><trkpt lat="42.996779" lon="17.5437188"><ele>21.0</ele><time>2026-05-04T13:21:51.621Z</time></trkpt><trkpt lat="42.9968258" lon="17.5439143"><ele>21.0</ele><time>2026-05-04T13:21:52.621Z</time></trkpt><trkpt lat="42.9968814" lon="17.5440999"><ele>21.0</ele><time>2026-05-04T13:21:53.621Z</time></trkpt><trkpt lat="42.9969484" lon="17.5442742"><ele>21.0</ele><time>2026-05-04T13:21:54.621Z</time></trkpt><trkpt lat="42.9970227" lon="17.5444449"><ele>21.0</ele><time>2026-05-04T13:21:55.621Z</time></trkpt><trkpt lat="42.9971106" lon="17.5445842"><ele>24.0</ele><time>2026-05-04T13:21:56.621Z</time></trkpt><trkpt lat="42.9971986" lon="17.5447319"><ele>27.0</ele><time>2026-05-04T13:21:57.621Z</time></trkpt><trkpt lat="42.9972884" lon="17.5448813"><ele>30.0</ele><time>2026-05-04T13:21:58.621Z</time></trkpt><trkpt lat="42.9973839" lon="17.5450331"><ele>33.0</ele><time>2026-05-04T13:21:59.62Z</time></trkpt><trkpt lat="42.9974689" lon="17.5451947"><ele>30.5</ele><time>2026-05-04T13:22:00.62Z</time></trkpt><trkpt lat="42.9975439" lon="17.5453649"><ele>28.0</ele><time>2026-05-04T13:22:01.621Z</time></trkpt><trkpt lat="42.9976012" lon="17.5455494"><ele>25.5</ele><time>2026-05-04T13:22:02.621Z</time></trkpt><trkpt lat="42.9976423" lon="17.5457379"><ele>23.0</ele><time>2026-05-04T13:22:03.621Z</time></trkpt><trkpt lat="42.9976723" lon="17.5459267"><ele>23.0</ele><time>2026-05-04T13:22:04.621Z</time></trkpt><trkpt lat="42.9976978" lon="17.546119"><ele>23.0</ele><time>2026-05-04T13:22:05.62Z</time></trkpt><trkpt lat="42.9977266" lon="17.5463117"><ele>23.0</ele><time>2026-05-04T13:22:06.621Z</time></trkpt><trkpt lat="42.9977624" lon="17.5464883"><ele>23.0</ele><time>2026-05-04T13:22:07.621Z</time></trkpt><trkpt lat="42.9978115" lon="17.5466548"><ele>23.25</ele><time>2026-05-04T13:22:08.62Z</time></trkpt><trkpt lat="42.9978754" lon="17.5468018"><ele>23.5</ele><time>2026-05-04T13:22:09.621Z</time></trkpt><trkpt lat="42.9979555" lon="17.5469369"><ele>23.75</ele><time>2026-05-04T13:22:10.62Z</time></trkpt><trkpt lat="42.998047" lon="17.547059"><ele>24.0</ele><time>2026-05-04T13:22:11.62Z</time></trkpt><trkpt lat="42.9981472" lon="17.5471813"><ele>25.75</ele><time>2026-05-04T13:22:12.62Z</time></trkpt><trkpt lat="42.9982472" lon="17.5473051"><ele>27.5</ele><time>2026-05-04T13:22:13.621Z</time></trkpt><trkpt lat="42.9983442" lon="17.5474417"><ele>29.25</ele><time>2026-05-04T13:22:14.62Z</time></trkpt><trkpt lat="42.9984361" lon="17.5475922"><ele>31.0</ele><time>2026-05-04T13:22:15.621Z</time></trkpt><trkpt lat="42.9985132" lon="17.5477505"><ele>24.5</ele><time>2026-05-04T13:22:16.62Z</time></trkpt><trkpt lat="42.9985698" lon="17.5479164"><ele>18.0</ele><time>2026-05-04T13:22:17.62Z</time></trkpt><trkpt lat="42.998589" lon="17.5480976"><ele>11.5</ele><time>2026-05-04T13:22:18.621Z</time></trkpt><trkpt lat="42.9985756" lon="17.5482832"><ele>5.0</ele><time>2026-05-04T13:22:19.62Z</time></trkpt><trkpt lat="42.9985513" lon="17.5484631"><ele>5.0</ele><time>2026-05-04T13:22:20.621Z</time></trkpt><trkpt lat="42.9985235" lon="17.5486464"><ele>5.0</ele><time>2026-05-04T13:22:21.621Z</time></trkpt><trkpt lat="42.9985034" lon="17.548826"><ele>5.0</ele><time>2026-05-04T13:22:22.621Z</time></trkpt><trkpt lat="42.9984878" lon="17.549018"><ele>5.0</ele><time>2026-05-04T13:22:23.62Z</time></trkpt><trkpt lat="42.998489" lon="17.5491985"><ele>4.25</ele><time>2026-05-04T13:22:24.621Z</time></trkpt><trkpt lat="42.9985126" lon="17.5493824"><ele>3.5</ele><time>2026-05-04T13:22:25.621Z</time></trkpt><trkpt lat="42.9985556" lon="17.5495492"><ele>2.75</ele><time>2026-05-04T13:22:26.62Z</time></trkpt><trkpt lat="42.9986288" lon="17.5497218"><ele>2.0</ele><time>2026-05-04T13:22:27.621Z</time></trkpt><trkpt lat="42.9987376" lon="17.5498881"><ele>1.6666666666666665</ele><time>2026-05-04T13:22:28.621Z</time></trkpt><trkpt lat="42.9988762" lon="17.5500531"><ele>1.3333333333333333</ele><time>2026-05-04T13:22:29.62Z</time></trkpt><trkpt lat="42.9990423" lon="17.5502466"><ele>1.0</ele><time>2026-05-04T13:22:30.62Z</time></trkpt><trkpt lat="42.9992148" lon="17.5504686"><ele>1.0</ele><time>2026-05-04T13:22:31.621Z</time></trkpt><trkpt lat="42.9993909" lon="17.5507026"><ele>1.0</ele><time>2026-05-04T13:22:32.62Z</time></trkpt><trkpt lat="42.9995521" lon="17.5509305"><ele>1.0</ele><time>2026-05-04T13:22:33.62Z</time></trkpt><trkpt lat="42.9997022" lon="17.5511607"><ele>1.0</ele><time>2026-05-04T13:22:34.621Z</time></trkpt><trkpt lat="42.999842" lon="17.5513776"><ele>1.0</ele><time>2026-05-04T13:22:35.62Z</time></trkpt><trkpt lat="42.9999862" lon="17.5515741"><ele>5.333333333333334</ele><time>2026-05-04T13:22:36.62Z</time></trkpt><trkpt lat="43.0001282" lon="17.5517439"><ele>9.666666666666668</ele><time>2026-05-04T13:22:37.62Z</time></trkpt><trkpt lat="43.0002936" lon="17.5518617"><ele>14.0</ele><time>2026-05-04T13:22:38.621Z</time></trkpt><trkpt lat="43.0004635" lon="17.5519579"><ele>14.0</ele><time>2026-05-04T13:22:39.621Z</time></trkpt><trkpt lat="43.0006444" lon="17.5520103"><ele>14.0</ele><time>2026-05-04T13:22:40.62Z</time></trkpt><trkpt lat="43.000844" lon="17.5520167"><ele>14.0</ele><time>2026-05-04T13:22:41.621Z</time></trkpt><trkpt lat="43.0010587" lon="17.5519707"><ele>10.5</ele><time>2026-05-04T13:22:42.621Z</time></trkpt><trkpt lat="43.0012987" lon="17.5519061"><ele>7.0</ele><time>2026-05-04T13:22:43.621Z</time></trkpt><trkpt lat="43.0015385" lon="17.5518347"><ele>9.0</ele><time>2026-05-04T13:22:44.621Z</time></trkpt><trkpt lat="43.0017899" lon="17.5517508"><ele>11.0</ele><time>2026-05-04T13:22:45.621Z</time></trkpt><trkpt lat="43.0020553" lon="17.551668"><ele>11.0</ele><time>2026-05-04T13:22:46.621Z</time></trkpt><trkpt lat="43.002323" lon="17.5515771"><ele>11.0</ele><time>2026-05-04T13:22:47.62Z</time></trkpt><trkpt lat="43.0026" lon="17.5514681"><ele>17.0</ele><time>2026-05-04T13:22:48.62Z</time></trkpt><trkpt lat="43.0028638" lon="17.5513613"><ele>23.0</ele><time>2026-05-04T13:22:49.621Z</time></trkpt><trkpt lat="43.0031195" lon="17.5512545"><ele>14.5</ele><time>2026-05-04T13:22:50.62Z</time></trkpt><trkpt lat="43.003368" lon="17.5511435"><ele>6.0</ele><time>2026-05-04T13:22:51.62Z</time></trkpt><trkpt lat="43.0036161" lon="17.5510302"><ele>6.0</ele><time>2026-05-04T13:22:52.62Z</time></trkpt><trkpt lat="43.0038513" lon="17.5509247"><ele>6.0</ele><time>2026-05-04T13:22:53.621Z</time></trkpt><trkpt lat="43.0040799" lon="17.5508182"><ele>9.5</ele><time>2026-05-04T13:22:54.621Z</time></trkpt><trkpt lat="43.0042952" lon="17.5507108"><ele>13.0</ele><time>2026-05-04T13:22:55.62Z</time></trkpt><trkpt lat="43.0045068" lon="17.5506244"><ele>13.0</ele><time>2026-05-04T13:22:56.62Z</time></trkpt><trkpt lat="43.004718" lon="17.5505568"><ele>13.0</ele><time>2026-05-04T13:22:57.62Z</time></trkpt><trkpt lat="43.00494" lon="17.5505073"><ele>13.0</ele><time>2026-05-04T13:22:58.621Z</time></trkpt><trkpt lat="43.0051707" lon="17.5504767"><ele>16.0</ele><time>2026-05-04T13:22:59.621Z</time></trkpt><trkpt lat="43.0053883" lon="17.5504466"><ele>19.0</ele><time>2026-05-04T13:23:00.62Z</time></trkpt><trkpt lat="43.0056077" lon="17.5504193"><ele>22.0</ele><time>2026-05-04T13:23:01.62Z</time></trkpt><trkpt lat="43.0058233" lon="17.5503958"><ele>24.0</ele><time>2026-05-04T13:23:02.62Z</time></trkpt><trkpt lat="43.0060266" lon="17.5503845"><ele>26.0</ele><time>2026-05-04T13:23:03.62Z</time></trkpt><trkpt lat="43.0062198" lon="17.5503769"><ele>28.0</ele><time>2026-05-04T13:23:04.621Z</time></trkpt><trkpt lat="43.0064106" lon="17.5503895"><ele>28.0</ele><time>2026-05-04T13:23:05.621Z</time></trkpt><trkpt lat="43.0065933" lon="17.5503991"><ele>28.0</ele><time>2026-05-04T13:23:06.62Z</time></trkpt><trkpt lat="43.0067697" lon="17.55041"><ele>28.0</ele><time>2026-05-04T13:23:07.621Z</time></trkpt><trkpt lat="43.0069379" lon="17.5504252"><ele>27.0</ele><time>2026-05-04T13:23:08.621Z</time></trkpt><trkpt lat="43.0071031" lon="17.5504458"><ele>26.0</ele><time>2026-05-04T13:23:09.62Z</time></trkpt><trkpt lat="43.007256" lon="17.5504685"><ele>25.0</ele><time>2026-05-04T13:23:10.62Z</time></trkpt><trkpt lat="43.0074055" lon="17.5504858"><ele>20.75</ele><time>2026-05-04T13:23:11.621Z</time></trkpt><trkpt lat="43.0075414" lon="17.5504988"><ele>16.5</ele><time>2026-05-04T13:23:12.621Z</time></trkpt><trkpt lat="43.0076833" lon="17.5505159"><ele>12.25</ele><time>2026-05-04T13:23:13.621Z</time></trkpt><trkpt lat="43.0078248" lon="17.5505246"><ele>8.0</ele><time>2026-05-04T13:23:14.621Z</time></trkpt><trkpt lat="43.0079665" lon="17.5505358"><ele>8.0</ele><time>2026-05-04T13:23:15.62Z</time></trkpt><trkpt lat="43.0081134" lon="17.5505514"><ele>8.0</ele><time>2026-05-04T13:23:16.621Z</time></trkpt><trkpt lat="43.00826" lon="17.5505676"><ele>8.0</ele><time>2026-05-04T13:23:17.621Z</time></trkpt><trkpt lat="43.0084068" lon="17.5505801"><ele>8.0</ele><time>2026-05-04T13:23:18.621Z</time></trkpt><trkpt lat="43.0085539" lon="17.550592"><ele>6.25</ele><time>2026-05-04T13:23:19.62Z</time></trkpt><trkpt lat="43.0087009" lon="17.550612"><ele>4.5</ele><time>2026-05-04T13:23:20.62Z</time></trkpt><trkpt lat="43.0088474" lon="17.5506216"><ele>2.75</ele><time>2026-05-04T13:23:21.621Z</time></trkpt><trkpt lat="43.0089937" lon="17.5506368"><ele>1.0</ele><time>2026-05-04T13:23:22.621Z</time></trkpt><trkpt lat="43.0091361" lon="17.5506464"><ele>0.5</ele><time>2026-05-04T13:23:23.621Z</time></trkpt><trkpt lat="43.009278" lon="17.5506628"><ele>0.0</ele><time>2026-05-04T13:23:24.621Z</time></trkpt><trkpt lat="43.0094208" lon="17.5506836"><ele>-0.5</ele><time>2026-05-04T13:23:25.621Z</time></trkpt><trkpt lat="43.0095616" lon="17.5507016"><ele>-1.0</ele><time>2026-05-04T13:23:26.621Z</time></trkpt><trkpt lat="43.009702" lon="17.550719"><ele>-1.0</ele><time>2026-05-04T13:23:27.62Z</time></trkpt><trkpt lat="43.0098367" lon="17.5507309"><ele>-1.0</ele><time>2026-05-04T13:23:28.621Z</time></trkpt><trkpt lat="43.0099771" lon="17.5507422"><ele>-1.0</ele><time>2026-05-04T13:23:29.621Z</time></trkpt><trkpt lat="43.0101176" lon="17.550752"><ele>-1.0</ele><time>2026-05-04T13:23:30.621Z</time></trkpt><trkpt lat="43.0102632" lon="17.5507676"><ele>-0.75</ele><time>2026-05-04T13:23:31.621Z</time></trkpt><trkpt lat="43.0104079" lon="17.5507806"><ele>-0.5</ele><time>2026-05-04T13:23:32.621Z</time></trkpt><trkpt lat="43.0105468" lon="17.5507905"><ele>-0.25</ele><time>2026-05-04T13:23:33.62Z</time></trkpt><trkpt lat="43.0106915" lon="17.5508021"><ele>0.0</ele><time>2026-05-04T13:23:34.621Z</time></trkpt><trkpt lat="43.0108365" lon="17.5508139"><ele>0.25</ele><time>2026-05-04T13:23:35.62Z</time></trkpt><trkpt lat="43.0109811" lon="17.550825"><ele>0.5</ele><time>2026-05-04T13:23:36.621Z</time></trkpt><trkpt lat="43.0111278" lon="17.5508388"><ele>0.75</ele><time>2026-05-04T13:23:37.62Z</time></trkpt><trkpt lat="43.0112709" lon="17.5508541"><ele>1.0</ele><time>2026-05-04T13:23:38.621Z</time></trkpt><trkpt lat="43.0114143" lon="17.5508688"><ele>1.0</ele><time>2026-05-04T13:23:39.621Z</time></trkpt><trkpt lat="43.0115563" lon="17.5508843"><ele>1.0</ele><time>2026-05-04T13:23:40.621Z</time></trkpt><trkpt lat="43.0116971" lon="17.5508998"><ele>1.0</ele><time>2026-05-04T13:23:41.621Z</time></trkpt><trkpt lat="43.0118376" lon="17.550912"><ele>1.0</ele><time>2026-05-04T13:23:42.621Z</time></trkpt><trkpt lat="43.0119751" lon="17.5509278"><ele>0.75</ele><time>2026-05-04T13:23:43.621Z</time></trkpt><trkpt lat="43.0121094" lon="17.5509422"><ele>0.5</ele><time>2026-05-04T13:23:44.621Z</time></trkpt><trkpt lat="43.0122424" lon="17.5509561"><ele>0.25</ele><time>2026-05-04T13:23:45.621Z</time></trkpt><trkpt lat="43.012379" lon="17.5509729"><ele>0.0</ele><time>2026-05-04T13:23:46.621Z</time></trkpt><trkpt lat="43.0125205" lon="17.5509898"><ele>-0.25</ele><time>2026-05-04T13:23:47.62Z</time></trkpt><trkpt lat="43.0126645" lon="17.5510092"><ele>-0.5</ele><time>2026-05-04T13:23:48.621Z</time></trkpt><trkpt lat="43.0128078" lon="17.5510272"><ele>-0.75</ele><time>2026-05-04T13:23:49.62Z</time></trkpt><trkpt lat="43.0129511" lon="17.5510455"><ele>-1.0</ele><time>2026-05-04T13:23:50.621Z</time></trkpt><trkpt lat="43.0130895" lon="17.5510604"><ele>-1.0</ele><time>2026-05-04T13:23:51.621Z</time></trkpt><trkpt lat="43.0132371" lon="17.5510744"><ele>-1.0</ele><time>2026-05-04T13:23:52.621Z</time></trkpt><trkpt lat="43.0133862" lon="17.5510906"><ele>-1.0</ele><time>2026-05-04T13:23:53.621Z</time></trkpt><trkpt lat="43.0135309" lon="17.5511016"><ele>-1.0</ele><time>2026-05-04T13:23:54.621Z</time></trkpt><trkpt lat="43.0136795" lon="17.5511167"><ele>-2.0</ele><time>2026-05-04T13:23:55.62Z</time></trkpt><trkpt lat="43.0138297" lon="17.5511297"><ele>-3.0</ele><time>2026-05-04T13:23:56.62Z</time></trkpt><trkpt lat="43.0139833" lon="17.5511409"><ele>-4.0</ele><time>2026-05-04T13:23:57.621Z</time></trkpt><trkpt lat="43.0141416" lon="17.5511533"><ele>-3.0</ele><time>2026-05-04T13:23:58.62Z</time></trkpt><trkpt lat="43.0143034" lon="17.551165"><ele>-2.0</ele><time>2026-05-04T13:23:59.621Z</time></trkpt><trkpt lat="43.0144685" lon="17.5511771"><ele>-1.0</ele><time>2026-05-04T13:24:00.62Z</time></trkpt><trkpt lat="43.0146318" lon="17.5511927"><ele>-1.6666666666666665</ele><time>2026-05-04T13:24:01.62Z</time></trkpt><trkpt lat="43.0148022" lon="17.5512118"><ele>-2.3333333333333335</ele><time>2026-05-04T13:24:02.62Z</time></trkpt><trkpt lat="43.0149748" lon="17.5512264"><ele>-3.0</ele><time>2026-05-04T13:24:03.62Z</time></trkpt><trkpt lat="43.0151496" lon="17.5512383"><ele>-3.0</ele><time>2026-05-04T13:24:04.62Z</time></trkpt><trkpt lat="43.0153207" lon="17.5512554"><ele>-3.0</ele><time>2026-05-04T13:24:05.62Z</time></trkpt><trkpt lat="43.0154976" lon="17.551273"><ele>-3.0</ele><time>2026-05-04T13:24:06.621Z</time></trkpt><trkpt lat="43.0156724" lon="17.5512898"><ele>-3.0</ele><time>2026-05-04T13:24:07.62Z</time></trkpt><trkpt lat="43.0158535" lon="17.551309"><ele>-3.0</ele><time>2026-05-04T13:24:08.621Z</time></trkpt><trkpt lat="43.016037" lon="17.5513241"><ele>-3.0</ele><time>2026-05-04T13:24:09.62Z</time></trkpt><trkpt lat="43.0162187" lon="17.551342"><ele>-3.0</ele><time>2026-05-04T13:24:10.62Z</time></trkpt><trkpt lat="43.0163994" lon="17.5513525"><ele>-3.0</ele><time>2026-05-04T13:24:11.62Z</time></trkpt><trkpt lat="43.0165892" lon="17.5513734"><ele>-3.0</ele><time>2026-05-04T13:24:12.62Z</time></trkpt><trkpt lat="43.0167825" lon="17.5513936"><ele>-2.6666666666666665</ele><time>2026-05-04T13:24:13.62Z</time></trkpt><trkpt lat="43.0169806" lon="17.5514082"><ele>-2.333333333333333</ele><time>2026-05-04T13:24:14.621Z</time></trkpt><trkpt lat="43.017178" lon="17.5514149"><ele>-2.0</ele><time>2026-05-04T13:24:15.62Z</time></trkpt><trkpt lat="43.0173754" lon="17.5514251"><ele>-1.6666666666666665</ele><time>2026-05-04T13:24:16.62Z</time></trkpt><trkpt lat="43.0175831" lon="17.5514396"><ele>-1.3333333333333333</ele><time>2026-05-04T13:24:17.621Z</time></trkpt><trkpt lat="43.0177918" lon="17.5514521"><ele>-1.0</ele><time>2026-05-04T13:24:18.62Z</time></trkpt><trkpt lat="43.0180005" lon="17.5514652"><ele>-1.0</ele><time>2026-05-04T13:24:19.621Z</time></trkpt><trkpt lat="43.0182114" lon="17.551478"><ele>-1.0</ele><time>2026-05-04T13:24:20.62Z</time></trkpt><trkpt lat="43.0184201" lon="17.5514898"><ele>-1.0</ele><time>2026-05-04T13:24:21.621Z</time></trkpt><trkpt lat="43.0186349" lon="17.5514961"><ele>-0.6666666666666666</ele><time>2026-05-04T13:24:22.62Z</time></trkpt><trkpt lat="43.0188444" lon="17.5514988"><ele>-0.3333333333333333</ele><time>2026-05-04T13:24:23.62Z</time></trkpt><trkpt lat="43.019052" lon="17.5515062"><ele>0.0</ele><time>2026-05-04T13:24:24.62Z</time></trkpt><trkpt lat="43.0192602" lon="17.5515113"><ele>0.0</ele><time>2026-05-04T13:24:25.62Z</time></trkpt><trkpt lat="43.0194674" lon="17.5515154"><ele>0.0</ele><time>2026-05-04T13:24:26.62Z</time></trkpt><trkpt lat="43.0196778" lon="17.5515137"><ele>0.0</ele><time>2026-05-04T13:24:27.621Z</time></trkpt><trkpt lat="43.0198884" lon="17.5515121"><ele>0.3333333333333333</ele><time>2026-05-04T13:24:28.621Z</time></trkpt><trkpt lat="43.0201015" lon="17.5515099"><ele>0.6666666666666666</ele><time>2026-05-04T13:24:29.621Z</time></trkpt><trkpt lat="43.0203144" lon="17.5515028"><ele>1.0</ele><time>2026-05-04T13:24:30.62Z</time></trkpt><trkpt lat="43.0205312" lon="17.5515004"><ele>1.0</ele><time>2026-05-04T13:24:31.621Z</time></trkpt><trkpt lat="43.0207452" lon="17.5514962"><ele>1.0</ele><time>2026-05-04T13:24:32.62Z</time></trkpt><trkpt lat="43.0209659" lon="17.5514907"><ele>1.0</ele><time>2026-05-04T13:24:33.62Z</time></trkpt><trkpt lat="43.0211888" lon="17.5514926"><ele>0.0</ele><time>2026-05-04T13:24:34.621Z</time></trkpt><trkpt lat="43.0214112" lon="17.55149"><ele>-1.0</ele><time>2026-05-04T13:24:35.62Z</time></trkpt><trkpt lat="43.0216461" lon="17.5514811"><ele>-0.5</ele><time>2026-05-04T13:24:36.621Z</time></trkpt><trkpt lat="43.021897" lon="17.551454"><ele>0.0</ele><time>2026-05-04T13:24:37.62Z</time></trkpt><trkpt lat="43.0221447" lon="17.5514484"><ele>0.0</ele><time>2026-05-04T13:24:38.621Z</time></trkpt><trkpt lat="43.022385" lon="17.5514491"><ele>0.0</ele><time>2026-05-04T13:24:39.621Z</time></trkpt><trkpt lat="43.022617" lon="17.5514511"><ele>0.3333333333333333</ele><time>2026-05-04T13:24:40.62Z</time></trkpt><trkpt lat="43.0228356" lon="17.5514535"><ele>0.6666666666666666</ele><time>2026-05-04T13:24:41.621Z</time></trkpt><trkpt lat="43.0230437" lon="17.5514514"><ele>1.0</ele><time>2026-05-04T13:24:42.62Z</time></trkpt><trkpt lat="43.0232463" lon="17.5514532"><ele>0.6666666666666666</ele><time>2026-05-04T13:24:43.621Z</time></trkpt><trkpt lat="43.0234393" lon="17.5514531"><ele>0.3333333333333333</ele><time>2026-05-04T13:24:44.621Z</time></trkpt><trkpt lat="43.0236352" lon="17.551452"><ele>0.0</ele><time>2026-05-04T13:24:45.62Z</time></trkpt><trkpt lat="43.0238294" lon="17.5514535"><ele>0.0</ele><time>2026-05-04T13:24:46.621Z</time></trkpt><trkpt lat="43.0240242" lon="17.5514553"><ele>0.0</ele><time>2026-05-04T13:24:47.62Z</time></trkpt><trkpt lat="43.0242202" lon="17.5514528"><ele>0.0</ele><time>2026-05-04T13:24:48.621Z</time></trkpt><trkpt lat="43.0244159" lon="17.5514483"><ele>0.6666666666666666</ele><time>2026-05-04T13:24:49.62Z</time></trkpt><trkpt lat="43.0246127" lon="17.5514448"><ele>1.3333333333333333</ele><time>2026-05-04T13:24:50.62Z</time></trkpt><trkpt lat="43.0248117" lon="17.5514433"><ele>2.0</ele><time>2026-05-04T13:24:51.621Z</time></trkpt><trkpt lat="43.0250089" lon="17.5514434"><ele>2.333333333333333</ele><time>2026-05-04T13:24:52.62Z</time></trkpt><trkpt lat="43.0252064" lon="17.5514403"><ele>2.6666666666666665</ele><time>2026-05-04T13:24:53.621Z</time></trkpt><trkpt lat="43.0254008" lon="17.551438"><ele>3.0</ele><time>2026-05-04T13:24:54.62Z</time></trkpt><trkpt lat="43.025595" lon="17.5514366"><ele>3.0</ele><time>2026-05-04T13:24:55.621Z</time></trkpt><trkpt lat="43.0257867" lon="17.551437"><ele>3.0</ele><time>2026-05-04T13:24:56.62Z</time></trkpt><trkpt lat="43.0259728" lon="17.5514325"><ele>3.0</ele><time>2026-05-04T13:24:57.62Z</time></trkpt><trkpt lat="43.0261489" lon="17.5514323"><ele>2.0</ele><time>2026-05-04T13:24:58.62Z</time></trkpt><trkpt lat="43.026322" lon="17.5514287"><ele>1.0</ele><time>2026-05-04T13:24:59.621Z</time></trkpt><trkpt lat="43.0264882" lon="17.551425"><ele>0.0</ele><time>2026-05-04T13:25:00.621Z</time></trkpt><trkpt lat="43.0266581" lon="17.551427"><ele>0.0</ele><time>2026-05-04T13:25:01.621Z</time></trkpt><trkpt lat="43.0268307" lon="17.551424"><ele>0.0</ele><time>2026-05-04T13:25:02.62Z</time></trkpt><trkpt lat="43.0270107" lon="17.5514172"><ele>0.0</ele><time>2026-05-04T13:25:03.621Z</time></trkpt><trkpt lat="43.0271951" lon="17.5514144"><ele>0.0</ele><time>2026-05-04T13:25:04.621Z</time></trkpt><trkpt lat="43.0273806" lon="17.551409"><ele>0.0</ele><time>2026-05-04T13:25:05.62Z</time></trkpt><trkpt lat="43.0275703" lon="17.5514084"><ele>0.0</ele><time>2026-05-04T13:25:06.621Z</time></trkpt><trkpt lat="43.0277537" lon="17.5514103"><ele>0.3333333333333333</ele><time>2026-05-04T13:25:07.62Z</time></trkpt><trkpt lat="43.0279351" lon="17.55141"><ele>0.6666666666666666</ele><time>2026-05-04T13:25:08.621Z</time></trkpt><trkpt lat="43.0281207" lon="17.5514091"><ele>1.0</ele><time>2026-05-04T13:25:09.62Z</time></trkpt><trkpt lat="43.0283021" lon="17.551407"><ele>0.3333333333333333</ele><time>2026-05-04T13:25:10.62Z</time></trkpt><trkpt lat="43.0284844" lon="17.5514063"><ele>-0.3333333333333333</ele><time>2026-05-04T13:25:11.62Z</time></trkpt><trkpt lat="43.0286669" lon="17.5514035"><ele>-1.0</ele><time>2026-05-04T13:25:12.62Z</time></trkpt><trkpt lat="43.0288536" lon="17.5513988"><ele>-1.0</ele><time>2026-05-04T13:25:13.62Z</time></trkpt><trkpt lat="43.0290377" lon="17.5513961"><ele>-1.0</ele><time>2026-05-04T13:25:14.62Z</time></trkpt><trkpt lat="43.0292226" lon="17.5513911"><ele>-1.0</ele><time>2026-05-04T13:25:15.621Z</time></trkpt><trkpt lat="43.0294082" lon="17.5513709"><ele>-0.6666666666666666</ele><time>2026-05-04T13:25:16.62Z</time></trkpt><trkpt lat="43.0295954" lon="17.5513556"><ele>-0.3333333333333333</ele><time>2026-05-04T13:25:17.62Z</time></trkpt><trkpt lat="43.0297804" lon="17.5513372"><ele>0.0</ele><time>2026-05-04T13:25:18.621Z</time></trkpt><trkpt lat="43.0299642" lon="17.5513188"><ele>0.0</ele><time>2026-05-04T13:25:19.62Z</time></trkpt><trkpt lat="43.0301474" lon="17.551281"><ele>0.0</ele><time>2026-05-04T13:25:20.62Z</time></trkpt><trkpt lat="43.0303339" lon="17.5512412"><ele>0.0</ele><time>2026-05-04T13:25:21.621Z</time></trkpt><trkpt lat="43.0305188" lon="17.551198"><ele>0.3333333333333333</ele><time>2026-05-04T13:25:22.621Z</time></trkpt><trkpt lat="43.0306984" lon="17.5511455"><ele>0.6666666666666666</ele><time>2026-05-04T13:25:23.62Z</time></trkpt><trkpt lat="43.0308826" lon="17.5510888"><ele>1.0</ele><time>2026-05-04T13:25:24.621Z</time></trkpt><trkpt lat="43.0310669" lon="17.5510259"><ele>1.3333333333333333</ele><time>2026-05-04T13:25:25.62Z</time></trkpt><trkpt lat="43.0312508" lon="17.5509547"><ele>1.6666666666666665</ele><time>2026-05-04T13:25:26.62Z</time></trkpt><trkpt lat="43.0314367" lon="17.5508821"><ele>2.0</ele><time>2026-05-04T13:25:27.62Z</time></trkpt><trkpt lat="43.031621" lon="17.5508021"><ele>1.3333333333333333</ele><time>2026-05-04T13:25:28.62Z</time></trkpt><trkpt lat="43.0318006" lon="17.5507136"><ele>0.6666666666666666</ele><time>2026-05-04T13:25:29.62Z</time></trkpt><trkpt lat="43.0319834" lon="17.5506191"><ele>0.0</ele><time>2026-05-04T13:25:30.62Z</time></trkpt><trkpt lat="43.0321646" lon="17.5505138"><ele>0.0</ele><time>2026-05-04T13:25:31.62Z</time></trkpt><trkpt lat="43.0323432" lon="17.5504025"><ele>0.0</ele><time>2026-05-04T13:25:32.621Z</time></trkpt><trkpt lat="43.0325259" lon="17.5502904"><ele>0.0</ele><time>2026-05-04T13:25:33.62Z</time></trkpt><trkpt lat="43.0327086" lon="17.5501702"><ele>0.6666666666666666</ele><time>2026-05-04T13:25:34.621Z</time></trkpt><trkpt lat="43.0328891" lon="17.5500457"><ele>1.3333333333333333</ele><time>2026-05-04T13:25:35.621Z</time></trkpt><trkpt lat="43.0330695" lon="17.5499213"><ele>2.0</ele><time>2026-05-04T13:25:36.621Z</time></trkpt><trkpt lat="43.0332517" lon="17.5497981"><ele>1.6666666666666665</ele><time>2026-05-04T13:25:37.621Z</time></trkpt><trkpt lat="43.0334331" lon="17.5496768"><ele>1.3333333333333333</ele><time>2026-05-04T13:25:38.621Z</time></trkpt><trkpt lat="43.0336176" lon="17.5495517"><ele>1.0</ele><time>2026-05-04T13:25:39.621Z</time></trkpt><trkpt lat="43.033802" lon="17.5494282"><ele>0.6666666666666666</ele><time>2026-05-04T13:25:40.62Z</time></trkpt><trkpt lat="43.0339849" lon="17.5493"><ele>0.3333333333333333</ele><time>2026-05-04T13:25:41.62Z</time></trkpt><trkpt lat="43.0341654" lon="17.5491657"><ele>0.0</ele><time>2026-05-04T13:25:42.62Z</time></trkpt><trkpt lat="43.0343486" lon="17.5490374"><ele>0.6666666666666666</ele><time>2026-05-04T13:25:43.62Z</time></trkpt><trkpt lat="43.0345273" lon="17.5489039"><ele>1.3333333333333333</ele><time>2026-05-04T13:25:44.62Z</time></trkpt><trkpt lat="43.0347151" lon="17.5487699"><ele>2.0</ele><time>2026-05-04T13:25:45.621Z</time></trkpt><trkpt lat="43.0348903" lon="17.5486237"><ele>2.0</ele><time>2026-05-04T13:25:46.621Z</time></trkpt><trkpt lat="43.0350672" lon="17.5484711"><ele>2.0</ele><time>2026-05-04T13:25:47.621Z</time></trkpt><trkpt lat="43.0352386" lon="17.5483037"><ele>2.0</ele><time>2026-05-04T13:25:48.621Z</time></trkpt><trkpt lat="43.0354037" lon="17.5481265"><ele>2.0</ele><time>2026-05-04T13:25:49.62Z</time></trkpt><trkpt lat="43.0355617" lon="17.5479359"><ele>2.0</ele><time>2026-05-04T13:25:50.62Z</time></trkpt><trkpt lat="43.035711" lon="17.5477415"><ele>2.0</ele><time>2026-05-04T13:25:51.621Z</time></trkpt><trkpt lat="43.035851" lon="17.5475366"><ele>1.3333333333333333</ele><time>2026-05-04T13:25:52.621Z</time></trkpt><trkpt lat="43.0359865" lon="17.5473232"><ele>0.6666666666666666</ele><time>2026-05-04T13:25:53.621Z</time></trkpt><trkpt lat="43.036115" lon="17.5471"><ele>0.0</ele><time>2026-05-04T13:25:54.62Z</time></trkpt><trkpt lat="43.0362316" lon="17.5468728"><ele>0.0</ele><time>2026-05-04T13:25:55.621Z</time></trkpt><trkpt lat="43.0363384" lon="17.5466369"><ele>0.0</ele><time>2026-05-04T13:25:56.621Z</time></trkpt><trkpt lat="43.0364368" lon="17.5464017"><ele>0.0</ele><time>2026-05-04T13:25:57.621Z</time></trkpt><trkpt lat="43.0365274" lon="17.54616"><ele>0.0</ele><time>2026-05-04T13:25:58.621Z</time></trkpt><trkpt lat="43.0366109" lon="17.5459043"><ele>0.0</ele><time>2026-05-04T13:25:59.621Z</time></trkpt><trkpt lat="43.0366918" lon="17.5456426"><ele>0.0</ele><time>2026-05-04T13:26:00.62Z</time></trkpt><trkpt lat="43.0367709" lon="17.5453839"><ele>0.6666666666666666</ele><time>2026-05-04T13:26:01.621Z</time></trkpt><trkpt lat="43.0368485" lon="17.5451208"><ele>1.3333333333333333</ele><time>2026-05-04T13:26:02.621Z</time></trkpt><trkpt lat="43.0369201" lon="17.5448598"><ele>2.0</ele><time>2026-05-04T13:26:03.62Z</time></trkpt><trkpt lat="43.0369875" lon="17.5446041"><ele>1.6666666666666665</ele><time>2026-05-04T13:26:04.621Z</time></trkpt><trkpt lat="43.0370573" lon="17.5443433"><ele>1.3333333333333333</ele><time>2026-05-04T13:26:05.621Z</time></trkpt><trkpt lat="43.0371291" lon="17.54409"><ele>1.0</ele><time>2026-05-04T13:26:06.62Z</time></trkpt><trkpt lat="43.0372009" lon="17.5438393"><ele>0.0</ele><time>2026-05-04T13:26:07.621Z</time></trkpt><trkpt lat="43.0372719" lon="17.5435945"><ele>-1.0</ele><time>2026-05-04T13:26:08.621Z</time></trkpt><trkpt lat="43.0373343" lon="17.5433493"><ele>-2.0</ele><time>2026-05-04T13:26:09.621Z</time></trkpt><trkpt lat="43.0373947" lon="17.5431176"><ele>-2.0</ele><time>2026-05-04T13:26:10.621Z</time></trkpt><trkpt lat="43.0374579" lon="17.5428993"><ele>-2.0</ele><time>2026-05-04T13:26:11.62Z</time></trkpt><trkpt lat="43.0375188" lon="17.5426815"><ele>-2.0</ele><time>2026-05-04T13:26:12.62Z</time></trkpt><trkpt lat="43.0375752" lon="17.5424654"><ele>-1.3333333333333333</ele><time>2026-05-04T13:26:13.621Z</time></trkpt><trkpt lat="43.0376299" lon="17.5422593"><ele>-0.6666666666666666</ele><time>2026-05-04T13:26:14.621Z</time></trkpt><trkpt lat="43.037684" lon="17.5420579"><ele>0.0</ele><time>2026-05-04T13:26:15.621Z</time></trkpt><trkpt lat="43.0377348" lon="17.5418521"><ele>0.0</ele><time>2026-05-04T13:26:16.62Z</time></trkpt><trkpt lat="43.0377856" lon="17.5416489"><ele>0.0</ele><time>2026-05-04T13:26:17.62Z</time></trkpt><trkpt lat="43.0378365" lon="17.541448"><ele>0.0</ele><time>2026-05-04T13:26:18.62Z</time></trkpt><trkpt lat="43.0378845" lon="17.5412511"><ele>0.0</ele><time>2026-05-04T13:26:19.621Z</time></trkpt><trkpt lat="43.0379263" lon="17.541052"><ele>0.0</ele><time>2026-05-04T13:26:20.621Z</time></trkpt><trkpt lat="43.03797" lon="17.540846"><ele>0.0</ele><time>2026-05-04T13:26:21.621Z</time></trkpt><trkpt lat="43.0380201" lon="17.540626"><ele>0.0</ele><time>2026-05-04T13:26:22.62Z</time></trkpt><trkpt lat="43.0380676" lon="17.540405"><ele>0.0</ele><time>2026-05-04T13:26:23.621Z</time></trkpt><trkpt lat="43.038112" lon="17.5401871"><ele>0.0</ele><time>2026-05-04T13:26:24.621Z</time></trkpt><trkpt lat="43.0381539" lon="17.5399566"><ele>-0.3333333333333333</ele><time>2026-05-04T13:26:25.621Z</time></trkpt><trkpt lat="43.0381965" lon="17.5397171"><ele>-0.6666666666666666</ele><time>2026-05-04T13:26:26.62Z</time></trkpt><trkpt lat="43.0382447" lon="17.5394803"><ele>-1.0</ele><time>2026-05-04T13:26:27.62Z</time></trkpt><trkpt lat="43.0382912" lon="17.5392411"><ele>-0.6666666666666666</ele><time>2026-05-04T13:26:28.621Z</time></trkpt><trkpt lat="43.0383368" lon="17.5389972"><ele>-0.3333333333333333</ele><time>2026-05-04T13:26:29.621Z</time></trkpt><trkpt lat="43.0383796" lon="17.5387519"><ele>0.0</ele><time>2026-05-04T13:26:30.621Z</time></trkpt><trkpt lat="43.038425" lon="17.5385046"><ele>0.0</ele><time>2026-05-04T13:26:31.621Z</time></trkpt><trkpt lat="43.0384716" lon="17.5382615"><ele>0.0</ele><time>2026-05-04T13:26:32.621Z</time></trkpt><trkpt lat="43.0385197" lon="17.5380153"><ele>0.0</ele><time>2026-05-04T13:26:33.621Z</time></trkpt><trkpt lat="43.0385742" lon="17.5377587"><ele>0.0</ele><time>2026-05-04T13:26:34.62Z</time></trkpt><trkpt lat="43.0386237" lon="17.5375102"><ele>0.0</ele><time>2026-05-04T13:26:35.62Z</time></trkpt><trkpt lat="43.0386795" lon="17.5372588"><ele>0.0</ele><time>2026-05-04T13:26:36.62Z</time></trkpt><trkpt lat="43.0387384" lon="17.537006"><ele>0.3333333333333333</ele><time>2026-05-04T13:26:37.621Z</time></trkpt><trkpt lat="43.0387964" lon="17.5367519"><ele>0.6666666666666666</ele><time>2026-05-04T13:26:38.621Z</time></trkpt><trkpt lat="43.0388599" lon="17.5364943"><ele>1.0</ele><time>2026-05-04T13:26:39.621Z</time></trkpt><trkpt lat="43.0389278" lon="17.536222"><ele>0.6666666666666666</ele><time>2026-05-04T13:26:40.621Z</time></trkpt><trkpt lat="43.0390044" lon="17.5359556"><ele>0.3333333333333333</ele><time>2026-05-04T13:26:41.62Z</time></trkpt><trkpt lat="43.0390861" lon="17.5356926"><ele>0.0</ele><time>2026-05-04T13:26:42.621Z</time></trkpt><trkpt lat="43.0391595" lon="17.5354277"><ele>0.3333333333333333</ele><time>2026-05-04T13:26:43.62Z</time></trkpt><trkpt lat="43.0392389" lon="17.5351624"><ele>0.6666666666666666</ele><time>2026-05-04T13:26:44.62Z</time></trkpt><trkpt lat="43.0393231" lon="17.5348981"><ele>1.0</ele><time>2026-05-04T13:26:45.621Z</time></trkpt><trkpt lat="43.039408" lon="17.5346402"><ele>1.0</ele><time>2026-05-04T13:26:46.621Z</time></trkpt><trkpt lat="43.0394969" lon="17.5343734"><ele>1.0</ele><time>2026-05-04T13:26:47.62Z</time></trkpt><trkpt lat="43.0395893" lon="17.5341158"><ele>1.0</ele><time>2026-05-04T13:26:48.62Z</time></trkpt><trkpt lat="43.0396802" lon="17.5338573"><ele>0.6666666666666666</ele><time>2026-05-04T13:26:49.621Z</time></trkpt><trkpt lat="43.0397707" lon="17.533597"><ele>0.3333333333333333</ele><time>2026-05-04T13:26:50.62Z</time></trkpt><trkpt lat="43.0398786" lon="17.5333343"><ele>0.0</ele><time>2026-05-04T13:26:51.621Z</time></trkpt><trkpt lat="43.0399874" lon="17.5330706"><ele>0.3333333333333333</ele><time>2026-05-04T13:26:52.62Z</time></trkpt><trkpt lat="43.0400943" lon="17.5328084"><ele>0.6666666666666666</ele><time>2026-05-04T13:26:53.62Z</time></trkpt><trkpt lat="43.0402044" lon="17.5325429"><ele>1.0</ele><time>2026-05-04T13:26:54.621Z</time></trkpt><trkpt lat="43.0403223" lon="17.5322717"><ele>1.5</ele><time>2026-05-04T13:26:55.62Z</time></trkpt><trkpt lat="43.0404392" lon="17.532"><ele>2.0</ele><time>2026-05-04T13:26:56.62Z</time></trkpt><trkpt lat="43.0405599" lon="17.5317279"><ele>2.0</ele><time>2026-05-04T13:26:57.62Z</time></trkpt><trkpt lat="43.0406752" lon="17.5314545"><ele>2.0</ele><time>2026-05-04T13:26:58.621Z</time></trkpt><trkpt lat="43.0407913" lon="17.5311792"><ele>1.5</ele><time>2026-05-04T13:26:59.621Z</time></trkpt><trkpt lat="43.0409026" lon="17.530899"><ele>1.0</ele><time>2026-05-04T13:27:00.621Z</time></trkpt><trkpt lat="43.0410099" lon="17.5306089"><ele>0.0</ele><time>2026-05-04T13:27:01.621Z</time></trkpt><trkpt lat="43.0411155" lon="17.5303112"><ele>-1.0</ele><time>2026-05-04T13:27:02.621Z</time></trkpt><trkpt lat="43.0412212" lon="17.5300036"><ele>-1.0</ele><time>2026-05-04T13:27:03.62Z</time></trkpt><trkpt lat="43.0413291" lon="17.5296939"><ele>-1.0</ele><time>2026-05-04T13:27:04.621Z</time></trkpt><trkpt lat="43.0414311" lon="17.5293799"><ele>-1.0</ele><time>2026-05-04T13:27:05.621Z</time></trkpt><trkpt lat="43.041536" lon="17.5290666"><ele>-1.0</ele><time>2026-05-04T13:27:06.621Z</time></trkpt><trkpt lat="43.0416439" lon="17.5287517"><ele>0.0</ele><time>2026-05-04T13:27:07.621Z</time></trkpt><trkpt lat="43.0417513" lon="17.5284406"><ele>1.0</ele><time>2026-05-04T13:27:08.621Z</time></trkpt><trkpt lat="43.0418571" lon="17.5281275"><ele>0.5</ele><time>2026-05-04T13:27:09.62Z</time></trkpt><trkpt lat="43.0419542" lon="17.5278148"><ele>0.0</ele><time>2026-05-04T13:27:10.62Z</time></trkpt><trkpt lat="43.0420588" lon="17.5274973"><ele>0.0</ele><time>2026-05-04T13:27:11.62Z</time></trkpt><trkpt lat="43.0421614" lon="17.5271917"><ele>0.0</ele><time>2026-05-04T13:27:12.621Z</time></trkpt><trkpt lat="43.0422616" lon="17.526883"><ele>0.0</ele><time>2026-05-04T13:27:13.62Z</time></trkpt><trkpt lat="43.042364" lon="17.5265803"><ele>0.0</ele><time>2026-05-04T13:27:14.62Z</time></trkpt><trkpt lat="43.042466" lon="17.5262683"><ele>0.0</ele><time>2026-05-04T13:27:15.621Z</time></trkpt><trkpt lat="43.0425643" lon="17.5259582"><ele>0.0</ele><time>2026-05-04T13:27:16.621Z</time></trkpt><trkpt lat="43.0426664" lon="17.5256381"><ele>0.0</ele><time>2026-05-04T13:27:17.62Z</time></trkpt><trkpt lat="43.0427642" lon="17.5253208"><ele>0.0</ele><time>2026-05-04T13:27:18.62Z</time></trkpt><trkpt lat="43.042859" lon="17.5249909"><ele>0.0</ele><time>2026-05-04T13:27:19.621Z</time></trkpt><trkpt lat="43.0429485" lon="17.5246635"><ele>0.0</ele><time>2026-05-04T13:27:20.621Z</time></trkpt><trkpt lat="43.0430386" lon="17.5243309"><ele>-0.5</ele><time>2026-05-04T13:27:21.621Z</time></trkpt><trkpt lat="43.04313" lon="17.5240003"><ele>-1.0</ele><time>2026-05-04T13:27:22.62Z</time></trkpt><trkpt lat="43.043215" lon="17.5236667"><ele>-0.5</ele><time>2026-05-04T13:27:23.62Z</time></trkpt><trkpt lat="43.0433024" lon="17.5233316"><ele>0.0</ele><time>2026-05-04T13:27:24.62Z</time></trkpt><trkpt lat="43.0433865" lon="17.522997"><ele>0.0</ele><time>2026-05-04T13:27:25.621Z</time></trkpt><trkpt lat="43.0434717" lon="17.5226612"><ele>0.0</ele><time>2026-05-04T13:27:26.62Z</time></trkpt><trkpt lat="43.0435528" lon="17.5223288"><ele>0.0</ele><time>2026-05-04T13:27:27.621Z</time></trkpt><trkpt lat="43.0436379" lon="17.5219943"><ele>0.0</ele><time>2026-05-04T13:27:28.621Z</time></trkpt><trkpt lat="43.043719" lon="17.5216602"><ele>0.0</ele><time>2026-05-04T13:27:29.62Z</time></trkpt><trkpt lat="43.0438012" lon="17.5213229"><ele>0.0</ele><time>2026-05-04T13:27:30.621Z</time></trkpt><trkpt lat="43.0438682" lon="17.5209869"><ele>-0.5</ele><time>2026-05-04T13:27:31.62Z</time></trkpt><trkpt lat="43.043936" lon="17.5206506"><ele>-1.0</ele><time>2026-05-04T13:27:32.62Z</time></trkpt><trkpt lat="43.0440035" lon="17.5203172"><ele>-1.5</ele><time>2026-05-04T13:27:33.621Z</time></trkpt><trkpt lat="43.0440639" lon="17.5199869"><ele>-2.0</ele><time>2026-05-04T13:27:34.62Z</time></trkpt><trkpt lat="43.04412" lon="17.5196592"><ele>-1.0</ele><time>2026-05-04T13:27:35.62Z</time></trkpt><trkpt lat="43.044171" lon="17.5193266"><ele>0.0</ele><time>2026-05-04T13:27:36.621Z</time></trkpt><trkpt lat="43.0442122" lon="17.5189972"><ele>0.0</ele><time>2026-05-04T13:27:37.62Z</time></trkpt><trkpt lat="43.0442504" lon="17.5186603"><ele>0.0</ele><time>2026-05-04T13:27:38.621Z</time></trkpt><trkpt lat="43.0442805" lon="17.5183216"><ele>0.0</ele><time>2026-05-04T13:27:39.621Z</time></trkpt><trkpt lat="43.0443059" lon="17.5179868"><ele>0.0</ele><time>2026-05-04T13:27:40.621Z</time></trkpt><trkpt lat="43.0443266" lon="17.5176508"><ele>0.0</ele><time>2026-05-04T13:27:41.62Z</time></trkpt><trkpt lat="43.0443445" lon="17.5173145"><ele>0.0</ele><time>2026-05-04T13:27:42.621Z</time></trkpt><trkpt lat="43.0443559" lon="17.5169761"><ele>-0.5</ele><time>2026-05-04T13:27:43.621Z</time></trkpt><trkpt lat="43.0443572" lon="17.5166396"><ele>-1.0</ele><time>2026-05-04T13:27:44.621Z</time></trkpt><trkpt lat="43.0443539" lon="17.5162971"><ele>-0.5</ele><time>2026-05-04T13:27:45.621Z</time></trkpt><trkpt lat="43.0443421" lon="17.5159607"><ele>0.0</ele><time>2026-05-04T13:27:46.621Z</time></trkpt><trkpt lat="43.0443262" lon="17.5156219"><ele>0.0</ele><time>2026-05-04T13:27:47.621Z</time></trkpt><trkpt lat="43.0443058" lon="17.515279"><ele>0.0</ele><time>2026-05-04T13:27:48.621Z</time></trkpt><trkpt lat="43.0442813" lon="17.5149373"><ele>0.0</ele><time>2026-05-04T13:27:49.62Z</time></trkpt><trkpt lat="43.0442529" lon="17.5145968"><ele>0.0</ele><time>2026-05-04T13:27:50.62Z</time></trkpt><trkpt lat="43.0442155" lon="17.5142501"><ele>0.0</ele><time>2026-05-04T13:27:51.62Z</time></trkpt><trkpt lat="43.0441836" lon="17.5139082"><ele>0.0</ele><time>2026-05-04T13:27:52.62Z</time></trkpt><trkpt lat="43.0441454" lon="17.5135746"><ele>-0.5</ele><time>2026-05-04T13:27:53.62Z</time></trkpt><trkpt lat="43.0441044" lon="17.5132459"><ele>-1.0</ele><time>2026-05-04T13:27:54.62Z</time></trkpt><trkpt lat="43.0440669" lon="17.5129186"><ele>-1.0</ele><time>2026-05-04T13:27:55.621Z</time></trkpt><trkpt lat="43.044031" lon="17.5125934"><ele>-1.0</ele><time>2026-05-04T13:27:56.62Z</time></trkpt><trkpt lat="43.043992" lon="17.5122655"><ele>-1.0</ele><time>2026-05-04T13:27:57.62Z</time></trkpt><trkpt lat="43.0439594" lon="17.5119361"><ele>-1.0</ele><time>2026-05-04T13:27:58.62Z</time></trkpt><trkpt lat="43.0439231" lon="17.5116088"><ele>-1.0</ele><time>2026-05-04T13:27:59.62Z</time></trkpt><trkpt lat="43.0438879" lon="17.511285"><ele>-1.0</ele><time>2026-05-04T13:28:00.621Z</time></trkpt><trkpt lat="43.0438521" lon="17.5109677"><ele>-0.5</ele><time>2026-05-04T13:28:01.62Z</time></trkpt><trkpt lat="43.0438177" lon="17.5106499"><ele>0.0</ele><time>2026-05-04T13:28:02.62Z</time></trkpt><trkpt lat="43.0437827" lon="17.51033"><ele>0.0</ele><time>2026-05-04T13:28:03.62Z</time></trkpt><trkpt lat="43.0437437" lon="17.5100142"><ele>0.0</ele><time>2026-05-04T13:28:04.621Z</time></trkpt><trkpt lat="43.0437106" lon="17.5096897"><ele>-0.5</ele><time>2026-05-04T13:28:05.62Z</time></trkpt><trkpt lat="43.0436755" lon="17.5093696"><ele>-1.0</ele><time>2026-05-04T13:28:06.621Z</time></trkpt><trkpt lat="43.0436395" lon="17.5090474"><ele>-0.5</ele><time>2026-05-04T13:28:07.62Z</time></trkpt><trkpt lat="43.0436017" lon="17.508729"><ele>0.0</ele><time>2026-05-04T13:28:08.62Z</time></trkpt><trkpt lat="43.043568" lon="17.5084131"><ele>0.0</ele><time>2026-05-04T13:28:09.62Z</time></trkpt><trkpt lat="43.0435344" lon="17.5081009"><ele>0.0</ele><time>2026-05-04T13:28:10.621Z</time></trkpt><trkpt lat="43.0435016" lon="17.5077841"><ele>0.0</ele><time>2026-05-04T13:28:11.62Z</time></trkpt><trkpt lat="43.0434641" lon="17.5074713"><ele>0.0</ele><time>2026-05-04T13:28:12.62Z</time></trkpt><trkpt lat="43.0434276" lon="17.5071604"><ele>0.0</ele><time>2026-05-04T13:28:13.621Z</time></trkpt><trkpt lat="43.0433929" lon="17.5068483"><ele>0.0</ele><time>2026-05-04T13:28:14.621Z</time></trkpt><trkpt lat="43.043356" lon="17.506534"><ele>0.0</ele><time>2026-05-04T13:28:15.62Z</time></trkpt><trkpt lat="43.0433194" lon="17.5062192"><ele>0.0</ele><time>2026-05-04T13:28:16.621Z</time></trkpt><trkpt lat="43.0432795" lon="17.5059079"><ele>-0.5</ele><time>2026-05-04T13:28:17.621Z</time></trkpt><trkpt lat="43.0432386" lon="17.5055848"><ele>-1.0</ele><time>2026-05-04T13:28:18.62Z</time></trkpt><trkpt lat="43.043187" lon="17.5052779"><ele>-1.0</ele><time>2026-05-04T13:28:19.62Z</time></trkpt><trkpt lat="43.0431342" lon="17.5049731"><ele>-1.0</ele><time>2026-05-04T13:28:20.62Z</time></trkpt><trkpt lat="43.0430759" lon="17.5046711"><ele>-1.0</ele><time>2026-05-04T13:28:21.621Z</time></trkpt><trkpt lat="43.0430194" lon="17.5043664"><ele>-1.0</ele><time>2026-05-04T13:28:22.621Z</time></trkpt><trkpt lat="43.0429603" lon="17.5040711"><ele>-1.0</ele><time>2026-05-04T13:28:23.62Z</time></trkpt><trkpt lat="43.0429028" lon="17.503772"><ele>-1.0</ele><time>2026-05-04T13:28:24.621Z</time></trkpt><trkpt lat="43.042843" lon="17.5034799"><ele>-1.0</ele><time>2026-05-04T13:28:25.621Z</time></trkpt><trkpt lat="43.0427799" lon="17.5031871"><ele>-0.6666666666666666</ele><time>2026-05-04T13:28:26.621Z</time></trkpt><trkpt lat="43.0427211" lon="17.5028911"><ele>-0.3333333333333333</ele><time>2026-05-04T13:28:27.62Z</time></trkpt><trkpt lat="43.0426604" lon="17.502605"><ele>0.0</ele><time>2026-05-04T13:28:28.621Z</time></trkpt><trkpt lat="43.0426017" lon="17.5023186"><ele>0.3333333333333333</ele><time>2026-05-04T13:28:29.621Z</time></trkpt><trkpt lat="43.042539" lon="17.5020314"><ele>0.6666666666666666</ele><time>2026-05-04T13:28:30.621Z</time></trkpt><trkpt lat="43.042476" lon="17.5017363"><ele>1.0</ele><time>2026-05-04T13:28:31.62Z</time></trkpt><trkpt lat="43.0424115" lon="17.5014488"><ele>0.3333333333333333</ele><time>2026-05-04T13:28:32.62Z</time></trkpt><trkpt lat="43.0423387" lon="17.5011662"><ele>-0.3333333333333333</ele><time>2026-05-04T13:28:33.62Z</time></trkpt><trkpt lat="43.0422629" lon="17.5008955"><ele>-1.0</ele><time>2026-05-04T13:28:34.62Z</time></trkpt><trkpt lat="43.0421878" lon="17.5006274"><ele>-0.6666666666666666</ele><time>2026-05-04T13:28:35.621Z</time></trkpt><trkpt lat="43.0421047" lon="17.5003588"><ele>-0.3333333333333333</ele><time>2026-05-04T13:28:36.62Z</time></trkpt><trkpt lat="43.0420254" lon="17.5000865"><ele>0.0</ele><time>2026-05-04T13:28:37.621Z</time></trkpt><trkpt lat="43.041938" lon="17.4998237"><ele>0.0</ele><time>2026-05-04T13:28:38.621Z</time></trkpt><trkpt lat="43.0418571" lon="17.4995535"><ele>0.0</ele><time>2026-05-04T13:28:39.621Z</time></trkpt><trkpt lat="43.0417733" lon="17.4992879"><ele>0.0</ele><time>2026-05-04T13:28:40.621Z</time></trkpt><trkpt lat="43.0416895" lon="17.4990216"><ele>0.0</ele><time>2026-05-04T13:28:41.62Z</time></trkpt><trkpt lat="43.0416081" lon="17.498751"><ele>0.0</ele><time>2026-05-04T13:28:42.621Z</time></trkpt><trkpt lat="43.0415259" lon="17.4984843"><ele>0.0</ele><time>2026-05-04T13:28:43.621Z</time></trkpt><trkpt lat="43.0414423" lon="17.4982196"><ele>0.0</ele><time>2026-05-04T13:28:44.62Z</time></trkpt><trkpt lat="43.0413586" lon="17.4979533"><ele>0.0</ele><time>2026-05-04T13:28:45.62Z</time></trkpt><trkpt lat="43.0412727" lon="17.4976892"><ele>0.0</ele><time>2026-05-04T13:28:46.62Z</time></trkpt><trkpt lat="43.0411798" lon="17.497429"><ele>0.0</ele><time>2026-05-04T13:28:47.62Z</time></trkpt><trkpt lat="43.0410819" lon="17.4971671"><ele>0.0</ele><time>2026-05-04T13:28:48.62Z</time></trkpt><trkpt lat="43.040976" lon="17.4969174"><ele>0.0</ele><time>2026-05-04T13:28:49.62Z</time></trkpt><trkpt lat="43.0408615" lon="17.4966724"><ele>-0.3333333333333333</ele><time>2026-05-04T13:28:50.62Z</time></trkpt><trkpt lat="43.0407386" lon="17.496435"><ele>-0.6666666666666666</ele><time>2026-05-04T13:28:51.621Z</time></trkpt><trkpt lat="43.0406054" lon="17.4961999"><ele>-1.0</ele><time>2026-05-04T13:28:52.62Z</time></trkpt><trkpt lat="43.0404624" lon="17.4959737"><ele>-1.0</ele><time>2026-05-04T13:28:53.62Z</time></trkpt><trkpt lat="43.0403143" lon="17.4957548"><ele>-1.0</ele><time>2026-05-04T13:28:54.62Z</time></trkpt><trkpt lat="43.040155" lon="17.495548"><ele>-1.0</ele><time>2026-05-04T13:28:55.62Z</time></trkpt><trkpt lat="43.0399916" lon="17.4953475"><ele>-1.0</ele><time>2026-05-04T13:28:56.62Z</time></trkpt><trkpt lat="43.0398278" lon="17.4951561"><ele>-1.0</ele><time>2026-05-04T13:28:57.62Z</time></trkpt><trkpt lat="43.0396682" lon="17.4949694"><ele>-1.0</ele><time>2026-05-04T13:28:58.621Z</time></trkpt><trkpt lat="43.0395079" lon="17.4947917"><ele>-1.0</ele><time>2026-05-04T13:28:59.62Z</time></trkpt><trkpt lat="43.0393553" lon="17.4946136"><ele>-1.0</ele><time>2026-05-04T13:29:00.62Z</time></trkpt><trkpt lat="43.0391996" lon="17.4944439"><ele>-1.0</ele><time>2026-05-04T13:29:01.621Z</time></trkpt><trkpt lat="43.0390461" lon="17.4942745"><ele>-0.6666666666666666</ele><time>2026-05-04T13:29:02.621Z</time></trkpt><trkpt lat="43.0388956" lon="17.4941078"><ele>-0.3333333333333333</ele><time>2026-05-04T13:29:03.62Z</time></trkpt><trkpt lat="43.0387496" lon="17.4939419"><ele>0.0</ele><time>2026-05-04T13:29:04.621Z</time></trkpt><trkpt lat="43.0385996" lon="17.493776"><ele>-0.3333333333333333</ele><time>2026-05-04T13:29:05.621Z</time></trkpt><trkpt lat="43.0384503" lon="17.493615"><ele>-0.6666666666666666</ele><time>2026-05-04T13:29:06.62Z</time></trkpt><trkpt lat="43.0383007" lon="17.4934508"><ele>-1.0</ele><time>2026-05-04T13:29:07.62Z</time></trkpt><trkpt lat="43.0381538" lon="17.4932846"><ele>-1.0</ele><time>2026-05-04T13:29:08.62Z</time></trkpt><trkpt lat="43.0380041" lon="17.4931225"><ele>-1.0</ele><time>2026-05-04T13:29:09.621Z</time></trkpt><trkpt lat="43.0378584" lon="17.4929556"><ele>-1.0</ele><time>2026-05-04T13:29:10.621Z</time></trkpt><trkpt lat="43.0377084" lon="17.4927881"><ele>-1.0</ele><time>2026-05-04T13:29:11.621Z</time></trkpt><trkpt lat="43.0375547" lon="17.4926132"><ele>-1.0</ele><time>2026-05-04T13:29:12.621Z</time></trkpt><trkpt lat="43.0374052" lon="17.4924391"><ele>-1.0</ele><time>2026-05-04T13:29:13.621Z</time></trkpt><trkpt lat="43.0372516" lon="17.4922677"><ele>-1.0</ele><time>2026-05-04T13:29:14.62Z</time></trkpt><trkpt lat="43.0370948" lon="17.4921003"><ele>-1.0</ele><time>2026-05-04T13:29:15.621Z</time></trkpt><trkpt lat="43.03694" lon="17.4919294"><ele>-1.0</ele><time>2026-05-04T13:29:16.62Z</time></trkpt><trkpt lat="43.0367874" lon="17.4917616"><ele>-1.3333333333333333</ele><time>2026-05-04T13:29:17.62Z</time></trkpt><trkpt lat="43.0366284" lon="17.4915909"><ele>-1.6666666666666665</ele><time>2026-05-04T13:29:18.62Z</time></trkpt><trkpt lat="43.0364667" lon="17.4914217"><ele>-2.0</ele><time>2026-05-04T13:29:19.62Z</time></trkpt><trkpt lat="43.0363108" lon="17.4912512"><ele>-1.3333333333333333</ele><time>2026-05-04T13:29:20.621Z</time></trkpt><trkpt lat="43.0361525" lon="17.4910768"><ele>-0.6666666666666666</ele><time>2026-05-04T13:29:21.621Z</time></trkpt><trkpt lat="43.0359943" lon="17.4909015"><ele>0.0</ele><time>2026-05-04T13:29:22.62Z</time></trkpt><trkpt lat="43.0358393" lon="17.490723"><ele>0.0</ele><time>2026-05-04T13:29:23.621Z</time></trkpt><trkpt lat="43.0356806" lon="17.4905517"><ele>0.0</ele><time>2026-05-04T13:29:24.621Z</time></trkpt><trkpt lat="43.0355272" lon="17.490377"><ele>0.0</ele><time>2026-05-04T13:29:25.62Z</time></trkpt><trkpt lat="43.0353748" lon="17.4902018"><ele>0.3333333333333333</ele><time>2026-05-04T13:29:26.62Z</time></trkpt><trkpt lat="43.0352338" lon="17.4900054"><ele>0.6666666666666666</ele><time>2026-05-04T13:29:27.62Z</time></trkpt><trkpt lat="43.0351065" lon="17.4898064"><ele>1.0</ele><time>2026-05-04T13:29:28.621Z</time></trkpt><trkpt lat="43.034996" lon="17.4895999"><ele>0.3333333333333333</ele><time>2026-05-04T13:29:29.62Z</time></trkpt><trkpt lat="43.0349067" lon="17.48937"><ele>-0.3333333333333333</ele><time>2026-05-04T13:29:30.62Z</time></trkpt><trkpt lat="43.0348328" lon="17.4891382"><ele>-1.0</ele><time>2026-05-04T13:29:31.621Z</time></trkpt><trkpt lat="43.0347807" lon="17.4888934"><ele>-0.6666666666666666</ele><time>2026-05-04T13:29:32.62Z</time></trkpt><trkpt lat="43.0347453" lon="17.4886356"><ele>-0.3333333333333333</ele><time>2026-05-04T13:29:33.621Z</time></trkpt><trkpt lat="43.0347357" lon="17.4883728"><ele>0.0</ele><time>2026-05-04T13:29:34.62Z</time></trkpt><trkpt lat="43.0347469" lon="17.4881152"><ele>-0.3333333333333333</ele><time>2026-05-04T13:29:35.621Z</time></trkpt><trkpt lat="43.0347809" lon="17.4878605"><ele>-0.6666666666666666</ele><time>2026-05-04T13:29:36.62Z</time></trkpt><trkpt lat="43.034844" lon="17.4876108"><ele>-1.0</ele><time>2026-05-04T13:29:37.621Z</time></trkpt><trkpt lat="43.0349266" lon="17.487381"><ele>-1.0</ele><time>2026-05-04T13:29:38.621Z</time></trkpt><trkpt lat="43.0350285" lon="17.4871646"><ele>-1.0</ele><time>2026-05-04T13:29:39.621Z</time></trkpt><trkpt lat="43.0351498" lon="17.4869659"><ele>-1.0</ele><time>2026-05-04T13:29:40.62Z</time></trkpt><trkpt lat="43.0352837" lon="17.4867909"><ele>-1.0</ele><time>2026-05-04T13:29:41.62Z</time></trkpt><trkpt lat="43.0354342" lon="17.4866358"><ele>-1.0</ele><time>2026-05-04T13:29:42.621Z</time></trkpt><trkpt lat="43.0355973" lon="17.4865006"><ele>-1.0</ele><time>2026-05-04T13:29:43.621Z</time></trkpt><trkpt lat="43.0357645" lon="17.4863926"><ele>-0.6666666666666666</ele><time>2026-05-04T13:29:44.621Z</time></trkpt><trkpt lat="43.0359372" lon="17.4862985"><ele>-0.3333333333333333</ele><time>2026-05-04T13:29:45.621Z</time></trkpt><trkpt lat="43.0361123" lon="17.4862121"><ele>0.0</ele><time>2026-05-04T13:29:46.621Z</time></trkpt><trkpt lat="43.036286" lon="17.4861239"><ele>0.0</ele><time>2026-05-04T13:29:47.62Z</time></trkpt><trkpt lat="43.0364562" lon="17.4860327"><ele>0.0</ele><time>2026-05-04T13:29:48.621Z</time></trkpt><trkpt lat="43.0366303" lon="17.4859433"><ele>0.0</ele><time>2026-05-04T13:29:49.621Z</time></trkpt><trkpt lat="43.0368083" lon="17.4858496"><ele>0.6666666666666666</ele><time>2026-05-04T13:29:50.621Z</time></trkpt><trkpt lat="43.0369815" lon="17.4857609"><ele>1.3333333333333333</ele><time>2026-05-04T13:29:51.62Z</time></trkpt><trkpt lat="43.0371572" lon="17.4856702"><ele>2.0</ele><time>2026-05-04T13:29:52.621Z</time></trkpt><trkpt lat="43.0373324" lon="17.4855817"><ele>2.0</ele><time>2026-05-04T13:29:53.62Z</time></trkpt><trkpt lat="43.0375108" lon="17.4854957"><ele>2.0</ele><time>2026-05-04T13:29:54.62Z</time></trkpt><trkpt lat="43.037685" lon="17.4854081"><ele>2.0</ele><time>2026-05-04T13:29:55.62Z</time></trkpt><trkpt lat="43.0378542" lon="17.4853197"><ele>1.6666666666666665</ele><time>2026-05-04T13:29:56.621Z</time></trkpt><trkpt lat="43.0380258" lon="17.4852333"><ele>1.3333333333333333</ele><time>2026-05-04T13:29:57.62Z</time></trkpt><trkpt lat="43.0381998" lon="17.4851427"><ele>1.0</ele><time>2026-05-04T13:29:58.621Z</time></trkpt><trkpt lat="43.0383732" lon="17.4850558"><ele>0.6666666666666666</ele><time>2026-05-04T13:29:59.621Z</time></trkpt><trkpt lat="43.0385481" lon="17.484965"><ele>0.3333333333333333</ele><time>2026-05-04T13:30:00.62Z</time></trkpt><trkpt lat="43.0387254" lon="17.4848749"><ele>0.0</ele><time>2026-05-04T13:30:01.621Z</time></trkpt><trkpt lat="43.0389049" lon="17.4847816"><ele>0.0</ele><time>2026-05-04T13:30:02.621Z</time></trkpt><trkpt lat="43.0390839" lon="17.4846862"><ele>0.0</ele><time>2026-05-04T13:30:03.62Z</time></trkpt><trkpt lat="43.0392634" lon="17.4845897"><ele>0.0</ele><time>2026-05-04T13:30:04.621Z</time></trkpt><trkpt lat="43.0394444" lon="17.4844975"><ele>0.3333333333333333</ele><time>2026-05-04T13:30:05.62Z</time></trkpt><trkpt lat="43.039624" lon="17.4844085"><ele>0.6666666666666666</ele><time>2026-05-04T13:30:06.62Z</time></trkpt><trkpt lat="43.0398125" lon="17.4843087"><ele>1.0</ele><time>2026-05-04T13:30:07.621Z</time></trkpt><trkpt lat="43.0399944" lon="17.4842122"><ele>2.3333333333333335</ele><time>2026-05-04T13:30:08.62Z</time></trkpt><trkpt lat="43.0401769" lon="17.484121"><ele>3.666666666666667</ele><time>2026-05-04T13:30:09.62Z</time></trkpt><trkpt lat="43.0403595" lon="17.4840239"><ele>5.0</ele><time>2026-05-04T13:30:10.621Z</time></trkpt><trkpt lat="43.04054" lon="17.4839285"><ele>5.0</ele><time>2026-05-04T13:30:11.62Z</time></trkpt><trkpt lat="43.0407224" lon="17.4838298"><ele>5.0</ele><time>2026-05-04T13:30:12.621Z</time></trkpt><trkpt lat="43.0409101" lon="17.4837397"><ele>5.0</ele><time>2026-05-04T13:30:13.62Z</time></trkpt><trkpt lat="43.041098" lon="17.4836472"><ele>4.333333333333334</ele><time>2026-05-04T13:30:14.621Z</time></trkpt><trkpt lat="43.0412855" lon="17.483552"><ele>3.666666666666667</ele><time>2026-05-04T13:30:15.621Z</time></trkpt><trkpt lat="43.0414733" lon="17.4834544"><ele>3.0</ele><time>2026-05-04T13:30:16.621Z</time></trkpt><trkpt lat="43.0416634" lon="17.4833628"><ele>3.0</ele><time>2026-05-04T13:30:17.62Z</time></trkpt><trkpt lat="43.0418518" lon="17.4832664"><ele>3.0</ele><time>2026-05-04T13:30:18.621Z</time></trkpt><trkpt lat="43.0420431" lon="17.4831662"><ele>3.0</ele><time>2026-05-04T13:30:19.621Z</time></trkpt><trkpt lat="43.0422341" lon="17.4830638"><ele>3.0</ele><time>2026-05-04T13:30:20.62Z</time></trkpt><trkpt lat="43.0424254" lon="17.4829645"><ele>3.0</ele><time>2026-05-04T13:30:21.62Z</time></trkpt><trkpt lat="43.0426095" lon="17.4828672"><ele>3.0</ele><time>2026-05-04T13:30:22.621Z</time></trkpt><trkpt lat="43.0427945" lon="17.4827728"><ele>2.3333333333333335</ele><time>2026-05-04T13:30:23.62Z</time></trkpt><trkpt lat="43.0429731" lon="17.4826879"><ele>1.6666666666666665</ele><time>2026-05-04T13:30:24.621Z</time></trkpt><trkpt lat="43.043143" lon="17.4826003"><ele>1.0</ele><time>2026-05-04T13:30:25.62Z</time></trkpt><trkpt lat="43.0433109" lon="17.4825159"><ele>1.0</ele><time>2026-05-04T13:30:26.621Z</time></trkpt><trkpt lat="43.0434796" lon="17.4824306"><ele>1.0</ele><time>2026-05-04T13:30:27.621Z</time></trkpt><trkpt lat="43.0436483" lon="17.4823432"><ele>1.0</ele><time>2026-05-04T13:30:28.62Z</time></trkpt><trkpt lat="43.0438141" lon="17.4822562"><ele>1.0</ele><time>2026-05-04T13:30:29.62Z</time></trkpt><trkpt lat="43.0439824" lon="17.48217"><ele>1.0</ele><time>2026-05-04T13:30:30.62Z</time></trkpt><trkpt lat="43.0441491" lon="17.4820911"><ele>1.0</ele><time>2026-05-04T13:30:31.62Z</time></trkpt><trkpt lat="43.04432" lon="17.4820173"><ele>0.3333333333333333</ele><time>2026-05-04T13:30:32.62Z</time></trkpt><trkpt lat="43.0444907" lon="17.4819371"><ele>-0.3333333333333333</ele><time>2026-05-04T13:30:33.621Z</time></trkpt><trkpt lat="43.0446541" lon="17.4818455"><ele>-1.0</ele><time>2026-05-04T13:30:34.62Z</time></trkpt><trkpt lat="43.0448188" lon="17.4817494"><ele>-1.3333333333333333</ele><time>2026-05-04T13:30:35.62Z</time></trkpt><trkpt lat="43.0449767" lon="17.4816578"><ele>-1.6666666666666665</ele><time>2026-05-04T13:30:36.621Z</time></trkpt><trkpt lat="43.0451271" lon="17.4815604"><ele>-2.0</ele><time>2026-05-04T13:30:37.621Z</time></trkpt><trkpt lat="43.0452732" lon="17.4814558"><ele>-2.0</ele><time>2026-05-04T13:30:38.621Z</time></trkpt><trkpt lat="43.0454111" lon="17.4813458"><ele>-2.0</ele><time>2026-05-04T13:30:39.621Z</time></trkpt><trkpt lat="43.0455545" lon="17.4812352"><ele>-2.0</ele><time>2026-05-04T13:30:40.621Z</time></trkpt><trkpt lat="43.0456989" lon="17.4811282"><ele>-1.6666666666666665</ele><time>2026-05-04T13:30:41.621Z</time></trkpt><trkpt lat="43.0458464" lon="17.4810142"><ele>-1.3333333333333333</ele><time>2026-05-04T13:30:42.621Z</time></trkpt><trkpt lat="43.0459957" lon="17.4809065"><ele>-1.0</ele><time>2026-05-04T13:30:43.621Z</time></trkpt><trkpt lat="43.0461444" lon="17.4807934"><ele>-1.0</ele><time>2026-05-04T13:30:44.62Z</time></trkpt><trkpt lat="43.0462943" lon="17.480677"><ele>-1.0</ele><time>2026-05-04T13:30:45.621Z</time></trkpt><trkpt lat="43.0464394" lon="17.4805615"><ele>-1.0</ele><time>2026-05-04T13:30:46.62Z</time></trkpt><trkpt lat="43.0465895" lon="17.4804472"><ele>-1.0</ele><time>2026-05-04T13:30:47.621Z</time></trkpt><trkpt lat="43.0467374" lon="17.48033"><ele>-1.0</ele><time>2026-05-04T13:30:48.62Z</time></trkpt><trkpt lat="43.0468851" lon="17.4802203"><ele>-1.0</ele><time>2026-05-04T13:30:49.62Z</time></trkpt><trkpt lat="43.047025" lon="17.4801054"><ele>-1.0</ele><time>2026-05-04T13:30:50.62Z</time></trkpt><trkpt lat="43.0471582" lon="17.4800018"><ele>-1.0</ele><time>2026-05-04T13:30:51.62Z</time></trkpt><trkpt lat="43.0472878" lon="17.4798989"><ele>-1.0</ele><time>2026-05-04T13:30:52.621Z</time></trkpt><trkpt lat="43.0474168" lon="17.4798003"><ele>-1.0</ele><time>2026-05-04T13:30:53.62Z</time></trkpt><trkpt lat="43.0475401" lon="17.4796998"><ele>-1.0</ele><time>2026-05-04T13:30:54.621Z</time></trkpt><trkpt lat="43.047668" lon="17.4796016"><ele>-1.0</ele><time>2026-05-04T13:30:55.621Z</time></trkpt><trkpt lat="43.0477954" lon="17.4795019"><ele>-1.0</ele><time>2026-05-04T13:30:56.621Z</time></trkpt><trkpt lat="43.047923" lon="17.479404"><ele>-1.0</ele><time>2026-05-04T13:30:57.62Z</time></trkpt><trkpt lat="43.0480481" lon="17.4793046"><ele>-1.0</ele><time>2026-05-04T13:30:58.621Z</time></trkpt><trkpt lat="43.0481718" lon="17.4792087"><ele>-1.0</ele><time>2026-05-04T13:30:59.621Z</time></trkpt><trkpt lat="43.048293" lon="17.4791159"><ele>-1.0</ele><time>2026-05-04T13:31:00.621Z</time></trkpt><trkpt lat="43.0484174" lon="17.4790249"><ele>-0.75</ele><time>2026-05-04T13:31:01.621Z</time></trkpt><trkpt lat="43.0485376" lon="17.478936"><ele>-0.5</ele><time>2026-05-04T13:31:02.62Z</time></trkpt><trkpt lat="43.0486583" lon="17.4788457"><ele>-0.25</ele><time>2026-05-04T13:31:03.62Z</time></trkpt><trkpt lat="43.0487796" lon="17.4787567"><ele>0.0</ele><time>2026-05-04T13:31:04.621Z</time></trkpt><trkpt lat="43.0489026" lon="17.4786694"><ele>0.25</ele><time>2026-05-04T13:31:05.621Z</time></trkpt><trkpt lat="43.0490266" lon="17.4785914"><ele>0.5</ele><time>2026-05-04T13:31:06.62Z</time></trkpt><trkpt lat="43.0491535" lon="17.4785183"><ele>0.75</ele><time>2026-05-04T13:31:07.621Z</time></trkpt><trkpt lat="43.0492853" lon="17.4784645"><ele>1.0</ele><time>2026-05-04T13:31:08.621Z</time></trkpt><trkpt lat="43.0494208" lon="17.4784191"><ele>1.5</ele><time>2026-05-04T13:31:09.621Z</time></trkpt><trkpt lat="43.0495561" lon="17.4783877"><ele>2.0</ele><time>2026-05-04T13:31:10.621Z</time></trkpt><trkpt lat="43.0496969" lon="17.4783685"><ele>2.5</ele><time>2026-05-04T13:31:11.62Z</time></trkpt><trkpt lat="43.0498365" lon="17.4783497"><ele>3.0</ele><time>2026-05-04T13:31:12.621Z</time></trkpt><trkpt lat="43.0499748" lon="17.4783263"><ele>3.0</ele><time>2026-05-04T13:31:13.62Z</time></trkpt><trkpt lat="43.0501107" lon="17.4783006"><ele>3.0</ele><time>2026-05-04T13:31:14.62Z</time></trkpt><trkpt lat="43.0502461" lon="17.4782664"><ele>3.0</ele><time>2026-05-04T13:31:15.621Z</time></trkpt><trkpt lat="43.0503758" lon="17.4782164"><ele>3.0</ele><time>2026-05-04T13:31:16.621Z</time></trkpt><trkpt lat="43.0505022" lon="17.4781487"><ele>3.0</ele><time>2026-05-04T13:31:17.621Z</time></trkpt><trkpt lat="43.0506148" lon="17.478051"><ele>3.0</ele><time>2026-05-04T13:31:18.62Z</time></trkpt><trkpt lat="43.0507212" lon="17.4779343"><ele>3.0</ele><time>2026-05-04T13:31:19.62Z</time></trkpt><trkpt lat="43.0508169" lon="17.4777975"><ele>3.0</ele><time>2026-05-04T13:31:20.62Z</time></trkpt><trkpt lat="43.0509076" lon="17.4776601"><ele>2.75</ele><time>2026-05-04T13:31:21.62Z</time></trkpt><trkpt lat="43.0509978" lon="17.4775094"><ele>2.5</ele><time>2026-05-04T13:31:22.621Z</time></trkpt><trkpt lat="43.051084" lon="17.4773532"><ele>2.25</ele><time>2026-05-04T13:31:23.621Z</time></trkpt><trkpt lat="43.0511721" lon="17.4771965"><ele>2.0</ele><time>2026-05-04T13:31:24.62Z</time></trkpt><trkpt lat="43.051273" lon="17.4770533"><ele>2.0</ele><time>2026-05-04T13:31:25.621Z</time></trkpt><trkpt lat="43.0513721" lon="17.4769115"><ele>2.0</ele><time>2026-05-04T13:31:26.62Z</time></trkpt><trkpt lat="43.0514712" lon="17.4767695"><ele>2.0</ele><time>2026-05-04T13:31:27.621Z</time></trkpt><trkpt lat="43.0515698" lon="17.4766292"><ele>2.0</ele><time>2026-05-04T13:31:28.62Z</time></trkpt><trkpt lat="43.05167" lon="17.4764868"><ele>3.5</ele><time>2026-05-04T13:31:29.62Z</time></trkpt><trkpt lat="43.0517654" lon="17.4763403"><ele>5.0</ele><time>2026-05-04T13:31:30.621Z</time></trkpt><trkpt lat="43.0518502" lon="17.4761871"><ele>6.5</ele><time>2026-05-04T13:31:31.621Z</time></trkpt><trkpt lat="43.0519274" lon="17.4760195"><ele>8.0</ele><time>2026-05-04T13:31:32.62Z</time></trkpt><trkpt lat="43.051985" lon="17.4758455"><ele>8.0</ele><time>2026-05-04T13:31:33.62Z</time></trkpt><trkpt lat="43.0520321" lon="17.4756701"><ele>8.0</ele><time>2026-05-04T13:31:34.621Z</time></trkpt><trkpt lat="43.05206" lon="17.4754938"><ele>8.0</ele><time>2026-05-04T13:31:35.621Z</time></trkpt><trkpt lat="43.0520839" lon="17.4753111"><ele>8.0</ele><time>2026-05-04T13:31:36.621Z</time></trkpt><trkpt lat="43.052103" lon="17.4751268"><ele>7.75</ele><time>2026-05-04T13:31:37.62Z</time></trkpt><trkpt lat="43.0521288" lon="17.4749423"><ele>7.5</ele><time>2026-05-04T13:31:38.621Z</time></trkpt><trkpt lat="43.0521613" lon="17.4747551"><ele>7.25</ele><time>2026-05-04T13:31:39.621Z</time></trkpt><trkpt lat="43.0522119" lon="17.4745708"><ele>7.0</ele><time>2026-05-04T13:31:40.62Z</time></trkpt><trkpt lat="43.0522944" lon="17.4744074"><ele>5.75</ele><time>2026-05-04T13:31:41.62Z</time></trkpt><trkpt lat="43.0523882" lon="17.4742624"><ele>4.5</ele><time>2026-05-04T13:31:42.621Z</time></trkpt><trkpt lat="43.0525025" lon="17.4741349"><ele>3.25</ele><time>2026-05-04T13:31:43.621Z</time></trkpt><trkpt lat="43.0526262" lon="17.4740258"><ele>2.0</ele><time>2026-05-04T13:31:44.621Z</time></trkpt><trkpt lat="43.0527546" lon="17.4739412"><ele>3.0</ele><time>2026-05-04T13:31:45.621Z</time></trkpt><trkpt lat="43.0528823" lon="17.4738624"><ele>4.0</ele><time>2026-05-04T13:31:46.62Z</time></trkpt><trkpt lat="43.0530063" lon="17.4737761"><ele>5.0</ele><time>2026-05-04T13:31:47.621Z</time></trkpt><trkpt lat="43.0531174" lon="17.4736695"><ele>6.0</ele><time>2026-05-04T13:31:48.62Z</time></trkpt><trkpt lat="43.0532136" lon="17.4735456"><ele>9.5</ele><time>2026-05-04T13:31:49.621Z</time></trkpt><trkpt lat="43.0532966" lon="17.4734044"><ele>13.0</ele><time>2026-05-04T13:31:50.62Z</time></trkpt><trkpt lat="43.0533661" lon="17.4732369"><ele>16.5</ele><time>2026-05-04T13:31:51.62Z</time></trkpt><trkpt lat="43.0534191" lon="17.4730634"><ele>20.0</ele><time>2026-05-04T13:31:52.62Z</time></trkpt><trkpt lat="43.0534494" lon="17.4728825"><ele>20.0</ele><time>2026-05-04T13:31:53.62Z</time></trkpt><trkpt lat="43.0534602" lon="17.4726979"><ele>20.0</ele><time>2026-05-04T13:31:54.62Z</time></trkpt><trkpt lat="43.0534638" lon="17.4725202"><ele>20.0</ele><time>2026-05-04T13:31:55.62Z</time></trkpt><trkpt lat="43.0534721" lon="17.472325"><ele>20.0</ele><time>2026-05-04T13:31:56.62Z</time></trkpt><trkpt lat="43.0534989" lon="17.4721341"><ele>19.0</ele><time>2026-05-04T13:31:57.62Z</time></trkpt><trkpt lat="43.0535212" lon="17.4719306"><ele>18.0</ele><time>2026-05-04T13:31:58.62Z</time></trkpt><trkpt lat="43.0535488" lon="17.4717361"><ele>17.0</ele><time>2026-05-04T13:31:59.621Z</time></trkpt><trkpt lat="43.0535821" lon="17.4715309"><ele>16.0</ele><time>2026-05-04T13:32:00.621Z</time></trkpt><trkpt lat="43.0536162" lon="17.4713298"><ele>13.666666666666666</ele><time>2026-05-04T13:32:01.62Z</time></trkpt><trkpt lat="43.0536586" lon="17.4711306"><ele>11.333333333333332</ele><time>2026-05-04T13:32:02.621Z</time></trkpt><trkpt lat="43.0537124" lon="17.4709317"><ele>9.0</ele><time>2026-05-04T13:32:03.62Z</time></trkpt><trkpt lat="43.0537716" lon="17.4707207"><ele>9.0</ele><time>2026-05-04T13:32:04.621Z</time></trkpt><trkpt lat="43.0538237" lon="17.4705178"><ele>9.0</ele><time>2026-05-04T13:32:05.62Z</time></trkpt><trkpt lat="43.053875" lon="17.470309"><ele>9.0</ele><time>2026-05-04T13:32:06.62Z</time></trkpt><trkpt lat="43.0539264" lon="17.470099"><ele>7.333333333333333</ele><time>2026-05-04T13:32:07.621Z</time></trkpt><trkpt lat="43.0539789" lon="17.4698922"><ele>5.666666666666666</ele><time>2026-05-04T13:32:08.621Z</time></trkpt><trkpt lat="43.0540287" lon="17.4696958"><ele>4.0</ele><time>2026-05-04T13:32:09.62Z</time></trkpt><trkpt lat="43.0540804" lon="17.4694947"><ele>10.333333333333334</ele><time>2026-05-04T13:32:10.621Z</time></trkpt><trkpt lat="43.0541262" lon="17.4692801"><ele>16.666666666666668</ele><time>2026-05-04T13:32:11.621Z</time></trkpt><trkpt lat="43.0541674" lon="17.4690643"><ele>23.0</ele><time>2026-05-04T13:32:12.621Z</time></trkpt><trkpt lat="43.0542059" lon="17.4688433"><ele>23.0</ele><time>2026-05-04T13:32:13.62Z</time></trkpt><trkpt lat="43.0542322" lon="17.4686239"><ele>23.0</ele><time>2026-05-04T13:32:14.621Z</time></trkpt><trkpt lat="43.0542396" lon="17.4684075"><ele>23.0</ele><time>2026-05-04T13:32:15.62Z</time></trkpt><trkpt lat="43.0542261" lon="17.4681967"><ele>23.0</ele><time>2026-05-04T13:32:16.62Z</time></trkpt><trkpt lat="43.0541968" lon="17.4679872"><ele>23.0</ele><time>2026-05-04T13:32:17.621Z</time></trkpt><trkpt lat="43.0541637" lon="17.4677853"><ele>23.0</ele><time>2026-05-04T13:32:18.62Z</time></trkpt><trkpt lat="43.054125" lon="17.4675819"><ele>16.666666666666668</ele><time>2026-05-04T13:32:19.621Z</time></trkpt><trkpt lat="43.0540963" lon="17.4673801"><ele>10.333333333333334</ele><time>2026-05-04T13:32:20.621Z</time></trkpt><trkpt lat="43.0540597" lon="17.4671814"><ele>4.0</ele><time>2026-05-04T13:32:21.621Z</time></trkpt><trkpt lat="43.0540249" lon="17.4669809"><ele>4.0</ele><time>2026-05-04T13:32:22.62Z</time></trkpt><trkpt lat="43.0539982" lon="17.4667855"><ele>4.0</ele><time>2026-05-04T13:32:23.62Z</time></trkpt><trkpt lat="43.0539734" lon="17.4665894"><ele>4.0</ele><time>2026-05-04T13:32:24.621Z</time></trkpt><trkpt lat="43.0539505" lon="17.4663966"><ele>4.0</ele><time>2026-05-04T13:32:25.621Z</time></trkpt><trkpt lat="43.0539401" lon="17.4662061"><ele>4.0</ele><time>2026-05-04T13:32:26.62Z</time></trkpt><trkpt lat="43.053947" lon="17.4660165"><ele>4.0</ele><time>2026-05-04T13:32:27.62Z</time></trkpt><trkpt lat="43.0539726" lon="17.4658254"><ele>4.0</ele><time>2026-05-04T13:32:28.62Z</time></trkpt><trkpt lat="43.054015" lon="17.4656424"><ele>4.0</ele><time>2026-05-04T13:32:29.621Z</time></trkpt><trkpt lat="43.0540741" lon="17.4654689"><ele>8.0</ele><time>2026-05-04T13:32:30.621Z</time></trkpt><trkpt lat="43.0541395" lon="17.4652926"><ele>12.0</ele><time>2026-05-04T13:32:31.62Z</time></trkpt><trkpt lat="43.0542086" lon="17.4651063"><ele>16.0</ele><time>2026-05-04T13:32:32.621Z</time></trkpt><trkpt lat="43.0542834" lon="17.4649167"><ele>16.0</ele><time>2026-05-04T13:32:33.621Z</time></trkpt><trkpt lat="43.0543622" lon="17.4647244"><ele>16.0</ele><time>2026-05-04T13:32:34.62Z</time></trkpt><trkpt lat="43.0544418" lon="17.4645379"><ele>16.0</ele><time>2026-05-04T13:32:35.62Z</time></trkpt><trkpt lat="43.054517" lon="17.4643562"><ele>15.5</ele><time>2026-05-04T13:32:36.621Z</time></trkpt><trkpt lat="43.0545861" lon="17.4641781"><ele>15.0</ele><time>2026-05-04T13:32:37.62Z</time></trkpt><trkpt lat="43.0546411" lon="17.4639853"><ele>14.5</ele><time>2026-05-04T13:32:38.62Z</time></trkpt><trkpt lat="43.0546695" lon="17.4637867"><ele>14.0</ele><time>2026-05-04T13:32:39.621Z</time></trkpt><trkpt lat="43.0546763" lon="17.4635897"><ele>13.25</ele><time>2026-05-04T13:32:40.62Z</time></trkpt><trkpt lat="43.0546663" lon="17.4633973"><ele>12.5</ele><time>2026-05-04T13:32:41.62Z</time></trkpt><trkpt lat="43.0546434" lon="17.4632163"><ele>11.75</ele><time>2026-05-04T13:32:42.62Z</time></trkpt><trkpt lat="43.0546055" lon="17.4630352"><ele>11.0</ele><time>2026-05-04T13:32:43.62Z</time></trkpt><trkpt lat="43.0545479" lon="17.462873"><ele>12.5</ele><time>2026-05-04T13:32:44.62Z</time></trkpt><trkpt lat="43.0544751" lon="17.4627185"><ele>14.0</ele><time>2026-05-04T13:32:45.62Z</time></trkpt><trkpt lat="43.0543926" lon="17.4625613"><ele>15.5</ele><time>2026-05-04T13:32:46.62Z</time></trkpt><trkpt lat="43.0542952" lon="17.4624269"><ele>17.0</ele><time>2026-05-04T13:32:47.621Z</time></trkpt><trkpt lat="43.0541949" lon="17.4622932"><ele>16.5</ele><time>2026-05-04T13:32:48.62Z</time></trkpt><trkpt lat="43.0540862" lon="17.4621734"><ele>16.0</ele><time>2026-05-04T13:32:49.62Z</time></trkpt><trkpt lat="43.0539698" lon="17.46207"><ele>15.5</ele><time>2026-05-04T13:32:50.62Z</time></trkpt><trkpt lat="43.0538391" lon="17.4619801"><ele>15.0</ele><time>2026-05-04T13:32:51.621Z</time></trkpt><trkpt lat="43.053711" lon="17.4618974"><ele>15.25</ele><time>2026-05-04T13:32:52.62Z</time></trkpt><trkpt lat="43.0535854" lon="17.4618134"><ele>15.5</ele><time>2026-05-04T13:32:53.62Z</time></trkpt><trkpt lat="43.0534564" lon="17.4617342"><ele>15.75</ele><time>2026-05-04T13:32:54.62Z</time></trkpt><trkpt lat="43.0533348" lon="17.4616716"><ele>16.0</ele><time>2026-05-04T13:32:55.621Z</time></trkpt><trkpt lat="43.0532123" lon="17.4616117"><ele>16.0</ele><time>2026-05-04T13:32:56.621Z</time></trkpt><trkpt lat="43.0530939" lon="17.4615397"><ele>16.0</ele><time>2026-05-04T13:32:57.621Z</time></trkpt><trkpt lat="43.0529718" lon="17.4614604"><ele>16.0</ele><time>2026-05-04T13:32:58.62Z</time></trkpt><trkpt lat="43.0528481" lon="17.4613764"><ele>16.0</ele><time>2026-05-04T13:32:59.621Z</time></trkpt><trkpt lat="43.0527151" lon="17.4612563"><ele>12.0</ele><time>2026-05-04T13:33:00.62Z</time></trkpt><trkpt lat="43.0525962" lon="17.4611203"><ele>8.0</ele><time>2026-05-04T13:33:01.62Z</time></trkpt><trkpt lat="43.0524913" lon="17.4609638"><ele>4.0</ele><time>2026-05-04T13:33:02.621Z</time></trkpt><trkpt lat="43.0523919" lon="17.46077"><ele>4.0</ele><time>2026-05-04T13:33:03.62Z</time></trkpt><trkpt lat="43.052315" lon="17.460566"><ele>4.0</ele><time>2026-05-04T13:33:04.621Z</time></trkpt><trkpt lat="43.0522659" lon="17.4603524"><ele>4.0</ele><time>2026-05-04T13:33:05.621Z</time></trkpt><trkpt lat="43.05223" lon="17.4601266"><ele>5.666666666666666</ele><time>2026-05-04T13:33:06.621Z</time></trkpt><trkpt lat="43.0522176" lon="17.45989"><ele>7.333333333333333</ele><time>2026-05-04T13:33:07.62Z</time></trkpt><trkpt lat="43.0522051" lon="17.4596657"><ele>9.0</ele><time>2026-05-04T13:33:08.621Z</time></trkpt><trkpt lat="43.0521807" lon="17.4594329"><ele>10.333333333333332</ele><time>2026-05-04T13:33:09.621Z</time></trkpt><trkpt lat="43.0521657" lon="17.4592028"><ele>11.666666666666666</ele><time>2026-05-04T13:33:10.62Z</time></trkpt><trkpt lat="43.0521589" lon="17.4589664"><ele>13.0</ele><time>2026-05-04T13:33:11.62Z</time></trkpt><trkpt lat="43.0521448" lon="17.4587262"><ele>13.0</ele><time>2026-05-04T13:33:12.62Z</time></trkpt><trkpt lat="43.0521259" lon="17.4584752"><ele>13.0</ele><time>2026-05-04T13:33:13.62Z</time></trkpt><trkpt lat="43.0521063" lon="17.4582311"><ele>13.0</ele><time>2026-05-04T13:33:14.62Z</time></trkpt><trkpt lat="43.0520845" lon="17.4579761"><ele>13.666666666666666</ele><time>2026-05-04T13:33:15.62Z</time></trkpt><trkpt lat="43.0520602" lon="17.457725"><ele>14.333333333333332</ele><time>2026-05-04T13:33:16.62Z</time></trkpt><trkpt lat="43.052044" lon="17.4574836"><ele>15.0</ele><time>2026-05-04T13:33:17.62Z</time></trkpt><trkpt lat="43.0520283" lon="17.4572358"><ele>15.0</ele><time>2026-05-04T13:33:18.62Z</time></trkpt><trkpt lat="43.0520213" lon="17.4570026"><ele>15.0</ele><time>2026-05-04T13:33:19.621Z</time></trkpt><trkpt lat="43.0520178" lon="17.4567926"><ele>15.0</ele><time>2026-05-04T13:33:20.621Z</time></trkpt><trkpt lat="43.0520365" lon="17.456555"><ele>15.0</ele><time>2026-05-04T13:33:21.62Z</time></trkpt><trkpt lat="43.0520692" lon="17.4563231"><ele>15.0</ele><time>2026-05-04T13:33:22.62Z</time></trkpt><trkpt lat="43.0521436" lon="17.4561121"><ele>15.0</ele><time>2026-05-04T13:33:23.621Z</time></trkpt><trkpt lat="43.0522013" lon="17.4558992"><ele>13.0</ele><time>2026-05-04T13:33:24.62Z</time></trkpt><trkpt lat="43.0522736" lon="17.4556855"><ele>11.0</ele><time>2026-05-04T13:33:25.621Z</time></trkpt><trkpt lat="43.0523469" lon="17.4554754"><ele>9.0</ele><time>2026-05-04T13:33:26.621Z</time></trkpt><trkpt lat="43.0523997" lon="17.4552597"><ele>15.666666666666666</ele><time>2026-05-04T13:33:27.62Z</time></trkpt><trkpt lat="43.0524676" lon="17.4550292"><ele>22.333333333333332</ele><time>2026-05-04T13:33:28.621Z</time></trkpt><trkpt lat="43.0525113" lon="17.4547997"><ele>29.0</ele><time>2026-05-04T13:33:29.621Z</time></trkpt><trkpt lat="43.0525447" lon="17.4545766"><ele>29.0</ele><time>2026-05-04T13:33:30.62Z</time></trkpt><trkpt lat="43.0525661" lon="17.4543603"><ele>29.0</ele><time>2026-05-04T13:33:31.62Z</time></trkpt><trkpt lat="43.0525794" lon="17.4541558"><ele>29.0</ele><time>2026-05-04T13:33:32.621Z</time></trkpt><trkpt lat="43.0525943" lon="17.4539624"><ele>27.5</ele><time>2026-05-04T13:33:33.62Z</time></trkpt><trkpt lat="43.0526014" lon="17.4537709"><ele>26.0</ele><time>2026-05-04T13:33:34.62Z</time></trkpt><trkpt lat="43.0526223" lon="17.4535956"><ele>24.5</ele><time>2026-05-04T13:33:35.62Z</time></trkpt><trkpt lat="43.052668" lon="17.4534181"><ele>23.0</ele><time>2026-05-04T13:33:36.62Z</time></trkpt><trkpt lat="43.0527206" lon="17.4532501"><ele>23.0</ele><time>2026-05-04T13:33:37.62Z</time></trkpt><trkpt lat="43.0528053" lon="17.4531042"><ele>23.0</ele><time>2026-05-04T13:33:38.62Z</time></trkpt><trkpt lat="43.0529092" lon="17.4529772"><ele>23.0</ele><time>2026-05-04T13:33:39.621Z</time></trkpt><trkpt lat="43.0530295" lon="17.4528524"><ele>23.0</ele><time>2026-05-04T13:33:40.621Z</time></trkpt><trkpt lat="43.0531485" lon="17.4527358"><ele>23.0</ele><time>2026-05-04T13:33:41.62Z</time></trkpt><trkpt lat="43.0532617" lon="17.4526258"><ele>23.0</ele><time>2026-05-04T13:33:42.621Z</time></trkpt><trkpt lat="43.0533723" lon="17.4525134"><ele>23.0</ele><time>2026-05-04T13:33:43.621Z</time></trkpt><trkpt lat="43.0534818" lon="17.452404"><ele>23.0</ele><time>2026-05-04T13:33:44.62Z</time></trkpt><trkpt lat="43.0535903" lon="17.4522939"><ele>23.0</ele><time>2026-05-04T13:33:45.62Z</time></trkpt><trkpt lat="43.0536986" lon="17.4521902"><ele>23.0</ele><time>2026-05-04T13:33:46.62Z</time></trkpt><trkpt lat="43.053799" lon="17.4520875"><ele>23.0</ele><time>2026-05-04T13:33:47.62Z</time></trkpt><trkpt lat="43.0538943" lon="17.4519844"><ele>23.0</ele><time>2026-05-04T13:33:48.62Z</time></trkpt><trkpt lat="43.053987" lon="17.4518829"><ele>22.75</ele><time>2026-05-04T13:33:49.62Z</time></trkpt><trkpt lat="43.0540709" lon="17.4517809"><ele>22.5</ele><time>2026-05-04T13:33:50.621Z</time></trkpt><trkpt lat="43.0541546" lon="17.4516717"><ele>22.25</ele><time>2026-05-04T13:33:51.621Z</time></trkpt><trkpt lat="43.0542318" lon="17.451554"><ele>22.0</ele><time>2026-05-04T13:33:52.621Z</time></trkpt><trkpt lat="43.0543051" lon="17.4514369"><ele>22.0</ele><time>2026-05-04T13:33:53.621Z</time></trkpt><trkpt lat="43.0543744" lon="17.4513155"><ele>22.0</ele><time>2026-05-04T13:33:54.621Z</time></trkpt><trkpt lat="43.0544381" lon="17.451197"><ele>22.0</ele><time>2026-05-04T13:33:55.621Z</time></trkpt><trkpt lat="43.0544994" lon="17.4510682"><ele>22.0</ele><time>2026-05-04T13:33:56.621Z</time></trkpt><trkpt lat="43.0545607" lon="17.450935"><ele>22.0</ele><time>2026-05-04T13:33:57.621Z</time></trkpt><trkpt lat="43.0546221" lon="17.4508073"><ele>19.25</ele><time>2026-05-04T13:33:58.62Z</time></trkpt><trkpt lat="43.0546824" lon="17.4506702"><ele>16.5</ele><time>2026-05-04T13:33:59.621Z</time></trkpt><trkpt lat="43.0547371" lon="17.4505301"><ele>13.75</ele><time>2026-05-04T13:34:00.62Z</time></trkpt><trkpt lat="43.0547972" lon="17.4503911"><ele>11.0</ele><time>2026-05-04T13:34:01.621Z</time></trkpt><trkpt lat="43.054848" lon="17.4502462"><ele>8.75</ele><time>2026-05-04T13:34:02.62Z</time></trkpt><trkpt lat="43.0549046" lon="17.450097"><ele>6.5</ele><time>2026-05-04T13:34:03.62Z</time></trkpt><trkpt lat="43.0549591" lon="17.4499471"><ele>4.25</ele><time>2026-05-04T13:34:04.621Z</time></trkpt><trkpt lat="43.0549949" lon="17.4497814"><ele>2.0</ele><time>2026-05-04T13:34:05.62Z</time></trkpt><trkpt lat="43.0550062" lon="17.4496148"><ele>2.75</ele><time>2026-05-04T13:34:06.62Z</time></trkpt><trkpt lat="43.0550039" lon="17.4494438"><ele>3.5</ele><time>2026-05-04T13:34:07.62Z</time></trkpt><trkpt lat="43.0549847" lon="17.4492757"><ele>4.25</ele><time>2026-05-04T13:34:08.621Z</time></trkpt><trkpt lat="43.0549555" lon="17.4491105"><ele>5.0</ele><time>2026-05-04T13:34:09.621Z</time></trkpt><trkpt lat="43.0549089" lon="17.4489494"><ele>8.0</ele><time>2026-05-04T13:34:10.621Z</time></trkpt><trkpt lat="43.0548519" lon="17.4487854"><ele>11.0</ele><time>2026-05-04T13:34:11.621Z</time></trkpt><trkpt lat="43.0547944" lon="17.4486248"><ele>14.0</ele><time>2026-05-04T13:34:12.621Z</time></trkpt><trkpt lat="43.0547394" lon="17.4484778"><ele>17.0</ele><time>2026-05-04T13:34:13.621Z</time></trkpt><trkpt lat="43.0546969" lon="17.448341"><ele>17.0</ele><time>2026-05-04T13:34:14.62Z</time></trkpt><trkpt lat="43.0546551" lon="17.4482077"><ele>17.0</ele><time>2026-05-04T13:34:15.621Z</time></trkpt><trkpt lat="43.0546202" lon="17.448108"><ele>17.0</ele><time>2026-05-04T13:34:16.62Z</time></trkpt><trkpt lat="43.0545814" lon="17.4480018"><ele>17.0</ele><time>2026-05-04T13:34:17.621Z</time></trkpt><trkpt lat="43.0545336" lon="17.4478719"><ele>17.0</ele><time>2026-05-04T13:34:18.621Z</time></trkpt><trkpt lat="43.0544923" lon="17.4477204"><ele>18.0</ele><time>2026-05-04T13:34:19.62Z</time></trkpt><trkpt lat="43.0544498" lon="17.4475738"><ele>19.0</ele><time>2026-05-04T13:34:20.62Z</time></trkpt><trkpt lat="43.0544181" lon="17.4474182"><ele>20.0</ele><time>2026-05-04T13:34:21.621Z</time></trkpt><trkpt lat="43.0543862" lon="17.4472504"><ele>21.0</ele><time>2026-05-04T13:34:22.62Z</time></trkpt><trkpt lat="43.0543637" lon="17.4470711"><ele>21.0</ele><time>2026-05-04T13:34:23.621Z</time></trkpt><trkpt lat="43.0543585" lon="17.446879"><ele>21.0</ele><time>2026-05-04T13:34:24.62Z</time></trkpt><trkpt lat="43.0543621" lon="17.446703"><ele>21.0</ele><time>2026-05-04T13:34:25.621Z</time></trkpt><trkpt lat="43.0543759" lon="17.446526"><ele>21.0</ele><time>2026-05-04T13:34:26.621Z</time></trkpt><trkpt lat="43.0544028" lon="17.446348"><ele>19.5</ele><time>2026-05-04T13:34:27.621Z</time></trkpt><trkpt lat="43.0544313" lon="17.4461649"><ele>18.0</ele><time>2026-05-04T13:34:28.62Z</time></trkpt><trkpt lat="43.0544683" lon="17.4459886"><ele>16.5</ele><time>2026-05-04T13:34:29.621Z</time></trkpt><trkpt lat="43.0545075" lon="17.4458115"><ele>15.0</ele><time>2026-05-04T13:34:30.621Z</time></trkpt><trkpt lat="43.0545511" lon="17.4456401"><ele>15.0</ele><time>2026-05-04T13:34:31.62Z</time></trkpt><trkpt lat="43.0546084" lon="17.445483"><ele>15.0</ele><time>2026-05-04T13:34:32.62Z</time></trkpt><trkpt lat="43.0546761" lon="17.4453335"><ele>15.0</ele><time>2026-05-04T13:34:33.62Z</time></trkpt><trkpt lat="43.0547659" lon="17.4451968"><ele>15.0</ele><time>2026-05-04T13:34:34.621Z</time></trkpt><trkpt lat="43.0548616" lon="17.44508"><ele>18.5</ele><time>2026-05-04T13:34:35.621Z</time></trkpt><trkpt lat="43.0549717" lon="17.4449855"><ele>22.0</ele><time>2026-05-04T13:34:36.621Z</time></trkpt><trkpt lat="43.0550999" lon="17.4449037"><ele>25.5</ele><time>2026-05-04T13:34:37.621Z</time></trkpt><trkpt lat="43.0552382" lon="17.4448429"><ele>29.0</ele><time>2026-05-04T13:34:38.621Z</time></trkpt><trkpt lat="43.0553983" lon="17.4448113"><ele>29.0</ele><time>2026-05-04T13:34:39.621Z</time></trkpt><trkpt lat="43.055567" lon="17.4448079"><ele>29.0</ele><time>2026-05-04T13:34:40.62Z</time></trkpt><trkpt lat="43.0557478" lon="17.4448178"><ele>29.0</ele><time>2026-05-04T13:34:41.62Z</time></trkpt><trkpt lat="43.0559294" lon="17.444817"><ele>32.33333333333333</ele><time>2026-05-04T13:34:42.621Z</time></trkpt><trkpt lat="43.056119" lon="17.4447954"><ele>35.666666666666664</ele><time>2026-05-04T13:34:43.621Z</time></trkpt><trkpt lat="43.0563157" lon="17.4447579"><ele>39.0</ele><time>2026-05-04T13:34:44.62Z</time></trkpt><trkpt lat="43.0565183" lon="17.4447298"><ele>39.333333333333336</ele><time>2026-05-04T13:34:45.62Z</time></trkpt><trkpt lat="43.0567317" lon="17.4447245"><ele>39.66666666666667</ele><time>2026-05-04T13:34:46.62Z</time></trkpt><trkpt lat="43.056946" lon="17.4447433"><ele>40.0</ele><time>2026-05-04T13:34:47.621Z</time></trkpt><trkpt lat="43.0571694" lon="17.4447654"><ele>40.0</ele><time>2026-05-04T13:34:48.621Z</time></trkpt><trkpt lat="43.0573953" lon="17.4447983"><ele>40.0</ele><time>2026-05-04T13:34:49.621Z</time></trkpt><trkpt lat="43.0576238" lon="17.444831"><ele>37.5</ele><time>2026-05-04T13:34:50.62Z</time></trkpt><trkpt lat="43.0578502" lon="17.4448694"><ele>35.0</ele><time>2026-05-04T13:34:51.62Z</time></trkpt><trkpt lat="43.0580761" lon="17.4449005"><ele>35.5</ele><time>2026-05-04T13:34:52.62Z</time></trkpt><trkpt lat="43.0583019" lon="17.4449339"><ele>36.0</ele><time>2026-05-04T13:34:53.621Z</time></trkpt><trkpt lat="43.0585232" lon="17.4449667"><ele>36.0</ele><time>2026-05-04T13:34:54.621Z</time></trkpt><trkpt lat="43.0587399" lon="17.4449971"><ele>36.0</ele><time>2026-05-04T13:34:55.621Z</time></trkpt><trkpt lat="43.0589533" lon="17.4450274"><ele>36.0</ele><time>2026-05-04T13:34:56.621Z</time></trkpt><trkpt lat="43.0591552" lon="17.4450547"><ele>35.333333333333336</ele><time>2026-05-04T13:34:57.621Z</time></trkpt><trkpt lat="43.0593567" lon="17.445083"><ele>34.66666666666667</ele><time>2026-05-04T13:34:58.621Z</time></trkpt><trkpt lat="43.0595613" lon="17.4451084"><ele>34.0</ele><time>2026-05-04T13:34:59.621Z</time></trkpt><trkpt lat="43.0597481" lon="17.4451195"><ele>34.0</ele><time>2026-05-04T13:35:00.621Z</time></trkpt><trkpt lat="43.059932" lon="17.4451049"><ele>34.0</ele><time>2026-05-04T13:35:01.621Z</time></trkpt><trkpt lat="43.0601154" lon="17.4450614"><ele>34.0</ele><time>2026-05-04T13:35:02.621Z</time></trkpt><trkpt lat="43.0603" lon="17.4449871"><ele>33.66666666666667</ele><time>2026-05-04T13:35:03.621Z</time></trkpt><trkpt lat="43.0604806" lon="17.4448896"><ele>33.333333333333336</ele><time>2026-05-04T13:35:04.62Z</time></trkpt><trkpt lat="43.0606575" lon="17.4447656"><ele>33.0</ele><time>2026-05-04T13:35:05.621Z</time></trkpt><trkpt lat="43.0608274" lon="17.4446122"><ele>33.0</ele><time>2026-05-04T13:35:06.62Z</time></trkpt><trkpt lat="43.0609891" lon="17.4444368"><ele>33.0</ele><time>2026-05-04T13:35:07.621Z</time></trkpt><trkpt lat="43.0611496" lon="17.4442536"><ele>33.0</ele><time>2026-05-04T13:35:08.62Z</time></trkpt><trkpt lat="43.0613054" lon="17.4440728"><ele>33.0</ele><time>2026-05-04T13:35:09.62Z</time></trkpt><trkpt lat="43.0614595" lon="17.4438887"><ele>33.0</ele><time>2026-05-04T13:35:10.62Z</time></trkpt><trkpt lat="43.0616177" lon="17.4437205"><ele>33.0</ele><time>2026-05-04T13:35:11.621Z</time></trkpt><trkpt lat="43.0617791" lon="17.4435518"><ele>37.0</ele><time>2026-05-04T13:35:12.621Z</time></trkpt><trkpt lat="43.0619498" lon="17.4433938"><ele>41.0</ele><time>2026-05-04T13:35:13.621Z</time></trkpt><trkpt lat="43.0621244" lon="17.4432359"><ele>45.0</ele><time>2026-05-04T13:35:14.621Z</time></trkpt><trkpt lat="43.0622973" lon="17.4430845"><ele>52.33333333333333</ele><time>2026-05-04T13:35:15.621Z</time></trkpt><trkpt lat="43.0624743" lon="17.4429288"><ele>59.666666666666664</ele><time>2026-05-04T13:35:16.62Z</time></trkpt><trkpt lat="43.0626482" lon="17.4427676"><ele>67.0</ele><time>2026-05-04T13:35:17.621Z</time></trkpt><trkpt lat="43.062817" lon="17.4426146"><ele>67.0</ele><time>2026-05-04T13:35:18.62Z</time></trkpt><trkpt lat="43.0629851" lon="17.4424632"><ele>67.0</ele><time>2026-05-04T13:35:19.621Z</time></trkpt><trkpt lat="43.063147" lon="17.4423119"><ele>67.0</ele><time>2026-05-04T13:35:20.621Z</time></trkpt><trkpt lat="43.0633035" lon="17.4421557"><ele>67.0</ele><time>2026-05-04T13:35:21.62Z</time></trkpt><trkpt lat="43.0634561" lon="17.4419927"><ele>67.0</ele><time>2026-05-04T13:35:22.621Z</time></trkpt><trkpt lat="43.063602" lon="17.4418185"><ele>67.0</ele><time>2026-05-04T13:35:23.62Z</time></trkpt><trkpt lat="43.0637454" lon="17.4416297"><ele>67.0</ele><time>2026-05-04T13:35:24.621Z</time></trkpt><trkpt lat="43.0638797" lon="17.4414318"><ele>67.0</ele><time>2026-05-04T13:35:25.62Z</time></trkpt><trkpt lat="43.0640037" lon="17.4412174"><ele>67.0</ele><time>2026-05-04T13:35:26.62Z</time></trkpt><trkpt lat="43.0641167" lon="17.4409901"><ele>64.66666666666666</ele><time>2026-05-04T13:35:27.62Z</time></trkpt><trkpt lat="43.0642211" lon="17.440753"><ele>62.33333333333333</ele><time>2026-05-04T13:35:28.62Z</time></trkpt><trkpt lat="43.0643128" lon="17.4404975"><ele>60.0</ele><time>2026-05-04T13:35:29.621Z</time></trkpt><trkpt lat="43.0643937" lon="17.4402427"><ele>60.0</ele><time>2026-05-04T13:35:30.62Z</time></trkpt><trkpt lat="43.0644635" lon="17.4399831"><ele>60.0</ele><time>2026-05-04T13:35:31.621Z</time></trkpt><trkpt lat="43.0645239" lon="17.4397294"><ele>60.0</ele><time>2026-05-04T13:35:32.621Z</time></trkpt><trkpt lat="43.064566" lon="17.4394851"><ele>59.0</ele><time>2026-05-04T13:35:33.621Z</time></trkpt><trkpt lat="43.0645925" lon="17.4392401"><ele>58.0</ele><time>2026-05-04T13:35:34.621Z</time></trkpt><trkpt lat="43.0646122" lon="17.4389876"><ele>57.0</ele><time>2026-05-04T13:35:35.62Z</time></trkpt><trkpt lat="43.064615" lon="17.4387253"><ele>57.0</ele><time>2026-05-04T13:35:36.62Z</time></trkpt><trkpt lat="43.0646091" lon="17.4384571"><ele>57.0</ele><time>2026-05-04T13:35:37.62Z</time></trkpt><trkpt lat="43.0645992" lon="17.4381834"><ele>57.0</ele><time>2026-05-04T13:35:38.621Z</time></trkpt><trkpt lat="43.0645938" lon="17.4379048"><ele>51.0</ele><time>2026-05-04T13:35:39.621Z</time></trkpt><trkpt lat="43.0645825" lon="17.4376208"><ele>45.0</ele><time>2026-05-04T13:35:40.621Z</time></trkpt><trkpt lat="43.0645692" lon="17.4373366"><ele>39.0</ele><time>2026-05-04T13:35:41.62Z</time></trkpt><trkpt lat="43.0645595" lon="17.43706"><ele>36.666666666666664</ele><time>2026-05-04T13:35:42.62Z</time></trkpt><trkpt lat="43.0645555" lon="17.436789"><ele>34.33333333333333</ele><time>2026-05-04T13:35:43.62Z</time></trkpt><trkpt lat="43.064562" lon="17.4365271"><ele>32.0</ele><time>2026-05-04T13:35:44.62Z</time></trkpt><trkpt lat="43.0645777" lon="17.4362668"><ele>32.0</ele><time>2026-05-04T13:35:45.621Z</time></trkpt><trkpt lat="43.0646151" lon="17.4360087"><ele>32.0</ele><time>2026-05-04T13:35:46.621Z</time></trkpt><trkpt lat="43.0646554" lon="17.4357606"><ele>32.0</ele><time>2026-05-04T13:35:47.621Z</time></trkpt><trkpt lat="43.0647105" lon="17.4355211"><ele>30.666666666666664</ele><time>2026-05-04T13:35:48.621Z</time></trkpt><trkpt lat="43.0647789" lon="17.435289"><ele>29.333333333333336</ele><time>2026-05-04T13:35:49.621Z</time></trkpt><trkpt lat="43.0648499" lon="17.4350571"><ele>28.0</ele><time>2026-05-04T13:35:50.62Z</time></trkpt><trkpt lat="43.0649373" lon="17.4348275"><ele>29.666666666666668</ele><time>2026-05-04T13:35:51.62Z</time></trkpt><trkpt lat="43.0650316" lon="17.4346033"><ele>31.333333333333336</ele><time>2026-05-04T13:35:52.62Z</time></trkpt><trkpt lat="43.0651373" lon="17.4343812"><ele>33.0</ele><time>2026-05-04T13:35:53.621Z</time></trkpt><trkpt lat="43.0652546" lon="17.4341746"><ele>33.0</ele><time>2026-05-04T13:35:54.62Z</time></trkpt><trkpt lat="43.0653711" lon="17.4339768"><ele>33.0</ele><time>2026-05-04T13:35:55.62Z</time></trkpt><trkpt lat="43.0654999" lon="17.433792"><ele>33.0</ele><time>2026-05-04T13:35:56.62Z</time></trkpt><trkpt lat="43.0656344" lon="17.4336214"><ele>35.333333333333336</ele><time>2026-05-04T13:35:57.621Z</time></trkpt><trkpt lat="43.0657792" lon="17.4334619"><ele>37.66666666666667</ele><time>2026-05-04T13:35:58.621Z</time></trkpt><trkpt lat="43.0659215" lon="17.4333214"><ele>40.0</ele><time>2026-05-04T13:35:59.62Z</time></trkpt><trkpt lat="43.0660788" lon="17.4331891"><ele>40.0</ele><time>2026-05-04T13:36:00.62Z</time></trkpt><trkpt lat="43.0662355" lon="17.4330651"><ele>40.0</ele><time>2026-05-04T13:36:01.62Z</time></trkpt><trkpt lat="43.0663963" lon="17.4329546"><ele>40.0</ele><time>2026-05-04T13:36:02.621Z</time></trkpt><trkpt lat="43.0665622" lon="17.4328499"><ele>41.0</ele><time>2026-05-04T13:36:03.621Z</time></trkpt><trkpt lat="43.0667212" lon="17.4327418"><ele>42.0</ele><time>2026-05-04T13:36:04.62Z</time></trkpt><trkpt lat="43.0668779" lon="17.4326188"><ele>43.0</ele><time>2026-05-04T13:36:05.62Z</time></trkpt><trkpt lat="43.0670174" lon="17.4324862"><ele>43.0</ele><time>2026-05-04T13:36:06.621Z</time></trkpt><trkpt lat="43.067141" lon="17.4323395"><ele>43.0</ele><time>2026-05-04T13:36:07.621Z</time></trkpt><trkpt lat="43.0672445" lon="17.4321741"><ele>43.0</ele><time>2026-05-04T13:36:08.621Z</time></trkpt><trkpt lat="43.0673251" lon="17.431999"><ele>42.75</ele><time>2026-05-04T13:36:09.62Z</time></trkpt><trkpt lat="43.0673798" lon="17.4318189"><ele>42.5</ele><time>2026-05-04T13:36:10.621Z</time></trkpt><trkpt lat="43.0674077" lon="17.4316241"><ele>42.25</ele><time>2026-05-04T13:36:11.621Z</time></trkpt><trkpt lat="43.0674065" lon="17.4314181"><ele>42.0</ele><time>2026-05-04T13:36:12.621Z</time></trkpt><trkpt lat="43.0673757" lon="17.4312178"><ele>42.0</ele><time>2026-05-04T13:36:13.621Z</time></trkpt><trkpt lat="43.0673249" lon="17.43102"><ele>42.0</ele><time>2026-05-04T13:36:14.62Z</time></trkpt><trkpt lat="43.0672602" lon="17.4308259"><ele>42.0</ele><time>2026-05-04T13:36:15.62Z</time></trkpt><trkpt lat="43.0671898" lon="17.4306477"><ele>41.25</ele><time>2026-05-04T13:36:16.62Z</time></trkpt><trkpt lat="43.0671336" lon="17.4304669"><ele>40.5</ele><time>2026-05-04T13:36:17.62Z</time></trkpt><trkpt lat="43.0670811" lon="17.4302836"><ele>39.75</ele><time>2026-05-04T13:36:18.62Z</time></trkpt><trkpt lat="43.0670432" lon="17.4300955"><ele>39.0</ele><time>2026-05-04T13:36:19.621Z</time></trkpt><trkpt lat="43.0670268" lon="17.4299007"><ele>39.0</ele><time>2026-05-04T13:36:20.62Z</time></trkpt><trkpt lat="43.0670299" lon="17.4297055"><ele>39.0</ele><time>2026-05-04T13:36:21.621Z</time></trkpt><trkpt lat="43.0670385" lon="17.4295094"><ele>39.0</ele><time>2026-05-04T13:36:22.621Z</time></trkpt><trkpt lat="43.0670392" lon="17.4293097"><ele>39.0</ele><time>2026-05-04T13:36:23.621Z</time></trkpt><trkpt lat="43.0670353" lon="17.4291167"><ele>38.25</ele><time>2026-05-04T13:36:24.62Z</time></trkpt><trkpt lat="43.0670184" lon="17.4289251"><ele>37.5</ele><time>2026-05-04T13:36:25.621Z</time></trkpt><trkpt lat="43.0669744" lon="17.4287417"><ele>36.75</ele><time>2026-05-04T13:36:26.621Z</time></trkpt><trkpt lat="43.0669056" lon="17.4285606"><ele>36.0</ele><time>2026-05-04T13:36:27.62Z</time></trkpt><trkpt lat="43.0668236" lon="17.4283923"><ele>33.5</ele><time>2026-05-04T13:36:28.621Z</time></trkpt><trkpt lat="43.066721" lon="17.4282332"><ele>31.0</ele><time>2026-05-04T13:36:29.621Z</time></trkpt><trkpt lat="43.0666268" lon="17.4280859"><ele>28.5</ele><time>2026-05-04T13:36:30.62Z</time></trkpt><trkpt lat="43.066546" lon="17.427922"><ele>26.0</ele><time>2026-05-04T13:36:31.62Z</time></trkpt><trkpt lat="43.0664777" lon="17.4277609"><ele>25.75</ele><time>2026-05-04T13:36:32.621Z</time></trkpt><trkpt lat="43.0664206" lon="17.4275905"><ele>25.5</ele><time>2026-05-04T13:36:33.621Z</time></trkpt><trkpt lat="43.0663808" lon="17.427419"><ele>25.25</ele><time>2026-05-04T13:36:34.62Z</time></trkpt><trkpt lat="43.0663631" lon="17.4272426"><ele>25.0</ele><time>2026-05-04T13:36:35.62Z</time></trkpt><trkpt lat="43.066367" lon="17.4270606"><ele>21.25</ele><time>2026-05-04T13:36:36.621Z</time></trkpt><trkpt lat="43.0663962" lon="17.4268942"><ele>17.5</ele><time>2026-05-04T13:36:37.62Z</time></trkpt><trkpt lat="43.0664375" lon="17.426731"><ele>13.75</ele><time>2026-05-04T13:36:38.62Z</time></trkpt><trkpt lat="43.0664935" lon="17.4265817"><ele>10.0</ele><time>2026-05-04T13:36:39.62Z</time></trkpt><trkpt lat="43.0665749" lon="17.4264348"><ele>10.0</ele><time>2026-05-04T13:36:40.621Z</time></trkpt><trkpt lat="43.0666805" lon="17.4263097"><ele>10.0</ele><time>2026-05-04T13:36:41.621Z</time></trkpt><trkpt lat="43.0668095" lon="17.4262046"><ele>10.0</ele><time>2026-05-04T13:36:42.621Z</time></trkpt><trkpt lat="43.0669424" lon="17.4261235"><ele>10.0</ele><time>2026-05-04T13:36:43.62Z</time></trkpt><trkpt lat="43.0670792" lon="17.4260556"><ele>10.0</ele><time>2026-05-04T13:36:44.621Z</time></trkpt><trkpt lat="43.0672277" lon="17.4259898"><ele>10.0</ele><time>2026-05-04T13:36:45.621Z</time></trkpt><trkpt lat="43.0673795" lon="17.4259228"><ele>10.0</ele><time>2026-05-04T13:36:46.62Z</time></trkpt><trkpt lat="43.0675208" lon="17.4258335"><ele>8.666666666666668</ele><time>2026-05-04T13:36:47.62Z</time></trkpt><trkpt lat="43.0676475" lon="17.4257132"><ele>7.333333333333334</ele><time>2026-05-04T13:36:48.621Z</time></trkpt><trkpt lat="43.067763" lon="17.4255635"><ele>6.0</ele><time>2026-05-04T13:36:49.619Z</time></trkpt><trkpt lat="43.0678625" lon="17.4253949"><ele>6.0</ele><time>2026-05-04T13:36:50.621Z</time></trkpt><trkpt lat="43.0679585" lon="17.4252139"><ele>6.0</ele><time>2026-05-04T13:36:51.62Z</time></trkpt><trkpt lat="43.0680562" lon="17.4250303"><ele>6.0</ele><time>2026-05-04T13:36:52.621Z</time></trkpt><trkpt lat="43.0681617" lon="17.4248469"><ele>6.0</ele><time>2026-05-04T13:36:53.62Z</time></trkpt><trkpt lat="43.0682746" lon="17.4246632"><ele>6.0</ele><time>2026-05-04T13:36:54.621Z</time></trkpt><trkpt lat="43.0683882" lon="17.4244939"><ele>6.0</ele><time>2026-05-04T13:36:55.62Z</time></trkpt><trkpt lat="43.0685258" lon="17.4243113"><ele>8.666666666666668</ele><time>2026-05-04T13:36:56.621Z</time></trkpt><trkpt lat="43.0686608" lon="17.4241347"><ele>11.333333333333334</ele><time>2026-05-04T13:36:57.621Z</time></trkpt><trkpt lat="43.0687962" lon="17.4239607"><ele>14.0</ele><time>2026-05-04T13:36:58.621Z</time></trkpt><trkpt lat="43.0689368" lon="17.4237827"><ele>15.333333333333334</ele><time>2026-05-04T13:36:59.62Z</time></trkpt><trkpt lat="43.0690751" lon="17.423597"><ele>16.666666666666668</ele><time>2026-05-04T13:37:00.621Z</time></trkpt><trkpt lat="43.0692173" lon="17.4234055"><ele>18.0</ele><time>2026-05-04T13:37:01.621Z</time></trkpt><trkpt lat="43.0693463" lon="17.4232119"><ele>18.0</ele><time>2026-05-04T13:37:02.62Z</time></trkpt><trkpt lat="43.0694562" lon="17.423006"><ele>18.0</ele><time>2026-05-04T13:37:03.621Z</time></trkpt><trkpt lat="43.0695526" lon="17.4227899"><ele>18.0</ele><time>2026-05-04T13:37:04.62Z</time></trkpt><trkpt lat="43.0696334" lon="17.4225657"><ele>24.666666666666664</ele><time>2026-05-04T13:37:05.621Z</time></trkpt><trkpt lat="43.0696987" lon="17.4223352"><ele>31.333333333333332</ele><time>2026-05-04T13:37:06.621Z</time></trkpt><trkpt lat="43.0697486" lon="17.4220957"><ele>38.0</ele><time>2026-05-04T13:37:07.62Z</time></trkpt><trkpt lat="43.0697734" lon="17.4218556"><ele>41.33333333333333</ele><time>2026-05-04T13:37:08.621Z</time></trkpt><trkpt lat="43.0697765" lon="17.421613"><ele>44.666666666666664</ele><time>2026-05-04T13:37:09.62Z</time></trkpt><trkpt lat="43.0697686" lon="17.4213722"><ele>48.0</ele><time>2026-05-04T13:37:10.621Z</time></trkpt><trkpt lat="43.0697444" lon="17.4211212"><ele>48.0</ele><time>2026-05-04T13:37:11.62Z</time></trkpt><trkpt lat="43.069715" lon="17.420873"><ele>48.0</ele><time>2026-05-04T13:37:12.62Z</time></trkpt><trkpt lat="43.0696724" lon="17.4206302"><ele>48.0</ele><time>2026-05-04T13:37:13.621Z</time></trkpt><trkpt lat="43.0696112" lon="17.4204034"><ele>42.333333333333336</ele><time>2026-05-04T13:37:14.62Z</time></trkpt><trkpt lat="43.0695182" lon="17.4201929"><ele>36.66666666666667</ele><time>2026-05-04T13:37:15.621Z</time></trkpt><trkpt lat="43.0694174" lon="17.4200032"><ele>31.0</ele><time>2026-05-04T13:37:16.62Z</time></trkpt><trkpt lat="43.0693143" lon="17.4198412"><ele>31.0</ele><time>2026-05-04T13:37:17.62Z</time></trkpt><trkpt lat="43.0692175" lon="17.4196871"><ele>31.0</ele><time>2026-05-04T13:37:18.62Z</time></trkpt><trkpt lat="43.0691267" lon="17.4195321"><ele>31.0</ele><time>2026-05-04T13:37:19.621Z</time></trkpt><trkpt lat="43.0690537" lon="17.4193601"><ele>31.0</ele><time>2026-05-04T13:37:20.621Z</time></trkpt><trkpt lat="43.0690009" lon="17.4191749"><ele>34.333333333333336</ele><time>2026-05-04T13:37:21.62Z</time></trkpt><trkpt lat="43.068982" lon="17.418975"><ele>37.666666666666664</ele><time>2026-05-04T13:37:22.621Z</time></trkpt><trkpt lat="43.0689952" lon="17.4187602"><ele>41.0</ele><time>2026-05-04T13:37:23.62Z</time></trkpt><trkpt lat="43.0690265" lon="17.4185353"><ele>41.666666666666664</ele><time>2026-05-04T13:37:24.621Z</time></trkpt><trkpt lat="43.0690592" lon="17.4183126"><ele>42.333333333333336</ele><time>2026-05-04T13:37:25.62Z</time></trkpt><trkpt lat="43.0690745" lon="17.4180877"><ele>43.0</ele><time>2026-05-04T13:37:26.62Z</time></trkpt><trkpt lat="43.069059" lon="17.4178653"><ele>40.66666666666667</ele><time>2026-05-04T13:37:27.621Z</time></trkpt><trkpt lat="43.0690171" lon="17.4176331"><ele>38.333333333333336</ele><time>2026-05-04T13:37:28.62Z</time></trkpt><trkpt lat="43.0689548" lon="17.4173992"><ele>36.0</ele><time>2026-05-04T13:37:29.62Z</time></trkpt><trkpt lat="43.0688836" lon="17.4171652"><ele>31.0</ele><time>2026-05-04T13:37:30.62Z</time></trkpt><trkpt lat="43.068812" lon="17.4169373"><ele>26.0</ele><time>2026-05-04T13:37:31.621Z</time></trkpt><trkpt lat="43.0687448" lon="17.4167203"><ele>21.0</ele><time>2026-05-04T13:37:32.62Z</time></trkpt><trkpt lat="43.0686978" lon="17.4164974"><ele>19.333333333333332</ele><time>2026-05-04T13:37:33.621Z</time></trkpt><trkpt lat="43.0686737" lon="17.4162822"><ele>17.666666666666664</ele><time>2026-05-04T13:37:34.621Z</time></trkpt><trkpt lat="43.0686744" lon="17.4160646"><ele>16.0</ele><time>2026-05-04T13:37:35.621Z</time></trkpt><trkpt lat="43.0686971" lon="17.4158538"><ele>16.0</ele><time>2026-05-04T13:37:36.62Z</time></trkpt><trkpt lat="43.06876" lon="17.4156367"><ele>16.0</ele><time>2026-05-04T13:37:37.62Z</time></trkpt><trkpt lat="43.0688362" lon="17.4154471"><ele>16.0</ele><time>2026-05-04T13:37:38.62Z</time></trkpt><trkpt lat="43.068934" lon="17.4152757"><ele>17.666666666666664</ele><time>2026-05-04T13:37:39.621Z</time></trkpt><trkpt lat="43.0690522" lon="17.4151165"><ele>19.333333333333332</ele><time>2026-05-04T13:37:40.621Z</time></trkpt><trkpt lat="43.0691668" lon="17.4149686"><ele>21.0</ele><time>2026-05-04T13:37:41.621Z</time></trkpt><trkpt lat="43.0692979" lon="17.4148314"><ele>21.0</ele><time>2026-05-04T13:37:42.621Z</time></trkpt><trkpt lat="43.0694265" lon="17.4146916"><ele>21.0</ele><time>2026-05-04T13:37:43.621Z</time></trkpt><trkpt lat="43.0695601" lon="17.4145527"><ele>21.0</ele><time>2026-05-04T13:37:44.62Z</time></trkpt><trkpt lat="43.0696931" lon="17.4144147"><ele>21.333333333333332</ele><time>2026-05-04T13:37:45.62Z</time></trkpt><trkpt lat="43.0698237" lon="17.4142756"><ele>21.666666666666664</ele><time>2026-05-04T13:37:46.62Z</time></trkpt><trkpt lat="43.069951" lon="17.41414"><ele>22.0</ele><time>2026-05-04T13:37:47.621Z</time></trkpt><trkpt lat="43.0700684" lon="17.4139911"><ele>22.0</ele><time>2026-05-04T13:37:48.62Z</time></trkpt><trkpt lat="43.0701693" lon="17.4138231"><ele>22.0</ele><time>2026-05-04T13:37:49.62Z</time></trkpt><trkpt lat="43.0702517" lon="17.4136364"><ele>22.0</ele><time>2026-05-04T13:37:50.62Z</time></trkpt><trkpt lat="43.0703124" lon="17.4134341"><ele>25.666666666666664</ele><time>2026-05-04T13:37:51.62Z</time></trkpt><trkpt lat="43.0703492" lon="17.4132177"><ele>29.333333333333332</ele><time>2026-05-04T13:37:52.62Z</time></trkpt><trkpt lat="43.070366" lon="17.4129916"><ele>33.0</ele><time>2026-05-04T13:37:53.621Z</time></trkpt><trkpt lat="43.0703628" lon="17.4127621"><ele>35.666666666666664</ele><time>2026-05-04T13:37:54.621Z</time></trkpt><trkpt lat="43.070346" lon="17.4125353"><ele>38.33333333333333</ele><time>2026-05-04T13:37:55.62Z</time></trkpt><trkpt lat="43.0703258" lon="17.4123133"><ele>41.0</ele><time>2026-05-04T13:37:56.621Z</time></trkpt><trkpt lat="43.0703199" lon="17.412087"><ele>44.666666666666664</ele><time>2026-05-04T13:37:57.621Z</time></trkpt><trkpt lat="43.0703406" lon="17.411855"><ele>48.33333333333333</ele><time>2026-05-04T13:37:58.62Z</time></trkpt><trkpt lat="43.0703735" lon="17.4116345"><ele>52.0</ele><time>2026-05-04T13:37:59.621Z</time></trkpt><trkpt lat="43.070441" lon="17.4114311"><ele>48.0</ele><time>2026-05-04T13:38:00.62Z</time></trkpt><trkpt lat="43.0705449" lon="17.4112521"><ele>44.0</ele><time>2026-05-04T13:38:01.62Z</time></trkpt><trkpt lat="43.0706716" lon="17.4110939"><ele>40.0</ele><time>2026-05-04T13:38:02.621Z</time></trkpt><trkpt lat="43.0708076" lon="17.4109524"><ele>40.0</ele><time>2026-05-04T13:38:03.621Z</time></trkpt><trkpt lat="43.070956" lon="17.4108099"><ele>40.0</ele><time>2026-05-04T13:38:04.62Z</time></trkpt><trkpt lat="43.0710876" lon="17.4106685"><ele>40.0</ele><time>2026-05-04T13:38:05.621Z</time></trkpt><trkpt lat="43.071197" lon="17.410519"><ele>43.25</ele><time>2026-05-04T13:38:06.62Z</time></trkpt><trkpt lat="43.0712728" lon="17.4103481"><ele>46.5</ele><time>2026-05-04T13:38:07.62Z</time></trkpt><trkpt lat="43.0713101" lon="17.4101677"><ele>49.75</ele><time>2026-05-04T13:38:08.62Z</time></trkpt><trkpt lat="43.0713106" lon="17.4099661"><ele>53.0</ele><time>2026-05-04T13:38:09.621Z</time></trkpt><trkpt lat="43.0712804" lon="17.4097591"><ele>51.0</ele><time>2026-05-04T13:38:10.62Z</time></trkpt><trkpt lat="43.0712231" lon="17.4095476"><ele>49.0</ele><time>2026-05-04T13:38:11.62Z</time></trkpt><trkpt lat="43.0711497" lon="17.4093306"><ele>47.0</ele><time>2026-05-04T13:38:12.621Z</time></trkpt><trkpt lat="43.0710598" lon="17.4091208"><ele>47.0</ele><time>2026-05-04T13:38:13.621Z</time></trkpt><trkpt lat="43.0709659" lon="17.4089197"><ele>47.0</ele><time>2026-05-04T13:38:14.621Z</time></trkpt><trkpt lat="43.0708703" lon="17.4087174"><ele>47.0</ele><time>2026-05-04T13:38:15.621Z</time></trkpt><trkpt lat="43.070765" lon="17.408526"><ele>46.666666666666664</ele><time>2026-05-04T13:38:16.621Z</time></trkpt><trkpt lat="43.0706591" lon="17.408326"><ele>46.333333333333336</ele><time>2026-05-04T13:38:17.62Z</time></trkpt><trkpt lat="43.0705508" lon="17.4081371"><ele>46.0</ele><time>2026-05-04T13:38:18.62Z</time></trkpt><trkpt lat="43.0704346" lon="17.4079515"><ele>46.0</ele><time>2026-05-04T13:38:19.62Z</time></trkpt><trkpt lat="43.0703161" lon="17.4077704"><ele>46.0</ele><time>2026-05-04T13:38:20.62Z</time></trkpt><trkpt lat="43.0701996" lon="17.4075867"><ele>46.0</ele><time>2026-05-04T13:38:21.621Z</time></trkpt><trkpt lat="43.0700899" lon="17.4074022"><ele>46.0</ele><time>2026-05-04T13:38:22.621Z</time></trkpt><trkpt lat="43.0699681" lon="17.4072188"><ele>46.0</ele><time>2026-05-04T13:38:23.62Z</time></trkpt><trkpt lat="43.0698484" lon="17.4070343"><ele>46.0</ele><time>2026-05-04T13:38:24.62Z</time></trkpt><trkpt lat="43.0697299" lon="17.4068573"><ele>53.333333333333336</ele><time>2026-05-04T13:38:25.621Z</time></trkpt><trkpt lat="43.0696136" lon="17.4066855"><ele>60.66666666666667</ele><time>2026-05-04T13:38:26.62Z</time></trkpt><trkpt lat="43.0694977" lon="17.406516"><ele>68.0</ele><time>2026-05-04T13:38:27.621Z</time></trkpt><trkpt lat="43.0693812" lon="17.4063461"><ele>61.0</ele><time>2026-05-04T13:38:28.621Z</time></trkpt><trkpt lat="43.0692647" lon="17.4061773"><ele>54.0</ele><time>2026-05-04T13:38:29.62Z</time></trkpt><trkpt lat="43.0691586" lon="17.4060012"><ele>47.0</ele><time>2026-05-04T13:38:30.62Z</time></trkpt><trkpt lat="43.0690667" lon="17.4058219"><ele>61.33333333333333</ele><time>2026-05-04T13:38:31.621Z</time></trkpt><trkpt lat="43.0689915" lon="17.4056225"><ele>75.66666666666667</ele><time>2026-05-04T13:38:32.621Z</time></trkpt><trkpt lat="43.0689407" lon="17.4054162"><ele>90.0</ele><time>2026-05-04T13:38:33.621Z</time></trkpt><trkpt lat="43.0689178" lon="17.4052106"><ele>90.0</ele><time>2026-05-04T13:38:34.62Z</time></trkpt><trkpt lat="43.0689178" lon="17.4050136"><ele>90.0</ele><time>2026-05-04T13:38:35.62Z</time></trkpt><trkpt lat="43.0689398" lon="17.404811"><ele>90.0</ele><time>2026-05-04T13:38:36.621Z</time></trkpt><trkpt lat="43.0689774" lon="17.4045984"><ele>94.0</ele><time>2026-05-04T13:38:37.62Z</time></trkpt><trkpt lat="43.0690278" lon="17.4043862"><ele>98.0</ele><time>2026-05-04T13:38:38.62Z</time></trkpt><trkpt lat="43.0690844" lon="17.4041752"><ele>102.0</ele><time>2026-05-04T13:38:39.62Z</time></trkpt><trkpt lat="43.0691474" lon="17.4039666"><ele>92.33333333333333</ele><time>2026-05-04T13:38:40.621Z</time></trkpt><trkpt lat="43.0692081" lon="17.4037595"><ele>82.66666666666666</ele><time>2026-05-04T13:38:41.621Z</time></trkpt><trkpt lat="43.0692669" lon="17.4035474"><ele>73.0</ele><time>2026-05-04T13:38:42.621Z</time></trkpt><trkpt lat="43.0693279" lon="17.4033388"><ele>73.0</ele><time>2026-05-04T13:38:43.621Z</time></trkpt><trkpt lat="43.0693973" lon="17.4031314"><ele>73.0</ele><time>2026-05-04T13:38:44.62Z</time></trkpt><trkpt lat="43.0694661" lon="17.4029362"><ele>73.0</ele><time>2026-05-04T13:38:45.62Z</time></trkpt><trkpt lat="43.0695473" lon="17.4027366"><ele>79.33333333333333</ele><time>2026-05-04T13:38:46.62Z</time></trkpt><trkpt lat="43.0696369" lon="17.4025538"><ele>85.66666666666667</ele><time>2026-05-04T13:38:47.62Z</time></trkpt><trkpt lat="43.0697518" lon="17.4023779"><ele>92.0</ele><time>2026-05-04T13:38:48.62Z</time></trkpt><trkpt lat="43.0698823" lon="17.4022096"><ele>87.66666666666667</ele><time>2026-05-04T13:38:49.621Z</time></trkpt><trkpt lat="43.0700215" lon="17.4020526"><ele>83.33333333333333</ele><time>2026-05-04T13:38:50.62Z</time></trkpt><trkpt lat="43.0701686" lon="17.4019021"><ele>79.0</ele><time>2026-05-04T13:38:51.621Z</time></trkpt><trkpt lat="43.0703119" lon="17.401752"><ele>79.0</ele><time>2026-05-04T13:38:52.621Z</time></trkpt><trkpt lat="43.0704521" lon="17.4016115"><ele>79.0</ele><time>2026-05-04T13:38:53.621Z</time></trkpt><trkpt lat="43.0705938" lon="17.401464"><ele>79.0</ele><time>2026-05-04T13:38:54.621Z</time></trkpt><trkpt lat="43.0707311" lon="17.4013259"><ele>76.66666666666666</ele><time>2026-05-04T13:38:55.621Z</time></trkpt><trkpt lat="43.0708602" lon="17.4011843"><ele>74.33333333333333</ele><time>2026-05-04T13:38:56.621Z</time></trkpt><trkpt lat="43.0709823" lon="17.4010422"><ele>72.0</ele><time>2026-05-04T13:38:57.621Z</time></trkpt><trkpt lat="43.0711008" lon="17.4008974"><ele>72.0</ele><time>2026-05-04T13:38:58.621Z</time></trkpt><trkpt lat="43.0712227" lon="17.4007496"><ele>72.0</ele><time>2026-05-04T13:38:59.621Z</time></trkpt><trkpt lat="43.071344" lon="17.4006008"><ele>72.0</ele><time>2026-05-04T13:39:00.621Z</time></trkpt><trkpt lat="43.0714629" lon="17.4004628"><ele>71.75</ele><time>2026-05-04T13:39:01.62Z</time></trkpt><trkpt lat="43.0715841" lon="17.4003402"><ele>71.5</ele><time>2026-05-04T13:39:02.621Z</time></trkpt><trkpt lat="43.0717114" lon="17.4002372"><ele>71.25</ele><time>2026-05-04T13:39:03.621Z</time></trkpt><trkpt lat="43.0718434" lon="17.4001381"><ele>71.0</ele><time>2026-05-04T13:39:04.621Z</time></trkpt><trkpt lat="43.071986" lon="17.4000707"><ele>71.0</ele><time>2026-05-04T13:39:05.62Z</time></trkpt><trkpt lat="43.072136" lon="17.4000196"><ele>71.0</ele><time>2026-05-04T13:39:06.621Z</time></trkpt><trkpt lat="43.072294" lon="17.3999861"><ele>71.0</ele><time>2026-05-04T13:39:07.621Z</time></trkpt><trkpt lat="43.0724482" lon="17.3999783"><ele>73.0</ele><time>2026-05-04T13:39:08.62Z</time></trkpt><trkpt lat="43.0726112" lon="17.3999938"><ele>75.0</ele><time>2026-05-04T13:39:09.62Z</time></trkpt><trkpt lat="43.0727664" lon="17.4000349"><ele>77.0</ele><time>2026-05-04T13:39:10.62Z</time></trkpt><trkpt lat="43.0729168" lon="17.4000957"><ele>77.0</ele><time>2026-05-04T13:39:11.62Z</time></trkpt><trkpt lat="43.0730601" lon="17.4001799"><ele>77.0</ele><time>2026-05-04T13:39:12.621Z</time></trkpt><trkpt lat="43.0731971" lon="17.4002854"><ele>77.0</ele><time>2026-05-04T13:39:13.621Z</time></trkpt><trkpt lat="43.0733253" lon="17.4004122"><ele>75.66666666666667</ele><time>2026-05-04T13:39:14.62Z</time></trkpt><trkpt lat="43.0734467" lon="17.4005605"><ele>74.33333333333333</ele><time>2026-05-04T13:39:15.621Z</time></trkpt><trkpt lat="43.0735564" lon="17.4007327"><ele>73.0</ele><time>2026-05-04T13:39:16.62Z</time></trkpt><trkpt lat="43.0736577" lon="17.4009138"><ele>73.0</ele><time>2026-05-04T13:39:17.621Z</time></trkpt><trkpt lat="43.073751" lon="17.4011021"><ele>73.0</ele><time>2026-05-04T13:39:18.621Z</time></trkpt><trkpt lat="43.0738367" lon="17.4012923"><ele>73.0</ele><time>2026-05-04T13:39:19.621Z</time></trkpt><trkpt lat="43.0739201" lon="17.4014857"><ele>72.66666666666666</ele><time>2026-05-04T13:39:20.621Z</time></trkpt><trkpt lat="43.0740015" lon="17.4016739"><ele>72.33333333333333</ele><time>2026-05-04T13:39:21.62Z</time></trkpt><trkpt lat="43.0740846" lon="17.4018633"><ele>72.0</ele><time>2026-05-04T13:39:22.62Z</time></trkpt><trkpt lat="43.0741733" lon="17.4020498"><ele>72.66666666666667</ele><time>2026-05-04T13:39:23.621Z</time></trkpt><trkpt lat="43.0742671" lon="17.4022234"><ele>73.33333333333334</ele><time>2026-05-04T13:39:24.62Z</time></trkpt><trkpt lat="43.0743724" lon="17.4023866"><ele>74.0</ele><time>2026-05-04T13:39:25.621Z</time></trkpt><trkpt lat="43.0744918" lon="17.4025166"><ele>74.0</ele><time>2026-05-04T13:39:26.621Z</time></trkpt><trkpt lat="43.0746249" lon="17.4026208"><ele>74.0</ele><time>2026-05-04T13:39:27.62Z</time></trkpt><trkpt lat="43.074762" lon="17.4026979"><ele>74.0</ele><time>2026-05-04T13:39:28.621Z</time></trkpt><trkpt lat="43.0749018" lon="17.4027335"><ele>74.0</ele><time>2026-05-04T13:39:29.62Z</time></trkpt><trkpt lat="43.0750435" lon="17.4027473"><ele>77.25</ele><time>2026-05-04T13:39:30.621Z</time></trkpt><trkpt lat="43.0751846" lon="17.402732"><ele>80.5</ele><time>2026-05-04T13:39:31.62Z</time></trkpt><trkpt lat="43.0753255" lon="17.4026958"><ele>83.75</ele><time>2026-05-04T13:39:32.62Z</time></trkpt><trkpt lat="43.0754626" lon="17.4026328"><ele>87.0</ele><time>2026-05-04T13:39:33.62Z</time></trkpt><trkpt lat="43.0755897" lon="17.4025515"><ele>87.0</ele><time>2026-05-04T13:39:34.62Z</time></trkpt><trkpt lat="43.0757034" lon="17.4024431"><ele>87.0</ele><time>2026-05-04T13:39:35.621Z</time></trkpt><trkpt lat="43.075818" lon="17.4023268"><ele>87.0</ele><time>2026-05-04T13:39:36.621Z</time></trkpt><trkpt lat="43.0759282" lon="17.4022"><ele>87.0</ele><time>2026-05-04T13:39:37.62Z</time></trkpt><trkpt lat="43.0760359" lon="17.4020749"><ele>90.0</ele><time>2026-05-04T13:39:38.62Z</time></trkpt><trkpt lat="43.0761374" lon="17.4019385"><ele>93.0</ele><time>2026-05-04T13:39:39.62Z</time></trkpt><trkpt lat="43.0762452" lon="17.4018142"><ele>96.0</ele><time>2026-05-04T13:39:40.621Z</time></trkpt><trkpt lat="43.0763517" lon="17.401704"><ele>99.0</ele><time>2026-05-04T13:39:41.621Z</time></trkpt><trkpt lat="43.0764626" lon="17.4016094"><ele>99.0</ele><time>2026-05-04T13:39:42.62Z</time></trkpt><trkpt lat="43.0765798" lon="17.4015325"><ele>99.0</ele><time>2026-05-04T13:39:43.62Z</time></trkpt><trkpt lat="43.0767023" lon="17.4014724"><ele>99.0</ele><time>2026-05-04T13:39:44.62Z</time></trkpt><trkpt lat="43.0768336" lon="17.401432"><ele>99.0</ele><time>2026-05-04T13:39:45.62Z</time></trkpt><trkpt lat="43.0769691" lon="17.4014132"><ele>95.0</ele><time>2026-05-04T13:39:46.621Z</time></trkpt><trkpt lat="43.0771118" lon="17.4013955"><ele>91.0</ele><time>2026-05-04T13:39:47.621Z</time></trkpt><trkpt lat="43.077258" lon="17.4013789"><ele>87.0</ele><time>2026-05-04T13:39:48.621Z</time></trkpt><trkpt lat="43.0774068" lon="17.4013568"><ele>83.0</ele><time>2026-05-04T13:39:49.621Z</time></trkpt><trkpt lat="43.0775602" lon="17.4013365"><ele>88.33333333333334</ele><time>2026-05-04T13:39:50.621Z</time></trkpt><trkpt lat="43.0777119" lon="17.4013002"><ele>93.66666666666667</ele><time>2026-05-04T13:39:51.621Z</time></trkpt><trkpt lat="43.0778624" lon="17.40125"><ele>99.0</ele><time>2026-05-04T13:39:52.62Z</time></trkpt><trkpt lat="43.0780083" lon="17.4011812"><ele>99.0</ele><time>2026-05-04T13:39:53.621Z</time></trkpt><trkpt lat="43.0781528" lon="17.4011058"><ele>99.0</ele><time>2026-05-04T13:39:54.62Z</time></trkpt><trkpt lat="43.0782846" lon="17.4010137"><ele>99.0</ele><time>2026-05-04T13:39:55.621Z</time></trkpt><trkpt lat="43.078411" lon="17.40091"><ele>98.5</ele><time>2026-05-04T13:39:56.62Z</time></trkpt><trkpt lat="43.0785355" lon="17.4007985"><ele>98.0</ele><time>2026-05-04T13:39:57.62Z</time></trkpt><trkpt lat="43.0786528" lon="17.4006822"><ele>97.5</ele><time>2026-05-04T13:39:58.62Z</time></trkpt><trkpt lat="43.0787672" lon="17.4005612"><ele>97.0</ele><time>2026-05-04T13:39:59.621Z</time></trkpt><trkpt lat="43.0788874" lon="17.4004393"><ele>99.33333333333334</ele><time>2026-05-04T13:40:00.62Z</time></trkpt><trkpt lat="43.0790113" lon="17.4003221"><ele>101.66666666666666</ele><time>2026-05-04T13:40:01.621Z</time></trkpt><trkpt lat="43.0791448" lon="17.4002089"><ele>104.0</ele><time>2026-05-04T13:40:02.621Z</time></trkpt><trkpt lat="43.0792814" lon="17.4001118"><ele>104.0</ele><time>2026-05-04T13:40:03.621Z</time></trkpt><trkpt lat="43.0794248" lon="17.4000333"><ele>104.0</ele><time>2026-05-04T13:40:04.62Z</time></trkpt><trkpt lat="43.0795749" lon="17.3999784"><ele>104.0</ele><time>2026-05-04T13:40:05.621Z</time></trkpt><trkpt lat="43.0797204" lon="17.3999335"><ele>104.0</ele><time>2026-05-04T13:40:06.621Z</time></trkpt><trkpt lat="43.0798623" lon="17.3998939"><ele>104.0</ele><time>2026-05-04T13:40:07.621Z</time></trkpt><trkpt lat="43.080004" lon="17.3998536"><ele>104.0</ele><time>2026-05-04T13:40:08.62Z</time></trkpt><trkpt lat="43.0801464" lon="17.3998097"><ele>104.0</ele><time>2026-05-04T13:40:09.621Z</time></trkpt><trkpt lat="43.0802896" lon="17.3997522"><ele>103.5</ele><time>2026-05-04T13:40:10.62Z</time></trkpt><trkpt lat="43.0804263" lon="17.3996784"><ele>103.0</ele><time>2026-05-04T13:40:11.619Z</time></trkpt><trkpt lat="43.0805594" lon="17.399594"><ele>102.5</ele><time>2026-05-04T13:40:12.62Z</time></trkpt><trkpt lat="43.0806819" lon="17.3994887"><ele>102.0</ele><time>2026-05-04T13:40:13.621Z</time></trkpt><trkpt lat="43.0807904" lon="17.3993633"><ele>102.0</ele><time>2026-05-04T13:40:14.62Z</time></trkpt><trkpt lat="43.0808865" lon="17.3992215"><ele>102.0</ele><time>2026-05-04T13:40:15.62Z</time></trkpt><trkpt lat="43.080968" lon="17.3990642"><ele>102.0</ele><time>2026-05-04T13:40:16.62Z</time></trkpt><trkpt lat="43.0810329" lon="17.3988899"><ele>102.0</ele><time>2026-05-04T13:40:17.621Z</time></trkpt><trkpt lat="43.0810823" lon="17.3987055"><ele>102.0</ele><time>2026-05-04T13:40:18.62Z</time></trkpt><trkpt lat="43.0811177" lon="17.3985115"><ele>102.0</ele><time>2026-05-04T13:40:19.619Z</time></trkpt><trkpt lat="43.081129" lon="17.3983128"><ele>102.0</ele><time>2026-05-04T13:40:20.621Z</time></trkpt><trkpt lat="43.0811162" lon="17.3981041"><ele>102.0</ele><time>2026-05-04T13:40:21.62Z</time></trkpt><trkpt lat="43.0810957" lon="17.3978986"><ele>99.33333333333333</ele><time>2026-05-04T13:40:22.621Z</time></trkpt><trkpt lat="43.0810698" lon="17.397692"><ele>96.66666666666666</ele><time>2026-05-04T13:40:23.621Z</time></trkpt><trkpt lat="43.0810357" lon="17.3974792"><ele>94.0</ele><time>2026-05-04T13:40:24.62Z</time></trkpt><trkpt lat="43.0809938" lon="17.3972679"><ele>92.33333333333333</ele><time>2026-05-04T13:40:25.62Z</time></trkpt><trkpt lat="43.0809596" lon="17.3970564"><ele>90.66666666666667</ele><time>2026-05-04T13:40:26.62Z</time></trkpt><trkpt lat="43.0809301" lon="17.3968433"><ele>89.0</ele><time>2026-05-04T13:40:27.62Z</time></trkpt><trkpt lat="43.0809005" lon="17.3966214"><ele>89.0</ele><time>2026-05-04T13:40:28.621Z</time></trkpt><trkpt lat="43.0808776" lon="17.3963978"><ele>89.0</ele><time>2026-05-04T13:40:29.621Z</time></trkpt><trkpt lat="43.0808528" lon="17.3961753"><ele>89.0</ele><time>2026-05-04T13:40:30.62Z</time></trkpt><trkpt lat="43.080835" lon="17.3959539"><ele>89.0</ele><time>2026-05-04T13:40:31.621Z</time></trkpt><trkpt lat="43.0808213" lon="17.3957302"><ele>89.0</ele><time>2026-05-04T13:40:32.62Z</time></trkpt><trkpt lat="43.0808099" lon="17.3955003"><ele>89.0</ele><time>2026-05-04T13:40:33.621Z</time></trkpt><trkpt lat="43.0808014" lon="17.3952743"><ele>86.66666666666667</ele><time>2026-05-04T13:40:34.62Z</time></trkpt><trkpt lat="43.0808121" lon="17.3950307"><ele>84.33333333333333</ele><time>2026-05-04T13:40:35.621Z</time></trkpt><trkpt lat="43.0808165" lon="17.3947987"><ele>82.0</ele><time>2026-05-04T13:40:36.621Z</time></trkpt><trkpt lat="43.0808193" lon="17.3945758"><ele>78.0</ele><time>2026-05-04T13:40:37.62Z</time></trkpt><trkpt lat="43.0808292" lon="17.3943527"><ele>74.0</ele><time>2026-05-04T13:40:38.62Z</time></trkpt><trkpt lat="43.0808377" lon="17.3941347"><ele>70.0</ele><time>2026-05-04T13:40:39.621Z</time></trkpt><trkpt lat="43.0808449" lon="17.3939139"><ele>71.0</ele><time>2026-05-04T13:40:40.62Z</time></trkpt><trkpt lat="43.0808532" lon="17.3936983"><ele>72.0</ele><time>2026-05-04T13:40:41.621Z</time></trkpt><trkpt lat="43.0808506" lon="17.3934833"><ele>73.0</ele><time>2026-05-04T13:40:42.621Z</time></trkpt><trkpt lat="43.0808378" lon="17.3932726"><ele>73.0</ele><time>2026-05-04T13:40:43.621Z</time></trkpt><trkpt lat="43.0808124" lon="17.3930627"><ele>73.0</ele><time>2026-05-04T13:40:44.62Z</time></trkpt><trkpt lat="43.0807687" lon="17.3928636"><ele>73.0</ele><time>2026-05-04T13:40:45.62Z</time></trkpt><trkpt lat="43.0807086" lon="17.3926713"><ele>72.66666666666666</ele><time>2026-05-04T13:40:46.62Z</time></trkpt><trkpt lat="43.0806381" lon="17.3924811"><ele>72.33333333333333</ele><time>2026-05-04T13:40:47.62Z</time></trkpt><trkpt lat="43.0805685" lon="17.392295"><ele>72.0</ele><time>2026-05-04T13:40:48.62Z</time></trkpt><trkpt lat="43.0804896" lon="17.392103"><ele>72.0</ele><time>2026-05-04T13:40:49.62Z</time></trkpt><trkpt lat="43.0804138" lon="17.3919134"><ele>72.0</ele><time>2026-05-04T13:40:50.621Z</time></trkpt><trkpt lat="43.0803374" lon="17.3917179"><ele>72.0</ele><time>2026-05-04T13:40:51.621Z</time></trkpt><trkpt lat="43.0802627" lon="17.3915248"><ele>73.66666666666667</ele><time>2026-05-04T13:40:52.62Z</time></trkpt><trkpt lat="43.0801979" lon="17.3913297"><ele>75.33333333333334</ele><time>2026-05-04T13:40:53.621Z</time></trkpt><trkpt lat="43.0801433" lon="17.391127"><ele>77.0</ele><time>2026-05-04T13:40:54.621Z</time></trkpt><trkpt lat="43.0801126" lon="17.3909271"><ele>77.0</ele><time>2026-05-04T13:40:55.621Z</time></trkpt><trkpt lat="43.0800993" lon="17.3907335"><ele>77.0</ele><time>2026-05-04T13:40:56.621Z</time></trkpt><trkpt lat="43.0801076" lon="17.3905358"><ele>77.0</ele><time>2026-05-04T13:40:57.621Z</time></trkpt><trkpt lat="43.0801359" lon="17.3903382"><ele>77.0</ele><time>2026-05-04T13:40:58.621Z</time></trkpt><trkpt lat="43.0801607" lon="17.3901495"><ele>77.0</ele><time>2026-05-04T13:40:59.621Z</time></trkpt><trkpt lat="43.0801961" lon="17.3899659"><ele>77.0</ele><time>2026-05-04T13:41:00.621Z</time></trkpt><trkpt lat="43.0802363" lon="17.3897775"><ele>77.0</ele><time>2026-05-04T13:41:01.621Z</time></trkpt><trkpt lat="43.0802745" lon="17.3895811"><ele>77.0</ele><time>2026-05-04T13:41:02.62Z</time></trkpt><trkpt lat="43.0803064" lon="17.3893849"><ele>77.66666666666667</ele><time>2026-05-04T13:41:03.621Z</time></trkpt><trkpt lat="43.0803254" lon="17.389185"><ele>78.33333333333333</ele><time>2026-05-04T13:41:04.62Z</time></trkpt><trkpt lat="43.0803358" lon="17.3889791"><ele>79.0</ele><time>2026-05-04T13:41:05.621Z</time></trkpt><trkpt lat="43.0803441" lon="17.3887711"><ele>79.33333333333333</ele><time>2026-05-04T13:41:06.62Z</time></trkpt><trkpt lat="43.0803506" lon="17.3885673"><ele>79.66666666666667</ele><time>2026-05-04T13:41:07.62Z</time></trkpt><trkpt lat="43.080356" lon="17.3883524"><ele>80.0</ele><time>2026-05-04T13:41:08.621Z</time></trkpt><trkpt lat="43.0803587" lon="17.3881407"><ele>79.75</ele><time>2026-05-04T13:41:09.621Z</time></trkpt><trkpt lat="43.0803746" lon="17.3879405"><ele>79.5</ele><time>2026-05-04T13:41:10.62Z</time></trkpt><trkpt lat="43.0804013" lon="17.3877423"><ele>79.25</ele><time>2026-05-04T13:41:11.62Z</time></trkpt><trkpt lat="43.0804511" lon="17.3875546"><ele>79.0</ele><time>2026-05-04T13:41:12.62Z</time></trkpt><trkpt lat="43.0805137" lon="17.3873728"><ele>79.0</ele><time>2026-05-04T13:41:13.621Z</time></trkpt><trkpt lat="43.0805975" lon="17.3871903"><ele>79.0</ele><time>2026-05-04T13:41:14.62Z</time></trkpt><trkpt lat="43.0806967" lon="17.3870264"><ele>79.0</ele><time>2026-05-04T13:41:15.62Z</time></trkpt><trkpt lat="43.0808149" lon="17.3868702"><ele>77.66666666666666</ele><time>2026-05-04T13:41:16.62Z</time></trkpt><trkpt lat="43.0809384" lon="17.3867336"><ele>76.33333333333333</ele><time>2026-05-04T13:41:17.62Z</time></trkpt><trkpt lat="43.0810715" lon="17.3865983"><ele>75.0</ele><time>2026-05-04T13:41:18.621Z</time></trkpt><trkpt lat="43.0812049" lon="17.3864608"><ele>74.0</ele><time>2026-05-04T13:41:19.621Z</time></trkpt><trkpt lat="43.0813384" lon="17.3863241"><ele>73.0</ele><time>2026-05-04T13:41:20.62Z</time></trkpt><trkpt lat="43.0814711" lon="17.3861902"><ele>72.0</ele><time>2026-05-04T13:41:21.62Z</time></trkpt><trkpt lat="43.08161" lon="17.3860472"><ele>72.0</ele><time>2026-05-04T13:41:22.621Z</time></trkpt><trkpt lat="43.0817468" lon="17.3858943"><ele>72.0</ele><time>2026-05-04T13:41:23.621Z</time></trkpt><trkpt lat="43.0818828" lon="17.3857291"><ele>72.0</ele><time>2026-05-04T13:41:24.62Z</time></trkpt><trkpt lat="43.0820086" lon="17.3855609"><ele>70.66666666666667</ele><time>2026-05-04T13:41:25.621Z</time></trkpt><trkpt lat="43.0821357" lon="17.3853778"><ele>69.33333333333334</ele><time>2026-05-04T13:41:26.621Z</time></trkpt><trkpt lat="43.0822565" lon="17.3851822"><ele>68.0</ele><time>2026-05-04T13:41:27.621Z</time></trkpt><trkpt lat="43.0823719" lon="17.3849836"><ele>68.0</ele><time>2026-05-04T13:41:28.621Z</time></trkpt><trkpt lat="43.0824817" lon="17.3847774"><ele>68.0</ele><time>2026-05-04T13:41:29.62Z</time></trkpt><trkpt lat="43.0825879" lon="17.3845649"><ele>68.0</ele><time>2026-05-04T13:41:30.62Z</time></trkpt><trkpt lat="43.0826899" lon="17.3843493"><ele>68.0</ele><time>2026-05-04T13:41:31.62Z</time></trkpt><trkpt lat="43.0827928" lon="17.3841357"><ele>68.0</ele><time>2026-05-04T13:41:32.621Z</time></trkpt><trkpt lat="43.0828982" lon="17.3839279"><ele>68.0</ele><time>2026-05-04T13:41:33.621Z</time></trkpt><trkpt lat="43.0830175" lon="17.3837246"><ele>68.33333333333334</ele><time>2026-05-04T13:41:34.62Z</time></trkpt><trkpt lat="43.0831418" lon="17.3835469"><ele>68.66666666666667</ele><time>2026-05-04T13:41:35.621Z</time></trkpt><trkpt lat="43.0832815" lon="17.3833922"><ele>69.0</ele><time>2026-05-04T13:41:36.62Z</time></trkpt><trkpt lat="43.0834206" lon="17.3832603"><ele>69.0</ele><time>2026-05-04T13:41:37.62Z</time></trkpt><trkpt lat="43.0835657" lon="17.3831565"><ele>69.0</ele><time>2026-05-04T13:41:38.621Z</time></trkpt><trkpt lat="43.0837162" lon="17.3830692"><ele>69.0</ele><time>2026-05-04T13:41:39.621Z</time></trkpt><trkpt lat="43.0838684" lon="17.3829966"><ele>70.66666666666667</ele><time>2026-05-04T13:41:40.621Z</time></trkpt><trkpt lat="43.0840239" lon="17.3829171"><ele>72.33333333333334</ele><time>2026-05-04T13:41:41.62Z</time></trkpt><trkpt lat="43.0841805" lon="17.3828471"><ele>74.0</ele><time>2026-05-04T13:41:42.621Z</time></trkpt><trkpt lat="43.0843412" lon="17.3827793"><ele>74.0</ele><time>2026-05-04T13:41:43.62Z</time></trkpt><trkpt lat="43.0845046" lon="17.3827075"><ele>74.0</ele><time>2026-05-04T13:41:44.621Z</time></trkpt><trkpt lat="43.0846699" lon="17.3826428"><ele>74.0</ele><time>2026-05-04T13:41:45.621Z</time></trkpt><trkpt lat="43.0848355" lon="17.3825702"><ele>74.33333333333334</ele><time>2026-05-04T13:41:46.621Z</time></trkpt><trkpt lat="43.0849972" lon="17.3824975"><ele>74.66666666666667</ele><time>2026-05-04T13:41:47.621Z</time></trkpt><trkpt lat="43.0851633" lon="17.3824247"><ele>75.0</ele><time>2026-05-04T13:41:48.62Z</time></trkpt><trkpt lat="43.0853247" lon="17.3823569"><ele>75.0</ele><time>2026-05-04T13:41:49.62Z</time></trkpt><trkpt lat="43.0854827" lon="17.3822849"><ele>75.0</ele><time>2026-05-04T13:41:50.621Z</time></trkpt><trkpt lat="43.0856339" lon="17.3822131"><ele>75.0</ele><time>2026-05-04T13:41:51.621Z</time></trkpt><trkpt lat="43.0857759" lon="17.38213"><ele>79.33333333333333</ele><time>2026-05-04T13:41:52.621Z</time></trkpt><trkpt lat="43.085908" lon="17.3820245"><ele>83.66666666666666</ele><time>2026-05-04T13:41:53.621Z</time></trkpt><trkpt lat="43.0860321" lon="17.3819095"><ele>88.0</ele><time>2026-05-04T13:41:54.62Z</time></trkpt><trkpt lat="43.0861471" lon="17.3817826"><ele>88.0</ele><time>2026-05-04T13:41:55.62Z</time></trkpt><trkpt lat="43.0862544" lon="17.3816382"><ele>88.0</ele><time>2026-05-04T13:41:56.62Z</time></trkpt><trkpt lat="43.0863465" lon="17.3814775"><ele>88.0</ele><time>2026-05-04T13:41:57.621Z</time></trkpt><trkpt lat="43.0864293" lon="17.3813032"><ele>87.0</ele><time>2026-05-04T13:41:58.62Z</time></trkpt><trkpt lat="43.0865015" lon="17.3811196"><ele>86.0</ele><time>2026-05-04T13:41:59.621Z</time></trkpt><trkpt lat="43.086557" lon="17.3809187"><ele>85.0</ele><time>2026-05-04T13:42:00.621Z</time></trkpt><trkpt lat="43.0865948" lon="17.3807144"><ele>86.33333333333333</ele><time>2026-05-04T13:42:01.621Z</time></trkpt><trkpt lat="43.0866235" lon="17.3805023"><ele>87.66666666666667</ele><time>2026-05-04T13:42:02.62Z</time></trkpt><trkpt lat="43.0866412" lon="17.38029"><ele>89.0</ele><time>2026-05-04T13:42:03.621Z</time></trkpt><trkpt lat="43.0866591" lon="17.3800801"><ele>89.0</ele><time>2026-05-04T13:42:04.62Z</time></trkpt><trkpt lat="43.0866732" lon="17.3798668"><ele>89.0</ele><time>2026-05-04T13:42:05.621Z</time></trkpt><trkpt lat="43.0866966" lon="17.3796603"><ele>89.0</ele><time>2026-05-04T13:42:06.621Z</time></trkpt><trkpt lat="43.0867184" lon="17.3794455"><ele>89.0</ele><time>2026-05-04T13:42:07.62Z</time></trkpt><trkpt lat="43.0867436" lon="17.3792414"><ele>89.0</ele><time>2026-05-04T13:42:08.621Z</time></trkpt><trkpt lat="43.0867775" lon="17.3790365"><ele>89.0</ele><time>2026-05-04T13:42:09.621Z</time></trkpt><trkpt lat="43.0868159" lon="17.3788343"><ele>87.0</ele><time>2026-05-04T13:42:10.62Z</time></trkpt><trkpt lat="43.0868561" lon="17.3786259"><ele>85.0</ele><time>2026-05-04T13:42:11.62Z</time></trkpt><trkpt lat="43.0868951" lon="17.378432"><ele>83.0</ele><time>2026-05-04T13:42:12.621Z</time></trkpt><trkpt lat="43.0869266" lon="17.3782418"><ele>81.0</ele><time>2026-05-04T13:42:13.62Z</time></trkpt><trkpt lat="43.0869535" lon="17.37806"><ele>80.5</ele><time>2026-05-04T13:42:14.62Z</time></trkpt><trkpt lat="43.0869726" lon="17.3778833"><ele>80.0</ele><time>2026-05-04T13:42:15.62Z</time></trkpt><trkpt lat="43.0869746" lon="17.3777063"><ele>79.5</ele><time>2026-05-04T13:42:16.621Z</time></trkpt><trkpt lat="43.0869594" lon="17.377525"><ele>79.0</ele><time>2026-05-04T13:42:17.62Z</time></trkpt><trkpt lat="43.0869285" lon="17.3773511"><ele>79.25</ele><time>2026-05-04T13:42:18.62Z</time></trkpt><trkpt lat="43.0868908" lon="17.3771743"><ele>79.5</ele><time>2026-05-04T13:42:19.62Z</time></trkpt><trkpt lat="43.086832" lon="17.3770065"><ele>79.75</ele><time>2026-05-04T13:42:20.62Z</time></trkpt><trkpt lat="43.0867688" lon="17.3768475"><ele>80.0</ele><time>2026-05-04T13:42:21.621Z</time></trkpt><trkpt lat="43.0866959" lon="17.3766838"><ele>80.0</ele><time>2026-05-04T13:42:22.62Z</time></trkpt><trkpt lat="43.0866233" lon="17.3765245"><ele>80.0</ele><time>2026-05-04T13:42:23.62Z</time></trkpt><trkpt lat="43.086561" lon="17.3763625"><ele>80.0</ele><time>2026-05-04T13:42:24.621Z</time></trkpt><trkpt lat="43.0864918" lon="17.3761951"><ele>80.0</ele><time>2026-05-04T13:42:25.62Z</time></trkpt><trkpt lat="43.0864279" lon="17.3760209"><ele>76.75</ele><time>2026-05-04T13:42:26.62Z</time></trkpt><trkpt lat="43.0863788" lon="17.3758488"><ele>73.5</ele><time>2026-05-04T13:42:27.62Z</time></trkpt><trkpt lat="43.0863459" lon="17.3756658"><ele>70.25</ele><time>2026-05-04T13:42:28.621Z</time></trkpt><trkpt lat="43.0863233" lon="17.3754801"><ele>67.0</ele><time>2026-05-04T13:42:29.621Z</time></trkpt><trkpt lat="43.0863164" lon="17.3752938"><ele>66.75</ele><time>2026-05-04T13:42:30.621Z</time></trkpt><trkpt lat="43.08631" lon="17.3750994"><ele>66.5</ele><time>2026-05-04T13:42:31.621Z</time></trkpt><trkpt lat="43.0863089" lon="17.3749"><ele>66.25</ele><time>2026-05-04T13:42:32.621Z</time></trkpt><trkpt lat="43.0863028" lon="17.3747062"><ele>66.0</ele><time>2026-05-04T13:42:33.621Z</time></trkpt><trkpt lat="43.0862869" lon="17.3745072"><ele>66.25</ele><time>2026-05-04T13:42:34.62Z</time></trkpt><trkpt lat="43.0862574" lon="17.3743133"><ele>66.5</ele><time>2026-05-04T13:42:35.62Z</time></trkpt><trkpt lat="43.0862167" lon="17.3741297"><ele>66.75</ele><time>2026-05-04T13:42:36.62Z</time></trkpt><trkpt lat="43.0861632" lon="17.3739513"><ele>67.0</ele><time>2026-05-04T13:42:37.621Z</time></trkpt><trkpt lat="43.0861016" lon="17.3737834"><ele>67.0</ele><time>2026-05-04T13:42:38.62Z</time></trkpt><trkpt lat="43.0860373" lon="17.37362"><ele>67.0</ele><time>2026-05-04T13:42:39.621Z</time></trkpt><trkpt lat="43.0859759" lon="17.3734663"><ele>67.0</ele><time>2026-05-04T13:42:40.621Z</time></trkpt><trkpt lat="43.0859215" lon="17.3733143"><ele>67.0</ele><time>2026-05-04T13:42:41.621Z</time></trkpt><trkpt lat="43.0858788" lon="17.3731513"><ele>66.0</ele><time>2026-05-04T13:42:42.621Z</time></trkpt><trkpt lat="43.0858468" lon="17.3729822"><ele>65.0</ele><time>2026-05-04T13:42:43.62Z</time></trkpt><trkpt lat="43.0858359" lon="17.3728002"><ele>64.0</ele><time>2026-05-04T13:42:44.62Z</time></trkpt><trkpt lat="43.0858418" lon="17.372622"><ele>63.0</ele><time>2026-05-04T13:42:45.621Z</time></trkpt><trkpt lat="43.0858625" lon="17.3724389"><ele>63.0</ele><time>2026-05-04T13:42:46.621Z</time></trkpt><trkpt lat="43.0858936" lon="17.3722562"><ele>63.0</ele><time>2026-05-04T13:42:47.62Z</time></trkpt><trkpt lat="43.08593" lon="17.372066"><ele>63.0</ele><time>2026-05-04T13:42:48.621Z</time></trkpt><trkpt lat="43.0859666" lon="17.37187"><ele>63.0</ele><time>2026-05-04T13:42:49.62Z</time></trkpt><trkpt lat="43.0859932" lon="17.3716752"><ele>61.33333333333333</ele><time>2026-05-04T13:42:50.621Z</time></trkpt><trkpt lat="43.0860106" lon="17.3714688"><ele>59.666666666666664</ele><time>2026-05-04T13:42:51.62Z</time></trkpt><trkpt lat="43.0860054" lon="17.3712549"><ele>58.0</ele><time>2026-05-04T13:42:52.62Z</time></trkpt><trkpt lat="43.0859764" lon="17.37104"><ele>58.0</ele><time>2026-05-04T13:42:53.62Z</time></trkpt><trkpt lat="43.0859206" lon="17.3708257"><ele>58.0</ele><time>2026-05-04T13:42:54.62Z</time></trkpt><trkpt lat="43.0858412" lon="17.370606"><ele>58.0</ele><time>2026-05-04T13:42:55.62Z</time></trkpt><trkpt lat="43.0857348" lon="17.3703595"><ele>49.5</ele><time>2026-05-04T13:42:56.62Z</time></trkpt><trkpt lat="43.0856238" lon="17.3700963"><ele>41.0</ele><time>2026-05-04T13:42:57.62Z</time></trkpt><trkpt lat="43.0855223" lon="17.369811"><ele>43.5</ele><time>2026-05-04T13:42:58.621Z</time></trkpt><trkpt lat="43.0854144" lon="17.3695158"><ele>46.0</ele><time>2026-05-04T13:42:59.62Z</time></trkpt><trkpt lat="43.0853043" lon="17.369226"><ele>46.0</ele><time>2026-05-04T13:43:00.62Z</time></trkpt><trkpt lat="43.0851938" lon="17.3689463"><ele>46.0</ele><time>2026-05-04T13:43:01.621Z</time></trkpt><trkpt lat="43.0850836" lon="17.3686828"><ele>46.0</ele><time>2026-05-04T13:43:02.62Z</time></trkpt><trkpt lat="43.0849615" lon="17.3684499"><ele>46.0</ele><time>2026-05-04T13:43:03.62Z</time></trkpt><trkpt lat="43.0848115" lon="17.3682452"><ele>46.0</ele><time>2026-05-04T13:43:04.621Z</time></trkpt><trkpt lat="43.0846249" lon="17.3680598"><ele>50.333333333333336</ele><time>2026-05-04T13:43:05.621Z</time></trkpt><trkpt lat="43.0844253" lon="17.3679264"><ele>54.66666666666667</ele><time>2026-05-04T13:43:06.621Z</time></trkpt><trkpt lat="43.0842153" lon="17.3678365"><ele>59.0</ele><time>2026-05-04T13:43:07.62Z</time></trkpt><trkpt lat="43.0839928" lon="17.3677697"><ele>59.5</ele><time>2026-05-04T13:43:08.621Z</time></trkpt><trkpt lat="43.0837712" lon="17.3676994"><ele>60.0</ele><time>2026-05-04T13:43:09.62Z</time></trkpt><trkpt lat="43.0835453" lon="17.3676324"><ele>60.0</ele><time>2026-05-04T13:43:10.62Z</time></trkpt><trkpt lat="43.0833237" lon="17.3675635"><ele>60.0</ele><time>2026-05-04T13:43:11.62Z</time></trkpt><trkpt lat="43.0831148" lon="17.367496"><ele>60.0</ele><time>2026-05-04T13:43:12.62Z</time></trkpt><trkpt lat="43.0829216" lon="17.3674271"><ele>58.0</ele><time>2026-05-04T13:43:13.62Z</time></trkpt><trkpt lat="43.0827591" lon="17.3673156"><ele>56.0</ele><time>2026-05-04T13:43:14.621Z</time></trkpt><trkpt lat="43.0826045" lon="17.3671829"><ele>54.0</ele><time>2026-05-04T13:43:15.62Z</time></trkpt><trkpt lat="43.0824771" lon="17.3670195"><ele>52.0</ele><time>2026-05-04T13:43:16.621Z</time></trkpt><trkpt lat="43.0823888" lon="17.3668353"><ele>50.0</ele><time>2026-05-04T13:43:17.621Z</time></trkpt><trkpt lat="43.0823395" lon="17.3666224"><ele>48.0</ele><time>2026-05-04T13:43:18.621Z</time></trkpt><trkpt lat="43.0823351" lon="17.3663737"><ele>53.33333333333333</ele><time>2026-05-04T13:43:19.621Z</time></trkpt><trkpt lat="43.0823461" lon="17.3661408"><ele>58.666666666666664</ele><time>2026-05-04T13:43:20.62Z</time></trkpt><trkpt lat="43.0823916" lon="17.3659153"><ele>64.0</ele><time>2026-05-04T13:43:21.62Z</time></trkpt><trkpt lat="43.0824697" lon="17.3657023"><ele>51.0</ele><time>2026-05-04T13:43:22.62Z</time></trkpt><trkpt lat="43.0826901" lon="17.3654865"><ele>38.0</ele><time>2026-05-04T13:43:23.621Z</time></trkpt><trkpt lat="43.0828945" lon="17.3652725"><ele>38.0</ele><time>2026-05-04T13:43:24.621Z</time></trkpt><trkpt lat="43.0831021" lon="17.3650467"><ele>38.0</ele><time>2026-05-04T13:43:25.621Z</time></trkpt><trkpt lat="43.083289" lon="17.3648265"><ele>37.5</ele><time>2026-05-04T13:43:26.62Z</time></trkpt><trkpt lat="43.0834544" lon="17.3646041"><ele>37.0</ele><time>2026-05-04T13:43:27.62Z</time></trkpt><trkpt lat="43.0836332" lon="17.364407"><ele>37.0</ele><time>2026-05-04T13:43:28.62Z</time></trkpt><trkpt lat="43.0837921" lon="17.364219"><ele>37.0</ele><time>2026-05-04T13:43:29.621Z</time></trkpt><trkpt lat="43.083952" lon="17.364061"><ele>37.0</ele><time>2026-05-04T13:43:30.621Z</time></trkpt><trkpt lat="43.0841224" lon="17.3639386"><ele>33.66666666666667</ele><time>2026-05-04T13:43:31.62Z</time></trkpt><trkpt lat="43.0842972" lon="17.3638588"><ele>30.333333333333336</ele><time>2026-05-04T13:43:32.621Z</time></trkpt><trkpt lat="43.0844828" lon="17.3637978"><ele>27.0</ele><time>2026-05-04T13:43:33.621Z</time></trkpt><trkpt lat="43.0846662" lon="17.3637173"><ele>27.0</ele><time>2026-05-04T13:43:34.62Z</time></trkpt><trkpt lat="43.0848736" lon="17.3635998"><ele>27.0</ele><time>2026-05-04T13:43:35.621Z</time></trkpt><trkpt lat="43.0850503" lon="17.3634336"><ele>27.0</ele><time>2026-05-04T13:43:36.62Z</time></trkpt><trkpt lat="43.0852278" lon="17.3632208"><ele>24.0</ele><time>2026-05-04T13:43:37.62Z</time></trkpt><trkpt lat="43.0854086" lon="17.3629864"><ele>21.0</ele><time>2026-05-04T13:43:38.62Z</time></trkpt><trkpt lat="43.0855817" lon="17.3627694"><ele>21.0</ele><time>2026-05-04T13:43:39.621Z</time></trkpt><trkpt lat="43.085749" lon="17.3625538"><ele>21.0</ele><time>2026-05-04T13:43:40.62Z</time></trkpt><trkpt lat="43.0859" lon="17.3623446"><ele>21.0</ele><time>2026-05-04T13:43:41.62Z</time></trkpt><trkpt lat="43.0860424" lon="17.3621487"><ele>23.666666666666664</ele><time>2026-05-04T13:43:42.62Z</time></trkpt><trkpt lat="43.0861644" lon="17.3619681"><ele>26.333333333333332</ele><time>2026-05-04T13:43:43.62Z</time></trkpt><trkpt lat="43.0862598" lon="17.3617853"><ele>29.0</ele><time>2026-05-04T13:43:44.62Z</time></trkpt><trkpt lat="43.0863258" lon="17.3615876"><ele>29.0</ele><time>2026-05-04T13:43:45.62Z</time></trkpt><trkpt lat="43.0863596" lon="17.361381"><ele>29.0</ele><time>2026-05-04T13:43:46.621Z</time></trkpt><trkpt lat="43.0863471" lon="17.361168"><ele>29.0</ele><time>2026-05-04T13:43:47.62Z</time></trkpt><trkpt lat="43.0863013" lon="17.3609654"><ele>32.33333333333333</ele><time>2026-05-04T13:43:48.62Z</time></trkpt><trkpt lat="43.0862069" lon="17.3607688"><ele>35.666666666666664</ele><time>2026-05-04T13:43:49.62Z</time></trkpt><trkpt lat="43.0860653" lon="17.3605978"><ele>39.0</ele><time>2026-05-04T13:43:50.62Z</time></trkpt><trkpt lat="43.0858823" lon="17.3604415"><ele>41.0</ele><time>2026-05-04T13:43:51.621Z</time></trkpt><trkpt lat="43.0856833" lon="17.3602955"><ele>43.0</ele><time>2026-05-04T13:43:52.62Z</time></trkpt><trkpt lat="43.0854681" lon="17.3601364"><ele>43.0</ele><time>2026-05-04T13:43:53.62Z</time></trkpt><trkpt lat="43.0852489" lon="17.3599777"><ele>43.0</ele><time>2026-05-04T13:43:54.621Z</time></trkpt><trkpt lat="43.0850569" lon="17.3598338"><ele>38.66666666666667</ele><time>2026-05-04T13:43:55.62Z</time></trkpt><trkpt lat="43.0848943" lon="17.3596998"><ele>34.333333333333336</ele><time>2026-05-04T13:43:56.621Z</time></trkpt><trkpt lat="43.0847637" lon="17.3595569"><ele>30.0</ele><time>2026-05-04T13:43:57.62Z</time></trkpt><trkpt lat="43.08465" lon="17.3593961"><ele>30.0</ele><time>2026-05-04T13:43:58.621Z</time></trkpt><trkpt lat="43.0845783" lon="17.3591922"><ele>30.0</ele><time>2026-05-04T13:43:59.621Z</time></trkpt><trkpt lat="43.0845349" lon="17.3589877"><ele>30.0</ele><time>2026-05-04T13:44:00.621Z</time></trkpt><trkpt lat="43.0845402" lon="17.3587666"><ele>29.333333333333336</ele><time>2026-05-04T13:44:01.62Z</time></trkpt><trkpt lat="43.0846049" lon="17.3585228"><ele>28.666666666666668</ele><time>2026-05-04T13:44:02.621Z</time></trkpt><trkpt lat="43.084671" lon="17.3582552"><ele>28.0</ele><time>2026-05-04T13:44:03.621Z</time></trkpt><trkpt lat="43.0847491" lon="17.3579771"><ele>25.666666666666668</ele><time>2026-05-04T13:44:04.62Z</time></trkpt><trkpt lat="43.0848273" lon="17.3577289"><ele>23.333333333333336</ele><time>2026-05-04T13:44:05.617Z</time></trkpt><trkpt lat="43.0849037" lon="17.3574954"><ele>21.0</ele><time>2026-05-04T13:44:06.619Z</time></trkpt><trkpt lat="43.0849928" lon="17.3572663"><ele>26.666666666666664</ele><time>2026-05-04T13:44:07.619Z</time></trkpt><trkpt lat="43.0851079" lon="17.3570853"><ele>32.33333333333333</ele><time>2026-05-04T13:44:08.619Z</time></trkpt><trkpt lat="43.0852504" lon="17.3569316"><ele>38.0</ele><time>2026-05-04T13:44:09.619Z</time></trkpt><trkpt lat="43.0854145" lon="17.3568152"><ele>38.0</ele><time>2026-05-04T13:44:10.618Z</time></trkpt><trkpt lat="43.0855948" lon="17.3567413"><ele>38.0</ele><time>2026-05-04T13:44:11.618Z</time></trkpt><trkpt lat="43.0857793" lon="17.3566992"><ele>38.0</ele><time>2026-05-04T13:44:12.621Z</time></trkpt><trkpt lat="43.0859824" lon="17.3567047"><ele>40.666666666666664</ele><time>2026-05-04T13:44:13.621Z</time></trkpt><trkpt lat="43.0861849" lon="17.3567164"><ele>43.333333333333336</ele><time>2026-05-04T13:44:14.62Z</time></trkpt><trkpt lat="43.0863946" lon="17.356698"><ele>46.0</ele><time>2026-05-04T13:44:15.618Z</time></trkpt><trkpt lat="43.0866219" lon="17.3566276"><ele>48.0</ele><time>2026-05-04T13:44:16.619Z</time></trkpt><trkpt lat="43.0868439" lon="17.3565217"><ele>50.0</ele><time>2026-05-04T13:44:17.621Z</time></trkpt><trkpt lat="43.0870506" lon="17.3564043"><ele>42.66666666666667</ele><time>2026-05-04T13:44:18.62Z</time></trkpt><trkpt lat="43.08725" lon="17.3563049"><ele>35.333333333333336</ele><time>2026-05-04T13:44:19.621Z</time></trkpt><trkpt lat="43.0874488" lon="17.3562269"><ele>28.0</ele><time>2026-05-04T13:44:20.621Z</time></trkpt><trkpt lat="43.0876607" lon="17.3561797"><ele>28.0</ele><time>2026-05-04T13:44:21.62Z</time></trkpt><trkpt lat="43.0878877" lon="17.3561634"><ele>28.0</ele><time>2026-05-04T13:44:22.62Z</time></trkpt><trkpt lat="43.0880995" lon="17.3561615"><ele>28.0</ele><time>2026-05-04T13:44:23.62Z</time></trkpt><trkpt lat="43.0883" lon="17.3561479"><ele>29.333333333333336</ele><time>2026-05-04T13:44:24.621Z</time></trkpt><trkpt lat="43.0884809" lon="17.3561093"><ele>30.666666666666664</ele><time>2026-05-04T13:44:25.62Z</time></trkpt><trkpt lat="43.0886355" lon="17.356024"><ele>32.0</ele><time>2026-05-04T13:44:26.62Z</time></trkpt><trkpt lat="43.0887799" lon="17.3558876"><ele>32.0</ele><time>2026-05-04T13:44:27.62Z</time></trkpt><trkpt lat="43.0889121" lon="17.3557046"><ele>32.0</ele><time>2026-05-04T13:44:28.62Z</time></trkpt><trkpt lat="43.0890389" lon="17.3554789"><ele>32.0</ele><time>2026-05-04T13:44:29.621Z</time></trkpt><trkpt lat="43.0891703" lon="17.3552557"><ele>30.666666666666664</ele><time>2026-05-04T13:44:30.621Z</time></trkpt><trkpt lat="43.0893092" lon="17.3550461"><ele>29.333333333333336</ele><time>2026-05-04T13:44:31.62Z</time></trkpt><trkpt lat="43.089488" lon="17.3548242"><ele>28.0</ele><time>2026-05-04T13:44:32.621Z</time></trkpt><trkpt lat="43.089681" lon="17.3546015"><ele>30.0</ele><time>2026-05-04T13:44:33.621Z</time></trkpt><trkpt lat="43.0898872" lon="17.3543601"><ele>32.0</ele><time>2026-05-04T13:44:34.62Z</time></trkpt><trkpt lat="43.0901187" lon="17.3541057"><ele>24.0</ele><time>2026-05-04T13:44:35.62Z</time></trkpt><trkpt lat="43.0903186" lon="17.3538643"><ele>16.0</ele><time>2026-05-04T13:44:36.621Z</time></trkpt><trkpt lat="43.0905189" lon="17.3536206"><ele>16.0</ele><time>2026-05-04T13:44:37.621Z</time></trkpt><trkpt lat="43.0906919" lon="17.3533746"><ele>16.0</ele><time>2026-05-04T13:44:38.62Z</time></trkpt><trkpt lat="43.0908478" lon="17.3531212"><ele>15.333333333333332</ele><time>2026-05-04T13:44:39.62Z</time></trkpt><trkpt lat="43.0909937" lon="17.3528795"><ele>14.666666666666668</ele><time>2026-05-04T13:44:40.62Z</time></trkpt><trkpt lat="43.0911393" lon="17.3526661"><ele>14.0</ele><time>2026-05-04T13:44:41.621Z</time></trkpt><trkpt lat="43.0912796" lon="17.3524942"><ele>14.0</ele><time>2026-05-04T13:44:42.621Z</time></trkpt><trkpt lat="43.0914405" lon="17.3523557"><ele>14.0</ele><time>2026-05-04T13:44:43.62Z</time></trkpt><trkpt lat="43.0916185" lon="17.3522497"><ele>14.0</ele><time>2026-05-04T13:44:44.62Z</time></trkpt><trkpt lat="43.0918098" lon="17.3521835"><ele>12.333333333333334</ele><time>2026-05-04T13:44:45.621Z</time></trkpt><trkpt lat="43.0919958" lon="17.3521421"><ele>10.666666666666668</ele><time>2026-05-04T13:44:46.621Z</time></trkpt><trkpt lat="43.0921773" lon="17.3521469"><ele>9.0</ele><time>2026-05-04T13:44:47.619Z</time></trkpt><trkpt lat="43.0923451" lon="17.3521193"><ele>12.333333333333332</ele><time>2026-05-04T13:44:48.62Z</time></trkpt><trkpt lat="43.092501" lon="17.3520433"><ele>15.666666666666666</ele><time>2026-05-04T13:44:49.618Z</time></trkpt><trkpt lat="43.092651" lon="17.3519015"><ele>19.0</ele><time>2026-05-04T13:44:50.619Z</time></trkpt><trkpt lat="43.0927913" lon="17.3517183"><ele>19.0</ele><time>2026-05-04T13:44:51.621Z</time></trkpt><trkpt lat="43.0929274" lon="17.3515444"><ele>19.0</ele><time>2026-05-04T13:44:52.621Z</time></trkpt><trkpt lat="43.0930567" lon="17.3513803"><ele>19.0</ele><time>2026-05-04T13:44:53.62Z</time></trkpt><trkpt lat="43.0932125" lon="17.3512522"><ele>15.0</ele><time>2026-05-04T13:44:54.62Z</time></trkpt><trkpt lat="43.0934049" lon="17.3511752"><ele>11.0</ele><time>2026-05-04T13:44:55.617Z</time></trkpt><trkpt lat="43.0936378" lon="17.3511296"><ele>7.0</ele><time>2026-05-04T13:44:56.618Z</time></trkpt><trkpt lat="43.0939105" lon="17.3510918"><ele>10.5</ele><time>2026-05-04T13:44:57.621Z</time></trkpt><trkpt lat="43.0941977" lon="17.3510498"><ele>14.0</ele><time>2026-05-04T13:44:58.621Z</time></trkpt><trkpt lat="43.0944944" lon="17.351013"><ele>14.0</ele><time>2026-05-04T13:44:59.62Z</time></trkpt><trkpt lat="43.0947869" lon="17.3510008"><ele>14.0</ele><time>2026-05-04T13:45:00.621Z</time></trkpt><trkpt lat="43.0950623" lon="17.3509799"><ele>20.0</ele><time>2026-05-04T13:45:01.621Z</time></trkpt><trkpt lat="43.0953007" lon="17.3509185"><ele>26.0</ele><time>2026-05-04T13:45:02.62Z</time></trkpt><trkpt lat="43.095542" lon="17.3508271"><ele>35.0</ele><time>2026-05-04T13:45:03.621Z</time></trkpt><trkpt lat="43.0957735" lon="17.3507356"><ele>44.0</ele><time>2026-05-04T13:45:04.621Z</time></trkpt><trkpt lat="43.0959956" lon="17.3506633"><ele>44.0</ele><time>2026-05-04T13:45:05.62Z</time></trkpt><trkpt lat="43.0962166" lon="17.3506685"><ele>44.0</ele><time>2026-05-04T13:45:06.62Z</time></trkpt><trkpt lat="43.0964436" lon="17.3506743"><ele>44.0</ele><time>2026-05-04T13:45:07.621Z</time></trkpt><trkpt lat="43.0966523" lon="17.350677"><ele>44.666666666666664</ele><time>2026-05-04T13:45:08.62Z</time></trkpt><trkpt lat="43.0968752" lon="17.3506763"><ele>45.333333333333336</ele><time>2026-05-04T13:45:09.62Z</time></trkpt><trkpt lat="43.0970691" lon="17.3506283"><ele>46.0</ele><time>2026-05-04T13:45:10.62Z</time></trkpt><trkpt lat="43.097292" lon="17.3505337"><ele>39.5</ele><time>2026-05-04T13:45:11.62Z</time></trkpt><trkpt lat="43.0975125" lon="17.3504109"><ele>33.0</ele><time>2026-05-04T13:45:12.62Z</time></trkpt><trkpt lat="43.0977182" lon="17.3502781"><ele>33.0</ele><time>2026-05-04T13:45:13.621Z</time></trkpt><trkpt lat="43.0979215" lon="17.3501501"><ele>33.0</ele><time>2026-05-04T13:45:14.62Z</time></trkpt><trkpt lat="43.0981398" lon="17.3500444"><ele>39.5</ele><time>2026-05-04T13:45:15.621Z</time></trkpt><trkpt lat="43.0983734" lon="17.3499454"><ele>46.0</ele><time>2026-05-04T13:45:16.621Z</time></trkpt><trkpt lat="43.0986382" lon="17.3498799"><ele>46.0</ele><time>2026-05-04T13:45:17.621Z</time></trkpt><trkpt lat="43.0989123" lon="17.3498246"><ele>46.0</ele><time>2026-05-04T13:45:18.62Z</time></trkpt><trkpt lat="43.0992232" lon="17.3497796"><ele>49.0</ele><time>2026-05-04T13:45:19.621Z</time></trkpt><trkpt lat="43.0995348" lon="17.3497379"><ele>52.0</ele><time>2026-05-04T13:45:20.621Z</time></trkpt><trkpt lat="43.0998241" lon="17.3496952"><ele>44.5</ele><time>2026-05-04T13:45:21.621Z</time></trkpt><trkpt lat="43.1000975" lon="17.349653"><ele>37.0</ele><time>2026-05-04T13:45:22.62Z</time></trkpt><trkpt lat="43.100339" lon="17.3496131"><ele>37.0</ele><time>2026-05-04T13:45:23.621Z</time></trkpt><trkpt lat="43.1005634" lon="17.3495789"><ele>37.0</ele><time>2026-05-04T13:45:24.621Z</time></trkpt><trkpt lat="43.1007798" lon="17.3495509"><ele>37.0</ele><time>2026-05-04T13:45:25.62Z</time></trkpt><trkpt lat="43.1010016" lon="17.3495383"><ele>36.5</ele><time>2026-05-04T13:45:26.62Z</time></trkpt><trkpt lat="43.1012231" lon="17.3495435"><ele>36.0</ele><time>2026-05-04T13:45:27.621Z</time></trkpt><trkpt lat="43.1014539" lon="17.3495704"><ele>35.5</ele><time>2026-05-04T13:45:28.619Z</time></trkpt><trkpt lat="43.1016914" lon="17.3496235"><ele>35.0</ele><time>2026-05-04T13:45:29.621Z</time></trkpt><trkpt lat="43.1019445" lon="17.349707"><ele>44.0</ele><time>2026-05-04T13:45:30.62Z</time></trkpt><trkpt lat="43.1021849" lon="17.3497924"><ele>53.0</ele><time>2026-05-04T13:45:31.621Z</time></trkpt><trkpt lat="43.1024166" lon="17.349874"><ele>53.0</ele><time>2026-05-04T13:45:32.621Z</time></trkpt><trkpt lat="43.1026326" lon="17.3499499"><ele>53.0</ele><time>2026-05-04T13:45:33.62Z</time></trkpt><trkpt lat="43.102825" lon="17.3500127"><ele>53.0</ele><time>2026-05-04T13:45:34.62Z</time></trkpt><trkpt lat="43.1030151" lon="17.350073"><ele>53.0</ele><time>2026-05-04T13:45:35.62Z</time></trkpt><trkpt lat="43.1032047" lon="17.350114"><ele>53.0</ele><time>2026-05-04T13:45:36.62Z</time></trkpt><trkpt lat="43.1033779" lon="17.3501275"><ele>53.0</ele><time>2026-05-04T13:45:37.62Z</time></trkpt><trkpt lat="43.1035296" lon="17.3501168"><ele>51.25</ele><time>2026-05-04T13:45:38.62Z</time></trkpt><trkpt lat="43.103681" lon="17.3500876"><ele>49.5</ele><time>2026-05-04T13:45:39.621Z</time></trkpt><trkpt lat="43.1038067" lon="17.3500589"><ele>47.75</ele><time>2026-05-04T13:45:40.62Z</time></trkpt><trkpt lat="43.1039329" lon="17.3500091"><ele>46.0</ele><time>2026-05-04T13:45:41.62Z</time></trkpt><trkpt lat="43.1040465" lon="17.3499573"><ele>45.25</ele><time>2026-05-04T13:45:42.621Z</time></trkpt><trkpt lat="43.104155" lon="17.3498799"><ele>44.5</ele><time>2026-05-04T13:45:43.621Z</time></trkpt><trkpt lat="43.1042623" lon="17.3497811"><ele>43.75</ele><time>2026-05-04T13:45:44.62Z</time></trkpt><trkpt lat="43.1043694" lon="17.349667"><ele>43.0</ele><time>2026-05-04T13:45:45.62Z</time></trkpt><trkpt lat="43.1044731" lon="17.3495362"><ele>41.5</ele><time>2026-05-04T13:45:46.62Z</time></trkpt><trkpt lat="43.1045717" lon="17.349391"><ele>40.0</ele><time>2026-05-04T13:45:47.62Z</time></trkpt><trkpt lat="43.1046676" lon="17.3492396"><ele>38.5</ele><time>2026-05-04T13:45:48.621Z</time></trkpt><trkpt lat="43.1047646" lon="17.3490954"><ele>37.0</ele><time>2026-05-04T13:45:49.62Z</time></trkpt><trkpt lat="43.1048573" lon="17.3489517"><ele>36.75</ele><time>2026-05-04T13:45:50.621Z</time></trkpt><trkpt lat="43.1049589" lon="17.3488229"><ele>36.5</ele><time>2026-05-04T13:45:51.62Z</time></trkpt><trkpt lat="43.1050676" lon="17.3486922"><ele>36.25</ele><time>2026-05-04T13:45:52.62Z</time></trkpt><trkpt lat="43.1051804" lon="17.3485795"><ele>36.0</ele><time>2026-05-04T13:45:53.62Z</time></trkpt><trkpt lat="43.1053004" lon="17.3484724"><ele>36.0</ele><time>2026-05-04T13:45:54.62Z</time></trkpt><trkpt lat="43.105419" lon="17.3483687"><ele>36.0</ele><time>2026-05-04T13:45:55.621Z</time></trkpt><trkpt lat="43.1055387" lon="17.3482686"><ele>36.0</ele><time>2026-05-04T13:45:56.621Z</time></trkpt><trkpt lat="43.1056609" lon="17.3481743"><ele>36.0</ele><time>2026-05-04T13:45:57.621Z</time></trkpt><trkpt lat="43.1057828" lon="17.3480747"><ele>36.25</ele><time>2026-05-04T13:45:58.62Z</time></trkpt><trkpt lat="43.1059025" lon="17.347959"><ele>36.5</ele><time>2026-05-04T13:45:59.62Z</time></trkpt><trkpt lat="43.1060097" lon="17.3478289"><ele>36.75</ele><time>2026-05-04T13:46:00.62Z</time></trkpt><trkpt lat="43.1061064" lon="17.3476817"><ele>37.0</ele><time>2026-05-04T13:46:01.62Z</time></trkpt><trkpt lat="43.1061867" lon="17.3475219"><ele>37.0</ele><time>2026-05-04T13:46:02.62Z</time></trkpt><trkpt lat="43.1062478" lon="17.3473504"><ele>37.0</ele><time>2026-05-04T13:46:03.621Z</time></trkpt><trkpt lat="43.1062945" lon="17.3471653"><ele>37.0</ele><time>2026-05-04T13:46:04.621Z</time></trkpt><trkpt lat="43.1063225" lon="17.3469723"><ele>37.0</ele><time>2026-05-04T13:46:05.621Z</time></trkpt><trkpt lat="43.106333" lon="17.34678"><ele>36.25</ele><time>2026-05-04T13:46:06.62Z</time></trkpt><trkpt lat="43.1063376" lon="17.3465739"><ele>35.5</ele><time>2026-05-04T13:46:07.621Z</time></trkpt><trkpt lat="43.1063231" lon="17.3463763"><ele>34.75</ele><time>2026-05-04T13:46:08.62Z</time></trkpt><trkpt lat="43.1063015" lon="17.3461854"><ele>34.0</ele><time>2026-05-04T13:46:09.621Z</time></trkpt><trkpt lat="43.106276" lon="17.3459889"><ele>34.0</ele><time>2026-05-04T13:46:10.62Z</time></trkpt><trkpt lat="43.1062541" lon="17.3457969"><ele>34.0</ele><time>2026-05-04T13:46:11.62Z</time></trkpt><trkpt lat="43.1062419" lon="17.3456013"><ele>34.0</ele><time>2026-05-04T13:46:12.621Z</time></trkpt><trkpt lat="43.1062371" lon="17.345411"><ele>34.0</ele><time>2026-05-04T13:46:13.62Z</time></trkpt><trkpt lat="43.1062447" lon="17.3452224"><ele>33.5</ele><time>2026-05-04T13:46:14.621Z</time></trkpt><trkpt lat="43.1062679" lon="17.3450317"><ele>33.0</ele><time>2026-05-04T13:46:15.62Z</time></trkpt><trkpt lat="43.1063091" lon="17.3448521"><ele>32.5</ele><time>2026-05-04T13:46:16.621Z</time></trkpt><trkpt lat="43.1063738" lon="17.3446726"><ele>32.0</ele><time>2026-05-04T13:46:17.62Z</time></trkpt><trkpt lat="43.1064463" lon="17.3445185"><ele>33.0</ele><time>2026-05-04T13:46:18.62Z</time></trkpt><trkpt lat="43.1065296" lon="17.3443734"><ele>34.0</ele><time>2026-05-04T13:46:19.62Z</time></trkpt><trkpt lat="43.1066233" lon="17.3442348"><ele>35.0</ele><time>2026-05-04T13:46:20.621Z</time></trkpt><trkpt lat="43.1067316" lon="17.3441151"><ele>36.0</ele><time>2026-05-04T13:46:21.621Z</time></trkpt><trkpt lat="43.1068436" lon="17.344013"><ele>36.0</ele><time>2026-05-04T13:46:22.621Z</time></trkpt><trkpt lat="43.1069651" lon="17.3439255"><ele>36.0</ele><time>2026-05-04T13:46:23.619Z</time></trkpt><trkpt lat="43.1070885" lon="17.3438398"><ele>36.0</ele><time>2026-05-04T13:46:24.62Z</time></trkpt><trkpt lat="43.1072169" lon="17.3437578"><ele>36.0</ele><time>2026-05-04T13:46:25.62Z</time></trkpt><trkpt lat="43.1073492" lon="17.3436786"><ele>35.75</ele><time>2026-05-04T13:46:26.621Z</time></trkpt><trkpt lat="43.1074798" lon="17.3436035"><ele>35.5</ele><time>2026-05-04T13:46:27.621Z</time></trkpt><trkpt lat="43.1076108" lon="17.3435277"><ele>35.25</ele><time>2026-05-04T13:46:28.62Z</time></trkpt><trkpt lat="43.1077432" lon="17.3434448"><ele>35.0</ele><time>2026-05-04T13:46:29.62Z</time></trkpt><trkpt lat="43.1078748" lon="17.3433608"><ele>35.0</ele><time>2026-05-04T13:46:30.621Z</time></trkpt><trkpt lat="43.1080132" lon="17.3432785"><ele>35.0</ele><time>2026-05-04T13:46:31.621Z</time></trkpt><trkpt lat="43.1081468" lon="17.343199"><ele>35.0</ele><time>2026-05-04T13:46:32.621Z</time></trkpt><trkpt lat="43.108284" lon="17.3431141"><ele>35.0</ele><time>2026-05-04T13:46:33.621Z</time></trkpt><trkpt lat="43.1084205" lon="17.3430252"><ele>33.666666666666664</ele><time>2026-05-04T13:46:34.621Z</time></trkpt><trkpt lat="43.108561" lon="17.3429274"><ele>32.333333333333336</ele><time>2026-05-04T13:46:35.621Z</time></trkpt><trkpt lat="43.1086931" lon="17.3428334"><ele>31.0</ele><time>2026-05-04T13:46:36.621Z</time></trkpt><trkpt lat="43.1088317" lon="17.3427269"><ele>31.0</ele><time>2026-05-04T13:46:37.62Z</time></trkpt><trkpt lat="43.10897" lon="17.3426121"><ele>31.0</ele><time>2026-05-04T13:46:38.621Z</time></trkpt><trkpt lat="43.1091077" lon="17.3424896"><ele>31.0</ele><time>2026-05-04T13:46:39.62Z</time></trkpt><trkpt lat="43.1092457" lon="17.342355"><ele>31.0</ele><time>2026-05-04T13:46:40.621Z</time></trkpt><trkpt lat="43.1093817" lon="17.3422137"><ele>31.0</ele><time>2026-05-04T13:46:41.62Z</time></trkpt><trkpt lat="43.1095163" lon="17.3420656"><ele>31.0</ele><time>2026-05-04T13:46:42.621Z</time></trkpt><trkpt lat="43.1096517" lon="17.3419036"><ele>31.0</ele><time>2026-05-04T13:46:43.62Z</time></trkpt><trkpt lat="43.1097858" lon="17.3417303"><ele>31.0</ele><time>2026-05-04T13:46:44.62Z</time></trkpt><trkpt lat="43.1099167" lon="17.3415505"><ele>31.0</ele><time>2026-05-04T13:46:45.62Z</time></trkpt><trkpt lat="43.1100458" lon="17.3413556"><ele>31.333333333333336</ele><time>2026-05-04T13:46:46.621Z</time></trkpt><trkpt lat="43.1101705" lon="17.3411515"><ele>31.666666666666664</ele><time>2026-05-04T13:46:47.621Z</time></trkpt><trkpt lat="43.1102912" lon="17.3409333"><ele>32.0</ele><time>2026-05-04T13:46:48.62Z</time></trkpt><trkpt lat="43.1104007" lon="17.340711"><ele>30.0</ele><time>2026-05-04T13:46:49.621Z</time></trkpt><trkpt lat="43.1105084" lon="17.3404763"><ele>28.0</ele><time>2026-05-04T13:46:50.62Z</time></trkpt><trkpt lat="43.1106096" lon="17.3402245"><ele>26.0</ele><time>2026-05-04T13:46:51.62Z</time></trkpt><trkpt lat="43.1107067" lon="17.3399659"><ele>28.0</ele><time>2026-05-04T13:46:52.62Z</time></trkpt><trkpt lat="43.1107978" lon="17.3396827"><ele>30.0</ele><time>2026-05-04T13:46:53.621Z</time></trkpt><trkpt lat="43.1108784" lon="17.3394158"><ele>32.0</ele><time>2026-05-04T13:46:54.621Z</time></trkpt><trkpt lat="43.110959" lon="17.3391564"><ele>32.0</ele><time>2026-05-04T13:46:55.621Z</time></trkpt><trkpt lat="43.111042" lon="17.3389114"><ele>32.0</ele><time>2026-05-04T13:46:56.621Z</time></trkpt><trkpt lat="43.1111273" lon="17.3386864"><ele>32.0</ele><time>2026-05-04T13:46:57.62Z</time></trkpt><trkpt lat="43.1112342" lon="17.3384789"><ele>29.333333333333332</ele><time>2026-05-04T13:46:58.62Z</time></trkpt><trkpt lat="43.1113552" lon="17.3382942"><ele>26.666666666666664</ele><time>2026-05-04T13:46:59.621Z</time></trkpt><trkpt lat="43.111506" lon="17.3381216"><ele>24.0</ele><time>2026-05-04T13:47:00.62Z</time></trkpt><trkpt lat="43.1116675" lon="17.3379694"><ele>23.666666666666668</ele><time>2026-05-04T13:47:01.62Z</time></trkpt><trkpt lat="43.1118348" lon="17.3378169"><ele>23.333333333333336</ele><time>2026-05-04T13:47:02.621Z</time></trkpt><trkpt lat="43.1119988" lon="17.3376616"><ele>23.0</ele><time>2026-05-04T13:47:03.621Z</time></trkpt><trkpt lat="43.1121674" lon="17.3375087"><ele>23.0</ele><time>2026-05-04T13:47:04.621Z</time></trkpt><trkpt lat="43.1123319" lon="17.3373491"><ele>23.0</ele><time>2026-05-04T13:47:05.621Z</time></trkpt><trkpt lat="43.1124933" lon="17.3371744"><ele>23.0</ele><time>2026-05-04T13:47:06.621Z</time></trkpt><trkpt lat="43.1126424" lon="17.3369777"><ele>23.666666666666668</ele><time>2026-05-04T13:47:07.621Z</time></trkpt><trkpt lat="43.1127764" lon="17.3367683"><ele>24.333333333333336</ele><time>2026-05-04T13:47:08.62Z</time></trkpt><trkpt lat="43.112899" lon="17.3365447"><ele>25.0</ele><time>2026-05-04T13:47:09.621Z</time></trkpt><trkpt lat="43.113009" lon="17.3363091"><ele>27.0</ele><time>2026-05-04T13:47:10.62Z</time></trkpt><trkpt lat="43.1131087" lon="17.3360608"><ele>29.0</ele><time>2026-05-04T13:47:11.62Z</time></trkpt><trkpt lat="43.1131969" lon="17.3357948"><ele>31.0</ele><time>2026-05-04T13:47:12.62Z</time></trkpt><trkpt lat="43.1132694" lon="17.3355154"><ele>31.0</ele><time>2026-05-04T13:47:13.621Z</time></trkpt><trkpt lat="43.11332" lon="17.3352355"><ele>31.0</ele><time>2026-05-04T13:47:14.621Z</time></trkpt><trkpt lat="43.1133557" lon="17.3349561"><ele>31.0</ele><time>2026-05-04T13:47:15.62Z</time></trkpt><trkpt lat="43.113383" lon="17.3346732"><ele>30.333333333333336</ele><time>2026-05-04T13:47:16.621Z</time></trkpt><trkpt lat="43.1134019" lon="17.3344057"><ele>29.666666666666664</ele><time>2026-05-04T13:47:17.62Z</time></trkpt><trkpt lat="43.1134373" lon="17.3341482"><ele>29.0</ele><time>2026-05-04T13:47:18.621Z</time></trkpt><trkpt lat="43.113477" lon="17.3338975"><ele>27.0</ele><time>2026-05-04T13:47:19.621Z</time></trkpt><trkpt lat="43.1135326" lon="17.3336619"><ele>25.0</ele><time>2026-05-04T13:47:20.621Z</time></trkpt><trkpt lat="43.1136055" lon="17.3334302"><ele>23.0</ele><time>2026-05-04T13:47:21.619Z</time></trkpt><trkpt lat="43.1137043" lon="17.333193"><ele>20.333333333333336</ele><time>2026-05-04T13:47:22.62Z</time></trkpt><trkpt lat="43.1138045" lon="17.3329712"><ele>17.666666666666668</ele><time>2026-05-04T13:47:23.621Z</time></trkpt><trkpt lat="43.1139224" lon="17.3327349"><ele>15.0</ele><time>2026-05-04T13:47:24.62Z</time></trkpt><trkpt lat="43.1140381" lon="17.3325056"><ele>17.666666666666668</ele><time>2026-05-04T13:47:25.621Z</time></trkpt><trkpt lat="43.1141612" lon="17.3322657"><ele>20.333333333333336</ele><time>2026-05-04T13:47:26.621Z</time></trkpt><trkpt lat="43.1142823" lon="17.3320299"><ele>23.0</ele><time>2026-05-04T13:47:27.62Z</time></trkpt><trkpt lat="43.1144082" lon="17.3317953"><ele>23.0</ele><time>2026-05-04T13:47:28.619Z</time></trkpt><trkpt lat="43.114527" lon="17.3315918"><ele>23.0</ele><time>2026-05-04T13:47:29.621Z</time></trkpt><trkpt lat="43.1146492" lon="17.3314129"><ele>23.0</ele><time>2026-05-04T13:47:30.62Z</time></trkpt><trkpt lat="43.1147808" lon="17.3312601"><ele>23.333333333333336</ele><time>2026-05-04T13:47:31.62Z</time></trkpt><trkpt lat="43.114924" lon="17.3311236"><ele>23.666666666666668</ele><time>2026-05-04T13:47:32.62Z</time></trkpt><trkpt lat="43.1150679" lon="17.3310071"><ele>24.0</ele><time>2026-05-04T13:47:33.621Z</time></trkpt><trkpt lat="43.1152286" lon="17.3309071"><ele>24.0</ele><time>2026-05-04T13:47:34.62Z</time></trkpt><trkpt lat="43.1153901" lon="17.3308005"><ele>24.0</ele><time>2026-05-04T13:47:35.621Z</time></trkpt><trkpt lat="43.1155498" lon="17.3306893"><ele>24.0</ele><time>2026-05-04T13:47:36.621Z</time></trkpt><trkpt lat="43.1156981" lon="17.3305508"><ele>24.0</ele><time>2026-05-04T13:47:37.62Z</time></trkpt><trkpt lat="43.1158327" lon="17.3303862"><ele>24.0</ele><time>2026-05-04T13:47:38.619Z</time></trkpt><trkpt lat="43.1159477" lon="17.3301982"><ele>24.0</ele><time>2026-05-04T13:47:39.62Z</time></trkpt><trkpt lat="43.116043" lon="17.329989"><ele>24.0</ele><time>2026-05-04T13:47:40.621Z</time></trkpt><trkpt lat="43.1161146" lon="17.3297705"><ele>24.0</ele><time>2026-05-04T13:47:41.62Z</time></trkpt><trkpt lat="43.1161715" lon="17.3295332"><ele>24.0</ele><time>2026-05-04T13:47:42.62Z</time></trkpt><trkpt lat="43.1162271" lon="17.3292962"><ele>22.666666666666668</ele><time>2026-05-04T13:47:43.62Z</time></trkpt><trkpt lat="43.1162986" lon="17.3290722"><ele>21.333333333333336</ele><time>2026-05-04T13:47:44.621Z</time></trkpt><trkpt lat="43.1163812" lon="17.3288552"><ele>20.0</ele><time>2026-05-04T13:47:45.62Z</time></trkpt><trkpt lat="43.1164844" lon="17.3286548"><ele>23.0</ele><time>2026-05-04T13:47:46.621Z</time></trkpt><trkpt lat="43.1166118" lon="17.3284771"><ele>26.0</ele><time>2026-05-04T13:47:47.621Z</time></trkpt><trkpt lat="43.1167562" lon="17.3283138"><ele>29.0</ele><time>2026-05-04T13:47:48.621Z</time></trkpt><trkpt lat="43.1169029" lon="17.3281664"><ele>25.333333333333332</ele><time>2026-05-04T13:47:49.621Z</time></trkpt><trkpt lat="43.1170646" lon="17.3280239"><ele>21.666666666666664</ele><time>2026-05-04T13:47:50.621Z</time></trkpt><trkpt lat="43.1172222" lon="17.327888"><ele>18.0</ele><time>2026-05-04T13:47:51.62Z</time></trkpt><trkpt lat="43.1173779" lon="17.3277386"><ele>18.666666666666668</ele><time>2026-05-04T13:47:52.621Z</time></trkpt><trkpt lat="43.1175136" lon="17.327578"><ele>19.333333333333336</ele><time>2026-05-04T13:47:53.621Z</time></trkpt><trkpt lat="43.1176263" lon="17.3273961"><ele>20.0</ele><time>2026-05-04T13:47:54.621Z</time></trkpt><trkpt lat="43.1177316" lon="17.3271986"><ele>20.0</ele><time>2026-05-04T13:47:55.621Z</time></trkpt><trkpt lat="43.117824" lon="17.3269901"><ele>20.0</ele><time>2026-05-04T13:47:56.621Z</time></trkpt><trkpt lat="43.1179103" lon="17.3267818"><ele>20.0</ele><time>2026-05-04T13:47:57.62Z</time></trkpt><trkpt lat="43.1179912" lon="17.3265687"><ele>16.666666666666668</ele><time>2026-05-04T13:47:58.621Z</time></trkpt><trkpt lat="43.1180827" lon="17.3263567"><ele>13.333333333333334</ele><time>2026-05-04T13:47:59.62Z</time></trkpt><trkpt lat="43.1181706" lon="17.3261516"><ele>10.0</ele><time>2026-05-04T13:48:00.621Z</time></trkpt><trkpt lat="43.1182574" lon="17.3259516"><ele>13.666666666666668</ele><time>2026-05-04T13:48:01.621Z</time></trkpt><trkpt lat="43.1183378" lon="17.3257476"><ele>17.333333333333332</ele><time>2026-05-04T13:48:02.621Z</time></trkpt><trkpt lat="43.118418" lon="17.325546"><ele>21.0</ele><time>2026-05-04T13:48:03.62Z</time></trkpt><trkpt lat="43.1184995" lon="17.3253422"><ele>21.0</ele><time>2026-05-04T13:48:04.62Z</time></trkpt><trkpt lat="43.1185841" lon="17.3251378"><ele>21.0</ele><time>2026-05-04T13:48:05.621Z</time></trkpt><trkpt lat="43.1186733" lon="17.3249292"><ele>21.0</ele><time>2026-05-04T13:48:06.62Z</time></trkpt><trkpt lat="43.1187724" lon="17.3247068"><ele>18.666666666666668</ele><time>2026-05-04T13:48:07.62Z</time></trkpt><trkpt lat="43.118857" lon="17.3245137"><ele>16.333333333333336</ele><time>2026-05-04T13:48:08.621Z</time></trkpt><trkpt lat="43.1189352" lon="17.3243198"><ele>14.0</ele><time>2026-05-04T13:48:09.62Z</time></trkpt><trkpt lat="43.1190184" lon="17.3241311"><ele>18.0</ele><time>2026-05-04T13:48:10.62Z</time></trkpt><trkpt lat="43.1191043" lon="17.3239408"><ele>22.0</ele><time>2026-05-04T13:48:11.621Z</time></trkpt><trkpt lat="43.1191945" lon="17.3237665"><ele>26.0</ele><time>2026-05-04T13:48:12.621Z</time></trkpt><trkpt lat="43.1192702" lon="17.3236079"><ele>26.0</ele><time>2026-05-04T13:48:13.62Z</time></trkpt><trkpt lat="43.1193528" lon="17.3234595"><ele>26.0</ele><time>2026-05-04T13:48:14.62Z</time></trkpt><trkpt lat="43.1194451" lon="17.3233144"><ele>26.0</ele><time>2026-05-04T13:48:15.621Z</time></trkpt><trkpt lat="43.1195315" lon="17.3231695"><ele>26.0</ele><time>2026-05-04T13:48:16.621Z</time></trkpt><trkpt lat="43.1196311" lon="17.3230184"><ele>26.666666666666664</ele><time>2026-05-04T13:48:17.62Z</time></trkpt><trkpt lat="43.1197385" lon="17.3228783"><ele>27.333333333333336</ele><time>2026-05-04T13:48:18.62Z</time></trkpt><trkpt lat="43.1198476" lon="17.322741"><ele>28.0</ele><time>2026-05-04T13:48:19.62Z</time></trkpt><trkpt lat="43.1199647" lon="17.3225957"><ele>28.0</ele><time>2026-05-04T13:48:20.621Z</time></trkpt><trkpt lat="43.120074" lon="17.322444"><ele>28.0</ele><time>2026-05-04T13:48:21.62Z</time></trkpt><trkpt lat="43.1201857" lon="17.3222993"><ele>28.0</ele><time>2026-05-04T13:48:22.62Z</time></trkpt><trkpt lat="43.1202961" lon="17.3221607"><ele>24.0</ele><time>2026-05-04T13:48:23.62Z</time></trkpt><trkpt lat="43.1204039" lon="17.3220225"><ele>20.0</ele><time>2026-05-04T13:48:24.62Z</time></trkpt><trkpt lat="43.1205067" lon="17.3218673"><ele>16.0</ele><time>2026-05-04T13:48:25.621Z</time></trkpt><trkpt lat="43.1206048" lon="17.3217046"><ele>16.0</ele><time>2026-05-04T13:48:26.621Z</time></trkpt><trkpt lat="43.1206858" lon="17.3215251"><ele>16.0</ele><time>2026-05-04T13:48:27.62Z</time></trkpt><trkpt lat="43.1207464" lon="17.3213379"><ele>16.0</ele><time>2026-05-04T13:48:28.619Z</time></trkpt><trkpt lat="43.1207884" lon="17.3211383"><ele>18.666666666666664</ele><time>2026-05-04T13:48:29.62Z</time></trkpt><trkpt lat="43.1208048" lon="17.3209375"><ele>21.333333333333332</ele><time>2026-05-04T13:48:30.62Z</time></trkpt><trkpt lat="43.1207915" lon="17.3207245"><ele>24.0</ele><time>2026-05-04T13:48:31.62Z</time></trkpt><trkpt lat="43.1207703" lon="17.3205094"><ele>25.333333333333336</ele><time>2026-05-04T13:48:32.62Z</time></trkpt><trkpt lat="43.1207458" lon="17.3202937"><ele>26.666666666666668</ele><time>2026-05-04T13:48:33.62Z</time></trkpt><trkpt lat="43.1207175" lon="17.3200852"><ele>28.0</ele><time>2026-05-04T13:48:34.621Z</time></trkpt><trkpt lat="43.1206915" lon="17.3198725"><ele>22.666666666666668</ele><time>2026-05-04T13:48:35.62Z</time></trkpt><trkpt lat="43.1206692" lon="17.3196615"><ele>17.333333333333336</ele><time>2026-05-04T13:48:36.62Z</time></trkpt><trkpt lat="43.1206608" lon="17.3194381"><ele>12.0</ele><time>2026-05-04T13:48:37.62Z</time></trkpt><trkpt lat="43.1206501" lon="17.3192292"><ele>12.0</ele><time>2026-05-04T13:48:38.621Z</time></trkpt><trkpt lat="43.1206489" lon="17.3190219"><ele>12.0</ele><time>2026-05-04T13:48:39.62Z</time></trkpt><trkpt lat="43.1206542" lon="17.3188103"><ele>12.0</ele><time>2026-05-04T13:48:40.619Z</time></trkpt><trkpt lat="43.1206734" lon="17.3186042"><ele>10.333333333333334</ele><time>2026-05-04T13:48:41.621Z</time></trkpt><trkpt lat="43.1207093" lon="17.3183914"><ele>8.666666666666668</ele><time>2026-05-04T13:48:42.62Z</time></trkpt><trkpt lat="43.1207527" lon="17.3181852"><ele>7.0</ele><time>2026-05-04T13:48:43.621Z</time></trkpt><trkpt lat="43.1208058" lon="17.3179837"><ele>10.333333333333334</ele><time>2026-05-04T13:48:44.621Z</time></trkpt><trkpt lat="43.1208746" lon="17.3177908"><ele>13.666666666666668</ele><time>2026-05-04T13:48:45.621Z</time></trkpt><trkpt lat="43.1209543" lon="17.3175912"><ele>17.0</ele><time>2026-05-04T13:48:46.621Z</time></trkpt><trkpt lat="43.1210457" lon="17.3173907"><ele>15.0</ele><time>2026-05-04T13:48:47.621Z</time></trkpt><trkpt lat="43.1211398" lon="17.3171963"><ele>13.0</ele><time>2026-05-04T13:48:48.62Z</time></trkpt><trkpt lat="43.1212504" lon="17.3170085"><ele>11.0</ele><time>2026-05-04T13:48:49.621Z</time></trkpt><trkpt lat="43.1213477" lon="17.3168036"><ele>11.0</ele><time>2026-05-04T13:48:50.621Z</time></trkpt><trkpt lat="43.1214441" lon="17.3165832"><ele>11.0</ele><time>2026-05-04T13:48:51.619Z</time></trkpt><trkpt lat="43.1215194" lon="17.3163557"><ele>11.0</ele><time>2026-05-04T13:48:52.621Z</time></trkpt><trkpt lat="43.1215641" lon="17.3161127"><ele>16.666666666666668</ele><time>2026-05-04T13:48:53.621Z</time></trkpt><trkpt lat="43.1215867" lon="17.3158559"><ele>22.333333333333336</ele><time>2026-05-04T13:48:54.621Z</time></trkpt><trkpt lat="43.1215875" lon="17.3156013"><ele>28.0</ele><time>2026-05-04T13:48:55.621Z</time></trkpt><trkpt lat="43.1215911" lon="17.3153487"><ele>28.0</ele><time>2026-05-04T13:48:56.621Z</time></trkpt><trkpt lat="43.1215911" lon="17.3150969"><ele>28.0</ele><time>2026-05-04T13:48:57.621Z</time></trkpt><trkpt lat="43.1216039" lon="17.3148441"><ele>28.0</ele><time>2026-05-04T13:48:58.62Z</time></trkpt><trkpt lat="43.1216273" lon="17.3146009"><ele>25.333333333333336</ele><time>2026-05-04T13:48:59.62Z</time></trkpt><trkpt lat="43.1216727" lon="17.314357"><ele>22.666666666666668</ele><time>2026-05-04T13:49:00.621Z</time></trkpt><trkpt lat="43.121733" lon="17.3141235"><ele>20.0</ele><time>2026-05-04T13:49:01.62Z</time></trkpt><trkpt lat="43.1218085" lon="17.3138816"><ele>18.0</ele><time>2026-05-04T13:49:02.621Z</time></trkpt><trkpt lat="43.1218851" lon="17.3136473"><ele>16.0</ele><time>2026-05-04T13:49:03.62Z</time></trkpt><trkpt lat="43.1219553" lon="17.3134112"><ele>14.0</ele><time>2026-05-04T13:49:04.62Z</time></trkpt><trkpt lat="43.1220029" lon="17.3131611"><ele>12.666666666666668</ele><time>2026-05-04T13:49:05.62Z</time></trkpt><trkpt lat="43.1220047" lon="17.3129092"><ele>11.333333333333334</ele><time>2026-05-04T13:49:06.621Z</time></trkpt><trkpt lat="43.1219949" lon="17.3126657"><ele>10.0</ele><time>2026-05-04T13:49:07.621Z</time></trkpt><trkpt lat="43.1219704" lon="17.3124187"><ele>8.333333333333334</ele><time>2026-05-04T13:49:08.621Z</time></trkpt><trkpt lat="43.121961" lon="17.3121888"><ele>6.666666666666667</ele><time>2026-05-04T13:49:09.621Z</time></trkpt><trkpt lat="43.1219721" lon="17.3119656"><ele>5.0</ele><time>2026-05-04T13:49:10.621Z</time></trkpt><trkpt lat="43.1220191" lon="17.3117367"><ele>5.0</ele><time>2026-05-04T13:49:11.621Z</time></trkpt><trkpt lat="43.122079" lon="17.3115046"><ele>5.0</ele><time>2026-05-04T13:49:12.62Z</time></trkpt><trkpt lat="43.1221778" lon="17.3112815"><ele>5.0</ele><time>2026-05-04T13:49:13.621Z</time></trkpt><trkpt lat="43.1222752" lon="17.3110711"><ele>5.333333333333334</ele><time>2026-05-04T13:49:14.62Z</time></trkpt><trkpt lat="43.1223765" lon="17.3108608"><ele>5.666666666666667</ele><time>2026-05-04T13:49:15.621Z</time></trkpt><trkpt lat="43.1224701" lon="17.3106443"><ele>6.0</ele><time>2026-05-04T13:49:16.621Z</time></trkpt><trkpt lat="43.1225513" lon="17.3104162"><ele>10.333333333333332</ele><time>2026-05-04T13:49:17.62Z</time></trkpt><trkpt lat="43.1226098" lon="17.3101967"><ele>14.666666666666666</ele><time>2026-05-04T13:49:18.62Z</time></trkpt><trkpt lat="43.1226536" lon="17.3099853"><ele>19.0</ele><time>2026-05-04T13:49:19.62Z</time></trkpt><trkpt lat="43.1226856" lon="17.3097835"><ele>18.75</ele><time>2026-05-04T13:49:20.621Z</time></trkpt><trkpt lat="43.1227109" lon="17.3095865"><ele>18.5</ele><time>2026-05-04T13:49:21.62Z</time></trkpt><trkpt lat="43.1227363" lon="17.3093893"><ele>18.25</ele><time>2026-05-04T13:49:22.621Z</time></trkpt><trkpt lat="43.1227639" lon="17.3091915"><ele>18.0</ele><time>2026-05-04T13:49:23.621Z</time></trkpt><trkpt lat="43.1227873" lon="17.3089994"><ele>18.0</ele><time>2026-05-04T13:49:24.621Z</time></trkpt><trkpt lat="43.1228153" lon="17.3088112"><ele>18.0</ele><time>2026-05-04T13:49:25.62Z</time></trkpt><trkpt lat="43.1228364" lon="17.3086271"><ele>18.0</ele><time>2026-05-04T13:49:26.621Z</time></trkpt><trkpt lat="43.1228549" lon="17.3084344"><ele>18.0</ele><time>2026-05-04T13:49:27.62Z</time></trkpt><trkpt lat="43.1228775" lon="17.3082385"><ele>17.75</ele><time>2026-05-04T13:49:28.621Z</time></trkpt><trkpt lat="43.1228787" lon="17.3080442"><ele>17.5</ele><time>2026-05-04T13:49:29.621Z</time></trkpt><trkpt lat="43.1228642" lon="17.3078487"><ele>17.25</ele><time>2026-05-04T13:49:30.62Z</time></trkpt><trkpt lat="43.1228452" lon="17.3076617"><ele>17.0</ele><time>2026-05-04T13:49:31.621Z</time></trkpt><trkpt lat="43.1228188" lon="17.3074701"><ele>17.0</ele><time>2026-05-04T13:49:32.62Z</time></trkpt><trkpt lat="43.1228072" lon="17.3072766"><ele>17.0</ele><time>2026-05-04T13:49:33.621Z</time></trkpt><trkpt lat="43.1227933" lon="17.3070995"><ele>17.0</ele><time>2026-05-04T13:49:34.62Z</time></trkpt><trkpt lat="43.1227811" lon="17.3069239"><ele>17.0</ele><time>2026-05-04T13:49:35.62Z</time></trkpt><trkpt lat="43.1227812" lon="17.3067469"><ele>16.5</ele><time>2026-05-04T13:49:36.62Z</time></trkpt><trkpt lat="43.1227999" lon="17.3065759"><ele>16.0</ele><time>2026-05-04T13:49:37.62Z</time></trkpt><trkpt lat="43.1228405" lon="17.3064032"><ele>15.5</ele><time>2026-05-04T13:49:38.62Z</time></trkpt><trkpt lat="43.122886" lon="17.3062333"><ele>15.0</ele><time>2026-05-04T13:49:39.62Z</time></trkpt><trkpt lat="43.1229431" lon="17.306058"><ele>14.5</ele><time>2026-05-04T13:49:40.621Z</time></trkpt><trkpt lat="43.1229989" lon="17.3058914"><ele>14.0</ele><time>2026-05-04T13:49:41.62Z</time></trkpt><trkpt lat="43.1230612" lon="17.3057198"><ele>13.5</ele><time>2026-05-04T13:49:42.62Z</time></trkpt><trkpt lat="43.1231232" lon="17.3055456"><ele>13.0</ele><time>2026-05-04T13:49:43.621Z</time></trkpt><trkpt lat="43.1231827" lon="17.3053683"><ele>18.0</ele><time>2026-05-04T13:49:44.62Z</time></trkpt><trkpt lat="43.123234" lon="17.305182"><ele>23.0</ele><time>2026-05-04T13:49:45.621Z</time></trkpt><trkpt lat="43.1232698" lon="17.3050006"><ele>28.0</ele><time>2026-05-04T13:49:46.62Z</time></trkpt><trkpt lat="43.1232993" lon="17.3048135"><ele>33.0</ele><time>2026-05-04T13:49:47.62Z</time></trkpt><trkpt lat="43.1233117" lon="17.3046268"><ele>33.0</ele><time>2026-05-04T13:49:48.62Z</time></trkpt><trkpt lat="43.1233046" lon="17.3044727"><ele>33.0</ele><time>2026-05-04T13:49:49.621Z</time></trkpt><trkpt lat="43.123296" lon="17.3043384"><ele>33.0</ele><time>2026-05-04T13:49:50.62Z</time></trkpt><trkpt lat="43.1232888" lon="17.3042095"><ele>33.0</ele><time>2026-05-04T13:49:51.619Z</time></trkpt><trkpt lat="43.123281" lon="17.3040926"><ele>33.0</ele><time>2026-05-04T13:49:52.62Z</time></trkpt><trkpt lat="43.1232777" lon="17.3039771"><ele>33.0</ele><time>2026-05-04T13:49:53.621Z</time></trkpt><trkpt lat="43.1232742" lon="17.3038546"><ele>33.0</ele><time>2026-05-04T13:49:54.62Z</time></trkpt><trkpt lat="43.1232767" lon="17.3037209"><ele>33.0</ele><time>2026-05-04T13:49:55.621Z</time></trkpt><trkpt lat="43.1232866" lon="17.3035946"><ele>33.0</ele><time>2026-05-04T13:49:56.621Z</time></trkpt><trkpt lat="43.1233049" lon="17.3034521"><ele>33.0</ele><time>2026-05-04T13:49:57.621Z</time></trkpt><trkpt lat="43.123331" lon="17.3032979"><ele>33.0</ele><time>2026-05-04T13:49:58.621Z</time></trkpt><trkpt lat="43.1233638" lon="17.3031492"><ele>33.0</ele><time>2026-05-04T13:49:59.62Z</time></trkpt><trkpt lat="43.1234082" lon="17.3029988"><ele>33.0</ele><time>2026-05-04T13:50:00.62Z</time></trkpt><trkpt lat="43.1234634" lon="17.3028519"><ele>33.0</ele><time>2026-05-04T13:50:01.621Z</time></trkpt><trkpt lat="43.1235257" lon="17.3027088"><ele>32.5</ele><time>2026-05-04T13:50:02.62Z</time></trkpt><trkpt lat="43.1235968" lon="17.3025833"><ele>32.0</ele><time>2026-05-04T13:50:03.62Z</time></trkpt><trkpt lat="43.1236782" lon="17.3024638"><ele>31.5</ele><time>2026-05-04T13:50:04.621Z</time></trkpt><trkpt lat="43.123761" lon="17.3023531"><ele>31.0</ele><time>2026-05-04T13:50:05.62Z</time></trkpt><trkpt lat="43.1238545" lon="17.3022491"><ele>30.8</ele><time>2026-05-04T13:50:06.62Z</time></trkpt><trkpt lat="43.1239435" lon="17.3021603"><ele>30.6</ele><time>2026-05-04T13:50:07.621Z</time></trkpt><trkpt lat="43.1240308" lon="17.3020774"><ele>30.4</ele><time>2026-05-04T13:50:08.62Z</time></trkpt><trkpt lat="43.1241266" lon="17.3019994"><ele>30.2</ele><time>2026-05-04T13:50:09.62Z</time></trkpt><trkpt lat="43.1242206" lon="17.3019273"><ele>30.0</ele><time>2026-05-04T13:50:10.621Z</time></trkpt><trkpt lat="43.1243135" lon="17.3018496"><ele>30.0</ele><time>2026-05-04T13:50:11.62Z</time></trkpt><trkpt lat="43.124411" lon="17.30177"><ele>30.0</ele><time>2026-05-04T13:50:12.62Z</time></trkpt><trkpt lat="43.1245126" lon="17.301688"><ele>30.0</ele><time>2026-05-04T13:50:13.621Z</time></trkpt><trkpt lat="43.1246177" lon="17.3016031"><ele>30.0</ele><time>2026-05-04T13:50:14.62Z</time></trkpt><trkpt lat="43.1247182" lon="17.3015192"><ele>30.0</ele><time>2026-05-04T13:50:15.62Z</time></trkpt><trkpt lat="43.1248127" lon="17.3014328"><ele>30.0</ele><time>2026-05-04T13:50:16.62Z</time></trkpt><trkpt lat="43.1249122" lon="17.3013474"><ele>30.0</ele><time>2026-05-04T13:50:17.62Z</time></trkpt><trkpt lat="43.1250102" lon="17.3012701"><ele>30.0</ele><time>2026-05-04T13:50:18.62Z</time></trkpt><trkpt lat="43.1251021" lon="17.3011891"><ele>28.6</ele><time>2026-05-04T13:50:19.621Z</time></trkpt><trkpt lat="43.1252" lon="17.3011066"><ele>27.2</ele><time>2026-05-04T13:50:20.62Z</time></trkpt><trkpt lat="43.125286" lon="17.3010302"><ele>25.799999999999997</ele><time>2026-05-04T13:50:21.621Z</time></trkpt><trkpt lat="43.1253703" lon="17.3009586"><ele>24.4</ele><time>2026-05-04T13:50:22.621Z</time></trkpt><trkpt lat="43.1254586" lon="17.3008848"><ele>23.0</ele><time>2026-05-04T13:50:23.62Z</time></trkpt><trkpt lat="43.1255533" lon="17.3008061"><ele>23.0</ele><time>2026-05-04T13:50:24.621Z</time></trkpt><trkpt lat="43.1256537" lon="17.3007196"><ele>23.0</ele><time>2026-05-04T13:50:25.621Z</time></trkpt><trkpt lat="43.1257572" lon="17.3006311"><ele>23.0</ele><time>2026-05-04T13:50:26.621Z</time></trkpt><trkpt lat="43.1258683" lon="17.3005377"><ele>23.0</ele><time>2026-05-04T13:50:27.62Z</time></trkpt><trkpt lat="43.1259805" lon="17.3004404"><ele>20.75</ele><time>2026-05-04T13:50:28.621Z</time></trkpt><trkpt lat="43.1260954" lon="17.3003426"><ele>18.5</ele><time>2026-05-04T13:50:29.621Z</time></trkpt><trkpt lat="43.1262168" lon="17.3002335"><ele>16.25</ele><time>2026-05-04T13:50:30.62Z</time></trkpt><trkpt lat="43.1263373" lon="17.3001155"><ele>14.0</ele><time>2026-05-04T13:50:31.62Z</time></trkpt><trkpt lat="43.1264671" lon="17.2999873"><ele>12.666666666666668</ele><time>2026-05-04T13:50:32.62Z</time></trkpt><trkpt lat="43.1265977" lon="17.2998468"><ele>11.333333333333334</ele><time>2026-05-04T13:50:33.621Z</time></trkpt><trkpt lat="43.1267242" lon="17.2996915"><ele>10.0</ele><time>2026-05-04T13:50:34.621Z</time></trkpt><trkpt lat="43.1268502" lon="17.2995091"><ele>10.0</ele><time>2026-05-04T13:50:35.62Z</time></trkpt><trkpt lat="43.1269533" lon="17.2993063"><ele>10.0</ele><time>2026-05-04T13:50:36.621Z</time></trkpt><trkpt lat="43.1270526" lon="17.2990924"><ele>10.0</ele><time>2026-05-04T13:50:37.62Z</time></trkpt><trkpt lat="43.1271407" lon="17.2988666"><ele>7.666666666666667</ele><time>2026-05-04T13:50:38.621Z</time></trkpt><trkpt lat="43.127213" lon="17.2986277"><ele>5.333333333333334</ele><time>2026-05-04T13:50:39.62Z</time></trkpt><trkpt lat="43.1272664" lon="17.2983688"><ele>3.0</ele><time>2026-05-04T13:50:40.62Z</time></trkpt><trkpt lat="43.1273039" lon="17.298108"><ele>2.6666666666666665</ele><time>2026-05-04T13:50:41.62Z</time></trkpt><trkpt lat="43.1273242" lon="17.2978508"><ele>2.333333333333333</ele><time>2026-05-04T13:50:42.621Z</time></trkpt><trkpt lat="43.127331" lon="17.297591"><ele>2.0</ele><time>2026-05-04T13:50:43.621Z</time></trkpt><trkpt lat="43.127333" lon="17.2973325"><ele>1.6666666666666665</ele><time>2026-05-04T13:50:44.621Z</time></trkpt><trkpt lat="43.1273335" lon="17.2970769"><ele>1.3333333333333333</ele><time>2026-05-04T13:50:45.621Z</time></trkpt><trkpt lat="43.1273409" lon="17.2968105"><ele>1.0</ele><time>2026-05-04T13:50:46.62Z</time></trkpt><trkpt lat="43.1273414" lon="17.2965435"><ele>1.0</ele><time>2026-05-04T13:50:47.62Z</time></trkpt><trkpt lat="43.1273508" lon="17.2962695"><ele>1.0</ele><time>2026-05-04T13:50:48.621Z</time></trkpt><trkpt lat="43.1273526" lon="17.2960001"><ele>1.0</ele><time>2026-05-04T13:50:49.621Z</time></trkpt><trkpt lat="43.1273404" lon="17.2957352"><ele>1.3333333333333333</ele><time>2026-05-04T13:50:50.619Z</time></trkpt><trkpt lat="43.127309" lon="17.2954731"><ele>1.6666666666666665</ele><time>2026-05-04T13:50:51.621Z</time></trkpt><trkpt lat="43.1272706" lon="17.2952206"><ele>2.0</ele><time>2026-05-04T13:50:52.621Z</time></trkpt><trkpt lat="43.1272283" lon="17.2949791"><ele>2.0</ele><time>2026-05-04T13:50:53.62Z</time></trkpt><trkpt lat="43.1272013" lon="17.2947416"><ele>2.0</ele><time>2026-05-04T13:50:54.62Z</time></trkpt><trkpt lat="43.1271858" lon="17.2945087"><ele>2.0</ele><time>2026-05-04T13:50:55.621Z</time></trkpt><trkpt lat="43.1271968" lon="17.2942775"><ele>2.0</ele><time>2026-05-04T13:50:56.621Z</time></trkpt><trkpt lat="43.1272326" lon="17.2940333"><ele>2.0</ele><time>2026-05-04T13:50:57.621Z</time></trkpt><trkpt lat="43.127276" lon="17.2937826"><ele>2.0</ele><time>2026-05-04T13:50:58.62Z</time></trkpt><trkpt lat="43.1273338" lon="17.2935381"><ele>1.6666666666666665</ele><time>2026-05-04T13:50:59.621Z</time></trkpt><trkpt lat="43.1273739" lon="17.2932767"><ele>1.3333333333333333</ele><time>2026-05-04T13:51:00.62Z</time></trkpt><trkpt lat="43.1273912" lon="17.2930124"><ele>1.0</ele><time>2026-05-04T13:51:01.621Z</time></trkpt><trkpt lat="43.127385" lon="17.2927502"><ele>0.6666666666666666</ele><time>2026-05-04T13:51:02.62Z</time></trkpt><trkpt lat="43.1273702" lon="17.2924867"><ele>0.3333333333333333</ele><time>2026-05-04T13:51:03.621Z</time></trkpt><trkpt lat="43.1273509" lon="17.2922246"><ele>0.0</ele><time>2026-05-04T13:51:04.621Z</time></trkpt><trkpt lat="43.1273384" lon="17.2919785"><ele>0.0</ele><time>2026-05-04T13:51:05.62Z</time></trkpt><trkpt lat="43.1273397" lon="17.2917465"><ele>0.0</ele><time>2026-05-04T13:51:06.62Z</time></trkpt><trkpt lat="43.1273753" lon="17.2915127"><ele>0.0</ele><time>2026-05-04T13:51:07.621Z</time></trkpt><trkpt lat="43.1274358" lon="17.2912957"><ele>4.333333333333333</ele><time>2026-05-04T13:51:08.62Z</time></trkpt><trkpt lat="43.1275153" lon="17.2910881"><ele>8.666666666666666</ele><time>2026-05-04T13:51:09.621Z</time></trkpt><trkpt lat="43.1276098" lon="17.2908732"><ele>13.0</ele><time>2026-05-04T13:51:10.62Z</time></trkpt><trkpt lat="43.1277084" lon="17.2906616"><ele>12.333333333333332</ele><time>2026-05-04T13:51:11.621Z</time></trkpt><trkpt lat="43.1278031" lon="17.2904435"><ele>11.666666666666666</ele><time>2026-05-04T13:51:12.621Z</time></trkpt><trkpt lat="43.1278954" lon="17.2902388"><ele>11.0</ele><time>2026-05-04T13:51:13.621Z</time></trkpt><trkpt lat="43.1279842" lon="17.2900572"><ele>11.0</ele><time>2026-05-04T13:51:14.62Z</time></trkpt><trkpt lat="43.1280974" lon="17.2898846"><ele>11.0</ele><time>2026-05-04T13:51:15.62Z</time></trkpt><trkpt lat="43.1282346" lon="17.2897228"><ele>11.0</ele><time>2026-05-04T13:51:16.621Z</time></trkpt><trkpt lat="43.128379" lon="17.2895861"><ele>10.333333333333332</ele><time>2026-05-04T13:51:17.62Z</time></trkpt><trkpt lat="43.1285293" lon="17.2894641"><ele>9.666666666666666</ele><time>2026-05-04T13:51:18.621Z</time></trkpt><trkpt lat="43.1286909" lon="17.2893669"><ele>9.0</ele><time>2026-05-04T13:51:19.62Z</time></trkpt><trkpt lat="43.1288623" lon="17.2893009"><ele>9.0</ele><time>2026-05-04T13:51:20.62Z</time></trkpt><trkpt lat="43.1290407" lon="17.2892424"><ele>9.0</ele><time>2026-05-04T13:51:21.621Z</time></trkpt><trkpt lat="43.1292185" lon="17.2891924"><ele>9.0</ele><time>2026-05-04T13:51:22.621Z</time></trkpt><trkpt lat="43.1293969" lon="17.2891355"><ele>8.333333333333334</ele><time>2026-05-04T13:51:23.621Z</time></trkpt><trkpt lat="43.1295711" lon="17.2890462"><ele>7.666666666666667</ele><time>2026-05-04T13:51:24.621Z</time></trkpt><trkpt lat="43.1297403" lon="17.2889249"><ele>7.0</ele><time>2026-05-04T13:51:25.621Z</time></trkpt><trkpt lat="43.1299083" lon="17.2887917"><ele>13.666666666666668</ele><time>2026-05-04T13:51:26.621Z</time></trkpt><trkpt lat="43.1300732" lon="17.2886418"><ele>20.333333333333332</ele><time>2026-05-04T13:51:27.619Z</time></trkpt><trkpt lat="43.1302255" lon="17.2884827"><ele>27.0</ele><time>2026-05-04T13:51:28.62Z</time></trkpt><trkpt lat="43.1303774" lon="17.2883314"><ele>27.0</ele><time>2026-05-04T13:51:29.619Z</time></trkpt><trkpt lat="43.1305334" lon="17.2881842"><ele>27.0</ele><time>2026-05-04T13:51:30.621Z</time></trkpt><trkpt lat="43.1306919" lon="17.2880483"><ele>27.0</ele><time>2026-05-04T13:51:31.62Z</time></trkpt><trkpt lat="43.1308471" lon="17.2879193"><ele>29.666666666666664</ele><time>2026-05-04T13:51:32.616Z</time></trkpt><trkpt lat="43.1309914" lon="17.2878112"><ele>32.33333333333333</ele><time>2026-05-04T13:51:33.621Z</time></trkpt><trkpt lat="43.1311358" lon="17.2877177"><ele>35.0</ele><time>2026-05-04T13:51:34.62Z</time></trkpt><trkpt lat="43.1312742" lon="17.2876415"><ele>35.0</ele><time>2026-05-04T13:51:35.62Z</time></trkpt><trkpt lat="43.1314185" lon="17.2875726"><ele>35.0</ele><time>2026-05-04T13:51:36.621Z</time></trkpt><trkpt lat="43.1315696" lon="17.2875082"><ele>35.0</ele><time>2026-05-04T13:51:37.621Z</time></trkpt><trkpt lat="43.1317266" lon="17.287439"><ele>34.33333333333333</ele><time>2026-05-04T13:51:38.621Z</time></trkpt><trkpt lat="43.1318947" lon="17.2873679"><ele>33.666666666666664</ele><time>2026-05-04T13:51:39.621Z</time></trkpt><trkpt lat="43.132064" lon="17.2873057"><ele>33.0</ele><time>2026-05-04T13:51:40.621Z</time></trkpt><trkpt lat="43.1322338" lon="17.2872471"><ele>29.0</ele><time>2026-05-04T13:51:41.62Z</time></trkpt><trkpt lat="43.1324218" lon="17.2871859"><ele>25.0</ele><time>2026-05-04T13:51:42.62Z</time></trkpt><trkpt lat="43.132614" lon="17.2871306"><ele>21.0</ele><time>2026-05-04T13:51:43.62Z</time></trkpt><trkpt lat="43.1328169" lon="17.2870822"><ele>21.0</ele><time>2026-05-04T13:51:44.62Z</time></trkpt><trkpt lat="43.1330196" lon="17.2870287"><ele>21.0</ele><time>2026-05-04T13:51:45.621Z</time></trkpt><trkpt lat="43.1332291" lon="17.2869795"><ele>21.0</ele><time>2026-05-04T13:51:46.621Z</time></trkpt><trkpt lat="43.1334485" lon="17.2869321"><ele>23.0</ele><time>2026-05-04T13:51:47.621Z</time></trkpt><trkpt lat="43.1336829" lon="17.2868798"><ele>25.0</ele><time>2026-05-04T13:51:48.621Z</time></trkpt><trkpt lat="43.1339101" lon="17.2868233"><ele>23.0</ele><time>2026-05-04T13:51:49.621Z</time></trkpt><trkpt lat="43.1341491" lon="17.2867592"><ele>21.0</ele><time>2026-05-04T13:51:50.62Z</time></trkpt><trkpt lat="43.1343919" lon="17.2867086"><ele>21.0</ele><time>2026-05-04T13:51:51.62Z</time></trkpt><trkpt lat="43.134631" lon="17.2866433"><ele>21.0</ele><time>2026-05-04T13:51:52.62Z</time></trkpt><trkpt lat="43.1348709" lon="17.2865787"><ele>26.0</ele><time>2026-05-04T13:51:53.62Z</time></trkpt><trkpt lat="43.1351133" lon="17.2865125"><ele>31.0</ele><time>2026-05-04T13:51:54.62Z</time></trkpt><trkpt lat="43.1353502" lon="17.2864464"><ele>28.5</ele><time>2026-05-04T13:51:55.62Z</time></trkpt><trkpt lat="43.1355839" lon="17.2863814"><ele>26.0</ele><time>2026-05-04T13:51:56.621Z</time></trkpt><trkpt lat="43.1358176" lon="17.2863123"><ele>26.0</ele><time>2026-05-04T13:51:57.62Z</time></trkpt><trkpt lat="43.1360489" lon="17.2862467"><ele>26.0</ele><time>2026-05-04T13:51:58.62Z</time></trkpt><trkpt lat="43.1362753" lon="17.2861739"><ele>26.0</ele><time>2026-05-04T13:51:59.621Z</time></trkpt><trkpt lat="43.1365014" lon="17.2861"><ele>26.0</ele><time>2026-05-04T13:52:00.62Z</time></trkpt><trkpt lat="43.1367237" lon="17.2860169"><ele>28.666666666666664</ele><time>2026-05-04T13:52:01.62Z</time></trkpt><trkpt lat="43.1369413" lon="17.2859332"><ele>31.333333333333336</ele><time>2026-05-04T13:52:02.621Z</time></trkpt><trkpt lat="43.1371528" lon="17.2858503"><ele>34.0</ele><time>2026-05-04T13:52:03.62Z</time></trkpt><trkpt lat="43.1373661" lon="17.2857663"><ele>32.0</ele><time>2026-05-04T13:52:04.621Z</time></trkpt><trkpt lat="43.137578" lon="17.2856808"><ele>30.0</ele><time>2026-05-04T13:52:05.62Z</time></trkpt><trkpt lat="43.137793" lon="17.2855925"><ele>28.0</ele><time>2026-05-04T13:52:06.62Z</time></trkpt><trkpt lat="43.1380051" lon="17.2854949"><ele>28.0</ele><time>2026-05-04T13:52:07.62Z</time></trkpt><trkpt lat="43.1382151" lon="17.2853989"><ele>28.0</ele><time>2026-05-04T13:52:08.62Z</time></trkpt><trkpt lat="43.138434" lon="17.2852996"><ele>31.5</ele><time>2026-05-04T13:52:09.62Z</time></trkpt><trkpt lat="43.1386562" lon="17.2851968"><ele>35.0</ele><time>2026-05-04T13:52:10.62Z</time></trkpt><trkpt lat="43.1388702" lon="17.2850946"><ele>38.0</ele><time>2026-05-04T13:52:11.62Z</time></trkpt><trkpt lat="43.1390827" lon="17.2849904"><ele>41.0</ele><time>2026-05-04T13:52:12.619Z</time></trkpt><trkpt lat="43.1392868" lon="17.2848827"><ele>44.0</ele><time>2026-05-04T13:52:13.621Z</time></trkpt><trkpt lat="43.1394918" lon="17.2847749"><ele>40.33333333333333</ele><time>2026-05-04T13:52:14.62Z</time></trkpt><trkpt lat="43.1396929" lon="17.2846632"><ele>36.666666666666664</ele><time>2026-05-04T13:52:15.62Z</time></trkpt><trkpt lat="43.1398941" lon="17.284556"><ele>33.0</ele><time>2026-05-04T13:52:16.621Z</time></trkpt><trkpt lat="43.1400935" lon="17.284444"><ele>33.0</ele><time>2026-05-04T13:52:17.62Z</time></trkpt><trkpt lat="43.1402905" lon="17.2843273"><ele>33.0</ele><time>2026-05-04T13:52:18.621Z</time></trkpt><trkpt lat="43.1404883" lon="17.2842044"><ele>33.0</ele><time>2026-05-04T13:52:19.621Z</time></trkpt><trkpt lat="43.1406844" lon="17.2840586"><ele>29.0</ele><time>2026-05-04T13:52:20.62Z</time></trkpt><trkpt lat="43.1408751" lon="17.2839101"><ele>25.0</ele><time>2026-05-04T13:52:21.621Z</time></trkpt><trkpt lat="43.1410496" lon="17.28375"><ele>21.0</ele><time>2026-05-04T13:52:22.621Z</time></trkpt><trkpt lat="43.1412166" lon="17.2835822"><ele>21.0</ele><time>2026-05-04T13:52:23.62Z</time></trkpt><trkpt lat="43.1413674" lon="17.2834074"><ele>21.0</ele><time>2026-05-04T13:52:24.62Z</time></trkpt><trkpt lat="43.1415087" lon="17.28322"><ele>21.0</ele><time>2026-05-04T13:52:25.621Z</time></trkpt><trkpt lat="43.1416413" lon="17.2830175"><ele>20.666666666666668</ele><time>2026-05-04T13:52:26.621Z</time></trkpt><trkpt lat="43.1417677" lon="17.2828084"><ele>20.333333333333336</ele><time>2026-05-04T13:52:27.621Z</time></trkpt><trkpt lat="43.1418826" lon="17.2825908"><ele>20.0</ele><time>2026-05-04T13:52:28.621Z</time></trkpt><trkpt lat="43.1419963" lon="17.2823708"><ele>20.0</ele><time>2026-05-04T13:52:29.62Z</time></trkpt><trkpt lat="43.1421055" lon="17.2821446"><ele>20.0</ele><time>2026-05-04T13:52:30.621Z</time></trkpt><trkpt lat="43.1422091" lon="17.2819178"><ele>20.0</ele><time>2026-05-04T13:52:31.621Z</time></trkpt><trkpt lat="43.1423069" lon="17.2816831"><ele>20.666666666666668</ele><time>2026-05-04T13:52:32.621Z</time></trkpt><trkpt lat="43.1424069" lon="17.2814353"><ele>21.333333333333332</ele><time>2026-05-04T13:52:33.618Z</time></trkpt><trkpt lat="43.1424964" lon="17.2811892"><ele>22.0</ele><time>2026-05-04T13:52:34.621Z</time></trkpt><trkpt lat="43.1425679" lon="17.2809417"><ele>22.0</ele><time>2026-05-04T13:52:35.62Z</time></trkpt><trkpt lat="43.1426324" lon="17.2806807"><ele>22.0</ele><time>2026-05-04T13:52:36.621Z</time></trkpt><trkpt lat="43.1426785" lon="17.2804182"><ele>22.0</ele><time>2026-05-04T13:52:37.62Z</time></trkpt><trkpt lat="43.1427071" lon="17.2801637"><ele>21.666666666666664</ele><time>2026-05-04T13:52:38.621Z</time></trkpt><trkpt lat="43.1427119" lon="17.2799068"><ele>21.333333333333332</ele><time>2026-05-04T13:52:39.619Z</time></trkpt><trkpt lat="43.1426992" lon="17.2796489"><ele>21.0</ele><time>2026-05-04T13:52:40.62Z</time></trkpt><trkpt lat="43.1426526" lon="17.2793969"><ele>21.0</ele><time>2026-05-04T13:52:41.619Z</time></trkpt><trkpt lat="43.1425769" lon="17.2791462"><ele>21.0</ele><time>2026-05-04T13:52:42.621Z</time></trkpt><trkpt lat="43.142489" lon="17.2788963"><ele>21.0</ele><time>2026-05-04T13:52:43.62Z</time></trkpt><trkpt lat="43.1423864" lon="17.2786588"><ele>21.666666666666668</ele><time>2026-05-04T13:52:44.619Z</time></trkpt><trkpt lat="43.1422747" lon="17.2784332"><ele>22.333333333333336</ele><time>2026-05-04T13:52:45.62Z</time></trkpt><trkpt lat="43.1421637" lon="17.2782213"><ele>23.0</ele><time>2026-05-04T13:52:46.621Z</time></trkpt><trkpt lat="43.1420624" lon="17.278008"><ele>23.0</ele><time>2026-05-04T13:52:47.621Z</time></trkpt><trkpt lat="43.1419726" lon="17.2777942"><ele>23.0</ele><time>2026-05-04T13:52:48.62Z</time></trkpt><trkpt lat="43.1418962" lon="17.2775679"><ele>23.0</ele><time>2026-05-04T13:52:49.621Z</time></trkpt><trkpt lat="43.1418415" lon="17.2773402"><ele>24.0</ele><time>2026-05-04T13:52:50.621Z</time></trkpt><trkpt lat="43.1418029" lon="17.2771189"><ele>25.0</ele><time>2026-05-04T13:52:51.621Z</time></trkpt><trkpt lat="43.1417837" lon="17.2768707"><ele>26.0</ele><time>2026-05-04T13:52:52.62Z</time></trkpt><trkpt lat="43.1417718" lon="17.2766113"><ele>26.333333333333332</ele><time>2026-05-04T13:52:53.62Z</time></trkpt><trkpt lat="43.1417667" lon="17.2763438"><ele>26.666666666666664</ele><time>2026-05-04T13:52:54.621Z</time></trkpt><trkpt lat="43.1417653" lon="17.2760727"><ele>27.0</ele><time>2026-05-04T13:52:55.62Z</time></trkpt><trkpt lat="43.1417655" lon="17.2758034"><ele>27.333333333333336</ele><time>2026-05-04T13:52:56.621Z</time></trkpt><trkpt lat="43.1417702" lon="17.2755334"><ele>27.666666666666668</ele><time>2026-05-04T13:52:57.62Z</time></trkpt><trkpt lat="43.1417757" lon="17.2752731"><ele>28.0</ele><time>2026-05-04T13:52:58.621Z</time></trkpt><trkpt lat="43.1417927" lon="17.2750107"><ele>27.666666666666668</ele><time>2026-05-04T13:52:59.621Z</time></trkpt><trkpt lat="43.1418097" lon="17.2747463"><ele>27.333333333333336</ele><time>2026-05-04T13:53:00.621Z</time></trkpt><trkpt lat="43.1418331" lon="17.2744856"><ele>27.0</ele><time>2026-05-04T13:53:01.621Z</time></trkpt><trkpt lat="43.141865" lon="17.2742216"><ele>27.0</ele><time>2026-05-04T13:53:02.62Z</time></trkpt><trkpt lat="43.1419075" lon="17.2739467"><ele>27.0</ele><time>2026-05-04T13:53:03.621Z</time></trkpt><trkpt lat="43.1419505" lon="17.2736729"><ele>27.0</ele><time>2026-05-04T13:53:04.621Z</time></trkpt><trkpt lat="43.1420037" lon="17.2733889"><ele>19.666666666666668</ele><time>2026-05-04T13:53:05.62Z</time></trkpt><trkpt lat="43.1420677" lon="17.2730995"><ele>12.333333333333334</ele><time>2026-05-04T13:53:06.621Z</time></trkpt><trkpt lat="43.1421402" lon="17.2728167"><ele>5.0</ele><time>2026-05-04T13:53:07.62Z</time></trkpt><trkpt lat="43.1422228" lon="17.2725323"><ele>4.0</ele><time>2026-05-04T13:53:08.621Z</time></trkpt><trkpt lat="43.1423226" lon="17.2722422"><ele>3.0</ele><time>2026-05-04T13:53:09.62Z</time></trkpt><trkpt lat="43.1424287" lon="17.2719578"><ele>8.5</ele><time>2026-05-04T13:53:10.621Z</time></trkpt><trkpt lat="43.1425381" lon="17.2716793"><ele>14.0</ele><time>2026-05-04T13:53:11.62Z</time></trkpt><trkpt lat="43.1426624" lon="17.2714029"><ele>14.0</ele><time>2026-05-04T13:53:12.62Z</time></trkpt><trkpt lat="43.1427966" lon="17.2711279"><ele>14.0</ele><time>2026-05-04T13:53:13.621Z</time></trkpt><trkpt lat="43.1429363" lon="17.2708644"><ele>14.0</ele><time>2026-05-04T13:53:14.62Z</time></trkpt><trkpt lat="43.1430913" lon="17.2706079"><ele>14.0</ele><time>2026-05-04T13:53:15.621Z</time></trkpt><trkpt lat="43.1432452" lon="17.270359"><ele>19.5</ele><time>2026-05-04T13:53:16.621Z</time></trkpt><trkpt lat="43.1434046" lon="17.2701308"><ele>25.0</ele><time>2026-05-04T13:53:17.62Z</time></trkpt><trkpt lat="43.1435724" lon="17.2699008"><ele>16.5</ele><time>2026-05-04T13:53:18.619Z</time></trkpt><trkpt lat="43.1437475" lon="17.2696789"><ele>8.0</ele><time>2026-05-04T13:53:19.62Z</time></trkpt><trkpt lat="43.1439249" lon="17.2694594"><ele>16.5</ele><time>2026-05-04T13:53:20.62Z</time></trkpt><trkpt lat="43.1441042" lon="17.2692423"><ele>25.0</ele><time>2026-05-04T13:53:21.62Z</time></trkpt><trkpt lat="43.1442707" lon="17.2690305"><ele>18.0</ele><time>2026-05-04T13:53:22.62Z</time></trkpt><trkpt lat="43.1444412" lon="17.2688215"><ele>11.0</ele><time>2026-05-04T13:53:23.619Z</time></trkpt><trkpt lat="43.1446013" lon="17.2686027"><ele>11.0</ele><time>2026-05-04T13:53:24.62Z</time></trkpt><trkpt lat="43.1447366" lon="17.2683648"><ele>11.0</ele><time>2026-05-04T13:53:25.62Z</time></trkpt><trkpt lat="43.1448766" lon="17.2681127"><ele>12.333333333333332</ele><time>2026-05-04T13:53:26.62Z</time></trkpt><trkpt lat="43.1450039" lon="17.2678571"><ele>13.666666666666666</ele><time>2026-05-04T13:53:27.62Z</time></trkpt><trkpt lat="43.1451243" lon="17.2676067"><ele>15.0</ele><time>2026-05-04T13:53:28.621Z</time></trkpt><trkpt lat="43.1452402" lon="17.2673681"><ele>12.333333333333334</ele><time>2026-05-04T13:53:29.621Z</time></trkpt><trkpt lat="43.1453633" lon="17.2671441"><ele>9.666666666666668</ele><time>2026-05-04T13:53:30.621Z</time></trkpt><trkpt lat="43.1454869" lon="17.2669349"><ele>7.0</ele><time>2026-05-04T13:53:31.621Z</time></trkpt><trkpt lat="43.145632" lon="17.2667372"><ele>8.0</ele><time>2026-05-04T13:53:32.621Z</time></trkpt><trkpt lat="43.1457871" lon="17.2665652"><ele>9.0</ele><time>2026-05-04T13:53:33.62Z</time></trkpt><trkpt lat="43.1459357" lon="17.2664185"><ele>10.0</ele><time>2026-05-04T13:53:34.62Z</time></trkpt><trkpt lat="43.1460702" lon="17.2662689"><ele>10.0</ele><time>2026-05-04T13:53:35.621Z</time></trkpt><trkpt lat="43.146176" lon="17.2660905"><ele>10.0</ele><time>2026-05-04T13:53:36.621Z</time></trkpt><trkpt lat="43.1462514" lon="17.2658859"><ele>10.0</ele><time>2026-05-04T13:53:37.62Z</time></trkpt><trkpt lat="43.1462904" lon="17.2656472"><ele>7.666666666666667</ele><time>2026-05-04T13:53:38.618Z</time></trkpt><trkpt lat="43.1463041" lon="17.2653841"><ele>5.333333333333334</ele><time>2026-05-04T13:53:39.619Z</time></trkpt><trkpt lat="43.1463034" lon="17.2651128"><ele>3.0</ele><time>2026-05-04T13:53:40.62Z</time></trkpt><trkpt lat="43.146296" lon="17.2648355"><ele>3.333333333333333</ele><time>2026-05-04T13:53:41.621Z</time></trkpt><trkpt lat="43.1462915" lon="17.2645718"><ele>3.6666666666666665</ele><time>2026-05-04T13:53:42.619Z</time></trkpt><trkpt lat="43.1462996" lon="17.2643194"><ele>4.0</ele><time>2026-05-04T13:53:43.619Z</time></trkpt><trkpt lat="43.1463119" lon="17.2640695"><ele>4.666666666666666</ele><time>2026-05-04T13:53:44.621Z</time></trkpt><trkpt lat="43.1463356" lon="17.2638084"><ele>5.333333333333333</ele><time>2026-05-04T13:53:45.621Z</time></trkpt><trkpt lat="43.1463825" lon="17.2635567"><ele>6.0</ele><time>2026-05-04T13:53:46.621Z</time></trkpt><trkpt lat="43.1464408" lon="17.2633168"><ele>4.333333333333333</ele><time>2026-05-04T13:53:47.62Z</time></trkpt><trkpt lat="43.1465164" lon="17.2630875"><ele>2.6666666666666665</ele><time>2026-05-04T13:53:48.62Z</time></trkpt><trkpt lat="43.1466262" lon="17.262861"><ele>1.0</ele><time>2026-05-04T13:53:49.62Z</time></trkpt><trkpt lat="43.1467436" lon="17.2626507"><ele>2.3333333333333335</ele><time>2026-05-04T13:53:50.621Z</time></trkpt><trkpt lat="43.1468857" lon="17.2624525"><ele>3.666666666666667</ele><time>2026-05-04T13:53:51.621Z</time></trkpt><trkpt lat="43.1470424" lon="17.2622718"><ele>5.0</ele><time>2026-05-04T13:53:52.62Z</time></trkpt><trkpt lat="43.1472226" lon="17.2621182"><ele>8.666666666666666</ele><time>2026-05-04T13:53:53.621Z</time></trkpt><trkpt lat="43.1474015" lon="17.2619999"><ele>12.333333333333332</ele><time>2026-05-04T13:53:54.621Z</time></trkpt><trkpt lat="43.1475933" lon="17.2619037"><ele>16.0</ele><time>2026-05-04T13:53:55.621Z</time></trkpt><trkpt lat="43.1477731" lon="17.2618447"><ele>16.0</ele><time>2026-05-04T13:53:56.62Z</time></trkpt><trkpt lat="43.1479704" lon="17.2618171"><ele>16.0</ele><time>2026-05-04T13:53:57.62Z</time></trkpt><trkpt lat="43.1481721" lon="17.2618141"><ele>16.0</ele><time>2026-05-04T13:53:58.621Z</time></trkpt><trkpt lat="43.1483723" lon="17.2618402"><ele>17.666666666666664</ele><time>2026-05-04T13:53:59.621Z</time></trkpt><trkpt lat="43.1485667" lon="17.2618994"><ele>19.333333333333332</ele><time>2026-05-04T13:54:00.621Z</time></trkpt><trkpt lat="43.1487662" lon="17.2619812"><ele>21.0</ele><time>2026-05-04T13:54:01.621Z</time></trkpt><trkpt lat="43.1489798" lon="17.2620978"><ele>15.0</ele><time>2026-05-04T13:54:02.621Z</time></trkpt><trkpt lat="43.1491855" lon="17.262224"><ele>9.0</ele><time>2026-05-04T13:54:03.621Z</time></trkpt><trkpt lat="43.149407" lon="17.2623574"><ele>22.0</ele><time>2026-05-04T13:54:04.62Z</time></trkpt><trkpt lat="43.1496108" lon="17.2625009"><ele>35.0</ele><time>2026-05-04T13:54:05.62Z</time></trkpt><trkpt lat="43.1498067" lon="17.2626453"><ele>28.666666666666664</ele><time>2026-05-04T13:54:06.62Z</time></trkpt><trkpt lat="43.1500022" lon="17.2627768"><ele>22.333333333333332</ele><time>2026-05-04T13:54:07.62Z</time></trkpt><trkpt lat="43.1502006" lon="17.2628959"><ele>16.0</ele><time>2026-05-04T13:54:08.621Z</time></trkpt><trkpt lat="43.1503987" lon="17.2629979"><ele>16.0</ele><time>2026-05-04T13:54:09.62Z</time></trkpt><trkpt lat="43.150592" lon="17.2630677"><ele>16.0</ele><time>2026-05-04T13:54:10.62Z</time></trkpt><trkpt lat="43.1507884" lon="17.263106"><ele>16.0</ele><time>2026-05-04T13:54:11.621Z</time></trkpt><trkpt lat="43.1509759" lon="17.2631192"><ele>13.0</ele><time>2026-05-04T13:54:12.621Z</time></trkpt><trkpt lat="43.1511601" lon="17.2631073"><ele>10.0</ele><time>2026-05-04T13:54:13.62Z</time></trkpt><trkpt lat="43.1513406" lon="17.2630717"><ele>7.0</ele><time>2026-05-04T13:54:14.621Z</time></trkpt><trkpt lat="43.1515176" lon="17.2630063"><ele>10.0</ele><time>2026-05-04T13:54:15.621Z</time></trkpt><trkpt lat="43.1516925" lon="17.2629108"><ele>13.0</ele><time>2026-05-04T13:54:16.62Z</time></trkpt><trkpt lat="43.151855" lon="17.2628035"><ele>16.0</ele><time>2026-05-04T13:54:17.62Z</time></trkpt><trkpt lat="43.1520082" lon="17.2626733"><ele>16.0</ele><time>2026-05-04T13:54:18.621Z</time></trkpt><trkpt lat="43.1521523" lon="17.2625239"><ele>16.0</ele><time>2026-05-04T13:54:19.62Z</time></trkpt><trkpt lat="43.1522836" lon="17.2623493"><ele>16.0</ele><time>2026-05-04T13:54:20.62Z</time></trkpt><trkpt lat="43.1523986" lon="17.2621638"><ele>18.666666666666664</ele><time>2026-05-04T13:54:21.621Z</time></trkpt><trkpt lat="43.1525006" lon="17.261947"><ele>21.333333333333332</ele><time>2026-05-04T13:54:22.621Z</time></trkpt><trkpt lat="43.1525931" lon="17.2617286"><ele>24.0</ele><time>2026-05-04T13:54:23.621Z</time></trkpt><trkpt lat="43.1526721" lon="17.2615012"><ele>22.0</ele><time>2026-05-04T13:54:24.62Z</time></trkpt><trkpt lat="43.1527358" lon="17.2612599"><ele>20.0</ele><time>2026-05-04T13:54:25.62Z</time></trkpt><trkpt lat="43.1527845" lon="17.2610195"><ele>18.0</ele><time>2026-05-04T13:54:26.62Z</time></trkpt><trkpt lat="43.1528109" lon="17.2607688"><ele>16.666666666666668</ele><time>2026-05-04T13:54:27.621Z</time></trkpt><trkpt lat="43.1528136" lon="17.2605216"><ele>15.333333333333334</ele><time>2026-05-04T13:54:28.621Z</time></trkpt><trkpt lat="43.1528023" lon="17.2602671"><ele>14.0</ele><time>2026-05-04T13:54:29.621Z</time></trkpt><trkpt lat="43.1527721" lon="17.2600022"><ele>15.333333333333334</ele><time>2026-05-04T13:54:30.621Z</time></trkpt><trkpt lat="43.1527236" lon="17.2597362"><ele>16.666666666666668</ele><time>2026-05-04T13:54:31.62Z</time></trkpt><trkpt lat="43.1526598" lon="17.2594658"><ele>18.0</ele><time>2026-05-04T13:54:32.62Z</time></trkpt><trkpt lat="43.152589" lon="17.2591941"><ele>15.333333333333334</ele><time>2026-05-04T13:54:33.621Z</time></trkpt><trkpt lat="43.1525086" lon="17.2589272"><ele>12.666666666666668</ele><time>2026-05-04T13:54:34.62Z</time></trkpt><trkpt lat="43.1524277" lon="17.2586654"><ele>10.0</ele><time>2026-05-04T13:54:35.62Z</time></trkpt><trkpt lat="43.1523465" lon="17.2584082"><ele>10.0</ele><time>2026-05-04T13:54:36.621Z</time></trkpt><trkpt lat="43.152265" lon="17.2581571"><ele>10.0</ele><time>2026-05-04T13:54:37.62Z</time></trkpt><trkpt lat="43.1521884" lon="17.2579007"><ele>10.0</ele><time>2026-05-04T13:54:38.621Z</time></trkpt><trkpt lat="43.1521243" lon="17.2576493"><ele>11.0</ele><time>2026-05-04T13:54:39.62Z</time></trkpt><trkpt lat="43.1520736" lon="17.2573867"><ele>12.0</ele><time>2026-05-04T13:54:40.62Z</time></trkpt><trkpt lat="43.1520393" lon="17.2571184"><ele>13.0</ele><time>2026-05-04T13:54:41.621Z</time></trkpt><trkpt lat="43.1520189" lon="17.256841"><ele>14.666666666666666</ele><time>2026-05-04T13:54:42.621Z</time></trkpt><trkpt lat="43.1519986" lon="17.2565564"><ele>16.333333333333332</ele><time>2026-05-04T13:54:43.621Z</time></trkpt><trkpt lat="43.1519734" lon="17.2562663"><ele>18.0</ele><time>2026-05-04T13:54:44.62Z</time></trkpt><trkpt lat="43.1519518" lon="17.2559816"><ele>18.666666666666668</ele><time>2026-05-04T13:54:45.621Z</time></trkpt><trkpt lat="43.1519269" lon="17.2556969"><ele>19.333333333333336</ele><time>2026-05-04T13:54:46.62Z</time></trkpt><trkpt lat="43.1518959" lon="17.255415"><ele>20.0</ele><time>2026-05-04T13:54:47.621Z</time></trkpt><trkpt lat="43.1518548" lon="17.2551418"><ele>22.333333333333336</ele><time>2026-05-04T13:54:48.62Z</time></trkpt><trkpt lat="43.1518118" lon="17.254865"><ele>24.666666666666668</ele><time>2026-05-04T13:54:49.62Z</time></trkpt><trkpt lat="43.1517546" lon="17.2546152"><ele>27.0</ele><time>2026-05-04T13:54:50.621Z</time></trkpt><trkpt lat="43.1516971" lon="17.2543846"><ele>30.333333333333336</ele><time>2026-05-04T13:54:51.621Z</time></trkpt><trkpt lat="43.1516421" lon="17.2541703"><ele>33.66666666666667</ele><time>2026-05-04T13:54:52.621Z</time></trkpt><trkpt lat="43.1515883" lon="17.2539578"><ele>37.0</ele><time>2026-05-04T13:54:53.621Z</time></trkpt><trkpt lat="43.1515496" lon="17.2537426"><ele>40.0</ele><time>2026-05-04T13:54:54.62Z</time></trkpt><trkpt lat="43.151528" lon="17.2535333"><ele>43.0</ele><time>2026-05-04T13:54:55.621Z</time></trkpt><trkpt lat="43.151523" lon="17.2533277"><ele>46.0</ele><time>2026-05-04T13:54:56.62Z</time></trkpt><trkpt lat="43.1515604" lon="17.2531307"><ele>43.333333333333336</ele><time>2026-05-04T13:54:57.62Z</time></trkpt><trkpt lat="43.1515983" lon="17.2529205"><ele>40.666666666666664</ele><time>2026-05-04T13:54:58.618Z</time></trkpt><trkpt lat="43.1516578" lon="17.2527091"><ele>38.0</ele><time>2026-05-04T13:54:59.618Z</time></trkpt><trkpt lat="43.1517465" lon="17.2524807"><ele>31.333333333333332</ele><time>2026-05-04T13:55:00.621Z</time></trkpt><trkpt lat="43.1518329" lon="17.2522692"><ele>24.666666666666664</ele><time>2026-05-04T13:55:01.621Z</time></trkpt><trkpt lat="43.151926" lon="17.252063"><ele>18.0</ele><time>2026-05-04T13:55:02.62Z</time></trkpt><trkpt lat="43.1520365" lon="17.251834"><ele>18.0</ele><time>2026-05-04T13:55:03.62Z</time></trkpt><trkpt lat="43.152154" lon="17.2516214"><ele>18.0</ele><time>2026-05-04T13:55:04.621Z</time></trkpt><trkpt lat="43.1522848" lon="17.251428"><ele>18.0</ele><time>2026-05-04T13:55:05.621Z</time></trkpt><trkpt lat="43.1524387" lon="17.2512477"><ele>20.333333333333336</ele><time>2026-05-04T13:55:06.621Z</time></trkpt><trkpt lat="43.1526027" lon="17.2510888"><ele>22.666666666666668</ele><time>2026-05-04T13:55:07.62Z</time></trkpt><trkpt lat="43.1527678" lon="17.2509498"><ele>25.0</ele><time>2026-05-04T13:55:08.621Z</time></trkpt><trkpt lat="43.1529399" lon="17.2508286"><ele>25.0</ele><time>2026-05-04T13:55:09.62Z</time></trkpt><trkpt lat="43.1531171" lon="17.2507314"><ele>25.0</ele><time>2026-05-04T13:55:10.621Z</time></trkpt><trkpt lat="43.1533041" lon="17.2506556"><ele>25.0</ele><time>2026-05-04T13:55:11.621Z</time></trkpt><trkpt lat="43.1535038" lon="17.2505907"><ele>24.666666666666668</ele><time>2026-05-04T13:55:12.62Z</time></trkpt><trkpt lat="43.1537093" lon="17.2505397"><ele>24.333333333333336</ele><time>2026-05-04T13:55:13.62Z</time></trkpt><trkpt lat="43.1539176" lon="17.2504872"><ele>24.0</ele><time>2026-05-04T13:55:14.62Z</time></trkpt><trkpt lat="43.1541328" lon="17.2504403"><ele>24.0</ele><time>2026-05-04T13:55:15.62Z</time></trkpt><trkpt lat="43.1543435" lon="17.2503913"><ele>24.0</ele><time>2026-05-04T13:55:16.62Z</time></trkpt><trkpt lat="43.1545574" lon="17.2503408"><ele>24.0</ele><time>2026-05-04T13:55:17.62Z</time></trkpt><trkpt lat="43.1547652" lon="17.2502892"><ele>26.0</ele><time>2026-05-04T13:55:18.621Z</time></trkpt><trkpt lat="43.1549709" lon="17.2502315"><ele>28.0</ele><time>2026-05-04T13:55:19.621Z</time></trkpt><trkpt lat="43.1551767" lon="17.2501621"><ele>30.0</ele><time>2026-05-04T13:55:20.621Z</time></trkpt><trkpt lat="43.1553736" lon="17.2500684"><ele>30.0</ele><time>2026-05-04T13:55:21.621Z</time></trkpt><trkpt lat="43.155564" lon="17.2499603"><ele>30.0</ele><time>2026-05-04T13:55:22.621Z</time></trkpt><trkpt lat="43.1557411" lon="17.2498398"><ele>30.0</ele><time>2026-05-04T13:55:23.62Z</time></trkpt><trkpt lat="43.1559076" lon="17.2497061"><ele>25.333333333333332</ele><time>2026-05-04T13:55:24.621Z</time></trkpt><trkpt lat="43.1560609" lon="17.249573"><ele>20.666666666666664</ele><time>2026-05-04T13:55:25.62Z</time></trkpt><trkpt lat="43.1562041" lon="17.2494448"><ele>16.0</ele><time>2026-05-04T13:55:26.621Z</time></trkpt><trkpt lat="43.1563518" lon="17.2493395"><ele>16.0</ele><time>2026-05-04T13:55:27.62Z</time></trkpt><trkpt lat="43.156509" lon="17.2492554"><ele>16.0</ele><time>2026-05-04T13:55:28.62Z</time></trkpt><trkpt lat="43.1566751" lon="17.2491935"><ele>16.0</ele><time>2026-05-04T13:55:29.621Z</time></trkpt><trkpt lat="43.1568449" lon="17.249168"><ele>18.666666666666664</ele><time>2026-05-04T13:55:30.619Z</time></trkpt><trkpt lat="43.1570297" lon="17.2491647"><ele>21.333333333333332</ele><time>2026-05-04T13:55:31.62Z</time></trkpt><trkpt lat="43.1572047" lon="17.2491894"><ele>24.0</ele><time>2026-05-04T13:55:32.621Z</time></trkpt><trkpt lat="43.1573721" lon="17.2492211"><ele>24.0</ele><time>2026-05-04T13:55:33.621Z</time></trkpt><trkpt lat="43.1575322" lon="17.2492386"><ele>24.0</ele><time>2026-05-04T13:55:34.621Z</time></trkpt><trkpt lat="43.1576873" lon="17.2492296"><ele>24.0</ele><time>2026-05-04T13:55:35.621Z</time></trkpt><trkpt lat="43.1578309" lon="17.2491846"><ele>24.0</ele><time>2026-05-04T13:55:36.621Z</time></trkpt><trkpt lat="43.15796" lon="17.2491075"><ele>24.0</ele><time>2026-05-04T13:55:37.62Z</time></trkpt><trkpt lat="43.1580743" lon="17.2489981"><ele>24.0</ele><time>2026-05-04T13:55:38.619Z</time></trkpt><trkpt lat="43.1581701" lon="17.2488584"><ele>24.0</ele><time>2026-05-04T13:55:39.619Z</time></trkpt><trkpt lat="43.1582446" lon="17.2486856"><ele>26.0</ele><time>2026-05-04T13:55:40.62Z</time></trkpt><trkpt lat="43.1582943" lon="17.2484888"><ele>28.0</ele><time>2026-05-04T13:55:41.62Z</time></trkpt><trkpt lat="43.1583076" lon="17.2482687"><ele>30.0</ele><time>2026-05-04T13:55:42.621Z</time></trkpt><trkpt lat="43.1583013" lon="17.2480364"><ele>31.333333333333336</ele><time>2026-05-04T13:55:43.621Z</time></trkpt><trkpt lat="43.1582644" lon="17.2477818"><ele>32.66666666666667</ele><time>2026-05-04T13:55:44.621Z</time></trkpt><trkpt lat="43.1582156" lon="17.2475275"><ele>34.0</ele><time>2026-05-04T13:55:45.621Z</time></trkpt><trkpt lat="43.1581621" lon="17.24727"><ele>29.333333333333336</ele><time>2026-05-04T13:55:46.62Z</time></trkpt><trkpt lat="43.1581075" lon="17.2470049"><ele>24.666666666666668</ele><time>2026-05-04T13:55:47.62Z</time></trkpt><trkpt lat="43.1580536" lon="17.2467407"><ele>20.0</ele><time>2026-05-04T13:55:48.621Z</time></trkpt><trkpt lat="43.1580046" lon="17.246479"><ele>19.0</ele><time>2026-05-04T13:55:49.62Z</time></trkpt><trkpt lat="43.1579587" lon="17.2462256"><ele>18.0</ele><time>2026-05-04T13:55:50.621Z</time></trkpt><trkpt lat="43.1579174" lon="17.245978"><ele>17.0</ele><time>2026-05-04T13:55:51.621Z</time></trkpt><trkpt lat="43.1578939" lon="17.2457112"><ele>15.333333333333334</ele><time>2026-05-04T13:55:52.62Z</time></trkpt><trkpt lat="43.1578904" lon="17.2454372"><ele>13.666666666666668</ele><time>2026-05-04T13:55:53.621Z</time></trkpt><trkpt lat="43.1579087" lon="17.2451621"><ele>12.0</ele><time>2026-05-04T13:55:54.62Z</time></trkpt><trkpt lat="43.1579355" lon="17.2448765"><ele>10.5</ele><time>2026-05-04T13:55:55.618Z</time></trkpt><trkpt lat="43.1579902" lon="17.2445682"><ele>9.0</ele><time>2026-05-04T13:55:56.621Z</time></trkpt><trkpt lat="43.1580479" lon="17.2442635"><ele>9.0</ele><time>2026-05-04T13:55:57.621Z</time></trkpt><trkpt lat="43.1581143" lon="17.2439578"><ele>9.0</ele><time>2026-05-04T13:55:58.62Z</time></trkpt><trkpt lat="43.1581766" lon="17.243634"><ele>17.5</ele><time>2026-05-04T13:55:59.621Z</time></trkpt><trkpt lat="43.1582427" lon="17.2433063"><ele>26.0</ele><time>2026-05-04T13:56:00.62Z</time></trkpt><trkpt lat="43.1583062" lon="17.2429708"><ele>26.0</ele><time>2026-05-04T13:56:01.621Z</time></trkpt><trkpt lat="43.1583713" lon="17.2426388"><ele>26.0</ele><time>2026-05-04T13:56:02.62Z</time></trkpt><trkpt lat="43.1584353" lon="17.2423061"><ele>24.5</ele><time>2026-05-04T13:56:03.62Z</time></trkpt><trkpt lat="43.1584988" lon="17.2419886"><ele>23.0</ele><time>2026-05-04T13:56:04.619Z</time></trkpt><trkpt lat="43.1585679" lon="17.2416896"><ele>23.333333333333336</ele><time>2026-05-04T13:56:05.621Z</time></trkpt><trkpt lat="43.1586461" lon="17.2414307"><ele>23.666666666666668</ele><time>2026-05-04T13:56:06.62Z</time></trkpt><trkpt lat="43.1587359" lon="17.2411719"><ele>24.0</ele><time>2026-05-04T13:56:07.62Z</time></trkpt><trkpt lat="43.1588173" lon="17.2409381"><ele>24.0</ele><time>2026-05-04T13:56:08.621Z</time></trkpt><trkpt lat="43.1588852" lon="17.2407183"><ele>24.0</ele><time>2026-05-04T13:56:09.621Z</time></trkpt><trkpt lat="43.1589289" lon="17.240495"><ele>24.0</ele><time>2026-05-04T13:56:10.62Z</time></trkpt><trkpt lat="43.1589349" lon="17.2402745"><ele>25.666666666666664</ele><time>2026-05-04T13:56:11.621Z</time></trkpt><trkpt lat="43.1589084" lon="17.24006"><ele>27.333333333333332</ele><time>2026-05-04T13:56:12.621Z</time></trkpt><trkpt lat="43.1588367" lon="17.2398626"><ele>29.0</ele><time>2026-05-04T13:56:13.621Z</time></trkpt><trkpt lat="43.1587289" lon="17.2396885"><ele>33.33333333333333</ele><time>2026-05-04T13:56:14.62Z</time></trkpt><trkpt lat="43.1585888" lon="17.2395348"><ele>37.666666666666664</ele><time>2026-05-04T13:56:15.621Z</time></trkpt><trkpt lat="43.1584259" lon="17.2394141"><ele>42.0</ele><time>2026-05-04T13:56:16.621Z</time></trkpt><trkpt lat="43.158265" lon="17.2393208"><ele>41.666666666666664</ele><time>2026-05-04T13:56:17.621Z</time></trkpt><trkpt lat="43.1581121" lon="17.2392307"><ele>41.33333333333333</ele><time>2026-05-04T13:56:18.621Z</time></trkpt><trkpt lat="43.1579757" lon="17.2391139"><ele>41.0</ele><time>2026-05-04T13:56:19.62Z</time></trkpt><trkpt lat="43.1578532" lon="17.2389738"><ele>39.666666666666664</ele><time>2026-05-04T13:56:20.619Z</time></trkpt><trkpt lat="43.157766" lon="17.2387829"><ele>38.333333333333336</ele><time>2026-05-04T13:56:21.62Z</time></trkpt><trkpt lat="43.1577013" lon="17.2385692"><ele>37.0</ele><time>2026-05-04T13:56:22.62Z</time></trkpt><trkpt lat="43.1576537" lon="17.2383507"><ele>33.333333333333336</ele><time>2026-05-04T13:56:23.621Z</time></trkpt><trkpt lat="43.1576685" lon="17.2381216"><ele>29.666666666666664</ele><time>2026-05-04T13:56:24.62Z</time></trkpt><trkpt lat="43.1577075" lon="17.2378778"><ele>26.0</ele><time>2026-05-04T13:56:25.621Z</time></trkpt><trkpt lat="43.1577824" lon="17.2376386"><ele>26.0</ele><time>2026-05-04T13:56:26.621Z</time></trkpt><trkpt lat="43.1578644" lon="17.2373909"><ele>26.0</ele><time>2026-05-04T13:56:27.62Z</time></trkpt><trkpt lat="43.1579992" lon="17.2371174"><ele>26.0</ele><time>2026-05-04T13:56:28.621Z</time></trkpt><trkpt lat="43.1581224" lon="17.2368556"><ele>28.666666666666664</ele><time>2026-05-04T13:56:29.62Z</time></trkpt><trkpt lat="43.1582456" lon="17.2365912"><ele>31.333333333333336</ele><time>2026-05-04T13:56:30.62Z</time></trkpt><trkpt lat="43.1583643" lon="17.236342"><ele>34.0</ele><time>2026-05-04T13:56:31.62Z</time></trkpt><trkpt lat="43.158474" lon="17.2361095"><ele>34.0</ele><time>2026-05-04T13:56:32.621Z</time></trkpt><trkpt lat="43.1585581" lon="17.2358906"><ele>34.0</ele><time>2026-05-04T13:56:33.621Z</time></trkpt><trkpt lat="43.1586149" lon="17.2356589"><ele>34.0</ele><time>2026-05-04T13:56:34.621Z</time></trkpt><trkpt lat="43.1586443" lon="17.2354266"><ele>34.0</ele><time>2026-05-04T13:56:35.621Z</time></trkpt><trkpt lat="43.1586404" lon="17.2351964"><ele>34.0</ele><time>2026-05-04T13:56:36.621Z</time></trkpt><trkpt lat="43.1585927" lon="17.2349668"><ele>34.0</ele><time>2026-05-04T13:56:37.621Z</time></trkpt><trkpt lat="43.1585116" lon="17.2347516"><ele>32.0</ele><time>2026-05-04T13:56:38.621Z</time></trkpt><trkpt lat="43.1583947" lon="17.2345568"><ele>30.0</ele><time>2026-05-04T13:56:39.621Z</time></trkpt><trkpt lat="43.1582589" lon="17.2343841"><ele>28.0</ele><time>2026-05-04T13:56:40.621Z</time></trkpt><trkpt lat="43.1581133" lon="17.2342296"><ele>28.0</ele><time>2026-05-04T13:56:41.621Z</time></trkpt><trkpt lat="43.1579728" lon="17.2340812"><ele>28.0</ele><time>2026-05-04T13:56:42.62Z</time></trkpt><trkpt lat="43.1578514" lon="17.2339206"><ele>28.0</ele><time>2026-05-04T13:56:43.619Z</time></trkpt><trkpt lat="43.1577484" lon="17.233738"><ele>28.666666666666668</ele><time>2026-05-04T13:56:44.619Z</time></trkpt><trkpt lat="43.1576485" lon="17.2335254"><ele>29.333333333333336</ele><time>2026-05-04T13:56:45.621Z</time></trkpt><trkpt lat="43.1576002" lon="17.2332997"><ele>30.0</ele><time>2026-05-04T13:56:46.62Z</time></trkpt><trkpt lat="43.1575552" lon="17.2330648"><ele>30.0</ele><time>2026-05-04T13:56:47.621Z</time></trkpt><trkpt lat="43.1575307" lon="17.2328188"><ele>30.0</ele><time>2026-05-04T13:56:48.62Z</time></trkpt><trkpt lat="43.1575092" lon="17.2325703"><ele>30.0</ele><time>2026-05-04T13:56:49.621Z</time></trkpt><trkpt lat="43.1576228" lon="17.232345"><ele>25.666666666666668</ele><time>2026-05-04T13:56:50.62Z</time></trkpt><trkpt lat="43.1576892" lon="17.232093"><ele>21.333333333333336</ele><time>2026-05-04T13:56:51.62Z</time></trkpt><trkpt lat="43.157794" lon="17.2318603"><ele>17.0</ele><time>2026-05-04T13:56:52.618Z</time></trkpt><trkpt lat="43.1579027" lon="17.2316474"><ele>14.0</ele><time>2026-05-04T13:56:53.621Z</time></trkpt><trkpt lat="43.1580191" lon="17.2314339"><ele>11.0</ele><time>2026-05-04T13:56:54.62Z</time></trkpt><trkpt lat="43.1581494" lon="17.2312263"><ele>8.0</ele><time>2026-05-04T13:56:55.621Z</time></trkpt><trkpt lat="43.1582879" lon="17.2310106"><ele>8.333333333333332</ele><time>2026-05-04T13:56:56.618Z</time></trkpt><trkpt lat="43.1584358" lon="17.2307941"><ele>8.666666666666666</ele><time>2026-05-04T13:56:57.62Z</time></trkpt><trkpt lat="43.1585908" lon="17.2305809"><ele>9.0</ele><time>2026-05-04T13:56:58.62Z</time></trkpt><trkpt lat="43.1587446" lon="17.2303809"><ele>9.0</ele><time>2026-05-04T13:56:59.619Z</time></trkpt><trkpt lat="43.1589139" lon="17.230187"><ele>9.0</ele><time>2026-05-04T13:57:00.621Z</time></trkpt><trkpt lat="43.1590861" lon="17.2300214"><ele>9.0</ele><time>2026-05-04T13:57:01.621Z</time></trkpt><trkpt lat="43.1592684" lon="17.2298771"><ele>8.333333333333334</ele><time>2026-05-04T13:57:02.62Z</time></trkpt><trkpt lat="43.1594592" lon="17.2297381"><ele>7.666666666666667</ele><time>2026-05-04T13:57:03.621Z</time></trkpt><trkpt lat="43.159667" lon="17.2296183"><ele>7.0</ele><time>2026-05-04T13:57:04.62Z</time></trkpt><trkpt lat="43.159877" lon="17.2295137"><ele>11.0</ele><time>2026-05-04T13:57:05.62Z</time></trkpt><trkpt lat="43.160099" lon="17.2294409"><ele>15.0</ele><time>2026-05-04T13:57:06.621Z</time></trkpt><trkpt lat="43.1603177" lon="17.2293893"><ele>15.0</ele><time>2026-05-04T13:57:07.621Z</time></trkpt><trkpt lat="43.1605475" lon="17.2293645"><ele>15.0</ele><time>2026-05-04T13:57:08.621Z</time></trkpt><trkpt lat="43.1607709" lon="17.2293516"><ele>14.0</ele><time>2026-05-04T13:57:09.618Z</time></trkpt><trkpt lat="43.160987" lon="17.2293572"><ele>13.0</ele><time>2026-05-04T13:57:10.621Z</time></trkpt><trkpt lat="43.1611965" lon="17.2293815"><ele>12.0</ele><time>2026-05-04T13:57:11.621Z</time></trkpt><trkpt lat="43.161393" lon="17.2293954"><ele>11.333333333333334</ele><time>2026-05-04T13:57:12.621Z</time></trkpt><trkpt lat="43.1615898" lon="17.2294086"><ele>10.666666666666668</ele><time>2026-05-04T13:57:13.621Z</time></trkpt><trkpt lat="43.1617617" lon="17.229413"><ele>10.0</ele><time>2026-05-04T13:57:14.621Z</time></trkpt><trkpt lat="43.1619393" lon="17.2293985"><ele>10.0</ele><time>2026-05-04T13:57:15.619Z</time></trkpt><trkpt lat="43.1620986" lon="17.2293638"><ele>10.0</ele><time>2026-05-04T13:57:16.621Z</time></trkpt><trkpt lat="43.1622532" lon="17.2292852"><ele>10.0</ele><time>2026-05-04T13:57:17.62Z</time></trkpt><trkpt lat="43.16239" lon="17.2291714"><ele>12.0</ele><time>2026-05-04T13:57:18.62Z</time></trkpt><trkpt lat="43.1625014" lon="17.2290376"><ele>14.0</ele><time>2026-05-04T13:57:19.62Z</time></trkpt><trkpt lat="43.1625707" lon="17.2288437"><ele>16.0</ele><time>2026-05-04T13:57:20.619Z</time></trkpt><trkpt lat="43.1626196" lon="17.2286311"><ele>16.0</ele><time>2026-05-04T13:57:21.621Z</time></trkpt><trkpt lat="43.1626304" lon="17.2284042"><ele>16.0</ele><time>2026-05-04T13:57:22.621Z</time></trkpt><trkpt lat="43.1626067" lon="17.2281587"><ele>16.0</ele><time>2026-05-04T13:57:23.62Z</time></trkpt><trkpt lat="43.1625487" lon="17.2278986"><ele>14.333333333333332</ele><time>2026-05-04T13:57:24.621Z</time></trkpt><trkpt lat="43.1624639" lon="17.2276504"><ele>12.666666666666666</ele><time>2026-05-04T13:57:25.62Z</time></trkpt><trkpt lat="43.1623624" lon="17.2274066"><ele>11.0</ele><time>2026-05-04T13:57:26.621Z</time></trkpt><trkpt lat="43.1622499" lon="17.2271544"><ele>11.0</ele><time>2026-05-04T13:57:27.621Z</time></trkpt><trkpt lat="43.162138" lon="17.2268989"><ele>11.0</ele><time>2026-05-04T13:57:28.621Z</time></trkpt><trkpt lat="43.1620412" lon="17.2266503"><ele>11.0</ele><time>2026-05-04T13:57:29.62Z</time></trkpt><trkpt lat="43.1619608" lon="17.2264029"><ele>11.0</ele><time>2026-05-04T13:57:30.62Z</time></trkpt><trkpt lat="43.1619055" lon="17.2261605"><ele>11.0</ele><time>2026-05-04T13:57:31.621Z</time></trkpt><trkpt lat="43.1618707" lon="17.2259204"><ele>11.0</ele><time>2026-05-04T13:57:32.619Z</time></trkpt><trkpt lat="43.1618619" lon="17.2256784"><ele>9.666666666666666</ele><time>2026-05-04T13:57:33.621Z</time></trkpt><trkpt lat="43.1618866" lon="17.2254302"><ele>8.333333333333334</ele><time>2026-05-04T13:57:34.621Z</time></trkpt><trkpt lat="43.1619451" lon="17.225208"><ele>7.0</ele><time>2026-05-04T13:57:35.619Z</time></trkpt><trkpt lat="43.1620185" lon="17.2249945"><ele>7.666666666666667</ele><time>2026-05-04T13:57:36.62Z</time></trkpt><trkpt lat="43.1621358" lon="17.22479"><ele>8.333333333333334</ele><time>2026-05-04T13:57:37.621Z</time></trkpt><trkpt lat="43.1622761" lon="17.224598"><ele>9.0</ele><time>2026-05-04T13:57:38.621Z</time></trkpt><trkpt lat="43.1624273" lon="17.2244242"><ele>9.0</ele><time>2026-05-04T13:57:39.621Z</time></trkpt><trkpt lat="43.1625927" lon="17.224268"><ele>9.0</ele><time>2026-05-04T13:57:40.619Z</time></trkpt><trkpt lat="43.162772" lon="17.2241407"><ele>9.0</ele><time>2026-05-04T13:57:41.62Z</time></trkpt><trkpt lat="43.1629675" lon="17.2240511"><ele>9.0</ele><time>2026-05-04T13:57:42.621Z</time></trkpt><trkpt lat="43.163172" lon="17.2239847"><ele>9.0</ele><time>2026-05-04T13:57:43.62Z</time></trkpt><trkpt lat="43.1633814" lon="17.2239519"><ele>9.0</ele><time>2026-05-04T13:57:44.621Z</time></trkpt><trkpt lat="43.1635808" lon="17.2239382"><ele>9.0</ele><time>2026-05-04T13:57:45.62Z</time></trkpt><trkpt lat="43.1637733" lon="17.2239306"><ele>9.0</ele><time>2026-05-04T13:57:46.62Z</time></trkpt><trkpt lat="43.1639508" lon="17.2239117"><ele>9.0</ele><time>2026-05-04T13:57:47.619Z</time></trkpt><trkpt lat="43.1641221" lon="17.2238629"><ele>9.0</ele><time>2026-05-04T13:57:48.621Z</time></trkpt><trkpt lat="43.1642972" lon="17.2237701"><ele>9.0</ele><time>2026-05-04T13:57:49.62Z</time></trkpt><trkpt lat="43.1644727" lon="17.2236352"><ele>9.0</ele><time>2026-05-04T13:57:50.62Z</time></trkpt><trkpt lat="43.1646251" lon="17.2235036"><ele>9.0</ele><time>2026-05-04T13:57:51.621Z</time></trkpt><trkpt lat="43.1647595" lon="17.2233701"><ele>9.0</ele><time>2026-05-04T13:57:52.62Z</time></trkpt><trkpt lat="43.164887" lon="17.2232297"><ele>9.0</ele><time>2026-05-04T13:57:53.62Z</time></trkpt><trkpt lat="43.164985" lon="17.2230926"><ele>11.333333333333332</ele><time>2026-05-04T13:57:54.62Z</time></trkpt><trkpt lat="43.1650548" lon="17.2229123"><ele>13.666666666666666</ele><time>2026-05-04T13:57:55.621Z</time></trkpt><trkpt lat="43.1650936" lon="17.2227127"><ele>16.0</ele><time>2026-05-04T13:57:56.621Z</time></trkpt><trkpt lat="43.1650922" lon="17.2224977"><ele>20.0</ele><time>2026-05-04T13:57:57.621Z</time></trkpt><trkpt lat="43.1650635" lon="17.222272"><ele>24.0</ele><time>2026-05-04T13:57:58.621Z</time></trkpt><trkpt lat="43.1649848" lon="17.2220447"><ele>28.0</ele><time>2026-05-04T13:57:59.62Z</time></trkpt><trkpt lat="43.1648725" lon="17.2218076"><ele>20.5</ele><time>2026-05-04T13:58:00.621Z</time></trkpt><trkpt lat="43.16472" lon="17.2215681"><ele>13.0</ele><time>2026-05-04T13:58:01.621Z</time></trkpt><trkpt lat="43.1645573" lon="17.2213329"><ele>13.0</ele><time>2026-05-04T13:58:02.62Z</time></trkpt><trkpt lat="43.1644026" lon="17.2210745"><ele>13.0</ele><time>2026-05-04T13:58:03.62Z</time></trkpt><trkpt lat="43.1642674" lon="17.2208082"><ele>17.5</ele><time>2026-05-04T13:58:04.621Z</time></trkpt><trkpt lat="43.1641644" lon="17.220521"><ele>22.0</ele><time>2026-05-04T13:58:05.62Z</time></trkpt><trkpt lat="43.1640943" lon="17.2202322"><ele>22.0</ele><time>2026-05-04T13:58:06.62Z</time></trkpt><trkpt lat="43.1640464" lon="17.2199472"><ele>22.0</ele><time>2026-05-04T13:58:07.62Z</time></trkpt><trkpt lat="43.1639936" lon="17.21966"><ele>22.0</ele><time>2026-05-04T13:58:08.616Z</time></trkpt><trkpt lat="43.1640313" lon="17.2193838"><ele>23.0</ele><time>2026-05-04T13:58:09.621Z</time></trkpt><trkpt lat="43.1640645" lon="17.2191108"><ele>24.0</ele><time>2026-05-04T13:58:10.62Z</time></trkpt><trkpt lat="43.1641221" lon="17.2188479"><ele>25.0</ele><time>2026-05-04T13:58:11.621Z</time></trkpt><trkpt lat="43.1642005" lon="17.218591"><ele>22.333333333333336</ele><time>2026-05-04T13:58:12.618Z</time></trkpt><trkpt lat="43.164293" lon="17.2183528"><ele>19.666666666666668</ele><time>2026-05-04T13:58:13.618Z</time></trkpt><trkpt lat="43.1644169" lon="17.2181211"><ele>17.0</ele><time>2026-05-04T13:58:14.621Z</time></trkpt><trkpt lat="43.1645537" lon="17.2179068"><ele>19.333333333333336</ele><time>2026-05-04T13:58:15.621Z</time></trkpt><trkpt lat="43.1647085" lon="17.2177098"><ele>21.666666666666668</ele><time>2026-05-04T13:58:16.621Z</time></trkpt><trkpt lat="43.1648727" lon="17.2175303"><ele>24.0</ele><time>2026-05-04T13:58:17.621Z</time></trkpt><trkpt lat="43.165035" lon="17.2173538"><ele>20.0</ele><time>2026-05-04T13:58:18.62Z</time></trkpt><trkpt lat="43.1651707" lon="17.2171457"><ele>16.0</ele><time>2026-05-04T13:58:19.618Z</time></trkpt><trkpt lat="43.1652887" lon="17.2168751"><ele>12.0</ele><time>2026-05-04T13:58:20.621Z</time></trkpt><trkpt lat="43.1653835" lon="17.2165622"><ele>10.0</ele><time>2026-05-04T13:58:21.621Z</time></trkpt><trkpt lat="43.1654678" lon="17.2162113"><ele>8.0</ele><time>2026-05-04T13:58:22.618Z</time></trkpt><trkpt lat="43.1655509" lon="17.2158328"><ele>8.0</ele><time>2026-05-04T13:58:23.62Z</time></trkpt><trkpt lat="43.1656493" lon="17.2154165"><ele>8.0</ele><time>2026-05-04T13:58:24.62Z</time></trkpt><trkpt lat="43.1657473" lon="17.2149809"><ele>14.5</ele><time>2026-05-04T13:58:25.621Z</time></trkpt><trkpt lat="43.1658488" lon="17.2145396"><ele>21.0</ele><time>2026-05-04T13:58:26.62Z</time></trkpt><trkpt lat="43.1659438" lon="17.2141255"><ele>18.5</ele><time>2026-05-04T13:58:27.62Z</time></trkpt><trkpt lat="43.1660324" lon="17.2137521"><ele>16.0</ele><time>2026-05-04T13:58:28.621Z</time></trkpt><trkpt lat="43.1661175" lon="17.2134115"><ele>11.5</ele><time>2026-05-04T13:58:29.619Z</time></trkpt><trkpt lat="43.1662084" lon="17.2130997"><ele>7.0</ele><time>2026-05-04T13:58:30.618Z</time></trkpt><trkpt lat="43.1663176" lon="17.2128186"><ele>7.0</ele><time>2026-05-04T13:58:31.62Z</time></trkpt><trkpt lat="43.1664507" lon="17.2125575"><ele>7.0</ele><time>2026-05-04T13:58:32.621Z</time></trkpt><trkpt lat="43.1666017" lon="17.2122931"><ele>11.5</ele><time>2026-05-04T13:58:33.62Z</time></trkpt><trkpt lat="43.1667971" lon="17.2120434"><ele>16.0</ele><time>2026-05-04T13:58:34.618Z</time></trkpt><trkpt lat="43.1669882" lon="17.211803"><ele>16.0</ele><time>2026-05-04T13:58:35.618Z</time></trkpt><trkpt lat="43.1671738" lon="17.2115757"><ele>16.0</ele><time>2026-05-04T13:58:36.62Z</time></trkpt><trkpt lat="43.1673608" lon="17.2113513"><ele>19.5</ele><time>2026-05-04T13:58:37.619Z</time></trkpt><trkpt lat="43.1675409" lon="17.2111339"><ele>23.0</ele><time>2026-05-04T13:58:38.62Z</time></trkpt><trkpt lat="43.1677121" lon="17.2109169"><ele>23.0</ele><time>2026-05-04T13:58:39.618Z</time></trkpt><trkpt lat="43.167874" lon="17.2106836"><ele>23.0</ele><time>2026-05-04T13:58:40.62Z</time></trkpt><trkpt lat="43.1680322" lon="17.2104463"><ele>23.0</ele><time>2026-05-04T13:58:41.621Z</time></trkpt><trkpt lat="43.1681688" lon="17.210197"><ele>23.0</ele><time>2026-05-04T13:58:42.62Z</time></trkpt><trkpt lat="43.1682922" lon="17.2099457"><ele>23.0</ele><time>2026-05-04T13:58:43.621Z</time></trkpt><trkpt lat="43.1683966" lon="17.2096935"><ele>21.0</ele><time>2026-05-04T13:58:44.62Z</time></trkpt><trkpt lat="43.1684823" lon="17.2094384"><ele>19.0</ele><time>2026-05-04T13:58:45.621Z</time></trkpt><trkpt lat="43.1685539" lon="17.2091878"><ele>17.0</ele><time>2026-05-04T13:58:46.619Z</time></trkpt><trkpt lat="43.1686178" lon="17.208928"><ele>16.666666666666668</ele><time>2026-05-04T13:58:47.62Z</time></trkpt><trkpt lat="43.1686655" lon="17.2086751"><ele>16.333333333333332</ele><time>2026-05-04T13:58:48.621Z</time></trkpt><trkpt lat="43.1687079" lon="17.2084274"><ele>16.0</ele><time>2026-05-04T13:58:49.621Z</time></trkpt><trkpt lat="43.1687543" lon="17.2081911"><ele>14.333333333333332</ele><time>2026-05-04T13:58:50.621Z</time></trkpt><trkpt lat="43.1687986" lon="17.2079569"><ele>12.666666666666666</ele><time>2026-05-04T13:58:51.617Z</time></trkpt><trkpt lat="43.1688475" lon="17.20772"><ele>11.0</ele><time>2026-05-04T13:58:52.618Z</time></trkpt><trkpt lat="43.168901" lon="17.20749"><ele>10.0</ele><time>2026-05-04T13:58:53.619Z</time></trkpt><trkpt lat="43.168956" lon="17.2072604"><ele>9.0</ele><time>2026-05-04T13:58:54.62Z</time></trkpt><trkpt lat="43.1690148" lon="17.2070363"><ele>8.0</ele><time>2026-05-04T13:58:55.618Z</time></trkpt><trkpt lat="43.1690779" lon="17.2068037"><ele>11.0</ele><time>2026-05-04T13:58:56.621Z</time></trkpt><trkpt lat="43.1691682" lon="17.2065704"><ele>14.0</ele><time>2026-05-04T13:58:57.62Z</time></trkpt><trkpt lat="43.1692532" lon="17.2063376"><ele>17.0</ele><time>2026-05-04T13:58:58.62Z</time></trkpt><trkpt lat="43.1693417" lon="17.2061048"><ele>17.0</ele><time>2026-05-04T13:58:59.62Z</time></trkpt><trkpt lat="43.1694315" lon="17.2058748"><ele>17.0</ele><time>2026-05-04T13:59:00.619Z</time></trkpt><trkpt lat="43.1695233" lon="17.2056509"><ele>17.0</ele><time>2026-05-04T13:59:01.619Z</time></trkpt><trkpt lat="43.1696174" lon="17.2054212"><ele>17.666666666666668</ele><time>2026-05-04T13:59:02.621Z</time></trkpt><trkpt lat="43.16972" lon="17.2051765"><ele>18.333333333333332</ele><time>2026-05-04T13:59:03.621Z</time></trkpt><trkpt lat="43.1698314" lon="17.2049354"><ele>19.0</ele><time>2026-05-04T13:59:04.621Z</time></trkpt><trkpt lat="43.1699403" lon="17.2046826"><ele>19.0</ele><time>2026-05-04T13:59:05.62Z</time></trkpt><trkpt lat="43.1700376" lon="17.204427"><ele>19.0</ele><time>2026-05-04T13:59:06.621Z</time></trkpt><trkpt lat="43.1701534" lon="17.2041729"><ele>19.0</ele><time>2026-05-04T13:59:07.62Z</time></trkpt><trkpt lat="43.1702554" lon="17.2039196"><ele>15.666666666666666</ele><time>2026-05-04T13:59:08.621Z</time></trkpt><trkpt lat="43.1703554" lon="17.2036615"><ele>12.333333333333332</ele><time>2026-05-04T13:59:09.62Z</time></trkpt><trkpt lat="43.170453" lon="17.2033993"><ele>9.0</ele><time>2026-05-04T13:59:10.621Z</time></trkpt><trkpt lat="43.1705472" lon="17.2031482"><ele>8.333333333333334</ele><time>2026-05-04T13:59:11.62Z</time></trkpt><trkpt lat="43.1706415" lon="17.2028937"><ele>7.666666666666667</ele><time>2026-05-04T13:59:12.619Z</time></trkpt><trkpt lat="43.1707357" lon="17.2026381"><ele>7.0</ele><time>2026-05-04T13:59:13.621Z</time></trkpt><trkpt lat="43.1708252" lon="17.2023764"><ele>10.666666666666668</ele><time>2026-05-04T13:59:14.62Z</time></trkpt><trkpt lat="43.1709135" lon="17.2021123"><ele>14.333333333333334</ele><time>2026-05-04T13:59:15.62Z</time></trkpt><trkpt lat="43.1709958" lon="17.2018435"><ele>18.0</ele><time>2026-05-04T13:59:16.621Z</time></trkpt><trkpt lat="43.1710827" lon="17.2015745"><ele>16.0</ele><time>2026-05-04T13:59:17.62Z</time></trkpt><trkpt lat="43.1711673" lon="17.2013018"><ele>14.0</ele><time>2026-05-04T13:59:18.619Z</time></trkpt><trkpt lat="43.1712501" lon="17.2010292"><ele>12.0</ele><time>2026-05-04T13:59:19.621Z</time></trkpt><trkpt lat="43.1713298" lon="17.2007568"><ele>11.0</ele><time>2026-05-04T13:59:20.62Z</time></trkpt><trkpt lat="43.1714066" lon="17.2004842"><ele>10.0</ele><time>2026-05-04T13:59:21.621Z</time></trkpt><trkpt lat="43.1714854" lon="17.2002126"><ele>9.0</ele><time>2026-05-04T13:59:22.619Z</time></trkpt><trkpt lat="43.1715619" lon="17.1999327"><ele>11.0</ele><time>2026-05-04T13:59:23.619Z</time></trkpt><trkpt lat="43.1716342" lon="17.1996541"><ele>13.0</ele><time>2026-05-04T13:59:24.62Z</time></trkpt><trkpt lat="43.1717008" lon="17.19938"><ele>15.0</ele><time>2026-05-04T13:59:25.62Z</time></trkpt><trkpt lat="43.1717636" lon="17.1991136"><ele>14.0</ele><time>2026-05-04T13:59:26.621Z</time></trkpt><trkpt lat="43.1718155" lon="17.1988541"><ele>13.0</ele><time>2026-05-04T13:59:27.62Z</time></trkpt><trkpt lat="43.1718522" lon="17.1985954"><ele>12.0</ele><time>2026-05-04T13:59:28.621Z</time></trkpt><trkpt lat="43.1718687" lon="17.1983429"><ele>13.0</ele><time>2026-05-04T13:59:29.621Z</time></trkpt><trkpt lat="43.171862" lon="17.1980993"><ele>14.0</ele><time>2026-05-04T13:59:30.62Z</time></trkpt><trkpt lat="43.1718551" lon="17.1978523"><ele>15.0</ele><time>2026-05-04T13:59:31.62Z</time></trkpt><trkpt lat="43.1718118" lon="17.1976079"><ele>15.0</ele><time>2026-05-04T13:59:32.619Z</time></trkpt><trkpt lat="43.1717537" lon="17.1973482"><ele>15.0</ele><time>2026-05-04T13:59:33.621Z</time></trkpt><trkpt lat="43.1716755" lon="17.1970924"><ele>15.0</ele><time>2026-05-04T13:59:34.62Z</time></trkpt><trkpt lat="43.1715791" lon="17.1968422"><ele>15.0</ele><time>2026-05-04T13:59:35.621Z</time></trkpt><trkpt lat="43.1714838" lon="17.1966007"><ele>15.0</ele><time>2026-05-04T13:59:36.619Z</time></trkpt><trkpt lat="43.1713849" lon="17.1963641"><ele>15.0</ele><time>2026-05-04T13:59:37.621Z</time></trkpt><trkpt lat="43.171296" lon="17.1961304"><ele>16.0</ele><time>2026-05-04T13:59:38.62Z</time></trkpt><trkpt lat="43.171222" lon="17.1958996"><ele>17.0</ele><time>2026-05-04T13:59:39.619Z</time></trkpt><trkpt lat="43.1711567" lon="17.1956733"><ele>18.0</ele><time>2026-05-04T13:59:40.617Z</time></trkpt><trkpt lat="43.1711032" lon="17.1954627"><ele>18.5</ele><time>2026-05-04T13:59:41.62Z</time></trkpt><trkpt lat="43.1710644" lon="17.1952623"><ele>19.0</ele><time>2026-05-04T13:59:42.62Z</time></trkpt><trkpt lat="43.171044" lon="17.1950638"><ele>19.5</ele><time>2026-05-04T13:59:43.618Z</time></trkpt><trkpt lat="43.1710317" lon="17.194876"><ele>20.0</ele><time>2026-05-04T13:59:44.621Z</time></trkpt><trkpt lat="43.1710272" lon="17.1946856"><ele>20.0</ele><time>2026-05-04T13:59:45.619Z</time></trkpt><trkpt lat="43.1710336" lon="17.1944922"><ele>20.0</ele><time>2026-05-04T13:59:46.619Z</time></trkpt><trkpt lat="43.1710502" lon="17.1943015"><ele>20.0</ele><time>2026-05-04T13:59:47.621Z</time></trkpt><trkpt lat="43.171075" lon="17.1941129"><ele>20.0</ele><time>2026-05-04T13:59:48.62Z</time></trkpt><trkpt lat="43.1711078" lon="17.1939283"><ele>20.0</ele><time>2026-05-04T13:59:49.621Z</time></trkpt><trkpt lat="43.1711461" lon="17.1937447"><ele>20.0</ele><time>2026-05-04T13:59:50.62Z</time></trkpt><trkpt lat="43.1711911" lon="17.1935781"><ele>20.0</ele><time>2026-05-04T13:59:51.619Z</time></trkpt><trkpt lat="43.1712447" lon="17.193414"><ele>20.0</ele><time>2026-05-04T13:59:52.62Z</time></trkpt><trkpt lat="43.171306" lon="17.1932656"><ele>20.5</ele><time>2026-05-04T13:59:53.619Z</time></trkpt><trkpt lat="43.1713705" lon="17.1931196"><ele>21.0</ele><time>2026-05-04T13:59:54.621Z</time></trkpt><trkpt lat="43.1714379" lon="17.1929923"><ele>21.5</ele><time>2026-05-04T13:59:55.619Z</time></trkpt><trkpt lat="43.1715211" lon="17.1928681"><ele>22.0</ele><time>2026-05-04T13:59:56.621Z</time></trkpt><trkpt lat="43.1716025" lon="17.1927548"><ele>24.0</ele><time>2026-05-04T13:59:57.62Z</time></trkpt><trkpt lat="43.1716904" lon="17.1926356"><ele>26.0</ele><time>2026-05-04T13:59:58.621Z</time></trkpt><trkpt lat="43.1717831" lon="17.1925335"><ele>28.0</ele><time>2026-05-04T13:59:59.62Z</time></trkpt><trkpt lat="43.1718737" lon="17.1924305"><ele>30.0</ele><time>2026-05-04T14:00:00.62Z</time></trkpt><trkpt lat="43.1719689" lon="17.1923333"><ele>30.0</ele><time>2026-05-04T14:00:01.618Z</time></trkpt><trkpt lat="43.1720569" lon="17.1922435"><ele>30.0</ele><time>2026-05-04T14:00:02.62Z</time></trkpt><trkpt lat="43.1721418" lon="17.1921706"><ele>30.0</ele><time>2026-05-04T14:00:03.62Z</time></trkpt><trkpt lat="43.172216" lon="17.1921183"><ele>30.0</ele><time>2026-05-04T14:00:04.621Z</time></trkpt><trkpt lat="43.1722883" lon="17.1920791"><ele>30.0</ele><time>2026-05-04T14:00:05.619Z</time></trkpt><trkpt lat="43.1723492" lon="17.1920524"><ele>30.0</ele><time>2026-05-04T14:00:06.62Z</time></trkpt><trkpt lat="43.172429" lon="17.1919983"><ele>31.6</ele><time>2026-05-04T14:00:08.621Z</time></trkpt><trkpt lat="43.1724684" lon="17.1919005"><ele>33.2</ele><time>2026-05-04T14:10:23.615Z</time></trkpt><trkpt lat="43.1725823" lon="17.1917923"><ele>34.8</ele><time>2026-05-04T14:10:25.615Z</time></trkpt><trkpt lat="43.1726645" lon="17.19173"><ele>36.4</ele><time>2026-05-04T14:10:26.615Z</time></trkpt><trkpt lat="43.1727561" lon="17.1916511"><ele>38.0</ele><time>2026-05-04T14:10:27.616Z</time></trkpt><trkpt lat="43.1728752" lon="17.191562"><ele>38.0</ele><time>2026-05-04T14:10:28.615Z</time></trkpt><trkpt lat="43.172995" lon="17.1914288"><ele>38.0</ele><time>2026-05-04T14:10:29.616Z</time></trkpt><trkpt lat="43.1731326" lon="17.1912878"><ele>38.0</ele><time>2026-05-04T14:10:30.616Z</time></trkpt><trkpt lat="43.1732582" lon="17.1911297"><ele>38.0</ele><time>2026-05-04T14:10:31.616Z</time></trkpt><trkpt lat="43.1733781" lon="17.1909522"><ele>38.0</ele><time>2026-05-04T14:10:32.616Z</time></trkpt><trkpt lat="43.1734954" lon="17.190772"><ele>38.0</ele><time>2026-05-04T14:10:33.615Z</time></trkpt><trkpt lat="43.1736098" lon="17.1905609"><ele>36.33333333333333</ele><time>2026-05-04T14:10:34.615Z</time></trkpt><trkpt lat="43.1737082" lon="17.19033"><ele>34.666666666666664</ele><time>2026-05-04T14:10:35.616Z</time></trkpt><trkpt lat="43.1737898" lon="17.1900715"><ele>33.0</ele><time>2026-05-04T14:10:36.615Z</time></trkpt><trkpt lat="43.1738533" lon="17.1898076"><ele>33.0</ele><time>2026-05-04T14:10:37.615Z</time></trkpt><trkpt lat="43.1739006" lon="17.1895418"><ele>33.0</ele><time>2026-05-04T14:10:38.615Z</time></trkpt><trkpt lat="43.1739339" lon="17.1892608"><ele>33.0</ele><time>2026-05-04T14:10:39.616Z</time></trkpt><trkpt lat="43.1739449" lon="17.1889827"><ele>33.666666666666664</ele><time>2026-05-04T14:10:40.616Z</time></trkpt><trkpt lat="43.1739334" lon="17.1887022"><ele>34.33333333333333</ele><time>2026-05-04T14:10:41.616Z</time></trkpt><trkpt lat="43.1739043" lon="17.1884173"><ele>35.0</ele><time>2026-05-04T14:10:42.615Z</time></trkpt><trkpt lat="43.1738422" lon="17.1881386"><ele>36.33333333333333</ele><time>2026-05-04T14:10:43.616Z</time></trkpt><trkpt lat="43.1737676" lon="17.1878655"><ele>37.666666666666664</ele><time>2026-05-04T14:10:44.615Z</time></trkpt><trkpt lat="43.1736713" lon="17.1875933"><ele>39.0</ele><time>2026-05-04T14:10:45.616Z</time></trkpt><trkpt lat="43.1735646" lon="17.1873317"><ele>43.0</ele><time>2026-05-04T14:10:46.615Z</time></trkpt><trkpt lat="43.1734557" lon="17.1870727"><ele>47.0</ele><time>2026-05-04T14:10:47.615Z</time></trkpt><trkpt lat="43.1733506" lon="17.1868123"><ele>51.0</ele><time>2026-05-04T14:10:48.615Z</time></trkpt><trkpt lat="43.1732623" lon="17.1865515"><ele>53.66666666666667</ele><time>2026-05-04T14:10:49.616Z</time></trkpt><trkpt lat="43.173193" lon="17.1863011"><ele>56.333333333333336</ele><time>2026-05-04T14:10:50.616Z</time></trkpt><trkpt lat="43.1731442" lon="17.186053"><ele>59.0</ele><time>2026-05-04T14:10:51.615Z</time></trkpt><trkpt lat="43.1731176" lon="17.1857998"><ele>59.66666666666667</ele><time>2026-05-04T14:10:52.615Z</time></trkpt><trkpt lat="43.1730983" lon="17.1855423"><ele>60.33333333333333</ele><time>2026-05-04T14:10:53.616Z</time></trkpt><trkpt lat="43.1731609" lon="17.1852983"><ele>61.0</ele><time>2026-05-04T14:10:54.616Z</time></trkpt><trkpt lat="43.1732199" lon="17.1850512"><ele>57.33333333333333</ele><time>2026-05-04T14:10:55.615Z</time></trkpt><trkpt lat="43.1733043" lon="17.1848075"><ele>53.66666666666667</ele><time>2026-05-04T14:10:56.616Z</time></trkpt><trkpt lat="43.1734073" lon="17.1845673"><ele>50.0</ele><time>2026-05-04T14:10:57.616Z</time></trkpt><trkpt lat="43.1735212" lon="17.1843204"><ele>50.0</ele><time>2026-05-04T14:10:58.616Z</time></trkpt><trkpt lat="43.1736481" lon="17.1840812"><ele>50.0</ele><time>2026-05-04T14:10:59.615Z</time></trkpt><trkpt lat="43.1737717" lon="17.1838333"><ele>50.0</ele><time>2026-05-04T14:11:00.616Z</time></trkpt><trkpt lat="43.1738919" lon="17.1835766"><ele>55.5</ele><time>2026-05-04T14:11:01.616Z</time></trkpt><trkpt lat="43.1740234" lon="17.1832967"><ele>61.0</ele><time>2026-05-04T14:11:02.615Z</time></trkpt><trkpt lat="43.1741517" lon="17.1830612"><ele>52.0</ele><time>2026-05-04T14:11:03.616Z</time></trkpt><trkpt lat="43.1742995" lon="17.1828545"><ele>43.0</ele><time>2026-05-04T14:11:04.616Z</time></trkpt><trkpt lat="43.1744523" lon="17.1826662"><ele>34.0</ele><time>2026-05-04T14:11:05.616Z</time></trkpt><trkpt lat="43.1745879" lon="17.1824903"><ele>36.333333333333336</ele><time>2026-05-04T14:11:06.616Z</time></trkpt><trkpt lat="43.1747314" lon="17.1823204"><ele>38.666666666666664</ele><time>2026-05-04T14:11:07.615Z</time></trkpt><trkpt lat="43.1748557" lon="17.1821432"><ele>41.0</ele><time>2026-05-04T14:11:08.616Z</time></trkpt><trkpt lat="43.1749598" lon="17.1819574"><ele>41.0</ele><time>2026-05-04T14:11:09.615Z</time></trkpt><trkpt lat="43.1750442" lon="17.1817661"><ele>41.0</ele><time>2026-05-04T14:11:10.615Z</time></trkpt><trkpt lat="43.1751051" lon="17.181558"><ele>41.0</ele><time>2026-05-04T14:11:11.616Z</time></trkpt><trkpt lat="43.1751443" lon="17.181336"><ele>41.666666666666664</ele><time>2026-05-04T14:11:12.616Z</time></trkpt><trkpt lat="43.1751425" lon="17.1811129"><ele>42.333333333333336</ele><time>2026-05-04T14:11:13.616Z</time></trkpt><trkpt lat="43.1751129" lon="17.1808892"><ele>43.0</ele><time>2026-05-04T14:11:14.616Z</time></trkpt><trkpt lat="43.1750562" lon="17.1806654"><ele>46.333333333333336</ele><time>2026-05-04T14:11:15.616Z</time></trkpt><trkpt lat="43.1749846" lon="17.1804367"><ele>49.66666666666667</ele><time>2026-05-04T14:11:16.616Z</time></trkpt><trkpt lat="43.1748883" lon="17.1802032"><ele>53.0</ele><time>2026-05-04T14:11:17.616Z</time></trkpt><trkpt lat="43.1747994" lon="17.1799622"><ele>43.0</ele><time>2026-05-04T14:11:18.615Z</time></trkpt><trkpt lat="43.1747238" lon="17.1797067"><ele>33.0</ele><time>2026-05-04T14:11:19.616Z</time></trkpt><trkpt lat="43.1746623" lon="17.1794422"><ele>23.0</ele><time>2026-05-04T14:11:20.616Z</time></trkpt><trkpt lat="43.1745936" lon="17.1791787"><ele>23.0</ele><time>2026-05-04T14:11:21.615Z</time></trkpt><trkpt lat="43.1745412" lon="17.1788867"><ele>23.0</ele><time>2026-05-04T14:11:22.616Z</time></trkpt><trkpt lat="43.1744907" lon="17.1786002"><ele>23.0</ele><time>2026-05-04T14:11:23.615Z</time></trkpt><trkpt lat="43.1744525" lon="17.1783058"><ele>21.666666666666668</ele><time>2026-05-04T14:11:24.615Z</time></trkpt><trkpt lat="43.1744174" lon="17.1780128"><ele>20.333333333333332</ele><time>2026-05-04T14:11:25.616Z</time></trkpt><trkpt lat="43.1743928" lon="17.1777072"><ele>19.0</ele><time>2026-05-04T14:11:26.616Z</time></trkpt><trkpt lat="43.1743743" lon="17.1774"><ele>17.0</ele><time>2026-05-04T14:11:27.616Z</time></trkpt><trkpt lat="43.1743625" lon="17.1770947"><ele>15.0</ele><time>2026-05-04T14:11:28.616Z</time></trkpt><trkpt lat="43.174362" lon="17.1767956"><ele>13.0</ele><time>2026-05-04T14:11:29.616Z</time></trkpt><trkpt lat="43.174372" lon="17.176492"><ele>12.333333333333332</ele><time>2026-05-04T14:11:30.616Z</time></trkpt><trkpt lat="43.1743842" lon="17.1761994"><ele>11.666666666666666</ele><time>2026-05-04T14:11:31.615Z</time></trkpt><trkpt lat="43.1744269" lon="17.175926"><ele>11.0</ele><time>2026-05-04T14:11:32.615Z</time></trkpt><trkpt lat="43.174485" lon="17.1756802"><ele>9.333333333333332</ele><time>2026-05-04T14:11:33.616Z</time></trkpt><trkpt lat="43.1745571" lon="17.1754437"><ele>7.666666666666666</ele><time>2026-05-04T14:11:34.616Z</time></trkpt><trkpt lat="43.1746505" lon="17.1752356"><ele>6.0</ele><time>2026-05-04T14:11:35.615Z</time></trkpt><trkpt lat="43.1747597" lon="17.1750319"><ele>8.0</ele><time>2026-05-04T14:11:36.615Z</time></trkpt><trkpt lat="43.1748773" lon="17.174848"><ele>10.0</ele><time>2026-05-04T14:11:37.615Z</time></trkpt><trkpt lat="43.1750362" lon="17.1746577"><ele>12.0</ele><time>2026-05-04T14:11:38.615Z</time></trkpt><trkpt lat="43.1751894" lon="17.1744734"><ele>12.0</ele><time>2026-05-04T14:11:39.615Z</time></trkpt><trkpt lat="43.17533" lon="17.1742935"><ele>12.0</ele><time>2026-05-04T14:11:40.615Z</time></trkpt><trkpt lat="43.1754581" lon="17.174092"><ele>12.0</ele><time>2026-05-04T14:11:41.615Z</time></trkpt><trkpt lat="43.1755696" lon="17.1738754"><ele>11.0</ele><time>2026-05-04T14:11:42.615Z</time></trkpt><trkpt lat="43.1756644" lon="17.1736272"><ele>10.0</ele><time>2026-05-04T14:11:43.616Z</time></trkpt><trkpt lat="43.1757431" lon="17.1733594"><ele>9.0</ele><time>2026-05-04T14:11:44.616Z</time></trkpt><trkpt lat="43.1758228" lon="17.1730824"><ele>9.666666666666666</ele><time>2026-05-04T14:11:45.616Z</time></trkpt><trkpt lat="43.1758983" lon="17.1728171"><ele>10.333333333333332</ele><time>2026-05-04T14:11:46.616Z</time></trkpt><trkpt lat="43.1759717" lon="17.1725594"><ele>11.0</ele><time>2026-05-04T14:11:47.616Z</time></trkpt><trkpt lat="43.1760538" lon="17.1723178"><ele>11.0</ele><time>2026-05-04T14:11:48.615Z</time></trkpt><trkpt lat="43.1761602" lon="17.1720934"><ele>11.0</ele><time>2026-05-04T14:11:49.615Z</time></trkpt><trkpt lat="43.1762824" lon="17.1718902"><ele>11.0</ele><time>2026-05-04T14:11:50.615Z</time></trkpt><trkpt lat="43.1764181" lon="17.1717107"><ele>11.333333333333332</ele><time>2026-05-04T14:11:51.616Z</time></trkpt><trkpt lat="43.1765687" lon="17.1715589"><ele>11.666666666666666</ele><time>2026-05-04T14:11:52.616Z</time></trkpt><trkpt lat="43.1767425" lon="17.1714302"><ele>12.0</ele><time>2026-05-04T14:11:53.616Z</time></trkpt><trkpt lat="43.1769286" lon="17.1713143"><ele>12.0</ele><time>2026-05-04T14:11:54.615Z</time></trkpt><trkpt lat="43.1771201" lon="17.1712024"><ele>12.0</ele><time>2026-05-04T14:11:55.616Z</time></trkpt><trkpt lat="43.1773005" lon="17.1710885"><ele>12.0</ele><time>2026-05-04T14:11:56.615Z</time></trkpt><trkpt lat="43.1774885" lon="17.1709821"><ele>11.666666666666666</ele><time>2026-05-04T14:11:57.616Z</time></trkpt><trkpt lat="43.1776755" lon="17.1708777"><ele>11.333333333333332</ele><time>2026-05-04T14:11:58.616Z</time></trkpt><trkpt lat="43.177855" lon="17.1707612"><ele>11.0</ele><time>2026-05-04T14:11:59.616Z</time></trkpt><trkpt lat="43.1780266" lon="17.170627"><ele>11.0</ele><time>2026-05-04T14:12:00.615Z</time></trkpt><trkpt lat="43.1781644" lon="17.1704754"><ele>11.0</ele><time>2026-05-04T14:12:01.616Z</time></trkpt><trkpt lat="43.1782694" lon="17.1702881"><ele>11.0</ele><time>2026-05-04T14:12:02.616Z</time></trkpt><trkpt lat="43.1783489" lon="17.1700842"><ele>15.0</ele><time>2026-05-04T14:12:03.615Z</time></trkpt><trkpt lat="43.1783887" lon="17.1698586"><ele>19.0</ele><time>2026-05-04T14:12:04.616Z</time></trkpt><trkpt lat="43.1783946" lon="17.1696162"><ele>23.0</ele><time>2026-05-04T14:12:05.615Z</time></trkpt><trkpt lat="43.1783624" lon="17.1693664"><ele>24.333333333333336</ele><time>2026-05-04T14:12:06.615Z</time></trkpt><trkpt lat="43.1782964" lon="17.1691191"><ele>25.666666666666668</ele><time>2026-05-04T14:12:07.615Z</time></trkpt><trkpt lat="43.1782144" lon="17.1688672"><ele>27.0</ele><time>2026-05-04T14:12:08.615Z</time></trkpt><trkpt lat="43.1781302" lon="17.1686335"><ele>24.0</ele><time>2026-05-04T14:12:09.615Z</time></trkpt><trkpt lat="43.1780616" lon="17.1683974"><ele>21.0</ele><time>2026-05-04T14:12:10.615Z</time></trkpt><trkpt lat="43.1780125" lon="17.168152"><ele>18.0</ele><time>2026-05-04T14:12:11.615Z</time></trkpt><trkpt lat="43.1779818" lon="17.167907"><ele>18.0</ele><time>2026-05-04T14:12:12.616Z</time></trkpt><trkpt lat="43.1779883" lon="17.1676637"><ele>18.0</ele><time>2026-05-04T14:12:13.615Z</time></trkpt><trkpt lat="43.1780086" lon="17.1674246"><ele>18.0</ele><time>2026-05-04T14:12:14.615Z</time></trkpt><trkpt lat="43.1780531" lon="17.1671794"><ele>15.333333333333334</ele><time>2026-05-04T14:12:15.615Z</time></trkpt><trkpt lat="43.1781106" lon="17.1669498"><ele>12.666666666666668</ele><time>2026-05-04T14:12:16.616Z</time></trkpt><trkpt lat="43.178179" lon="17.1667175"><ele>10.0</ele><time>2026-05-04T14:12:17.615Z</time></trkpt><trkpt lat="43.1783107" lon="17.1665212"><ele>10.0</ele><time>2026-05-04T14:12:18.616Z</time></trkpt><trkpt lat="43.1784312" lon="17.1663208"><ele>10.0</ele><time>2026-05-04T14:12:19.616Z</time></trkpt><trkpt lat="43.1785699" lon="17.1661366"><ele>10.0</ele><time>2026-05-04T14:12:20.616Z</time></trkpt><trkpt lat="43.1787635" lon="17.1660279"><ele>10.0</ele><time>2026-05-04T14:12:21.616Z</time></trkpt><trkpt lat="43.178962" lon="17.1659128"><ele>10.0</ele><time>2026-05-04T14:12:22.616Z</time></trkpt><trkpt lat="43.1791815" lon="17.1658056"><ele>10.0</ele><time>2026-05-04T14:12:23.615Z</time></trkpt><trkpt lat="43.179385" lon="17.165705"><ele>10.333333333333334</ele><time>2026-05-04T14:12:24.615Z</time></trkpt><trkpt lat="43.1795876" lon="17.1655999"><ele>10.666666666666666</ele><time>2026-05-04T14:12:25.615Z</time></trkpt><trkpt lat="43.1797746" lon="17.165494"><ele>11.0</ele><time>2026-05-04T14:12:26.616Z</time></trkpt><trkpt lat="43.1799525" lon="17.1653601"><ele>11.0</ele><time>2026-05-04T14:12:27.616Z</time></trkpt><trkpt lat="43.1801133" lon="17.1652005"><ele>11.0</ele><time>2026-05-04T14:12:28.616Z</time></trkpt><trkpt lat="43.1802535" lon="17.1650119"><ele>11.0</ele><time>2026-05-04T14:12:29.615Z</time></trkpt><trkpt lat="43.180377" lon="17.1647919"><ele>11.0</ele><time>2026-05-04T14:12:30.615Z</time></trkpt><trkpt lat="43.1804921" lon="17.1645593"><ele>11.0</ele><time>2026-05-04T14:12:31.616Z</time></trkpt><trkpt lat="43.1806019" lon="17.1643321"><ele>11.0</ele><time>2026-05-04T14:12:32.616Z</time></trkpt><trkpt lat="43.1807321" lon="17.1641204"><ele>11.333333333333332</ele><time>2026-05-04T14:12:33.616Z</time></trkpt><trkpt lat="43.1808734" lon="17.1639243"><ele>11.666666666666666</ele><time>2026-05-04T14:12:34.616Z</time></trkpt><trkpt lat="43.1810219" lon="17.1637368"><ele>12.0</ele><time>2026-05-04T14:12:35.615Z</time></trkpt><trkpt lat="43.1811944" lon="17.1635633"><ele>12.0</ele><time>2026-05-04T14:12:36.616Z</time></trkpt><trkpt lat="43.1813505" lon="17.1634024"><ele>12.0</ele><time>2026-05-04T14:12:37.616Z</time></trkpt><trkpt lat="43.1814998" lon="17.163269"><ele>12.0</ele><time>2026-05-04T14:12:38.615Z</time></trkpt><trkpt lat="43.1816541" lon="17.1631953"><ele>8.666666666666666</ele><time>2026-05-04T14:12:39.613Z</time></trkpt><trkpt lat="43.1818166" lon="17.1631543"><ele>5.333333333333333</ele><time>2026-05-04T14:12:40.615Z</time></trkpt><trkpt lat="43.1819729" lon="17.1631517"><ele>2.0</ele><time>2026-05-04T14:12:41.616Z</time></trkpt><trkpt lat="43.1821176" lon="17.1632084"><ele>10.333333333333334</ele><time>2026-05-04T14:12:42.616Z</time></trkpt><trkpt lat="43.1822568" lon="17.1633065"><ele>18.666666666666668</ele><time>2026-05-04T14:12:43.615Z</time></trkpt><trkpt lat="43.1823838" lon="17.1634369"><ele>27.0</ele><time>2026-05-04T14:12:44.616Z</time></trkpt><trkpt lat="43.182522" lon="17.1636017"><ele>27.0</ele><time>2026-05-04T14:12:45.615Z</time></trkpt><trkpt lat="43.1826594" lon="17.1637707"><ele>27.0</ele><time>2026-05-04T14:12:46.615Z</time></trkpt><trkpt lat="43.1827967" lon="17.163926"><ele>27.0</ele><time>2026-05-04T14:12:47.615Z</time></trkpt><trkpt lat="43.1829367" lon="17.1640791"><ele>28.666666666666664</ele><time>2026-05-04T14:12:48.615Z</time></trkpt><trkpt lat="43.1830773" lon="17.1642283"><ele>30.333333333333332</ele><time>2026-05-04T14:12:49.616Z</time></trkpt><trkpt lat="43.1832186" lon="17.1643377"><ele>32.0</ele><time>2026-05-04T14:12:50.616Z</time></trkpt><trkpt lat="43.1833728" lon="17.1644257"><ele>32.0</ele><time>2026-05-04T14:12:51.615Z</time></trkpt><trkpt lat="43.1835296" lon="17.1644615"><ele>32.0</ele><time>2026-05-04T14:12:52.616Z</time></trkpt><trkpt lat="43.183694" lon="17.1644646"><ele>32.0</ele><time>2026-05-04T14:12:53.615Z</time></trkpt><trkpt lat="43.1838711" lon="17.1644246"><ele>33.666666666666664</ele><time>2026-05-04T14:12:54.616Z</time></trkpt><trkpt lat="43.1840615" lon="17.1643691"><ele>35.333333333333336</ele><time>2026-05-04T14:12:55.616Z</time></trkpt><trkpt lat="43.1842581" lon="17.1643059"><ele>37.0</ele><time>2026-05-04T14:12:56.615Z</time></trkpt><trkpt lat="43.1844553" lon="17.1642295"><ele>37.0</ele><time>2026-05-04T14:12:57.616Z</time></trkpt><trkpt lat="43.1846695" lon="17.1641665"><ele>37.0</ele><time>2026-05-04T14:12:58.616Z</time></trkpt><trkpt lat="43.1848792" lon="17.1640962"><ele>37.0</ele><time>2026-05-04T14:12:59.616Z</time></trkpt><trkpt lat="43.1850962" lon="17.1640055"><ele>33.333333333333336</ele><time>2026-05-04T14:13:00.615Z</time></trkpt><trkpt lat="43.1852989" lon="17.1638972"><ele>29.666666666666664</ele><time>2026-05-04T14:13:01.616Z</time></trkpt><trkpt lat="43.1854933" lon="17.1637592"><ele>26.0</ele><time>2026-05-04T14:13:02.615Z</time></trkpt><trkpt lat="43.1856767" lon="17.163598"><ele>32.5</ele><time>2026-05-04T14:13:03.616Z</time></trkpt><trkpt lat="43.1858652" lon="17.1634311"><ele>39.0</ele><time>2026-05-04T14:13:04.616Z</time></trkpt><trkpt lat="43.1860559" lon="17.1632392"><ele>31.0</ele><time>2026-05-04T14:13:05.616Z</time></trkpt><trkpt lat="43.1862373" lon="17.1630425"><ele>23.0</ele><time>2026-05-04T14:13:06.615Z</time></trkpt><trkpt lat="43.1864232" lon="17.1628595"><ele>30.333333333333336</ele><time>2026-05-04T14:13:07.615Z</time></trkpt><trkpt lat="43.1865916" lon="17.162701"><ele>37.666666666666664</ele><time>2026-05-04T14:13:08.616Z</time></trkpt><trkpt lat="43.1867622" lon="17.1625619"><ele>45.0</ele><time>2026-05-04T14:13:09.616Z</time></trkpt><trkpt lat="43.1869433" lon="17.1624375"><ele>40.666666666666664</ele><time>2026-05-04T14:13:10.615Z</time></trkpt><trkpt lat="43.1871225" lon="17.1623553"><ele>36.33333333333333</ele><time>2026-05-04T14:13:11.616Z</time></trkpt><trkpt lat="43.1873217" lon="17.1623013"><ele>32.0</ele><time>2026-05-04T14:13:12.615Z</time></trkpt><trkpt lat="43.1875218" lon="17.1622664"><ele>32.0</ele><time>2026-05-04T14:13:13.616Z</time></trkpt><trkpt lat="43.1877366" lon="17.1622572"><ele>32.0</ele><time>2026-05-04T14:13:14.616Z</time></trkpt><trkpt lat="43.1879476" lon="17.1622707"><ele>32.0</ele><time>2026-05-04T14:13:15.615Z</time></trkpt><trkpt lat="43.1881641" lon="17.1622952"><ele>33.33333333333333</ele><time>2026-05-04T14:13:16.616Z</time></trkpt><trkpt lat="43.1883832" lon="17.1623135"><ele>34.666666666666664</ele><time>2026-05-04T14:13:17.615Z</time></trkpt><trkpt lat="43.1886034" lon="17.1623308"><ele>36.0</ele><time>2026-05-04T14:13:18.616Z</time></trkpt><trkpt lat="43.1888138" lon="17.16235"><ele>38.333333333333336</ele><time>2026-05-04T14:13:19.616Z</time></trkpt><trkpt lat="43.1890198" lon="17.1623462"><ele>40.66666666666667</ele><time>2026-05-04T14:13:20.615Z</time></trkpt><trkpt lat="43.1892195" lon="17.1623282"><ele>43.0</ele><time>2026-05-04T14:13:21.615Z</time></trkpt><trkpt lat="43.189422" lon="17.1622721"><ele>43.0</ele><time>2026-05-04T14:13:22.616Z</time></trkpt><trkpt lat="43.1896097" lon="17.1621799"><ele>43.0</ele><time>2026-05-04T14:13:23.615Z</time></trkpt><trkpt lat="43.18978" lon="17.1620402"><ele>43.0</ele><time>2026-05-04T14:13:24.615Z</time></trkpt><trkpt lat="43.1899407" lon="17.1618919"><ele>47.0</ele><time>2026-05-04T14:13:25.615Z</time></trkpt><trkpt lat="43.1900682" lon="17.1616923"><ele>51.0</ele><time>2026-05-04T14:13:26.616Z</time></trkpt><trkpt lat="43.1901727" lon="17.1614656"><ele>55.0</ele><time>2026-05-04T14:13:27.615Z</time></trkpt><trkpt lat="43.1902605" lon="17.1612068"><ele>55.0</ele><time>2026-05-04T14:13:28.615Z</time></trkpt><trkpt lat="43.1903368" lon="17.1609486"><ele>55.0</ele><time>2026-05-04T14:13:29.614Z</time></trkpt><trkpt lat="43.1903951" lon="17.160692"><ele>55.0</ele><time>2026-05-04T14:13:30.616Z</time></trkpt><trkpt lat="43.1903919" lon="17.1603741"><ele>54.666666666666664</ele><time>2026-05-04T14:13:31.616Z</time></trkpt><trkpt lat="43.1904075" lon="17.1600852"><ele>54.33333333333333</ele><time>2026-05-04T14:13:32.616Z</time></trkpt><trkpt lat="43.1904288" lon="17.1598223"><ele>54.0</ele><time>2026-05-04T14:13:33.615Z</time></trkpt><trkpt lat="43.190449" lon="17.1595495"><ele>54.0</ele><time>2026-05-04T14:13:34.615Z</time></trkpt><trkpt lat="43.1905111" lon="17.1593137"><ele>54.0</ele><time>2026-05-04T14:13:35.615Z</time></trkpt><trkpt lat="43.1905948" lon="17.1590909"><ele>54.0</ele><time>2026-05-04T14:13:36.616Z</time></trkpt><trkpt lat="43.1906929" lon="17.1588758"><ele>55.66666666666667</ele><time>2026-05-04T14:13:37.616Z</time></trkpt><trkpt lat="43.190819" lon="17.1586785"><ele>57.333333333333336</ele><time>2026-05-04T14:13:38.615Z</time></trkpt><trkpt lat="43.1910036" lon="17.1585591"><ele>59.0</ele><time>2026-05-04T14:13:39.616Z</time></trkpt><trkpt lat="43.1911806" lon="17.1584548"><ele>59.0</ele><time>2026-05-04T14:13:40.615Z</time></trkpt><trkpt lat="43.1913706" lon="17.1583851"><ele>59.0</ele><time>2026-05-04T14:13:41.615Z</time></trkpt><trkpt lat="43.1915842" lon="17.1583536"><ele>59.0</ele><time>2026-05-04T14:13:42.615Z</time></trkpt><trkpt lat="43.1918092" lon="17.1583498"><ele>64.0</ele><time>2026-05-04T14:13:43.615Z</time></trkpt><trkpt lat="43.1920362" lon="17.1583497"><ele>69.0</ele><time>2026-05-04T14:13:44.616Z</time></trkpt><trkpt lat="43.1922657" lon="17.1583496"><ele>70.0</ele><time>2026-05-04T14:13:45.615Z</time></trkpt><trkpt lat="43.1924948" lon="17.1583517"><ele>71.0</ele><time>2026-05-04T14:13:46.616Z</time></trkpt><trkpt lat="43.1927143" lon="17.15834"><ele>72.0</ele><time>2026-05-04T14:13:47.616Z</time></trkpt><trkpt lat="43.1929315" lon="17.1583064"><ele>72.0</ele><time>2026-05-04T14:13:48.616Z</time></trkpt><trkpt lat="43.1931415" lon="17.1582306"><ele>72.0</ele><time>2026-05-04T14:13:49.616Z</time></trkpt><trkpt lat="43.1933074" lon="17.1580806"><ele>72.0</ele><time>2026-05-04T14:13:50.616Z</time></trkpt><trkpt lat="43.1934653" lon="17.1579169"><ele>72.0</ele><time>2026-05-04T14:13:51.615Z</time></trkpt><trkpt lat="43.1936107" lon="17.1577164"><ele>72.0</ele><time>2026-05-04T14:13:52.616Z</time></trkpt><trkpt lat="43.1937413" lon="17.1574761"><ele>72.0</ele><time>2026-05-04T14:13:53.616Z</time></trkpt><trkpt lat="43.1938492" lon="17.1572028"><ele>65.5</ele><time>2026-05-04T14:13:54.615Z</time></trkpt><trkpt lat="43.1939448" lon="17.1568972"><ele>59.0</ele><time>2026-05-04T14:13:55.616Z</time></trkpt><trkpt lat="43.1940427" lon="17.1565985"><ele>72.0</ele><time>2026-05-04T14:13:56.615Z</time></trkpt><trkpt lat="43.1941359" lon="17.1562858"><ele>85.0</ele><time>2026-05-04T14:13:57.616Z</time></trkpt><trkpt lat="43.1942294" lon="17.1559752"><ele>79.5</ele><time>2026-05-04T14:13:58.615Z</time></trkpt><trkpt lat="43.1943114" lon="17.1556902"><ele>74.0</ele><time>2026-05-04T14:13:59.615Z</time></trkpt><trkpt lat="43.1943958" lon="17.1553985"><ele>74.0</ele><time>2026-05-04T14:14:00.615Z</time></trkpt><trkpt lat="43.19448" lon="17.1551218"><ele>74.0</ele><time>2026-05-04T14:14:01.615Z</time></trkpt><trkpt lat="43.194557" lon="17.1548633"><ele>74.0</ele><time>2026-05-04T14:14:02.616Z</time></trkpt><trkpt lat="43.194641" lon="17.1546178"><ele>73.66666666666667</ele><time>2026-05-04T14:14:03.616Z</time></trkpt><trkpt lat="43.1947338" lon="17.1543877"><ele>73.33333333333333</ele><time>2026-05-04T14:14:04.616Z</time></trkpt><trkpt lat="43.1948592" lon="17.1541672"><ele>73.0</ele><time>2026-05-04T14:14:05.615Z</time></trkpt><trkpt lat="43.1949971" lon="17.1539493"><ele>73.0</ele><time>2026-05-04T14:14:06.615Z</time></trkpt><trkpt lat="43.1951579" lon="17.1537163"><ele>73.0</ele><time>2026-05-04T14:14:07.615Z</time></trkpt><trkpt lat="43.1953136" lon="17.1534909"><ele>73.0</ele><time>2026-05-04T14:14:08.616Z</time></trkpt><trkpt lat="43.1954708" lon="17.1532743"><ele>73.0</ele><time>2026-05-04T14:14:09.615Z</time></trkpt><trkpt lat="43.1956276" lon="17.1530473"><ele>74.33333333333333</ele><time>2026-05-04T14:14:10.615Z</time></trkpt><trkpt lat="43.1957644" lon="17.152829"><ele>75.66666666666667</ele><time>2026-05-04T14:14:11.615Z</time></trkpt><trkpt lat="43.1958757" lon="17.1526017"><ele>77.0</ele><time>2026-05-04T14:14:12.615Z</time></trkpt><trkpt lat="43.195971" lon="17.1523612"><ele>77.0</ele><time>2026-05-04T14:14:13.615Z</time></trkpt><trkpt lat="43.1960635" lon="17.1521321"><ele>77.0</ele><time>2026-05-04T14:14:14.615Z</time></trkpt><trkpt lat="43.1961494" lon="17.1518979"><ele>77.0</ele><time>2026-05-04T14:14:15.615Z</time></trkpt><trkpt lat="43.1962986" lon="17.1516829"><ele>73.66666666666667</ele><time>2026-05-04T14:14:16.616Z</time></trkpt><trkpt lat="43.1964346" lon="17.1514612"><ele>70.33333333333333</ele><time>2026-05-04T14:14:17.615Z</time></trkpt><trkpt lat="43.196558" lon="17.1512307"><ele>67.0</ele><time>2026-05-04T14:14:18.616Z</time></trkpt><trkpt lat="43.1966453" lon="17.1510002"><ele>71.0</ele><time>2026-05-04T14:14:19.616Z</time></trkpt><trkpt lat="43.1967238" lon="17.1507806"><ele>75.0</ele><time>2026-05-04T14:14:20.615Z</time></trkpt><trkpt lat="43.1968071" lon="17.1505663"><ele>79.0</ele><time>2026-05-04T14:14:21.615Z</time></trkpt><trkpt lat="43.196906" lon="17.1503611"><ele>79.0</ele><time>2026-05-04T14:14:22.615Z</time></trkpt><trkpt lat="43.1970163" lon="17.1501922"><ele>79.0</ele><time>2026-05-04T14:14:23.616Z</time></trkpt><trkpt lat="43.1971509" lon="17.1500413"><ele>79.0</ele><time>2026-05-04T14:14:24.616Z</time></trkpt><trkpt lat="43.1973257" lon="17.1499164"><ele>79.33333333333333</ele><time>2026-05-04T14:14:25.616Z</time></trkpt><trkpt lat="43.1975089" lon="17.1498078"><ele>79.66666666666667</ele><time>2026-05-04T14:14:26.615Z</time></trkpt><trkpt lat="43.1977027" lon="17.1496933"><ele>80.0</ele><time>2026-05-04T14:14:27.616Z</time></trkpt><trkpt lat="43.197896" lon="17.1495794"><ele>80.0</ele><time>2026-05-04T14:14:28.616Z</time></trkpt><trkpt lat="43.1980754" lon="17.1494603"><ele>80.0</ele><time>2026-05-04T14:14:29.615Z</time></trkpt><trkpt lat="43.1982314" lon="17.1493242"><ele>80.0</ele><time>2026-05-04T14:14:30.615Z</time></trkpt><trkpt lat="43.1983563" lon="17.1491593"><ele>83.33333333333334</ele><time>2026-05-04T14:14:31.616Z</time></trkpt><trkpt lat="43.1984517" lon="17.1489563"><ele>86.66666666666667</ele><time>2026-05-04T14:14:32.616Z</time></trkpt><trkpt lat="43.1985141" lon="17.1487135"><ele>90.0</ele><time>2026-05-04T14:14:33.616Z</time></trkpt><trkpt lat="43.1985382" lon="17.1484496"><ele>88.66666666666667</ele><time>2026-05-04T14:14:34.616Z</time></trkpt><trkpt lat="43.1985473" lon="17.1481738"><ele>87.33333333333334</ele><time>2026-05-04T14:14:35.615Z</time></trkpt><trkpt lat="43.1985527" lon="17.1478895"><ele>86.0</ele><time>2026-05-04T14:14:36.616Z</time></trkpt><trkpt lat="43.1985601" lon="17.1476163"><ele>84.66666666666667</ele><time>2026-05-04T14:14:37.615Z</time></trkpt><trkpt lat="43.198582" lon="17.1473477"><ele>83.33333333333333</ele><time>2026-05-04T14:14:38.616Z</time></trkpt><trkpt lat="43.1986408" lon="17.1470582"><ele>82.0</ele><time>2026-05-04T14:14:39.616Z</time></trkpt><trkpt lat="43.1987266" lon="17.1467665"><ele>78.5</ele><time>2026-05-04T14:14:40.615Z</time></trkpt><trkpt lat="43.1988228" lon="17.1464605"><ele>75.0</ele><time>2026-05-04T14:14:41.615Z</time></trkpt><trkpt lat="43.1989007" lon="17.1461514"><ele>75.0</ele><time>2026-05-04T14:14:42.615Z</time></trkpt><trkpt lat="43.1989532" lon="17.1458472"><ele>75.0</ele><time>2026-05-04T14:14:43.616Z</time></trkpt><trkpt lat="43.1989784" lon="17.1455345"><ele>72.66666666666667</ele><time>2026-05-04T14:14:44.616Z</time></trkpt><trkpt lat="43.1989944" lon="17.1452363"><ele>70.33333333333334</ele><time>2026-05-04T14:14:45.616Z</time></trkpt><trkpt lat="43.1990104" lon="17.1449521"><ele>68.0</ele><time>2026-05-04T14:14:46.615Z</time></trkpt><trkpt lat="43.1990464" lon="17.144684"><ele>72.66666666666667</ele><time>2026-05-04T14:14:47.616Z</time></trkpt><trkpt lat="43.1991038" lon="17.1444341"><ele>77.33333333333333</ele><time>2026-05-04T14:14:48.616Z</time></trkpt><trkpt lat="43.199182" lon="17.1441855"><ele>82.0</ele><time>2026-05-04T14:14:49.616Z</time></trkpt><trkpt lat="43.1992689" lon="17.143956"><ele>82.0</ele><time>2026-05-04T14:14:50.616Z</time></trkpt><trkpt lat="43.199368" lon="17.143725"><ele>82.0</ele><time>2026-05-04T14:14:51.616Z</time></trkpt><trkpt lat="43.1994847" lon="17.1434814"><ele>82.0</ele><time>2026-05-04T14:14:52.616Z</time></trkpt><trkpt lat="43.1996062" lon="17.143241"><ele>78.33333333333333</ele><time>2026-05-04T14:14:53.616Z</time></trkpt><trkpt lat="43.199734" lon="17.1429952"><ele>74.66666666666667</ele><time>2026-05-04T14:14:54.616Z</time></trkpt><trkpt lat="43.1998587" lon="17.1427534"><ele>71.0</ele><time>2026-05-04T14:14:55.616Z</time></trkpt><trkpt lat="43.1999567" lon="17.1425228"><ele>78.33333333333334</ele><time>2026-05-04T14:14:56.615Z</time></trkpt><trkpt lat="43.200041" lon="17.1422715"><ele>85.66666666666667</ele><time>2026-05-04T14:14:57.615Z</time></trkpt><trkpt lat="43.2000948" lon="17.1420038"><ele>93.0</ele><time>2026-05-04T14:14:58.616Z</time></trkpt><trkpt lat="43.2001232" lon="17.141718"><ele>93.66666666666667</ele><time>2026-05-04T14:14:59.615Z</time></trkpt><trkpt lat="43.2001413" lon="17.1414347"><ele>94.33333333333334</ele><time>2026-05-04T14:15:00.615Z</time></trkpt><trkpt lat="43.2001543" lon="17.1411564"><ele>95.0</ele><time>2026-05-04T14:15:01.615Z</time></trkpt><trkpt lat="43.200137" lon="17.1408988"><ele>98.66666666666667</ele><time>2026-05-04T14:15:02.616Z</time></trkpt><trkpt lat="43.2000733" lon="17.1406556"><ele>102.33333333333334</ele><time>2026-05-04T14:15:03.615Z</time></trkpt><trkpt lat="43.1999777" lon="17.1404212"><ele>106.0</ele><time>2026-05-04T14:15:04.615Z</time></trkpt><trkpt lat="43.1998619" lon="17.1402273"><ele>102.33333333333334</ele><time>2026-05-04T14:15:05.616Z</time></trkpt><trkpt lat="43.199738" lon="17.1400495"><ele>98.66666666666667</ele><time>2026-05-04T14:15:06.615Z</time></trkpt><trkpt lat="43.1996158" lon="17.1398846"><ele>95.0</ele><time>2026-05-04T14:15:07.616Z</time></trkpt><trkpt lat="43.1995026" lon="17.139727"><ele>95.0</ele><time>2026-05-04T14:15:08.616Z</time></trkpt><trkpt lat="43.1993952" lon="17.1395835"><ele>95.0</ele><time>2026-05-04T14:15:09.615Z</time></trkpt><trkpt lat="43.1992865" lon="17.1394406"><ele>95.0</ele><time>2026-05-04T14:15:10.616Z</time></trkpt><trkpt lat="43.1991871" lon="17.1392986"><ele>95.0</ele><time>2026-05-04T14:15:11.615Z</time></trkpt><trkpt lat="43.1990943" lon="17.1391614"><ele>97.0</ele><time>2026-05-04T14:15:12.615Z</time></trkpt><trkpt lat="43.1990042" lon="17.1390313"><ele>99.0</ele><time>2026-05-04T14:15:13.616Z</time></trkpt><trkpt lat="43.1989221" lon="17.1388871"><ele>101.0</ele><time>2026-05-04T14:15:14.616Z</time></trkpt><trkpt lat="43.1988584" lon="17.1387326"><ele>103.0</ele><time>2026-05-04T14:15:15.616Z</time></trkpt><trkpt lat="43.1988116" lon="17.1385719"><ele>98.75</ele><time>2026-05-04T14:15:16.615Z</time></trkpt><trkpt lat="43.1987891" lon="17.1384156"><ele>94.5</ele><time>2026-05-04T14:15:17.615Z</time></trkpt><trkpt lat="43.1987974" lon="17.1382506"><ele>90.25</ele><time>2026-05-04T14:15:18.616Z</time></trkpt><trkpt lat="43.1988364" lon="17.1380884"><ele>86.0</ele><time>2026-05-04T14:15:19.615Z</time></trkpt><trkpt lat="43.1989082" lon="17.1379395"><ele>86.75</ele><time>2026-05-04T14:15:20.616Z</time></trkpt><trkpt lat="43.1989899" lon="17.1378088"><ele>87.5</ele><time>2026-05-04T14:15:21.616Z</time></trkpt><trkpt lat="43.1990844" lon="17.1376863"><ele>88.25</ele><time>2026-05-04T14:15:22.616Z</time></trkpt><trkpt lat="43.1992701" lon="17.1376107"><ele>89.0</ele><time>2026-05-04T14:15:23.614Z</time></trkpt><trkpt lat="43.1994363" lon="17.1375707"><ele>89.0</ele><time>2026-05-04T14:15:24.615Z</time></trkpt><trkpt lat="43.1996237" lon="17.13755"><ele>89.0</ele><time>2026-05-04T14:15:25.615Z</time></trkpt><trkpt lat="43.1998122" lon="17.1375466"><ele>89.0</ele><time>2026-05-04T14:15:26.615Z</time></trkpt><trkpt lat="43.2000083" lon="17.1375396"><ele>92.66666666666667</ele><time>2026-05-04T14:15:27.616Z</time></trkpt><trkpt lat="43.2001828" lon="17.1375284"><ele>96.33333333333334</ele><time>2026-05-04T14:15:28.615Z</time></trkpt><trkpt lat="43.200372" lon="17.1375051"><ele>100.0</ele><time>2026-05-04T14:15:29.615Z</time></trkpt><trkpt lat="43.200554" lon="17.1374515"><ele>100.33333333333334</ele><time>2026-05-04T14:15:30.615Z</time></trkpt><trkpt lat="43.2007272" lon="17.1373646"><ele>100.66666666666666</ele><time>2026-05-04T14:15:31.615Z</time></trkpt><trkpt lat="43.2008819" lon="17.1372451"><ele>101.0</ele><time>2026-05-04T14:15:32.614Z</time></trkpt><trkpt lat="43.2010228" lon="17.1370908"><ele>101.0</ele><time>2026-05-04T14:15:33.616Z</time></trkpt><trkpt lat="43.2011465" lon="17.1368972"><ele>101.0</ele><time>2026-05-04T14:15:34.616Z</time></trkpt><trkpt lat="43.2012482" lon="17.1366799"><ele>101.0</ele><time>2026-05-04T14:15:35.615Z</time></trkpt><trkpt lat="43.2013265" lon="17.1364362"><ele>99.0</ele><time>2026-05-04T14:15:36.616Z</time></trkpt><trkpt lat="43.2013827" lon="17.1361771"><ele>97.0</ele><time>2026-05-04T14:15:37.615Z</time></trkpt><trkpt lat="43.2014277" lon="17.1359197"><ele>95.0</ele><time>2026-05-04T14:15:38.615Z</time></trkpt><trkpt lat="43.201476" lon="17.1356711"><ele>104.33333333333334</ele><time>2026-05-04T14:15:39.616Z</time></trkpt><trkpt lat="43.2015404" lon="17.1354545"><ele>113.66666666666667</ele><time>2026-05-04T14:15:40.615Z</time></trkpt><trkpt lat="43.2016189" lon="17.1352511"><ele>123.0</ele><time>2026-05-04T14:15:41.616Z</time></trkpt><trkpt lat="43.2017131" lon="17.1350571"><ele>120.0</ele><time>2026-05-04T14:15:42.616Z</time></trkpt><trkpt lat="43.2018325" lon="17.1348812"><ele>117.0</ele><time>2026-05-04T14:15:43.616Z</time></trkpt><trkpt lat="43.201976" lon="17.1347117"><ele>114.0</ele><time>2026-05-04T14:15:44.615Z</time></trkpt><trkpt lat="43.2021442" lon="17.1345509"><ele>114.0</ele><time>2026-05-04T14:15:45.616Z</time></trkpt><trkpt lat="43.2023231" lon="17.1343811"><ele>114.0</ele><time>2026-05-04T14:15:46.615Z</time></trkpt><trkpt lat="43.2024922" lon="17.134202"><ele>114.0</ele><time>2026-05-04T14:15:47.615Z</time></trkpt><trkpt lat="43.2026444" lon="17.1340066"><ele>114.66666666666666</ele><time>2026-05-04T14:15:48.616Z</time></trkpt><trkpt lat="43.2027861" lon="17.1337835"><ele>115.33333333333333</ele><time>2026-05-04T14:15:49.616Z</time></trkpt><trkpt lat="43.2029202" lon="17.1335401"><ele>116.0</ele><time>2026-05-04T14:15:50.616Z</time></trkpt><trkpt lat="43.2030479" lon="17.1332792"><ele>126.0</ele><time>2026-05-04T14:15:51.615Z</time></trkpt><trkpt lat="43.203172" lon="17.1330003"><ele>136.0</ele><time>2026-05-04T14:15:52.615Z</time></trkpt><trkpt lat="43.2032846" lon="17.1326981"><ele>135.0</ele><time>2026-05-04T14:15:53.615Z</time></trkpt><trkpt lat="43.2033799" lon="17.1323662"><ele>134.0</ele><time>2026-05-04T14:15:54.616Z</time></trkpt><trkpt lat="43.2034568" lon="17.1320111"><ele>134.0</ele><time>2026-05-04T14:15:55.616Z</time></trkpt><trkpt lat="43.2035177" lon="17.1316486"><ele>134.0</ele><time>2026-05-04T14:15:56.616Z</time></trkpt><trkpt lat="43.2035656" lon="17.1312805"><ele>131.5</ele><time>2026-05-04T14:15:57.615Z</time></trkpt><trkpt lat="43.2036058" lon="17.130909"><ele>129.0</ele><time>2026-05-04T14:15:58.615Z</time></trkpt><trkpt lat="43.203644" lon="17.1305673"><ele>127.0</ele><time>2026-05-04T14:15:59.616Z</time></trkpt><trkpt lat="43.2036788" lon="17.1302433"><ele>125.0</ele><time>2026-05-04T14:16:00.615Z</time></trkpt><trkpt lat="43.20372" lon="17.1299345"><ele>125.66666666666666</ele><time>2026-05-04T14:16:01.616Z</time></trkpt><trkpt lat="43.2037751" lon="17.1296298"><ele>126.33333333333334</ele><time>2026-05-04T14:16:02.616Z</time></trkpt><trkpt lat="43.2038432" lon="17.1293611"><ele>127.0</ele><time>2026-05-04T14:16:03.615Z</time></trkpt><trkpt lat="43.2039248" lon="17.129117"><ele>133.66666666666669</ele><time>2026-05-04T14:16:04.616Z</time></trkpt><trkpt lat="43.2040383" lon="17.1288815"><ele>140.33333333333334</ele><time>2026-05-04T14:16:05.616Z</time></trkpt><trkpt lat="43.2041682" lon="17.1286459"><ele>147.0</ele><time>2026-05-04T14:16:06.616Z</time></trkpt><trkpt lat="43.2043092" lon="17.1284039"><ele>146.0</ele><time>2026-05-04T14:16:07.615Z</time></trkpt><trkpt lat="43.2044573" lon="17.1281591"><ele>145.0</ele><time>2026-05-04T14:16:08.615Z</time></trkpt><trkpt lat="43.2046098" lon="17.1278958"><ele>145.0</ele><time>2026-05-04T14:16:09.616Z</time></trkpt><trkpt lat="43.2047604" lon="17.1276355"><ele>145.0</ele><time>2026-05-04T14:16:10.615Z</time></trkpt><trkpt lat="43.2049028" lon="17.1273879"><ele>148.0</ele><time>2026-05-04T14:16:11.616Z</time></trkpt><trkpt lat="43.2050519" lon="17.1271352"><ele>151.0</ele><time>2026-05-04T14:16:12.615Z</time></trkpt><trkpt lat="43.2052018" lon="17.1268796"><ele>151.0</ele><time>2026-05-04T14:16:13.616Z</time></trkpt><trkpt lat="43.205351" lon="17.1266199"><ele>151.0</ele><time>2026-05-04T14:16:14.615Z</time></trkpt><trkpt lat="43.2054922" lon="17.1263693"><ele>151.5</ele><time>2026-05-04T14:16:15.615Z</time></trkpt><trkpt lat="43.2056288" lon="17.1261182"><ele>152.0</ele><time>2026-05-04T14:16:16.616Z</time></trkpt><trkpt lat="43.2057707" lon="17.1258527"><ele>150.0</ele><time>2026-05-04T14:16:17.615Z</time></trkpt><trkpt lat="43.205918" lon="17.1255695"><ele>148.0</ele><time>2026-05-04T14:16:18.616Z</time></trkpt><trkpt lat="43.2060675" lon="17.1252851"><ele>148.0</ele><time>2026-05-04T14:16:19.615Z</time></trkpt><trkpt lat="43.2062228" lon="17.1249938"><ele>148.0</ele><time>2026-05-04T14:16:20.615Z</time></trkpt><trkpt lat="43.2063788" lon="17.1246976"><ele>145.5</ele><time>2026-05-04T14:16:21.616Z</time></trkpt><trkpt lat="43.2065324" lon="17.1243983"><ele>143.0</ele><time>2026-05-04T14:16:22.615Z</time></trkpt><trkpt lat="43.2066746" lon="17.1240932"><ele>139.5</ele><time>2026-05-04T14:16:23.616Z</time></trkpt><trkpt lat="43.2068073" lon="17.1237736"><ele>136.0</ele><time>2026-05-04T14:16:24.616Z</time></trkpt><trkpt lat="43.2069289" lon="17.1234397"><ele>135.5</ele><time>2026-05-04T14:16:25.614Z</time></trkpt><trkpt lat="43.2070424" lon="17.1230862"><ele>135.0</ele><time>2026-05-04T14:16:26.616Z</time></trkpt><trkpt lat="43.2071507" lon="17.1227372"><ele>135.0</ele><time>2026-05-04T14:16:27.615Z</time></trkpt><trkpt lat="43.2072568" lon="17.1224033"><ele>135.0</ele><time>2026-05-04T14:16:28.615Z</time></trkpt><trkpt lat="43.207351" lon="17.1220941"><ele>139.0</ele><time>2026-05-04T14:16:29.616Z</time></trkpt><trkpt lat="43.2074242" lon="17.1217996"><ele>143.0</ele><time>2026-05-04T14:16:30.616Z</time></trkpt><trkpt lat="43.207465" lon="17.1215034"><ele>147.0</ele><time>2026-05-04T14:16:31.615Z</time></trkpt><trkpt lat="43.2074807" lon="17.1212006"><ele>148.0</ele><time>2026-05-04T14:16:32.616Z</time></trkpt><trkpt lat="43.2074917" lon="17.1209151"><ele>149.0</ele><time>2026-05-04T14:16:33.616Z</time></trkpt><trkpt lat="43.207509" lon="17.1206423"><ele>150.0</ele><time>2026-05-04T14:16:34.616Z</time></trkpt><trkpt lat="43.207527" lon="17.1203847"><ele>148.0</ele><time>2026-05-04T14:16:35.616Z</time></trkpt><trkpt lat="43.207603" lon="17.1201752"><ele>146.0</ele><time>2026-05-04T14:16:36.616Z</time></trkpt><trkpt lat="43.2077" lon="17.1199659"><ele>144.0</ele><time>2026-05-04T14:16:37.615Z</time></trkpt><trkpt lat="43.2078162" lon="17.1197734"><ele>146.33333333333334</ele><time>2026-05-04T14:16:38.616Z</time></trkpt><trkpt lat="43.2079872" lon="17.1195808"><ele>148.66666666666669</ele><time>2026-05-04T14:16:39.616Z</time></trkpt><trkpt lat="43.2081528" lon="17.1193869"><ele>151.0</ele><time>2026-05-04T14:16:40.616Z</time></trkpt><trkpt lat="43.2083297" lon="17.1191927"><ele>141.66666666666669</ele><time>2026-05-04T14:16:41.616Z</time></trkpt><trkpt lat="43.2084938" lon="17.1190114"><ele>132.33333333333334</ele><time>2026-05-04T14:16:42.616Z</time></trkpt><trkpt lat="43.2086617" lon="17.1188421"><ele>123.0</ele><time>2026-05-04T14:16:43.615Z</time></trkpt><trkpt lat="43.2088504" lon="17.1186908"><ele>133.5</ele><time>2026-05-04T14:16:44.614Z</time></trkpt><trkpt lat="43.2090471" lon="17.1185316"><ele>144.0</ele><time>2026-05-04T14:16:45.616Z</time></trkpt><trkpt lat="43.2092651" lon="17.1183752"><ele>127.5</ele><time>2026-05-04T14:16:46.615Z</time></trkpt><trkpt lat="43.2094862" lon="17.1182182"><ele>111.0</ele><time>2026-05-04T14:16:47.614Z</time></trkpt><trkpt lat="43.2097071" lon="17.1180887"><ele>118.5</ele><time>2026-05-04T14:16:48.615Z</time></trkpt><trkpt lat="43.2099247" lon="17.117959"><ele>126.0</ele><time>2026-05-04T14:16:49.616Z</time></trkpt><trkpt lat="43.2101319" lon="17.1178216"><ele>126.0</ele><time>2026-05-04T14:16:50.616Z</time></trkpt><trkpt lat="43.210322" lon="17.1176551"><ele>126.0</ele><time>2026-05-04T14:16:51.615Z</time></trkpt><trkpt lat="43.2104988" lon="17.1174675"><ele>126.0</ele><time>2026-05-04T14:16:52.616Z</time></trkpt><trkpt lat="43.2106649" lon="17.1172779"><ele>126.0</ele><time>2026-05-04T14:16:53.616Z</time></trkpt><trkpt lat="43.2108254" lon="17.1170831"><ele>126.0</ele><time>2026-05-04T14:16:54.615Z</time></trkpt><trkpt lat="43.2109782" lon="17.1168962"><ele>126.0</ele><time>2026-05-04T14:16:55.616Z</time></trkpt><trkpt lat="43.2111379" lon="17.1167098"><ele>123.0</ele><time>2026-05-04T14:16:56.616Z</time></trkpt><trkpt lat="43.2112926" lon="17.1165457"><ele>120.0</ele><time>2026-05-04T14:16:57.616Z</time></trkpt><trkpt lat="43.2114599" lon="17.1163913"><ele>117.0</ele><time>2026-05-04T14:16:58.615Z</time></trkpt><trkpt lat="43.2116356" lon="17.1162419"><ele>117.0</ele><time>2026-05-04T14:16:59.615Z</time></trkpt><trkpt lat="43.2118246" lon="17.116103"><ele>117.0</ele><time>2026-05-04T14:17:00.615Z</time></trkpt><trkpt lat="43.2120194" lon="17.1159751"><ele>117.0</ele><time>2026-05-04T14:17:01.615Z</time></trkpt><trkpt lat="43.2122162" lon="17.1158745"><ele>123.33333333333334</ele><time>2026-05-04T14:17:02.615Z</time></trkpt><trkpt lat="43.2124118" lon="17.1157758"><ele>129.66666666666669</ele><time>2026-05-04T14:17:03.614Z</time></trkpt><trkpt lat="43.2126189" lon="17.1156929"><ele>136.0</ele><time>2026-05-04T14:17:04.616Z</time></trkpt><trkpt lat="43.2128251" lon="17.1156164"><ele>125.33333333333334</ele><time>2026-05-04T14:17:05.615Z</time></trkpt><trkpt lat="43.2130333" lon="17.1155508"><ele>114.66666666666666</ele><time>2026-05-04T14:17:06.615Z</time></trkpt><trkpt lat="43.21324" lon="17.1154903"><ele>104.0</ele><time>2026-05-04T14:17:07.616Z</time></trkpt><trkpt lat="43.2134457" lon="17.1154161"><ele>104.0</ele><time>2026-05-04T14:17:08.614Z</time></trkpt><trkpt lat="43.2136509" lon="17.1153387"><ele>104.0</ele><time>2026-05-04T14:17:09.616Z</time></trkpt><trkpt lat="43.2138512" lon="17.1152437"><ele>104.0</ele><time>2026-05-04T14:17:10.616Z</time></trkpt><trkpt lat="43.2140511" lon="17.1151419"><ele>107.66666666666666</ele><time>2026-05-04T14:17:11.616Z</time></trkpt><trkpt lat="43.2142585" lon="17.1150315"><ele>111.33333333333334</ele><time>2026-05-04T14:17:12.615Z</time></trkpt><trkpt lat="43.2144477" lon="17.1149264"><ele>115.0</ele><time>2026-05-04T14:17:13.615Z</time></trkpt><trkpt lat="43.2146329" lon="17.1148329"><ele>104.33333333333334</ele><time>2026-05-04T14:17:14.615Z</time></trkpt><trkpt lat="43.2148251" lon="17.1147578"><ele>93.66666666666667</ele><time>2026-05-04T14:17:15.616Z</time></trkpt><trkpt lat="43.2150097" lon="17.1146993"><ele>83.0</ele><time>2026-05-04T14:17:16.615Z</time></trkpt><trkpt lat="43.2152076" lon="17.1146862"><ele>83.0</ele><time>2026-05-04T14:17:17.615Z</time></trkpt><trkpt lat="43.2154143" lon="17.114696"><ele>83.0</ele><time>2026-05-04T14:17:18.616Z</time></trkpt><trkpt lat="43.2156319" lon="17.1147322"><ele>83.0</ele><time>2026-05-04T14:17:19.616Z</time></trkpt><trkpt lat="43.2158526" lon="17.1147796"><ele>85.0</ele><time>2026-05-04T14:17:20.615Z</time></trkpt><trkpt lat="43.2160815" lon="17.1148301"><ele>87.0</ele><time>2026-05-04T14:17:21.616Z</time></trkpt><trkpt lat="43.2163059" lon="17.1148866"><ele>93.33333333333334</ele><time>2026-05-04T14:17:22.615Z</time></trkpt><trkpt lat="43.2165128" lon="17.1149259"><ele>99.66666666666667</ele><time>2026-05-04T14:17:23.615Z</time></trkpt><trkpt lat="43.2167053" lon="17.1149559"><ele>106.0</ele><time>2026-05-04T14:17:24.616Z</time></trkpt><trkpt lat="43.2169079" lon="17.1149553"><ele>106.0</ele><time>2026-05-04T14:17:25.616Z</time></trkpt><trkpt lat="43.2170955" lon="17.1149291"><ele>106.0</ele><time>2026-05-04T14:17:26.616Z</time></trkpt><trkpt lat="43.2172845" lon="17.1148798"><ele>106.0</ele><time>2026-05-04T14:17:27.616Z</time></trkpt><trkpt lat="43.2174781" lon="17.1147897"><ele>101.0</ele><time>2026-05-04T14:17:28.615Z</time></trkpt><trkpt lat="43.2176658" lon="17.1146753"><ele>96.0</ele><time>2026-05-04T14:17:29.616Z</time></trkpt><trkpt lat="43.217842" lon="17.1145283"><ele>91.0</ele><time>2026-05-04T14:17:30.615Z</time></trkpt><trkpt lat="43.2180066" lon="17.1143396"><ele>92.66666666666666</ele><time>2026-05-04T14:17:31.616Z</time></trkpt><trkpt lat="43.2181523" lon="17.1141221"><ele>94.33333333333333</ele><time>2026-05-04T14:17:32.616Z</time></trkpt><trkpt lat="43.2182916" lon="17.1138973"><ele>96.0</ele><time>2026-05-04T14:17:33.616Z</time></trkpt><trkpt lat="43.2184267" lon="17.11368"><ele>92.33333333333333</ele><time>2026-05-04T14:17:34.616Z</time></trkpt><trkpt lat="43.2185637" lon="17.1134725"><ele>88.66666666666666</ele><time>2026-05-04T14:17:35.615Z</time></trkpt><trkpt lat="43.2186996" lon="17.1132802"><ele>85.0</ele><time>2026-05-04T14:17:36.615Z</time></trkpt><trkpt lat="43.2188402" lon="17.1131078"><ele>83.33333333333333</ele><time>2026-05-04T14:17:37.616Z</time></trkpt><trkpt lat="43.2189961" lon="17.1129551"><ele>81.66666666666667</ele><time>2026-05-04T14:17:38.614Z</time></trkpt><trkpt lat="43.2191575" lon="17.1128313"><ele>80.0</ele><time>2026-05-04T14:17:39.616Z</time></trkpt><trkpt lat="43.2193339" lon="17.1127267"><ele>80.0</ele><time>2026-05-04T14:17:40.615Z</time></trkpt><trkpt lat="43.2195246" lon="17.1126401"><ele>80.0</ele><time>2026-05-04T14:17:41.616Z</time></trkpt><trkpt lat="43.2197308" lon="17.1125663"><ele>80.0</ele><time>2026-05-04T14:17:42.616Z</time></trkpt><trkpt lat="43.219941" lon="17.1124936"><ele>80.33333333333334</ele><time>2026-05-04T14:17:43.616Z</time></trkpt><trkpt lat="43.2201543" lon="17.1124183"><ele>80.66666666666667</ele><time>2026-05-04T14:17:44.616Z</time></trkpt><trkpt lat="43.2203601" lon="17.11234"><ele>81.0</ele><time>2026-05-04T14:17:45.616Z</time></trkpt><trkpt lat="43.2205662" lon="17.1122486"><ele>76.66666666666667</ele><time>2026-05-04T14:17:46.616Z</time></trkpt><trkpt lat="43.2207655" lon="17.1121506"><ele>72.33333333333334</ele><time>2026-05-04T14:17:47.616Z</time></trkpt><trkpt lat="43.2209652" lon="17.112045"><ele>68.0</ele><time>2026-05-04T14:17:48.616Z</time></trkpt><trkpt lat="43.2211694" lon="17.1119298"><ele>68.0</ele><time>2026-05-04T14:17:49.616Z</time></trkpt><trkpt lat="43.2213632" lon="17.1118048"><ele>68.0</ele><time>2026-05-04T14:17:50.616Z</time></trkpt><trkpt lat="43.2215648" lon="17.1116649"><ele>68.0</ele><time>2026-05-04T14:17:51.616Z</time></trkpt><trkpt lat="43.2217658" lon="17.1115006"><ele>62.5</ele><time>2026-05-04T14:17:52.615Z</time></trkpt><trkpt lat="43.221978" lon="17.1113208"><ele>57.0</ele><time>2026-05-04T14:17:53.615Z</time></trkpt><trkpt lat="43.2221952" lon="17.1111391"><ele>63.0</ele><time>2026-05-04T14:17:54.616Z</time></trkpt><trkpt lat="43.2224098" lon="17.1109557"><ele>69.0</ele><time>2026-05-04T14:17:55.615Z</time></trkpt><trkpt lat="43.2226192" lon="17.1107731"><ele>58.5</ele><time>2026-05-04T14:17:56.615Z</time></trkpt><trkpt lat="43.2228175" lon="17.1105964"><ele>48.0</ele><time>2026-05-04T14:17:57.614Z</time></trkpt><trkpt lat="43.2230063" lon="17.1104174"><ele>53.0</ele><time>2026-05-04T14:17:58.615Z</time></trkpt><trkpt lat="43.2231832" lon="17.1102613"><ele>58.0</ele><time>2026-05-04T14:17:59.615Z</time></trkpt><trkpt lat="43.2233646" lon="17.1101222"><ele>63.0</ele><time>2026-05-04T14:18:00.616Z</time></trkpt><trkpt lat="43.2235521" lon="17.1100032"><ele>56.666666666666664</ele><time>2026-05-04T14:18:01.616Z</time></trkpt><trkpt lat="43.2237374" lon="17.1099029"><ele>50.33333333333333</ele><time>2026-05-04T14:18:02.616Z</time></trkpt><trkpt lat="43.2239516" lon="17.1098348"><ele>44.0</ele><time>2026-05-04T14:18:03.614Z</time></trkpt><trkpt lat="43.2241646" lon="17.1097895"><ele>44.0</ele><time>2026-05-04T14:18:04.615Z</time></trkpt><trkpt lat="43.2243742" lon="17.1097594"><ele>44.0</ele><time>2026-05-04T14:18:05.616Z</time></trkpt><trkpt lat="43.2245951" lon="17.1097202"><ele>44.0</ele><time>2026-05-04T14:18:06.616Z</time></trkpt><trkpt lat="43.2248043" lon="17.109658"><ele>45.666666666666664</ele><time>2026-05-04T14:18:07.616Z</time></trkpt><trkpt lat="43.2250105" lon="17.1095704"><ele>47.33333333333333</ele><time>2026-05-04T14:18:08.616Z</time></trkpt><trkpt lat="43.2252162" lon="17.1094402"><ele>49.0</ele><time>2026-05-04T14:18:09.616Z</time></trkpt><trkpt lat="43.2254283" lon="17.1092728"><ele>49.0</ele><time>2026-05-04T14:18:10.615Z</time></trkpt><trkpt lat="43.2256298" lon="17.1090939"><ele>49.0</ele><time>2026-05-04T14:18:11.615Z</time></trkpt><trkpt lat="43.2258276" lon="17.1089059"><ele>43.0</ele><time>2026-05-04T14:18:12.616Z</time></trkpt><trkpt lat="43.2260363" lon="17.108717"><ele>37.0</ele><time>2026-05-04T14:18:13.615Z</time></trkpt><trkpt lat="43.2262477" lon="17.1085202"><ele>37.0</ele><time>2026-05-04T14:18:14.616Z</time></trkpt><trkpt lat="43.2264644" lon="17.1083235"><ele>37.0</ele><time>2026-05-04T14:18:15.615Z</time></trkpt><trkpt lat="43.2266831" lon="17.1081231"><ele>36.5</ele><time>2026-05-04T14:18:16.615Z</time></trkpt><trkpt lat="43.2268998" lon="17.1079131"><ele>36.0</ele><time>2026-05-04T14:18:17.616Z</time></trkpt><trkpt lat="43.2271097" lon="17.1077006"><ele>40.5</ele><time>2026-05-04T14:18:18.615Z</time></trkpt><trkpt lat="43.22732" lon="17.1074784"><ele>45.0</ele><time>2026-05-04T14:18:19.615Z</time></trkpt><trkpt lat="43.2275238" lon="17.1072437"><ele>45.0</ele><time>2026-05-04T14:18:20.616Z</time></trkpt><trkpt lat="43.227732" lon="17.1069914"><ele>45.0</ele><time>2026-05-04T14:18:21.616Z</time></trkpt><trkpt lat="43.2279252" lon="17.1067345"><ele>49.5</ele><time>2026-05-04T14:18:22.615Z</time></trkpt><trkpt lat="43.2281088" lon="17.1064718"><ele>54.0</ele><time>2026-05-04T14:18:23.615Z</time></trkpt><trkpt lat="43.228282" lon="17.1061999"><ele>54.0</ele><time>2026-05-04T14:18:24.616Z</time></trkpt><trkpt lat="43.2284498" lon="17.1059181"><ele>54.0</ele><time>2026-05-04T14:18:25.616Z</time></trkpt><trkpt lat="43.2286112" lon="17.1056282"><ele>43.5</ele><time>2026-05-04T14:18:26.615Z</time></trkpt><trkpt lat="43.22876" lon="17.1053283"><ele>33.0</ele><time>2026-05-04T14:18:27.615Z</time></trkpt><trkpt lat="43.2289035" lon="17.1050249"><ele>44.5</ele><time>2026-05-04T14:18:28.616Z</time></trkpt><trkpt lat="43.2290379" lon="17.1047093"><ele>56.0</ele><time>2026-05-04T14:18:29.615Z</time></trkpt><trkpt lat="43.229167" lon="17.1043806"><ele>50.0</ele><time>2026-05-04T14:18:30.616Z</time></trkpt><trkpt lat="43.2292927" lon="17.1040495"><ele>44.0</ele><time>2026-05-04T14:18:31.615Z</time></trkpt><trkpt lat="43.2294212" lon="17.1037197"><ele>44.0</ele><time>2026-05-04T14:18:32.616Z</time></trkpt><trkpt lat="43.229541" lon="17.1033885"><ele>44.0</ele><time>2026-05-04T14:18:33.615Z</time></trkpt><trkpt lat="43.2296572" lon="17.1030518"><ele>48.5</ele><time>2026-05-04T14:18:34.615Z</time></trkpt><trkpt lat="43.2297675" lon="17.1027148"><ele>53.0</ele><time>2026-05-04T14:18:35.615Z</time></trkpt><trkpt lat="43.2298641" lon="17.1023646"><ele>53.0</ele><time>2026-05-04T14:18:36.615Z</time></trkpt><trkpt lat="43.2299506" lon="17.1020001"><ele>53.0</ele><time>2026-05-04T14:18:37.615Z</time></trkpt><trkpt lat="43.2300172" lon="17.101634"><ele>51.0</ele><time>2026-05-04T14:18:38.614Z</time></trkpt><trkpt lat="43.2300696" lon="17.101268"><ele>49.0</ele><time>2026-05-04T14:18:39.615Z</time></trkpt><trkpt lat="43.2301209" lon="17.1008914"><ele>49.5</ele><time>2026-05-04T14:18:40.616Z</time></trkpt><trkpt lat="43.2301495" lon="17.1005235"><ele>50.0</ele><time>2026-05-04T14:18:41.616Z</time></trkpt><trkpt lat="43.2301651" lon="17.1001606"><ele>51.0</ele><time>2026-05-04T14:18:42.615Z</time></trkpt><trkpt lat="43.2301649" lon="17.0998116"><ele>52.0</ele><time>2026-05-04T14:18:43.616Z</time></trkpt><trkpt lat="43.2301545" lon="17.0994762"><ele>52.0</ele><time>2026-05-04T14:18:44.614Z</time></trkpt><trkpt lat="43.2301351" lon="17.0991362"><ele>52.0</ele><time>2026-05-04T14:18:45.616Z</time></trkpt><trkpt lat="43.2301056" lon="17.0987928"><ele>52.5</ele><time>2026-05-04T14:18:46.615Z</time></trkpt><trkpt lat="43.2300545" lon="17.0984539"><ele>53.0</ele><time>2026-05-04T14:18:47.615Z</time></trkpt><trkpt lat="43.229999" lon="17.0981187"><ele>54.5</ele><time>2026-05-04T14:18:48.616Z</time></trkpt><trkpt lat="43.2299359" lon="17.0977843"><ele>56.0</ele><time>2026-05-04T14:18:49.616Z</time></trkpt><trkpt lat="43.2298673" lon="17.097456"><ele>51.0</ele><time>2026-05-04T14:18:50.616Z</time></trkpt><trkpt lat="43.2297999" lon="17.0971227"><ele>46.0</ele><time>2026-05-04T14:18:51.616Z</time></trkpt><trkpt lat="43.2297351" lon="17.0967892"><ele>46.5</ele><time>2026-05-04T14:18:52.616Z</time></trkpt><trkpt lat="43.2296747" lon="17.0964643"><ele>47.0</ele><time>2026-05-04T14:18:53.616Z</time></trkpt><trkpt lat="43.2296195" lon="17.0961488"><ele>47.0</ele><time>2026-05-04T14:18:54.616Z</time></trkpt><trkpt lat="43.229565" lon="17.0958466"><ele>47.0</ele><time>2026-05-04T14:18:55.615Z</time></trkpt><trkpt lat="43.2295245" lon="17.0955437"><ele>47.0</ele><time>2026-05-04T14:18:56.615Z</time></trkpt><trkpt lat="43.2294958" lon="17.0952435"><ele>47.0</ele><time>2026-05-04T14:18:57.616Z</time></trkpt><trkpt lat="43.2294844" lon="17.0949377"><ele>47.0</ele><time>2026-05-04T14:18:58.615Z</time></trkpt><trkpt lat="43.2294889" lon="17.0946339"><ele>46.33333333333333</ele><time>2026-05-04T14:18:59.616Z</time></trkpt><trkpt lat="43.2295006" lon="17.0943437"><ele>45.666666666666664</ele><time>2026-05-04T14:19:00.616Z</time></trkpt><trkpt lat="43.2295278" lon="17.0940564"><ele>45.0</ele><time>2026-05-04T14:19:01.614Z</time></trkpt><trkpt lat="43.2295699" lon="17.093766"><ele>42.666666666666664</ele><time>2026-05-04T14:19:02.615Z</time></trkpt><trkpt lat="43.229619" lon="17.0934873"><ele>40.33333333333333</ele><time>2026-05-04T14:19:03.615Z</time></trkpt><trkpt lat="43.2296783" lon="17.0932085"><ele>38.0</ele><time>2026-05-04T14:19:04.614Z</time></trkpt><trkpt lat="43.2297554" lon="17.0929305"><ele>37.33333333333333</ele><time>2026-05-04T14:19:05.615Z</time></trkpt><trkpt lat="43.2298447" lon="17.092662"><ele>36.666666666666664</ele><time>2026-05-04T14:19:06.614Z</time></trkpt><trkpt lat="43.2299422" lon="17.0923871"><ele>36.0</ele><time>2026-05-04T14:19:07.616Z</time></trkpt><trkpt lat="43.2300563" lon="17.0921276"><ele>36.0</ele><time>2026-05-04T14:19:08.615Z</time></trkpt><trkpt lat="43.2301924" lon="17.0918666"><ele>36.0</ele><time>2026-05-04T14:19:09.616Z</time></trkpt><trkpt lat="43.2303313" lon="17.0916305"><ele>41.0</ele><time>2026-05-04T14:19:10.615Z</time></trkpt><trkpt lat="43.2304839" lon="17.0913954"><ele>46.0</ele><time>2026-05-04T14:19:11.616Z</time></trkpt><trkpt lat="43.2306471" lon="17.0911562"><ele>46.0</ele><time>2026-05-04T14:19:12.615Z</time></trkpt><trkpt lat="43.2308258" lon="17.0909187"><ele>46.0</ele><time>2026-05-04T14:19:13.616Z</time></trkpt><trkpt lat="43.2310102" lon="17.0906864"><ele>34.5</ele><time>2026-05-04T14:19:14.614Z</time></trkpt><trkpt lat="43.2311976" lon="17.0904485"><ele>23.0</ele><time>2026-05-04T14:19:15.616Z</time></trkpt><trkpt lat="43.231373" lon="17.0902208"><ele>27.5</ele><time>2026-05-04T14:19:16.616Z</time></trkpt><trkpt lat="43.2315555" lon="17.0899967"><ele>32.0</ele><time>2026-05-04T14:19:17.616Z</time></trkpt><trkpt lat="43.2317382" lon="17.0897751"><ele>32.0</ele><time>2026-05-04T14:19:18.616Z</time></trkpt><trkpt lat="43.2319153" lon="17.0895587"><ele>32.0</ele><time>2026-05-04T14:19:19.616Z</time></trkpt><trkpt lat="43.2320937" lon="17.0893421"><ele>32.0</ele><time>2026-05-04T14:19:20.616Z</time></trkpt><trkpt lat="43.2322636" lon="17.0891257"><ele>32.0</ele><time>2026-05-04T14:19:21.614Z</time></trkpt><trkpt lat="43.2324292" lon="17.0889129"><ele>34.0</ele><time>2026-05-04T14:19:22.616Z</time></trkpt><trkpt lat="43.2326048" lon="17.0887024"><ele>36.0</ele><time>2026-05-04T14:19:23.614Z</time></trkpt><trkpt lat="43.2327663" lon="17.0885019"><ele>36.0</ele><time>2026-05-04T14:19:24.616Z</time></trkpt><trkpt lat="43.2329246" lon="17.0883107"><ele>36.0</ele><time>2026-05-04T14:19:25.615Z</time></trkpt><trkpt lat="43.2330649" lon="17.088135"><ele>36.0</ele><time>2026-05-04T14:19:26.615Z</time></trkpt><trkpt lat="43.2331941" lon="17.0879637"><ele>35.333333333333336</ele><time>2026-05-04T14:19:27.615Z</time></trkpt><trkpt lat="43.2333168" lon="17.0877968"><ele>34.66666666666667</ele><time>2026-05-04T14:19:28.616Z</time></trkpt><trkpt lat="43.2334384" lon="17.0876442"><ele>34.0</ele><time>2026-05-04T14:19:29.615Z</time></trkpt><trkpt lat="43.2335568" lon="17.0874945"><ele>31.25</ele><time>2026-05-04T14:19:30.615Z</time></trkpt><trkpt lat="43.2336697" lon="17.0873517"><ele>28.5</ele><time>2026-05-04T14:19:31.616Z</time></trkpt><trkpt lat="43.2337781" lon="17.0872011"><ele>25.75</ele><time>2026-05-04T14:19:32.615Z</time></trkpt><trkpt lat="43.233858" lon="17.0870489"><ele>23.0</ele><time>2026-05-04T14:19:33.616Z</time></trkpt><trkpt lat="43.2339168" lon="17.086901"><ele>28.5</ele><time>2026-05-04T14:19:34.616Z</time></trkpt><trkpt lat="43.2339747" lon="17.0867211"><ele>34.0</ele><time>2026-05-04T14:19:35.616Z</time></trkpt><trkpt lat="43.2340066" lon="17.0865341"><ele>39.5</ele><time>2026-05-04T14:19:36.615Z</time></trkpt><trkpt lat="43.2340291" lon="17.0863324"><ele>45.0</ele><time>2026-05-04T14:19:37.615Z</time></trkpt><trkpt lat="43.2340353" lon="17.0861337"><ele>45.0</ele><time>2026-05-04T14:19:38.616Z</time></trkpt><trkpt lat="43.2340358" lon="17.0859264"><ele>45.0</ele><time>2026-05-04T14:19:39.616Z</time></trkpt><trkpt lat="43.2340223" lon="17.0857241"><ele>45.0</ele><time>2026-05-04T14:19:40.615Z</time></trkpt><trkpt lat="43.2340113" lon="17.0855162"><ele>44.75</ele><time>2026-05-04T14:19:41.615Z</time></trkpt><trkpt lat="43.2339951" lon="17.0853108"><ele>44.5</ele><time>2026-05-04T14:19:42.616Z</time></trkpt><trkpt lat="43.2339839" lon="17.0851089"><ele>44.25</ele><time>2026-05-04T14:19:43.615Z</time></trkpt><trkpt lat="43.2339779" lon="17.0849063"><ele>44.0</ele><time>2026-05-04T14:19:44.615Z</time></trkpt><trkpt lat="43.2339794" lon="17.0847048"><ele>44.0</ele><time>2026-05-04T14:19:45.615Z</time></trkpt><trkpt lat="43.2339811" lon="17.0845074"><ele>44.0</ele><time>2026-05-04T14:19:46.616Z</time></trkpt><trkpt lat="43.2339912" lon="17.0843111"><ele>44.0</ele><time>2026-05-04T14:19:47.615Z</time></trkpt><trkpt lat="43.2340157" lon="17.084116"><ele>44.0</ele><time>2026-05-04T14:19:48.616Z</time></trkpt><trkpt lat="43.2340451" lon="17.083934"><ele>42.5</ele><time>2026-05-04T14:19:49.616Z</time></trkpt><trkpt lat="43.2340832" lon="17.0837531"><ele>41.0</ele><time>2026-05-04T14:19:50.615Z</time></trkpt><trkpt lat="43.2341314" lon="17.0835712"><ele>39.5</ele><time>2026-05-04T14:19:51.616Z</time></trkpt><trkpt lat="43.2341803" lon="17.0833983"><ele>38.0</ele><time>2026-05-04T14:19:52.616Z</time></trkpt><trkpt lat="43.2342379" lon="17.0832203"><ele>37.0</ele><time>2026-05-04T14:19:53.616Z</time></trkpt><trkpt lat="43.2342956" lon="17.0830509"><ele>36.0</ele><time>2026-05-04T14:19:54.616Z</time></trkpt><trkpt lat="43.2343625" lon="17.0828767"><ele>35.0</ele><time>2026-05-04T14:19:55.616Z</time></trkpt><trkpt lat="43.2344201" lon="17.082712"><ele>34.0</ele><time>2026-05-04T14:19:56.616Z</time></trkpt><trkpt lat="43.2344875" lon="17.0825394"><ele>31.666666666666668</ele><time>2026-05-04T14:19:57.615Z</time></trkpt><trkpt lat="43.2345509" lon="17.0823729"><ele>29.333333333333336</ele><time>2026-05-04T14:19:58.615Z</time></trkpt><trkpt lat="43.2346245" lon="17.0821905"><ele>27.0</ele><time>2026-05-04T14:19:59.616Z</time></trkpt><trkpt lat="43.2347018" lon="17.0819914"><ele>27.0</ele><time>2026-05-04T14:20:00.616Z</time></trkpt><trkpt lat="43.2347839" lon="17.0817833"><ele>27.0</ele><time>2026-05-04T14:20:01.615Z</time></trkpt><trkpt lat="43.2348765" lon="17.0815635"><ele>27.0</ele><time>2026-05-04T14:20:02.615Z</time></trkpt><trkpt lat="43.2349747" lon="17.0813434"><ele>28.666666666666664</ele><time>2026-05-04T14:20:03.616Z</time></trkpt><trkpt lat="43.2350742" lon="17.0811374"><ele>30.333333333333332</ele><time>2026-05-04T14:20:04.615Z</time></trkpt><trkpt lat="43.235182" lon="17.0809313"><ele>32.0</ele><time>2026-05-04T14:20:05.616Z</time></trkpt><trkpt lat="43.2352911" lon="17.0807353"><ele>32.0</ele><time>2026-05-04T14:20:06.615Z</time></trkpt><trkpt lat="43.2354089" lon="17.0805413"><ele>32.0</ele><time>2026-05-04T14:20:07.616Z</time></trkpt><trkpt lat="43.2355344" lon="17.0803477"><ele>32.0</ele><time>2026-05-04T14:20:08.616Z</time></trkpt><trkpt lat="43.2356597" lon="17.0801686"><ele>33.33333333333333</ele><time>2026-05-04T14:20:09.616Z</time></trkpt><trkpt lat="43.2358025" lon="17.0799974"><ele>34.666666666666664</ele><time>2026-05-04T14:20:10.615Z</time></trkpt><trkpt lat="43.2359374" lon="17.079839"><ele>36.0</ele><time>2026-05-04T14:20:11.615Z</time></trkpt><trkpt lat="43.23607" lon="17.0796861"><ele>35.333333333333336</ele><time>2026-05-04T14:20:12.615Z</time></trkpt><trkpt lat="43.2362193" lon="17.0795327"><ele>34.66666666666667</ele><time>2026-05-04T14:20:13.616Z</time></trkpt><trkpt lat="43.2363678" lon="17.0793945"><ele>34.0</ele><time>2026-05-04T14:20:14.615Z</time></trkpt><trkpt lat="43.2365167" lon="17.0792636"><ele>34.0</ele><time>2026-05-04T14:20:15.615Z</time></trkpt><trkpt lat="43.2366662" lon="17.0791365"><ele>34.0</ele><time>2026-05-04T14:20:16.616Z</time></trkpt><trkpt lat="43.236818" lon="17.0790156"><ele>34.0</ele><time>2026-05-04T14:20:17.616Z</time></trkpt><trkpt lat="43.2369744" lon="17.0789116"><ele>33.0</ele><time>2026-05-04T14:20:18.616Z</time></trkpt><trkpt lat="43.2371245" lon="17.078812"><ele>32.0</ele><time>2026-05-04T14:20:19.616Z</time></trkpt><trkpt lat="43.2372796" lon="17.0787286"><ele>31.0</ele><time>2026-05-04T14:20:20.616Z</time></trkpt><trkpt lat="43.2374359" lon="17.0786391"><ele>31.0</ele><time>2026-05-04T14:20:21.616Z</time></trkpt><trkpt lat="43.2375902" lon="17.0785693"><ele>31.0</ele><time>2026-05-04T14:20:22.615Z</time></trkpt><trkpt lat="43.2377564" lon="17.0785022"><ele>31.0</ele><time>2026-05-04T14:20:23.616Z</time></trkpt><trkpt lat="43.237922" lon="17.0784449"><ele>31.0</ele><time>2026-05-04T14:20:24.615Z</time></trkpt><trkpt lat="43.2380795" lon="17.0783963"><ele>31.0</ele><time>2026-05-04T14:20:25.615Z</time></trkpt><trkpt lat="43.238236" lon="17.0783543"><ele>31.0</ele><time>2026-05-04T14:20:26.616Z</time></trkpt><trkpt lat="43.2383883" lon="17.0783215"><ele>30.0</ele><time>2026-05-04T14:20:27.615Z</time></trkpt><trkpt lat="43.2385366" lon="17.078295"><ele>29.0</ele><time>2026-05-04T14:20:28.616Z</time></trkpt><trkpt lat="43.2386881" lon="17.0782754"><ele>28.0</ele><time>2026-05-04T14:20:29.616Z</time></trkpt><trkpt lat="43.2388425" lon="17.0782519"><ele>25.0</ele><time>2026-05-04T14:20:30.616Z</time></trkpt><trkpt lat="43.2389962" lon="17.0782425"><ele>22.0</ele><time>2026-05-04T14:20:31.616Z</time></trkpt><trkpt lat="43.2391522" lon="17.0782411"><ele>19.0</ele><time>2026-05-04T14:20:32.616Z</time></trkpt><trkpt lat="43.2393105" lon="17.0782475"><ele>19.0</ele><time>2026-05-04T14:20:33.616Z</time></trkpt><trkpt lat="43.239473" lon="17.0782645"><ele>19.0</ele><time>2026-05-04T14:20:34.616Z</time></trkpt><trkpt lat="43.2396331" lon="17.0782761"><ele>19.0</ele><time>2026-05-04T14:20:35.616Z</time></trkpt><trkpt lat="43.2397824" lon="17.0783042"><ele>22.333333333333332</ele><time>2026-05-04T14:20:36.616Z</time></trkpt><trkpt lat="43.2399393" lon="17.0783324"><ele>25.666666666666664</ele><time>2026-05-04T14:20:37.615Z</time></trkpt><trkpt lat="43.2400971" lon="17.0783676"><ele>29.0</ele><time>2026-05-04T14:20:38.615Z</time></trkpt><trkpt lat="43.2402555" lon="17.0784084"><ele>29.0</ele><time>2026-05-04T14:20:39.615Z</time></trkpt><trkpt lat="43.2404165" lon="17.0784462"><ele>29.0</ele><time>2026-05-04T14:20:40.616Z</time></trkpt><trkpt lat="43.240582" lon="17.0784841"><ele>29.0</ele><time>2026-05-04T14:20:41.616Z</time></trkpt><trkpt lat="43.2407488" lon="17.0785248"><ele>27.333333333333332</ele><time>2026-05-04T14:20:42.615Z</time></trkpt><trkpt lat="43.240912" lon="17.0785591"><ele>25.666666666666664</ele><time>2026-05-04T14:20:43.616Z</time></trkpt><trkpt lat="43.2410713" lon="17.0785777"><ele>24.0</ele><time>2026-05-04T14:20:44.616Z</time></trkpt><trkpt lat="43.2412291" lon="17.078556"><ele>24.0</ele><time>2026-05-04T14:20:45.616Z</time></trkpt><trkpt lat="43.2413806" lon="17.0785127"><ele>24.0</ele><time>2026-05-04T14:20:46.616Z</time></trkpt><trkpt lat="43.241531" lon="17.0784482"><ele>24.0</ele><time>2026-05-04T14:20:47.616Z</time></trkpt><trkpt lat="43.2416698" lon="17.0783474"><ele>20.666666666666668</ele><time>2026-05-04T14:20:48.615Z</time></trkpt><trkpt lat="43.2417936" lon="17.0782139"><ele>17.333333333333336</ele><time>2026-05-04T14:20:49.616Z</time></trkpt><trkpt lat="43.2419036" lon="17.0780534"><ele>14.0</ele><time>2026-05-04T14:20:50.616Z</time></trkpt><trkpt lat="43.2419983" lon="17.0778718"><ele>14.0</ele><time>2026-05-04T14:20:51.615Z</time></trkpt><trkpt lat="43.2420801" lon="17.0776703"><ele>14.0</ele><time>2026-05-04T14:20:52.615Z</time></trkpt><trkpt lat="43.2421503" lon="17.077458"><ele>14.0</ele><time>2026-05-04T14:20:53.616Z</time></trkpt><trkpt lat="43.2422213" lon="17.0772435"><ele>13.666666666666668</ele><time>2026-05-04T14:20:54.616Z</time></trkpt><trkpt lat="43.2422936" lon="17.0770275"><ele>13.333333333333332</ele><time>2026-05-04T14:20:55.616Z</time></trkpt><trkpt lat="43.2423654" lon="17.0768103"><ele>13.0</ele><time>2026-05-04T14:20:56.615Z</time></trkpt><trkpt lat="43.2424428" lon="17.0766085"><ele>16.0</ele><time>2026-05-04T14:20:57.615Z</time></trkpt><trkpt lat="43.2425347" lon="17.0764174"><ele>19.0</ele><time>2026-05-04T14:20:58.615Z</time></trkpt><trkpt lat="43.2426405" lon="17.0762442"><ele>22.0</ele><time>2026-05-04T14:20:59.616Z</time></trkpt><trkpt lat="43.2427657" lon="17.0760925"><ele>22.0</ele><time>2026-05-04T14:21:00.615Z</time></trkpt><trkpt lat="43.242917" lon="17.0759687"><ele>22.0</ele><time>2026-05-04T14:21:01.616Z</time></trkpt><trkpt lat="43.2430787" lon="17.075868"><ele>22.0</ele><time>2026-05-04T14:21:02.615Z</time></trkpt><trkpt lat="43.2432657" lon="17.0757868"><ele>19.333333333333332</ele><time>2026-05-04T14:21:03.615Z</time></trkpt><trkpt lat="43.2434542" lon="17.0757186"><ele>16.666666666666668</ele><time>2026-05-04T14:21:04.616Z</time></trkpt><trkpt lat="43.2436525" lon="17.0756549"><ele>14.0</ele><time>2026-05-04T14:21:05.616Z</time></trkpt><trkpt lat="43.2438481" lon="17.0755933"><ele>14.0</ele><time>2026-05-04T14:21:06.615Z</time></trkpt><trkpt lat="43.2440389" lon="17.07553"><ele>14.0</ele><time>2026-05-04T14:21:07.616Z</time></trkpt><trkpt lat="43.2442229" lon="17.0754708"><ele>14.0</ele><time>2026-05-04T14:21:08.616Z</time></trkpt><trkpt lat="43.2443969" lon="17.0754184"><ele>14.0</ele><time>2026-05-04T14:21:09.616Z</time></trkpt><trkpt lat="43.244569" lon="17.075353"><ele>14.0</ele><time>2026-05-04T14:21:10.616Z</time></trkpt><trkpt lat="43.2447382" lon="17.07528"><ele>14.0</ele><time>2026-05-04T14:21:11.616Z</time></trkpt><trkpt lat="43.2448964" lon="17.0751811"><ele>15.0</ele><time>2026-05-04T14:21:12.616Z</time></trkpt><trkpt lat="43.2450359" lon="17.0750578"><ele>16.0</ele><time>2026-05-04T14:21:13.616Z</time></trkpt><trkpt lat="43.2451591" lon="17.07491"><ele>17.0</ele><time>2026-05-04T14:21:14.615Z</time></trkpt><trkpt lat="43.2452552" lon="17.0747426"><ele>17.0</ele><time>2026-05-04T14:21:15.616Z</time></trkpt><trkpt lat="43.2453304" lon="17.0745587"><ele>17.0</ele><time>2026-05-04T14:21:16.616Z</time></trkpt><trkpt lat="43.2453864" lon="17.0743476"><ele>17.0</ele><time>2026-05-04T14:21:17.615Z</time></trkpt><trkpt lat="43.2454238" lon="17.0741136"><ele>18.0</ele><time>2026-05-04T14:21:18.616Z</time></trkpt><trkpt lat="43.2454257" lon="17.0738646"><ele>19.0</ele><time>2026-05-04T14:21:19.615Z</time></trkpt><trkpt lat="43.2454028" lon="17.0735996"><ele>20.0</ele><time>2026-05-04T14:21:20.615Z</time></trkpt><trkpt lat="43.2453548" lon="17.0733244"><ele>21.333333333333336</ele><time>2026-05-04T14:21:21.616Z</time></trkpt><trkpt lat="43.2452882" lon="17.0730362"><ele>22.666666666666668</ele><time>2026-05-04T14:21:22.615Z</time></trkpt><trkpt lat="43.2452183" lon="17.0727548"><ele>24.0</ele><time>2026-05-04T14:21:23.616Z</time></trkpt><trkpt lat="43.2451494" lon="17.0724756"><ele>26.333333333333336</ele><time>2026-05-04T14:21:24.615Z</time></trkpt><trkpt lat="43.2450743" lon="17.0721873"><ele>28.666666666666668</ele><time>2026-05-04T14:21:25.616Z</time></trkpt><trkpt lat="43.2450031" lon="17.0719092"><ele>31.0</ele><time>2026-05-04T14:21:26.616Z</time></trkpt><trkpt lat="43.2449375" lon="17.0716401"><ele>31.666666666666668</ele><time>2026-05-04T14:21:27.616Z</time></trkpt><trkpt lat="43.2448734" lon="17.0713869"><ele>32.333333333333336</ele><time>2026-05-04T14:21:28.616Z</time></trkpt><trkpt lat="43.244818" lon="17.0711433"><ele>33.0</ele><time>2026-05-04T14:21:29.615Z</time></trkpt><trkpt lat="43.2447723" lon="17.0708994"><ele>26.0</ele><time>2026-05-04T14:21:30.615Z</time></trkpt><trkpt lat="43.2447458" lon="17.0706603"><ele>19.0</ele><time>2026-05-04T14:21:31.616Z</time></trkpt><trkpt lat="43.2447422" lon="17.0704131"><ele>12.0</ele><time>2026-05-04T14:21:32.615Z</time></trkpt><trkpt lat="43.2447546" lon="17.0701701"><ele>14.333333333333332</ele><time>2026-05-04T14:21:33.615Z</time></trkpt><trkpt lat="43.2447964" lon="17.0699367"><ele>16.666666666666664</ele><time>2026-05-04T14:21:34.616Z</time></trkpt><trkpt lat="43.2448566" lon="17.0697224"><ele>19.0</ele><time>2026-05-04T14:21:35.616Z</time></trkpt><trkpt lat="43.2449555" lon="17.0695392"><ele>19.0</ele><time>2026-05-04T14:21:36.616Z</time></trkpt><trkpt lat="43.245076" lon="17.0693685"><ele>19.0</ele><time>2026-05-04T14:21:37.616Z</time></trkpt><trkpt lat="43.24521" lon="17.0692197"><ele>19.0</ele><time>2026-05-04T14:21:38.615Z</time></trkpt><trkpt lat="43.2453773" lon="17.0690829"><ele>16.333333333333332</ele><time>2026-05-04T14:21:39.615Z</time></trkpt><trkpt lat="43.2455433" lon="17.0689485"><ele>13.666666666666666</ele><time>2026-05-04T14:21:40.616Z</time></trkpt><trkpt lat="43.2457323" lon="17.0688544"><ele>11.0</ele><time>2026-05-04T14:21:41.614Z</time></trkpt><trkpt lat="43.2459218" lon="17.0687675"><ele>11.0</ele><time>2026-05-04T14:21:42.615Z</time></trkpt><trkpt lat="43.2461106" lon="17.0686896"><ele>11.0</ele><time>2026-05-04T14:21:43.616Z</time></trkpt><trkpt lat="43.2462885" lon="17.0686037"><ele>11.0</ele><time>2026-05-04T14:21:44.616Z</time></trkpt><trkpt lat="43.2464587" lon="17.0684919"><ele>9.666666666666666</ele><time>2026-05-04T14:21:45.615Z</time></trkpt><trkpt lat="43.2466208" lon="17.0683438"><ele>8.333333333333334</ele><time>2026-05-04T14:21:46.614Z</time></trkpt><trkpt lat="43.2467654" lon="17.0681755"><ele>7.0</ele><time>2026-05-04T14:21:47.616Z</time></trkpt><trkpt lat="43.2468972" lon="17.0679917"><ele>7.0</ele><time>2026-05-04T14:21:48.616Z</time></trkpt><trkpt lat="43.2470244" lon="17.0677904"><ele>7.0</ele><time>2026-05-04T14:21:49.614Z</time></trkpt><trkpt lat="43.2471484" lon="17.0675955"><ele>7.0</ele><time>2026-05-04T14:21:50.615Z</time></trkpt><trkpt lat="43.2472703" lon="17.0673998"><ele>9.0</ele><time>2026-05-04T14:21:51.616Z</time></trkpt><trkpt lat="43.2473991" lon="17.0672022"><ele>11.0</ele><time>2026-05-04T14:21:52.616Z</time></trkpt><trkpt lat="43.2475334" lon="17.0669904"><ele>13.0</ele><time>2026-05-04T14:21:53.615Z</time></trkpt><trkpt lat="43.2476631" lon="17.0667862"><ele>10.666666666666666</ele><time>2026-05-04T14:21:54.615Z</time></trkpt><trkpt lat="43.2477913" lon="17.066579"><ele>8.333333333333332</ele><time>2026-05-04T14:21:55.614Z</time></trkpt><trkpt lat="43.2479205" lon="17.066367"><ele>6.0</ele><time>2026-05-04T14:21:56.616Z</time></trkpt><trkpt lat="43.2480467" lon="17.0661584"><ele>7.666666666666666</ele><time>2026-05-04T14:21:57.616Z</time></trkpt><trkpt lat="43.2481761" lon="17.0659399"><ele>9.333333333333332</ele><time>2026-05-04T14:21:58.616Z</time></trkpt><trkpt lat="43.2483082" lon="17.0657173"><ele>11.0</ele><time>2026-05-04T14:21:59.615Z</time></trkpt><trkpt lat="43.2484383" lon="17.0655011"><ele>11.0</ele><time>2026-05-04T14:22:00.616Z</time></trkpt><trkpt lat="43.2485661" lon="17.0652976"><ele>11.0</ele><time>2026-05-04T14:22:01.615Z</time></trkpt><trkpt lat="43.2486879" lon="17.0651009"><ele>11.0</ele><time>2026-05-04T14:22:02.616Z</time></trkpt><trkpt lat="43.2488025" lon="17.064915"><ele>11.666666666666666</ele><time>2026-05-04T14:22:03.615Z</time></trkpt><trkpt lat="43.2489173" lon="17.064728"><ele>12.333333333333332</ele><time>2026-05-04T14:22:04.616Z</time></trkpt><trkpt lat="43.249028" lon="17.0645349"><ele>13.0</ele><time>2026-05-04T14:22:05.615Z</time></trkpt><trkpt lat="43.2491457" lon="17.0643439"><ele>13.0</ele><time>2026-05-04T14:22:06.616Z</time></trkpt><trkpt lat="43.2492636" lon="17.0641583"><ele>13.0</ele><time>2026-05-04T14:22:07.615Z</time></trkpt><trkpt lat="43.2493919" lon="17.0639774"><ele>13.0</ele><time>2026-05-04T14:22:08.616Z</time></trkpt><trkpt lat="43.2495391" lon="17.0638094"><ele>11.666666666666666</ele><time>2026-05-04T14:22:09.616Z</time></trkpt><trkpt lat="43.2496931" lon="17.0636593"><ele>10.333333333333332</ele><time>2026-05-04T14:22:10.615Z</time></trkpt><trkpt lat="43.2498634" lon="17.0635379"><ele>9.0</ele><time>2026-05-04T14:22:11.616Z</time></trkpt><trkpt lat="43.2500442" lon="17.0634328"><ele>9.0</ele><time>2026-05-04T14:22:12.615Z</time></trkpt><trkpt lat="43.250233" lon="17.0633616"><ele>9.0</ele><time>2026-05-04T14:22:13.616Z</time></trkpt><trkpt lat="43.2504196" lon="17.0633219"><ele>9.0</ele><time>2026-05-04T14:22:14.616Z</time></trkpt><trkpt lat="43.2506141" lon="17.0633022"><ele>7.666666666666667</ele><time>2026-05-04T14:22:15.615Z</time></trkpt><trkpt lat="43.2508053" lon="17.0633041"><ele>6.333333333333334</ele><time>2026-05-04T14:22:16.616Z</time></trkpt><trkpt lat="43.2509929" lon="17.0633414"><ele>5.0</ele><time>2026-05-04T14:22:17.616Z</time></trkpt><trkpt lat="43.2511843" lon="17.0633981"><ele>5.0</ele><time>2026-05-04T14:22:18.616Z</time></trkpt><trkpt lat="43.2513745" lon="17.0634687"><ele>5.0</ele><time>2026-05-04T14:22:19.615Z</time></trkpt><trkpt lat="43.2515559" lon="17.0635497"><ele>5.0</ele><time>2026-05-04T14:22:20.616Z</time></trkpt><trkpt lat="43.2517349" lon="17.0636361"><ele>4.666666666666667</ele><time>2026-05-04T14:22:21.615Z</time></trkpt><trkpt lat="43.2519152" lon="17.0637309"><ele>4.333333333333333</ele><time>2026-05-04T14:22:22.615Z</time></trkpt><trkpt lat="43.2520885" lon="17.0638439"><ele>4.0</ele><time>2026-05-04T14:22:23.615Z</time></trkpt><trkpt lat="43.2522561" lon="17.0639702"><ele>2.6666666666666665</ele><time>2026-05-04T14:22:24.616Z</time></trkpt><trkpt lat="43.2524265" lon="17.0641043"><ele>1.3333333333333333</ele><time>2026-05-04T14:22:25.615Z</time></trkpt><trkpt lat="43.2525882" lon="17.0642331"><ele>0.0</ele><time>2026-05-04T14:22:26.614Z</time></trkpt><trkpt lat="43.2527488" lon="17.0643618"><ele>1.3333333333333333</ele><time>2026-05-04T14:22:27.615Z</time></trkpt><trkpt lat="43.2529137" lon="17.0644823"><ele>2.6666666666666665</ele><time>2026-05-04T14:22:28.616Z</time></trkpt><trkpt lat="43.2530704" lon="17.0646009"><ele>4.0</ele><time>2026-05-04T14:22:29.615Z</time></trkpt><trkpt lat="43.2532214" lon="17.0647216"><ele>4.0</ele><time>2026-05-04T14:22:30.616Z</time></trkpt><trkpt lat="43.2533704" lon="17.0648243"><ele>4.0</ele><time>2026-05-04T14:22:31.616Z</time></trkpt><trkpt lat="43.2535129" lon="17.064915"><ele>4.0</ele><time>2026-05-04T14:22:32.616Z</time></trkpt><trkpt lat="43.2536668" lon="17.0649811"><ele>5.0</ele><time>2026-05-04T14:22:33.615Z</time></trkpt><trkpt lat="43.253822" lon="17.0650216"><ele>6.0</ele><time>2026-05-04T14:22:34.615Z</time></trkpt><trkpt lat="43.2539817" lon="17.065037"><ele>7.0</ele><time>2026-05-04T14:22:35.616Z</time></trkpt><trkpt lat="43.2541451" lon="17.0650216"><ele>7.0</ele><time>2026-05-04T14:22:36.616Z</time></trkpt><trkpt lat="43.254299" lon="17.0649703"><ele>7.0</ele><time>2026-05-04T14:22:37.616Z</time></trkpt><trkpt lat="43.2544494" lon="17.0648839"><ele>7.0</ele><time>2026-05-04T14:22:38.615Z</time></trkpt><trkpt lat="43.2545927" lon="17.0647685"><ele>6.0</ele><time>2026-05-04T14:22:39.615Z</time></trkpt><trkpt lat="43.254723" lon="17.0646184"><ele>5.0</ele><time>2026-05-04T14:22:40.616Z</time></trkpt><trkpt lat="43.2548426" lon="17.0644404"><ele>4.0</ele><time>2026-05-04T14:22:41.616Z</time></trkpt><trkpt lat="43.2549558" lon="17.0642513"><ele>6.666666666666666</ele><time>2026-05-04T14:22:42.616Z</time></trkpt><trkpt lat="43.2550631" lon="17.0640504"><ele>9.333333333333334</ele><time>2026-05-04T14:22:43.615Z</time></trkpt><trkpt lat="43.2551665" lon="17.0638431"><ele>12.0</ele><time>2026-05-04T14:22:44.615Z</time></trkpt><trkpt lat="43.2552711" lon="17.063644"><ele>12.0</ele><time>2026-05-04T14:22:45.615Z</time></trkpt><trkpt lat="43.2553805" lon="17.0634465"><ele>12.0</ele><time>2026-05-04T14:22:46.616Z</time></trkpt><trkpt lat="43.2554852" lon="17.0632518"><ele>12.0</ele><time>2026-05-04T14:22:47.616Z</time></trkpt><trkpt lat="43.2555923" lon="17.0630637"><ele>11.333333333333334</ele><time>2026-05-04T14:22:48.616Z</time></trkpt><trkpt lat="43.2557098" lon="17.0628895"><ele>10.666666666666668</ele><time>2026-05-04T14:22:49.616Z</time></trkpt><trkpt lat="43.2558357" lon="17.0627301"><ele>10.0</ele><time>2026-05-04T14:22:50.615Z</time></trkpt><trkpt lat="43.255967" lon="17.0625956"><ele>10.0</ele><time>2026-05-04T14:22:51.615Z</time></trkpt><trkpt lat="43.2561088" lon="17.0624805"><ele>10.0</ele><time>2026-05-04T14:22:52.616Z</time></trkpt><trkpt lat="43.2562593" lon="17.0623884"><ele>10.0</ele><time>2026-05-04T14:22:53.616Z</time></trkpt><trkpt lat="43.2564245" lon="17.0623214"><ele>9.333333333333334</ele><time>2026-05-04T14:22:54.615Z</time></trkpt><trkpt lat="43.2565906" lon="17.0622732"><ele>8.666666666666666</ele><time>2026-05-04T14:22:55.613Z</time></trkpt><trkpt lat="43.256761" lon="17.0622339"><ele>8.0</ele><time>2026-05-04T14:22:56.615Z</time></trkpt><trkpt lat="43.2569305" lon="17.0621961"><ele>8.0</ele><time>2026-05-04T14:22:57.616Z</time></trkpt><trkpt lat="43.2570993" lon="17.0621627"><ele>8.0</ele><time>2026-05-04T14:22:58.615Z</time></trkpt><trkpt lat="43.257265" lon="17.0621301"><ele>8.0</ele><time>2026-05-04T14:22:59.615Z</time></trkpt><trkpt lat="43.2574319" lon="17.0620898"><ele>7.666666666666666</ele><time>2026-05-04T14:23:00.616Z</time></trkpt><trkpt lat="43.2575949" lon="17.0620591"><ele>7.333333333333334</ele><time>2026-05-04T14:23:01.615Z</time></trkpt><trkpt lat="43.2577546" lon="17.0620351"><ele>7.0</ele><time>2026-05-04T14:23:02.616Z</time></trkpt><trkpt lat="43.2579145" lon="17.0619989"><ele>7.0</ele><time>2026-05-04T14:23:03.616Z</time></trkpt><trkpt lat="43.258072" lon="17.0619413"><ele>7.0</ele><time>2026-05-04T14:23:04.615Z</time></trkpt><trkpt lat="43.2582229" lon="17.0618576"><ele>7.0</ele><time>2026-05-04T14:23:05.616Z</time></trkpt><trkpt lat="43.2583741" lon="17.0617623"><ele>6.0</ele><time>2026-05-04T14:23:06.615Z</time></trkpt><trkpt lat="43.258521" lon="17.0616541"><ele>5.0</ele><time>2026-05-04T14:23:07.616Z</time></trkpt><trkpt lat="43.2586722" lon="17.0615364"><ele>4.0</ele><time>2026-05-04T14:23:08.615Z</time></trkpt><trkpt lat="43.2588154" lon="17.0614145"><ele>3.6666666666666665</ele><time>2026-05-04T14:23:09.616Z</time></trkpt><trkpt lat="43.2589613" lon="17.0612992"><ele>3.333333333333333</ele><time>2026-05-04T14:23:10.616Z</time></trkpt><trkpt lat="43.2591107" lon="17.0611922"><ele>3.0</ele><time>2026-05-04T14:23:11.615Z</time></trkpt><trkpt lat="43.2592574" lon="17.0611057"><ele>3.0</ele><time>2026-05-04T14:23:12.615Z</time></trkpt><trkpt lat="43.2594147" lon="17.0610298"><ele>3.0</ele><time>2026-05-04T14:23:13.616Z</time></trkpt><trkpt lat="43.2595801" lon="17.0609767"><ele>3.0</ele><time>2026-05-04T14:23:14.616Z</time></trkpt><trkpt lat="43.2597394" lon="17.0609375"><ele>4.0</ele><time>2026-05-04T14:23:15.616Z</time></trkpt><trkpt lat="43.2598926" lon="17.0609223"><ele>5.0</ele><time>2026-05-04T14:23:16.615Z</time></trkpt><trkpt lat="43.2600484" lon="17.0609218"><ele>6.0</ele><time>2026-05-04T14:23:17.616Z</time></trkpt><trkpt lat="43.2602004" lon="17.0609497"><ele>6.0</ele><time>2026-05-04T14:23:18.615Z</time></trkpt><trkpt lat="43.2603503" lon="17.0609771"><ele>6.0</ele><time>2026-05-04T14:23:19.615Z</time></trkpt><trkpt lat="43.2605044" lon="17.0609991"><ele>6.0</ele><time>2026-05-04T14:23:20.616Z</time></trkpt><trkpt lat="43.2606638" lon="17.061023"><ele>4.333333333333333</ele><time>2026-05-04T14:23:21.616Z</time></trkpt><trkpt lat="43.2608235" lon="17.0610492"><ele>2.6666666666666665</ele><time>2026-05-04T14:23:22.616Z</time></trkpt><trkpt lat="43.2609748" lon="17.061085"><ele>1.0</ele><time>2026-05-04T14:23:23.615Z</time></trkpt><trkpt lat="43.261128" lon="17.061111"><ele>1.0</ele><time>2026-05-04T14:23:24.615Z</time></trkpt><trkpt lat="43.2612743" lon="17.0611305"><ele>1.0</ele><time>2026-05-04T14:23:25.616Z</time></trkpt><trkpt lat="43.2614268" lon="17.0611564"><ele>1.0</ele><time>2026-05-04T14:23:26.616Z</time></trkpt><trkpt lat="43.2615814" lon="17.0611756"><ele>1.0</ele><time>2026-05-04T14:23:27.616Z</time></trkpt><trkpt lat="43.2617328" lon="17.061203"><ele>1.0</ele><time>2026-05-04T14:23:28.613Z</time></trkpt><trkpt lat="43.2618954" lon="17.0612214"><ele>1.0</ele><time>2026-05-04T14:23:29.615Z</time></trkpt><trkpt lat="43.2620538" lon="17.0612502"><ele>1.0</ele><time>2026-05-04T14:23:30.615Z</time></trkpt><trkpt lat="43.2622164" lon="17.0612703"><ele>1.0</ele><time>2026-05-04T14:23:31.616Z</time></trkpt><trkpt lat="43.2623815" lon="17.061284"><ele>1.0</ele><time>2026-05-04T14:23:32.614Z</time></trkpt><trkpt lat="43.262549" lon="17.0612884"><ele>0.6666666666666666</ele><time>2026-05-04T14:23:33.614Z</time></trkpt><trkpt lat="43.2627145" lon="17.0612793"><ele>0.3333333333333333</ele><time>2026-05-04T14:23:34.615Z</time></trkpt><trkpt lat="43.2628809" lon="17.0612581"><ele>0.0</ele><time>2026-05-04T14:23:35.615Z</time></trkpt><trkpt lat="43.2630486" lon="17.0612233"><ele>2.6666666666666665</ele><time>2026-05-04T14:23:36.615Z</time></trkpt><trkpt lat="43.2632196" lon="17.0611811"><ele>5.333333333333333</ele><time>2026-05-04T14:23:37.616Z</time></trkpt><trkpt lat="43.2633904" lon="17.0611207"><ele>8.0</ele><time>2026-05-04T14:23:38.616Z</time></trkpt><trkpt lat="43.2635583" lon="17.0610431"><ele>8.0</ele><time>2026-05-04T14:23:39.614Z</time></trkpt><trkpt lat="43.2637235" lon="17.0609561"><ele>8.0</ele><time>2026-05-04T14:23:40.616Z</time></trkpt><trkpt lat="43.263891" lon="17.0608586"><ele>8.0</ele><time>2026-05-04T14:23:41.616Z</time></trkpt><trkpt lat="43.2640488" lon="17.0607486"><ele>7.333333333333333</ele><time>2026-05-04T14:23:42.615Z</time></trkpt><trkpt lat="43.2642" lon="17.0606272"><ele>6.666666666666666</ele><time>2026-05-04T14:23:43.616Z</time></trkpt><trkpt lat="43.2643475" lon="17.0604979"><ele>6.0</ele><time>2026-05-04T14:23:44.615Z</time></trkpt><trkpt lat="43.2644927" lon="17.0603492"><ele>6.0</ele><time>2026-05-04T14:23:45.615Z</time></trkpt><trkpt lat="43.264622" lon="17.0601993"><ele>6.0</ele><time>2026-05-04T14:23:46.615Z</time></trkpt><trkpt lat="43.2647504" lon="17.060031"><ele>6.0</ele><time>2026-05-04T14:23:47.616Z</time></trkpt><trkpt lat="43.2648619" lon="17.0598621"><ele>7.0</ele><time>2026-05-04T14:23:48.613Z</time></trkpt><trkpt lat="43.2649729" lon="17.0596788"><ele>8.0</ele><time>2026-05-04T14:23:49.616Z</time></trkpt><trkpt lat="43.2650718" lon="17.0594848"><ele>9.0</ele><time>2026-05-04T14:23:50.616Z</time></trkpt><trkpt lat="43.2651707" lon="17.0592932"><ele>8.333333333333334</ele><time>2026-05-04T14:23:51.615Z</time></trkpt><trkpt lat="43.2652682" lon="17.0591033"><ele>7.666666666666667</ele><time>2026-05-04T14:23:52.615Z</time></trkpt><trkpt lat="43.2653657" lon="17.0589072"><ele>7.0</ele><time>2026-05-04T14:23:53.616Z</time></trkpt><trkpt lat="43.2654613" lon="17.0587107"><ele>7.0</ele><time>2026-05-04T14:23:54.616Z</time></trkpt><trkpt lat="43.2655548" lon="17.058515"><ele>7.0</ele><time>2026-05-04T14:23:55.614Z</time></trkpt><trkpt lat="43.265654" lon="17.0583129"><ele>7.0</ele><time>2026-05-04T14:23:56.615Z</time></trkpt><trkpt lat="43.2657595" lon="17.0581136"><ele>8.333333333333334</ele><time>2026-05-04T14:23:57.615Z</time></trkpt><trkpt lat="43.2658727" lon="17.0579207"><ele>9.666666666666666</ele><time>2026-05-04T14:23:58.615Z</time></trkpt><trkpt lat="43.2659894" lon="17.0577302"><ele>11.0</ele><time>2026-05-04T14:23:59.615Z</time></trkpt><trkpt lat="43.2661125" lon="17.0575369"><ele>9.666666666666666</ele><time>2026-05-04T14:24:00.616Z</time></trkpt><trkpt lat="43.2662388" lon="17.0573503"><ele>8.333333333333334</ele><time>2026-05-04T14:24:01.616Z</time></trkpt><trkpt lat="43.2663733" lon="17.0571716"><ele>7.0</ele><time>2026-05-04T14:24:02.616Z</time></trkpt><trkpt lat="43.266509" lon="17.0570086"><ele>7.0</ele><time>2026-05-04T14:24:03.615Z</time></trkpt><trkpt lat="43.2666511" lon="17.0568487"><ele>7.0</ele><time>2026-05-04T14:24:04.615Z</time></trkpt><trkpt lat="43.2667999" lon="17.0566977"><ele>7.0</ele><time>2026-05-04T14:24:05.616Z</time></trkpt><trkpt lat="43.2669495" lon="17.0565608"><ele>5.666666666666667</ele><time>2026-05-04T14:24:06.615Z</time></trkpt><trkpt lat="43.2670987" lon="17.0564241"><ele>4.333333333333334</ele><time>2026-05-04T14:24:07.616Z</time></trkpt><trkpt lat="43.2672511" lon="17.0562987"><ele>3.0</ele><time>2026-05-04T14:24:08.616Z</time></trkpt><trkpt lat="43.2674002" lon="17.0561837"><ele>3.0</ele><time>2026-05-04T14:24:09.616Z</time></trkpt><trkpt lat="43.2675568" lon="17.0560737"><ele>3.0</ele><time>2026-05-04T14:24:10.616Z</time></trkpt><trkpt lat="43.2677162" lon="17.0559726"><ele>3.0</ele><time>2026-05-04T14:24:11.615Z</time></trkpt><trkpt lat="43.2678716" lon="17.0558897"><ele>3.0</ele><time>2026-05-04T14:24:12.616Z</time></trkpt><trkpt lat="43.2680209" lon="17.0558163"><ele>3.0</ele><time>2026-05-04T14:24:13.615Z</time></trkpt><trkpt lat="43.2681749" lon="17.0557522"><ele>3.0</ele><time>2026-05-04T14:24:14.615Z</time></trkpt><trkpt lat="43.268309" lon="17.0556929"><ele>3.25</ele><time>2026-05-04T14:24:15.616Z</time></trkpt><trkpt lat="43.2684489" lon="17.0556469"><ele>3.5</ele><time>2026-05-04T14:24:16.616Z</time></trkpt><trkpt lat="43.268595" lon="17.0556062"><ele>3.75</ele><time>2026-05-04T14:24:17.616Z</time></trkpt><trkpt lat="43.2687411" lon="17.0555659"><ele>4.0</ele><time>2026-05-04T14:24:18.616Z</time></trkpt><trkpt lat="43.2688891" lon="17.0555365"><ele>5.333333333333333</ele><time>2026-05-04T14:24:19.616Z</time></trkpt><trkpt lat="43.2690475" lon="17.0555066"><ele>6.666666666666666</ele><time>2026-05-04T14:24:20.616Z</time></trkpt><trkpt lat="43.2692138" lon="17.0554764"><ele>8.0</ele><time>2026-05-04T14:24:21.616Z</time></trkpt><trkpt lat="43.2693766" lon="17.0554503"><ele>8.0</ele><time>2026-05-04T14:24:22.616Z</time></trkpt><trkpt lat="43.2695471" lon="17.0554247"><ele>8.0</ele><time>2026-05-04T14:24:23.615Z</time></trkpt><trkpt lat="43.2697206" lon="17.0553929"><ele>8.0</ele><time>2026-05-04T14:24:24.616Z</time></trkpt><trkpt lat="43.2698886" lon="17.0553712"><ele>9.333333333333332</ele><time>2026-05-04T14:24:25.615Z</time></trkpt><trkpt lat="43.2700599" lon="17.0553484"><ele>10.666666666666666</ele><time>2026-05-04T14:24:26.615Z</time></trkpt><trkpt lat="43.2702313" lon="17.0553249"><ele>12.0</ele><time>2026-05-04T14:24:27.615Z</time></trkpt><trkpt lat="43.2703995" lon="17.0553002"><ele>12.0</ele><time>2026-05-04T14:24:28.616Z</time></trkpt><trkpt lat="43.2705722" lon="17.0552778"><ele>12.0</ele><time>2026-05-04T14:24:29.614Z</time></trkpt><trkpt lat="43.2707373" lon="17.0552455"><ele>12.0</ele><time>2026-05-04T14:24:30.616Z</time></trkpt><trkpt lat="43.2709072" lon="17.0552164"><ele>10.666666666666666</ele><time>2026-05-04T14:24:31.615Z</time></trkpt><trkpt lat="43.2710739" lon="17.0551889"><ele>9.333333333333332</ele><time>2026-05-04T14:24:32.615Z</time></trkpt><trkpt lat="43.271236" lon="17.0551672"><ele>8.0</ele><time>2026-05-04T14:24:33.616Z</time></trkpt><trkpt lat="43.2713962" lon="17.0551453"><ele>10.666666666666666</ele><time>2026-05-04T14:24:34.615Z</time></trkpt><trkpt lat="43.2715561" lon="17.0551163"><ele>13.333333333333332</ele><time>2026-05-04T14:24:35.615Z</time></trkpt><trkpt lat="43.2717152" lon="17.0550879"><ele>16.0</ele><time>2026-05-04T14:24:36.615Z</time></trkpt><trkpt lat="43.2718774" lon="17.0550505"><ele>16.0</ele><time>2026-05-04T14:24:37.616Z</time></trkpt><trkpt lat="43.2720355" lon="17.0549956"><ele>16.0</ele><time>2026-05-04T14:24:38.614Z</time></trkpt><trkpt lat="43.2721809" lon="17.0549292"><ele>16.0</ele><time>2026-05-04T14:24:39.615Z</time></trkpt><trkpt lat="43.2723167" lon="17.0548579"><ele>16.0</ele><time>2026-05-04T14:24:40.616Z</time></trkpt><trkpt lat="43.2724419" lon="17.054779"><ele>16.0</ele><time>2026-05-04T14:24:41.615Z</time></trkpt><trkpt lat="43.2725599" lon="17.0546934"><ele>16.0</ele><time>2026-05-04T14:24:42.615Z</time></trkpt><trkpt lat="43.2726695" lon="17.054606"><ele>16.0</ele><time>2026-05-04T14:24:43.615Z</time></trkpt><trkpt lat="43.2727773" lon="17.054515"><ele>16.0</ele><time>2026-05-04T14:24:44.615Z</time></trkpt><trkpt lat="43.272883" lon="17.0544192"><ele>16.0</ele><time>2026-05-04T14:24:45.616Z</time></trkpt><trkpt lat="43.2729749" lon="17.0543146"><ele>16.0</ele><time>2026-05-04T14:24:46.613Z</time></trkpt><trkpt lat="43.2730609" lon="17.0542042"><ele>16.0</ele><time>2026-05-04T14:24:47.615Z</time></trkpt><trkpt lat="43.2731433" lon="17.0540903"><ele>17.75</ele><time>2026-05-04T14:24:48.615Z</time></trkpt><trkpt lat="43.2732204" lon="17.053976"><ele>19.5</ele><time>2026-05-04T14:24:49.615Z</time></trkpt><trkpt lat="43.2732855" lon="17.0538564"><ele>21.25</ele><time>2026-05-04T14:24:50.616Z</time></trkpt><trkpt lat="43.2733487" lon="17.0537339"><ele>23.0</ele><time>2026-05-04T14:24:51.616Z</time></trkpt><trkpt lat="43.2734198" lon="17.0535979"><ele>23.0</ele><time>2026-05-04T14:24:52.615Z</time></trkpt><trkpt lat="43.2734871" lon="17.0534676"><ele>23.0</ele><time>2026-05-04T14:24:53.616Z</time></trkpt><trkpt lat="43.2735509" lon="17.0533312"><ele>23.0</ele><time>2026-05-04T14:24:54.615Z</time></trkpt><trkpt lat="43.2736101" lon="17.0531917"><ele>23.0</ele><time>2026-05-04T14:24:55.615Z</time></trkpt><trkpt lat="43.2736674" lon="17.053049"><ele>23.0</ele><time>2026-05-04T14:24:56.616Z</time></trkpt><trkpt lat="43.2737232" lon="17.0529126"><ele>23.0</ele><time>2026-05-04T14:24:57.616Z</time></trkpt><trkpt lat="43.2737843" lon="17.0527744"><ele>23.0</ele><time>2026-05-04T14:24:58.613Z</time></trkpt><trkpt lat="43.2738404" lon="17.0526356"><ele>23.0</ele><time>2026-05-04T14:24:59.616Z</time></trkpt><trkpt lat="43.2738986" lon="17.052498"><ele>22.799999999999997</ele><time>2026-05-04T14:25:00.616Z</time></trkpt><trkpt lat="43.2739481" lon="17.052364"><ele>22.6</ele><time>2026-05-04T14:25:01.616Z</time></trkpt><trkpt lat="43.2740033" lon="17.0522313"><ele>22.4</ele><time>2026-05-04T14:25:02.615Z</time></trkpt><trkpt lat="43.2740543" lon="17.0521008"><ele>22.200000000000003</ele><time>2026-05-04T14:25:03.615Z</time></trkpt><trkpt lat="43.2741058" lon="17.0519594"><ele>22.0</ele><time>2026-05-04T14:25:04.615Z</time></trkpt><trkpt lat="43.2741635" lon="17.0518195"><ele>22.0</ele><time>2026-05-04T14:25:05.616Z</time></trkpt><trkpt lat="43.2742208" lon="17.0516925"><ele>22.0</ele><time>2026-05-04T14:25:06.615Z</time></trkpt><trkpt lat="43.2742757" lon="17.0515566"><ele>22.0</ele><time>2026-05-04T14:25:07.616Z</time></trkpt><trkpt lat="43.2743305" lon="17.0514231"><ele>22.0</ele><time>2026-05-04T14:25:08.616Z</time></trkpt><trkpt lat="43.2743839" lon="17.0512937"><ele>22.0</ele><time>2026-05-04T14:25:09.615Z</time></trkpt><trkpt lat="43.2744386" lon="17.0511567"><ele>21.0</ele><time>2026-05-04T14:25:10.616Z</time></trkpt><trkpt lat="43.2745006" lon="17.0509915"><ele>20.0</ele><time>2026-05-04T14:25:11.616Z</time></trkpt><trkpt lat="43.2745684" lon="17.0508141"><ele>19.0</ele><time>2026-05-04T14:25:12.615Z</time></trkpt><trkpt lat="43.2746468" lon="17.050624"><ele>18.0</ele><time>2026-05-04T14:25:13.616Z</time></trkpt><trkpt lat="43.2747272" lon="17.0504319"><ele>19.666666666666668</ele><time>2026-05-04T14:25:14.614Z</time></trkpt><trkpt lat="43.2748097" lon="17.0502393"><ele>21.333333333333336</ele><time>2026-05-04T14:25:15.616Z</time></trkpt><trkpt lat="43.2748921" lon="17.0500427"><ele>23.0</ele><time>2026-05-04T14:25:16.615Z</time></trkpt><trkpt lat="43.2749697" lon="17.0498469"><ele>23.0</ele><time>2026-05-04T14:25:17.615Z</time></trkpt><trkpt lat="43.2750488" lon="17.0496453"><ele>23.0</ele><time>2026-05-04T14:25:18.615Z</time></trkpt><trkpt lat="43.2751332" lon="17.0494474"><ele>23.0</ele><time>2026-05-04T14:25:19.615Z</time></trkpt><trkpt lat="43.2752103" lon="17.0492572"><ele>22.333333333333336</ele><time>2026-05-04T14:25:20.616Z</time></trkpt><trkpt lat="43.2752917" lon="17.049065"><ele>21.666666666666668</ele><time>2026-05-04T14:25:21.616Z</time></trkpt><trkpt lat="43.2753666" lon="17.0488743"><ele>21.0</ele><time>2026-05-04T14:25:22.616Z</time></trkpt><trkpt lat="43.2754401" lon="17.0486803"><ele>21.0</ele><time>2026-05-04T14:25:23.614Z</time></trkpt><trkpt lat="43.275503" lon="17.0484898"><ele>21.0</ele><time>2026-05-04T14:25:24.614Z</time></trkpt><trkpt lat="43.2755613" lon="17.0482942"><ele>21.0</ele><time>2026-05-04T14:25:25.616Z</time></trkpt><trkpt lat="43.2756086" lon="17.0481046"><ele>24.75</ele><time>2026-05-04T14:25:26.615Z</time></trkpt><trkpt lat="43.27565" lon="17.047908"><ele>28.5</ele><time>2026-05-04T14:25:27.615Z</time></trkpt><trkpt lat="43.2756822" lon="17.0477061"><ele>32.25</ele><time>2026-05-04T14:25:28.616Z</time></trkpt><trkpt lat="43.275695" lon="17.0475053"><ele>36.0</ele><time>2026-05-04T14:25:29.615Z</time></trkpt><trkpt lat="43.2756948" lon="17.0473054"><ele>36.5</ele><time>2026-05-04T14:25:30.615Z</time></trkpt><trkpt lat="43.275683" lon="17.0471081"><ele>37.0</ele><time>2026-05-04T14:25:31.615Z</time></trkpt><trkpt lat="43.2756727" lon="17.0469111"><ele>37.5</ele><time>2026-05-04T14:25:32.616Z</time></trkpt><trkpt lat="43.2756597" lon="17.0467113"><ele>38.0</ele><time>2026-05-04T14:25:33.615Z</time></trkpt><trkpt lat="43.2756541" lon="17.0465094"><ele>38.0</ele><time>2026-05-04T14:25:34.615Z</time></trkpt><trkpt lat="43.2756585" lon="17.0463078"><ele>38.0</ele><time>2026-05-04T14:25:35.615Z</time></trkpt><trkpt lat="43.2756804" lon="17.0461061"><ele>38.0</ele><time>2026-05-04T14:25:36.616Z</time></trkpt><trkpt lat="43.2757133" lon="17.0459134"><ele>38.0</ele><time>2026-05-04T14:25:37.616Z</time></trkpt><trkpt lat="43.2757673" lon="17.0457199"><ele>35.8</ele><time>2026-05-04T14:25:38.616Z</time></trkpt><trkpt lat="43.2758388" lon="17.0455318"><ele>33.599999999999994</ele><time>2026-05-04T14:25:39.615Z</time></trkpt><trkpt lat="43.2759124" lon="17.045395"><ele>31.400000000000002</ele><time>2026-05-04T14:25:40.615Z</time></trkpt><trkpt lat="43.2759695" lon="17.0452985"><ele>29.200000000000003</ele><time>2026-05-04T14:25:41.616Z</time></trkpt><trkpt lat="43.2760219" lon="17.0452147"><ele>27.0</ele><time>2026-05-04T14:25:42.614Z</time></trkpt><trkpt lat="43.2760734" lon="17.0451457"><ele>27.0</ele><time>2026-05-04T14:25:43.615Z</time></trkpt><trkpt lat="43.2761391" lon="17.0450794"><ele>27.000000000000004</ele><time>2026-05-04T14:25:44.616Z</time></trkpt><trkpt lat="43.276216" lon="17.0450147"><ele>27.000000000000004</ele><time>2026-05-04T14:25:45.615Z</time></trkpt><trkpt lat="43.2762969" lon="17.0449537"><ele>27.0</ele><time>2026-05-04T14:25:46.615Z</time></trkpt><trkpt lat="43.276381" lon="17.0448906"><ele>27.0</ele><time>2026-05-04T14:25:47.615Z</time></trkpt><trkpt lat="43.276479" lon="17.0448272"><ele>28.0</ele><time>2026-05-04T14:25:48.616Z</time></trkpt><trkpt lat="43.2765877" lon="17.0447596"><ele>29.000000000000004</ele><time>2026-05-04T14:25:49.616Z</time></trkpt><trkpt lat="43.2766839" lon="17.0446995"><ele>30.000000000000004</ele><time>2026-05-04T14:25:50.616Z</time></trkpt><trkpt lat="43.2767621" lon="17.0446549"><ele>31.0</ele><time>2026-05-04T14:25:51.616Z</time></trkpt><trkpt lat="43.2768723" lon="17.0446002"><ele>32.0</ele><time>2026-05-04T14:25:53.615Z</time></trkpt><trkpt lat="43.2769893" lon="17.0445394"><ele>31.999999999999996</ele><time>2026-05-04T14:25:55.616Z</time></trkpt><trkpt lat="43.2770595" lon="17.0445056"><ele>32.0</ele><time>2026-05-04T14:25:56.615Z</time></trkpt><trkpt lat="43.2771361" lon="17.0444701"><ele>32.0</ele><time>2026-05-04T14:25:57.615Z</time></trkpt><trkpt lat="43.2772166" lon="17.0444332"><ele>32.0</ele><time>2026-05-04T14:25:58.615Z</time></trkpt><trkpt lat="43.2773022" lon="17.044404"><ele>31.999999999999996</ele><time>2026-05-04T14:25:59.615Z</time></trkpt><trkpt lat="43.2773991" lon="17.0443652"><ele>32.0</ele><time>2026-05-04T14:26:00.614Z</time></trkpt><trkpt lat="43.277501" lon="17.0443133"><ele>33.0</ele><time>2026-05-04T14:26:01.615Z</time></trkpt><trkpt lat="43.2776068" lon="17.0442505"><ele>34.0</ele><time>2026-05-04T14:26:02.615Z</time></trkpt><trkpt lat="43.2777122" lon="17.0441673"><ele>35.0</ele><time>2026-05-04T14:26:03.614Z</time></trkpt><trkpt lat="43.2778201" lon="17.0440668"><ele>36.0</ele><time>2026-05-04T14:26:04.613Z</time></trkpt><trkpt lat="43.2779211" lon="17.0439465"><ele>36.0</ele><time>2026-05-04T14:26:05.616Z</time></trkpt><trkpt lat="43.2780177" lon="17.0438154"><ele>36.0</ele><time>2026-05-04T14:26:06.616Z</time></trkpt><trkpt lat="43.2780998" lon="17.0436699"><ele>36.0</ele><time>2026-05-04T14:26:07.616Z</time></trkpt><trkpt lat="43.2781695" lon="17.0434995"><ele>36.0</ele><time>2026-05-04T14:26:08.615Z</time></trkpt><trkpt lat="43.2782246" lon="17.0433223"><ele>40.66666666666667</ele><time>2026-05-04T14:26:09.616Z</time></trkpt><trkpt lat="43.2782597" lon="17.0431236"><ele>45.333333333333336</ele><time>2026-05-04T14:26:10.615Z</time></trkpt><trkpt lat="43.2782768" lon="17.0428857"><ele>50.0</ele><time>2026-05-04T14:26:11.615Z</time></trkpt><trkpt lat="43.2782764" lon="17.0426326"><ele>52.66666666666667</ele><time>2026-05-04T14:26:12.615Z</time></trkpt><trkpt lat="43.2782603" lon="17.0423767"><ele>55.33333333333333</ele><time>2026-05-04T14:26:13.616Z</time></trkpt><trkpt lat="43.278206" lon="17.0421292"><ele>58.0</ele><time>2026-05-04T14:26:14.616Z</time></trkpt><trkpt lat="43.2781098" lon="17.0418708"><ele>56.666666666666664</ele><time>2026-05-04T14:26:15.616Z</time></trkpt><trkpt lat="43.277984" lon="17.0416099"><ele>55.33333333333333</ele><time>2026-05-04T14:26:16.616Z</time></trkpt><trkpt lat="43.2778697" lon="17.0413631"><ele>54.0</ele><time>2026-05-04T14:26:17.616Z</time></trkpt><trkpt lat="43.2777721" lon="17.041149"><ele>54.0</ele><time>2026-05-04T14:26:18.615Z</time></trkpt><trkpt lat="43.277695" lon="17.0409447"><ele>54.0</ele><time>2026-05-04T14:26:19.616Z</time></trkpt><trkpt lat="43.2776368" lon="17.0407563"><ele>54.0</ele><time>2026-05-04T14:26:20.615Z</time></trkpt><trkpt lat="43.2775894" lon="17.0405885"><ele>54.0</ele><time>2026-05-04T14:26:21.615Z</time></trkpt><trkpt lat="43.2775576" lon="17.040415"><ele>54.5</ele><time>2026-05-04T14:26:22.616Z</time></trkpt><trkpt lat="43.2775417" lon="17.0402362"><ele>55.0</ele><time>2026-05-04T14:26:23.615Z</time></trkpt><trkpt lat="43.2775477" lon="17.0400514"><ele>55.5</ele><time>2026-05-04T14:26:24.616Z</time></trkpt><trkpt lat="43.2775582" lon="17.0398716"><ele>56.0</ele><time>2026-05-04T14:26:25.614Z</time></trkpt><trkpt lat="43.2775909" lon="17.0396981"><ele>56.0</ele><time>2026-05-04T14:26:26.616Z</time></trkpt><trkpt lat="43.2776418" lon="17.0395236"><ele>56.0</ele><time>2026-05-04T14:26:27.615Z</time></trkpt><trkpt lat="43.2777056" lon="17.0393547"><ele>56.0</ele><time>2026-05-04T14:26:28.614Z</time></trkpt><trkpt lat="43.2777882" lon="17.0391997"><ele>56.0</ele><time>2026-05-04T14:26:29.616Z</time></trkpt><trkpt lat="43.2778781" lon="17.0390623"><ele>56.0</ele><time>2026-05-04T14:26:30.616Z</time></trkpt><trkpt lat="43.2779856" lon="17.0389291"><ele>56.0</ele><time>2026-05-04T14:26:31.616Z</time></trkpt><trkpt lat="43.2780986" lon="17.0387979"><ele>56.0</ele><time>2026-05-04T14:26:32.615Z</time></trkpt><trkpt lat="43.2782133" lon="17.0386692"><ele>56.0</ele><time>2026-05-04T14:26:33.616Z</time></trkpt><trkpt lat="43.2783351" lon="17.0385405"><ele>56.0</ele><time>2026-05-04T14:26:34.615Z</time></trkpt><trkpt lat="43.2784567" lon="17.0384182"><ele>56.0</ele><time>2026-05-04T14:26:35.615Z</time></trkpt><trkpt lat="43.2785776" lon="17.0382883"><ele>56.0</ele><time>2026-05-04T14:26:36.616Z</time></trkpt><trkpt lat="43.278706" lon="17.0381595"><ele>55.333333333333336</ele><time>2026-05-04T14:26:37.616Z</time></trkpt><trkpt lat="43.2788354" lon="17.0380278"><ele>54.66666666666667</ele><time>2026-05-04T14:26:38.615Z</time></trkpt><trkpt lat="43.2789661" lon="17.0378945"><ele>54.0</ele><time>2026-05-04T14:26:39.616Z</time></trkpt><trkpt lat="43.2790993" lon="17.037758"><ele>53.33333333333333</ele><time>2026-05-04T14:26:40.614Z</time></trkpt><trkpt lat="43.2792334" lon="17.0376156"><ele>52.666666666666664</ele><time>2026-05-04T14:26:41.614Z</time></trkpt><trkpt lat="43.2793778" lon="17.0374576"><ele>52.0</ele><time>2026-05-04T14:26:42.615Z</time></trkpt><trkpt lat="43.2795322" lon="17.0372804"><ele>52.0</ele><time>2026-05-04T14:26:43.615Z</time></trkpt><trkpt lat="43.2797107" lon="17.0370839"><ele>52.0</ele><time>2026-05-04T14:26:44.615Z</time></trkpt><trkpt lat="43.2799171" lon="17.0368684"><ele>51.0</ele><time>2026-05-04T14:26:45.615Z</time></trkpt><trkpt lat="43.2801299" lon="17.0366464"><ele>50.0</ele><time>2026-05-04T14:26:46.616Z</time></trkpt><trkpt lat="43.2803501" lon="17.0364211"><ele>50.0</ele><time>2026-05-04T14:26:47.615Z</time></trkpt><trkpt lat="43.2805778" lon="17.0361877"><ele>50.0</ele><time>2026-05-04T14:26:48.614Z</time></trkpt><trkpt lat="43.2807992" lon="17.0359603"><ele>47.0</ele><time>2026-05-04T14:26:49.616Z</time></trkpt><trkpt lat="43.2810157" lon="17.0357434"><ele>44.0</ele><time>2026-05-04T14:26:50.615Z</time></trkpt><trkpt lat="43.2812297" lon="17.0355315"><ele>41.0</ele><time>2026-05-04T14:26:51.615Z</time></trkpt><trkpt lat="43.2814365" lon="17.0353283"><ele>38.0</ele><time>2026-05-04T14:26:52.616Z</time></trkpt><trkpt lat="43.2816358" lon="17.0351223"><ele>41.0</ele><time>2026-05-04T14:26:53.616Z</time></trkpt><trkpt lat="43.2818215" lon="17.0349225"><ele>44.0</ele><time>2026-05-04T14:26:54.615Z</time></trkpt><trkpt lat="43.2820014" lon="17.034731"><ele>44.0</ele><time>2026-05-04T14:26:55.616Z</time></trkpt><trkpt lat="43.2821764" lon="17.0345432"><ele>44.0</ele><time>2026-05-04T14:26:56.616Z</time></trkpt><trkpt lat="43.2823541" lon="17.0343664"><ele>44.0</ele><time>2026-05-04T14:26:57.616Z</time></trkpt><trkpt lat="43.2825198" lon="17.0341967"><ele>44.666666666666664</ele><time>2026-05-04T14:26:58.615Z</time></trkpt><trkpt lat="43.282678" lon="17.0340366"><ele>45.333333333333336</ele><time>2026-05-04T14:26:59.616Z</time></trkpt><trkpt lat="43.2828253" lon="17.0338834"><ele>46.0</ele><time>2026-05-04T14:27:00.616Z</time></trkpt><trkpt lat="43.2829683" lon="17.0337364"><ele>47.0</ele><time>2026-05-04T14:27:01.616Z</time></trkpt><trkpt lat="43.2831105" lon="17.033586"><ele>48.0</ele><time>2026-05-04T14:27:02.615Z</time></trkpt><trkpt lat="43.2832549" lon="17.0334324"><ele>49.0</ele><time>2026-05-04T14:27:03.616Z</time></trkpt><trkpt lat="43.2833896" lon="17.0332869"><ele>49.666666666666664</ele><time>2026-05-04T14:27:04.616Z</time></trkpt><trkpt lat="43.2835185" lon="17.0331594"><ele>50.33333333333333</ele><time>2026-05-04T14:27:05.616Z</time></trkpt><trkpt lat="43.2836424" lon="17.0330307"><ele>51.0</ele><time>2026-05-04T14:27:06.615Z</time></trkpt><trkpt lat="43.2837734" lon="17.0328976"><ele>51.0</ele><time>2026-05-04T14:27:07.616Z</time></trkpt><trkpt lat="43.2839123" lon="17.032754"><ele>51.0</ele><time>2026-05-04T14:27:08.616Z</time></trkpt><trkpt lat="43.2840537" lon="17.032606"><ele>51.0</ele><time>2026-05-04T14:27:09.616Z</time></trkpt><trkpt lat="43.2841886" lon="17.0324613"><ele>51.25</ele><time>2026-05-04T14:27:10.616Z</time></trkpt><trkpt lat="43.2843137" lon="17.0323326"><ele>51.5</ele><time>2026-05-04T14:27:11.616Z</time></trkpt><trkpt lat="43.2844293" lon="17.0322127"><ele>51.75</ele><time>2026-05-04T14:27:12.616Z</time></trkpt><trkpt lat="43.2845278" lon="17.0321041"><ele>52.0</ele><time>2026-05-04T14:27:13.615Z</time></trkpt><trkpt lat="43.2846156" lon="17.0320124"><ele>51.99999999999999</ele><time>2026-05-04T14:27:14.616Z</time></trkpt><trkpt lat="43.2846921" lon="17.0319382"><ele>52.0</ele><time>2026-05-04T14:27:15.616Z</time></trkpt><trkpt lat="43.2847571" lon="17.031873"><ele>52.0</ele><time>2026-05-04T14:27:16.613Z</time></trkpt><trkpt lat="43.2848144" lon="17.0318199"><ele>52.0</ele><time>2026-05-04T14:27:17.616Z</time></trkpt><trkpt lat="43.2848798" lon="17.0317481"><ele>51.99999999999999</ele><time>2026-05-04T14:27:19.615Z</time></trkpt><trkpt lat="43.2849523" lon="17.0316871"><ele>52.0</ele><time>2026-05-04T14:27:47.616Z</time></trkpt><trkpt lat="43.2850113" lon="17.0316408"><ele>50.25</ele><time>2026-05-04T14:27:48.615Z</time></trkpt><trkpt lat="43.2850908" lon="17.0315707"><ele>48.5</ele><time>2026-05-04T14:27:49.615Z</time></trkpt><trkpt lat="43.2851916" lon="17.0314764"><ele>46.75</ele><time>2026-05-04T14:27:50.616Z</time></trkpt><trkpt lat="43.2853189" lon="17.0313594"><ele>45.0</ele><time>2026-05-04T14:27:51.616Z</time></trkpt><trkpt lat="43.285464" lon="17.0312363"><ele>47.0</ele><time>2026-05-04T14:27:52.614Z</time></trkpt><trkpt lat="43.2856211" lon="17.0311053"><ele>49.0</ele><time>2026-05-04T14:27:53.613Z</time></trkpt><trkpt lat="43.2857796" lon="17.0309915"><ele>51.0</ele><time>2026-05-04T14:27:54.614Z</time></trkpt><trkpt lat="43.2859342" lon="17.0308867"><ele>49.666666666666664</ele><time>2026-05-04T14:27:55.614Z</time></trkpt><trkpt lat="43.2860864" lon="17.0307986"><ele>48.33333333333333</ele><time>2026-05-04T14:27:56.615Z</time></trkpt><trkpt lat="43.28624" lon="17.0307217"><ele>47.0</ele><time>2026-05-04T14:27:57.616Z</time></trkpt><trkpt lat="43.2863909" lon="17.0306614"><ele>47.0</ele><time>2026-05-04T14:27:58.615Z</time></trkpt><trkpt lat="43.2865215" lon="17.0306119"><ele>47.0</ele><time>2026-05-04T14:27:59.616Z</time></trkpt><trkpt lat="43.2866331" lon="17.0305729"><ele>47.0</ele><time>2026-05-04T14:28:00.615Z</time></trkpt><trkpt lat="43.2867399" lon="17.0305507"><ele>47.0</ele><time>2026-05-04T14:28:01.613Z</time></trkpt><trkpt lat="43.2868418" lon="17.0305274"><ele>47.0</ele><time>2026-05-04T14:28:02.614Z</time></trkpt><trkpt lat="43.2869362" lon="17.030497"><ele>47.0</ele><time>2026-05-04T14:28:03.615Z</time></trkpt><trkpt lat="43.2870264" lon="17.0304743"><ele>47.0</ele><time>2026-05-04T14:28:04.614Z</time></trkpt><trkpt lat="43.2871137" lon="17.0304547"><ele>47.0</ele><time>2026-05-04T14:28:05.616Z</time></trkpt><trkpt lat="43.2872024" lon="17.0304405"><ele>47.0</ele><time>2026-05-04T14:28:06.616Z</time></trkpt><trkpt lat="43.2872938" lon="17.0304147"><ele>47.2</ele><time>2026-05-04T14:28:07.615Z</time></trkpt><trkpt lat="43.2873868" lon="17.0303942"><ele>47.400000000000006</ele><time>2026-05-04T14:28:08.616Z</time></trkpt><trkpt lat="43.2874802" lon="17.0303706"><ele>47.599999999999994</ele><time>2026-05-04T14:28:09.615Z</time></trkpt><trkpt lat="43.2875831" lon="17.030343"><ele>47.8</ele><time>2026-05-04T14:28:10.615Z</time></trkpt><trkpt lat="43.2876827" lon="17.0303101"><ele>48.0</ele><time>2026-05-04T14:28:11.615Z</time></trkpt><trkpt lat="43.2877859" lon="17.0302835"><ele>48.0</ele><time>2026-05-04T14:28:12.615Z</time></trkpt><trkpt lat="43.2878878" lon="17.0302591"><ele>48.0</ele><time>2026-05-04T14:28:13.615Z</time></trkpt><trkpt lat="43.2879855" lon="17.0302343"><ele>48.0</ele><time>2026-05-04T14:28:14.615Z</time></trkpt><trkpt lat="43.2880789" lon="17.0302077"><ele>48.0</ele><time>2026-05-04T14:28:15.616Z</time></trkpt><trkpt lat="43.2881698" lon="17.0301834"><ele>48.0</ele><time>2026-05-04T14:28:16.616Z</time></trkpt><trkpt lat="43.2882605" lon="17.0301587"><ele>47.4</ele><time>2026-05-04T14:28:17.615Z</time></trkpt><trkpt lat="43.2883514" lon="17.0301374"><ele>46.8</ele><time>2026-05-04T14:28:18.615Z</time></trkpt><trkpt lat="43.2884456" lon="17.0301119"><ele>46.2</ele><time>2026-05-04T14:28:19.615Z</time></trkpt><trkpt lat="43.2885315" lon="17.0300878"><ele>45.6</ele><time>2026-05-04T14:28:20.616Z</time></trkpt><trkpt lat="43.2886289" lon="17.0300702"><ele>45.0</ele><time>2026-05-04T14:28:21.615Z</time></trkpt><trkpt lat="43.28873" lon="17.0300425"><ele>45.0</ele><time>2026-05-04T14:28:22.615Z</time></trkpt><trkpt lat="43.2888354" lon="17.0300136"><ele>45.0</ele><time>2026-05-04T14:28:23.616Z</time></trkpt><trkpt lat="43.288943" lon="17.0299841"><ele>45.0</ele><time>2026-05-04T14:28:24.616Z</time></trkpt><trkpt lat="43.2890527" lon="17.0299545"><ele>45.0</ele><time>2026-05-04T14:28:25.615Z</time></trkpt><trkpt lat="43.2891683" lon="17.0299228"><ele>45.0</ele><time>2026-05-04T14:28:26.616Z</time></trkpt><trkpt lat="43.2892816" lon="17.0298898"><ele>42.25</ele><time>2026-05-04T14:28:27.615Z</time></trkpt><trkpt lat="43.2893945" lon="17.0298602"><ele>39.5</ele><time>2026-05-04T14:28:28.615Z</time></trkpt><trkpt lat="43.289503" lon="17.0298359"><ele>36.75</ele><time>2026-05-04T14:28:29.615Z</time></trkpt><trkpt lat="43.2896166" lon="17.0298085"><ele>34.0</ele><time>2026-05-04T14:28:30.615Z</time></trkpt><trkpt lat="43.2897351" lon="17.0297751"><ele>33.8</ele><time>2026-05-04T14:28:31.612Z</time></trkpt><trkpt lat="43.2898463" lon="17.0297429"><ele>33.599999999999994</ele><time>2026-05-04T14:28:32.611Z</time></trkpt><trkpt lat="43.2899585" lon="17.0297117"><ele>33.4</ele><time>2026-05-04T14:28:33.614Z</time></trkpt><trkpt lat="43.2900712" lon="17.0296767"><ele>33.199999999999996</ele><time>2026-05-04T14:28:34.615Z</time></trkpt><trkpt lat="43.2901742" lon="17.0296449"><ele>33.0</ele><time>2026-05-04T14:28:35.614Z</time></trkpt><trkpt lat="43.29028" lon="17.0296055"><ele>33.0</ele><time>2026-05-04T14:28:36.613Z</time></trkpt><trkpt lat="43.2903848" lon="17.0295698"><ele>33.0</ele><time>2026-05-04T14:28:37.616Z</time></trkpt><trkpt lat="43.2904888" lon="17.0295253"><ele>33.0</ele><time>2026-05-04T14:28:38.614Z</time></trkpt><trkpt lat="43.2905981" lon="17.0294761"><ele>33.0</ele><time>2026-05-04T14:28:39.614Z</time></trkpt><trkpt lat="43.2907053" lon="17.0294209"><ele>33.0</ele><time>2026-05-04T14:28:40.616Z</time></trkpt><trkpt lat="43.290818" lon="17.0293658"><ele>34.0</ele><time>2026-05-04T14:28:41.615Z</time></trkpt><trkpt lat="43.290932" lon="17.0293121"><ele>35.0</ele><time>2026-05-04T14:28:42.616Z</time></trkpt><trkpt lat="43.2910418" lon="17.0292585"><ele>36.0</ele><time>2026-05-04T14:28:43.616Z</time></trkpt><trkpt lat="43.2911518" lon="17.0292032"><ele>37.0</ele><time>2026-05-04T14:28:44.614Z</time></trkpt><trkpt lat="43.2912593" lon="17.0291466"><ele>36.0</ele><time>2026-05-04T14:28:45.611Z</time></trkpt><trkpt lat="43.2913591" lon="17.029095"><ele>35.0</ele><time>2026-05-04T14:28:46.615Z</time></trkpt><trkpt lat="43.2914593" lon="17.0290363"><ele>34.0</ele><time>2026-05-04T14:28:47.615Z</time></trkpt><trkpt lat="43.2915596" lon="17.0289836"><ele>33.0</ele><time>2026-05-04T14:28:48.615Z</time></trkpt><trkpt lat="43.2916572" lon="17.0289285"><ele>32.0</ele><time>2026-05-04T14:28:49.616Z</time></trkpt><trkpt lat="43.2917589" lon="17.0288599"><ele>32.0</ele><time>2026-05-04T14:28:50.616Z</time></trkpt><trkpt lat="43.2918784" lon="17.0287772"><ele>32.0</ele><time>2026-05-04T14:28:51.616Z</time></trkpt><trkpt lat="43.2920159" lon="17.0286818"><ele>32.0</ele><time>2026-05-04T14:28:52.614Z</time></trkpt><trkpt lat="43.2921773" lon="17.0285697"><ele>33.666666666666664</ele><time>2026-05-04T14:28:53.614Z</time></trkpt><trkpt lat="43.2923427" lon="17.0284553"><ele>35.333333333333336</ele><time>2026-05-04T14:28:54.616Z</time></trkpt><trkpt lat="43.2925005" lon="17.0283448"><ele>37.0</ele><time>2026-05-04T14:28:55.616Z</time></trkpt><trkpt lat="43.2926514" lon="17.0282435"><ele>37.0</ele><time>2026-05-04T14:28:56.616Z</time></trkpt><trkpt lat="43.2927795" lon="17.0281567"><ele>37.0</ele><time>2026-05-04T14:28:57.616Z</time></trkpt><trkpt lat="43.2929033" lon="17.0280688"><ele>37.0</ele><time>2026-05-04T14:28:58.616Z</time></trkpt><trkpt lat="43.293041" lon="17.0279755"><ele>37.0</ele><time>2026-05-04T14:28:59.615Z</time></trkpt><trkpt lat="43.293185" lon="17.0278756"><ele>41.333333333333336</ele><time>2026-05-04T14:29:00.616Z</time></trkpt><trkpt lat="43.2933416" lon="17.0277772"><ele>45.66666666666667</ele><time>2026-05-04T14:29:01.616Z</time></trkpt><trkpt lat="43.2934955" lon="17.0276747"><ele>50.0</ele><time>2026-05-04T14:29:02.615Z</time></trkpt><trkpt lat="43.2936453" lon="17.0275765"><ele>50.0</ele><time>2026-05-04T14:29:03.615Z</time></trkpt><trkpt lat="43.2937889" lon="17.0274746"><ele>50.0</ele><time>2026-05-04T14:29:04.615Z</time></trkpt><trkpt lat="43.2939243" lon="17.0273777"><ele>50.0</ele><time>2026-05-04T14:29:05.615Z</time></trkpt><trkpt lat="43.2940492" lon="17.0272883"><ele>50.0</ele><time>2026-05-04T14:29:06.615Z</time></trkpt><trkpt lat="43.2941666" lon="17.0272048"><ele>50.0</ele><time>2026-05-04T14:29:07.614Z</time></trkpt><trkpt lat="43.2942822" lon="17.0271264"><ele>50.0</ele><time>2026-05-04T14:29:08.615Z</time></trkpt><trkpt lat="43.2943917" lon="17.0270496"><ele>50.0</ele><time>2026-05-04T14:29:09.612Z</time></trkpt><trkpt lat="43.2945008" lon="17.0269747"><ele>50.0</ele><time>2026-05-04T14:29:10.615Z</time></trkpt><trkpt lat="43.2946036" lon="17.0269012"><ele>50.0</ele><time>2026-05-04T14:29:11.614Z</time></trkpt><trkpt lat="43.2947058" lon="17.0268293"><ele>50.0</ele><time>2026-05-04T14:29:12.614Z</time></trkpt><trkpt lat="43.294808" lon="17.0267606"><ele>50.0</ele><time>2026-05-04T14:29:13.616Z</time></trkpt><trkpt lat="43.2949084" lon="17.0266861"><ele>49.75</ele><time>2026-05-04T14:29:14.616Z</time></trkpt><trkpt lat="43.295014" lon="17.0266166"><ele>49.5</ele><time>2026-05-04T14:29:15.616Z</time></trkpt><trkpt lat="43.29512" lon="17.026549"><ele>49.25</ele><time>2026-05-04T14:29:16.615Z</time></trkpt><trkpt lat="43.2952233" lon="17.0264808"><ele>49.0</ele><time>2026-05-04T14:29:17.614Z</time></trkpt><trkpt lat="43.2953246" lon="17.0264086"><ele>49.0</ele><time>2026-05-04T14:29:18.615Z</time></trkpt><trkpt lat="43.2954252" lon="17.0263347"><ele>49.0</ele><time>2026-05-04T14:29:19.616Z</time></trkpt><trkpt lat="43.2955232" lon="17.0262614"><ele>49.0</ele><time>2026-05-04T14:29:20.613Z</time></trkpt><trkpt lat="43.2956225" lon="17.0261929"><ele>49.0</ele><time>2026-05-04T14:29:21.616Z</time></trkpt><trkpt lat="43.2957173" lon="17.026127"><ele>49.0</ele><time>2026-05-04T14:29:22.614Z</time></trkpt><trkpt lat="43.2958138" lon="17.0260599"><ele>50.2</ele><time>2026-05-04T14:29:23.614Z</time></trkpt><trkpt lat="43.2959111" lon="17.0259926"><ele>51.400000000000006</ele><time>2026-05-04T14:29:24.616Z</time></trkpt><trkpt lat="43.296008" lon="17.025923"><ele>52.6</ele><time>2026-05-04T14:29:25.615Z</time></trkpt><trkpt lat="43.2961032" lon="17.0258514"><ele>53.8</ele><time>2026-05-04T14:29:26.616Z</time></trkpt><trkpt lat="43.2962034" lon="17.0257806"><ele>55.0</ele><time>2026-05-04T14:29:27.616Z</time></trkpt><trkpt lat="43.2963084" lon="17.0257056"><ele>55.0</ele><time>2026-05-04T14:29:28.615Z</time></trkpt><trkpt lat="43.2964124" lon="17.0256269"><ele>55.0</ele><time>2026-05-04T14:29:29.614Z</time></trkpt><trkpt lat="43.2965135" lon="17.0255431"><ele>55.0</ele><time>2026-05-04T14:29:30.615Z</time></trkpt><trkpt lat="43.2966145" lon="17.0254579"><ele>55.0</ele><time>2026-05-04T14:29:31.615Z</time></trkpt><trkpt lat="43.2967175" lon="17.025373"><ele>55.5</ele><time>2026-05-04T14:29:32.616Z</time></trkpt><trkpt lat="43.2968202" lon="17.025289"><ele>56.0</ele><time>2026-05-04T14:29:33.615Z</time></trkpt><trkpt lat="43.2969252" lon="17.025203"><ele>56.5</ele><time>2026-05-04T14:29:34.612Z</time></trkpt><trkpt lat="43.2970257" lon="17.0251064"><ele>57.0</ele><time>2026-05-04T14:29:35.616Z</time></trkpt><trkpt lat="43.2971311" lon="17.0250137"><ele>56.75</ele><time>2026-05-04T14:29:36.615Z</time></trkpt><trkpt lat="43.2972388" lon="17.0249085"><ele>56.5</ele><time>2026-05-04T14:29:37.614Z</time></trkpt><trkpt lat="43.297345" lon="17.0248021"><ele>56.25</ele><time>2026-05-04T14:29:38.616Z</time></trkpt><trkpt lat="43.297456" lon="17.0246984"><ele>56.0</ele><time>2026-05-04T14:29:39.616Z</time></trkpt><trkpt lat="43.2975694" lon="17.0245879"><ele>56.0</ele><time>2026-05-04T14:29:40.614Z</time></trkpt><trkpt lat="43.2976834" lon="17.0244717"><ele>56.0</ele><time>2026-05-04T14:29:41.614Z</time></trkpt><trkpt lat="43.2977915" lon="17.0243563"><ele>56.0</ele><time>2026-05-04T14:29:42.615Z</time></trkpt><trkpt lat="43.2978987" lon="17.0242359"><ele>56.0</ele><time>2026-05-04T14:29:43.615Z</time></trkpt><trkpt lat="43.2980042" lon="17.0241138"><ele>56.25</ele><time>2026-05-04T14:29:44.616Z</time></trkpt><trkpt lat="43.2981047" lon="17.0239933"><ele>56.5</ele><time>2026-05-04T14:29:45.613Z</time></trkpt><trkpt lat="43.2982026" lon="17.023877"><ele>56.75</ele><time>2026-05-04T14:29:46.616Z</time></trkpt><trkpt lat="43.2982939" lon="17.023766"><ele>57.0</ele><time>2026-05-04T14:29:47.614Z</time></trkpt><trkpt lat="43.2983819" lon="17.023663"><ele>57.0</ele><time>2026-05-04T14:29:48.616Z</time></trkpt><trkpt lat="43.2984738" lon="17.0235543"><ele>57.0</ele><time>2026-05-04T14:29:49.616Z</time></trkpt><trkpt lat="43.2985652" lon="17.0234427"><ele>57.0</ele><time>2026-05-04T14:29:50.613Z</time></trkpt><trkpt lat="43.2986567" lon="17.0233258"><ele>57.0</ele><time>2026-05-04T14:29:51.616Z</time></trkpt><trkpt lat="43.2987461" lon="17.0232085"><ele>57.0</ele><time>2026-05-04T14:29:52.614Z</time></trkpt><trkpt lat="43.298833" lon="17.0230974"><ele>57.0</ele><time>2026-05-04T14:29:53.613Z</time></trkpt><trkpt lat="43.2989208" lon="17.0229825"><ele>57.0</ele><time>2026-05-04T14:29:54.616Z</time></trkpt><trkpt lat="43.2990094" lon="17.0228696"><ele>57.0</ele><time>2026-05-04T14:29:55.615Z</time></trkpt><trkpt lat="43.2990949" lon="17.022761"><ele>57.0</ele><time>2026-05-04T14:29:56.613Z</time></trkpt><trkpt lat="43.2991776" lon="17.0226439"><ele>57.0</ele><time>2026-05-04T14:29:57.616Z</time></trkpt><trkpt lat="43.2992644" lon="17.0225292"><ele>57.0</ele><time>2026-05-04T14:29:58.615Z</time></trkpt><trkpt lat="43.2993504" lon="17.0224178"><ele>57.0</ele><time>2026-05-04T14:29:59.616Z</time></trkpt><trkpt lat="43.2994364" lon="17.0223045"><ele>55.75</ele><time>2026-05-04T14:30:00.615Z</time></trkpt><trkpt lat="43.2995187" lon="17.0221955"><ele>54.5</ele><time>2026-05-04T14:30:01.616Z</time></trkpt><trkpt lat="43.2996" lon="17.0220848"><ele>53.25</ele><time>2026-05-04T14:30:02.615Z</time></trkpt><trkpt lat="43.2996814" lon="17.021967"><ele>52.0</ele><time>2026-05-04T14:30:03.616Z</time></trkpt><trkpt lat="43.2997602" lon="17.0218483"><ele>52.0</ele><time>2026-05-04T14:30:04.613Z</time></trkpt><trkpt lat="43.2998348" lon="17.0217318"><ele>52.0</ele><time>2026-05-04T14:30:05.615Z</time></trkpt><trkpt lat="43.2999022" lon="17.0216234"><ele>52.0</ele><time>2026-05-04T14:30:06.615Z</time></trkpt><trkpt lat="43.2999628" lon="17.0215153"><ele>52.0</ele><time>2026-05-04T14:30:07.613Z</time></trkpt><trkpt lat="43.3000302" lon="17.0214022"><ele>52.0</ele><time>2026-05-04T14:30:08.616Z</time></trkpt><trkpt lat="43.3000889" lon="17.0212863"><ele>50.6</ele><time>2026-05-04T14:30:09.615Z</time></trkpt><trkpt lat="43.3001453" lon="17.0211703"><ele>49.2</ele><time>2026-05-04T14:30:10.615Z</time></trkpt><trkpt lat="43.3001944" lon="17.0210577"><ele>47.8</ele><time>2026-05-04T14:30:11.615Z</time></trkpt><trkpt lat="43.3002401" lon="17.0209494"><ele>46.4</ele><time>2026-05-04T14:30:12.614Z</time></trkpt><trkpt lat="43.3002894" lon="17.0208351"><ele>45.0</ele><time>2026-05-04T14:30:13.616Z</time></trkpt><trkpt lat="43.3003371" lon="17.0207111"><ele>43.8</ele><time>2026-05-04T14:30:14.616Z</time></trkpt><trkpt lat="43.3003785" lon="17.0205857"><ele>42.6</ele><time>2026-05-04T14:30:15.614Z</time></trkpt><trkpt lat="43.3004186" lon="17.0204599"><ele>41.4</ele><time>2026-05-04T14:30:16.615Z</time></trkpt><trkpt lat="43.3004549" lon="17.0203341"><ele>40.2</ele><time>2026-05-04T14:30:17.615Z</time></trkpt><trkpt lat="43.3004893" lon="17.0202094"><ele>39.0</ele><time>2026-05-04T14:30:18.615Z</time></trkpt><trkpt lat="43.300517" lon="17.020087"><ele>38.6</ele><time>2026-05-04T14:30:19.615Z</time></trkpt><trkpt lat="43.3005447" lon="17.0199667"><ele>38.2</ele><time>2026-05-04T14:30:20.616Z</time></trkpt><trkpt lat="43.3005728" lon="17.0198452"><ele>37.800000000000004</ele><time>2026-05-04T14:30:21.616Z</time></trkpt><trkpt lat="43.3006008" lon="17.0197208"><ele>37.4</ele><time>2026-05-04T14:30:22.615Z</time></trkpt><trkpt lat="43.3006263" lon="17.0195965"><ele>37.0</ele><time>2026-05-04T14:30:23.615Z</time></trkpt><trkpt lat="43.3006502" lon="17.0194721"><ele>38.8</ele><time>2026-05-04T14:30:24.615Z</time></trkpt><trkpt lat="43.3006767" lon="17.0193524"><ele>40.6</ele><time>2026-05-04T14:30:25.615Z</time></trkpt><trkpt lat="43.3007069" lon="17.0192246"><ele>42.4</ele><time>2026-05-04T14:30:26.615Z</time></trkpt><trkpt lat="43.3007375" lon="17.0190967"><ele>44.199999999999996</ele><time>2026-05-04T14:30:27.615Z</time></trkpt><trkpt lat="43.3007663" lon="17.0189656"><ele>46.0</ele><time>2026-05-04T14:30:28.613Z</time></trkpt><trkpt lat="43.3007969" lon="17.0188252"><ele>46.0</ele><time>2026-05-04T14:30:29.614Z</time></trkpt><trkpt lat="43.3008407" lon="17.0186812"><ele>46.0</ele><time>2026-05-04T14:30:30.616Z</time></trkpt><trkpt lat="43.300876" lon="17.0185363"><ele>46.0</ele><time>2026-05-04T14:30:31.615Z</time></trkpt><trkpt lat="43.3009179" lon="17.0183963"><ele>46.0</ele><time>2026-05-04T14:30:32.615Z</time></trkpt><trkpt lat="43.3009629" lon="17.0182566"><ele>46.0</ele><time>2026-05-04T14:30:33.614Z</time></trkpt><trkpt lat="43.3010076" lon="17.018127"><ele>43.8</ele><time>2026-05-04T14:30:34.615Z</time></trkpt><trkpt lat="43.3010565" lon="17.0179999"><ele>41.599999999999994</ele><time>2026-05-04T14:30:35.616Z</time></trkpt><trkpt lat="43.3011047" lon="17.0178711"><ele>39.4</ele><time>2026-05-04T14:30:36.615Z</time></trkpt><trkpt lat="43.301149" lon="17.0177499"><ele>37.2</ele><time>2026-05-04T14:30:37.612Z</time></trkpt><trkpt lat="43.3011929" lon="17.0176315"><ele>35.0</ele><time>2026-05-04T14:30:38.614Z</time></trkpt><trkpt lat="43.3012396" lon="17.0175172"><ele>34.33333333333333</ele><time>2026-05-04T14:30:39.613Z</time></trkpt><trkpt lat="43.3012881" lon="17.017411"><ele>33.666666666666664</ele><time>2026-05-04T14:30:40.615Z</time></trkpt><trkpt lat="43.3013313" lon="17.0173118"><ele>33.0</ele><time>2026-05-04T14:30:41.615Z</time></trkpt><trkpt lat="43.3013709" lon="17.0172192"><ele>32.333333333333336</ele><time>2026-05-04T14:30:42.615Z</time></trkpt><trkpt lat="43.3014014" lon="17.0171351"><ele>31.666666666666668</ele><time>2026-05-04T14:30:43.615Z</time></trkpt><trkpt lat="43.3014442" lon="17.0170417"><ele>31.0</ele><time>2026-05-04T14:30:44.616Z</time></trkpt><trkpt lat="43.301497" lon="17.0169373"><ele>32.8</ele><time>2026-05-04T14:30:45.616Z</time></trkpt><trkpt lat="43.3015495" lon="17.0168276"><ele>34.6</ele><time>2026-05-04T14:30:46.616Z</time></trkpt><trkpt lat="43.3016081" lon="17.0167046"><ele>36.4</ele><time>2026-05-04T14:30:47.613Z</time></trkpt><trkpt lat="43.3016743" lon="17.0165792"><ele>38.2</ele><time>2026-05-04T14:30:48.614Z</time></trkpt><trkpt lat="43.3017405" lon="17.0164537"><ele>40.0</ele><time>2026-05-04T14:30:49.615Z</time></trkpt><trkpt lat="43.3018038" lon="17.01633"><ele>40.0</ele><time>2026-05-04T14:30:50.615Z</time></trkpt><trkpt lat="43.3018678" lon="17.0162111"><ele>40.0</ele><time>2026-05-04T14:30:51.615Z</time></trkpt><trkpt lat="43.3019305" lon="17.0160887"><ele>40.0</ele><time>2026-05-04T14:30:52.615Z</time></trkpt><trkpt lat="43.3019893" lon="17.0159721"><ele>40.0</ele><time>2026-05-04T14:30:53.614Z</time></trkpt><trkpt lat="43.3020415" lon="17.0158637"><ele>40.0</ele><time>2026-05-04T14:30:54.616Z</time></trkpt><trkpt lat="43.3020978" lon="17.0157489"><ele>39.4</ele><time>2026-05-04T14:30:55.615Z</time></trkpt><trkpt lat="43.302152" lon="17.0156315"><ele>38.8</ele><time>2026-05-04T14:30:56.615Z</time></trkpt><trkpt lat="43.3022076" lon="17.0155114"><ele>38.2</ele><time>2026-05-04T14:30:57.615Z</time></trkpt><trkpt lat="43.302261" lon="17.0153792"><ele>37.6</ele><time>2026-05-04T14:30:58.615Z</time></trkpt><trkpt lat="43.3023182" lon="17.0152508"><ele>37.0</ele><time>2026-05-04T14:30:59.616Z</time></trkpt><trkpt lat="43.3023761" lon="17.0151196"><ele>36.0</ele><time>2026-05-04T14:31:00.615Z</time></trkpt><trkpt lat="43.3024321" lon="17.0149917"><ele>35.0</ele><time>2026-05-04T14:31:01.615Z</time></trkpt><trkpt lat="43.302487" lon="17.0148672"><ele>34.0</ele><time>2026-05-04T14:31:02.616Z</time></trkpt><trkpt lat="43.3025478" lon="17.0147417"><ele>33.0</ele><time>2026-05-04T14:31:03.616Z</time></trkpt><trkpt lat="43.3026058" lon="17.0146196"><ele>32.0</ele><time>2026-05-04T14:31:04.616Z</time></trkpt><trkpt lat="43.3026619" lon="17.0145091"><ele>31.999999999999996</ele><time>2026-05-04T14:31:05.616Z</time></trkpt><trkpt lat="43.302712" lon="17.0144017"><ele>32.0</ele><time>2026-05-04T14:31:06.615Z</time></trkpt><trkpt lat="43.3027588" lon="17.0143003"><ele>32.0</ele><time>2026-05-04T14:31:07.615Z</time></trkpt><trkpt lat="43.3028075" lon="17.0142001"><ele>32.0</ele><time>2026-05-04T14:31:08.616Z</time></trkpt><trkpt lat="43.3028518" lon="17.0141"><ele>31.999999999999996</ele><time>2026-05-04T14:31:09.615Z</time></trkpt><trkpt lat="43.3029025" lon="17.013992"><ele>32.0</ele><time>2026-05-04T14:31:10.616Z</time></trkpt><trkpt lat="43.3029557" lon="17.0138819"><ele>32.166666666666664</ele><time>2026-05-04T14:31:11.616Z</time></trkpt><trkpt lat="43.3030064" lon="17.0137732"><ele>32.33333333333333</ele><time>2026-05-04T14:31:12.616Z</time></trkpt><trkpt lat="43.303055" lon="17.0136738"><ele>32.5</ele><time>2026-05-04T14:31:13.616Z</time></trkpt><trkpt lat="43.3031027" lon="17.0135797"><ele>32.666666666666664</ele><time>2026-05-04T14:31:14.616Z</time></trkpt><trkpt lat="43.3031516" lon="17.0134818"><ele>32.833333333333336</ele><time>2026-05-04T14:31:15.615Z</time></trkpt><trkpt lat="43.3032013" lon="17.0133722"><ele>33.0</ele><time>2026-05-04T14:31:16.616Z</time></trkpt><trkpt lat="43.303255" lon="17.0132553"><ele>32.0</ele><time>2026-05-04T14:31:17.615Z</time></trkpt><trkpt lat="43.3033047" lon="17.013144"><ele>30.999999999999996</ele><time>2026-05-04T14:31:18.615Z</time></trkpt><trkpt lat="43.3033553" lon="17.0130346"><ele>29.999999999999996</ele><time>2026-05-04T14:31:19.616Z</time></trkpt><trkpt lat="43.3034064" lon="17.0129264"><ele>29.0</ele><time>2026-05-04T14:31:20.615Z</time></trkpt><trkpt lat="43.3034617" lon="17.0128057"><ele>28.0</ele><time>2026-05-04T14:31:21.615Z</time></trkpt><trkpt lat="43.3035151" lon="17.0126908"><ele>28.0</ele><time>2026-05-04T14:31:22.616Z</time></trkpt><trkpt lat="43.3035705" lon="17.0125742"><ele>27.999999999999996</ele><time>2026-05-04T14:31:23.616Z</time></trkpt><trkpt lat="43.3036247" lon="17.0124593"><ele>27.999999999999996</ele><time>2026-05-04T14:31:24.616Z</time></trkpt><trkpt lat="43.3036835" lon="17.0123323"><ele>28.0</ele><time>2026-05-04T14:31:25.616Z</time></trkpt><trkpt lat="43.3037447" lon="17.0121992"><ele>28.0</ele><time>2026-05-04T14:31:26.616Z</time></trkpt><trkpt lat="43.3038055" lon="17.0120708"><ele>28.0</ele><time>2026-05-04T14:31:27.615Z</time></trkpt><trkpt lat="43.3038634" lon="17.011947"><ele>27.999999999999996</ele><time>2026-05-04T14:31:28.614Z</time></trkpt><trkpt lat="43.3039207" lon="17.0118262"><ele>27.999999999999996</ele><time>2026-05-04T14:31:29.616Z</time></trkpt><trkpt lat="43.3039799" lon="17.011708"><ele>28.0</ele><time>2026-05-04T14:31:30.615Z</time></trkpt><trkpt lat="43.3040331" lon="17.0115924"><ele>28.0</ele><time>2026-05-04T14:31:31.615Z</time></trkpt><trkpt lat="43.3040914" lon="17.011468"><ele>28.0</ele><time>2026-05-04T14:31:32.615Z</time></trkpt><trkpt lat="43.3041483" lon="17.0113419"><ele>27.999999999999996</ele><time>2026-05-04T14:31:33.615Z</time></trkpt><trkpt lat="43.3041991" lon="17.011223"><ele>27.999999999999996</ele><time>2026-05-04T14:31:34.614Z</time></trkpt><trkpt lat="43.3042549" lon="17.0111075"><ele>28.0</ele><time>2026-05-04T14:31:35.616Z</time></trkpt><trkpt lat="43.3043093" lon="17.0109857"><ele>28.0</ele><time>2026-05-04T14:31:36.615Z</time></trkpt><trkpt lat="43.3043594" lon="17.0108823"><ele>27.500000000000004</ele><time>2026-05-04T14:31:37.615Z</time></trkpt><trkpt lat="43.3044008" lon="17.0107821"><ele>27.0</ele><time>2026-05-04T14:31:38.614Z</time></trkpt><trkpt lat="43.3044348" lon="17.0106974"><ele>26.5</ele><time>2026-05-04T14:31:39.616Z</time></trkpt><trkpt lat="43.3044702" lon="17.0106253"><ele>26.0</ele><time>2026-05-04T14:31:40.615Z</time></trkpt><trkpt lat="43.3045096" lon="17.0105362"><ele>25.500000000000004</ele><time>2026-05-04T14:31:42.616Z</time></trkpt><trkpt lat="43.3045695" lon="17.0104436"><ele>25.0</ele><time>2026-05-04T14:31:55.614Z</time></trkpt><trkpt lat="43.304614" lon="17.0103517"><ele>25.000000000000004</ele><time>2026-05-04T14:31:57.614Z</time></trkpt><trkpt lat="43.3046768" lon="17.0102265"><ele>25.0</ele><time>2026-05-04T14:31:59.615Z</time></trkpt><trkpt lat="43.3047132" lon="17.010146"><ele>25.0</ele><time>2026-05-04T14:32:00.614Z</time></trkpt><trkpt lat="43.3047494" lon="17.0100695"><ele>25.0</ele><time>2026-05-04T14:32:01.614Z</time></trkpt><trkpt lat="43.3047962" lon="17.0099789"><ele>25.000000000000004</ele><time>2026-05-04T14:32:02.615Z</time></trkpt><trkpt lat="43.3048409" lon="17.0098866"><ele>25.0</ele><time>2026-05-04T14:32:03.613Z</time></trkpt><trkpt lat="43.3048826" lon="17.0097879"><ele>25.4</ele><time>2026-05-04T14:32:04.615Z</time></trkpt><trkpt lat="43.304927" lon="17.0096957"><ele>25.8</ele><time>2026-05-04T14:32:05.616Z</time></trkpt><trkpt lat="43.3049749" lon="17.009596"><ele>26.200000000000003</ele><time>2026-05-04T14:32:06.615Z</time></trkpt><trkpt lat="43.3050266" lon="17.0094865"><ele>26.6</ele><time>2026-05-04T14:32:07.587Z</time></trkpt><trkpt lat="43.3050823" lon="17.0093723"><ele>27.0</ele><time>2026-05-04T14:32:08.585Z</time></trkpt><trkpt lat="43.3051435" lon="17.0092553"><ele>27.200000000000003</ele><time>2026-05-04T14:32:09.585Z</time></trkpt><trkpt lat="43.3052109" lon="17.0091321"><ele>27.400000000000002</ele><time>2026-05-04T14:32:10.587Z</time></trkpt><trkpt lat="43.3052804" lon="17.0090127"><ele>27.599999999999998</ele><time>2026-05-04T14:32:11.585Z</time></trkpt><trkpt lat="43.3053528" lon="17.0088924"><ele>27.799999999999997</ele><time>2026-05-04T14:32:12.587Z</time></trkpt><trkpt lat="43.3054242" lon="17.0087754"><ele>28.0</ele><time>2026-05-04T14:32:13.587Z</time></trkpt><trkpt lat="43.3054996" lon="17.0086617"><ele>28.000000000000004</ele><time>2026-05-04T14:32:14.588Z</time></trkpt><trkpt lat="43.3055684" lon="17.0085622"><ele>28.0</ele><time>2026-05-04T14:32:15.588Z</time></trkpt><trkpt lat="43.3056198" lon="17.0084871"><ele>28.0</ele><time>2026-05-04T14:32:16.587Z</time></trkpt><trkpt lat="43.3056753" lon="17.0084207"><ele>28.0</ele><time>2026-05-04T14:32:18.587Z</time></trkpt><trkpt lat="43.3057286" lon="17.0083502"><ele>28.000000000000004</ele><time>2026-05-04T14:32:20.588Z</time></trkpt><trkpt lat="43.3058243" lon="17.0082391"><ele>28.0</ele><time>2026-05-04T14:32:22.588Z</time></trkpt><trkpt lat="43.3058813" lon="17.0081779"><ele>29.000000000000004</ele><time>2026-05-04T14:32:23.587Z</time></trkpt><trkpt lat="43.3059381" lon="17.0081173"><ele>30.0</ele><time>2026-05-04T14:32:24.587Z</time></trkpt><trkpt lat="43.3059972" lon="17.0080507"><ele>31.0</ele><time>2026-05-04T14:32:25.587Z</time></trkpt><trkpt lat="43.3060651" lon="17.007975"><ele>32.0</ele><time>2026-05-04T14:32:26.587Z</time></trkpt><trkpt lat="43.3061425" lon="17.0078933"><ele>33.0</ele><time>2026-05-04T14:32:27.587Z</time></trkpt><trkpt lat="43.3062317" lon="17.0078055"><ele>34.0</ele><time>2026-05-04T14:32:28.587Z</time></trkpt><trkpt lat="43.3063232" lon="17.0077143"><ele>34.75</ele><time>2026-05-04T14:32:29.588Z</time></trkpt><trkpt lat="43.3064192" lon="17.0076258"><ele>35.5</ele><time>2026-05-04T14:32:30.588Z</time></trkpt><trkpt lat="43.3065131" lon="17.0075338"><ele>36.25</ele><time>2026-05-04T14:32:31.587Z</time></trkpt><trkpt lat="43.3066139" lon="17.0074418"><ele>37.0</ele><time>2026-05-04T14:32:32.587Z</time></trkpt><trkpt lat="43.3067151" lon="17.0073516"><ele>37.0</ele><time>2026-05-04T14:32:33.587Z</time></trkpt><trkpt lat="43.3068229" lon="17.0072588"><ele>37.0</ele><time>2026-05-04T14:32:34.588Z</time></trkpt><trkpt lat="43.3069352" lon="17.0071649"><ele>37.0</ele><time>2026-05-04T14:32:35.588Z</time></trkpt><trkpt lat="43.3070492" lon="17.0070707"><ele>37.0</ele><time>2026-05-04T14:32:36.587Z</time></trkpt><trkpt lat="43.307166" lon="17.0069825"><ele>38.75</ele><time>2026-05-04T14:32:37.587Z</time></trkpt><trkpt lat="43.3072899" lon="17.0068955"><ele>40.5</ele><time>2026-05-04T14:32:38.587Z</time></trkpt><trkpt lat="43.307416" lon="17.0068104"><ele>42.25</ele><time>2026-05-04T14:32:39.588Z</time></trkpt><trkpt lat="43.3075451" lon="17.0067241"><ele>44.0</ele><time>2026-05-04T14:32:40.588Z</time></trkpt><trkpt lat="43.3076746" lon="17.006638"><ele>44.0</ele><time>2026-05-04T14:32:41.587Z</time></trkpt><trkpt lat="43.3078064" lon="17.00655"><ele>44.0</ele><time>2026-05-04T14:32:42.587Z</time></trkpt><trkpt lat="43.3079368" lon="17.0064685"><ele>44.0</ele><time>2026-05-04T14:32:43.587Z</time></trkpt><trkpt lat="43.3080689" lon="17.0063897"><ele>44.0</ele><time>2026-05-04T14:32:44.588Z</time></trkpt><trkpt lat="43.3081897" lon="17.0063166"><ele>44.400000000000006</ele><time>2026-05-04T14:32:45.587Z</time></trkpt><trkpt lat="43.3083073" lon="17.0062486"><ele>44.8</ele><time>2026-05-04T14:32:46.588Z</time></trkpt><trkpt lat="43.3084125" lon="17.0061872"><ele>45.2</ele><time>2026-05-04T14:32:47.588Z</time></trkpt><trkpt lat="43.3085059" lon="17.006132"><ele>45.599999999999994</ele><time>2026-05-04T14:32:48.588Z</time></trkpt><trkpt lat="43.3085849" lon="17.0060852"><ele>46.0</ele><time>2026-05-04T14:32:49.588Z</time></trkpt><trkpt lat="43.3086554" lon="17.0060438"><ele>46.0</ele><time>2026-05-04T14:32:50.588Z</time></trkpt><trkpt lat="43.3087169" lon="17.0060075"><ele>46.0</ele><time>2026-05-04T14:32:51.588Z</time></trkpt><trkpt lat="43.3088194" lon="17.0059562"><ele>46.0</ele><time>2026-05-04T14:32:53.588Z</time></trkpt><trkpt lat="43.3088965" lon="17.005927"><ele>46.0</ele><time>2026-05-04T14:32:55.587Z</time></trkpt><trkpt lat="43.3089637" lon="17.0058944"><ele>46.0</ele><time>2026-05-04T14:33:02.588Z</time></trkpt><trkpt lat="43.3090578" lon="17.0058626"><ele>46.0</ele><time>2026-05-04T14:33:16.588Z</time></trkpt><trkpt lat="43.309131" lon="17.0058349"><ele>46.75</ele><time>2026-05-04T14:33:17.587Z</time></trkpt><trkpt lat="43.3092203" lon="17.0058064"><ele>47.5</ele><time>2026-05-04T14:33:18.587Z</time></trkpt><trkpt lat="43.3093299" lon="17.0057733"><ele>48.25</ele><time>2026-05-04T14:33:19.587Z</time></trkpt><trkpt lat="43.3094634" lon="17.005733"><ele>49.0</ele><time>2026-05-04T14:33:20.588Z</time></trkpt><trkpt lat="43.3096036" lon="17.0056936"><ele>52.0</ele><time>2026-05-04T14:33:21.588Z</time></trkpt><trkpt lat="43.3097608" lon="17.0056548"><ele>55.0</ele><time>2026-05-04T14:33:22.588Z</time></trkpt><trkpt lat="43.3099268" lon="17.0056163"><ele>58.0</ele><time>2026-05-04T14:33:23.588Z</time></trkpt><trkpt lat="43.3101002" lon="17.0055846"><ele>58.0</ele><time>2026-05-04T14:33:24.588Z</time></trkpt><trkpt lat="43.3102798" lon="17.0055582"><ele>58.0</ele><time>2026-05-04T14:33:25.587Z</time></trkpt><trkpt lat="43.3104665" lon="17.0055357"><ele>58.0</ele><time>2026-05-04T14:33:26.588Z</time></trkpt><trkpt lat="43.3106547" lon="17.005514"><ele>58.666666666666664</ele><time>2026-05-04T14:33:27.588Z</time></trkpt><trkpt lat="43.3108444" lon="17.0054897"><ele>59.33333333333333</ele><time>2026-05-04T14:33:28.587Z</time></trkpt><trkpt lat="43.3110247" lon="17.0054664"><ele>60.0</ele><time>2026-05-04T14:33:29.588Z</time></trkpt><trkpt lat="43.3111987" lon="17.0054442"><ele>60.0</ele><time>2026-05-04T14:33:30.588Z</time></trkpt><trkpt lat="43.3113684" lon="17.0054207"><ele>60.0</ele><time>2026-05-04T14:33:31.588Z</time></trkpt><trkpt lat="43.3115357" lon="17.005398"><ele>60.0</ele><time>2026-05-04T14:33:32.587Z</time></trkpt><trkpt lat="43.3116928" lon="17.0053768"><ele>60.66666666666667</ele><time>2026-05-04T14:33:33.587Z</time></trkpt><trkpt lat="43.3118491" lon="17.0053548"><ele>61.333333333333336</ele><time>2026-05-04T14:33:34.588Z</time></trkpt><trkpt lat="43.312" lon="17.0053334"><ele>62.0</ele><time>2026-05-04T14:33:35.588Z</time></trkpt><trkpt lat="43.3121494" lon="17.0053139"><ele>62.75</ele><time>2026-05-04T14:33:36.587Z</time></trkpt><trkpt lat="43.3122907" lon="17.0052966"><ele>63.5</ele><time>2026-05-04T14:33:37.588Z</time></trkpt><trkpt lat="43.312427" lon="17.0052781"><ele>64.25</ele><time>2026-05-04T14:33:38.587Z</time></trkpt><trkpt lat="43.3125625" lon="17.0052596"><ele>65.0</ele><time>2026-05-04T14:33:39.587Z</time></trkpt><trkpt lat="43.3127019" lon="17.0052354"><ele>65.0</ele><time>2026-05-04T14:33:40.588Z</time></trkpt><trkpt lat="43.3128353" lon="17.0052073"><ele>65.0</ele><time>2026-05-04T14:33:41.588Z</time></trkpt><trkpt lat="43.3129695" lon="17.005175"><ele>65.0</ele><time>2026-05-04T14:33:42.588Z</time></trkpt><trkpt lat="43.3131003" lon="17.0051393"><ele>65.0</ele><time>2026-05-04T14:33:43.588Z</time></trkpt><trkpt lat="43.3132283" lon="17.0051014"><ele>64.5</ele><time>2026-05-04T14:33:44.587Z</time></trkpt><trkpt lat="43.3133502" lon="17.005062"><ele>64.0</ele><time>2026-05-04T14:33:45.587Z</time></trkpt><trkpt lat="43.3134735" lon="17.0050156"><ele>63.5</ele><time>2026-05-04T14:33:46.587Z</time></trkpt><trkpt lat="43.3135966" lon="17.004963"><ele>63.0</ele><time>2026-05-04T14:33:47.587Z</time></trkpt><trkpt lat="43.3137212" lon="17.0049058"><ele>62.25</ele><time>2026-05-04T14:33:48.588Z</time></trkpt><trkpt lat="43.3138411" lon="17.004843"><ele>61.5</ele><time>2026-05-04T14:33:49.587Z</time></trkpt><trkpt lat="43.3139617" lon="17.0047782"><ele>60.75</ele><time>2026-05-04T14:33:50.588Z</time></trkpt><trkpt lat="43.3140779" lon="17.0047095"><ele>60.0</ele><time>2026-05-04T14:33:51.588Z</time></trkpt><trkpt lat="43.3141932" lon="17.0046369"><ele>60.0</ele><time>2026-05-04T14:33:52.588Z</time></trkpt><trkpt lat="43.3143003" lon="17.0045637"><ele>60.0</ele><time>2026-05-04T14:33:53.587Z</time></trkpt><trkpt lat="43.3144069" lon="17.0044855"><ele>60.0</ele><time>2026-05-04T14:33:54.587Z</time></trkpt><trkpt lat="43.3145099" lon="17.0043996"><ele>60.0</ele><time>2026-05-04T14:33:55.587Z</time></trkpt><trkpt lat="43.314614" lon="17.0043072"><ele>60.0</ele><time>2026-05-04T14:33:56.588Z</time></trkpt><trkpt lat="43.3147167" lon="17.0042151"><ele>60.0</ele><time>2026-05-04T14:33:57.587Z</time></trkpt><trkpt lat="43.3148238" lon="17.0041127"><ele>60.0</ele><time>2026-05-04T14:33:58.588Z</time></trkpt><trkpt lat="43.3149366" lon="17.0039848"><ele>60.0</ele><time>2026-05-04T14:33:59.587Z</time></trkpt><trkpt lat="43.3150656" lon="17.0038354"><ele>64.33333333333333</ele><time>2026-05-04T14:34:00.587Z</time></trkpt><trkpt lat="43.3152025" lon="17.0036794"><ele>68.66666666666666</ele><time>2026-05-04T14:34:01.588Z</time></trkpt><trkpt lat="43.3153457" lon="17.0035098"><ele>73.0</ele><time>2026-05-04T14:34:02.588Z</time></trkpt><trkpt lat="43.31549" lon="17.0033317"><ele>75.66666666666666</ele><time>2026-05-04T14:34:03.588Z</time></trkpt><trkpt lat="43.3156306" lon="17.0031407"><ele>78.33333333333333</ele><time>2026-05-04T14:34:04.588Z</time></trkpt><trkpt lat="43.3157699" lon="17.0029517"><ele>81.0</ele><time>2026-05-04T14:34:05.587Z</time></trkpt><trkpt lat="43.3159075" lon="17.0027477"><ele>81.0</ele><time>2026-05-04T14:34:06.587Z</time></trkpt><trkpt lat="43.3160404" lon="17.0025338"><ele>81.0</ele><time>2026-05-04T14:34:07.587Z</time></trkpt><trkpt lat="43.3161706" lon="17.0023072"><ele>81.0</ele><time>2026-05-04T14:34:08.587Z</time></trkpt><trkpt lat="43.3162941" lon="17.0020837"><ele>82.0</ele><time>2026-05-04T14:34:09.587Z</time></trkpt><trkpt lat="43.3164163" lon="17.0018553"><ele>83.0</ele><time>2026-05-04T14:34:10.588Z</time></trkpt><trkpt lat="43.3165331" lon="17.0016249"><ele>84.0</ele><time>2026-05-04T14:34:11.587Z</time></trkpt><trkpt lat="43.316646" lon="17.0013889"><ele>84.0</ele><time>2026-05-04T14:34:12.588Z</time></trkpt><trkpt lat="43.3167512" lon="17.001153"><ele>84.0</ele><time>2026-05-04T14:34:13.588Z</time></trkpt><trkpt lat="43.3168552" lon="17.0009077"><ele>84.0</ele><time>2026-05-04T14:34:14.588Z</time></trkpt><trkpt lat="43.3169533" lon="17.0006587"><ele>82.66666666666667</ele><time>2026-05-04T14:34:15.588Z</time></trkpt><trkpt lat="43.317052" lon="17.0004006"><ele>81.33333333333334</ele><time>2026-05-04T14:34:16.587Z</time></trkpt><trkpt lat="43.3171434" lon="17.0001442"><ele>80.0</ele><time>2026-05-04T14:34:17.588Z</time></trkpt><trkpt lat="43.3172328" lon="16.9998804"><ele>87.66666666666667</ele><time>2026-05-04T14:34:18.588Z</time></trkpt><trkpt lat="43.3173145" lon="16.9996165"><ele>95.33333333333334</ele><time>2026-05-04T14:34:19.588Z</time></trkpt><trkpt lat="43.3173936" lon="16.9993463"><ele>103.0</ele><time>2026-05-04T14:34:20.587Z</time></trkpt><trkpt lat="43.3174649" lon="16.9990818"><ele>103.0</ele><time>2026-05-04T14:34:21.588Z</time></trkpt><trkpt lat="43.3175353" lon="16.9988127"><ele>103.0</ele><time>2026-05-04T14:34:22.587Z</time></trkpt><trkpt lat="43.3176051" lon="16.9985415"><ele>103.0</ele><time>2026-05-04T14:34:23.588Z</time></trkpt><trkpt lat="43.3176753" lon="16.998266"><ele>103.0</ele><time>2026-05-04T14:34:24.587Z</time></trkpt><trkpt lat="43.3177449" lon="16.9979967"><ele>103.0</ele><time>2026-05-04T14:34:25.588Z</time></trkpt><trkpt lat="43.3178119" lon="16.9977252"><ele>103.0</ele><time>2026-05-04T14:34:26.587Z</time></trkpt><trkpt lat="43.3178728" lon="16.9974528"><ele>103.66666666666667</ele><time>2026-05-04T14:34:27.588Z</time></trkpt><trkpt lat="43.3179383" lon="16.9971771"><ele>104.33333333333334</ele><time>2026-05-04T14:34:28.587Z</time></trkpt><trkpt lat="43.3180031" lon="16.9969124"><ele>105.0</ele><time>2026-05-04T14:34:29.588Z</time></trkpt><trkpt lat="43.3180685" lon="16.996644"><ele>105.0</ele><time>2026-05-04T14:34:30.588Z</time></trkpt><trkpt lat="43.3181329" lon="16.9963763"><ele>105.0</ele><time>2026-05-04T14:34:31.588Z</time></trkpt><trkpt lat="43.318198" lon="16.9961053"><ele>105.0</ele><time>2026-05-04T14:34:32.587Z</time></trkpt><trkpt lat="43.3182609" lon="16.9958441"><ele>106.66666666666666</ele><time>2026-05-04T14:34:33.587Z</time></trkpt><trkpt lat="43.3183291" lon="16.9955881"><ele>108.33333333333333</ele><time>2026-05-04T14:34:34.588Z</time></trkpt><trkpt lat="43.3184064" lon="16.9953427"><ele>110.0</ele><time>2026-05-04T14:34:35.588Z</time></trkpt><trkpt lat="43.3184957" lon="16.9951212"><ele>109.66666666666666</ele><time>2026-05-04T14:34:36.588Z</time></trkpt><trkpt lat="43.3186008" lon="16.9949259"><ele>109.33333333333334</ele><time>2026-05-04T14:34:37.588Z</time></trkpt><trkpt lat="43.3187293" lon="16.9947516"><ele>109.0</ele><time>2026-05-04T14:34:38.588Z</time></trkpt><trkpt lat="43.3188718" lon="16.9946029"><ele>112.66666666666667</ele><time>2026-05-04T14:34:39.587Z</time></trkpt><trkpt lat="43.3190343" lon="16.9944866"><ele>116.33333333333334</ele><time>2026-05-04T14:34:40.588Z</time></trkpt><trkpt lat="43.3192059" lon="16.9943915"><ele>120.0</ele><time>2026-05-04T14:34:41.588Z</time></trkpt><trkpt lat="43.3193895" lon="16.9943262"><ele>120.0</ele><time>2026-05-04T14:34:42.588Z</time></trkpt><trkpt lat="43.319577" lon="16.9942686"><ele>120.0</ele><time>2026-05-04T14:34:43.588Z</time></trkpt><trkpt lat="43.3197608" lon="16.9942069"><ele>120.0</ele><time>2026-05-04T14:34:44.588Z</time></trkpt><trkpt lat="43.3199344" lon="16.9941289"><ele>118.0</ele><time>2026-05-04T14:34:45.588Z</time></trkpt><trkpt lat="43.3201054" lon="16.9940264"><ele>116.0</ele><time>2026-05-04T14:34:46.587Z</time></trkpt><trkpt lat="43.3202753" lon="16.9938898"><ele>114.0</ele><time>2026-05-04T14:34:47.587Z</time></trkpt><trkpt lat="43.320431" lon="16.993732"><ele>113.33333333333334</ele><time>2026-05-04T14:34:48.588Z</time></trkpt><trkpt lat="43.3205805" lon="16.9935555"><ele>112.66666666666667</ele><time>2026-05-04T14:34:49.587Z</time></trkpt><trkpt lat="43.320723" lon="16.9933738"><ele>112.0</ele><time>2026-05-04T14:34:50.587Z</time></trkpt><trkpt lat="43.3208669" lon="16.993183"><ele>112.0</ele><time>2026-05-04T14:34:51.587Z</time></trkpt><trkpt lat="43.321009" lon="16.9929941"><ele>112.0</ele><time>2026-05-04T14:34:52.587Z</time></trkpt><trkpt lat="43.32115" lon="16.9928098"><ele>112.0</ele><time>2026-05-04T14:34:53.587Z</time></trkpt><trkpt lat="43.3212906" lon="16.9926267"><ele>113.33333333333334</ele><time>2026-05-04T14:34:54.588Z</time></trkpt><trkpt lat="43.3214309" lon="16.9924477"><ele>114.66666666666666</ele><time>2026-05-04T14:34:55.588Z</time></trkpt><trkpt lat="43.3215705" lon="16.9922745"><ele>116.0</ele><time>2026-05-04T14:34:56.587Z</time></trkpt><trkpt lat="43.3217011" lon="16.9921175"><ele>116.0</ele><time>2026-05-04T14:34:57.588Z</time></trkpt><trkpt lat="43.3218313" lon="16.9919704"><ele>116.0</ele><time>2026-05-04T14:34:58.587Z</time></trkpt><trkpt lat="43.3219627" lon="16.99183"><ele>116.0</ele><time>2026-05-04T14:34:59.588Z</time></trkpt><trkpt lat="43.3221017" lon="16.9916897"><ele>116.33333333333333</ele><time>2026-05-04T14:35:00.588Z</time></trkpt><trkpt lat="43.3222483" lon="16.9915532"><ele>116.66666666666666</ele><time>2026-05-04T14:35:01.588Z</time></trkpt><trkpt lat="43.3224096" lon="16.9914099"><ele>117.0</ele><time>2026-05-04T14:35:02.587Z</time></trkpt><trkpt lat="43.3225759" lon="16.9912643"><ele>117.0</ele><time>2026-05-04T14:35:03.587Z</time></trkpt><trkpt lat="43.3227496" lon="16.9911131"><ele>117.0</ele><time>2026-05-04T14:35:04.588Z</time></trkpt><trkpt lat="43.3229225" lon="16.9909655"><ele>117.0</ele><time>2026-05-04T14:35:05.588Z</time></trkpt><trkpt lat="43.3230999" lon="16.9908125"><ele>117.0</ele><time>2026-05-04T14:35:06.587Z</time></trkpt><trkpt lat="43.323279" lon="16.9906561"><ele>117.0</ele><time>2026-05-04T14:35:07.587Z</time></trkpt><trkpt lat="43.3234619" lon="16.9904965"><ele>117.0</ele><time>2026-05-04T14:35:08.588Z</time></trkpt><trkpt lat="43.3236382" lon="16.9903449"><ele>117.0</ele><time>2026-05-04T14:35:09.587Z</time></trkpt><trkpt lat="43.3238138" lon="16.9901935"><ele>117.0</ele><time>2026-05-04T14:35:10.587Z</time></trkpt><trkpt lat="43.3239886" lon="16.990049"><ele>117.0</ele><time>2026-05-04T14:35:11.588Z</time></trkpt><trkpt lat="43.3241703" lon="16.9899162"><ele>117.33333333333334</ele><time>2026-05-04T14:35:12.587Z</time></trkpt><trkpt lat="43.3243505" lon="16.9898059"><ele>117.66666666666667</ele><time>2026-05-04T14:35:13.588Z</time></trkpt><trkpt lat="43.3245407" lon="16.9897181"><ele>118.0</ele><time>2026-05-04T14:35:14.588Z</time></trkpt><trkpt lat="43.324738" lon="16.9896508"><ele>118.0</ele><time>2026-05-04T14:35:15.588Z</time></trkpt><trkpt lat="43.3249467" lon="16.9896084"><ele>118.0</ele><time>2026-05-04T14:35:16.587Z</time></trkpt><trkpt lat="43.3251566" lon="16.9895883"><ele>118.0</ele><time>2026-05-04T14:35:17.588Z</time></trkpt><trkpt lat="43.32537" lon="16.989578"><ele>117.66666666666667</ele><time>2026-05-04T14:35:18.588Z</time></trkpt><trkpt lat="43.3255859" lon="16.9895673"><ele>117.33333333333334</ele><time>2026-05-04T14:35:19.587Z</time></trkpt><trkpt lat="43.3258004" lon="16.9895482"><ele>117.0</ele><time>2026-05-04T14:35:20.588Z</time></trkpt><trkpt lat="43.3260098" lon="16.9895064"><ele>117.0</ele><time>2026-05-04T14:35:21.588Z</time></trkpt><trkpt lat="43.326224" lon="16.9894324"><ele>117.0</ele><time>2026-05-04T14:35:22.587Z</time></trkpt><trkpt lat="43.3264407" lon="16.9893263"><ele>122.5</ele><time>2026-05-04T14:35:23.588Z</time></trkpt><trkpt lat="43.3266534" lon="16.989199"><ele>128.0</ele><time>2026-05-04T14:35:24.587Z</time></trkpt><trkpt lat="43.3268509" lon="16.9890663"><ele>123.33333333333333</ele><time>2026-05-04T14:35:25.588Z</time></trkpt><trkpt lat="43.3270404" lon="16.988933"><ele>118.66666666666666</ele><time>2026-05-04T14:35:26.587Z</time></trkpt><trkpt lat="43.3272218" lon="16.9888069"><ele>114.0</ele><time>2026-05-04T14:35:27.587Z</time></trkpt><trkpt lat="43.327399" lon="16.9886868"><ele>114.0</ele><time>2026-05-04T14:35:28.588Z</time></trkpt><trkpt lat="43.3275655" lon="16.9885793"><ele>114.0</ele><time>2026-05-04T14:35:29.587Z</time></trkpt><trkpt lat="43.3277267" lon="16.9884777"><ele>114.0</ele><time>2026-05-04T14:35:30.588Z</time></trkpt><trkpt lat="43.3278844" lon="16.9883859"><ele>109.66666666666666</ele><time>2026-05-04T14:35:31.588Z</time></trkpt><trkpt lat="43.3280421" lon="16.9882966"><ele>105.33333333333333</ele><time>2026-05-04T14:35:32.587Z</time></trkpt><trkpt lat="43.3281989" lon="16.9882133"><ele>101.0</ele><time>2026-05-04T14:35:33.587Z</time></trkpt><trkpt lat="43.3283534" lon="16.9881341"><ele>101.0</ele><time>2026-05-04T14:35:34.588Z</time></trkpt><trkpt lat="43.3285038" lon="16.988056"><ele>101.0</ele><time>2026-05-04T14:35:35.588Z</time></trkpt><trkpt lat="43.3286393" lon="16.987976"><ele>101.0</ele><time>2026-05-04T14:35:36.588Z</time></trkpt><trkpt lat="43.3287635" lon="16.9878859"><ele>101.0</ele><time>2026-05-04T14:35:37.587Z</time></trkpt><trkpt lat="43.3288673" lon="16.987787"><ele>100.6</ele><time>2026-05-04T14:35:38.588Z</time></trkpt><trkpt lat="43.3289562" lon="16.9876713"><ele>100.19999999999999</ele><time>2026-05-04T14:35:39.588Z</time></trkpt><trkpt lat="43.3290223" lon="16.9875483"><ele>99.80000000000001</ele><time>2026-05-04T14:35:40.588Z</time></trkpt><trkpt lat="43.3290652" lon="16.9874135"><ele>99.4</ele><time>2026-05-04T14:35:41.587Z</time></trkpt><trkpt lat="43.3290842" lon="16.9872682"><ele>99.0</ele><time>2026-05-04T14:35:42.588Z</time></trkpt><trkpt lat="43.329077" lon="16.9871124"><ele>99.0</ele><time>2026-05-04T14:35:43.587Z</time></trkpt><trkpt lat="43.3290414" lon="16.9869638"><ele>99.0</ele><time>2026-05-04T14:35:44.588Z</time></trkpt><trkpt lat="43.3289802" lon="16.9868286"><ele>99.0</ele><time>2026-05-04T14:35:45.587Z</time></trkpt><trkpt lat="43.3288995" lon="16.9867017"><ele>99.0</ele><time>2026-05-04T14:35:46.587Z</time></trkpt><trkpt lat="43.3288098" lon="16.9865775"><ele>95.75</ele><time>2026-05-04T14:35:47.587Z</time></trkpt><trkpt lat="43.3287155" lon="16.9864552"><ele>92.5</ele><time>2026-05-04T14:35:48.588Z</time></trkpt><trkpt lat="43.3286243" lon="16.9863382"><ele>89.25</ele><time>2026-05-04T14:35:49.587Z</time></trkpt><trkpt lat="43.3285325" lon="16.986218"><ele>86.0</ele><time>2026-05-04T14:35:50.588Z</time></trkpt><trkpt lat="43.3284325" lon="16.9860886"><ele>86.0</ele><time>2026-05-04T14:35:51.587Z</time></trkpt><trkpt lat="43.3283313" lon="16.9859565"><ele>86.0</ele><time>2026-05-04T14:35:52.588Z</time></trkpt><trkpt lat="43.3282268" lon="16.9858241"><ele>86.0</ele><time>2026-05-04T14:35:53.588Z</time></trkpt><trkpt lat="43.3281222" lon="16.9856858"><ele>86.0</ele><time>2026-05-04T14:35:54.587Z</time></trkpt><trkpt lat="43.3280136" lon="16.9855361"><ele>82.0</ele><time>2026-05-04T14:35:55.587Z</time></trkpt><trkpt lat="43.3279111" lon="16.9853807"><ele>78.0</ele><time>2026-05-04T14:35:56.588Z</time></trkpt><trkpt lat="43.3278145" lon="16.985218"><ele>74.0</ele><time>2026-05-04T14:35:57.588Z</time></trkpt><trkpt lat="43.3277261" lon="16.9850496"><ele>76.25</ele><time>2026-05-04T14:35:58.587Z</time></trkpt><trkpt lat="43.3276513" lon="16.9848713"><ele>78.5</ele><time>2026-05-04T14:35:59.588Z</time></trkpt><trkpt lat="43.3275979" lon="16.9846933"><ele>80.75</ele><time>2026-05-04T14:36:00.588Z</time></trkpt><trkpt lat="43.3275693" lon="16.9845102"><ele>83.0</ele><time>2026-05-04T14:36:01.587Z</time></trkpt><trkpt lat="43.3275582" lon="16.9843269"><ele>84.75</ele><time>2026-05-04T14:36:02.587Z</time></trkpt><trkpt lat="43.3275649" lon="16.9841394"><ele>86.5</ele><time>2026-05-04T14:36:03.587Z</time></trkpt><trkpt lat="43.327588" lon="16.9839567"><ele>88.25</ele><time>2026-05-04T14:36:04.587Z</time></trkpt><trkpt lat="43.3276301" lon="16.9837813"><ele>90.0</ele><time>2026-05-04T14:36:05.588Z</time></trkpt><trkpt lat="43.3276902" lon="16.9836223"><ele>90.0</ele><time>2026-05-04T14:36:06.587Z</time></trkpt><trkpt lat="43.3277676" lon="16.9834707"><ele>90.0</ele><time>2026-05-04T14:36:07.587Z</time></trkpt><trkpt lat="43.3278614" lon="16.9833344"><ele>90.0</ele><time>2026-05-04T14:36:08.588Z</time></trkpt><trkpt lat="43.3279696" lon="16.9832022"><ele>90.0</ele><time>2026-05-04T14:36:09.588Z</time></trkpt><trkpt lat="43.3280876" lon="16.9830884"><ele>92.0</ele><time>2026-05-04T14:36:10.588Z</time></trkpt><trkpt lat="43.3282273" lon="16.9829917"><ele>94.0</ele><time>2026-05-04T14:36:11.587Z</time></trkpt><trkpt lat="43.3283709" lon="16.9829092"><ele>96.0</ele><time>2026-05-04T14:36:12.587Z</time></trkpt><trkpt lat="43.3285245" lon="16.9828449"><ele>96.0</ele><time>2026-05-04T14:36:13.588Z</time></trkpt><trkpt lat="43.3286806" lon="16.9827926"><ele>96.0</ele><time>2026-05-04T14:36:14.588Z</time></trkpt><trkpt lat="43.3288447" lon="16.982749"><ele>96.0</ele><time>2026-05-04T14:36:15.588Z</time></trkpt><trkpt lat="43.3290073" lon="16.9827116"><ele>98.33333333333334</ele><time>2026-05-04T14:36:16.588Z</time></trkpt><trkpt lat="43.3291706" lon="16.9826775"><ele>100.66666666666667</ele><time>2026-05-04T14:36:17.587Z</time></trkpt><trkpt lat="43.3293307" lon="16.9826449"><ele>103.0</ele><time>2026-05-04T14:36:18.588Z</time></trkpt><trkpt lat="43.3294969" lon="16.9826079"><ele>103.0</ele><time>2026-05-04T14:36:19.587Z</time></trkpt><trkpt lat="43.3296621" lon="16.9825726"><ele>103.0</ele><time>2026-05-04T14:36:20.587Z</time></trkpt><trkpt lat="43.3298277" lon="16.9825374"><ele>103.0</ele><time>2026-05-04T14:36:21.588Z</time></trkpt><trkpt lat="43.3299893" lon="16.9825024"><ele>97.33333333333334</ele><time>2026-05-04T14:36:22.588Z</time></trkpt><trkpt lat="43.3301522" lon="16.9824669"><ele>91.66666666666667</ele><time>2026-05-04T14:36:23.588Z</time></trkpt><trkpt lat="43.3303085" lon="16.9824291"><ele>86.0</ele><time>2026-05-04T14:36:24.588Z</time></trkpt><trkpt lat="43.3304599" lon="16.9823795"><ele>85.66666666666667</ele><time>2026-05-04T14:36:25.587Z</time></trkpt><trkpt lat="43.3306055" lon="16.9823146"><ele>85.33333333333333</ele><time>2026-05-04T14:36:26.587Z</time></trkpt><trkpt lat="43.3307466" lon="16.9822269"><ele>85.0</ele><time>2026-05-04T14:36:27.588Z</time></trkpt><trkpt lat="43.3308776" lon="16.9821176"><ele>85.0</ele><time>2026-05-04T14:36:28.587Z</time></trkpt><trkpt lat="43.3309922" lon="16.9819925"><ele>85.0</ele><time>2026-05-04T14:36:29.587Z</time></trkpt><trkpt lat="43.3310896" lon="16.9818545"><ele>85.0</ele><time>2026-05-04T14:36:30.587Z</time></trkpt><trkpt lat="43.3311769" lon="16.9816988"><ele>85.0</ele><time>2026-05-04T14:36:31.588Z</time></trkpt><trkpt lat="43.3312461" lon="16.9815359"><ele>85.25</ele><time>2026-05-04T14:36:32.588Z</time></trkpt><trkpt lat="43.3313025" lon="16.9813661"><ele>85.5</ele><time>2026-05-04T14:36:33.587Z</time></trkpt><trkpt lat="43.3313467" lon="16.9811967"><ele>85.75</ele><time>2026-05-04T14:36:34.588Z</time></trkpt><trkpt lat="43.3313842" lon="16.9810185"><ele>86.0</ele><time>2026-05-04T14:36:35.588Z</time></trkpt><trkpt lat="43.3314175" lon="16.9808435"><ele>86.0</ele><time>2026-05-04T14:36:36.588Z</time></trkpt><trkpt lat="43.3314505" lon="16.9806677"><ele>86.0</ele><time>2026-05-04T14:36:37.588Z</time></trkpt><trkpt lat="43.3314828" lon="16.9804884"><ele>86.0</ele><time>2026-05-04T14:36:38.587Z</time></trkpt><trkpt lat="43.3315167" lon="16.980303"><ele>86.0</ele><time>2026-05-04T14:36:39.588Z</time></trkpt><trkpt lat="43.3315484" lon="16.9801195"><ele>83.0</ele><time>2026-05-04T14:36:40.587Z</time></trkpt><trkpt lat="43.3315812" lon="16.9799426"><ele>80.0</ele><time>2026-05-04T14:36:41.588Z</time></trkpt><trkpt lat="43.3316172" lon="16.9797723"><ele>77.0</ele><time>2026-05-04T14:36:42.588Z</time></trkpt><trkpt lat="43.3316619" lon="16.9795999"><ele>74.0</ele><time>2026-05-04T14:36:43.588Z</time></trkpt><trkpt lat="43.3317141" lon="16.9794374"><ele>74.0</ele><time>2026-05-04T14:36:44.587Z</time></trkpt><trkpt lat="43.3317747" lon="16.979279"><ele>74.0</ele><time>2026-05-04T14:36:45.588Z</time></trkpt><trkpt lat="43.3318415" lon="16.9791274"><ele>74.0</ele><time>2026-05-04T14:36:46.587Z</time></trkpt><trkpt lat="43.3319231" lon="16.9789754"><ele>74.0</ele><time>2026-05-04T14:36:47.588Z</time></trkpt><trkpt lat="43.3320159" lon="16.9788332"><ele>72.75</ele><time>2026-05-04T14:36:48.588Z</time></trkpt><trkpt lat="43.3321215" lon="16.9787036"><ele>71.5</ele><time>2026-05-04T14:36:49.588Z</time></trkpt><trkpt lat="43.3322355" lon="16.9785901"><ele>70.25</ele><time>2026-05-04T14:36:50.588Z</time></trkpt><trkpt lat="43.3323619" lon="16.978487"><ele>69.0</ele><time>2026-05-04T14:36:51.587Z</time></trkpt><trkpt lat="43.3324958" lon="16.9784045"><ele>67.75</ele><time>2026-05-04T14:36:52.587Z</time></trkpt><trkpt lat="43.3326367" lon="16.978341"><ele>66.5</ele><time>2026-05-04T14:36:53.587Z</time></trkpt><trkpt lat="43.332778" lon="16.978291"><ele>65.25</ele><time>2026-05-04T14:36:54.588Z</time></trkpt><trkpt lat="43.33293" lon="16.9782569"><ele>64.0</ele><time>2026-05-04T14:36:55.588Z</time></trkpt><trkpt lat="43.3330803" lon="16.9782316"><ele>64.0</ele><time>2026-05-04T14:36:56.587Z</time></trkpt><trkpt lat="43.3332272" lon="16.9782118"><ele>64.0</ele><time>2026-05-04T14:36:57.588Z</time></trkpt><trkpt lat="43.3333654" lon="16.9781965"><ele>64.0</ele><time>2026-05-04T14:36:58.588Z</time></trkpt><trkpt lat="43.3335028" lon="16.9781805"><ele>64.0</ele><time>2026-05-04T14:36:59.588Z</time></trkpt><trkpt lat="43.3336418" lon="16.9781596"><ele>64.0</ele><time>2026-05-04T14:37:00.588Z</time></trkpt><trkpt lat="43.3337773" lon="16.9781338"><ele>64.0</ele><time>2026-05-04T14:37:01.588Z</time></trkpt><trkpt lat="43.3339108" lon="16.9781045"><ele>64.0</ele><time>2026-05-04T14:37:02.588Z</time></trkpt><trkpt lat="43.3340488" lon="16.9780682"><ele>64.0</ele><time>2026-05-04T14:37:03.587Z</time></trkpt><trkpt lat="43.3341837" lon="16.9780288"><ele>66.0</ele><time>2026-05-04T14:37:04.588Z</time></trkpt><trkpt lat="43.3343158" lon="16.9779855"><ele>68.0</ele><time>2026-05-04T14:37:05.587Z</time></trkpt><trkpt lat="43.3344448" lon="16.9779377"><ele>70.0</ele><time>2026-05-04T14:37:06.588Z</time></trkpt><trkpt lat="43.3345726" lon="16.9778837"><ele>72.0</ele><time>2026-05-04T14:37:07.588Z</time></trkpt><trkpt lat="43.3346978" lon="16.9778241"><ele>74.25</ele><time>2026-05-04T14:37:08.587Z</time></trkpt><trkpt lat="43.3348169" lon="16.9777649"><ele>76.5</ele><time>2026-05-04T14:37:09.587Z</time></trkpt><trkpt lat="43.3349325" lon="16.9777087"><ele>78.75</ele><time>2026-05-04T14:37:10.587Z</time></trkpt><trkpt lat="43.3350487" lon="16.9776545"><ele>81.0</ele><time>2026-05-04T14:37:11.588Z</time></trkpt><trkpt lat="43.3351667" lon="16.9776028"><ele>81.0</ele><time>2026-05-04T14:37:12.587Z</time></trkpt><trkpt lat="43.3352837" lon="16.9775563"><ele>81.0</ele><time>2026-05-04T14:37:13.588Z</time></trkpt><trkpt lat="43.3354041" lon="16.977515"><ele>81.0</ele><time>2026-05-04T14:37:14.587Z</time></trkpt><trkpt lat="43.3355318" lon="16.9774803"><ele>81.0</ele><time>2026-05-04T14:37:15.588Z</time></trkpt><trkpt lat="43.3356579" lon="16.9774534"><ele>75.75</ele><time>2026-05-04T14:37:16.587Z</time></trkpt><trkpt lat="43.3357839" lon="16.9774327"><ele>70.5</ele><time>2026-05-04T14:37:17.587Z</time></trkpt><trkpt lat="43.3359035" lon="16.9774193"><ele>65.25</ele><time>2026-05-04T14:37:18.588Z</time></trkpt><trkpt lat="43.3360267" lon="16.9774159"><ele>60.0</ele><time>2026-05-04T14:37:19.587Z</time></trkpt><trkpt lat="43.3361455" lon="16.9774192"><ele>60.0</ele><time>2026-05-04T14:37:20.587Z</time></trkpt><trkpt lat="43.3362609" lon="16.9774235"><ele>60.0</ele><time>2026-05-04T14:37:21.587Z</time></trkpt><trkpt lat="43.3363747" lon="16.9774289"><ele>60.0</ele><time>2026-05-04T14:37:22.588Z</time></trkpt><trkpt lat="43.336494" lon="16.9774332"><ele>60.0</ele><time>2026-05-04T14:37:23.587Z</time></trkpt><trkpt lat="43.3366084" lon="16.9774271"><ele>60.25</ele><time>2026-05-04T14:37:24.587Z</time></trkpt><trkpt lat="43.3367217" lon="16.9774053"><ele>60.5</ele><time>2026-05-04T14:37:25.587Z</time></trkpt><trkpt lat="43.3368316" lon="16.9773677"><ele>60.75</ele><time>2026-05-04T14:37:26.588Z</time></trkpt><trkpt lat="43.3369401" lon="16.9773133"><ele>61.0</ele><time>2026-05-04T14:37:27.588Z</time></trkpt><trkpt lat="43.3370469" lon="16.9772429"><ele>61.0</ele><time>2026-05-04T14:37:28.587Z</time></trkpt><trkpt lat="43.337151" lon="16.977153"><ele>61.0</ele><time>2026-05-04T14:37:29.588Z</time></trkpt><trkpt lat="43.3372477" lon="16.9770469"><ele>61.0</ele><time>2026-05-04T14:37:30.588Z</time></trkpt><trkpt lat="43.3373387" lon="16.976923"><ele>61.0</ele><time>2026-05-04T14:37:31.587Z</time></trkpt><trkpt lat="43.3374239" lon="16.9767892"><ele>61.0</ele><time>2026-05-04T14:37:32.587Z</time></trkpt><trkpt lat="43.3374995" lon="16.9766518"><ele>61.0</ele><time>2026-05-04T14:37:33.588Z</time></trkpt><trkpt lat="43.3375712" lon="16.9765079"><ele>61.0</ele><time>2026-05-04T14:37:34.588Z</time></trkpt><trkpt lat="43.337643" lon="16.9763514"><ele>61.0</ele><time>2026-05-04T14:37:35.588Z</time></trkpt><trkpt lat="43.337709" lon="16.976194"><ele>61.0</ele><time>2026-05-04T14:37:36.588Z</time></trkpt><trkpt lat="43.3377764" lon="16.9760361"><ele>61.0</ele><time>2026-05-04T14:37:37.588Z</time></trkpt><trkpt lat="43.3378438" lon="16.9758823"><ele>61.0</ele><time>2026-05-04T14:37:38.588Z</time></trkpt><trkpt lat="43.337916" lon="16.9757274"><ele>61.0</ele><time>2026-05-04T14:37:39.588Z</time></trkpt><trkpt lat="43.3379926" lon="16.9755801"><ele>66.5</ele><time>2026-05-04T14:37:40.587Z</time></trkpt><trkpt lat="43.3380835" lon="16.9754449"><ele>72.0</ele><time>2026-05-04T14:37:41.588Z</time></trkpt><trkpt lat="43.3381853" lon="16.9753233"><ele>77.5</ele><time>2026-05-04T14:37:42.587Z</time></trkpt><trkpt lat="43.338295" lon="16.9751971"><ele>83.0</ele><time>2026-05-04T14:37:43.588Z</time></trkpt><trkpt lat="43.3384071" lon="16.975076"><ele>73.66666666666667</ele><time>2026-05-04T14:37:44.588Z</time></trkpt><trkpt lat="43.3385237" lon="16.9749618"><ele>64.33333333333333</ele><time>2026-05-04T14:37:45.587Z</time></trkpt><trkpt lat="43.3386491" lon="16.9748423"><ele>55.0</ele><time>2026-05-04T14:37:46.588Z</time></trkpt><trkpt lat="43.338796" lon="16.9747037"><ele>63.33333333333333</ele><time>2026-05-04T14:37:47.588Z</time></trkpt><trkpt lat="43.3389704" lon="16.9745467"><ele>71.66666666666667</ele><time>2026-05-04T14:37:48.587Z</time></trkpt><trkpt lat="43.3391585" lon="16.9743803"><ele>80.0</ele><time>2026-05-04T14:37:49.587Z</time></trkpt><trkpt lat="43.339341" lon="16.9742222"><ele>78.0</ele><time>2026-05-04T14:37:50.588Z</time></trkpt><trkpt lat="43.3395229" lon="16.9740637"><ele>76.0</ele><time>2026-05-04T14:37:51.588Z</time></trkpt><trkpt lat="43.3396943" lon="16.973918"><ele>74.0</ele><time>2026-05-04T14:37:52.588Z</time></trkpt><trkpt lat="43.3398574" lon="16.9737806"><ele>74.0</ele><time>2026-05-04T14:37:53.588Z</time></trkpt><trkpt lat="43.3400089" lon="16.9736612"><ele>74.0</ele><time>2026-05-04T14:37:54.588Z</time></trkpt><trkpt lat="43.340148" lon="16.9735593"><ele>74.0</ele><time>2026-05-04T14:37:55.588Z</time></trkpt><trkpt lat="43.3402856" lon="16.9734776"><ele>74.0</ele><time>2026-05-04T14:37:56.587Z</time></trkpt><trkpt lat="43.3404141" lon="16.9734173"><ele>74.0</ele><time>2026-05-04T14:37:57.588Z</time></trkpt><trkpt lat="43.3405376" lon="16.973382"><ele>74.0</ele><time>2026-05-04T14:37:58.587Z</time></trkpt><trkpt lat="43.3406633" lon="16.973369"><ele>74.0</ele><time>2026-05-04T14:37:59.587Z</time></trkpt><trkpt lat="43.340787" lon="16.9733844"><ele>74.25</ele><time>2026-05-04T14:38:00.588Z</time></trkpt><trkpt lat="43.3408999" lon="16.9734198"><ele>74.5</ele><time>2026-05-04T14:38:01.587Z</time></trkpt><trkpt lat="43.3410068" lon="16.9734728"><ele>74.75</ele><time>2026-05-04T14:38:02.587Z</time></trkpt><trkpt lat="43.3411127" lon="16.9735414"><ele>75.0</ele><time>2026-05-04T14:38:03.587Z</time></trkpt><trkpt lat="43.3412195" lon="16.9736203"><ele>75.0</ele><time>2026-05-04T14:38:04.588Z</time></trkpt><trkpt lat="43.3413213" lon="16.9736965"><ele>75.0</ele><time>2026-05-04T14:38:05.587Z</time></trkpt><trkpt lat="43.341417" lon="16.9737602"><ele>75.0</ele><time>2026-05-04T14:38:06.587Z</time></trkpt><trkpt lat="43.341522" lon="16.9738167"><ele>75.0</ele><time>2026-05-04T14:38:07.588Z</time></trkpt><trkpt lat="43.341633" lon="16.9738549"><ele>75.0</ele><time>2026-05-04T14:38:08.587Z</time></trkpt><trkpt lat="43.3417502" lon="16.9738692"><ele>74.0</ele><time>2026-05-04T14:38:09.587Z</time></trkpt><trkpt lat="43.3418698" lon="16.9738556"><ele>73.0</ele><time>2026-05-04T14:38:10.588Z</time></trkpt><trkpt lat="43.3419919" lon="16.9738106"><ele>72.0</ele><time>2026-05-04T14:38:11.587Z</time></trkpt><trkpt lat="43.3421058" lon="16.9737462"><ele>71.0</ele><time>2026-05-04T14:38:12.587Z</time></trkpt><trkpt lat="43.3422124" lon="16.973666"><ele>71.25</ele><time>2026-05-04T14:38:13.588Z</time></trkpt><trkpt lat="43.3423094" lon="16.9735688"><ele>71.5</ele><time>2026-05-04T14:38:14.587Z</time></trkpt><trkpt lat="43.3424045" lon="16.973453"><ele>71.75</ele><time>2026-05-04T14:38:15.588Z</time></trkpt><trkpt lat="43.34249" lon="16.9733271"><ele>72.0</ele><time>2026-05-04T14:38:16.588Z</time></trkpt><trkpt lat="43.3425732" lon="16.9731924"><ele>71.25</ele><time>2026-05-04T14:38:17.587Z</time></trkpt><trkpt lat="43.3426545" lon="16.973052"><ele>70.5</ele><time>2026-05-04T14:38:18.587Z</time></trkpt><trkpt lat="43.3427376" lon="16.9729068"><ele>69.75</ele><time>2026-05-04T14:38:19.588Z</time></trkpt><trkpt lat="43.3428194" lon="16.9727619"><ele>69.0</ele><time>2026-05-04T14:38:20.588Z</time></trkpt><trkpt lat="43.3428998" lon="16.9726271"><ele>69.25</ele><time>2026-05-04T14:38:21.588Z</time></trkpt><trkpt lat="43.3429798" lon="16.9724954"><ele>69.5</ele><time>2026-05-04T14:38:22.588Z</time></trkpt><trkpt lat="43.3430634" lon="16.9723654"><ele>69.75</ele><time>2026-05-04T14:38:23.587Z</time></trkpt><trkpt lat="43.3431522" lon="16.9722377"><ele>70.0</ele><time>2026-05-04T14:38:24.587Z</time></trkpt><trkpt lat="43.3432453" lon="16.9721192"><ele>72.25</ele><time>2026-05-04T14:38:25.588Z</time></trkpt><trkpt lat="43.3433402" lon="16.9720111"><ele>74.5</ele><time>2026-05-04T14:38:26.588Z</time></trkpt><trkpt lat="43.3434455" lon="16.9719135"><ele>76.75</ele><time>2026-05-04T14:38:27.587Z</time></trkpt><trkpt lat="43.3435516" lon="16.9718308"><ele>79.0</ele><time>2026-05-04T14:38:28.587Z</time></trkpt><trkpt lat="43.3436595" lon="16.9717569"><ele>78.25</ele><time>2026-05-04T14:38:29.587Z</time></trkpt><trkpt lat="43.3437649" lon="16.9716894"><ele>77.5</ele><time>2026-05-04T14:38:30.588Z</time></trkpt><trkpt lat="43.3438724" lon="16.9716235"><ele>76.75</ele><time>2026-05-04T14:38:31.588Z</time></trkpt><trkpt lat="43.3439862" lon="16.9715564"><ele>76.0</ele><time>2026-05-04T14:38:32.588Z</time></trkpt><trkpt lat="43.3441005" lon="16.971485"><ele>78.25</ele><time>2026-05-04T14:38:33.588Z</time></trkpt><trkpt lat="43.3442146" lon="16.9714068"><ele>80.5</ele><time>2026-05-04T14:38:34.587Z</time></trkpt><trkpt lat="43.3443348" lon="16.9713236"><ele>82.75</ele><time>2026-05-04T14:38:35.587Z</time></trkpt><trkpt lat="43.3444534" lon="16.9712328"><ele>85.0</ele><time>2026-05-04T14:38:36.588Z</time></trkpt><trkpt lat="43.3445687" lon="16.9711364"><ele>85.0</ele><time>2026-05-04T14:38:37.587Z</time></trkpt><trkpt lat="43.3446787" lon="16.9710374"><ele>85.0</ele><time>2026-05-04T14:38:38.588Z</time></trkpt><trkpt lat="43.3447861" lon="16.970932"><ele>85.0</ele><time>2026-05-04T14:38:39.588Z</time></trkpt><trkpt lat="43.3448935" lon="16.9708253"><ele>85.0</ele><time>2026-05-04T14:38:40.588Z</time></trkpt><trkpt lat="43.3449992" lon="16.9707118"><ele>85.0</ele><time>2026-05-04T14:38:41.588Z</time></trkpt><trkpt lat="43.3451033" lon="16.9705929"><ele>85.0</ele><time>2026-05-04T14:38:42.588Z</time></trkpt><trkpt lat="43.3452154" lon="16.9704616"><ele>85.0</ele><time>2026-05-04T14:38:43.587Z</time></trkpt><trkpt lat="43.3453285" lon="16.9703283"><ele>85.0</ele><time>2026-05-04T14:38:44.587Z</time></trkpt><trkpt lat="43.3454419" lon="16.9701875"><ele>86.33333333333333</ele><time>2026-05-04T14:38:45.587Z</time></trkpt><trkpt lat="43.34555" lon="16.970046"><ele>87.66666666666667</ele><time>2026-05-04T14:38:46.587Z</time></trkpt><trkpt lat="43.3456578" lon="16.9698995"><ele>89.0</ele><time>2026-05-04T14:38:47.587Z</time></trkpt><trkpt lat="43.3457632" lon="16.9697523"><ele>89.0</ele><time>2026-05-04T14:38:48.587Z</time></trkpt><trkpt lat="43.3458623" lon="16.9696113"><ele>89.0</ele><time>2026-05-04T14:38:49.587Z</time></trkpt><trkpt lat="43.345959" lon="16.9694736"><ele>89.0</ele><time>2026-05-04T14:38:50.588Z</time></trkpt><trkpt lat="43.3460582" lon="16.9693329"><ele>89.0</ele><time>2026-05-04T14:38:51.588Z</time></trkpt><trkpt lat="43.3461609" lon="16.9691836"><ele>87.66666666666667</ele><time>2026-05-04T14:38:52.588Z</time></trkpt><trkpt lat="43.3462653" lon="16.969034"><ele>86.33333333333333</ele><time>2026-05-04T14:38:53.587Z</time></trkpt><trkpt lat="43.3463716" lon="16.9688748"><ele>85.0</ele><time>2026-05-04T14:38:54.587Z</time></trkpt><trkpt lat="43.3464853" lon="16.9686968"><ele>85.0</ele><time>2026-05-04T14:38:55.587Z</time></trkpt><trkpt lat="43.3466008" lon="16.9685076"><ele>85.0</ele><time>2026-05-04T14:38:56.587Z</time></trkpt><trkpt lat="43.3467227" lon="16.9683109"><ele>85.0</ele><time>2026-05-04T14:38:57.588Z</time></trkpt><trkpt lat="43.3468451" lon="16.9681167"><ele>84.33333333333333</ele><time>2026-05-04T14:38:58.588Z</time></trkpt><trkpt lat="43.3469731" lon="16.9679205"><ele>83.66666666666667</ele><time>2026-05-04T14:38:59.588Z</time></trkpt><trkpt lat="43.3471004" lon="16.9677273"><ele>83.0</ele><time>2026-05-04T14:39:00.588Z</time></trkpt><trkpt lat="43.3472203" lon="16.9675443"><ele>82.33333333333334</ele><time>2026-05-04T14:39:01.587Z</time></trkpt><trkpt lat="43.3473334" lon="16.9673735"><ele>81.66666666666667</ele><time>2026-05-04T14:39:02.588Z</time></trkpt><trkpt lat="43.3474401" lon="16.9672123"><ele>81.0</ele><time>2026-05-04T14:39:03.588Z</time></trkpt><trkpt lat="43.3475426" lon="16.9670608"><ele>81.0</ele><time>2026-05-04T14:39:04.588Z</time></trkpt><trkpt lat="43.3476408" lon="16.9669164"><ele>81.0</ele><time>2026-05-04T14:39:05.588Z</time></trkpt><trkpt lat="43.3477367" lon="16.9667755"><ele>81.0</ele><time>2026-05-04T14:39:06.588Z</time></trkpt><trkpt lat="43.3478384" lon="16.9666278"><ele>81.0</ele><time>2026-05-04T14:39:07.587Z</time></trkpt><trkpt lat="43.3479404" lon="16.9664729"><ele>82.66666666666667</ele><time>2026-05-04T14:39:08.588Z</time></trkpt><trkpt lat="43.3480439" lon="16.966318"><ele>84.33333333333334</ele><time>2026-05-04T14:39:09.588Z</time></trkpt><trkpt lat="43.348145" lon="16.9661657"><ele>86.0</ele><time>2026-05-04T14:39:10.588Z</time></trkpt><trkpt lat="43.3482484" lon="16.9660116"><ele>83.66666666666667</ele><time>2026-05-04T14:39:11.588Z</time></trkpt><trkpt lat="43.3483515" lon="16.9658574"><ele>81.33333333333333</ele><time>2026-05-04T14:39:12.587Z</time></trkpt><trkpt lat="43.3484558" lon="16.9657036"><ele>79.0</ele><time>2026-05-04T14:39:13.588Z</time></trkpt><trkpt lat="43.3485588" lon="16.965551"><ele>79.0</ele><time>2026-05-04T14:39:14.588Z</time></trkpt><trkpt lat="43.348667" lon="16.9653879"><ele>79.0</ele><time>2026-05-04T14:39:15.588Z</time></trkpt><trkpt lat="43.3487785" lon="16.9652196"><ele>79.0</ele><time>2026-05-04T14:39:16.588Z</time></trkpt><trkpt lat="43.3488917" lon="16.9650504"><ele>79.0</ele><time>2026-05-04T14:39:17.587Z</time></trkpt><trkpt lat="43.349003" lon="16.9648812"><ele>79.0</ele><time>2026-05-04T14:39:18.587Z</time></trkpt><trkpt lat="43.3491159" lon="16.9647086"><ele>79.0</ele><time>2026-05-04T14:39:19.587Z</time></trkpt><trkpt lat="43.3492277" lon="16.9645409"><ele>79.0</ele><time>2026-05-04T14:39:20.588Z</time></trkpt><trkpt lat="43.3493354" lon="16.9643767"><ele>79.0</ele><time>2026-05-04T14:39:21.588Z</time></trkpt><trkpt lat="43.3494427" lon="16.9642163"><ele>79.0</ele><time>2026-05-04T14:39:22.588Z</time></trkpt><trkpt lat="43.3495497" lon="16.9640547"><ele>78.0</ele><time>2026-05-04T14:39:23.588Z</time></trkpt><trkpt lat="43.3496586" lon="16.9638949"><ele>77.0</ele><time>2026-05-04T14:39:24.587Z</time></trkpt><trkpt lat="43.349764" lon="16.9637399"><ele>76.0</ele><time>2026-05-04T14:39:25.588Z</time></trkpt><trkpt lat="43.3498699" lon="16.963587"><ele>76.0</ele><time>2026-05-04T14:39:26.588Z</time></trkpt><trkpt lat="43.3499766" lon="16.9634276"><ele>76.0</ele><time>2026-05-04T14:39:27.588Z</time></trkpt><trkpt lat="43.3500818" lon="16.9632651"><ele>76.0</ele><time>2026-05-04T14:39:28.587Z</time></trkpt><trkpt lat="43.3501889" lon="16.9630986"><ele>73.66666666666666</ele><time>2026-05-04T14:39:29.588Z</time></trkpt><trkpt lat="43.3502942" lon="16.9629367"><ele>71.33333333333333</ele><time>2026-05-04T14:39:30.588Z</time></trkpt><trkpt lat="43.3504021" lon="16.9627746"><ele>69.0</ele><time>2026-05-04T14:39:31.587Z</time></trkpt><trkpt lat="43.3505048" lon="16.9626188"><ele>68.33333333333333</ele><time>2026-05-04T14:39:32.588Z</time></trkpt><trkpt lat="43.3506139" lon="16.962455"><ele>67.66666666666666</ele><time>2026-05-04T14:39:33.588Z</time></trkpt><trkpt lat="43.3507275" lon="16.9622851"><ele>67.0</ele><time>2026-05-04T14:39:34.587Z</time></trkpt><trkpt lat="43.3508432" lon="16.9621122"><ele>67.0</ele><time>2026-05-04T14:39:35.588Z</time></trkpt><trkpt lat="43.3509648" lon="16.9619336"><ele>67.0</ele><time>2026-05-04T14:39:36.588Z</time></trkpt><trkpt lat="43.3510655" lon="16.9617593"><ele>67.0</ele><time>2026-05-04T14:39:37.588Z</time></trkpt><trkpt lat="43.3511725" lon="16.9616002"><ele>64.66666666666666</ele><time>2026-05-04T14:39:38.587Z</time></trkpt><trkpt lat="43.3512778" lon="16.9614343"><ele>62.33333333333333</ele><time>2026-05-04T14:39:39.588Z</time></trkpt><trkpt lat="43.3513878" lon="16.9612864"><ele>60.0</ele><time>2026-05-04T14:39:40.587Z</time></trkpt><trkpt lat="43.3514934" lon="16.9611291"><ele>59.66666666666667</ele><time>2026-05-04T14:39:41.587Z</time></trkpt><trkpt lat="43.3516019" lon="16.9609628"><ele>59.333333333333336</ele><time>2026-05-04T14:39:42.588Z</time></trkpt><trkpt lat="43.3517105" lon="16.9607948"><ele>59.0</ele><time>2026-05-04T14:39:43.588Z</time></trkpt><trkpt lat="43.3518194" lon="16.9606222"><ele>57.333333333333336</ele><time>2026-05-04T14:39:44.587Z</time></trkpt><trkpt lat="43.3519256" lon="16.9604486"><ele>55.66666666666667</ele><time>2026-05-04T14:39:45.588Z</time></trkpt><trkpt lat="43.3520316" lon="16.9602726"><ele>54.0</ele><time>2026-05-04T14:39:46.587Z</time></trkpt><trkpt lat="43.3521391" lon="16.9600956"><ele>54.66666666666667</ele><time>2026-05-04T14:39:47.587Z</time></trkpt><trkpt lat="43.3522416" lon="16.9599221"><ele>55.333333333333336</ele><time>2026-05-04T14:39:48.587Z</time></trkpt><trkpt lat="43.3523383" lon="16.9597545"><ele>56.0</ele><time>2026-05-04T14:39:49.587Z</time></trkpt><trkpt lat="43.3524316" lon="16.9595897"><ele>56.0</ele><time>2026-05-04T14:39:50.587Z</time></trkpt><trkpt lat="43.3525218" lon="16.959429"><ele>56.0</ele><time>2026-05-04T14:39:51.587Z</time></trkpt><trkpt lat="43.3526083" lon="16.9592723"><ele>56.0</ele><time>2026-05-04T14:39:52.587Z</time></trkpt><trkpt lat="43.3526908" lon="16.9591191"><ele>56.0</ele><time>2026-05-04T14:39:53.588Z</time></trkpt><trkpt lat="43.3527711" lon="16.9589682"><ele>56.75</ele><time>2026-05-04T14:39:54.587Z</time></trkpt><trkpt lat="43.3528497" lon="16.9588197"><ele>57.5</ele><time>2026-05-04T14:39:55.588Z</time></trkpt><trkpt lat="43.3529288" lon="16.9586722"><ele>58.25</ele><time>2026-05-04T14:39:56.588Z</time></trkpt><trkpt lat="43.3530089" lon="16.9585279"><ele>59.0</ele><time>2026-05-04T14:39:57.587Z</time></trkpt><trkpt lat="43.353088" lon="16.9583899"><ele>57.75</ele><time>2026-05-04T14:39:58.587Z</time></trkpt><trkpt lat="43.3531664" lon="16.9582512"><ele>56.5</ele><time>2026-05-04T14:39:59.587Z</time></trkpt><trkpt lat="43.3532478" lon="16.9581166"><ele>55.25</ele><time>2026-05-04T14:40:00.588Z</time></trkpt><trkpt lat="43.3533291" lon="16.9579912"><ele>54.0</ele><time>2026-05-04T14:40:01.588Z</time></trkpt><trkpt lat="43.3534125" lon="16.9578682"><ele>54.0</ele><time>2026-05-04T14:40:02.588Z</time></trkpt><trkpt lat="43.3535027" lon="16.9577485"><ele>54.0</ele><time>2026-05-04T14:40:03.588Z</time></trkpt><trkpt lat="43.3536004" lon="16.957628"><ele>54.0</ele><time>2026-05-04T14:40:04.588Z</time></trkpt><trkpt lat="43.3537026" lon="16.957508"><ele>54.0</ele><time>2026-05-04T14:40:05.587Z</time></trkpt><trkpt lat="43.3538081" lon="16.9573881"><ele>54.25</ele><time>2026-05-04T14:40:06.588Z</time></trkpt><trkpt lat="43.3539189" lon="16.9572727"><ele>54.5</ele><time>2026-05-04T14:40:07.588Z</time></trkpt><trkpt lat="43.3540326" lon="16.9571647"><ele>54.75</ele><time>2026-05-04T14:40:08.587Z</time></trkpt><trkpt lat="43.3541507" lon="16.9570673"><ele>55.0</ele><time>2026-05-04T14:40:09.588Z</time></trkpt><trkpt lat="43.3542722" lon="16.9569774"><ele>55.0</ele><time>2026-05-04T14:40:10.588Z</time></trkpt><trkpt lat="43.3544024" lon="16.9568921"><ele>55.0</ele><time>2026-05-04T14:40:11.588Z</time></trkpt><trkpt lat="43.3545335" lon="16.9568154"><ele>55.0</ele><time>2026-05-04T14:40:12.588Z</time></trkpt><trkpt lat="43.3546684" lon="16.9567449"><ele>55.0</ele><time>2026-05-04T14:40:13.588Z</time></trkpt><trkpt lat="43.3548038" lon="16.9566799"><ele>55.666666666666664</ele><time>2026-05-04T14:40:14.588Z</time></trkpt><trkpt lat="43.3549492" lon="16.9566164"><ele>56.33333333333333</ele><time>2026-05-04T14:40:15.588Z</time></trkpt><trkpt lat="43.3550899" lon="16.9565552"><ele>57.0</ele><time>2026-05-04T14:40:16.587Z</time></trkpt><trkpt lat="43.3552341" lon="16.9564933"><ele>57.0</ele><time>2026-05-04T14:40:17.587Z</time></trkpt><trkpt lat="43.3553744" lon="16.9564286"><ele>57.0</ele><time>2026-05-04T14:40:18.588Z</time></trkpt><trkpt lat="43.3555233" lon="16.9563603"><ele>57.0</ele><time>2026-05-04T14:40:19.587Z</time></trkpt><trkpt lat="43.3556706" lon="16.956294"><ele>57.66666666666667</ele><time>2026-05-04T14:40:20.587Z</time></trkpt><trkpt lat="43.3558187" lon="16.9562324"><ele>58.333333333333336</ele><time>2026-05-04T14:40:21.587Z</time></trkpt><trkpt lat="43.3559649" lon="16.9561732"><ele>59.0</ele><time>2026-05-04T14:40:22.588Z</time></trkpt><trkpt lat="43.3561193" lon="16.9561147"><ele>59.0</ele><time>2026-05-04T14:40:23.588Z</time></trkpt><trkpt lat="43.3562721" lon="16.9560516"><ele>59.0</ele><time>2026-05-04T14:40:24.588Z</time></trkpt><trkpt lat="43.356425" lon="16.9559834"><ele>59.0</ele><time>2026-05-04T14:40:25.587Z</time></trkpt><trkpt lat="43.3565778" lon="16.9559105"><ele>59.0</ele><time>2026-05-04T14:40:26.587Z</time></trkpt><trkpt lat="43.3567355" lon="16.9558297"><ele>59.0</ele><time>2026-05-04T14:40:27.588Z</time></trkpt><trkpt lat="43.3568896" lon="16.9557446"><ele>59.0</ele><time>2026-05-04T14:40:28.588Z</time></trkpt><trkpt lat="43.357045" lon="16.9556512"><ele>59.0</ele><time>2026-05-04T14:40:29.587Z</time></trkpt><trkpt lat="43.3571962" lon="16.9555581"><ele>59.0</ele><time>2026-05-04T14:40:30.587Z</time></trkpt><trkpt lat="43.3573534" lon="16.9554524"><ele>59.0</ele><time>2026-05-04T14:40:31.587Z</time></trkpt><trkpt lat="43.3575087" lon="16.9553281"><ele>59.333333333333336</ele><time>2026-05-04T14:40:32.587Z</time></trkpt><trkpt lat="43.3576763" lon="16.955174"><ele>59.66666666666667</ele><time>2026-05-04T14:40:33.587Z</time></trkpt><trkpt lat="43.3578557" lon="16.9550004"><ele>60.0</ele><time>2026-05-04T14:40:34.588Z</time></trkpt><trkpt lat="43.3580531" lon="16.954811"><ele>60.5</ele><time>2026-05-04T14:40:35.588Z</time></trkpt><trkpt lat="43.3582398" lon="16.954616"><ele>61.0</ele><time>2026-05-04T14:40:36.587Z</time></trkpt><trkpt lat="43.3584228" lon="16.9544219"><ele>61.0</ele><time>2026-05-04T14:40:37.588Z</time></trkpt><trkpt lat="43.3585937" lon="16.9542361"><ele>61.0</ele><time>2026-05-04T14:40:38.588Z</time></trkpt><trkpt lat="43.3587637" lon="16.9540505"><ele>61.0</ele><time>2026-05-04T14:40:39.587Z</time></trkpt><trkpt lat="43.358922" lon="16.9538794"><ele>61.666666666666664</ele><time>2026-05-04T14:40:40.588Z</time></trkpt><trkpt lat="43.3590772" lon="16.9537243"><ele>62.33333333333333</ele><time>2026-05-04T14:40:41.588Z</time></trkpt><trkpt lat="43.3592312" lon="16.9535864"><ele>63.0</ele><time>2026-05-04T14:40:42.587Z</time></trkpt><trkpt lat="43.3593873" lon="16.9534643"><ele>63.0</ele><time>2026-05-04T14:40:43.588Z</time></trkpt><trkpt lat="43.3595425" lon="16.9533658"><ele>63.0</ele><time>2026-05-04T14:40:44.588Z</time></trkpt><trkpt lat="43.3597029" lon="16.9532818"><ele>63.0</ele><time>2026-05-04T14:40:45.588Z</time></trkpt><trkpt lat="43.3598633" lon="16.953209"><ele>63.0</ele><time>2026-05-04T14:40:46.587Z</time></trkpt><trkpt lat="43.3600275" lon="16.9531452"><ele>63.0</ele><time>2026-05-04T14:40:47.588Z</time></trkpt><trkpt lat="43.3601852" lon="16.9530892"><ele>63.0</ele><time>2026-05-04T14:40:48.587Z</time></trkpt><trkpt lat="43.3603355" lon="16.953029"><ele>63.0</ele><time>2026-05-04T14:40:49.588Z</time></trkpt><trkpt lat="43.3604764" lon="16.952954"><ele>63.0</ele><time>2026-05-04T14:40:50.587Z</time></trkpt><trkpt lat="43.3606136" lon="16.9528568"><ele>63.0</ele><time>2026-05-04T14:40:51.588Z</time></trkpt><trkpt lat="43.3607386" lon="16.9527381"><ele>61.33333333333333</ele><time>2026-05-04T14:40:52.588Z</time></trkpt><trkpt lat="43.3608526" lon="16.9525976"><ele>59.666666666666664</ele><time>2026-05-04T14:40:53.587Z</time></trkpt><trkpt lat="43.3609527" lon="16.9524373"><ele>58.0</ele><time>2026-05-04T14:40:54.587Z</time></trkpt><trkpt lat="43.3610364" lon="16.9522543"><ele>58.0</ele><time>2026-05-04T14:40:55.587Z</time></trkpt><trkpt lat="43.3610991" lon="16.9520621"><ele>58.0</ele><time>2026-05-04T14:40:56.588Z</time></trkpt><trkpt lat="43.3611372" lon="16.9518571"><ele>58.0</ele><time>2026-05-04T14:40:57.587Z</time></trkpt><trkpt lat="43.3611541" lon="16.9516448"><ele>55.666666666666664</ele><time>2026-05-04T14:40:58.588Z</time></trkpt><trkpt lat="43.3611557" lon="16.9514224"><ele>53.33333333333333</ele><time>2026-05-04T14:40:59.588Z</time></trkpt><trkpt lat="43.3611506" lon="16.9512028"><ele>51.0</ele><time>2026-05-04T14:41:00.588Z</time></trkpt><trkpt lat="43.361141" lon="16.9509796"><ele>51.33333333333333</ele><time>2026-05-04T14:41:01.588Z</time></trkpt><trkpt lat="43.3611324" lon="16.9507635"><ele>51.666666666666664</ele><time>2026-05-04T14:41:02.587Z</time></trkpt><trkpt lat="43.3611312" lon="16.950538"><ele>52.0</ele><time>2026-05-04T14:41:03.587Z</time></trkpt><trkpt lat="43.3611333" lon="16.9503181"><ele>52.0</ele><time>2026-05-04T14:41:04.588Z</time></trkpt><trkpt lat="43.3611391" lon="16.9500994"><ele>52.0</ele><time>2026-05-04T14:41:05.587Z</time></trkpt><trkpt lat="43.3611489" lon="16.9498881"><ele>52.0</ele><time>2026-05-04T14:41:06.587Z</time></trkpt><trkpt lat="43.3611688" lon="16.9496637"><ele>52.33333333333333</ele><time>2026-05-04T14:41:07.587Z</time></trkpt><trkpt lat="43.3611929" lon="16.9494447"><ele>52.66666666666667</ele><time>2026-05-04T14:41:08.587Z</time></trkpt><trkpt lat="43.3612241" lon="16.9492313"><ele>53.0</ele><time>2026-05-04T14:41:09.587Z</time></trkpt><trkpt lat="43.3612635" lon="16.9490203"><ele>53.0</ele><time>2026-05-04T14:41:10.588Z</time></trkpt><trkpt lat="43.3613106" lon="16.9488026"><ele>53.0</ele><time>2026-05-04T14:41:11.588Z</time></trkpt><trkpt lat="43.3613654" lon="16.9485885"><ele>53.0</ele><time>2026-05-04T14:41:12.588Z</time></trkpt><trkpt lat="43.361427" lon="16.9483704"><ele>57.66666666666667</ele><time>2026-05-04T14:41:13.588Z</time></trkpt><trkpt lat="43.3614949" lon="16.9481401"><ele>62.33333333333333</ele><time>2026-05-04T14:41:14.587Z</time></trkpt><trkpt lat="43.3615774" lon="16.9478722"><ele>67.0</ele><time>2026-05-04T14:41:15.588Z</time></trkpt><trkpt lat="43.3616735" lon="16.9475829"><ele>63.0</ele><time>2026-05-04T14:41:16.587Z</time></trkpt><trkpt lat="43.3617839" lon="16.947281"><ele>59.0</ele><time>2026-05-04T14:41:17.588Z</time></trkpt><trkpt lat="43.3619054" lon="16.9469725"><ele>55.5</ele><time>2026-05-04T14:41:18.588Z</time></trkpt><trkpt lat="43.3620367" lon="16.9466509"><ele>52.0</ele><time>2026-05-04T14:41:19.588Z</time></trkpt><trkpt lat="43.3621646" lon="16.946325"><ele>62.5</ele><time>2026-05-04T14:41:20.587Z</time></trkpt><trkpt lat="43.362285" lon="16.9459991"><ele>73.0</ele><time>2026-05-04T14:41:21.588Z</time></trkpt><trkpt lat="43.3624029" lon="16.9456749"><ele>73.0</ele><time>2026-05-04T14:41:22.587Z</time></trkpt><trkpt lat="43.362518" lon="16.9453417"><ele>73.0</ele><time>2026-05-04T14:41:23.588Z</time></trkpt><trkpt lat="43.3626287" lon="16.9450194"><ele>67.5</ele><time>2026-05-04T14:41:24.587Z</time></trkpt><trkpt lat="43.3627346" lon="16.9446983"><ele>62.0</ele><time>2026-05-04T14:41:25.588Z</time></trkpt><trkpt lat="43.3628279" lon="16.9443955"><ele>56.0</ele><time>2026-05-04T14:41:26.588Z</time></trkpt><trkpt lat="43.3629134" lon="16.9440951"><ele>50.0</ele><time>2026-05-04T14:41:27.587Z</time></trkpt><trkpt lat="43.3629866" lon="16.9438143"><ele>62.0</ele><time>2026-05-04T14:41:28.587Z</time></trkpt><trkpt lat="43.3630495" lon="16.9435473"><ele>74.0</ele><time>2026-05-04T14:41:29.588Z</time></trkpt><trkpt lat="43.3631102" lon="16.9432901"><ele>86.0</ele><time>2026-05-04T14:41:30.587Z</time></trkpt><trkpt lat="43.3631713" lon="16.9430341"><ele>86.0</ele><time>2026-05-04T14:41:31.588Z</time></trkpt><trkpt lat="43.363235" lon="16.9427815"><ele>86.0</ele><time>2026-05-04T14:41:32.588Z</time></trkpt><trkpt lat="43.363309" lon="16.94253"><ele>86.0</ele><time>2026-05-04T14:41:33.588Z</time></trkpt><trkpt lat="43.3633952" lon="16.9422913"><ele>83.66666666666667</ele><time>2026-05-04T14:41:34.587Z</time></trkpt><trkpt lat="43.3635014" lon="16.9420612"><ele>81.33333333333333</ele><time>2026-05-04T14:41:35.587Z</time></trkpt><trkpt lat="43.3636191" lon="16.9418558"><ele>79.0</ele><time>2026-05-04T14:41:36.588Z</time></trkpt><trkpt lat="43.3637538" lon="16.9416529"><ele>81.33333333333333</ele><time>2026-05-04T14:41:37.588Z</time></trkpt><trkpt lat="43.3639022" lon="16.9414568"><ele>83.66666666666667</ele><time>2026-05-04T14:41:38.587Z</time></trkpt><trkpt lat="43.3640695" lon="16.9412466"><ele>86.0</ele><time>2026-05-04T14:41:39.588Z</time></trkpt><trkpt lat="43.3642457" lon="16.9410302"><ele>80.0</ele><time>2026-05-04T14:41:40.588Z</time></trkpt><trkpt lat="43.364428" lon="16.9407899"><ele>74.0</ele><time>2026-05-04T14:41:41.588Z</time></trkpt><trkpt lat="43.3646188" lon="16.9405464"><ele>78.5</ele><time>2026-05-04T14:41:42.588Z</time></trkpt><trkpt lat="43.3648324" lon="16.9402907"><ele>83.0</ele><time>2026-05-04T14:41:43.587Z</time></trkpt><trkpt lat="43.3650471" lon="16.9400413"><ele>83.0</ele><time>2026-05-04T14:41:44.587Z</time></trkpt><trkpt lat="43.3652554" lon="16.9397958"><ele>83.0</ele><time>2026-05-04T14:41:45.587Z</time></trkpt><trkpt lat="43.3654572" lon="16.9395503"><ele>86.5</ele><time>2026-05-04T14:41:46.588Z</time></trkpt><trkpt lat="43.365663" lon="16.9392948"><ele>90.0</ele><time>2026-05-04T14:41:47.587Z</time></trkpt><trkpt lat="43.3658609" lon="16.9390404"><ele>90.0</ele><time>2026-05-04T14:41:48.587Z</time></trkpt><trkpt lat="43.3660535" lon="16.9387867"><ele>90.0</ele><time>2026-05-04T14:41:49.588Z</time></trkpt><trkpt lat="43.3662395" lon="16.9385375"><ele>93.5</ele><time>2026-05-04T14:41:50.588Z</time></trkpt><trkpt lat="43.3664261" lon="16.938276"><ele>97.0</ele><time>2026-05-04T14:41:51.587Z</time></trkpt><trkpt lat="43.3666045" lon="16.9380177"><ele>97.0</ele><time>2026-05-04T14:41:52.588Z</time></trkpt><trkpt lat="43.3667791" lon="16.9377612"><ele>97.0</ele><time>2026-05-04T14:41:53.587Z</time></trkpt><trkpt lat="43.3669471" lon="16.9375115"><ele>103.0</ele><time>2026-05-04T14:41:54.588Z</time></trkpt><trkpt lat="43.3671195" lon="16.9372553"><ele>109.0</ele><time>2026-05-04T14:41:55.588Z</time></trkpt><trkpt lat="43.3672871" lon="16.937006"><ele>109.0</ele><time>2026-05-04T14:41:56.587Z</time></trkpt><trkpt lat="43.3674505" lon="16.9367615"><ele>109.0</ele><time>2026-05-04T14:41:57.588Z</time></trkpt><trkpt lat="43.3676072" lon="16.9365317"><ele>112.33333333333334</ele><time>2026-05-04T14:41:58.587Z</time></trkpt><trkpt lat="43.3677686" lon="16.9363162"><ele>115.66666666666666</ele><time>2026-05-04T14:41:59.587Z</time></trkpt><trkpt lat="43.3679316" lon="16.9361273"><ele>119.0</ele><time>2026-05-04T14:42:00.587Z</time></trkpt><trkpt lat="43.3681042" lon="16.935967"><ele>110.33333333333333</ele><time>2026-05-04T14:42:01.587Z</time></trkpt><trkpt lat="43.3682809" lon="16.9358366"><ele>101.66666666666666</ele><time>2026-05-04T14:42:02.587Z</time></trkpt><trkpt lat="43.3684668" lon="16.9357205"><ele>93.0</ele><time>2026-05-04T14:42:03.588Z</time></trkpt><trkpt lat="43.3686449" lon="16.9356207"><ele>93.0</ele><time>2026-05-04T14:42:04.588Z</time></trkpt><trkpt lat="43.3688215" lon="16.9355249"><ele>93.0</ele><time>2026-05-04T14:42:05.588Z</time></trkpt><trkpt lat="43.3689964" lon="16.9354288"><ele>93.0</ele><time>2026-05-04T14:42:06.588Z</time></trkpt><trkpt lat="43.3691683" lon="16.9353305"><ele>91.33333333333333</ele><time>2026-05-04T14:42:07.587Z</time></trkpt><trkpt lat="43.3693295" lon="16.9352335"><ele>89.66666666666666</ele><time>2026-05-04T14:42:08.587Z</time></trkpt><trkpt lat="43.3694806" lon="16.9351285"><ele>88.0</ele><time>2026-05-04T14:42:09.588Z</time></trkpt><trkpt lat="43.3696196" lon="16.9350088"><ele>95.66666666666666</ele><time>2026-05-04T14:42:10.588Z</time></trkpt><trkpt lat="43.36975" lon="16.9348587"><ele>103.33333333333333</ele><time>2026-05-04T14:42:11.588Z</time></trkpt><trkpt lat="43.3698675" lon="16.9346877"><ele>111.0</ele><time>2026-05-04T14:42:12.588Z</time></trkpt><trkpt lat="43.3699692" lon="16.9344945"><ele>111.0</ele><time>2026-05-04T14:42:13.588Z</time></trkpt><trkpt lat="43.3700567" lon="16.9342912"><ele>111.0</ele><time>2026-05-04T14:42:14.587Z</time></trkpt><trkpt lat="43.3701331" lon="16.9340788"><ele>111.0</ele><time>2026-05-04T14:42:15.588Z</time></trkpt><trkpt lat="43.3701943" lon="16.9338918"><ele>108.5</ele><time>2026-05-04T14:42:16.588Z</time></trkpt><trkpt lat="43.3702467" lon="16.933729"><ele>106.0</ele><time>2026-05-04T14:42:17.587Z</time></trkpt><trkpt lat="43.370294" lon="16.9335864"><ele>103.5</ele><time>2026-05-04T14:42:18.588Z</time></trkpt><trkpt lat="43.3703448" lon="16.933444"><ele>101.0</ele><time>2026-05-04T14:42:19.588Z</time></trkpt><trkpt lat="43.3703931" lon="16.9333174"><ele>99.75</ele><time>2026-05-04T14:42:20.588Z</time></trkpt><trkpt lat="43.3704464" lon="16.9331854"><ele>98.5</ele><time>2026-05-04T14:42:21.588Z</time></trkpt><trkpt lat="43.3705058" lon="16.9330504"><ele>97.25</ele><time>2026-05-04T14:42:22.588Z</time></trkpt><trkpt lat="43.3705814" lon="16.9329082"><ele>96.0</ele><time>2026-05-04T14:42:23.588Z</time></trkpt><trkpt lat="43.370669" lon="16.9327787"><ele>98.5</ele><time>2026-05-04T14:42:24.588Z</time></trkpt><trkpt lat="43.3707687" lon="16.9326612"><ele>101.0</ele><time>2026-05-04T14:42:25.588Z</time></trkpt><trkpt lat="43.3708801" lon="16.9325399"><ele>103.5</ele><time>2026-05-04T14:42:26.588Z</time></trkpt><trkpt lat="43.3710088" lon="16.9324138"><ele>106.0</ele><time>2026-05-04T14:42:27.588Z</time></trkpt><trkpt lat="43.3711496" lon="16.9322962"><ele>106.0</ele><time>2026-05-04T14:42:28.588Z</time></trkpt><trkpt lat="43.3713019" lon="16.9321753"><ele>106.0</ele><time>2026-05-04T14:42:29.588Z</time></trkpt><trkpt lat="43.3714662" lon="16.9320588"><ele>106.0</ele><time>2026-05-04T14:42:30.588Z</time></trkpt><trkpt lat="43.3716285" lon="16.9319314"><ele>104.66666666666667</ele><time>2026-05-04T14:42:31.587Z</time></trkpt><trkpt lat="43.3717862" lon="16.931804"><ele>103.33333333333334</ele><time>2026-05-04T14:42:32.588Z</time></trkpt><trkpt lat="43.3719333" lon="16.9316732"><ele>102.0</ele><time>2026-05-04T14:42:33.588Z</time></trkpt><trkpt lat="43.3720656" lon="16.9315276"><ele>107.66666666666666</ele><time>2026-05-04T14:42:34.587Z</time></trkpt><trkpt lat="43.3721901" lon="16.9313633"><ele>113.33333333333333</ele><time>2026-05-04T14:42:35.587Z</time></trkpt><trkpt lat="43.3723018" lon="16.9311852"><ele>119.0</ele><time>2026-05-04T14:42:36.588Z</time></trkpt><trkpt lat="43.372399" lon="16.9309905"><ele>116.0</ele><time>2026-05-04T14:42:37.588Z</time></trkpt><trkpt lat="43.3724786" lon="16.9307801"><ele>113.0</ele><time>2026-05-04T14:42:38.587Z</time></trkpt><trkpt lat="43.3725423" lon="16.9305447"><ele>110.0</ele><time>2026-05-04T14:42:39.588Z</time></trkpt><trkpt lat="43.3725971" lon="16.9303035"><ele>110.0</ele><time>2026-05-04T14:42:40.588Z</time></trkpt><trkpt lat="43.3726475" lon="16.9300677"><ele>110.0</ele><time>2026-05-04T14:42:41.587Z</time></trkpt><trkpt lat="43.3727027" lon="16.9298404"><ele>110.0</ele><time>2026-05-04T14:42:42.587Z</time></trkpt><trkpt lat="43.3727647" lon="16.9296083"><ele>109.0</ele><time>2026-05-04T14:42:43.587Z</time></trkpt><trkpt lat="43.3728394" lon="16.9293811"><ele>108.0</ele><time>2026-05-04T14:42:44.588Z</time></trkpt><trkpt lat="43.3729274" lon="16.9291557"><ele>107.0</ele><time>2026-05-04T14:42:45.587Z</time></trkpt><trkpt lat="43.3730216" lon="16.9289325"><ele>110.66666666666666</ele><time>2026-05-04T14:42:46.588Z</time></trkpt><trkpt lat="43.3731218" lon="16.9286965"><ele>114.33333333333334</ele><time>2026-05-04T14:42:47.587Z</time></trkpt><trkpt lat="43.3732221" lon="16.9284626"><ele>118.0</ele><time>2026-05-04T14:42:48.587Z</time></trkpt><trkpt lat="43.3733204" lon="16.9282399"><ele>118.0</ele><time>2026-05-04T14:42:49.588Z</time></trkpt><trkpt lat="43.3734183" lon="16.9280216"><ele>118.0</ele><time>2026-05-04T14:42:50.588Z</time></trkpt><trkpt lat="43.3735178" lon="16.9278007"><ele>118.0</ele><time>2026-05-04T14:42:51.588Z</time></trkpt><trkpt lat="43.3736178" lon="16.9275824"><ele>113.66666666666667</ele><time>2026-05-04T14:42:52.588Z</time></trkpt><trkpt lat="43.3737111" lon="16.9273839"><ele>109.33333333333334</ele><time>2026-05-04T14:42:53.588Z</time></trkpt><trkpt lat="43.3738089" lon="16.9271951"><ele>105.0</ele><time>2026-05-04T14:42:54.587Z</time></trkpt><trkpt lat="43.373913" lon="16.9270094"><ele>109.66666666666666</ele><time>2026-05-04T14:42:55.587Z</time></trkpt><trkpt lat="43.3740313" lon="16.9268364"><ele>114.33333333333333</ele><time>2026-05-04T14:42:56.588Z</time></trkpt><trkpt lat="43.3741752" lon="16.9266721"><ele>119.0</ele><time>2026-05-04T14:42:57.587Z</time></trkpt><trkpt lat="43.374317" lon="16.9265189"><ele>119.0</ele><time>2026-05-04T14:42:58.588Z</time></trkpt><trkpt lat="43.3744603" lon="16.9263692"><ele>119.0</ele><time>2026-05-04T14:42:59.587Z</time></trkpt><trkpt lat="43.3745964" lon="16.9262312"><ele>119.0</ele><time>2026-05-04T14:43:00.588Z</time></trkpt><trkpt lat="43.3747172" lon="16.9260977"><ele>120.0</ele><time>2026-05-04T14:43:01.588Z</time></trkpt><trkpt lat="43.3748229" lon="16.9259588"><ele>121.0</ele><time>2026-05-04T14:43:02.588Z</time></trkpt><trkpt lat="43.3749248" lon="16.9258075"><ele>122.0</ele><time>2026-05-04T14:43:03.588Z</time></trkpt><trkpt lat="43.3750148" lon="16.9256386"><ele>123.0</ele><time>2026-05-04T14:43:04.588Z</time></trkpt><trkpt lat="43.3750924" lon="16.9254483"><ele>123.0</ele><time>2026-05-04T14:43:05.587Z</time></trkpt><trkpt lat="43.3751569" lon="16.9252381"><ele>123.0</ele><time>2026-05-04T14:43:06.587Z</time></trkpt><trkpt lat="43.3752157" lon="16.9250088"><ele>123.0</ele><time>2026-05-04T14:43:07.587Z</time></trkpt><trkpt lat="43.3752711" lon="16.92478"><ele>121.66666666666666</ele><time>2026-05-04T14:43:08.588Z</time></trkpt><trkpt lat="43.3753299" lon="16.9245566"><ele>120.33333333333333</ele><time>2026-05-04T14:43:09.587Z</time></trkpt><trkpt lat="43.3753968" lon="16.9243431"><ele>119.0</ele><time>2026-05-04T14:43:10.588Z</time></trkpt><trkpt lat="43.3754799" lon="16.9241344"><ele>124.0</ele><time>2026-05-04T14:43:11.587Z</time></trkpt><trkpt lat="43.3755811" lon="16.9239524"><ele>129.0</ele><time>2026-05-04T14:43:12.588Z</time></trkpt><trkpt lat="43.3756972" lon="16.9237945"><ele>134.0</ele><time>2026-05-04T14:43:13.588Z</time></trkpt><trkpt lat="43.3758287" lon="16.9236614"><ele>134.0</ele><time>2026-05-04T14:43:14.588Z</time></trkpt><trkpt lat="43.3759849" lon="16.9235437"><ele>134.0</ele><time>2026-05-04T14:43:15.588Z</time></trkpt><trkpt lat="43.3761566" lon="16.9234514"><ele>134.0</ele><time>2026-05-04T14:43:16.588Z</time></trkpt><trkpt lat="43.3763259" lon="16.9233814"><ele>132.33333333333331</ele><time>2026-05-04T14:43:17.587Z</time></trkpt><trkpt lat="43.3764926" lon="16.9233267"><ele>130.66666666666666</ele><time>2026-05-04T14:43:18.587Z</time></trkpt><trkpt lat="43.3766635" lon="16.9232717"><ele>129.0</ele><time>2026-05-04T14:43:19.587Z</time></trkpt><trkpt lat="43.3768425" lon="16.9232143"><ele>129.0</ele><time>2026-05-04T14:43:20.587Z</time></trkpt><trkpt lat="43.3770375" lon="16.9231506"><ele>129.0</ele><time>2026-05-04T14:43:21.587Z</time></trkpt><trkpt lat="43.3772299" lon="16.9230883"><ele>129.0</ele><time>2026-05-04T14:43:22.588Z</time></trkpt><trkpt lat="43.3774384" lon="16.9230216"><ele>131.0</ele><time>2026-05-04T14:43:23.588Z</time></trkpt><trkpt lat="43.377651" lon="16.9229498"><ele>133.0</ele><time>2026-05-04T14:43:24.587Z</time></trkpt><trkpt lat="43.3778646" lon="16.9228817"><ele>135.0</ele><time>2026-05-04T14:43:25.588Z</time></trkpt><trkpt lat="43.3780783" lon="16.9228158"><ele>135.0</ele><time>2026-05-04T14:43:26.588Z</time></trkpt><trkpt lat="43.3783014" lon="16.9227486"><ele>135.0</ele><time>2026-05-04T14:43:27.588Z</time></trkpt><trkpt lat="43.3785173" lon="16.9226821"><ele>135.0</ele><time>2026-05-04T14:43:28.587Z</time></trkpt><trkpt lat="43.3787345" lon="16.9226116"><ele>135.0</ele><time>2026-05-04T14:43:29.587Z</time></trkpt><trkpt lat="43.3789485" lon="16.9225383"><ele>135.0</ele><time>2026-05-04T14:43:30.588Z</time></trkpt><trkpt lat="43.3791704" lon="16.9224558"><ele>137.0</ele><time>2026-05-04T14:43:31.587Z</time></trkpt><trkpt lat="43.3793831" lon="16.9223693"><ele>139.0</ele><time>2026-05-04T14:43:32.588Z</time></trkpt><trkpt lat="43.3795933" lon="16.9222709"><ele>141.0</ele><time>2026-05-04T14:43:33.588Z</time></trkpt><trkpt lat="43.3797996" lon="16.9221606"><ele>141.0</ele><time>2026-05-04T14:43:34.588Z</time></trkpt><trkpt lat="43.3800056" lon="16.9220306"><ele>141.0</ele><time>2026-05-04T14:43:35.588Z</time></trkpt><trkpt lat="43.3802071" lon="16.9218887"><ele>141.0</ele><time>2026-05-04T14:43:36.587Z</time></trkpt><trkpt lat="43.3804137" lon="16.9217422"><ele>141.0</ele><time>2026-05-04T14:43:37.587Z</time></trkpt><trkpt lat="43.380615" lon="16.9215904"><ele>142.0</ele><time>2026-05-04T14:43:38.588Z</time></trkpt><trkpt lat="43.3808159" lon="16.9214204"><ele>143.0</ele><time>2026-05-04T14:43:39.588Z</time></trkpt><trkpt lat="43.381009" lon="16.9212392"><ele>143.0</ele><time>2026-05-04T14:43:40.588Z</time></trkpt><trkpt lat="43.3811936" lon="16.9210482"><ele>143.0</ele><time>2026-05-04T14:43:41.588Z</time></trkpt><trkpt lat="43.3813705" lon="16.9208512"><ele>145.5</ele><time>2026-05-04T14:43:42.588Z</time></trkpt><trkpt lat="43.3815486" lon="16.9206383"><ele>148.0</ele><time>2026-05-04T14:43:43.588Z</time></trkpt><trkpt lat="43.3817182" lon="16.9204194"><ele>148.0</ele><time>2026-05-04T14:43:44.588Z</time></trkpt><trkpt lat="43.3818806" lon="16.9201909"><ele>148.0</ele><time>2026-05-04T14:43:45.588Z</time></trkpt><trkpt lat="43.3820341" lon="16.9199617"><ele>156.0</ele><time>2026-05-04T14:43:46.587Z</time></trkpt><trkpt lat="43.3821834" lon="16.9197081"><ele>164.0</ele><time>2026-05-04T14:43:47.587Z</time></trkpt><trkpt lat="43.3823269" lon="16.9194412"><ele>156.0</ele><time>2026-05-04T14:43:48.588Z</time></trkpt><trkpt lat="43.3824587" lon="16.9191733"><ele>148.0</ele><time>2026-05-04T14:43:49.587Z</time></trkpt><trkpt lat="43.3825858" lon="16.9188973"><ele>148.0</ele><time>2026-05-04T14:43:50.588Z</time></trkpt><trkpt lat="43.3827072" lon="16.9186095"><ele>148.0</ele><time>2026-05-04T14:43:51.588Z</time></trkpt><trkpt lat="43.3828185" lon="16.9183223"><ele>142.0</ele><time>2026-05-04T14:43:52.588Z</time></trkpt><trkpt lat="43.3829214" lon="16.9180333"><ele>136.0</ele><time>2026-05-04T14:43:53.588Z</time></trkpt><trkpt lat="43.3830097" lon="16.9177476"><ele>152.5</ele><time>2026-05-04T14:43:54.588Z</time></trkpt><trkpt lat="43.38309" lon="16.9174486"><ele>169.0</ele><time>2026-05-04T14:43:55.587Z</time></trkpt><trkpt lat="43.3831605" lon="16.917147"><ele>169.0</ele><time>2026-05-04T14:43:56.588Z</time></trkpt><trkpt lat="43.3832231" lon="16.9168479"><ele>169.0</ele><time>2026-05-04T14:43:57.587Z</time></trkpt><trkpt lat="43.3832826" lon="16.916544"><ele>163.0</ele><time>2026-05-04T14:43:58.588Z</time></trkpt><trkpt lat="43.3833446" lon="16.9162287"><ele>157.0</ele><time>2026-05-04T14:43:59.588Z</time></trkpt><trkpt lat="43.3834046" lon="16.9159245"><ele>155.0</ele><time>2026-05-04T14:44:00.588Z</time></trkpt><trkpt lat="43.3834602" lon="16.9156471"><ele>153.0</ele><time>2026-05-04T14:44:01.587Z</time></trkpt><trkpt lat="43.3835164" lon="16.9153787"><ele>151.0</ele><time>2026-05-04T14:44:02.587Z</time></trkpt><trkpt lat="43.3835846" lon="16.9151033"><ele>148.0</ele><time>2026-05-04T14:44:03.588Z</time></trkpt><trkpt lat="43.3836705" lon="16.9148366"><ele>145.0</ele><time>2026-05-04T14:44:04.587Z</time></trkpt><trkpt lat="43.3837741" lon="16.9145775"><ele>142.0</ele><time>2026-05-04T14:44:05.588Z</time></trkpt><trkpt lat="43.3838805" lon="16.9143292"><ele>149.0</ele><time>2026-05-04T14:44:06.588Z</time></trkpt><trkpt lat="43.3839802" lon="16.9140705"><ele>156.0</ele><time>2026-05-04T14:44:07.587Z</time></trkpt><trkpt lat="43.3840688" lon="16.9138134"><ele>163.0</ele><time>2026-05-04T14:44:08.587Z</time></trkpt><trkpt lat="43.3841399" lon="16.9135606"><ele>159.0</ele><time>2026-05-04T14:44:09.588Z</time></trkpt><trkpt lat="43.3842058" lon="16.9133168"><ele>155.0</ele><time>2026-05-04T14:44:10.587Z</time></trkpt><trkpt lat="43.3842742" lon="16.9130718"><ele>151.0</ele><time>2026-05-04T14:44:11.587Z</time></trkpt><trkpt lat="43.3843481" lon="16.9128299"><ele>151.0</ele><time>2026-05-04T14:44:12.587Z</time></trkpt><trkpt lat="43.3844262" lon="16.912604"><ele>151.0</ele><time>2026-05-04T14:44:13.587Z</time></trkpt><trkpt lat="43.384514" lon="16.9123874"><ele>151.0</ele><time>2026-05-04T14:44:14.587Z</time></trkpt><trkpt lat="43.384613" lon="16.9121669"><ele>158.0</ele><time>2026-05-04T14:44:15.587Z</time></trkpt><trkpt lat="43.384715" lon="16.9119413"><ele>165.0</ele><time>2026-05-04T14:44:16.587Z</time></trkpt><trkpt lat="43.3848181" lon="16.9117094"><ele>172.0</ele><time>2026-05-04T14:44:17.588Z</time></trkpt><trkpt lat="43.3849225" lon="16.9114742"><ele>172.0</ele><time>2026-05-04T14:44:18.587Z</time></trkpt><trkpt lat="43.38503" lon="16.9112286"><ele>172.0</ele><time>2026-05-04T14:44:19.587Z</time></trkpt><trkpt lat="43.3851384" lon="16.9109834"><ele>172.0</ele><time>2026-05-04T14:44:20.588Z</time></trkpt><trkpt lat="43.3852503" lon="16.9107388"><ele>171.0</ele><time>2026-05-04T14:44:21.588Z</time></trkpt><trkpt lat="43.3853593" lon="16.9104999"><ele>170.0</ele><time>2026-05-04T14:44:22.588Z</time></trkpt><trkpt lat="43.3854735" lon="16.910258"><ele>169.0</ele><time>2026-05-04T14:44:23.588Z</time></trkpt><trkpt lat="43.3855898" lon="16.9100296"><ele>169.0</ele><time>2026-05-04T14:44:24.588Z</time></trkpt><trkpt lat="43.3857118" lon="16.9098116"><ele>169.0</ele><time>2026-05-04T14:44:25.588Z</time></trkpt><trkpt lat="43.3858402" lon="16.909602"><ele>169.0</ele><time>2026-05-04T14:44:26.587Z</time></trkpt><trkpt lat="43.385986" lon="16.9094022"><ele>171.66666666666669</ele><time>2026-05-04T14:44:27.588Z</time></trkpt><trkpt lat="43.3861459" lon="16.9092143"><ele>174.33333333333334</ele><time>2026-05-04T14:44:28.588Z</time></trkpt><trkpt lat="43.3862992" lon="16.9090313"><ele>177.0</ele><time>2026-05-04T14:44:29.588Z</time></trkpt><trkpt lat="43.3864493" lon="16.9088509"><ele>177.0</ele><time>2026-05-04T14:44:30.588Z</time></trkpt><trkpt lat="43.3865911" lon="16.9086554"><ele>177.0</ele><time>2026-05-04T14:44:31.588Z</time></trkpt><trkpt lat="43.3867175" lon="16.9084503"><ele>177.0</ele><time>2026-05-04T14:44:32.588Z</time></trkpt><trkpt lat="43.3868322" lon="16.9082353"><ele>171.33333333333334</ele><time>2026-05-04T14:44:33.588Z</time></trkpt><trkpt lat="43.3869357" lon="16.9080124"><ele>165.66666666666669</ele><time>2026-05-04T14:44:34.587Z</time></trkpt><trkpt lat="43.3870313" lon="16.9077743"><ele>160.0</ele><time>2026-05-04T14:44:35.588Z</time></trkpt><trkpt lat="43.3871206" lon="16.9075347"><ele>166.33333333333334</ele><time>2026-05-04T14:44:36.588Z</time></trkpt><trkpt lat="43.3872106" lon="16.9072932"><ele>172.66666666666666</ele><time>2026-05-04T14:44:37.588Z</time></trkpt><trkpt lat="43.387301" lon="16.907057"><ele>179.0</ele><time>2026-05-04T14:44:38.587Z</time></trkpt><trkpt lat="43.3874069" lon="16.906816"><ele>172.66666666666666</ele><time>2026-05-04T14:44:39.587Z</time></trkpt><trkpt lat="43.3875175" lon="16.906584"><ele>166.33333333333334</ele><time>2026-05-04T14:44:40.588Z</time></trkpt><trkpt lat="43.3876263" lon="16.9063627"><ele>160.0</ele><time>2026-05-04T14:44:41.588Z</time></trkpt><trkpt lat="43.3877317" lon="16.9061583"><ele>160.0</ele><time>2026-05-04T14:44:42.587Z</time></trkpt><trkpt lat="43.38784" lon="16.9059634"><ele>160.0</ele><time>2026-05-04T14:44:43.587Z</time></trkpt><trkpt lat="43.3879523" lon="16.9057836"><ele>160.0</ele><time>2026-05-04T14:44:44.587Z</time></trkpt><trkpt lat="43.3880789" lon="16.905624"><ele>165.66666666666669</ele><time>2026-05-04T14:44:45.588Z</time></trkpt><trkpt lat="43.3882223" lon="16.9054986"><ele>171.33333333333334</ele><time>2026-05-04T14:44:46.587Z</time></trkpt><trkpt lat="43.3883843" lon="16.9053912"><ele>177.0</ele><time>2026-05-04T14:44:47.587Z</time></trkpt><trkpt lat="43.3885501" lon="16.9052867"><ele>177.0</ele><time>2026-05-04T14:44:48.587Z</time></trkpt><trkpt lat="43.3887113" lon="16.9051686"><ele>177.0</ele><time>2026-05-04T14:44:49.587Z</time></trkpt><trkpt lat="43.3888616" lon="16.9050295"><ele>177.0</ele><time>2026-05-04T14:44:50.588Z</time></trkpt><trkpt lat="43.3890055" lon="16.9048575"><ele>178.33333333333334</ele><time>2026-05-04T14:44:51.587Z</time></trkpt><trkpt lat="43.3891268" lon="16.9046642"><ele>179.66666666666669</ele><time>2026-05-04T14:44:52.588Z</time></trkpt><trkpt lat="43.3892305" lon="16.9044489"><ele>181.0</ele><time>2026-05-04T14:44:53.588Z</time></trkpt><trkpt lat="43.3893108" lon="16.9042152"><ele>173.0</ele><time>2026-05-04T14:44:54.587Z</time></trkpt><trkpt lat="43.3893685" lon="16.9039589"><ele>165.0</ele><time>2026-05-04T14:44:55.588Z</time></trkpt><trkpt lat="43.3893985" lon="16.9036963"><ele>157.0</ele><time>2026-05-04T14:44:56.588Z</time></trkpt><trkpt lat="43.3894071" lon="16.9034283"><ele>155.33333333333334</ele><time>2026-05-04T14:44:57.587Z</time></trkpt><trkpt lat="43.3894018" lon="16.9031627"><ele>153.66666666666666</ele><time>2026-05-04T14:44:58.588Z</time></trkpt><trkpt lat="43.3893915" lon="16.902891"><ele>152.0</ele><time>2026-05-04T14:44:59.587Z</time></trkpt><trkpt lat="43.3893852" lon="16.9026284"><ele>152.0</ele><time>2026-05-04T14:45:00.587Z</time></trkpt><trkpt lat="43.3893952" lon="16.9023813"><ele>152.0</ele><time>2026-05-04T14:45:01.588Z</time></trkpt><trkpt lat="43.3894236" lon="16.9021485"><ele>152.0</ele><time>2026-05-04T14:45:02.587Z</time></trkpt><trkpt lat="43.3894783" lon="16.9019226"><ele>152.0</ele><time>2026-05-04T14:45:03.587Z</time></trkpt><trkpt lat="43.3895614" lon="16.9017131"><ele>152.0</ele><time>2026-05-04T14:45:04.587Z</time></trkpt><trkpt lat="43.3896681" lon="16.9015105"><ele>152.0</ele><time>2026-05-04T14:45:05.588Z</time></trkpt><trkpt lat="43.389797" lon="16.90132"><ele>155.33333333333331</ele><time>2026-05-04T14:45:06.587Z</time></trkpt><trkpt lat="43.3899421" lon="16.9011397"><ele>158.66666666666666</ele><time>2026-05-04T14:45:07.587Z</time></trkpt><trkpt lat="43.3901014" lon="16.9009724"><ele>162.0</ele><time>2026-05-04T14:45:08.588Z</time></trkpt><trkpt lat="43.3902711" lon="16.9008082"><ele>162.0</ele><time>2026-05-04T14:45:09.587Z</time></trkpt><trkpt lat="43.3904361" lon="16.9006512"><ele>162.0</ele><time>2026-05-04T14:45:10.588Z</time></trkpt><trkpt lat="43.3906041" lon="16.9004933"><ele>162.0</ele><time>2026-05-04T14:45:11.587Z</time></trkpt><trkpt lat="43.3907669" lon="16.9003448"><ele>162.33333333333334</ele><time>2026-05-04T14:45:12.587Z</time></trkpt><trkpt lat="43.3909315" lon="16.9002052"><ele>162.66666666666669</ele><time>2026-05-04T14:45:13.588Z</time></trkpt><trkpt lat="43.3910915" lon="16.900085"><ele>163.0</ele><time>2026-05-04T14:45:14.588Z</time></trkpt><trkpt lat="43.3912642" lon="16.8999913"><ele>168.0</ele><time>2026-05-04T14:45:15.587Z</time></trkpt><trkpt lat="43.3914433" lon="16.8999226"><ele>173.0</ele><time>2026-05-04T14:45:16.588Z</time></trkpt><trkpt lat="43.3916279" lon="16.8998585"><ele>178.0</ele><time>2026-05-04T14:45:17.588Z</time></trkpt><trkpt lat="43.391812" lon="16.8997954"><ele>178.0</ele><time>2026-05-04T14:45:18.588Z</time></trkpt><trkpt lat="43.3920026" lon="16.8997338"><ele>178.0</ele><time>2026-05-04T14:45:19.588Z</time></trkpt><trkpt lat="43.3921937" lon="16.8996698"><ele>178.0</ele><time>2026-05-04T14:45:20.588Z</time></trkpt><trkpt lat="43.3923831" lon="16.8995899"><ele>174.66666666666669</ele><time>2026-05-04T14:45:21.588Z</time></trkpt><trkpt lat="43.3925642" lon="16.8994848"><ele>171.33333333333334</ele><time>2026-05-04T14:45:22.588Z</time></trkpt><trkpt lat="43.3927396" lon="16.8993497"><ele>168.0</ele><time>2026-05-04T14:45:23.588Z</time></trkpt><trkpt lat="43.3929002" lon="16.8991901"><ele>179.0</ele><time>2026-05-04T14:45:24.587Z</time></trkpt><trkpt lat="43.3930527" lon="16.8990157"><ele>190.0</ele><time>2026-05-04T14:45:25.588Z</time></trkpt><trkpt lat="43.3931985" lon="16.8988348"><ele>201.0</ele><time>2026-05-04T14:45:26.588Z</time></trkpt><trkpt lat="43.3933443" lon="16.8986453"><ele>201.0</ele><time>2026-05-04T14:45:27.587Z</time></trkpt><trkpt lat="43.3934851" lon="16.8984561"><ele>201.0</ele><time>2026-05-04T14:45:28.587Z</time></trkpt><trkpt lat="43.3936244" lon="16.8982678"><ele>201.0</ele><time>2026-05-04T14:45:29.588Z</time></trkpt><trkpt lat="43.393761" lon="16.8980806"><ele>197.33333333333334</ele><time>2026-05-04T14:45:30.588Z</time></trkpt><trkpt lat="43.393906" lon="16.8978909"><ele>193.66666666666669</ele><time>2026-05-04T14:45:31.588Z</time></trkpt><trkpt lat="43.3940431" lon="16.8977009"><ele>190.0</ele><time>2026-05-04T14:45:32.587Z</time></trkpt><trkpt lat="43.394187" lon="16.8975146"><ele>190.0</ele><time>2026-05-04T14:45:33.587Z</time></trkpt><trkpt lat="43.3943275" lon="16.8973313"><ele>190.0</ele><time>2026-05-04T14:45:34.587Z</time></trkpt><trkpt lat="43.3944731" lon="16.897147"><ele>190.0</ele><time>2026-05-04T14:45:35.588Z</time></trkpt><trkpt lat="43.3946195" lon="16.8969687"><ele>193.66666666666669</ele><time>2026-05-04T14:45:36.587Z</time></trkpt><trkpt lat="43.3947707" lon="16.8967971"><ele>197.33333333333334</ele><time>2026-05-04T14:45:37.588Z</time></trkpt><trkpt lat="43.3949126" lon="16.8966263"><ele>201.0</ele><time>2026-05-04T14:45:38.588Z</time></trkpt><trkpt lat="43.3950561" lon="16.8964476"><ele>201.0</ele><time>2026-05-04T14:45:39.588Z</time></trkpt><trkpt lat="43.3951987" lon="16.8962718"><ele>201.0</ele><time>2026-05-04T14:45:40.588Z</time></trkpt><trkpt lat="43.3953419" lon="16.8960919"><ele>201.0</ele><time>2026-05-04T14:45:41.587Z</time></trkpt><trkpt lat="43.3954762" lon="16.8959069"><ele>203.66666666666669</ele><time>2026-05-04T14:45:42.588Z</time></trkpt><trkpt lat="43.3956179" lon="16.8957063"><ele>206.33333333333334</ele><time>2026-05-04T14:45:43.587Z</time></trkpt><trkpt lat="43.3957565" lon="16.8954968"><ele>209.0</ele><time>2026-05-04T14:45:44.588Z</time></trkpt><trkpt lat="43.3958921" lon="16.8952853"><ele>215.33333333333334</ele><time>2026-05-04T14:45:45.588Z</time></trkpt><trkpt lat="43.3960249" lon="16.895078"><ele>221.66666666666669</ele><time>2026-05-04T14:45:46.587Z</time></trkpt><trkpt lat="43.3961707" lon="16.8948707"><ele>228.0</ele><time>2026-05-04T14:45:47.587Z</time></trkpt><trkpt lat="43.3963373" lon="16.8946797"><ele>228.0</ele><time>2026-05-04T14:45:48.587Z</time></trkpt><trkpt lat="43.3965111" lon="16.8945157"><ele>228.0</ele><time>2026-05-04T14:45:49.588Z</time></trkpt><trkpt lat="43.3966876" lon="16.8943656"><ele>228.0</ele><time>2026-05-04T14:45:50.588Z</time></trkpt><trkpt lat="43.3968638" lon="16.8941963"><ele>230.66666666666669</ele><time>2026-05-04T14:45:51.588Z</time></trkpt><trkpt lat="43.3970159" lon="16.8940112"><ele>233.33333333333334</ele><time>2026-05-04T14:45:52.587Z</time></trkpt><trkpt lat="43.3971544" lon="16.8938192"><ele>236.0</ele><time>2026-05-04T14:45:53.587Z</time></trkpt><trkpt lat="43.3972992" lon="16.8936386"><ele>236.0</ele><time>2026-05-04T14:45:54.587Z</time></trkpt><trkpt lat="43.3974375" lon="16.8934847"><ele>236.0</ele><time>2026-05-04T14:45:55.587Z</time></trkpt><trkpt lat="43.3975911" lon="16.8933836"><ele>236.0</ele><time>2026-05-04T14:45:56.587Z</time></trkpt><trkpt lat="43.3977387" lon="16.8933368"><ele>240.0</ele><time>2026-05-04T14:45:57.588Z</time></trkpt><trkpt lat="43.3978925" lon="16.8933345"><ele>244.0</ele><time>2026-05-04T14:45:58.588Z</time></trkpt><trkpt lat="43.3980606" lon="16.8933751"><ele>248.0</ele><time>2026-05-04T14:45:59.587Z</time></trkpt><trkpt lat="43.3982324" lon="16.8934486"><ele>248.0</ele><time>2026-05-04T14:46:00.587Z</time></trkpt><trkpt lat="43.3984066" lon="16.8935186"><ele>248.0</ele><time>2026-05-04T14:46:01.588Z</time></trkpt><trkpt lat="43.3985787" lon="16.8935866"><ele>248.0</ele><time>2026-05-04T14:46:02.588Z</time></trkpt><trkpt lat="43.3987682" lon="16.8936437"><ele>244.33333333333334</ele><time>2026-05-04T14:46:03.588Z</time></trkpt><trkpt lat="43.3989639" lon="16.8936737"><ele>240.66666666666669</ele><time>2026-05-04T14:46:04.587Z</time></trkpt><trkpt lat="43.3991611" lon="16.8936785"><ele>237.0</ele><time>2026-05-04T14:46:05.587Z</time></trkpt><trkpt lat="43.3993601" lon="16.8936566"><ele>237.0</ele><time>2026-05-04T14:46:06.587Z</time></trkpt><trkpt lat="43.3995657" lon="16.8936121"><ele>237.0</ele><time>2026-05-04T14:46:07.587Z</time></trkpt><trkpt lat="43.3997668" lon="16.8935522"><ele>237.0</ele><time>2026-05-04T14:46:08.587Z</time></trkpt><trkpt lat="43.3999675" lon="16.8934869"><ele>233.0</ele><time>2026-05-04T14:46:09.588Z</time></trkpt><trkpt lat="43.4001625" lon="16.8934195"><ele>229.0</ele><time>2026-05-04T14:46:10.588Z</time></trkpt><trkpt lat="43.40036" lon="16.8933505"><ele>225.0</ele><time>2026-05-04T14:46:11.588Z</time></trkpt><trkpt lat="43.4005514" lon="16.8932769"><ele>225.0</ele><time>2026-05-04T14:46:12.588Z</time></trkpt><trkpt lat="43.4007362" lon="16.8932001"><ele>225.0</ele><time>2026-05-04T14:46:13.588Z</time></trkpt><trkpt lat="43.4009122" lon="16.8931144"><ele>225.0</ele><time>2026-05-04T14:46:14.588Z</time></trkpt><trkpt lat="43.4010842" lon="16.8930158"><ele>225.0</ele><time>2026-05-04T14:46:15.588Z</time></trkpt><trkpt lat="43.4012463" lon="16.8929054"><ele>225.0</ele><time>2026-05-04T14:46:16.588Z</time></trkpt><trkpt lat="43.4013876" lon="16.8927878"><ele>225.0</ele><time>2026-05-04T14:46:17.588Z</time></trkpt><trkpt lat="43.4015149" lon="16.8926625"><ele>226.33333333333331</ele><time>2026-05-04T14:46:18.587Z</time></trkpt><trkpt lat="43.4016447" lon="16.8925305"><ele>227.66666666666666</ele><time>2026-05-04T14:46:19.588Z</time></trkpt><trkpt lat="43.401779" lon="16.892391"><ele>229.0</ele><time>2026-05-04T14:46:20.587Z</time></trkpt><trkpt lat="43.4019267" lon="16.8922456"><ele>229.0</ele><time>2026-05-04T14:46:21.588Z</time></trkpt><trkpt lat="43.4020745" lon="16.8920978"><ele>229.0</ele><time>2026-05-04T14:46:22.588Z</time></trkpt><trkpt lat="43.4022196" lon="16.8919383"><ele>229.0</ele><time>2026-05-04T14:46:23.587Z</time></trkpt><trkpt lat="43.4023497" lon="16.8917689"><ele>230.0</ele><time>2026-05-04T14:46:24.588Z</time></trkpt><trkpt lat="43.4024662" lon="16.891585"><ele>231.0</ele><time>2026-05-04T14:46:25.588Z</time></trkpt><trkpt lat="43.4025652" lon="16.89139"><ele>232.0</ele><time>2026-05-04T14:46:26.588Z</time></trkpt><trkpt lat="43.4026574" lon="16.8911755"><ele>232.0</ele><time>2026-05-04T14:46:27.587Z</time></trkpt><trkpt lat="43.4027389" lon="16.8909557"><ele>232.0</ele><time>2026-05-04T14:46:28.588Z</time></trkpt><trkpt lat="43.4028218" lon="16.8907347"><ele>232.0</ele><time>2026-05-04T14:46:29.588Z</time></trkpt><trkpt lat="43.4028973" lon="16.8905022"><ele>236.33333333333331</ele><time>2026-05-04T14:46:30.588Z</time></trkpt><trkpt lat="43.402985" lon="16.8902611"><ele>240.66666666666669</ele><time>2026-05-04T14:46:31.587Z</time></trkpt><trkpt lat="43.403081" lon="16.8900176"><ele>245.0</ele><time>2026-05-04T14:46:32.587Z</time></trkpt><trkpt lat="43.4031922" lon="16.8897761"><ele>245.0</ele><time>2026-05-04T14:46:33.588Z</time></trkpt><trkpt lat="43.4033106" lon="16.8895411"><ele>245.0</ele><time>2026-05-04T14:46:34.588Z</time></trkpt><trkpt lat="43.4034351" lon="16.8892907"><ele>245.0</ele><time>2026-05-04T14:46:35.587Z</time></trkpt><trkpt lat="43.4035561" lon="16.8890418"><ele>240.66666666666669</ele><time>2026-05-04T14:46:36.588Z</time></trkpt><trkpt lat="43.4036694" lon="16.8887956"><ele>236.33333333333331</ele><time>2026-05-04T14:46:37.587Z</time></trkpt><trkpt lat="43.4037768" lon="16.8885413"><ele>232.0</ele><time>2026-05-04T14:46:38.587Z</time></trkpt><trkpt lat="43.40387" lon="16.8882647"><ele>232.0</ele><time>2026-05-04T14:46:39.588Z</time></trkpt><trkpt lat="43.4039452" lon="16.8879767"><ele>232.0</ele><time>2026-05-04T14:46:40.587Z</time></trkpt><trkpt lat="43.404009" lon="16.8876782"><ele>232.0</ele><time>2026-05-04T14:46:41.587Z</time></trkpt><trkpt lat="43.4040639" lon="16.8873803"><ele>232.5</ele><time>2026-05-04T14:46:42.588Z</time></trkpt><trkpt lat="43.404117" lon="16.8870743"><ele>233.0</ele><time>2026-05-04T14:46:43.588Z</time></trkpt><trkpt lat="43.4041665" lon="16.8867771"><ele>224.33333333333334</ele><time>2026-05-04T14:46:44.587Z</time></trkpt><trkpt lat="43.4042136" lon="16.8864897"><ele>215.66666666666669</ele><time>2026-05-04T14:46:45.587Z</time></trkpt><trkpt lat="43.4042633" lon="16.8862138"><ele>207.0</ele><time>2026-05-04T14:46:46.588Z</time></trkpt><trkpt lat="43.4043061" lon="16.885929"><ele>200.33333333333334</ele><time>2026-05-04T14:46:47.587Z</time></trkpt><trkpt lat="43.404343" lon="16.8856443"><ele>193.66666666666669</ele><time>2026-05-04T14:46:48.588Z</time></trkpt><trkpt lat="43.4043538" lon="16.8853562"><ele>187.0</ele><time>2026-05-04T14:46:49.588Z</time></trkpt><trkpt lat="43.404341" lon="16.885071"><ele>187.0</ele><time>2026-05-04T14:46:50.587Z</time></trkpt><trkpt lat="43.4042956" lon="16.8847802"><ele>187.0</ele><time>2026-05-04T14:46:51.587Z</time></trkpt><trkpt lat="43.4042304" lon="16.8844995"><ele>187.0</ele><time>2026-05-04T14:46:52.587Z</time></trkpt><trkpt lat="43.4041563" lon="16.8842224"><ele>187.0</ele><time>2026-05-04T14:46:53.587Z</time></trkpt><trkpt lat="43.4040806" lon="16.8839532"><ele>187.0</ele><time>2026-05-04T14:46:54.588Z</time></trkpt><trkpt lat="43.4039994" lon="16.8836704"><ele>187.0</ele><time>2026-05-04T14:46:55.587Z</time></trkpt><trkpt lat="43.4039255" lon="16.8833854"><ele>187.0</ele><time>2026-05-04T14:46:56.587Z</time></trkpt><trkpt lat="43.4038566" lon="16.8830984"><ele>187.0</ele><time>2026-05-04T14:46:57.587Z</time></trkpt><trkpt lat="43.4037918" lon="16.8827999"><ele>187.0</ele><time>2026-05-04T14:46:58.588Z</time></trkpt><trkpt lat="43.4037242" lon="16.8825"><ele>176.33333333333334</ele><time>2026-05-04T14:46:59.588Z</time></trkpt><trkpt lat="43.403665" lon="16.8822056"><ele>165.66666666666666</ele><time>2026-05-04T14:47:00.587Z</time></trkpt><trkpt lat="43.4036133" lon="16.8819049"><ele>155.0</ele><time>2026-05-04T14:47:01.587Z</time></trkpt><trkpt lat="43.4035629" lon="16.8816118"><ele>155.0</ele><time>2026-05-04T14:47:02.587Z</time></trkpt><trkpt lat="43.4035117" lon="16.8813172"><ele>155.0</ele><time>2026-05-04T14:47:03.588Z</time></trkpt><trkpt lat="43.4034636" lon="16.8810384"><ele>155.0</ele><time>2026-05-04T14:47:04.588Z</time></trkpt><trkpt lat="43.4034138" lon="16.8807657"><ele>154.66666666666666</ele><time>2026-05-04T14:47:05.587Z</time></trkpt><trkpt lat="43.4033537" lon="16.8805053"><ele>154.33333333333334</ele><time>2026-05-04T14:47:06.587Z</time></trkpt><trkpt lat="43.4032748" lon="16.8802506"><ele>154.0</ele><time>2026-05-04T14:47:07.587Z</time></trkpt><trkpt lat="43.4031742" lon="16.8800121"><ele>154.0</ele><time>2026-05-04T14:47:08.587Z</time></trkpt><trkpt lat="43.4030465" lon="16.8797919"><ele>154.0</ele><time>2026-05-04T14:47:09.588Z</time></trkpt><trkpt lat="43.4029056" lon="16.8795861"><ele>154.0</ele><time>2026-05-04T14:47:10.588Z</time></trkpt><trkpt lat="43.4027483" lon="16.8793837"><ele>154.0</ele><time>2026-05-04T14:47:11.588Z</time></trkpt><trkpt lat="43.402588" lon="16.8791853"><ele>154.0</ele><time>2026-05-04T14:47:12.588Z</time></trkpt><trkpt lat="43.4024319" lon="16.8789884"><ele>154.0</ele><time>2026-05-04T14:47:13.587Z</time></trkpt><trkpt lat="43.4022804" lon="16.8787977"><ele>154.0</ele><time>2026-05-04T14:47:14.588Z</time></trkpt><trkpt lat="43.4021286" lon="16.8786081"><ele>154.0</ele><time>2026-05-04T14:47:15.588Z</time></trkpt><trkpt lat="43.4019783" lon="16.8784476"><ele>154.0</ele><time>2026-05-04T14:47:16.587Z</time></trkpt><trkpt lat="43.4018246" lon="16.878323"><ele>154.0</ele><time>2026-05-04T14:47:17.588Z</time></trkpt><trkpt lat="43.4016746" lon="16.8782384"><ele>154.0</ele><time>2026-05-04T14:47:18.588Z</time></trkpt><trkpt lat="43.4015124" lon="16.8781787"><ele>154.0</ele><time>2026-05-04T14:47:19.587Z</time></trkpt><trkpt lat="43.4013541" lon="16.878134"><ele>154.0</ele><time>2026-05-04T14:47:20.588Z</time></trkpt><trkpt lat="43.4012011" lon="16.8780942"><ele>154.0</ele><time>2026-05-04T14:47:21.587Z</time></trkpt><trkpt lat="43.4010567" lon="16.878045"><ele>154.0</ele><time>2026-05-04T14:47:22.588Z</time></trkpt><trkpt lat="43.4009156" lon="16.8779743"><ele>154.0</ele><time>2026-05-04T14:47:23.587Z</time></trkpt><trkpt lat="43.4007936" lon="16.8778841"><ele>154.0</ele><time>2026-05-04T14:47:24.588Z</time></trkpt><trkpt lat="43.400689" lon="16.8777671"><ele>154.0</ele><time>2026-05-04T14:47:25.588Z</time></trkpt><trkpt lat="43.4005985" lon="16.8776235"><ele>154.0</ele><time>2026-05-04T14:47:26.588Z</time></trkpt><trkpt lat="43.4005176" lon="16.8774477"><ele>154.0</ele><time>2026-05-04T14:47:27.587Z</time></trkpt><trkpt lat="43.4004527" lon="16.8772359"><ele>154.0</ele><time>2026-05-04T14:47:28.587Z</time></trkpt><trkpt lat="43.4004027" lon="16.8769897"><ele>154.0</ele><time>2026-05-04T14:47:29.588Z</time></trkpt><trkpt lat="43.4003623" lon="16.8767468"><ele>154.0</ele><time>2026-05-04T14:47:30.587Z</time></trkpt><trkpt lat="43.4003083" lon="16.8764796"><ele>154.0</ele><time>2026-05-04T14:47:31.588Z</time></trkpt><trkpt lat="43.400234" lon="16.8762071"><ele>154.0</ele><time>2026-05-04T14:47:32.587Z</time></trkpt><trkpt lat="43.4001787" lon="16.8759512"><ele>154.0</ele><time>2026-05-04T14:47:33.587Z</time></trkpt><trkpt lat="43.4001281" lon="16.8757007"><ele>154.0</ele><time>2026-05-04T14:47:34.587Z</time></trkpt><trkpt lat="43.4000756" lon="16.8754484"><ele>154.0</ele><time>2026-05-04T14:47:35.587Z</time></trkpt><trkpt lat="43.400035" lon="16.8751997"><ele>154.0</ele><time>2026-05-04T14:47:36.587Z</time></trkpt><trkpt lat="43.3999988" lon="16.8749512"><ele>154.0</ele><time>2026-05-04T14:47:37.588Z</time></trkpt><trkpt lat="43.3999717" lon="16.8746872"><ele>154.0</ele><time>2026-05-04T14:47:38.588Z</time></trkpt><trkpt lat="43.3999466" lon="16.8744296"><ele>154.0</ele><time>2026-05-04T14:47:39.588Z</time></trkpt><trkpt lat="43.399942" lon="16.874172"><ele>154.0</ele><time>2026-05-04T14:47:40.588Z</time></trkpt><trkpt lat="43.3999439" lon="16.8739215"><ele>154.0</ele><time>2026-05-04T14:47:41.587Z</time></trkpt><trkpt lat="43.3999534" lon="16.8736853"><ele>157.0</ele><time>2026-05-04T14:47:42.588Z</time></trkpt><trkpt lat="43.3999654" lon="16.8734358"><ele>160.0</ele><time>2026-05-04T14:47:43.588Z</time></trkpt><trkpt lat="43.3999863" lon="16.8731844"><ele>163.0</ele><time>2026-05-04T14:47:44.588Z</time></trkpt><trkpt lat="43.4000162" lon="16.8729348"><ele>163.0</ele><time>2026-05-04T14:47:45.587Z</time></trkpt><trkpt lat="43.4000571" lon="16.8726876"><ele>163.0</ele><time>2026-05-04T14:47:46.588Z</time></trkpt><trkpt lat="43.4001059" lon="16.8724394"><ele>163.0</ele><time>2026-05-04T14:47:47.588Z</time></trkpt><trkpt lat="43.4001635" lon="16.8721868"><ele>161.33333333333334</ele><time>2026-05-04T14:47:48.587Z</time></trkpt><trkpt lat="43.4002314" lon="16.8719392"><ele>159.66666666666666</ele><time>2026-05-04T14:47:49.587Z</time></trkpt><trkpt lat="43.4003084" lon="16.8716855"><ele>158.0</ele><time>2026-05-04T14:47:50.587Z</time></trkpt><trkpt lat="43.4003909" lon="16.8714394"><ele>154.0</ele><time>2026-05-04T14:47:51.587Z</time></trkpt><trkpt lat="43.4004735" lon="16.8711812"><ele>150.0</ele><time>2026-05-04T14:47:52.587Z</time></trkpt><trkpt lat="43.4005506" lon="16.8709318"><ele>146.0</ele><time>2026-05-04T14:47:53.587Z</time></trkpt><trkpt lat="43.4006288" lon="16.8706786"><ele>153.33333333333331</ele><time>2026-05-04T14:47:54.587Z</time></trkpt><trkpt lat="43.4006693" lon="16.8704065"><ele>160.66666666666666</ele><time>2026-05-04T14:47:55.588Z</time></trkpt><trkpt lat="43.4006873" lon="16.8701204"><ele>168.0</ele><time>2026-05-04T14:47:56.587Z</time></trkpt><trkpt lat="43.4006812" lon="16.8698331"><ele>168.0</ele><time>2026-05-04T14:47:57.587Z</time></trkpt><trkpt lat="43.4006572" lon="16.8695372"><ele>168.0</ele><time>2026-05-04T14:47:58.588Z</time></trkpt><trkpt lat="43.4006261" lon="16.8692323"><ele>168.0</ele><time>2026-05-04T14:47:59.588Z</time></trkpt><trkpt lat="43.4005934" lon="16.868933"><ele>167.33333333333334</ele><time>2026-05-04T14:48:00.588Z</time></trkpt><trkpt lat="43.4005624" lon="16.8686522"><ele>166.66666666666669</ele><time>2026-05-04T14:48:01.588Z</time></trkpt><trkpt lat="43.4005379" lon="16.8683721"><ele>166.0</ele><time>2026-05-04T14:48:02.588Z</time></trkpt><trkpt lat="43.4005116" lon="16.868095"><ele>152.66666666666669</ele><time>2026-05-04T14:48:03.588Z</time></trkpt><trkpt lat="43.4004862" lon="16.8678128"><ele>139.33333333333334</ele><time>2026-05-04T14:48:04.587Z</time></trkpt><trkpt lat="43.4004725" lon="16.8675421"><ele>126.0</ele><time>2026-05-04T14:48:05.588Z</time></trkpt><trkpt lat="43.4004752" lon="16.8672651"><ele>123.66666666666666</ele><time>2026-05-04T14:48:06.587Z</time></trkpt><trkpt lat="43.4004909" lon="16.8669921"><ele>121.33333333333333</ele><time>2026-05-04T14:48:07.588Z</time></trkpt><trkpt lat="43.4005321" lon="16.8667219"><ele>119.0</ele><time>2026-05-04T14:48:08.588Z</time></trkpt><trkpt lat="43.4006056" lon="16.8664727"><ele>125.66666666666666</ele><time>2026-05-04T14:48:09.588Z</time></trkpt><trkpt lat="43.400697" lon="16.8662348"><ele>132.33333333333334</ele><time>2026-05-04T14:48:10.588Z</time></trkpt><trkpt lat="43.4008093" lon="16.8659932"><ele>139.0</ele><time>2026-05-04T14:48:11.587Z</time></trkpt><trkpt lat="43.4009311" lon="16.8657563"><ele>139.0</ele><time>2026-05-04T14:48:12.588Z</time></trkpt><trkpt lat="43.4010461" lon="16.8655186"><ele>139.0</ele><time>2026-05-04T14:48:13.588Z</time></trkpt><trkpt lat="43.4011767" lon="16.8652899"><ele>139.0</ele><time>2026-05-04T14:48:14.587Z</time></trkpt><trkpt lat="43.4013086" lon="16.865052"><ele>149.0</ele><time>2026-05-04T14:48:15.587Z</time></trkpt><trkpt lat="43.4014335" lon="16.8648192"><ele>159.0</ele><time>2026-05-04T14:48:16.587Z</time></trkpt><trkpt lat="43.4015477" lon="16.8645925"><ele>169.0</ele><time>2026-05-04T14:48:17.587Z</time></trkpt><trkpt lat="43.4016423" lon="16.8643629"><ele>163.0</ele><time>2026-05-04T14:48:18.588Z</time></trkpt><trkpt lat="43.4017128" lon="16.8641139"><ele>157.0</ele><time>2026-05-04T14:48:19.587Z</time></trkpt><trkpt lat="43.4017539" lon="16.8638508"><ele>151.0</ele><time>2026-05-04T14:48:20.587Z</time></trkpt><trkpt lat="43.4017741" lon="16.8635789"><ele>146.0</ele><time>2026-05-04T14:48:21.587Z</time></trkpt><trkpt lat="43.4017815" lon="16.8633106"><ele>141.0</ele><time>2026-05-04T14:48:22.588Z</time></trkpt><trkpt lat="43.4017822" lon="16.8630435"><ele>136.0</ele><time>2026-05-04T14:48:23.588Z</time></trkpt><trkpt lat="43.4017916" lon="16.862787"><ele>134.33333333333334</ele><time>2026-05-04T14:48:24.587Z</time></trkpt><trkpt lat="43.4018154" lon="16.8625254"><ele>132.66666666666666</ele><time>2026-05-04T14:48:25.587Z</time></trkpt><trkpt lat="43.4018598" lon="16.8622647"><ele>131.0</ele><time>2026-05-04T14:48:26.588Z</time></trkpt><trkpt lat="43.401936" lon="16.8619944"><ele>126.66666666666666</ele><time>2026-05-04T14:48:27.588Z</time></trkpt><trkpt lat="43.402005" lon="16.8617328"><ele>122.33333333333334</ele><time>2026-05-04T14:48:28.588Z</time></trkpt><trkpt lat="43.4020793" lon="16.8614668"><ele>118.0</ele><time>2026-05-04T14:48:29.588Z</time></trkpt><trkpt lat="43.4021571" lon="16.8611978"><ele>128.33333333333334</ele><time>2026-05-04T14:48:30.588Z</time></trkpt><trkpt lat="43.4022389" lon="16.8609091"><ele>138.66666666666666</ele><time>2026-05-04T14:48:31.588Z</time></trkpt><trkpt lat="43.4023093" lon="16.8606221"><ele>149.0</ele><time>2026-05-04T14:48:32.587Z</time></trkpt><trkpt lat="43.4023548" lon="16.8603414"><ele>146.66666666666666</ele><time>2026-05-04T14:48:33.587Z</time></trkpt><trkpt lat="43.4023735" lon="16.8600518"><ele>144.33333333333334</ele><time>2026-05-04T14:48:34.587Z</time></trkpt><trkpt lat="43.4023646" lon="16.8597542"><ele>142.0</ele><time>2026-05-04T14:48:35.588Z</time></trkpt><trkpt lat="43.4023376" lon="16.8594504"><ele>141.33333333333334</ele><time>2026-05-04T14:48:36.587Z</time></trkpt><trkpt lat="43.4023003" lon="16.8591584"><ele>140.66666666666666</ele><time>2026-05-04T14:48:37.587Z</time></trkpt><trkpt lat="43.4022741" lon="16.8588729"><ele>140.0</ele><time>2026-05-04T14:48:38.588Z</time></trkpt><trkpt lat="43.4022639" lon="16.858591"><ele>139.66666666666666</ele><time>2026-05-04T14:48:39.587Z</time></trkpt><trkpt lat="43.4022707" lon="16.8582973"><ele>139.33333333333334</ele><time>2026-05-04T14:48:40.588Z</time></trkpt><trkpt lat="43.4022906" lon="16.8580085"><ele>139.0</ele><time>2026-05-04T14:48:41.587Z</time></trkpt><trkpt lat="43.4023162" lon="16.8577084"><ele>139.66666666666669</ele><time>2026-05-04T14:48:42.587Z</time></trkpt><trkpt lat="43.4023379" lon="16.8574038"><ele>140.33333333333334</ele><time>2026-05-04T14:48:43.587Z</time></trkpt><trkpt lat="43.4023517" lon="16.8570924"><ele>141.0</ele><time>2026-05-04T14:48:44.588Z</time></trkpt><trkpt lat="43.4023529" lon="16.8567993"><ele>140.33333333333334</ele><time>2026-05-04T14:48:45.587Z</time></trkpt><trkpt lat="43.4023534" lon="16.8565076"><ele>139.66666666666669</ele><time>2026-05-04T14:48:46.588Z</time></trkpt><trkpt lat="43.4023493" lon="16.8562265"><ele>139.0</ele><time>2026-05-04T14:48:47.587Z</time></trkpt><trkpt lat="43.4023454" lon="16.8559452"><ele>137.66666666666669</ele><time>2026-05-04T14:48:48.587Z</time></trkpt><trkpt lat="43.4023391" lon="16.8556775"><ele>136.33333333333334</ele><time>2026-05-04T14:48:49.588Z</time></trkpt><trkpt lat="43.4023363" lon="16.8554055"><ele>135.0</ele><time>2026-05-04T14:48:50.588Z</time></trkpt><trkpt lat="43.402333" lon="16.8551444"><ele>132.66666666666666</ele><time>2026-05-04T14:48:51.588Z</time></trkpt><trkpt lat="43.4023419" lon="16.8548701"><ele>130.33333333333331</ele><time>2026-05-04T14:48:52.587Z</time></trkpt><trkpt lat="43.4023582" lon="16.8546044"><ele>128.0</ele><time>2026-05-04T14:48:53.588Z</time></trkpt><trkpt lat="43.4023872" lon="16.8543433"><ele>124.66666666666666</ele><time>2026-05-04T14:48:54.587Z</time></trkpt><trkpt lat="43.4024265" lon="16.8540867"><ele>121.33333333333334</ele><time>2026-05-04T14:48:55.588Z</time></trkpt><trkpt lat="43.402473" lon="16.8538303"><ele>118.0</ele><time>2026-05-04T14:48:56.587Z</time></trkpt><trkpt lat="43.4025236" lon="16.8535784"><ele>115.33333333333334</ele><time>2026-05-04T14:48:57.587Z</time></trkpt><trkpt lat="43.4025781" lon="16.8533229"><ele>112.66666666666666</ele><time>2026-05-04T14:48:58.588Z</time></trkpt><trkpt lat="43.4026373" lon="16.8530603"><ele>110.0</ele><time>2026-05-04T14:48:59.587Z</time></trkpt><trkpt lat="43.4026974" lon="16.8527947"><ele>108.66666666666666</ele><time>2026-05-04T14:49:00.588Z</time></trkpt><trkpt lat="43.4027652" lon="16.8525323"><ele>107.33333333333334</ele><time>2026-05-04T14:49:01.587Z</time></trkpt><trkpt lat="43.4028398" lon="16.8522616"><ele>106.0</ele><time>2026-05-04T14:49:02.588Z</time></trkpt><trkpt lat="43.402923" lon="16.851986"><ele>116.0</ele><time>2026-05-04T14:49:03.588Z</time></trkpt><trkpt lat="43.4030148" lon="16.8517058"><ele>126.0</ele><time>2026-05-04T14:49:04.588Z</time></trkpt><trkpt lat="43.4031096" lon="16.851437"><ele>136.0</ele><time>2026-05-04T14:49:05.588Z</time></trkpt><trkpt lat="43.4032092" lon="16.851164"><ele>130.66666666666669</ele><time>2026-05-04T14:49:06.588Z</time></trkpt><trkpt lat="43.4033055" lon="16.8508899"><ele>125.33333333333334</ele><time>2026-05-04T14:49:07.587Z</time></trkpt><trkpt lat="43.4033966" lon="16.8506068"><ele>120.0</ele><time>2026-05-04T14:49:08.587Z</time></trkpt><trkpt lat="43.4034648" lon="16.8503261"><ele>114.0</ele><time>2026-05-04T14:49:09.587Z</time></trkpt><trkpt lat="43.4035061" lon="16.850024"><ele>108.0</ele><time>2026-05-04T14:49:10.587Z</time></trkpt><trkpt lat="43.4035254" lon="16.8497088"><ele>108.0</ele><time>2026-05-04T14:49:11.587Z</time></trkpt><trkpt lat="43.403528" lon="16.8493798"><ele>108.0</ele><time>2026-05-04T14:49:12.587Z</time></trkpt><trkpt lat="43.4035212" lon="16.8490638"><ele>108.0</ele><time>2026-05-04T14:49:13.588Z</time></trkpt><trkpt lat="43.4035098" lon="16.8487481"><ele>108.0</ele><time>2026-05-04T14:49:14.587Z</time></trkpt><trkpt lat="43.4035059" lon="16.848439"><ele>110.0</ele><time>2026-05-04T14:49:15.588Z</time></trkpt><trkpt lat="43.4035103" lon="16.8481252"><ele>112.0</ele><time>2026-05-04T14:49:16.588Z</time></trkpt><trkpt lat="43.4035313" lon="16.8478166"><ele>110.5</ele><time>2026-05-04T14:49:17.588Z</time></trkpt><trkpt lat="43.4035617" lon="16.847496"><ele>109.0</ele><time>2026-05-04T14:49:18.588Z</time></trkpt><trkpt lat="43.4036018" lon="16.8471632"><ele>109.0</ele><time>2026-05-04T14:49:19.587Z</time></trkpt><trkpt lat="43.403645" lon="16.8468155"><ele>109.0</ele><time>2026-05-04T14:49:20.588Z</time></trkpt><trkpt lat="43.4036886" lon="16.8464729"><ele>106.0</ele><time>2026-05-04T14:49:21.587Z</time></trkpt><trkpt lat="43.4037275" lon="16.8461247"><ele>103.0</ele><time>2026-05-04T14:49:22.587Z</time></trkpt><trkpt lat="43.4037507" lon="16.8457799"><ele>101.5</ele><time>2026-05-04T14:49:23.588Z</time></trkpt><trkpt lat="43.4037498" lon="16.8454257"><ele>100.0</ele><time>2026-05-04T14:49:24.587Z</time></trkpt><trkpt lat="43.4037298" lon="16.8450726"><ele>100.0</ele><time>2026-05-04T14:49:25.587Z</time></trkpt><trkpt lat="43.4037031" lon="16.8447115"><ele>100.0</ele><time>2026-05-04T14:49:26.587Z</time></trkpt><trkpt lat="43.4036716" lon="16.8443625"><ele>103.0</ele><time>2026-05-04T14:49:27.587Z</time></trkpt><trkpt lat="43.4036407" lon="16.8440233"><ele>106.0</ele><time>2026-05-04T14:49:28.588Z</time></trkpt><trkpt lat="43.4036126" lon="16.8437115"><ele>105.5</ele><time>2026-05-04T14:49:29.588Z</time></trkpt><trkpt lat="43.4035862" lon="16.8434"><ele>105.0</ele><time>2026-05-04T14:49:30.588Z</time></trkpt><trkpt lat="43.403564" lon="16.8430946"><ele>105.0</ele><time>2026-05-04T14:49:31.587Z</time></trkpt><trkpt lat="43.4035504" lon="16.8427854"><ele>105.0</ele><time>2026-05-04T14:49:32.587Z</time></trkpt><trkpt lat="43.4035501" lon="16.842492"><ele>105.0</ele><time>2026-05-04T14:49:33.588Z</time></trkpt><trkpt lat="43.4035636" lon="16.8422025"><ele>105.0</ele><time>2026-05-04T14:49:34.587Z</time></trkpt><trkpt lat="43.403584" lon="16.8419248"><ele>105.0</ele><time>2026-05-04T14:49:35.587Z</time></trkpt><trkpt lat="43.4036097" lon="16.8416493"><ele>105.0</ele><time>2026-05-04T14:49:36.588Z</time></trkpt><trkpt lat="43.403635" lon="16.8413863"><ele>104.33333333333334</ele><time>2026-05-04T14:49:37.588Z</time></trkpt><trkpt lat="43.4036551" lon="16.8411171"><ele>103.66666666666667</ele><time>2026-05-04T14:49:38.588Z</time></trkpt><trkpt lat="43.4036585" lon="16.8408483"><ele>103.0</ele><time>2026-05-04T14:49:39.587Z</time></trkpt><trkpt lat="43.4036423" lon="16.8405744"><ele>102.0</ele><time>2026-05-04T14:49:40.587Z</time></trkpt><trkpt lat="43.4036019" lon="16.8403175"><ele>101.0</ele><time>2026-05-04T14:49:41.588Z</time></trkpt><trkpt lat="43.4035431" lon="16.8400588"><ele>100.0</ele><time>2026-05-04T14:49:42.587Z</time></trkpt><trkpt lat="43.4034713" lon="16.8398029"><ele>100.0</ele><time>2026-05-04T14:49:43.588Z</time></trkpt><trkpt lat="43.4033924" lon="16.8395455"><ele>100.0</ele><time>2026-05-04T14:49:44.588Z</time></trkpt><trkpt lat="43.4033175" lon="16.8393037"><ele>100.0</ele><time>2026-05-04T14:49:45.587Z</time></trkpt><trkpt lat="43.4032437" lon="16.8390647"><ele>103.33333333333334</ele><time>2026-05-04T14:49:46.588Z</time></trkpt><trkpt lat="43.4031751" lon="16.8388357"><ele>106.66666666666666</ele><time>2026-05-04T14:49:47.588Z</time></trkpt><trkpt lat="43.4031077" lon="16.838613"><ele>110.0</ele><time>2026-05-04T14:49:48.587Z</time></trkpt><trkpt lat="43.4030452" lon="16.8384094"><ele>100.33333333333333</ele><time>2026-05-04T14:49:49.588Z</time></trkpt><trkpt lat="43.4029834" lon="16.838211"><ele>90.66666666666666</ele><time>2026-05-04T14:49:50.588Z</time></trkpt><trkpt lat="43.4029224" lon="16.8380144"><ele>81.0</ele><time>2026-05-04T14:49:51.587Z</time></trkpt><trkpt lat="43.4028618" lon="16.8378157"><ele>83.33333333333333</ele><time>2026-05-04T14:49:52.587Z</time></trkpt><trkpt lat="43.4028064" lon="16.8376231"><ele>85.66666666666666</ele><time>2026-05-04T14:49:53.587Z</time></trkpt><trkpt lat="43.4027572" lon="16.8374266"><ele>88.0</ele><time>2026-05-04T14:49:54.588Z</time></trkpt><trkpt lat="43.4027165" lon="16.8372251"><ele>88.0</ele><time>2026-05-04T14:49:55.588Z</time></trkpt><trkpt lat="43.4026838" lon="16.8370162"><ele>88.0</ele><time>2026-05-04T14:49:56.588Z</time></trkpt><trkpt lat="43.4026572" lon="16.8368105"><ele>88.0</ele><time>2026-05-04T14:49:57.588Z</time></trkpt><trkpt lat="43.4026441" lon="16.836597"><ele>88.33333333333333</ele><time>2026-05-04T14:49:58.587Z</time></trkpt><trkpt lat="43.4026416" lon="16.8363828"><ele>88.66666666666667</ele><time>2026-05-04T14:49:59.587Z</time></trkpt><trkpt lat="43.4026463" lon="16.8361696"><ele>89.0</ele><time>2026-05-04T14:50:00.588Z</time></trkpt><trkpt lat="43.4026549" lon="16.8359694"><ele>89.0</ele><time>2026-05-04T14:50:01.588Z</time></trkpt><trkpt lat="43.4026647" lon="16.8357725"><ele>89.0</ele><time>2026-05-04T14:50:02.588Z</time></trkpt><trkpt lat="43.4026757" lon="16.8355783"><ele>89.0</ele><time>2026-05-04T14:50:03.587Z</time></trkpt><trkpt lat="43.4026877" lon="16.8353806"><ele>89.0</ele><time>2026-05-04T14:50:04.588Z</time></trkpt><trkpt lat="43.4026976" lon="16.8351898"><ele>88.25</ele><time>2026-05-04T14:50:05.588Z</time></trkpt><trkpt lat="43.4027077" lon="16.834995"><ele>87.5</ele><time>2026-05-04T14:50:06.588Z</time></trkpt><trkpt lat="43.4027173" lon="16.8348004"><ele>86.75</ele><time>2026-05-04T14:50:07.587Z</time></trkpt><trkpt lat="43.4027276" lon="16.834601"><ele>86.0</ele><time>2026-05-04T14:50:08.588Z</time></trkpt><trkpt lat="43.402739" lon="16.8344062"><ele>85.5</ele><time>2026-05-04T14:50:09.587Z</time></trkpt><trkpt lat="43.4027487" lon="16.8342068"><ele>85.0</ele><time>2026-05-04T14:50:10.588Z</time></trkpt><trkpt lat="43.402753" lon="16.8340198"><ele>84.5</ele><time>2026-05-04T14:50:11.587Z</time></trkpt><trkpt lat="43.4027491" lon="16.8338365"><ele>84.0</ele><time>2026-05-04T14:50:12.588Z</time></trkpt><trkpt lat="43.4027338" lon="16.8336619"><ele>84.0</ele><time>2026-05-04T14:50:13.588Z</time></trkpt><trkpt lat="43.4027133" lon="16.8334875"><ele>84.0</ele><time>2026-05-04T14:50:14.587Z</time></trkpt><trkpt lat="43.4026849" lon="16.8333183"><ele>84.0</ele><time>2026-05-04T14:50:15.587Z</time></trkpt><trkpt lat="43.4026491" lon="16.8331528"><ele>84.0</ele><time>2026-05-04T14:50:16.588Z</time></trkpt><trkpt lat="43.4026155" lon="16.8329926"><ele>83.5</ele><time>2026-05-04T14:50:17.587Z</time></trkpt><trkpt lat="43.4025819" lon="16.8328315"><ele>83.0</ele><time>2026-05-04T14:50:18.588Z</time></trkpt><trkpt lat="43.4025522" lon="16.8326745"><ele>82.5</ele><time>2026-05-04T14:50:19.587Z</time></trkpt><trkpt lat="43.4025242" lon="16.8325157"><ele>82.0</ele><time>2026-05-04T14:50:20.587Z</time></trkpt><trkpt lat="43.4024966" lon="16.8323646"><ele>82.8</ele><time>2026-05-04T14:50:21.587Z</time></trkpt><trkpt lat="43.4024737" lon="16.8322123"><ele>83.6</ele><time>2026-05-04T14:50:22.587Z</time></trkpt><trkpt lat="43.4024553" lon="16.8320587"><ele>84.39999999999999</ele><time>2026-05-04T14:50:23.588Z</time></trkpt><trkpt lat="43.4024406" lon="16.8319018"><ele>85.19999999999999</ele><time>2026-05-04T14:50:24.587Z</time></trkpt><trkpt lat="43.4024277" lon="16.8317541"><ele>86.0</ele><time>2026-05-04T14:50:25.588Z</time></trkpt><trkpt lat="43.4024183" lon="16.8316042"><ele>86.4</ele><time>2026-05-04T14:50:26.587Z</time></trkpt><trkpt lat="43.4024124" lon="16.8314573"><ele>86.8</ele><time>2026-05-04T14:50:27.587Z</time></trkpt><trkpt lat="43.4024067" lon="16.8313093"><ele>87.2</ele><time>2026-05-04T14:50:28.587Z</time></trkpt><trkpt lat="43.4024043" lon="16.8311643"><ele>87.60000000000001</ele><time>2026-05-04T14:50:29.588Z</time></trkpt><trkpt lat="43.4024018" lon="16.8310202"><ele>88.0</ele><time>2026-05-04T14:50:30.587Z</time></trkpt><trkpt lat="43.4023978" lon="16.830877"><ele>88.0</ele><time>2026-05-04T14:50:31.587Z</time></trkpt><trkpt lat="43.402393" lon="16.8307324"><ele>88.0</ele><time>2026-05-04T14:50:32.588Z</time></trkpt><trkpt lat="43.4023883" lon="16.8305943"><ele>88.0</ele><time>2026-05-04T14:50:33.588Z</time></trkpt><trkpt lat="43.4023837" lon="16.8304513"><ele>88.0</ele><time>2026-05-04T14:50:34.587Z</time></trkpt><trkpt lat="43.4023807" lon="16.8303073"><ele>88.0</ele><time>2026-05-04T14:50:35.588Z</time></trkpt><trkpt lat="43.4023747" lon="16.8301601"><ele>88.4</ele><time>2026-05-04T14:50:36.588Z</time></trkpt><trkpt lat="43.4023677" lon="16.8300139"><ele>88.80000000000001</ele><time>2026-05-04T14:50:37.587Z</time></trkpt><trkpt lat="43.4023604" lon="16.8298673"><ele>89.2</ele><time>2026-05-04T14:50:38.587Z</time></trkpt><trkpt lat="43.4023514" lon="16.8297138"><ele>89.6</ele><time>2026-05-04T14:50:39.588Z</time></trkpt><trkpt lat="43.4023441" lon="16.8295602"><ele>90.0</ele><time>2026-05-04T14:50:40.588Z</time></trkpt><trkpt lat="43.4023384" lon="16.8294098"><ele>89.25</ele><time>2026-05-04T14:50:41.587Z</time></trkpt><trkpt lat="43.4023261" lon="16.82925"><ele>88.5</ele><time>2026-05-04T14:50:42.587Z</time></trkpt><trkpt lat="43.4023112" lon="16.8290839"><ele>87.75</ele><time>2026-05-04T14:50:43.588Z</time></trkpt><trkpt lat="43.4022998" lon="16.828911"><ele>87.0</ele><time>2026-05-04T14:50:44.587Z</time></trkpt><trkpt lat="43.4022905" lon="16.828737"><ele>87.0</ele><time>2026-05-04T14:50:45.587Z</time></trkpt><trkpt lat="43.4022795" lon="16.8285551"><ele>87.0</ele><time>2026-05-04T14:50:46.588Z</time></trkpt><trkpt lat="43.4022711" lon="16.8283626"><ele>87.0</ele><time>2026-05-04T14:50:47.587Z</time></trkpt><trkpt lat="43.4022636" lon="16.82816"><ele>87.0</ele><time>2026-05-04T14:50:48.587Z</time></trkpt><trkpt lat="43.4022586" lon="16.8279609"><ele>87.66666666666667</ele><time>2026-05-04T14:50:49.587Z</time></trkpt><trkpt lat="43.4022593" lon="16.8277554"><ele>88.33333333333334</ele><time>2026-05-04T14:50:50.588Z</time></trkpt><trkpt lat="43.4022671" lon="16.8275483"><ele>89.0</ele><time>2026-05-04T14:50:51.588Z</time></trkpt><trkpt lat="43.4022839" lon="16.8273391"><ele>87.66666666666667</ele><time>2026-05-04T14:50:52.587Z</time></trkpt><trkpt lat="43.4023125" lon="16.8271258"><ele>86.33333333333333</ele><time>2026-05-04T14:50:53.587Z</time></trkpt><trkpt lat="43.4023486" lon="16.8269048"><ele>85.0</ele><time>2026-05-04T14:50:54.587Z</time></trkpt><trkpt lat="43.4023908" lon="16.8266822"><ele>82.33333333333333</ele><time>2026-05-04T14:50:55.588Z</time></trkpt><trkpt lat="43.4024375" lon="16.8264494"><ele>79.66666666666667</ele><time>2026-05-04T14:50:56.588Z</time></trkpt><trkpt lat="43.4024866" lon="16.8262162"><ele>77.0</ele><time>2026-05-04T14:50:57.587Z</time></trkpt><trkpt lat="43.4025336" lon="16.8259734"><ele>73.0</ele><time>2026-05-04T14:50:58.588Z</time></trkpt><trkpt lat="43.4025791" lon="16.8257253"><ele>69.0</ele><time>2026-05-04T14:50:59.587Z</time></trkpt><trkpt lat="43.4026222" lon="16.8254699"><ele>65.0</ele><time>2026-05-04T14:51:00.588Z</time></trkpt><trkpt lat="43.4026528" lon="16.8252194"><ele>63.66666666666667</ele><time>2026-05-04T14:51:01.587Z</time></trkpt><trkpt lat="43.4026714" lon="16.8249581"><ele>62.33333333333333</ele><time>2026-05-04T14:51:02.588Z</time></trkpt><trkpt lat="43.4026759" lon="16.8246933"><ele>61.0</ele><time>2026-05-04T14:51:03.588Z</time></trkpt><trkpt lat="43.4026692" lon="16.8244292"><ele>60.666666666666664</ele><time>2026-05-04T14:51:04.587Z</time></trkpt><trkpt lat="43.4026523" lon="16.8241837"><ele>60.33333333333333</ele><time>2026-05-04T14:51:05.588Z</time></trkpt><trkpt lat="43.4026287" lon="16.8239429"><ele>60.0</ele><time>2026-05-04T14:51:06.588Z</time></trkpt><trkpt lat="43.4026018" lon="16.8237097"><ele>59.33333333333333</ele><time>2026-05-04T14:51:07.588Z</time></trkpt><trkpt lat="43.4025767" lon="16.8234768"><ele>58.666666666666664</ele><time>2026-05-04T14:51:08.587Z</time></trkpt><trkpt lat="43.4025576" lon="16.8232536"><ele>58.0</ele><time>2026-05-04T14:51:09.588Z</time></trkpt><trkpt lat="43.4025436" lon="16.8230306"><ele>58.0</ele><time>2026-05-04T14:51:10.587Z</time></trkpt><trkpt lat="43.4025385" lon="16.8228057"><ele>58.0</ele><time>2026-05-04T14:51:11.588Z</time></trkpt><trkpt lat="43.402546" lon="16.8225747"><ele>58.0</ele><time>2026-05-04T14:51:12.588Z</time></trkpt><trkpt lat="43.4025683" lon="16.8223504"><ele>56.666666666666664</ele><time>2026-05-04T14:51:13.588Z</time></trkpt><trkpt lat="43.4026087" lon="16.822119"><ele>55.33333333333333</ele><time>2026-05-04T14:51:14.588Z</time></trkpt><trkpt lat="43.4026595" lon="16.8218953"><ele>54.0</ele><time>2026-05-04T14:51:15.587Z</time></trkpt><trkpt lat="43.4027218" lon="16.8216686"><ele>52.0</ele><time>2026-05-04T14:51:16.588Z</time></trkpt><trkpt lat="43.4027801" lon="16.8214477"><ele>50.0</ele><time>2026-05-04T14:51:17.588Z</time></trkpt><trkpt lat="43.4028332" lon="16.8212218"><ele>48.0</ele><time>2026-05-04T14:51:18.588Z</time></trkpt><trkpt lat="43.4028789" lon="16.8209999"><ele>44.666666666666664</ele><time>2026-05-04T14:51:19.588Z</time></trkpt><trkpt lat="43.4029156" lon="16.8207791"><ele>41.33333333333333</ele><time>2026-05-04T14:51:20.587Z</time></trkpt><trkpt lat="43.4029396" lon="16.8205696"><ele>38.0</ele><time>2026-05-04T14:51:21.588Z</time></trkpt><trkpt lat="43.4029587" lon="16.8203615"><ele>38.0</ele><time>2026-05-04T14:51:22.588Z</time></trkpt><trkpt lat="43.4029808" lon="16.8201554"><ele>38.0</ele><time>2026-05-04T14:51:23.587Z</time></trkpt><trkpt lat="43.4030002" lon="16.8199459"><ele>38.0</ele><time>2026-05-04T14:51:24.587Z</time></trkpt><trkpt lat="43.4030209" lon="16.8197391"><ele>45.0</ele><time>2026-05-04T14:51:25.587Z</time></trkpt><trkpt lat="43.4030408" lon="16.8195263"><ele>52.0</ele><time>2026-05-04T14:51:26.587Z</time></trkpt><trkpt lat="43.4030726" lon="16.8193097"><ele>59.0</ele><time>2026-05-04T14:51:27.587Z</time></trkpt><trkpt lat="43.4031187" lon="16.8190918"><ele>59.0</ele><time>2026-05-04T14:51:28.588Z</time></trkpt><trkpt lat="43.4031828" lon="16.8188882"><ele>59.0</ele><time>2026-05-04T14:51:29.587Z</time></trkpt><trkpt lat="43.4032636" lon="16.8186892"><ele>59.0</ele><time>2026-05-04T14:51:30.588Z</time></trkpt><trkpt lat="43.40336" lon="16.8184964"><ele>52.333333333333336</ele><time>2026-05-04T14:51:31.588Z</time></trkpt><trkpt lat="43.4034565" lon="16.8183066"><ele>45.66666666666667</ele><time>2026-05-04T14:51:32.587Z</time></trkpt><trkpt lat="43.4035517" lon="16.818124"><ele>39.0</ele><time>2026-05-04T14:51:33.588Z</time></trkpt><trkpt lat="43.403641" lon="16.8179371"><ele>39.0</ele><time>2026-05-04T14:51:34.588Z</time></trkpt><trkpt lat="43.4037161" lon="16.8177483"><ele>39.0</ele><time>2026-05-04T14:51:35.587Z</time></trkpt><trkpt lat="43.4037753" lon="16.8175511"><ele>39.0</ele><time>2026-05-04T14:51:36.588Z</time></trkpt><trkpt lat="43.4038153" lon="16.8173553"><ele>45.5</ele><time>2026-05-04T14:51:37.587Z</time></trkpt><trkpt lat="43.4038426" lon="16.817156"><ele>52.0</ele><time>2026-05-04T14:51:38.587Z</time></trkpt><trkpt lat="43.403865" lon="16.8169542"><ele>58.5</ele><time>2026-05-04T14:51:39.587Z</time></trkpt><trkpt lat="43.4038776" lon="16.816749"><ele>65.0</ele><time>2026-05-04T14:51:40.587Z</time></trkpt><trkpt lat="43.4038867" lon="16.8165486"><ele>65.0</ele><time>2026-05-04T14:51:41.588Z</time></trkpt><trkpt lat="43.4039026" lon="16.8163418"><ele>65.0</ele><time>2026-05-04T14:51:42.588Z</time></trkpt><trkpt lat="43.4039185" lon="16.8161329"><ele>65.0</ele><time>2026-05-04T14:51:43.588Z</time></trkpt><trkpt lat="43.403937" lon="16.8159175"><ele>62.66666666666667</ele><time>2026-05-04T14:51:44.588Z</time></trkpt><trkpt lat="43.4039594" lon="16.8157071"><ele>60.33333333333333</ele><time>2026-05-04T14:51:45.587Z</time></trkpt><trkpt lat="43.4039867" lon="16.8154928"><ele>58.0</ele><time>2026-05-04T14:51:46.587Z</time></trkpt><trkpt lat="43.404029" lon="16.8152726"><ele>54.666666666666664</ele><time>2026-05-04T14:51:47.588Z</time></trkpt><trkpt lat="43.4040818" lon="16.8150572"><ele>51.33333333333333</ele><time>2026-05-04T14:51:48.587Z</time></trkpt><trkpt lat="43.4041516" lon="16.8148449"><ele>48.0</ele><time>2026-05-04T14:51:49.588Z</time></trkpt><trkpt lat="43.40422" lon="16.8146369"><ele>48.0</ele><time>2026-05-04T14:51:50.587Z</time></trkpt><trkpt lat="43.404296" lon="16.8144286"><ele>48.0</ele><time>2026-05-04T14:51:51.587Z</time></trkpt><trkpt lat="43.4043753" lon="16.8142306"><ele>48.0</ele><time>2026-05-04T14:51:52.588Z</time></trkpt><trkpt lat="43.4044573" lon="16.8140358"><ele>51.33333333333333</ele><time>2026-05-04T14:51:53.587Z</time></trkpt><trkpt lat="43.4045366" lon="16.8138489"><ele>54.666666666666664</ele><time>2026-05-04T14:51:54.587Z</time></trkpt><trkpt lat="43.4046159" lon="16.813658"><ele>58.0</ele><time>2026-05-04T14:51:55.588Z</time></trkpt><trkpt lat="43.4046915" lon="16.8134726"><ele>58.0</ele><time>2026-05-04T14:51:56.588Z</time></trkpt><trkpt lat="43.4047647" lon="16.8132877"><ele>58.0</ele><time>2026-05-04T14:51:57.587Z</time></trkpt><trkpt lat="43.4048323" lon="16.8131029"><ele>58.0</ele><time>2026-05-04T14:51:58.588Z</time></trkpt><trkpt lat="43.4048923" lon="16.8129059"><ele>58.0</ele><time>2026-05-04T14:51:59.588Z</time></trkpt><trkpt lat="43.4049372" lon="16.8127024"><ele>58.0</ele><time>2026-05-04T14:52:00.588Z</time></trkpt><trkpt lat="43.4049631" lon="16.8124907"><ele>58.0</ele><time>2026-05-04T14:52:01.588Z</time></trkpt><trkpt lat="43.4049714" lon="16.8122771"><ele>55.0</ele><time>2026-05-04T14:52:02.587Z</time></trkpt><trkpt lat="43.4049617" lon="16.8120572"><ele>52.0</ele><time>2026-05-04T14:52:03.587Z</time></trkpt><trkpt lat="43.4049378" lon="16.8118478"><ele>49.0</ele><time>2026-05-04T14:52:04.588Z</time></trkpt><trkpt lat="43.4049082" lon="16.8116405"><ele>49.0</ele><time>2026-05-04T14:52:05.588Z</time></trkpt><trkpt lat="43.4048774" lon="16.8114394"><ele>49.0</ele><time>2026-05-04T14:52:06.587Z</time></trkpt><trkpt lat="43.4048499" lon="16.8112309"><ele>49.0</ele><time>2026-05-04T14:52:07.588Z</time></trkpt><trkpt lat="43.4048297" lon="16.8110239"><ele>51.0</ele><time>2026-05-04T14:52:08.587Z</time></trkpt><trkpt lat="43.4048186" lon="16.8108171"><ele>53.0</ele><time>2026-05-04T14:52:09.587Z</time></trkpt><trkpt lat="43.4048272" lon="16.8106187"><ele>55.0</ele><time>2026-05-04T14:52:10.587Z</time></trkpt><trkpt lat="43.4048584" lon="16.8104189"><ele>57.0</ele><time>2026-05-04T14:52:11.588Z</time></trkpt><trkpt lat="43.4049033" lon="16.8102379"><ele>54.0</ele><time>2026-05-04T14:52:12.588Z</time></trkpt><trkpt lat="43.4049649" lon="16.8100561"><ele>51.0</ele><time>2026-05-04T14:52:13.587Z</time></trkpt><trkpt lat="43.4050465" lon="16.8098805"><ele>48.0</ele><time>2026-05-04T14:52:14.588Z</time></trkpt><trkpt lat="43.4051318" lon="16.8097047"><ele>48.0</ele><time>2026-05-04T14:52:15.588Z</time></trkpt><trkpt lat="43.4052172" lon="16.8095232"><ele>48.0</ele><time>2026-05-04T14:52:16.588Z</time></trkpt><trkpt lat="43.4053009" lon="16.8093445"><ele>48.0</ele><time>2026-05-04T14:52:17.588Z</time></trkpt><trkpt lat="43.4053915" lon="16.809154"><ele>52.33333333333333</ele><time>2026-05-04T14:52:18.588Z</time></trkpt><trkpt lat="43.4054841" lon="16.8089588"><ele>56.666666666666664</ele><time>2026-05-04T14:52:19.587Z</time></trkpt><trkpt lat="43.4055791" lon="16.8087579"><ele>61.0</ele><time>2026-05-04T14:52:20.587Z</time></trkpt><trkpt lat="43.4056728" lon="16.8085624"><ele>56.0</ele><time>2026-05-04T14:52:21.588Z</time></trkpt><trkpt lat="43.405763" lon="16.8083627"><ele>51.0</ele><time>2026-05-04T14:52:22.587Z</time></trkpt><trkpt lat="43.4058423" lon="16.8081582"><ele>46.0</ele><time>2026-05-04T14:52:23.588Z</time></trkpt><trkpt lat="43.405907" lon="16.8079476"><ele>46.0</ele><time>2026-05-04T14:52:24.588Z</time></trkpt><trkpt lat="43.405949" lon="16.8077416"><ele>46.0</ele><time>2026-05-04T14:52:25.587Z</time></trkpt><trkpt lat="43.4059739" lon="16.8075315"><ele>46.0</ele><time>2026-05-04T14:52:26.587Z</time></trkpt><trkpt lat="43.4059799" lon="16.8073256"><ele>46.5</ele><time>2026-05-04T14:52:27.587Z</time></trkpt><trkpt lat="43.4059683" lon="16.8071174"><ele>47.0</ele><time>2026-05-04T14:52:28.588Z</time></trkpt><trkpt lat="43.40594" lon="16.8069182"><ele>47.5</ele><time>2026-05-04T14:52:29.588Z</time></trkpt><trkpt lat="43.4058937" lon="16.8067213"><ele>48.0</ele><time>2026-05-04T14:52:30.587Z</time></trkpt><trkpt lat="43.4058244" lon="16.8065359"><ele>48.0</ele><time>2026-05-04T14:52:31.587Z</time></trkpt><trkpt lat="43.4057399" lon="16.8063554"><ele>48.0</ele><time>2026-05-04T14:52:32.588Z</time></trkpt><trkpt lat="43.4056464" lon="16.806192"><ele>48.0</ele><time>2026-05-04T14:52:33.587Z</time></trkpt><trkpt lat="43.405547" lon="16.8060326"><ele>43.5</ele><time>2026-05-04T14:52:34.587Z</time></trkpt><trkpt lat="43.4054468" lon="16.8058817"><ele>39.0</ele><time>2026-05-04T14:52:35.588Z</time></trkpt><trkpt lat="43.4053482" lon="16.805731"><ele>34.5</ele><time>2026-05-04T14:52:36.588Z</time></trkpt><trkpt lat="43.4052556" lon="16.8055881"><ele>30.0</ele><time>2026-05-04T14:52:37.588Z</time></trkpt><trkpt lat="43.4051674" lon="16.80545"><ele>30.0</ele><time>2026-05-04T14:52:38.588Z</time></trkpt><trkpt lat="43.4050831" lon="16.8053137"><ele>30.0</ele><time>2026-05-04T14:52:39.588Z</time></trkpt><trkpt lat="43.4049997" lon="16.8051761"><ele>30.0</ele><time>2026-05-04T14:52:40.587Z</time></trkpt><trkpt lat="43.4049206" lon="16.8050395"><ele>30.0</ele><time>2026-05-04T14:52:41.588Z</time></trkpt><trkpt lat="43.4048437" lon="16.8048927"><ele>29.0</ele><time>2026-05-04T14:52:42.588Z</time></trkpt><trkpt lat="43.4047679" lon="16.8047398"><ele>28.0</ele><time>2026-05-04T14:52:43.587Z</time></trkpt><trkpt lat="43.4046981" lon="16.8045806"><ele>27.0</ele><time>2026-05-04T14:52:44.587Z</time></trkpt><trkpt lat="43.404631" lon="16.8044179"><ele>26.0</ele><time>2026-05-04T14:52:45.587Z</time></trkpt><trkpt lat="43.4045702" lon="16.8042545"><ele>26.0</ele><time>2026-05-04T14:52:46.588Z</time></trkpt><trkpt lat="43.404511" lon="16.8040814"><ele>26.0</ele><time>2026-05-04T14:52:47.588Z</time></trkpt><trkpt lat="43.4044568" lon="16.8039084"><ele>26.0</ele><time>2026-05-04T14:52:48.587Z</time></trkpt><trkpt lat="43.404408" lon="16.8037338"><ele>26.0</ele><time>2026-05-04T14:52:49.587Z</time></trkpt><trkpt lat="43.4043674" lon="16.803555"><ele>27.75</ele><time>2026-05-04T14:52:50.587Z</time></trkpt><trkpt lat="43.4043318" lon="16.8033659"><ele>29.5</ele><time>2026-05-04T14:52:51.588Z</time></trkpt><trkpt lat="43.4043021" lon="16.8031763"><ele>31.25</ele><time>2026-05-04T14:52:52.587Z</time></trkpt><trkpt lat="43.4042743" lon="16.8029783"><ele>33.0</ele><time>2026-05-04T14:52:53.587Z</time></trkpt><trkpt lat="43.4042552" lon="16.8027781"><ele>32.333333333333336</ele><time>2026-05-04T14:52:54.587Z</time></trkpt><trkpt lat="43.4042443" lon="16.8025709"><ele>31.666666666666668</ele><time>2026-05-04T14:52:55.588Z</time></trkpt><trkpt lat="43.4042391" lon="16.8023617"><ele>31.0</ele><time>2026-05-04T14:52:56.587Z</time></trkpt><trkpt lat="43.4042397" lon="16.8021527"><ele>31.0</ele><time>2026-05-04T14:52:57.587Z</time></trkpt><trkpt lat="43.4042435" lon="16.8019471"><ele>31.0</ele><time>2026-05-04T14:52:58.588Z</time></trkpt><trkpt lat="43.4042555" lon="16.8017384"><ele>31.0</ele><time>2026-05-04T14:52:59.588Z</time></trkpt><trkpt lat="43.4042718" lon="16.8015381"><ele>31.0</ele><time>2026-05-04T14:53:00.587Z</time></trkpt><trkpt lat="43.4042959" lon="16.8013456"><ele>30.25</ele><time>2026-05-04T14:53:01.587Z</time></trkpt><trkpt lat="43.4043261" lon="16.8011554"><ele>29.5</ele><time>2026-05-04T14:53:02.587Z</time></trkpt><trkpt lat="43.4043597" lon="16.8009614"><ele>28.75</ele><time>2026-05-04T14:53:03.587Z</time></trkpt><trkpt lat="43.4044012" lon="16.8007704"><ele>28.0</ele><time>2026-05-04T14:53:04.587Z</time></trkpt><trkpt lat="43.4044495" lon="16.8005828"><ele>26.75</ele><time>2026-05-04T14:53:05.588Z</time></trkpt><trkpt lat="43.4045019" lon="16.8004035"><ele>25.5</ele><time>2026-05-04T14:53:06.588Z</time></trkpt><trkpt lat="43.4045623" lon="16.8002149"><ele>24.25</ele><time>2026-05-04T14:53:07.587Z</time></trkpt><trkpt lat="43.4046206" lon="16.8000301"><ele>23.0</ele><time>2026-05-04T14:53:08.587Z</time></trkpt><trkpt lat="43.4046818" lon="16.7998441"><ele>23.0</ele><time>2026-05-04T14:53:09.588Z</time></trkpt><trkpt lat="43.4047469" lon="16.7996614"><ele>23.0</ele><time>2026-05-04T14:53:10.588Z</time></trkpt><trkpt lat="43.4048114" lon="16.7994678"><ele>23.0</ele><time>2026-05-04T14:53:11.587Z</time></trkpt><trkpt lat="43.404875" lon="16.7992742"><ele>23.0</ele><time>2026-05-04T14:53:12.587Z</time></trkpt><trkpt lat="43.4049391" lon="16.7990764"><ele>23.0</ele><time>2026-05-04T14:53:13.588Z</time></trkpt><trkpt lat="43.4050029" lon="16.7988822"><ele>23.0</ele><time>2026-05-04T14:53:14.587Z</time></trkpt><trkpt lat="43.4050699" lon="16.7986819"><ele>19.666666666666668</ele><time>2026-05-04T14:53:15.587Z</time></trkpt><trkpt lat="43.4051346" lon="16.7984871"><ele>16.333333333333332</ele><time>2026-05-04T14:53:16.587Z</time></trkpt><trkpt lat="43.4051978" lon="16.7982924"><ele>13.0</ele><time>2026-05-04T14:53:17.588Z</time></trkpt><trkpt lat="43.4052588" lon="16.7980999"><ele>13.0</ele><time>2026-05-04T14:53:18.588Z</time></trkpt><trkpt lat="43.4053194" lon="16.7979026"><ele>13.0</ele><time>2026-05-04T14:53:19.588Z</time></trkpt><trkpt lat="43.4053806" lon="16.7977029"><ele>13.0</ele><time>2026-05-04T14:53:20.588Z</time></trkpt><trkpt lat="43.4054437" lon="16.7974971"><ele>22.0</ele><time>2026-05-04T14:53:21.588Z</time></trkpt><trkpt lat="43.4055061" lon="16.7972953"><ele>31.0</ele><time>2026-05-04T14:53:22.588Z</time></trkpt><trkpt lat="43.4055711" lon="16.797084"><ele>40.0</ele><time>2026-05-04T14:53:23.588Z</time></trkpt><trkpt lat="43.4056386" lon="16.7968679"><ele>33.333333333333336</ele><time>2026-05-04T14:53:24.588Z</time></trkpt><trkpt lat="43.4057015" lon="16.796637"><ele>26.666666666666668</ele><time>2026-05-04T14:53:25.587Z</time></trkpt><trkpt lat="43.4057333" lon="16.7964132"><ele>20.0</ele><time>2026-05-04T14:53:26.588Z</time></trkpt><trkpt lat="43.4057403" lon="16.7961797"><ele>18.666666666666668</ele><time>2026-05-04T14:53:27.588Z</time></trkpt><trkpt lat="43.4057199" lon="16.7959513"><ele>17.333333333333332</ele><time>2026-05-04T14:53:28.588Z</time></trkpt><trkpt lat="43.4056745" lon="16.7957271"><ele>16.0</ele><time>2026-05-04T14:53:29.588Z</time></trkpt><trkpt lat="43.4056045" lon="16.7955132"><ele>16.0</ele><time>2026-05-04T14:53:30.587Z</time></trkpt><trkpt lat="43.4055099" lon="16.7953074"><ele>16.0</ele><time>2026-05-04T14:53:31.588Z</time></trkpt><trkpt lat="43.405398" lon="16.7951222"><ele>16.0</ele><time>2026-05-04T14:53:32.588Z</time></trkpt><trkpt lat="43.4052679" lon="16.7949551"><ele>15.0</ele><time>2026-05-04T14:53:33.587Z</time></trkpt><trkpt lat="43.4051299" lon="16.7948067"><ele>14.0</ele><time>2026-05-04T14:53:34.588Z</time></trkpt><trkpt lat="43.4049916" lon="16.7946623"><ele>13.0</ele><time>2026-05-04T14:53:35.587Z</time></trkpt><trkpt lat="43.4048656" lon="16.7945228"><ele>13.0</ele><time>2026-05-04T14:53:36.588Z</time></trkpt><trkpt lat="43.4047484" lon="16.7943887"><ele>13.0</ele><time>2026-05-04T14:53:37.587Z</time></trkpt><trkpt lat="43.4046441" lon="16.7942591"><ele>13.0</ele><time>2026-05-04T14:53:38.588Z</time></trkpt><trkpt lat="43.4045434" lon="16.79412"><ele>13.0</ele><time>2026-05-04T14:53:39.588Z</time></trkpt><trkpt lat="43.4044478" lon="16.7939764"><ele>12.25</ele><time>2026-05-04T14:53:40.588Z</time></trkpt><trkpt lat="43.40436" lon="16.7938284"><ele>11.5</ele><time>2026-05-04T14:53:41.588Z</time></trkpt><trkpt lat="43.4042868" lon="16.7936703"><ele>10.75</ele><time>2026-05-04T14:53:42.587Z</time></trkpt><trkpt lat="43.4042223" lon="16.7934884"><ele>10.0</ele><time>2026-05-04T14:53:43.587Z</time></trkpt><trkpt lat="43.4041681" lon="16.7933037"><ele>12.0</ele><time>2026-05-04T14:53:44.588Z</time></trkpt><trkpt lat="43.4041245" lon="16.793108"><ele>14.0</ele><time>2026-05-04T14:53:45.588Z</time></trkpt><trkpt lat="43.4040948" lon="16.7929007"><ele>16.0</ele><time>2026-05-04T14:53:46.587Z</time></trkpt><trkpt lat="43.4040828" lon="16.7926782"><ele>17.0</ele><time>2026-05-04T14:53:47.587Z</time></trkpt><trkpt lat="43.404084" lon="16.7924611"><ele>18.0</ele><time>2026-05-04T14:53:48.588Z</time></trkpt><trkpt lat="43.4041029" lon="16.7922457"><ele>19.0</ele><time>2026-05-04T14:53:49.588Z</time></trkpt><trkpt lat="43.404139" lon="16.7920383"><ele>18.0</ele><time>2026-05-04T14:53:50.587Z</time></trkpt><trkpt lat="43.404193" lon="16.79183"><ele>17.0</ele><time>2026-05-04T14:53:51.588Z</time></trkpt><trkpt lat="43.4042622" lon="16.7916324"><ele>16.0</ele><time>2026-05-04T14:53:52.587Z</time></trkpt><trkpt lat="43.4043482" lon="16.7914484"><ele>16.0</ele><time>2026-05-04T14:53:53.588Z</time></trkpt><trkpt lat="43.4044472" lon="16.791284"><ele>16.0</ele><time>2026-05-04T14:53:54.587Z</time></trkpt><trkpt lat="43.4045592" lon="16.7911357"><ele>16.0</ele><time>2026-05-04T14:53:55.588Z</time></trkpt><trkpt lat="43.4046903" lon="16.7910075"><ele>17.333333333333332</ele><time>2026-05-04T14:53:56.588Z</time></trkpt><trkpt lat="43.404829" lon="16.790885"><ele>18.666666666666668</ele><time>2026-05-04T14:53:57.588Z</time></trkpt><trkpt lat="43.4049681" lon="16.7907604"><ele>20.0</ele><time>2026-05-04T14:53:58.587Z</time></trkpt><trkpt lat="43.4051099" lon="16.7906323"><ele>20.0</ele><time>2026-05-04T14:53:59.587Z</time></trkpt><trkpt lat="43.4052512" lon="16.7905048"><ele>20.0</ele><time>2026-05-04T14:54:00.588Z</time></trkpt><trkpt lat="43.4053908" lon="16.7903774"><ele>20.0</ele><time>2026-05-04T14:54:01.587Z</time></trkpt><trkpt lat="43.405528" lon="16.7902515"><ele>17.333333333333336</ele><time>2026-05-04T14:54:02.588Z</time></trkpt><trkpt lat="43.405669" lon="16.7901225"><ele>14.666666666666668</ele><time>2026-05-04T14:54:03.588Z</time></trkpt><trkpt lat="43.4058044" lon="16.7899914"><ele>12.0</ele><time>2026-05-04T14:54:04.587Z</time></trkpt><trkpt lat="43.4059379" lon="16.789854"><ele>12.0</ele><time>2026-05-04T14:54:05.588Z</time></trkpt><trkpt lat="43.4060598" lon="16.789711"><ele>12.0</ele><time>2026-05-04T14:54:06.588Z</time></trkpt><trkpt lat="43.4061719" lon="16.789547"><ele>12.0</ele><time>2026-05-04T14:54:07.588Z</time></trkpt><trkpt lat="43.4062642" lon="16.7893694"><ele>17.666666666666664</ele><time>2026-05-04T14:54:08.588Z</time></trkpt><trkpt lat="43.4063387" lon="16.7891752"><ele>23.333333333333332</ele><time>2026-05-04T14:54:09.587Z</time></trkpt><trkpt lat="43.406395" lon="16.788971"><ele>29.0</ele><time>2026-05-04T14:54:10.587Z</time></trkpt><trkpt lat="43.4064399" lon="16.7887523"><ele>29.0</ele><time>2026-05-04T14:54:11.588Z</time></trkpt><trkpt lat="43.4064759" lon="16.7885349"><ele>29.0</ele><time>2026-05-04T14:54:12.588Z</time></trkpt><trkpt lat="43.406507" lon="16.7883247"><ele>29.0</ele><time>2026-05-04T14:54:13.588Z</time></trkpt><trkpt lat="43.4065397" lon="16.7881188"><ele>26.0</ele><time>2026-05-04T14:54:14.587Z</time></trkpt><trkpt lat="43.4065801" lon="16.7879002"><ele>23.0</ele><time>2026-05-04T14:54:15.588Z</time></trkpt><trkpt lat="43.406628" lon="16.7876885"><ele>20.0</ele><time>2026-05-04T14:54:16.587Z</time></trkpt><trkpt lat="43.4066804" lon="16.7874859"><ele>16.666666666666668</ele><time>2026-05-04T14:54:17.587Z</time></trkpt><trkpt lat="43.4067438" lon="16.7872936"><ele>13.333333333333334</ele><time>2026-05-04T14:54:18.587Z</time></trkpt><trkpt lat="43.4068066" lon="16.787095"><ele>10.0</ele><time>2026-05-04T14:54:19.588Z</time></trkpt><trkpt lat="43.4068657" lon="16.7869088"><ele>9.5</ele><time>2026-05-04T14:54:20.588Z</time></trkpt><trkpt lat="43.4069178" lon="16.7867227"><ele>9.0</ele><time>2026-05-04T14:54:21.588Z</time></trkpt><trkpt lat="43.4069608" lon="16.7865368"><ele>8.5</ele><time>2026-05-04T14:54:22.588Z</time></trkpt><trkpt lat="43.406996" lon="16.7863382"><ele>8.0</ele><time>2026-05-04T14:54:23.587Z</time></trkpt><trkpt lat="43.4070243" lon="16.7861417"><ele>8.75</ele><time>2026-05-04T14:54:24.587Z</time></trkpt><trkpt lat="43.4070491" lon="16.7859485"><ele>9.5</ele><time>2026-05-04T14:54:25.587Z</time></trkpt><trkpt lat="43.4070643" lon="16.7857529"><ele>10.25</ele><time>2026-05-04T14:54:26.588Z</time></trkpt><trkpt lat="43.407067" lon="16.7855513"><ele>11.0</ele><time>2026-05-04T14:54:27.588Z</time></trkpt><trkpt lat="43.4070579" lon="16.7853499"><ele>10.25</ele><time>2026-05-04T14:54:28.587Z</time></trkpt><trkpt lat="43.4070403" lon="16.7851506"><ele>9.5</ele><time>2026-05-04T14:54:29.588Z</time></trkpt><trkpt lat="43.4070061" lon="16.7849526"><ele>8.75</ele><time>2026-05-04T14:54:30.587Z</time></trkpt><trkpt lat="43.4069696" lon="16.7847518"><ele>8.0</ele><time>2026-05-04T14:54:31.588Z</time></trkpt><trkpt lat="43.4069255" lon="16.7845551"><ele>8.0</ele><time>2026-05-04T14:54:32.588Z</time></trkpt><trkpt lat="43.4068805" lon="16.7843585"><ele>8.0</ele><time>2026-05-04T14:54:33.587Z</time></trkpt><trkpt lat="43.4068361" lon="16.7841662"><ele>8.0</ele><time>2026-05-04T14:54:34.587Z</time></trkpt><trkpt lat="43.4067925" lon="16.7839668"><ele>8.0</ele><time>2026-05-04T14:54:35.587Z</time></trkpt><trkpt lat="43.406763" lon="16.7837696"><ele>9.25</ele><time>2026-05-04T14:54:36.588Z</time></trkpt><trkpt lat="43.4067414" lon="16.7835757"><ele>10.5</ele><time>2026-05-04T14:54:37.587Z</time></trkpt><trkpt lat="43.4067365" lon="16.7833811"><ele>11.75</ele><time>2026-05-04T14:54:38.587Z</time></trkpt><trkpt lat="43.4067436" lon="16.7831785"><ele>13.0</ele><time>2026-05-04T14:54:39.587Z</time></trkpt><trkpt lat="43.4067613" lon="16.7829719"><ele>13.333333333333332</ele><time>2026-05-04T14:54:40.587Z</time></trkpt><trkpt lat="43.4067836" lon="16.7827613"><ele>13.666666666666668</ele><time>2026-05-04T14:54:41.587Z</time></trkpt><trkpt lat="43.4068065" lon="16.7825484"><ele>14.0</ele><time>2026-05-04T14:54:42.588Z</time></trkpt><trkpt lat="43.4068314" lon="16.7823233"><ele>14.0</ele><time>2026-05-04T14:54:43.588Z</time></trkpt><trkpt lat="43.4068542" lon="16.7821029"><ele>14.0</ele><time>2026-05-04T14:54:44.588Z</time></trkpt><trkpt lat="43.4068783" lon="16.7818845"><ele>14.0</ele><time>2026-05-04T14:54:45.588Z</time></trkpt><trkpt lat="43.4069039" lon="16.7816717"><ele>14.0</ele><time>2026-05-04T14:54:46.587Z</time></trkpt><trkpt lat="43.4069275" lon="16.7814539"><ele>14.0</ele><time>2026-05-04T14:54:47.587Z</time></trkpt><trkpt lat="43.4069474" lon="16.7812415"><ele>14.0</ele><time>2026-05-04T14:54:48.588Z</time></trkpt><trkpt lat="43.4069586" lon="16.7810287"><ele>15.0</ele><time>2026-05-04T14:54:49.587Z</time></trkpt><trkpt lat="43.406961" lon="16.7808142"><ele>16.0</ele><time>2026-05-04T14:54:50.588Z</time></trkpt><trkpt lat="43.4069571" lon="16.7805897"><ele>17.0</ele><time>2026-05-04T14:54:51.588Z</time></trkpt><trkpt lat="43.4069375" lon="16.7803839"><ele>16.333333333333336</ele><time>2026-05-04T14:54:52.588Z</time></trkpt><trkpt lat="43.4069137" lon="16.7801709"><ele>15.666666666666668</ele><time>2026-05-04T14:54:53.588Z</time></trkpt><trkpt lat="43.4068909" lon="16.7799637"><ele>15.0</ele><time>2026-05-04T14:54:54.587Z</time></trkpt><trkpt lat="43.4068621" lon="16.7797537"><ele>15.0</ele><time>2026-05-04T14:54:55.587Z</time></trkpt><trkpt lat="43.4068361" lon="16.779552"><ele>15.0</ele><time>2026-05-04T14:54:56.587Z</time></trkpt><trkpt lat="43.4068181" lon="16.7793517"><ele>15.0</ele><time>2026-05-04T14:54:57.588Z</time></trkpt><trkpt lat="43.4068127" lon="16.7791565"><ele>15.0</ele><time>2026-05-04T14:54:58.588Z</time></trkpt><trkpt lat="43.4068192" lon="16.7789617"><ele>16.75</ele><time>2026-05-04T14:54:59.587Z</time></trkpt><trkpt lat="43.4068375" lon="16.7787733"><ele>18.5</ele><time>2026-05-04T14:55:00.588Z</time></trkpt><trkpt lat="43.4068664" lon="16.7785852"><ele>20.25</ele><time>2026-05-04T14:55:01.587Z</time></trkpt><trkpt lat="43.4069031" lon="16.7783965"><ele>22.0</ele><time>2026-05-04T14:55:02.588Z</time></trkpt><trkpt lat="43.40695" lon="16.7782003"><ele>26.666666666666664</ele><time>2026-05-04T14:55:03.587Z</time></trkpt><trkpt lat="43.4070035" lon="16.7780073"><ele>31.333333333333332</ele><time>2026-05-04T14:55:04.588Z</time></trkpt><trkpt lat="43.4070605" lon="16.7778141"><ele>36.0</ele><time>2026-05-04T14:55:05.587Z</time></trkpt><trkpt lat="43.4071173" lon="16.7776223"><ele>43.0</ele><time>2026-05-04T14:55:06.588Z</time></trkpt><trkpt lat="43.4071761" lon="16.7774217"><ele>50.0</ele><time>2026-05-04T14:55:07.587Z</time></trkpt><trkpt lat="43.4072326" lon="16.777219"><ele>57.0</ele><time>2026-05-04T14:55:08.588Z</time></trkpt><trkpt lat="43.4072878" lon="16.7770053"><ele>50.666666666666664</ele><time>2026-05-04T14:55:09.588Z</time></trkpt><trkpt lat="43.4073261" lon="16.7768062"><ele>44.33333333333333</ele><time>2026-05-04T14:55:10.588Z</time></trkpt><trkpt lat="43.4073761" lon="16.7765771"><ele>38.0</ele><time>2026-05-04T14:55:11.588Z</time></trkpt><trkpt lat="43.407419" lon="16.7763477"><ele>38.0</ele><time>2026-05-04T14:55:12.587Z</time></trkpt><trkpt lat="43.4074559" lon="16.7761135"><ele>38.0</ele><time>2026-05-04T14:55:13.587Z</time></trkpt><trkpt lat="43.407491" lon="16.7758782"><ele>38.0</ele><time>2026-05-04T14:55:14.587Z</time></trkpt><trkpt lat="43.4075241" lon="16.7756329"><ele>36.33333333333333</ele><time>2026-05-04T14:55:15.587Z</time></trkpt><trkpt lat="43.4075479" lon="16.775393"><ele>34.666666666666664</ele><time>2026-05-04T14:55:16.587Z</time></trkpt><trkpt lat="43.4075636" lon="16.7751523"><ele>33.0</ele><time>2026-05-04T14:55:17.587Z</time></trkpt><trkpt lat="43.4075721" lon="16.7749185"><ele>29.333333333333332</ele><time>2026-05-04T14:55:18.588Z</time></trkpt><trkpt lat="43.4075729" lon="16.7746752"><ele>25.666666666666664</ele><time>2026-05-04T14:55:19.587Z</time></trkpt><trkpt lat="43.4075691" lon="16.7744445"><ele>22.0</ele><time>2026-05-04T14:55:20.588Z</time></trkpt><trkpt lat="43.4075595" lon="16.7742198"><ele>20.333333333333332</ele><time>2026-05-04T14:55:21.588Z</time></trkpt><trkpt lat="43.4075486" lon="16.7739997"><ele>18.666666666666668</ele><time>2026-05-04T14:55:22.588Z</time></trkpt><trkpt lat="43.4075346" lon="16.7737773"><ele>17.0</ele><time>2026-05-04T14:55:23.588Z</time></trkpt><trkpt lat="43.4075191" lon="16.7735626"><ele>18.0</ele><time>2026-05-04T14:55:24.587Z</time></trkpt><trkpt lat="43.4075099" lon="16.7733498"><ele>19.0</ele><time>2026-05-04T14:55:25.587Z</time></trkpt><trkpt lat="43.4075141" lon="16.7731403"><ele>20.0</ele><time>2026-05-04T14:55:26.587Z</time></trkpt><trkpt lat="43.4075298" lon="16.7729364"><ele>20.0</ele><time>2026-05-04T14:55:27.588Z</time></trkpt><trkpt lat="43.4075746" lon="16.7727396"><ele>20.0</ele><time>2026-05-04T14:55:28.587Z</time></trkpt><trkpt lat="43.4076387" lon="16.7725591"><ele>20.0</ele><time>2026-05-04T14:55:29.587Z</time></trkpt><trkpt lat="43.4077189" lon="16.7723941"><ele>20.0</ele><time>2026-05-04T14:55:30.587Z</time></trkpt><trkpt lat="43.4078145" lon="16.7722347"><ele>20.0</ele><time>2026-05-04T14:55:31.587Z</time></trkpt><trkpt lat="43.4079167" lon="16.7720884"><ele>20.0</ele><time>2026-05-04T14:55:32.588Z</time></trkpt><trkpt lat="43.4080208" lon="16.771957"><ele>20.0</ele><time>2026-05-04T14:55:33.588Z</time></trkpt><trkpt lat="43.4081211" lon="16.7718387"><ele>20.0</ele><time>2026-05-04T14:55:34.588Z</time></trkpt><trkpt lat="43.4082176" lon="16.77172"><ele>20.0</ele><time>2026-05-04T14:55:35.588Z</time></trkpt><trkpt lat="43.4083057" lon="16.7715974"><ele>20.0</ele><time>2026-05-04T14:55:36.588Z</time></trkpt><trkpt lat="43.4083812" lon="16.771462"><ele>20.0</ele><time>2026-05-04T14:55:37.587Z</time></trkpt><trkpt lat="43.4084413" lon="16.7713137"><ele>20.0</ele><time>2026-05-04T14:55:38.587Z</time></trkpt><trkpt lat="43.4084843" lon="16.7711467"><ele>19.25</ele><time>2026-05-04T14:55:39.587Z</time></trkpt><trkpt lat="43.4085059" lon="16.7709727"><ele>18.5</ele><time>2026-05-04T14:55:40.588Z</time></trkpt><trkpt lat="43.4085066" lon="16.7707939"><ele>17.75</ele><time>2026-05-04T14:55:41.587Z</time></trkpt><trkpt lat="43.4084909" lon="16.7706116"><ele>17.0</ele><time>2026-05-04T14:55:42.587Z</time></trkpt><trkpt lat="43.4084643" lon="16.7704112"><ele>17.0</ele><time>2026-05-04T14:55:43.588Z</time></trkpt><trkpt lat="43.4084386" lon="16.7702043"><ele>17.0</ele><time>2026-05-04T14:55:44.587Z</time></trkpt><trkpt lat="43.4084146" lon="16.7699888"><ele>17.0</ele><time>2026-05-04T14:55:45.588Z</time></trkpt><trkpt lat="43.408393" lon="16.7697663"><ele>18.333333333333336</ele><time>2026-05-04T14:55:46.588Z</time></trkpt><trkpt lat="43.4083806" lon="16.7695402"><ele>19.666666666666668</ele><time>2026-05-04T14:55:47.587Z</time></trkpt><trkpt lat="43.4083845" lon="16.769322"><ele>21.0</ele><time>2026-05-04T14:55:48.588Z</time></trkpt><trkpt lat="43.4084017" lon="16.7691119"><ele>21.0</ele><time>2026-05-04T14:55:49.587Z</time></trkpt><trkpt lat="43.4084407" lon="16.7689146"><ele>21.0</ele><time>2026-05-04T14:55:50.587Z</time></trkpt><trkpt lat="43.4084877" lon="16.7687163"><ele>21.0</ele><time>2026-05-04T14:55:51.587Z</time></trkpt><trkpt lat="43.4085434" lon="16.7685207"><ele>18.0</ele><time>2026-05-04T14:55:52.587Z</time></trkpt><trkpt lat="43.4085977" lon="16.768326"><ele>15.0</ele><time>2026-05-04T14:55:53.588Z</time></trkpt><trkpt lat="43.4086513" lon="16.768129"><ele>12.0</ele><time>2026-05-04T14:55:54.588Z</time></trkpt><trkpt lat="43.4087028" lon="16.7679253"><ele>12.0</ele><time>2026-05-04T14:55:55.588Z</time></trkpt><trkpt lat="43.4087479" lon="16.7677194"><ele>12.0</ele><time>2026-05-04T14:55:56.587Z</time></trkpt><trkpt lat="43.4087795" lon="16.7675133"><ele>12.0</ele><time>2026-05-04T14:55:57.588Z</time></trkpt><trkpt lat="43.4088005" lon="16.7673067"><ele>10.333333333333334</ele><time>2026-05-04T14:55:58.587Z</time></trkpt><trkpt lat="43.4088178" lon="16.7670855"><ele>8.666666666666668</ele><time>2026-05-04T14:55:59.587Z</time></trkpt><trkpt lat="43.40883" lon="16.766864"><ele>7.0</ele><time>2026-05-04T14:56:00.587Z</time></trkpt><trkpt lat="43.408842" lon="16.7666432"><ele>15.333333333333332</ele><time>2026-05-04T14:56:01.587Z</time></trkpt><trkpt lat="43.4088539" lon="16.7664209"><ele>23.666666666666664</ele><time>2026-05-04T14:56:02.588Z</time></trkpt><trkpt lat="43.4088698" lon="16.7661953"><ele>32.0</ele><time>2026-05-04T14:56:03.587Z</time></trkpt><trkpt lat="43.4088974" lon="16.7659789"><ele>32.0</ele><time>2026-05-04T14:56:04.587Z</time></trkpt><trkpt lat="43.4089356" lon="16.7657693"><ele>32.0</ele><time>2026-05-04T14:56:05.588Z</time></trkpt><trkpt lat="43.4089869" lon="16.7655647"><ele>32.0</ele><time>2026-05-04T14:56:06.588Z</time></trkpt><trkpt lat="43.409042" lon="16.7653661"><ele>29.0</ele><time>2026-05-04T14:56:07.588Z</time></trkpt><trkpt lat="43.4091064" lon="16.7651723"><ele>26.0</ele><time>2026-05-04T14:56:08.588Z</time></trkpt><trkpt lat="43.4091726" lon="16.7649896"><ele>23.0</ele><time>2026-05-04T14:56:09.588Z</time></trkpt><trkpt lat="43.4092317" lon="16.764808"><ele>20.0</ele><time>2026-05-04T14:56:10.588Z</time></trkpt><trkpt lat="43.4092919" lon="16.7646159"><ele>20.0</ele><time>2026-05-04T14:56:11.588Z</time></trkpt><trkpt lat="43.4093428" lon="16.7644209"><ele>20.0</ele><time>2026-05-04T14:56:12.588Z</time></trkpt><trkpt lat="43.4093773" lon="16.7642189"><ele>20.0</ele><time>2026-05-04T14:56:13.587Z</time></trkpt><trkpt lat="43.409394" lon="16.764016"><ele>19.333333333333336</ele><time>2026-05-04T14:56:14.588Z</time></trkpt><trkpt lat="43.409393" lon="16.7638063"><ele>18.666666666666668</ele><time>2026-05-04T14:56:15.588Z</time></trkpt><trkpt lat="43.4093771" lon="16.7635972"><ele>18.0</ele><time>2026-05-04T14:56:16.587Z</time></trkpt><trkpt lat="43.4093538" lon="16.7633963"><ele>18.0</ele><time>2026-05-04T14:56:17.587Z</time></trkpt><trkpt lat="43.4093215" lon="16.7631974"><ele>18.0</ele><time>2026-05-04T14:56:18.587Z</time></trkpt><trkpt lat="43.4092826" lon="16.7629945"><ele>18.0</ele><time>2026-05-04T14:56:19.588Z</time></trkpt><trkpt lat="43.4092418" lon="16.7627917"><ele>19.666666666666668</ele><time>2026-05-04T14:56:20.587Z</time></trkpt><trkpt lat="43.409216" lon="16.7625937"><ele>21.333333333333336</ele><time>2026-05-04T14:56:21.587Z</time></trkpt><trkpt lat="43.4091908" lon="16.7623896"><ele>23.0</ele><time>2026-05-04T14:56:22.588Z</time></trkpt><trkpt lat="43.4091747" lon="16.7621708"><ele>23.0</ele><time>2026-05-04T14:56:23.588Z</time></trkpt><trkpt lat="43.4091696" lon="16.7619468"><ele>23.0</ele><time>2026-05-04T14:56:24.587Z</time></trkpt><trkpt lat="43.4091749" lon="16.7617266"><ele>23.0</ele><time>2026-05-04T14:56:25.588Z</time></trkpt><trkpt lat="43.4091825" lon="16.7615069"><ele>23.333333333333336</ele><time>2026-05-04T14:56:26.588Z</time></trkpt><trkpt lat="43.4091907" lon="16.7612821"><ele>23.666666666666668</ele><time>2026-05-04T14:56:27.588Z</time></trkpt><trkpt lat="43.4092011" lon="16.7610591"><ele>24.0</ele><time>2026-05-04T14:56:28.587Z</time></trkpt><trkpt lat="43.4092085" lon="16.760844"><ele>22.666666666666668</ele><time>2026-05-04T14:56:29.588Z</time></trkpt><trkpt lat="43.4092136" lon="16.7606316"><ele>21.333333333333336</ele><time>2026-05-04T14:56:30.587Z</time></trkpt><trkpt lat="43.4092157" lon="16.7604131"><ele>20.0</ele><time>2026-05-04T14:56:31.587Z</time></trkpt><trkpt lat="43.4092112" lon="16.7601951"><ele>20.0</ele><time>2026-05-04T14:56:32.587Z</time></trkpt><trkpt lat="43.4091985" lon="16.7599877"><ele>20.0</ele><time>2026-05-04T14:56:33.588Z</time></trkpt><trkpt lat="43.409177" lon="16.7597845"><ele>20.0</ele><time>2026-05-04T14:56:34.587Z</time></trkpt><trkpt lat="43.4091533" lon="16.7595747"><ele>20.0</ele><time>2026-05-04T14:56:35.588Z</time></trkpt><trkpt lat="43.4091222" lon="16.7593717"><ele>20.0</ele><time>2026-05-04T14:56:36.587Z</time></trkpt><trkpt lat="43.4090885" lon="16.7591731"><ele>20.0</ele><time>2026-05-04T14:56:37.588Z</time></trkpt><trkpt lat="43.409048" lon="16.7589752"><ele>20.0</ele><time>2026-05-04T14:56:38.587Z</time></trkpt><trkpt lat="43.4089999" lon="16.7587713"><ele>22.333333333333336</ele><time>2026-05-04T14:56:39.587Z</time></trkpt><trkpt lat="43.4089507" lon="16.7585712"><ele>24.666666666666668</ele><time>2026-05-04T14:56:40.588Z</time></trkpt><trkpt lat="43.4088965" lon="16.758374"><ele>27.0</ele><time>2026-05-04T14:56:41.588Z</time></trkpt><trkpt lat="43.4088399" lon="16.7581803"><ele>22.333333333333332</ele><time>2026-05-04T14:56:42.587Z</time></trkpt><trkpt lat="43.4087782" lon="16.7579809"><ele>17.666666666666664</ele><time>2026-05-04T14:56:43.588Z</time></trkpt><trkpt lat="43.4087194" lon="16.7577778"><ele>13.0</ele><time>2026-05-04T14:56:44.588Z</time></trkpt><trkpt lat="43.4086608" lon="16.7575822"><ele>13.0</ele><time>2026-05-04T14:56:45.588Z</time></trkpt><trkpt lat="43.4086046" lon="16.7573888"><ele>13.0</ele><time>2026-05-04T14:56:46.587Z</time></trkpt><trkpt lat="43.4085479" lon="16.7571865"><ele>13.0</ele><time>2026-05-04T14:56:47.587Z</time></trkpt><trkpt lat="43.4084945" lon="16.7569885"><ele>14.25</ele><time>2026-05-04T14:56:48.587Z</time></trkpt><trkpt lat="43.4084462" lon="16.7567918"><ele>15.5</ele><time>2026-05-04T14:56:49.587Z</time></trkpt><trkpt lat="43.4084016" lon="16.7565986"><ele>16.75</ele><time>2026-05-04T14:56:50.587Z</time></trkpt><trkpt lat="43.4083635" lon="16.7563972"><ele>18.0</ele><time>2026-05-04T14:56:51.587Z</time></trkpt><trkpt lat="43.4083271" lon="16.7561981"><ele>20.333333333333336</ele><time>2026-05-04T14:56:52.588Z</time></trkpt><trkpt lat="43.4082971" lon="16.7559982"><ele>22.666666666666668</ele><time>2026-05-04T14:56:53.587Z</time></trkpt><trkpt lat="43.4082632" lon="16.7557978"><ele>25.0</ele><time>2026-05-04T14:56:54.588Z</time></trkpt><trkpt lat="43.4082313" lon="16.7555858"><ele>25.0</ele><time>2026-05-04T14:56:55.587Z</time></trkpt><trkpt lat="43.4082094" lon="16.7553616"><ele>25.0</ele><time>2026-05-04T14:56:56.588Z</time></trkpt><trkpt lat="43.4081922" lon="16.755152"><ele>25.0</ele><time>2026-05-04T14:56:57.587Z</time></trkpt><trkpt lat="43.4081814" lon="16.7549482"><ele>26.25</ele><time>2026-05-04T14:56:58.588Z</time></trkpt><trkpt lat="43.4081721" lon="16.7547423"><ele>27.5</ele><time>2026-05-04T14:56:59.587Z</time></trkpt><trkpt lat="43.4081668" lon="16.7545364"><ele>28.75</ele><time>2026-05-04T14:57:00.587Z</time></trkpt><trkpt lat="43.4081666" lon="16.754342"><ele>30.0</ele><time>2026-05-04T14:57:01.588Z</time></trkpt><trkpt lat="43.4081681" lon="16.75415"><ele>30.0</ele><time>2026-05-04T14:57:02.588Z</time></trkpt><trkpt lat="43.4081686" lon="16.7539638"><ele>30.0</ele><time>2026-05-04T14:57:03.587Z</time></trkpt><trkpt lat="43.4081757" lon="16.7537771"><ele>30.0</ele><time>2026-05-04T14:57:04.588Z</time></trkpt><trkpt lat="43.4081868" lon="16.7535946"><ele>30.0</ele><time>2026-05-04T14:57:05.588Z</time></trkpt><trkpt lat="43.408201" lon="16.7534117"><ele>30.25</ele><time>2026-05-04T14:57:06.587Z</time></trkpt><trkpt lat="43.4082195" lon="16.753218"><ele>30.5</ele><time>2026-05-04T14:57:07.587Z</time></trkpt><trkpt lat="43.4082397" lon="16.7530252"><ele>30.75</ele><time>2026-05-04T14:57:08.588Z</time></trkpt><trkpt lat="43.4082606" lon="16.7528412"><ele>31.0</ele><time>2026-05-04T14:57:09.587Z</time></trkpt><trkpt lat="43.4082825" lon="16.7526572"><ele>30.25</ele><time>2026-05-04T14:57:10.587Z</time></trkpt><trkpt lat="43.4083121" lon="16.7524672"><ele>29.5</ele><time>2026-05-04T14:57:11.587Z</time></trkpt><trkpt lat="43.4083477" lon="16.7522816"><ele>28.75</ele><time>2026-05-04T14:57:12.588Z</time></trkpt><trkpt lat="43.4083819" lon="16.7521063"><ele>28.0</ele><time>2026-05-04T14:57:13.587Z</time></trkpt><trkpt lat="43.4084181" lon="16.7519313"><ele>26.5</ele><time>2026-05-04T14:57:14.588Z</time></trkpt><trkpt lat="43.4084593" lon="16.7517521"><ele>25.0</ele><time>2026-05-04T14:57:15.588Z</time></trkpt><trkpt lat="43.4085065" lon="16.7515793"><ele>23.5</ele><time>2026-05-04T14:57:16.588Z</time></trkpt><trkpt lat="43.40855" lon="16.7514147"><ele>22.0</ele><time>2026-05-04T14:57:17.588Z</time></trkpt><trkpt lat="43.4085955" lon="16.751252"><ele>22.0</ele><time>2026-05-04T14:57:18.588Z</time></trkpt><trkpt lat="43.4086439" lon="16.7510878"><ele>22.0</ele><time>2026-05-04T14:57:19.587Z</time></trkpt><trkpt lat="43.4086905" lon="16.7509246"><ele>22.0</ele><time>2026-05-04T14:57:20.587Z</time></trkpt><trkpt lat="43.4087392" lon="16.7507714"><ele>22.0</ele><time>2026-05-04T14:57:21.587Z</time></trkpt><trkpt lat="43.4087867" lon="16.7506196"><ele>26.25</ele><time>2026-05-04T14:57:22.587Z</time></trkpt><trkpt lat="43.4088358" lon="16.7504596"><ele>30.5</ele><time>2026-05-04T14:57:23.587Z</time></trkpt><trkpt lat="43.4088858" lon="16.7503004"><ele>34.75</ele><time>2026-05-04T14:57:24.588Z</time></trkpt><trkpt lat="43.4089332" lon="16.7501441"><ele>39.0</ele><time>2026-05-04T14:57:25.588Z</time></trkpt><trkpt lat="43.4089814" lon="16.7499898"><ele>39.0</ele><time>2026-05-04T14:57:26.588Z</time></trkpt><trkpt lat="43.4090249" lon="16.7498276"><ele>39.0</ele><time>2026-05-04T14:57:27.587Z</time></trkpt><trkpt lat="43.4090716" lon="16.7496658"><ele>39.0</ele><time>2026-05-04T14:57:28.588Z</time></trkpt><trkpt lat="43.4091194" lon="16.7495048"><ele>39.0</ele><time>2026-05-04T14:57:29.588Z</time></trkpt><trkpt lat="43.4091668" lon="16.7493466"><ele>38.25</ele><time>2026-05-04T14:57:30.588Z</time></trkpt><trkpt lat="43.4092161" lon="16.7491828"><ele>37.5</ele><time>2026-05-04T14:57:31.587Z</time></trkpt><trkpt lat="43.4092648" lon="16.7490177"><ele>36.75</ele><time>2026-05-04T14:57:32.587Z</time></trkpt><trkpt lat="43.4093118" lon="16.7488576"><ele>36.0</ele><time>2026-05-04T14:57:33.587Z</time></trkpt><trkpt lat="43.4093609" lon="16.7486964"><ele>34.25</ele><time>2026-05-04T14:57:34.588Z</time></trkpt><trkpt lat="43.4094122" lon="16.7485307"><ele>32.5</ele><time>2026-05-04T14:57:35.588Z</time></trkpt><trkpt lat="43.409462" lon="16.748368"><ele>30.75</ele><time>2026-05-04T14:57:36.587Z</time></trkpt><trkpt lat="43.4095121" lon="16.7482045"><ele>29.0</ele><time>2026-05-04T14:57:37.588Z</time></trkpt><trkpt lat="43.4095644" lon="16.7480385"><ele>29.0</ele><time>2026-05-04T14:57:38.587Z</time></trkpt><trkpt lat="43.4096183" lon="16.7478562"><ele>29.0</ele><time>2026-05-04T14:57:39.588Z</time></trkpt><trkpt lat="43.4096751" lon="16.7476637"><ele>29.0</ele><time>2026-05-04T14:57:40.587Z</time></trkpt><trkpt lat="43.4097386" lon="16.747468"><ele>33.666666666666664</ele><time>2026-05-04T14:57:41.588Z</time></trkpt><trkpt lat="43.4098035" lon="16.7472512"><ele>38.333333333333336</ele><time>2026-05-04T14:57:42.587Z</time></trkpt><trkpt lat="43.4098707" lon="16.7470144"><ele>43.0</ele><time>2026-05-04T14:57:43.587Z</time></trkpt><trkpt lat="43.4099295" lon="16.7467833"><ele>43.0</ele><time>2026-05-04T14:57:44.587Z</time></trkpt><trkpt lat="43.4099832" lon="16.7465499"><ele>43.0</ele><time>2026-05-04T14:57:45.588Z</time></trkpt><trkpt lat="43.4100274" lon="16.7463135"><ele>43.0</ele><time>2026-05-04T14:57:46.588Z</time></trkpt><trkpt lat="43.4100682" lon="16.7460561"><ele>42.333333333333336</ele><time>2026-05-04T14:57:47.587Z</time></trkpt><trkpt lat="43.4101051" lon="16.7457916"><ele>41.666666666666664</ele><time>2026-05-04T14:57:48.587Z</time></trkpt><trkpt lat="43.410139" lon="16.7455121"><ele>41.0</ele><time>2026-05-04T14:57:49.588Z</time></trkpt><trkpt lat="43.4101648" lon="16.7452378"><ele>40.0</ele><time>2026-05-04T14:57:50.587Z</time></trkpt><trkpt lat="43.4101863" lon="16.7449645"><ele>39.0</ele><time>2026-05-04T14:57:51.587Z</time></trkpt><trkpt lat="43.4102122" lon="16.7447053"><ele>38.0</ele><time>2026-05-04T14:57:52.587Z</time></trkpt><trkpt lat="43.410254" lon="16.7444575"><ele>36.0</ele><time>2026-05-04T14:57:53.587Z</time></trkpt><trkpt lat="43.4103101" lon="16.7442252"><ele>34.0</ele><time>2026-05-04T14:57:54.587Z</time></trkpt><trkpt lat="43.4103913" lon="16.7439999"><ele>32.0</ele><time>2026-05-04T14:57:55.587Z</time></trkpt><trkpt lat="43.4104892" lon="16.7437973"><ele>34.33333333333333</ele><time>2026-05-04T14:57:56.587Z</time></trkpt><trkpt lat="43.4106081" lon="16.7436147"><ele>36.666666666666664</ele><time>2026-05-04T14:57:57.587Z</time></trkpt><trkpt lat="43.4107403" lon="16.7434398"><ele>39.0</ele><time>2026-05-04T14:57:58.587Z</time></trkpt><trkpt lat="43.4108808" lon="16.7432677"><ele>39.0</ele><time>2026-05-04T14:57:59.588Z</time></trkpt><trkpt lat="43.4110179" lon="16.7430969"><ele>39.0</ele><time>2026-05-04T14:58:00.588Z</time></trkpt><trkpt lat="43.4111511" lon="16.7429235"><ele>39.0</ele><time>2026-05-04T14:58:01.588Z</time></trkpt><trkpt lat="43.4112734" lon="16.7427471"><ele>42.66666666666667</ele><time>2026-05-04T14:58:02.588Z</time></trkpt><trkpt lat="43.4113929" lon="16.7425624"><ele>46.333333333333336</ele><time>2026-05-04T14:58:03.588Z</time></trkpt><trkpt lat="43.411504" lon="16.7423731"><ele>50.0</ele><time>2026-05-04T14:58:04.588Z</time></trkpt><trkpt lat="43.4115994" lon="16.7421775"><ele>50.0</ele><time>2026-05-04T14:58:05.587Z</time></trkpt><trkpt lat="43.4116818" lon="16.7419764"><ele>50.0</ele><time>2026-05-04T14:58:06.587Z</time></trkpt><trkpt lat="43.4117533" lon="16.7417589"><ele>50.0</ele><time>2026-05-04T14:58:07.588Z</time></trkpt><trkpt lat="43.4118117" lon="16.7415422"><ele>47.0</ele><time>2026-05-04T14:58:08.588Z</time></trkpt><trkpt lat="43.4118592" lon="16.7413229"><ele>44.0</ele><time>2026-05-04T14:58:09.588Z</time></trkpt><trkpt lat="43.4118919" lon="16.7410993"><ele>41.0</ele><time>2026-05-04T14:58:10.588Z</time></trkpt><trkpt lat="43.4119247" lon="16.7408691"><ele>38.33333333333333</ele><time>2026-05-04T14:58:11.588Z</time></trkpt><trkpt lat="43.4119532" lon="16.7406445"><ele>35.666666666666664</ele><time>2026-05-04T14:58:12.588Z</time></trkpt><trkpt lat="43.4119776" lon="16.7404334"><ele>33.0</ele><time>2026-05-04T14:58:13.588Z</time></trkpt><trkpt lat="43.4120041" lon="16.740227"><ele>32.0</ele><time>2026-05-04T14:58:14.588Z</time></trkpt><trkpt lat="43.4120335" lon="16.7400166"><ele>31.0</ele><time>2026-05-04T14:58:15.588Z</time></trkpt><trkpt lat="43.4120657" lon="16.7398131"><ele>30.0</ele><time>2026-05-04T14:58:16.587Z</time></trkpt><trkpt lat="43.4121006" lon="16.7396142"><ele>30.0</ele><time>2026-05-04T14:58:17.587Z</time></trkpt><trkpt lat="43.4121454" lon="16.7394198"><ele>30.0</ele><time>2026-05-04T14:58:18.587Z</time></trkpt><trkpt lat="43.4122052" lon="16.7392182"><ele>30.0</ele><time>2026-05-04T14:58:19.588Z</time></trkpt><trkpt lat="43.4122756" lon="16.739023"><ele>34.333333333333336</ele><time>2026-05-04T14:58:20.587Z</time></trkpt><trkpt lat="43.4123572" lon="16.7388328"><ele>38.66666666666667</ele><time>2026-05-04T14:58:21.588Z</time></trkpt><trkpt lat="43.4124453" lon="16.7386515"><ele>43.0</ele><time>2026-05-04T14:58:22.588Z</time></trkpt><trkpt lat="43.4125412" lon="16.7384658"><ele>43.0</ele><time>2026-05-04T14:58:23.588Z</time></trkpt><trkpt lat="43.4126328" lon="16.7382807"><ele>43.0</ele><time>2026-05-04T14:58:24.588Z</time></trkpt><trkpt lat="43.4127203" lon="16.738091"><ele>43.0</ele><time>2026-05-04T14:58:25.588Z</time></trkpt><trkpt lat="43.4127924" lon="16.737904"><ele>40.5</ele><time>2026-05-04T14:58:26.587Z</time></trkpt><trkpt lat="43.4128512" lon="16.7377097"><ele>38.0</ele><time>2026-05-04T14:58:27.588Z</time></trkpt><trkpt lat="43.4128952" lon="16.7375121"><ele>35.5</ele><time>2026-05-04T14:58:28.587Z</time></trkpt><trkpt lat="43.4129239" lon="16.7373199"><ele>33.0</ele><time>2026-05-04T14:58:29.587Z</time></trkpt><trkpt lat="43.4129385" lon="16.737129"><ele>33.0</ele><time>2026-05-04T14:58:30.587Z</time></trkpt><trkpt lat="43.4129449" lon="16.7369331"><ele>33.0</ele><time>2026-05-04T14:58:31.588Z</time></trkpt><trkpt lat="43.4129485" lon="16.7367374"><ele>33.0</ele><time>2026-05-04T14:58:32.587Z</time></trkpt><trkpt lat="43.412951" lon="16.7365448"><ele>33.0</ele><time>2026-05-04T14:58:33.587Z</time></trkpt><trkpt lat="43.4129501" lon="16.736356"><ele>32.25</ele><time>2026-05-04T14:58:34.588Z</time></trkpt><trkpt lat="43.4129497" lon="16.7361571"><ele>31.5</ele><time>2026-05-04T14:58:35.588Z</time></trkpt><trkpt lat="43.4129491" lon="16.7359603"><ele>30.75</ele><time>2026-05-04T14:58:36.587Z</time></trkpt><trkpt lat="43.4129469" lon="16.7357584"><ele>30.0</ele><time>2026-05-04T14:58:37.588Z</time></trkpt><trkpt lat="43.4129502" lon="16.7355602"><ele>29.0</ele><time>2026-05-04T14:58:38.587Z</time></trkpt><trkpt lat="43.4129616" lon="16.7353576"><ele>28.0</ele><time>2026-05-04T14:58:39.587Z</time></trkpt><trkpt lat="43.412988" lon="16.735159"><ele>27.0</ele><time>2026-05-04T14:58:40.588Z</time></trkpt><trkpt lat="43.4130273" lon="16.7349643"><ele>26.0</ele><time>2026-05-04T14:58:41.588Z</time></trkpt><trkpt lat="43.4130769" lon="16.7347821"><ele>31.75</ele><time>2026-05-04T14:58:42.588Z</time></trkpt><trkpt lat="43.4131381" lon="16.7346004"><ele>37.5</ele><time>2026-05-04T14:58:43.588Z</time></trkpt><trkpt lat="43.4132076" lon="16.7344276"><ele>43.25</ele><time>2026-05-04T14:58:44.587Z</time></trkpt><trkpt lat="43.4132862" lon="16.7342579"><ele>49.0</ele><time>2026-05-04T14:58:45.588Z</time></trkpt><trkpt lat="43.4133622" lon="16.7340946"><ele>49.0</ele><time>2026-05-04T14:58:46.588Z</time></trkpt><trkpt lat="43.4134415" lon="16.7339253"><ele>49.0</ele><time>2026-05-04T14:58:47.588Z</time></trkpt><trkpt lat="43.4135122" lon="16.7337541"><ele>49.0</ele><time>2026-05-04T14:58:48.588Z</time></trkpt><trkpt lat="43.413567" lon="16.7335685"><ele>49.0</ele><time>2026-05-04T14:58:49.587Z</time></trkpt><trkpt lat="43.413606" lon="16.7333765"><ele>46.5</ele><time>2026-05-04T14:58:50.588Z</time></trkpt><trkpt lat="43.4136306" lon="16.7331728"><ele>44.0</ele><time>2026-05-04T14:58:51.587Z</time></trkpt><trkpt lat="43.4136387" lon="16.7329734"><ele>41.5</ele><time>2026-05-04T14:58:52.587Z</time></trkpt><trkpt lat="43.4136366" lon="16.7327719"><ele>39.0</ele><time>2026-05-04T14:58:53.588Z</time></trkpt><trkpt lat="43.4136223" lon="16.7325787"><ele>38.0</ele><time>2026-05-04T14:58:54.588Z</time></trkpt><trkpt lat="43.4136058" lon="16.732381"><ele>37.0</ele><time>2026-05-04T14:58:55.588Z</time></trkpt><trkpt lat="43.4135903" lon="16.7321854"><ele>36.0</ele><time>2026-05-04T14:58:56.588Z</time></trkpt><trkpt lat="43.4135694" lon="16.7319995"><ele>35.0</ele><time>2026-05-04T14:58:57.588Z</time></trkpt><trkpt lat="43.4135475" lon="16.7318157"><ele>35.0</ele><time>2026-05-04T14:58:58.587Z</time></trkpt><trkpt lat="43.4135287" lon="16.7316259"><ele>35.0</ele><time>2026-05-04T14:58:59.587Z</time></trkpt><trkpt lat="43.4135183" lon="16.7314332"><ele>35.0</ele><time>2026-05-04T14:59:00.588Z</time></trkpt><trkpt lat="43.4135139" lon="16.7312451"><ele>35.0</ele><time>2026-05-04T14:59:01.588Z</time></trkpt><trkpt lat="43.413522" lon="16.7310531"><ele>35.5</ele><time>2026-05-04T14:59:02.588Z</time></trkpt><trkpt lat="43.4135438" lon="16.730865"><ele>36.0</ele><time>2026-05-04T14:59:03.588Z</time></trkpt><trkpt lat="43.4135796" lon="16.7306739"><ele>36.5</ele><time>2026-05-04T14:59:04.587Z</time></trkpt><trkpt lat="43.4136194" lon="16.730495"><ele>37.0</ele><time>2026-05-04T14:59:05.587Z</time></trkpt><trkpt lat="43.4136684" lon="16.7303096"><ele>35.0</ele><time>2026-05-04T14:59:06.588Z</time></trkpt><trkpt lat="43.4137193" lon="16.7301263"><ele>33.0</ele><time>2026-05-04T14:59:07.588Z</time></trkpt><trkpt lat="43.4137714" lon="16.7299471"><ele>31.0</ele><time>2026-05-04T14:59:08.587Z</time></trkpt><trkpt lat="43.4138215" lon="16.7297795"><ele>29.0</ele><time>2026-05-04T14:59:09.587Z</time></trkpt><trkpt lat="43.4138706" lon="16.7296249"><ele>33.2</ele><time>2026-05-04T14:59:10.588Z</time></trkpt><trkpt lat="43.4139151" lon="16.7294813"><ele>37.4</ele><time>2026-05-04T14:59:11.587Z</time></trkpt><trkpt lat="43.4139576" lon="16.7293409"><ele>41.6</ele><time>2026-05-04T14:59:12.588Z</time></trkpt><trkpt lat="43.4139981" lon="16.7292042"><ele>45.8</ele><time>2026-05-04T14:59:13.588Z</time></trkpt><trkpt lat="43.4140381" lon="16.7290703"><ele>50.0</ele><time>2026-05-04T14:59:14.588Z</time></trkpt><trkpt lat="43.4140797" lon="16.7289292"><ele>50.0</ele><time>2026-05-04T14:59:15.588Z</time></trkpt><trkpt lat="43.4141213" lon="16.7287874"><ele>50.0</ele><time>2026-05-04T14:59:16.587Z</time></trkpt><trkpt lat="43.414163" lon="16.7286433"><ele>50.0</ele><time>2026-05-04T14:59:17.587Z</time></trkpt><trkpt lat="43.4142045" lon="16.7285002"><ele>50.0</ele><time>2026-05-04T14:59:18.588Z</time></trkpt><trkpt lat="43.414245" lon="16.7283491"><ele>48.0</ele><time>2026-05-04T14:59:19.587Z</time></trkpt><trkpt lat="43.4142805" lon="16.7281919"><ele>46.0</ele><time>2026-05-04T14:59:20.588Z</time></trkpt><trkpt lat="43.4143098" lon="16.7280288"><ele>44.0</ele><time>2026-05-04T14:59:21.588Z</time></trkpt><trkpt lat="43.4143301" lon="16.7278611"><ele>42.0</ele><time>2026-05-04T14:59:22.587Z</time></trkpt><trkpt lat="43.4143403" lon="16.7276879"><ele>41.5</ele><time>2026-05-04T14:59:23.587Z</time></trkpt><trkpt lat="43.4143396" lon="16.7275166"><ele>41.0</ele><time>2026-05-04T14:59:24.588Z</time></trkpt><trkpt lat="43.4143338" lon="16.7273388"><ele>40.5</ele><time>2026-05-04T14:59:25.587Z</time></trkpt><trkpt lat="43.4143245" lon="16.7271584"><ele>40.0</ele><time>2026-05-04T14:59:26.587Z</time></trkpt><trkpt lat="43.4143136" lon="16.7269734"><ele>39.75</ele><time>2026-05-04T14:59:27.587Z</time></trkpt><trkpt lat="43.4143064" lon="16.726792"><ele>39.5</ele><time>2026-05-04T14:59:28.587Z</time></trkpt><trkpt lat="43.4143047" lon="16.7266147"><ele>39.25</ele><time>2026-05-04T14:59:29.587Z</time></trkpt><trkpt lat="43.4143088" lon="16.7264435"><ele>39.0</ele><time>2026-05-04T14:59:30.588Z</time></trkpt><trkpt lat="43.4143284" lon="16.7262673"><ele>39.0</ele><time>2026-05-04T14:59:31.588Z</time></trkpt><trkpt lat="43.414362" lon="16.726096"><ele>39.0</ele><time>2026-05-04T14:59:32.587Z</time></trkpt><trkpt lat="43.4144147" lon="16.7259283"><ele>39.0</ele><time>2026-05-04T14:59:33.588Z</time></trkpt><trkpt lat="43.4144794" lon="16.7257636"><ele>39.0</ele><time>2026-05-04T14:59:34.587Z</time></trkpt><trkpt lat="43.4145647" lon="16.7255982"><ele>37.0</ele><time>2026-05-04T14:59:35.587Z</time></trkpt><trkpt lat="43.4146666" lon="16.7254446"><ele>35.0</ele><time>2026-05-04T14:59:36.588Z</time></trkpt><trkpt lat="43.4147788" lon="16.7253143"><ele>33.0</ele><time>2026-05-04T14:59:37.587Z</time></trkpt><trkpt lat="43.4149074" lon="16.7251994"><ele>33.0</ele><time>2026-05-04T14:59:38.588Z</time></trkpt><trkpt lat="43.4150475" lon="16.7250958"><ele>33.0</ele><time>2026-05-04T14:59:39.587Z</time></trkpt><trkpt lat="43.415192" lon="16.7249998"><ele>33.0</ele><time>2026-05-04T14:59:40.588Z</time></trkpt><trkpt lat="43.4153404" lon="16.724906"><ele>33.0</ele><time>2026-05-04T14:59:41.587Z</time></trkpt><trkpt lat="43.4154856" lon="16.7248148"><ele>33.0</ele><time>2026-05-04T14:59:42.588Z</time></trkpt><trkpt lat="43.4156302" lon="16.7247248"><ele>33.0</ele><time>2026-05-04T14:59:43.587Z</time></trkpt><trkpt lat="43.4157756" lon="16.7246326"><ele>30.333333333333336</ele><time>2026-05-04T14:59:44.588Z</time></trkpt><trkpt lat="43.4159123" lon="16.7245513"><ele>27.666666666666668</ele><time>2026-05-04T14:59:45.588Z</time></trkpt><trkpt lat="43.4160513" lon="16.7244661"><ele>25.0</ele><time>2026-05-04T14:59:46.587Z</time></trkpt><trkpt lat="43.4161905" lon="16.724376"><ele>31.666666666666668</ele><time>2026-05-04T14:59:47.587Z</time></trkpt><trkpt lat="43.416325" lon="16.7242806"><ele>38.333333333333336</ele><time>2026-05-04T14:59:48.587Z</time></trkpt><trkpt lat="43.416458" lon="16.7241719"><ele>45.0</ele><time>2026-05-04T14:59:49.587Z</time></trkpt><trkpt lat="43.4165826" lon="16.7240508"><ele>45.0</ele><time>2026-05-04T14:59:50.588Z</time></trkpt><trkpt lat="43.416701" lon="16.7239044"><ele>45.0</ele><time>2026-05-04T14:59:51.588Z</time></trkpt><trkpt lat="43.4168016" lon="16.7237401"><ele>45.0</ele><time>2026-05-04T14:59:52.587Z</time></trkpt><trkpt lat="43.4168837" lon="16.7235637"><ele>40.333333333333336</ele><time>2026-05-04T14:59:53.588Z</time></trkpt><trkpt lat="43.4169457" lon="16.7233742"><ele>35.66666666666667</ele><time>2026-05-04T14:59:54.588Z</time></trkpt><trkpt lat="43.4169893" lon="16.723164"><ele>31.0</ele><time>2026-05-04T14:59:55.587Z</time></trkpt><trkpt lat="43.4170109" lon="16.7229427"><ele>31.333333333333336</ele><time>2026-05-04T14:59:56.588Z</time></trkpt><trkpt lat="43.4170122" lon="16.7227195"><ele>31.666666666666664</ele><time>2026-05-04T14:59:57.587Z</time></trkpt><trkpt lat="43.416997" lon="16.7225042"><ele>32.0</ele><time>2026-05-04T14:59:58.587Z</time></trkpt><trkpt lat="43.4169726" lon="16.7222838"><ele>32.0</ele><time>2026-05-04T14:59:59.588Z</time></trkpt><trkpt lat="43.4169411" lon="16.7220642"><ele>32.0</ele><time>2026-05-04T15:00:00.587Z</time></trkpt><trkpt lat="43.4169122" lon="16.7218479"><ele>32.0</ele><time>2026-05-04T15:00:01.587Z</time></trkpt><trkpt lat="43.4168829" lon="16.7216316"><ele>32.666666666666664</ele><time>2026-05-04T15:00:02.587Z</time></trkpt><trkpt lat="43.4168586" lon="16.7214157"><ele>33.333333333333336</ele><time>2026-05-04T15:00:03.588Z</time></trkpt><trkpt lat="43.4168363" lon="16.7211996"><ele>34.0</ele><time>2026-05-04T15:00:04.587Z</time></trkpt><trkpt lat="43.4168178" lon="16.7209904"><ele>34.333333333333336</ele><time>2026-05-04T15:00:05.587Z</time></trkpt><trkpt lat="43.4168129" lon="16.7207735"><ele>34.666666666666664</ele><time>2026-05-04T15:00:06.588Z</time></trkpt><trkpt lat="43.4168173" lon="16.7205546"><ele>35.0</ele><time>2026-05-04T15:00:07.588Z</time></trkpt><trkpt lat="43.4168332" lon="16.7203299"><ele>35.33333333333333</ele><time>2026-05-04T15:00:08.588Z</time></trkpt><trkpt lat="43.4168652" lon="16.7201105"><ele>35.666666666666664</ele><time>2026-05-04T15:00:09.587Z</time></trkpt><trkpt lat="43.4169131" lon="16.7198865"><ele>36.0</ele><time>2026-05-04T15:00:10.587Z</time></trkpt><trkpt lat="43.4169768" lon="16.7196661"><ele>36.0</ele><time>2026-05-04T15:00:11.588Z</time></trkpt><trkpt lat="43.417056" lon="16.7194547"><ele>36.0</ele><time>2026-05-04T15:00:12.588Z</time></trkpt><trkpt lat="43.417146" lon="16.7192594"><ele>36.0</ele><time>2026-05-04T15:00:13.587Z</time></trkpt><trkpt lat="43.4172478" lon="16.7190787"><ele>41.33333333333333</ele><time>2026-05-04T15:00:14.588Z</time></trkpt><trkpt lat="43.4173599" lon="16.7189058"><ele>46.666666666666664</ele><time>2026-05-04T15:00:15.588Z</time></trkpt><trkpt lat="43.4174752" lon="16.71875"><ele>52.0</ele><time>2026-05-04T15:00:16.588Z</time></trkpt><trkpt lat="43.4175965" lon="16.7186209"><ele>48.0</ele><time>2026-05-04T15:00:17.588Z</time></trkpt><trkpt lat="43.4177283" lon="16.7185197"><ele>44.0</ele><time>2026-05-04T15:00:18.587Z</time></trkpt><trkpt lat="43.4178678" lon="16.7184415"><ele>40.0</ele><time>2026-05-04T15:00:19.587Z</time></trkpt><trkpt lat="43.4180192" lon="16.7183897"><ele>40.0</ele><time>2026-05-04T15:00:20.588Z</time></trkpt><trkpt lat="43.4181695" lon="16.7183598"><ele>40.0</ele><time>2026-05-04T15:00:21.588Z</time></trkpt><trkpt lat="43.4183273" lon="16.7183422"><ele>40.0</ele><time>2026-05-04T15:00:22.588Z</time></trkpt><trkpt lat="43.4184871" lon="16.7183361"><ele>40.0</ele><time>2026-05-04T15:00:23.588Z</time></trkpt><trkpt lat="43.4186378" lon="16.7183349"><ele>40.0</ele><time>2026-05-04T15:00:24.588Z</time></trkpt><trkpt lat="43.4187791" lon="16.7183392"><ele>40.0</ele><time>2026-05-04T15:00:25.588Z</time></trkpt><trkpt lat="43.4189172" lon="16.7183384"><ele>40.0</ele><time>2026-05-04T15:00:26.588Z</time></trkpt><trkpt lat="43.4190532" lon="16.7183259"><ele>41.5</ele><time>2026-05-04T15:00:27.587Z</time></trkpt><trkpt lat="43.4191828" lon="16.718301"><ele>43.0</ele><time>2026-05-04T15:00:28.588Z</time></trkpt><trkpt lat="43.4193084" lon="16.7182551"><ele>44.5</ele><time>2026-05-04T15:00:29.587Z</time></trkpt><trkpt lat="43.4194362" lon="16.7181849"><ele>46.0</ele><time>2026-05-04T15:00:30.587Z</time></trkpt><trkpt lat="43.4195591" lon="16.7180939"><ele>46.75</ele><time>2026-05-04T15:00:31.587Z</time></trkpt><trkpt lat="43.4196746" lon="16.717972"><ele>47.5</ele><time>2026-05-04T15:00:32.587Z</time></trkpt><trkpt lat="43.4197721" lon="16.7178251"><ele>48.25</ele><time>2026-05-04T15:00:33.588Z</time></trkpt><trkpt lat="43.4198535" lon="16.7176419"><ele>49.0</ele><time>2026-05-04T15:00:34.588Z</time></trkpt><trkpt lat="43.4199103" lon="16.717432"><ele>49.0</ele><time>2026-05-04T15:00:35.588Z</time></trkpt><trkpt lat="43.4199395" lon="16.7171758"><ele>49.0</ele><time>2026-05-04T15:00:36.588Z</time></trkpt><trkpt lat="43.4199461" lon="16.7168993"><ele>49.0</ele><time>2026-05-04T15:00:37.587Z</time></trkpt><trkpt lat="43.4199399" lon="16.7166132"><ele>48.0</ele><time>2026-05-04T15:00:38.588Z</time></trkpt><trkpt lat="43.419932" lon="16.7163404"><ele>47.0</ele><time>2026-05-04T15:00:39.587Z</time></trkpt><trkpt lat="43.4199276" lon="16.7160791"><ele>46.0</ele><time>2026-05-04T15:00:40.588Z</time></trkpt><trkpt lat="43.4199296" lon="16.7158424"><ele>45.66666666666667</ele><time>2026-05-04T15:00:41.588Z</time></trkpt><trkpt lat="43.4199411" lon="16.7156222"><ele>45.333333333333336</ele><time>2026-05-04T15:00:42.587Z</time></trkpt><trkpt lat="43.4199671" lon="16.7154179"><ele>45.0</ele><time>2026-05-04T15:00:43.588Z</time></trkpt><trkpt lat="43.4200129" lon="16.7152255"><ele>44.25</ele><time>2026-05-04T15:00:44.588Z</time></trkpt><trkpt lat="43.4200754" lon="16.7150528"><ele>43.5</ele><time>2026-05-04T15:00:45.588Z</time></trkpt><trkpt lat="43.4201534" lon="16.7148953"><ele>42.75</ele><time>2026-05-04T15:00:46.587Z</time></trkpt><trkpt lat="43.4202449" lon="16.7147554"><ele>42.0</ele><time>2026-05-04T15:00:47.588Z</time></trkpt><trkpt lat="43.4203447" lon="16.7146392"><ele>42.0</ele><time>2026-05-04T15:00:48.587Z</time></trkpt><trkpt lat="43.4204529" lon="16.7145398"><ele>42.0</ele><time>2026-05-04T15:00:49.587Z</time></trkpt><trkpt lat="43.4205682" lon="16.7144566"><ele>42.0</ele><time>2026-05-04T15:00:50.587Z</time></trkpt><trkpt lat="43.4206905" lon="16.7143834"><ele>42.0</ele><time>2026-05-04T15:00:51.587Z</time></trkpt><trkpt lat="43.4208169" lon="16.7143214"><ele>43.25</ele><time>2026-05-04T15:00:52.588Z</time></trkpt><trkpt lat="43.4209465" lon="16.7142678"><ele>44.5</ele><time>2026-05-04T15:00:53.588Z</time></trkpt><trkpt lat="43.4210742" lon="16.7142218"><ele>45.75</ele><time>2026-05-04T15:00:54.587Z</time></trkpt><trkpt lat="43.4212051" lon="16.7141724"><ele>47.0</ele><time>2026-05-04T15:00:55.587Z</time></trkpt><trkpt lat="43.4213294" lon="16.7141152"><ele>50.25</ele><time>2026-05-04T15:00:56.588Z</time></trkpt><trkpt lat="43.4214518" lon="16.7140521"><ele>53.5</ele><time>2026-05-04T15:00:57.587Z</time></trkpt><trkpt lat="43.4215698" lon="16.7139818"><ele>56.75</ele><time>2026-05-04T15:00:58.587Z</time></trkpt><trkpt lat="43.4216884" lon="16.7138963"><ele>60.0</ele><time>2026-05-04T15:00:59.587Z</time></trkpt><trkpt lat="43.4217982" lon="16.7138036"><ele>60.0</ele><time>2026-05-04T15:01:00.587Z</time></trkpt><trkpt lat="43.4219029" lon="16.7137045"><ele>60.0</ele><time>2026-05-04T15:01:01.587Z</time></trkpt><trkpt lat="43.422001" lon="16.7136059"><ele>60.0</ele><time>2026-05-04T15:01:02.587Z</time></trkpt><trkpt lat="43.4220985" lon="16.7135053"><ele>60.0</ele><time>2026-05-04T15:01:03.588Z</time></trkpt><trkpt lat="43.4221818" lon="16.7134164"><ele>61.0</ele><time>2026-05-04T15:01:04.588Z</time></trkpt><trkpt lat="43.4222645" lon="16.7133277"><ele>62.0</ele><time>2026-05-04T15:01:05.588Z</time></trkpt><trkpt lat="43.4223425" lon="16.713248"><ele>63.0</ele><time>2026-05-04T15:01:06.587Z</time></trkpt><trkpt lat="43.4224243" lon="16.713168"><ele>64.0</ele><time>2026-05-04T15:01:07.587Z</time></trkpt><trkpt lat="43.4225104" lon="16.7130987"><ele>65.0</ele><time>2026-05-04T15:01:08.588Z</time></trkpt><trkpt lat="43.4226038" lon="16.7130375"><ele>65.0</ele><time>2026-05-04T15:01:09.587Z</time></trkpt><trkpt lat="43.422697" lon="16.712983"><ele>65.0</ele><time>2026-05-04T15:01:10.587Z</time></trkpt><trkpt lat="43.4227886" lon="16.7129311"><ele>65.0</ele><time>2026-05-04T15:01:11.588Z</time></trkpt><trkpt lat="43.4228793" lon="16.7128889"><ele>65.0</ele><time>2026-05-04T15:01:12.588Z</time></trkpt><trkpt lat="43.4229732" lon="16.7128559"><ele>65.0</ele><time>2026-05-04T15:01:13.587Z</time></trkpt><trkpt lat="43.4230715" lon="16.7128342"><ele>68.5</ele><time>2026-05-04T15:01:14.588Z</time></trkpt><trkpt lat="43.4231812" lon="16.7128179"><ele>72.0</ele><time>2026-05-04T15:01:15.588Z</time></trkpt><trkpt lat="43.4232999" lon="16.7128062"><ele>75.5</ele><time>2026-05-04T15:01:16.588Z</time></trkpt><trkpt lat="43.4234205" lon="16.7128011"><ele>79.0</ele><time>2026-05-04T15:01:17.587Z</time></trkpt><trkpt lat="43.4235341" lon="16.7128006"><ele>79.0</ele><time>2026-05-04T15:01:18.587Z</time></trkpt><trkpt lat="43.423648" lon="16.7127987"><ele>79.0</ele><time>2026-05-04T15:01:19.588Z</time></trkpt><trkpt lat="43.4237537" lon="16.7127988"><ele>79.0</ele><time>2026-05-04T15:01:20.587Z</time></trkpt><trkpt lat="43.4238524" lon="16.7127979"><ele>79.0</ele><time>2026-05-04T15:01:21.588Z</time></trkpt><trkpt lat="43.4239499" lon="16.712791"><ele>79.0</ele><time>2026-05-04T15:01:22.588Z</time></trkpt><trkpt lat="43.424051" lon="16.7127769"><ele>79.6</ele><time>2026-05-04T15:01:23.587Z</time></trkpt><trkpt lat="43.424151" lon="16.7127514"><ele>80.2</ele><time>2026-05-04T15:01:24.587Z</time></trkpt><trkpt lat="43.4242546" lon="16.7127116"><ele>80.8</ele><time>2026-05-04T15:01:25.587Z</time></trkpt><trkpt lat="43.424356" lon="16.7126587"><ele>81.39999999999999</ele><time>2026-05-04T15:01:26.587Z</time></trkpt><trkpt lat="43.4244575" lon="16.7125928"><ele>82.0</ele><time>2026-05-04T15:01:27.587Z</time></trkpt><trkpt lat="43.4245543" lon="16.7125158"><ele>81.5</ele><time>2026-05-04T15:01:28.588Z</time></trkpt><trkpt lat="43.4246515" lon="16.7124326"><ele>81.0</ele><time>2026-05-04T15:01:29.587Z</time></trkpt><trkpt lat="43.4247442" lon="16.7123468"><ele>80.5</ele><time>2026-05-04T15:01:30.588Z</time></trkpt><trkpt lat="43.4248406" lon="16.7122565"><ele>80.0</ele><time>2026-05-04T15:01:31.588Z</time></trkpt><trkpt lat="43.4249371" lon="16.7121671"><ele>80.0</ele><time>2026-05-04T15:01:32.588Z</time></trkpt><trkpt lat="43.4250352" lon="16.7120773"><ele>80.0</ele><time>2026-05-04T15:01:33.588Z</time></trkpt><trkpt lat="43.4251369" lon="16.711994"><ele>80.0</ele><time>2026-05-04T15:01:34.588Z</time></trkpt><trkpt lat="43.4252456" lon="16.7119143"><ele>80.0</ele><time>2026-05-04T15:01:35.587Z</time></trkpt><trkpt lat="43.4253506" lon="16.7118512"><ele>78.5</ele><time>2026-05-04T15:01:36.587Z</time></trkpt><trkpt lat="43.4254568" lon="16.7118028"><ele>77.0</ele><time>2026-05-04T15:01:37.587Z</time></trkpt><trkpt lat="43.4255641" lon="16.7117679"><ele>75.5</ele><time>2026-05-04T15:01:38.588Z</time></trkpt><trkpt lat="43.4256826" lon="16.711746"><ele>74.0</ele><time>2026-05-04T15:01:39.587Z</time></trkpt><trkpt lat="43.4258019" lon="16.7117333"><ele>74.0</ele><time>2026-05-04T15:01:40.588Z</time></trkpt><trkpt lat="43.4259241" lon="16.711725"><ele>74.0</ele><time>2026-05-04T15:01:41.587Z</time></trkpt><trkpt lat="43.4260448" lon="16.7117214"><ele>74.0</ele><time>2026-05-04T15:01:42.587Z</time></trkpt><trkpt lat="43.42617" lon="16.7117204"><ele>74.0</ele><time>2026-05-04T15:01:43.587Z</time></trkpt><trkpt lat="43.4262937" lon="16.711713"><ele>73.5</ele><time>2026-05-04T15:01:44.588Z</time></trkpt><trkpt lat="43.4264141" lon="16.7117037"><ele>73.0</ele><time>2026-05-04T15:01:45.588Z</time></trkpt><trkpt lat="43.4265313" lon="16.7116826"><ele>72.5</ele><time>2026-05-04T15:01:46.588Z</time></trkpt><trkpt lat="43.4266512" lon="16.711651"><ele>72.0</ele><time>2026-05-04T15:01:47.588Z</time></trkpt><trkpt lat="43.4267673" lon="16.7116051"><ele>72.0</ele><time>2026-05-04T15:01:48.588Z</time></trkpt><trkpt lat="43.4268807" lon="16.7115464"><ele>72.0</ele><time>2026-05-04T15:01:49.587Z</time></trkpt><trkpt lat="43.4269881" lon="16.71147"><ele>72.0</ele><time>2026-05-04T15:01:50.588Z</time></trkpt><trkpt lat="43.4270946" lon="16.7113724"><ele>72.0</ele><time>2026-05-04T15:01:51.588Z</time></trkpt><trkpt lat="43.4271932" lon="16.7112561"><ele>70.33333333333333</ele><time>2026-05-04T15:01:52.587Z</time></trkpt><trkpt lat="43.4272828" lon="16.7111205"><ele>68.66666666666666</ele><time>2026-05-04T15:01:53.588Z</time></trkpt><trkpt lat="43.4273629" lon="16.710953"><ele>67.0</ele><time>2026-05-04T15:01:54.588Z</time></trkpt><trkpt lat="43.4274474" lon="16.7107343"><ele>67.0</ele><time>2026-05-04T15:01:55.588Z</time></trkpt><trkpt lat="43.4275423" lon="16.7105131"><ele>67.0</ele><time>2026-05-04T15:01:56.588Z</time></trkpt><trkpt lat="43.4276389" lon="16.7102972"><ele>67.0</ele><time>2026-05-04T15:01:57.587Z</time></trkpt><trkpt lat="43.4277298" lon="16.7100949"><ele>69.0</ele><time>2026-05-04T15:01:58.588Z</time></trkpt><trkpt lat="43.4278212" lon="16.7098969"><ele>71.0</ele><time>2026-05-04T15:01:59.588Z</time></trkpt><trkpt lat="43.4279121" lon="16.7097185"><ele>73.0</ele><time>2026-05-04T15:02:00.588Z</time></trkpt><trkpt lat="43.4280043" lon="16.7095542"><ele>68.75</ele><time>2026-05-04T15:02:01.588Z</time></trkpt><trkpt lat="43.4280996" lon="16.7094051"><ele>64.5</ele><time>2026-05-04T15:02:02.587Z</time></trkpt><trkpt lat="43.4282034" lon="16.7092668"><ele>60.25</ele><time>2026-05-04T15:02:03.587Z</time></trkpt><trkpt lat="43.4283142" lon="16.7091427"><ele>56.0</ele><time>2026-05-04T15:02:04.588Z</time></trkpt><trkpt lat="43.4284325" lon="16.7090398"><ele>56.0</ele><time>2026-05-04T15:02:05.588Z</time></trkpt><trkpt lat="43.4285585" lon="16.7089509"><ele>56.0</ele><time>2026-05-04T15:02:06.587Z</time></trkpt><trkpt lat="43.4286949" lon="16.708875"><ele>56.0</ele><time>2026-05-04T15:02:07.587Z</time></trkpt><trkpt lat="43.4288405" lon="16.7088159"><ele>56.0</ele><time>2026-05-04T15:02:08.588Z</time></trkpt><trkpt lat="43.4289918" lon="16.7087776"><ele>60.0</ele><time>2026-05-04T15:02:09.587Z</time></trkpt><trkpt lat="43.4291393" lon="16.7087567"><ele>64.0</ele><time>2026-05-04T15:02:10.588Z</time></trkpt><trkpt lat="43.4292922" lon="16.7087468"><ele>68.0</ele><time>2026-05-04T15:02:11.587Z</time></trkpt><trkpt lat="43.4294443" lon="16.7087408"><ele>68.0</ele><time>2026-05-04T15:02:12.588Z</time></trkpt><trkpt lat="43.4295976" lon="16.708734"><ele>68.0</ele><time>2026-05-04T15:02:13.587Z</time></trkpt><trkpt lat="43.429746" lon="16.7087219"><ele>68.0</ele><time>2026-05-04T15:02:14.587Z</time></trkpt><trkpt lat="43.429896" lon="16.7087017"><ele>66.5</ele><time>2026-05-04T15:02:15.587Z</time></trkpt><trkpt lat="43.430037" lon="16.7086749"><ele>65.0</ele><time>2026-05-04T15:02:16.587Z</time></trkpt><trkpt lat="43.430176" lon="16.7086393"><ele>63.5</ele><time>2026-05-04T15:02:17.588Z</time></trkpt><trkpt lat="43.4303169" lon="16.7085871"><ele>62.0</ele><time>2026-05-04T15:02:18.587Z</time></trkpt><trkpt lat="43.4304722" lon="16.7085027"><ele>56.0</ele><time>2026-05-04T15:02:19.587Z</time></trkpt><trkpt lat="43.4306476" lon="16.7083825"><ele>50.0</ele><time>2026-05-04T15:02:20.588Z</time></trkpt><trkpt lat="43.4308446" lon="16.7082312"><ele>44.0</ele><time>2026-05-04T15:02:21.587Z</time></trkpt><trkpt lat="43.4310479" lon="16.7080454"><ele>44.0</ele><time>2026-05-04T15:02:22.587Z</time></trkpt><trkpt lat="43.4312583" lon="16.7078173"><ele>44.0</ele><time>2026-05-04T15:02:23.588Z</time></trkpt><trkpt lat="43.4314602" lon="16.7075644"><ele>51.0</ele><time>2026-05-04T15:02:24.588Z</time></trkpt><trkpt lat="43.4316578" lon="16.7072995"><ele>58.0</ele><time>2026-05-04T15:02:25.588Z</time></trkpt><trkpt lat="43.4318491" lon="16.7070411"><ele>54.0</ele><time>2026-05-04T15:02:26.587Z</time></trkpt><trkpt lat="43.4320484" lon="16.7067882"><ele>50.0</ele><time>2026-05-04T15:02:27.588Z</time></trkpt><trkpt lat="43.4322544" lon="16.7065569"><ele>60.5</ele><time>2026-05-04T15:02:28.588Z</time></trkpt><trkpt lat="43.4324733" lon="16.7063407"><ele>71.0</ele><time>2026-05-04T15:02:29.588Z</time></trkpt><trkpt lat="43.4326955" lon="16.7061436"><ele>71.5</ele><time>2026-05-04T15:02:30.587Z</time></trkpt><trkpt lat="43.432933" lon="16.705959"><ele>72.0</ele><time>2026-05-04T15:02:31.587Z</time></trkpt><trkpt lat="43.4331701" lon="16.7057986"><ele>72.0</ele><time>2026-05-04T15:02:32.588Z</time></trkpt><trkpt lat="43.4334034" lon="16.7056626"><ele>72.0</ele><time>2026-05-04T15:02:33.588Z</time></trkpt><trkpt lat="43.4336262" lon="16.7055522"><ele>80.33333333333334</ele><time>2026-05-04T15:02:34.587Z</time></trkpt><trkpt lat="43.4338456" lon="16.705463"><ele>88.66666666666667</ele><time>2026-05-04T15:02:35.588Z</time></trkpt><trkpt lat="43.4340589" lon="16.705393"><ele>97.0</ele><time>2026-05-04T15:02:36.588Z</time></trkpt><trkpt lat="43.4342689" lon="16.7053334"><ele>97.0</ele><time>2026-05-04T15:02:37.587Z</time></trkpt><trkpt lat="43.4344782" lon="16.7052891"><ele>97.0</ele><time>2026-05-04T15:02:38.588Z</time></trkpt><trkpt lat="43.434689" lon="16.7052507"><ele>97.0</ele><time>2026-05-04T15:02:39.588Z</time></trkpt><trkpt lat="43.4348946" lon="16.7052124"><ele>100.33333333333334</ele><time>2026-05-04T15:02:40.588Z</time></trkpt><trkpt lat="43.4350965" lon="16.7051653"><ele>103.66666666666666</ele><time>2026-05-04T15:02:41.588Z</time></trkpt><trkpt lat="43.4352937" lon="16.7051017"><ele>107.0</ele><time>2026-05-04T15:02:42.588Z</time></trkpt><trkpt lat="43.4354902" lon="16.7050145"><ele>107.0</ele><time>2026-05-04T15:02:43.587Z</time></trkpt><trkpt lat="43.435677" lon="16.7049048"><ele>107.0</ele><time>2026-05-04T15:02:44.588Z</time></trkpt><trkpt lat="43.4358574" lon="16.7047763"><ele>107.0</ele><time>2026-05-04T15:02:45.587Z</time></trkpt><trkpt lat="43.4360305" lon="16.7046336"><ele>107.0</ele><time>2026-05-04T15:02:46.588Z</time></trkpt><trkpt lat="43.436197" lon="16.7044776"><ele>107.0</ele><time>2026-05-04T15:02:47.588Z</time></trkpt><trkpt lat="43.4363579" lon="16.7043151"><ele>107.0</ele><time>2026-05-04T15:02:48.588Z</time></trkpt><trkpt lat="43.4365145" lon="16.7041208"><ele>97.33333333333333</ele><time>2026-05-04T15:02:49.587Z</time></trkpt><trkpt lat="43.4366247" lon="16.7040097"><ele>87.66666666666666</ele><time>2026-05-04T15:02:50.587Z</time></trkpt><trkpt lat="43.4367886" lon="16.7038696"><ele>78.0</ele><time>2026-05-04T15:02:51.588Z</time></trkpt><trkpt lat="43.4369603" lon="16.7037449"><ele>75.33333333333333</ele><time>2026-05-04T15:02:52.587Z</time></trkpt><trkpt lat="43.4371367" lon="16.7036362"><ele>72.66666666666666</ele><time>2026-05-04T15:02:53.588Z</time></trkpt><trkpt lat="43.4373168" lon="16.7035554"><ele>70.0</ele><time>2026-05-04T15:02:54.588Z</time></trkpt><trkpt lat="43.4374946" lon="16.7034956"><ele>70.0</ele><time>2026-05-04T15:02:55.588Z</time></trkpt><trkpt lat="43.4376756" lon="16.7034571"><ele>70.0</ele><time>2026-05-04T15:02:56.588Z</time></trkpt><trkpt lat="43.4378526" lon="16.7034323"><ele>70.0</ele><time>2026-05-04T15:02:57.588Z</time></trkpt><trkpt lat="43.4380279" lon="16.7034223"><ele>72.66666666666666</ele><time>2026-05-04T15:02:58.587Z</time></trkpt><trkpt lat="43.4382068" lon="16.7034271"><ele>75.33333333333333</ele><time>2026-05-04T15:02:59.588Z</time></trkpt><trkpt lat="43.4383831" lon="16.7034385"><ele>78.0</ele><time>2026-05-04T15:03:00.587Z</time></trkpt><trkpt lat="43.4385627" lon="16.703447"><ele>78.0</ele><time>2026-05-04T15:03:01.588Z</time></trkpt><trkpt lat="43.4387426" lon="16.7034479"><ele>78.0</ele><time>2026-05-04T15:03:02.588Z</time></trkpt><trkpt lat="43.438931" lon="16.7034401"><ele>78.0</ele><time>2026-05-04T15:03:03.588Z</time></trkpt><trkpt lat="43.439118" lon="16.7034217"><ele>84.66666666666666</ele><time>2026-05-04T15:03:04.588Z</time></trkpt><trkpt lat="43.4393055" lon="16.7033903"><ele>91.33333333333333</ele><time>2026-05-04T15:03:05.588Z</time></trkpt><trkpt lat="43.4394895" lon="16.7033451"><ele>98.0</ele><time>2026-05-04T15:03:06.588Z</time></trkpt><trkpt lat="43.4396785" lon="16.7032839"><ele>104.66666666666666</ele><time>2026-05-04T15:03:07.588Z</time></trkpt><trkpt lat="43.4398619" lon="16.7032116"><ele>111.33333333333334</ele><time>2026-05-04T15:03:08.587Z</time></trkpt><trkpt lat="43.4400413" lon="16.7031271"><ele>118.0</ele><time>2026-05-04T15:03:09.588Z</time></trkpt><trkpt lat="43.4402117" lon="16.7030333"><ele>118.0</ele><time>2026-05-04T15:03:10.588Z</time></trkpt><trkpt lat="43.4403774" lon="16.7029308"><ele>118.0</ele><time>2026-05-04T15:03:11.587Z</time></trkpt><trkpt lat="43.440533" lon="16.702824"><ele>118.0</ele><time>2026-05-04T15:03:12.587Z</time></trkpt><trkpt lat="43.4406824" lon="16.7027147"><ele>117.66666666666667</ele><time>2026-05-04T15:03:13.587Z</time></trkpt><trkpt lat="43.4408252" lon="16.7026079"><ele>117.33333333333334</ele><time>2026-05-04T15:03:14.588Z</time></trkpt><trkpt lat="43.4409685" lon="16.7025024"><ele>117.0</ele><time>2026-05-04T15:03:15.587Z</time></trkpt><trkpt lat="43.4411076" lon="16.7023991"><ele>117.0</ele><time>2026-05-04T15:03:16.587Z</time></trkpt><trkpt lat="43.4412464" lon="16.7022941"><ele>117.0</ele><time>2026-05-04T15:03:17.587Z</time></trkpt><trkpt lat="43.4413839" lon="16.7021877"><ele>117.0</ele><time>2026-05-04T15:03:18.587Z</time></trkpt><trkpt lat="43.4415261" lon="16.7020771"><ele>119.33333333333334</ele><time>2026-05-04T15:03:19.587Z</time></trkpt><trkpt lat="43.4416661" lon="16.7019687"><ele>121.66666666666667</ele><time>2026-05-04T15:03:20.588Z</time></trkpt><trkpt lat="43.4418051" lon="16.701862"><ele>124.0</ele><time>2026-05-04T15:03:21.587Z</time></trkpt><trkpt lat="43.4419407" lon="16.7017584"><ele>124.0</ele><time>2026-05-04T15:03:22.588Z</time></trkpt><trkpt lat="43.4420796" lon="16.7016524"><ele>124.0</ele><time>2026-05-04T15:03:23.588Z</time></trkpt><trkpt lat="43.4422153" lon="16.7015497"><ele>124.0</ele><time>2026-05-04T15:03:24.587Z</time></trkpt><trkpt lat="43.4423502" lon="16.7014478"><ele>137.0</ele><time>2026-05-04T15:03:25.587Z</time></trkpt><trkpt lat="43.4424826" lon="16.7013476"><ele>150.0</ele><time>2026-05-04T15:03:26.588Z</time></trkpt><trkpt lat="43.4495609" lon="16.6935234"><ele>150.0</ele><time>2026-05-04T15:04:16.579Z</time></trkpt><trkpt lat="43.4496502" lon="16.6933002"><ele>150.0</ele><time>2026-05-04T15:04:17.58Z</time></trkpt><trkpt lat="43.4497432" lon="16.6930697"><ele>150.0</ele><time>2026-05-04T15:04:18.582Z</time></trkpt><trkpt lat="43.4498365" lon="16.6928493"><ele>150.0</ele><time>2026-05-04T15:04:19.58Z</time></trkpt><trkpt lat="43.4499229" lon="16.6926215"><ele>150.0</ele><time>2026-05-04T15:04:20.58Z</time></trkpt><trkpt lat="43.4500119" lon="16.6923974"><ele>150.0</ele><time>2026-05-04T15:04:21.58Z</time></trkpt><trkpt lat="43.4501055" lon="16.6921752"><ele>76.0</ele><time>2026-05-04T15:04:22.581Z</time></trkpt><trkpt lat="43.4547425" lon="16.6893461"><ele>76.0</ele><time>2026-05-04T15:04:50.578Z</time></trkpt><trkpt lat="43.4549" lon="16.6891756"><ele>76.0</ele><time>2026-05-04T15:04:51.58Z</time></trkpt><trkpt lat="43.4550496" lon="16.6889608"><ele>76.0</ele><time>2026-05-04T15:04:52.579Z</time></trkpt><trkpt lat="43.4551993" lon="16.6887458"><ele>72.66666666666666</ele><time>2026-05-04T15:04:53.58Z</time></trkpt><trkpt lat="43.4553437" lon="16.6885282"><ele>69.33333333333333</ele><time>2026-05-04T15:04:54.58Z</time></trkpt><trkpt lat="43.4554955" lon="16.6883097"><ele>66.0</ele><time>2026-05-04T15:04:55.58Z</time></trkpt><trkpt lat="43.4556376" lon="16.6881003"><ele>66.0</ele><time>2026-05-04T15:04:56.58Z</time></trkpt><trkpt lat="43.4557759" lon="16.6879004"><ele>66.0</ele><time>2026-05-04T15:04:57.58Z</time></trkpt><trkpt lat="43.4559049" lon="16.6877092"><ele>66.0</ele><time>2026-05-04T15:04:58.58Z</time></trkpt><trkpt lat="43.4560292" lon="16.6875409"><ele>67.5</ele><time>2026-05-04T15:04:59.58Z</time></trkpt><trkpt lat="43.4561533" lon="16.6874323"><ele>69.0</ele><time>2026-05-04T15:05:00.58Z</time></trkpt><trkpt lat="43.4562787" lon="16.6873848"><ele>70.5</ele><time>2026-05-04T15:05:01.58Z</time></trkpt><trkpt lat="43.4563969" lon="16.6873989"><ele>72.0</ele><time>2026-05-04T15:05:02.579Z</time></trkpt><trkpt lat="43.4565038" lon="16.68747"><ele>72.0</ele><time>2026-05-04T15:05:03.58Z</time></trkpt><trkpt lat="43.4565891" lon="16.6875879"><ele>72.0</ele><time>2026-05-04T15:05:04.58Z</time></trkpt><trkpt lat="43.4566479" lon="16.687737"><ele>72.0</ele><time>2026-05-04T15:05:05.58Z</time></trkpt><trkpt lat="43.4566727" lon="16.6879072"><ele>72.0</ele><time>2026-05-04T15:05:06.58Z</time></trkpt><trkpt lat="43.456683" lon="16.6881101"><ele>72.66666666666667</ele><time>2026-05-04T15:05:07.58Z</time></trkpt><trkpt lat="43.456681" lon="16.688335"><ele>73.33333333333334</ele><time>2026-05-04T15:05:08.58Z</time></trkpt><trkpt lat="43.4566858" lon="16.6885931"><ele>74.0</ele><time>2026-05-04T15:05:09.58Z</time></trkpt><trkpt lat="43.4566941" lon="16.6888842"><ele>74.0</ele><time>2026-05-04T15:05:10.579Z</time></trkpt><trkpt lat="43.4566976" lon="16.689207"><ele>74.0</ele><time>2026-05-04T15:05:11.58Z</time></trkpt><trkpt lat="43.4567013" lon="16.6895441"><ele>75.5</ele><time>2026-05-04T15:05:12.58Z</time></trkpt><trkpt lat="43.4567119" lon="16.6898983"><ele>77.0</ele><time>2026-05-04T15:05:13.58Z</time></trkpt><trkpt lat="43.4567273" lon="16.6902418"><ele>79.0</ele><time>2026-05-04T15:05:14.579Z</time></trkpt><trkpt lat="43.4567483" lon="16.6905761"><ele>81.0</ele><time>2026-05-04T15:05:15.58Z</time></trkpt><trkpt lat="43.4567692" lon="16.6908791"><ele>80.0</ele><time>2026-05-04T15:05:16.58Z</time></trkpt><trkpt lat="43.4567917" lon="16.6911573"><ele>79.0</ele><time>2026-05-04T15:05:17.58Z</time></trkpt><trkpt lat="43.4568147" lon="16.6914107"><ele>78.0</ele><time>2026-05-04T15:05:18.58Z</time></trkpt><trkpt lat="43.4568405" lon="16.6916476"><ele>78.0</ele><time>2026-05-04T15:05:19.58Z</time></trkpt><trkpt lat="43.4568658" lon="16.6918672"><ele>78.0</ele><time>2026-05-04T15:05:20.58Z</time></trkpt><trkpt lat="43.4568913" lon="16.692078"><ele>78.0</ele><time>2026-05-04T15:05:21.58Z</time></trkpt><trkpt lat="43.4569182" lon="16.6922824"><ele>76.66666666666667</ele><time>2026-05-04T15:05:22.579Z</time></trkpt><trkpt lat="43.4569482" lon="16.6924853"><ele>75.33333333333334</ele><time>2026-05-04T15:05:23.58Z</time></trkpt><trkpt lat="43.4569931" lon="16.6926841"><ele>74.0</ele><time>2026-05-04T15:05:24.579Z</time></trkpt><trkpt lat="43.4570589" lon="16.6928677"><ele>82.5</ele><time>2026-05-04T15:05:25.58Z</time></trkpt><trkpt lat="43.4571452" lon="16.6930312"><ele>91.0</ele><time>2026-05-04T15:05:26.58Z</time></trkpt><trkpt lat="43.4572497" lon="16.6931812"><ele>99.5</ele><time>2026-05-04T15:05:27.579Z</time></trkpt><trkpt lat="43.4573569" lon="16.6933117"><ele>108.0</ele><time>2026-05-04T15:05:28.58Z</time></trkpt><trkpt lat="43.4574629" lon="16.6934313"><ele>108.0</ele><time>2026-05-04T15:05:29.58Z</time></trkpt><trkpt lat="43.4575613" lon="16.6935499"><ele>108.0</ele><time>2026-05-04T15:05:30.579Z</time></trkpt><trkpt lat="43.4576529" lon="16.6936853"><ele>108.0</ele><time>2026-05-04T15:05:31.579Z</time></trkpt><trkpt lat="43.4577259" lon="16.6938376"><ele>108.0</ele><time>2026-05-04T15:05:32.579Z</time></trkpt><trkpt lat="43.4577749" lon="16.6940087"><ele>107.5</ele><time>2026-05-04T15:05:33.58Z</time></trkpt><trkpt lat="43.457796" lon="16.6941895"><ele>107.0</ele><time>2026-05-04T15:05:34.58Z</time></trkpt><trkpt lat="43.4577931" lon="16.6943845"><ele>106.5</ele><time>2026-05-04T15:05:35.579Z</time></trkpt><trkpt lat="43.4577692" lon="16.6945812"><ele>106.0</ele><time>2026-05-04T15:05:36.58Z</time></trkpt><trkpt lat="43.4577277" lon="16.6947796"><ele>106.0</ele><time>2026-05-04T15:05:37.58Z</time></trkpt><trkpt lat="43.4576808" lon="16.6949909"><ele>106.0</ele><time>2026-05-04T15:05:38.579Z</time></trkpt><trkpt lat="43.4576222" lon="16.6952407"><ele>106.0</ele><time>2026-05-04T15:05:39.58Z</time></trkpt><trkpt lat="43.4575542" lon="16.6954999"><ele>110.0</ele><time>2026-05-04T15:05:40.579Z</time></trkpt><trkpt lat="43.4574839" lon="16.6957413"><ele>114.0</ele><time>2026-05-04T15:05:41.579Z</time></trkpt><trkpt lat="43.4574139" lon="16.6959569"><ele>118.0</ele><time>2026-05-04T15:05:42.58Z</time></trkpt><trkpt lat="43.4573431" lon="16.6961512"><ele>119.25</ele><time>2026-05-04T15:05:43.58Z</time></trkpt><trkpt lat="43.4572704" lon="16.6963156"><ele>120.5</ele><time>2026-05-04T15:05:44.58Z</time></trkpt><trkpt lat="43.4572045" lon="16.6964516"><ele>121.75</ele><time>2026-05-04T15:05:45.58Z</time></trkpt><trkpt lat="43.457155" lon="16.6965708"><ele>123.0</ele><time>2026-05-04T15:05:46.58Z</time></trkpt><trkpt lat="43.4571313" lon="16.6966934"><ele>123.0</ele><time>2026-05-04T15:05:47.58Z</time></trkpt><trkpt lat="43.4571403" lon="16.6968162"><ele>123.00000000000001</ele><time>2026-05-04T15:05:48.579Z</time></trkpt><trkpt lat="43.457182" lon="16.6969239"><ele>123.00000000000001</ele><time>2026-05-04T15:05:49.579Z</time></trkpt><trkpt lat="43.4572548" lon="16.6969942"><ele>123.0</ele><time>2026-05-04T15:05:50.58Z</time></trkpt><trkpt lat="43.4573443" lon="16.6970199"><ele>123.0</ele><time>2026-05-04T15:05:51.579Z</time></trkpt><trkpt lat="43.4574348" lon="16.696987"><ele>123.0</ele><time>2026-05-04T15:05:52.58Z</time></trkpt><trkpt lat="43.4575103" lon="16.696901"><ele>123.00000000000001</ele><time>2026-05-04T15:05:53.58Z</time></trkpt><trkpt lat="43.4575557" lon="16.6967737"><ele>123.00000000000001</ele><time>2026-05-04T15:05:54.579Z</time></trkpt><trkpt lat="43.4575756" lon="16.6966174"><ele>123.0</ele><time>2026-05-04T15:05:55.579Z</time></trkpt><trkpt lat="43.457587" lon="16.6964472"><ele>123.0</ele><time>2026-05-04T15:05:56.58Z</time></trkpt><trkpt lat="43.4576098" lon="16.6962807"><ele>123.0</ele><time>2026-05-04T15:05:57.579Z</time></trkpt><trkpt lat="43.4576514" lon="16.696114"><ele>123.0</ele><time>2026-05-04T15:05:58.58Z</time></trkpt><trkpt lat="43.4577136" lon="16.6959238"><ele>123.0</ele><time>2026-05-04T15:05:59.58Z</time></trkpt><trkpt lat="43.4578107" lon="16.6957081"><ele>121.33333333333334</ele><time>2026-05-04T15:06:00.579Z</time></trkpt><trkpt lat="43.4579247" lon="16.6954738"><ele>119.66666666666667</ele><time>2026-05-04T15:06:01.579Z</time></trkpt><trkpt lat="43.4580268" lon="16.6952433"><ele>118.0</ele><time>2026-05-04T15:06:02.58Z</time></trkpt><trkpt lat="43.4581112" lon="16.6950161"><ele>128.0</ele><time>2026-05-04T15:06:03.579Z</time></trkpt><trkpt lat="43.4581831" lon="16.6948097"><ele>138.0</ele><time>2026-05-04T15:06:04.579Z</time></trkpt><trkpt lat="43.4582554" lon="16.6946126"><ele>148.0</ele><time>2026-05-04T15:06:05.579Z</time></trkpt><trkpt lat="43.458324" lon="16.6944347"><ele>145.75</ele><time>2026-05-04T15:06:06.579Z</time></trkpt><trkpt lat="43.4583932" lon="16.6942685"><ele>143.5</ele><time>2026-05-04T15:06:07.579Z</time></trkpt><trkpt lat="43.4584602" lon="16.6941103"><ele>141.25</ele><time>2026-05-04T15:06:08.58Z</time></trkpt><trkpt lat="43.458516" lon="16.6939536"><ele>139.0</ele><time>2026-05-04T15:06:09.579Z</time></trkpt><trkpt lat="43.4585457" lon="16.6937917"><ele>139.0</ele><time>2026-05-04T15:06:10.58Z</time></trkpt><trkpt lat="43.4585417" lon="16.6936172"><ele>139.0</ele><time>2026-05-04T15:06:11.579Z</time></trkpt><trkpt lat="43.4585045" lon="16.6934407"><ele>139.0</ele><time>2026-05-04T15:06:12.579Z</time></trkpt><trkpt lat="43.4584488" lon="16.6932702"><ele>139.0</ele><time>2026-05-04T15:06:13.579Z</time></trkpt><trkpt lat="43.4583812" lon="16.6931079"><ele>141.25</ele><time>2026-05-04T15:06:14.58Z</time></trkpt><trkpt lat="43.4583073" lon="16.6929318"><ele>143.5</ele><time>2026-05-04T15:06:15.58Z</time></trkpt><trkpt lat="43.458235" lon="16.6927608"><ele>145.75</ele><time>2026-05-04T15:06:16.579Z</time></trkpt><trkpt lat="43.4581733" lon="16.6925916"><ele>148.0</ele><time>2026-05-04T15:06:17.58Z</time></trkpt><trkpt lat="43.4581204" lon="16.6924128"><ele>152.75</ele><time>2026-05-04T15:06:18.58Z</time></trkpt><trkpt lat="43.4580776" lon="16.6922226"><ele>157.5</ele><time>2026-05-04T15:06:19.579Z</time></trkpt><trkpt lat="43.458047" lon="16.6920273"><ele>162.25</ele><time>2026-05-04T15:06:20.579Z</time></trkpt><trkpt lat="43.4580281" lon="16.6918287"><ele>167.0</ele><time>2026-05-04T15:06:21.58Z</time></trkpt><trkpt lat="43.4580219" lon="16.6916321"><ele>168.33333333333331</ele><time>2026-05-04T15:06:22.58Z</time></trkpt><trkpt lat="43.4580337" lon="16.6914187"><ele>169.66666666666666</ele><time>2026-05-04T15:06:23.58Z</time></trkpt><trkpt lat="43.4580581" lon="16.6912127"><ele>171.0</ele><time>2026-05-04T15:06:24.58Z</time></trkpt><trkpt lat="43.4581012" lon="16.691009"><ele>171.0</ele><time>2026-05-04T15:06:25.579Z</time></trkpt><trkpt lat="43.4581586" lon="16.6908099"><ele>171.0</ele><time>2026-05-04T15:06:26.579Z</time></trkpt><trkpt lat="43.4582285" lon="16.6906198"><ele>171.0</ele><time>2026-05-04T15:06:27.58Z</time></trkpt><trkpt lat="43.4583098" lon="16.6904404"><ele>171.0</ele><time>2026-05-04T15:06:28.579Z</time></trkpt><trkpt lat="43.458394" lon="16.6902712"><ele>171.0</ele><time>2026-05-04T15:06:29.579Z</time></trkpt><trkpt lat="43.4584774" lon="16.6901099"><ele>171.0</ele><time>2026-05-04T15:06:30.579Z</time></trkpt><trkpt lat="43.4585563" lon="16.6899462"><ele>171.0</ele><time>2026-05-04T15:06:31.579Z</time></trkpt><trkpt lat="43.4586209" lon="16.6897792"><ele>168.25</ele><time>2026-05-04T15:06:32.58Z</time></trkpt><trkpt lat="43.4586743" lon="16.6896068"><ele>165.5</ele><time>2026-05-04T15:06:33.58Z</time></trkpt><trkpt lat="43.4587173" lon="16.6894355"><ele>162.75</ele><time>2026-05-04T15:06:34.58Z</time></trkpt><trkpt lat="43.4587476" lon="16.6892672"><ele>160.0</ele><time>2026-05-04T15:06:35.58Z</time></trkpt><trkpt lat="43.4587656" lon="16.6891012"><ele>158.75</ele><time>2026-05-04T15:06:36.58Z</time></trkpt><trkpt lat="43.4587731" lon="16.688938"><ele>157.5</ele><time>2026-05-04T15:06:37.58Z</time></trkpt><trkpt lat="43.4587736" lon="16.688768"><ele>156.25</ele><time>2026-05-04T15:06:38.58Z</time></trkpt><trkpt lat="43.4587714" lon="16.6885712"><ele>155.0</ele><time>2026-05-04T15:06:39.58Z</time></trkpt><trkpt lat="43.458776" lon="16.6883671"><ele>162.25</ele><time>2026-05-04T15:06:40.579Z</time></trkpt><trkpt lat="43.4587975" lon="16.6881782"><ele>169.5</ele><time>2026-05-04T15:06:41.579Z</time></trkpt><trkpt lat="43.4588389" lon="16.6879928"><ele>176.75</ele><time>2026-05-04T15:06:42.58Z</time></trkpt><trkpt lat="43.4589031" lon="16.6877953"><ele>184.0</ele><time>2026-05-04T15:06:43.579Z</time></trkpt><trkpt lat="43.4590005" lon="16.6876022"><ele>184.0</ele><time>2026-05-04T15:06:44.579Z</time></trkpt><trkpt lat="43.4591276" lon="16.6874005"><ele>184.0</ele><time>2026-05-04T15:06:45.58Z</time></trkpt><trkpt lat="43.45926" lon="16.6871985"><ele>184.0</ele><time>2026-05-04T15:06:46.58Z</time></trkpt><trkpt lat="43.4593891" lon="16.6869737"><ele>179.0</ele><time>2026-05-04T15:06:47.58Z</time></trkpt><trkpt lat="43.4595173" lon="16.6867213"><ele>174.0</ele><time>2026-05-04T15:06:48.58Z</time></trkpt><trkpt lat="43.4596363" lon="16.6864526"><ele>189.5</ele><time>2026-05-04T15:06:49.58Z</time></trkpt><trkpt lat="43.4597536" lon="16.686165"><ele>205.0</ele><time>2026-05-04T15:06:50.58Z</time></trkpt><trkpt lat="43.4598751" lon="16.6858724"><ele>205.0</ele><time>2026-05-04T15:06:51.579Z</time></trkpt><trkpt lat="43.4599962" lon="16.6855821"><ele>205.0</ele><time>2026-05-04T15:06:52.579Z</time></trkpt><trkpt lat="43.4601258" lon="16.6853061"><ele>199.66666666666666</ele><time>2026-05-04T15:06:53.58Z</time></trkpt><trkpt lat="43.4602511" lon="16.6850564"><ele>194.33333333333331</ele><time>2026-05-04T15:06:54.579Z</time></trkpt><trkpt lat="43.4603739" lon="16.6848284"><ele>189.0</ele><time>2026-05-04T15:06:55.579Z</time></trkpt><trkpt lat="43.4604812" lon="16.684623"><ele>201.33333333333331</ele><time>2026-05-04T15:06:56.579Z</time></trkpt><trkpt lat="43.4605735" lon="16.6844223"><ele>213.66666666666666</ele><time>2026-05-04T15:06:57.579Z</time></trkpt><trkpt lat="43.4606446" lon="16.684215"><ele>226.0</ele><time>2026-05-04T15:06:58.579Z</time></trkpt><trkpt lat="43.4606969" lon="16.6839811"><ele>226.0</ele><time>2026-05-04T15:06:59.58Z</time></trkpt><trkpt lat="43.4607204" lon="16.6837314"><ele>226.0</ele><time>2026-05-04T15:07:00.58Z</time></trkpt><trkpt lat="43.4607241" lon="16.6834752"><ele>226.0</ele><time>2026-05-04T15:07:01.579Z</time></trkpt><trkpt lat="43.46072" lon="16.6832255"><ele>227.33333333333331</ele><time>2026-05-04T15:07:02.579Z</time></trkpt><trkpt lat="43.4607198" lon="16.6829763"><ele>228.66666666666669</ele><time>2026-05-04T15:07:03.58Z</time></trkpt><trkpt lat="43.4607297" lon="16.6827295"><ele>230.0</ele><time>2026-05-04T15:07:04.58Z</time></trkpt><trkpt lat="43.4607493" lon="16.6824708"><ele>232.66666666666669</ele><time>2026-05-04T15:07:05.58Z</time></trkpt><trkpt lat="43.4607811" lon="16.6821953"><ele>235.33333333333331</ele><time>2026-05-04T15:07:06.579Z</time></trkpt><trkpt lat="43.4608159" lon="16.6818983"><ele>238.0</ele><time>2026-05-04T15:07:07.579Z</time></trkpt><trkpt lat="43.4608508" lon="16.6816202"><ele>240.33333333333331</ele><time>2026-05-04T15:07:08.579Z</time></trkpt><trkpt lat="43.4608771" lon="16.681363"><ele>242.66666666666669</ele><time>2026-05-04T15:07:09.58Z</time></trkpt><trkpt lat="43.4608933" lon="16.6811408"><ele>245.0</ele><time>2026-05-04T15:07:10.58Z</time></trkpt><trkpt lat="43.4608916" lon="16.6809409"><ele>246.25</ele><time>2026-05-04T15:07:11.58Z</time></trkpt><trkpt lat="43.4608859" lon="16.6807481"><ele>247.5</ele><time>2026-05-04T15:07:12.58Z</time></trkpt><trkpt lat="43.4608746" lon="16.6805583"><ele>248.75</ele><time>2026-05-04T15:07:13.58Z</time></trkpt><trkpt lat="43.4608518" lon="16.6803785"><ele>250.0</ele><time>2026-05-04T15:07:14.58Z</time></trkpt><trkpt lat="43.4608248" lon="16.6802034"><ele>251.0</ele><time>2026-05-04T15:07:15.579Z</time></trkpt><trkpt lat="43.4607911" lon="16.6800464"><ele>252.0</ele><time>2026-05-04T15:07:16.579Z</time></trkpt><trkpt lat="43.4607601" lon="16.679911"><ele>253.0</ele><time>2026-05-04T15:07:17.58Z</time></trkpt><trkpt lat="43.4607408" lon="16.6797953"><ele>254.0</ele><time>2026-05-04T15:07:18.579Z</time></trkpt><trkpt lat="43.4607327" lon="16.679679"><ele>255.0</ele><time>2026-05-04T15:07:19.579Z</time></trkpt><trkpt lat="43.4607441" lon="16.6795747"><ele>255.0</ele><time>2026-05-04T15:07:20.579Z</time></trkpt><trkpt lat="43.4607791" lon="16.6794949"><ele>255.00000000000003</ele><time>2026-05-04T15:07:21.579Z</time></trkpt><trkpt lat="43.4608304" lon="16.6794435"><ele>255.0</ele><time>2026-05-04T15:07:22.58Z</time></trkpt><trkpt lat="43.4608964" lon="16.6794222"><ele>255.0</ele><time>2026-05-04T15:07:23.579Z</time></trkpt><trkpt lat="43.4609677" lon="16.6794432"><ele>255.00000000000003</ele><time>2026-05-04T15:07:24.579Z</time></trkpt><trkpt lat="43.4610307" lon="16.6795111"><ele>255.0</ele><time>2026-05-04T15:07:25.58Z</time></trkpt><trkpt lat="43.4610679" lon="16.679616"><ele>255.0</ele><time>2026-05-04T15:07:26.58Z</time></trkpt><trkpt lat="43.4610914" lon="16.6797761"><ele>255.0</ele><time>2026-05-04T15:07:27.58Z</time></trkpt><trkpt lat="43.4611022" lon="16.6799925"><ele>255.0</ele><time>2026-05-04T15:07:28.579Z</time></trkpt><trkpt lat="43.4611129" lon="16.6802525"><ele>255.0</ele><time>2026-05-04T15:07:29.579Z</time></trkpt><trkpt lat="43.4611357" lon="16.6805474"><ele>252.5</ele><time>2026-05-04T15:07:30.58Z</time></trkpt><trkpt lat="43.4611723" lon="16.6808756"><ele>250.0</ele><time>2026-05-04T15:07:31.58Z</time></trkpt><trkpt lat="43.4612188" lon="16.6812147"><ele>247.5</ele><time>2026-05-04T15:07:32.579Z</time></trkpt><trkpt lat="43.4612633" lon="16.6815503"><ele>245.0</ele><time>2026-05-04T15:07:33.579Z</time></trkpt><trkpt lat="43.4613024" lon="16.6818593"><ele>256.0</ele><time>2026-05-04T15:07:34.58Z</time></trkpt><trkpt lat="43.4613322" lon="16.6821563"><ele>267.0</ele><time>2026-05-04T15:07:35.58Z</time></trkpt><trkpt lat="43.4613427" lon="16.6824275"><ele>278.0</ele><time>2026-05-04T15:07:36.579Z</time></trkpt><trkpt lat="43.46133" lon="16.6826798"><ele>278.25</ele><time>2026-05-04T15:07:37.58Z</time></trkpt><trkpt lat="43.4613032" lon="16.6828845"><ele>278.5</ele><time>2026-05-04T15:07:38.579Z</time></trkpt><trkpt lat="43.4612773" lon="16.6830483"><ele>278.75</ele><time>2026-05-04T15:07:39.579Z</time></trkpt><trkpt lat="43.4612707" lon="16.6831817"><ele>279.0</ele><time>2026-05-04T15:07:40.58Z</time></trkpt><trkpt lat="43.4612956" lon="16.6832936"><ele>279.0</ele><time>2026-05-04T15:07:41.58Z</time></trkpt><trkpt lat="43.4613563" lon="16.6833708"><ele>279.0</ele><time>2026-05-04T15:07:42.579Z</time></trkpt><trkpt lat="43.4614372" lon="16.6833981"><ele>279.0</ele><time>2026-05-04T15:07:43.579Z</time></trkpt><trkpt lat="43.4615171" lon="16.6833636"><ele>279.0</ele><time>2026-05-04T15:07:44.579Z</time></trkpt><trkpt lat="43.461571" lon="16.6832738"><ele>279.0</ele><time>2026-05-04T15:07:45.58Z</time></trkpt><trkpt lat="43.4615932" lon="16.6831316"><ele>279.0</ele><time>2026-05-04T15:07:46.58Z</time></trkpt><trkpt lat="43.4615826" lon="16.6829444"><ele>278.6666666666667</ele><time>2026-05-04T15:07:47.579Z</time></trkpt><trkpt lat="43.4615548" lon="16.6827244"><ele>278.33333333333337</ele><time>2026-05-04T15:07:48.58Z</time></trkpt><trkpt lat="43.4615348" lon="16.6824787"><ele>278.0</ele><time>2026-05-04T15:07:49.579Z</time></trkpt><trkpt lat="43.4615274" lon="16.6822018"><ele>278.0</ele><time>2026-05-04T15:07:50.58Z</time></trkpt><trkpt lat="43.4615396" lon="16.6818937"><ele>278.0</ele><time>2026-05-04T15:07:51.58Z</time></trkpt><trkpt lat="43.4615755" lon="16.6815703"><ele>278.0</ele><time>2026-05-04T15:07:52.58Z</time></trkpt><trkpt lat="43.4616182" lon="16.681243"><ele>278.0</ele><time>2026-05-04T15:07:53.58Z</time></trkpt><trkpt lat="43.461657" lon="16.6809039"><ele>278.0</ele><time>2026-05-04T15:07:54.58Z</time></trkpt><trkpt lat="43.4616819" lon="16.6805707"><ele>278.0</ele><time>2026-05-04T15:07:55.579Z</time></trkpt><trkpt lat="43.461687" lon="16.6802544"><ele>278.0</ele><time>2026-05-04T15:07:56.58Z</time></trkpt><trkpt lat="43.4616948" lon="16.6799601"><ele>278.0</ele><time>2026-05-04T15:07:57.58Z</time></trkpt><trkpt lat="43.4617139" lon="16.6796706"><ele>278.0</ele><time>2026-05-04T15:07:58.579Z</time></trkpt><trkpt lat="43.4617537" lon="16.6793831"><ele>277.6666666666667</ele><time>2026-05-04T15:07:59.58Z</time></trkpt><trkpt lat="43.4618157" lon="16.6790924"><ele>277.3333333333333</ele><time>2026-05-04T15:08:00.58Z</time></trkpt><trkpt lat="43.4618894" lon="16.6788177"><ele>277.0</ele><time>2026-05-04T15:08:01.58Z</time></trkpt><trkpt lat="43.4619567" lon="16.6785465"><ele>277.0</ele><time>2026-05-04T15:08:02.58Z</time></trkpt><trkpt lat="43.4620083" lon="16.6782875"><ele>277.0</ele><time>2026-05-04T15:08:03.579Z</time></trkpt><trkpt lat="43.4620394" lon="16.6780335"><ele>277.0</ele><time>2026-05-04T15:08:04.579Z</time></trkpt><trkpt lat="43.462052" lon="16.6777947"><ele>277.0</ele><time>2026-05-04T15:08:05.58Z</time></trkpt><trkpt lat="43.4620514" lon="16.6775559"><ele>277.0</ele><time>2026-05-04T15:08:06.58Z</time></trkpt><trkpt lat="43.4620546" lon="16.6773305"><ele>277.0</ele><time>2026-05-04T15:08:07.58Z</time></trkpt><trkpt lat="43.4620689" lon="16.6771384"><ele>277.0</ele><time>2026-05-04T15:08:08.58Z</time></trkpt><trkpt lat="43.4621059" lon="16.6769889"><ele>277.0</ele><time>2026-05-04T15:08:09.579Z</time></trkpt><trkpt lat="43.4621639" lon="16.6768699"><ele>277.0</ele><time>2026-05-04T15:08:10.58Z</time></trkpt><trkpt lat="43.4622279" lon="16.6767878"><ele>277.0</ele><time>2026-05-04T15:08:11.579Z</time></trkpt><trkpt lat="43.4622851" lon="16.6767432"><ele>277.0</ele><time>2026-05-04T15:08:12.58Z</time></trkpt><trkpt lat="43.462349" lon="16.6767138"><ele>277.0</ele><time>2026-05-04T15:08:14.579Z</time></trkpt><trkpt lat="43.4624032" lon="16.676669"><ele>281.5</ele><time>2026-05-04T15:08:16.58Z</time></trkpt><trkpt lat="43.4624345" lon="16.6764825"><ele>286.0</ele><time>2026-05-04T15:08:18.579Z</time></trkpt><trkpt lat="43.462423" lon="16.6763388"><ele>290.5</ele><time>2026-05-04T15:08:19.58Z</time></trkpt><trkpt lat="43.4624069" lon="16.6761798"><ele>295.0</ele><time>2026-05-04T15:08:20.579Z</time></trkpt><trkpt lat="43.4623869" lon="16.6760029"><ele>295.75</ele><time>2026-05-04T15:08:21.579Z</time></trkpt><trkpt lat="43.4623764" lon="16.6758127"><ele>296.5</ele><time>2026-05-04T15:08:22.58Z</time></trkpt><trkpt lat="43.4623759" lon="16.6756075"><ele>297.25</ele><time>2026-05-04T15:08:23.58Z</time></trkpt><trkpt lat="43.4623886" lon="16.6753945"><ele>298.0</ele><time>2026-05-04T15:08:24.579Z</time></trkpt><trkpt lat="43.4624134" lon="16.6751693"><ele>298.66666666666663</ele><time>2026-05-04T15:08:25.58Z</time></trkpt><trkpt lat="43.4624451" lon="16.6749455"><ele>299.3333333333333</ele><time>2026-05-04T15:08:26.58Z</time></trkpt><trkpt lat="43.4624838" lon="16.6747151"><ele>300.0</ele><time>2026-05-04T15:08:27.579Z</time></trkpt><trkpt lat="43.4625207" lon="16.67449"><ele>298.3333333333333</ele><time>2026-05-04T15:08:28.579Z</time></trkpt><trkpt lat="43.462561" lon="16.6742652"><ele>296.66666666666663</ele><time>2026-05-04T15:08:29.58Z</time></trkpt><trkpt lat="43.4626066" lon="16.6740451"><ele>295.0</ele><time>2026-05-04T15:08:30.58Z</time></trkpt><trkpt lat="43.4626528" lon="16.673825"><ele>295.66666666666663</ele><time>2026-05-04T15:08:31.579Z</time></trkpt><trkpt lat="43.462695" lon="16.6735937"><ele>296.3333333333333</ele><time>2026-05-04T15:08:32.58Z</time></trkpt><trkpt lat="43.4627218" lon="16.6733653"><ele>297.0</ele><time>2026-05-04T15:08:33.579Z</time></trkpt><trkpt lat="43.4627394" lon="16.6731352"><ele>297.0</ele><time>2026-05-04T15:08:34.58Z</time></trkpt><trkpt lat="43.4627489" lon="16.6729064"><ele>297.0</ele><time>2026-05-04T15:08:35.58Z</time></trkpt><trkpt lat="43.4627543" lon="16.6726747"><ele>297.0</ele><time>2026-05-04T15:08:36.579Z</time></trkpt><trkpt lat="43.4627533" lon="16.6724487"><ele>297.0</ele><time>2026-05-04T15:08:37.58Z</time></trkpt><trkpt lat="43.4627621" lon="16.6722203"><ele>297.0</ele><time>2026-05-04T15:08:38.579Z</time></trkpt><trkpt lat="43.4627759" lon="16.6719993"><ele>297.0</ele><time>2026-05-04T15:08:39.579Z</time></trkpt><trkpt lat="43.4628001" lon="16.6717816"><ele>297.3333333333333</ele><time>2026-05-04T15:08:40.579Z</time></trkpt><trkpt lat="43.4628332" lon="16.671577"><ele>297.66666666666663</ele><time>2026-05-04T15:08:41.58Z</time></trkpt><trkpt lat="43.4628866" lon="16.6713693"><ele>298.0</ele><time>2026-05-04T15:08:42.579Z</time></trkpt><trkpt lat="43.4629445" lon="16.6711655"><ele>302.66666666666663</ele><time>2026-05-04T15:08:43.579Z</time></trkpt><trkpt lat="43.4630052" lon="16.6709626"><ele>307.3333333333333</ele><time>2026-05-04T15:08:44.58Z</time></trkpt><trkpt lat="43.4630702" lon="16.6707731"><ele>312.0</ele><time>2026-05-04T15:08:45.58Z</time></trkpt><trkpt lat="43.4631325" lon="16.6705923"><ele>312.0</ele><time>2026-05-04T15:08:46.579Z</time></trkpt><trkpt lat="43.4631965" lon="16.6704177"><ele>312.0</ele><time>2026-05-04T15:08:47.58Z</time></trkpt><trkpt lat="43.4632586" lon="16.6702454"><ele>312.0</ele><time>2026-05-04T15:08:48.579Z</time></trkpt><trkpt lat="43.4633256" lon="16.6700732"><ele>312.0</ele><time>2026-05-04T15:08:49.579Z</time></trkpt><trkpt lat="43.4633953" lon="16.6699029"><ele>310.5</ele><time>2026-05-04T15:08:50.58Z</time></trkpt><trkpt lat="43.4634685" lon="16.6697315"><ele>309.0</ele><time>2026-05-04T15:08:51.58Z</time></trkpt><trkpt lat="43.4635457" lon="16.6695712"><ele>307.5</ele><time>2026-05-04T15:08:52.58Z</time></trkpt><trkpt lat="43.4636222" lon="16.6694026"><ele>306.0</ele><time>2026-05-04T15:08:53.58Z</time></trkpt><trkpt lat="43.4636978" lon="16.6692371"><ele>306.5</ele><time>2026-05-04T15:08:54.579Z</time></trkpt><trkpt lat="43.463782" lon="16.6690661"><ele>307.0</ele><time>2026-05-04T15:08:55.58Z</time></trkpt><trkpt lat="43.463868" lon="16.6689063"><ele>307.5</ele><time>2026-05-04T15:08:56.579Z</time></trkpt><trkpt lat="43.4639534" lon="16.6687504"><ele>308.0</ele><time>2026-05-04T15:08:57.58Z</time></trkpt><trkpt lat="43.4640422" lon="16.6686014"><ele>308.0</ele><time>2026-05-04T15:08:58.58Z</time></trkpt><trkpt lat="43.4641371" lon="16.6684533"><ele>308.0</ele><time>2026-05-04T15:08:59.579Z</time></trkpt><trkpt lat="43.4642358" lon="16.6683084"><ele>308.0</ele><time>2026-05-04T15:09:00.58Z</time></trkpt><trkpt lat="43.4643307" lon="16.6681699"><ele>308.0</ele><time>2026-05-04T15:09:01.579Z</time></trkpt><trkpt lat="43.4644258" lon="16.6680351"><ele>308.0</ele><time>2026-05-04T15:09:02.579Z</time></trkpt><trkpt lat="43.4645183" lon="16.6678989"><ele>308.0</ele><time>2026-05-04T15:09:03.58Z</time></trkpt><trkpt lat="43.4646082" lon="16.6677559"><ele>308.0</ele><time>2026-05-04T15:09:04.58Z</time></trkpt><trkpt lat="43.4646926" lon="16.6676064"><ele>308.0</ele><time>2026-05-04T15:09:05.579Z</time></trkpt><trkpt lat="43.4647748" lon="16.6674489"><ele>308.25</ele><time>2026-05-04T15:09:06.579Z</time></trkpt><trkpt lat="43.4648593" lon="16.6672778"><ele>308.5</ele><time>2026-05-04T15:09:07.58Z</time></trkpt><trkpt lat="43.4649386" lon="16.6671081"><ele>308.75</ele><time>2026-05-04T15:09:08.58Z</time></trkpt><trkpt lat="43.4650153" lon="16.6669439"><ele>309.0</ele><time>2026-05-04T15:09:09.579Z</time></trkpt><trkpt lat="43.4650928" lon="16.6667932"><ele>309.0</ele><time>2026-05-04T15:09:10.58Z</time></trkpt><trkpt lat="43.4651717" lon="16.6666358"><ele>309.0</ele><time>2026-05-04T15:09:11.58Z</time></trkpt><trkpt lat="43.4652508" lon="16.6664929"><ele>309.0</ele><time>2026-05-04T15:09:12.58Z</time></trkpt><trkpt lat="43.465335" lon="16.6663483"><ele>309.0</ele><time>2026-05-04T15:09:13.579Z</time></trkpt><trkpt lat="43.4654167" lon="16.6662025"><ele>311.75</ele><time>2026-05-04T15:09:14.58Z</time></trkpt><trkpt lat="43.4654962" lon="16.666045"><ele>314.5</ele><time>2026-05-04T15:09:15.579Z</time></trkpt><trkpt lat="43.4655666" lon="16.6658848"><ele>317.25</ele><time>2026-05-04T15:09:16.579Z</time></trkpt><trkpt lat="43.465635" lon="16.6657253"><ele>320.0</ele><time>2026-05-04T15:09:17.579Z</time></trkpt><trkpt lat="43.4656977" lon="16.6655721"><ele>320.0</ele><time>2026-05-04T15:09:18.579Z</time></trkpt><trkpt lat="43.4657539" lon="16.6654117"><ele>320.0</ele><time>2026-05-04T15:09:19.579Z</time></trkpt><trkpt lat="43.465801" lon="16.6652497"><ele>320.0</ele><time>2026-05-04T15:09:20.58Z</time></trkpt><trkpt lat="43.4658435" lon="16.6650866"><ele>320.0</ele><time>2026-05-04T15:09:21.58Z</time></trkpt><trkpt lat="43.465882" lon="16.664926"><ele>319.75</ele><time>2026-05-04T15:09:22.579Z</time></trkpt><trkpt lat="43.4659253" lon="16.6647603"><ele>319.5</ele><time>2026-05-04T15:09:23.579Z</time></trkpt><trkpt lat="43.4659754" lon="16.6645928"><ele>319.25</ele><time>2026-05-04T15:09:24.58Z</time></trkpt><trkpt lat="43.4660374" lon="16.6644287"><ele>319.0</ele><time>2026-05-04T15:09:25.579Z</time></trkpt><trkpt lat="43.466113" lon="16.6642718"><ele>319.0</ele><time>2026-05-04T15:09:26.58Z</time></trkpt><trkpt lat="43.466203" lon="16.6641202"><ele>319.0</ele><time>2026-05-04T15:09:27.58Z</time></trkpt><trkpt lat="43.466301" lon="16.6639681"><ele>319.0</ele><time>2026-05-04T15:09:28.58Z</time></trkpt><trkpt lat="43.4663966" lon="16.6638183"><ele>319.0</ele><time>2026-05-04T15:09:29.579Z</time></trkpt><trkpt lat="43.466487" lon="16.663672"><ele>319.0</ele><time>2026-05-04T15:09:30.579Z</time></trkpt><trkpt lat="43.4665757" lon="16.6635154"><ele>319.0</ele><time>2026-05-04T15:09:31.579Z</time></trkpt><trkpt lat="43.4666583" lon="16.6633568"><ele>319.0</ele><time>2026-05-04T15:09:32.58Z</time></trkpt><trkpt lat="43.4667377" lon="16.6631941"><ele>319.0</ele><time>2026-05-04T15:09:33.579Z</time></trkpt><trkpt lat="43.4668146" lon="16.6630339"><ele>319.0</ele><time>2026-05-04T15:09:34.58Z</time></trkpt><trkpt lat="43.4668936" lon="16.6628712"><ele>319.0</ele><time>2026-05-04T15:09:35.579Z</time></trkpt><trkpt lat="43.4669695" lon="16.6627151"><ele>319.0</ele><time>2026-05-04T15:09:36.58Z</time></trkpt><trkpt lat="43.4670423" lon="16.6625633"><ele>319.0</ele><time>2026-05-04T15:09:37.58Z</time></trkpt><trkpt lat="43.4671158" lon="16.6624166"><ele>320.5</ele><time>2026-05-04T15:09:38.579Z</time></trkpt><trkpt lat="43.4671908" lon="16.6622635"><ele>322.0</ele><time>2026-05-04T15:09:39.58Z</time></trkpt><trkpt lat="43.4672645" lon="16.6621081"><ele>323.5</ele><time>2026-05-04T15:09:40.58Z</time></trkpt><trkpt lat="43.4673375" lon="16.6619557"><ele>325.0</ele><time>2026-05-04T15:09:41.58Z</time></trkpt><trkpt lat="43.46741" lon="16.6618094"><ele>325.0</ele><time>2026-05-04T15:09:42.58Z</time></trkpt><trkpt lat="43.4674846" lon="16.6616655"><ele>325.0</ele><time>2026-05-04T15:09:43.579Z</time></trkpt><trkpt lat="43.4675618" lon="16.6615279"><ele>325.0</ele><time>2026-05-04T15:09:44.579Z</time></trkpt><trkpt lat="43.4676416" lon="16.6613897"><ele>325.0</ele><time>2026-05-04T15:09:45.58Z</time></trkpt><trkpt lat="43.4677187" lon="16.6612508"><ele>324.75</ele><time>2026-05-04T15:09:46.579Z</time></trkpt><trkpt lat="43.4677984" lon="16.6611043"><ele>324.5</ele><time>2026-05-04T15:09:47.58Z</time></trkpt><trkpt lat="43.4678687" lon="16.6609625"><ele>324.25</ele><time>2026-05-04T15:09:48.58Z</time></trkpt><trkpt lat="43.4679387" lon="16.6608202"><ele>324.0</ele><time>2026-05-04T15:09:49.58Z</time></trkpt><trkpt lat="43.4680061" lon="16.6606796"><ele>324.0</ele><time>2026-05-04T15:09:50.58Z</time></trkpt><trkpt lat="43.4680732" lon="16.6605332"><ele>324.0</ele><time>2026-05-04T15:09:51.58Z</time></trkpt><trkpt lat="43.4681372" lon="16.6603896"><ele>324.0</ele><time>2026-05-04T15:09:52.579Z</time></trkpt><trkpt lat="43.4681997" lon="16.6602466"><ele>324.0</ele><time>2026-05-04T15:09:53.579Z</time></trkpt><trkpt lat="43.4682601" lon="16.6601028"><ele>322.0</ele><time>2026-05-04T15:09:54.58Z</time></trkpt><trkpt lat="43.4683222" lon="16.6599524"><ele>320.0</ele><time>2026-05-04T15:09:55.579Z</time></trkpt><trkpt lat="43.4683896" lon="16.6597893"><ele>318.0</ele><time>2026-05-04T15:09:56.579Z</time></trkpt><trkpt lat="43.468461" lon="16.6596133"><ele>316.0</ele><time>2026-05-04T15:09:57.579Z</time></trkpt><trkpt lat="43.4685374" lon="16.6594297"><ele>317.66666666666663</ele><time>2026-05-04T15:09:58.579Z</time></trkpt><trkpt lat="43.4686205" lon="16.6592323"><ele>319.3333333333333</ele><time>2026-05-04T15:09:59.58Z</time></trkpt><trkpt lat="43.4687103" lon="16.6590287"><ele>321.0</ele><time>2026-05-04T15:10:00.579Z</time></trkpt><trkpt lat="43.4687979" lon="16.6588257"><ele>321.0</ele><time>2026-05-04T15:10:01.58Z</time></trkpt><trkpt lat="43.4688806" lon="16.6586328"><ele>321.0</ele><time>2026-05-04T15:10:02.579Z</time></trkpt><trkpt lat="43.4689625" lon="16.6584404"><ele>321.0</ele><time>2026-05-04T15:10:03.58Z</time></trkpt><trkpt lat="43.4690393" lon="16.6582597"><ele>319.25</ele><time>2026-05-04T15:10:04.579Z</time></trkpt><trkpt lat="43.4691144" lon="16.6580853"><ele>317.5</ele><time>2026-05-04T15:10:05.579Z</time></trkpt><trkpt lat="43.4691893" lon="16.6579133"><ele>315.75</ele><time>2026-05-04T15:10:06.58Z</time></trkpt><trkpt lat="43.4692663" lon="16.6577331"><ele>314.0</ele><time>2026-05-04T15:10:07.58Z</time></trkpt><trkpt lat="43.4693432" lon="16.6575556"><ele>312.0</ele><time>2026-05-04T15:10:08.58Z</time></trkpt><trkpt lat="43.469419" lon="16.6573765"><ele>310.0</ele><time>2026-05-04T15:10:09.58Z</time></trkpt><trkpt lat="43.4694956" lon="16.6571997"><ele>308.0</ele><time>2026-05-04T15:10:10.58Z</time></trkpt><trkpt lat="43.4695748" lon="16.6570178"><ele>309.6666666666667</ele><time>2026-05-04T15:10:11.58Z</time></trkpt><trkpt lat="43.4696561" lon="16.6568325"><ele>311.3333333333333</ele><time>2026-05-04T15:10:12.58Z</time></trkpt><trkpt lat="43.4697345" lon="16.6566512"><ele>313.0</ele><time>2026-05-04T15:10:13.579Z</time></trkpt><trkpt lat="43.4698113" lon="16.6564834"><ele>313.0</ele><time>2026-05-04T15:10:14.579Z</time></trkpt><trkpt lat="43.4698926" lon="16.6563161"><ele>313.0</ele><time>2026-05-04T15:10:15.58Z</time></trkpt><trkpt lat="43.4699746" lon="16.6561454"><ele>313.0</ele><time>2026-05-04T15:10:16.58Z</time></trkpt><trkpt lat="43.4700526" lon="16.6559782"><ele>313.0</ele><time>2026-05-04T15:10:17.58Z</time></trkpt><trkpt lat="43.4701282" lon="16.6558116"><ele>311.75</ele><time>2026-05-04T15:10:18.58Z</time></trkpt><trkpt lat="43.4702001" lon="16.6556376"><ele>310.5</ele><time>2026-05-04T15:10:19.58Z</time></trkpt><trkpt lat="43.4702663" lon="16.6554535"><ele>309.25</ele><time>2026-05-04T15:10:20.58Z</time></trkpt><trkpt lat="43.4703206" lon="16.6552715"><ele>308.0</ele><time>2026-05-04T15:10:21.579Z</time></trkpt><trkpt lat="43.4703649" lon="16.6550947"><ele>307.25</ele><time>2026-05-04T15:10:22.58Z</time></trkpt><trkpt lat="43.4704013" lon="16.6549199"><ele>306.5</ele><time>2026-05-04T15:10:23.579Z</time></trkpt><trkpt lat="43.4704325" lon="16.6547443"><ele>305.75</ele><time>2026-05-04T15:10:24.579Z</time></trkpt><trkpt lat="43.4704569" lon="16.6545698"><ele>305.0</ele><time>2026-05-04T15:10:25.579Z</time></trkpt><trkpt lat="43.4704782" lon="16.6543973"><ele>306.5</ele><time>2026-05-04T15:10:26.579Z</time></trkpt><trkpt lat="43.4704961" lon="16.654225"><ele>308.0</ele><time>2026-05-04T15:10:27.579Z</time></trkpt><trkpt lat="43.4705112" lon="16.6540575"><ele>309.5</ele><time>2026-05-04T15:10:28.579Z</time></trkpt><trkpt lat="43.4705256" lon="16.6539049"><ele>311.0</ele><time>2026-05-04T15:10:29.58Z</time></trkpt><trkpt lat="43.4705406" lon="16.6537637"><ele>310.8</ele><time>2026-05-04T15:10:30.58Z</time></trkpt><trkpt lat="43.4705604" lon="16.6536187"><ele>310.6</ele><time>2026-05-04T15:10:31.579Z</time></trkpt><trkpt lat="43.4705829" lon="16.6534711"><ele>310.4</ele><time>2026-05-04T15:10:32.579Z</time></trkpt><trkpt lat="43.4706106" lon="16.6533207"><ele>310.2</ele><time>2026-05-04T15:10:33.58Z</time></trkpt><trkpt lat="43.4706465" lon="16.6531741"><ele>310.0</ele><time>2026-05-04T15:10:34.579Z</time></trkpt><trkpt lat="43.4706867" lon="16.6530343"><ele>310.0</ele><time>2026-05-04T15:10:35.58Z</time></trkpt><trkpt lat="43.4707348" lon="16.6528904"><ele>310.0</ele><time>2026-05-04T15:10:36.58Z</time></trkpt><trkpt lat="43.4707888" lon="16.6527507"><ele>310.0</ele><time>2026-05-04T15:10:37.579Z</time></trkpt><trkpt lat="43.4708447" lon="16.6526215"><ele>310.0</ele><time>2026-05-04T15:10:38.58Z</time></trkpt><trkpt lat="43.4709005" lon="16.6525045"><ele>310.0</ele><time>2026-05-04T15:10:39.579Z</time></trkpt><trkpt lat="43.4709529" lon="16.6523984"><ele>310.3333333333333</ele><time>2026-05-04T15:10:40.58Z</time></trkpt><trkpt lat="43.4710022" lon="16.6523032"><ele>310.66666666666663</ele><time>2026-05-04T15:10:41.579Z</time></trkpt><trkpt lat="43.4710497" lon="16.6522164"><ele>311.0</ele><time>2026-05-04T15:10:42.58Z</time></trkpt><trkpt lat="43.4710987" lon="16.6521289"><ele>311.3333333333333</ele><time>2026-05-04T15:10:43.58Z</time></trkpt><trkpt lat="43.4711491" lon="16.6520455"><ele>311.6666666666667</ele><time>2026-05-04T15:10:44.579Z</time></trkpt><trkpt lat="43.4711995" lon="16.651966"><ele>312.0</ele><time>2026-05-04T15:10:45.579Z</time></trkpt><trkpt lat="43.4712492" lon="16.6518872"><ele>312.0</ele><time>2026-05-04T15:10:46.58Z</time></trkpt><trkpt lat="43.471299" lon="16.6518128"><ele>312.0</ele><time>2026-05-04T15:10:47.579Z</time></trkpt><trkpt lat="43.4713443" lon="16.6517434"><ele>312.0</ele><time>2026-05-04T15:10:48.579Z</time></trkpt><trkpt lat="43.4714157" lon="16.6516424"><ele>312.0</ele><time>2026-05-04T15:10:50.579Z</time></trkpt><trkpt lat="43.471483" lon="16.6515542"><ele>312.0</ele><time>2026-05-04T15:10:52.58Z</time></trkpt><trkpt lat="43.4715557" lon="16.651462"><ele>312.0</ele><time>2026-05-04T15:10:54.58Z</time></trkpt><trkpt lat="43.4716319" lon="16.6513706"><ele>312.0</ele><time>2026-05-04T15:10:56.579Z</time></trkpt><trkpt lat="43.4717143" lon="16.6512716"><ele>312.0</ele><time>2026-05-04T15:10:58.579Z</time></trkpt><trkpt lat="43.471762" lon="16.6512138"><ele>312.0</ele><time>2026-05-04T15:10:59.58Z</time></trkpt><trkpt lat="43.4718158" lon="16.6511517"><ele>312.0</ele><time>2026-05-04T15:11:00.58Z</time></trkpt><trkpt lat="43.4718672" lon="16.6510931"><ele>312.0</ele><time>2026-05-04T15:11:01.579Z</time></trkpt><trkpt lat="43.4719179" lon="16.6510362"><ele>312.0</ele><time>2026-05-04T15:11:02.579Z</time></trkpt><trkpt lat="43.4720103" lon="16.65093"><ele>312.4</ele><time>2026-05-04T15:11:04.579Z</time></trkpt><trkpt lat="43.4720883" lon="16.650839"><ele>312.79999999999995</ele><time>2026-05-04T15:11:06.58Z</time></trkpt><trkpt lat="43.4721605" lon="16.6507505"><ele>313.2</ele><time>2026-05-04T15:11:08.579Z</time></trkpt><trkpt lat="43.4722321" lon="16.6506566"><ele>313.59999999999997</ele><time>2026-05-04T15:11:10.58Z</time></trkpt><trkpt lat="43.4723071" lon="16.650556"><ele>314.0</ele><time>2026-05-04T15:11:12.58Z</time></trkpt><trkpt lat="43.4723818" lon="16.6504278"><ele>314.1428571428571</ele><time>2026-05-04T15:11:14.58Z</time></trkpt><trkpt lat="43.4724174" lon="16.6503557"><ele>314.2857142857143</ele><time>2026-05-04T15:11:15.58Z</time></trkpt><trkpt lat="43.4724532" lon="16.65028"><ele>314.42857142857144</ele><time>2026-05-04T15:11:16.579Z</time></trkpt><trkpt lat="43.4724875" lon="16.6501984"><ele>314.57142857142856</ele><time>2026-05-04T15:11:17.579Z</time></trkpt><trkpt lat="43.4725194" lon="16.65011"><ele>314.7142857142857</ele><time>2026-05-04T15:11:18.579Z</time></trkpt><trkpt lat="43.4725507" lon="16.6500077"><ele>314.85714285714283</ele><time>2026-05-04T15:11:19.579Z</time></trkpt><trkpt lat="43.472589" lon="16.6498843"><ele>315.0</ele><time>2026-05-04T15:11:20.58Z</time></trkpt><trkpt lat="43.472633" lon="16.649761"><ele>315.1666666666667</ele><time>2026-05-04T15:11:21.58Z</time></trkpt><trkpt lat="43.4726749" lon="16.6496513"><ele>315.3333333333333</ele><time>2026-05-04T15:11:22.579Z</time></trkpt><trkpt lat="43.4727136" lon="16.6495544"><ele>315.5</ele><time>2026-05-04T15:11:23.579Z</time></trkpt><trkpt lat="43.4727511" lon="16.6494548"><ele>315.66666666666663</ele><time>2026-05-04T15:11:24.58Z</time></trkpt><trkpt lat="43.4727934" lon="16.64934"><ele>315.8333333333333</ele><time>2026-05-04T15:11:25.579Z</time></trkpt><trkpt lat="43.4728413" lon="16.6492156"><ele>316.0</ele><time>2026-05-04T15:11:26.58Z</time></trkpt><trkpt lat="43.4728948" lon="16.6490724"><ele>314.75</ele><time>2026-05-04T15:11:27.579Z</time></trkpt><trkpt lat="43.4729468" lon="16.6489292"><ele>313.5</ele><time>2026-05-04T15:11:28.58Z</time></trkpt><trkpt lat="43.4729995" lon="16.6487851"><ele>312.25</ele><time>2026-05-04T15:11:29.58Z</time></trkpt><trkpt lat="43.4730626" lon="16.6486251"><ele>311.0</ele><time>2026-05-04T15:11:30.58Z</time></trkpt><trkpt lat="43.4731409" lon="16.6484223"><ele>310.0</ele><time>2026-05-04T15:11:31.579Z</time></trkpt><trkpt lat="43.4732279" lon="16.6482056"><ele>309.0</ele><time>2026-05-04T15:11:32.579Z</time></trkpt><trkpt lat="43.4733169" lon="16.6479817"><ele>308.0</ele><time>2026-05-04T15:11:33.579Z</time></trkpt><trkpt lat="43.4734014" lon="16.6477596"><ele>308.0</ele><time>2026-05-04T15:11:34.579Z</time></trkpt><trkpt lat="43.4734809" lon="16.6475241"><ele>308.0</ele><time>2026-05-04T15:11:35.58Z</time></trkpt><trkpt lat="43.4735507" lon="16.647294"><ele>308.0</ele><time>2026-05-04T15:11:36.58Z</time></trkpt><trkpt lat="43.473618" lon="16.6470652"><ele>309.0</ele><time>2026-05-04T15:11:37.58Z</time></trkpt><trkpt lat="43.473681" lon="16.6468536"><ele>310.0</ele><time>2026-05-04T15:11:38.58Z</time></trkpt><trkpt lat="43.4737473" lon="16.6466465"><ele>311.0</ele><time>2026-05-04T15:11:39.579Z</time></trkpt><trkpt lat="43.4738174" lon="16.6464418"><ele>307.0</ele><time>2026-05-04T15:11:40.579Z</time></trkpt><trkpt lat="43.4738942" lon="16.6462335"><ele>303.0</ele><time>2026-05-04T15:11:41.579Z</time></trkpt><trkpt lat="43.473973" lon="16.6460301"><ele>299.0</ele><time>2026-05-04T15:11:42.58Z</time></trkpt><trkpt lat="43.4740555" lon="16.6458215"><ele>298.0</ele><time>2026-05-04T15:11:43.579Z</time></trkpt><trkpt lat="43.4741382" lon="16.6456085"><ele>297.0</ele><time>2026-05-04T15:11:44.579Z</time></trkpt><trkpt lat="43.4742182" lon="16.6453983"><ele>296.0</ele><time>2026-05-04T15:11:45.58Z</time></trkpt><trkpt lat="43.4742947" lon="16.6451925"><ele>298.0</ele><time>2026-05-04T15:11:46.58Z</time></trkpt><trkpt lat="43.4743676" lon="16.6449742"><ele>300.0</ele><time>2026-05-04T15:11:47.579Z</time></trkpt><trkpt lat="43.4744354" lon="16.6447536"><ele>302.0</ele><time>2026-05-04T15:11:48.579Z</time></trkpt><trkpt lat="43.4744936" lon="16.6445267"><ele>303.6666666666667</ele><time>2026-05-04T15:11:49.58Z</time></trkpt><trkpt lat="43.4745462" lon="16.6443045"><ele>305.3333333333333</ele><time>2026-05-04T15:11:50.579Z</time></trkpt><trkpt lat="43.4745941" lon="16.644077"><ele>307.0</ele><time>2026-05-04T15:11:51.579Z</time></trkpt><trkpt lat="43.4746372" lon="16.6438561"><ele>300.3333333333333</ele><time>2026-05-04T15:11:52.579Z</time></trkpt><trkpt lat="43.4746723" lon="16.6436341"><ele>293.6666666666667</ele><time>2026-05-04T15:11:53.58Z</time></trkpt><trkpt lat="43.4746907" lon="16.6434099"><ele>287.0</ele><time>2026-05-04T15:11:54.579Z</time></trkpt><trkpt lat="43.4746994" lon="16.6431871"><ele>286.33333333333337</ele><time>2026-05-04T15:11:55.579Z</time></trkpt><trkpt lat="43.4747016" lon="16.6429661"><ele>285.6666666666667</ele><time>2026-05-04T15:11:56.58Z</time></trkpt><trkpt lat="43.4746977" lon="16.6427544"><ele>285.0</ele><time>2026-05-04T15:11:57.58Z</time></trkpt><trkpt lat="43.4746857" lon="16.6425505"><ele>284.0</ele><time>2026-05-04T15:11:58.58Z</time></trkpt><trkpt lat="43.47466" lon="16.6423442"><ele>283.0</ele><time>2026-05-04T15:11:59.58Z</time></trkpt><trkpt lat="43.474619" lon="16.6421362"><ele>282.0</ele><time>2026-05-04T15:12:00.58Z</time></trkpt><trkpt lat="43.4745616" lon="16.6419396"><ele>282.0</ele><time>2026-05-04T15:12:01.58Z</time></trkpt><trkpt lat="43.4745013" lon="16.6417555"><ele>282.0</ele><time>2026-05-04T15:12:02.579Z</time></trkpt><trkpt lat="43.474444" lon="16.6415728"><ele>282.0</ele><time>2026-05-04T15:12:03.58Z</time></trkpt><trkpt lat="43.4743854" lon="16.6413991"><ele>282.0</ele><time>2026-05-04T15:12:04.579Z</time></trkpt><trkpt lat="43.4743206" lon="16.6412383"><ele>279.75</ele><time>2026-05-04T15:12:05.58Z</time></trkpt><trkpt lat="43.4742397" lon="16.6410911"><ele>277.5</ele><time>2026-05-04T15:12:06.58Z</time></trkpt><trkpt lat="43.474136" lon="16.6409511"><ele>275.25</ele><time>2026-05-04T15:12:07.579Z</time></trkpt><trkpt lat="43.4740219" lon="16.640819"><ele>273.0</ele><time>2026-05-04T15:12:08.58Z</time></trkpt><trkpt lat="43.4739062" lon="16.6406892"><ele>273.0</ele><time>2026-05-04T15:12:09.579Z</time></trkpt><trkpt lat="43.4737957" lon="16.6405649"><ele>273.0</ele><time>2026-05-04T15:12:10.579Z</time></trkpt><trkpt lat="43.4736868" lon="16.6404347"><ele>273.0</ele><time>2026-05-04T15:12:11.579Z</time></trkpt><trkpt lat="43.4735945" lon="16.6402974"><ele>273.0</ele><time>2026-05-04T15:12:12.58Z</time></trkpt><trkpt lat="43.473527" lon="16.6401442"><ele>273.75</ele><time>2026-05-04T15:12:13.58Z</time></trkpt><trkpt lat="43.4734887" lon="16.6399774"><ele>274.5</ele><time>2026-05-04T15:12:14.58Z</time></trkpt><trkpt lat="43.4734718" lon="16.6397864"><ele>275.25</ele><time>2026-05-04T15:12:15.58Z</time></trkpt><trkpt lat="43.473476" lon="16.6395793"><ele>276.0</ele><time>2026-05-04T15:12:16.58Z</time></trkpt><trkpt lat="43.4734902" lon="16.6393624"><ele>276.6666666666667</ele><time>2026-05-04T15:12:17.58Z</time></trkpt><trkpt lat="43.4735073" lon="16.6391411"><ele>277.33333333333337</ele><time>2026-05-04T15:12:18.579Z</time></trkpt><trkpt lat="43.4735266" lon="16.6389085"><ele>278.0</ele><time>2026-05-04T15:12:19.58Z</time></trkpt><trkpt lat="43.4735449" lon="16.6386802"><ele>276.33333333333337</ele><time>2026-05-04T15:12:20.579Z</time></trkpt><trkpt lat="43.4735606" lon="16.6384516"><ele>274.6666666666667</ele><time>2026-05-04T15:12:21.579Z</time></trkpt><trkpt lat="43.4735722" lon="16.6382269"><ele>273.0</ele><time>2026-05-04T15:12:22.58Z</time></trkpt><trkpt lat="43.4735822" lon="16.6379982"><ele>271.6666666666667</ele><time>2026-05-04T15:12:23.579Z</time></trkpt><trkpt lat="43.4735895" lon="16.6377797"><ele>270.33333333333337</ele><time>2026-05-04T15:12:24.579Z</time></trkpt><trkpt lat="43.473596" lon="16.6375673"><ele>269.0</ele><time>2026-05-04T15:12:25.58Z</time></trkpt><trkpt lat="43.4735996" lon="16.6373654"><ele>269.0</ele><time>2026-05-04T15:12:26.58Z</time></trkpt><trkpt lat="43.4736037" lon="16.6371689"><ele>269.0</ele><time>2026-05-04T15:12:27.58Z</time></trkpt><trkpt lat="43.473606" lon="16.6369897"><ele>269.0</ele><time>2026-05-04T15:12:28.579Z</time></trkpt><trkpt lat="43.4736066" lon="16.6368168"><ele>269.0</ele><time>2026-05-04T15:12:29.58Z</time></trkpt><trkpt lat="43.4736091" lon="16.6366436"><ele>268.0</ele><time>2026-05-04T15:12:30.579Z</time></trkpt><trkpt lat="43.4736132" lon="16.6364575"><ele>267.0</ele><time>2026-05-04T15:12:31.58Z</time></trkpt><trkpt lat="43.47362" lon="16.6362635"><ele>266.0</ele><time>2026-05-04T15:12:32.58Z</time></trkpt><trkpt lat="43.4736288" lon="16.6360633"><ele>265.0</ele><time>2026-05-04T15:12:33.58Z</time></trkpt><trkpt lat="43.473647" lon="16.6358569"><ele>262.66666666666663</ele><time>2026-05-04T15:12:34.579Z</time></trkpt><trkpt lat="43.473671" lon="16.6356371"><ele>260.3333333333333</ele><time>2026-05-04T15:12:35.579Z</time></trkpt><trkpt lat="43.4737026" lon="16.6354158"><ele>258.0</ele><time>2026-05-04T15:12:36.579Z</time></trkpt><trkpt lat="43.4737397" lon="16.6351955"><ele>256.0</ele><time>2026-05-04T15:12:37.579Z</time></trkpt><trkpt lat="43.4737787" lon="16.6349795"><ele>254.0</ele><time>2026-05-04T15:12:38.58Z</time></trkpt><trkpt lat="43.4738252" lon="16.6347612"><ele>252.0</ele><time>2026-05-04T15:12:39.58Z</time></trkpt><trkpt lat="43.4738761" lon="16.6345505"><ele>252.0</ele><time>2026-05-04T15:12:40.58Z</time></trkpt><trkpt lat="43.4739312" lon="16.6343447"><ele>252.0</ele><time>2026-05-04T15:12:41.579Z</time></trkpt><trkpt lat="43.4739872" lon="16.6341455"><ele>252.0</ele><time>2026-05-04T15:12:42.579Z</time></trkpt><trkpt lat="43.4740511" lon="16.6339438"><ele>252.0</ele><time>2026-05-04T15:12:43.58Z</time></trkpt><trkpt lat="43.4741221" lon="16.633746"><ele>252.0</ele><time>2026-05-04T15:12:44.579Z</time></trkpt><trkpt lat="43.4741959" lon="16.6335501"><ele>252.0</ele><time>2026-05-04T15:12:45.58Z</time></trkpt><trkpt lat="43.4742714" lon="16.6333556"><ele>253.66666666666669</ele><time>2026-05-04T15:12:46.579Z</time></trkpt><trkpt lat="43.4743467" lon="16.633159"><ele>255.33333333333334</ele><time>2026-05-04T15:12:47.579Z</time></trkpt><trkpt lat="43.4744215" lon="16.6329572"><ele>257.0</ele><time>2026-05-04T15:12:48.579Z</time></trkpt><trkpt lat="43.4744927" lon="16.6327511"><ele>257.6666666666667</ele><time>2026-05-04T15:12:49.579Z</time></trkpt><trkpt lat="43.4745643" lon="16.6325402"><ele>258.3333333333333</ele><time>2026-05-04T15:12:50.58Z</time></trkpt><trkpt lat="43.4746371" lon="16.6323158"><ele>259.0</ele><time>2026-05-04T15:12:51.58Z</time></trkpt><trkpt lat="43.4747076" lon="16.6320897"><ele>256.66666666666663</ele><time>2026-05-04T15:12:52.58Z</time></trkpt><trkpt lat="43.474778" lon="16.6318639"><ele>254.33333333333331</ele><time>2026-05-04T15:12:53.58Z</time></trkpt><trkpt lat="43.4748471" lon="16.6316396"><ele>252.0</ele><time>2026-05-04T15:12:54.58Z</time></trkpt><trkpt lat="43.474917" lon="16.6314094"><ele>252.0</ele><time>2026-05-04T15:12:55.579Z</time></trkpt><trkpt lat="43.4749859" lon="16.6311804"><ele>252.0</ele><time>2026-05-04T15:12:56.579Z</time></trkpt><trkpt lat="43.4750524" lon="16.6309502"><ele>252.0</ele><time>2026-05-04T15:12:57.58Z</time></trkpt><trkpt lat="43.475117" lon="16.6307245"><ele>253.33333333333331</ele><time>2026-05-04T15:12:58.579Z</time></trkpt><trkpt lat="43.4751784" lon="16.6304985"><ele>254.66666666666666</ele><time>2026-05-04T15:12:59.579Z</time></trkpt><trkpt lat="43.4752364" lon="16.630286"><ele>256.0</ele><time>2026-05-04T15:13:00.58Z</time></trkpt><trkpt lat="43.475293" lon="16.6300818"><ele>257.0</ele><time>2026-05-04T15:13:01.58Z</time></trkpt><trkpt lat="43.4753509" lon="16.6298855"><ele>258.0</ele><time>2026-05-04T15:13:02.58Z</time></trkpt><trkpt lat="43.4754181" lon="16.629688"><ele>259.0</ele><time>2026-05-04T15:13:03.58Z</time></trkpt><trkpt lat="43.475492" lon="16.6294993"><ele>257.25</ele><time>2026-05-04T15:13:04.579Z</time></trkpt><trkpt lat="43.4755717" lon="16.6293186"><ele>255.5</ele><time>2026-05-04T15:13:05.58Z</time></trkpt><trkpt lat="43.47565" lon="16.6291478"><ele>253.75</ele><time>2026-05-04T15:13:06.58Z</time></trkpt><trkpt lat="43.4757338" lon="16.6289779"><ele>252.0</ele><time>2026-05-04T15:13:07.579Z</time></trkpt><trkpt lat="43.4758138" lon="16.6288158"><ele>252.0</ele><time>2026-05-04T15:13:08.579Z</time></trkpt><trkpt lat="43.4758914" lon="16.6286598"><ele>252.0</ele><time>2026-05-04T15:13:09.58Z</time></trkpt><trkpt lat="43.4759677" lon="16.6285106"><ele>252.0</ele><time>2026-05-04T15:13:10.58Z</time></trkpt><trkpt lat="43.4760448" lon="16.6283628"><ele>252.0</ele><time>2026-05-04T15:13:11.579Z</time></trkpt><trkpt lat="43.4761223" lon="16.6282261"><ele>254.0</ele><time>2026-05-04T15:13:12.579Z</time></trkpt><trkpt lat="43.4762013" lon="16.6280991"><ele>256.0</ele><time>2026-05-04T15:13:13.579Z</time></trkpt><trkpt lat="43.4762769" lon="16.62798"><ele>258.0</ele><time>2026-05-04T15:13:14.58Z</time></trkpt><trkpt lat="43.4763499" lon="16.6278575"><ele>260.0</ele><time>2026-05-04T15:13:15.579Z</time></trkpt><trkpt lat="43.4764169" lon="16.6277375"><ele>256.8</ele><time>2026-05-04T15:13:16.58Z</time></trkpt><trkpt lat="43.4764819" lon="16.6276173"><ele>253.6</ele><time>2026-05-04T15:13:17.579Z</time></trkpt><trkpt lat="43.4765475" lon="16.6275032"><ele>250.39999999999998</ele><time>2026-05-04T15:13:18.58Z</time></trkpt><trkpt lat="43.4766138" lon="16.6273907"><ele>247.2</ele><time>2026-05-04T15:13:19.579Z</time></trkpt><trkpt lat="43.4766801" lon="16.6272835"><ele>244.0</ele><time>2026-05-04T15:13:20.579Z</time></trkpt><trkpt lat="43.4767399" lon="16.6271789"><ele>243.99999999999997</ele><time>2026-05-04T15:13:21.579Z</time></trkpt><trkpt lat="43.4767967" lon="16.6270794"><ele>244.0</ele><time>2026-05-04T15:13:22.58Z</time></trkpt><trkpt lat="43.4768533" lon="16.626983"><ele>244.0</ele><time>2026-05-04T15:13:23.58Z</time></trkpt><trkpt lat="43.4769072" lon="16.6268878"><ele>244.0</ele><time>2026-05-04T15:13:24.58Z</time></trkpt><trkpt lat="43.4769613" lon="16.6267943"><ele>243.99999999999997</ele><time>2026-05-04T15:13:25.58Z</time></trkpt><trkpt lat="43.4770129" lon="16.6267041"><ele>244.0</ele><time>2026-05-04T15:13:26.58Z</time></trkpt><trkpt lat="43.4770606" lon="16.6266136"><ele>243.49999999999997</ele><time>2026-05-04T15:13:27.579Z</time></trkpt><trkpt lat="43.4771081" lon="16.6265247"><ele>243.0</ele><time>2026-05-04T15:13:28.58Z</time></trkpt><trkpt lat="43.4771522" lon="16.62644"><ele>242.5</ele><time>2026-05-04T15:13:29.58Z</time></trkpt><trkpt lat="43.4771977" lon="16.6263556"><ele>242.0</ele><time>2026-05-04T15:13:30.579Z</time></trkpt><trkpt lat="43.4772444" lon="16.6262694"><ele>241.49999999999997</ele><time>2026-05-04T15:13:31.579Z</time></trkpt><trkpt lat="43.4772964" lon="16.6261774"><ele>241.0</ele><time>2026-05-04T15:13:32.579Z</time></trkpt><trkpt lat="43.4773478" lon="16.6260854"><ele>240.99999999999997</ele><time>2026-05-04T15:13:33.58Z</time></trkpt><trkpt lat="43.477403" lon="16.625989"><ele>241.0</ele><time>2026-05-04T15:13:34.58Z</time></trkpt><trkpt lat="43.4774588" lon="16.625892"><ele>241.0</ele><time>2026-05-04T15:13:35.58Z</time></trkpt><trkpt lat="43.4775169" lon="16.625793"><ele>241.0</ele><time>2026-05-04T15:13:36.58Z</time></trkpt><trkpt lat="43.4775726" lon="16.6257018"><ele>240.99999999999997</ele><time>2026-05-04T15:13:37.58Z</time></trkpt><trkpt lat="43.477627" lon="16.6256119"><ele>241.0</ele><time>2026-05-04T15:13:38.579Z</time></trkpt><trkpt lat="43.4776815" lon="16.6255197"><ele>240.99999999999997</ele><time>2026-05-04T15:13:39.58Z</time></trkpt><trkpt lat="43.4777288" lon="16.6254292"><ele>241.0</ele><time>2026-05-04T15:13:40.579Z</time></trkpt><trkpt lat="43.4777727" lon="16.6253444"><ele>241.0</ele><time>2026-05-04T15:13:41.58Z</time></trkpt><trkpt lat="43.4778162" lon="16.6252523"><ele>241.0</ele><time>2026-05-04T15:13:42.58Z</time></trkpt><trkpt lat="43.4778599" lon="16.6251567"><ele>240.99999999999997</ele><time>2026-05-04T15:13:43.579Z</time></trkpt><trkpt lat="43.4779048" lon="16.6250518"><ele>241.0</ele><time>2026-05-04T15:13:44.58Z</time></trkpt><trkpt lat="43.4779536" lon="16.6249394"><ele>240.25</ele><time>2026-05-04T15:13:45.579Z</time></trkpt><trkpt lat="43.4780037" lon="16.6248145"><ele>239.5</ele><time>2026-05-04T15:13:46.579Z</time></trkpt><trkpt lat="43.4780573" lon="16.6246841"><ele>238.75</ele><time>2026-05-04T15:13:47.579Z</time></trkpt><trkpt lat="43.4781185" lon="16.6245414"><ele>238.0</ele><time>2026-05-04T15:13:48.58Z</time></trkpt><trkpt lat="43.4781771" lon="16.6244012"><ele>238.0</ele><time>2026-05-04T15:13:49.58Z</time></trkpt><trkpt lat="43.4782432" lon="16.6242555"><ele>238.0</ele><time>2026-05-04T15:13:50.579Z</time></trkpt><trkpt lat="43.4783134" lon="16.6241118"><ele>238.0</ele><time>2026-05-04T15:13:51.579Z</time></trkpt><trkpt lat="43.4783901" lon="16.6239622"><ele>238.0</ele><time>2026-05-04T15:13:52.579Z</time></trkpt><trkpt lat="43.4784601" lon="16.6238203"><ele>238.0</ele><time>2026-05-04T15:13:53.58Z</time></trkpt><trkpt lat="43.4785411" lon="16.623681"><ele>238.0</ele><time>2026-05-04T15:13:54.58Z</time></trkpt><trkpt lat="43.4786232" lon="16.6235534"><ele>238.0</ele><time>2026-05-04T15:13:55.579Z</time></trkpt><trkpt lat="43.4786967" lon="16.623431"><ele>238.0</ele><time>2026-05-04T15:13:56.579Z</time></trkpt><trkpt lat="43.4787726" lon="16.6233175"><ele>236.60000000000002</ele><time>2026-05-04T15:13:57.58Z</time></trkpt><trkpt lat="43.4788546" lon="16.6232283"><ele>235.20000000000002</ele><time>2026-05-04T15:13:58.579Z</time></trkpt><trkpt lat="43.4789276" lon="16.6231271"><ele>233.8</ele><time>2026-05-04T15:13:59.58Z</time></trkpt><trkpt lat="43.4790022" lon="16.6230207"><ele>232.4</ele><time>2026-05-04T15:14:00.579Z</time></trkpt><trkpt lat="43.4790724" lon="16.6229217"><ele>231.0</ele><time>2026-05-04T15:14:01.579Z</time></trkpt><trkpt lat="43.479146" lon="16.6228171"><ele>231.8</ele><time>2026-05-04T15:14:02.579Z</time></trkpt><trkpt lat="43.4792231" lon="16.6227118"><ele>232.60000000000002</ele><time>2026-05-04T15:14:03.58Z</time></trkpt><trkpt lat="43.4793004" lon="16.6226062"><ele>233.4</ele><time>2026-05-04T15:14:04.58Z</time></trkpt><trkpt lat="43.4793778" lon="16.6225072"><ele>234.2</ele><time>2026-05-04T15:14:05.58Z</time></trkpt><trkpt lat="43.4794557" lon="16.6224084"><ele>235.0</ele><time>2026-05-04T15:14:06.579Z</time></trkpt><trkpt lat="43.4795316" lon="16.6223109"><ele>234.4</ele><time>2026-05-04T15:14:07.58Z</time></trkpt><trkpt lat="43.4796066" lon="16.6222152"><ele>233.8</ele><time>2026-05-04T15:14:08.58Z</time></trkpt><trkpt lat="43.4796807" lon="16.6221225"><ele>233.2</ele><time>2026-05-04T15:14:09.579Z</time></trkpt><trkpt lat="43.479758" lon="16.622025"><ele>232.6</ele><time>2026-05-04T15:14:10.579Z</time></trkpt><trkpt lat="43.4798314" lon="16.6219143"><ele>232.0</ele><time>2026-05-04T15:14:11.579Z</time></trkpt><trkpt lat="43.4799006" lon="16.6217813"><ele>232.0</ele><time>2026-05-04T15:14:12.58Z</time></trkpt><trkpt lat="43.479962" lon="16.6216473"><ele>232.0</ele><time>2026-05-04T15:14:13.579Z</time></trkpt><trkpt lat="43.480016" lon="16.6214937"><ele>232.0</ele><time>2026-05-04T15:14:14.579Z</time></trkpt><trkpt lat="43.4800603" lon="16.6213243"><ele>232.0</ele><time>2026-05-04T15:14:15.58Z</time></trkpt><trkpt lat="43.4800999" lon="16.6211316"><ele>232.0</ele><time>2026-05-04T15:14:16.579Z</time></trkpt><trkpt lat="43.4801426" lon="16.6209381"><ele>232.0</ele><time>2026-05-04T15:14:17.58Z</time></trkpt><trkpt lat="43.4802002" lon="16.6207209"><ele>232.0</ele><time>2026-05-04T15:14:18.579Z</time></trkpt><trkpt lat="43.4802752" lon="16.6204806"><ele>232.33333333333331</ele><time>2026-05-04T15:14:19.579Z</time></trkpt><trkpt lat="43.4803713" lon="16.6202243"><ele>232.66666666666669</ele><time>2026-05-04T15:14:20.58Z</time></trkpt><trkpt lat="43.4804677" lon="16.6199919"><ele>233.0</ele><time>2026-05-04T15:14:21.579Z</time></trkpt><trkpt lat="43.4805589" lon="16.6197627"><ele>231.66666666666669</ele><time>2026-05-04T15:14:22.58Z</time></trkpt><trkpt lat="43.4806358" lon="16.6195336"><ele>230.33333333333331</ele><time>2026-05-04T15:14:23.58Z</time></trkpt><trkpt lat="43.4806986" lon="16.619292"><ele>229.0</ele><time>2026-05-04T15:14:24.58Z</time></trkpt><trkpt lat="43.4807469" lon="16.6190463"><ele>228.66666666666666</ele><time>2026-05-04T15:14:25.58Z</time></trkpt><trkpt lat="43.4807828" lon="16.6187904"><ele>228.33333333333331</ele><time>2026-05-04T15:14:26.579Z</time></trkpt><trkpt lat="43.4808154" lon="16.6185322"><ele>228.0</ele><time>2026-05-04T15:14:27.58Z</time></trkpt><trkpt lat="43.4808514" lon="16.6182713"><ele>229.0</ele><time>2026-05-04T15:14:28.58Z</time></trkpt><trkpt lat="43.4808887" lon="16.6180216"><ele>230.0</ele><time>2026-05-04T15:14:29.58Z</time></trkpt><trkpt lat="43.4809378" lon="16.6177679"><ele>231.0</ele><time>2026-05-04T15:14:30.58Z</time></trkpt><trkpt lat="43.4809991" lon="16.6175162"><ele>234.0</ele><time>2026-05-04T15:14:31.58Z</time></trkpt><trkpt lat="43.4810735" lon="16.6172598"><ele>237.0</ele><time>2026-05-04T15:14:32.579Z</time></trkpt><trkpt lat="43.4811508" lon="16.617017"><ele>240.0</ele><time>2026-05-04T15:14:33.58Z</time></trkpt><trkpt lat="43.4812444" lon="16.6167756"><ele>236.0</ele><time>2026-05-04T15:14:34.579Z</time></trkpt><trkpt lat="43.4813475" lon="16.6165425"><ele>232.0</ele><time>2026-05-04T15:14:35.579Z</time></trkpt><trkpt lat="43.4814598" lon="16.6163145"><ele>228.0</ele><time>2026-05-04T15:14:36.58Z</time></trkpt><trkpt lat="43.4815734" lon="16.6160969"><ele>228.0</ele><time>2026-05-04T15:14:37.58Z</time></trkpt><trkpt lat="43.4816905" lon="16.6158762"><ele>228.0</ele><time>2026-05-04T15:14:38.579Z</time></trkpt><trkpt lat="43.4818033" lon="16.6156528"><ele>228.0</ele><time>2026-05-04T15:14:39.579Z</time></trkpt><trkpt lat="43.48191" lon="16.6154197"><ele>231.0</ele><time>2026-05-04T15:14:40.58Z</time></trkpt><trkpt lat="43.4820075" lon="16.615192"><ele>234.0</ele><time>2026-05-04T15:14:41.579Z</time></trkpt><trkpt lat="43.4821012" lon="16.6149594"><ele>237.0</ele><time>2026-05-04T15:14:42.579Z</time></trkpt><trkpt lat="43.4821951" lon="16.6147296"><ele>230.33333333333331</ele><time>2026-05-04T15:14:43.58Z</time></trkpt><trkpt lat="43.4822873" lon="16.6145002"><ele>223.66666666666666</ele><time>2026-05-04T15:14:44.579Z</time></trkpt><trkpt lat="43.4823778" lon="16.6142798"><ele>217.0</ele><time>2026-05-04T15:14:45.58Z</time></trkpt><trkpt lat="43.4824669" lon="16.6140575"><ele>217.0</ele><time>2026-05-04T15:14:46.58Z</time></trkpt><trkpt lat="43.4825533" lon="16.6138369"><ele>217.0</ele><time>2026-05-04T15:14:47.579Z</time></trkpt><trkpt lat="43.482635" lon="16.6136117"><ele>217.0</ele><time>2026-05-04T15:14:48.58Z</time></trkpt><trkpt lat="43.4827048" lon="16.6133894"><ele>216.66666666666666</ele><time>2026-05-04T15:14:49.58Z</time></trkpt><trkpt lat="43.4827625" lon="16.6131584"><ele>216.33333333333331</ele><time>2026-05-04T15:14:50.579Z</time></trkpt><trkpt lat="43.4828089" lon="16.6129205"><ele>216.0</ele><time>2026-05-04T15:14:51.579Z</time></trkpt><trkpt lat="43.4828426" lon="16.6126715"><ele>216.0</ele><time>2026-05-04T15:14:52.58Z</time></trkpt><trkpt lat="43.4828643" lon="16.6124219"><ele>216.0</ele><time>2026-05-04T15:14:53.58Z</time></trkpt><trkpt lat="43.4828758" lon="16.6121564"><ele>216.0</ele><time>2026-05-04T15:14:54.58Z</time></trkpt><trkpt lat="43.482876" lon="16.6118849"><ele>216.0</ele><time>2026-05-04T15:14:55.58Z</time></trkpt><trkpt lat="43.4828697" lon="16.6116158"><ele>216.0</ele><time>2026-05-04T15:14:56.58Z</time></trkpt><trkpt lat="43.4828626" lon="16.6113667"><ele>216.0</ele><time>2026-05-04T15:14:57.58Z</time></trkpt><trkpt lat="43.4828607" lon="16.6111237"><ele>216.0</ele><time>2026-05-04T15:14:58.579Z</time></trkpt><trkpt lat="43.4828654" lon="16.6108926"><ele>216.0</ele><time>2026-05-04T15:14:59.58Z</time></trkpt><trkpt lat="43.4828856" lon="16.6106623"><ele>216.0</ele><time>2026-05-04T15:15:00.579Z</time></trkpt><trkpt lat="43.4829161" lon="16.6104408"><ele>214.0</ele><time>2026-05-04T15:15:01.58Z</time></trkpt><trkpt lat="43.4829531" lon="16.6102172"><ele>212.0</ele><time>2026-05-04T15:15:02.579Z</time></trkpt><trkpt lat="43.482995" lon="16.6099919"><ele>210.0</ele><time>2026-05-04T15:15:03.579Z</time></trkpt><trkpt lat="43.4830395" lon="16.6097611"><ele>210.0</ele><time>2026-05-04T15:15:04.58Z</time></trkpt><trkpt lat="43.4830866" lon="16.6095409"><ele>210.0</ele><time>2026-05-04T15:15:05.579Z</time></trkpt><trkpt lat="43.4831346" lon="16.6093193"><ele>210.0</ele><time>2026-05-04T15:15:06.58Z</time></trkpt><trkpt lat="43.4831836" lon="16.6091033"><ele>210.5</ele><time>2026-05-04T15:15:07.579Z</time></trkpt><trkpt lat="43.4832286" lon="16.608906"><ele>211.0</ele><time>2026-05-04T15:15:08.579Z</time></trkpt><trkpt lat="43.4832761" lon="16.6087218"><ele>211.5</ele><time>2026-05-04T15:15:09.579Z</time></trkpt><trkpt lat="43.4833273" lon="16.6085423"><ele>212.0</ele><time>2026-05-04T15:15:10.579Z</time></trkpt><trkpt lat="43.4833872" lon="16.6083621"><ele>212.75</ele><time>2026-05-04T15:15:11.579Z</time></trkpt><trkpt lat="43.483457" lon="16.6081846"><ele>213.5</ele><time>2026-05-04T15:15:12.58Z</time></trkpt><trkpt lat="43.4835348" lon="16.6080173"><ele>214.25</ele><time>2026-05-04T15:15:13.58Z</time></trkpt><trkpt lat="43.4836236" lon="16.6078507"><ele>215.0</ele><time>2026-05-04T15:15:14.58Z</time></trkpt><trkpt lat="43.4837213" lon="16.6076929"><ele>213.0</ele><time>2026-05-04T15:15:15.58Z</time></trkpt><trkpt lat="43.4838222" lon="16.6075464"><ele>211.0</ele><time>2026-05-04T15:15:16.58Z</time></trkpt><trkpt lat="43.48392" lon="16.6074128"><ele>209.0</ele><time>2026-05-04T15:15:17.579Z</time></trkpt><trkpt lat="43.4840158" lon="16.6072883"><ele>207.0</ele><time>2026-05-04T15:15:18.58Z</time></trkpt><trkpt lat="43.4841064" lon="16.6071659"><ele>207.0</ele><time>2026-05-04T15:15:19.58Z</time></trkpt><trkpt lat="43.484197" lon="16.6070432"><ele>207.0</ele><time>2026-05-04T15:15:20.58Z</time></trkpt><trkpt lat="43.4842874" lon="16.6069187"><ele>207.0</ele><time>2026-05-04T15:15:21.58Z</time></trkpt><trkpt lat="43.4843797" lon="16.6067919"><ele>207.0</ele><time>2026-05-04T15:15:22.579Z</time></trkpt><trkpt lat="43.4844728" lon="16.6066631"><ele>206.25</ele><time>2026-05-04T15:15:23.58Z</time></trkpt><trkpt lat="43.4845638" lon="16.6065373"><ele>205.5</ele><time>2026-05-04T15:15:24.579Z</time></trkpt><trkpt lat="43.4846503" lon="16.606417"><ele>204.75</ele><time>2026-05-04T15:15:25.579Z</time></trkpt><trkpt lat="43.4847372" lon="16.6062988"><ele>204.0</ele><time>2026-05-04T15:15:26.58Z</time></trkpt><trkpt lat="43.4848214" lon="16.6061892"><ele>205.0</ele><time>2026-05-04T15:15:27.58Z</time></trkpt><trkpt lat="43.4849066" lon="16.6060894"><ele>206.0</ele><time>2026-05-04T15:15:28.58Z</time></trkpt><trkpt lat="43.484996" lon="16.6059985"><ele>207.0</ele><time>2026-05-04T15:15:29.579Z</time></trkpt><trkpt lat="43.4850938" lon="16.6059118"><ele>208.0</ele><time>2026-05-04T15:15:30.579Z</time></trkpt><trkpt lat="43.4852038" lon="16.6058314"><ele>208.0</ele><time>2026-05-04T15:15:31.58Z</time></trkpt><trkpt lat="43.4853187" lon="16.6057508"><ele>208.0</ele><time>2026-05-04T15:15:32.58Z</time></trkpt><trkpt lat="43.4854325" lon="16.6056702"><ele>208.0</ele><time>2026-05-04T15:15:33.58Z</time></trkpt><trkpt lat="43.4855508" lon="16.6055889"><ele>208.0</ele><time>2026-05-04T15:15:34.58Z</time></trkpt><trkpt lat="43.4856684" lon="16.6055075"><ele>207.25</ele><time>2026-05-04T15:15:35.58Z</time></trkpt><trkpt lat="43.4857928" lon="16.6054228"><ele>206.5</ele><time>2026-05-04T15:15:36.579Z</time></trkpt><trkpt lat="43.4859165" lon="16.6053398"><ele>205.75</ele><time>2026-05-04T15:15:37.579Z</time></trkpt><trkpt lat="43.486045" lon="16.6052532"><ele>205.0</ele><time>2026-05-04T15:15:38.579Z</time></trkpt><trkpt lat="43.4861738" lon="16.6051593"><ele>203.75</ele><time>2026-05-04T15:15:39.58Z</time></trkpt><trkpt lat="43.4863029" lon="16.6050567"><ele>202.5</ele><time>2026-05-04T15:15:40.579Z</time></trkpt><trkpt lat="43.4864234" lon="16.6049532"><ele>201.25</ele><time>2026-05-04T15:15:41.579Z</time></trkpt><trkpt lat="43.4865424" lon="16.6048469"><ele>200.0</ele><time>2026-05-04T15:15:42.579Z</time></trkpt><trkpt lat="43.4866591" lon="16.6047369"><ele>200.0</ele><time>2026-05-04T15:15:43.58Z</time></trkpt><trkpt lat="43.4867735" lon="16.6046257"><ele>200.0</ele><time>2026-05-04T15:15:44.579Z</time></trkpt><trkpt lat="43.4868795" lon="16.6045153"><ele>200.0</ele><time>2026-05-04T15:15:45.58Z</time></trkpt><trkpt lat="43.4869875" lon="16.6044046"><ele>200.0</ele><time>2026-05-04T15:15:46.58Z</time></trkpt><trkpt lat="43.4870968" lon="16.6042935"><ele>199.5</ele><time>2026-05-04T15:15:47.579Z</time></trkpt><trkpt lat="43.4872058" lon="16.6041832"><ele>199.0</ele><time>2026-05-04T15:15:48.579Z</time></trkpt><trkpt lat="43.4873133" lon="16.6040728"><ele>198.5</ele><time>2026-05-04T15:15:49.58Z</time></trkpt><trkpt lat="43.487423" lon="16.6039627"><ele>198.0</ele><time>2026-05-04T15:15:50.58Z</time></trkpt><trkpt lat="43.4875364" lon="16.6038566"><ele>198.0</ele><time>2026-05-04T15:15:51.579Z</time></trkpt><trkpt lat="43.4876512" lon="16.603761"><ele>198.0</ele><time>2026-05-04T15:15:52.579Z</time></trkpt><trkpt lat="43.4877674" lon="16.6036758"><ele>198.0</ele><time>2026-05-04T15:15:53.58Z</time></trkpt><trkpt lat="43.4878877" lon="16.6035951"><ele>198.0</ele><time>2026-05-04T15:15:54.579Z</time></trkpt><trkpt lat="43.4880113" lon="16.6035172"><ele>197.5</ele><time>2026-05-04T15:15:55.579Z</time></trkpt><trkpt lat="43.4881353" lon="16.6034412"><ele>197.0</ele><time>2026-05-04T15:15:56.579Z</time></trkpt><trkpt lat="43.488258" lon="16.6033616"><ele>196.5</ele><time>2026-05-04T15:15:57.579Z</time></trkpt><trkpt lat="43.4883823" lon="16.6032741"><ele>196.0</ele><time>2026-05-04T15:15:58.58Z</time></trkpt><trkpt lat="43.488509" lon="16.6031805"><ele>196.0</ele><time>2026-05-04T15:15:59.579Z</time></trkpt><trkpt lat="43.4886306" lon="16.603077"><ele>196.0</ele><time>2026-05-04T15:16:00.58Z</time></trkpt><trkpt lat="43.4887466" lon="16.6029658"><ele>196.0</ele><time>2026-05-04T15:16:01.58Z</time></trkpt><trkpt lat="43.4888592" lon="16.6028398"><ele>196.0</ele><time>2026-05-04T15:16:02.58Z</time></trkpt><trkpt lat="43.4889671" lon="16.6027014"><ele>195.25</ele><time>2026-05-04T15:16:03.579Z</time></trkpt><trkpt lat="43.48907" lon="16.6025605"><ele>194.5</ele><time>2026-05-04T15:16:04.58Z</time></trkpt><trkpt lat="43.4891699" lon="16.6024194"><ele>193.75</ele><time>2026-05-04T15:16:05.579Z</time></trkpt><trkpt lat="43.4892696" lon="16.6022815"><ele>193.0</ele><time>2026-05-04T15:16:06.58Z</time></trkpt><trkpt lat="43.4893689" lon="16.6021426"><ele>193.0</ele><time>2026-05-04T15:16:07.579Z</time></trkpt><trkpt lat="43.4894661" lon="16.6020103"><ele>193.0</ele><time>2026-05-04T15:16:08.58Z</time></trkpt><trkpt lat="43.4895631" lon="16.6018808"><ele>193.0</ele><time>2026-05-04T15:16:09.579Z</time></trkpt><trkpt lat="43.4896716" lon="16.6017602"><ele>193.0</ele><time>2026-05-04T15:16:10.58Z</time></trkpt><trkpt lat="43.4897931" lon="16.6016488"><ele>192.75</ele><time>2026-05-04T15:16:11.58Z</time></trkpt><trkpt lat="43.4899179" lon="16.6015443"><ele>192.5</ele><time>2026-05-04T15:16:12.579Z</time></trkpt><trkpt lat="43.4900409" lon="16.6014412"><ele>192.25</ele><time>2026-05-04T15:16:13.58Z</time></trkpt><trkpt lat="43.4901662" lon="16.6013365"><ele>192.0</ele><time>2026-05-04T15:16:14.58Z</time></trkpt><trkpt lat="43.4902927" lon="16.6012327"><ele>191.5</ele><time>2026-05-04T15:16:15.579Z</time></trkpt><trkpt lat="43.4904181" lon="16.6011369"><ele>191.0</ele><time>2026-05-04T15:16:16.58Z</time></trkpt><trkpt lat="43.4905435" lon="16.6010531"><ele>190.5</ele><time>2026-05-04T15:16:17.58Z</time></trkpt><trkpt lat="43.4906739" lon="16.6009826"><ele>190.0</ele><time>2026-05-04T15:16:18.579Z</time></trkpt><trkpt lat="43.4908074" lon="16.6009265"><ele>190.0</ele><time>2026-05-04T15:16:19.58Z</time></trkpt><trkpt lat="43.4909422" lon="16.6008842"><ele>190.0</ele><time>2026-05-04T15:16:20.579Z</time></trkpt><trkpt lat="43.4910731" lon="16.6008471"><ele>190.0</ele><time>2026-05-04T15:16:21.58Z</time></trkpt><trkpt lat="43.4912062" lon="16.6008123"><ele>190.0</ele><time>2026-05-04T15:16:22.58Z</time></trkpt><trkpt lat="43.4913358" lon="16.6007761"><ele>189.5</ele><time>2026-05-04T15:16:23.579Z</time></trkpt><trkpt lat="43.4914654" lon="16.6007412"><ele>189.0</ele><time>2026-05-04T15:16:24.579Z</time></trkpt><trkpt lat="43.4915891" lon="16.6007091"><ele>188.5</ele><time>2026-05-04T15:16:25.579Z</time></trkpt><trkpt lat="43.49171" lon="16.6006756"><ele>188.0</ele><time>2026-05-04T15:16:26.58Z</time></trkpt><trkpt lat="43.4918251" lon="16.6006449"><ele>188.0</ele><time>2026-05-04T15:16:27.579Z</time></trkpt><trkpt lat="43.491938" lon="16.6006148"><ele>188.0</ele><time>2026-05-04T15:16:28.58Z</time></trkpt><trkpt lat="43.492041" lon="16.600583"><ele>188.0</ele><time>2026-05-04T15:16:29.579Z</time></trkpt><trkpt lat="43.4921395" lon="16.6005482"><ele>188.0</ele><time>2026-05-04T15:16:30.579Z</time></trkpt><trkpt lat="43.4922392" lon="16.600504"><ele>188.0</ele><time>2026-05-04T15:16:31.579Z</time></trkpt><trkpt lat="43.4923383" lon="16.6004454"><ele>188.25</ele><time>2026-05-04T15:16:32.58Z</time></trkpt><trkpt lat="43.4924354" lon="16.6003745"><ele>188.5</ele><time>2026-05-04T15:16:33.579Z</time></trkpt><trkpt lat="43.4925304" lon="16.6002882"><ele>188.75</ele><time>2026-05-04T15:16:34.58Z</time></trkpt><trkpt lat="43.4926215" lon="16.6001913"><ele>189.0</ele><time>2026-05-04T15:16:35.579Z</time></trkpt><trkpt lat="43.4927091" lon="16.6000861"><ele>188.5</ele><time>2026-05-04T15:16:36.58Z</time></trkpt><trkpt lat="43.4927925" lon="16.5999787"><ele>188.0</ele><time>2026-05-04T15:16:37.579Z</time></trkpt><trkpt lat="43.4928776" lon="16.5998651"><ele>187.5</ele><time>2026-05-04T15:16:38.58Z</time></trkpt><trkpt lat="43.4929645" lon="16.5997483"><ele>187.0</ele><time>2026-05-04T15:16:39.579Z</time></trkpt><trkpt lat="43.4930529" lon="16.5996371"><ele>186.5</ele><time>2026-05-04T15:16:40.58Z</time></trkpt><trkpt lat="43.4931442" lon="16.5995326"><ele>186.0</ele><time>2026-05-04T15:16:41.58Z</time></trkpt><trkpt lat="43.4932396" lon="16.5994272"><ele>185.5</ele><time>2026-05-04T15:16:42.579Z</time></trkpt><trkpt lat="43.4933394" lon="16.5993228"><ele>185.0</ele><time>2026-05-04T15:16:43.58Z</time></trkpt><trkpt lat="43.4934381" lon="16.599221"><ele>184.75</ele><time>2026-05-04T15:16:44.579Z</time></trkpt><trkpt lat="43.4935379" lon="16.59912"><ele>184.5</ele><time>2026-05-04T15:16:45.58Z</time></trkpt><trkpt lat="43.4936389" lon="16.5990177"><ele>184.25</ele><time>2026-05-04T15:16:46.58Z</time></trkpt><trkpt lat="43.4937387" lon="16.5989158"><ele>184.0</ele><time>2026-05-04T15:16:47.579Z</time></trkpt><trkpt lat="43.493838" lon="16.5988106"><ele>182.25</ele><time>2026-05-04T15:16:48.58Z</time></trkpt><trkpt lat="43.4939295" lon="16.5987056"><ele>180.5</ele><time>2026-05-04T15:16:49.58Z</time></trkpt><trkpt lat="43.4940181" lon="16.5985924"><ele>178.75</ele><time>2026-05-04T15:16:50.58Z</time></trkpt><trkpt lat="43.4941022" lon="16.5984712"><ele>177.0</ele><time>2026-05-04T15:16:51.579Z</time></trkpt><trkpt lat="43.4941838" lon="16.5983354"><ele>176.5</ele><time>2026-05-04T15:16:52.579Z</time></trkpt><trkpt lat="43.4942601" lon="16.5981868"><ele>176.0</ele><time>2026-05-04T15:16:53.58Z</time></trkpt><trkpt lat="43.4943311" lon="16.598029"><ele>175.5</ele><time>2026-05-04T15:16:54.579Z</time></trkpt><trkpt lat="43.4944026" lon="16.5978543"><ele>175.0</ele><time>2026-05-04T15:16:55.579Z</time></trkpt><trkpt lat="43.4944745" lon="16.5976746"><ele>174.0</ele><time>2026-05-04T15:16:56.579Z</time></trkpt><trkpt lat="43.4945421" lon="16.5974932"><ele>173.0</ele><time>2026-05-04T15:16:57.579Z</time></trkpt><trkpt lat="43.4946109" lon="16.597304"><ele>172.0</ele><time>2026-05-04T15:16:58.58Z</time></trkpt><trkpt lat="43.4946823" lon="16.5971126"><ele>171.66666666666669</ele><time>2026-05-04T15:16:59.58Z</time></trkpt><trkpt lat="43.494755" lon="16.5969152"><ele>171.33333333333334</ele><time>2026-05-04T15:17:00.579Z</time></trkpt><trkpt lat="43.4948253" lon="16.5967242"><ele>171.0</ele><time>2026-05-04T15:17:01.58Z</time></trkpt><trkpt lat="43.4949044" lon="16.5965237"><ele>171.0</ele><time>2026-05-04T15:17:02.58Z</time></trkpt><trkpt lat="43.4949826" lon="16.5963215"><ele>171.0</ele><time>2026-05-04T15:17:03.58Z</time></trkpt><trkpt lat="43.4950636" lon="16.5961158"><ele>171.0</ele><time>2026-05-04T15:17:04.579Z</time></trkpt><trkpt lat="43.4951452" lon="16.5959126"><ele>170.66666666666666</ele><time>2026-05-04T15:17:05.579Z</time></trkpt><trkpt lat="43.4952337" lon="16.5956938"><ele>170.33333333333331</ele><time>2026-05-04T15:17:06.579Z</time></trkpt><trkpt lat="43.4953253" lon="16.5954666"><ele>170.0</ele><time>2026-05-04T15:17:07.58Z</time></trkpt><trkpt lat="43.4954174" lon="16.5952386"><ele>167.33333333333331</ele><time>2026-05-04T15:17:08.58Z</time></trkpt><trkpt lat="43.4955052" lon="16.595014"><ele>164.66666666666666</ele><time>2026-05-04T15:17:09.58Z</time></trkpt><trkpt lat="43.4955946" lon="16.5947883"><ele>162.0</ele><time>2026-05-04T15:17:10.58Z</time></trkpt><trkpt lat="43.4956791" lon="16.5945679"><ele>161.33333333333334</ele><time>2026-05-04T15:17:11.579Z</time></trkpt><trkpt lat="43.4957597" lon="16.5943481"><ele>160.66666666666669</ele><time>2026-05-04T15:17:12.58Z</time></trkpt><trkpt lat="43.4958334" lon="16.5941368"><ele>160.0</ele><time>2026-05-04T15:17:13.579Z</time></trkpt><trkpt lat="43.4959034" lon="16.5939197"><ele>160.0</ele><time>2026-05-04T15:17:14.58Z</time></trkpt><trkpt lat="43.4959719" lon="16.5936914"><ele>160.0</ele><time>2026-05-04T15:17:15.58Z</time></trkpt><trkpt lat="43.4960377" lon="16.5934565"><ele>160.0</ele><time>2026-05-04T15:17:16.58Z</time></trkpt><trkpt lat="43.4960996" lon="16.5932181"><ele>160.66666666666669</ele><time>2026-05-04T15:17:17.579Z</time></trkpt><trkpt lat="43.4961587" lon="16.5929691"><ele>161.33333333333334</ele><time>2026-05-04T15:17:18.58Z</time></trkpt><trkpt lat="43.4962152" lon="16.592713"><ele>162.0</ele><time>2026-05-04T15:17:19.58Z</time></trkpt><trkpt lat="43.4962689" lon="16.5924461"><ele>154.33333333333334</ele><time>2026-05-04T15:17:20.58Z</time></trkpt><trkpt lat="43.496319" lon="16.5921837"><ele>146.66666666666669</ele><time>2026-05-04T15:17:21.58Z</time></trkpt><trkpt lat="43.4963695" lon="16.5919128"><ele>139.0</ele><time>2026-05-04T15:17:22.579Z</time></trkpt><trkpt lat="43.4964239" lon="16.591637"><ele>138.33333333333334</ele><time>2026-05-04T15:17:23.579Z</time></trkpt><trkpt lat="43.4964788" lon="16.5913619"><ele>137.66666666666666</ele><time>2026-05-04T15:17:24.58Z</time></trkpt><trkpt lat="43.4965327" lon="16.5910883"><ele>137.0</ele><time>2026-05-04T15:17:25.58Z</time></trkpt><trkpt lat="43.4965852" lon="16.5908187"><ele>136.66666666666666</ele><time>2026-05-04T15:17:26.579Z</time></trkpt><trkpt lat="43.4966366" lon="16.5905543"><ele>136.33333333333334</ele><time>2026-05-04T15:17:27.579Z</time></trkpt><trkpt lat="43.4966884" lon="16.590304"><ele>136.0</ele><time>2026-05-04T15:17:28.579Z</time></trkpt><trkpt lat="43.4967462" lon="16.5900624"><ele>137.33333333333334</ele><time>2026-05-04T15:17:29.579Z</time></trkpt><trkpt lat="43.4968212" lon="16.589819"><ele>138.66666666666666</ele><time>2026-05-04T15:17:30.579Z</time></trkpt><trkpt lat="43.4969222" lon="16.5895724"><ele>140.0</ele><time>2026-05-04T15:17:31.579Z</time></trkpt><trkpt lat="43.4970428" lon="16.5893284"><ele>138.33333333333331</ele><time>2026-05-04T15:17:32.58Z</time></trkpt><trkpt lat="43.4971737" lon="16.5890879"><ele>136.66666666666666</ele><time>2026-05-04T15:17:33.579Z</time></trkpt><trkpt lat="43.4973099" lon="16.5888463"><ele>135.0</ele><time>2026-05-04T15:17:34.579Z</time></trkpt><trkpt lat="43.4974424" lon="16.5886121"><ele>135.0</ele><time>2026-05-04T15:17:35.58Z</time></trkpt><trkpt lat="43.4975726" lon="16.5883849"><ele>135.0</ele><time>2026-05-04T15:17:36.579Z</time></trkpt><trkpt lat="43.49769" lon="16.5881759"><ele>135.0</ele><time>2026-05-04T15:17:37.579Z</time></trkpt><trkpt lat="43.4977989" lon="16.587979"><ele>136.66666666666666</ele><time>2026-05-04T15:17:38.58Z</time></trkpt><trkpt lat="43.4978938" lon="16.5877847"><ele>138.33333333333331</ele><time>2026-05-04T15:17:39.579Z</time></trkpt><trkpt lat="43.4979718" lon="16.5875692"><ele>140.0</ele><time>2026-05-04T15:17:40.579Z</time></trkpt><trkpt lat="43.4980277" lon="16.58734"><ele>135.33333333333331</ele><time>2026-05-04T15:17:41.58Z</time></trkpt><trkpt lat="43.4980628" lon="16.5870851"><ele>130.66666666666666</ele><time>2026-05-04T15:17:42.579Z</time></trkpt><trkpt lat="43.4980773" lon="16.5868118"><ele>126.0</ele><time>2026-05-04T15:17:43.58Z</time></trkpt><trkpt lat="43.4980724" lon="16.5865253"><ele>125.0</ele><time>2026-05-04T15:17:44.58Z</time></trkpt><trkpt lat="43.4980597" lon="16.5862503"><ele>124.0</ele><time>2026-05-04T15:17:45.58Z</time></trkpt><trkpt lat="43.4980469" lon="16.5859755"><ele>123.0</ele><time>2026-05-04T15:17:46.58Z</time></trkpt><trkpt lat="43.4980382" lon="16.5857029"><ele>121.33333333333334</ele><time>2026-05-04T15:17:47.58Z</time></trkpt><trkpt lat="43.4980329" lon="16.5854371"><ele>119.66666666666667</ele><time>2026-05-04T15:17:48.58Z</time></trkpt><trkpt lat="43.498043" lon="16.5851778"><ele>118.0</ele><time>2026-05-04T15:17:49.58Z</time></trkpt><trkpt lat="43.4980786" lon="16.5849102"><ele>117.66666666666667</ele><time>2026-05-04T15:17:50.579Z</time></trkpt><trkpt lat="43.498146" lon="16.5846432"><ele>117.33333333333334</ele><time>2026-05-04T15:17:51.58Z</time></trkpt><trkpt lat="43.4982514" lon="16.5843643"><ele>117.0</ele><time>2026-05-04T15:17:52.579Z</time></trkpt><trkpt lat="43.4983769" lon="16.5840897"><ele>118.0</ele><time>2026-05-04T15:17:53.58Z</time></trkpt><trkpt lat="43.4985163" lon="16.5837966"><ele>119.0</ele><time>2026-05-04T15:17:54.58Z</time></trkpt><trkpt lat="43.4986486" lon="16.5834934"><ele>120.5</ele><time>2026-05-04T15:17:55.579Z</time></trkpt><trkpt lat="43.4987778" lon="16.5831785"><ele>122.0</ele><time>2026-05-04T15:17:56.58Z</time></trkpt><trkpt lat="43.4989037" lon="16.5828772"><ele>119.0</ele><time>2026-05-04T15:17:57.58Z</time></trkpt><trkpt lat="43.4990387" lon="16.5825776"><ele>116.0</ele><time>2026-05-04T15:17:58.58Z</time></trkpt><trkpt lat="43.4991838" lon="16.582284"><ele>116.0</ele><time>2026-05-04T15:17:59.58Z</time></trkpt><trkpt lat="43.4993275" lon="16.5820156"><ele>116.0</ele><time>2026-05-04T15:18:00.579Z</time></trkpt><trkpt lat="43.4994691" lon="16.5817681"><ele>114.5</ele><time>2026-05-04T15:18:01.579Z</time></trkpt><trkpt lat="43.4996191" lon="16.5815246"><ele>113.0</ele><time>2026-05-04T15:18:02.579Z</time></trkpt><trkpt lat="43.4997797" lon="16.5812764"><ele>111.5</ele><time>2026-05-04T15:18:03.579Z</time></trkpt><trkpt lat="43.4999424" lon="16.5810254"><ele>110.0</ele><time>2026-05-04T15:18:04.58Z</time></trkpt><trkpt lat="43.5001023" lon="16.580775"><ele>110.0</ele><time>2026-05-04T15:18:05.579Z</time></trkpt><trkpt lat="43.5002624" lon="16.5805154"><ele>110.0</ele><time>2026-05-04T15:18:06.579Z</time></trkpt><trkpt lat="43.5004162" lon="16.5802468"><ele>105.0</ele><time>2026-05-04T15:18:07.58Z</time></trkpt><trkpt lat="43.5005664" lon="16.5799705"><ele>100.0</ele><time>2026-05-04T15:18:08.58Z</time></trkpt><trkpt lat="43.500711" lon="16.5797005"><ele>104.5</ele><time>2026-05-04T15:18:09.579Z</time></trkpt><trkpt lat="43.5008638" lon="16.5794308"><ele>109.0</ele><time>2026-05-04T15:18:10.579Z</time></trkpt><trkpt lat="43.501021" lon="16.5791714"><ele>109.0</ele><time>2026-05-04T15:18:11.58Z</time></trkpt><trkpt lat="43.5011833" lon="16.578917"><ele>109.0</ele><time>2026-05-04T15:18:12.58Z</time></trkpt><trkpt lat="43.5013424" lon="16.5786791"><ele>102.5</ele><time>2026-05-04T15:18:13.579Z</time></trkpt><trkpt lat="43.5015056" lon="16.5784436"><ele>96.0</ele><time>2026-05-04T15:18:14.58Z</time></trkpt><trkpt lat="43.5016659" lon="16.5782029"><ele>96.0</ele><time>2026-05-04T15:18:15.58Z</time></trkpt><trkpt lat="43.5018229" lon="16.577958"><ele>96.0</ele><time>2026-05-04T15:18:16.58Z</time></trkpt><trkpt lat="43.5019726" lon="16.5777075"><ele>95.5</ele><time>2026-05-04T15:18:17.58Z</time></trkpt><trkpt lat="43.5021229" lon="16.577445"><ele>95.0</ele><time>2026-05-04T15:18:18.58Z</time></trkpt><trkpt lat="43.5022721" lon="16.5771736"><ele>94.5</ele><time>2026-05-04T15:18:19.579Z</time></trkpt><trkpt lat="43.502417" lon="16.576904"><ele>94.0</ele><time>2026-05-04T15:18:20.579Z</time></trkpt><trkpt lat="43.5025579" lon="16.5766412"><ele>94.0</ele><time>2026-05-04T15:18:21.579Z</time></trkpt><trkpt lat="43.5027041" lon="16.5763793"><ele>94.0</ele><time>2026-05-04T15:18:22.58Z</time></trkpt><trkpt lat="43.502853" lon="16.5761282"><ele>90.5</ele><time>2026-05-04T15:18:23.58Z</time></trkpt><trkpt lat="43.5030118" lon="16.5758803"><ele>87.0</ele><time>2026-05-04T15:18:24.579Z</time></trkpt><trkpt lat="43.5031673" lon="16.5756456"><ele>87.0</ele><time>2026-05-04T15:18:25.579Z</time></trkpt><trkpt lat="43.5033274" lon="16.5754086"><ele>87.0</ele><time>2026-05-04T15:18:26.58Z</time></trkpt><trkpt lat="43.5034921" lon="16.5751697"><ele>87.0</ele><time>2026-05-04T15:18:27.58Z</time></trkpt><trkpt lat="43.5036552" lon="16.5749364"><ele>87.0</ele><time>2026-05-04T15:18:28.579Z</time></trkpt><trkpt lat="43.5038184" lon="16.5747135"><ele>86.0</ele><time>2026-05-04T15:18:29.58Z</time></trkpt><trkpt lat="43.5039851" lon="16.5744925"><ele>85.0</ele><time>2026-05-04T15:18:30.58Z</time></trkpt><trkpt lat="43.5041516" lon="16.5742773"><ele>85.0</ele><time>2026-05-04T15:18:31.58Z</time></trkpt><trkpt lat="43.5043152" lon="16.5740638"><ele>85.0</ele><time>2026-05-04T15:18:32.58Z</time></trkpt><trkpt lat="43.5044692" lon="16.5738573"><ele>85.0</ele><time>2026-05-04T15:18:33.579Z</time></trkpt><trkpt lat="43.5046205" lon="16.5736455"><ele>82.66666666666666</ele><time>2026-05-04T15:18:34.579Z</time></trkpt><trkpt lat="43.5047688" lon="16.5734337"><ele>80.33333333333333</ele><time>2026-05-04T15:18:35.58Z</time></trkpt><trkpt lat="43.5049171" lon="16.5732152"><ele>78.0</ele><time>2026-05-04T15:18:36.58Z</time></trkpt><trkpt lat="43.5050594" lon="16.5730012"><ele>77.33333333333333</ele><time>2026-05-04T15:18:37.58Z</time></trkpt><trkpt lat="43.5051995" lon="16.5727906"><ele>76.66666666666666</ele><time>2026-05-04T15:18:38.579Z</time></trkpt><trkpt lat="43.5053364" lon="16.57259"><ele>76.0</ele><time>2026-05-04T15:18:39.579Z</time></trkpt><trkpt lat="43.5054745" lon="16.5724022"><ele>76.0</ele><time>2026-05-04T15:18:40.58Z</time></trkpt><trkpt lat="43.5056094" lon="16.5722348"><ele>76.0</ele><time>2026-05-04T15:18:41.579Z</time></trkpt><trkpt lat="43.5057469" lon="16.5720759"><ele>76.0</ele><time>2026-05-04T15:18:42.58Z</time></trkpt><trkpt lat="43.5058865" lon="16.571928"><ele>75.66666666666666</ele><time>2026-05-04T15:18:43.579Z</time></trkpt><trkpt lat="43.5060236" lon="16.5717873"><ele>75.33333333333333</ele><time>2026-05-04T15:18:44.579Z</time></trkpt><trkpt lat="43.5061524" lon="16.571652"><ele>75.0</ele><time>2026-05-04T15:18:45.579Z</time></trkpt><trkpt lat="43.5062779" lon="16.5715179"><ele>75.0</ele><time>2026-05-04T15:18:46.58Z</time></trkpt><trkpt lat="43.5063995" lon="16.5713716"><ele>75.0</ele><time>2026-05-04T15:18:47.58Z</time></trkpt><trkpt lat="43.5065097" lon="16.5712089"><ele>75.0</ele><time>2026-05-04T15:18:48.579Z</time></trkpt><trkpt lat="43.506607" lon="16.5710326"><ele>75.33333333333333</ele><time>2026-05-04T15:18:49.58Z</time></trkpt><trkpt lat="43.5066939" lon="16.5708391"><ele>75.66666666666666</ele><time>2026-05-04T15:18:50.58Z</time></trkpt><trkpt lat="43.506774" lon="16.5706345"><ele>76.0</ele><time>2026-05-04T15:18:51.58Z</time></trkpt><trkpt lat="43.5068557" lon="16.5704155"><ele>73.33333333333333</ele><time>2026-05-04T15:18:52.58Z</time></trkpt><trkpt lat="43.5069334" lon="16.5702037"><ele>70.66666666666667</ele><time>2026-05-04T15:18:53.579Z</time></trkpt><trkpt lat="43.5070108" lon="16.5699871"><ele>68.0</ele><time>2026-05-04T15:18:54.58Z</time></trkpt><trkpt lat="43.5070906" lon="16.5697777"><ele>68.0</ele><time>2026-05-04T15:18:55.58Z</time></trkpt><trkpt lat="43.5071766" lon="16.5695762"><ele>68.0</ele><time>2026-05-04T15:18:56.58Z</time></trkpt><trkpt lat="43.50727" lon="16.5693931"><ele>68.0</ele><time>2026-05-04T15:18:57.579Z</time></trkpt><trkpt lat="43.5073836" lon="16.5692167"><ele>69.0</ele><time>2026-05-04T15:18:58.579Z</time></trkpt><trkpt lat="43.5075127" lon="16.569049"><ele>70.0</ele><time>2026-05-04T15:18:59.579Z</time></trkpt><trkpt lat="43.5076513" lon="16.5688856"><ele>71.0</ele><time>2026-05-04T15:19:00.58Z</time></trkpt><trkpt lat="43.5077893" lon="16.5687336"><ele>70.33333333333334</ele><time>2026-05-04T15:19:01.579Z</time></trkpt><trkpt lat="43.5079305" lon="16.5685834"><ele>69.66666666666667</ele><time>2026-05-04T15:19:02.579Z</time></trkpt><trkpt lat="43.5080694" lon="16.5684367"><ele>69.0</ele><time>2026-05-04T15:19:03.579Z</time></trkpt><trkpt lat="43.5082051" lon="16.5682927"><ele>69.0</ele><time>2026-05-04T15:19:04.58Z</time></trkpt><trkpt lat="43.5083296" lon="16.5681581"><ele>69.0</ele><time>2026-05-04T15:19:05.579Z</time></trkpt><trkpt lat="43.5084503" lon="16.5680245"><ele>69.0</ele><time>2026-05-04T15:19:06.579Z</time></trkpt><trkpt lat="43.5085668" lon="16.5678832"><ele>69.33333333333333</ele><time>2026-05-04T15:19:07.58Z</time></trkpt><trkpt lat="43.508681" lon="16.5677303"><ele>69.66666666666666</ele><time>2026-05-04T15:19:08.58Z</time></trkpt><trkpt lat="43.5087928" lon="16.5675715"><ele>70.0</ele><time>2026-05-04T15:19:09.579Z</time></trkpt><trkpt lat="43.5089115" lon="16.5674081"><ele>70.0</ele><time>2026-05-04T15:19:10.58Z</time></trkpt><trkpt lat="43.5090373" lon="16.5672446"><ele>70.0</ele><time>2026-05-04T15:19:11.58Z</time></trkpt><trkpt lat="43.509165" lon="16.5670972"><ele>70.0</ele><time>2026-05-04T15:19:12.579Z</time></trkpt><trkpt lat="43.5092954" lon="16.5669655"><ele>74.0</ele><time>2026-05-04T15:19:13.58Z</time></trkpt><trkpt lat="43.5094294" lon="16.5668432"><ele>78.0</ele><time>2026-05-04T15:19:14.579Z</time></trkpt><trkpt lat="43.5095674" lon="16.5667186"><ele>82.0</ele><time>2026-05-04T15:19:15.58Z</time></trkpt><trkpt lat="43.5097012" lon="16.5665852"><ele>79.33333333333333</ele><time>2026-05-04T15:19:16.579Z</time></trkpt><trkpt lat="43.509831" lon="16.5664352"><ele>76.66666666666667</ele><time>2026-05-04T15:19:17.58Z</time></trkpt><trkpt lat="43.5099532" lon="16.5662708"><ele>74.0</ele><time>2026-05-04T15:19:18.579Z</time></trkpt><trkpt lat="43.5100775" lon="16.5660913"><ele>74.0</ele><time>2026-05-04T15:19:19.579Z</time></trkpt><trkpt lat="43.510195" lon="16.5659143"><ele>74.0</ele><time>2026-05-04T15:19:20.579Z</time></trkpt><trkpt lat="43.5103052" lon="16.5657453"><ele>74.0</ele><time>2026-05-04T15:19:21.58Z</time></trkpt><trkpt lat="43.5104099" lon="16.565583"><ele>71.33333333333334</ele><time>2026-05-04T15:19:22.58Z</time></trkpt><trkpt lat="43.5105142" lon="16.5654296"><ele>68.66666666666667</ele><time>2026-05-04T15:19:23.579Z</time></trkpt><trkpt lat="43.5106279" lon="16.5652997"><ele>66.0</ele><time>2026-05-04T15:19:24.579Z</time></trkpt><trkpt lat="43.5107576" lon="16.5651877"><ele>66.0</ele><time>2026-05-04T15:19:25.58Z</time></trkpt><trkpt lat="43.5108939" lon="16.5650866"><ele>66.0</ele><time>2026-05-04T15:19:26.579Z</time></trkpt><trkpt lat="43.511027" lon="16.564988"><ele>66.0</ele><time>2026-05-04T15:19:27.579Z</time></trkpt><trkpt lat="43.5111587" lon="16.5648846"><ele>63.5</ele><time>2026-05-04T15:19:28.58Z</time></trkpt><trkpt lat="43.5112776" lon="16.5647722"><ele>61.0</ele><time>2026-05-04T15:19:29.579Z</time></trkpt><trkpt lat="43.5113823" lon="16.5646433"><ele>58.5</ele><time>2026-05-04T15:19:30.58Z</time></trkpt><trkpt lat="43.5114761" lon="16.5644914"><ele>56.0</ele><time>2026-05-04T15:19:31.58Z</time></trkpt><trkpt lat="43.5115615" lon="16.5643103"><ele>56.0</ele><time>2026-05-04T15:19:32.579Z</time></trkpt><trkpt lat="43.5116427" lon="16.5641103"><ele>56.0</ele><time>2026-05-04T15:19:33.58Z</time></trkpt><trkpt lat="43.5117266" lon="16.5638933"><ele>56.0</ele><time>2026-05-04T15:19:34.579Z</time></trkpt><trkpt lat="43.5118106" lon="16.5636672"><ele>58.66666666666667</ele><time>2026-05-04T15:19:35.58Z</time></trkpt><trkpt lat="43.5118964" lon="16.5634314"><ele>61.33333333333333</ele><time>2026-05-04T15:19:36.579Z</time></trkpt><trkpt lat="43.5119818" lon="16.5631989"><ele>64.0</ele><time>2026-05-04T15:19:37.579Z</time></trkpt><trkpt lat="43.5120693" lon="16.562971"><ele>59.33333333333333</ele><time>2026-05-04T15:19:38.58Z</time></trkpt><trkpt lat="43.5121598" lon="16.5627505"><ele>54.66666666666667</ele><time>2026-05-04T15:19:39.579Z</time></trkpt><trkpt lat="43.5122585" lon="16.5625416"><ele>50.0</ele><time>2026-05-04T15:19:40.579Z</time></trkpt><trkpt lat="43.5123645" lon="16.5623478"><ele>50.0</ele><time>2026-05-04T15:19:41.58Z</time></trkpt><trkpt lat="43.5124798" lon="16.5621648"><ele>50.0</ele><time>2026-05-04T15:19:42.58Z</time></trkpt><trkpt lat="43.5126034" lon="16.5619904"><ele>50.0</ele><time>2026-05-04T15:19:43.58Z</time></trkpt><trkpt lat="43.5127295" lon="16.5618267"><ele>46.0</ele><time>2026-05-04T15:19:44.58Z</time></trkpt><trkpt lat="43.5128578" lon="16.5616694"><ele>42.0</ele><time>2026-05-04T15:19:45.579Z</time></trkpt><trkpt lat="43.5129889" lon="16.5615123"><ele>38.0</ele><time>2026-05-04T15:19:46.58Z</time></trkpt><trkpt lat="43.5131229" lon="16.561349"><ele>43.33333333333333</ele><time>2026-05-04T15:19:47.579Z</time></trkpt><trkpt lat="43.5132508" lon="16.5611901"><ele>48.666666666666664</ele><time>2026-05-04T15:19:48.579Z</time></trkpt><trkpt lat="43.513378" lon="16.5610284"><ele>54.0</ele><time>2026-05-04T15:19:49.58Z</time></trkpt><trkpt lat="43.5134999" lon="16.5608687"><ele>54.0</ele><time>2026-05-04T15:19:50.58Z</time></trkpt><trkpt lat="43.513623" lon="16.5607061"><ele>54.0</ele><time>2026-05-04T15:19:51.58Z</time></trkpt><trkpt lat="43.5137421" lon="16.5605498"><ele>54.0</ele><time>2026-05-04T15:19:52.58Z</time></trkpt><trkpt lat="43.5138577" lon="16.5603951"><ele>49.666666666666664</ele><time>2026-05-04T15:19:53.58Z</time></trkpt><trkpt lat="43.5139715" lon="16.5602442"><ele>45.33333333333333</ele><time>2026-05-04T15:19:54.579Z</time></trkpt><trkpt lat="43.5140866" lon="16.5600858"><ele>41.0</ele><time>2026-05-04T15:19:55.579Z</time></trkpt><trkpt lat="43.5141977" lon="16.5599283"><ele>41.0</ele><time>2026-05-04T15:19:56.58Z</time></trkpt><trkpt lat="43.5143038" lon="16.5597666"><ele>41.0</ele><time>2026-05-04T15:19:57.579Z</time></trkpt><trkpt lat="43.5144006" lon="16.5596006"><ele>41.0</ele><time>2026-05-04T15:19:58.579Z</time></trkpt><trkpt lat="43.5144947" lon="16.5594204"><ele>37.666666666666664</ele><time>2026-05-04T15:19:59.58Z</time></trkpt><trkpt lat="43.514584" lon="16.5592415"><ele>34.333333333333336</ele><time>2026-05-04T15:20:00.579Z</time></trkpt><trkpt lat="43.5146719" lon="16.559061"><ele>31.0</ele><time>2026-05-04T15:20:01.58Z</time></trkpt><trkpt lat="43.5147579" lon="16.5588914"><ele>31.0</ele><time>2026-05-04T15:20:02.58Z</time></trkpt><trkpt lat="43.5148443" lon="16.5587218"><ele>31.0</ele><time>2026-05-04T15:20:03.579Z</time></trkpt><trkpt lat="43.5149255" lon="16.5585617"><ele>31.0</ele><time>2026-05-04T15:20:04.58Z</time></trkpt><trkpt lat="43.5150062" lon="16.5584091"><ele>31.0</ele><time>2026-05-04T15:20:05.579Z</time></trkpt><trkpt lat="43.5150928" lon="16.5582707"><ele>29.75</ele><time>2026-05-04T15:20:06.58Z</time></trkpt><trkpt lat="43.5151919" lon="16.5581367"><ele>28.5</ele><time>2026-05-04T15:20:07.58Z</time></trkpt><trkpt lat="43.5152914" lon="16.5580139"><ele>27.25</ele><time>2026-05-04T15:20:08.579Z</time></trkpt><trkpt lat="43.5153883" lon="16.5579017"><ele>26.0</ele><time>2026-05-04T15:20:09.579Z</time></trkpt><trkpt lat="43.5154836" lon="16.5577972"><ele>26.0</ele><time>2026-05-04T15:20:10.58Z</time></trkpt><trkpt lat="43.5155734" lon="16.5576934"><ele>26.0</ele><time>2026-05-04T15:20:11.579Z</time></trkpt><trkpt lat="43.5156549" lon="16.557587"><ele>26.0</ele><time>2026-05-04T15:20:12.58Z</time></trkpt><trkpt lat="43.5157293" lon="16.5574774"><ele>26.0</ele><time>2026-05-04T15:20:13.58Z</time></trkpt><trkpt lat="43.515793" lon="16.5573572"><ele>26.0</ele><time>2026-05-04T15:20:14.579Z</time></trkpt><trkpt lat="43.5158508" lon="16.5572197"><ele>26.0</ele><time>2026-05-04T15:20:15.58Z</time></trkpt><trkpt lat="43.5158976" lon="16.5570776"><ele>26.0</ele><time>2026-05-04T15:20:16.58Z</time></trkpt><trkpt lat="43.5159373" lon="16.556936"><ele>26.0</ele><time>2026-05-04T15:20:17.58Z</time></trkpt><trkpt lat="43.5159714" lon="16.5567979"><ele>26.0</ele><time>2026-05-04T15:20:18.579Z</time></trkpt><trkpt lat="43.516005" lon="16.5566504"><ele>26.0</ele><time>2026-05-04T15:20:19.58Z</time></trkpt><trkpt lat="43.5160382" lon="16.5565092"><ele>27.25</ele><time>2026-05-04T15:20:20.58Z</time></trkpt><trkpt lat="43.5160706" lon="16.5563672"><ele>28.5</ele><time>2026-05-04T15:20:21.579Z</time></trkpt><trkpt lat="43.516108" lon="16.5562222"><ele>29.75</ele><time>2026-05-04T15:20:22.579Z</time></trkpt><trkpt lat="43.5161513" lon="16.55607"><ele>31.0</ele><time>2026-05-04T15:20:23.579Z</time></trkpt><trkpt lat="43.5161971" lon="16.5559234"><ele>29.0</ele><time>2026-05-04T15:20:24.579Z</time></trkpt><trkpt lat="43.5162457" lon="16.5557757"><ele>27.0</ele><time>2026-05-04T15:20:25.58Z</time></trkpt><trkpt lat="43.5162966" lon="16.5556249"><ele>25.0</ele><time>2026-05-04T15:20:26.579Z</time></trkpt><trkpt lat="43.516349" lon="16.5554672"><ele>23.0</ele><time>2026-05-04T15:20:27.58Z</time></trkpt><trkpt lat="43.5164012" lon="16.5553087"><ele>23.0</ele><time>2026-05-04T15:20:28.579Z</time></trkpt><trkpt lat="43.5164542" lon="16.5551473"><ele>23.0</ele><time>2026-05-04T15:20:29.58Z</time></trkpt><trkpt lat="43.5165054" lon="16.5549904"><ele>23.0</ele><time>2026-05-04T15:20:30.579Z</time></trkpt><trkpt lat="43.5165566" lon="16.5548292"><ele>23.0</ele><time>2026-05-04T15:20:31.58Z</time></trkpt><trkpt lat="43.5166051" lon="16.5546774"><ele>24.2</ele><time>2026-05-04T15:20:32.579Z</time></trkpt><trkpt lat="43.5166501" lon="16.5545321"><ele>25.4</ele><time>2026-05-04T15:20:33.58Z</time></trkpt><trkpt lat="43.5166941" lon="16.5543946"><ele>26.599999999999998</ele><time>2026-05-04T15:20:34.579Z</time></trkpt><trkpt lat="43.5167381" lon="16.5542605"><ele>27.799999999999997</ele><time>2026-05-04T15:20:35.579Z</time></trkpt><trkpt lat="43.5167793" lon="16.5541305"><ele>29.0</ele><time>2026-05-04T15:20:36.579Z</time></trkpt><trkpt lat="43.5168225" lon="16.5539972"><ele>29.0</ele><time>2026-05-04T15:20:37.58Z</time></trkpt><trkpt lat="43.5168638" lon="16.5538623"><ele>29.0</ele><time>2026-05-04T15:20:38.58Z</time></trkpt><trkpt lat="43.5169066" lon="16.5537212"><ele>29.0</ele><time>2026-05-04T15:20:39.579Z</time></trkpt><trkpt lat="43.5169495" lon="16.5535776"><ele>29.0</ele><time>2026-05-04T15:20:40.579Z</time></trkpt><trkpt lat="43.5169923" lon="16.5534289"><ele>29.0</ele><time>2026-05-04T15:20:41.58Z</time></trkpt><trkpt lat="43.5170326" lon="16.5532771"><ele>27.0</ele><time>2026-05-04T15:20:42.579Z</time></trkpt><trkpt lat="43.5170704" lon="16.553118"><ele>25.0</ele><time>2026-05-04T15:20:43.579Z</time></trkpt><trkpt lat="43.5171107" lon="16.5529529"><ele>23.0</ele><time>2026-05-04T15:20:44.58Z</time></trkpt><trkpt lat="43.5171582" lon="16.5527832"><ele>21.0</ele><time>2026-05-04T15:20:45.58Z</time></trkpt><trkpt lat="43.5172121" lon="16.5526148"><ele>21.0</ele><time>2026-05-04T15:20:46.58Z</time></trkpt><trkpt lat="43.5172724" lon="16.5524402"><ele>21.0</ele><time>2026-05-04T15:20:47.58Z</time></trkpt><trkpt lat="43.517337" lon="16.5522679"><ele>21.0</ele><time>2026-05-04T15:20:48.58Z</time></trkpt><trkpt lat="43.5174077" lon="16.552088"><ele>21.0</ele><time>2026-05-04T15:20:49.58Z</time></trkpt><trkpt lat="43.5174731" lon="16.5519042"><ele>23.333333333333336</ele><time>2026-05-04T15:20:50.58Z</time></trkpt><trkpt lat="43.5175326" lon="16.5517062"><ele>25.666666666666668</ele><time>2026-05-04T15:20:51.579Z</time></trkpt><trkpt lat="43.5175839" lon="16.5514997"><ele>28.0</ele><time>2026-05-04T15:20:52.58Z</time></trkpt><trkpt lat="43.5176321" lon="16.5512859"><ele>31.666666666666668</ele><time>2026-05-04T15:20:53.58Z</time></trkpt><trkpt lat="43.5176815" lon="16.5510691"><ele>35.333333333333336</ele><time>2026-05-04T15:20:54.579Z</time></trkpt><trkpt lat="43.5177321" lon="16.5508478"><ele>39.0</ele><time>2026-05-04T15:20:55.58Z</time></trkpt><trkpt lat="43.5177845" lon="16.5506277"><ele>39.0</ele><time>2026-05-04T15:20:56.579Z</time></trkpt><trkpt lat="43.5178422" lon="16.5504034"><ele>39.0</ele><time>2026-05-04T15:20:57.58Z</time></trkpt><trkpt lat="43.5179035" lon="16.5501781"><ele>39.0</ele><time>2026-05-04T15:20:58.579Z</time></trkpt><trkpt lat="43.5179671" lon="16.5499468"><ele>33.666666666666664</ele><time>2026-05-04T15:20:59.58Z</time></trkpt><trkpt lat="43.5180342" lon="16.5497215"><ele>28.333333333333336</ele><time>2026-05-04T15:21:00.58Z</time></trkpt><trkpt lat="43.5181031" lon="16.5494958"><ele>23.0</ele><time>2026-05-04T15:21:01.58Z</time></trkpt><trkpt lat="43.5181653" lon="16.5492791"><ele>23.0</ele><time>2026-05-04T15:21:02.579Z</time></trkpt><trkpt lat="43.5182282" lon="16.549058"><ele>23.0</ele><time>2026-05-04T15:21:03.58Z</time></trkpt><trkpt lat="43.5182935" lon="16.5488437"><ele>23.0</ele><time>2026-05-04T15:21:04.579Z</time></trkpt><trkpt lat="43.5183637" lon="16.5486331"><ele>27.0</ele><time>2026-05-04T15:21:05.58Z</time></trkpt><trkpt lat="43.5184409" lon="16.5484265"><ele>31.0</ele><time>2026-05-04T15:21:06.579Z</time></trkpt><trkpt lat="43.5185258" lon="16.5482182"><ele>35.0</ele><time>2026-05-04T15:21:07.579Z</time></trkpt><trkpt lat="43.5186133" lon="16.5480168"><ele>38.33333333333333</ele><time>2026-05-04T15:21:08.579Z</time></trkpt><trkpt lat="43.5186978" lon="16.5478255"><ele>41.666666666666664</ele><time>2026-05-04T15:21:09.579Z</time></trkpt><trkpt lat="43.5187789" lon="16.5476467"><ele>45.0</ele><time>2026-05-04T15:21:10.579Z</time></trkpt><trkpt lat="43.5188575" lon="16.5474724"><ele>39.0</ele><time>2026-05-04T15:21:11.58Z</time></trkpt><trkpt lat="43.5189296" lon="16.5473099"><ele>33.0</ele><time>2026-05-04T15:21:12.579Z</time></trkpt><trkpt lat="43.5189923" lon="16.5471524"><ele>27.0</ele><time>2026-05-04T15:21:13.579Z</time></trkpt><trkpt lat="43.5190393" lon="16.546997"><ele>21.0</ele><time>2026-05-04T15:21:14.579Z</time></trkpt><trkpt lat="43.5190642" lon="16.5468336"><ele>21.0</ele><time>2026-05-04T15:21:15.579Z</time></trkpt><trkpt lat="43.5190571" lon="16.5466733"><ele>21.0</ele><time>2026-05-04T15:21:16.579Z</time></trkpt><trkpt lat="43.5190233" lon="16.5465092"><ele>21.0</ele><time>2026-05-04T15:21:17.58Z</time></trkpt><trkpt lat="43.5189677" lon="16.5463474"><ele>21.0</ele><time>2026-05-04T15:21:18.579Z</time></trkpt><trkpt lat="43.5188968" lon="16.5461782"><ele>20.75</ele><time>2026-05-04T15:21:19.579Z</time></trkpt><trkpt lat="43.5188219" lon="16.5460086"><ele>20.5</ele><time>2026-05-04T15:21:20.579Z</time></trkpt><trkpt lat="43.5187499" lon="16.5458473"><ele>20.25</ele><time>2026-05-04T15:21:21.579Z</time></trkpt><trkpt lat="43.5186833" lon="16.545695"><ele>20.0</ele><time>2026-05-04T15:21:22.579Z</time></trkpt><trkpt lat="43.518627" lon="16.5455389"><ele>24.5</ele><time>2026-05-04T15:21:23.579Z</time></trkpt><trkpt lat="43.5185892" lon="16.5453775"><ele>29.0</ele><time>2026-05-04T15:21:24.58Z</time></trkpt><trkpt lat="43.5185742" lon="16.5452064"><ele>33.5</ele><time>2026-05-04T15:21:25.58Z</time></trkpt><trkpt lat="43.5185838" lon="16.5450327"><ele>38.0</ele><time>2026-05-04T15:21:26.58Z</time></trkpt><trkpt lat="43.5186122" lon="16.5448469"><ele>38.0</ele><time>2026-05-04T15:21:27.579Z</time></trkpt><trkpt lat="43.5186471" lon="16.5446654"><ele>38.0</ele><time>2026-05-04T15:21:28.579Z</time></trkpt><trkpt lat="43.5186835" lon="16.5444869"><ele>38.0</ele><time>2026-05-04T15:21:29.579Z</time></trkpt><trkpt lat="43.5187021" lon="16.5443191"><ele>38.0</ele><time>2026-05-04T15:21:30.58Z</time></trkpt><trkpt lat="43.5186965" lon="16.5441564"><ele>36.0</ele><time>2026-05-04T15:21:31.58Z</time></trkpt><trkpt lat="43.5186627" lon="16.5440122"><ele>34.0</ele><time>2026-05-04T15:21:32.579Z</time></trkpt><trkpt lat="43.5186021" lon="16.5438869"><ele>32.0</ele><time>2026-05-04T15:21:33.58Z</time></trkpt><trkpt lat="43.518517" lon="16.5437899"><ele>30.0</ele><time>2026-05-04T15:21:34.58Z</time></trkpt><trkpt lat="43.518409" lon="16.5437164"><ele>25.25</ele><time>2026-05-04T15:21:35.58Z</time></trkpt><trkpt lat="43.5182937" lon="16.543665"><ele>20.5</ele><time>2026-05-04T15:21:36.579Z</time></trkpt><trkpt lat="43.5181736" lon="16.5436262"><ele>15.75</ele><time>2026-05-04T15:21:37.58Z</time></trkpt><trkpt lat="43.5180518" lon="16.5435919"><ele>11.0</ele><time>2026-05-04T15:21:38.58Z</time></trkpt><trkpt lat="43.517923" lon="16.5435529"><ele>12.25</ele><time>2026-05-04T15:21:39.579Z</time></trkpt><trkpt lat="43.5177942" lon="16.5435107"><ele>13.5</ele><time>2026-05-04T15:21:40.579Z</time></trkpt><trkpt lat="43.5176662" lon="16.5434701"><ele>14.75</ele><time>2026-05-04T15:21:41.579Z</time></trkpt><trkpt lat="43.5175401" lon="16.5434273"><ele>16.0</ele><time>2026-05-04T15:21:42.58Z</time></trkpt><trkpt lat="43.5174117" lon="16.5433758"><ele>16.0</ele><time>2026-05-04T15:21:43.579Z</time></trkpt><trkpt lat="43.5172847" lon="16.5433096"><ele>16.0</ele><time>2026-05-04T15:21:44.579Z</time></trkpt><trkpt lat="43.5171599" lon="16.5432334"><ele>16.0</ele><time>2026-05-04T15:21:45.58Z</time></trkpt><trkpt lat="43.5170396" lon="16.5431457"><ele>16.0</ele><time>2026-05-04T15:21:46.58Z</time></trkpt><trkpt lat="43.5169211" lon="16.5430397"><ele>17.5</ele><time>2026-05-04T15:21:47.579Z</time></trkpt><trkpt lat="43.5168087" lon="16.5429257"><ele>19.0</ele><time>2026-05-04T15:21:48.58Z</time></trkpt><trkpt lat="43.5167029" lon="16.5428061"><ele>20.5</ele><time>2026-05-04T15:21:49.579Z</time></trkpt><trkpt lat="43.5165984" lon="16.5426827"><ele>22.0</ele><time>2026-05-04T15:21:50.58Z</time></trkpt><trkpt lat="43.5164895" lon="16.5425638"><ele>20.5</ele><time>2026-05-04T15:21:51.579Z</time></trkpt><trkpt lat="43.516382" lon="16.5424649"><ele>19.0</ele><time>2026-05-04T15:21:52.58Z</time></trkpt><trkpt lat="43.5162731" lon="16.5423813"><ele>17.5</ele><time>2026-05-04T15:21:53.58Z</time></trkpt><trkpt lat="43.5161636" lon="16.5423169"><ele>16.0</ele><time>2026-05-04T15:21:54.58Z</time></trkpt><trkpt lat="43.5160533" lon="16.542261"><ele>16.0</ele><time>2026-05-04T15:21:55.58Z</time></trkpt><trkpt lat="43.51594" lon="16.5422053"><ele>16.0</ele><time>2026-05-04T15:21:56.579Z</time></trkpt><trkpt lat="43.5158143" lon="16.5421453"><ele>16.0</ele><time>2026-05-04T15:21:57.58Z</time></trkpt><trkpt lat="43.5156818" lon="16.5420837"><ele>16.0</ele><time>2026-05-04T15:21:58.579Z</time></trkpt><trkpt lat="43.5155426" lon="16.5420156"><ele>14.5</ele><time>2026-05-04T15:21:59.579Z</time></trkpt><trkpt lat="43.5154052" lon="16.5419492"><ele>13.0</ele><time>2026-05-04T15:22:00.58Z</time></trkpt><trkpt lat="43.5152672" lon="16.5418809"><ele>11.5</ele><time>2026-05-04T15:22:01.579Z</time></trkpt><trkpt lat="43.5151293" lon="16.541813"><ele>10.0</ele><time>2026-05-04T15:22:02.58Z</time></trkpt><trkpt lat="43.5149855" lon="16.5417389"><ele>10.0</ele><time>2026-05-04T15:22:03.58Z</time></trkpt><trkpt lat="43.5148488" lon="16.5416591"><ele>10.0</ele><time>2026-05-04T15:22:04.579Z</time></trkpt><trkpt lat="43.5147153" lon="16.5415703"><ele>10.0</ele><time>2026-05-04T15:22:05.58Z</time></trkpt><trkpt lat="43.5145897" lon="16.5414753"><ele>10.0</ele><time>2026-05-04T15:22:06.579Z</time></trkpt><trkpt lat="43.5144699" lon="16.5413661"><ele>9.5</ele><time>2026-05-04T15:22:07.579Z</time></trkpt><trkpt lat="43.5143649" lon="16.5412527"><ele>9.0</ele><time>2026-05-04T15:22:08.579Z</time></trkpt><trkpt lat="43.5142694" lon="16.5411351"><ele>8.5</ele><time>2026-05-04T15:22:09.58Z</time></trkpt><trkpt lat="43.5141802" lon="16.5410166"><ele>8.0</ele><time>2026-05-04T15:22:10.579Z</time></trkpt><trkpt lat="43.5140952" lon="16.5408959"><ele>8.0</ele><time>2026-05-04T15:22:11.579Z</time></trkpt><trkpt lat="43.5140156" lon="16.5407747"><ele>8.0</ele><time>2026-05-04T15:22:12.58Z</time></trkpt><trkpt lat="43.5139419" lon="16.5406515"><ele>8.0</ele><time>2026-05-04T15:22:13.58Z</time></trkpt><trkpt lat="43.5138717" lon="16.5405313"><ele>8.0</ele><time>2026-05-04T15:22:14.579Z</time></trkpt><trkpt lat="43.5137975" lon="16.5404069"><ele>8.0</ele><time>2026-05-04T15:22:15.58Z</time></trkpt><trkpt lat="43.513723" lon="16.5402862"><ele>8.0</ele><time>2026-05-04T15:22:16.58Z</time></trkpt><trkpt lat="43.5136484" lon="16.5401667"><ele>8.0</ele><time>2026-05-04T15:22:17.579Z</time></trkpt><trkpt lat="43.5135757" lon="16.5400476"><ele>8.0</ele><time>2026-05-04T15:22:18.58Z</time></trkpt><trkpt lat="43.5134979" lon="16.5399276"><ele>8.0</ele><time>2026-05-04T15:22:19.579Z</time></trkpt><trkpt lat="43.5134166" lon="16.5398172"><ele>8.0</ele><time>2026-05-04T15:22:20.58Z</time></trkpt><trkpt lat="43.5133299" lon="16.5397123"><ele>8.0</ele><time>2026-05-04T15:22:21.579Z</time></trkpt><trkpt lat="43.5132378" lon="16.5396147"><ele>8.0</ele><time>2026-05-04T15:22:22.58Z</time></trkpt><trkpt lat="43.513138" lon="16.5395165"><ele>7.25</ele><time>2026-05-04T15:22:23.58Z</time></trkpt><trkpt lat="43.5130307" lon="16.5394248"><ele>6.5</ele><time>2026-05-04T15:22:24.579Z</time></trkpt><trkpt lat="43.5129118" lon="16.539344"><ele>5.75</ele><time>2026-05-04T15:22:25.58Z</time></trkpt><trkpt lat="43.5127814" lon="16.5392725"><ele>5.0</ele><time>2026-05-04T15:22:26.579Z</time></trkpt><trkpt lat="43.5126365" lon="16.53921"><ele>5.0</ele><time>2026-05-04T15:22:27.58Z</time></trkpt><trkpt lat="43.5124923" lon="16.5391647"><ele>5.0</ele><time>2026-05-04T15:22:28.58Z</time></trkpt><trkpt lat="43.5123418" lon="16.5391308"><ele>5.0</ele><time>2026-05-04T15:22:29.58Z</time></trkpt><trkpt lat="43.512183" lon="16.5391132"><ele>5.0</ele><time>2026-05-04T15:22:30.579Z</time></trkpt><trkpt lat="43.51202" lon="16.5391063"><ele>5.0</ele><time>2026-05-04T15:22:31.579Z</time></trkpt><trkpt lat="43.5118678" lon="16.5391049"><ele>5.0</ele><time>2026-05-04T15:22:32.58Z</time></trkpt><trkpt lat="43.5117242" lon="16.5391014"><ele>5.0</ele><time>2026-05-04T15:22:33.58Z</time></trkpt><trkpt lat="43.5115918" lon="16.539096"><ele>5.0</ele><time>2026-05-04T15:22:34.579Z</time></trkpt><trkpt lat="43.5114626" lon="16.5390837"><ele>5.0</ele><time>2026-05-04T15:22:35.58Z</time></trkpt><trkpt lat="43.5113379" lon="16.5390632"><ele>5.0</ele><time>2026-05-04T15:22:36.579Z</time></trkpt><trkpt lat="43.5112178" lon="16.5390365"><ele>5.0</ele><time>2026-05-04T15:22:37.58Z</time></trkpt><trkpt lat="43.5111092" lon="16.5390074"><ele>5.0</ele><time>2026-05-04T15:22:38.579Z</time></trkpt><trkpt lat="43.5110035" lon="16.5389744"><ele>5.0</ele><time>2026-05-04T15:22:39.58Z</time></trkpt><trkpt lat="43.5109047" lon="16.5389402"><ele>5.0</ele><time>2026-05-04T15:22:40.58Z</time></trkpt><trkpt lat="43.5108089" lon="16.5389002"><ele>5.0</ele><time>2026-05-04T15:22:41.579Z</time></trkpt><trkpt lat="43.5107125" lon="16.5388567"><ele>5.0</ele><time>2026-05-04T15:22:42.579Z</time></trkpt><trkpt lat="43.5106137" lon="16.5388066"><ele>5.0</ele><time>2026-05-04T15:22:43.579Z</time></trkpt><trkpt lat="43.5105174" lon="16.5387503"><ele>5.0</ele><time>2026-05-04T15:22:44.58Z</time></trkpt><trkpt lat="43.5104216" lon="16.5386889"><ele>5.0</ele><time>2026-05-04T15:22:45.579Z</time></trkpt><trkpt lat="43.5103294" lon="16.5386293"><ele>5.0</ele><time>2026-05-04T15:22:46.58Z</time></trkpt><trkpt lat="43.5102331" lon="16.5385676"><ele>4.8</ele><time>2026-05-04T15:22:47.58Z</time></trkpt><trkpt lat="43.5101399" lon="16.5385069"><ele>4.6</ele><time>2026-05-04T15:22:48.579Z</time></trkpt><trkpt lat="43.5100452" lon="16.5384476"><ele>4.4</ele><time>2026-05-04T15:22:49.58Z</time></trkpt><trkpt lat="43.5099492" lon="16.5383895"><ele>4.2</ele><time>2026-05-04T15:22:50.58Z</time></trkpt><trkpt lat="43.5098498" lon="16.5383324"><ele>4.0</ele><time>2026-05-04T15:22:51.58Z</time></trkpt><trkpt lat="43.5097512" lon="16.5382799"><ele>4.0</ele><time>2026-05-04T15:22:52.58Z</time></trkpt><trkpt lat="43.5096515" lon="16.5382265"><ele>4.0</ele><time>2026-05-04T15:22:53.58Z</time></trkpt><trkpt lat="43.5095525" lon="16.5381757"><ele>4.0</ele><time>2026-05-04T15:22:54.58Z</time></trkpt><trkpt lat="43.5094461" lon="16.5381246"><ele>4.0</ele><time>2026-05-04T15:22:55.579Z</time></trkpt><trkpt lat="43.5093392" lon="16.5380744"><ele>4.0</ele><time>2026-05-04T15:22:56.58Z</time></trkpt><trkpt lat="43.509232" lon="16.5380229"><ele>3.8000000000000003</ele><time>2026-05-04T15:22:57.58Z</time></trkpt><trkpt lat="43.5091287" lon="16.5379707"><ele>3.6000000000000005</ele><time>2026-05-04T15:22:58.579Z</time></trkpt><trkpt lat="43.5090241" lon="16.5379189"><ele>3.4</ele><time>2026-05-04T15:22:59.579Z</time></trkpt><trkpt lat="43.5089235" lon="16.5378686"><ele>3.2</ele><time>2026-05-04T15:23:00.58Z</time></trkpt><trkpt lat="43.5088244" lon="16.5378202"><ele>3.0</ele><time>2026-05-04T15:23:01.579Z</time></trkpt><trkpt lat="43.5087332" lon="16.5377721"><ele>2.3333333333333335</ele><time>2026-05-04T15:23:02.579Z</time></trkpt><trkpt lat="43.5086528" lon="16.5377273"><ele>1.6666666666666667</ele><time>2026-05-04T15:23:03.579Z</time></trkpt><trkpt lat="43.5085889" lon="16.5376873"><ele>1.0</ele><time>2026-05-04T15:23:04.579Z</time></trkpt><trkpt lat="43.5084931" lon="16.5376275"><ele>0.33333333333333337</ele><time>2026-05-04T15:23:06.58Z</time></trkpt><trkpt lat="43.5084325" lon="16.5375921"><ele>-0.33333333333333326</ele><time>2026-05-04T15:23:07.58Z</time></trkpt><trkpt lat="43.5083613" lon="16.5375539"><ele>-1.0</ele><time>2026-05-04T15:23:08.579Z</time></trkpt><trkpt lat="43.5082745" lon="16.5375054"><ele>-1.0</ele><time>2026-05-04T15:23:09.58Z</time></trkpt><trkpt lat="43.5081726" lon="16.537439"><ele>-1.0</ele><time>2026-05-04T15:23:10.58Z</time></trkpt><trkpt lat="43.5080647" lon="16.5373581"><ele>-1.0</ele><time>2026-05-04T15:23:11.58Z</time></trkpt><trkpt lat="43.5079555" lon="16.5372663"><ele>-1.0</ele><time>2026-05-04T15:23:12.58Z</time></trkpt><trkpt lat="43.5078415" lon="16.5371618"><ele>-0.75</ele><time>2026-05-04T15:23:13.58Z</time></trkpt><trkpt lat="43.5077235" lon="16.5370504"><ele>-0.5</ele><time>2026-05-04T15:23:14.58Z</time></trkpt><trkpt lat="43.5075995" lon="16.5369297"><ele>-0.25</ele><time>2026-05-04T15:23:15.579Z</time></trkpt><trkpt lat="43.5074805" lon="16.5368082"><ele>0.0</ele><time>2026-05-04T15:23:16.58Z</time></trkpt><trkpt lat="43.5073617" lon="16.5366833"><ele>0.0</ele><time>2026-05-04T15:23:17.579Z</time></trkpt><trkpt lat="43.5072408" lon="16.5365552"><ele>0.0</ele><time>2026-05-04T15:23:18.58Z</time></trkpt><trkpt lat="43.5071153" lon="16.5364244"><ele>0.0</ele><time>2026-05-04T15:23:19.58Z</time></trkpt><trkpt lat="43.5069925" lon="16.5362973"><ele>-0.6666666666666666</ele><time>2026-05-04T15:23:20.579Z</time></trkpt><trkpt lat="43.5068699" lon="16.5361698"><ele>-1.3333333333333333</ele><time>2026-05-04T15:23:21.58Z</time></trkpt><trkpt lat="43.5067484" lon="16.5360426"><ele>-2.0</ele><time>2026-05-04T15:23:22.579Z</time></trkpt><trkpt lat="43.506628" lon="16.535915"><ele>-2.0</ele><time>2026-05-04T15:23:23.58Z</time></trkpt><trkpt lat="43.5065078" lon="16.5357865"><ele>-2.0</ele><time>2026-05-04T15:23:24.58Z</time></trkpt><trkpt lat="43.5063886" lon="16.5356605"><ele>-2.0</ele><time>2026-05-04T15:23:25.58Z</time></trkpt><trkpt lat="43.506273" lon="16.5355397"><ele>-2.0</ele><time>2026-05-04T15:23:26.58Z</time></trkpt><trkpt lat="43.5061558" lon="16.5354175"><ele>-1.5</ele><time>2026-05-04T15:23:27.579Z</time></trkpt><trkpt lat="43.5060437" lon="16.5353019"><ele>-1.0</ele><time>2026-05-04T15:23:28.58Z</time></trkpt><trkpt lat="43.5059364" lon="16.5351914"><ele>-0.5</ele><time>2026-05-04T15:23:29.579Z</time></trkpt><trkpt lat="43.5058375" lon="16.5350897"><ele>0.0</ele><time>2026-05-04T15:23:30.58Z</time></trkpt><trkpt lat="43.505745" lon="16.5349936"><ele>0.0</ele><time>2026-05-04T15:23:31.579Z</time></trkpt><trkpt lat="43.5056614" lon="16.5349065"><ele>0.0</ele><time>2026-05-04T15:23:32.579Z</time></trkpt><trkpt lat="43.5055826" lon="16.5348228"><ele>0.0</ele><time>2026-05-04T15:23:33.58Z</time></trkpt><trkpt lat="43.5055037" lon="16.5347383"><ele>0.0</ele><time>2026-05-04T15:23:34.58Z</time></trkpt><trkpt lat="43.5054208" lon="16.5346504"><ele>0.0</ele><time>2026-05-04T15:23:35.58Z</time></trkpt><trkpt lat="43.5053394" lon="16.5345636"><ele>-0.2</ele><time>2026-05-04T15:23:36.58Z</time></trkpt><trkpt lat="43.5052584" lon="16.5344785"><ele>-0.4</ele><time>2026-05-04T15:23:37.579Z</time></trkpt><trkpt lat="43.5051827" lon="16.5343969"><ele>-0.6000000000000001</ele><time>2026-05-04T15:23:38.58Z</time></trkpt><trkpt lat="43.5051068" lon="16.5343141"><ele>-0.8</ele><time>2026-05-04T15:23:39.579Z</time></trkpt><trkpt lat="43.5050293" lon="16.5342281"><ele>-1.0</ele><time>2026-05-04T15:23:40.579Z</time></trkpt><trkpt lat="43.504951" lon="16.534141"><ele>-1.0</ele><time>2026-05-04T15:23:41.579Z</time></trkpt><trkpt lat="43.504874" lon="16.5340538"><ele>-1.0</ele><time>2026-05-04T15:23:42.58Z</time></trkpt><trkpt lat="43.5047922" lon="16.5339584"><ele>-1.0</ele><time>2026-05-04T15:23:43.579Z</time></trkpt><trkpt lat="43.5047129" lon="16.5338633"><ele>-1.0</ele><time>2026-05-04T15:23:44.579Z</time></trkpt><trkpt lat="43.5046357" lon="16.533776"><ele>-1.0</ele><time>2026-05-04T15:23:45.579Z</time></trkpt><trkpt lat="43.5045633" lon="16.5336991"><ele>-1.0</ele><time>2026-05-04T15:23:46.579Z</time></trkpt><trkpt lat="43.5044934" lon="16.533626"><ele>-0.9999999999999999</ele><time>2026-05-04T15:23:47.58Z</time></trkpt><trkpt lat="43.5044289" lon="16.5335594"><ele>-1.0</ele><time>2026-05-04T15:23:48.58Z</time></trkpt><trkpt lat="43.5043685" lon="16.5334969"><ele>-1.0</ele><time>2026-05-04T15:23:49.58Z</time></trkpt><trkpt lat="43.5043131" lon="16.5334354"><ele>-0.9999999999999999</ele><time>2026-05-04T15:23:50.579Z</time></trkpt><trkpt lat="43.5042618" lon="16.5333792"><ele>-1.0</ele><time>2026-05-04T15:23:51.58Z</time></trkpt><trkpt lat="43.5042106" lon="16.5333279"><ele>-1.0</ele><time>2026-05-04T15:23:52.58Z</time></trkpt><trkpt lat="43.5041308" lon="16.5332282"><ele>-1.0</ele><time>2026-05-04T15:23:54.579Z</time></trkpt><trkpt lat="43.5040964" lon="16.5331194"><ele>-1.0</ele><time>2026-05-04T15:23:56.58Z</time></trkpt><trkpt lat="43.5041251" lon="16.5329858"><ele>-1.0</ele><time>2026-05-04T15:23:58.58Z</time></trkpt><trkpt lat="43.5041686" lon="16.5328926"><ele>-1.0</ele><time>2026-05-04T15:23:59.58Z</time></trkpt><trkpt lat="43.504218" lon="16.5327934"><ele>-1.0</ele><time>2026-05-04T15:24:00.579Z</time></trkpt><trkpt lat="43.5042731" lon="16.5326793"><ele>-1.0</ele><time>2026-05-04T15:24:01.58Z</time></trkpt><trkpt lat="43.5043341" lon="16.532544"><ele>-1.0</ele><time>2026-05-04T15:24:02.58Z</time></trkpt><trkpt lat="43.5043947" lon="16.5324012"><ele>-1.0</ele><time>2026-05-04T15:24:03.58Z</time></trkpt><trkpt lat="43.5044525" lon="16.5322574"><ele>-1.0</ele><time>2026-05-04T15:24:04.58Z</time></trkpt><trkpt lat="43.5045105" lon="16.5321101"><ele>-1.0</ele><time>2026-05-04T15:24:05.58Z</time></trkpt><trkpt lat="43.5045693" lon="16.5319628"><ele>-1.0</ele><time>2026-05-04T15:24:06.58Z</time></trkpt><trkpt lat="43.5046286" lon="16.5318106"><ele>-1.0</ele><time>2026-05-04T15:24:07.579Z</time></trkpt><trkpt lat="43.5046847" lon="16.5316646"><ele>-1.0</ele><time>2026-05-04T15:24:08.579Z</time></trkpt><trkpt lat="43.5047395" lon="16.5315236"><ele>-1.0</ele><time>2026-05-04T15:24:09.579Z</time></trkpt><trkpt lat="43.5047929" lon="16.5313841"><ele>-1.0</ele><time>2026-05-04T15:24:10.579Z</time></trkpt><trkpt lat="43.504849" lon="16.5312409"><ele>-1.0</ele><time>2026-05-04T15:24:11.579Z</time></trkpt><trkpt lat="43.5049054" lon="16.5310999"><ele>-1.0</ele><time>2026-05-04T15:24:12.58Z</time></trkpt><trkpt lat="43.5049623" lon="16.5309585"><ele>-1.0</ele><time>2026-05-04T15:24:13.579Z</time></trkpt><trkpt lat="43.505017" lon="16.5308183"><ele>-1.0</ele><time>2026-05-04T15:24:14.58Z</time></trkpt><trkpt lat="43.5050746" lon="16.5306744"><ele>-1.0</ele><time>2026-05-04T15:24:15.579Z</time></trkpt><trkpt lat="43.5051316" lon="16.5305293"><ele>-1.0</ele><time>2026-05-04T15:24:16.579Z</time></trkpt><trkpt lat="43.5051902" lon="16.5303823"><ele>-1.0</ele><time>2026-05-04T15:24:17.58Z</time></trkpt><trkpt lat="43.5052485" lon="16.5302363"><ele>-1.0</ele><time>2026-05-04T15:24:18.58Z</time></trkpt><trkpt lat="43.5053138" lon="16.5300798"><ele>-1.0</ele><time>2026-05-04T15:24:19.579Z</time></trkpt><trkpt lat="43.5053852" lon="16.5299199"><ele>-1.0</ele><time>2026-05-04T15:24:20.579Z</time></trkpt><trkpt lat="43.5054561" lon="16.5297639"><ele>-1.0</ele><time>2026-05-04T15:24:21.58Z</time></trkpt><trkpt lat="43.5055233" lon="16.5296117"><ele>-1.0</ele><time>2026-05-04T15:24:22.58Z</time></trkpt><trkpt lat="43.5055897" lon="16.5294561"><ele>-1.0</ele><time>2026-05-04T15:24:23.579Z</time></trkpt><trkpt lat="43.5056517" lon="16.529306"><ele>-1.0</ele><time>2026-05-04T15:24:24.58Z</time></trkpt><trkpt lat="43.5057118" lon="16.5291606"><ele>-0.75</ele><time>2026-05-04T15:24:25.579Z</time></trkpt><trkpt lat="43.5057689" lon="16.529021"><ele>-0.5</ele><time>2026-05-04T15:24:26.58Z</time></trkpt><trkpt lat="43.505829" lon="16.5288762"><ele>-0.25</ele><time>2026-05-04T15:24:27.579Z</time></trkpt><trkpt lat="43.5058844" lon="16.5287347"><ele>0.0</ele><time>2026-05-04T15:24:28.58Z</time></trkpt><trkpt lat="43.505939" lon="16.528599"><ele>0.0</ele><time>2026-05-04T15:24:29.58Z</time></trkpt><trkpt lat="43.5059878" lon="16.5284758"><ele>0.0</ele><time>2026-05-04T15:24:30.58Z</time></trkpt><trkpt lat="43.5060299" lon="16.5283676"><ele>0.0</ele><time>2026-05-04T15:24:31.58Z</time></trkpt><trkpt lat="43.5060655" lon="16.528276"><ele>0.0</ele><time>2026-05-04T15:24:32.58Z</time></trkpt><trkpt lat="43.5060951" lon="16.5281967"><ele>0.0</ele><time>2026-05-04T15:24:33.58Z</time></trkpt><trkpt lat="43.5061378" lon="16.5280801"><ele>0.0</ele><time>2026-05-04T15:24:35.58Z</time></trkpt><trkpt lat="43.5061673" lon="16.5279905"><ele>0.0</ele><time>2026-05-04T15:24:37.58Z</time></trkpt><trkpt lat="43.506196" lon="16.527899"><ele>0.0</ele><time>2026-05-04T15:24:39.579Z</time></trkpt><trkpt lat="43.506227" lon="16.5278163"><ele>0.0</ele><time>2026-05-04T15:24:41.58Z</time></trkpt><trkpt lat="43.5062652" lon="16.5277371"><ele>0.0</ele><time>2026-05-04T15:25:37.579Z</time></trkpt><trkpt lat="43.506324" lon="16.5275826"><ele>0.0</ele><time>2026-05-04T15:25:39.579Z</time></trkpt><trkpt lat="43.5063664" lon="16.5274664"><ele>0.0</ele><time>2026-05-04T15:25:40.58Z</time></trkpt><trkpt lat="43.5064149" lon="16.5273351"><ele>0.0</ele><time>2026-05-04T15:25:41.579Z</time></trkpt><trkpt lat="43.5064688" lon="16.5271732"><ele>0.0</ele><time>2026-05-04T15:25:42.58Z</time></trkpt><trkpt lat="43.5065231" lon="16.5269952"><ele>0.0</ele><time>2026-05-04T15:25:43.58Z</time></trkpt><trkpt lat="43.5065758" lon="16.5267922"><ele>0.0</ele><time>2026-05-04T15:25:44.58Z</time></trkpt><trkpt lat="43.5066259" lon="16.5265721"><ele>0.0</ele><time>2026-05-04T15:25:45.58Z</time></trkpt><trkpt lat="43.5066724" lon="16.5263394"><ele>0.0</ele><time>2026-05-04T15:25:46.579Z</time></trkpt><trkpt lat="43.5067114" lon="16.5260958"><ele>0.0</ele><time>2026-05-04T15:25:47.58Z</time></trkpt><trkpt lat="43.5067436" lon="16.5258356"><ele>0.0</ele><time>2026-05-04T15:25:48.58Z</time></trkpt><trkpt lat="43.5067669" lon="16.5255854"><ele>0.0</ele><time>2026-05-04T15:25:49.58Z</time></trkpt><trkpt lat="43.5067839" lon="16.5253339"><ele>0.0</ele><time>2026-05-04T15:25:50.58Z</time></trkpt><trkpt lat="43.5067922" lon="16.525089"><ele>0.6666666666666666</ele><time>2026-05-04T15:25:51.58Z</time></trkpt><trkpt lat="43.5067925" lon="16.5248427"><ele>1.3333333333333333</ele><time>2026-05-04T15:25:52.58Z</time></trkpt><trkpt lat="43.506785" lon="16.5246054"><ele>2.0</ele><time>2026-05-04T15:25:53.579Z</time></trkpt><trkpt lat="43.5067689" lon="16.5243659"><ele>2.0</ele><time>2026-05-04T15:25:54.58Z</time></trkpt><trkpt lat="43.5067407" lon="16.5241221"><ele>2.0</ele><time>2026-05-04T15:25:55.58Z</time></trkpt><trkpt lat="43.5067045" lon="16.5238703"><ele>2.0</ele><time>2026-05-04T15:25:56.579Z</time></trkpt><trkpt lat="43.506666" lon="16.5236204"><ele>2.0</ele><time>2026-05-04T15:25:57.579Z</time></trkpt><trkpt lat="43.5066275" lon="16.5233615"><ele>2.0</ele><time>2026-05-04T15:25:58.579Z</time></trkpt><trkpt lat="43.5065898" lon="16.5230992"><ele>2.0</ele><time>2026-05-04T15:25:59.58Z</time></trkpt><trkpt lat="43.5065524" lon="16.5228335"><ele>2.6666666666666665</ele><time>2026-05-04T15:26:00.579Z</time></trkpt><trkpt lat="43.5065192" lon="16.5225745"><ele>3.333333333333333</ele><time>2026-05-04T15:26:01.58Z</time></trkpt><trkpt lat="43.5064865" lon="16.522305"><ele>4.0</ele><time>2026-05-04T15:26:02.58Z</time></trkpt><trkpt lat="43.5064548" lon="16.5220381"><ele>4.0</ele><time>2026-05-04T15:26:03.579Z</time></trkpt><trkpt lat="43.5064225" lon="16.5217674"><ele>4.0</ele><time>2026-05-04T15:26:04.58Z</time></trkpt><trkpt lat="43.5063904" lon="16.5215078"><ele>4.0</ele><time>2026-05-04T15:26:05.58Z</time></trkpt><trkpt lat="43.5063564" lon="16.5212459"><ele>5.333333333333333</ele><time>2026-05-04T15:26:06.579Z</time></trkpt><trkpt lat="43.5063221" lon="16.5209863"><ele>6.666666666666666</ele><time>2026-05-04T15:26:07.58Z</time></trkpt><trkpt lat="43.5062884" lon="16.5207274"><ele>8.0</ele><time>2026-05-04T15:26:08.58Z</time></trkpt><trkpt lat="43.5062563" lon="16.52048"><ele>7.0</ele><time>2026-05-04T15:26:09.579Z</time></trkpt><trkpt lat="43.5062244" lon="16.5202279"><ele>6.0</ele><time>2026-05-04T15:26:10.58Z</time></trkpt><trkpt lat="43.5061915" lon="16.5199794"><ele>5.0</ele><time>2026-05-04T15:26:11.579Z</time></trkpt><trkpt lat="43.5061578" lon="16.5197288"><ele>5.666666666666667</ele><time>2026-05-04T15:26:12.579Z</time></trkpt><trkpt lat="43.5061248" lon="16.5194833"><ele>6.333333333333334</ele><time>2026-05-04T15:26:13.58Z</time></trkpt><trkpt lat="43.5060896" lon="16.5192307"><ele>7.0</ele><time>2026-05-04T15:26:14.579Z</time></trkpt><trkpt lat="43.506054" lon="16.5189732"><ele>8.333333333333334</ele><time>2026-05-04T15:26:15.579Z</time></trkpt><trkpt lat="43.5060171" lon="16.5187068"><ele>9.666666666666666</ele><time>2026-05-04T15:26:16.579Z</time></trkpt><trkpt lat="43.5059806" lon="16.5184484"><ele>11.0</ele><time>2026-05-04T15:26:17.58Z</time></trkpt><trkpt lat="43.5059427" lon="16.518182"><ele>11.0</ele><time>2026-05-04T15:26:18.58Z</time></trkpt><trkpt lat="43.5059051" lon="16.5179208"><ele>11.0</ele><time>2026-05-04T15:26:19.58Z</time></trkpt><trkpt lat="43.5058685" lon="16.5176565"><ele>11.0</ele><time>2026-05-04T15:26:20.579Z</time></trkpt><trkpt lat="43.5058313" lon="16.5173998"><ele>11.666666666666666</ele><time>2026-05-04T15:26:21.579Z</time></trkpt><trkpt lat="43.5057947" lon="16.517139"><ele>12.333333333333332</ele><time>2026-05-04T15:26:22.58Z</time></trkpt><trkpt lat="43.5057573" lon="16.5168764"><ele>13.0</ele><time>2026-05-04T15:26:23.579Z</time></trkpt><trkpt lat="43.5057163" lon="16.5166043"><ele>14.333333333333332</ele><time>2026-05-04T15:26:24.58Z</time></trkpt><trkpt lat="43.5056753" lon="16.516332"><ele>15.666666666666668</ele><time>2026-05-04T15:26:25.58Z</time></trkpt><trkpt lat="43.505637" lon="16.5160529"><ele>17.0</ele><time>2026-05-04T15:26:26.58Z</time></trkpt><trkpt lat="43.5056033" lon="16.5157716"><ele>18.333333333333336</ele><time>2026-05-04T15:26:27.58Z</time></trkpt><trkpt lat="43.505569" lon="16.5154879"><ele>19.666666666666668</ele><time>2026-05-04T15:26:28.579Z</time></trkpt><trkpt lat="43.5055361" lon="16.5152175"><ele>21.0</ele><time>2026-05-04T15:26:29.58Z</time></trkpt><trkpt lat="43.5054984" lon="16.5149464"><ele>21.333333333333332</ele><time>2026-05-04T15:26:30.58Z</time></trkpt><trkpt lat="43.505462" lon="16.5146789"><ele>21.666666666666664</ele><time>2026-05-04T15:26:31.58Z</time></trkpt><trkpt lat="43.5054252" lon="16.514408"><ele>22.0</ele><time>2026-05-04T15:26:32.579Z</time></trkpt><trkpt lat="43.5053887" lon="16.5141469"><ele>22.0</ele><time>2026-05-04T15:26:33.58Z</time></trkpt><trkpt lat="43.5053516" lon="16.5138819"><ele>22.0</ele><time>2026-05-04T15:26:34.58Z</time></trkpt><trkpt lat="43.5053166" lon="16.5136171"><ele>22.0</ele><time>2026-05-04T15:26:35.58Z</time></trkpt><trkpt lat="43.505283" lon="16.5133472"><ele>23.0</ele><time>2026-05-04T15:26:36.58Z</time></trkpt><trkpt lat="43.505258" lon="16.5130857"><ele>24.0</ele><time>2026-05-04T15:26:37.58Z</time></trkpt><trkpt lat="43.5052421" lon="16.5128231"><ele>25.0</ele><time>2026-05-04T15:26:38.58Z</time></trkpt><trkpt lat="43.50524" lon="16.5125616"><ele>26.333333333333336</ele><time>2026-05-04T15:26:39.579Z</time></trkpt><trkpt lat="43.50525" lon="16.5123008"><ele>27.666666666666664</ele><time>2026-05-04T15:26:40.579Z</time></trkpt><trkpt lat="43.5052741" lon="16.5120508"><ele>29.0</ele><time>2026-05-04T15:26:41.579Z</time></trkpt><trkpt lat="43.5053147" lon="16.5117986"><ele>29.333333333333332</ele><time>2026-05-04T15:26:42.579Z</time></trkpt><trkpt lat="43.5053654" lon="16.5115461"><ele>29.666666666666664</ele><time>2026-05-04T15:26:43.58Z</time></trkpt><trkpt lat="43.5054207" lon="16.5112897"><ele>30.0</ele><time>2026-05-04T15:26:44.579Z</time></trkpt><trkpt lat="43.5054761" lon="16.5110413"><ele>32.666666666666664</ele><time>2026-05-04T15:26:45.579Z</time></trkpt><trkpt lat="43.5055331" lon="16.5107888"><ele>35.33333333333333</ele><time>2026-05-04T15:26:46.579Z</time></trkpt><trkpt lat="43.5055911" lon="16.5105356"><ele>38.0</ele><time>2026-05-04T15:26:47.58Z</time></trkpt><trkpt lat="43.505649" lon="16.5102784"><ele>38.0</ele><time>2026-05-04T15:26:48.579Z</time></trkpt><trkpt lat="43.5057035" lon="16.5100292"><ele>38.0</ele><time>2026-05-04T15:26:49.58Z</time></trkpt><trkpt lat="43.5057594" lon="16.509784"><ele>38.0</ele><time>2026-05-04T15:26:50.579Z</time></trkpt><trkpt lat="43.5058149" lon="16.5095481"><ele>38.33333333333333</ele><time>2026-05-04T15:26:51.579Z</time></trkpt><trkpt lat="43.5058682" lon="16.5093139"><ele>38.666666666666664</ele><time>2026-05-04T15:26:52.579Z</time></trkpt><trkpt lat="43.5059185" lon="16.5090882"><ele>39.0</ele><time>2026-05-04T15:26:53.579Z</time></trkpt><trkpt lat="43.5059703" lon="16.5088577"><ele>39.666666666666664</ele><time>2026-05-04T15:26:54.58Z</time></trkpt><trkpt lat="43.5060235" lon="16.5086252"><ele>40.33333333333333</ele><time>2026-05-04T15:26:55.579Z</time></trkpt><trkpt lat="43.506077" lon="16.5083872"><ele>41.0</ele><time>2026-05-04T15:26:56.58Z</time></trkpt><trkpt lat="43.5061297" lon="16.508157"><ele>41.0</ele><time>2026-05-04T15:26:57.579Z</time></trkpt><trkpt lat="43.5061817" lon="16.5079242"><ele>41.0</ele><time>2026-05-04T15:26:58.58Z</time></trkpt><trkpt lat="43.5062328" lon="16.507692"><ele>41.0</ele><time>2026-05-04T15:26:59.58Z</time></trkpt><trkpt lat="43.5062841" lon="16.5074563"><ele>41.666666666666664</ele><time>2026-05-04T15:27:00.58Z</time></trkpt><trkpt lat="43.5063358" lon="16.5072285"><ele>42.333333333333336</ele><time>2026-05-04T15:27:01.58Z</time></trkpt><trkpt lat="43.5063877" lon="16.5069995"><ele>43.0</ele><time>2026-05-04T15:27:02.579Z</time></trkpt><trkpt lat="43.50644" lon="16.5067707"><ele>43.333333333333336</ele><time>2026-05-04T15:27:03.579Z</time></trkpt><trkpt lat="43.5064927" lon="16.5065412"><ele>43.666666666666664</ele><time>2026-05-04T15:27:04.58Z</time></trkpt><trkpt lat="43.5065438" lon="16.5063213"><ele>44.0</ele><time>2026-05-04T15:27:05.579Z</time></trkpt><trkpt lat="43.5065924" lon="16.5061081"><ele>45.0</ele><time>2026-05-04T15:27:06.58Z</time></trkpt><trkpt lat="43.5066416" lon="16.5059077"><ele>46.0</ele><time>2026-05-04T15:27:07.58Z</time></trkpt><trkpt lat="43.506692" lon="16.5057134"><ele>47.0</ele><time>2026-05-04T15:27:08.579Z</time></trkpt><trkpt lat="43.5067378" lon="16.5055378"><ele>48.0</ele><time>2026-05-04T15:27:09.579Z</time></trkpt><trkpt lat="43.5067797" lon="16.5053735"><ele>48.599999999999994</ele><time>2026-05-04T15:27:10.58Z</time></trkpt><trkpt lat="43.5068182" lon="16.5052245"><ele>49.199999999999996</ele><time>2026-05-04T15:27:11.579Z</time></trkpt><trkpt lat="43.506853" lon="16.505088"><ele>49.8</ele><time>2026-05-04T15:27:12.58Z</time></trkpt><trkpt lat="43.506884" lon="16.5049691"><ele>50.4</ele><time>2026-05-04T15:27:13.579Z</time></trkpt><trkpt lat="43.5069135" lon="16.5048648"><ele>51.0</ele><time>2026-05-04T15:27:14.58Z</time></trkpt><trkpt lat="43.5069487" lon="16.5047784"><ele>51.0</ele><time>2026-05-04T15:27:15.58Z</time></trkpt><trkpt lat="43.5069897" lon="16.5047044"><ele>51.0</ele><time>2026-05-04T15:27:16.58Z</time></trkpt><trkpt lat="43.5070389" lon="16.5046005"><ele>51.0</ele><time>2026-05-04T15:27:18.58Z</time></trkpt><trkpt lat="43.5070745" lon="16.5045035"><ele>51.0</ele><time>2026-05-04T15:27:21.579Z</time></trkpt><trkpt lat="43.5070467" lon="16.5044087"><ele>51.0</ele><time>2026-05-04T15:27:38.579Z</time></trkpt><trkpt lat="43.5070291" lon="16.5045052"><ele>51.0</ele><time>2026-05-04T15:27:58.605Z</time></trkpt><trkpt lat="43.5070644" lon="16.5044107"><ele>51.142857142857146</ele><time>2026-05-04T15:30:02.605Z</time></trkpt><trkpt lat="43.5071106" lon="16.504344"><ele>51.28571428571429</ele><time>2026-05-04T15:30:07.606Z</time></trkpt><trkpt lat="43.5071867" lon="16.5042987"><ele>51.42857142857143</ele><time>2026-05-04T15:30:12.605Z</time></trkpt><trkpt lat="43.5071597" lon="16.5042187"><ele>51.57142857142857</ele><time>2026-05-04T15:30:53.603Z</time></trkpt><trkpt lat="43.5070939" lon="16.5042319"><ele>51.714285714285715</ele><time>2026-05-04T15:30:57.557Z</time></trkpt><trkpt lat="43.507043" lon="16.50429"><ele>51.857142857142854</ele><time>2026-05-04T15:31:01.61Z</time></trkpt><trkpt lat="43.5070275" lon="16.5043836"><ele>52.0</ele><time>2026-05-04T15:31:05.607Z</time></trkpt><trkpt lat="43.5070284" lon="16.5044735"><ele>51.99999999999999</ele><time>2026-05-04T15:31:09.605Z</time></trkpt><trkpt lat="43.507043" lon="16.5043104"><ele>52.0</ele><time>2026-05-04T15:31:52.592Z</time></trkpt><trkpt lat="43.5070619" lon="16.504211"><ele>52.0</ele><time>2026-05-04T15:31:53.592Z</time></trkpt><trkpt lat="43.507066" lon="16.5041133"><ele>52.0</ele><time>2026-05-04T15:31:54.592Z</time></trkpt><trkpt lat="43.5070867" lon="16.5040042"><ele>51.99999999999999</ele><time>2026-05-04T15:31:55.591Z</time></trkpt><trkpt lat="43.5071125" lon="16.5038955"><ele>52.0</ele><time>2026-05-04T15:31:56.591Z</time></trkpt><trkpt lat="43.5071377" lon="16.503783"><ele>53.0</ele><time>2026-05-04T15:31:57.592Z</time></trkpt><trkpt lat="43.5071634" lon="16.5036551"><ele>54.0</ele><time>2026-05-04T15:31:58.592Z</time></trkpt><trkpt lat="43.5071944" lon="16.5035066"><ele>55.0</ele><time>2026-05-04T15:31:59.592Z</time></trkpt><trkpt lat="43.5072295" lon="16.5033442"><ele>56.0</ele><time>2026-05-04T15:32:00.592Z</time></trkpt><trkpt lat="43.5072676" lon="16.5031647"><ele>56.0</ele><time>2026-05-04T15:32:01.592Z</time></trkpt><trkpt lat="43.507306" lon="16.5029837"><ele>56.0</ele><time>2026-05-04T15:32:02.591Z</time></trkpt><trkpt lat="43.5073484" lon="16.5027988"><ele>56.0</ele><time>2026-05-04T15:32:03.592Z</time></trkpt><trkpt lat="43.5073913" lon="16.502608"><ele>56.0</ele><time>2026-05-04T15:32:04.592Z</time></trkpt><trkpt lat="43.5074327" lon="16.5024164"><ele>56.25</ele><time>2026-05-04T15:32:05.592Z</time></trkpt><trkpt lat="43.5074729" lon="16.5022258"><ele>56.5</ele><time>2026-05-04T15:32:06.591Z</time></trkpt><trkpt lat="43.5075163" lon="16.5020317"><ele>56.75</ele><time>2026-05-04T15:32:07.591Z</time></trkpt><trkpt lat="43.5075598" lon="16.5018323"><ele>57.0</ele><time>2026-05-04T15:32:08.591Z</time></trkpt><trkpt lat="43.5076042" lon="16.5016358"><ele>57.33333333333333</ele><time>2026-05-04T15:32:09.591Z</time></trkpt><trkpt lat="43.5076509" lon="16.5014382"><ele>57.666666666666664</ele><time>2026-05-04T15:32:10.591Z</time></trkpt><trkpt lat="43.5076974" lon="16.5012422"><ele>58.0</ele><time>2026-05-04T15:32:11.591Z</time></trkpt><trkpt lat="43.5077428" lon="16.5010415"><ele>59.666666666666664</ele><time>2026-05-04T15:32:12.592Z</time></trkpt><trkpt lat="43.5077863" lon="16.500829"><ele>61.33333333333333</ele><time>2026-05-04T15:32:13.591Z</time></trkpt><trkpt lat="43.5078339" lon="16.5005979"><ele>63.0</ele><time>2026-05-04T15:32:14.591Z</time></trkpt><trkpt lat="43.5078859" lon="16.5003634"><ele>62.66666666666667</ele><time>2026-05-04T15:32:15.591Z</time></trkpt><trkpt lat="43.507942" lon="16.5001257"><ele>62.333333333333336</ele><time>2026-05-04T15:32:16.591Z</time></trkpt><trkpt lat="43.5079962" lon="16.4998899"><ele>62.0</ele><time>2026-05-04T15:32:17.591Z</time></trkpt><trkpt lat="43.50805" lon="16.499661"><ele>63.66666666666667</ele><time>2026-05-04T15:32:18.591Z</time></trkpt><trkpt lat="43.5081034" lon="16.499439"><ele>65.33333333333333</ele><time>2026-05-04T15:32:19.592Z</time></trkpt><trkpt lat="43.508154" lon="16.4992231"><ele>67.0</ele><time>2026-05-04T15:32:20.591Z</time></trkpt><trkpt lat="43.5082013" lon="16.4990117"><ele>67.0</ele><time>2026-05-04T15:32:21.591Z</time></trkpt><trkpt lat="43.5082503" lon="16.4987997"><ele>67.0</ele><time>2026-05-04T15:32:22.592Z</time></trkpt><trkpt lat="43.508298" lon="16.4985855"><ele>67.0</ele><time>2026-05-04T15:32:23.592Z</time></trkpt><trkpt lat="43.508348" lon="16.4983723"><ele>67.66666666666666</ele><time>2026-05-04T15:32:24.591Z</time></trkpt><trkpt lat="43.5083992" lon="16.4981569"><ele>68.33333333333333</ele><time>2026-05-04T15:32:25.591Z</time></trkpt><trkpt lat="43.5084504" lon="16.4979415"><ele>69.0</ele><time>2026-05-04T15:32:26.591Z</time></trkpt><trkpt lat="43.5085001" lon="16.4977221"><ele>69.66666666666667</ele><time>2026-05-04T15:32:27.592Z</time></trkpt><trkpt lat="43.508549" lon="16.4974996"><ele>70.33333333333334</ele><time>2026-05-04T15:32:28.592Z</time></trkpt><trkpt lat="43.5085972" lon="16.4972805"><ele>71.0</ele><time>2026-05-04T15:32:29.591Z</time></trkpt><trkpt lat="43.5086451" lon="16.4970658"><ele>71.66666666666667</ele><time>2026-05-04T15:32:30.591Z</time></trkpt><trkpt lat="43.5086915" lon="16.4968559"><ele>72.33333333333333</ele><time>2026-05-04T15:32:31.592Z</time></trkpt><trkpt lat="43.508736" lon="16.4966488"><ele>73.0</ele><time>2026-05-04T15:32:32.592Z</time></trkpt><trkpt lat="43.5087812" lon="16.4964465"><ele>74.66666666666666</ele><time>2026-05-04T15:32:33.592Z</time></trkpt><trkpt lat="43.5088275" lon="16.4962469"><ele>76.33333333333333</ele><time>2026-05-04T15:32:34.592Z</time></trkpt><trkpt lat="43.5088726" lon="16.496048"><ele>78.0</ele><time>2026-05-04T15:32:35.591Z</time></trkpt><trkpt lat="43.5089175" lon="16.4958549"><ele>78.0</ele><time>2026-05-04T15:32:36.592Z</time></trkpt><trkpt lat="43.5089602" lon="16.4956653"><ele>78.0</ele><time>2026-05-04T15:32:37.591Z</time></trkpt><trkpt lat="43.5090019" lon="16.4954775"><ele>78.0</ele><time>2026-05-04T15:32:38.592Z</time></trkpt><trkpt lat="43.5090395" lon="16.4952896"><ele>78.0</ele><time>2026-05-04T15:32:39.591Z</time></trkpt><trkpt lat="43.5090819" lon="16.4950975"><ele>78.0</ele><time>2026-05-04T15:32:40.591Z</time></trkpt><trkpt lat="43.5091251" lon="16.4949023"><ele>78.0</ele><time>2026-05-04T15:32:41.592Z</time></trkpt><trkpt lat="43.5091691" lon="16.4947105"><ele>78.0</ele><time>2026-05-04T15:32:42.591Z</time></trkpt><trkpt lat="43.5092145" lon="16.4945168"><ele>78.0</ele><time>2026-05-04T15:32:43.592Z</time></trkpt><trkpt lat="43.5092628" lon="16.4943183"><ele>78.0</ele><time>2026-05-04T15:32:44.592Z</time></trkpt><trkpt lat="43.5093082" lon="16.494112"><ele>78.0</ele><time>2026-05-04T15:32:45.592Z</time></trkpt><trkpt lat="43.5093548" lon="16.4939043"><ele>78.0</ele><time>2026-05-04T15:32:46.592Z</time></trkpt><trkpt lat="43.5093991" lon="16.4937013"><ele>78.33333333333333</ele><time>2026-05-04T15:32:47.591Z</time></trkpt><trkpt lat="43.5094434" lon="16.493499"><ele>78.66666666666666</ele><time>2026-05-04T15:32:48.592Z</time></trkpt><trkpt lat="43.5094875" lon="16.4933032"><ele>79.0</ele><time>2026-05-04T15:32:49.592Z</time></trkpt><trkpt lat="43.5095357" lon="16.4931075"><ele>79.66666666666666</ele><time>2026-05-04T15:32:50.591Z</time></trkpt><trkpt lat="43.5095808" lon="16.4929059"><ele>80.33333333333333</ele><time>2026-05-04T15:32:51.591Z</time></trkpt><trkpt lat="43.5096239" lon="16.4927111"><ele>81.0</ele><time>2026-05-04T15:32:52.591Z</time></trkpt><trkpt lat="43.5096731" lon="16.4925138"><ele>81.0</ele><time>2026-05-04T15:32:53.591Z</time></trkpt><trkpt lat="43.509717" lon="16.4923221"><ele>81.0</ele><time>2026-05-04T15:32:54.592Z</time></trkpt><trkpt lat="43.5097591" lon="16.4921246"><ele>81.0</ele><time>2026-05-04T15:32:55.591Z</time></trkpt><trkpt lat="43.5098037" lon="16.4919317"><ele>81.0</ele><time>2026-05-04T15:32:56.592Z</time></trkpt><trkpt lat="43.5098524" lon="16.4917373"><ele>80.33333333333333</ele><time>2026-05-04T15:32:57.592Z</time></trkpt><trkpt lat="43.5098992" lon="16.4915428"><ele>79.66666666666666</ele><time>2026-05-04T15:32:58.592Z</time></trkpt><trkpt lat="43.509948" lon="16.4913437"><ele>79.0</ele><time>2026-05-04T15:32:59.592Z</time></trkpt><trkpt lat="43.5099996" lon="16.4911454"><ele>77.66666666666666</ele><time>2026-05-04T15:33:00.591Z</time></trkpt><trkpt lat="43.5100482" lon="16.4909414"><ele>76.33333333333333</ele><time>2026-05-04T15:33:01.591Z</time></trkpt><trkpt lat="43.5100969" lon="16.4907336"><ele>75.0</ele><time>2026-05-04T15:33:02.591Z</time></trkpt><trkpt lat="43.5101444" lon="16.4905298"><ele>75.66666666666667</ele><time>2026-05-04T15:33:03.592Z</time></trkpt><trkpt lat="43.5101907" lon="16.4903255"><ele>76.33333333333334</ele><time>2026-05-04T15:33:04.591Z</time></trkpt><trkpt lat="43.5102371" lon="16.4901203"><ele>77.0</ele><time>2026-05-04T15:33:05.592Z</time></trkpt><trkpt lat="43.5102813" lon="16.4899263"><ele>77.0</ele><time>2026-05-04T15:33:06.592Z</time></trkpt><trkpt lat="43.5103227" lon="16.4897411"><ele>77.0</ele><time>2026-05-04T15:33:07.591Z</time></trkpt><trkpt lat="43.510365" lon="16.489559"><ele>77.0</ele><time>2026-05-04T15:33:08.592Z</time></trkpt><trkpt lat="43.5104098" lon="16.4893731"><ele>77.0</ele><time>2026-05-04T15:33:09.592Z</time></trkpt><trkpt lat="43.5104573" lon="16.4891861"><ele>76.75</ele><time>2026-05-04T15:33:10.592Z</time></trkpt><trkpt lat="43.5104993" lon="16.4889966"><ele>76.5</ele><time>2026-05-04T15:33:11.591Z</time></trkpt><trkpt lat="43.510543" lon="16.4888105"><ele>76.25</ele><time>2026-05-04T15:33:12.592Z</time></trkpt><trkpt lat="43.5105829" lon="16.4886257"><ele>76.0</ele><time>2026-05-04T15:33:13.591Z</time></trkpt><trkpt lat="43.5106246" lon="16.4884357"><ele>76.0</ele><time>2026-05-04T15:33:14.592Z</time></trkpt><trkpt lat="43.5106671" lon="16.488248"><ele>76.0</ele><time>2026-05-04T15:33:15.592Z</time></trkpt><trkpt lat="43.5107147" lon="16.4880545"><ele>76.0</ele><time>2026-05-04T15:33:16.591Z</time></trkpt><trkpt lat="43.5107646" lon="16.4878536"><ele>76.0</ele><time>2026-05-04T15:33:17.591Z</time></trkpt><trkpt lat="43.5108139" lon="16.4876682"><ele>75.5</ele><time>2026-05-04T15:33:18.592Z</time></trkpt><trkpt lat="43.510866" lon="16.487489"><ele>75.0</ele><time>2026-05-04T15:33:19.591Z</time></trkpt><trkpt lat="43.5109187" lon="16.4873173"><ele>74.5</ele><time>2026-05-04T15:33:20.592Z</time></trkpt><trkpt lat="43.5109686" lon="16.4871525"><ele>74.0</ele><time>2026-05-04T15:33:21.592Z</time></trkpt><trkpt lat="43.5110169" lon="16.486994"><ele>74.0</ele><time>2026-05-04T15:33:22.592Z</time></trkpt><trkpt lat="43.5110683" lon="16.4868319"><ele>74.0</ele><time>2026-05-04T15:33:23.591Z</time></trkpt><trkpt lat="43.5111201" lon="16.4866617"><ele>74.0</ele><time>2026-05-04T15:33:24.592Z</time></trkpt><trkpt lat="43.5111826" lon="16.4864719"><ele>74.0</ele><time>2026-05-04T15:33:25.591Z</time></trkpt><trkpt lat="43.5112529" lon="16.4862723"><ele>74.0</ele><time>2026-05-04T15:33:26.591Z</time></trkpt><trkpt lat="43.5113186" lon="16.4860902"><ele>74.0</ele><time>2026-05-04T15:33:27.591Z</time></trkpt><trkpt lat="43.511387" lon="16.485922"><ele>74.0</ele><time>2026-05-04T15:33:28.592Z</time></trkpt><trkpt lat="43.5114499" lon="16.485779"><ele>74.0</ele><time>2026-05-04T15:33:29.591Z</time></trkpt><trkpt lat="43.5115059" lon="16.4856625"><ele>74.0</ele><time>2026-05-04T15:33:30.592Z</time></trkpt><trkpt lat="43.5115682" lon="16.4855559"><ele>74.0</ele><time>2026-05-04T15:33:31.592Z</time></trkpt><trkpt lat="43.5116224" lon="16.4854594"><ele>74.0</ele><time>2026-05-04T15:33:32.592Z</time></trkpt><trkpt lat="43.5116733" lon="16.4853726"><ele>74.0</ele><time>2026-05-04T15:33:33.592Z</time></trkpt><trkpt lat="43.5117261" lon="16.4852896"><ele>74.0</ele><time>2026-05-04T15:33:34.592Z</time></trkpt><trkpt lat="43.5117814" lon="16.4852137"><ele>74.0</ele><time>2026-05-04T15:33:35.592Z</time></trkpt><trkpt lat="43.5118361" lon="16.4851375"><ele>74.0</ele><time>2026-05-04T15:33:36.592Z</time></trkpt><trkpt lat="43.5118944" lon="16.4850572"><ele>74.0</ele><time>2026-05-04T15:33:37.592Z</time></trkpt><trkpt lat="43.5119617" lon="16.4849759"><ele>74.0</ele><time>2026-05-04T15:33:38.592Z</time></trkpt><trkpt lat="43.5120315" lon="16.4848932"><ele>74.0</ele><time>2026-05-04T15:33:39.592Z</time></trkpt><trkpt lat="43.5121021" lon="16.4848182"><ele>74.0</ele><time>2026-05-04T15:33:40.591Z</time></trkpt><trkpt lat="43.5121667" lon="16.4847477"><ele>74.0</ele><time>2026-05-04T15:33:41.592Z</time></trkpt><trkpt lat="43.5122255" lon="16.4846796"><ele>73.83333333333334</ele><time>2026-05-04T15:33:42.592Z</time></trkpt><trkpt lat="43.5122703" lon="16.4846033"><ele>73.66666666666667</ele><time>2026-05-04T15:33:43.591Z</time></trkpt><trkpt lat="43.5122927" lon="16.4845105"><ele>73.5</ele><time>2026-05-04T15:33:44.591Z</time></trkpt><trkpt lat="43.5122997" lon="16.4844229"><ele>73.33333333333333</ele><time>2026-05-04T15:33:45.592Z</time></trkpt><trkpt lat="43.5122918" lon="16.4843234"><ele>73.16666666666666</ele><time>2026-05-04T15:33:46.592Z</time></trkpt><trkpt lat="43.5122221" lon="16.4842082"><ele>73.0</ele><time>2026-05-04T15:33:47.591Z</time></trkpt><trkpt lat="43.512174" lon="16.4841068"><ele>73.0</ele><time>2026-05-04T15:33:48.591Z</time></trkpt><trkpt lat="43.5121156" lon="16.4840019"><ele>73.0</ele><time>2026-05-04T15:33:49.591Z</time></trkpt><trkpt lat="43.5120661" lon="16.4838967"><ele>73.0</ele><time>2026-05-04T15:33:50.591Z</time></trkpt><trkpt lat="43.5120084" lon="16.483789"><ele>73.0</ele><time>2026-05-04T15:33:51.591Z</time></trkpt><trkpt lat="43.5119478" lon="16.4836855"><ele>73.0</ele><time>2026-05-04T15:33:52.591Z</time></trkpt><trkpt lat="43.5118933" lon="16.4835807"><ele>72.8</ele><time>2026-05-04T15:33:53.591Z</time></trkpt><trkpt lat="43.5118335" lon="16.4834875"><ele>72.6</ele><time>2026-05-04T15:33:54.591Z</time></trkpt><trkpt lat="43.5117831" lon="16.4833882"><ele>72.4</ele><time>2026-05-04T15:33:55.591Z</time></trkpt><trkpt lat="43.511726" lon="16.4832888"><ele>72.2</ele><time>2026-05-04T15:33:56.591Z</time></trkpt><trkpt lat="43.511667" lon="16.4831831"><ele>72.0</ele><time>2026-05-04T15:33:57.592Z</time></trkpt><trkpt lat="43.5116034" lon="16.4830581"><ele>72.2</ele><time>2026-05-04T15:33:58.591Z</time></trkpt><trkpt lat="43.5115393" lon="16.4829305"><ele>72.4</ele><time>2026-05-04T15:33:59.592Z</time></trkpt><trkpt lat="43.5114764" lon="16.4828073"><ele>72.6</ele><time>2026-05-04T15:34:00.591Z</time></trkpt><trkpt lat="43.5114167" lon="16.4826808"><ele>72.8</ele><time>2026-05-04T15:34:01.592Z</time></trkpt><trkpt lat="43.5113617" lon="16.482561"><ele>73.0</ele><time>2026-05-04T15:34:02.592Z</time></trkpt><trkpt lat="43.5113139" lon="16.4824444"><ele>73.0</ele><time>2026-05-04T15:34:03.591Z</time></trkpt><trkpt lat="43.5112712" lon="16.4823312"><ele>73.0</ele><time>2026-05-04T15:34:04.592Z</time></trkpt><trkpt lat="43.5112329" lon="16.4822326"><ele>73.0</ele><time>2026-05-04T15:34:05.592Z</time></trkpt><trkpt lat="43.5111969" lon="16.4821389"><ele>73.0</ele><time>2026-05-04T15:34:06.592Z</time></trkpt><trkpt lat="43.511167" lon="16.4820568"><ele>73.0</ele><time>2026-05-04T15:34:07.592Z</time></trkpt><trkpt lat="43.5111287" lon="16.4819369"><ele>73.0</ele><time>2026-05-04T15:34:09.591Z</time></trkpt><trkpt lat="43.5110989" lon="16.4818353"><ele>73.0</ele><time>2026-05-04T15:34:11.592Z</time></trkpt><trkpt lat="43.5110617" lon="16.4817131"><ele>73.0</ele><time>2026-05-04T15:34:13.591Z</time></trkpt><trkpt lat="43.5110288" lon="16.4815685"><ele>73.0</ele><time>2026-05-04T15:34:15.592Z</time></trkpt><trkpt lat="43.5110058" lon="16.4814747"><ele>73.0</ele><time>2026-05-04T15:34:16.591Z</time></trkpt><trkpt lat="43.5109787" lon="16.4813684"><ele>73.0</ele><time>2026-05-04T15:34:17.592Z</time></trkpt><trkpt lat="43.5109501" lon="16.4812548"><ele>73.0</ele><time>2026-05-04T15:34:18.592Z</time></trkpt><trkpt lat="43.5109236" lon="16.4811299"><ele>73.5</ele><time>2026-05-04T15:34:19.591Z</time></trkpt><trkpt lat="43.5108924" lon="16.4809947"><ele>74.0</ele><time>2026-05-04T15:34:20.592Z</time></trkpt><trkpt lat="43.5108514" lon="16.4808377"><ele>74.5</ele><time>2026-05-04T15:34:21.591Z</time></trkpt><trkpt lat="43.5108129" lon="16.480664"><ele>75.0</ele><time>2026-05-04T15:34:22.592Z</time></trkpt><trkpt lat="43.5107732" lon="16.4804888"><ele>76.25</ele><time>2026-05-04T15:34:23.591Z</time></trkpt><trkpt lat="43.5107304" lon="16.480313"><ele>77.5</ele><time>2026-05-04T15:34:24.591Z</time></trkpt><trkpt lat="43.510687" lon="16.4801359"><ele>78.75</ele><time>2026-05-04T15:34:25.592Z</time></trkpt><trkpt lat="43.5106434" lon="16.4799627"><ele>80.0</ele><time>2026-05-04T15:34:26.591Z</time></trkpt><trkpt lat="43.5105992" lon="16.4797878"><ele>80.0</ele><time>2026-05-04T15:34:27.591Z</time></trkpt><trkpt lat="43.5105536" lon="16.4796174"><ele>80.0</ele><time>2026-05-04T15:34:28.591Z</time></trkpt><trkpt lat="43.5105096" lon="16.4794449"><ele>80.0</ele><time>2026-05-04T15:34:29.592Z</time></trkpt><trkpt lat="43.5104628" lon="16.479275"><ele>80.0</ele><time>2026-05-04T15:34:30.592Z</time></trkpt><trkpt lat="43.5104183" lon="16.4791054"><ele>79.5</ele><time>2026-05-04T15:34:31.592Z</time></trkpt><trkpt lat="43.5103803" lon="16.4789495"><ele>79.0</ele><time>2026-05-04T15:34:32.592Z</time></trkpt><trkpt lat="43.5103439" lon="16.4787988"><ele>78.5</ele><time>2026-05-04T15:34:33.592Z</time></trkpt><trkpt lat="43.5103101" lon="16.4786545"><ele>78.0</ele><time>2026-05-04T15:34:34.592Z</time></trkpt><trkpt lat="43.5102733" lon="16.4785125"><ele>77.6</ele><time>2026-05-04T15:34:35.591Z</time></trkpt><trkpt lat="43.5102406" lon="16.4783781"><ele>77.19999999999999</ele><time>2026-05-04T15:34:36.592Z</time></trkpt><trkpt lat="43.5102062" lon="16.478246"><ele>76.8</ele><time>2026-05-04T15:34:37.591Z</time></trkpt><trkpt lat="43.5101725" lon="16.4781119"><ele>76.39999999999999</ele><time>2026-05-04T15:34:38.591Z</time></trkpt><trkpt lat="43.5101401" lon="16.4779756"><ele>76.0</ele><time>2026-05-04T15:34:39.592Z</time></trkpt><trkpt lat="43.5101067" lon="16.4778433"><ele>75.2</ele><time>2026-05-04T15:34:40.592Z</time></trkpt><trkpt lat="43.5100704" lon="16.4777074"><ele>74.39999999999999</ele><time>2026-05-04T15:34:41.592Z</time></trkpt><trkpt lat="43.5100359" lon="16.4775692"><ele>73.6</ele><time>2026-05-04T15:34:42.592Z</time></trkpt><trkpt lat="43.5100027" lon="16.477428"><ele>72.8</ele><time>2026-05-04T15:34:43.591Z</time></trkpt><trkpt lat="43.509966" lon="16.4773006"><ele>72.0</ele><time>2026-05-04T15:34:44.592Z</time></trkpt><trkpt lat="43.5099338" lon="16.4771825"><ele>71.83333333333333</ele><time>2026-05-04T15:34:45.592Z</time></trkpt><trkpt lat="43.5099018" lon="16.4770597"><ele>71.66666666666667</ele><time>2026-05-04T15:34:46.591Z</time></trkpt><trkpt lat="43.5098678" lon="16.476939"><ele>71.5</ele><time>2026-05-04T15:34:47.592Z</time></trkpt><trkpt lat="43.509835" lon="16.4768205"><ele>71.33333333333334</ele><time>2026-05-04T15:34:48.591Z</time></trkpt><trkpt lat="43.5098011" lon="16.4767113"><ele>71.16666666666667</ele><time>2026-05-04T15:34:49.591Z</time></trkpt><trkpt lat="43.5097686" lon="16.4766182"><ele>71.0</ele><time>2026-05-04T15:34:50.591Z</time></trkpt><trkpt lat="43.5097345" lon="16.4764725"><ele>71.0</ele><time>2026-05-04T15:34:52.592Z</time></trkpt><trkpt lat="43.5097022" lon="16.4763581"><ele>71.0</ele><time>2026-05-04T15:34:54.592Z</time></trkpt><trkpt lat="43.5096725" lon="16.4762797"><ele>71.0</ele><time>2026-05-04T15:34:56.592Z</time></trkpt><trkpt lat="43.5096649" lon="16.4761823"><ele>71.0</ele><time>2026-05-04T15:35:52.591Z</time></trkpt><trkpt lat="43.5096366" lon="16.4760896"><ele>71.0</ele><time>2026-05-04T15:35:54.591Z</time></trkpt><trkpt lat="43.5095979" lon="16.4759747"><ele>71.0</ele><time>2026-05-04T15:35:56.592Z</time></trkpt><trkpt lat="43.509542" lon="16.4758279"><ele>69.16666666666667</ele><time>2026-05-04T15:35:58.591Z</time></trkpt><trkpt lat="43.5095087" lon="16.4757365"><ele>67.33333333333334</ele><time>2026-05-04T15:35:59.592Z</time></trkpt><trkpt lat="43.5094691" lon="16.4756334"><ele>65.5</ele><time>2026-05-04T15:36:00.591Z</time></trkpt><trkpt lat="43.5094301" lon="16.4755208"><ele>63.66666666666667</ele><time>2026-05-04T15:36:01.591Z</time></trkpt><trkpt lat="43.5093892" lon="16.4754065"><ele>61.833333333333336</ele><time>2026-05-04T15:36:02.592Z</time></trkpt><trkpt lat="43.5093453" lon="16.4752871"><ele>60.0</ele><time>2026-05-04T15:36:03.591Z</time></trkpt><trkpt lat="43.5093028" lon="16.4751662"><ele>60.0</ele><time>2026-05-04T15:36:04.592Z</time></trkpt><trkpt lat="43.5092531" lon="16.4750404"><ele>60.0</ele><time>2026-05-04T15:36:05.592Z</time></trkpt><trkpt lat="43.5092073" lon="16.4749154"><ele>60.0</ele><time>2026-05-04T15:36:06.591Z</time></trkpt><trkpt lat="43.509157" lon="16.4747684"><ele>60.0</ele><time>2026-05-04T15:36:07.592Z</time></trkpt><trkpt lat="43.5091044" lon="16.4746309"><ele>60.0</ele><time>2026-05-04T15:36:08.592Z</time></trkpt><trkpt lat="43.5090465" lon="16.4744719"><ele>60.0</ele><time>2026-05-04T15:36:09.592Z</time></trkpt><trkpt lat="43.5089824" lon="16.4743157"><ele>60.0</ele><time>2026-05-04T15:36:10.592Z</time></trkpt><trkpt lat="43.5089245" lon="16.4741629"><ele>60.0</ele><time>2026-05-04T15:36:11.592Z</time></trkpt><trkpt lat="43.5088657" lon="16.4740124"><ele>60.0</ele><time>2026-05-04T15:36:12.591Z</time></trkpt><trkpt lat="43.5088122" lon="16.4738638"><ele>60.0</ele><time>2026-05-04T15:36:13.591Z</time></trkpt><trkpt lat="43.5087587" lon="16.473713"><ele>60.0</ele><time>2026-05-04T15:36:14.591Z</time></trkpt><trkpt lat="43.5087012" lon="16.4735709"><ele>60.0</ele><time>2026-05-04T15:36:15.592Z</time></trkpt><trkpt lat="43.5086471" lon="16.4734304"><ele>60.0</ele><time>2026-05-04T15:36:16.592Z</time></trkpt><trkpt lat="43.5085953" lon="16.4732898"><ele>58.25</ele><time>2026-05-04T15:36:17.591Z</time></trkpt><trkpt lat="43.5085464" lon="16.4731496"><ele>56.5</ele><time>2026-05-04T15:36:18.591Z</time></trkpt><trkpt lat="43.5084961" lon="16.4730004"><ele>54.75</ele><time>2026-05-04T15:36:19.591Z</time></trkpt><trkpt lat="43.5084461" lon="16.4728621"><ele>53.0</ele><time>2026-05-04T15:36:20.591Z</time></trkpt><trkpt lat="43.5083963" lon="16.4727295"><ele>53.0</ele><time>2026-05-04T15:36:21.591Z</time></trkpt><trkpt lat="43.5083463" lon="16.4725857"><ele>53.0</ele><time>2026-05-04T15:36:22.591Z</time></trkpt><trkpt lat="43.5082968" lon="16.472453"><ele>53.0</ele><time>2026-05-04T15:36:23.591Z</time></trkpt><trkpt lat="43.5082452" lon="16.4723137"><ele>53.0</ele><time>2026-05-04T15:36:24.592Z</time></trkpt><trkpt lat="43.5081938" lon="16.4721701"><ele>53.0</ele><time>2026-05-04T15:36:25.591Z</time></trkpt><trkpt lat="43.508141" lon="16.4720333"><ele>53.0</ele><time>2026-05-04T15:36:26.592Z</time></trkpt><trkpt lat="43.5080858" lon="16.4718905"><ele>53.0</ele><time>2026-05-04T15:36:27.591Z</time></trkpt><trkpt lat="43.5080301" lon="16.4717366"><ele>53.0</ele><time>2026-05-04T15:36:28.592Z</time></trkpt><trkpt lat="43.5079766" lon="16.4715806"><ele>53.0</ele><time>2026-05-04T15:36:29.591Z</time></trkpt><trkpt lat="43.5079223" lon="16.471428"><ele>53.0</ele><time>2026-05-04T15:36:30.592Z</time></trkpt><trkpt lat="43.5078704" lon="16.4712703"><ele>53.0</ele><time>2026-05-04T15:36:31.592Z</time></trkpt><trkpt lat="43.5078203" lon="16.4711047"><ele>53.0</ele><time>2026-05-04T15:36:32.591Z</time></trkpt><trkpt lat="43.5077711" lon="16.47094"><ele>50.25</ele><time>2026-05-04T15:36:33.592Z</time></trkpt><trkpt lat="43.5077264" lon="16.4707683"><ele>47.5</ele><time>2026-05-04T15:36:34.592Z</time></trkpt><trkpt lat="43.507684" lon="16.4705963"><ele>44.75</ele><time>2026-05-04T15:36:35.591Z</time></trkpt><trkpt lat="43.5076507" lon="16.4704345"><ele>42.0</ele><time>2026-05-04T15:36:36.591Z</time></trkpt><trkpt lat="43.5076151" lon="16.4702746"><ele>42.0</ele><time>2026-05-04T15:36:37.592Z</time></trkpt><trkpt lat="43.5075793" lon="16.4701049"><ele>42.0</ele><time>2026-05-04T15:36:38.592Z</time></trkpt><trkpt lat="43.5075507" lon="16.4699371"><ele>42.0</ele><time>2026-05-04T15:36:39.592Z</time></trkpt><trkpt lat="43.5075202" lon="16.4697599"><ele>42.0</ele><time>2026-05-04T15:36:40.592Z</time></trkpt><trkpt lat="43.5074922" lon="16.4695831"><ele>41.5</ele><time>2026-05-04T15:36:41.591Z</time></trkpt><trkpt lat="43.5074632" lon="16.4694019"><ele>41.0</ele><time>2026-05-04T15:36:42.591Z</time></trkpt><trkpt lat="43.5074302" lon="16.4692261"><ele>40.5</ele><time>2026-05-04T15:36:43.592Z</time></trkpt><trkpt lat="43.5074017" lon="16.4690425"><ele>40.0</ele><time>2026-05-04T15:36:44.591Z</time></trkpt><trkpt lat="43.5073732" lon="16.468862"><ele>39.75</ele><time>2026-05-04T15:36:45.592Z</time></trkpt><trkpt lat="43.5073442" lon="16.4686785"><ele>39.5</ele><time>2026-05-04T15:36:46.591Z</time></trkpt><trkpt lat="43.5073181" lon="16.4684969"><ele>39.25</ele><time>2026-05-04T15:36:47.592Z</time></trkpt><trkpt lat="43.5072888" lon="16.468322"><ele>39.0</ele><time>2026-05-04T15:36:48.591Z</time></trkpt><trkpt lat="43.5072588" lon="16.4681516"><ele>39.0</ele><time>2026-05-04T15:36:49.592Z</time></trkpt><trkpt lat="43.5072267" lon="16.4679843"><ele>39.0</ele><time>2026-05-04T15:36:50.591Z</time></trkpt><trkpt lat="43.5071966" lon="16.4678155"><ele>39.0</ele><time>2026-05-04T15:36:51.591Z</time></trkpt><trkpt lat="43.5071667" lon="16.4676559"><ele>39.0</ele><time>2026-05-04T15:36:52.591Z</time></trkpt><trkpt lat="43.5071383" lon="16.4674926"><ele>37.75</ele><time>2026-05-04T15:36:53.591Z</time></trkpt><trkpt lat="43.5071096" lon="16.4673268"><ele>36.5</ele><time>2026-05-04T15:36:54.591Z</time></trkpt><trkpt lat="43.5070838" lon="16.4671688"><ele>35.25</ele><time>2026-05-04T15:36:55.592Z</time></trkpt><trkpt lat="43.5070579" lon="16.4670156"><ele>34.0</ele><time>2026-05-04T15:36:56.592Z</time></trkpt><trkpt lat="43.5070345" lon="16.4668638"><ele>32.8</ele><time>2026-05-04T15:36:57.592Z</time></trkpt><trkpt lat="43.5070084" lon="16.4667095"><ele>31.599999999999998</ele><time>2026-05-04T15:36:58.591Z</time></trkpt><trkpt lat="43.506988" lon="16.4665591"><ele>30.4</ele><time>2026-05-04T15:36:59.591Z</time></trkpt><trkpt lat="43.5069627" lon="16.466413"><ele>29.2</ele><time>2026-05-04T15:37:00.592Z</time></trkpt><trkpt lat="43.506936" lon="16.4662806"><ele>28.0</ele><time>2026-05-04T15:37:01.591Z</time></trkpt><trkpt lat="43.5069115" lon="16.4661518"><ele>28.000000000000004</ele><time>2026-05-04T15:37:02.591Z</time></trkpt><trkpt lat="43.5068857" lon="16.4660249"><ele>28.0</ele><time>2026-05-04T15:37:03.591Z</time></trkpt><trkpt lat="43.5068687" lon="16.4658968"><ele>28.0</ele><time>2026-05-04T15:37:04.592Z</time></trkpt><trkpt lat="43.5068491" lon="16.4657817"><ele>28.0</ele><time>2026-05-04T15:37:05.592Z</time></trkpt><trkpt lat="43.5068293" lon="16.4656792"><ele>28.000000000000004</ele><time>2026-05-04T15:37:06.591Z</time></trkpt><trkpt lat="43.5068105" lon="16.465572"><ele>28.0</ele><time>2026-05-04T15:37:07.592Z</time></trkpt><trkpt lat="43.5067969" lon="16.4654836"><ele>28.2</ele><time>2026-05-04T15:37:08.592Z</time></trkpt><trkpt lat="43.506775" lon="16.4653344"><ele>28.4</ele><time>2026-05-04T15:37:10.591Z</time></trkpt><trkpt lat="43.506761" lon="16.4652127"><ele>28.599999999999998</ele><time>2026-05-04T15:37:12.591Z</time></trkpt><trkpt lat="43.5067477" lon="16.4651274"><ele>28.799999999999997</ele><time>2026-05-04T15:37:15.591Z</time></trkpt><trkpt lat="43.5067451" lon="16.4649943"><ele>29.0</ele><time>2026-05-04T15:38:12.592Z</time></trkpt><trkpt lat="43.5067179" lon="16.4648274"><ele>29.0</ele><time>2026-05-04T15:38:14.592Z</time></trkpt><trkpt lat="43.5066978" lon="16.4647292"><ele>29.0</ele><time>2026-05-04T15:38:15.592Z</time></trkpt><trkpt lat="43.5066804" lon="16.4646205"><ele>29.0</ele><time>2026-05-04T15:38:16.591Z</time></trkpt><trkpt lat="43.5066579" lon="16.4644956"><ele>29.0</ele><time>2026-05-04T15:38:17.591Z</time></trkpt><trkpt lat="43.5066364" lon="16.4643584"><ele>29.0</ele><time>2026-05-04T15:38:18.592Z</time></trkpt><trkpt lat="43.5066152" lon="16.4642154"><ele>29.0</ele><time>2026-05-04T15:38:19.591Z</time></trkpt><trkpt lat="43.5065881" lon="16.4640606"><ele>29.0</ele><time>2026-05-04T15:38:20.592Z</time></trkpt><trkpt lat="43.506561" lon="16.4638985"><ele>29.0</ele><time>2026-05-04T15:38:21.591Z</time></trkpt><trkpt lat="43.5065317" lon="16.4637324"><ele>29.0</ele><time>2026-05-04T15:38:22.592Z</time></trkpt><trkpt lat="43.5065028" lon="16.4635586"><ele>29.666666666666664</ele><time>2026-05-04T15:38:23.591Z</time></trkpt><trkpt lat="43.5064667" lon="16.4633726"><ele>30.333333333333336</ele><time>2026-05-04T15:38:24.591Z</time></trkpt><trkpt lat="43.5064285" lon="16.4631675"><ele>31.0</ele><time>2026-05-04T15:38:25.591Z</time></trkpt><trkpt lat="43.5063932" lon="16.4629522"><ele>31.0</ele><time>2026-05-04T15:38:26.592Z</time></trkpt><trkpt lat="43.5063569" lon="16.4627423"><ele>31.0</ele><time>2026-05-04T15:38:27.592Z</time></trkpt><trkpt lat="43.5063287" lon="16.4625292"><ele>31.0</ele><time>2026-05-04T15:38:28.592Z</time></trkpt><trkpt lat="43.5062976" lon="16.4623233"><ele>31.0</ele><time>2026-05-04T15:38:29.591Z</time></trkpt><trkpt lat="43.5062641" lon="16.4621306"><ele>31.0</ele><time>2026-05-04T15:38:30.592Z</time></trkpt><trkpt lat="43.5062259" lon="16.4619359"><ele>31.0</ele><time>2026-05-04T15:38:31.592Z</time></trkpt><trkpt lat="43.5061981" lon="16.4617439"><ele>31.0</ele><time>2026-05-04T15:38:32.592Z</time></trkpt><trkpt lat="43.5061633" lon="16.461561"><ele>31.0</ele><time>2026-05-04T15:38:33.591Z</time></trkpt><trkpt lat="43.506131" lon="16.4613943"><ele>31.0</ele><time>2026-05-04T15:38:34.591Z</time></trkpt><trkpt lat="43.5061057" lon="16.4612207"><ele>31.0</ele><time>2026-05-04T15:38:35.591Z</time></trkpt><trkpt lat="43.5060746" lon="16.4610726"><ele>31.0</ele><time>2026-05-04T15:38:36.591Z</time></trkpt><trkpt lat="43.5060491" lon="16.4609159"><ele>31.0</ele><time>2026-05-04T15:38:37.592Z</time></trkpt><trkpt lat="43.5060259" lon="16.4607848"><ele>31.0</ele><time>2026-05-04T15:38:38.592Z</time></trkpt><trkpt lat="43.5060067" lon="16.4606475"><ele>31.0</ele><time>2026-05-04T15:38:39.592Z</time></trkpt><trkpt lat="43.5059911" lon="16.4605163"><ele>31.0</ele><time>2026-05-04T15:38:40.591Z</time></trkpt><trkpt lat="43.5059763" lon="16.4603939"><ele>31.0</ele><time>2026-05-04T15:38:41.591Z</time></trkpt><trkpt lat="43.5059548" lon="16.4602833"><ele>31.4</ele><time>2026-05-04T15:38:42.591Z</time></trkpt><trkpt lat="43.5059263" lon="16.460154"><ele>31.8</ele><time>2026-05-04T15:38:44.592Z</time></trkpt><trkpt lat="43.5059077" lon="16.4600605"><ele>32.199999999999996</ele><time>2026-05-04T15:38:46.591Z</time></trkpt><trkpt lat="43.5058945" lon="16.4599383"><ele>32.6</ele><time>2026-05-04T15:38:54.591Z</time></trkpt><trkpt lat="43.5058684" lon="16.4597849"><ele>33.0</ele><time>2026-05-04T15:38:56.591Z</time></trkpt><trkpt lat="43.5058588" lon="16.4596724"><ele>32.833333333333336</ele><time>2026-05-04T15:38:57.591Z</time></trkpt><trkpt lat="43.5058401" lon="16.459587"><ele>32.666666666666664</ele><time>2026-05-04T15:38:58.591Z</time></trkpt><trkpt lat="43.5058292" lon="16.459482"><ele>32.5</ele><time>2026-05-04T15:38:59.592Z</time></trkpt><trkpt lat="43.5058061" lon="16.459373"><ele>32.33333333333333</ele><time>2026-05-04T15:39:00.592Z</time></trkpt><trkpt lat="43.5057882" lon="16.4592456"><ele>32.166666666666664</ele><time>2026-05-04T15:39:01.591Z</time></trkpt><trkpt lat="43.5057661" lon="16.4591062"><ele>32.0</ele><time>2026-05-04T15:39:02.591Z</time></trkpt><trkpt lat="43.5057451" lon="16.458972"><ele>32.0</ele><time>2026-05-04T15:39:03.592Z</time></trkpt><trkpt lat="43.5057191" lon="16.4588319"><ele>32.0</ele><time>2026-05-04T15:39:04.592Z</time></trkpt><trkpt lat="43.5056942" lon="16.4586821"><ele>32.0</ele><time>2026-05-04T15:39:05.592Z</time></trkpt><trkpt lat="43.5056617" lon="16.4585225"><ele>32.0</ele><time>2026-05-04T15:39:06.591Z</time></trkpt><trkpt lat="43.5056311" lon="16.4583766"><ele>32.0</ele><time>2026-05-04T15:39:07.591Z</time></trkpt><trkpt lat="43.5056029" lon="16.4582258"><ele>32.25</ele><time>2026-05-04T15:39:08.591Z</time></trkpt><trkpt lat="43.5055781" lon="16.4580609"><ele>32.5</ele><time>2026-05-04T15:39:09.591Z</time></trkpt><trkpt lat="43.5055489" lon="16.457901"><ele>32.75</ele><time>2026-05-04T15:39:10.592Z</time></trkpt><trkpt lat="43.5055256" lon="16.4577452"><ele>33.0</ele><time>2026-05-04T15:39:11.592Z</time></trkpt><trkpt lat="43.5054969" lon="16.4575795"><ele>33.75</ele><time>2026-05-04T15:39:12.591Z</time></trkpt><trkpt lat="43.5054634" lon="16.4574204"><ele>34.5</ele><time>2026-05-04T15:39:13.591Z</time></trkpt><trkpt lat="43.5054363" lon="16.4572595"><ele>35.25</ele><time>2026-05-04T15:39:14.592Z</time></trkpt><trkpt lat="43.505411" lon="16.4570959"><ele>36.0</ele><time>2026-05-04T15:39:15.592Z</time></trkpt><trkpt lat="43.5053828" lon="16.4569327"><ele>34.75</ele><time>2026-05-04T15:39:16.592Z</time></trkpt><trkpt lat="43.5053558" lon="16.4567496"><ele>33.5</ele><time>2026-05-04T15:39:17.592Z</time></trkpt><trkpt lat="43.5053276" lon="16.4565539"><ele>32.25</ele><time>2026-05-04T15:39:18.592Z</time></trkpt><trkpt lat="43.5053011" lon="16.4563802"><ele>31.0</ele><time>2026-05-04T15:39:19.592Z</time></trkpt><trkpt lat="43.5052688" lon="16.4562125"><ele>31.0</ele><time>2026-05-04T15:39:20.592Z</time></trkpt><trkpt lat="43.5052383" lon="16.4560537"><ele>31.0</ele><time>2026-05-04T15:39:21.592Z</time></trkpt><trkpt lat="43.5052109" lon="16.4558948"><ele>31.0</ele><time>2026-05-04T15:39:22.592Z</time></trkpt><trkpt lat="43.505185" lon="16.4557291"><ele>31.0</ele><time>2026-05-04T15:39:23.592Z</time></trkpt><trkpt lat="43.5051481" lon="16.4555742"><ele>31.75</ele><time>2026-05-04T15:39:24.591Z</time></trkpt><trkpt lat="43.505113" lon="16.4554186"><ele>32.5</ele><time>2026-05-04T15:39:25.592Z</time></trkpt><trkpt lat="43.5050794" lon="16.4552581"><ele>33.25</ele><time>2026-05-04T15:39:26.591Z</time></trkpt><trkpt lat="43.5050514" lon="16.455097"><ele>34.0</ele><time>2026-05-04T15:39:27.592Z</time></trkpt><trkpt lat="43.5050361" lon="16.4549427"><ele>34.0</ele><time>2026-05-04T15:39:28.592Z</time></trkpt><trkpt lat="43.5050235" lon="16.4547955"><ele>34.0</ele><time>2026-05-04T15:39:29.592Z</time></trkpt><trkpt lat="43.5050154" lon="16.4546707"><ele>34.0</ele><time>2026-05-04T15:39:30.591Z</time></trkpt><trkpt lat="43.5050147" lon="16.4545559"><ele>34.0</ele><time>2026-05-04T15:39:31.591Z</time></trkpt><trkpt lat="43.5050153" lon="16.4544529"><ele>34.0</ele><time>2026-05-04T15:39:32.592Z</time></trkpt><trkpt lat="43.5050144" lon="16.4543615"><ele>34.0</ele><time>2026-05-04T15:39:33.591Z</time></trkpt><trkpt lat="43.5050301" lon="16.4542413"><ele>34.2</ele><time>2026-05-04T15:39:35.591Z</time></trkpt><trkpt lat="43.5050409" lon="16.4541477"><ele>34.4</ele><time>2026-05-04T15:39:40.591Z</time></trkpt><trkpt lat="43.5050525" lon="16.454052"><ele>34.6</ele><time>2026-05-04T15:39:42.592Z</time></trkpt><trkpt lat="43.5050767" lon="16.4538823"><ele>34.8</ele><time>2026-05-04T15:39:44.592Z</time></trkpt><trkpt lat="43.5051155" lon="16.4537086"><ele>35.0</ele><time>2026-05-04T15:39:46.592Z</time></trkpt><trkpt lat="43.5051541" lon="16.453551"><ele>34.666666666666664</ele><time>2026-05-04T15:39:48.591Z</time></trkpt><trkpt lat="43.5051805" lon="16.4534573"><ele>34.33333333333333</ele><time>2026-05-04T15:39:49.592Z</time></trkpt><trkpt lat="43.5052026" lon="16.4533699"><ele>34.0</ele><time>2026-05-04T15:39:50.591Z</time></trkpt><trkpt lat="43.5052237" lon="16.4532829"><ele>33.666666666666664</ele><time>2026-05-04T15:39:51.591Z</time></trkpt><trkpt lat="43.5052591" lon="16.4531499"><ele>33.333333333333336</ele><time>2026-05-04T15:39:53.591Z</time></trkpt><trkpt lat="43.5052825" lon="16.4530465"><ele>33.0</ele><time>2026-05-04T15:39:55.591Z</time></trkpt><trkpt lat="43.5053051" lon="16.4529511"><ele>33.0</ele><time>2026-05-04T15:40:22.592Z</time></trkpt><trkpt lat="43.5053383" lon="16.4528082"><ele>33.0</ele><time>2026-05-04T15:40:25.592Z</time></trkpt><trkpt lat="43.5053619" lon="16.4527048"><ele>33.0</ele><time>2026-05-04T15:40:26.591Z</time></trkpt><trkpt lat="43.5053836" lon="16.4525992"><ele>33.0</ele><time>2026-05-04T15:40:27.592Z</time></trkpt><trkpt lat="43.5054102" lon="16.4524717"><ele>33.0</ele><time>2026-05-04T15:40:28.591Z</time></trkpt><trkpt lat="43.50544" lon="16.452348"><ele>32.6</ele><time>2026-05-04T15:40:29.592Z</time></trkpt><trkpt lat="43.5054656" lon="16.4522186"><ele>32.199999999999996</ele><time>2026-05-04T15:40:30.592Z</time></trkpt><trkpt lat="43.5054824" lon="16.452091"><ele>31.8</ele><time>2026-05-04T15:40:31.592Z</time></trkpt><trkpt lat="43.5054987" lon="16.4519529"><ele>31.4</ele><time>2026-05-04T15:40:32.592Z</time></trkpt><trkpt lat="43.505512" lon="16.4518227"><ele>31.0</ele><time>2026-05-04T15:40:33.591Z</time></trkpt><trkpt lat="43.5055246" lon="16.4516793"><ele>30.6</ele><time>2026-05-04T15:40:34.592Z</time></trkpt><trkpt lat="43.5055296" lon="16.4515356"><ele>30.200000000000003</ele><time>2026-05-04T15:40:35.591Z</time></trkpt><trkpt lat="43.5055386" lon="16.4513873"><ele>29.799999999999997</ele><time>2026-05-04T15:40:36.592Z</time></trkpt><trkpt lat="43.5055471" lon="16.4512436"><ele>29.4</ele><time>2026-05-04T15:40:37.591Z</time></trkpt><trkpt lat="43.5055463" lon="16.451104"><ele>29.0</ele><time>2026-05-04T15:40:38.592Z</time></trkpt><trkpt lat="43.5055444" lon="16.4509728"><ele>29.0</ele><time>2026-05-04T15:40:39.592Z</time></trkpt><trkpt lat="43.5055404" lon="16.4508297"><ele>29.0</ele><time>2026-05-04T15:40:40.592Z</time></trkpt><trkpt lat="43.5055451" lon="16.4506878"><ele>29.0</ele><time>2026-05-04T15:40:41.592Z</time></trkpt><trkpt lat="43.5055473" lon="16.4505417"><ele>29.0</ele><time>2026-05-04T15:40:42.592Z</time></trkpt><trkpt lat="43.5055481" lon="16.4503957"><ele>29.0</ele><time>2026-05-04T15:40:43.591Z</time></trkpt><trkpt lat="43.5055478" lon="16.4502586"><ele>28.4</ele><time>2026-05-04T15:40:44.592Z</time></trkpt><trkpt lat="43.5055492" lon="16.4501112"><ele>27.799999999999997</ele><time>2026-05-04T15:40:45.592Z</time></trkpt><trkpt lat="43.505546" lon="16.4499715"><ele>27.200000000000003</ele><time>2026-05-04T15:40:46.592Z</time></trkpt><trkpt lat="43.5055462" lon="16.4498341"><ele>26.6</ele><time>2026-05-04T15:40:47.591Z</time></trkpt><trkpt lat="43.5055531" lon="16.4497001"><ele>26.0</ele><time>2026-05-04T15:40:48.592Z</time></trkpt><trkpt lat="43.5055648" lon="16.4495719"><ele>25.6</ele><time>2026-05-04T15:40:49.591Z</time></trkpt><trkpt lat="43.5055888" lon="16.4494373"><ele>25.200000000000003</ele><time>2026-05-04T15:40:50.591Z</time></trkpt><trkpt lat="43.5056095" lon="16.4493067"><ele>24.799999999999997</ele><time>2026-05-04T15:40:51.591Z</time></trkpt><trkpt lat="43.5056336" lon="16.449169"><ele>24.4</ele><time>2026-05-04T15:40:52.591Z</time></trkpt><trkpt lat="43.5056585" lon="16.4490381"><ele>24.0</ele><time>2026-05-04T15:40:53.592Z</time></trkpt><trkpt lat="43.5056779" lon="16.4489096"><ele>24.0</ele><time>2026-05-04T15:40:54.591Z</time></trkpt><trkpt lat="43.5056999" lon="16.448795"><ele>24.0</ele><time>2026-05-04T15:40:55.592Z</time></trkpt><trkpt lat="43.5057131" lon="16.4486753"><ele>24.0</ele><time>2026-05-04T15:40:56.592Z</time></trkpt><trkpt lat="43.5057333" lon="16.4485732"><ele>24.0</ele><time>2026-05-04T15:40:57.592Z</time></trkpt><trkpt lat="43.5057599" lon="16.4484271"><ele>24.0</ele><time>2026-05-04T15:40:59.592Z</time></trkpt><trkpt lat="43.5057654" lon="16.448323"><ele>24.0</ele><time>2026-05-04T15:41:02.592Z</time></trkpt><trkpt lat="43.5057668" lon="16.4481871"><ele>23.6</ele><time>2026-05-04T15:41:18.592Z</time></trkpt><trkpt lat="43.5057979" lon="16.4480733"><ele>23.2</ele><time>2026-05-04T15:41:19.592Z</time></trkpt><trkpt lat="43.5058183" lon="16.4479641"><ele>22.8</ele><time>2026-05-04T15:41:20.591Z</time></trkpt><trkpt lat="43.5058411" lon="16.4478372"><ele>22.400000000000002</ele><time>2026-05-04T15:41:21.592Z</time></trkpt><trkpt lat="43.5058636" lon="16.4476964"><ele>22.0</ele><time>2026-05-04T15:41:22.591Z</time></trkpt><trkpt lat="43.5058976" lon="16.4475268"><ele>22.0</ele><time>2026-05-04T15:41:23.592Z</time></trkpt><trkpt lat="43.5059384" lon="16.4473497"><ele>22.0</ele><time>2026-05-04T15:41:24.592Z</time></trkpt><trkpt lat="43.5059712" lon="16.4471578"><ele>22.0</ele><time>2026-05-04T15:41:25.592Z</time></trkpt><trkpt lat="43.5060103" lon="16.4469548"><ele>22.0</ele><time>2026-05-04T15:41:26.592Z</time></trkpt><trkpt lat="43.506055" lon="16.4467636"><ele>21.25</ele><time>2026-05-04T15:41:27.592Z</time></trkpt><trkpt lat="43.5060891" lon="16.4465805"><ele>20.5</ele><time>2026-05-04T15:41:28.592Z</time></trkpt><trkpt lat="43.5061274" lon="16.4464156"><ele>19.75</ele><time>2026-05-04T15:41:29.591Z</time></trkpt><trkpt lat="43.5061612" lon="16.4462483"><ele>19.0</ele><time>2026-05-04T15:41:30.591Z</time></trkpt><trkpt lat="43.5061945" lon="16.4460816"><ele>19.25</ele><time>2026-05-04T15:41:31.592Z</time></trkpt><trkpt lat="43.5062279" lon="16.4459074"><ele>19.5</ele><time>2026-05-04T15:41:32.592Z</time></trkpt><trkpt lat="43.5062597" lon="16.4457366"><ele>19.75</ele><time>2026-05-04T15:41:33.592Z</time></trkpt><trkpt lat="43.5062943" lon="16.4455719"><ele>20.0</ele><time>2026-05-04T15:41:34.592Z</time></trkpt><trkpt lat="43.5063295" lon="16.4454"><ele>19.5</ele><time>2026-05-04T15:41:35.591Z</time></trkpt><trkpt lat="43.5063658" lon="16.4452274"><ele>19.0</ele><time>2026-05-04T15:41:36.592Z</time></trkpt><trkpt lat="43.5064016" lon="16.4450634"><ele>18.5</ele><time>2026-05-04T15:41:37.591Z</time></trkpt><trkpt lat="43.5064335" lon="16.4449048"><ele>18.0</ele><time>2026-05-04T15:41:38.591Z</time></trkpt><trkpt lat="43.5064653" lon="16.4447511"><ele>17.5</ele><time>2026-05-04T15:41:39.591Z</time></trkpt><trkpt lat="43.5064956" lon="16.444582"><ele>17.0</ele><time>2026-05-04T15:41:40.591Z</time></trkpt><trkpt lat="43.5065282" lon="16.4444287"><ele>16.5</ele><time>2026-05-04T15:41:41.592Z</time></trkpt><trkpt lat="43.5065641" lon="16.4442687"><ele>16.0</ele><time>2026-05-04T15:41:42.591Z</time></trkpt><trkpt lat="43.5065971" lon="16.4441065"><ele>16.0</ele><time>2026-05-04T15:41:43.591Z</time></trkpt><trkpt lat="43.5066304" lon="16.4439558"><ele>16.0</ele><time>2026-05-04T15:41:44.592Z</time></trkpt><trkpt lat="43.5066659" lon="16.4438081"><ele>16.0</ele><time>2026-05-04T15:41:45.592Z</time></trkpt><trkpt lat="43.5067009" lon="16.4436617"><ele>16.0</ele><time>2026-05-04T15:41:46.592Z</time></trkpt><trkpt lat="43.5067365" lon="16.4435169"><ele>15.200000000000001</ele><time>2026-05-04T15:41:47.592Z</time></trkpt><trkpt lat="43.5067694" lon="16.4433831"><ele>14.400000000000002</ele><time>2026-05-04T15:41:48.592Z</time></trkpt><trkpt lat="43.506796" lon="16.4432538"><ele>13.6</ele><time>2026-05-04T15:41:49.591Z</time></trkpt><trkpt lat="43.5068181" lon="16.4431453"><ele>12.8</ele><time>2026-05-04T15:41:50.591Z</time></trkpt><trkpt lat="43.5068475" lon="16.4430563"><ele>12.0</ele><time>2026-05-04T15:41:51.591Z</time></trkpt><trkpt lat="43.5068969" lon="16.4428929"><ele>11.0</ele><time>2026-05-04T15:41:53.592Z</time></trkpt><trkpt lat="43.5069222" lon="16.442801"><ele>10.0</ele><time>2026-05-04T15:41:54.591Z</time></trkpt><trkpt lat="43.5069459" lon="16.4426975"><ele>9.0</ele><time>2026-05-04T15:41:55.592Z</time></trkpt><trkpt lat="43.5069698" lon="16.4426118"><ele>8.0</ele><time>2026-05-04T15:41:56.592Z</time></trkpt><trkpt lat="43.5069841" lon="16.4424669"><ele>7.0</ele><time>2026-05-04T15:41:58.591Z</time></trkpt><trkpt lat="43.5069507" lon="16.4423411"><ele>6.0</ele><time>2026-05-04T15:42:00.592Z</time></trkpt><trkpt lat="43.506867" lon="16.4422621"><ele>6.0</ele><time>2026-05-04T15:42:02.592Z</time></trkpt><trkpt lat="43.5067644" lon="16.4422337"><ele>6.0</ele><time>2026-05-04T15:42:04.591Z</time></trkpt><trkpt lat="43.5066436" lon="16.4422406"><ele>6.0</ele><time>2026-05-04T15:42:06.592Z</time></trkpt><trkpt lat="43.5065791" lon="16.4422625"><ele>6.0</ele><time>2026-05-04T15:42:07.591Z</time></trkpt><trkpt lat="43.5065151" lon="16.4422855"><ele>6.0</ele><time>2026-05-04T15:42:08.591Z</time></trkpt><trkpt lat="43.5064063" lon="16.4423366"><ele>6.0</ele><time>2026-05-04T15:42:10.592Z</time></trkpt><trkpt lat="43.5063115" lon="16.4424309"><ele>6.0</ele><time>2026-05-04T15:42:12.592Z</time></trkpt><trkpt lat="43.506242" lon="16.4425383"><ele>6.0</ele><time>2026-05-04T15:42:14.592Z</time></trkpt><trkpt lat="43.5061912" lon="16.4426178"><ele>6.0</ele><time>2026-05-04T15:42:16.592Z</time></trkpt><trkpt lat="43.5061831" lon="16.4427061"><ele>6.0</ele><time>2026-05-04T15:42:19.591Z</time></trkpt><trkpt lat="43.5062353" lon="16.44264"><ele>6.0</ele><time>2026-05-04T15:42:32.592Z</time></trkpt><trkpt lat="43.5062895" lon="16.4425111"><ele>6.0</ele><time>2026-05-04T15:42:34.591Z</time></trkpt><trkpt lat="43.5063798" lon="16.4423898"><ele>6.0</ele><time>2026-05-04T15:42:36.591Z</time></trkpt><trkpt lat="43.5064388" lon="16.4423269"><ele>6.0</ele><time>2026-05-04T15:42:37.592Z</time></trkpt><trkpt lat="43.5065061" lon="16.4423052"><ele>6.0</ele><time>2026-05-04T15:42:38.592Z</time></trkpt><trkpt lat="43.5065791" lon="16.4422812"><ele>6.0</ele><time>2026-05-04T15:42:39.592Z</time></trkpt><trkpt lat="43.5066488" lon="16.4422602"><ele>6.0</ele><time>2026-05-04T15:42:40.592Z</time></trkpt><trkpt lat="43.5067211" lon="16.4422524"><ele>6.0</ele><time>2026-05-04T15:42:41.592Z</time></trkpt><trkpt lat="43.5067896" lon="16.4422698"><ele>6.0</ele><time>2026-05-04T15:42:42.592Z</time></trkpt><trkpt lat="43.5068935" lon="16.4423026"><ele>6.0</ele><time>2026-05-04T15:42:44.591Z</time></trkpt><trkpt lat="43.5069421" lon="16.4423714"><ele>6.0</ele><time>2026-05-04T15:42:46.591Z</time></trkpt><trkpt lat="43.5069236" lon="16.4424938"><ele>6.0</ele><time>2026-05-04T15:42:48.592Z</time></trkpt><trkpt lat="43.5068941" lon="16.4426136"><ele>6.0</ele><time>2026-05-04T15:42:50.591Z</time></trkpt><trkpt lat="43.5068543" lon="16.4427615"><ele>6.0</ele><time>2026-05-04T15:42:52.591Z</time></trkpt><trkpt lat="43.5068243" lon="16.442873"><ele>6.0</ele><time>2026-05-04T15:42:54.591Z</time></trkpt><trkpt lat="43.5067839" lon="16.4429612"><ele>6.0</ele><time>2026-05-04T15:42:59.591Z</time></trkpt><trkpt lat="43.5067122" lon="16.4430112"><ele>6.0</ele><time>2026-05-04T15:43:02.591Z</time></trkpt><trkpt lat="43.5066342" lon="16.443058"><ele>6.0</ele><time>2026-05-04T15:43:05.591Z</time></trkpt><trkpt lat="43.5065573" lon="16.4431059"><ele>6.0</ele><time>2026-05-04T15:43:07.591Z</time></trkpt><trkpt lat="43.5064772" lon="16.4431703"><ele>7.0</ele><time>2026-05-04T15:43:09.591Z</time></trkpt><trkpt lat="43.5063919" lon="16.4432132"><ele>8.0</ele><time>2026-05-04T15:43:11.592Z</time></trkpt><trkpt lat="43.5063323" lon="16.443267"><ele>9.0</ele><time>2026-05-04T15:43:13.592Z</time></trkpt><trkpt lat="43.506296" lon="16.4433435"><ele>10.0</ele><time>2026-05-04T15:43:15.592Z</time></trkpt><trkpt lat="43.5062963" lon="16.4434433"><ele>11.0</ele><time>2026-05-04T15:43:17.592Z</time></trkpt><trkpt lat="43.5062914" lon="16.4435578"><ele>12.0</ele><time>2026-05-04T15:43:19.591Z</time></trkpt><trkpt lat="43.5062846" lon="16.4436772"><ele>11.999999999999998</ele><time>2026-05-04T15:43:21.591Z</time></trkpt><trkpt lat="43.5062782" lon="16.4437936"><ele>12.0</ele><time>2026-05-04T15:43:23.591Z</time></trkpt><trkpt lat="43.5062625" lon="16.4438978"><ele>12.0</ele><time>2026-05-04T15:43:25.591Z</time></trkpt><trkpt lat="43.5062476" lon="16.4439846"><ele>12.0</ele><time>2026-05-04T15:43:27.592Z</time></trkpt><trkpt lat="43.506242" lon="16.4440714"><ele>12.0</ele><time>2026-05-04T15:43:29.592Z</time></trkpt><trkpt lat="43.5062246" lon="16.4441804"><ele>11.999999999999998</ele><time>2026-05-04T15:43:31.592Z</time></trkpt><trkpt lat="43.5062006" lon="16.4442794"><ele>12.0</ele><time>2026-05-04T15:43:33.591Z</time></trkpt><trkpt lat="43.5061769" lon="16.4443725"><ele>11.571428571428571</ele><time>2026-05-04T15:43:51.591Z</time></trkpt><trkpt lat="43.5062" lon="16.4442905"><ele>11.142857142857142</ele><time>2026-05-04T15:44:32.591Z</time></trkpt><trkpt lat="43.5061967" lon="16.4443815"><ele>10.714285714285715</ele><time>2026-05-04T15:45:09.592Z</time></trkpt><trkpt lat="43.5062544" lon="16.4444723"><ele>10.285714285714285</ele><time>2026-05-04T15:45:20.592Z</time></trkpt><trkpt lat="43.5063127" lon="16.4445313"><ele>9.857142857142858</ele><time>2026-05-04T15:45:29.592Z</time></trkpt><trkpt lat="43.5062923" lon="16.4446212"><ele>9.428571428571429</ele><time>2026-05-04T15:46:26.528Z</time></trkpt><trkpt lat="43.5063425" lon="16.4446757"><ele>9.0</ele><time>2026-05-04T15:46:34.591Z</time></trkpt><trkpt lat="43.5063587" lon="16.4445779"><ele>10.0</ele><time>2026-05-04T15:46:42.591Z</time></trkpt><trkpt lat="43.5062998" lon="16.4445217"><ele>11.0</ele><time>2026-05-04T15:47:00.85Z</time></trkpt><trkpt lat="43.5062657" lon="16.4444416"><ele>12.0</ele><time>2026-05-04T15:47:05.591Z</time></trkpt><trkpt lat="43.5063142" lon="16.4443219"><ele>13.0</ele><time>2026-05-04T15:49:01.642Z</time></trkpt><trkpt lat="43.5063822" lon="16.4442967"><ele>13.999999999999998</ele><time>2026-05-04T15:57:40.554Z</time></trkpt><trkpt lat="43.5063633" lon="16.4443962"><ele>15.0</ele><time>2026-05-04T15:57:58.254Z</time></trkpt><trkpt lat="43.5063123" lon="16.4444536"><ele>16.0</ele><time>2026-05-04T15:58:05.591Z</time></trkpt><trkpt lat="43.5062453" lon="16.4444277"><ele>15.285714285714285</ele><time>2026-05-04T15:58:09.592Z</time></trkpt><trkpt lat="43.5061817" lon="16.4444122"><ele>14.57142857142857</ele><time>2026-05-04T15:58:13.592Z</time></trkpt><trkpt lat="43.506134" lon="16.444473"><ele>13.857142857142858</ele><time>2026-05-04T16:00:04.591Z</time></trkpt><trkpt lat="43.5060864" lon="16.4445904"><ele>13.142857142857142</ele><time>2026-05-04T16:05:36.597Z</time></trkpt><trkpt lat="43.5060573" lon="16.4446691"><ele>12.428571428571427</ele><time>2026-05-04T16:05:37.597Z</time></trkpt><trkpt lat="43.5060187" lon="16.4447488"><ele>11.714285714285715</ele><time>2026-05-04T16:05:38.596Z</time></trkpt><trkpt lat="43.5059914" lon="16.4448486"><ele>11.0</ele><time>2026-05-04T16:05:39.597Z</time></trkpt><trkpt lat="43.5059552" lon="16.444934"><ele>11.0</ele><time>2026-05-04T16:05:40.596Z</time></trkpt><trkpt lat="43.5059203" lon="16.4450371"><ele>11.0</ele><time>2026-05-04T16:05:41.596Z</time></trkpt><trkpt lat="43.5058903" lon="16.4451319"><ele>11.0</ele><time>2026-05-04T16:05:42.597Z</time></trkpt><trkpt lat="43.5058595" lon="16.445215"><ele>11.0</ele><time>2026-05-04T16:05:43.596Z</time></trkpt><trkpt lat="43.505833" lon="16.4452983"><ele>11.0</ele><time>2026-05-04T16:05:44.596Z</time></trkpt><trkpt lat="43.5057889" lon="16.445439"><ele>11.0</ele><time>2026-05-04T16:05:46.597Z</time></trkpt><trkpt lat="43.5057434" lon="16.4455743"><ele>11.333333333333332</ele><time>2026-05-04T16:05:48.596Z</time></trkpt><trkpt lat="43.5057081" lon="16.4456749"><ele>11.666666666666666</ele><time>2026-05-04T16:05:50.597Z</time></trkpt><trkpt lat="43.5056928" lon="16.4457617"><ele>12.0</ele><time>2026-05-04T16:05:55.597Z</time></trkpt><trkpt lat="43.5056707" lon="16.445856"><ele>12.333333333333332</ele><time>2026-05-04T16:05:58.597Z</time></trkpt><trkpt lat="43.505651" lon="16.4459792"><ele>12.666666666666666</ele><time>2026-05-04T16:06:01.596Z</time></trkpt><trkpt lat="43.5056306" lon="16.4461262"><ele>13.0</ele><time>2026-05-04T16:06:03.597Z</time></trkpt><trkpt lat="43.5055888" lon="16.4462931"><ele>13.999999999999998</ele><time>2026-05-04T16:06:05.597Z</time></trkpt><trkpt lat="43.5055714" lon="16.4463915"><ele>15.0</ele><time>2026-05-04T16:06:06.596Z</time></trkpt><trkpt lat="43.5055531" lon="16.4465007"><ele>16.0</ele><time>2026-05-04T16:06:07.597Z</time></trkpt><trkpt lat="43.5055437" lon="16.4466164"><ele>17.0</ele><time>2026-05-04T16:06:08.596Z</time></trkpt><trkpt lat="43.5055377" lon="16.4467345"><ele>18.0</ele><time>2026-05-04T16:06:09.597Z</time></trkpt><trkpt lat="43.5055279" lon="16.4468428"><ele>19.0</ele><time>2026-05-04T16:06:10.597Z</time></trkpt><trkpt lat="43.5055234" lon="16.4469393"><ele>19.0</ele><time>2026-05-04T16:06:11.597Z</time></trkpt><trkpt lat="43.505517" lon="16.4470802"><ele>19.0</ele><time>2026-05-04T16:06:13.597Z</time></trkpt><trkpt lat="43.5055052" lon="16.4471772"><ele>19.0</ele><time>2026-05-04T16:06:16.597Z</time></trkpt><trkpt lat="43.5054834" lon="16.4473093"><ele>19.0</ele><time>2026-05-04T16:06:39.597Z</time></trkpt><trkpt lat="43.5054607" lon="16.4474273"><ele>19.0</ele><time>2026-05-04T16:06:41.597Z</time></trkpt><trkpt lat="43.5054349" lon="16.4475451"><ele>19.0</ele><time>2026-05-04T16:06:43.596Z</time></trkpt><trkpt lat="43.5054183" lon="16.4476521"><ele>19.0</ele><time>2026-05-04T16:06:45.597Z</time></trkpt><trkpt lat="43.5054199" lon="16.4477509"><ele>19.0</ele><time>2026-05-04T16:06:47.597Z</time></trkpt><trkpt lat="43.5054529" lon="16.4478392"><ele>19.0</ele><time>2026-05-04T16:06:50.596Z</time></trkpt><trkpt lat="43.505515" lon="16.44789"><ele>19.0</ele><time>2026-05-04T16:07:27.596Z</time></trkpt><trkpt lat="43.5056065" lon="16.4479446"><ele>19.0</ele><time>2026-05-04T16:07:29.597Z</time></trkpt><trkpt lat="43.5056673" lon="16.4479761"><ele>19.0</ele><time>2026-05-04T16:07:30.597Z</time></trkpt><trkpt lat="43.5057315" lon="16.4480063"><ele>19.0</ele><time>2026-05-04T16:07:31.597Z</time></trkpt><trkpt lat="43.5058032" lon="16.4480335"><ele>19.0</ele><time>2026-05-04T16:07:32.596Z</time></trkpt><trkpt lat="43.5058733" lon="16.4480599"><ele>19.0</ele><time>2026-05-04T16:07:33.596Z</time></trkpt><trkpt lat="43.5059366" lon="16.4480819"><ele>19.0</ele><time>2026-05-04T16:07:34.596Z</time></trkpt><trkpt lat="43.5060193" lon="16.4481191"><ele>19.0</ele><time>2026-05-04T16:07:35.596Z</time></trkpt><trkpt lat="43.5061029" lon="16.448157"><ele>19.0</ele><time>2026-05-04T16:07:36.597Z</time></trkpt><trkpt lat="43.5061858" lon="16.4481979"><ele>19.0</ele><time>2026-05-04T16:07:37.596Z</time></trkpt><trkpt lat="43.5062679" lon="16.4482448"><ele>19.0</ele><time>2026-05-04T16:07:38.596Z</time></trkpt><trkpt lat="43.5063507" lon="16.4482893"><ele>19.0</ele><time>2026-05-04T16:07:39.596Z</time></trkpt><trkpt lat="43.5064237" lon="16.4483058"><ele>19.0</ele><time>2026-05-04T16:07:40.596Z</time></trkpt><trkpt lat="43.5064794" lon="16.4483675"><ele>19.0</ele><time>2026-05-04T16:07:41.597Z</time></trkpt><trkpt lat="43.5065367" lon="16.448423"><ele>19.799999999999997</ele><time>2026-05-04T16:07:42.597Z</time></trkpt><trkpt lat="43.5066022" lon="16.448487"><ele>20.599999999999998</ele><time>2026-05-04T16:07:43.597Z</time></trkpt><trkpt lat="43.5066702" lon="16.4485429"><ele>21.4</ele><time>2026-05-04T16:07:44.596Z</time></trkpt><trkpt lat="43.5067382" lon="16.4486427"><ele>22.2</ele><time>2026-05-04T16:07:45.596Z</time></trkpt><trkpt lat="43.5068159" lon="16.4487409"><ele>23.0</ele><time>2026-05-04T16:07:46.597Z</time></trkpt><trkpt lat="43.5068886" lon="16.4488512"><ele>23.75</ele><time>2026-05-04T16:07:47.596Z</time></trkpt><trkpt lat="43.5069663" lon="16.448968"><ele>24.5</ele><time>2026-05-04T16:07:48.597Z</time></trkpt><trkpt lat="43.5070416" lon="16.4490817"><ele>25.25</ele><time>2026-05-04T16:07:49.596Z</time></trkpt><trkpt lat="43.5071196" lon="16.449194"><ele>26.0</ele><time>2026-05-04T16:07:50.596Z</time></trkpt><trkpt lat="43.5071957" lon="16.4493091"><ele>26.0</ele><time>2026-05-04T16:07:51.596Z</time></trkpt><trkpt lat="43.5072782" lon="16.4494189"><ele>26.0</ele><time>2026-05-04T16:07:52.597Z</time></trkpt><trkpt lat="43.5073629" lon="16.4495177"><ele>26.0</ele><time>2026-05-04T16:07:53.597Z</time></trkpt><trkpt lat="43.5074513" lon="16.4496164"><ele>26.0</ele><time>2026-05-04T16:07:54.596Z</time></trkpt><trkpt lat="43.5075435" lon="16.4497087"><ele>26.499999999999996</ele><time>2026-05-04T16:07:55.596Z</time></trkpt><trkpt lat="43.5076295" lon="16.4497895"><ele>27.0</ele><time>2026-05-04T16:07:56.597Z</time></trkpt><trkpt lat="43.5077144" lon="16.4498684"><ele>27.5</ele><time>2026-05-04T16:07:57.596Z</time></trkpt><trkpt lat="43.5077916" lon="16.4499253"><ele>28.0</ele><time>2026-05-04T16:07:58.596Z</time></trkpt><trkpt lat="43.5078452" lon="16.4499822"><ele>28.499999999999996</ele><time>2026-05-04T16:07:59.597Z</time></trkpt><trkpt lat="43.5078878" lon="16.4500557"><ele>29.0</ele><time>2026-05-04T16:08:00.597Z</time></trkpt><trkpt lat="43.5079364" lon="16.4502418"><ele>30.0</ele><time>2026-05-04T16:08:02.597Z</time></trkpt><trkpt lat="43.5079454" lon="16.4503631"><ele>31.0</ele><time>2026-05-04T16:08:03.597Z</time></trkpt><trkpt lat="43.5079504" lon="16.4504881"><ele>32.0</ele><time>2026-05-04T16:08:04.596Z</time></trkpt><trkpt lat="43.5079549" lon="16.4506317"><ele>33.0</ele><time>2026-05-04T16:08:05.597Z</time></trkpt><trkpt lat="43.5079636" lon="16.4507962"><ele>34.0</ele><time>2026-05-04T16:08:06.597Z</time></trkpt><trkpt lat="43.507974" lon="16.4509796"><ele>34.0</ele><time>2026-05-04T16:08:07.596Z</time></trkpt><trkpt lat="43.5079837" lon="16.4511706"><ele>34.0</ele><time>2026-05-04T16:08:08.597Z</time></trkpt><trkpt lat="43.5079965" lon="16.4513756"><ele>34.0</ele><time>2026-05-04T16:08:09.597Z</time></trkpt><trkpt lat="43.5080094" lon="16.4515773"><ele>34.0</ele><time>2026-05-04T16:08:10.597Z</time></trkpt><trkpt lat="43.5080214" lon="16.4517702"><ele>34.75</ele><time>2026-05-04T16:08:11.596Z</time></trkpt><trkpt lat="43.5080321" lon="16.4519567"><ele>35.5</ele><time>2026-05-04T16:08:12.597Z</time></trkpt><trkpt lat="43.5080396" lon="16.4521318"><ele>36.25</ele><time>2026-05-04T16:08:13.596Z</time></trkpt><trkpt lat="43.5080392" lon="16.4522832"><ele>37.0</ele><time>2026-05-04T16:08:14.596Z</time></trkpt><trkpt lat="43.5080428" lon="16.4524182"><ele>37.6</ele><time>2026-05-04T16:08:15.596Z</time></trkpt><trkpt lat="43.5080461" lon="16.4525255"><ele>38.2</ele><time>2026-05-04T16:08:16.596Z</time></trkpt><trkpt lat="43.5080487" lon="16.4526758"><ele>38.8</ele><time>2026-05-04T16:08:18.596Z</time></trkpt><trkpt lat="43.5080574" lon="16.4527767"><ele>39.4</ele><time>2026-05-04T16:09:11.596Z</time></trkpt><trkpt lat="43.5080626" lon="16.4529239"><ele>40.0</ele><time>2026-05-04T16:09:13.597Z</time></trkpt><trkpt lat="43.5080683" lon="16.4530741"><ele>41.25</ele><time>2026-05-04T16:09:14.597Z</time></trkpt><trkpt lat="43.5080812" lon="16.4532508"><ele>42.5</ele><time>2026-05-04T16:09:15.596Z</time></trkpt><trkpt lat="43.5080996" lon="16.453448"><ele>43.75</ele><time>2026-05-04T16:09:16.596Z</time></trkpt><trkpt lat="43.5081153" lon="16.4536753"><ele>45.0</ele><time>2026-05-04T16:09:17.596Z</time></trkpt><trkpt lat="43.5081369" lon="16.4539124"><ele>46.33333333333333</ele><time>2026-05-04T16:09:18.596Z</time></trkpt><trkpt lat="43.5081677" lon="16.4541528"><ele>47.666666666666664</ele><time>2026-05-04T16:09:19.597Z</time></trkpt><trkpt lat="43.5081889" lon="16.454385"><ele>49.0</ele><time>2026-05-04T16:09:20.597Z</time></trkpt><trkpt lat="43.5082141" lon="16.4546103"><ele>49.33333333333333</ele><time>2026-05-04T16:09:21.575Z</time></trkpt><trkpt lat="43.5082299" lon="16.4548267"><ele>49.66666666666667</ele><time>2026-05-04T16:09:22.57Z</time></trkpt><trkpt lat="43.5082462" lon="16.455044"><ele>50.0</ele><time>2026-05-04T16:09:23.57Z</time></trkpt><trkpt lat="43.5082654" lon="16.4552548"><ele>51.25</ele><time>2026-05-04T16:09:24.572Z</time></trkpt><trkpt lat="43.5082849" lon="16.4554593"><ele>52.5</ele><time>2026-05-04T16:09:25.569Z</time></trkpt><trkpt lat="43.5083046" lon="16.455653"><ele>53.75</ele><time>2026-05-04T16:09:26.572Z</time></trkpt><trkpt lat="43.5083232" lon="16.4558415"><ele>55.0</ele><time>2026-05-04T16:09:27.572Z</time></trkpt><trkpt lat="43.508339" lon="16.456018"><ele>55.0</ele><time>2026-05-04T16:09:28.572Z</time></trkpt><trkpt lat="43.5083586" lon="16.4561876"><ele>55.0</ele><time>2026-05-04T16:09:29.572Z</time></trkpt><trkpt lat="43.5083783" lon="16.4563511"><ele>55.0</ele><time>2026-05-04T16:09:30.572Z</time></trkpt><trkpt lat="43.5083978" lon="16.4565049"><ele>55.0</ele><time>2026-05-04T16:09:31.572Z</time></trkpt><trkpt lat="43.5084169" lon="16.4566411"><ele>55.33333333333333</ele><time>2026-05-04T16:09:32.571Z</time></trkpt><trkpt lat="43.5084349" lon="16.4567505"><ele>55.666666666666664</ele><time>2026-05-04T16:09:33.572Z</time></trkpt><trkpt lat="43.508449" lon="16.4568398"><ele>56.0</ele><time>2026-05-04T16:09:34.572Z</time></trkpt><trkpt lat="43.5084673" lon="16.4569485"><ele>56.33333333333333</ele><time>2026-05-04T16:09:36.572Z</time></trkpt><trkpt lat="43.5084802" lon="16.4570598"><ele>56.666666666666664</ele><time>2026-05-04T16:09:44.597Z</time></trkpt><trkpt lat="43.508495" lon="16.4571489"><ele>57.0</ele><time>2026-05-04T16:09:47.596Z</time></trkpt><trkpt lat="43.5085438" lon="16.4572506"><ele>57.0</ele><time>2026-05-04T16:09:51.597Z</time></trkpt><trkpt lat="43.5086087" lon="16.4572668"><ele>56.99999999999999</ele><time>2026-05-04T16:09:53.597Z</time></trkpt><trkpt lat="43.5086915" lon="16.4572494"><ele>57.0</ele><time>2026-05-04T16:09:56.596Z</time></trkpt><trkpt lat="43.5087543" lon="16.4572311"><ele>57.0</ele><time>2026-05-04T16:09:58.597Z</time></trkpt><trkpt lat="43.5088395" lon="16.4572149"><ele>56.99999999999999</ele><time>2026-05-04T16:10:01.597Z</time></trkpt><trkpt lat="43.5089069" lon="16.4571955"><ele>57.0</ele><time>2026-05-04T16:10:04.596Z</time></trkpt><trkpt lat="43.5089667" lon="16.4572251"><ele>57.0</ele><time>2026-05-04T16:10:14.597Z</time></trkpt><trkpt lat="43.5089792" lon="16.457324"><ele>57.0</ele><time>2026-05-04T16:10:17.597Z</time></trkpt><trkpt lat="43.50898" lon="16.4574212"><ele>56.99999999999999</ele><time>2026-05-04T16:10:29.596Z</time></trkpt><trkpt lat="43.5090498" lon="16.4574137"><ele>57.0</ele><time>2026-05-04T16:12:38.596Z</time></trkpt><trkpt lat="43.5090102" lon="16.4573347"><ele>57.0</ele><time>2026-05-04T16:12:48.597Z</time></trkpt><trkpt lat="43.5090095" lon="16.4572433"><ele>56.99999999999999</ele><time>2026-05-04T16:12:56.597Z</time></trkpt><trkpt lat="43.5089816" lon="16.4571592"><ele>57.0</ele><time>2026-05-04T16:13:02.596Z</time></trkpt><trkpt lat="43.5089236" lon="16.4572102"><ele>57.0</ele><time>2026-05-04T16:13:07.597Z</time></trkpt><trkpt lat="43.5088671" lon="16.4572535"><ele>57.0</ele><time>2026-05-04T16:13:13.596Z</time></trkpt><trkpt lat="43.5088414" lon="16.4573359"><ele>57.0</ele><time>2026-05-04T16:13:21.597Z</time></trkpt><trkpt lat="43.5088174" lon="16.4574362"><ele>57.0</ele><time>2026-05-04T16:13:31.596Z</time></trkpt><trkpt lat="43.5088714" lon="16.4574851"><ele>57.0</ele><time>2026-05-04T16:13:38.596Z</time></trkpt><trkpt lat="43.5089288" lon="16.4575822"><ele>57.0</ele><time>2026-05-04T16:20:09.823Z</time></trkpt><trkpt lat="43.5088461" lon="16.4576099"><ele>57.0</ele><time>2026-05-04T16:20:49.707Z</time></trkpt></trkseg><trkseg><trkpt lat="43.5089209" lon="16.4574049"><ele>57.0</ele><time>2026-05-05T05:46:04.462Z</time></trkpt><trkpt lat="43.508907" lon="16.457499"><ele>57.0</ele><time>2026-05-05T05:46:08.401Z</time></trkpt><trkpt lat="43.5089216" lon="16.4575982"><ele>57.0</ele><time>2026-05-05T05:46:13.766Z</time></trkpt><trkpt lat="43.5088793" lon="16.4576768"><ele>57.0</ele><time>2026-05-05T05:46:24.479Z</time></trkpt><trkpt lat="43.5091315" lon="16.4572191"><ele>57.0</ele><time>2026-05-05T05:48:57.606Z</time></trkpt><trkpt lat="43.5089753" lon="16.4573561"><ele>57.0</ele><time>2026-05-05T05:49:00.606Z</time></trkpt><trkpt lat="43.5090407" lon="16.4573539"><ele>57.0</ele><time>2026-05-05T05:49:15.606Z</time></trkpt><trkpt lat="43.5090807" lon="16.4572472"><ele>57.0</ele><time>2026-05-05T05:49:19.606Z</time></trkpt><trkpt lat="43.509053" lon="16.4571654"><ele>57.0</ele><time>2026-05-05T05:49:21.605Z</time></trkpt><trkpt lat="43.5090208" lon="16.4570715"><ele>57.0</ele><time>2026-05-05T05:49:25.606Z</time></trkpt><trkpt lat="43.5089551" lon="16.45707"><ele>57.0</ele><time>2026-05-05T05:49:28.605Z</time></trkpt><trkpt lat="43.5088921" lon="16.4571231"><ele>57.0</ele><time>2026-05-05T05:49:31.606Z</time></trkpt><trkpt lat="43.508814" lon="16.457158"><ele>57.0</ele><time>2026-05-05T05:49:37.605Z</time></trkpt><trkpt lat="43.5087321" lon="16.4571943"><ele>57.0</ele><time>2026-05-05T05:49:39.605Z</time></trkpt><trkpt lat="43.5086522" lon="16.4572246"><ele>57.0</ele><time>2026-05-05T05:49:41.606Z</time></trkpt><trkpt lat="43.5085923" lon="16.4572787"><ele>57.0</ele><time>2026-05-05T05:49:43.606Z</time></trkpt><trkpt lat="43.5085604" lon="16.4574171"><ele>57.0</ele><time>2026-05-05T05:49:46.606Z</time></trkpt><trkpt lat="43.5085845" lon="16.4575881"><ele>57.0</ele><time>2026-05-05T05:49:48.606Z</time></trkpt><trkpt lat="43.5086084" lon="16.4577242"><ele>57.0</ele><time>2026-05-05T05:49:49.605Z</time></trkpt><trkpt lat="43.5086323" lon="16.4578682"><ele>57.0</ele><time>2026-05-05T05:49:50.605Z</time></trkpt><trkpt lat="43.5086599" lon="16.4580287"><ele>57.0</ele><time>2026-05-05T05:49:51.605Z</time></trkpt><trkpt lat="43.5086901" lon="16.458188"><ele>57.0</ele><time>2026-05-05T05:49:52.606Z</time></trkpt><trkpt lat="43.5087196" lon="16.4584149"><ele>57.0</ele><time>2026-05-05T05:49:53.606Z</time></trkpt><trkpt lat="43.5087503" lon="16.4586283"><ele>57.0</ele><time>2026-05-05T05:49:54.605Z</time></trkpt><trkpt lat="43.5087827" lon="16.4588356"><ele>56.5</ele><time>2026-05-05T05:49:55.606Z</time></trkpt><trkpt lat="43.5088068" lon="16.4590153"><ele>56.0</ele><time>2026-05-05T05:49:56.606Z</time></trkpt><trkpt lat="43.5088341" lon="16.459183"><ele>55.5</ele><time>2026-05-05T05:49:57.606Z</time></trkpt><trkpt lat="43.5088575" lon="16.4593438"><ele>55.0</ele><time>2026-05-05T05:49:58.605Z</time></trkpt><trkpt lat="43.5089551" lon="16.45707"><ele>55.33333333333333</ele><time>2026-05-05T05:49:28.605Z</time></trkpt><trkpt lat="43.5088921" lon="16.4571231"><ele>55.666666666666664</ele><time>2026-05-05T05:49:31.606Z</time></trkpt><trkpt lat="43.508814" lon="16.457158"><ele>56.0</ele><time>2026-05-05T05:49:37.605Z</time></trkpt><trkpt lat="43.5087321" lon="16.4571943"><ele>56.33333333333333</ele><time>2026-05-05T05:49:39.605Z</time></trkpt><trkpt lat="43.5086522" lon="16.4572246"><ele>56.666666666666664</ele><time>2026-05-05T05:49:41.606Z</time></trkpt><trkpt lat="43.5085923" lon="16.4572787"><ele>57.0</ele><time>2026-05-05T05:49:43.606Z</time></trkpt><trkpt lat="43.5085604" lon="16.4574171"><ele>57.0</ele><time>2026-05-05T05:49:46.606Z</time></trkpt><trkpt lat="43.5085845" lon="16.4575881"><ele>57.0</ele><time>2026-05-05T05:49:48.606Z</time></trkpt><trkpt lat="43.5086084" lon="16.4577242"><ele>57.0</ele><time>2026-05-05T05:49:49.605Z</time></trkpt><trkpt lat="43.5086323" lon="16.4578682"><ele>57.0</ele><time>2026-05-05T05:49:50.605Z</time></trkpt><trkpt lat="43.5086599" lon="16.4580287"><ele>57.0</ele><time>2026-05-05T05:49:51.605Z</time></trkpt><trkpt lat="43.5086901" lon="16.458188"><ele>57.0</ele><time>2026-05-05T05:49:52.606Z</time></trkpt><trkpt lat="43.5087196" lon="16.4584149"><ele>57.0</ele><time>2026-05-05T05:49:53.606Z</time></trkpt><trkpt lat="43.5087503" lon="16.4586283"><ele>57.0</ele><time>2026-05-05T05:49:54.605Z</time></trkpt><trkpt lat="43.5087827" lon="16.4588356"><ele>58.0</ele><time>2026-05-05T05:49:55.606Z</time></trkpt><trkpt lat="43.5088068" lon="16.4590153"><ele>59.0</ele><time>2026-05-05T05:49:56.606Z</time></trkpt><trkpt lat="43.5088341" lon="16.459183"><ele>60.0</ele><time>2026-05-05T05:49:57.606Z</time></trkpt><trkpt lat="43.5088575" lon="16.4593438"><ele>61.0</ele><time>2026-05-05T05:49:58.605Z</time></trkpt><trkpt lat="43.5088793" lon="16.4595052"><ele>60.75</ele><time>2026-05-05T05:49:59.606Z</time></trkpt><trkpt lat="43.5089007" lon="16.459674"><ele>60.5</ele><time>2026-05-05T05:50:00.606Z</time></trkpt><trkpt lat="43.5089243" lon="16.4598579"><ele>60.25</ele><time>2026-05-05T05:50:01.605Z</time></trkpt><trkpt lat="43.5089458" lon="16.4600412"><ele>60.0</ele><time>2026-05-05T05:50:02.605Z</time></trkpt><trkpt lat="43.5089681" lon="16.4602252"><ele>60.0</ele><time>2026-05-05T05:50:03.605Z</time></trkpt><trkpt lat="43.5089949" lon="16.4604097"><ele>60.0</ele><time>2026-05-05T05:50:04.605Z</time></trkpt><trkpt lat="43.5090235" lon="16.4605833"><ele>60.0</ele><time>2026-05-05T05:50:05.605Z</time></trkpt><trkpt lat="43.5090538" lon="16.4607625"><ele>60.0</ele><time>2026-05-05T05:50:06.606Z</time></trkpt><trkpt lat="43.5090785" lon="16.4609344"><ele>59.25</ele><time>2026-05-05T05:50:07.606Z</time></trkpt><trkpt lat="43.5091064" lon="16.4611018"><ele>58.5</ele><time>2026-05-05T05:50:08.606Z</time></trkpt><trkpt lat="43.5091326" lon="16.4612652"><ele>57.75</ele><time>2026-05-05T05:50:09.606Z</time></trkpt><trkpt lat="43.50916" lon="16.4614306"><ele>57.0</ele><time>2026-05-05T05:50:10.606Z</time></trkpt><trkpt lat="43.5091868" lon="16.4615927"><ele>56.0</ele><time>2026-05-05T05:50:11.605Z</time></trkpt><trkpt lat="43.5092151" lon="16.4617596"><ele>55.0</ele><time>2026-05-05T05:50:12.605Z</time></trkpt><trkpt lat="43.5092403" lon="16.4619309"><ele>54.0</ele><time>2026-05-05T05:50:13.605Z</time></trkpt><trkpt lat="43.5092653" lon="16.4621011"><ele>53.0</ele><time>2026-05-05T05:50:14.605Z</time></trkpt><trkpt lat="43.5092911" lon="16.462273"><ele>51.75</ele><time>2026-05-05T05:50:15.606Z</time></trkpt><trkpt lat="43.5093137" lon="16.4624425"><ele>50.5</ele><time>2026-05-05T05:50:16.606Z</time></trkpt><trkpt lat="43.5093406" lon="16.4626087"><ele>49.25</ele><time>2026-05-05T05:50:17.606Z</time></trkpt><trkpt lat="43.5093664" lon="16.4627704"><ele>48.0</ele><time>2026-05-05T05:50:18.606Z</time></trkpt><trkpt lat="43.5093925" lon="16.46292"><ele>47.2</ele><time>2026-05-05T05:50:19.606Z</time></trkpt><trkpt lat="43.5094164" lon="16.4630621"><ele>46.4</ele><time>2026-05-05T05:50:20.606Z</time></trkpt><trkpt lat="43.509437" lon="16.4631773"><ele>45.6</ele><time>2026-05-05T05:50:21.606Z</time></trkpt><trkpt lat="43.5094559" lon="16.4632859"><ele>44.800000000000004</ele><time>2026-05-05T05:50:22.606Z</time></trkpt><trkpt lat="43.5094674" lon="16.4634442"><ele>44.0</ele><time>2026-05-05T05:50:24.606Z</time></trkpt><trkpt lat="43.5094573" lon="16.4635349"><ele>44.0</ele><time>2026-05-05T05:50:26.606Z</time></trkpt><trkpt lat="43.509429" lon="16.4636186"><ele>44.0</ele><time>2026-05-05T05:50:29.605Z</time></trkpt><trkpt lat="43.50935" lon="16.4636697"><ele>44.0</ele><time>2026-05-05T05:50:31.606Z</time></trkpt><trkpt lat="43.5092888" lon="16.4636996"><ele>44.0</ele><time>2026-05-05T05:50:32.606Z</time></trkpt><trkpt lat="43.5092204" lon="16.4637296"><ele>44.0</ele><time>2026-05-05T05:50:33.605Z</time></trkpt><trkpt lat="43.5091444" lon="16.4637633"><ele>44.0</ele><time>2026-05-05T05:50:34.606Z</time></trkpt><trkpt lat="43.5090657" lon="16.4638038"><ele>42.800000000000004</ele><time>2026-05-05T05:50:35.605Z</time></trkpt><trkpt lat="43.5089699" lon="16.4638343"><ele>41.6</ele><time>2026-05-05T05:50:36.605Z</time></trkpt><trkpt lat="43.5088743" lon="16.4638676"><ele>40.4</ele><time>2026-05-05T05:50:37.605Z</time></trkpt><trkpt lat="43.5087776" lon="16.4639027"><ele>39.2</ele><time>2026-05-05T05:50:38.605Z</time></trkpt><trkpt lat="43.5086826" lon="16.4639333"><ele>38.0</ele><time>2026-05-05T05:50:39.605Z</time></trkpt><trkpt lat="43.5085809" lon="16.4639715"><ele>37.0</ele><time>2026-05-05T05:50:40.606Z</time></trkpt><trkpt lat="43.508482" lon="16.4640113"><ele>36.0</ele><time>2026-05-05T05:50:41.606Z</time></trkpt><trkpt lat="43.5083651" lon="16.4640204"><ele>35.0</ele><time>2026-05-05T05:50:42.605Z</time></trkpt><trkpt lat="43.5082798" lon="16.4640471"><ele>34.0</ele><time>2026-05-05T05:50:43.605Z</time></trkpt><trkpt lat="43.5081955" lon="16.4640686"><ele>33.0</ele><time>2026-05-05T05:50:44.606Z</time></trkpt><trkpt lat="43.5081167" lon="16.464102"><ele>33.0</ele><time>2026-05-05T05:50:45.606Z</time></trkpt><trkpt lat="43.5080387" lon="16.4641338"><ele>33.0</ele><time>2026-05-05T05:50:46.606Z</time></trkpt><trkpt lat="43.5079487" lon="16.4641542"><ele>33.0</ele><time>2026-05-05T05:50:47.605Z</time></trkpt><trkpt lat="43.5078683" lon="16.4641813"><ele>33.0</ele><time>2026-05-05T05:50:48.606Z</time></trkpt><trkpt lat="43.5077885" lon="16.4642015"><ele>33.0</ele><time>2026-05-05T05:50:49.606Z</time></trkpt><trkpt lat="43.5076931" lon="16.4642291"><ele>33.0</ele><time>2026-05-05T05:50:50.606Z</time></trkpt><trkpt lat="43.5076001" lon="16.4642593"><ele>32.666666666666664</ele><time>2026-05-05T05:50:51.606Z</time></trkpt><trkpt lat="43.5075147" lon="16.464287"><ele>32.333333333333336</ele><time>2026-05-05T05:50:52.605Z</time></trkpt><trkpt lat="43.5074319" lon="16.464327"><ele>32.0</ele><time>2026-05-05T05:50:53.605Z</time></trkpt><trkpt lat="43.5073552" lon="16.4643645"><ele>31.666666666666668</ele><time>2026-05-05T05:50:54.605Z</time></trkpt><trkpt lat="43.5072799" lon="16.4643889"><ele>31.333333333333336</ele><time>2026-05-05T05:50:55.605Z</time></trkpt><trkpt lat="43.5072085" lon="16.4644039"><ele>31.0</ele><time>2026-05-05T05:50:56.605Z</time></trkpt><trkpt lat="43.5070961" lon="16.4644396"><ele>30.6</ele><time>2026-05-05T05:50:58.606Z</time></trkpt><trkpt lat="43.5070161" lon="16.4644605"><ele>30.200000000000003</ele><time>2026-05-05T05:51:00.606Z</time></trkpt><trkpt lat="43.506852" lon="16.4644578"><ele>29.799999999999997</ele><time>2026-05-05T05:51:14.605Z</time></trkpt><trkpt lat="43.5067656" lon="16.4644922"><ele>29.4</ele><time>2026-05-05T05:51:17.606Z</time></trkpt><trkpt lat="43.5067" lon="16.4645436"><ele>29.0</ele><time>2026-05-05T05:51:21.605Z</time></trkpt><trkpt lat="43.506643" lon="16.4645955"><ele>29.0</ele><time>2026-05-05T05:51:28.605Z</time></trkpt><trkpt lat="43.5065897" lon="16.4646703"><ele>29.0</ele><time>2026-05-05T05:51:31.606Z</time></trkpt><trkpt lat="43.5065761" lon="16.4647655"><ele>29.0</ele><time>2026-05-05T05:51:33.605Z</time></trkpt><trkpt lat="43.506591" lon="16.4649531"><ele>29.0</ele><time>2026-05-05T05:51:35.606Z</time></trkpt><trkpt lat="43.5066072" lon="16.4650613"><ele>29.0</ele><time>2026-05-05T05:51:36.605Z</time></trkpt><trkpt lat="43.5066329" lon="16.4651886"><ele>29.0</ele><time>2026-05-05T05:51:37.605Z</time></trkpt><trkpt lat="43.506655" lon="16.4653206"><ele>29.0</ele><time>2026-05-05T05:51:38.606Z</time></trkpt><trkpt lat="43.5066767" lon="16.4654585"><ele>29.0</ele><time>2026-05-05T05:51:39.605Z</time></trkpt><trkpt lat="43.5066981" lon="16.4656106"><ele>29.0</ele><time>2026-05-05T05:51:40.606Z</time></trkpt><trkpt lat="43.5067193" lon="16.4657614"><ele>29.0</ele><time>2026-05-05T05:51:41.606Z</time></trkpt><trkpt lat="43.5067435" lon="16.4659152"><ele>28.75</ele><time>2026-05-05T05:51:42.606Z</time></trkpt><trkpt lat="43.5067742" lon="16.4660816"><ele>28.5</ele><time>2026-05-05T05:51:43.605Z</time></trkpt><trkpt lat="43.5068126" lon="16.4662398"><ele>28.25</ele><time>2026-05-05T05:51:44.606Z</time></trkpt><trkpt lat="43.5068405" lon="16.4664076"><ele>28.0</ele><time>2026-05-05T05:51:45.606Z</time></trkpt><trkpt lat="43.506863" lon="16.4665859"><ele>28.0</ele><time>2026-05-05T05:51:46.605Z</time></trkpt><trkpt lat="43.5068912" lon="16.4667803"><ele>28.0</ele><time>2026-05-05T05:51:47.606Z</time></trkpt><trkpt lat="43.5069205" lon="16.4669743"><ele>28.0</ele><time>2026-05-05T05:51:48.606Z</time></trkpt><trkpt lat="43.5069485" lon="16.467174"><ele>28.0</ele><time>2026-05-05T05:51:49.606Z</time></trkpt><trkpt lat="43.5069824" lon="16.4673681"><ele>28.25</ele><time>2026-05-05T05:51:50.606Z</time></trkpt><trkpt lat="43.5070157" lon="16.4675613"><ele>28.5</ele><time>2026-05-05T05:51:51.606Z</time></trkpt><trkpt lat="43.5070583" lon="16.4677663"><ele>28.75</ele><time>2026-05-05T05:51:52.605Z</time></trkpt><trkpt lat="43.5070999" lon="16.4679627"><ele>29.0</ele><time>2026-05-05T05:51:53.605Z</time></trkpt><trkpt lat="43.5071276" lon="16.4681436"><ele>31.5</ele><time>2026-05-05T05:51:54.605Z</time></trkpt><trkpt lat="43.507148" lon="16.4683239"><ele>34.0</ele><time>2026-05-05T05:51:55.606Z</time></trkpt><trkpt lat="43.5071748" lon="16.4685031"><ele>36.5</ele><time>2026-05-05T05:51:56.605Z</time></trkpt><trkpt lat="43.5072044" lon="16.4686662"><ele>39.0</ele><time>2026-05-05T05:51:57.606Z</time></trkpt><trkpt lat="43.507229" lon="16.4688237"><ele>39.2</ele><time>2026-05-05T05:51:58.606Z</time></trkpt><trkpt lat="43.5072609" lon="16.4689845"><ele>39.4</ele><time>2026-05-05T05:51:59.605Z</time></trkpt><trkpt lat="43.5072813" lon="16.4691264"><ele>39.6</ele><time>2026-05-05T05:52:00.606Z</time></trkpt><trkpt lat="43.5073064" lon="16.4692665"><ele>39.8</ele><time>2026-05-05T05:52:01.606Z</time></trkpt><trkpt lat="43.5073298" lon="16.469408"><ele>40.0</ele><time>2026-05-05T05:52:02.605Z</time></trkpt><trkpt lat="43.5073529" lon="16.4695376"><ele>40.4</ele><time>2026-05-05T05:52:03.605Z</time></trkpt><trkpt lat="43.5073734" lon="16.4696695"><ele>40.8</ele><time>2026-05-05T05:52:04.605Z</time></trkpt><trkpt lat="43.5073937" lon="16.469796"><ele>41.2</ele><time>2026-05-05T05:52:05.605Z</time></trkpt><trkpt lat="43.5074126" lon="16.4699064"><ele>41.6</ele><time>2026-05-05T05:52:06.605Z</time></trkpt><trkpt lat="43.5074346" lon="16.4700298"><ele>42.0</ele><time>2026-05-05T05:52:07.605Z</time></trkpt><trkpt lat="43.5074633" lon="16.4701702"><ele>42.0</ele><time>2026-05-05T05:52:08.605Z</time></trkpt><trkpt lat="43.5074823" lon="16.4702803"><ele>42.0</ele><time>2026-05-05T05:52:09.606Z</time></trkpt><trkpt lat="43.5075036" lon="16.4703939"><ele>42.0</ele><time>2026-05-05T05:52:10.606Z</time></trkpt><trkpt lat="43.5075149" lon="16.470503"><ele>42.0</ele><time>2026-05-05T05:52:11.605Z</time></trkpt><trkpt lat="43.5075373" lon="16.470616"><ele>42.0</ele><time>2026-05-05T05:52:12.605Z</time></trkpt><trkpt lat="43.5075625" lon="16.470725"><ele>42.0</ele><time>2026-05-05T05:52:13.606Z</time></trkpt><trkpt lat="43.5075871" lon="16.470843"><ele>42.0</ele><time>2026-05-05T05:52:14.606Z</time></trkpt><trkpt lat="43.5076203" lon="16.4709866"><ele>42.0</ele><time>2026-05-05T05:52:15.605Z</time></trkpt><trkpt lat="43.5076346" lon="16.4710836"><ele>42.0</ele><time>2026-05-05T05:52:16.606Z</time></trkpt><trkpt lat="43.5076692" lon="16.4712121"><ele>42.0</ele><time>2026-05-05T05:52:17.606Z</time></trkpt><trkpt lat="43.5077083" lon="16.4713501"><ele>42.0</ele><time>2026-05-05T05:52:18.605Z</time></trkpt><trkpt lat="43.50776" lon="16.471557"><ele>42.8</ele><time>2026-05-05T05:52:20.606Z</time></trkpt><trkpt lat="43.5078022" lon="16.4716977"><ele>43.6</ele><time>2026-05-05T05:52:21.606Z</time></trkpt><trkpt lat="43.5078538" lon="16.4718295"><ele>44.4</ele><time>2026-05-05T05:52:22.606Z</time></trkpt><trkpt lat="43.5078979" lon="16.4719637"><ele>45.199999999999996</ele><time>2026-05-05T05:52:23.606Z</time></trkpt><trkpt lat="43.5079515" lon="16.4721024"><ele>46.0</ele><time>2026-05-05T05:52:24.605Z</time></trkpt><trkpt lat="43.5079885" lon="16.4722246"><ele>47.75</ele><time>2026-05-05T05:52:25.605Z</time></trkpt><trkpt lat="43.5080437" lon="16.4723693"><ele>49.5</ele><time>2026-05-05T05:52:26.606Z</time></trkpt><trkpt lat="43.5080986" lon="16.4725176"><ele>51.25</ele><time>2026-05-05T05:52:27.606Z</time></trkpt><trkpt lat="43.5081615" lon="16.4726644"><ele>53.0</ele><time>2026-05-05T05:52:28.605Z</time></trkpt><trkpt lat="43.5082133" lon="16.4728127"><ele>52.8</ele><time>2026-05-05T05:52:29.606Z</time></trkpt><trkpt lat="43.508273" lon="16.4729412"><ele>52.599999999999994</ele><time>2026-05-05T05:52:30.606Z</time></trkpt><trkpt lat="43.5083233" lon="16.4730727"><ele>52.400000000000006</ele><time>2026-05-05T05:52:31.606Z</time></trkpt><trkpt lat="43.5083752" lon="16.4732089"><ele>52.2</ele><time>2026-05-05T05:52:32.605Z</time></trkpt><trkpt lat="43.5084264" lon="16.4733428"><ele>52.0</ele><time>2026-05-05T05:52:33.606Z</time></trkpt><trkpt lat="43.5084719" lon="16.4734679"><ele>52.0</ele><time>2026-05-05T05:52:34.606Z</time></trkpt><trkpt lat="43.5085158" lon="16.4735888"><ele>52.0</ele><time>2026-05-05T05:52:35.606Z</time></trkpt><trkpt lat="43.5085592" lon="16.4737133"><ele>52.0</ele><time>2026-05-05T05:52:36.606Z</time></trkpt><trkpt lat="43.5086018" lon="16.4738361"><ele>52.0</ele><time>2026-05-05T05:52:37.606Z</time></trkpt><trkpt lat="43.5086413" lon="16.4739532"><ele>52.0</ele><time>2026-05-05T05:52:38.605Z</time></trkpt><trkpt lat="43.5086859" lon="16.4740697"><ele>52.400000000000006</ele><time>2026-05-05T05:52:39.605Z</time></trkpt><trkpt lat="43.5087308" lon="16.4741848"><ele>52.800000000000004</ele><time>2026-05-05T05:52:40.605Z</time></trkpt><trkpt lat="43.5087629" lon="16.474297"><ele>53.2</ele><time>2026-05-05T05:52:41.606Z</time></trkpt><trkpt lat="43.5087996" lon="16.4744047"><ele>53.6</ele><time>2026-05-05T05:52:42.606Z</time></trkpt><trkpt lat="43.5088448" lon="16.4745312"><ele>54.0</ele><time>2026-05-05T05:52:43.606Z</time></trkpt><trkpt lat="43.5089013" lon="16.4746693"><ele>55.25</ele><time>2026-05-05T05:52:44.606Z</time></trkpt><trkpt lat="43.5089596" lon="16.4748045"><ele>56.5</ele><time>2026-05-05T05:52:45.605Z</time></trkpt><trkpt lat="43.5090127" lon="16.4749489"><ele>57.75</ele><time>2026-05-05T05:52:46.606Z</time></trkpt><trkpt lat="43.5090603" lon="16.4750884"><ele>59.0</ele><time>2026-05-05T05:52:47.606Z</time></trkpt><trkpt lat="43.5091205" lon="16.4752281"><ele>59.0</ele><time>2026-05-05T05:52:48.606Z</time></trkpt><trkpt lat="43.5091756" lon="16.4753782"><ele>59.0</ele><time>2026-05-05T05:52:49.606Z</time></trkpt><trkpt lat="43.5092282" lon="16.4755247"><ele>59.0</ele><time>2026-05-05T05:52:50.605Z</time></trkpt><trkpt lat="43.509286" lon="16.4756757"><ele>59.0</ele><time>2026-05-05T05:52:51.606Z</time></trkpt><trkpt lat="43.5093448" lon="16.4758263"><ele>59.25</ele><time>2026-05-05T05:52:52.605Z</time></trkpt><trkpt lat="43.5094016" lon="16.4759767"><ele>59.5</ele><time>2026-05-05T05:52:53.606Z</time></trkpt><trkpt lat="43.5094528" lon="16.4761296"><ele>59.75</ele><time>2026-05-05T05:52:54.606Z</time></trkpt><trkpt lat="43.5095089" lon="16.4762878"><ele>60.0</ele><time>2026-05-05T05:52:55.606Z</time></trkpt><trkpt lat="43.5095642" lon="16.476438"><ele>62.75</ele><time>2026-05-05T05:52:56.606Z</time></trkpt><trkpt lat="43.5096161" lon="16.4765893"><ele>65.5</ele><time>2026-05-05T05:52:57.605Z</time></trkpt><trkpt lat="43.5096671" lon="16.4767441"><ele>68.25</ele><time>2026-05-05T05:52:58.606Z</time></trkpt><trkpt lat="43.509717" lon="16.4768981"><ele>71.0</ele><time>2026-05-05T05:52:59.606Z</time></trkpt><trkpt lat="43.5097691" lon="16.4770587"><ele>71.25</ele><time>2026-05-05T05:53:00.606Z</time></trkpt><trkpt lat="43.5098177" lon="16.4772181"><ele>71.5</ele><time>2026-05-05T05:53:01.605Z</time></trkpt><trkpt lat="43.5098618" lon="16.4773864"><ele>71.75</ele><time>2026-05-05T05:53:02.606Z</time></trkpt><trkpt lat="43.5099002" lon="16.4775588"><ele>72.0</ele><time>2026-05-05T05:53:03.606Z</time></trkpt><trkpt lat="43.5099492" lon="16.4777297"><ele>72.0</ele><time>2026-05-05T05:53:04.605Z</time></trkpt><trkpt lat="43.5099959" lon="16.4779112"><ele>72.0</ele><time>2026-05-05T05:53:05.606Z</time></trkpt><trkpt lat="43.5100392" lon="16.478083"><ele>72.0</ele><time>2026-05-05T05:53:06.605Z</time></trkpt><trkpt lat="43.5100806" lon="16.4782603"><ele>72.0</ele><time>2026-05-05T05:53:07.606Z</time></trkpt><trkpt lat="43.5101171" lon="16.4784245"><ele>73.0</ele><time>2026-05-05T05:53:08.606Z</time></trkpt><trkpt lat="43.5101592" lon="16.4785941"><ele>74.0</ele><time>2026-05-05T05:53:09.606Z</time></trkpt><trkpt lat="43.510199" lon="16.4787616"><ele>75.0</ele><time>2026-05-05T05:53:10.605Z</time></trkpt><trkpt lat="43.5102365" lon="16.4789135"><ele>76.0</ele><time>2026-05-05T05:53:11.606Z</time></trkpt><trkpt lat="43.5102727" lon="16.4790571"><ele>76.39999999999999</ele><time>2026-05-05T05:53:12.605Z</time></trkpt><trkpt lat="43.5103059" lon="16.4792004"><ele>76.8</ele><time>2026-05-05T05:53:13.606Z</time></trkpt><trkpt lat="43.5103343" lon="16.4793383"><ele>77.19999999999999</ele><time>2026-05-05T05:53:14.605Z</time></trkpt><trkpt lat="43.510363" lon="16.4794609"><ele>77.6</ele><time>2026-05-05T05:53:15.605Z</time></trkpt><trkpt lat="43.5103897" lon="16.4795675"><ele>78.0</ele><time>2026-05-05T05:53:16.605Z</time></trkpt><trkpt lat="43.5104082" lon="16.4796695"><ele>78.4</ele><time>2026-05-05T05:53:17.605Z</time></trkpt><trkpt lat="43.5104257" lon="16.4797545"><ele>78.8</ele><time>2026-05-05T05:53:18.606Z</time></trkpt><trkpt lat="43.5104611" lon="16.4799054"><ele>79.2</ele><time>2026-05-05T05:53:20.605Z</time></trkpt><trkpt lat="43.5105058" lon="16.4800706"><ele>79.6</ele><time>2026-05-05T05:53:22.605Z</time></trkpt><trkpt lat="43.5105285" lon="16.4801642"><ele>80.0</ele><time>2026-05-05T05:53:23.605Z</time></trkpt><trkpt lat="43.5105524" lon="16.4802669"><ele>80.0</ele><time>2026-05-05T05:53:24.605Z</time></trkpt><trkpt lat="43.5105776" lon="16.4803738"><ele>80.0</ele><time>2026-05-05T05:53:25.605Z</time></trkpt><trkpt lat="43.5106054" lon="16.4804785"><ele>80.0</ele><time>2026-05-05T05:53:26.605Z</time></trkpt><trkpt lat="43.5106306" lon="16.4805831"><ele>80.0</ele><time>2026-05-05T05:53:27.605Z</time></trkpt><trkpt lat="43.5106551" lon="16.480677"><ele>80.0</ele><time>2026-05-05T05:53:28.606Z</time></trkpt><trkpt lat="43.5106789" lon="16.4807765"><ele>80.0</ele><time>2026-05-05T05:53:29.606Z</time></trkpt><trkpt lat="43.5107054" lon="16.4808798"><ele>79.16666666666667</ele><time>2026-05-05T05:53:30.605Z</time></trkpt><trkpt lat="43.5107331" lon="16.4809836"><ele>78.33333333333334</ele><time>2026-05-05T05:53:31.606Z</time></trkpt><trkpt lat="43.5107609" lon="16.4810881"><ele>77.5</ele><time>2026-05-05T05:53:32.605Z</time></trkpt><trkpt lat="43.5107882" lon="16.4811988"><ele>76.66666666666667</ele><time>2026-05-05T05:53:33.606Z</time></trkpt><trkpt lat="43.510817" lon="16.4813141"><ele>75.83333333333333</ele><time>2026-05-05T05:53:34.606Z</time></trkpt><trkpt lat="43.5108468" lon="16.4814379"><ele>75.0</ele><time>2026-05-05T05:53:35.606Z</time></trkpt><trkpt lat="43.5108776" lon="16.4815594"><ele>74.66666666666667</ele><time>2026-05-05T05:53:36.606Z</time></trkpt><trkpt lat="43.5109027" lon="16.4816677"><ele>74.33333333333333</ele><time>2026-05-05T05:53:37.605Z</time></trkpt><trkpt lat="43.5109303" lon="16.4817763"><ele>74.0</ele><time>2026-05-05T05:53:38.605Z</time></trkpt><trkpt lat="43.5109582" lon="16.4818821"><ele>73.66666666666666</ele><time>2026-05-05T05:53:39.606Z</time></trkpt><trkpt lat="43.5109844" lon="16.4819903"><ele>73.33333333333333</ele><time>2026-05-05T05:53:40.606Z</time></trkpt><trkpt lat="43.511011" lon="16.4820984"><ele>73.0</ele><time>2026-05-05T05:53:41.606Z</time></trkpt><trkpt lat="43.5110402" lon="16.4822117"><ele>72.6</ele><time>2026-05-05T05:53:42.606Z</time></trkpt><trkpt lat="43.5110756" lon="16.4823309"><ele>72.19999999999999</ele><time>2026-05-05T05:53:43.606Z</time></trkpt><trkpt lat="43.5111156" lon="16.48246"><ele>71.8</ele><time>2026-05-05T05:53:44.605Z</time></trkpt><trkpt lat="43.511151" lon="16.4825781"><ele>71.39999999999999</ele><time>2026-05-05T05:53:45.605Z</time></trkpt><trkpt lat="43.511186" lon="16.4826935"><ele>71.0</ele><time>2026-05-05T05:53:46.606Z</time></trkpt><trkpt lat="43.5112211" lon="16.4828103"><ele>71.16666666666667</ele><time>2026-05-05T05:53:47.606Z</time></trkpt><trkpt lat="43.5112577" lon="16.482926"><ele>71.33333333333334</ele><time>2026-05-05T05:53:48.606Z</time></trkpt><trkpt lat="43.5112919" lon="16.4830381"><ele>71.5</ele><time>2026-05-05T05:53:49.605Z</time></trkpt><trkpt lat="43.5113252" lon="16.4831403"><ele>71.66666666666667</ele><time>2026-05-05T05:53:50.606Z</time></trkpt><trkpt lat="43.5113545" lon="16.4832286"><ele>71.83333333333333</ele><time>2026-05-05T05:53:51.606Z</time></trkpt><trkpt lat="43.5113831" lon="16.4833088"><ele>72.0</ele><time>2026-05-05T05:53:52.606Z</time></trkpt><trkpt lat="43.5114288" lon="16.4834377"><ele>72.0</ele><time>2026-05-05T05:53:54.605Z</time></trkpt><trkpt lat="43.511465" lon="16.4835297"><ele>72.0</ele><time>2026-05-05T05:53:56.606Z</time></trkpt><trkpt lat="43.5114945" lon="16.4836289"><ele>72.0</ele><time>2026-05-05T05:54:10.606Z</time></trkpt><trkpt lat="43.5115439" lon="16.4837486"><ele>72.0</ele><time>2026-05-05T05:54:13.605Z</time></trkpt><trkpt lat="43.51157" lon="16.483888"><ele>72.0</ele><time>2026-05-05T05:54:15.606Z</time></trkpt><trkpt lat="43.5115963" lon="16.4840447"><ele>72.16666666666667</ele><time>2026-05-05T05:54:17.606Z</time></trkpt><trkpt lat="43.5116495" lon="16.4842019"><ele>72.33333333333333</ele><time>2026-05-05T05:54:19.605Z</time></trkpt><trkpt lat="43.5116892" lon="16.4842873"><ele>72.5</ele><time>2026-05-05T05:54:20.605Z</time></trkpt><trkpt lat="43.5117288" lon="16.484371"><ele>72.66666666666666</ele><time>2026-05-05T05:54:21.606Z</time></trkpt><trkpt lat="43.5117651" lon="16.4844527"><ele>72.83333333333333</ele><time>2026-05-05T05:54:22.605Z</time></trkpt><trkpt lat="43.5118045" lon="16.4845346"><ele>73.0</ele><time>2026-05-05T05:54:23.606Z</time></trkpt><trkpt lat="43.51184" lon="16.4846116"><ele>73.0</ele><time>2026-05-05T05:54:24.606Z</time></trkpt><trkpt lat="43.5118735" lon="16.4846905"><ele>73.0</ele><time>2026-05-05T05:54:25.606Z</time></trkpt><trkpt lat="43.5119422" lon="16.4848181"><ele>73.0</ele><time>2026-05-05T05:54:27.605Z</time></trkpt><trkpt lat="43.5120577" lon="16.4848578"><ele>73.0</ele><time>2026-05-05T05:54:29.605Z</time></trkpt><trkpt lat="43.5121223" lon="16.4848355"><ele>73.0</ele><time>2026-05-05T05:54:30.605Z</time></trkpt><trkpt lat="43.5121869" lon="16.4847992"><ele>73.0</ele><time>2026-05-05T05:54:31.605Z</time></trkpt><trkpt lat="43.5122749" lon="16.4847779"><ele>73.0</ele><time>2026-05-05T05:54:33.606Z</time></trkpt><trkpt lat="43.5123526" lon="16.4847132"><ele>73.0</ele><time>2026-05-05T05:54:35.605Z</time></trkpt><trkpt lat="43.5124235" lon="16.4846826"><ele>73.0</ele><time>2026-05-05T05:54:37.605Z</time></trkpt><trkpt lat="43.5124777" lon="16.4846297"><ele>73.0</ele><time>2026-05-05T05:54:39.605Z</time></trkpt><trkpt lat="43.512554" lon="16.4845701"><ele>73.0</ele><time>2026-05-05T05:54:41.605Z</time></trkpt><trkpt lat="43.5126496" lon="16.4844717"><ele>73.0</ele><time>2026-05-05T05:54:43.605Z</time></trkpt><trkpt lat="43.5127014" lon="16.4844202"><ele>72.8</ele><time>2026-05-05T05:54:44.606Z</time></trkpt><trkpt lat="43.5128046" lon="16.4844307"><ele>72.6</ele><time>2026-05-05T05:54:45.605Z</time></trkpt><trkpt lat="43.5128726" lon="16.4843593"><ele>72.4</ele><time>2026-05-05T05:54:46.605Z</time></trkpt><trkpt lat="43.512961" lon="16.4842734"><ele>72.2</ele><time>2026-05-05T05:54:47.606Z</time></trkpt><trkpt lat="43.5130361" lon="16.4841927"><ele>72.0</ele><time>2026-05-05T05:54:48.606Z</time></trkpt><trkpt lat="43.5131036" lon="16.4841464"><ele>71.6</ele><time>2026-05-05T05:54:49.606Z</time></trkpt><trkpt lat="43.5131786" lon="16.4840643"><ele>71.2</ele><time>2026-05-05T05:54:50.605Z</time></trkpt><trkpt lat="43.5132566" lon="16.4839811"><ele>70.8</ele><time>2026-05-05T05:54:51.605Z</time></trkpt><trkpt lat="43.5133393" lon="16.4838954"><ele>70.4</ele><time>2026-05-05T05:54:52.606Z</time></trkpt><trkpt lat="43.5134153" lon="16.4838254"><ele>70.0</ele><time>2026-05-05T05:54:53.605Z</time></trkpt><trkpt lat="43.5134888" lon="16.483751"><ele>70.0</ele><time>2026-05-05T05:54:54.605Z</time></trkpt><trkpt lat="43.5135669" lon="16.4836813"><ele>70.0</ele><time>2026-05-05T05:54:55.605Z</time></trkpt><trkpt lat="43.513647" lon="16.4836161"><ele>70.0</ele><time>2026-05-05T05:54:56.606Z</time></trkpt><trkpt lat="43.5137256" lon="16.4835502"><ele>70.0</ele><time>2026-05-05T05:54:57.605Z</time></trkpt><trkpt lat="43.5138108" lon="16.4834608"><ele>70.0</ele><time>2026-05-05T05:54:58.605Z</time></trkpt><trkpt lat="43.5138853" lon="16.4833982"><ele>68.5</ele><time>2026-05-05T05:54:59.606Z</time></trkpt><trkpt lat="43.5139763" lon="16.4833076"><ele>67.0</ele><time>2026-05-05T05:55:00.606Z</time></trkpt><trkpt lat="43.5140799" lon="16.4832074"><ele>65.5</ele><time>2026-05-05T05:55:01.606Z</time></trkpt><trkpt lat="43.5141817" lon="16.4830923"><ele>64.0</ele><time>2026-05-05T05:55:02.606Z</time></trkpt><trkpt lat="43.5142842" lon="16.4830001"><ele>64.75</ele><time>2026-05-05T05:55:03.606Z</time></trkpt><trkpt lat="43.5143876" lon="16.4828994"><ele>65.5</ele><time>2026-05-05T05:55:04.606Z</time></trkpt><trkpt lat="43.5144936" lon="16.4828064"><ele>66.25</ele><time>2026-05-05T05:55:05.605Z</time></trkpt><trkpt lat="43.5146065" lon="16.482705"><ele>67.0</ele><time>2026-05-05T05:55:06.605Z</time></trkpt><trkpt lat="43.5147273" lon="16.4825895"><ele>63.666666666666664</ele><time>2026-05-05T05:55:07.605Z</time></trkpt><trkpt lat="43.5148482" lon="16.4824659"><ele>60.33333333333333</ele><time>2026-05-05T05:55:08.606Z</time></trkpt><trkpt lat="43.514979" lon="16.4823275"><ele>57.0</ele><time>2026-05-05T05:55:09.606Z</time></trkpt><trkpt lat="43.5151083" lon="16.4821997"><ele>57.66666666666667</ele><time>2026-05-05T05:55:10.605Z</time></trkpt><trkpt lat="43.5152487" lon="16.4820641"><ele>58.333333333333336</ele><time>2026-05-05T05:55:11.606Z</time></trkpt><trkpt lat="43.515395" lon="16.4819339"><ele>59.0</ele><time>2026-05-05T05:55:12.605Z</time></trkpt><trkpt lat="43.5155406" lon="16.481805"><ele>57.66666666666667</ele><time>2026-05-05T05:55:13.606Z</time></trkpt><trkpt lat="43.5156886" lon="16.4816778"><ele>56.33333333333333</ele><time>2026-05-05T05:55:14.606Z</time></trkpt><trkpt lat="43.5158409" lon="16.4815653"><ele>55.0</ele><time>2026-05-05T05:55:15.605Z</time></trkpt><trkpt lat="43.5159958" lon="16.4814591"><ele>55.0</ele><time>2026-05-05T05:55:16.606Z</time></trkpt><trkpt lat="43.5161619" lon="16.4813659"><ele>55.0</ele><time>2026-05-05T05:55:17.605Z</time></trkpt><trkpt lat="43.5163258" lon="16.4812904"><ele>55.0</ele><time>2026-05-05T05:55:18.605Z</time></trkpt><trkpt lat="43.516488" lon="16.4812174"><ele>52.666666666666664</ele><time>2026-05-05T05:55:19.606Z</time></trkpt><trkpt lat="43.516658" lon="16.4811531"><ele>50.33333333333333</ele><time>2026-05-05T05:55:20.605Z</time></trkpt><trkpt lat="43.5168477" lon="16.4811015"><ele>48.0</ele><time>2026-05-05T05:55:21.606Z</time></trkpt><trkpt lat="43.5170463" lon="16.4810566"><ele>45.666666666666664</ele><time>2026-05-05T05:55:22.606Z</time></trkpt><trkpt lat="43.5172453" lon="16.4810242"><ele>43.33333333333333</ele><time>2026-05-05T05:55:23.606Z</time></trkpt><trkpt lat="43.5174343" lon="16.4810124"><ele>41.0</ele><time>2026-05-05T05:55:24.605Z</time></trkpt><trkpt lat="43.5176117" lon="16.4810134"><ele>41.0</ele><time>2026-05-05T05:55:25.606Z</time></trkpt><trkpt lat="43.5177899" lon="16.4810286"><ele>41.0</ele><time>2026-05-05T05:55:26.606Z</time></trkpt><trkpt lat="43.5179718" lon="16.4810587"><ele>41.0</ele><time>2026-05-05T05:55:27.605Z</time></trkpt><trkpt lat="43.5181486" lon="16.4811002"><ele>39.33333333333333</ele><time>2026-05-05T05:55:28.606Z</time></trkpt><trkpt lat="43.5183249" lon="16.4811557"><ele>37.666666666666664</ele><time>2026-05-05T05:55:29.605Z</time></trkpt><trkpt lat="43.5184985" lon="16.4812245"><ele>36.0</ele><time>2026-05-05T05:55:30.605Z</time></trkpt><trkpt lat="43.518671" lon="16.481307"><ele>34.333333333333336</ele><time>2026-05-05T05:55:31.606Z</time></trkpt><trkpt lat="43.5188434" lon="16.4814047"><ele>32.66666666666667</ele><time>2026-05-05T05:55:32.606Z</time></trkpt><trkpt lat="43.5190073" lon="16.4815137"><ele>31.0</ele><time>2026-05-05T05:55:33.605Z</time></trkpt><trkpt lat="43.5191728" lon="16.4816357"><ele>31.0</ele><time>2026-05-05T05:55:34.605Z</time></trkpt><trkpt lat="43.5193318" lon="16.4817636"><ele>31.0</ele><time>2026-05-05T05:55:35.606Z</time></trkpt><trkpt lat="43.5194846" lon="16.4819038"><ele>31.0</ele><time>2026-05-05T05:55:36.606Z</time></trkpt><trkpt lat="43.5196273" lon="16.4820456"><ele>30.666666666666668</ele><time>2026-05-05T05:55:37.605Z</time></trkpt><trkpt lat="43.519765" lon="16.4821913"><ele>30.333333333333336</ele><time>2026-05-05T05:55:38.606Z</time></trkpt><trkpt lat="43.5198967" lon="16.4823411"><ele>30.0</ele><time>2026-05-05T05:55:39.606Z</time></trkpt><trkpt lat="43.5200304" lon="16.4825019"><ele>30.0</ele><time>2026-05-05T05:55:40.605Z</time></trkpt><trkpt lat="43.5201605" lon="16.4826584"><ele>30.0</ele><time>2026-05-05T05:55:41.606Z</time></trkpt><trkpt lat="43.520291" lon="16.482816"><ele>30.0</ele><time>2026-05-05T05:55:42.605Z</time></trkpt><trkpt lat="43.5204243" lon="16.4829715"><ele>28.666666666666664</ele><time>2026-05-05T05:55:43.605Z</time></trkpt><trkpt lat="43.5205464" lon="16.4831418"><ele>27.333333333333332</ele><time>2026-05-05T05:55:44.606Z</time></trkpt><trkpt lat="43.5206656" lon="16.4832993"><ele>26.0</ele><time>2026-05-05T05:55:45.605Z</time></trkpt><trkpt lat="43.5207715" lon="16.4834473"><ele>26.0</ele><time>2026-05-05T05:55:46.606Z</time></trkpt><trkpt lat="43.5208689" lon="16.4835804"><ele>26.0</ele><time>2026-05-05T05:55:47.606Z</time></trkpt><trkpt lat="43.5209584" lon="16.4837012"><ele>26.0</ele><time>2026-05-05T05:55:48.605Z</time></trkpt><trkpt lat="43.5210444" lon="16.4838264"><ele>26.0</ele><time>2026-05-05T05:55:49.605Z</time></trkpt><trkpt lat="43.5211304" lon="16.4839438"><ele>25.75</ele><time>2026-05-05T05:55:50.606Z</time></trkpt><trkpt lat="43.5212224" lon="16.4840674"><ele>25.5</ele><time>2026-05-05T05:55:51.605Z</time></trkpt><trkpt lat="43.5213214" lon="16.4841943"><ele>25.25</ele><time>2026-05-05T05:55:52.606Z</time></trkpt><trkpt lat="43.5214224" lon="16.4843281"><ele>25.0</ele><time>2026-05-05T05:55:53.606Z</time></trkpt><trkpt lat="43.521522" lon="16.4844713"><ele>25.25</ele><time>2026-05-05T05:55:54.606Z</time></trkpt><trkpt lat="43.5216227" lon="16.4846223"><ele>25.5</ele><time>2026-05-05T05:55:55.606Z</time></trkpt><trkpt lat="43.5217257" lon="16.4847703"><ele>25.75</ele><time>2026-05-05T05:55:56.606Z</time></trkpt><trkpt lat="43.5218326" lon="16.4849172"><ele>26.0</ele><time>2026-05-05T05:55:57.606Z</time></trkpt><trkpt lat="43.5219425" lon="16.4850606"><ele>26.0</ele><time>2026-05-05T05:55:58.606Z</time></trkpt><trkpt lat="43.5220511" lon="16.4852012"><ele>26.0</ele><time>2026-05-05T05:55:59.605Z</time></trkpt><trkpt lat="43.5221582" lon="16.4853403"><ele>26.0</ele><time>2026-05-05T05:56:00.606Z</time></trkpt><trkpt lat="43.5222645" lon="16.4854818"><ele>26.0</ele><time>2026-05-05T05:56:01.605Z</time></trkpt><trkpt lat="43.5223692" lon="16.4856191"><ele>25.5</ele><time>2026-05-05T05:56:02.606Z</time></trkpt><trkpt lat="43.5224769" lon="16.4857584"><ele>25.0</ele><time>2026-05-05T05:56:03.606Z</time></trkpt><trkpt lat="43.5225826" lon="16.4859005"><ele>24.5</ele><time>2026-05-05T05:56:04.605Z</time></trkpt><trkpt lat="43.5226848" lon="16.4860497"><ele>24.0</ele><time>2026-05-05T05:56:05.605Z</time></trkpt><trkpt lat="43.5227933" lon="16.4861866"><ele>23.25</ele><time>2026-05-05T05:56:06.606Z</time></trkpt><trkpt lat="43.522896" lon="16.4863251"><ele>22.5</ele><time>2026-05-05T05:56:07.606Z</time></trkpt><trkpt lat="43.5229983" lon="16.4864615"><ele>21.75</ele><time>2026-05-05T05:56:08.605Z</time></trkpt><trkpt lat="43.523095" lon="16.4865937"><ele>21.0</ele><time>2026-05-05T05:56:09.605Z</time></trkpt><trkpt lat="43.5231939" lon="16.486726"><ele>21.0</ele><time>2026-05-05T05:56:10.606Z</time></trkpt><trkpt lat="43.5232927" lon="16.4868681"><ele>21.0</ele><time>2026-05-05T05:56:11.605Z</time></trkpt><trkpt lat="43.5233968" lon="16.4870067"><ele>21.0</ele><time>2026-05-05T05:56:12.605Z</time></trkpt><trkpt lat="43.5235014" lon="16.4871451"><ele>21.0</ele><time>2026-05-05T05:56:13.605Z</time></trkpt><trkpt lat="43.5236141" lon="16.4872887"><ele>22.333333333333336</ele><time>2026-05-05T05:56:14.606Z</time></trkpt><trkpt lat="43.5237241" lon="16.487434"><ele>23.666666666666668</ele><time>2026-05-05T05:56:15.606Z</time></trkpt><trkpt lat="43.5238341" lon="16.4875841"><ele>25.0</ele><time>2026-05-05T05:56:16.605Z</time></trkpt><trkpt lat="43.5239478" lon="16.4877299"><ele>23.25</ele><time>2026-05-05T05:56:17.606Z</time></trkpt><trkpt lat="43.5240596" lon="16.4878727"><ele>21.5</ele><time>2026-05-05T05:56:18.606Z</time></trkpt><trkpt lat="43.5241678" lon="16.4880121"><ele>19.75</ele><time>2026-05-05T05:56:19.606Z</time></trkpt><trkpt lat="43.5242747" lon="16.4881511"><ele>18.0</ele><time>2026-05-05T05:56:20.605Z</time></trkpt><trkpt lat="43.5243805" lon="16.4882861"><ele>18.0</ele><time>2026-05-05T05:56:21.606Z</time></trkpt><trkpt lat="43.5244841" lon="16.4884175"><ele>18.0</ele><time>2026-05-05T05:56:22.606Z</time></trkpt><trkpt lat="43.5245916" lon="16.4885492"><ele>18.0</ele><time>2026-05-05T05:56:23.606Z</time></trkpt><trkpt lat="43.5246957" lon="16.4886869"><ele>18.0</ele><time>2026-05-05T05:56:24.605Z</time></trkpt><trkpt lat="43.524798" lon="16.4888228"><ele>18.0</ele><time>2026-05-05T05:56:25.606Z</time></trkpt><trkpt lat="43.5249027" lon="16.4889638"><ele>18.0</ele><time>2026-05-05T05:56:26.606Z</time></trkpt><trkpt lat="43.5250013" lon="16.4891018"><ele>18.0</ele><time>2026-05-05T05:56:27.606Z</time></trkpt><trkpt lat="43.5251033" lon="16.489244"><ele>18.0</ele><time>2026-05-05T05:56:28.605Z</time></trkpt><trkpt lat="43.5252029" lon="16.4893888"><ele>18.0</ele><time>2026-05-05T05:56:29.606Z</time></trkpt><trkpt lat="43.5252995" lon="16.4895349"><ele>18.0</ele><time>2026-05-05T05:56:30.606Z</time></trkpt><trkpt lat="43.5253977" lon="16.4896844"><ele>18.0</ele><time>2026-05-05T05:56:31.606Z</time></trkpt><trkpt lat="43.5254962" lon="16.4898294"><ele>18.0</ele><time>2026-05-05T05:56:32.605Z</time></trkpt><trkpt lat="43.5255953" lon="16.4899729"><ele>18.0</ele><time>2026-05-05T05:56:33.606Z</time></trkpt><trkpt lat="43.525704" lon="16.4900998"><ele>18.0</ele><time>2026-05-05T05:56:34.605Z</time></trkpt><trkpt lat="43.5258143" lon="16.4902168"><ele>18.0</ele><time>2026-05-05T05:56:35.606Z</time></trkpt><trkpt lat="43.5259102" lon="16.4903376"><ele>18.0</ele><time>2026-05-05T05:56:36.606Z</time></trkpt><trkpt lat="43.5260122" lon="16.490448"><ele>18.0</ele><time>2026-05-05T05:56:37.605Z</time></trkpt><trkpt lat="43.5261132" lon="16.4905399"><ele>18.0</ele><time>2026-05-05T05:56:38.606Z</time></trkpt><trkpt lat="43.5262133" lon="16.4906139"><ele>18.0</ele><time>2026-05-05T05:56:39.605Z</time></trkpt><trkpt lat="43.5263146" lon="16.4906742"><ele>18.0</ele><time>2026-05-05T05:56:40.606Z</time></trkpt><trkpt lat="43.5264135" lon="16.4907333"><ele>18.0</ele><time>2026-05-05T05:56:41.606Z</time></trkpt><trkpt lat="43.5265083" lon="16.4907898"><ele>18.0</ele><time>2026-05-05T05:56:42.606Z</time></trkpt><trkpt lat="43.5265993" lon="16.4908505"><ele>18.0</ele><time>2026-05-05T05:56:43.605Z</time></trkpt><trkpt lat="43.5266808" lon="16.4909151"><ele>18.0</ele><time>2026-05-05T05:56:44.606Z</time></trkpt><trkpt lat="43.5267412" lon="16.4909908"><ele>18.0</ele><time>2026-05-05T05:56:45.605Z</time></trkpt><trkpt lat="43.526785" lon="16.4910816"><ele>18.0</ele><time>2026-05-05T05:56:46.606Z</time></trkpt><trkpt lat="43.5268128" lon="16.4911821"><ele>18.0</ele><time>2026-05-05T05:56:47.606Z</time></trkpt><trkpt lat="43.5268304" lon="16.4912945"><ele>18.0</ele><time>2026-05-05T05:56:48.606Z</time></trkpt><trkpt lat="43.5268482" lon="16.4914086"><ele>18.0</ele><time>2026-05-05T05:56:49.606Z</time></trkpt><trkpt lat="43.5268885" lon="16.4915327"><ele>18.0</ele><time>2026-05-05T05:56:50.605Z</time></trkpt><trkpt lat="43.526935" lon="16.4916666"><ele>18.4</ele><time>2026-05-05T05:56:51.606Z</time></trkpt><trkpt lat="43.526996" lon="16.4917884"><ele>18.8</ele><time>2026-05-05T05:56:52.605Z</time></trkpt><trkpt lat="43.5270684" lon="16.491907"><ele>19.2</ele><time>2026-05-05T05:56:53.606Z</time></trkpt><trkpt lat="43.5271436" lon="16.4920096"><ele>19.6</ele><time>2026-05-05T05:56:54.605Z</time></trkpt><trkpt lat="43.5272253" lon="16.4921147"><ele>20.0</ele><time>2026-05-05T05:56:55.605Z</time></trkpt><trkpt lat="43.5273224" lon="16.4921908"><ele>21.0</ele><time>2026-05-05T05:56:56.606Z</time></trkpt><trkpt lat="43.5274247" lon="16.4922572"><ele>22.0</ele><time>2026-05-05T05:56:57.605Z</time></trkpt><trkpt lat="43.5275398" lon="16.4923023"><ele>23.0</ele><time>2026-05-05T05:56:58.605Z</time></trkpt><trkpt lat="43.5276563" lon="16.4923273"><ele>24.0</ele><time>2026-05-05T05:56:59.605Z</time></trkpt><trkpt lat="43.5277741" lon="16.4923274"><ele>24.0</ele><time>2026-05-05T05:57:00.606Z</time></trkpt><trkpt lat="43.5278821" lon="16.4923207"><ele>24.0</ele><time>2026-05-05T05:57:01.606Z</time></trkpt><trkpt lat="43.5279856" lon="16.4923009"><ele>24.0</ele><time>2026-05-05T05:57:02.606Z</time></trkpt><trkpt lat="43.528085" lon="16.492269"><ele>24.0</ele><time>2026-05-05T05:57:03.605Z</time></trkpt><trkpt lat="43.5281756" lon="16.4922368"><ele>24.0</ele><time>2026-05-05T05:57:04.605Z</time></trkpt><trkpt lat="43.5282581" lon="16.4922219"><ele>23.0</ele><time>2026-05-05T05:57:05.606Z</time></trkpt><trkpt lat="43.5283491" lon="16.4922285"><ele>22.0</ele><time>2026-05-05T05:57:06.606Z</time></trkpt><trkpt lat="43.5284245" lon="16.4922791"><ele>21.0</ele><time>2026-05-05T05:57:07.606Z</time></trkpt><trkpt lat="43.5284794" lon="16.4923711"><ele>20.0</ele><time>2026-05-05T05:57:08.605Z</time></trkpt><trkpt lat="43.5285203" lon="16.4924766"><ele>19.0</ele><time>2026-05-05T05:57:09.606Z</time></trkpt><trkpt lat="43.528538" lon="16.4926114"><ele>18.0</ele><time>2026-05-05T05:57:10.606Z</time></trkpt><trkpt lat="43.5285387" lon="16.4927553"><ele>18.0</ele><time>2026-05-05T05:57:11.605Z</time></trkpt><trkpt lat="43.5285258" lon="16.4928999"><ele>18.0</ele><time>2026-05-05T05:57:12.606Z</time></trkpt><trkpt lat="43.5285015" lon="16.4930467"><ele>18.0</ele><time>2026-05-05T05:57:13.605Z</time></trkpt><trkpt lat="43.5284755" lon="16.4931957"><ele>18.0</ele><time>2026-05-05T05:57:14.606Z</time></trkpt><trkpt lat="43.5284375" lon="16.4933456"><ele>18.0</ele><time>2026-05-05T05:57:15.606Z</time></trkpt><trkpt lat="43.5283923" lon="16.493502"><ele>18.75</ele><time>2026-05-05T05:57:16.605Z</time></trkpt><trkpt lat="43.528347" lon="16.493658"><ele>19.5</ele><time>2026-05-05T05:57:17.605Z</time></trkpt><trkpt lat="43.5282968" lon="16.4938253"><ele>20.25</ele><time>2026-05-05T05:57:18.606Z</time></trkpt><trkpt lat="43.5282404" lon="16.4940174"><ele>21.0</ele><time>2026-05-05T05:57:19.605Z</time></trkpt><trkpt lat="43.5281768" lon="16.4942254"><ele>22.0</ele><time>2026-05-05T05:57:20.605Z</time></trkpt><trkpt lat="43.5281032" lon="16.494446"><ele>23.0</ele><time>2026-05-05T05:57:21.606Z</time></trkpt><trkpt lat="43.5280497" lon="16.4946774"><ele>24.0</ele><time>2026-05-05T05:57:22.605Z</time></trkpt><trkpt lat="43.5279972" lon="16.4949176"><ele>24.333333333333336</ele><time>2026-05-05T05:57:23.606Z</time></trkpt><trkpt lat="43.527942" lon="16.4951496"><ele>24.666666666666668</ele><time>2026-05-05T05:57:24.606Z</time></trkpt><trkpt lat="43.5278961" lon="16.4954169"><ele>25.0</ele><time>2026-05-05T05:57:25.605Z</time></trkpt><trkpt lat="43.527856" lon="16.4956868"><ele>26.333333333333336</ele><time>2026-05-05T05:57:26.606Z</time></trkpt><trkpt lat="43.5278275" lon="16.4959719"><ele>27.666666666666664</ele><time>2026-05-05T05:57:27.606Z</time></trkpt><trkpt lat="43.5278059" lon="16.4962539"><ele>29.0</ele><time>2026-05-05T05:57:28.606Z</time></trkpt><trkpt lat="43.5277905" lon="16.496534"><ele>29.666666666666664</ele><time>2026-05-05T05:57:29.605Z</time></trkpt><trkpt lat="43.5277782" lon="16.4968158"><ele>30.333333333333336</ele><time>2026-05-05T05:57:30.606Z</time></trkpt><trkpt lat="43.5277689" lon="16.4971072"><ele>31.0</ele><time>2026-05-05T05:57:31.606Z</time></trkpt><trkpt lat="43.5277639" lon="16.4974126"><ele>31.666666666666668</ele><time>2026-05-05T05:57:32.605Z</time></trkpt><trkpt lat="43.5277597" lon="16.4977151"><ele>32.333333333333336</ele><time>2026-05-05T05:57:33.605Z</time></trkpt><trkpt lat="43.527757" lon="16.4980295"><ele>33.0</ele><time>2026-05-05T05:57:34.605Z</time></trkpt><trkpt lat="43.5277604" lon="16.4983449"><ele>33.0</ele><time>2026-05-05T05:57:35.605Z</time></trkpt><trkpt lat="43.5277739" lon="16.4986704"><ele>33.0</ele><time>2026-05-05T05:57:36.606Z</time></trkpt><trkpt lat="43.5277907" lon="16.4989952"><ele>33.5</ele><time>2026-05-05T05:57:37.606Z</time></trkpt><trkpt lat="43.5278111" lon="16.4993142"><ele>34.0</ele><time>2026-05-05T05:57:38.606Z</time></trkpt><trkpt lat="43.5278309" lon="16.4996284"><ele>36.0</ele><time>2026-05-05T05:57:39.606Z</time></trkpt><trkpt lat="43.527854" lon="16.4999391"><ele>38.0</ele><time>2026-05-05T05:57:40.606Z</time></trkpt><trkpt lat="43.5278823" lon="16.5002492"><ele>40.0</ele><time>2026-05-05T05:57:41.606Z</time></trkpt><trkpt lat="43.5279144" lon="16.5005637"><ele>42.0</ele><time>2026-05-05T05:57:42.606Z</time></trkpt><trkpt lat="43.5279498" lon="16.5008799"><ele>42.0</ele><time>2026-05-05T05:57:43.605Z</time></trkpt><trkpt lat="43.5279922" lon="16.501204"><ele>42.0</ele><time>2026-05-05T05:57:44.606Z</time></trkpt><trkpt lat="43.5280379" lon="16.5015236"><ele>42.0</ele><time>2026-05-05T05:57:45.605Z</time></trkpt><trkpt lat="43.528079" lon="16.5018413"><ele>42.0</ele><time>2026-05-05T05:57:46.606Z</time></trkpt><trkpt lat="43.528113" lon="16.5021583"><ele>42.0</ele><time>2026-05-05T05:57:47.605Z</time></trkpt><trkpt lat="43.5281615" lon="16.50249"><ele>42.0</ele><time>2026-05-05T05:57:48.606Z</time></trkpt><trkpt lat="43.5282102" lon="16.5028045"><ele>43.5</ele><time>2026-05-05T05:57:49.606Z</time></trkpt><trkpt lat="43.5282575" lon="16.50312"><ele>45.0</ele><time>2026-05-05T05:57:50.606Z</time></trkpt><trkpt lat="43.5283045" lon="16.503434"><ele>47.0</ele><time>2026-05-05T05:57:51.606Z</time></trkpt><trkpt lat="43.5283533" lon="16.5037469"><ele>49.0</ele><time>2026-05-05T05:57:52.605Z</time></trkpt><trkpt lat="43.5284047" lon="16.5040577"><ele>49.0</ele><time>2026-05-05T05:57:53.605Z</time></trkpt><trkpt lat="43.528457" lon="16.5043697"><ele>49.0</ele><time>2026-05-05T05:57:54.605Z</time></trkpt><trkpt lat="43.5285088" lon="16.5046847"><ele>52.0</ele><time>2026-05-05T05:57:55.606Z</time></trkpt><trkpt lat="43.5285586" lon="16.5049966"><ele>55.0</ele><time>2026-05-05T05:57:56.606Z</time></trkpt><trkpt lat="43.5286094" lon="16.5053101"><ele>56.0</ele><time>2026-05-05T05:57:57.606Z</time></trkpt><trkpt lat="43.5286574" lon="16.5056263"><ele>57.0</ele><time>2026-05-05T05:57:58.606Z</time></trkpt><trkpt lat="43.5287067" lon="16.5059357"><ele>56.5</ele><time>2026-05-05T05:57:59.605Z</time></trkpt><trkpt lat="43.5287525" lon="16.5062406"><ele>56.0</ele><time>2026-05-05T05:58:00.606Z</time></trkpt><trkpt lat="43.5288041" lon="16.5065416"><ele>57.333333333333336</ele><time>2026-05-05T05:58:01.606Z</time></trkpt><trkpt lat="43.5288519" lon="16.5068407"><ele>58.66666666666667</ele><time>2026-05-05T05:58:02.605Z</time></trkpt><trkpt lat="43.5288974" lon="16.5071448"><ele>60.0</ele><time>2026-05-05T05:58:03.606Z</time></trkpt><trkpt lat="43.5289371" lon="16.5074528"><ele>60.0</ele><time>2026-05-05T05:58:04.606Z</time></trkpt><trkpt lat="43.528976" lon="16.5077751"><ele>60.0</ele><time>2026-05-05T05:58:05.606Z</time></trkpt><trkpt lat="43.5290301" lon="16.5080834"><ele>60.5</ele><time>2026-05-05T05:58:06.606Z</time></trkpt><trkpt lat="43.5290892" lon="16.5083934"><ele>61.0</ele><time>2026-05-05T05:58:07.606Z</time></trkpt><trkpt lat="43.5291584" lon="16.5086939"><ele>62.0</ele><time>2026-05-05T05:58:08.605Z</time></trkpt><trkpt lat="43.5292336" lon="16.5089886"><ele>63.0</ele><time>2026-05-05T05:58:09.606Z</time></trkpt><trkpt lat="43.5293185" lon="16.5092796"><ele>63.0</ele><time>2026-05-05T05:58:10.605Z</time></trkpt><trkpt lat="43.52942" lon="16.5095558"><ele>63.0</ele><time>2026-05-05T05:58:11.605Z</time></trkpt><trkpt lat="43.5295413" lon="16.5098223"><ele>64.5</ele><time>2026-05-05T05:58:12.606Z</time></trkpt><trkpt lat="43.5296692" lon="16.5100871"><ele>66.0</ele><time>2026-05-05T05:58:13.606Z</time></trkpt><trkpt lat="43.5298167" lon="16.5103306"><ele>68.5</ele><time>2026-05-05T05:58:14.606Z</time></trkpt><trkpt lat="43.5299739" lon="16.5105606"><ele>71.0</ele><time>2026-05-05T05:58:15.605Z</time></trkpt><trkpt lat="43.5301413" lon="16.5107721"><ele>71.0</ele><time>2026-05-05T05:58:16.605Z</time></trkpt><trkpt lat="43.5303083" lon="16.5109604"><ele>71.0</ele><time>2026-05-05T05:58:17.606Z</time></trkpt><trkpt lat="43.5304772" lon="16.5111261"><ele>71.0</ele><time>2026-05-05T05:58:18.606Z</time></trkpt><trkpt lat="43.5306484" lon="16.5112695"><ele>72.33333333333334</ele><time>2026-05-05T05:58:19.606Z</time></trkpt><trkpt lat="43.5308216" lon="16.5113882"><ele>73.66666666666667</ele><time>2026-05-05T05:58:20.606Z</time></trkpt><trkpt lat="43.5309958" lon="16.5114899"><ele>75.0</ele><time>2026-05-05T05:58:21.606Z</time></trkpt><trkpt lat="43.5311741" lon="16.5115776"><ele>75.0</ele><time>2026-05-05T05:58:22.606Z</time></trkpt><trkpt lat="43.5313564" lon="16.5116531"><ele>75.0</ele><time>2026-05-05T05:58:23.605Z</time></trkpt><trkpt lat="43.5315395" lon="16.5117137"><ele>75.0</ele><time>2026-05-05T05:58:24.606Z</time></trkpt><trkpt lat="43.5317253" lon="16.5117609"><ele>75.0</ele><time>2026-05-05T05:58:25.606Z</time></trkpt><trkpt lat="43.5319087" lon="16.5117942"><ele>75.0</ele><time>2026-05-05T05:58:26.605Z</time></trkpt><trkpt lat="43.5320908" lon="16.5118159"><ele>75.0</ele><time>2026-05-05T05:58:27.605Z</time></trkpt><trkpt lat="43.5322703" lon="16.5118393"><ele>76.66666666666667</ele><time>2026-05-05T05:58:28.606Z</time></trkpt><trkpt lat="43.5324364" lon="16.5118578"><ele>78.33333333333334</ele><time>2026-05-05T05:58:29.605Z</time></trkpt><trkpt lat="43.5326039" lon="16.5118839"><ele>80.0</ele><time>2026-05-05T05:58:30.605Z</time></trkpt><trkpt lat="43.5327716" lon="16.5119115"><ele>80.66666666666667</ele><time>2026-05-05T05:58:31.606Z</time></trkpt><trkpt lat="43.5329412" lon="16.5119318"><ele>81.33333333333333</ele><time>2026-05-05T05:58:32.605Z</time></trkpt><trkpt lat="43.5330986" lon="16.5119606"><ele>82.0</ele><time>2026-05-05T05:58:33.605Z</time></trkpt><trkpt lat="43.5332574" lon="16.5119783"><ele>82.0</ele><time>2026-05-05T05:58:34.605Z</time></trkpt><trkpt lat="43.5334188" lon="16.5119994"><ele>82.0</ele><time>2026-05-05T05:58:35.605Z</time></trkpt><trkpt lat="43.5335815" lon="16.5120248"><ele>82.0</ele><time>2026-05-05T05:58:36.605Z</time></trkpt><trkpt lat="43.5337395" lon="16.5120487"><ele>90.33333333333333</ele><time>2026-05-05T05:58:37.605Z</time></trkpt><trkpt lat="43.5338986" lon="16.5120852"><ele>98.66666666666666</ele><time>2026-05-05T05:58:38.606Z</time></trkpt><trkpt lat="43.5340539" lon="16.5121307"><ele>107.0</ele><time>2026-05-05T05:58:39.605Z</time></trkpt><trkpt lat="43.5342057" lon="16.5121877"><ele>106.0</ele><time>2026-05-05T05:58:40.606Z</time></trkpt><trkpt lat="43.5362498" lon="16.5181387"><ele>106.00000000000001</ele><time>2026-05-05T05:59:12.605Z</time></trkpt><trkpt lat="43.5363007" lon="16.5182685"><ele>106.0</ele><time>2026-05-05T05:59:13.606Z</time></trkpt><trkpt lat="43.5363267" lon="16.5183742"><ele>106.0</ele><time>2026-05-05T05:59:14.606Z</time></trkpt><trkpt lat="43.5363487" lon="16.5184589"><ele>106.0</ele><time>2026-05-05T05:59:15.605Z</time></trkpt><trkpt lat="43.5363756" lon="16.5185379"><ele>106.00000000000001</ele><time>2026-05-05T05:59:16.606Z</time></trkpt><trkpt lat="43.5364244" lon="16.5186793"><ele>106.0</ele><time>2026-05-05T05:59:18.606Z</time></trkpt><trkpt lat="43.5364704" lon="16.5188135"><ele>106.66666666666667</ele><time>2026-05-05T05:59:20.606Z</time></trkpt><trkpt lat="43.5365111" lon="16.5189321"><ele>107.33333333333334</ele><time>2026-05-05T05:59:22.605Z</time></trkpt><trkpt lat="43.5365508" lon="16.5190281"><ele>108.0</ele><time>2026-05-05T05:59:24.606Z</time></trkpt><trkpt lat="43.5365951" lon="16.5191455"><ele>108.66666666666666</ele><time>2026-05-05T05:59:26.606Z</time></trkpt><trkpt lat="43.5366238" lon="16.5192247"><ele>109.33333333333333</ele><time>2026-05-05T05:59:27.605Z</time></trkpt><trkpt lat="43.5366619" lon="16.5193087"><ele>110.0</ele><time>2026-05-05T05:59:28.605Z</time></trkpt><trkpt lat="43.5367091" lon="16.519403"><ele>110.0</ele><time>2026-05-05T05:59:29.605Z</time></trkpt><trkpt lat="43.53676" lon="16.5195018"><ele>110.0</ele><time>2026-05-05T05:59:30.606Z</time></trkpt><trkpt lat="43.5368154" lon="16.519599"><ele>110.0</ele><time>2026-05-05T05:59:31.605Z</time></trkpt><trkpt lat="43.5368721" lon="16.5196913"><ele>110.0</ele><time>2026-05-05T05:59:32.605Z</time></trkpt><trkpt lat="43.5369247" lon="16.5197682"><ele>110.0</ele><time>2026-05-05T05:59:33.605Z</time></trkpt><trkpt lat="43.5370105" lon="16.5198807"><ele>108.6</ele><time>2026-05-05T05:59:35.605Z</time></trkpt><trkpt lat="43.537094" lon="16.5199683"><ele>107.2</ele><time>2026-05-05T05:59:37.606Z</time></trkpt><trkpt lat="43.5371789" lon="16.5200586"><ele>105.80000000000001</ele><time>2026-05-05T05:59:39.606Z</time></trkpt><trkpt lat="43.5372612" lon="16.5201402"><ele>104.4</ele><time>2026-05-05T05:59:41.605Z</time></trkpt><trkpt lat="43.5373162" lon="16.520183"><ele>103.0</ele><time>2026-05-05T05:59:42.606Z</time></trkpt><trkpt lat="43.5373835" lon="16.5202312"><ele>103.00000000000001</ele><time>2026-05-05T05:59:43.605Z</time></trkpt><trkpt lat="43.537457" lon="16.5202811"><ele>103.0</ele><time>2026-05-05T05:59:44.605Z</time></trkpt><trkpt lat="43.5375263" lon="16.5203274"><ele>103.0</ele><time>2026-05-05T05:59:45.606Z</time></trkpt><trkpt lat="43.5375924" lon="16.5203734"><ele>103.0</ele><time>2026-05-05T05:59:46.605Z</time></trkpt><trkpt lat="43.5376555" lon="16.5204156"><ele>103.00000000000001</ele><time>2026-05-05T05:59:47.606Z</time></trkpt><trkpt lat="43.537715" lon="16.5204542"><ele>103.0</ele><time>2026-05-05T05:59:48.606Z</time></trkpt><trkpt lat="43.5378425" lon="16.5205141"><ele>105.83333333333334</ele><time>2026-05-05T05:59:50.606Z</time></trkpt><trkpt lat="43.5379244" lon="16.520547"><ele>108.66666666666667</ele><time>2026-05-05T05:59:51.606Z</time></trkpt><trkpt lat="43.5380134" lon="16.5205845"><ele>111.5</ele><time>2026-05-05T05:59:52.606Z</time></trkpt><trkpt lat="43.5381042" lon="16.5206234"><ele>114.33333333333334</ele><time>2026-05-05T05:59:53.605Z</time></trkpt><trkpt lat="43.5381858" lon="16.520657"><ele>117.16666666666667</ele><time>2026-05-05T05:59:54.606Z</time></trkpt><trkpt lat="43.5382543" lon="16.520683"><ele>120.0</ele><time>2026-05-05T05:59:55.606Z</time></trkpt><trkpt lat="43.5383714" lon="16.5207234"><ele>120.0</ele><time>2026-05-05T05:59:57.605Z</time></trkpt><trkpt lat="43.5384341" lon="16.5207434"><ele>120.0</ele><time>2026-05-05T05:59:58.606Z</time></trkpt><trkpt lat="43.5385042" lon="16.5207651"><ele>120.0</ele><time>2026-05-05T05:59:59.606Z</time></trkpt><trkpt lat="43.5385766" lon="16.5207922"><ele>120.0</ele><time>2026-05-05T06:00:00.605Z</time></trkpt><trkpt lat="43.538649" lon="16.5208213"><ele>120.0</ele><time>2026-05-05T06:00:01.605Z</time></trkpt><trkpt lat="43.5387425" lon="16.5208643"><ele>120.0</ele><time>2026-05-05T06:00:03.606Z</time></trkpt><trkpt lat="43.5388069" lon="16.5209084"><ele>119.2</ele><time>2026-05-05T06:00:07.606Z</time></trkpt><trkpt lat="43.5388744" lon="16.520935"><ele>118.4</ele><time>2026-05-05T06:00:09.605Z</time></trkpt><trkpt lat="43.5389877" lon="16.5209843"><ele>117.6</ele><time>2026-05-05T06:00:11.605Z</time></trkpt><trkpt lat="43.5391125" lon="16.5210541"><ele>116.8</ele><time>2026-05-05T06:00:13.605Z</time></trkpt><trkpt lat="43.5391753" lon="16.5210915"><ele>116.0</ele><time>2026-05-05T06:00:14.605Z</time></trkpt><trkpt lat="43.5392685" lon="16.5211844"><ele>116.19999999999999</ele><time>2026-05-05T06:00:16.605Z</time></trkpt><trkpt lat="43.5393136" lon="16.5212453"><ele>116.39999999999999</ele><time>2026-05-05T06:00:17.605Z</time></trkpt><trkpt lat="43.5393805" lon="16.5213024"><ele>116.6</ele><time>2026-05-05T06:00:18.605Z</time></trkpt><trkpt lat="43.5394632" lon="16.5213645"><ele>116.8</ele><time>2026-05-05T06:00:19.606Z</time></trkpt><trkpt lat="43.5395576" lon="16.5214443"><ele>117.0</ele><time>2026-05-05T06:00:20.605Z</time></trkpt><trkpt lat="43.5396582" lon="16.5215424"><ele>117.0</ele><time>2026-05-05T06:00:21.605Z</time></trkpt><trkpt lat="43.5397495" lon="16.5216436"><ele>117.0</ele><time>2026-05-05T06:00:22.605Z</time></trkpt><trkpt lat="43.5398395" lon="16.5217506"><ele>117.0</ele><time>2026-05-05T06:00:23.606Z</time></trkpt><trkpt lat="43.5399197" lon="16.521856"><ele>117.0</ele><time>2026-05-05T06:00:24.605Z</time></trkpt><trkpt lat="43.5399934" lon="16.5219561"><ele>117.0</ele><time>2026-05-05T06:00:25.605Z</time></trkpt><trkpt lat="43.540054" lon="16.5220476"><ele>117.0</ele><time>2026-05-05T06:00:26.605Z</time></trkpt><trkpt lat="43.5400967" lon="16.5221168"><ele>117.0</ele><time>2026-05-05T06:00:27.605Z</time></trkpt><trkpt lat="43.5401758" lon="16.5222424"><ele>117.0</ele><time>2026-05-05T06:00:29.606Z</time></trkpt><trkpt lat="43.5402297" lon="16.5223165"><ele>117.0</ele><time>2026-05-05T06:00:30.605Z</time></trkpt><trkpt lat="43.5402753" lon="16.5223862"><ele>117.0</ele><time>2026-05-05T06:00:31.605Z</time></trkpt><trkpt lat="43.5403312" lon="16.5224672"><ele>116.5</ele><time>2026-05-05T06:00:33.605Z</time></trkpt><trkpt lat="43.540383" lon="16.5225455"><ele>116.0</ele><time>2026-05-05T06:00:37.605Z</time></trkpt><trkpt lat="43.540432" lon="16.5226346"><ele>115.5</ele><time>2026-05-05T06:00:40.606Z</time></trkpt><trkpt lat="43.5404801" lon="16.5227182"><ele>115.0</ele><time>2026-05-05T06:00:42.606Z</time></trkpt><trkpt lat="43.5405281" lon="16.5228357"><ele>114.5</ele><time>2026-05-05T06:00:44.606Z</time></trkpt><trkpt lat="43.5405887" lon="16.5229414"><ele>114.0</ele><time>2026-05-05T06:00:46.605Z</time></trkpt><trkpt lat="43.5406521" lon="16.5230143"><ele>118.80000000000001</ele><time>2026-05-05T06:00:48.606Z</time></trkpt><trkpt lat="43.5407195" lon="16.5230527"><ele>123.60000000000001</ele><time>2026-05-05T06:00:50.606Z</time></trkpt><trkpt lat="43.5407884" lon="16.5231333"><ele>128.4</ele><time>2026-05-05T06:00:53.606Z</time></trkpt><trkpt lat="43.5408543" lon="16.5232174"><ele>133.20000000000002</ele><time>2026-05-05T06:00:56.605Z</time></trkpt><trkpt lat="43.5409203" lon="16.5233172"><ele>138.0</ele><time>2026-05-05T06:00:59.605Z</time></trkpt><trkpt lat="43.5410051" lon="16.523418"><ele>138.0</ele><time>2026-05-05T06:01:01.606Z</time></trkpt><trkpt lat="43.5410919" lon="16.5235538"><ele>138.0</ele><time>2026-05-05T06:01:03.606Z</time></trkpt><trkpt lat="43.5411471" lon="16.5236315"><ele>138.0</ele><time>2026-05-05T06:01:05.605Z</time></trkpt><trkpt lat="43.5411886" lon="16.5237236"><ele>138.0</ele><time>2026-05-05T06:01:07.605Z</time></trkpt><trkpt lat="43.5412378" lon="16.5238003"><ele>138.0</ele><time>2026-05-05T06:01:09.606Z</time></trkpt><trkpt lat="43.541316" lon="16.523899"><ele>137.66666666666666</ele><time>2026-05-05T06:01:11.605Z</time></trkpt><trkpt lat="43.5413721" lon="16.5239733"><ele>137.33333333333334</ele><time>2026-05-05T06:01:12.606Z</time></trkpt><trkpt lat="43.5414299" lon="16.524048"><ele>137.0</ele><time>2026-05-05T06:01:13.606Z</time></trkpt><trkpt lat="43.5414893" lon="16.5241076"><ele>136.66666666666669</ele><time>2026-05-05T06:01:14.605Z</time></trkpt><trkpt lat="43.541542" lon="16.5241721"><ele>136.33333333333334</ele><time>2026-05-05T06:01:15.606Z</time></trkpt><trkpt lat="43.5415908" lon="16.5242297"><ele>136.0</ele><time>2026-05-05T06:01:16.605Z</time></trkpt><trkpt lat="43.5416887" lon="16.5243361"><ele>136.0</ele><time>2026-05-05T06:01:18.606Z</time></trkpt><trkpt lat="43.541743" lon="16.5243956"><ele>136.0</ele><time>2026-05-05T06:01:19.605Z</time></trkpt><trkpt lat="43.5417953" lon="16.5244464"><ele>136.0</ele><time>2026-05-05T06:01:20.605Z</time></trkpt><trkpt lat="43.5418913" lon="16.5245336"><ele>136.0</ele><time>2026-05-05T06:01:22.605Z</time></trkpt><trkpt lat="43.5419825" lon="16.5246116"><ele>136.0</ele><time>2026-05-05T06:01:24.606Z</time></trkpt><trkpt lat="43.5420717" lon="16.5246837"><ele>140.8</ele><time>2026-05-05T06:01:26.606Z</time></trkpt><trkpt lat="43.5421629" lon="16.524751"><ele>145.6</ele><time>2026-05-05T06:01:28.606Z</time></trkpt><trkpt lat="43.5422586" lon="16.5248137"><ele>150.4</ele><time>2026-05-05T06:01:30.605Z</time></trkpt><trkpt lat="43.5423509" lon="16.5248744"><ele>155.2</ele><time>2026-05-05T06:01:32.605Z</time></trkpt><trkpt lat="43.5423279" lon="16.5249886"><ele>160.0</ele><time>2026-05-05T06:01:33.606Z</time></trkpt><trkpt lat="43.5428128" lon="16.5251377"><ele>157.0</ele><time>2026-05-05T06:01:47.605Z</time></trkpt><trkpt lat="43.5428941" lon="16.5251867"><ele>154.0</ele><time>2026-05-05T06:01:50.605Z</time></trkpt><trkpt lat="43.5429539" lon="16.5252222"><ele>151.0</ele><time>2026-05-05T06:01:52.606Z</time></trkpt><trkpt lat="43.5430225" lon="16.5252598"><ele>148.0</ele><time>2026-05-05T06:01:54.606Z</time></trkpt><trkpt lat="43.5430829" lon="16.5252936"><ele>145.0</ele><time>2026-05-05T06:01:56.605Z</time></trkpt><trkpt lat="43.5431458" lon="16.5253267"><ele>142.0</ele><time>2026-05-05T06:01:58.605Z</time></trkpt><trkpt lat="43.543222" lon="16.5253699"><ele>139.0</ele><time>2026-05-05T06:02:00.606Z</time></trkpt><trkpt lat="43.543318" lon="16.5254256"><ele>139.0</ele><time>2026-05-05T06:02:02.606Z</time></trkpt><trkpt lat="43.5434105" lon="16.5254972"><ele>139.0</ele><time>2026-05-05T06:02:04.605Z</time></trkpt><trkpt lat="43.543486" lon="16.5255623"><ele>139.0</ele><time>2026-05-05T06:02:06.606Z</time></trkpt><trkpt lat="43.5435486" lon="16.5256157"><ele>139.0</ele><time>2026-05-05T06:02:08.605Z</time></trkpt><trkpt lat="43.5436095" lon="16.5256648"><ele>139.0</ele><time>2026-05-05T06:02:10.605Z</time></trkpt><trkpt lat="43.5436706" lon="16.5257255"><ele>139.0</ele><time>2026-05-05T06:02:12.606Z</time></trkpt><trkpt lat="43.5437323" lon="16.5257885"><ele>141.0</ele><time>2026-05-05T06:02:14.606Z</time></trkpt><trkpt lat="43.5437911" lon="16.5258536"><ele>143.0</ele><time>2026-05-05T06:02:16.606Z</time></trkpt><trkpt lat="43.5438492" lon="16.5259222"><ele>145.0</ele><time>2026-05-05T06:02:18.605Z</time></trkpt><trkpt lat="43.5439043" lon="16.5259965"><ele>147.0</ele><time>2026-05-05T06:02:20.606Z</time></trkpt><trkpt lat="43.5439586" lon="16.5260768"><ele>149.0</ele><time>2026-05-05T06:02:22.605Z</time></trkpt><trkpt lat="43.5440192" lon="16.5261705"><ele>151.0</ele><time>2026-05-05T06:02:24.606Z</time></trkpt><trkpt lat="43.5440821" lon="16.5262769"><ele>151.6</ele><time>2026-05-05T06:02:26.606Z</time></trkpt><trkpt lat="43.5441456" lon="16.526384"><ele>152.2</ele><time>2026-05-05T06:02:28.606Z</time></trkpt><trkpt lat="43.5442" lon="16.5264921"><ele>152.8</ele><time>2026-05-05T06:02:30.605Z</time></trkpt><trkpt lat="43.5442514" lon="16.5266015"><ele>153.4</ele><time>2026-05-05T06:02:32.605Z</time></trkpt><trkpt lat="43.5443018" lon="16.5267163"><ele>154.0</ele><time>2026-05-05T06:02:34.606Z</time></trkpt><trkpt lat="43.5443501" lon="16.5268373"><ele>154.0</ele><time>2026-05-05T06:02:36.606Z</time></trkpt><trkpt lat="43.5443938" lon="16.5269741"><ele>154.0</ele><time>2026-05-05T06:02:38.605Z</time></trkpt><trkpt lat="43.5444405" lon="16.527124"><ele>154.0</ele><time>2026-05-05T06:02:40.605Z</time></trkpt><trkpt lat="43.5444735" lon="16.5272675"><ele>154.0</ele><time>2026-05-05T06:02:42.606Z</time></trkpt><trkpt lat="43.5445053" lon="16.5274032"><ele>154.0</ele><time>2026-05-05T06:02:44.605Z</time></trkpt><trkpt lat="43.5445406" lon="16.5275267"><ele>152.4</ele><time>2026-05-05T06:02:46.606Z</time></trkpt><trkpt lat="43.544559" lon="16.5276566"><ele>150.8</ele><time>2026-05-05T06:02:48.605Z</time></trkpt><trkpt lat="43.544586" lon="16.5277909"><ele>149.2</ele><time>2026-05-05T06:02:50.606Z</time></trkpt><trkpt lat="43.5446133" lon="16.5279427"><ele>147.6</ele><time>2026-05-05T06:02:52.606Z</time></trkpt><trkpt lat="43.544628" lon="16.5280829"><ele>146.0</ele><time>2026-05-05T06:02:54.605Z</time></trkpt><trkpt lat="43.5446409" lon="16.528218"><ele>146.0</ele><time>2026-05-05T06:02:56.605Z</time></trkpt><trkpt lat="43.5446551" lon="16.5283534"><ele>146.0</ele><time>2026-05-05T06:02:58.605Z</time></trkpt><trkpt lat="43.5446724" lon="16.5284936"><ele>146.0</ele><time>2026-05-05T06:03:00.605Z</time></trkpt><trkpt lat="43.544686" lon="16.5286447"><ele>146.0</ele><time>2026-05-05T06:03:02.606Z</time></trkpt><trkpt lat="43.5446997" lon="16.5287933"><ele>146.0</ele><time>2026-05-05T06:03:04.605Z</time></trkpt><trkpt lat="43.5447182" lon="16.5289546"><ele>146.71428571428572</ele><time>2026-05-05T06:03:06.606Z</time></trkpt><trkpt lat="43.54473" lon="16.5291181"><ele>147.42857142857144</ele><time>2026-05-05T06:03:08.606Z</time></trkpt><trkpt lat="43.5447396" lon="16.5292076"><ele>148.14285714285717</ele><time>2026-05-05T06:03:09.606Z</time></trkpt><trkpt lat="43.544748" lon="16.5292971"><ele>148.85714285714286</ele><time>2026-05-05T06:03:10.605Z</time></trkpt><trkpt lat="43.5447558" lon="16.5293842"><ele>149.57142857142858</ele><time>2026-05-05T06:03:11.605Z</time></trkpt><trkpt lat="43.5447653" lon="16.529479"><ele>150.2857142857143</ele><time>2026-05-05T06:03:12.605Z</time></trkpt><trkpt lat="43.5447721" lon="16.5295671"><ele>151.0</ele><time>2026-05-05T06:03:13.605Z</time></trkpt><trkpt lat="43.5447827" lon="16.5296557"><ele>152.00000000000003</ele><time>2026-05-05T06:03:14.605Z</time></trkpt><trkpt lat="43.5447915" lon="16.5297483"><ele>153.0</ele><time>2026-05-05T06:03:15.605Z</time></trkpt><trkpt lat="43.5448023" lon="16.5298447"><ele>154.0</ele><time>2026-05-05T06:03:16.605Z</time></trkpt><trkpt lat="43.5448101" lon="16.5299358"><ele>155.0</ele><time>2026-05-05T06:03:17.605Z</time></trkpt><trkpt lat="43.5448216" lon="16.5300234"><ele>156.0</ele><time>2026-05-05T06:03:18.606Z</time></trkpt><trkpt lat="43.5448354" lon="16.530116"><ele>157.00000000000003</ele><time>2026-05-05T06:03:19.606Z</time></trkpt><trkpt lat="43.544845" lon="16.5302145"><ele>158.0</ele><time>2026-05-05T06:03:20.605Z</time></trkpt><trkpt lat="43.5448554" lon="16.5303233"><ele>159.66666666666666</ele><time>2026-05-05T06:03:21.605Z</time></trkpt><trkpt lat="43.5448702" lon="16.5304386"><ele>161.33333333333331</ele><time>2026-05-05T06:03:22.606Z</time></trkpt><trkpt lat="43.5448883" lon="16.5305411"><ele>163.0</ele><time>2026-05-05T06:03:23.606Z</time></trkpt><trkpt lat="43.5448966" lon="16.5306509"><ele>164.66666666666666</ele><time>2026-05-05T06:03:24.605Z</time></trkpt><trkpt lat="43.5449125" lon="16.5307626"><ele>166.33333333333334</ele><time>2026-05-05T06:03:25.605Z</time></trkpt><trkpt lat="43.5449217" lon="16.5308745"><ele>168.0</ele><time>2026-05-05T06:03:26.605Z</time></trkpt><trkpt lat="43.5449335" lon="16.5309916"><ele>168.0</ele><time>2026-05-05T06:03:27.606Z</time></trkpt><trkpt lat="43.5449482" lon="16.5311091"><ele>168.0</ele><time>2026-05-05T06:03:28.606Z</time></trkpt><trkpt lat="43.5449615" lon="16.5312241"><ele>168.0</ele><time>2026-05-05T06:03:29.605Z</time></trkpt><trkpt lat="43.5449743" lon="16.5313408"><ele>168.0</ele><time>2026-05-05T06:03:30.606Z</time></trkpt><trkpt lat="43.544991" lon="16.5314609"><ele>168.0</ele><time>2026-05-05T06:03:31.605Z</time></trkpt><trkpt lat="43.5450034" lon="16.5315748"><ele>168.0</ele><time>2026-05-05T06:03:32.605Z</time></trkpt><trkpt lat="43.5450145" lon="16.531687"><ele>169.83333333333334</ele><time>2026-05-05T06:03:33.606Z</time></trkpt><trkpt lat="43.5450285" lon="16.5317999"><ele>171.66666666666666</ele><time>2026-05-05T06:03:34.605Z</time></trkpt><trkpt lat="43.5450418" lon="16.5319121"><ele>173.5</ele><time>2026-05-05T06:03:35.606Z</time></trkpt><trkpt lat="43.5450574" lon="16.5320221"><ele>175.33333333333331</ele><time>2026-05-05T06:03:36.606Z</time></trkpt><trkpt lat="43.5450748" lon="16.5321281"><ele>177.16666666666666</ele><time>2026-05-05T06:03:37.605Z</time></trkpt><trkpt lat="43.545091" lon="16.5322357"><ele>179.0</ele><time>2026-05-05T06:03:38.606Z</time></trkpt><trkpt lat="43.5451102" lon="16.5323429"><ele>180.16666666666666</ele><time>2026-05-05T06:03:39.605Z</time></trkpt><trkpt lat="43.5451309" lon="16.5324522"><ele>181.33333333333331</ele><time>2026-05-05T06:03:40.605Z</time></trkpt><trkpt lat="43.5451531" lon="16.5325645"><ele>182.5</ele><time>2026-05-05T06:03:41.605Z</time></trkpt><trkpt lat="43.5451768" lon="16.532675"><ele>183.66666666666666</ele><time>2026-05-05T06:03:42.606Z</time></trkpt><trkpt lat="43.5452005" lon="16.5327884"><ele>184.83333333333334</ele><time>2026-05-05T06:03:43.605Z</time></trkpt><trkpt lat="43.54523" lon="16.5329046"><ele>186.0</ele><time>2026-05-05T06:03:44.605Z</time></trkpt><trkpt lat="43.545263" lon="16.5330246"><ele>187.8</ele><time>2026-05-05T06:03:45.606Z</time></trkpt><trkpt lat="43.5453018" lon="16.533144"><ele>189.60000000000002</ele><time>2026-05-05T06:03:46.606Z</time></trkpt><trkpt lat="43.545345" lon="16.5332739"><ele>191.4</ele><time>2026-05-05T06:03:47.605Z</time></trkpt><trkpt lat="43.5453961" lon="16.5334165"><ele>193.2</ele><time>2026-05-05T06:03:48.606Z</time></trkpt><trkpt lat="43.5454544" lon="16.5335607"><ele>195.0</ele><time>2026-05-05T06:03:49.605Z</time></trkpt><trkpt lat="43.5455154" lon="16.533699"><ele>192.5</ele><time>2026-05-05T06:03:50.605Z</time></trkpt><trkpt lat="43.5455829" lon="16.5338415"><ele>190.0</ele><time>2026-05-05T06:03:51.605Z</time></trkpt><trkpt lat="43.5456562" lon="16.5339752"><ele>187.5</ele><time>2026-05-05T06:03:52.605Z</time></trkpt><trkpt lat="43.5457335" lon="16.534101"><ele>185.0</ele><time>2026-05-05T06:03:53.606Z</time></trkpt><trkpt lat="43.5458155" lon="16.5342233"><ele>185.0</ele><time>2026-05-05T06:03:54.605Z</time></trkpt><trkpt lat="43.5458999" lon="16.5343419"><ele>185.0</ele><time>2026-05-05T06:03:55.606Z</time></trkpt><trkpt lat="43.5459874" lon="16.5344482"><ele>185.0</ele><time>2026-05-05T06:03:56.605Z</time></trkpt><trkpt lat="43.546074" lon="16.5345409"><ele>185.0</ele><time>2026-05-05T06:03:57.605Z</time></trkpt><trkpt lat="43.5461534" lon="16.5346194"><ele>185.0</ele><time>2026-05-05T06:03:58.606Z</time></trkpt><trkpt lat="43.5462236" lon="16.5346846"><ele>184.14285714285714</ele><time>2026-05-05T06:03:59.605Z</time></trkpt><trkpt lat="43.5462927" lon="16.5347424"><ele>183.28571428571428</ele><time>2026-05-05T06:04:00.605Z</time></trkpt><trkpt lat="43.5463609" lon="16.5347952"><ele>182.42857142857144</ele><time>2026-05-05T06:04:01.606Z</time></trkpt><trkpt lat="43.5464248" lon="16.534844"><ele>181.57142857142856</ele><time>2026-05-05T06:04:02.606Z</time></trkpt><trkpt lat="43.5464883" lon="16.5348883"><ele>180.71428571428572</ele><time>2026-05-05T06:04:03.605Z</time></trkpt><trkpt lat="43.5465487" lon="16.5349282"><ele>179.85714285714286</ele><time>2026-05-05T06:04:04.606Z</time></trkpt><trkpt lat="43.5466099" lon="16.5349663"><ele>179.0</ele><time>2026-05-05T06:04:05.606Z</time></trkpt><trkpt lat="43.5466687" lon="16.5349989"><ele>179.0</ele><time>2026-05-05T06:04:06.606Z</time></trkpt><trkpt lat="43.5467679" lon="16.5350472"><ele>179.0</ele><time>2026-05-05T06:04:08.606Z</time></trkpt><trkpt lat="43.5468633" lon="16.5350872"><ele>179.0</ele><time>2026-05-05T06:04:10.606Z</time></trkpt><trkpt lat="43.546975" lon="16.5351217"><ele>179.0</ele><time>2026-05-05T06:04:12.605Z</time></trkpt><trkpt lat="43.547037" lon="16.5351382"><ele>179.0</ele><time>2026-05-05T06:04:13.606Z</time></trkpt><trkpt lat="43.5471027" lon="16.5351521"><ele>179.0</ele><time>2026-05-05T06:04:14.606Z</time></trkpt><trkpt lat="43.5471699" lon="16.5351609"><ele>178.16666666666666</ele><time>2026-05-05T06:04:15.606Z</time></trkpt><trkpt lat="43.5472419" lon="16.5351658"><ele>177.33333333333331</ele><time>2026-05-05T06:04:16.605Z</time></trkpt><trkpt lat="43.5473168" lon="16.5351738"><ele>176.5</ele><time>2026-05-05T06:04:17.606Z</time></trkpt><trkpt lat="43.5473959" lon="16.5351794"><ele>175.66666666666666</ele><time>2026-05-05T06:04:18.606Z</time></trkpt><trkpt lat="43.5474744" lon="16.5351791"><ele>174.83333333333334</ele><time>2026-05-05T06:04:19.606Z</time></trkpt><trkpt lat="43.5475512" lon="16.5351792"><ele>174.0</ele><time>2026-05-05T06:04:20.605Z</time></trkpt><trkpt lat="43.5476265" lon="16.5351716"><ele>174.0</ele><time>2026-05-05T06:04:21.605Z</time></trkpt><trkpt lat="43.5476903" lon="16.5351627"><ele>174.0</ele><time>2026-05-05T06:04:22.605Z</time></trkpt><trkpt lat="43.547813" lon="16.5351393"><ele>174.0</ele><time>2026-05-05T06:04:24.605Z</time></trkpt><trkpt lat="43.5479087" lon="16.5351151"><ele>174.0</ele><time>2026-05-05T06:04:26.606Z</time></trkpt><trkpt lat="43.5479838" lon="16.5350992"><ele>174.0</ele><time>2026-05-05T06:04:28.605Z</time></trkpt><trkpt lat="43.5480585" lon="16.535075"><ele>174.0</ele><time>2026-05-05T06:04:30.606Z</time></trkpt><trkpt lat="43.5481471" lon="16.5350433"><ele>177.33333333333334</ele><time>2026-05-05T06:04:32.605Z</time></trkpt><trkpt lat="43.5482688" lon="16.5349886"><ele>180.66666666666669</ele><time>2026-05-05T06:04:34.605Z</time></trkpt><trkpt lat="43.5483347" lon="16.5349589"><ele>184.0</ele><time>2026-05-05T06:04:35.606Z</time></trkpt><trkpt lat="43.548405" lon="16.5349156"><ele>187.33333333333334</ele><time>2026-05-05T06:04:36.605Z</time></trkpt><trkpt lat="43.5484752" lon="16.5348755"><ele>190.66666666666669</ele><time>2026-05-05T06:04:37.606Z</time></trkpt><trkpt lat="43.5485477" lon="16.5348296"><ele>194.0</ele><time>2026-05-05T06:04:38.605Z</time></trkpt><trkpt lat="43.5486235" lon="16.5347793"><ele>194.0</ele><time>2026-05-05T06:04:39.606Z</time></trkpt><trkpt lat="43.5487004" lon="16.5347289"><ele>194.0</ele><time>2026-05-05T06:04:40.606Z</time></trkpt><trkpt lat="43.5487901" lon="16.5346765"><ele>194.0</ele><time>2026-05-05T06:04:41.606Z</time></trkpt><trkpt lat="43.5488822" lon="16.5346147"><ele>194.0</ele><time>2026-05-05T06:04:42.605Z</time></trkpt><trkpt lat="43.5489732" lon="16.5345475"><ele>194.0</ele><time>2026-05-05T06:04:43.606Z</time></trkpt><trkpt lat="43.5490669" lon="16.534481"><ele>203.0</ele><time>2026-05-05T06:04:44.606Z</time></trkpt><trkpt lat="43.5491614" lon="16.5344175"><ele>212.0</ele><time>2026-05-05T06:04:45.606Z</time></trkpt><trkpt lat="43.5512088" lon="16.534051"><ele>212.00000000000003</ele><time>2026-05-05T06:05:17.606Z</time></trkpt><trkpt lat="43.5512893" lon="16.5340726"><ele>212.0</ele><time>2026-05-05T06:05:18.605Z</time></trkpt><trkpt lat="43.5513594" lon="16.5341036"><ele>212.0</ele><time>2026-05-05T06:05:19.605Z</time></trkpt><trkpt lat="43.5514256" lon="16.5341349"><ele>212.0</ele><time>2026-05-05T06:05:20.606Z</time></trkpt><trkpt lat="43.5515366" lon="16.5341938"><ele>212.00000000000003</ele><time>2026-05-05T06:05:22.606Z</time></trkpt><trkpt lat="43.5516257" lon="16.5342412"><ele>212.0</ele><time>2026-05-05T06:05:24.606Z</time></trkpt><trkpt lat="43.5516868" lon="16.5342708"><ele>212.0</ele><time>2026-05-05T06:05:26.606Z</time></trkpt><trkpt lat="43.5517551" lon="16.5343146"><ele>212.0</ele><time>2026-05-05T06:05:28.605Z</time></trkpt><trkpt lat="43.5518392" lon="16.5343681"><ele>212.0</ele><time>2026-05-05T06:05:30.606Z</time></trkpt><trkpt lat="43.5519357" lon="16.5344375"><ele>212.0</ele><time>2026-05-05T06:05:32.605Z</time></trkpt><trkpt lat="43.5520199" lon="16.5344984"><ele>212.0</ele><time>2026-05-05T06:05:34.606Z</time></trkpt><trkpt lat="43.5521109" lon="16.5345846"><ele>212.6</ele><time>2026-05-05T06:05:36.606Z</time></trkpt><trkpt lat="43.5522133" lon="16.5346842"><ele>213.2</ele><time>2026-05-05T06:05:38.606Z</time></trkpt><trkpt lat="43.5522654" lon="16.5347377"><ele>213.8</ele><time>2026-05-05T06:05:39.606Z</time></trkpt><trkpt lat="43.5523621" lon="16.5348448"><ele>214.4</ele><time>2026-05-05T06:05:41.605Z</time></trkpt><trkpt lat="43.5524541" lon="16.5349535"><ele>215.0</ele><time>2026-05-05T06:05:43.606Z</time></trkpt><trkpt lat="43.5525429" lon="16.5350713"><ele>215.00000000000003</ele><time>2026-05-05T06:05:45.606Z</time></trkpt><trkpt lat="43.5526198" lon="16.5351789"><ele>215.0</ele><time>2026-05-05T06:05:47.606Z</time></trkpt><trkpt lat="43.5526768" lon="16.5352641"><ele>215.0</ele><time>2026-05-05T06:05:49.605Z</time></trkpt><trkpt lat="43.5527209" lon="16.5353389"><ele>215.0</ele><time>2026-05-05T06:05:51.605Z</time></trkpt><trkpt lat="43.5527694" lon="16.535427"><ele>215.00000000000003</ele><time>2026-05-05T06:05:53.605Z</time></trkpt><trkpt lat="43.5528175" lon="16.5355065"><ele>215.0</ele><time>2026-05-05T06:05:55.606Z</time></trkpt><trkpt lat="43.5528574" lon="16.535579"><ele>213.66666666666669</ele><time>2026-05-05T06:05:57.605Z</time></trkpt><trkpt lat="43.5529097" lon="16.5356862"><ele>212.33333333333334</ele><time>2026-05-05T06:05:59.606Z</time></trkpt><trkpt lat="43.5529726" lon="16.5358296"><ele>211.0</ele><time>2026-05-05T06:06:01.606Z</time></trkpt><trkpt lat="43.5530083" lon="16.5359135"><ele>209.66666666666669</ele><time>2026-05-05T06:06:02.605Z</time></trkpt><trkpt lat="43.5530485" lon="16.5360018"><ele>208.33333333333334</ele><time>2026-05-05T06:06:03.605Z</time></trkpt><trkpt lat="43.5530887" lon="16.5360938"><ele>207.0</ele><time>2026-05-05T06:06:04.606Z</time></trkpt><trkpt lat="43.5531312" lon="16.5361895"><ele>210.0</ele><time>2026-05-05T06:06:05.605Z</time></trkpt><trkpt lat="43.5531738" lon="16.5362906"><ele>213.0</ele><time>2026-05-05T06:06:06.606Z</time></trkpt><trkpt lat="43.5532195" lon="16.5363973"><ele>216.0</ele><time>2026-05-05T06:06:07.605Z</time></trkpt><trkpt lat="43.553269" lon="16.5365157"><ele>219.0</ele><time>2026-05-05T06:06:08.605Z</time></trkpt><trkpt lat="43.5533277" lon="16.5366398"><ele>222.0</ele><time>2026-05-05T06:06:09.605Z</time></trkpt><trkpt lat="43.5533865" lon="16.5367643"><ele>222.0</ele><time>2026-05-05T06:06:10.606Z</time></trkpt><trkpt lat="43.5534411" lon="16.5368726"><ele>222.0</ele><time>2026-05-05T06:06:11.606Z</time></trkpt><trkpt lat="43.5534953" lon="16.5369695"><ele>222.0</ele><time>2026-05-05T06:06:12.606Z</time></trkpt><trkpt lat="43.5535483" lon="16.5370572"><ele>222.0</ele><time>2026-05-05T06:06:13.606Z</time></trkpt><trkpt lat="43.5536017" lon="16.5371405"><ele>222.0</ele><time>2026-05-05T06:06:14.605Z</time></trkpt><trkpt lat="43.5536536" lon="16.537222"><ele>222.0</ele><time>2026-05-05T06:06:15.606Z</time></trkpt><trkpt lat="43.553708" lon="16.5372976"><ele>220.66666666666666</ele><time>2026-05-05T06:06:16.606Z</time></trkpt><trkpt lat="43.5537646" lon="16.537372"><ele>219.33333333333331</ele><time>2026-05-05T06:06:17.605Z</time></trkpt><trkpt lat="43.5538222" lon="16.5374415"><ele>218.0</ele><time>2026-05-05T06:06:18.606Z</time></trkpt><trkpt lat="43.5538818" lon="16.5375103"><ele>216.66666666666666</ele><time>2026-05-05T06:06:19.605Z</time></trkpt><trkpt lat="43.5539509" lon="16.5375852"><ele>215.33333333333331</ele><time>2026-05-05T06:06:20.606Z</time></trkpt><trkpt lat="43.5540254" lon="16.5376602"><ele>214.0</ele><time>2026-05-05T06:06:21.605Z</time></trkpt><trkpt lat="43.5540994" lon="16.5377256"><ele>214.00000000000003</ele><time>2026-05-05T06:06:22.605Z</time></trkpt><trkpt lat="43.5541727" lon="16.5377858"><ele>214.0</ele><time>2026-05-05T06:06:23.606Z</time></trkpt><trkpt lat="43.5542435" lon="16.5378397"><ele>214.0</ele><time>2026-05-05T06:06:24.606Z</time></trkpt><trkpt lat="43.5543132" lon="16.5378896"><ele>214.0</ele><time>2026-05-05T06:06:25.605Z</time></trkpt><trkpt lat="43.5543763" lon="16.5379318"><ele>214.0</ele><time>2026-05-05T06:06:26.606Z</time></trkpt><trkpt lat="43.5544369" lon="16.5379677"><ele>214.00000000000003</ele><time>2026-05-05T06:06:27.606Z</time></trkpt><trkpt lat="43.5544978" lon="16.5379996"><ele>214.0</ele><time>2026-05-05T06:06:28.606Z</time></trkpt><trkpt lat="43.5545612" lon="16.5380304"><ele>214.16666666666666</ele><time>2026-05-05T06:06:29.605Z</time></trkpt><trkpt lat="43.5546269" lon="16.5380593"><ele>214.33333333333331</ele><time>2026-05-05T06:06:30.606Z</time></trkpt><trkpt lat="43.5547037" lon="16.538093"><ele>214.5</ele><time>2026-05-05T06:06:31.605Z</time></trkpt><trkpt lat="43.5547874" lon="16.5381287"><ele>214.66666666666669</ele><time>2026-05-05T06:06:32.606Z</time></trkpt><trkpt lat="43.554881" lon="16.5381598"><ele>214.83333333333334</ele><time>2026-05-05T06:06:33.605Z</time></trkpt><trkpt lat="43.5549759" lon="16.5381873"><ele>215.0</ele><time>2026-05-05T06:06:34.605Z</time></trkpt><trkpt lat="43.555073" lon="16.5382114"><ele>215.0</ele><time>2026-05-05T06:06:35.605Z</time></trkpt><trkpt lat="43.5551707" lon="16.5382338"><ele>215.0</ele><time>2026-05-05T06:06:36.605Z</time></trkpt><trkpt lat="43.5552694" lon="16.5382484"><ele>215.0</ele><time>2026-05-05T06:06:37.606Z</time></trkpt><trkpt lat="43.5553692" lon="16.5382644"><ele>215.0</ele><time>2026-05-05T06:06:38.605Z</time></trkpt><trkpt lat="43.555468" lon="16.538274"><ele>215.0</ele><time>2026-05-05T06:06:39.605Z</time></trkpt><trkpt lat="43.5555705" lon="16.5382745"><ele>218.00000000000003</ele><time>2026-05-05T06:06:40.606Z</time></trkpt><trkpt lat="43.5556682" lon="16.5382725"><ele>221.0</ele><time>2026-05-05T06:06:41.606Z</time></trkpt><trkpt lat="43.5557561" lon="16.5382753"><ele>224.0</ele><time>2026-05-05T06:06:42.606Z</time></trkpt><trkpt lat="43.5558345" lon="16.5382765"><ele>227.0</ele><time>2026-05-05T06:06:43.606Z</time></trkpt><trkpt lat="43.5559075" lon="16.5382751"><ele>230.00000000000003</ele><time>2026-05-05T06:06:44.606Z</time></trkpt><trkpt lat="43.5559785" lon="16.5382685"><ele>233.0</ele><time>2026-05-05T06:06:45.606Z</time></trkpt><trkpt lat="43.5560525" lon="16.5382607"><ele>233.00000000000003</ele><time>2026-05-05T06:06:46.605Z</time></trkpt><trkpt lat="43.5561311" lon="16.5382589"><ele>233.0</ele><time>2026-05-05T06:06:47.605Z</time></trkpt><trkpt lat="43.5562129" lon="16.5382509"><ele>233.0</ele><time>2026-05-05T06:06:48.606Z</time></trkpt><trkpt lat="43.5563002" lon="16.538246"><ele>233.0</ele><time>2026-05-05T06:06:49.606Z</time></trkpt><trkpt lat="43.5563954" lon="16.5382448"><ele>233.00000000000003</ele><time>2026-05-05T06:06:50.606Z</time></trkpt><trkpt lat="43.5564972" lon="16.5382349"><ele>233.0</ele><time>2026-05-05T06:06:51.605Z</time></trkpt><trkpt lat="43.5565953" lon="16.5382334"><ele>236.2</ele><time>2026-05-05T06:06:52.605Z</time></trkpt><trkpt lat="43.5566939" lon="16.538244"><ele>239.4</ele><time>2026-05-05T06:06:53.606Z</time></trkpt><trkpt lat="43.5568048" lon="16.5382633"><ele>242.59999999999997</ele><time>2026-05-05T06:06:54.606Z</time></trkpt><trkpt lat="43.5569185" lon="16.5382816"><ele>245.79999999999998</ele><time>2026-05-05T06:06:55.605Z</time></trkpt><trkpt lat="43.5570357" lon="16.5382927"><ele>249.0</ele><time>2026-05-05T06:06:56.605Z</time></trkpt><trkpt lat="43.5571676" lon="16.5382892"><ele>249.0</ele><time>2026-05-05T06:06:57.606Z</time></trkpt><trkpt lat="43.5573072" lon="16.538273"><ele>249.0</ele><time>2026-05-05T06:06:58.606Z</time></trkpt><trkpt lat="43.5574533" lon="16.5382514"><ele>249.0</ele><time>2026-05-05T06:06:59.605Z</time></trkpt><trkpt lat="43.5576019" lon="16.5382228"><ele>249.0</ele><time>2026-05-05T06:07:00.605Z</time></trkpt><trkpt lat="43.557775" lon="16.5381879"><ele>252.0</ele><time>2026-05-05T06:07:01.605Z</time></trkpt><trkpt lat="43.5579472" lon="16.538152"><ele>255.0</ele><time>2026-05-05T06:07:02.605Z</time></trkpt><trkpt lat="43.5581155" lon="16.5381141"><ele>258.0</ele><time>2026-05-05T06:07:03.606Z</time></trkpt><trkpt lat="43.5582794" lon="16.5380727"><ele>258.0</ele><time>2026-05-05T06:07:04.606Z</time></trkpt><trkpt lat="43.5584379" lon="16.5380281"><ele>258.0</ele><time>2026-05-05T06:07:05.606Z</time></trkpt><trkpt lat="43.5585934" lon="16.53798"><ele>258.0</ele><time>2026-05-05T06:07:06.605Z</time></trkpt><trkpt lat="43.5587491" lon="16.5379264"><ele>257.3333333333333</ele><time>2026-05-05T06:07:07.605Z</time></trkpt><trkpt lat="43.5589044" lon="16.5378661"><ele>256.66666666666663</ele><time>2026-05-05T06:07:08.605Z</time></trkpt><trkpt lat="43.5590575" lon="16.5378122"><ele>256.0</ele><time>2026-05-05T06:07:09.606Z</time></trkpt><trkpt lat="43.5592415" lon="16.5377163"><ele>256.0</ele><time>2026-05-05T06:07:10.606Z</time></trkpt><trkpt lat="43.5593893" lon="16.5376178"><ele>256.0</ele><time>2026-05-05T06:07:11.606Z</time></trkpt><trkpt lat="43.5595332" lon="16.5375162"><ele>256.0</ele><time>2026-05-05T06:07:12.606Z</time></trkpt><trkpt lat="43.5596783" lon="16.5373884"><ele>256.66666666666663</ele><time>2026-05-05T06:07:13.605Z</time></trkpt><trkpt lat="43.559821" lon="16.5372555"><ele>257.3333333333333</ele><time>2026-05-05T06:07:14.606Z</time></trkpt><trkpt lat="43.5599575" lon="16.5371044"><ele>258.0</ele><time>2026-05-05T06:07:15.606Z</time></trkpt><trkpt lat="43.5600913" lon="16.5369404"><ele>255.33333333333331</ele><time>2026-05-05T06:07:16.606Z</time></trkpt><trkpt lat="43.5602108" lon="16.5367773"><ele>252.66666666666666</ele><time>2026-05-05T06:07:17.606Z</time></trkpt><trkpt lat="43.5603227" lon="16.5366097"><ele>250.0</ele><time>2026-05-05T06:07:18.606Z</time></trkpt><trkpt lat="43.560432" lon="16.5364326"><ele>257.3333333333333</ele><time>2026-05-05T06:07:19.605Z</time></trkpt><trkpt lat="43.5605356" lon="16.5362465"><ele>264.6666666666667</ele><time>2026-05-05T06:07:20.605Z</time></trkpt><trkpt lat="43.5606346" lon="16.5360358"><ele>272.0</ele><time>2026-05-05T06:07:21.605Z</time></trkpt><trkpt lat="43.5607233" lon="16.5358148"><ele>271.33333333333337</ele><time>2026-05-05T06:07:22.606Z</time></trkpt><trkpt lat="43.5608121" lon="16.5355768"><ele>270.6666666666667</ele><time>2026-05-05T06:07:23.606Z</time></trkpt><trkpt lat="43.5609042" lon="16.5353083"><ele>270.0</ele><time>2026-05-05T06:07:24.606Z</time></trkpt><trkpt lat="43.5610043" lon="16.5350477"><ele>270.0</ele><time>2026-05-05T06:07:25.606Z</time></trkpt><trkpt lat="43.5611006" lon="16.5347551"><ele>270.0</ele><time>2026-05-05T06:07:26.606Z</time></trkpt><trkpt lat="43.5611987" lon="16.5344734"><ele>272.6666666666667</ele><time>2026-05-05T06:07:27.605Z</time></trkpt><trkpt lat="43.5612933" lon="16.5342018"><ele>275.33333333333337</ele><time>2026-05-05T06:07:28.606Z</time></trkpt><trkpt lat="43.5614037" lon="16.533926"><ele>278.0</ele><time>2026-05-05T06:07:29.606Z</time></trkpt><trkpt lat="43.5615105" lon="16.5336499"><ele>278.0</ele><time>2026-05-05T06:07:30.606Z</time></trkpt><trkpt lat="43.5616276" lon="16.5333921"><ele>278.0</ele><time>2026-05-05T06:07:31.605Z</time></trkpt><trkpt lat="43.5617527" lon="16.5331333"><ele>278.0</ele><time>2026-05-05T06:07:32.605Z</time></trkpt><trkpt lat="43.5618795" lon="16.5328997"><ele>274.33333333333337</ele><time>2026-05-05T06:07:33.606Z</time></trkpt><trkpt lat="43.562014" lon="16.5326766"><ele>270.6666666666667</ele><time>2026-05-05T06:07:34.605Z</time></trkpt><trkpt lat="43.5621567" lon="16.5324657"><ele>267.0</ele><time>2026-05-05T06:07:35.605Z</time></trkpt><trkpt lat="43.5623057" lon="16.5322678"><ele>274.3333333333333</ele><time>2026-05-05T06:07:36.605Z</time></trkpt><trkpt lat="43.5624533" lon="16.5320923"><ele>281.66666666666663</ele><time>2026-05-05T06:07:37.605Z</time></trkpt><trkpt lat="43.5626196" lon="16.5319106"><ele>289.0</ele><time>2026-05-05T06:07:38.605Z</time></trkpt><trkpt lat="43.5627878" lon="16.5317469"><ele>304.3333333333333</ele><time>2026-05-05T06:07:39.605Z</time></trkpt><trkpt lat="43.5629659" lon="16.5315882"><ele>319.6666666666667</ele><time>2026-05-05T06:07:40.606Z</time></trkpt><trkpt lat="43.5631495" lon="16.5314406"><ele>335.0</ele><time>2026-05-05T06:07:41.605Z</time></trkpt><trkpt lat="43.5633372" lon="16.5313095"><ele>302.0</ele><time>2026-05-05T06:07:42.606Z</time></trkpt><trkpt lat="43.5649281" lon="16.5308342"><ele>302.0</ele><time>2026-05-05T06:07:50.605Z</time></trkpt><trkpt lat="43.5651352" lon="16.5308478"><ele>302.0</ele><time>2026-05-05T06:07:51.606Z</time></trkpt><trkpt lat="43.5653361" lon="16.5308801"><ele>302.0</ele><time>2026-05-05T06:07:52.606Z</time></trkpt><trkpt lat="43.565535" lon="16.5309158"><ele>301.33333333333337</ele><time>2026-05-05T06:07:53.605Z</time></trkpt><trkpt lat="43.5657269" lon="16.5309681"><ele>300.6666666666667</ele><time>2026-05-05T06:07:54.606Z</time></trkpt><trkpt lat="43.5659139" lon="16.5310257"><ele>300.0</ele><time>2026-05-05T06:07:55.605Z</time></trkpt><trkpt lat="43.5660999" lon="16.5310923"><ele>302.6666666666667</ele><time>2026-05-05T06:07:56.606Z</time></trkpt><trkpt lat="43.566276" lon="16.531172"><ele>305.33333333333337</ele><time>2026-05-05T06:07:57.605Z</time></trkpt><trkpt lat="43.5664423" lon="16.5312532"><ele>308.0</ele><time>2026-05-05T06:07:58.606Z</time></trkpt><trkpt lat="43.5666071" lon="16.5313362"><ele>312.33333333333337</ele><time>2026-05-05T06:07:59.606Z</time></trkpt><trkpt lat="43.5667659" lon="16.5314277"><ele>316.6666666666667</ele><time>2026-05-05T06:08:00.606Z</time></trkpt><trkpt lat="43.5669186" lon="16.5315227"><ele>321.0</ele><time>2026-05-05T06:08:01.606Z</time></trkpt><trkpt lat="43.567074" lon="16.531624"><ele>321.0</ele><time>2026-05-05T06:08:02.605Z</time></trkpt><trkpt lat="43.5672382" lon="16.5317277"><ele>321.0</ele><time>2026-05-05T06:08:03.606Z</time></trkpt><trkpt lat="43.5674157" lon="16.5318372"><ele>321.0</ele><time>2026-05-05T06:08:04.606Z</time></trkpt><trkpt lat="43.5675959" lon="16.5319648"><ele>323.3333333333333</ele><time>2026-05-05T06:08:05.605Z</time></trkpt><trkpt lat="43.5677862" lon="16.5321045"><ele>325.66666666666663</ele><time>2026-05-05T06:08:06.605Z</time></trkpt><trkpt lat="43.5679836" lon="16.5322401"><ele>328.0</ele><time>2026-05-05T06:08:07.606Z</time></trkpt><trkpt lat="43.568184" lon="16.5323911"><ele>328.0</ele><time>2026-05-05T06:08:08.606Z</time></trkpt><trkpt lat="43.5683854" lon="16.5325429"><ele>328.0</ele><time>2026-05-05T06:08:09.606Z</time></trkpt><trkpt lat="43.5685863" lon="16.5327002"><ele>324.3333333333333</ele><time>2026-05-05T06:08:10.606Z</time></trkpt><trkpt lat="43.5687786" lon="16.5328547"><ele>320.6666666666667</ele><time>2026-05-05T06:08:11.605Z</time></trkpt><trkpt lat="43.5689675" lon="16.5330057"><ele>317.0</ele><time>2026-05-05T06:08:12.605Z</time></trkpt><trkpt lat="43.5691507" lon="16.5331469"><ele>320.6666666666667</ele><time>2026-05-05T06:08:13.605Z</time></trkpt><trkpt lat="43.5693354" lon="16.5332814"><ele>324.3333333333333</ele><time>2026-05-05T06:08:14.605Z</time></trkpt><trkpt lat="43.5695237" lon="16.5334027"><ele>328.0</ele><time>2026-05-05T06:08:15.606Z</time></trkpt><trkpt lat="43.5697181" lon="16.5334981"><ele>328.0</ele><time>2026-05-05T06:08:16.606Z</time></trkpt><trkpt lat="43.5699179" lon="16.5335679"><ele>328.0</ele><time>2026-05-05T06:08:17.606Z</time></trkpt><trkpt lat="43.5701184" lon="16.5336189"><ele>328.0</ele><time>2026-05-05T06:08:18.605Z</time></trkpt><trkpt lat="43.5703216" lon="16.5336425"><ele>330.3333333333333</ele><time>2026-05-05T06:08:19.605Z</time></trkpt><trkpt lat="43.5705244" lon="16.5336457"><ele>332.6666666666667</ele><time>2026-05-05T06:08:20.605Z</time></trkpt><trkpt lat="43.5707261" lon="16.5336438"><ele>335.0</ele><time>2026-05-05T06:08:21.605Z</time></trkpt><trkpt lat="43.5709308" lon="16.5336308"><ele>335.0</ele><time>2026-05-05T06:08:22.606Z</time></trkpt><trkpt lat="43.5711295" lon="16.5336174"><ele>335.0</ele><time>2026-05-05T06:08:23.606Z</time></trkpt><trkpt lat="43.5713171" lon="16.5336086"><ele>335.0</ele><time>2026-05-05T06:08:24.605Z</time></trkpt><trkpt lat="43.5715063" lon="16.5336035"><ele>343.0</ele><time>2026-05-05T06:08:25.606Z</time></trkpt><trkpt lat="43.5716941" lon="16.533609"><ele>351.0</ele><time>2026-05-05T06:08:26.605Z</time></trkpt><trkpt lat="43.5722786" lon="16.533736"><ele>352.6666666666667</ele><time>2026-05-05T06:08:29.605Z</time></trkpt><trkpt lat="43.5724574" lon="16.5338217"><ele>354.33333333333337</ele><time>2026-05-05T06:08:30.605Z</time></trkpt><trkpt lat="43.5726443" lon="16.5339248"><ele>356.0</ele><time>2026-05-05T06:08:31.606Z</time></trkpt><trkpt lat="43.5728275" lon="16.5340469"><ele>355.33333333333337</ele><time>2026-05-05T06:08:32.605Z</time></trkpt><trkpt lat="43.5730005" lon="16.5341856"><ele>354.6666666666667</ele><time>2026-05-05T06:08:33.606Z</time></trkpt><trkpt lat="43.5731684" lon="16.5343348"><ele>354.0</ele><time>2026-05-05T06:08:34.605Z</time></trkpt><trkpt lat="43.5733253" lon="16.5344967"><ele>354.0</ele><time>2026-05-05T06:08:35.605Z</time></trkpt><trkpt lat="43.5734724" lon="16.5346739"><ele>354.0</ele><time>2026-05-05T06:08:36.606Z</time></trkpt><trkpt lat="43.5736081" lon="16.5348613"><ele>354.0</ele><time>2026-05-05T06:08:37.606Z</time></trkpt><trkpt lat="43.5737367" lon="16.5350636"><ele>354.0</ele><time>2026-05-05T06:08:38.606Z</time></trkpt><trkpt lat="43.573853" lon="16.5352782"><ele>354.0</ele><time>2026-05-05T06:08:39.605Z</time></trkpt><trkpt lat="43.5739589" lon="16.5355037"><ele>354.0</ele><time>2026-05-05T06:08:40.605Z</time></trkpt><trkpt lat="43.5740548" lon="16.5357414"><ele>353.6666666666667</ele><time>2026-05-05T06:08:41.606Z</time></trkpt><trkpt lat="43.5741442" lon="16.5359864"><ele>353.33333333333337</ele><time>2026-05-05T06:08:42.605Z</time></trkpt><trkpt lat="43.5742286" lon="16.5362363"><ele>353.0</ele><time>2026-05-05T06:08:43.606Z</time></trkpt><trkpt lat="43.574314" lon="16.5364861"><ele>352.6666666666667</ele><time>2026-05-05T06:08:44.606Z</time></trkpt><trkpt lat="43.5743996" lon="16.5367348"><ele>352.3333333333333</ele><time>2026-05-05T06:08:45.605Z</time></trkpt><trkpt lat="43.574485" lon="16.5369814"><ele>352.0</ele><time>2026-05-05T06:08:46.605Z</time></trkpt><trkpt lat="43.5745688" lon="16.5372267"><ele>351.3333333333333</ele><time>2026-05-05T06:08:47.605Z</time></trkpt><trkpt lat="43.5746517" lon="16.53747"><ele>350.6666666666667</ele><time>2026-05-05T06:08:48.606Z</time></trkpt><trkpt lat="43.5747308" lon="16.5377049"><ele>350.0</ele><time>2026-05-05T06:08:49.605Z</time></trkpt><trkpt lat="43.5748082" lon="16.5379318"><ele>349.6666666666667</ele><time>2026-05-05T06:08:50.606Z</time></trkpt><trkpt lat="43.5748848" lon="16.5381577"><ele>349.3333333333333</ele><time>2026-05-05T06:08:51.606Z</time></trkpt><trkpt lat="43.5749658" lon="16.5383891"><ele>349.0</ele><time>2026-05-05T06:08:52.606Z</time></trkpt><trkpt lat="43.5750404" lon="16.5386275"><ele>349.0</ele><time>2026-05-05T06:08:53.606Z</time></trkpt><trkpt lat="43.5751308" lon="16.5388821"><ele>349.0</ele><time>2026-05-05T06:08:54.606Z</time></trkpt><trkpt lat="43.575226" lon="16.5391444"><ele>349.0</ele><time>2026-05-05T06:08:55.606Z</time></trkpt><trkpt lat="43.5753247" lon="16.5394128"><ele>348.3333333333333</ele><time>2026-05-05T06:08:56.605Z</time></trkpt><trkpt lat="43.5754274" lon="16.5396847"><ele>347.6666666666667</ele><time>2026-05-05T06:08:57.606Z</time></trkpt><trkpt lat="43.5755216" lon="16.5399611"><ele>347.0</ele><time>2026-05-05T06:08:58.606Z</time></trkpt><trkpt lat="43.5756173" lon="16.5402362"><ele>346.33333333333337</ele><time>2026-05-05T06:08:59.606Z</time></trkpt><trkpt lat="43.5757105" lon="16.5405152"><ele>345.6666666666667</ele><time>2026-05-05T06:09:00.606Z</time></trkpt><trkpt lat="43.5758027" lon="16.5407997"><ele>345.0</ele><time>2026-05-05T06:09:01.605Z</time></trkpt><trkpt lat="43.5758968" lon="16.5410854"><ele>344.0</ele><time>2026-05-05T06:09:02.605Z</time></trkpt><trkpt lat="43.5759904" lon="16.5413706"><ele>343.0</ele><time>2026-05-05T06:09:03.606Z</time></trkpt><trkpt lat="43.5760846" lon="16.5416599"><ele>343.0</ele><time>2026-05-05T06:09:04.605Z</time></trkpt><trkpt lat="43.5761795" lon="16.541946"><ele>343.0</ele><time>2026-05-05T06:09:05.605Z</time></trkpt><trkpt lat="43.5762729" lon="16.5422315"><ele>345.0</ele><time>2026-05-05T06:09:06.606Z</time></trkpt><trkpt lat="43.5763708" lon="16.5425174"><ele>347.0</ele><time>2026-05-05T06:09:07.605Z</time></trkpt><trkpt lat="43.5764672" lon="16.5428024"><ele>346.0</ele><time>2026-05-05T06:09:08.606Z</time></trkpt><trkpt lat="43.5765661" lon="16.5430866"><ele>345.0</ele><time>2026-05-05T06:09:09.606Z</time></trkpt><trkpt lat="43.5766603" lon="16.5433779"><ele>345.0</ele><time>2026-05-05T06:09:10.605Z</time></trkpt><trkpt lat="43.5767595" lon="16.54366"><ele>345.0</ele><time>2026-05-05T06:09:11.606Z</time></trkpt><trkpt lat="43.5768573" lon="16.5439487"><ele>342.0</ele><time>2026-05-05T06:09:12.605Z</time></trkpt><trkpt lat="43.5769569" lon="16.5442306"><ele>339.0</ele><time>2026-05-05T06:09:13.606Z</time></trkpt><trkpt lat="43.5770536" lon="16.5445202"><ele>342.5</ele><time>2026-05-05T06:09:14.605Z</time></trkpt><trkpt lat="43.5771497" lon="16.5448114"><ele>346.0</ele><time>2026-05-05T06:09:15.605Z</time></trkpt><trkpt lat="43.5772488" lon="16.5451019"><ele>344.0</ele><time>2026-05-05T06:09:16.606Z</time></trkpt><trkpt lat="43.5773572" lon="16.5453964"><ele>342.0</ele><time>2026-05-05T06:09:17.605Z</time></trkpt><trkpt lat="43.57746" lon="16.5456987"><ele>342.0</ele><time>2026-05-05T06:09:18.606Z</time></trkpt><trkpt lat="43.5775598" lon="16.5460028"><ele>342.0</ele><time>2026-05-05T06:09:19.605Z</time></trkpt><trkpt lat="43.5776598" lon="16.5463082"><ele>339.0</ele><time>2026-05-05T06:09:20.605Z</time></trkpt><trkpt lat="43.5777625" lon="16.5466106"><ele>336.0</ele><time>2026-05-05T06:09:21.605Z</time></trkpt><trkpt lat="43.5778643" lon="16.5469046"><ele>340.5</ele><time>2026-05-05T06:09:22.605Z</time></trkpt><trkpt lat="43.5779637" lon="16.5472007"><ele>345.0</ele><time>2026-05-05T06:09:23.605Z</time></trkpt><trkpt lat="43.5780625" lon="16.5474928"><ele>345.0</ele><time>2026-05-05T06:09:24.606Z</time></trkpt><trkpt lat="43.578162" lon="16.5477824"><ele>345.0</ele><time>2026-05-05T06:09:25.605Z</time></trkpt><trkpt lat="43.5782621" lon="16.548075"><ele>341.0</ele><time>2026-05-05T06:09:26.606Z</time></trkpt><trkpt lat="43.5783627" lon="16.548364"><ele>337.0</ele><time>2026-05-05T06:09:27.606Z</time></trkpt><trkpt lat="43.5784667" lon="16.5486432"><ele>334.0</ele><time>2026-05-05T06:09:28.606Z</time></trkpt><trkpt lat="43.5785716" lon="16.5489202"><ele>331.0</ele><time>2026-05-05T06:09:29.606Z</time></trkpt><trkpt lat="43.5786768" lon="16.549192"><ele>333.3333333333333</ele><time>2026-05-05T06:09:30.606Z</time></trkpt><trkpt lat="43.5787859" lon="16.5494638"><ele>335.6666666666667</ele><time>2026-05-05T06:09:31.605Z</time></trkpt><trkpt lat="43.5788926" lon="16.5497305"><ele>338.0</ele><time>2026-05-05T06:09:32.606Z</time></trkpt><trkpt lat="43.5789987" lon="16.5499941"><ele>338.0</ele><time>2026-05-05T06:09:33.605Z</time></trkpt><trkpt lat="43.5791073" lon="16.5502483"><ele>338.0</ele><time>2026-05-05T06:09:34.606Z</time></trkpt><trkpt lat="43.5792163" lon="16.5504998"><ele>338.0</ele><time>2026-05-05T06:09:35.605Z</time></trkpt><trkpt lat="43.5793241" lon="16.5507519"><ele>338.33333333333337</ele><time>2026-05-05T06:09:36.605Z</time></trkpt><trkpt lat="43.5794333" lon="16.5510007"><ele>338.6666666666667</ele><time>2026-05-05T06:09:37.605Z</time></trkpt><trkpt lat="43.5795432" lon="16.5512528"><ele>339.0</ele><time>2026-05-05T06:09:38.605Z</time></trkpt><trkpt lat="43.5796543" lon="16.551501"><ele>339.0</ele><time>2026-05-05T06:09:39.605Z</time></trkpt><trkpt lat="43.5797634" lon="16.5517477"><ele>339.0</ele><time>2026-05-05T06:09:40.605Z</time></trkpt><trkpt lat="43.579873" lon="16.5519941"><ele>339.0</ele><time>2026-05-05T06:09:41.605Z</time></trkpt><trkpt lat="43.5799814" lon="16.5522393"><ele>336.3333333333333</ele><time>2026-05-05T06:09:42.605Z</time></trkpt><trkpt lat="43.58009" lon="16.5524832"><ele>333.66666666666663</ele><time>2026-05-05T06:09:43.606Z</time></trkpt><trkpt lat="43.5801954" lon="16.5527208"><ele>331.0</ele><time>2026-05-05T06:09:44.606Z</time></trkpt><trkpt lat="43.5802973" lon="16.5529563"><ele>335.0</ele><time>2026-05-05T06:09:45.605Z</time></trkpt><trkpt lat="43.580405" lon="16.5531975"><ele>339.0</ele><time>2026-05-05T06:09:46.605Z</time></trkpt><trkpt lat="43.580517" lon="16.5534434"><ele>343.0</ele><time>2026-05-05T06:09:47.606Z</time></trkpt><trkpt lat="43.5806312" lon="16.5537023"><ele>338.5</ele><time>2026-05-05T06:09:48.605Z</time></trkpt><trkpt lat="43.5807482" lon="16.553964"><ele>334.0</ele><time>2026-05-05T06:09:49.605Z</time></trkpt><trkpt lat="43.5808695" lon="16.5542292"><ele>334.0</ele><time>2026-05-05T06:09:50.605Z</time></trkpt><trkpt lat="43.5809908" lon="16.5544998"><ele>334.0</ele><time>2026-05-05T06:09:51.605Z</time></trkpt><trkpt lat="43.5811159" lon="16.5547749"><ele>338.5</ele><time>2026-05-05T06:09:52.605Z</time></trkpt><trkpt lat="43.5812382" lon="16.5550529"><ele>343.0</ele><time>2026-05-05T06:09:53.606Z</time></trkpt><trkpt lat="43.5813621" lon="16.5553278"><ele>339.5</ele><time>2026-05-05T06:09:54.605Z</time></trkpt><trkpt lat="43.5814868" lon="16.5556027"><ele>336.0</ele><time>2026-05-05T06:09:55.605Z</time></trkpt><trkpt lat="43.5816091" lon="16.5558775"><ele>336.0</ele><time>2026-05-05T06:09:56.605Z</time></trkpt><trkpt lat="43.581731" lon="16.5561618"><ele>336.0</ele><time>2026-05-05T06:09:57.606Z</time></trkpt><trkpt lat="43.581855" lon="16.5564439"><ele>333.0</ele><time>2026-05-05T06:09:58.605Z</time></trkpt><trkpt lat="43.5819756" lon="16.5567213"><ele>330.0</ele><time>2026-05-05T06:09:59.606Z</time></trkpt><trkpt lat="43.5820888" lon="16.5570019"><ele>334.5</ele><time>2026-05-05T06:10:00.606Z</time></trkpt><trkpt lat="43.582202" lon="16.5572812"><ele>339.0</ele><time>2026-05-05T06:10:01.606Z</time></trkpt><trkpt lat="43.5823082" lon="16.5575643"><ele>339.0</ele><time>2026-05-05T06:10:02.606Z</time></trkpt><trkpt lat="43.5824118" lon="16.5578458"><ele>339.0</ele><time>2026-05-05T06:10:03.606Z</time></trkpt><trkpt lat="43.5825115" lon="16.5581291"><ele>338.0</ele><time>2026-05-05T06:10:04.606Z</time></trkpt><trkpt lat="43.5826083" lon="16.5584155"><ele>337.0</ele><time>2026-05-05T06:10:05.606Z</time></trkpt><trkpt lat="43.5826985" lon="16.5586896"><ele>336.0</ele><time>2026-05-05T06:10:06.606Z</time></trkpt><trkpt lat="43.5827895" lon="16.5589651"><ele>338.3333333333333</ele><time>2026-05-05T06:10:07.605Z</time></trkpt><trkpt lat="43.582875" lon="16.5592314"><ele>340.66666666666663</ele><time>2026-05-05T06:10:08.606Z</time></trkpt><trkpt lat="43.5829652" lon="16.5594941"><ele>343.0</ele><time>2026-05-05T06:10:09.605Z</time></trkpt><trkpt lat="43.5830498" lon="16.5597602"><ele>343.0</ele><time>2026-05-05T06:10:10.605Z</time></trkpt><trkpt lat="43.5831341" lon="16.5600245"><ele>343.0</ele><time>2026-05-05T06:10:11.605Z</time></trkpt><trkpt lat="43.5832164" lon="16.5602937"><ele>343.0</ele><time>2026-05-05T06:10:12.605Z</time></trkpt><trkpt lat="43.5833008" lon="16.5605615"><ele>342.66666666666663</ele><time>2026-05-05T06:10:13.606Z</time></trkpt><trkpt lat="43.5833867" lon="16.5608334"><ele>342.3333333333333</ele><time>2026-05-05T06:10:14.605Z</time></trkpt><trkpt lat="43.5834799" lon="16.5611068"><ele>342.0</ele><time>2026-05-05T06:10:15.605Z</time></trkpt><trkpt lat="43.5835724" lon="16.5613879"><ele>342.0</ele><time>2026-05-05T06:10:16.606Z</time></trkpt><trkpt lat="43.583668" lon="16.5616693"><ele>342.0</ele><time>2026-05-05T06:10:17.605Z</time></trkpt><trkpt lat="43.5837629" lon="16.5619386"><ele>342.0</ele><time>2026-05-05T06:10:18.605Z</time></trkpt><trkpt lat="43.5838715" lon="16.5622098"><ele>342.0</ele><time>2026-05-05T06:10:19.606Z</time></trkpt><trkpt lat="43.583992" lon="16.562469"><ele>342.0</ele><time>2026-05-05T06:10:20.606Z</time></trkpt><trkpt lat="43.5841205" lon="16.562716"><ele>342.0</ele><time>2026-05-05T06:10:21.605Z</time></trkpt><trkpt lat="43.5842602" lon="16.5629576"><ele>341.3333333333333</ele><time>2026-05-05T06:10:22.605Z</time></trkpt><trkpt lat="43.5844061" lon="16.5631863"><ele>340.66666666666663</ele><time>2026-05-05T06:10:23.606Z</time></trkpt><trkpt lat="43.5845547" lon="16.5634115"><ele>340.0</ele><time>2026-05-05T06:10:24.606Z</time></trkpt><trkpt lat="43.5847057" lon="16.5636397"><ele>339.0</ele><time>2026-05-05T06:10:25.605Z</time></trkpt><trkpt lat="43.5848543" lon="16.5638634"><ele>338.0</ele><time>2026-05-05T06:10:26.606Z</time></trkpt><trkpt lat="43.5850055" lon="16.5640915"><ele>337.0</ele><time>2026-05-05T06:10:27.605Z</time></trkpt><trkpt lat="43.585159" lon="16.5643187"><ele>337.5</ele><time>2026-05-05T06:10:28.605Z</time></trkpt><trkpt lat="43.5853143" lon="16.5645514"><ele>338.0</ele><time>2026-05-05T06:10:29.605Z</time></trkpt><trkpt lat="43.5854627" lon="16.564784"><ele>333.5</ele><time>2026-05-05T06:10:30.606Z</time></trkpt><trkpt lat="43.5856139" lon="16.5650289"><ele>329.0</ele><time>2026-05-05T06:10:31.606Z</time></trkpt><trkpt lat="43.5857652" lon="16.5652703"><ele>330.0</ele><time>2026-05-05T06:10:32.606Z</time></trkpt><trkpt lat="43.5859318" lon="16.5655412"><ele>331.0</ele><time>2026-05-05T06:10:33.605Z</time></trkpt><trkpt lat="43.5860983" lon="16.5657901"><ele>324.5</ele><time>2026-05-05T06:10:34.606Z</time></trkpt><trkpt lat="43.5862678" lon="16.5660453"><ele>318.0</ele><time>2026-05-05T06:10:35.606Z</time></trkpt><trkpt lat="43.5864386" lon="16.5663056"><ele>318.0</ele><time>2026-05-05T06:10:36.605Z</time></trkpt><trkpt lat="43.5866184" lon="16.5665595"><ele>318.0</ele><time>2026-05-05T06:10:37.605Z</time></trkpt><trkpt lat="43.5867923" lon="16.5668195"><ele>317.0</ele><time>2026-05-05T06:10:38.606Z</time></trkpt><trkpt lat="43.5869639" lon="16.5670876"><ele>316.0</ele><time>2026-05-05T06:10:39.606Z</time></trkpt><trkpt lat="43.58714" lon="16.5673512"><ele>315.0</ele><time>2026-05-05T06:10:40.605Z</time></trkpt><trkpt lat="43.5873137" lon="16.5676155"><ele>314.0</ele><time>2026-05-05T06:10:41.605Z</time></trkpt><trkpt lat="43.5874853" lon="16.5678781"><ele>313.5</ele><time>2026-05-05T06:10:42.606Z</time></trkpt><trkpt lat="43.5876583" lon="16.5681377"><ele>313.0</ele><time>2026-05-05T06:10:43.606Z</time></trkpt><trkpt lat="43.5878348" lon="16.5683891"><ele>310.5</ele><time>2026-05-05T06:10:44.606Z</time></trkpt><trkpt lat="43.5880141" lon="16.5686349"><ele>308.0</ele><time>2026-05-05T06:10:45.605Z</time></trkpt><trkpt lat="43.5881853" lon="16.5688663"><ele>308.0</ele><time>2026-05-05T06:10:46.605Z</time></trkpt><trkpt lat="43.5883523" lon="16.5690873"><ele>308.0</ele><time>2026-05-05T06:10:47.605Z</time></trkpt><trkpt lat="43.5885116" lon="16.5693027"><ele>308.0</ele><time>2026-05-05T06:10:48.606Z</time></trkpt><trkpt lat="43.5886686" lon="16.5695099"><ele>308.0</ele><time>2026-05-05T06:10:49.606Z</time></trkpt><trkpt lat="43.5888272" lon="16.5697136"><ele>308.0</ele><time>2026-05-05T06:10:50.605Z</time></trkpt><trkpt lat="43.5889818" lon="16.569927"><ele>307.6666666666667</ele><time>2026-05-05T06:10:51.605Z</time></trkpt><trkpt lat="43.5891382" lon="16.5701312"><ele>307.3333333333333</ele><time>2026-05-05T06:10:52.606Z</time></trkpt><trkpt lat="43.5892966" lon="16.57033"><ele>307.0</ele><time>2026-05-05T06:10:53.605Z</time></trkpt><trkpt lat="43.5894545" lon="16.5705282"><ele>307.66666666666663</ele><time>2026-05-05T06:10:54.605Z</time></trkpt><trkpt lat="43.5896137" lon="16.5707206"><ele>308.3333333333333</ele><time>2026-05-05T06:10:55.605Z</time></trkpt><trkpt lat="43.5897699" lon="16.5709077"><ele>309.0</ele><time>2026-05-05T06:10:56.606Z</time></trkpt><trkpt lat="43.5899186" lon="16.5710812"><ele>309.0</ele><time>2026-05-05T06:10:57.606Z</time></trkpt><trkpt lat="43.5900609" lon="16.5712541"><ele>309.0</ele><time>2026-05-05T06:10:58.606Z</time></trkpt><trkpt lat="43.5902012" lon="16.5714242"><ele>309.0</ele><time>2026-05-05T06:10:59.606Z</time></trkpt><trkpt lat="43.5903359" lon="16.5715893"><ele>309.0</ele><time>2026-05-05T06:11:00.605Z</time></trkpt><trkpt lat="43.5904756" lon="16.5717591"><ele>309.0</ele><time>2026-05-05T06:11:01.605Z</time></trkpt><trkpt lat="43.5906166" lon="16.571936"><ele>309.0</ele><time>2026-05-05T06:11:02.605Z</time></trkpt><trkpt lat="43.5907579" lon="16.5721128"><ele>309.6666666666667</ele><time>2026-05-05T06:11:03.606Z</time></trkpt><trkpt lat="43.5908981" lon="16.5722844"><ele>310.33333333333337</ele><time>2026-05-05T06:11:04.606Z</time></trkpt><trkpt lat="43.5910325" lon="16.5724627"><ele>311.0</ele><time>2026-05-05T06:11:05.605Z</time></trkpt><trkpt lat="43.5911617" lon="16.5726418"><ele>311.0</ele><time>2026-05-05T06:11:06.605Z</time></trkpt><trkpt lat="43.5912823" lon="16.5728103"><ele>311.0</ele><time>2026-05-05T06:11:07.605Z</time></trkpt><trkpt lat="43.5913963" lon="16.572972"><ele>311.0</ele><time>2026-05-05T06:11:08.606Z</time></trkpt><trkpt lat="43.5915061" lon="16.57313"><ele>310.6666666666667</ele><time>2026-05-05T06:11:09.606Z</time></trkpt><trkpt lat="43.5916163" lon="16.5732836"><ele>310.3333333333333</ele><time>2026-05-05T06:11:10.606Z</time></trkpt><trkpt lat="43.5917186" lon="16.5734393"><ele>310.0</ele><time>2026-05-05T06:11:11.605Z</time></trkpt><trkpt lat="43.5918202" lon="16.5735928"><ele>309.75</ele><time>2026-05-05T06:11:12.606Z</time></trkpt><trkpt lat="43.5919199" lon="16.5737385"><ele>309.5</ele><time>2026-05-05T06:11:13.606Z</time></trkpt><trkpt lat="43.5920139" lon="16.5738779"><ele>309.25</ele><time>2026-05-05T06:11:14.605Z</time></trkpt><trkpt lat="43.5920995" lon="16.5740099"><ele>309.0</ele><time>2026-05-05T06:11:15.606Z</time></trkpt><trkpt lat="43.5921812" lon="16.5741312"><ele>308.59999999999997</ele><time>2026-05-05T06:11:16.605Z</time></trkpt><trkpt lat="43.5922603" lon="16.5742378"><ele>308.2</ele><time>2026-05-05T06:11:17.606Z</time></trkpt><trkpt lat="43.5923287" lon="16.574343"><ele>307.79999999999995</ele><time>2026-05-05T06:11:18.605Z</time></trkpt><trkpt lat="43.5923983" lon="16.5744548"><ele>307.4</ele><time>2026-05-05T06:11:19.606Z</time></trkpt><trkpt lat="43.5924508" lon="16.5745841"><ele>307.0</ele><time>2026-05-05T06:11:20.605Z</time></trkpt><trkpt lat="43.5924978" lon="16.574722"><ele>306.75</ele><time>2026-05-05T06:11:21.606Z</time></trkpt><trkpt lat="43.5925434" lon="16.5748681"><ele>306.5</ele><time>2026-05-05T06:11:22.606Z</time></trkpt><trkpt lat="43.5925946" lon="16.5750206"><ele>306.25</ele><time>2026-05-05T06:11:23.606Z</time></trkpt><trkpt lat="43.5926607" lon="16.5751616"><ele>306.0</ele><time>2026-05-05T06:11:24.606Z</time></trkpt><trkpt lat="43.5927396" lon="16.5752891"><ele>306.0</ele><time>2026-05-05T06:11:25.606Z</time></trkpt><trkpt lat="43.5928279" lon="16.5754042"><ele>306.0</ele><time>2026-05-05T06:11:26.606Z</time></trkpt><trkpt lat="43.5929275" lon="16.5754978"><ele>306.0</ele><time>2026-05-05T06:11:27.606Z</time></trkpt><trkpt lat="43.5930298" lon="16.5755708"><ele>306.0</ele><time>2026-05-05T06:11:28.606Z</time></trkpt><trkpt lat="43.5931428" lon="16.5756163"><ele>306.25</ele><time>2026-05-05T06:11:29.605Z</time></trkpt><trkpt lat="43.5932551" lon="16.5756468"><ele>306.5</ele><time>2026-05-05T06:11:30.606Z</time></trkpt><trkpt lat="43.5933746" lon="16.5756612"><ele>306.75</ele><time>2026-05-05T06:11:31.605Z</time></trkpt><trkpt lat="43.5934874" lon="16.5756509"><ele>307.0</ele><time>2026-05-05T06:11:32.606Z</time></trkpt><trkpt lat="43.5935956" lon="16.5756339"><ele>307.4</ele><time>2026-05-05T06:11:33.606Z</time></trkpt><trkpt lat="43.5937001" lon="16.5755936"><ele>307.79999999999995</ele><time>2026-05-05T06:11:34.605Z</time></trkpt><trkpt lat="43.5937964" lon="16.5755301"><ele>308.2</ele><time>2026-05-05T06:11:35.605Z</time></trkpt><trkpt lat="43.5938825" lon="16.5754563"><ele>308.59999999999997</ele><time>2026-05-05T06:11:36.605Z</time></trkpt><trkpt lat="43.5939651" lon="16.5753635"><ele>309.0</ele><time>2026-05-05T06:11:37.605Z</time></trkpt><trkpt lat="43.5940421" lon="16.5752666"><ele>309.2</ele><time>2026-05-05T06:11:38.605Z</time></trkpt><trkpt lat="43.5941092" lon="16.5751579"><ele>309.4</ele><time>2026-05-05T06:11:39.605Z</time></trkpt><trkpt lat="43.5941668" lon="16.5750327"><ele>309.6</ele><time>2026-05-05T06:11:40.606Z</time></trkpt><trkpt lat="43.5942144" lon="16.5749086"><ele>309.8</ele><time>2026-05-05T06:11:41.606Z</time></trkpt><trkpt lat="43.5942536" lon="16.5747687"><ele>310.0</ele><time>2026-05-05T06:11:42.606Z</time></trkpt><trkpt lat="43.5942829" lon="16.5746247"><ele>309.8</ele><time>2026-05-05T06:11:43.605Z</time></trkpt><trkpt lat="43.5942997" lon="16.5744736"><ele>309.6</ele><time>2026-05-05T06:11:44.606Z</time></trkpt><trkpt lat="43.5943039" lon="16.5743164"><ele>309.4</ele><time>2026-05-05T06:11:45.605Z</time></trkpt><trkpt lat="43.5942966" lon="16.57417"><ele>309.2</ele><time>2026-05-05T06:11:46.605Z</time></trkpt><trkpt lat="43.5942849" lon="16.5740222"><ele>309.0</ele><time>2026-05-05T06:11:47.605Z</time></trkpt><trkpt lat="43.5942613" lon="16.5738941"><ele>309.0</ele><time>2026-05-05T06:11:48.605Z</time></trkpt><trkpt lat="43.5942391" lon="16.5737797"><ele>309.0</ele><time>2026-05-05T06:11:49.605Z</time></trkpt><trkpt lat="43.5942217" lon="16.5736602"><ele>309.0</ele><time>2026-05-05T06:11:50.605Z</time></trkpt><trkpt lat="43.5942186" lon="16.573545"><ele>309.0</ele><time>2026-05-05T06:11:51.606Z</time></trkpt><trkpt lat="43.5942451" lon="16.5734431"><ele>309.0</ele><time>2026-05-05T06:11:52.605Z</time></trkpt><trkpt lat="43.5942879" lon="16.5733611"><ele>309.0</ele><time>2026-05-05T06:11:53.605Z</time></trkpt><trkpt lat="43.5943411" lon="16.573287"><ele>309.0</ele><time>2026-05-05T06:11:54.606Z</time></trkpt><trkpt lat="43.5944052" lon="16.5732133"><ele>309.0</ele><time>2026-05-05T06:11:55.606Z</time></trkpt><trkpt lat="43.5944734" lon="16.5731353"><ele>309.0</ele><time>2026-05-05T06:11:56.606Z</time></trkpt><trkpt lat="43.5945409" lon="16.5730501"><ele>309.0</ele><time>2026-05-05T06:11:57.605Z</time></trkpt><trkpt lat="43.5946047" lon="16.5729632"><ele>309.0</ele><time>2026-05-05T06:11:58.606Z</time></trkpt><trkpt lat="43.5946736" lon="16.5728695"><ele>309.4</ele><time>2026-05-05T06:11:59.605Z</time></trkpt><trkpt lat="43.5947415" lon="16.5727861"><ele>309.79999999999995</ele><time>2026-05-05T06:12:00.606Z</time></trkpt><trkpt lat="43.5948178" lon="16.572701"><ele>310.20000000000005</ele><time>2026-05-05T06:12:01.605Z</time></trkpt><trkpt lat="43.5948907" lon="16.5726196"><ele>310.6</ele><time>2026-05-05T06:12:02.606Z</time></trkpt><trkpt lat="43.5949695" lon="16.5725334"><ele>311.0</ele><time>2026-05-05T06:12:03.606Z</time></trkpt><trkpt lat="43.5950422" lon="16.5724471"><ele>311.0</ele><time>2026-05-05T06:12:04.605Z</time></trkpt><trkpt lat="43.5951183" lon="16.5723594"><ele>311.0</ele><time>2026-05-05T06:12:05.605Z</time></trkpt><trkpt lat="43.5951973" lon="16.5722715"><ele>311.0</ele><time>2026-05-05T06:12:06.606Z</time></trkpt><trkpt lat="43.5952729" lon="16.5721939"><ele>311.0</ele><time>2026-05-05T06:12:07.605Z</time></trkpt><trkpt lat="43.5953403" lon="16.5721187"><ele>311.0</ele><time>2026-05-05T06:12:08.606Z</time></trkpt><trkpt lat="43.5954056" lon="16.572051"><ele>311.6666666666667</ele><time>2026-05-05T06:12:09.605Z</time></trkpt><trkpt lat="43.5954598" lon="16.5719839"><ele>312.33333333333337</ele><time>2026-05-05T06:12:10.606Z</time></trkpt><trkpt lat="43.5955141" lon="16.5719117"><ele>313.0</ele><time>2026-05-05T06:12:11.606Z</time></trkpt><trkpt lat="43.5955659" lon="16.5718466"><ele>313.6666666666667</ele><time>2026-05-05T06:12:12.606Z</time></trkpt><trkpt lat="43.5956166" lon="16.5717735"><ele>314.3333333333333</ele><time>2026-05-05T06:12:13.606Z</time></trkpt><trkpt lat="43.5956609" lon="16.5717068"><ele>315.0</ele><time>2026-05-05T06:12:14.606Z</time></trkpt><trkpt lat="43.5957298" lon="16.5715961"><ele>315.0</ele><time>2026-05-05T06:12:16.606Z</time></trkpt><trkpt lat="43.5957956" lon="16.571518"><ele>315.0</ele><time>2026-05-05T06:12:18.605Z</time></trkpt><trkpt lat="43.5958458" lon="16.5714604"><ele>315.0</ele><time>2026-05-05T06:12:20.606Z</time></trkpt><trkpt lat="43.5959267" lon="16.5713839"><ele>315.0</ele><time>2026-05-05T06:12:36.605Z</time></trkpt><trkpt lat="43.5960476" lon="16.5712254"><ele>315.0</ele><time>2026-05-05T06:12:56.606Z</time></trkpt><trkpt lat="43.5960996" lon="16.5711563"><ele>315.6</ele><time>2026-05-05T06:12:57.605Z</time></trkpt><trkpt lat="43.5961639" lon="16.571073"><ele>316.2</ele><time>2026-05-05T06:12:58.605Z</time></trkpt><trkpt lat="43.5962439" lon="16.5709678"><ele>316.8</ele><time>2026-05-05T06:12:59.606Z</time></trkpt><trkpt lat="43.596321" lon="16.570852"><ele>317.4</ele><time>2026-05-05T06:13:00.606Z</time></trkpt><trkpt lat="43.5964026" lon="16.570736"><ele>318.0</ele><time>2026-05-05T06:13:01.605Z</time></trkpt><trkpt lat="43.5964838" lon="16.5706102"><ele>318.0</ele><time>2026-05-05T06:13:02.606Z</time></trkpt><trkpt lat="43.59657" lon="16.5704714"><ele>318.0</ele><time>2026-05-05T06:13:03.605Z</time></trkpt><trkpt lat="43.5966638" lon="16.5703311"><ele>318.0</ele><time>2026-05-05T06:13:04.605Z</time></trkpt><trkpt lat="43.5967587" lon="16.5701946"><ele>318.0</ele><time>2026-05-05T06:13:05.605Z</time></trkpt><trkpt lat="43.5968529" lon="16.5700547"><ele>318.25</ele><time>2026-05-05T06:13:06.605Z</time></trkpt><trkpt lat="43.5969488" lon="16.5699107"><ele>318.5</ele><time>2026-05-05T06:13:07.605Z</time></trkpt><trkpt lat="43.5970504" lon="16.5697757"><ele>318.75</ele><time>2026-05-05T06:13:08.605Z</time></trkpt><trkpt lat="43.5971513" lon="16.5696375"><ele>319.0</ele><time>2026-05-05T06:13:09.605Z</time></trkpt><trkpt lat="43.5972544" lon="16.5695015"><ele>320.25</ele><time>2026-05-05T06:13:10.605Z</time></trkpt><trkpt lat="43.5973553" lon="16.5693638"><ele>321.5</ele><time>2026-05-05T06:13:11.606Z</time></trkpt><trkpt lat="43.597453" lon="16.5692296"><ele>322.75</ele><time>2026-05-05T06:13:12.605Z</time></trkpt><trkpt lat="43.5975468" lon="16.5691004"><ele>324.0</ele><time>2026-05-05T06:13:13.606Z</time></trkpt><trkpt lat="43.5976428" lon="16.5689683"><ele>324.0</ele><time>2026-05-05T06:13:14.606Z</time></trkpt><trkpt lat="43.5977364" lon="16.5688382"><ele>324.0</ele><time>2026-05-05T06:13:15.606Z</time></trkpt><trkpt lat="43.5978295" lon="16.5687065"><ele>324.0</ele><time>2026-05-05T06:13:16.606Z</time></trkpt><trkpt lat="43.5979235" lon="16.5685658"><ele>324.0</ele><time>2026-05-05T06:13:17.605Z</time></trkpt><trkpt lat="43.5980158" lon="16.5684288"><ele>325.5</ele><time>2026-05-05T06:13:18.606Z</time></trkpt><trkpt lat="43.5981088" lon="16.568286"><ele>327.0</ele><time>2026-05-05T06:13:19.606Z</time></trkpt><trkpt lat="43.5981987" lon="16.5681437"><ele>328.5</ele><time>2026-05-05T06:13:20.606Z</time></trkpt><trkpt lat="43.5982931" lon="16.5680003"><ele>330.0</ele><time>2026-05-05T06:13:21.605Z</time></trkpt><trkpt lat="43.5983867" lon="16.5678492"><ele>330.5</ele><time>2026-05-05T06:13:22.605Z</time></trkpt><trkpt lat="43.5984761" lon="16.5676955"><ele>331.0</ele><time>2026-05-05T06:13:23.606Z</time></trkpt><trkpt lat="43.5985649" lon="16.5675431"><ele>331.5</ele><time>2026-05-05T06:13:24.606Z</time></trkpt><trkpt lat="43.5986476" lon="16.5673835"><ele>332.0</ele><time>2026-05-05T06:13:25.606Z</time></trkpt><trkpt lat="43.5987292" lon="16.5672155"><ele>333.6666666666667</ele><time>2026-05-05T06:13:26.605Z</time></trkpt><trkpt lat="43.5988089" lon="16.567042"><ele>335.3333333333333</ele><time>2026-05-05T06:13:27.605Z</time></trkpt><trkpt lat="43.5988863" lon="16.5668592"><ele>337.0</ele><time>2026-05-05T06:13:28.606Z</time></trkpt><trkpt lat="43.5989552" lon="16.5666701"><ele>337.66666666666663</ele><time>2026-05-05T06:13:29.605Z</time></trkpt><trkpt lat="43.5990231" lon="16.5664766"><ele>338.3333333333333</ele><time>2026-05-05T06:13:30.605Z</time></trkpt><trkpt lat="43.599085" lon="16.5662707"><ele>339.0</ele><time>2026-05-05T06:13:31.605Z</time></trkpt><trkpt lat="43.5991469" lon="16.5660569"><ele>339.3333333333333</ele><time>2026-05-05T06:13:32.605Z</time></trkpt><trkpt lat="43.5992002" lon="16.5658345"><ele>339.66666666666663</ele><time>2026-05-05T06:13:33.605Z</time></trkpt><trkpt lat="43.5992485" lon="16.5656119"><ele>340.0</ele><time>2026-05-05T06:13:34.605Z</time></trkpt><trkpt lat="43.59929" lon="16.5653926"><ele>340.0</ele><time>2026-05-05T06:13:35.606Z</time></trkpt><trkpt lat="43.5993291" lon="16.5651724"><ele>340.0</ele><time>2026-05-05T06:13:36.605Z</time></trkpt><trkpt lat="43.5993616" lon="16.564948"><ele>340.0</ele><time>2026-05-05T06:13:37.606Z</time></trkpt><trkpt lat="43.599385" lon="16.5647283"><ele>340.66666666666663</ele><time>2026-05-05T06:13:38.606Z</time></trkpt><trkpt lat="43.599401" lon="16.564491"><ele>341.3333333333333</ele><time>2026-05-05T06:13:39.605Z</time></trkpt><trkpt lat="43.5994127" lon="16.5642588"><ele>342.0</ele><time>2026-05-05T06:13:40.606Z</time></trkpt><trkpt lat="43.5994227" lon="16.5640236"><ele>342.0</ele><time>2026-05-05T06:13:41.605Z</time></trkpt><trkpt lat="43.5994244" lon="16.5637935"><ele>342.0</ele><time>2026-05-05T06:13:42.606Z</time></trkpt><trkpt lat="43.599424" lon="16.5635644"><ele>342.0</ele><time>2026-05-05T06:13:43.605Z</time></trkpt><trkpt lat="43.5994199" lon="16.5633328"><ele>341.6666666666667</ele><time>2026-05-05T06:13:44.606Z</time></trkpt><trkpt lat="43.599417" lon="16.5631007"><ele>341.33333333333337</ele><time>2026-05-05T06:13:45.605Z</time></trkpt><trkpt lat="43.5994095" lon="16.5628638"><ele>341.0</ele><time>2026-05-05T06:13:46.606Z</time></trkpt><trkpt lat="43.5993935" lon="16.5626293"><ele>340.33333333333337</ele><time>2026-05-05T06:13:47.606Z</time></trkpt><trkpt lat="43.5993735" lon="16.5623928"><ele>339.6666666666667</ele><time>2026-05-05T06:13:48.605Z</time></trkpt><trkpt lat="43.599358" lon="16.5621639"><ele>339.0</ele><time>2026-05-05T06:13:49.606Z</time></trkpt><trkpt lat="43.5993378" lon="16.5619328"><ele>339.0</ele><time>2026-05-05T06:13:50.605Z</time></trkpt><trkpt lat="43.5993172" lon="16.5617027"><ele>339.0</ele><time>2026-05-05T06:13:51.606Z</time></trkpt><trkpt lat="43.5992921" lon="16.5614609"><ele>339.0</ele><time>2026-05-05T06:13:52.606Z</time></trkpt><trkpt lat="43.5992668" lon="16.5612254"><ele>339.0</ele><time>2026-05-05T06:13:53.605Z</time></trkpt><trkpt lat="43.5992434" lon="16.560987"><ele>339.0</ele><time>2026-05-05T06:13:54.605Z</time></trkpt><trkpt lat="43.5992202" lon="16.5607499"><ele>339.0</ele><time>2026-05-05T06:13:55.606Z</time></trkpt><trkpt lat="43.5991991" lon="16.5605188"><ele>339.6666666666667</ele><time>2026-05-05T06:13:56.605Z</time></trkpt><trkpt lat="43.5991754" lon="16.5602849"><ele>340.33333333333337</ele><time>2026-05-05T06:13:57.606Z</time></trkpt><trkpt lat="43.5991476" lon="16.5600514"><ele>341.0</ele><time>2026-05-05T06:13:58.605Z</time></trkpt><trkpt lat="43.5991264" lon="16.5598147"><ele>341.0</ele><time>2026-05-05T06:13:59.605Z</time></trkpt><trkpt lat="43.5991015" lon="16.5595763"><ele>341.0</ele><time>2026-05-05T06:14:00.606Z</time></trkpt><trkpt lat="43.5990739" lon="16.5593377"><ele>341.0</ele><time>2026-05-05T06:14:01.605Z</time></trkpt><trkpt lat="43.5990519" lon="16.5590992"><ele>341.0</ele><time>2026-05-05T06:14:02.605Z</time></trkpt><trkpt lat="43.5990297" lon="16.5588575"><ele>341.0</ele><time>2026-05-05T06:14:03.606Z</time></trkpt><trkpt lat="43.599006" lon="16.5586156"><ele>341.0</ele><time>2026-05-05T06:14:04.606Z</time></trkpt><trkpt lat="43.598983" lon="16.5583798"><ele>342.0</ele><time>2026-05-05T06:14:05.606Z</time></trkpt><trkpt lat="43.5989596" lon="16.5581394"><ele>343.0</ele><time>2026-05-05T06:14:06.605Z</time></trkpt><trkpt lat="43.5989358" lon="16.5579043"><ele>344.0</ele><time>2026-05-05T06:14:07.606Z</time></trkpt><trkpt lat="43.5989124" lon="16.5576689"><ele>344.33333333333337</ele><time>2026-05-05T06:14:08.606Z</time></trkpt><trkpt lat="43.5988852" lon="16.5574317"><ele>344.6666666666667</ele><time>2026-05-05T06:14:09.605Z</time></trkpt><trkpt lat="43.5988618" lon="16.5571958"><ele>345.0</ele><time>2026-05-05T06:14:10.606Z</time></trkpt><trkpt lat="43.5988376" lon="16.55696"><ele>345.6666666666667</ele><time>2026-05-05T06:14:11.606Z</time></trkpt><trkpt lat="43.5988139" lon="16.5567228"><ele>346.33333333333337</ele><time>2026-05-05T06:14:12.605Z</time></trkpt><trkpt lat="43.5987917" lon="16.5564829"><ele>347.0</ele><time>2026-05-05T06:14:13.606Z</time></trkpt><trkpt lat="43.5987688" lon="16.5562375"><ele>348.33333333333337</ele><time>2026-05-05T06:14:14.606Z</time></trkpt><trkpt lat="43.5987377" lon="16.5559879"><ele>349.6666666666667</ele><time>2026-05-05T06:14:15.606Z</time></trkpt><trkpt lat="43.5987156" lon="16.5557379"><ele>351.0</ele><time>2026-05-05T06:14:16.605Z</time></trkpt><trkpt lat="43.5986887" lon="16.5554875"><ele>348.6666666666667</ele><time>2026-05-05T06:14:17.605Z</time></trkpt><trkpt lat="43.5986647" lon="16.5552321"><ele>346.33333333333337</ele><time>2026-05-05T06:14:18.606Z</time></trkpt><trkpt lat="43.5986355" lon="16.5549769"><ele>344.0</ele><time>2026-05-05T06:14:19.606Z</time></trkpt><trkpt lat="43.5986044" lon="16.5547219"><ele>344.0</ele><time>2026-05-05T06:14:20.605Z</time></trkpt><trkpt lat="43.5985803" lon="16.5544678"><ele>344.0</ele><time>2026-05-05T06:14:21.605Z</time></trkpt><trkpt lat="43.5985623" lon="16.5542168"><ele>344.0</ele><time>2026-05-05T06:14:22.605Z</time></trkpt><trkpt lat="43.5985343" lon="16.5539567"><ele>344.0</ele><time>2026-05-05T06:14:23.605Z</time></trkpt><trkpt lat="43.5985079" lon="16.5537032"><ele>344.0</ele><time>2026-05-05T06:14:24.605Z</time></trkpt><trkpt lat="43.5984816" lon="16.553443"><ele>344.0</ele><time>2026-05-05T06:14:25.605Z</time></trkpt><trkpt lat="43.5984607" lon="16.5531815"><ele>344.0</ele><time>2026-05-05T06:14:26.606Z</time></trkpt><trkpt lat="43.5984378" lon="16.5529237"><ele>344.0</ele><time>2026-05-05T06:14:27.606Z</time></trkpt><trkpt lat="43.5984117" lon="16.5526623"><ele>344.0</ele><time>2026-05-05T06:14:28.606Z</time></trkpt><trkpt lat="43.598382" lon="16.5523974"><ele>343.33333333333337</ele><time>2026-05-05T06:14:29.606Z</time></trkpt><trkpt lat="43.598352" lon="16.5521332"><ele>342.6666666666667</ele><time>2026-05-05T06:14:30.606Z</time></trkpt><trkpt lat="43.5983234" lon="16.5518695"><ele>342.0</ele><time>2026-05-05T06:14:31.605Z</time></trkpt><trkpt lat="43.5982933" lon="16.5516034"><ele>342.0</ele><time>2026-05-05T06:14:32.605Z</time></trkpt><trkpt lat="43.598266" lon="16.5513474"><ele>342.0</ele><time>2026-05-05T06:14:33.606Z</time></trkpt><trkpt lat="43.5982373" lon="16.5510873"><ele>342.0</ele><time>2026-05-05T06:14:34.605Z</time></trkpt><trkpt lat="43.5982113" lon="16.5508323"><ele>343.0</ele><time>2026-05-05T06:14:35.605Z</time></trkpt><trkpt lat="43.5981807" lon="16.5505792"><ele>344.0</ele><time>2026-05-05T06:14:36.605Z</time></trkpt><trkpt lat="43.5981582" lon="16.5503304"><ele>345.0</ele><time>2026-05-05T06:14:37.606Z</time></trkpt><trkpt lat="43.5981343" lon="16.5500805"><ele>346.0</ele><time>2026-05-05T06:14:38.606Z</time></trkpt><trkpt lat="43.598111" lon="16.5498307"><ele>347.0</ele><time>2026-05-05T06:14:39.605Z</time></trkpt><trkpt lat="43.5980834" lon="16.5495859"><ele>348.0</ele><time>2026-05-05T06:14:40.605Z</time></trkpt><trkpt lat="43.5980573" lon="16.5493356"><ele>348.6666666666667</ele><time>2026-05-05T06:14:41.605Z</time></trkpt><trkpt lat="43.59803" lon="16.5490847"><ele>349.33333333333337</ele><time>2026-05-05T06:14:42.606Z</time></trkpt><trkpt lat="43.5980095" lon="16.5488357"><ele>350.0</ele><time>2026-05-05T06:14:43.605Z</time></trkpt><trkpt lat="43.597985" lon="16.548584"><ele>350.6666666666667</ele><time>2026-05-05T06:14:44.606Z</time></trkpt><trkpt lat="43.5979639" lon="16.5483341"><ele>351.3333333333333</ele><time>2026-05-05T06:14:45.605Z</time></trkpt><trkpt lat="43.597939" lon="16.5480835"><ele>352.0</ele><time>2026-05-05T06:14:46.605Z</time></trkpt><trkpt lat="43.5979112" lon="16.5478336"><ele>353.0</ele><time>2026-05-05T06:14:47.606Z</time></trkpt><trkpt lat="43.5978896" lon="16.5475831"><ele>354.0</ele><time>2026-05-05T06:14:48.606Z</time></trkpt><trkpt lat="43.5978698" lon="16.5473329"><ele>355.0</ele><time>2026-05-05T06:14:49.606Z</time></trkpt><trkpt lat="43.5978462" lon="16.5470855"><ele>355.0</ele><time>2026-05-05T06:14:50.606Z</time></trkpt><trkpt lat="43.5978243" lon="16.5468388"><ele>355.0</ele><time>2026-05-05T06:14:51.606Z</time></trkpt><trkpt lat="43.5978052" lon="16.5465918"><ele>355.0</ele><time>2026-05-05T06:14:52.606Z</time></trkpt><trkpt lat="43.5977862" lon="16.5463447"><ele>355.66666666666663</ele><time>2026-05-05T06:14:53.606Z</time></trkpt><trkpt lat="43.5977677" lon="16.5460951"><ele>356.3333333333333</ele><time>2026-05-05T06:14:54.606Z</time></trkpt><trkpt lat="43.5977475" lon="16.5458468"><ele>357.0</ele><time>2026-05-05T06:14:55.605Z</time></trkpt><trkpt lat="43.597728" lon="16.5455979"><ele>357.0</ele><time>2026-05-05T06:14:56.606Z</time></trkpt><trkpt lat="43.5977108" lon="16.54535"><ele>357.0</ele><time>2026-05-05T06:14:57.606Z</time></trkpt><trkpt lat="43.5976902" lon="16.5451043"><ele>357.0</ele><time>2026-05-05T06:14:58.605Z</time></trkpt><trkpt lat="43.5976668" lon="16.5448582"><ele>357.0</ele><time>2026-05-05T06:14:59.606Z</time></trkpt><trkpt lat="43.5976493" lon="16.5446133"><ele>357.0</ele><time>2026-05-05T06:15:00.606Z</time></trkpt><trkpt lat="43.5976348" lon="16.5443704"><ele>357.0</ele><time>2026-05-05T06:15:01.605Z</time></trkpt><trkpt lat="43.5976182" lon="16.5441294"><ele>357.6666666666667</ele><time>2026-05-05T06:15:02.606Z</time></trkpt><trkpt lat="43.5976008" lon="16.5438875"><ele>358.33333333333337</ele><time>2026-05-05T06:15:03.605Z</time></trkpt><trkpt lat="43.5975857" lon="16.5436519"><ele>359.0</ele><time>2026-05-05T06:15:04.605Z</time></trkpt><trkpt lat="43.5975746" lon="16.5434201"><ele>360.0</ele><time>2026-05-05T06:15:05.606Z</time></trkpt><trkpt lat="43.5975626" lon="16.5431876"><ele>361.0</ele><time>2026-05-05T06:15:06.606Z</time></trkpt><trkpt lat="43.5975521" lon="16.5429559"><ele>362.0</ele><time>2026-05-05T06:15:07.605Z</time></trkpt><trkpt lat="43.5975431" lon="16.542732"><ele>364.0</ele><time>2026-05-05T06:15:08.605Z</time></trkpt><trkpt lat="43.5975348" lon="16.542506"><ele>366.0</ele><time>2026-05-05T06:15:09.605Z</time></trkpt><trkpt lat="43.5975295" lon="16.542283"><ele>368.0</ele><time>2026-05-05T06:15:10.606Z</time></trkpt><trkpt lat="43.5975336" lon="16.5420625"><ele>368.33333333333337</ele><time>2026-05-05T06:15:11.605Z</time></trkpt><trkpt lat="43.5975415" lon="16.5418387"><ele>368.6666666666667</ele><time>2026-05-05T06:15:12.605Z</time></trkpt><trkpt lat="43.5975497" lon="16.5416051"><ele>369.0</ele><time>2026-05-05T06:15:13.605Z</time></trkpt><trkpt lat="43.59755" lon="16.5413577"><ele>370.0</ele><time>2026-05-05T06:15:14.606Z</time></trkpt><trkpt lat="43.5975448" lon="16.5410958"><ele>371.0</ele><time>2026-05-05T06:15:15.606Z</time></trkpt><trkpt lat="43.5975329" lon="16.5408167"><ele>372.0</ele><time>2026-05-05T06:15:16.605Z</time></trkpt><trkpt lat="43.5975169" lon="16.540526"><ele>373.0</ele><time>2026-05-05T06:15:17.605Z</time></trkpt><trkpt lat="43.5975044" lon="16.5402282"><ele>374.0</ele><time>2026-05-05T06:15:18.605Z</time></trkpt><trkpt lat="43.5974936" lon="16.5399223"><ele>375.0</ele><time>2026-05-05T06:15:19.605Z</time></trkpt><trkpt lat="43.5974868" lon="16.5396095"><ele>375.5</ele><time>2026-05-05T06:15:20.606Z</time></trkpt><trkpt lat="43.597479" lon="16.539294"><ele>376.0</ele><time>2026-05-05T06:15:21.605Z</time></trkpt><trkpt lat="43.5974668" lon="16.5389847"><ele>377.5</ele><time>2026-05-05T06:15:22.605Z</time></trkpt><trkpt lat="43.5974549" lon="16.5386725"><ele>379.0</ele><time>2026-05-05T06:15:23.605Z</time></trkpt><trkpt lat="43.5974567" lon="16.5383561"><ele>379.0</ele><time>2026-05-05T06:15:24.606Z</time></trkpt><trkpt lat="43.5974528" lon="16.5380384"><ele>379.0</ele><time>2026-05-05T06:15:25.606Z</time></trkpt><trkpt lat="43.5974533" lon="16.5377265"><ele>379.3333333333333</ele><time>2026-05-05T06:15:26.606Z</time></trkpt><trkpt lat="43.5974552" lon="16.5374193"><ele>379.6666666666667</ele><time>2026-05-05T06:15:27.605Z</time></trkpt><trkpt lat="43.5974582" lon="16.5371172"><ele>380.0</ele><time>2026-05-05T06:15:28.605Z</time></trkpt><trkpt lat="43.5974592" lon="16.5368172"><ele>381.0</ele><time>2026-05-05T06:15:29.606Z</time></trkpt><trkpt lat="43.5974604" lon="16.5365188"><ele>382.0</ele><time>2026-05-05T06:15:30.606Z</time></trkpt><trkpt lat="43.597455" lon="16.5362145"><ele>383.0</ele><time>2026-05-05T06:15:31.605Z</time></trkpt><trkpt lat="43.597454" lon="16.5359086"><ele>384.33333333333337</ele><time>2026-05-05T06:15:32.606Z</time></trkpt><trkpt lat="43.5974525" lon="16.5356047"><ele>385.6666666666667</ele><time>2026-05-05T06:15:33.605Z</time></trkpt><trkpt lat="43.597455" lon="16.5352963"><ele>387.0</ele><time>2026-05-05T06:15:34.606Z</time></trkpt><trkpt lat="43.5974554" lon="16.5349872"><ele>387.33333333333337</ele><time>2026-05-05T06:15:35.606Z</time></trkpt><trkpt lat="43.5974571" lon="16.5346768"><ele>387.6666666666667</ele><time>2026-05-05T06:15:36.606Z</time></trkpt><trkpt lat="43.597463" lon="16.5343714"><ele>388.0</ele><time>2026-05-05T06:15:37.606Z</time></trkpt><trkpt lat="43.5974657" lon="16.534059"><ele>388.0</ele><time>2026-05-05T06:15:38.606Z</time></trkpt><trkpt lat="43.5974654" lon="16.5337491"><ele>388.0</ele><time>2026-05-05T06:15:39.605Z</time></trkpt><trkpt lat="43.5974685" lon="16.5334382"><ele>388.5</ele><time>2026-05-05T06:15:40.605Z</time></trkpt><trkpt lat="43.5974743" lon="16.5331226"><ele>389.0</ele><time>2026-05-05T06:15:41.606Z</time></trkpt><trkpt lat="43.5974789" lon="16.5328095"><ele>388.0</ele><time>2026-05-05T06:15:42.606Z</time></trkpt><trkpt lat="43.5974788" lon="16.5324903"><ele>387.0</ele><time>2026-05-05T06:15:43.605Z</time></trkpt><trkpt lat="43.597477" lon="16.5321694"><ele>386.0</ele><time>2026-05-05T06:15:44.606Z</time></trkpt><trkpt lat="43.5974745" lon="16.5318468"><ele>385.0</ele><time>2026-05-05T06:15:45.605Z</time></trkpt><trkpt lat="43.5974746" lon="16.5315217"><ele>383.5</ele><time>2026-05-05T06:15:46.605Z</time></trkpt><trkpt lat="43.5974703" lon="16.531193"><ele>382.0</ele><time>2026-05-05T06:15:47.605Z</time></trkpt><trkpt lat="43.5974725" lon="16.5308619"><ele>382.0</ele><time>2026-05-05T06:15:48.606Z</time></trkpt><trkpt lat="43.5974774" lon="16.5305298"><ele>382.0</ele><time>2026-05-05T06:15:49.605Z</time></trkpt><trkpt lat="43.5974826" lon="16.5301992"><ele>381.5</ele><time>2026-05-05T06:15:50.606Z</time></trkpt><trkpt lat="43.5974847" lon="16.5298652"><ele>381.0</ele><time>2026-05-05T06:15:51.606Z</time></trkpt><trkpt lat="43.597485" lon="16.5295367"><ele>379.0</ele><time>2026-05-05T06:15:52.605Z</time></trkpt><trkpt lat="43.5974846" lon="16.5292045"><ele>377.0</ele><time>2026-05-05T06:15:53.606Z</time></trkpt><trkpt lat="43.5974846" lon="16.5288726"><ele>375.5</ele><time>2026-05-05T06:15:54.606Z</time></trkpt><trkpt lat="43.597483" lon="16.5285388"><ele>374.0</ele><time>2026-05-05T06:15:55.605Z</time></trkpt><trkpt lat="43.5974792" lon="16.5282036"><ele>373.5</ele><time>2026-05-05T06:15:56.605Z</time></trkpt><trkpt lat="43.5974756" lon="16.5278651"><ele>373.0</ele><time>2026-05-05T06:15:57.605Z</time></trkpt><trkpt lat="43.5974742" lon="16.5275223"><ele>373.0</ele><time>2026-05-05T06:15:58.606Z</time></trkpt><trkpt lat="43.5974689" lon="16.5271804"><ele>373.0</ele><time>2026-05-05T06:15:59.606Z</time></trkpt><trkpt lat="43.5974617" lon="16.5268334"><ele>371.0</ele><time>2026-05-05T06:16:00.605Z</time></trkpt><trkpt lat="43.5974545" lon="16.5264845"><ele>369.0</ele><time>2026-05-05T06:16:01.605Z</time></trkpt><trkpt lat="43.5974419" lon="16.5261341"><ele>367.5</ele><time>2026-05-05T06:16:02.606Z</time></trkpt><trkpt lat="43.5974259" lon="16.5257847"><ele>366.0</ele><time>2026-05-05T06:16:03.606Z</time></trkpt><trkpt lat="43.597405" lon="16.5254329"><ele>365.5</ele><time>2026-05-05T06:16:04.605Z</time></trkpt><trkpt lat="43.5973781" lon="16.5250772"><ele>365.0</ele><time>2026-05-05T06:16:05.605Z</time></trkpt><trkpt lat="43.5973463" lon="16.5247187"><ele>365.0</ele><time>2026-05-05T06:16:06.605Z</time></trkpt><trkpt lat="43.5973077" lon="16.5243561"><ele>365.0</ele><time>2026-05-05T06:16:07.605Z</time></trkpt><trkpt lat="43.5972648" lon="16.5239947"><ele>365.0</ele><time>2026-05-05T06:16:08.606Z</time></trkpt><trkpt lat="43.5972149" lon="16.5236295"><ele>365.0</ele><time>2026-05-05T06:16:09.605Z</time></trkpt><trkpt lat="43.5971613" lon="16.5232639"><ele>365.0</ele><time>2026-05-05T06:16:10.606Z</time></trkpt><trkpt lat="43.5971025" lon="16.5228995"><ele>365.0</ele><time>2026-05-05T06:16:11.605Z</time></trkpt><trkpt lat="43.5970415" lon="16.5225361"><ele>361.0</ele><time>2026-05-05T06:16:12.605Z</time></trkpt><trkpt lat="43.5969791" lon="16.5221743"><ele>357.0</ele><time>2026-05-05T06:16:13.606Z</time></trkpt><trkpt lat="43.5969115" lon="16.5218107"><ele>356.0</ele><time>2026-05-05T06:16:14.605Z</time></trkpt><trkpt lat="43.5968412" lon="16.521448"><ele>355.0</ele><time>2026-05-05T06:16:15.605Z</time></trkpt><trkpt lat="43.5967674" lon="16.5210833"><ele>354.5</ele><time>2026-05-05T06:16:16.606Z</time></trkpt><trkpt lat="43.5966955" lon="16.5207133"><ele>354.0</ele><time>2026-05-05T06:16:17.606Z</time></trkpt><trkpt lat="43.5966235" lon="16.5203454"><ele>353.5</ele><time>2026-05-05T06:16:18.605Z</time></trkpt><trkpt lat="43.5965522" lon="16.5199741"><ele>353.0</ele><time>2026-05-05T06:16:19.606Z</time></trkpt><trkpt lat="43.596477" lon="16.5196012"><ele>353.0</ele><time>2026-05-05T06:16:20.606Z</time></trkpt><trkpt lat="43.5964072" lon="16.5192328"><ele>353.0</ele><time>2026-05-05T06:16:21.605Z</time></trkpt><trkpt lat="43.5963404" lon="16.518863"><ele>353.5</ele><time>2026-05-05T06:16:22.606Z</time></trkpt><trkpt lat="43.5962792" lon="16.5184866"><ele>354.0</ele><time>2026-05-05T06:16:23.605Z</time></trkpt><trkpt lat="43.5962163" lon="16.518111"><ele>351.5</ele><time>2026-05-05T06:16:24.605Z</time></trkpt><trkpt lat="43.5961587" lon="16.5177317"><ele>349.0</ele><time>2026-05-05T06:16:25.605Z</time></trkpt><trkpt lat="43.5961041" lon="16.5173497"><ele>348.5</ele><time>2026-05-05T06:16:26.606Z</time></trkpt><trkpt lat="43.596056" lon="16.5169681"><ele>348.0</ele><time>2026-05-05T06:16:27.606Z</time></trkpt><trkpt lat="43.5960062" lon="16.5165904"><ele>346.0</ele><time>2026-05-05T06:16:28.606Z</time></trkpt><trkpt lat="43.5959572" lon="16.516203"><ele>344.0</ele><time>2026-05-05T06:16:29.605Z</time></trkpt><trkpt lat="43.5959179" lon="16.5158216"><ele>344.0</ele><time>2026-05-05T06:16:30.606Z</time></trkpt><trkpt lat="43.5958804" lon="16.5154316"><ele>344.0</ele><time>2026-05-05T06:16:31.605Z</time></trkpt><trkpt lat="43.5958484" lon="16.5150419"><ele>343.5</ele><time>2026-05-05T06:16:32.606Z</time></trkpt><trkpt lat="43.5958224" lon="16.514652"><ele>343.0</ele><time>2026-05-05T06:16:33.605Z</time></trkpt><trkpt lat="43.5957997" lon="16.5142642"><ele>343.0</ele><time>2026-05-05T06:16:34.605Z</time></trkpt><trkpt lat="43.5957773" lon="16.5138748"><ele>343.0</ele><time>2026-05-05T06:16:35.605Z</time></trkpt><trkpt lat="43.5957626" lon="16.5134888"><ele>341.5</ele><time>2026-05-05T06:16:36.605Z</time></trkpt><trkpt lat="43.5957513" lon="16.5130997"><ele>340.0</ele><time>2026-05-05T06:16:37.605Z</time></trkpt><trkpt lat="43.5957471" lon="16.5127047"><ele>340.0</ele><time>2026-05-05T06:16:38.606Z</time></trkpt><trkpt lat="43.5957468" lon="16.5123128"><ele>340.0</ele><time>2026-05-05T06:16:39.605Z</time></trkpt><trkpt lat="43.5957481" lon="16.5119251"><ele>339.0</ele><time>2026-05-05T06:16:40.605Z</time></trkpt><trkpt lat="43.5957545" lon="16.5115388"><ele>338.0</ele><time>2026-05-05T06:16:41.605Z</time></trkpt><trkpt lat="43.5957628" lon="16.5111483"><ele>338.0</ele><time>2026-05-05T06:16:42.605Z</time></trkpt><trkpt lat="43.5957737" lon="16.510762"><ele>338.0</ele><time>2026-05-05T06:16:43.606Z</time></trkpt><trkpt lat="43.5957925" lon="16.5103794"><ele>338.0</ele><time>2026-05-05T06:16:44.606Z</time></trkpt><trkpt lat="43.5958144" lon="16.5099944"><ele>338.0</ele><time>2026-05-05T06:16:45.605Z</time></trkpt><trkpt lat="43.5958401" lon="16.5096148"><ele>338.5</ele><time>2026-05-05T06:16:46.605Z</time></trkpt><trkpt lat="43.5958708" lon="16.5092361"><ele>339.0</ele><time>2026-05-05T06:16:47.606Z</time></trkpt><trkpt lat="43.5959017" lon="16.5088573"><ele>338.0</ele><time>2026-05-05T06:16:48.605Z</time></trkpt><trkpt lat="43.5959394" lon="16.5084818"><ele>337.0</ele><time>2026-05-05T06:16:49.606Z</time></trkpt><trkpt lat="43.5959839" lon="16.5081117"><ele>336.5</ele><time>2026-05-05T06:16:50.606Z</time></trkpt><trkpt lat="43.5960254" lon="16.5077416"><ele>336.0</ele><time>2026-05-05T06:16:51.605Z</time></trkpt><trkpt lat="43.5960719" lon="16.5073736"><ele>336.5</ele><time>2026-05-05T06:16:52.606Z</time></trkpt><trkpt lat="43.5961194" lon="16.5070041"><ele>337.0</ele><time>2026-05-05T06:16:53.605Z</time></trkpt><trkpt lat="43.5961682" lon="16.5066401"><ele>336.5</ele><time>2026-05-05T06:16:54.605Z</time></trkpt><trkpt lat="43.5962189" lon="16.506274"><ele>336.0</ele><time>2026-05-05T06:16:55.606Z</time></trkpt><trkpt lat="43.5962745" lon="16.5059049"><ele>335.0</ele><time>2026-05-05T06:16:56.606Z</time></trkpt><trkpt lat="43.5963314" lon="16.5055393"><ele>334.0</ele><time>2026-05-05T06:16:57.605Z</time></trkpt><trkpt lat="43.596383" lon="16.5051731"><ele>334.0</ele><time>2026-05-05T06:16:58.606Z</time></trkpt><trkpt lat="43.5964344" lon="16.5048063"><ele>334.0</ele><time>2026-05-05T06:16:59.606Z</time></trkpt><trkpt lat="43.5964874" lon="16.5044446"><ele>333.0</ele><time>2026-05-05T06:17:00.605Z</time></trkpt><trkpt lat="43.596536" lon="16.5040775"><ele>332.0</ele><time>2026-05-05T06:17:01.605Z</time></trkpt><trkpt lat="43.5965828" lon="16.5037024"><ele>331.0</ele><time>2026-05-05T06:17:02.606Z</time></trkpt><trkpt lat="43.5966355" lon="16.5033286"><ele>330.0</ele><time>2026-05-05T06:17:03.606Z</time></trkpt><trkpt lat="43.5966942" lon="16.5029557"><ele>331.0</ele><time>2026-05-05T06:17:04.605Z</time></trkpt><trkpt lat="43.5967461" lon="16.5025869"><ele>332.0</ele><time>2026-05-05T06:17:05.606Z</time></trkpt><trkpt lat="43.5967983" lon="16.5022198"><ele>331.5</ele><time>2026-05-05T06:17:06.606Z</time></trkpt><trkpt lat="43.5968482" lon="16.5018509"><ele>331.0</ele><time>2026-05-05T06:17:07.605Z</time></trkpt><trkpt lat="43.5969024" lon="16.5014845"><ele>331.0</ele><time>2026-05-05T06:17:08.605Z</time></trkpt><trkpt lat="43.5969569" lon="16.5011296"><ele>331.0</ele><time>2026-05-05T06:17:09.606Z</time></trkpt><trkpt lat="43.5970092" lon="16.5007813"><ele>331.0</ele><time>2026-05-05T06:17:10.606Z</time></trkpt><trkpt lat="43.5970586" lon="16.5004385"><ele>331.0</ele><time>2026-05-05T06:17:11.606Z</time></trkpt><trkpt lat="43.5971072" lon="16.5001042"><ele>332.0</ele><time>2026-05-05T06:17:12.606Z</time></trkpt><trkpt lat="43.5971579" lon="16.4997778"><ele>333.0</ele><time>2026-05-05T06:17:13.605Z</time></trkpt><trkpt lat="43.5972078" lon="16.499458"><ele>333.0</ele><time>2026-05-05T06:17:14.605Z</time></trkpt><trkpt lat="43.5972495" lon="16.4991421"><ele>333.0</ele><time>2026-05-05T06:17:15.606Z</time></trkpt><trkpt lat="43.5972972" lon="16.4988266"><ele>333.5</ele><time>2026-05-05T06:17:16.606Z</time></trkpt><trkpt lat="43.5973463" lon="16.498512"><ele>334.0</ele><time>2026-05-05T06:17:17.605Z</time></trkpt><trkpt lat="43.5973894" lon="16.4981994"><ele>336.0</ele><time>2026-05-05T06:17:18.606Z</time></trkpt><trkpt lat="43.5974306" lon="16.4978878"><ele>338.0</ele><time>2026-05-05T06:17:19.606Z</time></trkpt><trkpt lat="43.5974792" lon="16.4975792"><ele>338.0</ele><time>2026-05-05T06:17:20.606Z</time></trkpt><trkpt lat="43.5975243" lon="16.497271"><ele>338.0</ele><time>2026-05-05T06:17:21.605Z</time></trkpt><trkpt lat="43.5975682" lon="16.4969513"><ele>339.5</ele><time>2026-05-05T06:17:22.606Z</time></trkpt><trkpt lat="43.5976108" lon="16.4966364"><ele>341.0</ele><time>2026-05-05T06:17:23.605Z</time></trkpt><trkpt lat="43.5976446" lon="16.4963259"><ele>342.0</ele><time>2026-05-05T06:17:24.605Z</time></trkpt><trkpt lat="43.5976911" lon="16.4960164"><ele>343.0</ele><time>2026-05-05T06:17:25.606Z</time></trkpt><trkpt lat="43.5977245" lon="16.495709"><ele>345.0</ele><time>2026-05-05T06:17:26.605Z</time></trkpt><trkpt lat="43.597742" lon="16.4954025"><ele>347.0</ele><time>2026-05-05T06:17:27.606Z</time></trkpt><trkpt lat="43.5977629" lon="16.4950967"><ele>349.0</ele><time>2026-05-05T06:17:28.605Z</time></trkpt><trkpt lat="43.5977803" lon="16.4947909"><ele>346.0</ele><time>2026-05-05T06:17:29.606Z</time></trkpt><trkpt lat="43.592648" lon="16.4813188"><ele>351.0</ele><time>2026-05-05T06:18:23.606Z</time></trkpt><trkpt lat="43.5924979" lon="16.4810724"><ele>356.0</ele><time>2026-05-05T06:18:24.605Z</time></trkpt><trkpt lat="43.5923372" lon="16.4808046"><ele>356.0</ele><time>2026-05-05T06:18:25.606Z</time></trkpt><trkpt lat="43.5921943" lon="16.4805241"><ele>356.0</ele><time>2026-05-05T06:18:26.605Z</time></trkpt><trkpt lat="43.5920566" lon="16.4802515"><ele>346.5</ele><time>2026-05-05T06:18:27.605Z</time></trkpt><trkpt lat="43.5919194" lon="16.4799673"><ele>337.0</ele><time>2026-05-05T06:18:28.606Z</time></trkpt><trkpt lat="43.5917871" lon="16.479669"><ele>337.5</ele><time>2026-05-05T06:18:29.605Z</time></trkpt><trkpt lat="43.5916557" lon="16.4793702"><ele>338.0</ele><time>2026-05-05T06:18:30.606Z</time></trkpt><trkpt lat="43.5915288" lon="16.4790671"><ele>336.5</ele><time>2026-05-05T06:18:31.606Z</time></trkpt><trkpt lat="43.5914088" lon="16.4787576"><ele>335.0</ele><time>2026-05-05T06:18:32.605Z</time></trkpt><trkpt lat="43.5912972" lon="16.4784412"><ele>335.0</ele><time>2026-05-05T06:18:33.605Z</time></trkpt><trkpt lat="43.5911917" lon="16.4781188"><ele>335.0</ele><time>2026-05-05T06:18:34.606Z</time></trkpt><trkpt lat="43.5910927" lon="16.477791"><ele>333.0</ele><time>2026-05-05T06:18:35.605Z</time></trkpt><trkpt lat="43.5909997" lon="16.4774555"><ele>331.0</ele><time>2026-05-05T06:18:36.606Z</time></trkpt><trkpt lat="43.5909127" lon="16.4771143"><ele>331.0</ele><time>2026-05-05T06:18:37.605Z</time></trkpt><trkpt lat="43.590829" lon="16.4767684"><ele>331.0</ele><time>2026-05-05T06:18:38.606Z</time></trkpt><trkpt lat="43.5907609" lon="16.4764233"><ele>332.0</ele><time>2026-05-05T06:18:39.606Z</time></trkpt><trkpt lat="43.5906834" lon="16.4760693"><ele>333.0</ele><time>2026-05-05T06:18:40.606Z</time></trkpt><trkpt lat="43.5906046" lon="16.4757162"><ele>336.5</ele><time>2026-05-05T06:18:41.606Z</time></trkpt><trkpt lat="43.5905264" lon="16.4753604"><ele>340.0</ele><time>2026-05-05T06:18:42.605Z</time></trkpt><trkpt lat="43.5904496" lon="16.4750021"><ele>340.0</ele><time>2026-05-05T06:18:43.606Z</time></trkpt><trkpt lat="43.5903719" lon="16.4746407"><ele>340.0</ele><time>2026-05-05T06:18:44.606Z</time></trkpt><trkpt lat="43.5902982" lon="16.4742789"><ele>339.0</ele><time>2026-05-05T06:18:45.605Z</time></trkpt><trkpt lat="43.5902269" lon="16.4739152"><ele>338.0</ele><time>2026-05-05T06:18:46.605Z</time></trkpt><trkpt lat="43.5901496" lon="16.4735478"><ele>338.0</ele><time>2026-05-05T06:18:47.605Z</time></trkpt><trkpt lat="43.5900715" lon="16.4731797"><ele>338.0</ele><time>2026-05-05T06:18:48.605Z</time></trkpt><trkpt lat="43.5899947" lon="16.4728113"><ele>342.0</ele><time>2026-05-05T06:18:49.606Z</time></trkpt><trkpt lat="43.5899133" lon="16.4724408"><ele>346.0</ele><time>2026-05-05T06:18:50.606Z</time></trkpt><trkpt lat="43.5898302" lon="16.4720689"><ele>350.0</ele><time>2026-05-05T06:18:51.605Z</time></trkpt><trkpt lat="43.5897519" lon="16.4716987"><ele>354.0</ele><time>2026-05-05T06:18:52.605Z</time></trkpt><trkpt lat="43.5896707" lon="16.4713293"><ele>357.5</ele><time>2026-05-05T06:18:53.606Z</time></trkpt><trkpt lat="43.5895909" lon="16.4709557"><ele>361.0</ele><time>2026-05-05T06:18:54.605Z</time></trkpt><trkpt lat="43.5895129" lon="16.4705766"><ele>349.5</ele><time>2026-05-05T06:18:55.606Z</time></trkpt><trkpt lat="43.5894312" lon="16.470202"><ele>338.0</ele><time>2026-05-05T06:18:56.606Z</time></trkpt><trkpt lat="43.5893499" lon="16.4698233"><ele>339.5</ele><time>2026-05-05T06:18:57.605Z</time></trkpt><trkpt lat="43.5892654" lon="16.4694451"><ele>341.0</ele><time>2026-05-05T06:18:58.606Z</time></trkpt><trkpt lat="43.5891845" lon="16.4690688"><ele>340.5</ele><time>2026-05-05T06:18:59.605Z</time></trkpt><trkpt lat="43.5891049" lon="16.4686886"><ele>340.0</ele><time>2026-05-05T06:19:00.606Z</time></trkpt><trkpt lat="43.5890242" lon="16.4683097"><ele>339.5</ele><time>2026-05-05T06:19:01.606Z</time></trkpt><trkpt lat="43.5889451" lon="16.4679295"><ele>339.0</ele><time>2026-05-05T06:19:02.606Z</time></trkpt><trkpt lat="43.5888699" lon="16.4675498"><ele>339.0</ele><time>2026-05-05T06:19:03.605Z</time></trkpt><trkpt lat="43.5887913" lon="16.4671721"><ele>339.0</ele><time>2026-05-05T06:19:04.606Z</time></trkpt><trkpt lat="43.5887124" lon="16.466793"><ele>336.5</ele><time>2026-05-05T06:19:05.606Z</time></trkpt><trkpt lat="43.5886362" lon="16.4664193"><ele>334.0</ele><time>2026-05-05T06:19:06.605Z</time></trkpt><trkpt lat="43.5885583" lon="16.4660404"><ele>334.0</ele><time>2026-05-05T06:19:07.606Z</time></trkpt><trkpt lat="43.5884819" lon="16.4656669"><ele>334.0</ele><time>2026-05-05T06:19:08.605Z</time></trkpt><trkpt lat="43.5884099" lon="16.4652921"><ele>335.5</ele><time>2026-05-05T06:19:09.605Z</time></trkpt><trkpt lat="43.5883325" lon="16.4649172"><ele>337.0</ele><time>2026-05-05T06:19:10.605Z</time></trkpt><trkpt lat="43.5882543" lon="16.4645446"><ele>337.0</ele><time>2026-05-05T06:19:11.605Z</time></trkpt><trkpt lat="43.5881776" lon="16.4641725"><ele>337.0</ele><time>2026-05-05T06:19:12.606Z</time></trkpt><trkpt lat="43.5880998" lon="16.4638019"><ele>337.5</ele><time>2026-05-05T06:19:13.606Z</time></trkpt><trkpt lat="43.5880217" lon="16.4634312"><ele>338.0</ele><time>2026-05-05T06:19:14.606Z</time></trkpt><trkpt lat="43.5879458" lon="16.4630621"><ele>339.0</ele><time>2026-05-05T06:19:15.606Z</time></trkpt><trkpt lat="43.587872" lon="16.462695"><ele>340.0</ele><time>2026-05-05T06:19:16.606Z</time></trkpt><trkpt lat="43.5877949" lon="16.4623296"><ele>340.5</ele><time>2026-05-05T06:19:17.605Z</time></trkpt><trkpt lat="43.5877157" lon="16.461966"><ele>341.0</ele><time>2026-05-05T06:19:18.605Z</time></trkpt><trkpt lat="43.5876342" lon="16.4616044"><ele>342.0</ele><time>2026-05-05T06:19:19.605Z</time></trkpt><trkpt lat="43.5875538" lon="16.4612462"><ele>343.0</ele><time>2026-05-05T06:19:20.606Z</time></trkpt><trkpt lat="43.5874784" lon="16.4608856"><ele>343.0</ele><time>2026-05-05T06:19:21.606Z</time></trkpt><trkpt lat="43.5874054" lon="16.4605252"><ele>343.0</ele><time>2026-05-05T06:19:22.606Z</time></trkpt><trkpt lat="43.5873338" lon="16.4601626"><ele>343.5</ele><time>2026-05-05T06:19:23.605Z</time></trkpt><trkpt lat="43.5872582" lon="16.4597971"><ele>344.0</ele><time>2026-05-05T06:19:24.605Z</time></trkpt><trkpt lat="43.5871792" lon="16.4594321"><ele>344.0</ele><time>2026-05-05T06:19:25.606Z</time></trkpt><trkpt lat="43.587105" lon="16.4590671"><ele>344.0</ele><time>2026-05-05T06:19:26.606Z</time></trkpt><trkpt lat="43.5870346" lon="16.4587019"><ele>347.0</ele><time>2026-05-05T06:19:27.606Z</time></trkpt><trkpt lat="43.5869654" lon="16.4583364"><ele>350.0</ele><time>2026-05-05T06:19:28.605Z</time></trkpt><trkpt lat="43.5869035" lon="16.4579686"><ele>351.5</ele><time>2026-05-05T06:19:29.606Z</time></trkpt><trkpt lat="43.5868466" lon="16.457602"><ele>353.0</ele><time>2026-05-05T06:19:30.606Z</time></trkpt><trkpt lat="43.5867962" lon="16.4572338"><ele>354.5</ele><time>2026-05-05T06:19:31.606Z</time></trkpt><trkpt lat="43.5867489" lon="16.4568625"><ele>356.0</ele><time>2026-05-05T06:19:32.606Z</time></trkpt><trkpt lat="43.5867061" lon="16.4564967"><ele>357.5</ele><time>2026-05-05T06:19:33.606Z</time></trkpt><trkpt lat="43.5866702" lon="16.4561314"><ele>359.0</ele><time>2026-05-05T06:19:34.606Z</time></trkpt><trkpt lat="43.5866383" lon="16.4557633"><ele>360.0</ele><time>2026-05-05T06:19:35.605Z</time></trkpt><trkpt lat="43.5866106" lon="16.4553954"><ele>361.0</ele><time>2026-05-05T06:19:36.606Z</time></trkpt><trkpt lat="43.5865881" lon="16.4550273"><ele>361.0</ele><time>2026-05-05T06:19:37.605Z</time></trkpt><trkpt lat="43.5865707" lon="16.4546573"><ele>361.0</ele><time>2026-05-05T06:19:38.606Z</time></trkpt><trkpt lat="43.5865575" lon="16.4542853"><ele>361.5</ele><time>2026-05-05T06:19:39.606Z</time></trkpt><trkpt lat="43.5865583" lon="16.4539117"><ele>362.0</ele><time>2026-05-05T06:19:40.605Z</time></trkpt><trkpt lat="43.5865634" lon="16.4535389"><ele>363.0</ele><time>2026-05-05T06:19:41.606Z</time></trkpt><trkpt lat="43.5865654" lon="16.4531648"><ele>364.0</ele><time>2026-05-05T06:19:42.606Z</time></trkpt><trkpt lat="43.5865776" lon="16.4527893"><ele>365.5</ele><time>2026-05-05T06:19:43.606Z</time></trkpt><trkpt lat="43.5865934" lon="16.4524142"><ele>367.0</ele><time>2026-05-05T06:19:44.605Z</time></trkpt><trkpt lat="43.5866134" lon="16.4520391"><ele>368.5</ele><time>2026-05-05T06:19:45.605Z</time></trkpt><trkpt lat="43.5866344" lon="16.4516643"><ele>370.0</ele><time>2026-05-05T06:19:46.605Z</time></trkpt><trkpt lat="43.5866643" lon="16.4512894"><ele>373.5</ele><time>2026-05-05T06:19:47.605Z</time></trkpt><trkpt lat="43.5867" lon="16.4509164"><ele>377.0</ele><time>2026-05-05T06:19:48.605Z</time></trkpt><trkpt lat="43.5867389" lon="16.4505435"><ele>379.0</ele><time>2026-05-05T06:19:49.606Z</time></trkpt><trkpt lat="43.5867851" lon="16.4501726"><ele>381.0</ele><time>2026-05-05T06:19:50.605Z</time></trkpt><trkpt lat="43.5868361" lon="16.4498032"><ele>384.0</ele><time>2026-05-05T06:19:51.605Z</time></trkpt><trkpt lat="43.5868888" lon="16.4494339"><ele>387.0</ele><time>2026-05-05T06:19:52.606Z</time></trkpt><trkpt lat="43.5869496" lon="16.4490617"><ele>383.0</ele><time>2026-05-05T06:19:53.605Z</time></trkpt><trkpt lat="43.5870119" lon="16.4486985"><ele>379.0</ele><time>2026-05-05T06:19:54.606Z</time></trkpt><trkpt lat="43.5870762" lon="16.4483382"><ele>379.0</ele><time>2026-05-05T06:19:55.606Z</time></trkpt><trkpt lat="43.5871371" lon="16.4479784"><ele>379.0</ele><time>2026-05-05T06:19:56.606Z</time></trkpt><trkpt lat="43.5871972" lon="16.4476214"><ele>380.5</ele><time>2026-05-05T06:19:57.606Z</time></trkpt><trkpt lat="43.5872584" lon="16.4472659"><ele>382.0</ele><time>2026-05-05T06:19:58.605Z</time></trkpt><trkpt lat="43.5873174" lon="16.4469104"><ele>383.5</ele><time>2026-05-05T06:19:59.605Z</time></trkpt><trkpt lat="43.5873797" lon="16.4465574"><ele>385.0</ele><time>2026-05-05T06:20:00.605Z</time></trkpt><trkpt lat="43.5874411" lon="16.4462013"><ele>387.0</ele><time>2026-05-05T06:20:01.606Z</time></trkpt><trkpt lat="43.5875028" lon="16.4458509"><ele>389.0</ele><time>2026-05-05T06:20:02.606Z</time></trkpt><trkpt lat="43.5875641" lon="16.445504"><ele>389.0</ele><time>2026-05-05T06:20:03.605Z</time></trkpt><trkpt lat="43.5876208" lon="16.4451615"><ele>389.0</ele><time>2026-05-05T06:20:04.605Z</time></trkpt><trkpt lat="43.5876778" lon="16.4448196"><ele>391.0</ele><time>2026-05-05T06:20:05.606Z</time></trkpt><trkpt lat="43.5877361" lon="16.4444827"><ele>393.0</ele><time>2026-05-05T06:20:06.605Z</time></trkpt><trkpt lat="43.5877957" lon="16.4441445"><ele>394.5</ele><time>2026-05-05T06:20:07.606Z</time></trkpt><trkpt lat="43.5878532" lon="16.4438075"><ele>396.0</ele><time>2026-05-05T06:20:08.605Z</time></trkpt><trkpt lat="43.5879144" lon="16.4434665"><ele>397.5</ele><time>2026-05-05T06:20:09.606Z</time></trkpt><trkpt lat="43.5879733" lon="16.4431287"><ele>399.0</ele><time>2026-05-05T06:20:10.606Z</time></trkpt><trkpt lat="43.5880377" lon="16.442787"><ele>401.5</ele><time>2026-05-05T06:20:11.605Z</time></trkpt><trkpt lat="43.5880986" lon="16.4424333"><ele>404.0</ele><time>2026-05-05T06:20:12.605Z</time></trkpt><trkpt lat="43.5881649" lon="16.4420833"><ele>406.0</ele><time>2026-05-05T06:20:13.606Z</time></trkpt><trkpt lat="43.5882264" lon="16.4417294"><ele>408.0</ele><time>2026-05-05T06:20:14.606Z</time></trkpt><trkpt lat="43.5882966" lon="16.4413679"><ele>409.0</ele><time>2026-05-05T06:20:15.606Z</time></trkpt><trkpt lat="43.5883658" lon="16.4410064"><ele>410.0</ele><time>2026-05-05T06:20:16.605Z</time></trkpt><trkpt lat="43.5884284" lon="16.4406473"><ele>411.0</ele><time>2026-05-05T06:20:17.606Z</time></trkpt><trkpt lat="43.5884901" lon="16.4402874"><ele>412.0</ele><time>2026-05-05T06:20:18.606Z</time></trkpt><trkpt lat="43.588552" lon="16.4399283"><ele>412.5</ele><time>2026-05-05T06:20:19.606Z</time></trkpt><trkpt lat="43.5886159" lon="16.4395681"><ele>413.0</ele><time>2026-05-05T06:20:20.606Z</time></trkpt><trkpt lat="43.5886815" lon="16.4392114"><ele>411.0</ele><time>2026-05-05T06:20:21.605Z</time></trkpt><trkpt lat="43.5887491" lon="16.4388551"><ele>409.0</ele><time>2026-05-05T06:20:22.606Z</time></trkpt><trkpt lat="43.5888167" lon="16.4384981"><ele>409.0</ele><time>2026-05-05T06:20:23.605Z</time></trkpt><trkpt lat="43.5889092" lon="16.4380355"><ele>409.0</ele><time>2026-05-05T06:20:24.605Z</time></trkpt><trkpt lat="43.5889561" lon="16.4376502"><ele>408.5</ele><time>2026-05-05T06:20:25.605Z</time></trkpt><trkpt lat="43.588996" lon="16.4372785"><ele>408.0</ele><time>2026-05-05T06:20:26.606Z</time></trkpt><trkpt lat="43.5890623" lon="16.4369206"><ele>407.0</ele><time>2026-05-05T06:20:27.606Z</time></trkpt><trkpt lat="43.5891306" lon="16.4365578"><ele>406.0</ele><time>2026-05-05T06:20:28.605Z</time></trkpt><trkpt lat="43.5891809" lon="16.4361808"><ele>403.0</ele><time>2026-05-05T06:20:29.605Z</time></trkpt><trkpt lat="43.5892307" lon="16.4358119"><ele>400.0</ele><time>2026-05-05T06:20:30.606Z</time></trkpt><trkpt lat="43.5892916" lon="16.4354469"><ele>398.5</ele><time>2026-05-05T06:20:31.605Z</time></trkpt><trkpt lat="43.5893413" lon="16.4350786"><ele>397.0</ele><time>2026-05-05T06:20:32.605Z</time></trkpt><trkpt lat="43.5893889" lon="16.4347118"><ele>396.5</ele><time>2026-05-05T06:20:33.606Z</time></trkpt><trkpt lat="43.5894261" lon="16.4343464"><ele>396.0</ele><time>2026-05-05T06:20:34.605Z</time></trkpt><trkpt lat="43.5894711" lon="16.4339751"><ele>393.5</ele><time>2026-05-05T06:20:35.605Z</time></trkpt><trkpt lat="43.589514" lon="16.4336119"><ele>391.0</ele><time>2026-05-05T06:20:36.605Z</time></trkpt><trkpt lat="43.5895524" lon="16.43325"><ele>389.5</ele><time>2026-05-05T06:20:37.606Z</time></trkpt><trkpt lat="43.589588" lon="16.4328904"><ele>388.0</ele><time>2026-05-05T06:20:38.605Z</time></trkpt><trkpt lat="43.5896209" lon="16.4325269"><ele>388.0</ele><time>2026-05-05T06:20:39.605Z</time></trkpt><trkpt lat="43.5896485" lon="16.4321649"><ele>388.0</ele><time>2026-05-05T06:20:40.606Z</time></trkpt><trkpt lat="43.5896756" lon="16.431807"><ele>387.0</ele><time>2026-05-05T06:20:41.605Z</time></trkpt><trkpt lat="43.5896962" lon="16.4314441"><ele>386.0</ele><time>2026-05-05T06:20:42.606Z</time></trkpt><trkpt lat="43.5897176" lon="16.4310796"><ele>386.0</ele><time>2026-05-05T06:20:43.606Z</time></trkpt><trkpt lat="43.5897355" lon="16.4307198"><ele>386.0</ele><time>2026-05-05T06:20:44.606Z</time></trkpt><trkpt lat="43.5897515" lon="16.4303578"><ele>385.5</ele><time>2026-05-05T06:20:45.606Z</time></trkpt><trkpt lat="43.589766" lon="16.4299927"><ele>385.0</ele><time>2026-05-05T06:20:46.606Z</time></trkpt><trkpt lat="43.5897764" lon="16.4296279"><ele>385.0</ele><time>2026-05-05T06:20:47.606Z</time></trkpt><trkpt lat="43.5897874" lon="16.4292611"><ele>385.0</ele><time>2026-05-05T06:20:48.606Z</time></trkpt><trkpt lat="43.5897906" lon="16.4288939"><ele>384.0</ele><time>2026-05-05T06:20:49.606Z</time></trkpt><trkpt lat="43.5897929" lon="16.4285286"><ele>383.0</ele><time>2026-05-05T06:20:50.605Z</time></trkpt><trkpt lat="43.5897957" lon="16.4281605"><ele>381.0</ele><time>2026-05-05T06:20:51.605Z</time></trkpt><trkpt lat="43.5897954" lon="16.4277964"><ele>379.0</ele><time>2026-05-05T06:20:52.605Z</time></trkpt><trkpt lat="43.5897873" lon="16.4274288"><ele>378.5</ele><time>2026-05-05T06:20:53.605Z</time></trkpt><trkpt lat="43.5897712" lon="16.4270606"><ele>378.0</ele><time>2026-05-05T06:20:54.605Z</time></trkpt><trkpt lat="43.5897557" lon="16.4266902"><ele>378.0</ele><time>2026-05-05T06:20:55.605Z</time></trkpt><trkpt lat="43.5897402" lon="16.4263242"><ele>378.0</ele><time>2026-05-05T06:20:56.605Z</time></trkpt><trkpt lat="43.5897205" lon="16.4259562"><ele>376.5</ele><time>2026-05-05T06:20:57.605Z</time></trkpt><trkpt lat="43.5896997" lon="16.4255868"><ele>375.0</ele><time>2026-05-05T06:20:58.605Z</time></trkpt><trkpt lat="43.5896735" lon="16.4252221"><ele>374.0</ele><time>2026-05-05T06:20:59.605Z</time></trkpt><trkpt lat="43.5896467" lon="16.4248548"><ele>373.0</ele><time>2026-05-05T06:21:00.605Z</time></trkpt><trkpt lat="43.589616" lon="16.4244901"><ele>373.0</ele><time>2026-05-05T06:21:01.606Z</time></trkpt><trkpt lat="43.5895788" lon="16.4241257"><ele>373.0</ele><time>2026-05-05T06:21:02.606Z</time></trkpt><trkpt lat="43.589544" lon="16.4237621"><ele>375.0</ele><time>2026-05-05T06:21:03.606Z</time></trkpt><trkpt lat="43.5895044" lon="16.4234005"><ele>377.0</ele><time>2026-05-05T06:21:04.605Z</time></trkpt><trkpt lat="43.5894621" lon="16.4230358"><ele>376.5</ele><time>2026-05-05T06:21:05.605Z</time></trkpt><trkpt lat="43.5894157" lon="16.4226736"><ele>376.0</ele><time>2026-05-05T06:21:06.606Z</time></trkpt><trkpt lat="43.5893657" lon="16.4223101"><ele>376.5</ele><time>2026-05-05T06:21:07.606Z</time></trkpt><trkpt lat="43.5893163" lon="16.4219464"><ele>377.0</ele><time>2026-05-05T06:21:08.606Z</time></trkpt><trkpt lat="43.5892671" lon="16.4215837"><ele>378.0</ele><time>2026-05-05T06:21:09.606Z</time></trkpt><trkpt lat="43.5892111" lon="16.4212203"><ele>379.0</ele><time>2026-05-05T06:21:10.606Z</time></trkpt><trkpt lat="43.5891579" lon="16.4208582"><ele>379.0</ele><time>2026-05-05T06:21:11.606Z</time></trkpt><trkpt lat="43.5890956" lon="16.4204967"><ele>379.0</ele><time>2026-05-05T06:21:12.605Z</time></trkpt><trkpt lat="43.5890449" lon="16.4201348"><ele>379.0</ele><time>2026-05-05T06:21:13.605Z</time></trkpt><trkpt lat="43.5889997" lon="16.4197829"><ele>379.0</ele><time>2026-05-05T06:21:14.605Z</time></trkpt><trkpt lat="43.5889415" lon="16.4194465"><ele>378.5</ele><time>2026-05-05T06:21:15.606Z</time></trkpt><trkpt lat="43.5888916" lon="16.4191263"><ele>378.0</ele><time>2026-05-05T06:21:16.606Z</time></trkpt><trkpt lat="43.5888346" lon="16.4187763"><ele>376.5</ele><time>2026-05-05T06:21:17.605Z</time></trkpt><trkpt lat="43.5887818" lon="16.4184237"><ele>375.0</ele><time>2026-05-05T06:21:18.605Z</time></trkpt><trkpt lat="43.5887236" lon="16.4180853"><ele>373.5</ele><time>2026-05-05T06:21:19.605Z</time></trkpt><trkpt lat="43.5886616" lon="16.4177482"><ele>372.0</ele><time>2026-05-05T06:21:20.605Z</time></trkpt><trkpt lat="43.5885954" lon="16.4174111"><ele>370.5</ele><time>2026-05-05T06:21:21.606Z</time></trkpt><trkpt lat="43.5885467" lon="16.4170806"><ele>369.0</ele><time>2026-05-05T06:21:22.605Z</time></trkpt><trkpt lat="43.5885125" lon="16.416756"><ele>369.0</ele><time>2026-05-05T06:21:23.605Z</time></trkpt><trkpt lat="43.5884813" lon="16.4164275"><ele>369.0</ele><time>2026-05-05T06:21:24.605Z</time></trkpt><trkpt lat="43.588449" lon="16.4161023"><ele>367.0</ele><time>2026-05-05T06:21:25.606Z</time></trkpt><trkpt lat="43.5884169" lon="16.415782"><ele>365.0</ele><time>2026-05-05T06:21:26.606Z</time></trkpt><trkpt lat="43.5883907" lon="16.4154538"><ele>363.5</ele><time>2026-05-05T06:21:27.605Z</time></trkpt><trkpt lat="43.5883664" lon="16.4151285"><ele>362.0</ele><time>2026-05-05T06:21:28.605Z</time></trkpt><trkpt lat="43.5883488" lon="16.4148071"><ele>361.5</ele><time>2026-05-05T06:21:29.606Z</time></trkpt><trkpt lat="43.5883391" lon="16.4144838"><ele>361.0</ele><time>2026-05-05T06:21:30.606Z</time></trkpt><trkpt lat="43.5883246" lon="16.4141671"><ele>361.0</ele><time>2026-05-05T06:21:31.606Z</time></trkpt><trkpt lat="43.5883137" lon="16.4138654"><ele>361.0</ele><time>2026-05-05T06:21:32.605Z</time></trkpt><trkpt lat="43.5883112" lon="16.4135695"><ele>361.0</ele><time>2026-05-05T06:21:33.606Z</time></trkpt><trkpt lat="43.5883211" lon="16.413285"><ele>361.3333333333333</ele><time>2026-05-05T06:21:34.606Z</time></trkpt><trkpt lat="43.5883249" lon="16.4130062"><ele>361.6666666666667</ele><time>2026-05-05T06:21:35.606Z</time></trkpt><trkpt lat="43.5883319" lon="16.4127395"><ele>362.0</ele><time>2026-05-05T06:21:36.606Z</time></trkpt><trkpt lat="43.588338" lon="16.4124838"><ele>362.0</ele><time>2026-05-05T06:21:37.605Z</time></trkpt><trkpt lat="43.5883465" lon="16.4122384"><ele>362.0</ele><time>2026-05-05T06:21:38.606Z</time></trkpt><trkpt lat="43.5883518" lon="16.4120014"><ele>362.0</ele><time>2026-05-05T06:21:39.606Z</time></trkpt><trkpt lat="43.588358" lon="16.4117817"><ele>362.0</ele><time>2026-05-05T06:21:40.606Z</time></trkpt><trkpt lat="43.5883649" lon="16.4115644"><ele>362.0</ele><time>2026-05-05T06:21:41.606Z</time></trkpt><trkpt lat="43.5883681" lon="16.4113471"><ele>362.0</ele><time>2026-05-05T06:21:42.605Z</time></trkpt><trkpt lat="43.5883501" lon="16.4111304"><ele>361.33333333333337</ele><time>2026-05-05T06:21:43.606Z</time></trkpt><trkpt lat="43.5883211" lon="16.4109108"><ele>360.6666666666667</ele><time>2026-05-05T06:21:44.606Z</time></trkpt><trkpt lat="43.5882891" lon="16.410684"><ele>360.0</ele><time>2026-05-05T06:21:45.605Z</time></trkpt><trkpt lat="43.5882615" lon="16.4104632"><ele>359.3333333333333</ele><time>2026-05-05T06:21:46.606Z</time></trkpt><trkpt lat="43.5882302" lon="16.4102533"><ele>358.66666666666663</ele><time>2026-05-05T06:21:47.606Z</time></trkpt><trkpt lat="43.588204" lon="16.4100457"><ele>358.0</ele><time>2026-05-05T06:21:48.605Z</time></trkpt><trkpt lat="43.5881965" lon="16.4098389"><ele>357.0</ele><time>2026-05-05T06:21:49.606Z</time></trkpt><trkpt lat="43.5881967" lon="16.4096328"><ele>356.0</ele><time>2026-05-05T06:21:50.605Z</time></trkpt><trkpt lat="43.5882168" lon="16.4094303"><ele>355.0</ele><time>2026-05-05T06:21:51.606Z</time></trkpt><trkpt lat="43.5882525" lon="16.4092325"><ele>354.0</ele><time>2026-05-05T06:21:52.606Z</time></trkpt><trkpt lat="43.5883063" lon="16.40904"><ele>354.0</ele><time>2026-05-05T06:21:53.605Z</time></trkpt><trkpt lat="43.5883754" lon="16.4088552"><ele>354.0</ele><time>2026-05-05T06:21:54.605Z</time></trkpt><trkpt lat="43.5884628" lon="16.4086806"><ele>354.0</ele><time>2026-05-05T06:21:55.605Z</time></trkpt><trkpt lat="43.5885612" lon="16.408513"><ele>353.6666666666667</ele><time>2026-05-05T06:21:56.606Z</time></trkpt><trkpt lat="43.5886646" lon="16.4083489"><ele>353.33333333333337</ele><time>2026-05-05T06:21:57.606Z</time></trkpt><trkpt lat="43.5887706" lon="16.4081788"><ele>353.0</ele><time>2026-05-05T06:21:58.606Z</time></trkpt><trkpt lat="43.5888731" lon="16.4079986"><ele>352.0</ele><time>2026-05-05T06:21:59.605Z</time></trkpt><trkpt lat="43.5889723" lon="16.4078191"><ele>351.0</ele><time>2026-05-05T06:22:00.606Z</time></trkpt><trkpt lat="43.5890699" lon="16.4076327"><ele>350.0</ele><time>2026-05-05T06:22:01.606Z</time></trkpt><trkpt lat="43.5891507" lon="16.4074134"><ele>350.0</ele><time>2026-05-05T06:22:02.605Z</time></trkpt><trkpt lat="43.5892199" lon="16.4071814"><ele>350.0</ele><time>2026-05-05T06:22:03.606Z</time></trkpt><trkpt lat="43.5892852" lon="16.406913"><ele>350.0</ele><time>2026-05-05T06:22:04.606Z</time></trkpt><trkpt lat="43.5893552" lon="16.4066404"><ele>349.33333333333337</ele><time>2026-05-05T06:22:05.605Z</time></trkpt><trkpt lat="43.5894317" lon="16.4063651"><ele>348.6666666666667</ele><time>2026-05-05T06:22:06.606Z</time></trkpt><trkpt lat="43.5895027" lon="16.4060767"><ele>348.0</ele><time>2026-05-05T06:22:07.606Z</time></trkpt><trkpt lat="43.5895757" lon="16.4057755"><ele>347.5</ele><time>2026-05-05T06:22:08.606Z</time></trkpt><trkpt lat="43.5896519" lon="16.4054665"><ele>347.0</ele><time>2026-05-05T06:22:09.605Z</time></trkpt><trkpt lat="43.5897356" lon="16.4051541"><ele>347.0</ele><time>2026-05-05T06:22:10.606Z</time></trkpt><trkpt lat="43.5898201" lon="16.4048405"><ele>347.0</ele><time>2026-05-05T06:22:11.606Z</time></trkpt><trkpt lat="43.5899027" lon="16.4045202"><ele>347.5</ele><time>2026-05-05T06:22:12.605Z</time></trkpt><trkpt lat="43.5899904" lon="16.404193"><ele>348.0</ele><time>2026-05-05T06:22:13.606Z</time></trkpt><trkpt lat="43.5900772" lon="16.4038624"><ele>348.0</ele><time>2026-05-05T06:22:14.606Z</time></trkpt><trkpt lat="43.5901639" lon="16.4035267"><ele>348.0</ele><time>2026-05-05T06:22:15.606Z</time></trkpt><trkpt lat="43.5902489" lon="16.4031841"><ele>347.5</ele><time>2026-05-05T06:22:16.606Z</time></trkpt><trkpt lat="43.5903362" lon="16.4028427"><ele>347.0</ele><time>2026-05-05T06:22:17.605Z</time></trkpt><trkpt lat="43.5904241" lon="16.4024986"><ele>347.5</ele><time>2026-05-05T06:22:18.605Z</time></trkpt><trkpt lat="43.5905086" lon="16.4021401"><ele>348.0</ele><time>2026-05-05T06:22:19.606Z</time></trkpt><trkpt lat="43.5905964" lon="16.4017867"><ele>348.0</ele><time>2026-05-05T06:22:20.605Z</time></trkpt><trkpt lat="43.5906884" lon="16.4014319"><ele>348.0</ele><time>2026-05-05T06:22:21.606Z</time></trkpt><trkpt lat="43.590782" lon="16.4010754"><ele>347.5</ele><time>2026-05-05T06:22:22.606Z</time></trkpt><trkpt lat="43.5908691" lon="16.4007106"><ele>347.0</ele><time>2026-05-05T06:22:23.606Z</time></trkpt><trkpt lat="43.590956" lon="16.4003453"><ele>346.5</ele><time>2026-05-05T06:22:24.605Z</time></trkpt><trkpt lat="43.5910504" lon="16.3999858"><ele>346.0</ele><time>2026-05-05T06:22:25.606Z</time></trkpt><trkpt lat="43.591148" lon="16.3996275"><ele>344.0</ele><time>2026-05-05T06:22:26.606Z</time></trkpt><trkpt lat="43.5912482" lon="16.3992596"><ele>342.0</ele><time>2026-05-05T06:22:27.605Z</time></trkpt><trkpt lat="43.5913462" lon="16.3988921"><ele>341.0</ele><time>2026-05-05T06:22:28.606Z</time></trkpt><trkpt lat="43.5914445" lon="16.3985202"><ele>340.0</ele><time>2026-05-05T06:22:29.606Z</time></trkpt><trkpt lat="43.5915431" lon="16.398152"><ele>340.5</ele><time>2026-05-05T06:22:30.605Z</time></trkpt><trkpt lat="43.5916424" lon="16.397781"><ele>341.0</ele><time>2026-05-05T06:22:31.605Z</time></trkpt><trkpt lat="43.5917394" lon="16.3974089"><ele>340.5</ele><time>2026-05-05T06:22:32.606Z</time></trkpt><trkpt lat="43.5918286" lon="16.3970309"><ele>340.0</ele><time>2026-05-05T06:22:33.606Z</time></trkpt><trkpt lat="43.5919257" lon="16.3966636"><ele>339.0</ele><time>2026-05-05T06:22:34.606Z</time></trkpt><trkpt lat="43.5920225" lon="16.3962878"><ele>338.0</ele><time>2026-05-05T06:22:35.605Z</time></trkpt><trkpt lat="43.5921159" lon="16.3959081"><ele>338.0</ele><time>2026-05-05T06:22:36.605Z</time></trkpt><trkpt lat="43.5922089" lon="16.395526"><ele>338.0</ele><time>2026-05-05T06:22:37.605Z</time></trkpt><trkpt lat="43.5923054" lon="16.3951517"><ele>337.0</ele><time>2026-05-05T06:22:38.605Z</time></trkpt><trkpt lat="43.5924024" lon="16.3947684"><ele>336.0</ele><time>2026-05-05T06:22:39.606Z</time></trkpt><trkpt lat="43.5924987" lon="16.3943865"><ele>336.0</ele><time>2026-05-05T06:22:40.605Z</time></trkpt><trkpt lat="43.5925989" lon="16.3940079"><ele>336.0</ele><time>2026-05-05T06:22:41.606Z</time></trkpt><trkpt lat="43.5927" lon="16.3936309"><ele>332.5</ele><time>2026-05-05T06:22:42.605Z</time></trkpt><trkpt lat="43.5927982" lon="16.3932527"><ele>329.0</ele><time>2026-05-05T06:22:43.606Z</time></trkpt><trkpt lat="43.5928919" lon="16.392875"><ele>327.5</ele><time>2026-05-05T06:22:44.606Z</time></trkpt><trkpt lat="43.5929903" lon="16.3924935"><ele>326.0</ele><time>2026-05-05T06:22:45.606Z</time></trkpt><trkpt lat="43.5930899" lon="16.3921111"><ele>323.5</ele><time>2026-05-05T06:22:46.605Z</time></trkpt><trkpt lat="43.5931889" lon="16.3917325"><ele>321.0</ele><time>2026-05-05T06:22:47.605Z</time></trkpt><trkpt lat="43.5932878" lon="16.3913531"><ele>323.0</ele><time>2026-05-05T06:22:48.606Z</time></trkpt><trkpt lat="43.5933861" lon="16.3909701"><ele>325.0</ele><time>2026-05-05T06:22:49.606Z</time></trkpt><trkpt lat="43.5934831" lon="16.3905903"><ele>326.5</ele><time>2026-05-05T06:22:50.606Z</time></trkpt><trkpt lat="43.5935784" lon="16.3902108"><ele>328.0</ele><time>2026-05-05T06:22:51.606Z</time></trkpt><trkpt lat="43.5936715" lon="16.3898357"><ele>326.0</ele><time>2026-05-05T06:22:52.606Z</time></trkpt><trkpt lat="43.593764" lon="16.3894569"><ele>324.0</ele><time>2026-05-05T06:22:53.605Z</time></trkpt><trkpt lat="43.5938598" lon="16.3890778"><ele>324.5</ele><time>2026-05-05T06:22:54.606Z</time></trkpt><trkpt lat="43.5939575" lon="16.3886982"><ele>325.0</ele><time>2026-05-05T06:22:55.606Z</time></trkpt><trkpt lat="43.5940528" lon="16.3883189"><ele>325.0</ele><time>2026-05-05T06:22:56.606Z</time></trkpt><trkpt lat="43.5941538" lon="16.3879433"><ele>325.0</ele><time>2026-05-05T06:22:57.605Z</time></trkpt><trkpt lat="43.5942526" lon="16.3875672"><ele>325.0</ele><time>2026-05-05T06:22:58.605Z</time></trkpt><trkpt lat="43.594349" lon="16.3871912"><ele>325.0</ele><time>2026-05-05T06:22:59.605Z</time></trkpt><trkpt lat="43.5944488" lon="16.3868162"><ele>323.5</ele><time>2026-05-05T06:23:00.605Z</time></trkpt><trkpt lat="43.5945432" lon="16.3864423"><ele>322.0</ele><time>2026-05-05T06:23:01.605Z</time></trkpt><trkpt lat="43.5946358" lon="16.3860716"><ele>322.0</ele><time>2026-05-05T06:23:02.605Z</time></trkpt><trkpt lat="43.5947343" lon="16.3857024"><ele>322.0</ele><time>2026-05-05T06:23:03.606Z</time></trkpt><trkpt lat="43.5948306" lon="16.3853318"><ele>321.0</ele><time>2026-05-05T06:23:04.606Z</time></trkpt><trkpt lat="43.5949258" lon="16.3849649"><ele>320.0</ele><time>2026-05-05T06:23:05.605Z</time></trkpt><trkpt lat="43.5950199" lon="16.3845943"><ele>320.0</ele><time>2026-05-05T06:23:06.606Z</time></trkpt><trkpt lat="43.5951134" lon="16.3842237"><ele>320.0</ele><time>2026-05-05T06:23:07.606Z</time></trkpt><trkpt lat="43.5952095" lon="16.3838537"><ele>320.0</ele><time>2026-05-05T06:23:08.605Z</time></trkpt><trkpt lat="43.5953082" lon="16.3834825"><ele>320.0</ele><time>2026-05-05T06:23:09.605Z</time></trkpt><trkpt lat="43.5954067" lon="16.3831066"><ele>317.5</ele><time>2026-05-05T06:23:10.606Z</time></trkpt><trkpt lat="43.5955028" lon="16.3827343"><ele>315.0</ele><time>2026-05-05T06:23:11.606Z</time></trkpt><trkpt lat="43.5955966" lon="16.3823597"><ele>314.5</ele><time>2026-05-05T06:23:12.605Z</time></trkpt><trkpt lat="43.595691" lon="16.381988"><ele>314.0</ele><time>2026-05-05T06:23:13.606Z</time></trkpt><trkpt lat="43.5957865" lon="16.3816137"><ele>313.0</ele><time>2026-05-05T06:23:14.606Z</time></trkpt><trkpt lat="43.5958804" lon="16.3812375"><ele>312.0</ele><time>2026-05-05T06:23:15.606Z</time></trkpt><trkpt lat="43.5959781" lon="16.3808613"><ele>312.5</ele><time>2026-05-05T06:23:16.606Z</time></trkpt><trkpt lat="43.5960765" lon="16.3804846"><ele>313.0</ele><time>2026-05-05T06:23:17.605Z</time></trkpt><trkpt lat="43.5961716" lon="16.3801076"><ele>313.0</ele><time>2026-05-05T06:23:18.605Z</time></trkpt><trkpt lat="43.5962717" lon="16.3797317"><ele>313.0</ele><time>2026-05-05T06:23:19.606Z</time></trkpt><trkpt lat="43.596371" lon="16.3793571"><ele>313.0</ele><time>2026-05-05T06:23:20.606Z</time></trkpt><trkpt lat="43.5964646" lon="16.3789776"><ele>313.0</ele><time>2026-05-05T06:23:21.606Z</time></trkpt><trkpt lat="43.5965539" lon="16.3785957"><ele>312.0</ele><time>2026-05-05T06:23:22.606Z</time></trkpt><trkpt lat="43.5966412" lon="16.3782129"><ele>311.0</ele><time>2026-05-05T06:23:23.605Z</time></trkpt><trkpt lat="43.596723" lon="16.3778329"><ele>311.0</ele><time>2026-05-05T06:23:24.605Z</time></trkpt><trkpt lat="43.5968024" lon="16.3774513"><ele>311.0</ele><time>2026-05-05T06:23:25.606Z</time></trkpt><trkpt lat="43.5968772" lon="16.3770665"><ele>310.5</ele><time>2026-05-05T06:23:26.605Z</time></trkpt><trkpt lat="43.5969463" lon="16.3766764"><ele>310.0</ele><time>2026-05-05T06:23:27.606Z</time></trkpt><trkpt lat="43.5970108" lon="16.3762878"><ele>308.5</ele><time>2026-05-05T06:23:28.606Z</time></trkpt><trkpt lat="43.5970701" lon="16.3758967"><ele>307.0</ele><time>2026-05-05T06:23:29.605Z</time></trkpt><trkpt lat="43.5971239" lon="16.3755008"><ele>305.5</ele><time>2026-05-05T06:23:30.605Z</time></trkpt><trkpt lat="43.5971727" lon="16.3751034"><ele>304.0</ele><time>2026-05-05T06:23:31.605Z</time></trkpt><trkpt lat="43.5972162" lon="16.3747088"><ele>302.5</ele><time>2026-05-05T06:23:32.606Z</time></trkpt><trkpt lat="43.597263" lon="16.3743067"><ele>301.0</ele><time>2026-05-05T06:23:33.606Z</time></trkpt><trkpt lat="43.5972954" lon="16.3739063"><ele>300.0</ele><time>2026-05-05T06:23:34.605Z</time></trkpt><trkpt lat="43.5973337" lon="16.3735047"><ele>299.0</ele><time>2026-05-05T06:23:35.605Z</time></trkpt><trkpt lat="43.5973657" lon="16.3730984"><ele>298.0</ele><time>2026-05-05T06:23:36.605Z</time></trkpt><trkpt lat="43.5973898" lon="16.3726952"><ele>297.0</ele><time>2026-05-05T06:23:37.605Z</time></trkpt><trkpt lat="43.5974063" lon="16.372284"><ele>296.0</ele><time>2026-05-05T06:23:38.605Z</time></trkpt><trkpt lat="43.5974203" lon="16.3718729"><ele>295.0</ele><time>2026-05-05T06:23:39.605Z</time></trkpt><trkpt lat="43.5974239" lon="16.3714611"><ele>293.5</ele><time>2026-05-05T06:23:40.605Z</time></trkpt><trkpt lat="43.5974278" lon="16.3710463"><ele>292.0</ele><time>2026-05-05T06:23:41.606Z</time></trkpt><trkpt lat="43.5974245" lon="16.3706285"><ele>290.5</ele><time>2026-05-05T06:23:42.605Z</time></trkpt><trkpt lat="43.5974186" lon="16.3702106"><ele>289.0</ele><time>2026-05-05T06:23:43.606Z</time></trkpt><trkpt lat="43.5974063" lon="16.3697909"><ele>287.5</ele><time>2026-05-05T06:23:44.605Z</time></trkpt><trkpt lat="43.59739" lon="16.3693722"><ele>286.0</ele><time>2026-05-05T06:23:45.605Z</time></trkpt><trkpt lat="43.5973654" lon="16.3689452"><ele>284.5</ele><time>2026-05-05T06:23:46.605Z</time></trkpt><trkpt lat="43.5973389" lon="16.3685259"><ele>283.0</ele><time>2026-05-05T06:23:47.606Z</time></trkpt><trkpt lat="43.5973052" lon="16.3681075"><ele>280.5</ele><time>2026-05-05T06:23:48.606Z</time></trkpt><trkpt lat="43.5972697" lon="16.3676908"><ele>278.0</ele><time>2026-05-05T06:23:49.605Z</time></trkpt><trkpt lat="43.5972285" lon="16.3672752"><ele>277.5</ele><time>2026-05-05T06:23:50.605Z</time></trkpt><trkpt lat="43.5971867" lon="16.3668621"><ele>277.0</ele><time>2026-05-05T06:23:51.605Z</time></trkpt><trkpt lat="43.5971356" lon="16.3664504"><ele>277.0</ele><time>2026-05-05T06:23:52.606Z</time></trkpt><trkpt lat="43.5970769" lon="16.3660382"><ele>277.0</ele><time>2026-05-05T06:23:53.606Z</time></trkpt><trkpt lat="43.5970124" lon="16.3656241"><ele>282.5</ele><time>2026-05-05T06:23:54.606Z</time></trkpt><trkpt lat="43.5969436" lon="16.3652153"><ele>288.0</ele><time>2026-05-05T06:23:55.605Z</time></trkpt><trkpt lat="43.5968689" lon="16.3648086"><ele>285.5</ele><time>2026-05-05T06:23:56.606Z</time></trkpt><trkpt lat="43.5967883" lon="16.364402"><ele>283.0</ele><time>2026-05-05T06:23:57.606Z</time></trkpt><trkpt lat="43.5967053" lon="16.3639917"><ele>280.0</ele><time>2026-05-05T06:23:58.605Z</time></trkpt><trkpt lat="43.5966201" lon="16.3635893"><ele>277.0</ele><time>2026-05-05T06:23:59.605Z</time></trkpt><trkpt lat="43.5965272" lon="16.3631848"><ele>273.5</ele><time>2026-05-05T06:24:00.606Z</time></trkpt><trkpt lat="43.5964372" lon="16.3627806"><ele>270.0</ele><time>2026-05-05T06:24:01.605Z</time></trkpt><trkpt lat="43.5963439" lon="16.3623745"><ele>271.5</ele><time>2026-05-05T06:24:02.606Z</time></trkpt><trkpt lat="43.5962504" lon="16.361971"><ele>273.0</ele><time>2026-05-05T06:24:03.606Z</time></trkpt><trkpt lat="43.596159" lon="16.3615672"><ele>271.5</ele><time>2026-05-05T06:24:04.605Z</time></trkpt><trkpt lat="43.5960715" lon="16.3611675"><ele>270.0</ele><time>2026-05-05T06:24:05.606Z</time></trkpt><trkpt lat="43.595982" lon="16.3607596"><ele>269.0</ele><time>2026-05-05T06:24:06.605Z</time></trkpt><trkpt lat="43.595896" lon="16.3603526"><ele>268.0</ele><time>2026-05-05T06:24:07.606Z</time></trkpt><trkpt lat="43.5958124" lon="16.3599477"><ele>265.0</ele><time>2026-05-05T06:24:08.605Z</time></trkpt><trkpt lat="43.5957338" lon="16.3595398"><ele>262.0</ele><time>2026-05-05T06:24:09.606Z</time></trkpt><trkpt lat="43.5956601" lon="16.3591342"><ele>259.0</ele><time>2026-05-05T06:24:10.606Z</time></trkpt><trkpt lat="43.5955946" lon="16.3587303"><ele>256.0</ele><time>2026-05-05T06:24:11.605Z</time></trkpt><trkpt lat="43.5955358" lon="16.3583312"><ele>255.0</ele><time>2026-05-05T06:24:12.606Z</time></trkpt><trkpt lat="43.5954836" lon="16.3579292"><ele>254.0</ele><time>2026-05-05T06:24:13.605Z</time></trkpt><trkpt lat="43.5954368" lon="16.3575275"><ele>254.0</ele><time>2026-05-05T06:24:14.606Z</time></trkpt><trkpt lat="43.5953962" lon="16.3571297"><ele>254.0</ele><time>2026-05-05T06:24:15.606Z</time></trkpt><trkpt lat="43.5953584" lon="16.3567313"><ele>255.0</ele><time>2026-05-05T06:24:16.606Z</time></trkpt><trkpt lat="43.5953294" lon="16.3563374"><ele>256.0</ele><time>2026-05-05T06:24:17.606Z</time></trkpt><trkpt lat="43.5953026" lon="16.355938"><ele>256.0</ele><time>2026-05-05T06:24:18.606Z</time></trkpt><trkpt lat="43.5952802" lon="16.3555391"><ele>256.0</ele><time>2026-05-05T06:24:19.606Z</time></trkpt><trkpt lat="43.5952694" lon="16.3551358"><ele>255.5</ele><time>2026-05-05T06:24:20.606Z</time></trkpt><trkpt lat="43.5952603" lon="16.3547357"><ele>255.0</ele><time>2026-05-05T06:24:21.606Z</time></trkpt><trkpt lat="43.5952559" lon="16.3543395"><ele>259.0</ele><time>2026-05-05T06:24:22.606Z</time></trkpt><trkpt lat="43.5952516" lon="16.353944"><ele>263.0</ele><time>2026-05-05T06:24:23.605Z</time></trkpt><trkpt lat="43.5952556" lon="16.3535501"><ele>267.0</ele><time>2026-05-05T06:24:24.605Z</time></trkpt><trkpt lat="43.5952728" lon="16.3531546"><ele>271.0</ele><time>2026-05-05T06:24:25.605Z</time></trkpt><trkpt lat="43.5952882" lon="16.3527588"><ele>271.0</ele><time>2026-05-05T06:24:26.606Z</time></trkpt><trkpt lat="43.5953064" lon="16.3523666"><ele>271.0</ele><time>2026-05-05T06:24:27.605Z</time></trkpt><trkpt lat="43.5953302" lon="16.3519739"><ele>264.0</ele><time>2026-05-05T06:24:28.605Z</time></trkpt><trkpt lat="43.5953623" lon="16.3515867"><ele>257.0</ele><time>2026-05-05T06:24:29.605Z</time></trkpt><trkpt lat="43.5953983" lon="16.3512009"><ele>257.0</ele><time>2026-05-05T06:24:30.606Z</time></trkpt><trkpt lat="43.5954401" lon="16.3508175"><ele>257.0</ele><time>2026-05-05T06:24:31.605Z</time></trkpt><trkpt lat="43.5954815" lon="16.350434"><ele>259.5</ele><time>2026-05-05T06:24:32.605Z</time></trkpt><trkpt lat="43.595532" lon="16.350051"><ele>262.0</ele><time>2026-05-05T06:24:33.605Z</time></trkpt><trkpt lat="43.5955847" lon="16.3496714"><ele>263.5</ele><time>2026-05-05T06:24:34.606Z</time></trkpt><trkpt lat="43.5956419" lon="16.3492961"><ele>265.0</ele><time>2026-05-05T06:24:35.606Z</time></trkpt><trkpt lat="43.5957033" lon="16.3489262"><ele>267.0</ele><time>2026-05-05T06:24:36.606Z</time></trkpt><trkpt lat="43.5957784" lon="16.3485545"><ele>269.0</ele><time>2026-05-05T06:24:37.606Z</time></trkpt><trkpt lat="43.5958616" lon="16.3481884"><ele>269.0</ele><time>2026-05-05T06:24:38.605Z</time></trkpt><trkpt lat="43.5959538" lon="16.3478246"><ele>269.0</ele><time>2026-05-05T06:24:39.606Z</time></trkpt><trkpt lat="43.5960358" lon="16.3474498"><ele>270.5</ele><time>2026-05-05T06:24:40.606Z</time></trkpt><trkpt lat="43.5961259" lon="16.3470923"><ele>272.0</ele><time>2026-05-05T06:24:41.605Z</time></trkpt><trkpt lat="43.5962146" lon="16.3467329"><ele>267.5</ele><time>2026-05-05T06:24:42.605Z</time></trkpt><trkpt lat="43.5963024" lon="16.346372"><ele>263.0</ele><time>2026-05-05T06:24:43.606Z</time></trkpt><trkpt lat="43.596397" lon="16.3460159"><ele>263.0</ele><time>2026-05-05T06:24:44.605Z</time></trkpt><trkpt lat="43.5965062" lon="16.3456616"><ele>263.0</ele><time>2026-05-05T06:24:45.606Z</time></trkpt><trkpt lat="43.5966177" lon="16.345313"><ele>262.5</ele><time>2026-05-05T06:24:46.606Z</time></trkpt><trkpt lat="43.5967297" lon="16.3449684"><ele>262.0</ele><time>2026-05-05T06:24:47.606Z</time></trkpt><trkpt lat="43.5968494" lon="16.3446217"><ele>263.5</ele><time>2026-05-05T06:24:48.606Z</time></trkpt><trkpt lat="43.5969662" lon="16.3442808"><ele>265.0</ele><time>2026-05-05T06:24:49.605Z</time></trkpt><trkpt lat="43.5970833" lon="16.34394"><ele>261.0</ele><time>2026-05-05T06:24:50.606Z</time></trkpt><trkpt lat="43.5972093" lon="16.3436071"><ele>257.0</ele><time>2026-05-05T06:24:51.606Z</time></trkpt><trkpt lat="43.5973402" lon="16.3432834"><ele>257.5</ele><time>2026-05-05T06:24:52.605Z</time></trkpt><trkpt lat="43.5974739" lon="16.3429576"><ele>258.0</ele><time>2026-05-05T06:24:53.605Z</time></trkpt><trkpt lat="43.5976122" lon="16.3426357"><ele>258.0</ele><time>2026-05-05T06:24:54.606Z</time></trkpt><trkpt lat="43.5977625" lon="16.3423171"><ele>258.0</ele><time>2026-05-05T06:24:55.605Z</time></trkpt><trkpt lat="43.5979096" lon="16.3420069"><ele>255.5</ele><time>2026-05-05T06:24:56.606Z</time></trkpt><trkpt lat="43.5980665" lon="16.3416997"><ele>253.0</ele><time>2026-05-05T06:24:57.606Z</time></trkpt><trkpt lat="43.5982162" lon="16.3413976"><ele>255.0</ele><time>2026-05-05T06:24:58.605Z</time></trkpt><trkpt lat="43.5983746" lon="16.3410974"><ele>257.0</ele><time>2026-05-05T06:24:59.606Z</time></trkpt><trkpt lat="43.5985371" lon="16.3407965"><ele>258.5</ele><time>2026-05-05T06:25:00.605Z</time></trkpt><trkpt lat="43.5987028" lon="16.3405073"><ele>260.0</ele><time>2026-05-05T06:25:01.606Z</time></trkpt><trkpt lat="43.5988704" lon="16.340209"><ele>260.0</ele><time>2026-05-05T06:25:02.606Z</time></trkpt><trkpt lat="43.5990426" lon="16.339914"><ele>260.0</ele><time>2026-05-05T06:25:03.606Z</time></trkpt><trkpt lat="43.5992212" lon="16.3396172"><ele>260.5</ele><time>2026-05-05T06:25:04.606Z</time></trkpt><trkpt lat="43.5993992" lon="16.339327"><ele>261.0</ele><time>2026-05-05T06:25:05.605Z</time></trkpt><trkpt lat="43.5995768" lon="16.3390346"><ele>263.0</ele><time>2026-05-05T06:25:06.605Z</time></trkpt><trkpt lat="43.5997547" lon="16.3387368"><ele>265.0</ele><time>2026-05-05T06:25:07.605Z</time></trkpt><trkpt lat="43.5999312" lon="16.3384349"><ele>265.0</ele><time>2026-05-05T06:25:08.606Z</time></trkpt><trkpt lat="43.6001031" lon="16.3381338"><ele>265.0</ele><time>2026-05-05T06:25:09.606Z</time></trkpt><trkpt lat="43.6002754" lon="16.3378241"><ele>264.0</ele><time>2026-05-05T06:25:10.605Z</time></trkpt><trkpt lat="43.6004426" lon="16.3375184"><ele>263.0</ele><time>2026-05-05T06:25:11.605Z</time></trkpt><trkpt lat="43.6006039" lon="16.3372001"><ele>263.0</ele><time>2026-05-05T06:25:12.605Z</time></trkpt><trkpt lat="43.6007687" lon="16.3368823"><ele>263.0</ele><time>2026-05-05T06:25:13.605Z</time></trkpt><trkpt lat="43.6009176" lon="16.3365512"><ele>263.5</ele><time>2026-05-05T06:25:14.606Z</time></trkpt><trkpt lat="43.601055" lon="16.336215"><ele>264.0</ele><time>2026-05-05T06:25:15.606Z</time></trkpt><trkpt lat="43.6011871" lon="16.3358698"><ele>260.0</ele><time>2026-05-05T06:25:16.606Z</time></trkpt><trkpt lat="43.6013128" lon="16.3355219"><ele>256.0</ele><time>2026-05-05T06:25:17.606Z</time></trkpt><trkpt lat="43.6014306" lon="16.335167"><ele>256.0</ele><time>2026-05-05T06:25:18.606Z</time></trkpt><trkpt lat="43.6015415" lon="16.3348024"><ele>256.0</ele><time>2026-05-05T06:25:19.606Z</time></trkpt><trkpt lat="43.60165" lon="16.3344411"><ele>257.5</ele><time>2026-05-05T06:25:20.605Z</time></trkpt><trkpt lat="43.6017455" lon="16.3340731"><ele>259.0</ele><time>2026-05-05T06:25:21.606Z</time></trkpt><trkpt lat="43.6018345" lon="16.3336998"><ele>259.5</ele><time>2026-05-05T06:25:22.605Z</time></trkpt><trkpt lat="43.6019139" lon="16.3333261"><ele>260.0</ele><time>2026-05-05T06:25:23.606Z</time></trkpt><trkpt lat="43.6019885" lon="16.3329473"><ele>255.5</ele><time>2026-05-05T06:25:24.605Z</time></trkpt><trkpt lat="43.6020555" lon="16.332569"><ele>251.0</ele><time>2026-05-05T06:25:25.605Z</time></trkpt><trkpt lat="43.6021079" lon="16.3321876"><ele>251.0</ele><time>2026-05-05T06:25:26.606Z</time></trkpt><trkpt lat="43.6021562" lon="16.3318067"><ele>251.0</ele><time>2026-05-05T06:25:27.605Z</time></trkpt><trkpt lat="43.6022042" lon="16.3314247"><ele>250.5</ele><time>2026-05-05T06:25:28.605Z</time></trkpt><trkpt lat="43.6022424" lon="16.3310384"><ele>250.0</ele><time>2026-05-05T06:25:29.605Z</time></trkpt><trkpt lat="43.6022704" lon="16.3306538"><ele>250.5</ele><time>2026-05-05T06:25:30.606Z</time></trkpt><trkpt lat="43.6022883" lon="16.3302664"><ele>251.0</ele><time>2026-05-05T06:25:31.605Z</time></trkpt><trkpt lat="43.6023025" lon="16.3298773"><ele>252.0</ele><time>2026-05-05T06:25:32.605Z</time></trkpt><trkpt lat="43.6023102" lon="16.3294899"><ele>253.0</ele><time>2026-05-05T06:25:33.605Z</time></trkpt><trkpt lat="43.6023093" lon="16.3291029"><ele>251.0</ele><time>2026-05-05T06:25:34.605Z</time></trkpt><trkpt lat="43.6023091" lon="16.3287159"><ele>249.0</ele><time>2026-05-05T06:25:35.605Z</time></trkpt><trkpt lat="43.60231" lon="16.3283294"><ele>248.0</ele><time>2026-05-05T06:25:36.606Z</time></trkpt><trkpt lat="43.6023063" lon="16.3279404"><ele>247.0</ele><time>2026-05-05T06:25:37.606Z</time></trkpt><trkpt lat="43.6023035" lon="16.3275502"><ele>246.0</ele><time>2026-05-05T06:25:38.605Z</time></trkpt><trkpt lat="43.6023088" lon="16.3271606"><ele>245.0</ele><time>2026-05-05T06:25:39.606Z</time></trkpt><trkpt lat="43.6023147" lon="16.3267699"><ele>243.0</ele><time>2026-05-05T06:25:40.605Z</time></trkpt><trkpt lat="43.6023354" lon="16.3263795"><ele>241.0</ele><time>2026-05-05T06:25:41.606Z</time></trkpt><trkpt lat="43.602359" lon="16.3259941"><ele>241.0</ele><time>2026-05-05T06:25:42.606Z</time></trkpt><trkpt lat="43.602389" lon="16.3256041"><ele>241.0</ele><time>2026-05-05T06:25:43.606Z</time></trkpt><trkpt lat="43.6024198" lon="16.3252174"><ele>243.0</ele><time>2026-05-05T06:25:44.605Z</time></trkpt><trkpt lat="43.6024572" lon="16.3248334"><ele>245.0</ele><time>2026-05-05T06:25:45.606Z</time></trkpt><trkpt lat="43.602501" lon="16.3244446"><ele>247.5</ele><time>2026-05-05T06:25:46.606Z</time></trkpt><trkpt lat="43.6025524" lon="16.324058"><ele>250.0</ele><time>2026-05-05T06:25:47.605Z</time></trkpt><trkpt lat="43.6026092" lon="16.3236707"><ele>251.5</ele><time>2026-05-05T06:25:48.605Z</time></trkpt><trkpt lat="43.6026723" lon="16.3232859"><ele>253.0</ele><time>2026-05-05T06:25:49.606Z</time></trkpt><trkpt lat="43.602735" lon="16.3228996"><ele>254.0</ele><time>2026-05-05T06:25:50.605Z</time></trkpt><trkpt lat="43.6027978" lon="16.3225134"><ele>255.0</ele><time>2026-05-05T06:25:51.605Z</time></trkpt><trkpt lat="43.6028629" lon="16.3221276"><ele>249.5</ele><time>2026-05-05T06:25:52.606Z</time></trkpt><trkpt lat="43.6029239" lon="16.3217415"><ele>244.0</ele><time>2026-05-05T06:25:53.605Z</time></trkpt><trkpt lat="43.6029817" lon="16.3213498"><ele>244.0</ele><time>2026-05-05T06:25:54.605Z</time></trkpt><trkpt lat="43.6030355" lon="16.320961"><ele>244.0</ele><time>2026-05-05T06:25:55.606Z</time></trkpt><trkpt lat="43.6030868" lon="16.3205687"><ele>242.0</ele><time>2026-05-05T06:25:56.606Z</time></trkpt><trkpt lat="43.6031387" lon="16.3201822"><ele>240.0</ele><time>2026-05-05T06:25:57.606Z</time></trkpt><trkpt lat="43.6031854" lon="16.3197929"><ele>237.0</ele><time>2026-05-05T06:25:58.606Z</time></trkpt><trkpt lat="43.60323" lon="16.3194032"><ele>234.0</ele><time>2026-05-05T06:25:59.605Z</time></trkpt><trkpt lat="43.6032749" lon="16.319014"><ele>233.0</ele><time>2026-05-05T06:26:00.606Z</time></trkpt><trkpt lat="43.6033231" lon="16.3186265"><ele>232.0</ele><time>2026-05-05T06:26:01.605Z</time></trkpt><trkpt lat="43.6033738" lon="16.3182397"><ele>232.0</ele><time>2026-05-05T06:26:02.605Z</time></trkpt><trkpt lat="43.603429" lon="16.3178506"><ele>232.0</ele><time>2026-05-05T06:26:03.605Z</time></trkpt><trkpt lat="43.6034839" lon="16.3174623"><ele>235.0</ele><time>2026-05-05T06:26:04.605Z</time></trkpt><trkpt lat="43.6035464" lon="16.31708"><ele>238.0</ele><time>2026-05-05T06:26:05.605Z</time></trkpt><trkpt lat="43.6036139" lon="16.3166999"><ele>235.0</ele><time>2026-05-05T06:26:06.605Z</time></trkpt><trkpt lat="43.6036941" lon="16.3163266"><ele>232.0</ele><time>2026-05-05T06:26:07.606Z</time></trkpt><trkpt lat="43.6037829" lon="16.3159538"><ele>232.0</ele><time>2026-05-05T06:26:08.605Z</time></trkpt><trkpt lat="43.6038823" lon="16.3155827"><ele>232.0</ele><time>2026-05-05T06:26:09.606Z</time></trkpt><trkpt lat="43.6039854" lon="16.3152145"><ele>233.0</ele><time>2026-05-05T06:26:10.605Z</time></trkpt><trkpt lat="43.6040979" lon="16.3148548"><ele>234.0</ele><time>2026-05-05T06:26:11.606Z</time></trkpt><trkpt lat="43.6042179" lon="16.3144918"><ele>235.0</ele><time>2026-05-05T06:26:12.606Z</time></trkpt><trkpt lat="43.6043475" lon="16.3141395"><ele>236.0</ele><time>2026-05-05T06:26:13.606Z</time></trkpt><trkpt lat="43.6044912" lon="16.3138019"><ele>234.5</ele><time>2026-05-05T06:26:14.605Z</time></trkpt><trkpt lat="43.6046445" lon="16.3134629"><ele>233.0</ele><time>2026-05-05T06:26:15.606Z</time></trkpt><trkpt lat="43.6048038" lon="16.31313"><ele>235.0</ele><time>2026-05-05T06:26:16.606Z</time></trkpt><trkpt lat="43.6049697" lon="16.3128047"><ele>237.0</ele><time>2026-05-05T06:26:17.606Z</time></trkpt><trkpt lat="43.605141" lon="16.3124877"><ele>235.5</ele><time>2026-05-05T06:26:18.605Z</time></trkpt><trkpt lat="43.6053256" lon="16.3121796"><ele>234.0</ele><time>2026-05-05T06:26:19.605Z</time></trkpt><trkpt lat="43.6055164" lon="16.3118803"><ele>234.0</ele><time>2026-05-05T06:26:20.605Z</time></trkpt><trkpt lat="43.6057092" lon="16.311584"><ele>234.0</ele><time>2026-05-05T06:26:21.605Z</time></trkpt><trkpt lat="43.6059007" lon="16.3112878"><ele>234.5</ele><time>2026-05-05T06:26:22.606Z</time></trkpt><trkpt lat="43.6060913" lon="16.3110068"><ele>235.0</ele><time>2026-05-05T06:26:23.606Z</time></trkpt><trkpt lat="43.6062843" lon="16.310722"><ele>235.0</ele><time>2026-05-05T06:26:24.606Z</time></trkpt><trkpt lat="43.606483" lon="16.3104322"><ele>235.0</ele><time>2026-05-05T06:26:25.606Z</time></trkpt><trkpt lat="43.6066801" lon="16.3101534"><ele>235.0</ele><time>2026-05-05T06:26:26.606Z</time></trkpt><trkpt lat="43.6068745" lon="16.3098692"><ele>235.0</ele><time>2026-05-05T06:26:27.606Z</time></trkpt><trkpt lat="43.6070635" lon="16.3095924"><ele>234.5</ele><time>2026-05-05T06:26:28.606Z</time></trkpt><trkpt lat="43.6072579" lon="16.3092932"><ele>234.0</ele><time>2026-05-05T06:26:29.605Z</time></trkpt><trkpt lat="43.6074406" lon="16.3089959"><ele>235.0</ele><time>2026-05-05T06:26:30.606Z</time></trkpt><trkpt lat="43.6076273" lon="16.3086962"><ele>236.0</ele><time>2026-05-05T06:26:31.606Z</time></trkpt><trkpt lat="43.6078006" lon="16.3083869"><ele>234.0</ele><time>2026-05-05T06:26:32.605Z</time></trkpt><trkpt lat="43.6079688" lon="16.3080758"><ele>232.0</ele><time>2026-05-05T06:26:33.606Z</time></trkpt><trkpt lat="43.6081329" lon="16.3077597"><ele>232.0</ele><time>2026-05-05T06:26:34.606Z</time></trkpt><trkpt lat="43.6082926" lon="16.307441"><ele>232.0</ele><time>2026-05-05T06:26:35.605Z</time></trkpt><trkpt lat="43.6084475" lon="16.3071243"><ele>231.5</ele><time>2026-05-05T06:26:36.605Z</time></trkpt><trkpt lat="43.6085984" lon="16.3068"><ele>231.0</ele><time>2026-05-05T06:26:37.606Z</time></trkpt><trkpt lat="43.6087398" lon="16.3064628"><ele>230.5</ele><time>2026-05-05T06:26:38.605Z</time></trkpt><trkpt lat="43.6088749" lon="16.3061255"><ele>230.0</ele><time>2026-05-05T06:26:39.606Z</time></trkpt><trkpt lat="43.6090036" lon="16.3057822"><ele>228.0</ele><time>2026-05-05T06:26:40.606Z</time></trkpt><trkpt lat="43.6091286" lon="16.3054355"><ele>226.0</ele><time>2026-05-05T06:26:41.605Z</time></trkpt><trkpt lat="43.6092539" lon="16.3050899"><ele>225.5</ele><time>2026-05-05T06:26:42.606Z</time></trkpt><trkpt lat="43.6093681" lon="16.3047393"><ele>225.0</ele><time>2026-05-05T06:26:43.606Z</time></trkpt><trkpt lat="43.6094778" lon="16.3043805"><ele>226.0</ele><time>2026-05-05T06:26:44.605Z</time></trkpt><trkpt lat="43.6095806" lon="16.3040226"><ele>227.0</ele><time>2026-05-05T06:26:45.605Z</time></trkpt><trkpt lat="43.6096727" lon="16.3036622"><ele>227.5</ele><time>2026-05-05T06:26:46.606Z</time></trkpt><trkpt lat="43.6097591" lon="16.3032964"><ele>228.0</ele><time>2026-05-05T06:26:47.605Z</time></trkpt><trkpt lat="43.609845" lon="16.3029323"><ele>228.0</ele><time>2026-05-05T06:26:48.605Z</time></trkpt><trkpt lat="43.6099294" lon="16.302569"><ele>228.0</ele><time>2026-05-05T06:26:49.605Z</time></trkpt><trkpt lat="43.6100073" lon="16.3022032"><ele>228.5</ele><time>2026-05-05T06:26:50.606Z</time></trkpt><trkpt lat="43.6100856" lon="16.3018403"><ele>229.0</ele><time>2026-05-05T06:26:51.605Z</time></trkpt><trkpt lat="43.6101624" lon="16.3014787"><ele>230.0</ele><time>2026-05-05T06:26:52.606Z</time></trkpt><trkpt lat="43.6102405" lon="16.3011166"><ele>231.0</ele><time>2026-05-05T06:26:53.606Z</time></trkpt><trkpt lat="43.6103198" lon="16.3007519"><ele>231.0</ele><time>2026-05-05T06:26:54.606Z</time></trkpt><trkpt lat="43.6103981" lon="16.3003942"><ele>231.0</ele><time>2026-05-05T06:26:55.605Z</time></trkpt><trkpt lat="43.6104749" lon="16.3000318"><ele>232.0</ele><time>2026-05-05T06:26:56.606Z</time></trkpt><trkpt lat="43.6105464" lon="16.2996662"><ele>233.0</ele><time>2026-05-05T06:26:57.606Z</time></trkpt><trkpt lat="43.6106218" lon="16.2993024"><ele>233.0</ele><time>2026-05-05T06:26:58.605Z</time></trkpt><trkpt lat="43.6106977" lon="16.2989388"><ele>233.0</ele><time>2026-05-05T06:26:59.605Z</time></trkpt><trkpt lat="43.610775" lon="16.298573"><ele>233.0</ele><time>2026-05-05T06:27:00.606Z</time></trkpt><trkpt lat="43.6108511" lon="16.2982034"><ele>233.0</ele><time>2026-05-05T06:27:01.606Z</time></trkpt><trkpt lat="43.6109341" lon="16.2978324"><ele>233.5</ele><time>2026-05-05T06:27:02.606Z</time></trkpt><trkpt lat="43.6110162" lon="16.2974607"><ele>234.0</ele><time>2026-05-05T06:27:03.605Z</time></trkpt><trkpt lat="43.6110985" lon="16.2970899"><ele>234.0</ele><time>2026-05-05T06:27:04.606Z</time></trkpt><trkpt lat="43.61118" lon="16.2967188"><ele>234.0</ele><time>2026-05-05T06:27:05.606Z</time></trkpt><trkpt lat="43.6112612" lon="16.2963447"><ele>234.0</ele><time>2026-05-05T06:27:06.606Z</time></trkpt><trkpt lat="43.6113419" lon="16.2959712"><ele>234.0</ele><time>2026-05-05T06:27:07.606Z</time></trkpt><trkpt lat="43.6114208" lon="16.2955969"><ele>234.5</ele><time>2026-05-05T06:27:08.605Z</time></trkpt><trkpt lat="43.6114998" lon="16.295225"><ele>235.0</ele><time>2026-05-05T06:27:09.605Z</time></trkpt><trkpt lat="43.6115796" lon="16.2948539"><ele>235.0</ele><time>2026-05-05T06:27:10.605Z</time></trkpt><trkpt lat="43.6116593" lon="16.2944825"><ele>235.0</ele><time>2026-05-05T06:27:11.606Z</time></trkpt><trkpt lat="43.6117406" lon="16.2941093"><ele>236.5</ele><time>2026-05-05T06:27:12.606Z</time></trkpt><trkpt lat="43.6118194" lon="16.293738"><ele>238.0</ele><time>2026-05-05T06:27:13.605Z</time></trkpt><trkpt lat="43.6118943" lon="16.293365"><ele>238.5</ele><time>2026-05-05T06:27:14.605Z</time></trkpt><trkpt lat="43.6119762" lon="16.2929926"><ele>239.0</ele><time>2026-05-05T06:27:15.606Z</time></trkpt><trkpt lat="43.6120592" lon="16.2926227"><ele>238.5</ele><time>2026-05-05T06:27:16.605Z</time></trkpt><trkpt lat="43.6121415" lon="16.2922514"><ele>238.0</ele><time>2026-05-05T06:27:17.606Z</time></trkpt><trkpt lat="43.6122219" lon="16.2918808"><ele>238.0</ele><time>2026-05-05T06:27:18.605Z</time></trkpt><trkpt lat="43.6123047" lon="16.2915114"><ele>238.0</ele><time>2026-05-05T06:27:19.605Z</time></trkpt><trkpt lat="43.6123854" lon="16.2911385"><ele>238.5</ele><time>2026-05-05T06:27:20.606Z</time></trkpt><trkpt lat="43.6124664" lon="16.2907671"><ele>239.0</ele><time>2026-05-05T06:27:21.605Z</time></trkpt><trkpt lat="43.6125464" lon="16.2903952"><ele>240.5</ele><time>2026-05-05T06:27:22.606Z</time></trkpt><trkpt lat="43.612624" lon="16.2900242"><ele>242.0</ele><time>2026-05-05T06:27:23.605Z</time></trkpt><trkpt lat="43.6127031" lon="16.2896555"><ele>242.0</ele><time>2026-05-05T06:27:24.606Z</time></trkpt><trkpt lat="43.6127833" lon="16.2892864"><ele>242.0</ele><time>2026-05-05T06:27:25.605Z</time></trkpt><trkpt lat="43.6128615" lon="16.2889142"><ele>241.5</ele><time>2026-05-05T06:27:26.606Z</time></trkpt><trkpt lat="43.6129415" lon="16.2885425"><ele>241.0</ele><time>2026-05-05T06:27:27.605Z</time></trkpt><trkpt lat="43.6130204" lon="16.2881723"><ele>242.5</ele><time>2026-05-05T06:27:28.605Z</time></trkpt><trkpt lat="43.6131017" lon="16.2878"><ele>244.0</ele><time>2026-05-05T06:27:29.606Z</time></trkpt><trkpt lat="43.6131815" lon="16.2874332"><ele>243.5</ele><time>2026-05-05T06:27:30.606Z</time></trkpt><trkpt lat="43.6132598" lon="16.2870611"><ele>243.0</ele><time>2026-05-05T06:27:31.606Z</time></trkpt><trkpt lat="43.613339" lon="16.2866907"><ele>244.5</ele><time>2026-05-05T06:27:32.606Z</time></trkpt><trkpt lat="43.6134205" lon="16.2863201"><ele>246.0</ele><time>2026-05-05T06:27:33.605Z</time></trkpt><trkpt lat="43.6135081" lon="16.2859534"><ele>246.0</ele><time>2026-05-05T06:27:34.605Z</time></trkpt><trkpt lat="43.6135972" lon="16.2855896"><ele>246.0</ele><time>2026-05-05T06:27:35.606Z</time></trkpt><trkpt lat="43.6136873" lon="16.2852236"><ele>246.0</ele><time>2026-05-05T06:27:36.606Z</time></trkpt><trkpt lat="43.6137838" lon="16.2848595"><ele>246.0</ele><time>2026-05-05T06:27:37.605Z</time></trkpt><trkpt lat="43.6138835" lon="16.2844927"><ele>247.0</ele><time>2026-05-05T06:27:38.606Z</time></trkpt><trkpt lat="43.6139844" lon="16.2841322"><ele>248.0</ele><time>2026-05-05T06:27:39.606Z</time></trkpt><trkpt lat="43.6140902" lon="16.2837721"><ele>249.0</ele><time>2026-05-05T06:27:40.605Z</time></trkpt><trkpt lat="43.6141998" lon="16.2834155"><ele>250.0</ele><time>2026-05-05T06:27:41.606Z</time></trkpt><trkpt lat="43.6143145" lon="16.2830636"><ele>250.0</ele><time>2026-05-05T06:27:42.605Z</time></trkpt><trkpt lat="43.6144339" lon="16.282715"><ele>250.0</ele><time>2026-05-05T06:27:43.605Z</time></trkpt><trkpt lat="43.6145571" lon="16.2823704"><ele>249.5</ele><time>2026-05-05T06:27:44.605Z</time></trkpt><trkpt lat="43.6146836" lon="16.2820274"><ele>249.0</ele><time>2026-05-05T06:27:45.606Z</time></trkpt><trkpt lat="43.6148154" lon="16.2816884"><ele>250.0</ele><time>2026-05-05T06:27:46.606Z</time></trkpt><trkpt lat="43.6149521" lon="16.281354"><ele>251.0</ele><time>2026-05-05T06:27:47.605Z</time></trkpt><trkpt lat="43.6150876" lon="16.2810218"><ele>251.0</ele><time>2026-05-05T06:27:48.605Z</time></trkpt><trkpt lat="43.6152237" lon="16.2806975"><ele>251.0</ele><time>2026-05-05T06:27:49.605Z</time></trkpt><trkpt lat="43.6153654" lon="16.2803754"><ele>251.0</ele><time>2026-05-05T06:27:50.606Z</time></trkpt><trkpt lat="43.6155105" lon="16.2800579"><ele>251.0</ele><time>2026-05-05T06:27:51.606Z</time></trkpt><trkpt lat="43.6156603" lon="16.2797421"><ele>252.5</ele><time>2026-05-05T06:27:52.606Z</time></trkpt><trkpt lat="43.6158117" lon="16.2794355"><ele>254.0</ele><time>2026-05-05T06:27:53.605Z</time></trkpt><trkpt lat="43.6159649" lon="16.2791274"><ele>253.5</ele><time>2026-05-05T06:27:54.606Z</time></trkpt><trkpt lat="43.6161141" lon="16.2788229"><ele>253.0</ele><time>2026-05-05T06:27:55.606Z</time></trkpt><trkpt lat="43.616264" lon="16.2785262"><ele>253.0</ele><time>2026-05-05T06:27:56.605Z</time></trkpt><trkpt lat="43.6164221" lon="16.278224"><ele>253.0</ele><time>2026-05-05T06:27:57.605Z</time></trkpt><trkpt lat="43.6165748" lon="16.2779255"><ele>256.0</ele><time>2026-05-05T06:27:58.605Z</time></trkpt><trkpt lat="43.6167261" lon="16.277628"><ele>259.0</ele><time>2026-05-05T06:27:59.606Z</time></trkpt><trkpt lat="43.6168763" lon="16.2773255"><ele>259.5</ele><time>2026-05-05T06:28:00.606Z</time></trkpt><trkpt lat="43.6170317" lon="16.2770227"><ele>260.0</ele><time>2026-05-05T06:28:01.606Z</time></trkpt><trkpt lat="43.6171841" lon="16.2767191"><ele>262.0</ele><time>2026-05-05T06:28:02.605Z</time></trkpt><trkpt lat="43.6173265" lon="16.276408"><ele>264.0</ele><time>2026-05-05T06:28:03.605Z</time></trkpt><trkpt lat="43.6174655" lon="16.2760965"><ele>264.0</ele><time>2026-05-05T06:28:04.606Z</time></trkpt><trkpt lat="43.6176002" lon="16.2757823"><ele>264.0</ele><time>2026-05-05T06:28:05.606Z</time></trkpt><trkpt lat="43.6177246" lon="16.2754543"><ele>266.5</ele><time>2026-05-05T06:28:06.605Z</time></trkpt><trkpt lat="43.6178425" lon="16.2751292"><ele>269.0</ele><time>2026-05-05T06:28:07.606Z</time></trkpt><trkpt lat="43.6179588" lon="16.2747908"><ele>269.5</ele><time>2026-05-05T06:28:08.605Z</time></trkpt><trkpt lat="43.618068" lon="16.2744511"><ele>270.0</ele><time>2026-05-05T06:28:09.606Z</time></trkpt><trkpt lat="43.6181728" lon="16.2741054"><ele>271.5</ele><time>2026-05-05T06:28:10.606Z</time></trkpt><trkpt lat="43.618271" lon="16.2737566"><ele>273.0</ele><time>2026-05-05T06:28:11.605Z</time></trkpt><trkpt lat="43.6183673" lon="16.2733968"><ele>272.5</ele><time>2026-05-05T06:28:12.606Z</time></trkpt><trkpt lat="43.6184587" lon="16.2730278"><ele>272.0</ele><time>2026-05-05T06:28:13.606Z</time></trkpt><trkpt lat="43.6185455" lon="16.272659"><ele>272.0</ele><time>2026-05-05T06:28:14.605Z</time></trkpt><trkpt lat="43.6186239" lon="16.27228"><ele>272.0</ele><time>2026-05-05T06:28:15.605Z</time></trkpt><trkpt lat="43.6186972" lon="16.2719021"><ele>273.0</ele><time>2026-05-05T06:28:16.606Z</time></trkpt><trkpt lat="43.618761" lon="16.2715223"><ele>274.0</ele><time>2026-05-05T06:28:17.605Z</time></trkpt><trkpt lat="43.6188162" lon="16.2711442"><ele>273.5</ele><time>2026-05-05T06:28:18.605Z</time></trkpt><trkpt lat="43.6188655" lon="16.2707629"><ele>273.0</ele><time>2026-05-05T06:28:19.605Z</time></trkpt><trkpt lat="43.6189053" lon="16.2703811"><ele>273.0</ele><time>2026-05-05T06:28:20.606Z</time></trkpt><trkpt lat="43.6189407" lon="16.2699982"><ele>273.0</ele><time>2026-05-05T06:28:21.605Z</time></trkpt><trkpt lat="43.6189631" lon="16.2696094"><ele>273.5</ele><time>2026-05-05T06:28:22.606Z</time></trkpt><trkpt lat="43.6189801" lon="16.2692127"><ele>274.0</ele><time>2026-05-05T06:28:23.606Z</time></trkpt><trkpt lat="43.6189883" lon="16.2688081"><ele>274.5</ele><time>2026-05-05T06:28:24.605Z</time></trkpt><trkpt lat="43.6189887" lon="16.2684"><ele>275.0</ele><time>2026-05-05T06:28:25.606Z</time></trkpt><trkpt lat="43.6189868" lon="16.2679956"><ele>275.0</ele><time>2026-05-05T06:28:26.606Z</time></trkpt><trkpt lat="43.6189751" lon="16.267595"><ele>275.0</ele><time>2026-05-05T06:28:27.606Z</time></trkpt><trkpt lat="43.6189637" lon="16.2671954"><ele>274.5</ele><time>2026-05-05T06:28:28.605Z</time></trkpt><trkpt lat="43.6189569" lon="16.2668004"><ele>274.0</ele><time>2026-05-05T06:28:29.605Z</time></trkpt><trkpt lat="43.6189426" lon="16.2664086"><ele>274.0</ele><time>2026-05-05T06:28:30.605Z</time></trkpt><trkpt lat="43.6189287" lon="16.2660223"><ele>274.0</ele><time>2026-05-05T06:28:31.605Z</time></trkpt><trkpt lat="43.6189143" lon="16.2656388"><ele>276.0</ele><time>2026-05-05T06:28:32.606Z</time></trkpt><trkpt lat="43.6189004" lon="16.2652585"><ele>278.0</ele><time>2026-05-05T06:28:33.605Z</time></trkpt><trkpt lat="43.6188889" lon="16.2648747"><ele>278.5</ele><time>2026-05-05T06:28:34.606Z</time></trkpt><trkpt lat="43.6188804" lon="16.2644913"><ele>279.0</ele><time>2026-05-05T06:28:35.606Z</time></trkpt><trkpt lat="43.6188706" lon="16.2641119"><ele>278.5</ele><time>2026-05-05T06:28:36.605Z</time></trkpt><trkpt lat="43.618859" lon="16.2637234"><ele>278.0</ele><time>2026-05-05T06:28:37.605Z</time></trkpt><trkpt lat="43.6188423" lon="16.2633368"><ele>277.5</ele><time>2026-05-05T06:28:38.605Z</time></trkpt><trkpt lat="43.6188251" lon="16.2629441"><ele>277.0</ele><time>2026-05-05T06:28:39.605Z</time></trkpt><trkpt lat="43.6188162" lon="16.2625562"><ele>277.0</ele><time>2026-05-05T06:28:40.605Z</time></trkpt><trkpt lat="43.6188107" lon="16.2621651"><ele>277.0</ele><time>2026-05-05T06:28:41.605Z</time></trkpt><trkpt lat="43.6188026" lon="16.2617778"><ele>276.0</ele><time>2026-05-05T06:28:42.605Z</time></trkpt><trkpt lat="43.6188029" lon="16.2613915"><ele>275.0</ele><time>2026-05-05T06:28:43.606Z</time></trkpt><trkpt lat="43.6187992" lon="16.2610107"><ele>275.0</ele><time>2026-05-05T06:28:44.606Z</time></trkpt><trkpt lat="43.6187859" lon="16.2606258"><ele>275.0</ele><time>2026-05-05T06:28:45.606Z</time></trkpt><trkpt lat="43.6187731" lon="16.2602427"><ele>274.5</ele><time>2026-05-05T06:28:46.606Z</time></trkpt><trkpt lat="43.6187588" lon="16.2598667"><ele>274.0</ele><time>2026-05-05T06:28:47.606Z</time></trkpt><trkpt lat="43.6187418" lon="16.2594894"><ele>276.5</ele><time>2026-05-05T06:28:48.606Z</time></trkpt><trkpt lat="43.6187277" lon="16.259117"><ele>279.0</ele><time>2026-05-05T06:28:49.605Z</time></trkpt><trkpt lat="43.6187089" lon="16.2587411"><ele>279.0</ele><time>2026-05-05T06:28:50.606Z</time></trkpt><trkpt lat="43.6186987" lon="16.2583679"><ele>279.0</ele><time>2026-05-05T06:28:51.606Z</time></trkpt><trkpt lat="43.6186839" lon="16.2579928"><ele>279.0</ele><time>2026-05-05T06:28:52.606Z</time></trkpt><trkpt lat="43.6186678" lon="16.257625"><ele>279.0</ele><time>2026-05-05T06:28:53.606Z</time></trkpt><trkpt lat="43.6186516" lon="16.2572387"><ele>281.5</ele><time>2026-05-05T06:28:54.605Z</time></trkpt><trkpt lat="43.6186453" lon="16.2568684"><ele>284.0</ele><time>2026-05-05T06:28:55.605Z</time></trkpt><trkpt lat="43.6186379" lon="16.2565006"><ele>282.5</ele><time>2026-05-05T06:28:56.605Z</time></trkpt><trkpt lat="43.6186272" lon="16.2561277"><ele>281.0</ele><time>2026-05-05T06:28:57.605Z</time></trkpt><trkpt lat="43.6186088" lon="16.2557582"><ele>281.0</ele><time>2026-05-05T06:28:58.605Z</time></trkpt><trkpt lat="43.6185972" lon="16.255388"><ele>281.0</ele><time>2026-05-05T06:28:59.606Z</time></trkpt><trkpt lat="43.6185859" lon="16.2550159"><ele>277.0</ele><time>2026-05-05T06:29:00.606Z</time></trkpt><trkpt lat="43.618572" lon="16.2546441"><ele>273.0</ele><time>2026-05-05T06:29:01.606Z</time></trkpt><trkpt lat="43.61856" lon="16.254276"><ele>272.5</ele><time>2026-05-05T06:29:02.605Z</time></trkpt><trkpt lat="43.6185496" lon="16.2539076"><ele>272.0</ele><time>2026-05-05T06:29:03.605Z</time></trkpt><trkpt lat="43.6185386" lon="16.2535398"><ele>272.0</ele><time>2026-05-05T06:29:04.605Z</time></trkpt><trkpt lat="43.6185277" lon="16.2531667"><ele>272.0</ele><time>2026-05-05T06:29:05.606Z</time></trkpt><trkpt lat="43.6185232" lon="16.2527961"><ele>275.5</ele><time>2026-05-05T06:29:06.605Z</time></trkpt><trkpt lat="43.6185245" lon="16.2524297"><ele>279.0</ele><time>2026-05-05T06:29:07.606Z</time></trkpt><trkpt lat="43.6185291" lon="16.2520645"><ele>280.0</ele><time>2026-05-05T06:29:08.605Z</time></trkpt><trkpt lat="43.6185451" lon="16.2516995"><ele>281.0</ele><time>2026-05-05T06:29:09.605Z</time></trkpt><trkpt lat="43.618567" lon="16.2513362"><ele>284.5</ele><time>2026-05-05T06:29:10.606Z</time></trkpt><trkpt lat="43.6185975" lon="16.2509714"><ele>288.0</ele><time>2026-05-05T06:29:11.606Z</time></trkpt><trkpt lat="43.6186374" lon="16.2506103"><ele>284.5</ele><time>2026-05-05T06:29:12.606Z</time></trkpt><trkpt lat="43.6186809" lon="16.2502502"><ele>281.0</ele><time>2026-05-05T06:29:13.605Z</time></trkpt><trkpt lat="43.6187307" lon="16.2498922"><ele>283.5</ele><time>2026-05-05T06:29:14.605Z</time></trkpt><trkpt lat="43.6187857" lon="16.2495354"><ele>286.0</ele><time>2026-05-05T06:29:15.605Z</time></trkpt><trkpt lat="43.6188503" lon="16.249184"><ele>286.5</ele><time>2026-05-05T06:29:16.606Z</time></trkpt><trkpt lat="43.6189284" lon="16.2488387"><ele>287.0</ele><time>2026-05-05T06:29:17.605Z</time></trkpt><trkpt lat="43.6190038" lon="16.2484861"><ele>287.0</ele><time>2026-05-05T06:29:18.606Z</time></trkpt><trkpt lat="43.619096" lon="16.248145"><ele>287.0</ele><time>2026-05-05T06:29:19.606Z</time></trkpt><trkpt lat="43.61919" lon="16.2478028"><ele>288.0</ele><time>2026-05-05T06:29:20.605Z</time></trkpt><trkpt lat="43.6192927" lon="16.2474667"><ele>289.0</ele><time>2026-05-05T06:29:21.606Z</time></trkpt><trkpt lat="43.6194025" lon="16.2471364"><ele>285.0</ele><time>2026-05-05T06:29:22.605Z</time></trkpt><trkpt lat="43.6195143" lon="16.2468099"><ele>281.0</ele><time>2026-05-05T06:29:23.605Z</time></trkpt><trkpt lat="43.6196322" lon="16.2464842"><ele>284.5</ele><time>2026-05-05T06:29:24.605Z</time></trkpt><trkpt lat="43.6197557" lon="16.2461576"><ele>288.0</ele><time>2026-05-05T06:29:25.606Z</time></trkpt><trkpt lat="43.6198887" lon="16.2458436"><ele>287.5</ele><time>2026-05-05T06:29:26.606Z</time></trkpt><trkpt lat="43.6200264" lon="16.2455281"><ele>287.0</ele><time>2026-05-05T06:29:27.606Z</time></trkpt><trkpt lat="43.6201782" lon="16.2452243"><ele>278.5</ele><time>2026-05-05T06:29:28.606Z</time></trkpt><trkpt lat="43.6203318" lon="16.2449226"><ele>270.0</ele><time>2026-05-05T06:29:29.606Z</time></trkpt><trkpt lat="43.6204869" lon="16.2446211"><ele>267.5</ele><time>2026-05-05T06:29:30.605Z</time></trkpt><trkpt lat="43.6206493" lon="16.2443221"><ele>265.0</ele><time>2026-05-05T06:29:31.605Z</time></trkpt><trkpt lat="43.6208179" lon="16.2440351"><ele>265.5</ele><time>2026-05-05T06:29:32.606Z</time></trkpt><trkpt lat="43.6209843" lon="16.2437583"><ele>266.0</ele><time>2026-05-05T06:29:33.606Z</time></trkpt><trkpt lat="43.6211664" lon="16.2434907"><ele>265.0</ele><time>2026-05-05T06:29:34.605Z</time></trkpt><trkpt lat="43.6213537" lon="16.2432274"><ele>264.0</ele><time>2026-05-05T06:29:35.605Z</time></trkpt><trkpt lat="43.6215499" lon="16.242969"><ele>271.5</ele><time>2026-05-05T06:29:36.605Z</time></trkpt><trkpt lat="43.6217456" lon="16.2427193"><ele>279.0</ele><time>2026-05-05T06:29:37.605Z</time></trkpt><trkpt lat="43.6219464" lon="16.2424752"><ele>285.0</ele><time>2026-05-05T06:29:38.606Z</time></trkpt><trkpt lat="43.6221494" lon="16.2422372"><ele>291.0</ele><time>2026-05-05T06:29:39.605Z</time></trkpt><trkpt lat="43.6223546" lon="16.2420097"><ele>291.0</ele><time>2026-05-05T06:29:40.605Z</time></trkpt><trkpt lat="43.6225555" lon="16.2417931"><ele>291.0</ele><time>2026-05-05T06:29:41.606Z</time></trkpt><trkpt lat="43.622767" lon="16.2415741"><ele>288.5</ele><time>2026-05-05T06:29:42.606Z</time></trkpt><trkpt lat="43.6229743" lon="16.2413484"><ele>286.0</ele><time>2026-05-05T06:29:43.605Z</time></trkpt><trkpt lat="43.623183" lon="16.2411278"><ele>286.0</ele><time>2026-05-05T06:29:44.606Z</time></trkpt><trkpt lat="43.6233894" lon="16.2408989"><ele>286.0</ele><time>2026-05-05T06:29:45.606Z</time></trkpt><trkpt lat="43.6235966" lon="16.2406664"><ele>282.5</ele><time>2026-05-05T06:29:46.606Z</time></trkpt><trkpt lat="43.6237963" lon="16.2404306"><ele>279.0</ele><time>2026-05-05T06:29:47.606Z</time></trkpt><trkpt lat="43.6239996" lon="16.2401872"><ele>279.0</ele><time>2026-05-05T06:29:48.606Z</time></trkpt><trkpt lat="43.6241997" lon="16.2399365"><ele>279.0</ele><time>2026-05-05T06:29:49.606Z</time></trkpt><trkpt lat="43.6243932" lon="16.2397014"><ele>276.5</ele><time>2026-05-05T06:29:50.606Z</time></trkpt><trkpt lat="43.6245855" lon="16.2394349"><ele>274.0</ele><time>2026-05-05T06:29:51.605Z</time></trkpt><trkpt lat="43.6247704" lon="16.2391721"><ele>280.5</ele><time>2026-05-05T06:29:52.605Z</time></trkpt><trkpt lat="43.6249519" lon="16.2388922"><ele>287.0</ele><time>2026-05-05T06:29:53.605Z</time></trkpt><trkpt lat="43.625134" lon="16.2386032"><ele>287.0</ele><time>2026-05-05T06:29:54.605Z</time></trkpt><trkpt lat="43.6253043" lon="16.2383167"><ele>287.0</ele><time>2026-05-05T06:29:55.605Z</time></trkpt><trkpt lat="43.6254669" lon="16.2380166"><ele>275.0</ele><time>2026-05-05T06:29:56.606Z</time></trkpt><trkpt lat="43.6256279" lon="16.2377147"><ele>263.0</ele><time>2026-05-05T06:29:57.606Z</time></trkpt><trkpt lat="43.6257855" lon="16.2374115"><ele>262.5</ele><time>2026-05-05T06:29:58.606Z</time></trkpt><trkpt lat="43.6259481" lon="16.2371119"><ele>262.0</ele><time>2026-05-05T06:29:59.606Z</time></trkpt><trkpt lat="43.6261144" lon="16.2368091"><ele>260.0</ele><time>2026-05-05T06:30:00.605Z</time></trkpt><trkpt lat="43.6262769" lon="16.2365005"><ele>258.0</ele><time>2026-05-05T06:30:01.606Z</time></trkpt><trkpt lat="43.6264418" lon="16.2362125"><ele>258.0</ele><time>2026-05-05T06:30:02.606Z</time></trkpt><trkpt lat="43.6266046" lon="16.2359188"><ele>258.0</ele><time>2026-05-05T06:30:03.605Z</time></trkpt><trkpt lat="43.6267689" lon="16.2356224"><ele>256.0</ele><time>2026-05-05T06:30:04.605Z</time></trkpt><trkpt lat="43.626934" lon="16.2353328"><ele>254.0</ele><time>2026-05-05T06:30:05.606Z</time></trkpt><trkpt lat="43.6271036" lon="16.2350417"><ele>260.5</ele><time>2026-05-05T06:30:06.605Z</time></trkpt><trkpt lat="43.6272745" lon="16.2347489"><ele>267.0</ele><time>2026-05-05T06:30:07.606Z</time></trkpt><trkpt lat="43.6274528" lon="16.2344585"><ele>267.0</ele><time>2026-05-05T06:30:08.605Z</time></trkpt><trkpt lat="43.6276382" lon="16.234156"><ele>267.0</ele><time>2026-05-05T06:30:09.606Z</time></trkpt><trkpt lat="43.6278216" lon="16.2338638"><ele>257.0</ele><time>2026-05-05T06:30:10.606Z</time></trkpt><trkpt lat="43.628005" lon="16.2335791"><ele>247.0</ele><time>2026-05-05T06:30:11.605Z</time></trkpt><trkpt lat="43.6281878" lon="16.2332902"><ele>249.5</ele><time>2026-05-05T06:30:12.606Z</time></trkpt><trkpt lat="43.6283745" lon="16.2330058"><ele>252.0</ele><time>2026-05-05T06:30:13.606Z</time></trkpt><trkpt lat="43.6285645" lon="16.2327245"><ele>252.5</ele><time>2026-05-05T06:30:14.605Z</time></trkpt><trkpt lat="43.6287578" lon="16.2324378"><ele>253.0</ele><time>2026-05-05T06:30:15.606Z</time></trkpt><trkpt lat="43.6289479" lon="16.232158"><ele>253.0</ele><time>2026-05-05T06:30:16.605Z</time></trkpt><trkpt lat="43.6291407" lon="16.2318805"><ele>253.0</ele><time>2026-05-05T06:30:17.606Z</time></trkpt><trkpt lat="43.6293379" lon="16.2316072"><ele>247.5</ele><time>2026-05-05T06:30:18.606Z</time></trkpt><trkpt lat="43.6295291" lon="16.2313315"><ele>242.0</ele><time>2026-05-05T06:30:19.605Z</time></trkpt><trkpt lat="43.6297159" lon="16.2310432"><ele>242.0</ele><time>2026-05-05T06:30:20.605Z</time></trkpt><trkpt lat="43.6299021" lon="16.2307557"><ele>242.0</ele><time>2026-05-05T06:30:21.606Z</time></trkpt><trkpt lat="43.6300824" lon="16.2304608"><ele>247.5</ele><time>2026-05-05T06:30:22.605Z</time></trkpt><trkpt lat="43.6302555" lon="16.2301575"><ele>253.0</ele><time>2026-05-05T06:30:23.606Z</time></trkpt><trkpt lat="43.6304228" lon="16.229855"><ele>242.0</ele><time>2026-05-05T06:30:24.605Z</time></trkpt><trkpt lat="43.630587" lon="16.2295453"><ele>231.0</ele><time>2026-05-05T06:30:25.606Z</time></trkpt><trkpt lat="43.6307445" lon="16.2292275"><ele>235.5</ele><time>2026-05-05T06:30:26.606Z</time></trkpt><trkpt lat="43.6308958" lon="16.2289076"><ele>240.0</ele><time>2026-05-05T06:30:27.606Z</time></trkpt><trkpt lat="43.6310385" lon="16.2285826"><ele>234.5</ele><time>2026-05-05T06:30:28.605Z</time></trkpt><trkpt lat="43.6311754" lon="16.2282493"><ele>229.0</ele><time>2026-05-05T06:30:29.605Z</time></trkpt><trkpt lat="43.6313124" lon="16.2279166"><ele>229.0</ele><time>2026-05-05T06:30:30.605Z</time></trkpt><trkpt lat="43.6314423" lon="16.2275749"><ele>229.0</ele><time>2026-05-05T06:30:31.605Z</time></trkpt><trkpt lat="43.6315671" lon="16.2272235"><ele>233.0</ele><time>2026-05-05T06:30:32.606Z</time></trkpt><trkpt lat="43.6316836" lon="16.2268694"><ele>237.0</ele><time>2026-05-05T06:30:33.605Z</time></trkpt><trkpt lat="43.631794" lon="16.2265109"><ele>239.5</ele><time>2026-05-05T06:30:34.606Z</time></trkpt><trkpt lat="43.6318897" lon="16.2261416"><ele>242.0</ele><time>2026-05-05T06:30:35.605Z</time></trkpt><trkpt lat="43.6319834" lon="16.2257693"><ele>228.0</ele><time>2026-05-05T06:30:36.605Z</time></trkpt><trkpt lat="43.6320658" lon="16.2253908"><ele>214.0</ele><time>2026-05-05T06:30:37.606Z</time></trkpt><trkpt lat="43.6321483" lon="16.2250076"><ele>216.0</ele><time>2026-05-05T06:30:38.606Z</time></trkpt><trkpt lat="43.6322275" lon="16.2246275"><ele>218.0</ele><time>2026-05-05T06:30:39.606Z</time></trkpt><trkpt lat="43.6323028" lon="16.2242493"><ele>219.5</ele><time>2026-05-05T06:30:40.606Z</time></trkpt><trkpt lat="43.6323799" lon="16.2238619"><ele>221.0</ele><time>2026-05-05T06:30:41.606Z</time></trkpt><trkpt lat="43.6324515" lon="16.2234814"><ele>221.5</ele><time>2026-05-05T06:30:42.606Z</time></trkpt><trkpt lat="43.6325282" lon="16.2231004"><ele>222.0</ele><time>2026-05-05T06:30:43.606Z</time></trkpt><trkpt lat="43.6326089" lon="16.2227282"><ele>222.0</ele><time>2026-05-05T06:30:44.606Z</time></trkpt><trkpt lat="43.6326928" lon="16.2223535"><ele>222.0</ele><time>2026-05-05T06:30:45.606Z</time></trkpt><trkpt lat="43.6327812" lon="16.221987"><ele>212.5</ele><time>2026-05-05T06:30:46.605Z</time></trkpt><trkpt lat="43.6328754" lon="16.2216234"><ele>203.0</ele><time>2026-05-05T06:30:47.605Z</time></trkpt><trkpt lat="43.6329637" lon="16.2212598"><ele>203.0</ele><time>2026-05-05T06:30:48.606Z</time></trkpt><trkpt lat="43.6330585" lon="16.2209009"><ele>203.0</ele><time>2026-05-05T06:30:49.606Z</time></trkpt><trkpt lat="43.6331618" lon="16.2205405"><ele>203.5</ele><time>2026-05-05T06:30:50.606Z</time></trkpt><trkpt lat="43.6332644" lon="16.2201799"><ele>204.0</ele><time>2026-05-05T06:30:51.606Z</time></trkpt><trkpt lat="43.633374" lon="16.219814"><ele>205.0</ele><time>2026-05-05T06:30:52.606Z</time></trkpt><trkpt lat="43.6334884" lon="16.2194495"><ele>206.0</ele><time>2026-05-05T06:30:53.605Z</time></trkpt><trkpt lat="43.6336084" lon="16.2190926"><ele>205.0</ele><time>2026-05-05T06:30:54.606Z</time></trkpt><trkpt lat="43.6337325" lon="16.2187347"><ele>204.0</ele><time>2026-05-05T06:30:55.605Z</time></trkpt><trkpt lat="43.6338603" lon="16.2183796"><ele>204.5</ele><time>2026-05-05T06:30:56.605Z</time></trkpt><trkpt lat="43.6339939" lon="16.2180301"><ele>205.0</ele><time>2026-05-05T06:30:57.606Z</time></trkpt><trkpt lat="43.6341289" lon="16.2176805"><ele>205.0</ele><time>2026-05-05T06:30:58.606Z</time></trkpt><trkpt lat="43.6342678" lon="16.2173295"><ele>205.0</ele><time>2026-05-05T06:30:59.605Z</time></trkpt><trkpt lat="43.6344103" lon="16.2169846"><ele>205.0</ele><time>2026-05-05T06:31:00.605Z</time></trkpt><trkpt lat="43.6345537" lon="16.2166437"><ele>205.0</ele><time>2026-05-05T06:31:01.606Z</time></trkpt><trkpt lat="43.6347048" lon="16.2163081"><ele>205.0</ele><time>2026-05-05T06:31:02.606Z</time></trkpt><trkpt lat="43.6348591" lon="16.2159788"><ele>205.0</ele><time>2026-05-05T06:31:03.605Z</time></trkpt><trkpt lat="43.6350129" lon="16.2156521"><ele>206.5</ele><time>2026-05-05T06:31:04.605Z</time></trkpt><trkpt lat="43.6351696" lon="16.2153302"><ele>208.0</ele><time>2026-05-05T06:31:05.605Z</time></trkpt><trkpt lat="43.6353335" lon="16.2150151"><ele>209.0</ele><time>2026-05-05T06:31:06.605Z</time></trkpt><trkpt lat="43.6354954" lon="16.2147007"><ele>210.0</ele><time>2026-05-05T06:31:07.605Z</time></trkpt><trkpt lat="43.6356612" lon="16.2143944"><ele>210.0</ele><time>2026-05-05T06:31:08.606Z</time></trkpt><trkpt lat="43.6358329" lon="16.2140894"><ele>210.0</ele><time>2026-05-05T06:31:09.606Z</time></trkpt><trkpt lat="43.6360057" lon="16.2137856"><ele>213.5</ele><time>2026-05-05T06:31:10.605Z</time></trkpt><trkpt lat="43.6361837" lon="16.2134888"><ele>217.0</ele><time>2026-05-05T06:31:11.606Z</time></trkpt><trkpt lat="43.6363577" lon="16.2131933"><ele>216.0</ele><time>2026-05-05T06:31:12.606Z</time></trkpt><trkpt lat="43.6365361" lon="16.2129005"><ele>215.0</ele><time>2026-05-05T06:31:13.606Z</time></trkpt><trkpt lat="43.6367187" lon="16.2126184"><ele>215.0</ele><time>2026-05-05T06:31:14.606Z</time></trkpt><trkpt lat="43.6369019" lon="16.2123489"><ele>215.0</ele><time>2026-05-05T06:31:15.606Z</time></trkpt><trkpt lat="43.6370851" lon="16.2120784"><ele>219.0</ele><time>2026-05-05T06:31:16.606Z</time></trkpt><trkpt lat="43.6372727" lon="16.2118077"><ele>223.0</ele><time>2026-05-05T06:31:17.605Z</time></trkpt><trkpt lat="43.6374514" lon="16.2115551"><ele>222.5</ele><time>2026-05-05T06:31:18.605Z</time></trkpt><trkpt lat="43.637647" lon="16.2112939"><ele>222.0</ele><time>2026-05-05T06:31:19.606Z</time></trkpt><trkpt lat="43.6378483" lon="16.2110388"><ele>222.5</ele><time>2026-05-05T06:31:20.605Z</time></trkpt><trkpt lat="43.6380538" lon="16.210789"><ele>223.0</ele><time>2026-05-05T06:31:21.605Z</time></trkpt><trkpt lat="43.6382618" lon="16.2105381"><ele>223.0</ele><time>2026-05-05T06:31:22.605Z</time></trkpt><trkpt lat="43.6384617" lon="16.2102917"><ele>223.0</ele><time>2026-05-05T06:31:23.605Z</time></trkpt><trkpt lat="43.6386722" lon="16.2100443"><ele>226.0</ele><time>2026-05-05T06:31:24.605Z</time></trkpt><trkpt lat="43.63888" lon="16.2098059"><ele>229.0</ele><time>2026-05-05T06:31:25.606Z</time></trkpt><trkpt lat="43.6390969" lon="16.2095618"><ele>229.0</ele><time>2026-05-05T06:31:26.606Z</time></trkpt><trkpt lat="43.6393112" lon="16.2093232"><ele>229.0</ele><time>2026-05-05T06:31:27.606Z</time></trkpt><trkpt lat="43.6395316" lon="16.2090863"><ele>232.0</ele><time>2026-05-05T06:31:28.605Z</time></trkpt><trkpt lat="43.6397473" lon="16.2088465"><ele>235.0</ele><time>2026-05-05T06:31:29.605Z</time></trkpt><trkpt lat="43.6399633" lon="16.2085998"><ele>235.0</ele><time>2026-05-05T06:31:30.606Z</time></trkpt><trkpt lat="43.6401806" lon="16.2083497"><ele>235.0</ele><time>2026-05-05T06:31:31.606Z</time></trkpt><trkpt lat="43.6403973" lon="16.2080978"><ele>237.0</ele><time>2026-05-05T06:31:32.606Z</time></trkpt><trkpt lat="43.6406105" lon="16.207861"><ele>239.0</ele><time>2026-05-05T06:31:33.606Z</time></trkpt><trkpt lat="43.6408199" lon="16.2076105"><ele>239.0</ele><time>2026-05-05T06:31:34.605Z</time></trkpt><trkpt lat="43.6410292" lon="16.2073611"><ele>239.0</ele><time>2026-05-05T06:31:35.605Z</time></trkpt><trkpt lat="43.6412491" lon="16.2070999"><ele>241.0</ele><time>2026-05-05T06:31:36.606Z</time></trkpt><trkpt lat="43.6414577" lon="16.2068482"><ele>243.0</ele><time>2026-05-05T06:31:37.605Z</time></trkpt><trkpt lat="43.6416635" lon="16.2065836"><ele>244.0</ele><time>2026-05-05T06:31:38.605Z</time></trkpt><trkpt lat="43.6418698" lon="16.2063311"><ele>245.0</ele><time>2026-05-05T06:31:39.606Z</time></trkpt><trkpt lat="43.6420734" lon="16.206062"><ele>241.5</ele><time>2026-05-05T06:31:40.606Z</time></trkpt><trkpt lat="43.6422746" lon="16.2057897"><ele>238.0</ele><time>2026-05-05T06:31:41.605Z</time></trkpt><trkpt lat="43.642462" lon="16.2055207"><ele>237.5</ele><time>2026-05-05T06:31:42.606Z</time></trkpt><trkpt lat="43.642643" lon="16.2052421"><ele>237.0</ele><time>2026-05-05T06:31:43.605Z</time></trkpt><trkpt lat="43.6428317" lon="16.2049662"><ele>234.0</ele><time>2026-05-05T06:31:44.606Z</time></trkpt><trkpt lat="43.643019" lon="16.2046906"><ele>231.0</ele><time>2026-05-05T06:31:45.606Z</time></trkpt><trkpt lat="43.6432123" lon="16.2044112"><ele>231.0</ele><time>2026-05-05T06:31:46.606Z</time></trkpt><trkpt lat="43.643404" lon="16.2041359"><ele>231.0</ele><time>2026-05-05T06:31:47.606Z</time></trkpt><trkpt lat="43.6435966" lon="16.2038589"><ele>229.0</ele><time>2026-05-05T06:31:48.606Z</time></trkpt><trkpt lat="43.6437827" lon="16.2035858"><ele>227.0</ele><time>2026-05-05T06:31:49.605Z</time></trkpt><trkpt lat="43.6439659" lon="16.203323"><ele>229.5</ele><time>2026-05-05T06:31:50.605Z</time></trkpt><trkpt lat="43.6441507" lon="16.203059"><ele>232.0</ele><time>2026-05-05T06:31:51.605Z</time></trkpt><trkpt lat="43.6443393" lon="16.2027993"><ele>231.0</ele><time>2026-05-05T06:31:52.605Z</time></trkpt><trkpt lat="43.6445328" lon="16.2025444"><ele>230.0</ele><time>2026-05-05T06:31:53.606Z</time></trkpt><trkpt lat="43.6447283" lon="16.2022988"><ele>230.0</ele><time>2026-05-05T06:31:54.606Z</time></trkpt><trkpt lat="43.644931" lon="16.2020599"><ele>230.0</ele><time>2026-05-05T06:31:55.606Z</time></trkpt><trkpt lat="43.6451376" lon="16.2018348"><ele>230.5</ele><time>2026-05-05T06:31:56.605Z</time></trkpt><trkpt lat="43.6453502" lon="16.201611"><ele>231.0</ele><time>2026-05-05T06:31:57.606Z</time></trkpt><trkpt lat="43.6455674" lon="16.2013936"><ele>236.0</ele><time>2026-05-05T06:31:58.605Z</time></trkpt><trkpt lat="43.6457872" lon="16.2011934"><ele>241.0</ele><time>2026-05-05T06:31:59.605Z</time></trkpt><trkpt lat="43.6460139" lon="16.2010007"><ele>243.5</ele><time>2026-05-05T06:32:00.605Z</time></trkpt><trkpt lat="43.6462435" lon="16.2008247"><ele>246.0</ele><time>2026-05-05T06:32:01.606Z</time></trkpt><trkpt lat="43.6464757" lon="16.2006516"><ele>251.5</ele><time>2026-05-05T06:32:02.606Z</time></trkpt><trkpt lat="43.6467119" lon="16.2004874"><ele>257.0</ele><time>2026-05-05T06:32:03.605Z</time></trkpt><trkpt lat="43.6469501" lon="16.2003293"><ele>255.5</ele><time>2026-05-05T06:32:04.605Z</time></trkpt><trkpt lat="43.6471923" lon="16.2001887"><ele>254.0</ele><time>2026-05-05T06:32:05.605Z</time></trkpt><trkpt lat="43.647438" lon="16.2000551"><ele>254.0</ele><time>2026-05-05T06:32:06.605Z</time></trkpt><trkpt lat="43.6476859" lon="16.1999325"><ele>254.0</ele><time>2026-05-05T06:32:07.606Z</time></trkpt><trkpt lat="43.6479359" lon="16.1998207"><ele>258.5</ele><time>2026-05-05T06:32:08.605Z</time></trkpt><trkpt lat="43.6481848" lon="16.1997159"><ele>263.0</ele><time>2026-05-05T06:32:09.606Z</time></trkpt><trkpt lat="43.6484313" lon="16.1996204"><ele>264.0</ele><time>2026-05-05T06:32:10.605Z</time></trkpt><trkpt lat="43.6486802" lon="16.1995318"><ele>265.0</ele><time>2026-05-05T06:32:11.606Z</time></trkpt><trkpt lat="43.6489285" lon="16.1994417"><ele>265.0</ele><time>2026-05-05T06:32:12.606Z</time></trkpt><trkpt lat="43.6491744" lon="16.1993576"><ele>265.0</ele><time>2026-05-05T06:32:13.605Z</time></trkpt><trkpt lat="43.6494231" lon="16.1992763"><ele>266.0</ele><time>2026-05-05T06:32:14.605Z</time></trkpt><trkpt lat="43.6496708" lon="16.1991966"><ele>267.0</ele><time>2026-05-05T06:32:15.605Z</time></trkpt><trkpt lat="43.6499187" lon="16.1991155"><ele>267.0</ele><time>2026-05-05T06:32:16.605Z</time></trkpt><trkpt lat="43.6501662" lon="16.1990299"><ele>267.0</ele><time>2026-05-05T06:32:17.606Z</time></trkpt><trkpt lat="43.6504109" lon="16.1989446"><ele>272.5</ele><time>2026-05-05T06:32:18.605Z</time></trkpt><trkpt lat="43.6506465" lon="16.1988606"><ele>278.0</ele><time>2026-05-05T06:32:19.606Z</time></trkpt><trkpt lat="43.6508907" lon="16.198778"><ele>275.5</ele><time>2026-05-05T06:32:20.605Z</time></trkpt><trkpt lat="43.6511566" lon="16.1986649"><ele>273.0</ele><time>2026-05-05T06:32:21.606Z</time></trkpt><trkpt lat="43.6513922" lon="16.1985559"><ele>273.0</ele><time>2026-05-05T06:32:22.606Z</time></trkpt><trkpt lat="43.6516353" lon="16.1984385"><ele>273.0</ele><time>2026-05-05T06:32:23.605Z</time></trkpt><trkpt lat="43.6518678" lon="16.1983186"><ele>274.5</ele><time>2026-05-05T06:32:24.606Z</time></trkpt><trkpt lat="43.6520933" lon="16.1981986"><ele>276.0</ele><time>2026-05-05T06:32:25.605Z</time></trkpt><trkpt lat="43.6523281" lon="16.1980691"><ele>276.0</ele><time>2026-05-05T06:32:26.605Z</time></trkpt><trkpt lat="43.6525588" lon="16.1979363"><ele>276.0</ele><time>2026-05-05T06:32:27.606Z</time></trkpt><trkpt lat="43.652787" lon="16.1977976"><ele>270.0</ele><time>2026-05-05T06:32:28.605Z</time></trkpt><trkpt lat="43.6530166" lon="16.1976527"><ele>264.0</ele><time>2026-05-05T06:32:29.606Z</time></trkpt><trkpt lat="43.6532477" lon="16.1974986"><ele>264.0</ele><time>2026-05-05T06:32:30.606Z</time></trkpt><trkpt lat="43.6534755" lon="16.197341"><ele>264.0</ele><time>2026-05-05T06:32:31.605Z</time></trkpt><trkpt lat="43.6537041" lon="16.1971777"><ele>265.5</ele><time>2026-05-05T06:32:32.605Z</time></trkpt><trkpt lat="43.6539331" lon="16.1970077"><ele>267.0</ele><time>2026-05-05T06:32:33.605Z</time></trkpt><trkpt lat="43.6541611" lon="16.1968337"><ele>267.0</ele><time>2026-05-05T06:32:34.605Z</time></trkpt><trkpt lat="43.6543893" lon="16.1966544"><ele>267.0</ele><time>2026-05-05T06:32:35.605Z</time></trkpt><trkpt lat="43.654613" lon="16.1964703"><ele>269.0</ele><time>2026-05-05T06:32:36.606Z</time></trkpt><trkpt lat="43.6548351" lon="16.1962813"><ele>271.0</ele><time>2026-05-05T06:32:37.605Z</time></trkpt><trkpt lat="43.6550561" lon="16.1960852"><ele>271.0</ele><time>2026-05-05T06:32:38.605Z</time></trkpt><trkpt lat="43.6552761" lon="16.1958844"><ele>271.0</ele><time>2026-05-05T06:32:39.606Z</time></trkpt><trkpt lat="43.65549" lon="16.1956811"><ele>275.5</ele><time>2026-05-05T06:32:40.606Z</time></trkpt><trkpt lat="43.6557056" lon="16.1954714"><ele>280.0</ele><time>2026-05-05T06:32:41.606Z</time></trkpt><trkpt lat="43.6559214" lon="16.195255"><ele>283.0</ele><time>2026-05-05T06:32:42.606Z</time></trkpt><trkpt lat="43.6561348" lon="16.1950331"><ele>286.0</ele><time>2026-05-05T06:32:43.605Z</time></trkpt><trkpt lat="43.656345" lon="16.1948002"><ele>287.5</ele><time>2026-05-05T06:32:44.606Z</time></trkpt><trkpt lat="43.6565586" lon="16.1945556"><ele>289.0</ele><time>2026-05-05T06:32:45.606Z</time></trkpt><trkpt lat="43.6567623" lon="16.1943307"><ele>292.0</ele><time>2026-05-05T06:32:46.605Z</time></trkpt><trkpt lat="43.6569548" lon="16.1940902"><ele>295.0</ele><time>2026-05-05T06:32:47.605Z</time></trkpt><trkpt lat="43.657151" lon="16.1938461"><ele>299.5</ele><time>2026-05-05T06:32:48.604Z</time></trkpt><trkpt lat="43.6573435" lon="16.1935972"><ele>304.0</ele><time>2026-05-05T06:32:49.606Z</time></trkpt><trkpt lat="43.6614905" lon="16.1848263"><ele>283.5</ele><time>2026-05-05T06:33:16.606Z</time></trkpt><trkpt lat="43.6616017" lon="16.1844098"><ele>263.0</ele><time>2026-05-05T06:33:17.606Z</time></trkpt><trkpt lat="43.6616978" lon="16.1840341"><ele>261.5</ele><time>2026-05-05T06:33:18.606Z</time></trkpt><trkpt lat="43.6617991" lon="16.1836499"><ele>260.0</ele><time>2026-05-05T06:33:19.606Z</time></trkpt><trkpt lat="43.6618698" lon="16.1832752"><ele>259.0</ele><time>2026-05-05T06:33:20.605Z</time></trkpt><trkpt lat="43.6619452" lon="16.1829019"><ele>258.0</ele><time>2026-05-05T06:33:21.605Z</time></trkpt><trkpt lat="43.6620119" lon="16.1825148"><ele>260.5</ele><time>2026-05-05T06:33:22.606Z</time></trkpt><trkpt lat="43.6620845" lon="16.1820638"><ele>263.0</ele><time>2026-05-05T06:33:23.606Z</time></trkpt><trkpt lat="43.6621481" lon="16.181677"><ele>262.0</ele><time>2026-05-05T06:33:24.605Z</time></trkpt><trkpt lat="43.662206" lon="16.1812852"><ele>261.0</ele><time>2026-05-05T06:33:25.606Z</time></trkpt><trkpt lat="43.6622615" lon="16.1808911"><ele>259.0</ele><time>2026-05-05T06:33:26.606Z</time></trkpt><trkpt lat="43.6623128" lon="16.1804979"><ele>257.0</ele><time>2026-05-05T06:33:27.606Z</time></trkpt><trkpt lat="43.662365" lon="16.1801027"><ele>254.5</ele><time>2026-05-05T06:33:28.606Z</time></trkpt><trkpt lat="43.6624139" lon="16.1797032"><ele>252.0</ele><time>2026-05-05T06:33:29.606Z</time></trkpt><trkpt lat="43.6624662" lon="16.1793068"><ele>250.5</ele><time>2026-05-05T06:33:30.606Z</time></trkpt><trkpt lat="43.6625209" lon="16.1789042"><ele>249.0</ele><time>2026-05-05T06:33:31.606Z</time></trkpt><trkpt lat="43.6625771" lon="16.1785038"><ele>245.0</ele><time>2026-05-05T06:33:32.605Z</time></trkpt><trkpt lat="43.6626407" lon="16.1781011"><ele>241.0</ele><time>2026-05-05T06:33:33.606Z</time></trkpt><trkpt lat="43.6627069" lon="16.1777004"><ele>240.5</ele><time>2026-05-05T06:33:34.605Z</time></trkpt><trkpt lat="43.6627773" lon="16.1772937"><ele>240.0</ele><time>2026-05-05T06:33:35.605Z</time></trkpt><trkpt lat="43.6628528" lon="16.1768949"><ele>236.5</ele><time>2026-05-05T06:33:36.606Z</time></trkpt><trkpt lat="43.6629351" lon="16.1765024"><ele>233.0</ele><time>2026-05-05T06:33:37.606Z</time></trkpt><trkpt lat="43.6630243" lon="16.1761094"><ele>233.0</ele><time>2026-05-05T06:33:38.606Z</time></trkpt><trkpt lat="43.663116" lon="16.1757207"><ele>233.0</ele><time>2026-05-05T06:33:39.605Z</time></trkpt><trkpt lat="43.6632179" lon="16.1753312"><ele>231.5</ele><time>2026-05-05T06:33:40.605Z</time></trkpt><trkpt lat="43.6633212" lon="16.1749478"><ele>230.0</ele><time>2026-05-05T06:33:41.605Z</time></trkpt><trkpt lat="43.6634287" lon="16.1745646"><ele>226.0</ele><time>2026-05-05T06:33:42.605Z</time></trkpt><trkpt lat="43.6635432" lon="16.1741848"><ele>222.0</ele><time>2026-05-05T06:33:43.606Z</time></trkpt><trkpt lat="43.6636632" lon="16.173808"><ele>218.5</ele><time>2026-05-05T06:33:44.606Z</time></trkpt><trkpt lat="43.6637892" lon="16.1734337"><ele>215.0</ele><time>2026-05-05T06:33:45.606Z</time></trkpt><trkpt lat="43.6639207" lon="16.1730615"><ele>211.5</ele><time>2026-05-05T06:33:46.605Z</time></trkpt><trkpt lat="43.6640542" lon="16.1726937"><ele>208.0</ele><time>2026-05-05T06:33:47.606Z</time></trkpt><trkpt lat="43.6641916" lon="16.1723308"><ele>208.0</ele><time>2026-05-05T06:33:48.605Z</time></trkpt><trkpt lat="43.6643353" lon="16.1719748"><ele>208.0</ele><time>2026-05-05T06:33:49.605Z</time></trkpt><trkpt lat="43.6644834" lon="16.1716152"><ele>208.0</ele><time>2026-05-05T06:33:50.605Z</time></trkpt><trkpt lat="43.6646354" lon="16.1712651"><ele>208.0</ele><time>2026-05-05T06:33:51.605Z</time></trkpt><trkpt lat="43.6647942" lon="16.1709193"><ele>209.0</ele><time>2026-05-05T06:33:52.605Z</time></trkpt><trkpt lat="43.6649596" lon="16.1705739"><ele>210.0</ele><time>2026-05-05T06:33:53.606Z</time></trkpt><trkpt lat="43.6651308" lon="16.1702369"><ele>207.5</ele><time>2026-05-05T06:33:54.606Z</time></trkpt><trkpt lat="43.6653036" lon="16.1699058"><ele>205.0</ele><time>2026-05-05T06:33:55.605Z</time></trkpt><trkpt lat="43.6654854" lon="16.1695828"><ele>205.0</ele><time>2026-05-05T06:33:56.606Z</time></trkpt><trkpt lat="43.6656691" lon="16.1692619"><ele>205.0</ele><time>2026-05-05T06:33:57.605Z</time></trkpt><trkpt lat="43.6658591" lon="16.168944"><ele>205.0</ele><time>2026-05-05T06:33:58.606Z</time></trkpt><trkpt lat="43.6660522" lon="16.1686283"><ele>205.0</ele><time>2026-05-05T06:33:59.606Z</time></trkpt><trkpt lat="43.6662486" lon="16.1683205"><ele>202.0</ele><time>2026-05-05T06:34:00.606Z</time></trkpt><trkpt lat="43.6664501" lon="16.1680187"><ele>199.0</ele><time>2026-05-05T06:34:01.605Z</time></trkpt><trkpt lat="43.6666543" lon="16.1677248"><ele>199.0</ele><time>2026-05-05T06:34:02.606Z</time></trkpt><trkpt lat="43.6668639" lon="16.167434"><ele>199.0</ele><time>2026-05-05T06:34:03.606Z</time></trkpt><trkpt lat="43.6670789" lon="16.167154"><ele>195.0</ele><time>2026-05-05T06:34:04.606Z</time></trkpt><trkpt lat="43.667295" lon="16.1668773"><ele>191.0</ele><time>2026-05-05T06:34:05.605Z</time></trkpt><trkpt lat="43.6675138" lon="16.1666008"><ele>190.0</ele><time>2026-05-05T06:34:06.605Z</time></trkpt><trkpt lat="43.6677376" lon="16.1663312"><ele>189.0</ele><time>2026-05-05T06:34:07.605Z</time></trkpt><trkpt lat="43.6679631" lon="16.1660632"><ele>187.5</ele><time>2026-05-05T06:34:08.606Z</time></trkpt><trkpt lat="43.6681903" lon="16.165798"><ele>186.0</ele><time>2026-05-05T06:34:09.606Z</time></trkpt><trkpt lat="43.6684171" lon="16.1655329"><ele>184.5</ele><time>2026-05-05T06:34:10.606Z</time></trkpt><trkpt lat="43.6686431" lon="16.1652704"><ele>183.0</ele><time>2026-05-05T06:34:11.606Z</time></trkpt><trkpt lat="43.6688688" lon="16.1650082"><ele>183.0</ele><time>2026-05-05T06:34:12.606Z</time></trkpt><trkpt lat="43.669101" lon="16.1647485"><ele>183.0</ele><time>2026-05-05T06:34:13.605Z</time></trkpt><trkpt lat="43.6693231" lon="16.1644985"><ele>181.5</ele><time>2026-05-05T06:34:14.606Z</time></trkpt><trkpt lat="43.6695447" lon="16.1642362"><ele>180.0</ele><time>2026-05-05T06:34:15.605Z</time></trkpt><trkpt lat="43.6697621" lon="16.1639753"><ele>179.0</ele><time>2026-05-05T06:34:16.605Z</time></trkpt><trkpt lat="43.6699782" lon="16.1637064"><ele>178.0</ele><time>2026-05-05T06:34:17.605Z</time></trkpt><trkpt lat="43.6701932" lon="16.1634332"><ele>178.5</ele><time>2026-05-05T06:34:18.605Z</time></trkpt><trkpt lat="43.6704058" lon="16.1631649"><ele>179.0</ele><time>2026-05-05T06:34:19.605Z</time></trkpt><trkpt lat="43.6706166" lon="16.1628921"><ele>179.0</ele><time>2026-05-05T06:34:20.605Z</time></trkpt><trkpt lat="43.6708267" lon="16.1626142"><ele>179.0</ele><time>2026-05-05T06:34:21.606Z</time></trkpt><trkpt lat="43.6710374" lon="16.1623341"><ele>178.5</ele><time>2026-05-05T06:34:22.605Z</time></trkpt><trkpt lat="43.6712455" lon="16.1620482"><ele>178.0</ele><time>2026-05-05T06:34:23.606Z</time></trkpt><trkpt lat="43.6714547" lon="16.1617501"><ele>177.0</ele><time>2026-05-05T06:34:24.606Z</time></trkpt><trkpt lat="43.6716641" lon="16.1614487"><ele>176.0</ele><time>2026-05-05T06:34:25.605Z</time></trkpt><trkpt lat="43.671869" lon="16.1611546"><ele>176.5</ele><time>2026-05-05T06:34:26.606Z</time></trkpt><trkpt lat="43.6720722" lon="16.1608516"><ele>177.0</ele><time>2026-05-05T06:34:27.605Z</time></trkpt><trkpt lat="43.6722723" lon="16.1605463"><ele>177.0</ele><time>2026-05-05T06:34:28.605Z</time></trkpt><trkpt lat="43.6724735" lon="16.1602336"><ele>177.0</ele><time>2026-05-05T06:34:29.605Z</time></trkpt><trkpt lat="43.6726716" lon="16.1599235"><ele>177.0</ele><time>2026-05-05T06:34:30.606Z</time></trkpt><trkpt lat="43.6728653" lon="16.1596141"><ele>177.0</ele><time>2026-05-05T06:34:31.606Z</time></trkpt><trkpt lat="43.6730519" lon="16.1593037"><ele>175.5</ele><time>2026-05-05T06:34:32.606Z</time></trkpt><trkpt lat="43.673236" lon="16.1589929"><ele>174.0</ele><time>2026-05-05T06:34:33.605Z</time></trkpt><trkpt lat="43.6734221" lon="16.1586761"><ele>174.0</ele><time>2026-05-05T06:34:34.605Z</time></trkpt><trkpt lat="43.6736043" lon="16.1583707"><ele>174.0</ele><time>2026-05-05T06:34:35.606Z</time></trkpt><trkpt lat="43.6737866" lon="16.1580591"><ele>175.0</ele><time>2026-05-05T06:34:36.606Z</time></trkpt><trkpt lat="43.6739628" lon="16.1577477"><ele>176.0</ele><time>2026-05-05T06:34:37.606Z</time></trkpt><trkpt lat="43.674136" lon="16.1574339"><ele>175.5</ele><time>2026-05-05T06:34:38.606Z</time></trkpt><trkpt lat="43.674304" lon="16.1571224"><ele>175.0</ele><time>2026-05-05T06:34:39.606Z</time></trkpt><trkpt lat="43.6744677" lon="16.1568062"><ele>173.5</ele><time>2026-05-05T06:34:40.606Z</time></trkpt><trkpt lat="43.6746325" lon="16.1564918"><ele>172.0</ele><time>2026-05-05T06:34:41.605Z</time></trkpt><trkpt lat="43.6747942" lon="16.156173"><ele>172.0</ele><time>2026-05-05T06:34:42.606Z</time></trkpt><trkpt lat="43.6749545" lon="16.1558561"><ele>172.0</ele><time>2026-05-05T06:34:43.605Z</time></trkpt><trkpt lat="43.6751144" lon="16.155536"><ele>172.0</ele><time>2026-05-05T06:34:44.605Z</time></trkpt><trkpt lat="43.675267" lon="16.1552128"><ele>172.0</ele><time>2026-05-05T06:34:45.606Z</time></trkpt><trkpt lat="43.6754159" lon="16.1548857"><ele>172.5</ele><time>2026-05-05T06:34:46.605Z</time></trkpt><trkpt lat="43.6755685" lon="16.1545548"><ele>173.0</ele><time>2026-05-05T06:34:47.606Z</time></trkpt><trkpt lat="43.6757151" lon="16.1542278"><ele>172.5</ele><time>2026-05-05T06:34:48.606Z</time></trkpt><trkpt lat="43.6758611" lon="16.1538986"><ele>172.0</ele><time>2026-05-05T06:34:49.606Z</time></trkpt><trkpt lat="43.6760044" lon="16.1535656"><ele>173.5</ele><time>2026-05-05T06:34:50.606Z</time></trkpt><trkpt lat="43.6761457" lon="16.1532309"><ele>175.0</ele><time>2026-05-05T06:34:51.606Z</time></trkpt><trkpt lat="43.6762827" lon="16.1528942"><ele>175.5</ele><time>2026-05-05T06:34:52.606Z</time></trkpt><trkpt lat="43.6764194" lon="16.1525532"><ele>176.0</ele><time>2026-05-05T06:34:53.605Z</time></trkpt><trkpt lat="43.676553" lon="16.1522099"><ele>176.0</ele><time>2026-05-05T06:34:54.606Z</time></trkpt><trkpt lat="43.6766837" lon="16.1518719"><ele>176.0</ele><time>2026-05-05T06:34:55.606Z</time></trkpt><trkpt lat="43.6768121" lon="16.151528"><ele>177.0</ele><time>2026-05-05T06:34:56.606Z</time></trkpt><trkpt lat="43.6769396" lon="16.1511853"><ele>178.0</ele><time>2026-05-05T06:34:57.605Z</time></trkpt><trkpt lat="43.677068" lon="16.1508466"><ele>178.5</ele><time>2026-05-05T06:34:58.606Z</time></trkpt><trkpt lat="43.6771915" lon="16.1505044"><ele>179.0</ele><time>2026-05-05T06:34:59.606Z</time></trkpt><trkpt lat="43.677311" lon="16.1501613"><ele>179.0</ele><time>2026-05-05T06:35:00.605Z</time></trkpt><trkpt lat="43.6774309" lon="16.1498154"><ele>179.0</ele><time>2026-05-05T06:35:01.606Z</time></trkpt><trkpt lat="43.6775497" lon="16.1494627"><ele>179.0</ele><time>2026-05-05T06:35:02.606Z</time></trkpt><trkpt lat="43.677666" lon="16.1491066"><ele>179.0</ele><time>2026-05-05T06:35:03.605Z</time></trkpt><trkpt lat="43.6777763" lon="16.1487555"><ele>179.0</ele><time>2026-05-05T06:35:04.606Z</time></trkpt><trkpt lat="43.6778853" lon="16.1483976"><ele>179.0</ele><time>2026-05-05T06:35:05.605Z</time></trkpt><trkpt lat="43.6779939" lon="16.1480413"><ele>179.0</ele><time>2026-05-05T06:35:06.605Z</time></trkpt><trkpt lat="43.6780984" lon="16.1476839"><ele>179.0</ele><time>2026-05-05T06:35:07.606Z</time></trkpt><trkpt lat="43.6782069" lon="16.1473227"><ele>178.5</ele><time>2026-05-05T06:35:08.605Z</time></trkpt><trkpt lat="43.6783048" lon="16.1469623"><ele>178.0</ele><time>2026-05-05T06:35:09.605Z</time></trkpt><trkpt lat="43.6784043" lon="16.1466077"><ele>178.0</ele><time>2026-05-05T06:35:10.606Z</time></trkpt><trkpt lat="43.6785001" lon="16.1462444"><ele>178.0</ele><time>2026-05-05T06:35:11.606Z</time></trkpt><trkpt lat="43.6785908" lon="16.1458693"><ele>179.0</ele><time>2026-05-05T06:35:12.606Z</time></trkpt><trkpt lat="43.6786849" lon="16.1454962"><ele>180.0</ele><time>2026-05-05T06:35:13.605Z</time></trkpt><trkpt lat="43.6787737" lon="16.1451295"><ele>180.0</ele><time>2026-05-05T06:35:14.605Z</time></trkpt><trkpt lat="43.6788624" lon="16.1447542"><ele>180.0</ele><time>2026-05-05T06:35:15.606Z</time></trkpt><trkpt lat="43.678949" lon="16.1443798"><ele>179.5</ele><time>2026-05-05T06:35:16.606Z</time></trkpt><trkpt lat="43.6790333" lon="16.1440001"><ele>179.0</ele><time>2026-05-05T06:35:17.605Z</time></trkpt><trkpt lat="43.6791106" lon="16.1436274"><ele>179.0</ele><time>2026-05-05T06:35:18.605Z</time></trkpt><trkpt lat="43.6791943" lon="16.1432499"><ele>179.0</ele><time>2026-05-05T06:35:19.606Z</time></trkpt><trkpt lat="43.6792694" lon="16.1428769"><ele>179.0</ele><time>2026-05-05T06:35:20.606Z</time></trkpt><trkpt lat="43.6793432" lon="16.1425029"><ele>179.0</ele><time>2026-05-05T06:35:21.606Z</time></trkpt><trkpt lat="43.6794129" lon="16.1421281"><ele>179.5</ele><time>2026-05-05T06:35:22.606Z</time></trkpt><trkpt lat="43.6794781" lon="16.1417508"><ele>180.0</ele><time>2026-05-05T06:35:23.606Z</time></trkpt><trkpt lat="43.6795463" lon="16.1413751"><ele>181.0</ele><time>2026-05-05T06:35:24.605Z</time></trkpt><trkpt lat="43.679608" lon="16.1409974"><ele>182.0</ele><time>2026-05-05T06:35:25.606Z</time></trkpt><trkpt lat="43.6796677" lon="16.1406176"><ele>182.5</ele><time>2026-05-05T06:35:26.605Z</time></trkpt><trkpt lat="43.6797244" lon="16.1402371"><ele>183.0</ele><time>2026-05-05T06:35:27.605Z</time></trkpt><trkpt lat="43.679785" lon="16.1398597"><ele>183.0</ele><time>2026-05-05T06:35:28.605Z</time></trkpt><trkpt lat="43.6798433" lon="16.1394762"><ele>183.0</ele><time>2026-05-05T06:35:29.606Z</time></trkpt><trkpt lat="43.6798993" lon="16.1390922"><ele>183.5</ele><time>2026-05-05T06:35:30.605Z</time></trkpt><trkpt lat="43.6799592" lon="16.1387085"><ele>184.0</ele><time>2026-05-05T06:35:31.605Z</time></trkpt><trkpt lat="43.6800182" lon="16.1383257"><ele>184.0</ele><time>2026-05-05T06:35:32.606Z</time></trkpt><trkpt lat="43.6800807" lon="16.1379441"><ele>184.0</ele><time>2026-05-05T06:35:33.606Z</time></trkpt><trkpt lat="43.6801415" lon="16.1375653"><ele>184.5</ele><time>2026-05-05T06:35:34.606Z</time></trkpt><trkpt lat="43.6802072" lon="16.1371883"><ele>185.0</ele><time>2026-05-05T06:35:35.605Z</time></trkpt><trkpt lat="43.6802774" lon="16.1368065"><ele>186.0</ele><time>2026-05-05T06:35:36.605Z</time></trkpt><trkpt lat="43.6803471" lon="16.136429"><ele>187.0</ele><time>2026-05-05T06:35:37.605Z</time></trkpt><trkpt lat="43.6804206" lon="16.1360463"><ele>187.5</ele><time>2026-05-05T06:35:38.605Z</time></trkpt><trkpt lat="43.6804958" lon="16.1356665"><ele>188.0</ele><time>2026-05-05T06:35:39.606Z</time></trkpt><trkpt lat="43.6805741" lon="16.1352858"><ele>188.0</ele><time>2026-05-05T06:35:40.605Z</time></trkpt><trkpt lat="43.6806526" lon="16.13491"><ele>188.0</ele><time>2026-05-05T06:35:41.605Z</time></trkpt><trkpt lat="43.6807354" lon="16.1345373"><ele>189.0</ele><time>2026-05-05T06:35:42.605Z</time></trkpt><trkpt lat="43.6808256" lon="16.134162"><ele>190.0</ele><time>2026-05-05T06:35:43.606Z</time></trkpt><trkpt lat="43.6809113" lon="16.1337867"><ele>190.0</ele><time>2026-05-05T06:35:44.605Z</time></trkpt><trkpt lat="43.680997" lon="16.1334089"><ele>190.0</ele><time>2026-05-05T06:35:45.606Z</time></trkpt><trkpt lat="43.6810854" lon="16.1330317"><ele>192.0</ele><time>2026-05-05T06:35:46.606Z</time></trkpt><trkpt lat="43.6811787" lon="16.1326563"><ele>194.0</ele><time>2026-05-05T06:35:47.605Z</time></trkpt><trkpt lat="43.6812718" lon="16.1322837"><ele>194.0</ele><time>2026-05-05T06:35:48.606Z</time></trkpt><trkpt lat="43.6813682" lon="16.1319083"><ele>194.0</ele><time>2026-05-05T06:35:49.606Z</time></trkpt><trkpt lat="43.681465" lon="16.1315301"><ele>194.0</ele><time>2026-05-05T06:35:50.606Z</time></trkpt><trkpt lat="43.6815631" lon="16.1311504"><ele>194.0</ele><time>2026-05-05T06:35:51.605Z</time></trkpt><trkpt lat="43.6816592" lon="16.1307804"><ele>193.0</ele><time>2026-05-05T06:35:52.606Z</time></trkpt><trkpt lat="43.6817544" lon="16.130409"><ele>192.0</ele><time>2026-05-05T06:35:53.606Z</time></trkpt><trkpt lat="43.6818455" lon="16.1300345"><ele>194.5</ele><time>2026-05-05T06:35:54.605Z</time></trkpt><trkpt lat="43.6819319" lon="16.1296557"><ele>197.0</ele><time>2026-05-05T06:35:55.606Z</time></trkpt><trkpt lat="43.6820254" lon="16.1292762"><ele>198.0</ele><time>2026-05-05T06:35:56.606Z</time></trkpt><trkpt lat="43.6821117" lon="16.1289027"><ele>199.0</ele><time>2026-05-05T06:35:57.605Z</time></trkpt><trkpt lat="43.6821899" lon="16.1285273"><ele>199.0</ele><time>2026-05-05T06:35:58.605Z</time></trkpt><trkpt lat="43.6822671" lon="16.1281497"><ele>199.0</ele><time>2026-05-05T06:35:59.605Z</time></trkpt><trkpt lat="43.6823354" lon="16.1277832"><ele>199.0</ele><time>2026-05-05T06:36:00.606Z</time></trkpt><trkpt lat="43.6824186" lon="16.1274068"><ele>199.0</ele><time>2026-05-05T06:36:01.606Z</time></trkpt><trkpt lat="43.6824912" lon="16.1270449"><ele>200.0</ele><time>2026-05-05T06:36:02.605Z</time></trkpt><trkpt lat="43.6825503" lon="16.126667"><ele>201.0</ele><time>2026-05-05T06:36:03.605Z</time></trkpt><trkpt lat="43.6826162" lon="16.1262919"><ele>201.5</ele><time>2026-05-05T06:36:04.605Z</time></trkpt><trkpt lat="43.6826794" lon="16.1259207"><ele>202.0</ele><time>2026-05-05T06:36:05.606Z</time></trkpt><trkpt lat="43.6827403" lon="16.1255603"><ele>205.0</ele><time>2026-05-05T06:36:06.606Z</time></trkpt><trkpt lat="43.6827963" lon="16.1251835"><ele>208.0</ele><time>2026-05-05T06:36:07.605Z</time></trkpt><trkpt lat="43.6828524" lon="16.1247992"><ele>208.0</ele><time>2026-05-05T06:36:08.605Z</time></trkpt><trkpt lat="43.6829102" lon="16.1244197"><ele>208.0</ele><time>2026-05-05T06:36:09.606Z</time></trkpt><trkpt lat="43.6829669" lon="16.1240389"><ele>207.5</ele><time>2026-05-05T06:36:10.606Z</time></trkpt><trkpt lat="43.6830216" lon="16.1236571"><ele>207.0</ele><time>2026-05-05T06:36:11.606Z</time></trkpt><trkpt lat="43.683073" lon="16.1232767"><ele>206.5</ele><time>2026-05-05T06:36:12.605Z</time></trkpt><trkpt lat="43.6831225" lon="16.122893"><ele>206.0</ele><time>2026-05-05T06:36:13.605Z</time></trkpt><trkpt lat="43.6831778" lon="16.1225155"><ele>206.0</ele><time>2026-05-05T06:36:14.606Z</time></trkpt><trkpt lat="43.6832259" lon="16.1221254"><ele>206.0</ele><time>2026-05-05T06:36:15.605Z</time></trkpt><trkpt lat="43.6832696" lon="16.1217386"><ele>205.5</ele><time>2026-05-05T06:36:16.606Z</time></trkpt><trkpt lat="43.6833189" lon="16.121351"><ele>205.0</ele><time>2026-05-05T06:36:17.606Z</time></trkpt><trkpt lat="43.6833607" lon="16.1209607"><ele>203.0</ele><time>2026-05-05T06:36:18.605Z</time></trkpt><trkpt lat="43.6833987" lon="16.1205692"><ele>201.0</ele><time>2026-05-05T06:36:19.605Z</time></trkpt><trkpt lat="43.6834345" lon="16.1201828"><ele>200.0</ele><time>2026-05-05T06:36:20.606Z</time></trkpt><trkpt lat="43.6834678" lon="16.1197833"><ele>199.0</ele><time>2026-05-05T06:36:21.605Z</time></trkpt><trkpt lat="43.6834983" lon="16.1193874"><ele>198.0</ele><time>2026-05-05T06:36:22.606Z</time></trkpt><trkpt lat="43.6835198" lon="16.1189877"><ele>197.0</ele><time>2026-05-05T06:36:23.606Z</time></trkpt><trkpt lat="43.6835482" lon="16.1185936"><ele>196.0</ele><time>2026-05-05T06:36:24.605Z</time></trkpt><trkpt lat="43.6835725" lon="16.1181968"><ele>195.0</ele><time>2026-05-05T06:36:25.605Z</time></trkpt><trkpt lat="43.683597" lon="16.1178048"><ele>198.5</ele><time>2026-05-05T06:36:26.606Z</time></trkpt><trkpt lat="43.6836208" lon="16.1174125"><ele>202.0</ele><time>2026-05-05T06:36:27.606Z</time></trkpt><trkpt lat="43.6836403" lon="16.1170208"><ele>202.0</ele><time>2026-05-05T06:36:28.605Z</time></trkpt><trkpt lat="43.6836595" lon="16.1166304"><ele>202.0</ele><time>2026-05-05T06:36:29.606Z</time></trkpt><trkpt lat="43.6836817" lon="16.1162394"><ele>201.5</ele><time>2026-05-05T06:36:30.605Z</time></trkpt><trkpt lat="43.6837011" lon="16.1158488"><ele>201.0</ele><time>2026-05-05T06:36:31.606Z</time></trkpt><trkpt lat="43.6837184" lon="16.1154578"><ele>200.5</ele><time>2026-05-05T06:36:32.606Z</time></trkpt><trkpt lat="43.6837332" lon="16.1150696"><ele>200.0</ele><time>2026-05-05T06:36:33.605Z</time></trkpt><trkpt lat="43.6837466" lon="16.11468"><ele>200.0</ele><time>2026-05-05T06:36:34.606Z</time></trkpt><trkpt lat="43.6837604" lon="16.1142922"><ele>200.0</ele><time>2026-05-05T06:36:35.605Z</time></trkpt><trkpt lat="43.6837719" lon="16.1139046"><ele>200.0</ele><time>2026-05-05T06:36:36.606Z</time></trkpt><trkpt lat="43.6837764" lon="16.1135173"><ele>200.0</ele><time>2026-05-05T06:36:37.605Z</time></trkpt><trkpt lat="43.683779" lon="16.1131237"><ele>200.0</ele><time>2026-05-05T06:36:38.605Z</time></trkpt><trkpt lat="43.6837813" lon="16.1127261"><ele>200.0</ele><time>2026-05-05T06:36:39.605Z</time></trkpt><trkpt lat="43.6837805" lon="16.1123255"><ele>200.0</ele><time>2026-05-05T06:36:40.605Z</time></trkpt><trkpt lat="43.6837794" lon="16.1119204"><ele>200.0</ele><time>2026-05-05T06:36:41.605Z</time></trkpt><trkpt lat="43.6837759" lon="16.1115141"><ele>200.5</ele><time>2026-05-05T06:36:42.606Z</time></trkpt><trkpt lat="43.683769" lon="16.111109"><ele>201.0</ele><time>2026-05-05T06:36:43.606Z</time></trkpt><trkpt lat="43.6837613" lon="16.1107015"><ele>201.0</ele><time>2026-05-05T06:36:44.606Z</time></trkpt><trkpt lat="43.6837563" lon="16.1102947"><ele>201.0</ele><time>2026-05-05T06:36:45.606Z</time></trkpt><trkpt lat="43.6837468" lon="16.1098905"><ele>199.5</ele><time>2026-05-05T06:36:46.606Z</time></trkpt><trkpt lat="43.683735" lon="16.1094868"><ele>198.0</ele><time>2026-05-05T06:36:47.606Z</time></trkpt><trkpt lat="43.6837178" lon="16.1090803"><ele>197.0</ele><time>2026-05-05T06:36:48.605Z</time></trkpt><trkpt lat="43.6836994" lon="16.1086789"><ele>196.0</ele><time>2026-05-05T06:36:49.606Z</time></trkpt><trkpt lat="43.6836792" lon="16.1082772"><ele>195.0</ele><time>2026-05-05T06:36:50.606Z</time></trkpt><trkpt lat="43.683657" lon="16.1078769"><ele>194.0</ele><time>2026-05-05T06:36:51.606Z</time></trkpt><trkpt lat="43.6836304" lon="16.1074753"><ele>193.0</ele><time>2026-05-05T06:36:52.606Z</time></trkpt><trkpt lat="43.6836068" lon="16.1070764"><ele>192.0</ele><time>2026-05-05T06:36:53.606Z</time></trkpt><trkpt lat="43.6835772" lon="16.1066819"><ele>189.0</ele><time>2026-05-05T06:36:54.605Z</time></trkpt><trkpt lat="43.6835465" lon="16.1062848"><ele>186.0</ele><time>2026-05-05T06:36:55.605Z</time></trkpt><trkpt lat="43.6835214" lon="16.1058898"><ele>185.5</ele><time>2026-05-05T06:36:56.606Z</time></trkpt><trkpt lat="43.6834898" lon="16.1054972"><ele>185.0</ele><time>2026-05-05T06:36:57.606Z</time></trkpt><trkpt lat="43.6834556" lon="16.1051083"><ele>185.0</ele><time>2026-05-05T06:36:58.605Z</time></trkpt><trkpt lat="43.6834187" lon="16.1047218"><ele>185.0</ele><time>2026-05-05T06:36:59.605Z</time></trkpt><trkpt lat="43.6833804" lon="16.1043334"><ele>185.0</ele><time>2026-05-05T06:37:00.605Z</time></trkpt><trkpt lat="43.6833377" lon="16.1039414"><ele>185.0</ele><time>2026-05-05T06:37:01.606Z</time></trkpt><trkpt lat="43.683293" lon="16.1035479"><ele>185.0</ele><time>2026-05-05T06:37:02.606Z</time></trkpt><trkpt lat="43.6832487" lon="16.1031583"><ele>185.0</ele><time>2026-05-05T06:37:03.605Z</time></trkpt><trkpt lat="43.6832079" lon="16.1027722"><ele>185.0</ele><time>2026-05-05T06:37:04.605Z</time></trkpt><trkpt lat="43.6831649" lon="16.102384"><ele>185.0</ele><time>2026-05-05T06:37:05.606Z</time></trkpt><trkpt lat="43.6831163" lon="16.1020021"><ele>185.0</ele><time>2026-05-05T06:37:06.605Z</time></trkpt><trkpt lat="43.6830719" lon="16.1016215"><ele>185.0</ele><time>2026-05-05T06:37:07.606Z</time></trkpt><trkpt lat="43.6830171" lon="16.1012424"><ele>185.5</ele><time>2026-05-05T06:37:08.606Z</time></trkpt><trkpt lat="43.6829642" lon="16.1008635"><ele>186.0</ele><time>2026-05-05T06:37:09.605Z</time></trkpt><trkpt lat="43.6829074" lon="16.1004835"><ele>186.0</ele><time>2026-05-05T06:37:10.606Z</time></trkpt><trkpt lat="43.6828496" lon="16.1001033"><ele>186.0</ele><time>2026-05-05T06:37:11.606Z</time></trkpt><trkpt lat="43.6827909" lon="16.0997228"><ele>184.5</ele><time>2026-05-05T06:37:12.606Z</time></trkpt><trkpt lat="43.6827267" lon="16.0993398"><ele>183.0</ele><time>2026-05-05T06:37:13.606Z</time></trkpt><trkpt lat="43.6826617" lon="16.0989539"><ele>182.5</ele><time>2026-05-05T06:37:14.606Z</time></trkpt><trkpt lat="43.6826003" lon="16.0985672"><ele>182.0</ele><time>2026-05-05T06:37:15.605Z</time></trkpt><trkpt lat="43.6825451" lon="16.0981788"><ele>182.0</ele><time>2026-05-05T06:37:16.606Z</time></trkpt><trkpt lat="43.6824894" lon="16.0977884"><ele>182.0</ele><time>2026-05-05T06:37:17.606Z</time></trkpt><trkpt lat="43.6824396" lon="16.097399"><ele>181.5</ele><time>2026-05-05T06:37:18.606Z</time></trkpt><trkpt lat="43.6824022" lon="16.0970098"><ele>181.0</ele><time>2026-05-05T06:37:19.605Z</time></trkpt><trkpt lat="43.6823679" lon="16.096615"><ele>181.5</ele><time>2026-05-05T06:37:20.606Z</time></trkpt><trkpt lat="43.6823365" lon="16.0962287"><ele>182.0</ele><time>2026-05-05T06:37:21.606Z</time></trkpt><trkpt lat="43.6823085" lon="16.0958337"><ele>182.0</ele><time>2026-05-05T06:37:22.605Z</time></trkpt><trkpt lat="43.6822907" lon="16.0954486"><ele>182.0</ele><time>2026-05-05T06:37:23.606Z</time></trkpt><trkpt lat="43.682278" lon="16.0950528"><ele>182.0</ele><time>2026-05-05T06:37:24.605Z</time></trkpt><trkpt lat="43.6822778" lon="16.0946574"><ele>182.0</ele><time>2026-05-05T06:37:25.605Z</time></trkpt><trkpt lat="43.6822819" lon="16.0942599"><ele>182.0</ele><time>2026-05-05T06:37:26.605Z</time></trkpt><trkpt lat="43.6822864" lon="16.093867"><ele>182.0</ele><time>2026-05-05T06:37:27.606Z</time></trkpt><trkpt lat="43.6822993" lon="16.0934685"><ele>182.5</ele><time>2026-05-05T06:37:28.606Z</time></trkpt><trkpt lat="43.6823153" lon="16.0930681"><ele>183.0</ele><time>2026-05-05T06:37:29.606Z</time></trkpt><trkpt lat="43.6823418" lon="16.0926675"><ele>182.0</ele><time>2026-05-05T06:37:30.605Z</time></trkpt><trkpt lat="43.6823717" lon="16.0922717"><ele>181.0</ele><time>2026-05-05T06:37:31.606Z</time></trkpt><trkpt lat="43.6824131" lon="16.0918783"><ele>181.0</ele><time>2026-05-05T06:37:32.606Z</time></trkpt><trkpt lat="43.6824677" lon="16.0914869"><ele>181.0</ele><time>2026-05-05T06:37:33.605Z</time></trkpt><trkpt lat="43.6825232" lon="16.0910924"><ele>180.5</ele><time>2026-05-05T06:37:34.606Z</time></trkpt><trkpt lat="43.6825709" lon="16.090699"><ele>180.0</ele><time>2026-05-05T06:37:35.606Z</time></trkpt><trkpt lat="43.6826291" lon="16.0903072"><ele>179.5</ele><time>2026-05-05T06:37:36.606Z</time></trkpt><trkpt lat="43.6826943" lon="16.0899177"><ele>179.0</ele><time>2026-05-05T06:37:37.606Z</time></trkpt><trkpt lat="43.6827521" lon="16.089528"><ele>179.0</ele><time>2026-05-05T06:37:38.605Z</time></trkpt><trkpt lat="43.6828123" lon="16.0891403"><ele>179.0</ele><time>2026-05-05T06:37:39.606Z</time></trkpt><trkpt lat="43.6828692" lon="16.0887506"><ele>178.5</ele><time>2026-05-05T06:37:40.606Z</time></trkpt><trkpt lat="43.682923" lon="16.0883606"><ele>178.0</ele><time>2026-05-05T06:37:41.606Z</time></trkpt><trkpt lat="43.6829733" lon="16.0879712"><ele>177.5</ele><time>2026-05-05T06:37:42.606Z</time></trkpt><trkpt lat="43.6830255" lon="16.0875808"><ele>177.0</ele><time>2026-05-05T06:37:43.606Z</time></trkpt><trkpt lat="43.6830674" lon="16.0871915"><ele>175.0</ele><time>2026-05-05T06:37:44.605Z</time></trkpt><trkpt lat="43.6831078" lon="16.0868034"><ele>173.0</ele><time>2026-05-05T06:37:45.605Z</time></trkpt><trkpt lat="43.6831366" lon="16.0864145"><ele>172.5</ele><time>2026-05-05T06:37:46.605Z</time></trkpt><trkpt lat="43.6831614" lon="16.0860247"><ele>172.0</ele><time>2026-05-05T06:37:47.605Z</time></trkpt><trkpt lat="43.6831794" lon="16.0856323"><ele>171.0</ele><time>2026-05-05T06:37:48.605Z</time></trkpt><trkpt lat="43.6831896" lon="16.0852414"><ele>170.0</ele><time>2026-05-05T06:37:49.606Z</time></trkpt><trkpt lat="43.6831932" lon="16.0848507"><ele>170.0</ele><time>2026-05-05T06:37:50.606Z</time></trkpt><trkpt lat="43.6831928" lon="16.0844623"><ele>170.0</ele><time>2026-05-05T06:37:51.605Z</time></trkpt><trkpt lat="43.6831834" lon="16.0840744"><ele>170.0</ele><time>2026-05-05T06:37:52.606Z</time></trkpt><trkpt lat="43.6831704" lon="16.0836903"><ele>170.0</ele><time>2026-05-05T06:37:53.605Z</time></trkpt><trkpt lat="43.6831488" lon="16.0833109"><ele>173.0</ele><time>2026-05-05T06:37:54.606Z</time></trkpt><trkpt lat="43.6831235" lon="16.0829279"><ele>176.0</ele><time>2026-05-05T06:37:55.606Z</time></trkpt><trkpt lat="43.6830901" lon="16.0825482"><ele>179.5</ele><time>2026-05-05T06:37:56.605Z</time></trkpt><trkpt lat="43.6830545" lon="16.0821703"><ele>183.0</ele><time>2026-05-05T06:37:57.605Z</time></trkpt><trkpt lat="43.6830163" lon="16.0817975"><ele>186.5</ele><time>2026-05-05T06:37:58.606Z</time></trkpt><trkpt lat="43.6829668" lon="16.0814292"><ele>190.0</ele><time>2026-05-05T06:37:59.605Z</time></trkpt><trkpt lat="43.6829156" lon="16.0810624"><ele>191.5</ele><time>2026-05-05T06:38:00.606Z</time></trkpt><trkpt lat="43.6828723" lon="16.0806909"><ele>193.0</ele><time>2026-05-05T06:38:01.606Z</time></trkpt><trkpt lat="43.6828239" lon="16.080326"><ele>193.0</ele><time>2026-05-05T06:38:02.605Z</time></trkpt><trkpt lat="43.6827742" lon="16.0799653"><ele>193.0</ele><time>2026-05-05T06:38:03.605Z</time></trkpt><trkpt lat="43.6827295" lon="16.0795981"><ele>182.5</ele><time>2026-05-05T06:38:04.605Z</time></trkpt><trkpt lat="43.6826886" lon="16.0792331"><ele>172.0</ele><time>2026-05-05T06:38:05.605Z</time></trkpt><trkpt lat="43.6826471" lon="16.0788666"><ele>172.0</ele><time>2026-05-05T06:38:06.606Z</time></trkpt><trkpt lat="43.682603" lon="16.0784976"><ele>172.0</ele><time>2026-05-05T06:38:07.606Z</time></trkpt><trkpt lat="43.682567" lon="16.0781182"><ele>173.5</ele><time>2026-05-05T06:38:08.605Z</time></trkpt><trkpt lat="43.6825353" lon="16.0777365"><ele>175.0</ele><time>2026-05-05T06:38:09.605Z</time></trkpt><trkpt lat="43.6825097" lon="16.0773509"><ele>175.0</ele><time>2026-05-05T06:38:10.606Z</time></trkpt><trkpt lat="43.6824887" lon="16.0769567"><ele>175.0</ele><time>2026-05-05T06:38:11.605Z</time></trkpt><trkpt lat="43.6824737" lon="16.0765671"><ele>174.5</ele><time>2026-05-05T06:38:12.605Z</time></trkpt><trkpt lat="43.6824603" lon="16.0761663"><ele>174.0</ele><time>2026-05-05T06:38:13.606Z</time></trkpt><trkpt lat="43.6824468" lon="16.0757674"><ele>172.5</ele><time>2026-05-05T06:38:14.606Z</time></trkpt><trkpt lat="43.6824384" lon="16.0753624"><ele>171.0</ele><time>2026-05-05T06:38:15.605Z</time></trkpt><trkpt lat="43.6824386" lon="16.0749589"><ele>170.0</ele><time>2026-05-05T06:38:16.605Z</time></trkpt><trkpt lat="43.682449" lon="16.0745586"><ele>169.0</ele><time>2026-05-05T06:38:17.605Z</time></trkpt><trkpt lat="43.6824692" lon="16.0741585"><ele>167.5</ele><time>2026-05-05T06:38:18.605Z</time></trkpt><trkpt lat="43.6824911" lon="16.07376"><ele>166.0</ele><time>2026-05-05T06:38:19.605Z</time></trkpt><trkpt lat="43.6825169" lon="16.0733591"><ele>164.5</ele><time>2026-05-05T06:38:20.605Z</time></trkpt><trkpt lat="43.682548" lon="16.072962"><ele>163.0</ele><time>2026-05-05T06:38:21.605Z</time></trkpt><trkpt lat="43.6825836" lon="16.0725689"><ele>161.0</ele><time>2026-05-05T06:38:22.605Z</time></trkpt><trkpt lat="43.6826211" lon="16.0721731"><ele>159.0</ele><time>2026-05-05T06:38:23.605Z</time></trkpt><trkpt lat="43.6826662" lon="16.0717831"><ele>158.0</ele><time>2026-05-05T06:38:24.606Z</time></trkpt><trkpt lat="43.6827134" lon="16.0713956"><ele>157.0</ele><time>2026-05-05T06:38:25.606Z</time></trkpt><trkpt lat="43.6827653" lon="16.07101"><ele>160.5</ele><time>2026-05-05T06:38:26.605Z</time></trkpt><trkpt lat="43.6828189" lon="16.0706244"><ele>164.0</ele><time>2026-05-05T06:38:27.606Z</time></trkpt><trkpt lat="43.6828717" lon="16.0702385"><ele>165.0</ele><time>2026-05-05T06:38:28.605Z</time></trkpt><trkpt lat="43.6829261" lon="16.0698472"><ele>166.0</ele><time>2026-05-05T06:38:29.605Z</time></trkpt><trkpt lat="43.6829838" lon="16.0694592"><ele>167.0</ele><time>2026-05-05T06:38:30.605Z</time></trkpt><trkpt lat="43.6830434" lon="16.0690664"><ele>168.0</ele><time>2026-05-05T06:38:31.606Z</time></trkpt><trkpt lat="43.6830975" lon="16.0686719"><ele>168.0</ele><time>2026-05-05T06:38:32.605Z</time></trkpt><trkpt lat="43.6831496" lon="16.068277"><ele>168.0</ele><time>2026-05-05T06:38:33.606Z</time></trkpt><trkpt lat="43.6831987" lon="16.0678812"><ele>168.0</ele><time>2026-05-05T06:38:34.605Z</time></trkpt><trkpt lat="43.6832495" lon="16.0674798"><ele>168.0</ele><time>2026-05-05T06:38:35.606Z</time></trkpt><trkpt lat="43.6832925" lon="16.0670855"><ele>167.5</ele><time>2026-05-05T06:38:36.606Z</time></trkpt><trkpt lat="43.6833307" lon="16.0666817"><ele>167.0</ele><time>2026-05-05T06:38:37.606Z</time></trkpt><trkpt lat="43.6833601" lon="16.0662791"><ele>166.5</ele><time>2026-05-05T06:38:38.606Z</time></trkpt><trkpt lat="43.6833882" lon="16.0658733"><ele>166.0</ele><time>2026-05-05T06:38:39.606Z</time></trkpt><trkpt lat="43.6834098" lon="16.0654685"><ele>165.5</ele><time>2026-05-05T06:38:40.606Z</time></trkpt><trkpt lat="43.6834276" lon="16.0650606"><ele>165.0</ele><time>2026-05-05T06:38:41.606Z</time></trkpt><trkpt lat="43.6834466" lon="16.0646549"><ele>164.0</ele><time>2026-05-05T06:38:42.605Z</time></trkpt><trkpt lat="43.6834638" lon="16.0642478"><ele>163.0</ele><time>2026-05-05T06:38:43.605Z</time></trkpt><trkpt lat="43.6834777" lon="16.0638412"><ele>159.5</ele><time>2026-05-05T06:38:44.605Z</time></trkpt><trkpt lat="43.6834898" lon="16.0634355"><ele>156.0</ele><time>2026-05-05T06:38:45.606Z</time></trkpt><trkpt lat="43.6835009" lon="16.0630345"><ele>155.5</ele><time>2026-05-05T06:38:46.606Z</time></trkpt><trkpt lat="43.6835127" lon="16.0626328"><ele>155.0</ele><time>2026-05-05T06:38:47.605Z</time></trkpt><trkpt lat="43.6835245" lon="16.0622307"><ele>158.0</ele><time>2026-05-05T06:38:48.605Z</time></trkpt><trkpt lat="43.6835379" lon="16.0618278"><ele>161.0</ele><time>2026-05-05T06:38:49.605Z</time></trkpt><trkpt lat="43.6835553" lon="16.0614199"><ele>161.5</ele><time>2026-05-05T06:38:50.605Z</time></trkpt><trkpt lat="43.6835759" lon="16.0610155"><ele>162.0</ele><time>2026-05-05T06:38:51.606Z</time></trkpt><trkpt lat="43.6835955" lon="16.0606073"><ele>163.5</ele><time>2026-05-05T06:38:52.606Z</time></trkpt><trkpt lat="43.6836164" lon="16.0602022"><ele>165.0</ele><time>2026-05-05T06:38:53.606Z</time></trkpt><trkpt lat="43.6836422" lon="16.0597942"><ele>165.0</ele><time>2026-05-05T06:38:54.605Z</time></trkpt><trkpt lat="43.6836726" lon="16.059386"><ele>165.0</ele><time>2026-05-05T06:38:55.606Z</time></trkpt><trkpt lat="43.6837089" lon="16.0589787"><ele>164.5</ele><time>2026-05-05T06:38:56.605Z</time></trkpt><trkpt lat="43.683742" lon="16.0585692"><ele>164.0</ele><time>2026-05-05T06:38:57.605Z</time></trkpt><trkpt lat="43.6837821" lon="16.0581643"><ele>164.0</ele><time>2026-05-05T06:38:58.605Z</time></trkpt><trkpt lat="43.6838281" lon="16.0577575"><ele>164.0</ele><time>2026-05-05T06:38:59.605Z</time></trkpt><trkpt lat="43.6838811" lon="16.0573492"><ele>164.0</ele><time>2026-05-05T06:39:00.605Z</time></trkpt><trkpt lat="43.6839319" lon="16.0569465"><ele>164.0</ele><time>2026-05-05T06:39:01.606Z</time></trkpt><trkpt lat="43.6839878" lon="16.0565384"><ele>163.5</ele><time>2026-05-05T06:39:02.605Z</time></trkpt><trkpt lat="43.6840468" lon="16.0561342"><ele>163.0</ele><time>2026-05-05T06:39:03.605Z</time></trkpt><trkpt lat="43.6841091" lon="16.0557315"><ele>162.5</ele><time>2026-05-05T06:39:04.605Z</time></trkpt><trkpt lat="43.6841694" lon="16.0553296"><ele>162.0</ele><time>2026-05-05T06:39:05.605Z</time></trkpt><trkpt lat="43.6842395" lon="16.0549266"><ele>161.0</ele><time>2026-05-05T06:39:06.606Z</time></trkpt><trkpt lat="43.684313" lon="16.0545303"><ele>160.0</ele><time>2026-05-05T06:39:07.606Z</time></trkpt><trkpt lat="43.6843932" lon="16.0541393"><ele>161.5</ele><time>2026-05-05T06:39:08.605Z</time></trkpt><trkpt lat="43.6844763" lon="16.0537468"><ele>163.0</ele><time>2026-05-05T06:39:09.605Z</time></trkpt><trkpt lat="43.6845603" lon="16.0533612"><ele>162.0</ele><time>2026-05-05T06:39:10.606Z</time></trkpt><trkpt lat="43.6846503" lon="16.0529778"><ele>161.0</ele><time>2026-05-05T06:39:11.606Z</time></trkpt><trkpt lat="43.6847442" lon="16.0525938"><ele>160.5</ele><time>2026-05-05T06:39:12.606Z</time></trkpt><trkpt lat="43.684837" lon="16.0522168"><ele>160.0</ele><time>2026-05-05T06:39:13.606Z</time></trkpt><trkpt lat="43.6849338" lon="16.0518377"><ele>159.5</ele><time>2026-05-05T06:39:14.606Z</time></trkpt><trkpt lat="43.6850346" lon="16.0514606"><ele>159.0</ele><time>2026-05-05T06:39:15.605Z</time></trkpt><trkpt lat="43.6851357" lon="16.0510921"><ele>158.5</ele><time>2026-05-05T06:39:16.606Z</time></trkpt><trkpt lat="43.6852444" lon="16.0507201"><ele>158.0</ele><time>2026-05-05T06:39:17.606Z</time></trkpt><trkpt lat="43.6853543" lon="16.0503527"><ele>158.0</ele><time>2026-05-05T06:39:18.606Z</time></trkpt><trkpt lat="43.6854651" lon="16.0499874"><ele>158.0</ele><time>2026-05-05T06:39:19.606Z</time></trkpt><trkpt lat="43.6855811" lon="16.0496299"><ele>158.0</ele><time>2026-05-05T06:39:20.606Z</time></trkpt><trkpt lat="43.6857024" lon="16.0492738"><ele>158.0</ele><time>2026-05-05T06:39:21.606Z</time></trkpt><trkpt lat="43.6858216" lon="16.0489198"><ele>158.0</ele><time>2026-05-05T06:39:22.605Z</time></trkpt><trkpt lat="43.6859458" lon="16.0485695"><ele>158.0</ele><time>2026-05-05T06:39:23.606Z</time></trkpt><trkpt lat="43.6860768" lon="16.0482385"><ele>161.0</ele><time>2026-05-05T06:39:24.606Z</time></trkpt><trkpt lat="43.686207" lon="16.0478905"><ele>164.0</ele><time>2026-05-05T06:39:25.606Z</time></trkpt><trkpt lat="43.6863443" lon="16.0475456"><ele>162.5</ele><time>2026-05-05T06:39:26.606Z</time></trkpt><trkpt lat="43.6864757" lon="16.0472018"><ele>161.0</ele><time>2026-05-05T06:39:27.606Z</time></trkpt><trkpt lat="43.6866117" lon="16.0468592"><ele>160.0</ele><time>2026-05-05T06:39:28.605Z</time></trkpt><trkpt lat="43.6867523" lon="16.0465226"><ele>159.0</ele><time>2026-05-05T06:39:29.606Z</time></trkpt><trkpt lat="43.6868977" lon="16.0461876"><ele>160.5</ele><time>2026-05-05T06:39:30.605Z</time></trkpt><trkpt lat="43.687045" lon="16.045854"><ele>162.0</ele><time>2026-05-05T06:39:31.605Z</time></trkpt><trkpt lat="43.6872004" lon="16.0455196"><ele>162.0</ele><time>2026-05-05T06:39:32.606Z</time></trkpt><trkpt lat="43.6873507" lon="16.0451938"><ele>162.0</ele><time>2026-05-05T06:39:33.606Z</time></trkpt><trkpt lat="43.6875103" lon="16.044866"><ele>161.0</ele><time>2026-05-05T06:39:34.606Z</time></trkpt><trkpt lat="43.6876725" lon="16.0445385"><ele>160.0</ele><time>2026-05-05T06:39:35.606Z</time></trkpt><trkpt lat="43.6878401" lon="16.044215"><ele>161.0</ele><time>2026-05-05T06:39:36.606Z</time></trkpt><trkpt lat="43.6880075" lon="16.043893"><ele>162.0</ele><time>2026-05-05T06:39:37.606Z</time></trkpt><trkpt lat="43.6881778" lon="16.0435821"><ele>161.5</ele><time>2026-05-05T06:39:38.606Z</time></trkpt><trkpt lat="43.6883384" lon="16.0432737"><ele>161.0</ele><time>2026-05-05T06:39:39.605Z</time></trkpt><trkpt lat="43.6885097" lon="16.0429679"><ele>161.5</ele><time>2026-05-05T06:39:40.606Z</time></trkpt><trkpt lat="43.6886884" lon="16.0426643"><ele>162.0</ele><time>2026-05-05T06:39:41.606Z</time></trkpt><trkpt lat="43.6888564" lon="16.0423607"><ele>162.0</ele><time>2026-05-05T06:39:42.606Z</time></trkpt><trkpt lat="43.6890279" lon="16.0420534"><ele>162.0</ele><time>2026-05-05T06:39:43.606Z</time></trkpt><trkpt lat="43.6891993" lon="16.041748"><ele>162.0</ele><time>2026-05-05T06:39:44.605Z</time></trkpt><trkpt lat="43.6893743" lon="16.0414494"><ele>162.0</ele><time>2026-05-05T06:39:45.606Z</time></trkpt><trkpt lat="43.6895488" lon="16.0411477"><ele>163.5</ele><time>2026-05-05T06:39:46.606Z</time></trkpt><trkpt lat="43.6897324" lon="16.0408509"><ele>165.0</ele><time>2026-05-05T06:39:47.606Z</time></trkpt><trkpt lat="43.6899052" lon="16.0405521"><ele>165.0</ele><time>2026-05-05T06:39:48.606Z</time></trkpt><trkpt lat="43.6900796" lon="16.0402527"><ele>165.0</ele><time>2026-05-05T06:39:49.605Z</time></trkpt><trkpt lat="43.6902534" lon="16.0399515"><ele>166.5</ele><time>2026-05-05T06:39:50.605Z</time></trkpt><trkpt lat="43.6904276" lon="16.0396426"><ele>168.0</ele><time>2026-05-05T06:39:51.606Z</time></trkpt><trkpt lat="43.6905986" lon="16.039334"><ele>167.0</ele><time>2026-05-05T06:39:52.605Z</time></trkpt><trkpt lat="43.6907838" lon="16.039029"><ele>166.0</ele><time>2026-05-05T06:39:53.605Z</time></trkpt><trkpt lat="43.6909584" lon="16.0387236"><ele>167.0</ele><time>2026-05-05T06:39:54.606Z</time></trkpt><trkpt lat="43.6911337" lon="16.0384147"><ele>168.0</ele><time>2026-05-05T06:39:55.605Z</time></trkpt><trkpt lat="43.6913059" lon="16.0381094"><ele>168.0</ele><time>2026-05-05T06:39:56.605Z</time></trkpt><trkpt lat="43.6914842" lon="16.0377996"><ele>168.0</ele><time>2026-05-05T06:39:57.606Z</time></trkpt><trkpt lat="43.6916573" lon="16.0374973"><ele>168.5</ele><time>2026-05-05T06:39:58.606Z</time></trkpt><trkpt lat="43.6918295" lon="16.0371907"><ele>169.0</ele><time>2026-05-05T06:39:59.606Z</time></trkpt><trkpt lat="43.6920024" lon="16.0368814"><ele>170.5</ele><time>2026-05-05T06:40:00.606Z</time></trkpt><trkpt lat="43.6921757" lon="16.0365618"><ele>172.0</ele><time>2026-05-05T06:40:01.606Z</time></trkpt><trkpt lat="43.6923477" lon="16.0362358"><ele>172.0</ele><time>2026-05-05T06:40:02.606Z</time></trkpt><trkpt lat="43.6925076" lon="16.0359154"><ele>172.0</ele><time>2026-05-05T06:40:03.606Z</time></trkpt><trkpt lat="43.69267" lon="16.0355908"><ele>173.5</ele><time>2026-05-05T06:40:04.606Z</time></trkpt><trkpt lat="43.6928319" lon="16.0352628"><ele>175.0</ele><time>2026-05-05T06:40:05.606Z</time></trkpt><trkpt lat="43.6929895" lon="16.0349362"><ele>175.0</ele><time>2026-05-05T06:40:06.605Z</time></trkpt><trkpt lat="43.693145" lon="16.0346137"><ele>175.0</ele><time>2026-05-05T06:40:07.605Z</time></trkpt><trkpt lat="43.6932969" lon="16.0342825"><ele>173.5</ele><time>2026-05-05T06:40:08.605Z</time></trkpt><trkpt lat="43.6934464" lon="16.0339538"><ele>172.0</ele><time>2026-05-05T06:40:09.606Z</time></trkpt><trkpt lat="43.6935907" lon="16.0336168"><ele>169.0</ele><time>2026-05-05T06:40:10.605Z</time></trkpt><trkpt lat="43.6937275" lon="16.033282"><ele>166.0</ele><time>2026-05-05T06:40:11.606Z</time></trkpt><trkpt lat="43.69386" lon="16.0329419"><ele>166.0</ele><time>2026-05-05T06:40:12.605Z</time></trkpt><trkpt lat="43.6939885" lon="16.0325998"><ele>166.0</ele><time>2026-05-05T06:40:13.605Z</time></trkpt><trkpt lat="43.6941201" lon="16.0322583"><ele>160.0</ele><time>2026-05-05T06:40:14.606Z</time></trkpt><trkpt lat="43.6942426" lon="16.0319169"><ele>154.0</ele><time>2026-05-05T06:40:15.606Z</time></trkpt><trkpt lat="43.6943639" lon="16.0315662"><ele>142.5</ele><time>2026-05-05T06:40:16.605Z</time></trkpt><trkpt lat="43.6944829" lon="16.0312145"><ele>131.0</ele><time>2026-05-05T06:40:17.606Z</time></trkpt><trkpt lat="43.6946018" lon="16.0308603"><ele>138.5</ele><time>2026-05-05T06:40:18.606Z</time></trkpt><trkpt lat="43.6947157" lon="16.0305078"><ele>146.0</ele><time>2026-05-05T06:40:19.605Z</time></trkpt><trkpt lat="43.6948271" lon="16.0301504"><ele>153.5</ele><time>2026-05-05T06:40:20.606Z</time></trkpt><trkpt lat="43.6949332" lon="16.0297932"><ele>161.0</ele><time>2026-05-05T06:40:21.606Z</time></trkpt><trkpt lat="43.6950325" lon="16.0294337"><ele>166.5</ele><time>2026-05-05T06:40:22.605Z</time></trkpt><trkpt lat="43.6951292" lon="16.0290691"><ele>172.0</ele><time>2026-05-05T06:40:23.606Z</time></trkpt><trkpt lat="43.6952221" lon="16.0287006"><ele>183.5</ele><time>2026-05-05T06:40:24.606Z</time></trkpt><trkpt lat="43.695313" lon="16.0283292"><ele>195.0</ele><time>2026-05-05T06:40:25.606Z</time></trkpt><trkpt lat="43.6954051" lon="16.0279567"><ele>196.0</ele><time>2026-05-05T06:40:26.605Z</time></trkpt><trkpt lat="43.6954974" lon="16.0275937"><ele>197.0</ele><time>2026-05-05T06:40:27.605Z</time></trkpt><trkpt lat="43.6955874" lon="16.0272197"><ele>197.0</ele><time>2026-05-05T06:40:28.606Z</time></trkpt><trkpt lat="43.6956809" lon="16.0268481"><ele>197.0</ele><time>2026-05-05T06:40:29.605Z</time></trkpt><trkpt lat="43.6957667" lon="16.0264817"><ele>195.5</ele><time>2026-05-05T06:40:30.606Z</time></trkpt><trkpt lat="43.6958477" lon="16.0261114"><ele>194.0</ele><time>2026-05-05T06:40:31.606Z</time></trkpt><trkpt lat="43.6959291" lon="16.0257321"><ele>193.0</ele><time>2026-05-05T06:40:32.606Z</time></trkpt><trkpt lat="43.6960083" lon="16.0253542"><ele>192.0</ele><time>2026-05-05T06:40:33.605Z</time></trkpt><trkpt lat="43.6960958" lon="16.0249852"><ele>194.0</ele><time>2026-05-05T06:40:34.605Z</time></trkpt><trkpt lat="43.6961761" lon="16.024614"><ele>196.0</ele><time>2026-05-05T06:40:35.606Z</time></trkpt><trkpt lat="43.6962727" lon="16.0242466"><ele>194.0</ele><time>2026-05-05T06:40:36.606Z</time></trkpt><trkpt lat="43.6963535" lon="16.0238815"><ele>192.0</ele><time>2026-05-05T06:40:37.605Z</time></trkpt><trkpt lat="43.6964564" lon="16.0235233"><ele>191.5</ele><time>2026-05-05T06:40:38.606Z</time></trkpt><trkpt lat="43.6965612" lon="16.0231661"><ele>191.0</ele><time>2026-05-05T06:40:39.605Z</time></trkpt><trkpt lat="43.6966713" lon="16.0228127"><ele>191.5</ele><time>2026-05-05T06:40:40.605Z</time></trkpt><trkpt lat="43.6967867" lon="16.0224639"><ele>192.0</ele><time>2026-05-05T06:40:41.605Z</time></trkpt><trkpt lat="43.6969077" lon="16.0221183"><ele>193.5</ele><time>2026-05-05T06:40:42.605Z</time></trkpt><trkpt lat="43.6970293" lon="16.0217755"><ele>195.0</ele><time>2026-05-05T06:40:43.606Z</time></trkpt><trkpt lat="43.6971667" lon="16.0214347"><ele>195.0</ele><time>2026-05-05T06:40:44.605Z</time></trkpt><trkpt lat="43.6973055" lon="16.0211031"><ele>195.0</ele><time>2026-05-05T06:40:45.606Z</time></trkpt><trkpt lat="43.6974439" lon="16.0207636"><ele>192.5</ele><time>2026-05-05T06:40:46.606Z</time></trkpt><trkpt lat="43.6975857" lon="16.0204257"><ele>190.0</ele><time>2026-05-05T06:40:47.606Z</time></trkpt><trkpt lat="43.6977333" lon="16.0201012"><ele>191.0</ele><time>2026-05-05T06:40:48.606Z</time></trkpt><trkpt lat="43.6978854" lon="16.0197721"><ele>192.0</ele><time>2026-05-05T06:40:49.605Z</time></trkpt><trkpt lat="43.6980481" lon="16.0194499"><ele>189.5</ele><time>2026-05-05T06:40:50.605Z</time></trkpt><trkpt lat="43.6982152" lon="16.0191289"><ele>187.0</ele><time>2026-05-05T06:40:51.605Z</time></trkpt><trkpt lat="43.6983831" lon="16.0188157"><ele>187.0</ele><time>2026-05-05T06:40:52.605Z</time></trkpt><trkpt lat="43.6985602" lon="16.0185049"><ele>187.0</ele><time>2026-05-05T06:40:53.606Z</time></trkpt><trkpt lat="43.6987365" lon="16.0181952"><ele>188.0</ele><time>2026-05-05T06:40:54.605Z</time></trkpt><trkpt lat="43.6989226" lon="16.0178977"><ele>189.0</ele><time>2026-05-05T06:40:55.605Z</time></trkpt><trkpt lat="43.6991161" lon="16.0176013"><ele>190.0</ele><time>2026-05-05T06:40:56.606Z</time></trkpt><trkpt lat="43.6993075" lon="16.0173105"><ele>191.0</ele><time>2026-05-05T06:40:57.606Z</time></trkpt><trkpt lat="43.6994951" lon="16.0170177"><ele>191.0</ele><time>2026-05-05T06:40:58.606Z</time></trkpt><trkpt lat="43.6996856" lon="16.0167231"><ele>191.0</ele><time>2026-05-05T06:40:59.605Z</time></trkpt><trkpt lat="43.6998717" lon="16.0164306"><ele>192.0</ele><time>2026-05-05T06:41:00.606Z</time></trkpt><trkpt lat="43.7000626" lon="16.0161329"><ele>193.0</ele><time>2026-05-05T06:41:01.605Z</time></trkpt><trkpt lat="43.7002553" lon="16.0158335"><ele>190.0</ele><time>2026-05-05T06:41:02.605Z</time></trkpt><trkpt lat="43.700438" lon="16.0155287"><ele>187.0</ele><time>2026-05-05T06:41:03.605Z</time></trkpt><trkpt lat="43.7006236" lon="16.0152231"><ele>184.0</ele><time>2026-05-05T06:41:04.605Z</time></trkpt><trkpt lat="43.7008068" lon="16.0149079"><ele>181.0</ele><time>2026-05-05T06:41:05.606Z</time></trkpt><trkpt lat="43.7009862" lon="16.0145967"><ele>182.0</ele><time>2026-05-05T06:41:06.606Z</time></trkpt><trkpt lat="43.7011647" lon="16.0142748"><ele>183.0</ele><time>2026-05-05T06:41:07.605Z</time></trkpt><trkpt lat="43.7013384" lon="16.0139503"><ele>183.0</ele><time>2026-05-05T06:41:08.605Z</time></trkpt><trkpt lat="43.7015029" lon="16.0136223"><ele>183.0</ele><time>2026-05-05T06:41:09.605Z</time></trkpt><trkpt lat="43.7016717" lon="16.0132894"><ele>183.5</ele><time>2026-05-05T06:41:10.605Z</time></trkpt><trkpt lat="43.7018378" lon="16.0129414"><ele>184.0</ele><time>2026-05-05T06:41:11.605Z</time></trkpt><trkpt lat="43.7020003" lon="16.0126016"><ele>182.0</ele><time>2026-05-05T06:41:12.605Z</time></trkpt><trkpt lat="43.7021535" lon="16.0122632"><ele>180.0</ele><time>2026-05-05T06:41:13.605Z</time></trkpt><trkpt lat="43.7023062" lon="16.0119135"><ele>178.0</ele><time>2026-05-05T06:41:14.606Z</time></trkpt><trkpt lat="43.702454" lon="16.011565"><ele>176.0</ele><time>2026-05-05T06:41:15.605Z</time></trkpt><trkpt lat="43.7025953" lon="16.0112108"><ele>176.0</ele><time>2026-05-05T06:41:16.606Z</time></trkpt><trkpt lat="43.7027338" lon="16.0108543"><ele>176.0</ele><time>2026-05-05T06:41:17.605Z</time></trkpt><trkpt lat="43.7028686" lon="16.0104924"><ele>176.5</ele><time>2026-05-05T06:41:18.606Z</time></trkpt><trkpt lat="43.7029988" lon="16.0101333"><ele>177.0</ele><time>2026-05-05T06:41:19.605Z</time></trkpt><trkpt lat="43.7031229" lon="16.0097738"><ele>176.0</ele><time>2026-05-05T06:41:20.604Z</time></trkpt><trkpt lat="43.7032482" lon="16.009417"><ele>175.0</ele><time>2026-05-05T06:41:21.605Z</time></trkpt><trkpt lat="43.7033765" lon="16.0090578"><ele>175.0</ele><time>2026-05-05T06:41:22.606Z</time></trkpt><trkpt lat="43.703501" lon="16.0087023"><ele>175.0</ele><time>2026-05-05T06:41:23.606Z</time></trkpt><trkpt lat="43.703625" lon="16.0083514"><ele>179.5</ele><time>2026-05-05T06:41:24.606Z</time></trkpt><trkpt lat="43.7037519" lon="16.0079999"><ele>184.0</ele><time>2026-05-05T06:41:25.605Z</time></trkpt><trkpt lat="43.7038824" lon="16.0076431"><ele>182.0</ele><time>2026-05-05T06:41:26.606Z</time></trkpt><trkpt lat="43.7040095" lon="16.0072861"><ele>180.0</ele><time>2026-05-05T06:41:27.605Z</time></trkpt><trkpt lat="43.704137" lon="16.0069382"><ele>178.5</ele><time>2026-05-05T06:41:28.605Z</time></trkpt><trkpt lat="43.7042581" lon="16.0065841"><ele>177.0</ele><time>2026-05-05T06:41:29.606Z</time></trkpt><trkpt lat="43.7043805" lon="16.0062245"><ele>178.0</ele><time>2026-05-05T06:41:30.605Z</time></trkpt><trkpt lat="43.7045155" lon="16.0058777"><ele>179.0</ele><time>2026-05-05T06:41:31.605Z</time></trkpt><trkpt lat="43.7046402" lon="16.0055196"><ele>179.0</ele><time>2026-05-05T06:41:32.605Z</time></trkpt><trkpt lat="43.7047655" lon="16.0051608"><ele>179.0</ele><time>2026-05-05T06:41:33.605Z</time></trkpt><trkpt lat="43.7048952" lon="16.0047911"><ele>176.0</ele><time>2026-05-05T06:41:34.605Z</time></trkpt><trkpt lat="43.7050128" lon="16.0044353"><ele>173.0</ele><time>2026-05-05T06:41:35.605Z</time></trkpt><trkpt lat="43.7051284" lon="16.0040776"><ele>174.5</ele><time>2026-05-05T06:41:36.606Z</time></trkpt><trkpt lat="43.7052485" lon="16.0037204"><ele>176.0</ele><time>2026-05-05T06:41:37.606Z</time></trkpt><trkpt lat="43.7053716" lon="16.0033639"><ele>174.0</ele><time>2026-05-05T06:41:38.605Z</time></trkpt><trkpt lat="43.7054901" lon="16.0030065"><ele>172.0</ele><time>2026-05-05T06:41:39.606Z</time></trkpt><trkpt lat="43.7056217" lon="16.0026572"><ele>169.5</ele><time>2026-05-05T06:41:40.606Z</time></trkpt><trkpt lat="43.7057413" lon="16.0023006"><ele>167.0</ele><time>2026-05-05T06:41:41.605Z</time></trkpt><trkpt lat="43.7058628" lon="16.0019462"><ele>165.5</ele><time>2026-05-05T06:41:42.606Z</time></trkpt><trkpt lat="43.7059827" lon="16.0015931"><ele>164.0</ele><time>2026-05-05T06:41:43.604Z</time></trkpt><trkpt lat="43.7061055" lon="16.0012415"><ele>168.5</ele><time>2026-05-05T06:41:44.606Z</time></trkpt><trkpt lat="43.7062264" lon="16.0008934"><ele>173.0</ele><time>2026-05-05T06:41:45.606Z</time></trkpt><trkpt lat="43.706348" lon="16.0005449"><ele>173.0</ele><time>2026-05-05T06:41:46.605Z</time></trkpt><trkpt lat="43.7064694" lon="16.0001922"><ele>173.0</ele><time>2026-05-05T06:41:47.606Z</time></trkpt><trkpt lat="43.7065863" lon="15.9998332"><ele>173.0</ele><time>2026-05-05T06:41:48.606Z</time></trkpt><trkpt lat="43.7067097" lon="15.9994773"><ele>173.0</ele><time>2026-05-05T06:41:49.605Z</time></trkpt><trkpt lat="43.7068304" lon="15.9991278"><ele>175.5</ele><time>2026-05-05T06:41:50.605Z</time></trkpt><trkpt lat="43.7069605" lon="15.9987682"><ele>178.0</ele><time>2026-05-05T06:41:51.605Z</time></trkpt><trkpt lat="43.7070865" lon="15.9984131"><ele>175.0</ele><time>2026-05-05T06:41:52.605Z</time></trkpt><trkpt lat="43.707213" lon="15.9980584"><ele>172.0</ele><time>2026-05-05T06:41:53.606Z</time></trkpt><trkpt lat="43.7073374" lon="15.9977104"><ele>169.0</ele><time>2026-05-05T06:41:54.606Z</time></trkpt><trkpt lat="43.707463" lon="15.9973579"><ele>166.0</ele><time>2026-05-05T06:41:55.606Z</time></trkpt><trkpt lat="43.7075836" lon="15.9969997"><ele>165.5</ele><time>2026-05-05T06:41:56.606Z</time></trkpt><trkpt lat="43.7077067" lon="15.9966371"><ele>165.0</ele><time>2026-05-05T06:41:57.605Z</time></trkpt><trkpt lat="43.7078252" lon="15.9962778"><ele>165.0</ele><time>2026-05-05T06:41:58.606Z</time></trkpt><trkpt lat="43.7079497" lon="15.9959261"><ele>165.0</ele><time>2026-05-05T06:41:59.605Z</time></trkpt><trkpt lat="43.7080772" lon="15.9955683"><ele>163.5</ele><time>2026-05-05T06:42:00.605Z</time></trkpt><trkpt lat="43.7082052" lon="15.9952223"><ele>162.0</ele><time>2026-05-05T06:42:01.605Z</time></trkpt><trkpt lat="43.7083428" lon="15.9948759"><ele>161.0</ele><time>2026-05-05T06:42:02.605Z</time></trkpt><trkpt lat="43.7084873" lon="15.9945358"><ele>160.0</ele><time>2026-05-05T06:42:03.605Z</time></trkpt><trkpt lat="43.70864" lon="15.994204"><ele>162.5</ele><time>2026-05-05T06:42:04.605Z</time></trkpt><trkpt lat="43.7088017" lon="15.9938844"><ele>165.0</ele><time>2026-05-05T06:42:05.606Z</time></trkpt><trkpt lat="43.708971" lon="15.9935705"><ele>163.0</ele><time>2026-05-05T06:42:06.606Z</time></trkpt><trkpt lat="43.7091518" lon="15.9932673"><ele>161.0</ele><time>2026-05-05T06:42:07.606Z</time></trkpt><trkpt lat="43.7093339" lon="15.9929677"><ele>164.0</ele><time>2026-05-05T06:42:08.605Z</time></trkpt><trkpt lat="43.7095249" lon="15.9926816"><ele>167.0</ele><time>2026-05-05T06:42:09.605Z</time></trkpt><trkpt lat="43.7097186" lon="15.9923996"><ele>167.0</ele><time>2026-05-05T06:42:10.605Z</time></trkpt><trkpt lat="43.7099097" lon="15.9921409"><ele>167.0</ele><time>2026-05-05T06:42:11.606Z</time></trkpt><trkpt lat="43.7101256" lon="15.9918688"><ele>169.0</ele><time>2026-05-05T06:42:12.605Z</time></trkpt><trkpt lat="43.7103432" lon="15.9916177"><ele>171.0</ele><time>2026-05-05T06:42:13.606Z</time></trkpt><trkpt lat="43.7105664" lon="15.9913718"><ele>171.0</ele><time>2026-05-05T06:42:14.606Z</time></trkpt><trkpt lat="43.710798" lon="15.9911326"><ele>171.0</ele><time>2026-05-05T06:42:15.605Z</time></trkpt><trkpt lat="43.7110322" lon="15.9909065"><ele>169.5</ele><time>2026-05-05T06:42:16.605Z</time></trkpt><trkpt lat="43.711267" lon="15.9906834"><ele>168.0</ele><time>2026-05-05T06:42:17.606Z</time></trkpt><trkpt lat="43.7115194" lon="15.9904764"><ele>168.0</ele><time>2026-05-05T06:42:18.605Z</time></trkpt><trkpt lat="43.7117678" lon="15.9902788"><ele>168.0</ele><time>2026-05-05T06:42:19.605Z</time></trkpt><trkpt lat="43.7120158" lon="15.990095"><ele>165.0</ele><time>2026-05-05T06:42:20.606Z</time></trkpt><trkpt lat="43.7122712" lon="15.9899153"><ele>162.0</ele><time>2026-05-05T06:42:21.606Z</time></trkpt><trkpt lat="43.71252" lon="15.989753"><ele>163.0</ele><time>2026-05-05T06:42:22.606Z</time></trkpt><trkpt lat="43.7127822" lon="15.989597"><ele>164.0</ele><time>2026-05-05T06:42:23.605Z</time></trkpt><trkpt lat="43.7130429" lon="15.9894633"><ele>164.0</ele><time>2026-05-05T06:42:24.604Z</time></trkpt><trkpt lat="43.7133071" lon="15.9893302"><ele>164.0</ele><time>2026-05-05T06:42:25.606Z</time></trkpt><trkpt lat="43.7135694" lon="15.9891969"><ele>163.0</ele><time>2026-05-05T06:42:26.606Z</time></trkpt><trkpt lat="43.713833" lon="15.9890701"><ele>162.0</ele><time>2026-05-05T06:42:27.605Z</time></trkpt><trkpt lat="43.7140982" lon="15.9889437"><ele>162.0</ele><time>2026-05-05T06:42:28.604Z</time></trkpt><trkpt lat="43.7143593" lon="15.9888151"><ele>162.0</ele><time>2026-05-05T06:42:29.605Z</time></trkpt><trkpt lat="43.7146261" lon="15.9886901"><ele>164.5</ele><time>2026-05-05T06:42:30.605Z</time></trkpt><trkpt lat="43.7148899" lon="15.9885645"><ele>167.0</ele><time>2026-05-05T06:42:31.605Z</time></trkpt><trkpt lat="43.7151565" lon="15.9884365"><ele>167.5</ele><time>2026-05-05T06:42:32.605Z</time></trkpt><trkpt lat="43.7154199" lon="15.9883042"><ele>168.0</ele><time>2026-05-05T06:42:33.606Z</time></trkpt><trkpt lat="43.7156837" lon="15.9881855"><ele>168.0</ele><time>2026-05-05T06:42:34.606Z</time></trkpt><trkpt lat="43.7159474" lon="15.9880603"><ele>168.0</ele><time>2026-05-05T06:42:35.606Z</time></trkpt><trkpt lat="43.7162127" lon="15.9879315"><ele>171.0</ele><time>2026-05-05T06:42:36.606Z</time></trkpt><trkpt lat="43.7164763" lon="15.9878072"><ele>174.0</ele><time>2026-05-05T06:42:37.606Z</time></trkpt><trkpt lat="43.7167412" lon="15.9876773"><ele>176.0</ele><time>2026-05-05T06:42:38.606Z</time></trkpt><trkpt lat="43.7170051" lon="15.9875564"><ele>178.0</ele><time>2026-05-05T06:42:39.605Z</time></trkpt><trkpt lat="43.7172766" lon="15.9874204"><ele>176.5</ele><time>2026-05-05T06:42:40.606Z</time></trkpt><trkpt lat="43.7175445" lon="15.987291"><ele>175.0</ele><time>2026-05-05T06:42:41.606Z</time></trkpt><trkpt lat="43.7178128" lon="15.9871596"><ele>175.0</ele><time>2026-05-05T06:42:42.605Z</time></trkpt><trkpt lat="43.7180848" lon="15.9870279"><ele>175.0</ele><time>2026-05-05T06:42:43.605Z</time></trkpt><trkpt lat="43.7183568" lon="15.9868965"><ele>175.0</ele><time>2026-05-05T06:42:44.606Z</time></trkpt><trkpt lat="43.7186234" lon="15.9867652"><ele>175.0</ele><time>2026-05-05T06:42:45.606Z</time></trkpt><trkpt lat="43.7189052" lon="15.9866239"><ele>175.0</ele><time>2026-05-05T06:42:46.605Z</time></trkpt><trkpt lat="43.7191738" lon="15.9864958"><ele>175.0</ele><time>2026-05-05T06:42:47.605Z</time></trkpt><trkpt lat="43.7194384" lon="15.9863664"><ele>182.0</ele><time>2026-05-05T06:42:48.606Z</time></trkpt><trkpt lat="43.7197091" lon="15.9862251"><ele>189.0</ele><time>2026-05-05T06:42:49.606Z</time></trkpt><trkpt lat="43.7199707" lon="15.9860825"><ele>189.5</ele><time>2026-05-05T06:42:50.606Z</time></trkpt><trkpt lat="43.720236" lon="15.9859249"><ele>190.0</ele><time>2026-05-05T06:42:51.606Z</time></trkpt><trkpt lat="43.7205012" lon="15.9857592"><ele>190.0</ele><time>2026-05-05T06:42:52.605Z</time></trkpt><trkpt lat="43.7207723" lon="15.9855895"><ele>190.0</ele><time>2026-05-05T06:42:53.605Z</time></trkpt><trkpt lat="43.7210258" lon="15.9854254"><ele>196.5</ele><time>2026-05-05T06:42:54.606Z</time></trkpt><trkpt lat="43.7212834" lon="15.9852417"><ele>203.0</ele><time>2026-05-05T06:42:55.606Z</time></trkpt><trkpt lat="43.7215285" lon="15.9850432"><ele>195.0</ele><time>2026-05-05T06:42:56.606Z</time></trkpt><trkpt lat="43.7217655" lon="15.984827"><ele>187.0</ele><time>2026-05-05T06:42:57.606Z</time></trkpt><trkpt lat="43.7220012" lon="15.9846081"><ele>187.0</ele><time>2026-05-05T06:42:58.605Z</time></trkpt><trkpt lat="43.722229" lon="15.9843798"><ele>187.0</ele><time>2026-05-05T06:42:59.606Z</time></trkpt><trkpt lat="43.7224545" lon="15.984149"><ele>189.5</ele><time>2026-05-05T06:43:00.606Z</time></trkpt><trkpt lat="43.7226773" lon="15.9839102"><ele>192.0</ele><time>2026-05-05T06:43:01.605Z</time></trkpt><trkpt lat="43.7228923" lon="15.9836681"><ele>192.0</ele><time>2026-05-05T06:43:02.606Z</time></trkpt><trkpt lat="43.7231067" lon="15.9834191"><ele>192.0</ele><time>2026-05-05T06:43:03.605Z</time></trkpt><trkpt lat="43.7233152" lon="15.983166"><ele>188.0</ele><time>2026-05-05T06:43:04.605Z</time></trkpt><trkpt lat="43.7235167" lon="15.9829057"><ele>184.0</ele><time>2026-05-05T06:43:05.606Z</time></trkpt><trkpt lat="43.7237203" lon="15.9826359"><ele>188.0</ele><time>2026-05-05T06:43:06.606Z</time></trkpt><trkpt lat="43.7239188" lon="15.9823694"><ele>192.0</ele><time>2026-05-05T06:43:07.606Z</time></trkpt><trkpt lat="43.7241163" lon="15.9820968"><ele>192.0</ele><time>2026-05-05T06:43:08.606Z</time></trkpt><trkpt lat="43.7243096" lon="15.9818305"><ele>192.0</ele><time>2026-05-05T06:43:09.605Z</time></trkpt><trkpt lat="43.7245048" lon="15.9815629"><ele>198.5</ele><time>2026-05-05T06:43:10.606Z</time></trkpt><trkpt lat="43.7246982" lon="15.9812976"><ele>205.0</ele><time>2026-05-05T06:43:11.605Z</time></trkpt><trkpt lat="43.7248989" lon="15.9810291"><ele>204.0</ele><time>2026-05-05T06:43:12.605Z</time></trkpt><trkpt lat="43.7250964" lon="15.9807679"><ele>203.0</ele><time>2026-05-05T06:43:13.606Z</time></trkpt><trkpt lat="43.7252952" lon="15.9805141"><ele>203.0</ele><time>2026-05-05T06:43:14.606Z</time></trkpt><trkpt lat="43.7254987" lon="15.9802556"><ele>203.0</ele><time>2026-05-05T06:43:15.605Z</time></trkpt><trkpt lat="43.7257039" lon="15.9800274"><ele>200.5</ele><time>2026-05-05T06:43:16.606Z</time></trkpt><trkpt lat="43.7259248" lon="15.9797818"><ele>198.0</ele><time>2026-05-05T06:43:17.605Z</time></trkpt><trkpt lat="43.7261417" lon="15.9795428"><ele>198.0</ele><time>2026-05-05T06:43:18.606Z</time></trkpt><trkpt lat="43.7263675" lon="15.97931"><ele>198.0</ele><time>2026-05-05T06:43:19.606Z</time></trkpt><trkpt lat="43.7265891" lon="15.979082"><ele>193.5</ele><time>2026-05-05T06:43:20.606Z</time></trkpt><trkpt lat="43.7268118" lon="15.9788678"><ele>189.0</ele><time>2026-05-05T06:43:21.606Z</time></trkpt><trkpt lat="43.7270367" lon="15.9786574"><ele>189.0</ele><time>2026-05-05T06:43:22.606Z</time></trkpt><trkpt lat="43.727251" lon="15.9784645"><ele>189.0</ele><time>2026-05-05T06:43:23.606Z</time></trkpt><trkpt lat="43.7274706" lon="15.9782708"><ele>185.0</ele><time>2026-05-05T06:43:24.605Z</time></trkpt><trkpt lat="43.7276974" lon="15.9780729"><ele>181.0</ele><time>2026-05-05T06:43:25.606Z</time></trkpt><trkpt lat="43.7279241" lon="15.9778813"><ele>178.0</ele><time>2026-05-05T06:43:26.606Z</time></trkpt><trkpt lat="43.7281443" lon="15.9776867"><ele>175.0</ele><time>2026-05-05T06:43:27.606Z</time></trkpt><trkpt lat="43.7283731" lon="15.9774969"><ele>181.0</ele><time>2026-05-05T06:43:28.606Z</time></trkpt><trkpt lat="43.7286036" lon="15.9773005"><ele>187.0</ele><time>2026-05-05T06:43:29.605Z</time></trkpt><trkpt lat="43.7288296" lon="15.9771109"><ele>187.0</ele><time>2026-05-05T06:43:30.605Z</time></trkpt><trkpt lat="43.7290542" lon="15.9769111"><ele>187.0</ele><time>2026-05-05T06:43:31.606Z</time></trkpt><trkpt lat="43.7292868" lon="15.9767021"><ele>193.5</ele><time>2026-05-05T06:43:32.605Z</time></trkpt><trkpt lat="43.7295137" lon="15.9764965"><ele>200.0</ele><time>2026-05-05T06:43:33.606Z</time></trkpt><trkpt lat="43.7297373" lon="15.97629"><ele>200.0</ele><time>2026-05-05T06:43:34.606Z</time></trkpt><trkpt lat="43.7299628" lon="15.9760631"><ele>200.0</ele><time>2026-05-05T06:43:35.605Z</time></trkpt><trkpt lat="43.7301892" lon="15.9758288"><ele>197.5</ele><time>2026-05-05T06:43:36.606Z</time></trkpt><trkpt lat="43.7304146" lon="15.9755951"><ele>195.0</ele><time>2026-05-05T06:43:37.605Z</time></trkpt><trkpt lat="43.7306489" lon="15.975314"><ele>195.0</ele><time>2026-05-05T06:43:38.605Z</time></trkpt><trkpt lat="43.7308784" lon="15.9750364"><ele>195.0</ele><time>2026-05-05T06:43:39.605Z</time></trkpt><trkpt lat="43.7311106" lon="15.9747597"><ele>190.0</ele><time>2026-05-05T06:43:40.606Z</time></trkpt><trkpt lat="43.7313422" lon="15.9744864"><ele>185.0</ele><time>2026-05-05T06:43:41.606Z</time></trkpt><trkpt lat="43.731576" lon="15.9742117"><ele>184.0</ele><time>2026-05-05T06:43:42.605Z</time></trkpt><trkpt lat="43.7318079" lon="15.9739411"><ele>183.0</ele><time>2026-05-05T06:43:43.605Z</time></trkpt><trkpt lat="43.732041" lon="15.9736728"><ele>183.0</ele><time>2026-05-05T06:43:44.605Z</time></trkpt><trkpt lat="43.7322746" lon="15.973416"><ele>183.0</ele><time>2026-05-05T06:43:45.606Z</time></trkpt><trkpt lat="43.7325037" lon="15.9731628"><ele>181.5</ele><time>2026-05-05T06:43:46.605Z</time></trkpt><trkpt lat="43.7327279" lon="15.9729046"><ele>180.0</ele><time>2026-05-05T06:43:47.605Z</time></trkpt><trkpt lat="43.7329594" lon="15.9726536"><ele>179.5</ele><time>2026-05-05T06:43:48.605Z</time></trkpt><trkpt lat="43.7331846" lon="15.972402"><ele>179.0</ele><time>2026-05-05T06:43:49.605Z</time></trkpt><trkpt lat="43.7334064" lon="15.9721555"><ele>173.5</ele><time>2026-05-05T06:43:50.605Z</time></trkpt><trkpt lat="43.7336272" lon="15.9719111"><ele>168.0</ele><time>2026-05-05T06:43:51.606Z</time></trkpt><trkpt lat="43.7338478" lon="15.9716734"><ele>166.0</ele><time>2026-05-05T06:43:52.606Z</time></trkpt><trkpt lat="43.7340725" lon="15.9714417"><ele>164.0</ele><time>2026-05-05T06:43:53.606Z</time></trkpt><trkpt lat="43.7342975" lon="15.9712167"><ele>167.0</ele><time>2026-05-05T06:43:54.605Z</time></trkpt><trkpt lat="43.7345185" lon="15.970994"><ele>170.0</ele><time>2026-05-05T06:43:55.606Z</time></trkpt><trkpt lat="43.7347465" lon="15.9707722"><ele>170.0</ele><time>2026-05-05T06:43:56.606Z</time></trkpt><trkpt lat="43.734971" lon="15.9705547"><ele>170.0</ele><time>2026-05-05T06:43:57.606Z</time></trkpt><trkpt lat="43.7352001" lon="15.9703395"><ele>177.5</ele><time>2026-05-05T06:43:58.605Z</time></trkpt><trkpt lat="43.7354317" lon="15.9701294"><ele>185.0</ele><time>2026-05-05T06:43:59.605Z</time></trkpt><trkpt lat="43.735673" lon="15.9699201"><ele>185.0</ele><time>2026-05-05T06:44:00.606Z</time></trkpt><trkpt lat="43.7359054" lon="15.9697126"><ele>185.0</ele><time>2026-05-05T06:44:01.606Z</time></trkpt><trkpt lat="43.736144" lon="15.9695116"><ele>188.5</ele><time>2026-05-05T06:44:02.606Z</time></trkpt><trkpt lat="43.7363891" lon="15.9692982"><ele>192.0</ele><time>2026-05-05T06:44:03.605Z</time></trkpt><trkpt lat="43.7366281" lon="15.9691063"><ele>192.0</ele><time>2026-05-05T06:44:04.606Z</time></trkpt><trkpt lat="43.736867" lon="15.9689221"><ele>192.0</ele><time>2026-05-05T06:44:05.606Z</time></trkpt><trkpt lat="43.7371125" lon="15.968734"><ele>194.0</ele><time>2026-05-05T06:44:06.605Z</time></trkpt><trkpt lat="43.7373743" lon="15.9685362"><ele>196.0</ele><time>2026-05-05T06:44:07.605Z</time></trkpt><trkpt lat="43.7376195" lon="15.9683531"><ele>192.0</ele><time>2026-05-05T06:44:08.606Z</time></trkpt><trkpt lat="43.7378696" lon="15.9681646"><ele>188.0</ele><time>2026-05-05T06:44:09.606Z</time></trkpt><trkpt lat="43.7381199" lon="15.9679935"><ele>188.0</ele><time>2026-05-05T06:44:10.606Z</time></trkpt><trkpt lat="43.7383684" lon="15.9678172"><ele>188.0</ele><time>2026-05-05T06:44:11.605Z</time></trkpt><trkpt lat="43.7386207" lon="15.9676448"><ele>188.0</ele><time>2026-05-05T06:44:12.605Z</time></trkpt><trkpt lat="43.7388802" lon="15.9674698"><ele>188.0</ele><time>2026-05-05T06:44:13.605Z</time></trkpt><trkpt lat="43.7391419" lon="15.9672905"><ele>188.5</ele><time>2026-05-05T06:44:14.605Z</time></trkpt><trkpt lat="43.739397" lon="15.9671192"><ele>189.0</ele><time>2026-05-05T06:44:15.606Z</time></trkpt><trkpt lat="43.7396548" lon="15.9669425"><ele>189.0</ele><time>2026-05-05T06:44:16.605Z</time></trkpt><trkpt lat="43.7399128" lon="15.9667655"><ele>189.0</ele><time>2026-05-05T06:44:17.605Z</time></trkpt><trkpt lat="43.7401718" lon="15.966582"><ele>187.0</ele><time>2026-05-05T06:44:18.605Z</time></trkpt><trkpt lat="43.7404211" lon="15.9663916"><ele>185.0</ele><time>2026-05-05T06:44:19.606Z</time></trkpt><trkpt lat="43.7406705" lon="15.9661914"><ele>185.0</ele><time>2026-05-05T06:44:20.605Z</time></trkpt><trkpt lat="43.740918" lon="15.9659868"><ele>185.0</ele><time>2026-05-05T06:44:21.605Z</time></trkpt><trkpt lat="43.74117" lon="15.9657715"><ele>183.0</ele><time>2026-05-05T06:44:22.605Z</time></trkpt><trkpt lat="43.7414098" lon="15.9655502"><ele>181.0</ele><time>2026-05-05T06:44:23.605Z</time></trkpt><trkpt lat="43.7416487" lon="15.9653114"><ele>180.5</ele><time>2026-05-05T06:44:24.606Z</time></trkpt><trkpt lat="43.7418825" lon="15.9650642"><ele>180.0</ele><time>2026-05-05T06:44:25.605Z</time></trkpt><trkpt lat="43.7421139" lon="15.9648163"><ele>180.0</ele><time>2026-05-05T06:44:26.605Z</time></trkpt><trkpt lat="43.7423421" lon="15.9645523"><ele>180.0</ele><time>2026-05-05T06:44:27.605Z</time></trkpt><trkpt lat="43.7425655" lon="15.9642777"><ele>183.0</ele><time>2026-05-05T06:44:28.606Z</time></trkpt><trkpt lat="43.7427818" lon="15.964001"><ele>186.0</ele><time>2026-05-05T06:44:29.605Z</time></trkpt><trkpt lat="43.7429957" lon="15.9637127"><ele>186.0</ele><time>2026-05-05T06:44:30.605Z</time></trkpt><trkpt lat="43.7432045" lon="15.9634199"><ele>186.0</ele><time>2026-05-05T06:44:31.605Z</time></trkpt><trkpt lat="43.7434092" lon="15.9631168"><ele>187.0</ele><time>2026-05-05T06:44:32.606Z</time></trkpt><trkpt lat="43.7436048" lon="15.9628061"><ele>188.0</ele><time>2026-05-05T06:44:33.606Z</time></trkpt><trkpt lat="43.7437914" lon="15.9624904"><ele>184.0</ele><time>2026-05-05T06:44:34.605Z</time></trkpt><trkpt lat="43.743976" lon="15.9621666"><ele>180.0</ele><time>2026-05-05T06:44:35.606Z</time></trkpt><trkpt lat="43.7441569" lon="15.9618401"><ele>178.5</ele><time>2026-05-05T06:44:36.606Z</time></trkpt><trkpt lat="43.7443368" lon="15.9615163"><ele>177.0</ele><time>2026-05-05T06:44:37.605Z</time></trkpt><trkpt lat="43.7445179" lon="15.9611913"><ele>180.0</ele><time>2026-05-05T06:44:38.606Z</time></trkpt><trkpt lat="43.744702" lon="15.9608537"><ele>183.0</ele><time>2026-05-05T06:44:39.606Z</time></trkpt><trkpt lat="43.7448834" lon="15.9605288"><ele>183.0</ele><time>2026-05-05T06:44:40.606Z</time></trkpt><trkpt lat="43.7450741" lon="15.9602036"><ele>183.0</ele><time>2026-05-05T06:44:41.606Z</time></trkpt><trkpt lat="43.7452649" lon="15.9598789"><ele>184.5</ele><time>2026-05-05T06:44:42.605Z</time></trkpt><trkpt lat="43.7454589" lon="15.9595554"><ele>186.0</ele><time>2026-05-05T06:44:43.606Z</time></trkpt><trkpt lat="43.7456598" lon="15.9592418"><ele>185.0</ele><time>2026-05-05T06:44:44.605Z</time></trkpt><trkpt lat="43.7458662" lon="15.9589373"><ele>184.0</ele><time>2026-05-05T06:44:45.606Z</time></trkpt><trkpt lat="43.7460707" lon="15.9586442"><ele>180.5</ele><time>2026-05-05T06:44:46.606Z</time></trkpt><trkpt lat="43.7462812" lon="15.958351"><ele>177.0</ele><time>2026-05-05T06:44:47.606Z</time></trkpt><trkpt lat="43.7465027" lon="15.9580522"><ele>177.0</ele><time>2026-05-05T06:44:48.606Z</time></trkpt><trkpt lat="43.7467244" lon="15.9577687"><ele>177.0</ele><time>2026-05-05T06:44:49.606Z</time></trkpt><trkpt lat="43.7469479" lon="15.957485"><ele>178.5</ele><time>2026-05-05T06:44:50.604Z</time></trkpt><trkpt lat="43.7471693" lon="15.9572"><ele>180.0</ele><time>2026-05-05T06:44:51.605Z</time></trkpt><trkpt lat="43.7473879" lon="15.9569193"><ele>178.5</ele><time>2026-05-05T06:44:52.606Z</time></trkpt><trkpt lat="43.7476084" lon="15.9566351"><ele>177.0</ele><time>2026-05-05T06:44:53.606Z</time></trkpt><trkpt lat="43.7478323" lon="15.9563477"><ele>177.5</ele><time>2026-05-05T06:44:54.605Z</time></trkpt><trkpt lat="43.7480445" lon="15.9560738"><ele>178.0</ele><time>2026-05-05T06:44:55.606Z</time></trkpt><trkpt lat="43.7482664" lon="15.9557797"><ele>178.0</ele><time>2026-05-05T06:44:56.605Z</time></trkpt><trkpt lat="43.7484854" lon="15.9554874"><ele>178.0</ele><time>2026-05-05T06:44:57.606Z</time></trkpt><trkpt lat="43.7486986" lon="15.9551845"><ele>178.5</ele><time>2026-05-05T06:44:58.605Z</time></trkpt><trkpt lat="43.7489123" lon="15.9548911"><ele>179.0</ele><time>2026-05-05T06:44:59.606Z</time></trkpt><trkpt lat="43.7491238" lon="15.9545822"><ele>179.0</ele><time>2026-05-05T06:45:00.605Z</time></trkpt><trkpt lat="43.7493287" lon="15.9542705"><ele>179.0</ele><time>2026-05-05T06:45:01.606Z</time></trkpt><trkpt lat="43.7495301" lon="15.9539578"><ele>178.0</ele><time>2026-05-05T06:45:02.605Z</time></trkpt><trkpt lat="43.749736" lon="15.9536395"><ele>177.0</ele><time>2026-05-05T06:45:03.605Z</time></trkpt><trkpt lat="43.7499345" lon="15.9533223"><ele>178.5</ele><time>2026-05-05T06:45:04.606Z</time></trkpt><trkpt lat="43.7501313" lon="15.9529984"><ele>180.0</ele><time>2026-05-05T06:45:05.605Z</time></trkpt><trkpt lat="43.7503252" lon="15.9526754"><ele>177.0</ele><time>2026-05-05T06:45:06.606Z</time></trkpt><trkpt lat="43.7505173" lon="15.9523498"><ele>174.0</ele><time>2026-05-05T06:45:07.605Z</time></trkpt><trkpt lat="43.7507036" lon="15.9520218"><ele>172.0</ele><time>2026-05-05T06:45:08.605Z</time></trkpt><trkpt lat="43.7508856" lon="15.9516938"><ele>170.0</ele><time>2026-05-05T06:45:09.606Z</time></trkpt><trkpt lat="43.7510626" lon="15.9513648"><ele>172.5</ele><time>2026-05-05T06:45:10.605Z</time></trkpt><trkpt lat="43.7512388" lon="15.951022"><ele>175.0</ele><time>2026-05-05T06:45:11.605Z</time></trkpt><trkpt lat="43.7514054" lon="15.9506922"><ele>175.0</ele><time>2026-05-05T06:45:12.606Z</time></trkpt><trkpt lat="43.7515745" lon="15.9503552"><ele>175.0</ele><time>2026-05-05T06:45:13.606Z</time></trkpt><trkpt lat="43.7517383" lon="15.9500151"><ele>177.5</ele><time>2026-05-05T06:45:14.606Z</time></trkpt><trkpt lat="43.7518998" lon="15.9496752"><ele>180.0</ele><time>2026-05-05T06:45:15.605Z</time></trkpt><trkpt lat="43.7520632" lon="15.9493341"><ele>176.5</ele><time>2026-05-05T06:45:16.606Z</time></trkpt><trkpt lat="43.7522166" lon="15.9489863"><ele>173.0</ele><time>2026-05-05T06:45:17.606Z</time></trkpt><trkpt lat="43.7523689" lon="15.9486444"><ele>169.0</ele><time>2026-05-05T06:45:18.606Z</time></trkpt><trkpt lat="43.7525171" lon="15.9483037"><ele>165.0</ele><time>2026-05-05T06:45:19.606Z</time></trkpt><trkpt lat="43.7526682" lon="15.9479637"><ele>166.0</ele><time>2026-05-05T06:45:20.605Z</time></trkpt><trkpt lat="43.7528184" lon="15.9476251"><ele>167.0</ele><time>2026-05-05T06:45:21.605Z</time></trkpt><trkpt lat="43.7529658" lon="15.947286"><ele>167.0</ele><time>2026-05-05T06:45:22.605Z</time></trkpt><trkpt lat="43.7531159" lon="15.9469456"><ele>167.0</ele><time>2026-05-05T06:45:23.606Z</time></trkpt><trkpt lat="43.7532705" lon="15.9466077"><ele>164.0</ele><time>2026-05-05T06:45:24.605Z</time></trkpt><trkpt lat="43.7534258" lon="15.9462702"><ele>161.0</ele><time>2026-05-05T06:45:25.606Z</time></trkpt><trkpt lat="43.7535858" lon="15.945941"><ele>164.5</ele><time>2026-05-05T06:45:26.605Z</time></trkpt><trkpt lat="43.7537439" lon="15.9456216"><ele>168.0</ele><time>2026-05-05T06:45:27.606Z</time></trkpt><trkpt lat="43.7539175" lon="15.9452938"><ele>166.5</ele><time>2026-05-05T06:45:28.606Z</time></trkpt><trkpt lat="43.7540842" lon="15.9449784"><ele>165.0</ele><time>2026-05-05T06:45:29.606Z</time></trkpt><trkpt lat="43.7542633" lon="15.9446672"><ele>168.5</ele><time>2026-05-05T06:45:30.606Z</time></trkpt><trkpt lat="43.7544403" lon="15.9443662"><ele>172.0</ele><time>2026-05-05T06:45:31.606Z</time></trkpt><trkpt lat="43.754633" lon="15.9440542"><ele>172.0</ele><time>2026-05-05T06:45:32.605Z</time></trkpt><trkpt lat="43.754837" lon="15.9437591"><ele>172.0</ele><time>2026-05-05T06:45:33.606Z</time></trkpt><trkpt lat="43.7550369" lon="15.9434904"><ele>173.0</ele><time>2026-05-05T06:45:34.605Z</time></trkpt><trkpt lat="43.7552466" lon="15.9432256"><ele>174.0</ele><time>2026-05-05T06:45:35.606Z</time></trkpt><trkpt lat="43.7554545" lon="15.9429693"><ele>174.0</ele><time>2026-05-05T06:45:36.605Z</time></trkpt><trkpt lat="43.7556971" lon="15.942702"><ele>174.0</ele><time>2026-05-05T06:45:37.605Z</time></trkpt><trkpt lat="43.755921" lon="15.9424504"><ele>175.0</ele><time>2026-05-05T06:45:38.606Z</time></trkpt><trkpt lat="43.7561532" lon="15.9421812"><ele>176.0</ele><time>2026-05-05T06:45:39.605Z</time></trkpt><trkpt lat="43.7563956" lon="15.941929"><ele>176.5</ele><time>2026-05-05T06:45:40.606Z</time></trkpt><trkpt lat="43.7566351" lon="15.9416843"><ele>177.0</ele><time>2026-05-05T06:45:41.605Z</time></trkpt><trkpt lat="43.756875" lon="15.9414528"><ele>177.0</ele><time>2026-05-05T06:45:42.606Z</time></trkpt><trkpt lat="43.7571174" lon="15.9412109"><ele>177.0</ele><time>2026-05-05T06:45:43.606Z</time></trkpt><trkpt lat="43.7573565" lon="15.9409682"><ele>175.5</ele><time>2026-05-05T06:45:44.606Z</time></trkpt><trkpt lat="43.7576008" lon="15.9407249"><ele>174.0</ele><time>2026-05-05T06:45:45.606Z</time></trkpt><trkpt lat="43.7578344" lon="15.9404774"><ele>174.0</ele><time>2026-05-05T06:45:46.605Z</time></trkpt><trkpt lat="43.7580682" lon="15.9402275"><ele>174.0</ele><time>2026-05-05T06:45:47.605Z</time></trkpt><trkpt lat="43.7583016" lon="15.9399722"><ele>174.0</ele><time>2026-05-05T06:45:48.606Z</time></trkpt><trkpt lat="43.7585299" lon="15.9397115"><ele>174.0</ele><time>2026-05-05T06:45:49.605Z</time></trkpt><trkpt lat="43.7587459" lon="15.9394468"><ele>165.5</ele><time>2026-05-05T06:45:50.606Z</time></trkpt><trkpt lat="43.7589674" lon="15.9391756"><ele>157.0</ele><time>2026-05-05T06:45:51.605Z</time></trkpt><trkpt lat="43.7591845" lon="15.9388955"><ele>158.0</ele><time>2026-05-05T06:45:52.606Z</time></trkpt><trkpt lat="43.7593987" lon="15.9386096"><ele>159.0</ele><time>2026-05-05T06:45:53.606Z</time></trkpt><trkpt lat="43.7596088" lon="15.9383245"><ele>159.0</ele><time>2026-05-05T06:45:54.606Z</time></trkpt><trkpt lat="43.7598165" lon="15.9380381"><ele>159.0</ele><time>2026-05-05T06:45:55.606Z</time></trkpt><trkpt lat="43.760029" lon="15.937757"><ele>159.5</ele><time>2026-05-05T06:45:56.605Z</time></trkpt><trkpt lat="43.7602388" lon="15.9374768"><ele>160.0</ele><time>2026-05-05T06:45:57.606Z</time></trkpt><trkpt lat="43.7604562" lon="15.9371982"><ele>160.0</ele><time>2026-05-05T06:45:58.606Z</time></trkpt><trkpt lat="43.760684" lon="15.9369368"><ele>160.0</ele><time>2026-05-05T06:45:59.605Z</time></trkpt><trkpt lat="43.7608989" lon="15.9366707"><ele>161.5</ele><time>2026-05-05T06:46:00.606Z</time></trkpt><trkpt lat="43.7611314" lon="15.9364249"><ele>163.0</ele><time>2026-05-05T06:46:01.605Z</time></trkpt><trkpt lat="43.7613622" lon="15.9361961"><ele>163.0</ele><time>2026-05-05T06:46:02.605Z</time></trkpt><trkpt lat="43.7615976" lon="15.9359603"><ele>163.0</ele><time>2026-05-05T06:46:03.605Z</time></trkpt><trkpt lat="43.7618461" lon="15.9357543"><ele>157.5</ele><time>2026-05-05T06:46:04.605Z</time></trkpt><trkpt lat="43.7620879" lon="15.9355576"><ele>152.0</ele><time>2026-05-05T06:46:05.605Z</time></trkpt><trkpt lat="43.7623399" lon="15.9353576"><ele>152.0</ele><time>2026-05-05T06:46:06.606Z</time></trkpt><trkpt lat="43.7626022" lon="15.9351644"><ele>152.0</ele><time>2026-05-05T06:46:07.606Z</time></trkpt><trkpt lat="43.7628673" lon="15.9349776"><ele>145.0</ele><time>2026-05-05T06:46:08.606Z</time></trkpt><trkpt lat="43.7631349" lon="15.9348042"><ele>138.0</ele><time>2026-05-05T06:46:09.605Z</time></trkpt><trkpt lat="43.763407" lon="15.9346436"><ele>137.0</ele><time>2026-05-05T06:46:10.605Z</time></trkpt><trkpt lat="43.7636841" lon="15.9345001"><ele>136.0</ele><time>2026-05-05T06:46:11.606Z</time></trkpt><trkpt lat="43.7639614" lon="15.9343721"><ele>136.0</ele><time>2026-05-05T06:46:12.606Z</time></trkpt><trkpt lat="43.7642416" lon="15.9342591"><ele>136.0</ele><time>2026-05-05T06:46:13.606Z</time></trkpt><trkpt lat="43.7645231" lon="15.9341579"><ele>132.0</ele><time>2026-05-05T06:46:14.605Z</time></trkpt><trkpt lat="43.764808" lon="15.9340518"><ele>128.0</ele><time>2026-05-05T06:46:15.606Z</time></trkpt><trkpt lat="43.7650916" lon="15.9339431"><ele>126.0</ele><time>2026-05-05T06:46:16.606Z</time></trkpt><trkpt lat="43.765377" lon="15.9338381"><ele>124.0</ele><time>2026-05-05T06:46:17.606Z</time></trkpt><trkpt lat="43.7656583" lon="15.9337253"><ele>124.0</ele><time>2026-05-05T06:46:18.606Z</time></trkpt><trkpt lat="43.7659399" lon="15.933617"><ele>124.0</ele><time>2026-05-05T06:46:19.606Z</time></trkpt><trkpt lat="43.7662168" lon="15.9334958"><ele>120.0</ele><time>2026-05-05T06:46:20.606Z</time></trkpt><trkpt lat="43.7664905" lon="15.9333622"><ele>116.0</ele><time>2026-05-05T06:46:21.606Z</time></trkpt><trkpt lat="43.7667633" lon="15.9332206"><ele>116.5</ele><time>2026-05-05T06:46:22.605Z</time></trkpt><trkpt lat="43.7670318" lon="15.9330666"><ele>117.0</ele><time>2026-05-05T06:46:23.605Z</time></trkpt><trkpt lat="43.7672963" lon="15.9329056"><ele>117.0</ele><time>2026-05-05T06:46:24.605Z</time></trkpt><trkpt lat="43.7675567" lon="15.9327333"><ele>117.0</ele><time>2026-05-05T06:46:25.606Z</time></trkpt><trkpt lat="43.7678162" lon="15.9325477"><ele>116.5</ele><time>2026-05-05T06:46:26.606Z</time></trkpt><trkpt lat="43.7680714" lon="15.9323538"><ele>116.0</ele><time>2026-05-05T06:46:27.606Z</time></trkpt><trkpt lat="43.7683191" lon="15.9321437"><ele>116.5</ele><time>2026-05-05T06:46:28.605Z</time></trkpt><trkpt lat="43.768563" lon="15.9319201"><ele>117.0</ele><time>2026-05-05T06:46:29.605Z</time></trkpt><trkpt lat="43.7688046" lon="15.9316864"><ele>117.0</ele><time>2026-05-05T06:46:30.606Z</time></trkpt><trkpt lat="43.7690404" lon="15.9314375"><ele>117.0</ele><time>2026-05-05T06:46:31.605Z</time></trkpt><trkpt lat="43.7692689" lon="15.9311835"><ele>120.0</ele><time>2026-05-05T06:46:32.606Z</time></trkpt><trkpt lat="43.7694877" lon="15.9309173"><ele>123.0</ele><time>2026-05-05T06:46:33.605Z</time></trkpt><trkpt lat="43.769703" lon="15.93064"><ele>123.0</ele><time>2026-05-05T06:46:34.606Z</time></trkpt><trkpt lat="43.7699099" lon="15.9303548"><ele>123.0</ele><time>2026-05-05T06:46:35.606Z</time></trkpt><trkpt lat="43.7701128" lon="15.93006"><ele>127.5</ele><time>2026-05-05T06:46:36.606Z</time></trkpt><trkpt lat="43.7703085" lon="15.9297594"><ele>132.0</ele><time>2026-05-05T06:46:37.605Z</time></trkpt><trkpt lat="43.7704987" lon="15.9294589"><ele>125.5</ele><time>2026-05-05T06:46:38.605Z</time></trkpt><trkpt lat="43.7706963" lon="15.9291478"><ele>119.0</ele><time>2026-05-05T06:46:39.605Z</time></trkpt><trkpt lat="43.7708859" lon="15.9288458"><ele>121.0</ele><time>2026-05-05T06:46:40.606Z</time></trkpt><trkpt lat="43.7710539" lon="15.9285543"><ele>123.0</ele><time>2026-05-05T06:46:41.605Z</time></trkpt><trkpt lat="43.7712385" lon="15.9282489"><ele>123.0</ele><time>2026-05-05T06:46:42.606Z</time></trkpt><trkpt lat="43.7714276" lon="15.9279463"><ele>123.0</ele><time>2026-05-05T06:46:43.606Z</time></trkpt><trkpt lat="43.7716113" lon="15.9276484"><ele>125.0</ele><time>2026-05-05T06:46:44.606Z</time></trkpt><trkpt lat="43.7717994" lon="15.9273689"><ele>127.0</ele><time>2026-05-05T06:46:45.606Z</time></trkpt><trkpt lat="43.7720104" lon="15.9270862"><ele>127.0</ele><time>2026-05-05T06:46:46.606Z</time></trkpt><trkpt lat="43.7722201" lon="15.9268107"><ele>127.0</ele><time>2026-05-05T06:46:47.606Z</time></trkpt><trkpt lat="43.772432" lon="15.9265443"><ele>128.5</ele><time>2026-05-05T06:46:48.605Z</time></trkpt><trkpt lat="43.7726481" lon="15.926289"><ele>130.0</ele><time>2026-05-05T06:46:49.606Z</time></trkpt><trkpt lat="43.7728649" lon="15.9260392"><ele>122.5</ele><time>2026-05-05T06:46:50.605Z</time></trkpt><trkpt lat="43.7731216" lon="15.9258007"><ele>115.0</ele><time>2026-05-05T06:46:51.606Z</time></trkpt><trkpt lat="43.773353" lon="15.9255697"><ele>122.5</ele><time>2026-05-05T06:46:52.606Z</time></trkpt><trkpt lat="43.7735825" lon="15.9253599"><ele>130.0</ele><time>2026-05-05T06:46:53.605Z</time></trkpt><trkpt lat="43.7738105" lon="15.9251545"><ele>120.5</ele><time>2026-05-05T06:46:54.606Z</time></trkpt><trkpt lat="43.7740502" lon="15.9249625"><ele>111.0</ele><time>2026-05-05T06:46:55.606Z</time></trkpt><trkpt lat="43.7742889" lon="15.9247824"><ele>118.5</ele><time>2026-05-05T06:46:56.606Z</time></trkpt><trkpt lat="43.7745453" lon="15.9246217"><ele>126.0</ele><time>2026-05-05T06:46:57.606Z</time></trkpt><trkpt lat="43.7747983" lon="15.9244696"><ele>126.0</ele><time>2026-05-05T06:46:58.606Z</time></trkpt><trkpt lat="43.7750554" lon="15.9243182"><ele>126.0</ele><time>2026-05-05T06:46:59.605Z</time></trkpt><trkpt lat="43.7753142" lon="15.9241832"><ele>120.5</ele><time>2026-05-05T06:47:00.606Z</time></trkpt><trkpt lat="43.7755768" lon="15.9240573"><ele>115.0</ele><time>2026-05-05T06:47:01.605Z</time></trkpt><trkpt lat="43.7758437" lon="15.9239312"><ele>117.0</ele><time>2026-05-05T06:47:02.605Z</time></trkpt><trkpt lat="43.7761172" lon="15.9238142"><ele>119.0</ele><time>2026-05-05T06:47:03.605Z</time></trkpt><trkpt lat="43.7763823" lon="15.9236877"><ele>119.0</ele><time>2026-05-05T06:47:04.606Z</time></trkpt><trkpt lat="43.7766438" lon="15.9235664"><ele>119.0</ele><time>2026-05-05T06:47:05.606Z</time></trkpt><trkpt lat="43.7769091" lon="15.9234299"><ele>112.0</ele><time>2026-05-05T06:47:06.605Z</time></trkpt><trkpt lat="43.7771642" lon="15.9232935"><ele>105.0</ele><time>2026-05-05T06:47:07.606Z</time></trkpt><trkpt lat="43.7774228" lon="15.9231507"><ele>105.0</ele><time>2026-05-05T06:47:08.606Z</time></trkpt><trkpt lat="43.7776745" lon="15.9229999"><ele>105.0</ele><time>2026-05-05T06:47:09.606Z</time></trkpt><trkpt lat="43.77792" lon="15.9228449"><ele>105.0</ele><time>2026-05-05T06:47:10.606Z</time></trkpt><trkpt lat="43.7781576" lon="15.9226709"><ele>105.0</ele><time>2026-05-05T06:47:11.606Z</time></trkpt><trkpt lat="43.7783913" lon="15.9224887"><ele>102.0</ele><time>2026-05-05T06:47:12.605Z</time></trkpt><trkpt lat="43.77862" lon="15.9223002"><ele>99.0</ele><time>2026-05-05T06:47:13.606Z</time></trkpt><trkpt lat="43.7788522" lon="15.9221063"><ele>99.0</ele><time>2026-05-05T06:47:14.605Z</time></trkpt><trkpt lat="43.7790751" lon="15.921898"><ele>99.0</ele><time>2026-05-05T06:47:15.606Z</time></trkpt><trkpt lat="43.7793022" lon="15.9216866"><ele>100.5</ele><time>2026-05-05T06:47:16.606Z</time></trkpt><trkpt lat="43.7795299" lon="15.9214645"><ele>102.0</ele><time>2026-05-05T06:47:17.605Z</time></trkpt><trkpt lat="43.7797519" lon="15.9212413"><ele>102.0</ele><time>2026-05-05T06:47:18.606Z</time></trkpt><trkpt lat="43.7799789" lon="15.9210206"><ele>102.0</ele><time>2026-05-05T06:47:19.605Z</time></trkpt><trkpt lat="43.7802048" lon="15.9207992"><ele>103.0</ele><time>2026-05-05T06:47:20.605Z</time></trkpt><trkpt lat="43.780433" lon="15.9205793"><ele>104.0</ele><time>2026-05-05T06:47:21.606Z</time></trkpt><trkpt lat="43.7806638" lon="15.9203614"><ele>104.0</ele><time>2026-05-05T06:47:22.605Z</time></trkpt><trkpt lat="43.7808995" lon="15.9201553"><ele>104.0</ele><time>2026-05-05T06:47:23.605Z</time></trkpt><trkpt lat="43.7811398" lon="15.919967"><ele>104.5</ele><time>2026-05-05T06:47:24.606Z</time></trkpt><trkpt lat="43.7813845" lon="15.9197838"><ele>105.0</ele><time>2026-05-05T06:47:25.606Z</time></trkpt><trkpt lat="43.7816388" lon="15.9196139"><ele>111.5</ele><time>2026-05-05T06:47:26.605Z</time></trkpt><trkpt lat="43.7819098" lon="15.9194289"><ele>118.0</ele><time>2026-05-05T06:47:27.605Z</time></trkpt><trkpt lat="43.7821874" lon="15.9192628"><ele>116.5</ele><time>2026-05-05T06:47:28.606Z</time></trkpt><trkpt lat="43.7824538" lon="15.919119"><ele>115.0</ele><time>2026-05-05T06:47:29.606Z</time></trkpt><trkpt lat="43.7827158" lon="15.9189983"><ele>115.0</ele><time>2026-05-05T06:47:30.605Z</time></trkpt><trkpt lat="43.7829799" lon="15.9188816"><ele>115.0</ele><time>2026-05-05T06:47:31.606Z</time></trkpt><trkpt lat="43.7832702" lon="15.9187598"><ele>114.5</ele><time>2026-05-05T06:47:32.606Z</time></trkpt><trkpt lat="43.7835537" lon="15.9186572"><ele>114.0</ele><time>2026-05-05T06:47:33.605Z</time></trkpt><trkpt lat="43.7838468" lon="15.9185601"><ele>114.0</ele><time>2026-05-05T06:47:34.606Z</time></trkpt><trkpt lat="43.7841298" lon="15.9184931"><ele>114.0</ele><time>2026-05-05T06:47:35.605Z</time></trkpt><trkpt lat="43.7844178" lon="15.91844"><ele>86.5</ele><time>2026-05-05T06:47:36.606Z</time></trkpt><trkpt lat="43.7847111" lon="15.9183988"><ele>59.0</ele><time>2026-05-05T06:47:37.606Z</time></trkpt><trkpt lat="43.784984" lon="15.9183718"><ele>56.5</ele><time>2026-05-05T06:47:38.606Z</time></trkpt><trkpt lat="43.7852734" lon="15.9183543"><ele>54.0</ele><time>2026-05-05T06:47:39.606Z</time></trkpt><trkpt lat="43.7855575" lon="15.918349"><ele>54.0</ele><time>2026-05-05T06:47:40.606Z</time></trkpt><trkpt lat="43.7858474" lon="15.918353"><ele>54.0</ele><time>2026-05-05T06:47:41.605Z</time></trkpt><trkpt lat="43.7861331" lon="15.9183714"><ele>54.5</ele><time>2026-05-05T06:47:42.606Z</time></trkpt><trkpt lat="43.7864173" lon="15.9184071"><ele>55.0</ele><time>2026-05-05T06:47:43.605Z</time></trkpt><trkpt lat="43.7866966" lon="15.9184501"><ele>69.0</ele><time>2026-05-05T06:47:44.605Z</time></trkpt><trkpt lat="43.7869753" lon="15.9185075"><ele>83.0</ele><time>2026-05-05T06:47:45.605Z</time></trkpt><trkpt lat="43.7872522" lon="15.9185725"><ele>83.0</ele><time>2026-05-05T06:47:46.605Z</time></trkpt><trkpt lat="43.7875284" lon="15.9186503"><ele>83.0</ele><time>2026-05-05T06:47:47.606Z</time></trkpt><trkpt lat="43.7877982" lon="15.9187416"><ele>88.0</ele><time>2026-05-05T06:47:48.606Z</time></trkpt><trkpt lat="43.7880737" lon="15.9188341"><ele>93.0</ele><time>2026-05-05T06:47:49.605Z</time></trkpt><trkpt lat="43.7883442" lon="15.9189288"><ele>91.5</ele><time>2026-05-05T06:47:50.605Z</time></trkpt><trkpt lat="43.7886157" lon="15.9190137"><ele>90.0</ele><time>2026-05-05T06:47:51.605Z</time></trkpt><trkpt lat="43.7888918" lon="15.9190841"><ele>90.0</ele><time>2026-05-05T06:47:52.605Z</time></trkpt><trkpt lat="43.7891662" lon="15.919157"><ele>90.0</ele><time>2026-05-05T06:47:53.606Z</time></trkpt><trkpt lat="43.7894425" lon="15.9192292"><ele>87.5</ele><time>2026-05-05T06:47:54.606Z</time></trkpt><trkpt lat="43.7897147" lon="15.9192876"><ele>85.0</ele><time>2026-05-05T06:47:55.605Z</time></trkpt><trkpt lat="43.7899929" lon="15.9193344"><ele>84.0</ele><time>2026-05-05T06:47:56.605Z</time></trkpt><trkpt lat="43.7902755" lon="15.9193738"><ele>83.0</ele><time>2026-05-05T06:47:57.606Z</time></trkpt><trkpt lat="43.7905601" lon="15.9193948"><ele>83.0</ele><time>2026-05-05T06:47:58.605Z</time></trkpt><trkpt lat="43.7908424" lon="15.9194106"><ele>83.0</ele><time>2026-05-05T06:47:59.605Z</time></trkpt><trkpt lat="43.7911262" lon="15.9194137"><ele>82.0</ele><time>2026-05-05T06:48:00.605Z</time></trkpt><trkpt lat="43.7914122" lon="15.9194076"><ele>81.0</ele><time>2026-05-05T06:48:01.605Z</time></trkpt><trkpt lat="43.791696" lon="15.9193914"><ele>81.0</ele><time>2026-05-05T06:48:02.605Z</time></trkpt><trkpt lat="43.7919797" lon="15.9193546"><ele>81.0</ele><time>2026-05-05T06:48:03.604Z</time></trkpt><trkpt lat="43.7922604" lon="15.9193102"><ele>81.0</ele><time>2026-05-05T06:48:04.606Z</time></trkpt><trkpt lat="43.7925368" lon="15.9192518"><ele>81.0</ele><time>2026-05-05T06:48:05.605Z</time></trkpt><trkpt lat="43.7928123" lon="15.919183"><ele>81.0</ele><time>2026-05-05T06:48:06.605Z</time></trkpt><trkpt lat="43.7930902" lon="15.9190984"><ele>81.0</ele><time>2026-05-05T06:48:07.606Z</time></trkpt><trkpt lat="43.793365" lon="15.9190039"><ele>83.0</ele><time>2026-05-05T06:48:08.606Z</time></trkpt><trkpt lat="43.7936394" lon="15.9189002"><ele>85.0</ele><time>2026-05-05T06:48:09.605Z</time></trkpt><trkpt lat="43.7939149" lon="15.9187783"><ele>85.0</ele><time>2026-05-05T06:48:10.606Z</time></trkpt><trkpt lat="43.7941851" lon="15.9186571"><ele>85.0</ele><time>2026-05-05T06:48:11.605Z</time></trkpt><trkpt lat="43.7944541" lon="15.9185252"><ele>84.5</ele><time>2026-05-05T06:48:12.605Z</time></trkpt><trkpt lat="43.794726" lon="15.91838"><ele>84.0</ele><time>2026-05-05T06:48:13.606Z</time></trkpt><trkpt lat="43.7949989" lon="15.9182411"><ele>84.0</ele><time>2026-05-05T06:48:14.605Z</time></trkpt><trkpt lat="43.7952713" lon="15.9181042"><ele>84.0</ele><time>2026-05-05T06:48:15.606Z</time></trkpt><trkpt lat="43.7955411" lon="15.9179677"><ele>84.0</ele><time>2026-05-05T06:48:16.606Z</time></trkpt><trkpt lat="43.7958152" lon="15.917841"><ele>84.0</ele><time>2026-05-05T06:48:17.605Z</time></trkpt><trkpt lat="43.7960895" lon="15.9177221"><ele>85.0</ele><time>2026-05-05T06:48:18.605Z</time></trkpt><trkpt lat="43.7963639" lon="15.9176138"><ele>86.0</ele><time>2026-05-05T06:48:19.606Z</time></trkpt><trkpt lat="43.79664" lon="15.9175126"><ele>83.0</ele><time>2026-05-05T06:48:20.605Z</time></trkpt><trkpt lat="43.7969171" lon="15.9174268"><ele>80.0</ele><time>2026-05-05T06:48:21.606Z</time></trkpt><trkpt lat="43.7971946" lon="15.9173561"><ele>80.0</ele><time>2026-05-05T06:48:22.606Z</time></trkpt><trkpt lat="43.7974737" lon="15.9172954"><ele>80.0</ele><time>2026-05-05T06:48:23.605Z</time></trkpt><trkpt lat="43.7977567" lon="15.9172418"><ele>79.0</ele><time>2026-05-05T06:48:24.606Z</time></trkpt><trkpt lat="43.7980368" lon="15.9171982"><ele>78.0</ele><time>2026-05-05T06:48:25.606Z</time></trkpt><trkpt lat="43.7983166" lon="15.9171784"><ele>77.5</ele><time>2026-05-05T06:48:26.606Z</time></trkpt><trkpt lat="43.798596" lon="15.9171697"><ele>77.0</ele><time>2026-05-05T06:48:27.605Z</time></trkpt><trkpt lat="43.7988731" lon="15.9171691"><ele>77.0</ele><time>2026-05-05T06:48:28.606Z</time></trkpt><trkpt lat="43.7991516" lon="15.9171789"><ele>77.0</ele><time>2026-05-05T06:48:29.606Z</time></trkpt><trkpt lat="43.7994257" lon="15.9172036"><ele>77.0</ele><time>2026-05-05T06:48:30.605Z</time></trkpt><trkpt lat="43.7997024" lon="15.917241"><ele>77.0</ele><time>2026-05-05T06:48:31.606Z</time></trkpt><trkpt lat="43.7999765" lon="15.9172813"><ele>76.5</ele><time>2026-05-05T06:48:32.605Z</time></trkpt><trkpt lat="43.8002504" lon="15.9173268"><ele>76.0</ele><time>2026-05-05T06:48:33.605Z</time></trkpt><trkpt lat="43.8005221" lon="15.9173807"><ele>76.0</ele><time>2026-05-05T06:48:34.605Z</time></trkpt><trkpt lat="43.8007935" lon="15.9174394"><ele>76.0</ele><time>2026-05-05T06:48:35.605Z</time></trkpt><trkpt lat="43.8010623" lon="15.9174975"><ele>75.0</ele><time>2026-05-05T06:48:36.606Z</time></trkpt><trkpt lat="43.8013303" lon="15.9175533"><ele>74.0</ele><time>2026-05-05T06:48:37.606Z</time></trkpt><trkpt lat="43.8016" lon="15.917607"><ele>75.0</ele><time>2026-05-05T06:48:38.605Z</time></trkpt><trkpt lat="43.8018665" lon="15.9176555"><ele>76.0</ele><time>2026-05-05T06:48:39.605Z</time></trkpt><trkpt lat="43.8021367" lon="15.9176968"><ele>76.0</ele><time>2026-05-05T06:48:40.605Z</time></trkpt><trkpt lat="43.8024098" lon="15.9177342"><ele>76.0</ele><time>2026-05-05T06:48:41.606Z</time></trkpt><trkpt lat="43.8026778" lon="15.9177555"><ele>75.0</ele><time>2026-05-05T06:48:42.604Z</time></trkpt><trkpt lat="43.8029531" lon="15.9177655"><ele>74.0</ele><time>2026-05-05T06:48:43.605Z</time></trkpt><trkpt lat="43.8032253" lon="15.9177624"><ele>74.0</ele><time>2026-05-05T06:48:44.606Z</time></trkpt><trkpt lat="43.8034966" lon="15.9177449"><ele>74.0</ele><time>2026-05-05T06:48:45.606Z</time></trkpt><trkpt lat="43.8037668" lon="15.9177213"><ele>73.5</ele><time>2026-05-05T06:48:46.605Z</time></trkpt><trkpt lat="43.8040311" lon="15.9176845"><ele>73.0</ele><time>2026-05-05T06:48:47.605Z</time></trkpt><trkpt lat="43.8042976" lon="15.9176447"><ele>72.5</ele><time>2026-05-05T06:48:48.605Z</time></trkpt><trkpt lat="43.804564" lon="15.9175846"><ele>72.0</ele><time>2026-05-05T06:48:49.606Z</time></trkpt><trkpt lat="43.8048276" lon="15.9175179"><ele>70.5</ele><time>2026-05-05T06:48:50.605Z</time></trkpt><trkpt lat="43.8050893" lon="15.9174365"><ele>69.0</ele><time>2026-05-05T06:48:51.605Z</time></trkpt><trkpt lat="43.8053458" lon="15.9173487"><ele>68.5</ele><time>2026-05-05T06:48:52.605Z</time></trkpt><trkpt lat="43.8056026" lon="15.9172545"><ele>68.0</ele><time>2026-05-05T06:48:53.606Z</time></trkpt><trkpt lat="43.8058543" lon="15.9171499"><ele>68.0</ele><time>2026-05-05T06:48:54.606Z</time></trkpt><trkpt lat="43.8061042" lon="15.9170409"><ele>68.0</ele><time>2026-05-05T06:48:55.604Z</time></trkpt><trkpt lat="43.8063558" lon="15.9169286"><ele>68.0</ele><time>2026-05-05T06:48:56.606Z</time></trkpt><trkpt lat="43.8066" lon="15.9168087"><ele>68.0</ele><time>2026-05-05T06:48:57.606Z</time></trkpt><trkpt lat="43.8068461" lon="15.9166867"><ele>52.5</ele><time>2026-05-05T06:48:58.606Z</time></trkpt><trkpt lat="43.8070919" lon="15.9165633"><ele>37.0</ele><time>2026-05-05T06:48:59.605Z</time></trkpt><trkpt lat="43.8073392" lon="15.916442"><ele>37.0</ele><time>2026-05-05T06:49:00.605Z</time></trkpt><trkpt lat="43.8075819" lon="15.9163197"><ele>37.0</ele><time>2026-05-05T06:49:01.606Z</time></trkpt><trkpt lat="43.8078281" lon="15.9161989"><ele>20.5</ele><time>2026-05-05T06:49:02.606Z</time></trkpt><trkpt lat="43.8080713" lon="15.9160726"><ele>4.0</ele><time>2026-05-05T06:49:03.606Z</time></trkpt><trkpt lat="43.8083166" lon="15.9159495"><ele>6.5</ele><time>2026-05-05T06:49:04.605Z</time></trkpt><trkpt lat="43.8085623" lon="15.9158325"><ele>9.0</ele><time>2026-05-05T06:49:05.606Z</time></trkpt><trkpt lat="43.8088" lon="15.9157146"><ele>9.0</ele><time>2026-05-05T06:49:06.606Z</time></trkpt><trkpt lat="43.8090437" lon="15.9155934"><ele>9.0</ele><time>2026-05-05T06:49:07.605Z</time></trkpt><trkpt lat="43.8092862" lon="15.9154742"><ele>23.0</ele><time>2026-05-05T06:49:08.606Z</time></trkpt><trkpt lat="43.8095306" lon="15.9153551"><ele>37.0</ele><time>2026-05-05T06:49:09.606Z</time></trkpt><trkpt lat="43.8097765" lon="15.9152343"><ele>37.0</ele><time>2026-05-05T06:49:10.606Z</time></trkpt><trkpt lat="43.8100212" lon="15.9151139"><ele>37.0</ele><time>2026-05-05T06:49:11.604Z</time></trkpt><trkpt lat="43.8102687" lon="15.9149917"><ele>49.0</ele><time>2026-05-05T06:49:12.606Z</time></trkpt><trkpt lat="43.8105134" lon="15.9148749"><ele>61.0</ele><time>2026-05-05T06:49:13.606Z</time></trkpt><trkpt lat="43.8107609" lon="15.9147531"><ele>61.5</ele><time>2026-05-05T06:49:14.605Z</time></trkpt><trkpt lat="43.8110092" lon="15.9146275"><ele>62.0</ele><time>2026-05-05T06:49:15.605Z</time></trkpt><trkpt lat="43.8112567" lon="15.9145055"><ele>62.0</ele><time>2026-05-05T06:49:16.606Z</time></trkpt><trkpt lat="43.8115128" lon="15.9143811"><ele>62.0</ele><time>2026-05-05T06:49:17.605Z</time></trkpt><trkpt lat="43.8117678" lon="15.9142546"><ele>61.0</ele><time>2026-05-05T06:49:18.605Z</time></trkpt><trkpt lat="43.8120256" lon="15.9141239"><ele>60.0</ele><time>2026-05-05T06:49:19.605Z</time></trkpt><trkpt lat="43.8122876" lon="15.9139952"><ele>60.0</ele><time>2026-05-05T06:49:20.605Z</time></trkpt><trkpt lat="43.8125513" lon="15.9138674"><ele>60.0</ele><time>2026-05-05T06:49:21.605Z</time></trkpt><trkpt lat="43.8128155" lon="15.9137361"><ele>61.0</ele><time>2026-05-05T06:49:22.605Z</time></trkpt><trkpt lat="43.8130792" lon="15.9136045"><ele>62.0</ele><time>2026-05-05T06:49:23.606Z</time></trkpt><trkpt lat="43.8133483" lon="15.9134728"><ele>60.0</ele><time>2026-05-05T06:49:24.606Z</time></trkpt><trkpt lat="43.813619" lon="15.9133357"><ele>58.0</ele><time>2026-05-05T06:49:25.606Z</time></trkpt><trkpt lat="43.813882" lon="15.9131936"><ele>58.0</ele><time>2026-05-05T06:49:26.606Z</time></trkpt><trkpt lat="43.8141409" lon="15.9130528"><ele>58.0</ele><time>2026-05-05T06:49:27.605Z</time></trkpt><trkpt lat="43.8144008" lon="15.912899"><ele>58.5</ele><time>2026-05-05T06:49:28.605Z</time></trkpt><trkpt lat="43.8146544" lon="15.9127403"><ele>59.0</ele><time>2026-05-05T06:49:29.605Z</time></trkpt><trkpt lat="43.8149055" lon="15.9125654"><ele>59.0</ele><time>2026-05-05T06:49:30.605Z</time></trkpt><trkpt lat="43.8151522" lon="15.9123795"><ele>59.0</ele><time>2026-05-05T06:49:31.605Z</time></trkpt><trkpt lat="43.8153953" lon="15.9121892"><ele>59.0</ele><time>2026-05-05T06:49:32.605Z</time></trkpt><trkpt lat="43.8156362" lon="15.9119809"><ele>59.0</ele><time>2026-05-05T06:49:33.606Z</time></trkpt><trkpt lat="43.8158697" lon="15.9117702"><ele>59.0</ele><time>2026-05-05T06:49:34.606Z</time></trkpt><trkpt lat="43.8161045" lon="15.9115485"><ele>59.0</ele><time>2026-05-05T06:49:35.605Z</time></trkpt><trkpt lat="43.8163328" lon="15.9113277"><ele>59.0</ele><time>2026-05-05T06:49:36.605Z</time></trkpt><trkpt lat="43.8165595" lon="15.9111064"><ele>59.0</ele><time>2026-05-05T06:49:37.606Z</time></trkpt><trkpt lat="43.8167916" lon="15.910877"><ele>59.5</ele><time>2026-05-05T06:49:38.605Z</time></trkpt><trkpt lat="43.8170217" lon="15.9106484"><ele>60.0</ele><time>2026-05-05T06:49:39.604Z</time></trkpt><trkpt lat="43.8172487" lon="15.9104212"><ele>60.0</ele><time>2026-05-05T06:49:40.604Z</time></trkpt><trkpt lat="43.8174737" lon="15.9101918"><ele>60.0</ele><time>2026-05-05T06:49:41.605Z</time></trkpt><trkpt lat="43.8176974" lon="15.9099612"><ele>61.0</ele><time>2026-05-05T06:49:42.606Z</time></trkpt><trkpt lat="43.8179246" lon="15.9097277"><ele>62.0</ele><time>2026-05-05T06:49:43.605Z</time></trkpt><trkpt lat="43.818151" lon="15.9094961"><ele>62.0</ele><time>2026-05-05T06:49:44.605Z</time></trkpt><trkpt lat="43.8183768" lon="15.9092573"><ele>62.0</ele><time>2026-05-05T06:49:45.606Z</time></trkpt><trkpt lat="43.8185939" lon="15.9090152"><ele>63.0</ele><time>2026-05-05T06:49:46.605Z</time></trkpt><trkpt lat="43.8188175" lon="15.9087612"><ele>64.0</ele><time>2026-05-05T06:49:47.606Z</time></trkpt><trkpt lat="43.8190367" lon="15.9085027"><ele>63.0</ele><time>2026-05-05T06:49:48.605Z</time></trkpt><trkpt lat="43.8192535" lon="15.9082368"><ele>62.0</ele><time>2026-05-05T06:49:49.606Z</time></trkpt><trkpt lat="43.8194656" lon="15.9079683"><ele>62.0</ele><time>2026-05-05T06:49:50.605Z</time></trkpt><trkpt lat="43.8196814" lon="15.907701"><ele>62.0</ele><time>2026-05-05T06:49:51.606Z</time></trkpt><trkpt lat="43.8198959" lon="15.9074316"><ele>62.5</ele><time>2026-05-05T06:49:52.606Z</time></trkpt><trkpt lat="43.8201037" lon="15.9071624"><ele>63.0</ele><time>2026-05-05T06:49:53.605Z</time></trkpt><trkpt lat="43.8203151" lon="15.9068899"><ele>62.0</ele><time>2026-05-05T06:49:54.605Z</time></trkpt><trkpt lat="43.8205255" lon="15.9066202"><ele>61.0</ele><time>2026-05-05T06:49:55.606Z</time></trkpt><trkpt lat="43.8207365" lon="15.9063467"><ele>61.0</ele><time>2026-05-05T06:49:56.605Z</time></trkpt><trkpt lat="43.8209479" lon="15.9060782"><ele>61.0</ele><time>2026-05-05T06:49:57.605Z</time></trkpt><trkpt lat="43.8211625" lon="15.9058132"><ele>61.5</ele><time>2026-05-05T06:49:58.605Z</time></trkpt><trkpt lat="43.8213815" lon="15.9055501"><ele>62.0</ele><time>2026-05-05T06:49:59.606Z</time></trkpt><trkpt lat="43.8215926" lon="15.9052878"><ele>62.5</ele><time>2026-05-05T06:50:00.606Z</time></trkpt><trkpt lat="43.8218097" lon="15.9050309"><ele>63.0</ele><time>2026-05-05T06:50:01.605Z</time></trkpt><trkpt lat="43.8220284" lon="15.9047712"><ele>63.0</ele><time>2026-05-05T06:50:02.604Z</time></trkpt><trkpt lat="43.822251" lon="15.9045103"><ele>63.0</ele><time>2026-05-05T06:50:03.605Z</time></trkpt><trkpt lat="43.8224745" lon="15.904256"><ele>64.0</ele><time>2026-05-05T06:50:04.606Z</time></trkpt><trkpt lat="43.8227002" lon="15.9040022"><ele>65.0</ele><time>2026-05-05T06:50:05.605Z</time></trkpt><trkpt lat="43.8229267" lon="15.9037533"><ele>65.0</ele><time>2026-05-05T06:50:06.606Z</time></trkpt><trkpt lat="43.8231557" lon="15.903503"><ele>65.0</ele><time>2026-05-05T06:50:07.605Z</time></trkpt><trkpt lat="43.8233849" lon="15.903252"><ele>65.0</ele><time>2026-05-05T06:50:08.606Z</time></trkpt><trkpt lat="43.8236221" lon="15.9030025"><ele>65.0</ele><time>2026-05-05T06:50:09.606Z</time></trkpt><trkpt lat="43.8238507" lon="15.9027546"><ele>64.0</ele><time>2026-05-05T06:50:10.605Z</time></trkpt><trkpt lat="43.8240818" lon="15.9025122"><ele>63.0</ele><time>2026-05-05T06:50:11.605Z</time></trkpt><trkpt lat="43.8243106" lon="15.9022662"><ele>63.5</ele><time>2026-05-05T06:50:12.606Z</time></trkpt><trkpt lat="43.8245442" lon="15.9020171"><ele>64.0</ele><time>2026-05-05T06:50:13.605Z</time></trkpt><trkpt lat="43.8247771" lon="15.9017748"><ele>62.5</ele><time>2026-05-05T06:50:14.606Z</time></trkpt><trkpt lat="43.8250091" lon="15.9015357"><ele>61.0</ele><time>2026-05-05T06:50:15.606Z</time></trkpt><trkpt lat="43.8252374" lon="15.9012981"><ele>61.0</ele><time>2026-05-05T06:50:16.605Z</time></trkpt><trkpt lat="43.825468" lon="15.9010496"><ele>61.0</ele><time>2026-05-05T06:50:17.605Z</time></trkpt><trkpt lat="43.8256943" lon="15.9008031"><ele>61.0</ele><time>2026-05-05T06:50:18.605Z</time></trkpt><trkpt lat="43.8259244" lon="15.9005544"><ele>61.0</ele><time>2026-05-05T06:50:19.606Z</time></trkpt><trkpt lat="43.8261535" lon="15.9002998"><ele>59.0</ele><time>2026-05-05T06:50:20.605Z</time></trkpt><trkpt lat="43.8263803" lon="15.9000482"><ele>57.0</ele><time>2026-05-05T06:50:21.605Z</time></trkpt><trkpt lat="43.8266187" lon="15.8997981"><ele>59.0</ele><time>2026-05-05T06:50:22.606Z</time></trkpt><trkpt lat="43.8268448" lon="15.8995537"><ele>61.0</ele><time>2026-05-05T06:50:23.605Z</time></trkpt><trkpt lat="43.8270751" lon="15.899292"><ele>60.0</ele><time>2026-05-05T06:50:24.606Z</time></trkpt><trkpt lat="43.8272996" lon="15.8990283"><ele>59.0</ele><time>2026-05-05T06:50:25.606Z</time></trkpt><trkpt lat="43.8275252" lon="15.8987592"><ele>58.5</ele><time>2026-05-05T06:50:26.606Z</time></trkpt><trkpt lat="43.8277487" lon="15.8984919"><ele>58.0</ele><time>2026-05-05T06:50:27.606Z</time></trkpt><trkpt lat="43.8279742" lon="15.8982351"><ele>58.0</ele><time>2026-05-05T06:50:28.606Z</time></trkpt><trkpt lat="43.8281958" lon="15.8979668"><ele>58.0</ele><time>2026-05-05T06:50:29.605Z</time></trkpt><trkpt lat="43.8284141" lon="15.897696"><ele>57.5</ele><time>2026-05-05T06:50:30.606Z</time></trkpt><trkpt lat="43.828635" lon="15.8974242"><ele>57.0</ele><time>2026-05-05T06:50:31.606Z</time></trkpt><trkpt lat="43.8288575" lon="15.8971514"><ele>57.0</ele><time>2026-05-05T06:50:32.605Z</time></trkpt><trkpt lat="43.8290763" lon="15.8968824"><ele>57.0</ele><time>2026-05-05T06:50:33.606Z</time></trkpt><trkpt lat="43.8292923" lon="15.8966094"><ele>58.5</ele><time>2026-05-05T06:50:34.606Z</time></trkpt><trkpt lat="43.8295047" lon="15.8963313"><ele>60.0</ele><time>2026-05-05T06:50:35.606Z</time></trkpt><trkpt lat="43.829717" lon="15.8960577"><ele>59.5</ele><time>2026-05-05T06:50:36.605Z</time></trkpt><trkpt lat="43.8299276" lon="15.8957805"><ele>59.0</ele><time>2026-05-05T06:50:37.606Z</time></trkpt><trkpt lat="43.8301384" lon="15.8955006"><ele>59.5</ele><time>2026-05-05T06:50:38.605Z</time></trkpt><trkpt lat="43.8303512" lon="15.8952264"><ele>60.0</ele><time>2026-05-05T06:50:39.606Z</time></trkpt><trkpt lat="43.8305643" lon="15.8949523"><ele>60.0</ele><time>2026-05-05T06:50:40.605Z</time></trkpt><trkpt lat="43.8307891" lon="15.894662"><ele>60.0</ele><time>2026-05-05T06:50:41.605Z</time></trkpt><trkpt lat="43.8309996" lon="15.8943884"><ele>61.5</ele><time>2026-05-05T06:50:42.606Z</time></trkpt><trkpt lat="43.8312134" lon="15.8941102"><ele>63.0</ele><time>2026-05-05T06:50:43.606Z</time></trkpt><trkpt lat="43.8314268" lon="15.8938322"><ele>63.0</ele><time>2026-05-05T06:50:44.605Z</time></trkpt><trkpt lat="43.8316484" lon="15.8935539"><ele>63.0</ele><time>2026-05-05T06:50:45.606Z</time></trkpt><trkpt lat="43.8318634" lon="15.8932715"><ele>63.5</ele><time>2026-05-05T06:50:46.606Z</time></trkpt><trkpt lat="43.8320781" lon="15.8929971"><ele>64.0</ele><time>2026-05-05T06:50:47.606Z</time></trkpt><trkpt lat="43.8322908" lon="15.8927193"><ele>62.5</ele><time>2026-05-05T06:50:48.605Z</time></trkpt><trkpt lat="43.8325061" lon="15.8924393"><ele>61.0</ele><time>2026-05-05T06:50:49.605Z</time></trkpt><trkpt lat="43.8327152" lon="15.8921571"><ele>61.0</ele><time>2026-05-05T06:50:50.606Z</time></trkpt><trkpt lat="43.8329282" lon="15.8918776"><ele>61.0</ele><time>2026-05-05T06:50:51.606Z</time></trkpt><trkpt lat="43.8331395" lon="15.8915925"><ele>60.5</ele><time>2026-05-05T06:50:52.605Z</time></trkpt><trkpt lat="43.8333524" lon="15.8913129"><ele>60.0</ele><time>2026-05-05T06:50:53.605Z</time></trkpt><trkpt lat="43.8335668" lon="15.8910336"><ele>58.5</ele><time>2026-05-05T06:50:54.604Z</time></trkpt><trkpt lat="43.8337797" lon="15.8907598"><ele>57.0</ele><time>2026-05-05T06:50:55.606Z</time></trkpt><trkpt lat="43.8339958" lon="15.8904754"><ele>57.0</ele><time>2026-05-05T06:50:56.605Z</time></trkpt><trkpt lat="43.8342119" lon="15.8901857"><ele>57.0</ele><time>2026-05-05T06:50:57.605Z</time></trkpt><trkpt lat="43.8344299" lon="15.889898"><ele>55.5</ele><time>2026-05-05T06:50:58.606Z</time></trkpt><trkpt lat="43.8346466" lon="15.8896111"><ele>54.0</ele><time>2026-05-05T06:50:59.605Z</time></trkpt><trkpt lat="43.834867" lon="15.8893237"><ele>54.0</ele><time>2026-05-05T06:51:00.605Z</time></trkpt><trkpt lat="43.8350921" lon="15.8890364"><ele>54.0</ele><time>2026-05-05T06:51:01.605Z</time></trkpt><trkpt lat="43.8353142" lon="15.8887507"><ele>54.0</ele><time>2026-05-05T06:51:02.606Z</time></trkpt><trkpt lat="43.8355369" lon="15.8884647"><ele>54.0</ele><time>2026-05-05T06:51:03.606Z</time></trkpt><trkpt lat="43.8357553" lon="15.8881683"><ele>55.0</ele><time>2026-05-05T06:51:04.606Z</time></trkpt><trkpt lat="43.8359823" lon="15.8878802"><ele>56.0</ele><time>2026-05-05T06:51:05.606Z</time></trkpt><trkpt lat="43.8362093" lon="15.8875924"><ele>56.0</ele><time>2026-05-05T06:51:06.606Z</time></trkpt><trkpt lat="43.8364353" lon="15.8873028"><ele>56.0</ele><time>2026-05-05T06:51:07.606Z</time></trkpt><trkpt lat="43.8366583" lon="15.8870096"><ele>56.5</ele><time>2026-05-05T06:51:08.605Z</time></trkpt><trkpt lat="43.8368828" lon="15.8867154"><ele>57.0</ele><time>2026-05-05T06:51:09.605Z</time></trkpt><trkpt lat="43.8371036" lon="15.8864197"><ele>57.0</ele><time>2026-05-05T06:51:10.606Z</time></trkpt><trkpt lat="43.8373318" lon="15.8861302"><ele>57.0</ele><time>2026-05-05T06:51:11.606Z</time></trkpt><trkpt lat="43.8375511" lon="15.8858412"><ele>58.0</ele><time>2026-05-05T06:51:12.605Z</time></trkpt><trkpt lat="43.8377711" lon="15.8855482"><ele>59.0</ele><time>2026-05-05T06:51:13.605Z</time></trkpt><trkpt lat="43.8379932" lon="15.8852554"><ele>58.5</ele><time>2026-05-05T06:51:14.606Z</time></trkpt><trkpt lat="43.8382192" lon="15.8849634"><ele>58.0</ele><time>2026-05-05T06:51:15.606Z</time></trkpt><trkpt lat="43.8384434" lon="15.8846732"><ele>58.5</ele><time>2026-05-05T06:51:16.605Z</time></trkpt><trkpt lat="43.8386681" lon="15.8843828"><ele>59.0</ele><time>2026-05-05T06:51:17.606Z</time></trkpt><trkpt lat="43.8388953" lon="15.8840849"><ele>59.0</ele><time>2026-05-05T06:51:18.605Z</time></trkpt><trkpt lat="43.839112" lon="15.8837931"><ele>59.0</ele><time>2026-05-05T06:51:19.606Z</time></trkpt><trkpt lat="43.8393319" lon="15.8834989"><ele>59.0</ele><time>2026-05-05T06:51:20.605Z</time></trkpt><trkpt lat="43.83955" lon="15.8832021"><ele>59.0</ele><time>2026-05-05T06:51:21.606Z</time></trkpt><trkpt lat="43.8397692" lon="15.8829085"><ele>59.0</ele><time>2026-05-05T06:51:22.606Z</time></trkpt><trkpt lat="43.8399849" lon="15.8826074"><ele>59.0</ele><time>2026-05-05T06:51:23.606Z</time></trkpt><trkpt lat="43.8402005" lon="15.8823041"><ele>58.5</ele><time>2026-05-05T06:51:24.605Z</time></trkpt><trkpt lat="43.8404161" lon="15.8820025"><ele>58.0</ele><time>2026-05-05T06:51:25.606Z</time></trkpt><trkpt lat="43.8406276" lon="15.8817088"><ele>58.0</ele><time>2026-05-05T06:51:26.604Z</time></trkpt><trkpt lat="43.8408327" lon="15.8814042"><ele>58.0</ele><time>2026-05-05T06:51:27.605Z</time></trkpt><trkpt lat="43.8410435" lon="15.8811022"><ele>57.5</ele><time>2026-05-05T06:51:28.606Z</time></trkpt><trkpt lat="43.8412508" lon="15.880802"><ele>57.0</ele><time>2026-05-05T06:51:29.605Z</time></trkpt><trkpt lat="43.8414571" lon="15.8804961"><ele>57.0</ele><time>2026-05-05T06:51:30.605Z</time></trkpt><trkpt lat="43.8416672" lon="15.8802037"><ele>57.0</ele><time>2026-05-05T06:51:31.605Z</time></trkpt><trkpt lat="43.8418685" lon="15.8798977"><ele>58.5</ele><time>2026-05-05T06:51:32.605Z</time></trkpt><trkpt lat="43.8420699" lon="15.879593"><ele>60.0</ele><time>2026-05-05T06:51:33.605Z</time></trkpt><trkpt lat="43.8422656" lon="15.8792915"><ele>59.0</ele><time>2026-05-05T06:51:34.605Z</time></trkpt><trkpt lat="43.8424647" lon="15.8789932"><ele>58.0</ele><time>2026-05-05T06:51:35.605Z</time></trkpt><trkpt lat="43.8426618" lon="15.8786865"><ele>58.0</ele><time>2026-05-05T06:51:36.606Z</time></trkpt><trkpt lat="43.8428553" lon="15.8783771"><ele>58.0</ele><time>2026-05-05T06:51:37.605Z</time></trkpt><trkpt lat="43.8430508" lon="15.8780673"><ele>58.0</ele><time>2026-05-05T06:51:38.605Z</time></trkpt><trkpt lat="43.8432463" lon="15.8777555"><ele>58.0</ele><time>2026-05-05T06:51:39.605Z</time></trkpt><trkpt lat="43.8434323" lon="15.8774513"><ele>54.0</ele><time>2026-05-05T06:51:40.605Z</time></trkpt><trkpt lat="43.843621" lon="15.8771367"><ele>50.0</ele><time>2026-05-05T06:51:41.606Z</time></trkpt><trkpt lat="43.843808" lon="15.8768276"><ele>49.5</ele><time>2026-05-05T06:51:42.605Z</time></trkpt><trkpt lat="43.8439973" lon="15.8765172"><ele>49.0</ele><time>2026-05-05T06:51:43.606Z</time></trkpt><trkpt lat="43.8441843" lon="15.8762076"><ele>56.5</ele><time>2026-05-05T06:51:44.606Z</time></trkpt><trkpt lat="43.8443748" lon="15.8758882"><ele>64.0</ele><time>2026-05-05T06:51:45.606Z</time></trkpt><trkpt lat="43.8445612" lon="15.875572"><ele>64.0</ele><time>2026-05-05T06:51:46.606Z</time></trkpt><trkpt lat="43.8447488" lon="15.8752519"><ele>64.0</ele><time>2026-05-05T06:51:47.606Z</time></trkpt><trkpt lat="43.844935" lon="15.8749271"><ele>64.0</ele><time>2026-05-05T06:51:48.605Z</time></trkpt><trkpt lat="43.8451241" lon="15.8746037"><ele>64.0</ele><time>2026-05-05T06:51:49.604Z</time></trkpt><trkpt lat="43.8453067" lon="15.8742738"><ele>66.5</ele><time>2026-05-05T06:51:50.605Z</time></trkpt><trkpt lat="43.8454907" lon="15.8739462"><ele>69.0</ele><time>2026-05-05T06:51:51.606Z</time></trkpt><trkpt lat="43.8456712" lon="15.8736176"><ele>68.0</ele><time>2026-05-05T06:51:52.606Z</time></trkpt><trkpt lat="43.8458503" lon="15.8732924"><ele>67.0</ele><time>2026-05-05T06:51:53.605Z</time></trkpt><trkpt lat="43.846032" lon="15.8729674"><ele>68.5</ele><time>2026-05-05T06:51:54.605Z</time></trkpt><trkpt lat="43.8462139" lon="15.8726435"><ele>70.0</ele><time>2026-05-05T06:51:55.606Z</time></trkpt><trkpt lat="43.8463942" lon="15.8723217"><ele>70.0</ele><time>2026-05-05T06:51:56.605Z</time></trkpt><trkpt lat="43.8465696" lon="15.8719916"><ele>70.0</ele><time>2026-05-05T06:51:57.606Z</time></trkpt><trkpt lat="43.8467426" lon="15.8716619"><ele>71.0</ele><time>2026-05-05T06:51:58.605Z</time></trkpt><trkpt lat="43.8469117" lon="15.8713389"><ele>72.0</ele><time>2026-05-05T06:51:59.604Z</time></trkpt><trkpt lat="43.8470837" lon="15.871011"><ele>72.5</ele><time>2026-05-05T06:52:00.605Z</time></trkpt><trkpt lat="43.847253" lon="15.8706819"><ele>73.0</ele><time>2026-05-05T06:52:01.605Z</time></trkpt><trkpt lat="43.8474216" lon="15.8703491"><ele>73.0</ele><time>2026-05-05T06:52:02.606Z</time></trkpt><trkpt lat="43.8475876" lon="15.870014"><ele>73.0</ele><time>2026-05-05T06:52:03.606Z</time></trkpt><trkpt lat="43.8477483" lon="15.8696887"><ele>76.5</ele><time>2026-05-05T06:52:04.606Z</time></trkpt><trkpt lat="43.8479138" lon="15.8693576"><ele>80.0</ele><time>2026-05-05T06:52:05.605Z</time></trkpt><trkpt lat="43.8480781" lon="15.8690252"><ele>80.0</ele><time>2026-05-05T06:52:06.604Z</time></trkpt><trkpt lat="43.8482455" lon="15.8686911"><ele>80.0</ele><time>2026-05-05T06:52:07.606Z</time></trkpt><trkpt lat="43.8484022" lon="15.8683594"><ele>81.5</ele><time>2026-05-05T06:52:08.606Z</time></trkpt><trkpt lat="43.8485612" lon="15.8680265"><ele>83.0</ele><time>2026-05-05T06:52:09.606Z</time></trkpt><trkpt lat="43.8487213" lon="15.8676952"><ele>83.5</ele><time>2026-05-05T06:52:10.605Z</time></trkpt><trkpt lat="43.8488805" lon="15.8673614"><ele>84.0</ele><time>2026-05-05T06:52:11.605Z</time></trkpt><trkpt lat="43.849037" lon="15.8670292"><ele>83.5</ele><time>2026-05-05T06:52:12.606Z</time></trkpt><trkpt lat="43.8491896" lon="15.8666911"><ele>83.0</ele><time>2026-05-05T06:52:13.606Z</time></trkpt><trkpt lat="43.8493422" lon="15.8663583"><ele>85.0</ele><time>2026-05-05T06:52:14.606Z</time></trkpt><trkpt lat="43.8494931" lon="15.8660241"><ele>87.0</ele><time>2026-05-05T06:52:15.605Z</time></trkpt><trkpt lat="43.8496469" lon="15.8656844"><ele>87.0</ele><time>2026-05-05T06:52:16.606Z</time></trkpt><trkpt lat="43.8498062" lon="15.8653398"><ele>87.0</ele><time>2026-05-05T06:52:17.606Z</time></trkpt><trkpt lat="43.8499614" lon="15.8650055"><ele>86.0</ele><time>2026-05-05T06:52:18.605Z</time></trkpt><trkpt lat="43.850104" lon="15.8646775"><ele>85.0</ele><time>2026-05-05T06:52:19.606Z</time></trkpt><trkpt lat="43.8502533" lon="15.8643423"><ele>88.0</ele><time>2026-05-05T06:52:20.605Z</time></trkpt><trkpt lat="43.8504012" lon="15.8639926"><ele>91.0</ele><time>2026-05-05T06:52:21.605Z</time></trkpt><trkpt lat="43.8505488" lon="15.8636428"><ele>88.5</ele><time>2026-05-05T06:52:22.606Z</time></trkpt><trkpt lat="43.8506995" lon="15.8632925"><ele>86.0</ele><time>2026-05-05T06:52:23.606Z</time></trkpt><trkpt lat="43.8508467" lon="15.8629365"><ele>87.5</ele><time>2026-05-05T06:52:24.606Z</time></trkpt><trkpt lat="43.8509887" lon="15.8625851"><ele>89.0</ele><time>2026-05-05T06:52:25.605Z</time></trkpt><trkpt lat="43.8511267" lon="15.8622316"><ele>89.0</ele><time>2026-05-05T06:52:26.606Z</time></trkpt><trkpt lat="43.8512674" lon="15.8618983"><ele>89.0</ele><time>2026-05-05T06:52:27.605Z</time></trkpt><trkpt lat="43.8514099" lon="15.8615375"><ele>89.0</ele><time>2026-05-05T06:52:28.605Z</time></trkpt><trkpt lat="43.8515459" lon="15.8611714"><ele>89.0</ele><time>2026-05-05T06:52:29.606Z</time></trkpt><trkpt lat="43.8516897" lon="15.8608047"><ele>89.5</ele><time>2026-05-05T06:52:30.606Z</time></trkpt><trkpt lat="43.8518318" lon="15.8604415"><ele>90.0</ele><time>2026-05-05T06:52:31.605Z</time></trkpt><trkpt lat="43.8519749" lon="15.8600672"><ele>90.0</ele><time>2026-05-05T06:52:32.606Z</time></trkpt><trkpt lat="43.8521176" lon="15.8597038"><ele>90.0</ele><time>2026-05-05T06:52:33.606Z</time></trkpt><trkpt lat="43.8522545" lon="15.859338"><ele>88.5</ele><time>2026-05-05T06:52:34.605Z</time></trkpt><trkpt lat="43.8523928" lon="15.8589691"><ele>87.0</ele><time>2026-05-05T06:52:35.606Z</time></trkpt><trkpt lat="43.8525277" lon="15.8585994"><ele>88.5</ele><time>2026-05-05T06:52:36.606Z</time></trkpt><trkpt lat="43.8526596" lon="15.8582361"><ele>90.0</ele><time>2026-05-05T06:52:37.605Z</time></trkpt><trkpt lat="43.8527947" lon="15.8578632"><ele>88.5</ele><time>2026-05-05T06:52:38.606Z</time></trkpt><trkpt lat="43.8529261" lon="15.8574875"><ele>87.0</ele><time>2026-05-05T06:52:39.604Z</time></trkpt><trkpt lat="43.8530537" lon="15.8571155"><ele>85.0</ele><time>2026-05-05T06:52:40.606Z</time></trkpt><trkpt lat="43.8531862" lon="15.8567388"><ele>83.0</ele><time>2026-05-05T06:52:41.606Z</time></trkpt><trkpt lat="43.8533211" lon="15.8563609"><ele>83.0</ele><time>2026-05-05T06:52:42.606Z</time></trkpt><trkpt lat="43.8534441" lon="15.855981"><ele>83.0</ele><time>2026-05-05T06:52:43.605Z</time></trkpt><trkpt lat="43.8535706" lon="15.8556021"><ele>80.0</ele><time>2026-05-05T06:52:44.605Z</time></trkpt><trkpt lat="43.8536891" lon="15.8552257"><ele>77.0</ele><time>2026-05-05T06:52:45.606Z</time></trkpt><trkpt lat="43.8538065" lon="15.8548477"><ele>67.5</ele><time>2026-05-05T06:52:46.606Z</time></trkpt><trkpt lat="43.853925" lon="15.8544708"><ele>58.0</ele><time>2026-05-05T06:52:47.604Z</time></trkpt><trkpt lat="43.854041" lon="15.8540957"><ele>53.0</ele><time>2026-05-05T06:52:48.604Z</time></trkpt><trkpt lat="43.854158" lon="15.8537174"><ele>48.0</ele><time>2026-05-05T06:52:49.606Z</time></trkpt><trkpt lat="43.854276" lon="15.8533428"><ele>49.5</ele><time>2026-05-05T06:52:50.605Z</time></trkpt><trkpt lat="43.8543914" lon="15.8529631"><ele>51.0</ele><time>2026-05-05T06:52:51.605Z</time></trkpt><trkpt lat="43.8545051" lon="15.8525844"><ele>59.0</ele><time>2026-05-05T06:52:52.605Z</time></trkpt><trkpt lat="43.8546162" lon="15.8522124"><ele>67.0</ele><time>2026-05-05T06:52:53.605Z</time></trkpt><trkpt lat="43.8547246" lon="15.8518331"><ele>73.5</ele><time>2026-05-05T06:52:54.606Z</time></trkpt><trkpt lat="43.8548381" lon="15.8514451"><ele>80.0</ele><time>2026-05-05T06:52:55.605Z</time></trkpt><trkpt lat="43.854949" lon="15.8510617"><ele>80.0</ele><time>2026-05-05T06:52:56.605Z</time></trkpt><trkpt lat="43.8550609" lon="15.8506693"><ele>80.0</ele><time>2026-05-05T06:52:57.605Z</time></trkpt><trkpt lat="43.8551716" lon="15.8502733"><ele>82.0</ele><time>2026-05-05T06:52:58.606Z</time></trkpt><trkpt lat="43.8552802" lon="15.8498813"><ele>84.0</ele><time>2026-05-05T06:52:59.606Z</time></trkpt><trkpt lat="43.8553857" lon="15.8494852"><ele>82.5</ele><time>2026-05-05T06:53:00.606Z</time></trkpt><trkpt lat="43.8554925" lon="15.8490873"><ele>81.0</ele><time>2026-05-05T06:53:01.605Z</time></trkpt><trkpt lat="43.855595" lon="15.8486924"><ele>81.0</ele><time>2026-05-05T06:53:02.606Z</time></trkpt><trkpt lat="43.8556985" lon="15.8482911"><ele>81.0</ele><time>2026-05-05T06:53:03.606Z</time></trkpt><trkpt lat="43.8557989" lon="15.8478905"><ele>80.0</ele><time>2026-05-05T06:53:04.606Z</time></trkpt><trkpt lat="43.8559083" lon="15.8474875"><ele>79.0</ele><time>2026-05-05T06:53:05.606Z</time></trkpt><trkpt lat="43.8560118" lon="15.8470828"><ele>82.5</ele><time>2026-05-05T06:53:06.605Z</time></trkpt><trkpt lat="43.856117" lon="15.8466737"><ele>86.0</ele><time>2026-05-05T06:53:07.606Z</time></trkpt><trkpt lat="43.8562177" lon="15.8462585"><ele>85.5</ele><time>2026-05-05T06:53:08.606Z</time></trkpt><trkpt lat="43.8563158" lon="15.8458381"><ele>85.0</ele><time>2026-05-05T06:53:09.606Z</time></trkpt><trkpt lat="43.8564117" lon="15.8454139"><ele>84.5</ele><time>2026-05-05T06:53:10.606Z</time></trkpt><trkpt lat="43.8565104" lon="15.844988"><ele>84.0</ele><time>2026-05-05T06:53:11.605Z</time></trkpt><trkpt lat="43.8566104" lon="15.8445673"><ele>83.5</ele><time>2026-05-05T06:53:12.605Z</time></trkpt><trkpt lat="43.8566999" lon="15.8441485"><ele>83.0</ele><time>2026-05-05T06:53:13.605Z</time></trkpt><trkpt lat="43.8567899" lon="15.8437336"><ele>85.0</ele><time>2026-05-05T06:53:14.606Z</time></trkpt><trkpt lat="43.8568806" lon="15.84332"><ele>87.0</ele><time>2026-05-05T06:53:15.606Z</time></trkpt><trkpt lat="43.8569658" lon="15.8429095"><ele>86.5</ele><time>2026-05-05T06:53:16.606Z</time></trkpt><trkpt lat="43.8570497" lon="15.8425036"><ele>86.0</ele><time>2026-05-05T06:53:17.605Z</time></trkpt><trkpt lat="43.8571362" lon="15.8421027"><ele>86.0</ele><time>2026-05-05T06:53:18.605Z</time></trkpt><trkpt lat="43.8572238" lon="15.8417004"><ele>86.0</ele><time>2026-05-05T06:53:19.606Z</time></trkpt><trkpt lat="43.8573105" lon="15.8412999"><ele>85.0</ele><time>2026-05-05T06:53:20.606Z</time></trkpt><trkpt lat="43.8574004" lon="15.8408991"><ele>84.0</ele><time>2026-05-05T06:53:21.606Z</time></trkpt><trkpt lat="43.8574824" lon="15.8404957"><ele>84.5</ele><time>2026-05-05T06:53:22.605Z</time></trkpt><trkpt lat="43.857565" lon="15.8400958"><ele>85.0</ele><time>2026-05-05T06:53:23.605Z</time></trkpt><trkpt lat="43.8576447" lon="15.8396884"><ele>88.0</ele><time>2026-05-05T06:53:24.606Z</time></trkpt><trkpt lat="43.8577211" lon="15.8392858"><ele>91.0</ele><time>2026-05-05T06:53:25.606Z</time></trkpt><trkpt lat="43.8578019" lon="15.8388796"><ele>91.0</ele><time>2026-05-05T06:53:26.605Z</time></trkpt><trkpt lat="43.8578815" lon="15.8384715"><ele>91.0</ele><time>2026-05-05T06:53:27.605Z</time></trkpt><trkpt lat="43.8579666" lon="15.8380714"><ele>93.0</ele><time>2026-05-05T06:53:28.605Z</time></trkpt><trkpt lat="43.8580522" lon="15.8376737"><ele>95.0</ele><time>2026-05-05T06:53:29.606Z</time></trkpt><trkpt lat="43.8581405" lon="15.8372727"><ele>96.0</ele><time>2026-05-05T06:53:30.606Z</time></trkpt><trkpt lat="43.8582264" lon="15.8368733"><ele>97.0</ele><time>2026-05-05T06:53:31.605Z</time></trkpt><trkpt lat="43.8583124" lon="15.8364673"><ele>97.5</ele><time>2026-05-05T06:53:32.606Z</time></trkpt><trkpt lat="43.8583973" lon="15.8360709"><ele>98.0</ele><time>2026-05-05T06:53:33.606Z</time></trkpt><trkpt lat="43.8584822" lon="15.8356776"><ele>100.5</ele><time>2026-05-05T06:53:34.606Z</time></trkpt><trkpt lat="43.8585718" lon="15.8352831"><ele>103.0</ele><time>2026-05-05T06:53:35.605Z</time></trkpt><trkpt lat="43.8586627" lon="15.8348917"><ele>104.0</ele><time>2026-05-05T06:53:36.606Z</time></trkpt><trkpt lat="43.8587565" lon="15.8345011"><ele>105.0</ele><time>2026-05-05T06:53:37.605Z</time></trkpt><trkpt lat="43.8588561" lon="15.8341074"><ele>105.5</ele><time>2026-05-05T06:53:38.605Z</time></trkpt><trkpt lat="43.8589528" lon="15.8337229"><ele>106.0</ele><time>2026-05-05T06:53:39.605Z</time></trkpt><trkpt lat="43.8590554" lon="15.83334"><ele>106.5</ele><time>2026-05-05T06:53:40.605Z</time></trkpt><trkpt lat="43.8591563" lon="15.8329486"><ele>107.0</ele><time>2026-05-05T06:53:41.606Z</time></trkpt><trkpt lat="43.859257" lon="15.8325618"><ele>109.5</ele><time>2026-05-05T06:53:42.605Z</time></trkpt><trkpt lat="43.8593643" lon="15.8321706"><ele>112.0</ele><time>2026-05-05T06:53:43.606Z</time></trkpt><trkpt lat="43.8594689" lon="15.8317837"><ele>112.0</ele><time>2026-05-05T06:53:44.606Z</time></trkpt><trkpt lat="43.8595754" lon="15.8314003"><ele>112.0</ele><time>2026-05-05T06:53:45.605Z</time></trkpt><trkpt lat="43.8596845" lon="15.8310162"><ele>113.0</ele><time>2026-05-05T06:53:46.606Z</time></trkpt><trkpt lat="43.8597952" lon="15.8306362"><ele>114.0</ele><time>2026-05-05T06:53:47.605Z</time></trkpt><trkpt lat="43.8599094" lon="15.8302569"><ele>114.5</ele><time>2026-05-05T06:53:48.605Z</time></trkpt><trkpt lat="43.8600266" lon="15.8298796"><ele>115.0</ele><time>2026-05-05T06:53:49.606Z</time></trkpt><trkpt lat="43.8601443" lon="15.8295042"><ele>117.5</ele><time>2026-05-05T06:53:50.606Z</time></trkpt><trkpt lat="43.8602605" lon="15.8291255"><ele>120.0</ele><time>2026-05-05T06:53:51.606Z</time></trkpt><trkpt lat="43.8603738" lon="15.8287502"><ele>120.0</ele><time>2026-05-05T06:53:52.606Z</time></trkpt><trkpt lat="43.8604916" lon="15.8283768"><ele>120.0</ele><time>2026-05-05T06:53:53.606Z</time></trkpt><trkpt lat="43.8606138" lon="15.8280088"><ele>120.0</ele><time>2026-05-05T06:53:54.606Z</time></trkpt><trkpt lat="43.8607349" lon="15.8276357"><ele>120.0</ele><time>2026-05-05T06:53:55.606Z</time></trkpt><trkpt lat="43.8608653" lon="15.8272639"><ele>120.5</ele><time>2026-05-05T06:53:56.606Z</time></trkpt><trkpt lat="43.8609916" lon="15.8268926"><ele>121.0</ele><time>2026-05-05T06:53:57.606Z</time></trkpt><trkpt lat="43.8611254" lon="15.8265249"><ele>121.5</ele><time>2026-05-05T06:53:58.606Z</time></trkpt><trkpt lat="43.8612556" lon="15.8261558"><ele>122.0</ele><time>2026-05-05T06:53:59.606Z</time></trkpt><trkpt lat="43.8613881" lon="15.8257897"><ele>122.0</ele><time>2026-05-05T06:54:00.605Z</time></trkpt><trkpt lat="43.8615243" lon="15.8254241"><ele>122.0</ele><time>2026-05-05T06:54:01.605Z</time></trkpt><trkpt lat="43.8616585" lon="15.8250529"><ele>123.0</ele><time>2026-05-05T06:54:02.605Z</time></trkpt><trkpt lat="43.8617997" lon="15.824694"><ele>124.0</ele><time>2026-05-05T06:54:03.606Z</time></trkpt><trkpt lat="43.8619373" lon="15.8243345"><ele>123.5</ele><time>2026-05-05T06:54:04.606Z</time></trkpt><trkpt lat="43.8620821" lon="15.8239724"><ele>123.0</ele><time>2026-05-05T06:54:05.606Z</time></trkpt><trkpt lat="43.8622237" lon="15.8236153"><ele>123.0</ele><time>2026-05-05T06:54:06.606Z</time></trkpt><trkpt lat="43.8623684" lon="15.8232524"><ele>123.0</ele><time>2026-05-05T06:54:07.606Z</time></trkpt><trkpt lat="43.8625147" lon="15.822893"><ele>124.0</ele><time>2026-05-05T06:54:08.605Z</time></trkpt><trkpt lat="43.8626686" lon="15.8225358"><ele>125.0</ele><time>2026-05-05T06:54:09.605Z</time></trkpt><trkpt lat="43.8628217" lon="15.822178"><ele>125.0</ele><time>2026-05-05T06:54:10.605Z</time></trkpt><trkpt lat="43.8629775" lon="15.8218224"><ele>125.0</ele><time>2026-05-05T06:54:11.606Z</time></trkpt><trkpt lat="43.8631338" lon="15.8214665"><ele>125.0</ele><time>2026-05-05T06:54:12.606Z</time></trkpt><trkpt lat="43.8632936" lon="15.821108"><ele>125.0</ele><time>2026-05-05T06:54:13.605Z</time></trkpt><trkpt lat="43.8634586" lon="15.8207509"><ele>125.0</ele><time>2026-05-05T06:54:14.605Z</time></trkpt><trkpt lat="43.8636179" lon="15.8203957"><ele>125.0</ele><time>2026-05-05T06:54:15.606Z</time></trkpt><trkpt lat="43.8637844" lon="15.8200407"><ele>124.5</ele><time>2026-05-05T06:54:16.606Z</time></trkpt><trkpt lat="43.8639574" lon="15.8196825"><ele>124.0</ele><time>2026-05-05T06:54:17.605Z</time></trkpt><trkpt lat="43.8641295" lon="15.8193238"><ele>124.5</ele><time>2026-05-05T06:54:18.606Z</time></trkpt><trkpt lat="43.864301" lon="15.8189692"><ele>125.0</ele><time>2026-05-05T06:54:19.604Z</time></trkpt><trkpt lat="43.8644759" lon="15.8186239"><ele>124.5</ele><time>2026-05-05T06:54:20.606Z</time></trkpt><trkpt lat="43.8646536" lon="15.8182722"><ele>124.0</ele><time>2026-05-05T06:54:21.606Z</time></trkpt><trkpt lat="43.8648321" lon="15.8179203"><ele>124.0</ele><time>2026-05-05T06:54:22.604Z</time></trkpt><trkpt lat="43.8650188" lon="15.8175717"><ele>124.0</ele><time>2026-05-05T06:54:23.605Z</time></trkpt><trkpt lat="43.8652004" lon="15.8172203"><ele>124.0</ele><time>2026-05-05T06:54:24.606Z</time></trkpt><trkpt lat="43.8653867" lon="15.8168736"><ele>124.0</ele><time>2026-05-05T06:54:25.606Z</time></trkpt><trkpt lat="43.8655743" lon="15.8165311"><ele>124.0</ele><time>2026-05-05T06:54:26.605Z</time></trkpt><trkpt lat="43.8657627" lon="15.8161962"><ele>124.0</ele><time>2026-05-05T06:54:27.606Z</time></trkpt><trkpt lat="43.8659545" lon="15.815859"><ele>124.0</ele><time>2026-05-05T06:54:28.606Z</time></trkpt><trkpt lat="43.8661498" lon="15.8155215"><ele>124.0</ele><time>2026-05-05T06:54:29.605Z</time></trkpt><trkpt lat="43.8663433" lon="15.8151819"><ele>122.0</ele><time>2026-05-05T06:54:30.605Z</time></trkpt><trkpt lat="43.866538" lon="15.8148418"><ele>120.0</ele><time>2026-05-05T06:54:31.605Z</time></trkpt><trkpt lat="43.8667347" lon="15.8145126"><ele>112.5</ele><time>2026-05-05T06:54:32.606Z</time></trkpt><trkpt lat="43.8669284" lon="15.8141819"><ele>105.0</ele><time>2026-05-05T06:54:33.605Z</time></trkpt><trkpt lat="43.8671257" lon="15.813859"><ele>105.0</ele><time>2026-05-05T06:54:34.605Z</time></trkpt><trkpt lat="43.8673217" lon="15.8135357"><ele>105.0</ele><time>2026-05-05T06:54:35.605Z</time></trkpt><trkpt lat="43.8675229" lon="15.8132156"><ele>99.0</ele><time>2026-05-05T06:54:36.606Z</time></trkpt><trkpt lat="43.8677255" lon="15.8128929"><ele>93.0</ele><time>2026-05-05T06:54:37.605Z</time></trkpt><trkpt lat="43.8679304" lon="15.8125755"><ele>93.0</ele><time>2026-05-05T06:54:38.606Z</time></trkpt><trkpt lat="43.8681295" lon="15.8122725"><ele>93.0</ele><time>2026-05-05T06:54:39.605Z</time></trkpt><trkpt lat="43.8683401" lon="15.8119528"><ele>106.5</ele><time>2026-05-05T06:54:40.606Z</time></trkpt><trkpt lat="43.8685524" lon="15.811636"><ele>120.0</ele><time>2026-05-05T06:54:41.606Z</time></trkpt><trkpt lat="43.8687636" lon="15.8113204"><ele>120.0</ele><time>2026-05-05T06:54:42.605Z</time></trkpt><trkpt lat="43.8689781" lon="15.8110069"><ele>120.0</ele><time>2026-05-05T06:54:43.605Z</time></trkpt><trkpt lat="43.8692017" lon="15.8106939"><ele>121.0</ele><time>2026-05-05T06:54:44.604Z</time></trkpt><trkpt lat="43.8694207" lon="15.8103823"><ele>122.0</ele><time>2026-05-05T06:54:45.605Z</time></trkpt><trkpt lat="43.8696366" lon="15.8100802"><ele>122.0</ele><time>2026-05-05T06:54:46.606Z</time></trkpt><trkpt lat="43.8698545" lon="15.8097695"><ele>122.0</ele><time>2026-05-05T06:54:47.605Z</time></trkpt><trkpt lat="43.8700729" lon="15.8094703"><ele>123.0</ele><time>2026-05-05T06:54:48.604Z</time></trkpt><trkpt lat="43.8702947" lon="15.8091757"><ele>124.0</ele><time>2026-05-05T06:54:49.606Z</time></trkpt><trkpt lat="43.8705172" lon="15.8088774"><ele>124.0</ele><time>2026-05-05T06:54:50.606Z</time></trkpt><trkpt lat="43.8707441" lon="15.8085834"><ele>124.0</ele><time>2026-05-05T06:54:51.606Z</time></trkpt><trkpt lat="43.8709706" lon="15.808296"><ele>124.0</ele><time>2026-05-05T06:54:52.605Z</time></trkpt><trkpt lat="43.8711968" lon="15.8080106"><ele>124.0</ele><time>2026-05-05T06:54:53.606Z</time></trkpt><trkpt lat="43.8714226" lon="15.8077336"><ele>124.0</ele><time>2026-05-05T06:54:54.605Z</time></trkpt><trkpt lat="43.8716493" lon="15.8074517"><ele>124.0</ele><time>2026-05-05T06:54:55.606Z</time></trkpt><trkpt lat="43.8718746" lon="15.8071678"><ele>124.0</ele><time>2026-05-05T06:54:56.606Z</time></trkpt><trkpt lat="43.8721026" lon="15.8068944"><ele>124.0</ele><time>2026-05-05T06:54:57.606Z</time></trkpt><trkpt lat="43.8723281" lon="15.8066226"><ele>123.5</ele><time>2026-05-05T06:54:58.606Z</time></trkpt><trkpt lat="43.8725574" lon="15.8063522"><ele>123.0</ele><time>2026-05-05T06:54:59.605Z</time></trkpt><trkpt lat="43.8727841" lon="15.8060948"><ele>122.5</ele><time>2026-05-05T06:55:00.605Z</time></trkpt><trkpt lat="43.8730177" lon="15.8058352"><ele>122.0</ele><time>2026-05-05T06:55:01.605Z</time></trkpt><trkpt lat="43.8732499" lon="15.8055776"><ele>123.0</ele><time>2026-05-05T06:55:02.606Z</time></trkpt><trkpt lat="43.8734811" lon="15.8053225"><ele>124.0</ele><time>2026-05-05T06:55:03.606Z</time></trkpt><trkpt lat="43.8737142" lon="15.8050694"><ele>124.0</ele><time>2026-05-05T06:55:04.605Z</time></trkpt><trkpt lat="43.8739524" lon="15.8048082"><ele>124.0</ele><time>2026-05-05T06:55:05.605Z</time></trkpt><trkpt lat="43.8741869" lon="15.8045583"><ele>125.5</ele><time>2026-05-05T06:55:06.606Z</time></trkpt><trkpt lat="43.8744258" lon="15.8043081"><ele>127.0</ele><time>2026-05-05T06:55:07.606Z</time></trkpt><trkpt lat="43.8746607" lon="15.8040598"><ele>127.0</ele><time>2026-05-05T06:55:08.606Z</time></trkpt><trkpt lat="43.8748955" lon="15.8038144"><ele>127.0</ele><time>2026-05-05T06:55:09.605Z</time></trkpt><trkpt lat="43.8751337" lon="15.8035715"><ele>127.5</ele><time>2026-05-05T06:55:10.606Z</time></trkpt><trkpt lat="43.8753729" lon="15.8033339"><ele>128.0</ele><time>2026-05-05T06:55:11.605Z</time></trkpt><trkpt lat="43.8756173" lon="15.8030861"><ele>128.0</ele><time>2026-05-05T06:55:12.606Z</time></trkpt><trkpt lat="43.8758525" lon="15.8028437"><ele>128.0</ele><time>2026-05-05T06:55:13.606Z</time></trkpt><trkpt lat="43.8760987" lon="15.8026007"><ele>129.5</ele><time>2026-05-05T06:55:14.606Z</time></trkpt><trkpt lat="43.8763399" lon="15.8023596"><ele>131.0</ele><time>2026-05-05T06:55:15.605Z</time></trkpt><trkpt lat="43.8765795" lon="15.8021121"><ele>131.5</ele><time>2026-05-05T06:55:16.605Z</time></trkpt><trkpt lat="43.8768208" lon="15.8018664"><ele>132.0</ele><time>2026-05-05T06:55:17.605Z</time></trkpt><trkpt lat="43.877066" lon="15.8016167"><ele>132.0</ele><time>2026-05-05T06:55:18.605Z</time></trkpt><trkpt lat="43.8773096" lon="15.8013656"><ele>132.0</ele><time>2026-05-05T06:55:19.606Z</time></trkpt><trkpt lat="43.8775552" lon="15.8011134"><ele>132.5</ele><time>2026-05-05T06:55:20.606Z</time></trkpt><trkpt lat="43.8778016" lon="15.8008617"><ele>133.0</ele><time>2026-05-05T06:55:21.605Z</time></trkpt><trkpt lat="43.8780493" lon="15.8006113"><ele>133.0</ele><time>2026-05-05T06:55:22.606Z</time></trkpt><trkpt lat="43.8782955" lon="15.800363"><ele>133.0</ele><time>2026-05-05T06:55:23.605Z</time></trkpt><trkpt lat="43.8785416" lon="15.8001068"><ele>133.5</ele><time>2026-05-05T06:55:24.605Z</time></trkpt><trkpt lat="43.8787911" lon="15.7998568"><ele>134.0</ele><time>2026-05-05T06:55:25.605Z</time></trkpt><trkpt lat="43.8790387" lon="15.7996041"><ele>134.0</ele><time>2026-05-05T06:55:26.605Z</time></trkpt><trkpt lat="43.8792838" lon="15.7993519"><ele>134.0</ele><time>2026-05-05T06:55:27.606Z</time></trkpt><trkpt lat="43.8795292" lon="15.7991038"><ele>134.0</ele><time>2026-05-05T06:55:28.605Z</time></trkpt><trkpt lat="43.8797641" lon="15.7988663"><ele>134.0</ele><time>2026-05-05T06:55:29.606Z</time></trkpt><trkpt lat="43.8800102" lon="15.7986184"><ele>135.0</ele><time>2026-05-05T06:55:30.606Z</time></trkpt><trkpt lat="43.8802612" lon="15.7983744"><ele>136.0</ele><time>2026-05-05T06:55:31.605Z</time></trkpt><trkpt lat="43.8805088" lon="15.7981387"><ele>136.0</ele><time>2026-05-05T06:55:32.605Z</time></trkpt><trkpt lat="43.8807477" lon="15.7978977"><ele>136.0</ele><time>2026-05-05T06:55:33.606Z</time></trkpt><trkpt lat="43.8809885" lon="15.7976579"><ele>136.0</ele><time>2026-05-05T06:55:34.606Z</time></trkpt><trkpt lat="43.8812307" lon="15.7974139"><ele>136.0</ele><time>2026-05-05T06:55:35.606Z</time></trkpt><trkpt lat="43.881476" lon="15.7971699"><ele>136.0</ele><time>2026-05-05T06:55:36.605Z</time></trkpt><trkpt lat="43.8817216" lon="15.796928"><ele>136.0</ele><time>2026-05-05T06:55:37.606Z</time></trkpt><trkpt lat="43.8819636" lon="15.796685"><ele>136.5</ele><time>2026-05-05T06:55:38.605Z</time></trkpt><trkpt lat="43.8822064" lon="15.7964375"><ele>137.0</ele><time>2026-05-05T06:55:39.605Z</time></trkpt><trkpt lat="43.8824514" lon="15.7961932"><ele>137.5</ele><time>2026-05-05T06:55:40.605Z</time></trkpt><trkpt lat="43.8826949" lon="15.7959498"><ele>138.0</ele><time>2026-05-05T06:55:41.606Z</time></trkpt><trkpt lat="43.8829368" lon="15.7957084"><ele>138.0</ele><time>2026-05-05T06:55:42.605Z</time></trkpt><trkpt lat="43.8831822" lon="15.7954619"><ele>138.0</ele><time>2026-05-05T06:55:43.606Z</time></trkpt><trkpt lat="43.8834232" lon="15.7952167"><ele>138.0</ele><time>2026-05-05T06:55:44.606Z</time></trkpt><trkpt lat="43.8836653" lon="15.794973"><ele>138.0</ele><time>2026-05-05T06:55:45.605Z</time></trkpt><trkpt lat="43.8839126" lon="15.7947293"><ele>138.0</ele><time>2026-05-05T06:55:46.605Z</time></trkpt><trkpt lat="43.8841539" lon="15.7944849"><ele>138.0</ele><time>2026-05-05T06:55:47.606Z</time></trkpt><trkpt lat="43.8843954" lon="15.7942402"><ele>138.5</ele><time>2026-05-05T06:55:48.606Z</time></trkpt><trkpt lat="43.8846322" lon="15.7939992"><ele>139.0</ele><time>2026-05-05T06:55:49.605Z</time></trkpt><trkpt lat="43.8848735" lon="15.7937566"><ele>138.5</ele><time>2026-05-05T06:55:50.605Z</time></trkpt><trkpt lat="43.8851119" lon="15.793513"><ele>138.0</ele><time>2026-05-05T06:55:51.605Z</time></trkpt><trkpt lat="43.8853514" lon="15.7932694"><ele>138.0</ele><time>2026-05-05T06:55:52.606Z</time></trkpt><trkpt lat="43.8855954" lon="15.7930259"><ele>138.0</ele><time>2026-05-05T06:55:53.605Z</time></trkpt><trkpt lat="43.8858348" lon="15.7927851"><ele>137.5</ele><time>2026-05-05T06:55:54.606Z</time></trkpt><trkpt lat="43.8860744" lon="15.7925394"><ele>137.0</ele><time>2026-05-05T06:55:55.605Z</time></trkpt><trkpt lat="43.8863138" lon="15.7922967"><ele>137.0</ele><time>2026-05-05T06:55:56.605Z</time></trkpt><trkpt lat="43.8865538" lon="15.7920554"><ele>137.0</ele><time>2026-05-05T06:55:57.605Z</time></trkpt><trkpt lat="43.8867964" lon="15.7918183"><ele>136.5</ele><time>2026-05-05T06:55:58.606Z</time></trkpt><trkpt lat="43.8870347" lon="15.7915798"><ele>136.0</ele><time>2026-05-05T06:55:59.605Z</time></trkpt><trkpt lat="43.8872758" lon="15.7913365"><ele>136.0</ele><time>2026-05-05T06:56:00.603Z</time></trkpt><trkpt lat="43.8875146" lon="15.7910959"><ele>136.0</ele><time>2026-05-05T06:56:01.605Z</time></trkpt><trkpt lat="43.8877595" lon="15.7908517"><ele>135.5</ele><time>2026-05-05T06:56:02.606Z</time></trkpt><trkpt lat="43.8879975" lon="15.7906104"><ele>135.0</ele><time>2026-05-05T06:56:03.605Z</time></trkpt><trkpt lat="43.8882379" lon="15.7903764"><ele>135.0</ele><time>2026-05-05T06:56:04.606Z</time></trkpt><trkpt lat="43.8884776" lon="15.7901357"><ele>135.0</ele><time>2026-05-05T06:56:05.606Z</time></trkpt><trkpt lat="43.8887164" lon="15.789895"><ele>135.0</ele><time>2026-05-05T06:56:06.605Z</time></trkpt><trkpt lat="43.888954" lon="15.7896534"><ele>135.0</ele><time>2026-05-05T06:56:07.605Z</time></trkpt><trkpt lat="43.8891942" lon="15.7894181"><ele>135.5</ele><time>2026-05-05T06:56:08.606Z</time></trkpt><trkpt lat="43.8894302" lon="15.7891817"><ele>136.0</ele><time>2026-05-05T06:56:09.606Z</time></trkpt><trkpt lat="43.8896616" lon="15.7889464"><ele>136.0</ele><time>2026-05-05T06:56:10.606Z</time></trkpt><trkpt lat="43.889892" lon="15.7887211"><ele>136.0</ele><time>2026-05-05T06:56:11.605Z</time></trkpt><trkpt lat="43.8901292" lon="15.7884857"><ele>137.0</ele><time>2026-05-05T06:56:12.606Z</time></trkpt><trkpt lat="43.8903641" lon="15.7882413"><ele>138.0</ele><time>2026-05-05T06:56:13.606Z</time></trkpt><trkpt lat="43.8905976" lon="15.7880071"><ele>138.0</ele><time>2026-05-05T06:56:14.606Z</time></trkpt><trkpt lat="43.8908268" lon="15.78777"><ele>138.0</ele><time>2026-05-05T06:56:15.606Z</time></trkpt><trkpt lat="43.8910558" lon="15.787534"><ele>138.0</ele><time>2026-05-05T06:56:16.606Z</time></trkpt><trkpt lat="43.8912867" lon="15.7873027"><ele>138.0</ele><time>2026-05-05T06:56:17.604Z</time></trkpt><trkpt lat="43.8915161" lon="15.787068"><ele>137.5</ele><time>2026-05-05T06:56:18.605Z</time></trkpt><trkpt lat="43.8917463" lon="15.7868326"><ele>137.0</ele><time>2026-05-05T06:56:19.606Z</time></trkpt><trkpt lat="43.8919773" lon="15.7865989"><ele>137.0</ele><time>2026-05-05T06:56:20.605Z</time></trkpt><trkpt lat="43.8922083" lon="15.7863654"><ele>137.0</ele><time>2026-05-05T06:56:21.605Z</time></trkpt><trkpt lat="43.8924397" lon="15.7861335"><ele>136.5</ele><time>2026-05-05T06:56:22.606Z</time></trkpt><trkpt lat="43.8926701" lon="15.7859001"><ele>136.0</ele><time>2026-05-05T06:56:23.605Z</time></trkpt><trkpt lat="43.8929003" lon="15.7856652"><ele>136.0</ele><time>2026-05-05T06:56:24.605Z</time></trkpt><trkpt lat="43.893133" lon="15.7854272"><ele>136.0</ele><time>2026-05-05T06:56:25.605Z</time></trkpt><trkpt lat="43.8933638" lon="15.7851919"><ele>136.0</ele><time>2026-05-05T06:56:26.606Z</time></trkpt><trkpt lat="43.893597" lon="15.7849573"><ele>136.0</ele><time>2026-05-05T06:56:27.606Z</time></trkpt><trkpt lat="43.8938296" lon="15.7847279"><ele>136.0</ele><time>2026-05-05T06:56:28.605Z</time></trkpt><trkpt lat="43.8940622" lon="15.7844929"><ele>136.0</ele><time>2026-05-05T06:56:29.605Z</time></trkpt><trkpt lat="43.8942936" lon="15.7842589"><ele>135.0</ele><time>2026-05-05T06:56:30.606Z</time></trkpt><trkpt lat="43.8945281" lon="15.7840174"><ele>134.0</ele><time>2026-05-05T06:56:31.605Z</time></trkpt><trkpt lat="43.894758" lon="15.7837825"><ele>134.0</ele><time>2026-05-05T06:56:32.605Z</time></trkpt><trkpt lat="43.8949829" lon="15.7835435"><ele>134.0</ele><time>2026-05-05T06:56:33.606Z</time></trkpt><trkpt lat="43.8952082" lon="15.7833004"><ele>134.5</ele><time>2026-05-05T06:56:34.605Z</time></trkpt><trkpt lat="43.8954317" lon="15.7830615"><ele>135.0</ele><time>2026-05-05T06:56:35.605Z</time></trkpt><trkpt lat="43.895653" lon="15.7828137"><ele>135.0</ele><time>2026-05-05T06:56:36.605Z</time></trkpt><trkpt lat="43.8958744" lon="15.7825708"><ele>135.0</ele><time>2026-05-05T06:56:37.605Z</time></trkpt><trkpt lat="43.8960948" lon="15.7823196"><ele>135.0</ele><time>2026-05-05T06:56:38.605Z</time></trkpt><trkpt lat="43.8963095" lon="15.7820665"><ele>135.0</ele><time>2026-05-05T06:56:39.605Z</time></trkpt><trkpt lat="43.8965263" lon="15.78181"><ele>135.0</ele><time>2026-05-05T06:56:40.605Z</time></trkpt><trkpt lat="43.8967394" lon="15.7815469"><ele>135.0</ele><time>2026-05-05T06:56:41.605Z</time></trkpt><trkpt lat="43.8969483" lon="15.7812799"><ele>134.0</ele><time>2026-05-05T06:56:42.606Z</time></trkpt><trkpt lat="43.8971576" lon="15.7810097"><ele>133.0</ele><time>2026-05-05T06:56:43.605Z</time></trkpt><trkpt lat="43.8973618" lon="15.7807327"><ele>133.0</ele><time>2026-05-05T06:56:44.605Z</time></trkpt><trkpt lat="43.8975675" lon="15.7804484"><ele>133.0</ele><time>2026-05-05T06:56:45.605Z</time></trkpt><trkpt lat="43.8977725" lon="15.7801679"><ele>133.0</ele><time>2026-05-05T06:56:46.604Z</time></trkpt><trkpt lat="43.8979746" lon="15.7798844"><ele>133.0</ele><time>2026-05-05T06:56:47.605Z</time></trkpt><trkpt lat="43.8981706" lon="15.7795907"><ele>134.0</ele><time>2026-05-05T06:56:48.605Z</time></trkpt><trkpt lat="43.8983638" lon="15.7792913"><ele>135.0</ele><time>2026-05-05T06:56:49.605Z</time></trkpt><trkpt lat="43.8985613" lon="15.778988"><ele>135.0</ele><time>2026-05-05T06:56:50.606Z</time></trkpt><trkpt lat="43.8987559" lon="15.7786836"><ele>135.0</ele><time>2026-05-05T06:56:51.606Z</time></trkpt><trkpt lat="43.8989522" lon="15.7783794"><ele>135.0</ele><time>2026-05-05T06:56:52.606Z</time></trkpt><trkpt lat="43.8991406" lon="15.7780668"><ele>135.0</ele><time>2026-05-05T06:56:53.605Z</time></trkpt><trkpt lat="43.8993269" lon="15.7777574"><ele>135.5</ele><time>2026-05-05T06:56:54.606Z</time></trkpt><trkpt lat="43.8995092" lon="15.7774482"><ele>136.0</ele><time>2026-05-05T06:56:55.606Z</time></trkpt><trkpt lat="43.8996893" lon="15.777132"><ele>137.0</ele><time>2026-05-05T06:56:56.605Z</time></trkpt><trkpt lat="43.8998649" lon="15.7768231"><ele>138.0</ele><time>2026-05-05T06:56:57.605Z</time></trkpt><trkpt lat="43.9000378" lon="15.7765012"><ele>138.5</ele><time>2026-05-05T06:56:58.605Z</time></trkpt><trkpt lat="43.9002114" lon="15.7761816"><ele>139.0</ele><time>2026-05-05T06:56:59.605Z</time></trkpt><trkpt lat="43.9003776" lon="15.7758585"><ele>140.5</ele><time>2026-05-05T06:57:00.605Z</time></trkpt><trkpt lat="43.9005402" lon="15.7755304"><ele>142.0</ele><time>2026-05-05T06:57:01.606Z</time></trkpt><trkpt lat="43.9007046" lon="15.7752004"><ele>142.0</ele><time>2026-05-05T06:57:02.604Z</time></trkpt><trkpt lat="43.9008585" lon="15.7748693"><ele>142.0</ele><time>2026-05-05T06:57:03.604Z</time></trkpt><trkpt lat="43.9010125" lon="15.7745431"><ele>141.5</ele><time>2026-05-05T06:57:04.605Z</time></trkpt><trkpt lat="43.9011615" lon="15.7742089"><ele>141.0</ele><time>2026-05-05T06:57:05.606Z</time></trkpt><trkpt lat="43.9013076" lon="15.7738795"><ele>141.0</ele><time>2026-05-05T06:57:06.605Z</time></trkpt><trkpt lat="43.9014507" lon="15.7735486"><ele>141.0</ele><time>2026-05-05T06:57:07.606Z</time></trkpt><trkpt lat="43.901591" lon="15.7732126"><ele>142.0</ele><time>2026-05-05T06:57:08.606Z</time></trkpt><trkpt lat="43.9017292" lon="15.7728751"><ele>143.0</ele><time>2026-05-05T06:57:09.605Z</time></trkpt><trkpt lat="43.9018638" lon="15.7725392"><ele>144.0</ele><time>2026-05-05T06:57:10.605Z</time></trkpt><trkpt lat="43.9020005" lon="15.7722026"><ele>145.0</ele><time>2026-05-05T06:57:11.606Z</time></trkpt><trkpt lat="43.9021316" lon="15.771861"><ele>145.0</ele><time>2026-05-05T06:57:12.605Z</time></trkpt><trkpt lat="43.9022591" lon="15.7715214"><ele>145.0</ele><time>2026-05-05T06:57:13.606Z</time></trkpt><trkpt lat="43.9023815" lon="15.7711759"><ele>145.0</ele><time>2026-05-05T06:57:14.606Z</time></trkpt><trkpt lat="43.902498" lon="15.7708368"><ele>145.0</ele><time>2026-05-05T06:57:15.606Z</time></trkpt><trkpt lat="43.9026144" lon="15.7704889"><ele>146.0</ele><time>2026-05-05T06:57:16.605Z</time></trkpt><trkpt lat="43.9027333" lon="15.7701446"><ele>147.0</ele><time>2026-05-05T06:57:17.605Z</time></trkpt><trkpt lat="43.9028545" lon="15.7697925"><ele>147.0</ele><time>2026-05-05T06:57:18.605Z</time></trkpt><trkpt lat="43.9029747" lon="15.7694321"><ele>147.0</ele><time>2026-05-05T06:57:19.606Z</time></trkpt><trkpt lat="43.9030967" lon="15.7690744"><ele>146.0</ele><time>2026-05-05T06:57:20.606Z</time></trkpt><trkpt lat="43.9032219" lon="15.7687151"><ele>145.0</ele><time>2026-05-05T06:57:21.605Z</time></trkpt><trkpt lat="43.903338" lon="15.7683628"><ele>145.0</ele><time>2026-05-05T06:57:22.606Z</time></trkpt><trkpt lat="43.9034647" lon="15.7679969"><ele>145.0</ele><time>2026-05-05T06:57:23.606Z</time></trkpt><trkpt lat="43.9035971" lon="15.7676374"><ele>145.0</ele><time>2026-05-05T06:57:24.604Z</time></trkpt><trkpt lat="43.9037267" lon="15.7672819"><ele>145.0</ele><time>2026-05-05T06:57:25.606Z</time></trkpt><trkpt lat="43.9038585" lon="15.7669249"><ele>144.5</ele><time>2026-05-05T06:57:26.605Z</time></trkpt><trkpt lat="43.9039897" lon="15.7665637"><ele>144.0</ele><time>2026-05-05T06:57:27.606Z</time></trkpt><trkpt lat="43.9041259" lon="15.7661973"><ele>146.0</ele><time>2026-05-05T06:57:28.606Z</time></trkpt><trkpt lat="43.9042581" lon="15.7658309"><ele>148.0</ele><time>2026-05-05T06:57:29.606Z</time></trkpt><trkpt lat="43.9043911" lon="15.7654736"><ele>148.5</ele><time>2026-05-05T06:57:30.605Z</time></trkpt><trkpt lat="43.904526" lon="15.7651215"><ele>149.0</ele><time>2026-05-05T06:57:31.605Z</time></trkpt><trkpt lat="43.9046606" lon="15.7647681"><ele>149.0</ele><time>2026-05-05T06:57:32.605Z</time></trkpt><trkpt lat="43.9047995" lon="15.7644126"><ele>149.0</ele><time>2026-05-05T06:57:33.606Z</time></trkpt><trkpt lat="43.9049421" lon="15.764051"><ele>150.0</ele><time>2026-05-05T06:57:34.606Z</time></trkpt><trkpt lat="43.9050841" lon="15.7636921"><ele>151.0</ele><time>2026-05-05T06:57:35.605Z</time></trkpt><trkpt lat="43.9052378" lon="15.7633397"><ele>151.0</ele><time>2026-05-05T06:57:36.605Z</time></trkpt><trkpt lat="43.9053881" lon="15.7629869"><ele>151.0</ele><time>2026-05-05T06:57:37.606Z</time></trkpt><trkpt lat="43.9055388" lon="15.7626301"><ele>151.0</ele><time>2026-05-05T06:57:38.606Z</time></trkpt><trkpt lat="43.9056967" lon="15.7622708"><ele>151.0</ele><time>2026-05-05T06:57:39.605Z</time></trkpt><trkpt lat="43.9058544" lon="15.7619218"><ele>152.0</ele><time>2026-05-05T06:57:40.606Z</time></trkpt><trkpt lat="43.9060067" lon="15.7615776"><ele>153.0</ele><time>2026-05-05T06:57:41.606Z</time></trkpt><trkpt lat="43.9061671" lon="15.7612266"><ele>153.0</ele><time>2026-05-05T06:57:42.606Z</time></trkpt><trkpt lat="43.9063249" lon="15.760881"><ele>153.0</ele><time>2026-05-05T06:57:43.604Z</time></trkpt><trkpt lat="43.9064873" lon="15.7605358"><ele>152.5</ele><time>2026-05-05T06:57:44.605Z</time></trkpt><trkpt lat="43.9066496" lon="15.7601937"><ele>152.0</ele><time>2026-05-05T06:57:45.604Z</time></trkpt><trkpt lat="43.9068123" lon="15.7598543"><ele>152.5</ele><time>2026-05-05T06:57:46.606Z</time></trkpt><trkpt lat="43.9069739" lon="15.7595143"><ele>153.0</ele><time>2026-05-05T06:57:47.606Z</time></trkpt><trkpt lat="43.9071368" lon="15.7591738"><ele>153.0</ele><time>2026-05-05T06:57:48.606Z</time></trkpt><trkpt lat="43.9073028" lon="15.7588331"><ele>153.0</ele><time>2026-05-05T06:57:49.606Z</time></trkpt><trkpt lat="43.9074722" lon="15.7585011"><ele>153.0</ele><time>2026-05-05T06:57:50.604Z</time></trkpt><trkpt lat="43.9076403" lon="15.7581787"><ele>153.0</ele><time>2026-05-05T06:57:51.606Z</time></trkpt><trkpt lat="43.9078088" lon="15.7578621"><ele>153.5</ele><time>2026-05-05T06:57:52.605Z</time></trkpt><trkpt lat="43.9079809" lon="15.7575391"><ele>154.0</ele><time>2026-05-05T06:57:53.605Z</time></trkpt><trkpt lat="43.9081532" lon="15.7572149"><ele>154.0</ele><time>2026-05-05T06:57:54.605Z</time></trkpt><trkpt lat="43.908327" lon="15.7568922"><ele>154.0</ele><time>2026-05-05T06:57:55.606Z</time></trkpt><trkpt lat="43.908504" lon="15.7565761"><ele>155.0</ele><time>2026-05-05T06:57:56.605Z</time></trkpt><trkpt lat="43.9086863" lon="15.7562661"><ele>156.0</ele><time>2026-05-05T06:57:57.605Z</time></trkpt><trkpt lat="43.9088648" lon="15.7559444"><ele>156.5</ele><time>2026-05-05T06:57:58.606Z</time></trkpt><trkpt lat="43.909045" lon="15.7556235"><ele>157.0</ele><time>2026-05-05T06:57:59.605Z</time></trkpt><trkpt lat="43.9092245" lon="15.755303"><ele>157.5</ele><time>2026-05-05T06:58:00.605Z</time></trkpt><trkpt lat="43.9094089" lon="15.7549872"><ele>158.0</ele><time>2026-05-05T06:58:01.605Z</time></trkpt><trkpt lat="43.9095943" lon="15.7546712"><ele>157.0</ele><time>2026-05-05T06:58:02.604Z</time></trkpt><trkpt lat="43.9097818" lon="15.75436"><ele>156.0</ele><time>2026-05-05T06:58:03.605Z</time></trkpt><trkpt lat="43.9099717" lon="15.7540489"><ele>157.0</ele><time>2026-05-05T06:58:04.606Z</time></trkpt><trkpt lat="43.9101599" lon="15.7537444"><ele>158.0</ele><time>2026-05-05T06:58:05.605Z</time></trkpt><trkpt lat="43.9103483" lon="15.7534381"><ele>158.0</ele><time>2026-05-05T06:58:06.606Z</time></trkpt><trkpt lat="43.9105444" lon="15.7531293"><ele>158.0</ele><time>2026-05-05T06:58:07.605Z</time></trkpt><trkpt lat="43.9107402" lon="15.7528261"><ele>158.0</ele><time>2026-05-05T06:58:08.605Z</time></trkpt><trkpt lat="43.9109395" lon="15.7525253"><ele>158.0</ele><time>2026-05-05T06:58:09.605Z</time></trkpt><trkpt lat="43.9111341" lon="15.7522275"><ele>158.0</ele><time>2026-05-05T06:58:10.606Z</time></trkpt><trkpt lat="43.9113331" lon="15.7519358"><ele>158.0</ele><time>2026-05-05T06:58:11.606Z</time></trkpt><trkpt lat="43.9115379" lon="15.7516356"><ele>159.0</ele><time>2026-05-05T06:58:12.606Z</time></trkpt><trkpt lat="43.9117431" lon="15.7513376"><ele>160.0</ele><time>2026-05-05T06:58:13.606Z</time></trkpt><trkpt lat="43.9119527" lon="15.7510368"><ele>160.0</ele><time>2026-05-05T06:58:14.605Z</time></trkpt><trkpt lat="43.9121589" lon="15.7507286"><ele>160.0</ele><time>2026-05-05T06:58:15.606Z</time></trkpt><trkpt lat="43.9123648" lon="15.750428"><ele>160.0</ele><time>2026-05-05T06:58:16.604Z</time></trkpt><trkpt lat="43.9125858" lon="15.7501279"><ele>160.0</ele><time>2026-05-05T06:58:17.605Z</time></trkpt><trkpt lat="43.9127995" lon="15.7498364"><ele>160.0</ele><time>2026-05-05T06:58:18.605Z</time></trkpt><trkpt lat="43.9130194" lon="15.7495379"><ele>160.0</ele><time>2026-05-05T06:58:19.606Z</time></trkpt><trkpt lat="43.9132409" lon="15.7492444"><ele>160.5</ele><time>2026-05-05T06:58:20.606Z</time></trkpt><trkpt lat="43.9134585" lon="15.7489507"><ele>161.0</ele><time>2026-05-05T06:58:21.606Z</time></trkpt><trkpt lat="43.9136743" lon="15.7486671"><ele>160.5</ele><time>2026-05-05T06:58:22.605Z</time></trkpt><trkpt lat="43.9138918" lon="15.7483721"><ele>160.0</ele><time>2026-05-05T06:58:23.605Z</time></trkpt><trkpt lat="43.914111" lon="15.7480746"><ele>161.0</ele><time>2026-05-05T06:58:24.606Z</time></trkpt><trkpt lat="43.9143403" lon="15.7477747"><ele>162.0</ele><time>2026-05-05T06:58:25.605Z</time></trkpt><trkpt lat="43.9145621" lon="15.7474807"><ele>162.0</ele><time>2026-05-05T06:58:26.604Z</time></trkpt><trkpt lat="43.914784" lon="15.7471866"><ele>162.0</ele><time>2026-05-05T06:58:27.605Z</time></trkpt><trkpt lat="43.9150081" lon="15.7468813"><ele>162.0</ele><time>2026-05-05T06:58:28.606Z</time></trkpt><trkpt lat="43.9152243" lon="15.7466001"><ele>162.0</ele><time>2026-05-05T06:58:29.605Z</time></trkpt><trkpt lat="43.915439" lon="15.7463118"><ele>162.0</ele><time>2026-05-05T06:58:30.606Z</time></trkpt><trkpt lat="43.9156546" lon="15.7460241"><ele>162.0</ele><time>2026-05-05T06:58:31.605Z</time></trkpt><trkpt lat="43.91587" lon="15.7457332"><ele>163.0</ele><time>2026-05-05T06:58:32.604Z</time></trkpt><trkpt lat="43.9160808" lon="15.7454372"><ele>164.0</ele><time>2026-05-05T06:58:33.605Z</time></trkpt><trkpt lat="43.9162878" lon="15.7451408"><ele>164.0</ele><time>2026-05-05T06:58:34.606Z</time></trkpt><trkpt lat="43.9164992" lon="15.7448391"><ele>164.0</ele><time>2026-05-05T06:58:35.606Z</time></trkpt><trkpt lat="43.9167124" lon="15.7445422"><ele>164.0</ele><time>2026-05-05T06:58:36.605Z</time></trkpt><trkpt lat="43.9169197" lon="15.7442374"><ele>164.0</ele><time>2026-05-05T06:58:37.605Z</time></trkpt><trkpt lat="43.9171283" lon="15.7439273"><ele>164.0</ele><time>2026-05-05T06:58:38.605Z</time></trkpt><trkpt lat="43.9173299" lon="15.7436178"><ele>164.0</ele><time>2026-05-05T06:58:39.606Z</time></trkpt><trkpt lat="43.9175317" lon="15.7433041"><ele>163.5</ele><time>2026-05-05T06:58:40.606Z</time></trkpt><trkpt lat="43.9177322" lon="15.7429871"><ele>163.0</ele><time>2026-05-05T06:58:41.606Z</time></trkpt><trkpt lat="43.9179342" lon="15.7426739"><ele>163.0</ele><time>2026-05-05T06:58:42.606Z</time></trkpt><trkpt lat="43.9181347" lon="15.7423533"><ele>163.0</ele><time>2026-05-05T06:58:43.605Z</time></trkpt><trkpt lat="43.9183339" lon="15.7420292"><ele>163.5</ele><time>2026-05-05T06:58:44.606Z</time></trkpt><trkpt lat="43.9185302" lon="15.7417023"><ele>164.0</ele><time>2026-05-05T06:58:45.606Z</time></trkpt><trkpt lat="43.9187285" lon="15.7413765"><ele>163.5</ele><time>2026-05-05T06:58:46.605Z</time></trkpt><trkpt lat="43.9189212" lon="15.7410428"><ele>163.0</ele><time>2026-05-05T06:58:47.606Z</time></trkpt><trkpt lat="43.9191136" lon="15.7407077"><ele>163.5</ele><time>2026-05-05T06:58:48.605Z</time></trkpt><trkpt lat="43.9193074" lon="15.7403734"><ele>164.0</ele><time>2026-05-05T06:58:49.604Z</time></trkpt><trkpt lat="43.9194972" lon="15.7400256"><ele>164.0</ele><time>2026-05-05T06:58:50.605Z</time></trkpt><trkpt lat="43.9196873" lon="15.7396754"><ele>164.0</ele><time>2026-05-05T06:58:51.603Z</time></trkpt><trkpt lat="43.9198725" lon="15.7393294"><ele>164.0</ele><time>2026-05-05T06:58:52.606Z</time></trkpt><trkpt lat="43.9200584" lon="15.7389805"><ele>164.0</ele><time>2026-05-05T06:58:53.604Z</time></trkpt><trkpt lat="43.9202406" lon="15.7386283"><ele>163.5</ele><time>2026-05-05T06:58:54.605Z</time></trkpt><trkpt lat="43.9204217" lon="15.7382716"><ele>163.0</ele><time>2026-05-05T06:58:55.606Z</time></trkpt><trkpt lat="43.9206079" lon="15.7379053"><ele>163.0</ele><time>2026-05-05T06:58:56.605Z</time></trkpt><trkpt lat="43.9207899" lon="15.7375355"><ele>163.0</ele><time>2026-05-05T06:58:57.605Z</time></trkpt><trkpt lat="43.9209682" lon="15.7371711"><ele>163.5</ele><time>2026-05-05T06:58:58.605Z</time></trkpt><trkpt lat="43.9211463" lon="15.7368004"><ele>164.0</ele><time>2026-05-05T06:58:59.606Z</time></trkpt><trkpt lat="43.9213215" lon="15.7364231"><ele>163.5</ele><time>2026-05-05T06:59:00.606Z</time></trkpt><trkpt lat="43.9214992" lon="15.7360515"><ele>163.0</ele><time>2026-05-05T06:59:01.604Z</time></trkpt><trkpt lat="43.9216737" lon="15.7356743"><ele>163.5</ele><time>2026-05-05T06:59:02.604Z</time></trkpt><trkpt lat="43.9218488" lon="15.7352966"><ele>164.0</ele><time>2026-05-05T06:59:03.605Z</time></trkpt><trkpt lat="43.9220191" lon="15.7349154"><ele>163.0</ele><time>2026-05-05T06:59:04.606Z</time></trkpt><trkpt lat="43.9221896" lon="15.7345286"><ele>162.0</ele><time>2026-05-05T06:59:05.604Z</time></trkpt><trkpt lat="43.922352" lon="15.7341518"><ele>162.0</ele><time>2026-05-05T06:59:06.606Z</time></trkpt><trkpt lat="43.9225142" lon="15.7337691"><ele>162.0</ele><time>2026-05-05T06:59:07.603Z</time></trkpt><trkpt lat="43.9226704" lon="15.733381"><ele>162.0</ele><time>2026-05-05T06:59:08.606Z</time></trkpt><trkpt lat="43.9228253" lon="15.7329939"><ele>162.0</ele><time>2026-05-05T06:59:09.606Z</time></trkpt><trkpt lat="43.9229794" lon="15.732605"><ele>161.5</ele><time>2026-05-05T06:59:10.606Z</time></trkpt><trkpt lat="43.9231342" lon="15.7322274"><ele>161.0</ele><time>2026-05-05T06:59:11.606Z</time></trkpt><trkpt lat="43.9232891" lon="15.7318447"><ele>159.5</ele><time>2026-05-05T06:59:12.606Z</time></trkpt><trkpt lat="43.9234425" lon="15.7314677"><ele>158.0</ele><time>2026-05-05T06:59:13.606Z</time></trkpt><trkpt lat="43.9235929" lon="15.7310854"><ele>158.5</ele><time>2026-05-05T06:59:14.606Z</time></trkpt><trkpt lat="43.9237493" lon="15.7307045"><ele>159.0</ele><time>2026-05-05T06:59:15.605Z</time></trkpt><trkpt lat="43.9238996" lon="15.7303313"><ele>159.0</ele><time>2026-05-05T06:59:16.605Z</time></trkpt><trkpt lat="43.924051" lon="15.7299514"><ele>159.0</ele><time>2026-05-05T06:59:17.606Z</time></trkpt><trkpt lat="43.9242028" lon="15.7295706"><ele>157.5</ele><time>2026-05-05T06:59:18.605Z</time></trkpt><trkpt lat="43.924354" lon="15.7291947"><ele>156.0</ele><time>2026-05-05T06:59:19.605Z</time></trkpt><trkpt lat="43.9245033" lon="15.7288166"><ele>156.0</ele><time>2026-05-05T06:59:20.605Z</time></trkpt><trkpt lat="43.9246566" lon="15.7284341"><ele>156.0</ele><time>2026-05-05T06:59:21.606Z</time></trkpt><trkpt lat="43.9248087" lon="15.7280572"><ele>156.0</ele><time>2026-05-05T06:59:22.605Z</time></trkpt><trkpt lat="43.9249629" lon="15.7276751"><ele>156.0</ele><time>2026-05-05T06:59:23.605Z</time></trkpt><trkpt lat="43.9251224" lon="15.7272963"><ele>156.0</ele><time>2026-05-05T06:59:24.605Z</time></trkpt><trkpt lat="43.9252815" lon="15.7269221"><ele>156.0</ele><time>2026-05-05T06:59:25.606Z</time></trkpt><trkpt lat="43.9254416" lon="15.7265535"><ele>155.5</ele><time>2026-05-05T06:59:26.605Z</time></trkpt><trkpt lat="43.9256007" lon="15.7261827"><ele>155.0</ele><time>2026-05-05T06:59:27.606Z</time></trkpt><trkpt lat="43.9257583" lon="15.7258104"><ele>155.0</ele><time>2026-05-05T06:59:28.605Z</time></trkpt><trkpt lat="43.9259192" lon="15.7254448"><ele>155.0</ele><time>2026-05-05T06:59:29.604Z</time></trkpt><trkpt lat="43.9260796" lon="15.7250743"><ele>155.0</ele><time>2026-05-05T06:59:30.605Z</time></trkpt><trkpt lat="43.9262416" lon="15.7247014"><ele>155.0</ele><time>2026-05-05T06:59:31.605Z</time></trkpt><trkpt lat="43.9264039" lon="15.7243378"><ele>155.0</ele><time>2026-05-05T06:59:32.606Z</time></trkpt><trkpt lat="43.9265684" lon="15.7239719"><ele>155.0</ele><time>2026-05-05T06:59:33.605Z</time></trkpt><trkpt lat="43.9267341" lon="15.7236073"><ele>155.5</ele><time>2026-05-05T06:59:34.605Z</time></trkpt><trkpt lat="43.9269029" lon="15.7232468"><ele>156.0</ele><time>2026-05-05T06:59:35.605Z</time></trkpt><trkpt lat="43.9270782" lon="15.7228788"><ele>155.0</ele><time>2026-05-05T06:59:36.606Z</time></trkpt><trkpt lat="43.9272477" lon="15.7225144"><ele>154.0</ele><time>2026-05-05T06:59:37.606Z</time></trkpt><trkpt lat="43.9274213" lon="15.7221447"><ele>155.0</ele><time>2026-05-05T06:59:38.605Z</time></trkpt><trkpt lat="43.9275966" lon="15.7217762"><ele>156.0</ele><time>2026-05-05T06:59:39.604Z</time></trkpt><trkpt lat="43.9277797" lon="15.7214024"><ele>155.0</ele><time>2026-05-05T06:59:40.604Z</time></trkpt><trkpt lat="43.92796" lon="15.7210339"><ele>154.0</ele><time>2026-05-05T06:59:41.606Z</time></trkpt><trkpt lat="43.9281396" lon="15.7206688"><ele>154.0</ele><time>2026-05-05T06:59:42.605Z</time></trkpt><trkpt lat="43.9283225" lon="15.7203011"><ele>154.0</ele><time>2026-05-05T06:59:43.606Z</time></trkpt><trkpt lat="43.9285058" lon="15.7199411"><ele>153.5</ele><time>2026-05-05T06:59:44.605Z</time></trkpt><trkpt lat="43.9286915" lon="15.7195717"><ele>153.0</ele><time>2026-05-05T06:59:45.605Z</time></trkpt><trkpt lat="43.9288797" lon="15.7192023"><ele>152.5</ele><time>2026-05-05T06:59:46.605Z</time></trkpt><trkpt lat="43.9290697" lon="15.7188296"><ele>152.0</ele><time>2026-05-05T06:59:47.605Z</time></trkpt><trkpt lat="43.9292598" lon="15.7184617"><ele>152.0</ele><time>2026-05-05T06:59:48.606Z</time></trkpt><trkpt lat="43.9294494" lon="15.7181022"><ele>152.0</ele><time>2026-05-05T06:59:49.606Z</time></trkpt><trkpt lat="43.9296325" lon="15.7177406"><ele>152.0</ele><time>2026-05-05T06:59:50.606Z</time></trkpt><trkpt lat="43.9298277" lon="15.7173859"><ele>152.0</ele><time>2026-05-05T06:59:51.605Z</time></trkpt><trkpt lat="43.9300163" lon="15.7170417"><ele>151.5</ele><time>2026-05-05T06:59:52.605Z</time></trkpt><trkpt lat="43.930205" lon="15.7166976"><ele>151.0</ele><time>2026-05-05T06:59:53.605Z</time></trkpt><trkpt lat="43.930391" lon="15.7163599"><ele>151.5</ele><time>2026-05-05T06:59:54.605Z</time></trkpt><trkpt lat="43.9305816" lon="15.716023"><ele>152.0</ele><time>2026-05-05T06:59:55.606Z</time></trkpt><trkpt lat="43.9307673" lon="15.7156918"><ele>152.0</ele><time>2026-05-05T06:59:56.606Z</time></trkpt><trkpt lat="43.930963" lon="15.7153568"><ele>152.0</ele><time>2026-05-05T06:59:57.605Z</time></trkpt><trkpt lat="43.9311506" lon="15.715029"><ele>152.0</ele><time>2026-05-05T06:59:58.606Z</time></trkpt><trkpt lat="43.9313394" lon="15.7147063"><ele>152.0</ele><time>2026-05-05T06:59:59.605Z</time></trkpt><trkpt lat="43.9315278" lon="15.7143832"><ele>152.0</ele><time>2026-05-05T07:00:00.605Z</time></trkpt><trkpt lat="43.9317146" lon="15.7140632"><ele>152.0</ele><time>2026-05-05T07:00:01.606Z</time></trkpt><trkpt lat="43.931905" lon="15.7137521"><ele>152.0</ele><time>2026-05-05T07:00:02.606Z</time></trkpt><trkpt lat="43.9320923" lon="15.7134321"><ele>152.0</ele><time>2026-05-05T07:00:03.605Z</time></trkpt><trkpt lat="43.932277" lon="15.7131195"><ele>152.0</ele><time>2026-05-05T07:00:04.606Z</time></trkpt><trkpt lat="43.9324629" lon="15.7128104"><ele>152.0</ele><time>2026-05-05T07:00:05.606Z</time></trkpt><trkpt lat="43.9326494" lon="15.7125026"><ele>151.0</ele><time>2026-05-05T07:00:06.605Z</time></trkpt><trkpt lat="43.9328373" lon="15.7121985"><ele>150.0</ele><time>2026-05-05T07:00:07.606Z</time></trkpt><trkpt lat="43.9330266" lon="15.7118943"><ele>150.0</ele><time>2026-05-05T07:00:08.604Z</time></trkpt><trkpt lat="43.9332135" lon="15.7115897"><ele>150.0</ele><time>2026-05-05T07:00:09.605Z</time></trkpt><trkpt lat="43.9334013" lon="15.7112813"><ele>149.0</ele><time>2026-05-05T07:00:10.604Z</time></trkpt><trkpt lat="43.9335914" lon="15.7109792"><ele>148.0</ele><time>2026-05-05T07:00:11.606Z</time></trkpt><trkpt lat="43.933788" lon="15.7106807"><ele>148.0</ele><time>2026-05-05T07:00:12.606Z</time></trkpt><trkpt lat="43.933988" lon="15.7103738"><ele>148.0</ele><time>2026-05-05T07:00:13.606Z</time></trkpt><trkpt lat="43.9341825" lon="15.7100735"><ele>146.0</ele><time>2026-05-05T07:00:14.606Z</time></trkpt><trkpt lat="43.9343762" lon="15.7097748"><ele>144.0</ele><time>2026-05-05T07:00:15.605Z</time></trkpt><trkpt lat="43.9345739" lon="15.7094757"><ele>145.0</ele><time>2026-05-05T07:00:16.606Z</time></trkpt><trkpt lat="43.9347698" lon="15.7091801"><ele>146.0</ele><time>2026-05-05T07:00:17.606Z</time></trkpt><trkpt lat="43.9349685" lon="15.708884"><ele>146.5</ele><time>2026-05-05T07:00:18.605Z</time></trkpt><trkpt lat="43.9351635" lon="15.7085866"><ele>147.0</ele><time>2026-05-05T07:00:19.604Z</time></trkpt><trkpt lat="43.9353654" lon="15.708292"><ele>147.0</ele><time>2026-05-05T07:00:20.606Z</time></trkpt><trkpt lat="43.935572" lon="15.7079997"><ele>147.0</ele><time>2026-05-05T07:00:21.605Z</time></trkpt><trkpt lat="43.9357773" lon="15.7077094"><ele>147.5</ele><time>2026-05-05T07:00:22.605Z</time></trkpt><trkpt lat="43.9359815" lon="15.7074211"><ele>148.0</ele><time>2026-05-05T07:00:23.605Z</time></trkpt><trkpt lat="43.9361836" lon="15.7071307"><ele>148.0</ele><time>2026-05-05T07:00:24.605Z</time></trkpt><trkpt lat="43.9363844" lon="15.7068602"><ele>148.0</ele><time>2026-05-05T07:00:25.605Z</time></trkpt><trkpt lat="43.9365897" lon="15.7065773"><ele>147.5</ele><time>2026-05-05T07:00:26.606Z</time></trkpt><trkpt lat="43.9367914" lon="15.7062948"><ele>147.0</ele><time>2026-05-05T07:00:27.605Z</time></trkpt><trkpt lat="43.9370003" lon="15.7060193"><ele>147.0</ele><time>2026-05-05T07:00:28.606Z</time></trkpt><trkpt lat="43.9372021" lon="15.7057419"><ele>147.0</ele><time>2026-05-05T07:00:29.606Z</time></trkpt><trkpt lat="43.9374102" lon="15.7054636"><ele>147.0</ele><time>2026-05-05T07:00:30.605Z</time></trkpt><trkpt lat="43.9376186" lon="15.7051882"><ele>147.0</ele><time>2026-05-05T07:00:31.606Z</time></trkpt><trkpt lat="43.9378321" lon="15.7049131"><ele>147.0</ele><time>2026-05-05T07:00:32.605Z</time></trkpt><trkpt lat="43.9380364" lon="15.7046369"><ele>147.0</ele><time>2026-05-05T07:00:33.605Z</time></trkpt><trkpt lat="43.9382482" lon="15.7043604"><ele>148.0</ele><time>2026-05-05T07:00:34.605Z</time></trkpt><trkpt lat="43.9384572" lon="15.7040807"><ele>149.0</ele><time>2026-05-05T07:00:35.606Z</time></trkpt><trkpt lat="43.9386683" lon="15.7038058"><ele>150.0</ele><time>2026-05-05T07:00:36.605Z</time></trkpt><trkpt lat="43.9388747" lon="15.7035342"><ele>151.0</ele><time>2026-05-05T07:00:37.606Z</time></trkpt><trkpt lat="43.9390866" lon="15.7032611"><ele>151.0</ele><time>2026-05-05T07:00:38.606Z</time></trkpt><trkpt lat="43.9392972" lon="15.70299"><ele>151.0</ele><time>2026-05-05T07:00:39.605Z</time></trkpt><trkpt lat="43.9395076" lon="15.7027229"><ele>151.0</ele><time>2026-05-05T07:00:40.605Z</time></trkpt><trkpt lat="43.9397185" lon="15.702456"><ele>151.0</ele><time>2026-05-05T07:00:41.605Z</time></trkpt><trkpt lat="43.9399252" lon="15.7021857"><ele>151.5</ele><time>2026-05-05T07:00:42.606Z</time></trkpt><trkpt lat="43.9401296" lon="15.7019311"><ele>152.0</ele><time>2026-05-05T07:00:43.606Z</time></trkpt><trkpt lat="43.9403335" lon="15.7016619"><ele>152.5</ele><time>2026-05-05T07:00:44.606Z</time></trkpt><trkpt lat="43.9405389" lon="15.7014034"><ele>153.0</ele><time>2026-05-05T07:00:45.605Z</time></trkpt><trkpt lat="43.9407416" lon="15.7011517"><ele>154.0</ele><time>2026-05-05T07:00:46.605Z</time></trkpt><trkpt lat="43.9409449" lon="15.7008979"><ele>155.0</ele><time>2026-05-05T07:00:47.605Z</time></trkpt><trkpt lat="43.9411362" lon="15.7006566"><ele>155.0</ele><time>2026-05-05T07:00:48.605Z</time></trkpt><trkpt lat="43.9413199" lon="15.7004226"><ele>155.0</ele><time>2026-05-05T07:00:49.605Z</time></trkpt><trkpt lat="43.9414973" lon="15.7001967"><ele>155.33333333333331</ele><time>2026-05-05T07:00:50.605Z</time></trkpt><trkpt lat="43.9416656" lon="15.6999823"><ele>155.66666666666666</ele><time>2026-05-05T07:00:51.604Z</time></trkpt><trkpt lat="43.9418263" lon="15.6997835"><ele>156.0</ele><time>2026-05-05T07:00:52.604Z</time></trkpt><trkpt lat="43.9419792" lon="15.6995952"><ele>156.0</ele><time>2026-05-05T07:00:53.605Z</time></trkpt><trkpt lat="43.9421243" lon="15.6994152"><ele>156.0</ele><time>2026-05-05T07:00:54.606Z</time></trkpt><trkpt lat="43.9422696" lon="15.6992404"><ele>156.0</ele><time>2026-05-05T07:00:55.605Z</time></trkpt><trkpt lat="43.9424087" lon="15.6990645"><ele>156.0</ele><time>2026-05-05T07:00:56.606Z</time></trkpt><trkpt lat="43.9425464" lon="15.6988871"><ele>156.0</ele><time>2026-05-05T07:00:57.605Z</time></trkpt><trkpt lat="43.9426841" lon="15.698708"><ele>156.0</ele><time>2026-05-05T07:00:58.606Z</time></trkpt><trkpt lat="43.9428163" lon="15.698537"><ele>156.33333333333334</ele><time>2026-05-05T07:00:59.605Z</time></trkpt><trkpt lat="43.9429438" lon="15.6983663"><ele>156.66666666666669</ele><time>2026-05-05T07:01:00.605Z</time></trkpt><trkpt lat="43.9430677" lon="15.6982112"><ele>157.0</ele><time>2026-05-05T07:01:01.605Z</time></trkpt><trkpt lat="43.9431904" lon="15.698072"><ele>157.0</ele><time>2026-05-05T07:01:02.606Z</time></trkpt><trkpt lat="43.9433142" lon="15.6979329"><ele>157.0</ele><time>2026-05-05T07:01:03.605Z</time></trkpt><trkpt lat="43.9434304" lon="15.6978115"><ele>157.0</ele><time>2026-05-05T07:01:04.606Z</time></trkpt><trkpt lat="43.9435439" lon="15.697701"><ele>157.0</ele><time>2026-05-05T07:01:05.605Z</time></trkpt><trkpt lat="43.9436577" lon="15.6975984"><ele>157.25</ele><time>2026-05-05T07:01:06.605Z</time></trkpt><trkpt lat="43.9437709" lon="15.6974964"><ele>157.5</ele><time>2026-05-05T07:01:07.604Z</time></trkpt><trkpt lat="43.9438845" lon="15.6973878"><ele>157.75</ele><time>2026-05-05T07:01:08.605Z</time></trkpt><trkpt lat="43.9439933" lon="15.6972713"><ele>158.0</ele><time>2026-05-05T07:01:09.605Z</time></trkpt><trkpt lat="43.9440928" lon="15.697144"><ele>158.0</ele><time>2026-05-05T07:01:10.605Z</time></trkpt><trkpt lat="43.9441873" lon="15.6970117"><ele>158.0</ele><time>2026-05-05T07:01:11.605Z</time></trkpt><trkpt lat="43.9442808" lon="15.6968796"><ele>158.0</ele><time>2026-05-05T07:01:12.605Z</time></trkpt><trkpt lat="43.9443744" lon="15.6967589"><ele>158.0</ele><time>2026-05-05T07:01:13.605Z</time></trkpt><trkpt lat="43.9444583" lon="15.6966461"><ele>158.60000000000002</ele><time>2026-05-05T07:01:14.604Z</time></trkpt><trkpt lat="43.9445399" lon="15.6965386"><ele>159.20000000000002</ele><time>2026-05-05T07:01:15.605Z</time></trkpt><trkpt lat="43.9446139" lon="15.6964425"><ele>159.8</ele><time>2026-05-05T07:01:16.606Z</time></trkpt><trkpt lat="43.9446831" lon="15.6963535"><ele>160.4</ele><time>2026-05-05T07:01:17.606Z</time></trkpt><trkpt lat="43.9447471" lon="15.6962689"><ele>161.0</ele><time>2026-05-05T07:01:18.606Z</time></trkpt><trkpt lat="43.9447965" lon="15.6961981"><ele>161.0</ele><time>2026-05-05T07:01:19.605Z</time></trkpt><trkpt lat="43.9448611" lon="15.6961175"><ele>161.0</ele><time>2026-05-05T07:01:21.606Z</time></trkpt><trkpt lat="43.9448791" lon="15.6960261"><ele>161.0</ele><time>2026-05-05T07:10:59.596Z</time></trkpt><trkpt lat="43.944937" lon="15.6958643"><ele>161.0</ele><time>2026-05-05T07:12:50.596Z</time></trkpt><trkpt lat="43.9449858" lon="15.6957927"><ele>161.0</ele><time>2026-05-05T07:12:51.596Z</time></trkpt><trkpt lat="43.9450406" lon="15.6957222"><ele>161.0</ele><time>2026-05-05T07:12:52.595Z</time></trkpt><trkpt lat="43.9451048" lon="15.6956464"><ele>161.0</ele><time>2026-05-05T07:12:53.595Z</time></trkpt><trkpt lat="43.9451737" lon="15.6955586"><ele>161.0</ele><time>2026-05-05T07:12:54.595Z</time></trkpt><trkpt lat="43.9452442" lon="15.6954621"><ele>161.0</ele><time>2026-05-05T07:12:55.595Z</time></trkpt><trkpt lat="43.9453123" lon="15.6953555"><ele>161.0</ele><time>2026-05-05T07:12:56.595Z</time></trkpt><trkpt lat="43.9453785" lon="15.6952408"><ele>161.0</ele><time>2026-05-05T07:12:57.595Z</time></trkpt><trkpt lat="43.9454394" lon="15.6951116"><ele>160.5</ele><time>2026-05-05T07:12:58.596Z</time></trkpt><trkpt lat="43.9454994" lon="15.6949644"><ele>160.0</ele><time>2026-05-05T07:12:59.596Z</time></trkpt><trkpt lat="43.9455666" lon="15.6948024"><ele>159.5</ele><time>2026-05-05T07:13:00.595Z</time></trkpt><trkpt lat="43.9456454" lon="15.6946309"><ele>159.0</ele><time>2026-05-05T07:13:01.596Z</time></trkpt><trkpt lat="43.9457373" lon="15.6944594"><ele>159.33333333333334</ele><time>2026-05-05T07:13:02.595Z</time></trkpt><trkpt lat="43.9458448" lon="15.6942874"><ele>159.66666666666669</ele><time>2026-05-05T07:13:03.596Z</time></trkpt><trkpt lat="43.9459597" lon="15.6941082"><ele>160.0</ele><time>2026-05-05T07:13:04.595Z</time></trkpt><trkpt lat="43.9460817" lon="15.6939278"><ele>160.33333333333334</ele><time>2026-05-05T07:13:05.596Z</time></trkpt><trkpt lat="43.946212" lon="15.6937375"><ele>160.66666666666666</ele><time>2026-05-05T07:13:06.595Z</time></trkpt><trkpt lat="43.9463431" lon="15.6935285"><ele>161.0</ele><time>2026-05-05T07:13:07.596Z</time></trkpt><trkpt lat="43.9464788" lon="15.6933136"><ele>161.0</ele><time>2026-05-05T07:13:08.596Z</time></trkpt><trkpt lat="43.9466151" lon="15.6930959"><ele>161.0</ele><time>2026-05-05T07:13:09.595Z</time></trkpt><trkpt lat="43.94675" lon="15.6928711"><ele>161.0</ele><time>2026-05-05T07:13:10.595Z</time></trkpt><trkpt lat="43.94689" lon="15.6926452"><ele>162.5</ele><time>2026-05-05T07:13:11.595Z</time></trkpt><trkpt lat="43.9470331" lon="15.6924067"><ele>164.0</ele><time>2026-05-05T07:13:12.595Z</time></trkpt><trkpt lat="43.9471852" lon="15.692166"><ele>163.5</ele><time>2026-05-05T07:13:13.596Z</time></trkpt><trkpt lat="43.9473412" lon="15.6919188"><ele>163.0</ele><time>2026-05-05T07:13:14.595Z</time></trkpt><trkpt lat="43.9475031" lon="15.6916672"><ele>164.5</ele><time>2026-05-05T07:13:15.595Z</time></trkpt><trkpt lat="43.9476679" lon="15.6914046"><ele>166.0</ele><time>2026-05-05T07:13:16.596Z</time></trkpt><trkpt lat="43.9478344" lon="15.6911356"><ele>165.0</ele><time>2026-05-05T07:13:17.595Z</time></trkpt><trkpt lat="43.9480013" lon="15.690861"><ele>164.0</ele><time>2026-05-05T07:13:18.596Z</time></trkpt><trkpt lat="43.9481698" lon="15.6905871"><ele>164.0</ele><time>2026-05-05T07:13:19.596Z</time></trkpt><trkpt lat="43.9483368" lon="15.690308"><ele>164.0</ele><time>2026-05-05T07:13:20.595Z</time></trkpt><trkpt lat="43.9485078" lon="15.690028"><ele>164.5</ele><time>2026-05-05T07:13:21.596Z</time></trkpt><trkpt lat="43.9486773" lon="15.6897411"><ele>165.0</ele><time>2026-05-05T07:13:22.596Z</time></trkpt><trkpt lat="43.9488457" lon="15.6894503"><ele>164.5</ele><time>2026-05-05T07:13:23.595Z</time></trkpt><trkpt lat="43.9490166" lon="15.689164"><ele>164.0</ele><time>2026-05-05T07:13:24.595Z</time></trkpt><trkpt lat="43.9491859" lon="15.6888718"><ele>165.0</ele><time>2026-05-05T07:13:25.596Z</time></trkpt><trkpt lat="43.9493488" lon="15.6885816"><ele>166.0</ele><time>2026-05-05T07:13:26.596Z</time></trkpt><trkpt lat="43.949513" lon="15.6882886"><ele>166.0</ele><time>2026-05-05T07:13:27.595Z</time></trkpt><trkpt lat="43.949679" lon="15.6879841"><ele>166.0</ele><time>2026-05-05T07:13:28.595Z</time></trkpt><trkpt lat="43.9498524" lon="15.6876823"><ele>166.0</ele><time>2026-05-05T07:13:29.596Z</time></trkpt><trkpt lat="43.9500226" lon="15.6873789"><ele>166.0</ele><time>2026-05-05T07:13:30.596Z</time></trkpt><trkpt lat="43.9501921" lon="15.6870756"><ele>165.5</ele><time>2026-05-05T07:13:31.595Z</time></trkpt><trkpt lat="43.9503626" lon="15.6867629"><ele>165.0</ele><time>2026-05-05T07:13:32.596Z</time></trkpt><trkpt lat="43.9505341" lon="15.6864526"><ele>165.0</ele><time>2026-05-05T07:13:33.595Z</time></trkpt><trkpt lat="43.9507032" lon="15.6861397"><ele>165.0</ele><time>2026-05-05T07:13:34.595Z</time></trkpt><trkpt lat="43.9508715" lon="15.6858314"><ele>165.0</ele><time>2026-05-05T07:13:35.595Z</time></trkpt><trkpt lat="43.9510381" lon="15.6855212"><ele>165.0</ele><time>2026-05-05T07:13:36.596Z</time></trkpt><trkpt lat="43.9512036" lon="15.6852098"><ele>165.0</ele><time>2026-05-05T07:13:37.596Z</time></trkpt><trkpt lat="43.9513687" lon="15.6848981"><ele>165.0</ele><time>2026-05-05T07:13:38.596Z</time></trkpt><trkpt lat="43.9515367" lon="15.6845868"><ele>165.0</ele><time>2026-05-05T07:13:39.595Z</time></trkpt><trkpt lat="43.9516993" lon="15.6842784"><ele>165.0</ele><time>2026-05-05T07:13:40.595Z</time></trkpt><trkpt lat="43.9518616" lon="15.6839629"><ele>165.0</ele><time>2026-05-05T07:13:41.596Z</time></trkpt><trkpt lat="43.9520197" lon="15.6836439"><ele>165.0</ele><time>2026-05-05T07:13:42.595Z</time></trkpt><trkpt lat="43.9521802" lon="15.6833265"><ele>164.5</ele><time>2026-05-05T07:13:43.596Z</time></trkpt><trkpt lat="43.9523362" lon="15.6830017"><ele>164.0</ele><time>2026-05-05T07:13:44.595Z</time></trkpt><trkpt lat="43.9524942" lon="15.6826892"><ele>164.5</ele><time>2026-05-05T07:13:45.595Z</time></trkpt><trkpt lat="43.9526556" lon="15.6823766"><ele>165.0</ele><time>2026-05-05T07:13:46.596Z</time></trkpt><trkpt lat="43.9528122" lon="15.6820598"><ele>164.5</ele><time>2026-05-05T07:13:47.596Z</time></trkpt><trkpt lat="43.95297" lon="15.6817424"><ele>164.0</ele><time>2026-05-05T07:13:48.596Z</time></trkpt><trkpt lat="43.9531244" lon="15.6814191"><ele>164.5</ele><time>2026-05-05T07:13:49.596Z</time></trkpt><trkpt lat="43.9532783" lon="15.6810975"><ele>165.0</ele><time>2026-05-05T07:13:50.595Z</time></trkpt><trkpt lat="43.9534291" lon="15.6807758"><ele>165.0</ele><time>2026-05-05T07:13:51.596Z</time></trkpt><trkpt lat="43.9535778" lon="15.6804554"><ele>165.0</ele><time>2026-05-05T07:13:52.596Z</time></trkpt><trkpt lat="43.9537262" lon="15.6801285"><ele>165.0</ele><time>2026-05-05T07:13:53.595Z</time></trkpt><trkpt lat="43.9538756" lon="15.6798071"><ele>165.0</ele><time>2026-05-05T07:13:54.596Z</time></trkpt><trkpt lat="43.9540219" lon="15.6794822"><ele>165.0</ele><time>2026-05-05T07:13:55.595Z</time></trkpt><trkpt lat="43.9541661" lon="15.6791581"><ele>165.0</ele><time>2026-05-05T07:13:56.595Z</time></trkpt><trkpt lat="43.9543123" lon="15.6788362"><ele>165.0</ele><time>2026-05-05T07:13:57.595Z</time></trkpt><trkpt lat="43.9544607" lon="15.6785159"><ele>165.0</ele><time>2026-05-05T07:13:58.595Z</time></trkpt><trkpt lat="43.9546122" lon="15.6782052"><ele>165.0</ele><time>2026-05-05T07:13:59.596Z</time></trkpt><trkpt lat="43.9547573" lon="15.6778911"><ele>165.0</ele><time>2026-05-05T07:14:00.596Z</time></trkpt><trkpt lat="43.9548981" lon="15.6775582"><ele>165.0</ele><time>2026-05-05T07:14:01.595Z</time></trkpt><trkpt lat="43.9550396" lon="15.6772385"><ele>165.0</ele><time>2026-05-05T07:14:02.595Z</time></trkpt><trkpt lat="43.9551784" lon="15.6769109"><ele>165.0</ele><time>2026-05-05T07:14:03.596Z</time></trkpt><trkpt lat="43.9553207" lon="15.6765774"><ele>165.0</ele><time>2026-05-05T07:14:04.595Z</time></trkpt><trkpt lat="43.9554635" lon="15.6762381"><ele>165.5</ele><time>2026-05-05T07:14:05.595Z</time></trkpt><trkpt lat="43.9556077" lon="15.6758993"><ele>166.0</ele><time>2026-05-05T07:14:06.596Z</time></trkpt><trkpt lat="43.9557435" lon="15.6755546"><ele>166.0</ele><time>2026-05-05T07:14:07.596Z</time></trkpt><trkpt lat="43.9558774" lon="15.675216"><ele>166.0</ele><time>2026-05-05T07:14:08.595Z</time></trkpt><trkpt lat="43.9560188" lon="15.6748798"><ele>166.0</ele><time>2026-05-05T07:14:09.596Z</time></trkpt><trkpt lat="43.9561626" lon="15.6745416"><ele>166.0</ele><time>2026-05-05T07:14:10.596Z</time></trkpt><trkpt lat="43.956308" lon="15.6741965"><ele>166.5</ele><time>2026-05-05T07:14:11.595Z</time></trkpt><trkpt lat="43.9564511" lon="15.6738514"><ele>167.0</ele><time>2026-05-05T07:14:12.595Z</time></trkpt><trkpt lat="43.9565895" lon="15.6735129"><ele>167.0</ele><time>2026-05-05T07:14:13.595Z</time></trkpt><trkpt lat="43.9567217" lon="15.6731701"><ele>167.0</ele><time>2026-05-05T07:14:14.596Z</time></trkpt><trkpt lat="43.9568659" lon="15.6728315"><ele>167.0</ele><time>2026-05-05T07:14:15.596Z</time></trkpt><trkpt lat="43.957008" lon="15.6724935"><ele>167.0</ele><time>2026-05-05T07:14:16.595Z</time></trkpt><trkpt lat="43.9571491" lon="15.6721575"><ele>167.0</ele><time>2026-05-05T07:14:17.595Z</time></trkpt><trkpt lat="43.9572962" lon="15.6718223"><ele>167.0</ele><time>2026-05-05T07:14:18.596Z</time></trkpt><trkpt lat="43.9574341" lon="15.6714888"><ele>167.0</ele><time>2026-05-05T07:14:19.596Z</time></trkpt><trkpt lat="43.9575795" lon="15.67115"><ele>167.0</ele><time>2026-05-05T07:14:20.595Z</time></trkpt><trkpt lat="43.9577234" lon="15.6708174"><ele>167.5</ele><time>2026-05-05T07:14:21.595Z</time></trkpt><trkpt lat="43.9578687" lon="15.6704867"><ele>168.0</ele><time>2026-05-05T07:14:22.596Z</time></trkpt><trkpt lat="43.9580094" lon="15.6701507"><ele>168.0</ele><time>2026-05-05T07:14:23.596Z</time></trkpt><trkpt lat="43.9581686" lon="15.669838"><ele>168.0</ele><time>2026-05-05T07:14:24.595Z</time></trkpt><trkpt lat="43.9583169" lon="15.6695077"><ele>168.0</ele><time>2026-05-05T07:14:25.595Z</time></trkpt><trkpt lat="43.9584656" lon="15.6691783"><ele>168.0</ele><time>2026-05-05T07:14:26.595Z</time></trkpt><trkpt lat="43.9586153" lon="15.6688512"><ele>167.5</ele><time>2026-05-05T07:14:27.595Z</time></trkpt><trkpt lat="43.9587645" lon="15.6685281"><ele>167.0</ele><time>2026-05-05T07:14:28.595Z</time></trkpt><trkpt lat="43.9589099" lon="15.6682088"><ele>167.0</ele><time>2026-05-05T07:14:29.595Z</time></trkpt><trkpt lat="43.9590562" lon="15.6678944"><ele>167.0</ele><time>2026-05-05T07:14:30.596Z</time></trkpt><trkpt lat="43.9592061" lon="15.6675788"><ele>167.5</ele><time>2026-05-05T07:14:31.596Z</time></trkpt><trkpt lat="43.9593532" lon="15.6672653"><ele>168.0</ele><time>2026-05-05T07:14:32.595Z</time></trkpt><trkpt lat="43.9594961" lon="15.6669483"><ele>168.0</ele><time>2026-05-05T07:14:33.595Z</time></trkpt><trkpt lat="43.9596411" lon="15.6666298"><ele>168.0</ele><time>2026-05-05T07:14:34.596Z</time></trkpt><trkpt lat="43.9597927" lon="15.6663244"><ele>168.0</ele><time>2026-05-05T07:14:35.595Z</time></trkpt><trkpt lat="43.95994" lon="15.6660143"><ele>168.0</ele><time>2026-05-05T07:14:36.596Z</time></trkpt><trkpt lat="43.9600898" lon="15.6657053"><ele>168.0</ele><time>2026-05-05T07:14:37.595Z</time></trkpt><trkpt lat="43.9602434" lon="15.6654015"><ele>168.0</ele><time>2026-05-05T07:14:38.596Z</time></trkpt><trkpt lat="43.9603977" lon="15.665097"><ele>167.5</ele><time>2026-05-05T07:14:39.595Z</time></trkpt><trkpt lat="43.9605535" lon="15.6647925"><ele>167.0</ele><time>2026-05-05T07:14:40.595Z</time></trkpt><trkpt lat="43.9607109" lon="15.664491"><ele>167.0</ele><time>2026-05-05T07:14:41.595Z</time></trkpt><trkpt lat="43.9608657" lon="15.6641817"><ele>167.0</ele><time>2026-05-05T07:14:42.596Z</time></trkpt><trkpt lat="43.9610217" lon="15.6638713"><ele>166.5</ele><time>2026-05-05T07:14:43.596Z</time></trkpt><trkpt lat="43.9611784" lon="15.6635663"><ele>166.0</ele><time>2026-05-05T07:14:44.595Z</time></trkpt><trkpt lat="43.961337" lon="15.6632544"><ele>166.0</ele><time>2026-05-05T07:14:45.595Z</time></trkpt><trkpt lat="43.9615003" lon="15.6629459"><ele>166.0</ele><time>2026-05-05T07:14:46.595Z</time></trkpt><trkpt lat="43.9616611" lon="15.6626299"><ele>165.5</ele><time>2026-05-05T07:14:47.595Z</time></trkpt><trkpt lat="43.9618252" lon="15.6623236"><ele>165.0</ele><time>2026-05-05T07:14:48.595Z</time></trkpt><trkpt lat="43.9619926" lon="15.6620105"><ele>164.5</ele><time>2026-05-05T07:14:49.596Z</time></trkpt><trkpt lat="43.9621568" lon="15.6616989"><ele>164.0</ele><time>2026-05-05T07:14:50.595Z</time></trkpt><trkpt lat="43.9623347" lon="15.6613988"><ele>163.5</ele><time>2026-05-05T07:14:51.595Z</time></trkpt><trkpt lat="43.9625027" lon="15.6610942"><ele>163.0</ele><time>2026-05-05T07:14:52.595Z</time></trkpt><trkpt lat="43.962669" lon="15.6607859"><ele>163.0</ele><time>2026-05-05T07:14:53.595Z</time></trkpt><trkpt lat="43.9628339" lon="15.6604872"><ele>163.0</ele><time>2026-05-05T07:14:54.596Z</time></trkpt><trkpt lat="43.9630019" lon="15.660181"><ele>164.0</ele><time>2026-05-05T07:14:55.596Z</time></trkpt><trkpt lat="43.9631696" lon="15.6598775"><ele>165.0</ele><time>2026-05-05T07:14:56.595Z</time></trkpt><trkpt lat="43.9633472" lon="15.6595752"><ele>166.0</ele><time>2026-05-05T07:14:57.596Z</time></trkpt><trkpt lat="43.963523" lon="15.6592758"><ele>167.0</ele><time>2026-05-05T07:14:58.596Z</time></trkpt><trkpt lat="43.9636965" lon="15.6589711"><ele>167.0</ele><time>2026-05-05T07:14:59.596Z</time></trkpt><trkpt lat="43.9638725" lon="15.6586696"><ele>167.0</ele><time>2026-05-05T07:15:00.595Z</time></trkpt><trkpt lat="43.9640472" lon="15.6583716"><ele>165.5</ele><time>2026-05-05T07:15:01.596Z</time></trkpt><trkpt lat="43.9642226" lon="15.6580754"><ele>164.0</ele><time>2026-05-05T07:15:02.595Z</time></trkpt><trkpt lat="43.9644016" lon="15.6577817"><ele>163.0</ele><time>2026-05-05T07:15:03.595Z</time></trkpt><trkpt lat="43.9645769" lon="15.6574876"><ele>162.0</ele><time>2026-05-05T07:15:04.596Z</time></trkpt><trkpt lat="43.9647536" lon="15.6572007"><ele>162.5</ele><time>2026-05-05T07:15:05.596Z</time></trkpt><trkpt lat="43.9649317" lon="15.6569161"><ele>163.0</ele><time>2026-05-05T07:15:06.595Z</time></trkpt><trkpt lat="43.9651061" lon="15.6566298"><ele>163.5</ele><time>2026-05-05T07:15:07.595Z</time></trkpt><trkpt lat="43.9652837" lon="15.6563443"><ele>164.0</ele><time>2026-05-05T07:15:08.595Z</time></trkpt><trkpt lat="43.965463" lon="15.656061"><ele>165.0</ele><time>2026-05-05T07:15:09.596Z</time></trkpt><trkpt lat="43.9656487" lon="15.6557746"><ele>166.0</ele><time>2026-05-05T07:15:10.596Z</time></trkpt><trkpt lat="43.9658295" lon="15.6554801"><ele>165.5</ele><time>2026-05-05T07:15:11.595Z</time></trkpt><trkpt lat="43.9660119" lon="15.6551974"><ele>165.0</ele><time>2026-05-05T07:15:12.596Z</time></trkpt><trkpt lat="43.9661943" lon="15.6549091"><ele>165.0</ele><time>2026-05-05T07:15:13.595Z</time></trkpt><trkpt lat="43.9663819" lon="15.6546254"><ele>165.0</ele><time>2026-05-05T07:15:14.595Z</time></trkpt><trkpt lat="43.9665647" lon="15.6543431"><ele>165.0</ele><time>2026-05-05T07:15:15.596Z</time></trkpt><trkpt lat="43.966755" lon="15.6540569"><ele>165.0</ele><time>2026-05-05T07:15:16.596Z</time></trkpt><trkpt lat="43.9669452" lon="15.6537761"><ele>166.0</ele><time>2026-05-05T07:15:17.595Z</time></trkpt><trkpt lat="43.9671379" lon="15.6534909"><ele>167.0</ele><time>2026-05-05T07:15:18.596Z</time></trkpt><trkpt lat="43.9673285" lon="15.653203"><ele>167.0</ele><time>2026-05-05T07:15:19.595Z</time></trkpt><trkpt lat="43.9675254" lon="15.6529228"><ele>167.0</ele><time>2026-05-05T07:15:20.595Z</time></trkpt><trkpt lat="43.9677179" lon="15.6526355"><ele>166.0</ele><time>2026-05-05T07:15:21.596Z</time></trkpt><trkpt lat="43.9679148" lon="15.6523531"><ele>165.0</ele><time>2026-05-05T07:15:22.596Z</time></trkpt><trkpt lat="43.9681132" lon="15.652074"><ele>166.5</ele><time>2026-05-05T07:15:23.596Z</time></trkpt><trkpt lat="43.968312" lon="15.651798"><ele>168.0</ele><time>2026-05-05T07:15:24.595Z</time></trkpt><trkpt lat="43.9685117" lon="15.6515161"><ele>168.0</ele><time>2026-05-05T07:15:25.596Z</time></trkpt><trkpt lat="43.9687098" lon="15.651235"><ele>168.0</ele><time>2026-05-05T07:15:26.596Z</time></trkpt><trkpt lat="43.9689095" lon="15.6509581"><ele>168.0</ele><time>2026-05-05T07:15:27.595Z</time></trkpt><trkpt lat="43.9691127" lon="15.6506814"><ele>168.0</ele><time>2026-05-05T07:15:28.595Z</time></trkpt><trkpt lat="43.9693204" lon="15.6504049"><ele>169.0</ele><time>2026-05-05T07:15:29.595Z</time></trkpt><trkpt lat="43.9695224" lon="15.650132"><ele>170.0</ele><time>2026-05-05T07:15:30.596Z</time></trkpt><trkpt lat="43.9697267" lon="15.6498562"><ele>170.0</ele><time>2026-05-05T07:15:31.595Z</time></trkpt><trkpt lat="43.9699334" lon="15.6495799"><ele>170.0</ele><time>2026-05-05T07:15:32.595Z</time></trkpt><trkpt lat="43.9701371" lon="15.6492865"><ele>170.5</ele><time>2026-05-05T07:15:33.596Z</time></trkpt><trkpt lat="43.9703482" lon="15.6490126"><ele>171.0</ele><time>2026-05-05T07:15:34.596Z</time></trkpt><trkpt lat="43.9705563" lon="15.6487149"><ele>172.0</ele><time>2026-05-05T07:15:35.595Z</time></trkpt><trkpt lat="43.9707653" lon="15.6484419"><ele>173.0</ele><time>2026-05-05T07:15:36.596Z</time></trkpt><trkpt lat="43.9709778" lon="15.6481714"><ele>173.0</ele><time>2026-05-05T07:15:37.596Z</time></trkpt><trkpt lat="43.9711942" lon="15.6479025"><ele>173.0</ele><time>2026-05-05T07:15:38.596Z</time></trkpt><trkpt lat="43.9714112" lon="15.647635"><ele>173.0</ele><time>2026-05-05T07:15:39.596Z</time></trkpt><trkpt lat="43.9716281" lon="15.6473693"><ele>173.0</ele><time>2026-05-05T07:15:40.596Z</time></trkpt><trkpt lat="43.9718435" lon="15.6471021"><ele>172.5</ele><time>2026-05-05T07:15:41.596Z</time></trkpt><trkpt lat="43.9720622" lon="15.6468445"><ele>172.0</ele><time>2026-05-05T07:15:42.596Z</time></trkpt><trkpt lat="43.972282" lon="15.6465834"><ele>172.0</ele><time>2026-05-05T07:15:43.596Z</time></trkpt><trkpt lat="43.9725003" lon="15.6463261"><ele>172.0</ele><time>2026-05-05T07:15:44.595Z</time></trkpt><trkpt lat="43.9727182" lon="15.6460682"><ele>173.0</ele><time>2026-05-05T07:15:45.595Z</time></trkpt><trkpt lat="43.9729354" lon="15.6458011"><ele>174.0</ele><time>2026-05-05T07:15:46.595Z</time></trkpt><trkpt lat="43.9731534" lon="15.6455434"><ele>173.5</ele><time>2026-05-05T07:15:47.595Z</time></trkpt><trkpt lat="43.9733699" lon="15.6452759"><ele>173.0</ele><time>2026-05-05T07:15:48.596Z</time></trkpt><trkpt lat="43.9735932" lon="15.6450112"><ele>173.0</ele><time>2026-05-05T07:15:49.595Z</time></trkpt><trkpt lat="43.9738093" lon="15.6447414"><ele>173.0</ele><time>2026-05-05T07:15:50.595Z</time></trkpt><trkpt lat="43.9740284" lon="15.6444848"><ele>173.5</ele><time>2026-05-05T07:15:51.595Z</time></trkpt><trkpt lat="43.9742488" lon="15.6442214"><ele>174.0</ele><time>2026-05-05T07:15:52.595Z</time></trkpt><trkpt lat="43.9744648" lon="15.6439731"><ele>174.0</ele><time>2026-05-05T07:15:53.595Z</time></trkpt><trkpt lat="43.9746846" lon="15.6437165"><ele>174.0</ele><time>2026-05-05T07:15:54.596Z</time></trkpt><trkpt lat="43.9749024" lon="15.6434594"><ele>173.5</ele><time>2026-05-05T07:15:55.595Z</time></trkpt><trkpt lat="43.9751165" lon="15.6432054"><ele>173.0</ele><time>2026-05-05T07:15:56.596Z</time></trkpt><trkpt lat="43.9753289" lon="15.6429499"><ele>173.0</ele><time>2026-05-05T07:15:57.596Z</time></trkpt><trkpt lat="43.9755452" lon="15.6426975"><ele>173.0</ele><time>2026-05-05T07:15:58.595Z</time></trkpt><trkpt lat="43.9757624" lon="15.6424449"><ele>173.0</ele><time>2026-05-05T07:15:59.595Z</time></trkpt><trkpt lat="43.9759768" lon="15.6421913"><ele>173.0</ele><time>2026-05-05T07:16:00.596Z</time></trkpt><trkpt lat="43.9761874" lon="15.6419378"><ele>173.0</ele><time>2026-05-05T07:16:01.596Z</time></trkpt><trkpt lat="43.9764014" lon="15.6416796"><ele>173.0</ele><time>2026-05-05T07:16:02.596Z</time></trkpt><trkpt lat="43.9766149" lon="15.641424"><ele>173.0</ele><time>2026-05-05T07:16:03.595Z</time></trkpt><trkpt lat="43.9768286" lon="15.6411669"><ele>173.0</ele><time>2026-05-05T07:16:04.596Z</time></trkpt><trkpt lat="43.9770451" lon="15.640905"><ele>173.5</ele><time>2026-05-05T07:16:05.596Z</time></trkpt><trkpt lat="43.9772626" lon="15.6406575"><ele>174.0</ele><time>2026-05-05T07:16:06.595Z</time></trkpt><trkpt lat="43.9774773" lon="15.6404024"><ele>175.5</ele><time>2026-05-05T07:16:07.596Z</time></trkpt><trkpt lat="43.9776916" lon="15.6401479"><ele>177.0</ele><time>2026-05-05T07:16:08.595Z</time></trkpt><trkpt lat="43.9779088" lon="15.6398937"><ele>177.0</ele><time>2026-05-05T07:16:09.595Z</time></trkpt><trkpt lat="43.9781218" lon="15.6396304"><ele>177.0</ele><time>2026-05-05T07:16:10.596Z</time></trkpt><trkpt lat="43.978337" lon="15.6393654"><ele>176.0</ele><time>2026-05-05T07:16:11.596Z</time></trkpt><trkpt lat="43.9785551" lon="15.6391081"><ele>175.0</ele><time>2026-05-05T07:16:12.595Z</time></trkpt><trkpt lat="43.9787733" lon="15.6388519"><ele>175.0</ele><time>2026-05-05T07:16:13.596Z</time></trkpt><trkpt lat="43.9789987" lon="15.6386029"><ele>175.0</ele><time>2026-05-05T07:16:14.596Z</time></trkpt><trkpt lat="43.9792151" lon="15.6383458"><ele>175.0</ele><time>2026-05-05T07:16:15.596Z</time></trkpt><trkpt lat="43.9794344" lon="15.6380867"><ele>175.0</ele><time>2026-05-05T07:16:16.595Z</time></trkpt><trkpt lat="43.9796536" lon="15.637826"><ele>174.5</ele><time>2026-05-05T07:16:17.596Z</time></trkpt><trkpt lat="43.9798761" lon="15.6375583"><ele>174.0</ele><time>2026-05-05T07:16:18.596Z</time></trkpt><trkpt lat="43.9800975" lon="15.6372983"><ele>174.0</ele><time>2026-05-05T07:16:19.595Z</time></trkpt><trkpt lat="43.9803167" lon="15.6370455"><ele>174.0</ele><time>2026-05-05T07:16:20.596Z</time></trkpt><trkpt lat="43.9805324" lon="15.6367887"><ele>174.5</ele><time>2026-05-05T07:16:21.595Z</time></trkpt><trkpt lat="43.9807535" lon="15.6365273"><ele>175.0</ele><time>2026-05-05T07:16:22.596Z</time></trkpt><trkpt lat="43.9809758" lon="15.6362671"><ele>173.5</ele><time>2026-05-05T07:16:23.596Z</time></trkpt><trkpt lat="43.9811954" lon="15.6360098"><ele>172.0</ele><time>2026-05-05T07:16:24.595Z</time></trkpt><trkpt lat="43.9814161" lon="15.635749"><ele>172.0</ele><time>2026-05-05T07:16:25.596Z</time></trkpt><trkpt lat="43.9816353" lon="15.6354837"><ele>172.0</ele><time>2026-05-05T07:16:26.596Z</time></trkpt><trkpt lat="43.9818544" lon="15.6352169"><ele>173.0</ele><time>2026-05-05T07:16:27.595Z</time></trkpt><trkpt lat="43.982076" lon="15.6349559"><ele>174.0</ele><time>2026-05-05T07:16:28.595Z</time></trkpt><trkpt lat="43.9822975" lon="15.6346911"><ele>174.5</ele><time>2026-05-05T07:16:29.596Z</time></trkpt><trkpt lat="43.9825165" lon="15.6344256"><ele>175.0</ele><time>2026-05-05T07:16:30.595Z</time></trkpt><trkpt lat="43.9827347" lon="15.6341607"><ele>175.0</ele><time>2026-05-05T07:16:31.596Z</time></trkpt><trkpt lat="43.9829513" lon="15.6338943"><ele>175.0</ele><time>2026-05-05T07:16:32.595Z</time></trkpt><trkpt lat="43.9831724" lon="15.6336303"><ele>174.5</ele><time>2026-05-05T07:16:33.596Z</time></trkpt><trkpt lat="43.9833916" lon="15.6333673"><ele>174.0</ele><time>2026-05-05T07:16:34.596Z</time></trkpt><trkpt lat="43.9836129" lon="15.6331004"><ele>174.0</ele><time>2026-05-05T07:16:35.596Z</time></trkpt><trkpt lat="43.983836" lon="15.6328321"><ele>174.0</ele><time>2026-05-05T07:16:36.595Z</time></trkpt><trkpt lat="43.9840444" lon="15.6325631"><ele>172.0</ele><time>2026-05-05T07:16:37.595Z</time></trkpt><trkpt lat="43.9842655" lon="15.6322987"><ele>170.0</ele><time>2026-05-05T07:16:38.596Z</time></trkpt><trkpt lat="43.9844878" lon="15.6320278"><ele>170.0</ele><time>2026-05-05T07:16:39.595Z</time></trkpt><trkpt lat="43.9847092" lon="15.6317582"><ele>170.0</ele><time>2026-05-05T07:16:40.596Z</time></trkpt><trkpt lat="43.9849241" lon="15.631479"><ele>169.5</ele><time>2026-05-05T07:16:41.596Z</time></trkpt><trkpt lat="43.9851364" lon="15.6311959"><ele>169.0</ele><time>2026-05-05T07:16:42.596Z</time></trkpt><trkpt lat="43.9853492" lon="15.630917"><ele>168.0</ele><time>2026-05-05T07:16:43.595Z</time></trkpt><trkpt lat="43.9855651" lon="15.6306485"><ele>167.0</ele><time>2026-05-05T07:16:44.595Z</time></trkpt><trkpt lat="43.985777" lon="15.6303674"><ele>168.0</ele><time>2026-05-05T07:16:45.596Z</time></trkpt><trkpt lat="43.9859873" lon="15.6300876"><ele>169.0</ele><time>2026-05-05T07:16:46.596Z</time></trkpt><trkpt lat="43.9861958" lon="15.6298088"><ele>169.0</ele><time>2026-05-05T07:16:47.595Z</time></trkpt><trkpt lat="43.9864033" lon="15.6295255"><ele>169.0</ele><time>2026-05-05T07:16:48.596Z</time></trkpt><trkpt lat="43.9866114" lon="15.6292393"><ele>168.0</ele><time>2026-05-05T07:16:49.595Z</time></trkpt><trkpt lat="43.9868254" lon="15.6289563"><ele>167.0</ele><time>2026-05-05T07:16:50.595Z</time></trkpt><trkpt lat="43.98703" lon="15.6286634"><ele>167.0</ele><time>2026-05-05T07:16:51.596Z</time></trkpt><trkpt lat="43.9872368" lon="15.6283748"><ele>167.0</ele><time>2026-05-05T07:16:52.596Z</time></trkpt><trkpt lat="43.987436" lon="15.6280827"><ele>167.0</ele><time>2026-05-05T07:16:53.596Z</time></trkpt><trkpt lat="43.9876407" lon="15.627794"><ele>167.0</ele><time>2026-05-05T07:16:54.595Z</time></trkpt><trkpt lat="43.9878419" lon="15.6274713"><ele>167.0</ele><time>2026-05-05T07:16:55.595Z</time></trkpt><trkpt lat="43.9880511" lon="15.6271747"><ele>167.0</ele><time>2026-05-05T07:16:56.596Z</time></trkpt><trkpt lat="43.9882516" lon="15.6268781"><ele>167.0</ele><time>2026-05-05T07:16:57.596Z</time></trkpt><trkpt lat="43.9884507" lon="15.6265841"><ele>167.0</ele><time>2026-05-05T07:16:58.596Z</time></trkpt><trkpt lat="43.98865" lon="15.6262953"><ele>167.0</ele><time>2026-05-05T07:16:59.595Z</time></trkpt><trkpt lat="43.9888466" lon="15.6259931"><ele>167.0</ele><time>2026-05-05T07:17:00.596Z</time></trkpt><trkpt lat="43.9890469" lon="15.6256989"><ele>167.5</ele><time>2026-05-05T07:17:01.596Z</time></trkpt><trkpt lat="43.989247" lon="15.6253947"><ele>168.0</ele><time>2026-05-05T07:17:02.595Z</time></trkpt><trkpt lat="43.9894418" lon="15.6251018"><ele>166.5</ele><time>2026-05-05T07:17:03.595Z</time></trkpt><trkpt lat="43.9896339" lon="15.6248179"><ele>165.0</ele><time>2026-05-05T07:17:04.596Z</time></trkpt><trkpt lat="43.9898312" lon="15.6245125"><ele>164.5</ele><time>2026-05-05T07:17:05.595Z</time></trkpt><trkpt lat="43.9900264" lon="15.6242106"><ele>164.0</ele><time>2026-05-05T07:17:06.595Z</time></trkpt><trkpt lat="43.9902185" lon="15.623907"><ele>165.0</ele><time>2026-05-05T07:17:07.596Z</time></trkpt><trkpt lat="43.990408" lon="15.6235991"><ele>166.0</ele><time>2026-05-05T07:17:08.596Z</time></trkpt><trkpt lat="43.9905997" lon="15.6232966"><ele>166.0</ele><time>2026-05-05T07:17:09.596Z</time></trkpt><trkpt lat="43.9907864" lon="15.6229788"><ele>166.0</ele><time>2026-05-05T07:17:10.596Z</time></trkpt><trkpt lat="43.9909722" lon="15.6226682"><ele>165.5</ele><time>2026-05-05T07:17:11.595Z</time></trkpt><trkpt lat="43.9911597" lon="15.6223635"><ele>165.0</ele><time>2026-05-05T07:17:12.596Z</time></trkpt><trkpt lat="43.9913454" lon="15.6220594"><ele>165.0</ele><time>2026-05-05T07:17:13.595Z</time></trkpt><trkpt lat="43.9915293" lon="15.6217512"><ele>165.0</ele><time>2026-05-05T07:17:14.595Z</time></trkpt><trkpt lat="43.9917146" lon="15.6214415"><ele>165.0</ele><time>2026-05-05T07:17:15.595Z</time></trkpt><trkpt lat="43.9918977" lon="15.6211255"><ele>165.0</ele><time>2026-05-05T07:17:16.596Z</time></trkpt><trkpt lat="43.9920808" lon="15.6208103"><ele>165.0</ele><time>2026-05-05T07:17:17.596Z</time></trkpt><trkpt lat="43.9922641" lon="15.6204949"><ele>165.0</ele><time>2026-05-05T07:17:18.596Z</time></trkpt><trkpt lat="43.9924454" lon="15.6201802"><ele>164.5</ele><time>2026-05-05T07:17:19.595Z</time></trkpt><trkpt lat="43.9926247" lon="15.6198629"><ele>164.0</ele><time>2026-05-05T07:17:20.595Z</time></trkpt><trkpt lat="43.9928091" lon="15.6195473"><ele>163.0</ele><time>2026-05-05T07:17:21.595Z</time></trkpt><trkpt lat="43.9929849" lon="15.6192252"><ele>162.0</ele><time>2026-05-05T07:17:22.596Z</time></trkpt><trkpt lat="43.9931595" lon="15.6188985"><ele>162.0</ele><time>2026-05-05T07:17:23.596Z</time></trkpt><trkpt lat="43.9933355" lon="15.6185747"><ele>162.0</ele><time>2026-05-05T07:17:24.595Z</time></trkpt><trkpt lat="43.9935095" lon="15.6182515"><ele>162.5</ele><time>2026-05-05T07:17:25.596Z</time></trkpt><trkpt lat="43.9936885" lon="15.6179295"><ele>163.0</ele><time>2026-05-05T07:17:26.596Z</time></trkpt><trkpt lat="43.9938632" lon="15.6175951"><ele>163.0</ele><time>2026-05-05T07:17:27.595Z</time></trkpt><trkpt lat="43.9940355" lon="15.6172755"><ele>163.0</ele><time>2026-05-05T07:17:28.595Z</time></trkpt><trkpt lat="43.9942061" lon="15.6169489"><ele>164.0</ele><time>2026-05-05T07:17:29.596Z</time></trkpt><trkpt lat="43.9943753" lon="15.6166228"><ele>165.0</ele><time>2026-05-05T07:17:30.596Z</time></trkpt><trkpt lat="43.9945426" lon="15.6162905"><ele>165.0</ele><time>2026-05-05T07:17:31.596Z</time></trkpt><trkpt lat="43.9947072" lon="15.6159681"><ele>165.0</ele><time>2026-05-05T07:17:32.595Z</time></trkpt><trkpt lat="43.9948727" lon="15.6156453"><ele>166.5</ele><time>2026-05-05T07:17:33.595Z</time></trkpt><trkpt lat="43.9950383" lon="15.6153196"><ele>168.0</ele><time>2026-05-05T07:17:34.596Z</time></trkpt><trkpt lat="43.9952004" lon="15.6149921"><ele>168.0</ele><time>2026-05-05T07:17:35.596Z</time></trkpt><trkpt lat="43.9953638" lon="15.6146744"><ele>168.0</ele><time>2026-05-05T07:17:36.595Z</time></trkpt><trkpt lat="43.9955243" lon="15.6143512"><ele>168.5</ele><time>2026-05-05T07:17:37.596Z</time></trkpt><trkpt lat="43.995684" lon="15.6140326"><ele>169.0</ele><time>2026-05-05T07:17:38.595Z</time></trkpt><trkpt lat="43.995847" lon="15.6137045"><ele>169.5</ele><time>2026-05-05T07:17:39.595Z</time></trkpt><trkpt lat="43.9960108" lon="15.6133752"><ele>170.0</ele><time>2026-05-05T07:17:40.595Z</time></trkpt><trkpt lat="43.9961736" lon="15.6130475"><ele>169.5</ele><time>2026-05-05T07:17:41.596Z</time></trkpt><trkpt lat="43.9963378" lon="15.6127194"><ele>169.0</ele><time>2026-05-05T07:17:42.595Z</time></trkpt><trkpt lat="43.9965027" lon="15.6123935"><ele>169.0</ele><time>2026-05-05T07:17:43.595Z</time></trkpt><trkpt lat="43.9966674" lon="15.6120645"><ele>169.0</ele><time>2026-05-05T07:17:44.596Z</time></trkpt><trkpt lat="43.9968339" lon="15.6117326"><ele>170.0</ele><time>2026-05-05T07:17:45.595Z</time></trkpt><trkpt lat="43.9970009" lon="15.6113987"><ele>171.0</ele><time>2026-05-05T07:17:46.595Z</time></trkpt><trkpt lat="43.9971697" lon="15.6110595"><ele>171.0</ele><time>2026-05-05T07:17:47.595Z</time></trkpt><trkpt lat="43.997336" lon="15.610711"><ele>171.0</ele><time>2026-05-05T07:17:48.595Z</time></trkpt><trkpt lat="43.9975038" lon="15.6103636"><ele>172.5</ele><time>2026-05-05T07:17:49.595Z</time></trkpt><trkpt lat="43.9976725" lon="15.6100131"><ele>174.0</ele><time>2026-05-05T07:17:50.595Z</time></trkpt><trkpt lat="43.9978416" lon="15.6096661"><ele>174.0</ele><time>2026-05-05T07:17:51.596Z</time></trkpt><trkpt lat="43.998008" lon="15.6093156"><ele>174.0</ele><time>2026-05-05T07:17:52.595Z</time></trkpt><trkpt lat="43.9981772" lon="15.60896"><ele>175.0</ele><time>2026-05-05T07:17:53.595Z</time></trkpt><trkpt lat="43.998349" lon="15.6086132"><ele>176.0</ele><time>2026-05-05T07:17:54.596Z</time></trkpt><trkpt lat="43.9985162" lon="15.6082707"><ele>176.0</ele><time>2026-05-05T07:17:55.595Z</time></trkpt><trkpt lat="43.9986872" lon="15.6079291"><ele>176.0</ele><time>2026-05-05T07:17:56.596Z</time></trkpt><trkpt lat="43.9988579" lon="15.6075898"><ele>176.5</ele><time>2026-05-05T07:17:57.595Z</time></trkpt><trkpt lat="43.9990307" lon="15.6072456"><ele>177.0</ele><time>2026-05-05T07:17:58.596Z</time></trkpt><trkpt lat="43.9992071" lon="15.6069061"><ele>178.5</ele><time>2026-05-05T07:17:59.595Z</time></trkpt><trkpt lat="43.9993756" lon="15.6065617"><ele>180.0</ele><time>2026-05-05T07:18:00.596Z</time></trkpt><trkpt lat="43.9995443" lon="15.6062087"><ele>180.5</ele><time>2026-05-05T07:18:01.595Z</time></trkpt><trkpt lat="43.9997185" lon="15.6058591"><ele>181.0</ele><time>2026-05-05T07:18:02.596Z</time></trkpt><trkpt lat="43.9998921" lon="15.6055089"><ele>181.0</ele><time>2026-05-05T07:18:03.596Z</time></trkpt><trkpt lat="44.0000693" lon="15.6051549"><ele>181.0</ele><time>2026-05-05T07:18:04.596Z</time></trkpt><trkpt lat="44.0002468" lon="15.6047982"><ele>181.0</ele><time>2026-05-05T07:18:05.596Z</time></trkpt><trkpt lat="44.0004292" lon="15.6044408"><ele>181.0</ele><time>2026-05-05T07:18:06.596Z</time></trkpt><trkpt lat="44.0006051" lon="15.604084"><ele>181.0</ele><time>2026-05-05T07:18:07.596Z</time></trkpt><trkpt lat="44.0007895" lon="15.6037344"><ele>181.0</ele><time>2026-05-05T07:18:08.596Z</time></trkpt><trkpt lat="44.0009718" lon="15.603381"><ele>182.0</ele><time>2026-05-05T07:18:09.595Z</time></trkpt><trkpt lat="44.0011505" lon="15.6030409"><ele>183.0</ele><time>2026-05-05T07:18:10.596Z</time></trkpt><trkpt lat="44.0013317" lon="15.6026948"><ele>183.0</ele><time>2026-05-05T07:18:11.596Z</time></trkpt><trkpt lat="44.0015122" lon="15.6023537"><ele>183.0</ele><time>2026-05-05T07:18:12.596Z</time></trkpt><trkpt lat="44.0016884" lon="15.6020125"><ele>183.5</ele><time>2026-05-05T07:18:13.596Z</time></trkpt><trkpt lat="44.001863" lon="15.6016733"><ele>184.0</ele><time>2026-05-05T07:18:14.596Z</time></trkpt><trkpt lat="44.0020366" lon="15.6013358"><ele>184.0</ele><time>2026-05-05T07:18:15.596Z</time></trkpt><trkpt lat="44.0022103" lon="15.6009942"><ele>184.0</ele><time>2026-05-05T07:18:16.595Z</time></trkpt><trkpt lat="44.0023792" lon="15.6006584"><ele>184.0</ele><time>2026-05-05T07:18:17.596Z</time></trkpt><trkpt lat="44.0025494" lon="15.6003211"><ele>184.0</ele><time>2026-05-05T07:18:18.595Z</time></trkpt><trkpt lat="44.0027243" lon="15.59998"><ele>184.0</ele><time>2026-05-05T07:18:19.595Z</time></trkpt><trkpt lat="44.0028971" lon="15.599648"><ele>184.0</ele><time>2026-05-05T07:18:20.595Z</time></trkpt><trkpt lat="44.0030699" lon="15.5993095"><ele>185.0</ele><time>2026-05-05T07:18:21.596Z</time></trkpt><trkpt lat="44.0032396" lon="15.5989678"><ele>186.0</ele><time>2026-05-05T07:18:22.596Z</time></trkpt><trkpt lat="44.0034096" lon="15.5986205"><ele>186.5</ele><time>2026-05-05T07:18:23.595Z</time></trkpt><trkpt lat="44.0035821" lon="15.5982843"><ele>187.0</ele><time>2026-05-05T07:18:24.595Z</time></trkpt><trkpt lat="44.003755" lon="15.5979457"><ele>187.0</ele><time>2026-05-05T07:18:25.595Z</time></trkpt><trkpt lat="44.003926" lon="15.5976033"><ele>187.0</ele><time>2026-05-05T07:18:26.596Z</time></trkpt><trkpt lat="44.0040964" lon="15.5972596"><ele>186.0</ele><time>2026-05-05T07:18:27.596Z</time></trkpt><trkpt lat="44.0042704" lon="15.5969204"><ele>185.0</ele><time>2026-05-05T07:18:28.595Z</time></trkpt><trkpt lat="44.0044421" lon="15.5965766"><ele>185.0</ele><time>2026-05-05T07:18:29.595Z</time></trkpt><trkpt lat="44.0046145" lon="15.5962372"><ele>185.0</ele><time>2026-05-05T07:18:30.596Z</time></trkpt><trkpt lat="44.0047802" lon="15.5958859"><ele>184.5</ele><time>2026-05-05T07:18:31.595Z</time></trkpt><trkpt lat="44.0049551" lon="15.5955473"><ele>184.0</ele><time>2026-05-05T07:18:32.596Z</time></trkpt><trkpt lat="44.0051262" lon="15.5952096"><ele>184.0</ele><time>2026-05-05T07:18:33.595Z</time></trkpt><trkpt lat="44.0053009" lon="15.5948729"><ele>184.0</ele><time>2026-05-05T07:18:34.595Z</time></trkpt><trkpt lat="44.0054715" lon="15.5945397"><ele>183.5</ele><time>2026-05-05T07:18:35.596Z</time></trkpt><trkpt lat="44.0056288" lon="15.5941885"><ele>183.0</ele><time>2026-05-05T07:18:36.595Z</time></trkpt><trkpt lat="44.0058085" lon="15.5938499"><ele>182.0</ele><time>2026-05-05T07:18:37.596Z</time></trkpt><trkpt lat="44.0059863" lon="15.5935128"><ele>181.0</ele><time>2026-05-05T07:18:38.595Z</time></trkpt><trkpt lat="44.0061664" lon="15.5931789"><ele>181.0</ele><time>2026-05-05T07:18:39.595Z</time></trkpt><trkpt lat="44.006347" lon="15.5928403"><ele>181.0</ele><time>2026-05-05T07:18:40.596Z</time></trkpt><trkpt lat="44.0065229" lon="15.5924944"><ele>180.5</ele><time>2026-05-05T07:18:41.595Z</time></trkpt><trkpt lat="44.0067063" lon="15.5921628"><ele>180.0</ele><time>2026-05-05T07:18:42.595Z</time></trkpt><trkpt lat="44.0068847" lon="15.591837"><ele>179.5</ele><time>2026-05-05T07:18:43.596Z</time></trkpt><trkpt lat="44.007068" lon="15.5915049"><ele>179.0</ele><time>2026-05-05T07:18:44.595Z</time></trkpt><trkpt lat="44.007251" lon="15.5911775"><ele>179.0</ele><time>2026-05-05T07:18:45.596Z</time></trkpt><trkpt lat="44.0074372" lon="15.59085"><ele>179.0</ele><time>2026-05-05T07:18:46.596Z</time></trkpt><trkpt lat="44.0076238" lon="15.5905242"><ele>178.5</ele><time>2026-05-05T07:18:47.595Z</time></trkpt><trkpt lat="44.0078137" lon="15.5901979"><ele>178.0</ele><time>2026-05-05T07:18:48.596Z</time></trkpt><trkpt lat="44.0080045" lon="15.5898834"><ele>178.0</ele><time>2026-05-05T07:18:49.595Z</time></trkpt><trkpt lat="44.008192" lon="15.5895634"><ele>178.0</ele><time>2026-05-05T07:18:50.595Z</time></trkpt><trkpt lat="44.0083788" lon="15.5892354"><ele>176.5</ele><time>2026-05-05T07:18:51.596Z</time></trkpt><trkpt lat="44.008575" lon="15.5889243"><ele>175.0</ele><time>2026-05-05T07:18:52.596Z</time></trkpt><trkpt lat="44.0087663" lon="15.5886156"><ele>174.0</ele><time>2026-05-05T07:18:53.595Z</time></trkpt><trkpt lat="44.0089616" lon="15.5882999"><ele>173.0</ele><time>2026-05-05T07:18:54.596Z</time></trkpt><trkpt lat="44.0091561" lon="15.5879894"><ele>171.5</ele><time>2026-05-05T07:18:55.595Z</time></trkpt><trkpt lat="44.0093498" lon="15.5876751"><ele>170.0</ele><time>2026-05-05T07:18:56.596Z</time></trkpt><trkpt lat="44.0095446" lon="15.5873705"><ele>170.0</ele><time>2026-05-05T07:18:57.595Z</time></trkpt><trkpt lat="44.009745" lon="15.5870702"><ele>170.0</ele><time>2026-05-05T07:18:58.595Z</time></trkpt><trkpt lat="44.0099408" lon="15.58676"><ele>169.0</ele><time>2026-05-05T07:18:59.595Z</time></trkpt><trkpt lat="44.010143" lon="15.586462"><ele>168.0</ele><time>2026-05-05T07:19:00.596Z</time></trkpt><trkpt lat="44.0103444" lon="15.5861607"><ele>167.0</ele><time>2026-05-05T07:19:01.596Z</time></trkpt><trkpt lat="44.0105438" lon="15.5858655"><ele>166.0</ele><time>2026-05-05T07:19:02.596Z</time></trkpt><trkpt lat="44.0107502" lon="15.5855577"><ele>165.0</ele><time>2026-05-05T07:19:03.595Z</time></trkpt><trkpt lat="44.0109479" lon="15.5852566"><ele>164.0</ele><time>2026-05-05T07:19:04.596Z</time></trkpt><trkpt lat="44.0111546" lon="15.584962"><ele>164.0</ele><time>2026-05-05T07:19:05.596Z</time></trkpt><trkpt lat="44.0113606" lon="15.5846632"><ele>164.0</ele><time>2026-05-05T07:19:06.596Z</time></trkpt><trkpt lat="44.0115662" lon="15.5843684"><ele>162.0</ele><time>2026-05-05T07:19:07.595Z</time></trkpt><trkpt lat="44.0117753" lon="15.584073"><ele>160.0</ele><time>2026-05-05T07:19:08.596Z</time></trkpt><trkpt lat="44.0119799" lon="15.5837773"><ele>159.0</ele><time>2026-05-05T07:19:09.595Z</time></trkpt><trkpt lat="44.0121903" lon="15.5834869"><ele>158.0</ele><time>2026-05-05T07:19:10.595Z</time></trkpt><trkpt lat="44.0123973" lon="15.5831887"><ele>158.5</ele><time>2026-05-05T07:19:11.596Z</time></trkpt><trkpt lat="44.012609" lon="15.5828959"><ele>159.0</ele><time>2026-05-05T07:19:12.595Z</time></trkpt><trkpt lat="44.0128215" lon="15.5826076"><ele>159.0</ele><time>2026-05-05T07:19:13.595Z</time></trkpt><trkpt lat="44.0130306" lon="15.5823252"><ele>159.0</ele><time>2026-05-05T07:19:14.595Z</time></trkpt><trkpt lat="44.0132445" lon="15.5820417"><ele>160.0</ele><time>2026-05-05T07:19:15.595Z</time></trkpt><trkpt lat="44.01346" lon="15.5817462"><ele>161.0</ele><time>2026-05-05T07:19:16.595Z</time></trkpt><trkpt lat="44.0136748" lon="15.5814563"><ele>160.0</ele><time>2026-05-05T07:19:17.596Z</time></trkpt><trkpt lat="44.013894" lon="15.5811524"><ele>159.0</ele><time>2026-05-05T07:19:18.595Z</time></trkpt><trkpt lat="44.0141127" lon="15.5808734"><ele>158.5</ele><time>2026-05-05T07:19:19.596Z</time></trkpt><trkpt lat="44.0143287" lon="15.5805916"><ele>158.0</ele><time>2026-05-05T07:19:20.595Z</time></trkpt><trkpt lat="44.014551" lon="15.5803196"><ele>158.0</ele><time>2026-05-05T07:19:21.595Z</time></trkpt><trkpt lat="44.0147646" lon="15.5800467"><ele>158.0</ele><time>2026-05-05T07:19:22.596Z</time></trkpt><trkpt lat="44.0149732" lon="15.5797723"><ele>156.0</ele><time>2026-05-05T07:19:23.596Z</time></trkpt><trkpt lat="44.0151957" lon="15.5795033"><ele>154.0</ele><time>2026-05-05T07:19:24.595Z</time></trkpt><trkpt lat="44.0154187" lon="15.5792369"><ele>154.0</ele><time>2026-05-05T07:19:25.596Z</time></trkpt><trkpt lat="44.0156409" lon="15.5789693"><ele>154.0</ele><time>2026-05-05T07:19:26.596Z</time></trkpt><trkpt lat="44.0158633" lon="15.5787066"><ele>155.5</ele><time>2026-05-05T07:19:27.595Z</time></trkpt><trkpt lat="44.016085" lon="15.5784294"><ele>157.0</ele><time>2026-05-05T07:19:28.595Z</time></trkpt><trkpt lat="44.0163077" lon="15.5781611"><ele>157.0</ele><time>2026-05-05T07:19:29.595Z</time></trkpt><trkpt lat="44.0165349" lon="15.5779008"><ele>157.0</ele><time>2026-05-05T07:19:30.595Z</time></trkpt><trkpt lat="44.0167689" lon="15.5776449"><ele>157.5</ele><time>2026-05-05T07:19:31.595Z</time></trkpt><trkpt lat="44.0169987" lon="15.5773893"><ele>158.0</ele><time>2026-05-05T07:19:32.595Z</time></trkpt><trkpt lat="44.0172232" lon="15.5771279"><ele>158.0</ele><time>2026-05-05T07:19:33.596Z</time></trkpt><trkpt lat="44.0174511" lon="15.5768733"><ele>158.0</ele><time>2026-05-05T07:19:34.596Z</time></trkpt><trkpt lat="44.0176798" lon="15.5766099"><ele>158.5</ele><time>2026-05-05T07:19:35.595Z</time></trkpt><trkpt lat="44.0179142" lon="15.5763563"><ele>159.0</ele><time>2026-05-05T07:19:36.596Z</time></trkpt><trkpt lat="44.0181435" lon="15.576095"><ele>158.5</ele><time>2026-05-05T07:19:37.596Z</time></trkpt><trkpt lat="44.0183795" lon="15.5758313"><ele>158.0</ele><time>2026-05-05T07:19:38.596Z</time></trkpt><trkpt lat="44.0186107" lon="15.5755745"><ele>157.5</ele><time>2026-05-05T07:19:39.596Z</time></trkpt><trkpt lat="44.0188489" lon="15.5753234"><ele>157.0</ele><time>2026-05-05T07:19:40.596Z</time></trkpt><trkpt lat="44.019086" lon="15.5750787"><ele>158.0</ele><time>2026-05-05T07:19:41.595Z</time></trkpt><trkpt lat="44.0193256" lon="15.5748375"><ele>159.0</ele><time>2026-05-05T07:19:42.596Z</time></trkpt><trkpt lat="44.0195663" lon="15.5745924"><ele>158.0</ele><time>2026-05-05T07:19:43.596Z</time></trkpt><trkpt lat="44.0198048" lon="15.5743517"><ele>157.0</ele><time>2026-05-05T07:19:44.595Z</time></trkpt><trkpt lat="44.0200438" lon="15.5741142"><ele>157.0</ele><time>2026-05-05T07:19:45.596Z</time></trkpt><trkpt lat="44.0202836" lon="15.5738766"><ele>157.0</ele><time>2026-05-05T07:19:46.595Z</time></trkpt><trkpt lat="44.0205221" lon="15.573632"><ele>157.0</ele><time>2026-05-05T07:19:47.596Z</time></trkpt><trkpt lat="44.0207666" lon="15.5733972"><ele>157.0</ele><time>2026-05-05T07:19:48.595Z</time></trkpt><trkpt lat="44.0210098" lon="15.5731548"><ele>156.5</ele><time>2026-05-05T07:19:49.596Z</time></trkpt><trkpt lat="44.0212495" lon="15.5729211"><ele>156.0</ele><time>2026-05-05T07:19:50.595Z</time></trkpt><trkpt lat="44.0214887" lon="15.5726864"><ele>156.5</ele><time>2026-05-05T07:19:51.596Z</time></trkpt><trkpt lat="44.021733" lon="15.5724539"><ele>157.0</ele><time>2026-05-05T07:19:52.595Z</time></trkpt><trkpt lat="44.0219797" lon="15.572229"><ele>155.5</ele><time>2026-05-05T07:19:53.595Z</time></trkpt><trkpt lat="44.0222218" lon="15.5720069"><ele>154.0</ele><time>2026-05-05T07:19:54.595Z</time></trkpt><trkpt lat="44.0224733" lon="15.5717914"><ele>155.0</ele><time>2026-05-05T07:19:55.595Z</time></trkpt><trkpt lat="44.0227242" lon="15.5715612"><ele>156.0</ele><time>2026-05-05T07:19:56.596Z</time></trkpt><trkpt lat="44.0229711" lon="15.5713473"><ele>156.0</ele><time>2026-05-05T07:19:57.596Z</time></trkpt><trkpt lat="44.0232151" lon="15.571125"><ele>156.0</ele><time>2026-05-05T07:19:58.595Z</time></trkpt><trkpt lat="44.0234601" lon="15.5709151"><ele>156.0</ele><time>2026-05-05T07:19:59.596Z</time></trkpt><trkpt lat="44.0237072" lon="15.5707034"><ele>156.0</ele><time>2026-05-05T07:20:00.595Z</time></trkpt><trkpt lat="44.0239561" lon="15.5704976"><ele>156.5</ele><time>2026-05-05T07:20:01.596Z</time></trkpt><trkpt lat="44.0242049" lon="15.5702874"><ele>157.0</ele><time>2026-05-05T07:20:02.596Z</time></trkpt><trkpt lat="44.0244527" lon="15.5700771"><ele>157.0</ele><time>2026-05-05T07:20:03.595Z</time></trkpt><trkpt lat="44.0247033" lon="15.5698752"><ele>157.0</ele><time>2026-05-05T07:20:04.595Z</time></trkpt><trkpt lat="44.024947" lon="15.5696728"><ele>156.0</ele><time>2026-05-05T07:20:05.596Z</time></trkpt><trkpt lat="44.0252019" lon="15.5694725"><ele>155.0</ele><time>2026-05-05T07:20:06.596Z</time></trkpt><trkpt lat="44.0254546" lon="15.5692698"><ele>155.0</ele><time>2026-05-05T07:20:07.596Z</time></trkpt><trkpt lat="44.0257079" lon="15.5690717"><ele>155.0</ele><time>2026-05-05T07:20:08.596Z</time></trkpt><trkpt lat="44.0259601" lon="15.568873"><ele>155.5</ele><time>2026-05-05T07:20:09.596Z</time></trkpt><trkpt lat="44.0262168" lon="15.5686686"><ele>156.0</ele><time>2026-05-05T07:20:10.595Z</time></trkpt><trkpt lat="44.0264715" lon="15.5684648"><ele>157.5</ele><time>2026-05-05T07:20:11.595Z</time></trkpt><trkpt lat="44.0267232" lon="15.5682628"><ele>159.0</ele><time>2026-05-05T07:20:12.595Z</time></trkpt><trkpt lat="44.0269814" lon="15.5680711"><ele>158.0</ele><time>2026-05-05T07:20:13.596Z</time></trkpt><trkpt lat="44.0272481" lon="15.56786"><ele>157.0</ele><time>2026-05-05T07:20:14.596Z</time></trkpt><trkpt lat="44.0275027" lon="15.5676664"><ele>157.0</ele><time>2026-05-05T07:20:15.595Z</time></trkpt><trkpt lat="44.0277615" lon="15.5674735"><ele>157.0</ele><time>2026-05-05T07:20:16.596Z</time></trkpt><trkpt lat="44.028023" lon="15.567274"><ele>157.0</ele><time>2026-05-05T07:20:17.596Z</time></trkpt><trkpt lat="44.0282797" lon="15.5670783"><ele>157.0</ele><time>2026-05-05T07:20:18.596Z</time></trkpt><trkpt lat="44.0285389" lon="15.5668794"><ele>157.0</ele><time>2026-05-05T07:20:19.596Z</time></trkpt><trkpt lat="44.0287971" lon="15.5666857"><ele>157.0</ele><time>2026-05-05T07:20:20.596Z</time></trkpt><trkpt lat="44.0290541" lon="15.5664869"><ele>156.5</ele><time>2026-05-05T07:20:21.595Z</time></trkpt><trkpt lat="44.0293194" lon="15.5662888"><ele>156.0</ele><time>2026-05-05T07:20:22.595Z</time></trkpt><trkpt lat="44.0295829" lon="15.5660878"><ele>156.0</ele><time>2026-05-05T07:20:23.596Z</time></trkpt><trkpt lat="44.0298427" lon="15.5658862"><ele>156.0</ele><time>2026-05-05T07:20:24.596Z</time></trkpt><trkpt lat="44.0301046" lon="15.5656784"><ele>156.5</ele><time>2026-05-05T07:20:25.595Z</time></trkpt><trkpt lat="44.0303653" lon="15.5654792"><ele>157.0</ele><time>2026-05-05T07:20:26.595Z</time></trkpt><trkpt lat="44.030623" lon="15.5652686"><ele>158.5</ele><time>2026-05-05T07:20:27.595Z</time></trkpt><trkpt lat="44.0308789" lon="15.5650544"><ele>160.0</ele><time>2026-05-05T07:20:28.596Z</time></trkpt><trkpt lat="44.0311399" lon="15.5648372"><ele>160.0</ele><time>2026-05-05T07:20:29.596Z</time></trkpt><trkpt lat="44.0313925" lon="15.5646186"><ele>160.0</ele><time>2026-05-05T07:20:30.595Z</time></trkpt><trkpt lat="44.0316459" lon="15.564388"><ele>159.5</ele><time>2026-05-05T07:20:31.595Z</time></trkpt><trkpt lat="44.0318995" lon="15.5641686"><ele>159.0</ele><time>2026-05-05T07:20:32.595Z</time></trkpt><trkpt lat="44.0321439" lon="15.5639442"><ele>159.0</ele><time>2026-05-05T07:20:33.596Z</time></trkpt><trkpt lat="44.0323917" lon="15.5637226"><ele>159.0</ele><time>2026-05-05T07:20:34.596Z</time></trkpt><trkpt lat="44.0326384" lon="15.5634986"><ele>145.0</ele><time>2026-05-05T07:20:35.595Z</time></trkpt><trkpt lat="44.0328858" lon="15.5632752"><ele>131.0</ele><time>2026-05-05T07:20:36.596Z</time></trkpt><trkpt lat="44.033124" lon="15.563056"><ele>140.0</ele><time>2026-05-05T07:20:37.596Z</time></trkpt><trkpt lat="44.033372" lon="15.5628214"><ele>149.0</ele><time>2026-05-05T07:20:38.596Z</time></trkpt><trkpt lat="44.0336145" lon="15.5625906"><ele>149.0</ele><time>2026-05-05T07:20:39.595Z</time></trkpt><trkpt lat="44.033858" lon="15.5623591"><ele>149.0</ele><time>2026-05-05T07:20:40.596Z</time></trkpt><trkpt lat="44.0340935" lon="15.5621183"><ele>155.5</ele><time>2026-05-05T07:20:41.596Z</time></trkpt><trkpt lat="44.0343281" lon="15.5618842"><ele>162.0</ele><time>2026-05-05T07:20:42.596Z</time></trkpt><trkpt lat="44.034564" lon="15.5616427"><ele>162.0</ele><time>2026-05-05T07:20:43.596Z</time></trkpt><trkpt lat="44.0347959" lon="15.5614004"><ele>162.0</ele><time>2026-05-05T07:20:44.596Z</time></trkpt><trkpt lat="44.0350191" lon="15.5611594"><ele>163.0</ele><time>2026-05-05T07:20:45.595Z</time></trkpt><trkpt lat="44.0352471" lon="15.5609014"><ele>164.0</ele><time>2026-05-05T07:20:46.596Z</time></trkpt><trkpt lat="44.0354659" lon="15.5606547"><ele>164.0</ele><time>2026-05-05T07:20:47.595Z</time></trkpt><trkpt lat="44.0356859" lon="15.5604"><ele>164.0</ele><time>2026-05-05T07:20:48.596Z</time></trkpt><trkpt lat="44.0359118" lon="15.5601423"><ele>164.0</ele><time>2026-05-05T07:20:49.595Z</time></trkpt><trkpt lat="44.0361322" lon="15.5598861"><ele>164.0</ele><time>2026-05-05T07:20:50.596Z</time></trkpt><trkpt lat="44.0363562" lon="15.5596327"><ele>164.0</ele><time>2026-05-05T07:20:51.596Z</time></trkpt><trkpt lat="44.0365801" lon="15.5593776"><ele>164.0</ele><time>2026-05-05T07:20:52.596Z</time></trkpt><trkpt lat="44.0368067" lon="15.5591256"><ele>164.0</ele><time>2026-05-05T07:20:53.596Z</time></trkpt><trkpt lat="44.0370285" lon="15.5588679"><ele>164.0</ele><time>2026-05-05T07:20:54.595Z</time></trkpt><trkpt lat="44.037244" lon="15.5585987"><ele>164.0</ele><time>2026-05-05T07:20:55.595Z</time></trkpt><trkpt lat="44.037462" lon="15.5583434"><ele>164.0</ele><time>2026-05-05T07:20:56.595Z</time></trkpt><trkpt lat="44.037675" lon="15.5580808"><ele>162.5</ele><time>2026-05-05T07:20:57.596Z</time></trkpt><trkpt lat="44.0378905" lon="15.5578077"><ele>161.0</ele><time>2026-05-05T07:20:58.596Z</time></trkpt><trkpt lat="44.038104" lon="15.5575415"><ele>162.0</ele><time>2026-05-05T07:20:59.595Z</time></trkpt><trkpt lat="44.038319" lon="15.5572702"><ele>163.0</ele><time>2026-05-05T07:21:00.596Z</time></trkpt><trkpt lat="44.0385264" lon="15.5569775"><ele>163.0</ele><time>2026-05-05T07:21:01.596Z</time></trkpt><trkpt lat="44.0387403" lon="15.5567065"><ele>163.0</ele><time>2026-05-05T07:21:02.596Z</time></trkpt><trkpt lat="44.0389525" lon="15.5564283"><ele>163.0</ele><time>2026-05-05T07:21:03.596Z</time></trkpt><trkpt lat="44.0391594" lon="15.5561459"><ele>163.0</ele><time>2026-05-05T07:21:04.596Z</time></trkpt><trkpt lat="44.0393642" lon="15.5558694"><ele>163.0</ele><time>2026-05-05T07:21:05.596Z</time></trkpt><trkpt lat="44.0395646" lon="15.5555882"><ele>163.0</ele><time>2026-05-05T07:21:06.596Z</time></trkpt><trkpt lat="44.0397713" lon="15.5553123"><ele>163.5</ele><time>2026-05-05T07:21:07.595Z</time></trkpt><trkpt lat="44.0399723" lon="15.5550346"><ele>164.0</ele><time>2026-05-05T07:21:08.596Z</time></trkpt><trkpt lat="44.0401728" lon="15.5547605"><ele>162.5</ele><time>2026-05-05T07:21:09.596Z</time></trkpt><trkpt lat="44.0403736" lon="15.5544814"><ele>161.0</ele><time>2026-05-05T07:21:10.596Z</time></trkpt><trkpt lat="44.0405728" lon="15.5542026"><ele>161.0</ele><time>2026-05-05T07:21:11.595Z</time></trkpt><trkpt lat="44.0407723" lon="15.5539177"><ele>161.0</ele><time>2026-05-05T07:21:12.596Z</time></trkpt><trkpt lat="44.0409725" lon="15.55364"><ele>161.5</ele><time>2026-05-05T07:21:13.596Z</time></trkpt><trkpt lat="44.0411697" lon="15.5533562"><ele>162.0</ele><time>2026-05-05T07:21:14.596Z</time></trkpt><trkpt lat="44.0413654" lon="15.5530799"><ele>162.5</ele><time>2026-05-05T07:21:15.596Z</time></trkpt><trkpt lat="44.0415651" lon="15.5528117"><ele>163.0</ele><time>2026-05-05T07:21:16.596Z</time></trkpt><trkpt lat="44.0417678" lon="15.5525477"><ele>163.0</ele><time>2026-05-05T07:21:17.596Z</time></trkpt><trkpt lat="44.0419748" lon="15.552282"><ele>163.0</ele><time>2026-05-05T07:21:18.596Z</time></trkpt><trkpt lat="44.042188" lon="15.5520206"><ele>162.5</ele><time>2026-05-05T07:21:19.595Z</time></trkpt><trkpt lat="44.0424057" lon="15.5517635"><ele>162.0</ele><time>2026-05-05T07:21:20.596Z</time></trkpt><trkpt lat="44.0426203" lon="15.5515124"><ele>161.5</ele><time>2026-05-05T07:21:21.596Z</time></trkpt><trkpt lat="44.0428457" lon="15.5512645"><ele>161.0</ele><time>2026-05-05T07:21:22.596Z</time></trkpt><trkpt lat="44.0430699" lon="15.5510248"><ele>161.0</ele><time>2026-05-05T07:21:23.595Z</time></trkpt><trkpt lat="44.0432943" lon="15.5507873"><ele>161.0</ele><time>2026-05-05T07:21:24.595Z</time></trkpt><trkpt lat="44.0435246" lon="15.5505606"><ele>162.0</ele><time>2026-05-05T07:21:25.595Z</time></trkpt><trkpt lat="44.0437604" lon="15.5503443"><ele>163.0</ele><time>2026-05-05T07:21:26.595Z</time></trkpt><trkpt lat="44.0440014" lon="15.550139"><ele>163.5</ele><time>2026-05-05T07:21:27.596Z</time></trkpt><trkpt lat="44.0442476" lon="15.5499529"><ele>164.0</ele><time>2026-05-05T07:21:28.595Z</time></trkpt><trkpt lat="44.0444917" lon="15.5497747"><ele>164.0</ele><time>2026-05-05T07:21:29.596Z</time></trkpt><trkpt lat="44.0447373" lon="15.5495869"><ele>164.0</ele><time>2026-05-05T07:21:30.596Z</time></trkpt><trkpt lat="44.0449853" lon="15.549396"><ele>163.0</ele><time>2026-05-05T07:21:31.595Z</time></trkpt><trkpt lat="44.0452384" lon="15.5492151"><ele>162.0</ele><time>2026-05-05T07:21:32.596Z</time></trkpt><trkpt lat="44.0454855" lon="15.5490312"><ele>162.0</ele><time>2026-05-05T07:21:33.596Z</time></trkpt><trkpt lat="44.0457339" lon="15.5488488"><ele>162.0</ele><time>2026-05-05T07:21:34.596Z</time></trkpt><trkpt lat="44.0459801" lon="15.5486689"><ele>161.0</ele><time>2026-05-05T07:21:35.596Z</time></trkpt><trkpt lat="44.0462292" lon="15.5484865"><ele>160.0</ele><time>2026-05-05T07:21:36.596Z</time></trkpt><trkpt lat="44.0464778" lon="15.548308"><ele>160.5</ele><time>2026-05-05T07:21:37.596Z</time></trkpt><trkpt lat="44.0467291" lon="15.5481246"><ele>161.0</ele><time>2026-05-05T07:21:38.596Z</time></trkpt><trkpt lat="44.046977" lon="15.5479441"><ele>160.0</ele><time>2026-05-05T07:21:39.595Z</time></trkpt><trkpt lat="44.047227" lon="15.5477555"><ele>159.0</ele><time>2026-05-05T07:21:40.595Z</time></trkpt><trkpt lat="44.0474733" lon="15.5475744"><ele>159.0</ele><time>2026-05-05T07:21:41.595Z</time></trkpt><trkpt lat="44.0477233" lon="15.5473858"><ele>159.0</ele><time>2026-05-05T07:21:42.595Z</time></trkpt><trkpt lat="44.0479828" lon="15.5472039"><ele>158.5</ele><time>2026-05-05T07:21:43.595Z</time></trkpt><trkpt lat="44.0482424" lon="15.5470182"><ele>158.0</ele><time>2026-05-05T07:21:44.595Z</time></trkpt><trkpt lat="44.0484921" lon="15.5468436"><ele>158.0</ele><time>2026-05-05T07:21:45.596Z</time></trkpt><trkpt lat="44.0487386" lon="15.5466591"><ele>158.0</ele><time>2026-05-05T07:21:46.596Z</time></trkpt><trkpt lat="44.0489882" lon="15.5464815"><ele>158.0</ele><time>2026-05-05T07:21:47.596Z</time></trkpt><trkpt lat="44.0492325" lon="15.5462932"><ele>158.0</ele><time>2026-05-05T07:21:48.595Z</time></trkpt><trkpt lat="44.0494787" lon="15.5461192"><ele>155.0</ele><time>2026-05-05T07:21:49.595Z</time></trkpt><trkpt lat="44.0497289" lon="15.5459381"><ele>152.0</ele><time>2026-05-05T07:21:50.596Z</time></trkpt><trkpt lat="44.0499744" lon="15.5457529"><ele>150.5</ele><time>2026-05-05T07:21:51.595Z</time></trkpt><trkpt lat="44.050225" lon="15.5455649"><ele>149.0</ele><time>2026-05-05T07:21:52.595Z</time></trkpt><trkpt lat="44.0504677" lon="15.5453799"><ele>151.5</ele><time>2026-05-05T07:21:53.596Z</time></trkpt><trkpt lat="44.0507124" lon="15.5451928"><ele>154.0</ele><time>2026-05-05T07:21:54.595Z</time></trkpt><trkpt lat="44.0509585" lon="15.5450045"><ele>156.0</ele><time>2026-05-05T07:21:55.596Z</time></trkpt><trkpt lat="44.0512003" lon="15.5448214"><ele>158.0</ele><time>2026-05-05T07:21:56.595Z</time></trkpt><trkpt lat="44.0514393" lon="15.5446419"><ele>158.0</ele><time>2026-05-05T07:21:57.596Z</time></trkpt><trkpt lat="44.0516785" lon="15.5444619"><ele>158.0</ele><time>2026-05-05T07:21:58.596Z</time></trkpt><trkpt lat="44.0519168" lon="15.5442733"><ele>158.0</ele><time>2026-05-05T07:21:59.596Z</time></trkpt><trkpt lat="44.0521571" lon="15.5440917"><ele>158.0</ele><time>2026-05-05T07:22:00.596Z</time></trkpt><trkpt lat="44.052391" lon="15.5438974"><ele>159.0</ele><time>2026-05-05T07:22:01.596Z</time></trkpt><trkpt lat="44.052625" lon="15.543703"><ele>160.0</ele><time>2026-05-05T07:22:02.596Z</time></trkpt><trkpt lat="44.0528629" lon="15.5434956"><ele>160.0</ele><time>2026-05-05T07:22:03.595Z</time></trkpt><trkpt lat="44.0530943" lon="15.5432829"><ele>160.0</ele><time>2026-05-05T07:22:04.595Z</time></trkpt><trkpt lat="44.0533282" lon="15.5430684"><ele>160.5</ele><time>2026-05-05T07:22:05.596Z</time></trkpt><trkpt lat="44.0535531" lon="15.5428545"><ele>161.0</ele><time>2026-05-05T07:22:06.596Z</time></trkpt><trkpt lat="44.053775" lon="15.542631"><ele>161.0</ele><time>2026-05-05T07:22:07.596Z</time></trkpt><trkpt lat="44.0539918" lon="15.5423968"><ele>161.0</ele><time>2026-05-05T07:22:08.595Z</time></trkpt><trkpt lat="44.0542069" lon="15.5421573"><ele>160.5</ele><time>2026-05-05T07:22:09.595Z</time></trkpt><trkpt lat="44.0544222" lon="15.5419146"><ele>160.0</ele><time>2026-05-05T07:22:10.596Z</time></trkpt><trkpt lat="44.0546399" lon="15.5416679"><ele>160.0</ele><time>2026-05-05T07:22:11.596Z</time></trkpt><trkpt lat="44.0548513" lon="15.5414265"><ele>160.0</ele><time>2026-05-05T07:22:12.595Z</time></trkpt><trkpt lat="44.0550583" lon="15.5411728"><ele>160.5</ele><time>2026-05-05T07:22:13.595Z</time></trkpt><trkpt lat="44.0552585" lon="15.5409102"><ele>161.0</ele><time>2026-05-05T07:22:14.595Z</time></trkpt><trkpt lat="44.0554602" lon="15.5406518"><ele>161.0</ele><time>2026-05-05T07:22:15.596Z</time></trkpt><trkpt lat="44.0556518" lon="15.5403727"><ele>161.0</ele><time>2026-05-05T07:22:16.595Z</time></trkpt><trkpt lat="44.0558471" lon="15.5401028"><ele>161.0</ele><time>2026-05-05T07:22:17.595Z</time></trkpt><trkpt lat="44.0560371" lon="15.539821"><ele>161.0</ele><time>2026-05-05T07:22:18.595Z</time></trkpt><trkpt lat="44.0562205" lon="15.5395338"><ele>160.5</ele><time>2026-05-05T07:22:19.595Z</time></trkpt><trkpt lat="44.0564058" lon="15.5392454"><ele>160.0</ele><time>2026-05-05T07:22:20.595Z</time></trkpt><trkpt lat="44.0565876" lon="15.5389574"><ele>162.5</ele><time>2026-05-05T07:22:21.596Z</time></trkpt><trkpt lat="44.0567721" lon="15.538662"><ele>165.0</ele><time>2026-05-05T07:22:22.596Z</time></trkpt><trkpt lat="44.0569537" lon="15.5383703"><ele>165.0</ele><time>2026-05-05T07:22:23.595Z</time></trkpt><trkpt lat="44.0571402" lon="15.5380808"><ele>165.0</ele><time>2026-05-05T07:22:24.596Z</time></trkpt><trkpt lat="44.0573212" lon="15.5377912"><ele>164.5</ele><time>2026-05-05T07:22:25.595Z</time></trkpt><trkpt lat="44.0575044" lon="15.5374981"><ele>164.0</ele><time>2026-05-05T07:22:26.595Z</time></trkpt><trkpt lat="44.0576875" lon="15.5371976"><ele>164.5</ele><time>2026-05-05T07:22:27.595Z</time></trkpt><trkpt lat="44.0578635" lon="15.5369046"><ele>165.0</ele><time>2026-05-05T07:22:28.595Z</time></trkpt><trkpt lat="44.0580447" lon="15.5366012"><ele>165.0</ele><time>2026-05-05T07:22:29.595Z</time></trkpt><trkpt lat="44.0582341" lon="15.5363128"><ele>165.0</ele><time>2026-05-05T07:22:30.595Z</time></trkpt><trkpt lat="44.0584199" lon="15.5360237"><ele>166.0</ele><time>2026-05-05T07:22:31.596Z</time></trkpt><trkpt lat="44.0586026" lon="15.5357265"><ele>167.0</ele><time>2026-05-05T07:22:32.596Z</time></trkpt><trkpt lat="44.0587818" lon="15.5354312"><ele>167.0</ele><time>2026-05-05T07:22:33.596Z</time></trkpt><trkpt lat="44.0589699" lon="15.535149"><ele>167.0</ele><time>2026-05-05T07:22:34.595Z</time></trkpt><trkpt lat="44.059158" lon="15.5348648"><ele>167.0</ele><time>2026-05-05T07:22:35.595Z</time></trkpt><trkpt lat="44.0593506" lon="15.5345746"><ele>167.0</ele><time>2026-05-05T07:22:36.595Z</time></trkpt><trkpt lat="44.0595377" lon="15.5342934"><ele>167.0</ele><time>2026-05-05T07:22:37.596Z</time></trkpt><trkpt lat="44.0597309" lon="15.5340041"><ele>167.0</ele><time>2026-05-05T07:22:38.596Z</time></trkpt><trkpt lat="44.0599268" lon="15.5337129"><ele>168.0</ele><time>2026-05-05T07:22:39.596Z</time></trkpt><trkpt lat="44.0601185" lon="15.5334346"><ele>169.0</ele><time>2026-05-05T07:22:40.595Z</time></trkpt><trkpt lat="44.0603129" lon="15.5331518"><ele>168.5</ele><time>2026-05-05T07:22:41.596Z</time></trkpt><trkpt lat="44.0605071" lon="15.5328688"><ele>168.0</ele><time>2026-05-05T07:22:42.596Z</time></trkpt><trkpt lat="44.0607013" lon="15.5325891"><ele>169.5</ele><time>2026-05-05T07:22:43.595Z</time></trkpt><trkpt lat="44.0608947" lon="15.5323124"><ele>171.0</ele><time>2026-05-05T07:22:44.595Z</time></trkpt><trkpt lat="44.0610985" lon="15.5320349"><ele>171.0</ele><time>2026-05-05T07:22:45.596Z</time></trkpt><trkpt lat="44.0612979" lon="15.5317563"><ele>171.0</ele><time>2026-05-05T07:22:46.595Z</time></trkpt><trkpt lat="44.0614955" lon="15.531478"><ele>173.0</ele><time>2026-05-05T07:22:47.596Z</time></trkpt><trkpt lat="44.0617007" lon="15.5311927"><ele>175.0</ele><time>2026-05-05T07:22:48.595Z</time></trkpt><trkpt lat="44.0619062" lon="15.5309125"><ele>175.0</ele><time>2026-05-05T07:22:49.596Z</time></trkpt><trkpt lat="44.0621062" lon="15.5306261"><ele>175.0</ele><time>2026-05-05T07:22:50.596Z</time></trkpt><trkpt lat="44.0623105" lon="15.5303472"><ele>176.5</ele><time>2026-05-05T07:22:51.596Z</time></trkpt><trkpt lat="44.0625084" lon="15.5300386"><ele>178.0</ele><time>2026-05-05T07:22:52.596Z</time></trkpt><trkpt lat="44.0627127" lon="15.5297757"><ele>178.5</ele><time>2026-05-05T07:22:53.595Z</time></trkpt><trkpt lat="44.0629162" lon="15.5294936"><ele>179.0</ele><time>2026-05-05T07:22:54.596Z</time></trkpt><trkpt lat="44.0631292" lon="15.5292224"><ele>179.0</ele><time>2026-05-05T07:22:55.595Z</time></trkpt><trkpt lat="44.0633369" lon="15.5289456"><ele>179.0</ele><time>2026-05-05T07:22:56.596Z</time></trkpt><trkpt lat="44.0635413" lon="15.5286837"><ele>179.0</ele><time>2026-05-05T07:22:57.595Z</time></trkpt><trkpt lat="44.063744" lon="15.5284108"><ele>179.0</ele><time>2026-05-05T07:22:58.595Z</time></trkpt><trkpt lat="44.0639532" lon="15.5281498"><ele>180.0</ele><time>2026-05-05T07:22:59.596Z</time></trkpt><trkpt lat="44.0641616" lon="15.5278963"><ele>181.0</ele><time>2026-05-05T07:23:00.595Z</time></trkpt><trkpt lat="44.064371" lon="15.5276254"><ele>181.0</ele><time>2026-05-05T07:23:01.595Z</time></trkpt><trkpt lat="44.0645784" lon="15.5273666"><ele>181.0</ele><time>2026-05-05T07:23:02.595Z</time></trkpt><trkpt lat="44.0647897" lon="15.5271079"><ele>182.5</ele><time>2026-05-05T07:23:03.596Z</time></trkpt><trkpt lat="44.0650014" lon="15.5268516"><ele>184.0</ele><time>2026-05-05T07:23:04.595Z</time></trkpt><trkpt lat="44.0652173" lon="15.5265891"><ele>184.0</ele><time>2026-05-05T07:23:05.595Z</time></trkpt><trkpt lat="44.0654279" lon="15.5263286"><ele>184.0</ele><time>2026-05-05T07:23:06.596Z</time></trkpt><trkpt lat="44.065642" lon="15.5260689"><ele>183.5</ele><time>2026-05-05T07:23:07.596Z</time></trkpt><trkpt lat="44.0658539" lon="15.5258024"><ele>183.0</ele><time>2026-05-05T07:23:08.596Z</time></trkpt><trkpt lat="44.0660677" lon="15.5255456"><ele>182.5</ele><time>2026-05-05T07:23:09.595Z</time></trkpt><trkpt lat="44.0662821" lon="15.525293"><ele>182.0</ele><time>2026-05-05T07:23:10.595Z</time></trkpt><trkpt lat="44.0665028" lon="15.5250449"><ele>183.0</ele><time>2026-05-05T07:23:11.595Z</time></trkpt><trkpt lat="44.0667156" lon="15.5247921"><ele>184.0</ele><time>2026-05-05T07:23:12.595Z</time></trkpt><trkpt lat="44.0669301" lon="15.5245351"><ele>184.5</ele><time>2026-05-05T07:23:13.596Z</time></trkpt><trkpt lat="44.0671465" lon="15.5242802"><ele>185.0</ele><time>2026-05-05T07:23:14.596Z</time></trkpt><trkpt lat="44.0673629" lon="15.5240351"><ele>185.0</ele><time>2026-05-05T07:23:15.595Z</time></trkpt><trkpt lat="44.067577" lon="15.523785"><ele>185.0</ele><time>2026-05-05T07:23:16.595Z</time></trkpt><trkpt lat="44.0677898" lon="15.5235283"><ele>185.5</ele><time>2026-05-05T07:23:17.596Z</time></trkpt><trkpt lat="44.0680059" lon="15.5232712"><ele>186.0</ele><time>2026-05-05T07:23:18.596Z</time></trkpt><trkpt lat="44.0682248" lon="15.5230216"><ele>186.0</ele><time>2026-05-05T07:23:19.595Z</time></trkpt><trkpt lat="44.0684432" lon="15.5227632"><ele>186.0</ele><time>2026-05-05T07:23:20.596Z</time></trkpt><trkpt lat="44.0686565" lon="15.5225108"><ele>186.0</ele><time>2026-05-05T07:23:21.595Z</time></trkpt><trkpt lat="44.0688675" lon="15.5222737"><ele>186.0</ele><time>2026-05-05T07:23:22.595Z</time></trkpt><trkpt lat="44.0690832" lon="15.5220241"><ele>188.5</ele><time>2026-05-05T07:23:23.595Z</time></trkpt><trkpt lat="44.0692981" lon="15.521769"><ele>191.0</ele><time>2026-05-05T07:23:24.595Z</time></trkpt><trkpt lat="44.0695132" lon="15.5215125"><ele>191.0</ele><time>2026-05-05T07:23:25.596Z</time></trkpt><trkpt lat="44.0697257" lon="15.5212564"><ele>191.0</ele><time>2026-05-05T07:23:26.595Z</time></trkpt><trkpt lat="44.0699359" lon="15.5210083"><ele>193.0</ele><time>2026-05-05T07:23:27.595Z</time></trkpt><trkpt lat="44.0701466" lon="15.5207521"><ele>195.0</ele><time>2026-05-05T07:23:28.595Z</time></trkpt><trkpt lat="44.0703658" lon="15.5204973"><ele>196.0</ele><time>2026-05-05T07:23:29.596Z</time></trkpt><trkpt lat="44.0705861" lon="15.5202403"><ele>197.0</ele><time>2026-05-05T07:23:30.596Z</time></trkpt><trkpt lat="44.070802" lon="15.5199793"><ele>197.5</ele><time>2026-05-05T07:23:31.596Z</time></trkpt><trkpt lat="44.0710208" lon="15.5197054"><ele>198.0</ele><time>2026-05-05T07:23:32.596Z</time></trkpt><trkpt lat="44.0712371" lon="15.5194456"><ele>200.5</ele><time>2026-05-05T07:23:33.596Z</time></trkpt><trkpt lat="44.0714525" lon="15.5191827"><ele>203.0</ele><time>2026-05-05T07:23:34.595Z</time></trkpt><trkpt lat="44.0716738" lon="15.5189186"><ele>204.0</ele><time>2026-05-05T07:23:35.596Z</time></trkpt><trkpt lat="44.0718943" lon="15.5186318"><ele>205.0</ele><time>2026-05-05T07:23:36.596Z</time></trkpt><trkpt lat="44.0721143" lon="15.51838"><ele>205.0</ele><time>2026-05-05T07:23:37.596Z</time></trkpt><trkpt lat="44.0723369" lon="15.518113"><ele>205.0</ele><time>2026-05-05T07:23:38.596Z</time></trkpt><trkpt lat="44.0725617" lon="15.5178412"><ele>205.5</ele><time>2026-05-05T07:23:39.595Z</time></trkpt><trkpt lat="44.0727819" lon="15.5175754"><ele>206.0</ele><time>2026-05-05T07:23:40.596Z</time></trkpt><trkpt lat="44.0730039" lon="15.5173107"><ele>205.5</ele><time>2026-05-05T07:23:41.596Z</time></trkpt><trkpt lat="44.0732257" lon="15.5170535"><ele>205.0</ele><time>2026-05-05T07:23:42.596Z</time></trkpt><trkpt lat="44.0734437" lon="15.5167931"><ele>205.0</ele><time>2026-05-05T07:23:43.595Z</time></trkpt><trkpt lat="44.0736631" lon="15.5165334"><ele>205.0</ele><time>2026-05-05T07:23:44.595Z</time></trkpt><trkpt lat="44.073882" lon="15.5162702"><ele>205.5</ele><time>2026-05-05T07:23:45.595Z</time></trkpt><trkpt lat="44.0741027" lon="15.516002"><ele>206.0</ele><time>2026-05-05T07:23:46.595Z</time></trkpt><trkpt lat="44.074323" lon="15.5157445"><ele>206.5</ele><time>2026-05-05T07:23:47.596Z</time></trkpt><trkpt lat="44.0745463" lon="15.5154854"><ele>207.0</ele><time>2026-05-05T07:23:48.595Z</time></trkpt><trkpt lat="44.0747694" lon="15.515218"><ele>208.0</ele><time>2026-05-05T07:23:49.596Z</time></trkpt><trkpt lat="44.0749913" lon="15.5149341"><ele>209.0</ele><time>2026-05-05T07:23:50.596Z</time></trkpt><trkpt lat="44.0752124" lon="15.5146692"><ele>210.5</ele><time>2026-05-05T07:23:51.595Z</time></trkpt><trkpt lat="44.0754374" lon="15.5144086"><ele>212.0</ele><time>2026-05-05T07:23:52.595Z</time></trkpt><trkpt lat="44.075663" lon="15.5141455"><ele>212.0</ele><time>2026-05-05T07:23:53.596Z</time></trkpt><trkpt lat="44.0758885" lon="15.5138784"><ele>212.0</ele><time>2026-05-05T07:23:54.596Z</time></trkpt><trkpt lat="44.0761141" lon="15.5136128"><ele>213.0</ele><time>2026-05-05T07:23:55.596Z</time></trkpt><trkpt lat="44.0763382" lon="15.5133394"><ele>214.0</ele><time>2026-05-05T07:23:56.595Z</time></trkpt><trkpt lat="44.0765626" lon="15.5130675"><ele>212.5</ele><time>2026-05-05T07:23:57.595Z</time></trkpt><trkpt lat="44.076788" lon="15.5128024"><ele>211.0</ele><time>2026-05-05T07:23:58.595Z</time></trkpt><trkpt lat="44.0770128" lon="15.5125318"><ele>211.0</ele><time>2026-05-05T07:23:59.596Z</time></trkpt><trkpt lat="44.0772379" lon="15.5122623"><ele>211.0</ele><time>2026-05-05T07:24:00.595Z</time></trkpt><trkpt lat="44.0774624" lon="15.5120044"><ele>208.5</ele><time>2026-05-05T07:24:01.595Z</time></trkpt><trkpt lat="44.0776865" lon="15.5117387"><ele>206.0</ele><time>2026-05-05T07:24:02.595Z</time></trkpt><trkpt lat="44.0779114" lon="15.5114754"><ele>206.5</ele><time>2026-05-05T07:24:03.595Z</time></trkpt><trkpt lat="44.0781355" lon="15.5112057"><ele>207.0</ele><time>2026-05-05T07:24:04.595Z</time></trkpt><trkpt lat="44.0783541" lon="15.510919"><ele>206.0</ele><time>2026-05-05T07:24:05.595Z</time></trkpt><trkpt lat="44.0785804" lon="15.5106518"><ele>205.0</ele><time>2026-05-05T07:24:06.596Z</time></trkpt><trkpt lat="44.0788009" lon="15.5103913"><ele>204.0</ele><time>2026-05-05T07:24:07.596Z</time></trkpt><trkpt lat="44.0790205" lon="15.5101332"><ele>203.0</ele><time>2026-05-05T07:24:08.595Z</time></trkpt><trkpt lat="44.0792445" lon="15.5098676"><ele>203.0</ele><time>2026-05-05T07:24:09.595Z</time></trkpt><trkpt lat="44.0794679" lon="15.509604"><ele>203.0</ele><time>2026-05-05T07:24:10.595Z</time></trkpt><trkpt lat="44.0796881" lon="15.5093369"><ele>203.0</ele><time>2026-05-05T07:24:11.595Z</time></trkpt><trkpt lat="44.0799073" lon="15.5090682"><ele>203.0</ele><time>2026-05-05T07:24:12.596Z</time></trkpt><trkpt lat="44.0801288" lon="15.5088027"><ele>201.0</ele><time>2026-05-05T07:24:13.596Z</time></trkpt><trkpt lat="44.0803476" lon="15.5085408"><ele>199.0</ele><time>2026-05-05T07:24:14.596Z</time></trkpt><trkpt lat="44.0805687" lon="15.5082741"><ele>198.0</ele><time>2026-05-05T07:24:15.595Z</time></trkpt><trkpt lat="44.0807889" lon="15.5079945"><ele>197.0</ele><time>2026-05-05T07:24:16.596Z</time></trkpt><trkpt lat="44.0810103" lon="15.5077235"><ele>197.0</ele><time>2026-05-05T07:24:17.596Z</time></trkpt><trkpt lat="44.0812258" lon="15.5074504"><ele>197.0</ele><time>2026-05-05T07:24:18.596Z</time></trkpt><trkpt lat="44.0814422" lon="15.5071767"><ele>196.0</ele><time>2026-05-05T07:24:19.596Z</time></trkpt><trkpt lat="44.0816587" lon="15.5068965"><ele>195.0</ele><time>2026-05-05T07:24:20.596Z</time></trkpt><trkpt lat="44.0818718" lon="15.5066233"><ele>195.0</ele><time>2026-05-05T07:24:21.595Z</time></trkpt><trkpt lat="44.0820835" lon="15.5063508"><ele>195.0</ele><time>2026-05-05T07:24:22.595Z</time></trkpt><trkpt lat="44.0822948" lon="15.5060737"><ele>194.0</ele><time>2026-05-05T07:24:23.596Z</time></trkpt><trkpt lat="44.0825024" lon="15.5057777"><ele>193.0</ele><time>2026-05-05T07:24:24.596Z</time></trkpt><trkpt lat="44.0827168" lon="15.5054957"><ele>193.5</ele><time>2026-05-05T07:24:25.596Z</time></trkpt><trkpt lat="44.0829283" lon="15.5052236"><ele>194.0</ele><time>2026-05-05T07:24:26.596Z</time></trkpt><trkpt lat="44.0831285" lon="15.5049303"><ele>195.0</ele><time>2026-05-05T07:24:27.595Z</time></trkpt><trkpt lat="44.0833329" lon="15.5046493"><ele>196.0</ele><time>2026-05-05T07:24:28.595Z</time></trkpt><trkpt lat="44.0835372" lon="15.5043679"><ele>196.0</ele><time>2026-05-05T07:24:29.596Z</time></trkpt><trkpt lat="44.0837322" lon="15.5040802"><ele>196.0</ele><time>2026-05-05T07:24:30.595Z</time></trkpt><trkpt lat="44.0839309" lon="15.5037932"><ele>196.5</ele><time>2026-05-05T07:24:31.595Z</time></trkpt><trkpt lat="44.0841175" lon="15.5035049"><ele>197.0</ele><time>2026-05-05T07:24:32.595Z</time></trkpt><trkpt lat="44.0843098" lon="15.5032274"><ele>197.0</ele><time>2026-05-05T07:24:33.595Z</time></trkpt><trkpt lat="44.0845007" lon="15.5029416"><ele>197.0</ele><time>2026-05-05T07:24:34.595Z</time></trkpt><trkpt lat="44.0846959" lon="15.5026583"><ele>197.0</ele><time>2026-05-05T07:24:35.596Z</time></trkpt><trkpt lat="44.0848826" lon="15.5023652"><ele>197.0</ele><time>2026-05-05T07:24:36.596Z</time></trkpt><trkpt lat="44.0850692" lon="15.5020802"><ele>197.0</ele><time>2026-05-05T07:24:37.595Z</time></trkpt><trkpt lat="44.0852522" lon="15.5017929"><ele>197.0</ele><time>2026-05-05T07:24:38.595Z</time></trkpt><trkpt lat="44.0854363" lon="15.5015029"><ele>197.5</ele><time>2026-05-05T07:24:39.596Z</time></trkpt><trkpt lat="44.0856185" lon="15.5012149"><ele>198.0</ele><time>2026-05-05T07:24:40.595Z</time></trkpt><trkpt lat="44.0857976" lon="15.5009258"><ele>198.0</ele><time>2026-05-05T07:24:41.595Z</time></trkpt><trkpt lat="44.0859735" lon="15.5006329"><ele>198.0</ele><time>2026-05-05T07:24:42.595Z</time></trkpt><trkpt lat="44.0861501" lon="15.5003359"><ele>198.5</ele><time>2026-05-05T07:24:43.595Z</time></trkpt><trkpt lat="44.0863243" lon="15.5000287"><ele>199.0</ele><time>2026-05-05T07:24:44.595Z</time></trkpt><trkpt lat="44.0865032" lon="15.4997341"><ele>198.5</ele><time>2026-05-05T07:24:45.596Z</time></trkpt><trkpt lat="44.0866745" lon="15.4994418"><ele>198.0</ele><time>2026-05-05T07:24:46.596Z</time></trkpt><trkpt lat="44.086844" lon="15.4991546"><ele>198.0</ele><time>2026-05-05T07:24:47.595Z</time></trkpt><trkpt lat="44.0870183" lon="15.498856"><ele>198.0</ele><time>2026-05-05T07:24:48.595Z</time></trkpt><trkpt lat="44.0871898" lon="15.4985647"><ele>198.0</ele><time>2026-05-05T07:24:49.595Z</time></trkpt><trkpt lat="44.0873599" lon="15.4982655"><ele>198.0</ele><time>2026-05-05T07:24:50.596Z</time></trkpt><trkpt lat="44.0875278" lon="15.4979784"><ele>198.5</ele><time>2026-05-05T07:24:51.595Z</time></trkpt><trkpt lat="44.0876972" lon="15.4976704"><ele>199.0</ele><time>2026-05-05T07:24:52.596Z</time></trkpt><trkpt lat="44.0878675" lon="15.497364"><ele>198.5</ele><time>2026-05-05T07:24:53.596Z</time></trkpt><trkpt lat="44.0880313" lon="15.497058"><ele>198.0</ele><time>2026-05-05T07:24:54.595Z</time></trkpt><trkpt lat="44.0881959" lon="15.4967563"><ele>198.0</ele><time>2026-05-05T07:24:55.595Z</time></trkpt><trkpt lat="44.088366" lon="15.4964486"><ele>198.0</ele><time>2026-05-05T07:24:56.596Z</time></trkpt><trkpt lat="44.0885305" lon="15.496139"><ele>197.5</ele><time>2026-05-05T07:24:57.596Z</time></trkpt><trkpt lat="44.0886878" lon="15.4958207"><ele>197.0</ele><time>2026-05-05T07:24:58.596Z</time></trkpt><trkpt lat="44.088854" lon="15.495501"><ele>197.0</ele><time>2026-05-05T07:24:59.596Z</time></trkpt><trkpt lat="44.0890131" lon="15.4951921"><ele>197.0</ele><time>2026-05-05T07:25:00.595Z</time></trkpt><trkpt lat="44.0891719" lon="15.4948741"><ele>196.5</ele><time>2026-05-05T07:25:01.595Z</time></trkpt><trkpt lat="44.0893256" lon="15.4945556"><ele>196.0</ele><time>2026-05-05T07:25:02.596Z</time></trkpt><trkpt lat="44.0894845" lon="15.494231"><ele>196.0</ele><time>2026-05-05T07:25:03.595Z</time></trkpt><trkpt lat="44.0896368" lon="15.4939109"><ele>196.0</ele><time>2026-05-05T07:25:04.596Z</time></trkpt><trkpt lat="44.0897901" lon="15.4935917"><ele>195.0</ele><time>2026-05-05T07:25:05.595Z</time></trkpt><trkpt lat="44.0899435" lon="15.4932646"><ele>194.0</ele><time>2026-05-05T07:25:06.596Z</time></trkpt><trkpt lat="44.0900939" lon="15.4929375"><ele>194.0</ele><time>2026-05-05T07:25:07.595Z</time></trkpt><trkpt lat="44.0902467" lon="15.4926075"><ele>194.0</ele><time>2026-05-05T07:25:08.596Z</time></trkpt><trkpt lat="44.0903944" lon="15.492276"><ele>194.0</ele><time>2026-05-05T07:25:09.596Z</time></trkpt><trkpt lat="44.0905456" lon="15.4919457"><ele>194.0</ele><time>2026-05-05T07:25:10.595Z</time></trkpt><trkpt lat="44.0906989" lon="15.4916158"><ele>193.5</ele><time>2026-05-05T07:25:11.595Z</time></trkpt><trkpt lat="44.0908479" lon="15.4912869"><ele>193.0</ele><time>2026-05-05T07:25:12.596Z</time></trkpt><trkpt lat="44.090994" lon="15.4909607"><ele>192.0</ele><time>2026-05-05T07:25:13.595Z</time></trkpt><trkpt lat="44.0911486" lon="15.4906114"><ele>191.0</ele><time>2026-05-05T07:25:14.596Z</time></trkpt><trkpt lat="44.0912948" lon="15.4902721"><ele>190.5</ele><time>2026-05-05T07:25:15.595Z</time></trkpt><trkpt lat="44.0914414" lon="15.4899325"><ele>190.0</ele><time>2026-05-05T07:25:16.595Z</time></trkpt><trkpt lat="44.0915837" lon="15.4895872"><ele>189.5</ele><time>2026-05-05T07:25:17.595Z</time></trkpt><trkpt lat="44.0917271" lon="15.4892396"><ele>189.0</ele><time>2026-05-05T07:25:18.595Z</time></trkpt><trkpt lat="44.0918711" lon="15.4888907"><ele>188.0</ele><time>2026-05-05T07:25:19.595Z</time></trkpt><trkpt lat="44.0920175" lon="15.4885402"><ele>187.0</ele><time>2026-05-05T07:25:20.595Z</time></trkpt><trkpt lat="44.0921583" lon="15.4881813"><ele>187.0</ele><time>2026-05-05T07:25:21.596Z</time></trkpt><trkpt lat="44.0922981" lon="15.4878265"><ele>187.0</ele><time>2026-05-05T07:25:22.595Z</time></trkpt><trkpt lat="44.0924356" lon="15.4874679"><ele>187.0</ele><time>2026-05-05T07:25:23.596Z</time></trkpt><trkpt lat="44.0925688" lon="15.4871152"><ele>187.0</ele><time>2026-05-05T07:25:24.595Z</time></trkpt><trkpt lat="44.0927043" lon="15.4867586"><ele>186.0</ele><time>2026-05-05T07:25:25.596Z</time></trkpt><trkpt lat="44.0928398" lon="15.4864003"><ele>185.0</ele><time>2026-05-05T07:25:26.596Z</time></trkpt><trkpt lat="44.0929723" lon="15.4860387"><ele>184.5</ele><time>2026-05-05T07:25:27.596Z</time></trkpt><trkpt lat="44.0931132" lon="15.4856436"><ele>184.0</ele><time>2026-05-05T07:25:28.596Z</time></trkpt><trkpt lat="44.0932455" lon="15.4852749"><ele>184.0</ele><time>2026-05-05T07:25:29.596Z</time></trkpt><trkpt lat="44.0933762" lon="15.4849109"><ele>184.0</ele><time>2026-05-05T07:25:30.596Z</time></trkpt><trkpt lat="44.0935061" lon="15.4845468"><ele>182.0</ele><time>2026-05-05T07:25:31.596Z</time></trkpt><trkpt lat="44.0936311" lon="15.4841825"><ele>180.0</ele><time>2026-05-05T07:25:32.596Z</time></trkpt><trkpt lat="44.0937583" lon="15.4838161"><ele>179.0</ele><time>2026-05-05T07:25:33.596Z</time></trkpt><trkpt lat="44.0938817" lon="15.4834524"><ele>178.0</ele><time>2026-05-05T07:25:34.595Z</time></trkpt><trkpt lat="44.0940075" lon="15.4830864"><ele>177.5</ele><time>2026-05-05T07:25:35.596Z</time></trkpt><trkpt lat="44.0941261" lon="15.4827147"><ele>177.0</ele><time>2026-05-05T07:25:36.596Z</time></trkpt><trkpt lat="44.0942487" lon="15.4823452"><ele>176.0</ele><time>2026-05-05T07:25:37.595Z</time></trkpt><trkpt lat="44.0943721" lon="15.4819897"><ele>175.0</ele><time>2026-05-05T07:25:38.595Z</time></trkpt><trkpt lat="44.0945" lon="15.4816204"><ele>175.0</ele><time>2026-05-05T07:25:39.596Z</time></trkpt><trkpt lat="44.0946382" lon="15.4812685"><ele>175.0</ele><time>2026-05-05T07:25:40.596Z</time></trkpt><trkpt lat="44.0947641" lon="15.4809039"><ele>174.5</ele><time>2026-05-05T07:25:41.595Z</time></trkpt><trkpt lat="44.0948908" lon="15.4805493"><ele>174.0</ele><time>2026-05-05T07:25:42.596Z</time></trkpt><trkpt lat="44.0950156" lon="15.4801862"><ele>174.0</ele><time>2026-05-05T07:25:43.595Z</time></trkpt><trkpt lat="44.0951525" lon="15.4798304"><ele>174.0</ele><time>2026-05-05T07:25:44.595Z</time></trkpt><trkpt lat="44.0952808" lon="15.4794733"><ele>172.0</ele><time>2026-05-05T07:25:45.595Z</time></trkpt><trkpt lat="44.0954076" lon="15.4791151"><ele>170.0</ele><time>2026-05-05T07:25:46.595Z</time></trkpt><trkpt lat="44.0955357" lon="15.4787583"><ele>168.5</ele><time>2026-05-05T07:25:47.595Z</time></trkpt><trkpt lat="44.0956614" lon="15.4784005"><ele>167.0</ele><time>2026-05-05T07:25:48.596Z</time></trkpt><trkpt lat="44.0957948" lon="15.4780412"><ele>166.5</ele><time>2026-05-05T07:25:49.595Z</time></trkpt><trkpt lat="44.0959472" lon="15.4776794"><ele>166.0</ele><time>2026-05-05T07:25:50.595Z</time></trkpt><trkpt lat="44.0960808" lon="15.4773287"><ele>163.0</ele><time>2026-05-05T07:25:51.596Z</time></trkpt><trkpt lat="44.0962165" lon="15.4769752"><ele>160.0</ele><time>2026-05-05T07:25:52.596Z</time></trkpt><trkpt lat="44.0963515" lon="15.4766277"><ele>160.0</ele><time>2026-05-05T07:25:53.596Z</time></trkpt><trkpt lat="44.0964861" lon="15.4762722"><ele>160.0</ele><time>2026-05-05T07:25:54.595Z</time></trkpt><trkpt lat="44.0966276" lon="15.4759234"><ele>160.5</ele><time>2026-05-05T07:25:55.596Z</time></trkpt><trkpt lat="44.0967749" lon="15.475575"><ele>161.0</ele><time>2026-05-05T07:25:56.595Z</time></trkpt><trkpt lat="44.0969196" lon="15.4752352"><ele>159.0</ele><time>2026-05-05T07:25:57.596Z</time></trkpt><trkpt lat="44.0970649" lon="15.4748964"><ele>157.0</ele><time>2026-05-05T07:25:58.596Z</time></trkpt><trkpt lat="44.0972127" lon="15.4745508"><ele>156.5</ele><time>2026-05-05T07:25:59.595Z</time></trkpt><trkpt lat="44.0973622" lon="15.4742099"><ele>156.0</ele><time>2026-05-05T07:26:00.596Z</time></trkpt><trkpt lat="44.0975122" lon="15.4738768"><ele>155.5</ele><time>2026-05-05T07:26:01.595Z</time></trkpt><trkpt lat="44.0976613" lon="15.4735366"><ele>155.0</ele><time>2026-05-05T07:26:02.595Z</time></trkpt><trkpt lat="44.0978152" lon="15.4732005"><ele>154.0</ele><time>2026-05-05T07:26:03.596Z</time></trkpt><trkpt lat="44.0979694" lon="15.4728612"><ele>153.0</ele><time>2026-05-05T07:26:04.596Z</time></trkpt><trkpt lat="44.0981223" lon="15.4725273"><ele>153.5</ele><time>2026-05-05T07:26:05.596Z</time></trkpt><trkpt lat="44.0982767" lon="15.4721985"><ele>154.0</ele><time>2026-05-05T07:26:06.596Z</time></trkpt><trkpt lat="44.0984356" lon="15.4718669"><ele>153.0</ele><time>2026-05-05T07:26:07.595Z</time></trkpt><trkpt lat="44.0985975" lon="15.4715316"><ele>152.0</ele><time>2026-05-05T07:26:08.596Z</time></trkpt><trkpt lat="44.0987544" lon="15.4712047"><ele>151.5</ele><time>2026-05-05T07:26:09.596Z</time></trkpt><trkpt lat="44.0989127" lon="15.4708642"><ele>151.0</ele><time>2026-05-05T07:26:10.596Z</time></trkpt><trkpt lat="44.0990758" lon="15.4705297"><ele>149.5</ele><time>2026-05-05T07:26:11.595Z</time></trkpt><trkpt lat="44.0992393" lon="15.4702012"><ele>148.0</ele><time>2026-05-05T07:26:12.595Z</time></trkpt><trkpt lat="44.0994032" lon="15.4698735"><ele>147.5</ele><time>2026-05-05T07:26:13.595Z</time></trkpt><trkpt lat="44.0995692" lon="15.4695504"><ele>147.0</ele><time>2026-05-05T07:26:14.595Z</time></trkpt><trkpt lat="44.099737" lon="15.4692258"><ele>147.0</ele><time>2026-05-05T07:26:15.596Z</time></trkpt><trkpt lat="44.0999027" lon="15.4688955"><ele>147.0</ele><time>2026-05-05T07:26:16.595Z</time></trkpt><trkpt lat="44.1000729" lon="15.4685742"><ele>146.5</ele><time>2026-05-05T07:26:17.596Z</time></trkpt><trkpt lat="44.1002472" lon="15.4682495"><ele>146.0</ele><time>2026-05-05T07:26:18.595Z</time></trkpt><trkpt lat="44.1004254" lon="15.467927"><ele>146.0</ele><time>2026-05-05T07:26:19.595Z</time></trkpt><trkpt lat="44.1006026" lon="15.4676062"><ele>146.0</ele><time>2026-05-05T07:26:20.596Z</time></trkpt><trkpt lat="44.1007787" lon="15.4672805"><ele>145.0</ele><time>2026-05-05T07:26:21.595Z</time></trkpt><trkpt lat="44.100959" lon="15.4669712"><ele>144.0</ele><time>2026-05-05T07:26:22.595Z</time></trkpt><trkpt lat="44.1011377" lon="15.4666436"><ele>144.0</ele><time>2026-05-05T07:26:23.595Z</time></trkpt><trkpt lat="44.1013198" lon="15.4663246"><ele>144.0</ele><time>2026-05-05T07:26:24.596Z</time></trkpt><trkpt lat="44.1015002" lon="15.4660002"><ele>143.5</ele><time>2026-05-05T07:26:25.595Z</time></trkpt><trkpt lat="44.101681" lon="15.4656804"><ele>143.0</ele><time>2026-05-05T07:26:26.596Z</time></trkpt><trkpt lat="44.1018758" lon="15.4653639"><ele>142.5</ele><time>2026-05-05T07:26:27.596Z</time></trkpt><trkpt lat="44.1020639" lon="15.4650471"><ele>142.0</ele><time>2026-05-05T07:26:28.596Z</time></trkpt><trkpt lat="44.1022552" lon="15.4647264"><ele>143.0</ele><time>2026-05-05T07:26:29.595Z</time></trkpt><trkpt lat="44.1024426" lon="15.4643992"><ele>144.0</ele><time>2026-05-05T07:26:30.595Z</time></trkpt><trkpt lat="44.1026314" lon="15.464084"><ele>143.5</ele><time>2026-05-05T07:26:31.596Z</time></trkpt><trkpt lat="44.1028263" lon="15.4637721"><ele>143.0</ele><time>2026-05-05T07:26:32.596Z</time></trkpt><trkpt lat="44.1030213" lon="15.4634492"><ele>143.0</ele><time>2026-05-05T07:26:33.596Z</time></trkpt><trkpt lat="44.1032114" lon="15.4631573"><ele>143.0</ele><time>2026-05-05T07:26:34.595Z</time></trkpt><trkpt lat="44.1034091" lon="15.4628451"><ele>145.0</ele><time>2026-05-05T07:26:35.596Z</time></trkpt><trkpt lat="44.1036106" lon="15.4625402"><ele>147.0</ele><time>2026-05-05T07:26:36.595Z</time></trkpt><trkpt lat="44.103809" lon="15.4622306"><ele>147.0</ele><time>2026-05-05T07:26:37.595Z</time></trkpt><trkpt lat="44.1040122" lon="15.4619246"><ele>147.0</ele><time>2026-05-05T07:26:38.595Z</time></trkpt><trkpt lat="44.1042129" lon="15.4616211"><ele>147.0</ele><time>2026-05-05T07:26:39.596Z</time></trkpt><trkpt lat="44.1044389" lon="15.4613055"><ele>147.0</ele><time>2026-05-05T07:26:40.595Z</time></trkpt><trkpt lat="44.1046418" lon="15.461005"><ele>147.5</ele><time>2026-05-05T07:26:41.596Z</time></trkpt><trkpt lat="44.1048437" lon="15.4607101"><ele>148.0</ele><time>2026-05-05T07:26:42.595Z</time></trkpt><trkpt lat="44.1050456" lon="15.4604125"><ele>148.5</ele><time>2026-05-05T07:26:43.595Z</time></trkpt><trkpt lat="44.1052481" lon="15.4601079"><ele>149.0</ele><time>2026-05-05T07:26:44.596Z</time></trkpt><trkpt lat="44.1054684" lon="15.459802"><ele>148.5</ele><time>2026-05-05T07:26:45.595Z</time></trkpt><trkpt lat="44.105672" lon="15.4595047"><ele>148.0</ele><time>2026-05-05T07:26:46.595Z</time></trkpt><trkpt lat="44.1058768" lon="15.4592085"><ele>148.0</ele><time>2026-05-05T07:26:47.596Z</time></trkpt><trkpt lat="44.1060801" lon="15.4589103"><ele>148.0</ele><time>2026-05-05T07:26:48.596Z</time></trkpt><trkpt lat="44.1062766" lon="15.458603"><ele>147.5</ele><time>2026-05-05T07:26:49.596Z</time></trkpt><trkpt lat="44.1064869" lon="15.4582953"><ele>147.0</ele><time>2026-05-05T07:26:50.596Z</time></trkpt><trkpt lat="44.1066942" lon="15.457993"><ele>147.5</ele><time>2026-05-05T07:26:51.595Z</time></trkpt><trkpt lat="44.1068924" lon="15.4577008"><ele>148.0</ele><time>2026-05-05T07:26:52.596Z</time></trkpt><trkpt lat="44.1070879" lon="15.4573837"><ele>148.5</ele><time>2026-05-05T07:26:53.596Z</time></trkpt><trkpt lat="44.1072834" lon="15.4570769"><ele>149.0</ele><time>2026-05-05T07:26:54.595Z</time></trkpt><trkpt lat="44.1074814" lon="15.4567768"><ele>149.5</ele><time>2026-05-05T07:26:55.596Z</time></trkpt><trkpt lat="44.1076639" lon="15.456468"><ele>150.0</ele><time>2026-05-05T07:26:56.595Z</time></trkpt><trkpt lat="44.1078553" lon="15.4561526"><ele>150.0</ele><time>2026-05-05T07:26:57.595Z</time></trkpt><trkpt lat="44.1080446" lon="15.4558389"><ele>150.0</ele><time>2026-05-05T07:26:58.596Z</time></trkpt><trkpt lat="44.1082376" lon="15.4555254"><ele>150.0</ele><time>2026-05-05T07:26:59.596Z</time></trkpt><trkpt lat="44.1084291" lon="15.4552171"><ele>150.0</ele><time>2026-05-05T07:27:00.596Z</time></trkpt><trkpt lat="44.1086163" lon="15.4549009"><ele>149.5</ele><time>2026-05-05T07:27:01.595Z</time></trkpt><trkpt lat="44.1088051" lon="15.4545822"><ele>149.0</ele><time>2026-05-05T07:27:02.595Z</time></trkpt><trkpt lat="44.1089923" lon="15.4542471"><ele>149.0</ele><time>2026-05-05T07:27:03.596Z</time></trkpt><trkpt lat="44.109174" lon="15.4539245"><ele>149.0</ele><time>2026-05-05T07:27:04.595Z</time></trkpt><trkpt lat="44.1093616" lon="15.4536033"><ele>149.0</ele><time>2026-05-05T07:27:05.596Z</time></trkpt><trkpt lat="44.1095449" lon="15.4532781"><ele>149.0</ele><time>2026-05-05T07:27:06.595Z</time></trkpt><trkpt lat="44.1097348" lon="15.452959"><ele>149.5</ele><time>2026-05-05T07:27:07.595Z</time></trkpt><trkpt lat="44.1099133" lon="15.452627"><ele>150.0</ele><time>2026-05-05T07:27:08.595Z</time></trkpt><trkpt lat="44.1100934" lon="15.4523019"><ele>151.0</ele><time>2026-05-05T07:27:09.595Z</time></trkpt><trkpt lat="44.1102748" lon="15.4519744"><ele>152.0</ele><time>2026-05-05T07:27:10.595Z</time></trkpt><trkpt lat="44.1104548" lon="15.4516522"><ele>152.0</ele><time>2026-05-05T07:27:11.595Z</time></trkpt><trkpt lat="44.1106383" lon="15.4513272"><ele>152.0</ele><time>2026-05-05T07:27:12.596Z</time></trkpt><trkpt lat="44.1108201" lon="15.4509974"><ele>153.0</ele><time>2026-05-05T07:27:13.595Z</time></trkpt><trkpt lat="44.1109927" lon="15.4506555"><ele>154.0</ele><time>2026-05-05T07:27:14.595Z</time></trkpt><trkpt lat="44.1111729" lon="15.4503261"><ele>155.0</ele><time>2026-05-05T07:27:15.596Z</time></trkpt><trkpt lat="44.1113473" lon="15.4500035"><ele>156.0</ele><time>2026-05-05T07:27:16.595Z</time></trkpt><trkpt lat="44.1115254" lon="15.449685"><ele>156.0</ele><time>2026-05-05T07:27:17.595Z</time></trkpt><trkpt lat="44.1116993" lon="15.449357"><ele>156.0</ele><time>2026-05-05T07:27:18.596Z</time></trkpt><trkpt lat="44.1118757" lon="15.4490339"><ele>156.5</ele><time>2026-05-05T07:27:19.595Z</time></trkpt><trkpt lat="44.112058" lon="15.4487056"><ele>157.0</ele><time>2026-05-05T07:27:20.596Z</time></trkpt><trkpt lat="44.1122383" lon="15.448383"><ele>157.5</ele><time>2026-05-05T07:27:21.596Z</time></trkpt><trkpt lat="44.1124275" lon="15.4480578"><ele>158.0</ele><time>2026-05-05T07:27:22.596Z</time></trkpt><trkpt lat="44.1126116" lon="15.447741"><ele>158.0</ele><time>2026-05-05T07:27:23.595Z</time></trkpt><trkpt lat="44.1128078" lon="15.4474268"><ele>158.0</ele><time>2026-05-05T07:27:24.595Z</time></trkpt><trkpt lat="44.1129837" lon="15.4471402"><ele>158.0</ele><time>2026-05-05T07:27:25.595Z</time></trkpt><trkpt lat="44.1131479" lon="15.4468478"><ele>158.0</ele><time>2026-05-05T07:27:26.596Z</time></trkpt><trkpt lat="44.1133131" lon="15.4465708"><ele>156.5</ele><time>2026-05-05T07:27:27.596Z</time></trkpt><trkpt lat="44.1134964" lon="15.4463002"><ele>155.0</ele><time>2026-05-05T07:27:28.595Z</time></trkpt><trkpt lat="44.1136673" lon="15.4460189"><ele>154.5</ele><time>2026-05-05T07:27:29.596Z</time></trkpt><trkpt lat="44.113844" lon="15.4457428"><ele>154.0</ele><time>2026-05-05T07:27:30.596Z</time></trkpt><trkpt lat="44.1140222" lon="15.4454647"><ele>153.5</ele><time>2026-05-05T07:27:31.596Z</time></trkpt><trkpt lat="44.1142058" lon="15.4451835"><ele>153.0</ele><time>2026-05-05T07:27:32.596Z</time></trkpt><trkpt lat="44.1144172" lon="15.4448915"><ele>151.5</ele><time>2026-05-05T07:27:33.596Z</time></trkpt><trkpt lat="44.1146026" lon="15.4446215"><ele>150.0</ele><time>2026-05-05T07:27:34.595Z</time></trkpt><trkpt lat="44.1148024" lon="15.4443365"><ele>150.5</ele><time>2026-05-05T07:27:35.595Z</time></trkpt><trkpt lat="44.1150265" lon="15.4440462"><ele>151.0</ele><time>2026-05-05T07:27:36.596Z</time></trkpt><trkpt lat="44.1152505" lon="15.4437486"><ele>151.0</ele><time>2026-05-05T07:27:37.595Z</time></trkpt><trkpt lat="44.1154752" lon="15.4434649"><ele>151.0</ele><time>2026-05-05T07:27:38.595Z</time></trkpt><trkpt lat="44.1156946" lon="15.4431818"><ele>152.0</ele><time>2026-05-05T07:27:39.596Z</time></trkpt><trkpt lat="44.1159153" lon="15.442892"><ele>153.0</ele><time>2026-05-05T07:27:40.596Z</time></trkpt><trkpt lat="44.1161413" lon="15.4426067"><ele>153.0</ele><time>2026-05-05T07:27:41.595Z</time></trkpt><trkpt lat="44.1163633" lon="15.4423276"><ele>153.0</ele><time>2026-05-05T07:27:42.595Z</time></trkpt><trkpt lat="44.1165877" lon="15.4420436"><ele>152.5</ele><time>2026-05-05T07:27:43.596Z</time></trkpt><trkpt lat="44.116815" lon="15.4417575"><ele>152.0</ele><time>2026-05-05T07:27:44.595Z</time></trkpt><trkpt lat="44.1170412" lon="15.4414698"><ele>151.5</ele><time>2026-05-05T07:27:45.595Z</time></trkpt><trkpt lat="44.1172634" lon="15.4411647"><ele>151.0</ele><time>2026-05-05T07:27:46.595Z</time></trkpt><trkpt lat="44.1174894" lon="15.4408668"><ele>150.5</ele><time>2026-05-05T07:27:47.596Z</time></trkpt><trkpt lat="44.1177136" lon="15.4405772"><ele>150.0</ele><time>2026-05-05T07:27:48.595Z</time></trkpt><trkpt lat="44.1179288" lon="15.4402849"><ele>150.0</ele><time>2026-05-05T07:27:49.596Z</time></trkpt><trkpt lat="44.1181372" lon="15.4399928"><ele>150.0</ele><time>2026-05-05T07:27:50.596Z</time></trkpt><trkpt lat="44.1183495" lon="15.4396931"><ele>150.0</ele><time>2026-05-05T07:27:51.595Z</time></trkpt><trkpt lat="44.1185586" lon="15.4393915"><ele>150.0</ele><time>2026-05-05T07:27:52.595Z</time></trkpt><trkpt lat="44.1187705" lon="15.4390921"><ele>149.5</ele><time>2026-05-05T07:27:53.595Z</time></trkpt><trkpt lat="44.1189792" lon="15.4387826"><ele>149.0</ele><time>2026-05-05T07:27:54.595Z</time></trkpt><trkpt lat="44.1191891" lon="15.4384681"><ele>149.0</ele><time>2026-05-05T07:27:55.596Z</time></trkpt><trkpt lat="44.1193954" lon="15.4381576"><ele>149.0</ele><time>2026-05-05T07:27:56.596Z</time></trkpt><trkpt lat="44.1195974" lon="15.4378351"><ele>148.5</ele><time>2026-05-05T07:27:57.595Z</time></trkpt><trkpt lat="44.1198009" lon="15.4375239"><ele>148.0</ele><time>2026-05-05T07:27:58.596Z</time></trkpt><trkpt lat="44.1199955" lon="15.4372039"><ele>148.0</ele><time>2026-05-05T07:27:59.596Z</time></trkpt><trkpt lat="44.1201916" lon="15.4368794"><ele>148.0</ele><time>2026-05-05T07:28:00.596Z</time></trkpt><trkpt lat="44.1203863" lon="15.4365417"><ele>148.5</ele><time>2026-05-05T07:28:01.596Z</time></trkpt><trkpt lat="44.1205723" lon="15.436209"><ele>149.0</ele><time>2026-05-05T07:28:02.595Z</time></trkpt><trkpt lat="44.1207539" lon="15.4358717"><ele>149.0</ele><time>2026-05-05T07:28:03.595Z</time></trkpt><trkpt lat="44.1209357" lon="15.4355346"><ele>149.0</ele><time>2026-05-05T07:28:04.596Z</time></trkpt><trkpt lat="44.1211149" lon="15.4352114"><ele>149.0</ele><time>2026-05-05T07:28:05.595Z</time></trkpt><trkpt lat="44.1212972" lon="15.4348766"><ele>149.0</ele><time>2026-05-05T07:28:06.596Z</time></trkpt><trkpt lat="44.1214811" lon="15.4345452"><ele>148.0</ele><time>2026-05-05T07:28:07.596Z</time></trkpt><trkpt lat="44.1216613" lon="15.4342151"><ele>147.0</ele><time>2026-05-05T07:28:08.595Z</time></trkpt><trkpt lat="44.1218368" lon="15.4338842"><ele>146.5</ele><time>2026-05-05T07:28:09.596Z</time></trkpt><trkpt lat="44.1220167" lon="15.4335531"><ele>146.0</ele><time>2026-05-05T07:28:10.596Z</time></trkpt><trkpt lat="44.1221799" lon="15.433212"><ele>146.0</ele><time>2026-05-05T07:28:11.596Z</time></trkpt><trkpt lat="44.1223587" lon="15.4328791"><ele>146.0</ele><time>2026-05-05T07:28:12.596Z</time></trkpt><trkpt lat="44.12254" lon="15.4325391"><ele>146.0</ele><time>2026-05-05T07:28:13.596Z</time></trkpt><trkpt lat="44.1227266" lon="15.432198"><ele>146.0</ele><time>2026-05-05T07:28:14.595Z</time></trkpt><trkpt lat="44.1229155" lon="15.4318722"><ele>146.0</ele><time>2026-05-05T07:28:15.596Z</time></trkpt><trkpt lat="44.1231069" lon="15.4315513"><ele>146.0</ele><time>2026-05-05T07:28:16.596Z</time></trkpt><trkpt lat="44.1233009" lon="15.4312279"><ele>145.5</ele><time>2026-05-05T07:28:17.596Z</time></trkpt><trkpt lat="44.1235039" lon="15.4309145"><ele>145.0</ele><time>2026-05-05T07:28:18.596Z</time></trkpt><trkpt lat="44.1237084" lon="15.4306025"><ele>144.5</ele><time>2026-05-05T07:28:19.596Z</time></trkpt><trkpt lat="44.1239158" lon="15.4302976"><ele>144.0</ele><time>2026-05-05T07:28:20.596Z</time></trkpt><trkpt lat="44.1241362" lon="15.4299906"><ele>144.0</ele><time>2026-05-05T07:28:21.595Z</time></trkpt><trkpt lat="44.1243458" lon="15.4296849"><ele>144.0</ele><time>2026-05-05T07:28:22.595Z</time></trkpt><trkpt lat="44.1245617" lon="15.429385"><ele>143.0</ele><time>2026-05-05T07:28:23.596Z</time></trkpt><trkpt lat="44.1247759" lon="15.4290883"><ele>142.0</ele><time>2026-05-05T07:28:24.596Z</time></trkpt><trkpt lat="44.1249964" lon="15.4287858"><ele>141.5</ele><time>2026-05-05T07:28:25.595Z</time></trkpt><trkpt lat="44.1252156" lon="15.4284942"><ele>141.0</ele><time>2026-05-05T07:28:26.595Z</time></trkpt><trkpt lat="44.1254376" lon="15.428184"><ele>140.0</ele><time>2026-05-05T07:28:27.596Z</time></trkpt><trkpt lat="44.1256656" lon="15.4279066"><ele>139.0</ele><time>2026-05-05T07:28:28.596Z</time></trkpt><trkpt lat="44.1258997" lon="15.427635"><ele>139.0</ele><time>2026-05-05T07:28:29.595Z</time></trkpt><trkpt lat="44.1261318" lon="15.4273496"><ele>139.0</ele><time>2026-05-05T07:28:30.596Z</time></trkpt><trkpt lat="44.1263714" lon="15.4270655"><ele>139.0</ele><time>2026-05-05T07:28:31.595Z</time></trkpt><trkpt lat="44.1266155" lon="15.4268162"><ele>139.0</ele><time>2026-05-05T07:28:32.595Z</time></trkpt><trkpt lat="44.126858" lon="15.4265586"><ele>139.0</ele><time>2026-05-05T07:28:33.596Z</time></trkpt><trkpt lat="44.127105" lon="15.4263129"><ele>139.0</ele><time>2026-05-05T07:28:34.595Z</time></trkpt><trkpt lat="44.1273485" lon="15.4260787"><ele>137.0</ele><time>2026-05-05T07:28:35.596Z</time></trkpt><trkpt lat="44.1275953" lon="15.4258379"><ele>135.0</ele><time>2026-05-05T07:28:36.596Z</time></trkpt><trkpt lat="44.127845" lon="15.4256079"><ele>134.5</ele><time>2026-05-05T07:28:37.596Z</time></trkpt><trkpt lat="44.1280907" lon="15.4253803"><ele>134.0</ele><time>2026-05-05T07:28:38.595Z</time></trkpt><trkpt lat="44.1283367" lon="15.4251579"><ele>133.0</ele><time>2026-05-05T07:28:39.595Z</time></trkpt><trkpt lat="44.1285822" lon="15.4249449"><ele>132.0</ele><time>2026-05-05T07:28:40.595Z</time></trkpt><trkpt lat="44.1288322" lon="15.4247327"><ele>132.0</ele><time>2026-05-05T07:28:41.596Z</time></trkpt><trkpt lat="44.1290812" lon="15.4245308"><ele>132.0</ele><time>2026-05-05T07:28:42.595Z</time></trkpt><trkpt lat="44.1293318" lon="15.4243382"><ele>132.0</ele><time>2026-05-05T07:28:43.596Z</time></trkpt><trkpt lat="44.1295808" lon="15.4241474"><ele>132.0</ele><time>2026-05-05T07:28:44.595Z</time></trkpt><trkpt lat="44.129832" lon="15.4239608"><ele>132.0</ele><time>2026-05-05T07:28:45.595Z</time></trkpt><trkpt lat="44.1300876" lon="15.4237773"><ele>132.0</ele><time>2026-05-05T07:28:46.596Z</time></trkpt><trkpt lat="44.130343" lon="15.4235911"><ele>132.0</ele><time>2026-05-05T07:28:47.595Z</time></trkpt><trkpt lat="44.1305972" lon="15.4234161"><ele>132.0</ele><time>2026-05-05T07:28:48.596Z</time></trkpt><trkpt lat="44.1308525" lon="15.4232487"><ele>132.0</ele><time>2026-05-05T07:28:49.595Z</time></trkpt><trkpt lat="44.1311069" lon="15.4230777"><ele>132.0</ele><time>2026-05-05T07:28:50.596Z</time></trkpt><trkpt lat="44.1313647" lon="15.4229142"><ele>131.5</ele><time>2026-05-05T07:28:51.596Z</time></trkpt><trkpt lat="44.131624" lon="15.4227553"><ele>131.0</ele><time>2026-05-05T07:28:52.595Z</time></trkpt><trkpt lat="44.1318829" lon="15.4226072"><ele>131.0</ele><time>2026-05-05T07:28:53.595Z</time></trkpt><trkpt lat="44.1321443" lon="15.4224637"><ele>131.0</ele><time>2026-05-05T07:28:54.596Z</time></trkpt><trkpt lat="44.132407" lon="15.4223276"><ele>131.0</ele><time>2026-05-05T07:28:55.595Z</time></trkpt><trkpt lat="44.1326679" lon="15.4221879"><ele>131.0</ele><time>2026-05-05T07:28:56.596Z</time></trkpt><trkpt lat="44.1329344" lon="15.4220547"><ele>130.5</ele><time>2026-05-05T07:28:57.596Z</time></trkpt><trkpt lat="44.1332013" lon="15.4219248"><ele>130.0</ele><time>2026-05-05T07:28:58.596Z</time></trkpt><trkpt lat="44.1334704" lon="15.4217975"><ele>131.5</ele><time>2026-05-05T07:28:59.596Z</time></trkpt><trkpt lat="44.133741" lon="15.4216774"><ele>133.0</ele><time>2026-05-05T07:29:00.596Z</time></trkpt><trkpt lat="44.1340098" lon="15.4215611"><ele>133.0</ele><time>2026-05-05T07:29:01.595Z</time></trkpt><trkpt lat="44.1342817" lon="15.4214498"><ele>133.0</ele><time>2026-05-05T07:29:02.596Z</time></trkpt><trkpt lat="44.1345556" lon="15.4213474"><ele>132.0</ele><time>2026-05-05T07:29:03.596Z</time></trkpt><trkpt lat="44.1348273" lon="15.4212512"><ele>131.0</ele><time>2026-05-05T07:29:04.595Z</time></trkpt><trkpt lat="44.1351002" lon="15.4211594"><ele>131.0</ele><time>2026-05-05T07:29:05.596Z</time></trkpt><trkpt lat="44.1353739" lon="15.4210766"><ele>131.0</ele><time>2026-05-05T07:29:06.596Z</time></trkpt><trkpt lat="44.1356474" lon="15.4209986"><ele>131.0</ele><time>2026-05-05T07:29:07.596Z</time></trkpt><trkpt lat="44.1359211" lon="15.4209151"><ele>131.0</ele><time>2026-05-05T07:29:08.595Z</time></trkpt><trkpt lat="44.1361975" lon="15.4208357"><ele>131.0</ele><time>2026-05-05T07:29:09.596Z</time></trkpt><trkpt lat="44.1364742" lon="15.4207637"><ele>131.0</ele><time>2026-05-05T07:29:10.595Z</time></trkpt><trkpt lat="44.1367543" lon="15.4206966"><ele>132.0</ele><time>2026-05-05T07:29:11.595Z</time></trkpt><trkpt lat="44.1370332" lon="15.4206396"><ele>133.0</ele><time>2026-05-05T07:29:12.595Z</time></trkpt><trkpt lat="44.1373139" lon="15.4205852"><ele>133.5</ele><time>2026-05-05T07:29:13.595Z</time></trkpt><trkpt lat="44.1375914" lon="15.4205276"><ele>134.0</ele><time>2026-05-05T07:29:14.596Z</time></trkpt><trkpt lat="44.1378734" lon="15.4204826"><ele>134.0</ele><time>2026-05-05T07:29:15.595Z</time></trkpt><trkpt lat="44.1381526" lon="15.4204417"><ele>134.0</ele><time>2026-05-05T07:29:16.596Z</time></trkpt><trkpt lat="44.1384326" lon="15.4204112"><ele>134.5</ele><time>2026-05-05T07:29:17.595Z</time></trkpt><trkpt lat="44.1387135" lon="15.4203766"><ele>135.0</ele><time>2026-05-05T07:29:18.595Z</time></trkpt><trkpt lat="44.1389942" lon="15.4203501"><ele>135.5</ele><time>2026-05-05T07:29:19.595Z</time></trkpt><trkpt lat="44.1392715" lon="15.4203281"><ele>136.0</ele><time>2026-05-05T07:29:20.596Z</time></trkpt><trkpt lat="44.1395509" lon="15.4203043"><ele>136.0</ele><time>2026-05-05T07:29:21.595Z</time></trkpt><trkpt lat="44.1398316" lon="15.4202911"><ele>136.0</ele><time>2026-05-05T07:29:22.595Z</time></trkpt><trkpt lat="44.1401134" lon="15.4202766"><ele>135.0</ele><time>2026-05-05T07:29:23.595Z</time></trkpt><trkpt lat="44.1403876" lon="15.4202722"><ele>134.0</ele><time>2026-05-05T07:29:24.595Z</time></trkpt><trkpt lat="44.140666" lon="15.4202803"><ele>134.5</ele><time>2026-05-05T07:29:25.596Z</time></trkpt><trkpt lat="44.1409436" lon="15.4202925"><ele>135.0</ele><time>2026-05-05T07:29:26.595Z</time></trkpt><trkpt lat="44.141221" lon="15.420306"><ele>135.0</ele><time>2026-05-05T07:29:27.595Z</time></trkpt><trkpt lat="44.1415016" lon="15.4203289"><ele>135.0</ele><time>2026-05-05T07:29:28.595Z</time></trkpt><trkpt lat="44.141778" lon="15.4203564"><ele>135.0</ele><time>2026-05-05T07:29:29.596Z</time></trkpt><trkpt lat="44.1420584" lon="15.4203802"><ele>135.0</ele><time>2026-05-05T07:29:30.596Z</time></trkpt><trkpt lat="44.1423317" lon="15.4204058"><ele>134.5</ele><time>2026-05-05T07:29:31.596Z</time></trkpt><trkpt lat="44.1426112" lon="15.4204314"><ele>134.0</ele><time>2026-05-05T07:29:32.596Z</time></trkpt><trkpt lat="44.1428833" lon="15.4204597"><ele>133.0</ele><time>2026-05-05T07:29:33.595Z</time></trkpt><trkpt lat="44.143158" lon="15.4204986"><ele>132.0</ele><time>2026-05-05T07:29:34.595Z</time></trkpt><trkpt lat="44.1434342" lon="15.4205302"><ele>131.0</ele><time>2026-05-05T07:29:35.596Z</time></trkpt><trkpt lat="44.1437095" lon="15.4205677"><ele>130.0</ele><time>2026-05-05T07:29:36.595Z</time></trkpt><trkpt lat="44.1439789" lon="15.4206095"><ele>128.5</ele><time>2026-05-05T07:29:37.595Z</time></trkpt><trkpt lat="44.1442569" lon="15.4206347"><ele>127.0</ele><time>2026-05-05T07:29:38.596Z</time></trkpt><trkpt lat="44.14453" lon="15.4206476"><ele>127.0</ele><time>2026-05-05T07:29:39.596Z</time></trkpt><trkpt lat="44.1448038" lon="15.4206807"><ele>127.0</ele><time>2026-05-05T07:29:40.596Z</time></trkpt><trkpt lat="44.1450807" lon="15.4207186"><ele>127.0</ele><time>2026-05-05T07:29:41.596Z</time></trkpt><trkpt lat="44.1453598" lon="15.4207466"><ele>127.0</ele><time>2026-05-05T07:29:42.596Z</time></trkpt><trkpt lat="44.1456376" lon="15.420783"><ele>126.0</ele><time>2026-05-05T07:29:43.596Z</time></trkpt><trkpt lat="44.1459194" lon="15.4208094"><ele>125.0</ele><time>2026-05-05T07:29:44.596Z</time></trkpt><trkpt lat="44.146202" lon="15.4208236"><ele>125.0</ele><time>2026-05-05T07:29:45.595Z</time></trkpt><trkpt lat="44.1464868" lon="15.4208409"><ele>125.0</ele><time>2026-05-05T07:29:46.595Z</time></trkpt><trkpt lat="44.1467725" lon="15.4208666"><ele>123.5</ele><time>2026-05-05T07:29:47.595Z</time></trkpt><trkpt lat="44.1470613" lon="15.4208959"><ele>122.0</ele><time>2026-05-05T07:29:48.596Z</time></trkpt><trkpt lat="44.1473532" lon="15.4208985"><ele>121.0</ele><time>2026-05-05T07:29:49.595Z</time></trkpt><trkpt lat="44.1476491" lon="15.4209024"><ele>120.0</ele><time>2026-05-05T07:29:50.596Z</time></trkpt><trkpt lat="44.1479436" lon="15.4209015"><ele>118.5</ele><time>2026-05-05T07:29:51.595Z</time></trkpt><trkpt lat="44.148235" lon="15.4208951"><ele>117.0</ele><time>2026-05-05T07:29:52.596Z</time></trkpt><trkpt lat="44.1485277" lon="15.4209004"><ele>117.0</ele><time>2026-05-05T07:29:53.596Z</time></trkpt><trkpt lat="44.148823" lon="15.4209107"><ele>117.0</ele><time>2026-05-05T07:29:54.595Z</time></trkpt><trkpt lat="44.1491176" lon="15.4209131"><ele>115.5</ele><time>2026-05-05T07:29:55.595Z</time></trkpt><trkpt lat="44.1494128" lon="15.4209048"><ele>114.0</ele><time>2026-05-05T07:29:56.595Z</time></trkpt><trkpt lat="44.1497141" lon="15.4209111"><ele>112.0</ele><time>2026-05-05T07:29:57.596Z</time></trkpt><trkpt lat="44.1500068" lon="15.4209005"><ele>110.0</ele><time>2026-05-05T07:29:58.595Z</time></trkpt><trkpt lat="44.1503001" lon="15.4208958"><ele>110.0</ele><time>2026-05-05T07:29:59.596Z</time></trkpt><trkpt lat="44.1505996" lon="15.4208817"><ele>110.0</ele><time>2026-05-05T07:30:00.596Z</time></trkpt><trkpt lat="44.1508945" lon="15.4208745"><ele>109.0</ele><time>2026-05-05T07:30:01.595Z</time></trkpt><trkpt lat="44.1511931" lon="15.4208546"><ele>108.0</ele><time>2026-05-05T07:30:02.595Z</time></trkpt><trkpt lat="44.1514904" lon="15.4208344"><ele>106.5</ele><time>2026-05-05T07:30:03.596Z</time></trkpt><trkpt lat="44.1517905" lon="15.4208072"><ele>105.0</ele><time>2026-05-05T07:30:04.596Z</time></trkpt><trkpt lat="44.1520905" lon="15.4207791"><ele>104.5</ele><time>2026-05-05T07:30:05.596Z</time></trkpt><trkpt lat="44.1523884" lon="15.4207476"><ele>104.0</ele><time>2026-05-05T07:30:06.596Z</time></trkpt><trkpt lat="44.1526854" lon="15.4207111"><ele>104.0</ele><time>2026-05-05T07:30:07.596Z</time></trkpt><trkpt lat="44.1529863" lon="15.4206708"><ele>104.0</ele><time>2026-05-05T07:30:08.596Z</time></trkpt><trkpt lat="44.1532823" lon="15.4206331"><ele>103.5</ele><time>2026-05-05T07:30:09.595Z</time></trkpt><trkpt lat="44.1535787" lon="15.4205843"><ele>103.0</ele><time>2026-05-05T07:30:10.596Z</time></trkpt><trkpt lat="44.1538758" lon="15.4205359"><ele>102.5</ele><time>2026-05-05T07:30:11.596Z</time></trkpt><trkpt lat="44.1541715" lon="15.4204904"><ele>102.0</ele><time>2026-05-05T07:30:12.596Z</time></trkpt><trkpt lat="44.154476" lon="15.4204355"><ele>102.0</ele><time>2026-05-05T07:30:13.595Z</time></trkpt><trkpt lat="44.1547695" lon="15.4203962"><ele>102.0</ele><time>2026-05-05T07:30:14.596Z</time></trkpt><trkpt lat="44.1550658" lon="15.420339"><ele>101.5</ele><time>2026-05-05T07:30:15.595Z</time></trkpt><trkpt lat="44.1553615" lon="15.4202759"><ele>101.0</ele><time>2026-05-05T07:30:16.595Z</time></trkpt><trkpt lat="44.1556592" lon="15.4202114"><ele>100.5</ele><time>2026-05-05T07:30:17.596Z</time></trkpt><trkpt lat="44.1559546" lon="15.4201481"><ele>100.0</ele><time>2026-05-05T07:30:18.596Z</time></trkpt><trkpt lat="44.1562538" lon="15.4200844"><ele>98.5</ele><time>2026-05-05T07:30:19.596Z</time></trkpt><trkpt lat="44.1565495" lon="15.4200189"><ele>97.0</ele><time>2026-05-05T07:30:20.596Z</time></trkpt><trkpt lat="44.1568437" lon="15.4199411"><ele>97.0</ele><time>2026-05-05T07:30:21.596Z</time></trkpt><trkpt lat="44.1571361" lon="15.419865"><ele>97.0</ele><time>2026-05-05T07:30:22.595Z</time></trkpt><trkpt lat="44.1574281" lon="15.4197919"><ele>98.0</ele><time>2026-05-05T07:30:23.595Z</time></trkpt><trkpt lat="44.1577241" lon="15.4197181"><ele>99.0</ele><time>2026-05-05T07:30:24.596Z</time></trkpt><trkpt lat="44.1580187" lon="15.4196413"><ele>101.5</ele><time>2026-05-05T07:30:25.596Z</time></trkpt><trkpt lat="44.1583117" lon="15.4195747"><ele>104.0</ele><time>2026-05-05T07:30:26.595Z</time></trkpt><trkpt lat="44.158605" lon="15.4195138"><ele>104.0</ele><time>2026-05-05T07:30:27.596Z</time></trkpt><trkpt lat="44.1589017" lon="15.4194591"><ele>104.0</ele><time>2026-05-05T07:30:28.595Z</time></trkpt><trkpt lat="44.159193" lon="15.4194083"><ele>104.5</ele><time>2026-05-05T07:30:29.595Z</time></trkpt><trkpt lat="44.1594864" lon="15.41937"><ele>105.0</ele><time>2026-05-05T07:30:30.595Z</time></trkpt><trkpt lat="44.1597823" lon="15.4193329"><ele>104.0</ele><time>2026-05-05T07:30:31.596Z</time></trkpt><trkpt lat="44.1600781" lon="15.4192996"><ele>103.0</ele><time>2026-05-05T07:30:32.596Z</time></trkpt><trkpt lat="44.1603599" lon="15.419274"><ele>103.0</ele><time>2026-05-05T07:30:33.596Z</time></trkpt><trkpt lat="44.1606312" lon="15.4192587"><ele>103.0</ele><time>2026-05-05T07:30:34.595Z</time></trkpt><trkpt lat="44.1608987" lon="15.4192527"><ele>101.5</ele><time>2026-05-05T07:30:35.595Z</time></trkpt><trkpt lat="44.1611728" lon="15.4192472"><ele>100.0</ele><time>2026-05-05T07:30:36.596Z</time></trkpt><trkpt lat="44.161445" lon="15.4192486"><ele>98.0</ele><time>2026-05-05T07:30:37.596Z</time></trkpt><trkpt lat="44.161719" lon="15.4192481"><ele>96.0</ele><time>2026-05-05T07:30:38.596Z</time></trkpt><trkpt lat="44.1620008" lon="15.4192677"><ele>96.0</ele><time>2026-05-05T07:30:39.596Z</time></trkpt><trkpt lat="44.1622831" lon="15.4192864"><ele>96.0</ele><time>2026-05-05T07:30:40.596Z</time></trkpt><trkpt lat="44.1625691" lon="15.419308"><ele>96.0</ele><time>2026-05-05T07:30:41.596Z</time></trkpt><trkpt lat="44.1628616" lon="15.419335"><ele>96.0</ele><time>2026-05-05T07:30:42.596Z</time></trkpt><trkpt lat="44.1631537" lon="15.4193652"><ele>94.5</ele><time>2026-05-05T07:30:43.596Z</time></trkpt><trkpt lat="44.1634516" lon="15.4194238"><ele>93.0</ele><time>2026-05-05T07:30:44.595Z</time></trkpt><trkpt lat="44.1637493" lon="15.4194756"><ele>93.0</ele><time>2026-05-05T07:30:45.595Z</time></trkpt><trkpt lat="44.1640276" lon="15.4195373"><ele>93.0</ele><time>2026-05-05T07:30:46.595Z</time></trkpt><trkpt lat="44.1643244" lon="15.4196085"><ele>91.5</ele><time>2026-05-05T07:30:47.595Z</time></trkpt><trkpt lat="44.1646227" lon="15.4196907"><ele>90.0</ele><time>2026-05-05T07:30:48.596Z</time></trkpt><trkpt lat="44.1649165" lon="15.4197834"><ele>90.0</ele><time>2026-05-05T07:30:49.595Z</time></trkpt><trkpt lat="44.1652055" lon="15.4198831"><ele>90.0</ele><time>2026-05-05T07:30:50.596Z</time></trkpt><trkpt lat="44.1654937" lon="15.4199822"><ele>90.0</ele><time>2026-05-05T07:30:51.596Z</time></trkpt><trkpt lat="44.1657823" lon="15.4200819"><ele>90.0</ele><time>2026-05-05T07:30:52.595Z</time></trkpt><trkpt lat="44.166064" lon="15.4201962"><ele>90.0</ele><time>2026-05-05T07:30:53.596Z</time></trkpt><trkpt lat="44.1663459" lon="15.4203146"><ele>90.0</ele><time>2026-05-05T07:30:54.596Z</time></trkpt><trkpt lat="44.1666251" lon="15.4204305"><ele>89.0</ele><time>2026-05-05T07:30:55.595Z</time></trkpt><trkpt lat="44.1669013" lon="15.420554"><ele>88.0</ele><time>2026-05-05T07:30:56.595Z</time></trkpt><trkpt lat="44.1671741" lon="15.4206865"><ele>87.5</ele><time>2026-05-05T07:30:57.596Z</time></trkpt><trkpt lat="44.1674435" lon="15.4208228"><ele>87.0</ele><time>2026-05-05T07:30:58.595Z</time></trkpt><trkpt lat="44.1677155" lon="15.4209664"><ele>87.0</ele><time>2026-05-05T07:30:59.595Z</time></trkpt><trkpt lat="44.1679836" lon="15.4211185"><ele>87.0</ele><time>2026-05-05T07:31:00.596Z</time></trkpt><trkpt lat="44.1682445" lon="15.421268"><ele>86.5</ele><time>2026-05-05T07:31:01.595Z</time></trkpt><trkpt lat="44.1685095" lon="15.4214284"><ele>86.0</ele><time>2026-05-05T07:31:02.595Z</time></trkpt><trkpt lat="44.1687685" lon="15.4215979"><ele>86.5</ele><time>2026-05-05T07:31:03.595Z</time></trkpt><trkpt lat="44.1690297" lon="15.4217699"><ele>87.0</ele><time>2026-05-05T07:31:04.596Z</time></trkpt><trkpt lat="44.1692834" lon="15.4219428"><ele>87.0</ele><time>2026-05-05T07:31:05.596Z</time></trkpt><trkpt lat="44.1695356" lon="15.4221214"><ele>87.0</ele><time>2026-05-05T07:31:06.596Z</time></trkpt><trkpt lat="44.1697827" lon="15.4223128"><ele>87.0</ele><time>2026-05-05T07:31:07.595Z</time></trkpt><trkpt lat="44.1700292" lon="15.4225032"><ele>87.0</ele><time>2026-05-05T07:31:08.595Z</time></trkpt><trkpt lat="44.1702738" lon="15.4226972"><ele>87.0</ele><time>2026-05-05T07:31:09.595Z</time></trkpt><trkpt lat="44.1705164" lon="15.4228963"><ele>87.0</ele><time>2026-05-05T07:31:10.596Z</time></trkpt><trkpt lat="44.1707562" lon="15.4230973"><ele>88.0</ele><time>2026-05-05T07:31:11.596Z</time></trkpt><trkpt lat="44.1709905" lon="15.4233018"><ele>89.0</ele><time>2026-05-05T07:31:12.596Z</time></trkpt><trkpt lat="44.1712264" lon="15.4235075"><ele>89.0</ele><time>2026-05-05T07:31:13.596Z</time></trkpt><trkpt lat="44.1714623" lon="15.4237207"><ele>89.0</ele><time>2026-05-05T07:31:14.596Z</time></trkpt><trkpt lat="44.1716971" lon="15.423929"><ele>92.0</ele><time>2026-05-05T07:31:15.596Z</time></trkpt><trkpt lat="44.1719303" lon="15.4241318"><ele>95.0</ele><time>2026-05-05T07:31:16.596Z</time></trkpt><trkpt lat="44.1721647" lon="15.4243479"><ele>95.0</ele><time>2026-05-05T07:31:17.596Z</time></trkpt><trkpt lat="44.1723954" lon="15.424559"><ele>95.0</ele><time>2026-05-05T07:31:18.595Z</time></trkpt><trkpt lat="44.1726287" lon="15.424767"><ele>95.0</ele><time>2026-05-05T07:31:19.595Z</time></trkpt><trkpt lat="44.1728602" lon="15.4249767"><ele>95.0</ele><time>2026-05-05T07:31:20.596Z</time></trkpt><trkpt lat="44.1731005" lon="15.4251827"><ele>93.5</ele><time>2026-05-05T07:31:21.596Z</time></trkpt><trkpt lat="44.1733327" lon="15.4253939"><ele>92.0</ele><time>2026-05-05T07:31:22.595Z</time></trkpt><trkpt lat="44.1735656" lon="15.4256017"><ele>92.0</ele><time>2026-05-05T07:31:23.596Z</time></trkpt><trkpt lat="44.1738008" lon="15.4258073"><ele>92.0</ele><time>2026-05-05T07:31:24.596Z</time></trkpt><trkpt lat="44.1740355" lon="15.4260083"><ele>90.0</ele><time>2026-05-05T07:31:25.596Z</time></trkpt><trkpt lat="44.1742703" lon="15.4262069"><ele>88.0</ele><time>2026-05-05T07:31:26.596Z</time></trkpt><trkpt lat="44.1745157" lon="15.4264017"><ele>88.0</ele><time>2026-05-05T07:31:27.596Z</time></trkpt><trkpt lat="44.1747517" lon="15.4266007"><ele>88.0</ele><time>2026-05-05T07:31:28.596Z</time></trkpt><trkpt lat="44.1749945" lon="15.4267848"><ele>89.0</ele><time>2026-05-05T07:31:29.596Z</time></trkpt><trkpt lat="44.1752332" lon="15.4269707"><ele>90.0</ele><time>2026-05-05T07:31:30.595Z</time></trkpt><trkpt lat="44.1754781" lon="15.4271558"><ele>87.5</ele><time>2026-05-05T07:31:31.596Z</time></trkpt><trkpt lat="44.1757243" lon="15.4273301"><ele>85.0</ele><time>2026-05-05T07:31:32.596Z</time></trkpt><trkpt lat="44.1759703" lon="15.4275026"><ele>85.0</ele><time>2026-05-05T07:31:33.596Z</time></trkpt><trkpt lat="44.1762133" lon="15.4276839"><ele>85.0</ele><time>2026-05-05T07:31:34.595Z</time></trkpt><trkpt lat="44.1764631" lon="15.4278471"><ele>84.0</ele><time>2026-05-05T07:31:35.596Z</time></trkpt><trkpt lat="44.1767147" lon="15.4280056"><ele>83.0</ele><time>2026-05-05T07:31:36.595Z</time></trkpt><trkpt lat="44.1769646" lon="15.4281699"><ele>83.0</ele><time>2026-05-05T07:31:37.595Z</time></trkpt><trkpt lat="44.1772129" lon="15.4283291"><ele>83.0</ele><time>2026-05-05T07:31:38.596Z</time></trkpt><trkpt lat="44.1774598" lon="15.4284881"><ele>82.5</ele><time>2026-05-05T07:31:39.595Z</time></trkpt><trkpt lat="44.1777025" lon="15.428641"><ele>82.0</ele><time>2026-05-05T07:31:40.596Z</time></trkpt><trkpt lat="44.17795" lon="15.4287887"><ele>83.0</ele><time>2026-05-05T07:31:41.596Z</time></trkpt><trkpt lat="44.1782015" lon="15.4289335"><ele>84.0</ele><time>2026-05-05T07:31:42.596Z</time></trkpt><trkpt lat="44.1784564" lon="15.4290743"><ele>84.0</ele><time>2026-05-05T07:31:43.596Z</time></trkpt><trkpt lat="44.1787093" lon="15.4292198"><ele>84.0</ele><time>2026-05-05T07:31:44.596Z</time></trkpt><trkpt lat="44.1789665" lon="15.4293569"><ele>85.0</ele><time>2026-05-05T07:31:45.595Z</time></trkpt><trkpt lat="44.1792222" lon="15.429491"><ele>86.0</ele><time>2026-05-05T07:31:46.596Z</time></trkpt><trkpt lat="44.1794748" lon="15.4296158"><ele>87.0</ele><time>2026-05-05T07:31:47.596Z</time></trkpt><trkpt lat="44.1797269" lon="15.4297427"><ele>88.0</ele><time>2026-05-05T07:31:48.595Z</time></trkpt><trkpt lat="44.1799781" lon="15.429872"><ele>88.0</ele><time>2026-05-05T07:31:49.596Z</time></trkpt><trkpt lat="44.1802273" lon="15.4299917"><ele>88.0</ele><time>2026-05-05T07:31:50.595Z</time></trkpt><trkpt lat="44.1804757" lon="15.430115"><ele>88.5</ele><time>2026-05-05T07:31:51.595Z</time></trkpt><trkpt lat="44.180724" lon="15.4302239"><ele>89.0</ele><time>2026-05-05T07:31:52.596Z</time></trkpt><trkpt lat="44.1809808" lon="15.4303307"><ele>89.0</ele><time>2026-05-05T07:31:53.595Z</time></trkpt><trkpt lat="44.1812357" lon="15.4304355"><ele>89.0</ele><time>2026-05-05T07:31:54.595Z</time></trkpt><trkpt lat="44.1814905" lon="15.4305434"><ele>88.0</ele><time>2026-05-05T07:31:55.595Z</time></trkpt><trkpt lat="44.1817416" lon="15.4306462"><ele>87.0</ele><time>2026-05-05T07:31:56.596Z</time></trkpt><trkpt lat="44.181991" lon="15.4307573"><ele>87.0</ele><time>2026-05-05T07:31:57.596Z</time></trkpt><trkpt lat="44.1822434" lon="15.4308588"><ele>87.0</ele><time>2026-05-05T07:31:58.596Z</time></trkpt><trkpt lat="44.1824963" lon="15.4309622"><ele>86.5</ele><time>2026-05-05T07:31:59.596Z</time></trkpt><trkpt lat="44.1827516" lon="15.4310729"><ele>86.0</ele><time>2026-05-05T07:32:00.596Z</time></trkpt><trkpt lat="44.1830113" lon="15.4311811"><ele>86.5</ele><time>2026-05-05T07:32:01.596Z</time></trkpt><trkpt lat="44.1832695" lon="15.4312825"><ele>87.0</ele><time>2026-05-05T07:32:02.596Z</time></trkpt><trkpt lat="44.1835253" lon="15.4313864"><ele>87.5</ele><time>2026-05-05T07:32:03.595Z</time></trkpt><trkpt lat="44.1837795" lon="15.431487"><ele>88.0</ele><time>2026-05-05T07:32:04.595Z</time></trkpt><trkpt lat="44.1840333" lon="15.4315896"><ele>89.0</ele><time>2026-05-05T07:32:05.595Z</time></trkpt><trkpt lat="44.1842908" lon="15.431696"><ele>90.0</ele><time>2026-05-05T07:32:06.595Z</time></trkpt><trkpt lat="44.1845453" lon="15.4318042"><ele>90.0</ele><time>2026-05-05T07:32:07.595Z</time></trkpt><trkpt lat="44.1847991" lon="15.4319076"><ele>90.0</ele><time>2026-05-05T07:32:08.596Z</time></trkpt><trkpt lat="44.1850506" lon="15.43202"><ele>91.0</ele><time>2026-05-05T07:32:09.595Z</time></trkpt><trkpt lat="44.1852989" lon="15.4321495"><ele>92.0</ele><time>2026-05-05T07:32:10.595Z</time></trkpt><trkpt lat="44.1855532" lon="15.4322737"><ele>92.0</ele><time>2026-05-05T07:32:11.596Z</time></trkpt><trkpt lat="44.185802" lon="15.4323993"><ele>92.0</ele><time>2026-05-05T07:32:12.595Z</time></trkpt><trkpt lat="44.1860516" lon="15.432517"><ele>92.0</ele><time>2026-05-05T07:32:13.596Z</time></trkpt><trkpt lat="44.1862965" lon="15.432645"><ele>92.0</ele><time>2026-05-05T07:32:14.596Z</time></trkpt><trkpt lat="44.1865415" lon="15.4327782"><ele>92.0</ele><time>2026-05-05T07:32:15.595Z</time></trkpt><trkpt lat="44.1867884" lon="15.4329167"><ele>92.0</ele><time>2026-05-05T07:32:16.596Z</time></trkpt><trkpt lat="44.1870327" lon="15.433057"><ele>92.5</ele><time>2026-05-05T07:32:17.596Z</time></trkpt><trkpt lat="44.1872782" lon="15.433194"><ele>93.0</ele><time>2026-05-05T07:32:18.595Z</time></trkpt><trkpt lat="44.1875237" lon="15.4333374"><ele>94.5</ele><time>2026-05-05T07:32:19.595Z</time></trkpt><trkpt lat="44.1877765" lon="15.433484"><ele>96.0</ele><time>2026-05-05T07:32:20.595Z</time></trkpt><trkpt lat="44.1880189" lon="15.4336347"><ele>97.0</ele><time>2026-05-05T07:32:21.595Z</time></trkpt><trkpt lat="44.188262" lon="15.4337891"><ele>98.0</ele><time>2026-05-05T07:32:22.596Z</time></trkpt><trkpt lat="44.1885011" lon="15.433945"><ele>98.5</ele><time>2026-05-05T07:32:23.595Z</time></trkpt><trkpt lat="44.1887414" lon="15.4341081"><ele>99.0</ele><time>2026-05-05T07:32:24.596Z</time></trkpt><trkpt lat="44.1889843" lon="15.4342676"><ele>100.0</ele><time>2026-05-05T07:32:25.595Z</time></trkpt><trkpt lat="44.1892175" lon="15.4344316"><ele>101.0</ele><time>2026-05-05T07:32:26.596Z</time></trkpt><trkpt lat="44.1894496" lon="15.4346001"><ele>102.0</ele><time>2026-05-05T07:32:27.596Z</time></trkpt><trkpt lat="44.1896796" lon="15.4347681"><ele>103.0</ele><time>2026-05-05T07:32:28.595Z</time></trkpt><trkpt lat="44.189912" lon="15.4349365"><ele>103.5</ele><time>2026-05-05T07:32:29.596Z</time></trkpt><trkpt lat="44.1901427" lon="15.435112"><ele>104.0</ele><time>2026-05-05T07:32:30.596Z</time></trkpt><trkpt lat="44.1903703" lon="15.4352975"><ele>106.0</ele><time>2026-05-05T07:32:31.595Z</time></trkpt><trkpt lat="44.1906022" lon="15.4354783"><ele>108.0</ele><time>2026-05-05T07:32:32.595Z</time></trkpt><trkpt lat="44.1908332" lon="15.435657"><ele>108.0</ele><time>2026-05-05T07:32:33.595Z</time></trkpt><trkpt lat="44.191059" lon="15.435846"><ele>108.0</ele><time>2026-05-05T07:32:34.596Z</time></trkpt><trkpt lat="44.1912905" lon="15.4360331"><ele>109.0</ele><time>2026-05-05T07:32:35.595Z</time></trkpt><trkpt lat="44.1915209" lon="15.4362229"><ele>110.0</ele><time>2026-05-05T07:32:36.595Z</time></trkpt><trkpt lat="44.1917491" lon="15.4364165"><ele>112.0</ele><time>2026-05-05T07:32:37.595Z</time></trkpt><trkpt lat="44.191981" lon="15.4366057"><ele>114.0</ele><time>2026-05-05T07:32:38.595Z</time></trkpt><trkpt lat="44.1922161" lon="15.4368033"><ele>113.0</ele><time>2026-05-05T07:32:39.595Z</time></trkpt><trkpt lat="44.1924578" lon="15.4370039"><ele>112.0</ele><time>2026-05-05T07:32:40.596Z</time></trkpt><trkpt lat="44.1927027" lon="15.4372099"><ele>112.0</ele><time>2026-05-05T07:32:41.595Z</time></trkpt><trkpt lat="44.1929452" lon="15.4374157"><ele>112.0</ele><time>2026-05-05T07:32:42.595Z</time></trkpt><trkpt lat="44.1931859" lon="15.4376269"><ele>112.0</ele><time>2026-05-05T07:32:43.596Z</time></trkpt><trkpt lat="44.1934247" lon="15.4378448"><ele>112.0</ele><time>2026-05-05T07:32:44.595Z</time></trkpt><trkpt lat="44.1936609" lon="15.4380671"><ele>112.0</ele><time>2026-05-05T07:32:45.596Z</time></trkpt><trkpt lat="44.1938951" lon="15.4382855"><ele>112.0</ele><time>2026-05-05T07:32:46.596Z</time></trkpt><trkpt lat="44.194131" lon="15.4385041"><ele>110.0</ele><time>2026-05-05T07:32:47.596Z</time></trkpt><trkpt lat="44.1943638" lon="15.4387204"><ele>108.0</ele><time>2026-05-05T07:32:48.596Z</time></trkpt><trkpt lat="44.1945975" lon="15.4389302"><ele>105.0</ele><time>2026-05-05T07:32:49.595Z</time></trkpt><trkpt lat="44.1948382" lon="15.439128"><ele>102.0</ele><time>2026-05-05T07:32:50.595Z</time></trkpt><trkpt lat="44.1950768" lon="15.4393336"><ele>102.0</ele><time>2026-05-05T07:32:51.595Z</time></trkpt><trkpt lat="44.1953218" lon="15.4395268"><ele>102.0</ele><time>2026-05-05T07:32:52.595Z</time></trkpt><trkpt lat="44.1955719" lon="15.4397163"><ele>101.5</ele><time>2026-05-05T07:32:53.596Z</time></trkpt><trkpt lat="44.1958179" lon="15.4399186"><ele>101.0</ele><time>2026-05-05T07:32:54.595Z</time></trkpt><trkpt lat="44.1960589" lon="15.4401177"><ele>101.0</ele><time>2026-05-05T07:32:55.595Z</time></trkpt><trkpt lat="44.1963069" lon="15.4403041"><ele>101.0</ele><time>2026-05-05T07:32:56.596Z</time></trkpt><trkpt lat="44.1965559" lon="15.4404926"><ele>100.5</ele><time>2026-05-05T07:32:57.595Z</time></trkpt><trkpt lat="44.1968086" lon="15.4406775"><ele>100.0</ele><time>2026-05-05T07:32:58.596Z</time></trkpt><trkpt lat="44.1970697" lon="15.4408436"><ele>100.0</ele><time>2026-05-05T07:32:59.595Z</time></trkpt><trkpt lat="44.1973275" lon="15.4410055"><ele>100.0</ele><time>2026-05-05T07:33:00.595Z</time></trkpt><trkpt lat="44.1975854" lon="15.4411782"><ele>98.0</ele><time>2026-05-05T07:33:01.595Z</time></trkpt><trkpt lat="44.1978467" lon="15.4413442"><ele>96.0</ele><time>2026-05-05T07:33:02.596Z</time></trkpt><trkpt lat="44.1981094" lon="15.4415035"><ele>95.5</ele><time>2026-05-05T07:33:03.596Z</time></trkpt><trkpt lat="44.198372" lon="15.441663"><ele>95.0</ele><time>2026-05-05T07:33:04.595Z</time></trkpt><trkpt lat="44.1986387" lon="15.4418216"><ele>95.0</ele><time>2026-05-05T07:33:05.595Z</time></trkpt><trkpt lat="44.1989017" lon="15.4419738"><ele>95.0</ele><time>2026-05-05T07:33:06.595Z</time></trkpt><trkpt lat="44.1991683" lon="15.4421227"><ele>95.0</ele><time>2026-05-05T07:33:07.596Z</time></trkpt><trkpt lat="44.1994308" lon="15.442264"><ele>95.0</ele><time>2026-05-05T07:33:08.595Z</time></trkpt><trkpt lat="44.1996995" lon="15.4423976"><ele>93.5</ele><time>2026-05-05T07:33:09.595Z</time></trkpt><trkpt lat="44.199965" lon="15.4425388"><ele>92.0</ele><time>2026-05-05T07:33:10.596Z</time></trkpt><trkpt lat="44.2002305" lon="15.4426848"><ele>92.0</ele><time>2026-05-05T07:33:11.596Z</time></trkpt><trkpt lat="44.2004976" lon="15.4428275"><ele>92.0</ele><time>2026-05-05T07:33:12.595Z</time></trkpt><trkpt lat="44.2007636" lon="15.4429536"><ele>90.5</ele><time>2026-05-05T07:33:13.595Z</time></trkpt><trkpt lat="44.2010298" lon="15.443078"><ele>89.0</ele><time>2026-05-05T07:33:14.596Z</time></trkpt><trkpt lat="44.2012931" lon="15.4432073"><ele>88.5</ele><time>2026-05-05T07:33:15.595Z</time></trkpt><trkpt lat="44.201556" lon="15.4433244"><ele>88.0</ele><time>2026-05-05T07:33:16.595Z</time></trkpt><trkpt lat="44.20182" lon="15.4434364"><ele>88.0</ele><time>2026-05-05T07:33:17.596Z</time></trkpt><trkpt lat="44.2020938" lon="15.4435517"><ele>88.0</ele><time>2026-05-05T07:33:18.596Z</time></trkpt><trkpt lat="44.2023565" lon="15.4436626"><ele>87.0</ele><time>2026-05-05T07:33:19.596Z</time></trkpt><trkpt lat="44.2026193" lon="15.4437674"><ele>86.0</ele><time>2026-05-05T07:33:20.596Z</time></trkpt><trkpt lat="44.2028863" lon="15.4438748"><ele>85.5</ele><time>2026-05-05T07:33:21.596Z</time></trkpt><trkpt lat="44.2031493" lon="15.4439817"><ele>85.0</ele><time>2026-05-05T07:33:22.595Z</time></trkpt><trkpt lat="44.203414" lon="15.4440716"><ele>85.0</ele><time>2026-05-05T07:33:23.596Z</time></trkpt><trkpt lat="44.2036836" lon="15.4441648"><ele>85.0</ele><time>2026-05-05T07:33:24.595Z</time></trkpt><trkpt lat="44.2039482" lon="15.4442491"><ele>85.0</ele><time>2026-05-05T07:33:25.595Z</time></trkpt><trkpt lat="44.2042136" lon="15.444338"><ele>85.0</ele><time>2026-05-05T07:33:26.596Z</time></trkpt><trkpt lat="44.2044818" lon="15.4444247"><ele>85.0</ele><time>2026-05-05T07:33:27.596Z</time></trkpt><trkpt lat="44.2047508" lon="15.4445086"><ele>85.0</ele><time>2026-05-05T07:33:28.596Z</time></trkpt><trkpt lat="44.2050233" lon="15.4445877"><ele>85.5</ele><time>2026-05-05T07:33:29.596Z</time></trkpt><trkpt lat="44.2053108" lon="15.4446615"><ele>86.0</ele><time>2026-05-05T07:33:30.595Z</time></trkpt><trkpt lat="44.2055866" lon="15.4447384"><ele>84.0</ele><time>2026-05-05T07:33:31.595Z</time></trkpt><trkpt lat="44.2058639" lon="15.4448115"><ele>82.0</ele><time>2026-05-05T07:33:32.595Z</time></trkpt><trkpt lat="44.2061432" lon="15.4448881"><ele>82.0</ele><time>2026-05-05T07:33:33.596Z</time></trkpt><trkpt lat="44.2064171" lon="15.4449623"><ele>82.0</ele><time>2026-05-05T07:33:34.596Z</time></trkpt><trkpt lat="44.2066942" lon="15.4450372"><ele>80.5</ele><time>2026-05-05T07:33:35.596Z</time></trkpt><trkpt lat="44.2069698" lon="15.4451119"><ele>79.0</ele><time>2026-05-05T07:33:36.596Z</time></trkpt><trkpt lat="44.2072546" lon="15.4451854"><ele>76.5</ele><time>2026-05-05T07:33:37.596Z</time></trkpt><trkpt lat="44.2075342" lon="15.4452661"><ele>74.0</ele><time>2026-05-05T07:33:38.596Z</time></trkpt><trkpt lat="44.2078135" lon="15.445348"><ele>74.0</ele><time>2026-05-05T07:33:39.595Z</time></trkpt><trkpt lat="44.2080896" lon="15.4454468"><ele>74.0</ele><time>2026-05-05T07:33:40.595Z</time></trkpt><trkpt lat="44.2083615" lon="15.4455524"><ele>70.0</ele><time>2026-05-05T07:33:41.595Z</time></trkpt><trkpt lat="44.208632" lon="15.4456496"><ele>66.0</ele><time>2026-05-05T07:33:42.595Z</time></trkpt><trkpt lat="44.2089017" lon="15.4457498"><ele>63.0</ele><time>2026-05-05T07:33:43.596Z</time></trkpt><trkpt lat="44.2091713" lon="15.4458894"><ele>60.0</ele><time>2026-05-05T07:33:44.596Z</time></trkpt><trkpt lat="44.2094359" lon="15.4460213"><ele>60.0</ele><time>2026-05-05T07:33:45.596Z</time></trkpt><trkpt lat="44.2097008" lon="15.4461628"><ele>60.0</ele><time>2026-05-05T07:33:46.595Z</time></trkpt><trkpt lat="44.2099669" lon="15.4463087"><ele>57.5</ele><time>2026-05-05T07:33:47.595Z</time></trkpt><trkpt lat="44.2102319" lon="15.4464628"><ele>55.0</ele><time>2026-05-05T07:33:48.596Z</time></trkpt><trkpt lat="44.2104987" lon="15.446626"><ele>53.5</ele><time>2026-05-05T07:33:49.595Z</time></trkpt><trkpt lat="44.2107601" lon="15.4467885"><ele>52.0</ele><time>2026-05-05T07:33:50.596Z</time></trkpt><trkpt lat="44.2110166" lon="15.4469445"><ele>52.0</ele><time>2026-05-05T07:33:51.596Z</time></trkpt><trkpt lat="44.2112692" lon="15.4471181"><ele>52.0</ele><time>2026-05-05T07:33:52.595Z</time></trkpt><trkpt lat="44.2115147" lon="15.4472946"><ele>49.0</ele><time>2026-05-05T07:33:53.595Z</time></trkpt><trkpt lat="44.211763" lon="15.4474886"><ele>46.0</ele><time>2026-05-05T07:33:54.596Z</time></trkpt><trkpt lat="44.2120084" lon="15.4476854"><ele>46.0</ele><time>2026-05-05T07:33:55.596Z</time></trkpt><trkpt lat="44.2122467" lon="15.4478847"><ele>46.0</ele><time>2026-05-05T07:33:56.595Z</time></trkpt><trkpt lat="44.2124861" lon="15.4480894"><ele>43.5</ele><time>2026-05-05T07:33:57.596Z</time></trkpt><trkpt lat="44.2127313" lon="15.4482953"><ele>41.0</ele><time>2026-05-05T07:33:58.596Z</time></trkpt><trkpt lat="44.2129642" lon="15.4485134"><ele>39.0</ele><time>2026-05-05T07:33:59.596Z</time></trkpt><trkpt lat="44.2131903" lon="15.4487416"><ele>37.0</ele><time>2026-05-05T07:34:00.596Z</time></trkpt><trkpt lat="44.2134144" lon="15.4489668"><ele>36.0</ele><time>2026-05-05T07:34:01.596Z</time></trkpt><trkpt lat="44.2136371" lon="15.4491982"><ele>35.0</ele><time>2026-05-05T07:34:02.595Z</time></trkpt><trkpt lat="44.2138554" lon="15.4494358"><ele>30.0</ele><time>2026-05-05T07:34:03.595Z</time></trkpt><trkpt lat="44.2140695" lon="15.4496755"><ele>25.0</ele><time>2026-05-05T07:34:04.596Z</time></trkpt><trkpt lat="44.214281" lon="15.4499186"><ele>25.0</ele><time>2026-05-05T07:34:05.595Z</time></trkpt><trkpt lat="44.2144835" lon="15.4501625"><ele>25.0</ele><time>2026-05-05T07:34:06.596Z</time></trkpt><trkpt lat="44.2146815" lon="15.4504159"><ele>28.0</ele><time>2026-05-05T07:34:07.596Z</time></trkpt><trkpt lat="44.2148842" lon="15.4506693"><ele>31.0</ele><time>2026-05-05T07:34:08.595Z</time></trkpt><trkpt lat="44.2150788" lon="15.4509326"><ele>31.0</ele><time>2026-05-05T07:34:09.596Z</time></trkpt><trkpt lat="44.2152642" lon="15.4511939"><ele>31.0</ele><time>2026-05-05T07:34:10.596Z</time></trkpt><trkpt lat="44.2154474" lon="15.451465"><ele>30.5</ele><time>2026-05-05T07:34:11.596Z</time></trkpt><trkpt lat="44.2156351" lon="15.451744"><ele>30.0</ele><time>2026-05-05T07:34:12.596Z</time></trkpt><trkpt lat="44.2158154" lon="15.4520178"><ele>30.5</ele><time>2026-05-05T07:34:13.596Z</time></trkpt><trkpt lat="44.2159941" lon="15.4523037"><ele>31.0</ele><time>2026-05-05T07:34:14.595Z</time></trkpt><trkpt lat="44.216174" lon="15.4525841"><ele>31.0</ele><time>2026-05-05T07:34:15.595Z</time></trkpt><trkpt lat="44.2163685" lon="15.4528631"><ele>31.0</ele><time>2026-05-05T07:34:16.596Z</time></trkpt><trkpt lat="44.2165419" lon="15.453155"><ele>29.0</ele><time>2026-05-05T07:34:17.596Z</time></trkpt><trkpt lat="44.2166979" lon="15.4534511"><ele>27.0</ele><time>2026-05-05T07:34:18.596Z</time></trkpt><trkpt lat="44.2168552" lon="15.4537494"><ele>26.0</ele><time>2026-05-05T07:34:19.595Z</time></trkpt><trkpt lat="44.2170156" lon="15.4540434"><ele>25.0</ele><time>2026-05-05T07:34:20.595Z</time></trkpt><trkpt lat="44.2171685" lon="15.4543422"><ele>23.5</ele><time>2026-05-05T07:34:21.596Z</time></trkpt><trkpt lat="44.2173131" lon="15.4546451"><ele>22.0</ele><time>2026-05-05T07:34:22.595Z</time></trkpt><trkpt lat="44.2174484" lon="15.4549533"><ele>25.0</ele><time>2026-05-05T07:34:23.595Z</time></trkpt><trkpt lat="44.2175876" lon="15.4552672"><ele>28.0</ele><time>2026-05-05T07:34:24.596Z</time></trkpt><trkpt lat="44.2177223" lon="15.4555798"><ele>28.0</ele><time>2026-05-05T07:34:25.596Z</time></trkpt><trkpt lat="44.2178558" lon="15.4558971"><ele>28.0</ele><time>2026-05-05T07:34:26.596Z</time></trkpt><trkpt lat="44.2179851" lon="15.4562155"><ele>25.5</ele><time>2026-05-05T07:34:27.596Z</time></trkpt><trkpt lat="44.2181138" lon="15.4565327"><ele>23.0</ele><time>2026-05-05T07:34:28.595Z</time></trkpt><trkpt lat="44.2182306" lon="15.4568582"><ele>28.0</ele><time>2026-05-05T07:34:29.595Z</time></trkpt><trkpt lat="44.2183472" lon="15.4571805"><ele>33.0</ele><time>2026-05-05T07:34:30.595Z</time></trkpt><trkpt lat="44.2184568" lon="15.4575099"><ele>33.0</ele><time>2026-05-05T07:34:31.596Z</time></trkpt><trkpt lat="44.218558" lon="15.4578407"><ele>33.0</ele><time>2026-05-05T07:34:32.596Z</time></trkpt><trkpt lat="44.2186573" lon="15.4581695"><ele>31.5</ele><time>2026-05-05T07:34:33.595Z</time></trkpt><trkpt lat="44.2187493" lon="15.4585038"><ele>30.0</ele><time>2026-05-05T07:34:34.596Z</time></trkpt><trkpt lat="44.2188408" lon="15.4588372"><ele>28.0</ele><time>2026-05-05T07:34:35.595Z</time></trkpt><trkpt lat="44.2189255" lon="15.4591692"><ele>26.0</ele><time>2026-05-05T07:34:36.595Z</time></trkpt><trkpt lat="44.2190085" lon="15.4595032"><ele>32.0</ele><time>2026-05-05T07:34:37.595Z</time></trkpt><trkpt lat="44.2190732" lon="15.4598432"><ele>38.0</ele><time>2026-05-05T07:34:38.596Z</time></trkpt><trkpt lat="44.2191419" lon="15.4601848"><ele>39.0</ele><time>2026-05-05T07:34:39.595Z</time></trkpt><trkpt lat="44.2192127" lon="15.4605188"><ele>40.0</ele><time>2026-05-05T07:34:40.596Z</time></trkpt><trkpt lat="44.2192726" lon="15.4608591"><ele>40.0</ele><time>2026-05-05T07:34:41.595Z</time></trkpt><trkpt lat="44.2193345" lon="15.4612016"><ele>40.0</ele><time>2026-05-05T07:34:42.596Z</time></trkpt><trkpt lat="44.2193958" lon="15.4615471"><ele>41.5</ele><time>2026-05-05T07:34:43.596Z</time></trkpt><trkpt lat="44.2194541" lon="15.4618965"><ele>43.0</ele><time>2026-05-05T07:34:44.596Z</time></trkpt><trkpt lat="44.2195064" lon="15.462243"><ele>43.5</ele><time>2026-05-05T07:34:45.595Z</time></trkpt><trkpt lat="44.2195546" lon="15.4625859"><ele>44.0</ele><time>2026-05-05T07:34:46.595Z</time></trkpt><trkpt lat="44.2195965" lon="15.4629344"><ele>44.0</ele><time>2026-05-05T07:34:47.596Z</time></trkpt><trkpt lat="44.2196429" lon="15.4632823"><ele>44.0</ele><time>2026-05-05T07:34:48.596Z</time></trkpt><trkpt lat="44.2196853" lon="15.4636319"><ele>44.5</ele><time>2026-05-05T07:34:49.596Z</time></trkpt><trkpt lat="44.2197172" lon="15.4639809"><ele>45.0</ele><time>2026-05-05T07:34:50.596Z</time></trkpt><trkpt lat="44.2197473" lon="15.4643284"><ele>46.5</ele><time>2026-05-05T07:34:51.596Z</time></trkpt><trkpt lat="44.21977" lon="15.4646735"><ele>48.0</ele><time>2026-05-05T07:34:52.596Z</time></trkpt><trkpt lat="44.2197916" lon="15.465022"><ele>48.0</ele><time>2026-05-05T07:34:53.595Z</time></trkpt><trkpt lat="44.2198115" lon="15.465373"><ele>48.0</ele><time>2026-05-05T07:34:54.596Z</time></trkpt><trkpt lat="44.2198218" lon="15.4657176"><ele>54.0</ele><time>2026-05-05T07:34:55.595Z</time></trkpt><trkpt lat="44.2198297" lon="15.4660643"><ele>60.0</ele><time>2026-05-05T07:34:56.595Z</time></trkpt><trkpt lat="44.2198325" lon="15.4664164"><ele>62.5</ele><time>2026-05-05T07:34:57.596Z</time></trkpt><trkpt lat="44.2198319" lon="15.4667634"><ele>65.0</ele><time>2026-05-05T07:34:58.595Z</time></trkpt><trkpt lat="44.2198261" lon="15.4671206"><ele>60.0</ele><time>2026-05-05T07:34:59.595Z</time></trkpt><trkpt lat="44.219814" lon="15.4674744"><ele>55.0</ele><time>2026-05-05T07:35:00.596Z</time></trkpt><trkpt lat="44.2197985" lon="15.4678304"><ele>55.5</ele><time>2026-05-05T07:35:01.595Z</time></trkpt><trkpt lat="44.2197801" lon="15.4681865"><ele>56.0</ele><time>2026-05-05T07:35:02.595Z</time></trkpt><trkpt lat="44.2197529" lon="15.4685446"><ele>58.0</ele><time>2026-05-05T07:35:03.596Z</time></trkpt><trkpt lat="44.21972" lon="15.4689035"><ele>60.0</ele><time>2026-05-05T07:35:04.596Z</time></trkpt><trkpt lat="44.2196883" lon="15.4692648"><ele>61.0</ele><time>2026-05-05T07:35:05.596Z</time></trkpt><trkpt lat="44.2196531" lon="15.4696302"><ele>62.0</ele><time>2026-05-05T07:35:06.595Z</time></trkpt><trkpt lat="44.2196186" lon="15.4699962"><ele>62.0</ele><time>2026-05-05T07:35:07.596Z</time></trkpt><trkpt lat="44.2195728" lon="15.4703646"><ele>62.0</ele><time>2026-05-05T07:35:08.595Z</time></trkpt><trkpt lat="44.2195267" lon="15.4707361"><ele>62.5</ele><time>2026-05-05T07:35:09.596Z</time></trkpt><trkpt lat="44.2194718" lon="15.471102"><ele>63.0</ele><time>2026-05-05T07:35:10.595Z</time></trkpt><trkpt lat="44.219413" lon="15.4714726"><ele>63.0</ele><time>2026-05-05T07:35:11.596Z</time></trkpt><trkpt lat="44.2193455" lon="15.4718352"><ele>63.0</ele><time>2026-05-05T07:35:12.596Z</time></trkpt><trkpt lat="44.2192746" lon="15.4721898"><ele>62.5</ele><time>2026-05-05T07:35:13.596Z</time></trkpt><trkpt lat="44.219197" lon="15.4725545"><ele>62.0</ele><time>2026-05-05T07:35:14.596Z</time></trkpt><trkpt lat="44.2191182" lon="15.472913"><ele>61.5</ele><time>2026-05-05T07:35:15.596Z</time></trkpt><trkpt lat="44.2190378" lon="15.4732741"><ele>61.0</ele><time>2026-05-05T07:35:16.596Z</time></trkpt><trkpt lat="44.2189493" lon="15.4736303"><ele>57.0</ele><time>2026-05-05T07:35:17.595Z</time></trkpt><trkpt lat="44.2188651" lon="15.4739896"><ele>53.0</ele><time>2026-05-05T07:35:18.596Z</time></trkpt><trkpt lat="44.2187708" lon="15.4743459"><ele>55.5</ele><time>2026-05-05T07:35:19.596Z</time></trkpt><trkpt lat="44.2186746" lon="15.4746968"><ele>58.0</ele><time>2026-05-05T07:35:20.595Z</time></trkpt><trkpt lat="44.2185734" lon="15.4750527"><ele>58.0</ele><time>2026-05-05T07:35:21.596Z</time></trkpt><trkpt lat="44.2184757" lon="15.4753977"><ele>58.0</ele><time>2026-05-05T07:35:22.595Z</time></trkpt><trkpt lat="44.2183747" lon="15.4757441"><ele>60.5</ele><time>2026-05-05T07:35:23.596Z</time></trkpt><trkpt lat="44.2182736" lon="15.4760939"><ele>63.0</ele><time>2026-05-05T07:35:24.596Z</time></trkpt><trkpt lat="44.2181756" lon="15.4764402"><ele>60.5</ele><time>2026-05-05T07:35:25.595Z</time></trkpt><trkpt lat="44.2180765" lon="15.4767908"><ele>58.0</ele><time>2026-05-05T07:35:26.596Z</time></trkpt><trkpt lat="44.217982" lon="15.4771359"><ele>58.0</ele><time>2026-05-05T07:35:27.596Z</time></trkpt><trkpt lat="44.217889" lon="15.4774827"><ele>58.0</ele><time>2026-05-05T07:35:28.595Z</time></trkpt><trkpt lat="44.2177942" lon="15.4778271"><ele>60.5</ele><time>2026-05-05T07:35:29.596Z</time></trkpt><trkpt lat="44.2177052" lon="15.4781698"><ele>63.0</ele><time>2026-05-05T07:35:30.595Z</time></trkpt><trkpt lat="44.217618" lon="15.4785164"><ele>65.0</ele><time>2026-05-05T07:35:31.596Z</time></trkpt><trkpt lat="44.2175344" lon="15.4788626"><ele>67.0</ele><time>2026-05-05T07:35:32.596Z</time></trkpt><trkpt lat="44.2174528" lon="15.4792135"><ele>67.0</ele><time>2026-05-05T07:35:33.596Z</time></trkpt><trkpt lat="44.2173634" lon="15.4795649"><ele>67.0</ele><time>2026-05-05T07:35:34.596Z</time></trkpt><trkpt lat="44.2173065" lon="15.4799336"><ele>65.5</ele><time>2026-05-05T07:35:35.596Z</time></trkpt><trkpt lat="44.217227" lon="15.480285"><ele>64.0</ele><time>2026-05-05T07:35:36.595Z</time></trkpt><trkpt lat="44.2171702" lon="15.4806434"><ele>64.0</ele><time>2026-05-05T07:35:37.596Z</time></trkpt><trkpt lat="44.2171116" lon="15.4810089"><ele>64.0</ele><time>2026-05-05T07:35:38.596Z</time></trkpt><trkpt lat="44.2170421" lon="15.4813672"><ele>67.0</ele><time>2026-05-05T07:35:39.596Z</time></trkpt><trkpt lat="44.2169821" lon="15.4817261"><ele>70.0</ele><time>2026-05-05T07:35:40.596Z</time></trkpt><trkpt lat="44.2169528" lon="15.4820973"><ele>73.0</ele><time>2026-05-05T07:35:41.596Z</time></trkpt><trkpt lat="44.2169128" lon="15.4824684"><ele>76.0</ele><time>2026-05-05T07:35:42.596Z</time></trkpt><trkpt lat="44.2168799" lon="15.482839"><ele>78.0</ele><time>2026-05-05T07:35:43.595Z</time></trkpt><trkpt lat="44.216855" lon="15.4832161"><ele>80.0</ele><time>2026-05-05T07:35:44.595Z</time></trkpt><trkpt lat="44.2168222" lon="15.4835868"><ele>81.5</ele><time>2026-05-05T07:35:45.595Z</time></trkpt><trkpt lat="44.2167879" lon="15.4839668"><ele>83.0</ele><time>2026-05-05T07:35:46.596Z</time></trkpt><trkpt lat="44.2167646" lon="15.4843422"><ele>85.0</ele><time>2026-05-05T07:35:47.595Z</time></trkpt><trkpt lat="44.2167437" lon="15.4847132"><ele>87.0</ele><time>2026-05-05T07:35:48.595Z</time></trkpt><trkpt lat="44.2167307" lon="15.4850837"><ele>88.0</ele><time>2026-05-05T07:35:49.596Z</time></trkpt><trkpt lat="44.2167194" lon="15.4854522"><ele>89.0</ele><time>2026-05-05T07:35:50.595Z</time></trkpt><trkpt lat="44.216713" lon="15.4858092"><ele>89.0</ele><time>2026-05-05T07:35:51.595Z</time></trkpt><trkpt lat="44.2167058" lon="15.486166"><ele>89.0</ele><time>2026-05-05T07:35:52.595Z</time></trkpt><trkpt lat="44.2167059" lon="15.4865355"><ele>89.5</ele><time>2026-05-05T07:35:53.595Z</time></trkpt><trkpt lat="44.2167144" lon="15.4869055"><ele>90.0</ele><time>2026-05-05T07:35:54.596Z</time></trkpt><trkpt lat="44.2167252" lon="15.4872767"><ele>92.0</ele><time>2026-05-05T07:35:55.595Z</time></trkpt><trkpt lat="44.2167386" lon="15.4876464"><ele>94.0</ele><time>2026-05-05T07:35:56.595Z</time></trkpt><trkpt lat="44.2167541" lon="15.488012"><ele>95.5</ele><time>2026-05-05T07:35:57.595Z</time></trkpt><trkpt lat="44.2167762" lon="15.4883792"><ele>97.0</ele><time>2026-05-05T07:35:58.595Z</time></trkpt><trkpt lat="44.2167976" lon="15.488736"><ele>96.5</ele><time>2026-05-05T07:35:59.595Z</time></trkpt><trkpt lat="44.2168211" lon="15.4890902"><ele>96.0</ele><time>2026-05-05T07:36:00.595Z</time></trkpt><trkpt lat="44.2168483" lon="15.4894472"><ele>96.0</ele><time>2026-05-05T07:36:01.595Z</time></trkpt><trkpt lat="44.2168838" lon="15.4898039"><ele>96.0</ele><time>2026-05-05T07:36:02.595Z</time></trkpt><trkpt lat="44.2169196" lon="15.4901601"><ele>97.0</ele><time>2026-05-05T07:36:03.596Z</time></trkpt><trkpt lat="44.2169561" lon="15.490511"><ele>98.0</ele><time>2026-05-05T07:36:04.596Z</time></trkpt><trkpt lat="44.2169998" lon="15.4908698"><ele>98.0</ele><time>2026-05-05T07:36:05.596Z</time></trkpt><trkpt lat="44.2170502" lon="15.4912231"><ele>98.0</ele><time>2026-05-05T07:36:06.596Z</time></trkpt><trkpt lat="44.2171013" lon="15.491581"><ele>98.0</ele><time>2026-05-05T07:36:07.595Z</time></trkpt><trkpt lat="44.2171556" lon="15.4919315"><ele>98.0</ele><time>2026-05-05T07:36:08.596Z</time></trkpt><trkpt lat="44.2172097" lon="15.4922894"><ele>98.0</ele><time>2026-05-05T07:36:09.596Z</time></trkpt><trkpt lat="44.2172743" lon="15.4926427"><ele>98.0</ele><time>2026-05-05T07:36:10.596Z</time></trkpt><trkpt lat="44.2173401" lon="15.4929951"><ele>103.5</ele><time>2026-05-05T07:36:11.595Z</time></trkpt><trkpt lat="44.2174087" lon="15.4933441"><ele>109.0</ele><time>2026-05-05T07:36:12.596Z</time></trkpt><trkpt lat="44.2174815" lon="15.4936902"><ele>109.0</ele><time>2026-05-05T07:36:13.596Z</time></trkpt><trkpt lat="44.2175577" lon="15.4940343"><ele>109.0</ele><time>2026-05-05T07:36:14.596Z</time></trkpt><trkpt lat="44.217641" lon="15.4943791"><ele>108.5</ele><time>2026-05-05T07:36:15.596Z</time></trkpt><trkpt lat="44.217726" lon="15.494721"><ele>108.0</ele><time>2026-05-05T07:36:16.596Z</time></trkpt><trkpt lat="44.2178161" lon="15.4950603"><ele>108.0</ele><time>2026-05-05T07:36:17.595Z</time></trkpt><trkpt lat="44.2179084" lon="15.4953963"><ele>108.0</ele><time>2026-05-05T07:36:18.596Z</time></trkpt><trkpt lat="44.2180091" lon="15.4957303"><ele>106.5</ele><time>2026-05-05T07:36:19.595Z</time></trkpt><trkpt lat="44.2181134" lon="15.4960617"><ele>105.0</ele><time>2026-05-05T07:36:20.596Z</time></trkpt><trkpt lat="44.2182287" lon="15.4963963"><ele>105.0</ele><time>2026-05-05T07:36:21.595Z</time></trkpt><trkpt lat="44.218347" lon="15.496722"><ele>105.0</ele><time>2026-05-05T07:36:22.595Z</time></trkpt><trkpt lat="44.2184666" lon="15.4970468"><ele>103.5</ele><time>2026-05-05T07:36:23.595Z</time></trkpt><trkpt lat="44.218595" lon="15.4973673"><ele>102.0</ele><time>2026-05-05T07:36:24.595Z</time></trkpt><trkpt lat="44.2187306" lon="15.4976852"><ele>101.5</ele><time>2026-05-05T07:36:25.596Z</time></trkpt><trkpt lat="44.2188784" lon="15.4979971"><ele>101.0</ele><time>2026-05-05T07:36:26.595Z</time></trkpt><trkpt lat="44.2190297" lon="15.498303"><ele>101.0</ele><time>2026-05-05T07:36:27.595Z</time></trkpt><trkpt lat="44.2191892" lon="15.4986058"><ele>101.0</ele><time>2026-05-05T07:36:28.596Z</time></trkpt><trkpt lat="44.2193553" lon="15.4989052"><ele>98.0</ele><time>2026-05-05T07:36:29.596Z</time></trkpt><trkpt lat="44.2195288" lon="15.4991986"><ele>95.0</ele><time>2026-05-05T07:36:30.596Z</time></trkpt><trkpt lat="44.2197079" lon="15.4994878"><ele>94.5</ele><time>2026-05-05T07:36:31.596Z</time></trkpt><trkpt lat="44.2198925" lon="15.4997729"><ele>94.0</ele><time>2026-05-05T07:36:32.596Z</time></trkpt><trkpt lat="44.2200797" lon="15.5000565"><ele>94.0</ele><time>2026-05-05T07:36:33.595Z</time></trkpt><trkpt lat="44.2202647" lon="15.5003435"><ele>94.0</ele><time>2026-05-05T07:36:34.596Z</time></trkpt><trkpt lat="44.2204524" lon="15.5006288"><ele>93.5</ele><time>2026-05-05T07:36:35.595Z</time></trkpt><trkpt lat="44.2206415" lon="15.5009144"><ele>93.0</ele><time>2026-05-05T07:36:36.596Z</time></trkpt><trkpt lat="44.2208256" lon="15.501203"><ele>92.0</ele><time>2026-05-05T07:36:37.596Z</time></trkpt><trkpt lat="44.2210075" lon="15.5014924"><ele>91.0</ele><time>2026-05-05T07:36:38.595Z</time></trkpt><trkpt lat="44.2211858" lon="15.5017838"><ele>91.0</ele><time>2026-05-05T07:36:39.595Z</time></trkpt><trkpt lat="44.2213666" lon="15.502074"><ele>91.0</ele><time>2026-05-05T07:36:40.595Z</time></trkpt><trkpt lat="44.2215499" lon="15.5023646"><ele>92.0</ele><time>2026-05-05T07:36:41.596Z</time></trkpt><trkpt lat="44.2217134" lon="15.5026707"><ele>93.0</ele><time>2026-05-05T07:36:42.595Z</time></trkpt><trkpt lat="44.2218784" lon="15.5029781"><ele>90.5</ele><time>2026-05-05T07:36:43.596Z</time></trkpt><trkpt lat="44.2220405" lon="15.503285"><ele>88.0</ele><time>2026-05-05T07:36:44.596Z</time></trkpt><trkpt lat="44.2222046" lon="15.503591"><ele>89.5</ele><time>2026-05-05T07:36:45.596Z</time></trkpt><trkpt lat="44.2223688" lon="15.5038939"><ele>91.0</ele><time>2026-05-05T07:36:46.596Z</time></trkpt><trkpt lat="44.222536" lon="15.5041933"><ele>91.0</ele><time>2026-05-05T07:36:47.595Z</time></trkpt><trkpt lat="44.2227031" lon="15.5044937"><ele>91.0</ele><time>2026-05-05T07:36:48.595Z</time></trkpt><trkpt lat="44.2228707" lon="15.5047926"><ele>89.5</ele><time>2026-05-05T07:36:49.596Z</time></trkpt><trkpt lat="44.2230371" lon="15.5050853"><ele>88.0</ele><time>2026-05-05T07:36:50.596Z</time></trkpt><trkpt lat="44.2232207" lon="15.505365"><ele>91.0</ele><time>2026-05-05T07:36:51.595Z</time></trkpt><trkpt lat="44.2234022" lon="15.5056439"><ele>94.0</ele><time>2026-05-05T07:36:52.596Z</time></trkpt><trkpt lat="44.2235797" lon="15.5059205"><ele>94.0</ele><time>2026-05-05T07:36:53.595Z</time></trkpt><trkpt lat="44.2237616" lon="15.5061861"><ele>94.0</ele><time>2026-05-05T07:36:54.596Z</time></trkpt><trkpt lat="44.2239548" lon="15.506445"><ele>96.5</ele><time>2026-05-05T07:36:55.596Z</time></trkpt><trkpt lat="44.2241488" lon="15.5066981"><ele>99.0</ele><time>2026-05-05T07:36:56.596Z</time></trkpt><trkpt lat="44.2243524" lon="15.5069447"><ele>97.5</ele><time>2026-05-05T07:36:57.596Z</time></trkpt><trkpt lat="44.2245502" lon="15.5071848"><ele>96.0</ele><time>2026-05-05T07:36:58.596Z</time></trkpt><trkpt lat="44.2247656" lon="15.5074088"><ele>100.0</ele><time>2026-05-05T07:36:59.595Z</time></trkpt><trkpt lat="44.2249731" lon="15.507633"><ele>104.0</ele><time>2026-05-05T07:37:00.595Z</time></trkpt><trkpt lat="44.2251842" lon="15.507853"><ele>103.0</ele><time>2026-05-05T07:37:01.596Z</time></trkpt><trkpt lat="44.2254011" lon="15.5080667"><ele>102.0</ele><time>2026-05-05T07:37:02.596Z</time></trkpt><trkpt lat="44.225609" lon="15.5082689"><ele>104.5</ele><time>2026-05-05T07:37:03.595Z</time></trkpt><trkpt lat="44.2258411" lon="15.508456"><ele>107.0</ele><time>2026-05-05T07:37:04.596Z</time></trkpt><trkpt lat="44.2260745" lon="15.5086411"><ele>106.0</ele><time>2026-05-05T07:37:05.595Z</time></trkpt><trkpt lat="44.2263042" lon="15.508826"><ele>105.0</ele><time>2026-05-05T07:37:06.595Z</time></trkpt><trkpt lat="44.2265334" lon="15.5090105"><ele>105.0</ele><time>2026-05-05T07:37:07.596Z</time></trkpt><trkpt lat="44.2267715" lon="15.5091785"><ele>105.0</ele><time>2026-05-05T07:37:08.595Z</time></trkpt><trkpt lat="44.2270145" lon="15.509334"><ele>105.0</ele><time>2026-05-05T07:37:09.595Z</time></trkpt><trkpt lat="44.2272627" lon="15.5094696"><ele>105.0</ele><time>2026-05-05T07:37:10.596Z</time></trkpt><trkpt lat="44.2275138" lon="15.5096091"><ele>105.0</ele><time>2026-05-05T07:37:11.596Z</time></trkpt><trkpt lat="44.2277667" lon="15.5097419"><ele>105.0</ele><time>2026-05-05T07:37:12.595Z</time></trkpt><trkpt lat="44.2280163" lon="15.5098724"><ele>106.0</ele><time>2026-05-05T07:37:13.596Z</time></trkpt><trkpt lat="44.2282683" lon="15.5099849"><ele>107.0</ele><time>2026-05-05T07:37:14.595Z</time></trkpt><trkpt lat="44.2285213" lon="15.5100894"><ele>107.0</ele><time>2026-05-05T07:37:15.596Z</time></trkpt><trkpt lat="44.228779" lon="15.5101889"><ele>107.0</ele><time>2026-05-05T07:37:16.595Z</time></trkpt><trkpt lat="44.2290335" lon="15.5102899"><ele>105.5</ele><time>2026-05-05T07:37:17.595Z</time></trkpt><trkpt lat="44.2292925" lon="15.5103907"><ele>104.0</ele><time>2026-05-05T07:37:18.596Z</time></trkpt><trkpt lat="44.229546" lon="15.5104888"><ele>104.0</ele><time>2026-05-05T07:37:19.595Z</time></trkpt><trkpt lat="44.229795" lon="15.510601"><ele>104.0</ele><time>2026-05-05T07:37:20.596Z</time></trkpt><trkpt lat="44.2300411" lon="15.5107172"><ele>104.5</ele><time>2026-05-05T07:37:21.596Z</time></trkpt><trkpt lat="44.2302813" lon="15.5108489"><ele>105.0</ele><time>2026-05-05T07:37:22.596Z</time></trkpt><trkpt lat="44.2305345" lon="15.5109677"><ele>103.0</ele><time>2026-05-05T07:37:23.595Z</time></trkpt><trkpt lat="44.2307789" lon="15.511102"><ele>101.0</ele><time>2026-05-05T07:37:24.596Z</time></trkpt><trkpt lat="44.2310211" lon="15.5112379"><ele>101.0</ele><time>2026-05-05T07:37:25.596Z</time></trkpt><trkpt lat="44.2312562" lon="15.5113934"><ele>101.0</ele><time>2026-05-05T07:37:26.596Z</time></trkpt><trkpt lat="44.2314909" lon="15.5115539"><ele>98.0</ele><time>2026-05-05T07:37:27.596Z</time></trkpt><trkpt lat="44.2317188" lon="15.5117221"><ele>95.0</ele><time>2026-05-05T07:37:28.595Z</time></trkpt><trkpt lat="44.2319453" lon="15.5118971"><ele>93.0</ele><time>2026-05-05T07:37:29.596Z</time></trkpt><trkpt lat="44.2321601" lon="15.5120762"><ele>91.0</ele><time>2026-05-05T07:37:30.596Z</time></trkpt><trkpt lat="44.2323802" lon="15.5122704"><ele>89.0</ele><time>2026-05-05T07:37:31.596Z</time></trkpt><trkpt lat="44.2325938" lon="15.5124694"><ele>87.0</ele><time>2026-05-05T07:37:32.595Z</time></trkpt><trkpt lat="44.2327923" lon="15.512682"><ele>87.0</ele><time>2026-05-05T07:37:33.595Z</time></trkpt><trkpt lat="44.2329962" lon="15.5128981"><ele>87.0</ele><time>2026-05-05T07:37:34.596Z</time></trkpt><trkpt lat="44.2331918" lon="15.5131226"><ele>86.5</ele><time>2026-05-05T07:37:35.595Z</time></trkpt><trkpt lat="44.2333879" lon="15.5133556"><ele>86.0</ele><time>2026-05-05T07:37:36.596Z</time></trkpt><trkpt lat="44.2335766" lon="15.513592"><ele>85.5</ele><time>2026-05-05T07:37:37.595Z</time></trkpt><trkpt lat="44.2337546" lon="15.5138392"><ele>85.0</ele><time>2026-05-05T07:37:38.595Z</time></trkpt><trkpt lat="44.2339393" lon="15.5140885"><ele>88.0</ele><time>2026-05-05T07:37:39.596Z</time></trkpt><trkpt lat="44.2341049" lon="15.5143625"><ele>91.0</ele><time>2026-05-05T07:37:40.595Z</time></trkpt><trkpt lat="44.2342711" lon="15.5146322"><ele>91.0</ele><time>2026-05-05T07:37:41.596Z</time></trkpt><trkpt lat="44.2344491" lon="15.5149107"><ele>91.0</ele><time>2026-05-05T07:37:42.595Z</time></trkpt><trkpt lat="44.2346187" lon="15.5151942"><ele>91.5</ele><time>2026-05-05T07:37:43.595Z</time></trkpt><trkpt lat="44.2347421" lon="15.5154972"><ele>92.0</ele><time>2026-05-05T07:37:44.596Z</time></trkpt><trkpt lat="44.2348886" lon="15.515806"><ele>92.0</ele><time>2026-05-05T07:37:45.595Z</time></trkpt><trkpt lat="44.235022" lon="15.5161009"><ele>92.0</ele><time>2026-05-05T07:37:46.596Z</time></trkpt><trkpt lat="44.2351372" lon="15.5164565"><ele>91.5</ele><time>2026-05-05T07:37:47.595Z</time></trkpt><trkpt lat="44.2352604" lon="15.5167507"><ele>91.0</ele><time>2026-05-05T07:37:48.596Z</time></trkpt><trkpt lat="44.235384" lon="15.5170543"><ele>91.0</ele><time>2026-05-05T07:37:49.595Z</time></trkpt><trkpt lat="44.2355003" lon="15.5173689"><ele>91.0</ele><time>2026-05-05T07:37:50.596Z</time></trkpt><trkpt lat="44.2355971" lon="15.5176912"><ele>90.5</ele><time>2026-05-05T07:37:51.595Z</time></trkpt><trkpt lat="44.2356975" lon="15.5180037"><ele>90.0</ele><time>2026-05-05T07:37:52.595Z</time></trkpt><trkpt lat="44.2357831" lon="15.5183227"><ele>90.0</ele><time>2026-05-05T07:37:53.596Z</time></trkpt><trkpt lat="44.2358636" lon="15.5186456"><ele>90.0</ele><time>2026-05-05T07:37:54.596Z</time></trkpt><trkpt lat="44.235942" lon="15.5189713"><ele>90.0</ele><time>2026-05-05T07:37:55.595Z</time></trkpt><trkpt lat="44.2360154" lon="15.5192951"><ele>90.0</ele><time>2026-05-05T07:37:56.595Z</time></trkpt><trkpt lat="44.2360825" lon="15.5196276"><ele>84.5</ele><time>2026-05-05T07:37:57.596Z</time></trkpt><trkpt lat="44.2361527" lon="15.5199581"><ele>79.0</ele><time>2026-05-05T07:37:58.596Z</time></trkpt><trkpt lat="44.2362218" lon="15.5202911"><ele>60.5</ele><time>2026-05-05T07:37:59.595Z</time></trkpt><trkpt lat="44.2362957" lon="15.5206185"><ele>42.0</ele><time>2026-05-05T07:38:00.596Z</time></trkpt><trkpt lat="44.2363709" lon="15.5209435"><ele>27.5</ele><time>2026-05-05T07:38:01.595Z</time></trkpt><trkpt lat="44.2364394" lon="15.5212652"><ele>13.0</ele><time>2026-05-05T07:38:02.595Z</time></trkpt><trkpt lat="44.2365085" lon="15.5215843"><ele>8.0</ele><time>2026-05-05T07:38:03.596Z</time></trkpt><trkpt lat="44.2365766" lon="15.5219026"><ele>3.0</ele><time>2026-05-05T07:38:04.596Z</time></trkpt><trkpt lat="44.2366433" lon="15.5222205"><ele>1.5</ele><time>2026-05-05T07:38:05.596Z</time></trkpt><trkpt lat="44.2367107" lon="15.5225404"><ele>0.0</ele><time>2026-05-05T07:38:06.596Z</time></trkpt><trkpt lat="44.236781" lon="15.5228617"><ele>3.5</ele><time>2026-05-05T07:38:07.596Z</time></trkpt><trkpt lat="44.2368501" lon="15.5231829"><ele>7.0</ele><time>2026-05-05T07:38:08.595Z</time></trkpt><trkpt lat="44.2369185" lon="15.5235038"><ele>15.5</ele><time>2026-05-05T07:38:09.596Z</time></trkpt><trkpt lat="44.2369877" lon="15.523827"><ele>24.0</ele><time>2026-05-05T07:38:10.595Z</time></trkpt><trkpt lat="44.2370565" lon="15.5241489"><ele>24.0</ele><time>2026-05-05T07:38:11.596Z</time></trkpt><trkpt lat="44.2371281" lon="15.5244723"><ele>24.0</ele><time>2026-05-05T07:38:12.595Z</time></trkpt><trkpt lat="44.2371936" lon="15.5247943"><ele>44.5</ele><time>2026-05-05T07:38:13.595Z</time></trkpt><trkpt lat="44.2372611" lon="15.5251185"><ele>65.0</ele><time>2026-05-05T07:38:14.596Z</time></trkpt><trkpt lat="44.2373253" lon="15.5254438"><ele>74.0</ele><time>2026-05-05T07:38:15.596Z</time></trkpt><trkpt lat="44.2373896" lon="15.5257715"><ele>83.0</ele><time>2026-05-05T07:38:16.595Z</time></trkpt><trkpt lat="44.2374637" lon="15.5260968"><ele>82.5</ele><time>2026-05-05T07:38:17.596Z</time></trkpt><trkpt lat="44.2375384" lon="15.5264247"><ele>82.0</ele><time>2026-05-05T07:38:18.596Z</time></trkpt><trkpt lat="44.2376098" lon="15.5267502"><ele>82.5</ele><time>2026-05-05T07:38:19.596Z</time></trkpt><trkpt lat="44.2376801" lon="15.527077"><ele>83.0</ele><time>2026-05-05T07:38:20.595Z</time></trkpt><trkpt lat="44.2377554" lon="15.5274075"><ele>83.0</ele><time>2026-05-05T07:38:21.595Z</time></trkpt><trkpt lat="44.2378244" lon="15.5277324"><ele>83.0</ele><time>2026-05-05T07:38:22.596Z</time></trkpt><trkpt lat="44.237894" lon="15.5280574"><ele>83.5</ele><time>2026-05-05T07:38:23.596Z</time></trkpt><trkpt lat="44.2379651" lon="15.5283806"><ele>84.0</ele><time>2026-05-05T07:38:24.596Z</time></trkpt><trkpt lat="44.2380299" lon="15.5287063"><ele>84.5</ele><time>2026-05-05T07:38:25.595Z</time></trkpt><trkpt lat="44.2381027" lon="15.5290379"><ele>85.0</ele><time>2026-05-05T07:38:26.595Z</time></trkpt><trkpt lat="44.2381698" lon="15.5293695"><ele>81.5</ele><time>2026-05-05T07:38:27.596Z</time></trkpt><trkpt lat="44.2382337" lon="15.5297065"><ele>78.0</ele><time>2026-05-05T07:38:28.596Z</time></trkpt><trkpt lat="44.2383043" lon="15.5300389"><ele>78.0</ele><time>2026-05-05T07:38:29.596Z</time></trkpt><trkpt lat="44.2383725" lon="15.5303717"><ele>78.0</ele><time>2026-05-05T07:38:30.595Z</time></trkpt><trkpt lat="44.2384507" lon="15.5307128"><ele>78.5</ele><time>2026-05-05T07:38:31.596Z</time></trkpt><trkpt lat="44.2385243" lon="15.5310463"><ele>79.0</ele><time>2026-05-05T07:38:32.595Z</time></trkpt><trkpt lat="44.2385918" lon="15.5313793"><ele>80.0</ele><time>2026-05-05T07:38:33.596Z</time></trkpt><trkpt lat="44.2386695" lon="15.5317115"><ele>81.0</ele><time>2026-05-05T07:38:34.596Z</time></trkpt><trkpt lat="44.2387461" lon="15.5320433"><ele>82.5</ele><time>2026-05-05T07:38:35.596Z</time></trkpt><trkpt lat="44.2388222" lon="15.5323733"><ele>84.0</ele><time>2026-05-05T07:38:36.595Z</time></trkpt><trkpt lat="44.238893" lon="15.5326976"><ele>86.5</ele><time>2026-05-05T07:38:37.595Z</time></trkpt><trkpt lat="44.2389667" lon="15.5330253"><ele>89.0</ele><time>2026-05-05T07:38:38.596Z</time></trkpt><trkpt lat="44.239041" lon="15.5333539"><ele>85.5</ele><time>2026-05-05T07:38:39.595Z</time></trkpt><trkpt lat="44.2391135" lon="15.5336832"><ele>82.0</ele><time>2026-05-05T07:38:40.596Z</time></trkpt><trkpt lat="44.2391866" lon="15.5340125"><ele>82.0</ele><time>2026-05-05T07:38:41.596Z</time></trkpt><trkpt lat="44.2392579" lon="15.5343354"><ele>82.0</ele><time>2026-05-05T07:38:42.596Z</time></trkpt><trkpt lat="44.2393253" lon="15.5346588"><ele>82.5</ele><time>2026-05-05T07:38:43.596Z</time></trkpt><trkpt lat="44.2393941" lon="15.5349819"><ele>83.0</ele><time>2026-05-05T07:38:44.596Z</time></trkpt><trkpt lat="44.2394603" lon="15.5353057"><ele>83.5</ele><time>2026-05-05T07:38:45.595Z</time></trkpt><trkpt lat="44.2395307" lon="15.5356314"><ele>84.0</ele><time>2026-05-05T07:38:46.595Z</time></trkpt><trkpt lat="44.2395986" lon="15.5359561"><ele>85.0</ele><time>2026-05-05T07:38:47.596Z</time></trkpt><trkpt lat="44.2396668" lon="15.5362793"><ele>86.0</ele><time>2026-05-05T07:38:48.596Z</time></trkpt><trkpt lat="44.2397383" lon="15.5366033"><ele>83.5</ele><time>2026-05-05T07:38:49.596Z</time></trkpt><trkpt lat="44.2398084" lon="15.5369295"><ele>81.0</ele><time>2026-05-05T07:38:50.595Z</time></trkpt><trkpt lat="44.2398807" lon="15.5372607"><ele>81.0</ele><time>2026-05-05T07:38:51.596Z</time></trkpt><trkpt lat="44.2399524" lon="15.5375958"><ele>81.0</ele><time>2026-05-05T07:38:52.596Z</time></trkpt><trkpt lat="44.2400271" lon="15.5379321"><ele>80.0</ele><time>2026-05-05T07:38:53.596Z</time></trkpt><trkpt lat="44.240099" lon="15.5382664"><ele>79.0</ele><time>2026-05-05T07:38:54.596Z</time></trkpt><trkpt lat="44.2401697" lon="15.5385975"><ele>77.0</ele><time>2026-05-05T07:38:55.595Z</time></trkpt><trkpt lat="44.2402426" lon="15.5389256"><ele>75.0</ele><time>2026-05-05T07:38:56.596Z</time></trkpt><trkpt lat="44.2403124" lon="15.5392524"><ele>78.0</ele><time>2026-05-05T07:38:57.596Z</time></trkpt><trkpt lat="44.2403793" lon="15.539577"><ele>81.0</ele><time>2026-05-05T07:38:58.596Z</time></trkpt><trkpt lat="44.2404479" lon="15.5398979"><ele>81.0</ele><time>2026-05-05T07:38:59.596Z</time></trkpt><trkpt lat="44.2405167" lon="15.5402198"><ele>81.0</ele><time>2026-05-05T07:39:00.595Z</time></trkpt><trkpt lat="44.2405851" lon="15.5405398"><ele>82.5</ele><time>2026-05-05T07:39:01.595Z</time></trkpt><trkpt lat="44.2406577" lon="15.5408589"><ele>84.0</ele><time>2026-05-05T07:39:02.596Z</time></trkpt><trkpt lat="44.2407302" lon="15.5411798"><ele>91.0</ele><time>2026-05-05T07:39:03.595Z</time></trkpt><trkpt lat="44.2408" lon="15.5415012"><ele>98.0</ele><time>2026-05-05T07:39:04.595Z</time></trkpt><trkpt lat="44.2408647" lon="15.5418256"><ele>104.5</ele><time>2026-05-05T07:39:05.595Z</time></trkpt><trkpt lat="44.2409287" lon="15.5421523"><ele>111.0</ele><time>2026-05-05T07:39:06.596Z</time></trkpt><trkpt lat="44.2409917" lon="15.5424818"><ele>111.0</ele><time>2026-05-05T07:39:07.596Z</time></trkpt><trkpt lat="44.2410565" lon="15.5428141"><ele>111.0</ele><time>2026-05-05T07:39:08.596Z</time></trkpt><trkpt lat="44.2411255" lon="15.543151"><ele>116.5</ele><time>2026-05-05T07:39:09.596Z</time></trkpt><trkpt lat="44.2411954" lon="15.5434898"><ele>122.0</ele><time>2026-05-05T07:39:10.595Z</time></trkpt><trkpt lat="44.241269" lon="15.5438281"><ele>124.0</ele><time>2026-05-05T07:39:11.596Z</time></trkpt><trkpt lat="44.2413411" lon="15.5441637"><ele>126.0</ele><time>2026-05-05T07:39:12.596Z</time></trkpt><trkpt lat="44.2414116" lon="15.5445078"><ele>116.0</ele><time>2026-05-05T07:39:13.596Z</time></trkpt><trkpt lat="44.2414827" lon="15.5448449"><ele>106.0</ele><time>2026-05-05T07:39:14.595Z</time></trkpt><trkpt lat="44.2415531" lon="15.5451801"><ele>108.0</ele><time>2026-05-05T07:39:15.596Z</time></trkpt><trkpt lat="44.2416398" lon="15.5455091"><ele>110.0</ele><time>2026-05-05T07:39:16.596Z</time></trkpt><trkpt lat="44.2417203" lon="15.5458435"><ele>110.0</ele><time>2026-05-05T07:39:17.595Z</time></trkpt><trkpt lat="44.2417907" lon="15.5461794"><ele>110.0</ele><time>2026-05-05T07:39:18.595Z</time></trkpt><trkpt lat="44.2418593" lon="15.5465185"><ele>114.5</ele><time>2026-05-05T07:39:19.596Z</time></trkpt><trkpt lat="44.2419193" lon="15.5468584"><ele>119.0</ele><time>2026-05-05T07:39:20.595Z</time></trkpt><trkpt lat="44.2419755" lon="15.547198"><ele>119.5</ele><time>2026-05-05T07:39:21.596Z</time></trkpt><trkpt lat="44.2420254" lon="15.5475438"><ele>120.0</ele><time>2026-05-05T07:39:22.596Z</time></trkpt><trkpt lat="44.2420544" lon="15.5478836"><ele>117.0</ele><time>2026-05-05T07:39:23.595Z</time></trkpt><trkpt lat="44.2420894" lon="15.5482335"><ele>114.0</ele><time>2026-05-05T07:39:24.595Z</time></trkpt><trkpt lat="44.2421059" lon="15.5485861"><ele>114.5</ele><time>2026-05-05T07:39:25.595Z</time></trkpt><trkpt lat="44.2421231" lon="15.5489397"><ele>115.0</ele><time>2026-05-05T07:39:26.596Z</time></trkpt><trkpt lat="44.2421194" lon="15.5492878"><ele>118.5</ele><time>2026-05-05T07:39:27.595Z</time></trkpt><trkpt lat="44.2421169" lon="15.549642"><ele>122.0</ele><time>2026-05-05T07:39:28.596Z</time></trkpt><trkpt lat="44.2420901" lon="15.5499741"><ele>122.0</ele><time>2026-05-05T07:39:29.596Z</time></trkpt><trkpt lat="44.24207" lon="15.5503164"><ele>122.0</ele><time>2026-05-05T07:39:30.596Z</time></trkpt><trkpt lat="44.2420578" lon="15.550675"><ele>125.0</ele><time>2026-05-05T07:39:31.596Z</time></trkpt><trkpt lat="44.2420041" lon="15.5510112"><ele>128.0</ele><time>2026-05-05T07:39:32.596Z</time></trkpt><trkpt lat="44.2419569" lon="15.5513521"><ele>131.5</ele><time>2026-05-05T07:39:33.595Z</time></trkpt><trkpt lat="44.2419032" lon="15.5516904"><ele>135.0</ele><time>2026-05-05T07:39:34.596Z</time></trkpt><trkpt lat="44.241858" lon="15.5520304"><ele>138.5</ele><time>2026-05-05T07:39:35.595Z</time></trkpt><trkpt lat="44.2417879" lon="15.552346"><ele>142.0</ele><time>2026-05-05T07:39:36.595Z</time></trkpt><trkpt lat="44.2417192" lon="15.5526664"><ele>144.5</ele><time>2026-05-05T07:39:37.596Z</time></trkpt><trkpt lat="44.2416597" lon="15.5529935"><ele>147.0</ele><time>2026-05-05T07:39:38.596Z</time></trkpt><trkpt lat="44.2415953" lon="15.5533196"><ele>147.0</ele><time>2026-05-05T07:39:39.596Z</time></trkpt><trkpt lat="44.2415371" lon="15.5536426"><ele>147.0</ele><time>2026-05-05T07:39:40.595Z</time></trkpt><trkpt lat="44.2414801" lon="15.5539688"><ele>148.5</ele><time>2026-05-05T07:39:41.596Z</time></trkpt><trkpt lat="44.2414188" lon="15.5542833"><ele>150.0</ele><time>2026-05-05T07:39:42.595Z</time></trkpt><trkpt lat="44.2413677" lon="15.5545973"><ele>154.0</ele><time>2026-05-05T07:39:43.596Z</time></trkpt><trkpt lat="44.2413142" lon="15.5549199"><ele>158.0</ele><time>2026-05-05T07:39:44.595Z</time></trkpt><trkpt lat="44.2412646" lon="15.5552419"><ele>158.5</ele><time>2026-05-05T07:39:45.595Z</time></trkpt><trkpt lat="44.2412167" lon="15.5555636"><ele>159.0</ele><time>2026-05-05T07:39:46.595Z</time></trkpt><trkpt lat="44.2411571" lon="15.5558829"><ele>159.5</ele><time>2026-05-05T07:39:47.596Z</time></trkpt><trkpt lat="44.2411103" lon="15.5562136"><ele>160.0</ele><time>2026-05-05T07:39:48.595Z</time></trkpt><trkpt lat="44.2410608" lon="15.5565425"><ele>160.0</ele><time>2026-05-05T07:39:49.595Z</time></trkpt><trkpt lat="44.2410118" lon="15.5568501"><ele>160.0</ele><time>2026-05-05T07:39:50.595Z</time></trkpt><trkpt lat="44.2409583" lon="15.5571692"><ele>161.5</ele><time>2026-05-05T07:39:51.595Z</time></trkpt><trkpt lat="44.2409061" lon="15.5574813"><ele>163.0</ele><time>2026-05-05T07:39:52.596Z</time></trkpt><trkpt lat="44.2408538" lon="15.5578059"><ele>163.5</ele><time>2026-05-05T07:39:53.595Z</time></trkpt><trkpt lat="44.2408076" lon="15.5581274"><ele>164.0</ele><time>2026-05-05T07:39:54.595Z</time></trkpt><trkpt lat="44.2407726" lon="15.5584508"><ele>163.5</ele><time>2026-05-05T07:39:55.595Z</time></trkpt><trkpt lat="44.2407384" lon="15.5587873"><ele>163.0</ele><time>2026-05-05T07:39:56.596Z</time></trkpt><trkpt lat="44.2406984" lon="15.5591067"><ele>163.0</ele><time>2026-05-05T07:39:57.595Z</time></trkpt><trkpt lat="44.2406717" lon="15.5594352"><ele>163.0</ele><time>2026-05-05T07:39:58.595Z</time></trkpt><trkpt lat="44.2406511" lon="15.5597673"><ele>160.5</ele><time>2026-05-05T07:39:59.595Z</time></trkpt><trkpt lat="44.2406221" lon="15.560092"><ele>158.0</ele><time>2026-05-05T07:40:00.596Z</time></trkpt><trkpt lat="44.2405927" lon="15.5604167"><ele>158.0</ele><time>2026-05-05T07:40:01.595Z</time></trkpt><trkpt lat="44.2405714" lon="15.5607493"><ele>158.0</ele><time>2026-05-05T07:40:02.595Z</time></trkpt><trkpt lat="44.2405349" lon="15.5610624"><ele>158.5</ele><time>2026-05-05T07:40:03.595Z</time></trkpt><trkpt lat="44.2405227" lon="15.5613908"><ele>159.0</ele><time>2026-05-05T07:40:04.595Z</time></trkpt><trkpt lat="44.2405009" lon="15.5617187"><ele>157.5</ele><time>2026-05-05T07:40:05.596Z</time></trkpt><trkpt lat="44.2404831" lon="15.5620561"><ele>156.0</ele><time>2026-05-05T07:40:06.595Z</time></trkpt><trkpt lat="44.2404658" lon="15.5623869"><ele>156.0</ele><time>2026-05-05T07:40:07.596Z</time></trkpt><trkpt lat="44.2404489" lon="15.5627257"><ele>156.0</ele><time>2026-05-05T07:40:08.595Z</time></trkpt><trkpt lat="44.2404319" lon="15.5630642"><ele>155.0</ele><time>2026-05-05T07:40:09.595Z</time></trkpt><trkpt lat="44.2404139" lon="15.5633977"><ele>154.0</ele><time>2026-05-05T07:40:10.596Z</time></trkpt><trkpt lat="44.2403981" lon="15.5637416"><ele>152.0</ele><time>2026-05-05T07:40:11.596Z</time></trkpt><trkpt lat="44.2403868" lon="15.5640883"><ele>150.0</ele><time>2026-05-05T07:40:12.596Z</time></trkpt><trkpt lat="44.2403744" lon="15.5644252"><ele>150.0</ele><time>2026-05-05T07:40:13.596Z</time></trkpt><trkpt lat="44.2403614" lon="15.5647726"><ele>150.0</ele><time>2026-05-05T07:40:14.596Z</time></trkpt><trkpt lat="44.24035" lon="15.5651262"><ele>148.0</ele><time>2026-05-05T07:40:15.595Z</time></trkpt><trkpt lat="44.2403386" lon="15.5654787"><ele>146.0</ele><time>2026-05-05T07:40:16.595Z</time></trkpt><trkpt lat="44.2403285" lon="15.5658372"><ele>146.0</ele><time>2026-05-05T07:40:17.596Z</time></trkpt><trkpt lat="44.2403203" lon="15.5661937"><ele>146.0</ele><time>2026-05-05T07:40:18.596Z</time></trkpt><trkpt lat="44.2403086" lon="15.5665495"><ele>146.0</ele><time>2026-05-05T07:40:19.596Z</time></trkpt><trkpt lat="44.2403078" lon="15.5669095"><ele>146.0</ele><time>2026-05-05T07:40:20.596Z</time></trkpt><trkpt lat="44.2403075" lon="15.5672668"><ele>146.5</ele><time>2026-05-05T07:40:21.595Z</time></trkpt><trkpt lat="44.2403099" lon="15.5676273"><ele>147.0</ele><time>2026-05-05T07:40:22.595Z</time></trkpt><trkpt lat="44.2403112" lon="15.5679777"><ele>147.5</ele><time>2026-05-05T07:40:23.595Z</time></trkpt><trkpt lat="44.2403066" lon="15.5683338"><ele>148.0</ele><time>2026-05-05T07:40:24.596Z</time></trkpt><trkpt lat="44.2403117" lon="15.568696"><ele>148.5</ele><time>2026-05-05T07:40:25.595Z</time></trkpt><trkpt lat="44.2403219" lon="15.5690567"><ele>149.0</ele><time>2026-05-05T07:40:26.596Z</time></trkpt><trkpt lat="44.2403325" lon="15.5694177"><ele>149.5</ele><time>2026-05-05T07:40:27.596Z</time></trkpt><trkpt lat="44.2403426" lon="15.5697775"><ele>150.0</ele><time>2026-05-05T07:40:28.596Z</time></trkpt><trkpt lat="44.2403539" lon="15.5701307"><ele>152.0</ele><time>2026-05-05T07:40:29.595Z</time></trkpt><trkpt lat="44.2403669" lon="15.5704877"><ele>154.0</ele><time>2026-05-05T07:40:30.595Z</time></trkpt><trkpt lat="44.2403837" lon="15.5708413"><ele>154.5</ele><time>2026-05-05T07:40:31.596Z</time></trkpt><trkpt lat="44.2403991" lon="15.5711978"><ele>155.0</ele><time>2026-05-05T07:40:32.596Z</time></trkpt><trkpt lat="44.2404124" lon="15.5715511"><ele>155.0</ele><time>2026-05-05T07:40:33.596Z</time></trkpt><trkpt lat="44.2404296" lon="15.5719019"><ele>155.0</ele><time>2026-05-05T07:40:34.596Z</time></trkpt><trkpt lat="44.2404531" lon="15.5722631"><ele>156.0</ele><time>2026-05-05T07:40:35.595Z</time></trkpt><trkpt lat="44.2404742" lon="15.5726092"><ele>157.0</ele><time>2026-05-05T07:40:36.595Z</time></trkpt><trkpt lat="44.2405001" lon="15.5729671"><ele>157.0</ele><time>2026-05-05T07:40:37.596Z</time></trkpt><trkpt lat="44.240525" lon="15.5733285"><ele>157.0</ele><time>2026-05-05T07:40:38.596Z</time></trkpt><trkpt lat="44.2405523" lon="15.5736881"><ele>156.5</ele><time>2026-05-05T07:40:39.596Z</time></trkpt><trkpt lat="44.240582" lon="15.5740456"><ele>156.0</ele><time>2026-05-05T07:40:40.595Z</time></trkpt><trkpt lat="44.2406129" lon="15.5744059"><ele>153.5</ele><time>2026-05-05T07:40:41.595Z</time></trkpt><trkpt lat="44.2406436" lon="15.5747661"><ele>151.0</ele><time>2026-05-05T07:40:42.595Z</time></trkpt><trkpt lat="44.2406782" lon="15.5751283"><ele>151.0</ele><time>2026-05-05T07:40:43.595Z</time></trkpt><trkpt lat="44.2407168" lon="15.5755013"><ele>151.0</ele><time>2026-05-05T07:40:44.595Z</time></trkpt><trkpt lat="44.2407521" lon="15.5758642"><ele>151.0</ele><time>2026-05-05T07:40:45.596Z</time></trkpt><trkpt lat="44.240795" lon="15.5762256"><ele>151.0</ele><time>2026-05-05T07:40:46.596Z</time></trkpt><trkpt lat="44.2408324" lon="15.5765881"><ele>151.0</ele><time>2026-05-05T07:40:47.596Z</time></trkpt><trkpt lat="44.2408696" lon="15.5769513"><ele>151.0</ele><time>2026-05-05T07:40:48.596Z</time></trkpt><trkpt lat="44.2409146" lon="15.5773094"><ele>149.5</ele><time>2026-05-05T07:40:49.596Z</time></trkpt><trkpt lat="44.2409491" lon="15.5776731"><ele>148.0</ele><time>2026-05-05T07:40:50.596Z</time></trkpt><trkpt lat="44.240987" lon="15.5780284"><ele>146.0</ele><time>2026-05-05T07:40:51.595Z</time></trkpt><trkpt lat="44.2410192" lon="15.5783881"><ele>144.0</ele><time>2026-05-05T07:40:52.596Z</time></trkpt><trkpt lat="44.241054" lon="15.5787437"><ele>141.5</ele><time>2026-05-05T07:40:53.595Z</time></trkpt><trkpt lat="44.241086" lon="15.5790994"><ele>139.0</ele><time>2026-05-05T07:40:54.596Z</time></trkpt><trkpt lat="44.2411087" lon="15.5794561"><ele>137.0</ele><time>2026-05-05T07:40:55.595Z</time></trkpt><trkpt lat="44.2411298" lon="15.5798109"><ele>135.0</ele><time>2026-05-05T07:40:56.595Z</time></trkpt><trkpt lat="44.2411451" lon="15.5801637"><ele>133.0</ele><time>2026-05-05T07:40:57.596Z</time></trkpt><trkpt lat="44.2411485" lon="15.5805193"><ele>131.0</ele><time>2026-05-05T07:40:58.595Z</time></trkpt><trkpt lat="44.2411505" lon="15.5808709"><ele>131.5</ele><time>2026-05-05T07:40:59.596Z</time></trkpt><trkpt lat="44.2411406" lon="15.5812209"><ele>132.0</ele><time>2026-05-05T07:41:00.595Z</time></trkpt><trkpt lat="44.2411201" lon="15.5815675"><ele>132.0</ele><time>2026-05-05T07:41:01.596Z</time></trkpt><trkpt lat="44.2410913" lon="15.5819171"><ele>132.0</ele><time>2026-05-05T07:41:02.596Z</time></trkpt><trkpt lat="44.2410662" lon="15.5822609"><ele>134.0</ele><time>2026-05-05T07:41:03.596Z</time></trkpt><trkpt lat="44.2410193" lon="15.5826031"><ele>136.0</ele><time>2026-05-05T07:41:04.596Z</time></trkpt><trkpt lat="44.2409657" lon="15.5829396"><ele>136.5</ele><time>2026-05-05T07:41:05.595Z</time></trkpt><trkpt lat="44.2409092" lon="15.5832782"><ele>137.0</ele><time>2026-05-05T07:41:06.596Z</time></trkpt><trkpt lat="44.240848" lon="15.5836143"><ele>140.0</ele><time>2026-05-05T07:41:07.595Z</time></trkpt><trkpt lat="44.2407854" lon="15.5839595"><ele>143.0</ele><time>2026-05-05T07:41:08.596Z</time></trkpt><trkpt lat="44.2407159" lon="15.5842956"><ele>146.0</ele><time>2026-05-05T07:41:09.595Z</time></trkpt><trkpt lat="44.240648" lon="15.5846361"><ele>149.0</ele><time>2026-05-05T07:41:10.596Z</time></trkpt><trkpt lat="44.2405853" lon="15.5849711"><ele>149.0</ele><time>2026-05-05T07:41:11.596Z</time></trkpt><trkpt lat="44.240527" lon="15.5853144"><ele>149.0</ele><time>2026-05-05T07:41:12.596Z</time></trkpt><trkpt lat="44.2404528" lon="15.585648"><ele>153.5</ele><time>2026-05-05T07:41:13.595Z</time></trkpt><trkpt lat="44.2403871" lon="15.5859902"><ele>158.0</ele><time>2026-05-05T07:41:14.595Z</time></trkpt><trkpt lat="44.2403179" lon="15.5863289"><ele>162.0</ele><time>2026-05-05T07:41:15.596Z</time></trkpt><trkpt lat="44.2402454" lon="15.5866655"><ele>166.0</ele><time>2026-05-05T07:41:16.595Z</time></trkpt><trkpt lat="44.2401767" lon="15.5870076"><ele>169.0</ele><time>2026-05-05T07:41:17.595Z</time></trkpt><trkpt lat="44.2401114" lon="15.5873549"><ele>172.0</ele><time>2026-05-05T07:41:18.595Z</time></trkpt><trkpt lat="44.2400343" lon="15.5877019"><ele>173.0</ele><time>2026-05-05T07:41:19.596Z</time></trkpt><trkpt lat="44.2399704" lon="15.5880468"><ele>174.0</ele><time>2026-05-05T07:41:20.596Z</time></trkpt><trkpt lat="44.2399025" lon="15.5883894"><ele>174.5</ele><time>2026-05-05T07:41:21.595Z</time></trkpt><trkpt lat="44.2398436" lon="15.5887349"><ele>175.0</ele><time>2026-05-05T07:41:22.596Z</time></trkpt><trkpt lat="44.2397857" lon="15.5890888"><ele>175.0</ele><time>2026-05-05T07:41:23.596Z</time></trkpt><trkpt lat="44.2397114" lon="15.5894371"><ele>175.0</ele><time>2026-05-05T07:41:24.595Z</time></trkpt><trkpt lat="44.2396513" lon="15.5897773"><ele>175.5</ele><time>2026-05-05T07:41:25.596Z</time></trkpt><trkpt lat="44.2395936" lon="15.5901341"><ele>176.0</ele><time>2026-05-05T07:41:26.595Z</time></trkpt><trkpt lat="44.2395335" lon="15.5904769"><ele>177.0</ele><time>2026-05-05T07:41:27.595Z</time></trkpt><trkpt lat="44.2394783" lon="15.5908279"><ele>178.0</ele><time>2026-05-05T07:41:28.596Z</time></trkpt><trkpt lat="44.2394257" lon="15.5911825"><ele>180.0</ele><time>2026-05-05T07:41:29.596Z</time></trkpt><trkpt lat="44.2393726" lon="15.5915412"><ele>182.0</ele><time>2026-05-05T07:41:30.595Z</time></trkpt><trkpt lat="44.2393199" lon="15.591898"><ele>182.5</ele><time>2026-05-05T07:41:31.595Z</time></trkpt><trkpt lat="44.2392685" lon="15.5922495"><ele>183.0</ele><time>2026-05-05T07:41:32.595Z</time></trkpt><trkpt lat="44.2392162" lon="15.5926067"><ele>184.0</ele><time>2026-05-05T07:41:33.595Z</time></trkpt><trkpt lat="44.2391631" lon="15.5929661"><ele>185.0</ele><time>2026-05-05T07:41:34.596Z</time></trkpt><trkpt lat="44.2391159" lon="15.5933334"><ele>186.0</ele><time>2026-05-05T07:41:35.596Z</time></trkpt><trkpt lat="44.2390689" lon="15.5937019"><ele>187.0</ele><time>2026-05-05T07:41:36.595Z</time></trkpt><trkpt lat="44.239018" lon="15.5940764"><ele>187.0</ele><time>2026-05-05T07:41:37.595Z</time></trkpt><trkpt lat="44.238976" lon="15.5944497"><ele>187.0</ele><time>2026-05-05T07:41:38.595Z</time></trkpt><trkpt lat="44.2389321" lon="15.5948174"><ele>186.5</ele><time>2026-05-05T07:41:39.596Z</time></trkpt><trkpt lat="44.2388886" lon="15.5951857"><ele>186.0</ele><time>2026-05-05T07:41:40.595Z</time></trkpt><trkpt lat="44.2388483" lon="15.595556"><ele>187.5</ele><time>2026-05-05T07:41:41.596Z</time></trkpt><trkpt lat="44.2388108" lon="15.5959226"><ele>189.0</ele><time>2026-05-05T07:41:42.596Z</time></trkpt><trkpt lat="44.2387704" lon="15.5962912"><ele>191.0</ele><time>2026-05-05T07:41:43.595Z</time></trkpt><trkpt lat="44.2387291" lon="15.5966629"><ele>193.0</ele><time>2026-05-05T07:41:44.595Z</time></trkpt><trkpt lat="44.2386939" lon="15.5970322"><ele>195.5</ele><time>2026-05-05T07:41:45.596Z</time></trkpt><trkpt lat="44.2386583" lon="15.5974036"><ele>198.0</ele><time>2026-05-05T07:41:46.596Z</time></trkpt><trkpt lat="44.2386297" lon="15.59777"><ele>199.0</ele><time>2026-05-05T07:41:47.596Z</time></trkpt><trkpt lat="44.2385972" lon="15.5981419"><ele>200.0</ele><time>2026-05-05T07:41:48.595Z</time></trkpt><trkpt lat="44.2385665" lon="15.5985094"><ele>200.5</ele><time>2026-05-05T07:41:49.596Z</time></trkpt><trkpt lat="44.2385412" lon="15.59888"><ele>201.0</ele><time>2026-05-05T07:41:50.596Z</time></trkpt><trkpt lat="44.2385116" lon="15.5992508"><ele>203.0</ele><time>2026-05-05T07:41:51.595Z</time></trkpt><trkpt lat="44.2384749" lon="15.5996185"><ele>205.0</ele><time>2026-05-05T07:41:52.596Z</time></trkpt><trkpt lat="44.2384496" lon="15.5999872"><ele>206.5</ele><time>2026-05-05T07:41:53.595Z</time></trkpt><trkpt lat="44.2384187" lon="15.6003569"><ele>208.0</ele><time>2026-05-05T07:41:54.595Z</time></trkpt><trkpt lat="44.2384011" lon="15.6007262"><ele>208.0</ele><time>2026-05-05T07:41:55.596Z</time></trkpt><trkpt lat="44.2383841" lon="15.6011039"><ele>208.0</ele><time>2026-05-05T07:41:56.595Z</time></trkpt><trkpt lat="44.2383666" lon="15.6014812"><ele>206.0</ele><time>2026-05-05T07:41:57.595Z</time></trkpt><trkpt lat="44.238366" lon="15.6018533"><ele>204.0</ele><time>2026-05-05T07:41:58.596Z</time></trkpt><trkpt lat="44.2383713" lon="15.6022414"><ele>203.5</ele><time>2026-05-05T07:41:59.596Z</time></trkpt><trkpt lat="44.2383773" lon="15.6026189"><ele>203.0</ele><time>2026-05-05T07:42:00.596Z</time></trkpt><trkpt lat="44.2384095" lon="15.6029946"><ele>204.0</ele><time>2026-05-05T07:42:01.595Z</time></trkpt><trkpt lat="44.2384491" lon="15.6033702"><ele>205.0</ele><time>2026-05-05T07:42:02.596Z</time></trkpt><trkpt lat="44.2384751" lon="15.6037408"><ele>207.0</ele><time>2026-05-05T07:42:03.595Z</time></trkpt><trkpt lat="44.2385422" lon="15.6041066"><ele>209.0</ele><time>2026-05-05T07:42:04.596Z</time></trkpt><trkpt lat="44.2385962" lon="15.6044778"><ele>211.0</ele><time>2026-05-05T07:42:05.595Z</time></trkpt><trkpt lat="44.2386886" lon="15.6048229"><ele>213.0</ele><time>2026-05-05T07:42:06.595Z</time></trkpt><trkpt lat="44.2387764" lon="15.6051664"><ele>214.0</ele><time>2026-05-05T07:42:07.596Z</time></trkpt><trkpt lat="44.2388841" lon="15.6054972"><ele>215.0</ele><time>2026-05-05T07:42:08.595Z</time></trkpt><trkpt lat="44.2390006" lon="15.6058242"><ele>217.0</ele><time>2026-05-05T07:42:09.595Z</time></trkpt><trkpt lat="44.2391201" lon="15.6061449"><ele>219.0</ele><time>2026-05-05T07:42:10.596Z</time></trkpt><trkpt lat="44.2392385" lon="15.6064485"><ele>220.0</ele><time>2026-05-05T07:42:11.595Z</time></trkpt><trkpt lat="44.2393964" lon="15.6067451"><ele>221.0</ele><time>2026-05-05T07:42:12.595Z</time></trkpt><trkpt lat="44.2395886" lon="15.6070246"><ele>221.0</ele><time>2026-05-05T07:42:13.596Z</time></trkpt><trkpt lat="44.2397689" lon="15.6072988"><ele>221.0</ele><time>2026-05-05T07:42:14.596Z</time></trkpt><trkpt lat="44.239936" lon="15.6075692"><ele>225.0</ele><time>2026-05-05T07:42:15.596Z</time></trkpt><trkpt lat="44.2401157" lon="15.6078155"><ele>229.0</ele><time>2026-05-05T07:42:16.595Z</time></trkpt><trkpt lat="44.2403064" lon="15.6080537"><ele>231.0</ele><time>2026-05-05T07:42:17.596Z</time></trkpt><trkpt lat="44.2405123" lon="15.6082621"><ele>233.0</ele><time>2026-05-05T07:42:18.595Z</time></trkpt><trkpt lat="44.2407462" lon="15.6084634"><ele>239.0</ele><time>2026-05-05T07:42:19.596Z</time></trkpt><trkpt lat="44.2409586" lon="15.608663"><ele>245.0</ele><time>2026-05-05T07:42:20.596Z</time></trkpt><trkpt lat="44.2411809" lon="15.6088604"><ele>245.0</ele><time>2026-05-05T07:42:21.596Z</time></trkpt><trkpt lat="44.2414143" lon="15.6090229"><ele>245.0</ele><time>2026-05-05T07:42:22.596Z</time></trkpt><trkpt lat="44.2416551" lon="15.6091801"><ele>243.5</ele><time>2026-05-05T07:42:23.595Z</time></trkpt><trkpt lat="44.2418997" lon="15.6093172"><ele>242.0</ele><time>2026-05-05T07:42:24.596Z</time></trkpt><trkpt lat="44.2421494" lon="15.6094361"><ele>243.0</ele><time>2026-05-05T07:42:25.595Z</time></trkpt><trkpt lat="44.2424029" lon="15.6095545"><ele>244.0</ele><time>2026-05-05T07:42:26.596Z</time></trkpt><trkpt lat="44.2426635" lon="15.6096399"><ele>244.0</ele><time>2026-05-05T07:42:27.596Z</time></trkpt><trkpt lat="44.242924" lon="15.6097125"><ele>244.0</ele><time>2026-05-05T07:42:28.595Z</time></trkpt><trkpt lat="44.2431888" lon="15.609764"><ele>245.5</ele><time>2026-05-05T07:42:29.596Z</time></trkpt><trkpt lat="44.2434545" lon="15.6098013"><ele>247.0</ele><time>2026-05-05T07:42:30.595Z</time></trkpt><trkpt lat="44.243717" lon="15.6098169"><ele>255.0</ele><time>2026-05-05T07:42:31.595Z</time></trkpt><trkpt lat="44.2439815" lon="15.6098173"><ele>263.0</ele><time>2026-05-05T07:42:32.595Z</time></trkpt><trkpt lat="44.2442475" lon="15.6097935"><ele>263.0</ele><time>2026-05-05T07:42:33.594Z</time></trkpt><trkpt lat="44.2445173" lon="15.6097559"><ele>263.0</ele><time>2026-05-05T07:42:34.595Z</time></trkpt><trkpt lat="44.2447858" lon="15.6097076"><ele>267.5</ele><time>2026-05-05T07:42:35.596Z</time></trkpt><trkpt lat="44.2450505" lon="15.6096311"><ele>272.0</ele><time>2026-05-05T07:42:36.595Z</time></trkpt><trkpt lat="44.2453152" lon="15.6095362"><ele>273.0</ele><time>2026-05-05T07:42:37.596Z</time></trkpt><trkpt lat="44.2455688" lon="15.6094422"><ele>274.0</ele><time>2026-05-05T07:42:38.595Z</time></trkpt><trkpt lat="44.2458255" lon="15.6093244"><ele>274.0</ele><time>2026-05-05T07:42:39.595Z</time></trkpt><trkpt lat="44.2460816" lon="15.6091772"><ele>274.0</ele><time>2026-05-05T07:42:40.595Z</time></trkpt><trkpt lat="44.2463263" lon="15.60902"><ele>272.0</ele><time>2026-05-05T07:42:41.596Z</time></trkpt><trkpt lat="44.2465673" lon="15.6088364"><ele>270.0</ele><time>2026-05-05T07:42:42.596Z</time></trkpt><trkpt lat="44.2467983" lon="15.608639"><ele>270.0</ele><time>2026-05-05T07:42:43.595Z</time></trkpt><trkpt lat="44.2470241" lon="15.6084322"><ele>270.0</ele><time>2026-05-05T07:42:44.596Z</time></trkpt><trkpt lat="44.247239" lon="15.6082054"><ele>275.0</ele><time>2026-05-05T07:42:45.596Z</time></trkpt><trkpt lat="44.2474546" lon="15.607961"><ele>280.0</ele><time>2026-05-05T07:42:46.595Z</time></trkpt><trkpt lat="44.2476639" lon="15.607706"><ele>280.0</ele><time>2026-05-05T07:42:47.595Z</time></trkpt><trkpt lat="44.2478653" lon="15.6074341"><ele>280.0</ele><time>2026-05-05T07:42:48.596Z</time></trkpt><trkpt lat="44.2480626" lon="15.6071516"><ele>290.0</ele><time>2026-05-05T07:42:49.595Z</time></trkpt><trkpt lat="44.2482624" lon="15.6068595"><ele>300.0</ele><time>2026-05-05T07:42:50.595Z</time></trkpt><trkpt lat="44.2484444" lon="15.6065701"><ele>300.0</ele><time>2026-05-05T07:42:51.595Z</time></trkpt><trkpt lat="44.2486118" lon="15.6062648"><ele>300.0</ele><time>2026-05-05T07:42:52.596Z</time></trkpt><trkpt lat="44.2487835" lon="15.6059668"><ele>308.0</ele><time>2026-05-05T07:42:53.595Z</time></trkpt><trkpt lat="44.2489686" lon="15.6056714"><ele>316.0</ele><time>2026-05-05T07:42:54.595Z</time></trkpt><trkpt lat="44.2491301" lon="15.6053704"><ele>302.5</ele><time>2026-05-05T07:42:55.596Z</time></trkpt><trkpt lat="44.249322" lon="15.6050939"><ele>289.0</ele><time>2026-05-05T07:42:56.596Z</time></trkpt><trkpt lat="44.2495121" lon="15.6048182"><ele>289.0</ele><time>2026-05-05T07:42:57.596Z</time></trkpt><trkpt lat="44.2497037" lon="15.6045576"><ele>289.0</ele><time>2026-05-05T07:42:58.596Z</time></trkpt><trkpt lat="44.2499332" lon="15.6043098"><ele>295.5</ele><time>2026-05-05T07:42:59.596Z</time></trkpt><trkpt lat="44.2501289" lon="15.6040613"><ele>302.0</ele><time>2026-05-05T07:43:00.595Z</time></trkpt><trkpt lat="44.2503484" lon="15.603825"><ele>300.0</ele><time>2026-05-05T07:43:01.596Z</time></trkpt><trkpt lat="44.2505871" lon="15.6036362"><ele>298.0</ele><time>2026-05-05T07:43:02.596Z</time></trkpt><trkpt lat="44.2507938" lon="15.6034083"><ele>298.0</ele><time>2026-05-05T07:43:03.596Z</time></trkpt><trkpt lat="44.2510761" lon="15.6032569"><ele>298.0</ele><time>2026-05-05T07:43:04.596Z</time></trkpt><trkpt lat="44.2513271" lon="15.6030858"><ele>296.5</ele><time>2026-05-05T07:43:05.595Z</time></trkpt><trkpt lat="44.2515714" lon="15.6029241"><ele>295.0</ele><time>2026-05-05T07:43:06.595Z</time></trkpt><trkpt lat="44.2518145" lon="15.6027663"><ele>295.0</ele><time>2026-05-05T07:43:07.595Z</time></trkpt><trkpt lat="44.2520462" lon="15.6026053"><ele>295.0</ele><time>2026-05-05T07:43:08.596Z</time></trkpt><trkpt lat="44.2522763" lon="15.602451"><ele>305.5</ele><time>2026-05-05T07:43:09.595Z</time></trkpt><trkpt lat="44.2524975" lon="15.6022996"><ele>316.0</ele><time>2026-05-05T07:43:10.596Z</time></trkpt><trkpt lat="44.2527121" lon="15.6021559"><ele>316.0</ele><time>2026-05-05T07:43:11.596Z</time></trkpt><trkpt lat="44.2529263" lon="15.6020077"><ele>316.0</ele><time>2026-05-05T07:43:12.595Z</time></trkpt><trkpt lat="44.2531337" lon="15.6018475"><ele>320.5</ele><time>2026-05-05T07:43:13.595Z</time></trkpt><trkpt lat="44.2533406" lon="15.6016742"><ele>325.0</ele><time>2026-05-05T07:43:14.595Z</time></trkpt><trkpt lat="44.2535377" lon="15.6014896"><ele>325.0</ele><time>2026-05-05T07:43:15.596Z</time></trkpt><trkpt lat="44.2537224" lon="15.6012915"><ele>325.0</ele><time>2026-05-05T07:43:16.596Z</time></trkpt><trkpt lat="44.2539102" lon="15.6010902"><ele>329.0</ele><time>2026-05-05T07:43:17.596Z</time></trkpt><trkpt lat="44.2540867" lon="15.6008809"><ele>333.0</ele><time>2026-05-05T07:43:18.595Z</time></trkpt><trkpt lat="44.2542567" lon="15.6006751"><ele>333.0</ele><time>2026-05-05T07:43:19.596Z</time></trkpt><trkpt lat="44.2544271" lon="15.600457"><ele>333.0</ele><time>2026-05-05T07:43:20.595Z</time></trkpt><trkpt lat="44.2545871" lon="15.6002338"><ele>327.0</ele><time>2026-05-05T07:43:21.595Z</time></trkpt><trkpt lat="44.2547432" lon="15.5999974"><ele>321.0</ele><time>2026-05-05T07:43:22.596Z</time></trkpt><trkpt lat="44.2548941" lon="15.5997557"><ele>323.3333333333333</ele><time>2026-05-05T07:43:23.595Z</time></trkpt><trkpt lat="44.2550293" lon="15.5995213"><ele>325.66666666666663</ele><time>2026-05-05T07:43:24.596Z</time></trkpt><trkpt lat="44.2551627" lon="15.5992867"><ele>328.0</ele><time>2026-05-05T07:43:25.595Z</time></trkpt><trkpt lat="44.2552837" lon="15.5990371"><ele>328.0</ele><time>2026-05-05T07:43:26.596Z</time></trkpt><trkpt lat="44.2554004" lon="15.5987832"><ele>328.0</ele><time>2026-05-05T07:43:27.595Z</time></trkpt><trkpt lat="44.2555091" lon="15.5985268"><ele>328.0</ele><time>2026-05-05T07:43:28.596Z</time></trkpt><trkpt lat="44.255613" lon="15.5982525"><ele>331.66666666666663</ele><time>2026-05-05T07:43:29.595Z</time></trkpt><trkpt lat="44.2557114" lon="15.5979795"><ele>335.3333333333333</ele><time>2026-05-05T07:43:30.596Z</time></trkpt><trkpt lat="44.2558032" lon="15.5977017"><ele>339.0</ele><time>2026-05-05T07:43:31.595Z</time></trkpt><trkpt lat="44.2559042" lon="15.5973951"><ele>341.5</ele><time>2026-05-05T07:43:32.596Z</time></trkpt><trkpt lat="44.2559981" lon="15.597092"><ele>344.0</ele><time>2026-05-05T07:43:33.596Z</time></trkpt><trkpt lat="44.2560982" lon="15.5967927"><ele>344.0</ele><time>2026-05-05T07:43:34.595Z</time></trkpt><trkpt lat="44.2561954" lon="15.5964918"><ele>344.0</ele><time>2026-05-05T07:43:35.595Z</time></trkpt><trkpt lat="44.2562891" lon="15.5961707"><ele>340.5</ele><time>2026-05-05T07:43:36.595Z</time></trkpt><trkpt lat="44.2563702" lon="15.5958596"><ele>337.0</ele><time>2026-05-05T07:43:37.596Z</time></trkpt><trkpt lat="44.2564499" lon="15.5955409"><ele>347.0</ele><time>2026-05-05T07:43:38.595Z</time></trkpt><trkpt lat="44.2565304" lon="15.5952136"><ele>357.0</ele><time>2026-05-05T07:43:39.596Z</time></trkpt><trkpt lat="44.2566238" lon="15.5949016"><ele>357.0</ele><time>2026-05-05T07:43:40.595Z</time></trkpt><trkpt lat="44.256702" lon="15.5945749"><ele>357.0</ele><time>2026-05-05T07:43:41.596Z</time></trkpt><trkpt lat="44.2567787" lon="15.5942577"><ele>354.0</ele><time>2026-05-05T07:43:42.596Z</time></trkpt><trkpt lat="44.2568607" lon="15.5939477"><ele>351.0</ele><time>2026-05-05T07:43:43.595Z</time></trkpt><trkpt lat="44.2569502" lon="15.5936415"><ele>351.0</ele><time>2026-05-05T07:43:44.596Z</time></trkpt><trkpt lat="44.257039" lon="15.5933424"><ele>351.0</ele><time>2026-05-05T07:43:45.596Z</time></trkpt><trkpt lat="44.257132" lon="15.593042"><ele>359.0</ele><time>2026-05-05T07:43:46.595Z</time></trkpt><trkpt lat="44.2572342" lon="15.5927438"><ele>367.0</ele><time>2026-05-05T07:43:47.596Z</time></trkpt><trkpt lat="44.257335" lon="15.5924386"><ele>367.0</ele><time>2026-05-05T07:43:48.596Z</time></trkpt><trkpt lat="44.2574092" lon="15.5921263"><ele>367.0</ele><time>2026-05-05T07:43:49.595Z</time></trkpt><trkpt lat="44.2574672" lon="15.5918103"><ele>368.0</ele><time>2026-05-05T07:43:50.595Z</time></trkpt><trkpt lat="44.2581639" lon="15.5893167"><ele>368.0</ele><time>2026-05-05T07:43:57.595Z</time></trkpt><trkpt lat="44.2582905" lon="15.5894232"><ele>368.0</ele><time>2026-05-05T07:43:58.595Z</time></trkpt><trkpt lat="44.2585819" lon="15.5892137"><ele>368.0</ele><time>2026-05-05T07:43:59.596Z</time></trkpt><trkpt lat="44.2588122" lon="15.5890037"><ele>368.0</ele><time>2026-05-05T07:44:00.595Z</time></trkpt><trkpt lat="44.2590539" lon="15.5887974"><ele>369.0</ele><time>2026-05-05T07:44:01.596Z</time></trkpt><trkpt lat="44.2592714" lon="15.5886071"><ele>370.0</ele><time>2026-05-05T07:44:02.596Z</time></trkpt><trkpt lat="44.2595037" lon="15.5884412"><ele>370.0</ele><time>2026-05-05T07:44:03.595Z</time></trkpt><trkpt lat="44.2597431" lon="15.588307"><ele>370.0</ele><time>2026-05-05T07:44:04.595Z</time></trkpt><trkpt lat="44.2599777" lon="15.5881861"><ele>371.5</ele><time>2026-05-05T07:44:05.596Z</time></trkpt><trkpt lat="44.2602203" lon="15.5880954"><ele>373.0</ele><time>2026-05-05T07:44:06.595Z</time></trkpt><trkpt lat="44.2604597" lon="15.5880211"><ele>374.0</ele><time>2026-05-05T07:44:07.596Z</time></trkpt><trkpt lat="44.2607048" lon="15.5879779"><ele>375.0</ele><time>2026-05-05T07:44:08.595Z</time></trkpt><trkpt lat="44.2609495" lon="15.587958"><ele>375.0</ele><time>2026-05-05T07:44:09.595Z</time></trkpt><trkpt lat="44.2611891" lon="15.5879653"><ele>375.0</ele><time>2026-05-05T07:44:10.596Z</time></trkpt><trkpt lat="44.2614313" lon="15.5880011"><ele>376.5</ele><time>2026-05-05T07:44:11.596Z</time></trkpt><trkpt lat="44.2616691" lon="15.5880617"><ele>378.0</ele><time>2026-05-05T07:44:12.596Z</time></trkpt><trkpt lat="44.2619038" lon="15.588148"><ele>378.0</ele><time>2026-05-05T07:44:13.596Z</time></trkpt><trkpt lat="44.2621329" lon="15.5882613"><ele>378.0</ele><time>2026-05-05T07:44:14.595Z</time></trkpt><trkpt lat="44.2623542" lon="15.5883914"><ele>377.5</ele><time>2026-05-05T07:44:15.596Z</time></trkpt><trkpt lat="44.2625702" lon="15.5885482"><ele>377.0</ele><time>2026-05-05T07:44:16.596Z</time></trkpt><trkpt lat="44.2627769" lon="15.5887237"><ele>377.0</ele><time>2026-05-05T07:44:17.595Z</time></trkpt><trkpt lat="44.2629728" lon="15.5889275"><ele>377.0</ele><time>2026-05-05T07:44:18.595Z</time></trkpt><trkpt lat="44.2631533" lon="15.589145"><ele>380.0</ele><time>2026-05-05T07:44:19.596Z</time></trkpt><trkpt lat="44.2633168" lon="15.5893858"><ele>383.0</ele><time>2026-05-05T07:44:20.596Z</time></trkpt><trkpt lat="44.2634633" lon="15.5896408"><ele>383.0</ele><time>2026-05-05T07:44:21.596Z</time></trkpt><trkpt lat="44.2636003" lon="15.5899122"><ele>383.0</ele><time>2026-05-05T07:44:22.595Z</time></trkpt><trkpt lat="44.2637152" lon="15.5901982"><ele>383.5</ele><time>2026-05-05T07:44:23.595Z</time></trkpt><trkpt lat="44.2638136" lon="15.5904917"><ele>384.0</ele><time>2026-05-05T07:44:24.595Z</time></trkpt><trkpt lat="44.2639029" lon="15.5907952"><ele>387.5</ele><time>2026-05-05T07:44:25.596Z</time></trkpt><trkpt lat="44.2639696" lon="15.5911038"><ele>391.0</ele><time>2026-05-05T07:44:26.596Z</time></trkpt><trkpt lat="44.2640204" lon="15.5914187"><ele>394.5</ele><time>2026-05-05T07:44:27.596Z</time></trkpt><trkpt lat="44.2640542" lon="15.5917364"><ele>398.0</ele><time>2026-05-05T07:44:28.595Z</time></trkpt><trkpt lat="44.2640743" lon="15.5920559"><ele>400.66666666666663</ele><time>2026-05-05T07:44:29.596Z</time></trkpt><trkpt lat="44.2640759" lon="15.5923736"><ele>403.33333333333337</ele><time>2026-05-05T07:44:30.595Z</time></trkpt><trkpt lat="44.2640638" lon="15.5926806"><ele>406.0</ele><time>2026-05-05T07:44:31.595Z</time></trkpt><trkpt lat="44.2640301" lon="15.5929676"><ele>404.33333333333337</ele><time>2026-05-05T07:44:32.596Z</time></trkpt><trkpt lat="44.2639902" lon="15.5932516"><ele>402.66666666666663</ele><time>2026-05-05T07:44:33.595Z</time></trkpt><trkpt lat="44.2639378" lon="15.5935305"><ele>401.0</ele><time>2026-05-05T07:44:34.596Z</time></trkpt><trkpt lat="44.2638762" lon="15.5938044"><ele>406.0</ele><time>2026-05-05T07:44:35.595Z</time></trkpt><trkpt lat="44.2637947" lon="15.5940703"><ele>411.0</ele><time>2026-05-05T07:44:36.595Z</time></trkpt><trkpt lat="44.2637006" lon="15.5943176"><ele>416.0</ele><time>2026-05-05T07:44:37.595Z</time></trkpt><trkpt lat="44.2595151" lon="15.6004476"><ele>421.0</ele><time>2026-05-05T07:45:01.596Z</time></trkpt><trkpt lat="44.2593924" lon="15.6007404"><ele>426.0</ele><time>2026-05-05T07:45:02.595Z</time></trkpt><trkpt lat="44.2592752" lon="15.6010311"><ele>430.5</ele><time>2026-05-05T07:45:03.596Z</time></trkpt><trkpt lat="44.2591666" lon="15.6013222"><ele>435.0</ele><time>2026-05-05T07:45:04.595Z</time></trkpt><trkpt lat="44.2590687" lon="15.6016188"><ele>435.0</ele><time>2026-05-05T07:45:05.596Z</time></trkpt><trkpt lat="44.2589693" lon="15.6019097"><ele>435.0</ele><time>2026-05-05T07:45:06.596Z</time></trkpt><trkpt lat="44.2588729" lon="15.6022064"><ele>427.5</ele><time>2026-05-05T07:45:07.595Z</time></trkpt><trkpt lat="44.2587689" lon="15.6024876"><ele>420.0</ele><time>2026-05-05T07:45:08.595Z</time></trkpt><trkpt lat="44.2586657" lon="15.6027789"><ele>419.5</ele><time>2026-05-05T07:45:09.596Z</time></trkpt><trkpt lat="44.258549" lon="15.6030501"><ele>419.0</ele><time>2026-05-05T07:45:10.595Z</time></trkpt><trkpt lat="44.2584278" lon="15.6033229"><ele>419.0</ele><time>2026-05-05T07:45:11.596Z</time></trkpt><trkpt lat="44.2582982" lon="15.6035939"><ele>419.0</ele><time>2026-05-05T07:45:12.596Z</time></trkpt><trkpt lat="44.2581607" lon="15.6038602"><ele>415.0</ele><time>2026-05-05T07:45:13.595Z</time></trkpt><trkpt lat="44.2580048" lon="15.6041062"><ele>411.0</ele><time>2026-05-05T07:45:14.596Z</time></trkpt><trkpt lat="44.2578449" lon="15.6043456"><ele>415.0</ele><time>2026-05-05T07:45:15.595Z</time></trkpt><trkpt lat="44.2576737" lon="15.6045707"><ele>419.0</ele><time>2026-05-05T07:45:16.596Z</time></trkpt><trkpt lat="44.2574864" lon="15.6047832"><ele>419.0</ele><time>2026-05-05T07:45:17.596Z</time></trkpt><trkpt lat="44.2572972" lon="15.6049818"><ele>419.0</ele><time>2026-05-05T07:45:18.596Z</time></trkpt><trkpt lat="44.2570998" lon="15.605166"><ele>427.0</ele><time>2026-05-05T07:45:19.596Z</time></trkpt><trkpt lat="44.2568943" lon="15.6053326"><ele>435.0</ele><time>2026-05-05T07:45:20.595Z</time></trkpt><trkpt lat="44.2566858" lon="15.6054837"><ele>435.0</ele><time>2026-05-05T07:45:21.595Z</time></trkpt><trkpt lat="44.2564693" lon="15.6056082"><ele>435.0</ele><time>2026-05-05T07:45:22.596Z</time></trkpt><trkpt lat="44.2562481" lon="15.6057195"><ele>438.0</ele><time>2026-05-05T07:45:23.596Z</time></trkpt><trkpt lat="44.2560326" lon="15.6058151"><ele>441.0</ele><time>2026-05-05T07:45:24.596Z</time></trkpt><trkpt lat="44.2558007" lon="15.6058838"><ele>434.5</ele><time>2026-05-05T07:45:25.595Z</time></trkpt><trkpt lat="44.2555706" lon="15.605945"><ele>428.0</ele><time>2026-05-05T07:45:26.596Z</time></trkpt><trkpt lat="44.2553413" lon="15.606006"><ele>428.0</ele><time>2026-05-05T07:45:27.595Z</time></trkpt><trkpt lat="44.2551083" lon="15.6060636"><ele>428.0</ele><time>2026-05-05T07:45:28.596Z</time></trkpt><trkpt lat="44.254878" lon="15.6061287"><ele>433.5</ele><time>2026-05-05T07:45:29.596Z</time></trkpt><trkpt lat="44.2546473" lon="15.6061897"><ele>439.0</ele><time>2026-05-05T07:45:30.596Z</time></trkpt><trkpt lat="44.2544176" lon="15.6062589"><ele>439.0</ele><time>2026-05-05T07:45:31.596Z</time></trkpt><trkpt lat="44.25419" lon="15.6063373"><ele>439.0</ele><time>2026-05-05T07:45:32.596Z</time></trkpt><trkpt lat="44.2539639" lon="15.6064304"><ele>430.5</ele><time>2026-05-05T07:45:33.595Z</time></trkpt><trkpt lat="44.2537438" lon="15.6065357"><ele>422.0</ele><time>2026-05-05T07:45:34.596Z</time></trkpt><trkpt lat="44.253519" lon="15.6066491"><ele>422.0</ele><time>2026-05-05T07:45:35.596Z</time></trkpt><trkpt lat="44.2533045" lon="15.6067883"><ele>422.0</ele><time>2026-05-05T07:45:36.596Z</time></trkpt><trkpt lat="44.2530888" lon="15.6069229"><ele>426.5</ele><time>2026-05-05T07:45:37.596Z</time></trkpt><trkpt lat="44.2528828" lon="15.6070767"><ele>431.0</ele><time>2026-05-05T07:45:38.596Z</time></trkpt><trkpt lat="44.2526778" lon="15.6072451"><ele>431.0</ele><time>2026-05-05T07:45:39.596Z</time></trkpt><trkpt lat="44.2524747" lon="15.6074228"><ele>431.0</ele><time>2026-05-05T07:45:40.596Z</time></trkpt><trkpt lat="44.2522796" lon="15.6076077"><ele>428.5</ele><time>2026-05-05T07:45:41.596Z</time></trkpt><trkpt lat="44.2520896" lon="15.6078047"><ele>426.0</ele><time>2026-05-05T07:45:42.596Z</time></trkpt><trkpt lat="44.2519021" lon="15.6080086"><ele>439.5</ele><time>2026-05-05T07:45:43.596Z</time></trkpt><trkpt lat="44.2517168" lon="15.6082148"><ele>453.0</ele><time>2026-05-05T07:45:44.596Z</time></trkpt><trkpt lat="44.2515323" lon="15.6084225"><ele>439.0</ele><time>2026-05-05T07:45:45.595Z</time></trkpt><trkpt lat="44.2539639" lon="15.6064304"><ele>430.5</ele><time>2026-05-05T07:45:33.595Z</time></trkpt><trkpt lat="44.2537438" lon="15.6065357"><ele>422.0</ele><time>2026-05-05T07:45:34.596Z</time></trkpt><trkpt lat="44.253519" lon="15.6066491"><ele>422.0</ele><time>2026-05-05T07:45:35.596Z</time></trkpt><trkpt lat="44.2533045" lon="15.6067883"><ele>422.0</ele><time>2026-05-05T07:45:36.596Z</time></trkpt><trkpt lat="44.2530888" lon="15.6069229"><ele>426.5</ele><time>2026-05-05T07:45:37.596Z</time></trkpt><trkpt lat="44.2528828" lon="15.6070767"><ele>431.0</ele><time>2026-05-05T07:45:38.596Z</time></trkpt><trkpt lat="44.2526778" lon="15.6072451"><ele>431.0</ele><time>2026-05-05T07:45:39.596Z</time></trkpt><trkpt lat="44.2524747" lon="15.6074228"><ele>431.0</ele><time>2026-05-05T07:45:40.596Z</time></trkpt><trkpt lat="44.2522796" lon="15.6076077"><ele>428.5</ele><time>2026-05-05T07:45:41.596Z</time></trkpt><trkpt lat="44.2520896" lon="15.6078047"><ele>426.0</ele><time>2026-05-05T07:45:42.596Z</time></trkpt><trkpt lat="44.2519021" lon="15.6080086"><ele>439.5</ele><time>2026-05-05T07:45:43.596Z</time></trkpt><trkpt lat="44.2517168" lon="15.6082148"><ele>453.0</ele><time>2026-05-05T07:45:44.596Z</time></trkpt><trkpt lat="44.2515323" lon="15.6084225"><ele>419.0</ele><time>2026-05-05T07:45:45.595Z</time></trkpt><trkpt lat="44.2497429" lon="15.6178796"><ele>436.5</ele><time>2026-05-05T07:46:15.595Z</time></trkpt><trkpt lat="44.2497924" lon="15.6182111"><ele>454.0</ele><time>2026-05-05T07:46:16.596Z</time></trkpt><trkpt lat="44.2498486" lon="15.6185495"><ele>449.5</ele><time>2026-05-05T07:46:17.595Z</time></trkpt><trkpt lat="44.2498827" lon="15.6188869"><ele>445.0</ele><time>2026-05-05T07:46:18.596Z</time></trkpt><trkpt lat="44.2499121" lon="15.6192192"><ele>446.5</ele><time>2026-05-05T07:46:19.596Z</time></trkpt><trkpt lat="44.2499294" lon="15.6195592"><ele>448.0</ele><time>2026-05-05T07:46:20.596Z</time></trkpt><trkpt lat="44.2499492" lon="15.6198997"><ele>448.0</ele><time>2026-05-05T07:46:21.596Z</time></trkpt><trkpt lat="44.2499604" lon="15.6202376"><ele>448.0</ele><time>2026-05-05T07:46:22.596Z</time></trkpt><trkpt lat="44.2499614" lon="15.6205796"><ele>448.0</ele><time>2026-05-05T07:46:23.596Z</time></trkpt><trkpt lat="44.2499558" lon="15.620926"><ele>448.0</ele><time>2026-05-05T07:46:24.595Z</time></trkpt><trkpt lat="44.2499442" lon="15.6212698"><ele>448.0</ele><time>2026-05-05T07:46:25.596Z</time></trkpt><trkpt lat="44.2499279" lon="15.6216154"><ele>448.0</ele><time>2026-05-05T07:46:26.596Z</time></trkpt><trkpt lat="44.2499079" lon="15.6219605"><ele>443.0</ele><time>2026-05-05T07:46:27.595Z</time></trkpt><trkpt lat="44.2498814" lon="15.6223055"><ele>438.0</ele><time>2026-05-05T07:46:28.595Z</time></trkpt><trkpt lat="44.2498488" lon="15.6226512"><ele>440.5</ele><time>2026-05-05T07:46:29.595Z</time></trkpt><trkpt lat="44.2498107" lon="15.622996"><ele>443.0</ele><time>2026-05-05T07:46:30.595Z</time></trkpt><trkpt lat="44.2497658" lon="15.6233347"><ele>433.0</ele><time>2026-05-05T07:46:31.596Z</time></trkpt><trkpt lat="44.2497149" lon="15.623681"><ele>423.0</ele><time>2026-05-05T07:46:32.595Z</time></trkpt><trkpt lat="44.2496594" lon="15.6240247"><ele>423.0</ele><time>2026-05-05T07:46:33.596Z</time></trkpt><trkpt lat="44.2495985" lon="15.6243658"><ele>423.0</ele><time>2026-05-05T07:46:34.595Z</time></trkpt><trkpt lat="44.2495308" lon="15.6247047"><ele>430.5</ele><time>2026-05-05T07:46:35.596Z</time></trkpt><trkpt lat="44.2494629" lon="15.6250391"><ele>438.0</ele><time>2026-05-05T07:46:36.595Z</time></trkpt><trkpt lat="44.2493952" lon="15.6253687"><ele>447.5</ele><time>2026-05-05T07:46:37.595Z</time></trkpt><trkpt lat="44.2493326" lon="15.6257"><ele>457.0</ele><time>2026-05-05T07:46:38.595Z</time></trkpt><trkpt lat="44.24927" lon="15.6260279"><ele>467.5</ele><time>2026-05-05T07:46:39.595Z</time></trkpt><trkpt lat="44.2492126" lon="15.6263554"><ele>478.0</ele><time>2026-05-05T07:46:40.596Z</time></trkpt><trkpt lat="44.2491591" lon="15.6266804"><ele>482.0</ele><time>2026-05-05T07:46:41.595Z</time></trkpt><trkpt lat="44.2491061" lon="15.6270026"><ele>486.0</ele><time>2026-05-05T07:46:42.596Z</time></trkpt><trkpt lat="44.2490558" lon="15.6273265"><ele>486.0</ele><time>2026-05-05T07:46:43.596Z</time></trkpt><trkpt lat="44.2490032" lon="15.6276509"><ele>486.0</ele><time>2026-05-05T07:46:44.595Z</time></trkpt><trkpt lat="44.2489543" lon="15.6279734"><ele>464.0</ele><time>2026-05-05T07:46:45.596Z</time></trkpt><trkpt lat="44.2489315" lon="15.6283008"><ele>442.0</ele><time>2026-05-05T07:46:46.596Z</time></trkpt><trkpt lat="44.2489041" lon="15.6286287"><ele>437.0</ele><time>2026-05-05T07:46:47.596Z</time></trkpt><trkpt lat="44.2488788" lon="15.6289603"><ele>432.0</ele><time>2026-05-05T07:46:48.595Z</time></trkpt><trkpt lat="44.2488569" lon="15.6292925"><ele>429.0</ele><time>2026-05-05T07:46:49.596Z</time></trkpt><trkpt lat="44.2488399" lon="15.6296267"><ele>426.0</ele><time>2026-05-05T07:46:50.595Z</time></trkpt><trkpt lat="44.2488316" lon="15.6299674"><ele>430.5</ele><time>2026-05-05T07:46:51.595Z</time></trkpt><trkpt lat="44.2488274" lon="15.6303096"><ele>435.0</ele><time>2026-05-05T07:46:52.595Z</time></trkpt><trkpt lat="44.2488302" lon="15.6306512"><ele>435.0</ele><time>2026-05-05T07:46:53.595Z</time></trkpt><trkpt lat="44.2488436" lon="15.6309952"><ele>435.0</ele><time>2026-05-05T07:46:54.596Z</time></trkpt><trkpt lat="44.2488653" lon="15.6313381"><ele>440.5</ele><time>2026-05-05T07:46:55.596Z</time></trkpt><trkpt lat="44.2488967" lon="15.6316817"><ele>446.0</ele><time>2026-05-05T07:46:56.595Z</time></trkpt><trkpt lat="44.2489331" lon="15.6320262"><ele>468.5</ele><time>2026-05-05T07:46:57.596Z</time></trkpt><trkpt lat="44.2489787" lon="15.6323703"><ele>491.0</ele><time>2026-05-05T07:46:58.595Z</time></trkpt><trkpt lat="44.2490331" lon="15.6327123"><ele>481.5</ele><time>2026-05-05T07:46:59.595Z</time></trkpt><trkpt lat="44.2490998" lon="15.6330535"><ele>472.0</ele><time>2026-05-05T07:47:00.595Z</time></trkpt><trkpt lat="44.2491754" lon="15.633394"><ele>462.5</ele><time>2026-05-05T07:47:01.596Z</time></trkpt><trkpt lat="44.2492597" lon="15.6337347"><ele>453.0</ele><time>2026-05-05T07:47:02.595Z</time></trkpt><trkpt lat="44.2493474" lon="15.6340686"><ele>453.0</ele><time>2026-05-05T07:47:03.596Z</time></trkpt><trkpt lat="44.2494393" lon="15.6343995"><ele>453.0</ele><time>2026-05-05T07:47:04.595Z</time></trkpt><trkpt lat="44.2495355" lon="15.6347282"><ele>452.5</ele><time>2026-05-05T07:47:05.596Z</time></trkpt><trkpt lat="44.249635" lon="15.6350567"><ele>452.0</ele><time>2026-05-05T07:47:06.596Z</time></trkpt><trkpt lat="44.2497379" lon="15.6353803"><ele>468.0</ele><time>2026-05-05T07:47:07.596Z</time></trkpt><trkpt lat="44.2498447" lon="15.6357049"><ele>484.0</ele><time>2026-05-05T07:47:08.596Z</time></trkpt><trkpt lat="44.2499627" lon="15.6360132"><ele>482.5</ele><time>2026-05-05T07:47:09.596Z</time></trkpt><trkpt lat="44.2500781" lon="15.6363237"><ele>481.0</ele><time>2026-05-05T07:47:10.595Z</time></trkpt><trkpt lat="44.2501995" lon="15.6366359"><ele>481.0</ele><time>2026-05-05T07:47:11.595Z</time></trkpt><trkpt lat="44.2503218" lon="15.6369343"><ele>481.0</ele><time>2026-05-05T07:47:12.595Z</time></trkpt><trkpt lat="44.2504481" lon="15.6372308"><ele>481.0</ele><time>2026-05-05T07:47:13.596Z</time></trkpt><trkpt lat="44.250573" lon="15.6375248"><ele>481.0</ele><time>2026-05-05T07:47:14.595Z</time></trkpt><trkpt lat="44.2506966" lon="15.6378248"><ele>485.5</ele><time>2026-05-05T07:47:15.595Z</time></trkpt><trkpt lat="44.2508186" lon="15.6381226"><ele>490.0</ele><time>2026-05-05T07:47:16.595Z</time></trkpt><trkpt lat="44.2509408" lon="15.6384195"><ele>483.5</ele><time>2026-05-05T07:47:17.595Z</time></trkpt><trkpt lat="44.2510609" lon="15.6387163"><ele>477.0</ele><time>2026-05-05T07:47:18.595Z</time></trkpt><trkpt lat="44.2511805" lon="15.6390138"><ele>477.0</ele><time>2026-05-05T07:47:19.596Z</time></trkpt><trkpt lat="44.25129" lon="15.6393191"><ele>477.0</ele><time>2026-05-05T07:47:20.595Z</time></trkpt><trkpt lat="44.2513964" lon="15.6396262"><ele>482.5</ele><time>2026-05-05T07:47:21.595Z</time></trkpt><trkpt lat="44.2514986" lon="15.6399292"><ele>488.0</ele><time>2026-05-05T07:47:22.596Z</time></trkpt><trkpt lat="44.2516028" lon="15.6402404"><ele>481.5</ele><time>2026-05-05T07:47:23.595Z</time></trkpt><trkpt lat="44.251696" lon="15.6405452"><ele>475.0</ele><time>2026-05-05T07:47:24.595Z</time></trkpt><trkpt lat="44.2517907" lon="15.6408426"><ele>471.5</ele><time>2026-05-05T07:47:25.596Z</time></trkpt><trkpt lat="44.2518804" lon="15.6411545"><ele>468.0</ele><time>2026-05-05T07:47:26.596Z</time></trkpt><trkpt lat="44.2519801" lon="15.6414672"><ele>468.0</ele><time>2026-05-05T07:47:27.596Z</time></trkpt><trkpt lat="44.2520603" lon="15.6417843"><ele>468.0</ele><time>2026-05-05T07:47:28.596Z</time></trkpt><trkpt lat="44.2521479" lon="15.6421035"><ele>464.5</ele><time>2026-05-05T07:47:29.595Z</time></trkpt><trkpt lat="44.2522591" lon="15.6424095"><ele>461.0</ele><time>2026-05-05T07:47:30.595Z</time></trkpt><trkpt lat="44.25237" lon="15.6427299"><ele>474.5</ele><time>2026-05-05T07:47:31.596Z</time></trkpt><trkpt lat="44.2524437" lon="15.643054"><ele>488.0</ele><time>2026-05-05T07:47:32.595Z</time></trkpt><trkpt lat="44.2525275" lon="15.643377"><ele>483.5</ele><time>2026-05-05T07:47:33.596Z</time></trkpt><trkpt lat="44.2526139" lon="15.64369"><ele>479.0</ele><time>2026-05-05T07:47:34.596Z</time></trkpt><trkpt lat="44.2527056" lon="15.6440077"><ele>479.0</ele><time>2026-05-05T07:47:35.596Z</time></trkpt><trkpt lat="44.2528083" lon="15.6443191"><ele>479.0</ele><time>2026-05-05T07:47:36.596Z</time></trkpt><trkpt lat="44.2529109" lon="15.64463"><ele>474.0</ele><time>2026-05-05T07:47:37.596Z</time></trkpt><trkpt lat="44.2530283" lon="15.644937"><ele>469.0</ele><time>2026-05-05T07:47:38.595Z</time></trkpt><trkpt lat="44.2531442" lon="15.6452369"><ele>485.5</ele><time>2026-05-05T07:47:39.596Z</time></trkpt><trkpt lat="44.2532663" lon="15.6455377"><ele>502.0</ele><time>2026-05-05T07:47:40.596Z</time></trkpt><trkpt lat="44.2533933" lon="15.6458341"><ele>502.0</ele><time>2026-05-05T07:47:41.596Z</time></trkpt><trkpt lat="44.2535261" lon="15.6461277"><ele>502.0</ele><time>2026-05-05T07:47:42.595Z</time></trkpt><trkpt lat="44.2536618" lon="15.6464177"><ele>503.5</ele><time>2026-05-05T07:47:43.595Z</time></trkpt><trkpt lat="44.2538031" lon="15.6467079"><ele>505.0</ele><time>2026-05-05T07:47:44.596Z</time></trkpt><trkpt lat="44.2539637" lon="15.646999"><ele>505.0</ele><time>2026-05-05T07:47:45.596Z</time></trkpt><trkpt lat="44.2541193" lon="15.6472816"><ele>505.0</ele><time>2026-05-05T07:47:46.596Z</time></trkpt><trkpt lat="44.2542752" lon="15.6475595"><ele>504.0</ele><time>2026-05-05T07:47:47.595Z</time></trkpt><trkpt lat="44.2544326" lon="15.6478346"><ele>503.0</ele><time>2026-05-05T07:47:48.596Z</time></trkpt><trkpt lat="44.2545999" lon="15.6480973"><ele>503.0</ele><time>2026-05-05T07:47:49.596Z</time></trkpt><trkpt lat="44.2547681" lon="15.6483613"><ele>503.0</ele><time>2026-05-05T07:47:50.595Z</time></trkpt><trkpt lat="44.2549322" lon="15.6486173"><ele>505.0</ele><time>2026-05-05T07:47:51.596Z</time></trkpt><trkpt lat="44.2550982" lon="15.6488571"><ele>507.0</ele><time>2026-05-05T07:47:52.596Z</time></trkpt><trkpt lat="44.2552756" lon="15.6490859"><ele>507.0</ele><time>2026-05-05T07:47:53.596Z</time></trkpt><trkpt lat="44.255453" lon="15.6493092"><ele>507.0</ele><time>2026-05-05T07:47:54.595Z</time></trkpt><trkpt lat="44.2556287" lon="15.6495314"><ele>515.5</ele><time>2026-05-05T07:47:55.595Z</time></trkpt><trkpt lat="44.2557997" lon="15.6497545"><ele>524.0</ele><time>2026-05-05T07:47:56.595Z</time></trkpt><trkpt lat="44.255971" lon="15.6499769"><ele>569.0</ele><time>2026-05-05T07:47:57.596Z</time></trkpt><trkpt lat="44.3039009" lon="15.6778979"><ele>568.0</ele><time>2026-05-05T07:51:39.595Z</time></trkpt><trkpt lat="44.3041618" lon="15.6779022"><ele>567.0</ele><time>2026-05-05T07:51:40.596Z</time></trkpt><trkpt lat="44.3044306" lon="15.6779232"><ele>567.0</ele><time>2026-05-05T07:51:41.596Z</time></trkpt><trkpt lat="44.3047104" lon="15.6779477"><ele>567.0</ele><time>2026-05-05T07:51:42.595Z</time></trkpt><trkpt lat="44.3049876" lon="15.6779753"><ele>565.0</ele><time>2026-05-05T07:51:43.595Z</time></trkpt><trkpt lat="44.3052727" lon="15.6780026"><ele>563.0</ele><time>2026-05-05T07:51:44.595Z</time></trkpt><trkpt lat="44.3055593" lon="15.6780316"><ele>561.5</ele><time>2026-05-05T07:51:45.595Z</time></trkpt><trkpt lat="44.3058484" lon="15.6780517"><ele>560.0</ele><time>2026-05-05T07:51:46.595Z</time></trkpt><trkpt lat="44.3061395" lon="15.6780738"><ele>559.5</ele><time>2026-05-05T07:51:47.596Z</time></trkpt><trkpt lat="44.3064369" lon="15.6780848"><ele>559.0</ele><time>2026-05-05T07:51:48.595Z</time></trkpt><trkpt lat="44.3067388" lon="15.6780907"><ele>559.0</ele><time>2026-05-05T07:51:49.596Z</time></trkpt><trkpt lat="44.3070415" lon="15.6780994"><ele>559.0</ele><time>2026-05-05T07:51:50.595Z</time></trkpt><trkpt lat="44.3073407" lon="15.6781074"><ele>557.5</ele><time>2026-05-05T07:51:51.595Z</time></trkpt><trkpt lat="44.3076362" lon="15.6781056"><ele>556.0</ele><time>2026-05-05T07:51:52.596Z</time></trkpt><trkpt lat="44.3079375" lon="15.6781082"><ele>554.0</ele><time>2026-05-05T07:51:53.595Z</time></trkpt><trkpt lat="44.3082372" lon="15.6781128"><ele>552.0</ele><time>2026-05-05T07:51:54.595Z</time></trkpt><trkpt lat="44.3085389" lon="15.6781196"><ele>552.0</ele><time>2026-05-05T07:51:55.595Z</time></trkpt><trkpt lat="44.308838" lon="15.6781235"><ele>552.0</ele><time>2026-05-05T07:51:56.596Z</time></trkpt><trkpt lat="44.3091409" lon="15.6781197"><ele>551.5</ele><time>2026-05-05T07:51:57.595Z</time></trkpt><trkpt lat="44.3094435" lon="15.6781154"><ele>551.0</ele><time>2026-05-05T07:51:58.596Z</time></trkpt><trkpt lat="44.3097469" lon="15.6781051"><ele>552.5</ele><time>2026-05-05T07:51:59.595Z</time></trkpt><trkpt lat="44.3100503" lon="15.6780921"><ele>554.0</ele><time>2026-05-05T07:52:00.596Z</time></trkpt><trkpt lat="44.3103566" lon="15.6780818"><ele>557.0</ele><time>2026-05-05T07:52:01.596Z</time></trkpt><trkpt lat="44.3106609" lon="15.6780621"><ele>560.0</ele><time>2026-05-05T07:52:02.595Z</time></trkpt><trkpt lat="44.3109613" lon="15.678039"><ele>560.0</ele><time>2026-05-05T07:52:03.596Z</time></trkpt><trkpt lat="44.3112656" lon="15.6780149"><ele>560.0</ele><time>2026-05-05T07:52:04.596Z</time></trkpt><trkpt lat="44.3115686" lon="15.6779946"><ele>566.5</ele><time>2026-05-05T07:52:05.595Z</time></trkpt><trkpt lat="44.3118731" lon="15.677967"><ele>573.0</ele><time>2026-05-05T07:52:06.595Z</time></trkpt><trkpt lat="44.3121753" lon="15.677942"><ele>570.5</ele><time>2026-05-05T07:52:07.595Z</time></trkpt><trkpt lat="44.3124766" lon="15.6779102"><ele>568.0</ele><time>2026-05-05T07:52:08.596Z</time></trkpt><trkpt lat="44.3127771" lon="15.6778673"><ele>557.0</ele><time>2026-05-05T07:52:09.595Z</time></trkpt><trkpt lat="44.3130765" lon="15.6778258"><ele>546.0</ele><time>2026-05-05T07:52:10.596Z</time></trkpt><trkpt lat="44.3133741" lon="15.677782"><ele>546.5</ele><time>2026-05-05T07:52:11.595Z</time></trkpt><trkpt lat="44.3136717" lon="15.6777387"><ele>547.0</ele><time>2026-05-05T07:52:12.595Z</time></trkpt><trkpt lat="44.3139694" lon="15.6776907"><ele>548.0</ele><time>2026-05-05T07:52:13.595Z</time></trkpt><trkpt lat="44.3142629" lon="15.6776434"><ele>549.0</ele><time>2026-05-05T07:52:14.596Z</time></trkpt><trkpt lat="44.3145576" lon="15.6775893"><ele>552.5</ele><time>2026-05-05T07:52:15.595Z</time></trkpt><trkpt lat="44.3148516" lon="15.6775325"><ele>556.0</ele><time>2026-05-05T07:52:16.595Z</time></trkpt><trkpt lat="44.3151465" lon="15.6774742"><ele>556.0</ele><time>2026-05-05T07:52:17.595Z</time></trkpt><trkpt lat="44.3154406" lon="15.6774096"><ele>556.0</ele><time>2026-05-05T07:52:18.596Z</time></trkpt><trkpt lat="44.3157338" lon="15.6773439"><ele>557.5</ele><time>2026-05-05T07:52:19.596Z</time></trkpt><trkpt lat="44.3160278" lon="15.6772765"><ele>559.0</ele><time>2026-05-05T07:52:20.596Z</time></trkpt><trkpt lat="44.3163174" lon="15.6772126"><ele>566.0</ele><time>2026-05-05T07:52:21.596Z</time></trkpt><trkpt lat="44.3166097" lon="15.6771439"><ele>573.0</ele><time>2026-05-05T07:52:22.596Z</time></trkpt><trkpt lat="44.3169026" lon="15.6770763"><ele>573.0</ele><time>2026-05-05T07:52:23.596Z</time></trkpt><trkpt lat="44.317197" lon="15.6770107"><ele>573.0</ele><time>2026-05-05T07:52:24.596Z</time></trkpt><trkpt lat="44.3174904" lon="15.676943"><ele>575.5</ele><time>2026-05-05T07:52:25.596Z</time></trkpt><trkpt lat="44.3177819" lon="15.6768704"><ele>578.0</ele><time>2026-05-05T07:52:26.596Z</time></trkpt><trkpt lat="44.3180749" lon="15.6767872"><ele>573.0</ele><time>2026-05-05T07:52:27.596Z</time></trkpt><trkpt lat="44.3183661" lon="15.6767051"><ele>568.0</ele><time>2026-05-05T07:52:28.595Z</time></trkpt><trkpt lat="44.3186548" lon="15.6766189"><ele>564.0</ele><time>2026-05-05T07:52:29.596Z</time></trkpt><trkpt lat="44.3189392" lon="15.6765296"><ele>560.0</ele><time>2026-05-05T07:52:30.595Z</time></trkpt><trkpt lat="44.3192229" lon="15.6764359"><ele>560.0</ele><time>2026-05-05T07:52:31.596Z</time></trkpt><trkpt lat="44.3195041" lon="15.6763453"><ele>560.0</ele><time>2026-05-05T07:52:32.595Z</time></trkpt><trkpt lat="44.3197868" lon="15.6762374"><ele>562.5</ele><time>2026-05-05T07:52:33.596Z</time></trkpt><trkpt lat="44.3200746" lon="15.6761384"><ele>565.0</ele><time>2026-05-05T07:52:34.595Z</time></trkpt><trkpt lat="44.3203565" lon="15.6760309"><ele>564.5</ele><time>2026-05-05T07:52:35.595Z</time></trkpt><trkpt lat="44.3206381" lon="15.6759268"><ele>564.0</ele><time>2026-05-05T07:52:36.595Z</time></trkpt><trkpt lat="44.3209254" lon="15.6758176"><ele>564.0</ele><time>2026-05-05T07:52:37.596Z</time></trkpt><trkpt lat="44.3212119" lon="15.6757115"><ele>564.0</ele><time>2026-05-05T07:52:38.596Z</time></trkpt><trkpt lat="44.3214941" lon="15.6755988"><ele>564.0</ele><time>2026-05-05T07:52:39.596Z</time></trkpt><trkpt lat="44.3217843" lon="15.6754658"><ele>564.0</ele><time>2026-05-05T07:52:40.595Z</time></trkpt><trkpt lat="44.3220695" lon="15.6753464"><ele>566.0</ele><time>2026-05-05T07:52:41.596Z</time></trkpt><trkpt lat="44.3223576" lon="15.6752236"><ele>568.0</ele><time>2026-05-05T07:52:42.595Z</time></trkpt><trkpt lat="44.3226389" lon="15.6750983"><ele>568.0</ele><time>2026-05-05T07:52:43.596Z</time></trkpt><trkpt lat="44.3229184" lon="15.6749722"><ele>568.0</ele><time>2026-05-05T07:52:44.595Z</time></trkpt><trkpt lat="44.3232057" lon="15.6748437"><ele>562.5</ele><time>2026-05-05T07:52:45.596Z</time></trkpt><trkpt lat="44.3234835" lon="15.6747037"><ele>557.0</ele><time>2026-05-05T07:52:46.595Z</time></trkpt><trkpt lat="44.3237639" lon="15.6745649"><ele>562.0</ele><time>2026-05-05T07:52:47.595Z</time></trkpt><trkpt lat="44.324046" lon="15.6744262"><ele>567.0</ele><time>2026-05-05T07:52:48.596Z</time></trkpt><trkpt lat="44.3243299" lon="15.674285"><ele>567.0</ele><time>2026-05-05T07:52:49.595Z</time></trkpt><trkpt lat="44.3246118" lon="15.6741383"><ele>567.0</ele><time>2026-05-05T07:52:50.595Z</time></trkpt><trkpt lat="44.3248944" lon="15.673977"><ele>567.5</ele><time>2026-05-05T07:52:51.596Z</time></trkpt><trkpt lat="44.3251783" lon="15.6738203"><ele>568.0</ele><time>2026-05-05T07:52:52.595Z</time></trkpt><trkpt lat="44.3254576" lon="15.6736649"><ele>566.5</ele><time>2026-05-05T07:52:53.596Z</time></trkpt><trkpt lat="44.3257392" lon="15.6735053"><ele>565.0</ele><time>2026-05-05T07:52:54.596Z</time></trkpt><trkpt lat="44.3260147" lon="15.673341"><ele>565.0</ele><time>2026-05-05T07:52:55.595Z</time></trkpt><trkpt lat="44.3262876" lon="15.6731637"><ele>565.0</ele><time>2026-05-05T07:52:56.595Z</time></trkpt><trkpt lat="44.326555" lon="15.6729868"><ele>560.0</ele><time>2026-05-05T07:52:57.595Z</time></trkpt><trkpt lat="44.3268229" lon="15.6728043"><ele>555.0</ele><time>2026-05-05T07:52:58.596Z</time></trkpt><trkpt lat="44.3270913" lon="15.6726163"><ele>555.0</ele><time>2026-05-05T07:52:59.596Z</time></trkpt><trkpt lat="44.3273559" lon="15.6724173"><ele>555.0</ele><time>2026-05-05T07:53:00.596Z</time></trkpt><trkpt lat="44.3276182" lon="15.6721853"><ele>555.0</ele><time>2026-05-05T07:53:01.596Z</time></trkpt><trkpt lat="44.3278746" lon="15.6719507"><ele>555.0</ele><time>2026-05-05T07:53:02.595Z</time></trkpt><trkpt lat="44.3281219" lon="15.6717135"><ele>559.5</ele><time>2026-05-05T07:53:03.595Z</time></trkpt><trkpt lat="44.3283631" lon="15.6714647"><ele>564.0</ele><time>2026-05-05T07:53:04.595Z</time></trkpt><trkpt lat="44.3285995" lon="15.6712112"><ele>565.0</ele><time>2026-05-05T07:53:05.596Z</time></trkpt><trkpt lat="44.3288303" lon="15.6709506"><ele>566.0</ele><time>2026-05-05T07:53:06.595Z</time></trkpt><trkpt lat="44.3290528" lon="15.6706791"><ele>566.0</ele><time>2026-05-05T07:53:07.595Z</time></trkpt><trkpt lat="44.3292673" lon="15.6703962"><ele>566.0</ele><time>2026-05-05T07:53:08.596Z</time></trkpt><trkpt lat="44.3294786" lon="15.670105"><ele>569.0</ele><time>2026-05-05T07:53:09.596Z</time></trkpt><trkpt lat="44.3296919" lon="15.6698041"><ele>572.0</ele><time>2026-05-05T07:53:10.595Z</time></trkpt><trkpt lat="44.3299111" lon="15.6694956"><ele>567.5</ele><time>2026-05-05T07:53:11.596Z</time></trkpt><trkpt lat="44.3300818" lon="15.6691743"><ele>563.0</ele><time>2026-05-05T07:53:12.595Z</time></trkpt><trkpt lat="44.3302677" lon="15.6688635"><ele>559.0</ele><time>2026-05-05T07:53:13.595Z</time></trkpt><trkpt lat="44.3304517" lon="15.6685482"><ele>555.0</ele><time>2026-05-05T07:53:14.596Z</time></trkpt><trkpt lat="44.3306089" lon="15.6681868"><ele>564.5</ele><time>2026-05-05T07:53:15.595Z</time></trkpt><trkpt lat="44.3307641" lon="15.6678395"><ele>574.0</ele><time>2026-05-05T07:53:16.596Z</time></trkpt><trkpt lat="44.330919" lon="15.6674842"><ele>574.0</ele><time>2026-05-05T07:53:17.596Z</time></trkpt><trkpt lat="44.3310544" lon="15.6671181"><ele>574.0</ele><time>2026-05-05T07:53:18.595Z</time></trkpt><trkpt lat="44.3311862" lon="15.6667528"><ele>575.5</ele><time>2026-05-05T07:53:19.596Z</time></trkpt><trkpt lat="44.3313118" lon="15.6663728"><ele>577.0</ele><time>2026-05-05T07:53:20.595Z</time></trkpt><trkpt lat="44.3314316" lon="15.6659771"><ele>577.0</ele><time>2026-05-05T07:53:21.595Z</time></trkpt><trkpt lat="44.3315323" lon="15.6655892"><ele>577.0</ele><time>2026-05-05T07:53:22.595Z</time></trkpt><trkpt lat="44.3316335" lon="15.6652048"><ele>573.5</ele><time>2026-05-05T07:53:23.596Z</time></trkpt><trkpt lat="44.3317329" lon="15.6648166"><ele>570.0</ele><time>2026-05-05T07:53:24.596Z</time></trkpt><trkpt lat="44.33181" lon="15.6644152"><ele>566.5</ele><time>2026-05-05T07:53:25.595Z</time></trkpt><trkpt lat="44.3318959" lon="15.6640119"><ele>563.0</ele><time>2026-05-05T07:53:26.596Z</time></trkpt><trkpt lat="44.3319766" lon="15.663615"><ele>562.0</ele><time>2026-05-05T07:53:27.596Z</time></trkpt><trkpt lat="44.3320474" lon="15.6632181"><ele>561.0</ele><time>2026-05-05T07:53:28.596Z</time></trkpt><trkpt lat="44.3321144" lon="15.6628243"><ele>562.0</ele><time>2026-05-05T07:53:29.596Z</time></trkpt><trkpt lat="44.332201" lon="15.6624314"><ele>563.0</ele><time>2026-05-05T07:53:30.596Z</time></trkpt><trkpt lat="44.3322725" lon="15.6620434"><ele>562.0</ele><time>2026-05-05T07:53:31.596Z</time></trkpt><trkpt lat="44.3323462" lon="15.6616502"><ele>561.0</ele><time>2026-05-05T07:53:32.595Z</time></trkpt><trkpt lat="44.332416" lon="15.6612634"><ele>558.0</ele><time>2026-05-05T07:53:33.596Z</time></trkpt><trkpt lat="44.3324862" lon="15.6608779"><ele>555.0</ele><time>2026-05-05T07:53:34.596Z</time></trkpt><trkpt lat="44.3325823" lon="15.6604992"><ele>555.5</ele><time>2026-05-05T07:53:35.595Z</time></trkpt><trkpt lat="44.33267" lon="15.6601236"><ele>556.0</ele><time>2026-05-05T07:53:36.595Z</time></trkpt><trkpt lat="44.3327618" lon="15.6597523"><ele>556.0</ele><time>2026-05-05T07:53:37.596Z</time></trkpt><trkpt lat="44.3328669" lon="15.6593937"><ele>556.0</ele><time>2026-05-05T07:53:38.595Z</time></trkpt><trkpt lat="44.3329675" lon="15.6590303"><ele>562.0</ele><time>2026-05-05T07:53:39.595Z</time></trkpt><trkpt lat="44.3330841" lon="15.6586698"><ele>568.0</ele><time>2026-05-05T07:53:40.595Z</time></trkpt><trkpt lat="44.3332012" lon="15.6583102"><ele>568.0</ele><time>2026-05-05T07:53:41.596Z</time></trkpt><trkpt lat="44.3333265" lon="15.6579622"><ele>568.0</ele><time>2026-05-05T07:53:42.595Z</time></trkpt><trkpt lat="44.3334575" lon="15.6576158"><ele>566.0</ele><time>2026-05-05T07:53:43.596Z</time></trkpt><trkpt lat="44.3335931" lon="15.6572758"><ele>564.0</ele><time>2026-05-05T07:53:44.596Z</time></trkpt><trkpt lat="44.3337309" lon="15.6569256"><ele>562.0</ele><time>2026-05-05T07:53:45.596Z</time></trkpt><trkpt lat="44.3338778" lon="15.6565962"><ele>560.0</ele><time>2026-05-05T07:53:46.596Z</time></trkpt><trkpt lat="44.3340346" lon="15.6562605"><ele>564.5</ele><time>2026-05-05T07:53:47.596Z</time></trkpt><trkpt lat="44.3341899" lon="15.6559457"><ele>569.0</ele><time>2026-05-05T07:53:48.595Z</time></trkpt><trkpt lat="44.3343693" lon="15.6556297"><ele>569.0</ele><time>2026-05-05T07:53:49.596Z</time></trkpt><trkpt lat="44.3345537" lon="15.6553125"><ele>569.0</ele><time>2026-05-05T07:53:50.595Z</time></trkpt><trkpt lat="44.3347109" lon="15.6549899"><ele>570.5</ele><time>2026-05-05T07:53:51.595Z</time></trkpt><trkpt lat="44.3349285" lon="15.6546894"><ele>572.0</ele><time>2026-05-05T07:53:52.596Z</time></trkpt><trkpt lat="44.33513" lon="15.6544014"><ele>572.0</ele><time>2026-05-05T07:53:53.596Z</time></trkpt><trkpt lat="44.3353352" lon="15.6541236"><ele>572.0</ele><time>2026-05-05T07:53:54.595Z</time></trkpt><trkpt lat="44.3355524" lon="15.6538442"><ele>574.0</ele><time>2026-05-05T07:53:55.595Z</time></trkpt><trkpt lat="44.3357685" lon="15.6535849"><ele>576.0</ele><time>2026-05-05T07:53:56.596Z</time></trkpt><trkpt lat="44.3359998" lon="15.6533127"><ele>576.0</ele><time>2026-05-05T07:53:57.595Z</time></trkpt><trkpt lat="44.3362384" lon="15.6530554"><ele>576.0</ele><time>2026-05-05T07:53:58.595Z</time></trkpt><trkpt lat="44.3364826" lon="15.6528"><ele>573.5</ele><time>2026-05-05T07:53:59.596Z</time></trkpt><trkpt lat="44.3367225" lon="15.6525487"><ele>571.0</ele><time>2026-05-05T07:54:00.596Z</time></trkpt><trkpt lat="44.3369803" lon="15.6522998"><ele>565.0</ele><time>2026-05-05T07:54:01.595Z</time></trkpt><trkpt lat="44.3372238" lon="15.6520492"><ele>559.0</ele><time>2026-05-05T07:54:02.595Z</time></trkpt><trkpt lat="44.3374783" lon="15.6518054"><ele>559.0</ele><time>2026-05-05T07:54:03.596Z</time></trkpt><trkpt lat="44.3377371" lon="15.6515653"><ele>559.0</ele><time>2026-05-05T07:54:04.595Z</time></trkpt><trkpt lat="44.3379909" lon="15.651333"><ele>556.5</ele><time>2026-05-05T07:54:05.596Z</time></trkpt><trkpt lat="44.3382405" lon="15.6511079"><ele>554.0</ele><time>2026-05-05T07:54:06.595Z</time></trkpt><trkpt lat="44.3384921" lon="15.6508871"><ele>554.0</ele><time>2026-05-05T07:54:07.596Z</time></trkpt><trkpt lat="44.33874" lon="15.6506645"><ele>554.0</ele><time>2026-05-05T07:54:08.595Z</time></trkpt><trkpt lat="44.3389912" lon="15.6504473"><ele>554.0</ele><time>2026-05-05T07:54:09.595Z</time></trkpt><trkpt lat="44.3392379" lon="15.6502304"><ele>554.0</ele><time>2026-05-05T07:54:10.595Z</time></trkpt><trkpt lat="44.3394929" lon="15.6500197"><ele>555.0</ele><time>2026-05-05T07:54:11.596Z</time></trkpt><trkpt lat="44.3397493" lon="15.6498038"><ele>556.0</ele><time>2026-05-05T07:54:12.595Z</time></trkpt><trkpt lat="44.3400072" lon="15.6495906"><ele>556.5</ele><time>2026-05-05T07:54:13.596Z</time></trkpt><trkpt lat="44.340261" lon="15.6493831"><ele>557.0</ele><time>2026-05-05T07:54:14.595Z</time></trkpt><trkpt lat="44.3405151" lon="15.6491884"><ele>557.5</ele><time>2026-05-05T07:54:15.596Z</time></trkpt><trkpt lat="44.340772" lon="15.6489895"><ele>558.0</ele><time>2026-05-05T07:54:16.595Z</time></trkpt><trkpt lat="44.341021" lon="15.6487852"><ele>557.5</ele><time>2026-05-05T07:54:17.595Z</time></trkpt><trkpt lat="44.3412747" lon="15.6485884"><ele>557.0</ele><time>2026-05-05T07:54:18.595Z</time></trkpt><trkpt lat="44.3415325" lon="15.6483963"><ele>556.5</ele><time>2026-05-05T07:54:19.595Z</time></trkpt><trkpt lat="44.3417921" lon="15.6482054"><ele>556.0</ele><time>2026-05-05T07:54:20.596Z</time></trkpt><trkpt lat="44.3420498" lon="15.6480196"><ele>554.5</ele><time>2026-05-05T07:54:21.595Z</time></trkpt><trkpt lat="44.3423019" lon="15.6478331"><ele>553.0</ele><time>2026-05-05T07:54:22.596Z</time></trkpt><trkpt lat="44.3425602" lon="15.6476445"><ele>553.0</ele><time>2026-05-05T07:54:23.596Z</time></trkpt><trkpt lat="44.3428247" lon="15.6474558"><ele>553.0</ele><time>2026-05-05T07:54:24.595Z</time></trkpt><trkpt lat="44.3430862" lon="15.6472695"><ele>556.5</ele><time>2026-05-05T07:54:25.595Z</time></trkpt><trkpt lat="44.3433547" lon="15.6470791"><ele>560.0</ele><time>2026-05-05T07:54:26.595Z</time></trkpt><trkpt lat="44.3436173" lon="15.6469024"><ele>562.5</ele><time>2026-05-05T07:54:27.595Z</time></trkpt><trkpt lat="44.3438901" lon="15.6467265"><ele>565.0</ele><time>2026-05-05T07:54:28.595Z</time></trkpt><trkpt lat="44.344154" lon="15.646545"><ele>565.0</ele><time>2026-05-05T07:54:29.596Z</time></trkpt><trkpt lat="44.3444181" lon="15.6463703"><ele>565.0</ele><time>2026-05-05T07:54:30.595Z</time></trkpt><trkpt lat="44.3446886" lon="15.6462007"><ele>564.5</ele><time>2026-05-05T07:54:31.595Z</time></trkpt><trkpt lat="44.34496" lon="15.6460331"><ele>564.0</ele><time>2026-05-05T07:54:32.595Z</time></trkpt><trkpt lat="44.3452337" lon="15.6458627"><ele>564.0</ele><time>2026-05-05T07:54:33.595Z</time></trkpt><trkpt lat="44.345504" lon="15.6456946"><ele>564.0</ele><time>2026-05-05T07:54:34.595Z</time></trkpt><trkpt lat="44.3457769" lon="15.645524"><ele>562.5</ele><time>2026-05-05T07:54:35.596Z</time></trkpt><trkpt lat="44.3460485" lon="15.6453603"><ele>561.0</ele><time>2026-05-05T07:54:36.595Z</time></trkpt><trkpt lat="44.3463241" lon="15.6452008"><ele>560.5</ele><time>2026-05-05T07:54:37.596Z</time></trkpt><trkpt lat="44.3465947" lon="15.6450451"><ele>560.0</ele><time>2026-05-05T07:54:38.595Z</time></trkpt><trkpt lat="44.3468693" lon="15.6448937"><ele>560.0</ele><time>2026-05-05T07:54:39.595Z</time></trkpt><trkpt lat="44.3471368" lon="15.6447457"><ele>560.0</ele><time>2026-05-05T07:54:40.596Z</time></trkpt><trkpt lat="44.3474075" lon="15.6445887"><ele>561.0</ele><time>2026-05-05T07:54:41.596Z</time></trkpt><trkpt lat="44.3476786" lon="15.6444438"><ele>562.0</ele><time>2026-05-05T07:54:42.596Z</time></trkpt><trkpt lat="44.3479511" lon="15.6442875"><ele>561.0</ele><time>2026-05-05T07:54:43.595Z</time></trkpt><trkpt lat="44.3482282" lon="15.6441436"><ele>560.0</ele><time>2026-05-05T07:54:44.595Z</time></trkpt><trkpt lat="44.3485139" lon="15.6439959"><ele>560.0</ele><time>2026-05-05T07:54:45.596Z</time></trkpt><trkpt lat="44.3487954" lon="15.6438568"><ele>560.0</ele><time>2026-05-05T07:54:46.595Z</time></trkpt><trkpt lat="44.3490778" lon="15.6437124"><ele>560.0</ele><time>2026-05-05T07:54:47.595Z</time></trkpt><trkpt lat="44.3493569" lon="15.643574"><ele>560.0</ele><time>2026-05-05T07:54:48.595Z</time></trkpt><trkpt lat="44.3496383" lon="15.6434411"><ele>563.5</ele><time>2026-05-05T07:54:49.595Z</time></trkpt><trkpt lat="44.349911" lon="15.6433105"><ele>567.0</ele><time>2026-05-05T07:54:50.596Z</time></trkpt><trkpt lat="44.350192" lon="15.6431854"><ele>567.0</ele><time>2026-05-05T07:54:51.595Z</time></trkpt><trkpt lat="44.3504826" lon="15.6430574"><ele>567.0</ele><time>2026-05-05T07:54:52.596Z</time></trkpt><trkpt lat="44.350762" lon="15.6429349"><ele>566.0</ele><time>2026-05-05T07:54:53.595Z</time></trkpt><trkpt lat="44.3510486" lon="15.6428061"><ele>565.0</ele><time>2026-05-05T07:54:54.596Z</time></trkpt><trkpt lat="44.3513289" lon="15.6426776"><ele>561.0</ele><time>2026-05-05T07:54:55.595Z</time></trkpt><trkpt lat="44.3516155" lon="15.6425584"><ele>557.0</ele><time>2026-05-05T07:54:56.596Z</time></trkpt><trkpt lat="44.3519056" lon="15.6424395"><ele>557.0</ele><time>2026-05-05T07:54:57.595Z</time></trkpt><trkpt lat="44.3521959" lon="15.6423253"><ele>557.0</ele><time>2026-05-05T07:54:58.596Z</time></trkpt><trkpt lat="44.3524785" lon="15.6422141"><ele>562.0</ele><time>2026-05-05T07:54:59.596Z</time></trkpt><trkpt lat="44.3527706" lon="15.6420931"><ele>567.0</ele><time>2026-05-05T07:55:00.595Z</time></trkpt><trkpt lat="44.3530591" lon="15.6419907"><ele>569.5</ele><time>2026-05-05T07:55:01.595Z</time></trkpt><trkpt lat="44.3533439" lon="15.6418841"><ele>572.0</ele><time>2026-05-05T07:55:02.595Z</time></trkpt><trkpt lat="44.3536309" lon="15.6417798"><ele>572.0</ele><time>2026-05-05T07:55:03.596Z</time></trkpt><trkpt lat="44.3539222" lon="15.6416727"><ele>572.0</ele><time>2026-05-05T07:55:04.595Z</time></trkpt><trkpt lat="44.3542147" lon="15.6415763"><ele>572.0</ele><time>2026-05-05T07:55:05.596Z</time></trkpt><trkpt lat="44.3545037" lon="15.6414791"><ele>572.0</ele><time>2026-05-05T07:55:06.596Z</time></trkpt><trkpt lat="44.3548003" lon="15.6413783"><ele>575.5</ele><time>2026-05-05T07:55:07.596Z</time></trkpt><trkpt lat="44.3550938" lon="15.6412742"><ele>579.0</ele><time>2026-05-05T07:55:08.596Z</time></trkpt><trkpt lat="44.3553945" lon="15.641185"><ele>576.5</ele><time>2026-05-05T07:55:09.595Z</time></trkpt><trkpt lat="44.3556891" lon="15.6410871"><ele>574.0</ele><time>2026-05-05T07:55:10.596Z</time></trkpt><trkpt lat="44.3559892" lon="15.6409824"><ele>574.0</ele><time>2026-05-05T07:55:11.596Z</time></trkpt><trkpt lat="44.3562934" lon="15.6408917"><ele>574.0</ele><time>2026-05-05T07:55:12.595Z</time></trkpt><trkpt lat="44.3565894" lon="15.6408012"><ele>575.0</ele><time>2026-05-05T07:55:13.596Z</time></trkpt><trkpt lat="44.3568895" lon="15.6407193"><ele>576.0</ele><time>2026-05-05T07:55:14.596Z</time></trkpt><trkpt lat="44.3571969" lon="15.6406399"><ele>583.5</ele><time>2026-05-05T07:55:15.595Z</time></trkpt><trkpt lat="44.3575034" lon="15.6405621"><ele>591.0</ele><time>2026-05-05T07:55:16.595Z</time></trkpt><trkpt lat="44.3578064" lon="15.6404907"><ele>597.0</ele><time>2026-05-05T07:55:17.595Z</time></trkpt><trkpt lat="44.3581136" lon="15.6404254"><ele>603.0</ele><time>2026-05-05T07:55:18.596Z</time></trkpt><trkpt lat="44.3584168" lon="15.6403529"><ele>601.5</ele><time>2026-05-05T07:55:19.595Z</time></trkpt><trkpt lat="44.3587243" lon="15.6402829"><ele>600.0</ele><time>2026-05-05T07:55:20.595Z</time></trkpt><trkpt lat="44.3590327" lon="15.6402191"><ele>600.0</ele><time>2026-05-05T07:55:21.595Z</time></trkpt><trkpt lat="44.3593364" lon="15.640163"><ele>600.0</ele><time>2026-05-05T07:55:22.596Z</time></trkpt><trkpt lat="44.3596421" lon="15.6401041"><ele>598.5</ele><time>2026-05-05T07:55:23.595Z</time></trkpt><trkpt lat="44.3599516" lon="15.6400525"><ele>597.0</ele><time>2026-05-05T07:55:24.596Z</time></trkpt><trkpt lat="44.3602531" lon="15.639985"><ele>596.5</ele><time>2026-05-05T07:55:25.595Z</time></trkpt><trkpt lat="44.3605609" lon="15.6399129"><ele>596.0</ele><time>2026-05-05T07:55:26.596Z</time></trkpt><trkpt lat="44.36086" lon="15.6398536"><ele>596.0</ele><time>2026-05-05T07:55:27.596Z</time></trkpt><trkpt lat="44.3611597" lon="15.6397864"><ele>596.0</ele><time>2026-05-05T07:55:28.595Z</time></trkpt><trkpt lat="44.3614578" lon="15.6397184"><ele>596.5</ele><time>2026-05-05T07:55:29.596Z</time></trkpt><trkpt lat="44.3617545" lon="15.6396423"><ele>597.0</ele><time>2026-05-05T07:55:30.595Z</time></trkpt><trkpt lat="44.3620519" lon="15.6395586"><ele>600.5</ele><time>2026-05-05T07:55:31.595Z</time></trkpt><trkpt lat="44.362347" lon="15.6394751"><ele>604.0</ele><time>2026-05-05T07:55:32.595Z</time></trkpt><trkpt lat="44.3626401" lon="15.6393874"><ele>608.0</ele><time>2026-05-05T07:55:33.595Z</time></trkpt><trkpt lat="44.3629233" lon="15.6392962"><ele>612.0</ele><time>2026-05-05T07:55:34.596Z</time></trkpt><trkpt lat="44.3632116" lon="15.6392056"><ele>615.0</ele><time>2026-05-05T07:55:35.595Z</time></trkpt><trkpt lat="44.3634989" lon="15.6391183"><ele>618.0</ele><time>2026-05-05T07:55:36.595Z</time></trkpt><trkpt lat="44.3637888" lon="15.6390198"><ele>622.0</ele><time>2026-05-05T07:55:37.596Z</time></trkpt><trkpt lat="44.364077" lon="15.6389187"><ele>626.0</ele><time>2026-05-05T07:55:38.596Z</time></trkpt><trkpt lat="44.3643642" lon="15.6388239"><ele>626.0</ele><time>2026-05-05T07:55:39.595Z</time></trkpt><trkpt lat="44.364651" lon="15.638727"><ele>626.0</ele><time>2026-05-05T07:55:40.596Z</time></trkpt><trkpt lat="44.3660861" lon="15.6381637"><ele>619.0</ele><time>2026-05-05T07:55:45.595Z</time></trkpt><trkpt lat="44.3663653" lon="15.6380504"><ele>612.0</ele><time>2026-05-05T07:55:46.595Z</time></trkpt><trkpt lat="44.3666524" lon="15.6379253"><ele>612.0</ele><time>2026-05-05T07:55:47.596Z</time></trkpt><trkpt lat="44.3669379" lon="15.6377917"><ele>612.0</ele><time>2026-05-05T07:55:48.596Z</time></trkpt><trkpt lat="44.3672209" lon="15.6376553"><ele>599.0</ele><time>2026-05-05T07:55:49.595Z</time></trkpt><trkpt lat="44.3675021" lon="15.6375148"><ele>586.0</ele><time>2026-05-05T07:55:50.596Z</time></trkpt><trkpt lat="44.3677819" lon="15.6373674"><ele>583.0</ele><time>2026-05-05T07:55:51.595Z</time></trkpt><trkpt lat="44.3680635" lon="15.637219"><ele>580.0</ele><time>2026-05-05T07:55:52.596Z</time></trkpt><trkpt lat="44.368346" lon="15.6370684"><ele>584.5</ele><time>2026-05-05T07:55:53.596Z</time></trkpt><trkpt lat="44.3686306" lon="15.6369162"><ele>589.0</ele><time>2026-05-05T07:55:54.595Z</time></trkpt><trkpt lat="44.3689136" lon="15.6367603"><ele>589.0</ele><time>2026-05-05T07:55:55.596Z</time></trkpt><trkpt lat="44.369195" lon="15.636599"><ele>589.0</ele><time>2026-05-05T07:55:56.596Z</time></trkpt><trkpt lat="44.3694753" lon="15.6364358"><ele>589.0</ele><time>2026-05-05T07:55:57.596Z</time></trkpt><trkpt lat="44.3697534" lon="15.6362691"><ele>589.0</ele><time>2026-05-05T07:55:58.596Z</time></trkpt><trkpt lat="44.3700304" lon="15.6360967"><ele>592.5</ele><time>2026-05-05T07:55:59.596Z</time></trkpt><trkpt lat="44.3703015" lon="15.6359064"><ele>596.0</ele><time>2026-05-05T07:56:00.595Z</time></trkpt><trkpt lat="44.3705765" lon="15.6357253"><ele>596.0</ele><time>2026-05-05T07:56:01.596Z</time></trkpt><trkpt lat="44.3708528" lon="15.6355488"><ele>596.0</ele><time>2026-05-05T07:56:02.596Z</time></trkpt><trkpt lat="44.3711324" lon="15.6353739"><ele>594.5</ele><time>2026-05-05T07:56:03.596Z</time></trkpt><trkpt lat="44.3714035" lon="15.6351894"><ele>593.0</ele><time>2026-05-05T07:56:04.595Z</time></trkpt><trkpt lat="44.3716891" lon="15.6350013"><ele>593.0</ele><time>2026-05-05T07:56:05.596Z</time></trkpt><trkpt lat="44.3719738" lon="15.6347971"><ele>593.0</ele><time>2026-05-05T07:56:06.595Z</time></trkpt><trkpt lat="44.3722616" lon="15.6346031"><ele>589.5</ele><time>2026-05-05T07:56:07.596Z</time></trkpt><trkpt lat="44.3725516" lon="15.6344118"><ele>586.0</ele><time>2026-05-05T07:56:08.596Z</time></trkpt><trkpt lat="44.3728432" lon="15.6342232"><ele>583.5</ele><time>2026-05-05T07:56:09.596Z</time></trkpt><trkpt lat="44.3731334" lon="15.6340413"><ele>581.0</ele><time>2026-05-05T07:56:10.596Z</time></trkpt><trkpt lat="44.3734223" lon="15.6338673"><ele>581.0</ele><time>2026-05-05T07:56:11.596Z</time></trkpt><trkpt lat="44.3737117" lon="15.6336937"><ele>581.0</ele><time>2026-05-05T07:56:12.596Z</time></trkpt><trkpt lat="44.3740035" lon="15.6335245"><ele>581.5</ele><time>2026-05-05T07:56:13.596Z</time></trkpt><trkpt lat="44.3742934" lon="15.6333592"><ele>582.0</ele><time>2026-05-05T07:56:14.595Z</time></trkpt><trkpt lat="44.3745836" lon="15.6331986"><ele>581.0</ele><time>2026-05-05T07:56:15.595Z</time></trkpt><trkpt lat="44.3748709" lon="15.6330501"><ele>580.0</ele><time>2026-05-05T07:56:16.596Z</time></trkpt><trkpt lat="44.3751577" lon="15.6329036"><ele>580.5</ele><time>2026-05-05T07:56:17.596Z</time></trkpt><trkpt lat="44.3754553" lon="15.6327622"><ele>581.0</ele><time>2026-05-05T07:56:18.596Z</time></trkpt><trkpt lat="44.3757532" lon="15.63262"><ele>580.0</ele><time>2026-05-05T07:56:19.596Z</time></trkpt><trkpt lat="44.3760538" lon="15.6324815"><ele>579.0</ele><time>2026-05-05T07:56:20.595Z</time></trkpt><trkpt lat="44.3763566" lon="15.6323463"><ele>581.0</ele><time>2026-05-05T07:56:21.596Z</time></trkpt><trkpt lat="44.3766586" lon="15.6322158"><ele>583.0</ele><time>2026-05-05T07:56:22.595Z</time></trkpt><trkpt lat="44.3769614" lon="15.6320895"><ele>582.5</ele><time>2026-05-05T07:56:23.595Z</time></trkpt><trkpt lat="44.3772659" lon="15.6319687"><ele>582.0</ele><time>2026-05-05T07:56:24.596Z</time></trkpt><trkpt lat="44.3775719" lon="15.6318541"><ele>582.0</ele><time>2026-05-05T07:56:25.595Z</time></trkpt><trkpt lat="44.3778815" lon="15.6317469"><ele>582.0</ele><time>2026-05-05T07:56:26.595Z</time></trkpt><trkpt lat="44.3781858" lon="15.6316463"><ele>580.5</ele><time>2026-05-05T07:56:27.595Z</time></trkpt><trkpt lat="44.378492" lon="15.6315483"><ele>579.0</ele><time>2026-05-05T07:56:28.595Z</time></trkpt><trkpt lat="44.3788018" lon="15.6314565"><ele>580.5</ele><time>2026-05-05T07:56:29.596Z</time></trkpt><trkpt lat="44.3791149" lon="15.6313733"><ele>582.0</ele><time>2026-05-05T07:56:30.595Z</time></trkpt><trkpt lat="44.3794284" lon="15.6312889"><ele>582.0</ele><time>2026-05-05T07:56:31.595Z</time></trkpt><trkpt lat="44.3797445" lon="15.6312089"><ele>582.0</ele><time>2026-05-05T07:56:32.595Z</time></trkpt><trkpt lat="44.3800615" lon="15.631135"><ele>582.5</ele><time>2026-05-05T07:56:33.596Z</time></trkpt><trkpt lat="44.3803753" lon="15.6310644"><ele>583.0</ele><time>2026-05-05T07:56:34.595Z</time></trkpt><trkpt lat="44.3806922" lon="15.6309989"><ele>581.5</ele><time>2026-05-05T07:56:35.595Z</time></trkpt><trkpt lat="44.3810115" lon="15.6309389"><ele>580.0</ele><time>2026-05-05T07:56:36.596Z</time></trkpt><trkpt lat="44.3813278" lon="15.6308849"><ele>580.0</ele><time>2026-05-05T07:56:37.596Z</time></trkpt><trkpt lat="44.3816394" lon="15.6308279"><ele>580.0</ele><time>2026-05-05T07:56:38.595Z</time></trkpt><trkpt lat="44.3819483" lon="15.6307818"><ele>579.5</ele><time>2026-05-05T07:56:39.596Z</time></trkpt><trkpt lat="44.3822574" lon="15.6307518"><ele>579.0</ele><time>2026-05-05T07:56:40.595Z</time></trkpt><trkpt lat="44.3825632" lon="15.630727"><ele>579.0</ele><time>2026-05-05T07:56:41.595Z</time></trkpt><trkpt lat="44.3828711" lon="15.6307091"><ele>579.0</ele><time>2026-05-05T07:56:42.595Z</time></trkpt><trkpt lat="44.3831743" lon="15.6306981"><ele>580.0</ele><time>2026-05-05T07:56:43.596Z</time></trkpt><trkpt lat="44.3834806" lon="15.630689"><ele>581.0</ele><time>2026-05-05T07:56:44.596Z</time></trkpt><trkpt lat="44.3837821" lon="15.6306865"><ele>581.0</ele><time>2026-05-05T07:56:45.595Z</time></trkpt><trkpt lat="44.3840838" lon="15.6306858"><ele>581.0</ele><time>2026-05-05T07:56:46.596Z</time></trkpt><trkpt lat="44.3843933" lon="15.6306929"><ele>582.0</ele><time>2026-05-05T07:56:47.595Z</time></trkpt><trkpt lat="44.3846932" lon="15.6306879"><ele>583.0</ele><time>2026-05-05T07:56:48.596Z</time></trkpt><trkpt lat="44.3849921" lon="15.6306929"><ele>579.0</ele><time>2026-05-05T07:56:49.596Z</time></trkpt><trkpt lat="44.3757532" lon="15.63262"><ele>579.0</ele><time>2026-05-05T07:56:19.596Z</time></trkpt><trkpt lat="44.3760538" lon="15.6324815"><ele>579.0</ele><time>2026-05-05T07:56:20.595Z</time></trkpt><trkpt lat="44.3763566" lon="15.6323463"><ele>581.0</ele><time>2026-05-05T07:56:21.596Z</time></trkpt><trkpt lat="44.3766586" lon="15.6322158"><ele>583.0</ele><time>2026-05-05T07:56:22.595Z</time></trkpt><trkpt lat="44.3769614" lon="15.6320895"><ele>582.5</ele><time>2026-05-05T07:56:23.595Z</time></trkpt><trkpt lat="44.3772659" lon="15.6319687"><ele>582.0</ele><time>2026-05-05T07:56:24.596Z</time></trkpt><trkpt lat="44.3775719" lon="15.6318541"><ele>582.0</ele><time>2026-05-05T07:56:25.595Z</time></trkpt><trkpt lat="44.3778815" lon="15.6317469"><ele>582.0</ele><time>2026-05-05T07:56:26.595Z</time></trkpt><trkpt lat="44.3781858" lon="15.6316463"><ele>580.5</ele><time>2026-05-05T07:56:27.595Z</time></trkpt><trkpt lat="44.378492" lon="15.6315483"><ele>579.0</ele><time>2026-05-05T07:56:28.595Z</time></trkpt><trkpt lat="44.3788018" lon="15.6314565"><ele>580.5</ele><time>2026-05-05T07:56:29.596Z</time></trkpt><trkpt lat="44.3791149" lon="15.6313733"><ele>582.0</ele><time>2026-05-05T07:56:30.595Z</time></trkpt><trkpt lat="44.3794284" lon="15.6312889"><ele>582.0</ele><time>2026-05-05T07:56:31.595Z</time></trkpt><trkpt lat="44.3797445" lon="15.6312089"><ele>582.0</ele><time>2026-05-05T07:56:32.595Z</time></trkpt><trkpt lat="44.3800615" lon="15.631135"><ele>582.5</ele><time>2026-05-05T07:56:33.596Z</time></trkpt><trkpt lat="44.3803753" lon="15.6310644"><ele>583.0</ele><time>2026-05-05T07:56:34.595Z</time></trkpt><trkpt lat="44.3806922" lon="15.6309989"><ele>581.5</ele><time>2026-05-05T07:56:35.595Z</time></trkpt><trkpt lat="44.3810115" lon="15.6309389"><ele>580.0</ele><time>2026-05-05T07:56:36.596Z</time></trkpt><trkpt lat="44.3813278" lon="15.6308849"><ele>580.0</ele><time>2026-05-05T07:56:37.596Z</time></trkpt><trkpt lat="44.3816394" lon="15.6308279"><ele>580.0</ele><time>2026-05-05T07:56:38.595Z</time></trkpt><trkpt lat="44.3819483" lon="15.6307818"><ele>579.5</ele><time>2026-05-05T07:56:39.596Z</time></trkpt><trkpt lat="44.3822574" lon="15.6307518"><ele>579.0</ele><time>2026-05-05T07:56:40.595Z</time></trkpt><trkpt lat="44.3825632" lon="15.630727"><ele>579.0</ele><time>2026-05-05T07:56:41.595Z</time></trkpt><trkpt lat="44.3828711" lon="15.6307091"><ele>579.0</ele><time>2026-05-05T07:56:42.595Z</time></trkpt><trkpt lat="44.3831743" lon="15.6306981"><ele>580.0</ele><time>2026-05-05T07:56:43.596Z</time></trkpt><trkpt lat="44.3834806" lon="15.630689"><ele>581.0</ele><time>2026-05-05T07:56:44.596Z</time></trkpt><trkpt lat="44.3837821" lon="15.6306865"><ele>581.0</ele><time>2026-05-05T07:56:45.595Z</time></trkpt><trkpt lat="44.3840838" lon="15.6306858"><ele>581.0</ele><time>2026-05-05T07:56:46.596Z</time></trkpt><trkpt lat="44.3843933" lon="15.6306929"><ele>582.0</ele><time>2026-05-05T07:56:47.595Z</time></trkpt><trkpt lat="44.3846932" lon="15.6306879"><ele>583.0</ele><time>2026-05-05T07:56:48.596Z</time></trkpt><trkpt lat="44.3849921" lon="15.6306929"><ele>583.0</ele><time>2026-05-05T07:56:49.596Z</time></trkpt><trkpt lat="44.385294" lon="15.6307053"><ele>583.0</ele><time>2026-05-05T07:56:50.595Z</time></trkpt><trkpt lat="44.3855912" lon="15.6307206"><ele>584.0</ele><time>2026-05-05T07:56:51.596Z</time></trkpt><trkpt lat="44.3858895" lon="15.6307419"><ele>585.0</ele><time>2026-05-05T07:56:52.596Z</time></trkpt><trkpt lat="44.3861916" lon="15.6307663"><ele>585.5</ele><time>2026-05-05T07:56:53.595Z</time></trkpt><trkpt lat="44.3864911" lon="15.6307926"><ele>586.0</ele><time>2026-05-05T07:56:54.596Z</time></trkpt><trkpt lat="44.386789" lon="15.6308264"><ele>586.0</ele><time>2026-05-05T07:56:55.596Z</time></trkpt><trkpt lat="44.3870933" lon="15.630861"><ele>586.0</ele><time>2026-05-05T07:56:56.596Z</time></trkpt><trkpt lat="44.387397" lon="15.6308925"><ele>586.5</ele><time>2026-05-05T07:56:57.595Z</time></trkpt><trkpt lat="44.3877004" lon="15.630931"><ele>587.0</ele><time>2026-05-05T07:56:58.596Z</time></trkpt><trkpt lat="44.3880014" lon="15.6309756"><ele>586.5</ele><time>2026-05-05T07:56:59.596Z</time></trkpt><trkpt lat="44.3883057" lon="15.6310289"><ele>586.0</ele><time>2026-05-05T07:57:00.595Z</time></trkpt><trkpt lat="44.3886086" lon="15.6310859"><ele>586.0</ele><time>2026-05-05T07:57:01.595Z</time></trkpt><trkpt lat="44.3889096" lon="15.6311482"><ele>586.0</ele><time>2026-05-05T07:57:02.595Z</time></trkpt><trkpt lat="44.3892133" lon="15.631207"><ele>586.0</ele><time>2026-05-05T07:57:03.596Z</time></trkpt><trkpt lat="44.3895147" lon="15.6312753"><ele>586.0</ele><time>2026-05-05T07:57:04.596Z</time></trkpt><trkpt lat="44.3898159" lon="15.6313466"><ele>586.5</ele><time>2026-05-05T07:57:05.595Z</time></trkpt><trkpt lat="44.3901173" lon="15.6314194"><ele>587.0</ele><time>2026-05-05T07:57:06.595Z</time></trkpt><trkpt lat="44.3904167" lon="15.6315032"><ele>587.5</ele><time>2026-05-05T07:57:07.595Z</time></trkpt><trkpt lat="44.390714" lon="15.6315835"><ele>588.0</ele><time>2026-05-05T07:57:08.595Z</time></trkpt><trkpt lat="44.3910076" lon="15.6316664"><ele>588.0</ele><time>2026-05-05T07:57:09.595Z</time></trkpt><trkpt lat="44.3913036" lon="15.6317498"><ele>588.0</ele><time>2026-05-05T07:57:10.595Z</time></trkpt><trkpt lat="44.3915953" lon="15.6318423"><ele>587.5</ele><time>2026-05-05T07:57:11.596Z</time></trkpt><trkpt lat="44.3918843" lon="15.6319363"><ele>587.0</ele><time>2026-05-05T07:57:12.595Z</time></trkpt><trkpt lat="44.392173" lon="15.6320349"><ele>587.0</ele><time>2026-05-05T07:57:13.595Z</time></trkpt><trkpt lat="44.3924599" lon="15.6321403"><ele>587.0</ele><time>2026-05-05T07:57:14.595Z</time></trkpt><trkpt lat="44.3927454" lon="15.6322446"><ele>588.0</ele><time>2026-05-05T07:57:15.596Z</time></trkpt><trkpt lat="44.3930287" lon="15.6323477"><ele>589.0</ele><time>2026-05-05T07:57:16.596Z</time></trkpt><trkpt lat="44.3933146" lon="15.6324562"><ele>589.0</ele><time>2026-05-05T07:57:17.596Z</time></trkpt><trkpt lat="44.3935945" lon="15.6325576"><ele>589.0</ele><time>2026-05-05T07:57:18.596Z</time></trkpt><trkpt lat="44.3938746" lon="15.6326671"><ele>587.0</ele><time>2026-05-05T07:57:19.596Z</time></trkpt><trkpt lat="44.3941564" lon="15.6327878"><ele>585.0</ele><time>2026-05-05T07:57:20.596Z</time></trkpt><trkpt lat="44.394434" lon="15.632921"><ele>585.0</ele><time>2026-05-05T07:57:21.595Z</time></trkpt><trkpt lat="44.3947099" lon="15.6330505"><ele>585.0</ele><time>2026-05-05T07:57:22.596Z</time></trkpt><trkpt lat="44.3949867" lon="15.6331823"><ele>585.0</ele><time>2026-05-05T07:57:23.595Z</time></trkpt><trkpt lat="44.3952613" lon="15.6333075"><ele>585.0</ele><time>2026-05-05T07:57:24.596Z</time></trkpt><trkpt lat="44.3955335" lon="15.6334427"><ele>585.0</ele><time>2026-05-05T07:57:25.595Z</time></trkpt><trkpt lat="44.3958053" lon="15.6335805"><ele>585.0</ele><time>2026-05-05T07:57:26.596Z</time></trkpt><trkpt lat="44.3960681" lon="15.6337249"><ele>585.0</ele><time>2026-05-05T07:57:27.596Z</time></trkpt><trkpt lat="44.396336" lon="15.6338695"><ele>585.0</ele><time>2026-05-05T07:57:28.596Z</time></trkpt><trkpt lat="44.3965999" lon="15.6340123"><ele>585.0</ele><time>2026-05-05T07:57:29.596Z</time></trkpt><trkpt lat="44.3968648" lon="15.6341674"><ele>585.0</ele><time>2026-05-05T07:57:30.596Z</time></trkpt><trkpt lat="44.3971309" lon="15.6343173"><ele>586.0</ele><time>2026-05-05T07:57:31.596Z</time></trkpt><trkpt lat="44.3974045" lon="15.6344679"><ele>587.0</ele><time>2026-05-05T07:57:32.595Z</time></trkpt><trkpt lat="44.3976793" lon="15.6346352"><ele>587.0</ele><time>2026-05-05T07:57:33.595Z</time></trkpt><trkpt lat="44.3979656" lon="15.6347911"><ele>587.0</ele><time>2026-05-05T07:57:34.596Z</time></trkpt><trkpt lat="44.3982533" lon="15.6349615"><ele>587.0</ele><time>2026-05-05T07:57:35.595Z</time></trkpt><trkpt lat="44.3985484" lon="15.635132"><ele>587.0</ele><time>2026-05-05T07:57:36.596Z</time></trkpt><trkpt lat="44.3988373" lon="15.6352937"><ele>588.0</ele><time>2026-05-05T07:57:37.595Z</time></trkpt><trkpt lat="44.3991268" lon="15.635452"><ele>589.0</ele><time>2026-05-05T07:57:38.596Z</time></trkpt><trkpt lat="44.3994172" lon="15.6356146"><ele>588.5</ele><time>2026-05-05T07:57:39.596Z</time></trkpt><trkpt lat="44.3997088" lon="15.6357738"><ele>588.0</ele><time>2026-05-05T07:57:40.595Z</time></trkpt><trkpt lat="44.4000037" lon="15.6359297"><ele>588.0</ele><time>2026-05-05T07:57:41.595Z</time></trkpt><trkpt lat="44.4002913" lon="15.6361007"><ele>588.0</ele><time>2026-05-05T07:57:42.595Z</time></trkpt><trkpt lat="44.4005854" lon="15.6362411"><ele>587.0</ele><time>2026-05-05T07:57:43.595Z</time></trkpt><trkpt lat="44.40088" lon="15.6363881"><ele>586.0</ele><time>2026-05-05T07:57:44.596Z</time></trkpt><trkpt lat="44.4011747" lon="15.636529"><ele>586.0</ele><time>2026-05-05T07:57:45.595Z</time></trkpt><trkpt lat="44.4014698" lon="15.6366723"><ele>586.0</ele><time>2026-05-05T07:57:46.595Z</time></trkpt><trkpt lat="44.4017677" lon="15.6368163"><ele>586.0</ele><time>2026-05-05T07:57:47.596Z</time></trkpt><trkpt lat="44.4020611" lon="15.6369484"><ele>586.0</ele><time>2026-05-05T07:57:48.595Z</time></trkpt><trkpt lat="44.4023528" lon="15.6370787"><ele>587.0</ele><time>2026-05-05T07:57:49.596Z</time></trkpt><trkpt lat="44.4026455" lon="15.6371986"><ele>588.0</ele><time>2026-05-05T07:57:50.595Z</time></trkpt><trkpt lat="44.4029397" lon="15.6373217"><ele>589.0</ele><time>2026-05-05T07:57:51.596Z</time></trkpt><trkpt lat="44.4032351" lon="15.6374301"><ele>590.0</ele><time>2026-05-05T07:57:52.595Z</time></trkpt><trkpt lat="44.4035284" lon="15.6375358"><ele>590.0</ele><time>2026-05-05T07:57:53.595Z</time></trkpt><trkpt lat="44.4038227" lon="15.6376413"><ele>590.0</ele><time>2026-05-05T07:57:54.596Z</time></trkpt><trkpt lat="44.4041145" lon="15.6377456"><ele>591.0</ele><time>2026-05-05T07:57:55.595Z</time></trkpt><trkpt lat="44.4044109" lon="15.6378338"><ele>592.0</ele><time>2026-05-05T07:57:56.595Z</time></trkpt><trkpt lat="44.4047062" lon="15.6379273"><ele>592.5</ele><time>2026-05-05T07:57:57.595Z</time></trkpt><trkpt lat="44.4050071" lon="15.6380125"><ele>593.0</ele><time>2026-05-05T07:57:58.596Z</time></trkpt><trkpt lat="44.4053081" lon="15.6381017"><ele>595.0</ele><time>2026-05-05T07:57:59.595Z</time></trkpt><trkpt lat="44.4056081" lon="15.6381762"><ele>597.0</ele><time>2026-05-05T07:58:00.595Z</time></trkpt><trkpt lat="44.4059099" lon="15.6382429"><ele>597.0</ele><time>2026-05-05T07:58:01.596Z</time></trkpt><trkpt lat="44.4062138" lon="15.6383154"><ele>597.0</ele><time>2026-05-05T07:58:02.596Z</time></trkpt><trkpt lat="44.4065138" lon="15.6383831"><ele>596.5</ele><time>2026-05-05T07:58:03.595Z</time></trkpt><trkpt lat="44.4068115" lon="15.6384455"><ele>596.0</ele><time>2026-05-05T07:58:04.596Z</time></trkpt><trkpt lat="44.4071071" lon="15.6385097"><ele>596.5</ele><time>2026-05-05T07:58:05.596Z</time></trkpt><trkpt lat="44.4074043" lon="15.638563"><ele>597.0</ele><time>2026-05-05T07:58:06.596Z</time></trkpt><trkpt lat="44.4077046" lon="15.6386118"><ele>595.5</ele><time>2026-05-05T07:58:07.596Z</time></trkpt><trkpt lat="44.4080057" lon="15.6386599"><ele>594.0</ele><time>2026-05-05T07:58:08.596Z</time></trkpt><trkpt lat="44.4083058" lon="15.6387015"><ele>594.0</ele><time>2026-05-05T07:58:09.595Z</time></trkpt><trkpt lat="44.4086027" lon="15.6387439"><ele>594.0</ele><time>2026-05-05T07:58:10.596Z</time></trkpt><trkpt lat="44.4088998" lon="15.6387769"><ele>596.5</ele><time>2026-05-05T07:58:11.595Z</time></trkpt><trkpt lat="44.4092003" lon="15.6388057"><ele>599.0</ele><time>2026-05-05T07:58:12.596Z</time></trkpt><trkpt lat="44.4095019" lon="15.6388382"><ele>599.5</ele><time>2026-05-05T07:58:13.596Z</time></trkpt><trkpt lat="44.4098042" lon="15.6388668"><ele>600.0</ele><time>2026-05-05T07:58:14.595Z</time></trkpt><trkpt lat="44.4101043" lon="15.6388873"><ele>600.0</ele><time>2026-05-05T07:58:15.596Z</time></trkpt><trkpt lat="44.4104014" lon="15.6388997"><ele>600.0</ele><time>2026-05-05T07:58:16.596Z</time></trkpt><trkpt lat="44.4107018" lon="15.6389097"><ele>599.0</ele><time>2026-05-05T07:58:17.595Z</time></trkpt><trkpt lat="44.4110023" lon="15.6389122"><ele>598.0</ele><time>2026-05-05T07:58:18.596Z</time></trkpt><trkpt lat="44.4113043" lon="15.6389099"><ele>598.5</ele><time>2026-05-05T07:58:19.596Z</time></trkpt><trkpt lat="44.4116117" lon="15.6389118"><ele>599.0</ele><time>2026-05-05T07:58:20.596Z</time></trkpt><trkpt lat="44.4119175" lon="15.6389078"><ele>600.0</ele><time>2026-05-05T07:58:21.595Z</time></trkpt><trkpt lat="44.4122218" lon="15.6389007"><ele>601.0</ele><time>2026-05-05T07:58:22.595Z</time></trkpt><trkpt lat="44.4125275" lon="15.6388805"><ele>601.0</ele><time>2026-05-05T07:58:23.596Z</time></trkpt><trkpt lat="44.4128316" lon="15.638863"><ele>601.0</ele><time>2026-05-05T07:58:24.596Z</time></trkpt><trkpt lat="44.413135" lon="15.6388443"><ele>603.0</ele><time>2026-05-05T07:58:25.596Z</time></trkpt><trkpt lat="44.4134393" lon="15.6388207"><ele>605.0</ele><time>2026-05-05T07:58:26.596Z</time></trkpt><trkpt lat="44.4137414" lon="15.6387932"><ele>605.0</ele><time>2026-05-05T07:58:27.596Z</time></trkpt><trkpt lat="44.4140449" lon="15.6387559"><ele>605.0</ele><time>2026-05-05T07:58:28.596Z</time></trkpt><trkpt lat="44.4143469" lon="15.6387208"><ele>605.0</ele><time>2026-05-05T07:58:29.595Z</time></trkpt><trkpt lat="44.4146501" lon="15.6386896"><ele>605.0</ele><time>2026-05-05T07:58:30.596Z</time></trkpt><trkpt lat="44.4149555" lon="15.638646"><ele>603.5</ele><time>2026-05-05T07:58:31.596Z</time></trkpt><trkpt lat="44.4152597" lon="15.6386046"><ele>602.0</ele><time>2026-05-05T07:58:32.595Z</time></trkpt><trkpt lat="44.415565" lon="15.6385521"><ele>600.5</ele><time>2026-05-05T07:58:33.596Z</time></trkpt><trkpt lat="44.4158711" lon="15.6384988"><ele>599.0</ele><time>2026-05-05T07:58:34.595Z</time></trkpt><trkpt lat="44.4161757" lon="15.6384378"><ele>598.5</ele><time>2026-05-05T07:58:35.596Z</time></trkpt><trkpt lat="44.4164786" lon="15.6383844"><ele>598.0</ele><time>2026-05-05T07:58:36.595Z</time></trkpt><trkpt lat="44.4167834" lon="15.6383144"><ele>598.0</ele><time>2026-05-05T07:58:37.595Z</time></trkpt><trkpt lat="44.4170873" lon="15.6382436"><ele>598.0</ele><time>2026-05-05T07:58:38.595Z</time></trkpt><trkpt lat="44.417391" lon="15.6381696"><ele>596.5</ele><time>2026-05-05T07:58:39.596Z</time></trkpt><trkpt lat="44.4176942" lon="15.6380917"><ele>595.0</ele><time>2026-05-05T07:58:40.595Z</time></trkpt><trkpt lat="44.4179976" lon="15.6380102"><ele>595.0</ele><time>2026-05-05T07:58:41.596Z</time></trkpt><trkpt lat="44.4182999" lon="15.6379292"><ele>595.0</ele><time>2026-05-05T07:58:42.596Z</time></trkpt><trkpt lat="44.4186017" lon="15.6378409"><ele>598.5</ele><time>2026-05-05T07:58:43.595Z</time></trkpt><trkpt lat="44.4189003" lon="15.6377569"><ele>602.0</ele><time>2026-05-05T07:58:44.596Z</time></trkpt><trkpt lat="44.4191969" lon="15.6376605"><ele>602.0</ele><time>2026-05-05T07:58:45.596Z</time></trkpt><trkpt lat="44.4194925" lon="15.6375629"><ele>602.0</ele><time>2026-05-05T07:58:46.596Z</time></trkpt><trkpt lat="44.4197833" lon="15.637456"><ele>605.0</ele><time>2026-05-05T07:58:47.596Z</time></trkpt><trkpt lat="44.4200728" lon="15.637321"><ele>608.0</ele><time>2026-05-05T07:58:48.596Z</time></trkpt><trkpt lat="44.4203632" lon="15.6371987"><ele>606.5</ele><time>2026-05-05T07:58:49.595Z</time></trkpt><trkpt lat="44.420652" lon="15.6370869"><ele>605.0</ele><time>2026-05-05T07:58:50.595Z</time></trkpt><trkpt lat="44.4209396" lon="15.6369585"><ele>604.5</ele><time>2026-05-05T07:58:51.595Z</time></trkpt><trkpt lat="44.421224" lon="15.6368231"><ele>604.0</ele><time>2026-05-05T07:58:52.596Z</time></trkpt><trkpt lat="44.4215096" lon="15.6366994"><ele>602.5</ele><time>2026-05-05T07:58:53.596Z</time></trkpt><trkpt lat="44.4217998" lon="15.6365727"><ele>601.0</ele><time>2026-05-05T07:58:54.595Z</time></trkpt><trkpt lat="44.4220863" lon="15.636439"><ele>599.0</ele><time>2026-05-05T07:58:55.596Z</time></trkpt><trkpt lat="44.42237" lon="15.6362999"><ele>597.0</ele><time>2026-05-05T07:58:56.595Z</time></trkpt><trkpt lat="44.422651" lon="15.6361629"><ele>598.0</ele><time>2026-05-05T07:58:57.595Z</time></trkpt><trkpt lat="44.4229261" lon="15.6360117"><ele>599.0</ele><time>2026-05-05T07:58:58.596Z</time></trkpt><trkpt lat="44.4232095" lon="15.6358575"><ele>601.5</ele><time>2026-05-05T07:58:59.595Z</time></trkpt><trkpt lat="44.4234946" lon="15.6357024"><ele>604.0</ele><time>2026-05-05T07:59:00.595Z</time></trkpt><trkpt lat="44.4237719" lon="15.6355471"><ele>605.0</ele><time>2026-05-05T07:59:01.596Z</time></trkpt><trkpt lat="44.4240505" lon="15.6353903"><ele>606.0</ele><time>2026-05-05T07:59:02.596Z</time></trkpt><trkpt lat="44.4243419" lon="15.6352106"><ele>606.5</ele><time>2026-05-05T07:59:03.595Z</time></trkpt><trkpt lat="44.4246208" lon="15.6350499"><ele>607.0</ele><time>2026-05-05T07:59:04.596Z</time></trkpt><trkpt lat="44.4248952" lon="15.6348748"><ele>604.5</ele><time>2026-05-05T07:59:05.595Z</time></trkpt><trkpt lat="44.4251656" lon="15.6346956"><ele>602.0</ele><time>2026-05-05T07:59:06.595Z</time></trkpt><trkpt lat="44.4254405" lon="15.6345197"><ele>602.5</ele><time>2026-05-05T07:59:07.595Z</time></trkpt><trkpt lat="44.4257141" lon="15.6343322"><ele>603.0</ele><time>2026-05-05T07:59:08.596Z</time></trkpt><trkpt lat="44.4259866" lon="15.6341425"><ele>603.0</ele><time>2026-05-05T07:59:09.596Z</time></trkpt><trkpt lat="44.4262602" lon="15.6339563"><ele>603.0</ele><time>2026-05-05T07:59:10.596Z</time></trkpt><trkpt lat="44.4265333" lon="15.6337591"><ele>604.5</ele><time>2026-05-05T07:59:11.596Z</time></trkpt><trkpt lat="44.4268053" lon="15.6335632"><ele>606.0</ele><time>2026-05-05T07:59:12.595Z</time></trkpt><trkpt lat="44.4270764" lon="15.6333567"><ele>605.5</ele><time>2026-05-05T07:59:13.596Z</time></trkpt><trkpt lat="44.4273432" lon="15.6331471"><ele>605.0</ele><time>2026-05-05T07:59:14.596Z</time></trkpt><trkpt lat="44.4276118" lon="15.6329345"><ele>605.0</ele><time>2026-05-05T07:59:15.596Z</time></trkpt><trkpt lat="44.4278757" lon="15.6327156"><ele>605.0</ele><time>2026-05-05T07:59:16.596Z</time></trkpt><trkpt lat="44.428142" lon="15.6325023"><ele>605.0</ele><time>2026-05-05T07:59:17.595Z</time></trkpt><trkpt lat="44.4284129" lon="15.6322759"><ele>605.0</ele><time>2026-05-05T07:59:18.595Z</time></trkpt><trkpt lat="44.4286799" lon="15.6320523"><ele>607.0</ele><time>2026-05-05T07:59:19.596Z</time></trkpt><trkpt lat="44.4289436" lon="15.6318195"><ele>609.0</ele><time>2026-05-05T07:59:20.596Z</time></trkpt><trkpt lat="44.4292062" lon="15.6315721"><ele>609.0</ele><time>2026-05-05T07:59:21.595Z</time></trkpt><trkpt lat="44.4294644" lon="15.631336"><ele>609.0</ele><time>2026-05-05T07:59:22.595Z</time></trkpt><trkpt lat="44.42972" lon="15.6310839"><ele>609.5</ele><time>2026-05-05T07:59:23.596Z</time></trkpt><trkpt lat="44.4299862" lon="15.6308003"><ele>610.0</ele><time>2026-05-05T07:59:24.595Z</time></trkpt><trkpt lat="44.4302396" lon="15.6305497"><ele>611.0</ele><time>2026-05-05T07:59:25.596Z</time></trkpt><trkpt lat="44.4304935" lon="15.6302957"><ele>612.0</ele><time>2026-05-05T07:59:26.596Z</time></trkpt><trkpt lat="44.4307382" lon="15.6300494"><ele>612.0</ele><time>2026-05-05T07:59:27.595Z</time></trkpt><trkpt lat="44.4309884" lon="15.6297895"><ele>612.0</ele><time>2026-05-05T07:59:28.595Z</time></trkpt><trkpt lat="44.4312327" lon="15.6295393"><ele>608.5</ele><time>2026-05-05T07:59:29.596Z</time></trkpt><trkpt lat="44.4314717" lon="15.6292841"><ele>605.0</ele><time>2026-05-05T07:59:30.595Z</time></trkpt><trkpt lat="44.4317145" lon="15.6290265"><ele>605.0</ele><time>2026-05-05T07:59:31.596Z</time></trkpt><trkpt lat="44.4319518" lon="15.6287677"><ele>605.0</ele><time>2026-05-05T07:59:32.596Z</time></trkpt><trkpt lat="44.4321888" lon="15.6285063"><ele>607.0</ele><time>2026-05-05T07:59:33.596Z</time></trkpt><trkpt lat="44.4243419" lon="15.6352106"><ele>607.0</ele><time>2026-05-05T07:59:03.595Z</time></trkpt><trkpt lat="44.4246208" lon="15.6350499"><ele>607.0</ele><time>2026-05-05T07:59:04.596Z</time></trkpt><trkpt lat="44.4248952" lon="15.6348748"><ele>604.5</ele><time>2026-05-05T07:59:05.595Z</time></trkpt><trkpt lat="44.4251656" lon="15.6346956"><ele>602.0</ele><time>2026-05-05T07:59:06.595Z</time></trkpt><trkpt lat="44.4254405" lon="15.6345197"><ele>602.5</ele><time>2026-05-05T07:59:07.595Z</time></trkpt><trkpt lat="44.4257141" lon="15.6343322"><ele>603.0</ele><time>2026-05-05T07:59:08.596Z</time></trkpt><trkpt lat="44.4259866" lon="15.6341425"><ele>603.0</ele><time>2026-05-05T07:59:09.596Z</time></trkpt><trkpt lat="44.4262602" lon="15.6339563"><ele>603.0</ele><time>2026-05-05T07:59:10.596Z</time></trkpt><trkpt lat="44.4265333" lon="15.6337591"><ele>604.5</ele><time>2026-05-05T07:59:11.596Z</time></trkpt><trkpt lat="44.4268053" lon="15.6335632"><ele>606.0</ele><time>2026-05-05T07:59:12.595Z</time></trkpt><trkpt lat="44.4270764" lon="15.6333567"><ele>605.5</ele><time>2026-05-05T07:59:13.596Z</time></trkpt><trkpt lat="44.4273432" lon="15.6331471"><ele>605.0</ele><time>2026-05-05T07:59:14.596Z</time></trkpt><trkpt lat="44.4276118" lon="15.6329345"><ele>605.0</ele><time>2026-05-05T07:59:15.596Z</time></trkpt><trkpt lat="44.4278757" lon="15.6327156"><ele>605.0</ele><time>2026-05-05T07:59:16.596Z</time></trkpt><trkpt lat="44.428142" lon="15.6325023"><ele>605.0</ele><time>2026-05-05T07:59:17.595Z</time></trkpt><trkpt lat="44.4284129" lon="15.6322759"><ele>605.0</ele><time>2026-05-05T07:59:18.595Z</time></trkpt><trkpt lat="44.4286799" lon="15.6320523"><ele>607.0</ele><time>2026-05-05T07:59:19.596Z</time></trkpt><trkpt lat="44.4289436" lon="15.6318195"><ele>609.0</ele><time>2026-05-05T07:59:20.596Z</time></trkpt><trkpt lat="44.4292062" lon="15.6315721"><ele>609.0</ele><time>2026-05-05T07:59:21.595Z</time></trkpt><trkpt lat="44.4294644" lon="15.631336"><ele>609.0</ele><time>2026-05-05T07:59:22.595Z</time></trkpt><trkpt lat="44.42972" lon="15.6310839"><ele>609.5</ele><time>2026-05-05T07:59:23.596Z</time></trkpt><trkpt lat="44.4299862" lon="15.6308003"><ele>610.0</ele><time>2026-05-05T07:59:24.595Z</time></trkpt><trkpt lat="44.4302396" lon="15.6305497"><ele>611.0</ele><time>2026-05-05T07:59:25.596Z</time></trkpt><trkpt lat="44.4304935" lon="15.6302957"><ele>612.0</ele><time>2026-05-05T07:59:26.596Z</time></trkpt><trkpt lat="44.4307382" lon="15.6300494"><ele>612.0</ele><time>2026-05-05T07:59:27.595Z</time></trkpt><trkpt lat="44.4309884" lon="15.6297895"><ele>612.0</ele><time>2026-05-05T07:59:28.595Z</time></trkpt><trkpt lat="44.4312327" lon="15.6295393"><ele>608.5</ele><time>2026-05-05T07:59:29.596Z</time></trkpt><trkpt lat="44.4314717" lon="15.6292841"><ele>605.0</ele><time>2026-05-05T07:59:30.595Z</time></trkpt><trkpt lat="44.4317145" lon="15.6290265"><ele>605.0</ele><time>2026-05-05T07:59:31.596Z</time></trkpt><trkpt lat="44.4319518" lon="15.6287677"><ele>605.0</ele><time>2026-05-05T07:59:32.596Z</time></trkpt><trkpt lat="44.4321888" lon="15.6285063"><ele>606.0</ele><time>2026-05-05T07:59:33.596Z</time></trkpt><trkpt lat="44.4324233" lon="15.6282412"><ele>607.0</ele><time>2026-05-05T07:59:34.595Z</time></trkpt><trkpt lat="44.4326649" lon="15.6279641"><ele>605.5</ele><time>2026-05-05T07:59:35.596Z</time></trkpt><trkpt lat="44.4329049" lon="15.6277045"><ele>604.0</ele><time>2026-05-05T07:59:36.596Z</time></trkpt><trkpt lat="44.4331473" lon="15.6274461"><ele>605.5</ele><time>2026-05-05T07:59:37.596Z</time></trkpt><trkpt lat="44.4333834" lon="15.6271703"><ele>607.0</ele><time>2026-05-05T07:59:38.595Z</time></trkpt><trkpt lat="44.4336218" lon="15.6269134"><ele>607.0</ele><time>2026-05-05T07:59:39.596Z</time></trkpt><trkpt lat="44.4338597" lon="15.6266472"><ele>607.0</ele><time>2026-05-05T07:59:40.596Z</time></trkpt><trkpt lat="44.4341015" lon="15.6263914"><ele>606.0</ele><time>2026-05-05T07:59:41.595Z</time></trkpt><trkpt lat="44.4343414" lon="15.6261298"><ele>605.0</ele><time>2026-05-05T07:59:42.595Z</time></trkpt><trkpt lat="44.4345842" lon="15.6258779"><ele>602.0</ele><time>2026-05-05T07:59:43.596Z</time></trkpt><trkpt lat="44.4348262" lon="15.6256286"><ele>599.0</ele><time>2026-05-05T07:59:44.596Z</time></trkpt><trkpt lat="44.4350674" lon="15.6253784"><ele>599.0</ele><time>2026-05-05T07:59:45.595Z</time></trkpt><trkpt lat="44.4353126" lon="15.6251274"><ele>599.0</ele><time>2026-05-05T07:59:46.595Z</time></trkpt><trkpt lat="44.4355517" lon="15.6248864"><ele>599.0</ele><time>2026-05-05T07:59:47.595Z</time></trkpt><trkpt lat="44.4357934" lon="15.6246461"><ele>599.0</ele><time>2026-05-05T07:59:48.596Z</time></trkpt><trkpt lat="44.4360381" lon="15.6243973"><ele>599.0</ele><time>2026-05-05T07:59:49.595Z</time></trkpt><trkpt lat="44.4362858" lon="15.6241497"><ele>599.0</ele><time>2026-05-05T07:59:50.596Z</time></trkpt><trkpt lat="44.4365333" lon="15.6239104"><ele>599.0</ele><time>2026-05-05T07:59:51.596Z</time></trkpt><trkpt lat="44.4367833" lon="15.6236797"><ele>599.0</ele><time>2026-05-05T07:59:52.596Z</time></trkpt><trkpt lat="44.4370361" lon="15.6234435"><ele>600.0</ele><time>2026-05-05T07:59:53.596Z</time></trkpt><trkpt lat="44.4372851" lon="15.6232052"><ele>601.0</ele><time>2026-05-05T07:59:54.596Z</time></trkpt><trkpt lat="44.4375396" lon="15.6229583"><ele>600.5</ele><time>2026-05-05T07:59:55.595Z</time></trkpt><trkpt lat="44.4377973" lon="15.6226764"><ele>600.0</ele><time>2026-05-05T07:59:56.596Z</time></trkpt><trkpt lat="44.438053" lon="15.6224455"><ele>599.0</ele><time>2026-05-05T07:59:57.596Z</time></trkpt><trkpt lat="44.4383103" lon="15.6222202"><ele>598.0</ele><time>2026-05-05T07:59:58.596Z</time></trkpt><trkpt lat="44.4385686" lon="15.6219904"><ele>600.5</ele><time>2026-05-05T07:59:59.596Z</time></trkpt><trkpt lat="44.4388288" lon="15.6217688"><ele>603.0</ele><time>2026-05-05T08:00:00.596Z</time></trkpt><trkpt lat="44.4390885" lon="15.6215452"><ele>603.0</ele><time>2026-05-05T08:00:01.595Z</time></trkpt><trkpt lat="44.4393497" lon="15.6213253"><ele>603.0</ele><time>2026-05-05T08:00:02.596Z</time></trkpt><trkpt lat="44.4396087" lon="15.6211009"><ele>602.5</ele><time>2026-05-05T08:00:03.595Z</time></trkpt><trkpt lat="44.4398692" lon="15.6208792"><ele>602.0</ele><time>2026-05-05T08:00:04.595Z</time></trkpt><trkpt lat="44.4401227" lon="15.6206633"><ele>602.0</ele><time>2026-05-05T08:00:05.595Z</time></trkpt><trkpt lat="44.440378" lon="15.6204399"><ele>602.0</ele><time>2026-05-05T08:00:06.596Z</time></trkpt><trkpt lat="44.4406341" lon="15.6202368"><ele>601.0</ele><time>2026-05-05T08:00:07.595Z</time></trkpt><trkpt lat="44.4408921" lon="15.6200237"><ele>600.0</ele><time>2026-05-05T08:00:08.596Z</time></trkpt><trkpt lat="44.4411519" lon="15.6198145"><ele>599.0</ele><time>2026-05-05T08:00:09.596Z</time></trkpt><trkpt lat="44.4414112" lon="15.6196099"><ele>598.0</ele><time>2026-05-05T08:00:10.595Z</time></trkpt><trkpt lat="44.4416649" lon="15.6193987"><ele>598.0</ele><time>2026-05-05T08:00:11.596Z</time></trkpt><trkpt lat="44.4419233" lon="15.6191988"><ele>598.0</ele><time>2026-05-05T08:00:12.596Z</time></trkpt><trkpt lat="44.4421816" lon="15.6190026"><ele>597.5</ele><time>2026-05-05T08:00:13.595Z</time></trkpt><trkpt lat="44.4424406" lon="15.6188138"><ele>597.0</ele><time>2026-05-05T08:00:14.596Z</time></trkpt><trkpt lat="44.4427002" lon="15.6186213"><ele>597.0</ele><time>2026-05-05T08:00:15.596Z</time></trkpt><trkpt lat="44.4429629" lon="15.6184261"><ele>597.0</ele><time>2026-05-05T08:00:16.595Z</time></trkpt><trkpt lat="44.4432255" lon="15.6182321"><ele>598.0</ele><time>2026-05-05T08:00:17.596Z</time></trkpt><trkpt lat="44.4434863" lon="15.6180424"><ele>599.0</ele><time>2026-05-05T08:00:18.595Z</time></trkpt><trkpt lat="44.4437645" lon="15.6178162"><ele>600.5</ele><time>2026-05-05T08:00:19.596Z</time></trkpt><trkpt lat="44.4440294" lon="15.6176244"><ele>602.0</ele><time>2026-05-05T08:00:20.596Z</time></trkpt><trkpt lat="44.444294" lon="15.6174178"><ele>602.0</ele><time>2026-05-05T08:00:21.596Z</time></trkpt><trkpt lat="44.4445617" lon="15.617236"><ele>602.0</ele><time>2026-05-05T08:00:22.596Z</time></trkpt><trkpt lat="44.4448308" lon="15.6170477"><ele>600.5</ele><time>2026-05-05T08:00:23.596Z</time></trkpt><trkpt lat="44.4451023" lon="15.6168663"><ele>599.0</ele><time>2026-05-05T08:00:24.595Z</time></trkpt><trkpt lat="44.4453726" lon="15.616688"><ele>602.5</ele><time>2026-05-05T08:00:25.596Z</time></trkpt><trkpt lat="44.4456456" lon="15.6165117"><ele>606.0</ele><time>2026-05-05T08:00:26.595Z</time></trkpt><trkpt lat="44.4459123" lon="15.6163429"><ele>606.0</ele><time>2026-05-05T08:00:27.596Z</time></trkpt><trkpt lat="44.446188" lon="15.6161807"><ele>606.0</ele><time>2026-05-05T08:00:28.596Z</time></trkpt><trkpt lat="44.4464555" lon="15.616006"><ele>605.5</ele><time>2026-05-05T08:00:29.596Z</time></trkpt><trkpt lat="44.4467284" lon="15.6158369"><ele>605.0</ele><time>2026-05-05T08:00:30.595Z</time></trkpt><trkpt lat="44.446999" lon="15.6156777"><ele>604.5</ele><time>2026-05-05T08:00:31.595Z</time></trkpt><trkpt lat="44.4472707" lon="15.6155147"><ele>604.0</ele><time>2026-05-05T08:00:32.596Z</time></trkpt><trkpt lat="44.4475425" lon="15.6153631"><ele>605.0</ele><time>2026-05-05T08:00:33.595Z</time></trkpt><trkpt lat="44.4478133" lon="15.6152021"><ele>606.0</ele><time>2026-05-05T08:00:34.595Z</time></trkpt><trkpt lat="44.448082" lon="15.6150388"><ele>606.0</ele><time>2026-05-05T08:00:35.596Z</time></trkpt><trkpt lat="44.4483524" lon="15.6148773"><ele>606.0</ele><time>2026-05-05T08:00:36.595Z</time></trkpt><trkpt lat="44.4486246" lon="15.61471"><ele>604.5</ele><time>2026-05-05T08:00:37.596Z</time></trkpt><trkpt lat="44.4488922" lon="15.6145345"><ele>603.0</ele><time>2026-05-05T08:00:38.596Z</time></trkpt><trkpt lat="44.4491592" lon="15.6143684"><ele>602.5</ele><time>2026-05-05T08:00:39.596Z</time></trkpt><trkpt lat="44.44943" lon="15.6142"><ele>602.0</ele><time>2026-05-05T08:00:40.596Z</time></trkpt><trkpt lat="44.4497003" lon="15.6140232"><ele>601.5</ele><time>2026-05-05T08:00:41.595Z</time></trkpt><trkpt lat="44.4499707" lon="15.6138443"><ele>601.0</ele><time>2026-05-05T08:00:42.596Z</time></trkpt><trkpt lat="44.4502396" lon="15.613661"><ele>601.0</ele><time>2026-05-05T08:00:43.595Z</time></trkpt><trkpt lat="44.4505077" lon="15.6134554"><ele>601.0</ele><time>2026-05-05T08:00:44.596Z</time></trkpt><trkpt lat="44.4507743" lon="15.6132503"><ele>601.0</ele><time>2026-05-05T08:00:45.595Z</time></trkpt><trkpt lat="44.451041" lon="15.6130513"><ele>601.0</ele><time>2026-05-05T08:00:46.595Z</time></trkpt><trkpt lat="44.4513115" lon="15.6128261"><ele>599.5</ele><time>2026-05-05T08:00:47.596Z</time></trkpt><trkpt lat="44.4515811" lon="15.6126177"><ele>598.0</ele><time>2026-05-05T08:00:48.595Z</time></trkpt><trkpt lat="44.4518531" lon="15.6124115"><ele>598.0</ele><time>2026-05-05T08:00:49.596Z</time></trkpt><trkpt lat="44.4521212" lon="15.612207"><ele>598.0</ele><time>2026-05-05T08:00:50.595Z</time></trkpt><trkpt lat="44.4523924" lon="15.6119932"><ele>600.0</ele><time>2026-05-05T08:00:51.596Z</time></trkpt><trkpt lat="44.4526547" lon="15.6117933"><ele>602.0</ele><time>2026-05-05T08:00:52.596Z</time></trkpt><trkpt lat="44.4529267" lon="15.6115851"><ele>603.0</ele><time>2026-05-05T08:00:53.596Z</time></trkpt><trkpt lat="44.453189" lon="15.6113722"><ele>604.0</ele><time>2026-05-05T08:00:54.595Z</time></trkpt><trkpt lat="44.4534543" lon="15.6111645"><ele>603.0</ele><time>2026-05-05T08:00:55.596Z</time></trkpt><trkpt lat="44.4537212" lon="15.6109456"><ele>602.0</ele><time>2026-05-05T08:00:56.595Z</time></trkpt><trkpt lat="44.4539916" lon="15.6107377"><ele>601.0</ele><time>2026-05-05T08:00:57.596Z</time></trkpt><trkpt lat="44.4542591" lon="15.6105309"><ele>600.0</ele><time>2026-05-05T08:00:58.595Z</time></trkpt><trkpt lat="44.4545268" lon="15.610319"><ele>600.5</ele><time>2026-05-05T08:00:59.595Z</time></trkpt><trkpt lat="44.4547895" lon="15.6101046"><ele>601.0</ele><time>2026-05-05T08:01:00.596Z</time></trkpt><trkpt lat="44.455053" lon="15.6098892"><ele>601.0</ele><time>2026-05-05T08:01:01.596Z</time></trkpt><trkpt lat="44.4553169" lon="15.6096648"><ele>601.0</ele><time>2026-05-05T08:01:02.596Z</time></trkpt><trkpt lat="44.4555807" lon="15.6094404"><ele>601.0</ele><time>2026-05-05T08:01:03.596Z</time></trkpt><trkpt lat="44.4558404" lon="15.6092146"><ele>601.0</ele><time>2026-05-05T08:01:04.596Z</time></trkpt><trkpt lat="44.4560957" lon="15.608988"><ele>601.0</ele><time>2026-05-05T08:01:05.596Z</time></trkpt><trkpt lat="44.4563555" lon="15.608756"><ele>601.0</ele><time>2026-05-05T08:01:06.596Z</time></trkpt><trkpt lat="44.456614" lon="15.6085178"><ele>601.0</ele><time>2026-05-05T08:01:07.595Z</time></trkpt><trkpt lat="44.4568696" lon="15.6082788"><ele>601.0</ele><time>2026-05-05T08:01:08.596Z</time></trkpt><trkpt lat="44.4571214" lon="15.6080355"><ele>600.5</ele><time>2026-05-05T08:01:09.595Z</time></trkpt><trkpt lat="44.457374" lon="15.6077826"><ele>600.0</ele><time>2026-05-05T08:01:10.596Z</time></trkpt><trkpt lat="44.4576249" lon="15.607536"><ele>600.0</ele><time>2026-05-05T08:01:11.596Z</time></trkpt><trkpt lat="44.4578749" lon="15.6072917"><ele>600.0</ele><time>2026-05-05T08:01:12.595Z</time></trkpt><trkpt lat="44.458124" lon="15.6070366"><ele>599.0</ele><time>2026-05-05T08:01:13.596Z</time></trkpt><trkpt lat="44.4583753" lon="15.6067807"><ele>598.0</ele><time>2026-05-05T08:01:14.595Z</time></trkpt><trkpt lat="44.4586214" lon="15.6065203"><ele>599.5</ele><time>2026-05-05T08:01:15.596Z</time></trkpt><trkpt lat="44.458868" lon="15.6062647"><ele>601.0</ele><time>2026-05-05T08:01:16.596Z</time></trkpt><trkpt lat="44.4591143" lon="15.606008"><ele>601.0</ele><time>2026-05-05T08:01:17.595Z</time></trkpt><trkpt lat="44.4593601" lon="15.6057524"><ele>601.0</ele><time>2026-05-05T08:01:18.595Z</time></trkpt><trkpt lat="44.4596069" lon="15.6054903"><ele>599.5</ele><time>2026-05-05T08:01:19.595Z</time></trkpt><trkpt lat="44.4598531" lon="15.6052402"><ele>598.0</ele><time>2026-05-05T08:01:20.595Z</time></trkpt><trkpt lat="44.4600965" lon="15.6049748"><ele>598.0</ele><time>2026-05-05T08:01:21.596Z</time></trkpt><trkpt lat="44.4603386" lon="15.604705"><ele>598.0</ele><time>2026-05-05T08:01:22.595Z</time></trkpt><trkpt lat="44.4605791" lon="15.6044278"><ele>597.5</ele><time>2026-05-05T08:01:23.596Z</time></trkpt><trkpt lat="44.4608226" lon="15.6041586"><ele>597.0</ele><time>2026-05-05T08:01:24.595Z</time></trkpt><trkpt lat="44.4610625" lon="15.6038938"><ele>596.5</ele><time>2026-05-05T08:01:25.596Z</time></trkpt><trkpt lat="44.4613036" lon="15.603629"><ele>596.0</ele><time>2026-05-05T08:01:26.596Z</time></trkpt><trkpt lat="44.4615477" lon="15.6033574"><ele>596.0</ele><time>2026-05-05T08:01:27.595Z</time></trkpt><trkpt lat="44.461787" lon="15.6030794"><ele>596.0</ele><time>2026-05-05T08:01:28.595Z</time></trkpt><trkpt lat="44.4620239" lon="15.6027875"><ele>595.5</ele><time>2026-05-05T08:01:29.596Z</time></trkpt><trkpt lat="44.4622639" lon="15.6025186"><ele>595.0</ele><time>2026-05-05T08:01:30.596Z</time></trkpt><trkpt lat="44.4624986" lon="15.6022396"><ele>595.5</ele><time>2026-05-05T08:01:31.596Z</time></trkpt><trkpt lat="44.4627329" lon="15.6019535"><ele>596.0</ele><time>2026-05-05T08:01:32.596Z</time></trkpt><trkpt lat="44.4629616" lon="15.6016635"><ele>596.5</ele><time>2026-05-05T08:01:33.596Z</time></trkpt><trkpt lat="44.4631839" lon="15.6013695"><ele>597.0</ele><time>2026-05-05T08:01:34.595Z</time></trkpt><trkpt lat="44.4634151" lon="15.6010634"><ele>597.5</ele><time>2026-05-05T08:01:35.595Z</time></trkpt><trkpt lat="44.4636436" lon="15.6007736"><ele>598.0</ele><time>2026-05-05T08:01:36.595Z</time></trkpt><trkpt lat="44.4638717" lon="15.6004845"><ele>597.0</ele><time>2026-05-05T08:01:37.595Z</time></trkpt><trkpt lat="44.4640961" lon="15.6001881"><ele>596.0</ele><time>2026-05-05T08:01:38.596Z</time></trkpt><trkpt lat="44.4643193" lon="15.5998989"><ele>596.0</ele><time>2026-05-05T08:01:39.596Z</time></trkpt><trkpt lat="44.4645496" lon="15.5996185"><ele>596.0</ele><time>2026-05-05T08:01:40.596Z</time></trkpt><trkpt lat="44.464772" lon="15.5993212"><ele>595.0</ele><time>2026-05-05T08:01:41.596Z</time></trkpt><trkpt lat="44.4649967" lon="15.5990196"><ele>594.0</ele><time>2026-05-05T08:01:42.596Z</time></trkpt><trkpt lat="44.4652254" lon="15.598724"><ele>593.0</ele><time>2026-05-05T08:01:43.596Z</time></trkpt><trkpt lat="44.4654519" lon="15.5984174"><ele>592.0</ele><time>2026-05-05T08:01:44.595Z</time></trkpt><trkpt lat="44.4656672" lon="15.5980753"><ele>594.0</ele><time>2026-05-05T08:01:45.596Z</time></trkpt><trkpt lat="44.4658905" lon="15.5977595"><ele>596.0</ele><time>2026-05-05T08:01:46.595Z</time></trkpt><trkpt lat="44.4661131" lon="15.5974448"><ele>596.0</ele><time>2026-05-05T08:01:47.595Z</time></trkpt><trkpt lat="44.4663342" lon="15.5971268"><ele>596.0</ele><time>2026-05-05T08:01:48.596Z</time></trkpt><trkpt lat="44.4665544" lon="15.596807"><ele>595.5</ele><time>2026-05-05T08:01:49.596Z</time></trkpt><trkpt lat="44.4667804" lon="15.5964943"><ele>595.0</ele><time>2026-05-05T08:01:50.596Z</time></trkpt><trkpt lat="44.4669991" lon="15.5961654"><ele>595.0</ele><time>2026-05-05T08:01:51.595Z</time></trkpt><trkpt lat="44.4672174" lon="15.5958374"><ele>595.0</ele><time>2026-05-05T08:01:52.596Z</time></trkpt><trkpt lat="44.4674267" lon="15.5954974"><ele>595.5</ele><time>2026-05-05T08:01:53.595Z</time></trkpt><trkpt lat="44.4676414" lon="15.5951548"><ele>596.0</ele><time>2026-05-05T08:01:54.595Z</time></trkpt><trkpt lat="44.4678537" lon="15.5948195"><ele>595.5</ele><time>2026-05-05T08:01:55.595Z</time></trkpt><trkpt lat="44.468065" lon="15.5944679"><ele>595.0</ele><time>2026-05-05T08:01:56.595Z</time></trkpt><trkpt lat="44.4682715" lon="15.5941283"><ele>595.0</ele><time>2026-05-05T08:01:57.596Z</time></trkpt><trkpt lat="44.4684668" lon="15.5937521"><ele>595.0</ele><time>2026-05-05T08:01:58.595Z</time></trkpt><trkpt lat="44.4686667" lon="15.5933924"><ele>596.5</ele><time>2026-05-05T08:01:59.595Z</time></trkpt><trkpt lat="44.4688614" lon="15.5930609"><ele>598.0</ele><time>2026-05-05T08:02:00.596Z</time></trkpt><trkpt lat="44.4690411" lon="15.5927087"><ele>598.5</ele><time>2026-05-05T08:02:01.596Z</time></trkpt><trkpt lat="44.4692306" lon="15.5923828"><ele>599.0</ele><time>2026-05-05T08:02:02.596Z</time></trkpt><trkpt lat="44.4694175" lon="15.5920557"><ele>599.0</ele><time>2026-05-05T08:02:03.595Z</time></trkpt><trkpt lat="44.4695991" lon="15.5917275"><ele>599.0</ele><time>2026-05-05T08:02:04.595Z</time></trkpt><trkpt lat="44.4697805" lon="15.5914311"><ele>598.0</ele><time>2026-05-05T08:02:05.595Z</time></trkpt><trkpt lat="44.4699412" lon="15.5911352"><ele>597.0</ele><time>2026-05-05T08:02:06.596Z</time></trkpt><trkpt lat="44.470138" lon="15.5907811"><ele>597.0</ele><time>2026-05-05T08:02:07.596Z</time></trkpt><trkpt lat="44.4703131" lon="15.5904602"><ele>597.0</ele><time>2026-05-05T08:02:08.596Z</time></trkpt><trkpt lat="44.4704911" lon="15.5901381"><ele>597.0</ele><time>2026-05-05T08:02:09.596Z</time></trkpt><trkpt lat="44.4706683" lon="15.589815"><ele>597.0</ele><time>2026-05-05T08:02:10.596Z</time></trkpt><trkpt lat="44.470846" lon="15.589483"><ele>597.5</ele><time>2026-05-05T08:02:11.595Z</time></trkpt><trkpt lat="44.4710207" lon="15.5891499"><ele>598.0</ele><time>2026-05-05T08:02:12.595Z</time></trkpt><trkpt lat="44.4711934" lon="15.5888161"><ele>596.5</ele><time>2026-05-05T08:02:13.595Z</time></trkpt><trkpt lat="44.4713672" lon="15.5884818"><ele>595.0</ele><time>2026-05-05T08:02:14.595Z</time></trkpt><trkpt lat="44.4715376" lon="15.5881509"><ele>594.0</ele><time>2026-05-05T08:02:15.596Z</time></trkpt><trkpt lat="44.4717064" lon="15.5878242"><ele>593.0</ele><time>2026-05-05T08:02:16.595Z</time></trkpt><trkpt lat="44.4718756" lon="15.5874956"><ele>593.0</ele><time>2026-05-05T08:02:17.596Z</time></trkpt><trkpt lat="44.472045" lon="15.5871675"><ele>593.0</ele><time>2026-05-05T08:02:18.596Z</time></trkpt><trkpt lat="44.4722126" lon="15.5868323"><ele>594.0</ele><time>2026-05-05T08:02:19.596Z</time></trkpt><trkpt lat="44.4723807" lon="15.5864953"><ele>595.0</ele><time>2026-05-05T08:02:20.595Z</time></trkpt><trkpt lat="44.4725498" lon="15.5861638"><ele>595.0</ele><time>2026-05-05T08:02:21.596Z</time></trkpt><trkpt lat="44.4727048" lon="15.5857778"><ele>595.0</ele><time>2026-05-05T08:02:22.596Z</time></trkpt><trkpt lat="44.4728752" lon="15.5854357"><ele>595.0</ele><time>2026-05-05T08:02:23.596Z</time></trkpt><trkpt lat="44.4730572" lon="15.5850428"><ele>595.0</ele><time>2026-05-05T08:02:24.595Z</time></trkpt><trkpt lat="44.4732159" lon="15.584693"><ele>594.5</ele><time>2026-05-05T08:02:25.595Z</time></trkpt><trkpt lat="44.4733717" lon="15.5843415"><ele>594.0</ele><time>2026-05-05T08:02:26.596Z</time></trkpt><trkpt lat="44.4735254" lon="15.5840024"><ele>594.5</ele><time>2026-05-05T08:02:27.595Z</time></trkpt><trkpt lat="44.47368" lon="15.5836534"><ele>595.0</ele><time>2026-05-05T08:02:28.595Z</time></trkpt><trkpt lat="44.473828" lon="15.5832771"><ele>595.0</ele><time>2026-05-05T08:02:29.595Z</time></trkpt><trkpt lat="44.4739808" lon="15.5829346"><ele>595.0</ele><time>2026-05-05T08:02:30.595Z</time></trkpt><trkpt lat="44.4741309" lon="15.5825774"><ele>595.0</ele><time>2026-05-05T08:02:31.596Z</time></trkpt><trkpt lat="44.4742792" lon="15.5822193"><ele>595.0</ele><time>2026-05-05T08:02:32.596Z</time></trkpt><trkpt lat="44.4744249" lon="15.5818659"><ele>595.0</ele><time>2026-05-05T08:02:33.596Z</time></trkpt><trkpt lat="44.4745699" lon="15.5815113"><ele>595.0</ele><time>2026-05-05T08:02:34.596Z</time></trkpt><trkpt lat="44.4747156" lon="15.5811552"><ele>594.5</ele><time>2026-05-05T08:02:35.596Z</time></trkpt><trkpt lat="44.4748602" lon="15.5807743"><ele>594.0</ele><time>2026-05-05T08:02:36.595Z</time></trkpt><trkpt lat="44.4750002" lon="15.5804155"><ele>593.0</ele><time>2026-05-05T08:02:37.595Z</time></trkpt><trkpt lat="44.4751356" lon="15.5800535"><ele>592.0</ele><time>2026-05-05T08:02:38.596Z</time></trkpt><trkpt lat="44.4752779" lon="15.5796869"><ele>591.5</ele><time>2026-05-05T08:02:39.595Z</time></trkpt><trkpt lat="44.4754162" lon="15.5793249"><ele>591.0</ele><time>2026-05-05T08:02:40.595Z</time></trkpt><trkpt lat="44.4755559" lon="15.5789581"><ele>593.0</ele><time>2026-05-05T08:02:41.596Z</time></trkpt><trkpt lat="44.4756927" lon="15.5785855"><ele>595.0</ele><time>2026-05-05T08:02:42.596Z</time></trkpt><trkpt lat="44.4758286" lon="15.5782114"><ele>595.5</ele><time>2026-05-05T08:02:43.596Z</time></trkpt><trkpt lat="44.4759631" lon="15.577837"><ele>596.0</ele><time>2026-05-05T08:02:44.596Z</time></trkpt><trkpt lat="44.4760982" lon="15.5774592"><ele>596.0</ele><time>2026-05-05T08:02:45.596Z</time></trkpt><trkpt lat="44.4762341" lon="15.5770727"><ele>596.0</ele><time>2026-05-05T08:02:46.595Z</time></trkpt><trkpt lat="44.4763705" lon="15.5766747"><ele>596.0</ele><time>2026-05-05T08:02:47.595Z</time></trkpt><trkpt lat="44.4765026" lon="15.5762837"><ele>596.0</ele><time>2026-05-05T08:02:48.596Z</time></trkpt><trkpt lat="44.4766319" lon="15.575895"><ele>596.0</ele><time>2026-05-05T08:02:49.595Z</time></trkpt><trkpt lat="44.4767596" lon="15.5755027"><ele>596.0</ele><time>2026-05-05T08:02:50.595Z</time></trkpt><trkpt lat="44.4768847" lon="15.5751139"><ele>595.5</ele><time>2026-05-05T08:02:51.596Z</time></trkpt><trkpt lat="44.4770087" lon="15.5747209"><ele>595.0</ele><time>2026-05-05T08:02:52.596Z</time></trkpt><trkpt lat="44.4771302" lon="15.5743304"><ele>593.5</ele><time>2026-05-05T08:02:53.595Z</time></trkpt><trkpt lat="44.4772524" lon="15.5739364"><ele>592.0</ele><time>2026-05-05T08:02:54.596Z</time></trkpt><trkpt lat="44.4773731" lon="15.5735414"><ele>592.0</ele><time>2026-05-05T08:02:55.595Z</time></trkpt><trkpt lat="44.4774924" lon="15.5731508"><ele>592.0</ele><time>2026-05-05T08:02:56.595Z</time></trkpt><trkpt lat="44.4776114" lon="15.572755"><ele>593.5</ele><time>2026-05-05T08:02:57.595Z</time></trkpt><trkpt lat="44.4777289" lon="15.5723625"><ele>595.0</ele><time>2026-05-05T08:02:58.596Z</time></trkpt><trkpt lat="44.477847" lon="15.5719506"><ele>595.5</ele><time>2026-05-05T08:02:59.596Z</time></trkpt><trkpt lat="44.4779752" lon="15.5715374"><ele>596.0</ele><time>2026-05-05T08:03:00.596Z</time></trkpt><trkpt lat="44.4780861" lon="15.5711324"><ele>596.0</ele><time>2026-05-05T08:03:01.595Z</time></trkpt><trkpt lat="44.4781863" lon="15.5707238"><ele>596.0</ele><time>2026-05-05T08:03:02.596Z</time></trkpt><trkpt lat="44.4782959" lon="15.5703164"><ele>595.0</ele><time>2026-05-05T08:03:03.595Z</time></trkpt><trkpt lat="44.4784038" lon="15.5699122"><ele>594.0</ele><time>2026-05-05T08:03:04.595Z</time></trkpt><trkpt lat="44.4785062" lon="15.5695084"><ele>593.5</ele><time>2026-05-05T08:03:05.595Z</time></trkpt><trkpt lat="44.4786092" lon="15.569103"><ele>593.0</ele><time>2026-05-05T08:03:06.595Z</time></trkpt><trkpt lat="44.4787088" lon="15.5687014"><ele>594.0</ele><time>2026-05-05T08:03:07.596Z</time></trkpt><trkpt lat="44.4788077" lon="15.5682986"><ele>595.0</ele><time>2026-05-05T08:03:08.595Z</time></trkpt><trkpt lat="44.4789061" lon="15.5678939"><ele>595.0</ele><time>2026-05-05T08:03:09.596Z</time></trkpt><trkpt lat="44.4790027" lon="15.5674842"><ele>595.0</ele><time>2026-05-05T08:03:10.595Z</time></trkpt><trkpt lat="44.4790923" lon="15.5670829"><ele>593.5</ele><time>2026-05-05T08:03:11.596Z</time></trkpt><trkpt lat="44.4791843" lon="15.5666719"><ele>592.0</ele><time>2026-05-05T08:03:12.595Z</time></trkpt><trkpt lat="44.4792788" lon="15.5662638"><ele>592.5</ele><time>2026-05-05T08:03:13.595Z</time></trkpt><trkpt lat="44.4793664" lon="15.5658566"><ele>593.0</ele><time>2026-05-05T08:03:14.595Z</time></trkpt><trkpt lat="44.4794564" lon="15.565444"><ele>593.0</ele><time>2026-05-05T08:03:15.595Z</time></trkpt><trkpt lat="44.4795497" lon="15.565032"><ele>593.0</ele><time>2026-05-05T08:03:16.595Z</time></trkpt><trkpt lat="44.4796589" lon="15.5646153"><ele>592.0</ele><time>2026-05-05T08:03:17.596Z</time></trkpt><trkpt lat="44.479757" lon="15.5641963"><ele>591.0</ele><time>2026-05-05T08:03:18.595Z</time></trkpt><trkpt lat="44.479866" lon="15.5637795"><ele>591.0</ele><time>2026-05-05T08:03:19.595Z</time></trkpt><trkpt lat="44.4799762" lon="15.563364"><ele>591.0</ele><time>2026-05-05T08:03:20.595Z</time></trkpt><trkpt lat="44.4800959" lon="15.5629458"><ele>591.0</ele><time>2026-05-05T08:03:21.596Z</time></trkpt><trkpt lat="44.4802136" lon="15.5625237"><ele>591.0</ele><time>2026-05-05T08:03:22.596Z</time></trkpt><trkpt lat="44.480324" lon="15.5621045"><ele>591.5</ele><time>2026-05-05T08:03:23.595Z</time></trkpt><trkpt lat="44.4804437" lon="15.5616847"><ele>592.0</ele><time>2026-05-05T08:03:24.595Z</time></trkpt><trkpt lat="44.4805652" lon="15.5612594"><ele>593.0</ele><time>2026-05-05T08:03:25.596Z</time></trkpt><trkpt lat="44.4806888" lon="15.5608479"><ele>594.0</ele><time>2026-05-05T08:03:26.596Z</time></trkpt><trkpt lat="44.480813" lon="15.5604387"><ele>593.0</ele><time>2026-05-05T08:03:27.595Z</time></trkpt><trkpt lat="44.4809338" lon="15.5600273"><ele>592.0</ele><time>2026-05-05T08:03:28.595Z</time></trkpt><trkpt lat="44.4810593" lon="15.5596216"><ele>592.0</ele><time>2026-05-05T08:03:29.595Z</time></trkpt><trkpt lat="44.4811912" lon="15.5592048"><ele>592.0</ele><time>2026-05-05T08:03:30.595Z</time></trkpt><trkpt lat="44.4813253" lon="15.5588078"><ele>590.5</ele><time>2026-05-05T08:03:31.595Z</time></trkpt><trkpt lat="44.4814582" lon="15.5584093"><ele>589.0</ele><time>2026-05-05T08:03:32.596Z</time></trkpt><trkpt lat="44.4815912" lon="15.5580192"><ele>589.0</ele><time>2026-05-05T08:03:33.595Z</time></trkpt><trkpt lat="44.4817205" lon="15.55763"><ele>589.0</ele><time>2026-05-05T08:03:34.596Z</time></trkpt><trkpt lat="44.4818563" lon="15.5572484"><ele>589.0</ele><time>2026-05-05T08:03:35.596Z</time></trkpt><trkpt lat="44.4819973" lon="15.556866"><ele>589.0</ele><time>2026-05-05T08:03:36.595Z</time></trkpt><trkpt lat="44.4821466" lon="15.556484"><ele>589.5</ele><time>2026-05-05T08:03:37.595Z</time></trkpt><trkpt lat="44.4822871" lon="15.5561129"><ele>590.0</ele><time>2026-05-05T08:03:38.596Z</time></trkpt><trkpt lat="44.4824334" lon="15.555748"><ele>590.0</ele><time>2026-05-05T08:03:39.596Z</time></trkpt><trkpt lat="44.4825803" lon="15.5553771"><ele>590.0</ele><time>2026-05-05T08:03:40.595Z</time></trkpt><trkpt lat="44.4827257" lon="15.5550139"><ele>590.0</ele><time>2026-05-05T08:03:41.596Z</time></trkpt><trkpt lat="44.4828736" lon="15.5546439"><ele>590.0</ele><time>2026-05-05T08:03:42.595Z</time></trkpt><trkpt lat="44.4830204" lon="15.5542774"><ele>589.5</ele><time>2026-05-05T08:03:43.595Z</time></trkpt><trkpt lat="44.4831705" lon="15.553897"><ele>589.0</ele><time>2026-05-05T08:03:44.596Z</time></trkpt><trkpt lat="44.4833248" lon="15.5535273"><ele>589.0</ele><time>2026-05-05T08:03:45.596Z</time></trkpt><trkpt lat="44.4834833" lon="15.5531568"><ele>589.0</ele><time>2026-05-05T08:03:46.596Z</time></trkpt><trkpt lat="44.4836465" lon="15.5527923"><ele>590.5</ele><time>2026-05-05T08:03:47.595Z</time></trkpt><trkpt lat="44.4838154" lon="15.5524289"><ele>592.0</ele><time>2026-05-05T08:03:48.595Z</time></trkpt><trkpt lat="44.4839882" lon="15.5520606"><ele>592.0</ele><time>2026-05-05T08:03:49.596Z</time></trkpt><trkpt lat="44.4841633" lon="15.5516901"><ele>592.0</ele><time>2026-05-05T08:03:50.595Z</time></trkpt><trkpt lat="44.4843426" lon="15.55132"><ele>591.5</ele><time>2026-05-05T08:03:51.596Z</time></trkpt><trkpt lat="44.4845292" lon="15.5509331"><ele>591.0</ele><time>2026-05-05T08:03:52.596Z</time></trkpt><trkpt lat="44.4847123" lon="15.550571"><ele>590.0</ele><time>2026-05-05T08:03:53.596Z</time></trkpt><trkpt lat="44.4849022" lon="15.5502082"><ele>589.0</ele><time>2026-05-05T08:03:54.596Z</time></trkpt><trkpt lat="44.4851008" lon="15.54987"><ele>590.0</ele><time>2026-05-05T08:03:55.595Z</time></trkpt><trkpt lat="44.4852948" lon="15.5495191"><ele>591.0</ele><time>2026-05-05T08:03:56.596Z</time></trkpt><trkpt lat="44.4854884" lon="15.5491694"><ele>591.0</ele><time>2026-05-05T08:03:57.595Z</time></trkpt><trkpt lat="44.4856859" lon="15.5488198"><ele>591.0</ele><time>2026-05-05T08:03:58.595Z</time></trkpt><trkpt lat="44.4858857" lon="15.5484727"><ele>590.5</ele><time>2026-05-05T08:03:59.595Z</time></trkpt><trkpt lat="44.4860847" lon="15.548137"><ele>590.0</ele><time>2026-05-05T08:04:00.596Z</time></trkpt><trkpt lat="44.4862887" lon="15.5477938"><ele>588.5</ele><time>2026-05-05T08:04:01.595Z</time></trkpt><trkpt lat="44.4864942" lon="15.5474481"><ele>587.0</ele><time>2026-05-05T08:04:02.596Z</time></trkpt><trkpt lat="44.4867037" lon="15.5471069"><ele>587.5</ele><time>2026-05-05T08:04:03.596Z</time></trkpt><trkpt lat="44.4869142" lon="15.5467709"><ele>588.0</ele><time>2026-05-05T08:04:04.595Z</time></trkpt><trkpt lat="44.4871304" lon="15.5464404"><ele>588.5</ele><time>2026-05-05T08:04:05.596Z</time></trkpt><trkpt lat="44.4873438" lon="15.5461109"><ele>589.0</ele><time>2026-05-05T08:04:06.595Z</time></trkpt><trkpt lat="44.487563" lon="15.5457845"><ele>589.0</ele><time>2026-05-05T08:04:07.596Z</time></trkpt><trkpt lat="44.4877829" lon="15.5454603"><ele>589.0</ele><time>2026-05-05T08:04:08.595Z</time></trkpt><trkpt lat="44.4880087" lon="15.5451407"><ele>588.0</ele><time>2026-05-05T08:04:09.596Z</time></trkpt><trkpt lat="44.4882301" lon="15.5448239"><ele>587.0</ele><time>2026-05-05T08:04:10.596Z</time></trkpt><trkpt lat="44.4884584" lon="15.5445147"><ele>587.0</ele><time>2026-05-05T08:04:11.596Z</time></trkpt><trkpt lat="44.4886888" lon="15.5442057"><ele>587.0</ele><time>2026-05-05T08:04:12.595Z</time></trkpt><trkpt lat="44.488909" lon="15.5438139"><ele>586.5</ele><time>2026-05-05T08:04:13.595Z</time></trkpt><trkpt lat="44.4891291" lon="15.5435419"><ele>586.0</ele><time>2026-05-05T08:04:14.595Z</time></trkpt><trkpt lat="44.4893551" lon="15.5432445"><ele>586.0</ele><time>2026-05-05T08:04:15.596Z</time></trkpt><trkpt lat="44.4895818" lon="15.5429496"><ele>586.0</ele><time>2026-05-05T08:04:16.595Z</time></trkpt><trkpt lat="44.4898101" lon="15.5426696"><ele>586.5</ele><time>2026-05-05T08:04:17.596Z</time></trkpt><trkpt lat="44.4900411" lon="15.5423985"><ele>587.0</ele><time>2026-05-05T08:04:18.596Z</time></trkpt><trkpt lat="44.4902756" lon="15.542122"><ele>586.5</ele><time>2026-05-05T08:04:19.595Z</time></trkpt><trkpt lat="44.4905038" lon="15.5418679"><ele>586.0</ele><time>2026-05-05T08:04:20.595Z</time></trkpt><trkpt lat="44.4907473" lon="15.5415899"><ele>586.0</ele><time>2026-05-05T08:04:21.595Z</time></trkpt><trkpt lat="44.4909838" lon="15.5413172"><ele>586.0</ele><time>2026-05-05T08:04:22.595Z</time></trkpt><trkpt lat="44.4912163" lon="15.541045"><ele>584.0</ele><time>2026-05-05T08:04:23.595Z</time></trkpt><trkpt lat="44.4914479" lon="15.5407852"><ele>582.0</ele><time>2026-05-05T08:04:24.595Z</time></trkpt><trkpt lat="44.4916881" lon="15.5405214"><ele>583.0</ele><time>2026-05-05T08:04:25.595Z</time></trkpt><trkpt lat="44.4919347" lon="15.5402626"><ele>584.0</ele><time>2026-05-05T08:04:26.595Z</time></trkpt><trkpt lat="44.4921772" lon="15.5400066"><ele>584.0</ele><time>2026-05-05T08:04:27.596Z</time></trkpt><trkpt lat="44.4924244" lon="15.5397501"><ele>584.0</ele><time>2026-05-05T08:04:28.595Z</time></trkpt><trkpt lat="44.4926768" lon="15.5394959"><ele>586.5</ele><time>2026-05-05T08:04:29.595Z</time></trkpt><trkpt lat="44.4929234" lon="15.5392442"><ele>589.0</ele><time>2026-05-05T08:04:30.596Z</time></trkpt><trkpt lat="44.4931678" lon="15.539029"><ele>589.0</ele><time>2026-05-05T08:04:31.596Z</time></trkpt><trkpt lat="44.4934138" lon="15.5387844"><ele>589.0</ele><time>2026-05-05T08:04:32.595Z</time></trkpt><trkpt lat="44.4936602" lon="15.5385246"><ele>585.0</ele><time>2026-05-05T08:04:33.595Z</time></trkpt><trkpt lat="44.493912" lon="15.5382838"><ele>581.0</ele><time>2026-05-05T08:04:34.596Z</time></trkpt><trkpt lat="44.4941619" lon="15.5380539"><ele>582.0</ele><time>2026-05-05T08:04:35.596Z</time></trkpt><trkpt lat="44.4944157" lon="15.5378226"><ele>583.0</ele><time>2026-05-05T08:04:36.596Z</time></trkpt><trkpt lat="44.4946708" lon="15.5375921"><ele>583.5</ele><time>2026-05-05T08:04:37.595Z</time></trkpt><trkpt lat="44.4949327" lon="15.5373592"><ele>584.0</ele><time>2026-05-05T08:04:38.595Z</time></trkpt><trkpt lat="44.4951884" lon="15.5371342"><ele>585.0</ele><time>2026-05-05T08:04:39.596Z</time></trkpt><trkpt lat="44.4954468" lon="15.5369053"><ele>586.0</ele><time>2026-05-05T08:04:40.595Z</time></trkpt><trkpt lat="44.495707" lon="15.5366759"><ele>586.0</ele><time>2026-05-05T08:04:41.595Z</time></trkpt><trkpt lat="44.4959692" lon="15.5364522"><ele>586.0</ele><time>2026-05-05T08:04:42.595Z</time></trkpt><trkpt lat="44.4962217" lon="15.5362147"><ele>587.0</ele><time>2026-05-05T08:04:43.596Z</time></trkpt><trkpt lat="44.4964713" lon="15.5359846"><ele>588.0</ele><time>2026-05-05T08:04:44.595Z</time></trkpt><trkpt lat="44.4967353" lon="15.5357485"><ele>588.0</ele><time>2026-05-05T08:04:45.596Z</time></trkpt><trkpt lat="44.4969953" lon="15.5355175"><ele>588.0</ele><time>2026-05-05T08:04:46.595Z</time></trkpt><trkpt lat="44.4972547" lon="15.5352952"><ele>586.5</ele><time>2026-05-05T08:04:47.596Z</time></trkpt><trkpt lat="44.4975125" lon="15.5350653"><ele>585.0</ele><time>2026-05-05T08:04:48.596Z</time></trkpt><trkpt lat="44.4977698" lon="15.5348404"><ele>586.0</ele><time>2026-05-05T08:04:49.596Z</time></trkpt><trkpt lat="44.4980247" lon="15.5346021"><ele>587.0</ele><time>2026-05-05T08:04:50.595Z</time></trkpt><trkpt lat="44.4982789" lon="15.5343748"><ele>587.0</ele><time>2026-05-05T08:04:51.595Z</time></trkpt><trkpt lat="44.4985284" lon="15.534142"><ele>587.0</ele><time>2026-05-05T08:04:52.596Z</time></trkpt><trkpt lat="44.4987786" lon="15.5339035"><ele>588.5</ele><time>2026-05-05T08:04:53.596Z</time></trkpt><trkpt lat="44.4990306" lon="15.5336743"><ele>590.0</ele><time>2026-05-05T08:04:54.596Z</time></trkpt><trkpt lat="44.4992719" lon="15.5334381"><ele>590.0</ele><time>2026-05-05T08:04:55.596Z</time></trkpt><trkpt lat="44.4995247" lon="15.5331979"><ele>590.0</ele><time>2026-05-05T08:04:56.595Z</time></trkpt><trkpt lat="44.4997722" lon="15.5329626"><ele>589.5</ele><time>2026-05-05T08:04:57.596Z</time></trkpt><trkpt lat="44.5000196" lon="15.5327129"><ele>589.0</ele><time>2026-05-05T08:04:58.595Z</time></trkpt><trkpt lat="44.5002625" lon="15.5324592"><ele>588.0</ele><time>2026-05-05T08:04:59.596Z</time></trkpt><trkpt lat="44.5004967" lon="15.5322017"><ele>587.0</ele><time>2026-05-05T08:05:00.595Z</time></trkpt><trkpt lat="44.5007323" lon="15.5319544"><ele>584.5</ele><time>2026-05-05T08:05:01.596Z</time></trkpt><trkpt lat="44.5009627" lon="15.5317019"><ele>582.0</ele><time>2026-05-05T08:05:02.595Z</time></trkpt><trkpt lat="44.5011887" lon="15.5314501"><ele>581.0</ele><time>2026-05-05T08:05:03.595Z</time></trkpt><trkpt lat="44.5014192" lon="15.5311952"><ele>580.0</ele><time>2026-05-05T08:05:04.596Z</time></trkpt><trkpt lat="44.5016542" lon="15.5309519"><ele>580.0</ele><time>2026-05-05T08:05:05.596Z</time></trkpt><trkpt lat="44.5018795" lon="15.5306929"><ele>580.0</ele><time>2026-05-05T08:05:06.596Z</time></trkpt><trkpt lat="44.5021112" lon="15.53043"><ele>581.5</ele><time>2026-05-05T08:05:07.595Z</time></trkpt><trkpt lat="44.5023253" lon="15.5301613"><ele>583.0</ele><time>2026-05-05T08:05:08.596Z</time></trkpt><trkpt lat="44.5025492" lon="15.5298882"><ele>583.0</ele><time>2026-05-05T08:05:09.596Z</time></trkpt><trkpt lat="44.5027715" lon="15.5296148"><ele>583.0</ele><time>2026-05-05T08:05:10.596Z</time></trkpt><trkpt lat="44.5029924" lon="15.5293337"><ele>585.0</ele><time>2026-05-05T08:05:11.595Z</time></trkpt><trkpt lat="44.5032029" lon="15.5290319"><ele>587.0</ele><time>2026-05-05T08:05:12.596Z</time></trkpt><trkpt lat="44.503428" lon="15.5287439"><ele>586.5</ele><time>2026-05-05T08:05:13.596Z</time></trkpt><trkpt lat="44.5036494" lon="15.5284488"><ele>586.0</ele><time>2026-05-05T08:05:14.595Z</time></trkpt><trkpt lat="44.5038698" lon="15.5281537"><ele>585.5</ele><time>2026-05-05T08:05:15.595Z</time></trkpt><trkpt lat="44.5040881" lon="15.5278576"><ele>585.0</ele><time>2026-05-05T08:05:16.595Z</time></trkpt><trkpt lat="44.5043025" lon="15.5275672"><ele>585.0</ele><time>2026-05-05T08:05:17.595Z</time></trkpt><trkpt lat="44.5045156" lon="15.5272746"><ele>585.0</ele><time>2026-05-05T08:05:18.596Z</time></trkpt><trkpt lat="44.504724" lon="15.5269548"><ele>584.5</ele><time>2026-05-05T08:05:19.595Z</time></trkpt><trkpt lat="44.5049368" lon="15.5266486"><ele>584.0</ele><time>2026-05-05T08:05:20.595Z</time></trkpt><trkpt lat="44.5051503" lon="15.5263393"><ele>583.0</ele><time>2026-05-05T08:05:21.596Z</time></trkpt><trkpt lat="44.5053702" lon="15.5260636"><ele>582.0</ele><time>2026-05-05T08:05:22.595Z</time></trkpt><trkpt lat="44.5055814" lon="15.5257729"><ele>582.0</ele><time>2026-05-05T08:05:23.595Z</time></trkpt><trkpt lat="44.5057847" lon="15.5254683"><ele>582.0</ele><time>2026-05-05T08:05:24.595Z</time></trkpt><trkpt lat="44.5059842" lon="15.5251686"><ele>580.0</ele><time>2026-05-05T08:05:25.596Z</time></trkpt><trkpt lat="44.5061799" lon="15.524866"><ele>578.0</ele><time>2026-05-05T08:05:26.596Z</time></trkpt><trkpt lat="44.5063723" lon="15.524556"><ele>578.0</ele><time>2026-05-05T08:05:27.595Z</time></trkpt><trkpt lat="44.5065591" lon="15.5242582"><ele>578.0</ele><time>2026-05-05T08:05:28.596Z</time></trkpt><trkpt lat="44.5067535" lon="15.5239573"><ele>579.0</ele><time>2026-05-05T08:05:29.596Z</time></trkpt><trkpt lat="44.5069412" lon="15.5236293"><ele>580.0</ele><time>2026-05-05T08:05:30.595Z</time></trkpt><trkpt lat="44.5071344" lon="15.5233139"><ele>580.5</ele><time>2026-05-05T08:05:31.595Z</time></trkpt><trkpt lat="44.5073288" lon="15.5229843"><ele>581.0</ele><time>2026-05-05T08:05:32.596Z</time></trkpt><trkpt lat="44.5075163" lon="15.5226652"><ele>581.0</ele><time>2026-05-05T08:05:33.596Z</time></trkpt><trkpt lat="44.5076999" lon="15.5223443"><ele>581.0</ele><time>2026-05-05T08:05:34.596Z</time></trkpt><trkpt lat="44.5078839" lon="15.5219965"><ele>581.0</ele><time>2026-05-05T08:05:35.595Z</time></trkpt><trkpt lat="44.5080603" lon="15.5216818"><ele>581.0</ele><time>2026-05-05T08:05:36.595Z</time></trkpt><trkpt lat="44.5082387" lon="15.5213561"><ele>581.5</ele><time>2026-05-05T08:05:37.596Z</time></trkpt><trkpt lat="44.5084127" lon="15.5210301"><ele>582.0</ele><time>2026-05-05T08:05:38.595Z</time></trkpt><trkpt lat="44.5085865" lon="15.5206899"><ele>581.5</ele><time>2026-05-05T08:05:39.595Z</time></trkpt><trkpt lat="44.5087585" lon="15.5203643"><ele>581.0</ele><time>2026-05-05T08:05:40.596Z</time></trkpt><trkpt lat="44.5089271" lon="15.5200353"><ele>581.0</ele><time>2026-05-05T08:05:41.596Z</time></trkpt><trkpt lat="44.5090931" lon="15.5197114"><ele>581.0</ele><time>2026-05-05T08:05:42.595Z</time></trkpt><trkpt lat="44.5092572" lon="15.51938"><ele>581.0</ele><time>2026-05-05T08:05:43.596Z</time></trkpt><trkpt lat="44.5094231" lon="15.5190088"><ele>581.0</ele><time>2026-05-05T08:05:44.596Z</time></trkpt><trkpt lat="44.5095848" lon="15.5186649"><ele>581.0</ele><time>2026-05-05T08:05:45.596Z</time></trkpt><trkpt lat="44.5097456" lon="15.5183156"><ele>581.0</ele><time>2026-05-05T08:05:46.596Z</time></trkpt><trkpt lat="44.5099051" lon="15.5179826"><ele>580.5</ele><time>2026-05-05T08:05:47.596Z</time></trkpt><trkpt lat="44.5100601" lon="15.5176218"><ele>580.0</ele><time>2026-05-05T08:05:48.595Z</time></trkpt><trkpt lat="44.5102075" lon="15.5172827"><ele>579.0</ele><time>2026-05-05T08:05:49.596Z</time></trkpt><trkpt lat="44.5103584" lon="15.5169435"><ele>578.0</ele><time>2026-05-05T08:05:50.595Z</time></trkpt><trkpt lat="44.5105042" lon="15.5165988"><ele>578.0</ele><time>2026-05-05T08:05:51.596Z</time></trkpt><trkpt lat="44.5106532" lon="15.5162583"><ele>578.0</ele><time>2026-05-05T08:05:52.596Z</time></trkpt><trkpt lat="44.5107958" lon="15.5159153"><ele>577.0</ele><time>2026-05-05T08:05:53.596Z</time></trkpt><trkpt lat="44.5109404" lon="15.5155671"><ele>576.0</ele><time>2026-05-05T08:05:54.595Z</time></trkpt><trkpt lat="44.5110832" lon="15.5152176"><ele>575.5</ele><time>2026-05-05T08:05:55.595Z</time></trkpt><trkpt lat="44.5112244" lon="15.514862"><ele>575.0</ele><time>2026-05-05T08:05:56.596Z</time></trkpt><trkpt lat="44.5113666" lon="15.5145172"><ele>576.0</ele><time>2026-05-05T08:05:57.595Z</time></trkpt><trkpt lat="44.5115079" lon="15.5141749"><ele>577.0</ele><time>2026-05-05T08:05:58.596Z</time></trkpt><trkpt lat="44.5116414" lon="15.5138156"><ele>576.5</ele><time>2026-05-05T08:05:59.596Z</time></trkpt><trkpt lat="44.5117792" lon="15.5134568"><ele>576.0</ele><time>2026-05-05T08:06:00.596Z</time></trkpt><trkpt lat="44.5119124" lon="15.513102"><ele>576.0</ele><time>2026-05-05T08:06:01.595Z</time></trkpt><trkpt lat="44.5120412" lon="15.5127379"><ele>576.0</ele><time>2026-05-05T08:06:02.596Z</time></trkpt><trkpt lat="44.5121702" lon="15.5123775"><ele>576.0</ele><time>2026-05-05T08:06:03.595Z</time></trkpt><trkpt lat="44.5122971" lon="15.5120123"><ele>576.0</ele><time>2026-05-05T08:06:04.595Z</time></trkpt><trkpt lat="44.5124213" lon="15.5116449"><ele>576.0</ele><time>2026-05-05T08:06:05.595Z</time></trkpt><trkpt lat="44.5125464" lon="15.5112776"><ele>576.0</ele><time>2026-05-05T08:06:06.596Z</time></trkpt><trkpt lat="44.5126628" lon="15.5109"><ele>575.5</ele><time>2026-05-05T08:06:07.595Z</time></trkpt><trkpt lat="44.5127844" lon="15.5105203"><ele>575.0</ele><time>2026-05-05T08:06:08.596Z</time></trkpt><trkpt lat="44.512904" lon="15.5101438"><ele>575.0</ele><time>2026-05-05T08:06:09.596Z</time></trkpt><trkpt lat="44.5130206" lon="15.5097679"><ele>575.0</ele><time>2026-05-05T08:06:10.595Z</time></trkpt><trkpt lat="44.5131271" lon="15.5093902"><ele>575.0</ele><time>2026-05-05T08:06:11.595Z</time></trkpt><trkpt lat="44.5132421" lon="15.5090132"><ele>575.0</ele><time>2026-05-05T08:06:12.596Z</time></trkpt><trkpt lat="44.5133558" lon="15.5086352"><ele>575.0</ele><time>2026-05-05T08:06:13.596Z</time></trkpt><trkpt lat="44.513465" lon="15.5082533"><ele>575.0</ele><time>2026-05-05T08:06:14.595Z</time></trkpt><trkpt lat="44.5135777" lon="15.5078644"><ele>575.0</ele><time>2026-05-05T08:06:15.595Z</time></trkpt><trkpt lat="44.5136762" lon="15.5074659"><ele>575.0</ele><time>2026-05-05T08:06:16.595Z</time></trkpt><trkpt lat="44.5137807" lon="15.5070817"><ele>574.0</ele><time>2026-05-05T08:06:17.596Z</time></trkpt><trkpt lat="44.5138803" lon="15.5067023"><ele>573.0</ele><time>2026-05-05T08:06:18.595Z</time></trkpt><trkpt lat="44.5139766" lon="15.5063219"><ele>575.0</ele><time>2026-05-05T08:06:19.595Z</time></trkpt><trkpt lat="44.5140714" lon="15.5059331"><ele>577.0</ele><time>2026-05-05T08:06:20.596Z</time></trkpt><trkpt lat="44.5141634" lon="15.5055548"><ele>575.5</ele><time>2026-05-05T08:06:21.596Z</time></trkpt><trkpt lat="44.5142519" lon="15.5051767"><ele>574.0</ele><time>2026-05-05T08:06:22.595Z</time></trkpt><trkpt lat="44.5143339" lon="15.5048043"><ele>573.5</ele><time>2026-05-05T08:06:23.595Z</time></trkpt><trkpt lat="44.5144282" lon="15.5044316"><ele>573.0</ele><time>2026-05-05T08:06:24.595Z</time></trkpt><trkpt lat="44.5145193" lon="15.5040523"><ele>576.5</ele><time>2026-05-05T08:06:25.596Z</time></trkpt><trkpt lat="44.5146005" lon="15.5036759"><ele>580.0</ele><time>2026-05-05T08:06:26.595Z</time></trkpt><trkpt lat="44.5146791" lon="15.5033039"><ele>580.0</ele><time>2026-05-05T08:06:27.595Z</time></trkpt><trkpt lat="44.514761" lon="15.5029303"><ele>580.0</ele><time>2026-05-05T08:06:28.596Z</time></trkpt><trkpt lat="44.5148508" lon="15.5025419"><ele>579.5</ele><time>2026-05-05T08:06:29.596Z</time></trkpt><trkpt lat="44.5149233" lon="15.5021751"><ele>579.0</ele><time>2026-05-05T08:06:30.596Z</time></trkpt><trkpt lat="44.5149968" lon="15.5018272"><ele>579.0</ele><time>2026-05-05T08:06:31.595Z</time></trkpt><trkpt lat="44.5150664" lon="15.5014899"><ele>579.0</ele><time>2026-05-05T08:06:32.596Z</time></trkpt><trkpt lat="44.5151266" lon="15.5011688"><ele>578.6666666666666</ele><time>2026-05-05T08:06:33.596Z</time></trkpt><trkpt lat="44.515184" lon="15.5008631"><ele>578.3333333333333</ele><time>2026-05-05T08:06:34.596Z</time></trkpt><trkpt lat="44.5152359" lon="15.5005675"><ele>578.0</ele><time>2026-05-05T08:06:35.595Z</time></trkpt><trkpt lat="44.5152848" lon="15.5002888"><ele>579.0</ele><time>2026-05-05T08:06:36.595Z</time></trkpt><trkpt lat="44.5153286" lon="15.5000354"><ele>580.0</ele><time>2026-05-05T08:06:37.595Z</time></trkpt><trkpt lat="44.5153843" lon="15.499812"><ele>581.0</ele><time>2026-05-05T08:06:38.596Z</time></trkpt><trkpt lat="44.5154379" lon="15.4996123"><ele>581.0</ele><time>2026-05-05T08:06:39.595Z</time></trkpt><trkpt lat="44.5154894" lon="15.49943"><ele>581.0</ele><time>2026-05-05T08:06:40.595Z</time></trkpt><trkpt lat="44.5155354" lon="15.499268"><ele>581.0</ele><time>2026-05-05T08:06:41.596Z</time></trkpt><trkpt lat="44.5155744" lon="15.4991171"><ele>581.0</ele><time>2026-05-05T08:06:42.595Z</time></trkpt><trkpt lat="44.5156061" lon="15.4989857"><ele>581.0</ele><time>2026-05-05T08:06:43.595Z</time></trkpt><trkpt lat="44.515636" lon="15.4988577"><ele>581.0</ele><time>2026-05-05T08:06:44.595Z</time></trkpt><trkpt lat="44.5156586" lon="15.4987473"><ele>581.0</ele><time>2026-05-05T08:06:45.596Z</time></trkpt><trkpt lat="44.5156891" lon="15.4986419"><ele>581.0</ele><time>2026-05-05T08:06:46.595Z</time></trkpt><trkpt lat="44.5157309" lon="15.4985344"><ele>581.0</ele><time>2026-05-05T08:06:47.595Z</time></trkpt><trkpt lat="44.515765" lon="15.4984365"><ele>581.0</ele><time>2026-05-05T08:06:48.595Z</time></trkpt><trkpt lat="44.5157853" lon="15.4983417"><ele>581.0</ele><time>2026-05-05T08:06:49.596Z</time></trkpt><trkpt lat="44.515794" lon="15.4981755"><ele>581.0</ele><time>2026-05-05T08:06:51.595Z</time></trkpt><trkpt lat="44.5157922" lon="15.4980267"><ele>581.0</ele><time>2026-05-05T08:06:53.596Z</time></trkpt><trkpt lat="44.5157844" lon="15.4979042"><ele>581.0</ele><time>2026-05-05T08:06:55.596Z</time></trkpt><trkpt lat="44.5157687" lon="15.497815"><ele>581.0</ele><time>2026-05-05T08:10:15.596Z</time></trkpt><trkpt lat="44.5158203" lon="15.497763"><ele>581.0</ele><time>2026-05-05T08:12:43.596Z</time></trkpt><trkpt lat="44.5157667" lon="15.497827"><ele>580.8</ele><time>2026-05-05T08:13:07.541Z</time></trkpt><trkpt lat="44.5157844" lon="15.4977381"><ele>580.6</ele><time>2026-05-05T08:16:02.59Z</time></trkpt><trkpt lat="44.5158085" lon="15.4975376"><ele>580.4</ele><time>2026-05-05T08:16:04.59Z</time></trkpt><trkpt lat="44.515813" lon="15.4974179"><ele>580.2</ele><time>2026-05-05T08:16:05.59Z</time></trkpt><trkpt lat="44.5158137" lon="15.4972893"><ele>580.0</ele><time>2026-05-05T08:16:06.59Z</time></trkpt><trkpt lat="44.5158096" lon="15.4971463"><ele>580.0</ele><time>2026-05-05T08:16:07.59Z</time></trkpt><trkpt lat="44.5158046" lon="15.4969898"><ele>580.0</ele><time>2026-05-05T08:16:08.59Z</time></trkpt><trkpt lat="44.5158036" lon="15.4968137"><ele>580.0</ele><time>2026-05-05T08:16:09.591Z</time></trkpt><trkpt lat="44.5158098" lon="15.4966311"><ele>580.0</ele><time>2026-05-05T08:16:10.591Z</time></trkpt><trkpt lat="44.5158243" lon="15.4964238"><ele>579.6666666666667</ele><time>2026-05-05T08:16:11.59Z</time></trkpt><trkpt lat="44.515847" lon="15.4961956"><ele>579.3333333333334</ele><time>2026-05-05T08:16:12.59Z</time></trkpt><trkpt lat="44.5158722" lon="15.495938"><ele>579.0</ele><time>2026-05-05T08:16:13.59Z</time></trkpt><trkpt lat="44.5159012" lon="15.4956672"><ele>578.3333333333334</ele><time>2026-05-05T08:16:14.59Z</time></trkpt><trkpt lat="44.5159289" lon="15.4953781"><ele>577.6666666666667</ele><time>2026-05-05T08:16:15.591Z</time></trkpt><trkpt lat="44.515956" lon="15.4950672"><ele>577.0</ele><time>2026-05-05T08:16:16.591Z</time></trkpt><trkpt lat="44.5159835" lon="15.4947332"><ele>577.5</ele><time>2026-05-05T08:16:17.591Z</time></trkpt><trkpt lat="44.5160115" lon="15.4943923"><ele>578.0</ele><time>2026-05-05T08:16:18.591Z</time></trkpt><trkpt lat="44.5160412" lon="15.4940427"><ele>578.5</ele><time>2026-05-05T08:16:19.591Z</time></trkpt><trkpt lat="44.5160685" lon="15.4936768"><ele>579.0</ele><time>2026-05-05T08:16:20.591Z</time></trkpt><trkpt lat="44.5160958" lon="15.4932969"><ele>579.0</ele><time>2026-05-05T08:16:21.591Z</time></trkpt><trkpt lat="44.5161227" lon="15.4929214"><ele>579.0</ele><time>2026-05-05T08:16:22.591Z</time></trkpt><trkpt lat="44.5161474" lon="15.4925428"><ele>579.0</ele><time>2026-05-05T08:16:23.59Z</time></trkpt><trkpt lat="44.5161707" lon="15.4921602"><ele>579.0</ele><time>2026-05-05T08:16:24.591Z</time></trkpt><trkpt lat="44.5161931" lon="15.4917757"><ele>579.0</ele><time>2026-05-05T08:16:25.591Z</time></trkpt><trkpt lat="44.5162138" lon="15.4913883"><ele>579.0</ele><time>2026-05-05T08:16:26.59Z</time></trkpt><trkpt lat="44.5162335" lon="15.4909964"><ele>578.5</ele><time>2026-05-05T08:16:27.59Z</time></trkpt><trkpt lat="44.5162546" lon="15.4905967"><ele>578.0</ele><time>2026-05-05T08:16:28.591Z</time></trkpt><trkpt lat="44.516274" lon="15.4902004"><ele>578.0</ele><time>2026-05-05T08:16:29.59Z</time></trkpt><trkpt lat="44.5162933" lon="15.4898019"><ele>578.0</ele><time>2026-05-05T08:16:30.59Z</time></trkpt><trkpt lat="44.5163138" lon="15.4894028"><ele>578.0</ele><time>2026-05-05T08:16:31.591Z</time></trkpt><trkpt lat="44.5163318" lon="15.4890037"><ele>578.0</ele><time>2026-05-05T08:16:32.591Z</time></trkpt><trkpt lat="44.516353" lon="15.4886092"><ele>578.0</ele><time>2026-05-05T08:16:33.591Z</time></trkpt><trkpt lat="44.516375" lon="15.4882126"><ele>578.0</ele><time>2026-05-05T08:16:34.591Z</time></trkpt><trkpt lat="44.516397" lon="15.487814"><ele>577.0</ele><time>2026-05-05T08:16:35.59Z</time></trkpt><trkpt lat="44.516424" lon="15.48742"><ele>576.0</ele><time>2026-05-05T08:16:36.591Z</time></trkpt><trkpt lat="44.5164525" lon="15.4870288"><ele>576.0</ele><time>2026-05-05T08:16:37.59Z</time></trkpt><trkpt lat="44.5164809" lon="15.4866325"><ele>576.0</ele><time>2026-05-05T08:16:38.591Z</time></trkpt><trkpt lat="44.5165103" lon="15.486235"><ele>576.0</ele><time>2026-05-05T08:16:39.591Z</time></trkpt><trkpt lat="44.5165432" lon="15.4858402"><ele>576.0</ele><time>2026-05-05T08:16:40.591Z</time></trkpt><trkpt lat="44.5165788" lon="15.4854458"><ele>575.0</ele><time>2026-05-05T08:16:41.59Z</time></trkpt><trkpt lat="44.5166152" lon="15.4850521"><ele>574.0</ele><time>2026-05-05T08:16:42.591Z</time></trkpt><trkpt lat="44.5166545" lon="15.4846595"><ele>573.5</ele><time>2026-05-05T08:16:43.591Z</time></trkpt><trkpt lat="44.5166963" lon="15.4842675"><ele>573.0</ele><time>2026-05-05T08:16:44.591Z</time></trkpt><trkpt lat="44.5167364" lon="15.4838736"><ele>572.5</ele><time>2026-05-05T08:16:45.59Z</time></trkpt><trkpt lat="44.5167802" lon="15.483482"><ele>572.0</ele><time>2026-05-05T08:16:46.59Z</time></trkpt><trkpt lat="44.5168244" lon="15.4830889"><ele>571.5</ele><time>2026-05-05T08:16:47.59Z</time></trkpt><trkpt lat="44.5168713" lon="15.482697"><ele>571.0</ele><time>2026-05-05T08:16:48.591Z</time></trkpt><trkpt lat="44.5169214" lon="15.4823049"><ele>572.0</ele><time>2026-05-05T08:16:49.59Z</time></trkpt><trkpt lat="44.516973" lon="15.4819156"><ele>573.0</ele><time>2026-05-05T08:16:50.591Z</time></trkpt><trkpt lat="44.5170272" lon="15.4815268"><ele>574.0</ele><time>2026-05-05T08:16:51.59Z</time></trkpt><trkpt lat="44.5170838" lon="15.4811393"><ele>575.0</ele><time>2026-05-05T08:16:52.59Z</time></trkpt><trkpt lat="44.5171408" lon="15.4807498"><ele>574.5</ele><time>2026-05-05T08:16:53.59Z</time></trkpt><trkpt lat="44.5171998" lon="15.4803587"><ele>574.0</ele><time>2026-05-05T08:16:54.59Z</time></trkpt><trkpt lat="44.5172604" lon="15.4799661"><ele>574.5</ele><time>2026-05-05T08:16:55.591Z</time></trkpt><trkpt lat="44.517323" lon="15.4795743"><ele>575.0</ele><time>2026-05-05T08:16:56.591Z</time></trkpt><trkpt lat="44.5173868" lon="15.4791818"><ele>575.0</ele><time>2026-05-05T08:16:57.591Z</time></trkpt><trkpt lat="44.5174517" lon="15.4787906"><ele>575.0</ele><time>2026-05-05T08:16:58.59Z</time></trkpt><trkpt lat="44.5175188" lon="15.4783967"><ele>574.5</ele><time>2026-05-05T08:16:59.591Z</time></trkpt><trkpt lat="44.5175892" lon="15.478004"><ele>574.0</ele><time>2026-05-05T08:17:00.591Z</time></trkpt><trkpt lat="44.5176624" lon="15.4776145"><ele>575.5</ele><time>2026-05-05T08:17:01.59Z</time></trkpt><trkpt lat="44.5177372" lon="15.4772257"><ele>577.0</ele><time>2026-05-05T08:17:02.591Z</time></trkpt><trkpt lat="44.5178109" lon="15.4768388"><ele>577.0</ele><time>2026-05-05T08:17:03.59Z</time></trkpt><trkpt lat="44.5178877" lon="15.4764517"><ele>577.0</ele><time>2026-05-05T08:17:04.59Z</time></trkpt><trkpt lat="44.5179673" lon="15.4760677"><ele>575.5</ele><time>2026-05-05T08:17:05.59Z</time></trkpt><trkpt lat="44.5180471" lon="15.4756834"><ele>574.0</ele><time>2026-05-05T08:17:06.59Z</time></trkpt><trkpt lat="44.518132" lon="15.4753006"><ele>574.0</ele><time>2026-05-05T08:17:07.59Z</time></trkpt><trkpt lat="44.5182179" lon="15.47492"><ele>574.0</ele><time>2026-05-05T08:17:08.59Z</time></trkpt><trkpt lat="44.5183048" lon="15.4745394"><ele>574.0</ele><time>2026-05-05T08:17:09.591Z</time></trkpt><trkpt lat="44.5183914" lon="15.4741606"><ele>574.0</ele><time>2026-05-05T08:17:10.591Z</time></trkpt><trkpt lat="44.5184813" lon="15.4737814"><ele>575.5</ele><time>2026-05-05T08:17:11.591Z</time></trkpt><trkpt lat="44.5185717" lon="15.473402"><ele>577.0</ele><time>2026-05-05T08:17:12.591Z</time></trkpt><trkpt lat="44.5186666" lon="15.4730219"><ele>576.5</ele><time>2026-05-05T08:17:13.59Z</time></trkpt><trkpt lat="44.5187628" lon="15.4726406"><ele>576.0</ele><time>2026-05-05T08:17:14.591Z</time></trkpt><trkpt lat="44.5188615" lon="15.4722622"><ele>576.0</ele><time>2026-05-05T08:17:15.59Z</time></trkpt><trkpt lat="44.5189628" lon="15.4718842"><ele>576.0</ele><time>2026-05-05T08:17:16.59Z</time></trkpt><trkpt lat="44.519065" lon="15.471506"><ele>575.0</ele><time>2026-05-05T08:17:17.591Z</time></trkpt><trkpt lat="44.519167" lon="15.4711285"><ele>574.0</ele><time>2026-05-05T08:17:18.59Z</time></trkpt><trkpt lat="44.5192722" lon="15.4707506"><ele>574.0</ele><time>2026-05-05T08:17:19.591Z</time></trkpt><trkpt lat="44.5193809" lon="15.4703753"><ele>574.0</ele><time>2026-05-05T08:17:20.591Z</time></trkpt><trkpt lat="44.519491" lon="15.4700018"><ele>575.0</ele><time>2026-05-05T08:17:21.59Z</time></trkpt><trkpt lat="44.5196032" lon="15.4696278"><ele>576.0</ele><time>2026-05-05T08:17:22.59Z</time></trkpt><trkpt lat="44.519717" lon="15.4692537"><ele>576.0</ele><time>2026-05-05T08:17:23.591Z</time></trkpt><trkpt lat="44.5198319" lon="15.4688795"><ele>576.0</ele><time>2026-05-05T08:17:24.591Z</time></trkpt><trkpt lat="44.5199486" lon="15.4685076"><ele>576.0</ele><time>2026-05-05T08:17:25.59Z</time></trkpt><trkpt lat="44.5200681" lon="15.4681344"><ele>576.0</ele><time>2026-05-05T08:17:26.591Z</time></trkpt><trkpt lat="44.5201877" lon="15.467765"><ele>576.5</ele><time>2026-05-05T08:17:27.591Z</time></trkpt><trkpt lat="44.5203107" lon="15.4673947"><ele>577.0</ele><time>2026-05-05T08:17:28.591Z</time></trkpt><trkpt lat="44.5204348" lon="15.4670248"><ele>576.0</ele><time>2026-05-05T08:17:29.59Z</time></trkpt><trkpt lat="44.5205612" lon="15.4666549"><ele>575.0</ele><time>2026-05-05T08:17:30.59Z</time></trkpt><trkpt lat="44.5206899" lon="15.466286"><ele>576.0</ele><time>2026-05-05T08:17:31.59Z</time></trkpt><trkpt lat="44.5208199" lon="15.4659176"><ele>577.0</ele><time>2026-05-05T08:17:32.59Z</time></trkpt><trkpt lat="44.5209519" lon="15.4655493"><ele>578.0</ele><time>2026-05-05T08:17:33.591Z</time></trkpt><trkpt lat="44.5210871" lon="15.4651832"><ele>579.0</ele><time>2026-05-05T08:17:34.59Z</time></trkpt><trkpt lat="44.5212258" lon="15.4648186"><ele>577.5</ele><time>2026-05-05T08:17:35.591Z</time></trkpt><trkpt lat="44.5213656" lon="15.4644553"><ele>576.0</ele><time>2026-05-05T08:17:36.59Z</time></trkpt><trkpt lat="44.5215083" lon="15.4640922"><ele>576.5</ele><time>2026-05-05T08:17:37.59Z</time></trkpt><trkpt lat="44.5216515" lon="15.4637292"><ele>577.0</ele><time>2026-05-05T08:17:38.591Z</time></trkpt><trkpt lat="44.5217966" lon="15.4633707"><ele>577.0</ele><time>2026-05-05T08:17:39.591Z</time></trkpt><trkpt lat="44.5219414" lon="15.4630099"><ele>577.0</ele><time>2026-05-05T08:17:40.591Z</time></trkpt><trkpt lat="44.5220868" lon="15.4626551"><ele>576.5</ele><time>2026-05-05T08:17:41.59Z</time></trkpt><trkpt lat="44.5222367" lon="15.462301"><ele>576.0</ele><time>2026-05-05T08:17:42.591Z</time></trkpt><trkpt lat="44.5223878" lon="15.4619467"><ele>576.0</ele><time>2026-05-05T08:17:43.59Z</time></trkpt><trkpt lat="44.5225424" lon="15.4615955"><ele>576.0</ele><time>2026-05-05T08:17:44.591Z</time></trkpt><trkpt lat="44.5226971" lon="15.4612455"><ele>575.0</ele><time>2026-05-05T08:17:45.591Z</time></trkpt><trkpt lat="44.5228515" lon="15.4608951"><ele>574.0</ele><time>2026-05-05T08:17:46.59Z</time></trkpt><trkpt lat="44.5230091" lon="15.4605556"><ele>575.0</ele><time>2026-05-05T08:17:47.59Z</time></trkpt><trkpt lat="44.5231688" lon="15.4602108"><ele>576.0</ele><time>2026-05-05T08:17:48.591Z</time></trkpt><trkpt lat="44.52333" lon="15.4598673"><ele>576.5</ele><time>2026-05-05T08:17:49.59Z</time></trkpt><trkpt lat="44.5234937" lon="15.4595216"><ele>577.0</ele><time>2026-05-05T08:17:50.591Z</time></trkpt><trkpt lat="44.5236577" lon="15.4591835"><ele>577.0</ele><time>2026-05-05T08:17:51.591Z</time></trkpt><trkpt lat="44.523822" lon="15.4588461"><ele>577.0</ele><time>2026-05-05T08:17:52.591Z</time></trkpt><trkpt lat="44.5239881" lon="15.4585087"><ele>577.0</ele><time>2026-05-05T08:17:53.59Z</time></trkpt><trkpt lat="44.5241556" lon="15.4581742"><ele>577.0</ele><time>2026-05-05T08:17:54.591Z</time></trkpt><trkpt lat="44.5243237" lon="15.4578353"><ele>576.5</ele><time>2026-05-05T08:17:55.591Z</time></trkpt><trkpt lat="44.5244963" lon="15.4575015"><ele>576.0</ele><time>2026-05-05T08:17:56.591Z</time></trkpt><trkpt lat="44.5246684" lon="15.4571751"><ele>575.5</ele><time>2026-05-05T08:17:57.59Z</time></trkpt><trkpt lat="44.5248413" lon="15.4568517"><ele>575.0</ele><time>2026-05-05T08:17:58.591Z</time></trkpt><trkpt lat="44.5250173" lon="15.4565286"><ele>576.0</ele><time>2026-05-05T08:17:59.59Z</time></trkpt><trkpt lat="44.5251931" lon="15.4562086"><ele>577.0</ele><time>2026-05-05T08:18:00.591Z</time></trkpt><trkpt lat="44.5253721" lon="15.4558868"><ele>576.0</ele><time>2026-05-05T08:18:01.591Z</time></trkpt><trkpt lat="44.5255529" lon="15.4555712"><ele>575.0</ele><time>2026-05-05T08:18:02.591Z</time></trkpt><trkpt lat="44.5257388" lon="15.4552524"><ele>575.0</ele><time>2026-05-05T08:18:03.59Z</time></trkpt><trkpt lat="44.5259215" lon="15.4549397"><ele>575.0</ele><time>2026-05-05T08:18:04.59Z</time></trkpt><trkpt lat="44.5261081" lon="15.4546298"><ele>574.5</ele><time>2026-05-05T08:18:05.591Z</time></trkpt><trkpt lat="44.5262957" lon="15.4543204"><ele>574.0</ele><time>2026-05-05T08:18:06.59Z</time></trkpt><trkpt lat="44.5264816" lon="15.4540086"><ele>573.0</ele><time>2026-05-05T08:18:07.59Z</time></trkpt><trkpt lat="44.5266683" lon="15.4537014"><ele>572.0</ele><time>2026-05-05T08:18:08.59Z</time></trkpt><trkpt lat="44.5268607" lon="15.4533932"><ele>572.0</ele><time>2026-05-05T08:18:09.591Z</time></trkpt><trkpt lat="44.5270515" lon="15.4530855"><ele>572.0</ele><time>2026-05-05T08:18:10.591Z</time></trkpt><trkpt lat="44.5272455" lon="15.4527784"><ele>573.0</ele><time>2026-05-05T08:18:11.591Z</time></trkpt><trkpt lat="44.5274402" lon="15.4524742"><ele>574.0</ele><time>2026-05-05T08:18:12.59Z</time></trkpt><trkpt lat="44.5276373" lon="15.4521691"><ele>574.0</ele><time>2026-05-05T08:18:13.59Z</time></trkpt><trkpt lat="44.5278365" lon="15.4518641"><ele>574.0</ele><time>2026-05-05T08:18:14.59Z</time></trkpt><trkpt lat="44.5280383" lon="15.4515554"><ele>573.0</ele><time>2026-05-05T08:18:15.591Z</time></trkpt><trkpt lat="44.5282449" lon="15.4512577"><ele>572.0</ele><time>2026-05-05T08:18:16.59Z</time></trkpt><trkpt lat="44.5284525" lon="15.4509552"><ele>572.0</ele><time>2026-05-05T08:18:17.591Z</time></trkpt><trkpt lat="44.5286597" lon="15.4506568"><ele>572.0</ele><time>2026-05-05T08:18:18.59Z</time></trkpt><trkpt lat="44.5288672" lon="15.4503637"><ele>571.5</ele><time>2026-05-05T08:18:19.59Z</time></trkpt><trkpt lat="44.529076" lon="15.4500715"><ele>571.0</ele><time>2026-05-05T08:18:20.591Z</time></trkpt><trkpt lat="44.5292864" lon="15.449778"><ele>570.5</ele><time>2026-05-05T08:18:21.591Z</time></trkpt><trkpt lat="44.5294984" lon="15.4494888"><ele>570.0</ele><time>2026-05-05T08:18:22.59Z</time></trkpt><trkpt lat="44.5297126" lon="15.4492044"><ele>570.0</ele><time>2026-05-05T08:18:23.591Z</time></trkpt><trkpt lat="44.5299292" lon="15.4489256"><ele>570.0</ele><time>2026-05-05T08:18:24.591Z</time></trkpt><trkpt lat="44.5301452" lon="15.4486482"><ele>570.5</ele><time>2026-05-05T08:18:25.59Z</time></trkpt><trkpt lat="44.5303598" lon="15.448375"><ele>571.0</ele><time>2026-05-05T08:18:26.591Z</time></trkpt><trkpt lat="44.5305761" lon="15.4481022"><ele>572.5</ele><time>2026-05-05T08:18:27.591Z</time></trkpt><trkpt lat="44.5307912" lon="15.4478287"><ele>574.0</ele><time>2026-05-05T08:18:28.591Z</time></trkpt><trkpt lat="44.5310087" lon="15.4475579"><ele>574.5</ele><time>2026-05-05T08:18:29.59Z</time></trkpt><trkpt lat="44.5312288" lon="15.4472949"><ele>575.0</ele><time>2026-05-05T08:18:30.59Z</time></trkpt><trkpt lat="44.5314498" lon="15.4470295"><ele>575.0</ele><time>2026-05-05T08:18:31.59Z</time></trkpt><trkpt lat="44.5316732" lon="15.446769"><ele>575.0</ele><time>2026-05-05T08:18:32.59Z</time></trkpt><trkpt lat="44.531897" lon="15.4465089"><ele>575.0</ele><time>2026-05-05T08:18:33.591Z</time></trkpt><trkpt lat="44.5321202" lon="15.4462498"><ele>575.0</ele><time>2026-05-05T08:18:34.591Z</time></trkpt><trkpt lat="44.5323469" lon="15.4459968"><ele>575.0</ele><time>2026-05-05T08:18:35.59Z</time></trkpt><trkpt lat="44.532574" lon="15.4457436"><ele>575.0</ele><time>2026-05-05T08:18:36.59Z</time></trkpt><trkpt lat="44.5327999" lon="15.4454946"><ele>574.0</ele><time>2026-05-05T08:18:37.59Z</time></trkpt><trkpt lat="44.533029" lon="15.4452483"><ele>573.0</ele><time>2026-05-05T08:18:38.59Z</time></trkpt><trkpt lat="44.5332574" lon="15.4449946"><ele>573.0</ele><time>2026-05-05T08:18:39.591Z</time></trkpt><trkpt lat="44.5334857" lon="15.4447513"><ele>573.0</ele><time>2026-05-05T08:18:40.59Z</time></trkpt><trkpt lat="44.5337124" lon="15.4445059"><ele>572.0</ele><time>2026-05-05T08:18:41.59Z</time></trkpt><trkpt lat="44.5339408" lon="15.4442691"><ele>571.0</ele><time>2026-05-05T08:18:42.59Z</time></trkpt><trkpt lat="44.5341715" lon="15.4440378"><ele>571.0</ele><time>2026-05-05T08:18:43.591Z</time></trkpt><trkpt lat="44.5344054" lon="15.4438059"><ele>571.0</ele><time>2026-05-05T08:18:44.59Z</time></trkpt><trkpt lat="44.5346416" lon="15.4435757"><ele>570.0</ele><time>2026-05-05T08:18:45.59Z</time></trkpt><trkpt lat="44.5348784" lon="15.4433529"><ele>569.0</ele><time>2026-05-05T08:18:46.59Z</time></trkpt><trkpt lat="44.5351136" lon="15.4431294"><ele>567.5</ele><time>2026-05-05T08:18:47.591Z</time></trkpt><trkpt lat="44.5353491" lon="15.4429057"><ele>566.0</ele><time>2026-05-05T08:18:48.591Z</time></trkpt><trkpt lat="44.5355855" lon="15.4426838"><ele>565.0</ele><time>2026-05-05T08:18:49.591Z</time></trkpt><trkpt lat="44.5358289" lon="15.4424664"><ele>564.0</ele><time>2026-05-05T08:18:50.59Z</time></trkpt><trkpt lat="44.5360712" lon="15.4422501"><ele>567.0</ele><time>2026-05-05T08:18:51.591Z</time></trkpt><trkpt lat="44.5363119" lon="15.4420305"><ele>570.0</ele><time>2026-05-05T08:18:52.59Z</time></trkpt><trkpt lat="44.5365555" lon="15.4418151"><ele>570.0</ele><time>2026-05-05T08:18:53.591Z</time></trkpt><trkpt lat="44.5368035" lon="15.4415955"><ele>570.0</ele><time>2026-05-05T08:18:54.591Z</time></trkpt><trkpt lat="44.53705" lon="15.4413851"><ele>571.5</ele><time>2026-05-05T08:18:55.591Z</time></trkpt><trkpt lat="44.5372996" lon="15.4411797"><ele>573.0</ele><time>2026-05-05T08:18:56.591Z</time></trkpt><trkpt lat="44.5375487" lon="15.4409776"><ele>573.0</ele><time>2026-05-05T08:18:57.591Z</time></trkpt><trkpt lat="44.5377987" lon="15.4407745"><ele>573.0</ele><time>2026-05-05T08:18:58.59Z</time></trkpt><trkpt lat="44.5380493" lon="15.4405742"><ele>573.5</ele><time>2026-05-05T08:18:59.59Z</time></trkpt><trkpt lat="44.5383035" lon="15.4403732"><ele>574.0</ele><time>2026-05-05T08:19:00.591Z</time></trkpt><trkpt lat="44.5385547" lon="15.4401769"><ele>575.0</ele><time>2026-05-05T08:19:01.59Z</time></trkpt><trkpt lat="44.5388092" lon="15.4399828"><ele>576.0</ele><time>2026-05-05T08:19:02.59Z</time></trkpt><trkpt lat="44.5390651" lon="15.4397932"><ele>575.5</ele><time>2026-05-05T08:19:03.59Z</time></trkpt><trkpt lat="44.539318" lon="15.4396023"><ele>575.0</ele><time>2026-05-05T08:19:04.59Z</time></trkpt><trkpt lat="44.5395743" lon="15.4394157"><ele>574.5</ele><time>2026-05-05T08:19:05.59Z</time></trkpt><trkpt lat="44.5398335" lon="15.4392297"><ele>574.0</ele><time>2026-05-05T08:19:06.591Z</time></trkpt><trkpt lat="44.5400895" lon="15.4390466"><ele>574.0</ele><time>2026-05-05T08:19:07.591Z</time></trkpt><trkpt lat="44.5403542" lon="15.4388658"><ele>574.0</ele><time>2026-05-05T08:19:08.59Z</time></trkpt><trkpt lat="44.5406166" lon="15.4386889"><ele>573.5</ele><time>2026-05-05T08:19:09.591Z</time></trkpt><trkpt lat="44.540876" lon="15.4385123"><ele>573.0</ele><time>2026-05-05T08:19:10.591Z</time></trkpt><trkpt lat="44.5411365" lon="15.4383415"><ele>571.0</ele><time>2026-05-05T08:19:11.59Z</time></trkpt><trkpt lat="44.5414001" lon="15.4381744"><ele>569.0</ele><time>2026-05-05T08:19:12.59Z</time></trkpt><trkpt lat="44.5416622" lon="15.4380115"><ele>567.5</ele><time>2026-05-05T08:19:13.591Z</time></trkpt><trkpt lat="44.5419234" lon="15.4378479"><ele>566.0</ele><time>2026-05-05T08:19:14.59Z</time></trkpt><trkpt lat="44.5421873" lon="15.4376891"><ele>565.0</ele><time>2026-05-05T08:19:15.591Z</time></trkpt><trkpt lat="44.5424488" lon="15.4375321"><ele>564.0</ele><time>2026-05-05T08:19:16.591Z</time></trkpt><trkpt lat="44.5427102" lon="15.4373785"><ele>564.5</ele><time>2026-05-05T08:19:17.591Z</time></trkpt><trkpt lat="44.5429756" lon="15.4372223"><ele>565.0</ele><time>2026-05-05T08:19:18.591Z</time></trkpt><trkpt lat="44.5432373" lon="15.4370703"><ele>565.0</ele><time>2026-05-05T08:19:19.59Z</time></trkpt><trkpt lat="44.5434991" lon="15.4369234"><ele>565.0</ele><time>2026-05-05T08:19:20.59Z</time></trkpt><trkpt lat="44.5437606" lon="15.4367786"><ele>568.0</ele><time>2026-05-05T08:19:21.591Z</time></trkpt><trkpt lat="44.5440201" lon="15.4366361"><ele>571.0</ele><time>2026-05-05T08:19:22.59Z</time></trkpt><trkpt lat="44.5442828" lon="15.436496"><ele>571.0</ele><time>2026-05-05T08:19:23.59Z</time></trkpt><trkpt lat="44.5445446" lon="15.4363572"><ele>571.0</ele><time>2026-05-05T08:19:24.59Z</time></trkpt><trkpt lat="44.5448038" lon="15.4362141"><ele>571.0</ele><time>2026-05-05T08:19:25.591Z</time></trkpt><trkpt lat="44.5450658" lon="15.4360742"><ele>571.0</ele><time>2026-05-05T08:19:26.591Z</time></trkpt><trkpt lat="44.5453266" lon="15.4359349"><ele>568.5</ele><time>2026-05-05T08:19:27.591Z</time></trkpt><trkpt lat="44.5455879" lon="15.4358002"><ele>566.0</ele><time>2026-05-05T08:19:28.591Z</time></trkpt><trkpt lat="44.5458463" lon="15.4356614"><ele>566.0</ele><time>2026-05-05T08:19:29.59Z</time></trkpt><trkpt lat="44.5461044" lon="15.4355221"><ele>566.0</ele><time>2026-05-05T08:19:30.591Z</time></trkpt><trkpt lat="44.5463625" lon="15.4353834"><ele>567.5</ele><time>2026-05-05T08:19:31.59Z</time></trkpt><trkpt lat="44.5466197" lon="15.4352464"><ele>569.0</ele><time>2026-05-05T08:19:32.59Z</time></trkpt><trkpt lat="44.5468751" lon="15.4351105"><ele>570.0</ele><time>2026-05-05T08:19:33.591Z</time></trkpt><trkpt lat="44.5471302" lon="15.434976"><ele>571.0</ele><time>2026-05-05T08:19:34.591Z</time></trkpt><trkpt lat="44.5473877" lon="15.4348421"><ele>571.0</ele><time>2026-05-05T08:19:35.59Z</time></trkpt><trkpt lat="44.5476435" lon="15.4347108"><ele>571.0</ele><time>2026-05-05T08:19:36.591Z</time></trkpt><trkpt lat="44.5478992" lon="15.434576"><ele>572.5</ele><time>2026-05-05T08:19:37.591Z</time></trkpt><trkpt lat="44.5481591" lon="15.4344364"><ele>574.0</ele><time>2026-05-05T08:19:38.591Z</time></trkpt><trkpt lat="44.5484202" lon="15.4342983"><ele>574.0</ele><time>2026-05-05T08:19:39.591Z</time></trkpt><trkpt lat="44.5486819" lon="15.4341578"><ele>574.0</ele><time>2026-05-05T08:19:40.59Z</time></trkpt><trkpt lat="44.5489455" lon="15.4340148"><ele>573.5</ele><time>2026-05-05T08:19:41.591Z</time></trkpt><trkpt lat="44.5492122" lon="15.4338732"><ele>573.0</ele><time>2026-05-05T08:19:42.591Z</time></trkpt><trkpt lat="44.5494806" lon="15.4337295"><ele>574.0</ele><time>2026-05-05T08:19:43.591Z</time></trkpt><trkpt lat="44.5497518" lon="15.4335859"><ele>575.0</ele><time>2026-05-05T08:19:44.59Z</time></trkpt><trkpt lat="44.5500244" lon="15.433442"><ele>575.0</ele><time>2026-05-05T08:19:45.591Z</time></trkpt><trkpt lat="44.550295" lon="15.4332994"><ele>575.0</ele><time>2026-05-05T08:19:46.59Z</time></trkpt><trkpt lat="44.550564" lon="15.433154"><ele>575.0</ele><time>2026-05-05T08:19:47.591Z</time></trkpt><trkpt lat="44.5508354" lon="15.4330114"><ele>575.0</ele><time>2026-05-05T08:19:48.59Z</time></trkpt><trkpt lat="44.5511039" lon="15.432868"><ele>573.5</ele><time>2026-05-05T08:19:49.591Z</time></trkpt><trkpt lat="44.5513737" lon="15.4327248"><ele>572.0</ele><time>2026-05-05T08:19:50.59Z</time></trkpt><trkpt lat="44.5516461" lon="15.4325796"><ele>572.0</ele><time>2026-05-05T08:19:51.591Z</time></trkpt><trkpt lat="44.5519173" lon="15.4324338"><ele>572.0</ele><time>2026-05-05T08:19:52.591Z</time></trkpt><trkpt lat="44.5521865" lon="15.4322866"><ele>572.5</ele><time>2026-05-05T08:19:53.591Z</time></trkpt><trkpt lat="44.5524523" lon="15.4321444"><ele>573.0</ele><time>2026-05-05T08:19:54.591Z</time></trkpt><trkpt lat="44.5527227" lon="15.4320024"><ele>575.5</ele><time>2026-05-05T08:19:55.591Z</time></trkpt><trkpt lat="44.5529955" lon="15.431864"><ele>578.0</ele><time>2026-05-05T08:19:56.59Z</time></trkpt><trkpt lat="44.5532642" lon="15.4317191"><ele>578.0</ele><time>2026-05-05T08:19:57.591Z</time></trkpt><trkpt lat="44.5535349" lon="15.4315776"><ele>578.0</ele><time>2026-05-05T08:19:58.591Z</time></trkpt><trkpt lat="44.5538053" lon="15.4314312"><ele>579.5</ele><time>2026-05-05T08:19:59.591Z</time></trkpt><trkpt lat="44.5540746" lon="15.4312852"><ele>581.0</ele><time>2026-05-05T08:20:00.591Z</time></trkpt><trkpt lat="44.5543448" lon="15.4311398"><ele>580.0</ele><time>2026-05-05T08:20:01.59Z</time></trkpt><trkpt lat="44.5546158" lon="15.4309975"><ele>579.0</ele><time>2026-05-05T08:20:02.591Z</time></trkpt><trkpt lat="44.5548873" lon="15.4308553"><ele>579.0</ele><time>2026-05-05T08:20:03.591Z</time></trkpt><trkpt lat="44.5551583" lon="15.4307103"><ele>579.0</ele><time>2026-05-05T08:20:04.59Z</time></trkpt><trkpt lat="44.555429" lon="15.4305651"><ele>579.0</ele><time>2026-05-05T08:20:05.59Z</time></trkpt><trkpt lat="44.5556997" lon="15.430422"><ele>579.0</ele><time>2026-05-05T08:20:06.59Z</time></trkpt><trkpt lat="44.555975" lon="15.4302766"><ele>578.5</ele><time>2026-05-05T08:20:07.591Z</time></trkpt><trkpt lat="44.5562463" lon="15.4301307"><ele>578.0</ele><time>2026-05-05T08:20:08.591Z</time></trkpt><trkpt lat="44.5565231" lon="15.4299841"><ele>578.0</ele><time>2026-05-05T08:20:09.591Z</time></trkpt><trkpt lat="44.5567986" lon="15.4298405"><ele>578.0</ele><time>2026-05-05T08:20:10.59Z</time></trkpt><trkpt lat="44.5570765" lon="15.4296983"><ele>579.0</ele><time>2026-05-05T08:20:11.59Z</time></trkpt><trkpt lat="44.5573518" lon="15.4295604"><ele>580.0</ele><time>2026-05-05T08:20:12.59Z</time></trkpt><trkpt lat="44.5576299" lon="15.4294273"><ele>579.5</ele><time>2026-05-05T08:20:13.591Z</time></trkpt><trkpt lat="44.5579079" lon="15.4292941"><ele>579.0</ele><time>2026-05-05T08:20:14.591Z</time></trkpt><trkpt lat="44.5581868" lon="15.4291646"><ele>579.0</ele><time>2026-05-05T08:20:15.591Z</time></trkpt><trkpt lat="44.5584658" lon="15.4290383"><ele>579.0</ele><time>2026-05-05T08:20:16.591Z</time></trkpt><trkpt lat="44.5587452" lon="15.4289127"><ele>579.5</ele><time>2026-05-05T08:20:17.591Z</time></trkpt><trkpt lat="44.5590207" lon="15.4287893"><ele>580.0</ele><time>2026-05-05T08:20:18.591Z</time></trkpt><trkpt lat="44.5592995" lon="15.428676"><ele>579.5</ele><time>2026-05-05T08:20:19.591Z</time></trkpt><trkpt lat="44.5595769" lon="15.4285629"><ele>579.0</ele><time>2026-05-05T08:20:20.591Z</time></trkpt><trkpt lat="44.5598547" lon="15.4284536"><ele>579.0</ele><time>2026-05-05T08:20:21.59Z</time></trkpt><trkpt lat="44.5601317" lon="15.4283487"><ele>579.0</ele><time>2026-05-05T08:20:22.591Z</time></trkpt><trkpt lat="44.560409" lon="15.4282479"><ele>579.5</ele><time>2026-05-05T08:20:23.59Z</time></trkpt><trkpt lat="44.5606885" lon="15.4281536"><ele>580.0</ele><time>2026-05-05T08:20:24.59Z</time></trkpt><trkpt lat="44.5609693" lon="15.4280612"><ele>578.0</ele><time>2026-05-05T08:20:25.591Z</time></trkpt><trkpt lat="44.5612499" lon="15.4279708"><ele>576.0</ele><time>2026-05-05T08:20:26.591Z</time></trkpt><trkpt lat="44.5615309" lon="15.4278798"><ele>576.0</ele><time>2026-05-05T08:20:27.59Z</time></trkpt><trkpt lat="44.5618127" lon="15.4277921"><ele>576.0</ele><time>2026-05-05T08:20:28.591Z</time></trkpt><trkpt lat="44.5620925" lon="15.4277084"><ele>576.0</ele><time>2026-05-05T08:20:29.59Z</time></trkpt><trkpt lat="44.5623757" lon="15.4276338"><ele>576.0</ele><time>2026-05-05T08:20:30.591Z</time></trkpt><trkpt lat="44.5626586" lon="15.4275562"><ele>576.0</ele><time>2026-05-05T08:20:31.59Z</time></trkpt><trkpt lat="44.5629386" lon="15.427484"><ele>576.0</ele><time>2026-05-05T08:20:32.591Z</time></trkpt><trkpt lat="44.563219" lon="15.427417"><ele>576.0</ele><time>2026-05-05T08:20:33.59Z</time></trkpt><trkpt lat="44.563499" lon="15.4273523"><ele>576.0</ele><time>2026-05-05T08:20:34.591Z</time></trkpt><trkpt lat="44.5637778" lon="15.4272917"><ele>573.5</ele><time>2026-05-05T08:20:35.591Z</time></trkpt><trkpt lat="44.5640562" lon="15.4272349"><ele>571.0</ele><time>2026-05-05T08:20:36.591Z</time></trkpt><trkpt lat="44.5643376" lon="15.4271814"><ele>570.5</ele><time>2026-05-05T08:20:37.59Z</time></trkpt><trkpt lat="44.5646169" lon="15.42713"><ele>570.0</ele><time>2026-05-05T08:20:38.591Z</time></trkpt><trkpt lat="44.5648988" lon="15.4270795"><ele>570.0</ele><time>2026-05-05T08:20:39.591Z</time></trkpt><trkpt lat="44.5651811" lon="15.427031"><ele>570.0</ele><time>2026-05-05T08:20:40.591Z</time></trkpt><trkpt lat="44.5654617" lon="15.426986"><ele>568.0</ele><time>2026-05-05T08:20:41.591Z</time></trkpt><trkpt lat="44.5657425" lon="15.4269451"><ele>566.0</ele><time>2026-05-05T08:20:42.591Z</time></trkpt><trkpt lat="44.5660234" lon="15.4269039"><ele>565.0</ele><time>2026-05-05T08:20:43.591Z</time></trkpt><trkpt lat="44.566303" lon="15.426869"><ele>564.0</ele><time>2026-05-05T08:20:44.59Z</time></trkpt><trkpt lat="44.5665856" lon="15.4268354"><ele>564.0</ele><time>2026-05-05T08:20:45.59Z</time></trkpt><trkpt lat="44.566867" lon="15.4268077"><ele>564.0</ele><time>2026-05-05T08:20:46.59Z</time></trkpt><trkpt lat="44.5671433" lon="15.4267707"><ele>565.0</ele><time>2026-05-05T08:20:47.59Z</time></trkpt><trkpt lat="44.5674239" lon="15.4267487"><ele>566.0</ele><time>2026-05-05T08:20:48.59Z</time></trkpt><trkpt lat="44.5677027" lon="15.4267303"><ele>566.0</ele><time>2026-05-05T08:20:49.59Z</time></trkpt><trkpt lat="44.5679823" lon="15.426715"><ele>566.0</ele><time>2026-05-05T08:20:50.591Z</time></trkpt><trkpt lat="44.5682615" lon="15.426703"><ele>566.0</ele><time>2026-05-05T08:20:51.591Z</time></trkpt><trkpt lat="44.5685391" lon="15.4266908"><ele>566.0</ele><time>2026-05-05T08:20:52.591Z</time></trkpt><trkpt lat="44.5688171" lon="15.4266857"><ele>567.5</ele><time>2026-05-05T08:20:53.59Z</time></trkpt><trkpt lat="44.5690944" lon="15.426683"><ele>569.0</ele><time>2026-05-05T08:20:54.591Z</time></trkpt><trkpt lat="44.569371" lon="15.4266802"><ele>571.0</ele><time>2026-05-05T08:20:55.59Z</time></trkpt><trkpt lat="44.5696471" lon="15.4266801"><ele>573.0</ele><time>2026-05-05T08:20:56.59Z</time></trkpt><trkpt lat="44.5699209" lon="15.4266866"><ele>573.0</ele><time>2026-05-05T08:20:57.59Z</time></trkpt><trkpt lat="44.5701931" lon="15.4266905"><ele>573.0</ele><time>2026-05-05T08:20:58.591Z</time></trkpt><trkpt lat="44.5704636" lon="15.4267"><ele>573.5</ele><time>2026-05-05T08:20:59.591Z</time></trkpt><trkpt lat="44.5707367" lon="15.426713"><ele>574.0</ele><time>2026-05-05T08:21:00.591Z</time></trkpt><trkpt lat="44.5710119" lon="15.4267334"><ele>575.5</ele><time>2026-05-05T08:21:01.59Z</time></trkpt><trkpt lat="44.5712864" lon="15.4267553"><ele>577.0</ele><time>2026-05-05T08:21:02.59Z</time></trkpt><trkpt lat="44.5715639" lon="15.4267786"><ele>577.0</ele><time>2026-05-05T08:21:03.59Z</time></trkpt><trkpt lat="44.5718403" lon="15.4268049"><ele>577.0</ele><time>2026-05-05T08:21:04.591Z</time></trkpt><trkpt lat="44.5721161" lon="15.4268336"><ele>578.0</ele><time>2026-05-05T08:21:05.591Z</time></trkpt><trkpt lat="44.5723938" lon="15.4268637"><ele>579.0</ele><time>2026-05-05T08:21:06.59Z</time></trkpt><trkpt lat="44.5726707" lon="15.4268989"><ele>578.0</ele><time>2026-05-05T08:21:07.59Z</time></trkpt><trkpt lat="44.5729482" lon="15.4269391"><ele>577.0</ele><time>2026-05-05T08:21:08.591Z</time></trkpt><trkpt lat="44.5732262" lon="15.4269821"><ele>577.0</ele><time>2026-05-05T08:21:09.591Z</time></trkpt><trkpt lat="44.5735048" lon="15.4270314"><ele>577.0</ele><time>2026-05-05T08:21:10.591Z</time></trkpt><trkpt lat="44.5737829" lon="15.4270769"><ele>576.5</ele><time>2026-05-05T08:21:11.591Z</time></trkpt><trkpt lat="44.5740603" lon="15.4271256"><ele>576.0</ele><time>2026-05-05T08:21:12.59Z</time></trkpt><trkpt lat="44.5743372" lon="15.4271767"><ele>576.5</ele><time>2026-05-05T08:21:13.59Z</time></trkpt><trkpt lat="44.5746123" lon="15.4272299"><ele>577.0</ele><time>2026-05-05T08:21:14.591Z</time></trkpt><trkpt lat="44.5748844" lon="15.4272859"><ele>577.0</ele><time>2026-05-05T08:21:15.591Z</time></trkpt><trkpt lat="44.5751563" lon="15.4273495"><ele>577.0</ele><time>2026-05-05T08:21:16.59Z</time></trkpt><trkpt lat="44.575425" lon="15.4274135"><ele>578.0</ele><time>2026-05-05T08:21:17.591Z</time></trkpt><trkpt lat="44.5756924" lon="15.4274829"><ele>579.0</ele><time>2026-05-05T08:21:18.591Z</time></trkpt><trkpt lat="44.5759588" lon="15.4275486"><ele>579.5</ele><time>2026-05-05T08:21:19.59Z</time></trkpt><trkpt lat="44.5762238" lon="15.4276215"><ele>580.0</ele><time>2026-05-05T08:21:20.59Z</time></trkpt><trkpt lat="44.5764894" lon="15.4276958"><ele>580.0</ele><time>2026-05-05T08:21:21.588Z</time></trkpt><trkpt lat="44.5767542" lon="15.4277637"><ele>580.0</ele><time>2026-05-05T08:21:22.59Z</time></trkpt><trkpt lat="44.5770175" lon="15.4278447"><ele>580.5</ele><time>2026-05-05T08:21:23.59Z</time></trkpt><trkpt lat="44.5772751" lon="15.4279331"><ele>581.0</ele><time>2026-05-05T08:21:24.59Z</time></trkpt><trkpt lat="44.5775365" lon="15.4280256"><ele>580.5</ele><time>2026-05-05T08:21:25.59Z</time></trkpt><trkpt lat="44.5777986" lon="15.4281119"><ele>580.0</ele><time>2026-05-05T08:21:26.59Z</time></trkpt><trkpt lat="44.5780616" lon="15.4282003"><ele>580.0</ele><time>2026-05-05T08:21:27.59Z</time></trkpt><trkpt lat="44.5783261" lon="15.4282887"><ele>580.0</ele><time>2026-05-05T08:21:28.591Z</time></trkpt><trkpt lat="44.5785977" lon="15.4283769"><ele>581.0</ele><time>2026-05-05T08:21:29.591Z</time></trkpt><trkpt lat="44.5788799" lon="15.4284715"><ele>582.0</ele><time>2026-05-05T08:21:30.591Z</time></trkpt><trkpt lat="44.5791595" lon="15.4285781"><ele>582.0</ele><time>2026-05-05T08:21:31.59Z</time></trkpt><trkpt lat="44.579437" lon="15.4286902"><ele>582.0</ele><time>2026-05-05T08:21:32.59Z</time></trkpt><trkpt lat="44.5797109" lon="15.4288045"><ele>581.5</ele><time>2026-05-05T08:21:33.59Z</time></trkpt><trkpt lat="44.5799826" lon="15.4289231"><ele>581.0</ele><time>2026-05-05T08:21:34.591Z</time></trkpt><trkpt lat="44.5802537" lon="15.4290362"><ele>581.0</ele><time>2026-05-05T08:21:35.59Z</time></trkpt><trkpt lat="44.5805192" lon="15.4291592"><ele>581.0</ele><time>2026-05-05T08:21:36.59Z</time></trkpt><trkpt lat="44.5807807" lon="15.429292"><ele>581.0</ele><time>2026-05-05T08:21:37.59Z</time></trkpt><trkpt lat="44.5810395" lon="15.4294278"><ele>581.0</ele><time>2026-05-05T08:21:38.59Z</time></trkpt><trkpt lat="44.5812978" lon="15.4295583"><ele>580.0</ele><time>2026-05-05T08:21:39.59Z</time></trkpt><trkpt lat="44.581559" lon="15.4296953"><ele>579.0</ele><time>2026-05-05T08:21:40.59Z</time></trkpt><trkpt lat="44.5818201" lon="15.4298329"><ele>580.5</ele><time>2026-05-05T08:21:41.591Z</time></trkpt><trkpt lat="44.5820817" lon="15.4299726"><ele>582.0</ele><time>2026-05-05T08:21:42.591Z</time></trkpt><trkpt lat="44.5823431" lon="15.4301157"><ele>582.0</ele><time>2026-05-05T08:21:43.59Z</time></trkpt><trkpt lat="44.5826031" lon="15.4302616"><ele>582.0</ele><time>2026-05-05T08:21:44.59Z</time></trkpt><trkpt lat="44.5828628" lon="15.430415"><ele>581.5</ele><time>2026-05-05T08:21:45.59Z</time></trkpt><trkpt lat="44.5831235" lon="15.4305672"><ele>581.0</ele><time>2026-05-05T08:21:46.591Z</time></trkpt><trkpt lat="44.5833864" lon="15.4307219"><ele>581.0</ele><time>2026-05-05T08:21:47.59Z</time></trkpt><trkpt lat="44.5836452" lon="15.4308792"><ele>581.0</ele><time>2026-05-05T08:21:48.59Z</time></trkpt><trkpt lat="44.5839044" lon="15.4310394"><ele>580.0</ele><time>2026-05-05T08:21:49.591Z</time></trkpt><trkpt lat="44.5841621" lon="15.4312042"><ele>579.0</ele><time>2026-05-05T08:21:50.59Z</time></trkpt><trkpt lat="44.5844203" lon="15.4313712"><ele>575.5</ele><time>2026-05-05T08:21:51.591Z</time></trkpt><trkpt lat="44.5846752" lon="15.4315337"><ele>572.0</ele><time>2026-05-05T08:21:52.59Z</time></trkpt><trkpt lat="44.584931" lon="15.4317016"><ele>572.0</ele><time>2026-05-05T08:21:53.59Z</time></trkpt><trkpt lat="44.5851838" lon="15.4318688"><ele>572.0</ele><time>2026-05-05T08:21:54.59Z</time></trkpt><trkpt lat="44.5854337" lon="15.4320373"><ele>570.5</ele><time>2026-05-05T08:21:55.59Z</time></trkpt><trkpt lat="44.5856842" lon="15.4322003"><ele>569.0</ele><time>2026-05-05T08:21:56.591Z</time></trkpt><trkpt lat="44.5859344" lon="15.4323673"><ele>570.0</ele><time>2026-05-05T08:21:57.591Z</time></trkpt><trkpt lat="44.586184" lon="15.4325415"><ele>571.0</ele><time>2026-05-05T08:21:58.591Z</time></trkpt><trkpt lat="44.5864344" lon="15.4327144"><ele>571.0</ele><time>2026-05-05T08:21:59.591Z</time></trkpt><trkpt lat="44.5866852" lon="15.4328898"><ele>571.0</ele><time>2026-05-05T08:22:00.591Z</time></trkpt><trkpt lat="44.5869376" lon="15.4330626"><ele>572.0</ele><time>2026-05-05T08:22:01.59Z</time></trkpt><trkpt lat="44.5871894" lon="15.4332273"><ele>573.0</ele><time>2026-05-05T08:22:02.591Z</time></trkpt><trkpt lat="44.5874437" lon="15.4333908"><ele>573.0</ele><time>2026-05-05T08:22:03.591Z</time></trkpt><trkpt lat="44.5876994" lon="15.4335567"><ele>573.0</ele><time>2026-05-05T08:22:04.591Z</time></trkpt><trkpt lat="44.587954" lon="15.4337206"><ele>573.5</ele><time>2026-05-05T08:22:05.591Z</time></trkpt><trkpt lat="44.5882109" lon="15.4338815"><ele>574.0</ele><time>2026-05-05T08:22:06.591Z</time></trkpt><trkpt lat="44.588466" lon="15.4340443"><ele>575.0</ele><time>2026-05-05T08:22:07.59Z</time></trkpt><trkpt lat="44.5887234" lon="15.434204"><ele>576.0</ele><time>2026-05-05T08:22:08.591Z</time></trkpt><trkpt lat="44.5889818" lon="15.4343598"><ele>576.0</ele><time>2026-05-05T08:22:09.59Z</time></trkpt><trkpt lat="44.5892423" lon="15.4345183"><ele>576.0</ele><time>2026-05-05T08:22:10.59Z</time></trkpt><trkpt lat="44.5895042" lon="15.4346723"><ele>574.5</ele><time>2026-05-05T08:22:11.591Z</time></trkpt><trkpt lat="44.5897682" lon="15.4348286"><ele>573.0</ele><time>2026-05-05T08:22:12.59Z</time></trkpt><trkpt lat="44.5900368" lon="15.4349861"><ele>573.0</ele><time>2026-05-05T08:22:13.591Z</time></trkpt><trkpt lat="44.5903043" lon="15.4351458"><ele>573.0</ele><time>2026-05-05T08:22:14.59Z</time></trkpt><trkpt lat="44.5905711" lon="15.4352928"><ele>573.5</ele><time>2026-05-05T08:22:15.591Z</time></trkpt><trkpt lat="44.5908401" lon="15.4354306"><ele>574.0</ele><time>2026-05-05T08:22:16.59Z</time></trkpt><trkpt lat="44.5911108" lon="15.435573"><ele>573.0</ele><time>2026-05-05T08:22:17.59Z</time></trkpt><trkpt lat="44.5913772" lon="15.4357098"><ele>572.0</ele><time>2026-05-05T08:22:18.59Z</time></trkpt><trkpt lat="44.5916434" lon="15.4358461"><ele>572.0</ele><time>2026-05-05T08:22:19.59Z</time></trkpt><trkpt lat="44.591909" lon="15.4359824"><ele>572.0</ele><time>2026-05-05T08:22:20.59Z</time></trkpt><trkpt lat="44.5921727" lon="15.4361143"><ele>571.5</ele><time>2026-05-05T08:22:21.59Z</time></trkpt><trkpt lat="44.5924335" lon="15.4362392"><ele>571.0</ele><time>2026-05-05T08:22:22.59Z</time></trkpt><trkpt lat="44.5926953" lon="15.4363659"><ele>571.0</ele><time>2026-05-05T08:22:23.591Z</time></trkpt><trkpt lat="44.5929587" lon="15.4364909"><ele>571.0</ele><time>2026-05-05T08:22:24.59Z</time></trkpt><trkpt lat="44.5932233" lon="15.4366125"><ele>571.0</ele><time>2026-05-05T08:22:25.59Z</time></trkpt><trkpt lat="44.593492" lon="15.4367352"><ele>571.0</ele><time>2026-05-05T08:22:26.591Z</time></trkpt><trkpt lat="44.5937589" lon="15.4368547"><ele>571.0</ele><time>2026-05-05T08:22:27.591Z</time></trkpt><trkpt lat="44.5940255" lon="15.4369741"><ele>571.0</ele><time>2026-05-05T08:22:28.591Z</time></trkpt><trkpt lat="44.5942878" lon="15.4370879"><ele>572.0</ele><time>2026-05-05T08:22:29.591Z</time></trkpt><trkpt lat="44.5945523" lon="15.4371991"><ele>573.0</ele><time>2026-05-05T08:22:30.591Z</time></trkpt><trkpt lat="44.594816" lon="15.4373081"><ele>573.0</ele><time>2026-05-05T08:22:31.59Z</time></trkpt><trkpt lat="44.595081" lon="15.4374153"><ele>573.0</ele><time>2026-05-05T08:22:32.591Z</time></trkpt><trkpt lat="44.5953448" lon="15.4375296"><ele>573.5</ele><time>2026-05-05T08:22:33.591Z</time></trkpt><trkpt lat="44.595611" lon="15.4376299"><ele>574.0</ele><time>2026-05-05T08:22:34.591Z</time></trkpt><trkpt lat="44.5958784" lon="15.4377307"><ele>574.0</ele><time>2026-05-05T08:22:35.591Z</time></trkpt><trkpt lat="44.5961463" lon="15.4378281"><ele>574.0</ele><time>2026-05-05T08:22:36.59Z</time></trkpt><trkpt lat="44.5964179" lon="15.4379267"><ele>575.5</ele><time>2026-05-05T08:22:37.591Z</time></trkpt><trkpt lat="44.5966908" lon="15.438018"><ele>577.0</ele><time>2026-05-05T08:22:38.591Z</time></trkpt><trkpt lat="44.5969664" lon="15.4381164"><ele>577.0</ele><time>2026-05-05T08:22:39.591Z</time></trkpt><trkpt lat="44.5972421" lon="15.4382115"><ele>577.0</ele><time>2026-05-05T08:22:40.59Z</time></trkpt><trkpt lat="44.5975193" lon="15.4383048"><ele>577.0</ele><time>2026-05-05T08:22:41.591Z</time></trkpt><trkpt lat="44.5977981" lon="15.4383962"><ele>577.0</ele><time>2026-05-05T08:22:42.591Z</time></trkpt><trkpt lat="44.598078" lon="15.4384843"><ele>575.5</ele><time>2026-05-05T08:22:43.59Z</time></trkpt><trkpt lat="44.5983589" lon="15.4385702"><ele>574.0</ele><time>2026-05-05T08:22:44.591Z</time></trkpt><trkpt lat="44.5986417" lon="15.4386533"><ele>573.5</ele><time>2026-05-05T08:22:45.591Z</time></trkpt><trkpt lat="44.5989233" lon="15.4387333"><ele>573.0</ele><time>2026-05-05T08:22:46.591Z</time></trkpt><trkpt lat="44.5992024" lon="15.4388109"><ele>573.0</ele><time>2026-05-05T08:22:47.59Z</time></trkpt><trkpt lat="44.5994839" lon="15.438889"><ele>573.0</ele><time>2026-05-05T08:22:48.59Z</time></trkpt><trkpt lat="44.5997636" lon="15.4389651"><ele>572.5</ele><time>2026-05-05T08:22:49.59Z</time></trkpt><trkpt lat="44.6000469" lon="15.4390374"><ele>572.0</ele><time>2026-05-05T08:22:50.591Z</time></trkpt><trkpt lat="44.6003302" lon="15.4391071"><ele>571.5</ele><time>2026-05-05T08:22:51.59Z</time></trkpt><trkpt lat="44.6006143" lon="15.4391748"><ele>571.0</ele><time>2026-05-05T08:22:52.591Z</time></trkpt><trkpt lat="44.6009022" lon="15.4392423"><ele>570.5</ele><time>2026-05-05T08:22:53.591Z</time></trkpt><trkpt lat="44.6011886" lon="15.4393071"><ele>570.0</ele><time>2026-05-05T08:22:54.59Z</time></trkpt><trkpt lat="44.6014743" lon="15.4393685"><ele>570.0</ele><time>2026-05-05T08:22:55.591Z</time></trkpt><trkpt lat="44.6017632" lon="15.4394294"><ele>570.0</ele><time>2026-05-05T08:22:56.59Z</time></trkpt><trkpt lat="44.6020515" lon="15.4394892"><ele>570.0</ele><time>2026-05-05T08:22:57.59Z</time></trkpt><trkpt lat="44.602341" lon="15.4395443"><ele>570.0</ele><time>2026-05-05T08:22:58.591Z</time></trkpt><trkpt lat="44.6026303" lon="15.4395961"><ele>567.5</ele><time>2026-05-05T08:22:59.591Z</time></trkpt><trkpt lat="44.6029211" lon="15.4396456"><ele>565.0</ele><time>2026-05-05T08:23:00.59Z</time></trkpt><trkpt lat="44.6032101" lon="15.4396936"><ele>565.0</ele><time>2026-05-05T08:23:01.591Z</time></trkpt><trkpt lat="44.6034982" lon="15.4397405"><ele>565.0</ele><time>2026-05-05T08:23:02.591Z</time></trkpt><trkpt lat="44.6037861" lon="15.4397853"><ele>566.0</ele><time>2026-05-05T08:23:03.591Z</time></trkpt><trkpt lat="44.6040765" lon="15.4398314"><ele>567.0</ele><time>2026-05-05T08:23:04.591Z</time></trkpt><trkpt lat="44.6043646" lon="15.4398741"><ele>568.0</ele><time>2026-05-05T08:23:05.591Z</time></trkpt><trkpt lat="44.6046521" lon="15.4399159"><ele>569.0</ele><time>2026-05-05T08:23:06.591Z</time></trkpt><trkpt lat="44.6049395" lon="15.4399492"><ele>569.0</ele><time>2026-05-05T08:23:07.591Z</time></trkpt><trkpt lat="44.6052258" lon="15.4399779"><ele>569.0</ele><time>2026-05-05T08:23:08.591Z</time></trkpt><trkpt lat="44.6055132" lon="15.4400053"><ele>569.0</ele><time>2026-05-05T08:23:09.59Z</time></trkpt><trkpt lat="44.6058001" lon="15.4400314"><ele>569.0</ele><time>2026-05-05T08:23:10.591Z</time></trkpt><trkpt lat="44.6060864" lon="15.4400567"><ele>568.5</ele><time>2026-05-05T08:23:11.59Z</time></trkpt><trkpt lat="44.6063719" lon="15.4400801"><ele>568.0</ele><time>2026-05-05T08:23:12.591Z</time></trkpt><trkpt lat="44.6066585" lon="15.4401012"><ele>568.0</ele><time>2026-05-05T08:23:13.591Z</time></trkpt><trkpt lat="44.6069468" lon="15.4401194"><ele>568.0</ele><time>2026-05-05T08:23:14.591Z</time></trkpt><trkpt lat="44.607236" lon="15.4401403"><ele>567.5</ele><time>2026-05-05T08:23:15.59Z</time></trkpt><trkpt lat="44.6075259" lon="15.4401557"><ele>567.0</ele><time>2026-05-05T08:23:16.59Z</time></trkpt><trkpt lat="44.6078145" lon="15.4401706"><ele>567.0</ele><time>2026-05-05T08:23:17.59Z</time></trkpt><trkpt lat="44.6081042" lon="15.4401828"><ele>567.0</ele><time>2026-05-05T08:23:18.591Z</time></trkpt><trkpt lat="44.6083926" lon="15.4401875"><ele>567.5</ele><time>2026-05-05T08:23:19.59Z</time></trkpt><trkpt lat="44.6086804" lon="15.4401917"><ele>568.0</ele><time>2026-05-05T08:23:20.59Z</time></trkpt><trkpt lat="44.6089686" lon="15.4401899"><ele>568.0</ele><time>2026-05-05T08:23:21.59Z</time></trkpt><trkpt lat="44.609258" lon="15.440185"><ele>568.0</ele><time>2026-05-05T08:23:22.59Z</time></trkpt><trkpt lat="44.6095454" lon="15.4401769"><ele>568.5</ele><time>2026-05-05T08:23:23.59Z</time></trkpt><trkpt lat="44.6098338" lon="15.4401661"><ele>569.0</ele><time>2026-05-05T08:23:24.591Z</time></trkpt><trkpt lat="44.6101207" lon="15.4401609"><ele>571.0</ele><time>2026-05-05T08:23:25.591Z</time></trkpt><trkpt lat="44.6104096" lon="15.4401429"><ele>573.0</ele><time>2026-05-05T08:23:26.59Z</time></trkpt><trkpt lat="44.6106982" lon="15.4401216"><ele>573.0</ele><time>2026-05-05T08:23:27.59Z</time></trkpt><trkpt lat="44.6109863" lon="15.4400967"><ele>573.0</ele><time>2026-05-05T08:23:28.591Z</time></trkpt><trkpt lat="44.6112761" lon="15.440068"><ele>573.0</ele><time>2026-05-05T08:23:29.59Z</time></trkpt><trkpt lat="44.6115676" lon="15.4400362"><ele>573.0</ele><time>2026-05-05T08:23:30.591Z</time></trkpt><trkpt lat="44.6118601" lon="15.4400022"><ele>573.0</ele><time>2026-05-05T08:23:31.591Z</time></trkpt><trkpt lat="44.6121527" lon="15.4399684"><ele>573.0</ele><time>2026-05-05T08:23:32.591Z</time></trkpt><trkpt lat="44.6124463" lon="15.439927"><ele>573.0</ele><time>2026-05-05T08:23:33.591Z</time></trkpt><trkpt lat="44.6127398" lon="15.4398826"><ele>573.0</ele><time>2026-05-05T08:23:34.591Z</time></trkpt><trkpt lat="44.6130323" lon="15.4398329"><ele>571.0</ele><time>2026-05-05T08:23:35.59Z</time></trkpt><trkpt lat="44.6133234" lon="15.4397819"><ele>569.0</ele><time>2026-05-05T08:23:36.59Z</time></trkpt><trkpt lat="44.6136141" lon="15.4397281"><ele>568.5</ele><time>2026-05-05T08:23:37.59Z</time></trkpt><trkpt lat="44.6139029" lon="15.4396698"><ele>568.0</ele><time>2026-05-05T08:23:38.59Z</time></trkpt><trkpt lat="44.6141922" lon="15.43961"><ele>568.0</ele><time>2026-05-05T08:23:39.59Z</time></trkpt><trkpt lat="44.6144789" lon="15.4395489"><ele>568.0</ele><time>2026-05-05T08:23:40.591Z</time></trkpt><trkpt lat="44.6147655" lon="15.4394819"><ele>568.0</ele><time>2026-05-05T08:23:41.59Z</time></trkpt><trkpt lat="44.6150516" lon="15.4394115"><ele>568.0</ele><time>2026-05-05T08:23:42.59Z</time></trkpt><trkpt lat="44.6153389" lon="15.4393382"><ele>567.5</ele><time>2026-05-05T08:23:43.591Z</time></trkpt><trkpt lat="44.6156235" lon="15.439261"><ele>567.0</ele><time>2026-05-05T08:23:44.591Z</time></trkpt><trkpt lat="44.6159085" lon="15.4391828"><ele>569.0</ele><time>2026-05-05T08:23:45.591Z</time></trkpt><trkpt lat="44.6161925" lon="15.4391025"><ele>571.0</ele><time>2026-05-05T08:23:46.59Z</time></trkpt><trkpt lat="44.6164763" lon="15.4390192"><ele>571.0</ele><time>2026-05-05T08:23:47.59Z</time></trkpt><trkpt lat="44.6167596" lon="15.4389353"><ele>571.0</ele><time>2026-05-05T08:23:48.591Z</time></trkpt><trkpt lat="44.6170435" lon="15.4388503"><ele>571.0</ele><time>2026-05-05T08:23:49.591Z</time></trkpt><trkpt lat="44.6173256" lon="15.4387652"><ele>571.0</ele><time>2026-05-05T08:23:50.591Z</time></trkpt><trkpt lat="44.6176054" lon="15.4386842"><ele>571.0</ele><time>2026-05-05T08:23:51.59Z</time></trkpt><trkpt lat="44.617889" lon="15.4386008"><ele>571.0</ele><time>2026-05-05T08:23:52.59Z</time></trkpt><trkpt lat="44.618174" lon="15.4385204"><ele>571.0</ele><time>2026-05-05T08:23:53.591Z</time></trkpt><trkpt lat="44.6184603" lon="15.438443"><ele>571.0</ele><time>2026-05-05T08:23:54.59Z</time></trkpt><trkpt lat="44.6187468" lon="15.4383716"><ele>571.5</ele><time>2026-05-05T08:23:55.591Z</time></trkpt><trkpt lat="44.6190338" lon="15.4383048"><ele>572.0</ele><time>2026-05-05T08:23:56.59Z</time></trkpt><trkpt lat="44.619321" lon="15.4382439"><ele>570.5</ele><time>2026-05-05T08:23:57.591Z</time></trkpt><trkpt lat="44.6196078" lon="15.4381875"><ele>569.0</ele><time>2026-05-05T08:23:58.59Z</time></trkpt><trkpt lat="44.6198953" lon="15.4381367"><ele>569.0</ele><time>2026-05-05T08:23:59.59Z</time></trkpt><trkpt lat="44.620184" lon="15.4380941"><ele>569.0</ele><time>2026-05-05T08:24:00.59Z</time></trkpt><trkpt lat="44.6204704" lon="15.4380602"><ele>570.0</ele><time>2026-05-05T08:24:01.59Z</time></trkpt><trkpt lat="44.6207589" lon="15.4380297"><ele>571.0</ele><time>2026-05-05T08:24:02.591Z</time></trkpt><trkpt lat="44.6210484" lon="15.4380042"><ele>571.5</ele><time>2026-05-05T08:24:03.59Z</time></trkpt><trkpt lat="44.6213376" lon="15.4379867"><ele>572.0</ele><time>2026-05-05T08:24:04.591Z</time></trkpt><trkpt lat="44.6216272" lon="15.4379738"><ele>572.0</ele><time>2026-05-05T08:24:05.59Z</time></trkpt><trkpt lat="44.6219175" lon="15.437964"><ele>572.0</ele><time>2026-05-05T08:24:06.59Z</time></trkpt><trkpt lat="44.6222078" lon="15.4379667"><ele>574.0</ele><time>2026-05-05T08:24:07.59Z</time></trkpt><trkpt lat="44.6224983" lon="15.4379731"><ele>576.0</ele><time>2026-05-05T08:24:08.591Z</time></trkpt><trkpt lat="44.6227888" lon="15.4379838"><ele>576.0</ele><time>2026-05-05T08:24:09.591Z</time></trkpt><trkpt lat="44.6230798" lon="15.4379986"><ele>576.0</ele><time>2026-05-05T08:24:10.591Z</time></trkpt><trkpt lat="44.6233702" lon="15.4380207"><ele>575.5</ele><time>2026-05-05T08:24:11.591Z</time></trkpt><trkpt lat="44.62366" lon="15.4380479"><ele>575.0</ele><time>2026-05-05T08:24:12.591Z</time></trkpt><trkpt lat="44.6239479" lon="15.43808"><ele>575.0</ele><time>2026-05-05T08:24:13.591Z</time></trkpt><trkpt lat="44.6242352" lon="15.4381167"><ele>575.0</ele><time>2026-05-05T08:24:14.591Z</time></trkpt><trkpt lat="44.6245202" lon="15.4381607"><ele>574.0</ele><time>2026-05-05T08:24:15.591Z</time></trkpt><trkpt lat="44.624804" lon="15.438208"><ele>573.0</ele><time>2026-05-05T08:24:16.591Z</time></trkpt><trkpt lat="44.6250868" lon="15.4382622"><ele>574.5</ele><time>2026-05-05T08:24:17.591Z</time></trkpt><trkpt lat="44.6253692" lon="15.4383254"><ele>576.0</ele><time>2026-05-05T08:24:18.591Z</time></trkpt><trkpt lat="44.6256497" lon="15.4383911"><ele>576.0</ele><time>2026-05-05T08:24:19.59Z</time></trkpt><trkpt lat="44.6259297" lon="15.4384622"><ele>576.0</ele><time>2026-05-05T08:24:20.591Z</time></trkpt><trkpt lat="44.62621" lon="15.4385364"><ele>577.0</ele><time>2026-05-05T08:24:21.591Z</time></trkpt><trkpt lat="44.6264901" lon="15.4386145"><ele>578.0</ele><time>2026-05-05T08:24:22.591Z</time></trkpt><trkpt lat="44.626769" lon="15.4386966"><ele>578.5</ele><time>2026-05-05T08:24:23.59Z</time></trkpt><trkpt lat="44.6270475" lon="15.438781"><ele>579.0</ele><time>2026-05-05T08:24:24.591Z</time></trkpt><trkpt lat="44.6273243" lon="15.438871"><ele>579.0</ele><time>2026-05-05T08:24:25.591Z</time></trkpt><trkpt lat="44.627601" lon="15.4389628"><ele>579.0</ele><time>2026-05-05T08:24:26.591Z</time></trkpt><trkpt lat="44.6278848" lon="15.4390632"><ele>579.0</ele><time>2026-05-05T08:24:27.591Z</time></trkpt><trkpt lat="44.628163" lon="15.4391422"><ele>579.0</ele><time>2026-05-05T08:24:28.591Z</time></trkpt><trkpt lat="44.6284434" lon="15.4392258"><ele>580.5</ele><time>2026-05-05T08:24:29.591Z</time></trkpt><trkpt lat="44.6287255" lon="15.439304"><ele>582.0</ele><time>2026-05-05T08:24:30.59Z</time></trkpt><trkpt lat="44.6290056" lon="15.4393796"><ele>582.0</ele><time>2026-05-05T08:24:31.591Z</time></trkpt><trkpt lat="44.6292893" lon="15.4394565"><ele>582.0</ele><time>2026-05-05T08:24:32.59Z</time></trkpt><trkpt lat="44.6295707" lon="15.4395225"><ele>585.5</ele><time>2026-05-05T08:24:33.591Z</time></trkpt><trkpt lat="44.6298505" lon="15.4395818"><ele>589.0</ele><time>2026-05-05T08:24:34.59Z</time></trkpt><trkpt lat="44.6301347" lon="15.4396371"><ele>594.0</ele><time>2026-05-05T08:24:35.59Z</time></trkpt><trkpt lat="44.6304188" lon="15.4396887"><ele>599.0</ele><time>2026-05-05T08:24:36.591Z</time></trkpt><trkpt lat="44.6307061" lon="15.439731"><ele>599.0</ele><time>2026-05-05T08:24:37.59Z</time></trkpt><trkpt lat="44.6309946" lon="15.4397643"><ele>599.0</ele><time>2026-05-05T08:24:38.59Z</time></trkpt><trkpt lat="44.6312854" lon="15.4397922"><ele>603.5</ele><time>2026-05-05T08:24:39.591Z</time></trkpt><trkpt lat="44.6315792" lon="15.4398162"><ele>608.0</ele><time>2026-05-05T08:24:40.59Z</time></trkpt><trkpt lat="44.6318708" lon="15.4398324"><ele>613.0</ele><time>2026-05-05T08:24:41.59Z</time></trkpt><trkpt lat="44.6327509" lon="15.4398342"><ele>614.0</ele><time>2026-05-05T08:24:44.59Z</time></trkpt><trkpt lat="44.6330433" lon="15.4398239"><ele>615.0</ele><time>2026-05-05T08:24:45.591Z</time></trkpt><trkpt lat="44.6333366" lon="15.4398062"><ele>615.0</ele><time>2026-05-05T08:24:46.591Z</time></trkpt><trkpt lat="44.6336218" lon="15.4397826"><ele>615.0</ele><time>2026-05-05T08:24:47.591Z</time></trkpt><trkpt lat="44.6339145" lon="15.439755"><ele>614.5</ele><time>2026-05-05T08:24:48.591Z</time></trkpt><trkpt lat="44.6342074" lon="15.4397151"><ele>614.0</ele><time>2026-05-05T08:24:49.591Z</time></trkpt><trkpt lat="44.6344983" lon="15.4396675"><ele>610.5</ele><time>2026-05-05T08:24:50.591Z</time></trkpt><trkpt lat="44.6347878" lon="15.439615"><ele>607.0</ele><time>2026-05-05T08:24:51.59Z</time></trkpt><trkpt lat="44.6350794" lon="15.4395589"><ele>605.0</ele><time>2026-05-05T08:24:52.59Z</time></trkpt><trkpt lat="44.6353694" lon="15.4394974"><ele>603.0</ele><time>2026-05-05T08:24:53.59Z</time></trkpt><trkpt lat="44.6356604" lon="15.4394284"><ele>603.0</ele><time>2026-05-05T08:24:54.59Z</time></trkpt><trkpt lat="44.6359506" lon="15.4393517"><ele>603.0</ele><time>2026-05-05T08:24:55.591Z</time></trkpt><trkpt lat="44.6362394" lon="15.4392694"><ele>604.5</ele><time>2026-05-05T08:24:56.591Z</time></trkpt><trkpt lat="44.6365266" lon="15.4391821"><ele>606.0</ele><time>2026-05-05T08:24:57.591Z</time></trkpt><trkpt lat="44.6368132" lon="15.439088"><ele>607.0</ele><time>2026-05-05T08:24:58.591Z</time></trkpt><trkpt lat="44.637099" lon="15.4389859"><ele>608.0</ele><time>2026-05-05T08:24:59.591Z</time></trkpt><trkpt lat="44.6373845" lon="15.438875"><ele>608.0</ele><time>2026-05-05T08:25:00.591Z</time></trkpt><trkpt lat="44.6376612" lon="15.4387532"><ele>608.0</ele><time>2026-05-05T08:25:01.591Z</time></trkpt><trkpt lat="44.6379434" lon="15.4386306"><ele>607.0</ele><time>2026-05-05T08:25:02.59Z</time></trkpt><trkpt lat="44.6382262" lon="15.4385046"><ele>606.0</ele><time>2026-05-05T08:25:03.591Z</time></trkpt><trkpt lat="44.6385051" lon="15.4383687"><ele>606.5</ele><time>2026-05-05T08:25:04.591Z</time></trkpt><trkpt lat="44.6387815" lon="15.4382276"><ele>607.0</ele><time>2026-05-05T08:25:05.591Z</time></trkpt><trkpt lat="44.6390562" lon="15.4380781"><ele>607.5</ele><time>2026-05-05T08:25:06.591Z</time></trkpt><trkpt lat="44.6393279" lon="15.4379245"><ele>608.0</ele><time>2026-05-05T08:25:07.591Z</time></trkpt><trkpt lat="44.6396011" lon="15.4377617"><ele>608.0</ele><time>2026-05-05T08:25:08.591Z</time></trkpt><trkpt lat="44.6398717" lon="15.4375945"><ele>608.0</ele><time>2026-05-05T08:25:09.59Z</time></trkpt><trkpt lat="44.6401422" lon="15.437422"><ele>608.0</ele><time>2026-05-05T08:25:10.591Z</time></trkpt><trkpt lat="44.6404125" lon="15.4372445"><ele>608.0</ele><time>2026-05-05T08:25:11.59Z</time></trkpt><trkpt lat="44.6406835" lon="15.4370599"><ele>608.0</ele><time>2026-05-05T08:25:12.591Z</time></trkpt><trkpt lat="44.6409552" lon="15.4368744"><ele>608.0</ele><time>2026-05-05T08:25:13.591Z</time></trkpt><trkpt lat="44.6412252" lon="15.436685"><ele>605.5</ele><time>2026-05-05T08:25:14.591Z</time></trkpt><trkpt lat="44.6414958" lon="15.436499"><ele>603.0</ele><time>2026-05-05T08:25:15.591Z</time></trkpt><trkpt lat="44.6417671" lon="15.4363145"><ele>605.0</ele><time>2026-05-05T08:25:16.591Z</time></trkpt><trkpt lat="44.6420375" lon="15.4361315"><ele>607.0</ele><time>2026-05-05T08:25:17.59Z</time></trkpt><trkpt lat="44.6423065" lon="15.4359561"><ele>607.0</ele><time>2026-05-05T08:25:18.59Z</time></trkpt><trkpt lat="44.6425832" lon="15.4357883"><ele>607.0</ele><time>2026-05-05T08:25:19.59Z</time></trkpt><trkpt lat="44.642862" lon="15.4356294"><ele>609.0</ele><time>2026-05-05T08:25:20.59Z</time></trkpt><trkpt lat="44.6431457" lon="15.4354843"><ele>611.0</ele><time>2026-05-05T08:25:21.59Z</time></trkpt><trkpt lat="44.6434351" lon="15.4353535"><ele>614.5</ele><time>2026-05-05T08:25:22.59Z</time></trkpt><trkpt lat="44.6437262" lon="15.4352324"><ele>618.0</ele><time>2026-05-05T08:25:23.591Z</time></trkpt><trkpt lat="44.6440195" lon="15.4351217"><ele>618.0</ele><time>2026-05-05T08:25:24.591Z</time></trkpt><trkpt lat="44.6443165" lon="15.4350257"><ele>618.0</ele><time>2026-05-05T08:25:25.59Z</time></trkpt><trkpt lat="44.6446154" lon="15.4349401"><ele>619.5</ele><time>2026-05-05T08:25:26.591Z</time></trkpt><trkpt lat="44.6449168" lon="15.4348669"><ele>621.0</ele><time>2026-05-05T08:25:27.591Z</time></trkpt><trkpt lat="44.6452211" lon="15.4348088"><ele>621.5</ele><time>2026-05-05T08:25:28.591Z</time></trkpt><trkpt lat="44.6455255" lon="15.4347673"><ele>622.0</ele><time>2026-05-05T08:25:29.59Z</time></trkpt><trkpt lat="44.6458321" lon="15.4347323"><ele>621.5</ele><time>2026-05-05T08:25:30.59Z</time></trkpt><trkpt lat="44.6461368" lon="15.4347021"><ele>621.0</ele><time>2026-05-05T08:25:31.591Z</time></trkpt><trkpt lat="44.646443" lon="15.4346777"><ele>621.0</ele><time>2026-05-05T08:25:32.591Z</time></trkpt><trkpt lat="44.6467501" lon="15.4346524"><ele>621.0</ele><time>2026-05-05T08:25:33.591Z</time></trkpt><trkpt lat="44.6470564" lon="15.4346237"><ele>617.5</ele><time>2026-05-05T08:25:34.59Z</time></trkpt><trkpt lat="44.6473607" lon="15.4345911"><ele>614.0</ele><time>2026-05-05T08:25:35.59Z</time></trkpt><trkpt lat="44.6476646" lon="15.4345542"><ele>613.0</ele><time>2026-05-05T08:25:36.591Z</time></trkpt><trkpt lat="44.6479713" lon="15.4345122"><ele>612.0</ele><time>2026-05-05T08:25:37.59Z</time></trkpt><trkpt lat="44.6482721" lon="15.4344582"><ele>612.0</ele><time>2026-05-05T08:25:38.59Z</time></trkpt><trkpt lat="44.6485688" lon="15.4343944"><ele>612.0</ele><time>2026-05-05T08:25:39.591Z</time></trkpt><trkpt lat="44.6488629" lon="15.4343181"><ele>612.5</ele><time>2026-05-05T08:25:40.59Z</time></trkpt><trkpt lat="44.6491563" lon="15.4342274"><ele>613.0</ele><time>2026-05-05T08:25:41.591Z</time></trkpt><trkpt lat="44.6494477" lon="15.4341294"><ele>614.0</ele><time>2026-05-05T08:25:42.591Z</time></trkpt><trkpt lat="44.6497377" lon="15.434022"><ele>615.0</ele><time>2026-05-05T08:25:43.59Z</time></trkpt><trkpt lat="44.6500268" lon="15.4339093"><ele>613.5</ele><time>2026-05-05T08:25:44.591Z</time></trkpt><trkpt lat="44.650313" lon="15.4337769"><ele>612.0</ele><time>2026-05-05T08:25:45.591Z</time></trkpt><trkpt lat="44.6505954" lon="15.4336344"><ele>612.0</ele><time>2026-05-05T08:25:46.59Z</time></trkpt><trkpt lat="44.6508753" lon="15.4334818"><ele>612.0</ele><time>2026-05-05T08:25:47.59Z</time></trkpt><trkpt lat="44.6511559" lon="15.4333242"><ele>611.5</ele><time>2026-05-05T08:25:48.591Z</time></trkpt><trkpt lat="44.6514308" lon="15.4331536"><ele>611.0</ele><time>2026-05-05T08:25:49.591Z</time></trkpt><trkpt lat="44.6516989" lon="15.432971"><ele>613.0</ele><time>2026-05-05T08:25:50.591Z</time></trkpt><trkpt lat="44.6519656" lon="15.4327808"><ele>615.0</ele><time>2026-05-05T08:25:51.59Z</time></trkpt><trkpt lat="44.6522263" lon="15.4325854"><ele>615.0</ele><time>2026-05-05T08:25:52.59Z</time></trkpt><trkpt lat="44.6524831" lon="15.4323745"><ele>615.0</ele><time>2026-05-05T08:25:53.591Z</time></trkpt><trkpt lat="44.6527341" lon="15.4321518"><ele>617.5</ele><time>2026-05-05T08:25:54.59Z</time></trkpt><trkpt lat="44.6529839" lon="15.4319259"><ele>620.0</ele><time>2026-05-05T08:25:55.591Z</time></trkpt><trkpt lat="44.6532267" lon="15.4316882"><ele>620.0</ele><time>2026-05-05T08:25:56.591Z</time></trkpt><trkpt lat="44.6534661" lon="15.4314378"><ele>620.0</ele><time>2026-05-05T08:25:57.59Z</time></trkpt><trkpt lat="44.6537012" lon="15.4311818"><ele>622.0</ele><time>2026-05-05T08:25:58.59Z</time></trkpt><trkpt lat="44.6539367" lon="15.4309219"><ele>624.0</ele><time>2026-05-05T08:25:59.59Z</time></trkpt><trkpt lat="44.6541719" lon="15.43066"><ele>624.0</ele><time>2026-05-05T08:26:00.591Z</time></trkpt><trkpt lat="44.6544098" lon="15.4304013"><ele>624.0</ele><time>2026-05-05T08:26:01.591Z</time></trkpt><trkpt lat="44.6546493" lon="15.4301445"><ele>624.5</ele><time>2026-05-05T08:26:02.591Z</time></trkpt><trkpt lat="44.6548915" lon="15.4298866"><ele>625.0</ele><time>2026-05-05T08:26:03.59Z</time></trkpt><trkpt lat="44.6551317" lon="15.4296278"><ele>628.0</ele><time>2026-05-05T08:26:04.59Z</time></trkpt><trkpt lat="44.6553719" lon="15.4293732"><ele>631.0</ele><time>2026-05-05T08:26:05.591Z</time></trkpt><trkpt lat="44.6556143" lon="15.4291205"><ele>631.0</ele><time>2026-05-05T08:26:06.59Z</time></trkpt><trkpt lat="44.6558622" lon="15.4288728"><ele>631.0</ele><time>2026-05-05T08:26:07.591Z</time></trkpt><trkpt lat="44.6561118" lon="15.4286343"><ele>631.5</ele><time>2026-05-05T08:26:08.59Z</time></trkpt><trkpt lat="44.6563637" lon="15.4283999"><ele>632.0</ele><time>2026-05-05T08:26:09.59Z</time></trkpt><trkpt lat="44.6566195" lon="15.4281772"><ele>630.5</ele><time>2026-05-05T08:26:10.59Z</time></trkpt><trkpt lat="44.6568834" lon="15.4279546"><ele>629.0</ele><time>2026-05-05T08:26:11.591Z</time></trkpt><trkpt lat="44.6571472" lon="15.4277408"><ele>629.0</ele><time>2026-05-05T08:26:12.59Z</time></trkpt><trkpt lat="44.6574166" lon="15.4275286"><ele>629.0</ele><time>2026-05-05T08:26:13.591Z</time></trkpt><trkpt lat="44.6576869" lon="15.4273229"><ele>628.5</ele><time>2026-05-05T08:26:14.59Z</time></trkpt><trkpt lat="44.6579604" lon="15.4271229"><ele>628.0</ele><time>2026-05-05T08:26:15.591Z</time></trkpt><trkpt lat="44.6582402" lon="15.4269272"><ele>628.0</ele><time>2026-05-05T08:26:16.591Z</time></trkpt><trkpt lat="44.6585211" lon="15.426741"><ele>628.0</ele><time>2026-05-05T08:26:17.59Z</time></trkpt><trkpt lat="44.6588046" lon="15.4265589"><ele>628.5</ele><time>2026-05-05T08:26:18.59Z</time></trkpt><trkpt lat="44.659093" lon="15.4263868"><ele>629.0</ele><time>2026-05-05T08:26:19.59Z</time></trkpt><trkpt lat="44.6593822" lon="15.4262187"><ele>629.0</ele><time>2026-05-05T08:26:20.59Z</time></trkpt><trkpt lat="44.6596746" lon="15.4260588"><ele>629.0</ele><time>2026-05-05T08:26:21.59Z</time></trkpt><trkpt lat="44.659968" lon="15.4259032"><ele>629.0</ele><time>2026-05-05T08:26:22.59Z</time></trkpt><trkpt lat="44.6602648" lon="15.4257542"><ele>629.0</ele><time>2026-05-05T08:26:23.591Z</time></trkpt><trkpt lat="44.6605693" lon="15.4256046"><ele>625.5</ele><time>2026-05-05T08:26:24.59Z</time></trkpt><trkpt lat="44.6608693" lon="15.4254645"><ele>622.0</ele><time>2026-05-05T08:26:25.59Z</time></trkpt><trkpt lat="44.6611687" lon="15.4253244"><ele>621.0</ele><time>2026-05-05T08:26:26.59Z</time></trkpt><trkpt lat="44.661468" lon="15.425184"><ele>620.0</ele><time>2026-05-05T08:26:27.59Z</time></trkpt><trkpt lat="44.6617653" lon="15.4250445"><ele>618.0</ele><time>2026-05-05T08:26:28.59Z</time></trkpt><trkpt lat="44.6620595" lon="15.4249031"><ele>616.0</ele><time>2026-05-05T08:26:29.59Z</time></trkpt><trkpt lat="44.6623525" lon="15.4247603"><ele>616.5</ele><time>2026-05-05T08:26:30.59Z</time></trkpt><trkpt lat="44.6626459" lon="15.4246165"><ele>617.0</ele><time>2026-05-05T08:26:31.591Z</time></trkpt><trkpt lat="44.6629414" lon="15.4244714"><ele>617.5</ele><time>2026-05-05T08:26:32.59Z</time></trkpt><trkpt lat="44.6632318" lon="15.4243248"><ele>618.0</ele><time>2026-05-05T08:26:33.591Z</time></trkpt><trkpt lat="44.6635217" lon="15.4241767"><ele>617.0</ele><time>2026-05-05T08:26:34.591Z</time></trkpt><trkpt lat="44.6638087" lon="15.424023"><ele>616.0</ele><time>2026-05-05T08:26:35.591Z</time></trkpt><trkpt lat="44.6640941" lon="15.4238695"><ele>616.5</ele><time>2026-05-05T08:26:36.59Z</time></trkpt><trkpt lat="44.664377" lon="15.4237135"><ele>617.0</ele><time>2026-05-05T08:26:37.59Z</time></trkpt><trkpt lat="44.6646582" lon="15.4235528"><ele>615.0</ele><time>2026-05-05T08:26:38.59Z</time></trkpt><trkpt lat="44.6649416" lon="15.423392"><ele>613.0</ele><time>2026-05-05T08:26:39.591Z</time></trkpt><trkpt lat="44.6652159" lon="15.4232244"><ele>612.5</ele><time>2026-05-05T08:26:40.59Z</time></trkpt><trkpt lat="44.6654886" lon="15.4230478"><ele>612.0</ele><time>2026-05-05T08:26:41.59Z</time></trkpt><trkpt lat="44.6657612" lon="15.4228729"><ele>612.0</ele><time>2026-05-05T08:26:42.59Z</time></trkpt><trkpt lat="44.6660321" lon="15.4226975"><ele>612.0</ele><time>2026-05-05T08:26:43.59Z</time></trkpt><trkpt lat="44.6663021" lon="15.4225152"><ele>612.5</ele><time>2026-05-05T08:26:44.59Z</time></trkpt><trkpt lat="44.6665681" lon="15.4223303"><ele>613.0</ele><time>2026-05-05T08:26:45.591Z</time></trkpt><trkpt lat="44.666834" lon="15.4221405"><ele>613.0</ele><time>2026-05-05T08:26:46.591Z</time></trkpt><trkpt lat="44.6670957" lon="15.4219448"><ele>613.0</ele><time>2026-05-05T08:26:47.591Z</time></trkpt><trkpt lat="44.6673579" lon="15.4217473"><ele>613.0</ele><time>2026-05-05T08:26:48.59Z</time></trkpt><trkpt lat="44.6676193" lon="15.4215507"><ele>613.0</ele><time>2026-05-05T08:26:49.59Z</time></trkpt><trkpt lat="44.6678816" lon="15.4213482"><ele>614.0</ele><time>2026-05-05T08:26:50.59Z</time></trkpt><trkpt lat="44.6681376" lon="15.421139"><ele>615.0</ele><time>2026-05-05T08:26:51.59Z</time></trkpt><trkpt lat="44.6683936" lon="15.4209288"><ele>618.0</ele><time>2026-05-05T08:26:52.59Z</time></trkpt><trkpt lat="44.6686483" lon="15.4207159"><ele>621.0</ele><time>2026-05-05T08:26:53.59Z</time></trkpt><trkpt lat="44.6689013" lon="15.4205009"><ele>620.5</ele><time>2026-05-05T08:26:54.59Z</time></trkpt><trkpt lat="44.6691521" lon="15.4202802"><ele>620.0</ele><time>2026-05-05T08:26:55.59Z</time></trkpt><trkpt lat="44.6694011" lon="15.4200547"><ele>620.5</ele><time>2026-05-05T08:26:56.59Z</time></trkpt><trkpt lat="44.6696531" lon="15.4198247"><ele>621.0</ele><time>2026-05-05T08:26:57.591Z</time></trkpt><trkpt lat="44.6698972" lon="15.4195941"><ele>618.0</ele><time>2026-05-05T08:26:58.59Z</time></trkpt><trkpt lat="44.6701434" lon="15.4193524"><ele>615.0</ele><time>2026-05-05T08:26:59.591Z</time></trkpt><trkpt lat="44.6703833" lon="15.4191134"><ele>615.0</ele><time>2026-05-05T08:27:00.59Z</time></trkpt><trkpt lat="44.6706243" lon="15.4188717"><ele>615.0</ele><time>2026-05-05T08:27:01.591Z</time></trkpt><trkpt lat="44.670868" lon="15.4186318"><ele>614.0</ele><time>2026-05-05T08:27:02.591Z</time></trkpt><trkpt lat="44.6711061" lon="15.418389"><ele>613.0</ele><time>2026-05-05T08:27:03.591Z</time></trkpt><trkpt lat="44.6713399" lon="15.4181422"><ele>613.5</ele><time>2026-05-05T08:27:04.59Z</time></trkpt><trkpt lat="44.6715714" lon="15.41789"><ele>614.0</ele><time>2026-05-05T08:27:05.591Z</time></trkpt><trkpt lat="44.671805" lon="15.4176316"><ele>615.5</ele><time>2026-05-05T08:27:06.59Z</time></trkpt><trkpt lat="44.6720354" lon="15.4173696"><ele>617.0</ele><time>2026-05-05T08:27:07.59Z</time></trkpt><trkpt lat="44.6722667" lon="15.4171072"><ele>618.0</ele><time>2026-05-05T08:27:08.59Z</time></trkpt><trkpt lat="44.6724997" lon="15.4168454"><ele>619.0</ele><time>2026-05-05T08:27:09.591Z</time></trkpt><trkpt lat="44.6727327" lon="15.4165847"><ele>619.5</ele><time>2026-05-05T08:27:10.591Z</time></trkpt><trkpt lat="44.6729637" lon="15.4163211"><ele>620.0</ele><time>2026-05-05T08:27:11.591Z</time></trkpt><trkpt lat="44.673196" lon="15.4160595"><ele>620.0</ele><time>2026-05-05T08:27:12.591Z</time></trkpt><trkpt lat="44.6734283" lon="15.4158022"><ele>620.0</ele><time>2026-05-05T08:27:13.59Z</time></trkpt><trkpt lat="44.6736602" lon="15.415546"><ele>613.5</ele><time>2026-05-05T08:27:14.59Z</time></trkpt><trkpt lat="44.6738944" lon="15.4152944"><ele>607.0</ele><time>2026-05-05T08:27:15.59Z</time></trkpt><trkpt lat="44.6741279" lon="15.4150445"><ele>607.0</ele><time>2026-05-05T08:27:16.591Z</time></trkpt><trkpt lat="44.6743603" lon="15.4147956"><ele>607.0</ele><time>2026-05-05T08:27:17.591Z</time></trkpt><trkpt lat="44.6745929" lon="15.4145497"><ele>609.5</ele><time>2026-05-05T08:27:18.591Z</time></trkpt><trkpt lat="44.6748275" lon="15.4143093"><ele>612.0</ele><time>2026-05-05T08:27:19.59Z</time></trkpt><trkpt lat="44.6750619" lon="15.4140699"><ele>613.0</ele><time>2026-05-05T08:27:20.591Z</time></trkpt><trkpt lat="44.6752952" lon="15.4138351"><ele>614.0</ele><time>2026-05-05T08:27:21.59Z</time></trkpt><trkpt lat="44.6755294" lon="15.4136064"><ele>614.0</ele><time>2026-05-05T08:27:22.59Z</time></trkpt><trkpt lat="44.6757657" lon="15.4133751"><ele>614.0</ele><time>2026-05-05T08:27:23.59Z</time></trkpt><trkpt lat="44.6759997" lon="15.4131474"><ele>613.0</ele><time>2026-05-05T08:27:24.59Z</time></trkpt><trkpt lat="44.6762378" lon="15.4129234"><ele>612.0</ele><time>2026-05-05T08:27:25.591Z</time></trkpt><trkpt lat="44.6764789" lon="15.4126999"><ele>612.0</ele><time>2026-05-05T08:27:26.591Z</time></trkpt><trkpt lat="44.6767184" lon="15.4124839"><ele>612.0</ele><time>2026-05-05T08:27:27.591Z</time></trkpt><trkpt lat="44.6769576" lon="15.4122671"><ele>609.5</ele><time>2026-05-05T08:27:28.591Z</time></trkpt><trkpt lat="44.6771999" lon="15.4120592"><ele>607.0</ele><time>2026-05-05T08:27:29.591Z</time></trkpt><trkpt lat="44.677441" lon="15.411851"><ele>607.0</ele><time>2026-05-05T08:27:30.59Z</time></trkpt><trkpt lat="44.6776826" lon="15.4116477"><ele>607.0</ele><time>2026-05-05T08:27:31.59Z</time></trkpt><trkpt lat="44.6779251" lon="15.4114445"><ele>607.5</ele><time>2026-05-05T08:27:32.591Z</time></trkpt><trkpt lat="44.6781717" lon="15.4112456"><ele>608.0</ele><time>2026-05-05T08:27:33.591Z</time></trkpt><trkpt lat="44.6784201" lon="15.4110458"><ele>612.0</ele><time>2026-05-05T08:27:34.59Z</time></trkpt><trkpt lat="44.6786689" lon="15.41085"><ele>616.0</ele><time>2026-05-05T08:27:35.591Z</time></trkpt><trkpt lat="44.6789251" lon="15.4106547"><ele>615.0</ele><time>2026-05-05T08:27:36.59Z</time></trkpt><trkpt lat="44.6791794" lon="15.4104656"><ele>614.0</ele><time>2026-05-05T08:27:37.591Z</time></trkpt><trkpt lat="44.6794347" lon="15.4102788"><ele>614.0</ele><time>2026-05-05T08:27:38.59Z</time></trkpt><trkpt lat="44.679688" lon="15.4100916"><ele>614.0</ele><time>2026-05-05T08:27:39.59Z</time></trkpt><trkpt lat="44.6799461" lon="15.4099027"><ele>614.0</ele><time>2026-05-05T08:27:40.591Z</time></trkpt><trkpt lat="44.6802051" lon="15.4097181"><ele>614.0</ele><time>2026-05-05T08:27:41.59Z</time></trkpt><trkpt lat="44.6804654" lon="15.4095349"><ele>614.0</ele><time>2026-05-05T08:27:42.59Z</time></trkpt><trkpt lat="44.6807329" lon="15.4093555"><ele>614.0</ele><time>2026-05-05T08:27:43.59Z</time></trkpt><trkpt lat="44.6810018" lon="15.4091817"><ele>618.0</ele><time>2026-05-05T08:27:44.591Z</time></trkpt><trkpt lat="44.6812717" lon="15.4090088"><ele>622.0</ele><time>2026-05-05T08:27:45.59Z</time></trkpt><trkpt lat="44.6815442" lon="15.4088386"><ele>621.0</ele><time>2026-05-05T08:27:46.591Z</time></trkpt><trkpt lat="44.6818176" lon="15.4086709"><ele>620.0</ele><time>2026-05-05T08:27:47.59Z</time></trkpt><trkpt lat="44.6820942" lon="15.4085049"><ele>620.0</ele><time>2026-05-05T08:27:48.59Z</time></trkpt><trkpt lat="44.6823737" lon="15.4083435"><ele>620.0</ele><time>2026-05-05T08:27:49.59Z</time></trkpt><trkpt lat="44.6826522" lon="15.4081832"><ele>618.5</ele><time>2026-05-05T08:27:50.59Z</time></trkpt><trkpt lat="44.6829335" lon="15.4080244"><ele>617.0</ele><time>2026-05-05T08:27:51.59Z</time></trkpt><trkpt lat="44.6832194" lon="15.4078663"><ele>616.0</ele><time>2026-05-05T08:27:52.591Z</time></trkpt><trkpt lat="44.6835035" lon="15.4077138"><ele>615.0</ele><time>2026-05-05T08:27:53.59Z</time></trkpt><trkpt lat="44.6837903" lon="15.4075664"><ele>613.5</ele><time>2026-05-05T08:27:54.59Z</time></trkpt><trkpt lat="44.6840776" lon="15.4074233"><ele>612.0</ele><time>2026-05-05T08:27:55.591Z</time></trkpt><trkpt lat="44.6843642" lon="15.4072793"><ele>609.5</ele><time>2026-05-05T08:27:56.591Z</time></trkpt><trkpt lat="44.6846521" lon="15.4071395"><ele>607.0</ele><time>2026-05-05T08:27:57.591Z</time></trkpt><trkpt lat="44.6849379" lon="15.4070018"><ele>607.0</ele><time>2026-05-05T08:27:58.591Z</time></trkpt><trkpt lat="44.6852207" lon="15.4068602"><ele>607.0</ele><time>2026-05-05T08:27:59.59Z</time></trkpt><trkpt lat="44.685503" lon="15.4067207"><ele>608.5</ele><time>2026-05-05T08:28:00.59Z</time></trkpt><trkpt lat="44.6857848" lon="15.4065834"><ele>610.0</ele><time>2026-05-05T08:28:01.591Z</time></trkpt><trkpt lat="44.6860647" lon="15.4064439"><ele>612.0</ele><time>2026-05-05T08:28:02.591Z</time></trkpt><trkpt lat="44.6863453" lon="15.406302"><ele>614.0</ele><time>2026-05-05T08:28:03.59Z</time></trkpt><trkpt lat="44.6866263" lon="15.4061593"><ele>614.0</ele><time>2026-05-05T08:28:04.59Z</time></trkpt><trkpt lat="44.6869068" lon="15.4060146"><ele>614.0</ele><time>2026-05-05T08:28:05.59Z</time></trkpt><trkpt lat="44.6871896" lon="15.4058724"><ele>614.5</ele><time>2026-05-05T08:28:06.591Z</time></trkpt><trkpt lat="44.6874737" lon="15.405725"><ele>615.0</ele><time>2026-05-05T08:28:07.59Z</time></trkpt><trkpt lat="44.6877582" lon="15.4055738"><ele>614.5</ele><time>2026-05-05T08:28:08.59Z</time></trkpt><trkpt lat="44.6880428" lon="15.4054185"><ele>614.0</ele><time>2026-05-05T08:28:09.59Z</time></trkpt><trkpt lat="44.6883267" lon="15.4052634"><ele>613.5</ele><time>2026-05-05T08:28:10.59Z</time></trkpt><trkpt lat="44.6886097" lon="15.4051048"><ele>613.0</ele><time>2026-05-05T08:28:11.591Z</time></trkpt><trkpt lat="44.68889" lon="15.4049472"><ele>613.0</ele><time>2026-05-05T08:28:12.591Z</time></trkpt><trkpt lat="44.6891705" lon="15.4047835"><ele>613.0</ele><time>2026-05-05T08:28:13.591Z</time></trkpt><trkpt lat="44.6894472" lon="15.4046199"><ele>612.0</ele><time>2026-05-05T08:28:14.591Z</time></trkpt><trkpt lat="44.6897225" lon="15.4044531"><ele>611.0</ele><time>2026-05-05T08:28:15.59Z</time></trkpt><trkpt lat="44.6899976" lon="15.4042825"><ele>614.5</ele><time>2026-05-05T08:28:16.59Z</time></trkpt><trkpt lat="44.6902723" lon="15.4041086"><ele>618.0</ele><time>2026-05-05T08:28:17.591Z</time></trkpt><trkpt lat="44.6905429" lon="15.4039352"><ele>616.5</ele><time>2026-05-05T08:28:18.59Z</time></trkpt><trkpt lat="44.6908153" lon="15.4037656"><ele>615.0</ele><time>2026-05-05T08:28:19.591Z</time></trkpt><trkpt lat="44.6910861" lon="15.4035913"><ele>614.5</ele><time>2026-05-05T08:28:20.591Z</time></trkpt><trkpt lat="44.6913557" lon="15.4034151"><ele>614.0</ele><time>2026-05-05T08:28:21.591Z</time></trkpt><trkpt lat="44.6916224" lon="15.4032338"><ele>614.0</ele><time>2026-05-05T08:28:22.591Z</time></trkpt><trkpt lat="44.6918868" lon="15.4030523"><ele>614.0</ele><time>2026-05-05T08:28:23.591Z</time></trkpt><trkpt lat="44.6921493" lon="15.4028719"><ele>615.0</ele><time>2026-05-05T08:28:24.591Z</time></trkpt><trkpt lat="44.6924129" lon="15.4026876"><ele>616.0</ele><time>2026-05-05T08:28:25.59Z</time></trkpt><trkpt lat="44.6926769" lon="15.4025004"><ele>616.0</ele><time>2026-05-05T08:28:26.591Z</time></trkpt><trkpt lat="44.6929391" lon="15.4023142"><ele>616.0</ele><time>2026-05-05T08:28:27.59Z</time></trkpt><trkpt lat="44.6931992" lon="15.4021252"><ele>615.5</ele><time>2026-05-05T08:28:28.591Z</time></trkpt><trkpt lat="44.6934597" lon="15.4019318"><ele>615.0</ele><time>2026-05-05T08:28:29.59Z</time></trkpt><trkpt lat="44.6937193" lon="15.4017351"><ele>611.5</ele><time>2026-05-05T08:28:30.591Z</time></trkpt><trkpt lat="44.6939785" lon="15.4015358"><ele>608.0</ele><time>2026-05-05T08:28:31.59Z</time></trkpt><trkpt lat="44.6942361" lon="15.4013324"><ele>606.0</ele><time>2026-05-05T08:28:32.591Z</time></trkpt><trkpt lat="44.6944913" lon="15.4011309"><ele>604.0</ele><time>2026-05-05T08:28:33.591Z</time></trkpt><trkpt lat="44.6947495" lon="15.4009284"><ele>604.0</ele><time>2026-05-05T08:28:34.591Z</time></trkpt><trkpt lat="44.6950035" lon="15.4007251"><ele>604.0</ele><time>2026-05-05T08:28:35.59Z</time></trkpt><trkpt lat="44.6952555" lon="15.4005166"><ele>609.5</ele><time>2026-05-05T08:28:36.59Z</time></trkpt><trkpt lat="44.6955073" lon="15.4003064"><ele>615.0</ele><time>2026-05-05T08:28:37.591Z</time></trkpt><trkpt lat="44.6957587" lon="15.4000978"><ele>615.0</ele><time>2026-05-05T08:28:38.59Z</time></trkpt><trkpt lat="44.6960068" lon="15.3998847"><ele>615.0</ele><time>2026-05-05T08:28:39.591Z</time></trkpt><trkpt lat="44.6962563" lon="15.3996702"><ele>617.5</ele><time>2026-05-05T08:28:40.591Z</time></trkpt><trkpt lat="44.6965055" lon="15.3994531"><ele>620.0</ele><time>2026-05-05T08:28:41.59Z</time></trkpt><trkpt lat="44.696754" lon="15.3992352"><ele>620.5</ele><time>2026-05-05T08:28:42.591Z</time></trkpt><trkpt lat="44.6970012" lon="15.3990152"><ele>621.0</ele><time>2026-05-05T08:28:43.59Z</time></trkpt><trkpt lat="44.6972484" lon="15.3987918"><ele>624.0</ele><time>2026-05-05T08:28:44.591Z</time></trkpt><trkpt lat="44.6974928" lon="15.3985678"><ele>627.0</ele><time>2026-05-05T08:28:45.591Z</time></trkpt><trkpt lat="44.6977343" lon="15.3983417"><ele>625.0</ele><time>2026-05-05T08:28:46.591Z</time></trkpt><trkpt lat="44.6979789" lon="15.3981137"><ele>623.0</ele><time>2026-05-05T08:28:47.59Z</time></trkpt><trkpt lat="44.6982231" lon="15.3978814"><ele>623.0</ele><time>2026-05-05T08:28:48.59Z</time></trkpt><trkpt lat="44.6984704" lon="15.397652"><ele>623.0</ele><time>2026-05-05T08:28:49.591Z</time></trkpt><trkpt lat="44.6987133" lon="15.3974203"><ele>624.0</ele><time>2026-05-05T08:28:50.59Z</time></trkpt><trkpt lat="44.6989578" lon="15.3971877"><ele>625.0</ele><time>2026-05-05T08:28:51.591Z</time></trkpt><trkpt lat="44.6991994" lon="15.3969544"><ele>628.5</ele><time>2026-05-05T08:28:52.591Z</time></trkpt><trkpt lat="44.6994397" lon="15.39672"><ele>632.0</ele><time>2026-05-05T08:28:53.59Z</time></trkpt><trkpt lat="44.6996781" lon="15.3964833"><ele>635.0</ele><time>2026-05-05T08:28:54.591Z</time></trkpt><trkpt lat="44.6999275" lon="15.3962348"><ele>638.0</ele><time>2026-05-05T08:28:55.59Z</time></trkpt><trkpt lat="44.7001664" lon="15.3959983"><ele>637.5</ele><time>2026-05-05T08:28:56.59Z</time></trkpt><trkpt lat="44.7004188" lon="15.3957434"><ele>637.0</ele><time>2026-05-05T08:28:57.591Z</time></trkpt><trkpt lat="44.7006681" lon="15.3955014"><ele>635.0</ele><time>2026-05-05T08:28:58.591Z</time></trkpt><trkpt lat="44.7009199" lon="15.3952557"><ele>633.0</ele><time>2026-05-05T08:28:59.59Z</time></trkpt><trkpt lat="44.7011669" lon="15.3950072"><ele>631.5</ele><time>2026-05-05T08:29:00.591Z</time></trkpt><trkpt lat="44.7014146" lon="15.3947619"><ele>630.0</ele><time>2026-05-05T08:29:01.59Z</time></trkpt><trkpt lat="44.7016653" lon="15.3945161"><ele>629.5</ele><time>2026-05-05T08:29:02.591Z</time></trkpt><trkpt lat="44.7019151" lon="15.3942783"><ele>629.0</ele><time>2026-05-05T08:29:03.59Z</time></trkpt><trkpt lat="44.702167" lon="15.3940445"><ele>626.0</ele><time>2026-05-05T08:29:04.591Z</time></trkpt><trkpt lat="44.702417" lon="15.3938106"><ele>623.0</ele><time>2026-05-05T08:29:05.591Z</time></trkpt><trkpt lat="44.7026702" lon="15.3935824"><ele>628.0</ele><time>2026-05-05T08:29:06.591Z</time></trkpt><trkpt lat="44.7029215" lon="15.3933594"><ele>633.0</ele><time>2026-05-05T08:29:07.591Z</time></trkpt><trkpt lat="44.7031775" lon="15.3931435"><ele>633.0</ele><time>2026-05-05T08:29:08.591Z</time></trkpt><trkpt lat="44.7034388" lon="15.392928"><ele>633.0</ele><time>2026-05-05T08:29:09.59Z</time></trkpt><trkpt lat="44.703699" lon="15.3927192"><ele>633.0</ele><time>2026-05-05T08:29:10.59Z</time></trkpt><trkpt lat="44.7039645" lon="15.3925119"><ele>633.0</ele><time>2026-05-05T08:29:11.591Z</time></trkpt><trkpt lat="44.7042322" lon="15.3923137"><ele>635.0</ele><time>2026-05-05T08:29:12.591Z</time></trkpt><trkpt lat="44.7045023" lon="15.392114"><ele>637.0</ele><time>2026-05-05T08:29:13.59Z</time></trkpt><trkpt lat="44.7047733" lon="15.3919212"><ele>637.0</ele><time>2026-05-05T08:29:14.591Z</time></trkpt><trkpt lat="44.705046" lon="15.391725"><ele>637.0</ele><time>2026-05-05T08:29:15.59Z</time></trkpt><trkpt lat="44.7053207" lon="15.391536"><ele>636.0</ele><time>2026-05-05T08:29:16.591Z</time></trkpt><trkpt lat="44.7055914" lon="15.3913508"><ele>635.0</ele><time>2026-05-05T08:29:17.591Z</time></trkpt><trkpt lat="44.7058657" lon="15.3911672"><ele>636.5</ele><time>2026-05-05T08:29:18.59Z</time></trkpt><trkpt lat="44.7061392" lon="15.3909806"><ele>638.0</ele><time>2026-05-05T08:29:19.591Z</time></trkpt><trkpt lat="44.7064152" lon="15.3908006"><ele>638.0</ele><time>2026-05-05T08:29:20.591Z</time></trkpt><trkpt lat="44.7066909" lon="15.3906242"><ele>638.0</ele><time>2026-05-05T08:29:21.591Z</time></trkpt><trkpt lat="44.7069702" lon="15.3904528"><ele>640.5</ele><time>2026-05-05T08:29:22.59Z</time></trkpt><trkpt lat="44.7072501" lon="15.390283"><ele>643.0</ele><time>2026-05-05T08:29:23.591Z</time></trkpt><trkpt lat="44.7075343" lon="15.3901188"><ele>645.5</ele><time>2026-05-05T08:29:24.591Z</time></trkpt><trkpt lat="44.7078142" lon="15.389958"><ele>648.0</ele><time>2026-05-05T08:29:25.591Z</time></trkpt><trkpt lat="44.7080933" lon="15.3897965"><ele>648.0</ele><time>2026-05-05T08:29:26.591Z</time></trkpt><trkpt lat="44.7083779" lon="15.3896401"><ele>648.0</ele><time>2026-05-05T08:29:27.59Z</time></trkpt><trkpt lat="44.7086592" lon="15.3894888"><ele>647.0</ele><time>2026-05-05T08:29:28.59Z</time></trkpt><trkpt lat="44.7089399" lon="15.3893424"><ele>646.0</ele><time>2026-05-05T08:29:29.59Z</time></trkpt><trkpt lat="44.709221" lon="15.3892038"><ele>644.5</ele><time>2026-05-05T08:29:30.591Z</time></trkpt><trkpt lat="44.7095038" lon="15.3890654"><ele>643.0</ele><time>2026-05-05T08:29:31.59Z</time></trkpt><trkpt lat="44.7097851" lon="15.3889321"><ele>639.5</ele><time>2026-05-05T08:29:32.591Z</time></trkpt><trkpt lat="44.7100656" lon="15.3888035"><ele>636.0</ele><time>2026-05-05T08:29:33.59Z</time></trkpt><trkpt lat="44.7103478" lon="15.3886736"><ele>636.0</ele><time>2026-05-05T08:29:34.591Z</time></trkpt><trkpt lat="44.7106361" lon="15.3885499"><ele>636.0</ele><time>2026-05-05T08:29:35.591Z</time></trkpt><trkpt lat="44.7109223" lon="15.3884265"><ele>637.0</ele><time>2026-05-05T08:29:36.591Z</time></trkpt><trkpt lat="44.7112088" lon="15.388308"><ele>638.0</ele><time>2026-05-05T08:29:37.591Z</time></trkpt><trkpt lat="44.711497" lon="15.3881913"><ele>638.0</ele><time>2026-05-05T08:29:38.591Z</time></trkpt><trkpt lat="44.7117876" lon="15.3880798"><ele>638.0</ele><time>2026-05-05T08:29:39.591Z</time></trkpt><trkpt lat="44.7120775" lon="15.3879717"><ele>637.5</ele><time>2026-05-05T08:29:40.59Z</time></trkpt><trkpt lat="44.7123704" lon="15.3878677"><ele>637.0</ele><time>2026-05-05T08:29:41.591Z</time></trkpt><trkpt lat="44.712663" lon="15.3877695"><ele>634.0</ele><time>2026-05-05T08:29:42.59Z</time></trkpt><trkpt lat="44.7129569" lon="15.387674"><ele>631.0</ele><time>2026-05-05T08:29:43.591Z</time></trkpt><trkpt lat="44.713252" lon="15.3875811"><ele>631.0</ele><time>2026-05-05T08:29:44.591Z</time></trkpt><trkpt lat="44.7135438" lon="15.3874923"><ele>631.0</ele><time>2026-05-05T08:29:45.591Z</time></trkpt><trkpt lat="44.7138386" lon="15.3874086"><ele>631.5</ele><time>2026-05-05T08:29:46.591Z</time></trkpt><trkpt lat="44.7141344" lon="15.3873258"><ele>632.0</ele><time>2026-05-05T08:29:47.591Z</time></trkpt><trkpt lat="44.714431" lon="15.3872482"><ele>630.5</ele><time>2026-05-05T08:29:48.59Z</time></trkpt><trkpt lat="44.7147282" lon="15.3871748"><ele>629.0</ele><time>2026-05-05T08:29:49.59Z</time></trkpt><trkpt lat="44.7150257" lon="15.3871027"><ele>627.0</ele><time>2026-05-05T08:29:50.59Z</time></trkpt><trkpt lat="44.715324" lon="15.387034"><ele>625.0</ele><time>2026-05-05T08:29:51.591Z</time></trkpt><trkpt lat="44.7156236" lon="15.3869684"><ele>625.0</ele><time>2026-05-05T08:29:52.591Z</time></trkpt><trkpt lat="44.715923" lon="15.3869115"><ele>625.0</ele><time>2026-05-05T08:29:53.591Z</time></trkpt><trkpt lat="44.7162225" lon="15.3868579"><ele>626.0</ele><time>2026-05-05T08:29:54.591Z</time></trkpt><trkpt lat="44.7165213" lon="15.3868093"><ele>627.0</ele><time>2026-05-05T08:29:55.59Z</time></trkpt><trkpt lat="44.7168185" lon="15.386762"><ele>631.5</ele><time>2026-05-05T08:29:56.591Z</time></trkpt><trkpt lat="44.7171156" lon="15.3867182"><ele>636.0</ele><time>2026-05-05T08:29:57.591Z</time></trkpt><trkpt lat="44.7174123" lon="15.3866802"><ele>636.0</ele><time>2026-05-05T08:29:58.591Z</time></trkpt><trkpt lat="44.71771" lon="15.3866413"><ele>636.0</ele><time>2026-05-05T08:29:59.59Z</time></trkpt><trkpt lat="44.7180063" lon="15.3866053"><ele>637.0</ele><time>2026-05-05T08:30:00.59Z</time></trkpt><trkpt lat="44.7183031" lon="15.3865746"><ele>638.0</ele><time>2026-05-05T08:30:01.591Z</time></trkpt><trkpt lat="44.7186005" lon="15.3865456"><ele>636.0</ele><time>2026-05-05T08:30:02.59Z</time></trkpt><trkpt lat="44.7188969" lon="15.3865181"><ele>634.0</ele><time>2026-05-05T08:30:03.59Z</time></trkpt><trkpt lat="44.7191934" lon="15.3864892"><ele>632.5</ele><time>2026-05-05T08:30:04.591Z</time></trkpt><trkpt lat="44.7194919" lon="15.3864625"><ele>631.0</ele><time>2026-05-05T08:30:05.591Z</time></trkpt><trkpt lat="44.7197898" lon="15.3864346"><ele>631.0</ele><time>2026-05-05T08:30:06.591Z</time></trkpt><trkpt lat="44.720088" lon="15.3864109"><ele>631.0</ele><time>2026-05-05T08:30:07.591Z</time></trkpt><trkpt lat="44.7203848" lon="15.3863846"><ele>629.5</ele><time>2026-05-05T08:30:08.591Z</time></trkpt><trkpt lat="44.7206832" lon="15.3863573"><ele>628.0</ele><time>2026-05-05T08:30:09.59Z</time></trkpt><trkpt lat="44.7209779" lon="15.386327"><ele>629.5</ele><time>2026-05-05T08:30:10.591Z</time></trkpt><trkpt lat="44.7212706" lon="15.3862954"><ele>631.0</ele><time>2026-05-05T08:30:11.59Z</time></trkpt><trkpt lat="44.7215636" lon="15.3862608"><ele>631.0</ele><time>2026-05-05T08:30:12.591Z</time></trkpt><trkpt lat="44.7218594" lon="15.3862281"><ele>631.0</ele><time>2026-05-05T08:30:13.591Z</time></trkpt><trkpt lat="44.7221554" lon="15.3861948"><ele>630.0</ele><time>2026-05-05T08:30:14.59Z</time></trkpt><trkpt lat="44.7224506" lon="15.3861564"><ele>629.0</ele><time>2026-05-05T08:30:15.59Z</time></trkpt><trkpt lat="44.7227454" lon="15.3861166"><ele>622.5</ele><time>2026-05-05T08:30:16.59Z</time></trkpt><trkpt lat="44.7230391" lon="15.3860698"><ele>616.0</ele><time>2026-05-05T08:30:17.591Z</time></trkpt><trkpt lat="44.723332" lon="15.3860187"><ele>609.0</ele><time>2026-05-05T08:30:18.591Z</time></trkpt><trkpt lat="44.723623" lon="15.3859677"><ele>602.0</ele><time>2026-05-05T08:30:19.59Z</time></trkpt><trkpt lat="44.7239138" lon="15.3859154"><ele>602.0</ele><time>2026-05-05T08:30:20.591Z</time></trkpt><trkpt lat="44.724204" lon="15.3858605"><ele>602.0</ele><time>2026-05-05T08:30:21.59Z</time></trkpt><trkpt lat="44.7244933" lon="15.3858039"><ele>603.5</ele><time>2026-05-05T08:30:22.59Z</time></trkpt><trkpt lat="44.7247817" lon="15.3857417"><ele>605.0</ele><time>2026-05-05T08:30:23.59Z</time></trkpt><trkpt lat="44.7250687" lon="15.3856719"><ele>605.0</ele><time>2026-05-05T08:30:24.591Z</time></trkpt><trkpt lat="44.7253545" lon="15.385599"><ele>605.0</ele><time>2026-05-05T08:30:25.591Z</time></trkpt><trkpt lat="44.7256398" lon="15.3855244"><ele>605.5</ele><time>2026-05-05T08:30:26.591Z</time></trkpt><trkpt lat="44.7259251" lon="15.3854456"><ele>606.0</ele><time>2026-05-05T08:30:27.59Z</time></trkpt><trkpt lat="44.7262112" lon="15.3853619"><ele>605.0</ele><time>2026-05-05T08:30:28.591Z</time></trkpt><trkpt lat="44.7264946" lon="15.3852759"><ele>604.0</ele><time>2026-05-05T08:30:29.591Z</time></trkpt><trkpt lat="44.726778" lon="15.3851884"><ele>604.0</ele><time>2026-05-05T08:30:30.591Z</time></trkpt><trkpt lat="44.7270568" lon="15.3850998"><ele>604.0</ele><time>2026-05-05T08:30:31.59Z</time></trkpt><trkpt lat="44.7273358" lon="15.3850025"><ele>604.0</ele><time>2026-05-05T08:30:32.591Z</time></trkpt><trkpt lat="44.727616" lon="15.3849046"><ele>604.0</ele><time>2026-05-05T08:30:33.59Z</time></trkpt><trkpt lat="44.7278935" lon="15.3848007"><ele>603.0</ele><time>2026-05-05T08:30:34.591Z</time></trkpt><trkpt lat="44.728171" lon="15.3846917"><ele>602.0</ele><time>2026-05-05T08:30:35.591Z</time></trkpt><trkpt lat="44.7284478" lon="15.3845839"><ele>605.0</ele><time>2026-05-05T08:30:36.59Z</time></trkpt><trkpt lat="44.7287243" lon="15.3844744"><ele>608.0</ele><time>2026-05-05T08:30:37.59Z</time></trkpt><trkpt lat="44.728999" lon="15.38436"><ele>608.0</ele><time>2026-05-05T08:30:38.59Z</time></trkpt><trkpt lat="44.7292753" lon="15.3842367"><ele>608.0</ele><time>2026-05-05T08:30:39.591Z</time></trkpt><trkpt lat="44.7295561" lon="15.3841172"><ele>608.0</ele><time>2026-05-05T08:30:40.59Z</time></trkpt><trkpt lat="44.7298337" lon="15.3839872"><ele>608.0</ele><time>2026-05-05T08:30:41.59Z</time></trkpt><trkpt lat="44.73011" lon="15.3838559"><ele>610.0</ele><time>2026-05-05T08:30:42.591Z</time></trkpt><trkpt lat="44.7303874" lon="15.3837237"><ele>612.0</ele><time>2026-05-05T08:30:43.59Z</time></trkpt><trkpt lat="44.7306663" lon="15.3835867"><ele>612.0</ele><time>2026-05-05T08:30:44.591Z</time></trkpt><trkpt lat="44.7309457" lon="15.3834434"><ele>612.0</ele><time>2026-05-05T08:30:45.591Z</time></trkpt><trkpt lat="44.7312242" lon="15.3832932"><ele>612.0</ele><time>2026-05-05T08:30:46.59Z</time></trkpt><trkpt lat="44.7315039" lon="15.3831402"><ele>612.0</ele><time>2026-05-05T08:30:47.591Z</time></trkpt><trkpt lat="44.7317842" lon="15.3829883"><ele>615.0</ele><time>2026-05-05T08:30:48.591Z</time></trkpt><trkpt lat="44.7320635" lon="15.3828273"><ele>618.0</ele><time>2026-05-05T08:30:49.591Z</time></trkpt><trkpt lat="44.7323419" lon="15.3826625"><ele>618.0</ele><time>2026-05-05T08:30:50.591Z</time></trkpt><trkpt lat="44.7326193" lon="15.382494"><ele>618.0</ele><time>2026-05-05T08:30:51.59Z</time></trkpt><trkpt lat="44.7328967" lon="15.3823217"><ele>615.5</ele><time>2026-05-05T08:30:52.591Z</time></trkpt><trkpt lat="44.7331728" lon="15.3821493"><ele>613.0</ele><time>2026-05-05T08:30:53.591Z</time></trkpt><trkpt lat="44.7334473" lon="15.3819709"><ele>611.0</ele><time>2026-05-05T08:30:54.59Z</time></trkpt><trkpt lat="44.7337206" lon="15.3817928"><ele>609.0</ele><time>2026-05-05T08:30:55.591Z</time></trkpt><trkpt lat="44.7339919" lon="15.3816148"><ele>609.0</ele><time>2026-05-05T08:30:56.59Z</time></trkpt><trkpt lat="44.7342606" lon="15.3814391"><ele>609.0</ele><time>2026-05-05T08:30:57.591Z</time></trkpt><trkpt lat="44.7345276" lon="15.3812615"><ele>608.0</ele><time>2026-05-05T08:30:58.59Z</time></trkpt><trkpt lat="44.7347934" lon="15.3810802"><ele>607.0</ele><time>2026-05-05T08:30:59.59Z</time></trkpt><trkpt lat="44.7350625" lon="15.3809042"><ele>610.0</ele><time>2026-05-05T08:31:00.591Z</time></trkpt><trkpt lat="44.7353316" lon="15.3807265"><ele>613.0</ele><time>2026-05-05T08:31:01.591Z</time></trkpt><trkpt lat="44.7356028" lon="15.3805537"><ele>611.0</ele><time>2026-05-05T08:31:02.59Z</time></trkpt><trkpt lat="44.7358732" lon="15.3803829"><ele>609.0</ele><time>2026-05-05T08:31:03.59Z</time></trkpt><trkpt lat="44.7361496" lon="15.3802194"><ele>614.0</ele><time>2026-05-05T08:31:04.59Z</time></trkpt><trkpt lat="44.7364283" lon="15.3800626"><ele>619.0</ele><time>2026-05-05T08:31:05.591Z</time></trkpt><trkpt lat="44.7367097" lon="15.3799147"><ele>620.5</ele><time>2026-05-05T08:31:06.591Z</time></trkpt><trkpt lat="44.7369921" lon="15.3797733"><ele>622.0</ele><time>2026-05-05T08:31:07.591Z</time></trkpt><trkpt lat="44.7372772" lon="15.3796398"><ele>622.0</ele><time>2026-05-05T08:31:08.59Z</time></trkpt><trkpt lat="44.7375647" lon="15.3795094"><ele>622.0</ele><time>2026-05-05T08:31:09.591Z</time></trkpt><trkpt lat="44.7378533" lon="15.3793878"><ele>626.5</ele><time>2026-05-05T08:31:10.591Z</time></trkpt><trkpt lat="44.7381428" lon="15.3792704"><ele>631.0</ele><time>2026-05-05T08:31:11.591Z</time></trkpt><trkpt lat="44.7384334" lon="15.3791628"><ele>632.5</ele><time>2026-05-05T08:31:12.591Z</time></trkpt><trkpt lat="44.7387247" lon="15.3790605"><ele>634.0</ele><time>2026-05-05T08:31:13.591Z</time></trkpt><trkpt lat="44.7390186" lon="15.3789665"><ele>634.0</ele><time>2026-05-05T08:31:14.59Z</time></trkpt><trkpt lat="44.7393137" lon="15.3788831"><ele>634.0</ele><time>2026-05-05T08:31:15.591Z</time></trkpt><trkpt lat="44.7396089" lon="15.3788079"><ele>629.0</ele><time>2026-05-05T08:31:16.59Z</time></trkpt><trkpt lat="44.7399049" lon="15.3787396"><ele>624.0</ele><time>2026-05-05T08:31:17.591Z</time></trkpt><trkpt lat="44.7402012" lon="15.3786786"><ele>627.5</ele><time>2026-05-05T08:31:18.591Z</time></trkpt><trkpt lat="44.7404993" lon="15.3786218"><ele>631.0</ele><time>2026-05-05T08:31:19.591Z</time></trkpt><trkpt lat="44.7407984" lon="15.3785689"><ele>632.0</ele><time>2026-05-05T08:31:20.59Z</time></trkpt><trkpt lat="44.7410984" lon="15.3785201"><ele>633.0</ele><time>2026-05-05T08:31:21.591Z</time></trkpt><trkpt lat="44.7413996" lon="15.3784749"><ele>633.0</ele><time>2026-05-05T08:31:22.59Z</time></trkpt><trkpt lat="44.7416993" lon="15.3784325"><ele>633.0</ele><time>2026-05-05T08:31:23.591Z</time></trkpt><trkpt lat="44.7419992" lon="15.3783903"><ele>630.0</ele><time>2026-05-05T08:31:24.59Z</time></trkpt><trkpt lat="44.7422981" lon="15.3783469"><ele>627.0</ele><time>2026-05-05T08:31:25.59Z</time></trkpt><trkpt lat="44.7425954" lon="15.378303"><ele>630.0</ele><time>2026-05-05T08:31:26.591Z</time></trkpt><trkpt lat="44.7428927" lon="15.3782568"><ele>633.0</ele><time>2026-05-05T08:31:27.591Z</time></trkpt><trkpt lat="44.7431874" lon="15.3782084"><ele>633.0</ele><time>2026-05-05T08:31:28.591Z</time></trkpt><trkpt lat="44.7434825" lon="15.3781602"><ele>633.0</ele><time>2026-05-05T08:31:29.59Z</time></trkpt><trkpt lat="44.7437771" lon="15.378106"><ele>636.0</ele><time>2026-05-05T08:31:30.59Z</time></trkpt><trkpt lat="44.7440677" lon="15.3780411"><ele>639.0</ele><time>2026-05-05T08:31:31.591Z</time></trkpt><trkpt lat="44.7443583" lon="15.3779725"><ele>644.5</ele><time>2026-05-05T08:31:32.59Z</time></trkpt><trkpt lat="44.7446498" lon="15.3778943"><ele>650.0</ele><time>2026-05-05T08:31:33.59Z</time></trkpt><trkpt lat="44.74494" lon="15.3778107"><ele>651.5</ele><time>2026-05-05T08:31:34.591Z</time></trkpt><trkpt lat="44.7452287" lon="15.3777245"><ele>653.0</ele><time>2026-05-05T08:31:35.591Z</time></trkpt><trkpt lat="44.7455171" lon="15.377631"><ele>653.0</ele><time>2026-05-05T08:31:36.591Z</time></trkpt><trkpt lat="44.7458053" lon="15.3775334"><ele>653.0</ele><time>2026-05-05T08:31:37.59Z</time></trkpt><trkpt lat="44.7460952" lon="15.3774219"><ele>656.0</ele><time>2026-05-05T08:31:38.59Z</time></trkpt><trkpt lat="44.7463901" lon="15.3772971"><ele>659.0</ele><time>2026-05-05T08:31:39.59Z</time></trkpt><trkpt lat="44.7466836" lon="15.3771635"><ele>650.0</ele><time>2026-05-05T08:31:40.591Z</time></trkpt><trkpt lat="44.7469767" lon="15.377026"><ele>641.0</ele><time>2026-05-05T08:31:41.59Z</time></trkpt><trkpt lat="44.7472724" lon="15.3768879"><ele>641.0</ele><time>2026-05-05T08:31:42.591Z</time></trkpt><trkpt lat="44.7475666" lon="15.3767457"><ele>641.0</ele><time>2026-05-05T08:31:43.591Z</time></trkpt><trkpt lat="44.7478604" lon="15.3765953"><ele>637.5</ele><time>2026-05-05T08:31:44.591Z</time></trkpt><trkpt lat="44.7481546" lon="15.3764424"><ele>634.0</ele><time>2026-05-05T08:31:45.591Z</time></trkpt><trkpt lat="44.7484443" lon="15.3762822"><ele>633.0</ele><time>2026-05-05T08:31:46.59Z</time></trkpt><trkpt lat="44.7487302" lon="15.3761182"><ele>632.0</ele><time>2026-05-05T08:31:47.59Z</time></trkpt><trkpt lat="44.7490156" lon="15.375948"><ele>632.0</ele><time>2026-05-05T08:31:48.59Z</time></trkpt><trkpt lat="44.7493002" lon="15.3757767"><ele>632.0</ele><time>2026-05-05T08:31:49.591Z</time></trkpt><trkpt lat="44.7495815" lon="15.3756009"><ele>632.5</ele><time>2026-05-05T08:31:50.59Z</time></trkpt><trkpt lat="44.7498633" lon="15.3754214"><ele>633.0</ele><time>2026-05-05T08:31:51.591Z</time></trkpt><trkpt lat="44.7501404" lon="15.3752355"><ele>632.5</ele><time>2026-05-05T08:31:52.591Z</time></trkpt><trkpt lat="44.7504116" lon="15.3750439"><ele>632.0</ele><time>2026-05-05T08:31:53.591Z</time></trkpt><trkpt lat="44.7506779" lon="15.3748486"><ele>630.0</ele><time>2026-05-05T08:31:54.591Z</time></trkpt><trkpt lat="44.7509378" lon="15.3746439"><ele>628.0</ele><time>2026-05-05T08:31:55.59Z</time></trkpt><trkpt lat="44.7511942" lon="15.37443"><ele>627.0</ele><time>2026-05-05T08:31:56.591Z</time></trkpt><trkpt lat="44.7514476" lon="15.3742114"><ele>626.0</ele><time>2026-05-05T08:31:57.591Z</time></trkpt><trkpt lat="44.7516987" lon="15.3739898"><ele>627.5</ele><time>2026-05-05T08:31:58.59Z</time></trkpt><trkpt lat="44.7519452" lon="15.3737635"><ele>629.0</ele><time>2026-05-05T08:31:59.591Z</time></trkpt><trkpt lat="44.7521918" lon="15.3735315"><ele>629.0</ele><time>2026-05-05T08:32:00.591Z</time></trkpt><trkpt lat="44.7524321" lon="15.3732926"><ele>629.0</ele><time>2026-05-05T08:32:01.59Z</time></trkpt><trkpt lat="44.7526733" lon="15.3730459"><ele>628.5</ele><time>2026-05-05T08:32:02.591Z</time></trkpt><trkpt lat="44.7529076" lon="15.3728024"><ele>628.0</ele><time>2026-05-05T08:32:03.591Z</time></trkpt><trkpt lat="44.7531442" lon="15.3725491"><ele>628.0</ele><time>2026-05-05T08:32:04.59Z</time></trkpt><trkpt lat="44.7533779" lon="15.3722922"><ele>628.0</ele><time>2026-05-05T08:32:05.59Z</time></trkpt><trkpt lat="44.7536079" lon="15.3720379"><ele>629.0</ele><time>2026-05-05T08:32:06.59Z</time></trkpt><trkpt lat="44.7538357" lon="15.3717732"><ele>630.0</ele><time>2026-05-05T08:32:07.591Z</time></trkpt><trkpt lat="44.75406" lon="15.3714989"><ele>632.0</ele><time>2026-05-05T08:32:08.59Z</time></trkpt><trkpt lat="44.7542824" lon="15.371221"><ele>634.0</ele><time>2026-05-05T08:32:09.591Z</time></trkpt><trkpt lat="44.7545011" lon="15.3709377"><ele>630.5</ele><time>2026-05-05T08:32:10.59Z</time></trkpt><trkpt lat="44.7547178" lon="15.3706539"><ele>627.0</ele><time>2026-05-05T08:32:11.59Z</time></trkpt><trkpt lat="44.7549332" lon="15.3703668"><ele>627.0</ele><time>2026-05-05T08:32:12.59Z</time></trkpt><trkpt lat="44.7551426" lon="15.3700714"><ele>627.0</ele><time>2026-05-05T08:32:13.59Z</time></trkpt><trkpt lat="44.7553474" lon="15.3697766"><ele>626.0</ele><time>2026-05-05T08:32:14.591Z</time></trkpt><trkpt lat="44.7555524" lon="15.3694735"><ele>625.0</ele><time>2026-05-05T08:32:15.59Z</time></trkpt><trkpt lat="44.7557533" lon="15.369167"><ele>623.5</ele><time>2026-05-05T08:32:16.591Z</time></trkpt><trkpt lat="44.7559492" lon="15.368856"><ele>622.0</ele><time>2026-05-05T08:32:17.59Z</time></trkpt><trkpt lat="44.7561403" lon="15.3685387"><ele>622.0</ele><time>2026-05-05T08:32:18.59Z</time></trkpt><trkpt lat="44.7563296" lon="15.3682188"><ele>622.0</ele><time>2026-05-05T08:32:19.59Z</time></trkpt><trkpt lat="44.7565167" lon="15.3678969"><ele>621.0</ele><time>2026-05-05T08:32:20.59Z</time></trkpt><trkpt lat="44.7566994" lon="15.3675702"><ele>620.0</ele><time>2026-05-05T08:32:21.591Z</time></trkpt><trkpt lat="44.7568781" lon="15.3672386"><ele>620.0</ele><time>2026-05-05T08:32:22.59Z</time></trkpt><trkpt lat="44.7570516" lon="15.3669108"><ele>620.0</ele><time>2026-05-05T08:32:23.591Z</time></trkpt><trkpt lat="44.7572223" lon="15.3665756"><ele>621.0</ele><time>2026-05-05T08:32:24.591Z</time></trkpt><trkpt lat="44.7573882" lon="15.3662346"><ele>622.0</ele><time>2026-05-05T08:32:25.59Z</time></trkpt><trkpt lat="44.7575497" lon="15.3658939"><ele>622.5</ele><time>2026-05-05T08:32:26.591Z</time></trkpt><trkpt lat="44.7577099" lon="15.3655515"><ele>623.0</ele><time>2026-05-05T08:32:27.59Z</time></trkpt><trkpt lat="44.7578676" lon="15.3652093"><ele>622.0</ele><time>2026-05-05T08:32:28.591Z</time></trkpt><trkpt lat="44.7580209" lon="15.364865"><ele>621.0</ele><time>2026-05-05T08:32:29.59Z</time></trkpt><trkpt lat="44.7581687" lon="15.3645177"><ele>621.0</ele><time>2026-05-05T08:32:30.59Z</time></trkpt><trkpt lat="44.7583161" lon="15.3641728"><ele>621.0</ele><time>2026-05-05T08:32:31.59Z</time></trkpt><trkpt lat="44.7584618" lon="15.3638303"><ele>621.0</ele><time>2026-05-05T08:32:32.591Z</time></trkpt><trkpt lat="44.7586077" lon="15.3634842"><ele>621.0</ele><time>2026-05-05T08:32:33.591Z</time></trkpt><trkpt lat="44.7587526" lon="15.3631373"><ele>619.5</ele><time>2026-05-05T08:32:34.591Z</time></trkpt><trkpt lat="44.7588981" lon="15.3627893"><ele>618.0</ele><time>2026-05-05T08:32:35.591Z</time></trkpt><trkpt lat="44.7590468" lon="15.3624425"><ele>616.5</ele><time>2026-05-05T08:32:36.591Z</time></trkpt><trkpt lat="44.7592007" lon="15.3620996"><ele>615.0</ele><time>2026-05-05T08:32:37.591Z</time></trkpt><trkpt lat="44.759359" lon="15.3617595"><ele>615.0</ele><time>2026-05-05T08:32:38.591Z</time></trkpt><trkpt lat="44.7595239" lon="15.3614276"><ele>615.0</ele><time>2026-05-05T08:32:39.591Z</time></trkpt><trkpt lat="44.7596965" lon="15.3610932"><ele>617.5</ele><time>2026-05-05T08:32:40.591Z</time></trkpt><trkpt lat="44.7598746" lon="15.360766"><ele>620.0</ele><time>2026-05-05T08:32:41.59Z</time></trkpt><trkpt lat="44.7600588" lon="15.3604488"><ele>621.0</ele><time>2026-05-05T08:32:42.59Z</time></trkpt><trkpt lat="44.76025" lon="15.360141"><ele>622.0</ele><time>2026-05-05T08:32:43.59Z</time></trkpt><trkpt lat="44.7604529" lon="15.3598404"><ele>620.0</ele><time>2026-05-05T08:32:44.59Z</time></trkpt><trkpt lat="44.760661" lon="15.359539"><ele>618.0</ele><time>2026-05-05T08:32:45.59Z</time></trkpt><trkpt lat="44.7608733" lon="15.3592437"><ele>616.0</ele><time>2026-05-05T08:32:46.59Z</time></trkpt><trkpt lat="44.761092" lon="15.3589576"><ele>614.0</ele><time>2026-05-05T08:32:47.59Z</time></trkpt><trkpt lat="44.7613169" lon="15.358682"><ele>613.0</ele><time>2026-05-05T08:32:48.591Z</time></trkpt><trkpt lat="44.7615466" lon="15.3584175"><ele>612.0</ele><time>2026-05-05T08:32:49.591Z</time></trkpt><trkpt lat="44.7617816" lon="15.358164"><ele>613.0</ele><time>2026-05-05T08:32:50.59Z</time></trkpt><trkpt lat="44.7620206" lon="15.3579199"><ele>614.0</ele><time>2026-05-05T08:32:51.59Z</time></trkpt><trkpt lat="44.7622624" lon="15.357683"><ele>614.0</ele><time>2026-05-05T08:32:52.591Z</time></trkpt><trkpt lat="44.7625165" lon="15.3574597"><ele>614.0</ele><time>2026-05-05T08:32:53.59Z</time></trkpt><trkpt lat="44.7627667" lon="15.3572388"><ele>615.0</ele><time>2026-05-05T08:32:54.59Z</time></trkpt><trkpt lat="44.7630194" lon="15.3570286"><ele>616.0</ele><time>2026-05-05T08:32:55.59Z</time></trkpt><trkpt lat="44.7632766" lon="15.3568259"><ele>618.5</ele><time>2026-05-05T08:32:56.591Z</time></trkpt><trkpt lat="44.7635372" lon="15.3566303"><ele>621.0</ele><time>2026-05-05T08:32:57.591Z</time></trkpt><trkpt lat="44.7637993" lon="15.3564335"><ele>620.0</ele><time>2026-05-05T08:32:58.59Z</time></trkpt><trkpt lat="44.7640594" lon="15.3562307"><ele>619.0</ele><time>2026-05-05T08:32:59.59Z</time></trkpt><trkpt lat="44.7643234" lon="15.3560242"><ele>618.0</ele><time>2026-05-05T08:33:00.591Z</time></trkpt><trkpt lat="44.7645874" lon="15.3558145"><ele>617.0</ele><time>2026-05-05T08:33:01.591Z</time></trkpt><trkpt lat="44.7648477" lon="15.3556074"><ele>616.0</ele><time>2026-05-05T08:33:02.591Z</time></trkpt><trkpt lat="44.7651076" lon="15.3554003"><ele>615.0</ele><time>2026-05-05T08:33:03.59Z</time></trkpt><trkpt lat="44.7653639" lon="15.3551953"><ele>615.0</ele><time>2026-05-05T08:33:04.591Z</time></trkpt><trkpt lat="44.765616" lon="15.3549817"><ele>615.0</ele><time>2026-05-05T08:33:05.591Z</time></trkpt><trkpt lat="44.7658661" lon="15.3547623"><ele>611.5</ele><time>2026-05-05T08:33:06.59Z</time></trkpt><trkpt lat="44.7661106" lon="15.3545376"><ele>608.0</ele><time>2026-05-05T08:33:07.59Z</time></trkpt><trkpt lat="44.7663512" lon="15.3543028"><ele>608.0</ele><time>2026-05-05T08:33:08.59Z</time></trkpt><trkpt lat="44.7665897" lon="15.3540625"><ele>608.0</ele><time>2026-05-05T08:33:09.591Z</time></trkpt><trkpt lat="44.7668264" lon="15.3538167"><ele>610.5</ele><time>2026-05-05T08:33:10.59Z</time></trkpt><trkpt lat="44.7670569" lon="15.3535686"><ele>613.0</ele><time>2026-05-05T08:33:11.591Z</time></trkpt><trkpt lat="44.7672859" lon="15.353315"><ele>613.0</ele><time>2026-05-05T08:33:12.591Z</time></trkpt><trkpt lat="44.7675107" lon="15.3530559"><ele>613.0</ele><time>2026-05-05T08:33:13.591Z</time></trkpt><trkpt lat="44.7677316" lon="15.3527863"><ele>616.5</ele><time>2026-05-05T08:33:14.59Z</time></trkpt><trkpt lat="44.7679459" lon="15.3525149"><ele>620.0</ele><time>2026-05-05T08:33:15.591Z</time></trkpt><trkpt lat="44.7681531" lon="15.3522342"><ele>622.5</ele><time>2026-05-05T08:33:16.59Z</time></trkpt><trkpt lat="44.7683558" lon="15.3519487"><ele>625.0</ele><time>2026-05-05T08:33:17.591Z</time></trkpt><trkpt lat="44.7685554" lon="15.351658"><ele>622.5</ele><time>2026-05-05T08:33:18.591Z</time></trkpt><trkpt lat="44.7687547" lon="15.3513691"><ele>620.0</ele><time>2026-05-05T08:33:19.59Z</time></trkpt><trkpt lat="44.7689541" lon="15.3510784"><ele>620.0</ele><time>2026-05-05T08:33:20.591Z</time></trkpt><trkpt lat="44.7691543" lon="15.3507884"><ele>620.0</ele><time>2026-05-05T08:33:21.59Z</time></trkpt><trkpt lat="44.7693544" lon="15.3504957"><ele>620.0</ele><time>2026-05-05T08:33:22.591Z</time></trkpt><trkpt lat="44.769553" lon="15.3502042"><ele>620.0</ele><time>2026-05-05T08:33:23.591Z</time></trkpt><trkpt lat="44.7697509" lon="15.3499108"><ele>624.5</ele><time>2026-05-05T08:33:24.59Z</time></trkpt><trkpt lat="44.7699512" lon="15.3496195"><ele>629.0</ele><time>2026-05-05T08:33:25.59Z</time></trkpt><trkpt lat="44.7701536" lon="15.3493306"><ele>629.5</ele><time>2026-05-05T08:33:26.591Z</time></trkpt><trkpt lat="44.7703601" lon="15.3490444"><ele>630.0</ele><time>2026-05-05T08:33:27.591Z</time></trkpt><trkpt lat="44.7705677" lon="15.3487671"><ele>630.5</ele><time>2026-05-05T08:33:28.59Z</time></trkpt><trkpt lat="44.7707755" lon="15.3484943"><ele>631.0</ele><time>2026-05-05T08:33:29.591Z</time></trkpt><trkpt lat="44.7709889" lon="15.3482253"><ele>635.0</ele><time>2026-05-05T08:33:30.59Z</time></trkpt><trkpt lat="44.7712075" lon="15.3479664"><ele>639.0</ele><time>2026-05-05T08:33:31.59Z</time></trkpt><trkpt lat="44.7714271" lon="15.3477145"><ele>639.0</ele><time>2026-05-05T08:33:32.591Z</time></trkpt><trkpt lat="44.7716529" lon="15.3474693"><ele>639.0</ele><time>2026-05-05T08:33:33.59Z</time></trkpt><trkpt lat="44.7718838" lon="15.3472241"><ele>640.5</ele><time>2026-05-05T08:33:34.591Z</time></trkpt><trkpt lat="44.7721164" lon="15.3469848"><ele>642.0</ele><time>2026-05-05T08:33:35.59Z</time></trkpt><trkpt lat="44.7723551" lon="15.3467519"><ele>642.0</ele><time>2026-05-05T08:33:36.591Z</time></trkpt><trkpt lat="44.7725932" lon="15.3465317"><ele>642.0</ele><time>2026-05-05T08:33:37.591Z</time></trkpt><trkpt lat="44.7728368" lon="15.3463207"><ele>642.5</ele><time>2026-05-05T08:33:38.59Z</time></trkpt><trkpt lat="44.7730869" lon="15.3461163"><ele>643.0</ele><time>2026-05-05T08:33:39.591Z</time></trkpt><trkpt lat="44.7733358" lon="15.3459209"><ele>640.0</ele><time>2026-05-05T08:33:40.591Z</time></trkpt><trkpt lat="44.7735916" lon="15.3457286"><ele>637.0</ele><time>2026-05-05T08:33:41.59Z</time></trkpt><trkpt lat="44.7738451" lon="15.3455513"><ele>646.5</ele><time>2026-05-05T08:33:42.59Z</time></trkpt><trkpt lat="44.7740991" lon="15.3453818"><ele>656.0</ele><time>2026-05-05T08:33:43.59Z</time></trkpt><trkpt lat="44.7743591" lon="15.3452242"><ele>662.5</ele><time>2026-05-05T08:33:44.591Z</time></trkpt><trkpt lat="44.7746194" lon="15.345072"><ele>669.0</ele><time>2026-05-05T08:33:45.59Z</time></trkpt><trkpt lat="44.7748805" lon="15.344924"><ele>669.0</ele><time>2026-05-05T08:33:46.591Z</time></trkpt><trkpt lat="44.7751432" lon="15.3447844"><ele>669.0</ele><time>2026-05-05T08:33:47.591Z</time></trkpt><trkpt lat="44.7853275" lon="15.3387837"><ele>643.0</ele><time>2026-05-05T08:34:27.59Z</time></trkpt><trkpt lat="44.7855111" lon="15.3384821"><ele>617.0</ele><time>2026-05-05T08:34:28.591Z</time></trkpt><trkpt lat="44.7856956" lon="15.3381494"><ele>620.0</ele><time>2026-05-05T08:34:29.59Z</time></trkpt><trkpt lat="44.7858768" lon="15.3378221"><ele>623.0</ele><time>2026-05-05T08:34:30.59Z</time></trkpt><trkpt lat="44.7860457" lon="15.3374754"><ele>613.5</ele><time>2026-05-05T08:34:31.591Z</time></trkpt><trkpt lat="44.7862145" lon="15.3371327"><ele>604.0</ele><time>2026-05-05T08:34:32.591Z</time></trkpt><trkpt lat="44.78637" lon="15.3367829"><ele>604.0</ele><time>2026-05-05T08:34:33.591Z</time></trkpt><trkpt lat="44.7865217" lon="15.3364278"><ele>604.0</ele><time>2026-05-05T08:34:34.59Z</time></trkpt><trkpt lat="44.7866651" lon="15.3360661"><ele>607.0</ele><time>2026-05-05T08:34:35.591Z</time></trkpt><trkpt lat="44.7868051" lon="15.3357034"><ele>610.0</ele><time>2026-05-05T08:34:36.591Z</time></trkpt><trkpt lat="44.7869406" lon="15.3353388"><ele>600.0</ele><time>2026-05-05T08:34:37.591Z</time></trkpt><trkpt lat="44.7870741" lon="15.3349743"><ele>590.0</ele><time>2026-05-05T08:34:38.591Z</time></trkpt><trkpt lat="44.7872041" lon="15.3346081"><ele>590.0</ele><time>2026-05-05T08:34:39.59Z</time></trkpt><trkpt lat="44.7873287" lon="15.3342401"><ele>590.0</ele><time>2026-05-05T08:34:40.59Z</time></trkpt><trkpt lat="44.7874495" lon="15.3338655"><ele>595.5</ele><time>2026-05-05T08:34:41.591Z</time></trkpt><trkpt lat="44.7875627" lon="15.3334891"><ele>601.0</ele><time>2026-05-05T08:34:42.59Z</time></trkpt><trkpt lat="44.7876719" lon="15.3331082"><ele>590.5</ele><time>2026-05-05T08:34:43.591Z</time></trkpt><trkpt lat="44.7877759" lon="15.3327249"><ele>580.0</ele><time>2026-05-05T08:34:44.59Z</time></trkpt><trkpt lat="44.787878" lon="15.332341"><ele>583.5</ele><time>2026-05-05T08:34:45.59Z</time></trkpt><trkpt lat="44.7879755" lon="15.3319558"><ele>587.0</ele><time>2026-05-05T08:34:46.59Z</time></trkpt><trkpt lat="44.7880728" lon="15.3315693"><ele>590.5</ele><time>2026-05-05T08:34:47.59Z</time></trkpt><trkpt lat="44.788169" lon="15.3311835"><ele>594.0</ele><time>2026-05-05T08:34:48.59Z</time></trkpt><trkpt lat="44.7882662" lon="15.3307968"><ele>597.5</ele><time>2026-05-05T08:34:49.59Z</time></trkpt><trkpt lat="44.788367" lon="15.3304114"><ele>601.0</ele><time>2026-05-05T08:34:50.591Z</time></trkpt><trkpt lat="44.788471" lon="15.3300236"><ele>588.0</ele><time>2026-05-05T08:34:51.591Z</time></trkpt><trkpt lat="44.7885767" lon="15.3296415"><ele>575.0</ele><time>2026-05-05T08:34:52.591Z</time></trkpt><trkpt lat="44.7886961" lon="15.3292663"><ele>575.0</ele><time>2026-05-05T08:34:53.591Z</time></trkpt><trkpt lat="44.7888261" lon="15.3288922"><ele>575.0</ele><time>2026-05-05T08:34:54.591Z</time></trkpt><trkpt lat="44.7889635" lon="15.3285236"><ele>575.0</ele><time>2026-05-05T08:34:55.591Z</time></trkpt><trkpt lat="44.789115" lon="15.3281635"><ele>575.0</ele><time>2026-05-05T08:34:56.59Z</time></trkpt><trkpt lat="44.7892751" lon="15.3278069"><ele>566.5</ele><time>2026-05-05T08:34:57.59Z</time></trkpt><trkpt lat="44.789443" lon="15.3274587"><ele>558.0</ele><time>2026-05-05T08:34:58.591Z</time></trkpt><trkpt lat="44.7896204" lon="15.3271201"><ele>558.0</ele><time>2026-05-05T08:34:59.59Z</time></trkpt><trkpt lat="44.7898108" lon="15.326789"><ele>558.0</ele><time>2026-05-05T08:35:00.591Z</time></trkpt><trkpt lat="44.7900059" lon="15.3264688"><ele>553.0</ele><time>2026-05-05T08:35:01.591Z</time></trkpt><trkpt lat="44.7902123" lon="15.3261623"><ele>548.0</ele><time>2026-05-05T08:35:02.59Z</time></trkpt><trkpt lat="44.7904252" lon="15.3258668"><ele>548.0</ele><time>2026-05-05T08:35:03.591Z</time></trkpt><trkpt lat="44.7906453" lon="15.3255798"><ele>548.0</ele><time>2026-05-05T08:35:04.591Z</time></trkpt><trkpt lat="44.7908749" lon="15.3253045"><ele>550.5</ele><time>2026-05-05T08:35:05.591Z</time></trkpt><trkpt lat="44.7911089" lon="15.3250423"><ele>553.0</ele><time>2026-05-05T08:35:06.591Z</time></trkpt><trkpt lat="44.7913521" lon="15.3247919"><ele>554.0</ele><time>2026-05-05T08:35:07.59Z</time></trkpt><trkpt lat="44.7916013" lon="15.3245494"><ele>555.0</ele><time>2026-05-05T08:35:08.59Z</time></trkpt><trkpt lat="44.7918611" lon="15.3243206"><ele>555.0</ele><time>2026-05-05T08:35:09.591Z</time></trkpt><trkpt lat="44.7921233" lon="15.3240972"><ele>555.0</ele><time>2026-05-05T08:35:10.591Z</time></trkpt><trkpt lat="44.7923834" lon="15.323873"><ele>554.5</ele><time>2026-05-05T08:35:11.59Z</time></trkpt><trkpt lat="44.7926466" lon="15.3236497"><ele>554.0</ele><time>2026-05-05T08:35:12.591Z</time></trkpt><trkpt lat="44.7929079" lon="15.3234225"><ele>554.0</ele><time>2026-05-05T08:35:13.59Z</time></trkpt><trkpt lat="44.7931655" lon="15.3231937"><ele>554.0</ele><time>2026-05-05T08:35:14.591Z</time></trkpt><trkpt lat="44.7934189" lon="15.3229566"><ele>550.0</ele><time>2026-05-05T08:35:15.59Z</time></trkpt><trkpt lat="44.7936683" lon="15.3227118"><ele>546.0</ele><time>2026-05-05T08:35:16.591Z</time></trkpt><trkpt lat="44.7939118" lon="15.3224602"><ele>544.5</ele><time>2026-05-05T08:35:17.59Z</time></trkpt><trkpt lat="44.7941569" lon="15.3221961"><ele>543.0</ele><time>2026-05-05T08:35:18.59Z</time></trkpt><trkpt lat="44.7943927" lon="15.3219255"><ele>543.0</ele><time>2026-05-05T08:35:19.591Z</time></trkpt><trkpt lat="44.7946225" lon="15.3216486"><ele>543.0</ele><time>2026-05-05T08:35:20.59Z</time></trkpt><trkpt lat="44.7948467" lon="15.3213601"><ele>547.5</ele><time>2026-05-05T08:35:21.591Z</time></trkpt><trkpt lat="44.7950675" lon="15.3210614"><ele>552.0</ele><time>2026-05-05T08:35:22.591Z</time></trkpt><trkpt lat="44.7952813" lon="15.3207513"><ele>548.0</ele><time>2026-05-05T08:35:23.591Z</time></trkpt><trkpt lat="44.7954903" lon="15.3204357"><ele>544.0</ele><time>2026-05-05T08:35:24.59Z</time></trkpt><trkpt lat="44.7956899" lon="15.3201098"><ele>544.0</ele><time>2026-05-05T08:35:25.59Z</time></trkpt><trkpt lat="44.7958806" lon="15.3197778"><ele>544.0</ele><time>2026-05-05T08:35:26.591Z</time></trkpt><trkpt lat="44.7960661" lon="15.3194395"><ele>543.5</ele><time>2026-05-05T08:35:27.59Z</time></trkpt><trkpt lat="44.7962474" lon="15.3190968"><ele>543.0</ele><time>2026-05-05T08:35:28.591Z</time></trkpt><trkpt lat="44.7964211" lon="15.3187452"><ele>543.0</ele><time>2026-05-05T08:35:29.59Z</time></trkpt><trkpt lat="44.7965884" lon="15.3183852"><ele>543.0</ele><time>2026-05-05T08:35:30.59Z</time></trkpt><trkpt lat="44.796753" lon="15.3180119"><ele>538.5</ele><time>2026-05-05T08:35:31.59Z</time></trkpt><trkpt lat="44.7969042" lon="15.317633"><ele>534.0</ele><time>2026-05-05T08:35:32.59Z</time></trkpt><trkpt lat="44.7970463" lon="15.3172458"><ele>536.0</ele><time>2026-05-05T08:35:33.59Z</time></trkpt><trkpt lat="44.7971794" lon="15.3168472"><ele>538.0</ele><time>2026-05-05T08:35:34.591Z</time></trkpt><trkpt lat="44.7973047" lon="15.3164379"><ele>541.5</ele><time>2026-05-05T08:35:35.591Z</time></trkpt><trkpt lat="44.797423" lon="15.3160191"><ele>545.0</ele><time>2026-05-05T08:35:36.59Z</time></trkpt><trkpt lat="44.7975366" lon="15.3155953"><ele>548.0</ele><time>2026-05-05T08:35:37.591Z</time></trkpt><trkpt lat="44.797646" lon="15.3151686"><ele>551.0</ele><time>2026-05-05T08:35:38.59Z</time></trkpt><trkpt lat="44.7977516" lon="15.3147425"><ele>547.0</ele><time>2026-05-05T08:35:39.59Z</time></trkpt><trkpt lat="44.7978574" lon="15.3143185"><ele>543.0</ele><time>2026-05-05T08:35:40.591Z</time></trkpt><trkpt lat="44.7979619" lon="15.3138939"><ele>543.0</ele><time>2026-05-05T08:35:41.591Z</time></trkpt><trkpt lat="44.798069" lon="15.3134731"><ele>543.0</ele><time>2026-05-05T08:35:42.59Z</time></trkpt><trkpt lat="44.7981797" lon="15.3130555"><ele>545.5</ele><time>2026-05-05T08:35:43.591Z</time></trkpt><trkpt lat="44.7983012" lon="15.3126431"><ele>548.0</ele><time>2026-05-05T08:35:44.59Z</time></trkpt><trkpt lat="44.7984333" lon="15.3122368"><ele>544.0</ele><time>2026-05-05T08:35:45.591Z</time></trkpt><trkpt lat="44.7985767" lon="15.3118312"><ele>540.0</ele><time>2026-05-05T08:35:46.59Z</time></trkpt><trkpt lat="44.7987343" lon="15.3114261"><ele>545.0</ele><time>2026-05-05T08:35:47.591Z</time></trkpt><trkpt lat="44.7989059" lon="15.3110278"><ele>550.0</ele><time>2026-05-05T08:35:48.591Z</time></trkpt><trkpt lat="44.7990888" lon="15.3106326"><ele>556.5</ele><time>2026-05-05T08:35:49.591Z</time></trkpt><trkpt lat="44.7992813" lon="15.310247"><ele>563.0</ele><time>2026-05-05T08:35:50.59Z</time></trkpt><trkpt lat="44.7994824" lon="15.3098729"><ele>548.0</ele><time>2026-05-05T08:35:51.59Z</time></trkpt><trkpt lat="44.799694" lon="15.3095119"><ele>533.0</ele><time>2026-05-05T08:35:52.591Z</time></trkpt><trkpt lat="44.7999131" lon="15.3091658"><ele>535.5</ele><time>2026-05-05T08:35:53.591Z</time></trkpt><trkpt lat="44.8001431" lon="15.3088416"><ele>538.0</ele><time>2026-05-05T08:35:54.59Z</time></trkpt><trkpt lat="44.8003764" lon="15.3085371"><ele>533.5</ele><time>2026-05-05T08:35:55.59Z</time></trkpt><trkpt lat="44.8006141" lon="15.3082459"><ele>529.0</ele><time>2026-05-05T08:35:56.591Z</time></trkpt><trkpt lat="44.8008521" lon="15.3079693"><ele>522.0</ele><time>2026-05-05T08:35:57.59Z</time></trkpt><trkpt lat="44.8010917" lon="15.3077054"><ele>515.0</ele><time>2026-05-05T08:35:58.591Z</time></trkpt><trkpt lat="44.8013335" lon="15.3074536"><ele>525.0</ele><time>2026-05-05T08:35:59.59Z</time></trkpt><trkpt lat="44.8015763" lon="15.307217"><ele>535.0</ele><time>2026-05-05T08:36:00.591Z</time></trkpt><trkpt lat="44.8018209" lon="15.306996"><ele>530.5</ele><time>2026-05-05T08:36:01.59Z</time></trkpt><trkpt lat="44.802075" lon="15.3067848"><ele>526.0</ele><time>2026-05-05T08:36:02.591Z</time></trkpt><trkpt lat="44.8023303" lon="15.3065793"><ele>526.5</ele><time>2026-05-05T08:36:03.591Z</time></trkpt><trkpt lat="44.8025851" lon="15.3063783"><ele>527.0</ele><time>2026-05-05T08:36:04.59Z</time></trkpt><trkpt lat="44.8028379" lon="15.3061841"><ele>527.0</ele><time>2026-05-05T08:36:05.59Z</time></trkpt><trkpt lat="44.8030922" lon="15.305989"><ele>527.0</ele><time>2026-05-05T08:36:06.59Z</time></trkpt><trkpt lat="44.8033487" lon="15.3057984"><ele>529.0</ele><time>2026-05-05T08:36:07.591Z</time></trkpt><trkpt lat="44.8036052" lon="15.3056057"><ele>531.0</ele><time>2026-05-05T08:36:08.591Z</time></trkpt><trkpt lat="44.8038579" lon="15.3054104"><ele>531.0</ele><time>2026-05-05T08:36:09.59Z</time></trkpt><trkpt lat="44.8041096" lon="15.305221"><ele>531.0</ele><time>2026-05-05T08:36:10.591Z</time></trkpt><trkpt lat="44.8043636" lon="15.3050262"><ele>534.5</ele><time>2026-05-05T08:36:11.59Z</time></trkpt><trkpt lat="44.8046173" lon="15.30483"><ele>538.0</ele><time>2026-05-05T08:36:12.59Z</time></trkpt><trkpt lat="44.8048707" lon="15.3046304"><ele>538.0</ele><time>2026-05-05T08:36:13.591Z</time></trkpt><trkpt lat="44.8051217" lon="15.3044244"><ele>538.0</ele><time>2026-05-05T08:36:14.59Z</time></trkpt><trkpt lat="44.8053715" lon="15.3042156"><ele>533.5</ele><time>2026-05-05T08:36:15.591Z</time></trkpt><trkpt lat="44.8056175" lon="15.3039976"><ele>529.0</ele><time>2026-05-05T08:36:16.59Z</time></trkpt><trkpt lat="44.8058601" lon="15.3037782"><ele>535.0</ele><time>2026-05-05T08:36:17.59Z</time></trkpt><trkpt lat="44.806099" lon="15.3035514"><ele>541.0</ele><time>2026-05-05T08:36:18.591Z</time></trkpt><trkpt lat="44.8063365" lon="15.3033274"><ele>541.0</ele><time>2026-05-05T08:36:19.591Z</time></trkpt><trkpt lat="44.8065751" lon="15.3031"><ele>541.0</ele><time>2026-05-05T08:36:20.591Z</time></trkpt><trkpt lat="44.8068091" lon="15.3028663"><ele>534.0</ele><time>2026-05-05T08:36:21.59Z</time></trkpt><trkpt lat="44.8070424" lon="15.3026336"><ele>527.0</ele><time>2026-05-05T08:36:22.59Z</time></trkpt><trkpt lat="44.8072689" lon="15.3023994"><ele>526.5</ele><time>2026-05-05T08:36:23.59Z</time></trkpt><trkpt lat="44.8074938" lon="15.3021647"><ele>526.0</ele><time>2026-05-05T08:36:24.591Z</time></trkpt><trkpt lat="44.8077162" lon="15.3019234"><ele>526.0</ele><time>2026-05-05T08:36:25.59Z</time></trkpt><trkpt lat="44.8079309" lon="15.3016838"><ele>526.0</ele><time>2026-05-05T08:36:26.591Z</time></trkpt><trkpt lat="44.808144" lon="15.3014417"><ele>525.5</ele><time>2026-05-05T08:36:27.591Z</time></trkpt><trkpt lat="44.8083546" lon="15.3011998"><ele>525.0</ele><time>2026-05-05T08:36:28.591Z</time></trkpt><trkpt lat="44.8085619" lon="15.3009576"><ele>525.0</ele><time>2026-05-05T08:36:29.59Z</time></trkpt><trkpt lat="44.8087648" lon="15.3007188"><ele>525.0</ele><time>2026-05-05T08:36:30.59Z</time></trkpt><trkpt lat="44.8089668" lon="15.3004746"><ele>533.0</ele><time>2026-05-05T08:36:31.59Z</time></trkpt><trkpt lat="44.809164" lon="15.3002367"><ele>541.0</ele><time>2026-05-05T08:36:32.591Z</time></trkpt><trkpt lat="44.809358" lon="15.3000016"><ele>542.5</ele><time>2026-05-05T08:36:33.59Z</time></trkpt><trkpt lat="44.8095479" lon="15.2997629"><ele>544.0</ele><time>2026-05-05T08:36:34.59Z</time></trkpt><trkpt lat="44.8097318" lon="15.2995215"><ele>550.0</ele><time>2026-05-05T08:36:35.59Z</time></trkpt><trkpt lat="44.8099144" lon="15.2992782"><ele>556.0</ele><time>2026-05-05T08:36:36.59Z</time></trkpt><trkpt lat="44.8100958" lon="15.2990306"><ele>569.0</ele><time>2026-05-05T08:36:37.591Z</time></trkpt><trkpt lat="44.8102749" lon="15.2987806"><ele>582.0</ele><time>2026-05-05T08:36:38.591Z</time></trkpt><trkpt lat="44.8104505" lon="15.2985268"><ele>582.0</ele><time>2026-05-05T08:36:39.59Z</time></trkpt><trkpt lat="44.810625" lon="15.2982669"><ele>582.0</ele><time>2026-05-05T08:36:40.59Z</time></trkpt><trkpt lat="44.8107961" lon="15.2980058"><ele>592.5</ele><time>2026-05-05T08:36:41.59Z</time></trkpt><trkpt lat="44.8109645" lon="15.2977422"><ele>603.0</ele><time>2026-05-05T08:36:42.59Z</time></trkpt><trkpt lat="44.8193686" lon="15.2717709"><ele>555.5</ele><time>2026-05-05T08:37:58.591Z</time></trkpt><trkpt lat="44.8195021" lon="15.2714421"><ele>508.0</ele><time>2026-05-05T08:37:59.59Z</time></trkpt><trkpt lat="44.8196377" lon="15.2711062"><ele>507.5</ele><time>2026-05-05T08:38:00.59Z</time></trkpt><trkpt lat="44.8197797" lon="15.2707782"><ele>507.0</ele><time>2026-05-05T08:38:01.591Z</time></trkpt><trkpt lat="44.8199218" lon="15.2704491"><ele>511.0</ele><time>2026-05-05T08:38:02.59Z</time></trkpt><trkpt lat="44.8200585" lon="15.2701263"><ele>515.0</ele><time>2026-05-05T08:38:03.59Z</time></trkpt><trkpt lat="44.8201972" lon="15.2697977"><ele>523.5</ele><time>2026-05-05T08:38:04.591Z</time></trkpt><trkpt lat="44.8203389" lon="15.2694717"><ele>532.0</ele><time>2026-05-05T08:38:05.591Z</time></trkpt><trkpt lat="44.8204876" lon="15.2691472"><ele>541.5</ele><time>2026-05-05T08:38:06.591Z</time></trkpt><trkpt lat="44.8206302" lon="15.2688252"><ele>551.0</ele><time>2026-05-05T08:38:07.591Z</time></trkpt><trkpt lat="44.8207797" lon="15.2685012"><ele>551.0</ele><time>2026-05-05T08:38:08.591Z</time></trkpt><trkpt lat="44.8209321" lon="15.2681749"><ele>551.0</ele><time>2026-05-05T08:38:09.591Z</time></trkpt><trkpt lat="44.8210892" lon="15.2678405"><ele>549.5</ele><time>2026-05-05T08:38:10.591Z</time></trkpt><trkpt lat="44.8212562" lon="15.2675189"><ele>548.0</ele><time>2026-05-05T08:38:11.59Z</time></trkpt><trkpt lat="44.8214254" lon="15.2672017"><ele>548.0</ele><time>2026-05-05T08:38:12.59Z</time></trkpt><trkpt lat="44.8216046" lon="15.2668935"><ele>548.0</ele><time>2026-05-05T08:38:13.59Z</time></trkpt><trkpt lat="44.8217828" lon="15.2665859"><ele>542.0</ele><time>2026-05-05T08:38:14.591Z</time></trkpt><trkpt lat="44.821977" lon="15.2662847"><ele>536.0</ele><time>2026-05-05T08:38:15.59Z</time></trkpt><trkpt lat="44.8221825" lon="15.2659919"><ele>536.0</ele><time>2026-05-05T08:38:16.591Z</time></trkpt><trkpt lat="44.8223958" lon="15.2657075"><ele>536.0</ele><time>2026-05-05T08:38:17.591Z</time></trkpt><trkpt lat="44.8226181" lon="15.2654326"><ele>531.0</ele><time>2026-05-05T08:38:18.591Z</time></trkpt><trkpt lat="44.8228483" lon="15.2651712"><ele>526.0</ele><time>2026-05-05T08:38:19.59Z</time></trkpt><trkpt lat="44.8230833" lon="15.2649218"><ele>524.5</ele><time>2026-05-05T08:38:20.591Z</time></trkpt><trkpt lat="44.8233254" lon="15.2646853"><ele>523.0</ele><time>2026-05-05T08:38:21.59Z</time></trkpt><trkpt lat="44.8235707" lon="15.2644635"><ele>523.0</ele><time>2026-05-05T08:38:22.59Z</time></trkpt><trkpt lat="44.8238224" lon="15.2642545"><ele>523.0</ele><time>2026-05-05T08:38:23.591Z</time></trkpt><trkpt lat="44.8240815" lon="15.2640564"><ele>524.5</ele><time>2026-05-05T08:38:24.591Z</time></trkpt><trkpt lat="44.8243497" lon="15.263872"><ele>526.0</ele><time>2026-05-05T08:38:25.59Z</time></trkpt><trkpt lat="44.8246214" lon="15.2637022"><ele>526.0</ele><time>2026-05-05T08:38:26.591Z</time></trkpt><trkpt lat="44.8248967" lon="15.26354"><ele>526.0</ele><time>2026-05-05T08:38:27.591Z</time></trkpt><trkpt lat="44.8251772" lon="15.2633859"><ele>527.0</ele><time>2026-05-05T08:38:28.591Z</time></trkpt><trkpt lat="44.8254639" lon="15.2632329"><ele>528.0</ele><time>2026-05-05T08:38:29.591Z</time></trkpt><trkpt lat="44.825759" lon="15.2630794"><ele>536.0</ele><time>2026-05-05T08:38:30.591Z</time></trkpt><trkpt lat="44.8260599" lon="15.2629276"><ele>544.0</ele><time>2026-05-05T08:38:31.59Z</time></trkpt><trkpt lat="44.8263646" lon="15.2627725"><ele>544.0</ele><time>2026-05-05T08:38:32.591Z</time></trkpt><trkpt lat="44.8266698" lon="15.2626125"><ele>544.0</ele><time>2026-05-05T08:38:33.59Z</time></trkpt><trkpt lat="44.8269731" lon="15.2624488"><ele>547.5</ele><time>2026-05-05T08:38:34.59Z</time></trkpt><trkpt lat="44.827271" lon="15.2622795"><ele>551.0</ele><time>2026-05-05T08:38:35.59Z</time></trkpt><trkpt lat="44.827558" lon="15.2620959"><ele>540.5</ele><time>2026-05-05T08:38:36.591Z</time></trkpt><trkpt lat="44.8278581" lon="15.2618943"><ele>530.0</ele><time>2026-05-05T08:38:37.59Z</time></trkpt><trkpt lat="44.8281563" lon="15.2616763"><ele>529.5</ele><time>2026-05-05T08:38:38.591Z</time></trkpt><trkpt lat="44.8284487" lon="15.2614476"><ele>529.0</ele><time>2026-05-05T08:38:39.59Z</time></trkpt><trkpt lat="44.828735" lon="15.2612107"><ele>529.0</ele><time>2026-05-05T08:38:40.59Z</time></trkpt><trkpt lat="44.8290141" lon="15.2609605"><ele>529.0</ele><time>2026-05-05T08:38:41.591Z</time></trkpt><trkpt lat="44.8292846" lon="15.2607014"><ele>519.5</ele><time>2026-05-05T08:38:42.59Z</time></trkpt><trkpt lat="44.8295475" lon="15.2604317"><ele>510.0</ele><time>2026-05-05T08:38:43.591Z</time></trkpt><trkpt lat="44.8297984" lon="15.2601478"><ele>510.0</ele><time>2026-05-05T08:38:44.591Z</time></trkpt><trkpt lat="44.8300364" lon="15.259851"><ele>510.0</ele><time>2026-05-05T08:38:45.591Z</time></trkpt><trkpt lat="44.8302625" lon="15.2595471"><ele>508.5</ele><time>2026-05-05T08:38:46.59Z</time></trkpt><trkpt lat="44.8304789" lon="15.259236"><ele>507.0</ele><time>2026-05-05T08:38:47.591Z</time></trkpt><trkpt lat="44.8306845" lon="15.2589198"><ele>503.0</ele><time>2026-05-05T08:38:48.591Z</time></trkpt><trkpt lat="44.8308821" lon="15.2585999"><ele>499.0</ele><time>2026-05-05T08:38:49.59Z</time></trkpt><trkpt lat="44.8310717" lon="15.2582737"><ele>506.0</ele><time>2026-05-05T08:38:50.59Z</time></trkpt><trkpt lat="44.83125" lon="15.2579375"><ele>513.0</ele><time>2026-05-05T08:38:51.59Z</time></trkpt><trkpt lat="44.8314245" lon="15.257596"><ele>523.0</ele><time>2026-05-05T08:38:52.591Z</time></trkpt><trkpt lat="44.8315978" lon="15.2572515"><ele>533.0</ele><time>2026-05-05T08:38:53.591Z</time></trkpt><trkpt lat="44.8317716" lon="15.2569064"><ele>523.5</ele><time>2026-05-05T08:38:54.59Z</time></trkpt><trkpt lat="44.8319436" lon="15.2565601"><ele>514.0</ele><time>2026-05-05T08:38:55.59Z</time></trkpt><trkpt lat="44.8321191" lon="15.2562129"><ele>514.0</ele><time>2026-05-05T08:38:56.59Z</time></trkpt><trkpt lat="44.8322949" lon="15.2558678"><ele>514.0</ele><time>2026-05-05T08:38:57.591Z</time></trkpt><trkpt lat="44.8324731" lon="15.2555267"><ele>503.5</ele><time>2026-05-05T08:38:58.591Z</time></trkpt><trkpt lat="44.8326524" lon="15.2551858"><ele>493.0</ele><time>2026-05-05T08:38:59.591Z</time></trkpt><trkpt lat="44.8328294" lon="15.2548487"><ele>498.5</ele><time>2026-05-05T08:39:00.59Z</time></trkpt><trkpt lat="44.8330079" lon="15.2545149"><ele>504.0</ele><time>2026-05-05T08:39:01.59Z</time></trkpt><trkpt lat="44.8331919" lon="15.2541885"><ele>508.5</ele><time>2026-05-05T08:39:02.59Z</time></trkpt><trkpt lat="44.8333783" lon="15.2538679"><ele>513.0</ele><time>2026-05-05T08:39:03.59Z</time></trkpt><trkpt lat="44.8335676" lon="15.2535502"><ele>508.5</ele><time>2026-05-05T08:39:04.59Z</time></trkpt><trkpt lat="44.8337595" lon="15.2532348"><ele>504.0</ele><time>2026-05-05T08:39:05.59Z</time></trkpt><trkpt lat="44.833951" lon="15.2529212"><ele>504.0</ele><time>2026-05-05T08:39:06.59Z</time></trkpt><trkpt lat="44.8341468" lon="15.2526093"><ele>504.0</ele><time>2026-05-05T08:39:07.591Z</time></trkpt><trkpt lat="44.8343421" lon="15.2522996"><ele>501.0</ele><time>2026-05-05T08:39:08.591Z</time></trkpt><trkpt lat="44.834544" lon="15.2519937"><ele>498.0</ele><time>2026-05-05T08:39:09.591Z</time></trkpt><trkpt lat="44.834748" lon="15.251689"><ele>495.0</ele><time>2026-05-05T08:39:10.59Z</time></trkpt><trkpt lat="44.8349583" lon="15.2513872"><ele>492.0</ele><time>2026-05-05T08:39:11.591Z</time></trkpt><trkpt lat="44.835169" lon="15.2510931"><ele>492.0</ele><time>2026-05-05T08:39:12.591Z</time></trkpt><trkpt lat="44.8353828" lon="15.2508008"><ele>492.0</ele><time>2026-05-05T08:39:13.591Z</time></trkpt><trkpt lat="44.835598" lon="15.2505115"><ele>493.5</ele><time>2026-05-05T08:39:14.59Z</time></trkpt><trkpt lat="44.8358138" lon="15.2502308"><ele>495.0</ele><time>2026-05-05T08:39:15.59Z</time></trkpt><trkpt lat="44.8360335" lon="15.2499477"><ele>498.0</ele><time>2026-05-05T08:39:16.59Z</time></trkpt><trkpt lat="44.8362576" lon="15.2496636"><ele>501.0</ele><time>2026-05-05T08:39:17.59Z</time></trkpt><trkpt lat="44.8364846" lon="15.2493877"><ele>501.0</ele><time>2026-05-05T08:39:18.59Z</time></trkpt><trkpt lat="44.8367148" lon="15.2491162"><ele>501.0</ele><time>2026-05-05T08:39:19.59Z</time></trkpt><trkpt lat="44.8369479" lon="15.2488444"><ele>495.5</ele><time>2026-05-05T08:39:20.59Z</time></trkpt><trkpt lat="44.8371847" lon="15.2485816"><ele>490.0</ele><time>2026-05-05T08:39:21.59Z</time></trkpt><trkpt lat="44.8374224" lon="15.2483212"><ele>482.5</ele><time>2026-05-05T08:39:22.59Z</time></trkpt><trkpt lat="44.8376622" lon="15.2480593"><ele>475.0</ele><time>2026-05-05T08:39:23.591Z</time></trkpt><trkpt lat="44.8379034" lon="15.247808"><ele>475.0</ele><time>2026-05-05T08:39:24.591Z</time></trkpt><trkpt lat="44.8381437" lon="15.2475624"><ele>475.0</ele><time>2026-05-05T08:39:25.59Z</time></trkpt><trkpt lat="44.8383845" lon="15.2473199"><ele>476.0</ele><time>2026-05-05T08:39:26.59Z</time></trkpt><trkpt lat="44.8386264" lon="15.2470869"><ele>477.0</ele><time>2026-05-05T08:39:27.591Z</time></trkpt><trkpt lat="44.8388698" lon="15.2468586"><ele>477.0</ele><time>2026-05-05T08:39:28.59Z</time></trkpt><trkpt lat="44.8391144" lon="15.2466315"><ele>477.0</ele><time>2026-05-05T08:39:29.591Z</time></trkpt><trkpt lat="44.8393586" lon="15.2464082"><ele>487.0</ele><time>2026-05-05T08:39:30.591Z</time></trkpt><trkpt lat="44.839604" lon="15.2461912"><ele>497.0</ele><time>2026-05-05T08:39:31.591Z</time></trkpt><trkpt lat="44.8398493" lon="15.2459756"><ele>497.0</ele><time>2026-05-05T08:39:32.59Z</time></trkpt><trkpt lat="44.8400943" lon="15.2457557"><ele>497.0</ele><time>2026-05-05T08:39:33.591Z</time></trkpt><trkpt lat="44.8403413" lon="15.2455383"><ele>500.0</ele><time>2026-05-05T08:39:34.591Z</time></trkpt><trkpt lat="44.8405897" lon="15.2453168"><ele>503.0</ele><time>2026-05-05T08:39:35.591Z</time></trkpt><trkpt lat="44.8408402" lon="15.2450917"><ele>501.5</ele><time>2026-05-05T08:39:36.591Z</time></trkpt><trkpt lat="44.841091" lon="15.2448668"><ele>500.0</ele><time>2026-05-05T08:39:37.591Z</time></trkpt><trkpt lat="44.8413392" lon="15.2446333"><ele>500.0</ele><time>2026-05-05T08:39:38.591Z</time></trkpt><trkpt lat="44.8415832" lon="15.2443962"><ele>500.0</ele><time>2026-05-05T08:39:39.591Z</time></trkpt><trkpt lat="44.8418239" lon="15.2441552"><ele>499.0</ele><time>2026-05-05T08:39:40.59Z</time></trkpt><trkpt lat="44.8420633" lon="15.2439111"><ele>498.0</ele><time>2026-05-05T08:39:41.59Z</time></trkpt><trkpt lat="44.8423006" lon="15.2436633"><ele>498.0</ele><time>2026-05-05T08:39:42.591Z</time></trkpt><trkpt lat="44.8425342" lon="15.2434102"><ele>498.0</ele><time>2026-05-05T08:39:43.591Z</time></trkpt><trkpt lat="44.8427697" lon="15.2431535"><ele>496.5</ele><time>2026-05-05T08:39:44.59Z</time></trkpt><trkpt lat="44.8429973" lon="15.2428908"><ele>495.0</ele><time>2026-05-05T08:39:45.59Z</time></trkpt><trkpt lat="44.8432219" lon="15.242625"><ele>495.0</ele><time>2026-05-05T08:39:46.59Z</time></trkpt><trkpt lat="44.8434417" lon="15.2423565"><ele>495.0</ele><time>2026-05-05T08:39:47.591Z</time></trkpt><trkpt lat="44.8436595" lon="15.2420847"><ele>495.5</ele><time>2026-05-05T08:39:48.59Z</time></trkpt><trkpt lat="44.8438733" lon="15.2418088"><ele>496.0</ele><time>2026-05-05T08:39:49.591Z</time></trkpt><trkpt lat="44.8440804" lon="15.2415265"><ele>496.5</ele><time>2026-05-05T08:39:50.59Z</time></trkpt><trkpt lat="44.8442842" lon="15.241244"><ele>497.0</ele><time>2026-05-05T08:39:51.59Z</time></trkpt><trkpt lat="44.844492" lon="15.2409579"><ele>497.0</ele><time>2026-05-05T08:39:52.59Z</time></trkpt><trkpt lat="44.8446933" lon="15.2406642"><ele>497.0</ele><time>2026-05-05T08:39:53.59Z</time></trkpt><trkpt lat="44.8448966" lon="15.240364"><ele>499.0</ele><time>2026-05-05T08:39:54.59Z</time></trkpt><trkpt lat="44.8450919" lon="15.2400607"><ele>501.0</ele><time>2026-05-05T08:39:55.59Z</time></trkpt><trkpt lat="44.845285" lon="15.2397625"><ele>501.0</ele><time>2026-05-05T08:39:56.591Z</time></trkpt><trkpt lat="44.8454734" lon="15.2394545"><ele>501.0</ele><time>2026-05-05T08:39:57.59Z</time></trkpt><trkpt lat="44.8456578" lon="15.2391397"><ele>502.0</ele><time>2026-05-05T08:39:58.591Z</time></trkpt><trkpt lat="44.8458368" lon="15.2388243"><ele>503.0</ele><time>2026-05-05T08:39:59.591Z</time></trkpt><trkpt lat="44.8460133" lon="15.2385047"><ele>503.0</ele><time>2026-05-05T08:40:00.59Z</time></trkpt><trkpt lat="44.8461861" lon="15.2381841"><ele>503.0</ele><time>2026-05-05T08:40:01.59Z</time></trkpt><trkpt lat="44.8463559" lon="15.2378588"><ele>504.0</ele><time>2026-05-05T08:40:02.591Z</time></trkpt><trkpt lat="44.846527" lon="15.2375353"><ele>505.0</ele><time>2026-05-05T08:40:03.591Z</time></trkpt><trkpt lat="44.8466948" lon="15.2372134"><ele>508.5</ele><time>2026-05-05T08:40:04.59Z</time></trkpt><trkpt lat="44.8468608" lon="15.2368918"><ele>512.0</ele><time>2026-05-05T08:40:05.591Z</time></trkpt><trkpt lat="44.847026" lon="15.2365713"><ele>514.0</ele><time>2026-05-05T08:40:06.591Z</time></trkpt><trkpt lat="44.8471916" lon="15.2362576"><ele>516.0</ele><time>2026-05-05T08:40:07.591Z</time></trkpt><trkpt lat="44.8473526" lon="15.2359416"><ele>517.0</ele><time>2026-05-05T08:40:08.59Z</time></trkpt><trkpt lat="44.8475151" lon="15.2356304"><ele>518.0</ele><time>2026-05-05T08:40:09.591Z</time></trkpt><trkpt lat="44.8476774" lon="15.2353147"><ele>524.0</ele><time>2026-05-05T08:40:10.591Z</time></trkpt><trkpt lat="44.8478432" lon="15.2350024"><ele>530.0</ele><time>2026-05-05T08:40:11.59Z</time></trkpt><trkpt lat="44.8480105" lon="15.2346925"><ele>530.0</ele><time>2026-05-05T08:40:12.591Z</time></trkpt><trkpt lat="44.8481776" lon="15.2343827"><ele>530.0</ele><time>2026-05-05T08:40:13.59Z</time></trkpt><trkpt lat="44.8483459" lon="15.2340755"><ele>534.0</ele><time>2026-05-05T08:40:14.59Z</time></trkpt><trkpt lat="44.848516" lon="15.2337703"><ele>538.0</ele><time>2026-05-05T08:40:15.59Z</time></trkpt><trkpt lat="44.8486884" lon="15.2334653"><ele>538.0</ele><time>2026-05-05T08:40:16.59Z</time></trkpt><trkpt lat="44.8488644" lon="15.233162"><ele>538.0</ele><time>2026-05-05T08:40:17.591Z</time></trkpt><trkpt lat="44.8490406" lon="15.2328624"><ele>536.0</ele><time>2026-05-05T08:40:18.591Z</time></trkpt><trkpt lat="44.849218" lon="15.2325597"><ele>534.0</ele><time>2026-05-05T08:40:19.591Z</time></trkpt><trkpt lat="44.8493978" lon="15.2322597"><ele>534.0</ele><time>2026-05-05T08:40:20.591Z</time></trkpt><trkpt lat="44.8495768" lon="15.2319599"><ele>534.0</ele><time>2026-05-05T08:40:21.591Z</time></trkpt><trkpt lat="44.8497535" lon="15.2316642"><ele>536.5</ele><time>2026-05-05T08:40:22.59Z</time></trkpt><trkpt lat="44.8499382" lon="15.2313653"><ele>539.0</ele><time>2026-05-05T08:40:23.591Z</time></trkpt><trkpt lat="44.850124" lon="15.2310676"><ele>532.0</ele><time>2026-05-05T08:40:24.591Z</time></trkpt><trkpt lat="44.8503125" lon="15.2307673"><ele>525.0</ele><time>2026-05-05T08:40:25.591Z</time></trkpt><trkpt lat="44.8505013" lon="15.230471"><ele>525.0</ele><time>2026-05-05T08:40:26.59Z</time></trkpt><trkpt lat="44.8506937" lon="15.2301763"><ele>525.0</ele><time>2026-05-05T08:40:27.59Z</time></trkpt><trkpt lat="44.8454734" lon="15.2394545"><ele>515.5</ele><time>2026-05-05T08:39:57.59Z</time></trkpt><trkpt lat="44.8456578" lon="15.2391397"><ele>506.0</ele><time>2026-05-05T08:39:58.591Z</time></trkpt><trkpt lat="44.8458368" lon="15.2388243"><ele>504.5</ele><time>2026-05-05T08:39:59.591Z</time></trkpt><trkpt lat="44.8460133" lon="15.2385047"><ele>503.0</ele><time>2026-05-05T08:40:00.59Z</time></trkpt><trkpt lat="44.8461861" lon="15.2381841"><ele>501.5</ele><time>2026-05-05T08:40:01.59Z</time></trkpt><trkpt lat="44.8463559" lon="15.2378588"><ele>500.0</ele><time>2026-05-05T08:40:02.591Z</time></trkpt><trkpt lat="44.846527" lon="15.2375353"><ele>502.5</ele><time>2026-05-05T08:40:03.591Z</time></trkpt><trkpt lat="44.8466948" lon="15.2372134"><ele>505.0</ele><time>2026-05-05T08:40:04.59Z</time></trkpt><trkpt lat="44.8468608" lon="15.2368918"><ele>508.5</ele><time>2026-05-05T08:40:05.591Z</time></trkpt><trkpt lat="44.847026" lon="15.2365713"><ele>512.0</ele><time>2026-05-05T08:40:06.591Z</time></trkpt><trkpt lat="44.8471916" lon="15.2362576"><ele>514.0</ele><time>2026-05-05T08:40:07.591Z</time></trkpt><trkpt lat="44.8473526" lon="15.2359416"><ele>516.0</ele><time>2026-05-05T08:40:08.59Z</time></trkpt><trkpt lat="44.8475151" lon="15.2356304"><ele>523.5</ele><time>2026-05-05T08:40:09.591Z</time></trkpt><trkpt lat="44.8476774" lon="15.2353147"><ele>531.0</ele><time>2026-05-05T08:40:10.591Z</time></trkpt><trkpt lat="44.8478432" lon="15.2350024"><ele>530.5</ele><time>2026-05-05T08:40:11.59Z</time></trkpt><trkpt lat="44.8480105" lon="15.2346925"><ele>530.0</ele><time>2026-05-05T08:40:12.591Z</time></trkpt><trkpt lat="44.8481776" lon="15.2343827"><ele>530.0</ele><time>2026-05-05T08:40:13.59Z</time></trkpt><trkpt lat="44.8483459" lon="15.2340755"><ele>530.0</ele><time>2026-05-05T08:40:14.59Z</time></trkpt><trkpt lat="44.848516" lon="15.2337703"><ele>534.0</ele><time>2026-05-05T08:40:15.59Z</time></trkpt><trkpt lat="44.8486884" lon="15.2334653"><ele>538.0</ele><time>2026-05-05T08:40:16.59Z</time></trkpt><trkpt lat="44.8488644" lon="15.233162"><ele>536.0</ele><time>2026-05-05T08:40:17.591Z</time></trkpt><trkpt lat="44.8490406" lon="15.2328624"><ele>534.0</ele><time>2026-05-05T08:40:18.591Z</time></trkpt><trkpt lat="44.849218" lon="15.2325597"><ele>534.0</ele><time>2026-05-05T08:40:19.591Z</time></trkpt><trkpt lat="44.8493978" lon="15.2322597"><ele>534.0</ele><time>2026-05-05T08:40:20.591Z</time></trkpt><trkpt lat="44.8495768" lon="15.2319599"><ele>534.0</ele><time>2026-05-05T08:40:21.591Z</time></trkpt><trkpt lat="44.8497535" lon="15.2316642"><ele>534.0</ele><time>2026-05-05T08:40:22.59Z</time></trkpt><trkpt lat="44.8499382" lon="15.2313653"><ele>536.5</ele><time>2026-05-05T08:40:23.591Z</time></trkpt><trkpt lat="44.850124" lon="15.2310676"><ele>539.0</ele><time>2026-05-05T08:40:24.591Z</time></trkpt><trkpt lat="44.8503125" lon="15.2307673"><ele>532.0</ele><time>2026-05-05T08:40:25.591Z</time></trkpt><trkpt lat="44.8505013" lon="15.230471"><ele>525.0</ele><time>2026-05-05T08:40:26.59Z</time></trkpt><trkpt lat="44.8506937" lon="15.2301763"><ele>525.0</ele><time>2026-05-05T08:40:27.59Z</time></trkpt><trkpt lat="44.8508878" lon="15.2298811"><ele>525.0</ele><time>2026-05-05T08:40:28.591Z</time></trkpt><trkpt lat="44.8510835" lon="15.2295871"><ele>519.5</ele><time>2026-05-05T08:40:29.591Z</time></trkpt><trkpt lat="44.8512802" lon="15.2292912"><ele>514.0</ele><time>2026-05-05T08:40:30.59Z</time></trkpt><trkpt lat="44.8514818" lon="15.2289938"><ele>513.0</ele><time>2026-05-05T08:40:31.591Z</time></trkpt><trkpt lat="44.8516856" lon="15.2287006"><ele>512.0</ele><time>2026-05-05T08:40:32.591Z</time></trkpt><trkpt lat="44.8518906" lon="15.2284083"><ele>523.0</ele><time>2026-05-05T08:40:33.59Z</time></trkpt><trkpt lat="44.8520966" lon="15.228115"><ele>534.0</ele><time>2026-05-05T08:40:34.591Z</time></trkpt><trkpt lat="44.852307" lon="15.2278228"><ele>534.0</ele><time>2026-05-05T08:40:35.591Z</time></trkpt><trkpt lat="44.8525133" lon="15.2275274"><ele>534.0</ele><time>2026-05-05T08:40:36.591Z</time></trkpt><trkpt lat="44.8527294" lon="15.2272297"><ele>521.0</ele><time>2026-05-05T08:40:37.591Z</time></trkpt><trkpt lat="44.8529371" lon="15.226932"><ele>508.0</ele><time>2026-05-05T08:40:38.59Z</time></trkpt><trkpt lat="44.8531478" lon="15.2266368"><ele>517.5</ele><time>2026-05-05T08:40:39.591Z</time></trkpt><trkpt lat="44.8533584" lon="15.2263428"><ele>527.0</ele><time>2026-05-05T08:40:40.59Z</time></trkpt><trkpt lat="44.8535688" lon="15.2260485"><ele>518.0</ele><time>2026-05-05T08:40:41.59Z</time></trkpt><trkpt lat="44.8537768" lon="15.2257512"><ele>509.0</ele><time>2026-05-05T08:40:42.591Z</time></trkpt><trkpt lat="44.8539862" lon="15.2254526"><ele>509.0</ele><time>2026-05-05T08:40:43.591Z</time></trkpt><trkpt lat="44.8541911" lon="15.2251558"><ele>509.0</ele><time>2026-05-05T08:40:44.591Z</time></trkpt><trkpt lat="44.8543933" lon="15.2248558"><ele>503.5</ele><time>2026-05-05T08:40:45.591Z</time></trkpt><trkpt lat="44.8545918" lon="15.2245513"><ele>498.0</ele><time>2026-05-05T08:40:46.591Z</time></trkpt><trkpt lat="44.8547871" lon="15.2242458"><ele>493.5</ele><time>2026-05-05T08:40:47.59Z</time></trkpt><trkpt lat="44.8549788" lon="15.2239354"><ele>489.0</ele><time>2026-05-05T08:40:48.591Z</time></trkpt><trkpt lat="44.8551677" lon="15.2236274"><ele>489.0</ele><time>2026-05-05T08:40:49.591Z</time></trkpt><trkpt lat="44.8553526" lon="15.2233182"><ele>489.0</ele><time>2026-05-05T08:40:50.591Z</time></trkpt><trkpt lat="44.8555316" lon="15.2230121"><ele>497.0</ele><time>2026-05-05T08:40:51.591Z</time></trkpt><trkpt lat="44.8557097" lon="15.2227033"><ele>505.0</ele><time>2026-05-05T08:40:52.59Z</time></trkpt><trkpt lat="44.8558837" lon="15.2223944"><ele>497.0</ele><time>2026-05-05T08:40:53.591Z</time></trkpt><trkpt lat="44.856054" lon="15.2220835"><ele>489.0</ele><time>2026-05-05T08:40:54.59Z</time></trkpt><trkpt lat="44.8562214" lon="15.2217734"><ele>496.5</ele><time>2026-05-05T08:40:55.59Z</time></trkpt><trkpt lat="44.8563849" lon="15.2214635"><ele>504.0</ele><time>2026-05-05T08:40:56.591Z</time></trkpt><trkpt lat="44.8565454" lon="15.2211541"><ele>504.0</ele><time>2026-05-05T08:40:57.59Z</time></trkpt><trkpt lat="44.856701" lon="15.2208406"><ele>504.0</ele><time>2026-05-05T08:40:58.591Z</time></trkpt><trkpt lat="44.8568535" lon="15.2205265"><ele>495.5</ele><time>2026-05-05T08:40:59.59Z</time></trkpt><trkpt lat="44.8570044" lon="15.2202109"><ele>487.0</ele><time>2026-05-05T08:41:00.59Z</time></trkpt><trkpt lat="44.8571544" lon="15.219895"><ele>491.5</ele><time>2026-05-05T08:41:01.59Z</time></trkpt><trkpt lat="44.8573015" lon="15.219576"><ele>496.0</ele><time>2026-05-05T08:41:02.59Z</time></trkpt><trkpt lat="44.8574455" lon="15.2192556"><ele>503.0</ele><time>2026-05-05T08:41:03.591Z</time></trkpt><trkpt lat="44.8575893" lon="15.2189348"><ele>510.0</ele><time>2026-05-05T08:41:04.591Z</time></trkpt><trkpt lat="44.8577305" lon="15.2186084"><ele>495.0</ele><time>2026-05-05T08:41:05.591Z</time></trkpt><trkpt lat="44.857872" lon="15.2182839"><ele>480.0</ele><time>2026-05-05T08:41:06.59Z</time></trkpt><trkpt lat="44.8580131" lon="15.2179558"><ele>480.0</ele><time>2026-05-05T08:41:07.59Z</time></trkpt><trkpt lat="44.8581521" lon="15.2176207"><ele>480.0</ele><time>2026-05-05T08:41:08.591Z</time></trkpt><trkpt lat="44.8582927" lon="15.2172885"><ele>486.0</ele><time>2026-05-05T08:41:09.591Z</time></trkpt><trkpt lat="44.8584353" lon="15.2169574"><ele>492.0</ele><time>2026-05-05T08:41:10.59Z</time></trkpt><trkpt lat="44.8585784" lon="15.2166253"><ele>485.0</ele><time>2026-05-05T08:41:11.59Z</time></trkpt><trkpt lat="44.858723" lon="15.2162946"><ele>478.0</ele><time>2026-05-05T08:41:12.59Z</time></trkpt><trkpt lat="44.8588695" lon="15.2159638"><ele>490.5</ele><time>2026-05-05T08:41:13.591Z</time></trkpt><trkpt lat="44.8590194" lon="15.215635"><ele>503.0</ele><time>2026-05-05T08:41:14.591Z</time></trkpt><trkpt lat="44.8591734" lon="15.2153117"><ele>491.0</ele><time>2026-05-05T08:41:15.59Z</time></trkpt><trkpt lat="44.8593334" lon="15.2149945"><ele>479.0</ele><time>2026-05-05T08:41:16.59Z</time></trkpt><trkpt lat="44.859498" lon="15.2146806"><ele>479.0</ele><time>2026-05-05T08:41:17.591Z</time></trkpt><trkpt lat="44.8596709" lon="15.2143699"><ele>479.0</ele><time>2026-05-05T08:41:18.591Z</time></trkpt><trkpt lat="44.8598478" lon="15.2140611"><ele>485.5</ele><time>2026-05-05T08:41:19.59Z</time></trkpt><trkpt lat="44.8600317" lon="15.2137524"><ele>492.0</ele><time>2026-05-05T08:41:20.591Z</time></trkpt><trkpt lat="44.860217" lon="15.2134513"><ele>479.0</ele><time>2026-05-05T08:41:21.591Z</time></trkpt><trkpt lat="44.8604147" lon="15.2131559"><ele>466.0</ele><time>2026-05-05T08:41:22.591Z</time></trkpt><trkpt lat="44.8606157" lon="15.2128704"><ele>466.0</ele><time>2026-05-05T08:41:23.59Z</time></trkpt><trkpt lat="44.8608198" lon="15.2125912"><ele>466.0</ele><time>2026-05-05T08:41:24.59Z</time></trkpt><trkpt lat="44.8610315" lon="15.212321"><ele>455.0</ele><time>2026-05-05T08:41:25.591Z</time></trkpt><trkpt lat="44.8612456" lon="15.212056"><ele>444.0</ele><time>2026-05-05T08:41:26.591Z</time></trkpt><trkpt lat="44.8614631" lon="15.2117946"><ele>444.0</ele><time>2026-05-05T08:41:27.591Z</time></trkpt><trkpt lat="44.8616829" lon="15.2115405"><ele>444.0</ele><time>2026-05-05T08:41:28.591Z</time></trkpt><trkpt lat="44.8619091" lon="15.2112903"><ele>446.5</ele><time>2026-05-05T08:41:29.591Z</time></trkpt><trkpt lat="44.8621402" lon="15.2110535"><ele>449.0</ele><time>2026-05-05T08:41:30.591Z</time></trkpt><trkpt lat="44.8623768" lon="15.2108214"><ele>448.0</ele><time>2026-05-05T08:41:31.59Z</time></trkpt><trkpt lat="44.862616" lon="15.2105958"><ele>447.0</ele><time>2026-05-05T08:41:32.591Z</time></trkpt><trkpt lat="44.8628554" lon="15.2103767"><ele>447.0</ele><time>2026-05-05T08:41:33.59Z</time></trkpt><trkpt lat="44.8630999" lon="15.2101632"><ele>447.0</ele><time>2026-05-05T08:41:34.591Z</time></trkpt><trkpt lat="44.8633463" lon="15.2099592"><ele>447.0</ele><time>2026-05-05T08:41:35.59Z</time></trkpt><trkpt lat="44.8635965" lon="15.2097632"><ele>447.0</ele><time>2026-05-05T08:41:36.59Z</time></trkpt><trkpt lat="44.8638503" lon="15.2095756"><ele>447.0</ele><time>2026-05-05T08:41:37.591Z</time></trkpt><trkpt lat="44.8641067" lon="15.2093989"><ele>447.0</ele><time>2026-05-05T08:41:38.591Z</time></trkpt><trkpt lat="44.8643667" lon="15.209231"><ele>447.5</ele><time>2026-05-05T08:41:39.59Z</time></trkpt><trkpt lat="44.8646259" lon="15.2090736"><ele>448.0</ele><time>2026-05-05T08:41:40.591Z</time></trkpt><trkpt lat="44.864884" lon="15.2089199"><ele>448.5</ele><time>2026-05-05T08:41:41.59Z</time></trkpt><trkpt lat="44.8651501" lon="15.2087749"><ele>449.0</ele><time>2026-05-05T08:41:42.59Z</time></trkpt><trkpt lat="44.8654169" lon="15.2086393"><ele>449.0</ele><time>2026-05-05T08:41:43.59Z</time></trkpt><trkpt lat="44.8656863" lon="15.2085147"><ele>449.0</ele><time>2026-05-05T08:41:44.591Z</time></trkpt><trkpt lat="44.8659571" lon="15.2084009"><ele>447.5</ele><time>2026-05-05T08:41:45.591Z</time></trkpt><trkpt lat="44.8662291" lon="15.2082993"><ele>446.0</ele><time>2026-05-05T08:41:46.591Z</time></trkpt><trkpt lat="44.8665019" lon="15.2082044"><ele>446.0</ele><time>2026-05-05T08:41:47.59Z</time></trkpt><trkpt lat="44.8667738" lon="15.2081136"><ele>446.0</ele><time>2026-05-05T08:41:48.591Z</time></trkpt><trkpt lat="44.8670466" lon="15.2080296"><ele>446.0</ele><time>2026-05-05T08:41:49.591Z</time></trkpt><trkpt lat="44.8673201" lon="15.2079548"><ele>446.0</ele><time>2026-05-05T08:41:50.591Z</time></trkpt><trkpt lat="44.8675939" lon="15.2078915"><ele>447.0</ele><time>2026-05-05T08:41:51.591Z</time></trkpt><trkpt lat="44.867868" lon="15.2078346"><ele>448.0</ele><time>2026-05-05T08:41:52.59Z</time></trkpt><trkpt lat="44.8681416" lon="15.2077883"><ele>448.0</ele><time>2026-05-05T08:41:53.59Z</time></trkpt><trkpt lat="44.868414" lon="15.2077514"><ele>448.0</ele><time>2026-05-05T08:41:54.59Z</time></trkpt><trkpt lat="44.8686844" lon="15.2077197"><ele>448.5</ele><time>2026-05-05T08:41:55.591Z</time></trkpt><trkpt lat="44.8689534" lon="15.2076974"><ele>449.0</ele><time>2026-05-05T08:41:56.59Z</time></trkpt><trkpt lat="44.8692209" lon="15.2076842"><ele>451.5</ele><time>2026-05-05T08:41:57.591Z</time></trkpt><trkpt lat="44.8694881" lon="15.2076785"><ele>454.0</ele><time>2026-05-05T08:41:58.59Z</time></trkpt><trkpt lat="44.8697511" lon="15.2076788"><ele>454.0</ele><time>2026-05-05T08:41:59.59Z</time></trkpt><trkpt lat="44.8700117" lon="15.207682"><ele>454.0</ele><time>2026-05-05T08:42:00.591Z</time></trkpt><trkpt lat="44.8702722" lon="15.2076925"><ele>464.5</ele><time>2026-05-05T08:42:01.59Z</time></trkpt><trkpt lat="44.8705279" lon="15.207699"><ele>475.0</ele><time>2026-05-05T08:42:02.591Z</time></trkpt><trkpt lat="44.8707861" lon="15.2077052"><ele>480.0</ele><time>2026-05-05T08:42:03.59Z</time></trkpt><trkpt lat="44.871044" lon="15.2077054"><ele>485.0</ele><time>2026-05-05T08:42:04.59Z</time></trkpt><trkpt lat="44.8744988" lon="15.2069897"><ele>485.0</ele><time>2026-05-05T08:42:17.59Z</time></trkpt><trkpt lat="44.8747562" lon="15.2068793"><ele>485.0</ele><time>2026-05-05T08:42:18.59Z</time></trkpt><trkpt lat="44.8750175" lon="15.2067544"><ele>485.0</ele><time>2026-05-05T08:42:19.591Z</time></trkpt><trkpt lat="44.8752828" lon="15.206621"><ele>485.0</ele><time>2026-05-05T08:42:20.591Z</time></trkpt><trkpt lat="44.8755428" lon="15.2064802"><ele>485.0</ele><time>2026-05-05T08:42:21.59Z</time></trkpt><trkpt lat="44.8757981" lon="15.2063296"><ele>485.0</ele><time>2026-05-05T08:42:22.591Z</time></trkpt><trkpt lat="44.8760616" lon="15.2061832"><ele>485.5</ele><time>2026-05-05T08:42:23.591Z</time></trkpt><trkpt lat="44.8763169" lon="15.2060223"><ele>486.0</ele><time>2026-05-05T08:42:24.59Z</time></trkpt><trkpt lat="44.8765723" lon="15.2058623"><ele>483.5</ele><time>2026-05-05T08:42:25.59Z</time></trkpt><trkpt lat="44.8768285" lon="15.2057018"><ele>481.0</ele><time>2026-05-05T08:42:26.591Z</time></trkpt><trkpt lat="44.8770779" lon="15.2055367"><ele>481.0</ele><time>2026-05-05T08:42:27.591Z</time></trkpt><trkpt lat="44.8773321" lon="15.2053675"><ele>481.0</ele><time>2026-05-05T08:42:28.591Z</time></trkpt><trkpt lat="44.8775824" lon="15.2051932"><ele>479.5</ele><time>2026-05-05T08:42:29.59Z</time></trkpt><trkpt lat="44.8778356" lon="15.2050171"><ele>478.0</ele><time>2026-05-05T08:42:30.59Z</time></trkpt><trkpt lat="44.8780854" lon="15.2048368"><ele>479.0</ele><time>2026-05-05T08:42:31.59Z</time></trkpt><trkpt lat="44.8783347" lon="15.2046529"><ele>480.0</ele><time>2026-05-05T08:42:32.591Z</time></trkpt><trkpt lat="44.87858" lon="15.2044647"><ele>480.0</ele><time>2026-05-05T08:42:33.59Z</time></trkpt><trkpt lat="44.8788252" lon="15.2042744"><ele>480.0</ele><time>2026-05-05T08:42:34.59Z</time></trkpt><trkpt lat="44.8790654" lon="15.204076"><ele>480.5</ele><time>2026-05-05T08:42:35.591Z</time></trkpt><trkpt lat="44.8792994" lon="15.2038689"><ele>481.0</ele><time>2026-05-05T08:42:36.59Z</time></trkpt><trkpt lat="44.8795395" lon="15.2036606"><ele>481.0</ele><time>2026-05-05T08:42:37.591Z</time></trkpt><trkpt lat="44.8797777" lon="15.2034478"><ele>481.0</ele><time>2026-05-05T08:42:38.591Z</time></trkpt><trkpt lat="44.8800115" lon="15.2032273"><ele>478.5</ele><time>2026-05-05T08:42:39.59Z</time></trkpt><trkpt lat="44.8802442" lon="15.2030037"><ele>476.0</ele><time>2026-05-05T08:42:40.591Z</time></trkpt><trkpt lat="44.8804774" lon="15.2027727"><ele>476.0</ele><time>2026-05-05T08:42:41.59Z</time></trkpt><trkpt lat="44.8807085" lon="15.2025372"><ele>476.0</ele><time>2026-05-05T08:42:42.591Z</time></trkpt><trkpt lat="44.8809332" lon="15.2022967"><ele>473.0</ele><time>2026-05-05T08:42:43.591Z</time></trkpt><trkpt lat="44.8811594" lon="15.2020539"><ele>470.0</ele><time>2026-05-05T08:42:44.59Z</time></trkpt><trkpt lat="44.8813826" lon="15.2018002"><ele>470.0</ele><time>2026-05-05T08:42:45.591Z</time></trkpt><trkpt lat="44.8815995" lon="15.2015381"><ele>470.0</ele><time>2026-05-05T08:42:46.591Z</time></trkpt><trkpt lat="44.8818157" lon="15.2012701"><ele>470.0</ele><time>2026-05-05T08:42:47.59Z</time></trkpt><trkpt lat="44.8820321" lon="15.2010009"><ele>470.0</ele><time>2026-05-05T08:42:48.591Z</time></trkpt><trkpt lat="44.8822474" lon="15.200731"><ele>471.5</ele><time>2026-05-05T08:42:49.591Z</time></trkpt><trkpt lat="44.8824625" lon="15.2004534"><ele>473.0</ele><time>2026-05-05T08:42:50.591Z</time></trkpt><trkpt lat="44.8826731" lon="15.2001723"><ele>476.5</ele><time>2026-05-05T08:42:51.59Z</time></trkpt><trkpt lat="44.8828818" lon="15.1998881"><ele>480.0</ele><time>2026-05-05T08:42:52.59Z</time></trkpt><trkpt lat="44.8830911" lon="15.1996042"><ele>480.0</ele><time>2026-05-05T08:42:53.591Z</time></trkpt><trkpt lat="44.8832985" lon="15.1993187"><ele>480.0</ele><time>2026-05-05T08:42:54.59Z</time></trkpt><trkpt lat="44.8835042" lon="15.19903"><ele>482.0</ele><time>2026-05-05T08:42:55.591Z</time></trkpt><trkpt lat="44.8837155" lon="15.1987458"><ele>484.0</ele><time>2026-05-05T08:42:56.591Z</time></trkpt><trkpt lat="44.883918" lon="15.1984676"><ele>484.0</ele><time>2026-05-05T08:42:57.59Z</time></trkpt><trkpt lat="44.8841283" lon="15.1981916"><ele>484.0</ele><time>2026-05-05T08:42:58.59Z</time></trkpt><trkpt lat="44.8843406" lon="15.1979175"><ele>486.5</ele><time>2026-05-05T08:42:59.59Z</time></trkpt><trkpt lat="44.8845577" lon="15.1976522"><ele>489.0</ele><time>2026-05-05T08:43:00.591Z</time></trkpt><trkpt lat="44.8847744" lon="15.1973911"><ele>488.5</ele><time>2026-05-05T08:43:01.591Z</time></trkpt><trkpt lat="44.8849971" lon="15.1971404"><ele>488.0</ele><time>2026-05-05T08:43:02.591Z</time></trkpt><trkpt lat="44.8852229" lon="15.1969016"><ele>488.0</ele><time>2026-05-05T08:43:03.591Z</time></trkpt><trkpt lat="44.885453" lon="15.1966713"><ele>488.0</ele><time>2026-05-05T08:43:04.59Z</time></trkpt><trkpt lat="44.8856852" lon="15.1964512"><ele>487.0</ele><time>2026-05-05T08:43:05.59Z</time></trkpt><trkpt lat="44.8859219" lon="15.1962366"><ele>486.0</ele><time>2026-05-05T08:43:06.591Z</time></trkpt><trkpt lat="44.8861607" lon="15.1960264"><ele>486.0</ele><time>2026-05-05T08:43:07.59Z</time></trkpt><trkpt lat="44.8864014" lon="15.19583"><ele>486.0</ele><time>2026-05-05T08:43:08.59Z</time></trkpt><trkpt lat="44.8866461" lon="15.1956437"><ele>481.0</ele><time>2026-05-05T08:43:09.59Z</time></trkpt><trkpt lat="44.8868915" lon="15.1954662"><ele>476.0</ele><time>2026-05-05T08:43:10.591Z</time></trkpt><trkpt lat="44.8871385" lon="15.1952988"><ele>476.0</ele><time>2026-05-05T08:43:11.591Z</time></trkpt><trkpt lat="44.8873871" lon="15.1951411"><ele>476.0</ele><time>2026-05-05T08:43:12.59Z</time></trkpt><trkpt lat="44.8876402" lon="15.1949915"><ele>473.0</ele><time>2026-05-05T08:43:13.591Z</time></trkpt><trkpt lat="44.8878953" lon="15.1948525"><ele>470.0</ele><time>2026-05-05T08:43:14.59Z</time></trkpt><trkpt lat="44.8881514" lon="15.1947238"><ele>463.0</ele><time>2026-05-05T08:43:15.59Z</time></trkpt><trkpt lat="44.888408" lon="15.1945965"><ele>456.0</ele><time>2026-05-05T08:43:16.591Z</time></trkpt><trkpt lat="44.8886643" lon="15.1944704"><ele>456.0</ele><time>2026-05-05T08:43:17.59Z</time></trkpt><trkpt lat="44.8889228" lon="15.1943438"><ele>456.0</ele><time>2026-05-05T08:43:18.59Z</time></trkpt><trkpt lat="44.8891837" lon="15.1942135"><ele>460.0</ele><time>2026-05-05T08:43:19.591Z</time></trkpt><trkpt lat="44.88944" lon="15.1940812"><ele>464.0</ele><time>2026-05-05T08:43:20.591Z</time></trkpt><trkpt lat="44.8896958" lon="15.1939469"><ele>464.0</ele><time>2026-05-05T08:43:21.59Z</time></trkpt><trkpt lat="44.8899496" lon="15.1938025"><ele>464.0</ele><time>2026-05-05T08:43:22.59Z</time></trkpt><trkpt lat="44.8902011" lon="15.1936506"><ele>466.5</ele><time>2026-05-05T08:43:23.59Z</time></trkpt><trkpt lat="44.890451" lon="15.1934849"><ele>469.0</ele><time>2026-05-05T08:43:24.59Z</time></trkpt><trkpt lat="44.8906977" lon="15.1933086"><ele>463.0</ele><time>2026-05-05T08:43:25.59Z</time></trkpt><trkpt lat="44.8909421" lon="15.1931194"><ele>457.0</ele><time>2026-05-05T08:43:26.59Z</time></trkpt><trkpt lat="44.8911822" lon="15.1929191"><ele>457.0</ele><time>2026-05-05T08:43:27.591Z</time></trkpt><trkpt lat="44.8914166" lon="15.1927051"><ele>457.0</ele><time>2026-05-05T08:43:28.591Z</time></trkpt><trkpt lat="44.8916499" lon="15.1924856"><ele>460.0</ele><time>2026-05-05T08:43:29.59Z</time></trkpt><trkpt lat="44.8918773" lon="15.192258"><ele>463.0</ele><time>2026-05-05T08:43:30.591Z</time></trkpt><trkpt lat="44.8921009" lon="15.1920161"><ele>463.0</ele><time>2026-05-05T08:43:31.591Z</time></trkpt><trkpt lat="44.8923198" lon="15.1917676"><ele>463.0</ele><time>2026-05-05T08:43:32.59Z</time></trkpt><trkpt lat="44.8925305" lon="15.1915067"><ele>463.0</ele><time>2026-05-05T08:43:33.591Z</time></trkpt><trkpt lat="44.8927402" lon="15.1912406"><ele>463.0</ele><time>2026-05-05T08:43:34.59Z</time></trkpt><trkpt lat="44.8929421" lon="15.190964"><ele>463.0</ele><time>2026-05-05T08:43:35.591Z</time></trkpt><trkpt lat="44.8931377" lon="15.19068"><ele>463.0</ele><time>2026-05-05T08:43:36.591Z</time></trkpt><trkpt lat="44.893326" lon="15.1903861"><ele>463.5</ele><time>2026-05-05T08:43:37.591Z</time></trkpt><trkpt lat="44.8935075" lon="15.1900872"><ele>464.0</ele><time>2026-05-05T08:43:38.591Z</time></trkpt><trkpt lat="44.8936797" lon="15.1897778"><ele>464.0</ele><time>2026-05-05T08:43:39.59Z</time></trkpt><trkpt lat="44.8938439" lon="15.1894629"><ele>464.0</ele><time>2026-05-05T08:43:40.59Z</time></trkpt><trkpt lat="44.8940041" lon="15.1891474"><ele>461.0</ele><time>2026-05-05T08:43:41.591Z</time></trkpt><trkpt lat="44.8941633" lon="15.18883"><ele>458.0</ele><time>2026-05-05T08:43:42.591Z</time></trkpt><trkpt lat="44.8943244" lon="15.1885124"><ele>462.0</ele><time>2026-05-05T08:43:43.59Z</time></trkpt><trkpt lat="44.894487" lon="15.1881951"><ele>466.0</ele><time>2026-05-05T08:43:44.591Z</time></trkpt><trkpt lat="44.8946461" lon="15.1878797"><ele>466.0</ele><time>2026-05-05T08:43:45.591Z</time></trkpt><trkpt lat="44.8948169" lon="15.1875762"><ele>466.0</ele><time>2026-05-05T08:43:46.59Z</time></trkpt><trkpt lat="44.8949988" lon="15.1872829"><ele>470.0</ele><time>2026-05-05T08:43:47.591Z</time></trkpt><trkpt lat="44.8951881" lon="15.1869962"><ele>474.0</ele><time>2026-05-05T08:43:48.591Z</time></trkpt><trkpt lat="44.8953883" lon="15.1867268"><ele>470.5</ele><time>2026-05-05T08:43:49.59Z</time></trkpt><trkpt lat="44.8955958" lon="15.1864623"><ele>467.0</ele><time>2026-05-05T08:43:50.59Z</time></trkpt><trkpt lat="44.8958081" lon="15.1862089"><ele>475.5</ele><time>2026-05-05T08:43:51.59Z</time></trkpt><trkpt lat="44.8960294" lon="15.1859673"><ele>484.0</ele><time>2026-05-05T08:43:52.591Z</time></trkpt><trkpt lat="44.8962555" lon="15.185738"><ele>477.0</ele><time>2026-05-05T08:43:53.591Z</time></trkpt><trkpt lat="44.8964919" lon="15.1855193"><ele>470.0</ele><time>2026-05-05T08:43:54.591Z</time></trkpt><trkpt lat="44.8967353" lon="15.1853146"><ele>474.5</ele><time>2026-05-05T08:43:55.59Z</time></trkpt><trkpt lat="44.8969883" lon="15.1851306"><ele>479.0</ele><time>2026-05-05T08:43:56.591Z</time></trkpt><trkpt lat="44.8972491" lon="15.1849601"><ele>474.0</ele><time>2026-05-05T08:43:57.59Z</time></trkpt><trkpt lat="44.8975156" lon="15.1848018"><ele>469.0</ele><time>2026-05-05T08:43:58.59Z</time></trkpt><trkpt lat="44.8977874" lon="15.1846533"><ele>469.0</ele><time>2026-05-05T08:43:59.59Z</time></trkpt><trkpt lat="44.8980639" lon="15.1845206"><ele>469.0</ele><time>2026-05-05T08:44:00.591Z</time></trkpt><trkpt lat="44.8983447" lon="15.1844037"><ele>472.0</ele><time>2026-05-05T08:44:01.59Z</time></trkpt><trkpt lat="44.898629" lon="15.1842981"><ele>475.0</ele><time>2026-05-05T08:44:02.59Z</time></trkpt><trkpt lat="44.8989137" lon="15.1841942"><ele>475.0</ele><time>2026-05-05T08:44:03.591Z</time></trkpt><trkpt lat="44.8992002" lon="15.1840899"><ele>475.0</ele><time>2026-05-05T08:44:04.591Z</time></trkpt><trkpt lat="44.8994876" lon="15.1839837"><ele>468.0</ele><time>2026-05-05T08:44:05.59Z</time></trkpt><trkpt lat="44.8997719" lon="15.1838621"><ele>461.0</ele><time>2026-05-05T08:44:06.591Z</time></trkpt><trkpt lat="44.9000537" lon="15.1837237"><ele>471.0</ele><time>2026-05-05T08:44:07.59Z</time></trkpt><trkpt lat="44.9003344" lon="15.1835656"><ele>481.0</ele><time>2026-05-05T08:44:08.591Z</time></trkpt><trkpt lat="44.9006101" lon="15.1833891"><ele>481.0</ele><time>2026-05-05T08:44:09.591Z</time></trkpt><trkpt lat="44.9008841" lon="15.1831978"><ele>481.0</ele><time>2026-05-05T08:44:10.591Z</time></trkpt><trkpt lat="44.9011527" lon="15.1829924"><ele>481.0</ele><time>2026-05-05T08:44:11.59Z</time></trkpt><trkpt lat="44.9014151" lon="15.1827694"><ele>481.0</ele><time>2026-05-05T08:44:12.591Z</time></trkpt><trkpt lat="44.9016712" lon="15.1825314"><ele>477.5</ele><time>2026-05-05T08:44:13.591Z</time></trkpt><trkpt lat="44.901914" lon="15.1822767"><ele>474.0</ele><time>2026-05-05T08:44:14.591Z</time></trkpt><trkpt lat="44.9021491" lon="15.1820104"><ele>474.0</ele><time>2026-05-05T08:44:15.591Z</time></trkpt><trkpt lat="44.9023729" lon="15.1817258"><ele>474.0</ele><time>2026-05-05T08:44:16.591Z</time></trkpt><trkpt lat="44.9025867" lon="15.1814306"><ele>480.5</ele><time>2026-05-05T08:44:17.59Z</time></trkpt><trkpt lat="44.9027991" lon="15.1811285"><ele>487.0</ele><time>2026-05-05T08:44:18.59Z</time></trkpt><trkpt lat="44.9030049" lon="15.1808277"><ele>494.0</ele><time>2026-05-05T08:44:19.59Z</time></trkpt><trkpt lat="44.9032091" lon="15.1805275"><ele>501.0</ele><time>2026-05-05T08:44:20.59Z</time></trkpt><trkpt lat="44.9034153" lon="15.1802326"><ele>501.0</ele><time>2026-05-05T08:44:21.59Z</time></trkpt><trkpt lat="44.9036236" lon="15.1799425"><ele>501.0</ele><time>2026-05-05T08:44:22.591Z</time></trkpt><trkpt lat="44.9038355" lon="15.1796628"><ele>500.0</ele><time>2026-05-05T08:44:23.591Z</time></trkpt><trkpt lat="44.904057" lon="15.1793947"><ele>499.0</ele><time>2026-05-05T08:44:24.59Z</time></trkpt><trkpt lat="44.904278" lon="15.1791415"><ele>489.0</ele><time>2026-05-05T08:44:25.591Z</time></trkpt><trkpt lat="44.9045027" lon="15.1789034"><ele>479.0</ele><time>2026-05-05T08:44:26.59Z</time></trkpt><trkpt lat="44.9047393" lon="15.1786731"><ele>479.0</ele><time>2026-05-05T08:44:27.591Z</time></trkpt><trkpt lat="44.904979" lon="15.1784536"><ele>479.0</ele><time>2026-05-05T08:44:28.59Z</time></trkpt><trkpt lat="44.9052257" lon="15.1782441"><ele>474.0</ele><time>2026-05-05T08:44:29.591Z</time></trkpt><trkpt lat="44.9054758" lon="15.1780466"><ele>469.0</ele><time>2026-05-05T08:44:30.591Z</time></trkpt><trkpt lat="44.9057296" lon="15.1778603"><ele>466.5</ele><time>2026-05-05T08:44:31.591Z</time></trkpt><trkpt lat="44.9059897" lon="15.1776901"><ele>464.0</ele><time>2026-05-05T08:44:32.59Z</time></trkpt><trkpt lat="44.9062528" lon="15.1775334"><ele>464.0</ele><time>2026-05-05T08:44:33.591Z</time></trkpt><trkpt lat="44.9065188" lon="15.177388"><ele>464.0</ele><time>2026-05-05T08:44:34.59Z</time></trkpt><trkpt lat="44.9067872" lon="15.1772542"><ele>456.5</ele><time>2026-05-05T08:44:35.59Z</time></trkpt><trkpt lat="44.9070565" lon="15.1771284"><ele>449.0</ele><time>2026-05-05T08:44:36.591Z</time></trkpt><trkpt lat="44.9073264" lon="15.1770077"><ele>451.0</ele><time>2026-05-05T08:44:37.59Z</time></trkpt><trkpt lat="44.9075943" lon="15.1768884"><ele>453.0</ele><time>2026-05-05T08:44:38.591Z</time></trkpt><trkpt lat="44.9078615" lon="15.17677"><ele>453.0</ele><time>2026-05-05T08:44:39.591Z</time></trkpt><trkpt lat="44.9081267" lon="15.176649"><ele>453.0</ele><time>2026-05-05T08:44:40.59Z</time></trkpt><trkpt lat="44.9083881" lon="15.1765194"><ele>454.5</ele><time>2026-05-05T08:44:41.591Z</time></trkpt><trkpt lat="44.9086448" lon="15.1763739"><ele>456.0</ele><time>2026-05-05T08:44:42.591Z</time></trkpt><trkpt lat="44.9088976" lon="15.1762144"><ele>456.0</ele><time>2026-05-05T08:44:43.59Z</time></trkpt><trkpt lat="44.9091448" lon="15.1760434"><ele>456.0</ele><time>2026-05-05T08:44:44.59Z</time></trkpt><trkpt lat="44.9093876" lon="15.1758545"><ele>457.0</ele><time>2026-05-05T08:44:45.59Z</time></trkpt><trkpt lat="44.9096268" lon="15.1756545"><ele>458.0</ele><time>2026-05-05T08:44:46.591Z</time></trkpt><trkpt lat="44.9098591" lon="15.1754451"><ele>466.5</ele><time>2026-05-05T08:44:47.591Z</time></trkpt><trkpt lat="44.9100875" lon="15.1752182"><ele>475.0</ele><time>2026-05-05T08:44:48.591Z</time></trkpt><trkpt lat="44.9103073" lon="15.1749795"><ele>473.0</ele><time>2026-05-05T08:44:49.59Z</time></trkpt><trkpt lat="44.9105215" lon="15.1747206"><ele>471.0</ele><time>2026-05-05T08:44:50.591Z</time></trkpt><trkpt lat="44.9107338" lon="15.1744432"><ele>476.0</ele><time>2026-05-05T08:44:51.591Z</time></trkpt><trkpt lat="44.9109439" lon="15.1741503"><ele>481.0</ele><time>2026-05-05T08:44:52.591Z</time></trkpt><trkpt lat="44.9111538" lon="15.1738501"><ele>481.0</ele><time>2026-05-05T08:44:53.59Z</time></trkpt><trkpt lat="44.9113658" lon="15.1735495"><ele>481.0</ele><time>2026-05-05T08:44:54.591Z</time></trkpt><trkpt lat="44.9115821" lon="15.1732542"><ele>477.0</ele><time>2026-05-05T08:44:55.59Z</time></trkpt><trkpt lat="44.9118052" lon="15.1729663"><ele>473.0</ele><time>2026-05-05T08:44:56.591Z</time></trkpt><trkpt lat="44.9120318" lon="15.1726888"><ele>473.0</ele><time>2026-05-05T08:44:57.591Z</time></trkpt><trkpt lat="44.9122692" lon="15.1724238"><ele>473.0</ele><time>2026-05-05T08:44:58.591Z</time></trkpt><trkpt lat="44.9125148" lon="15.1721736"><ele>472.0</ele><time>2026-05-05T08:44:59.591Z</time></trkpt><trkpt lat="44.9127659" lon="15.1719334"><ele>471.0</ele><time>2026-05-05T08:45:00.591Z</time></trkpt><trkpt lat="44.9130194" lon="15.1717038"><ele>469.5</ele><time>2026-05-05T08:45:01.591Z</time></trkpt><trkpt lat="44.913283" lon="15.171495"><ele>468.0</ele><time>2026-05-05T08:45:02.59Z</time></trkpt><trkpt lat="44.9135526" lon="15.1713057"><ele>474.5</ele><time>2026-05-05T08:45:03.591Z</time></trkpt><trkpt lat="44.9138269" lon="15.1711351"><ele>481.0</ele><time>2026-05-05T08:45:04.591Z</time></trkpt><trkpt lat="44.9141042" lon="15.1709816"><ele>485.0</ele><time>2026-05-05T08:45:05.591Z</time></trkpt><trkpt lat="44.9143824" lon="15.1708386"><ele>489.0</ele><time>2026-05-05T08:45:06.591Z</time></trkpt><trkpt lat="44.9146617" lon="15.1707087"><ele>493.0</ele><time>2026-05-05T08:45:07.59Z</time></trkpt><trkpt lat="44.9149416" lon="15.1705904"><ele>497.0</ele><time>2026-05-05T08:45:08.59Z</time></trkpt><trkpt lat="44.9152233" lon="15.1704817"><ele>498.0</ele><time>2026-05-05T08:45:09.591Z</time></trkpt><trkpt lat="44.9155048" lon="15.1703824"><ele>499.0</ele><time>2026-05-05T08:45:10.59Z</time></trkpt><trkpt lat="44.9157842" lon="15.1702923"><ele>496.5</ele><time>2026-05-05T08:45:11.59Z</time></trkpt><trkpt lat="44.9160648" lon="15.1702047"><ele>494.0</ele><time>2026-05-05T08:45:12.591Z</time></trkpt><trkpt lat="44.9163426" lon="15.1701164"><ele>494.0</ele><time>2026-05-05T08:45:13.59Z</time></trkpt><trkpt lat="44.9166179" lon="15.170028"><ele>494.0</ele><time>2026-05-05T08:45:14.59Z</time></trkpt><trkpt lat="44.916891" lon="15.1699279"><ele>489.5</ele><time>2026-05-05T08:45:15.591Z</time></trkpt><trkpt lat="44.9171609" lon="15.1698279"><ele>485.0</ele><time>2026-05-05T08:45:16.591Z</time></trkpt><trkpt lat="44.9174294" lon="15.1697234"><ele>484.0</ele><time>2026-05-05T08:45:17.59Z</time></trkpt><trkpt lat="44.9176953" lon="15.1696075"><ele>483.0</ele><time>2026-05-05T08:45:18.59Z</time></trkpt><trkpt lat="44.9179594" lon="15.1694822"><ele>483.0</ele><time>2026-05-05T08:45:19.591Z</time></trkpt><trkpt lat="44.9182257" lon="15.1693479"><ele>483.0</ele><time>2026-05-05T08:45:20.591Z</time></trkpt><trkpt lat="44.9184869" lon="15.1692036"><ele>482.5</ele><time>2026-05-05T08:45:21.59Z</time></trkpt><trkpt lat="44.9187428" lon="15.1690538"><ele>482.0</ele><time>2026-05-05T08:45:22.59Z</time></trkpt><trkpt lat="44.91899" lon="15.1689007"><ele>477.5</ele><time>2026-05-05T08:45:23.59Z</time></trkpt><trkpt lat="44.9192361" lon="15.1687446"><ele>473.0</ele><time>2026-05-05T08:45:24.591Z</time></trkpt><trkpt lat="44.9194767" lon="15.1685889"><ele>473.0</ele><time>2026-05-05T08:45:25.59Z</time></trkpt><trkpt lat="44.919717" lon="15.1684309"><ele>473.0</ele><time>2026-05-05T08:45:26.59Z</time></trkpt><trkpt lat="44.9199548" lon="15.1682726"><ele>470.5</ele><time>2026-05-05T08:45:27.591Z</time></trkpt><trkpt lat="44.9201845" lon="15.1681187"><ele>468.0</ele><time>2026-05-05T08:45:28.591Z</time></trkpt><trkpt lat="44.9204047" lon="15.1679773"><ele>468.0</ele><time>2026-05-05T08:45:29.59Z</time></trkpt><trkpt lat="44.9206142" lon="15.1678456"><ele>468.0</ele><time>2026-05-05T08:45:30.591Z</time></trkpt><trkpt lat="44.9208183" lon="15.1677304"><ele>468.0</ele><time>2026-05-05T08:45:31.591Z</time></trkpt><trkpt lat="44.9210176" lon="15.1676189"><ele>468.33333333333337</ele><time>2026-05-05T08:45:32.59Z</time></trkpt><trkpt lat="44.921219" lon="15.167512"><ele>468.6666666666667</ele><time>2026-05-05T08:45:33.59Z</time></trkpt><trkpt lat="44.9214263" lon="15.1674104"><ele>469.0</ele><time>2026-05-05T08:45:34.59Z</time></trkpt><trkpt lat="44.9216407" lon="15.1673159"><ele>474.5</ele><time>2026-05-05T08:45:35.59Z</time></trkpt><trkpt lat="44.9218618" lon="15.1672287"><ele>480.0</ele><time>2026-05-05T08:45:36.591Z</time></trkpt><trkpt lat="44.9220888" lon="15.167148"><ele>480.0</ele><time>2026-05-05T08:45:37.59Z</time></trkpt><trkpt lat="44.9223206" lon="15.167074"><ele>480.0</ele><time>2026-05-05T08:45:38.59Z</time></trkpt><trkpt lat="44.9225569" lon="15.1670105"><ele>480.0</ele><time>2026-05-05T08:45:39.59Z</time></trkpt><trkpt lat="44.9227952" lon="15.1669553"><ele>480.0</ele><time>2026-05-05T08:45:40.59Z</time></trkpt><trkpt lat="44.9230358" lon="15.1669061"><ele>480.0</ele><time>2026-05-05T08:45:41.591Z</time></trkpt><trkpt lat="44.9232789" lon="15.166868"><ele>480.0</ele><time>2026-05-05T08:45:42.59Z</time></trkpt><trkpt lat="44.923525" lon="15.1668441"><ele>480.5</ele><time>2026-05-05T08:45:43.591Z</time></trkpt><trkpt lat="44.9237754" lon="15.1668329"><ele>481.0</ele><time>2026-05-05T08:45:44.59Z</time></trkpt><trkpt lat="44.9240282" lon="15.1668309"><ele>479.5</ele><time>2026-05-05T08:45:45.59Z</time></trkpt><trkpt lat="44.9242844" lon="15.1668354"><ele>478.0</ele><time>2026-05-05T08:45:46.591Z</time></trkpt><trkpt lat="44.924545" lon="15.1668459"><ele>478.0</ele><time>2026-05-05T08:45:47.591Z</time></trkpt><trkpt lat="44.9248013" lon="15.1668761"><ele>478.0</ele><time>2026-05-05T08:45:48.591Z</time></trkpt><trkpt lat="44.9250519" lon="15.1669116"><ele>477.0</ele><time>2026-05-05T08:45:49.591Z</time></trkpt><trkpt lat="44.9253066" lon="15.1669697"><ele>476.0</ele><time>2026-05-05T08:45:50.591Z</time></trkpt><trkpt lat="44.9255602" lon="15.1670321"><ele>476.0</ele><time>2026-05-05T08:45:51.59Z</time></trkpt><trkpt lat="44.9258108" lon="15.1671043"><ele>476.0</ele><time>2026-05-05T08:45:52.591Z</time></trkpt><trkpt lat="44.9260616" lon="15.1671957"><ele>475.5</ele><time>2026-05-05T08:45:53.591Z</time></trkpt><trkpt lat="44.9263099" lon="15.1672952"><ele>475.0</ele><time>2026-05-05T08:45:54.591Z</time></trkpt><trkpt lat="44.9265563" lon="15.1674068"><ele>476.5</ele><time>2026-05-05T08:45:55.59Z</time></trkpt><trkpt lat="44.9267986" lon="15.1675333"><ele>478.0</ele><time>2026-05-05T08:45:56.591Z</time></trkpt><trkpt lat="44.9270386" lon="15.167664"><ele>478.0</ele><time>2026-05-05T08:45:57.591Z</time></trkpt><trkpt lat="44.9272754" lon="15.1678046"><ele>478.0</ele><time>2026-05-05T08:45:58.591Z</time></trkpt><trkpt lat="44.9275088" lon="15.1679534"><ele>476.0</ele><time>2026-05-05T08:45:59.59Z</time></trkpt><trkpt lat="44.9277378" lon="15.1681134"><ele>474.0</ele><time>2026-05-05T08:46:00.591Z</time></trkpt><trkpt lat="44.9279624" lon="15.1682865"><ele>474.0</ele><time>2026-05-05T08:46:01.59Z</time></trkpt><trkpt lat="44.9281844" lon="15.1684707"><ele>474.0</ele><time>2026-05-05T08:46:02.59Z</time></trkpt><trkpt lat="44.9284025" lon="15.1686633"><ele>474.0</ele><time>2026-05-05T08:46:03.59Z</time></trkpt><trkpt lat="44.9286222" lon="15.1688647"><ele>474.0</ele><time>2026-05-05T08:46:04.59Z</time></trkpt><trkpt lat="44.9288443" lon="15.1690727"><ele>474.5</ele><time>2026-05-05T08:46:05.59Z</time></trkpt><trkpt lat="44.9290671" lon="15.1692867"><ele>475.0</ele><time>2026-05-05T08:46:06.591Z</time></trkpt><trkpt lat="44.9292892" lon="15.1695005"><ele>475.0</ele><time>2026-05-05T08:46:07.59Z</time></trkpt><trkpt lat="44.92951" lon="15.1697144"><ele>475.0</ele><time>2026-05-05T08:46:08.59Z</time></trkpt><trkpt lat="44.9297319" lon="15.1699276"><ele>474.5</ele><time>2026-05-05T08:46:09.591Z</time></trkpt><trkpt lat="44.9299616" lon="15.1701388"><ele>474.0</ele><time>2026-05-05T08:46:10.59Z</time></trkpt><trkpt lat="44.9301952" lon="15.1703433"><ele>474.0</ele><time>2026-05-05T08:46:11.591Z</time></trkpt><trkpt lat="44.9304311" lon="15.17054"><ele>474.0</ele><time>2026-05-05T08:46:12.591Z</time></trkpt><trkpt lat="44.9306712" lon="15.1707252"><ele>470.5</ele><time>2026-05-05T08:46:13.59Z</time></trkpt><trkpt lat="44.9309132" lon="15.1709009"><ele>467.0</ele><time>2026-05-05T08:46:14.591Z</time></trkpt><trkpt lat="44.9311582" lon="15.1710635"><ele>467.0</ele><time>2026-05-05T08:46:15.591Z</time></trkpt><trkpt lat="44.9314072" lon="15.1712129"><ele>467.0</ele><time>2026-05-05T08:46:16.59Z</time></trkpt><trkpt lat="44.9316596" lon="15.1713509"><ele>467.0</ele><time>2026-05-05T08:46:17.59Z</time></trkpt><trkpt lat="44.9319157" lon="15.1714795"><ele>467.0</ele><time>2026-05-05T08:46:18.59Z</time></trkpt><trkpt lat="44.9321724" lon="15.1715933"><ele>465.5</ele><time>2026-05-05T08:46:19.59Z</time></trkpt><trkpt lat="44.9324339" lon="15.1717068"><ele>464.0</ele><time>2026-05-05T08:46:20.59Z</time></trkpt><trkpt lat="44.9326975" lon="15.17181"><ele>467.0</ele><time>2026-05-05T08:46:21.59Z</time></trkpt><trkpt lat="44.9329616" lon="15.1718892"><ele>470.0</ele><time>2026-05-05T08:46:22.59Z</time></trkpt><trkpt lat="44.9332257" lon="15.1719583"><ele>473.5</ele><time>2026-05-05T08:46:23.591Z</time></trkpt><trkpt lat="44.9334801" lon="15.1720136"><ele>477.0</ele><time>2026-05-05T08:46:24.59Z</time></trkpt><trkpt lat="44.9337416" lon="15.1720574"><ele>477.0</ele><time>2026-05-05T08:46:25.59Z</time></trkpt><trkpt lat="44.9340031" lon="15.1720873"><ele>477.0</ele><time>2026-05-05T08:46:26.59Z</time></trkpt><trkpt lat="44.9342633" lon="15.1721055"><ele>476.5</ele><time>2026-05-05T08:46:27.591Z</time></trkpt><trkpt lat="44.9345258" lon="15.1721112"><ele>476.0</ele><time>2026-05-05T08:46:28.591Z</time></trkpt><trkpt lat="44.9347899" lon="15.1721056"><ele>477.5</ele><time>2026-05-05T08:46:29.591Z</time></trkpt><trkpt lat="44.9350542" lon="15.1720898"><ele>479.0</ele><time>2026-05-05T08:46:30.591Z</time></trkpt><trkpt lat="44.9353186" lon="15.1720612"><ele>479.0</ele><time>2026-05-05T08:46:31.59Z</time></trkpt><trkpt lat="44.9355819" lon="15.1720198"><ele>479.0</ele><time>2026-05-05T08:46:32.59Z</time></trkpt><trkpt lat="44.9358433" lon="15.1719644"><ele>481.0</ele><time>2026-05-05T08:46:33.59Z</time></trkpt><trkpt lat="44.9361047" lon="15.1718984"><ele>483.0</ele><time>2026-05-05T08:46:34.59Z</time></trkpt><trkpt lat="44.9363638" lon="15.1718186"><ele>483.0</ele><time>2026-05-05T08:46:35.591Z</time></trkpt><trkpt lat="44.9366225" lon="15.1717291"><ele>483.0</ele><time>2026-05-05T08:46:36.591Z</time></trkpt><trkpt lat="44.9368794" lon="15.1716245"><ele>486.5</ele><time>2026-05-05T08:46:37.591Z</time></trkpt><trkpt lat="44.9371321" lon="15.1715128"><ele>490.0</ele><time>2026-05-05T08:46:38.591Z</time></trkpt><trkpt lat="44.9373797" lon="15.171387"><ele>489.0</ele><time>2026-05-05T08:46:39.59Z</time></trkpt><trkpt lat="44.9376237" lon="15.171254"><ele>488.0</ele><time>2026-05-05T08:46:40.59Z</time></trkpt><trkpt lat="44.9378637" lon="15.1711097"><ele>488.0</ele><time>2026-05-05T08:46:41.59Z</time></trkpt><trkpt lat="44.9380979" lon="15.1709558"><ele>488.0</ele><time>2026-05-05T08:46:42.59Z</time></trkpt><trkpt lat="44.9383292" lon="15.1707922"><ele>488.5</ele><time>2026-05-05T08:46:43.591Z</time></trkpt><trkpt lat="44.9385572" lon="15.1706185"><ele>489.0</ele><time>2026-05-05T08:46:44.59Z</time></trkpt><trkpt lat="44.9387801" lon="15.1704386"><ele>489.0</ele><time>2026-05-05T08:46:45.591Z</time></trkpt><trkpt lat="44.9389976" lon="15.1702485"><ele>489.0</ele><time>2026-05-05T08:46:46.591Z</time></trkpt><trkpt lat="44.9392112" lon="15.1700447"><ele>484.0</ele><time>2026-05-05T08:46:47.591Z</time></trkpt><trkpt lat="44.9394184" lon="15.1698373"><ele>479.0</ele><time>2026-05-05T08:46:48.59Z</time></trkpt><trkpt lat="44.9396223" lon="15.1696168"><ele>479.0</ele><time>2026-05-05T08:46:49.591Z</time></trkpt><trkpt lat="44.9398228" lon="15.1693927"><ele>479.0</ele><time>2026-05-05T08:46:50.591Z</time></trkpt><trkpt lat="44.9400176" lon="15.1691563"><ele>479.0</ele><time>2026-05-05T08:46:51.591Z</time></trkpt><trkpt lat="44.9402083" lon="15.1689134"><ele>479.0</ele><time>2026-05-05T08:46:52.591Z</time></trkpt><trkpt lat="44.9403907" lon="15.1686602"><ele>479.0</ele><time>2026-05-05T08:46:53.591Z</time></trkpt><trkpt lat="44.9405721" lon="15.168394"><ele>479.0</ele><time>2026-05-05T08:46:54.59Z</time></trkpt><trkpt lat="44.9407456" lon="15.168119"><ele>478.0</ele><time>2026-05-05T08:46:55.591Z</time></trkpt><trkpt lat="44.9409177" lon="15.1678383"><ele>477.0</ele><time>2026-05-05T08:46:56.591Z</time></trkpt><trkpt lat="44.941089" lon="15.1675661"><ele>479.0</ele><time>2026-05-05T08:46:57.59Z</time></trkpt><trkpt lat="44.9412537" lon="15.167296"><ele>481.0</ele><time>2026-05-05T08:46:58.59Z</time></trkpt><trkpt lat="44.9414193" lon="15.1670177"><ele>481.0</ele><time>2026-05-05T08:46:59.591Z</time></trkpt><trkpt lat="44.9415888" lon="15.1667435"><ele>481.0</ele><time>2026-05-05T08:47:00.59Z</time></trkpt><trkpt lat="44.9417576" lon="15.1664675"><ele>479.0</ele><time>2026-05-05T08:47:01.59Z</time></trkpt><trkpt lat="44.9419275" lon="15.1661945"><ele>477.0</ele><time>2026-05-05T08:47:02.59Z</time></trkpt><trkpt lat="44.9421041" lon="15.1659205"><ele>479.5</ele><time>2026-05-05T08:47:03.591Z</time></trkpt><trkpt lat="44.9422792" lon="15.1656572"><ele>482.0</ele><time>2026-05-05T08:47:04.59Z</time></trkpt><trkpt lat="44.9424528" lon="15.1653993"><ele>479.0</ele><time>2026-05-05T08:47:05.591Z</time></trkpt><trkpt lat="44.9426319" lon="15.165148"><ele>476.0</ele><time>2026-05-05T08:47:06.59Z</time></trkpt><trkpt lat="44.9428153" lon="15.1649033"><ele>478.0</ele><time>2026-05-05T08:47:07.591Z</time></trkpt><trkpt lat="44.9430036" lon="15.1646654"><ele>480.0</ele><time>2026-05-05T08:47:08.591Z</time></trkpt><trkpt lat="44.943191" lon="15.1644332"><ele>478.0</ele><time>2026-05-05T08:47:09.591Z</time></trkpt><trkpt lat="44.9433832" lon="15.1642071"><ele>476.0</ele><time>2026-05-05T08:47:10.591Z</time></trkpt><trkpt lat="44.9435786" lon="15.1639908"><ele>476.0</ele><time>2026-05-05T08:47:11.59Z</time></trkpt><trkpt lat="44.9437758" lon="15.163779"><ele>476.0</ele><time>2026-05-05T08:47:12.591Z</time></trkpt><trkpt lat="44.9439761" lon="15.1635653"><ele>476.0</ele><time>2026-05-05T08:47:13.591Z</time></trkpt><trkpt lat="44.9441779" lon="15.1633597"><ele>476.0</ele><time>2026-05-05T08:47:14.591Z</time></trkpt><trkpt lat="44.9443823" lon="15.1631566"><ele>473.5</ele><time>2026-05-05T08:47:15.59Z</time></trkpt><trkpt lat="44.9445878" lon="15.1629519"><ele>471.0</ele><time>2026-05-05T08:47:16.591Z</time></trkpt><trkpt lat="44.9447954" lon="15.1627496"><ele>471.0</ele><time>2026-05-05T08:47:17.591Z</time></trkpt><trkpt lat="44.9450037" lon="15.1625501"><ele>471.0</ele><time>2026-05-05T08:47:18.59Z</time></trkpt><trkpt lat="44.9452105" lon="15.1623456"><ele>472.5</ele><time>2026-05-05T08:47:19.591Z</time></trkpt><trkpt lat="44.9454145" lon="15.1621422"><ele>474.0</ele><time>2026-05-05T08:47:20.591Z</time></trkpt><trkpt lat="44.9456153" lon="15.1619312"><ele>474.0</ele><time>2026-05-05T08:47:21.59Z</time></trkpt><trkpt lat="44.9458159" lon="15.1617126"><ele>474.0</ele><time>2026-05-05T08:47:22.59Z</time></trkpt><trkpt lat="44.9460048" lon="15.1614901"><ele>472.5</ele><time>2026-05-05T08:47:23.59Z</time></trkpt><trkpt lat="44.9461911" lon="15.161254"><ele>471.0</ele><time>2026-05-05T08:47:24.591Z</time></trkpt><trkpt lat="44.9463712" lon="15.1610157"><ele>471.0</ele><time>2026-05-05T08:47:25.591Z</time></trkpt><trkpt lat="44.9465449" lon="15.160769"><ele>471.0</ele><time>2026-05-05T08:47:26.591Z</time></trkpt><trkpt lat="44.9467147" lon="15.1605183"><ele>458.5</ele><time>2026-05-05T08:47:27.59Z</time></trkpt><trkpt lat="44.9468784" lon="15.1602569"><ele>446.0</ele><time>2026-05-05T08:47:28.59Z</time></trkpt><trkpt lat="44.947039" lon="15.1599867"><ele>447.5</ele><time>2026-05-05T08:47:29.591Z</time></trkpt><trkpt lat="44.9471937" lon="15.1597016"><ele>449.0</ele><time>2026-05-05T08:47:30.591Z</time></trkpt><trkpt lat="44.9473428" lon="15.1594046"><ele>449.0</ele><time>2026-05-05T08:47:31.59Z</time></trkpt><trkpt lat="44.9474876" lon="15.1591035"><ele>449.0</ele><time>2026-05-05T08:47:32.59Z</time></trkpt><trkpt lat="44.9476279" lon="15.1587957"><ele>459.5</ele><time>2026-05-05T08:47:33.591Z</time></trkpt><trkpt lat="44.9477616" lon="15.1584785"><ele>470.0</ele><time>2026-05-05T08:47:34.591Z</time></trkpt><trkpt lat="44.947888" lon="15.1581545"><ele>470.5</ele><time>2026-05-05T08:47:35.591Z</time></trkpt><trkpt lat="44.9480073" lon="15.1578222"><ele>471.0</ele><time>2026-05-05T08:47:36.59Z</time></trkpt><trkpt lat="44.9481191" lon="15.1574797"><ele>473.5</ele><time>2026-05-05T08:47:37.59Z</time></trkpt><trkpt lat="44.9482246" lon="15.1571317"><ele>476.0</ele><time>2026-05-05T08:47:38.591Z</time></trkpt><trkpt lat="44.9483222" lon="15.1567776"><ele>480.5</ele><time>2026-05-05T08:47:39.591Z</time></trkpt><trkpt lat="44.948411" lon="15.1564208"><ele>485.0</ele><time>2026-05-05T08:47:40.59Z</time></trkpt><trkpt lat="44.9484909" lon="15.1560607"><ele>487.5</ele><time>2026-05-05T08:47:41.59Z</time></trkpt><trkpt lat="44.9485612" lon="15.1556969"><ele>490.0</ele><time>2026-05-05T08:47:42.591Z</time></trkpt><trkpt lat="44.9486227" lon="15.1553327"><ele>490.0</ele><time>2026-05-05T08:47:43.591Z</time></trkpt><trkpt lat="44.9486758" lon="15.1549651"><ele>490.0</ele><time>2026-05-05T08:47:44.59Z</time></trkpt><trkpt lat="44.9487264" lon="15.1545984"><ele>491.0</ele><time>2026-05-05T08:47:45.59Z</time></trkpt><trkpt lat="44.948769" lon="15.1542351"><ele>492.0</ele><time>2026-05-05T08:47:46.591Z</time></trkpt><trkpt lat="44.9487995" lon="15.1538657"><ele>492.5</ele><time>2026-05-05T08:47:47.591Z</time></trkpt><trkpt lat="44.948822" lon="15.1534939"><ele>493.0</ele><time>2026-05-05T08:47:48.591Z</time></trkpt><trkpt lat="44.9488347" lon="15.1531174"><ele>493.5</ele><time>2026-05-05T08:47:49.591Z</time></trkpt><trkpt lat="44.9488457" lon="15.152744"><ele>494.0</ele><time>2026-05-05T08:47:50.59Z</time></trkpt><trkpt lat="44.948854" lon="15.1523724"><ele>494.5</ele><time>2026-05-05T08:47:51.591Z</time></trkpt><trkpt lat="44.9488572" lon="15.152005"><ele>495.0</ele><time>2026-05-05T08:47:52.591Z</time></trkpt><trkpt lat="44.9488609" lon="15.151638"><ele>492.5</ele><time>2026-05-05T08:47:53.591Z</time></trkpt><trkpt lat="44.9488694" lon="15.1512692"><ele>490.0</ele><time>2026-05-05T08:47:54.59Z</time></trkpt><trkpt lat="44.9488787" lon="15.1509041"><ele>490.0</ele><time>2026-05-05T08:47:55.59Z</time></trkpt><trkpt lat="44.948892" lon="15.1505375"><ele>490.0</ele><time>2026-05-05T08:47:56.591Z</time></trkpt><trkpt lat="44.9489073" lon="15.1501748"><ele>488.5</ele><time>2026-05-05T08:47:57.591Z</time></trkpt><trkpt lat="44.948927" lon="15.1498122"><ele>487.0</ele><time>2026-05-05T08:47:58.59Z</time></trkpt><trkpt lat="44.9489502" lon="15.1494486"><ele>487.0</ele><time>2026-05-05T08:47:59.59Z</time></trkpt><trkpt lat="44.9489752" lon="15.1490933"><ele>487.0</ele><time>2026-05-05T08:48:00.591Z</time></trkpt><trkpt lat="44.9490043" lon="15.148735"><ele>485.5</ele><time>2026-05-05T08:48:01.591Z</time></trkpt><trkpt lat="44.9490396" lon="15.148384"><ele>484.0</ele><time>2026-05-05T08:48:02.59Z</time></trkpt><trkpt lat="44.9490824" lon="15.1480291"><ele>482.0</ele><time>2026-05-05T08:48:03.591Z</time></trkpt><trkpt lat="44.949128" lon="15.1476776"><ele>480.0</ele><time>2026-05-05T08:48:04.591Z</time></trkpt><trkpt lat="44.9491764" lon="15.1473282"><ele>481.5</ele><time>2026-05-05T08:48:05.591Z</time></trkpt><trkpt lat="44.9492283" lon="15.1469787"><ele>483.0</ele><time>2026-05-05T08:48:06.591Z</time></trkpt><trkpt lat="44.9492864" lon="15.1466259"><ele>482.0</ele><time>2026-05-05T08:48:07.59Z</time></trkpt><trkpt lat="44.9493538" lon="15.1462675"><ele>481.0</ele><time>2026-05-05T08:48:08.59Z</time></trkpt><trkpt lat="44.9494276" lon="15.1459033"><ele>480.0</ele><time>2026-05-05T08:48:09.59Z</time></trkpt><trkpt lat="44.9495075" lon="15.1455367"><ele>479.0</ele><time>2026-05-05T08:48:10.591Z</time></trkpt><trkpt lat="44.9495924" lon="15.1451694"><ele>479.0</ele><time>2026-05-05T08:48:11.59Z</time></trkpt><trkpt lat="44.9496836" lon="15.1448035"><ele>479.0</ele><time>2026-05-05T08:48:12.591Z</time></trkpt><trkpt lat="44.9497788" lon="15.1444386"><ele>479.0</ele><time>2026-05-05T08:48:13.59Z</time></trkpt><trkpt lat="44.9498803" lon="15.1440757"><ele>479.0</ele><time>2026-05-05T08:48:14.591Z</time></trkpt><trkpt lat="44.949987" lon="15.1437173"><ele>479.0</ele><time>2026-05-05T08:48:15.591Z</time></trkpt><trkpt lat="44.9500992" lon="15.14336"><ele>479.0</ele><time>2026-05-05T08:48:16.59Z</time></trkpt><trkpt lat="44.9502167" lon="15.143006"><ele>478.0</ele><time>2026-05-05T08:48:17.59Z</time></trkpt><trkpt lat="44.9503405" lon="15.1426573"><ele>477.0</ele><time>2026-05-05T08:48:18.59Z</time></trkpt><trkpt lat="44.9504679" lon="15.1423119"><ele>476.5</ele><time>2026-05-05T08:48:19.591Z</time></trkpt><trkpt lat="44.9505994" lon="15.141969"><ele>476.0</ele><time>2026-05-05T08:48:20.59Z</time></trkpt><trkpt lat="44.9507326" lon="15.1416329"><ele>476.0</ele><time>2026-05-05T08:48:21.591Z</time></trkpt><trkpt lat="44.950869" lon="15.1413016"><ele>476.0</ele><time>2026-05-05T08:48:22.591Z</time></trkpt><trkpt lat="44.9510051" lon="15.1409667"><ele>478.0</ele><time>2026-05-05T08:48:23.591Z</time></trkpt><trkpt lat="44.9511467" lon="15.1406415"><ele>480.0</ele><time>2026-05-05T08:48:24.59Z</time></trkpt><trkpt lat="44.9512856" lon="15.1403218"><ele>480.0</ele><time>2026-05-05T08:48:25.591Z</time></trkpt><trkpt lat="44.9514238" lon="15.1400013"><ele>480.0</ele><time>2026-05-05T08:48:26.591Z</time></trkpt><trkpt lat="44.9515606" lon="15.1396845"><ele>479.0</ele><time>2026-05-05T08:48:27.591Z</time></trkpt><trkpt lat="44.9516948" lon="15.1393693"><ele>478.0</ele><time>2026-05-05T08:48:28.591Z</time></trkpt><trkpt lat="44.9518282" lon="15.1390564"><ele>476.0</ele><time>2026-05-05T08:48:29.591Z</time></trkpt><trkpt lat="44.9519618" lon="15.1387447"><ele>474.0</ele><time>2026-05-05T08:48:30.59Z</time></trkpt><trkpt lat="44.9520943" lon="15.1384349"><ele>474.0</ele><time>2026-05-05T08:48:31.59Z</time></trkpt><trkpt lat="44.9522258" lon="15.1381271"><ele>474.0</ele><time>2026-05-05T08:48:32.591Z</time></trkpt><trkpt lat="44.9523574" lon="15.1378207"><ele>474.0</ele><time>2026-05-05T08:48:33.591Z</time></trkpt><trkpt lat="44.9524903" lon="15.1375132"><ele>474.0</ele><time>2026-05-05T08:48:34.591Z</time></trkpt><trkpt lat="44.9526227" lon="15.1372036"><ele>477.0</ele><time>2026-05-05T08:48:35.59Z</time></trkpt><trkpt lat="44.9527558" lon="15.1368918"><ele>480.0</ele><time>2026-05-05T08:48:36.591Z</time></trkpt><trkpt lat="44.9528886" lon="15.1365823"><ele>478.5</ele><time>2026-05-05T08:48:37.59Z</time></trkpt><trkpt lat="44.9530228" lon="15.1362693"><ele>477.0</ele><time>2026-05-05T08:48:38.591Z</time></trkpt><trkpt lat="44.9531552" lon="15.1359574"><ele>475.5</ele><time>2026-05-05T08:48:39.591Z</time></trkpt><trkpt lat="44.9532879" lon="15.1356452"><ele>474.0</ele><time>2026-05-05T08:48:40.591Z</time></trkpt><trkpt lat="44.9534197" lon="15.1353276"><ele>475.5</ele><time>2026-05-05T08:48:41.59Z</time></trkpt><trkpt lat="44.9535566" lon="15.1350055"><ele>477.0</ele><time>2026-05-05T08:48:42.59Z</time></trkpt><trkpt lat="44.9536966" lon="15.1346821"><ele>477.0</ele><time>2026-05-05T08:48:43.59Z</time></trkpt><trkpt lat="44.9538356" lon="15.1343505"><ele>477.0</ele><time>2026-05-05T08:48:44.59Z</time></trkpt><trkpt lat="44.9539775" lon="15.1340175"><ele>475.5</ele><time>2026-05-05T08:48:45.59Z</time></trkpt><trkpt lat="44.9541171" lon="15.1336796"><ele>474.0</ele><time>2026-05-05T08:48:46.591Z</time></trkpt><trkpt lat="44.954255" lon="15.133337"><ele>476.0</ele><time>2026-05-05T08:48:47.59Z</time></trkpt><trkpt lat="44.9543881" lon="15.1329884"><ele>478.0</ele><time>2026-05-05T08:48:48.591Z</time></trkpt><trkpt lat="44.9545188" lon="15.1326362"><ele>476.5</ele><time>2026-05-05T08:48:49.59Z</time></trkpt><trkpt lat="44.9546482" lon="15.1322872"><ele>475.0</ele><time>2026-05-05T08:48:50.59Z</time></trkpt><trkpt lat="44.9547754" lon="15.1319342"><ele>475.0</ele><time>2026-05-05T08:48:51.59Z</time></trkpt><trkpt lat="44.9548987" lon="15.1315782"><ele>475.0</ele><time>2026-05-05T08:48:52.59Z</time></trkpt><trkpt lat="44.9550167" lon="15.1312182"><ele>474.5</ele><time>2026-05-05T08:48:53.591Z</time></trkpt><trkpt lat="44.9551296" lon="15.1308556"><ele>474.0</ele><time>2026-05-05T08:48:54.59Z</time></trkpt><trkpt lat="44.955239" lon="15.1304898"><ele>474.0</ele><time>2026-05-05T08:48:55.591Z</time></trkpt><trkpt lat="44.9553438" lon="15.1301223"><ele>474.0</ele><time>2026-05-05T08:48:56.591Z</time></trkpt><trkpt lat="44.955446" lon="15.1297539"><ele>473.5</ele><time>2026-05-05T08:48:57.591Z</time></trkpt><trkpt lat="44.9555441" lon="15.1293844"><ele>473.0</ele><time>2026-05-05T08:48:58.591Z</time></trkpt><trkpt lat="44.9556363" lon="15.1290116"><ele>473.0</ele><time>2026-05-05T08:48:59.59Z</time></trkpt><trkpt lat="44.9557272" lon="15.1286392"><ele>473.0</ele><time>2026-05-05T08:49:00.59Z</time></trkpt><trkpt lat="44.9558117" lon="15.1282662"><ele>476.5</ele><time>2026-05-05T08:49:01.59Z</time></trkpt><trkpt lat="44.955889" lon="15.1278928"><ele>480.0</ele><time>2026-05-05T08:49:02.59Z</time></trkpt><trkpt lat="44.9559649" lon="15.127519"><ele>479.0</ele><time>2026-05-05T08:49:03.591Z</time></trkpt><trkpt lat="44.9560371" lon="15.1271453"><ele>478.0</ele><time>2026-05-05T08:49:04.591Z</time></trkpt><trkpt lat="44.9561055" lon="15.126773"><ele>477.5</ele><time>2026-05-05T08:49:05.591Z</time></trkpt><trkpt lat="44.9561696" lon="15.1263992"><ele>477.0</ele><time>2026-05-05T08:49:06.591Z</time></trkpt><trkpt lat="44.9562268" lon="15.1260258"><ele>476.5</ele><time>2026-05-05T08:49:07.591Z</time></trkpt><trkpt lat="44.956281" lon="15.1256506"><ele>476.0</ele><time>2026-05-05T08:49:08.59Z</time></trkpt><trkpt lat="44.9563331" lon="15.1252755"><ele>476.0</ele><time>2026-05-05T08:49:09.59Z</time></trkpt><trkpt lat="44.9563812" lon="15.1249016"><ele>476.0</ele><time>2026-05-05T08:49:10.59Z</time></trkpt><trkpt lat="44.9564279" lon="15.1245274"><ele>475.0</ele><time>2026-05-05T08:49:11.591Z</time></trkpt><trkpt lat="44.956474" lon="15.124155"><ele>474.0</ele><time>2026-05-05T08:49:12.591Z</time></trkpt><trkpt lat="44.9565191" lon="15.1237851"><ele>473.5</ele><time>2026-05-05T08:49:13.59Z</time></trkpt><trkpt lat="44.9565616" lon="15.1234155"><ele>473.0</ele><time>2026-05-05T08:49:14.591Z</time></trkpt><trkpt lat="44.9566019" lon="15.1230458"><ele>474.5</ele><time>2026-05-05T08:49:15.591Z</time></trkpt><trkpt lat="44.956642" lon="15.1226785"><ele>476.0</ele><time>2026-05-05T08:49:16.591Z</time></trkpt><trkpt lat="44.9566789" lon="15.1223093"><ele>473.0</ele><time>2026-05-05T08:49:17.591Z</time></trkpt><trkpt lat="44.9567224" lon="15.1219402"><ele>470.0</ele><time>2026-05-05T08:49:18.59Z</time></trkpt><trkpt lat="44.9567684" lon="15.1215758"><ele>471.5</ele><time>2026-05-05T08:49:19.59Z</time></trkpt><trkpt lat="44.9568149" lon="15.1212097"><ele>473.0</ele><time>2026-05-05T08:49:20.591Z</time></trkpt><trkpt lat="44.9568633" lon="15.1208432"><ele>473.5</ele><time>2026-05-05T08:49:21.591Z</time></trkpt><trkpt lat="44.9569164" lon="15.1204742"><ele>474.0</ele><time>2026-05-05T08:49:22.59Z</time></trkpt><trkpt lat="44.9569728" lon="15.1201039"><ele>475.0</ele><time>2026-05-05T08:49:23.59Z</time></trkpt><trkpt lat="44.9570308" lon="15.1197304"><ele>476.0</ele><time>2026-05-05T08:49:24.59Z</time></trkpt><trkpt lat="44.9570931" lon="15.119358"><ele>476.0</ele><time>2026-05-05T08:49:25.59Z</time></trkpt><trkpt lat="44.9571623" lon="15.118988"><ele>476.0</ele><time>2026-05-05T08:49:26.59Z</time></trkpt><trkpt lat="44.9572309" lon="15.118615"><ele>476.0</ele><time>2026-05-05T08:49:27.59Z</time></trkpt><trkpt lat="44.9572983" lon="15.1182378"><ele>476.0</ele><time>2026-05-05T08:49:28.59Z</time></trkpt><trkpt lat="44.9573682" lon="15.1178665"><ele>474.5</ele><time>2026-05-05T08:49:29.59Z</time></trkpt><trkpt lat="44.9574415" lon="15.1174955"><ele>473.0</ele><time>2026-05-05T08:49:30.59Z</time></trkpt><trkpt lat="44.9575126" lon="15.117122"><ele>470.5</ele><time>2026-05-05T08:49:31.59Z</time></trkpt><trkpt lat="44.9575855" lon="15.1167488"><ele>468.0</ele><time>2026-05-05T08:49:32.591Z</time></trkpt><trkpt lat="44.9576593" lon="15.1163754"><ele>467.0</ele><time>2026-05-05T08:49:33.59Z</time></trkpt><trkpt lat="44.9577317" lon="15.116"><ele>466.0</ele><time>2026-05-05T08:49:34.59Z</time></trkpt><trkpt lat="44.9578047" lon="15.115623"><ele>465.5</ele><time>2026-05-05T08:49:35.59Z</time></trkpt><trkpt lat="44.9578779" lon="15.1152466"><ele>465.0</ele><time>2026-05-05T08:49:36.591Z</time></trkpt><trkpt lat="44.9579488" lon="15.1148696"><ele>466.5</ele><time>2026-05-05T08:49:37.59Z</time></trkpt><trkpt lat="44.9580146" lon="15.1144898"><ele>468.0</ele><time>2026-05-05T08:49:38.591Z</time></trkpt><trkpt lat="44.9580776" lon="15.1141075"><ele>467.5</ele><time>2026-05-05T08:49:39.591Z</time></trkpt><trkpt lat="44.9581379" lon="15.113723"><ele>467.0</ele><time>2026-05-05T08:49:40.591Z</time></trkpt><trkpt lat="44.958196" lon="15.1133375"><ele>466.0</ele><time>2026-05-05T08:49:41.591Z</time></trkpt><trkpt lat="44.95825" lon="15.1129513"><ele>465.0</ele><time>2026-05-05T08:49:42.591Z</time></trkpt><trkpt lat="44.9583017" lon="15.112563"><ele>464.5</ele><time>2026-05-05T08:49:43.591Z</time></trkpt><trkpt lat="44.9583497" lon="15.1121753"><ele>464.0</ele><time>2026-05-05T08:49:44.59Z</time></trkpt><trkpt lat="44.9583952" lon="15.1117893"><ele>462.5</ele><time>2026-05-05T08:49:45.591Z</time></trkpt><trkpt lat="44.9584369" lon="15.1114047"><ele>461.0</ele><time>2026-05-05T08:49:46.59Z</time></trkpt><trkpt lat="44.9584754" lon="15.1110208"><ele>460.0</ele><time>2026-05-05T08:49:47.591Z</time></trkpt><trkpt lat="44.9585118" lon="15.1106382"><ele>459.0</ele><time>2026-05-05T08:49:48.59Z</time></trkpt><trkpt lat="44.9585444" lon="15.1102555"><ele>459.0</ele><time>2026-05-05T08:49:49.59Z</time></trkpt><trkpt lat="44.9585742" lon="15.1098735"><ele>459.0</ele><time>2026-05-05T08:49:50.59Z</time></trkpt><trkpt lat="44.9586013" lon="15.1094903"><ele>459.0</ele><time>2026-05-05T08:49:51.591Z</time></trkpt><trkpt lat="44.9586288" lon="15.1091096"><ele>459.0</ele><time>2026-05-05T08:49:52.59Z</time></trkpt><trkpt lat="44.9586548" lon="15.1087282"><ele>459.5</ele><time>2026-05-05T08:49:53.591Z</time></trkpt><trkpt lat="44.9586797" lon="15.1083472"><ele>460.0</ele><time>2026-05-05T08:49:54.591Z</time></trkpt><trkpt lat="44.9587053" lon="15.1079631"><ele>460.0</ele><time>2026-05-05T08:49:55.59Z</time></trkpt><trkpt lat="44.9587309" lon="15.1075823"><ele>460.0</ele><time>2026-05-05T08:49:56.59Z</time></trkpt><trkpt lat="44.9587592" lon="15.1071975"><ele>461.0</ele><time>2026-05-05T08:49:57.59Z</time></trkpt><trkpt lat="44.958793" lon="15.1068148"><ele>462.0</ele><time>2026-05-05T08:49:58.591Z</time></trkpt><trkpt lat="44.9588313" lon="15.1064252"><ele>462.0</ele><time>2026-05-05T08:49:59.591Z</time></trkpt><trkpt lat="44.9588755" lon="15.1060425"><ele>462.0</ele><time>2026-05-05T08:50:00.59Z</time></trkpt><trkpt lat="44.9589209" lon="15.1056627"><ele>462.0</ele><time>2026-05-05T08:50:01.59Z</time></trkpt><trkpt lat="44.9589742" lon="15.1052842"><ele>462.0</ele><time>2026-05-05T08:50:02.59Z</time></trkpt><trkpt lat="44.9590347" lon="15.1049083"><ele>464.5</ele><time>2026-05-05T08:50:03.591Z</time></trkpt><trkpt lat="44.9591006" lon="15.1045335"><ele>467.0</ele><time>2026-05-05T08:50:04.591Z</time></trkpt><trkpt lat="44.9591705" lon="15.1041618"><ele>466.0</ele><time>2026-05-05T08:50:05.591Z</time></trkpt><trkpt lat="44.9592485" lon="15.1037947"><ele>465.0</ele><time>2026-05-05T08:50:06.59Z</time></trkpt><trkpt lat="44.9593308" lon="15.1034283"><ele>464.0</ele><time>2026-05-05T08:50:07.591Z</time></trkpt><trkpt lat="44.9594159" lon="15.1030647"><ele>463.0</ele><time>2026-05-05T08:50:08.591Z</time></trkpt><trkpt lat="44.9595063" lon="15.1027068"><ele>461.5</ele><time>2026-05-05T08:50:09.59Z</time></trkpt><trkpt lat="44.9596035" lon="15.1023528"><ele>460.0</ele><time>2026-05-05T08:50:10.59Z</time></trkpt><trkpt lat="44.959708" lon="15.1020071"><ele>460.0</ele><time>2026-05-05T08:50:11.59Z</time></trkpt><trkpt lat="44.9598154" lon="15.1016648"><ele>460.0</ele><time>2026-05-05T08:50:12.59Z</time></trkpt><trkpt lat="44.9599276" lon="15.1013233"><ele>461.0</ele><time>2026-05-05T08:50:13.591Z</time></trkpt><trkpt lat="44.9600442" lon="15.1009812"><ele>462.0</ele><time>2026-05-05T08:50:14.591Z</time></trkpt><trkpt lat="44.9601659" lon="15.1006457"><ele>462.0</ele><time>2026-05-05T08:50:15.591Z</time></trkpt><trkpt lat="44.9602929" lon="15.1003158"><ele>462.0</ele><time>2026-05-05T08:50:16.591Z</time></trkpt><trkpt lat="44.9604259" lon="15.0999911"><ele>462.5</ele><time>2026-05-05T08:50:17.591Z</time></trkpt><trkpt lat="44.9605657" lon="15.0996737"><ele>463.0</ele><time>2026-05-05T08:50:18.591Z</time></trkpt><trkpt lat="44.9607071" lon="15.0993605"><ele>462.5</ele><time>2026-05-05T08:50:19.59Z</time></trkpt><trkpt lat="44.9608523" lon="15.0990446"><ele>462.0</ele><time>2026-05-05T08:50:20.591Z</time></trkpt><trkpt lat="44.9609995" lon="15.0987347"><ele>462.0</ele><time>2026-05-05T08:50:21.591Z</time></trkpt><trkpt lat="44.9611563" lon="15.0984292"><ele>462.0</ele><time>2026-05-05T08:50:22.591Z</time></trkpt><trkpt lat="44.961318" lon="15.0981281"><ele>461.5</ele><time>2026-05-05T08:50:23.591Z</time></trkpt><trkpt lat="44.9614843" lon="15.0978338"><ele>461.0</ele><time>2026-05-05T08:50:24.591Z</time></trkpt><trkpt lat="44.9616551" lon="15.0975469"><ele>461.5</ele><time>2026-05-05T08:50:25.59Z</time></trkpt><trkpt lat="44.9618276" lon="15.0972619"><ele>462.0</ele><time>2026-05-05T08:50:26.591Z</time></trkpt><trkpt lat="44.9620051" lon="15.0969836"><ele>462.0</ele><time>2026-05-05T08:50:27.59Z</time></trkpt><trkpt lat="44.9621872" lon="15.0967108"><ele>462.0</ele><time>2026-05-05T08:50:28.59Z</time></trkpt><trkpt lat="44.9623726" lon="15.0964417"><ele>464.5</ele><time>2026-05-05T08:50:29.59Z</time></trkpt><trkpt lat="44.9625638" lon="15.0961828"><ele>467.0</ele><time>2026-05-05T08:50:30.591Z</time></trkpt><trkpt lat="44.9627558" lon="15.095929"><ele>467.5</ele><time>2026-05-05T08:50:31.591Z</time></trkpt><trkpt lat="44.9629513" lon="15.0956813"><ele>468.0</ele><time>2026-05-05T08:50:32.59Z</time></trkpt><trkpt lat="44.9631526" lon="15.0954428"><ele>468.0</ele><time>2026-05-05T08:50:33.59Z</time></trkpt><trkpt lat="44.963353" lon="15.0952091"><ele>468.0</ele><time>2026-05-05T08:50:34.59Z</time></trkpt><trkpt lat="44.9635605" lon="15.0949705"><ele>468.5</ele><time>2026-05-05T08:50:35.59Z</time></trkpt><trkpt lat="44.9637666" lon="15.0947525"><ele>469.0</ele><time>2026-05-05T08:50:36.59Z</time></trkpt><trkpt lat="44.9639713" lon="15.0945378"><ele>469.0</ele><time>2026-05-05T08:50:37.59Z</time></trkpt><trkpt lat="44.9641753" lon="15.0943361"><ele>469.0</ele><time>2026-05-05T08:50:38.591Z</time></trkpt><trkpt lat="44.9643836" lon="15.094142"><ele>469.5</ele><time>2026-05-05T08:50:39.591Z</time></trkpt><trkpt lat="44.9645828" lon="15.0939633"><ele>470.0</ele><time>2026-05-05T08:50:40.59Z</time></trkpt><trkpt lat="44.9647852" lon="15.0937939"><ele>470.0</ele><time>2026-05-05T08:50:41.59Z</time></trkpt><trkpt lat="44.9649863" lon="15.0936299"><ele>470.0</ele><time>2026-05-05T08:50:42.59Z</time></trkpt><trkpt lat="44.9651801" lon="15.0934751"><ele>470.5</ele><time>2026-05-05T08:50:43.591Z</time></trkpt><trkpt lat="44.965379" lon="15.0933249"><ele>471.0</ele><time>2026-05-05T08:50:44.591Z</time></trkpt><trkpt lat="44.9655814" lon="15.093178"><ele>471.0</ele><time>2026-05-05T08:50:45.591Z</time></trkpt><trkpt lat="44.9657816" lon="15.093038"><ele>471.0</ele><time>2026-05-05T08:50:46.59Z</time></trkpt><trkpt lat="44.9659798" lon="15.0928987"><ele>471.0</ele><time>2026-05-05T08:50:47.591Z</time></trkpt><trkpt lat="44.9661828" lon="15.0927699"><ele>471.33333333333337</ele><time>2026-05-05T08:50:48.591Z</time></trkpt><trkpt lat="44.9663858" lon="15.092651"><ele>471.6666666666667</ele><time>2026-05-05T08:50:49.59Z</time></trkpt><trkpt lat="44.9665889" lon="15.0925379"><ele>472.0</ele><time>2026-05-05T08:50:50.591Z</time></trkpt><trkpt lat="44.966792" lon="15.0924251"><ele>472.33333333333337</ele><time>2026-05-05T08:50:51.591Z</time></trkpt><trkpt lat="44.9669952" lon="15.0923177"><ele>472.66666666666663</ele><time>2026-05-05T08:50:52.591Z</time></trkpt><trkpt lat="44.9672001" lon="15.0922165"><ele>473.0</ele><time>2026-05-05T08:50:53.591Z</time></trkpt><trkpt lat="44.9674067" lon="15.092122"><ele>473.66666666666663</ele><time>2026-05-05T08:50:54.59Z</time></trkpt><trkpt lat="44.9676125" lon="15.0920356"><ele>474.33333333333337</ele><time>2026-05-05T08:50:55.59Z</time></trkpt><trkpt lat="44.9678191" lon="15.0919559"><ele>475.0</ele><time>2026-05-05T08:50:56.59Z</time></trkpt><trkpt lat="44.9680256" lon="15.0918775"><ele>475.0</ele><time>2026-05-05T08:50:57.59Z</time></trkpt><trkpt lat="44.9682327" lon="15.0918034"><ele>475.0</ele><time>2026-05-05T08:50:58.59Z</time></trkpt><trkpt lat="44.9684405" lon="15.091734"><ele>475.0</ele><time>2026-05-05T08:50:59.591Z</time></trkpt><trkpt lat="44.9686522" lon="15.0916689"><ele>475.6666666666667</ele><time>2026-05-05T08:51:00.59Z</time></trkpt><trkpt lat="44.9688664" lon="15.0916084"><ele>476.33333333333337</ele><time>2026-05-05T08:51:01.59Z</time></trkpt><trkpt lat="44.9690852" lon="15.0915546"><ele>477.0</ele><time>2026-05-05T08:51:02.59Z</time></trkpt><trkpt lat="44.969302" lon="15.0915075"><ele>479.0</ele><time>2026-05-05T08:51:03.591Z</time></trkpt><trkpt lat="44.9695279" lon="15.0914588"><ele>481.0</ele><time>2026-05-05T08:51:04.59Z</time></trkpt><trkpt lat="44.9697594" lon="15.0914165"><ele>481.0</ele><time>2026-05-05T08:51:05.59Z</time></trkpt><trkpt lat="44.9699953" lon="15.0913771"><ele>481.0</ele><time>2026-05-05T08:51:06.59Z</time></trkpt><trkpt lat="44.9702308" lon="15.0913475"><ele>483.0</ele><time>2026-05-05T08:51:07.591Z</time></trkpt><trkpt lat="44.9704659" lon="15.0913262"><ele>485.0</ele><time>2026-05-05T08:51:08.591Z</time></trkpt><trkpt lat="44.9706966" lon="15.0913097"><ele>484.3333333333333</ele><time>2026-05-05T08:51:09.59Z</time></trkpt><trkpt lat="44.970923" lon="15.0912985"><ele>483.66666666666663</ele><time>2026-05-05T08:51:10.591Z</time></trkpt><trkpt lat="44.9711343" lon="15.0912937"><ele>483.0</ele><time>2026-05-05T08:51:11.591Z</time></trkpt><trkpt lat="44.9713319" lon="15.0912962"><ele>483.0</ele><time>2026-05-05T08:51:12.591Z</time></trkpt><trkpt lat="44.9715143" lon="15.0913029"><ele>483.0</ele><time>2026-05-05T08:51:13.59Z</time></trkpt><trkpt lat="44.9716873" lon="15.0913104"><ele>483.0</ele><time>2026-05-05T08:51:14.591Z</time></trkpt><trkpt lat="44.9718474" lon="15.0913036"><ele>483.25</ele><time>2026-05-05T08:51:15.59Z</time></trkpt><trkpt lat="44.971996" lon="15.0912724"><ele>483.5</ele><time>2026-05-05T08:51:16.591Z</time></trkpt><trkpt lat="44.9721398" lon="15.0912351"><ele>483.75</ele><time>2026-05-05T08:51:17.59Z</time></trkpt><trkpt lat="44.9722709" lon="15.0912064"><ele>484.0</ele><time>2026-05-05T08:51:18.59Z</time></trkpt><trkpt lat="44.9724039" lon="15.0912009"><ele>486.5</ele><time>2026-05-05T08:51:19.591Z</time></trkpt><trkpt lat="44.9725498" lon="15.0912098"><ele>489.0</ele><time>2026-05-05T08:51:20.591Z</time></trkpt><trkpt lat="44.9726958" lon="15.0912312"><ele>491.5</ele><time>2026-05-05T08:51:21.59Z</time></trkpt><trkpt lat="44.9728465" lon="15.0912522"><ele>494.0</ele><time>2026-05-05T08:51:22.591Z</time></trkpt><trkpt lat="44.9729974" lon="15.0912792"><ele>494.0</ele><time>2026-05-05T08:51:23.591Z</time></trkpt><trkpt lat="44.9731502" lon="15.0913101"><ele>494.0</ele><time>2026-05-05T08:51:24.59Z</time></trkpt><trkpt lat="44.9733049" lon="15.0913438"><ele>494.0</ele><time>2026-05-05T08:51:25.591Z</time></trkpt><trkpt lat="44.9734586" lon="15.0913777"><ele>494.66666666666663</ele><time>2026-05-05T08:51:26.591Z</time></trkpt><trkpt lat="44.9736161" lon="15.0914164"><ele>495.33333333333337</ele><time>2026-05-05T08:51:27.591Z</time></trkpt><trkpt lat="44.9737773" lon="15.0914564"><ele>496.0</ele><time>2026-05-05T08:51:28.59Z</time></trkpt><trkpt lat="44.9739405" lon="15.0914953"><ele>496.0</ele><time>2026-05-05T08:51:29.591Z</time></trkpt><trkpt lat="44.9741046" lon="15.0915362"><ele>496.0</ele><time>2026-05-05T08:51:30.591Z</time></trkpt><trkpt lat="44.9742666" lon="15.0915786"><ele>496.0</ele><time>2026-05-05T08:51:31.59Z</time></trkpt><trkpt lat="44.9744287" lon="15.0916282"><ele>501.0</ele><time>2026-05-05T08:51:32.591Z</time></trkpt><trkpt lat="44.9745885" lon="15.0916739"><ele>506.0</ele><time>2026-05-05T08:51:33.591Z</time></trkpt><trkpt lat="44.9747487" lon="15.0917257"><ele>511.0</ele><time>2026-05-05T08:51:34.59Z</time></trkpt><trkpt lat="44.9749134" lon="15.0917827"><ele>506.0</ele><time>2026-05-05T08:51:35.59Z</time></trkpt><trkpt lat="44.9884896" lon="15.0956986"><ele>505.3333333333333</ele><time>2026-05-05T08:52:50.59Z</time></trkpt><trkpt lat="44.9886436" lon="15.095761"><ele>504.66666666666663</ele><time>2026-05-05T08:52:51.59Z</time></trkpt><trkpt lat="44.9888294" lon="15.0958711"><ele>504.0</ele><time>2026-05-05T08:52:52.59Z</time></trkpt><trkpt lat="44.9889961" lon="15.095952"><ele>504.0</ele><time>2026-05-05T08:52:53.59Z</time></trkpt><trkpt lat="44.9891466" lon="15.0960564"><ele>504.0</ele><time>2026-05-05T08:52:54.591Z</time></trkpt><trkpt lat="44.9892888" lon="15.0961526"><ele>504.0</ele><time>2026-05-05T08:52:55.59Z</time></trkpt><trkpt lat="44.9894084" lon="15.0962336"><ele>503.2</ele><time>2026-05-05T08:52:56.59Z</time></trkpt><trkpt lat="44.9895156" lon="15.096309"><ele>502.4</ele><time>2026-05-05T08:52:57.59Z</time></trkpt><trkpt lat="44.9896129" lon="15.0963831"><ele>501.6</ele><time>2026-05-05T08:52:58.59Z</time></trkpt><trkpt lat="44.9896999" lon="15.0964517"><ele>500.8</ele><time>2026-05-05T08:52:59.591Z</time></trkpt><trkpt lat="44.9897772" lon="15.096531"><ele>500.0</ele><time>2026-05-05T08:53:00.591Z</time></trkpt><trkpt lat="44.9898432" lon="15.0966334"><ele>499.0</ele><time>2026-05-05T08:53:01.591Z</time></trkpt><trkpt lat="44.9899024" lon="15.0967478"><ele>498.0</ele><time>2026-05-05T08:53:02.591Z</time></trkpt><trkpt lat="44.9899544" lon="15.0968691"><ele>497.0</ele><time>2026-05-05T08:53:03.59Z</time></trkpt><trkpt lat="44.9900205" lon="15.0969925"><ele>496.0</ele><time>2026-05-05T08:53:04.59Z</time></trkpt><trkpt lat="44.9901036" lon="15.0971042"><ele>495.0</ele><time>2026-05-05T08:53:05.59Z</time></trkpt><trkpt lat="44.9902075" lon="15.097209"><ele>493.66666666666663</ele><time>2026-05-05T08:53:06.591Z</time></trkpt><trkpt lat="44.9903442" lon="15.0973261"><ele>492.3333333333333</ele><time>2026-05-05T08:53:07.59Z</time></trkpt><trkpt lat="44.9905073" lon="15.0974701"><ele>491.0</ele><time>2026-05-05T08:53:08.59Z</time></trkpt><trkpt lat="44.9906932" lon="15.0976513"><ele>484.0</ele><time>2026-05-05T08:53:09.591Z</time></trkpt><trkpt lat="44.9908947" lon="15.0978679"><ele>477.0</ele><time>2026-05-05T08:53:10.59Z</time></trkpt><trkpt lat="44.991099" lon="15.0980935"><ele>477.5</ele><time>2026-05-05T08:53:11.591Z</time></trkpt><trkpt lat="44.9913107" lon="15.0983467"><ele>478.0</ele><time>2026-05-05T08:53:12.591Z</time></trkpt><trkpt lat="44.991534" lon="15.0986389"><ele>471.0</ele><time>2026-05-05T08:53:13.59Z</time></trkpt><trkpt lat="44.9917552" lon="15.0989415"><ele>464.0</ele><time>2026-05-05T08:53:14.591Z</time></trkpt><trkpt lat="44.9919745" lon="15.0992636"><ele>464.0</ele><time>2026-05-05T08:53:15.591Z</time></trkpt><trkpt lat="44.992192" lon="15.0996087"><ele>464.0</ele><time>2026-05-05T08:53:16.591Z</time></trkpt><trkpt lat="44.992416" lon="15.0999764"><ele>461.5</ele><time>2026-05-05T08:53:17.59Z</time></trkpt><trkpt lat="44.9926336" lon="15.100356"><ele>459.0</ele><time>2026-05-05T08:53:18.591Z</time></trkpt><trkpt lat="44.9928398" lon="15.1007432"><ele>457.5</ele><time>2026-05-05T08:53:19.59Z</time></trkpt><trkpt lat="44.9930403" lon="15.1011452"><ele>456.0</ele><time>2026-05-05T08:53:20.591Z</time></trkpt><trkpt lat="44.9932361" lon="15.1015592"><ele>459.5</ele><time>2026-05-05T08:53:21.591Z</time></trkpt><trkpt lat="44.9934278" lon="15.1019772"><ele>463.0</ele><time>2026-05-05T08:53:22.591Z</time></trkpt><trkpt lat="44.9936149" lon="15.102392"><ele>460.5</ele><time>2026-05-05T08:53:23.59Z</time></trkpt><trkpt lat="44.9937924" lon="15.1028091"><ele>458.0</ele><time>2026-05-05T08:53:24.591Z</time></trkpt><trkpt lat="44.9939657" lon="15.1032261"><ele>458.5</ele><time>2026-05-05T08:53:25.59Z</time></trkpt><trkpt lat="44.9941354" lon="15.1036347"><ele>459.0</ele><time>2026-05-05T08:53:26.591Z</time></trkpt><trkpt lat="44.9943031" lon="15.1040366"><ele>457.5</ele><time>2026-05-05T08:53:27.591Z</time></trkpt><trkpt lat="44.9944695" lon="15.1044279"><ele>456.0</ele><time>2026-05-05T08:53:28.59Z</time></trkpt><trkpt lat="44.9946384" lon="15.1048112"><ele>456.0</ele><time>2026-05-05T08:53:29.591Z</time></trkpt><trkpt lat="44.9948131" lon="15.1051891"><ele>456.0</ele><time>2026-05-05T08:53:30.591Z</time></trkpt><trkpt lat="44.9949959" lon="15.1055594"><ele>456.0</ele><time>2026-05-05T08:53:31.591Z</time></trkpt><trkpt lat="44.9951829" lon="15.105914"><ele>456.0</ele><time>2026-05-05T08:53:32.591Z</time></trkpt><trkpt lat="44.9953772" lon="15.1062604"><ele>457.0</ele><time>2026-05-05T08:53:33.591Z</time></trkpt><trkpt lat="44.9955799" lon="15.1065954"><ele>458.0</ele><time>2026-05-05T08:53:34.59Z</time></trkpt><trkpt lat="44.9957862" lon="15.106924"><ele>459.0</ele><time>2026-05-05T08:53:35.59Z</time></trkpt><trkpt lat="44.9959965" lon="15.107242"><ele>460.0</ele><time>2026-05-05T08:53:36.59Z</time></trkpt><trkpt lat="44.996208" lon="15.1075516"><ele>461.0</ele><time>2026-05-05T08:53:37.591Z</time></trkpt><trkpt lat="44.9964199" lon="15.1078523"><ele>462.0</ele><time>2026-05-05T08:53:38.59Z</time></trkpt><trkpt lat="44.9966278" lon="15.1081563"><ele>461.0</ele><time>2026-05-05T08:53:39.591Z</time></trkpt><trkpt lat="44.9968371" lon="15.1084614"><ele>460.0</ele><time>2026-05-05T08:53:40.59Z</time></trkpt><trkpt lat="44.9970463" lon="15.1087638"><ele>460.0</ele><time>2026-05-05T08:53:41.591Z</time></trkpt><trkpt lat="44.9972492" lon="15.1090713"><ele>460.0</ele><time>2026-05-05T08:53:42.591Z</time></trkpt><trkpt lat="44.9974461" lon="15.1093796"><ele>463.0</ele><time>2026-05-05T08:53:43.591Z</time></trkpt><trkpt lat="44.9976381" lon="15.1096946"><ele>466.0</ele><time>2026-05-05T08:53:44.59Z</time></trkpt><trkpt lat="44.9978259" lon="15.1100263"><ele>467.5</ele><time>2026-05-05T08:53:45.591Z</time></trkpt><trkpt lat="44.9980078" lon="15.1103606"><ele>469.0</ele><time>2026-05-05T08:53:46.59Z</time></trkpt><trkpt lat="44.998183" lon="15.1107029"><ele>468.5</ele><time>2026-05-05T08:53:47.591Z</time></trkpt><trkpt lat="44.99835" lon="15.111053"><ele>468.0</ele><time>2026-05-05T08:53:48.591Z</time></trkpt><trkpt lat="44.9985104" lon="15.111408"><ele>467.0</ele><time>2026-05-05T08:53:49.591Z</time></trkpt><trkpt lat="44.9986632" lon="15.1117727"><ele>466.0</ele><time>2026-05-05T08:53:50.59Z</time></trkpt><trkpt lat="44.9988132" lon="15.1121446"><ele>466.0</ele><time>2026-05-05T08:53:51.591Z</time></trkpt><trkpt lat="44.9989641" lon="15.1125173"><ele>466.0</ele><time>2026-05-05T08:53:52.591Z</time></trkpt><trkpt lat="44.9991118" lon="15.1128903"><ele>466.0</ele><time>2026-05-05T08:53:53.59Z</time></trkpt><trkpt lat="44.9992588" lon="15.113272"><ele>466.0</ele><time>2026-05-05T08:53:54.591Z</time></trkpt><trkpt lat="44.9994022" lon="15.113654"><ele>466.0</ele><time>2026-05-05T08:53:55.59Z</time></trkpt><trkpt lat="44.9995511" lon="15.1140346"><ele>466.0</ele><time>2026-05-05T08:53:56.59Z</time></trkpt><trkpt lat="44.9997065" lon="15.1144146"><ele>466.0</ele><time>2026-05-05T08:53:57.591Z</time></trkpt><trkpt lat="44.9998661" lon="15.1147937"><ele>466.0</ele><time>2026-05-05T08:53:58.591Z</time></trkpt><trkpt lat="45.000031" lon="15.115165"><ele>466.0</ele><time>2026-05-05T08:53:59.591Z</time></trkpt><trkpt lat="45.0002057" lon="15.1155258"><ele>466.0</ele><time>2026-05-05T08:54:00.591Z</time></trkpt><trkpt lat="45.0003844" lon="15.1158799"><ele>466.5</ele><time>2026-05-05T08:54:01.59Z</time></trkpt><trkpt lat="45.0005699" lon="15.1162276"><ele>467.0</ele><time>2026-05-05T08:54:02.591Z</time></trkpt><trkpt lat="45.0007583" lon="15.1165692"><ele>467.0</ele><time>2026-05-05T08:54:03.59Z</time></trkpt><trkpt lat="45.0009538" lon="15.1169054"><ele>467.0</ele><time>2026-05-05T08:54:04.591Z</time></trkpt><trkpt lat="45.0011548" lon="15.1172325"><ele>468.0</ele><time>2026-05-05T08:54:05.591Z</time></trkpt><trkpt lat="45.0013624" lon="15.1175487"><ele>469.0</ele><time>2026-05-05T08:54:06.591Z</time></trkpt><trkpt lat="45.0015756" lon="15.1178515"><ele>469.5</ele><time>2026-05-05T08:54:07.59Z</time></trkpt><trkpt lat="45.0017901" lon="15.1181497"><ele>470.0</ele><time>2026-05-05T08:54:08.591Z</time></trkpt><trkpt lat="45.0020071" lon="15.1184447"><ele>471.0</ele><time>2026-05-05T08:54:09.59Z</time></trkpt><trkpt lat="45.0022238" lon="15.1187397"><ele>472.0</ele><time>2026-05-05T08:54:10.591Z</time></trkpt><trkpt lat="45.0024389" lon="15.1190313"><ele>474.0</ele><time>2026-05-05T08:54:11.591Z</time></trkpt><trkpt lat="45.002655" lon="15.1193187"><ele>476.0</ele><time>2026-05-05T08:54:12.59Z</time></trkpt><trkpt lat="45.0028673" lon="15.1196121"><ele>475.5</ele><time>2026-05-05T08:54:13.591Z</time></trkpt><trkpt lat="45.0030742" lon="15.11991"><ele>475.0</ele><time>2026-05-05T08:54:14.591Z</time></trkpt><trkpt lat="45.0032763" lon="15.1202168"><ele>475.5</ele><time>2026-05-05T08:54:15.59Z</time></trkpt><trkpt lat="45.0034731" lon="15.1205308"><ele>476.0</ele><time>2026-05-05T08:54:16.591Z</time></trkpt><trkpt lat="45.003664" lon="15.1208478"><ele>474.5</ele><time>2026-05-05T08:54:17.59Z</time></trkpt><trkpt lat="45.0038426" lon="15.1211753"><ele>473.0</ele><time>2026-05-05T08:54:18.591Z</time></trkpt><trkpt lat="45.0040226" lon="15.121502"><ele>471.5</ele><time>2026-05-05T08:54:19.59Z</time></trkpt><trkpt lat="45.0041944" lon="15.1218298"><ele>470.0</ele><time>2026-05-05T08:54:20.591Z</time></trkpt><trkpt lat="45.0043585" lon="15.1221631"><ele>468.5</ele><time>2026-05-05T08:54:21.59Z</time></trkpt><trkpt lat="45.0045182" lon="15.1224991"><ele>467.0</ele><time>2026-05-05T08:54:22.59Z</time></trkpt><trkpt lat="45.0046719" lon="15.1228452"><ele>467.0</ele><time>2026-05-05T08:54:23.59Z</time></trkpt><trkpt lat="45.0048185" lon="15.1231929"><ele>467.0</ele><time>2026-05-05T08:54:24.591Z</time></trkpt><trkpt lat="45.0049588" lon="15.1235461"><ele>467.0</ele><time>2026-05-05T08:54:25.59Z</time></trkpt><trkpt lat="45.0050942" lon="15.1239004"><ele>467.0</ele><time>2026-05-05T08:54:26.591Z</time></trkpt><trkpt lat="45.0052232" lon="15.1242595"><ele>471.0</ele><time>2026-05-05T08:54:27.59Z</time></trkpt><trkpt lat="45.0053467" lon="15.124625"><ele>475.0</ele><time>2026-05-05T08:54:28.59Z</time></trkpt><trkpt lat="45.0054657" lon="15.1249928"><ele>477.5</ele><time>2026-05-05T08:54:29.59Z</time></trkpt><trkpt lat="45.005582" lon="15.1253636"><ele>480.0</ele><time>2026-05-05T08:54:30.59Z</time></trkpt><trkpt lat="45.0056977" lon="15.1257405"><ele>480.0</ele><time>2026-05-05T08:54:31.591Z</time></trkpt><trkpt lat="45.0058058" lon="15.1261147"><ele>480.0</ele><time>2026-05-05T08:54:32.591Z</time></trkpt><trkpt lat="45.0059126" lon="15.1264885"><ele>480.5</ele><time>2026-05-05T08:54:33.591Z</time></trkpt><trkpt lat="45.0060163" lon="15.1268588"><ele>481.0</ele><time>2026-05-05T08:54:34.59Z</time></trkpt><trkpt lat="45.0061192" lon="15.1272296"><ele>480.0</ele><time>2026-05-05T08:54:35.59Z</time></trkpt><trkpt lat="45.0062277" lon="15.1276034"><ele>479.0</ele><time>2026-05-05T08:54:36.59Z</time></trkpt><trkpt lat="45.0063414" lon="15.1279728"><ele>478.0</ele><time>2026-05-05T08:54:37.591Z</time></trkpt><trkpt lat="45.0064626" lon="15.1283373"><ele>477.0</ele><time>2026-05-05T08:54:38.59Z</time></trkpt><trkpt lat="45.0065889" lon="15.1286919"><ele>477.5</ele><time>2026-05-05T08:54:39.59Z</time></trkpt><trkpt lat="45.0067266" lon="15.1290447"><ele>478.0</ele><time>2026-05-05T08:54:40.591Z</time></trkpt><trkpt lat="45.0068745" lon="15.1293975"><ele>478.0</ele><time>2026-05-05T08:54:41.59Z</time></trkpt><trkpt lat="45.0070364" lon="15.1297482"><ele>478.0</ele><time>2026-05-05T08:54:42.591Z</time></trkpt><trkpt lat="45.0072087" lon="15.1300977"><ele>478.0</ele><time>2026-05-05T08:54:43.59Z</time></trkpt><trkpt lat="45.0073856" lon="15.1304512"><ele>478.0</ele><time>2026-05-05T08:54:44.59Z</time></trkpt><trkpt lat="45.0075667" lon="15.1307995"><ele>478.0</ele><time>2026-05-05T08:54:45.591Z</time></trkpt><trkpt lat="45.0077537" lon="15.1311424"><ele>478.0</ele><time>2026-05-05T08:54:46.59Z</time></trkpt><trkpt lat="45.0079518" lon="15.1314765"><ele>478.5</ele><time>2026-05-05T08:54:47.591Z</time></trkpt><trkpt lat="45.0081522" lon="15.1318086"><ele>479.0</ele><time>2026-05-05T08:54:48.59Z</time></trkpt><trkpt lat="45.0083568" lon="15.1321287"><ele>482.5</ele><time>2026-05-05T08:54:49.591Z</time></trkpt><trkpt lat="45.0085696" lon="15.1324411"><ele>486.0</ele><time>2026-05-05T08:54:50.591Z</time></trkpt><trkpt lat="45.008783" lon="15.1327424"><ele>486.0</ele><time>2026-05-05T08:54:51.59Z</time></trkpt><trkpt lat="45.008998" lon="15.1330372"><ele>486.0</ele><time>2026-05-05T08:54:52.591Z</time></trkpt><trkpt lat="45.0092198" lon="15.1333197"><ele>486.5</ele><time>2026-05-05T08:54:53.591Z</time></trkpt><trkpt lat="45.0094469" lon="15.1335883"><ele>487.0</ele><time>2026-05-05T08:54:54.591Z</time></trkpt><trkpt lat="45.0096798" lon="15.133849"><ele>486.0</ele><time>2026-05-05T08:54:55.59Z</time></trkpt><trkpt lat="45.0099152" lon="15.1341035"><ele>485.0</ele><time>2026-05-05T08:54:56.59Z</time></trkpt><trkpt lat="45.0101514" lon="15.1343521"><ele>485.0</ele><time>2026-05-05T08:54:57.59Z</time></trkpt><trkpt lat="45.0103869" lon="15.1345991"><ele>485.0</ele><time>2026-05-05T08:54:58.591Z</time></trkpt><trkpt lat="45.0106178" lon="15.134852"><ele>484.5</ele><time>2026-05-05T08:54:59.59Z</time></trkpt><trkpt lat="45.0108477" lon="15.1351021"><ele>484.0</ele><time>2026-05-05T08:55:00.59Z</time></trkpt><trkpt lat="45.0110721" lon="15.1353625"><ele>484.0</ele><time>2026-05-05T08:55:01.59Z</time></trkpt><trkpt lat="45.011289" lon="15.1356335"><ele>484.0</ele><time>2026-05-05T08:55:02.591Z</time></trkpt><trkpt lat="45.0114963" lon="15.1359133"><ele>488.0</ele><time>2026-05-05T08:55:03.591Z</time></trkpt><trkpt lat="45.0116964" lon="15.1362049"><ele>492.0</ele><time>2026-05-05T08:55:04.591Z</time></trkpt><trkpt lat="45.0118902" lon="15.1365035"><ele>499.5</ele><time>2026-05-05T08:55:05.591Z</time></trkpt><trkpt lat="45.0120822" lon="15.1368034"><ele>507.0</ele><time>2026-05-05T08:55:06.59Z</time></trkpt><trkpt lat="45.012267" lon="15.1371097"><ele>514.0</ele><time>2026-05-05T08:55:07.59Z</time></trkpt><trkpt lat="45.0124435" lon="15.1374243"><ele>521.0</ele><time>2026-05-05T08:55:08.59Z</time></trkpt><trkpt lat="45.012615" lon="15.1377481"><ele>525.5</ele><time>2026-05-05T08:55:09.59Z</time></trkpt><trkpt lat="45.0127768" lon="15.13808"><ele>530.0</ele><time>2026-05-05T08:55:10.591Z</time></trkpt><trkpt lat="45.0129366" lon="15.1384182"><ele>537.0</ele><time>2026-05-05T08:55:11.59Z</time></trkpt><trkpt lat="45.0130867" lon="15.1387633"><ele>544.0</ele><time>2026-05-05T08:55:12.59Z</time></trkpt><trkpt lat="45.0132301" lon="15.1391064"><ele>537.5</ele><time>2026-05-05T08:55:13.59Z</time></trkpt><trkpt lat="45.013376" lon="15.1394519"><ele>531.0</ele><time>2026-05-05T08:55:14.59Z</time></trkpt><trkpt lat="45.0135234" lon="15.1397982"><ele>532.0</ele><time>2026-05-05T08:55:15.591Z</time></trkpt><trkpt lat="45.0136686" lon="15.1401462"><ele>533.0</ele><time>2026-05-05T08:55:16.59Z</time></trkpt><trkpt lat="45.0138116" lon="15.1404986"><ele>533.0</ele><time>2026-05-05T08:55:17.59Z</time></trkpt><trkpt lat="45.0139597" lon="15.1408484"><ele>533.0</ele><time>2026-05-05T08:55:18.591Z</time></trkpt><trkpt lat="45.0141049" lon="15.1412024"><ele>533.5</ele><time>2026-05-05T08:55:19.591Z</time></trkpt><trkpt lat="45.0142499" lon="15.1415555"><ele>534.0</ele><time>2026-05-05T08:55:20.591Z</time></trkpt><trkpt lat="45.0143918" lon="15.1419119"><ele>534.0</ele><time>2026-05-05T08:55:21.591Z</time></trkpt><trkpt lat="45.0145372" lon="15.1422651"><ele>534.0</ele><time>2026-05-05T08:55:22.59Z</time></trkpt><trkpt lat="45.0146819" lon="15.1426216"><ele>536.0</ele><time>2026-05-05T08:55:23.59Z</time></trkpt><trkpt lat="45.0148278" lon="15.1429748"><ele>538.0</ele><time>2026-05-05T08:55:24.59Z</time></trkpt><trkpt lat="45.0149727" lon="15.1433305"><ele>543.0</ele><time>2026-05-05T08:55:25.59Z</time></trkpt><trkpt lat="45.0151209" lon="15.1436819"><ele>548.0</ele><time>2026-05-05T08:55:26.591Z</time></trkpt><trkpt lat="45.0152661" lon="15.144035"><ele>552.0</ele><time>2026-05-05T08:55:27.59Z</time></trkpt><trkpt lat="45.0154112" lon="15.1443866"><ele>556.0</ele><time>2026-05-05T08:55:28.59Z</time></trkpt><trkpt lat="45.0155566" lon="15.1447367"><ele>560.5</ele><time>2026-05-05T08:55:29.591Z</time></trkpt><trkpt lat="45.0156987" lon="15.1450936"><ele>565.0</ele><time>2026-05-05T08:55:30.591Z</time></trkpt><trkpt lat="45.0158408" lon="15.1454467"><ele>571.5</ele><time>2026-05-05T08:55:31.591Z</time></trkpt><trkpt lat="45.0159877" lon="15.1458012"><ele>578.0</ele><time>2026-05-05T08:55:32.591Z</time></trkpt><trkpt lat="45.0161355" lon="15.1461542"><ele>578.0</ele><time>2026-05-05T08:55:33.59Z</time></trkpt><trkpt lat="45.0162796" lon="15.1465061"><ele>578.0</ele><time>2026-05-05T08:55:34.59Z</time></trkpt><trkpt lat="45.0164304" lon="15.1468645"><ele>578.5</ele><time>2026-05-05T08:55:35.591Z</time></trkpt><trkpt lat="45.0165727" lon="15.1472198"><ele>579.0</ele><time>2026-05-05T08:55:36.59Z</time></trkpt><trkpt lat="45.016716" lon="15.147577"><ele>571.5</ele><time>2026-05-05T08:55:37.59Z</time></trkpt><trkpt lat="45.0168596" lon="15.1479345"><ele>564.0</ele><time>2026-05-05T08:55:38.59Z</time></trkpt><trkpt lat="45.0170068" lon="15.1482897"><ele>561.0</ele><time>2026-05-05T08:55:39.591Z</time></trkpt><trkpt lat="45.0171528" lon="15.148645"><ele>558.0</ele><time>2026-05-05T08:55:40.59Z</time></trkpt><trkpt lat="45.0172992" lon="15.1489984"><ele>558.0</ele><time>2026-05-05T08:55:41.59Z</time></trkpt><trkpt lat="45.0174484" lon="15.1493517"><ele>558.0</ele><time>2026-05-05T08:55:42.59Z</time></trkpt><trkpt lat="45.0175968" lon="15.1497014"><ele>557.0</ele><time>2026-05-05T08:55:43.59Z</time></trkpt><trkpt lat="45.0177516" lon="15.1500409"><ele>556.0</ele><time>2026-05-05T08:55:44.591Z</time></trkpt><trkpt lat="45.017915" lon="15.1503737"><ele>556.0</ele><time>2026-05-05T08:55:45.591Z</time></trkpt><trkpt lat="45.0180838" lon="15.1506899"><ele>556.0</ele><time>2026-05-05T08:55:46.59Z</time></trkpt><trkpt lat="45.0182652" lon="15.1509957"><ele>563.0</ele><time>2026-05-05T08:55:47.59Z</time></trkpt><trkpt lat="45.018453" lon="15.1512915"><ele>570.0</ele><time>2026-05-05T08:55:48.59Z</time></trkpt><trkpt lat="45.0186519" lon="15.1515759"><ele>570.0</ele><time>2026-05-05T08:55:49.591Z</time></trkpt><trkpt lat="45.0188559" lon="15.1518531"><ele>570.0</ele><time>2026-05-05T08:55:50.591Z</time></trkpt><trkpt lat="45.0190672" lon="15.1521174"><ele>575.0</ele><time>2026-05-05T08:55:51.591Z</time></trkpt><trkpt lat="45.0192841" lon="15.1523731"><ele>580.0</ele><time>2026-05-05T08:55:52.591Z</time></trkpt><trkpt lat="45.0195095" lon="15.1526199"><ele>580.0</ele><time>2026-05-05T08:55:53.591Z</time></trkpt><trkpt lat="45.0197399" lon="15.1528536"><ele>580.0</ele><time>2026-05-05T08:55:54.591Z</time></trkpt><trkpt lat="45.0199778" lon="15.1530783"><ele>581.5</ele><time>2026-05-05T08:55:55.591Z</time></trkpt><trkpt lat="45.0202233" lon="15.1533004"><ele>583.0</ele><time>2026-05-05T08:55:56.59Z</time></trkpt><trkpt lat="45.0204716" lon="15.1535008"><ele>583.0</ele><time>2026-05-05T08:55:57.59Z</time></trkpt><trkpt lat="45.0207319" lon="15.1536891"><ele>583.0</ele><time>2026-05-05T08:55:58.591Z</time></trkpt><trkpt lat="45.0209931" lon="15.1538637"><ele>583.0</ele><time>2026-05-05T08:55:59.59Z</time></trkpt><trkpt lat="45.0212572" lon="15.1540273"><ele>583.0</ele><time>2026-05-05T08:56:00.59Z</time></trkpt><trkpt lat="45.0215258" lon="15.1541782"><ele>578.0</ele><time>2026-05-05T08:56:01.59Z</time></trkpt><trkpt lat="45.021791" lon="15.1543334"><ele>573.0</ele><time>2026-05-05T08:56:02.591Z</time></trkpt><trkpt lat="45.0220585" lon="15.1544902"><ele>573.0</ele><time>2026-05-05T08:56:03.591Z</time></trkpt><trkpt lat="45.0223258" lon="15.154639"><ele>573.0</ele><time>2026-05-05T08:56:04.59Z</time></trkpt><trkpt lat="45.0225889" lon="15.1547986"><ele>565.5</ele><time>2026-05-05T08:56:05.59Z</time></trkpt><trkpt lat="45.0228497" lon="15.154962"><ele>558.0</ele><time>2026-05-05T08:56:06.59Z</time></trkpt><trkpt lat="45.0231081" lon="15.1551197"><ele>557.5</ele><time>2026-05-05T08:56:07.59Z</time></trkpt><trkpt lat="45.0233642" lon="15.15528"><ele>557.0</ele><time>2026-05-05T08:56:08.59Z</time></trkpt><trkpt lat="45.0236176" lon="15.1554461"><ele>557.0</ele><time>2026-05-05T08:56:09.59Z</time></trkpt><trkpt lat="45.0238704" lon="15.1556192"><ele>557.0</ele><time>2026-05-05T08:56:10.59Z</time></trkpt><trkpt lat="45.0241218" lon="15.1558047"><ele>558.5</ele><time>2026-05-05T08:56:11.59Z</time></trkpt><trkpt lat="45.0243732" lon="15.1559952"><ele>560.0</ele><time>2026-05-05T08:56:12.591Z</time></trkpt><trkpt lat="45.0246234" lon="15.1561924"><ele>560.0</ele><time>2026-05-05T08:56:13.591Z</time></trkpt><trkpt lat="45.024875" lon="15.15639"><ele>560.0</ele><time>2026-05-05T08:56:14.591Z</time></trkpt><trkpt lat="45.0251262" lon="15.1565971"><ele>563.5</ele><time>2026-05-05T08:56:15.591Z</time></trkpt><trkpt lat="45.0253766" lon="15.1568114"><ele>567.0</ele><time>2026-05-05T08:56:16.59Z</time></trkpt><trkpt lat="45.0256254" lon="15.1570265"><ele>566.0</ele><time>2026-05-05T08:56:17.591Z</time></trkpt><trkpt lat="45.0258709" lon="15.1572576"><ele>565.0</ele><time>2026-05-05T08:56:18.59Z</time></trkpt><trkpt lat="45.0261126" lon="15.1574912"><ele>559.0</ele><time>2026-05-05T08:56:19.59Z</time></trkpt><trkpt lat="45.0263507" lon="15.1577281"><ele>553.0</ele><time>2026-05-05T08:56:20.591Z</time></trkpt><trkpt lat="45.0265832" lon="15.1579653"><ele>548.5</ele><time>2026-05-05T08:56:21.591Z</time></trkpt><trkpt lat="45.0268131" lon="15.1582096"><ele>544.0</ele><time>2026-05-05T08:56:22.591Z</time></trkpt><trkpt lat="45.0270407" lon="15.1584571"><ele>544.0</ele><time>2026-05-05T08:56:23.59Z</time></trkpt><trkpt lat="45.0272626" lon="15.1587097"><ele>544.0</ele><time>2026-05-05T08:56:24.591Z</time></trkpt><trkpt lat="45.0274809" lon="15.1589674"><ele>544.0</ele><time>2026-05-05T08:56:25.59Z</time></trkpt><trkpt lat="45.0276945" lon="15.1592314"><ele>544.0</ele><time>2026-05-05T08:56:26.59Z</time></trkpt><trkpt lat="45.0279055" lon="15.1595029"><ele>544.0</ele><time>2026-05-05T08:56:27.59Z</time></trkpt><trkpt lat="45.028116" lon="15.1597809"><ele>544.0</ele><time>2026-05-05T08:56:28.59Z</time></trkpt><trkpt lat="45.0283264" lon="15.1600564"><ele>543.5</ele><time>2026-05-05T08:56:29.591Z</time></trkpt><trkpt lat="45.0285344" lon="15.1603376"><ele>543.0</ele><time>2026-05-05T08:56:30.591Z</time></trkpt><trkpt lat="45.0287363" lon="15.1606315"><ele>543.0</ele><time>2026-05-05T08:56:31.591Z</time></trkpt><trkpt lat="45.0289356" lon="15.1609225"><ele>543.0</ele><time>2026-05-05T08:56:32.59Z</time></trkpt><trkpt lat="45.0291304" lon="15.1612258"><ele>544.0</ele><time>2026-05-05T08:56:33.59Z</time></trkpt><trkpt lat="45.0293236" lon="15.161527"><ele>545.0</ele><time>2026-05-05T08:56:34.591Z</time></trkpt><trkpt lat="45.0295126" lon="15.1618361"><ele>545.0</ele><time>2026-05-05T08:56:35.591Z</time></trkpt><trkpt lat="45.0296951" lon="15.1621473"><ele>545.0</ele><time>2026-05-05T08:56:36.591Z</time></trkpt><trkpt lat="45.0298778" lon="15.1624569"><ele>545.0</ele><time>2026-05-05T08:56:37.591Z</time></trkpt><trkpt lat="45.0300563" lon="15.1627717"><ele>545.0</ele><time>2026-05-05T08:56:38.59Z</time></trkpt><trkpt lat="45.0302292" lon="15.1630916"><ele>544.5</ele><time>2026-05-05T08:56:39.591Z</time></trkpt><trkpt lat="45.0303982" lon="15.1634168"><ele>544.0</ele><time>2026-05-05T08:56:40.59Z</time></trkpt><trkpt lat="45.0305635" lon="15.1637448"><ele>544.0</ele><time>2026-05-05T08:56:41.591Z</time></trkpt><trkpt lat="45.0307255" lon="15.1640719"><ele>544.0</ele><time>2026-05-05T08:56:42.59Z</time></trkpt><trkpt lat="45.030886" lon="15.1644054"><ele>544.0</ele><time>2026-05-05T08:56:43.59Z</time></trkpt><trkpt lat="45.0310401" lon="15.1647454"><ele>544.0</ele><time>2026-05-05T08:56:44.591Z</time></trkpt><trkpt lat="45.0311916" lon="15.1650823"><ele>545.5</ele><time>2026-05-05T08:56:45.591Z</time></trkpt><trkpt lat="45.031337" lon="15.165424"><ele>547.0</ele><time>2026-05-05T08:56:46.591Z</time></trkpt><trkpt lat="45.0314792" lon="15.1657721"><ele>547.0</ele><time>2026-05-05T08:56:47.591Z</time></trkpt><trkpt lat="45.0316162" lon="15.1661219"><ele>547.0</ele><time>2026-05-05T08:56:48.591Z</time></trkpt><trkpt lat="45.0317477" lon="15.1664731"><ele>548.0</ele><time>2026-05-05T08:56:49.59Z</time></trkpt><trkpt lat="45.0318705" lon="15.16683"><ele>549.0</ele><time>2026-05-05T08:56:50.591Z</time></trkpt><trkpt lat="45.0319989" lon="15.167182"><ele>547.5</ele><time>2026-05-05T08:56:51.59Z</time></trkpt><trkpt lat="45.0321261" lon="15.1675363"><ele>546.0</ele><time>2026-05-05T08:56:52.591Z</time></trkpt><trkpt lat="45.0322512" lon="15.1678872"><ele>546.0</ele><time>2026-05-05T08:56:53.591Z</time></trkpt><trkpt lat="45.0323749" lon="15.1682412"><ele>546.0</ele><time>2026-05-05T08:56:54.59Z</time></trkpt><trkpt lat="45.0325012" lon="15.1685967"><ele>546.0</ele><time>2026-05-05T08:56:55.591Z</time></trkpt><trkpt lat="45.0326293" lon="15.1689498"><ele>546.0</ele><time>2026-05-05T08:56:56.591Z</time></trkpt><trkpt lat="45.0327612" lon="15.1693024"><ele>546.0</ele><time>2026-05-05T08:56:57.59Z</time></trkpt><trkpt lat="45.0328938" lon="15.1696577"><ele>546.0</ele><time>2026-05-05T08:56:58.59Z</time></trkpt><trkpt lat="45.0330298" lon="15.1700084"><ele>546.5</ele><time>2026-05-05T08:56:59.591Z</time></trkpt><trkpt lat="45.0331712" lon="15.1703534"><ele>547.0</ele><time>2026-05-05T08:57:00.591Z</time></trkpt><trkpt lat="45.0333174" lon="15.1706985"><ele>547.0</ele><time>2026-05-05T08:57:01.59Z</time></trkpt><trkpt lat="45.0334715" lon="15.1710384"><ele>547.0</ele><time>2026-05-05T08:57:02.59Z</time></trkpt><trkpt lat="45.0336316" lon="15.1713753"><ele>548.0</ele><time>2026-05-05T08:57:03.59Z</time></trkpt><trkpt lat="45.0337993" lon="15.1717059"><ele>549.0</ele><time>2026-05-05T08:57:04.59Z</time></trkpt><trkpt lat="45.0339712" lon="15.1720286"><ele>550.5</ele><time>2026-05-05T08:57:05.591Z</time></trkpt><trkpt lat="45.0341467" lon="15.1723392"><ele>552.0</ele><time>2026-05-05T08:57:06.59Z</time></trkpt><trkpt lat="45.0343293" lon="15.1726432"><ele>552.0</ele><time>2026-05-05T08:57:07.59Z</time></trkpt><trkpt lat="45.0345178" lon="15.1729401"><ele>552.0</ele><time>2026-05-05T08:57:08.591Z</time></trkpt><trkpt lat="45.0347122" lon="15.173226"><ele>552.0</ele><time>2026-05-05T08:57:09.59Z</time></trkpt><trkpt lat="45.0349129" lon="15.1735062"><ele>552.0</ele><time>2026-05-05T08:57:10.591Z</time></trkpt><trkpt lat="45.0351168" lon="15.1737832"><ele>554.0</ele><time>2026-05-05T08:57:11.591Z</time></trkpt><trkpt lat="45.0353287" lon="15.1740571"><ele>556.0</ele><time>2026-05-05T08:57:12.59Z</time></trkpt><trkpt lat="45.0355439" lon="15.1743266"><ele>556.0</ele><time>2026-05-05T08:57:13.591Z</time></trkpt><trkpt lat="45.0357633" lon="15.1745905"><ele>556.0</ele><time>2026-05-05T08:57:14.59Z</time></trkpt><trkpt lat="45.0359882" lon="15.1748468"><ele>561.0</ele><time>2026-05-05T08:57:15.59Z</time></trkpt><trkpt lat="45.03622" lon="15.1750909"><ele>566.0</ele><time>2026-05-05T08:57:16.591Z</time></trkpt><trkpt lat="45.0364564" lon="15.1753255"><ele>570.0</ele><time>2026-05-05T08:57:17.59Z</time></trkpt><trkpt lat="45.0367014" lon="15.1755452"><ele>574.0</ele><time>2026-05-05T08:57:18.59Z</time></trkpt><trkpt lat="45.0369488" lon="15.1757572"><ele>574.0</ele><time>2026-05-05T08:57:19.591Z</time></trkpt><trkpt lat="45.0371988" lon="15.1759632"><ele>574.0</ele><time>2026-05-05T08:57:20.591Z</time></trkpt><trkpt lat="45.0374541" lon="15.1761607"><ele>576.0</ele><time>2026-05-05T08:57:21.591Z</time></trkpt><trkpt lat="45.0377143" lon="15.1763457"><ele>578.0</ele><time>2026-05-05T08:57:22.591Z</time></trkpt><trkpt lat="45.0379782" lon="15.1765251"><ele>578.0</ele><time>2026-05-05T08:57:23.59Z</time></trkpt><trkpt lat="45.0382436" lon="15.1766934"><ele>578.0</ele><time>2026-05-05T08:57:24.591Z</time></trkpt><trkpt lat="45.0385139" lon="15.1768522"><ele>582.0</ele><time>2026-05-05T08:57:25.591Z</time></trkpt><trkpt lat="45.0387912" lon="15.1770049"><ele>586.0</ele><time>2026-05-05T08:57:26.591Z</time></trkpt><trkpt lat="45.0390729" lon="15.1771451"><ele>585.0</ele><time>2026-05-05T08:57:27.591Z</time></trkpt><trkpt lat="45.0393555" lon="15.1772741"><ele>584.0</ele><time>2026-05-05T08:57:28.591Z</time></trkpt><trkpt lat="45.039639" lon="15.1773914"><ele>584.0</ele><time>2026-05-05T08:57:29.591Z</time></trkpt><trkpt lat="45.0399234" lon="15.1774919"><ele>584.0</ele><time>2026-05-05T08:57:30.59Z</time></trkpt><trkpt lat="45.0402152" lon="15.1775881"><ele>584.5</ele><time>2026-05-05T08:57:31.59Z</time></trkpt><trkpt lat="45.0405125" lon="15.1776718"><ele>585.0</ele><time>2026-05-05T08:57:32.59Z</time></trkpt><trkpt lat="45.0408086" lon="15.1777479"><ele>588.0</ele><time>2026-05-05T08:57:33.59Z</time></trkpt><trkpt lat="45.0411057" lon="15.1778099"><ele>591.0</ele><time>2026-05-05T08:57:34.59Z</time></trkpt><trkpt lat="45.0414053" lon="15.17786"><ele>592.5</ele><time>2026-05-05T08:57:35.59Z</time></trkpt><trkpt lat="45.0417077" lon="15.1779016"><ele>594.0</ele><time>2026-05-05T08:57:36.591Z</time></trkpt><trkpt lat="45.0420093" lon="15.1779351"><ele>594.0</ele><time>2026-05-05T08:57:37.591Z</time></trkpt><trkpt lat="45.0423141" lon="15.1779558"><ele>594.0</ele><time>2026-05-05T08:57:38.591Z</time></trkpt><trkpt lat="45.0426174" lon="15.1779698"><ele>595.0</ele><time>2026-05-05T08:57:39.59Z</time></trkpt><trkpt lat="45.0429204" lon="15.1779789"><ele>596.0</ele><time>2026-05-05T08:57:40.591Z</time></trkpt><trkpt lat="45.0432233" lon="15.1779875"><ele>597.0</ele><time>2026-05-05T08:57:41.59Z</time></trkpt><trkpt lat="45.0435262" lon="15.1779953"><ele>598.0</ele><time>2026-05-05T08:57:42.591Z</time></trkpt><trkpt lat="45.0438289" lon="15.1780053"><ele>593.5</ele><time>2026-05-05T08:57:43.591Z</time></trkpt><trkpt lat="45.04413" lon="15.1780198"><ele>589.0</ele><time>2026-05-05T08:57:44.59Z</time></trkpt><trkpt lat="45.0444296" lon="15.1780439"><ele>589.0</ele><time>2026-05-05T08:57:45.59Z</time></trkpt><trkpt lat="45.0447282" lon="15.1780778"><ele>589.0</ele><time>2026-05-05T08:57:46.59Z</time></trkpt><trkpt lat="45.0450252" lon="15.1781238"><ele>585.5</ele><time>2026-05-05T08:57:47.59Z</time></trkpt><trkpt lat="45.0453206" lon="15.1781815"><ele>582.0</ele><time>2026-05-05T08:57:48.59Z</time></trkpt><trkpt lat="45.0456162" lon="15.1782508"><ele>582.0</ele><time>2026-05-05T08:57:49.591Z</time></trkpt><trkpt lat="45.0459061" lon="15.178332"><ele>582.0</ele><time>2026-05-05T08:57:50.591Z</time></trkpt><trkpt lat="45.0461948" lon="15.1784325"><ele>582.0</ele><time>2026-05-05T08:57:51.591Z</time></trkpt><trkpt lat="45.0464795" lon="15.1785427"><ele>582.0</ele><time>2026-05-05T08:57:52.59Z</time></trkpt><trkpt lat="45.046762" lon="15.1786711"><ele>583.0</ele><time>2026-05-05T08:57:53.591Z</time></trkpt><trkpt lat="45.0470375" lon="15.1788149"><ele>584.0</ele><time>2026-05-05T08:57:54.591Z</time></trkpt><trkpt lat="45.0473145" lon="15.1789713"><ele>588.0</ele><time>2026-05-05T08:57:55.591Z</time></trkpt><trkpt lat="45.0475895" lon="15.1791397"><ele>592.0</ele><time>2026-05-05T08:57:56.59Z</time></trkpt><trkpt lat="45.0478617" lon="15.1793203"><ele>592.0</ele><time>2026-05-05T08:57:57.591Z</time></trkpt><trkpt lat="45.0481304" lon="15.1795109"><ele>592.0</ele><time>2026-05-05T08:57:58.59Z</time></trkpt><trkpt lat="45.0483953" lon="15.179718"><ele>593.5</ele><time>2026-05-05T08:57:59.591Z</time></trkpt><trkpt lat="45.0486556" lon="15.1799394"><ele>595.0</ele><time>2026-05-05T08:58:00.59Z</time></trkpt><trkpt lat="45.0489092" lon="15.1801701"><ele>594.0</ele><time>2026-05-05T08:58:01.59Z</time></trkpt><trkpt lat="45.0491586" lon="15.1804133"><ele>593.0</ele><time>2026-05-05T08:58:02.591Z</time></trkpt><trkpt lat="45.0494028" lon="15.1806728"><ele>590.0</ele><time>2026-05-05T08:58:03.59Z</time></trkpt><trkpt lat="45.0496411" lon="15.1809438"><ele>587.0</ele><time>2026-05-05T08:58:04.591Z</time></trkpt><trkpt lat="45.0498723" lon="15.1812258"><ele>583.0</ele><time>2026-05-05T08:58:05.59Z</time></trkpt><trkpt lat="45.0500985" lon="15.1815165"><ele>579.0</ele><time>2026-05-05T08:58:06.591Z</time></trkpt><trkpt lat="45.0503197" lon="15.1818202"><ele>579.0</ele><time>2026-05-05T08:58:07.591Z</time></trkpt><trkpt lat="45.0505334" lon="15.1821375"><ele>579.0</ele><time>2026-05-05T08:58:08.591Z</time></trkpt><trkpt lat="45.0507391" lon="15.1824665"><ele>581.5</ele><time>2026-05-05T08:58:09.59Z</time></trkpt><trkpt lat="45.0509358" lon="15.1828113"><ele>584.0</ele><time>2026-05-05T08:58:10.59Z</time></trkpt><trkpt lat="45.0511226" lon="15.1831665"><ele>586.0</ele><time>2026-05-05T08:58:11.59Z</time></trkpt><trkpt lat="45.0513042" lon="15.1835242"><ele>588.0</ele><time>2026-05-05T08:58:12.591Z</time></trkpt><trkpt lat="45.0514778" lon="15.183894"><ele>586.5</ele><time>2026-05-05T08:58:13.591Z</time></trkpt><trkpt lat="45.0516426" lon="15.1842696"><ele>585.0</ele><time>2026-05-05T08:58:14.591Z</time></trkpt><trkpt lat="45.0517944" lon="15.1846614"><ele>584.0</ele><time>2026-05-05T08:58:15.59Z</time></trkpt><trkpt lat="45.0519339" lon="15.1850616"><ele>583.0</ele><time>2026-05-05T08:58:16.59Z</time></trkpt><trkpt lat="45.0520675" lon="15.1854707"><ele>579.0</ele><time>2026-05-05T08:58:17.591Z</time></trkpt><trkpt lat="45.0521891" lon="15.1858809"><ele>575.0</ele><time>2026-05-05T08:58:18.591Z</time></trkpt><trkpt lat="45.0523025" lon="15.1863023"><ele>573.5</ele><time>2026-05-05T08:58:19.59Z</time></trkpt><trkpt lat="45.052408" lon="15.1867266"><ele>572.0</ele><time>2026-05-05T08:58:20.591Z</time></trkpt><trkpt lat="45.0525018" lon="15.1871574"><ele>567.5</ele><time>2026-05-05T08:58:21.59Z</time></trkpt><trkpt lat="45.0525822" lon="15.1875902"><ele>563.0</ele><time>2026-05-05T08:58:22.59Z</time></trkpt><trkpt lat="45.0526578" lon="15.1880313"><ele>563.5</ele><time>2026-05-05T08:58:23.591Z</time></trkpt><trkpt lat="45.0527182" lon="15.188473"><ele>564.0</ele><time>2026-05-05T08:58:24.591Z</time></trkpt><trkpt lat="45.0527671" lon="15.1889157"><ele>560.5</ele><time>2026-05-05T08:58:25.59Z</time></trkpt><trkpt lat="45.0528085" lon="15.1893578"><ele>557.0</ele><time>2026-05-05T08:58:26.591Z</time></trkpt><trkpt lat="45.0528346" lon="15.189806"><ele>555.0</ele><time>2026-05-05T08:58:27.591Z</time></trkpt><trkpt lat="45.0528521" lon="15.1902515"><ele>553.0</ele><time>2026-05-05T08:58:28.59Z</time></trkpt><trkpt lat="45.0528651" lon="15.1906974"><ele>550.5</ele><time>2026-05-05T08:58:29.591Z</time></trkpt><trkpt lat="45.0528726" lon="15.1911427"><ele>548.0</ele><time>2026-05-05T08:58:30.591Z</time></trkpt><trkpt lat="45.0528815" lon="15.1915857"><ele>547.5</ele><time>2026-05-05T08:58:31.59Z</time></trkpt><trkpt lat="45.0528903" lon="15.1920238"><ele>547.0</ele><time>2026-05-05T08:58:32.591Z</time></trkpt><trkpt lat="45.0529046" lon="15.1924614"><ele>546.0</ele><time>2026-05-05T08:58:33.591Z</time></trkpt><trkpt lat="45.0529272" lon="15.192896"><ele>545.0</ele><time>2026-05-05T08:58:34.591Z</time></trkpt><trkpt lat="45.0529557" lon="15.193326"><ele>543.0</ele><time>2026-05-05T08:58:35.59Z</time></trkpt><trkpt lat="45.0529978" lon="15.1937506"><ele>541.0</ele><time>2026-05-05T08:58:36.591Z</time></trkpt><trkpt lat="45.0530487" lon="15.1941736"><ele>539.5</ele><time>2026-05-05T08:58:37.59Z</time></trkpt><trkpt lat="45.0531112" lon="15.1945906"><ele>538.0</ele><time>2026-05-05T08:58:38.591Z</time></trkpt><trkpt lat="45.0531862" lon="15.1950046"><ele>536.0</ele><time>2026-05-05T08:58:39.591Z</time></trkpt><trkpt lat="45.053272" lon="15.1954161"><ele>534.0</ele><time>2026-05-05T08:58:40.591Z</time></trkpt><trkpt lat="45.0533675" lon="15.1958237"><ele>527.0</ele><time>2026-05-05T08:58:41.59Z</time></trkpt><trkpt lat="45.0534757" lon="15.1962261"><ele>520.0</ele><time>2026-05-05T08:58:42.591Z</time></trkpt><trkpt lat="45.0535935" lon="15.1966268"><ele>516.5</ele><time>2026-05-05T08:58:43.591Z</time></trkpt><trkpt lat="45.0537208" lon="15.1970196"><ele>513.0</ele><time>2026-05-05T08:58:44.591Z</time></trkpt><trkpt lat="45.0538581" lon="15.1974004"><ele>510.0</ele><time>2026-05-05T08:58:45.591Z</time></trkpt><trkpt lat="45.0540076" lon="15.1977771"><ele>507.0</ele><time>2026-05-05T08:58:46.591Z</time></trkpt><trkpt lat="45.0541646" lon="15.1981507"><ele>496.0</ele><time>2026-05-05T08:58:47.591Z</time></trkpt><trkpt lat="45.0543289" lon="15.1985117"><ele>485.0</ele><time>2026-05-05T08:58:48.59Z</time></trkpt><trkpt lat="45.0545025" lon="15.1988638"><ele>488.0</ele><time>2026-05-05T08:58:49.591Z</time></trkpt><trkpt lat="45.0546845" lon="15.1992023"><ele>491.0</ele><time>2026-05-05T08:58:50.591Z</time></trkpt><trkpt lat="45.0548785" lon="15.1995309"><ele>495.5</ele><time>2026-05-05T08:58:51.591Z</time></trkpt><trkpt lat="45.0550804" lon="15.1998423"><ele>500.0</ele><time>2026-05-05T08:58:52.59Z</time></trkpt><trkpt lat="45.0552926" lon="15.2001415"><ele>500.0</ele><time>2026-05-05T08:58:53.59Z</time></trkpt><trkpt lat="45.05551" lon="15.2004332"><ele>500.0</ele><time>2026-05-05T08:58:54.59Z</time></trkpt><trkpt lat="45.0557324" lon="15.2007148"><ele>504.0</ele><time>2026-05-05T08:58:55.591Z</time></trkpt><trkpt lat="45.0559614" lon="15.2009863"><ele>508.0</ele><time>2026-05-05T08:58:56.59Z</time></trkpt><trkpt lat="45.0561972" lon="15.2012471"><ele>508.0</ele><time>2026-05-05T08:58:57.59Z</time></trkpt><trkpt lat="45.0564384" lon="15.2014982"><ele>508.0</ele><time>2026-05-05T08:58:58.59Z</time></trkpt><trkpt lat="45.0566803" lon="15.2017473"><ele>515.0</ele><time>2026-05-05T08:58:59.591Z</time></trkpt><trkpt lat="45.0569209" lon="15.2019923"><ele>522.0</ele><time>2026-05-05T08:59:00.591Z</time></trkpt><trkpt lat="45.0571562" lon="15.2022344"><ele>522.0</ele><time>2026-05-05T08:59:01.591Z</time></trkpt><trkpt lat="45.0573967" lon="15.2024745"><ele>522.0</ele><time>2026-05-05T08:59:02.59Z</time></trkpt><trkpt lat="45.0576345" lon="15.2027152"><ele>516.5</ele><time>2026-05-05T08:59:03.59Z</time></trkpt><trkpt lat="45.0578696" lon="15.2029563"><ele>511.0</ele><time>2026-05-05T08:59:04.59Z</time></trkpt><trkpt lat="45.058104" lon="15.2031939"><ele>503.0</ele><time>2026-05-05T08:59:05.59Z</time></trkpt><trkpt lat="45.0583387" lon="15.2034258"><ele>495.0</ele><time>2026-05-05T08:59:06.591Z</time></trkpt><trkpt lat="45.0585716" lon="15.2036555"><ele>495.0</ele><time>2026-05-05T08:59:07.591Z</time></trkpt><trkpt lat="45.0588011" lon="15.203888"><ele>495.0</ele><time>2026-05-05T08:59:08.59Z</time></trkpt><trkpt lat="45.0590286" lon="15.2041215"><ele>497.0</ele><time>2026-05-05T08:59:09.59Z</time></trkpt><trkpt lat="45.0592562" lon="15.2043562"><ele>499.0</ele><time>2026-05-05T08:59:10.59Z</time></trkpt><trkpt lat="45.0594834" lon="15.2045901"><ele>499.0</ele><time>2026-05-05T08:59:11.591Z</time></trkpt><trkpt lat="45.0597132" lon="15.2048173"><ele>499.0</ele><time>2026-05-05T08:59:12.591Z</time></trkpt><trkpt lat="45.0599413" lon="15.205045"><ele>500.5</ele><time>2026-05-05T08:59:13.59Z</time></trkpt><trkpt lat="45.0601684" lon="15.2052704"><ele>502.0</ele><time>2026-05-05T08:59:14.591Z</time></trkpt><trkpt lat="45.0603957" lon="15.2054967"><ele>503.0</ele><time>2026-05-05T08:59:15.59Z</time></trkpt><trkpt lat="45.0606207" lon="15.2057232"><ele>504.0</ele><time>2026-05-05T08:59:16.591Z</time></trkpt><trkpt lat="45.0608461" lon="15.2059466"><ele>506.0</ele><time>2026-05-05T08:59:17.591Z</time></trkpt><trkpt lat="45.0610741" lon="15.2061677"><ele>508.0</ele><time>2026-05-05T08:59:18.591Z</time></trkpt><trkpt lat="45.0613099" lon="15.2063743"><ele>514.5</ele><time>2026-05-05T08:59:19.591Z</time></trkpt><trkpt lat="45.0615549" lon="15.2065664"><ele>521.0</ele><time>2026-05-05T08:59:20.591Z</time></trkpt><trkpt lat="45.0618058" lon="15.2067479"><ele>529.5</ele><time>2026-05-05T08:59:21.59Z</time></trkpt><trkpt lat="45.0620629" lon="15.2069187"><ele>538.0</ele><time>2026-05-05T08:59:22.59Z</time></trkpt><trkpt lat="45.0623265" lon="15.2070862"><ele>541.5</ele><time>2026-05-05T08:59:23.591Z</time></trkpt><trkpt lat="45.0625942" lon="15.207244"><ele>545.0</ele><time>2026-05-05T08:59:24.59Z</time></trkpt><trkpt lat="45.0628655" lon="15.2073897"><ele>545.0</ele><time>2026-05-05T08:59:25.59Z</time></trkpt><trkpt lat="45.0631437" lon="15.2075163"><ele>545.0</ele><time>2026-05-05T08:59:26.59Z</time></trkpt><trkpt lat="45.063425" lon="15.207632"><ele>543.5</ele><time>2026-05-05T08:59:27.59Z</time></trkpt><trkpt lat="45.0637112" lon="15.2077284"><ele>542.0</ele><time>2026-05-05T08:59:28.591Z</time></trkpt><trkpt lat="45.0639988" lon="15.2078125"><ele>539.5</ele><time>2026-05-05T08:59:29.59Z</time></trkpt><trkpt lat="45.0642898" lon="15.2078824"><ele>537.0</ele><time>2026-05-05T08:59:30.59Z</time></trkpt><trkpt lat="45.0645842" lon="15.2079368"><ele>537.0</ele><time>2026-05-05T08:59:31.591Z</time></trkpt><trkpt lat="45.0648793" lon="15.2079736"><ele>537.0</ele><time>2026-05-05T08:59:32.591Z</time></trkpt><trkpt lat="45.0651772" lon="15.2079987"><ele>532.0</ele><time>2026-05-05T08:59:33.59Z</time></trkpt><trkpt lat="45.0654743" lon="15.2080101"><ele>527.0</ele><time>2026-05-05T08:59:34.591Z</time></trkpt><trkpt lat="45.0657729" lon="15.2080023"><ele>531.5</ele><time>2026-05-05T08:59:35.59Z</time></trkpt><trkpt lat="45.0660742" lon="15.20798"><ele>536.0</ele><time>2026-05-05T08:59:36.591Z</time></trkpt><trkpt lat="45.066371" lon="15.207947"><ele>543.5</ele><time>2026-05-05T08:59:37.59Z</time></trkpt><trkpt lat="45.0666659" lon="15.2078982"><ele>551.0</ele><time>2026-05-05T08:59:38.591Z</time></trkpt><trkpt lat="45.0669574" lon="15.2078325"><ele>551.0</ele><time>2026-05-05T08:59:39.59Z</time></trkpt><trkpt lat="45.0672458" lon="15.2077513"><ele>551.0</ele><time>2026-05-05T08:59:40.591Z</time></trkpt><trkpt lat="45.0675346" lon="15.2076545"><ele>559.0</ele><time>2026-05-05T08:59:41.59Z</time></trkpt><trkpt lat="45.0678218" lon="15.2075445"><ele>567.0</ele><time>2026-05-05T08:59:42.591Z</time></trkpt><trkpt lat="45.068108" lon="15.2074319"><ele>567.0</ele><time>2026-05-05T08:59:43.591Z</time></trkpt><trkpt lat="45.0683947" lon="15.2073113"><ele>567.0</ele><time>2026-05-05T08:59:44.59Z</time></trkpt><trkpt lat="45.0686803" lon="15.2071891"><ele>567.0</ele><time>2026-05-05T08:59:45.591Z</time></trkpt><trkpt lat="45.0689632" lon="15.2070548"><ele>567.0</ele><time>2026-05-05T08:59:46.591Z</time></trkpt><trkpt lat="45.0692477" lon="15.2069281"><ele>570.5</ele><time>2026-05-05T08:59:47.591Z</time></trkpt><trkpt lat="45.0695274" lon="15.2067994"><ele>574.0</ele><time>2026-05-05T08:59:48.591Z</time></trkpt><trkpt lat="45.0698131" lon="15.2066723"><ele>575.5</ele><time>2026-05-05T08:59:49.59Z</time></trkpt><trkpt lat="45.0700948" lon="15.2065548"><ele>577.0</ele><time>2026-05-05T08:59:50.591Z</time></trkpt><trkpt lat="45.0703772" lon="15.2064424"><ele>577.5</ele><time>2026-05-05T08:59:51.591Z</time></trkpt><trkpt lat="45.0706586" lon="15.206335"><ele>578.0</ele><time>2026-05-05T08:59:52.59Z</time></trkpt><trkpt lat="45.0709396" lon="15.2062381"><ele>578.0</ele><time>2026-05-05T08:59:53.59Z</time></trkpt><trkpt lat="45.0712209" lon="15.2061529"><ele>578.0</ele><time>2026-05-05T08:59:54.591Z</time></trkpt><trkpt lat="45.071504" lon="15.2060744"><ele>581.0</ele><time>2026-05-05T08:59:55.59Z</time></trkpt><trkpt lat="45.0717845" lon="15.2060024"><ele>584.0</ele><time>2026-05-05T08:59:56.591Z</time></trkpt><trkpt lat="45.0720635" lon="15.2059424"><ele>584.0</ele><time>2026-05-05T08:59:57.591Z</time></trkpt><trkpt lat="45.0723436" lon="15.2058952"><ele>584.0</ele><time>2026-05-05T08:59:58.591Z</time></trkpt><trkpt lat="45.0726218" lon="15.2058546"><ele>585.0</ele><time>2026-05-05T08:59:59.59Z</time></trkpt><trkpt lat="45.072899" lon="15.2058237"><ele>586.0</ele><time>2026-05-05T09:00:00.59Z</time></trkpt><trkpt lat="45.073176" lon="15.2057987"><ele>587.0</ele><time>2026-05-05T09:00:01.59Z</time></trkpt><trkpt lat="45.0734534" lon="15.205782"><ele>588.0</ele><time>2026-05-05T09:00:02.591Z</time></trkpt><trkpt lat="45.0737271" lon="15.2057735"><ele>588.0</ele><time>2026-05-05T09:00:03.591Z</time></trkpt><trkpt lat="45.0739958" lon="15.2057715"><ele>588.0</ele><time>2026-05-05T09:00:04.59Z</time></trkpt><trkpt lat="45.0742644" lon="15.2057816"><ele>590.0</ele><time>2026-05-05T09:00:05.591Z</time></trkpt><trkpt lat="45.074532" lon="15.2058028"><ele>592.0</ele><time>2026-05-05T09:00:06.59Z</time></trkpt><trkpt lat="45.1170958" lon="15.2467447"><ele>580.5</ele><time>2026-05-05T09:03:43.59Z</time></trkpt><trkpt lat="45.1173211" lon="15.2466664"><ele>569.0</ele><time>2026-05-05T09:03:44.591Z</time></trkpt><trkpt lat="45.1175715" lon="15.2465821"><ele>565.5</ele><time>2026-05-05T09:03:45.59Z</time></trkpt><trkpt lat="45.1178249" lon="15.2464839"><ele>562.0</ele><time>2026-05-05T09:03:46.59Z</time></trkpt><trkpt lat="45.1180752" lon="15.2463823"><ele>559.5</ele><time>2026-05-05T09:03:47.59Z</time></trkpt><trkpt lat="45.1183277" lon="15.2462753"><ele>557.0</ele><time>2026-05-05T09:03:48.59Z</time></trkpt><trkpt lat="45.1185768" lon="15.2461642"><ele>557.0</ele><time>2026-05-05T09:03:49.591Z</time></trkpt><trkpt lat="45.1188234" lon="15.2460477"><ele>557.0</ele><time>2026-05-05T09:03:50.59Z</time></trkpt><trkpt lat="45.1190703" lon="15.2459219"><ele>556.0</ele><time>2026-05-05T09:03:51.591Z</time></trkpt><trkpt lat="45.1193154" lon="15.2457941"><ele>555.0</ele><time>2026-05-05T09:03:52.59Z</time></trkpt><trkpt lat="45.1195592" lon="15.2456623"><ele>554.0</ele><time>2026-05-05T09:03:53.591Z</time></trkpt><trkpt lat="45.1198023" lon="15.2455272"><ele>553.0</ele><time>2026-05-05T09:03:54.59Z</time></trkpt><trkpt lat="45.1200464" lon="15.2453878"><ele>548.5</ele><time>2026-05-05T09:03:55.591Z</time></trkpt><trkpt lat="45.1202886" lon="15.2452466"><ele>544.0</ele><time>2026-05-05T09:03:56.591Z</time></trkpt><trkpt lat="45.1205321" lon="15.2451061"><ele>544.5</ele><time>2026-05-05T09:03:57.591Z</time></trkpt><trkpt lat="45.1207751" lon="15.2449655"><ele>545.0</ele><time>2026-05-05T09:03:58.591Z</time></trkpt><trkpt lat="45.1210123" lon="15.2448156"><ele>546.0</ele><time>2026-05-05T09:03:59.59Z</time></trkpt><trkpt lat="45.121256" lon="15.2446652"><ele>547.0</ele><time>2026-05-05T09:04:00.59Z</time></trkpt><trkpt lat="45.1215037" lon="15.2445097"><ele>547.5</ele><time>2026-05-05T09:04:01.59Z</time></trkpt><trkpt lat="45.1217558" lon="15.2443578"><ele>548.0</ele><time>2026-05-05T09:04:02.59Z</time></trkpt><trkpt lat="45.1220081" lon="15.2442017"><ele>548.0</ele><time>2026-05-05T09:04:03.59Z</time></trkpt><trkpt lat="45.1222685" lon="15.2440585"><ele>548.0</ele><time>2026-05-05T09:04:04.59Z</time></trkpt><trkpt lat="45.1225295" lon="15.2439218"><ele>548.5</ele><time>2026-05-05T09:04:05.591Z</time></trkpt><trkpt lat="45.122798" lon="15.2437965"><ele>549.0</ele><time>2026-05-05T09:04:06.591Z</time></trkpt><trkpt lat="45.1230723" lon="15.2436846"><ele>545.5</ele><time>2026-05-05T09:04:07.591Z</time></trkpt><trkpt lat="45.1233533" lon="15.2435891"><ele>542.0</ele><time>2026-05-05T09:04:08.591Z</time></trkpt><trkpt lat="45.1236379" lon="15.2435052"><ele>542.0</ele><time>2026-05-05T09:04:09.591Z</time></trkpt><trkpt lat="45.1239245" lon="15.2434397"><ele>542.0</ele><time>2026-05-05T09:04:10.59Z</time></trkpt><trkpt lat="45.124213" lon="15.2433881"><ele>536.0</ele><time>2026-05-05T09:04:11.59Z</time></trkpt><trkpt lat="45.1245014" lon="15.2433574"><ele>530.0</ele><time>2026-05-05T09:04:12.59Z</time></trkpt><trkpt lat="45.1247974" lon="15.2433408"><ele>524.5</ele><time>2026-05-05T09:04:13.59Z</time></trkpt><trkpt lat="45.1251004" lon="15.2433435"><ele>519.0</ele><time>2026-05-05T09:04:14.59Z</time></trkpt><trkpt lat="45.1254076" lon="15.2433679"><ele>519.0</ele><time>2026-05-05T09:04:15.59Z</time></trkpt><trkpt lat="45.1257179" lon="15.2434115"><ele>519.0</ele><time>2026-05-05T09:04:16.591Z</time></trkpt><trkpt lat="45.1260307" lon="15.2434755"><ele>520.0</ele><time>2026-05-05T09:04:17.59Z</time></trkpt><trkpt lat="45.1263409" lon="15.2435584"><ele>521.0</ele><time>2026-05-05T09:04:18.59Z</time></trkpt><trkpt lat="45.1266494" lon="15.2436622"><ele>522.0</ele><time>2026-05-05T09:04:19.59Z</time></trkpt><trkpt lat="45.1269522" lon="15.2437839"><ele>523.0</ele><time>2026-05-05T09:04:20.59Z</time></trkpt><trkpt lat="45.1272463" lon="15.2439213"><ele>522.5</ele><time>2026-05-05T09:04:21.59Z</time></trkpt><trkpt lat="45.1275368" lon="15.2440742"><ele>522.0</ele><time>2026-05-05T09:04:22.591Z</time></trkpt><trkpt lat="45.1278232" lon="15.2442457"><ele>522.0</ele><time>2026-05-05T09:04:23.59Z</time></trkpt><trkpt lat="45.1281066" lon="15.2444348"><ele>522.0</ele><time>2026-05-05T09:04:24.591Z</time></trkpt><trkpt lat="45.1283774" lon="15.2446412"><ele>520.0</ele><time>2026-05-05T09:04:25.59Z</time></trkpt><trkpt lat="45.1286395" lon="15.2448647"><ele>518.0</ele><time>2026-05-05T09:04:26.59Z</time></trkpt><trkpt lat="45.1288897" lon="15.2451003"><ele>518.0</ele><time>2026-05-05T09:04:27.591Z</time></trkpt><trkpt lat="45.1291296" lon="15.245353"><ele>518.0</ele><time>2026-05-05T09:04:28.591Z</time></trkpt><trkpt lat="45.1293591" lon="15.245619"><ele>514.5</ele><time>2026-05-05T09:04:29.59Z</time></trkpt><trkpt lat="45.1295783" lon="15.2458937"><ele>511.0</ele><time>2026-05-05T09:04:30.59Z</time></trkpt><trkpt lat="45.1297877" lon="15.2461743"><ele>511.5</ele><time>2026-05-05T09:04:31.591Z</time></trkpt><trkpt lat="45.1299894" lon="15.2464605"><ele>512.0</ele><time>2026-05-05T09:04:32.591Z</time></trkpt><trkpt lat="45.1301826" lon="15.2467524"><ele>509.0</ele><time>2026-05-05T09:04:33.59Z</time></trkpt><trkpt lat="45.1303645" lon="15.2470548"><ele>506.0</ele><time>2026-05-05T09:04:34.59Z</time></trkpt><trkpt lat="45.1305369" lon="15.2473654"><ele>506.5</ele><time>2026-05-05T09:04:35.591Z</time></trkpt><trkpt lat="45.1307014" lon="15.2476797"><ele>507.0</ele><time>2026-05-05T09:04:36.591Z</time></trkpt><trkpt lat="45.1308586" lon="15.2480104"><ele>506.5</ele><time>2026-05-05T09:04:37.59Z</time></trkpt><trkpt lat="45.1310083" lon="15.2483466"><ele>506.0</ele><time>2026-05-05T09:04:38.59Z</time></trkpt><trkpt lat="45.1311495" lon="15.2486879"><ele>509.0</ele><time>2026-05-05T09:04:39.591Z</time></trkpt><trkpt lat="45.1312802" lon="15.2490365"><ele>512.0</ele><time>2026-05-05T09:04:40.59Z</time></trkpt><trkpt lat="45.1314042" lon="15.2494002"><ele>512.0</ele><time>2026-05-05T09:04:41.59Z</time></trkpt><trkpt lat="45.1315219" lon="15.249772"><ele>512.0</ele><time>2026-05-05T09:04:42.591Z</time></trkpt><trkpt lat="45.1316303" lon="15.250148"><ele>516.0</ele><time>2026-05-05T09:04:43.591Z</time></trkpt><trkpt lat="45.1317328" lon="15.2505296"><ele>520.0</ele><time>2026-05-05T09:04:44.591Z</time></trkpt><trkpt lat="45.1318402" lon="15.2509128"><ele>520.0</ele><time>2026-05-05T09:04:45.59Z</time></trkpt><trkpt lat="45.1319407" lon="15.251291"><ele>520.0</ele><time>2026-05-05T09:04:46.59Z</time></trkpt><trkpt lat="45.1320385" lon="15.2516735"><ele>520.0</ele><time>2026-05-05T09:04:47.59Z</time></trkpt><trkpt lat="45.1321376" lon="15.2520552"><ele>520.0</ele><time>2026-05-05T09:04:48.591Z</time></trkpt><trkpt lat="45.1322342" lon="15.2524363"><ele>517.5</ele><time>2026-05-05T09:04:49.591Z</time></trkpt><trkpt lat="45.1323366" lon="15.2528174"><ele>515.0</ele><time>2026-05-05T09:04:50.59Z</time></trkpt><trkpt lat="45.1324365" lon="15.2531926"><ele>515.0</ele><time>2026-05-05T09:04:51.591Z</time></trkpt><trkpt lat="45.1325407" lon="15.2535686"><ele>515.0</ele><time>2026-05-05T09:04:52.59Z</time></trkpt><trkpt lat="45.1326486" lon="15.2539385"><ele>511.0</ele><time>2026-05-05T09:04:53.59Z</time></trkpt><trkpt lat="45.1327623" lon="15.254312"><ele>507.0</ele><time>2026-05-05T09:04:54.591Z</time></trkpt><trkpt lat="45.1328807" lon="15.2546723"><ele>504.0</ele><time>2026-05-05T09:04:55.591Z</time></trkpt><trkpt lat="45.1330129" lon="15.2550321"><ele>501.0</ele><time>2026-05-05T09:04:56.59Z</time></trkpt><trkpt lat="45.1331367" lon="15.2553838"><ele>497.0</ele><time>2026-05-05T09:04:57.59Z</time></trkpt><trkpt lat="45.1332898" lon="15.2557267"><ele>493.0</ele><time>2026-05-05T09:04:58.59Z</time></trkpt><trkpt lat="45.1334474" lon="15.2560686"><ele>493.0</ele><time>2026-05-05T09:04:59.591Z</time></trkpt><trkpt lat="45.1336084" lon="15.2563996"><ele>493.0</ele><time>2026-05-05T09:05:00.59Z</time></trkpt><trkpt lat="45.1337819" lon="15.2567262"><ele>488.0</ele><time>2026-05-05T09:05:01.591Z</time></trkpt><trkpt lat="45.1339616" lon="15.2570389"><ele>483.0</ele><time>2026-05-05T09:05:02.59Z</time></trkpt><trkpt lat="45.1341497" lon="15.257346"><ele>476.5</ele><time>2026-05-05T09:05:03.59Z</time></trkpt><trkpt lat="45.1343488" lon="15.2576448"><ele>470.0</ele><time>2026-05-05T09:05:04.591Z</time></trkpt><trkpt lat="45.1345548" lon="15.2579343"><ele>467.5</ele><time>2026-05-05T09:05:05.591Z</time></trkpt><trkpt lat="45.1347635" lon="15.2582153"><ele>465.0</ele><time>2026-05-05T09:05:06.59Z</time></trkpt><trkpt lat="45.1349767" lon="15.2584861"><ele>470.5</ele><time>2026-05-05T09:05:07.59Z</time></trkpt><trkpt lat="45.1351978" lon="15.2587424"><ele>476.0</ele><time>2026-05-05T09:05:08.59Z</time></trkpt><trkpt lat="45.1354279" lon="15.2589921"><ele>476.0</ele><time>2026-05-05T09:05:09.59Z</time></trkpt><trkpt lat="45.1356639" lon="15.2592349"><ele>476.0</ele><time>2026-05-05T09:05:10.59Z</time></trkpt><trkpt lat="45.1359012" lon="15.2594757"><ele>479.5</ele><time>2026-05-05T09:05:11.591Z</time></trkpt><trkpt lat="45.1361419" lon="15.2597153"><ele>483.0</ele><time>2026-05-05T09:05:12.59Z</time></trkpt><trkpt lat="45.136379" lon="15.2599597"><ele>466.5</ele><time>2026-05-05T09:05:13.59Z</time></trkpt><trkpt lat="45.1366113" lon="15.2602047"><ele>450.0</ele><time>2026-05-05T09:05:14.59Z</time></trkpt><trkpt lat="45.1368399" lon="15.2604513"><ele>444.0</ele><time>2026-05-05T09:05:15.59Z</time></trkpt><trkpt lat="45.1370652" lon="15.2607079"><ele>438.0</ele><time>2026-05-05T09:05:16.59Z</time></trkpt><trkpt lat="45.1372817" lon="15.2609713"><ele>443.5</ele><time>2026-05-05T09:05:17.591Z</time></trkpt><trkpt lat="45.1374862" lon="15.2612412"><ele>449.0</ele><time>2026-05-05T09:05:18.59Z</time></trkpt><trkpt lat="45.1376856" lon="15.2615289"><ele>449.0</ele><time>2026-05-05T09:05:19.59Z</time></trkpt><trkpt lat="45.1378779" lon="15.2618179"><ele>449.0</ele><time>2026-05-05T09:05:20.59Z</time></trkpt><trkpt lat="45.1380611" lon="15.2621145"><ele>451.0</ele><time>2026-05-05T09:05:21.591Z</time></trkpt><trkpt lat="45.138239" lon="15.2624157"><ele>453.0</ele><time>2026-05-05T09:05:22.59Z</time></trkpt><trkpt lat="45.1384077" lon="15.2627284"><ele>453.0</ele><time>2026-05-05T09:05:23.591Z</time></trkpt><trkpt lat="45.1385687" lon="15.2630472"><ele>453.0</ele><time>2026-05-05T09:05:24.591Z</time></trkpt><trkpt lat="45.1387221" lon="15.2633742"><ele>446.0</ele><time>2026-05-05T09:05:25.59Z</time></trkpt><trkpt lat="45.1388652" lon="15.2637077"><ele>439.0</ele><time>2026-05-05T09:05:26.591Z</time></trkpt><trkpt lat="45.1389999" lon="15.2640457"><ele>428.0</ele><time>2026-05-05T09:05:27.591Z</time></trkpt><trkpt lat="45.1391329" lon="15.2643948"><ele>417.0</ele><time>2026-05-05T09:05:28.591Z</time></trkpt><trkpt lat="45.1392512" lon="15.2647471"><ele>416.0</ele><time>2026-05-05T09:05:29.591Z</time></trkpt><trkpt lat="45.1393628" lon="15.2651034"><ele>415.0</ele><time>2026-05-05T09:05:30.591Z</time></trkpt><trkpt lat="45.1394697" lon="15.2654662"><ele>411.5</ele><time>2026-05-05T09:05:31.591Z</time></trkpt><trkpt lat="45.1395733" lon="15.2658288"><ele>408.0</ele><time>2026-05-05T09:05:32.59Z</time></trkpt><trkpt lat="45.1396748" lon="15.2661913"><ele>406.5</ele><time>2026-05-05T09:05:33.591Z</time></trkpt><trkpt lat="45.1397779" lon="15.2665535"><ele>405.0</ele><time>2026-05-05T09:05:34.59Z</time></trkpt><trkpt lat="45.1398823" lon="15.2669128"><ele>408.5</ele><time>2026-05-05T09:05:35.591Z</time></trkpt><trkpt lat="45.1399953" lon="15.2672711"><ele>412.0</ele><time>2026-05-05T09:05:36.591Z</time></trkpt><trkpt lat="45.140116" lon="15.2676181"><ele>412.5</ele><time>2026-05-05T09:05:37.591Z</time></trkpt><trkpt lat="45.1402418" lon="15.2679572"><ele>413.0</ele><time>2026-05-05T09:05:38.591Z</time></trkpt><trkpt lat="45.1403841" lon="15.2682926"><ele>411.5</ele><time>2026-05-05T09:05:39.591Z</time></trkpt><trkpt lat="45.1405364" lon="15.2686233"><ele>410.0</ele><time>2026-05-05T09:05:40.59Z</time></trkpt><trkpt lat="45.1406959" lon="15.2689518"><ele>413.5</ele><time>2026-05-05T09:05:41.59Z</time></trkpt><trkpt lat="45.1408632" lon="15.2692783"><ele>417.0</ele><time>2026-05-05T09:05:42.591Z</time></trkpt><trkpt lat="45.1410373" lon="15.2696054"><ele>410.5</ele><time>2026-05-05T09:05:43.591Z</time></trkpt><trkpt lat="45.1412193" lon="15.2699213"><ele>404.0</ele><time>2026-05-05T09:05:44.591Z</time></trkpt><trkpt lat="45.1414092" lon="15.2702308"><ele>405.0</ele><time>2026-05-05T09:05:45.591Z</time></trkpt><trkpt lat="45.141611" lon="15.2705293"><ele>406.0</ele><time>2026-05-05T09:05:46.59Z</time></trkpt><trkpt lat="45.1418174" lon="15.2708244"><ele>406.0</ele><time>2026-05-05T09:05:47.59Z</time></trkpt><trkpt lat="45.142036" lon="15.271103"><ele>406.0</ele><time>2026-05-05T09:05:48.59Z</time></trkpt><trkpt lat="45.1422581" lon="15.2713762"><ele>406.5</ele><time>2026-05-05T09:05:49.591Z</time></trkpt><trkpt lat="45.1424872" lon="15.2716367"><ele>407.0</ele><time>2026-05-05T09:05:50.59Z</time></trkpt><trkpt lat="45.1427225" lon="15.2718833"><ele>407.0</ele><time>2026-05-05T09:05:51.59Z</time></trkpt><trkpt lat="45.1429628" lon="15.27212"><ele>407.0</ele><time>2026-05-05T09:05:52.591Z</time></trkpt><trkpt lat="45.1432098" lon="15.2723371"><ele>409.0</ele><time>2026-05-05T09:05:53.59Z</time></trkpt><trkpt lat="45.1434606" lon="15.2725461"><ele>411.0</ele><time>2026-05-05T09:05:54.59Z</time></trkpt><trkpt lat="45.1437138" lon="15.2727389"><ele>411.0</ele><time>2026-05-05T09:05:55.59Z</time></trkpt><trkpt lat="45.1439715" lon="15.2729165"><ele>411.0</ele><time>2026-05-05T09:05:56.591Z</time></trkpt><trkpt lat="45.1442346" lon="15.2730834"><ele>424.0</ele><time>2026-05-05T09:05:57.59Z</time></trkpt><trkpt lat="45.1445017" lon="15.2732392"><ele>437.0</ele><time>2026-05-05T09:05:58.591Z</time></trkpt><trkpt lat="45.1447711" lon="15.2733819"><ele>439.5</ele><time>2026-05-05T09:05:59.591Z</time></trkpt><trkpt lat="45.1450394" lon="15.2735137"><ele>442.0</ele><time>2026-05-05T09:06:00.59Z</time></trkpt><trkpt lat="45.1453115" lon="15.2736245"><ele>442.0</ele><time>2026-05-05T09:06:01.591Z</time></trkpt><trkpt lat="45.1455845" lon="15.2737223"><ele>442.0</ele><time>2026-05-05T09:06:02.591Z</time></trkpt><trkpt lat="45.14586" lon="15.273805"><ele>440.0</ele><time>2026-05-05T09:06:03.59Z</time></trkpt><trkpt lat="45.1461374" lon="15.2738683"><ele>438.0</ele><time>2026-05-05T09:06:04.59Z</time></trkpt><trkpt lat="45.1464181" lon="15.2739284"><ele>433.5</ele><time>2026-05-05T09:06:05.591Z</time></trkpt><trkpt lat="45.1467027" lon="15.2739739"><ele>429.0</ele><time>2026-05-05T09:06:06.591Z</time></trkpt><trkpt lat="45.1469897" lon="15.2740071"><ele>429.0</ele><time>2026-05-05T09:06:07.59Z</time></trkpt><trkpt lat="45.1472786" lon="15.2740218"><ele>429.0</ele><time>2026-05-05T09:06:08.59Z</time></trkpt><trkpt lat="45.1475671" lon="15.2740238"><ele>424.5</ele><time>2026-05-05T09:06:09.591Z</time></trkpt><trkpt lat="45.1478583" lon="15.2740141"><ele>420.0</ele><time>2026-05-05T09:06:10.591Z</time></trkpt><trkpt lat="45.1481477" lon="15.2739854"><ele>420.0</ele><time>2026-05-05T09:06:11.591Z</time></trkpt><trkpt lat="45.1484343" lon="15.2739394"><ele>420.0</ele><time>2026-05-05T09:06:12.59Z</time></trkpt><trkpt lat="45.1487223" lon="15.2738808"><ele>423.5</ele><time>2026-05-05T09:06:13.591Z</time></trkpt><trkpt lat="45.1490096" lon="15.2738091"><ele>427.0</ele><time>2026-05-05T09:06:14.59Z</time></trkpt><trkpt lat="45.149293" lon="15.2737305"><ele>418.0</ele><time>2026-05-05T09:06:15.591Z</time></trkpt><trkpt lat="45.1495746" lon="15.2736406"><ele>409.0</ele><time>2026-05-05T09:06:16.591Z</time></trkpt><trkpt lat="45.1498532" lon="15.2735414"><ele>402.5</ele><time>2026-05-05T09:06:17.59Z</time></trkpt><trkpt lat="45.1501301" lon="15.273438"><ele>396.0</ele><time>2026-05-05T09:06:18.59Z</time></trkpt><trkpt lat="45.1504036" lon="15.2733265"><ele>396.0</ele><time>2026-05-05T09:06:19.59Z</time></trkpt><trkpt lat="45.1506762" lon="15.2732136"><ele>396.0</ele><time>2026-05-05T09:06:20.59Z</time></trkpt><trkpt lat="45.1509477" lon="15.2731003"><ele>401.0</ele><time>2026-05-05T09:06:21.59Z</time></trkpt><trkpt lat="45.1512161" lon="15.2729841"><ele>406.0</ele><time>2026-05-05T09:06:22.591Z</time></trkpt><trkpt lat="45.1514856" lon="15.2728746"><ele>405.5</ele><time>2026-05-05T09:06:23.591Z</time></trkpt><trkpt lat="45.1517601" lon="15.2727716"><ele>405.0</ele><time>2026-05-05T09:06:24.591Z</time></trkpt><trkpt lat="45.1520318" lon="15.2726701"><ele>405.0</ele><time>2026-05-05T09:06:25.591Z</time></trkpt><trkpt lat="45.152304" lon="15.272576"><ele>405.0</ele><time>2026-05-05T09:06:26.591Z</time></trkpt><trkpt lat="45.1525778" lon="15.272489"><ele>411.0</ele><time>2026-05-05T09:06:27.59Z</time></trkpt><trkpt lat="45.1528585" lon="15.2724208"><ele>417.0</ele><time>2026-05-05T09:06:28.59Z</time></trkpt><trkpt lat="45.1531334" lon="15.2723482"><ele>414.0</ele><time>2026-05-05T09:06:29.591Z</time></trkpt><trkpt lat="45.1534091" lon="15.2722896"><ele>411.0</ele><time>2026-05-05T09:06:30.591Z</time></trkpt><trkpt lat="45.1536833" lon="15.2722501"><ele>403.0</ele><time>2026-05-05T09:06:31.591Z</time></trkpt><trkpt lat="45.153961" lon="15.2722209"><ele>395.0</ele><time>2026-05-05T09:06:32.591Z</time></trkpt><trkpt lat="45.1542392" lon="15.2721999"><ele>384.5</ele><time>2026-05-05T09:06:33.59Z</time></trkpt><trkpt lat="45.154523" lon="15.2721954"><ele>374.0</ele><time>2026-05-05T09:06:34.59Z</time></trkpt><trkpt lat="45.1548068" lon="15.27221"><ele>375.0</ele><time>2026-05-05T09:06:35.591Z</time></trkpt><trkpt lat="45.1550874" lon="15.272234"><ele>376.0</ele><time>2026-05-05T09:06:36.591Z</time></trkpt><trkpt lat="45.1553693" lon="15.272271"><ele>374.5</ele><time>2026-05-05T09:06:37.59Z</time></trkpt><trkpt lat="45.1556498" lon="15.2723173"><ele>373.0</ele><time>2026-05-05T09:06:38.591Z</time></trkpt><trkpt lat="45.1559413" lon="15.2723704"><ele>376.0</ele><time>2026-05-05T09:06:39.591Z</time></trkpt><trkpt lat="45.1562352" lon="15.2724231"><ele>379.0</ele><time>2026-05-05T09:06:40.59Z</time></trkpt><trkpt lat="45.1565359" lon="15.2724772"><ele>388.5</ele><time>2026-05-05T09:06:41.591Z</time></trkpt><trkpt lat="45.1568397" lon="15.2725305"><ele>398.0</ele><time>2026-05-05T09:06:42.59Z</time></trkpt><trkpt lat="45.1571434" lon="15.2725854"><ele>409.0</ele><time>2026-05-05T09:06:43.591Z</time></trkpt><trkpt lat="45.1574455" lon="15.2726478"><ele>420.0</ele><time>2026-05-05T09:06:44.59Z</time></trkpt><trkpt lat="45.1577468" lon="15.2727094"><ele>420.0</ele><time>2026-05-05T09:06:45.59Z</time></trkpt><trkpt lat="45.158052" lon="15.2727709"><ele>420.0</ele><time>2026-05-05T09:06:46.59Z</time></trkpt><trkpt lat="45.1583595" lon="15.2728349"><ele>423.5</ele><time>2026-05-05T09:06:47.591Z</time></trkpt><trkpt lat="45.1586681" lon="15.2728994"><ele>427.0</ele><time>2026-05-05T09:06:48.591Z</time></trkpt><trkpt lat="45.1589761" lon="15.2729726"><ele>431.0</ele><time>2026-05-05T09:06:49.591Z</time></trkpt><trkpt lat="45.1592794" lon="15.2730402"><ele>435.0</ele><time>2026-05-05T09:06:50.59Z</time></trkpt><trkpt lat="45.1595846" lon="15.2731088"><ele>438.0</ele><time>2026-05-05T09:06:51.59Z</time></trkpt><trkpt lat="45.1598877" lon="15.2731747"><ele>441.0</ele><time>2026-05-05T09:06:52.591Z</time></trkpt><trkpt lat="45.1601886" lon="15.2732394"><ele>441.0</ele><time>2026-05-05T09:06:53.591Z</time></trkpt><trkpt lat="45.1604881" lon="15.2733102"><ele>441.0</ele><time>2026-05-05T09:06:54.59Z</time></trkpt><trkpt lat="45.1607821" lon="15.2733818"><ele>444.0</ele><time>2026-05-05T09:06:55.591Z</time></trkpt><trkpt lat="45.1610736" lon="15.2734553"><ele>447.0</ele><time>2026-05-05T09:06:56.591Z</time></trkpt><trkpt lat="45.1613637" lon="15.2735302"><ele>448.5</ele><time>2026-05-05T09:06:57.591Z</time></trkpt><trkpt lat="45.1616484" lon="15.2735984"><ele>450.0</ele><time>2026-05-05T09:06:58.591Z</time></trkpt><trkpt lat="45.1619337" lon="15.2736585"><ele>450.0</ele><time>2026-05-05T09:06:59.59Z</time></trkpt><trkpt lat="45.1622145" lon="15.2737201"><ele>450.0</ele><time>2026-05-05T09:07:00.591Z</time></trkpt><trkpt lat="45.1624944" lon="15.2737802"><ele>449.0</ele><time>2026-05-05T09:07:01.59Z</time></trkpt><trkpt lat="45.1627687" lon="15.2738411"><ele>448.0</ele><time>2026-05-05T09:07:02.59Z</time></trkpt><trkpt lat="45.1630461" lon="15.273909"><ele>446.0</ele><time>2026-05-05T09:07:03.591Z</time></trkpt><trkpt lat="45.1633226" lon="15.2739785"><ele>444.0</ele><time>2026-05-05T09:07:04.591Z</time></trkpt><trkpt lat="45.1635969" lon="15.2740543"><ele>444.0</ele><time>2026-05-05T09:07:05.59Z</time></trkpt><trkpt lat="45.1638684" lon="15.2741372"><ele>444.0</ele><time>2026-05-05T09:07:06.59Z</time></trkpt><trkpt lat="45.164137" lon="15.27423"><ele>444.5</ele><time>2026-05-05T09:07:07.591Z</time></trkpt><trkpt lat="45.1643977" lon="15.274329"><ele>445.0</ele><time>2026-05-05T09:07:08.591Z</time></trkpt><trkpt lat="45.1646627" lon="15.2744383"><ele>447.5</ele><time>2026-05-05T09:07:09.591Z</time></trkpt><trkpt lat="45.1649279" lon="15.2745523"><ele>450.0</ele><time>2026-05-05T09:07:10.591Z</time></trkpt><trkpt lat="45.1651919" lon="15.2746713"><ele>451.5</ele><time>2026-05-05T09:07:11.591Z</time></trkpt><trkpt lat="45.1654583" lon="15.2748013"><ele>453.0</ele><time>2026-05-05T09:07:12.59Z</time></trkpt><trkpt lat="45.1657251" lon="15.2749446"><ele>453.0</ele><time>2026-05-05T09:07:13.591Z</time></trkpt><trkpt lat="45.1659965" lon="15.275102"><ele>453.0</ele><time>2026-05-05T09:07:14.59Z</time></trkpt><trkpt lat="45.1662574" lon="15.275265"><ele>453.0</ele><time>2026-05-05T09:07:15.591Z</time></trkpt><trkpt lat="45.1665217" lon="15.2754335"><ele>453.0</ele><time>2026-05-05T09:07:16.591Z</time></trkpt><trkpt lat="45.1667893" lon="15.2756051"><ele>451.0</ele><time>2026-05-05T09:07:17.591Z</time></trkpt><trkpt lat="45.1670541" lon="15.2757863"><ele>449.0</ele><time>2026-05-05T09:07:18.59Z</time></trkpt><trkpt lat="45.1673189" lon="15.2759689"><ele>451.5</ele><time>2026-05-05T09:07:19.591Z</time></trkpt><trkpt lat="45.1675849" lon="15.2761626"><ele>454.0</ele><time>2026-05-05T09:07:20.59Z</time></trkpt><trkpt lat="45.1678502" lon="15.2763593"><ele>448.0</ele><time>2026-05-05T09:07:21.591Z</time></trkpt><trkpt lat="45.1681145" lon="15.276553"><ele>442.0</ele><time>2026-05-05T09:07:22.59Z</time></trkpt><trkpt lat="45.1683805" lon="15.2767399"><ele>439.5</ele><time>2026-05-05T09:07:23.59Z</time></trkpt><trkpt lat="45.1686442" lon="15.2769211"><ele>437.0</ele><time>2026-05-05T09:07:24.591Z</time></trkpt><trkpt lat="45.1689102" lon="15.2771016"><ele>432.0</ele><time>2026-05-05T09:07:25.591Z</time></trkpt><trkpt lat="45.1691797" lon="15.2772769"><ele>427.0</ele><time>2026-05-05T09:07:26.59Z</time></trkpt><trkpt lat="45.1694565" lon="15.2774433"><ele>427.0</ele><time>2026-05-05T09:07:27.591Z</time></trkpt><trkpt lat="45.1697382" lon="15.2775979"><ele>427.0</ele><time>2026-05-05T09:07:28.591Z</time></trkpt><trkpt lat="45.1700196" lon="15.2777376"><ele>427.5</ele><time>2026-05-05T09:07:29.59Z</time></trkpt><trkpt lat="45.1703087" lon="15.2778659"><ele>428.0</ele><time>2026-05-05T09:07:30.59Z</time></trkpt><trkpt lat="45.1705959" lon="15.2779773"><ele>430.0</ele><time>2026-05-05T09:07:31.59Z</time></trkpt><trkpt lat="45.1708875" lon="15.2780816"><ele>432.0</ele><time>2026-05-05T09:07:32.59Z</time></trkpt><trkpt lat="45.1711821" lon="15.2781687"><ele>423.0</ele><time>2026-05-05T09:07:33.591Z</time></trkpt><trkpt lat="45.1714749" lon="15.2782497"><ele>414.0</ele><time>2026-05-05T09:07:34.591Z</time></trkpt><trkpt lat="45.17177" lon="15.2783186"><ele>414.0</ele><time>2026-05-05T09:07:35.59Z</time></trkpt><trkpt lat="45.1720697" lon="15.2783761"><ele>414.0</ele><time>2026-05-05T09:07:36.59Z</time></trkpt><trkpt lat="45.1723733" lon="15.2784177"><ele>413.0</ele><time>2026-05-05T09:07:37.59Z</time></trkpt><trkpt lat="45.1726802" lon="15.2784458"><ele>412.0</ele><time>2026-05-05T09:07:38.59Z</time></trkpt><trkpt lat="45.1729847" lon="15.2784575"><ele>408.0</ele><time>2026-05-05T09:07:39.591Z</time></trkpt><trkpt lat="45.1732923" lon="15.2784629"><ele>404.0</ele><time>2026-05-05T09:07:40.591Z</time></trkpt><trkpt lat="45.1736014" lon="15.2784544"><ele>404.0</ele><time>2026-05-05T09:07:41.591Z</time></trkpt><trkpt lat="45.1739076" lon="15.2784383"><ele>404.0</ele><time>2026-05-05T09:07:42.591Z</time></trkpt><trkpt lat="45.1742122" lon="15.2784119"><ele>399.0</ele><time>2026-05-05T09:07:43.591Z</time></trkpt><trkpt lat="45.1745115" lon="15.2783709"><ele>394.0</ele><time>2026-05-05T09:07:44.59Z</time></trkpt><trkpt lat="45.1748084" lon="15.2783115"><ele>395.0</ele><time>2026-05-05T09:07:45.591Z</time></trkpt><trkpt lat="45.1751034" lon="15.2782393"><ele>396.0</ele><time>2026-05-05T09:07:46.59Z</time></trkpt><trkpt lat="45.1753948" lon="15.2781533"><ele>405.5</ele><time>2026-05-05T09:07:47.59Z</time></trkpt><trkpt lat="45.1756838" lon="15.2780538"><ele>415.0</ele><time>2026-05-05T09:07:48.591Z</time></trkpt><trkpt lat="45.1759721" lon="15.2779454"><ele>415.0</ele><time>2026-05-05T09:07:49.59Z</time></trkpt><trkpt lat="45.1762558" lon="15.2778227"><ele>415.0</ele><time>2026-05-05T09:07:50.591Z</time></trkpt><trkpt lat="45.1765386" lon="15.277687"><ele>410.0</ele><time>2026-05-05T09:07:51.591Z</time></trkpt><trkpt lat="45.1768181" lon="15.2775412"><ele>405.0</ele><time>2026-05-05T09:07:52.591Z</time></trkpt><trkpt lat="45.1770964" lon="15.277382"><ele>405.5</ele><time>2026-05-05T09:07:53.591Z</time></trkpt><trkpt lat="45.17737" lon="15.2772086"><ele>406.0</ele><time>2026-05-05T09:07:54.591Z</time></trkpt><trkpt lat="45.177638" lon="15.2770254"><ele>406.0</ele><time>2026-05-05T09:07:55.59Z</time></trkpt><trkpt lat="45.1779037" lon="15.2768276"><ele>406.0</ele><time>2026-05-05T09:07:56.591Z</time></trkpt><trkpt lat="45.178165" lon="15.2766182"><ele>407.5</ele><time>2026-05-05T09:07:57.59Z</time></trkpt><trkpt lat="45.1784224" lon="15.2763975"><ele>409.0</ele><time>2026-05-05T09:07:58.59Z</time></trkpt><trkpt lat="45.1786774" lon="15.2761617"><ele>409.0</ele><time>2026-05-05T09:07:59.591Z</time></trkpt><trkpt lat="45.1789328" lon="15.2759232"><ele>409.0</ele><time>2026-05-05T09:08:00.591Z</time></trkpt><trkpt lat="45.1791821" lon="15.2756654"><ele>404.5</ele><time>2026-05-05T09:08:01.59Z</time></trkpt><trkpt lat="45.1794254" lon="15.2754033"><ele>400.0</ele><time>2026-05-05T09:08:02.591Z</time></trkpt><trkpt lat="45.1796667" lon="15.2751259"><ele>399.5</ele><time>2026-05-05T09:08:03.59Z</time></trkpt><trkpt lat="45.1799068" lon="15.2748441"><ele>399.0</ele><time>2026-05-05T09:08:04.59Z</time></trkpt><trkpt lat="45.1801448" lon="15.2745634"><ele>399.0</ele><time>2026-05-05T09:08:05.59Z</time></trkpt><trkpt lat="45.1803849" lon="15.2742802"><ele>399.0</ele><time>2026-05-05T09:08:06.59Z</time></trkpt><trkpt lat="45.1806245" lon="15.2739989"><ele>398.5</ele><time>2026-05-05T09:08:07.59Z</time></trkpt><trkpt lat="45.1808603" lon="15.2737261"><ele>398.0</ele><time>2026-05-05T09:08:08.591Z</time></trkpt><trkpt lat="45.1810967" lon="15.2734515"><ele>398.0</ele><time>2026-05-05T09:08:09.591Z</time></trkpt><trkpt lat="45.1813332" lon="15.2731696"><ele>398.0</ele><time>2026-05-05T09:08:10.59Z</time></trkpt><trkpt lat="45.1815681" lon="15.2728928"><ele>396.5</ele><time>2026-05-05T09:08:11.59Z</time></trkpt><trkpt lat="45.1818067" lon="15.2726166"><ele>395.0</ele><time>2026-05-05T09:08:12.591Z</time></trkpt><trkpt lat="45.1820397" lon="15.2723413"><ele>393.5</ele><time>2026-05-05T09:08:13.591Z</time></trkpt><trkpt lat="45.1822755" lon="15.272062"><ele>392.0</ele><time>2026-05-05T09:08:14.59Z</time></trkpt><trkpt lat="45.1825065" lon="15.2717862"><ele>380.0</ele><time>2026-05-05T09:08:15.591Z</time></trkpt><trkpt lat="45.1827404" lon="15.2715138"><ele>368.0</ele><time>2026-05-05T09:08:16.59Z</time></trkpt><trkpt lat="45.1829696" lon="15.2712464"><ele>360.0</ele><time>2026-05-05T09:08:17.591Z</time></trkpt><trkpt lat="45.1831967" lon="15.2709803"><ele>352.0</ele><time>2026-05-05T09:08:18.59Z</time></trkpt><trkpt lat="45.1834214" lon="15.2707226"><ele>357.0</ele><time>2026-05-05T09:08:19.59Z</time></trkpt><trkpt lat="45.1836472" lon="15.2704732"><ele>362.0</ele><time>2026-05-05T09:08:20.591Z</time></trkpt><trkpt lat="45.1838744" lon="15.270236"><ele>362.0</ele><time>2026-05-05T09:08:21.59Z</time></trkpt><trkpt lat="45.1841042" lon="15.2700121"><ele>362.0</ele><time>2026-05-05T09:08:22.591Z</time></trkpt><trkpt lat="45.1843391" lon="15.2697974"><ele>370.0</ele><time>2026-05-05T09:08:23.59Z</time></trkpt><trkpt lat="45.1845777" lon="15.2695847"><ele>378.0</ele><time>2026-05-05T09:08:24.591Z</time></trkpt><trkpt lat="45.1848222" lon="15.2693973"><ele>372.0</ele><time>2026-05-05T09:08:25.59Z</time></trkpt><trkpt lat="45.1850706" lon="15.2692196"><ele>366.0</ele><time>2026-05-05T09:08:26.59Z</time></trkpt><trkpt lat="45.1853266" lon="15.2690522"><ele>369.0</ele><time>2026-05-05T09:08:27.59Z</time></trkpt><trkpt lat="45.185585" lon="15.2688924"><ele>372.0</ele><time>2026-05-05T09:08:28.59Z</time></trkpt><trkpt lat="45.185852" lon="15.2687468"><ele>366.0</ele><time>2026-05-05T09:08:29.59Z</time></trkpt><trkpt lat="45.1861233" lon="15.268617"><ele>360.0</ele><time>2026-05-05T09:08:30.591Z</time></trkpt><trkpt lat="45.1863974" lon="15.268503"><ele>355.0</ele><time>2026-05-05T09:08:31.591Z</time></trkpt><trkpt lat="45.1866739" lon="15.2684032"><ele>350.0</ele><time>2026-05-05T09:08:32.59Z</time></trkpt><trkpt lat="45.1869526" lon="15.2683143"><ele>350.0</ele><time>2026-05-05T09:08:33.59Z</time></trkpt><trkpt lat="45.1872331" lon="15.2682387"><ele>350.0</ele><time>2026-05-05T09:08:34.59Z</time></trkpt><trkpt lat="45.1875135" lon="15.2681836"><ele>350.5</ele><time>2026-05-05T09:08:35.591Z</time></trkpt><trkpt lat="45.1877958" lon="15.2681387"><ele>351.0</ele><time>2026-05-05T09:08:36.591Z</time></trkpt><trkpt lat="45.1880762" lon="15.2681083"><ele>348.5</ele><time>2026-05-05T09:08:37.59Z</time></trkpt><trkpt lat="45.1883521" lon="15.2680832"><ele>346.0</ele><time>2026-05-05T09:08:38.59Z</time></trkpt><trkpt lat="45.1886305" lon="15.2680594"><ele>346.0</ele><time>2026-05-05T09:08:39.59Z</time></trkpt><trkpt lat="45.1889082" lon="15.268038"><ele>346.0</ele><time>2026-05-05T09:08:40.591Z</time></trkpt><trkpt lat="45.1891877" lon="15.2680125"><ele>342.5</ele><time>2026-05-05T09:08:41.591Z</time></trkpt><trkpt lat="45.1894666" lon="15.2679821"><ele>339.0</ele><time>2026-05-05T09:08:42.59Z</time></trkpt><trkpt lat="45.189742" lon="15.267946"><ele>335.0</ele><time>2026-05-05T09:08:43.59Z</time></trkpt><trkpt lat="45.1900188" lon="15.2678986"><ele>331.0</ele><time>2026-05-05T09:08:44.59Z</time></trkpt><trkpt lat="45.1902966" lon="15.2678408"><ele>331.0</ele><time>2026-05-05T09:08:45.59Z</time></trkpt><trkpt lat="45.190577" lon="15.2677727"><ele>331.0</ele><time>2026-05-05T09:08:46.59Z</time></trkpt><trkpt lat="45.1908565" lon="15.267694"><ele>331.0</ele><time>2026-05-05T09:08:47.59Z</time></trkpt><trkpt lat="45.1911356" lon="15.2676063"><ele>331.0</ele><time>2026-05-05T09:08:48.591Z</time></trkpt><trkpt lat="45.1914139" lon="15.2675104"><ele>334.0</ele><time>2026-05-05T09:08:49.591Z</time></trkpt><trkpt lat="45.1916888" lon="15.2674072"><ele>337.0</ele><time>2026-05-05T09:08:50.59Z</time></trkpt><trkpt lat="45.1919594" lon="15.2672954"><ele>337.5</ele><time>2026-05-05T09:08:51.59Z</time></trkpt><trkpt lat="45.1922271" lon="15.2671764"><ele>338.0</ele><time>2026-05-05T09:08:52.59Z</time></trkpt><trkpt lat="45.192492" lon="15.2670488"><ele>338.5</ele><time>2026-05-05T09:08:53.59Z</time></trkpt><trkpt lat="45.1927547" lon="15.2669093"><ele>339.0</ele><time>2026-05-05T09:08:54.59Z</time></trkpt><trkpt lat="45.1930191" lon="15.2667541"><ele>339.0</ele><time>2026-05-05T09:08:55.59Z</time></trkpt><trkpt lat="45.1932842" lon="15.2665871"><ele>339.0</ele><time>2026-05-05T09:08:56.59Z</time></trkpt><trkpt lat="45.1935487" lon="15.2664147"><ele>339.5</ele><time>2026-05-05T09:08:57.59Z</time></trkpt><trkpt lat="45.1938176" lon="15.2662392"><ele>340.0</ele><time>2026-05-05T09:08:58.591Z</time></trkpt><trkpt lat="45.1940846" lon="15.2660735"><ele>338.5</ele><time>2026-05-05T09:08:59.591Z</time></trkpt><trkpt lat="45.1943547" lon="15.2659167"><ele>337.0</ele><time>2026-05-05T09:09:00.59Z</time></trkpt><trkpt lat="45.1946269" lon="15.2657729"><ele>337.0</ele><time>2026-05-05T09:09:01.59Z</time></trkpt><trkpt lat="45.1949024" lon="15.265636"><ele>337.0</ele><time>2026-05-05T09:09:02.59Z</time></trkpt><trkpt lat="45.1951821" lon="15.2655087"><ele>337.0</ele><time>2026-05-05T09:09:03.591Z</time></trkpt><trkpt lat="45.195463" lon="15.2653918"><ele>337.0</ele><time>2026-05-05T09:09:04.59Z</time></trkpt><trkpt lat="45.1957543" lon="15.2652932"><ele>338.5</ele><time>2026-05-05T09:09:05.591Z</time></trkpt><trkpt lat="45.1960508" lon="15.2652109"><ele>340.0</ele><time>2026-05-05T09:09:06.59Z</time></trkpt><trkpt lat="45.1963493" lon="15.2651437"><ele>337.0</ele><time>2026-05-05T09:09:07.591Z</time></trkpt><trkpt lat="45.1966478" lon="15.2651013"><ele>334.0</ele><time>2026-05-05T09:09:08.59Z</time></trkpt><trkpt lat="45.1969501" lon="15.2650744"><ele>334.0</ele><time>2026-05-05T09:09:09.591Z</time></trkpt><trkpt lat="45.1972557" lon="15.2650641"><ele>334.0</ele><time>2026-05-05T09:09:10.591Z</time></trkpt><trkpt lat="45.1975598" lon="15.2650631"><ele>334.0</ele><time>2026-05-05T09:09:11.591Z</time></trkpt><trkpt lat="45.1978603" lon="15.2650795"><ele>334.0</ele><time>2026-05-05T09:09:12.59Z</time></trkpt><trkpt lat="45.1981602" lon="15.2651066"><ele>337.5</ele><time>2026-05-05T09:09:13.591Z</time></trkpt><trkpt lat="45.1984579" lon="15.2651478"><ele>341.0</ele><time>2026-05-05T09:09:14.59Z</time></trkpt><trkpt lat="45.1987558" lon="15.2651982"><ele>342.5</ele><time>2026-05-05T09:09:15.59Z</time></trkpt><trkpt lat="45.199051" lon="15.2652548"><ele>344.0</ele><time>2026-05-05T09:09:16.591Z</time></trkpt><trkpt lat="45.1993455" lon="15.2653133"><ele>344.0</ele><time>2026-05-05T09:09:17.59Z</time></trkpt><trkpt lat="45.1996395" lon="15.2653698"><ele>344.0</ele><time>2026-05-05T09:09:18.59Z</time></trkpt><trkpt lat="45.1999322" lon="15.2654192"><ele>345.0</ele><time>2026-05-05T09:09:19.591Z</time></trkpt><trkpt lat="45.2002252" lon="15.2654666"><ele>346.0</ele><time>2026-05-05T09:09:20.591Z</time></trkpt><trkpt lat="45.2005198" lon="15.2655073"><ele>347.0</ele><time>2026-05-05T09:09:21.59Z</time></trkpt><trkpt lat="45.2008126" lon="15.2655408"><ele>348.0</ele><time>2026-05-05T09:09:22.591Z</time></trkpt><trkpt lat="45.2011025" lon="15.2655618"><ele>348.0</ele><time>2026-05-05T09:09:23.59Z</time></trkpt><trkpt lat="45.2013999" lon="15.2655726"><ele>348.0</ele><time>2026-05-05T09:09:24.591Z</time></trkpt><trkpt lat="45.2016919" lon="15.265575"><ele>345.5</ele><time>2026-05-05T09:09:25.59Z</time></trkpt><trkpt lat="45.2019907" lon="15.265564"><ele>343.0</ele><time>2026-05-05T09:09:26.591Z</time></trkpt><trkpt lat="45.2022822" lon="15.2655428"><ele>344.0</ele><time>2026-05-05T09:09:27.591Z</time></trkpt><trkpt lat="45.2025731" lon="15.2655097"><ele>345.0</ele><time>2026-05-05T09:09:28.59Z</time></trkpt><trkpt lat="45.2028628" lon="15.2654614"><ele>345.0</ele><time>2026-05-05T09:09:29.591Z</time></trkpt><trkpt lat="45.2031501" lon="15.2653945"><ele>345.0</ele><time>2026-05-05T09:09:30.591Z</time></trkpt><trkpt lat="45.2034346" lon="15.2653324"><ele>349.0</ele><time>2026-05-05T09:09:31.591Z</time></trkpt><trkpt lat="45.2037185" lon="15.2652563"><ele>353.0</ele><time>2026-05-05T09:09:32.59Z</time></trkpt><trkpt lat="45.2039981" lon="15.2651704"><ele>353.5</ele><time>2026-05-05T09:09:33.591Z</time></trkpt><trkpt lat="45.204275" lon="15.2650735"><ele>354.0</ele><time>2026-05-05T09:09:34.59Z</time></trkpt><trkpt lat="45.2045508" lon="15.2649647"><ele>354.0</ele><time>2026-05-05T09:09:35.591Z</time></trkpt><trkpt lat="45.2048248" lon="15.2648488"><ele>354.0</ele><time>2026-05-05T09:09:36.59Z</time></trkpt><trkpt lat="45.2050962" lon="15.2647258"><ele>351.0</ele><time>2026-05-05T09:09:37.59Z</time></trkpt><trkpt lat="45.2053645" lon="15.2645886"><ele>348.0</ele><time>2026-05-05T09:09:38.591Z</time></trkpt><trkpt lat="45.2056303" lon="15.2644387"><ele>345.5</ele><time>2026-05-05T09:09:39.59Z</time></trkpt><trkpt lat="45.2058921" lon="15.2642811"><ele>343.0</ele><time>2026-05-05T09:09:40.59Z</time></trkpt><trkpt lat="45.2061509" lon="15.2641135"><ele>343.0</ele><time>2026-05-05T09:09:41.591Z</time></trkpt><trkpt lat="45.2064126" lon="15.2639351"><ele>343.0</ele><time>2026-05-05T09:09:42.59Z</time></trkpt><trkpt lat="45.2066666" lon="15.2637471"><ele>343.0</ele><time>2026-05-05T09:09:43.59Z</time></trkpt><trkpt lat="45.2069203" lon="15.2635409"><ele>343.0</ele><time>2026-05-05T09:09:44.591Z</time></trkpt><trkpt lat="45.2071768" lon="15.2633363"><ele>339.5</ele><time>2026-05-05T09:09:45.591Z</time></trkpt><trkpt lat="45.2074277" lon="15.2631246"><ele>336.0</ele><time>2026-05-05T09:09:46.59Z</time></trkpt><trkpt lat="45.2076765" lon="15.2629013"><ele>336.0</ele><time>2026-05-05T09:09:47.591Z</time></trkpt><trkpt lat="45.2079268" lon="15.2626815"><ele>336.0</ele><time>2026-05-05T09:09:48.59Z</time></trkpt><trkpt lat="45.2081751" lon="15.2624574"><ele>334.0</ele><time>2026-05-05T09:09:49.591Z</time></trkpt><trkpt lat="45.2084201" lon="15.2622346"><ele>332.0</ele><time>2026-05-05T09:09:50.59Z</time></trkpt><trkpt lat="45.2086613" lon="15.2620128"><ele>332.0</ele><time>2026-05-05T09:09:51.591Z</time></trkpt><trkpt lat="45.2089059" lon="15.2617949"><ele>332.0</ele><time>2026-05-05T09:09:52.591Z</time></trkpt><trkpt lat="45.2091516" lon="15.2615792"><ele>328.5</ele><time>2026-05-05T09:09:53.591Z</time></trkpt><trkpt lat="45.2093983" lon="15.2613697"><ele>325.0</ele><time>2026-05-05T09:09:54.59Z</time></trkpt><trkpt lat="45.209648" lon="15.2611669"><ele>324.5</ele><time>2026-05-05T09:09:55.59Z</time></trkpt><trkpt lat="45.2099035" lon="15.260976"><ele>324.0</ele><time>2026-05-05T09:09:56.591Z</time></trkpt><trkpt lat="45.2101552" lon="15.2607804"><ele>325.0</ele><time>2026-05-05T09:09:57.591Z</time></trkpt><trkpt lat="45.2104152" lon="15.2606012"><ele>326.0</ele><time>2026-05-05T09:09:58.591Z</time></trkpt><trkpt lat="45.2106776" lon="15.2604253"><ele>328.0</ele><time>2026-05-05T09:09:59.59Z</time></trkpt><trkpt lat="45.2109384" lon="15.260257"><ele>330.0</ele><time>2026-05-05T09:10:00.591Z</time></trkpt><trkpt lat="45.2112023" lon="15.260105"><ele>330.0</ele><time>2026-05-05T09:10:01.59Z</time></trkpt><trkpt lat="45.2114657" lon="15.2599562"><ele>330.0</ele><time>2026-05-05T09:10:02.591Z</time></trkpt><trkpt lat="45.2117326" lon="15.2598181"><ele>333.0</ele><time>2026-05-05T09:10:03.591Z</time></trkpt><trkpt lat="45.2119965" lon="15.2596863"><ele>336.0</ele><time>2026-05-05T09:10:04.591Z</time></trkpt><trkpt lat="45.2122641" lon="15.2595609"><ele>335.5</ele><time>2026-05-05T09:10:05.591Z</time></trkpt><trkpt lat="45.2125401" lon="15.2594529"><ele>335.0</ele><time>2026-05-05T09:10:06.591Z</time></trkpt><trkpt lat="45.2128156" lon="15.2593509"><ele>335.0</ele><time>2026-05-05T09:10:07.59Z</time></trkpt><trkpt lat="45.2130895" lon="15.2592573"><ele>335.0</ele><time>2026-05-05T09:10:08.59Z</time></trkpt><trkpt lat="45.2133625" lon="15.2591732"><ele>334.5</ele><time>2026-05-05T09:10:09.591Z</time></trkpt><trkpt lat="45.2136347" lon="15.2590926"><ele>334.0</ele><time>2026-05-05T09:10:10.591Z</time></trkpt><trkpt lat="45.2139075" lon="15.2590185"><ele>331.5</ele><time>2026-05-05T09:10:11.591Z</time></trkpt><trkpt lat="45.21418" lon="15.2589493"><ele>329.0</ele><time>2026-05-05T09:10:12.59Z</time></trkpt><trkpt lat="45.2144551" lon="15.258888"><ele>329.0</ele><time>2026-05-05T09:10:13.59Z</time></trkpt><trkpt lat="45.2147311" lon="15.2588382"><ele>329.0</ele><time>2026-05-05T09:10:14.591Z</time></trkpt><trkpt lat="45.2150061" lon="15.2587962"><ele>326.0</ele><time>2026-05-05T09:10:15.59Z</time></trkpt><trkpt lat="45.2152829" lon="15.2587569"><ele>323.0</ele><time>2026-05-05T09:10:16.591Z</time></trkpt><trkpt lat="45.2155644" lon="15.2587367"><ele>323.5</ele><time>2026-05-05T09:10:17.59Z</time></trkpt><trkpt lat="45.215846" lon="15.2587166"><ele>324.0</ele><time>2026-05-05T09:10:18.59Z</time></trkpt><trkpt lat="45.2161335" lon="15.2587041"><ele>324.0</ele><time>2026-05-05T09:10:19.59Z</time></trkpt><trkpt lat="45.2164315" lon="15.2587005"><ele>324.0</ele><time>2026-05-05T09:10:20.591Z</time></trkpt><trkpt lat="45.2167313" lon="15.258706"><ele>325.5</ele><time>2026-05-05T09:10:21.591Z</time></trkpt><trkpt lat="45.217033" lon="15.2587261"><ele>327.0</ele><time>2026-05-05T09:10:22.591Z</time></trkpt><trkpt lat="45.217332" lon="15.2587545"><ele>327.0</ele><time>2026-05-05T09:10:23.591Z</time></trkpt><trkpt lat="45.2176288" lon="15.2587889"><ele>327.0</ele><time>2026-05-05T09:10:24.59Z</time></trkpt><trkpt lat="45.2179247" lon="15.2588366"><ele>327.0</ele><time>2026-05-05T09:10:25.59Z</time></trkpt><trkpt lat="45.2182232" lon="15.2588941"><ele>327.0</ele><time>2026-05-05T09:10:26.591Z</time></trkpt><trkpt lat="45.2185217" lon="15.2589615"><ele>326.0</ele><time>2026-05-05T09:10:27.591Z</time></trkpt><trkpt lat="45.2188226" lon="15.2590391"><ele>325.0</ele><time>2026-05-05T09:10:28.59Z</time></trkpt><trkpt lat="45.219119" lon="15.2591262"><ele>325.0</ele><time>2026-05-05T09:10:29.59Z</time></trkpt><trkpt lat="45.219411" lon="15.2592233"><ele>325.0</ele><time>2026-05-05T09:10:30.591Z</time></trkpt><trkpt lat="45.2196996" lon="15.2593328"><ele>326.0</ele><time>2026-05-05T09:10:31.591Z</time></trkpt><trkpt lat="45.2199835" lon="15.2594551"><ele>327.0</ele><time>2026-05-05T09:10:32.59Z</time></trkpt><trkpt lat="45.220264" lon="15.2595832"><ele>327.0</ele><time>2026-05-05T09:10:33.591Z</time></trkpt><trkpt lat="45.2205402" lon="15.2597238"><ele>327.0</ele><time>2026-05-05T09:10:34.59Z</time></trkpt><trkpt lat="45.2208142" lon="15.2598693"><ele>328.0</ele><time>2026-05-05T09:10:35.59Z</time></trkpt><trkpt lat="45.2210805" lon="15.2600197"><ele>329.0</ele><time>2026-05-05T09:10:36.591Z</time></trkpt><trkpt lat="45.2213446" lon="15.260178"><ele>330.0</ele><time>2026-05-05T09:10:37.59Z</time></trkpt><trkpt lat="45.2216047" lon="15.2603386"><ele>331.0</ele><time>2026-05-05T09:10:38.59Z</time></trkpt><trkpt lat="45.2218623" lon="15.2604961"><ele>331.0</ele><time>2026-05-05T09:10:39.591Z</time></trkpt><trkpt lat="45.2221158" lon="15.2606632"><ele>331.0</ele><time>2026-05-05T09:10:40.59Z</time></trkpt><trkpt lat="45.2223643" lon="15.2608396"><ele>330.0</ele><time>2026-05-05T09:10:41.591Z</time></trkpt><trkpt lat="45.2226098" lon="15.261024"><ele>329.0</ele><time>2026-05-05T09:10:42.59Z</time></trkpt><trkpt lat="45.222852" lon="15.2612169"><ele>329.0</ele><time>2026-05-05T09:10:43.591Z</time></trkpt><trkpt lat="45.2230929" lon="15.2614197"><ele>329.0</ele><time>2026-05-05T09:10:44.591Z</time></trkpt><trkpt lat="45.2233314" lon="15.261626"><ele>328.0</ele><time>2026-05-05T09:10:45.59Z</time></trkpt><trkpt lat="45.2235702" lon="15.261837"><ele>327.0</ele><time>2026-05-05T09:10:46.591Z</time></trkpt><trkpt lat="45.2238096" lon="15.2620517"><ele>327.0</ele><time>2026-05-05T09:10:47.591Z</time></trkpt><trkpt lat="45.2240481" lon="15.2622706"><ele>327.0</ele><time>2026-05-05T09:10:48.591Z</time></trkpt><trkpt lat="45.2242849" lon="15.2624938"><ele>327.0</ele><time>2026-05-05T09:10:49.591Z</time></trkpt><trkpt lat="45.2245225" lon="15.2627153"><ele>327.0</ele><time>2026-05-05T09:10:50.591Z</time></trkpt><trkpt lat="45.2247617" lon="15.2629346"><ele>325.0</ele><time>2026-05-05T09:10:51.591Z</time></trkpt><trkpt lat="45.2250033" lon="15.2631512"><ele>323.0</ele><time>2026-05-05T09:10:52.59Z</time></trkpt><trkpt lat="45.2252467" lon="15.2633693"><ele>323.0</ele><time>2026-05-05T09:10:53.591Z</time></trkpt><trkpt lat="45.2254938" lon="15.2635895"><ele>323.0</ele><time>2026-05-05T09:10:54.591Z</time></trkpt><trkpt lat="45.225744" lon="15.263808"><ele>321.5</ele><time>2026-05-05T09:10:55.59Z</time></trkpt><trkpt lat="45.2259983" lon="15.2640265"><ele>320.0</ele><time>2026-05-05T09:10:56.59Z</time></trkpt><trkpt lat="45.2262554" lon="15.2642443"><ele>321.0</ele><time>2026-05-05T09:10:57.59Z</time></trkpt><trkpt lat="45.2265159" lon="15.2644571"><ele>322.0</ele><time>2026-05-05T09:10:58.591Z</time></trkpt><trkpt lat="45.2267801" lon="15.2646632"><ele>319.5</ele><time>2026-05-05T09:10:59.591Z</time></trkpt><trkpt lat="45.227048" lon="15.2648618"><ele>317.0</ele><time>2026-05-05T09:11:00.59Z</time></trkpt><trkpt lat="45.2273159" lon="15.2650543"><ele>315.5</ele><time>2026-05-05T09:11:01.59Z</time></trkpt><trkpt lat="45.2275804" lon="15.2652435"><ele>314.0</ele><time>2026-05-05T09:11:02.59Z</time></trkpt><trkpt lat="45.2278511" lon="15.2654204"><ele>314.0</ele><time>2026-05-05T09:11:03.59Z</time></trkpt><trkpt lat="45.2281193" lon="15.2655935"><ele>314.0</ele><time>2026-05-05T09:11:04.591Z</time></trkpt><trkpt lat="45.2283876" lon="15.2657634"><ele>315.5</ele><time>2026-05-05T09:11:05.59Z</time></trkpt><trkpt lat="45.2286602" lon="15.2659247"><ele>317.0</ele><time>2026-05-05T09:11:06.591Z</time></trkpt><trkpt lat="45.2289379" lon="15.2660809"><ele>318.5</ele><time>2026-05-05T09:11:07.591Z</time></trkpt><trkpt lat="45.2292165" lon="15.2662355"><ele>320.0</ele><time>2026-05-05T09:11:08.591Z</time></trkpt><trkpt lat="45.2294973" lon="15.2663878"><ele>320.0</ele><time>2026-05-05T09:11:09.591Z</time></trkpt><trkpt lat="45.2297803" lon="15.2665393"><ele>320.0</ele><time>2026-05-05T09:11:10.59Z</time></trkpt><trkpt lat="45.2300648" lon="15.2666833"><ele>318.0</ele><time>2026-05-05T09:11:11.591Z</time></trkpt><trkpt lat="45.2303515" lon="15.2668128"><ele>316.0</ele><time>2026-05-05T09:11:12.591Z</time></trkpt><trkpt lat="45.2306376" lon="15.266935"><ele>315.0</ele><time>2026-05-05T09:11:13.59Z</time></trkpt><trkpt lat="45.2309266" lon="15.2670467"><ele>314.0</ele><time>2026-05-05T09:11:14.591Z</time></trkpt><trkpt lat="45.2312181" lon="15.267134"><ele>314.0</ele><time>2026-05-05T09:11:15.59Z</time></trkpt><trkpt lat="45.2315156" lon="15.2672322"><ele>314.0</ele><time>2026-05-05T09:11:16.591Z</time></trkpt><trkpt lat="45.2318161" lon="15.267324"><ele>314.0</ele><time>2026-05-05T09:11:17.59Z</time></trkpt><trkpt lat="45.2321146" lon="15.2674128"><ele>314.0</ele><time>2026-05-05T09:11:18.59Z</time></trkpt><trkpt lat="45.2324118" lon="15.2674983"><ele>313.5</ele><time>2026-05-05T09:11:19.59Z</time></trkpt><trkpt lat="45.2327099" lon="15.2675813"><ele>313.0</ele><time>2026-05-05T09:11:20.59Z</time></trkpt><trkpt lat="45.2330048" lon="15.267665"><ele>313.0</ele><time>2026-05-05T09:11:21.591Z</time></trkpt><trkpt lat="45.2332975" lon="15.2677407"><ele>313.0</ele><time>2026-05-05T09:11:22.591Z</time></trkpt><trkpt lat="45.2335903" lon="15.2678049"><ele>313.0</ele><time>2026-05-05T09:11:23.591Z</time></trkpt><trkpt lat="45.2338828" lon="15.2678682"><ele>313.0</ele><time>2026-05-05T09:11:24.59Z</time></trkpt><trkpt lat="45.2341751" lon="15.2679279"><ele>313.0</ele><time>2026-05-05T09:11:25.59Z</time></trkpt><trkpt lat="45.234465" lon="15.2679824"><ele>313.0</ele><time>2026-05-05T09:11:26.591Z</time></trkpt><trkpt lat="45.2347545" lon="15.2680301"><ele>313.5</ele><time>2026-05-05T09:11:27.591Z</time></trkpt><trkpt lat="45.2350421" lon="15.2680703"><ele>314.0</ele><time>2026-05-05T09:11:28.59Z</time></trkpt><trkpt lat="45.2353307" lon="15.2681016"><ele>313.5</ele><time>2026-05-05T09:11:29.591Z</time></trkpt><trkpt lat="45.2356179" lon="15.2681288"><ele>313.0</ele><time>2026-05-05T09:11:30.59Z</time></trkpt><trkpt lat="45.2359038" lon="15.268156"><ele>313.0</ele><time>2026-05-05T09:11:31.59Z</time></trkpt><trkpt lat="45.2361913" lon="15.2681794"><ele>313.0</ele><time>2026-05-05T09:11:32.59Z</time></trkpt><trkpt lat="45.236479" lon="15.2682027"><ele>313.0</ele><time>2026-05-05T09:11:33.591Z</time></trkpt><trkpt lat="45.2367628" lon="15.2682211"><ele>313.0</ele><time>2026-05-05T09:11:34.59Z</time></trkpt><trkpt lat="45.23705" lon="15.2682495"><ele>314.0</ele><time>2026-05-05T09:11:35.59Z</time></trkpt><trkpt lat="45.2373344" lon="15.2682826"><ele>315.0</ele><time>2026-05-05T09:11:36.59Z</time></trkpt><trkpt lat="45.2376169" lon="15.2683113"><ele>315.0</ele><time>2026-05-05T09:11:37.591Z</time></trkpt><trkpt lat="45.237898" lon="15.2683433"><ele>315.0</ele><time>2026-05-05T09:11:38.59Z</time></trkpt><trkpt lat="45.2381833" lon="15.2683725"><ele>314.5</ele><time>2026-05-05T09:11:39.591Z</time></trkpt><trkpt lat="45.2384663" lon="15.2684105"><ele>314.0</ele><time>2026-05-05T09:11:40.59Z</time></trkpt><trkpt lat="45.2387501" lon="15.2684549"><ele>316.5</ele><time>2026-05-05T09:11:41.591Z</time></trkpt><trkpt lat="45.2390352" lon="15.2685019"><ele>319.0</ele><time>2026-05-05T09:11:42.591Z</time></trkpt><trkpt lat="45.2393153" lon="15.2685569"><ele>319.0</ele><time>2026-05-05T09:11:43.591Z</time></trkpt><trkpt lat="45.2395945" lon="15.2686116"><ele>319.0</ele><time>2026-05-05T09:11:44.59Z</time></trkpt><trkpt lat="45.2398722" lon="15.2686788"><ele>320.0</ele><time>2026-05-05T09:11:45.59Z</time></trkpt><trkpt lat="45.240149" lon="15.2687478"><ele>321.0</ele><time>2026-05-05T09:11:46.59Z</time></trkpt><trkpt lat="45.2404275" lon="15.2688205"><ele>319.0</ele><time>2026-05-05T09:11:47.591Z</time></trkpt><trkpt lat="45.2407071" lon="15.268902"><ele>317.0</ele><time>2026-05-05T09:11:48.591Z</time></trkpt><trkpt lat="45.2409865" lon="15.2689879"><ele>316.5</ele><time>2026-05-05T09:11:49.59Z</time></trkpt><trkpt lat="45.2412692" lon="15.2690837"><ele>316.0</ele><time>2026-05-05T09:11:50.59Z</time></trkpt><trkpt lat="45.2415513" lon="15.2691896"><ele>316.0</ele><time>2026-05-05T09:11:51.591Z</time></trkpt><trkpt lat="45.2418331" lon="15.2693031"><ele>316.0</ele><time>2026-05-05T09:11:52.591Z</time></trkpt><trkpt lat="45.2421141" lon="15.2694212"><ele>316.0</ele><time>2026-05-05T09:11:53.591Z</time></trkpt><trkpt lat="45.2423931" lon="15.2695429"><ele>316.0</ele><time>2026-05-05T09:11:54.59Z</time></trkpt><trkpt lat="45.242669" lon="15.2696705"><ele>316.5</ele><time>2026-05-05T09:11:55.591Z</time></trkpt><trkpt lat="45.242947" lon="15.2697965"><ele>317.0</ele><time>2026-05-05T09:11:56.59Z</time></trkpt><trkpt lat="45.2432213" lon="15.2699296"><ele>316.0</ele><time>2026-05-05T09:11:57.59Z</time></trkpt><trkpt lat="45.2434935" lon="15.2700676"><ele>315.0</ele><time>2026-05-05T09:11:58.591Z</time></trkpt><trkpt lat="45.2437599" lon="15.2702153"><ele>316.0</ele><time>2026-05-05T09:11:59.59Z</time></trkpt><trkpt lat="45.2440236" lon="15.2703675"><ele>317.0</ele><time>2026-05-05T09:12:00.591Z</time></trkpt><trkpt lat="45.2442857" lon="15.2705236"><ele>317.5</ele><time>2026-05-05T09:12:01.591Z</time></trkpt><trkpt lat="45.2445464" lon="15.2706858"><ele>318.0</ele><time>2026-05-05T09:12:02.591Z</time></trkpt><trkpt lat="45.2448093" lon="15.270852"><ele>321.0</ele><time>2026-05-05T09:12:03.591Z</time></trkpt><trkpt lat="45.2450729" lon="15.271023"><ele>324.0</ele><time>2026-05-05T09:12:04.59Z</time></trkpt><trkpt lat="45.2453338" lon="15.2711994"><ele>324.0</ele><time>2026-05-05T09:12:05.59Z</time></trkpt><trkpt lat="45.2455975" lon="15.2713775"><ele>324.0</ele><time>2026-05-05T09:12:06.591Z</time></trkpt><trkpt lat="45.2458582" lon="15.2715671"><ele>320.5</ele><time>2026-05-05T09:12:07.59Z</time></trkpt><trkpt lat="45.2461156" lon="15.271759"><ele>317.0</ele><time>2026-05-05T09:12:08.59Z</time></trkpt><trkpt lat="45.2463748" lon="15.2719531"><ele>318.5</ele><time>2026-05-05T09:12:09.591Z</time></trkpt><trkpt lat="45.2466274" lon="15.2721556"><ele>320.0</ele><time>2026-05-05T09:12:10.591Z</time></trkpt><trkpt lat="45.2468828" lon="15.2723608"><ele>320.0</ele><time>2026-05-05T09:12:11.591Z</time></trkpt><trkpt lat="45.2471422" lon="15.2725708"><ele>320.0</ele><time>2026-05-05T09:12:12.591Z</time></trkpt><trkpt lat="45.2474038" lon="15.272787"><ele>320.0</ele><time>2026-05-05T09:12:13.591Z</time></trkpt><trkpt lat="45.2476641" lon="15.2730093"><ele>320.0</ele><time>2026-05-05T09:12:14.59Z</time></trkpt><trkpt lat="45.2479288" lon="15.2732323"><ele>320.0</ele><time>2026-05-05T09:12:15.591Z</time></trkpt><trkpt lat="45.24819" lon="15.2734592"><ele>320.0</ele><time>2026-05-05T09:12:16.591Z</time></trkpt><trkpt lat="45.2484517" lon="15.2736884"><ele>320.0</ele><time>2026-05-05T09:12:17.591Z</time></trkpt><trkpt lat="45.2487101" lon="15.2739169"><ele>320.0</ele><time>2026-05-05T09:12:18.591Z</time></trkpt><trkpt lat="45.2489652" lon="15.2741427"><ele>321.0</ele><time>2026-05-05T09:12:19.591Z</time></trkpt><trkpt lat="45.2492255" lon="15.274361"><ele>322.0</ele><time>2026-05-05T09:12:20.591Z</time></trkpt><trkpt lat="45.249485" lon="15.2745794"><ele>322.0</ele><time>2026-05-05T09:12:21.591Z</time></trkpt><trkpt lat="45.2497465" lon="15.2747909"><ele>322.0</ele><time>2026-05-05T09:12:22.59Z</time></trkpt><trkpt lat="45.250003" lon="15.2749909"><ele>321.5</ele><time>2026-05-05T09:12:23.59Z</time></trkpt><trkpt lat="45.2502665" lon="15.2751829"><ele>321.0</ele><time>2026-05-05T09:12:24.591Z</time></trkpt><trkpt lat="45.2505326" lon="15.2753645"><ele>321.0</ele><time>2026-05-05T09:12:25.59Z</time></trkpt><trkpt lat="45.2508024" lon="15.2755355"><ele>321.0</ele><time>2026-05-05T09:12:26.591Z</time></trkpt><trkpt lat="45.2510773" lon="15.2756943"><ele>322.5</ele><time>2026-05-05T09:12:27.591Z</time></trkpt><trkpt lat="45.2513568" lon="15.2758407"><ele>324.0</ele><time>2026-05-05T09:12:28.59Z</time></trkpt><trkpt lat="45.2516384" lon="15.2759762"><ele>325.0</ele><time>2026-05-05T09:12:29.59Z</time></trkpt><trkpt lat="45.2519197" lon="15.2761054"><ele>326.0</ele><time>2026-05-05T09:12:30.591Z</time></trkpt><trkpt lat="45.2522033" lon="15.2762253"><ele>324.0</ele><time>2026-05-05T09:12:31.591Z</time></trkpt><trkpt lat="45.2524879" lon="15.2763357"><ele>322.0</ele><time>2026-05-05T09:12:32.591Z</time></trkpt><trkpt lat="45.252774" lon="15.2764363"><ele>323.5</ele><time>2026-05-05T09:12:33.591Z</time></trkpt><trkpt lat="45.2530635" lon="15.2765193"><ele>325.0</ele><time>2026-05-05T09:12:34.591Z</time></trkpt><trkpt lat="45.2533545" lon="15.2765976"><ele>325.5</ele><time>2026-05-05T09:12:35.591Z</time></trkpt><trkpt lat="45.2536464" lon="15.2766623"><ele>326.0</ele><time>2026-05-05T09:12:36.591Z</time></trkpt><trkpt lat="45.2539395" lon="15.2767138"><ele>324.5</ele><time>2026-05-05T09:12:37.59Z</time></trkpt><trkpt lat="45.2542358" lon="15.276754"><ele>323.0</ele><time>2026-05-05T09:12:38.59Z</time></trkpt><trkpt lat="45.2545298" lon="15.2767897"><ele>322.5</ele><time>2026-05-05T09:12:39.59Z</time></trkpt><trkpt lat="45.2548228" lon="15.2768133"><ele>322.0</ele><time>2026-05-05T09:12:40.591Z</time></trkpt><trkpt lat="45.2551152" lon="15.2768226"><ele>322.0</ele><time>2026-05-05T09:12:41.591Z</time></trkpt><trkpt lat="45.2554087" lon="15.2768221"><ele>322.0</ele><time>2026-05-05T09:12:42.59Z</time></trkpt><trkpt lat="45.2557023" lon="15.2768085"><ele>321.0</ele><time>2026-05-05T09:12:43.591Z</time></trkpt><trkpt lat="45.2559974" lon="15.2767886"><ele>320.0</ele><time>2026-05-05T09:12:44.59Z</time></trkpt><trkpt lat="45.2562895" lon="15.2767559"><ele>321.5</ele><time>2026-05-05T09:12:45.591Z</time></trkpt><trkpt lat="45.2565814" lon="15.2767128"><ele>323.0</ele><time>2026-05-05T09:12:46.59Z</time></trkpt><trkpt lat="45.2568735" lon="15.2766585"><ele>323.0</ele><time>2026-05-05T09:12:47.59Z</time></trkpt><trkpt lat="45.2571647" lon="15.2765929"><ele>323.0</ele><time>2026-05-05T09:12:48.591Z</time></trkpt><trkpt lat="45.257457" lon="15.276521"><ele>322.5</ele><time>2026-05-05T09:12:49.59Z</time></trkpt><trkpt lat="45.2577543" lon="15.2764393"><ele>322.0</ele><time>2026-05-05T09:12:50.591Z</time></trkpt><trkpt lat="45.2580438" lon="15.2763412"><ele>324.5</ele><time>2026-05-05T09:12:51.59Z</time></trkpt><trkpt lat="45.2583317" lon="15.2762337"><ele>327.0</ele><time>2026-05-05T09:12:52.59Z</time></trkpt><trkpt lat="45.2586191" lon="15.2761139"><ele>327.0</ele><time>2026-05-05T09:12:53.591Z</time></trkpt><trkpt lat="45.2589024" lon="15.2759837"><ele>327.0</ele><time>2026-05-05T09:12:54.59Z</time></trkpt><trkpt lat="45.2591822" lon="15.275839"><ele>326.5</ele><time>2026-05-05T09:12:55.591Z</time></trkpt><trkpt lat="45.2594592" lon="15.2756838"><ele>326.0</ele><time>2026-05-05T09:12:56.59Z</time></trkpt><trkpt lat="45.2597314" lon="15.2755239"><ele>331.5</ele><time>2026-05-05T09:12:57.591Z</time></trkpt><trkpt lat="45.2600029" lon="15.2753573"><ele>337.0</ele><time>2026-05-05T09:12:58.59Z</time></trkpt><trkpt lat="45.2602689" lon="15.2751835"><ele>337.0</ele><time>2026-05-05T09:12:59.59Z</time></trkpt><trkpt lat="45.2605314" lon="15.2749992"><ele>337.0</ele><time>2026-05-05T09:13:00.59Z</time></trkpt><trkpt lat="45.2607872" lon="15.2748016"><ele>344.0</ele><time>2026-05-05T09:13:01.591Z</time></trkpt><trkpt lat="45.2610381" lon="15.2745995"><ele>351.0</ele><time>2026-05-05T09:13:02.59Z</time></trkpt><trkpt lat="45.2612831" lon="15.2743916"><ele>345.5</ele><time>2026-05-05T09:13:03.59Z</time></trkpt><trkpt lat="45.2615243" lon="15.2741732"><ele>340.0</ele><time>2026-05-05T09:13:04.59Z</time></trkpt><trkpt lat="45.261759" lon="15.2739423"><ele>349.5</ele><time>2026-05-05T09:13:05.591Z</time></trkpt><trkpt lat="45.2619915" lon="15.2737075"><ele>359.0</ele><time>2026-05-05T09:13:06.591Z</time></trkpt><trkpt lat="45.2622219" lon="15.2734657"><ele>361.0</ele><time>2026-05-05T09:13:07.591Z</time></trkpt><trkpt lat="45.262446" lon="15.273219"><ele>363.0</ele><time>2026-05-05T09:13:08.591Z</time></trkpt><trkpt lat="45.2626661" lon="15.2729699"><ele>363.0</ele><time>2026-05-05T09:13:09.591Z</time></trkpt><trkpt lat="45.2628865" lon="15.2727175"><ele>363.0</ele><time>2026-05-05T09:13:10.59Z</time></trkpt><trkpt lat="45.2631137" lon="15.272465"><ele>361.0</ele><time>2026-05-05T09:13:11.591Z</time></trkpt><trkpt lat="45.2633396" lon="15.2722248"><ele>359.0</ele><time>2026-05-05T09:13:12.59Z</time></trkpt><trkpt lat="45.2635685" lon="15.2719874"><ele>359.0</ele><time>2026-05-05T09:13:13.591Z</time></trkpt><trkpt lat="45.2637983" lon="15.2717555"><ele>359.0</ele><time>2026-05-05T09:13:14.59Z</time></trkpt><trkpt lat="45.264032" lon="15.2715343"><ele>360.5</ele><time>2026-05-05T09:13:15.591Z</time></trkpt><trkpt lat="45.2642713" lon="15.2713298"><ele>362.0</ele><time>2026-05-05T09:13:16.591Z</time></trkpt><trkpt lat="45.2645184" lon="15.2711274"><ele>362.0</ele><time>2026-05-05T09:13:17.59Z</time></trkpt><trkpt lat="45.264764" lon="15.2709378"><ele>362.0</ele><time>2026-05-05T09:13:18.591Z</time></trkpt><trkpt lat="45.265019" lon="15.270763"><ele>358.5</ele><time>2026-05-05T09:13:19.591Z</time></trkpt><trkpt lat="45.2652759" lon="15.2705933"><ele>355.0</ele><time>2026-05-05T09:13:20.591Z</time></trkpt><trkpt lat="45.265538" lon="15.2704366"><ele>356.0</ele><time>2026-05-05T09:13:21.591Z</time></trkpt><trkpt lat="45.2658028" lon="15.2702853"><ele>357.0</ele><time>2026-05-05T09:13:22.59Z</time></trkpt><trkpt lat="45.2660713" lon="15.2701508"><ele>357.0</ele><time>2026-05-05T09:13:23.59Z</time></trkpt><trkpt lat="45.2663404" lon="15.27003"><ele>357.0</ele><time>2026-05-05T09:13:24.59Z</time></trkpt><trkpt lat="45.267198" lon="15.2697275"><ele>357.0</ele><time>2026-05-05T09:13:27.591Z</time></trkpt><trkpt lat="45.2674742" lon="15.2696667"><ele>357.0</ele><time>2026-05-05T09:13:28.591Z</time></trkpt><trkpt lat="45.2677734" lon="15.2696119"><ele>357.0</ele><time>2026-05-05T09:13:29.59Z</time></trkpt><trkpt lat="45.2680703" lon="15.2695686"><ele>357.0</ele><time>2026-05-05T09:13:30.59Z</time></trkpt><trkpt lat="45.2683654" lon="15.2695371"><ele>360.0</ele><time>2026-05-05T09:13:31.591Z</time></trkpt><trkpt lat="45.2686614" lon="15.2695183"><ele>363.0</ele><time>2026-05-05T09:13:32.591Z</time></trkpt><trkpt lat="45.2689577" lon="15.2695163"><ele>363.0</ele><time>2026-05-05T09:13:33.59Z</time></trkpt><trkpt lat="45.2692519" lon="15.2695318"><ele>363.0</ele><time>2026-05-05T09:13:34.591Z</time></trkpt><trkpt lat="45.2695462" lon="15.2695555"><ele>359.5</ele><time>2026-05-05T09:13:35.591Z</time></trkpt><trkpt lat="45.269839" lon="15.269599"><ele>356.0</ele><time>2026-05-05T09:13:36.59Z</time></trkpt><trkpt lat="45.2701318" lon="15.2696551"><ele>356.0</ele><time>2026-05-05T09:13:37.59Z</time></trkpt><trkpt lat="45.2704212" lon="15.2697247"><ele>356.0</ele><time>2026-05-05T09:13:38.59Z</time></trkpt><trkpt lat="45.2707131" lon="15.2698022"><ele>350.0</ele><time>2026-05-05T09:13:39.59Z</time></trkpt><trkpt lat="45.2710035" lon="15.2699"><ele>344.0</ele><time>2026-05-05T09:13:40.591Z</time></trkpt><trkpt lat="45.2712915" lon="15.2700066"><ele>339.0</ele><time>2026-05-05T09:13:41.591Z</time></trkpt><trkpt lat="45.271577" lon="15.2701244"><ele>334.0</ele><time>2026-05-05T09:13:42.59Z</time></trkpt><trkpt lat="45.27186" lon="15.2702559"><ele>334.0</ele><time>2026-05-05T09:13:43.59Z</time></trkpt><trkpt lat="45.2721403" lon="15.2704053"><ele>334.0</ele><time>2026-05-05T09:13:44.591Z</time></trkpt><trkpt lat="45.2724181" lon="15.2705681"><ele>329.0</ele><time>2026-05-05T09:13:45.591Z</time></trkpt><trkpt lat="45.2726934" lon="15.2707453"><ele>324.0</ele><time>2026-05-05T09:13:46.59Z</time></trkpt><trkpt lat="45.2729656" lon="15.2709358"><ele>319.0</ele><time>2026-05-05T09:13:47.591Z</time></trkpt><trkpt lat="45.2732339" lon="15.2711413"><ele>314.0</ele><time>2026-05-05T09:13:48.59Z</time></trkpt><trkpt lat="45.2734992" lon="15.2713597"><ele>314.5</ele><time>2026-05-05T09:13:49.59Z</time></trkpt><trkpt lat="45.2737596" lon="15.2715897"><ele>315.0</ele><time>2026-05-05T09:13:50.591Z</time></trkpt><trkpt lat="45.2740163" lon="15.2718323"><ele>315.0</ele><time>2026-05-05T09:13:51.59Z</time></trkpt><trkpt lat="45.274271" lon="15.2720821"><ele>315.0</ele><time>2026-05-05T09:13:52.591Z</time></trkpt><trkpt lat="45.274521" lon="15.2723331"><ele>314.0</ele><time>2026-05-05T09:13:53.59Z</time></trkpt><trkpt lat="45.2747698" lon="15.2725847"><ele>313.0</ele><time>2026-05-05T09:13:54.59Z</time></trkpt><trkpt lat="45.275019" lon="15.2728331"><ele>313.0</ele><time>2026-05-05T09:13:55.59Z</time></trkpt><trkpt lat="45.2752721" lon="15.2730734"><ele>313.0</ele><time>2026-05-05T09:13:56.591Z</time></trkpt><trkpt lat="45.2755279" lon="15.273308"><ele>313.5</ele><time>2026-05-05T09:13:57.591Z</time></trkpt><trkpt lat="45.2757857" lon="15.2735357"><ele>314.0</ele><time>2026-05-05T09:13:58.591Z</time></trkpt><trkpt lat="45.2760463" lon="15.273751"><ele>311.0</ele><time>2026-05-05T09:13:59.59Z</time></trkpt><trkpt lat="45.2763116" lon="15.2739606"><ele>308.0</ele><time>2026-05-05T09:14:00.591Z</time></trkpt><trkpt lat="45.2765812" lon="15.2741574"><ele>307.5</ele><time>2026-05-05T09:14:01.59Z</time></trkpt><trkpt lat="45.2768527" lon="15.2743406"><ele>307.0</ele><time>2026-05-05T09:14:02.591Z</time></trkpt><trkpt lat="45.2771288" lon="15.274519"><ele>307.0</ele><time>2026-05-05T09:14:03.591Z</time></trkpt><trkpt lat="45.2774087" lon="15.2746884"><ele>307.0</ele><time>2026-05-05T09:14:04.591Z</time></trkpt><trkpt lat="45.2776937" lon="15.2748459"><ele>304.0</ele><time>2026-05-05T09:14:05.591Z</time></trkpt><trkpt lat="45.277981" lon="15.2749949"><ele>301.0</ele><time>2026-05-05T09:14:06.59Z</time></trkpt><trkpt lat="45.2782729" lon="15.2751323"><ele>300.0</ele><time>2026-05-05T09:14:07.59Z</time></trkpt><trkpt lat="45.2785681" lon="15.2752581"><ele>299.0</ele><time>2026-05-05T09:14:08.59Z</time></trkpt><trkpt lat="45.2788634" lon="15.2753715"><ele>300.5</ele><time>2026-05-05T09:14:09.591Z</time></trkpt><trkpt lat="45.2791602" lon="15.2754747"><ele>302.0</ele><time>2026-05-05T09:14:10.591Z</time></trkpt><trkpt lat="45.2794576" lon="15.2755651"><ele>299.5</ele><time>2026-05-05T09:14:11.59Z</time></trkpt><trkpt lat="45.2797536" lon="15.2756447"><ele>297.0</ele><time>2026-05-05T09:14:12.591Z</time></trkpt><trkpt lat="45.2800484" lon="15.2757125"><ele>297.0</ele><time>2026-05-05T09:14:13.591Z</time></trkpt><trkpt lat="45.2803433" lon="15.2757685"><ele>297.0</ele><time>2026-05-05T09:14:14.59Z</time></trkpt><trkpt lat="45.2806374" lon="15.2758105"><ele>298.5</ele><time>2026-05-05T09:14:15.59Z</time></trkpt><trkpt lat="45.2809295" lon="15.275844"><ele>300.0</ele><time>2026-05-05T09:14:16.59Z</time></trkpt><trkpt lat="45.2812221" lon="15.2758664"><ele>299.0</ele><time>2026-05-05T09:14:17.59Z</time></trkpt><trkpt lat="45.281517" lon="15.2758744"><ele>298.0</ele><time>2026-05-05T09:14:18.59Z</time></trkpt><trkpt lat="45.2818217" lon="15.2758653"><ele>298.0</ele><time>2026-05-05T09:14:19.591Z</time></trkpt><trkpt lat="45.2821314" lon="15.2758437"><ele>298.0</ele><time>2026-05-05T09:14:20.59Z</time></trkpt><trkpt lat="45.282445" lon="15.275809"><ele>294.5</ele><time>2026-05-05T09:14:21.591Z</time></trkpt><trkpt lat="45.2827659" lon="15.2757594"><ele>291.0</ele><time>2026-05-05T09:14:22.591Z</time></trkpt><trkpt lat="45.2830837" lon="15.2757022"><ele>294.5</ele><time>2026-05-05T09:14:23.59Z</time></trkpt><trkpt lat="45.2833983" lon="15.2756391"><ele>298.0</ele><time>2026-05-05T09:14:24.591Z</time></trkpt><trkpt lat="45.2837124" lon="15.2755685"><ele>290.0</ele><time>2026-05-05T09:14:25.59Z</time></trkpt><trkpt lat="45.2840242" lon="15.275485"><ele>282.0</ele><time>2026-05-05T09:14:26.591Z</time></trkpt><trkpt lat="45.2843315" lon="15.2753911"><ele>282.0</ele><time>2026-05-05T09:14:27.591Z</time></trkpt><trkpt lat="45.2846368" lon="15.2752878"><ele>282.0</ele><time>2026-05-05T09:14:28.59Z</time></trkpt><trkpt lat="45.284939" lon="15.275187"><ele>276.5</ele><time>2026-05-05T09:14:29.591Z</time></trkpt><trkpt lat="45.2852408" lon="15.2750811"><ele>271.0</ele><time>2026-05-05T09:14:30.591Z</time></trkpt><trkpt lat="45.2855407" lon="15.2749758"><ele>273.0</ele><time>2026-05-05T09:14:31.591Z</time></trkpt><trkpt lat="45.2858391" lon="15.2748603"><ele>275.0</ele><time>2026-05-05T09:14:32.59Z</time></trkpt><trkpt lat="45.2861336" lon="15.2747508"><ele>267.0</ele><time>2026-05-05T09:14:33.59Z</time></trkpt><trkpt lat="45.2864305" lon="15.2746499"><ele>259.0</ele><time>2026-05-05T09:14:34.591Z</time></trkpt><trkpt lat="45.2867315" lon="15.2745561"><ele>259.0</ele><time>2026-05-05T09:14:35.59Z</time></trkpt><trkpt lat="45.2870263" lon="15.2744678"><ele>259.0</ele><time>2026-05-05T09:14:36.59Z</time></trkpt><trkpt lat="45.2873249" lon="15.2743964"><ele>252.5</ele><time>2026-05-05T09:14:37.59Z</time></trkpt><trkpt lat="45.2876259" lon="15.2743305"><ele>246.0</ele><time>2026-05-05T09:14:38.591Z</time></trkpt><trkpt lat="45.2879223" lon="15.2742794"><ele>243.5</ele><time>2026-05-05T09:14:39.59Z</time></trkpt><trkpt lat="45.2882198" lon="15.2742381"><ele>241.0</ele><time>2026-05-05T09:14:40.591Z</time></trkpt><trkpt lat="45.2885154" lon="15.274208"><ele>241.0</ele><time>2026-05-05T09:14:41.591Z</time></trkpt><trkpt lat="45.2888104" lon="15.2741923"><ele>241.0</ele><time>2026-05-05T09:14:42.591Z</time></trkpt><trkpt lat="45.2891046" lon="15.2741871"><ele>241.5</ele><time>2026-05-05T09:14:43.59Z</time></trkpt><trkpt lat="45.2893979" lon="15.2741962"><ele>242.0</ele><time>2026-05-05T09:14:44.591Z</time></trkpt><trkpt lat="45.2896892" lon="15.274212"><ele>239.5</ele><time>2026-05-05T09:14:45.59Z</time></trkpt><trkpt lat="45.2899779" lon="15.2742382"><ele>237.0</ele><time>2026-05-05T09:14:46.59Z</time></trkpt><trkpt lat="45.2902711" lon="15.2742756"><ele>237.0</ele><time>2026-05-05T09:14:47.591Z</time></trkpt><trkpt lat="45.2905619" lon="15.2743293"><ele>237.0</ele><time>2026-05-05T09:14:48.591Z</time></trkpt><trkpt lat="45.2908513" lon="15.27439"><ele>237.0</ele><time>2026-05-05T09:14:49.591Z</time></trkpt><trkpt lat="45.2911397" lon="15.2744577"><ele>237.0</ele><time>2026-05-05T09:14:50.59Z</time></trkpt><trkpt lat="45.2914292" lon="15.2745342"><ele>235.0</ele><time>2026-05-05T09:14:51.59Z</time></trkpt><trkpt lat="45.2917132" lon="15.2746214"><ele>233.0</ele><time>2026-05-05T09:14:52.59Z</time></trkpt><trkpt lat="45.2919987" lon="15.2747197"><ele>235.5</ele><time>2026-05-05T09:14:53.59Z</time></trkpt><trkpt lat="45.2922799" lon="15.2748326"><ele>238.0</ele><time>2026-05-05T09:14:54.59Z</time></trkpt><trkpt lat="45.2925584" lon="15.2749584"><ele>238.0</ele><time>2026-05-05T09:14:55.59Z</time></trkpt><trkpt lat="45.2928358" lon="15.2750928"><ele>238.0</ele><time>2026-05-05T09:14:56.591Z</time></trkpt><trkpt lat="45.2931101" lon="15.2752385"><ele>238.0</ele><time>2026-05-05T09:14:57.59Z</time></trkpt><trkpt lat="45.2933848" lon="15.2753898"><ele>238.0</ele><time>2026-05-05T09:14:58.59Z</time></trkpt><trkpt lat="45.2936501" lon="15.2755489"><ele>239.0</ele><time>2026-05-05T09:14:59.59Z</time></trkpt><trkpt lat="45.2939167" lon="15.2757153"><ele>240.0</ele><time>2026-05-05T09:15:00.591Z</time></trkpt><trkpt lat="45.2941734" lon="15.2758893"><ele>241.5</ele><time>2026-05-05T09:15:01.59Z</time></trkpt><trkpt lat="45.2944265" lon="15.2760708"><ele>243.0</ele><time>2026-05-05T09:15:02.591Z</time></trkpt><trkpt lat="45.2946786" lon="15.2762562"><ele>241.5</ele><time>2026-05-05T09:15:03.59Z</time></trkpt><trkpt lat="45.2949287" lon="15.2764359"><ele>240.0</ele><time>2026-05-05T09:15:04.591Z</time></trkpt><trkpt lat="45.2951791" lon="15.2766143"><ele>238.0</ele><time>2026-05-05T09:15:05.591Z</time></trkpt><trkpt lat="45.2954289" lon="15.2767905"><ele>236.0</ele><time>2026-05-05T09:15:06.591Z</time></trkpt><trkpt lat="45.2956788" lon="15.276964"><ele>234.0</ele><time>2026-05-05T09:15:07.591Z</time></trkpt><trkpt lat="45.2959294" lon="15.277135"><ele>232.0</ele><time>2026-05-05T09:15:08.59Z</time></trkpt><trkpt lat="45.296181" lon="15.2772994"><ele>229.0</ele><time>2026-05-05T09:15:09.591Z</time></trkpt><trkpt lat="45.2964312" lon="15.2774545"><ele>226.0</ele><time>2026-05-05T09:15:10.591Z</time></trkpt><trkpt lat="45.2966843" lon="15.2776025"><ele>226.0</ele><time>2026-05-05T09:15:11.59Z</time></trkpt><trkpt lat="45.2969391" lon="15.2777443"><ele>226.0</ele><time>2026-05-05T09:15:12.59Z</time></trkpt><trkpt lat="45.297196" lon="15.277877"><ele>219.0</ele><time>2026-05-05T09:15:13.591Z</time></trkpt><trkpt lat="45.2974552" lon="15.2780035"><ele>212.0</ele><time>2026-05-05T09:15:14.59Z</time></trkpt><trkpt lat="45.297718" lon="15.27812"><ele>211.0</ele><time>2026-05-05T09:15:15.591Z</time></trkpt><trkpt lat="45.2979817" lon="15.2782278"><ele>210.0</ele><time>2026-05-05T09:15:16.59Z</time></trkpt><trkpt lat="45.298245" lon="15.2783302"><ele>222.0</ele><time>2026-05-05T09:15:17.59Z</time></trkpt><trkpt lat="45.2985115" lon="15.2784162"><ele>234.0</ele><time>2026-05-05T09:15:18.59Z</time></trkpt><trkpt lat="45.2987766" lon="15.2785056"><ele>238.5</ele><time>2026-05-05T09:15:19.591Z</time></trkpt><trkpt lat="45.2990428" lon="15.2785849"><ele>243.0</ele><time>2026-05-05T09:15:20.591Z</time></trkpt><trkpt lat="45.2993065" lon="15.2786642"><ele>243.0</ele><time>2026-05-05T09:15:21.591Z</time></trkpt><trkpt lat="45.2995703" lon="15.2787316"><ele>243.0</ele><time>2026-05-05T09:15:22.591Z</time></trkpt><trkpt lat="45.2998307" lon="15.2787922"><ele>242.5</ele><time>2026-05-05T09:15:23.59Z</time></trkpt><trkpt lat="45.3000902" lon="15.2788423"><ele>242.0</ele><time>2026-05-05T09:15:24.59Z</time></trkpt><trkpt lat="45.3003506" lon="15.2788835"><ele>242.5</ele><time>2026-05-05T09:15:25.591Z</time></trkpt><trkpt lat="45.3006097" lon="15.278917"><ele>243.0</ele><time>2026-05-05T09:15:26.59Z</time></trkpt><trkpt lat="45.300869" lon="15.2789432"><ele>244.0</ele><time>2026-05-05T09:15:27.591Z</time></trkpt><trkpt lat="45.3011279" lon="15.2789597"><ele>245.0</ele><time>2026-05-05T09:15:28.591Z</time></trkpt><trkpt lat="45.3013817" lon="15.2789718"><ele>246.5</ele><time>2026-05-05T09:15:29.591Z</time></trkpt><trkpt lat="45.3016349" lon="15.278978"><ele>248.0</ele><time>2026-05-05T09:15:30.591Z</time></trkpt><trkpt lat="45.3018856" lon="15.2789817"><ele>248.0</ele><time>2026-05-05T09:15:31.591Z</time></trkpt><trkpt lat="45.3021332" lon="15.2789816"><ele>248.0</ele><time>2026-05-05T09:15:32.59Z</time></trkpt><trkpt lat="45.3023719" lon="15.2789802"><ele>247.5</ele><time>2026-05-05T09:15:33.591Z</time></trkpt><trkpt lat="45.3026082" lon="15.2789742"><ele>247.0</ele><time>2026-05-05T09:15:34.591Z</time></trkpt><trkpt lat="45.3028438" lon="15.2789671"><ele>247.0</ele><time>2026-05-05T09:15:35.59Z</time></trkpt><trkpt lat="45.3030791" lon="15.2789613"><ele>247.0</ele><time>2026-05-05T09:15:36.589Z</time></trkpt><trkpt lat="45.3033049" lon="15.2789588"><ele>247.66666666666666</ele><time>2026-05-05T09:15:37.59Z</time></trkpt><trkpt lat="45.3035263" lon="15.2789528"><ele>248.33333333333331</ele><time>2026-05-05T09:15:38.591Z</time></trkpt><trkpt lat="45.3037444" lon="15.2789518"><ele>249.0</ele><time>2026-05-05T09:15:39.59Z</time></trkpt><trkpt lat="45.303964" lon="15.2789535"><ele>249.33333333333331</ele><time>2026-05-05T09:15:40.59Z</time></trkpt><trkpt lat="45.304174" lon="15.2789476"><ele>249.66666666666666</ele><time>2026-05-05T09:15:41.591Z</time></trkpt><trkpt lat="45.3043918" lon="15.2789462"><ele>250.0</ele><time>2026-05-05T09:15:42.591Z</time></trkpt><trkpt lat="45.3046136" lon="15.278951"><ele>248.66666666666666</ele><time>2026-05-05T09:15:43.59Z</time></trkpt><trkpt lat="45.3048366" lon="15.2789595"><ele>247.33333333333331</ele><time>2026-05-05T09:15:44.591Z</time></trkpt><trkpt lat="45.3050612" lon="15.2789733"><ele>246.0</ele><time>2026-05-05T09:15:45.59Z</time></trkpt><trkpt lat="45.305284" lon="15.2789968"><ele>246.0</ele><time>2026-05-05T09:15:46.591Z</time></trkpt><trkpt lat="45.3055111" lon="15.2790286"><ele>246.0</ele><time>2026-05-05T09:15:47.591Z</time></trkpt><trkpt lat="45.3057382" lon="15.2790643"><ele>246.66666666666669</ele><time>2026-05-05T09:15:48.591Z</time></trkpt><trkpt lat="45.3059623" lon="15.2790998"><ele>247.33333333333334</ele><time>2026-05-05T09:15:49.591Z</time></trkpt><trkpt lat="45.3061822" lon="15.279131"><ele>248.0</ele><time>2026-05-05T09:15:50.59Z</time></trkpt><trkpt lat="45.3063859" lon="15.2791644"><ele>247.0</ele><time>2026-05-05T09:15:51.591Z</time></trkpt><trkpt lat="45.3065737" lon="15.2791976"><ele>246.0</ele><time>2026-05-05T09:15:52.59Z</time></trkpt><trkpt lat="45.306749" lon="15.2792362"><ele>245.0</ele><time>2026-05-05T09:15:53.59Z</time></trkpt><trkpt lat="45.3069121" lon="15.2792739"><ele>245.0</ele><time>2026-05-05T09:15:54.59Z</time></trkpt><trkpt lat="45.3070621" lon="15.2793187"><ele>245.0</ele><time>2026-05-05T09:15:55.59Z</time></trkpt><trkpt lat="45.3071948" lon="15.2793733"><ele>245.0</ele><time>2026-05-05T09:15:56.591Z</time></trkpt><trkpt lat="45.3073223" lon="15.2794442"><ele>245.0</ele><time>2026-05-05T09:15:57.591Z</time></trkpt><trkpt lat="45.3074187" lon="15.2795067"><ele>245.16666666666669</ele><time>2026-05-05T09:15:58.59Z</time></trkpt><trkpt lat="45.3075112" lon="15.2795715"><ele>245.33333333333334</ele><time>2026-05-05T09:15:59.59Z</time></trkpt><trkpt lat="45.3075931" lon="15.2796318"><ele>245.5</ele><time>2026-05-05T09:16:00.59Z</time></trkpt><trkpt lat="45.3076669" lon="15.279698"><ele>245.66666666666669</ele><time>2026-05-05T09:16:01.591Z</time></trkpt><trkpt lat="45.3077271" lon="15.2797632"><ele>245.83333333333334</ele><time>2026-05-05T09:16:02.591Z</time></trkpt><trkpt lat="45.3077777" lon="15.2798376"><ele>246.0</ele><time>2026-05-05T09:16:03.591Z</time></trkpt><trkpt lat="45.3078247" lon="15.279913"><ele>246.0</ele><time>2026-05-05T09:16:04.591Z</time></trkpt><trkpt lat="45.3078679" lon="15.2799839"><ele>246.00000000000003</ele><time>2026-05-05T09:16:05.591Z</time></trkpt><trkpt lat="45.3079463" lon="15.2801077"><ele>246.00000000000003</ele><time>2026-05-05T09:16:07.591Z</time></trkpt><trkpt lat="45.3080293" lon="15.2802091"><ele>246.0</ele><time>2026-05-05T09:16:09.59Z</time></trkpt><trkpt lat="45.3081108" lon="15.2802811"><ele>246.0</ele><time>2026-05-05T09:16:11.591Z</time></trkpt><trkpt lat="45.3037444" lon="15.2789518"><ele>247.33333333333331</ele><time>2026-05-05T09:15:39.59Z</time></trkpt><trkpt lat="45.303964" lon="15.2789535"><ele>248.66666666666666</ele><time>2026-05-05T09:15:40.59Z</time></trkpt><trkpt lat="45.304174" lon="15.2789476"><ele>250.0</ele><time>2026-05-05T09:15:41.591Z</time></trkpt><trkpt lat="45.3043918" lon="15.2789462"><ele>250.0</ele><time>2026-05-05T09:15:42.591Z</time></trkpt><trkpt lat="45.3046136" lon="15.278951"><ele>250.0</ele><time>2026-05-05T09:15:43.59Z</time></trkpt><trkpt lat="45.3048366" lon="15.2789595"><ele>250.0</ele><time>2026-05-05T09:15:44.591Z</time></trkpt><trkpt lat="45.3050612" lon="15.2789733"><ele>248.0</ele><time>2026-05-05T09:15:45.59Z</time></trkpt><trkpt lat="45.305284" lon="15.2789968"><ele>246.0</ele><time>2026-05-05T09:15:46.591Z</time></trkpt><trkpt lat="45.3055111" lon="15.2790286"><ele>247.0</ele><time>2026-05-05T09:15:47.591Z</time></trkpt><trkpt lat="45.3057382" lon="15.2790643"><ele>248.0</ele><time>2026-05-05T09:15:48.591Z</time></trkpt><trkpt lat="45.3059623" lon="15.2790998"><ele>248.0</ele><time>2026-05-05T09:15:49.591Z</time></trkpt><trkpt lat="45.3061822" lon="15.279131"><ele>248.0</ele><time>2026-05-05T09:15:50.59Z</time></trkpt><trkpt lat="45.3063859" lon="15.2791644"><ele>248.0</ele><time>2026-05-05T09:15:51.591Z</time></trkpt><trkpt lat="45.3065737" lon="15.2791976"><ele>247.0</ele><time>2026-05-05T09:15:52.59Z</time></trkpt><trkpt lat="45.306749" lon="15.2792362"><ele>246.0</ele><time>2026-05-05T09:15:53.59Z</time></trkpt><trkpt lat="45.3069121" lon="15.2792739"><ele>245.0</ele><time>2026-05-05T09:15:54.59Z</time></trkpt><trkpt lat="45.3070621" lon="15.2793187"><ele>245.0</ele><time>2026-05-05T09:15:55.59Z</time></trkpt><trkpt lat="45.3071948" lon="15.2793733"><ele>245.0</ele><time>2026-05-05T09:15:56.591Z</time></trkpt><trkpt lat="45.3073223" lon="15.2794442"><ele>245.0</ele><time>2026-05-05T09:15:57.591Z</time></trkpt><trkpt lat="45.3074187" lon="15.2795067"><ele>245.0</ele><time>2026-05-05T09:15:58.59Z</time></trkpt><trkpt lat="45.3075112" lon="15.2795715"><ele>245.16666666666669</ele><time>2026-05-05T09:15:59.59Z</time></trkpt><trkpt lat="45.3075931" lon="15.2796318"><ele>245.33333333333334</ele><time>2026-05-05T09:16:00.59Z</time></trkpt><trkpt lat="45.3076669" lon="15.279698"><ele>245.5</ele><time>2026-05-05T09:16:01.591Z</time></trkpt><trkpt lat="45.3077271" lon="15.2797632"><ele>245.66666666666669</ele><time>2026-05-05T09:16:02.591Z</time></trkpt><trkpt lat="45.3077777" lon="15.2798376"><ele>245.83333333333334</ele><time>2026-05-05T09:16:03.591Z</time></trkpt><trkpt lat="45.3078247" lon="15.279913"><ele>246.0</ele><time>2026-05-05T09:16:04.591Z</time></trkpt><trkpt lat="45.3078679" lon="15.2799839"><ele>246.0</ele><time>2026-05-05T09:16:05.591Z</time></trkpt><trkpt lat="45.3079463" lon="15.2801077"><ele>246.00000000000003</ele><time>2026-05-05T09:16:07.591Z</time></trkpt><trkpt lat="45.3080293" lon="15.2802091"><ele>246.00000000000003</ele><time>2026-05-05T09:16:09.59Z</time></trkpt><trkpt lat="45.3081108" lon="15.2802811"><ele>246.0</ele><time>2026-05-05T09:16:11.591Z</time></trkpt><trkpt lat="45.3081735" lon="15.2803127"><ele>246.0</ele><time>2026-05-05T09:16:14.59Z</time></trkpt><trkpt lat="45.3082459" lon="15.2803027"><ele>245.71428571428575</ele><time>2026-05-05T09:20:11.591Z</time></trkpt><trkpt lat="45.308313" lon="15.2803128"><ele>245.42857142857144</ele><time>2026-05-05T09:20:17.589Z</time></trkpt><trkpt lat="45.3082427" lon="15.2802847"><ele>245.14285714285714</ele><time>2026-05-05T09:20:52.59Z</time></trkpt><trkpt lat="45.3081806" lon="15.2802995"><ele>244.85714285714286</ele><time>2026-05-05T09:20:57.591Z</time></trkpt><trkpt lat="45.308198" lon="15.2802088"><ele>244.57142857142856</ele><time>2026-05-05T09:21:38.58Z</time></trkpt><trkpt lat="45.3082715" lon="15.280202"><ele>244.28571428571425</ele><time>2026-05-05T09:21:45.58Z</time></trkpt><trkpt lat="45.3083203" lon="15.2802975"><ele>243.99999999999997</ele><time>2026-05-05T09:21:55.58Z</time></trkpt><trkpt lat="45.3083803" lon="15.2803334"><ele>243.99999999999997</ele><time>2026-05-05T09:22:22.579Z</time></trkpt><trkpt lat="45.308447" lon="15.2803379"><ele>244.0</ele><time>2026-05-05T09:22:54.579Z</time></trkpt><trkpt lat="45.3085089" lon="15.2803058"><ele>244.0</ele><time>2026-05-05T09:24:47.544Z</time></trkpt><trkpt lat="45.3085613" lon="15.2801635"><ele>244.0</ele><time>2026-05-05T09:24:48.579Z</time></trkpt><trkpt lat="45.3085942" lon="15.2800762"><ele>243.99999999999997</ele><time>2026-05-05T09:24:49.534Z</time></trkpt><trkpt lat="45.3085713" lon="15.2802046"><ele>244.0</ele><time>2026-05-05T09:24:50.477Z</time></trkpt><trkpt lat="45.3085629" lon="15.2803125"><ele>244.0</ele><time>2026-05-05T09:24:52.469Z</time></trkpt><trkpt lat="45.3085546" lon="15.2804273"><ele>243.99999999999997</ele><time>2026-05-05T09:26:12.579Z</time></trkpt><trkpt lat="45.3084944" lon="15.2803685"><ele>243.99999999999997</ele><time>2026-05-05T09:26:40.579Z</time></trkpt><trkpt lat="45.3083774" lon="15.2804274"><ele>244.0</ele><time>2026-05-05T09:27:15.58Z</time></trkpt><trkpt lat="45.3083091" lon="15.280369"><ele>244.0</ele><time>2026-05-05T09:27:48.579Z</time></trkpt><trkpt lat="45.3083483" lon="15.2802404"><ele>244.0</ele><time>2026-05-05T09:34:50.58Z</time></trkpt><trkpt lat="45.3084378" lon="15.2802009"><ele>243.99999999999997</ele><time>2026-05-05T09:34:52.58Z</time></trkpt><trkpt lat="45.3085186" lon="15.2801737"><ele>243.99999999999997</ele><time>2026-05-05T09:34:54.581Z</time></trkpt><trkpt lat="45.3086085" lon="15.2801208"><ele>244.0</ele><time>2026-05-05T09:34:56.58Z</time></trkpt><trkpt lat="45.308734" lon="15.2801024"><ele>244.0</ele><time>2026-05-05T09:34:58.58Z</time></trkpt><trkpt lat="45.3088061" lon="15.2801283"><ele>243.99999999999997</ele><time>2026-05-05T09:34:59.581Z</time></trkpt><trkpt lat="45.3088798" lon="15.2801582"><ele>244.0</ele><time>2026-05-05T09:35:00.58Z</time></trkpt><trkpt lat="45.3089636" lon="15.2801901"><ele>244.0</ele><time>2026-05-05T09:35:01.581Z</time></trkpt><trkpt lat="45.309051" lon="15.2802221"><ele>244.0</ele><time>2026-05-05T09:35:02.58Z</time></trkpt><trkpt lat="45.3091432" lon="15.2802551"><ele>243.99999999999997</ele><time>2026-05-05T09:35:03.58Z</time></trkpt><trkpt lat="45.3092393" lon="15.2802876"><ele>244.0</ele><time>2026-05-05T09:35:04.58Z</time></trkpt><trkpt lat="45.30934" lon="15.280324"><ele>243.99999999999997</ele><time>2026-05-05T09:35:05.581Z</time></trkpt><trkpt lat="45.3094398" lon="15.2803585"><ele>244.0</ele><time>2026-05-05T09:35:06.58Z</time></trkpt><trkpt lat="45.309528" lon="15.280387"><ele>244.0</ele><time>2026-05-05T09:35:07.58Z</time></trkpt><trkpt lat="45.3096067" lon="15.2804131"><ele>244.0</ele><time>2026-05-05T09:35:08.58Z</time></trkpt><trkpt lat="45.3096743" lon="15.2804393"><ele>243.99999999999997</ele><time>2026-05-05T09:35:09.581Z</time></trkpt><trkpt lat="45.3097356" lon="15.2804598"><ele>244.0</ele><time>2026-05-05T09:35:10.581Z</time></trkpt><trkpt lat="45.3097996" lon="15.280486"><ele>243.99999999999997</ele><time>2026-05-05T09:35:11.581Z</time></trkpt><trkpt lat="45.3098684" lon="15.2805076"><ele>244.0</ele><time>2026-05-05T09:35:12.581Z</time></trkpt><trkpt lat="45.3099419" lon="15.2805343"><ele>244.0</ele><time>2026-05-05T09:35:13.58Z</time></trkpt><trkpt lat="45.3100249" lon="15.2805564"><ele>244.0</ele><time>2026-05-05T09:35:14.58Z</time></trkpt><trkpt lat="45.3101175" lon="15.2805755"><ele>243.99999999999997</ele><time>2026-05-05T09:35:15.58Z</time></trkpt><trkpt lat="45.3102203" lon="15.2805909"><ele>244.0</ele><time>2026-05-05T09:35:16.58Z</time></trkpt><trkpt lat="45.3103353" lon="15.2806067"><ele>244.25</ele><time>2026-05-05T09:35:17.58Z</time></trkpt><trkpt lat="45.3104516" lon="15.2806318"><ele>244.5</ele><time>2026-05-05T09:35:18.581Z</time></trkpt><trkpt lat="45.3105745" lon="15.2806707"><ele>244.75</ele><time>2026-05-05T09:35:19.58Z</time></trkpt><trkpt lat="45.3107117" lon="15.2807295"><ele>245.0</ele><time>2026-05-05T09:35:20.581Z</time></trkpt><trkpt lat="45.3108631" lon="15.2808111"><ele>243.66666666666669</ele><time>2026-05-05T09:35:21.581Z</time></trkpt><trkpt lat="45.3110346" lon="15.2808957"><ele>242.33333333333331</ele><time>2026-05-05T09:35:22.58Z</time></trkpt><trkpt lat="45.3112149" lon="15.2810054"><ele>241.0</ele><time>2026-05-05T09:35:23.581Z</time></trkpt><trkpt lat="45.3114009" lon="15.2811083"><ele>241.33333333333331</ele><time>2026-05-05T09:35:24.58Z</time></trkpt><trkpt lat="45.3115924" lon="15.281219"><ele>241.66666666666669</ele><time>2026-05-05T09:35:25.581Z</time></trkpt><trkpt lat="45.3117887" lon="15.2813404"><ele>242.0</ele><time>2026-05-05T09:35:26.58Z</time></trkpt><trkpt lat="45.3119863" lon="15.2814638"><ele>242.33333333333334</ele><time>2026-05-05T09:35:27.581Z</time></trkpt><trkpt lat="45.3121796" lon="15.2815899"><ele>242.66666666666669</ele><time>2026-05-05T09:35:28.58Z</time></trkpt><trkpt lat="45.3123775" lon="15.2817173"><ele>243.0</ele><time>2026-05-05T09:35:29.581Z</time></trkpt><trkpt lat="45.3125708" lon="15.2818423"><ele>244.33333333333331</ele><time>2026-05-05T09:35:30.58Z</time></trkpt><trkpt lat="45.3127674" lon="15.281974"><ele>245.66666666666666</ele><time>2026-05-05T09:35:31.58Z</time></trkpt><trkpt lat="45.3129602" lon="15.2821056"><ele>247.0</ele><time>2026-05-05T09:35:32.581Z</time></trkpt><trkpt lat="45.3131626" lon="15.2822408"><ele>247.66666666666666</ele><time>2026-05-05T09:35:33.581Z</time></trkpt><trkpt lat="45.3133554" lon="15.2823762"><ele>248.33333333333331</ele><time>2026-05-05T09:35:34.581Z</time></trkpt><trkpt lat="45.3135484" lon="15.2825136"><ele>249.0</ele><time>2026-05-05T09:35:35.581Z</time></trkpt><trkpt lat="45.3137526" lon="15.2826363"><ele>243.0</ele><time>2026-05-05T09:35:36.581Z</time></trkpt><trkpt lat="45.3094398" lon="15.2803585"><ele>243.0</ele><time>2026-05-05T09:35:06.58Z</time></trkpt><trkpt lat="45.309528" lon="15.280387"><ele>243.0</ele><time>2026-05-05T09:35:07.58Z</time></trkpt><trkpt lat="45.3096067" lon="15.2804131"><ele>243.0</ele><time>2026-05-05T09:35:08.58Z</time></trkpt><trkpt lat="45.3096743" lon="15.2804393"><ele>243.0</ele><time>2026-05-05T09:35:09.581Z</time></trkpt><trkpt lat="45.3097356" lon="15.2804598"><ele>243.0</ele><time>2026-05-05T09:35:10.581Z</time></trkpt><trkpt lat="45.3097996" lon="15.280486"><ele>243.0</ele><time>2026-05-05T09:35:11.581Z</time></trkpt><trkpt lat="45.3098684" lon="15.2805076"><ele>243.0</ele><time>2026-05-05T09:35:12.581Z</time></trkpt><trkpt lat="45.3099419" lon="15.2805343"><ele>243.2</ele><time>2026-05-05T09:35:13.58Z</time></trkpt><trkpt lat="45.3100249" lon="15.2805564"><ele>243.4</ele><time>2026-05-05T09:35:14.58Z</time></trkpt><trkpt lat="45.3101175" lon="15.2805755"><ele>243.59999999999997</ele><time>2026-05-05T09:35:15.58Z</time></trkpt><trkpt lat="45.3102203" lon="15.2805909"><ele>243.79999999999998</ele><time>2026-05-05T09:35:16.58Z</time></trkpt><trkpt lat="45.3103353" lon="15.2806067"><ele>244.0</ele><time>2026-05-05T09:35:17.58Z</time></trkpt><trkpt lat="45.3104516" lon="15.2806318"><ele>244.25</ele><time>2026-05-05T09:35:18.581Z</time></trkpt><trkpt lat="45.3105745" lon="15.2806707"><ele>244.5</ele><time>2026-05-05T09:35:19.58Z</time></trkpt><trkpt lat="45.3107117" lon="15.2807295"><ele>244.75</ele><time>2026-05-05T09:35:20.581Z</time></trkpt><trkpt lat="45.3108631" lon="15.2808111"><ele>245.0</ele><time>2026-05-05T09:35:21.581Z</time></trkpt><trkpt lat="45.3110346" lon="15.2808957"><ele>244.0</ele><time>2026-05-05T09:35:22.58Z</time></trkpt><trkpt lat="45.3112149" lon="15.2810054"><ele>243.0</ele><time>2026-05-05T09:35:23.581Z</time></trkpt><trkpt lat="45.3114009" lon="15.2811083"><ele>242.0</ele><time>2026-05-05T09:35:24.58Z</time></trkpt><trkpt lat="45.3115924" lon="15.281219"><ele>242.0</ele><time>2026-05-05T09:35:25.581Z</time></trkpt><trkpt lat="45.3117887" lon="15.2813404"><ele>242.0</ele><time>2026-05-05T09:35:26.58Z</time></trkpt><trkpt lat="45.3119863" lon="15.2814638"><ele>242.0</ele><time>2026-05-05T09:35:27.581Z</time></trkpt><trkpt lat="45.3121796" lon="15.2815899"><ele>244.0</ele><time>2026-05-05T09:35:28.58Z</time></trkpt><trkpt lat="45.3123775" lon="15.2817173"><ele>246.0</ele><time>2026-05-05T09:35:29.581Z</time></trkpt><trkpt lat="45.3125708" lon="15.2818423"><ele>248.0</ele><time>2026-05-05T09:35:30.58Z</time></trkpt><trkpt lat="45.3127674" lon="15.281974"><ele>248.0</ele><time>2026-05-05T09:35:31.58Z</time></trkpt><trkpt lat="45.3129602" lon="15.2821056"><ele>248.0</ele><time>2026-05-05T09:35:32.581Z</time></trkpt><trkpt lat="45.3131626" lon="15.2822408"><ele>248.0</ele><time>2026-05-05T09:35:33.581Z</time></trkpt><trkpt lat="45.3133554" lon="15.2823762"><ele>248.33333333333334</ele><time>2026-05-05T09:35:34.581Z</time></trkpt><trkpt lat="45.3135484" lon="15.2825136"><ele>248.66666666666669</ele><time>2026-05-05T09:35:35.581Z</time></trkpt><trkpt lat="45.3137526" lon="15.2826363"><ele>249.0</ele><time>2026-05-05T09:35:36.581Z</time></trkpt><trkpt lat="45.3139503" lon="15.2827606"><ele>250.0</ele><time>2026-05-05T09:35:37.581Z</time></trkpt><trkpt lat="45.3141602" lon="15.282867"><ele>251.0</ele><time>2026-05-05T09:35:38.581Z</time></trkpt><trkpt lat="45.3143799" lon="15.2829779"><ele>251.0</ele><time>2026-05-05T09:35:39.58Z</time></trkpt><trkpt lat="45.3146001" lon="15.2830859"><ele>251.0</ele><time>2026-05-05T09:35:40.58Z</time></trkpt><trkpt lat="45.3148229" lon="15.2831865"><ele>249.0</ele><time>2026-05-05T09:35:41.581Z</time></trkpt><trkpt lat="45.315045" lon="15.2832844"><ele>247.0</ele><time>2026-05-05T09:35:42.581Z</time></trkpt><trkpt lat="45.3152711" lon="15.2833866"><ele>247.0</ele><time>2026-05-05T09:35:43.58Z</time></trkpt><trkpt lat="45.3155107" lon="15.2834642"><ele>247.0</ele><time>2026-05-05T09:35:44.581Z</time></trkpt><trkpt lat="45.3157415" lon="15.2835548"><ele>247.0</ele><time>2026-05-05T09:35:45.581Z</time></trkpt><trkpt lat="45.3159746" lon="15.2836328"><ele>247.0</ele><time>2026-05-05T09:35:46.58Z</time></trkpt><trkpt lat="45.3162089" lon="15.2837033"><ele>243.5</ele><time>2026-05-05T09:35:47.58Z</time></trkpt><trkpt lat="45.316449" lon="15.2837683"><ele>240.0</ele><time>2026-05-05T09:35:48.581Z</time></trkpt><trkpt lat="45.3166848" lon="15.2838266"><ele>240.0</ele><time>2026-05-05T09:35:49.581Z</time></trkpt><trkpt lat="45.3169221" lon="15.2838684"><ele>240.0</ele><time>2026-05-05T09:35:50.58Z</time></trkpt><trkpt lat="45.3171653" lon="15.2839114"><ele>243.0</ele><time>2026-05-05T09:35:51.581Z</time></trkpt><trkpt lat="45.3174072" lon="15.283944"><ele>246.0</ele><time>2026-05-05T09:35:52.58Z</time></trkpt><trkpt lat="45.3176544" lon="15.283971"><ele>246.0</ele><time>2026-05-05T09:35:53.58Z</time></trkpt><trkpt lat="45.3178993" lon="15.2839925"><ele>246.0</ele><time>2026-05-05T09:35:54.581Z</time></trkpt><trkpt lat="45.3181471" lon="15.2840083"><ele>245.0</ele><time>2026-05-05T09:35:55.58Z</time></trkpt><trkpt lat="45.3184021" lon="15.2839945"><ele>244.0</ele><time>2026-05-05T09:35:56.58Z</time></trkpt><trkpt lat="45.3186564" lon="15.283987"><ele>241.0</ele><time>2026-05-05T09:35:57.58Z</time></trkpt><trkpt lat="45.3189122" lon="15.2839716"><ele>238.0</ele><time>2026-05-05T09:35:58.581Z</time></trkpt><trkpt lat="45.3191676" lon="15.2839511"><ele>235.0</ele><time>2026-05-05T09:35:59.58Z</time></trkpt><trkpt lat="45.3194232" lon="15.2839112"><ele>232.0</ele><time>2026-05-05T09:36:00.581Z</time></trkpt><trkpt lat="45.3196783" lon="15.2838728"><ele>230.5</ele><time>2026-05-05T09:36:01.581Z</time></trkpt><trkpt lat="45.3199324" lon="15.2838279"><ele>229.0</ele><time>2026-05-05T09:36:02.58Z</time></trkpt><trkpt lat="45.3201901" lon="15.2837676"><ele>229.0</ele><time>2026-05-05T09:36:03.58Z</time></trkpt><trkpt lat="45.3204485" lon="15.2837041"><ele>229.0</ele><time>2026-05-05T09:36:04.58Z</time></trkpt><trkpt lat="45.3207053" lon="15.2836366"><ele>225.0</ele><time>2026-05-05T09:36:05.581Z</time></trkpt><trkpt lat="45.3209602" lon="15.2835542"><ele>221.0</ele><time>2026-05-05T09:36:06.581Z</time></trkpt><trkpt lat="45.3212136" lon="15.2834695"><ele>218.0</ele><time>2026-05-05T09:36:07.58Z</time></trkpt><trkpt lat="45.3214666" lon="15.2833794"><ele>215.0</ele><time>2026-05-05T09:36:08.581Z</time></trkpt><trkpt lat="45.3217207" lon="15.2832859"><ele>215.0</ele><time>2026-05-05T09:36:09.581Z</time></trkpt><trkpt lat="45.3219758" lon="15.2831866"><ele>215.0</ele><time>2026-05-05T09:36:10.58Z</time></trkpt><trkpt lat="45.3222274" lon="15.2830803"><ele>213.5</ele><time>2026-05-05T09:36:11.58Z</time></trkpt><trkpt lat="45.3224775" lon="15.282974"><ele>212.0</ele><time>2026-05-05T09:36:12.58Z</time></trkpt><trkpt lat="45.3227287" lon="15.2828658"><ele>212.0</ele><time>2026-05-05T09:36:13.581Z</time></trkpt><trkpt lat="45.3229827" lon="15.2827398"><ele>212.0</ele><time>2026-05-05T09:36:14.581Z</time></trkpt><trkpt lat="45.3232383" lon="15.2826079"><ele>211.0</ele><time>2026-05-05T09:36:15.58Z</time></trkpt><trkpt lat="45.3234964" lon="15.2824703"><ele>210.0</ele><time>2026-05-05T09:36:16.581Z</time></trkpt><trkpt lat="45.3237577" lon="15.2823277"><ele>209.5</ele><time>2026-05-05T09:36:17.581Z</time></trkpt><trkpt lat="45.3240187" lon="15.2821817"><ele>209.0</ele><time>2026-05-05T09:36:18.58Z</time></trkpt><trkpt lat="45.324283" lon="15.2820282"><ele>209.0</ele><time>2026-05-05T09:36:19.581Z</time></trkpt><trkpt lat="45.3245396" lon="15.2818772"><ele>209.0</ele><time>2026-05-05T09:36:20.581Z</time></trkpt><trkpt lat="45.324797" lon="15.2817269"><ele>196.0</ele><time>2026-05-05T09:36:21.581Z</time></trkpt><trkpt lat="45.3250524" lon="15.2815697"><ele>183.0</ele><time>2026-05-05T09:36:22.581Z</time></trkpt><trkpt lat="45.3253076" lon="15.2814095"><ele>187.5</ele><time>2026-05-05T09:36:23.581Z</time></trkpt><trkpt lat="45.3255644" lon="15.2812531"><ele>192.0</ele><time>2026-05-05T09:36:24.581Z</time></trkpt><trkpt lat="45.3258212" lon="15.2810851"><ele>192.0</ele><time>2026-05-05T09:36:25.581Z</time></trkpt><trkpt lat="45.3260726" lon="15.2809253"><ele>192.0</ele><time>2026-05-05T09:36:26.58Z</time></trkpt><trkpt lat="45.3263247" lon="15.2807654"><ele>204.0</ele><time>2026-05-05T09:36:27.58Z</time></trkpt><trkpt lat="45.3265773" lon="15.2805949"><ele>216.0</ele><time>2026-05-05T09:36:28.58Z</time></trkpt><trkpt lat="45.3268244" lon="15.280417"><ele>216.0</ele><time>2026-05-05T09:36:29.581Z</time></trkpt><trkpt lat="45.3270679" lon="15.2802473"><ele>216.0</ele><time>2026-05-05T09:36:30.58Z</time></trkpt><trkpt lat="45.3273094" lon="15.2800667"><ele>216.0</ele><time>2026-05-05T09:36:31.581Z</time></trkpt><trkpt lat="45.3275533" lon="15.2798891"><ele>216.0</ele><time>2026-05-05T09:36:32.581Z</time></trkpt><trkpt lat="45.3277863" lon="15.2797121"><ele>216.0</ele><time>2026-05-05T09:36:33.58Z</time></trkpt><trkpt lat="45.3280093" lon="15.2795447"><ele>216.0</ele><time>2026-05-05T09:36:34.581Z</time></trkpt><trkpt lat="45.3282554" lon="15.2793604"><ele>213.0</ele><time>2026-05-05T09:36:35.581Z</time></trkpt><trkpt lat="45.3284919" lon="15.2791738"><ele>210.0</ele><time>2026-05-05T09:36:36.58Z</time></trkpt><trkpt lat="45.3287217" lon="15.2789988"><ele>206.0</ele><time>2026-05-05T09:36:37.581Z</time></trkpt><trkpt lat="45.3289634" lon="15.2788189"><ele>202.0</ele><time>2026-05-05T09:36:38.581Z</time></trkpt><trkpt lat="45.3291974" lon="15.2786477"><ele>202.0</ele><time>2026-05-05T09:36:39.581Z</time></trkpt><trkpt lat="45.3294288" lon="15.2784726"><ele>202.0</ele><time>2026-05-05T09:36:40.58Z</time></trkpt><trkpt lat="45.3296632" lon="15.2782974"><ele>207.5</ele><time>2026-05-05T09:36:41.581Z</time></trkpt><trkpt lat="45.3299011" lon="15.2781274"><ele>213.0</ele><time>2026-05-05T09:36:42.581Z</time></trkpt><trkpt lat="45.3301429" lon="15.277953"><ele>213.5</ele><time>2026-05-05T09:36:43.58Z</time></trkpt><trkpt lat="45.330377" lon="15.2777856"><ele>214.0</ele><time>2026-05-05T09:36:44.581Z</time></trkpt><trkpt lat="45.330623" lon="15.2776146"><ele>217.0</ele><time>2026-05-05T09:36:45.581Z</time></trkpt><trkpt lat="45.3308603" lon="15.2774562"><ele>220.0</ele><time>2026-05-05T09:36:46.58Z</time></trkpt><trkpt lat="45.3310901" lon="15.2772973"><ele>220.0</ele><time>2026-05-05T09:36:47.58Z</time></trkpt><trkpt lat="45.3313452" lon="15.2771412"><ele>220.0</ele><time>2026-05-05T09:36:48.581Z</time></trkpt><trkpt lat="45.3315922" lon="15.2769964"><ele>219.5</ele><time>2026-05-05T09:36:49.581Z</time></trkpt><trkpt lat="45.3318356" lon="15.2768533"><ele>219.0</ele><time>2026-05-05T09:36:50.581Z</time></trkpt><trkpt lat="45.3320887" lon="15.276704"><ele>219.0</ele><time>2026-05-05T09:36:51.58Z</time></trkpt><trkpt lat="45.3323486" lon="15.2765716"><ele>219.0</ele><time>2026-05-05T09:36:52.581Z</time></trkpt><trkpt lat="45.3326086" lon="15.2764426"><ele>219.5</ele><time>2026-05-05T09:36:53.58Z</time></trkpt><trkpt lat="45.3328603" lon="15.2763149"><ele>220.0</ele><time>2026-05-05T09:36:54.581Z</time></trkpt><trkpt lat="45.3331112" lon="15.276202"><ele>218.5</ele><time>2026-05-05T09:36:55.581Z</time></trkpt><trkpt lat="45.3333644" lon="15.2760868"><ele>217.0</ele><time>2026-05-05T09:36:56.58Z</time></trkpt><trkpt lat="45.3336173" lon="15.2759747"><ele>217.0</ele><time>2026-05-05T09:36:57.58Z</time></trkpt><trkpt lat="45.3338675" lon="15.2758683"><ele>217.0</ele><time>2026-05-05T09:36:58.581Z</time></trkpt><trkpt lat="45.3341223" lon="15.2757667"><ele>218.5</ele><time>2026-05-05T09:36:59.58Z</time></trkpt><trkpt lat="45.3343738" lon="15.2756752"><ele>220.0</ele><time>2026-05-05T09:37:00.58Z</time></trkpt><trkpt lat="45.334626" lon="15.2755946"><ele>225.5</ele><time>2026-05-05T09:37:01.581Z</time></trkpt><trkpt lat="45.334878" lon="15.2755098"><ele>231.0</ele><time>2026-05-05T09:37:02.581Z</time></trkpt><trkpt lat="45.3351279" lon="15.2754312"><ele>231.0</ele><time>2026-05-05T09:37:03.58Z</time></trkpt><trkpt lat="45.3353893" lon="15.2753524"><ele>231.0</ele><time>2026-05-05T09:37:04.581Z</time></trkpt><trkpt lat="45.3356462" lon="15.2752892"><ele>232.0</ele><time>2026-05-05T09:37:05.58Z</time></trkpt><trkpt lat="45.3359014" lon="15.2752273"><ele>233.0</ele><time>2026-05-05T09:37:06.581Z</time></trkpt><trkpt lat="45.3361642" lon="15.2751603"><ele>233.5</ele><time>2026-05-05T09:37:07.581Z</time></trkpt><trkpt lat="45.3364232" lon="15.2751046"><ele>234.0</ele><time>2026-05-05T09:37:08.58Z</time></trkpt><trkpt lat="45.3366828" lon="15.2750531"><ele>234.0</ele><time>2026-05-05T09:37:09.58Z</time></trkpt><trkpt lat="45.3369471" lon="15.27501"><ele>234.0</ele><time>2026-05-05T09:37:10.58Z</time></trkpt><trkpt lat="45.3372069" lon="15.2749665"><ele>236.0</ele><time>2026-05-05T09:37:11.58Z</time></trkpt><trkpt lat="45.337468" lon="15.2749291"><ele>238.0</ele><time>2026-05-05T09:37:12.58Z</time></trkpt><trkpt lat="45.3377322" lon="15.2749105"><ele>238.0</ele><time>2026-05-05T09:37:13.581Z</time></trkpt><trkpt lat="45.3379962" lon="15.2748767"><ele>238.0</ele><time>2026-05-05T09:37:14.581Z</time></trkpt><trkpt lat="45.3382625" lon="15.2748598"><ele>237.5</ele><time>2026-05-05T09:37:15.581Z</time></trkpt><trkpt lat="45.3385192" lon="15.2748542"><ele>237.0</ele><time>2026-05-05T09:37:16.58Z</time></trkpt><trkpt lat="45.3387791" lon="15.2748592"><ele>236.5</ele><time>2026-05-05T09:37:17.581Z</time></trkpt><trkpt lat="45.3390344" lon="15.274859"><ele>236.0</ele><time>2026-05-05T09:37:18.58Z</time></trkpt><trkpt lat="45.3392905" lon="15.2748331"><ele>236.0</ele><time>2026-05-05T09:37:19.581Z</time></trkpt><trkpt lat="45.3395478" lon="15.27483"><ele>236.0</ele><time>2026-05-05T09:37:20.58Z</time></trkpt><trkpt lat="45.3398035" lon="15.2748344"><ele>234.5</ele><time>2026-05-05T09:37:21.58Z</time></trkpt><trkpt lat="45.3400555" lon="15.2748433"><ele>233.0</ele><time>2026-05-05T09:37:22.581Z</time></trkpt><trkpt lat="45.3403148" lon="15.274861"><ele>231.0</ele><time>2026-05-05T09:37:23.58Z</time></trkpt><trkpt lat="45.3405671" lon="15.2748821"><ele>229.0</ele><time>2026-05-05T09:37:24.58Z</time></trkpt><trkpt lat="45.3408257" lon="15.2749087"><ele>229.0</ele><time>2026-05-05T09:37:25.581Z</time></trkpt><trkpt lat="45.3410838" lon="15.2749365"><ele>229.0</ele><time>2026-05-05T09:37:26.58Z</time></trkpt><trkpt lat="45.3413395" lon="15.274981"><ele>227.0</ele><time>2026-05-05T09:37:27.581Z</time></trkpt><trkpt lat="45.3415979" lon="15.2750158"><ele>225.0</ele><time>2026-05-05T09:37:28.581Z</time></trkpt><trkpt lat="45.3418554" lon="15.2750671"><ele>225.0</ele><time>2026-05-05T09:37:29.581Z</time></trkpt><trkpt lat="45.3421121" lon="15.2751117"><ele>225.0</ele><time>2026-05-05T09:37:30.581Z</time></trkpt><trkpt lat="45.3423744" lon="15.2751589"><ele>223.5</ele><time>2026-05-05T09:37:31.581Z</time></trkpt><trkpt lat="45.3426374" lon="15.2752227"><ele>222.0</ele><time>2026-05-05T09:37:32.581Z</time></trkpt><trkpt lat="45.3428943" lon="15.275281"><ele>220.5</ele><time>2026-05-05T09:37:33.58Z</time></trkpt><trkpt lat="45.3431485" lon="15.2753569"><ele>219.0</ele><time>2026-05-05T09:37:34.58Z</time></trkpt><trkpt lat="45.3434107" lon="15.2754328"><ele>219.0</ele><time>2026-05-05T09:37:35.581Z</time></trkpt><trkpt lat="45.3436678" lon="15.2755093"><ele>219.0</ele><time>2026-05-05T09:37:36.58Z</time></trkpt><trkpt lat="45.3439217" lon="15.2755882"><ele>219.0</ele><time>2026-05-05T09:37:37.581Z</time></trkpt><trkpt lat="45.3441765" lon="15.2756802"><ele>219.0</ele><time>2026-05-05T09:37:38.581Z</time></trkpt><trkpt lat="45.3444311" lon="15.2757708"><ele>219.0</ele><time>2026-05-05T09:37:39.58Z</time></trkpt><trkpt lat="45.3446841" lon="15.2758693"><ele>219.0</ele><time>2026-05-05T09:37:40.581Z</time></trkpt><trkpt lat="45.3449345" lon="15.2759619"><ele>219.0</ele><time>2026-05-05T09:37:41.58Z</time></trkpt><trkpt lat="45.3451889" lon="15.2760652"><ele>219.0</ele><time>2026-05-05T09:37:42.58Z</time></trkpt><trkpt lat="45.3454468" lon="15.2761715"><ele>216.5</ele><time>2026-05-05T09:37:43.581Z</time></trkpt><trkpt lat="45.3457043" lon="15.2762717"><ele>214.0</ele><time>2026-05-05T09:37:44.581Z</time></trkpt><trkpt lat="45.345956" lon="15.2763781"><ele>214.0</ele><time>2026-05-05T09:37:45.581Z</time></trkpt><trkpt lat="45.3462148" lon="15.2764869"><ele>214.0</ele><time>2026-05-05T09:37:46.58Z</time></trkpt><trkpt lat="45.3464659" lon="15.2765936"><ele>214.0</ele><time>2026-05-05T09:37:47.58Z</time></trkpt><trkpt lat="45.3467242" lon="15.2766997"><ele>214.0</ele><time>2026-05-05T09:37:48.581Z</time></trkpt><trkpt lat="45.3469742" lon="15.2768136"><ele>210.0</ele><time>2026-05-05T09:37:49.58Z</time></trkpt><trkpt lat="45.3472315" lon="15.2769185"><ele>206.0</ele><time>2026-05-05T09:37:50.581Z</time></trkpt><trkpt lat="45.3474858" lon="15.2770265"><ele>206.0</ele><time>2026-05-05T09:37:51.581Z</time></trkpt><trkpt lat="45.3477374" lon="15.2771256"><ele>206.0</ele><time>2026-05-05T09:37:52.58Z</time></trkpt><trkpt lat="45.3479938" lon="15.2772208"><ele>209.0</ele><time>2026-05-05T09:37:53.581Z</time></trkpt><trkpt lat="45.3482479" lon="15.2773129"><ele>212.0</ele><time>2026-05-05T09:37:54.581Z</time></trkpt><trkpt lat="45.3485042" lon="15.2773959"><ele>212.0</ele><time>2026-05-05T09:37:55.58Z</time></trkpt><trkpt lat="45.3487576" lon="15.2774714"><ele>212.0</ele><time>2026-05-05T09:37:56.581Z</time></trkpt><trkpt lat="45.3490143" lon="15.2775302"><ele>213.0</ele><time>2026-05-05T09:37:57.58Z</time></trkpt><trkpt lat="45.349272" lon="15.2775904"><ele>214.0</ele><time>2026-05-05T09:37:58.581Z</time></trkpt><trkpt lat="45.3495286" lon="15.2776465"><ele>215.0</ele><time>2026-05-05T09:37:59.58Z</time></trkpt><trkpt lat="45.3497861" lon="15.2777083"><ele>216.0</ele><time>2026-05-05T09:38:00.581Z</time></trkpt><trkpt lat="45.3500396" lon="15.2777637"><ele>216.0</ele><time>2026-05-05T09:38:01.58Z</time></trkpt><trkpt lat="45.3502993" lon="15.2778089"><ele>216.0</ele><time>2026-05-05T09:38:02.581Z</time></trkpt><trkpt lat="45.3505542" lon="15.2778525"><ele>220.0</ele><time>2026-05-05T09:38:03.58Z</time></trkpt><trkpt lat="45.3508095" lon="15.2778868"><ele>224.0</ele><time>2026-05-05T09:38:04.581Z</time></trkpt><trkpt lat="45.351068" lon="15.2779206"><ele>224.0</ele><time>2026-05-05T09:38:05.581Z</time></trkpt><trkpt lat="45.3513288" lon="15.2779437"><ele>224.0</ele><time>2026-05-05T09:38:06.58Z</time></trkpt><trkpt lat="45.3515858" lon="15.2779634"><ele>224.5</ele><time>2026-05-05T09:38:07.58Z</time></trkpt><trkpt lat="45.3518441" lon="15.2779824"><ele>225.0</ele><time>2026-05-05T09:38:08.581Z</time></trkpt><trkpt lat="45.3521118" lon="15.2779946"><ele>227.0</ele><time>2026-05-05T09:38:09.58Z</time></trkpt><trkpt lat="45.3523726" lon="15.2780025"><ele>229.0</ele><time>2026-05-05T09:38:10.58Z</time></trkpt><trkpt lat="45.3526403" lon="15.2780221"><ele>229.0</ele><time>2026-05-05T09:38:11.581Z</time></trkpt><trkpt lat="45.352889" lon="15.277986"><ele>229.0</ele><time>2026-05-05T09:38:12.581Z</time></trkpt><trkpt lat="45.3531489" lon="15.277982"><ele>227.0</ele><time>2026-05-05T09:38:13.581Z</time></trkpt><trkpt lat="45.3534053" lon="15.2779619"><ele>225.0</ele><time>2026-05-05T09:38:14.58Z</time></trkpt><trkpt lat="45.3536613" lon="15.2779376"><ele>224.5</ele><time>2026-05-05T09:38:15.581Z</time></trkpt><trkpt lat="45.3539209" lon="15.2779041"><ele>224.0</ele><time>2026-05-05T09:38:16.581Z</time></trkpt><trkpt lat="45.3541858" lon="15.277871"><ele>224.0</ele><time>2026-05-05T09:38:17.581Z</time></trkpt><trkpt lat="45.3544481" lon="15.2778374"><ele>224.0</ele><time>2026-05-05T09:38:18.581Z</time></trkpt><trkpt lat="45.3547059" lon="15.2777891"><ele>222.5</ele><time>2026-05-05T09:38:19.581Z</time></trkpt><trkpt lat="45.3549622" lon="15.2777364"><ele>221.0</ele><time>2026-05-05T09:38:20.58Z</time></trkpt><trkpt lat="45.3552198" lon="15.2776815"><ele>221.0</ele><time>2026-05-05T09:38:21.58Z</time></trkpt><trkpt lat="45.3554788" lon="15.277624"><ele>221.0</ele><time>2026-05-05T09:38:22.581Z</time></trkpt><trkpt lat="45.3557354" lon="15.2775642"><ele>218.0</ele><time>2026-05-05T09:38:23.58Z</time></trkpt><trkpt lat="45.3559933" lon="15.277496"><ele>215.0</ele><time>2026-05-05T09:38:24.581Z</time></trkpt><trkpt lat="45.356247" lon="15.2774183"><ele>217.0</ele><time>2026-05-05T09:38:25.581Z</time></trkpt><trkpt lat="45.3565007" lon="15.2773322"><ele>219.0</ele><time>2026-05-05T09:38:26.58Z</time></trkpt><trkpt lat="45.3567522" lon="15.277246"><ele>221.0</ele><time>2026-05-05T09:38:27.58Z</time></trkpt><trkpt lat="45.35701" lon="15.2771501"><ele>223.0</ele><time>2026-05-05T09:38:28.58Z</time></trkpt><trkpt lat="45.3572627" lon="15.2770517"><ele>226.5</ele><time>2026-05-05T09:38:29.581Z</time></trkpt><trkpt lat="45.3575152" lon="15.2769519"><ele>230.0</ele><time>2026-05-05T09:38:30.581Z</time></trkpt><trkpt lat="45.3577669" lon="15.2768506"><ele>230.0</ele><time>2026-05-05T09:38:31.581Z</time></trkpt><trkpt lat="45.3580205" lon="15.276731"><ele>230.0</ele><time>2026-05-05T09:38:32.58Z</time></trkpt><trkpt lat="45.3582707" lon="15.2766071"><ele>232.0</ele><time>2026-05-05T09:38:33.581Z</time></trkpt><trkpt lat="45.358521" lon="15.2764798"><ele>234.0</ele><time>2026-05-05T09:38:34.581Z</time></trkpt><trkpt lat="45.3587649" lon="15.2763526"><ele>237.5</ele><time>2026-05-05T09:38:35.58Z</time></trkpt><trkpt lat="45.3590135" lon="15.2762179"><ele>241.0</ele><time>2026-05-05T09:38:36.58Z</time></trkpt><trkpt lat="45.3592557" lon="15.2760786"><ele>241.0</ele><time>2026-05-05T09:38:37.58Z</time></trkpt><trkpt lat="45.3595009" lon="15.2759364"><ele>241.0</ele><time>2026-05-05T09:38:38.58Z</time></trkpt><trkpt lat="45.3597414" lon="15.2757849"><ele>240.5</ele><time>2026-05-05T09:38:39.58Z</time></trkpt><trkpt lat="45.3599819" lon="15.2756284"><ele>240.0</ele><time>2026-05-05T09:38:40.581Z</time></trkpt><trkpt lat="45.360224" lon="15.2754683"><ele>240.0</ele><time>2026-05-05T09:38:41.58Z</time></trkpt><trkpt lat="45.3604626" lon="15.2753062"><ele>240.0</ele><time>2026-05-05T09:38:42.58Z</time></trkpt><trkpt lat="45.3607041" lon="15.2751339"><ele>237.5</ele><time>2026-05-05T09:38:43.58Z</time></trkpt><trkpt lat="45.3609392" lon="15.274956"><ele>235.0</ele><time>2026-05-05T09:38:44.58Z</time></trkpt><trkpt lat="45.3611775" lon="15.2747782"><ele>232.0</ele><time>2026-05-05T09:38:45.58Z</time></trkpt><trkpt lat="45.3614136" lon="15.274596"><ele>229.0</ele><time>2026-05-05T09:38:46.581Z</time></trkpt><trkpt lat="45.3616432" lon="15.2744074"><ele>229.0</ele><time>2026-05-05T09:38:47.58Z</time></trkpt><trkpt lat="45.3618767" lon="15.2742188"><ele>229.0</ele><time>2026-05-05T09:38:48.58Z</time></trkpt><trkpt lat="45.3621117" lon="15.274025"><ele>228.5</ele><time>2026-05-05T09:38:49.581Z</time></trkpt><trkpt lat="45.3623467" lon="15.2738349"><ele>228.0</ele><time>2026-05-05T09:38:50.581Z</time></trkpt><trkpt lat="45.3625867" lon="15.2736296"><ele>228.0</ele><time>2026-05-05T09:38:51.581Z</time></trkpt><trkpt lat="45.3628222" lon="15.2734443"><ele>228.0</ele><time>2026-05-05T09:38:52.581Z</time></trkpt><trkpt lat="45.3630569" lon="15.2732454"><ele>225.0</ele><time>2026-05-05T09:38:53.581Z</time></trkpt><trkpt lat="45.3633" lon="15.2730551"><ele>222.0</ele><time>2026-05-05T09:38:54.581Z</time></trkpt><trkpt lat="45.3635425" lon="15.272862"><ele>222.0</ele><time>2026-05-05T09:38:55.58Z</time></trkpt><trkpt lat="45.3637817" lon="15.2726662"><ele>222.0</ele><time>2026-05-05T09:38:56.58Z</time></trkpt><trkpt lat="45.364016" lon="15.2724831"><ele>222.5</ele><time>2026-05-05T09:38:57.58Z</time></trkpt><trkpt lat="45.3642645" lon="15.2723015"><ele>223.0</ele><time>2026-05-05T09:38:58.581Z</time></trkpt><trkpt lat="45.3645086" lon="15.2721246"><ele>223.0</ele><time>2026-05-05T09:38:59.581Z</time></trkpt><trkpt lat="45.3647614" lon="15.2719548"><ele>223.0</ele><time>2026-05-05T09:39:00.581Z</time></trkpt><trkpt lat="45.3650122" lon="15.2717875"><ele>223.0</ele><time>2026-05-05T09:39:01.58Z</time></trkpt><trkpt lat="45.3652631" lon="15.2716387"><ele>223.0</ele><time>2026-05-05T09:39:02.581Z</time></trkpt><trkpt lat="45.3655177" lon="15.2714917"><ele>222.0</ele><time>2026-05-05T09:39:03.581Z</time></trkpt><trkpt lat="45.3657729" lon="15.2713487"><ele>221.0</ele><time>2026-05-05T09:39:04.581Z</time></trkpt><trkpt lat="45.3660344" lon="15.2712129"><ele>221.0</ele><time>2026-05-05T09:39:05.581Z</time></trkpt><trkpt lat="45.3662955" lon="15.2710854"><ele>221.0</ele><time>2026-05-05T09:39:06.581Z</time></trkpt><trkpt lat="45.3665502" lon="15.2709688"><ele>218.0</ele><time>2026-05-05T09:39:07.581Z</time></trkpt><trkpt lat="45.3668113" lon="15.2708513"><ele>215.0</ele><time>2026-05-05T09:39:08.581Z</time></trkpt><trkpt lat="45.3670689" lon="15.2707412"><ele>214.0</ele><time>2026-05-05T09:39:09.58Z</time></trkpt><trkpt lat="45.3673337" lon="15.2706406"><ele>213.0</ele><time>2026-05-05T09:39:10.581Z</time></trkpt><trkpt lat="45.3675998" lon="15.2705483"><ele>213.0</ele><time>2026-05-05T09:39:11.581Z</time></trkpt><trkpt lat="45.3678642" lon="15.2704641"><ele>213.0</ele><time>2026-05-05T09:39:12.58Z</time></trkpt><trkpt lat="45.3681253" lon="15.2703822"><ele>210.5</ele><time>2026-05-05T09:39:13.581Z</time></trkpt><trkpt lat="45.3683883" lon="15.2703109"><ele>208.0</ele><time>2026-05-05T09:39:14.581Z</time></trkpt><trkpt lat="45.3686565" lon="15.270238"><ele>207.5</ele><time>2026-05-05T09:39:15.58Z</time></trkpt><trkpt lat="45.3689155" lon="15.2701774"><ele>207.0</ele><time>2026-05-05T09:39:16.58Z</time></trkpt><trkpt lat="45.3691692" lon="15.2701332"><ele>207.0</ele><time>2026-05-05T09:39:17.58Z</time></trkpt><trkpt lat="45.3694242" lon="15.2700834"><ele>207.0</ele><time>2026-05-05T09:39:18.58Z</time></trkpt><trkpt lat="45.3696818" lon="15.2700407"><ele>207.5</ele><time>2026-05-05T09:39:19.58Z</time></trkpt><trkpt lat="45.3699447" lon="15.2700101"><ele>208.0</ele><time>2026-05-05T09:39:20.581Z</time></trkpt><trkpt lat="45.370205" lon="15.2699684"><ele>208.0</ele><time>2026-05-05T09:39:21.58Z</time></trkpt><trkpt lat="45.3704538" lon="15.2699445"><ele>208.0</ele><time>2026-05-05T09:39:22.581Z</time></trkpt><trkpt lat="45.3707144" lon="15.2699206"><ele>207.0</ele><time>2026-05-05T09:39:23.58Z</time></trkpt><trkpt lat="45.3709695" lon="15.2698987"><ele>206.0</ele><time>2026-05-05T09:39:24.581Z</time></trkpt><trkpt lat="45.3712249" lon="15.2698784"><ele>207.0</ele><time>2026-05-05T09:39:25.581Z</time></trkpt><trkpt lat="45.3714764" lon="15.2698584"><ele>208.0</ele><time>2026-05-05T09:39:26.581Z</time></trkpt><trkpt lat="45.3717346" lon="15.2698376"><ele>208.0</ele><time>2026-05-05T09:39:27.581Z</time></trkpt><trkpt lat="45.3719868" lon="15.2698094"><ele>208.0</ele><time>2026-05-05T09:39:28.58Z</time></trkpt><trkpt lat="45.3722466" lon="15.2697888"><ele>207.5</ele><time>2026-05-05T09:39:29.58Z</time></trkpt><trkpt lat="45.3725036" lon="15.2697679"><ele>207.0</ele><time>2026-05-05T09:39:30.581Z</time></trkpt><trkpt lat="45.3727592" lon="15.2697404"><ele>207.0</ele><time>2026-05-05T09:39:31.58Z</time></trkpt><trkpt lat="45.3730137" lon="15.2697094"><ele>207.0</ele><time>2026-05-05T09:39:32.58Z</time></trkpt><trkpt lat="45.3732751" lon="15.2696769"><ele>209.5</ele><time>2026-05-05T09:39:33.58Z</time></trkpt><trkpt lat="45.3735344" lon="15.2696413"><ele>212.0</ele><time>2026-05-05T09:39:34.58Z</time></trkpt><trkpt lat="45.3737931" lon="15.2696"><ele>212.0</ele><time>2026-05-05T09:39:35.581Z</time></trkpt><trkpt lat="45.3740599" lon="15.2695489"><ele>212.0</ele><time>2026-05-05T09:39:36.58Z</time></trkpt><trkpt lat="45.374297" lon="15.269481"><ele>212.0</ele><time>2026-05-05T09:39:37.581Z</time></trkpt><trkpt lat="45.3745588" lon="15.2694188"><ele>212.0</ele><time>2026-05-05T09:39:38.58Z</time></trkpt><trkpt lat="45.3748116" lon="15.2693561"><ele>214.0</ele><time>2026-05-05T09:39:39.581Z</time></trkpt><trkpt lat="45.3750683" lon="15.2692658"><ele>216.0</ele><time>2026-05-05T09:39:40.58Z</time></trkpt><trkpt lat="45.3753236" lon="15.2691683"><ele>215.0</ele><time>2026-05-05T09:39:41.581Z</time></trkpt><trkpt lat="45.3755841" lon="15.2690666"><ele>214.0</ele><time>2026-05-05T09:39:42.581Z</time></trkpt><trkpt lat="45.3758428" lon="15.2689613"><ele>211.5</ele><time>2026-05-05T09:39:43.58Z</time></trkpt><trkpt lat="45.3760993" lon="15.2688486"><ele>209.0</ele><time>2026-05-05T09:39:44.58Z</time></trkpt><trkpt lat="45.3763485" lon="15.2687401"><ele>205.0</ele><time>2026-05-05T09:39:45.581Z</time></trkpt><trkpt lat="45.3765959" lon="15.2686184"><ele>201.0</ele><time>2026-05-05T09:39:46.58Z</time></trkpt><trkpt lat="45.3768441" lon="15.2684917"><ele>201.0</ele><time>2026-05-05T09:39:47.581Z</time></trkpt><trkpt lat="45.3770855" lon="15.2683549"><ele>201.0</ele><time>2026-05-05T09:39:48.58Z</time></trkpt><trkpt lat="45.3773267" lon="15.2682131"><ele>200.5</ele><time>2026-05-05T09:39:49.58Z</time></trkpt><trkpt lat="45.3775615" lon="15.2680664"><ele>200.0</ele><time>2026-05-05T09:39:50.581Z</time></trkpt><trkpt lat="45.3777968" lon="15.2679138"><ele>201.0</ele><time>2026-05-05T09:39:51.58Z</time></trkpt><trkpt lat="45.3780312" lon="15.2677452"><ele>202.0</ele><time>2026-05-05T09:39:52.581Z</time></trkpt><trkpt lat="45.3782577" lon="15.2675719"><ele>202.0</ele><time>2026-05-05T09:39:53.581Z</time></trkpt><trkpt lat="45.3784847" lon="15.2673914"><ele>202.0</ele><time>2026-05-05T09:39:54.58Z</time></trkpt><trkpt lat="45.378709" lon="15.2672172"><ele>205.5</ele><time>2026-05-05T09:39:55.581Z</time></trkpt><trkpt lat="45.3789344" lon="15.26704"><ele>209.0</ele><time>2026-05-05T09:39:56.58Z</time></trkpt><trkpt lat="45.3791544" lon="15.2668542"><ele>209.0</ele><time>2026-05-05T09:39:57.58Z</time></trkpt><trkpt lat="45.3793753" lon="15.2666648"><ele>209.0</ele><time>2026-05-05T09:39:58.58Z</time></trkpt><trkpt lat="45.3795882" lon="15.2664656"><ele>207.5</ele><time>2026-05-05T09:39:59.581Z</time></trkpt><trkpt lat="45.3797973" lon="15.2662645"><ele>206.0</ele><time>2026-05-05T09:40:00.58Z</time></trkpt><trkpt lat="45.3800051" lon="15.2660504"><ele>206.0</ele><time>2026-05-05T09:40:01.581Z</time></trkpt><trkpt lat="45.3802052" lon="15.2658325"><ele>206.0</ele><time>2026-05-05T09:40:02.58Z</time></trkpt><trkpt lat="45.3804107" lon="15.265619"><ele>207.0</ele><time>2026-05-05T09:40:03.58Z</time></trkpt><trkpt lat="45.3806022" lon="15.2654065"><ele>208.0</ele><time>2026-05-05T09:40:04.581Z</time></trkpt><trkpt lat="45.3807996" lon="15.2651836"><ele>208.0</ele><time>2026-05-05T09:40:05.581Z</time></trkpt><trkpt lat="45.380992" lon="15.2649539"><ele>208.0</ele><time>2026-05-05T09:40:06.58Z</time></trkpt><trkpt lat="45.3811898" lon="15.2647314"><ele>209.0</ele><time>2026-05-05T09:40:07.581Z</time></trkpt><trkpt lat="45.3813863" lon="15.2644982"><ele>210.0</ele><time>2026-05-05T09:40:08.581Z</time></trkpt><trkpt lat="45.381576" lon="15.2642709"><ele>210.0</ele><time>2026-05-05T09:40:09.581Z</time></trkpt><trkpt lat="45.3817661" lon="15.2640459"><ele>210.0</ele><time>2026-05-05T09:40:10.58Z</time></trkpt><trkpt lat="45.381959" lon="15.2638115"><ele>209.5</ele><time>2026-05-05T09:40:11.581Z</time></trkpt><trkpt lat="45.382145" lon="15.2635889"><ele>209.0</ele><time>2026-05-05T09:40:12.58Z</time></trkpt><trkpt lat="45.3823389" lon="15.2633657"><ele>210.5</ele><time>2026-05-05T09:40:13.581Z</time></trkpt><trkpt lat="45.3825368" lon="15.2631501"><ele>212.0</ele><time>2026-05-05T09:40:14.581Z</time></trkpt><trkpt lat="45.3827307" lon="15.2629345"><ele>212.5</ele><time>2026-05-05T09:40:15.581Z</time></trkpt><trkpt lat="45.382934" lon="15.2627254"><ele>213.0</ele><time>2026-05-05T09:40:16.58Z</time></trkpt><trkpt lat="45.3831334" lon="15.2625121"><ele>213.5</ele><time>2026-05-05T09:40:17.581Z</time></trkpt><trkpt lat="45.3833382" lon="15.2623096"><ele>214.0</ele><time>2026-05-05T09:40:18.581Z</time></trkpt><trkpt lat="45.3835482" lon="15.2621142"><ele>214.0</ele><time>2026-05-05T09:40:19.581Z</time></trkpt><trkpt lat="45.3837535" lon="15.2619307"><ele>214.0</ele><time>2026-05-05T09:40:20.581Z</time></trkpt><trkpt lat="45.3839598" lon="15.2617518"><ele>213.5</ele><time>2026-05-05T09:40:21.581Z</time></trkpt><trkpt lat="45.3841634" lon="15.2615835"><ele>213.0</ele><time>2026-05-05T09:40:22.581Z</time></trkpt><trkpt lat="45.3843722" lon="15.2614156"><ele>212.0</ele><time>2026-05-05T09:40:23.58Z</time></trkpt><trkpt lat="45.3845852" lon="15.2612557"><ele>211.0</ele><time>2026-05-05T09:40:24.58Z</time></trkpt><trkpt lat="45.3847965" lon="15.2610975"><ele>213.0</ele><time>2026-05-05T09:40:25.58Z</time></trkpt><trkpt lat="45.3850161" lon="15.2609392"><ele>215.0</ele><time>2026-05-05T09:40:26.58Z</time></trkpt><trkpt lat="45.3852372" lon="15.260791"><ele>215.0</ele><time>2026-05-05T09:40:27.581Z</time></trkpt><trkpt lat="45.3854599" lon="15.260648"><ele>215.0</ele><time>2026-05-05T09:40:28.581Z</time></trkpt><trkpt lat="45.3856864" lon="15.2605137"><ele>210.5</ele><time>2026-05-05T09:40:29.581Z</time></trkpt><trkpt lat="45.3859095" lon="15.2603824"><ele>206.0</ele><time>2026-05-05T09:40:30.581Z</time></trkpt><trkpt lat="45.3861424" lon="15.2602507"><ele>206.5</ele><time>2026-05-05T09:40:31.581Z</time></trkpt><trkpt lat="45.3863753" lon="15.2601298"><ele>207.0</ele><time>2026-05-05T09:40:32.58Z</time></trkpt><trkpt lat="45.3866055" lon="15.2600203"><ele>207.0</ele><time>2026-05-05T09:40:33.58Z</time></trkpt><trkpt lat="45.3868436" lon="15.2599116"><ele>207.0</ele><time>2026-05-05T09:40:34.581Z</time></trkpt><trkpt lat="45.3870826" lon="15.2598145"><ele>209.0</ele><time>2026-05-05T09:40:35.58Z</time></trkpt><trkpt lat="45.3873222" lon="15.2597128"><ele>211.0</ele><time>2026-05-05T09:40:36.58Z</time></trkpt><trkpt lat="45.3875578" lon="15.2596215"><ele>211.0</ele><time>2026-05-05T09:40:37.58Z</time></trkpt><trkpt lat="45.3877988" lon="15.2595413"><ele>211.0</ele><time>2026-05-05T09:40:38.581Z</time></trkpt><trkpt lat="45.3880381" lon="15.259469"><ele>210.5</ele><time>2026-05-05T09:40:39.581Z</time></trkpt><trkpt lat="45.3882861" lon="15.2593973"><ele>210.0</ele><time>2026-05-05T09:40:40.58Z</time></trkpt><trkpt lat="45.3885294" lon="15.2593377"><ele>210.0</ele><time>2026-05-05T09:40:41.581Z</time></trkpt><trkpt lat="45.3887731" lon="15.2592813"><ele>210.0</ele><time>2026-05-05T09:40:42.58Z</time></trkpt><trkpt lat="45.3890137" lon="15.2592298"><ele>212.5</ele><time>2026-05-05T09:40:43.581Z</time></trkpt><trkpt lat="45.3892592" lon="15.2591808"><ele>215.0</ele><time>2026-05-05T09:40:44.58Z</time></trkpt><trkpt lat="45.3895075" lon="15.2591407"><ele>219.5</ele><time>2026-05-05T09:40:45.581Z</time></trkpt><trkpt lat="45.3897494" lon="15.2591074"><ele>224.0</ele><time>2026-05-05T09:40:46.581Z</time></trkpt><trkpt lat="45.3899937" lon="15.2590955"><ele>224.0</ele><time>2026-05-05T09:40:47.58Z</time></trkpt><trkpt lat="45.3902382" lon="15.2590847"><ele>224.0</ele><time>2026-05-05T09:40:48.581Z</time></trkpt><trkpt lat="45.3904897" lon="15.2590673"><ele>224.0</ele><time>2026-05-05T09:40:49.58Z</time></trkpt><trkpt lat="45.3907367" lon="15.2590563"><ele>224.0</ele><time>2026-05-05T09:40:50.581Z</time></trkpt><trkpt lat="45.3909811" lon="15.2590537"><ele>224.0</ele><time>2026-05-05T09:40:51.581Z</time></trkpt><trkpt lat="45.3912339" lon="15.2590415"><ele>224.0</ele><time>2026-05-05T09:40:52.581Z</time></trkpt><trkpt lat="45.3914892" lon="15.2590441"><ele>222.5</ele><time>2026-05-05T09:40:53.581Z</time></trkpt><trkpt lat="45.3917321" lon="15.2590586"><ele>221.0</ele><time>2026-05-05T09:40:54.58Z</time></trkpt><trkpt lat="45.3919752" lon="15.2590692"><ele>220.0</ele><time>2026-05-05T09:40:55.581Z</time></trkpt><trkpt lat="45.3922043" lon="15.2590765"><ele>219.0</ele><time>2026-05-05T09:40:56.58Z</time></trkpt><trkpt lat="45.3924529" lon="15.259075"><ele>219.0</ele><time>2026-05-05T09:40:57.581Z</time></trkpt><trkpt lat="45.3926979" lon="15.2590715"><ele>219.0</ele><time>2026-05-05T09:40:58.581Z</time></trkpt><trkpt lat="45.3929373" lon="15.259066"><ele>219.0</ele><time>2026-05-05T09:40:59.58Z</time></trkpt><trkpt lat="45.3931781" lon="15.2590606"><ele>219.0</ele><time>2026-05-05T09:41:00.58Z</time></trkpt><trkpt lat="45.3934151" lon="15.2590544"><ele>219.0</ele><time>2026-05-05T09:41:01.58Z</time></trkpt><trkpt lat="45.3936552" lon="15.2590355"><ele>219.0</ele><time>2026-05-05T09:41:02.581Z</time></trkpt><trkpt lat="45.3938933" lon="15.2589992"><ele>216.0</ele><time>2026-05-05T09:41:03.581Z</time></trkpt><trkpt lat="45.3941283" lon="15.258955"><ele>213.0</ele><time>2026-05-05T09:41:04.581Z</time></trkpt><trkpt lat="45.3943582" lon="15.2589048"><ele>213.0</ele><time>2026-05-05T09:41:05.58Z</time></trkpt><trkpt lat="45.3945881" lon="15.2588398"><ele>213.0</ele><time>2026-05-05T09:41:06.581Z</time></trkpt><trkpt lat="45.3948186" lon="15.258761"><ele>213.5</ele><time>2026-05-05T09:41:07.58Z</time></trkpt><trkpt lat="45.395045" lon="15.2586749"><ele>214.0</ele><time>2026-05-05T09:41:08.581Z</time></trkpt><trkpt lat="45.3952673" lon="15.2585803"><ele>214.0</ele><time>2026-05-05T09:41:09.58Z</time></trkpt><trkpt lat="45.3954847" lon="15.2584678"><ele>214.0</ele><time>2026-05-05T09:41:10.581Z</time></trkpt><trkpt lat="45.3957018" lon="15.2583517"><ele>215.0</ele><time>2026-05-05T09:41:11.58Z</time></trkpt><trkpt lat="45.3959145" lon="15.2582251"><ele>216.0</ele><time>2026-05-05T09:41:12.581Z</time></trkpt><trkpt lat="45.3961261" lon="15.2580815"><ele>216.0</ele><time>2026-05-05T09:41:13.581Z</time></trkpt><trkpt lat="45.3963338" lon="15.2579328"><ele>216.0</ele><time>2026-05-05T09:41:14.58Z</time></trkpt><trkpt lat="45.396541" lon="15.257771"><ele>218.0</ele><time>2026-05-05T09:41:15.581Z</time></trkpt><trkpt lat="45.3967415" lon="15.2576043"><ele>220.0</ele><time>2026-05-05T09:41:16.58Z</time></trkpt><trkpt lat="45.3969422" lon="15.2574281"><ele>225.5</ele><time>2026-05-05T09:41:17.58Z</time></trkpt><trkpt lat="45.3971354" lon="15.2572362"><ele>231.0</ele><time>2026-05-05T09:41:18.581Z</time></trkpt><trkpt lat="45.3973236" lon="15.2570404"><ele>231.5</ele><time>2026-05-05T09:41:19.581Z</time></trkpt><trkpt lat="45.3975067" lon="15.2568339"><ele>232.0</ele><time>2026-05-05T09:41:20.58Z</time></trkpt><trkpt lat="45.3976856" lon="15.2566162"><ele>232.0</ele><time>2026-05-05T09:41:21.58Z</time></trkpt><trkpt lat="45.3978578" lon="15.2563934"><ele>232.0</ele><time>2026-05-05T09:41:22.581Z</time></trkpt><trkpt lat="45.3980206" lon="15.2561635"><ele>232.0</ele><time>2026-05-05T09:41:23.58Z</time></trkpt><trkpt lat="45.3981841" lon="15.2559185"><ele>232.0</ele><time>2026-05-05T09:41:24.581Z</time></trkpt><trkpt lat="45.3983399" lon="15.2556671"><ele>230.0</ele><time>2026-05-05T09:41:25.58Z</time></trkpt><trkpt lat="45.3984915" lon="15.2554027"><ele>228.0</ele><time>2026-05-05T09:41:26.581Z</time></trkpt><trkpt lat="45.3986428" lon="15.2551438"><ele>228.0</ele><time>2026-05-05T09:41:27.58Z</time></trkpt><trkpt lat="45.3987847" lon="15.2548623"><ele>228.0</ele><time>2026-05-05T09:41:28.58Z</time></trkpt><trkpt lat="45.3989185" lon="15.2545767"><ele>224.0</ele><time>2026-05-05T09:41:29.58Z</time></trkpt><trkpt lat="45.399046" lon="15.2542831"><ele>220.0</ele><time>2026-05-05T09:41:30.581Z</time></trkpt><trkpt lat="45.3991674" lon="15.2539833"><ele>220.5</ele><time>2026-05-05T09:41:31.58Z</time></trkpt><trkpt lat="45.3992835" lon="15.2536754"><ele>221.0</ele><time>2026-05-05T09:41:32.58Z</time></trkpt><trkpt lat="45.3994095" lon="15.2533805"><ele>222.0</ele><time>2026-05-05T09:41:33.581Z</time></trkpt><trkpt lat="45.3995276" lon="15.2530734"><ele>223.0</ele><time>2026-05-05T09:41:34.581Z</time></trkpt><trkpt lat="45.3996458" lon="15.2527713"><ele>217.0</ele><time>2026-05-05T09:41:35.581Z</time></trkpt><trkpt lat="45.3997661" lon="15.2524749"><ele>211.0</ele><time>2026-05-05T09:41:36.58Z</time></trkpt><trkpt lat="45.3998908" lon="15.2521917"><ele>211.0</ele><time>2026-05-05T09:41:37.581Z</time></trkpt><trkpt lat="45.4000236" lon="15.2519278"><ele>211.0</ele><time>2026-05-05T09:41:38.58Z</time></trkpt><trkpt lat="45.4001592" lon="15.251676"><ele>211.0</ele><time>2026-05-05T09:41:39.58Z</time></trkpt><trkpt lat="45.4003018" lon="15.2514386"><ele>211.0</ele><time>2026-05-05T09:41:40.581Z</time></trkpt><trkpt lat="45.4004539" lon="15.2512148"><ele>211.0</ele><time>2026-05-05T09:41:41.581Z</time></trkpt><trkpt lat="45.400614" lon="15.2510036"><ele>210.0</ele><time>2026-05-05T09:41:42.58Z</time></trkpt><trkpt lat="45.4007784" lon="15.2508006"><ele>209.0</ele><time>2026-05-05T09:41:43.581Z</time></trkpt><trkpt lat="45.4009436" lon="15.2506152"><ele>208.0</ele><time>2026-05-05T09:41:44.581Z</time></trkpt><trkpt lat="45.4011212" lon="15.2504251"><ele>210.0</ele><time>2026-05-05T09:41:45.58Z</time></trkpt><trkpt lat="45.4013067" lon="15.2502564"><ele>212.0</ele><time>2026-05-05T09:41:46.58Z</time></trkpt><trkpt lat="45.4014968" lon="15.2501008"><ele>214.0</ele><time>2026-05-05T09:41:47.58Z</time></trkpt><trkpt lat="45.4016936" lon="15.2499616"><ele>214.0</ele><time>2026-05-05T09:41:48.581Z</time></trkpt><trkpt lat="45.401883" lon="15.2498425"><ele>214.0</ele><time>2026-05-05T09:41:49.581Z</time></trkpt><trkpt lat="45.40208" lon="15.2497345"><ele>214.0</ele><time>2026-05-05T09:41:50.58Z</time></trkpt><trkpt lat="45.4022797" lon="15.2496423"><ele>214.33333333333331</ele><time>2026-05-05T09:41:51.581Z</time></trkpt><trkpt lat="45.4024837" lon="15.2495605"><ele>214.66666666666669</ele><time>2026-05-05T09:41:52.581Z</time></trkpt><trkpt lat="45.4026874" lon="15.2494914"><ele>215.0</ele><time>2026-05-05T09:41:53.58Z</time></trkpt><trkpt lat="45.4028945" lon="15.2494291"><ele>215.33333333333334</ele><time>2026-05-05T09:41:54.58Z</time></trkpt><trkpt lat="45.4031012" lon="15.2493917"><ele>215.66666666666669</ele><time>2026-05-05T09:41:55.581Z</time></trkpt><trkpt lat="45.4033118" lon="15.2493754"><ele>216.0</ele><time>2026-05-05T09:41:56.581Z</time></trkpt><trkpt lat="45.4035361" lon="15.2493651"><ele>216.0</ele><time>2026-05-05T09:41:57.581Z</time></trkpt><trkpt lat="45.4037448" lon="15.2493659"><ele>216.0</ele><time>2026-05-05T09:41:58.581Z</time></trkpt><trkpt lat="45.403958" lon="15.249383"><ele>216.0</ele><time>2026-05-05T09:41:59.581Z</time></trkpt><trkpt lat="45.404164" lon="15.2494072"><ele>215.33333333333331</ele><time>2026-05-05T09:42:00.581Z</time></trkpt><trkpt lat="45.4043612" lon="15.2494545"><ele>214.66666666666666</ele><time>2026-05-05T09:42:01.58Z</time></trkpt><trkpt lat="45.4045628" lon="15.2495071"><ele>214.0</ele><time>2026-05-05T09:42:02.58Z</time></trkpt><trkpt lat="45.4047477" lon="15.2495775"><ele>214.0</ele><time>2026-05-05T09:42:03.581Z</time></trkpt><trkpt lat="45.40493" lon="15.2496574"><ele>214.0</ele><time>2026-05-05T09:42:04.58Z</time></trkpt><trkpt lat="45.4050975" lon="15.2497431"><ele>214.0</ele><time>2026-05-05T09:42:05.581Z</time></trkpt><trkpt lat="45.4052514" lon="15.2498345"><ele>214.0</ele><time>2026-05-05T09:42:06.58Z</time></trkpt><trkpt lat="45.4054095" lon="15.2499358"><ele>214.0</ele><time>2026-05-05T09:42:07.581Z</time></trkpt><trkpt lat="45.4055557" lon="15.2500528"><ele>214.0</ele><time>2026-05-05T09:42:08.581Z</time></trkpt><trkpt lat="45.4056946" lon="15.250171"><ele>214.0</ele><time>2026-05-05T09:42:09.581Z</time></trkpt><trkpt lat="45.4058402" lon="15.2502902"><ele>214.0</ele><time>2026-05-05T09:42:10.58Z</time></trkpt><trkpt lat="45.4059765" lon="15.2504161"><ele>214.0</ele><time>2026-05-05T09:42:11.58Z</time></trkpt><trkpt lat="45.4061068" lon="15.2505585"><ele>215.33333333333331</ele><time>2026-05-05T09:42:12.58Z</time></trkpt><trkpt lat="45.4062329" lon="15.2506934"><ele>216.66666666666669</ele><time>2026-05-05T09:42:13.58Z</time></trkpt><trkpt lat="45.4063618" lon="15.2508428"><ele>218.0</ele><time>2026-05-05T09:42:14.581Z</time></trkpt><trkpt lat="45.4064932" lon="15.251003"><ele>219.0</ele><time>2026-05-05T09:42:15.58Z</time></trkpt><trkpt lat="45.4066152" lon="15.2511658"><ele>220.0</ele><time>2026-05-05T09:42:16.58Z</time></trkpt><trkpt lat="45.4067372" lon="15.2513389"><ele>221.0</ele><time>2026-05-05T09:42:17.581Z</time></trkpt><trkpt lat="45.4068549" lon="15.2515152"><ele>221.0</ele><time>2026-05-05T09:42:18.58Z</time></trkpt><trkpt lat="45.4069655" lon="15.2516996"><ele>221.0</ele><time>2026-05-05T09:42:19.58Z</time></trkpt><trkpt lat="45.4070716" lon="15.2518897"><ele>221.0</ele><time>2026-05-05T09:42:20.581Z</time></trkpt><trkpt lat="45.4071695" lon="15.2520761"><ele>221.0</ele><time>2026-05-05T09:42:21.581Z</time></trkpt><trkpt lat="45.4072609" lon="15.2522679"><ele>221.0</ele><time>2026-05-05T09:42:22.58Z</time></trkpt><trkpt lat="45.4073561" lon="15.252454"><ele>221.0</ele><time>2026-05-05T09:42:23.581Z</time></trkpt><trkpt lat="45.4074329" lon="15.2526492"><ele>221.75</ele><time>2026-05-05T09:42:24.58Z</time></trkpt><trkpt lat="45.4074981" lon="15.2528335"><ele>222.5</ele><time>2026-05-05T09:42:25.581Z</time></trkpt><trkpt lat="45.4075545" lon="15.2530098"><ele>223.25</ele><time>2026-05-05T09:42:26.581Z</time></trkpt><trkpt lat="45.4076017" lon="15.2531743"><ele>224.0</ele><time>2026-05-05T09:42:27.581Z</time></trkpt><trkpt lat="45.4076243" lon="15.2533297"><ele>224.2</ele><time>2026-05-05T09:42:28.581Z</time></trkpt><trkpt lat="45.4076362" lon="15.2534871"><ele>224.39999999999998</ele><time>2026-05-05T09:42:29.581Z</time></trkpt><trkpt lat="45.4076243" lon="15.2536396"><ele>224.6</ele><time>2026-05-05T09:42:30.58Z</time></trkpt><trkpt lat="45.4075865" lon="15.2537879"><ele>224.8</ele><time>2026-05-05T09:42:31.58Z</time></trkpt><trkpt lat="45.4075354" lon="15.2539337"><ele>225.0</ele><time>2026-05-05T09:42:32.58Z</time></trkpt><trkpt lat="45.4074652" lon="15.2540609"><ele>225.25</ele><time>2026-05-05T09:42:33.581Z</time></trkpt><trkpt lat="45.4073795" lon="15.2541662"><ele>225.5</ele><time>2026-05-05T09:42:34.58Z</time></trkpt><trkpt lat="45.4072744" lon="15.2542509"><ele>225.75</ele><time>2026-05-05T09:42:35.58Z</time></trkpt><trkpt lat="45.407158" lon="15.2543119"><ele>226.0</ele><time>2026-05-05T09:42:36.581Z</time></trkpt><trkpt lat="45.4070409" lon="15.2543292"><ele>225.0</ele><time>2026-05-05T09:42:37.581Z</time></trkpt><trkpt lat="45.4069233" lon="15.254315"><ele>224.0</ele><time>2026-05-05T09:42:38.58Z</time></trkpt><trkpt lat="45.4068091" lon="15.2542768"><ele>223.0</ele><time>2026-05-05T09:42:39.58Z</time></trkpt><trkpt lat="45.4067081" lon="15.2542024"><ele>222.0</ele><time>2026-05-05T09:42:40.58Z</time></trkpt><trkpt lat="45.4066205" lon="15.2541051"><ele>222.0</ele><time>2026-05-05T09:42:41.581Z</time></trkpt><trkpt lat="45.4065413" lon="15.2539725"><ele>222.0</ele><time>2026-05-05T09:42:42.581Z</time></trkpt><trkpt lat="45.406473" lon="15.2538161"><ele>222.0</ele><time>2026-05-05T09:42:43.58Z</time></trkpt><trkpt lat="45.4064122" lon="15.2536462"><ele>222.0</ele><time>2026-05-05T09:42:44.581Z</time></trkpt><trkpt lat="45.4063485" lon="15.2534557"><ele>222.33333333333331</ele><time>2026-05-05T09:42:45.58Z</time></trkpt><trkpt lat="45.4062862" lon="15.2532527"><ele>222.66666666666666</ele><time>2026-05-05T09:42:46.58Z</time></trkpt><trkpt lat="45.4062246" lon="15.2530231"><ele>223.0</ele><time>2026-05-05T09:42:47.581Z</time></trkpt><trkpt lat="45.4061675" lon="15.2527859"><ele>223.33333333333331</ele><time>2026-05-05T09:42:48.581Z</time></trkpt><trkpt lat="45.4061122" lon="15.2525418"><ele>223.66666666666669</ele><time>2026-05-05T09:42:49.58Z</time></trkpt><trkpt lat="45.4060613" lon="15.2522802"><ele>224.0</ele><time>2026-05-05T09:42:50.581Z</time></trkpt><trkpt lat="45.406021" lon="15.2520007"><ele>223.0</ele><time>2026-05-05T09:42:51.58Z</time></trkpt><trkpt lat="45.4059821" lon="15.2517203"><ele>222.0</ele><time>2026-05-05T09:42:52.581Z</time></trkpt><trkpt lat="45.4059512" lon="15.2514362"><ele>221.0</ele><time>2026-05-05T09:42:53.581Z</time></trkpt><trkpt lat="45.4059256" lon="15.2511568"><ele>220.0</ele><time>2026-05-05T09:42:54.58Z</time></trkpt><trkpt lat="45.4059039" lon="15.2508729"><ele>219.0</ele><time>2026-05-05T09:42:55.58Z</time></trkpt><trkpt lat="45.4058847" lon="15.2505924"><ele>218.0</ele><time>2026-05-05T09:42:56.581Z</time></trkpt><trkpt lat="45.4058629" lon="15.2503101"><ele>216.66666666666669</ele><time>2026-05-05T09:42:57.581Z</time></trkpt><trkpt lat="45.4058356" lon="15.2500238"><ele>215.33333333333331</ele><time>2026-05-05T09:42:58.581Z</time></trkpt><trkpt lat="45.4058084" lon="15.2497261"><ele>214.0</ele><time>2026-05-05T09:42:59.581Z</time></trkpt><trkpt lat="45.4057749" lon="15.2494354"><ele>213.66666666666666</ele><time>2026-05-05T09:43:00.581Z</time></trkpt><trkpt lat="45.4057334" lon="15.2491444"><ele>213.33333333333331</ele><time>2026-05-05T09:43:01.581Z</time></trkpt><trkpt lat="45.4056839" lon="15.2488501"><ele>213.0</ele><time>2026-05-05T09:43:02.581Z</time></trkpt><trkpt lat="45.4056341" lon="15.2485576"><ele>213.33333333333331</ele><time>2026-05-05T09:43:03.581Z</time></trkpt><trkpt lat="45.4055706" lon="15.2482644"><ele>213.66666666666666</ele><time>2026-05-05T09:43:04.581Z</time></trkpt><trkpt lat="45.4055087" lon="15.2479678"><ele>214.0</ele><time>2026-05-05T09:43:05.58Z</time></trkpt><trkpt lat="45.4054403" lon="15.2476747"><ele>214.33333333333331</ele><time>2026-05-05T09:43:06.58Z</time></trkpt><trkpt lat="45.4053615" lon="15.2473848"><ele>214.66666666666669</ele><time>2026-05-05T09:43:07.58Z</time></trkpt><trkpt lat="45.405278" lon="15.247096"><ele>215.0</ele><time>2026-05-05T09:43:08.58Z</time></trkpt><trkpt lat="45.4051852" lon="15.2468132"><ele>215.0</ele><time>2026-05-05T09:43:09.581Z</time></trkpt><trkpt lat="45.4050885" lon="15.2465359"><ele>215.0</ele><time>2026-05-05T09:43:10.58Z</time></trkpt><trkpt lat="45.4049852" lon="15.2462627"><ele>215.0</ele><time>2026-05-05T09:43:11.581Z</time></trkpt><trkpt lat="45.4048785" lon="15.2459914"><ele>216.33333333333334</ele><time>2026-05-05T09:43:12.58Z</time></trkpt><trkpt lat="45.4047672" lon="15.2457207"><ele>217.66666666666669</ele><time>2026-05-05T09:43:13.581Z</time></trkpt><trkpt lat="45.4046582" lon="15.2454457"><ele>219.0</ele><time>2026-05-05T09:43:14.58Z</time></trkpt><trkpt lat="45.4045412" lon="15.2451783"><ele>219.0</ele><time>2026-05-05T09:43:15.581Z</time></trkpt><trkpt lat="45.4044243" lon="15.2449142"><ele>219.0</ele><time>2026-05-05T09:43:16.581Z</time></trkpt><trkpt lat="45.4043049" lon="15.2446483"><ele>219.0</ele><time>2026-05-05T09:43:17.581Z</time></trkpt><trkpt lat="45.404182" lon="15.2443845"><ele>222.66666666666669</ele><time>2026-05-05T09:43:18.58Z</time></trkpt><trkpt lat="45.4040681" lon="15.2441317"><ele>226.33333333333334</ele><time>2026-05-05T09:43:19.581Z</time></trkpt><trkpt lat="45.4039515" lon="15.2438602"><ele>230.0</ele><time>2026-05-05T09:43:20.58Z</time></trkpt><trkpt lat="45.4038354" lon="15.2435919"><ele>231.0</ele><time>2026-05-05T09:43:21.581Z</time></trkpt><trkpt lat="45.4037153" lon="15.2433182"><ele>232.0</ele><time>2026-05-05T09:43:22.581Z</time></trkpt><trkpt lat="45.4035957" lon="15.2430438"><ele>233.0</ele><time>2026-05-05T09:43:23.581Z</time></trkpt><trkpt lat="45.4034787" lon="15.2427744"><ele>234.0</ele><time>2026-05-05T09:43:24.58Z</time></trkpt><trkpt lat="45.4033668" lon="15.2425004"><ele>235.0</ele><time>2026-05-05T09:43:25.58Z</time></trkpt><trkpt lat="45.4032527" lon="15.2422304"><ele>235.0</ele><time>2026-05-05T09:43:26.581Z</time></trkpt><trkpt lat="45.4031434" lon="15.2419537"><ele>235.0</ele><time>2026-05-05T09:43:27.581Z</time></trkpt><trkpt lat="45.4030379" lon="15.2416794"><ele>235.0</ele><time>2026-05-05T09:43:28.581Z</time></trkpt><trkpt lat="45.4029363" lon="15.241399"><ele>235.0</ele><time>2026-05-05T09:43:29.58Z</time></trkpt><trkpt lat="45.4028347" lon="15.2411204"><ele>235.0</ele><time>2026-05-05T09:43:30.581Z</time></trkpt><trkpt lat="45.4027298" lon="15.2408385"><ele>235.0</ele><time>2026-05-05T09:43:31.58Z</time></trkpt><trkpt lat="45.4026358" lon="15.2405591"><ele>235.66666666666666</ele><time>2026-05-05T09:43:32.581Z</time></trkpt><trkpt lat="45.4025385" lon="15.2402755"><ele>236.33333333333331</ele><time>2026-05-05T09:43:33.581Z</time></trkpt><trkpt lat="45.4024436" lon="15.2399912"><ele>237.0</ele><time>2026-05-05T09:43:34.58Z</time></trkpt><trkpt lat="45.4023525" lon="15.2397084"><ele>237.0</ele><time>2026-05-05T09:43:35.58Z</time></trkpt><trkpt lat="45.402265" lon="15.2394206"><ele>237.0</ele><time>2026-05-05T09:43:36.58Z</time></trkpt><trkpt lat="45.402179" lon="15.2391297"><ele>237.0</ele><time>2026-05-05T09:43:37.581Z</time></trkpt><trkpt lat="45.4020968" lon="15.2388461"><ele>237.0</ele><time>2026-05-05T09:43:38.58Z</time></trkpt><trkpt lat="45.4020128" lon="15.2385512"><ele>237.0</ele><time>2026-05-05T09:43:39.581Z</time></trkpt><trkpt lat="45.4019314" lon="15.2382546"><ele>237.0</ele><time>2026-05-05T09:43:40.581Z</time></trkpt><trkpt lat="45.4018539" lon="15.2379567"><ele>237.0</ele><time>2026-05-05T09:43:41.581Z</time></trkpt><trkpt lat="45.401775" lon="15.2376655"><ele>237.0</ele><time>2026-05-05T09:43:42.581Z</time></trkpt><trkpt lat="45.4017028" lon="15.2373607"><ele>237.0</ele><time>2026-05-05T09:43:43.581Z</time></trkpt><trkpt lat="45.4016275" lon="15.2370621"><ele>239.0</ele><time>2026-05-05T09:43:44.581Z</time></trkpt><trkpt lat="45.4015522" lon="15.2367608"><ele>241.0</ele><time>2026-05-05T09:43:45.58Z</time></trkpt><trkpt lat="45.4014857" lon="15.2364585"><ele>243.0</ele><time>2026-05-05T09:43:46.58Z</time></trkpt><trkpt lat="45.4014204" lon="15.2361539"><ele>243.0</ele><time>2026-05-05T09:43:47.58Z</time></trkpt><trkpt lat="45.4013552" lon="15.2358432"><ele>243.0</ele><time>2026-05-05T09:43:48.58Z</time></trkpt><trkpt lat="45.401296" lon="15.2355369"><ele>242.66666666666669</ele><time>2026-05-05T09:43:49.581Z</time></trkpt><trkpt lat="45.4012366" lon="15.2352314"><ele>242.33333333333334</ele><time>2026-05-05T09:43:50.58Z</time></trkpt><trkpt lat="45.4011827" lon="15.2349194"><ele>242.0</ele><time>2026-05-05T09:43:51.581Z</time></trkpt><trkpt lat="45.4011311" lon="15.2346072"><ele>242.0</ele><time>2026-05-05T09:43:52.58Z</time></trkpt><trkpt lat="45.4010819" lon="15.2342991"><ele>242.0</ele><time>2026-05-05T09:43:53.581Z</time></trkpt><trkpt lat="45.4010305" lon="15.2339871"><ele>242.0</ele><time>2026-05-05T09:43:54.581Z</time></trkpt><trkpt lat="45.40098" lon="15.2336872"><ele>243.33333333333334</ele><time>2026-05-05T09:43:55.58Z</time></trkpt><trkpt lat="45.4009344" lon="15.2333817"><ele>244.66666666666669</ele><time>2026-05-05T09:43:56.581Z</time></trkpt><trkpt lat="45.4008903" lon="15.2330778"><ele>246.0</ele><time>2026-05-05T09:43:57.581Z</time></trkpt><trkpt lat="45.4008491" lon="15.2327762"><ele>247.0</ele><time>2026-05-05T09:43:58.58Z</time></trkpt><trkpt lat="45.4008135" lon="15.2324692"><ele>248.0</ele><time>2026-05-05T09:43:59.58Z</time></trkpt><trkpt lat="45.4007757" lon="15.2321673"><ele>249.0</ele><time>2026-05-05T09:44:00.581Z</time></trkpt><trkpt lat="45.4007431" lon="15.2318701"><ele>249.0</ele><time>2026-05-05T09:44:01.581Z</time></trkpt><trkpt lat="45.4007129" lon="15.2315631"><ele>249.0</ele><time>2026-05-05T09:44:02.581Z</time></trkpt><trkpt lat="45.4006835" lon="15.2312577"><ele>249.0</ele><time>2026-05-05T09:44:03.581Z</time></trkpt><trkpt lat="45.4006598" lon="15.2309433"><ele>252.0</ele><time>2026-05-05T09:44:04.58Z</time></trkpt><trkpt lat="45.4006338" lon="15.2306315"><ele>255.0</ele><time>2026-05-05T09:44:05.581Z</time></trkpt><trkpt lat="45.4006217" lon="15.2303175"><ele>258.0</ele><time>2026-05-05T09:44:06.581Z</time></trkpt><trkpt lat="45.4005998" lon="15.2300057"><ele>260.0</ele><time>2026-05-05T09:44:07.58Z</time></trkpt><trkpt lat="45.4005853" lon="15.2296859"><ele>262.0</ele><time>2026-05-05T09:44:08.581Z</time></trkpt><trkpt lat="45.400574" lon="15.2293624"><ele>262.0</ele><time>2026-05-05T09:44:09.58Z</time></trkpt><trkpt lat="45.4005614" lon="15.2290475"><ele>262.0</ele><time>2026-05-05T09:44:10.58Z</time></trkpt><trkpt lat="45.4005529" lon="15.2287219"><ele>262.0</ele><time>2026-05-05T09:44:11.58Z</time></trkpt><trkpt lat="45.4005479" lon="15.2283964"><ele>262.0</ele><time>2026-05-05T09:44:12.58Z</time></trkpt><trkpt lat="45.4005429" lon="15.2280608"><ele>262.0</ele><time>2026-05-05T09:44:13.58Z</time></trkpt><trkpt lat="45.4005396" lon="15.227725"><ele>262.0</ele><time>2026-05-05T09:44:14.58Z</time></trkpt><trkpt lat="45.4005384" lon="15.2273926"><ele>261.0</ele><time>2026-05-05T09:44:15.581Z</time></trkpt><trkpt lat="45.4005328" lon="15.2270601"><ele>260.0</ele><time>2026-05-05T09:44:16.58Z</time></trkpt><trkpt lat="45.4005313" lon="15.2267307"><ele>259.5</ele><time>2026-05-05T09:44:17.581Z</time></trkpt><trkpt lat="45.4005266" lon="15.2264035"><ele>259.0</ele><time>2026-05-05T09:44:18.581Z</time></trkpt><trkpt lat="45.4005271" lon="15.2260797"><ele>259.0</ele><time>2026-05-05T09:44:19.58Z</time></trkpt><trkpt lat="45.4005222" lon="15.2257573"><ele>259.0</ele><time>2026-05-05T09:44:20.581Z</time></trkpt><trkpt lat="45.4005149" lon="15.2254342"><ele>259.0</ele><time>2026-05-05T09:44:21.581Z</time></trkpt><trkpt lat="45.4005087" lon="15.2251085"><ele>259.0</ele><time>2026-05-05T09:44:22.58Z</time></trkpt><trkpt lat="45.4004983" lon="15.2247815"><ele>257.5</ele><time>2026-05-05T09:44:23.581Z</time></trkpt><trkpt lat="45.4004852" lon="15.2244353"><ele>256.0</ele><time>2026-05-05T09:44:24.581Z</time></trkpt><trkpt lat="45.4004694" lon="15.2240849"><ele>254.0</ele><time>2026-05-05T09:44:25.581Z</time></trkpt><trkpt lat="45.4004506" lon="15.2237406"><ele>252.0</ele><time>2026-05-05T09:44:26.581Z</time></trkpt><trkpt lat="45.4004311" lon="15.2234006"><ele>250.5</ele><time>2026-05-05T09:44:27.581Z</time></trkpt><trkpt lat="45.4004132" lon="15.2230809"><ele>249.0</ele><time>2026-05-05T09:44:28.581Z</time></trkpt><trkpt lat="45.4003941" lon="15.2227613"><ele>249.0</ele><time>2026-05-05T09:44:29.581Z</time></trkpt><trkpt lat="45.4003718" lon="15.2224386"><ele>249.0</ele><time>2026-05-05T09:44:30.58Z</time></trkpt><trkpt lat="45.4003498" lon="15.2221021"><ele>249.0</ele><time>2026-05-05T09:44:31.581Z</time></trkpt><trkpt lat="45.4003234" lon="15.221768"><ele>249.0</ele><time>2026-05-05T09:44:32.581Z</time></trkpt><trkpt lat="45.4002919" lon="15.2214344"><ele>248.0</ele><time>2026-05-05T09:44:33.581Z</time></trkpt><trkpt lat="45.4002616" lon="15.2211039"><ele>247.0</ele><time>2026-05-05T09:44:34.58Z</time></trkpt><trkpt lat="45.4002296" lon="15.2207738"><ele>246.0</ele><time>2026-05-05T09:44:35.581Z</time></trkpt><trkpt lat="45.4001942" lon="15.220447"><ele>245.0</ele><time>2026-05-05T09:44:36.58Z</time></trkpt><trkpt lat="45.4001566" lon="15.2201197"><ele>246.0</ele><time>2026-05-05T09:44:37.58Z</time></trkpt><trkpt lat="45.4001187" lon="15.2197891"><ele>247.0</ele><time>2026-05-05T09:44:38.58Z</time></trkpt><trkpt lat="45.4000767" lon="15.2194586"><ele>247.0</ele><time>2026-05-05T09:44:39.581Z</time></trkpt><trkpt lat="45.4000331" lon="15.2191183"><ele>247.0</ele><time>2026-05-05T09:44:40.58Z</time></trkpt><trkpt lat="45.3999832" lon="15.2187857"><ele>250.0</ele><time>2026-05-05T09:44:41.581Z</time></trkpt><trkpt lat="45.3999357" lon="15.2184531"><ele>253.0</ele><time>2026-05-05T09:44:42.58Z</time></trkpt><trkpt lat="45.3998859" lon="15.2181163"><ele>255.5</ele><time>2026-05-05T09:44:43.58Z</time></trkpt><trkpt lat="45.3998304" lon="15.2177871"><ele>258.0</ele><time>2026-05-05T09:44:44.581Z</time></trkpt><trkpt lat="45.3997743" lon="15.2174557"><ele>258.5</ele><time>2026-05-05T09:44:45.58Z</time></trkpt><trkpt lat="45.3997132" lon="15.2171189"><ele>259.0</ele><time>2026-05-05T09:44:46.58Z</time></trkpt><trkpt lat="45.3996506" lon="15.2167759"><ele>251.0</ele><time>2026-05-05T09:44:47.58Z</time></trkpt><trkpt lat="45.3995832" lon="15.2164335"><ele>243.0</ele><time>2026-05-05T09:44:48.581Z</time></trkpt><trkpt lat="45.3995122" lon="15.2160828"><ele>243.0</ele><time>2026-05-05T09:44:49.58Z</time></trkpt><trkpt lat="45.3994387" lon="15.2157327"><ele>243.0</ele><time>2026-05-05T09:44:50.581Z</time></trkpt><trkpt lat="45.3993566" lon="15.2153847"><ele>240.0</ele><time>2026-05-05T09:44:51.58Z</time></trkpt><trkpt lat="45.3992807" lon="15.2150347"><ele>237.0</ele><time>2026-05-05T09:44:52.581Z</time></trkpt><trkpt lat="45.3991935" lon="15.2146825"><ele>233.0</ele><time>2026-05-05T09:44:53.58Z</time></trkpt><trkpt lat="45.3991032" lon="15.2143337"><ele>229.0</ele><time>2026-05-05T09:44:54.58Z</time></trkpt><trkpt lat="45.3990053" lon="15.213981"><ele>229.0</ele><time>2026-05-05T09:44:55.581Z</time></trkpt><trkpt lat="45.3989103" lon="15.2136294"><ele>229.0</ele><time>2026-05-05T09:44:56.581Z</time></trkpt><trkpt lat="45.3988154" lon="15.2132779"><ele>231.0</ele><time>2026-05-05T09:44:57.581Z</time></trkpt><trkpt lat="45.398721" lon="15.2129316"><ele>233.0</ele><time>2026-05-05T09:44:58.58Z</time></trkpt><trkpt lat="45.3986296" lon="15.2125946"><ele>235.5</ele><time>2026-05-05T09:44:59.581Z</time></trkpt><trkpt lat="45.3985234" lon="15.2122504"><ele>238.0</ele><time>2026-05-05T09:45:00.581Z</time></trkpt><trkpt lat="45.3983994" lon="15.2118981"><ele>238.0</ele><time>2026-05-05T09:45:01.58Z</time></trkpt><trkpt lat="45.398284" lon="15.2115453"><ele>238.0</ele><time>2026-05-05T09:45:02.58Z</time></trkpt><trkpt lat="45.3981742" lon="15.2111963"><ele>240.5</ele><time>2026-05-05T09:45:03.58Z</time></trkpt><trkpt lat="45.3980692" lon="15.2108562"><ele>243.0</ele><time>2026-05-05T09:45:04.58Z</time></trkpt><trkpt lat="45.3979573" lon="15.2105231"><ele>252.0</ele><time>2026-05-05T09:45:05.58Z</time></trkpt><trkpt lat="45.3978465" lon="15.2101974"><ele>261.0</ele><time>2026-05-05T09:45:06.581Z</time></trkpt><trkpt lat="45.3977338" lon="15.2098714"><ele>264.0</ele><time>2026-05-05T09:45:07.58Z</time></trkpt><trkpt lat="45.3976163" lon="15.2095525"><ele>267.0</ele><time>2026-05-05T09:45:08.581Z</time></trkpt><trkpt lat="45.3974889" lon="15.2092341"><ele>272.5</ele><time>2026-05-05T09:45:09.581Z</time></trkpt><trkpt lat="45.3973733" lon="15.2089097"><ele>278.0</ele><time>2026-05-05T09:45:10.58Z</time></trkpt><trkpt lat="45.3972493" lon="15.2085999"><ele>286.0</ele><time>2026-05-05T09:45:11.58Z</time></trkpt><trkpt lat="45.3971158" lon="15.2082939"><ele>294.0</ele><time>2026-05-05T09:45:12.581Z</time></trkpt><trkpt lat="45.3969813" lon="15.2079865"><ele>299.5</ele><time>2026-05-05T09:45:13.58Z</time></trkpt><trkpt lat="45.396845" lon="15.2076857"><ele>305.0</ele><time>2026-05-05T09:45:14.581Z</time></trkpt><trkpt lat="45.3967105" lon="15.2073767"><ele>308.0</ele><time>2026-05-05T09:45:15.581Z</time></trkpt><trkpt lat="45.3965708" lon="15.2070708"><ele>311.0</ele><time>2026-05-05T09:45:16.58Z</time></trkpt><trkpt lat="45.3964322" lon="15.2067666"><ele>317.5</ele><time>2026-05-05T09:45:17.58Z</time></trkpt><trkpt lat="45.396286" lon="15.2064691"><ele>324.0</ele><time>2026-05-05T09:45:18.58Z</time></trkpt><trkpt lat="45.3961327" lon="15.2061728"><ele>324.0</ele><time>2026-05-05T09:45:19.58Z</time></trkpt><trkpt lat="45.3959859" lon="15.2058763"><ele>324.0</ele><time>2026-05-05T09:45:20.58Z</time></trkpt><trkpt lat="45.3958406" lon="15.2055854"><ele>325.5</ele><time>2026-05-05T09:45:21.58Z</time></trkpt><trkpt lat="45.3956829" lon="15.2052991"><ele>327.0</ele><time>2026-05-05T09:45:22.58Z</time></trkpt><trkpt lat="45.3955277" lon="15.2050181"><ele>327.5</ele><time>2026-05-05T09:45:23.581Z</time></trkpt><trkpt lat="45.3953791" lon="15.2047438"><ele>328.0</ele><time>2026-05-05T09:45:24.58Z</time></trkpt><trkpt lat="45.3952323" lon="15.2044758"><ele>328.0</ele><time>2026-05-05T09:45:25.581Z</time></trkpt><trkpt lat="45.3950825" lon="15.2042109"><ele>328.0</ele><time>2026-05-05T09:45:26.58Z</time></trkpt><trkpt lat="45.394924" lon="15.2039345"><ele>326.0</ele><time>2026-05-05T09:45:27.581Z</time></trkpt><trkpt lat="45.3947716" lon="15.2036747"><ele>324.0</ele><time>2026-05-05T09:45:28.581Z</time></trkpt><trkpt lat="45.3946175" lon="15.2034145"><ele>324.5</ele><time>2026-05-05T09:45:29.581Z</time></trkpt><trkpt lat="45.3944605" lon="15.2031551"><ele>325.0</ele><time>2026-05-05T09:45:30.581Z</time></trkpt><trkpt lat="45.3942993" lon="15.202894"><ele>325.0</ele><time>2026-05-05T09:45:31.581Z</time></trkpt><trkpt lat="45.3941368" lon="15.2026299"><ele>325.0</ele><time>2026-05-05T09:45:32.58Z</time></trkpt><trkpt lat="45.3939761" lon="15.2023777"><ele>320.0</ele><time>2026-05-05T09:45:33.581Z</time></trkpt><trkpt lat="45.3938143" lon="15.2021333"><ele>315.0</ele><time>2026-05-05T09:45:34.58Z</time></trkpt><trkpt lat="45.3936502" lon="15.2018876"><ele>315.0</ele><time>2026-05-05T09:45:35.58Z</time></trkpt><trkpt lat="45.393479" lon="15.2016476"><ele>315.0</ele><time>2026-05-05T09:45:36.581Z</time></trkpt><trkpt lat="45.3933035" lon="15.201409"><ele>315.0</ele><time>2026-05-05T09:45:37.581Z</time></trkpt><trkpt lat="45.3931343" lon="15.2011744"><ele>315.0</ele><time>2026-05-05T09:45:38.581Z</time></trkpt><trkpt lat="45.3929648" lon="15.2009427"><ele>315.0</ele><time>2026-05-05T09:45:39.581Z</time></trkpt><trkpt lat="45.3927922" lon="15.2007016"><ele>315.0</ele><time>2026-05-05T09:45:40.58Z</time></trkpt><trkpt lat="45.3926196" lon="15.2004702"><ele>319.0</ele><time>2026-05-05T09:45:41.581Z</time></trkpt><trkpt lat="45.3924408" lon="15.2002448"><ele>323.0</ele><time>2026-05-05T09:45:42.58Z</time></trkpt><trkpt lat="45.3922612" lon="15.2000274"><ele>332.5</ele><time>2026-05-05T09:45:43.581Z</time></trkpt><trkpt lat="45.392079" lon="15.1998125"><ele>342.0</ele><time>2026-05-05T09:45:44.581Z</time></trkpt><trkpt lat="45.3918982" lon="15.1995927"><ele>342.0</ele><time>2026-05-05T09:45:45.58Z</time></trkpt><trkpt lat="45.3917148" lon="15.1993792"><ele>342.0</ele><time>2026-05-05T09:45:46.581Z</time></trkpt><trkpt lat="45.3915273" lon="15.1991643"><ele>344.0</ele><time>2026-05-05T09:45:47.58Z</time></trkpt><trkpt lat="45.3913431" lon="15.1989558"><ele>346.0</ele><time>2026-05-05T09:45:48.58Z</time></trkpt><trkpt lat="45.3911535" lon="15.1987452"><ele>351.0</ele><time>2026-05-05T09:45:49.581Z</time></trkpt><trkpt lat="45.3909694" lon="15.1985398"><ele>356.0</ele><time>2026-05-05T09:45:50.581Z</time></trkpt><trkpt lat="45.390783" lon="15.198338"><ele>356.0</ele><time>2026-05-05T09:45:51.581Z</time></trkpt><trkpt lat="45.3905952" lon="15.1981412"><ele>356.0</ele><time>2026-05-05T09:45:52.58Z</time></trkpt><trkpt lat="45.3904058" lon="15.1979457"><ele>357.5</ele><time>2026-05-05T09:45:53.58Z</time></trkpt><trkpt lat="45.390215" lon="15.1977573"><ele>359.0</ele><time>2026-05-05T09:45:54.58Z</time></trkpt><trkpt lat="45.3900269" lon="15.1975743"><ele>359.0</ele><time>2026-05-05T09:45:55.58Z</time></trkpt><trkpt lat="45.3898369" lon="15.1973854"><ele>359.0</ele><time>2026-05-05T09:45:56.581Z</time></trkpt><trkpt lat="45.3896435" lon="15.1971905"><ele>364.5</ele><time>2026-05-05T09:45:57.58Z</time></trkpt><trkpt lat="45.3894526" lon="15.1969923"><ele>370.0</ele><time>2026-05-05T09:45:58.581Z</time></trkpt><trkpt lat="45.3892619" lon="15.1967851"><ele>370.0</ele><time>2026-05-05T09:45:59.58Z</time></trkpt><trkpt lat="45.3890732" lon="15.1965896"><ele>370.0</ele><time>2026-05-05T09:46:00.581Z</time></trkpt><trkpt lat="45.3888937" lon="15.1963757"><ele>371.0</ele><time>2026-05-05T09:46:01.58Z</time></trkpt><trkpt lat="45.3887127" lon="15.1961684"><ele>372.0</ele><time>2026-05-05T09:46:02.581Z</time></trkpt><trkpt lat="45.3885338" lon="15.1959569"><ele>372.0</ele><time>2026-05-05T09:46:03.58Z</time></trkpt><trkpt lat="45.3883548" lon="15.1957308"><ele>372.0</ele><time>2026-05-05T09:46:04.581Z</time></trkpt><trkpt lat="45.388181" lon="15.1954956"><ele>372.5</ele><time>2026-05-05T09:46:05.581Z</time></trkpt><trkpt lat="45.3880141" lon="15.1952595"><ele>373.0</ele><time>2026-05-05T09:46:06.58Z</time></trkpt><trkpt lat="45.387849" lon="15.195024"><ele>377.0</ele><time>2026-05-05T09:46:07.58Z</time></trkpt><trkpt lat="45.3876789" lon="15.1947785"><ele>381.0</ele><time>2026-05-05T09:46:08.58Z</time></trkpt><trkpt lat="45.3875182" lon="15.1945238"><ele>381.0</ele><time>2026-05-05T09:46:09.58Z</time></trkpt><trkpt lat="45.3873603" lon="15.194267"><ele>381.0</ele><time>2026-05-05T09:46:10.581Z</time></trkpt><trkpt lat="45.3872183" lon="15.193992"><ele>385.5</ele><time>2026-05-05T09:46:11.58Z</time></trkpt><trkpt lat="45.3870775" lon="15.1937172"><ele>390.0</ele><time>2026-05-05T09:46:12.58Z</time></trkpt><trkpt lat="45.3869394" lon="15.1934364"><ele>389.5</ele><time>2026-05-05T09:46:13.581Z</time></trkpt><trkpt lat="45.3867975" lon="15.1931521"><ele>389.0</ele><time>2026-05-05T09:46:14.58Z</time></trkpt><trkpt lat="45.38667" lon="15.1928584"><ele>389.0</ele><time>2026-05-05T09:46:15.581Z</time></trkpt><trkpt lat="45.3865504" lon="15.1925684"><ele>389.0</ele><time>2026-05-05T09:46:16.581Z</time></trkpt><trkpt lat="45.3864317" lon="15.1922783"><ele>387.5</ele><time>2026-05-05T09:46:17.58Z</time></trkpt><trkpt lat="45.3863207" lon="15.1919857"><ele>386.0</ele><time>2026-05-05T09:46:18.58Z</time></trkpt><trkpt lat="45.3862151" lon="15.1916847"><ele>388.5</ele><time>2026-05-05T09:46:19.58Z</time></trkpt><trkpt lat="45.3861047" lon="15.191381"><ele>391.0</ele><time>2026-05-05T09:46:20.581Z</time></trkpt><trkpt lat="45.3860067" lon="15.1910755"><ele>391.0</ele><time>2026-05-05T09:46:21.58Z</time></trkpt><trkpt lat="45.3859154" lon="15.1907729"><ele>391.0</ele><time>2026-05-05T09:46:22.581Z</time></trkpt><trkpt lat="45.3858251" lon="15.1904631"><ele>394.5</ele><time>2026-05-05T09:46:23.58Z</time></trkpt><trkpt lat="45.3857455" lon="15.1901534"><ele>398.0</ele><time>2026-05-05T09:46:24.58Z</time></trkpt><trkpt lat="45.3856674" lon="15.1898283"><ele>403.5</ele><time>2026-05-05T09:46:25.58Z</time></trkpt><trkpt lat="45.3855891" lon="15.1894983"><ele>409.0</ele><time>2026-05-05T09:46:26.58Z</time></trkpt><trkpt lat="45.38552" lon="15.1891764"><ele>413.0</ele><time>2026-05-05T09:46:27.58Z</time></trkpt><trkpt lat="45.3854616" lon="15.1888532"><ele>417.0</ele><time>2026-05-05T09:46:28.581Z</time></trkpt><trkpt lat="45.3854159" lon="15.1885416"><ele>417.0</ele><time>2026-05-05T09:46:29.581Z</time></trkpt><trkpt lat="45.3853634" lon="15.1882094"><ele>417.0</ele><time>2026-05-05T09:46:30.58Z</time></trkpt><trkpt lat="45.3853248" lon="15.1878768"><ele>419.0</ele><time>2026-05-05T09:46:31.581Z</time></trkpt><trkpt lat="45.3852836" lon="15.1875392"><ele>421.0</ele><time>2026-05-05T09:46:32.58Z</time></trkpt><trkpt lat="45.3852477" lon="15.187208"><ele>423.0</ele><time>2026-05-05T09:46:33.58Z</time></trkpt><trkpt lat="45.3852208" lon="15.1868663"><ele>425.0</ele><time>2026-05-05T09:46:34.58Z</time></trkpt><trkpt lat="45.3851953" lon="15.1865406"><ele>426.0</ele><time>2026-05-05T09:46:35.581Z</time></trkpt><trkpt lat="45.3851828" lon="15.1862162"><ele>427.0</ele><time>2026-05-05T09:46:36.58Z</time></trkpt><trkpt lat="45.3851829" lon="15.185878"><ele>425.0</ele><time>2026-05-05T09:46:37.581Z</time></trkpt><trkpt lat="45.3851771" lon="15.1855508"><ele>423.0</ele><time>2026-05-05T09:46:38.581Z</time></trkpt><trkpt lat="45.3851806" lon="15.1852008"><ele>423.0</ele><time>2026-05-05T09:46:39.581Z</time></trkpt><trkpt lat="45.3851774" lon="15.1848671"><ele>423.0</ele><time>2026-05-05T09:46:40.58Z</time></trkpt><trkpt lat="45.3851875" lon="15.1845257"><ele>422.0</ele><time>2026-05-05T09:46:41.581Z</time></trkpt><trkpt lat="45.3852188" lon="15.1841464"><ele>421.0</ele><time>2026-05-05T09:46:42.581Z</time></trkpt><trkpt lat="45.3852412" lon="15.1837992"><ele>421.0</ele><time>2026-05-05T09:46:43.581Z</time></trkpt><trkpt lat="45.3852695" lon="15.1834521"><ele>421.0</ele><time>2026-05-05T09:46:44.581Z</time></trkpt><trkpt lat="45.3853001" lon="15.183112"><ele>424.0</ele><time>2026-05-05T09:46:45.581Z</time></trkpt><trkpt lat="45.3853325" lon="15.1827677"><ele>427.0</ele><time>2026-05-05T09:46:46.58Z</time></trkpt><trkpt lat="45.3853669" lon="15.1824306"><ele>431.5</ele><time>2026-05-05T09:46:47.58Z</time></trkpt><trkpt lat="45.3853984" lon="15.1820745"><ele>436.0</ele><time>2026-05-05T09:46:48.581Z</time></trkpt><trkpt lat="45.3854283" lon="15.1817324"><ele>438.5</ele><time>2026-05-05T09:46:49.58Z</time></trkpt><trkpt lat="45.3854647" lon="15.1813804"><ele>441.0</ele><time>2026-05-05T09:46:50.58Z</time></trkpt><trkpt lat="45.3854973" lon="15.1810316"><ele>438.5</ele><time>2026-05-05T09:46:51.581Z</time></trkpt><trkpt lat="45.3855287" lon="15.1806806"><ele>436.0</ele><time>2026-05-05T09:46:52.581Z</time></trkpt><trkpt lat="45.3855643" lon="15.1803211"><ele>436.0</ele><time>2026-05-05T09:46:53.581Z</time></trkpt><trkpt lat="45.3855865" lon="15.179967"><ele>436.0</ele><time>2026-05-05T09:46:54.58Z</time></trkpt><trkpt lat="45.3856109" lon="15.1796101"><ele>439.0</ele><time>2026-05-05T09:46:55.581Z</time></trkpt><trkpt lat="45.3856292" lon="15.1792487"><ele>442.0</ele><time>2026-05-05T09:46:56.581Z</time></trkpt><trkpt lat="45.3856514" lon="15.1788758"><ele>442.0</ele><time>2026-05-05T09:46:57.58Z</time></trkpt><trkpt lat="45.3856639" lon="15.1785269"><ele>442.0</ele><time>2026-05-05T09:46:58.58Z</time></trkpt><trkpt lat="45.3856745" lon="15.178176"><ele>443.5</ele><time>2026-05-05T09:46:59.58Z</time></trkpt><trkpt lat="45.3856781" lon="15.1778268"><ele>445.0</ele><time>2026-05-05T09:47:00.58Z</time></trkpt><trkpt lat="45.385683" lon="15.1774697"><ele>447.0</ele><time>2026-05-05T09:47:01.58Z</time></trkpt><trkpt lat="45.3856849" lon="15.1771185"><ele>449.0</ele><time>2026-05-05T09:47:02.58Z</time></trkpt><trkpt lat="45.3856828" lon="15.1767735"><ele>449.5</ele><time>2026-05-05T09:47:03.581Z</time></trkpt><trkpt lat="45.3856755" lon="15.1764209"><ele>450.0</ele><time>2026-05-05T09:47:04.58Z</time></trkpt><trkpt lat="45.3856647" lon="15.1760705"><ele>450.0</ele><time>2026-05-05T09:47:05.58Z</time></trkpt><trkpt lat="45.3856509" lon="15.1757194"><ele>450.0</ele><time>2026-05-05T09:47:06.58Z</time></trkpt><trkpt lat="45.3856336" lon="15.1753597"><ele>452.0</ele><time>2026-05-05T09:47:07.58Z</time></trkpt><trkpt lat="45.3856153" lon="15.1750046"><ele>454.0</ele><time>2026-05-05T09:47:08.581Z</time></trkpt><trkpt lat="45.385588" lon="15.1746457"><ele>454.5</ele><time>2026-05-05T09:47:09.58Z</time></trkpt><trkpt lat="45.3855573" lon="15.1742906"><ele>455.0</ele><time>2026-05-05T09:47:10.58Z</time></trkpt><trkpt lat="45.3855254" lon="15.1739356"><ele>456.5</ele><time>2026-05-05T09:47:11.581Z</time></trkpt><trkpt lat="45.3854929" lon="15.1735689"><ele>458.0</ele><time>2026-05-05T09:47:12.58Z</time></trkpt><trkpt lat="45.385459" lon="15.1732095"><ele>454.5</ele><time>2026-05-05T09:47:13.581Z</time></trkpt><trkpt lat="45.3854163" lon="15.1728561"><ele>451.0</ele><time>2026-05-05T09:47:14.58Z</time></trkpt><trkpt lat="45.3853716" lon="15.172508"><ele>448.0</ele><time>2026-05-05T09:47:15.581Z</time></trkpt><trkpt lat="45.3853257" lon="15.1721598"><ele>445.0</ele><time>2026-05-05T09:47:16.58Z</time></trkpt><trkpt lat="45.3852758" lon="15.1718156"><ele>447.0</ele><time>2026-05-05T09:47:17.58Z</time></trkpt><trkpt lat="45.3852261" lon="15.1714785"><ele>449.0</ele><time>2026-05-05T09:47:18.58Z</time></trkpt><trkpt lat="45.3851708" lon="15.1711454"><ele>449.0</ele><time>2026-05-05T09:47:19.58Z</time></trkpt><trkpt lat="45.3851118" lon="15.1708133"><ele>449.0</ele><time>2026-05-05T09:47:20.581Z</time></trkpt><trkpt lat="45.3850546" lon="15.1704811"><ele>455.0</ele><time>2026-05-05T09:47:21.58Z</time></trkpt><trkpt lat="45.3849905" lon="15.1701585"><ele>461.0</ele><time>2026-05-05T09:47:22.58Z</time></trkpt><trkpt lat="45.3849264" lon="15.1698355"><ele>465.0</ele><time>2026-05-05T09:47:23.581Z</time></trkpt><trkpt lat="45.3848519" lon="15.1695188"><ele>469.0</ele><time>2026-05-05T09:47:24.581Z</time></trkpt><trkpt lat="45.3847818" lon="15.1691969"><ele>472.5</ele><time>2026-05-05T09:47:25.58Z</time></trkpt><trkpt lat="45.3847034" lon="15.1688793"><ele>476.0</ele><time>2026-05-05T09:47:26.581Z</time></trkpt><trkpt lat="45.3846273" lon="15.168564"><ele>480.5</ele><time>2026-05-05T09:47:27.58Z</time></trkpt><trkpt lat="45.3845469" lon="15.1682552"><ele>485.0</ele><time>2026-05-05T09:47:28.581Z</time></trkpt><trkpt lat="45.384464" lon="15.1679192"><ele>495.5</ele><time>2026-05-05T09:47:29.58Z</time></trkpt><trkpt lat="45.3843802" lon="15.1675913"><ele>506.0</ele><time>2026-05-05T09:47:30.581Z</time></trkpt><trkpt lat="45.3842921" lon="15.1672661"><ele>502.0</ele><time>2026-05-05T09:47:31.581Z</time></trkpt><trkpt lat="45.3793109" lon="15.1544707"><ele>502.0</ele><time>2026-05-05T09:48:20.58Z</time></trkpt><trkpt lat="45.3792358" lon="15.1541498"><ele>502.0</ele><time>2026-05-05T09:48:21.581Z</time></trkpt><trkpt lat="45.3791879" lon="15.1538637"><ele>502.0</ele><time>2026-05-05T09:48:22.58Z</time></trkpt><trkpt lat="45.3791427" lon="15.1535731"><ele>501.33333333333337</ele><time>2026-05-05T09:48:23.58Z</time></trkpt><trkpt lat="45.3791051" lon="15.1532819"><ele>500.66666666666663</ele><time>2026-05-05T09:48:24.581Z</time></trkpt><trkpt lat="45.3790687" lon="15.1529944"><ele>500.0</ele><time>2026-05-05T09:48:25.58Z</time></trkpt><trkpt lat="45.3790359" lon="15.1527042"><ele>500.0</ele><time>2026-05-05T09:48:26.58Z</time></trkpt><trkpt lat="45.379009" lon="15.1524154"><ele>500.0</ele><time>2026-05-05T09:48:27.581Z</time></trkpt><trkpt lat="45.3789886" lon="15.1521263"><ele>500.0</ele><time>2026-05-05T09:48:28.58Z</time></trkpt><trkpt lat="45.3789647" lon="15.1518376"><ele>500.0</ele><time>2026-05-05T09:48:29.58Z</time></trkpt><trkpt lat="45.3789444" lon="15.1515479"><ele>500.0</ele><time>2026-05-05T09:48:30.581Z</time></trkpt><trkpt lat="45.3789259" lon="15.1512571"><ele>500.0</ele><time>2026-05-05T09:48:31.581Z</time></trkpt><trkpt lat="45.3789133" lon="15.1509587"><ele>498.3333333333333</ele><time>2026-05-05T09:48:32.581Z</time></trkpt><trkpt lat="45.3789031" lon="15.1506638"><ele>496.66666666666663</ele><time>2026-05-05T09:48:33.581Z</time></trkpt><trkpt lat="45.3788965" lon="15.1503635"><ele>495.0</ele><time>2026-05-05T09:48:34.58Z</time></trkpt><trkpt lat="45.3788877" lon="15.1500667"><ele>493.66666666666663</ele><time>2026-05-05T09:48:35.581Z</time></trkpt><trkpt lat="45.378876" lon="15.1497749"><ele>492.3333333333333</ele><time>2026-05-05T09:48:36.58Z</time></trkpt><trkpt lat="45.3788637" lon="15.1494817"><ele>491.0</ele><time>2026-05-05T09:48:37.581Z</time></trkpt><trkpt lat="45.3788536" lon="15.1491913"><ele>487.66666666666663</ele><time>2026-05-05T09:48:38.581Z</time></trkpt><trkpt lat="45.3788428" lon="15.1488977"><ele>484.33333333333337</ele><time>2026-05-05T09:48:39.58Z</time></trkpt><trkpt lat="45.3788337" lon="15.1486075"><ele>481.0</ele><time>2026-05-05T09:48:40.58Z</time></trkpt><trkpt lat="45.3788226" lon="15.1483137"><ele>476.0</ele><time>2026-05-05T09:48:41.58Z</time></trkpt><trkpt lat="45.3788185" lon="15.1480206"><ele>471.0</ele><time>2026-05-05T09:48:42.58Z</time></trkpt><trkpt lat="45.3788071" lon="15.1477334"><ele>466.0</ele><time>2026-05-05T09:48:43.58Z</time></trkpt><trkpt lat="45.3787963" lon="15.1474487"><ele>463.0</ele><time>2026-05-05T09:48:44.58Z</time></trkpt><trkpt lat="45.3787844" lon="15.1471665"><ele>460.0</ele><time>2026-05-05T09:48:45.58Z</time></trkpt><trkpt lat="45.3787736" lon="15.1468819"><ele>457.0</ele><time>2026-05-05T09:48:46.58Z</time></trkpt><trkpt lat="45.3787608" lon="15.1466035"><ele>457.6666666666667</ele><time>2026-05-05T09:48:47.581Z</time></trkpt><trkpt lat="45.3787521" lon="15.1463229"><ele>458.33333333333337</ele><time>2026-05-05T09:48:48.58Z</time></trkpt><trkpt lat="45.3787411" lon="15.1460389"><ele>459.0</ele><time>2026-05-05T09:48:49.58Z</time></trkpt><trkpt lat="45.3787293" lon="15.1457566"><ele>457.66666666666663</ele><time>2026-05-05T09:48:50.58Z</time></trkpt><trkpt lat="45.3787184" lon="15.1454747"><ele>456.3333333333333</ele><time>2026-05-05T09:48:51.58Z</time></trkpt><trkpt lat="45.3787071" lon="15.1451948"><ele>455.0</ele><time>2026-05-05T09:48:52.581Z</time></trkpt><trkpt lat="45.3786973" lon="15.1449107"><ele>453.66666666666663</ele><time>2026-05-05T09:48:53.58Z</time></trkpt><trkpt lat="45.3786851" lon="15.1446272"><ele>452.33333333333337</ele><time>2026-05-05T09:48:54.581Z</time></trkpt><trkpt lat="45.3786741" lon="15.1443424"><ele>451.0</ele><time>2026-05-05T09:48:55.58Z</time></trkpt><trkpt lat="45.3786621" lon="15.1440581"><ele>450.33333333333337</ele><time>2026-05-05T09:48:56.581Z</time></trkpt><trkpt lat="45.3786533" lon="15.1437732"><ele>449.66666666666663</ele><time>2026-05-05T09:48:57.581Z</time></trkpt><trkpt lat="45.3786444" lon="15.1434874"><ele>449.0</ele><time>2026-05-05T09:48:58.581Z</time></trkpt><trkpt lat="45.3786329" lon="15.143205"><ele>447.3333333333333</ele><time>2026-05-05T09:48:59.58Z</time></trkpt><trkpt lat="45.378624" lon="15.1429236"><ele>445.66666666666663</ele><time>2026-05-05T09:49:00.581Z</time></trkpt><trkpt lat="45.3786143" lon="15.1426412"><ele>444.0</ele><time>2026-05-05T09:49:01.58Z</time></trkpt><trkpt lat="45.3786045" lon="15.1423642"><ele>443.33333333333337</ele><time>2026-05-05T09:49:02.58Z</time></trkpt><trkpt lat="45.378595" lon="15.1420881"><ele>442.6666666666667</ele><time>2026-05-05T09:49:03.58Z</time></trkpt><trkpt lat="45.378586" lon="15.1418098"><ele>442.0</ele><time>2026-05-05T09:49:04.58Z</time></trkpt><trkpt lat="45.378578" lon="15.14153"><ele>440.6666666666667</ele><time>2026-05-05T09:49:05.58Z</time></trkpt><trkpt lat="45.3785705" lon="15.1412522"><ele>439.33333333333337</ele><time>2026-05-05T09:49:06.581Z</time></trkpt><trkpt lat="45.3785587" lon="15.1409768"><ele>438.0</ele><time>2026-05-05T09:49:07.58Z</time></trkpt><trkpt lat="45.3785501" lon="15.1407029"><ele>436.33333333333337</ele><time>2026-05-05T09:49:08.581Z</time></trkpt><trkpt lat="45.3785395" lon="15.1404272"><ele>434.6666666666667</ele><time>2026-05-05T09:49:09.581Z</time></trkpt><trkpt lat="45.3785285" lon="15.1401532"><ele>433.0</ele><time>2026-05-05T09:49:10.58Z</time></trkpt><trkpt lat="45.3785182" lon="15.1398788"><ele>433.0</ele><time>2026-05-05T09:49:11.581Z</time></trkpt><trkpt lat="45.37851" lon="15.1396053"><ele>433.0</ele><time>2026-05-05T09:49:12.58Z</time></trkpt><trkpt lat="45.3785003" lon="15.1393303"><ele>433.0</ele><time>2026-05-05T09:49:13.58Z</time></trkpt><trkpt lat="45.3784903" lon="15.1390531"><ele>435.33333333333337</ele><time>2026-05-05T09:49:14.581Z</time></trkpt><trkpt lat="45.3784783" lon="15.1387725"><ele>437.66666666666663</ele><time>2026-05-05T09:49:15.581Z</time></trkpt><trkpt lat="45.3784646" lon="15.1384912"><ele>440.0</ele><time>2026-05-05T09:49:16.58Z</time></trkpt><trkpt lat="45.3784509" lon="15.1382084"><ele>440.3333333333333</ele><time>2026-05-05T09:49:17.58Z</time></trkpt><trkpt lat="45.3784393" lon="15.1379233"><ele>440.66666666666663</ele><time>2026-05-05T09:49:18.581Z</time></trkpt><trkpt lat="45.3784261" lon="15.1376353"><ele>441.0</ele><time>2026-05-05T09:49:19.581Z</time></trkpt><trkpt lat="45.3784139" lon="15.1373469"><ele>441.0</ele><time>2026-05-05T09:49:20.58Z</time></trkpt><trkpt lat="45.3783959" lon="15.1370638"><ele>441.0</ele><time>2026-05-05T09:49:21.581Z</time></trkpt><trkpt lat="45.378378" lon="15.1367815"><ele>441.0</ele><time>2026-05-05T09:49:22.58Z</time></trkpt><trkpt lat="45.3783641" lon="15.1364947"><ele>439.66666666666663</ele><time>2026-05-05T09:49:23.581Z</time></trkpt><trkpt lat="45.3783452" lon="15.1362115"><ele>438.3333333333333</ele><time>2026-05-05T09:49:24.58Z</time></trkpt><trkpt lat="45.3783263" lon="15.1359241"><ele>437.0</ele><time>2026-05-05T09:49:25.581Z</time></trkpt><trkpt lat="45.3783032" lon="15.1356398"><ele>435.66666666666663</ele><time>2026-05-05T09:49:26.58Z</time></trkpt><trkpt lat="45.3782832" lon="15.1353705"><ele>434.33333333333337</ele><time>2026-05-05T09:49:27.581Z</time></trkpt><trkpt lat="45.3782566" lon="15.1350871"><ele>433.0</ele><time>2026-05-05T09:49:28.58Z</time></trkpt><trkpt lat="45.3782297" lon="15.1348046"><ele>431.33333333333337</ele><time>2026-05-05T09:49:29.58Z</time></trkpt><trkpt lat="45.3781924" lon="15.1345271"><ele>429.66666666666663</ele><time>2026-05-05T09:49:30.581Z</time></trkpt><trkpt lat="45.3781623" lon="15.1342453"><ele>428.0</ele><time>2026-05-05T09:49:31.581Z</time></trkpt><trkpt lat="45.378131" lon="15.1339693"><ele>426.0</ele><time>2026-05-05T09:49:32.58Z</time></trkpt><trkpt lat="45.3780946" lon="15.1336964"><ele>424.0</ele><time>2026-05-05T09:49:33.58Z</time></trkpt><trkpt lat="45.3780562" lon="15.1334304"><ele>422.0</ele><time>2026-05-05T09:49:34.58Z</time></trkpt><trkpt lat="45.3780235" lon="15.1331597"><ele>417.0</ele><time>2026-05-05T09:49:35.581Z</time></trkpt><trkpt lat="45.3779771" lon="15.1329041"><ele>412.0</ele><time>2026-05-05T09:49:36.581Z</time></trkpt><trkpt lat="45.377938" lon="15.1326429"><ele>407.0</ele><time>2026-05-05T09:49:37.58Z</time></trkpt><trkpt lat="45.3779" lon="15.1323846"><ele>404.3333333333333</ele><time>2026-05-05T09:49:38.581Z</time></trkpt><trkpt lat="45.3778557" lon="15.1321292"><ele>401.66666666666663</ele><time>2026-05-05T09:49:39.581Z</time></trkpt><trkpt lat="45.3778133" lon="15.1318674"><ele>399.0</ele><time>2026-05-05T09:49:40.58Z</time></trkpt><trkpt lat="45.3777704" lon="15.1316119"><ele>397.0</ele><time>2026-05-05T09:49:41.581Z</time></trkpt><trkpt lat="45.3777252" lon="15.1313512"><ele>395.0</ele><time>2026-05-05T09:49:42.58Z</time></trkpt><trkpt lat="45.3776745" lon="15.1311044"><ele>393.0</ele><time>2026-05-05T09:49:43.581Z</time></trkpt><trkpt lat="45.3776226" lon="15.1308537"><ele>392.66666666666663</ele><time>2026-05-05T09:49:44.581Z</time></trkpt><trkpt lat="45.3775757" lon="15.1306008"><ele>392.3333333333333</ele><time>2026-05-05T09:49:45.58Z</time></trkpt><trkpt lat="45.3775269" lon="15.1303473"><ele>392.0</ele><time>2026-05-05T09:49:46.58Z</time></trkpt><trkpt lat="45.377473" lon="15.1300949"><ele>392.0</ele><time>2026-05-05T09:49:47.58Z</time></trkpt><trkpt lat="45.3774123" lon="15.1298423"><ele>392.0</ele><time>2026-05-05T09:49:48.58Z</time></trkpt><trkpt lat="45.3773524" lon="15.1295903"><ele>392.0</ele><time>2026-05-05T09:49:49.581Z</time></trkpt><trkpt lat="45.3772927" lon="15.1293443"><ele>392.0</ele><time>2026-05-05T09:49:50.58Z</time></trkpt><trkpt lat="45.3772292" lon="15.129096"><ele>392.0</ele><time>2026-05-05T09:49:51.581Z</time></trkpt><trkpt lat="45.3771678" lon="15.1288395"><ele>392.0</ele><time>2026-05-05T09:49:52.58Z</time></trkpt><trkpt lat="45.3770978" lon="15.128577"><ele>391.66666666666663</ele><time>2026-05-05T09:49:53.581Z</time></trkpt><trkpt lat="45.3770328" lon="15.1283177"><ele>391.33333333333337</ele><time>2026-05-05T09:49:54.58Z</time></trkpt><trkpt lat="45.3769628" lon="15.1280541"><ele>391.0</ele><time>2026-05-05T09:49:55.58Z</time></trkpt><trkpt lat="45.3768917" lon="15.1277804"><ele>390.6666666666667</ele><time>2026-05-05T09:49:56.58Z</time></trkpt><trkpt lat="45.3768135" lon="15.1275024"><ele>390.33333333333337</ele><time>2026-05-05T09:49:57.58Z</time></trkpt><trkpt lat="45.3767222" lon="15.1272259"><ele>390.0</ele><time>2026-05-05T09:49:58.581Z</time></trkpt><trkpt lat="45.3766366" lon="15.1269415"><ele>391.33333333333337</ele><time>2026-05-05T09:49:59.581Z</time></trkpt><trkpt lat="45.3765433" lon="15.1266612"><ele>392.6666666666667</ele><time>2026-05-05T09:50:00.581Z</time></trkpt><trkpt lat="45.3764511" lon="15.1263732"><ele>394.0</ele><time>2026-05-05T09:50:01.58Z</time></trkpt><trkpt lat="45.3763586" lon="15.1260827"><ele>397.5</ele><time>2026-05-05T09:50:02.581Z</time></trkpt><trkpt lat="45.3762594" lon="15.1257877"><ele>401.0</ele><time>2026-05-05T09:50:03.581Z</time></trkpt><trkpt lat="45.3761623" lon="15.1254935"><ele>401.0</ele><time>2026-05-05T09:50:04.581Z</time></trkpt><trkpt lat="45.3760526" lon="15.1252021"><ele>401.0</ele><time>2026-05-05T09:50:05.581Z</time></trkpt><trkpt lat="45.3759458" lon="15.1249096"><ele>403.0</ele><time>2026-05-05T09:50:06.581Z</time></trkpt><trkpt lat="45.3758411" lon="15.1246218"><ele>405.0</ele><time>2026-05-05T09:50:07.581Z</time></trkpt><trkpt lat="45.3757351" lon="15.1243379"><ele>408.0</ele><time>2026-05-05T09:50:08.58Z</time></trkpt><trkpt lat="45.3756287" lon="15.1240612"><ele>411.0</ele><time>2026-05-05T09:50:09.58Z</time></trkpt><trkpt lat="45.3755252" lon="15.123782"><ele>414.0</ele><time>2026-05-05T09:50:10.58Z</time></trkpt><trkpt lat="45.3754155" lon="15.123509"><ele>415.0</ele><time>2026-05-05T09:50:11.581Z</time></trkpt><trkpt lat="45.37531" lon="15.1232485"><ele>416.0</ele><time>2026-05-05T09:50:12.581Z</time></trkpt><trkpt lat="45.3751993" lon="15.1229793"><ele>417.0</ele><time>2026-05-05T09:50:13.581Z</time></trkpt><trkpt lat="45.3750921" lon="15.1227191"><ele>421.33333333333337</ele><time>2026-05-05T09:50:14.581Z</time></trkpt><trkpt lat="45.3749897" lon="15.122463"><ele>425.6666666666667</ele><time>2026-05-05T09:50:15.58Z</time></trkpt><trkpt lat="45.3748815" lon="15.1222164"><ele>430.0</ele><time>2026-05-05T09:50:16.58Z</time></trkpt><trkpt lat="45.3747729" lon="15.1219695"><ele>438.6666666666667</ele><time>2026-05-05T09:50:17.581Z</time></trkpt><trkpt lat="45.3746557" lon="15.1217153"><ele>447.33333333333337</ele><time>2026-05-05T09:50:18.581Z</time></trkpt><trkpt lat="45.374539" lon="15.1214575"><ele>456.0</ele><time>2026-05-05T09:50:19.581Z</time></trkpt><trkpt lat="45.3744255" lon="15.1212055"><ele>462.0</ele><time>2026-05-05T09:50:20.581Z</time></trkpt><trkpt lat="45.3743137" lon="15.1209563"><ele>468.0</ele><time>2026-05-05T09:50:21.581Z</time></trkpt><trkpt lat="45.3742036" lon="15.120699"><ele>474.0</ele><time>2026-05-05T09:50:22.58Z</time></trkpt><trkpt lat="45.3740979" lon="15.1204695"><ele>475.0</ele><time>2026-05-05T09:50:23.581Z</time></trkpt><trkpt lat="45.3739838" lon="15.1202408"><ele>476.0</ele><time>2026-05-05T09:50:24.581Z</time></trkpt><trkpt lat="45.3738635" lon="15.119964"><ele>477.0</ele><time>2026-05-05T09:50:25.58Z</time></trkpt><trkpt lat="45.3737431" lon="15.1197173"><ele>477.0</ele><time>2026-05-05T09:50:26.58Z</time></trkpt><trkpt lat="45.3736097" lon="15.1194606"><ele>477.0</ele><time>2026-05-05T09:50:27.58Z</time></trkpt><trkpt lat="45.3735038" lon="15.1192094"><ele>477.0</ele><time>2026-05-05T09:50:28.581Z</time></trkpt><trkpt lat="45.3733985" lon="15.1189582"><ele>479.33333333333337</ele><time>2026-05-05T09:50:29.58Z</time></trkpt><trkpt lat="45.3733246" lon="15.1186786"><ele>481.6666666666667</ele><time>2026-05-05T09:50:30.58Z</time></trkpt><trkpt lat="45.3732483" lon="15.1183877"><ele>484.0</ele><time>2026-05-05T09:50:31.581Z</time></trkpt><trkpt lat="45.3731816" lon="15.1181175"><ele>486.33333333333337</ele><time>2026-05-05T09:50:32.58Z</time></trkpt><trkpt lat="45.3730873" lon="15.1178621"><ele>488.66666666666663</ele><time>2026-05-05T09:50:33.581Z</time></trkpt><trkpt lat="45.3730091" lon="15.1175877"><ele>491.0</ele><time>2026-05-05T09:50:34.58Z</time></trkpt><trkpt lat="45.372924" lon="15.1173115"><ele>493.0</ele><time>2026-05-05T09:50:35.58Z</time></trkpt><trkpt lat="45.3728738" lon="15.1170162"><ele>495.0</ele><time>2026-05-05T09:50:36.58Z</time></trkpt><trkpt lat="45.3728155" lon="15.1167229"><ele>497.0</ele><time>2026-05-05T09:50:37.58Z</time></trkpt><trkpt lat="45.3727591" lon="15.1164347"><ele>499.66666666666663</ele><time>2026-05-05T09:50:38.581Z</time></trkpt><trkpt lat="45.3727101" lon="15.1161277"><ele>502.33333333333337</ele><time>2026-05-05T09:50:39.58Z</time></trkpt><trkpt lat="45.372656" lon="15.1158339"><ele>505.0</ele><time>2026-05-05T09:50:40.581Z</time></trkpt><trkpt lat="45.3726152" lon="15.1155297"><ele>505.33333333333337</ele><time>2026-05-05T09:50:41.581Z</time></trkpt><trkpt lat="45.3725935" lon="15.1152265"><ele>505.66666666666663</ele><time>2026-05-05T09:50:42.58Z</time></trkpt><trkpt lat="45.3725691" lon="15.1149161"><ele>506.0</ele><time>2026-05-05T09:50:43.581Z</time></trkpt><trkpt lat="45.3725557" lon="15.1146119"><ele>506.3333333333333</ele><time>2026-05-05T09:50:44.58Z</time></trkpt><trkpt lat="45.3725587" lon="15.1143031"><ele>506.66666666666663</ele><time>2026-05-05T09:50:45.581Z</time></trkpt><trkpt lat="45.3725555" lon="15.1139781"><ele>507.0</ele><time>2026-05-05T09:50:46.58Z</time></trkpt><trkpt lat="45.3725675" lon="15.1136858"><ele>507.0</ele><time>2026-05-05T09:50:47.581Z</time></trkpt><trkpt lat="45.3725725" lon="15.1133615"><ele>507.0</ele><time>2026-05-05T09:50:48.58Z</time></trkpt><trkpt lat="45.3725984" lon="15.1130397"><ele>506.5</ele><time>2026-05-05T09:50:49.581Z</time></trkpt><trkpt lat="45.3726081" lon="15.1127231"><ele>506.0</ele><time>2026-05-05T09:50:50.58Z</time></trkpt><trkpt lat="45.3726568" lon="15.1124053"><ele>506.0</ele><time>2026-05-05T09:50:51.581Z</time></trkpt><trkpt lat="45.3726878" lon="15.1121023"><ele>506.0</ele><time>2026-05-05T09:50:52.581Z</time></trkpt><trkpt lat="45.3727394" lon="15.1117795"><ele>506.0</ele><time>2026-05-05T09:50:53.58Z</time></trkpt><trkpt lat="45.3727869" lon="15.1114506"><ele>508.0</ele><time>2026-05-05T09:50:54.581Z</time></trkpt><trkpt lat="45.3728456" lon="15.1111182"><ele>510.0</ele><time>2026-05-05T09:50:55.581Z</time></trkpt><trkpt lat="45.372914" lon="15.1108246"><ele>510.5</ele><time>2026-05-05T09:50:56.581Z</time></trkpt><trkpt lat="45.3729808" lon="15.1105166"><ele>511.0</ele><time>2026-05-05T09:50:57.58Z</time></trkpt><trkpt lat="45.373047" lon="15.1101957"><ele>504.33333333333337</ele><time>2026-05-05T09:50:58.58Z</time></trkpt><trkpt lat="45.3731035" lon="15.1098931"><ele>497.66666666666663</ele><time>2026-05-05T09:50:59.581Z</time></trkpt><trkpt lat="45.3731578" lon="15.1095823"><ele>491.0</ele><time>2026-05-05T09:51:00.58Z</time></trkpt><trkpt lat="45.3732165" lon="15.1092693"><ele>484.5</ele><time>2026-05-05T09:51:01.58Z</time></trkpt><trkpt lat="45.3732667" lon="15.1089551"><ele>478.0</ele><time>2026-05-05T09:51:02.581Z</time></trkpt><trkpt lat="45.373328" lon="15.1086415"><ele>478.0</ele><time>2026-05-05T09:51:03.581Z</time></trkpt><trkpt lat="45.3733933" lon="15.1083269"><ele>478.0</ele><time>2026-05-05T09:51:04.58Z</time></trkpt><trkpt lat="45.3734489" lon="15.108012"><ele>474.5</ele><time>2026-05-05T09:51:05.58Z</time></trkpt><trkpt lat="45.3735144" lon="15.1076858"><ele>471.0</ele><time>2026-05-05T09:51:06.581Z</time></trkpt><trkpt lat="45.3735828" lon="15.1073619"><ele>470.0</ele><time>2026-05-05T09:51:07.581Z</time></trkpt><trkpt lat="45.3736497" lon="15.1070302"><ele>469.0</ele><time>2026-05-05T09:51:08.581Z</time></trkpt><trkpt lat="45.3737158" lon="15.1066937"><ele>469.0</ele><time>2026-05-05T09:51:09.581Z</time></trkpt><trkpt lat="45.3737839" lon="15.1063613"><ele>469.0</ele><time>2026-05-05T09:51:10.581Z</time></trkpt><trkpt lat="45.3738556" lon="15.1060229"><ele>468.0</ele><time>2026-05-05T09:51:11.58Z</time></trkpt><trkpt lat="45.3739142" lon="15.1056956"><ele>467.0</ele><time>2026-05-05T09:51:12.58Z</time></trkpt><trkpt lat="45.3739756" lon="15.1053632"><ele>467.0</ele><time>2026-05-05T09:51:13.581Z</time></trkpt><trkpt lat="45.3740271" lon="15.105023"><ele>467.0</ele><time>2026-05-05T09:51:14.58Z</time></trkpt><trkpt lat="45.3740759" lon="15.1046893"><ele>468.0</ele><time>2026-05-05T09:51:15.581Z</time></trkpt><trkpt lat="45.3741169" lon="15.1043559"><ele>469.0</ele><time>2026-05-05T09:51:16.58Z</time></trkpt><trkpt lat="45.3741506" lon="15.1040239"><ele>471.0</ele><time>2026-05-05T09:51:17.58Z</time></trkpt><trkpt lat="45.3741699" lon="15.1036943"><ele>473.0</ele><time>2026-05-05T09:51:18.58Z</time></trkpt><trkpt lat="45.3741828" lon="15.1033606"><ele>474.0</ele><time>2026-05-05T09:51:19.58Z</time></trkpt><trkpt lat="45.3741863" lon="15.1030226"><ele>475.0</ele><time>2026-05-05T09:51:20.581Z</time></trkpt><trkpt lat="45.3741764" lon="15.1026754"><ele>481.5</ele><time>2026-05-05T09:51:21.581Z</time></trkpt><trkpt lat="45.3741631" lon="15.1023376"><ele>488.0</ele><time>2026-05-05T09:51:22.58Z</time></trkpt><trkpt lat="45.3741267" lon="15.1020011"><ele>488.0</ele><time>2026-05-05T09:51:23.581Z</time></trkpt><trkpt lat="45.3740909" lon="15.1016643"><ele>488.0</ele><time>2026-05-05T09:51:24.58Z</time></trkpt><trkpt lat="45.374041" lon="15.1013334"><ele>489.0</ele><time>2026-05-05T09:51:25.58Z</time></trkpt><trkpt lat="45.3739829" lon="15.1010179"><ele>490.0</ele><time>2026-05-05T09:51:26.58Z</time></trkpt><trkpt lat="45.3739252" lon="15.1007002"><ele>488.0</ele><time>2026-05-05T09:51:27.58Z</time></trkpt><trkpt lat="45.3738427" lon="15.1003841"><ele>486.0</ele><time>2026-05-05T09:51:28.581Z</time></trkpt><trkpt lat="45.3737552" lon="15.1000692"><ele>483.0</ele><time>2026-05-05T09:51:29.581Z</time></trkpt><trkpt lat="45.3736601" lon="15.0997707"><ele>480.0</ele><time>2026-05-05T09:51:30.58Z</time></trkpt><trkpt lat="45.3735482" lon="15.0994747"><ele>480.0</ele><time>2026-05-05T09:51:31.581Z</time></trkpt><trkpt lat="45.3734377" lon="15.0991873"><ele>480.0</ele><time>2026-05-05T09:51:32.58Z</time></trkpt><trkpt lat="45.3733154" lon="15.0989156"><ele>479.5</ele><time>2026-05-05T09:51:33.581Z</time></trkpt><trkpt lat="45.3731933" lon="15.0986383"><ele>479.0</ele><time>2026-05-05T09:51:34.58Z</time></trkpt><trkpt lat="45.3730513" lon="15.0983802"><ele>480.5</ele><time>2026-05-05T09:51:35.58Z</time></trkpt><trkpt lat="45.3729048" lon="15.098127"><ele>482.0</ele><time>2026-05-05T09:51:36.581Z</time></trkpt><trkpt lat="45.3727523" lon="15.0978753"><ele>482.0</ele><time>2026-05-05T09:51:37.581Z</time></trkpt><trkpt lat="45.3726032" lon="15.0976434"><ele>482.0</ele><time>2026-05-05T09:51:38.58Z</time></trkpt><trkpt lat="45.3724404" lon="15.0974247"><ele>482.0</ele><time>2026-05-05T09:51:39.581Z</time></trkpt><trkpt lat="45.3722685" lon="15.0972072"><ele>478.5</ele><time>2026-05-05T09:51:40.58Z</time></trkpt><trkpt lat="45.3720801" lon="15.096986"><ele>475.0</ele><time>2026-05-05T09:51:41.581Z</time></trkpt><trkpt lat="45.3718941" lon="15.0967893"><ele>475.0</ele><time>2026-05-05T09:51:42.581Z</time></trkpt><trkpt lat="45.371693" lon="15.0965917"><ele>475.0</ele><time>2026-05-05T09:51:43.581Z</time></trkpt><trkpt lat="45.3714886" lon="15.0964102"><ele>467.5</ele><time>2026-05-05T09:51:44.58Z</time></trkpt><trkpt lat="45.3712941" lon="15.0962453"><ele>460.0</ele><time>2026-05-05T09:51:45.58Z</time></trkpt><trkpt lat="45.3710834" lon="15.0960815"><ele>460.0</ele><time>2026-05-05T09:51:46.58Z</time></trkpt><trkpt lat="45.3708688" lon="15.0959256"><ele>460.0</ele><time>2026-05-05T09:51:47.581Z</time></trkpt><trkpt lat="45.3706514" lon="15.095764"><ele>455.5</ele><time>2026-05-05T09:51:48.58Z</time></trkpt><trkpt lat="45.3704358" lon="15.0956075"><ele>451.0</ele><time>2026-05-05T09:51:49.581Z</time></trkpt><trkpt lat="45.3702142" lon="15.0954479"><ele>451.0</ele><time>2026-05-05T09:51:50.581Z</time></trkpt><trkpt lat="45.3699975" lon="15.0952804"><ele>451.0</ele><time>2026-05-05T09:51:51.581Z</time></trkpt><trkpt lat="45.3697933" lon="15.0951109"><ele>448.5</ele><time>2026-05-05T09:51:52.581Z</time></trkpt><trkpt lat="45.369591" lon="15.0949237"><ele>446.0</ele><time>2026-05-05T09:51:53.58Z</time></trkpt><trkpt lat="45.3693844" lon="15.0947279"><ele>446.0</ele><time>2026-05-05T09:51:54.581Z</time></trkpt><trkpt lat="45.3691961" lon="15.0945257"><ele>446.0</ele><time>2026-05-05T09:51:55.58Z</time></trkpt><trkpt lat="45.3690089" lon="15.0943218"><ele>447.5</ele><time>2026-05-05T09:51:56.581Z</time></trkpt><trkpt lat="45.3688264" lon="15.0940953"><ele>449.0</ele><time>2026-05-05T09:51:57.581Z</time></trkpt><trkpt lat="45.3739252" lon="15.1007002"><ele>467.5</ele><time>2026-05-05T09:51:27.58Z</time></trkpt><trkpt lat="45.3738427" lon="15.1003841"><ele>486.0</ele><time>2026-05-05T09:51:28.581Z</time></trkpt><trkpt lat="45.3737552" lon="15.1000692"><ele>483.0</ele><time>2026-05-05T09:51:29.581Z</time></trkpt><trkpt lat="45.3736601" lon="15.0997707"><ele>480.0</ele><time>2026-05-05T09:51:30.58Z</time></trkpt><trkpt lat="45.3735482" lon="15.0994747"><ele>480.0</ele><time>2026-05-05T09:51:31.581Z</time></trkpt><trkpt lat="45.3734377" lon="15.0991873"><ele>480.0</ele><time>2026-05-05T09:51:32.58Z</time></trkpt><trkpt lat="45.3733154" lon="15.0989156"><ele>479.5</ele><time>2026-05-05T09:51:33.581Z</time></trkpt><trkpt lat="45.3731933" lon="15.0986383"><ele>479.0</ele><time>2026-05-05T09:51:34.58Z</time></trkpt><trkpt lat="45.3730513" lon="15.0983802"><ele>480.5</ele><time>2026-05-05T09:51:35.58Z</time></trkpt><trkpt lat="45.3729048" lon="15.098127"><ele>482.0</ele><time>2026-05-05T09:51:36.581Z</time></trkpt><trkpt lat="45.3727523" lon="15.0978753"><ele>482.0</ele><time>2026-05-05T09:51:37.581Z</time></trkpt><trkpt lat="45.3726032" lon="15.0976434"><ele>482.0</ele><time>2026-05-05T09:51:38.58Z</time></trkpt><trkpt lat="45.3724404" lon="15.0974247"><ele>482.0</ele><time>2026-05-05T09:51:39.581Z</time></trkpt><trkpt lat="45.3722685" lon="15.0972072"><ele>478.5</ele><time>2026-05-05T09:51:40.58Z</time></trkpt><trkpt lat="45.3720801" lon="15.096986"><ele>475.0</ele><time>2026-05-05T09:51:41.581Z</time></trkpt><trkpt lat="45.3718941" lon="15.0967893"><ele>475.0</ele><time>2026-05-05T09:51:42.581Z</time></trkpt><trkpt lat="45.371693" lon="15.0965917"><ele>475.0</ele><time>2026-05-05T09:51:43.581Z</time></trkpt><trkpt lat="45.3714886" lon="15.0964102"><ele>467.5</ele><time>2026-05-05T09:51:44.58Z</time></trkpt><trkpt lat="45.3712941" lon="15.0962453"><ele>460.0</ele><time>2026-05-05T09:51:45.58Z</time></trkpt><trkpt lat="45.3710834" lon="15.0960815"><ele>460.0</ele><time>2026-05-05T09:51:46.58Z</time></trkpt><trkpt lat="45.3708688" lon="15.0959256"><ele>460.0</ele><time>2026-05-05T09:51:47.581Z</time></trkpt><trkpt lat="45.3706514" lon="15.095764"><ele>455.5</ele><time>2026-05-05T09:51:48.58Z</time></trkpt><trkpt lat="45.3704358" lon="15.0956075"><ele>451.0</ele><time>2026-05-05T09:51:49.581Z</time></trkpt><trkpt lat="45.3702142" lon="15.0954479"><ele>451.0</ele><time>2026-05-05T09:51:50.581Z</time></trkpt><trkpt lat="45.3699975" lon="15.0952804"><ele>451.0</ele><time>2026-05-05T09:51:51.581Z</time></trkpt><trkpt lat="45.3697933" lon="15.0951109"><ele>448.5</ele><time>2026-05-05T09:51:52.581Z</time></trkpt><trkpt lat="45.369591" lon="15.0949237"><ele>446.0</ele><time>2026-05-05T09:51:53.58Z</time></trkpt><trkpt lat="45.3693844" lon="15.0947279"><ele>446.0</ele><time>2026-05-05T09:51:54.581Z</time></trkpt><trkpt lat="45.3691961" lon="15.0945257"><ele>446.0</ele><time>2026-05-05T09:51:55.58Z</time></trkpt><trkpt lat="45.3690089" lon="15.0943218"><ele>446.5</ele><time>2026-05-05T09:51:56.581Z</time></trkpt><trkpt lat="45.3688264" lon="15.0940953"><ele>447.0</ele><time>2026-05-05T09:51:57.581Z</time></trkpt><trkpt lat="45.3686552" lon="15.0938672"><ele>447.0</ele><time>2026-05-05T09:51:58.581Z</time></trkpt><trkpt lat="45.3684956" lon="15.0936275"><ele>447.0</ele><time>2026-05-05T09:51:59.581Z</time></trkpt><trkpt lat="45.3683436" lon="15.0933763"><ele>450.5</ele><time>2026-05-05T09:52:00.58Z</time></trkpt><trkpt lat="45.368203" lon="15.0931039"><ele>454.0</ele><time>2026-05-05T09:52:01.581Z</time></trkpt><trkpt lat="45.3680612" lon="15.0928349"><ele>451.5</ele><time>2026-05-05T09:52:02.581Z</time></trkpt><trkpt lat="45.3679272" lon="15.0925568"><ele>449.0</ele><time>2026-05-05T09:52:03.58Z</time></trkpt><trkpt lat="45.3677966" lon="15.0922698"><ele>457.0</ele><time>2026-05-05T09:52:04.58Z</time></trkpt><trkpt lat="45.3676629" lon="15.091983"><ele>465.0</ele><time>2026-05-05T09:52:05.58Z</time></trkpt><trkpt lat="45.3675383" lon="15.0917019"><ele>471.0</ele><time>2026-05-05T09:52:06.58Z</time></trkpt><trkpt lat="45.3674104" lon="15.0914179"><ele>477.0</ele><time>2026-05-05T09:52:07.581Z</time></trkpt><trkpt lat="45.3648344" lon="15.0855968"><ele>459.5</ele><time>2026-05-05T09:52:28.581Z</time></trkpt><trkpt lat="45.3646985" lon="15.0853285"><ele>442.0</ele><time>2026-05-05T09:52:29.58Z</time></trkpt><trkpt lat="45.3645689" lon="15.0850567"><ele>440.0</ele><time>2026-05-05T09:52:30.581Z</time></trkpt><trkpt lat="45.3644393" lon="15.0847932"><ele>438.0</ele><time>2026-05-05T09:52:31.58Z</time></trkpt><trkpt lat="45.3642978" lon="15.0845243"><ele>438.0</ele><time>2026-05-05T09:52:32.581Z</time></trkpt><trkpt lat="45.3641648" lon="15.0842608"><ele>438.0</ele><time>2026-05-05T09:52:33.581Z</time></trkpt><trkpt lat="45.3640327" lon="15.083992"><ele>438.0</ele><time>2026-05-05T09:52:34.58Z</time></trkpt><trkpt lat="45.3639042" lon="15.0837292"><ele>438.0</ele><time>2026-05-05T09:52:35.58Z</time></trkpt><trkpt lat="45.3637689" lon="15.0834723"><ele>431.0</ele><time>2026-05-05T09:52:36.581Z</time></trkpt><trkpt lat="45.3636274" lon="15.0832079"><ele>424.0</ele><time>2026-05-05T09:52:37.581Z</time></trkpt><trkpt lat="45.3634847" lon="15.0829489"><ele>424.0</ele><time>2026-05-05T09:52:38.581Z</time></trkpt><trkpt lat="45.363338" lon="15.0826936"><ele>424.0</ele><time>2026-05-05T09:52:39.581Z</time></trkpt><trkpt lat="45.3631917" lon="15.0824381"><ele>419.0</ele><time>2026-05-05T09:52:40.581Z</time></trkpt><trkpt lat="45.3630424" lon="15.082184"><ele>414.0</ele><time>2026-05-05T09:52:41.581Z</time></trkpt><trkpt lat="45.362893" lon="15.0819233"><ele>402.0</ele><time>2026-05-05T09:52:42.581Z</time></trkpt><trkpt lat="45.362744" lon="15.0816708"><ele>390.0</ele><time>2026-05-05T09:52:43.58Z</time></trkpt><trkpt lat="45.36259" lon="15.0814155"><ele>386.5</ele><time>2026-05-05T09:52:44.581Z</time></trkpt><trkpt lat="45.3624363" lon="15.0811635"><ele>383.0</ele><time>2026-05-05T09:52:45.581Z</time></trkpt><trkpt lat="45.3622829" lon="15.0809094"><ele>401.0</ele><time>2026-05-05T09:52:46.581Z</time></trkpt><trkpt lat="45.3621301" lon="15.0806555"><ele>419.0</ele><time>2026-05-05T09:52:47.58Z</time></trkpt><trkpt lat="45.3619738" lon="15.0804022"><ele>419.0</ele><time>2026-05-05T09:52:48.58Z</time></trkpt><trkpt lat="45.361819" lon="15.080148"><ele>419.0</ele><time>2026-05-05T09:52:49.58Z</time></trkpt><trkpt lat="45.3616647" lon="15.0798938"><ele>423.0</ele><time>2026-05-05T09:52:50.581Z</time></trkpt><trkpt lat="45.3615079" lon="15.0796451"><ele>427.0</ele><time>2026-05-05T09:52:51.581Z</time></trkpt><trkpt lat="45.3613485" lon="15.079393"><ele>427.0</ele><time>2026-05-05T09:52:52.581Z</time></trkpt><trkpt lat="45.3611914" lon="15.0791371"><ele>427.0</ele><time>2026-05-05T09:52:53.581Z</time></trkpt><trkpt lat="45.3610334" lon="15.078874"><ele>428.5</ele><time>2026-05-05T09:52:54.58Z</time></trkpt><trkpt lat="45.3608758" lon="15.078612"><ele>430.0</ele><time>2026-05-05T09:52:55.581Z</time></trkpt><trkpt lat="45.3607181" lon="15.0783472"><ele>430.0</ele><time>2026-05-05T09:52:56.58Z</time></trkpt><trkpt lat="45.3605622" lon="15.0780778"><ele>430.0</ele><time>2026-05-05T09:52:57.58Z</time></trkpt><trkpt lat="45.3604096" lon="15.077805"><ele>430.0</ele><time>2026-05-05T09:52:58.58Z</time></trkpt><trkpt lat="45.360264" lon="15.0775356"><ele>430.0</ele><time>2026-05-05T09:52:59.581Z</time></trkpt><trkpt lat="45.3601222" lon="15.0772533"><ele>431.5</ele><time>2026-05-05T09:53:00.58Z</time></trkpt><trkpt lat="45.3599854" lon="15.0769666"><ele>433.0</ele><time>2026-05-05T09:53:01.58Z</time></trkpt><trkpt lat="45.3598543" lon="15.0766742"><ele>435.0</ele><time>2026-05-05T09:53:02.581Z</time></trkpt><trkpt lat="45.3597241" lon="15.0763785"><ele>437.0</ele><time>2026-05-05T09:53:03.581Z</time></trkpt><trkpt lat="45.3596021" lon="15.0760778"><ele>437.0</ele><time>2026-05-05T09:53:04.58Z</time></trkpt><trkpt lat="45.3594872" lon="15.075772"><ele>437.0</ele><time>2026-05-05T09:53:05.58Z</time></trkpt><trkpt lat="45.3593763" lon="15.0754649"><ele>439.0</ele><time>2026-05-05T09:53:06.581Z</time></trkpt><trkpt lat="45.3592716" lon="15.0751556"><ele>441.0</ele><time>2026-05-05T09:53:07.58Z</time></trkpt><trkpt lat="45.3591741" lon="15.0748443"><ele>445.0</ele><time>2026-05-05T09:53:08.58Z</time></trkpt><trkpt lat="45.3590816" lon="15.0745301"><ele>449.0</ele><time>2026-05-05T09:53:09.58Z</time></trkpt><trkpt lat="45.3589954" lon="15.0742083"><ele>450.5</ele><time>2026-05-05T09:53:10.581Z</time></trkpt><trkpt lat="45.3589141" lon="15.0738863"><ele>452.0</ele><time>2026-05-05T09:53:11.58Z</time></trkpt><trkpt lat="45.3588373" lon="15.0735637"><ele>452.0</ele><time>2026-05-05T09:53:12.581Z</time></trkpt><trkpt lat="45.3587633" lon="15.0732462"><ele>452.0</ele><time>2026-05-05T09:53:13.58Z</time></trkpt><trkpt lat="45.3586943" lon="15.0729271"><ele>452.0</ele><time>2026-05-05T09:53:14.58Z</time></trkpt><trkpt lat="45.3586408" lon="15.0725934"><ele>452.0</ele><time>2026-05-05T09:53:15.581Z</time></trkpt><trkpt lat="45.3585888" lon="15.0722625"><ele>452.5</ele><time>2026-05-05T09:53:16.58Z</time></trkpt><trkpt lat="45.3585424" lon="15.071932"><ele>453.0</ele><time>2026-05-05T09:53:17.581Z</time></trkpt><trkpt lat="45.3584976" lon="15.0716002"><ele>450.5</ele><time>2026-05-05T09:53:18.58Z</time></trkpt><trkpt lat="45.3584654" lon="15.0712655"><ele>448.0</ele><time>2026-05-05T09:53:19.58Z</time></trkpt><trkpt lat="45.3584373" lon="15.0709248"><ele>448.5</ele><time>2026-05-05T09:53:20.581Z</time></trkpt><trkpt lat="45.3584119" lon="15.0705839"><ele>449.0</ele><time>2026-05-05T09:53:21.581Z</time></trkpt><trkpt lat="45.3583931" lon="15.0702418"><ele>447.5</ele><time>2026-05-05T09:53:22.581Z</time></trkpt><trkpt lat="45.3583797" lon="15.0698975"><ele>446.0</ele><time>2026-05-05T09:53:23.581Z</time></trkpt><trkpt lat="45.3583756" lon="15.0695572"><ele>446.0</ele><time>2026-05-05T09:53:24.581Z</time></trkpt><trkpt lat="45.3583806" lon="15.0692193"><ele>446.0</ele><time>2026-05-05T09:53:25.581Z</time></trkpt><trkpt lat="45.3583945" lon="15.0688822"><ele>446.0</ele><time>2026-05-05T09:53:26.58Z</time></trkpt><trkpt lat="45.3584163" lon="15.0685501"><ele>446.0</ele><time>2026-05-05T09:53:27.58Z</time></trkpt><trkpt lat="45.3584461" lon="15.0682206"><ele>446.0</ele><time>2026-05-05T09:53:28.58Z</time></trkpt><trkpt lat="45.3584834" lon="15.0678942"><ele>446.0</ele><time>2026-05-05T09:53:29.581Z</time></trkpt><trkpt lat="45.358529" lon="15.0675759"><ele>449.5</ele><time>2026-05-05T09:53:30.581Z</time></trkpt><trkpt lat="45.3585812" lon="15.067261"><ele>453.0</ele><time>2026-05-05T09:53:31.581Z</time></trkpt><trkpt lat="45.3586431" lon="15.0669561"><ele>453.0</ele><time>2026-05-05T09:53:32.581Z</time></trkpt><trkpt lat="45.3587115" lon="15.0666476"><ele>453.0</ele><time>2026-05-05T09:53:33.581Z</time></trkpt><trkpt lat="45.3587873" lon="15.0663401"><ele>438.0</ele><time>2026-05-05T09:53:34.581Z</time></trkpt><trkpt lat="45.35887" lon="15.066033"><ele>423.0</ele><time>2026-05-05T09:53:35.581Z</time></trkpt><trkpt lat="45.3589599" lon="15.0657249"><ele>423.0</ele><time>2026-05-05T09:53:36.581Z</time></trkpt><trkpt lat="45.3590575" lon="15.0654209"><ele>423.0</ele><time>2026-05-05T09:53:37.581Z</time></trkpt><trkpt lat="45.3591662" lon="15.065122"><ele>431.5</ele><time>2026-05-05T09:53:38.58Z</time></trkpt><trkpt lat="45.3592799" lon="15.0648223"><ele>440.0</ele><time>2026-05-05T09:53:39.581Z</time></trkpt><trkpt lat="45.3594002" lon="15.0645395"><ele>440.0</ele><time>2026-05-05T09:53:40.581Z</time></trkpt><trkpt lat="45.3595343" lon="15.0642619"><ele>440.0</ele><time>2026-05-05T09:53:41.58Z</time></trkpt><trkpt lat="45.3596735" lon="15.0639898"><ele>450.5</ele><time>2026-05-05T09:53:42.581Z</time></trkpt><trkpt lat="45.3598158" lon="15.0637294"><ele>461.0</ele><time>2026-05-05T09:53:43.581Z</time></trkpt><trkpt lat="45.3599602" lon="15.0634728"><ele>463.0</ele><time>2026-05-05T09:53:44.58Z</time></trkpt><trkpt lat="45.3601104" lon="15.0632282"><ele>465.0</ele><time>2026-05-05T09:53:45.58Z</time></trkpt><trkpt lat="45.3602677" lon="15.0629935"><ele>465.0</ele><time>2026-05-05T09:53:46.581Z</time></trkpt><trkpt lat="45.3604247" lon="15.0627699"><ele>465.0</ele><time>2026-05-05T09:53:47.581Z</time></trkpt><trkpt lat="45.3605936" lon="15.0625479"><ele>469.0</ele><time>2026-05-05T09:53:48.581Z</time></trkpt><trkpt lat="45.3607623" lon="15.0623382"><ele>473.0</ele><time>2026-05-05T09:53:49.58Z</time></trkpt><trkpt lat="45.3609418" lon="15.0621346"><ele>473.0</ele><time>2026-05-05T09:53:50.58Z</time></trkpt><trkpt lat="45.3611279" lon="15.0619332"><ele>473.0</ele><time>2026-05-05T09:53:51.58Z</time></trkpt><trkpt lat="45.3613173" lon="15.0617345"><ele>480.5</ele><time>2026-05-05T09:53:52.58Z</time></trkpt><trkpt lat="45.3615154" lon="15.06155"><ele>488.0</ele><time>2026-05-05T09:53:53.58Z</time></trkpt><trkpt lat="45.3617141" lon="15.061376"><ele>488.0</ele><time>2026-05-05T09:53:54.581Z</time></trkpt><trkpt lat="45.3619185" lon="15.0612174"><ele>488.0</ele><time>2026-05-05T09:53:55.58Z</time></trkpt><trkpt lat="45.3621273" lon="15.0610614"><ele>490.0</ele><time>2026-05-05T09:53:56.581Z</time></trkpt><trkpt lat="45.3623425" lon="15.060921"><ele>492.0</ele><time>2026-05-05T09:53:57.581Z</time></trkpt><trkpt lat="45.3625577" lon="15.0607892"><ele>494.0</ele><time>2026-05-05T09:53:58.58Z</time></trkpt><trkpt lat="45.3627801" lon="15.0606684"><ele>496.0</ele><time>2026-05-05T09:53:59.581Z</time></trkpt><trkpt lat="45.3630035" lon="15.0605569"><ele>496.5</ele><time>2026-05-05T09:54:00.58Z</time></trkpt><trkpt lat="45.3632262" lon="15.0604614"><ele>497.0</ele><time>2026-05-05T09:54:01.58Z</time></trkpt><trkpt lat="45.3634519" lon="15.0603775"><ele>497.0</ele><time>2026-05-05T09:54:02.58Z</time></trkpt><trkpt lat="45.363682" lon="15.0603075"><ele>497.0</ele><time>2026-05-05T09:54:03.581Z</time></trkpt><trkpt lat="45.3639153" lon="15.0602357"><ele>497.5</ele><time>2026-05-05T09:54:04.581Z</time></trkpt><trkpt lat="45.3641505" lon="15.0601838"><ele>498.0</ele><time>2026-05-05T09:54:05.581Z</time></trkpt><trkpt lat="45.3643881" lon="15.0601424"><ele>498.0</ele><time>2026-05-05T09:54:06.581Z</time></trkpt><trkpt lat="45.3646299" lon="15.0601164"><ele>498.0</ele><time>2026-05-05T09:54:07.581Z</time></trkpt><trkpt lat="45.3648713" lon="15.060088"><ele>500.5</ele><time>2026-05-05T09:54:08.581Z</time></trkpt><trkpt lat="45.3651107" lon="15.0600752"><ele>503.0</ele><time>2026-05-05T09:54:09.58Z</time></trkpt><trkpt lat="45.3653503" lon="15.060061"><ele>505.5</ele><time>2026-05-05T09:54:10.58Z</time></trkpt><trkpt lat="45.365593" lon="15.0600417"><ele>508.0</ele><time>2026-05-05T09:54:11.58Z</time></trkpt><trkpt lat="45.365823" lon="15.0600163"><ele>508.0</ele><time>2026-05-05T09:54:12.58Z</time></trkpt><trkpt lat="45.3660642" lon="15.0599947"><ele>508.0</ele><time>2026-05-05T09:54:13.58Z</time></trkpt><trkpt lat="45.3663059" lon="15.0599599"><ele>519.0</ele><time>2026-05-05T09:54:14.58Z</time></trkpt><trkpt lat="45.3665498" lon="15.0599232"><ele>530.0</ele><time>2026-05-05T09:54:15.581Z</time></trkpt><trkpt lat="45.3667923" lon="15.0598817"><ele>530.0</ele><time>2026-05-05T09:54:16.581Z</time></trkpt><trkpt lat="45.3670409" lon="15.0598347"><ele>530.0</ele><time>2026-05-05T09:54:17.58Z</time></trkpt><trkpt lat="45.3672857" lon="15.0597585"><ele>530.5</ele><time>2026-05-05T09:54:18.58Z</time></trkpt><trkpt lat="45.3675314" lon="15.0596678"><ele>531.0</ele><time>2026-05-05T09:54:19.581Z</time></trkpt><trkpt lat="45.3677774" lon="15.0595673"><ele>530.5</ele><time>2026-05-05T09:54:20.58Z</time></trkpt><trkpt lat="45.3680268" lon="15.0594505"><ele>530.0</ele><time>2026-05-05T09:54:21.581Z</time></trkpt><trkpt lat="45.3682754" lon="15.0593184"><ele>530.0</ele><time>2026-05-05T09:54:22.58Z</time></trkpt><trkpt lat="45.3685207" lon="15.0591707"><ele>530.0</ele><time>2026-05-05T09:54:23.58Z</time></trkpt><trkpt lat="45.3687627" lon="15.0590343"><ele>538.0</ele><time>2026-05-05T09:54:24.581Z</time></trkpt><trkpt lat="45.3690022" lon="15.0588899"><ele>546.0</ele><time>2026-05-05T09:54:25.581Z</time></trkpt><trkpt lat="45.3692459" lon="15.0587507"><ele>546.0</ele><time>2026-05-05T09:54:26.58Z</time></trkpt><trkpt lat="45.369494" lon="15.0586117"><ele>546.0</ele><time>2026-05-05T09:54:27.58Z</time></trkpt><trkpt lat="45.3697414" lon="15.05848"><ele>542.5</ele><time>2026-05-05T09:54:28.58Z</time></trkpt><trkpt lat="45.3699837" lon="15.058345"><ele>539.0</ele><time>2026-05-05T09:54:29.58Z</time></trkpt><trkpt lat="45.3702322" lon="15.0582228"><ele>544.5</ele><time>2026-05-05T09:54:30.581Z</time></trkpt><trkpt lat="45.3704811" lon="15.0581033"><ele>550.0</ele><time>2026-05-05T09:54:31.58Z</time></trkpt><trkpt lat="45.3707346" lon="15.0579927"><ele>550.0</ele><time>2026-05-05T09:54:32.58Z</time></trkpt><trkpt lat="45.3709896" lon="15.0578986"><ele>550.0</ele><time>2026-05-05T09:54:33.581Z</time></trkpt><trkpt lat="45.371242" lon="15.0578131"><ele>550.5</ele><time>2026-05-05T09:54:34.58Z</time></trkpt><trkpt lat="45.3714952" lon="15.0577225"><ele>551.0</ele><time>2026-05-05T09:54:35.58Z</time></trkpt><trkpt lat="45.3717489" lon="15.0576293"><ele>551.0</ele><time>2026-05-05T09:54:36.58Z</time></trkpt><trkpt lat="45.3720049" lon="15.0575307"><ele>551.0</ele><time>2026-05-05T09:54:37.581Z</time></trkpt><trkpt lat="45.3722492" lon="15.0574338"><ele>559.5</ele><time>2026-05-05T09:54:38.58Z</time></trkpt><trkpt lat="45.3724991" lon="15.0573267"><ele>568.0</ele><time>2026-05-05T09:54:39.581Z</time></trkpt><trkpt lat="45.3727457" lon="15.0572114"><ele>568.0</ele><time>2026-05-05T09:54:40.581Z</time></trkpt><trkpt lat="45.3729897" lon="15.0570814"><ele>568.0</ele><time>2026-05-05T09:54:41.58Z</time></trkpt><trkpt lat="45.3732285" lon="15.056933"><ele>567.0</ele><time>2026-05-05T09:54:42.58Z</time></trkpt><trkpt lat="45.3734659" lon="15.0567671"><ele>566.0</ele><time>2026-05-05T09:54:43.581Z</time></trkpt><trkpt lat="45.3736956" lon="15.0565901"><ele>570.0</ele><time>2026-05-05T09:54:44.581Z</time></trkpt><trkpt lat="45.3739214" lon="15.0563985"><ele>574.0</ele><time>2026-05-05T09:54:45.58Z</time></trkpt><trkpt lat="45.3741412" lon="15.0561978"><ele>574.0</ele><time>2026-05-05T09:54:46.58Z</time></trkpt><trkpt lat="45.3743634" lon="15.055977"><ele>574.0</ele><time>2026-05-05T09:54:47.58Z</time></trkpt><trkpt lat="45.3745772" lon="15.0557486"><ele>575.0</ele><time>2026-05-05T09:54:48.58Z</time></trkpt><trkpt lat="45.3747867" lon="15.0555041"><ele>576.0</ele><time>2026-05-05T09:54:49.58Z</time></trkpt><trkpt lat="45.3749836" lon="15.0552453"><ele>576.0</ele><time>2026-05-05T09:54:50.581Z</time></trkpt><trkpt lat="45.3751753" lon="15.0549741"><ele>576.0</ele><time>2026-05-05T09:54:51.581Z</time></trkpt><trkpt lat="45.3753568" lon="15.0546977"><ele>580.0</ele><time>2026-05-05T09:54:52.581Z</time></trkpt><trkpt lat="45.3755363" lon="15.0544029"><ele>584.0</ele><time>2026-05-05T09:54:53.58Z</time></trkpt><trkpt lat="45.3757013" lon="15.0540945"><ele>588.0</ele><time>2026-05-05T09:54:54.581Z</time></trkpt><trkpt lat="45.3758751" lon="15.0537753"><ele>592.0</ele><time>2026-05-05T09:54:55.581Z</time></trkpt><trkpt lat="45.3760421" lon="15.0534553"><ele>595.0</ele><time>2026-05-05T09:54:56.581Z</time></trkpt><trkpt lat="45.3762073" lon="15.0531252"><ele>598.0</ele><time>2026-05-05T09:54:57.581Z</time></trkpt><trkpt lat="45.3763557" lon="15.0527658"><ele>600.5</ele><time>2026-05-05T09:54:58.581Z</time></trkpt><trkpt lat="45.3764844" lon="15.0524044"><ele>603.0</ele><time>2026-05-05T09:54:59.58Z</time></trkpt><trkpt lat="45.3766152" lon="15.0520415"><ele>603.0</ele><time>2026-05-05T09:55:00.581Z</time></trkpt><trkpt lat="45.3767215" lon="15.0516797"><ele>603.0</ele><time>2026-05-05T09:55:01.58Z</time></trkpt><trkpt lat="45.3768319" lon="15.051312"><ele>604.5</ele><time>2026-05-05T09:55:02.581Z</time></trkpt><trkpt lat="45.3769234" lon="15.0509291"><ele>606.0</ele><time>2026-05-05T09:55:03.581Z</time></trkpt><trkpt lat="45.3770046" lon="15.0505537"><ele>607.5</ele><time>2026-05-05T09:55:04.58Z</time></trkpt><trkpt lat="45.3770895" lon="15.0501683"><ele>609.0</ele><time>2026-05-05T09:55:05.58Z</time></trkpt><trkpt lat="45.3771614" lon="15.0497763"><ele>614.0</ele><time>2026-05-05T09:55:06.58Z</time></trkpt><trkpt lat="45.3772236" lon="15.0493781"><ele>619.0</ele><time>2026-05-05T09:55:07.58Z</time></trkpt><trkpt lat="45.3772767" lon="15.0489869"><ele>619.5</ele><time>2026-05-05T09:55:08.581Z</time></trkpt><trkpt lat="45.3773158" lon="15.0485872"><ele>620.0</ele><time>2026-05-05T09:55:09.581Z</time></trkpt><trkpt lat="45.3773461" lon="15.0481923"><ele>618.0</ele><time>2026-05-05T09:55:10.581Z</time></trkpt><trkpt lat="45.3773607" lon="15.0477888"><ele>616.0</ele><time>2026-05-05T09:55:11.581Z</time></trkpt><trkpt lat="45.3773666" lon="15.0473917"><ele>616.0</ele><time>2026-05-05T09:55:12.581Z</time></trkpt><trkpt lat="45.3773652" lon="15.0469969"><ele>616.0</ele><time>2026-05-05T09:55:13.58Z</time></trkpt><trkpt lat="45.3773429" lon="15.0466029"><ele>616.0</ele><time>2026-05-05T09:55:14.58Z</time></trkpt><trkpt lat="45.377314" lon="15.0462047"><ele>616.0</ele><time>2026-05-05T09:55:15.58Z</time></trkpt><trkpt lat="45.3772731" lon="15.0458031"><ele>612.0</ele><time>2026-05-05T09:55:16.58Z</time></trkpt><trkpt lat="45.3772333" lon="15.0454098"><ele>608.0</ele><time>2026-05-05T09:55:17.58Z</time></trkpt><trkpt lat="45.377179" lon="15.0450208"><ele>628.0</ele><time>2026-05-05T09:55:18.58Z</time></trkpt><trkpt lat="45.3771226" lon="15.0446308"><ele>648.0</ele><time>2026-05-05T09:55:19.58Z</time></trkpt><trkpt lat="45.3770614" lon="15.0442324"><ele>645.0</ele><time>2026-05-05T09:55:20.581Z</time></trkpt><trkpt lat="45.3769938" lon="15.0438383"><ele>642.0</ele><time>2026-05-05T09:55:21.58Z</time></trkpt><trkpt lat="45.3769248" lon="15.0434398"><ele>643.0</ele><time>2026-05-05T09:55:22.581Z</time></trkpt><trkpt lat="45.3768564" lon="15.0430416"><ele>644.0</ele><time>2026-05-05T09:55:23.58Z</time></trkpt><trkpt lat="45.3767866" lon="15.0426469"><ele>645.5</ele><time>2026-05-05T09:55:24.581Z</time></trkpt><trkpt lat="45.3767268" lon="15.042256"><ele>647.0</ele><time>2026-05-05T09:55:25.581Z</time></trkpt><trkpt lat="45.3766672" lon="15.0418651"><ele>644.0</ele><time>2026-05-05T09:55:26.581Z</time></trkpt><trkpt lat="45.3766163" lon="15.0414696"><ele>641.0</ele><time>2026-05-05T09:55:27.581Z</time></trkpt><trkpt lat="45.3765689" lon="15.0410694"><ele>640.5</ele><time>2026-05-05T09:55:28.58Z</time></trkpt><trkpt lat="45.3765267" lon="15.0406755"><ele>640.0</ele><time>2026-05-05T09:55:29.58Z</time></trkpt><trkpt lat="45.3764889" lon="15.040281"><ele>638.0</ele><time>2026-05-05T09:55:30.581Z</time></trkpt><trkpt lat="45.3764533" lon="15.0398905"><ele>636.0</ele><time>2026-05-05T09:55:31.581Z</time></trkpt><trkpt lat="45.3764188" lon="15.039492"><ele>633.5</ele><time>2026-05-05T09:55:32.581Z</time></trkpt><trkpt lat="45.3763953" lon="15.0391041"><ele>631.0</ele><time>2026-05-05T09:55:33.581Z</time></trkpt><trkpt lat="45.3763727" lon="15.0387147"><ele>631.0</ele><time>2026-05-05T09:55:34.58Z</time></trkpt><trkpt lat="45.3763538" lon="15.0383257"><ele>631.0</ele><time>2026-05-05T09:55:35.581Z</time></trkpt><trkpt lat="45.3763457" lon="15.0379353"><ele>643.5</ele><time>2026-05-05T09:55:36.581Z</time></trkpt><trkpt lat="45.3763338" lon="15.0375442"><ele>656.0</ele><time>2026-05-05T09:55:37.581Z</time></trkpt><trkpt lat="45.37633" lon="15.037163"><ele>662.0</ele><time>2026-05-05T09:55:38.58Z</time></trkpt><trkpt lat="45.3763329" lon="15.0367817"><ele>668.0</ele><time>2026-05-05T09:55:39.58Z</time></trkpt><trkpt lat="45.3763434" lon="15.0364004"><ele>669.5</ele><time>2026-05-05T09:55:40.581Z</time></trkpt><trkpt lat="45.3763573" lon="15.0360269"><ele>671.0</ele><time>2026-05-05T09:55:41.581Z</time></trkpt><trkpt lat="45.3763751" lon="15.0356482"><ele>671.0</ele><time>2026-05-05T09:55:42.58Z</time></trkpt><trkpt lat="45.3763928" lon="15.0352721"><ele>671.0</ele><time>2026-05-05T09:55:43.581Z</time></trkpt><trkpt lat="45.3764049" lon="15.0348975"><ele>675.0</ele><time>2026-05-05T09:55:44.581Z</time></trkpt><trkpt lat="45.3764232" lon="15.0345264"><ele>679.0</ele><time>2026-05-05T09:55:45.581Z</time></trkpt><trkpt lat="45.3764374" lon="15.0341516"><ele>680.5</ele><time>2026-05-05T09:55:46.58Z</time></trkpt><trkpt lat="45.3764442" lon="15.0337774"><ele>682.0</ele><time>2026-05-05T09:55:47.581Z</time></trkpt><trkpt lat="45.3764458" lon="15.0334097"><ele>682.5</ele><time>2026-05-05T09:55:48.58Z</time></trkpt><trkpt lat="45.376443" lon="15.0330325"><ele>683.0</ele><time>2026-05-05T09:55:49.58Z</time></trkpt><trkpt lat="45.3764228" lon="15.0326572"><ele>683.5</ele><time>2026-05-05T09:55:50.581Z</time></trkpt><trkpt lat="45.3763966" lon="15.0322809"><ele>684.0</ele><time>2026-05-05T09:55:51.58Z</time></trkpt><trkpt lat="45.3763633" lon="15.0319054"><ele>688.5</ele><time>2026-05-05T09:55:52.581Z</time></trkpt><trkpt lat="45.3763146" lon="15.0315282"><ele>693.0</ele><time>2026-05-05T09:55:53.58Z</time></trkpt><trkpt lat="45.376259" lon="15.031157"><ele>694.5</ele><time>2026-05-05T09:55:54.581Z</time></trkpt><trkpt lat="45.3761954" lon="15.0307842"><ele>696.0</ele><time>2026-05-05T09:55:55.58Z</time></trkpt><trkpt lat="45.3761245" lon="15.0304199"><ele>696.0</ele><time>2026-05-05T09:55:56.58Z</time></trkpt><trkpt lat="45.376048" lon="15.0300612"><ele>696.0</ele><time>2026-05-05T09:55:57.581Z</time></trkpt><trkpt lat="45.375958" lon="15.0297097"><ele>695.5</ele><time>2026-05-05T09:55:58.581Z</time></trkpt><trkpt lat="45.3758695" lon="15.0293524"><ele>695.0</ele><time>2026-05-05T09:55:59.58Z</time></trkpt><trkpt lat="45.3757618" lon="15.0290155"><ele>692.0</ele><time>2026-05-05T09:56:00.58Z</time></trkpt><trkpt lat="45.3756544" lon="15.0286771"><ele>689.0</ele><time>2026-05-05T09:56:01.581Z</time></trkpt><trkpt lat="45.3755554" lon="15.028339"><ele>689.5</ele><time>2026-05-05T09:56:02.581Z</time></trkpt><trkpt lat="45.3754498" lon="15.0279996"><ele>690.0</ele><time>2026-05-05T09:56:03.581Z</time></trkpt><trkpt lat="45.3753467" lon="15.0276626"><ele>689.5</ele><time>2026-05-05T09:56:04.581Z</time></trkpt><trkpt lat="45.3752394" lon="15.0273221"><ele>689.0</ele><time>2026-05-05T09:56:05.58Z</time></trkpt><trkpt lat="45.3751351" lon="15.026983"><ele>689.0</ele><time>2026-05-05T09:56:06.58Z</time></trkpt><trkpt lat="45.3750467" lon="15.0266481"><ele>689.0</ele><time>2026-05-05T09:56:07.58Z</time></trkpt><trkpt lat="45.3749512" lon="15.0263021"><ele>688.5</ele><time>2026-05-05T09:56:08.58Z</time></trkpt><trkpt lat="45.3748658" lon="15.0259563"><ele>688.0</ele><time>2026-05-05T09:56:09.58Z</time></trkpt><trkpt lat="45.3747798" lon="15.0256058"><ele>686.5</ele><time>2026-05-05T09:56:10.58Z</time></trkpt><trkpt lat="45.3747053" lon="15.0252435"><ele>685.0</ele><time>2026-05-05T09:56:11.581Z</time></trkpt><trkpt lat="45.374636" lon="15.0248697"><ele>685.0</ele><time>2026-05-05T09:56:12.581Z</time></trkpt><trkpt lat="45.3745795" lon="15.0244845"><ele>685.0</ele><time>2026-05-05T09:56:13.58Z</time></trkpt><trkpt lat="45.3745339" lon="15.0241032"><ele>684.5</ele><time>2026-05-05T09:56:14.581Z</time></trkpt><trkpt lat="45.3744989" lon="15.0237276"><ele>684.0</ele><time>2026-05-05T09:56:15.581Z</time></trkpt><trkpt lat="45.3744732" lon="15.0233492"><ele>686.0</ele><time>2026-05-05T09:56:16.581Z</time></trkpt><trkpt lat="45.3744602" lon="15.0229782"><ele>688.0</ele><time>2026-05-05T09:56:17.581Z</time></trkpt><trkpt lat="45.3744564" lon="15.0226134"><ele>689.0</ele><time>2026-05-05T09:56:18.581Z</time></trkpt><trkpt lat="45.3744553" lon="15.022265"><ele>690.0</ele><time>2026-05-05T09:56:19.581Z</time></trkpt><trkpt lat="45.3744587" lon="15.021925"><ele>691.0</ele><time>2026-05-05T09:56:20.581Z</time></trkpt><trkpt lat="45.3744619" lon="15.02159"><ele>692.0</ele><time>2026-05-05T09:56:21.581Z</time></trkpt><trkpt lat="45.3744734" lon="15.0212637"><ele>692.0</ele><time>2026-05-05T09:56:22.581Z</time></trkpt><trkpt lat="45.374488" lon="15.0209437"><ele>692.0</ele><time>2026-05-05T09:56:23.581Z</time></trkpt><trkpt lat="45.3745069" lon="15.0206163"><ele>689.5</ele><time>2026-05-05T09:56:24.581Z</time></trkpt><trkpt lat="45.374529" lon="15.0202871"><ele>687.0</ele><time>2026-05-05T09:56:25.58Z</time></trkpt><trkpt lat="45.3745463" lon="15.019959"><ele>687.0</ele><time>2026-05-05T09:56:26.581Z</time></trkpt><trkpt lat="45.3745721" lon="15.0196291"><ele>687.0</ele><time>2026-05-05T09:56:27.58Z</time></trkpt><trkpt lat="45.374594" lon="15.0193036"><ele>688.0</ele><time>2026-05-05T09:56:28.581Z</time></trkpt><trkpt lat="45.3746175" lon="15.018976"><ele>689.0</ele><time>2026-05-05T09:56:29.581Z</time></trkpt><trkpt lat="45.3746453" lon="15.0186486"><ele>689.0</ele><time>2026-05-05T09:56:30.581Z</time></trkpt><trkpt lat="45.3746643" lon="15.0183313"><ele>689.0</ele><time>2026-05-05T09:56:31.58Z</time></trkpt><trkpt lat="45.3746905" lon="15.018022"><ele>689.0</ele><time>2026-05-05T09:56:32.581Z</time></trkpt><trkpt lat="45.3747099" lon="15.017712"><ele>698.6666666666666</ele><time>2026-05-05T09:56:33.58Z</time></trkpt><trkpt lat="45.3747273" lon="15.0173992"><ele>708.3333333333334</ele><time>2026-05-05T09:56:34.581Z</time></trkpt><trkpt lat="45.3747432" lon="15.0170901"><ele>718.0</ele><time>2026-05-05T09:56:35.58Z</time></trkpt><trkpt lat="45.3747589" lon="15.016777"><ele>716.3333333333334</ele><time>2026-05-05T09:56:36.581Z</time></trkpt><trkpt lat="45.3747696" lon="15.0164638"><ele>714.6666666666666</ele><time>2026-05-05T09:56:37.58Z</time></trkpt><trkpt lat="45.3747764" lon="15.016148"><ele>713.0</ele><time>2026-05-05T09:56:38.58Z</time></trkpt><trkpt lat="45.3747738" lon="15.0158241"><ele>715.5</ele><time>2026-05-05T09:56:39.581Z</time></trkpt><trkpt lat="45.3747685" lon="15.0155047"><ele>718.0</ele><time>2026-05-05T09:56:40.581Z</time></trkpt><trkpt lat="45.3747617" lon="15.0151839"><ele>730.5</ele><time>2026-05-05T09:56:41.58Z</time></trkpt><trkpt lat="45.3747485" lon="15.0148618"><ele>743.0</ele><time>2026-05-05T09:56:42.58Z</time></trkpt><trkpt lat="45.3747402" lon="15.014536"><ele>743.0</ele><time>2026-05-05T09:56:43.58Z</time></trkpt><trkpt lat="45.3747292" lon="15.01421"><ele>743.0</ele><time>2026-05-05T09:56:44.581Z</time></trkpt><trkpt lat="45.3747121" lon="15.0138851"><ele>753.0</ele><time>2026-05-05T09:56:45.581Z</time></trkpt><trkpt lat="45.3746903" lon="15.0135616"><ele>763.0</ele><time>2026-05-05T09:56:46.58Z</time></trkpt><trkpt lat="45.374664" lon="15.0132399"><ele>749.0</ele><time>2026-05-05T09:56:47.58Z</time></trkpt><trkpt lat="45.3736934" lon="15.0064075"><ele>749.0</ele><time>2026-05-05T09:57:08.581Z</time></trkpt><trkpt lat="45.3736709" lon="15.0060446"><ele>749.0</ele><time>2026-05-05T09:57:09.581Z</time></trkpt><trkpt lat="45.3736514" lon="15.0056872"><ele>750.0</ele><time>2026-05-05T09:57:10.58Z</time></trkpt><trkpt lat="45.3736331" lon="15.0053326"><ele>751.0</ele><time>2026-05-05T09:57:11.58Z</time></trkpt><trkpt lat="45.3736221" lon="15.0049814"><ele>753.0</ele><time>2026-05-05T09:57:12.58Z</time></trkpt><trkpt lat="45.3736098" lon="15.004627"><ele>755.0</ele><time>2026-05-05T09:57:13.581Z</time></trkpt><trkpt lat="45.3736049" lon="15.0042691"><ele>756.0</ele><time>2026-05-05T09:57:14.58Z</time></trkpt><trkpt lat="45.3736012" lon="15.0039133"><ele>757.0</ele><time>2026-05-05T09:57:15.58Z</time></trkpt><trkpt lat="45.3736013" lon="15.003553"><ele>756.5</ele><time>2026-05-05T09:57:16.581Z</time></trkpt><trkpt lat="45.3736037" lon="15.0031939"><ele>756.0</ele><time>2026-05-05T09:57:17.58Z</time></trkpt><trkpt lat="45.3736055" lon="15.0028335"><ele>759.0</ele><time>2026-05-05T09:57:18.58Z</time></trkpt><trkpt lat="45.3736074" lon="15.0024756"><ele>762.0</ele><time>2026-05-05T09:57:19.581Z</time></trkpt><trkpt lat="45.3736093" lon="15.0021178"><ele>762.0</ele><time>2026-05-05T09:57:20.58Z</time></trkpt><trkpt lat="45.3736127" lon="15.0017634"><ele>762.0</ele><time>2026-05-05T09:57:21.58Z</time></trkpt><trkpt lat="45.3736184" lon="15.0014103"><ele>765.5</ele><time>2026-05-05T09:57:22.581Z</time></trkpt><trkpt lat="45.3736212" lon="15.0010584"><ele>769.0</ele><time>2026-05-05T09:57:23.581Z</time></trkpt><trkpt lat="45.3736251" lon="15.0007071"><ele>769.5</ele><time>2026-05-05T09:57:24.58Z</time></trkpt><trkpt lat="45.3736317" lon="15.0003546"><ele>770.0</ele><time>2026-05-05T09:57:25.581Z</time></trkpt><trkpt lat="45.3736354" lon="15.0000056"><ele>770.0</ele><time>2026-05-05T09:57:26.58Z</time></trkpt><trkpt lat="45.3736377" lon="14.9996592"><ele>770.0</ele><time>2026-05-05T09:57:27.58Z</time></trkpt><trkpt lat="45.3736392" lon="14.9993093"><ele>773.5</ele><time>2026-05-05T09:57:28.581Z</time></trkpt><trkpt lat="45.3736433" lon="14.9989548"><ele>777.0</ele><time>2026-05-05T09:57:29.58Z</time></trkpt><trkpt lat="45.3736467" lon="14.9986002"><ele>779.5</ele><time>2026-05-05T09:57:30.58Z</time></trkpt><trkpt lat="45.3736525" lon="14.998245"><ele>782.0</ele><time>2026-05-05T09:57:31.581Z</time></trkpt><trkpt lat="45.3736561" lon="14.997888"><ele>782.0</ele><time>2026-05-05T09:57:32.58Z</time></trkpt><trkpt lat="45.373661" lon="14.997533"><ele>782.0</ele><time>2026-05-05T09:57:33.58Z</time></trkpt><trkpt lat="45.3736651" lon="14.9971766"><ele>780.5</ele><time>2026-05-05T09:57:34.581Z</time></trkpt><trkpt lat="45.3736696" lon="14.9968202"><ele>779.0</ele><time>2026-05-05T09:57:35.58Z</time></trkpt><trkpt lat="45.3736717" lon="14.9964665"><ele>778.5</ele><time>2026-05-05T09:57:36.581Z</time></trkpt><trkpt lat="45.373674" lon="14.9961117"><ele>778.0</ele><time>2026-05-05T09:57:37.581Z</time></trkpt><trkpt lat="45.3736764" lon="14.9957583"><ele>778.0</ele><time>2026-05-05T09:57:38.581Z</time></trkpt><trkpt lat="45.3736799" lon="14.9954069"><ele>778.0</ele><time>2026-05-05T09:57:39.581Z</time></trkpt><trkpt lat="45.3736863" lon="14.9950536"><ele>779.5</ele><time>2026-05-05T09:57:40.581Z</time></trkpt><trkpt lat="45.3736905" lon="14.9947023"><ele>781.0</ele><time>2026-05-05T09:57:41.58Z</time></trkpt><trkpt lat="45.3736943" lon="14.9943462"><ele>784.0</ele><time>2026-05-05T09:57:42.581Z</time></trkpt><trkpt lat="45.3736953" lon="14.9939881"><ele>787.0</ele><time>2026-05-05T09:57:43.581Z</time></trkpt><trkpt lat="45.3736915" lon="14.9936313"><ele>789.5</ele><time>2026-05-05T09:57:44.58Z</time></trkpt><trkpt lat="45.3736844" lon="14.9932756"><ele>792.0</ele><time>2026-05-05T09:57:45.581Z</time></trkpt><trkpt lat="45.3736712" lon="14.9929213"><ele>792.0</ele><time>2026-05-05T09:57:46.581Z</time></trkpt><trkpt lat="45.3736514" lon="14.9925704"><ele>792.0</ele><time>2026-05-05T09:57:47.581Z</time></trkpt><trkpt lat="45.3736236" lon="14.9922235"><ele>793.5</ele><time>2026-05-05T09:57:48.581Z</time></trkpt><trkpt lat="45.3735864" lon="14.991882"><ele>795.0</ele><time>2026-05-05T09:57:49.581Z</time></trkpt><trkpt lat="45.3735443" lon="14.9915456"><ele>795.5</ele><time>2026-05-05T09:57:50.581Z</time></trkpt><trkpt lat="45.3735021" lon="14.9912101"><ele>796.0</ele><time>2026-05-05T09:57:51.581Z</time></trkpt><trkpt lat="45.373458" lon="14.9908764"><ele>795.5</ele><time>2026-05-05T09:57:52.581Z</time></trkpt><trkpt lat="45.3734129" lon="14.9905418"><ele>795.0</ele><time>2026-05-05T09:57:53.58Z</time></trkpt><trkpt lat="45.3733708" lon="14.9901983"><ele>792.0</ele><time>2026-05-05T09:57:54.581Z</time></trkpt><trkpt lat="45.3733299" lon="14.989854"><ele>789.0</ele><time>2026-05-05T09:57:55.581Z</time></trkpt><trkpt lat="45.3732963" lon="14.9895075"><ele>785.5</ele><time>2026-05-05T09:57:56.581Z</time></trkpt><trkpt lat="45.3732671" lon="14.9891605"><ele>782.0</ele><time>2026-05-05T09:57:57.58Z</time></trkpt><trkpt lat="45.3732469" lon="14.9888122"><ele>782.0</ele><time>2026-05-05T09:57:58.581Z</time></trkpt><trkpt lat="45.3732351" lon="14.9884696"><ele>782.0</ele><time>2026-05-05T09:57:59.58Z</time></trkpt><trkpt lat="45.3732312" lon="14.9881215"><ele>779.0</ele><time>2026-05-05T09:58:00.58Z</time></trkpt><trkpt lat="45.3732369" lon="14.9877765"><ele>776.0</ele><time>2026-05-05T09:58:01.58Z</time></trkpt><trkpt lat="45.3732494" lon="14.9874381"><ele>775.5</ele><time>2026-05-05T09:58:02.581Z</time></trkpt><trkpt lat="45.3732735" lon="14.9870978"><ele>775.0</ele><time>2026-05-05T09:58:03.581Z</time></trkpt><trkpt lat="45.373309" lon="14.9867616"><ele>777.5</ele><time>2026-05-05T09:58:04.58Z</time></trkpt><trkpt lat="45.373355" lon="14.9864252"><ele>780.0</ele><time>2026-05-05T09:58:05.58Z</time></trkpt><trkpt lat="45.3734132" lon="14.9860897"><ele>786.5</ele><time>2026-05-05T09:58:06.581Z</time></trkpt><trkpt lat="45.3734763" lon="14.985751"><ele>793.0</ele><time>2026-05-05T09:58:07.581Z</time></trkpt><trkpt lat="45.3735526" lon="14.9854192"><ele>793.0</ele><time>2026-05-05T09:58:08.58Z</time></trkpt><trkpt lat="45.3736373" lon="14.9851038"><ele>793.0</ele><time>2026-05-05T09:58:09.581Z</time></trkpt><trkpt lat="45.3737246" lon="14.9847968"><ele>791.6666666666666</ele><time>2026-05-05T09:58:10.581Z</time></trkpt><trkpt lat="45.373814" lon="14.9845108"><ele>790.3333333333333</ele><time>2026-05-05T09:58:11.581Z</time></trkpt><trkpt lat="45.3739023" lon="14.9842424"><ele>789.0</ele><time>2026-05-05T09:58:12.58Z</time></trkpt><trkpt lat="45.3739877" lon="14.9839827"><ele>789.0</ele><time>2026-05-05T09:58:13.58Z</time></trkpt><trkpt lat="45.374074" lon="14.9837333"><ele>789.0</ele><time>2026-05-05T09:58:14.581Z</time></trkpt><trkpt lat="45.3741593" lon="14.9834823"><ele>789.0</ele><time>2026-05-05T09:58:15.58Z</time></trkpt><trkpt lat="45.3742434" lon="14.983243"><ele>792.0</ele><time>2026-05-05T09:58:16.581Z</time></trkpt><trkpt lat="45.3743275" lon="14.9830078"><ele>795.0</ele><time>2026-05-05T09:58:17.581Z</time></trkpt><trkpt lat="45.3744106" lon="14.9827728"><ele>798.0</ele><time>2026-05-05T09:58:18.581Z</time></trkpt><trkpt lat="45.3744919" lon="14.9825404"><ele>796.0</ele><time>2026-05-05T09:58:19.58Z</time></trkpt><trkpt lat="45.374575" lon="14.9823129"><ele>794.0</ele><time>2026-05-05T09:58:20.581Z</time></trkpt><trkpt lat="45.3746457" lon="14.982095"><ele>792.0</ele><time>2026-05-05T09:58:21.58Z</time></trkpt><trkpt lat="45.3747044" lon="14.9818857"><ele>792.0</ele><time>2026-05-05T09:58:22.581Z</time></trkpt><trkpt lat="45.3747633" lon="14.9816832"><ele>792.0</ele><time>2026-05-05T09:58:23.58Z</time></trkpt><trkpt lat="45.3748111" lon="14.98149"><ele>792.0</ele><time>2026-05-05T09:58:24.58Z</time></trkpt><trkpt lat="45.374855" lon="14.9812973"><ele>792.0</ele><time>2026-05-05T09:58:25.581Z</time></trkpt><trkpt lat="45.3748795" lon="14.9811067"><ele>793.75</ele><time>2026-05-05T09:58:26.58Z</time></trkpt><trkpt lat="45.374885" lon="14.9809252"><ele>795.5</ele><time>2026-05-05T09:58:27.581Z</time></trkpt><trkpt lat="45.3748891" lon="14.9807371"><ele>797.25</ele><time>2026-05-05T09:58:28.58Z</time></trkpt><trkpt lat="45.3748907" lon="14.9805527"><ele>799.0</ele><time>2026-05-05T09:58:29.58Z</time></trkpt><trkpt lat="45.374896" lon="14.9803711"><ele>799.0</ele><time>2026-05-05T09:58:30.581Z</time></trkpt><trkpt lat="45.3749095" lon="14.9801932"><ele>799.0</ele><time>2026-05-05T09:58:31.581Z</time></trkpt><trkpt lat="45.3749182" lon="14.9800149"><ele>799.0</ele><time>2026-05-05T09:58:32.58Z</time></trkpt><trkpt lat="45.374941" lon="14.9798437"><ele>799.0</ele><time>2026-05-05T09:58:33.581Z</time></trkpt><trkpt lat="45.3749669" lon="14.9796658"><ele>799.25</ele><time>2026-05-05T09:58:34.581Z</time></trkpt><trkpt lat="45.3749866" lon="14.9794774"><ele>799.5</ele><time>2026-05-05T09:58:35.58Z</time></trkpt><trkpt lat="45.3749967" lon="14.9792845"><ele>799.75</ele><time>2026-05-05T09:58:36.581Z</time></trkpt><trkpt lat="45.3750069" lon="14.9790846"><ele>800.0</ele><time>2026-05-05T09:58:37.581Z</time></trkpt><trkpt lat="45.3750207" lon="14.9788711"><ele>800.0</ele><time>2026-05-05T09:58:38.58Z</time></trkpt><trkpt lat="45.3750284" lon="14.9786658"><ele>800.0</ele><time>2026-05-05T09:58:39.58Z</time></trkpt><trkpt lat="45.3750378" lon="14.9784474"><ele>800.0</ele><time>2026-05-05T09:58:40.581Z</time></trkpt><trkpt lat="45.3750388" lon="14.9782286"><ele>799.3333333333334</ele><time>2026-05-05T09:58:41.581Z</time></trkpt><trkpt lat="45.3750342" lon="14.9780095"><ele>798.6666666666667</ele><time>2026-05-05T09:58:42.58Z</time></trkpt><trkpt lat="45.3750294" lon="14.9777912"><ele>798.0</ele><time>2026-05-05T09:58:43.58Z</time></trkpt><trkpt lat="45.3750296" lon="14.9775707"><ele>798.25</ele><time>2026-05-05T09:58:44.58Z</time></trkpt><trkpt lat="45.375028" lon="14.9773569"><ele>798.5</ele><time>2026-05-05T09:58:45.581Z</time></trkpt><trkpt lat="45.3750158" lon="14.9771495"><ele>798.75</ele><time>2026-05-05T09:58:46.581Z</time></trkpt><trkpt lat="45.3750102" lon="14.9769378"><ele>799.0</ele><time>2026-05-05T09:58:47.58Z</time></trkpt><trkpt lat="45.3749997" lon="14.976726"><ele>796.75</ele><time>2026-05-05T09:58:48.58Z</time></trkpt><trkpt lat="45.3749906" lon="14.9765262"><ele>794.5</ele><time>2026-05-05T09:58:49.58Z</time></trkpt><trkpt lat="45.3749801" lon="14.9763195"><ele>792.25</ele><time>2026-05-05T09:58:50.581Z</time></trkpt><trkpt lat="45.3749684" lon="14.9761089"><ele>790.0</ele><time>2026-05-05T09:58:51.581Z</time></trkpt><trkpt lat="45.374959" lon="14.9758965"><ele>781.6666666666666</ele><time>2026-05-05T09:58:52.581Z</time></trkpt><trkpt lat="45.3749473" lon="14.9756807"><ele>773.3333333333333</ele><time>2026-05-05T09:58:53.58Z</time></trkpt><trkpt lat="45.3749396" lon="14.9754599"><ele>765.0</ele><time>2026-05-05T09:58:54.58Z</time></trkpt><trkpt lat="45.3749289" lon="14.9752395"><ele>762.0</ele><time>2026-05-05T09:58:55.58Z</time></trkpt><trkpt lat="45.3749182" lon="14.9750153"><ele>759.0</ele><time>2026-05-05T09:58:56.581Z</time></trkpt><trkpt lat="45.3749108" lon="14.9747876"><ele>756.0</ele><time>2026-05-05T09:58:57.58Z</time></trkpt><trkpt lat="45.3749054" lon="14.9745544"><ele>756.0</ele><time>2026-05-05T09:58:58.581Z</time></trkpt><trkpt lat="45.3748931" lon="14.9743156"><ele>756.0</ele><time>2026-05-05T09:58:59.58Z</time></trkpt><trkpt lat="45.3748854" lon="14.9740774"><ele>756.0</ele><time>2026-05-05T09:59:00.581Z</time></trkpt><trkpt lat="45.374872" lon="14.9738425"><ele>756.3333333333334</ele><time>2026-05-05T09:59:01.581Z</time></trkpt><trkpt lat="45.374871" lon="14.9735967"><ele>756.6666666666667</ele><time>2026-05-05T09:59:02.581Z</time></trkpt><trkpt lat="45.3748731" lon="14.9733498"><ele>757.0</ele><time>2026-05-05T09:59:03.581Z</time></trkpt><trkpt lat="45.3748707" lon="14.9731062"><ele>759.6666666666667</ele><time>2026-05-05T09:59:04.581Z</time></trkpt><trkpt lat="45.3748685" lon="14.9728569"><ele>762.3333333333334</ele><time>2026-05-05T09:59:05.581Z</time></trkpt><trkpt lat="45.3748713" lon="14.9726042"><ele>765.0</ele><time>2026-05-05T09:59:06.58Z</time></trkpt><trkpt lat="45.3748741" lon="14.9723489"><ele>769.3333333333333</ele><time>2026-05-05T09:59:07.58Z</time></trkpt><trkpt lat="45.374884" lon="14.9720893"><ele>773.6666666666666</ele><time>2026-05-05T09:59:08.581Z</time></trkpt><trkpt lat="45.3748887" lon="14.9718382"><ele>778.0</ele><time>2026-05-05T09:59:09.58Z</time></trkpt><trkpt lat="45.3748943" lon="14.9715843"><ele>783.6666666666666</ele><time>2026-05-05T09:59:10.58Z</time></trkpt><trkpt lat="45.3749059" lon="14.9713292"><ele>789.3333333333333</ele><time>2026-05-05T09:59:11.581Z</time></trkpt><trkpt lat="45.3749185" lon="14.9710698"><ele>795.0</ele><time>2026-05-05T09:59:12.58Z</time></trkpt><trkpt lat="45.3749255" lon="14.9708114"><ele>800.3333333333333</ele><time>2026-05-05T09:59:13.58Z</time></trkpt><trkpt lat="45.3749375" lon="14.970567"><ele>805.6666666666666</ele><time>2026-05-05T09:59:14.58Z</time></trkpt><trkpt lat="45.3749418" lon="14.970314"><ele>811.0</ele><time>2026-05-05T09:59:15.581Z</time></trkpt><trkpt lat="45.3749507" lon="14.9700578"><ele>826.0</ele><time>2026-05-05T09:59:16.581Z</time></trkpt><trkpt lat="45.3759787" lon="14.9624432"><ele>826.0</ele><time>2026-05-05T09:59:46.581Z</time></trkpt><trkpt lat="45.3760312" lon="14.9621873"><ele>826.0</ele><time>2026-05-05T09:59:47.581Z</time></trkpt><trkpt lat="45.3823215" lon="14.9434015"><ele>830.0</ele><time>2026-05-05T10:00:29.876Z</time></trkpt><trkpt lat="45.3816282" lon="14.9448914"><ele>830.0</ele><time>2026-05-05T10:00:58.581Z</time></trkpt><trkpt lat="45.3816962" lon="14.9446859"><ele>830.0</ele><time>2026-05-05T10:00:59.58Z</time></trkpt><trkpt lat="45.3817839" lon="14.9444779"><ele>830.0</ele><time>2026-05-05T10:01:00.58Z</time></trkpt><trkpt lat="45.3818576" lon="14.9442846"><ele>830.3333333333334</ele><time>2026-05-05T10:01:01.58Z</time></trkpt><trkpt lat="45.3819336" lon="14.9440811"><ele>830.6666666666667</ele><time>2026-05-05T10:01:02.58Z</time></trkpt><trkpt lat="45.3820066" lon="14.9438915"><ele>831.0</ele><time>2026-05-05T10:01:03.581Z</time></trkpt><trkpt lat="45.3820795" lon="14.9437143"><ele>831.0</ele><time>2026-05-05T10:01:04.581Z</time></trkpt><trkpt lat="45.3821601" lon="14.9435581"><ele>831.0</ele><time>2026-05-05T10:01:05.58Z</time></trkpt><trkpt lat="45.382254" lon="14.9434044"><ele>831.0</ele><time>2026-05-05T10:01:06.58Z</time></trkpt><trkpt lat="45.382348" lon="14.9432549"><ele>831.0</ele><time>2026-05-05T10:01:07.58Z</time></trkpt><trkpt lat="45.3824334" lon="14.9430881"><ele>829.6666666666667</ele><time>2026-05-05T10:01:08.581Z</time></trkpt><trkpt lat="45.3825028" lon="14.9429001"><ele>828.3333333333334</ele><time>2026-05-05T10:01:09.581Z</time></trkpt><trkpt lat="45.3825541" lon="14.9426996"><ele>827.0</ele><time>2026-05-05T10:01:10.581Z</time></trkpt><trkpt lat="45.3826098" lon="14.9424659"><ele>825.0</ele><time>2026-05-05T10:01:11.58Z</time></trkpt><trkpt lat="45.3826655" lon="14.9422215"><ele>823.0</ele><time>2026-05-05T10:01:12.58Z</time></trkpt><trkpt lat="45.3827087" lon="14.9419523"><ele>821.0</ele><time>2026-05-05T10:01:13.58Z</time></trkpt><trkpt lat="45.3827455" lon="14.9416584"><ele>820.0</ele><time>2026-05-05T10:01:14.581Z</time></trkpt><trkpt lat="45.3827788" lon="14.9413605"><ele>819.0</ele><time>2026-05-05T10:01:15.581Z</time></trkpt><trkpt lat="45.3828175" lon="14.9410515"><ele>818.0</ele><time>2026-05-05T10:01:16.581Z</time></trkpt><trkpt lat="45.3828523" lon="14.9407426"><ele>817.3333333333334</ele><time>2026-05-05T10:01:17.581Z</time></trkpt><trkpt lat="45.3828832" lon="14.9404346"><ele>816.6666666666667</ele><time>2026-05-05T10:01:18.58Z</time></trkpt><trkpt lat="45.3829135" lon="14.9401225"><ele>816.0</ele><time>2026-05-05T10:01:19.58Z</time></trkpt><trkpt lat="45.3829418" lon="14.9398085"><ele>816.0</ele><time>2026-05-05T10:01:20.581Z</time></trkpt><trkpt lat="45.3829675" lon="14.9394875"><ele>816.0</ele><time>2026-05-05T10:01:21.581Z</time></trkpt><trkpt lat="45.3829918" lon="14.9391564"><ele>814.5</ele><time>2026-05-05T10:01:22.58Z</time></trkpt><trkpt lat="45.3830137" lon="14.9388285"><ele>813.0</ele><time>2026-05-05T10:01:23.58Z</time></trkpt><trkpt lat="45.3830357" lon="14.9384984"><ele>813.5</ele><time>2026-05-05T10:01:24.581Z</time></trkpt><trkpt lat="45.3830546" lon="14.938169"><ele>814.0</ele><time>2026-05-05T10:01:25.581Z</time></trkpt><trkpt lat="45.3830719" lon="14.9378403"><ele>812.0</ele><time>2026-05-05T10:01:26.58Z</time></trkpt><trkpt lat="45.3830876" lon="14.9375117"><ele>810.0</ele><time>2026-05-05T10:01:27.581Z</time></trkpt><trkpt lat="45.383103" lon="14.9371839"><ele>810.0</ele><time>2026-05-05T10:01:28.58Z</time></trkpt><trkpt lat="45.3831207" lon="14.9368585"><ele>810.0</ele><time>2026-05-05T10:01:29.581Z</time></trkpt><trkpt lat="45.3831381" lon="14.936537"><ele>808.0</ele><time>2026-05-05T10:01:30.581Z</time></trkpt><trkpt lat="45.3831597" lon="14.9362157"><ele>806.0</ele><time>2026-05-05T10:01:31.581Z</time></trkpt><trkpt lat="45.3831713" lon="14.9358971"><ele>804.3333333333334</ele><time>2026-05-05T10:01:32.581Z</time></trkpt><trkpt lat="45.3831869" lon="14.9355797"><ele>802.6666666666667</ele><time>2026-05-05T10:01:33.581Z</time></trkpt><trkpt lat="45.3832059" lon="14.93526"><ele>801.0</ele><time>2026-05-05T10:01:34.581Z</time></trkpt><trkpt lat="45.383222" lon="14.9349372"><ele>798.5</ele><time>2026-05-05T10:01:35.58Z</time></trkpt><trkpt lat="45.3832359" lon="14.9346135"><ele>796.0</ele><time>2026-05-05T10:01:36.58Z</time></trkpt><trkpt lat="45.3832507" lon="14.9342889"><ele>798.5</ele><time>2026-05-05T10:01:37.58Z</time></trkpt><trkpt lat="45.3832629" lon="14.9339624"><ele>801.0</ele><time>2026-05-05T10:01:38.58Z</time></trkpt><trkpt lat="45.3832792" lon="14.9336299"><ele>801.5</ele><time>2026-05-05T10:01:39.581Z</time></trkpt><trkpt lat="45.3832944" lon="14.9332942"><ele>802.0</ele><time>2026-05-05T10:01:40.58Z</time></trkpt><trkpt lat="45.3833107" lon="14.9329575"><ele>802.0</ele><time>2026-05-05T10:01:41.581Z</time></trkpt><trkpt lat="45.3833248" lon="14.932615"><ele>802.0</ele><time>2026-05-05T10:01:42.581Z</time></trkpt><trkpt lat="45.3833391" lon="14.9322705"><ele>802.0</ele><time>2026-05-05T10:01:43.58Z</time></trkpt><trkpt lat="45.3833533" lon="14.9319262"><ele>802.0</ele><time>2026-05-05T10:01:44.581Z</time></trkpt><trkpt lat="45.3833682" lon="14.9315782"><ele>802.0</ele><time>2026-05-05T10:01:45.581Z</time></trkpt><trkpt lat="45.3833866" lon="14.9312279"><ele>802.0</ele><time>2026-05-05T10:01:46.58Z</time></trkpt><trkpt lat="45.3834033" lon="14.9308799"><ele>800.5</ele><time>2026-05-05T10:01:47.581Z</time></trkpt><trkpt lat="45.3834209" lon="14.9305269"><ele>799.0</ele><time>2026-05-05T10:01:48.581Z</time></trkpt><trkpt lat="45.3834339" lon="14.9301742"><ele>798.0</ele><time>2026-05-05T10:01:49.581Z</time></trkpt><trkpt lat="45.3834503" lon="14.9298192"><ele>797.0</ele><time>2026-05-05T10:01:50.581Z</time></trkpt><trkpt lat="45.3834661" lon="14.9294588"><ele>795.0</ele><time>2026-05-05T10:01:51.58Z</time></trkpt><trkpt lat="45.3834895" lon="14.9290951"><ele>793.0</ele><time>2026-05-05T10:01:52.581Z</time></trkpt><trkpt lat="45.3835063" lon="14.9287296"><ele>794.5</ele><time>2026-05-05T10:01:53.581Z</time></trkpt><trkpt lat="45.3835266" lon="14.9283603"><ele>796.0</ele><time>2026-05-05T10:01:54.581Z</time></trkpt><trkpt lat="45.3835452" lon="14.9279929"><ele>796.0</ele><time>2026-05-05T10:01:55.581Z</time></trkpt><trkpt lat="45.3835643" lon="14.9276249"><ele>796.0</ele><time>2026-05-05T10:01:56.581Z</time></trkpt><trkpt lat="45.3835806" lon="14.9272632"><ele>795.0</ele><time>2026-05-05T10:01:57.58Z</time></trkpt><trkpt lat="45.3835979" lon="14.9269031"><ele>794.0</ele><time>2026-05-05T10:01:58.581Z</time></trkpt><trkpt lat="45.3836182" lon="14.9265408"><ele>793.0</ele><time>2026-05-05T10:01:59.58Z</time></trkpt><trkpt lat="45.3836297" lon="14.926163"><ele>792.0</ele><time>2026-05-05T10:02:00.58Z</time></trkpt><trkpt lat="45.3836472" lon="14.9257867"><ele>792.0</ele><time>2026-05-05T10:02:01.581Z</time></trkpt><trkpt lat="45.3836523" lon="14.9254059"><ele>792.0</ele><time>2026-05-05T10:02:02.581Z</time></trkpt><trkpt lat="45.3836683" lon="14.9250202"><ele>793.5</ele><time>2026-05-05T10:02:03.58Z</time></trkpt><trkpt lat="45.3836894" lon="14.9246365"><ele>795.0</ele><time>2026-05-05T10:02:04.58Z</time></trkpt><trkpt lat="45.3837061" lon="14.9242478"><ele>795.5</ele><time>2026-05-05T10:02:05.58Z</time></trkpt><trkpt lat="45.3837218" lon="14.9238588"><ele>796.0</ele><time>2026-05-05T10:02:06.581Z</time></trkpt><trkpt lat="45.3837414" lon="14.9234765"><ele>795.0</ele><time>2026-05-05T10:02:07.581Z</time></trkpt><trkpt lat="45.3837538" lon="14.9230984"><ele>794.0</ele><time>2026-05-05T10:02:08.58Z</time></trkpt><trkpt lat="45.3837703" lon="14.9227157"><ele>794.0</ele><time>2026-05-05T10:02:09.581Z</time></trkpt><trkpt lat="45.3837884" lon="14.922328"><ele>794.0</ele><time>2026-05-05T10:02:10.581Z</time></trkpt><trkpt lat="45.3838084" lon="14.9219497"><ele>795.5</ele><time>2026-05-05T10:02:11.58Z</time></trkpt><trkpt lat="45.3838249" lon="14.9215693"><ele>797.0</ele><time>2026-05-05T10:02:12.58Z</time></trkpt><trkpt lat="45.3838451" lon="14.9211902"><ele>798.0</ele><time>2026-05-05T10:02:13.58Z</time></trkpt><trkpt lat="45.3838601" lon="14.920812"><ele>799.0</ele><time>2026-05-05T10:02:14.581Z</time></trkpt><trkpt lat="45.3838722" lon="14.9204338"><ele>799.0</ele><time>2026-05-05T10:02:15.58Z</time></trkpt><trkpt lat="45.3838881" lon="14.9200725"><ele>799.0</ele><time>2026-05-05T10:02:16.581Z</time></trkpt><trkpt lat="45.3839067" lon="14.9196886"><ele>799.5</ele><time>2026-05-05T10:02:17.58Z</time></trkpt><trkpt lat="45.3839259" lon="14.9193167"><ele>800.0</ele><time>2026-05-05T10:02:18.581Z</time></trkpt><trkpt lat="45.3839409" lon="14.9189406"><ele>799.0</ele><time>2026-05-05T10:02:19.581Z</time></trkpt><trkpt lat="45.3839625" lon="14.918567"><ele>798.0</ele><time>2026-05-05T10:02:20.58Z</time></trkpt><trkpt lat="45.383985" lon="14.9181929"><ele>797.0</ele><time>2026-05-05T10:02:21.581Z</time></trkpt><trkpt lat="45.3840021" lon="14.9178204"><ele>796.0</ele><time>2026-05-05T10:02:22.58Z</time></trkpt><trkpt lat="45.3840235" lon="14.9174516"><ele>793.5</ele><time>2026-05-05T10:02:23.581Z</time></trkpt><trkpt lat="45.3840503" lon="14.9170763"><ele>791.0</ele><time>2026-05-05T10:02:24.58Z</time></trkpt><trkpt lat="45.38407" lon="14.916712"><ele>788.0</ele><time>2026-05-05T10:02:25.58Z</time></trkpt><trkpt lat="45.3840978" lon="14.9163492"><ele>785.0</ele><time>2026-05-05T10:02:26.581Z</time></trkpt><trkpt lat="45.3841233" lon="14.9159932"><ele>785.5</ele><time>2026-05-05T10:02:27.58Z</time></trkpt><trkpt lat="45.3841405" lon="14.9156402"><ele>786.0</ele><time>2026-05-05T10:02:28.58Z</time></trkpt><trkpt lat="45.3841658" lon="14.915281"><ele>785.5</ele><time>2026-05-05T10:02:29.581Z</time></trkpt><trkpt lat="45.384187" lon="14.9149298"><ele>785.0</ele><time>2026-05-05T10:02:30.581Z</time></trkpt><trkpt lat="45.3842123" lon="14.914574"><ele>785.0</ele><time>2026-05-05T10:02:31.58Z</time></trkpt><trkpt lat="45.3842292" lon="14.9142201"><ele>785.0</ele><time>2026-05-05T10:02:32.581Z</time></trkpt><trkpt lat="45.3842559" lon="14.9138733"><ele>785.0</ele><time>2026-05-05T10:02:33.58Z</time></trkpt><trkpt lat="45.3842813" lon="14.9135198"><ele>785.0</ele><time>2026-05-05T10:02:34.581Z</time></trkpt><trkpt lat="45.3843089" lon="14.9131683"><ele>785.0</ele><time>2026-05-05T10:02:35.581Z</time></trkpt><trkpt lat="45.3843406" lon="14.9128177"><ele>785.0</ele><time>2026-05-05T10:02:36.581Z</time></trkpt><trkpt lat="45.3843734" lon="14.9124672"><ele>784.0</ele><time>2026-05-05T10:02:37.58Z</time></trkpt><trkpt lat="45.3844055" lon="14.9121151"><ele>783.0</ele><time>2026-05-05T10:02:38.58Z</time></trkpt><trkpt lat="45.3844431" lon="14.9117658"><ele>783.5</ele><time>2026-05-05T10:02:39.58Z</time></trkpt><trkpt lat="45.3844803" lon="14.9114115"><ele>784.0</ele><time>2026-05-05T10:02:40.581Z</time></trkpt><trkpt lat="45.3845219" lon="14.9110599"><ele>784.5</ele><time>2026-05-05T10:02:41.58Z</time></trkpt><trkpt lat="45.3845639" lon="14.9107065"><ele>785.0</ele><time>2026-05-05T10:02:42.58Z</time></trkpt><trkpt lat="45.3846129" lon="14.9103546"><ele>785.5</ele><time>2026-05-05T10:02:43.581Z</time></trkpt><trkpt lat="45.3846562" lon="14.9099994"><ele>786.0</ele><time>2026-05-05T10:02:44.58Z</time></trkpt><trkpt lat="45.3847008" lon="14.9096462"><ele>785.0</ele><time>2026-05-05T10:02:45.581Z</time></trkpt><trkpt lat="45.3847444" lon="14.9092949"><ele>784.0</ele><time>2026-05-05T10:02:46.58Z</time></trkpt><trkpt lat="45.3847891" lon="14.9089394"><ele>784.0</ele><time>2026-05-05T10:02:47.581Z</time></trkpt><trkpt lat="45.3848424" lon="14.9085936"><ele>784.0</ele><time>2026-05-05T10:02:48.581Z</time></trkpt><trkpt lat="45.3848879" lon="14.9082441"><ele>784.0</ele><time>2026-05-05T10:02:49.581Z</time></trkpt><trkpt lat="45.3849332" lon="14.9078952"><ele>784.0</ele><time>2026-05-05T10:02:50.58Z</time></trkpt><trkpt lat="45.3849829" lon="14.907536"><ele>783.5</ele><time>2026-05-05T10:02:51.58Z</time></trkpt><trkpt lat="45.3850346" lon="14.907178"><ele>783.0</ele><time>2026-05-05T10:02:52.581Z</time></trkpt><trkpt lat="45.3850868" lon="14.9068255"><ele>784.0</ele><time>2026-05-05T10:02:53.58Z</time></trkpt><trkpt lat="45.3851417" lon="14.9064705"><ele>785.0</ele><time>2026-05-05T10:02:54.581Z</time></trkpt><trkpt lat="45.3851983" lon="14.9061091"><ele>785.5</ele><time>2026-05-05T10:02:55.58Z</time></trkpt><trkpt lat="45.3852551" lon="14.9057512"><ele>786.0</ele><time>2026-05-05T10:02:56.581Z</time></trkpt><trkpt lat="45.3853131" lon="14.905395"><ele>786.0</ele><time>2026-05-05T10:02:57.58Z</time></trkpt><trkpt lat="45.3853694" lon="14.9050293"><ele>786.0</ele><time>2026-05-05T10:02:58.581Z</time></trkpt><trkpt lat="45.3854271" lon="14.904673"><ele>786.0</ele><time>2026-05-05T10:02:59.581Z</time></trkpt><trkpt lat="45.3854858" lon="14.9043102"><ele>786.0</ele><time>2026-05-05T10:03:00.58Z</time></trkpt><trkpt lat="45.3855481" lon="14.9039542"><ele>787.0</ele><time>2026-05-05T10:03:01.58Z</time></trkpt><trkpt lat="45.3856113" lon="14.9035958"><ele>788.0</ele><time>2026-05-05T10:03:02.581Z</time></trkpt><trkpt lat="45.3856796" lon="14.9032431"><ele>788.0</ele><time>2026-05-05T10:03:03.581Z</time></trkpt><trkpt lat="45.385742" lon="14.9028941"><ele>788.0</ele><time>2026-05-05T10:03:04.581Z</time></trkpt><trkpt lat="45.385802" lon="14.9025455"><ele>787.5</ele><time>2026-05-05T10:03:05.581Z</time></trkpt><trkpt lat="45.385849" lon="14.9021937"><ele>787.0</ele><time>2026-05-05T10:03:06.58Z</time></trkpt><trkpt lat="45.3859077" lon="14.9018476"><ele>786.5</ele><time>2026-05-05T10:03:07.58Z</time></trkpt><trkpt lat="45.3859632" lon="14.9014944"><ele>786.0</ele><time>2026-05-05T10:03:08.58Z</time></trkpt><trkpt lat="45.3860237" lon="14.9011395"><ele>784.5</ele><time>2026-05-05T10:03:09.581Z</time></trkpt><trkpt lat="45.3860784" lon="14.9007852"><ele>783.0</ele><time>2026-05-05T10:03:10.58Z</time></trkpt><trkpt lat="45.3861359" lon="14.9004228"><ele>783.5</ele><time>2026-05-05T10:03:11.581Z</time></trkpt><trkpt lat="45.386182" lon="14.9000721"><ele>784.0</ele><time>2026-05-05T10:03:12.58Z</time></trkpt><trkpt lat="45.3862266" lon="14.8997166"><ele>784.0</ele><time>2026-05-05T10:03:13.58Z</time></trkpt><trkpt lat="45.3862687" lon="14.8993616"><ele>784.0</ele><time>2026-05-05T10:03:14.58Z</time></trkpt><trkpt lat="45.3863093" lon="14.8990095"><ele>784.5</ele><time>2026-05-05T10:03:15.58Z</time></trkpt><trkpt lat="45.3863467" lon="14.8986542"><ele>785.0</ele><time>2026-05-05T10:03:16.58Z</time></trkpt><trkpt lat="45.3863815" lon="14.8982925"><ele>784.0</ele><time>2026-05-05T10:03:17.581Z</time></trkpt><trkpt lat="45.3864118" lon="14.8979406"><ele>783.0</ele><time>2026-05-05T10:03:18.58Z</time></trkpt><trkpt lat="45.3864384" lon="14.8975847"><ele>783.0</ele><time>2026-05-05T10:03:19.581Z</time></trkpt><trkpt lat="45.3864536" lon="14.8972338"><ele>783.0</ele><time>2026-05-05T10:03:20.58Z</time></trkpt><trkpt lat="45.3864622" lon="14.8968873"><ele>783.5</ele><time>2026-05-05T10:03:21.58Z</time></trkpt><trkpt lat="45.3864694" lon="14.8965366"><ele>784.0</ele><time>2026-05-05T10:03:22.581Z</time></trkpt><trkpt lat="45.3864714" lon="14.8961845"><ele>783.5</ele><time>2026-05-05T10:03:23.58Z</time></trkpt><trkpt lat="45.3864661" lon="14.8958342"><ele>783.0</ele><time>2026-05-05T10:03:24.58Z</time></trkpt><trkpt lat="45.3864556" lon="14.8954819"><ele>783.0</ele><time>2026-05-05T10:03:25.581Z</time></trkpt><trkpt lat="45.3864458" lon="14.8951306"><ele>783.0</ele><time>2026-05-05T10:03:26.58Z</time></trkpt><trkpt lat="45.3864262" lon="14.894778"><ele>783.0</ele><time>2026-05-05T10:03:27.58Z</time></trkpt><trkpt lat="45.3864063" lon="14.8944244"><ele>783.0</ele><time>2026-05-05T10:03:28.581Z</time></trkpt><trkpt lat="45.3863824" lon="14.8940664"><ele>782.5</ele><time>2026-05-05T10:03:29.581Z</time></trkpt><trkpt lat="45.3863541" lon="14.8937146"><ele>782.0</ele><time>2026-05-05T10:03:30.581Z</time></trkpt><trkpt lat="45.3863171" lon="14.893356"><ele>793.5</ele><time>2026-05-05T10:03:31.58Z</time></trkpt><trkpt lat="45.386275" lon="14.893004"><ele>805.0</ele><time>2026-05-05T10:03:32.58Z</time></trkpt><trkpt lat="45.3862286" lon="14.8926562"><ele>797.5</ele><time>2026-05-05T10:03:33.58Z</time></trkpt><trkpt lat="45.3861812" lon="14.892311"><ele>790.0</ele><time>2026-05-05T10:03:34.58Z</time></trkpt><trkpt lat="45.38613" lon="14.8919666"><ele>783.5</ele><time>2026-05-05T10:03:35.58Z</time></trkpt><trkpt lat="45.3860714" lon="14.8916267"><ele>777.0</ele><time>2026-05-05T10:03:36.581Z</time></trkpt><trkpt lat="45.386014" lon="14.8912875"><ele>777.0</ele><time>2026-05-05T10:03:37.581Z</time></trkpt><trkpt lat="45.3859382" lon="14.8909479"><ele>777.0</ele><time>2026-05-05T10:03:38.581Z</time></trkpt><trkpt lat="45.3858668" lon="14.8906029"><ele>776.0</ele><time>2026-05-05T10:03:39.58Z</time></trkpt><trkpt lat="45.385785" lon="14.8902618"><ele>775.0</ele><time>2026-05-05T10:03:40.581Z</time></trkpt><trkpt lat="45.385704" lon="14.88992"><ele>772.5</ele><time>2026-05-05T10:03:41.58Z</time></trkpt><trkpt lat="45.3856139" lon="14.8895861"><ele>770.0</ele><time>2026-05-05T10:03:42.581Z</time></trkpt><trkpt lat="45.3855221" lon="14.8892509"><ele>770.5</ele><time>2026-05-05T10:03:43.581Z</time></trkpt><trkpt lat="45.3854305" lon="14.8889177"><ele>771.0</ele><time>2026-05-05T10:03:44.581Z</time></trkpt><trkpt lat="45.3853329" lon="14.8885782"><ele>773.5</ele><time>2026-05-05T10:03:45.581Z</time></trkpt><trkpt lat="45.3852253" lon="14.888248"><ele>776.0</ele><time>2026-05-05T10:03:46.581Z</time></trkpt><trkpt lat="45.3851159" lon="14.8879195"><ele>776.5</ele><time>2026-05-05T10:03:47.581Z</time></trkpt><trkpt lat="45.3849985" lon="14.8875867"><ele>777.0</ele><time>2026-05-05T10:03:48.581Z</time></trkpt><trkpt lat="45.3848774" lon="14.8872625"><ele>777.0</ele><time>2026-05-05T10:03:49.581Z</time></trkpt><trkpt lat="45.3847597" lon="14.8869327"><ele>777.0</ele><time>2026-05-05T10:03:50.581Z</time></trkpt><trkpt lat="45.384635" lon="14.8866182"><ele>776.5</ele><time>2026-05-05T10:03:51.581Z</time></trkpt><trkpt lat="45.384505" lon="14.8863022"><ele>776.0</ele><time>2026-05-05T10:03:52.581Z</time></trkpt><trkpt lat="45.3843799" lon="14.8859947"><ele>777.0</ele><time>2026-05-05T10:03:53.581Z</time></trkpt><trkpt lat="45.3842402" lon="14.88566"><ele>778.0</ele><time>2026-05-05T10:03:54.581Z</time></trkpt><trkpt lat="45.3841044" lon="14.8853385"><ele>778.5</ele><time>2026-05-05T10:03:55.581Z</time></trkpt><trkpt lat="45.3839606" lon="14.8850062"><ele>779.0</ele><time>2026-05-05T10:03:56.581Z</time></trkpt><trkpt lat="45.3838265" lon="14.8846874"><ele>779.0</ele><time>2026-05-05T10:03:57.581Z</time></trkpt><trkpt lat="45.383691" lon="14.8843613"><ele>779.0</ele><time>2026-05-05T10:03:58.58Z</time></trkpt><trkpt lat="45.3835615" lon="14.8840278"><ele>780.0</ele><time>2026-05-05T10:03:59.58Z</time></trkpt><trkpt lat="45.3834346" lon="14.8836858"><ele>781.0</ele><time>2026-05-05T10:04:00.581Z</time></trkpt><trkpt lat="45.3833074" lon="14.8833407"><ele>781.5</ele><time>2026-05-05T10:04:01.58Z</time></trkpt><trkpt lat="45.3831823" lon="14.8829966"><ele>782.0</ele><time>2026-05-05T10:04:02.58Z</time></trkpt><trkpt lat="45.3830552" lon="14.8826479"><ele>780.0</ele><time>2026-05-05T10:04:03.581Z</time></trkpt><trkpt lat="45.3829388" lon="14.8822919"><ele>778.0</ele><time>2026-05-05T10:04:04.581Z</time></trkpt><trkpt lat="45.3828316" lon="14.8819344"><ele>777.5</ele><time>2026-05-05T10:04:05.58Z</time></trkpt><trkpt lat="45.3827198" lon="14.8815705"><ele>777.0</ele><time>2026-05-05T10:04:06.581Z</time></trkpt><trkpt lat="45.3826212" lon="14.8812054"><ele>778.5</ele><time>2026-05-05T10:04:07.581Z</time></trkpt><trkpt lat="45.3825299" lon="14.8808329"><ele>780.0</ele><time>2026-05-05T10:04:08.581Z</time></trkpt><trkpt lat="45.3824395" lon="14.880462"><ele>781.0</ele><time>2026-05-05T10:04:09.58Z</time></trkpt><trkpt lat="45.3823588" lon="14.8800937"><ele>782.0</ele><time>2026-05-05T10:04:10.58Z</time></trkpt><trkpt lat="45.3822889" lon="14.8797199"><ele>782.0</ele><time>2026-05-05T10:04:11.58Z</time></trkpt><trkpt lat="45.3822301" lon="14.8793504"><ele>782.0</ele><time>2026-05-05T10:04:12.58Z</time></trkpt><trkpt lat="45.3821716" lon="14.8789801"><ele>780.0</ele><time>2026-05-05T10:04:13.581Z</time></trkpt><trkpt lat="45.3821215" lon="14.8786178"><ele>778.0</ele><time>2026-05-05T10:04:14.581Z</time></trkpt><trkpt lat="45.3820837" lon="14.8782614"><ele>778.0</ele><time>2026-05-05T10:04:15.58Z</time></trkpt><trkpt lat="45.3820478" lon="14.8778989"><ele>778.0</ele><time>2026-05-05T10:04:16.581Z</time></trkpt><trkpt lat="45.3820239" lon="14.8775398"><ele>777.0</ele><time>2026-05-05T10:04:17.58Z</time></trkpt><trkpt lat="45.3820071" lon="14.8771898"><ele>776.0</ele><time>2026-05-05T10:04:18.581Z</time></trkpt><trkpt lat="45.3819874" lon="14.8768352"><ele>776.0</ele><time>2026-05-05T10:04:19.58Z</time></trkpt><trkpt lat="45.3819768" lon="14.8764847"><ele>776.0</ele><time>2026-05-05T10:04:20.58Z</time></trkpt><trkpt lat="45.3819669" lon="14.8761352"><ele>776.5</ele><time>2026-05-05T10:04:21.58Z</time></trkpt><trkpt lat="45.3819591" lon="14.8757869"><ele>777.0</ele><time>2026-05-05T10:04:22.581Z</time></trkpt><trkpt lat="45.3819583" lon="14.8754527"><ele>777.0</ele><time>2026-05-05T10:04:23.581Z</time></trkpt><trkpt lat="45.3819611" lon="14.8751092"><ele>777.0</ele><time>2026-05-05T10:04:24.58Z</time></trkpt><trkpt lat="45.3819746" lon="14.8747631"><ele>777.5</ele><time>2026-05-05T10:04:25.581Z</time></trkpt><trkpt lat="45.381988" lon="14.874408"><ele>778.0</ele><time>2026-05-05T10:04:26.581Z</time></trkpt><trkpt lat="45.3820042" lon="14.8740572"><ele>778.0</ele><time>2026-05-05T10:04:27.58Z</time></trkpt><trkpt lat="45.3820222" lon="14.8737119"><ele>778.0</ele><time>2026-05-05T10:04:28.581Z</time></trkpt><trkpt lat="45.3820475" lon="14.8733631"><ele>778.0</ele><time>2026-05-05T10:04:29.581Z</time></trkpt><trkpt lat="45.3820682" lon="14.8730121"><ele>778.0</ele><time>2026-05-05T10:04:30.581Z</time></trkpt><trkpt lat="45.3820932" lon="14.8726621"><ele>778.0</ele><time>2026-05-05T10:04:31.58Z</time></trkpt><trkpt lat="45.3821168" lon="14.8723119"><ele>778.0</ele><time>2026-05-05T10:04:32.581Z</time></trkpt><trkpt lat="45.3821415" lon="14.8719664"><ele>778.5</ele><time>2026-05-05T10:04:33.581Z</time></trkpt><trkpt lat="45.3821627" lon="14.8716253"><ele>779.0</ele><time>2026-05-05T10:04:34.581Z</time></trkpt><trkpt lat="45.3821821" lon="14.8712804"><ele>781.0</ele><time>2026-05-05T10:04:35.581Z</time></trkpt><trkpt lat="45.3822071" lon="14.8709393"><ele>783.0</ele><time>2026-05-05T10:04:36.58Z</time></trkpt><trkpt lat="45.382231" lon="14.8706048"><ele>783.0</ele><time>2026-05-05T10:04:37.581Z</time></trkpt><trkpt lat="45.3822545" lon="14.8702716"><ele>783.0</ele><time>2026-05-05T10:04:38.58Z</time></trkpt><trkpt lat="45.3822809" lon="14.8699357"><ele>785.0</ele><time>2026-05-05T10:04:39.581Z</time></trkpt><trkpt lat="45.3822983" lon="14.8695999"><ele>787.0</ele><time>2026-05-05T10:04:40.58Z</time></trkpt><trkpt lat="45.3823198" lon="14.869264"><ele>791.0</ele><time>2026-05-05T10:04:41.58Z</time></trkpt><trkpt lat="45.3823395" lon="14.8689297"><ele>795.0</ele><time>2026-05-05T10:04:42.581Z</time></trkpt><trkpt lat="45.38236" lon="14.8686055"><ele>798.0</ele><time>2026-05-05T10:04:43.581Z</time></trkpt><trkpt lat="45.382387" lon="14.8682729"><ele>801.0</ele><time>2026-05-05T10:04:44.581Z</time></trkpt><trkpt lat="45.3824246" lon="14.8679468"><ele>801.0</ele><time>2026-05-05T10:04:45.581Z</time></trkpt><trkpt lat="45.3824477" lon="14.8676182"><ele>801.0</ele><time>2026-05-05T10:04:46.58Z</time></trkpt><trkpt lat="45.3824687" lon="14.8672894"><ele>818.0</ele><time>2026-05-05T10:04:47.58Z</time></trkpt><trkpt lat="45.3813994" lon="14.8567392"><ele>816.0</ele><time>2026-05-05T10:05:19.581Z</time></trkpt><trkpt lat="45.3813259" lon="14.8564307"><ele>814.0</ele><time>2026-05-05T10:05:20.581Z</time></trkpt><trkpt lat="45.3812737" lon="14.8561165"><ele>810.5</ele><time>2026-05-05T10:05:21.581Z</time></trkpt><trkpt lat="45.3812268" lon="14.8557935"><ele>807.0</ele><time>2026-05-05T10:05:22.58Z</time></trkpt><trkpt lat="45.3811754" lon="14.8554754"><ele>807.0</ele><time>2026-05-05T10:05:23.58Z</time></trkpt><trkpt lat="45.3811277" lon="14.8551543"><ele>807.0</ele><time>2026-05-05T10:05:24.58Z</time></trkpt><trkpt lat="45.3810844" lon="14.8548347"><ele>807.0</ele><time>2026-05-05T10:05:25.581Z</time></trkpt><trkpt lat="45.3810457" lon="14.8545131"><ele>807.0</ele><time>2026-05-05T10:05:26.581Z</time></trkpt><trkpt lat="45.3810108" lon="14.8541923"><ele>808.0</ele><time>2026-05-05T10:05:27.58Z</time></trkpt><trkpt lat="45.3809819" lon="14.8538702"><ele>809.0</ele><time>2026-05-05T10:05:28.581Z</time></trkpt><trkpt lat="45.3809557" lon="14.853549"><ele>809.5</ele><time>2026-05-05T10:05:30.285Z</time></trkpt><trkpt lat="45.380932" lon="14.8532264"><ele>810.0</ele><time>2026-05-05T10:05:31.285Z</time></trkpt><trkpt lat="45.3809139" lon="14.8529016"><ele>810.0</ele><time>2026-05-05T10:05:32.285Z</time></trkpt><trkpt lat="45.3809068" lon="14.8525734"><ele>810.0</ele><time>2026-05-05T10:05:33.285Z</time></trkpt><trkpt lat="45.3808987" lon="14.8522456"><ele>810.0</ele><time>2026-05-05T10:05:34.284Z</time></trkpt><trkpt lat="45.3808986" lon="14.851911"><ele>810.0</ele><time>2026-05-05T10:05:35.285Z</time></trkpt><trkpt lat="45.3809032" lon="14.8515776"><ele>810.0</ele><time>2026-05-05T10:05:36.285Z</time></trkpt><trkpt lat="45.3809136" lon="14.851244"><ele>810.0</ele><time>2026-05-05T10:05:37.285Z</time></trkpt><trkpt lat="45.3809296" lon="14.8509067"><ele>810.5</ele><time>2026-05-05T10:05:38.284Z</time></trkpt><trkpt lat="45.3809487" lon="14.8505699"><ele>811.0</ele><time>2026-05-05T10:05:39.285Z</time></trkpt><trkpt lat="45.3809728" lon="14.8502326"><ele>813.0</ele><time>2026-05-05T10:05:40.284Z</time></trkpt><trkpt lat="45.3810014" lon="14.8498953"><ele>815.0</ele><time>2026-05-05T10:05:41.285Z</time></trkpt><trkpt lat="45.3810416" lon="14.8495613"><ele>816.0</ele><time>2026-05-05T10:05:42.284Z</time></trkpt><trkpt lat="45.3810834" lon="14.8492249"><ele>817.0</ele><time>2026-05-05T10:05:43.285Z</time></trkpt><trkpt lat="45.3811343" lon="14.8488947"><ele>817.0</ele><time>2026-05-05T10:05:44.285Z</time></trkpt><trkpt lat="45.3811877" lon="14.8485641"><ele>817.0</ele><time>2026-05-05T10:05:45.285Z</time></trkpt><trkpt lat="45.3812454" lon="14.8482347"><ele>818.5</ele><time>2026-05-05T10:05:46.285Z</time></trkpt><trkpt lat="45.381304" lon="14.8479055"><ele>820.0</ele><time>2026-05-05T10:05:47.284Z</time></trkpt><trkpt lat="45.3813697" lon="14.8475763"><ele>820.0</ele><time>2026-05-05T10:05:48.284Z</time></trkpt><trkpt lat="45.3814398" lon="14.8472553"><ele>820.0</ele><time>2026-05-05T10:05:49.284Z</time></trkpt><trkpt lat="45.3815161" lon="14.8469304"><ele>821.0</ele><time>2026-05-05T10:05:50.285Z</time></trkpt><trkpt lat="45.3815976" lon="14.8466082"><ele>822.0</ele><time>2026-05-05T10:05:51.285Z</time></trkpt><trkpt lat="45.3816869" lon="14.8462894"><ele>822.0</ele><time>2026-05-05T10:05:52.285Z</time></trkpt><trkpt lat="45.3817811" lon="14.845967"><ele>822.0</ele><time>2026-05-05T10:05:53.284Z</time></trkpt><trkpt lat="45.3818794" lon="14.8456488"><ele>823.5</ele><time>2026-05-05T10:05:54.285Z</time></trkpt><trkpt lat="45.3819808" lon="14.8453372"><ele>825.0</ele><time>2026-05-05T10:05:55.285Z</time></trkpt><trkpt lat="45.3820881" lon="14.8450294"><ele>827.5</ele><time>2026-05-05T10:05:56.285Z</time></trkpt><trkpt lat="45.3821991" lon="14.8447253"><ele>830.0</ele><time>2026-05-05T10:05:57.285Z</time></trkpt><trkpt lat="45.382313" lon="14.844426"><ele>832.0</ele><time>2026-05-05T10:05:58.285Z</time></trkpt><trkpt lat="45.3824276" lon="14.844121"><ele>834.0</ele><time>2026-05-05T10:05:59.285Z</time></trkpt><trkpt lat="45.3825446" lon="14.8438138"><ele>834.0</ele><time>2026-05-05T10:06:00.284Z</time></trkpt><trkpt lat="45.3826672" lon="14.8435043"><ele>834.0</ele><time>2026-05-05T10:06:01.284Z</time></trkpt><trkpt lat="45.3827946" lon="14.8431978"><ele>836.0</ele><time>2026-05-05T10:06:02.285Z</time></trkpt><trkpt lat="45.3829274" lon="14.8428928"><ele>838.0</ele><time>2026-05-05T10:06:03.285Z</time></trkpt><trkpt lat="45.383064" lon="14.84259"><ele>839.5</ele><time>2026-05-05T10:06:04.284Z</time></trkpt><trkpt lat="45.3831995" lon="14.8422862"><ele>841.0</ele><time>2026-05-05T10:06:05.285Z</time></trkpt><trkpt lat="45.383334" lon="14.8419804"><ele>842.0</ele><time>2026-05-05T10:06:06.284Z</time></trkpt><trkpt lat="45.3834733" lon="14.8416807"><ele>843.0</ele><time>2026-05-05T10:06:07.284Z</time></trkpt><trkpt lat="45.3836123" lon="14.8413749"><ele>843.0</ele><time>2026-05-05T10:06:08.285Z</time></trkpt><trkpt lat="45.3837545" lon="14.84107"><ele>843.0</ele><time>2026-05-05T10:06:09.285Z</time></trkpt><trkpt lat="45.3838991" lon="14.8407679"><ele>841.0</ele><time>2026-05-05T10:06:10.285Z</time></trkpt><trkpt lat="45.3840441" lon="14.8404687"><ele>839.0</ele><time>2026-05-05T10:06:11.285Z</time></trkpt><trkpt lat="45.3841893" lon="14.8401676"><ele>842.0</ele><time>2026-05-05T10:06:12.285Z</time></trkpt><trkpt lat="45.384337" lon="14.8398683"><ele>845.0</ele><time>2026-05-05T10:06:13.285Z</time></trkpt><trkpt lat="45.3844857" lon="14.8395696"><ele>846.5</ele><time>2026-05-05T10:06:14.284Z</time></trkpt><trkpt lat="45.3846373" lon="14.8392762"><ele>848.0</ele><time>2026-05-05T10:06:15.285Z</time></trkpt><trkpt lat="45.3847906" lon="14.8389865"><ele>848.0</ele><time>2026-05-05T10:06:16.285Z</time></trkpt><trkpt lat="45.3849464" lon="14.8387037"><ele>848.0</ele><time>2026-05-05T10:06:17.284Z</time></trkpt><trkpt lat="45.3851054" lon="14.8384222"><ele>851.5</ele><time>2026-05-05T10:06:18.285Z</time></trkpt><trkpt lat="45.3852637" lon="14.8381498"><ele>855.0</ele><time>2026-05-05T10:06:19.285Z</time></trkpt><trkpt lat="45.3854213" lon="14.8378909"><ele>854.5</ele><time>2026-05-05T10:06:20.285Z</time></trkpt><trkpt lat="45.3855807" lon="14.8376405"><ele>854.0</ele><time>2026-05-05T10:06:21.285Z</time></trkpt><trkpt lat="45.3857489" lon="14.8373797"><ele>856.5</ele><time>2026-05-05T10:06:22.285Z</time></trkpt><trkpt lat="45.3859205" lon="14.8371362"><ele>859.0</ele><time>2026-05-05T10:06:23.284Z</time></trkpt><trkpt lat="45.3860928" lon="14.8368891"><ele>858.5</ele><time>2026-05-05T10:06:24.285Z</time></trkpt><trkpt lat="45.3862721" lon="14.836645"><ele>858.0</ele><time>2026-05-05T10:06:25.285Z</time></trkpt><trkpt lat="45.3864552" lon="14.8364001"><ele>858.0</ele><time>2026-05-05T10:06:26.284Z</time></trkpt><trkpt lat="45.3866483" lon="14.8361567"><ele>858.0</ele><time>2026-05-05T10:06:27.285Z</time></trkpt><trkpt lat="45.3868373" lon="14.8359268"><ele>858.5</ele><time>2026-05-05T10:06:28.285Z</time></trkpt><trkpt lat="45.3870389" lon="14.835688"><ele>859.0</ele><time>2026-05-05T10:06:29.285Z</time></trkpt><trkpt lat="45.3872307" lon="14.8354611"><ele>857.0</ele><time>2026-05-05T10:06:30.284Z</time></trkpt><trkpt lat="45.3874292" lon="14.8352484"><ele>855.0</ele><time>2026-05-05T10:06:31.285Z</time></trkpt><trkpt lat="45.3876308" lon="14.8350364"><ele>855.0</ele><time>2026-05-05T10:06:32.285Z</time></trkpt><trkpt lat="45.3878399" lon="14.8348294"><ele>855.0</ele><time>2026-05-05T10:06:33.285Z</time></trkpt><trkpt lat="45.3880481" lon="14.8346298"><ele>859.0</ele><time>2026-05-05T10:06:34.284Z</time></trkpt><trkpt lat="45.388262" lon="14.8344299"><ele>863.0</ele><time>2026-05-05T10:06:35.285Z</time></trkpt><trkpt lat="45.3884756" lon="14.8342355"><ele>863.5</ele><time>2026-05-05T10:06:36.285Z</time></trkpt><trkpt lat="45.3886866" lon="14.83404"><ele>864.0</ele><time>2026-05-05T10:06:37.284Z</time></trkpt><trkpt lat="45.3888963" lon="14.8338403"><ele>868.0</ele><time>2026-05-05T10:06:38.284Z</time></trkpt><trkpt lat="45.3891056" lon="14.8336477"><ele>872.0</ele><time>2026-05-05T10:06:39.285Z</time></trkpt><trkpt lat="45.3893142" lon="14.8334484"><ele>872.0</ele><time>2026-05-05T10:06:40.285Z</time></trkpt><trkpt lat="45.3895183" lon="14.8332627"><ele>872.0</ele><time>2026-05-05T10:06:41.284Z</time></trkpt><trkpt lat="45.3897252" lon="14.8330602"><ele>872.5</ele><time>2026-05-05T10:06:42.284Z</time></trkpt><trkpt lat="45.3899274" lon="14.8328536"><ele>873.0</ele><time>2026-05-05T10:06:43.285Z</time></trkpt><trkpt lat="45.3901257" lon="14.8326319"><ele>873.0</ele><time>2026-05-05T10:06:44.285Z</time></trkpt><trkpt lat="45.3903208" lon="14.8323863"><ele>873.0</ele><time>2026-05-05T10:06:45.285Z</time></trkpt><trkpt lat="45.390508" lon="14.8321641"><ele>875.0</ele><time>2026-05-05T10:06:46.284Z</time></trkpt><trkpt lat="45.3906982" lon="14.8319209"><ele>877.0</ele><time>2026-05-05T10:06:47.285Z</time></trkpt><trkpt lat="45.3908827" lon="14.8316776"><ele>871.5</ele><time>2026-05-05T10:06:48.285Z</time></trkpt><trkpt lat="45.391055" lon="14.8314232"><ele>866.0</ele><time>2026-05-05T10:06:49.285Z</time></trkpt><trkpt lat="45.3912188" lon="14.8311617"><ele>864.5</ele><time>2026-05-05T10:06:50.285Z</time></trkpt><trkpt lat="45.3913758" lon="14.83089"><ele>863.0</ele><time>2026-05-05T10:06:51.285Z</time></trkpt><trkpt lat="45.391531" lon="14.8306143"><ele>863.0</ele><time>2026-05-05T10:06:52.284Z</time></trkpt><trkpt lat="45.3916781" lon="14.8303257"><ele>863.0</ele><time>2026-05-05T10:06:53.285Z</time></trkpt><trkpt lat="45.3918168" lon="14.8300269"><ele>858.5</ele><time>2026-05-05T10:06:54.285Z</time></trkpt><trkpt lat="45.3919553" lon="14.8297296"><ele>854.0</ele><time>2026-05-05T10:06:55.285Z</time></trkpt><trkpt lat="45.3920871" lon="14.8294236"><ele>854.5</ele><time>2026-05-05T10:06:56.285Z</time></trkpt><trkpt lat="45.3922143" lon="14.8291145"><ele>855.0</ele><time>2026-05-05T10:06:57.285Z</time></trkpt><trkpt lat="45.3923319" lon="14.8287964"><ele>851.5</ele><time>2026-05-05T10:06:58.285Z</time></trkpt><trkpt lat="45.3924509" lon="14.8284736"><ele>848.0</ele><time>2026-05-05T10:06:59.284Z</time></trkpt><trkpt lat="45.3925564" lon="14.8281487"><ele>848.0</ele><time>2026-05-05T10:07:00.285Z</time></trkpt><trkpt lat="45.3926655" lon="14.8278217"><ele>848.0</ele><time>2026-05-05T10:07:01.284Z</time></trkpt><trkpt lat="45.3927688" lon="14.8274885"><ele>842.5</ele><time>2026-05-05T10:07:02.284Z</time></trkpt><trkpt lat="45.3928813" lon="14.8271448"><ele>837.0</ele><time>2026-05-05T10:07:03.284Z</time></trkpt><trkpt lat="45.3929828" lon="14.8268036"><ele>843.0</ele><time>2026-05-05T10:07:04.285Z</time></trkpt><trkpt lat="45.3930758" lon="14.8264677"><ele>849.0</ele><time>2026-05-05T10:07:05.284Z</time></trkpt><trkpt lat="45.3931653" lon="14.8261212"><ele>846.0</ele><time>2026-05-05T10:07:06.285Z</time></trkpt><trkpt lat="45.3932565" lon="14.8257717"><ele>843.0</ele><time>2026-05-05T10:07:07.285Z</time></trkpt><trkpt lat="45.3933421" lon="14.8254217"><ele>839.0</ele><time>2026-05-05T10:07:08.285Z</time></trkpt><trkpt lat="45.3934318" lon="14.8250647"><ele>835.0</ele><time>2026-05-05T10:07:09.285Z</time></trkpt><trkpt lat="45.3935131" lon="14.8247191"><ele>835.0</ele><time>2026-05-05T10:07:10.285Z</time></trkpt><trkpt lat="45.3935879" lon="14.8243777"><ele>835.0</ele><time>2026-05-05T10:07:11.284Z</time></trkpt><trkpt lat="45.3936665" lon="14.8240196"><ele>836.5</ele><time>2026-05-05T10:07:12.284Z</time></trkpt><trkpt lat="45.3937386" lon="14.8236572"><ele>838.0</ele><time>2026-05-05T10:07:13.284Z</time></trkpt><trkpt lat="45.3938047" lon="14.8232909"><ele>833.5</ele><time>2026-05-05T10:07:14.284Z</time></trkpt><trkpt lat="45.3938594" lon="14.822924"><ele>829.0</ele><time>2026-05-05T10:07:15.284Z</time></trkpt><trkpt lat="45.3939058" lon="14.8225631"><ele>827.5</ele><time>2026-05-05T10:07:16.284Z</time></trkpt><trkpt lat="45.3939451" lon="14.8221981"><ele>826.0</ele><time>2026-05-05T10:07:17.284Z</time></trkpt><trkpt lat="45.3939648" lon="14.8218363"><ele>825.5</ele><time>2026-05-05T10:07:18.284Z</time></trkpt><trkpt lat="45.3939831" lon="14.8214726"><ele>825.0</ele><time>2026-05-05T10:07:19.285Z</time></trkpt><trkpt lat="45.3939929" lon="14.8211108"><ele>821.5</ele><time>2026-05-05T10:07:20.285Z</time></trkpt><trkpt lat="45.39399" lon="14.8207527"><ele>818.0</ele><time>2026-05-05T10:07:21.284Z</time></trkpt><trkpt lat="45.3939792" lon="14.8204028"><ele>817.5</ele><time>2026-05-05T10:07:22.285Z</time></trkpt><trkpt lat="45.3939555" lon="14.8200445"><ele>817.0</ele><time>2026-05-05T10:07:23.284Z</time></trkpt><trkpt lat="45.3939262" lon="14.8196956"><ele>817.0</ele><time>2026-05-05T10:07:24.285Z</time></trkpt><trkpt lat="45.393899" lon="14.8193443"><ele>817.0</ele><time>2026-05-05T10:07:25.285Z</time></trkpt><trkpt lat="45.3938508" lon="14.8189944"><ele>816.5</ele><time>2026-05-05T10:07:26.285Z</time></trkpt><trkpt lat="45.3937925" lon="14.81865"><ele>816.0</ele><time>2026-05-05T10:07:27.285Z</time></trkpt><trkpt lat="45.3937268" lon="14.8183094"><ele>811.5</ele><time>2026-05-05T10:07:28.284Z</time></trkpt><trkpt lat="45.3936527" lon="14.8179763"><ele>807.0</ele><time>2026-05-05T10:07:29.284Z</time></trkpt><trkpt lat="45.39356" lon="14.8176545"><ele>804.0</ele><time>2026-05-05T10:07:30.284Z</time></trkpt><trkpt lat="45.3934747" lon="14.8173248"><ele>801.0</ele><time>2026-05-05T10:07:31.285Z</time></trkpt><trkpt lat="45.3933759" lon="14.8170044"><ele>796.5</ele><time>2026-05-05T10:07:32.284Z</time></trkpt><trkpt lat="45.3932658" lon="14.8166898"><ele>792.0</ele><time>2026-05-05T10:07:33.284Z</time></trkpt><trkpt lat="45.3931514" lon="14.8163762"><ele>792.0</ele><time>2026-05-05T10:07:34.285Z</time></trkpt><trkpt lat="45.3930272" lon="14.8160705"><ele>792.0</ele><time>2026-05-05T10:07:35.284Z</time></trkpt><trkpt lat="45.392893" lon="14.8157692"><ele>792.5</ele><time>2026-05-05T10:07:36.285Z</time></trkpt><trkpt lat="45.3927532" lon="14.8154753"><ele>793.0</ele><time>2026-05-05T10:07:37.285Z</time></trkpt><trkpt lat="45.3926073" lon="14.8151895"><ele>793.0</ele><time>2026-05-05T10:07:38.284Z</time></trkpt><trkpt lat="45.3924517" lon="14.8149098"><ele>793.0</ele><time>2026-05-05T10:07:39.285Z</time></trkpt><trkpt lat="45.3922857" lon="14.8146374"><ele>793.0</ele><time>2026-05-05T10:07:40.284Z</time></trkpt><trkpt lat="45.3921133" lon="14.8143698"><ele>793.0</ele><time>2026-05-05T10:07:41.284Z</time></trkpt><trkpt lat="45.3919352" lon="14.8141099"><ele>793.0</ele><time>2026-05-05T10:07:42.284Z</time></trkpt><trkpt lat="45.3917577" lon="14.8138813"><ele>793.0</ele><time>2026-05-05T10:07:43.285Z</time></trkpt><trkpt lat="45.3915759" lon="14.8136546"><ele>791.0</ele><time>2026-05-05T10:07:44.284Z</time></trkpt><trkpt lat="45.3914055" lon="14.8134455"><ele>789.0</ele><time>2026-05-05T10:07:45.285Z</time></trkpt><trkpt lat="45.3912066" lon="14.8132082"><ele>785.5</ele><time>2026-05-05T10:07:46.285Z</time></trkpt><trkpt lat="45.391014" lon="14.8129782"><ele>782.0</ele><time>2026-05-05T10:07:47.284Z</time></trkpt><trkpt lat="45.390825" lon="14.8127468"><ele>778.0</ele><time>2026-05-05T10:07:48.285Z</time></trkpt><trkpt lat="45.3906295" lon="14.812514"><ele>774.0</ele><time>2026-05-05T10:07:49.285Z</time></trkpt><trkpt lat="45.3904426" lon="14.8122743"><ele>772.0</ele><time>2026-05-05T10:07:50.284Z</time></trkpt><trkpt lat="45.3902544" lon="14.8120068"><ele>770.0</ele><time>2026-05-05T10:07:51.285Z</time></trkpt><trkpt lat="45.3900835" lon="14.8117367"><ele>768.0</ele><time>2026-05-05T10:07:52.285Z</time></trkpt><trkpt lat="45.3899176" lon="14.8114547"><ele>766.0</ele><time>2026-05-05T10:07:53.284Z</time></trkpt><trkpt lat="45.3897569" lon="14.8111706"><ele>767.0</ele><time>2026-05-05T10:07:54.285Z</time></trkpt><trkpt lat="45.3895996" lon="14.8108585"><ele>768.0</ele><time>2026-05-05T10:07:55.284Z</time></trkpt><trkpt lat="45.3894529" lon="14.8105603"><ele>768.0</ele><time>2026-05-05T10:07:56.284Z</time></trkpt><trkpt lat="45.3893069" lon="14.8102572"><ele>768.0</ele><time>2026-05-05T10:07:57.284Z</time></trkpt><trkpt lat="45.3891668" lon="14.8099463"><ele>763.0</ele><time>2026-05-05T10:07:58.285Z</time></trkpt><trkpt lat="45.389028" lon="14.809634"><ele>758.0</ele><time>2026-05-05T10:07:59.284Z</time></trkpt><trkpt lat="45.3888923" lon="14.8093253"><ele>761.0</ele><time>2026-05-05T10:08:00.284Z</time></trkpt><trkpt lat="45.3887567" lon="14.8090161"><ele>764.0</ele><time>2026-05-05T10:08:01.284Z</time></trkpt><trkpt lat="45.3886268" lon="14.8087036"><ele>761.0</ele><time>2026-05-05T10:08:02.285Z</time></trkpt><trkpt lat="45.3884884" lon="14.8083941"><ele>758.0</ele><time>2026-05-05T10:08:03.285Z</time></trkpt><trkpt lat="45.3883538" lon="14.8080817"><ele>758.0</ele><time>2026-05-05T10:08:04.285Z</time></trkpt><trkpt lat="45.3882215" lon="14.8077702"><ele>758.0</ele><time>2026-05-05T10:08:05.285Z</time></trkpt><trkpt lat="45.3880873" lon="14.8074673"><ele>761.0</ele><time>2026-05-05T10:08:06.284Z</time></trkpt><trkpt lat="45.3879534" lon="14.8071715"><ele>764.0</ele><time>2026-05-05T10:08:07.284Z</time></trkpt><trkpt lat="45.3878221" lon="14.8068945"><ele>762.0</ele><time>2026-05-05T10:08:08.284Z</time></trkpt><trkpt lat="45.3876935" lon="14.8066223"><ele>760.0</ele><time>2026-05-05T10:08:09.285Z</time></trkpt><trkpt lat="45.3875534" lon="14.8063609"><ele>760.0</ele><time>2026-05-05T10:08:10.285Z</time></trkpt><trkpt lat="45.3874072" lon="14.8060968"><ele>760.0</ele><time>2026-05-05T10:08:11.285Z</time></trkpt><trkpt lat="45.3872605" lon="14.8058459"><ele>763.6666666666667</ele><time>2026-05-05T10:08:12.285Z</time></trkpt><trkpt lat="45.3871081" lon="14.8056104"><ele>767.3333333333334</ele><time>2026-05-05T10:08:13.284Z</time></trkpt><trkpt lat="45.3869604" lon="14.8053823"><ele>771.0</ele><time>2026-05-05T10:08:14.284Z</time></trkpt><trkpt lat="45.3868074" lon="14.8051623"><ele>774.5</ele><time>2026-05-05T10:08:15.285Z</time></trkpt><trkpt lat="45.3866498" lon="14.8049451"><ele>778.0</ele><time>2026-05-05T10:08:16.285Z</time></trkpt><trkpt lat="45.3825032" lon="14.8012351"><ele>767.0</ele><time>2026-05-05T10:08:37.284Z</time></trkpt><trkpt lat="45.3822983" lon="14.8010672"><ele>756.0</ele><time>2026-05-05T10:08:38.285Z</time></trkpt><trkpt lat="45.3820783" lon="14.800894"><ele>747.0</ele><time>2026-05-05T10:08:39.284Z</time></trkpt><trkpt lat="45.3818789" lon="14.8007384"><ele>738.0</ele><time>2026-05-05T10:08:40.285Z</time></trkpt><trkpt lat="45.3816608" lon="14.8005644"><ele>738.0</ele><time>2026-05-05T10:08:41.285Z</time></trkpt><trkpt lat="45.3814468" lon="14.8003987"><ele>738.0</ele><time>2026-05-05T10:08:42.285Z</time></trkpt><trkpt lat="45.3812345" lon="14.8002373"><ele>735.0</ele><time>2026-05-05T10:08:43.285Z</time></trkpt><trkpt lat="45.3810262" lon="14.8000698"><ele>732.0</ele><time>2026-05-05T10:08:44.285Z</time></trkpt><trkpt lat="45.3808132" lon="14.7998995"><ele>732.0</ele><time>2026-05-05T10:08:45.285Z</time></trkpt><trkpt lat="45.3806074" lon="14.7997259"><ele>732.0</ele><time>2026-05-05T10:08:46.284Z</time></trkpt><trkpt lat="45.3804002" lon="14.799555"><ele>732.0</ele><time>2026-05-05T10:08:47.284Z</time></trkpt><trkpt lat="45.3801906" lon="14.7993744"><ele>732.0</ele><time>2026-05-05T10:08:48.285Z</time></trkpt><trkpt lat="45.3799876" lon="14.7991954"><ele>732.0</ele><time>2026-05-05T10:08:49.285Z</time></trkpt><trkpt lat="45.3797858" lon="14.7990167"><ele>732.0</ele><time>2026-05-05T10:08:50.285Z</time></trkpt><trkpt lat="45.3795868" lon="14.7988336"><ele>731.5</ele><time>2026-05-05T10:08:51.284Z</time></trkpt><trkpt lat="45.3793852" lon="14.7986374"><ele>731.0</ele><time>2026-05-05T10:08:52.284Z</time></trkpt><trkpt lat="45.3791825" lon="14.7984448"><ele>731.0</ele><time>2026-05-05T10:08:53.285Z</time></trkpt><trkpt lat="45.3789821" lon="14.7982485"><ele>731.0</ele><time>2026-05-05T10:08:54.285Z</time></trkpt><trkpt lat="45.3787837" lon="14.798049"><ele>731.5</ele><time>2026-05-05T10:08:55.285Z</time></trkpt><trkpt lat="45.3785858" lon="14.7978486"><ele>732.0</ele><time>2026-05-05T10:08:56.284Z</time></trkpt><trkpt lat="45.3783908" lon="14.7976425"><ele>730.0</ele><time>2026-05-05T10:08:57.285Z</time></trkpt><trkpt lat="45.3781962" lon="14.797434"><ele>728.0</ele><time>2026-05-05T10:08:58.284Z</time></trkpt><trkpt lat="45.3780023" lon="14.7972237"><ele>728.0</ele><time>2026-05-05T10:08:59.284Z</time></trkpt><trkpt lat="45.3778095" lon="14.7970095"><ele>728.0</ele><time>2026-05-05T10:09:00.285Z</time></trkpt><trkpt lat="45.3776174" lon="14.7967913"><ele>721.5</ele><time>2026-05-05T10:09:01.284Z</time></trkpt><trkpt lat="45.3774239" lon="14.7965685"><ele>715.0</ele><time>2026-05-05T10:09:02.284Z</time></trkpt><trkpt lat="45.3772338" lon="14.7963428"><ele>714.5</ele><time>2026-05-05T10:09:03.284Z</time></trkpt><trkpt lat="45.3770456" lon="14.7961116"><ele>714.0</ele><time>2026-05-05T10:09:04.285Z</time></trkpt><trkpt lat="45.3768587" lon="14.7958766"><ele>714.0</ele><time>2026-05-05T10:09:05.284Z</time></trkpt><trkpt lat="45.3766725" lon="14.7956381"><ele>714.0</ele><time>2026-05-05T10:09:06.285Z</time></trkpt><trkpt lat="45.376492" lon="14.795397"><ele>713.0</ele><time>2026-05-05T10:09:07.285Z</time></trkpt><trkpt lat="45.3763102" lon="14.7951546"><ele>712.0</ele><time>2026-05-05T10:09:08.284Z</time></trkpt><trkpt lat="45.3761304" lon="14.7949057"><ele>712.0</ele><time>2026-05-05T10:09:09.284Z</time></trkpt><trkpt lat="45.3759532" lon="14.7946562"><ele>712.0</ele><time>2026-05-05T10:09:10.285Z</time></trkpt><trkpt lat="45.3757747" lon="14.7944042"><ele>712.5</ele><time>2026-05-05T10:09:11.285Z</time></trkpt><trkpt lat="45.3755998" lon="14.7941542"><ele>713.0</ele><time>2026-05-05T10:09:12.285Z</time></trkpt><trkpt lat="45.3754283" lon="14.7938936"><ele>712.0</ele><time>2026-05-05T10:09:13.285Z</time></trkpt><trkpt lat="45.3752592" lon="14.793632"><ele>711.0</ele><time>2026-05-05T10:09:14.285Z</time></trkpt><trkpt lat="45.3750952" lon="14.7933654"><ele>711.0</ele><time>2026-05-05T10:09:15.285Z</time></trkpt><trkpt lat="45.374932" lon="14.7930957"><ele>711.0</ele><time>2026-05-05T10:09:16.285Z</time></trkpt><trkpt lat="45.3747692" lon="14.7928265"><ele>708.0</ele><time>2026-05-05T10:09:17.285Z</time></trkpt><trkpt lat="45.3746064" lon="14.792558"><ele>705.0</ele><time>2026-05-05T10:09:18.284Z</time></trkpt><trkpt lat="45.3744443" lon="14.7922882"><ele>705.0</ele><time>2026-05-05T10:09:19.285Z</time></trkpt><trkpt lat="45.374289" lon="14.7920133"><ele>705.0</ele><time>2026-05-05T10:09:20.285Z</time></trkpt><trkpt lat="45.3741384" lon="14.7917342"><ele>704.5</ele><time>2026-05-05T10:09:21.285Z</time></trkpt><trkpt lat="45.3739901" lon="14.7914552"><ele>704.0</ele><time>2026-05-05T10:09:22.285Z</time></trkpt><trkpt lat="45.3738416" lon="14.7911741"><ele>706.5</ele><time>2026-05-05T10:09:23.285Z</time></trkpt><trkpt lat="45.3736983" lon="14.7908967"><ele>709.0</ele><time>2026-05-05T10:09:24.285Z</time></trkpt><trkpt lat="45.3735576" lon="14.7906189"><ele>709.0</ele><time>2026-05-05T10:09:25.284Z</time></trkpt><trkpt lat="45.3734211" lon="14.7903389"><ele>709.0</ele><time>2026-05-05T10:09:26.284Z</time></trkpt><trkpt lat="45.3732835" lon="14.7900589"><ele>711.5</ele><time>2026-05-05T10:09:27.284Z</time></trkpt><trkpt lat="45.3731479" lon="14.7897745"><ele>714.0</ele><time>2026-05-05T10:09:28.285Z</time></trkpt><trkpt lat="45.3730222" lon="14.7895027"><ele>712.5</ele><time>2026-05-05T10:09:29.285Z</time></trkpt><trkpt lat="45.3728895" lon="14.7892144"><ele>711.0</ele><time>2026-05-05T10:09:30.285Z</time></trkpt><trkpt lat="45.3727606" lon="14.7889244"><ele>711.0</ele><time>2026-05-05T10:09:31.284Z</time></trkpt><trkpt lat="45.3726333" lon="14.7886271"><ele>711.0</ele><time>2026-05-05T10:09:32.285Z</time></trkpt><trkpt lat="45.3725072" lon="14.788319"><ele>712.5</ele><time>2026-05-05T10:09:33.284Z</time></trkpt><trkpt lat="45.3723824" lon="14.7880139"><ele>714.0</ele><time>2026-05-05T10:09:34.285Z</time></trkpt><trkpt lat="45.3722551" lon="14.7877023"><ele>713.5</ele><time>2026-05-05T10:09:35.285Z</time></trkpt><trkpt lat="45.372124" lon="14.7873854"><ele>713.0</ele><time>2026-05-05T10:09:36.285Z</time></trkpt><trkpt lat="45.3720111" lon="14.7870731"><ele>713.5</ele><time>2026-05-05T10:09:37.284Z</time></trkpt><trkpt lat="45.3718934" lon="14.7867496"><ele>714.0</ele><time>2026-05-05T10:09:38.285Z</time></trkpt><trkpt lat="45.371776" lon="14.7864236"><ele>714.0</ele><time>2026-05-05T10:09:39.285Z</time></trkpt><trkpt lat="45.3716614" lon="14.7861029"><ele>714.0</ele><time>2026-05-05T10:09:40.284Z</time></trkpt><trkpt lat="45.371552" lon="14.7857696"><ele>713.0</ele><time>2026-05-05T10:09:41.285Z</time></trkpt><trkpt lat="45.3714484" lon="14.7854372"><ele>712.0</ele><time>2026-05-05T10:09:42.285Z</time></trkpt><trkpt lat="45.3713485" lon="14.7850913"><ele>712.0</ele><time>2026-05-05T10:09:43.285Z</time></trkpt><trkpt lat="45.3712404" lon="14.7847493"><ele>712.0</ele><time>2026-05-05T10:09:44.284Z</time></trkpt><trkpt lat="45.3711336" lon="14.7844136"><ele>711.0</ele><time>2026-05-05T10:09:45.285Z</time></trkpt><trkpt lat="45.3710372" lon="14.7840777"><ele>710.0</ele><time>2026-05-05T10:09:46.284Z</time></trkpt><trkpt lat="45.3709376" lon="14.7837343"><ele>710.0</ele><time>2026-05-05T10:09:47.284Z</time></trkpt><trkpt lat="45.3708413" lon="14.7833875"><ele>710.0</ele><time>2026-05-05T10:09:48.284Z</time></trkpt><trkpt lat="45.3707451" lon="14.7830287"><ele>709.0</ele><time>2026-05-05T10:09:49.285Z</time></trkpt><trkpt lat="45.3706507" lon="14.7826713"><ele>708.0</ele><time>2026-05-05T10:09:50.285Z</time></trkpt><trkpt lat="45.3705605" lon="14.78231"><ele>706.0</ele><time>2026-05-05T10:09:51.285Z</time></trkpt><trkpt lat="45.3704665" lon="14.7819546"><ele>704.0</ele><time>2026-05-05T10:09:52.285Z</time></trkpt><trkpt lat="45.3703811" lon="14.7816063"><ele>701.5</ele><time>2026-05-05T10:09:53.284Z</time></trkpt><trkpt lat="45.3702847" lon="14.7812517"><ele>699.0</ele><time>2026-05-05T10:09:54.284Z</time></trkpt><trkpt lat="45.3701947" lon="14.7808964"><ele>699.0</ele><time>2026-05-05T10:09:55.285Z</time></trkpt><trkpt lat="45.370108" lon="14.780543"><ele>699.0</ele><time>2026-05-05T10:09:56.284Z</time></trkpt><trkpt lat="45.3700227" lon="14.780183"><ele>699.0</ele><time>2026-05-05T10:09:57.284Z</time></trkpt><trkpt lat="45.3699321" lon="14.7798303"><ele>699.0</ele><time>2026-05-05T10:09:58.285Z</time></trkpt><trkpt lat="45.3698491" lon="14.7794735"><ele>697.5</ele><time>2026-05-05T10:09:59.284Z</time></trkpt><trkpt lat="45.3697684" lon="14.779123"><ele>696.0</ele><time>2026-05-05T10:10:00.284Z</time></trkpt><trkpt lat="45.3696762" lon="14.778776"><ele>704.5</ele><time>2026-05-05T10:10:01.285Z</time></trkpt><trkpt lat="45.3695964" lon="14.7784215"><ele>713.0</ele><time>2026-05-05T10:10:02.284Z</time></trkpt><trkpt lat="45.3695152" lon="14.7780779"><ele>713.0</ele><time>2026-05-05T10:10:03.284Z</time></trkpt><trkpt lat="45.3694302" lon="14.7777347"><ele>713.0</ele><time>2026-05-05T10:10:04.285Z</time></trkpt><trkpt lat="45.3693541" lon="14.7774063"><ele>713.5</ele><time>2026-05-05T10:10:05.285Z</time></trkpt><trkpt lat="45.3692809" lon="14.7770839"><ele>714.0</ele><time>2026-05-05T10:10:06.285Z</time></trkpt><trkpt lat="45.3692072" lon="14.7767669"><ele>714.0</ele><time>2026-05-05T10:10:07.285Z</time></trkpt><trkpt lat="45.3691367" lon="14.7764559"><ele>714.0</ele><time>2026-05-05T10:10:08.284Z</time></trkpt><trkpt lat="45.3690668" lon="14.7761604"><ele>714.0</ele><time>2026-05-05T10:10:09.285Z</time></trkpt><trkpt lat="45.3689941" lon="14.7758609"><ele>714.6666666666666</ele><time>2026-05-05T10:10:10.285Z</time></trkpt><trkpt lat="45.3689193" lon="14.7755688"><ele>715.3333333333333</ele><time>2026-05-05T10:10:11.285Z</time></trkpt><trkpt lat="45.3688429" lon="14.7752772"><ele>716.0</ele><time>2026-05-05T10:10:12.285Z</time></trkpt><trkpt lat="45.3687627" lon="14.7749881"><ele>749.0</ele><time>2026-05-05T10:10:13.285Z</time></trkpt><trkpt lat="45.3638511" lon="14.7683786"><ele>749.0</ele><time>2026-05-05T10:10:46.284Z</time></trkpt><trkpt lat="45.3636417" lon="14.7682"><ele>749.0</ele><time>2026-05-05T10:10:47.284Z</time></trkpt><trkpt lat="45.363435" lon="14.7680226"><ele>749.0</ele><time>2026-05-05T10:10:48.284Z</time></trkpt><trkpt lat="45.3632404" lon="14.7678653"><ele>749.0</ele><time>2026-05-05T10:10:49.285Z</time></trkpt><trkpt lat="45.363045" lon="14.7677039"><ele>749.5</ele><time>2026-05-05T10:10:50.284Z</time></trkpt><trkpt lat="45.3628521" lon="14.7675209"><ele>750.0</ele><time>2026-05-05T10:10:51.284Z</time></trkpt><trkpt lat="45.3626543" lon="14.767332"><ele>750.0</ele><time>2026-05-05T10:10:52.285Z</time></trkpt><trkpt lat="45.3624564" lon="14.7671545"><ele>750.0</ele><time>2026-05-05T10:10:53.284Z</time></trkpt><trkpt lat="45.3622598" lon="14.7669727"><ele>749.0</ele><time>2026-05-05T10:10:54.285Z</time></trkpt><trkpt lat="45.3620632" lon="14.766775"><ele>748.0</ele><time>2026-05-05T10:10:55.285Z</time></trkpt><trkpt lat="45.3618715" lon="14.7665821"><ele>748.0</ele><time>2026-05-05T10:10:56.285Z</time></trkpt><trkpt lat="45.3616818" lon="14.7663884"><ele>748.0</ele><time>2026-05-05T10:10:57.284Z</time></trkpt><trkpt lat="45.3614917" lon="14.7661936"><ele>746.0</ele><time>2026-05-05T10:10:58.284Z</time></trkpt><trkpt lat="45.3613066" lon="14.7660033"><ele>744.0</ele><time>2026-05-05T10:10:59.284Z</time></trkpt><trkpt lat="45.3611223" lon="14.7658046"><ele>744.0</ele><time>2026-05-05T10:11:00.284Z</time></trkpt><trkpt lat="45.3609393" lon="14.7656076"><ele>744.0</ele><time>2026-05-05T10:11:01.285Z</time></trkpt><trkpt lat="45.3607535" lon="14.7654118"><ele>744.0</ele><time>2026-05-05T10:11:02.284Z</time></trkpt><trkpt lat="45.3605718" lon="14.7652177"><ele>744.0</ele><time>2026-05-05T10:11:03.285Z</time></trkpt><trkpt lat="45.3603906" lon="14.7650278"><ele>745.5</ele><time>2026-05-05T10:11:04.285Z</time></trkpt><trkpt lat="45.3602076" lon="14.7648346"><ele>747.0</ele><time>2026-05-05T10:11:05.285Z</time></trkpt><trkpt lat="45.3600283" lon="14.7646371"><ele>747.0</ele><time>2026-05-05T10:11:06.285Z</time></trkpt><trkpt lat="45.3598437" lon="14.7644475"><ele>747.0</ele><time>2026-05-05T10:11:07.285Z</time></trkpt><trkpt lat="45.3596565" lon="14.7642598"><ele>742.5</ele><time>2026-05-05T10:11:08.285Z</time></trkpt><trkpt lat="45.3594685" lon="14.7640736"><ele>738.0</ele><time>2026-05-05T10:11:09.285Z</time></trkpt><trkpt lat="45.3592783" lon="14.7638897"><ele>738.0</ele><time>2026-05-05T10:11:10.285Z</time></trkpt><trkpt lat="45.359086" lon="14.7637062"><ele>738.0</ele><time>2026-05-05T10:11:11.285Z</time></trkpt><trkpt lat="45.358891" lon="14.7635248"><ele>732.0</ele><time>2026-05-05T10:11:12.285Z</time></trkpt><trkpt lat="45.3586925" lon="14.7633498"><ele>726.0</ele><time>2026-05-05T10:11:13.285Z</time></trkpt><trkpt lat="45.3584929" lon="14.7631776"><ele>726.0</ele><time>2026-05-05T10:11:14.285Z</time></trkpt><trkpt lat="45.3582924" lon="14.7630108"><ele>726.0</ele><time>2026-05-05T10:11:15.285Z</time></trkpt><trkpt lat="45.3580884" lon="14.7628416"><ele>726.5</ele><time>2026-05-05T10:11:16.285Z</time></trkpt><trkpt lat="45.3578859" lon="14.7626825"><ele>727.0</ele><time>2026-05-05T10:11:17.285Z</time></trkpt><trkpt lat="45.3576772" lon="14.7625229"><ele>727.0</ele><time>2026-05-05T10:11:18.284Z</time></trkpt><trkpt lat="45.3574691" lon="14.762366"><ele>727.0</ele><time>2026-05-05T10:11:19.285Z</time></trkpt><trkpt lat="45.3572603" lon="14.7622142"><ele>726.0</ele><time>2026-05-05T10:11:20.284Z</time></trkpt><trkpt lat="45.3570501" lon="14.7620667"><ele>725.0</ele><time>2026-05-05T10:11:21.285Z</time></trkpt><trkpt lat="45.356836" lon="14.7619239"><ele>724.0</ele><time>2026-05-05T10:11:22.285Z</time></trkpt><trkpt lat="45.356621" lon="14.7617836"><ele>723.0</ele><time>2026-05-05T10:11:23.284Z</time></trkpt><trkpt lat="45.3564013" lon="14.761647"><ele>723.5</ele><time>2026-05-05T10:11:24.285Z</time></trkpt><trkpt lat="45.3561814" lon="14.7615084"><ele>724.0</ele><time>2026-05-05T10:11:25.285Z</time></trkpt><trkpt lat="45.3559577" lon="14.7613761"><ele>724.0</ele><time>2026-05-05T10:11:26.285Z</time></trkpt><trkpt lat="45.355732" lon="14.7612469"><ele>724.0</ele><time>2026-05-05T10:11:27.284Z</time></trkpt><trkpt lat="45.3555035" lon="14.7611269"><ele>731.0</ele><time>2026-05-05T10:11:28.284Z</time></trkpt><trkpt lat="45.3552765" lon="14.7610094"><ele>738.0</ele><time>2026-05-05T10:11:29.285Z</time></trkpt><trkpt lat="45.355044" lon="14.7608931"><ele>738.0</ele><time>2026-05-05T10:11:30.284Z</time></trkpt><trkpt lat="45.3548123" lon="14.76078"><ele>738.0</ele><time>2026-05-05T10:11:31.284Z</time></trkpt><trkpt lat="45.3545805" lon="14.7606776"><ele>745.5</ele><time>2026-05-05T10:11:32.285Z</time></trkpt><trkpt lat="45.3543442" lon="14.7605727"><ele>753.0</ele><time>2026-05-05T10:11:33.285Z</time></trkpt><trkpt lat="45.3541089" lon="14.7604735"><ele>760.5</ele><time>2026-05-05T10:11:34.285Z</time></trkpt><trkpt lat="45.35387" lon="14.7603702"><ele>768.0</ele><time>2026-05-05T10:11:35.284Z</time></trkpt><trkpt lat="45.3536298" lon="14.7602667"><ele>755.5</ele><time>2026-05-05T10:11:36.285Z</time></trkpt><trkpt lat="45.353388" lon="14.7601619"><ele>743.0</ele><time>2026-05-05T10:11:37.285Z</time></trkpt><trkpt lat="45.3531483" lon="14.7600594"><ele>743.0</ele><time>2026-05-05T10:11:38.285Z</time></trkpt><trkpt lat="45.3529071" lon="14.7599548"><ele>743.0</ele><time>2026-05-05T10:11:39.285Z</time></trkpt><trkpt lat="45.3526701" lon="14.7598477"><ele>743.0</ele><time>2026-05-05T10:11:40.285Z</time></trkpt><trkpt lat="45.352435" lon="14.7597351"><ele>743.0</ele><time>2026-05-05T10:11:41.284Z</time></trkpt><trkpt lat="45.3522035" lon="14.7596272"><ele>746.5</ele><time>2026-05-05T10:11:42.285Z</time></trkpt><trkpt lat="45.3519725" lon="14.7595169"><ele>750.0</ele><time>2026-05-05T10:11:43.285Z</time></trkpt><trkpt lat="45.3517453" lon="14.7593899"><ele>749.5</ele><time>2026-05-05T10:11:44.285Z</time></trkpt><trkpt lat="45.3515159" lon="14.759253"><ele>749.0</ele><time>2026-05-05T10:11:45.284Z</time></trkpt><trkpt lat="45.3512759" lon="14.7591213"><ele>751.0</ele><time>2026-05-05T10:11:46.285Z</time></trkpt><trkpt lat="45.3510416" lon="14.7589646"><ele>753.0</ele><time>2026-05-05T10:11:47.284Z</time></trkpt><trkpt lat="45.3508136" lon="14.7588149"><ele>753.0</ele><time>2026-05-05T10:11:48.284Z</time></trkpt><trkpt lat="45.3505919" lon="14.758653"><ele>753.0</ele><time>2026-05-05T10:11:49.284Z</time></trkpt><trkpt lat="45.350364" lon="14.7584893"><ele>757.0</ele><time>2026-05-05T10:11:50.284Z</time></trkpt><trkpt lat="45.3501397" lon="14.7583165"><ele>761.0</ele><time>2026-05-05T10:11:51.285Z</time></trkpt><trkpt lat="45.3499186" lon="14.7581408"><ele>775.5</ele><time>2026-05-05T10:11:52.284Z</time></trkpt><trkpt lat="45.3497024" lon="14.7579645"><ele>790.0</ele><time>2026-05-05T10:11:53.284Z</time></trkpt><trkpt lat="45.349494" lon="14.7577812"><ele>781.0</ele><time>2026-05-05T10:11:54.285Z</time></trkpt><trkpt lat="45.3492876" lon="14.7575944"><ele>772.0</ele><time>2026-05-05T10:11:55.285Z</time></trkpt><trkpt lat="45.349092" lon="14.7574009"><ele>772.0</ele><time>2026-05-05T10:11:56.284Z</time></trkpt><trkpt lat="45.3488861" lon="14.7571645"><ele>772.0</ele><time>2026-05-05T10:11:57.284Z</time></trkpt><trkpt lat="45.3486988" lon="14.7569665"><ele>771.5</ele><time>2026-05-05T10:11:58.284Z</time></trkpt><trkpt lat="45.348507" lon="14.7567759"><ele>771.0</ele><time>2026-05-05T10:11:59.285Z</time></trkpt><trkpt lat="45.3483127" lon="14.7565734"><ele>771.0</ele><time>2026-05-05T10:12:00.285Z</time></trkpt><trkpt lat="45.3481294" lon="14.7563698"><ele>771.0</ele><time>2026-05-05T10:12:01.284Z</time></trkpt><trkpt lat="45.3479449" lon="14.7561475"><ele>771.0</ele><time>2026-05-05T10:12:02.285Z</time></trkpt><trkpt lat="45.3477628" lon="14.7559343"><ele>771.0</ele><time>2026-05-05T10:12:03.285Z</time></trkpt><trkpt lat="45.347589" lon="14.7557178"><ele>771.0</ele><time>2026-05-05T10:12:04.284Z</time></trkpt><trkpt lat="45.3474137" lon="14.7554866"><ele>771.0</ele><time>2026-05-05T10:12:05.285Z</time></trkpt><trkpt lat="45.347243" lon="14.7552542"><ele>774.5</ele><time>2026-05-05T10:12:06.285Z</time></trkpt><trkpt lat="45.3470775" lon="14.755027"><ele>778.0</ele><time>2026-05-05T10:12:07.285Z</time></trkpt><trkpt lat="45.3469083" lon="14.7547894"><ele>778.0</ele><time>2026-05-05T10:12:08.284Z</time></trkpt><trkpt lat="45.3467463" lon="14.7545434"><ele>778.0</ele><time>2026-05-05T10:12:09.285Z</time></trkpt><trkpt lat="45.3465868" lon="14.7542974"><ele>777.5</ele><time>2026-05-05T10:12:10.285Z</time></trkpt><trkpt lat="45.3464228" lon="14.7540446"><ele>777.0</ele><time>2026-05-05T10:12:11.285Z</time></trkpt><trkpt lat="45.3462648" lon="14.7537919"><ele>785.5</ele><time>2026-05-05T10:12:12.284Z</time></trkpt><trkpt lat="45.346108" lon="14.7535341"><ele>794.0</ele><time>2026-05-05T10:12:13.285Z</time></trkpt><trkpt lat="45.3459505" lon="14.7532847"><ele>794.0</ele><time>2026-05-05T10:12:14.284Z</time></trkpt><trkpt lat="45.3458059" lon="14.7530452"><ele>794.0</ele><time>2026-05-05T10:12:15.284Z</time></trkpt><trkpt lat="45.3456398" lon="14.752781"><ele>805.5</ele><time>2026-05-05T10:12:16.284Z</time></trkpt><trkpt lat="45.3454731" lon="14.752518"><ele>817.0</ele><time>2026-05-05T10:12:17.284Z</time></trkpt><trkpt lat="45.3401379" lon="14.7447122"><ele>817.0</ele><time>2026-05-05T10:12:47.285Z</time></trkpt><trkpt lat="45.3399465" lon="14.7444554"><ele>817.0</ele><time>2026-05-05T10:12:48.285Z</time></trkpt><trkpt lat="45.3397698" lon="14.7442026"><ele>816.5</ele><time>2026-05-05T10:12:49.284Z</time></trkpt><trkpt lat="45.3395893" lon="14.7439525"><ele>816.0</ele><time>2026-05-05T10:12:50.285Z</time></trkpt><trkpt lat="45.3394191" lon="14.7437061"><ele>812.0</ele><time>2026-05-05T10:12:51.285Z</time></trkpt><trkpt lat="45.3392491" lon="14.7434597"><ele>808.0</ele><time>2026-05-05T10:12:52.285Z</time></trkpt><trkpt lat="45.3390764" lon="14.7432161"><ele>808.0</ele><time>2026-05-05T10:12:53.285Z</time></trkpt><trkpt lat="45.3389107" lon="14.7429732"><ele>808.0</ele><time>2026-05-05T10:12:54.285Z</time></trkpt><trkpt lat="45.3387495" lon="14.7427361"><ele>809.5</ele><time>2026-05-05T10:12:55.285Z</time></trkpt><trkpt lat="45.3385868" lon="14.7424941"><ele>811.0</ele><time>2026-05-05T10:12:56.284Z</time></trkpt><trkpt lat="45.3384259" lon="14.7422555"><ele>811.0</ele><time>2026-05-05T10:12:57.285Z</time></trkpt><trkpt lat="45.3382635" lon="14.7420185"><ele>811.0</ele><time>2026-05-05T10:12:58.285Z</time></trkpt><trkpt lat="45.3381068" lon="14.7417798"><ele>810.0</ele><time>2026-05-05T10:12:59.285Z</time></trkpt><trkpt lat="45.3379475" lon="14.7415387"><ele>809.0</ele><time>2026-05-05T10:13:00.284Z</time></trkpt><trkpt lat="45.337787" lon="14.7412988"><ele>809.0</ele><time>2026-05-05T10:13:01.284Z</time></trkpt><trkpt lat="45.3376212" lon="14.7410604"><ele>809.0</ele><time>2026-05-05T10:13:02.285Z</time></trkpt><trkpt lat="45.3374541" lon="14.740822"><ele>810.5</ele><time>2026-05-05T10:13:03.284Z</time></trkpt><trkpt lat="45.3372625" lon="14.7405516"><ele>812.0</ele><time>2026-05-05T10:13:04.284Z</time></trkpt><trkpt lat="45.3370867" lon="14.7403298"><ele>812.0</ele><time>2026-05-05T10:13:05.285Z</time></trkpt><trkpt lat="45.3369065" lon="14.7401138"><ele>812.0</ele><time>2026-05-05T10:13:06.285Z</time></trkpt><trkpt lat="45.3367169" lon="14.7399088"><ele>812.0</ele><time>2026-05-05T10:13:07.285Z</time></trkpt><trkpt lat="45.336522" lon="14.7397153"><ele>812.0</ele><time>2026-05-05T10:13:08.285Z</time></trkpt><trkpt lat="45.33632" lon="14.7395298"><ele>814.0</ele><time>2026-05-05T10:13:09.285Z</time></trkpt><trkpt lat="45.3361125" lon="14.7393536"><ele>816.0</ele><time>2026-05-05T10:13:10.284Z</time></trkpt><trkpt lat="45.3359015" lon="14.7391875"><ele>816.0</ele><time>2026-05-05T10:13:11.285Z</time></trkpt><trkpt lat="45.3356866" lon="14.7390295"><ele>816.0</ele><time>2026-05-05T10:13:12.285Z</time></trkpt><trkpt lat="45.3354659" lon="14.7388784"><ele>812.5</ele><time>2026-05-05T10:13:13.285Z</time></trkpt><trkpt lat="45.3352421" lon="14.7387439"><ele>809.0</ele><time>2026-05-05T10:13:14.285Z</time></trkpt><trkpt lat="45.3350154" lon="14.7386247"><ele>811.5</ele><time>2026-05-05T10:13:15.285Z</time></trkpt><trkpt lat="45.3347841" lon="14.7385199"><ele>814.0</ele><time>2026-05-05T10:13:16.285Z</time></trkpt><trkpt lat="45.3345501" lon="14.7384275"><ele>814.5</ele><time>2026-05-05T10:13:17.285Z</time></trkpt><trkpt lat="45.3343124" lon="14.7383498"><ele>815.0</ele><time>2026-05-05T10:13:18.284Z</time></trkpt><trkpt lat="45.3340738" lon="14.7382836"><ele>814.5</ele><time>2026-05-05T10:13:19.285Z</time></trkpt><trkpt lat="45.3338356" lon="14.7382274"><ele>814.0</ele><time>2026-05-05T10:13:20.285Z</time></trkpt><trkpt lat="45.3335935" lon="14.7381855"><ele>814.0</ele><time>2026-05-05T10:13:21.284Z</time></trkpt><trkpt lat="45.3333517" lon="14.7381537"><ele>814.0</ele><time>2026-05-05T10:13:22.285Z</time></trkpt><trkpt lat="45.3331093" lon="14.7381355"><ele>810.0</ele><time>2026-05-05T10:13:23.285Z</time></trkpt><trkpt lat="45.3328653" lon="14.7381311"><ele>806.0</ele><time>2026-05-05T10:13:24.284Z</time></trkpt><trkpt lat="45.3326215" lon="14.7381428"><ele>806.0</ele><time>2026-05-05T10:13:25.284Z</time></trkpt><trkpt lat="45.3323768" lon="14.7381661"><ele>806.0</ele><time>2026-05-05T10:13:26.285Z</time></trkpt><trkpt lat="45.3321349" lon="14.7382042"><ele>805.0</ele><time>2026-05-05T10:13:27.285Z</time></trkpt><trkpt lat="45.3318935" lon="14.7382545"><ele>804.0</ele><time>2026-05-05T10:13:28.284Z</time></trkpt><trkpt lat="45.3316511" lon="14.7383113"><ele>804.0</ele><time>2026-05-05T10:13:29.285Z</time></trkpt><trkpt lat="45.3314146" lon="14.7383842"><ele>804.0</ele><time>2026-05-05T10:13:30.285Z</time></trkpt><trkpt lat="45.3311778" lon="14.7384663"><ele>801.5</ele><time>2026-05-05T10:13:31.285Z</time></trkpt><trkpt lat="45.3309407" lon="14.7385525"><ele>799.0</ele><time>2026-05-05T10:13:32.284Z</time></trkpt><trkpt lat="45.330703" lon="14.7386395"><ele>799.0</ele><time>2026-05-05T10:13:33.284Z</time></trkpt><trkpt lat="45.3304629" lon="14.73871"><ele>799.0</ele><time>2026-05-05T10:13:34.285Z</time></trkpt><trkpt lat="45.330227" lon="14.7387862"><ele>799.0</ele><time>2026-05-05T10:13:35.285Z</time></trkpt><trkpt lat="45.3299886" lon="14.7388549"><ele>799.0</ele><time>2026-05-05T10:13:36.284Z</time></trkpt><trkpt lat="45.3297518" lon="14.7389115"><ele>799.0</ele><time>2026-05-05T10:13:37.284Z</time></trkpt><trkpt lat="45.3295156" lon="14.7389568"><ele>799.0</ele><time>2026-05-05T10:13:38.285Z</time></trkpt><trkpt lat="45.3292784" lon="14.738994"><ele>799.0</ele><time>2026-05-05T10:13:39.285Z</time></trkpt><trkpt lat="45.3290413" lon="14.7390156"><ele>799.0</ele><time>2026-05-05T10:13:40.285Z</time></trkpt><trkpt lat="45.3288043" lon="14.739021"><ele>800.5</ele><time>2026-05-05T10:13:41.284Z</time></trkpt><trkpt lat="45.3285702" lon="14.7390217"><ele>802.0</ele><time>2026-05-05T10:13:42.284Z</time></trkpt><trkpt lat="45.3283395" lon="14.7389991"><ele>802.0</ele><time>2026-05-05T10:13:43.284Z</time></trkpt><trkpt lat="45.3281006" lon="14.7389628"><ele>802.0</ele><time>2026-05-05T10:13:44.285Z</time></trkpt><trkpt lat="45.3278675" lon="14.7389227"><ele>797.5</ele><time>2026-05-05T10:13:45.285Z</time></trkpt><trkpt lat="45.3276281" lon="14.7388741"><ele>793.0</ele><time>2026-05-05T10:13:46.285Z</time></trkpt><trkpt lat="45.3274019" lon="14.738812"><ele>790.5</ele><time>2026-05-05T10:13:47.284Z</time></trkpt><trkpt lat="45.3271643" lon="14.7387338"><ele>788.0</ele><time>2026-05-05T10:13:48.285Z</time></trkpt><trkpt lat="45.3269316" lon="14.7386454"><ele>789.0</ele><time>2026-05-05T10:13:49.284Z</time></trkpt><trkpt lat="45.3267072" lon="14.7385459"><ele>790.0</ele><time>2026-05-05T10:13:50.285Z</time></trkpt><trkpt lat="45.3264872" lon="14.7384234"><ele>787.5</ele><time>2026-05-05T10:13:51.285Z</time></trkpt><trkpt lat="45.3262596" lon="14.7382945"><ele>785.0</ele><time>2026-05-05T10:13:52.285Z</time></trkpt><trkpt lat="45.3260355" lon="14.73815"><ele>785.0</ele><time>2026-05-05T10:13:53.284Z</time></trkpt><trkpt lat="45.3258175" lon="14.7379903"><ele>785.0</ele><time>2026-05-05T10:13:54.285Z</time></trkpt><trkpt lat="45.3256025" lon="14.737826"><ele>786.0</ele><time>2026-05-05T10:13:55.284Z</time></trkpt><trkpt lat="45.325391" lon="14.7376554"><ele>787.0</ele><time>2026-05-05T10:13:56.285Z</time></trkpt><trkpt lat="45.3251851" lon="14.7374779"><ele>787.0</ele><time>2026-05-05T10:13:57.284Z</time></trkpt><trkpt lat="45.3249875" lon="14.7372963"><ele>787.0</ele><time>2026-05-05T10:13:58.284Z</time></trkpt><trkpt lat="45.3247918" lon="14.7371099"><ele>786.5</ele><time>2026-05-05T10:13:59.284Z</time></trkpt><trkpt lat="45.324599" lon="14.7369221"><ele>786.0</ele><time>2026-05-05T10:14:00.284Z</time></trkpt><trkpt lat="45.3244097" lon="14.7367328"><ele>786.0</ele><time>2026-05-05T10:14:01.284Z</time></trkpt><trkpt lat="45.3242218" lon="14.7365398"><ele>786.0</ele><time>2026-05-05T10:14:02.284Z</time></trkpt><trkpt lat="45.3240329" lon="14.7363371"><ele>784.5</ele><time>2026-05-05T10:14:03.284Z</time></trkpt><trkpt lat="45.3238495" lon="14.7361282"><ele>783.0</ele><time>2026-05-05T10:14:04.285Z</time></trkpt><trkpt lat="45.3236635" lon="14.7359206"><ele>783.0</ele><time>2026-05-05T10:14:05.284Z</time></trkpt><trkpt lat="45.3234873" lon="14.7357148"><ele>783.0</ele><time>2026-05-05T10:14:06.285Z</time></trkpt><trkpt lat="45.3233183" lon="14.7354918"><ele>783.0</ele><time>2026-05-05T10:14:07.284Z</time></trkpt><trkpt lat="45.3231467" lon="14.7352797"><ele>783.0</ele><time>2026-05-05T10:14:08.285Z</time></trkpt><trkpt lat="45.3229886" lon="14.7350579"><ele>783.0</ele><time>2026-05-05T10:14:09.285Z</time></trkpt><trkpt lat="45.3228344" lon="14.7348128"><ele>783.0</ele><time>2026-05-05T10:14:10.284Z</time></trkpt><trkpt lat="45.3226921" lon="14.7345645"><ele>783.0</ele><time>2026-05-05T10:14:11.284Z</time></trkpt><trkpt lat="45.3225397" lon="14.7343155"><ele>788.0</ele><time>2026-05-05T10:14:12.284Z</time></trkpt><trkpt lat="45.3223879" lon="14.7340668"><ele>793.0</ele><time>2026-05-05T10:14:13.284Z</time></trkpt><trkpt lat="45.3222481" lon="14.733792"><ele>789.6666666666666</ele><time>2026-05-05T10:14:14.285Z</time></trkpt><trkpt lat="45.3221345" lon="14.7335565"><ele>786.3333333333333</ele><time>2026-05-05T10:14:15.284Z</time></trkpt><trkpt lat="45.3220032" lon="14.7332649"><ele>783.0</ele><time>2026-05-05T10:14:16.285Z</time></trkpt><trkpt lat="45.3218782" lon="14.7329891"><ele>784.0</ele><time>2026-05-05T10:14:17.284Z</time></trkpt><trkpt lat="45.3217499" lon="14.7326898"><ele>785.0</ele><time>2026-05-05T10:14:18.285Z</time></trkpt><trkpt lat="45.3216212" lon="14.7323737"><ele>785.0</ele><time>2026-05-05T10:14:19.285Z</time></trkpt><trkpt lat="45.321492" lon="14.7320647"><ele>785.0</ele><time>2026-05-05T10:14:20.285Z</time></trkpt><trkpt lat="45.3213638" lon="14.7317537"><ele>777.5</ele><time>2026-05-05T10:14:21.284Z</time></trkpt><trkpt lat="45.3212407" lon="14.7314293"><ele>770.0</ele><time>2026-05-05T10:14:22.285Z</time></trkpt><trkpt lat="45.3211046" lon="14.731112"><ele>769.5</ele><time>2026-05-05T10:14:23.285Z</time></trkpt><trkpt lat="45.3209688" lon="14.730787"><ele>769.0</ele><time>2026-05-05T10:14:24.285Z</time></trkpt><trkpt lat="45.3208327" lon="14.7304661"><ele>767.5</ele><time>2026-05-05T10:14:25.285Z</time></trkpt><trkpt lat="45.3206868" lon="14.7301392"><ele>766.0</ele><time>2026-05-05T10:14:26.285Z</time></trkpt><trkpt lat="45.3205445" lon="14.7298125"><ele>766.0</ele><time>2026-05-05T10:14:27.284Z</time></trkpt><trkpt lat="45.3203976" lon="14.7294839"><ele>766.0</ele><time>2026-05-05T10:14:28.284Z</time></trkpt><trkpt lat="45.3202462" lon="14.7291575"><ele>766.0</ele><time>2026-05-05T10:14:29.284Z</time></trkpt><trkpt lat="45.3200899" lon="14.7288377"><ele>766.0</ele><time>2026-05-05T10:14:30.284Z</time></trkpt><trkpt lat="45.3199352" lon="14.7285221"><ele>766.0</ele><time>2026-05-05T10:14:31.285Z</time></trkpt><trkpt lat="45.3197769" lon="14.7282113"><ele>766.0</ele><time>2026-05-05T10:14:32.284Z</time></trkpt><trkpt lat="45.3196137" lon="14.727899"><ele>766.5</ele><time>2026-05-05T10:14:33.284Z</time></trkpt><trkpt lat="45.319447" lon="14.7275925"><ele>767.0</ele><time>2026-05-05T10:14:34.284Z</time></trkpt><trkpt lat="45.3192827" lon="14.7272873"><ele>767.0</ele><time>2026-05-05T10:14:35.285Z</time></trkpt><trkpt lat="45.3191185" lon="14.7269858"><ele>767.0</ele><time>2026-05-05T10:14:36.284Z</time></trkpt><trkpt lat="45.3189516" lon="14.726688"><ele>766.0</ele><time>2026-05-05T10:14:37.285Z</time></trkpt><trkpt lat="45.3187824" lon="14.7264023"><ele>765.0</ele><time>2026-05-05T10:14:38.284Z</time></trkpt><trkpt lat="45.3186097" lon="14.7261244"><ele>764.5</ele><time>2026-05-05T10:14:39.284Z</time></trkpt><trkpt lat="45.3184464" lon="14.7258427"><ele>764.0</ele><time>2026-05-05T10:14:40.284Z</time></trkpt><trkpt lat="45.3182878" lon="14.7255582"><ele>764.0</ele><time>2026-05-05T10:14:41.285Z</time></trkpt><trkpt lat="45.3181331" lon="14.7252702"><ele>764.0</ele><time>2026-05-05T10:14:42.285Z</time></trkpt><trkpt lat="45.3179807" lon="14.7249844"><ele>764.5</ele><time>2026-05-05T10:14:43.285Z</time></trkpt><trkpt lat="45.3178394" lon="14.7246879"><ele>765.0</ele><time>2026-05-05T10:14:44.285Z</time></trkpt><trkpt lat="45.3177053" lon="14.7243917"><ele>765.5</ele><time>2026-05-05T10:14:45.285Z</time></trkpt><trkpt lat="45.3175744" lon="14.7240907"><ele>766.0</ele><time>2026-05-05T10:14:46.284Z</time></trkpt><trkpt lat="45.3174485" lon="14.7237807"><ele>766.5</ele><time>2026-05-05T10:14:47.284Z</time></trkpt><trkpt lat="45.3173322" lon="14.7234805"><ele>767.0</ele><time>2026-05-05T10:14:48.285Z</time></trkpt><trkpt lat="45.317221" lon="14.7231675"><ele>767.0</ele><time>2026-05-05T10:14:49.285Z</time></trkpt><trkpt lat="45.31713" lon="14.7228521"><ele>767.0</ele><time>2026-05-05T10:14:50.285Z</time></trkpt><trkpt lat="45.3170454" lon="14.7225343"><ele>769.0</ele><time>2026-05-05T10:14:51.284Z</time></trkpt><trkpt lat="45.3169617" lon="14.7222214"><ele>771.0</ele><time>2026-05-05T10:14:52.284Z</time></trkpt><trkpt lat="45.3168851" lon="14.7219064"><ele>780.5</ele><time>2026-05-05T10:14:53.285Z</time></trkpt><trkpt lat="45.316812" lon="14.7215884"><ele>790.0</ele><time>2026-05-05T10:14:54.285Z</time></trkpt><trkpt lat="45.3167457" lon="14.7212685"><ele>772.0</ele><time>2026-05-05T10:14:55.285Z</time></trkpt><trkpt lat="45.3165212" lon="14.7174554"><ele>772.0</ele><time>2026-05-05T10:15:07.284Z</time></trkpt><trkpt lat="45.316547" lon="14.7171185"><ele>772.0</ele><time>2026-05-05T10:15:08.285Z</time></trkpt><trkpt lat="45.3165707" lon="14.7167833"><ele>770.0</ele><time>2026-05-05T10:15:09.284Z</time></trkpt><trkpt lat="45.3165957" lon="14.7164489"><ele>768.0</ele><time>2026-05-05T10:15:10.285Z</time></trkpt><trkpt lat="45.3166225" lon="14.7161107"><ele>768.0</ele><time>2026-05-05T10:15:11.285Z</time></trkpt><trkpt lat="45.3166526" lon="14.715768"><ele>768.0</ele><time>2026-05-05T10:15:12.285Z</time></trkpt><trkpt lat="45.3166844" lon="14.715428"><ele>766.0</ele><time>2026-05-05T10:15:13.285Z</time></trkpt><trkpt lat="45.3167106" lon="14.7150819"><ele>764.0</ele><time>2026-05-05T10:15:14.285Z</time></trkpt><trkpt lat="45.3167435" lon="14.7147284"><ele>761.0</ele><time>2026-05-05T10:15:15.284Z</time></trkpt><trkpt lat="45.3167683" lon="14.7143754"><ele>758.0</ele><time>2026-05-05T10:15:16.285Z</time></trkpt><trkpt lat="45.3167902" lon="14.7140169"><ele>758.0</ele><time>2026-05-05T10:15:17.285Z</time></trkpt><trkpt lat="45.316819" lon="14.7136603"><ele>758.0</ele><time>2026-05-05T10:15:18.285Z</time></trkpt><trkpt lat="45.3168325" lon="14.7133054"><ele>751.5</ele><time>2026-05-05T10:15:19.285Z</time></trkpt><trkpt lat="45.3168474" lon="14.7129503"><ele>745.0</ele><time>2026-05-05T10:15:20.285Z</time></trkpt><trkpt lat="45.3168576" lon="14.7126046"><ele>738.0</ele><time>2026-05-05T10:15:21.284Z</time></trkpt><trkpt lat="45.3168585" lon="14.7122568"><ele>731.0</ele><time>2026-05-05T10:15:22.285Z</time></trkpt><trkpt lat="45.3168594" lon="14.711909"><ele>724.5</ele><time>2026-05-05T10:15:23.285Z</time></trkpt><trkpt lat="45.3168545" lon="14.7115634"><ele>718.0</ele><time>2026-05-05T10:15:24.284Z</time></trkpt><trkpt lat="45.3168512" lon="14.7112169"><ele>716.5</ele><time>2026-05-05T10:15:25.285Z</time></trkpt><trkpt lat="45.3168455" lon="14.7108666"><ele>715.0</ele><time>2026-05-05T10:15:26.285Z</time></trkpt><trkpt lat="45.3168297" lon="14.7105227"><ele>716.0</ele><time>2026-05-05T10:15:27.285Z</time></trkpt><trkpt lat="45.3168134" lon="14.7101802"><ele>717.0</ele><time>2026-05-05T10:15:28.285Z</time></trkpt><trkpt lat="45.3167865" lon="14.7098359"><ele>717.0</ele><time>2026-05-05T10:15:29.284Z</time></trkpt><trkpt lat="45.316763" lon="14.7094877"><ele>717.0</ele><time>2026-05-05T10:15:30.285Z</time></trkpt><trkpt lat="45.3167382" lon="14.7091453"><ele>723.5</ele><time>2026-05-05T10:15:31.285Z</time></trkpt><trkpt lat="45.3167105" lon="14.7087984"><ele>730.0</ele><time>2026-05-05T10:15:32.284Z</time></trkpt><trkpt lat="45.3166779" lon="14.7084508"><ele>736.0</ele><time>2026-05-05T10:15:33.285Z</time></trkpt><trkpt lat="45.3166387" lon="14.7081023"><ele>742.0</ele><time>2026-05-05T10:15:34.285Z</time></trkpt><trkpt lat="45.3165978" lon="14.7077539"><ele>745.0</ele><time>2026-05-05T10:15:35.285Z</time></trkpt><trkpt lat="45.3165565" lon="14.7074081"><ele>748.0</ele><time>2026-05-05T10:15:36.284Z</time></trkpt><trkpt lat="45.3165171" lon="14.7070599"><ele>752.5</ele><time>2026-05-05T10:15:37.285Z</time></trkpt><trkpt lat="45.3164757" lon="14.7067133"><ele>757.0</ele><time>2026-05-05T10:15:38.284Z</time></trkpt><trkpt lat="45.316434" lon="14.7063637"><ele>766.5</ele><time>2026-05-05T10:15:39.285Z</time></trkpt><trkpt lat="45.3163922" lon="14.7060162"><ele>776.0</ele><time>2026-05-05T10:15:40.285Z</time></trkpt><trkpt lat="45.3163519" lon="14.7056701"><ele>776.0</ele><time>2026-05-05T10:15:41.285Z</time></trkpt><trkpt lat="45.3163097" lon="14.7053217"><ele>776.0</ele><time>2026-05-05T10:15:42.285Z</time></trkpt><trkpt lat="45.3162694" lon="14.7049768"><ele>775.0</ele><time>2026-05-05T10:15:43.284Z</time></trkpt><trkpt lat="45.3162256" lon="14.7046354"><ele>774.0</ele><time>2026-05-05T10:15:44.284Z</time></trkpt><trkpt lat="45.3161849" lon="14.7042884"><ele>771.0</ele><time>2026-05-05T10:15:45.285Z</time></trkpt><trkpt lat="45.3161527" lon="14.7039438"><ele>768.0</ele><time>2026-05-05T10:15:46.284Z</time></trkpt><trkpt lat="45.3161163" lon="14.703599"><ele>765.0</ele><time>2026-05-05T10:15:47.284Z</time></trkpt><trkpt lat="45.3160805" lon="14.7032597"><ele>762.0</ele><time>2026-05-05T10:15:48.284Z</time></trkpt><trkpt lat="45.3160488" lon="14.7029064"><ele>759.0</ele><time>2026-05-05T10:15:49.284Z</time></trkpt><trkpt lat="45.3160205" lon="14.7025553"><ele>756.0</ele><time>2026-05-05T10:15:50.285Z</time></trkpt><trkpt lat="45.3159963" lon="14.7022017"><ele>755.0</ele><time>2026-05-05T10:15:51.284Z</time></trkpt><trkpt lat="45.3159663" lon="14.7018597"><ele>754.0</ele><time>2026-05-05T10:15:52.284Z</time></trkpt><trkpt lat="45.3159462" lon="14.7015137"><ele>754.0</ele><time>2026-05-05T10:15:53.285Z</time></trkpt><trkpt lat="45.3159249" lon="14.7011674"><ele>754.0</ele><time>2026-05-05T10:15:54.284Z</time></trkpt><trkpt lat="45.3159049" lon="14.7008181"><ele>756.5</ele><time>2026-05-05T10:15:55.285Z</time></trkpt><trkpt lat="45.3158823" lon="14.7004719"><ele>759.0</ele><time>2026-05-05T10:15:56.285Z</time></trkpt><trkpt lat="45.3158596" lon="14.7001288"><ele>762.5</ele><time>2026-05-05T10:15:57.285Z</time></trkpt><trkpt lat="45.3158361" lon="14.699786"><ele>766.0</ele><time>2026-05-05T10:15:58.285Z</time></trkpt><trkpt lat="45.3158282" lon="14.6994392"><ele>764.5</ele><time>2026-05-05T10:15:59.285Z</time></trkpt><trkpt lat="45.3158159" lon="14.6990935"><ele>763.0</ele><time>2026-05-05T10:16:00.284Z</time></trkpt><trkpt lat="45.3158079" lon="14.6987466"><ele>760.0</ele><time>2026-05-05T10:16:01.284Z</time></trkpt><trkpt lat="45.3157985" lon="14.698398"><ele>757.0</ele><time>2026-05-05T10:16:02.284Z</time></trkpt><trkpt lat="45.3157953" lon="14.6980522"><ele>757.0</ele><time>2026-05-05T10:16:03.284Z</time></trkpt><trkpt lat="45.3157925" lon="14.6977189"><ele>757.0</ele><time>2026-05-05T10:16:04.285Z</time></trkpt><trkpt lat="45.3158003" lon="14.6973854"><ele>757.0</ele><time>2026-05-05T10:16:05.285Z</time></trkpt><trkpt lat="45.315802" lon="14.697046"><ele>757.0</ele><time>2026-05-05T10:16:06.285Z</time></trkpt><trkpt lat="45.3158048" lon="14.6967103"><ele>756.5</ele><time>2026-05-05T10:16:07.284Z</time></trkpt><trkpt lat="45.3158148" lon="14.6963709"><ele>756.0</ele><time>2026-05-05T10:16:08.285Z</time></trkpt><trkpt lat="45.315832" lon="14.6960337"><ele>756.0</ele><time>2026-05-05T10:16:09.285Z</time></trkpt><trkpt lat="45.3158573" lon="14.6956979"><ele>756.0</ele><time>2026-05-05T10:16:10.285Z</time></trkpt><trkpt lat="45.3158985" lon="14.695367"><ele>752.0</ele><time>2026-05-05T10:16:11.285Z</time></trkpt><trkpt lat="45.3159416" lon="14.6950391"><ele>748.0</ele><time>2026-05-05T10:16:12.285Z</time></trkpt><trkpt lat="45.3159897" lon="14.6947164"><ele>752.0</ele><time>2026-05-05T10:16:13.285Z</time></trkpt><trkpt lat="45.3160441" lon="14.6943971"><ele>756.0</ele><time>2026-05-05T10:16:14.285Z</time></trkpt><trkpt lat="45.316106" lon="14.6940823"><ele>756.0</ele><time>2026-05-05T10:16:15.285Z</time></trkpt><trkpt lat="45.3161839" lon="14.6937627"><ele>756.0</ele><time>2026-05-05T10:16:16.285Z</time></trkpt><trkpt lat="45.3162625" lon="14.6934531"><ele>753.0</ele><time>2026-05-05T10:16:17.285Z</time></trkpt><trkpt lat="45.3163502" lon="14.6931487"><ele>750.0</ele><time>2026-05-05T10:16:18.284Z</time></trkpt><trkpt lat="45.3164493" lon="14.6928484"><ele>748.0</ele><time>2026-05-05T10:16:19.285Z</time></trkpt><trkpt lat="45.3165505" lon="14.6925605"><ele>746.0</ele><time>2026-05-05T10:16:20.284Z</time></trkpt><trkpt lat="45.316663" lon="14.6922718"><ele>746.0</ele><time>2026-05-05T10:16:21.285Z</time></trkpt><trkpt lat="45.3167773" lon="14.6919858"><ele>746.0</ele><time>2026-05-05T10:16:22.285Z</time></trkpt><trkpt lat="45.3169042" lon="14.6917121"><ele>753.0</ele><time>2026-05-05T10:16:23.285Z</time></trkpt><trkpt lat="45.3170326" lon="14.69143"><ele>760.0</ele><time>2026-05-05T10:16:24.284Z</time></trkpt><trkpt lat="45.3171611" lon="14.691157"><ele>748.5</ele><time>2026-05-05T10:16:25.285Z</time></trkpt><trkpt lat="45.3172871" lon="14.6908817"><ele>737.0</ele><time>2026-05-05T10:16:26.285Z</time></trkpt><trkpt lat="45.3174146" lon="14.6906081"><ele>737.0</ele><time>2026-05-05T10:16:27.285Z</time></trkpt><trkpt lat="45.3175357" lon="14.6903285"><ele>737.0</ele><time>2026-05-05T10:16:28.284Z</time></trkpt><trkpt lat="45.3176497" lon="14.6900466"><ele>738.5</ele><time>2026-05-05T10:16:29.285Z</time></trkpt><trkpt lat="45.3177626" lon="14.689755"><ele>740.0</ele><time>2026-05-05T10:16:30.285Z</time></trkpt><trkpt lat="45.3178681" lon="14.6894545"><ele>743.0</ele><time>2026-05-05T10:16:31.285Z</time></trkpt><trkpt lat="45.3179627" lon="14.6891499"><ele>746.0</ele><time>2026-05-05T10:16:32.285Z</time></trkpt><trkpt lat="45.3180585" lon="14.6888353"><ele>751.0</ele><time>2026-05-05T10:16:33.285Z</time></trkpt><trkpt lat="45.3181431" lon="14.6885121"><ele>756.0</ele><time>2026-05-05T10:16:34.284Z</time></trkpt><trkpt lat="45.3182238" lon="14.6881771"><ele>756.0</ele><time>2026-05-05T10:16:35.285Z</time></trkpt><trkpt lat="45.3182961" lon="14.6878348"><ele>756.0</ele><time>2026-05-05T10:16:36.285Z</time></trkpt><trkpt lat="45.3183584" lon="14.6874853"><ele>755.5</ele><time>2026-05-05T10:16:37.285Z</time></trkpt><trkpt lat="45.3184098" lon="14.6871272"><ele>755.0</ele><time>2026-05-05T10:16:38.285Z</time></trkpt><trkpt lat="45.3184495" lon="14.6867686"><ele>753.5</ele><time>2026-05-05T10:16:39.285Z</time></trkpt><trkpt lat="45.3184833" lon="14.6864093"><ele>752.0</ele><time>2026-05-05T10:16:40.285Z</time></trkpt><trkpt lat="45.3185041" lon="14.6860517"><ele>752.0</ele><time>2026-05-05T10:16:41.285Z</time></trkpt><trkpt lat="45.3185183" lon="14.6856883"><ele>752.0</ele><time>2026-05-05T10:16:42.284Z</time></trkpt><trkpt lat="45.3185216" lon="14.6853389"><ele>750.0</ele><time>2026-05-05T10:16:43.285Z</time></trkpt><trkpt lat="45.3185214" lon="14.6849819"><ele>748.0</ele><time>2026-05-05T10:16:44.285Z</time></trkpt><trkpt lat="45.318505" lon="14.6846382"><ele>747.0</ele><time>2026-05-05T10:16:45.285Z</time></trkpt><trkpt lat="45.3184838" lon="14.6842939"><ele>746.0</ele><time>2026-05-05T10:16:46.284Z</time></trkpt><trkpt lat="45.3184697" lon="14.6839537"><ele>746.0</ele><time>2026-05-05T10:16:47.285Z</time></trkpt><trkpt lat="45.3184561" lon="14.6836141"><ele>746.0</ele><time>2026-05-05T10:16:48.284Z</time></trkpt><trkpt lat="45.3184375" lon="14.6832793"><ele>745.5</ele><time>2026-05-05T10:16:49.284Z</time></trkpt><trkpt lat="45.3184123" lon="14.6829378"><ele>745.0</ele><time>2026-05-05T10:16:50.285Z</time></trkpt><trkpt lat="45.3183964" lon="14.6826029"><ele>744.0</ele><time>2026-05-05T10:16:51.285Z</time></trkpt><trkpt lat="45.318377" lon="14.6822731"><ele>743.0</ele><time>2026-05-05T10:16:52.285Z</time></trkpt><trkpt lat="45.3183529" lon="14.6819456"><ele>745.5</ele><time>2026-05-05T10:16:53.285Z</time></trkpt><trkpt lat="45.3183334" lon="14.6816146"><ele>748.0</ele><time>2026-05-05T10:16:54.284Z</time></trkpt><trkpt lat="45.3183123" lon="14.6812927"><ele>747.5</ele><time>2026-05-05T10:16:55.285Z</time></trkpt><trkpt lat="45.3182941" lon="14.6809758"><ele>747.0</ele><time>2026-05-05T10:16:56.285Z</time></trkpt><trkpt lat="45.3182774" lon="14.6806517"><ele>747.0</ele><time>2026-05-05T10:16:57.285Z</time></trkpt><trkpt lat="45.3182584" lon="14.680326"><ele>747.0</ele><time>2026-05-05T10:16:58.285Z</time></trkpt><trkpt lat="45.3182399" lon="14.680003"><ele>743.5</ele><time>2026-05-05T10:16:59.284Z</time></trkpt><trkpt lat="45.3182217" lon="14.6796781"><ele>740.0</ele><time>2026-05-05T10:17:00.285Z</time></trkpt><trkpt lat="45.3181989" lon="14.6793526"><ele>738.0</ele><time>2026-05-05T10:17:01.284Z</time></trkpt><trkpt lat="45.318182" lon="14.6790312"><ele>736.0</ele><time>2026-05-05T10:17:02.284Z</time></trkpt><trkpt lat="45.3181703" lon="14.6787009"><ele>738.5</ele><time>2026-05-05T10:17:03.285Z</time></trkpt><trkpt lat="45.3181572" lon="14.6783712"><ele>741.0</ele><time>2026-05-05T10:17:04.285Z</time></trkpt><trkpt lat="45.3181502" lon="14.6780488"><ele>742.5</ele><time>2026-05-05T10:17:05.284Z</time></trkpt><trkpt lat="45.3181559" lon="14.6777131"><ele>744.0</ele><time>2026-05-05T10:17:06.284Z</time></trkpt><trkpt lat="45.3181642" lon="14.6773806"><ele>744.0</ele><time>2026-05-05T10:17:07.284Z</time></trkpt><trkpt lat="45.3181937" lon="14.6770407"><ele>744.0</ele><time>2026-05-05T10:17:08.285Z</time></trkpt><trkpt lat="45.318221" lon="14.6767018"><ele>743.0</ele><time>2026-05-05T10:17:09.285Z</time></trkpt><trkpt lat="45.3182577" lon="14.6763593"><ele>742.0</ele><time>2026-05-05T10:17:10.284Z</time></trkpt><trkpt lat="45.3182973" lon="14.6760173"><ele>742.0</ele><time>2026-05-05T10:17:11.285Z</time></trkpt><trkpt lat="45.3183474" lon="14.6756765"><ele>742.0</ele><time>2026-05-05T10:17:12.285Z</time></trkpt><trkpt lat="45.3184056" lon="14.6753388"><ele>743.0</ele><time>2026-05-05T10:17:13.285Z</time></trkpt><trkpt lat="45.3184697" lon="14.6750078"><ele>744.0</ele><time>2026-05-05T10:17:14.285Z</time></trkpt><trkpt lat="45.3185386" lon="14.6746742"><ele>746.0</ele><time>2026-05-05T10:17:15.285Z</time></trkpt><trkpt lat="45.3186144" lon="14.6743463"><ele>748.0</ele><time>2026-05-05T10:17:16.285Z</time></trkpt><trkpt lat="45.3186972" lon="14.6740211"><ele>748.0</ele><time>2026-05-05T10:17:17.284Z</time></trkpt><trkpt lat="45.318781" lon="14.673699"><ele>748.0</ele><time>2026-05-05T10:17:18.285Z</time></trkpt><trkpt lat="45.3188643" lon="14.6733731"><ele>744.0</ele><time>2026-05-05T10:17:19.285Z</time></trkpt><trkpt lat="45.3189446" lon="14.6730497"><ele>740.0</ele><time>2026-05-05T10:17:20.285Z</time></trkpt><trkpt lat="45.3190247" lon="14.6727263"><ele>740.0</ele><time>2026-05-05T10:17:21.285Z</time></trkpt><trkpt lat="45.3190969" lon="14.6724088"><ele>740.0</ele><time>2026-05-05T10:17:22.285Z</time></trkpt><trkpt lat="45.3191631" lon="14.6720978"><ele>740.5</ele><time>2026-05-05T10:17:23.285Z</time></trkpt><trkpt lat="45.3192321" lon="14.6717793"><ele>741.0</ele><time>2026-05-05T10:17:24.285Z</time></trkpt><trkpt lat="45.3192933" lon="14.6714568"><ele>741.0</ele><time>2026-05-05T10:17:25.284Z</time></trkpt><trkpt lat="45.3193509" lon="14.6711364"><ele>741.0</ele><time>2026-05-05T10:17:26.284Z</time></trkpt><trkpt lat="45.319407" lon="14.6708085"><ele>744.5</ele><time>2026-05-05T10:17:27.284Z</time></trkpt><trkpt lat="45.3194567" lon="14.6704842"><ele>748.0</ele><time>2026-05-05T10:17:28.285Z</time></trkpt><trkpt lat="45.3195064" lon="14.6701563"><ele>749.0</ele><time>2026-05-05T10:17:29.285Z</time></trkpt><trkpt lat="45.3195586" lon="14.6698269"><ele>750.0</ele><time>2026-05-05T10:17:30.284Z</time></trkpt><trkpt lat="45.3196139" lon="14.6695056"><ele>750.0</ele><time>2026-05-05T10:17:31.284Z</time></trkpt><trkpt lat="45.3196712" lon="14.6691807"><ele>750.0</ele><time>2026-05-05T10:17:32.284Z</time></trkpt><trkpt lat="45.319723" lon="14.6688584"><ele>744.5</ele><time>2026-05-05T10:17:33.285Z</time></trkpt><trkpt lat="45.3197876" lon="14.6685344"><ele>739.0</ele><time>2026-05-05T10:17:34.284Z</time></trkpt><trkpt lat="45.3198563" lon="14.6682158"><ele>739.0</ele><time>2026-05-05T10:17:35.285Z</time></trkpt><trkpt lat="45.3199351" lon="14.6679005"><ele>739.0</ele><time>2026-05-05T10:17:36.285Z</time></trkpt><trkpt lat="45.3200227" lon="14.6675875"><ele>740.5</ele><time>2026-05-05T10:17:37.284Z</time></trkpt><trkpt lat="45.3201109" lon="14.6672768"><ele>742.0</ele><time>2026-05-05T10:17:38.284Z</time></trkpt><trkpt lat="45.3201982" lon="14.6669838"><ele>744.0</ele><time>2026-05-05T10:17:39.284Z</time></trkpt><trkpt lat="45.3203014" lon="14.6666945"><ele>746.0</ele><time>2026-05-05T10:17:40.284Z</time></trkpt><trkpt lat="45.3204043" lon="14.6664034"><ele>746.0</ele><time>2026-05-05T10:17:41.285Z</time></trkpt><trkpt lat="45.3205205" lon="14.6661255"><ele>746.0</ele><time>2026-05-05T10:17:42.285Z</time></trkpt><trkpt lat="45.3206409" lon="14.6658498"><ele>742.5</ele><time>2026-05-05T10:17:43.285Z</time></trkpt><trkpt lat="45.320768" lon="14.6655753"><ele>739.0</ele><time>2026-05-05T10:17:44.285Z</time></trkpt><trkpt lat="45.3208978" lon="14.6653028"><ele>742.0</ele><time>2026-05-05T10:17:45.284Z</time></trkpt><trkpt lat="45.321036" lon="14.6650373"><ele>745.0</ele><time>2026-05-05T10:17:46.285Z</time></trkpt><trkpt lat="45.3211829" lon="14.664786"><ele>745.0</ele><time>2026-05-05T10:17:47.285Z</time></trkpt><trkpt lat="45.3213263" lon="14.664539"><ele>745.0</ele><time>2026-05-05T10:17:48.284Z</time></trkpt><trkpt lat="45.3214789" lon="14.6642972"><ele>741.5</ele><time>2026-05-05T10:17:49.285Z</time></trkpt><trkpt lat="45.3216342" lon="14.664054"><ele>738.0</ele><time>2026-05-05T10:17:50.284Z</time></trkpt><trkpt lat="45.3217841" lon="14.6638182"><ele>738.6666666666666</ele><time>2026-05-05T10:17:51.284Z</time></trkpt><trkpt lat="45.3219363" lon="14.6635854"><ele>739.3333333333333</ele><time>2026-05-05T10:17:52.284Z</time></trkpt><trkpt lat="45.3220871" lon="14.6633533"><ele>740.0</ele><time>2026-05-05T10:17:53.284Z</time></trkpt><trkpt lat="45.3222364" lon="14.6631206"><ele>740.0</ele><time>2026-05-05T10:17:54.285Z</time></trkpt><trkpt lat="45.322387" lon="14.6628814"><ele>740.0</ele><time>2026-05-05T10:17:55.285Z</time></trkpt><trkpt lat="45.3225372" lon="14.6626447"><ele>739.5</ele><time>2026-05-05T10:17:56.284Z</time></trkpt><trkpt lat="45.3226875" lon="14.6624025"><ele>739.0</ele><time>2026-05-05T10:17:57.284Z</time></trkpt><trkpt lat="45.3228354" lon="14.6621614"><ele>739.5</ele><time>2026-05-05T10:17:58.284Z</time></trkpt><trkpt lat="45.3229887" lon="14.6619143"><ele>740.0</ele><time>2026-05-05T10:17:59.284Z</time></trkpt><trkpt lat="45.3231465" lon="14.6616711"><ele>739.0</ele><time>2026-05-05T10:18:00.285Z</time></trkpt><trkpt lat="45.3232992" lon="14.6614167"><ele>738.0</ele><time>2026-05-05T10:18:01.285Z</time></trkpt><trkpt lat="45.3234512" lon="14.6611802"><ele>738.5</ele><time>2026-05-05T10:18:02.284Z</time></trkpt><trkpt lat="45.3236114" lon="14.6609435"><ele>739.0</ele><time>2026-05-05T10:18:03.285Z</time></trkpt><trkpt lat="45.3237677" lon="14.6606918"><ele>739.5</ele><time>2026-05-05T10:18:04.285Z</time></trkpt><trkpt lat="45.3239212" lon="14.6604488"><ele>740.0</ele><time>2026-05-05T10:18:05.284Z</time></trkpt><trkpt lat="45.3240791" lon="14.6601949"><ele>741.0</ele><time>2026-05-05T10:18:06.285Z</time></trkpt><trkpt lat="45.3242379" lon="14.6599383"><ele>742.0</ele><time>2026-05-05T10:18:07.285Z</time></trkpt><trkpt lat="45.3243934" lon="14.6596739"><ele>742.5</ele><time>2026-05-05T10:18:08.284Z</time></trkpt><trkpt lat="45.3245504" lon="14.6594154"><ele>743.0</ele><time>2026-05-05T10:18:09.284Z</time></trkpt><trkpt lat="45.3246976" lon="14.6591545"><ele>742.5</ele><time>2026-05-05T10:18:10.285Z</time></trkpt><trkpt lat="45.3248376" lon="14.6588828"><ele>742.0</ele><time>2026-05-05T10:18:11.284Z</time></trkpt><trkpt lat="45.3249676" lon="14.6586096"><ele>742.0</ele><time>2026-05-05T10:18:12.284Z</time></trkpt><trkpt lat="45.3250899" lon="14.6583319"><ele>742.0</ele><time>2026-05-05T10:18:13.285Z</time></trkpt><trkpt lat="45.3252007" lon="14.6580479"><ele>743.0</ele><time>2026-05-05T10:18:14.284Z</time></trkpt><trkpt lat="45.3253204" lon="14.657751"><ele>744.0</ele><time>2026-05-05T10:18:15.285Z</time></trkpt><trkpt lat="45.3254272" lon="14.6574574"><ele>744.0</ele><time>2026-05-05T10:18:16.285Z</time></trkpt><trkpt lat="45.3255263" lon="14.6571584"><ele>744.0</ele><time>2026-05-05T10:18:17.285Z</time></trkpt><trkpt lat="45.3256167" lon="14.6568564"><ele>741.5</ele><time>2026-05-05T10:18:18.284Z</time></trkpt><trkpt lat="45.3257106" lon="14.6565452"><ele>739.0</ele><time>2026-05-05T10:18:19.285Z</time></trkpt><trkpt lat="45.3257803" lon="14.656232"><ele>741.3333333333334</ele><time>2026-05-05T10:18:20.284Z</time></trkpt><trkpt lat="45.3258413" lon="14.6559302"><ele>743.6666666666666</ele><time>2026-05-05T10:18:21.285Z</time></trkpt><trkpt lat="45.3258918" lon="14.6556297"><ele>746.0</ele><time>2026-05-05T10:18:22.285Z</time></trkpt><trkpt lat="45.3259403" lon="14.6553203"><ele>749.0</ele><time>2026-05-05T10:18:23.285Z</time></trkpt><trkpt lat="45.3259724" lon="14.655007"><ele>752.0</ele><time>2026-05-05T10:18:24.285Z</time></trkpt><trkpt lat="45.3260079" lon="14.6546979"><ele>755.0</ele><time>2026-05-05T10:18:25.285Z</time></trkpt><trkpt lat="45.3260345" lon="14.6543882"><ele>764.0</ele><time>2026-05-05T10:18:26.285Z</time></trkpt><trkpt lat="45.3260535" lon="14.6540779"><ele>773.0</ele><time>2026-05-05T10:18:27.285Z</time></trkpt><trkpt lat="45.3221237" lon="14.6277958"><ele>760.3333333333334</ele><time>2026-05-05T10:19:54.285Z</time></trkpt><trkpt lat="45.3221944" lon="14.6274891"><ele>747.6666666666667</ele><time>2026-05-05T10:19:55.284Z</time></trkpt><trkpt lat="45.3222719" lon="14.6271936"><ele>735.0</ele><time>2026-05-05T10:19:56.285Z</time></trkpt><trkpt lat="45.3223625" lon="14.6268763"><ele>730.5</ele><time>2026-05-05T10:19:57.285Z</time></trkpt><trkpt lat="45.3224582" lon="14.6265633"><ele>726.0</ele><time>2026-05-05T10:19:58.284Z</time></trkpt><trkpt lat="45.3225546" lon="14.6262499"><ele>721.5</ele><time>2026-05-05T10:19:59.285Z</time></trkpt><trkpt lat="45.3226619" lon="14.6259352"><ele>717.0</ele><time>2026-05-05T10:20:00.285Z</time></trkpt><trkpt lat="45.3227715" lon="14.6256403"><ele>717.0</ele><time>2026-05-05T10:20:01.284Z</time></trkpt><trkpt lat="45.3228882" lon="14.6253371"><ele>717.0</ele><time>2026-05-05T10:20:02.285Z</time></trkpt><trkpt lat="45.3230101" lon="14.6250362"><ele>719.0</ele><time>2026-05-05T10:20:03.284Z</time></trkpt><trkpt lat="45.323145" lon="14.6247465"><ele>721.0</ele><time>2026-05-05T10:20:04.284Z</time></trkpt><trkpt lat="45.3232836" lon="14.6244607"><ele>715.5</ele><time>2026-05-05T10:20:05.285Z</time></trkpt><trkpt lat="45.3234211" lon="14.6241716"><ele>710.0</ele><time>2026-05-05T10:20:06.284Z</time></trkpt><trkpt lat="45.3235642" lon="14.6238883"><ele>707.0</ele><time>2026-05-05T10:20:07.285Z</time></trkpt><trkpt lat="45.3237127" lon="14.6236083"><ele>704.0</ele><time>2026-05-05T10:20:08.284Z</time></trkpt><trkpt lat="45.323865" lon="14.6233345"><ele>710.0</ele><time>2026-05-05T10:20:09.285Z</time></trkpt><trkpt lat="45.3240232" lon="14.6230634"><ele>716.0</ele><time>2026-05-05T10:20:10.284Z</time></trkpt><trkpt lat="45.3241863" lon="14.6228017"><ele>716.0</ele><time>2026-05-05T10:20:11.285Z</time></trkpt><trkpt lat="45.3243585" lon="14.622548"><ele>716.0</ele><time>2026-05-05T10:20:12.284Z</time></trkpt><trkpt lat="45.3245337" lon="14.6223034"><ele>716.0</ele><time>2026-05-05T10:20:13.285Z</time></trkpt><trkpt lat="45.3247057" lon="14.6220675"><ele>716.0</ele><time>2026-05-05T10:20:14.285Z</time></trkpt><trkpt lat="45.3248923" lon="14.621837"><ele>716.5</ele><time>2026-05-05T10:20:15.285Z</time></trkpt><trkpt lat="45.3250749" lon="14.6216075"><ele>717.0</ele><time>2026-05-05T10:20:16.285Z</time></trkpt><trkpt lat="45.3252653" lon="14.6213839"><ele>717.0</ele><time>2026-05-05T10:20:17.284Z</time></trkpt><trkpt lat="45.3254569" lon="14.6211642"><ele>717.0</ele><time>2026-05-05T10:20:18.285Z</time></trkpt><trkpt lat="45.3256472" lon="14.6209465"><ele>716.5</ele><time>2026-05-05T10:20:19.285Z</time></trkpt><trkpt lat="45.3258427" lon="14.6207343"><ele>716.0</ele><time>2026-05-05T10:20:20.285Z</time></trkpt><trkpt lat="45.3260365" lon="14.6205247"><ele>710.0</ele><time>2026-05-05T10:20:21.285Z</time></trkpt><trkpt lat="45.3262312" lon="14.6203142"><ele>704.0</ele><time>2026-05-05T10:20:22.284Z</time></trkpt><trkpt lat="45.3264242" lon="14.620101"><ele>704.0</ele><time>2026-05-05T10:20:23.284Z</time></trkpt><trkpt lat="45.3266154" lon="14.6198831"><ele>704.0</ele><time>2026-05-05T10:20:24.285Z</time></trkpt><trkpt lat="45.3268019" lon="14.6196548"><ele>691.5</ele><time>2026-05-05T10:20:25.285Z</time></trkpt><trkpt lat="45.3269783" lon="14.6194164"><ele>679.0</ele><time>2026-05-05T10:20:26.284Z</time></trkpt><trkpt lat="45.3271534" lon="14.6191638"><ele>680.0</ele><time>2026-05-05T10:20:27.285Z</time></trkpt><trkpt lat="45.3273212" lon="14.6189006"><ele>681.0</ele><time>2026-05-05T10:20:28.284Z</time></trkpt><trkpt lat="45.3274855" lon="14.6186236"><ele>671.0</ele><time>2026-05-05T10:20:29.285Z</time></trkpt><trkpt lat="45.327641" lon="14.6183378"><ele>661.0</ele><time>2026-05-05T10:20:30.285Z</time></trkpt><trkpt lat="45.3277911" lon="14.6180431"><ele>661.5</ele><time>2026-05-05T10:20:31.285Z</time></trkpt><trkpt lat="45.327931" lon="14.617739"><ele>662.0</ele><time>2026-05-05T10:20:32.284Z</time></trkpt><trkpt lat="45.328062" lon="14.6174256"><ele>662.0</ele><time>2026-05-05T10:20:33.285Z</time></trkpt><trkpt lat="45.3281846" lon="14.6171049"><ele>662.0</ele><time>2026-05-05T10:20:34.285Z</time></trkpt><trkpt lat="45.3282991" lon="14.6167764"><ele>657.0</ele><time>2026-05-05T10:20:35.284Z</time></trkpt><trkpt lat="45.3284048" lon="14.6164438"><ele>652.0</ele><time>2026-05-05T10:20:36.285Z</time></trkpt><trkpt lat="45.3284985" lon="14.6161073"><ele>652.0</ele><time>2026-05-05T10:20:37.284Z</time></trkpt><trkpt lat="45.3285859" lon="14.6157657"><ele>652.0</ele><time>2026-05-05T10:20:38.285Z</time></trkpt><trkpt lat="45.3286623" lon="14.6154167"><ele>655.0</ele><time>2026-05-05T10:20:39.285Z</time></trkpt><trkpt lat="45.3287279" lon="14.6150682"><ele>658.0</ele><time>2026-05-05T10:20:40.285Z</time></trkpt><trkpt lat="45.3287823" lon="14.6147178"><ele>662.5</ele><time>2026-05-05T10:20:41.285Z</time></trkpt><trkpt lat="45.3288282" lon="14.6143651"><ele>667.0</ele><time>2026-05-05T10:20:42.285Z</time></trkpt><trkpt lat="45.3288663" lon="14.6140099"><ele>674.5</ele><time>2026-05-05T10:20:43.284Z</time></trkpt><trkpt lat="45.3288935" lon="14.6136558"><ele>682.0</ele><time>2026-05-05T10:20:44.285Z</time></trkpt><trkpt lat="45.3289136" lon="14.6133001"><ele>684.5</ele><time>2026-05-05T10:20:45.285Z</time></trkpt><trkpt lat="45.3289206" lon="14.6129438"><ele>687.0</ele><time>2026-05-05T10:20:46.285Z</time></trkpt><trkpt lat="45.3289218" lon="14.6125866"><ele>688.5</ele><time>2026-05-05T10:20:47.284Z</time></trkpt><trkpt lat="45.3289193" lon="14.6122266"><ele>690.0</ele><time>2026-05-05T10:20:48.284Z</time></trkpt><trkpt lat="45.3289129" lon="14.6118694"><ele>690.0</ele><time>2026-05-05T10:20:49.284Z</time></trkpt><trkpt lat="45.3289049" lon="14.611513"><ele>690.0</ele><time>2026-05-05T10:20:50.285Z</time></trkpt><trkpt lat="45.3288953" lon="14.6111586"><ele>685.5</ele><time>2026-05-05T10:20:51.285Z</time></trkpt><trkpt lat="45.3288904" lon="14.6108023"><ele>681.0</ele><time>2026-05-05T10:20:52.285Z</time></trkpt><trkpt lat="45.3288853" lon="14.6104489"><ele>682.0</ele><time>2026-05-05T10:20:53.285Z</time></trkpt><trkpt lat="45.3288886" lon="14.6100974"><ele>683.0</ele><time>2026-05-05T10:20:54.284Z</time></trkpt><trkpt lat="45.3288968" lon="14.6097478"><ele>684.5</ele><time>2026-05-05T10:20:55.284Z</time></trkpt><trkpt lat="45.3289153" lon="14.6093986"><ele>686.0</ele><time>2026-05-05T10:20:56.284Z</time></trkpt><trkpt lat="45.3289365" lon="14.6090539"><ele>686.0</ele><time>2026-05-05T10:20:57.284Z</time></trkpt><trkpt lat="45.3289675" lon="14.6087158"><ele>686.0</ele><time>2026-05-05T10:20:58.285Z</time></trkpt><trkpt lat="45.3289985" lon="14.6083795"><ele>689.5</ele><time>2026-05-05T10:20:59.284Z</time></trkpt><trkpt lat="45.3290355" lon="14.6080449"><ele>693.0</ele><time>2026-05-05T10:21:00.285Z</time></trkpt><trkpt lat="45.3298107" lon="14.6044137"><ele>679.0</ele><time>2026-05-05T10:21:11.285Z</time></trkpt><trkpt lat="45.3299042" lon="14.6040894"><ele>665.0</ele><time>2026-05-05T10:21:12.284Z</time></trkpt><trkpt lat="45.329987" lon="14.6037765"><ele>659.5</ele><time>2026-05-05T10:21:13.284Z</time></trkpt><trkpt lat="45.330066" lon="14.603455"><ele>654.0</ele><time>2026-05-05T10:21:14.284Z</time></trkpt><trkpt lat="45.330152" lon="14.6031297"><ele>649.5</ele><time>2026-05-05T10:21:15.284Z</time></trkpt><trkpt lat="45.3302407" lon="14.6028032"><ele>645.0</ele><time>2026-05-05T10:21:16.285Z</time></trkpt><trkpt lat="45.3303269" lon="14.6024834"><ele>645.0</ele><time>2026-05-05T10:21:17.285Z</time></trkpt><trkpt lat="45.3304189" lon="14.6021585"><ele>645.0</ele><time>2026-05-05T10:21:18.285Z</time></trkpt><trkpt lat="45.3305117" lon="14.6018335"><ele>654.5</ele><time>2026-05-05T10:21:19.284Z</time></trkpt><trkpt lat="45.3306126" lon="14.6015099"><ele>664.0</ele><time>2026-05-05T10:21:20.285Z</time></trkpt><trkpt lat="45.3307184" lon="14.6011952"><ele>658.0</ele><time>2026-05-05T10:21:21.285Z</time></trkpt><trkpt lat="45.3308296" lon="14.60089"><ele>652.0</ele><time>2026-05-05T10:21:22.284Z</time></trkpt><trkpt lat="45.3309605" lon="14.600581"><ele>645.5</ele><time>2026-05-05T10:21:23.285Z</time></trkpt><trkpt lat="45.3310976" lon="14.6002779"><ele>639.0</ele><time>2026-05-05T10:21:24.285Z</time></trkpt><trkpt lat="45.3312416" lon="14.5999854"><ele>641.5</ele><time>2026-05-05T10:21:25.285Z</time></trkpt><trkpt lat="45.3313929" lon="14.5996969"><ele>644.0</ele><time>2026-05-05T10:21:26.284Z</time></trkpt><trkpt lat="45.3315548" lon="14.5994192"><ele>644.0</ele><time>2026-05-05T10:21:27.285Z</time></trkpt><trkpt lat="45.3317208" lon="14.5991558"><ele>644.0</ele><time>2026-05-05T10:21:28.284Z</time></trkpt><trkpt lat="45.3318973" lon="14.5988947"><ele>646.5</ele><time>2026-05-05T10:21:29.285Z</time></trkpt><trkpt lat="45.3320866" lon="14.5986417"><ele>649.0</ele><time>2026-05-05T10:21:30.285Z</time></trkpt><trkpt lat="45.3322824" lon="14.598398"><ele>649.0</ele><time>2026-05-05T10:21:31.285Z</time></trkpt><trkpt lat="45.3324865" lon="14.5981723"><ele>649.0</ele><time>2026-05-05T10:21:32.284Z</time></trkpt><trkpt lat="45.3326971" lon="14.5979585"><ele>644.5</ele><time>2026-05-05T10:21:33.285Z</time></trkpt><trkpt lat="45.3329098" lon="14.597751"><ele>640.0</ele><time>2026-05-05T10:21:34.285Z</time></trkpt><trkpt lat="45.3331304" lon="14.5975602"><ele>640.0</ele><time>2026-05-05T10:21:35.285Z</time></trkpt><trkpt lat="45.3333564" lon="14.5973792"><ele>640.0</ele><time>2026-05-05T10:21:36.285Z</time></trkpt><trkpt lat="45.3335864" lon="14.5972134"><ele>640.0</ele><time>2026-05-05T10:21:37.284Z</time></trkpt><trkpt lat="45.3338199" lon="14.5970619"><ele>640.0</ele><time>2026-05-05T10:21:38.284Z</time></trkpt><trkpt lat="45.3340609" lon="14.596918"><ele>637.5</ele><time>2026-05-05T10:21:39.285Z</time></trkpt><trkpt lat="45.3343001" lon="14.5967831"><ele>635.0</ele><time>2026-05-05T10:21:40.285Z</time></trkpt><trkpt lat="45.3345394" lon="14.5966603"><ele>631.5</ele><time>2026-05-05T10:21:41.284Z</time></trkpt><trkpt lat="45.3347843" lon="14.5965381"><ele>628.0</ele><time>2026-05-05T10:21:42.285Z</time></trkpt><trkpt lat="45.3350272" lon="14.596411"><ele>628.0</ele><time>2026-05-05T10:21:43.285Z</time></trkpt><trkpt lat="45.3352697" lon="14.5962797"><ele>628.0</ele><time>2026-05-05T10:21:44.285Z</time></trkpt><trkpt lat="45.3355091" lon="14.5961507"><ele>624.0</ele><time>2026-05-05T10:21:45.285Z</time></trkpt><trkpt lat="45.3357439" lon="14.5960219"><ele>620.0</ele><time>2026-05-05T10:21:46.285Z</time></trkpt><trkpt lat="45.3359782" lon="14.5958915"><ele>620.0</ele><time>2026-05-05T10:21:47.284Z</time></trkpt><trkpt lat="45.3362045" lon="14.5957692"><ele>620.0</ele><time>2026-05-05T10:21:48.285Z</time></trkpt><trkpt lat="45.3364386" lon="14.5956481"><ele>620.0</ele><time>2026-05-05T10:21:49.285Z</time></trkpt><trkpt lat="45.3366722" lon="14.5955271"><ele>620.0</ele><time>2026-05-05T10:21:50.285Z</time></trkpt><trkpt lat="45.3368848" lon="14.5954078"><ele>615.5</ele><time>2026-05-05T10:21:51.285Z</time></trkpt><trkpt lat="45.3370959" lon="14.5952892"><ele>611.0</ele><time>2026-05-05T10:21:52.285Z</time></trkpt><trkpt lat="45.3373071" lon="14.5951634"><ele>611.0</ele><time>2026-05-05T10:21:53.284Z</time></trkpt><trkpt lat="45.3375247" lon="14.5950431"><ele>611.0</ele><time>2026-05-05T10:21:54.285Z</time></trkpt><trkpt lat="45.337747" lon="14.5949254"><ele>611.0</ele><time>2026-05-05T10:21:55.285Z</time></trkpt><trkpt lat="45.3379738" lon="14.5948098"><ele>611.0</ele><time>2026-05-05T10:21:56.285Z</time></trkpt><trkpt lat="45.3381919" lon="14.5946987"><ele>608.0</ele><time>2026-05-05T10:21:57.285Z</time></trkpt><trkpt lat="45.3384098" lon="14.5945868"><ele>605.0</ele><time>2026-05-05T10:21:58.285Z</time></trkpt><trkpt lat="45.338627" lon="14.5944677"><ele>605.0</ele><time>2026-05-05T10:21:59.285Z</time></trkpt><trkpt lat="45.3388442" lon="14.5943513"><ele>605.0</ele><time>2026-05-05T10:22:00.285Z</time></trkpt><trkpt lat="45.3390579" lon="14.5942392"><ele>606.0</ele><time>2026-05-05T10:22:01.285Z</time></trkpt><trkpt lat="45.3392992" lon="14.5941541"><ele>607.0</ele><time>2026-05-05T10:22:02.284Z</time></trkpt><trkpt lat="45.3395267" lon="14.5940545"><ele>609.0</ele><time>2026-05-05T10:22:03.285Z</time></trkpt><trkpt lat="45.3397494" lon="14.5939585"><ele>611.0</ele><time>2026-05-05T10:22:04.284Z</time></trkpt><trkpt lat="45.339993" lon="14.5938651"><ele>611.0</ele><time>2026-05-05T10:22:05.285Z</time></trkpt><trkpt lat="45.3402042" lon="14.5937893"><ele>611.0</ele><time>2026-05-05T10:22:06.285Z</time></trkpt><trkpt lat="45.3404454" lon="14.5937268"><ele>617.0</ele><time>2026-05-05T10:22:07.284Z</time></trkpt><trkpt lat="45.3406748" lon="14.5936763"><ele>623.0</ele><time>2026-05-05T10:22:08.284Z</time></trkpt><trkpt lat="45.3409225" lon="14.5936486"><ele>611.0</ele><time>2026-05-05T10:22:09.285Z</time></trkpt><trkpt lat="45.3411653" lon="14.5936442"><ele>599.0</ele><time>2026-05-05T10:22:10.285Z</time></trkpt><trkpt lat="45.3414111" lon="14.5936549"><ele>596.0</ele><time>2026-05-05T10:22:11.284Z</time></trkpt><trkpt lat="45.3416443" lon="14.5936504"><ele>593.0</ele><time>2026-05-05T10:22:12.285Z</time></trkpt><trkpt lat="45.341881" lon="14.5936682"><ele>596.6666666666666</ele><time>2026-05-05T10:22:13.285Z</time></trkpt><trkpt lat="45.3421048" lon="14.5936881"><ele>600.3333333333334</ele><time>2026-05-05T10:22:14.284Z</time></trkpt><trkpt lat="45.3422992" lon="14.5937053"><ele>604.0</ele><time>2026-05-05T10:22:15.284Z</time></trkpt><trkpt lat="45.3425271" lon="14.5937248"><ele>604.0</ele><time>2026-05-05T10:22:16.284Z</time></trkpt><trkpt lat="45.3427567" lon="14.5937431"><ele>604.0</ele><time>2026-05-05T10:22:17.285Z</time></trkpt><trkpt lat="45.3430349" lon="14.5938226"><ele>600.0</ele><time>2026-05-05T10:22:18.284Z</time></trkpt><trkpt lat="45.3432682" lon="14.5938406"><ele>596.0</ele><time>2026-05-05T10:22:19.285Z</time></trkpt><trkpt lat="45.3434978" lon="14.5938565"><ele>596.0</ele><time>2026-05-05T10:22:20.285Z</time></trkpt><trkpt lat="45.3437301" lon="14.5938672"><ele>596.0</ele><time>2026-05-05T10:22:21.284Z</time></trkpt><trkpt lat="45.3439672" lon="14.5938691"><ele>590.5</ele><time>2026-05-05T10:22:22.285Z</time></trkpt><trkpt lat="45.3442002" lon="14.5938573"><ele>585.0</ele><time>2026-05-05T10:22:23.285Z</time></trkpt><trkpt lat="45.3444373" lon="14.5938402"><ele>585.0</ele><time>2026-05-05T10:22:24.285Z</time></trkpt><trkpt lat="45.3446794" lon="14.593809"><ele>585.0</ele><time>2026-05-05T10:22:25.285Z</time></trkpt><trkpt lat="45.3449128" lon="14.5937656"><ele>580.5</ele><time>2026-05-05T10:22:26.285Z</time></trkpt><trkpt lat="45.3451534" lon="14.5937072"><ele>576.0</ele><time>2026-05-05T10:22:27.284Z</time></trkpt><trkpt lat="45.3453853" lon="14.5936355"><ele>572.5</ele><time>2026-05-05T10:22:28.284Z</time></trkpt><trkpt lat="45.3456156" lon="14.5935541"><ele>569.0</ele><time>2026-05-05T10:22:29.284Z</time></trkpt><trkpt lat="45.3458403" lon="14.5934614"><ele>569.0</ele><time>2026-05-05T10:22:30.284Z</time></trkpt><trkpt lat="45.3460685" lon="14.5933512"><ele>569.0</ele><time>2026-05-05T10:22:31.285Z</time></trkpt><trkpt lat="45.3462852" lon="14.5932191"><ele>566.5</ele><time>2026-05-05T10:22:32.285Z</time></trkpt><trkpt lat="45.346498" lon="14.593075"><ele>564.0</ele><time>2026-05-05T10:22:33.284Z</time></trkpt><trkpt lat="45.3467019" lon="14.5929128"><ele>557.5</ele><time>2026-05-05T10:22:34.285Z</time></trkpt><trkpt lat="45.346908" lon="14.5927548"><ele>551.0</ele><time>2026-05-05T10:22:35.285Z</time></trkpt><trkpt lat="45.3471099" lon="14.5925967"><ele>550.5</ele><time>2026-05-05T10:22:36.284Z</time></trkpt><trkpt lat="45.3473048" lon="14.5924244"><ele>550.0</ele><time>2026-05-05T10:22:37.284Z</time></trkpt><trkpt lat="45.3474988" lon="14.5922497"><ele>550.0</ele><time>2026-05-05T10:22:38.284Z</time></trkpt><trkpt lat="45.3476906" lon="14.5920597"><ele>550.0</ele><time>2026-05-05T10:22:39.285Z</time></trkpt><trkpt lat="45.3478762" lon="14.5918635"><ele>549.5</ele><time>2026-05-05T10:22:40.285Z</time></trkpt><trkpt lat="45.3480542" lon="14.5916522"><ele>549.0</ele><time>2026-05-05T10:22:41.285Z</time></trkpt><trkpt lat="45.3482264" lon="14.5914351"><ele>549.0</ele><time>2026-05-05T10:22:42.285Z</time></trkpt><trkpt lat="45.3483927" lon="14.5912081"><ele>549.0</ele><time>2026-05-05T10:22:43.284Z</time></trkpt><trkpt lat="45.348553" lon="14.5909751"><ele>547.0</ele><time>2026-05-05T10:22:44.285Z</time></trkpt><trkpt lat="45.3487122" lon="14.590735"><ele>545.0</ele><time>2026-05-05T10:22:45.285Z</time></trkpt><trkpt lat="45.3488733" lon="14.5904666"><ele>554.0</ele><time>2026-05-05T10:22:46.285Z</time></trkpt><trkpt lat="45.3490159" lon="14.5902145"><ele>563.0</ele><time>2026-05-05T10:22:47.284Z</time></trkpt><trkpt lat="45.3491484" lon="14.5899567"><ele>563.0</ele><time>2026-05-05T10:22:48.285Z</time></trkpt><trkpt lat="45.3492789" lon="14.5896873"><ele>563.0</ele><time>2026-05-05T10:22:49.284Z</time></trkpt><trkpt lat="45.3493996" lon="14.5894212"><ele>561.5</ele><time>2026-05-05T10:22:50.285Z</time></trkpt><trkpt lat="45.349515" lon="14.5891405"><ele>560.0</ele><time>2026-05-05T10:22:51.285Z</time></trkpt><trkpt lat="45.3496233" lon="14.5888551"><ele>566.5</ele><time>2026-05-05T10:22:52.285Z</time></trkpt><trkpt lat="45.3497186" lon="14.5885642"><ele>573.0</ele><time>2026-05-05T10:22:53.285Z</time></trkpt><trkpt lat="45.349809" lon="14.5882683"><ele>573.0</ele><time>2026-05-05T10:22:54.285Z</time></trkpt><trkpt lat="45.3498966" lon="14.5879807"><ele>573.0</ele><time>2026-05-05T10:22:55.285Z</time></trkpt><trkpt lat="45.3499861" lon="14.5876831"><ele>573.0</ele><time>2026-05-05T10:22:56.285Z</time></trkpt><trkpt lat="45.3500807" lon="14.5873756"><ele>568.0</ele><time>2026-05-05T10:22:57.285Z</time></trkpt><trkpt lat="45.3501652" lon="14.5870869"><ele>563.0</ele><time>2026-05-05T10:22:58.285Z</time></trkpt><trkpt lat="45.3502731" lon="14.5867786"><ele>559.0</ele><time>2026-05-05T10:22:59.285Z</time></trkpt><trkpt lat="45.3503691" lon="14.586479"><ele>555.0</ele><time>2026-05-05T10:23:00.285Z</time></trkpt><trkpt lat="45.350477" lon="14.5861814"><ele>562.0</ele><time>2026-05-05T10:23:01.284Z</time></trkpt><trkpt lat="45.3505855" lon="14.5858957"><ele>569.0</ele><time>2026-05-05T10:23:02.285Z</time></trkpt><trkpt lat="45.3507364" lon="14.5856"><ele>561.5</ele><time>2026-05-05T10:23:03.284Z</time></trkpt><trkpt lat="45.3509079" lon="14.5853291"><ele>554.0</ele><time>2026-05-05T10:23:04.284Z</time></trkpt><trkpt lat="45.3510405" lon="14.5850491"><ele>554.0</ele><time>2026-05-05T10:23:05.284Z</time></trkpt><trkpt lat="45.3511795" lon="14.5847848"><ele>554.0</ele><time>2026-05-05T10:23:06.285Z</time></trkpt><trkpt lat="45.3513165" lon="14.5845167"><ele>557.5</ele><time>2026-05-05T10:23:07.285Z</time></trkpt><trkpt lat="45.3514562" lon="14.5842638"><ele>561.0</ele><time>2026-05-05T10:23:08.284Z</time></trkpt><trkpt lat="45.3516182" lon="14.5840214"><ele>561.0</ele><time>2026-05-05T10:23:09.285Z</time></trkpt><trkpt lat="45.3517908" lon="14.5837959"><ele>561.0</ele><time>2026-05-05T10:23:10.285Z</time></trkpt><trkpt lat="45.3519562" lon="14.5835798"><ele>560.0</ele><time>2026-05-05T10:23:11.284Z</time></trkpt><trkpt lat="45.3521178" lon="14.5833711"><ele>559.0</ele><time>2026-05-05T10:23:12.285Z</time></trkpt><trkpt lat="45.3523033" lon="14.5831608"><ele>559.0</ele><time>2026-05-05T10:23:13.284Z</time></trkpt><trkpt lat="45.352494" lon="14.5829714"><ele>559.0</ele><time>2026-05-05T10:23:14.285Z</time></trkpt><trkpt lat="45.3526884" lon="14.5827809"><ele>552.0</ele><time>2026-05-05T10:23:15.284Z</time></trkpt><trkpt lat="45.3528979" lon="14.5825922"><ele>545.0</ele><time>2026-05-05T10:23:16.285Z</time></trkpt><trkpt lat="45.3531026" lon="14.5823947"><ele>545.0</ele><time>2026-05-05T10:23:17.285Z</time></trkpt><trkpt lat="45.3533346" lon="14.5822102"><ele>545.0</ele><time>2026-05-05T10:23:18.285Z</time></trkpt><trkpt lat="45.3535371" lon="14.5820249"><ele>541.5</ele><time>2026-05-05T10:23:19.285Z</time></trkpt><trkpt lat="45.3537323" lon="14.5818335"><ele>538.0</ele><time>2026-05-05T10:23:20.284Z</time></trkpt><trkpt lat="45.3539233" lon="14.5816367"><ele>538.0</ele><time>2026-05-05T10:23:21.285Z</time></trkpt><trkpt lat="45.3541173" lon="14.5814328"><ele>538.0</ele><time>2026-05-05T10:23:22.285Z</time></trkpt><trkpt lat="45.3543035" lon="14.5812211"><ele>529.5</ele><time>2026-05-05T10:23:23.285Z</time></trkpt><trkpt lat="45.3544925" lon="14.5810053"><ele>521.0</ele><time>2026-05-05T10:23:24.284Z</time></trkpt><trkpt lat="45.3546796" lon="14.5807731"><ele>523.0</ele><time>2026-05-05T10:23:25.285Z</time></trkpt><trkpt lat="45.3548659" lon="14.5805467"><ele>525.0</ele><time>2026-05-05T10:23:26.285Z</time></trkpt><trkpt lat="45.3550566" lon="14.5803136"><ele>525.0</ele><time>2026-05-05T10:23:27.285Z</time></trkpt><trkpt lat="45.3552462" lon="14.5800765"><ele>525.0</ele><time>2026-05-05T10:23:28.285Z</time></trkpt><trkpt lat="45.3554309" lon="14.5798545"><ele>524.5</ele><time>2026-05-05T10:23:29.285Z</time></trkpt><trkpt lat="45.3556184" lon="14.5796284"><ele>524.0</ele><time>2026-05-05T10:23:30.285Z</time></trkpt><trkpt lat="45.3558291" lon="14.5793993"><ele>524.0</ele><time>2026-05-05T10:23:31.285Z</time></trkpt><trkpt lat="45.3560126" lon="14.5791893"><ele>524.0</ele><time>2026-05-05T10:23:32.285Z</time></trkpt><trkpt lat="45.3562073" lon="14.5789877"><ele>520.5</ele><time>2026-05-05T10:23:33.285Z</time></trkpt><trkpt lat="45.3564117" lon="14.578785"><ele>517.0</ele><time>2026-05-05T10:23:34.285Z</time></trkpt><trkpt lat="45.3566446" lon="14.5786156"><ele>517.0</ele><time>2026-05-05T10:23:35.284Z</time></trkpt><trkpt lat="45.3568613" lon="14.5784416"><ele>517.0</ele><time>2026-05-05T10:23:36.284Z</time></trkpt><trkpt lat="45.3570846" lon="14.5782694"><ele>522.0</ele><time>2026-05-05T10:23:37.285Z</time></trkpt><trkpt lat="45.3573073" lon="14.5781006"><ele>527.0</ele><time>2026-05-05T10:23:38.284Z</time></trkpt><trkpt lat="45.3575334" lon="14.5779335"><ele>519.5</ele><time>2026-05-05T10:23:39.284Z</time></trkpt><trkpt lat="45.3577491" lon="14.5777672"><ele>512.0</ele><time>2026-05-05T10:23:40.285Z</time></trkpt><trkpt lat="45.3579696" lon="14.5775951"><ele>515.0</ele><time>2026-05-05T10:23:41.284Z</time></trkpt><trkpt lat="45.3582026" lon="14.5774255"><ele>518.0</ele><time>2026-05-05T10:23:42.285Z</time></trkpt><trkpt lat="45.3584266" lon="14.5772361"><ele>518.0</ele><time>2026-05-05T10:23:43.285Z</time></trkpt><trkpt lat="45.3586442" lon="14.5770539"><ele>518.0</ele><time>2026-05-05T10:23:44.285Z</time></trkpt><trkpt lat="45.3588395" lon="14.5768551"><ele>514.5</ele><time>2026-05-05T10:23:45.285Z</time></trkpt><trkpt lat="45.3590401" lon="14.5766584"><ele>511.0</ele><time>2026-05-05T10:23:46.285Z</time></trkpt><trkpt lat="45.3592514" lon="14.576447"><ele>511.0</ele><time>2026-05-05T10:23:47.285Z</time></trkpt><trkpt lat="45.3594216" lon="14.576236"><ele>511.0</ele><time>2026-05-05T10:23:48.284Z</time></trkpt><trkpt lat="45.3596018" lon="14.5760308"><ele>506.0</ele><time>2026-05-05T10:23:49.284Z</time></trkpt><trkpt lat="45.3597911" lon="14.5758099"><ele>501.0</ele><time>2026-05-05T10:23:50.284Z</time></trkpt><trkpt lat="45.3599673" lon="14.5755805"><ele>496.0</ele><time>2026-05-05T10:23:51.284Z</time></trkpt><trkpt lat="45.3601506" lon="14.5753359"><ele>491.0</ele><time>2026-05-05T10:23:52.285Z</time></trkpt><trkpt lat="45.3603108" lon="14.5750908"><ele>491.0</ele><time>2026-05-05T10:23:53.284Z</time></trkpt><trkpt lat="45.3604784" lon="14.5748324"><ele>491.0</ele><time>2026-05-05T10:23:54.285Z</time></trkpt><trkpt lat="45.3606499" lon="14.5745553"><ele>492.0</ele><time>2026-05-05T10:23:55.284Z</time></trkpt><trkpt lat="45.3608012" lon="14.5742843"><ele>493.0</ele><time>2026-05-05T10:23:56.285Z</time></trkpt><trkpt lat="45.3609492" lon="14.573999"><ele>493.0</ele><time>2026-05-05T10:23:57.284Z</time></trkpt><trkpt lat="45.3610871" lon="14.5737113"><ele>493.0</ele><time>2026-05-05T10:23:58.285Z</time></trkpt><trkpt lat="45.3612287" lon="14.5734113"><ele>494.0</ele><time>2026-05-05T10:23:59.285Z</time></trkpt><trkpt lat="45.3613586" lon="14.5731122"><ele>495.0</ele><time>2026-05-05T10:24:00.285Z</time></trkpt><trkpt lat="45.361484" lon="14.5728066"><ele>489.5</ele><time>2026-05-05T10:24:01.284Z</time></trkpt><trkpt lat="45.3615991" lon="14.5724969"><ele>484.0</ele><time>2026-05-05T10:24:02.285Z</time></trkpt><trkpt lat="45.3617098" lon="14.5721831"><ele>483.0</ele><time>2026-05-05T10:24:03.284Z</time></trkpt><trkpt lat="45.3618083" lon="14.5718612"><ele>482.0</ele><time>2026-05-05T10:24:04.285Z</time></trkpt><trkpt lat="45.361901" lon="14.5715382"><ele>482.0</ele><time>2026-05-05T10:24:05.284Z</time></trkpt><trkpt lat="45.3619915" lon="14.5712105"><ele>482.0</ele><time>2026-05-05T10:24:06.285Z</time></trkpt><trkpt lat="45.3620725" lon="14.5708746"><ele>481.0</ele><time>2026-05-05T10:24:07.285Z</time></trkpt><trkpt lat="45.36215" lon="14.5705391"><ele>480.0</ele><time>2026-05-05T10:24:08.285Z</time></trkpt><trkpt lat="45.3622184" lon="14.5702022"><ele>480.0</ele><time>2026-05-05T10:24:09.285Z</time></trkpt><trkpt lat="45.3622787" lon="14.5698642"><ele>480.0</ele><time>2026-05-05T10:24:10.284Z</time></trkpt><trkpt lat="45.3623361" lon="14.569526"><ele>480.5</ele><time>2026-05-05T10:24:11.284Z</time></trkpt><trkpt lat="45.3623794" lon="14.5691873"><ele>481.0</ele><time>2026-05-05T10:24:12.284Z</time></trkpt><trkpt lat="45.3624185" lon="14.5688349"><ele>479.5</ele><time>2026-05-05T10:24:13.285Z</time></trkpt><trkpt lat="45.3624517" lon="14.5684864"><ele>478.0</ele><time>2026-05-05T10:24:14.285Z</time></trkpt><trkpt lat="45.3624806" lon="14.5681435"><ele>476.0</ele><time>2026-05-05T10:24:15.285Z</time></trkpt><trkpt lat="45.3624885" lon="14.5677978"><ele>474.0</ele><time>2026-05-05T10:24:16.285Z</time></trkpt><trkpt lat="45.362505" lon="14.5674387"><ele>474.0</ele><time>2026-05-05T10:24:17.284Z</time></trkpt><trkpt lat="45.3625065" lon="14.567083"><ele>474.0</ele><time>2026-05-05T10:24:18.285Z</time></trkpt><trkpt lat="45.3624878" lon="14.5667356"><ele>473.5</ele><time>2026-05-05T10:24:19.285Z</time></trkpt><trkpt lat="45.3624684" lon="14.5663796"><ele>473.0</ele><time>2026-05-05T10:24:20.285Z</time></trkpt><trkpt lat="45.3624412" lon="14.566029"><ele>472.0</ele><time>2026-05-05T10:24:21.284Z</time></trkpt><trkpt lat="45.3624254" lon="14.5656711"><ele>471.0</ele><time>2026-05-05T10:24:22.284Z</time></trkpt><trkpt lat="45.3623888" lon="14.5653232"><ele>471.0</ele><time>2026-05-05T10:24:23.284Z</time></trkpt><trkpt lat="45.3623452" lon="14.5649686"><ele>471.0</ele><time>2026-05-05T10:24:24.284Z</time></trkpt><trkpt lat="45.3622998" lon="14.5646127"><ele>473.0</ele><time>2026-05-05T10:24:25.285Z</time></trkpt><trkpt lat="45.3622427" lon="14.564252"><ele>475.0</ele><time>2026-05-05T10:24:26.284Z</time></trkpt><trkpt lat="45.3621812" lon="14.5638947"><ele>461.0</ele><time>2026-05-05T10:24:27.285Z</time></trkpt><trkpt lat="45.3621219" lon="14.5635287"><ele>447.0</ele><time>2026-05-05T10:24:28.285Z</time></trkpt><trkpt lat="45.3620683" lon="14.5631587"><ele>443.0</ele><time>2026-05-05T10:24:29.285Z</time></trkpt><trkpt lat="45.3620175" lon="14.5627981"><ele>439.0</ele><time>2026-05-05T10:24:30.285Z</time></trkpt><trkpt lat="45.3619557" lon="14.5624374"><ele>439.0</ele><time>2026-05-05T10:24:31.284Z</time></trkpt><trkpt lat="45.3619013" lon="14.5620732"><ele>439.0</ele><time>2026-05-05T10:24:32.284Z</time></trkpt><trkpt lat="45.3618509" lon="14.5617176"><ele>440.0</ele><time>2026-05-05T10:24:33.284Z</time></trkpt><trkpt lat="45.3617922" lon="14.561361"><ele>441.0</ele><time>2026-05-05T10:24:34.284Z</time></trkpt><trkpt lat="45.3617396" lon="14.5610034"><ele>446.5</ele><time>2026-05-05T10:24:35.285Z</time></trkpt><trkpt lat="45.361691" lon="14.5606422"><ele>452.0</ele><time>2026-05-05T10:24:36.284Z</time></trkpt><trkpt lat="45.3616455" lon="14.5602648"><ele>455.0</ele><time>2026-05-05T10:24:37.285Z</time></trkpt><trkpt lat="45.361613" lon="14.5598839"><ele>458.0</ele><time>2026-05-05T10:24:38.285Z</time></trkpt><trkpt lat="45.3615846" lon="14.5595109"><ele>458.0</ele><time>2026-05-05T10:24:39.284Z</time></trkpt><trkpt lat="45.361566" lon="14.559136"><ele>458.0</ele><time>2026-05-05T10:24:40.285Z</time></trkpt><trkpt lat="45.3615654" lon="14.5587566"><ele>446.0</ele><time>2026-05-05T10:24:41.285Z</time></trkpt><trkpt lat="45.3615693" lon="14.5583848"><ele>434.0</ele><time>2026-05-05T10:24:42.285Z</time></trkpt><trkpt lat="45.3615832" lon="14.5580151"><ele>421.5</ele><time>2026-05-05T10:24:43.285Z</time></trkpt><trkpt lat="45.3616084" lon="14.5576413"><ele>409.0</ele><time>2026-05-05T10:24:44.285Z</time></trkpt><trkpt lat="45.3616385" lon="14.5572779"><ele>413.0</ele><time>2026-05-05T10:24:45.285Z</time></trkpt><trkpt lat="45.3616859" lon="14.5569111"><ele>417.0</ele><time>2026-05-05T10:24:46.285Z</time></trkpt><trkpt lat="45.3617445" lon="14.5565435"><ele>420.5</ele><time>2026-05-05T10:24:47.284Z</time></trkpt><trkpt lat="45.3618058" lon="14.556175"><ele>424.0</ele><time>2026-05-05T10:24:48.285Z</time></trkpt><trkpt lat="45.3618952" lon="14.5558119"><ele>424.0</ele><time>2026-05-05T10:24:49.285Z</time></trkpt><trkpt lat="45.3619901" lon="14.5554519"><ele>424.0</ele><time>2026-05-05T10:24:50.285Z</time></trkpt><trkpt lat="45.3620944" lon="14.5550937"><ele>432.5</ele><time>2026-05-05T10:24:51.284Z</time></trkpt><trkpt lat="45.3622121" lon="14.5547328"><ele>441.0</ele><time>2026-05-05T10:24:52.284Z</time></trkpt><trkpt lat="45.3623395" lon="14.5543742"><ele>441.0</ele><time>2026-05-05T10:24:53.284Z</time></trkpt><trkpt lat="45.3624783" lon="14.5540308"><ele>441.0</ele><time>2026-05-05T10:24:54.284Z</time></trkpt><trkpt lat="45.3626309" lon="14.5536909"><ele>433.5</ele><time>2026-05-05T10:24:55.285Z</time></trkpt><trkpt lat="45.362782" lon="14.5533631"><ele>426.0</ele><time>2026-05-05T10:24:56.284Z</time></trkpt><trkpt lat="45.3629494" lon="14.5530475"><ele>431.5</ele><time>2026-05-05T10:24:57.285Z</time></trkpt><trkpt lat="45.3631273" lon="14.5527412"><ele>437.0</ele><time>2026-05-05T10:24:58.285Z</time></trkpt><trkpt lat="45.3633242" lon="14.5524539"><ele>437.0</ele><time>2026-05-05T10:24:59.284Z</time></trkpt><trkpt lat="45.3635233" lon="14.5522037"><ele>437.0</ele><time>2026-05-05T10:25:00.285Z</time></trkpt><trkpt lat="45.3637159" lon="14.5519368"><ele>435.0</ele><time>2026-05-05T10:25:01.284Z</time></trkpt><trkpt lat="45.3639309" lon="14.5516749"><ele>433.0</ele><time>2026-05-05T10:25:02.285Z</time></trkpt><trkpt lat="45.3641495" lon="14.5514309"><ele>433.0</ele><time>2026-05-05T10:25:03.284Z</time></trkpt><trkpt lat="45.3643795" lon="14.5512193"><ele>433.0</ele><time>2026-05-05T10:25:04.285Z</time></trkpt><trkpt lat="45.3646231" lon="14.5510199"><ele>425.5</ele><time>2026-05-05T10:25:05.285Z</time></trkpt><trkpt lat="45.3648672" lon="14.5508275"><ele>418.0</ele><time>2026-05-05T10:25:06.285Z</time></trkpt><trkpt lat="45.365108" lon="14.5506276"><ele>418.0</ele><time>2026-05-05T10:25:07.285Z</time></trkpt><trkpt lat="45.3653513" lon="14.5504397"><ele>418.0</ele><time>2026-05-05T10:25:08.285Z</time></trkpt><trkpt lat="45.3655896" lon="14.5502469"><ele>406.5</ele><time>2026-05-05T10:25:09.284Z</time></trkpt><trkpt lat="45.365817" lon="14.5500481"><ele>395.0</ele><time>2026-05-05T10:25:10.285Z</time></trkpt><trkpt lat="45.3660395" lon="14.5498561"><ele>395.0</ele><time>2026-05-05T10:25:11.284Z</time></trkpt><trkpt lat="45.3662616" lon="14.549667"><ele>395.0</ele><time>2026-05-05T10:25:12.284Z</time></trkpt><trkpt lat="45.3665009" lon="14.5494398"><ele>395.0</ele><time>2026-05-05T10:25:13.285Z</time></trkpt><trkpt lat="45.3667263" lon="14.5492092"><ele>395.0</ele><time>2026-05-05T10:25:14.285Z</time></trkpt><trkpt lat="45.3669408" lon="14.5489734"><ele>395.0</ele><time>2026-05-05T10:25:15.285Z</time></trkpt><trkpt lat="45.3671529" lon="14.5487197"><ele>395.0</ele><time>2026-05-05T10:25:16.285Z</time></trkpt><trkpt lat="45.3673581" lon="14.5484591"><ele>401.5</ele><time>2026-05-05T10:25:17.285Z</time></trkpt><trkpt lat="45.3675568" lon="14.5481938"><ele>408.0</ele><time>2026-05-05T10:25:18.285Z</time></trkpt><trkpt lat="45.3677708" lon="14.5479344"><ele>414.5</ele><time>2026-05-05T10:25:19.285Z</time></trkpt><trkpt lat="45.3679708" lon="14.5476817"><ele>421.0</ele><time>2026-05-05T10:25:20.284Z</time></trkpt><trkpt lat="45.36818" lon="14.5474386"><ele>421.0</ele><time>2026-05-05T10:25:21.285Z</time></trkpt><trkpt lat="45.3683903" lon="14.5472036"><ele>421.0</ele><time>2026-05-05T10:25:22.284Z</time></trkpt><trkpt lat="45.3686096" lon="14.5469689"><ele>418.0</ele><time>2026-05-05T10:25:23.284Z</time></trkpt><trkpt lat="45.3688413" lon="14.5467507"><ele>415.0</ele><time>2026-05-05T10:25:24.285Z</time></trkpt><trkpt lat="45.3690863" lon="14.5465397"><ele>415.0</ele><time>2026-05-05T10:25:25.285Z</time></trkpt><trkpt lat="45.3693254" lon="14.5463304"><ele>415.0</ele><time>2026-05-05T10:25:26.284Z</time></trkpt><trkpt lat="45.369563" lon="14.5461126"><ele>408.0</ele><time>2026-05-05T10:25:27.285Z</time></trkpt><trkpt lat="45.3698299" lon="14.5458862"><ele>401.0</ele><time>2026-05-05T10:25:28.285Z</time></trkpt><trkpt lat="45.3700855" lon="14.5456613"><ele>401.0</ele><time>2026-05-05T10:25:29.285Z</time></trkpt><trkpt lat="45.370335" lon="14.5454763"><ele>401.0</ele><time>2026-05-05T10:25:30.284Z</time></trkpt><trkpt lat="45.3705944" lon="14.5452782"><ele>391.0</ele><time>2026-05-05T10:25:31.285Z</time></trkpt><trkpt lat="45.37084" lon="14.5450637"><ele>381.0</ele><time>2026-05-05T10:25:32.285Z</time></trkpt><trkpt lat="45.3710874" lon="14.5448377"><ele>381.0</ele><time>2026-05-05T10:25:33.285Z</time></trkpt><trkpt lat="45.3713269" lon="14.5446003"><ele>381.0</ele><time>2026-05-05T10:25:34.285Z</time></trkpt><trkpt lat="45.371556" lon="14.5443602"><ele>364.5</ele><time>2026-05-05T10:25:35.285Z</time></trkpt><trkpt lat="45.3717939" lon="14.5440936"><ele>348.0</ele><time>2026-05-05T10:25:36.284Z</time></trkpt><trkpt lat="45.3720009" lon="14.5438166"><ele>359.0</ele><time>2026-05-05T10:25:37.285Z</time></trkpt><trkpt lat="45.3722206" lon="14.5435339"><ele>370.0</ele><time>2026-05-05T10:25:38.284Z</time></trkpt><trkpt lat="45.3724099" lon="14.5432508"><ele>370.0</ele><time>2026-05-05T10:25:39.285Z</time></trkpt><trkpt lat="45.3725919" lon="14.5429592"><ele>370.0</ele><time>2026-05-05T10:25:40.284Z</time></trkpt><trkpt lat="45.3727615" lon="14.5426604"><ele>366.5</ele><time>2026-05-05T10:25:41.284Z</time></trkpt><trkpt lat="45.3729307" lon="14.5423518"><ele>363.0</ele><time>2026-05-05T10:25:42.284Z</time></trkpt><trkpt lat="45.3730907" lon="14.5420244"><ele>374.0</ele><time>2026-05-05T10:25:43.285Z</time></trkpt><trkpt lat="45.3732496" lon="14.5416902"><ele>385.0</ele><time>2026-05-05T10:25:44.285Z</time></trkpt><trkpt lat="45.3734101" lon="14.5413591"><ele>377.0</ele><time>2026-05-05T10:25:45.285Z</time></trkpt><trkpt lat="45.3735525" lon="14.5410408"><ele>369.0</ele><time>2026-05-05T10:25:46.285Z</time></trkpt><trkpt lat="45.3736974" lon="14.5407348"><ele>369.0</ele><time>2026-05-05T10:25:47.284Z</time></trkpt><trkpt lat="45.3738264" lon="14.5404303"><ele>369.0</ele><time>2026-05-05T10:25:48.284Z</time></trkpt><trkpt lat="45.373976" lon="14.540118"><ele>364.0</ele><time>2026-05-05T10:25:49.285Z</time></trkpt><trkpt lat="45.3741625" lon="14.5398184"><ele>359.0</ele><time>2026-05-05T10:25:50.285Z</time></trkpt><trkpt lat="45.3743054" lon="14.5395135"><ele>359.0</ele><time>2026-05-05T10:25:51.285Z</time></trkpt><trkpt lat="45.3744299" lon="14.5392172"><ele>359.0</ele><time>2026-05-05T10:25:52.284Z</time></trkpt><trkpt lat="45.3745782" lon="14.5389131"><ele>362.5</ele><time>2026-05-05T10:25:53.284Z</time></trkpt><trkpt lat="45.3747204" lon="14.5386043"><ele>366.0</ele><time>2026-05-05T10:25:54.284Z</time></trkpt><trkpt lat="45.3748659" lon="14.5383099"><ele>366.0</ele><time>2026-05-05T10:25:55.285Z</time></trkpt><trkpt lat="45.375014" lon="14.5380029"><ele>366.0</ele><time>2026-05-05T10:25:56.285Z</time></trkpt><trkpt lat="45.3751547" lon="14.5376988"><ele>358.0</ele><time>2026-05-05T10:25:57.285Z</time></trkpt><trkpt lat="45.3753019" lon="14.5373988"><ele>350.0</ele><time>2026-05-05T10:25:58.285Z</time></trkpt><trkpt lat="45.3754451" lon="14.5370986"><ele>358.5</ele><time>2026-05-05T10:25:59.284Z</time></trkpt><trkpt lat="45.3755858" lon="14.536791"><ele>367.0</ele><time>2026-05-05T10:26:00.284Z</time></trkpt><trkpt lat="45.3757382" lon="14.5364857"><ele>360.5</ele><time>2026-05-05T10:26:01.285Z</time></trkpt><trkpt lat="45.3758853" lon="14.5361764"><ele>354.0</ele><time>2026-05-05T10:26:02.284Z</time></trkpt><trkpt lat="45.3760224" lon="14.5358596"><ele>354.0</ele><time>2026-05-05T10:26:03.285Z</time></trkpt><trkpt lat="45.376154" lon="14.5355548"><ele>354.0</ele><time>2026-05-05T10:26:04.285Z</time></trkpt><trkpt lat="45.376292" lon="14.5352549"><ele>360.5</ele><time>2026-05-05T10:26:05.284Z</time></trkpt><trkpt lat="45.3764145" lon="14.5349437"><ele>367.0</ele><time>2026-05-05T10:26:06.285Z</time></trkpt><trkpt lat="45.3765479" lon="14.5346202"><ele>358.5</ele><time>2026-05-05T10:26:07.285Z</time></trkpt><trkpt lat="45.3766584" lon="14.5343166"><ele>350.0</ele><time>2026-05-05T10:26:08.284Z</time></trkpt><trkpt lat="45.3767733" lon="14.5340321"><ele>343.5</ele><time>2026-05-05T10:26:09.284Z</time></trkpt><trkpt lat="45.3768661" lon="14.5337146"><ele>337.0</ele><time>2026-05-05T10:26:10.284Z</time></trkpt><trkpt lat="45.3769479" lon="14.5334029"><ele>337.0</ele><time>2026-05-05T10:26:11.285Z</time></trkpt><trkpt lat="45.3770171" lon="14.533096"><ele>337.0</ele><time>2026-05-05T10:26:12.284Z</time></trkpt><trkpt lat="45.3770969" lon="14.5327771"><ele>336.0</ele><time>2026-05-05T10:26:13.285Z</time></trkpt><trkpt lat="45.3771588" lon="14.532451"><ele>335.0</ele><time>2026-05-05T10:26:14.285Z</time></trkpt><trkpt lat="45.377214" lon="14.5321275"><ele>337.0</ele><time>2026-05-05T10:26:15.284Z</time></trkpt><trkpt lat="45.3772629" lon="14.5318072"><ele>339.0</ele><time>2026-05-05T10:26:16.284Z</time></trkpt><trkpt lat="45.3773005" lon="14.5314825"><ele>341.5</ele><time>2026-05-05T10:26:17.285Z</time></trkpt><trkpt lat="45.3773361" lon="14.5311606"><ele>344.0</ele><time>2026-05-05T10:26:18.285Z</time></trkpt><trkpt lat="45.3773653" lon="14.5308408"><ele>344.0</ele><time>2026-05-05T10:26:19.285Z</time></trkpt><trkpt lat="45.3773839" lon="14.5305223"><ele>344.0</ele><time>2026-05-05T10:26:20.284Z</time></trkpt><trkpt lat="45.3773976" lon="14.5301924"><ele>346.0</ele><time>2026-05-05T10:26:21.284Z</time></trkpt><trkpt lat="45.3774021" lon="14.5298573"><ele>348.0</ele><time>2026-05-05T10:26:22.285Z</time></trkpt><trkpt lat="45.3774056" lon="14.5295297"><ele>343.5</ele><time>2026-05-05T10:26:23.284Z</time></trkpt><trkpt lat="45.3774012" lon="14.5291769"><ele>339.0</ele><time>2026-05-05T10:26:24.284Z</time></trkpt><trkpt lat="45.3773921" lon="14.5288431"><ele>335.0</ele><time>2026-05-05T10:26:25.284Z</time></trkpt><trkpt lat="45.3773581" lon="14.5285227"><ele>331.0</ele><time>2026-05-05T10:26:26.285Z</time></trkpt><trkpt lat="45.3773309" lon="14.5282081"><ele>331.0</ele><time>2026-05-05T10:26:27.285Z</time></trkpt><trkpt lat="45.3773095" lon="14.5278999"><ele>331.0</ele><time>2026-05-05T10:26:28.285Z</time></trkpt><trkpt lat="45.3772894" lon="14.5276029"><ele>331.0</ele><time>2026-05-05T10:26:29.285Z</time></trkpt><trkpt lat="45.3772643" lon="14.5273257"><ele>329.0</ele><time>2026-05-05T10:26:30.285Z</time></trkpt><trkpt lat="45.3772328" lon="14.5270554"><ele>327.0</ele><time>2026-05-05T10:26:31.284Z</time></trkpt><trkpt lat="45.377205" lon="14.5267886"><ele>325.0</ele><time>2026-05-05T10:26:32.284Z</time></trkpt><trkpt lat="45.377168" lon="14.5265296"><ele>322.0</ele><time>2026-05-05T10:26:33.285Z</time></trkpt><trkpt lat="45.3771456" lon="14.5262835"><ele>319.0</ele><time>2026-05-05T10:26:34.285Z</time></trkpt><trkpt lat="45.3771132" lon="14.5260417"><ele>316.0</ele><time>2026-05-05T10:26:35.285Z</time></trkpt><trkpt lat="45.3770911" lon="14.5258178"><ele>315.25</ele><time>2026-05-05T10:26:36.285Z</time></trkpt><trkpt lat="45.3770771" lon="14.5256028"><ele>314.5</ele><time>2026-05-05T10:26:37.285Z</time></trkpt><trkpt lat="45.3770802" lon="14.5254049"><ele>313.75</ele><time>2026-05-05T10:26:38.285Z</time></trkpt><trkpt lat="45.3770875" lon="14.5252114"><ele>313.0</ele><time>2026-05-05T10:26:39.285Z</time></trkpt><trkpt lat="45.3770901" lon="14.5250226"><ele>313.0</ele><time>2026-05-05T10:26:40.284Z</time></trkpt><trkpt lat="45.377087" lon="14.5248358"><ele>313.0</ele><time>2026-05-05T10:26:41.284Z</time></trkpt><trkpt lat="45.3770894" lon="14.5246476"><ele>313.0</ele><time>2026-05-05T10:26:42.285Z</time></trkpt><trkpt lat="45.3770743" lon="14.5244511"><ele>313.0</ele><time>2026-05-05T10:26:43.284Z</time></trkpt><trkpt lat="45.3770587" lon="14.5242664"><ele>313.0</ele><time>2026-05-05T10:26:44.284Z</time></trkpt><trkpt lat="45.3770474" lon="14.5241002"><ele>313.0</ele><time>2026-05-05T10:26:45.285Z</time></trkpt><trkpt lat="45.3770345" lon="14.5239334"><ele>313.0</ele><time>2026-05-05T10:26:46.284Z</time></trkpt><trkpt lat="45.3770166" lon="14.5237863"><ele>313.0</ele><time>2026-05-05T10:26:47.284Z</time></trkpt><trkpt lat="45.3770006" lon="14.5236502"><ele>313.0</ele><time>2026-05-05T10:26:48.284Z</time></trkpt><trkpt lat="45.3769902" lon="14.5235338"><ele>313.0</ele><time>2026-05-05T10:26:49.285Z</time></trkpt><trkpt lat="45.3769815" lon="14.5234348"><ele>313.0</ele><time>2026-05-05T10:26:50.284Z</time></trkpt><trkpt lat="45.376962" lon="14.5232799"><ele>313.0</ele><time>2026-05-05T10:26:52.284Z</time></trkpt><trkpt lat="45.3769521" lon="14.5231736"><ele>313.0</ele><time>2026-05-05T10:26:54.285Z</time></trkpt><trkpt lat="45.37696" lon="14.5230716"><ele>313.0</ele><time>2026-05-05T10:28:15.285Z</time></trkpt><trkpt lat="45.3769545" lon="14.5229779"><ele>313.0</ele><time>2026-05-05T10:28:18.284Z</time></trkpt><trkpt lat="45.3769392" lon="14.522801"><ele>313.0</ele><time>2026-05-05T10:28:19.285Z</time></trkpt><trkpt lat="45.3769356" lon="14.5226939"><ele>313.0</ele><time>2026-05-05T10:28:20.284Z</time></trkpt><trkpt lat="45.3769142" lon="14.5225624"><ele>313.0</ele><time>2026-05-05T10:28:21.285Z</time></trkpt><trkpt lat="45.376906" lon="14.5224181"><ele>313.0</ele><time>2026-05-05T10:28:22.285Z</time></trkpt><trkpt lat="45.3768918" lon="14.5222514"><ele>313.0</ele><time>2026-05-05T10:28:23.284Z</time></trkpt><trkpt lat="45.3768711" lon="14.5220933"><ele>313.25</ele><time>2026-05-05T10:28:24.285Z</time></trkpt><trkpt lat="45.3768468" lon="14.5219308"><ele>313.5</ele><time>2026-05-05T10:28:25.285Z</time></trkpt><trkpt lat="45.3768191" lon="14.5217616"><ele>313.75</ele><time>2026-05-05T10:28:26.285Z</time></trkpt><trkpt lat="45.3767944" lon="14.5215737"><ele>314.0</ele><time>2026-05-05T10:28:27.285Z</time></trkpt><trkpt lat="45.3767613" lon="14.5213699"><ele>314.33333333333337</ele><time>2026-05-05T10:28:28.285Z</time></trkpt><trkpt lat="45.3767342" lon="14.5211593"><ele>314.6666666666667</ele><time>2026-05-05T10:28:29.284Z</time></trkpt><trkpt lat="45.3767115" lon="14.5209382"><ele>315.0</ele><time>2026-05-05T10:28:30.284Z</time></trkpt><trkpt lat="45.3766875" lon="14.520717"><ele>315.0</ele><time>2026-05-05T10:28:31.285Z</time></trkpt><trkpt lat="45.3766728" lon="14.52048"><ele>315.0</ele><time>2026-05-05T10:28:32.285Z</time></trkpt><trkpt lat="45.3766629" lon="14.5202355"><ele>315.0</ele><time>2026-05-05T10:28:33.285Z</time></trkpt><trkpt lat="45.3766615" lon="14.5199762"><ele>315.3333333333333</ele><time>2026-05-05T10:28:34.284Z</time></trkpt><trkpt lat="45.3766632" lon="14.5197152"><ele>315.66666666666663</ele><time>2026-05-05T10:28:35.284Z</time></trkpt><trkpt lat="45.3766636" lon="14.5194564"><ele>316.0</ele><time>2026-05-05T10:28:36.285Z</time></trkpt><trkpt lat="45.3766554" lon="14.5191957"><ele>317.66666666666663</ele><time>2026-05-05T10:28:37.285Z</time></trkpt><trkpt lat="45.3766537" lon="14.5189363"><ele>319.3333333333333</ele><time>2026-05-05T10:28:38.285Z</time></trkpt><trkpt lat="45.3766566" lon="14.5186558"><ele>321.0</ele><time>2026-05-05T10:28:39.284Z</time></trkpt><trkpt lat="45.376657" lon="14.5183778"><ele>321.3333333333333</ele><time>2026-05-05T10:28:40.285Z</time></trkpt><trkpt lat="45.376667" lon="14.5180963"><ele>321.66666666666663</ele><time>2026-05-05T10:28:41.285Z</time></trkpt><trkpt lat="45.3766678" lon="14.5178092"><ele>322.0</ele><time>2026-05-05T10:28:42.284Z</time></trkpt><trkpt lat="45.376665" lon="14.5175154"><ele>320.3333333333333</ele><time>2026-05-05T10:28:43.284Z</time></trkpt><trkpt lat="45.3766615" lon="14.5172325"><ele>318.6666666666667</ele><time>2026-05-05T10:28:44.285Z</time></trkpt><trkpt lat="45.3766574" lon="14.5169501"><ele>317.0</ele><time>2026-05-05T10:28:45.285Z</time></trkpt><trkpt lat="45.3766547" lon="14.5166615"><ele>315.0</ele><time>2026-05-05T10:28:46.284Z</time></trkpt><trkpt lat="45.3766559" lon="14.5163691"><ele>313.0</ele><time>2026-05-05T10:28:47.285Z</time></trkpt><trkpt lat="45.3766586" lon="14.5160782"><ele>311.0</ele><time>2026-05-05T10:28:48.285Z</time></trkpt><trkpt lat="45.3766614" lon="14.5157853"><ele>310.6666666666667</ele><time>2026-05-05T10:28:49.285Z</time></trkpt><trkpt lat="45.3766578" lon="14.5154913"><ele>310.3333333333333</ele><time>2026-05-05T10:28:50.285Z</time></trkpt><trkpt lat="45.3766528" lon="14.5151987"><ele>310.0</ele><time>2026-05-05T10:28:51.285Z</time></trkpt><trkpt lat="45.37665" lon="14.5149106"><ele>309.3333333333333</ele><time>2026-05-05T10:28:52.284Z</time></trkpt><trkpt lat="45.3766526" lon="14.5146135"><ele>308.6666666666667</ele><time>2026-05-05T10:28:53.285Z</time></trkpt><trkpt lat="45.3766574" lon="14.5143066"><ele>308.0</ele><time>2026-05-05T10:28:54.285Z</time></trkpt><trkpt lat="45.376659" lon="14.5140056"><ele>307.0</ele><time>2026-05-05T10:28:55.284Z</time></trkpt><trkpt lat="45.3766578" lon="14.5136997"><ele>306.0</ele><time>2026-05-05T10:28:56.285Z</time></trkpt><trkpt lat="45.3766611" lon="14.5133936"><ele>305.0</ele><time>2026-05-05T10:28:57.285Z</time></trkpt><trkpt lat="45.3766627" lon="14.5130844"><ele>304.6666666666667</ele><time>2026-05-05T10:28:58.285Z</time></trkpt><trkpt lat="45.3766685" lon="14.5127712"><ele>304.3333333333333</ele><time>2026-05-05T10:28:59.285Z</time></trkpt><trkpt lat="45.3766726" lon="14.5124579"><ele>304.0</ele><time>2026-05-05T10:29:00.285Z</time></trkpt><trkpt lat="45.3766743" lon="14.5121446"><ele>304.0</ele><time>2026-05-05T10:29:01.284Z</time></trkpt><trkpt lat="45.3766739" lon="14.5118297"><ele>304.0</ele><time>2026-05-05T10:29:02.284Z</time></trkpt><trkpt lat="45.3766737" lon="14.5115106"><ele>304.0</ele><time>2026-05-05T10:29:03.284Z</time></trkpt><trkpt lat="45.3766715" lon="14.5111945"><ele>303.3333333333333</ele><time>2026-05-05T10:29:04.285Z</time></trkpt><trkpt lat="45.3766747" lon="14.5108796"><ele>302.6666666666667</ele><time>2026-05-05T10:29:05.285Z</time></trkpt><trkpt lat="45.3766795" lon="14.5105659"><ele>302.0</ele><time>2026-05-05T10:29:06.285Z</time></trkpt><trkpt lat="45.3766827" lon="14.5102486"><ele>302.0</ele><time>2026-05-05T10:29:07.284Z</time></trkpt><trkpt lat="45.3766835" lon="14.5099277"><ele>302.0</ele><time>2026-05-05T10:29:08.284Z</time></trkpt><trkpt lat="45.3766845" lon="14.5096132"><ele>302.0</ele><time>2026-05-05T10:29:09.284Z</time></trkpt><trkpt lat="45.3766885" lon="14.5092981"><ele>302.0</ele><time>2026-05-05T10:29:10.285Z</time></trkpt><trkpt lat="45.3766881" lon="14.5089781"><ele>302.0</ele><time>2026-05-05T10:29:11.285Z</time></trkpt><trkpt lat="45.3766845" lon="14.5086583"><ele>302.0</ele><time>2026-05-05T10:29:12.284Z</time></trkpt><trkpt lat="45.3766876" lon="14.5083318"><ele>301.0</ele><time>2026-05-05T10:29:13.284Z</time></trkpt><trkpt lat="45.3766906" lon="14.5080091"><ele>300.0</ele><time>2026-05-05T10:29:14.285Z</time></trkpt><trkpt lat="45.3766918" lon="14.507683"><ele>300.5</ele><time>2026-05-05T10:29:15.285Z</time></trkpt><trkpt lat="45.3766966" lon="14.5073558"><ele>301.0</ele><time>2026-05-05T10:29:16.284Z</time></trkpt><trkpt lat="45.376699" lon="14.507031"><ele>301.0</ele><time>2026-05-05T10:29:17.285Z</time></trkpt><trkpt lat="45.3767015" lon="14.5067017"><ele>301.0</ele><time>2026-05-05T10:29:18.285Z</time></trkpt><trkpt lat="45.3767014" lon="14.5063749"><ele>300.66666666666663</ele><time>2026-05-05T10:29:19.284Z</time></trkpt><trkpt lat="45.3766994" lon="14.5060588"><ele>300.3333333333333</ele><time>2026-05-05T10:29:20.285Z</time></trkpt><trkpt lat="45.3767014" lon="14.5057361"><ele>300.0</ele><time>2026-05-05T10:29:21.284Z</time></trkpt><trkpt lat="45.3767037" lon="14.5054117"><ele>298.6666666666667</ele><time>2026-05-05T10:29:22.284Z</time></trkpt><trkpt lat="45.3767035" lon="14.5050959"><ele>297.33333333333337</ele><time>2026-05-05T10:29:23.284Z</time></trkpt><trkpt lat="45.3767048" lon="14.5047735"><ele>296.0</ele><time>2026-05-05T10:29:24.284Z</time></trkpt><trkpt lat="45.3767033" lon="14.504447"><ele>295.6666666666667</ele><time>2026-05-05T10:29:25.284Z</time></trkpt><trkpt lat="45.3767088" lon="14.504126"><ele>295.3333333333333</ele><time>2026-05-05T10:29:26.285Z</time></trkpt><trkpt lat="45.3767079" lon="14.50381"><ele>295.0</ele><time>2026-05-05T10:29:27.284Z</time></trkpt><trkpt lat="45.3767098" lon="14.5034953"><ele>294.5</ele><time>2026-05-05T10:29:28.284Z</time></trkpt><trkpt lat="45.3767097" lon="14.5031718"><ele>294.0</ele><time>2026-05-05T10:29:29.284Z</time></trkpt><trkpt lat="45.3767097" lon="14.5028477"><ele>294.0</ele><time>2026-05-05T10:29:30.285Z</time></trkpt><trkpt lat="45.3767107" lon="14.5025266"><ele>294.0</ele><time>2026-05-05T10:29:31.285Z</time></trkpt><trkpt lat="45.376711" lon="14.5022023"><ele>292.5</ele><time>2026-05-05T10:29:32.285Z</time></trkpt><trkpt lat="45.3767137" lon="14.5018771"><ele>291.0</ele><time>2026-05-05T10:29:33.285Z</time></trkpt><trkpt lat="45.376717" lon="14.5015494"><ele>291.0</ele><time>2026-05-05T10:29:34.285Z</time></trkpt><trkpt lat="45.3767195" lon="14.5012255"><ele>291.0</ele><time>2026-05-05T10:29:35.285Z</time></trkpt><trkpt lat="45.3767254" lon="14.5008999"><ele>291.0</ele><time>2026-05-05T10:29:36.285Z</time></trkpt><trkpt lat="45.3767256" lon="14.5005841"><ele>291.0</ele><time>2026-05-05T10:29:37.284Z</time></trkpt><trkpt lat="45.3767221" lon="14.5002653"><ele>291.0</ele><time>2026-05-05T10:29:38.284Z</time></trkpt><trkpt lat="45.3767235" lon="14.4999438"><ele>291.0</ele><time>2026-05-05T10:29:39.285Z</time></trkpt><trkpt lat="45.3767182" lon="14.4996185"><ele>291.0</ele><time>2026-05-05T10:29:40.285Z</time></trkpt><trkpt lat="45.3767187" lon="14.499295"><ele>291.0</ele><time>2026-05-05T10:29:41.285Z</time></trkpt><trkpt lat="45.3767183" lon="14.4989709"><ele>291.0</ele><time>2026-05-05T10:29:42.285Z</time></trkpt><trkpt lat="45.3767213" lon="14.4986385"><ele>291.0</ele><time>2026-05-05T10:29:43.285Z</time></trkpt><trkpt lat="45.3767263" lon="14.4983074"><ele>291.0</ele><time>2026-05-05T10:29:44.285Z</time></trkpt><trkpt lat="45.3767319" lon="14.4979777"><ele>290.5</ele><time>2026-05-05T10:29:45.284Z</time></trkpt><trkpt lat="45.376733" lon="14.4976482"><ele>290.0</ele><time>2026-05-05T10:29:46.285Z</time></trkpt><trkpt lat="45.3767306" lon="14.4973199"><ele>289.5</ele><time>2026-05-05T10:29:47.284Z</time></trkpt><trkpt lat="45.3767305" lon="14.4969861"><ele>289.0</ele><time>2026-05-05T10:29:48.284Z</time></trkpt><trkpt lat="45.3767336" lon="14.4966517"><ele>289.0</ele><time>2026-05-05T10:29:49.285Z</time></trkpt><trkpt lat="45.3767379" lon="14.4963188"><ele>289.0</ele><time>2026-05-05T10:29:50.285Z</time></trkpt><trkpt lat="45.3767384" lon="14.4959882"><ele>289.0</ele><time>2026-05-05T10:29:51.285Z</time></trkpt><trkpt lat="45.3767298" lon="14.4956623"><ele>289.0</ele><time>2026-05-05T10:29:52.285Z</time></trkpt><trkpt lat="45.3767141" lon="14.4953345"><ele>289.0</ele><time>2026-05-05T10:29:53.285Z</time></trkpt><trkpt lat="45.3766947" lon="14.49501"><ele>289.0</ele><time>2026-05-05T10:29:54.285Z</time></trkpt><trkpt lat="45.3766672" lon="14.4946933"><ele>290.5</ele><time>2026-05-05T10:29:55.285Z</time></trkpt><trkpt lat="45.3766305" lon="14.4943696"><ele>292.0</ele><time>2026-05-05T10:29:56.285Z</time></trkpt><trkpt lat="45.3765864" lon="14.4940585"><ele>291.5</ele><time>2026-05-05T10:29:57.284Z</time></trkpt><trkpt lat="45.3765317" lon="14.4937388"><ele>291.0</ele><time>2026-05-05T10:29:58.284Z</time></trkpt><trkpt lat="45.3764703" lon="14.4934264"><ele>291.0</ele><time>2026-05-05T10:29:59.285Z</time></trkpt><trkpt lat="45.3763933" lon="14.4931154"><ele>291.0</ele><time>2026-05-05T10:30:00.285Z</time></trkpt><trkpt lat="45.3763089" lon="14.4928129"><ele>289.5</ele><time>2026-05-05T10:30:01.285Z</time></trkpt><trkpt lat="45.3762117" lon="14.4925184"><ele>288.0</ele><time>2026-05-05T10:30:02.285Z</time></trkpt><trkpt lat="45.3761051" lon="14.492227"><ele>288.5</ele><time>2026-05-05T10:30:03.285Z</time></trkpt><trkpt lat="45.3760005" lon="14.4919416"><ele>289.0</ele><time>2026-05-05T10:30:04.285Z</time></trkpt><trkpt lat="45.3758819" lon="14.4916638"><ele>289.0</ele><time>2026-05-05T10:30:05.284Z</time></trkpt><trkpt lat="45.3757576" lon="14.4913945"><ele>289.0</ele><time>2026-05-05T10:30:06.284Z</time></trkpt><trkpt lat="45.3756298" lon="14.4911401"><ele>289.0</ele><time>2026-05-05T10:30:07.285Z</time></trkpt><trkpt lat="45.3754974" lon="14.4908958"><ele>289.0</ele><time>2026-05-05T10:30:08.285Z</time></trkpt><trkpt lat="45.3753549" lon="14.4906602"><ele>289.0</ele><time>2026-05-05T10:30:09.284Z</time></trkpt><trkpt lat="45.3752111" lon="14.4904356"><ele>289.0</ele><time>2026-05-05T10:30:10.285Z</time></trkpt><trkpt lat="45.3750671" lon="14.4902234"><ele>289.0</ele><time>2026-05-05T10:30:11.285Z</time></trkpt><trkpt lat="45.3749133" lon="14.4900212"><ele>289.0</ele><time>2026-05-05T10:30:12.284Z</time></trkpt><trkpt lat="45.3747542" lon="14.4898209"><ele>289.0</ele><time>2026-05-05T10:30:13.284Z</time></trkpt><trkpt lat="45.3745871" lon="14.4896352"><ele>291.3333333333333</ele><time>2026-05-05T10:30:14.285Z</time></trkpt><trkpt lat="45.3744114" lon="14.4894549"><ele>293.6666666666667</ele><time>2026-05-05T10:30:15.284Z</time></trkpt><trkpt lat="45.3742317" lon="14.4892861"><ele>296.0</ele><time>2026-05-05T10:30:16.284Z</time></trkpt><trkpt lat="45.3740481" lon="14.4891223"><ele>296.0</ele><time>2026-05-05T10:30:17.284Z</time></trkpt><trkpt lat="45.3738595" lon="14.4889655"><ele>296.0</ele><time>2026-05-05T10:30:18.285Z</time></trkpt><trkpt lat="45.3736678" lon="14.4888247"><ele>296.0</ele><time>2026-05-05T10:30:19.285Z</time></trkpt><trkpt lat="45.3734732" lon="14.4886889"><ele>299.0</ele><time>2026-05-05T10:30:20.284Z</time></trkpt><trkpt lat="45.3732719" lon="14.4885707"><ele>302.0</ele><time>2026-05-05T10:30:21.285Z</time></trkpt><trkpt lat="45.3730715" lon="14.4884632"><ele>305.0</ele><time>2026-05-05T10:30:22.285Z</time></trkpt><trkpt lat="45.3728683" lon="14.4883695"><ele>307.0</ele><time>2026-05-05T10:30:23.284Z</time></trkpt><trkpt lat="45.3726601" lon="14.4882832"><ele>309.0</ele><time>2026-05-05T10:30:24.285Z</time></trkpt><trkpt lat="45.3724539" lon="14.4882049"><ele>311.0</ele><time>2026-05-05T10:30:25.285Z</time></trkpt><trkpt lat="45.3722424" lon="14.4881434"><ele>312.0</ele><time>2026-05-05T10:30:26.285Z</time></trkpt><trkpt lat="45.3720361" lon="14.4880872"><ele>313.0</ele><time>2026-05-05T10:30:27.285Z</time></trkpt><trkpt lat="45.3718083" lon="14.4880504"><ele>314.0</ele><time>2026-05-05T10:30:28.284Z</time></trkpt><trkpt lat="45.3715882" lon="14.488015"><ele>314.0</ele><time>2026-05-05T10:30:29.284Z</time></trkpt><trkpt lat="45.3713648" lon="14.4879959"><ele>314.0</ele><time>2026-05-05T10:30:30.284Z</time></trkpt><trkpt lat="45.3711398" lon="14.4879908"><ele>314.0</ele><time>2026-05-05T10:30:31.285Z</time></trkpt><trkpt lat="45.3709242" lon="14.4880071"><ele>313.5</ele><time>2026-05-05T10:30:32.284Z</time></trkpt><trkpt lat="45.3706917" lon="14.4880257"><ele>313.0</ele><time>2026-05-05T10:30:33.285Z</time></trkpt><trkpt lat="45.3704588" lon="14.4880594"><ele>315.5</ele><time>2026-05-05T10:30:34.285Z</time></trkpt><trkpt lat="45.3702407" lon="14.4881116"><ele>318.0</ele><time>2026-05-05T10:30:35.285Z</time></trkpt><trkpt lat="45.3700146" lon="14.4881711"><ele>318.0</ele><time>2026-05-05T10:30:36.285Z</time></trkpt><trkpt lat="45.3697886" lon="14.4882341"><ele>318.0</ele><time>2026-05-05T10:30:37.285Z</time></trkpt><trkpt lat="45.3695624" lon="14.4883246"><ele>318.5</ele><time>2026-05-05T10:30:38.284Z</time></trkpt><trkpt lat="45.3693539" lon="14.4884324"><ele>319.0</ele><time>2026-05-05T10:30:39.285Z</time></trkpt><trkpt lat="45.3691313" lon="14.4885464"><ele>319.0</ele><time>2026-05-05T10:30:40.284Z</time></trkpt><trkpt lat="45.3689085" lon="14.4886638"><ele>319.0</ele><time>2026-05-05T10:30:41.285Z</time></trkpt><trkpt lat="45.3686824" lon="14.4887845"><ele>317.5</ele><time>2026-05-05T10:30:42.285Z</time></trkpt><trkpt lat="45.3684461" lon="14.488909"><ele>316.0</ele><time>2026-05-05T10:30:43.285Z</time></trkpt><trkpt lat="45.3682079" lon="14.4890293"><ele>315.5</ele><time>2026-05-05T10:30:44.285Z</time></trkpt><trkpt lat="45.3679734" lon="14.4891426"><ele>315.0</ele><time>2026-05-05T10:30:45.284Z</time></trkpt><trkpt lat="45.3677405" lon="14.4892622"><ele>315.0</ele><time>2026-05-05T10:30:46.285Z</time></trkpt><trkpt lat="45.3675111" lon="14.4893799"><ele>315.0</ele><time>2026-05-05T10:30:47.284Z</time></trkpt><trkpt lat="45.3672835" lon="14.4894955"><ele>314.0</ele><time>2026-05-05T10:30:48.284Z</time></trkpt><trkpt lat="45.3670577" lon="14.4896202"><ele>313.0</ele><time>2026-05-05T10:30:49.285Z</time></trkpt><trkpt lat="45.366831" lon="14.4897387"><ele>313.0</ele><time>2026-05-05T10:30:50.284Z</time></trkpt><trkpt lat="45.3666092" lon="14.4898583"><ele>313.0</ele><time>2026-05-05T10:30:51.285Z</time></trkpt><trkpt lat="45.3663853" lon="14.4899811"><ele>312.5</ele><time>2026-05-05T10:30:52.285Z</time></trkpt><trkpt lat="45.3661618" lon="14.4900935"><ele>312.0</ele><time>2026-05-05T10:30:53.284Z</time></trkpt><trkpt lat="45.3659379" lon="14.4902086"><ele>312.0</ele><time>2026-05-05T10:30:54.284Z</time></trkpt><trkpt lat="45.365719" lon="14.4903224"><ele>312.0</ele><time>2026-05-05T10:30:55.285Z</time></trkpt><trkpt lat="45.3654987" lon="14.4904388"><ele>312.5</ele><time>2026-05-05T10:30:56.285Z</time></trkpt><trkpt lat="45.3652775" lon="14.4905506"><ele>313.0</ele><time>2026-05-05T10:30:57.284Z</time></trkpt><trkpt lat="45.3650653" lon="14.4906482"><ele>313.0</ele><time>2026-05-05T10:30:58.285Z</time></trkpt><trkpt lat="45.3648537" lon="14.4907527"><ele>313.0</ele><time>2026-05-05T10:30:59.284Z</time></trkpt><trkpt lat="45.3646381" lon="14.4908677"><ele>312.5</ele><time>2026-05-05T10:31:00.285Z</time></trkpt><trkpt lat="45.3644209" lon="14.4909759"><ele>312.0</ele><time>2026-05-05T10:31:01.284Z</time></trkpt><trkpt lat="45.3642039" lon="14.4910842"><ele>312.0</ele><time>2026-05-05T10:31:02.285Z</time></trkpt><trkpt lat="45.3639836" lon="14.4911896"><ele>312.0</ele><time>2026-05-05T10:31:03.285Z</time></trkpt><trkpt lat="45.3637607" lon="14.4913004"><ele>311.0</ele><time>2026-05-05T10:31:04.285Z</time></trkpt><trkpt lat="45.3635411" lon="14.4914014"><ele>310.0</ele><time>2026-05-05T10:31:05.284Z</time></trkpt><trkpt lat="45.3633168" lon="14.4915053"><ele>310.0</ele><time>2026-05-05T10:31:06.285Z</time></trkpt><trkpt lat="45.3630961" lon="14.4916107"><ele>310.0</ele><time>2026-05-05T10:31:07.285Z</time></trkpt><trkpt lat="45.3628674" lon="14.4917202"><ele>313.5</ele><time>2026-05-05T10:31:08.284Z</time></trkpt><trkpt lat="45.3626434" lon="14.4918252"><ele>317.0</ele><time>2026-05-05T10:31:09.284Z</time></trkpt><trkpt lat="45.3624187" lon="14.4919348"><ele>317.0</ele><time>2026-05-05T10:31:10.285Z</time></trkpt><trkpt lat="45.3621907" lon="14.4920371"><ele>317.0</ele><time>2026-05-05T10:31:11.285Z</time></trkpt><trkpt lat="45.3619658" lon="14.4921328"><ele>317.0</ele><time>2026-05-05T10:31:12.285Z</time></trkpt><trkpt lat="45.3617381" lon="14.4922263"><ele>317.0</ele><time>2026-05-05T10:31:13.285Z</time></trkpt><trkpt lat="45.3615106" lon="14.4923216"><ele>315.0</ele><time>2026-05-05T10:31:14.285Z</time></trkpt><trkpt lat="45.3612841" lon="14.4924104"><ele>313.0</ele><time>2026-05-05T10:31:15.284Z</time></trkpt><trkpt lat="45.361059" lon="14.4925007"><ele>313.0</ele><time>2026-05-05T10:31:16.284Z</time></trkpt><trkpt lat="45.3608308" lon="14.4925852"><ele>313.0</ele><time>2026-05-05T10:31:17.284Z</time></trkpt><trkpt lat="45.3606064" lon="14.4926726"><ele>315.0</ele><time>2026-05-05T10:31:18.285Z</time></trkpt><trkpt lat="45.3603808" lon="14.4927552"><ele>317.0</ele><time>2026-05-05T10:31:19.285Z</time></trkpt><trkpt lat="45.3601493" lon="14.4928315"><ele>317.0</ele><time>2026-05-05T10:31:20.284Z</time></trkpt><trkpt lat="45.3599204" lon="14.4929169"><ele>317.0</ele><time>2026-05-05T10:31:21.285Z</time></trkpt><trkpt lat="45.3596902" lon="14.4929973"><ele>316.5</ele><time>2026-05-05T10:31:22.285Z</time></trkpt><trkpt lat="45.359461" lon="14.4930694"><ele>316.0</ele><time>2026-05-05T10:31:23.285Z</time></trkpt><trkpt lat="45.3592285" lon="14.4931418"><ele>316.0</ele><time>2026-05-05T10:31:24.285Z</time></trkpt><trkpt lat="45.3589999" lon="14.4932126"><ele>316.0</ele><time>2026-05-05T10:31:25.284Z</time></trkpt><trkpt lat="45.3587618" lon="14.4932821"><ele>318.0</ele><time>2026-05-05T10:31:26.284Z</time></trkpt><trkpt lat="45.3585397" lon="14.4933463"><ele>320.0</ele><time>2026-05-05T10:31:27.284Z</time></trkpt><trkpt lat="45.3583129" lon="14.493403"><ele>320.0</ele><time>2026-05-05T10:31:28.285Z</time></trkpt><trkpt lat="45.3580949" lon="14.493449"><ele>320.0</ele><time>2026-05-05T10:31:29.285Z</time></trkpt><trkpt lat="45.3578699" lon="14.4934907"><ele>320.0</ele><time>2026-05-05T10:31:30.284Z</time></trkpt><trkpt lat="45.3576505" lon="14.4935179"><ele>320.0</ele><time>2026-05-05T10:31:31.285Z</time></trkpt><trkpt lat="45.3574353" lon="14.4935328"><ele>320.0</ele><time>2026-05-05T10:31:32.284Z</time></trkpt><trkpt lat="45.3572136" lon="14.4935404"><ele>320.0</ele><time>2026-05-05T10:31:33.285Z</time></trkpt><trkpt lat="45.3569917" lon="14.4935263"><ele>320.0</ele><time>2026-05-05T10:31:34.285Z</time></trkpt><trkpt lat="45.3567657" lon="14.4934994"><ele>320.0</ele><time>2026-05-05T10:31:35.285Z</time></trkpt><trkpt lat="45.3565381" lon="14.4934565"><ele>320.5</ele><time>2026-05-05T10:31:36.284Z</time></trkpt><trkpt lat="45.356308" lon="14.4933915"><ele>321.0</ele><time>2026-05-05T10:31:37.285Z</time></trkpt><trkpt lat="45.3560761" lon="14.4933145"><ele>321.0</ele><time>2026-05-05T10:31:38.284Z</time></trkpt><trkpt lat="45.3558578" lon="14.4932254"><ele>321.0</ele><time>2026-05-05T10:31:39.285Z</time></trkpt><trkpt lat="45.355636" lon="14.4931195"><ele>320.0</ele><time>2026-05-05T10:31:40.285Z</time></trkpt><trkpt lat="45.3554113" lon="14.4929972"><ele>319.0</ele><time>2026-05-05T10:31:41.284Z</time></trkpt><trkpt lat="45.3551909" lon="14.4928767"><ele>316.5</ele><time>2026-05-05T10:31:42.285Z</time></trkpt><trkpt lat="45.3549626" lon="14.4927553"><ele>314.0</ele><time>2026-05-05T10:31:43.284Z</time></trkpt><trkpt lat="45.3547298" lon="14.4926387"><ele>313.5</ele><time>2026-05-05T10:31:44.284Z</time></trkpt><trkpt lat="45.3545003" lon="14.4925407"><ele>313.0</ele><time>2026-05-05T10:31:45.284Z</time></trkpt><trkpt lat="45.3542693" lon="14.4924417"><ele>313.0</ele><time>2026-05-05T10:31:46.284Z</time></trkpt><trkpt lat="45.3540364" lon="14.4923574"><ele>313.0</ele><time>2026-05-05T10:31:47.285Z</time></trkpt><trkpt lat="45.3538088" lon="14.49228"><ele>310.5</ele><time>2026-05-05T10:31:48.285Z</time></trkpt><trkpt lat="45.3535874" lon="14.4922099"><ele>308.0</ele><time>2026-05-05T10:31:49.284Z</time></trkpt><trkpt lat="45.3533635" lon="14.4921471"><ele>308.0</ele><time>2026-05-05T10:31:50.284Z</time></trkpt><trkpt lat="45.3531405" lon="14.4920964"><ele>308.0</ele><time>2026-05-05T10:31:51.285Z</time></trkpt><trkpt lat="45.3529214" lon="14.4920452"><ele>308.0</ele><time>2026-05-05T10:31:52.285Z</time></trkpt><trkpt lat="45.3527036" lon="14.4920143"><ele>306.6666666666667</ele><time>2026-05-05T10:31:53.285Z</time></trkpt><trkpt lat="45.3524916" lon="14.4919923"><ele>305.3333333333333</ele><time>2026-05-05T10:31:54.285Z</time></trkpt><trkpt lat="45.3522763" lon="14.4919699"><ele>304.0</ele><time>2026-05-05T10:31:55.285Z</time></trkpt><trkpt lat="45.3520513" lon="14.4919511"><ele>304.0</ele><time>2026-05-05T10:31:56.285Z</time></trkpt><trkpt lat="45.3518294" lon="14.4919535"><ele>304.0</ele><time>2026-05-05T10:31:57.285Z</time></trkpt><trkpt lat="45.3516013" lon="14.4919405"><ele>304.5</ele><time>2026-05-05T10:31:58.285Z</time></trkpt><trkpt lat="45.3513738" lon="14.4919331"><ele>305.0</ele><time>2026-05-05T10:31:59.285Z</time></trkpt><trkpt lat="45.3511495" lon="14.491933"><ele>305.0</ele><time>2026-05-05T10:32:00.285Z</time></trkpt><trkpt lat="45.3509246" lon="14.4919219"><ele>305.0</ele><time>2026-05-05T10:32:01.284Z</time></trkpt><trkpt lat="45.3506938" lon="14.4919226"><ele>310.5</ele><time>2026-05-05T10:32:02.284Z</time></trkpt><trkpt lat="45.350463" lon="14.4919206"><ele>316.0</ele><time>2026-05-05T10:32:03.284Z</time></trkpt><trkpt lat="45.3502262" lon="14.491919"><ele>316.0</ele><time>2026-05-05T10:32:04.285Z</time></trkpt><trkpt lat="45.3499892" lon="14.4919128"><ele>316.0</ele><time>2026-05-05T10:32:05.285Z</time></trkpt><trkpt lat="45.3497559" lon="14.4919046"><ele>316.5</ele><time>2026-05-05T10:32:06.284Z</time></trkpt><trkpt lat="45.34952" lon="14.4919003"><ele>317.0</ele><time>2026-05-05T10:32:07.285Z</time></trkpt><trkpt lat="45.3492874" lon="14.4918967"><ele>317.0</ele><time>2026-05-05T10:32:08.284Z</time></trkpt><trkpt lat="45.3490573" lon="14.4918922"><ele>317.0</ele><time>2026-05-05T10:32:09.285Z</time></trkpt><trkpt lat="45.3488313" lon="14.491889"><ele>316.33333333333337</ele><time>2026-05-05T10:32:10.284Z</time></trkpt><trkpt lat="45.3486034" lon="14.4918824"><ele>315.6666666666667</ele><time>2026-05-05T10:32:11.284Z</time></trkpt><trkpt lat="45.3483836" lon="14.4918763"><ele>315.0</ele><time>2026-05-05T10:32:12.284Z</time></trkpt><trkpt lat="45.3481651" lon="14.4918708"><ele>312.6666666666667</ele><time>2026-05-05T10:32:13.284Z</time></trkpt><trkpt lat="45.3479509" lon="14.4918524"><ele>310.33333333333337</ele><time>2026-05-05T10:32:14.285Z</time></trkpt><trkpt lat="45.3477387" lon="14.4918258"><ele>308.0</ele><time>2026-05-05T10:32:15.284Z</time></trkpt><trkpt lat="45.3475316" lon="14.4917875"><ele>308.0</ele><time>2026-05-05T10:32:16.284Z</time></trkpt><trkpt lat="45.3473302" lon="14.4917282"><ele>308.0</ele><time>2026-05-05T10:32:17.285Z</time></trkpt><trkpt lat="45.3471318" lon="14.4916514"><ele>308.0</ele><time>2026-05-05T10:32:18.285Z</time></trkpt><trkpt lat="45.3469454" lon="14.4915464"><ele>308.6666666666667</ele><time>2026-05-05T10:32:19.285Z</time></trkpt><trkpt lat="45.3467616" lon="14.4914161"><ele>309.3333333333333</ele><time>2026-05-05T10:32:20.285Z</time></trkpt><trkpt lat="45.3465897" lon="14.4912605"><ele>310.0</ele><time>2026-05-05T10:32:21.285Z</time></trkpt><trkpt lat="45.3464368" lon="14.4910932"><ele>311.3333333333333</ele><time>2026-05-05T10:32:22.285Z</time></trkpt><trkpt lat="45.346293" lon="14.4909084"><ele>312.6666666666667</ele><time>2026-05-05T10:32:23.284Z</time></trkpt><trkpt lat="45.3461643" lon="14.4907042"><ele>314.0</ele><time>2026-05-05T10:32:24.285Z</time></trkpt><trkpt lat="45.3460439" lon="14.4904823"><ele>314.6666666666667</ele><time>2026-05-05T10:32:25.285Z</time></trkpt><trkpt lat="45.3459453" lon="14.4902499"><ele>315.3333333333333</ele><time>2026-05-05T10:32:26.285Z</time></trkpt><trkpt lat="45.3458544" lon="14.4900087"><ele>316.0</ele><time>2026-05-05T10:32:27.285Z</time></trkpt><trkpt lat="45.3457799" lon="14.4897622"><ele>315.0</ele><time>2026-05-05T10:32:28.285Z</time></trkpt><trkpt lat="45.3457218" lon="14.4894912"><ele>314.0</ele><time>2026-05-05T10:32:29.284Z</time></trkpt><trkpt lat="45.345683" lon="14.4891768"><ele>313.0</ele><time>2026-05-05T10:32:30.284Z</time></trkpt><trkpt lat="45.3456514" lon="14.4888652"><ele>312.5</ele><time>2026-05-05T10:32:31.284Z</time></trkpt><trkpt lat="45.3456362" lon="14.488533"><ele>312.0</ele><time>2026-05-05T10:32:32.285Z</time></trkpt><trkpt lat="45.3456173" lon="14.488202"><ele>312.0</ele><time>2026-05-05T10:32:33.284Z</time></trkpt><trkpt lat="45.3455988" lon="14.4878629"><ele>312.0</ele><time>2026-05-05T10:32:34.284Z</time></trkpt><trkpt lat="45.3455827" lon="14.4875354"><ele>312.0</ele><time>2026-05-05T10:32:35.284Z</time></trkpt><trkpt lat="45.3455706" lon="14.4872078"><ele>312.0</ele><time>2026-05-05T10:32:36.284Z</time></trkpt><trkpt lat="45.3455514" lon="14.4869007"><ele>312.0</ele><time>2026-05-05T10:32:37.284Z</time></trkpt><trkpt lat="45.3455416" lon="14.4866193"><ele>311.0</ele><time>2026-05-05T10:32:38.284Z</time></trkpt><trkpt lat="45.3455266" lon="14.4863593"><ele>310.0</ele><time>2026-05-05T10:32:39.285Z</time></trkpt><trkpt lat="45.3455157" lon="14.4861153"><ele>309.0</ele><time>2026-05-05T10:32:40.284Z</time></trkpt><trkpt lat="45.3454885" lon="14.4859164"><ele>311.0</ele><time>2026-05-05T10:32:41.285Z</time></trkpt><trkpt lat="45.3454685" lon="14.4857267"><ele>313.0</ele><time>2026-05-05T10:32:42.284Z</time></trkpt><trkpt lat="45.3454369" lon="14.4855375"><ele>315.0</ele><time>2026-05-05T10:32:43.285Z</time></trkpt><trkpt lat="45.3454131" lon="14.4853602"><ele>317.0</ele><time>2026-05-05T10:32:44.284Z</time></trkpt><trkpt lat="45.3453905" lon="14.4851867"><ele>318.75</ele><time>2026-05-05T10:32:45.284Z</time></trkpt><trkpt lat="45.3453758" lon="14.4850128"><ele>320.5</ele><time>2026-05-05T10:32:46.284Z</time></trkpt><trkpt lat="45.3453626" lon="14.4848136"><ele>322.25</ele><time>2026-05-05T10:32:47.285Z</time></trkpt><trkpt lat="45.3453475" lon="14.4846152"><ele>324.0</ele><time>2026-05-05T10:32:48.284Z</time></trkpt><trkpt lat="45.345337" lon="14.4844146"><ele>324.0</ele><time>2026-05-05T10:32:49.285Z</time></trkpt><trkpt lat="45.3453281" lon="14.484206"><ele>324.0</ele><time>2026-05-05T10:32:50.284Z</time></trkpt><trkpt lat="45.3453206" lon="14.4840002"><ele>324.0</ele><time>2026-05-05T10:32:51.284Z</time></trkpt><trkpt lat="45.3453167" lon="14.4837704"><ele>322.6666666666667</ele><time>2026-05-05T10:32:52.285Z</time></trkpt><trkpt lat="45.3453062" lon="14.4835503"><ele>321.33333333333337</ele><time>2026-05-05T10:32:53.285Z</time></trkpt><trkpt lat="45.3452959" lon="14.4833251"><ele>320.0</ele><time>2026-05-05T10:32:54.284Z</time></trkpt><trkpt lat="45.3452816" lon="14.483093"><ele>319.33333333333337</ele><time>2026-05-05T10:32:55.285Z</time></trkpt><trkpt lat="45.3452724" lon="14.4828677"><ele>318.6666666666667</ele><time>2026-05-05T10:32:56.285Z</time></trkpt><trkpt lat="45.3452606" lon="14.4826385"><ele>318.0</ele><time>2026-05-05T10:32:57.285Z</time></trkpt><trkpt lat="45.3452525" lon="14.4824079"><ele>318.0</ele><time>2026-05-05T10:32:58.284Z</time></trkpt><trkpt lat="45.3452437" lon="14.4821636"><ele>318.0</ele><time>2026-05-05T10:32:59.285Z</time></trkpt><trkpt lat="45.3452327" lon="14.4819196"><ele>318.0</ele><time>2026-05-05T10:33:00.285Z</time></trkpt><trkpt lat="45.3452312" lon="14.4816646"><ele>318.3333333333333</ele><time>2026-05-05T10:33:01.285Z</time></trkpt><trkpt lat="45.3452362" lon="14.4814107"><ele>318.66666666666663</ele><time>2026-05-05T10:33:02.284Z</time></trkpt><trkpt lat="45.345246" lon="14.4811675"><ele>319.0</ele><time>2026-05-05T10:33:03.285Z</time></trkpt><trkpt lat="45.3452619" lon="14.4809181"><ele>319.3333333333333</ele><time>2026-05-05T10:33:04.284Z</time></trkpt><trkpt lat="45.345282" lon="14.4806717"><ele>319.6666666666667</ele><time>2026-05-05T10:33:05.285Z</time></trkpt><trkpt lat="45.3453058" lon="14.4804212"><ele>320.0</ele><time>2026-05-05T10:33:06.285Z</time></trkpt><trkpt lat="45.345343" lon="14.4801659"><ele>318.6666666666667</ele><time>2026-05-05T10:33:07.285Z</time></trkpt><trkpt lat="45.345385" lon="14.4799105"><ele>317.3333333333333</ele><time>2026-05-05T10:33:08.285Z</time></trkpt><trkpt lat="45.3454341" lon="14.4796557"><ele>316.0</ele><time>2026-05-05T10:33:09.285Z</time></trkpt><trkpt lat="45.3454902" lon="14.4794043"><ele>311.0</ele><time>2026-05-05T10:33:10.285Z</time></trkpt><trkpt lat="45.3455493" lon="14.4791486"><ele>306.0</ele><time>2026-05-05T10:33:11.285Z</time></trkpt><trkpt lat="45.3456199" lon="14.4789012"><ele>301.0</ele><time>2026-05-05T10:33:12.285Z</time></trkpt><trkpt lat="45.3456956" lon="14.4786509"><ele>298.0</ele><time>2026-05-05T10:33:13.285Z</time></trkpt><trkpt lat="45.3457731" lon="14.4783977"><ele>295.0</ele><time>2026-05-05T10:33:14.285Z</time></trkpt><trkpt lat="45.3458558" lon="14.4781441"><ele>292.0</ele><time>2026-05-05T10:33:15.285Z</time></trkpt><trkpt lat="45.345953" lon="14.4778963"><ele>290.66666666666663</ele><time>2026-05-05T10:33:16.285Z</time></trkpt><trkpt lat="45.3460535" lon="14.4776641"><ele>289.3333333333333</ele><time>2026-05-05T10:33:17.285Z</time></trkpt><trkpt lat="45.3461639" lon="14.4774301"><ele>288.0</ele><time>2026-05-05T10:33:18.285Z</time></trkpt><trkpt lat="45.3462831" lon="14.4771968"><ele>288.0</ele><time>2026-05-05T10:33:19.285Z</time></trkpt><trkpt lat="45.3464001" lon="14.4769723"><ele>288.0</ele><time>2026-05-05T10:33:20.285Z</time></trkpt><trkpt lat="45.3465244" lon="14.4767604"><ele>288.0</ele><time>2026-05-05T10:33:21.284Z</time></trkpt><trkpt lat="45.3466524" lon="14.4765511"><ele>288.0</ele><time>2026-05-05T10:33:22.285Z</time></trkpt><trkpt lat="45.346777" lon="14.476345"><ele>288.0</ele><time>2026-05-05T10:33:23.285Z</time></trkpt><trkpt lat="45.3469069" lon="14.4761418"><ele>288.0</ele><time>2026-05-05T10:33:24.285Z</time></trkpt><trkpt lat="45.3470327" lon="14.475945"><ele>287.6666666666667</ele><time>2026-05-05T10:33:25.285Z</time></trkpt><trkpt lat="45.3471592" lon="14.4757391"><ele>287.33333333333337</ele><time>2026-05-05T10:33:26.285Z</time></trkpt><trkpt lat="45.3472932" lon="14.4755248"><ele>287.0</ele><time>2026-05-05T10:33:27.285Z</time></trkpt><trkpt lat="45.3474222" lon="14.4753112"><ele>287.0</ele><time>2026-05-05T10:33:28.285Z</time></trkpt><trkpt lat="45.3475545" lon="14.4751029"><ele>287.0</ele><time>2026-05-05T10:33:29.285Z</time></trkpt><trkpt lat="45.3476825" lon="14.4748947"><ele>287.0</ele><time>2026-05-05T10:33:30.285Z</time></trkpt><trkpt lat="45.3478208" lon="14.4746722"><ele>287.0</ele><time>2026-05-05T10:33:31.284Z</time></trkpt><trkpt lat="45.3479459" lon="14.4744708"><ele>287.0</ele><time>2026-05-05T10:33:32.284Z</time></trkpt><trkpt lat="45.3480766" lon="14.4742791"><ele>287.0</ele><time>2026-05-05T10:33:33.284Z</time></trkpt><trkpt lat="45.3482103" lon="14.474071"><ele>285.0</ele><time>2026-05-05T10:33:34.284Z</time></trkpt><trkpt lat="45.3483327" lon="14.4738566"><ele>283.0</ele><time>2026-05-05T10:33:35.285Z</time></trkpt><trkpt lat="45.3484509" lon="14.4736443"><ele>281.0</ele><time>2026-05-05T10:33:36.285Z</time></trkpt><trkpt lat="45.3485745" lon="14.4734236"><ele>278.0</ele><time>2026-05-05T10:33:37.285Z</time></trkpt><trkpt lat="45.3486899" lon="14.4732111"><ele>275.0</ele><time>2026-05-05T10:33:38.285Z</time></trkpt><trkpt lat="45.3488051" lon="14.4729804"><ele>272.0</ele><time>2026-05-05T10:33:39.285Z</time></trkpt><trkpt lat="45.3489168" lon="14.472742"><ele>270.0</ele><time>2026-05-05T10:33:40.284Z</time></trkpt><trkpt lat="45.3490241" lon="14.4725073"><ele>268.0</ele><time>2026-05-05T10:33:41.285Z</time></trkpt><trkpt lat="45.3491307" lon="14.4722611"><ele>266.0</ele><time>2026-05-05T10:33:42.285Z</time></trkpt><trkpt lat="45.3492283" lon="14.4720148"><ele>261.33333333333337</ele><time>2026-05-05T10:33:43.284Z</time></trkpt><trkpt lat="45.3493228" lon="14.4717675"><ele>256.6666666666667</ele><time>2026-05-05T10:33:44.285Z</time></trkpt><trkpt lat="45.349414" lon="14.4715204"><ele>252.0</ele><time>2026-05-05T10:33:45.285Z</time></trkpt><trkpt lat="45.3495045" lon="14.4712641"><ele>252.0</ele><time>2026-05-05T10:33:46.284Z</time></trkpt><trkpt lat="45.3495928" lon="14.4710044"><ele>252.0</ele><time>2026-05-05T10:33:47.284Z</time></trkpt><trkpt lat="45.349673" lon="14.470752"><ele>252.0</ele><time>2026-05-05T10:33:48.285Z</time></trkpt><trkpt lat="45.3497643" lon="14.4704959"><ele>251.0</ele><time>2026-05-05T10:33:49.284Z</time></trkpt><trkpt lat="45.3498484" lon="14.4702399"><ele>250.0</ele><time>2026-05-05T10:33:50.284Z</time></trkpt><trkpt lat="45.3499318" lon="14.4699853"><ele>249.0</ele><time>2026-05-05T10:33:51.285Z</time></trkpt><trkpt lat="45.3500147" lon="14.469732"><ele>245.33333333333331</ele><time>2026-05-05T10:33:52.284Z</time></trkpt><trkpt lat="45.3501032" lon="14.469471"><ele>241.66666666666666</ele><time>2026-05-05T10:33:53.285Z</time></trkpt><trkpt lat="45.3501811" lon="14.4692163"><ele>238.0</ele><time>2026-05-05T10:33:54.284Z</time></trkpt><trkpt lat="45.3502547" lon="14.4689607"><ele>233.33333333333331</ele><time>2026-05-05T10:33:55.284Z</time></trkpt><trkpt lat="45.3503144" lon="14.468713"><ele>228.66666666666669</ele><time>2026-05-05T10:33:56.285Z</time></trkpt><trkpt lat="45.3503597" lon="14.4684547"><ele>224.0</ele><time>2026-05-05T10:33:57.285Z</time></trkpt><trkpt lat="45.3503922" lon="14.468191"><ele>220.33333333333334</ele><time>2026-05-05T10:33:58.285Z</time></trkpt><trkpt lat="45.350408" lon="14.4679288"><ele>216.66666666666669</ele><time>2026-05-05T10:33:59.284Z</time></trkpt><trkpt lat="45.3504063" lon="14.4676683"><ele>213.0</ele><time>2026-05-05T10:34:00.285Z</time></trkpt><trkpt lat="45.35039" lon="14.4674065"><ele>213.0</ele><time>2026-05-05T10:34:01.285Z</time></trkpt><trkpt lat="45.3503493" lon="14.4671586"><ele>213.0</ele><time>2026-05-05T10:34:02.285Z</time></trkpt><trkpt lat="45.3502947" lon="14.4669034"><ele>213.0</ele><time>2026-05-05T10:34:03.285Z</time></trkpt><trkpt lat="45.3502325" lon="14.4666591"><ele>212.33333333333331</ele><time>2026-05-05T10:34:04.285Z</time></trkpt><trkpt lat="45.3501468" lon="14.4664186"><ele>211.66666666666666</ele><time>2026-05-05T10:34:05.285Z</time></trkpt><trkpt lat="45.3500501" lon="14.4661853"><ele>211.0</ele><time>2026-05-05T10:34:06.285Z</time></trkpt><trkpt lat="45.3499316" lon="14.4659779"><ele>209.66666666666666</ele><time>2026-05-05T10:34:07.285Z</time></trkpt><trkpt lat="45.349805" lon="14.4657826"><ele>208.33333333333331</ele><time>2026-05-05T10:34:08.285Z</time></trkpt><trkpt lat="45.3496668" lon="14.4656126"><ele>207.0</ele><time>2026-05-05T10:34:09.285Z</time></trkpt><trkpt lat="45.3495151" lon="14.4654527"><ele>209.0</ele><time>2026-05-05T10:34:10.285Z</time></trkpt><trkpt lat="45.3493557" lon="14.4653049"><ele>211.0</ele><time>2026-05-05T10:34:11.284Z</time></trkpt><trkpt lat="45.3491886" lon="14.465189"><ele>213.0</ele><time>2026-05-05T10:34:12.284Z</time></trkpt><trkpt lat="45.3490092" lon="14.4650971"><ele>211.0</ele><time>2026-05-05T10:34:13.284Z</time></trkpt><trkpt lat="45.3488225" lon="14.465027"><ele>209.0</ele><time>2026-05-05T10:34:14.285Z</time></trkpt><trkpt lat="45.3486329" lon="14.4649763"><ele>207.0</ele><time>2026-05-05T10:34:15.285Z</time></trkpt><trkpt lat="45.348441" lon="14.464951"><ele>207.0</ele><time>2026-05-05T10:34:16.284Z</time></trkpt><trkpt lat="45.3482502" lon="14.4649484"><ele>207.0</ele><time>2026-05-05T10:34:17.285Z</time></trkpt><trkpt lat="45.3480529" lon="14.4649551"><ele>207.0</ele><time>2026-05-05T10:34:18.284Z</time></trkpt><trkpt lat="45.3478507" lon="14.4649685"><ele>207.66666666666669</ele><time>2026-05-05T10:34:19.284Z</time></trkpt><trkpt lat="45.347649" lon="14.4649933"><ele>208.33333333333334</ele><time>2026-05-05T10:34:20.285Z</time></trkpt><trkpt lat="45.3474413" lon="14.4650125"><ele>209.0</ele><time>2026-05-05T10:34:21.284Z</time></trkpt><trkpt lat="45.3472398" lon="14.4650387"><ele>207.0</ele><time>2026-05-05T10:34:22.284Z</time></trkpt><trkpt lat="45.3470405" lon="14.465058"><ele>205.0</ele><time>2026-05-05T10:34:23.285Z</time></trkpt><trkpt lat="45.3468419" lon="14.4650817"><ele>203.0</ele><time>2026-05-05T10:34:24.284Z</time></trkpt><trkpt lat="45.3466537" lon="14.4651111"><ele>203.0</ele><time>2026-05-05T10:34:25.285Z</time></trkpt><trkpt lat="45.3464607" lon="14.4651414"><ele>203.0</ele><time>2026-05-05T10:34:26.284Z</time></trkpt><trkpt lat="45.3462744" lon="14.4651804"><ele>203.0</ele><time>2026-05-05T10:34:27.285Z</time></trkpt><trkpt lat="45.3460879" lon="14.4652206"><ele>205.66666666666669</ele><time>2026-05-05T10:34:28.285Z</time></trkpt><trkpt lat="45.3459027" lon="14.4652629"><ele>208.33333333333331</ele><time>2026-05-05T10:34:29.285Z</time></trkpt><trkpt lat="45.3457139" lon="14.4653096"><ele>211.0</ele><time>2026-05-05T10:34:30.285Z</time></trkpt><trkpt lat="45.3455281" lon="14.4653626"><ele>211.0</ele><time>2026-05-05T10:34:31.285Z</time></trkpt><trkpt lat="45.3453415" lon="14.4654229"><ele>211.0</ele><time>2026-05-05T10:34:32.285Z</time></trkpt><trkpt lat="45.3451573" lon="14.4654791"><ele>211.0</ele><time>2026-05-05T10:34:33.285Z</time></trkpt><trkpt lat="45.3449719" lon="14.4655274"><ele>204.33333333333331</ele><time>2026-05-05T10:34:34.284Z</time></trkpt><trkpt lat="45.3447905" lon="14.4655661"><ele>197.66666666666666</ele><time>2026-05-05T10:34:35.284Z</time></trkpt><trkpt lat="45.3446047" lon="14.465598"><ele>191.0</ele><time>2026-05-05T10:34:36.285Z</time></trkpt><trkpt lat="45.3444246" lon="14.4656222"><ele>191.0</ele><time>2026-05-05T10:34:37.285Z</time></trkpt><trkpt lat="45.3442446" lon="14.4656554"><ele>191.0</ele><time>2026-05-05T10:34:38.285Z</time></trkpt><trkpt lat="45.3440724" lon="14.4656943"><ele>191.0</ele><time>2026-05-05T10:34:39.285Z</time></trkpt><trkpt lat="45.3438886" lon="14.4657265"><ele>188.66666666666666</ele><time>2026-05-05T10:34:40.284Z</time></trkpt><trkpt lat="45.3437019" lon="14.4657708"><ele>186.33333333333334</ele><time>2026-05-05T10:34:41.284Z</time></trkpt><trkpt lat="45.3435126" lon="14.4658224"><ele>184.0</ele><time>2026-05-05T10:34:42.285Z</time></trkpt><trkpt lat="45.3433333" lon="14.4658738"><ele>184.0</ele><time>2026-05-05T10:34:43.285Z</time></trkpt><trkpt lat="45.343151" lon="14.4659317"><ele>184.0</ele><time>2026-05-05T10:34:44.285Z</time></trkpt><trkpt lat="45.3429619" lon="14.4659797"><ele>184.0</ele><time>2026-05-05T10:34:45.284Z</time></trkpt><trkpt lat="45.3427799" lon="14.4660482"><ele>181.0</ele><time>2026-05-05T10:34:46.285Z</time></trkpt><trkpt lat="45.3426032" lon="14.4661142"><ele>178.0</ele><time>2026-05-05T10:34:47.285Z</time></trkpt><trkpt lat="45.3424238" lon="14.4661928"><ele>175.0</ele><time>2026-05-05T10:34:48.285Z</time></trkpt><trkpt lat="45.3422466" lon="14.4662751"><ele>170.0</ele><time>2026-05-05T10:34:49.285Z</time></trkpt><trkpt lat="45.3420705" lon="14.4663809"><ele>165.0</ele><time>2026-05-05T10:34:50.285Z</time></trkpt><trkpt lat="45.3418939" lon="14.4665036"><ele>160.0</ele><time>2026-05-05T10:34:51.284Z</time></trkpt><trkpt lat="45.3417291" lon="14.4666325"><ele>160.0</ele><time>2026-05-05T10:34:52.284Z</time></trkpt><trkpt lat="45.3415687" lon="14.4667805"><ele>160.0</ele><time>2026-05-05T10:34:53.285Z</time></trkpt><trkpt lat="45.3414126" lon="14.4669425"><ele>160.0</ele><time>2026-05-05T10:34:54.284Z</time></trkpt><trkpt lat="45.3412687" lon="14.467107"><ele>159.66666666666669</ele><time>2026-05-05T10:34:55.284Z</time></trkpt><trkpt lat="45.3411191" lon="14.467286"><ele>159.33333333333334</ele><time>2026-05-05T10:34:56.284Z</time></trkpt><trkpt lat="45.3409912" lon="14.4674654"><ele>159.0</ele><time>2026-05-05T10:34:57.285Z</time></trkpt><trkpt lat="45.3408594" lon="14.4676581"><ele>159.0</ele><time>2026-05-05T10:34:58.284Z</time></trkpt><trkpt lat="45.3407485" lon="14.4678578"><ele>159.0</ele><time>2026-05-05T10:34:59.285Z</time></trkpt><trkpt lat="45.3406503" lon="14.4680417"><ele>159.0</ele><time>2026-05-05T10:35:00.284Z</time></trkpt><trkpt lat="45.3405536" lon="14.4682431"><ele>155.66666666666666</ele><time>2026-05-05T10:35:01.285Z</time></trkpt><trkpt lat="45.3404654" lon="14.4684425"><ele>152.33333333333331</ele><time>2026-05-05T10:35:02.285Z</time></trkpt><trkpt lat="45.3403752" lon="14.468646"><ele>149.0</ele><time>2026-05-05T10:35:03.284Z</time></trkpt><trkpt lat="45.3402856" lon="14.4688578"><ele>149.0</ele><time>2026-05-05T10:35:04.285Z</time></trkpt><trkpt lat="45.3401849" lon="14.4690714"><ele>149.0</ele><time>2026-05-05T10:35:05.284Z</time></trkpt><trkpt lat="45.3400774" lon="14.4692868"><ele>149.0</ele><time>2026-05-05T10:35:06.285Z</time></trkpt><trkpt lat="45.3399573" lon="14.4694855"><ele>148.66666666666666</ele><time>2026-05-05T10:35:07.285Z</time></trkpt><trkpt lat="45.3398273" lon="14.4696665"><ele>148.33333333333334</ele><time>2026-05-05T10:35:08.285Z</time></trkpt><trkpt lat="45.3396874" lon="14.4698231"><ele>148.0</ele><time>2026-05-05T10:35:09.284Z</time></trkpt><trkpt lat="45.3395488" lon="14.4699606"><ele>145.0</ele><time>2026-05-05T10:35:10.285Z</time></trkpt><trkpt lat="45.3394085" lon="14.4700856"><ele>142.0</ele><time>2026-05-05T10:35:11.284Z</time></trkpt><trkpt lat="45.3392685" lon="14.470187"><ele>139.0</ele><time>2026-05-05T10:35:12.284Z</time></trkpt><trkpt lat="45.3391205" lon="14.4702765"><ele>139.0</ele><time>2026-05-05T10:35:13.284Z</time></trkpt><trkpt lat="45.3389682" lon="14.4703375"><ele>139.0</ele><time>2026-05-05T10:35:14.285Z</time></trkpt><trkpt lat="45.3388081" lon="14.4703792"><ele>139.0</ele><time>2026-05-05T10:35:15.285Z</time></trkpt><trkpt lat="45.338652" lon="14.4704055"><ele>136.66666666666669</ele><time>2026-05-05T10:35:16.284Z</time></trkpt><trkpt lat="45.3384926" lon="14.4704059"><ele>134.33333333333334</ele><time>2026-05-05T10:35:17.284Z</time></trkpt><trkpt lat="45.3383347" lon="14.4703899"><ele>132.0</ele><time>2026-05-05T10:35:18.284Z</time></trkpt><trkpt lat="45.3381717" lon="14.4703566"><ele>130.33333333333334</ele><time>2026-05-05T10:35:19.285Z</time></trkpt><trkpt lat="45.3380145" lon="14.4703032"><ele>128.66666666666669</ele><time>2026-05-05T10:35:20.285Z</time></trkpt><trkpt lat="45.3378609" lon="14.4702291"><ele>127.0</ele><time>2026-05-05T10:35:21.285Z</time></trkpt><trkpt lat="45.3377152" lon="14.4701444"><ele>127.0</ele><time>2026-05-05T10:35:22.285Z</time></trkpt><trkpt lat="45.3375676" lon="14.470025"><ele>127.0</ele><time>2026-05-05T10:35:23.284Z</time></trkpt><trkpt lat="45.3374284" lon="14.4698872"><ele>127.0</ele><time>2026-05-05T10:35:24.284Z</time></trkpt><trkpt lat="45.3372973" lon="14.4697506"><ele>126.66666666666667</ele><time>2026-05-05T10:35:25.285Z</time></trkpt><trkpt lat="45.3371874" lon="14.4695883"><ele>126.33333333333334</ele><time>2026-05-05T10:35:26.285Z</time></trkpt><trkpt lat="45.3370791" lon="14.4694151"><ele>126.0</ele><time>2026-05-05T10:35:27.284Z</time></trkpt><trkpt lat="45.3369673" lon="14.4692396"><ele>126.0</ele><time>2026-05-05T10:35:28.285Z</time></trkpt><trkpt lat="45.3368522" lon="14.4690676"><ele>126.0</ele><time>2026-05-05T10:35:29.284Z</time></trkpt><trkpt lat="45.3367527" lon="14.4688892"><ele>126.0</ele><time>2026-05-05T10:35:30.285Z</time></trkpt><trkpt lat="45.3366582" lon="14.4687091"><ele>126.33333333333334</ele><time>2026-05-05T10:35:31.284Z</time></trkpt><trkpt lat="45.3365743" lon="14.4685417"><ele>126.66666666666667</ele><time>2026-05-05T10:35:32.284Z</time></trkpt><trkpt lat="45.3364779" lon="14.4683516"><ele>127.0</ele><time>2026-05-05T10:35:33.284Z</time></trkpt><trkpt lat="45.3363733" lon="14.4681651"><ele>132.66666666666669</ele><time>2026-05-05T10:35:34.285Z</time></trkpt><trkpt lat="45.3362613" lon="14.4679664"><ele>138.33333333333334</ele><time>2026-05-05T10:35:35.284Z</time></trkpt><trkpt lat="45.3361542" lon="14.4677701"><ele>144.0</ele><time>2026-05-05T10:35:36.285Z</time></trkpt><trkpt lat="45.3360476" lon="14.4675732"><ele>99.0</ele><time>2026-05-05T10:35:37.285Z</time></trkpt><trkpt lat="45.334387" lon="14.4583509"><ele>99.0</ele><time>2026-05-05T10:36:18.284Z</time></trkpt><trkpt lat="45.334483" lon="14.458131"><ele>99.0</ele><time>2026-05-05T10:36:19.284Z</time></trkpt><trkpt lat="45.3345767" lon="14.457918"><ele>99.0</ele><time>2026-05-05T10:36:20.285Z</time></trkpt><trkpt lat="45.3346691" lon="14.4577082"><ele>89.66666666666667</ele><time>2026-05-05T10:36:21.285Z</time></trkpt><trkpt lat="45.3347602" lon="14.457503"><ele>80.33333333333334</ele><time>2026-05-05T10:36:22.285Z</time></trkpt><trkpt lat="45.3348522" lon="14.4572954"><ele>71.0</ele><time>2026-05-05T10:36:23.285Z</time></trkpt><trkpt lat="45.3349442" lon="14.4570904"><ele>67.33333333333334</ele><time>2026-05-05T10:36:24.285Z</time></trkpt><trkpt lat="45.335034" lon="14.4568863"><ele>63.66666666666667</ele><time>2026-05-05T10:36:25.285Z</time></trkpt><trkpt lat="45.335125" lon="14.4566866"><ele>60.0</ele><time>2026-05-05T10:36:26.285Z</time></trkpt><trkpt lat="45.3352143" lon="14.4564877"><ele>60.0</ele><time>2026-05-05T10:36:27.284Z</time></trkpt><trkpt lat="45.3353049" lon="14.4562875"><ele>60.0</ele><time>2026-05-05T10:36:28.285Z</time></trkpt><trkpt lat="45.3353916" lon="14.45609"><ele>60.0</ele><time>2026-05-05T10:36:29.285Z</time></trkpt><trkpt lat="45.3354705" lon="14.4559033"><ele>65.33333333333333</ele><time>2026-05-05T10:36:30.285Z</time></trkpt><trkpt lat="45.3355514" lon="14.4557189"><ele>70.66666666666666</ele><time>2026-05-05T10:36:31.285Z</time></trkpt><trkpt lat="45.3356321" lon="14.4555345"><ele>76.0</ele><time>2026-05-05T10:36:32.285Z</time></trkpt><trkpt lat="45.3354439" lon="14.4501572"><ele>76.0</ele><time>2026-05-05T10:37:00.285Z</time></trkpt><trkpt lat="45.3353517" lon="14.4499776"><ele>76.0</ele><time>2026-05-05T10:37:01.285Z</time></trkpt><trkpt lat="45.3352546" lon="14.4497741"><ele>76.0</ele><time>2026-05-05T10:37:02.285Z</time></trkpt><trkpt lat="45.3351565" lon="14.4496034"><ele>84.0</ele><time>2026-05-05T10:37:03.284Z</time></trkpt><trkpt lat="45.3350618" lon="14.4494299"><ele>92.0</ele><time>2026-05-05T10:37:04.285Z</time></trkpt><trkpt lat="45.334965" lon="14.4492539"><ele>100.0</ele><time>2026-05-05T10:37:05.285Z</time></trkpt><trkpt lat="45.3348689" lon="14.4490784"><ele>100.0</ele><time>2026-05-05T10:37:06.285Z</time></trkpt><trkpt lat="45.3347697" lon="14.4488953"><ele>100.0</ele><time>2026-05-05T10:37:07.284Z</time></trkpt><trkpt lat="45.3346739" lon="14.4487164"><ele>100.0</ele><time>2026-05-05T10:37:08.285Z</time></trkpt><trkpt lat="45.3345858" lon="14.448526"><ele>102.0</ele><time>2026-05-05T10:37:09.284Z</time></trkpt><trkpt lat="45.3345048" lon="14.4483345"><ele>104.0</ele><time>2026-05-05T10:37:10.285Z</time></trkpt><trkpt lat="45.3344404" lon="14.4481356"><ele>106.0</ele><time>2026-05-05T10:37:11.284Z</time></trkpt><trkpt lat="45.3343837" lon="14.4479257"><ele>106.0</ele><time>2026-05-05T10:37:12.285Z</time></trkpt><trkpt lat="45.3343433" lon="14.4477201"><ele>106.0</ele><time>2026-05-05T10:37:13.285Z</time></trkpt><trkpt lat="45.3343152" lon="14.4475129"><ele>106.0</ele><time>2026-05-05T10:37:14.285Z</time></trkpt><trkpt lat="45.334299" lon="14.447303"><ele>106.0</ele><time>2026-05-05T10:37:15.285Z</time></trkpt><trkpt lat="45.334292" lon="14.4470902"><ele>106.25</ele><time>2026-05-05T10:37:16.284Z</time></trkpt><trkpt lat="45.3343005" lon="14.4469134"><ele>106.5</ele><time>2026-05-05T10:37:17.284Z</time></trkpt><trkpt lat="45.3343255" lon="14.4467266"><ele>106.75</ele><time>2026-05-05T10:37:18.284Z</time></trkpt><trkpt lat="45.3343513" lon="14.4465332"><ele>107.0</ele><time>2026-05-05T10:37:19.284Z</time></trkpt><trkpt lat="45.3343903" lon="14.4463439"><ele>105.75</ele><time>2026-05-05T10:37:20.285Z</time></trkpt><trkpt lat="45.3344387" lon="14.4461556"><ele>104.5</ele><time>2026-05-05T10:37:21.284Z</time></trkpt><trkpt lat="45.3344996" lon="14.4459685"><ele>103.25</ele><time>2026-05-05T10:37:22.285Z</time></trkpt><trkpt lat="45.3345664" lon="14.4457908"><ele>102.0</ele><time>2026-05-05T10:37:23.285Z</time></trkpt><trkpt lat="45.3346506" lon="14.445633"><ele>103.5</ele><time>2026-05-05T10:37:24.284Z</time></trkpt><trkpt lat="45.3347382" lon="14.4454725"><ele>105.0</ele><time>2026-05-05T10:37:25.284Z</time></trkpt><trkpt lat="45.3348331" lon="14.4453205"><ele>106.5</ele><time>2026-05-05T10:37:26.284Z</time></trkpt><trkpt lat="45.334937" lon="14.4451762"><ele>108.0</ele><time>2026-05-05T10:37:27.285Z</time></trkpt><trkpt lat="45.3350449" lon="14.4450398"><ele>108.0</ele><time>2026-05-05T10:37:28.284Z</time></trkpt><trkpt lat="45.3351535" lon="14.4449054"><ele>108.0</ele><time>2026-05-05T10:37:29.284Z</time></trkpt><trkpt lat="45.3352649" lon="14.4447722"><ele>108.0</ele><time>2026-05-05T10:37:30.285Z</time></trkpt><trkpt lat="45.3353795" lon="14.4446388"><ele>108.0</ele><time>2026-05-05T10:37:31.284Z</time></trkpt><trkpt lat="45.3354977" lon="14.4445022"><ele>109.0</ele><time>2026-05-05T10:37:32.285Z</time></trkpt><trkpt lat="45.3356185" lon="14.4443606"><ele>110.0</ele><time>2026-05-05T10:37:33.284Z</time></trkpt><trkpt lat="45.335739" lon="14.4442208"><ele>111.0</ele><time>2026-05-05T10:37:34.285Z</time></trkpt><trkpt lat="45.3358597" lon="14.4440763"><ele>111.0</ele><time>2026-05-05T10:37:35.285Z</time></trkpt><trkpt lat="45.3359808" lon="14.4439345"><ele>111.0</ele><time>2026-05-05T10:37:36.285Z</time></trkpt><trkpt lat="45.3361024" lon="14.4437928"><ele>111.0</ele><time>2026-05-05T10:37:37.284Z</time></trkpt><trkpt lat="45.3362213" lon="14.4436491"><ele>112.66666666666666</ele><time>2026-05-05T10:37:38.284Z</time></trkpt><trkpt lat="45.3363405" lon="14.4435017"><ele>114.33333333333333</ele><time>2026-05-05T10:37:39.285Z</time></trkpt><trkpt lat="45.3364525" lon="14.4433513"><ele>116.0</ele><time>2026-05-05T10:37:40.285Z</time></trkpt><trkpt lat="45.3365602" lon="14.4431868"><ele>116.0</ele><time>2026-05-05T10:37:41.284Z</time></trkpt><trkpt lat="45.3366604" lon="14.4430135"><ele>116.0</ele><time>2026-05-05T10:37:42.285Z</time></trkpt><trkpt lat="45.3367512" lon="14.4428336"><ele>116.0</ele><time>2026-05-05T10:37:43.285Z</time></trkpt><trkpt lat="45.3368331" lon="14.4426454"><ele>115.66666666666666</ele><time>2026-05-05T10:37:44.285Z</time></trkpt><trkpt lat="45.3369104" lon="14.442447"><ele>115.33333333333334</ele><time>2026-05-05T10:37:45.285Z</time></trkpt><trkpt lat="45.3369743" lon="14.4422404"><ele>115.0</ele><time>2026-05-05T10:37:46.285Z</time></trkpt><trkpt lat="45.3370267" lon="14.442026"><ele>112.66666666666667</ele><time>2026-05-05T10:37:47.285Z</time></trkpt><trkpt lat="45.3370699" lon="14.4418088"><ele>110.33333333333334</ele><time>2026-05-05T10:37:48.284Z</time></trkpt><trkpt lat="45.3371029" lon="14.4415913"><ele>108.0</ele><time>2026-05-05T10:37:49.285Z</time></trkpt><trkpt lat="45.3371285" lon="14.4413729"><ele>106.33333333333334</ele><time>2026-05-05T10:37:50.284Z</time></trkpt><trkpt lat="45.3371453" lon="14.4411562"><ele>104.66666666666667</ele><time>2026-05-05T10:37:51.285Z</time></trkpt><trkpt lat="45.3371477" lon="14.4409397"><ele>103.0</ele><time>2026-05-05T10:37:52.285Z</time></trkpt><trkpt lat="45.3371495" lon="14.4407214"><ele>103.0</ele><time>2026-05-05T10:37:53.285Z</time></trkpt><trkpt lat="45.337145" lon="14.4405014"><ele>103.0</ele><time>2026-05-05T10:37:54.285Z</time></trkpt><trkpt lat="45.3371396" lon="14.440283"><ele>103.0</ele><time>2026-05-05T10:37:55.284Z</time></trkpt><trkpt lat="45.3371338" lon="14.4400577"><ele>101.33333333333334</ele><time>2026-05-05T10:37:56.285Z</time></trkpt><trkpt lat="45.3371276" lon="14.4398333"><ele>99.66666666666666</ele><time>2026-05-05T10:37:57.284Z</time></trkpt><trkpt lat="45.3371239" lon="14.4396056"><ele>98.0</ele><time>2026-05-05T10:37:58.285Z</time></trkpt><trkpt lat="45.3371213" lon="14.439379"><ele>97.66666666666666</ele><time>2026-05-05T10:37:59.285Z</time></trkpt><trkpt lat="45.3371208" lon="14.4391509"><ele>97.33333333333334</ele><time>2026-05-05T10:38:00.285Z</time></trkpt><trkpt lat="45.3371228" lon="14.4389267"><ele>97.0</ele><time>2026-05-05T10:38:01.284Z</time></trkpt><trkpt lat="45.3371282" lon="14.4387017"><ele>98.0</ele><time>2026-05-05T10:38:02.285Z</time></trkpt><trkpt lat="45.3371425" lon="14.4384803"><ele>99.0</ele><time>2026-05-05T10:38:03.285Z</time></trkpt><trkpt lat="45.3371676" lon="14.4382608"><ele>100.0</ele><time>2026-05-05T10:38:04.285Z</time></trkpt><trkpt lat="45.3372054" lon="14.4380446"><ele>105.0</ele><time>2026-05-05T10:38:05.284Z</time></trkpt><trkpt lat="45.3372538" lon="14.4378603"><ele>110.0</ele><time>2026-05-05T10:38:06.284Z</time></trkpt><trkpt lat="45.3373098" lon="14.4376866"><ele>115.0</ele><time>2026-05-05T10:38:07.285Z</time></trkpt><trkpt lat="45.3373728" lon="14.4375077"><ele>120.0</ele><time>2026-05-05T10:38:08.284Z</time></trkpt><trkpt lat="45.3374551" lon="14.4373118"><ele>115.0</ele><time>2026-05-05T10:38:09.284Z</time></trkpt><trkpt lat="45.3375352" lon="14.4371126"><ele>110.0</ele><time>2026-05-05T10:38:10.285Z</time></trkpt><trkpt lat="45.3376319" lon="14.4369006"><ele>105.0</ele><time>2026-05-05T10:38:11.284Z</time></trkpt><trkpt lat="45.3377177" lon="14.4366879"><ele>105.0</ele><time>2026-05-05T10:38:12.284Z</time></trkpt><trkpt lat="45.3378071" lon="14.4364868"><ele>105.0</ele><time>2026-05-05T10:38:13.285Z</time></trkpt><trkpt lat="45.3378977" lon="14.4362928"><ele>105.0</ele><time>2026-05-05T10:38:14.284Z</time></trkpt><trkpt lat="45.3380022" lon="14.4360894"><ele>111.33333333333334</ele><time>2026-05-05T10:38:15.285Z</time></trkpt><trkpt lat="45.338095" lon="14.4358961"><ele>117.66666666666667</ele><time>2026-05-05T10:38:16.284Z</time></trkpt><trkpt lat="45.3381824" lon="14.4357169"><ele>124.0</ele><time>2026-05-05T10:38:17.284Z</time></trkpt><trkpt lat="45.3382715" lon="14.4355282"><ele>117.66666666666667</ele><time>2026-05-05T10:38:18.285Z</time></trkpt><trkpt lat="45.3383655" lon="14.4353442"><ele>111.33333333333334</ele><time>2026-05-05T10:38:19.284Z</time></trkpt><trkpt lat="45.3384555" lon="14.4351588"><ele>105.0</ele><time>2026-05-05T10:38:20.285Z</time></trkpt><trkpt lat="45.3385396" lon="14.4349715"><ele>105.0</ele><time>2026-05-05T10:38:21.285Z</time></trkpt><trkpt lat="45.338633" lon="14.4347684"><ele>105.0</ele><time>2026-05-05T10:38:22.284Z</time></trkpt><trkpt lat="45.33873" lon="14.4345529"><ele>105.0</ele><time>2026-05-05T10:38:23.284Z</time></trkpt><trkpt lat="45.3388349" lon="14.4343411"><ele>107.66666666666666</ele><time>2026-05-05T10:38:24.284Z</time></trkpt><trkpt lat="45.3389286" lon="14.434135"><ele>110.33333333333333</ele><time>2026-05-05T10:38:25.284Z</time></trkpt><trkpt lat="45.3390149" lon="14.4339503"><ele>113.0</ele><time>2026-05-05T10:38:26.285Z</time></trkpt><trkpt lat="45.3391086" lon="14.4337482"><ele>113.0</ele><time>2026-05-05T10:38:27.284Z</time></trkpt><trkpt lat="45.3391961" lon="14.4335604"><ele>113.0</ele><time>2026-05-05T10:38:28.285Z</time></trkpt><trkpt lat="45.3392908" lon="14.4333684"><ele>113.0</ele><time>2026-05-05T10:38:29.285Z</time></trkpt><trkpt lat="45.3393929" lon="14.4331596"><ele>109.66666666666666</ele><time>2026-05-05T10:38:30.285Z</time></trkpt><trkpt lat="45.3394811" lon="14.43297"><ele>106.33333333333334</ele><time>2026-05-05T10:38:31.284Z</time></trkpt><trkpt lat="45.3395756" lon="14.4327701"><ele>103.0</ele><time>2026-05-05T10:38:32.285Z</time></trkpt><trkpt lat="45.3396764" lon="14.4325693"><ele>105.66666666666667</ele><time>2026-05-05T10:38:33.285Z</time></trkpt><trkpt lat="45.3397709" lon="14.4323824"><ele>108.33333333333334</ele><time>2026-05-05T10:38:34.284Z</time></trkpt><trkpt lat="45.339874" lon="14.432208"><ele>111.0</ele><time>2026-05-05T10:38:35.284Z</time></trkpt><trkpt lat="45.3399983" lon="14.4320307"><ele>111.0</ele><time>2026-05-05T10:38:36.285Z</time></trkpt><trkpt lat="45.340123" lon="14.4318879"><ele>111.0</ele><time>2026-05-05T10:38:37.285Z</time></trkpt><trkpt lat="45.3402471" lon="14.4317542"><ele>111.0</ele><time>2026-05-05T10:38:38.285Z</time></trkpt><trkpt lat="45.3403698" lon="14.431648"><ele>111.0</ele><time>2026-05-05T10:38:39.285Z</time></trkpt><trkpt lat="45.3404919" lon="14.4315301"><ele>111.0</ele><time>2026-05-05T10:38:40.285Z</time></trkpt><trkpt lat="45.3406446" lon="14.4314159"><ele>111.0</ele><time>2026-05-05T10:38:41.285Z</time></trkpt><trkpt lat="45.3408006" lon="14.4313053"><ele>108.0</ele><time>2026-05-05T10:38:42.285Z</time></trkpt><trkpt lat="45.340942" lon="14.4312212"><ele>105.0</ele><time>2026-05-05T10:38:43.285Z</time></trkpt><trkpt lat="45.3410907" lon="14.4311451"><ele>102.0</ele><time>2026-05-05T10:38:44.284Z</time></trkpt><trkpt lat="45.3412436" lon="14.4310691"><ele>101.66666666666666</ele><time>2026-05-05T10:38:45.285Z</time></trkpt><trkpt lat="45.341406" lon="14.4309806"><ele>101.33333333333333</ele><time>2026-05-05T10:38:46.284Z</time></trkpt><trkpt lat="45.3415573" lon="14.4309006"><ele>101.0</ele><time>2026-05-05T10:38:47.285Z</time></trkpt><trkpt lat="45.3417129" lon="14.4308172"><ele>101.0</ele><time>2026-05-05T10:38:48.284Z</time></trkpt><trkpt lat="45.3418782" lon="14.4307305"><ele>101.0</ele><time>2026-05-05T10:38:49.284Z</time></trkpt><trkpt lat="45.3420385" lon="14.4306438"><ele>101.0</ele><time>2026-05-05T10:38:50.285Z</time></trkpt><trkpt lat="45.3422071" lon="14.4305425"><ele>109.33333333333333</ele><time>2026-05-05T10:38:51.285Z</time></trkpt><trkpt lat="45.3423735" lon="14.4304455"><ele>117.66666666666666</ele><time>2026-05-05T10:38:52.285Z</time></trkpt><trkpt lat="45.3425364" lon="14.4303318"><ele>126.0</ele><time>2026-05-05T10:38:53.284Z</time></trkpt><trkpt lat="45.3426869" lon="14.4302038"><ele>126.0</ele><time>2026-05-05T10:38:54.285Z</time></trkpt><trkpt lat="45.3428356" lon="14.4300585"><ele>126.0</ele><time>2026-05-05T10:38:55.284Z</time></trkpt><trkpt lat="45.3429891" lon="14.4298907"><ele>126.0</ele><time>2026-05-05T10:38:56.284Z</time></trkpt><trkpt lat="45.3431137" lon="14.4297327"><ele>125.33333333333334</ele><time>2026-05-05T10:38:57.285Z</time></trkpt><trkpt lat="45.3431901" lon="14.4295901"><ele>124.66666666666667</ele><time>2026-05-05T10:38:58.285Z</time></trkpt><trkpt lat="45.343287" lon="14.4294228"><ele>124.0</ele><time>2026-05-05T10:38:59.284Z</time></trkpt><trkpt lat="45.3448797" lon="14.4244397"><ele>124.0</ele><time>2026-05-05T10:39:17.284Z</time></trkpt><trkpt lat="45.344955" lon="14.4241904"><ele>124.0</ele><time>2026-05-05T10:39:18.284Z</time></trkpt><trkpt lat="45.3450071" lon="14.4239084"><ele>124.0</ele><time>2026-05-05T10:39:19.285Z</time></trkpt><trkpt lat="45.3450572" lon="14.4236396"><ele>120.0</ele><time>2026-05-05T10:39:20.285Z</time></trkpt><trkpt lat="45.3451013" lon="14.4233839"><ele>116.0</ele><time>2026-05-05T10:39:21.285Z</time></trkpt><trkpt lat="45.3451379" lon="14.4231248"><ele>112.0</ele><time>2026-05-05T10:39:22.285Z</time></trkpt><trkpt lat="45.3451615" lon="14.4228631"><ele>110.33333333333334</ele><time>2026-05-05T10:39:23.285Z</time></trkpt><trkpt lat="45.345183" lon="14.4225967"><ele>108.66666666666666</ele><time>2026-05-05T10:39:24.285Z</time></trkpt><trkpt lat="45.345198" lon="14.4223303"><ele>107.0</ele><time>2026-05-05T10:39:25.284Z</time></trkpt><trkpt lat="45.3452061" lon="14.422061"><ele>106.33333333333333</ele><time>2026-05-05T10:39:26.285Z</time></trkpt><trkpt lat="45.3452081" lon="14.4217933"><ele>105.66666666666666</ele><time>2026-05-05T10:39:27.285Z</time></trkpt><trkpt lat="45.3452021" lon="14.4215283"><ele>105.0</ele><time>2026-05-05T10:39:28.285Z</time></trkpt><trkpt lat="45.3451858" lon="14.4212666"><ele>107.33333333333334</ele><time>2026-05-05T10:39:29.285Z</time></trkpt><trkpt lat="45.3451633" lon="14.421012"><ele>109.66666666666667</ele><time>2026-05-05T10:39:30.285Z</time></trkpt><trkpt lat="45.345127" lon="14.4207495"><ele>112.0</ele><time>2026-05-05T10:39:31.285Z</time></trkpt><trkpt lat="45.3450863" lon="14.4204904"><ele>119.0</ele><time>2026-05-05T10:39:32.285Z</time></trkpt><trkpt lat="45.3450412" lon="14.42023"><ele>126.0</ele><time>2026-05-05T10:39:33.285Z</time></trkpt><trkpt lat="45.3449965" lon="14.4199759"><ele>133.0</ele><time>2026-05-05T10:39:34.284Z</time></trkpt><trkpt lat="45.344952" lon="14.4197194"><ele>128.5</ele><time>2026-05-05T10:39:35.285Z</time></trkpt><trkpt lat="45.3449086" lon="14.4194628"><ele>124.0</ele><time>2026-05-05T10:39:36.285Z</time></trkpt><trkpt lat="45.3435359" lon="14.4121217"><ele>124.0</ele><time>2026-05-05T10:40:04.284Z</time></trkpt><trkpt lat="45.3434875" lon="14.4118822"><ele>124.0</ele><time>2026-05-05T10:40:05.285Z</time></trkpt><trkpt lat="45.343446" lon="14.4116394"><ele>124.0</ele><time>2026-05-05T10:40:06.285Z</time></trkpt><trkpt lat="45.3434047" lon="14.4114048"><ele>123.33333333333334</ele><time>2026-05-05T10:40:07.284Z</time></trkpt><trkpt lat="45.3433677" lon="14.4111742"><ele>122.66666666666666</ele><time>2026-05-05T10:40:08.285Z</time></trkpt><trkpt lat="45.343336" lon="14.4109416"><ele>122.0</ele><time>2026-05-05T10:40:09.284Z</time></trkpt><trkpt lat="45.3433068" lon="14.4107157"><ele>122.0</ele><time>2026-05-05T10:40:10.284Z</time></trkpt><trkpt lat="45.3432812" lon="14.4104837"><ele>122.0</ele><time>2026-05-05T10:40:11.284Z</time></trkpt><trkpt lat="45.3432576" lon="14.4102505"><ele>122.0</ele><time>2026-05-05T10:40:12.285Z</time></trkpt><trkpt lat="45.3432408" lon="14.4100077"><ele>122.0</ele><time>2026-05-05T10:40:13.284Z</time></trkpt><trkpt lat="45.3432291" lon="14.4097651"><ele>122.0</ele><time>2026-05-05T10:40:14.284Z</time></trkpt><trkpt lat="45.3432228" lon="14.4095112"><ele>122.0</ele><time>2026-05-05T10:40:15.284Z</time></trkpt><trkpt lat="45.3432215" lon="14.4092504"><ele>123.0</ele><time>2026-05-05T10:40:16.284Z</time></trkpt><trkpt lat="45.3432263" lon="14.4089864"><ele>124.0</ele><time>2026-05-05T10:40:17.285Z</time></trkpt><trkpt lat="45.343237" lon="14.4087243"><ele>125.0</ele><time>2026-05-05T10:40:18.285Z</time></trkpt><trkpt lat="45.3432529" lon="14.4084637"><ele>126.33333333333333</ele><time>2026-05-05T10:40:19.285Z</time></trkpt><trkpt lat="45.3432703" lon="14.4082042"><ele>127.66666666666666</ele><time>2026-05-05T10:40:20.285Z</time></trkpt><trkpt lat="45.3432894" lon="14.4079482"><ele>129.0</ele><time>2026-05-05T10:40:21.284Z</time></trkpt><trkpt lat="45.3433086" lon="14.4076915"><ele>130.0</ele><time>2026-05-05T10:40:22.285Z</time></trkpt><trkpt lat="45.3433219" lon="14.4074339"><ele>131.0</ele><time>2026-05-05T10:40:23.285Z</time></trkpt><trkpt lat="45.3433373" lon="14.4071667"><ele>132.0</ele><time>2026-05-05T10:40:24.285Z</time></trkpt><trkpt lat="45.343353" lon="14.4068915"><ele>133.0</ele><time>2026-05-05T10:40:25.285Z</time></trkpt><trkpt lat="45.3433679" lon="14.4066093"><ele>134.0</ele><time>2026-05-05T10:40:26.284Z</time></trkpt><trkpt lat="45.3433805" lon="14.4063339"><ele>135.0</ele><time>2026-05-05T10:40:27.284Z</time></trkpt><trkpt lat="45.3433981" lon="14.4060428"><ele>135.0</ele><time>2026-05-05T10:40:28.285Z</time></trkpt><trkpt lat="45.3434192" lon="14.4057472"><ele>135.0</ele><time>2026-05-05T10:40:29.285Z</time></trkpt><trkpt lat="45.3434393" lon="14.4054493"><ele>135.0</ele><time>2026-05-05T10:40:30.285Z</time></trkpt><trkpt lat="45.3434619" lon="14.4051507"><ele>134.66666666666666</ele><time>2026-05-05T10:40:31.285Z</time></trkpt><trkpt lat="45.3434835" lon="14.4048491"><ele>134.33333333333331</ele><time>2026-05-05T10:40:32.284Z</time></trkpt><trkpt lat="45.3435074" lon="14.4045442"><ele>134.0</ele><time>2026-05-05T10:40:33.285Z</time></trkpt><trkpt lat="45.3435307" lon="14.4042472"><ele>134.0</ele><time>2026-05-05T10:40:34.285Z</time></trkpt><trkpt lat="45.3435561" lon="14.4039437"><ele>134.0</ele><time>2026-05-05T10:40:35.285Z</time></trkpt><trkpt lat="45.3435797" lon="14.4036352"><ele>134.0</ele><time>2026-05-05T10:40:36.285Z</time></trkpt><trkpt lat="45.3436048" lon="14.4033265"><ele>135.33333333333331</ele><time>2026-05-05T10:40:37.285Z</time></trkpt><trkpt lat="45.3436297" lon="14.4030092"><ele>136.66666666666666</ele><time>2026-05-05T10:40:38.284Z</time></trkpt><trkpt lat="45.3436536" lon="14.4026967"><ele>138.0</ele><time>2026-05-05T10:40:39.285Z</time></trkpt><trkpt lat="45.3436773" lon="14.4023833"><ele>137.66666666666666</ele><time>2026-05-05T10:40:40.284Z</time></trkpt><trkpt lat="45.3437037" lon="14.4020745"><ele>137.33333333333331</ele><time>2026-05-05T10:40:41.284Z</time></trkpt><trkpt lat="45.3437347" lon="14.4017691"><ele>137.0</ele><time>2026-05-05T10:40:42.284Z</time></trkpt><trkpt lat="45.3437729" lon="14.4014683"><ele>136.66666666666666</ele><time>2026-05-05T10:40:43.284Z</time></trkpt><trkpt lat="45.3438168" lon="14.4011705"><ele>136.33333333333334</ele><time>2026-05-05T10:40:44.284Z</time></trkpt><trkpt lat="45.3438637" lon="14.4008695"><ele>136.0</ele><time>2026-05-05T10:40:45.285Z</time></trkpt><trkpt lat="45.343923" lon="14.4005794"><ele>138.0</ele><time>2026-05-05T10:40:46.285Z</time></trkpt><trkpt lat="45.3439854" lon="14.4003069"><ele>140.0</ele><time>2026-05-05T10:40:47.285Z</time></trkpt><trkpt lat="45.3440506" lon="14.4000442"><ele>142.0</ele><time>2026-05-05T10:40:48.285Z</time></trkpt><trkpt lat="45.3441188" lon="14.399789"><ele>142.0</ele><time>2026-05-05T10:40:49.285Z</time></trkpt><trkpt lat="45.3441937" lon="14.3995363"><ele>142.0</ele><time>2026-05-05T10:40:50.284Z</time></trkpt><trkpt lat="45.3442721" lon="14.3992867"><ele>142.0</ele><time>2026-05-05T10:40:51.284Z</time></trkpt><trkpt lat="45.3443552" lon="14.3990405"><ele>140.66666666666669</ele><time>2026-05-05T10:40:52.284Z</time></trkpt><trkpt lat="45.3444404" lon="14.3987932"><ele>139.33333333333334</ele><time>2026-05-05T10:40:53.285Z</time></trkpt><trkpt lat="45.3445242" lon="14.3985463"><ele>138.0</ele><time>2026-05-05T10:40:54.284Z</time></trkpt><trkpt lat="45.3446077" lon="14.3982977"><ele>138.0</ele><time>2026-05-05T10:40:55.285Z</time></trkpt><trkpt lat="45.3446947" lon="14.3980511"><ele>138.0</ele><time>2026-05-05T10:40:56.284Z</time></trkpt><trkpt lat="45.3447824" lon="14.3978001"><ele>138.0</ele><time>2026-05-05T10:40:57.285Z</time></trkpt><trkpt lat="45.3448689" lon="14.3975534"><ele>138.0</ele><time>2026-05-05T10:40:58.284Z</time></trkpt><trkpt lat="45.3449575" lon="14.3973068"><ele>138.0</ele><time>2026-05-05T10:40:59.285Z</time></trkpt><trkpt lat="45.3450439" lon="14.3970611"><ele>138.0</ele><time>2026-05-05T10:41:00.284Z</time></trkpt><trkpt lat="45.3451302" lon="14.3968123"><ele>138.0</ele><time>2026-05-05T10:41:01.285Z</time></trkpt><trkpt lat="45.3452178" lon="14.3965514"><ele>138.0</ele><time>2026-05-05T10:41:02.285Z</time></trkpt><trkpt lat="45.3453065" lon="14.3962805"><ele>138.0</ele><time>2026-05-05T10:41:03.284Z</time></trkpt><trkpt lat="45.3453985" lon="14.3960011"><ele>138.66666666666666</ele><time>2026-05-05T10:41:04.285Z</time></trkpt><trkpt lat="45.3455003" lon="14.395729"><ele>139.33333333333331</ele><time>2026-05-05T10:41:05.284Z</time></trkpt><trkpt lat="45.3455946" lon="14.3954467"><ele>140.0</ele><time>2026-05-05T10:41:06.285Z</time></trkpt><trkpt lat="45.3456915" lon="14.3951632"><ele>140.0</ele><time>2026-05-05T10:41:07.285Z</time></trkpt><trkpt lat="45.3457898" lon="14.394884"><ele>140.0</ele><time>2026-05-05T10:41:08.284Z</time></trkpt><trkpt lat="45.3458917" lon="14.3946101"><ele>140.0</ele><time>2026-05-05T10:41:09.285Z</time></trkpt><trkpt lat="45.3459941" lon="14.3943378"><ele>138.0</ele><time>2026-05-05T10:41:10.284Z</time></trkpt><trkpt lat="45.3460955" lon="14.394064"><ele>136.0</ele><time>2026-05-05T10:41:11.285Z</time></trkpt><trkpt lat="45.346188" lon="14.393789"><ele>134.0</ele><time>2026-05-05T10:41:12.285Z</time></trkpt><trkpt lat="45.3462871" lon="14.393508"><ele>136.33333333333331</ele><time>2026-05-05T10:41:13.285Z</time></trkpt><trkpt lat="45.3463796" lon="14.3932332"><ele>138.66666666666666</ele><time>2026-05-05T10:41:14.285Z</time></trkpt><trkpt lat="45.3464722" lon="14.3929478"><ele>141.0</ele><time>2026-05-05T10:41:15.284Z</time></trkpt><trkpt lat="45.3465623" lon="14.3926632"><ele>141.0</ele><time>2026-05-05T10:41:16.285Z</time></trkpt><trkpt lat="45.3466411" lon="14.392386"><ele>141.0</ele><time>2026-05-05T10:41:17.284Z</time></trkpt><trkpt lat="45.3467167" lon="14.3921089"><ele>141.0</ele><time>2026-05-05T10:41:18.284Z</time></trkpt><trkpt lat="45.3467873" lon="14.391834"><ele>140.0</ele><time>2026-05-05T10:41:19.285Z</time></trkpt><trkpt lat="45.3468548" lon="14.3915653"><ele>139.0</ele><time>2026-05-05T10:41:20.284Z</time></trkpt><trkpt lat="45.3469215" lon="14.3912929"><ele>138.0</ele><time>2026-05-05T10:41:21.284Z</time></trkpt><trkpt lat="45.3469804" lon="14.3910232"><ele>137.33333333333334</ele><time>2026-05-05T10:41:22.284Z</time></trkpt><trkpt lat="45.3470392" lon="14.3907459"><ele>136.66666666666669</ele><time>2026-05-05T10:41:23.285Z</time></trkpt><trkpt lat="45.3471024" lon="14.3904667"><ele>136.0</ele><time>2026-05-05T10:41:24.285Z</time></trkpt><trkpt lat="45.3471523" lon="14.3901958"><ele>135.33333333333334</ele><time>2026-05-05T10:41:25.284Z</time></trkpt><trkpt lat="45.3471942" lon="14.3899268"><ele>134.66666666666666</ele><time>2026-05-05T10:41:26.284Z</time></trkpt><trkpt lat="45.3472388" lon="14.3896566"><ele>134.0</ele><time>2026-05-05T10:41:27.285Z</time></trkpt><trkpt lat="45.3472817" lon="14.3893828"><ele>136.66666666666666</ele><time>2026-05-05T10:41:28.285Z</time></trkpt><trkpt lat="45.3473221" lon="14.3891042"><ele>139.33333333333334</ele><time>2026-05-05T10:41:29.285Z</time></trkpt><trkpt lat="45.3473589" lon="14.3888212"><ele>142.0</ele><time>2026-05-05T10:41:30.284Z</time></trkpt><trkpt lat="45.3473918" lon="14.3885357"><ele>142.0</ele><time>2026-05-05T10:41:31.284Z</time></trkpt><trkpt lat="45.3474218" lon="14.3882527"><ele>142.0</ele><time>2026-05-05T10:41:32.285Z</time></trkpt><trkpt lat="45.3474477" lon="14.3879539"><ele>142.0</ele><time>2026-05-05T10:41:33.285Z</time></trkpt><trkpt lat="45.3474726" lon="14.3876563"><ele>142.0</ele><time>2026-05-05T10:41:34.285Z</time></trkpt><trkpt lat="45.3474934" lon="14.3873623"><ele>142.0</ele><time>2026-05-05T10:41:35.284Z</time></trkpt><trkpt lat="45.3475149" lon="14.3870627"><ele>142.0</ele><time>2026-05-05T10:41:36.285Z</time></trkpt><trkpt lat="45.3475329" lon="14.3867717"><ele>143.33333333333334</ele><time>2026-05-05T10:41:37.284Z</time></trkpt><trkpt lat="45.3475521" lon="14.3864734"><ele>144.66666666666666</ele><time>2026-05-05T10:41:38.285Z</time></trkpt><trkpt lat="45.3475732" lon="14.3861743"><ele>146.0</ele><time>2026-05-05T10:41:39.285Z</time></trkpt><trkpt lat="45.3475891" lon="14.3858732"><ele>147.66666666666666</ele><time>2026-05-05T10:41:40.284Z</time></trkpt><trkpt lat="45.3476075" lon="14.3855753"><ele>149.33333333333334</ele><time>2026-05-05T10:41:41.285Z</time></trkpt><trkpt lat="45.3476271" lon="14.3852791"><ele>151.0</ele><time>2026-05-05T10:41:42.284Z</time></trkpt><trkpt lat="45.3476543" lon="14.3849691"><ele>150.66666666666669</ele><time>2026-05-05T10:41:43.284Z</time></trkpt><trkpt lat="45.3476784" lon="14.3846726"><ele>150.33333333333334</ele><time>2026-05-05T10:41:44.285Z</time></trkpt><trkpt lat="45.347707" lon="14.3843668"><ele>150.0</ele><time>2026-05-05T10:41:45.285Z</time></trkpt><trkpt lat="45.347726" lon="14.3840576"><ele>150.33333333333334</ele><time>2026-05-05T10:41:46.285Z</time></trkpt><trkpt lat="45.3477448" lon="14.3837609"><ele>150.66666666666669</ele><time>2026-05-05T10:41:47.284Z</time></trkpt><trkpt lat="45.3477692" lon="14.3834619"><ele>151.0</ele><time>2026-05-05T10:41:48.285Z</time></trkpt><trkpt lat="45.3477918" lon="14.3831585"><ele>150.66666666666669</ele><time>2026-05-05T10:41:49.284Z</time></trkpt><trkpt lat="45.3478116" lon="14.3828549"><ele>150.33333333333334</ele><time>2026-05-05T10:41:50.284Z</time></trkpt><trkpt lat="45.3478349" lon="14.3825499"><ele>150.0</ele><time>2026-05-05T10:41:51.285Z</time></trkpt><trkpt lat="45.3478591" lon="14.3822541"><ele>150.33333333333334</ele><time>2026-05-05T10:41:52.285Z</time></trkpt><trkpt lat="45.3478931" lon="14.3819486"><ele>150.66666666666669</ele><time>2026-05-05T10:41:53.285Z</time></trkpt><trkpt lat="45.347935" lon="14.3816527"><ele>151.0</ele><time>2026-05-05T10:41:54.285Z</time></trkpt><trkpt lat="45.3479747" lon="14.381355"><ele>151.33333333333334</ele><time>2026-05-05T10:41:55.285Z</time></trkpt><trkpt lat="45.3480236" lon="14.3810548"><ele>151.66666666666666</ele><time>2026-05-05T10:41:56.284Z</time></trkpt><trkpt lat="45.348076" lon="14.3807686"><ele>152.0</ele><time>2026-05-05T10:41:57.285Z</time></trkpt><trkpt lat="45.3481271" lon="14.3804769"><ele>155.0</ele><time>2026-05-05T10:41:58.284Z</time></trkpt><trkpt lat="45.3481761" lon="14.3801867"><ele>158.0</ele><time>2026-05-05T10:41:59.284Z</time></trkpt><trkpt lat="45.3482272" lon="14.3798936"><ele>161.0</ele><time>2026-05-05T10:42:00.285Z</time></trkpt><trkpt lat="45.3482879" lon="14.3795956"><ele>161.0</ele><time>2026-05-05T10:42:01.285Z</time></trkpt><trkpt lat="45.3483331" lon="14.3793034"><ele>161.0</ele><time>2026-05-05T10:42:02.284Z</time></trkpt><trkpt lat="45.3483826" lon="14.3790042"><ele>161.0</ele><time>2026-05-05T10:42:03.284Z</time></trkpt><trkpt lat="45.3484296" lon="14.3787038"><ele>160.66666666666666</ele><time>2026-05-05T10:42:04.285Z</time></trkpt><trkpt lat="45.3484669" lon="14.3784025"><ele>160.33333333333334</ele><time>2026-05-05T10:42:05.284Z</time></trkpt><trkpt lat="45.3484998" lon="14.3780973"><ele>160.0</ele><time>2026-05-05T10:42:06.284Z</time></trkpt><trkpt lat="45.3485175" lon="14.3777864"><ele>159.0</ele><time>2026-05-05T10:42:07.285Z</time></trkpt><trkpt lat="45.3485283" lon="14.3774657"><ele>158.0</ele><time>2026-05-05T10:42:08.285Z</time></trkpt><trkpt lat="45.3485309" lon="14.3771508"><ele>157.0</ele><time>2026-05-05T10:42:09.285Z</time></trkpt><trkpt lat="45.3485237" lon="14.3768335"><ele>157.0</ele><time>2026-05-05T10:42:10.285Z</time></trkpt><trkpt lat="45.3485181" lon="14.3765135"><ele>157.0</ele><time>2026-05-05T10:42:11.285Z</time></trkpt><trkpt lat="45.3485138" lon="14.3761847"><ele>156.0</ele><time>2026-05-05T10:42:12.285Z</time></trkpt><trkpt lat="45.3485" lon="14.3758607"><ele>155.0</ele><time>2026-05-05T10:42:13.285Z</time></trkpt><trkpt lat="45.3484789" lon="14.3755387"><ele>154.5</ele><time>2026-05-05T10:42:14.285Z</time></trkpt><trkpt lat="45.3484626" lon="14.3752197"><ele>154.0</ele><time>2026-05-05T10:42:15.285Z</time></trkpt><trkpt lat="45.3484542" lon="14.3748926"><ele>152.5</ele><time>2026-05-05T10:42:16.285Z</time></trkpt><trkpt lat="45.3484422" lon="14.3745677"><ele>151.0</ele><time>2026-05-05T10:42:17.285Z</time></trkpt><trkpt lat="45.3484234" lon="14.3742524"><ele>151.0</ele><time>2026-05-05T10:42:18.284Z</time></trkpt><trkpt lat="45.3484069" lon="14.3739234"><ele>151.0</ele><time>2026-05-05T10:42:19.285Z</time></trkpt><trkpt lat="45.3484016" lon="14.3736291"><ele>151.0</ele><time>2026-05-05T10:42:20.285Z</time></trkpt><trkpt lat="45.3483879" lon="14.3733039"><ele>149.5</ele><time>2026-05-05T10:42:21.284Z</time></trkpt><trkpt lat="45.3483682" lon="14.3729858"><ele>148.0</ele><time>2026-05-05T10:42:22.285Z</time></trkpt><trkpt lat="45.3483578" lon="14.3726634"><ele>148.0</ele><time>2026-05-05T10:42:23.285Z</time></trkpt><trkpt lat="45.3483462" lon="14.372347"><ele>148.0</ele><time>2026-05-05T10:42:24.285Z</time></trkpt><trkpt lat="45.3483357" lon="14.3720363"><ele>148.0</ele><time>2026-05-05T10:42:25.284Z</time></trkpt><trkpt lat="45.3483264" lon="14.3717337"><ele>147.33333333333334</ele><time>2026-05-05T10:42:26.285Z</time></trkpt><trkpt lat="45.3483167" lon="14.3714215"><ele>146.66666666666666</ele><time>2026-05-05T10:42:27.284Z</time></trkpt><trkpt lat="45.3483051" lon="14.3711179"><ele>146.0</ele><time>2026-05-05T10:42:28.285Z</time></trkpt><trkpt lat="45.3483044" lon="14.3708065"><ele>144.33333333333331</ele><time>2026-05-05T10:42:29.285Z</time></trkpt><trkpt lat="45.3483076" lon="14.3704993"><ele>142.66666666666666</ele><time>2026-05-05T10:42:30.285Z</time></trkpt><trkpt lat="45.3483143" lon="14.3701922"><ele>141.0</ele><time>2026-05-05T10:42:31.284Z</time></trkpt><trkpt lat="45.3483219" lon="14.3698906"><ele>140.33333333333334</ele><time>2026-05-05T10:42:32.285Z</time></trkpt><trkpt lat="45.3483368" lon="14.3695917"><ele>139.66666666666669</ele><time>2026-05-05T10:42:33.284Z</time></trkpt><trkpt lat="45.3483552" lon="14.3692918"><ele>139.0</ele><time>2026-05-05T10:42:34.285Z</time></trkpt><trkpt lat="45.3483788" lon="14.3689932"><ele>137.66666666666669</ele><time>2026-05-05T10:42:35.284Z</time></trkpt><trkpt lat="45.3484082" lon="14.368696"><ele>136.33333333333334</ele><time>2026-05-05T10:42:36.284Z</time></trkpt><trkpt lat="45.3484369" lon="14.3683983"><ele>135.0</ele><time>2026-05-05T10:42:37.285Z</time></trkpt><trkpt lat="45.3484739" lon="14.3680977"><ele>133.66666666666666</ele><time>2026-05-05T10:42:38.285Z</time></trkpt><trkpt lat="45.3485109" lon="14.3677934"><ele>132.33333333333331</ele><time>2026-05-05T10:42:39.285Z</time></trkpt><trkpt lat="45.3485503" lon="14.3674928"><ele>131.0</ele><time>2026-05-05T10:42:40.284Z</time></trkpt><trkpt lat="45.3486016" lon="14.3672"><ele>128.66666666666666</ele><time>2026-05-05T10:42:41.285Z</time></trkpt><trkpt lat="45.3486557" lon="14.3669028"><ele>126.33333333333334</ele><time>2026-05-05T10:42:42.284Z</time></trkpt><trkpt lat="45.3487225" lon="14.3666072"><ele>124.0</ele><time>2026-05-05T10:42:43.285Z</time></trkpt><trkpt lat="45.3487846" lon="14.3663174"><ele>122.0</ele><time>2026-05-05T10:42:44.284Z</time></trkpt><trkpt lat="45.348856" lon="14.3660315"><ele>120.0</ele><time>2026-05-05T10:42:45.284Z</time></trkpt><trkpt lat="45.3489273" lon="14.3657513"><ele>118.0</ele><time>2026-05-05T10:42:46.285Z</time></trkpt><trkpt lat="45.3490086" lon="14.3654576"><ele>120.66666666666667</ele><time>2026-05-05T10:42:47.285Z</time></trkpt><trkpt lat="45.3490887" lon="14.3651772"><ele>123.33333333333334</ele><time>2026-05-05T10:42:48.285Z</time></trkpt><trkpt lat="45.3491763" lon="14.3648951"><ele>126.0</ele><time>2026-05-05T10:42:49.284Z</time></trkpt><trkpt lat="45.3492679" lon="14.3646159"><ele>126.0</ele><time>2026-05-05T10:42:50.284Z</time></trkpt><trkpt lat="45.3493628" lon="14.3643512"><ele>126.0</ele><time>2026-05-05T10:42:51.285Z</time></trkpt><trkpt lat="45.3494612" lon="14.3640875"><ele>126.0</ele><time>2026-05-05T10:42:52.284Z</time></trkpt><trkpt lat="45.3495692" lon="14.3638235"><ele>125.0</ele><time>2026-05-05T10:42:53.285Z</time></trkpt><trkpt lat="45.3496755" lon="14.3635902"><ele>124.0</ele><time>2026-05-05T10:42:54.284Z</time></trkpt><trkpt lat="45.3497904" lon="14.3633333"><ele>123.0</ele><time>2026-05-05T10:42:55.285Z</time></trkpt><trkpt lat="45.3499013" lon="14.3630871"><ele>126.33333333333334</ele><time>2026-05-05T10:42:56.285Z</time></trkpt><trkpt lat="45.3500141" lon="14.3628474"><ele>129.66666666666669</ele><time>2026-05-05T10:42:57.284Z</time></trkpt><trkpt lat="45.3501266" lon="14.3626084"><ele>133.0</ele><time>2026-05-05T10:42:58.285Z</time></trkpt><trkpt lat="45.3502453" lon="14.3623662"><ele>132.33333333333334</ele><time>2026-05-05T10:42:59.284Z</time></trkpt><trkpt lat="45.3503676" lon="14.3621275"><ele>131.66666666666666</ele><time>2026-05-05T10:43:00.285Z</time></trkpt><trkpt lat="45.3504945" lon="14.3618963"><ele>131.0</ele><time>2026-05-05T10:43:01.285Z</time></trkpt><trkpt lat="45.3506224" lon="14.3616759"><ele>133.33333333333331</ele><time>2026-05-05T10:43:02.285Z</time></trkpt><trkpt lat="45.3507558" lon="14.3614436"><ele>135.66666666666666</ele><time>2026-05-05T10:43:03.285Z</time></trkpt><trkpt lat="45.3508865" lon="14.3612228"><ele>138.0</ele><time>2026-05-05T10:43:04.284Z</time></trkpt><trkpt lat="45.3510278" lon="14.3610053"><ele>138.0</ele><time>2026-05-05T10:43:05.285Z</time></trkpt><trkpt lat="45.3511666" lon="14.3607923"><ele>138.0</ele><time>2026-05-05T10:43:06.284Z</time></trkpt><trkpt lat="45.3513122" lon="14.3605857"><ele>138.0</ele><time>2026-05-05T10:43:07.285Z</time></trkpt><trkpt lat="45.3514517" lon="14.3603738"><ele>139.0</ele><time>2026-05-05T10:43:08.285Z</time></trkpt><trkpt lat="45.3515959" lon="14.3601677"><ele>140.0</ele><time>2026-05-05T10:43:09.284Z</time></trkpt><trkpt lat="45.351738" lon="14.3599698"><ele>141.0</ele><time>2026-05-05T10:43:10.285Z</time></trkpt><trkpt lat="45.3518881" lon="14.3597641"><ele>142.33333333333334</ele><time>2026-05-05T10:43:11.285Z</time></trkpt><trkpt lat="45.3520326" lon="14.359557"><ele>143.66666666666669</ele><time>2026-05-05T10:43:12.285Z</time></trkpt><trkpt lat="45.3521774" lon="14.3593409"><ele>145.0</ele><time>2026-05-05T10:43:13.285Z</time></trkpt><trkpt lat="45.3523281" lon="14.3591319"><ele>145.0</ele><time>2026-05-05T10:43:14.285Z</time></trkpt><trkpt lat="45.352478" lon="14.3589232"><ele>145.0</ele><time>2026-05-05T10:43:15.285Z</time></trkpt><trkpt lat="45.352632" lon="14.3587077"><ele>145.0</ele><time>2026-05-05T10:43:16.284Z</time></trkpt><trkpt lat="45.352777" lon="14.3584969"><ele>146.33333333333334</ele><time>2026-05-05T10:43:17.285Z</time></trkpt><trkpt lat="45.3529201" lon="14.3582874"><ele>147.66666666666666</ele><time>2026-05-05T10:43:18.285Z</time></trkpt><trkpt lat="45.353067" lon="14.35808"><ele>149.0</ele><time>2026-05-05T10:43:19.285Z</time></trkpt><trkpt lat="45.3532181" lon="14.3578674"><ele>149.0</ele><time>2026-05-05T10:43:20.285Z</time></trkpt><trkpt lat="45.3533586" lon="14.3576609"><ele>149.0</ele><time>2026-05-05T10:43:21.285Z</time></trkpt><trkpt lat="45.3534992" lon="14.357444"><ele>149.0</ele><time>2026-05-05T10:43:22.285Z</time></trkpt><trkpt lat="45.3536392" lon="14.3572239"><ele>147.0</ele><time>2026-05-05T10:43:23.285Z</time></trkpt><trkpt lat="45.353775" lon="14.3569971"><ele>145.0</ele><time>2026-05-05T10:43:24.285Z</time></trkpt><trkpt lat="45.3539141" lon="14.3567549"><ele>143.0</ele><time>2026-05-05T10:43:25.285Z</time></trkpt><trkpt lat="45.3540413" lon="14.3565172"><ele>146.33333333333331</ele><time>2026-05-05T10:43:26.285Z</time></trkpt><trkpt lat="45.3541672" lon="14.3562751"><ele>149.66666666666666</ele><time>2026-05-05T10:43:27.285Z</time></trkpt><trkpt lat="45.354273" lon="14.3560412"><ele>153.0</ele><time>2026-05-05T10:43:28.284Z</time></trkpt><trkpt lat="45.3543721" lon="14.3557939"><ele>151.33333333333334</ele><time>2026-05-05T10:43:29.284Z</time></trkpt><trkpt lat="45.3544759" lon="14.3555356"><ele>149.66666666666669</ele><time>2026-05-05T10:43:30.284Z</time></trkpt><trkpt lat="45.3545768" lon="14.3552724"><ele>148.0</ele><time>2026-05-05T10:43:31.284Z</time></trkpt><trkpt lat="45.3546667" lon="14.3550122"><ele>151.33333333333334</ele><time>2026-05-05T10:43:32.284Z</time></trkpt><trkpt lat="45.3547599" lon="14.3547419"><ele>154.66666666666666</ele><time>2026-05-05T10:43:33.285Z</time></trkpt><trkpt lat="45.3548492" lon="14.3544629"><ele>158.0</ele><time>2026-05-05T10:43:34.284Z</time></trkpt><trkpt lat="45.3549318" lon="14.3541822"><ele>158.0</ele><time>2026-05-05T10:43:35.285Z</time></trkpt><trkpt lat="45.3549978" lon="14.3539038"><ele>158.0</ele><time>2026-05-05T10:43:36.284Z</time></trkpt><trkpt lat="45.355065" lon="14.353612"><ele>158.0</ele><time>2026-05-05T10:43:37.285Z</time></trkpt><trkpt lat="45.3551273" lon="14.3533192"><ele>156.0</ele><time>2026-05-05T10:43:38.285Z</time></trkpt><trkpt lat="45.3551836" lon="14.3530173"><ele>154.0</ele><time>2026-05-05T10:43:39.284Z</time></trkpt><trkpt lat="45.3552395" lon="14.3527167"><ele>152.0</ele><time>2026-05-05T10:43:40.285Z</time></trkpt><trkpt lat="45.3552896" lon="14.3524199"><ele>152.0</ele><time>2026-05-05T10:43:41.285Z</time></trkpt><trkpt lat="45.3553331" lon="14.3521278"><ele>152.0</ele><time>2026-05-05T10:43:42.285Z</time></trkpt><trkpt lat="45.355374" lon="14.3518318"><ele>152.0</ele><time>2026-05-05T10:43:43.285Z</time></trkpt><trkpt lat="45.3554193" lon="14.3515359"><ele>152.33333333333331</ele><time>2026-05-05T10:43:44.284Z</time></trkpt><trkpt lat="45.3554519" lon="14.3512487"><ele>152.66666666666666</ele><time>2026-05-05T10:43:45.285Z</time></trkpt><trkpt lat="45.355494" lon="14.3509587"><ele>153.0</ele><time>2026-05-05T10:43:46.285Z</time></trkpt><trkpt lat="45.3555399" lon="14.3506678"><ele>158.33333333333334</ele><time>2026-05-05T10:43:47.284Z</time></trkpt><trkpt lat="45.3555851" lon="14.3503791"><ele>163.66666666666669</ele><time>2026-05-05T10:43:48.285Z</time></trkpt><trkpt lat="45.3556412" lon="14.3500919"><ele>169.0</ele><time>2026-05-05T10:43:49.285Z</time></trkpt><trkpt lat="45.3556986" lon="14.3498154"><ele>169.0</ele><time>2026-05-05T10:43:50.285Z</time></trkpt><trkpt lat="45.3557684" lon="14.3495341"><ele>169.0</ele><time>2026-05-05T10:43:51.284Z</time></trkpt><trkpt lat="45.3558275" lon="14.3492543"><ele>169.0</ele><time>2026-05-05T10:43:52.285Z</time></trkpt><trkpt lat="45.3559043" lon="14.3489732"><ele>168.33333333333334</ele><time>2026-05-05T10:43:53.285Z</time></trkpt><trkpt lat="45.3559871" lon="14.3486913"><ele>167.66666666666666</ele><time>2026-05-05T10:43:54.284Z</time></trkpt><trkpt lat="45.3560792" lon="14.3484132"><ele>167.0</ele><time>2026-05-05T10:43:55.285Z</time></trkpt><trkpt lat="45.356176" lon="14.3481364"><ele>165.66666666666666</ele><time>2026-05-05T10:43:56.285Z</time></trkpt><trkpt lat="45.3562699" lon="14.3478678"><ele>164.33333333333334</ele><time>2026-05-05T10:43:57.284Z</time></trkpt><trkpt lat="45.356361" lon="14.3476033"><ele>163.0</ele><time>2026-05-05T10:43:58.284Z</time></trkpt><trkpt lat="45.3564537" lon="14.3473363"><ele>166.5</ele><time>2026-05-05T10:43:59.284Z</time></trkpt><trkpt lat="45.3565652" lon="14.3470591"><ele>170.0</ele><time>2026-05-05T10:44:00.285Z</time></trkpt><trkpt lat="45.3566841" lon="14.3467871"><ele>170.0</ele><time>2026-05-05T10:44:01.285Z</time></trkpt><trkpt lat="45.3568006" lon="14.3465135"><ele>170.0</ele><time>2026-05-05T10:44:02.284Z</time></trkpt><trkpt lat="45.3569264" lon="14.3462319"><ele>168.0</ele><time>2026-05-05T10:44:03.285Z</time></trkpt><trkpt lat="45.3570517" lon="14.3459698"><ele>166.0</ele><time>2026-05-05T10:44:04.285Z</time></trkpt><trkpt lat="45.3571958" lon="14.3456902"><ele>174.0</ele><time>2026-05-05T10:44:05.285Z</time></trkpt><trkpt lat="45.3573242" lon="14.3454203"><ele>182.0</ele><time>2026-05-05T10:44:06.285Z</time></trkpt><trkpt lat="45.3574514" lon="14.3451472"><ele>182.0</ele><time>2026-05-05T10:44:07.284Z</time></trkpt><trkpt lat="45.3575734" lon="14.3448792"><ele>182.0</ele><time>2026-05-05T10:44:08.285Z</time></trkpt><trkpt lat="45.3577066" lon="14.3446006"><ele>178.0</ele><time>2026-05-05T10:44:09.284Z</time></trkpt><trkpt lat="45.3578323" lon="14.3443256"><ele>174.0</ele><time>2026-05-05T10:44:10.284Z</time></trkpt><trkpt lat="45.3579584" lon="14.3440585"><ele>181.5</ele><time>2026-05-05T10:44:11.284Z</time></trkpt><trkpt lat="45.3580965" lon="14.3437835"><ele>189.0</ele><time>2026-05-05T10:44:12.284Z</time></trkpt><trkpt lat="45.3582259" lon="14.3435061"><ele>189.0</ele><time>2026-05-05T10:44:13.285Z</time></trkpt><trkpt lat="45.358361" lon="14.3432313"><ele>189.0</ele><time>2026-05-05T10:44:14.285Z</time></trkpt><trkpt lat="45.3584867" lon="14.3429566"><ele>187.33333333333334</ele><time>2026-05-05T10:44:15.285Z</time></trkpt><trkpt lat="45.3586195" lon="14.34269"><ele>185.66666666666669</ele><time>2026-05-05T10:44:16.284Z</time></trkpt><trkpt lat="45.3587444" lon="14.3424337"><ele>184.0</ele><time>2026-05-05T10:44:17.285Z</time></trkpt><trkpt lat="45.3588671" lon="14.3421844"><ele>189.0</ele><time>2026-05-05T10:44:18.285Z</time></trkpt><trkpt lat="45.3590007" lon="14.3419101"><ele>194.0</ele><time>2026-05-05T10:44:19.285Z</time></trkpt><trkpt lat="45.3591268" lon="14.3416414"><ele>194.0</ele><time>2026-05-05T10:44:20.285Z</time></trkpt><trkpt lat="45.3592443" lon="14.3413931"><ele>194.0</ele><time>2026-05-05T10:44:21.284Z</time></trkpt><trkpt lat="45.3593685" lon="14.341128"><ele>194.0</ele><time>2026-05-05T10:44:22.284Z</time></trkpt><trkpt lat="45.3594884" lon="14.3408611"><ele>194.0</ele><time>2026-05-05T10:44:23.285Z</time></trkpt><trkpt lat="45.3596097" lon="14.3405936"><ele>194.0</ele><time>2026-05-05T10:44:24.285Z</time></trkpt><trkpt lat="45.3597336" lon="14.3403311"><ele>194.0</ele><time>2026-05-05T10:44:25.285Z</time></trkpt><trkpt lat="45.3598579" lon="14.3400637"><ele>194.0</ele><time>2026-05-05T10:44:26.285Z</time></trkpt><trkpt lat="45.3599841" lon="14.3398035"><ele>194.0</ele><time>2026-05-05T10:44:27.285Z</time></trkpt><trkpt lat="45.3601107" lon="14.3395405"><ele>194.0</ele><time>2026-05-05T10:44:28.285Z</time></trkpt><trkpt lat="45.3602433" lon="14.3392721"><ele>194.33333333333334</ele><time>2026-05-05T10:44:29.284Z</time></trkpt><trkpt lat="45.3603675" lon="14.3390114"><ele>194.66666666666669</ele><time>2026-05-05T10:44:30.285Z</time></trkpt><trkpt lat="45.3604883" lon="14.3387555"><ele>195.0</ele><time>2026-05-05T10:44:31.285Z</time></trkpt><trkpt lat="45.3606147" lon="14.3384931"><ele>195.0</ele><time>2026-05-05T10:44:32.284Z</time></trkpt><trkpt lat="45.3607403" lon="14.3382438"><ele>195.0</ele><time>2026-05-05T10:44:33.284Z</time></trkpt><trkpt lat="45.3608611" lon="14.3379939"><ele>195.0</ele><time>2026-05-05T10:44:34.285Z</time></trkpt><trkpt lat="45.3609933" lon="14.3377507"><ele>196.0</ele><time>2026-05-05T10:44:35.285Z</time></trkpt><trkpt lat="45.3611333" lon="14.3375046"><ele>197.0</ele><time>2026-05-05T10:44:36.285Z</time></trkpt><trkpt lat="45.3612754" lon="14.3372675"><ele>198.0</ele><time>2026-05-05T10:44:37.284Z</time></trkpt><trkpt lat="45.3614277" lon="14.3370387"><ele>198.0</ele><time>2026-05-05T10:44:38.285Z</time></trkpt><trkpt lat="45.3615877" lon="14.3368187"><ele>198.0</ele><time>2026-05-05T10:44:39.284Z</time></trkpt><trkpt lat="45.3617581" lon="14.3366018"><ele>198.0</ele><time>2026-05-05T10:44:40.284Z</time></trkpt><trkpt lat="45.3619324" lon="14.336388"><ele>198.0</ele><time>2026-05-05T10:44:41.284Z</time></trkpt><trkpt lat="45.3621016" lon="14.3361828"><ele>199.0</ele><time>2026-05-05T10:44:42.285Z</time></trkpt><trkpt lat="45.3622794" lon="14.335977"><ele>200.0</ele><time>2026-05-05T10:44:43.284Z</time></trkpt><trkpt lat="45.362454" lon="14.335779"><ele>200.0</ele><time>2026-05-05T10:44:44.285Z</time></trkpt><trkpt lat="45.3626317" lon="14.3355803"><ele>200.0</ele><time>2026-05-05T10:44:45.285Z</time></trkpt><trkpt lat="45.3628053" lon="14.3353782"><ele>198.66666666666669</ele><time>2026-05-05T10:44:46.285Z</time></trkpt><trkpt lat="45.3629768" lon="14.3351818"><ele>197.33333333333331</ele><time>2026-05-05T10:44:47.285Z</time></trkpt><trkpt lat="45.363143" lon="14.3349857"><ele>196.0</ele><time>2026-05-05T10:44:48.285Z</time></trkpt><trkpt lat="45.3633076" lon="14.3347729"><ele>199.5</ele><time>2026-05-05T10:44:49.285Z</time></trkpt><trkpt lat="45.3634669" lon="14.3345588"><ele>203.0</ele><time>2026-05-05T10:44:50.284Z</time></trkpt><trkpt lat="45.3636331" lon="14.3343301"><ele>203.0</ele><time>2026-05-05T10:44:51.284Z</time></trkpt><trkpt lat="45.363795" lon="14.3340803"><ele>203.0</ele><time>2026-05-05T10:44:52.285Z</time></trkpt><trkpt lat="45.3639382" lon="14.3338397"><ele>209.0</ele><time>2026-05-05T10:44:53.284Z</time></trkpt><trkpt lat="45.3640901" lon="14.3335853"><ele>215.0</ele><time>2026-05-05T10:44:54.284Z</time></trkpt><trkpt lat="45.3642345" lon="14.3333369"><ele>215.0</ele><time>2026-05-05T10:44:55.285Z</time></trkpt><trkpt lat="45.364369" lon="14.3330817"><ele>215.0</ele><time>2026-05-05T10:44:56.285Z</time></trkpt><trkpt lat="45.3645067" lon="14.3328315"><ele>215.0</ele><time>2026-05-05T10:44:57.285Z</time></trkpt><trkpt lat="45.3646375" lon="14.3325825"><ele>215.33333333333334</ele><time>2026-05-05T10:44:58.284Z</time></trkpt><trkpt lat="45.3647664" lon="14.3323274"><ele>215.66666666666669</ele><time>2026-05-05T10:44:59.285Z</time></trkpt><trkpt lat="45.364889" lon="14.3320761"><ele>216.0</ele><time>2026-05-05T10:45:00.285Z</time></trkpt><trkpt lat="45.3650141" lon="14.331819"><ele>216.33333333333331</ele><time>2026-05-05T10:45:01.284Z</time></trkpt><trkpt lat="45.3651386" lon="14.3315725"><ele>216.66666666666666</ele><time>2026-05-05T10:45:02.284Z</time></trkpt><trkpt lat="45.3652697" lon="14.3313154"><ele>217.0</ele><time>2026-05-05T10:45:03.284Z</time></trkpt><trkpt lat="45.3654034" lon="14.331072"><ele>216.33333333333331</ele><time>2026-05-05T10:45:04.285Z</time></trkpt><trkpt lat="45.3655279" lon="14.3308281"><ele>215.66666666666669</ele><time>2026-05-05T10:45:05.284Z</time></trkpt><trkpt lat="45.3656626" lon="14.3305856"><ele>215.0</ele><time>2026-05-05T10:45:06.285Z</time></trkpt><trkpt lat="45.3657943" lon="14.3303512"><ele>217.0</ele><time>2026-05-05T10:45:07.285Z</time></trkpt><trkpt lat="45.3659301" lon="14.3301221"><ele>219.0</ele><time>2026-05-05T10:45:08.284Z</time></trkpt><trkpt lat="45.3660755" lon="14.3298966"><ele>221.0</ele><time>2026-05-05T10:45:09.285Z</time></trkpt><trkpt lat="45.3662239" lon="14.3296801"><ele>224.0</ele><time>2026-05-05T10:45:10.285Z</time></trkpt><trkpt lat="45.3663746" lon="14.3294681"><ele>227.0</ele><time>2026-05-05T10:45:11.284Z</time></trkpt><trkpt lat="45.3665294" lon="14.3292599"><ele>230.0</ele><time>2026-05-05T10:45:12.284Z</time></trkpt><trkpt lat="45.3666906" lon="14.3290544"><ele>230.0</ele><time>2026-05-05T10:45:13.284Z</time></trkpt><trkpt lat="45.366855" lon="14.328855"><ele>230.0</ele><time>2026-05-05T10:45:14.285Z</time></trkpt><trkpt lat="45.367033" lon="14.3286574"><ele>230.0</ele><time>2026-05-05T10:45:15.285Z</time></trkpt><trkpt lat="45.3672054" lon="14.3284702"><ele>230.0</ele><time>2026-05-05T10:45:16.285Z</time></trkpt><trkpt lat="45.3673916" lon="14.3282892"><ele>230.0</ele><time>2026-05-05T10:45:17.284Z</time></trkpt><trkpt lat="45.3675761" lon="14.3281143"><ele>230.0</ele><time>2026-05-05T10:45:18.285Z</time></trkpt><trkpt lat="45.3677666" lon="14.3279416"><ele>232.5</ele><time>2026-05-05T10:45:19.284Z</time></trkpt><trkpt lat="45.3679654" lon="14.3277835"><ele>235.0</ele><time>2026-05-05T10:45:20.285Z</time></trkpt><trkpt lat="45.3681652" lon="14.3276293"><ele>235.0</ele><time>2026-05-05T10:45:21.284Z</time></trkpt><trkpt lat="45.3683626" lon="14.3274797"><ele>235.0</ele><time>2026-05-05T10:45:22.284Z</time></trkpt><trkpt lat="45.368563" lon="14.3273478"><ele>235.0</ele><time>2026-05-05T10:45:23.285Z</time></trkpt><trkpt lat="45.3687601" lon="14.3272255"><ele>239.33333333333331</ele><time>2026-05-05T10:45:24.285Z</time></trkpt><trkpt lat="45.368967" lon="14.3271014"><ele>243.66666666666669</ele><time>2026-05-05T10:45:25.285Z</time></trkpt><trkpt lat="45.3691622" lon="14.3269855"><ele>248.0</ele><time>2026-05-05T10:45:26.285Z</time></trkpt><trkpt lat="45.3693664" lon="14.3268699"><ele>248.0</ele><time>2026-05-05T10:45:27.285Z</time></trkpt><trkpt lat="45.3695589" lon="14.3267613"><ele>248.0</ele><time>2026-05-05T10:45:28.285Z</time></trkpt><trkpt lat="45.3697716" lon="14.3266441"><ele>248.0</ele><time>2026-05-05T10:45:29.284Z</time></trkpt><trkpt lat="45.369977" lon="14.3265256"><ele>248.0</ele><time>2026-05-05T10:45:30.284Z</time></trkpt><trkpt lat="45.3701825" lon="14.3263998"><ele>248.0</ele><time>2026-05-05T10:45:31.285Z</time></trkpt><trkpt lat="45.3703894" lon="14.3262741"><ele>248.0</ele><time>2026-05-05T10:45:32.284Z</time></trkpt><trkpt lat="45.370602" lon="14.3261414"><ele>249.0</ele><time>2026-05-05T10:45:33.285Z</time></trkpt><trkpt lat="45.3707936" lon="14.3260058"><ele>250.0</ele><time>2026-05-05T10:45:34.285Z</time></trkpt><trkpt lat="45.3709988" lon="14.3258654"><ele>251.0</ele><time>2026-05-05T10:45:35.284Z</time></trkpt><trkpt lat="45.3711939" lon="14.325721"><ele>252.66666666666669</ele><time>2026-05-05T10:45:36.284Z</time></trkpt><trkpt lat="45.3713745" lon="14.3255556"><ele>254.33333333333331</ele><time>2026-05-05T10:45:37.285Z</time></trkpt><trkpt lat="45.371563" lon="14.3253798"><ele>256.0</ele><time>2026-05-05T10:45:38.285Z</time></trkpt><trkpt lat="45.3717466" lon="14.3251958"><ele>256.0</ele><time>2026-05-05T10:45:39.284Z</time></trkpt><trkpt lat="45.3719189" lon="14.3250004"><ele>256.0</ele><time>2026-05-05T10:45:40.285Z</time></trkpt><trkpt lat="45.3720826" lon="14.324799"><ele>256.0</ele><time>2026-05-05T10:45:41.285Z</time></trkpt><trkpt lat="45.3722391" lon="14.3245885"><ele>259.0</ele><time>2026-05-05T10:45:42.285Z</time></trkpt><trkpt lat="45.372397" lon="14.3243701"><ele>262.0</ele><time>2026-05-05T10:45:43.284Z</time></trkpt><trkpt lat="45.372545" lon="14.3241356"><ele>265.0</ele><time>2026-05-05T10:45:44.285Z</time></trkpt><trkpt lat="45.3726844" lon="14.3238964"><ele>265.0</ele><time>2026-05-05T10:45:45.285Z</time></trkpt><trkpt lat="45.3728238" lon="14.3236508"><ele>265.0</ele><time>2026-05-05T10:45:46.284Z</time></trkpt><trkpt lat="45.3729556" lon="14.3234085"><ele>265.0</ele><time>2026-05-05T10:45:47.285Z</time></trkpt><trkpt lat="45.3730823" lon="14.3231655"><ele>268.0</ele><time>2026-05-05T10:45:48.285Z</time></trkpt><trkpt lat="45.3732259" lon="14.3229209"><ele>271.0</ele><time>2026-05-05T10:45:49.285Z</time></trkpt><trkpt lat="45.3733711" lon="14.3226748"><ele>271.0</ele><time>2026-05-05T10:45:50.285Z</time></trkpt><trkpt lat="45.373523" lon="14.3224373"><ele>271.0</ele><time>2026-05-05T10:45:51.285Z</time></trkpt><trkpt lat="45.3736705" lon="14.322215"><ele>271.0</ele><time>2026-05-05T10:45:52.285Z</time></trkpt><trkpt lat="45.3738263" lon="14.3220016"><ele>273.3333333333333</ele><time>2026-05-05T10:45:53.284Z</time></trkpt><trkpt lat="45.373997" lon="14.3217968"><ele>275.6666666666667</ele><time>2026-05-05T10:45:54.285Z</time></trkpt><trkpt lat="45.3741681" lon="14.3215972"><ele>278.0</ele><time>2026-05-05T10:45:55.284Z</time></trkpt><trkpt lat="45.3743437" lon="14.3214104"><ele>277.5</ele><time>2026-05-05T10:45:56.285Z</time></trkpt><trkpt lat="45.3745277" lon="14.3212302"><ele>277.0</ele><time>2026-05-05T10:45:57.284Z</time></trkpt><trkpt lat="45.3747373" lon="14.3210506"><ele>279.5</ele><time>2026-05-05T10:45:58.284Z</time></trkpt><trkpt lat="45.3749359" lon="14.3208783"><ele>282.0</ele><time>2026-05-05T10:45:59.284Z</time></trkpt><trkpt lat="45.3751323" lon="14.3207115"><ele>281.0</ele><time>2026-05-05T10:46:00.284Z</time></trkpt><trkpt lat="45.3753327" lon="14.3205432"><ele>280.0</ele><time>2026-05-05T10:46:01.285Z</time></trkpt><trkpt lat="45.3755206" lon="14.3203777"><ele>283.66666666666663</ele><time>2026-05-05T10:46:02.285Z</time></trkpt><trkpt lat="45.3757032" lon="14.3202269"><ele>287.3333333333333</ele><time>2026-05-05T10:46:03.284Z</time></trkpt><trkpt lat="45.3758919" lon="14.320054"><ele>291.0</ele><time>2026-05-05T10:46:04.284Z</time></trkpt><trkpt lat="45.3760694" lon="14.3198813"><ele>289.3333333333333</ele><time>2026-05-05T10:46:05.285Z</time></trkpt><trkpt lat="45.3762463" lon="14.3196983"><ele>287.66666666666663</ele><time>2026-05-05T10:46:06.285Z</time></trkpt><trkpt lat="45.3764185" lon="14.3195078"><ele>286.0</ele><time>2026-05-05T10:46:07.284Z</time></trkpt><trkpt lat="45.3782139" lon="14.3162211"><ele>299.5</ele><time>2026-05-05T10:46:20.285Z</time></trkpt><trkpt lat="45.378304" lon="14.3159204"><ele>313.0</ele><time>2026-05-05T10:46:21.284Z</time></trkpt><trkpt lat="45.3784032" lon="14.3156396"><ele>315.5</ele><time>2026-05-05T10:46:22.285Z</time></trkpt><trkpt lat="45.3784947" lon="14.3153426"><ele>318.0</ele><time>2026-05-05T10:46:23.284Z</time></trkpt><trkpt lat="45.3785742" lon="14.3150458"><ele>318.0</ele><time>2026-05-05T10:46:24.284Z</time></trkpt><trkpt lat="45.3786451" lon="14.3147461"><ele>318.0</ele><time>2026-05-05T10:46:25.285Z</time></trkpt><trkpt lat="45.378714" lon="14.3144461"><ele>318.0</ele><time>2026-05-05T10:46:26.284Z</time></trkpt><trkpt lat="45.3787847" lon="14.3141441"><ele>317.6666666666667</ele><time>2026-05-05T10:46:27.284Z</time></trkpt><trkpt lat="45.3788529" lon="14.3138422"><ele>317.33333333333337</ele><time>2026-05-05T10:46:28.285Z</time></trkpt><trkpt lat="45.3789186" lon="14.3135419"><ele>317.0</ele><time>2026-05-05T10:46:29.285Z</time></trkpt><trkpt lat="45.3789861" lon="14.3132422"><ele>318.33333333333337</ele><time>2026-05-05T10:46:30.285Z</time></trkpt><trkpt lat="45.379054" lon="14.3129397"><ele>319.6666666666667</ele><time>2026-05-05T10:46:31.284Z</time></trkpt><trkpt lat="45.3791262" lon="14.312636"><ele>321.0</ele><time>2026-05-05T10:46:32.285Z</time></trkpt><trkpt lat="45.3791983" lon="14.3123355"><ele>326.5</ele><time>2026-05-05T10:46:33.285Z</time></trkpt><trkpt lat="45.37927" lon="14.3120359"><ele>332.0</ele><time>2026-05-05T10:46:34.285Z</time></trkpt><trkpt lat="45.3793513" lon="14.3117315"><ele>332.0</ele><time>2026-05-05T10:46:35.285Z</time></trkpt><trkpt lat="45.3794319" lon="14.3114267"><ele>332.0</ele><time>2026-05-05T10:46:36.284Z</time></trkpt><trkpt lat="45.3795222" lon="14.3111255"><ele>334.5</ele><time>2026-05-05T10:46:37.284Z</time></trkpt><trkpt lat="45.379616" lon="14.3108211"><ele>337.0</ele><time>2026-05-05T10:46:38.284Z</time></trkpt><trkpt lat="45.3797163" lon="14.3105158"><ele>339.5</ele><time>2026-05-05T10:46:39.285Z</time></trkpt><trkpt lat="45.379817" lon="14.3102104"><ele>342.0</ele><time>2026-05-05T10:46:40.285Z</time></trkpt><trkpt lat="45.3799207" lon="14.309904"><ele>340.0</ele><time>2026-05-05T10:46:41.285Z</time></trkpt><trkpt lat="45.3800348" lon="14.3096021"><ele>338.0</ele><time>2026-05-05T10:46:42.285Z</time></trkpt><trkpt lat="45.38015" lon="14.3093074"><ele>338.0</ele><time>2026-05-05T10:46:43.284Z</time></trkpt><trkpt lat="45.3802711" lon="14.3090103"><ele>338.0</ele><time>2026-05-05T10:46:44.284Z</time></trkpt><trkpt lat="45.3803963" lon="14.3087166"><ele>336.0</ele><time>2026-05-05T10:46:45.284Z</time></trkpt><trkpt lat="45.3805234" lon="14.3084291"><ele>334.0</ele><time>2026-05-05T10:46:46.284Z</time></trkpt><trkpt lat="45.3806544" lon="14.3081454"><ele>333.0</ele><time>2026-05-05T10:46:47.284Z</time></trkpt><trkpt lat="45.3807909" lon="14.3078658"><ele>332.0</ele><time>2026-05-05T10:46:48.284Z</time></trkpt><trkpt lat="45.380938" lon="14.3075912"><ele>332.0</ele><time>2026-05-05T10:46:49.285Z</time></trkpt><trkpt lat="45.381081" lon="14.3073172"><ele>332.0</ele><time>2026-05-05T10:46:50.285Z</time></trkpt><trkpt lat="45.3812288" lon="14.3070542"><ele>332.0</ele><time>2026-05-05T10:46:51.285Z</time></trkpt><trkpt lat="45.3813796" lon="14.3067926"><ele>332.0</ele><time>2026-05-05T10:46:52.285Z</time></trkpt><trkpt lat="45.3815359" lon="14.3065345"><ele>330.5</ele><time>2026-05-05T10:46:53.284Z</time></trkpt><trkpt lat="45.3816927" lon="14.3062876"><ele>329.0</ele><time>2026-05-05T10:46:54.284Z</time></trkpt><trkpt lat="45.3818532" lon="14.3060392"><ele>329.0</ele><time>2026-05-05T10:46:55.285Z</time></trkpt><trkpt lat="45.3820184" lon="14.3057934"><ele>329.0</ele><time>2026-05-05T10:46:56.285Z</time></trkpt><trkpt lat="45.3821852" lon="14.3055565"><ele>330.0</ele><time>2026-05-05T10:46:57.284Z</time></trkpt><trkpt lat="45.3823517" lon="14.3053209"><ele>331.0</ele><time>2026-05-05T10:46:58.285Z</time></trkpt><trkpt lat="45.3825359" lon="14.3050824"><ele>331.0</ele><time>2026-05-05T10:46:59.284Z</time></trkpt><trkpt lat="45.3827038" lon="14.3048741"><ele>331.0</ele><time>2026-05-05T10:47:00.284Z</time></trkpt><trkpt lat="45.382865" lon="14.3046652"><ele>331.0</ele><time>2026-05-05T10:47:01.285Z</time></trkpt><trkpt lat="45.3830291" lon="14.3044736"><ele>334.5</ele><time>2026-05-05T10:47:02.284Z</time></trkpt><trkpt lat="45.3832336" lon="14.3042642"><ele>338.0</ele><time>2026-05-05T10:47:03.285Z</time></trkpt><trkpt lat="45.3834306" lon="14.3040493"><ele>339.0</ele><time>2026-05-05T10:47:04.285Z</time></trkpt><trkpt lat="45.383623" lon="14.3038472"><ele>340.0</ele><time>2026-05-05T10:47:05.284Z</time></trkpt><trkpt lat="45.3838137" lon="14.303652"><ele>340.5</ele><time>2026-05-05T10:47:06.285Z</time></trkpt><trkpt lat="45.3840103" lon="14.3034688"><ele>341.0</ele><time>2026-05-05T10:47:07.285Z</time></trkpt><trkpt lat="45.3842191" lon="14.303279"><ele>341.0</ele><time>2026-05-05T10:47:08.285Z</time></trkpt><trkpt lat="45.3844159" lon="14.3031122"><ele>341.0</ele><time>2026-05-05T10:47:09.284Z</time></trkpt><trkpt lat="45.3846164" lon="14.302937"><ele>340.0</ele><time>2026-05-05T10:47:10.285Z</time></trkpt><trkpt lat="45.3848297" lon="14.3027568"><ele>339.0</ele><time>2026-05-05T10:47:11.285Z</time></trkpt><trkpt lat="45.3850319" lon="14.3025947"><ele>339.0</ele><time>2026-05-05T10:47:12.285Z</time></trkpt><trkpt lat="45.3852475" lon="14.3024366"><ele>339.0</ele><time>2026-05-05T10:47:13.284Z</time></trkpt><trkpt lat="45.385457" lon="14.302294"><ele>340.0</ele><time>2026-05-05T10:47:14.284Z</time></trkpt><trkpt lat="45.3856656" lon="14.3021606"><ele>341.0</ele><time>2026-05-05T10:47:15.284Z</time></trkpt><trkpt lat="45.3858782" lon="14.3020279"><ele>341.0</ele><time>2026-05-05T10:47:16.285Z</time></trkpt><trkpt lat="45.3860829" lon="14.3019111"><ele>341.0</ele><time>2026-05-05T10:47:17.284Z</time></trkpt><trkpt lat="45.3862931" lon="14.301788"><ele>341.0</ele><time>2026-05-05T10:47:18.285Z</time></trkpt><trkpt lat="45.3864954" lon="14.3016735"><ele>341.5</ele><time>2026-05-05T10:47:19.284Z</time></trkpt><trkpt lat="45.3867132" lon="14.3015658"><ele>342.0</ele><time>2026-05-05T10:47:20.285Z</time></trkpt><trkpt lat="45.3869255" lon="14.3014625"><ele>343.0</ele><time>2026-05-05T10:47:21.285Z</time></trkpt><trkpt lat="45.3871331" lon="14.3013672"><ele>344.0</ele><time>2026-05-05T10:47:22.285Z</time></trkpt><trkpt lat="45.3873517" lon="14.3012696"><ele>345.0</ele><time>2026-05-05T10:47:23.284Z</time></trkpt><trkpt lat="45.3875645" lon="14.3011922"><ele>345.0</ele><time>2026-05-05T10:47:24.284Z</time></trkpt><trkpt lat="45.3877805" lon="14.3011168"><ele>345.0</ele><time>2026-05-05T10:47:25.284Z</time></trkpt><trkpt lat="45.3879931" lon="14.3010461"><ele>345.0</ele><time>2026-05-05T10:47:26.285Z</time></trkpt><trkpt lat="45.388195" lon="14.300985"><ele>345.6666666666667</ele><time>2026-05-05T10:47:27.285Z</time></trkpt><trkpt lat="45.3883999" lon="14.3009219"><ele>346.33333333333337</ele><time>2026-05-05T10:47:28.285Z</time></trkpt><trkpt lat="45.3886065" lon="14.3008703"><ele>347.0</ele><time>2026-05-05T10:47:29.284Z</time></trkpt><trkpt lat="45.3887836" lon="14.3008189"><ele>346.0</ele><time>2026-05-05T10:47:30.284Z</time></trkpt><trkpt lat="45.3889966" lon="14.3007696"><ele>345.0</ele><time>2026-05-05T10:47:31.285Z</time></trkpt><trkpt lat="45.3892111" lon="14.3007219"><ele>344.0</ele><time>2026-05-05T10:47:32.284Z</time></trkpt><trkpt lat="45.3894105" lon="14.3006895"><ele>344.0</ele><time>2026-05-05T10:47:33.285Z</time></trkpt><trkpt lat="45.3895739" lon="14.3006767"><ele>344.0</ele><time>2026-05-05T10:47:34.285Z</time></trkpt><trkpt lat="45.3897577" lon="14.3006588"><ele>344.0</ele><time>2026-05-05T10:47:35.285Z</time></trkpt><trkpt lat="45.3899531" lon="14.3006405"><ele>342.33333333333337</ele><time>2026-05-05T10:47:36.285Z</time></trkpt><trkpt lat="45.3901485" lon="14.3006304"><ele>340.6666666666667</ele><time>2026-05-05T10:47:37.285Z</time></trkpt><trkpt lat="45.3903561" lon="14.3006242"><ele>339.0</ele><time>2026-05-05T10:47:38.285Z</time></trkpt><trkpt lat="45.3905637" lon="14.3006198"><ele>337.6666666666667</ele><time>2026-05-05T10:47:39.285Z</time></trkpt><trkpt lat="45.3907594" lon="14.3006198"><ele>336.33333333333337</ele><time>2026-05-05T10:47:40.285Z</time></trkpt><trkpt lat="45.3909534" lon="14.300625"><ele>335.0</ele><time>2026-05-05T10:47:41.285Z</time></trkpt><trkpt lat="45.3911474" lon="14.300634"><ele>335.33333333333337</ele><time>2026-05-05T10:47:42.284Z</time></trkpt><trkpt lat="45.3913533" lon="14.300651"><ele>335.6666666666667</ele><time>2026-05-05T10:47:43.284Z</time></trkpt><trkpt lat="45.3915581" lon="14.3006717"><ele>336.0</ele><time>2026-05-05T10:47:44.285Z</time></trkpt><trkpt lat="45.3917615" lon="14.3006927"><ele>336.0</ele><time>2026-05-05T10:47:45.285Z</time></trkpt><trkpt lat="45.3919589" lon="14.3007171"><ele>336.0</ele><time>2026-05-05T10:47:46.285Z</time></trkpt><trkpt lat="45.3921674" lon="14.3007423"><ele>336.0</ele><time>2026-05-05T10:47:47.285Z</time></trkpt><trkpt lat="45.3923706" lon="14.3007707"><ele>335.6666666666667</ele><time>2026-05-05T10:47:48.285Z</time></trkpt><trkpt lat="45.3925768" lon="14.3008015"><ele>335.33333333333337</ele><time>2026-05-05T10:47:49.284Z</time></trkpt><trkpt lat="45.392782" lon="14.3008305"><ele>335.0</ele><time>2026-05-05T10:47:50.285Z</time></trkpt><trkpt lat="45.3929885" lon="14.3008609"><ele>335.33333333333337</ele><time>2026-05-05T10:47:51.285Z</time></trkpt><trkpt lat="45.3931831" lon="14.3008939"><ele>335.6666666666667</ele><time>2026-05-05T10:47:52.285Z</time></trkpt><trkpt lat="45.3933955" lon="14.300926"><ele>336.0</ele><time>2026-05-05T10:47:53.285Z</time></trkpt><trkpt lat="45.3935913" lon="14.3009575"><ele>336.0</ele><time>2026-05-05T10:47:54.285Z</time></trkpt><trkpt lat="45.3938007" lon="14.3009944"><ele>336.0</ele><time>2026-05-05T10:47:55.285Z</time></trkpt><trkpt lat="45.3940015" lon="14.3010254"><ele>336.0</ele><time>2026-05-05T10:47:56.284Z</time></trkpt><trkpt lat="45.3942091" lon="14.3010547"><ele>336.0</ele><time>2026-05-05T10:47:57.284Z</time></trkpt><trkpt lat="45.3944193" lon="14.3010861"><ele>336.0</ele><time>2026-05-05T10:47:58.285Z</time></trkpt><trkpt lat="45.3946308" lon="14.3011111"><ele>336.0</ele><time>2026-05-05T10:47:59.284Z</time></trkpt><trkpt lat="45.3948432" lon="14.3011376"><ele>335.6666666666667</ele><time>2026-05-05T10:48:00.284Z</time></trkpt><trkpt lat="45.3950525" lon="14.3011597"><ele>335.33333333333337</ele><time>2026-05-05T10:48:01.285Z</time></trkpt><trkpt lat="45.395273" lon="14.3011794"><ele>335.0</ele><time>2026-05-05T10:48:02.285Z</time></trkpt><trkpt lat="45.3954853" lon="14.3011984"><ele>334.0</ele><time>2026-05-05T10:48:03.285Z</time></trkpt><trkpt lat="45.3957041" lon="14.3012099"><ele>333.0</ele><time>2026-05-05T10:48:04.285Z</time></trkpt><trkpt lat="45.3959252" lon="14.3012158"><ele>332.0</ele><time>2026-05-05T10:48:05.285Z</time></trkpt><trkpt lat="45.3961473" lon="14.301219"><ele>332.6666666666667</ele><time>2026-05-05T10:48:06.284Z</time></trkpt><trkpt lat="45.3963639" lon="14.3012212"><ele>333.3333333333333</ele><time>2026-05-05T10:48:07.285Z</time></trkpt><trkpt lat="45.3965883" lon="14.3012174"><ele>334.0</ele><time>2026-05-05T10:48:08.285Z</time></trkpt><trkpt lat="45.3968102" lon="14.3012138"><ele>334.0</ele><time>2026-05-05T10:48:09.285Z</time></trkpt><trkpt lat="45.3970368" lon="14.301198"><ele>334.0</ele><time>2026-05-05T10:48:10.284Z</time></trkpt><trkpt lat="45.3972635" lon="14.301178"><ele>337.5</ele><time>2026-05-05T10:48:11.285Z</time></trkpt><trkpt lat="45.3974927" lon="14.3011562"><ele>341.0</ele><time>2026-05-05T10:48:12.285Z</time></trkpt><trkpt lat="45.397727" lon="14.301124"><ele>341.0</ele><time>2026-05-05T10:48:13.284Z</time></trkpt><trkpt lat="45.3979633" lon="14.3010898"><ele>341.0</ele><time>2026-05-05T10:48:14.285Z</time></trkpt><trkpt lat="45.3982012" lon="14.301047"><ele>343.0</ele><time>2026-05-05T10:48:15.284Z</time></trkpt><trkpt lat="45.39844" lon="14.3010009"><ele>345.0</ele><time>2026-05-05T10:48:16.285Z</time></trkpt><trkpt lat="45.3986782" lon="14.3009475"><ele>349.0</ele><time>2026-05-05T10:48:17.284Z</time></trkpt><trkpt lat="45.3989134" lon="14.3008914"><ele>353.0</ele><time>2026-05-05T10:48:18.285Z</time></trkpt><trkpt lat="45.399148" lon="14.3008302"><ele>353.0</ele><time>2026-05-05T10:48:19.285Z</time></trkpt><trkpt lat="45.3993775" lon="14.3007671"><ele>353.0</ele><time>2026-05-05T10:48:20.285Z</time></trkpt><trkpt lat="45.3996109" lon="14.3007027"><ele>351.0</ele><time>2026-05-05T10:48:21.285Z</time></trkpt><trkpt lat="45.3998544" lon="14.3006255"><ele>349.0</ele><time>2026-05-05T10:48:22.284Z</time></trkpt><trkpt lat="45.4000833" lon="14.3005544"><ele>349.0</ele><time>2026-05-05T10:48:23.285Z</time></trkpt><trkpt lat="45.4003007" lon="14.3004805"><ele>349.0</ele><time>2026-05-05T10:48:24.285Z</time></trkpt><trkpt lat="45.4005317" lon="14.3004031"><ele>349.0</ele><time>2026-05-05T10:48:25.285Z</time></trkpt><trkpt lat="45.4007714" lon="14.3003362"><ele>349.0</ele><time>2026-05-05T10:48:26.285Z</time></trkpt><trkpt lat="45.400987" lon="14.3002726"><ele>349.0</ele><time>2026-05-05T10:48:27.284Z</time></trkpt><trkpt lat="45.4012227" lon="14.3002014"><ele>349.0</ele><time>2026-05-05T10:48:28.284Z</time></trkpt><trkpt lat="45.4014666" lon="14.3001326"><ele>348.5</ele><time>2026-05-05T10:48:29.284Z</time></trkpt><trkpt lat="45.4016821" lon="14.3000663"><ele>348.0</ele><time>2026-05-05T10:48:30.284Z</time></trkpt><trkpt lat="45.4019188" lon="14.3000017"><ele>348.0</ele><time>2026-05-05T10:48:31.285Z</time></trkpt><trkpt lat="45.4021505" lon="14.2999463"><ele>348.0</ele><time>2026-05-05T10:48:32.285Z</time></trkpt><trkpt lat="45.4023831" lon="14.2998823"><ele>349.0</ele><time>2026-05-05T10:48:33.285Z</time></trkpt><trkpt lat="45.4026238" lon="14.2998294"><ele>350.0</ele><time>2026-05-05T10:48:34.285Z</time></trkpt><trkpt lat="45.4028497" lon="14.2997833"><ele>354.0</ele><time>2026-05-05T10:48:35.284Z</time></trkpt><trkpt lat="45.4030933" lon="14.2997326"><ele>358.0</ele><time>2026-05-05T10:48:36.285Z</time></trkpt><trkpt lat="45.4032999" lon="14.2996824"><ele>358.0</ele><time>2026-05-05T10:48:37.285Z</time></trkpt><trkpt lat="45.4035311" lon="14.2996327"><ele>358.0</ele><time>2026-05-05T10:48:38.284Z</time></trkpt><trkpt lat="45.4037628" lon="14.2995908"><ele>355.66666666666663</ele><time>2026-05-05T10:48:39.284Z</time></trkpt><trkpt lat="45.4040093" lon="14.2995554"><ele>353.3333333333333</ele><time>2026-05-05T10:48:40.285Z</time></trkpt><trkpt lat="45.4042079" lon="14.2995246"><ele>351.0</ele><time>2026-05-05T10:48:41.285Z</time></trkpt><trkpt lat="45.4044346" lon="14.299506"><ele>349.0</ele><time>2026-05-05T10:48:42.284Z</time></trkpt><trkpt lat="45.4046682" lon="14.2994701"><ele>347.0</ele><time>2026-05-05T10:48:43.285Z</time></trkpt><trkpt lat="45.4049042" lon="14.2994426"><ele>347.0</ele><time>2026-05-05T10:48:44.285Z</time></trkpt><trkpt lat="45.405126" lon="14.2994136"><ele>347.0</ele><time>2026-05-05T10:48:45.285Z</time></trkpt><trkpt lat="45.4053545" lon="14.2993849"><ele>346.5</ele><time>2026-05-05T10:48:46.285Z</time></trkpt><trkpt lat="45.40558" lon="14.2993584"><ele>346.0</ele><time>2026-05-05T10:48:47.285Z</time></trkpt><trkpt lat="45.4058039" lon="14.299335"><ele>346.0</ele><time>2026-05-05T10:48:48.284Z</time></trkpt><trkpt lat="45.4060299" lon="14.2993175"><ele>346.0</ele><time>2026-05-05T10:48:49.285Z</time></trkpt><trkpt lat="45.4062555" lon="14.2993071"><ele>349.0</ele><time>2026-05-05T10:48:50.285Z</time></trkpt><trkpt lat="45.4064744" lon="14.2992979"><ele>352.0</ele><time>2026-05-05T10:48:51.284Z</time></trkpt><trkpt lat="45.4066924" lon="14.2992881"><ele>355.0</ele><time>2026-05-05T10:48:52.284Z</time></trkpt><trkpt lat="45.4069218" lon="14.299277"><ele>355.0</ele><time>2026-05-05T10:48:53.285Z</time></trkpt><trkpt lat="45.4071417" lon="14.2992722"><ele>355.0</ele><time>2026-05-05T10:48:54.285Z</time></trkpt><trkpt lat="45.4073788" lon="14.2992676"><ele>354.5</ele><time>2026-05-05T10:48:55.285Z</time></trkpt><trkpt lat="45.4076025" lon="14.2992637"><ele>354.0</ele><time>2026-05-05T10:48:56.285Z</time></trkpt><trkpt lat="45.4078339" lon="14.2992696"><ele>352.0</ele><time>2026-05-05T10:48:57.285Z</time></trkpt><trkpt lat="45.4080661" lon="14.2992768"><ele>350.0</ele><time>2026-05-05T10:48:58.285Z</time></trkpt><trkpt lat="45.4082874" lon="14.2992844"><ele>350.0</ele><time>2026-05-05T10:48:59.285Z</time></trkpt><trkpt lat="45.4085117" lon="14.2992953"><ele>350.0</ele><time>2026-05-05T10:49:00.285Z</time></trkpt><trkpt lat="45.4087352" lon="14.2993068"><ele>350.0</ele><time>2026-05-05T10:49:01.285Z</time></trkpt><trkpt lat="45.4089655" lon="14.2993187"><ele>349.6666666666667</ele><time>2026-05-05T10:49:02.285Z</time></trkpt><trkpt lat="45.4091892" lon="14.2993411"><ele>349.3333333333333</ele><time>2026-05-05T10:49:03.285Z</time></trkpt><trkpt lat="45.4094134" lon="14.2993635"><ele>349.0</ele><time>2026-05-05T10:49:04.285Z</time></trkpt><trkpt lat="45.4096476" lon="14.2993899"><ele>347.5</ele><time>2026-05-05T10:49:05.285Z</time></trkpt><trkpt lat="45.4098852" lon="14.2994157"><ele>346.0</ele><time>2026-05-05T10:49:06.284Z</time></trkpt><trkpt lat="45.4101177" lon="14.2994424"><ele>346.0</ele><time>2026-05-05T10:49:07.285Z</time></trkpt><trkpt lat="45.4103458" lon="14.2994751"><ele>346.0</ele><time>2026-05-05T10:49:08.284Z</time></trkpt><trkpt lat="45.4105663" lon="14.2995116"><ele>345.0</ele><time>2026-05-05T10:49:09.285Z</time></trkpt><trkpt lat="45.4107935" lon="14.2995438"><ele>344.0</ele><time>2026-05-05T10:49:10.284Z</time></trkpt><trkpt lat="45.4110187" lon="14.299583"><ele>344.0</ele><time>2026-05-05T10:49:11.284Z</time></trkpt><trkpt lat="45.4112441" lon="14.2996267"><ele>344.0</ele><time>2026-05-05T10:49:12.284Z</time></trkpt><trkpt lat="45.411467" lon="14.2996736"><ele>344.5</ele><time>2026-05-05T10:49:13.285Z</time></trkpt><trkpt lat="45.4116963" lon="14.2997217"><ele>345.0</ele><time>2026-05-05T10:49:14.284Z</time></trkpt><trkpt lat="45.4119226" lon="14.2997688"><ele>348.0</ele><time>2026-05-05T10:49:15.285Z</time></trkpt><trkpt lat="45.4121468" lon="14.2998243"><ele>351.0</ele><time>2026-05-05T10:49:16.285Z</time></trkpt><trkpt lat="45.4123742" lon="14.2998771"><ele>353.0</ele><time>2026-05-05T10:49:17.284Z</time></trkpt><trkpt lat="45.4125985" lon="14.2999312"><ele>355.0</ele><time>2026-05-05T10:49:18.284Z</time></trkpt><trkpt lat="45.4128243" lon="14.2999888"><ele>354.0</ele><time>2026-05-05T10:49:19.285Z</time></trkpt><trkpt lat="45.4130428" lon="14.300049"><ele>353.0</ele><time>2026-05-05T10:49:20.285Z</time></trkpt><trkpt lat="45.4132647" lon="14.3001086"><ele>352.0</ele><time>2026-05-05T10:49:21.285Z</time></trkpt><trkpt lat="45.4134828" lon="14.3001695"><ele>352.0</ele><time>2026-05-05T10:49:22.285Z</time></trkpt><trkpt lat="45.4137087" lon="14.3002286"><ele>352.0</ele><time>2026-05-05T10:49:23.284Z</time></trkpt><trkpt lat="45.4139435" lon="14.3002981"><ele>349.5</ele><time>2026-05-05T10:49:24.284Z</time></trkpt><trkpt lat="45.4141719" lon="14.3003583"><ele>347.0</ele><time>2026-05-05T10:49:25.285Z</time></trkpt><trkpt lat="45.4143964" lon="14.3004191"><ele>347.0</ele><time>2026-05-05T10:49:26.285Z</time></trkpt><trkpt lat="45.4146279" lon="14.3004704"><ele>347.0</ele><time>2026-05-05T10:49:27.285Z</time></trkpt><trkpt lat="45.4148594" lon="14.300525"><ele>350.0</ele><time>2026-05-05T10:49:28.284Z</time></trkpt><trkpt lat="45.4150931" lon="14.3005791"><ele>353.0</ele><time>2026-05-05T10:49:29.284Z</time></trkpt><trkpt lat="45.4153327" lon="14.3006386"><ele>356.0</ele><time>2026-05-05T10:49:30.284Z</time></trkpt><trkpt lat="45.4155614" lon="14.3006831"><ele>359.0</ele><time>2026-05-05T10:49:31.285Z</time></trkpt><trkpt lat="45.4157868" lon="14.3007256"><ele>359.0</ele><time>2026-05-05T10:49:32.285Z</time></trkpt><trkpt lat="45.416012" lon="14.300755"><ele>359.0</ele><time>2026-05-05T10:49:33.285Z</time></trkpt><trkpt lat="45.4162312" lon="14.3007851"><ele>359.0</ele><time>2026-05-05T10:49:34.285Z</time></trkpt><trkpt lat="45.4164628" lon="14.300812"><ele>358.0</ele><time>2026-05-05T10:49:35.284Z</time></trkpt><trkpt lat="45.4166951" lon="14.3008298"><ele>357.0</ele><time>2026-05-05T10:49:36.284Z</time></trkpt><trkpt lat="45.4169319" lon="14.3008451"><ele>356.0</ele><time>2026-05-05T10:49:37.284Z</time></trkpt><trkpt lat="45.4171615" lon="14.3008513"><ele>355.0</ele><time>2026-05-05T10:49:38.285Z</time></trkpt><trkpt lat="45.4173912" lon="14.3008492"><ele>355.0</ele><time>2026-05-05T10:49:39.285Z</time></trkpt><trkpt lat="45.4176234" lon="14.300845"><ele>355.0</ele><time>2026-05-05T10:49:40.284Z</time></trkpt><trkpt lat="45.4178618" lon="14.3008384"><ele>355.0</ele><time>2026-05-05T10:49:41.284Z</time></trkpt><trkpt lat="45.4180918" lon="14.3008269"><ele>355.0</ele><time>2026-05-05T10:49:42.284Z</time></trkpt><trkpt lat="45.4183256" lon="14.300812"><ele>355.0</ele><time>2026-05-05T10:49:43.285Z</time></trkpt><trkpt lat="45.4185565" lon="14.3007829"><ele>355.0</ele><time>2026-05-05T10:49:44.284Z</time></trkpt><trkpt lat="45.4187932" lon="14.3007494"><ele>357.5</ele><time>2026-05-05T10:49:45.285Z</time></trkpt><trkpt lat="45.4190261" lon="14.3007156"><ele>360.0</ele><time>2026-05-05T10:49:46.285Z</time></trkpt><trkpt lat="45.4192685" lon="14.3006844"><ele>360.0</ele><time>2026-05-05T10:49:47.284Z</time></trkpt><trkpt lat="45.4195005" lon="14.3006388"><ele>360.0</ele><time>2026-05-05T10:49:48.285Z</time></trkpt><trkpt lat="45.4197284" lon="14.3005843"><ele>360.5</ele><time>2026-05-05T10:49:49.285Z</time></trkpt><trkpt lat="45.4199595" lon="14.3005226"><ele>361.0</ele><time>2026-05-05T10:49:50.285Z</time></trkpt><trkpt lat="45.4201942" lon="14.3004548"><ele>361.0</ele><time>2026-05-05T10:49:51.285Z</time></trkpt><trkpt lat="45.4204248" lon="14.3003809"><ele>361.0</ele><time>2026-05-05T10:49:52.285Z</time></trkpt><trkpt lat="45.4206522" lon="14.3003062"><ele>360.5</ele><time>2026-05-05T10:49:53.284Z</time></trkpt><trkpt lat="45.4208771" lon="14.3002235"><ele>360.0</ele><time>2026-05-05T10:49:54.285Z</time></trkpt><trkpt lat="45.4211034" lon="14.3001344"><ele>362.5</ele><time>2026-05-05T10:49:55.285Z</time></trkpt><trkpt lat="45.4213231" lon="14.3000405"><ele>365.0</ele><time>2026-05-05T10:49:56.284Z</time></trkpt><trkpt lat="45.4215405" lon="14.299947"><ele>365.0</ele><time>2026-05-05T10:49:57.284Z</time></trkpt><trkpt lat="45.4217724" lon="14.2998494"><ele>365.0</ele><time>2026-05-05T10:49:58.285Z</time></trkpt><trkpt lat="45.4219868" lon="14.2997557"><ele>365.5</ele><time>2026-05-05T10:49:59.284Z</time></trkpt><trkpt lat="45.4222019" lon="14.2996584"><ele>366.0</ele><time>2026-05-05T10:50:00.285Z</time></trkpt><trkpt lat="45.422423" lon="14.2995658"><ele>366.0</ele><time>2026-05-05T10:50:01.285Z</time></trkpt><trkpt lat="45.4226493" lon="14.2994711"><ele>366.0</ele><time>2026-05-05T10:50:02.285Z</time></trkpt><trkpt lat="45.4228753" lon="14.299391"><ele>366.0</ele><time>2026-05-05T10:50:03.285Z</time></trkpt><trkpt lat="45.4230923" lon="14.2993233"><ele>366.0</ele><time>2026-05-05T10:50:04.285Z</time></trkpt><trkpt lat="45.4233184" lon="14.299256"><ele>366.0</ele><time>2026-05-05T10:50:05.285Z</time></trkpt><trkpt lat="45.423527" lon="14.2992001"><ele>366.0</ele><time>2026-05-05T10:50:06.285Z</time></trkpt><trkpt lat="45.4237543" lon="14.299149"><ele>366.0</ele><time>2026-05-05T10:50:07.285Z</time></trkpt><trkpt lat="45.4239763" lon="14.2991031"><ele>366.0</ele><time>2026-05-05T10:50:08.284Z</time></trkpt><trkpt lat="45.4241976" lon="14.2990518"><ele>366.0</ele><time>2026-05-05T10:50:09.285Z</time></trkpt><trkpt lat="45.4244055" lon="14.2989879"><ele>366.0</ele><time>2026-05-05T10:50:10.285Z</time></trkpt><trkpt lat="45.424626" lon="14.2989161"><ele>367.5</ele><time>2026-05-05T10:50:11.284Z</time></trkpt><trkpt lat="45.4248409" lon="14.2988294"><ele>369.0</ele><time>2026-05-05T10:50:12.285Z</time></trkpt><trkpt lat="45.4250546" lon="14.2987137"><ele>369.0</ele><time>2026-05-05T10:50:13.285Z</time></trkpt><trkpt lat="45.4252593" lon="14.298589"><ele>369.0</ele><time>2026-05-05T10:50:14.284Z</time></trkpt><trkpt lat="45.4254731" lon="14.2984422"><ele>369.0</ele><time>2026-05-05T10:50:15.285Z</time></trkpt><trkpt lat="45.4256895" lon="14.2982723"><ele>369.0</ele><time>2026-05-05T10:50:16.285Z</time></trkpt><trkpt lat="45.4258885" lon="14.2980929"><ele>369.5</ele><time>2026-05-05T10:50:17.285Z</time></trkpt><trkpt lat="45.4260774" lon="14.2978954"><ele>370.0</ele><time>2026-05-05T10:50:18.285Z</time></trkpt><trkpt lat="45.4262649" lon="14.2976828"><ele>368.5</ele><time>2026-05-05T10:50:19.285Z</time></trkpt><trkpt lat="45.4264402" lon="14.2974575"><ele>367.0</ele><time>2026-05-05T10:50:20.285Z</time></trkpt><trkpt lat="45.4266081" lon="14.2972202"><ele>366.0</ele><time>2026-05-05T10:50:21.284Z</time></trkpt><trkpt lat="45.4267597" lon="14.2969717"><ele>365.0</ele><time>2026-05-05T10:50:22.284Z</time></trkpt><trkpt lat="45.4269075" lon="14.2967181"><ele>365.0</ele><time>2026-05-05T10:50:23.284Z</time></trkpt><trkpt lat="45.4270432" lon="14.2964413"><ele>365.0</ele><time>2026-05-05T10:50:24.285Z</time></trkpt><trkpt lat="45.4271674" lon="14.2961453"><ele>365.0</ele><time>2026-05-05T10:50:25.284Z</time></trkpt><trkpt lat="45.4272827" lon="14.2958437"><ele>365.0</ele><time>2026-05-05T10:50:26.284Z</time></trkpt><trkpt lat="45.427391" lon="14.2955299"><ele>365.0</ele><time>2026-05-05T10:50:27.285Z</time></trkpt><trkpt lat="45.4275001" lon="14.2952088"><ele>365.0</ele><time>2026-05-05T10:50:28.285Z</time></trkpt><trkpt lat="45.4275859" lon="14.2948931"><ele>365.5</ele><time>2026-05-05T10:50:29.285Z</time></trkpt><trkpt lat="45.427686" lon="14.2945659"><ele>366.0</ele><time>2026-05-05T10:50:30.285Z</time></trkpt><trkpt lat="45.4277897" lon="14.29426"><ele>366.0</ele><time>2026-05-05T10:50:31.284Z</time></trkpt><trkpt lat="45.4278977" lon="14.2939638"><ele>366.0</ele><time>2026-05-05T10:50:32.285Z</time></trkpt><trkpt lat="45.4280182" lon="14.2936706"><ele>365.0</ele><time>2026-05-05T10:50:33.285Z</time></trkpt><trkpt lat="45.4281471" lon="14.2933851"><ele>364.0</ele><time>2026-05-05T10:50:34.284Z</time></trkpt><trkpt lat="45.4282805" lon="14.2931079"><ele>364.5</ele><time>2026-05-05T10:50:35.284Z</time></trkpt><trkpt lat="45.4284286" lon="14.2928307"><ele>365.0</ele><time>2026-05-05T10:50:36.285Z</time></trkpt><trkpt lat="45.4285766" lon="14.2925546"><ele>365.0</ele><time>2026-05-05T10:50:37.284Z</time></trkpt><trkpt lat="45.4287245" lon="14.2922838"><ele>365.0</ele><time>2026-05-05T10:50:38.284Z</time></trkpt><trkpt lat="45.4288762" lon="14.2920098"><ele>366.0</ele><time>2026-05-05T10:50:39.285Z</time></trkpt><trkpt lat="45.4290271" lon="14.29174"><ele>367.0</ele><time>2026-05-05T10:50:40.285Z</time></trkpt><trkpt lat="45.4291773" lon="14.2914676"><ele>369.0</ele><time>2026-05-05T10:50:41.284Z</time></trkpt><trkpt lat="45.4293318" lon="14.2911947"><ele>371.0</ele><time>2026-05-05T10:50:42.284Z</time></trkpt><trkpt lat="45.4294858" lon="14.2909207"><ele>371.0</ele><time>2026-05-05T10:50:43.285Z</time></trkpt><trkpt lat="45.4296484" lon="14.2906519"><ele>371.0</ele><time>2026-05-05T10:50:44.285Z</time></trkpt><trkpt lat="45.4298" lon="14.2903761"><ele>371.0</ele><time>2026-05-05T10:50:45.285Z</time></trkpt><trkpt lat="45.429956" lon="14.2901019"><ele>371.0</ele><time>2026-05-05T10:50:46.285Z</time></trkpt><trkpt lat="45.430114" lon="14.2898159"><ele>371.0</ele><time>2026-05-05T10:50:47.284Z</time></trkpt><trkpt lat="45.4302704" lon="14.2895309"><ele>371.0</ele><time>2026-05-05T10:50:48.285Z</time></trkpt><trkpt lat="45.4304226" lon="14.2892615"><ele>370.0</ele><time>2026-05-05T10:50:49.284Z</time></trkpt><trkpt lat="45.4305694" lon="14.2889772"><ele>369.0</ele><time>2026-05-05T10:50:50.284Z</time></trkpt><trkpt lat="45.4307207" lon="14.2887043"><ele>366.5</ele><time>2026-05-05T10:50:51.285Z</time></trkpt><trkpt lat="45.4308839" lon="14.2884222"><ele>364.0</ele><time>2026-05-05T10:50:52.284Z</time></trkpt><trkpt lat="45.4310488" lon="14.2881405"><ele>361.5</ele><time>2026-05-05T10:50:53.285Z</time></trkpt><trkpt lat="45.4312043" lon="14.2878635"><ele>359.0</ele><time>2026-05-05T10:50:54.285Z</time></trkpt><trkpt lat="45.4313601" lon="14.2875835"><ele>359.0</ele><time>2026-05-05T10:50:55.285Z</time></trkpt><trkpt lat="45.4315136" lon="14.2873052"><ele>359.0</ele><time>2026-05-05T10:50:56.284Z</time></trkpt><trkpt lat="45.4316669" lon="14.2870275"><ele>358.0</ele><time>2026-05-05T10:50:57.285Z</time></trkpt><trkpt lat="45.4318168" lon="14.2867539"><ele>357.0</ele><time>2026-05-05T10:50:58.285Z</time></trkpt><trkpt lat="45.4319657" lon="14.2864733"><ele>355.5</ele><time>2026-05-05T10:50:59.285Z</time></trkpt><trkpt lat="45.432126" lon="14.2861941"><ele>354.0</ele><time>2026-05-05T10:51:00.284Z</time></trkpt><trkpt lat="45.4322913" lon="14.2859043"><ele>355.5</ele><time>2026-05-05T10:51:01.284Z</time></trkpt><trkpt lat="45.4324547" lon="14.2856169"><ele>357.0</ele><time>2026-05-05T10:51:02.285Z</time></trkpt><trkpt lat="45.4326164" lon="14.2853291"><ele>357.0</ele><time>2026-05-05T10:51:03.284Z</time></trkpt><trkpt lat="45.4327808" lon="14.2850306"><ele>357.0</ele><time>2026-05-05T10:51:04.285Z</time></trkpt><trkpt lat="45.4329368" lon="14.2847385"><ele>361.0</ele><time>2026-05-05T10:51:05.285Z</time></trkpt><trkpt lat="45.4331028" lon="14.2844445"><ele>365.0</ele><time>2026-05-05T10:51:06.284Z</time></trkpt><trkpt lat="45.433271" lon="14.2841472"><ele>366.0</ele><time>2026-05-05T10:51:07.285Z</time></trkpt><trkpt lat="45.4334356" lon="14.283855"><ele>367.0</ele><time>2026-05-05T10:51:08.285Z</time></trkpt><trkpt lat="45.4336019" lon="14.2835566"><ele>367.0</ele><time>2026-05-05T10:51:09.284Z</time></trkpt><trkpt lat="45.4337701" lon="14.283257"><ele>367.0</ele><time>2026-05-05T10:51:10.285Z</time></trkpt><trkpt lat="45.43394" lon="14.2829588"><ele>371.5</ele><time>2026-05-05T10:51:11.284Z</time></trkpt><trkpt lat="45.4341102" lon="14.2826651"><ele>376.0</ele><time>2026-05-05T10:51:12.284Z</time></trkpt><trkpt lat="45.4342932" lon="14.2823731"><ele>375.5</ele><time>2026-05-05T10:51:13.285Z</time></trkpt><trkpt lat="45.4344667" lon="14.282097"><ele>375.0</ele><time>2026-05-05T10:51:14.284Z</time></trkpt><trkpt lat="45.4346388" lon="14.2818195"><ele>375.0</ele><time>2026-05-05T10:51:15.284Z</time></trkpt><trkpt lat="45.4348147" lon="14.2815467"><ele>375.0</ele><time>2026-05-05T10:51:16.284Z</time></trkpt><trkpt lat="45.4349889" lon="14.2812732"><ele>375.0</ele><time>2026-05-05T10:51:17.284Z</time></trkpt><trkpt lat="45.4351692" lon="14.2810075"><ele>375.0</ele><time>2026-05-05T10:51:18.285Z</time></trkpt><trkpt lat="45.4353558" lon="14.2807387"><ele>373.5</ele><time>2026-05-05T10:51:19.285Z</time></trkpt><trkpt lat="45.4355451" lon="14.2804705"><ele>372.0</ele><time>2026-05-05T10:51:20.285Z</time></trkpt><trkpt lat="45.4357381" lon="14.2802109"><ele>372.0</ele><time>2026-05-05T10:51:21.284Z</time></trkpt><trkpt lat="45.4359322" lon="14.2799556"><ele>372.0</ele><time>2026-05-05T10:51:22.285Z</time></trkpt><trkpt lat="45.4361297" lon="14.2797051"><ele>373.5</ele><time>2026-05-05T10:51:23.285Z</time></trkpt><trkpt lat="45.4363327" lon="14.2794548"><ele>375.0</ele><time>2026-05-05T10:51:24.285Z</time></trkpt><trkpt lat="45.4365397" lon="14.2792044"><ele>375.0</ele><time>2026-05-05T10:51:25.285Z</time></trkpt><trkpt lat="45.4367509" lon="14.2789534"><ele>375.0</ele><time>2026-05-05T10:51:26.285Z</time></trkpt><trkpt lat="45.4369621" lon="14.2787089"><ele>377.0</ele><time>2026-05-05T10:51:27.285Z</time></trkpt><trkpt lat="45.437175" lon="14.2784711"><ele>379.0</ele><time>2026-05-05T10:51:28.284Z</time></trkpt><trkpt lat="45.4373874" lon="14.2782492"><ele>379.0</ele><time>2026-05-05T10:51:29.285Z</time></trkpt><trkpt lat="45.4376026" lon="14.2780311"><ele>379.0</ele><time>2026-05-05T10:51:30.284Z</time></trkpt><trkpt lat="45.437824" lon="14.2778124"><ele>383.0</ele><time>2026-05-05T10:51:31.285Z</time></trkpt><trkpt lat="45.4380403" lon="14.2776036"><ele>387.0</ele><time>2026-05-05T10:51:32.285Z</time></trkpt><trkpt lat="45.4382545" lon="14.2773983"><ele>386.0</ele><time>2026-05-05T10:51:33.285Z</time></trkpt><trkpt lat="45.4384683" lon="14.2772007"><ele>385.0</ele><time>2026-05-05T10:51:34.284Z</time></trkpt><trkpt lat="45.4386836" lon="14.2770085"><ele>388.0</ele><time>2026-05-05T10:51:35.284Z</time></trkpt><trkpt lat="45.4388923" lon="14.2768324"><ele>391.0</ele><time>2026-05-05T10:51:36.284Z</time></trkpt><trkpt lat="45.4390999" lon="14.2766587"><ele>391.0</ele><time>2026-05-05T10:51:37.285Z</time></trkpt><trkpt lat="45.4393021" lon="14.2764962"><ele>391.0</ele><time>2026-05-05T10:51:38.285Z</time></trkpt><trkpt lat="45.4395064" lon="14.276335"><ele>394.5</ele><time>2026-05-05T10:51:39.285Z</time></trkpt><trkpt lat="45.4397199" lon="14.276194"><ele>398.0</ele><time>2026-05-05T10:51:40.285Z</time></trkpt><trkpt lat="45.4399217" lon="14.2760572"><ele>398.0</ele><time>2026-05-05T10:51:41.284Z</time></trkpt><trkpt lat="45.4401104" lon="14.2759327"><ele>398.0</ele><time>2026-05-05T10:51:42.285Z</time></trkpt><trkpt lat="45.4402893" lon="14.2758168"><ele>398.0</ele><time>2026-05-05T10:51:43.285Z</time></trkpt><trkpt lat="45.4404682" lon="14.2757028"><ele>400.66666666666663</ele><time>2026-05-05T10:51:44.284Z</time></trkpt><trkpt lat="45.440636" lon="14.2756021"><ele>403.33333333333337</ele><time>2026-05-05T10:51:45.285Z</time></trkpt><trkpt lat="45.4407955" lon="14.2755142"><ele>406.0</ele><time>2026-05-05T10:51:46.285Z</time></trkpt><trkpt lat="45.4409447" lon="14.2754204"><ele>406.0</ele><time>2026-05-05T10:51:47.284Z</time></trkpt><trkpt lat="45.4410608" lon="14.2753419"><ele>406.0</ele><time>2026-05-05T10:51:48.285Z</time></trkpt><trkpt lat="45.4411973" lon="14.2752666"><ele>406.0</ele><time>2026-05-05T10:51:49.284Z</time></trkpt><trkpt lat="45.4413047" lon="14.2752065"><ele>406.0</ele><time>2026-05-05T10:51:50.284Z</time></trkpt><trkpt lat="45.4414087" lon="14.275162"><ele>406.33333333333337</ele><time>2026-05-05T10:51:51.285Z</time></trkpt><trkpt lat="45.4415018" lon="14.2751401"><ele>406.6666666666667</ele><time>2026-05-05T10:51:52.285Z</time></trkpt><trkpt lat="45.4416021" lon="14.2751324"><ele>407.0</ele><time>2026-05-05T10:51:53.285Z</time></trkpt><trkpt lat="45.441683" lon="14.2751485"><ele>407.33333333333337</ele><time>2026-05-05T10:51:54.284Z</time></trkpt><trkpt lat="45.4417554" lon="14.2751637"><ele>407.6666666666667</ele><time>2026-05-05T10:51:55.285Z</time></trkpt><trkpt lat="45.4418189" lon="14.2751862"><ele>408.0</ele><time>2026-05-05T10:51:56.284Z</time></trkpt><trkpt lat="45.4418816" lon="14.2752067"><ele>408.0</ele><time>2026-05-05T10:51:57.284Z</time></trkpt><trkpt lat="45.441988" lon="14.2752425"><ele>408.0</ele><time>2026-05-05T10:51:59.285Z</time></trkpt><trkpt lat="45.4420862" lon="14.2752308"><ele>408.0</ele><time>2026-05-05T10:52:01.284Z</time></trkpt><trkpt lat="45.4421552" lon="14.2752174"><ele>408.0</ele><time>2026-05-05T10:52:03.284Z</time></trkpt><trkpt lat="45.4422301" lon="14.2751782"><ele>408.0</ele><time>2026-05-05T10:52:06.285Z</time></trkpt><trkpt lat="45.4422856" lon="14.2752256"><ele>408.0</ele><time>2026-05-05T10:52:55.285Z</time></trkpt><trkpt lat="45.4422998" lon="14.2751298"><ele>407.57142857142856</ele><time>2026-05-05T10:54:13.284Z</time></trkpt><trkpt lat="45.4423422" lon="14.2750552"><ele>407.14285714285717</ele><time>2026-05-05T11:01:50.286Z</time></trkpt><trkpt lat="45.442354" lon="14.2749533"><ele>406.71428571428567</ele><time>2026-05-05T11:02:10.285Z</time></trkpt><trkpt lat="45.4422988" lon="14.2749988"><ele>406.2857142857143</ele><time>2026-05-05T11:03:58.286Z</time></trkpt><trkpt lat="45.4422748" lon="14.275084"><ele>405.85714285714283</ele><time>2026-05-05T11:04:04.268Z</time></trkpt><trkpt lat="45.4422748" lon="14.2751793"><ele>405.4285714285714</ele><time>2026-05-05T11:04:11.286Z</time></trkpt><trkpt lat="45.4422159" lon="14.2751252"><ele>405.0</ele><time>2026-05-05T11:10:04.285Z</time></trkpt><trkpt lat="45.4422791" lon="14.2751689"><ele>405.0</ele><time>2026-05-05T11:17:53.277Z</time></trkpt><trkpt lat="45.4423288" lon="14.2748931"><ele>405.0</ele><time>2026-05-05T11:18:09.278Z</time></trkpt><trkpt lat="45.4424226" lon="14.2748186"><ele>405.0</ele><time>2026-05-05T11:18:11.277Z</time></trkpt><trkpt lat="45.4424837" lon="14.2747906"><ele>405.0</ele><time>2026-05-05T11:18:12.278Z</time></trkpt><trkpt lat="45.4425531" lon="14.2747598"><ele>405.0</ele><time>2026-05-05T11:18:13.278Z</time></trkpt><trkpt lat="45.4426275" lon="14.2747282"><ele>404.6</ele><time>2026-05-05T11:18:14.277Z</time></trkpt><trkpt lat="45.4427098" lon="14.274693"><ele>404.2</ele><time>2026-05-05T11:18:15.277Z</time></trkpt><trkpt lat="45.4427974" lon="14.2746571"><ele>403.79999999999995</ele><time>2026-05-05T11:18:16.278Z</time></trkpt><trkpt lat="45.4428849" lon="14.2746195"><ele>403.4</ele><time>2026-05-05T11:18:17.278Z</time></trkpt><trkpt lat="45.4429762" lon="14.2745813"><ele>403.0</ele><time>2026-05-05T11:18:18.278Z</time></trkpt><trkpt lat="45.4430659" lon="14.2745432"><ele>403.0</ele><time>2026-05-05T11:18:19.278Z</time></trkpt><trkpt lat="45.4431599" lon="14.2745069"><ele>403.0</ele><time>2026-05-05T11:18:20.278Z</time></trkpt><trkpt lat="45.4432577" lon="14.2744692"><ele>403.0</ele><time>2026-05-05T11:18:21.277Z</time></trkpt><trkpt lat="45.4433581" lon="14.2744323"><ele>403.0</ele><time>2026-05-05T11:18:22.277Z</time></trkpt><trkpt lat="45.4434611" lon="14.2743948"><ele>403.0</ele><time>2026-05-05T11:18:23.277Z</time></trkpt><trkpt lat="45.4435635" lon="14.2743557"><ele>403.0</ele><time>2026-05-05T11:18:24.278Z</time></trkpt><trkpt lat="45.4436654" lon="14.2743182"><ele>403.0</ele><time>2026-05-05T11:18:25.278Z</time></trkpt><trkpt lat="45.4437657" lon="14.2742831"><ele>403.0</ele><time>2026-05-05T11:18:26.277Z</time></trkpt><trkpt lat="45.4438662" lon="14.2742444"><ele>403.0</ele><time>2026-05-05T11:18:27.277Z</time></trkpt><trkpt lat="45.443965" lon="14.2742007"><ele>403.0</ele><time>2026-05-05T11:18:28.277Z</time></trkpt><trkpt lat="45.4440565" lon="14.2741591"><ele>403.2</ele><time>2026-05-05T11:18:29.278Z</time></trkpt><trkpt lat="45.444149" lon="14.2741091"><ele>403.4</ele><time>2026-05-05T11:18:30.279Z</time></trkpt><trkpt lat="45.4442469" lon="14.274051"><ele>403.59999999999997</ele><time>2026-05-05T11:18:31.279Z</time></trkpt><trkpt lat="45.4443447" lon="14.2739806"><ele>403.79999999999995</ele><time>2026-05-05T11:18:32.277Z</time></trkpt><trkpt lat="45.4444463" lon="14.2739063"><ele>404.0</ele><time>2026-05-05T11:18:33.277Z</time></trkpt><trkpt lat="45.4445496" lon="14.2738342"><ele>405.75</ele><time>2026-05-05T11:18:34.277Z</time></trkpt><trkpt lat="45.4446708" lon="14.2737746"><ele>407.5</ele><time>2026-05-05T11:18:35.278Z</time></trkpt><trkpt lat="45.4448006" lon="14.2737247"><ele>409.25</ele><time>2026-05-05T11:18:36.278Z</time></trkpt><trkpt lat="45.4449481" lon="14.2736736"><ele>411.0</ele><time>2026-05-05T11:18:37.278Z</time></trkpt><trkpt lat="45.4451059" lon="14.2736191"><ele>411.0</ele><time>2026-05-05T11:18:38.278Z</time></trkpt><trkpt lat="45.4452692" lon="14.2735641"><ele>411.0</ele><time>2026-05-05T11:18:39.278Z</time></trkpt><trkpt lat="45.4454477" lon="14.2735026"><ele>411.0</ele><time>2026-05-05T11:18:40.277Z</time></trkpt><trkpt lat="45.4456308" lon="14.2734415"><ele>412.0</ele><time>2026-05-05T11:18:41.277Z</time></trkpt><trkpt lat="45.4458186" lon="14.2733785"><ele>413.0</ele><time>2026-05-05T11:18:42.278Z</time></trkpt><trkpt lat="45.4460087" lon="14.2733166"><ele>414.0</ele><time>2026-05-05T11:18:43.278Z</time></trkpt><trkpt lat="45.446201" lon="14.2732531"><ele>414.0</ele><time>2026-05-05T11:18:44.278Z</time></trkpt><trkpt lat="45.4463949" lon="14.2731883"><ele>414.0</ele><time>2026-05-05T11:18:45.278Z</time></trkpt><trkpt lat="45.4465901" lon="14.2731281"><ele>414.0</ele><time>2026-05-05T11:18:46.278Z</time></trkpt><trkpt lat="45.4467822" lon="14.2730618"><ele>414.33333333333337</ele><time>2026-05-05T11:18:47.278Z</time></trkpt><trkpt lat="45.4469764" lon="14.2729989"><ele>414.6666666666667</ele><time>2026-05-05T11:18:48.278Z</time></trkpt><trkpt lat="45.4471714" lon="14.272938"><ele>415.0</ele><time>2026-05-05T11:18:49.277Z</time></trkpt><trkpt lat="45.4473666" lon="14.2728756"><ele>414.0</ele><time>2026-05-05T11:18:50.278Z</time></trkpt><trkpt lat="45.4475594" lon="14.2728094"><ele>413.0</ele><time>2026-05-05T11:18:51.278Z</time></trkpt><trkpt lat="45.4477514" lon="14.2727432"><ele>412.0</ele><time>2026-05-05T11:18:52.278Z</time></trkpt><trkpt lat="45.447948" lon="14.2726746"><ele>412.33333333333337</ele><time>2026-05-05T11:18:53.277Z</time></trkpt><trkpt lat="45.4481411" lon="14.2726059"><ele>412.66666666666663</ele><time>2026-05-05T11:18:54.279Z</time></trkpt><trkpt lat="45.4483381" lon="14.2725383"><ele>413.0</ele><time>2026-05-05T11:18:55.278Z</time></trkpt><trkpt lat="45.4485326" lon="14.2724665"><ele>413.0</ele><time>2026-05-05T11:18:56.277Z</time></trkpt><trkpt lat="45.4487269" lon="14.2723948"><ele>413.0</ele><time>2026-05-05T11:18:57.278Z</time></trkpt><trkpt lat="45.4489226" lon="14.2723202"><ele>413.0</ele><time>2026-05-05T11:18:58.278Z</time></trkpt><trkpt lat="45.4491142" lon="14.2722436"><ele>412.66666666666663</ele><time>2026-05-05T11:18:59.278Z</time></trkpt><trkpt lat="45.4493044" lon="14.2721649"><ele>412.33333333333337</ele><time>2026-05-05T11:19:00.278Z</time></trkpt><trkpt lat="45.449493" lon="14.2720826"><ele>412.0</ele><time>2026-05-05T11:19:01.278Z</time></trkpt><trkpt lat="45.4496848" lon="14.2720045"><ele>413.33333333333337</ele><time>2026-05-05T11:19:02.278Z</time></trkpt><trkpt lat="45.4498763" lon="14.2719258"><ele>414.66666666666663</ele><time>2026-05-05T11:19:03.278Z</time></trkpt><trkpt lat="45.4500674" lon="14.2718474"><ele>416.0</ele><time>2026-05-05T11:19:04.278Z</time></trkpt><trkpt lat="45.4502543" lon="14.2717657"><ele>416.0</ele><time>2026-05-05T11:19:05.278Z</time></trkpt><trkpt lat="45.4504421" lon="14.2716839"><ele>416.0</ele><time>2026-05-05T11:19:06.278Z</time></trkpt><trkpt lat="45.4506324" lon="14.2715976"><ele>416.0</ele><time>2026-05-05T11:19:07.278Z</time></trkpt><trkpt lat="45.4508182" lon="14.2715135"><ele>418.66666666666663</ele><time>2026-05-05T11:19:08.278Z</time></trkpt><trkpt lat="45.4510053" lon="14.2714307"><ele>421.33333333333337</ele><time>2026-05-05T11:19:09.278Z</time></trkpt><trkpt lat="45.4511904" lon="14.2713386"><ele>424.0</ele><time>2026-05-05T11:19:10.278Z</time></trkpt><trkpt lat="45.4513764" lon="14.2712464"><ele>424.6666666666667</ele><time>2026-05-05T11:19:11.278Z</time></trkpt><trkpt lat="45.4515639" lon="14.2711559"><ele>425.33333333333337</ele><time>2026-05-05T11:19:12.278Z</time></trkpt><trkpt lat="45.4517505" lon="14.2710649"><ele>426.0</ele><time>2026-05-05T11:19:13.278Z</time></trkpt><trkpt lat="45.4519404" lon="14.2709738"><ele>426.0</ele><time>2026-05-05T11:19:14.278Z</time></trkpt><trkpt lat="45.4521284" lon="14.2708788"><ele>426.0</ele><time>2026-05-05T11:19:15.278Z</time></trkpt><trkpt lat="45.4523165" lon="14.2707817"><ele>426.0</ele><time>2026-05-05T11:19:16.278Z</time></trkpt><trkpt lat="45.452504" lon="14.2706855"><ele>423.66666666666663</ele><time>2026-05-05T11:19:17.277Z</time></trkpt><trkpt lat="45.4526891" lon="14.2705883"><ele>421.3333333333333</ele><time>2026-05-05T11:19:18.278Z</time></trkpt><trkpt lat="45.4528737" lon="14.2704926"><ele>419.0</ele><time>2026-05-05T11:19:19.278Z</time></trkpt><trkpt lat="45.4530564" lon="14.2703977"><ele>417.66666666666663</ele><time>2026-05-05T11:19:20.278Z</time></trkpt><trkpt lat="45.4532409" lon="14.2703028"><ele>416.33333333333337</ele><time>2026-05-05T11:19:21.277Z</time></trkpt><trkpt lat="45.4534232" lon="14.2702098"><ele>415.0</ele><time>2026-05-05T11:19:22.279Z</time></trkpt><trkpt lat="45.4536035" lon="14.2701183"><ele>415.0</ele><time>2026-05-05T11:19:23.279Z</time></trkpt><trkpt lat="45.4537824" lon="14.2700273"><ele>415.0</ele><time>2026-05-05T11:19:24.279Z</time></trkpt><trkpt lat="45.4539613" lon="14.269936"><ele>415.0</ele><time>2026-05-05T11:19:25.279Z</time></trkpt><trkpt lat="45.4541342" lon="14.2698482"><ele>411.0</ele><time>2026-05-05T11:19:26.278Z</time></trkpt><trkpt lat="45.4542996" lon="14.2697664"><ele>407.0</ele><time>2026-05-05T11:19:27.278Z</time></trkpt><trkpt lat="45.4544564" lon="14.2696909"><ele>403.0</ele><time>2026-05-05T11:19:28.277Z</time></trkpt><trkpt lat="45.454609" lon="14.2696188"><ele>404.0</ele><time>2026-05-05T11:19:29.278Z</time></trkpt><trkpt lat="45.4547532" lon="14.2695479"><ele>405.0</ele><time>2026-05-05T11:19:30.278Z</time></trkpt><trkpt lat="45.4548947" lon="14.2694844"><ele>406.0</ele><time>2026-05-05T11:19:31.278Z</time></trkpt><trkpt lat="45.455029" lon="14.2694295"><ele>407.0</ele><time>2026-05-05T11:19:32.278Z</time></trkpt><trkpt lat="45.455159" lon="14.269379"><ele>407.0</ele><time>2026-05-05T11:19:33.278Z</time></trkpt><trkpt lat="45.4552838" lon="14.2693372"><ele>407.0</ele><time>2026-05-05T11:19:34.278Z</time></trkpt><trkpt lat="45.4553972" lon="14.2692979"><ele>407.0</ele><time>2026-05-05T11:19:35.278Z</time></trkpt><trkpt lat="45.4555054" lon="14.2692655"><ele>407.0</ele><time>2026-05-05T11:19:36.277Z</time></trkpt><trkpt lat="45.4556083" lon="14.2692397"><ele>406.99999999999994</ele><time>2026-05-05T11:19:37.279Z</time></trkpt><trkpt lat="45.4557001" lon="14.269214"><ele>407.0</ele><time>2026-05-05T11:19:38.277Z</time></trkpt><trkpt lat="45.4557837" lon="14.2691918"><ele>407.0</ele><time>2026-05-05T11:19:39.278Z</time></trkpt><trkpt lat="45.4558603" lon="14.2691711"><ele>407.0</ele><time>2026-05-05T11:19:40.278Z</time></trkpt><trkpt lat="45.4559307" lon="14.2691555"><ele>406.99999999999994</ele><time>2026-05-05T11:19:41.278Z</time></trkpt><trkpt lat="45.4559984" lon="14.2691414"><ele>407.0</ele><time>2026-05-05T11:19:42.278Z</time></trkpt><trkpt lat="45.4561112" lon="14.2691079"><ele>406.99999999999994</ele><time>2026-05-05T11:19:44.277Z</time></trkpt><trkpt lat="45.4562006" lon="14.2690813"><ele>407.0</ele><time>2026-05-05T11:19:46.277Z</time></trkpt><trkpt lat="45.4562662" lon="14.2690625"><ele>407.0</ele><time>2026-05-05T11:19:48.278Z</time></trkpt><trkpt lat="45.4563343" lon="14.2690918"><ele>407.0</ele><time>2026-05-05T11:20:07.278Z</time></trkpt><trkpt lat="45.4564197" lon="14.2690749"><ele>406.99999999999994</ele><time>2026-05-05T11:20:42.278Z</time></trkpt><trkpt lat="45.4564827" lon="14.2690519"><ele>407.0</ele><time>2026-05-05T11:20:43.279Z</time></trkpt><trkpt lat="45.4566106" lon="14.2690088"><ele>408.20000000000005</ele><time>2026-05-05T11:20:45.278Z</time></trkpt><trkpt lat="45.4566869" lon="14.268985"><ele>409.4</ele><time>2026-05-05T11:20:46.278Z</time></trkpt><trkpt lat="45.456771" lon="14.2689512"><ele>410.6</ele><time>2026-05-05T11:20:47.277Z</time></trkpt><trkpt lat="45.4568601" lon="14.2689173"><ele>411.79999999999995</ele><time>2026-05-05T11:20:48.277Z</time></trkpt><trkpt lat="45.4569532" lon="14.2688807"><ele>413.0</ele><time>2026-05-05T11:20:49.277Z</time></trkpt><trkpt lat="45.4570546" lon="14.2688411"><ele>411.75</ele><time>2026-05-05T11:20:50.277Z</time></trkpt><trkpt lat="45.4571598" lon="14.268805"><ele>410.5</ele><time>2026-05-05T11:20:51.277Z</time></trkpt><trkpt lat="45.4572717" lon="14.2687722"><ele>409.25</ele><time>2026-05-05T11:20:52.277Z</time></trkpt><trkpt lat="45.4573895" lon="14.2687459"><ele>408.0</ele><time>2026-05-05T11:20:53.278Z</time></trkpt><trkpt lat="45.4575128" lon="14.2687238"><ele>408.0</ele><time>2026-05-05T11:20:54.278Z</time></trkpt><trkpt lat="45.4576393" lon="14.2687022"><ele>408.0</ele><time>2026-05-05T11:20:55.278Z</time></trkpt><trkpt lat="45.4577699" lon="14.2686833"><ele>408.0</ele><time>2026-05-05T11:20:56.278Z</time></trkpt><trkpt lat="45.4579093" lon="14.268663"><ele>408.0</ele><time>2026-05-05T11:20:57.277Z</time></trkpt><trkpt lat="45.4580517" lon="14.2686486"><ele>406.75</ele><time>2026-05-05T11:20:58.278Z</time></trkpt><trkpt lat="45.458195" lon="14.2686345"><ele>405.5</ele><time>2026-05-05T11:20:59.279Z</time></trkpt><trkpt lat="45.4583423" lon="14.2686201"><ele>404.25</ele><time>2026-05-05T11:21:00.278Z</time></trkpt><trkpt lat="45.4584937" lon="14.2686086"><ele>403.0</ele><time>2026-05-05T11:21:01.279Z</time></trkpt><trkpt lat="45.4586491" lon="14.2686001"><ele>405.33333333333337</ele><time>2026-05-05T11:21:02.279Z</time></trkpt><trkpt lat="45.4588091" lon="14.2685986"><ele>407.66666666666663</ele><time>2026-05-05T11:21:03.278Z</time></trkpt><trkpt lat="45.458976" lon="14.2685991"><ele>410.0</ele><time>2026-05-05T11:21:04.279Z</time></trkpt><trkpt lat="45.4591482" lon="14.2686002"><ele>410.0</ele><time>2026-05-05T11:21:05.277Z</time></trkpt><trkpt lat="45.4593197" lon="14.2686034"><ele>410.0</ele><time>2026-05-05T11:21:06.278Z</time></trkpt><trkpt lat="45.4594935" lon="14.2686089"><ele>410.0</ele><time>2026-05-05T11:21:07.278Z</time></trkpt><trkpt lat="45.4596719" lon="14.2686188"><ele>408.0</ele><time>2026-05-05T11:21:08.277Z</time></trkpt><trkpt lat="45.4598503" lon="14.2686346"><ele>406.0</ele><time>2026-05-05T11:21:09.279Z</time></trkpt><trkpt lat="45.4600328" lon="14.2686524"><ele>404.0</ele><time>2026-05-05T11:21:10.279Z</time></trkpt><trkpt lat="45.4602159" lon="14.2686774"><ele>404.0</ele><time>2026-05-05T11:21:11.279Z</time></trkpt><trkpt lat="45.4604004" lon="14.2687043"><ele>404.0</ele><time>2026-05-05T11:21:12.278Z</time></trkpt><trkpt lat="45.4605854" lon="14.2687365"><ele>404.0</ele><time>2026-05-05T11:21:13.278Z</time></trkpt><trkpt lat="45.4607737" lon="14.2687705"><ele>401.0</ele><time>2026-05-05T11:21:14.278Z</time></trkpt><trkpt lat="45.4609622" lon="14.2688115"><ele>398.0</ele><time>2026-05-05T11:21:15.278Z</time></trkpt><trkpt lat="45.461152" lon="14.2688516"><ele>395.0</ele><time>2026-05-05T11:21:16.278Z</time></trkpt><trkpt lat="45.4613456" lon="14.2689002"><ele>395.66666666666663</ele><time>2026-05-05T11:21:17.278Z</time></trkpt><trkpt lat="45.4615377" lon="14.2689501"><ele>396.33333333333337</ele><time>2026-05-05T11:21:18.277Z</time></trkpt><trkpt lat="45.4617314" lon="14.2690068"><ele>397.0</ele><time>2026-05-05T11:21:19.279Z</time></trkpt><trkpt lat="45.4619249" lon="14.2690668"><ele>398.33333333333337</ele><time>2026-05-05T11:21:20.279Z</time></trkpt><trkpt lat="45.4621191" lon="14.2691316"><ele>399.66666666666663</ele><time>2026-05-05T11:21:21.278Z</time></trkpt><trkpt lat="45.4623162" lon="14.2691991"><ele>401.0</ele><time>2026-05-05T11:21:22.278Z</time></trkpt><trkpt lat="45.4625119" lon="14.269271"><ele>401.0</ele><time>2026-05-05T11:21:23.277Z</time></trkpt><trkpt lat="45.4627095" lon="14.269345"><ele>401.0</ele><time>2026-05-05T11:21:24.278Z</time></trkpt><trkpt lat="45.4629051" lon="14.2694253"><ele>401.0</ele><time>2026-05-05T11:21:25.278Z</time></trkpt><trkpt lat="45.4630991" lon="14.269506"><ele>399.66666666666663</ele><time>2026-05-05T11:21:26.278Z</time></trkpt><trkpt lat="45.4632958" lon="14.2695902"><ele>398.33333333333337</ele><time>2026-05-05T11:21:27.277Z</time></trkpt><trkpt lat="45.4634926" lon="14.2696792"><ele>397.0</ele><time>2026-05-05T11:21:28.278Z</time></trkpt><trkpt lat="45.4636872" lon="14.2697694"><ele>398.6666666666667</ele><time>2026-05-05T11:21:29.277Z</time></trkpt><trkpt lat="45.4638813" lon="14.2698664"><ele>400.33333333333337</ele><time>2026-05-05T11:21:30.277Z</time></trkpt><trkpt lat="45.4640733" lon="14.2699666"><ele>402.0</ele><time>2026-05-05T11:21:31.278Z</time></trkpt><trkpt lat="45.4642644" lon="14.2700698"><ele>402.0</ele><time>2026-05-05T11:21:32.278Z</time></trkpt><trkpt lat="45.4644555" lon="14.2701716"><ele>402.0</ele><time>2026-05-05T11:21:33.278Z</time></trkpt><trkpt lat="45.4646472" lon="14.2702732"><ele>402.0</ele><time>2026-05-05T11:21:34.279Z</time></trkpt><trkpt lat="45.4648367" lon="14.2703766"><ele>403.0</ele><time>2026-05-05T11:21:35.278Z</time></trkpt><trkpt lat="45.4650245" lon="14.2704798"><ele>404.0</ele><time>2026-05-05T11:21:36.278Z</time></trkpt><trkpt lat="45.4652139" lon="14.2705872"><ele>405.0</ele><time>2026-05-05T11:21:37.278Z</time></trkpt><trkpt lat="45.4654013" lon="14.2706957"><ele>406.0</ele><time>2026-05-05T11:21:38.277Z</time></trkpt><trkpt lat="45.4655884" lon="14.2708043"><ele>407.0</ele><time>2026-05-05T11:21:39.277Z</time></trkpt><trkpt lat="45.4657746" lon="14.2709168"><ele>408.0</ele><time>2026-05-05T11:21:40.279Z</time></trkpt><trkpt lat="45.4659623" lon="14.271027"><ele>408.0</ele><time>2026-05-05T11:21:41.279Z</time></trkpt><trkpt lat="45.46615" lon="14.2711372"><ele>408.0</ele><time>2026-05-05T11:21:42.279Z</time></trkpt><trkpt lat="45.4663346" lon="14.2712485"><ele>408.0</ele><time>2026-05-05T11:21:43.279Z</time></trkpt><trkpt lat="45.4665212" lon="14.2713625"><ele>411.33333333333337</ele><time>2026-05-05T11:21:44.278Z</time></trkpt><trkpt lat="45.4667069" lon="14.2714764"><ele>414.6666666666667</ele><time>2026-05-05T11:21:45.279Z</time></trkpt><trkpt lat="45.4668903" lon="14.2715934"><ele>418.0</ele><time>2026-05-05T11:21:46.277Z</time></trkpt><trkpt lat="45.4670742" lon="14.2717064"><ele>415.33333333333337</ele><time>2026-05-05T11:21:47.277Z</time></trkpt><trkpt lat="45.4672603" lon="14.271823"><ele>412.66666666666663</ele><time>2026-05-05T11:21:48.278Z</time></trkpt><trkpt lat="45.4674477" lon="14.2719371"><ele>410.0</ele><time>2026-05-05T11:21:49.278Z</time></trkpt><trkpt lat="45.4676351" lon="14.2720505"><ele>410.0</ele><time>2026-05-05T11:21:50.278Z</time></trkpt><trkpt lat="45.4678207" lon="14.2721653"><ele>410.0</ele><time>2026-05-05T11:21:51.278Z</time></trkpt><trkpt lat="45.4680056" lon="14.2722795"><ele>410.0</ele><time>2026-05-05T11:21:52.279Z</time></trkpt><trkpt lat="45.4681907" lon="14.2723974"><ele>408.3333333333333</ele><time>2026-05-05T11:21:53.278Z</time></trkpt><trkpt lat="45.4683741" lon="14.2725159"><ele>406.66666666666663</ele><time>2026-05-05T11:21:54.277Z</time></trkpt><trkpt lat="45.4685565" lon="14.2726373"><ele>405.0</ele><time>2026-05-05T11:21:55.278Z</time></trkpt><trkpt lat="45.4687386" lon="14.2727556"><ele>404.66666666666663</ele><time>2026-05-05T11:21:56.278Z</time></trkpt><trkpt lat="45.4689197" lon="14.2728718"><ele>404.3333333333333</ele><time>2026-05-05T11:21:57.278Z</time></trkpt><trkpt lat="45.4690999" lon="14.2729853"><ele>404.0</ele><time>2026-05-05T11:21:58.278Z</time></trkpt><trkpt lat="45.4692786" lon="14.2730948"><ele>404.0</ele><time>2026-05-05T11:21:59.279Z</time></trkpt><trkpt lat="45.4694526" lon="14.2732047"><ele>404.0</ele><time>2026-05-05T11:22:00.278Z</time></trkpt><trkpt lat="45.4696232" lon="14.2733131"><ele>404.0</ele><time>2026-05-05T11:22:01.278Z</time></trkpt><trkpt lat="45.4697942" lon="14.2734222"><ele>403.3333333333333</ele><time>2026-05-05T11:22:02.277Z</time></trkpt><trkpt lat="45.4699544" lon="14.2735328"><ele>402.66666666666663</ele><time>2026-05-05T11:22:03.278Z</time></trkpt><trkpt lat="45.470116" lon="14.2736494"><ele>402.0</ele><time>2026-05-05T11:22:04.278Z</time></trkpt><trkpt lat="45.4702792" lon="14.2737679"><ele>404.0</ele><time>2026-05-05T11:22:05.278Z</time></trkpt><trkpt lat="45.4704421" lon="14.2738852"><ele>406.0</ele><time>2026-05-05T11:22:06.277Z</time></trkpt><trkpt lat="45.4706068" lon="14.2740039"><ele>408.0</ele><time>2026-05-05T11:22:07.278Z</time></trkpt><trkpt lat="45.4707744" lon="14.2741154"><ele>409.66666666666663</ele><time>2026-05-05T11:22:08.278Z</time></trkpt><trkpt lat="45.4709451" lon="14.2742218"><ele>411.3333333333333</ele><time>2026-05-05T11:22:09.279Z</time></trkpt><trkpt lat="45.4711164" lon="14.2743294"><ele>413.0</ele><time>2026-05-05T11:22:10.277Z</time></trkpt><trkpt lat="45.4712872" lon="14.274436"><ele>415.66666666666663</ele><time>2026-05-05T11:22:11.277Z</time></trkpt><trkpt lat="45.4714591" lon="14.274544"><ele>418.33333333333337</ele><time>2026-05-05T11:22:12.278Z</time></trkpt><trkpt lat="45.4716309" lon="14.2746564"><ele>421.0</ele><time>2026-05-05T11:22:13.278Z</time></trkpt><trkpt lat="45.4718047" lon="14.274764"><ele>422.6666666666667</ele><time>2026-05-05T11:22:14.279Z</time></trkpt><trkpt lat="45.4719784" lon="14.274869"><ele>424.33333333333337</ele><time>2026-05-05T11:22:15.277Z</time></trkpt><trkpt lat="45.472152" lon="14.2749749"><ele>426.0</ele><time>2026-05-05T11:22:16.277Z</time></trkpt><trkpt lat="45.4723258" lon="14.2750808"><ele>428.0</ele><time>2026-05-05T11:22:17.278Z</time></trkpt><trkpt lat="45.4724989" lon="14.2751861"><ele>430.0</ele><time>2026-05-05T11:22:18.277Z</time></trkpt><trkpt lat="45.4726704" lon="14.2752941"><ele>432.0</ele><time>2026-05-05T11:22:19.277Z</time></trkpt><trkpt lat="45.4728409" lon="14.2754002"><ele>431.66666666666663</ele><time>2026-05-05T11:22:20.278Z</time></trkpt><trkpt lat="45.473011" lon="14.2755056"><ele>431.3333333333333</ele><time>2026-05-05T11:22:21.277Z</time></trkpt><trkpt lat="45.4731821" lon="14.2756115"><ele>431.0</ele><time>2026-05-05T11:22:22.278Z</time></trkpt><trkpt lat="45.4733486" lon="14.2757129"><ele>431.0</ele><time>2026-05-05T11:22:23.277Z</time></trkpt><trkpt lat="45.4735059" lon="14.2758105"><ele>431.0</ele><time>2026-05-05T11:22:24.278Z</time></trkpt><trkpt lat="45.47366" lon="14.275906"><ele>431.0</ele><time>2026-05-05T11:22:25.278Z</time></trkpt><trkpt lat="45.4738096" lon="14.275996"><ele>431.25</ele><time>2026-05-05T11:22:26.279Z</time></trkpt><trkpt lat="45.4739536" lon="14.2760838"><ele>431.5</ele><time>2026-05-05T11:22:27.278Z</time></trkpt><trkpt lat="45.4740837" lon="14.2761634"><ele>431.75</ele><time>2026-05-05T11:22:28.279Z</time></trkpt><trkpt lat="45.4742022" lon="14.2762385"><ele>432.0</ele><time>2026-05-05T11:22:29.279Z</time></trkpt><trkpt lat="45.4743108" lon="14.2763184"><ele>432.0</ele><time>2026-05-05T11:22:30.277Z</time></trkpt><trkpt lat="45.4744137" lon="14.2764059"><ele>432.00000000000006</ele><time>2026-05-05T11:22:31.277Z</time></trkpt><trkpt lat="45.4745053" lon="14.2764996"><ele>432.00000000000006</ele><time>2026-05-05T11:22:32.277Z</time></trkpt><trkpt lat="45.4745868" lon="14.2766021"><ele>432.0</ele><time>2026-05-05T11:22:33.278Z</time></trkpt><trkpt lat="45.4746535" lon="14.2767173"><ele>432.0</ele><time>2026-05-05T11:22:34.278Z</time></trkpt><trkpt lat="45.4746985" lon="14.2768455"><ele>433.0</ele><time>2026-05-05T11:22:35.277Z</time></trkpt><trkpt lat="45.4747193" lon="14.2769863"><ele>434.00000000000006</ele><time>2026-05-05T11:22:36.277Z</time></trkpt><trkpt lat="45.474725" lon="14.2771283"><ele>435.00000000000006</ele><time>2026-05-05T11:22:37.278Z</time></trkpt><trkpt lat="45.474692" lon="14.2772598"><ele>436.0</ele><time>2026-05-05T11:22:38.278Z</time></trkpt><trkpt lat="45.4746378" lon="14.2773944"><ele>437.0</ele><time>2026-05-05T11:22:39.277Z</time></trkpt><trkpt lat="45.4745635" lon="14.2774992"><ele>437.0</ele><time>2026-05-05T11:22:40.277Z</time></trkpt><trkpt lat="45.4744696" lon="14.2775772"><ele>437.0</ele><time>2026-05-05T11:22:41.276Z</time></trkpt><trkpt lat="45.4743633" lon="14.2776268"><ele>437.0</ele><time>2026-05-05T11:22:42.277Z</time></trkpt><trkpt lat="45.474249" lon="14.277644"><ele>437.0</ele><time>2026-05-05T11:22:43.278Z</time></trkpt><trkpt lat="45.4741294" lon="14.2776378"><ele>437.0</ele><time>2026-05-05T11:22:44.278Z</time></trkpt><trkpt lat="45.4740037" lon="14.2776257"><ele>437.0</ele><time>2026-05-05T11:22:45.277Z</time></trkpt><trkpt lat="45.4738758" lon="14.2776112"><ele>437.0</ele><time>2026-05-05T11:22:46.277Z</time></trkpt><trkpt lat="45.4737507" lon="14.2775973"><ele>437.0</ele><time>2026-05-05T11:22:47.276Z</time></trkpt><trkpt lat="45.4736375" lon="14.2775857"><ele>436.16666666666663</ele><time>2026-05-05T11:22:48.276Z</time></trkpt><trkpt lat="45.4735399" lon="14.2775694"><ele>435.3333333333333</ele><time>2026-05-05T11:22:49.276Z</time></trkpt><trkpt lat="45.4734646" lon="14.2775515"><ele>434.5</ele><time>2026-05-05T11:22:50.276Z</time></trkpt><trkpt lat="45.4733672" lon="14.2775046"><ele>433.66666666666663</ele><time>2026-05-05T11:22:52.276Z</time></trkpt><trkpt lat="45.4733242" lon="14.2773844"><ele>432.8333333333333</ele><time>2026-05-05T11:22:54.276Z</time></trkpt><trkpt lat="45.4733322" lon="14.2772888"><ele>432.0</ele><time>2026-05-05T11:22:55.277Z</time></trkpt><trkpt lat="45.4733591" lon="14.2771723"><ele>431.75</ele><time>2026-05-05T11:22:56.277Z</time></trkpt><trkpt lat="45.4733958" lon="14.2770356"><ele>431.5</ele><time>2026-05-05T11:22:57.277Z</time></trkpt><trkpt lat="45.4734354" lon="14.2768958"><ele>431.25</ele><time>2026-05-05T11:22:58.276Z</time></trkpt><trkpt lat="45.473478" lon="14.276738"><ele>431.0</ele><time>2026-05-05T11:22:59.277Z</time></trkpt><trkpt lat="45.4735262" lon="14.2765674"><ele>431.0</ele><time>2026-05-05T11:23:00.277Z</time></trkpt><trkpt lat="45.473577" lon="14.2763925"><ele>431.0</ele><time>2026-05-05T11:23:01.276Z</time></trkpt><trkpt lat="45.473627" lon="14.2762182"><ele>431.0</ele><time>2026-05-05T11:23:02.277Z</time></trkpt><trkpt lat="45.4736808" lon="14.2760388"><ele>431.0</ele><time>2026-05-05T11:23:03.278Z</time></trkpt><trkpt lat="45.4737346" lon="14.2758573"><ele>431.25</ele><time>2026-05-05T11:23:04.278Z</time></trkpt><trkpt lat="45.4737911" lon="14.2756675"><ele>431.5</ele><time>2026-05-05T11:23:05.276Z</time></trkpt><trkpt lat="45.47385" lon="14.2754773"><ele>431.75</ele><time>2026-05-05T11:23:06.277Z</time></trkpt><trkpt lat="45.4739109" lon="14.2752828"><ele>432.0</ele><time>2026-05-05T11:23:07.276Z</time></trkpt><trkpt lat="45.4739723" lon="14.2750879"><ele>432.0</ele><time>2026-05-05T11:23:08.277Z</time></trkpt><trkpt lat="45.4740352" lon="14.2748986"><ele>432.0</ele><time>2026-05-05T11:23:09.278Z</time></trkpt><trkpt lat="45.4741049" lon="14.2747185"><ele>432.0</ele><time>2026-05-05T11:23:10.278Z</time></trkpt><trkpt lat="45.4741822" lon="14.2745469"><ele>432.0</ele><time>2026-05-05T11:23:11.277Z</time></trkpt><trkpt lat="45.4742683" lon="14.2743852"><ele>432.0</ele><time>2026-05-05T11:23:12.276Z</time></trkpt><trkpt lat="45.4743641" lon="14.2742293"><ele>432.0</ele><time>2026-05-05T11:23:13.277Z</time></trkpt><trkpt lat="45.474469" lon="14.2740793"><ele>432.0</ele><time>2026-05-05T11:23:14.277Z</time></trkpt><trkpt lat="45.4745818" lon="14.2739302"><ele>432.0</ele><time>2026-05-05T11:23:15.277Z</time></trkpt><trkpt lat="45.4746986" lon="14.2737858"><ele>430.33333333333337</ele><time>2026-05-05T11:23:16.276Z</time></trkpt><trkpt lat="45.4748166" lon="14.2736413"><ele>428.6666666666667</ele><time>2026-05-05T11:23:17.277Z</time></trkpt><trkpt lat="45.4749326" lon="14.273497"><ele>427.0</ele><time>2026-05-05T11:23:18.277Z</time></trkpt><trkpt lat="45.4750497" lon="14.2733517"><ele>427.0</ele><time>2026-05-05T11:23:19.276Z</time></trkpt><trkpt lat="45.4751629" lon="14.2732047"><ele>427.0</ele><time>2026-05-05T11:23:20.277Z</time></trkpt><trkpt lat="45.475271" lon="14.2730548"><ele>427.0</ele><time>2026-05-05T11:23:21.276Z</time></trkpt><trkpt lat="45.4753744" lon="14.2728975"><ele>428.33333333333337</ele><time>2026-05-05T11:23:22.277Z</time></trkpt><trkpt lat="45.4754675" lon="14.2727332"><ele>429.66666666666663</ele><time>2026-05-05T11:23:23.277Z</time></trkpt><trkpt lat="45.4755544" lon="14.2725589"><ele>431.0</ele><time>2026-05-05T11:23:24.276Z</time></trkpt><trkpt lat="45.4756364" lon="14.2723771"><ele>429.3333333333333</ele><time>2026-05-05T11:23:25.277Z</time></trkpt><trkpt lat="45.4757143" lon="14.2721904"><ele>427.66666666666663</ele><time>2026-05-05T11:23:26.276Z</time></trkpt><trkpt lat="45.475784" lon="14.2719956"><ele>426.0</ele><time>2026-05-05T11:23:27.276Z</time></trkpt><trkpt lat="45.4758448" lon="14.2717925"><ele>426.0</ele><time>2026-05-05T11:23:28.276Z</time></trkpt><trkpt lat="45.4758953" lon="14.2715834"><ele>426.0</ele><time>2026-05-05T11:23:29.277Z</time></trkpt><trkpt lat="45.4759327" lon="14.2713658"><ele>426.0</ele><time>2026-05-05T11:23:30.277Z</time></trkpt><trkpt lat="45.4759635" lon="14.2711428"><ele>425.66666666666663</ele><time>2026-05-05T11:23:31.276Z</time></trkpt><trkpt lat="45.4759875" lon="14.2709149"><ele>425.3333333333333</ele><time>2026-05-05T11:23:32.277Z</time></trkpt><trkpt lat="45.4760091" lon="14.2706787"><ele>425.0</ele><time>2026-05-05T11:23:33.277Z</time></trkpt><trkpt lat="45.4760275" lon="14.2704382"><ele>424.66666666666663</ele><time>2026-05-05T11:23:34.278Z</time></trkpt><trkpt lat="45.4760402" lon="14.270202"><ele>424.33333333333337</ele><time>2026-05-05T11:23:35.277Z</time></trkpt><trkpt lat="45.4760522" lon="14.2699589"><ele>424.0</ele><time>2026-05-05T11:23:36.277Z</time></trkpt><trkpt lat="45.476068" lon="14.2697159"><ele>422.6666666666667</ele><time>2026-05-05T11:23:37.277Z</time></trkpt><trkpt lat="45.4760823" lon="14.2694649"><ele>421.33333333333337</ele><time>2026-05-05T11:23:38.276Z</time></trkpt><trkpt lat="45.4760945" lon="14.2692136"><ele>420.0</ele><time>2026-05-05T11:23:39.276Z</time></trkpt><trkpt lat="45.4761081" lon="14.2689602"><ele>420.0</ele><time>2026-05-05T11:23:40.276Z</time></trkpt><trkpt lat="45.4761201" lon="14.2687063"><ele>420.0</ele><time>2026-05-05T11:23:41.276Z</time></trkpt><trkpt lat="45.4761312" lon="14.2684576"><ele>420.0</ele><time>2026-05-05T11:23:42.277Z</time></trkpt><trkpt lat="45.4761452" lon="14.2682171"><ele>418.66666666666663</ele><time>2026-05-05T11:23:43.278Z</time></trkpt><trkpt lat="45.4761642" lon="14.2679814"><ele>417.3333333333333</ele><time>2026-05-05T11:23:44.278Z</time></trkpt><trkpt lat="45.4761904" lon="14.2677529"><ele>416.0</ele><time>2026-05-05T11:23:45.278Z</time></trkpt><trkpt lat="45.4762311" lon="14.2675393"><ele>415.75</ele><time>2026-05-05T11:23:46.277Z</time></trkpt><trkpt lat="45.4762886" lon="14.2673422"><ele>415.5</ele><time>2026-05-05T11:23:47.276Z</time></trkpt><trkpt lat="45.4763607" lon="14.2671583"><ele>415.25</ele><time>2026-05-05T11:23:48.277Z</time></trkpt><trkpt lat="45.4764515" lon="14.2669844"><ele>415.0</ele><time>2026-05-05T11:23:49.277Z</time></trkpt><trkpt lat="45.476554" lon="14.2668166"><ele>415.0</ele><time>2026-05-05T11:23:50.278Z</time></trkpt><trkpt lat="45.476664" lon="14.2666492"><ele>415.0</ele><time>2026-05-05T11:23:51.277Z</time></trkpt><trkpt lat="45.4767782" lon="14.26648"><ele>415.0</ele><time>2026-05-05T11:23:52.277Z</time></trkpt><trkpt lat="45.4768964" lon="14.2663089"><ele>416.0</ele><time>2026-05-05T11:23:53.277Z</time></trkpt><trkpt lat="45.4770131" lon="14.2661418"><ele>417.0</ele><time>2026-05-05T11:23:54.277Z</time></trkpt><trkpt lat="45.4771289" lon="14.2659789"><ele>418.0</ele><time>2026-05-05T11:23:55.277Z</time></trkpt><trkpt lat="45.4772451" lon="14.2658136"><ele>420.6666666666667</ele><time>2026-05-05T11:23:56.277Z</time></trkpt><trkpt lat="45.4773593" lon="14.2656519"><ele>423.33333333333337</ele><time>2026-05-05T11:23:57.277Z</time></trkpt><trkpt lat="45.4774735" lon="14.2654861"><ele>426.0</ele><time>2026-05-05T11:23:58.276Z</time></trkpt><trkpt lat="45.4775898" lon="14.2653219"><ele>426.33333333333337</ele><time>2026-05-05T11:23:59.277Z</time></trkpt><trkpt lat="45.4777072" lon="14.2651567"><ele>426.6666666666667</ele><time>2026-05-05T11:24:00.278Z</time></trkpt><trkpt lat="45.4778207" lon="14.2649921"><ele>427.0</ele><time>2026-05-05T11:24:01.277Z</time></trkpt><trkpt lat="45.4779336" lon="14.2648299"><ele>422.33333333333337</ele><time>2026-05-05T11:24:02.278Z</time></trkpt><trkpt lat="45.4780444" lon="14.2646695"><ele>417.66666666666663</ele><time>2026-05-05T11:24:03.277Z</time></trkpt><trkpt lat="45.4781528" lon="14.2645077"><ele>413.0</ele><time>2026-05-05T11:24:04.276Z</time></trkpt><trkpt lat="45.4782634" lon="14.2643459"><ele>413.0</ele><time>2026-05-05T11:24:05.277Z</time></trkpt><trkpt lat="45.4783728" lon="14.264184"><ele>413.0</ele><time>2026-05-05T11:24:06.277Z</time></trkpt><trkpt lat="45.4784787" lon="14.2640182"><ele>413.0</ele><time>2026-05-05T11:24:07.277Z</time></trkpt><trkpt lat="45.4785765" lon="14.2638431"><ele>413.3333333333333</ele><time>2026-05-05T11:24:08.276Z</time></trkpt><trkpt lat="45.4786664" lon="14.2636608"><ele>413.66666666666663</ele><time>2026-05-05T11:24:09.277Z</time></trkpt><trkpt lat="45.478751" lon="14.2634674"><ele>414.0</ele><time>2026-05-05T11:24:10.276Z</time></trkpt><trkpt lat="45.4788291" lon="14.2632662"><ele>412.33333333333337</ele><time>2026-05-05T11:24:11.277Z</time></trkpt><trkpt lat="45.4788985" lon="14.2630563"><ele>410.6666666666667</ele><time>2026-05-05T11:24:12.276Z</time></trkpt><trkpt lat="45.4789568" lon="14.2628409"><ele>409.0</ele><time>2026-05-05T11:24:13.277Z</time></trkpt><trkpt lat="45.4790096" lon="14.2626171"><ele>409.0</ele><time>2026-05-05T11:24:14.277Z</time></trkpt><trkpt lat="45.4790566" lon="14.2623863"><ele>409.0</ele><time>2026-05-05T11:24:15.278Z</time></trkpt><trkpt lat="45.4791019" lon="14.2621496"><ele>409.0</ele><time>2026-05-05T11:24:16.276Z</time></trkpt><trkpt lat="45.479144" lon="14.2619082"><ele>407.6666666666667</ele><time>2026-05-05T11:24:17.277Z</time></trkpt><trkpt lat="45.4791877" lon="14.2616664"><ele>406.33333333333337</ele><time>2026-05-05T11:24:18.277Z</time></trkpt><trkpt lat="45.4792305" lon="14.261425"><ele>405.0</ele><time>2026-05-05T11:24:19.277Z</time></trkpt><trkpt lat="45.4792721" lon="14.2611826"><ele>405.0</ele><time>2026-05-05T11:24:20.277Z</time></trkpt><trkpt lat="45.4793126" lon="14.2609398"><ele>405.0</ele><time>2026-05-05T11:24:21.277Z</time></trkpt><trkpt lat="45.4793546" lon="14.2606949"><ele>405.0</ele><time>2026-05-05T11:24:22.276Z</time></trkpt><trkpt lat="45.4793982" lon="14.260453"><ele>404.0</ele><time>2026-05-05T11:24:23.276Z</time></trkpt><trkpt lat="45.4794376" lon="14.2602182"><ele>403.0</ele><time>2026-05-05T11:24:24.277Z</time></trkpt><trkpt lat="45.4794754" lon="14.2599859"><ele>402.0</ele><time>2026-05-05T11:24:25.277Z</time></trkpt><trkpt lat="45.4795123" lon="14.2597634"><ele>401.66666666666663</ele><time>2026-05-05T11:24:26.276Z</time></trkpt><trkpt lat="45.4795502" lon="14.2595428"><ele>401.3333333333333</ele><time>2026-05-05T11:24:27.276Z</time></trkpt><trkpt lat="45.4795879" lon="14.2593232"><ele>401.0</ele><time>2026-05-05T11:24:28.277Z</time></trkpt><trkpt lat="45.4796272" lon="14.2590995"><ele>404.0</ele><time>2026-05-05T11:24:29.276Z</time></trkpt><trkpt lat="45.4796647" lon="14.2588771"><ele>407.0</ele><time>2026-05-05T11:24:30.277Z</time></trkpt><trkpt lat="45.4797007" lon="14.2586551"><ele>410.0</ele><time>2026-05-05T11:24:31.278Z</time></trkpt><trkpt lat="45.4797419" lon="14.2584395"><ele>410.0</ele><time>2026-05-05T11:24:32.277Z</time></trkpt><trkpt lat="45.4797796" lon="14.2582275"><ele>410.0</ele><time>2026-05-05T11:24:33.276Z</time></trkpt><trkpt lat="45.4798174" lon="14.2580126"><ele>410.0</ele><time>2026-05-05T11:24:34.277Z</time></trkpt><trkpt lat="45.479857" lon="14.2577981"><ele>410.0</ele><time>2026-05-05T11:24:35.276Z</time></trkpt><trkpt lat="45.4798933" lon="14.2575811"><ele>410.0</ele><time>2026-05-05T11:24:36.276Z</time></trkpt><trkpt lat="45.4799282" lon="14.2573635"><ele>410.0</ele><time>2026-05-05T11:24:37.277Z</time></trkpt><trkpt lat="45.4799661" lon="14.2571443"><ele>410.3333333333333</ele><time>2026-05-05T11:24:38.278Z</time></trkpt><trkpt lat="45.4800055" lon="14.256926"><ele>410.66666666666663</ele><time>2026-05-05T11:24:39.277Z</time></trkpt><trkpt lat="45.4800435" lon="14.2567084"><ele>411.0</ele><time>2026-05-05T11:24:40.278Z</time></trkpt><trkpt lat="45.4800805" lon="14.2564895"><ele>411.33333333333337</ele><time>2026-05-05T11:24:41.276Z</time></trkpt><trkpt lat="45.4801177" lon="14.2562726"><ele>411.6666666666667</ele><time>2026-05-05T11:24:42.277Z</time></trkpt><trkpt lat="45.480155" lon="14.256055"><ele>412.0</ele><time>2026-05-05T11:24:43.277Z</time></trkpt><trkpt lat="45.4801938" lon="14.2558376"><ele>412.0</ele><time>2026-05-05T11:24:44.277Z</time></trkpt><trkpt lat="45.4802331" lon="14.2556214"><ele>412.0</ele><time>2026-05-05T11:24:45.277Z</time></trkpt><trkpt lat="45.4802669" lon="14.2554091"><ele>412.0</ele><time>2026-05-05T11:24:46.277Z</time></trkpt><trkpt lat="45.4803019" lon="14.2552018"><ele>411.25</ele><time>2026-05-05T11:24:47.278Z</time></trkpt><trkpt lat="45.4803373" lon="14.2549949"><ele>410.5</ele><time>2026-05-05T11:24:48.276Z</time></trkpt><trkpt lat="45.4803722" lon="14.2547871"><ele>409.75</ele><time>2026-05-05T11:24:49.277Z</time></trkpt><trkpt lat="45.4804072" lon="14.2545877"><ele>409.0</ele><time>2026-05-05T11:24:50.277Z</time></trkpt><trkpt lat="45.4804436" lon="14.2543955"><ele>410.75</ele><time>2026-05-05T11:24:51.278Z</time></trkpt><trkpt lat="45.4804787" lon="14.2542156"><ele>412.5</ele><time>2026-05-05T11:24:52.276Z</time></trkpt><trkpt lat="45.4805111" lon="14.2540386"><ele>414.25</ele><time>2026-05-05T11:24:53.277Z</time></trkpt><trkpt lat="45.4805458" lon="14.2538691"><ele>416.0</ele><time>2026-05-05T11:24:54.277Z</time></trkpt><trkpt lat="45.4805872" lon="14.2537001"><ele>417.75</ele><time>2026-05-05T11:24:55.277Z</time></trkpt><trkpt lat="45.4806381" lon="14.2535383"><ele>419.5</ele><time>2026-05-05T11:24:56.276Z</time></trkpt><trkpt lat="45.4806988" lon="14.2533861"><ele>421.25</ele><time>2026-05-05T11:24:57.276Z</time></trkpt><trkpt lat="45.4807637" lon="14.2532451"><ele>423.0</ele><time>2026-05-05T11:24:58.277Z</time></trkpt><trkpt lat="45.4808268" lon="14.2531102"><ele>423.79999999999995</ele><time>2026-05-05T11:24:59.278Z</time></trkpt><trkpt lat="45.4808769" lon="14.2529797"><ele>424.6</ele><time>2026-05-05T11:25:00.277Z</time></trkpt><trkpt lat="45.4809123" lon="14.2528418"><ele>425.40000000000003</ele><time>2026-05-05T11:25:01.277Z</time></trkpt><trkpt lat="45.4809342" lon="14.2527003"><ele>426.20000000000005</ele><time>2026-05-05T11:25:02.277Z</time></trkpt><trkpt lat="45.4809489" lon="14.2525542"><ele>427.0</ele><time>2026-05-05T11:25:03.277Z</time></trkpt><trkpt lat="45.4809657" lon="14.25241"><ele>427.0</ele><time>2026-05-05T11:25:04.277Z</time></trkpt><trkpt lat="45.4809981" lon="14.2522689"><ele>427.00000000000006</ele><time>2026-05-05T11:25:05.277Z</time></trkpt><trkpt lat="45.4810441" lon="14.2521257"><ele>427.00000000000006</ele><time>2026-05-05T11:25:06.277Z</time></trkpt><trkpt lat="45.4811018" lon="14.2519938"><ele>427.0</ele><time>2026-05-05T11:25:07.277Z</time></trkpt><trkpt lat="45.4811707" lon="14.2518649"><ele>427.0</ele><time>2026-05-05T11:25:08.277Z</time></trkpt><trkpt lat="45.4812484" lon="14.2517398"><ele>426.75</ele><time>2026-05-05T11:25:09.278Z</time></trkpt><trkpt lat="45.481338" lon="14.2516284"><ele>426.5</ele><time>2026-05-05T11:25:10.277Z</time></trkpt><trkpt lat="45.4814309" lon="14.2515162"><ele>426.25</ele><time>2026-05-05T11:25:11.276Z</time></trkpt><trkpt lat="45.4815244" lon="14.2513935"><ele>426.0</ele><time>2026-05-05T11:25:12.276Z</time></trkpt><trkpt lat="45.481618" lon="14.2512657"><ele>426.0</ele><time>2026-05-05T11:25:13.277Z</time></trkpt><trkpt lat="45.4817045" lon="14.2511182"><ele>426.0</ele><time>2026-05-05T11:25:14.277Z</time></trkpt><trkpt lat="45.4817859" lon="14.2509555"><ele>426.0</ele><time>2026-05-05T11:25:15.277Z</time></trkpt><trkpt lat="45.4818643" lon="14.2507898"><ele>426.0</ele><time>2026-05-05T11:25:16.277Z</time></trkpt><trkpt lat="45.4819395" lon="14.2506225"><ele>424.25</ele><time>2026-05-05T11:25:17.278Z</time></trkpt><trkpt lat="45.4820155" lon="14.2504505"><ele>422.5</ele><time>2026-05-05T11:25:18.277Z</time></trkpt><trkpt lat="45.4820926" lon="14.2502782"><ele>420.75</ele><time>2026-05-05T11:25:19.277Z</time></trkpt><trkpt lat="45.4821711" lon="14.2501053"><ele>419.0</ele><time>2026-05-05T11:25:20.278Z</time></trkpt><trkpt lat="45.482249" lon="14.2499389"><ele>420.75</ele><time>2026-05-05T11:25:21.277Z</time></trkpt><trkpt lat="45.4823249" lon="14.2497808"><ele>422.5</ele><time>2026-05-05T11:25:22.278Z</time></trkpt><trkpt lat="45.4824039" lon="14.2496292"><ele>424.25</ele><time>2026-05-05T11:25:23.278Z</time></trkpt><trkpt lat="45.4824832" lon="14.2494977"><ele>426.0</ele><time>2026-05-05T11:25:24.277Z</time></trkpt><trkpt lat="45.4825711" lon="14.249372"><ele>426.0</ele><time>2026-05-05T11:25:25.278Z</time></trkpt><trkpt lat="45.482665" lon="14.2492609"><ele>426.0</ele><time>2026-05-05T11:25:26.277Z</time></trkpt><trkpt lat="45.4827671" lon="14.2491619"><ele>426.0</ele><time>2026-05-05T11:25:27.277Z</time></trkpt><trkpt lat="45.4828833" lon="14.2490716"><ele>426.0</ele><time>2026-05-05T11:25:28.277Z</time></trkpt><trkpt lat="45.4830078" lon="14.2489937"><ele>425.0</ele><time>2026-05-05T11:25:29.277Z</time></trkpt><trkpt lat="45.4831385" lon="14.2489246"><ele>424.0</ele><time>2026-05-05T11:25:30.276Z</time></trkpt><trkpt lat="45.4832875" lon="14.2488652"><ele>423.0</ele><time>2026-05-05T11:25:31.276Z</time></trkpt><trkpt lat="45.4834302" lon="14.2488093"><ele>422.0</ele><time>2026-05-05T11:25:32.278Z</time></trkpt><trkpt lat="45.4835778" lon="14.248756"><ele>422.0</ele><time>2026-05-05T11:25:33.278Z</time></trkpt><trkpt lat="45.4837246" lon="14.2487016"><ele>422.0</ele><time>2026-05-05T11:25:34.277Z</time></trkpt><trkpt lat="45.4838632" lon="14.2486458"><ele>422.0</ele><time>2026-05-05T11:25:35.276Z</time></trkpt><trkpt lat="45.4839949" lon="14.248583"><ele>422.0</ele><time>2026-05-05T11:25:36.277Z</time></trkpt><trkpt lat="45.4841061" lon="14.2485076"><ele>422.75</ele><time>2026-05-05T11:25:37.277Z</time></trkpt><trkpt lat="45.4842082" lon="14.248406"><ele>423.5</ele><time>2026-05-05T11:25:38.277Z</time></trkpt><trkpt lat="45.4843001" lon="14.2482868"><ele>424.25</ele><time>2026-05-05T11:25:39.277Z</time></trkpt><trkpt lat="45.4843773" lon="14.2481497"><ele>425.0</ele><time>2026-05-05T11:25:40.276Z</time></trkpt><trkpt lat="45.4844361" lon="14.2479989"><ele>425.0</ele><time>2026-05-05T11:25:41.277Z</time></trkpt><trkpt lat="45.484478" lon="14.2478389"><ele>425.0</ele><time>2026-05-05T11:25:42.276Z</time></trkpt><trkpt lat="45.4845066" lon="14.2476728"><ele>425.0</ele><time>2026-05-05T11:25:43.277Z</time></trkpt><trkpt lat="45.4845096" lon="14.2475036"><ele>425.0</ele><time>2026-05-05T11:25:44.277Z</time></trkpt><trkpt lat="45.4844998" lon="14.2473354"><ele>426.5</ele><time>2026-05-05T11:25:45.277Z</time></trkpt><trkpt lat="45.4844706" lon="14.2471652"><ele>428.0</ele><time>2026-05-05T11:25:46.277Z</time></trkpt><trkpt lat="45.4844178" lon="14.2470156"><ele>429.5</ele><time>2026-05-05T11:25:47.278Z</time></trkpt><trkpt lat="45.4843519" lon="14.246872"><ele>431.0</ele><time>2026-05-05T11:25:48.277Z</time></trkpt><trkpt lat="45.4842725" lon="14.2467448"><ele>431.0</ele><time>2026-05-05T11:25:49.276Z</time></trkpt><trkpt lat="45.4841797" lon="14.2466337"><ele>431.0</ele><time>2026-05-05T11:25:50.277Z</time></trkpt><trkpt lat="45.4840716" lon="14.2465444"><ele>431.0</ele><time>2026-05-05T11:25:51.277Z</time></trkpt><trkpt lat="45.4839547" lon="14.2464789"><ele>431.0</ele><time>2026-05-05T11:25:52.276Z</time></trkpt><trkpt lat="45.4838295" lon="14.2464335"><ele>432.5</ele><time>2026-05-05T11:25:53.277Z</time></trkpt><trkpt lat="45.4837061" lon="14.2464034"><ele>434.0</ele><time>2026-05-05T11:25:54.277Z</time></trkpt><trkpt lat="45.4835814" lon="14.2463834"><ele>435.5</ele><time>2026-05-05T11:25:55.278Z</time></trkpt><trkpt lat="45.4834558" lon="14.2463714"><ele>437.0</ele><time>2026-05-05T11:25:56.278Z</time></trkpt><trkpt lat="45.483318" lon="14.246357"><ele>437.0</ele><time>2026-05-05T11:25:57.277Z</time></trkpt><trkpt lat="45.4831828" lon="14.2463303"><ele>437.0</ele><time>2026-05-05T11:25:58.278Z</time></trkpt><trkpt lat="45.4830506" lon="14.2462867"><ele>437.0</ele><time>2026-05-05T11:25:59.278Z</time></trkpt><trkpt lat="45.4829222" lon="14.2462312"><ele>437.0</ele><time>2026-05-05T11:26:00.278Z</time></trkpt><trkpt lat="45.4827983" lon="14.2461567"><ele>436.25</ele><time>2026-05-05T11:26:01.278Z</time></trkpt><trkpt lat="45.482678" lon="14.2460656"><ele>435.5</ele><time>2026-05-05T11:26:02.277Z</time></trkpt><trkpt lat="45.4825654" lon="14.2459542"><ele>434.75</ele><time>2026-05-05T11:26:03.277Z</time></trkpt><trkpt lat="45.4824561" lon="14.2458188"><ele>434.0</ele><time>2026-05-05T11:26:04.276Z</time></trkpt><trkpt lat="45.4823649" lon="14.245665"><ele>435.5</ele><time>2026-05-05T11:26:05.277Z</time></trkpt><trkpt lat="45.4822785" lon="14.2454995"><ele>437.0</ele><time>2026-05-05T11:26:06.277Z</time></trkpt><trkpt lat="45.4822044" lon="14.2453196"><ele>438.5</ele><time>2026-05-05T11:26:07.277Z</time></trkpt><trkpt lat="45.4821454" lon="14.2451295"><ele>440.0</ele><time>2026-05-05T11:26:08.278Z</time></trkpt><trkpt lat="45.4821044" lon="14.2449307"><ele>440.5</ele><time>2026-05-05T11:26:09.278Z</time></trkpt><trkpt lat="45.4820792" lon="14.2447247"><ele>441.0</ele><time>2026-05-05T11:26:10.277Z</time></trkpt><trkpt lat="45.4820658" lon="14.2445148"><ele>441.5</ele><time>2026-05-05T11:26:11.278Z</time></trkpt><trkpt lat="45.4820578" lon="14.2443023"><ele>442.0</ele><time>2026-05-05T11:26:12.277Z</time></trkpt><trkpt lat="45.4820533" lon="14.2440923"><ele>443.5</ele><time>2026-05-05T11:26:13.277Z</time></trkpt><trkpt lat="45.4820467" lon="14.2438871"><ele>445.0</ele><time>2026-05-05T11:26:14.276Z</time></trkpt><trkpt lat="45.4820335" lon="14.2436912"><ele>446.5</ele><time>2026-05-05T11:26:15.276Z</time></trkpt><trkpt lat="45.4820109" lon="14.2435013"><ele>448.0</ele><time>2026-05-05T11:26:16.277Z</time></trkpt><trkpt lat="45.481972" lon="14.2433218"><ele>448.0</ele><time>2026-05-05T11:26:17.278Z</time></trkpt><trkpt lat="45.4819189" lon="14.2431454"><ele>448.0</ele><time>2026-05-05T11:26:18.276Z</time></trkpt><trkpt lat="45.4818488" lon="14.2429768"><ele>448.0</ele><time>2026-05-05T11:26:19.277Z</time></trkpt><trkpt lat="45.4817666" lon="14.2428159"><ele>448.0</ele><time>2026-05-05T11:26:20.276Z</time></trkpt><trkpt lat="45.4816692" lon="14.2426642"><ele>451.0</ele><time>2026-05-05T11:26:21.277Z</time></trkpt><trkpt lat="45.4815604" lon="14.2425208"><ele>454.0</ele><time>2026-05-05T11:26:22.276Z</time></trkpt><trkpt lat="45.4814445" lon="14.2423815"><ele>457.0</ele><time>2026-05-05T11:26:23.277Z</time></trkpt><trkpt lat="45.4813248" lon="14.2422492"><ele>457.33333333333337</ele><time>2026-05-05T11:26:24.278Z</time></trkpt><trkpt lat="45.4812051" lon="14.2421168"><ele>457.66666666666663</ele><time>2026-05-05T11:26:25.277Z</time></trkpt><trkpt lat="45.4810858" lon="14.2419878"><ele>458.0</ele><time>2026-05-05T11:26:26.277Z</time></trkpt><trkpt lat="45.4809648" lon="14.2418609"><ele>458.0</ele><time>2026-05-05T11:26:27.277Z</time></trkpt><trkpt lat="45.4808457" lon="14.2417316"><ele>458.0</ele><time>2026-05-05T11:26:28.277Z</time></trkpt><trkpt lat="45.4807276" lon="14.2416033"><ele>458.0</ele><time>2026-05-05T11:26:29.277Z</time></trkpt><trkpt lat="45.4806097" lon="14.2414746"><ele>458.0</ele><time>2026-05-05T11:26:30.277Z</time></trkpt><trkpt lat="45.4804963" lon="14.2413491"><ele>460.25</ele><time>2026-05-05T11:26:31.277Z</time></trkpt><trkpt lat="45.4804005" lon="14.2412283"><ele>462.5</ele><time>2026-05-05T11:26:32.277Z</time></trkpt><trkpt lat="45.4803195" lon="14.2410982"><ele>464.75</ele><time>2026-05-05T11:26:33.277Z</time></trkpt><trkpt lat="45.4802548" lon="14.2409582"><ele>467.0</ele><time>2026-05-05T11:26:34.276Z</time></trkpt><trkpt lat="45.4802056" lon="14.2408048"><ele>467.0</ele><time>2026-05-05T11:26:35.277Z</time></trkpt><trkpt lat="45.4801783" lon="14.2406405"><ele>467.0</ele><time>2026-05-05T11:26:36.277Z</time></trkpt><trkpt lat="45.4801728" lon="14.2404799"><ele>467.0</ele><time>2026-05-05T11:26:37.278Z</time></trkpt><trkpt lat="45.4801901" lon="14.2403141"><ele>467.0</ele><time>2026-05-05T11:26:38.278Z</time></trkpt><trkpt lat="45.4802282" lon="14.2401546"><ele>469.75</ele><time>2026-05-05T11:26:39.277Z</time></trkpt><trkpt lat="45.4802848" lon="14.2400118"><ele>472.5</ele><time>2026-05-05T11:26:40.277Z</time></trkpt><trkpt lat="45.4803545" lon="14.2398823"><ele>475.25</ele><time>2026-05-05T11:26:41.276Z</time></trkpt><trkpt lat="45.4804425" lon="14.2397701"><ele>478.0</ele><time>2026-05-05T11:26:42.276Z</time></trkpt><trkpt lat="45.480545" lon="14.2396844"><ele>479.0</ele><time>2026-05-05T11:26:43.277Z</time></trkpt><trkpt lat="45.4806572" lon="14.2396252"><ele>480.0</ele><time>2026-05-05T11:26:44.277Z</time></trkpt><trkpt lat="45.4807798" lon="14.2395931"><ele>481.0</ele><time>2026-05-05T11:26:45.277Z</time></trkpt><trkpt lat="45.4809081" lon="14.2395796"><ele>482.0</ele><time>2026-05-05T11:26:46.277Z</time></trkpt><trkpt lat="45.4810453" lon="14.239572"><ele>482.0</ele><time>2026-05-05T11:26:47.278Z</time></trkpt><trkpt lat="45.4811889" lon="14.2395663"><ele>482.0</ele><time>2026-05-05T11:26:48.277Z</time></trkpt><trkpt lat="45.4813378" lon="14.2395514"><ele>482.0</ele><time>2026-05-05T11:26:49.278Z</time></trkpt><trkpt lat="45.4814821" lon="14.2395282"><ele>482.0</ele><time>2026-05-05T11:26:50.277Z</time></trkpt><trkpt lat="45.4816298" lon="14.2394931"><ele>482.0</ele><time>2026-05-05T11:26:51.276Z</time></trkpt><trkpt lat="45.4817797" lon="14.2394394"><ele>482.0</ele><time>2026-05-05T11:26:52.276Z</time></trkpt><trkpt lat="45.4819324" lon="14.2393724"><ele>482.0</ele><time>2026-05-05T11:26:53.276Z</time></trkpt><trkpt lat="45.4820854" lon="14.2393011"><ele>483.0</ele><time>2026-05-05T11:26:54.277Z</time></trkpt><trkpt lat="45.4822359" lon="14.2392254"><ele>484.0</ele><time>2026-05-05T11:26:55.276Z</time></trkpt><trkpt lat="45.4823863" lon="14.2391486"><ele>485.0</ele><time>2026-05-05T11:26:56.277Z</time></trkpt><trkpt lat="45.4825342" lon="14.2390733"><ele>485.0</ele><time>2026-05-05T11:26:57.277Z</time></trkpt><trkpt lat="45.482681" lon="14.2389926"><ele>485.0</ele><time>2026-05-05T11:26:58.277Z</time></trkpt><trkpt lat="45.48282" lon="14.2388987"><ele>485.0</ele><time>2026-05-05T11:26:59.277Z</time></trkpt><trkpt lat="45.4829548" lon="14.2387883"><ele>489.66666666666663</ele><time>2026-05-05T11:27:00.277Z</time></trkpt><trkpt lat="45.4830848" lon="14.2386651"><ele>494.33333333333337</ele><time>2026-05-05T11:27:01.278Z</time></trkpt><trkpt lat="45.4832089" lon="14.238534"><ele>499.0</ele><time>2026-05-05T11:27:02.278Z</time></trkpt><trkpt lat="45.4833285" lon="14.2384062"><ele>499.0</ele><time>2026-05-05T11:27:03.278Z</time></trkpt><trkpt lat="45.4834433" lon="14.2382848"><ele>499.0</ele><time>2026-05-05T11:27:04.277Z</time></trkpt><trkpt lat="45.483553" lon="14.2381786"><ele>499.0</ele><time>2026-05-05T11:27:05.277Z</time></trkpt><trkpt lat="45.4836677" lon="14.2380822"><ele>499.0</ele><time>2026-05-05T11:27:06.277Z</time></trkpt><trkpt lat="45.4837913" lon="14.238006"><ele>501.0</ele><time>2026-05-05T11:27:07.277Z</time></trkpt><trkpt lat="45.4839216" lon="14.2379588"><ele>503.0</ele><time>2026-05-05T11:27:08.278Z</time></trkpt><trkpt lat="45.4840552" lon="14.2379386"><ele>505.0</ele><time>2026-05-05T11:27:09.277Z</time></trkpt><trkpt lat="45.4841943" lon="14.2379428"><ele>507.0</ele><time>2026-05-05T11:27:10.278Z</time></trkpt><trkpt lat="45.4843369" lon="14.2379633"><ele>507.0</ele><time>2026-05-05T11:27:11.277Z</time></trkpt><trkpt lat="45.4844768" lon="14.2379877"><ele>507.0</ele><time>2026-05-05T11:27:12.277Z</time></trkpt><trkpt lat="45.4846191" lon="14.2380125"><ele>507.0</ele><time>2026-05-05T11:27:13.276Z</time></trkpt><trkpt lat="45.4847595" lon="14.2380326"><ele>507.0</ele><time>2026-05-05T11:27:14.276Z</time></trkpt><trkpt lat="45.4848925" lon="14.2380449"><ele>508.75</ele><time>2026-05-05T11:27:15.278Z</time></trkpt><trkpt lat="45.4850193" lon="14.2380399"><ele>510.5</ele><time>2026-05-05T11:27:16.277Z</time></trkpt><trkpt lat="45.4851329" lon="14.2380217"><ele>512.25</ele><time>2026-05-05T11:27:17.276Z</time></trkpt><trkpt lat="45.4852443" lon="14.2379788"><ele>514.0</ele><time>2026-05-05T11:27:18.277Z</time></trkpt><trkpt lat="45.485356" lon="14.2379149"><ele>515.0</ele><time>2026-05-05T11:27:19.276Z</time></trkpt><trkpt lat="45.4854639" lon="14.2378296"><ele>516.0</ele><time>2026-05-05T11:27:20.277Z</time></trkpt><trkpt lat="45.4855704" lon="14.237737"><ele>517.0</ele><time>2026-05-05T11:27:21.278Z</time></trkpt><trkpt lat="45.4856727" lon="14.237635"><ele>518.0</ele><time>2026-05-05T11:27:22.276Z</time></trkpt><trkpt lat="45.4857685" lon="14.2375288"><ele>518.0</ele><time>2026-05-05T11:27:23.277Z</time></trkpt><trkpt lat="45.4858523" lon="14.2374147"><ele>518.0</ele><time>2026-05-05T11:27:24.277Z</time></trkpt><trkpt lat="45.4859208" lon="14.237297"><ele>518.0</ele><time>2026-05-05T11:27:25.277Z</time></trkpt><trkpt lat="45.4859706" lon="14.2371669"><ele>518.0</ele><time>2026-05-05T11:27:26.277Z</time></trkpt><trkpt lat="45.4860074" lon="14.2370196"><ele>518.0</ele><time>2026-05-05T11:27:27.276Z</time></trkpt><trkpt lat="45.4860182" lon="14.236855"><ele>518.5</ele><time>2026-05-05T11:27:28.277Z</time></trkpt><trkpt lat="45.4860142" lon="14.2366764"><ele>519.0</ele><time>2026-05-05T11:27:29.277Z</time></trkpt><trkpt lat="45.4859967" lon="14.2364801"><ele>519.5</ele><time>2026-05-05T11:27:30.277Z</time></trkpt><trkpt lat="45.4859737" lon="14.236278"><ele>520.0</ele><time>2026-05-05T11:27:31.277Z</time></trkpt><trkpt lat="45.485949" lon="14.2360779"><ele>520.0</ele><time>2026-05-05T11:27:32.277Z</time></trkpt><trkpt lat="45.4859213" lon="14.2358878"><ele>520.0</ele><time>2026-05-05T11:27:33.277Z</time></trkpt><trkpt lat="45.4858904" lon="14.2357103"><ele>520.0</ele><time>2026-05-05T11:27:34.278Z</time></trkpt><trkpt lat="45.4858472" lon="14.2355457"><ele>520.0</ele><time>2026-05-05T11:27:35.278Z</time></trkpt><trkpt lat="45.4857871" lon="14.2353954"><ele>520.5</ele><time>2026-05-05T11:27:36.278Z</time></trkpt><trkpt lat="45.4857094" lon="14.235261"><ele>521.0</ele><time>2026-05-05T11:27:37.277Z</time></trkpt><trkpt lat="45.4856165" lon="14.2351455"><ele>521.5</ele><time>2026-05-05T11:27:38.277Z</time></trkpt><trkpt lat="45.4855035" lon="14.2350497"><ele>522.0</ele><time>2026-05-05T11:27:39.278Z</time></trkpt><trkpt lat="45.4853786" lon="14.2349663"><ele>524.0</ele><time>2026-05-05T11:27:40.276Z</time></trkpt><trkpt lat="45.4852456" lon="14.2348865"><ele>526.0</ele><time>2026-05-05T11:27:41.277Z</time></trkpt><trkpt lat="45.4851043" lon="14.2348072"><ele>528.0</ele><time>2026-05-05T11:27:42.278Z</time></trkpt><trkpt lat="45.4849568" lon="14.234727"><ele>529.0</ele><time>2026-05-05T11:27:43.277Z</time></trkpt><trkpt lat="45.4848091" lon="14.2346439"><ele>530.0</ele><time>2026-05-05T11:27:44.277Z</time></trkpt><trkpt lat="45.4846657" lon="14.2345614"><ele>531.0</ele><time>2026-05-05T11:27:45.277Z</time></trkpt><trkpt lat="45.4845273" lon="14.2344818"><ele>532.25</ele><time>2026-05-05T11:27:46.277Z</time></trkpt><trkpt lat="45.4843942" lon="14.2344039"><ele>533.5</ele><time>2026-05-05T11:27:47.277Z</time></trkpt><trkpt lat="45.484269" lon="14.2343197"><ele>534.75</ele><time>2026-05-05T11:27:48.276Z</time></trkpt><trkpt lat="45.4841626" lon="14.2342214"><ele>536.0</ele><time>2026-05-05T11:27:49.277Z</time></trkpt><trkpt lat="45.4840679" lon="14.2341046"><ele>536.0</ele><time>2026-05-05T11:27:50.277Z</time></trkpt><trkpt lat="45.483987" lon="14.2339782"><ele>536.0</ele><time>2026-05-05T11:27:51.276Z</time></trkpt><trkpt lat="45.4839204" lon="14.2338375"><ele>536.0</ele><time>2026-05-05T11:27:52.277Z</time></trkpt><trkpt lat="45.4838723" lon="14.233681"><ele>536.0</ele><time>2026-05-05T11:27:53.277Z</time></trkpt><trkpt lat="45.4838329" lon="14.2335209"><ele>537.25</ele><time>2026-05-05T11:27:54.276Z</time></trkpt><trkpt lat="45.4838069" lon="14.2333551"><ele>538.5</ele><time>2026-05-05T11:27:55.276Z</time></trkpt><trkpt lat="45.4838028" lon="14.2331843"><ele>539.75</ele><time>2026-05-05T11:27:56.277Z</time></trkpt><trkpt lat="45.4838122" lon="14.2330174"><ele>541.0</ele><time>2026-05-05T11:27:57.277Z</time></trkpt><trkpt lat="45.4838395" lon="14.2328492"><ele>542.5</ele><time>2026-05-05T11:27:58.277Z</time></trkpt><trkpt lat="45.4838824" lon="14.232685"><ele>544.0</ele><time>2026-05-05T11:27:59.276Z</time></trkpt><trkpt lat="45.4839439" lon="14.2325332"><ele>545.5</ele><time>2026-05-05T11:28:00.277Z</time></trkpt><trkpt lat="45.4840157" lon="14.2323963"><ele>547.0</ele><time>2026-05-05T11:28:01.276Z</time></trkpt><trkpt lat="45.4840955" lon="14.2322749"><ele>548.25</ele><time>2026-05-05T11:28:02.276Z</time></trkpt><trkpt lat="45.4841944" lon="14.2321696"><ele>549.5</ele><time>2026-05-05T11:28:03.277Z</time></trkpt><trkpt lat="45.4843069" lon="14.232078"><ele>550.75</ele><time>2026-05-05T11:28:04.276Z</time></trkpt><trkpt lat="45.4844309" lon="14.2319976"><ele>552.0</ele><time>2026-05-05T11:28:05.278Z</time></trkpt><trkpt lat="45.4845631" lon="14.2319283"><ele>551.75</ele><time>2026-05-05T11:28:06.278Z</time></trkpt><trkpt lat="45.4847015" lon="14.231863"><ele>551.5</ele><time>2026-05-05T11:28:07.278Z</time></trkpt><trkpt lat="45.4848439" lon="14.2318013"><ele>551.25</ele><time>2026-05-05T11:28:08.277Z</time></trkpt><trkpt lat="45.4849899" lon="14.2317367"><ele>551.0</ele><time>2026-05-05T11:28:09.277Z</time></trkpt><trkpt lat="45.4851409" lon="14.2316717"><ele>551.0</ele><time>2026-05-05T11:28:10.276Z</time></trkpt><trkpt lat="45.4852958" lon="14.2316065"><ele>551.0</ele><time>2026-05-05T11:28:11.277Z</time></trkpt><trkpt lat="45.4854562" lon="14.2315425"><ele>551.0</ele><time>2026-05-05T11:28:12.277Z</time></trkpt><trkpt lat="45.4856124" lon="14.2314733"><ele>555.3333333333333</ele><time>2026-05-05T11:28:13.277Z</time></trkpt><trkpt lat="45.4857684" lon="14.2314011"><ele>559.6666666666666</ele><time>2026-05-05T11:28:14.276Z</time></trkpt><trkpt lat="45.4859248" lon="14.2313325"><ele>564.0</ele><time>2026-05-05T11:28:15.276Z</time></trkpt><trkpt lat="45.4860754" lon="14.2312642"><ele>564.0</ele><time>2026-05-05T11:28:16.277Z</time></trkpt><trkpt lat="45.4862181" lon="14.2311982"><ele>564.0</ele><time>2026-05-05T11:28:17.276Z</time></trkpt><trkpt lat="45.486357" lon="14.2311274"><ele>564.0</ele><time>2026-05-05T11:28:18.276Z</time></trkpt><trkpt lat="45.4864923" lon="14.2310479"><ele>564.0</ele><time>2026-05-05T11:28:19.277Z</time></trkpt><trkpt lat="45.4866249" lon="14.2309536"><ele>563.75</ele><time>2026-05-05T11:28:20.276Z</time></trkpt><trkpt lat="45.486754" lon="14.230838"><ele>563.5</ele><time>2026-05-05T11:28:21.276Z</time></trkpt><trkpt lat="45.4868714" lon="14.2307126"><ele>563.25</ele><time>2026-05-05T11:28:22.277Z</time></trkpt><trkpt lat="45.4869831" lon="14.2305692"><ele>563.0</ele><time>2026-05-05T11:28:23.277Z</time></trkpt><trkpt lat="45.4870962" lon="14.2304119"><ele>566.0</ele><time>2026-05-05T11:28:24.277Z</time></trkpt><trkpt lat="45.4872112" lon="14.2302458"><ele>569.0</ele><time>2026-05-05T11:28:25.277Z</time></trkpt><trkpt lat="45.4873276" lon="14.2300763"><ele>572.0</ele><time>2026-05-05T11:28:26.276Z</time></trkpt><trkpt lat="45.4874446" lon="14.2299082"><ele>575.3333333333333</ele><time>2026-05-05T11:28:27.276Z</time></trkpt><trkpt lat="45.487561" lon="14.229739"><ele>578.6666666666666</ele><time>2026-05-05T11:28:28.277Z</time></trkpt><trkpt lat="45.4876765" lon="14.2295707"><ele>582.0</ele><time>2026-05-05T11:28:29.276Z</time></trkpt><trkpt lat="45.4877858" lon="14.2294047"><ele>582.0</ele><time>2026-05-05T11:28:30.277Z</time></trkpt><trkpt lat="45.4878877" lon="14.2292399"><ele>582.0</ele><time>2026-05-05T11:28:31.277Z</time></trkpt><trkpt lat="45.4879856" lon="14.2290723"><ele>582.0</ele><time>2026-05-05T11:28:32.277Z</time></trkpt><trkpt lat="45.4880779" lon="14.2288953"><ele>582.6666666666666</ele><time>2026-05-05T11:28:33.277Z</time></trkpt><trkpt lat="45.4881642" lon="14.2287045"><ele>583.3333333333333</ele><time>2026-05-05T11:28:34.276Z</time></trkpt><trkpt lat="45.4882401" lon="14.2285033"><ele>584.0</ele><time>2026-05-05T11:28:35.278Z</time></trkpt><trkpt lat="45.4883126" lon="14.2282921"><ele>584.6666666666666</ele><time>2026-05-05T11:28:36.277Z</time></trkpt><trkpt lat="45.4883832" lon="14.2280719"><ele>585.3333333333334</ele><time>2026-05-05T11:28:37.278Z</time></trkpt><trkpt lat="45.4884537" lon="14.227849"><ele>586.0</ele><time>2026-05-05T11:28:38.277Z</time></trkpt><trkpt lat="45.4885209" lon="14.2276173"><ele>586.0</ele><time>2026-05-05T11:28:39.277Z</time></trkpt><trkpt lat="45.4885881" lon="14.2273875"><ele>586.0</ele><time>2026-05-05T11:28:40.277Z</time></trkpt><trkpt lat="45.4886554" lon="14.2271609"><ele>586.0</ele><time>2026-05-05T11:28:41.277Z</time></trkpt><trkpt lat="45.4887222" lon="14.2269352"><ele>589.0</ele><time>2026-05-05T11:28:42.277Z</time></trkpt><trkpt lat="45.4887887" lon="14.2267111"><ele>592.0</ele><time>2026-05-05T11:28:43.277Z</time></trkpt><trkpt lat="45.4888548" lon="14.2264932"><ele>595.0</ele><time>2026-05-05T11:28:44.276Z</time></trkpt><trkpt lat="45.4889205" lon="14.2262807"><ele>595.0</ele><time>2026-05-05T11:28:45.277Z</time></trkpt><trkpt lat="45.4889825" lon="14.2260762"><ele>595.0</ele><time>2026-05-05T11:28:46.276Z</time></trkpt><trkpt lat="45.4890431" lon="14.2258735"><ele>595.0</ele><time>2026-05-05T11:28:47.277Z</time></trkpt><trkpt lat="45.4891038" lon="14.225673"><ele>594.3333333333334</ele><time>2026-05-05T11:28:48.276Z</time></trkpt><trkpt lat="45.4891681" lon="14.2254787"><ele>593.6666666666666</ele><time>2026-05-05T11:28:49.276Z</time></trkpt><trkpt lat="45.4892396" lon="14.2252872"><ele>593.0</ele><time>2026-05-05T11:28:50.277Z</time></trkpt><trkpt lat="45.489314" lon="14.2251008"><ele>593.0</ele><time>2026-05-05T11:28:51.277Z</time></trkpt><trkpt lat="45.4894002" lon="14.2249188"><ele>593.0</ele><time>2026-05-05T11:28:52.276Z</time></trkpt><trkpt lat="45.4894932" lon="14.2247367"><ele>593.0</ele><time>2026-05-05T11:28:53.277Z</time></trkpt><trkpt lat="45.4895946" lon="14.2245547"><ele>594.3333333333333</ele><time>2026-05-05T11:28:54.276Z</time></trkpt><trkpt lat="45.4897034" lon="14.2243757"><ele>595.6666666666666</ele><time>2026-05-05T11:28:55.277Z</time></trkpt><trkpt lat="45.4898147" lon="14.224196"><ele>597.0</ele><time>2026-05-05T11:28:56.277Z</time></trkpt><trkpt lat="45.4899237" lon="14.2240134"><ele>597.3333333333334</ele><time>2026-05-05T11:28:57.277Z</time></trkpt><trkpt lat="45.4900343" lon="14.2238311"><ele>597.6666666666667</ele><time>2026-05-05T11:28:58.276Z</time></trkpt><trkpt lat="45.4901462" lon="14.2236472"><ele>598.0</ele><time>2026-05-05T11:28:59.276Z</time></trkpt><trkpt lat="45.4902564" lon="14.2234622"><ele>598.0</ele><time>2026-05-05T11:29:00.277Z</time></trkpt><trkpt lat="45.4903676" lon="14.2232834"><ele>598.0</ele><time>2026-05-05T11:29:01.276Z</time></trkpt><trkpt lat="45.4904768" lon="14.2231034"><ele>598.0</ele><time>2026-05-05T11:29:02.276Z</time></trkpt><trkpt lat="45.4905855" lon="14.2229275"><ele>600.3333333333334</ele><time>2026-05-05T11:29:03.277Z</time></trkpt><trkpt lat="45.4906906" lon="14.2227502"><ele>602.6666666666666</ele><time>2026-05-05T11:29:04.278Z</time></trkpt><trkpt lat="45.4907989" lon="14.2225777"><ele>605.0</ele><time>2026-05-05T11:29:05.277Z</time></trkpt><trkpt lat="45.4909014" lon="14.2224061"><ele>608.0</ele><time>2026-05-05T11:29:06.276Z</time></trkpt><trkpt lat="45.4910045" lon="14.2222394"><ele>611.0</ele><time>2026-05-05T11:29:07.277Z</time></trkpt><trkpt lat="45.4911014" lon="14.2220778"><ele>614.0</ele><time>2026-05-05T11:29:08.276Z</time></trkpt><trkpt lat="45.4911983" lon="14.2219154"><ele>615.0</ele><time>2026-05-05T11:29:09.277Z</time></trkpt><trkpt lat="45.491286" lon="14.2217395"><ele>616.0</ele><time>2026-05-05T11:29:10.277Z</time></trkpt><trkpt lat="45.4913666" lon="14.2215528"><ele>617.0</ele><time>2026-05-05T11:29:11.276Z</time></trkpt><trkpt lat="45.4914325" lon="14.2213525"><ele>617.0</ele><time>2026-05-05T11:29:12.278Z</time></trkpt><trkpt lat="45.4914892" lon="14.2211463"><ele>617.0</ele><time>2026-05-05T11:29:13.277Z</time></trkpt><trkpt lat="45.4915358" lon="14.2209331"><ele>617.0</ele><time>2026-05-05T11:29:14.277Z</time></trkpt><trkpt lat="45.4915738" lon="14.2207167"><ele>619.0</ele><time>2026-05-05T11:29:15.277Z</time></trkpt><trkpt lat="45.4916074" lon="14.2205012"><ele>621.0</ele><time>2026-05-05T11:29:16.276Z</time></trkpt><trkpt lat="45.4916414" lon="14.2202854"><ele>623.0</ele><time>2026-05-05T11:29:17.277Z</time></trkpt><trkpt lat="45.491675" lon="14.2200669"><ele>623.0</ele><time>2026-05-05T11:29:18.277Z</time></trkpt><trkpt lat="45.491708" lon="14.2198568"><ele>623.0</ele><time>2026-05-05T11:29:19.277Z</time></trkpt><trkpt lat="45.4917408" lon="14.2196476"><ele>623.0</ele><time>2026-05-05T11:29:20.276Z</time></trkpt><trkpt lat="45.49177" lon="14.2194391"><ele>622.25</ele><time>2026-05-05T11:29:21.278Z</time></trkpt><trkpt lat="45.4918042" lon="14.2192331"><ele>621.5</ele><time>2026-05-05T11:29:22.277Z</time></trkpt><trkpt lat="45.4918394" lon="14.2190263"><ele>620.75</ele><time>2026-05-05T11:29:23.277Z</time></trkpt><trkpt lat="45.4918727" lon="14.2188204"><ele>620.0</ele><time>2026-05-05T11:29:24.278Z</time></trkpt><trkpt lat="45.4919128" lon="14.2186168"><ele>619.0</ele><time>2026-05-05T11:29:25.278Z</time></trkpt><trkpt lat="45.4919556" lon="14.2184146"><ele>618.0</ele><time>2026-05-05T11:29:26.277Z</time></trkpt><trkpt lat="45.4919981" lon="14.2182145"><ele>617.0</ele><time>2026-05-05T11:29:27.277Z</time></trkpt><trkpt lat="45.4920365" lon="14.2180193"><ele>616.0</ele><time>2026-05-05T11:29:28.276Z</time></trkpt><trkpt lat="45.492073" lon="14.2178284"><ele>616.25</ele><time>2026-05-05T11:29:29.276Z</time></trkpt><trkpt lat="45.4921078" lon="14.2176434"><ele>616.5</ele><time>2026-05-05T11:29:30.277Z</time></trkpt><trkpt lat="45.4921362" lon="14.2174658"><ele>616.75</ele><time>2026-05-05T11:29:31.278Z</time></trkpt><trkpt lat="45.4921613" lon="14.2172918"><ele>617.0</ele><time>2026-05-05T11:29:32.277Z</time></trkpt><trkpt lat="45.4921766" lon="14.2171266"><ele>616.25</ele><time>2026-05-05T11:29:33.277Z</time></trkpt><trkpt lat="45.492179" lon="14.216961"><ele>615.5</ele><time>2026-05-05T11:29:34.277Z</time></trkpt><trkpt lat="45.4921651" lon="14.2168007"><ele>614.75</ele><time>2026-05-05T11:29:35.277Z</time></trkpt><trkpt lat="45.4921407" lon="14.2166384"><ele>614.0</ele><time>2026-05-05T11:29:36.276Z</time></trkpt><trkpt lat="45.4921135" lon="14.2164727"><ele>613.25</ele><time>2026-05-05T11:29:37.277Z</time></trkpt><trkpt lat="45.4920878" lon="14.2163091"><ele>612.5</ele><time>2026-05-05T11:29:38.276Z</time></trkpt><trkpt lat="45.4920641" lon="14.2161407"><ele>611.75</ele><time>2026-05-05T11:29:39.277Z</time></trkpt><trkpt lat="45.4920424" lon="14.2159691"><ele>611.0</ele><time>2026-05-05T11:29:40.277Z</time></trkpt><trkpt lat="45.4920231" lon="14.2157985"><ele>610.6</ele><time>2026-05-05T11:29:41.276Z</time></trkpt><trkpt lat="45.4920021" lon="14.2156329"><ele>610.2</ele><time>2026-05-05T11:29:42.277Z</time></trkpt><trkpt lat="45.491982" lon="14.2154693"><ele>609.8</ele><time>2026-05-05T11:29:43.276Z</time></trkpt><trkpt lat="45.4919558" lon="14.2153097"><ele>609.4</ele><time>2026-05-05T11:29:44.277Z</time></trkpt><trkpt lat="45.4919354" lon="14.215176"><ele>609.0</ele><time>2026-05-05T11:29:45.276Z</time></trkpt><trkpt lat="45.4919161" lon="14.2150462"><ele>609.0</ele><time>2026-05-05T11:29:46.276Z</time></trkpt><trkpt lat="45.4918977" lon="14.2149093"><ele>609.0</ele><time>2026-05-05T11:29:47.276Z</time></trkpt><trkpt lat="45.4918776" lon="14.2147657"><ele>609.0</ele><time>2026-05-05T11:29:48.277Z</time></trkpt><trkpt lat="45.4918616" lon="14.2146174"><ele>609.0</ele><time>2026-05-05T11:29:49.277Z</time></trkpt><trkpt lat="45.4918536" lon="14.2144707"><ele>609.0</ele><time>2026-05-05T11:29:50.276Z</time></trkpt><trkpt lat="45.4918545" lon="14.2143309"><ele>608.6</ele><time>2026-05-05T11:29:51.276Z</time></trkpt><trkpt lat="45.4918643" lon="14.2141936"><ele>608.2</ele><time>2026-05-05T11:29:52.276Z</time></trkpt><trkpt lat="45.4918808" lon="14.2140572"><ele>607.8000000000001</ele><time>2026-05-05T11:29:53.278Z</time></trkpt><trkpt lat="45.4918973" lon="14.213924"><ele>607.4</ele><time>2026-05-05T11:29:54.277Z</time></trkpt><trkpt lat="45.4919166" lon="14.2137913"><ele>607.0</ele><time>2026-05-05T11:29:55.277Z</time></trkpt><trkpt lat="45.4919376" lon="14.2136564"><ele>607.0</ele><time>2026-05-05T11:29:56.277Z</time></trkpt><trkpt lat="45.4919482" lon="14.2135233"><ele>607.0</ele><time>2026-05-05T11:29:57.276Z</time></trkpt><trkpt lat="45.4919576" lon="14.2133899"><ele>607.0</ele><time>2026-05-05T11:29:58.278Z</time></trkpt><trkpt lat="45.4919697" lon="14.2132683"><ele>607.0</ele><time>2026-05-05T11:29:59.277Z</time></trkpt><trkpt lat="45.4919823" lon="14.2131631"><ele>607.0</ele><time>2026-05-05T11:30:00.276Z</time></trkpt><trkpt lat="45.4919964" lon="14.2130635"><ele>607.0</ele><time>2026-05-05T11:30:01.277Z</time></trkpt><trkpt lat="45.4920122" lon="14.2129653"><ele>607.2</ele><time>2026-05-05T11:30:02.276Z</time></trkpt><trkpt lat="45.4920279" lon="14.2128728"><ele>607.4000000000001</ele><time>2026-05-05T11:30:03.277Z</time></trkpt><trkpt lat="45.4920708" lon="14.2126712"><ele>607.5999999999999</ele><time>2026-05-05T11:30:05.276Z</time></trkpt><trkpt lat="45.4921016" lon="14.2125168"><ele>607.8</ele><time>2026-05-05T11:30:06.276Z</time></trkpt><trkpt lat="45.4921245" lon="14.2123919"><ele>608.0</ele><time>2026-05-05T11:30:07.276Z</time></trkpt><trkpt lat="45.4921422" lon="14.2122626"><ele>612.0</ele><time>2026-05-05T11:30:08.276Z</time></trkpt><trkpt lat="45.4921587" lon="14.2121347"><ele>616.0</ele><time>2026-05-05T11:30:09.277Z</time></trkpt><trkpt lat="45.4921812" lon="14.2120031"><ele>620.0</ele><time>2026-05-05T11:30:10.275Z</time></trkpt><trkpt lat="45.4922104" lon="14.2118698"><ele>624.0</ele><time>2026-05-05T11:30:11.276Z</time></trkpt><trkpt lat="45.4922491" lon="14.2117401"><ele>628.0</ele><time>2026-05-05T11:30:12.276Z</time></trkpt><trkpt lat="45.4922972" lon="14.2116107"><ele>626.0</ele><time>2026-05-05T11:30:13.276Z</time></trkpt><trkpt lat="45.4923484" lon="14.2114874"><ele>624.0</ele><time>2026-05-05T11:30:14.275Z</time></trkpt><trkpt lat="45.4924093" lon="14.2113713"><ele>622.0</ele><time>2026-05-05T11:30:15.275Z</time></trkpt><trkpt lat="45.4924854" lon="14.2112643"><ele>620.0</ele><time>2026-05-05T11:30:16.277Z</time></trkpt><trkpt lat="45.4925653" lon="14.2111671"><ele>618.0</ele><time>2026-05-05T11:30:17.276Z</time></trkpt><trkpt lat="45.4926493" lon="14.2110808"><ele>618.0</ele><time>2026-05-05T11:30:18.276Z</time></trkpt><trkpt lat="45.4927393" lon="14.210999"><ele>618.0</ele><time>2026-05-05T11:30:19.275Z</time></trkpt><trkpt lat="45.4928361" lon="14.2109227"><ele>618.0</ele><time>2026-05-05T11:30:20.276Z</time></trkpt><trkpt lat="45.4929382" lon="14.2108504"><ele>618.0</ele><time>2026-05-05T11:30:21.276Z</time></trkpt><trkpt lat="45.4930414" lon="14.2107781"><ele>618.0</ele><time>2026-05-05T11:30:22.275Z</time></trkpt><trkpt lat="45.4931458" lon="14.2107034"><ele>617.4</ele><time>2026-05-05T11:30:23.276Z</time></trkpt><trkpt lat="45.4932475" lon="14.2106263"><ele>616.8</ele><time>2026-05-05T11:30:24.276Z</time></trkpt><trkpt lat="45.4933471" lon="14.2105495"><ele>616.2</ele><time>2026-05-05T11:30:25.276Z</time></trkpt><trkpt lat="45.4934387" lon="14.2104714"><ele>615.6</ele><time>2026-05-05T11:30:26.277Z</time></trkpt><trkpt lat="45.4935167" lon="14.210389"><ele>615.0</ele><time>2026-05-05T11:30:27.277Z</time></trkpt><trkpt lat="45.4935849" lon="14.2102883"><ele>615.0</ele><time>2026-05-05T11:30:28.277Z</time></trkpt><trkpt lat="45.4936356" lon="14.2101705"><ele>615.0</ele><time>2026-05-05T11:30:29.276Z</time></trkpt><trkpt lat="45.4936706" lon="14.2100377"><ele>615.0</ele><time>2026-05-05T11:30:30.276Z</time></trkpt><trkpt lat="45.4936899" lon="14.2098917"><ele>615.0</ele><time>2026-05-05T11:30:31.275Z</time></trkpt><trkpt lat="45.4936979" lon="14.2097326"><ele>615.0</ele><time>2026-05-05T11:30:32.275Z</time></trkpt><trkpt lat="45.4937013" lon="14.2095578"><ele>616.5</ele><time>2026-05-05T11:30:33.276Z</time></trkpt><trkpt lat="45.4937051" lon="14.2093848"><ele>618.0</ele><time>2026-05-05T11:30:34.276Z</time></trkpt><trkpt lat="45.4937101" lon="14.2092023"><ele>619.5</ele><time>2026-05-05T11:30:35.277Z</time></trkpt><trkpt lat="45.4937192" lon="14.2090224"><ele>621.0</ele><time>2026-05-05T11:30:36.276Z</time></trkpt><trkpt lat="45.4937279" lon="14.2088374"><ele>622.75</ele><time>2026-05-05T11:30:37.275Z</time></trkpt><trkpt lat="45.4937267" lon="14.208664"><ele>624.5</ele><time>2026-05-05T11:30:38.275Z</time></trkpt><trkpt lat="45.4937226" lon="14.2084863"><ele>626.25</ele><time>2026-05-05T11:30:39.276Z</time></trkpt><trkpt lat="45.4937017" lon="14.2083167"><ele>628.0</ele><time>2026-05-05T11:30:40.277Z</time></trkpt><trkpt lat="45.4936688" lon="14.2081554"><ele>630.0</ele><time>2026-05-05T11:30:41.276Z</time></trkpt><trkpt lat="45.4936193" lon="14.2080019"><ele>632.0</ele><time>2026-05-05T11:30:42.276Z</time></trkpt><trkpt lat="45.4935592" lon="14.2078582"><ele>634.0</ele><time>2026-05-05T11:30:43.276Z</time></trkpt><trkpt lat="45.4934857" lon="14.2077279"><ele>636.0</ele><time>2026-05-05T11:30:44.276Z</time></trkpt><trkpt lat="45.4934025" lon="14.2076149"><ele>636.0</ele><time>2026-05-05T11:30:45.275Z</time></trkpt><trkpt lat="45.4932988" lon="14.2075118"><ele>636.0</ele><time>2026-05-05T11:30:46.276Z</time></trkpt><trkpt lat="45.4931808" lon="14.2074151"><ele>636.0</ele><time>2026-05-05T11:30:47.275Z</time></trkpt><trkpt lat="45.4930544" lon="14.2073274"><ele>636.0</ele><time>2026-05-05T11:30:48.276Z</time></trkpt><trkpt lat="45.492921" lon="14.2072429"><ele>639.6666666666666</ele><time>2026-05-05T11:30:49.276Z</time></trkpt><trkpt lat="45.4927775" lon="14.2071572"><ele>643.3333333333333</ele><time>2026-05-05T11:30:50.276Z</time></trkpt><trkpt lat="45.492638" lon="14.2070702"><ele>647.0</ele><time>2026-05-05T11:30:51.275Z</time></trkpt><trkpt lat="45.4925" lon="14.2069841"><ele>647.0</ele><time>2026-05-05T11:30:52.277Z</time></trkpt><trkpt lat="45.4923589" lon="14.2068968"><ele>647.0</ele><time>2026-05-05T11:30:53.277Z</time></trkpt><trkpt lat="45.4922216" lon="14.2068105"><ele>647.0</ele><time>2026-05-05T11:30:54.276Z</time></trkpt><trkpt lat="45.4920818" lon="14.2067263"><ele>648.25</ele><time>2026-05-05T11:30:55.276Z</time></trkpt><trkpt lat="45.491944" lon="14.206645"><ele>649.5</ele><time>2026-05-05T11:30:56.275Z</time></trkpt><trkpt lat="45.4918076" lon="14.2065661"><ele>650.75</ele><time>2026-05-05T11:30:57.276Z</time></trkpt><trkpt lat="45.4916785" lon="14.2064875"><ele>652.0</ele><time>2026-05-05T11:30:58.276Z</time></trkpt><trkpt lat="45.4915568" lon="14.2064123"><ele>652.0</ele><time>2026-05-05T11:30:59.277Z</time></trkpt><trkpt lat="45.4914616" lon="14.2063393"><ele>652.0</ele><time>2026-05-05T11:31:00.277Z</time></trkpt><trkpt lat="45.4913715" lon="14.2062498"><ele>652.0</ele><time>2026-05-05T11:31:01.276Z</time></trkpt><trkpt lat="45.4913071" lon="14.2061275"><ele>652.0</ele><time>2026-05-05T11:31:02.276Z</time></trkpt><trkpt lat="45.4912497" lon="14.2059863"><ele>652.0</ele><time>2026-05-05T11:31:03.276Z</time></trkpt><trkpt lat="45.4912106" lon="14.2058342"><ele>651.0</ele><time>2026-05-05T11:31:04.276Z</time></trkpt><trkpt lat="45.4912041" lon="14.2056827"><ele>650.0</ele><time>2026-05-05T11:31:05.276Z</time></trkpt><trkpt lat="45.4912063" lon="14.2055194"><ele>649.0</ele><time>2026-05-05T11:31:06.276Z</time></trkpt><trkpt lat="45.4912311" lon="14.2053547"><ele>648.0</ele><time>2026-05-05T11:31:07.276Z</time></trkpt><trkpt lat="45.491271" lon="14.2051892"><ele>650.5</ele><time>2026-05-05T11:31:08.275Z</time></trkpt><trkpt lat="45.4913273" lon="14.2050224"><ele>653.0</ele><time>2026-05-05T11:31:09.276Z</time></trkpt><trkpt lat="45.4913854" lon="14.2048475"><ele>655.5</ele><time>2026-05-05T11:31:10.276Z</time></trkpt><trkpt lat="45.4914411" lon="14.2046742"><ele>658.0</ele><time>2026-05-05T11:31:11.276Z</time></trkpt><trkpt lat="45.4914989" lon="14.2044997"><ele>658.0</ele><time>2026-05-05T11:31:12.277Z</time></trkpt><trkpt lat="45.4915575" lon="14.2043212"><ele>658.0</ele><time>2026-05-05T11:31:13.275Z</time></trkpt><trkpt lat="45.4916189" lon="14.2041381"><ele>658.0</ele><time>2026-05-05T11:31:14.276Z</time></trkpt><trkpt lat="45.4916793" lon="14.2039539"><ele>658.0</ele><time>2026-05-05T11:31:15.276Z</time></trkpt><trkpt lat="45.4917424" lon="14.2037661"><ele>657.25</ele><time>2026-05-05T11:31:16.276Z</time></trkpt><trkpt lat="45.4918057" lon="14.2035802"><ele>656.5</ele><time>2026-05-05T11:31:17.275Z</time></trkpt><trkpt lat="45.4918693" lon="14.203399"><ele>655.75</ele><time>2026-05-05T11:31:18.276Z</time></trkpt><trkpt lat="45.4919372" lon="14.2032234"><ele>655.0</ele><time>2026-05-05T11:31:19.276Z</time></trkpt><trkpt lat="45.4920057" lon="14.2030499"><ele>655.0</ele><time>2026-05-05T11:31:20.275Z</time></trkpt><trkpt lat="45.4920889" lon="14.2028821"><ele>655.0</ele><time>2026-05-05T11:31:21.276Z</time></trkpt><trkpt lat="45.4921833" lon="14.2027225"><ele>655.0</ele><time>2026-05-05T11:31:22.275Z</time></trkpt><trkpt lat="45.4922794" lon="14.2025612"><ele>655.0</ele><time>2026-05-05T11:31:23.276Z</time></trkpt><trkpt lat="45.4923749" lon="14.2023947"><ele>657.6666666666667</ele><time>2026-05-05T11:31:24.276Z</time></trkpt><trkpt lat="45.4924725" lon="14.2022284"><ele>660.3333333333334</ele><time>2026-05-05T11:31:25.275Z</time></trkpt><trkpt lat="45.4925697" lon="14.2020604"><ele>663.0</ele><time>2026-05-05T11:31:26.276Z</time></trkpt><trkpt lat="45.4926648" lon="14.2018916"><ele>663.0</ele><time>2026-05-05T11:31:27.277Z</time></trkpt><trkpt lat="45.4927481" lon="14.2017137"><ele>663.0</ele><time>2026-05-05T11:31:28.277Z</time></trkpt><trkpt lat="45.4928238" lon="14.2015243"><ele>663.0</ele><time>2026-05-05T11:31:29.276Z</time></trkpt><trkpt lat="45.4928904" lon="14.2013251"><ele>667.3333333333334</ele><time>2026-05-05T11:31:30.276Z</time></trkpt><trkpt lat="45.4929523" lon="14.2011156"><ele>671.6666666666667</ele><time>2026-05-05T11:31:31.276Z</time></trkpt><trkpt lat="45.4930118" lon="14.2009045"><ele>676.0</ele><time>2026-05-05T11:31:32.276Z</time></trkpt><trkpt lat="45.4930698" lon="14.2006936"><ele>675.0</ele><time>2026-05-05T11:31:33.276Z</time></trkpt><trkpt lat="45.4931272" lon="14.2004807"><ele>674.0</ele><time>2026-05-05T11:31:34.277Z</time></trkpt><trkpt lat="45.4931856" lon="14.2002691"><ele>673.0</ele><time>2026-05-05T11:31:35.275Z</time></trkpt><trkpt lat="45.4932428" lon="14.2000556"><ele>673.0</ele><time>2026-05-05T11:31:36.277Z</time></trkpt><trkpt lat="45.4932995" lon="14.1998439"><ele>673.0</ele><time>2026-05-05T11:31:37.277Z</time></trkpt><trkpt lat="45.4933563" lon="14.1996339"><ele>673.0</ele><time>2026-05-05T11:31:38.275Z</time></trkpt><trkpt lat="45.4934102" lon="14.1994278"><ele>673.25</ele><time>2026-05-05T11:31:39.275Z</time></trkpt><trkpt lat="45.4934647" lon="14.1992283"><ele>673.5</ele><time>2026-05-05T11:31:40.276Z</time></trkpt><trkpt lat="45.4935172" lon="14.1990311"><ele>673.75</ele><time>2026-05-05T11:31:41.277Z</time></trkpt><trkpt lat="45.4935695" lon="14.1988394"><ele>674.0</ele><time>2026-05-05T11:31:42.275Z</time></trkpt><trkpt lat="45.4936259" lon="14.1986459"><ele>674.0</ele><time>2026-05-05T11:31:43.275Z</time></trkpt><trkpt lat="45.493691" lon="14.1984604"><ele>674.0</ele><time>2026-05-05T11:31:44.276Z</time></trkpt><trkpt lat="45.4937654" lon="14.1982829"><ele>674.0</ele><time>2026-05-05T11:31:45.277Z</time></trkpt><trkpt lat="45.4938485" lon="14.1981168"><ele>674.0</ele><time>2026-05-05T11:31:46.276Z</time></trkpt><trkpt lat="45.4939394" lon="14.19795"><ele>675.3333333333333</ele><time>2026-05-05T11:31:47.276Z</time></trkpt><trkpt lat="45.494039" lon="14.1977859"><ele>676.6666666666666</ele><time>2026-05-05T11:31:48.276Z</time></trkpt><trkpt lat="45.4941412" lon="14.1976182"><ele>678.0</ele><time>2026-05-05T11:31:49.277Z</time></trkpt><trkpt lat="45.494244" lon="14.1974512"><ele>676.3333333333334</ele><time>2026-05-05T11:31:50.275Z</time></trkpt><trkpt lat="45.4943448" lon="14.1972868"><ele>674.6666666666667</ele><time>2026-05-05T11:31:51.275Z</time></trkpt><trkpt lat="45.4944404" lon="14.19712"><ele>673.0</ele><time>2026-05-05T11:31:52.275Z</time></trkpt><trkpt lat="45.4945321" lon="14.1969514"><ele>675.6666666666667</ele><time>2026-05-05T11:31:53.275Z</time></trkpt><trkpt lat="45.4946126" lon="14.1967713"><ele>678.3333333333334</ele><time>2026-05-05T11:31:54.276Z</time></trkpt><trkpt lat="45.4946795" lon="14.1965742"><ele>681.0</ele><time>2026-05-05T11:31:55.276Z</time></trkpt><trkpt lat="45.494736" lon="14.1963634"><ele>681.0</ele><time>2026-05-05T11:31:56.276Z</time></trkpt><trkpt lat="45.4947851" lon="14.1961471"><ele>681.0</ele><time>2026-05-05T11:31:57.275Z</time></trkpt><trkpt lat="45.4948291" lon="14.1959265"><ele>681.0</ele><time>2026-05-05T11:31:58.275Z</time></trkpt><trkpt lat="45.4948784" lon="14.1956984"><ele>678.6666666666666</ele><time>2026-05-05T11:31:59.276Z</time></trkpt><trkpt lat="45.4949276" lon="14.1954684"><ele>676.3333333333333</ele><time>2026-05-05T11:32:00.277Z</time></trkpt><trkpt lat="45.4949841" lon="14.1952405"><ele>674.0</ele><time>2026-05-05T11:32:01.276Z</time></trkpt><trkpt lat="45.4950484" lon="14.1950147"><ele>673.3333333333333</ele><time>2026-05-05T11:32:02.276Z</time></trkpt><trkpt lat="45.4951187" lon="14.1947978"><ele>672.6666666666666</ele><time>2026-05-05T11:32:03.276Z</time></trkpt><trkpt lat="45.4951983" lon="14.1945852"><ele>672.0</ele><time>2026-05-05T11:32:04.276Z</time></trkpt><trkpt lat="45.4952886" lon="14.1943724"><ele>672.0</ele><time>2026-05-05T11:32:05.277Z</time></trkpt><trkpt lat="45.4953821" lon="14.1941644"><ele>672.0</ele><time>2026-05-05T11:32:06.277Z</time></trkpt><trkpt lat="45.4954828" lon="14.193956"><ele>672.0</ele><time>2026-05-05T11:32:07.276Z</time></trkpt><trkpt lat="45.4955801" lon="14.1937386"><ele>671.6666666666666</ele><time>2026-05-05T11:32:08.277Z</time></trkpt><trkpt lat="45.4956816" lon="14.1935245"><ele>671.3333333333333</ele><time>2026-05-05T11:32:09.277Z</time></trkpt><trkpt lat="45.4957817" lon="14.1933118"><ele>671.0</ele><time>2026-05-05T11:32:10.276Z</time></trkpt><trkpt lat="45.4958813" lon="14.1930963"><ele>671.0</ele><time>2026-05-05T11:32:11.277Z</time></trkpt><trkpt lat="45.4959845" lon="14.1928828"><ele>671.0</ele><time>2026-05-05T11:32:12.276Z</time></trkpt><trkpt lat="45.4960713" lon="14.1926697"><ele>671.0</ele><time>2026-05-05T11:32:13.276Z</time></trkpt><trkpt lat="45.496149" lon="14.1924485"><ele>670.3333333333333</ele><time>2026-05-05T11:32:14.276Z</time></trkpt><trkpt lat="45.4962214" lon="14.1922202"><ele>669.6666666666666</ele><time>2026-05-05T11:32:15.276Z</time></trkpt><trkpt lat="45.4962855" lon="14.1919851"><ele>669.0</ele><time>2026-05-05T11:32:16.276Z</time></trkpt><trkpt lat="45.4963453" lon="14.1917494"><ele>671.6666666666666</ele><time>2026-05-05T11:32:17.277Z</time></trkpt><trkpt lat="45.4964002" lon="14.191511"><ele>674.3333333333333</ele><time>2026-05-05T11:32:18.277Z</time></trkpt><trkpt lat="45.4964566" lon="14.1912758"><ele>677.0</ele><time>2026-05-05T11:32:19.275Z</time></trkpt><trkpt lat="45.4965073" lon="14.1910442"><ele>677.0</ele><time>2026-05-05T11:32:20.276Z</time></trkpt><trkpt lat="45.4965594" lon="14.1908201"><ele>677.0</ele><time>2026-05-05T11:32:21.276Z</time></trkpt><trkpt lat="45.4966086" lon="14.1906045"><ele>677.0</ele><time>2026-05-05T11:32:22.276Z</time></trkpt><trkpt lat="45.496657" lon="14.1904098"><ele>677.25</ele><time>2026-05-05T11:32:23.276Z</time></trkpt><trkpt lat="45.4967075" lon="14.190228"><ele>677.5</ele><time>2026-05-05T11:32:24.276Z</time></trkpt><trkpt lat="45.4967627" lon="14.190053"><ele>677.75</ele><time>2026-05-05T11:32:25.276Z</time></trkpt><trkpt lat="45.4968279" lon="14.1898802"><ele>678.0</ele><time>2026-05-05T11:32:26.277Z</time></trkpt><trkpt lat="45.496904" lon="14.1897019"><ele>677.3333333333334</ele><time>2026-05-05T11:32:27.276Z</time></trkpt><trkpt lat="45.4969867" lon="14.1895183"><ele>676.6666666666667</ele><time>2026-05-05T11:32:28.276Z</time></trkpt><trkpt lat="45.4970725" lon="14.1893311"><ele>676.0</ele><time>2026-05-05T11:32:29.275Z</time></trkpt><trkpt lat="45.4971588" lon="14.1891478"><ele>677.6666666666667</ele><time>2026-05-05T11:32:30.275Z</time></trkpt><trkpt lat="45.4972472" lon="14.1889593"><ele>679.3333333333334</ele><time>2026-05-05T11:32:31.276Z</time></trkpt><trkpt lat="45.4973394" lon="14.1887646"><ele>681.0</ele><time>2026-05-05T11:32:32.276Z</time></trkpt><trkpt lat="45.4974348" lon="14.1885662"><ele>681.0</ele><time>2026-05-05T11:32:33.276Z</time></trkpt><trkpt lat="45.4975301" lon="14.1883596"><ele>681.0</ele><time>2026-05-05T11:32:34.276Z</time></trkpt><trkpt lat="45.4976264" lon="14.1881537"><ele>681.0</ele><time>2026-05-05T11:32:35.275Z</time></trkpt><trkpt lat="45.4977216" lon="14.1879466"><ele>679.6666666666666</ele><time>2026-05-05T11:32:36.275Z</time></trkpt><trkpt lat="45.4978179" lon="14.187744"><ele>678.3333333333333</ele><time>2026-05-05T11:32:37.275Z</time></trkpt><trkpt lat="45.4979157" lon="14.1875417"><ele>677.0</ele><time>2026-05-05T11:32:38.277Z</time></trkpt><trkpt lat="45.4980103" lon="14.18734"><ele>677.0</ele><time>2026-05-05T11:32:39.276Z</time></trkpt><trkpt lat="45.4981055" lon="14.1871399"><ele>677.0</ele><time>2026-05-05T11:32:40.276Z</time></trkpt><trkpt lat="45.4982032" lon="14.1869438"><ele>677.0</ele><time>2026-05-05T11:32:41.276Z</time></trkpt><trkpt lat="45.4983015" lon="14.1867501"><ele>677.0</ele><time>2026-05-05T11:32:42.275Z</time></trkpt><trkpt lat="45.4984061" lon="14.186561"><ele>677.0</ele><time>2026-05-05T11:32:43.276Z</time></trkpt><trkpt lat="45.4985136" lon="14.1863762"><ele>677.0</ele><time>2026-05-05T11:32:44.275Z</time></trkpt><trkpt lat="45.4986259" lon="14.1861882"><ele>676.0</ele><time>2026-05-05T11:32:45.276Z</time></trkpt><trkpt lat="45.4987418" lon="14.1859987"><ele>675.0</ele><time>2026-05-05T11:32:46.276Z</time></trkpt><trkpt lat="45.4988653" lon="14.1858076"><ele>674.0</ele><time>2026-05-05T11:32:47.275Z</time></trkpt><trkpt lat="45.4989949" lon="14.1856156"><ele>674.0</ele><time>2026-05-05T11:32:48.275Z</time></trkpt><trkpt lat="45.4991291" lon="14.1854228"><ele>674.0</ele><time>2026-05-05T11:32:49.275Z</time></trkpt><trkpt lat="45.4992651" lon="14.1852281"><ele>674.0</ele><time>2026-05-05T11:32:50.276Z</time></trkpt><trkpt lat="45.4993984" lon="14.1850346"><ele>675.6666666666666</ele><time>2026-05-05T11:32:51.276Z</time></trkpt><trkpt lat="45.4995306" lon="14.1848401"><ele>677.3333333333334</ele><time>2026-05-05T11:32:52.276Z</time></trkpt><trkpt lat="45.4996637" lon="14.1846469"><ele>679.0</ele><time>2026-05-05T11:32:53.276Z</time></trkpt><trkpt lat="45.4997922" lon="14.184455"><ele>679.0</ele><time>2026-05-05T11:32:54.276Z</time></trkpt><trkpt lat="45.4999183" lon="14.1842698"><ele>679.0</ele><time>2026-05-05T11:32:55.276Z</time></trkpt><trkpt lat="45.5000454" lon="14.1840873"><ele>679.0</ele><time>2026-05-05T11:32:56.275Z</time></trkpt><trkpt lat="45.5001696" lon="14.1839059"><ele>681.3333333333334</ele><time>2026-05-05T11:32:57.276Z</time></trkpt><trkpt lat="45.5002873" lon="14.1837252"><ele>683.6666666666666</ele><time>2026-05-05T11:32:58.275Z</time></trkpt><trkpt lat="45.5003958" lon="14.1835438"><ele>686.0</ele><time>2026-05-05T11:32:59.277Z</time></trkpt><trkpt lat="45.5004942" lon="14.1833577"><ele>683.3333333333333</ele><time>2026-05-05T11:33:00.276Z</time></trkpt><trkpt lat="45.5005836" lon="14.1831683"><ele>680.6666666666666</ele><time>2026-05-05T11:33:01.276Z</time></trkpt><trkpt lat="45.5006651" lon="14.1829704"><ele>678.0</ele><time>2026-05-05T11:33:02.276Z</time></trkpt><trkpt lat="45.5007396" lon="14.1827624"><ele>678.0</ele><time>2026-05-05T11:33:03.276Z</time></trkpt><trkpt lat="45.5008058" lon="14.182545"><ele>678.0</ele><time>2026-05-05T11:33:04.275Z</time></trkpt><trkpt lat="45.5008598" lon="14.1823206"><ele>678.0</ele><time>2026-05-05T11:33:05.276Z</time></trkpt><trkpt lat="45.5009134" lon="14.1820857"><ele>676.3333333333334</ele><time>2026-05-05T11:33:06.276Z</time></trkpt><trkpt lat="45.500961" lon="14.1818463"><ele>674.6666666666667</ele><time>2026-05-05T11:33:07.275Z</time></trkpt><trkpt lat="45.501011" lon="14.1816074"><ele>673.0</ele><time>2026-05-05T11:33:08.275Z</time></trkpt><trkpt lat="45.501061" lon="14.1813671"><ele>669.6666666666667</ele><time>2026-05-05T11:33:09.276Z</time></trkpt><trkpt lat="45.5011138" lon="14.181126"><ele>666.3333333333334</ele><time>2026-05-05T11:33:10.276Z</time></trkpt><trkpt lat="45.5011636" lon="14.1808881"><ele>663.0</ele><time>2026-05-05T11:33:11.275Z</time></trkpt><trkpt lat="45.5012185" lon="14.1806526"><ele>666.0</ele><time>2026-05-05T11:33:12.275Z</time></trkpt><trkpt lat="45.501285" lon="14.1804225"><ele>669.0</ele><time>2026-05-05T11:33:13.275Z</time></trkpt><trkpt lat="45.5013629" lon="14.1802035"><ele>672.0</ele><time>2026-05-05T11:33:14.277Z</time></trkpt><trkpt lat="45.5014473" lon="14.1799893"><ele>669.0</ele><time>2026-05-05T11:33:15.275Z</time></trkpt><trkpt lat="45.5015443" lon="14.1797814"><ele>666.0</ele><time>2026-05-05T11:33:16.275Z</time></trkpt><trkpt lat="45.5016487" lon="14.1795739"><ele>663.0</ele><time>2026-05-05T11:33:17.276Z</time></trkpt><trkpt lat="45.5017549" lon="14.1793682"><ele>663.0</ele><time>2026-05-05T11:33:18.276Z</time></trkpt><trkpt lat="45.5018613" lon="14.1791632"><ele>663.0</ele><time>2026-05-05T11:33:19.275Z</time></trkpt><trkpt lat="45.5019675" lon="14.1789567"><ele>663.0</ele><time>2026-05-05T11:33:20.275Z</time></trkpt><trkpt lat="45.5020734" lon="14.1787521"><ele>664.6666666666666</ele><time>2026-05-05T11:33:21.275Z</time></trkpt><trkpt lat="45.5021782" lon="14.1785474"><ele>666.3333333333333</ele><time>2026-05-05T11:33:22.276Z</time></trkpt><trkpt lat="45.5022841" lon="14.1783476"><ele>668.0</ele><time>2026-05-05T11:33:23.276Z</time></trkpt><trkpt lat="45.5023917" lon="14.1781446"><ele>668.0</ele><time>2026-05-05T11:33:24.276Z</time></trkpt><trkpt lat="45.5024958" lon="14.1779387"><ele>668.0</ele><time>2026-05-05T11:33:25.275Z</time></trkpt><trkpt lat="45.5025991" lon="14.1777373"><ele>668.0</ele><time>2026-05-05T11:33:26.277Z</time></trkpt><trkpt lat="45.502702" lon="14.1775354"><ele>668.6666666666666</ele><time>2026-05-05T11:33:27.276Z</time></trkpt><trkpt lat="45.502807" lon="14.1773362"><ele>669.3333333333334</ele><time>2026-05-05T11:33:28.276Z</time></trkpt><trkpt lat="45.5029109" lon="14.1771353"><ele>670.0</ele><time>2026-05-05T11:33:29.277Z</time></trkpt><trkpt lat="45.5030186" lon="14.1769371"><ele>670.0</ele><time>2026-05-05T11:33:30.275Z</time></trkpt><trkpt lat="45.5031222" lon="14.1767376"><ele>670.0</ele><time>2026-05-05T11:33:31.276Z</time></trkpt><trkpt lat="45.5032237" lon="14.1765433"><ele>670.0</ele><time>2026-05-05T11:33:32.276Z</time></trkpt><trkpt lat="45.5033186" lon="14.1763574"><ele>668.3333333333334</ele><time>2026-05-05T11:33:33.275Z</time></trkpt><trkpt lat="45.503402" lon="14.1761719"><ele>666.6666666666666</ele><time>2026-05-05T11:33:34.276Z</time></trkpt><trkpt lat="45.503473" lon="14.1759806"><ele>665.0</ele><time>2026-05-05T11:33:35.276Z</time></trkpt><trkpt lat="45.5035332" lon="14.1757819"><ele>662.0</ele><time>2026-05-05T11:33:36.276Z</time></trkpt><trkpt lat="45.5035937" lon="14.1755716"><ele>659.0</ele><time>2026-05-05T11:33:37.275Z</time></trkpt><trkpt lat="45.5036526" lon="14.1753514"><ele>656.0</ele><time>2026-05-05T11:33:38.277Z</time></trkpt><trkpt lat="45.5037119" lon="14.175124"><ele>659.0</ele><time>2026-05-05T11:33:39.276Z</time></trkpt><trkpt lat="45.5037717" lon="14.1748885"><ele>662.0</ele><time>2026-05-05T11:33:40.276Z</time></trkpt><trkpt lat="45.5038303" lon="14.1746527"><ele>665.0</ele><time>2026-05-05T11:33:41.276Z</time></trkpt><trkpt lat="45.5038883" lon="14.1744175"><ele>665.0</ele><time>2026-05-05T11:33:42.277Z</time></trkpt><trkpt lat="45.5039466" lon="14.1741912"><ele>665.0</ele><time>2026-05-05T11:33:43.275Z</time></trkpt><trkpt lat="45.5040031" lon="14.1739645"><ele>665.0</ele><time>2026-05-05T11:33:44.277Z</time></trkpt><trkpt lat="45.5040579" lon="14.1737365"><ele>661.6666666666666</ele><time>2026-05-05T11:33:45.275Z</time></trkpt><trkpt lat="45.5041147" lon="14.1735141"><ele>658.3333333333334</ele><time>2026-05-05T11:33:46.275Z</time></trkpt><trkpt lat="45.5041731" lon="14.1732875"><ele>655.0</ele><time>2026-05-05T11:33:47.276Z</time></trkpt><trkpt lat="45.5042286" lon="14.1730587"><ele>651.6666666666667</ele><time>2026-05-05T11:33:48.276Z</time></trkpt><trkpt lat="45.5042864" lon="14.1728308"><ele>648.3333333333334</ele><time>2026-05-05T11:33:49.276Z</time></trkpt><trkpt lat="45.5043447" lon="14.1726083"><ele>645.0</ele><time>2026-05-05T11:33:50.276Z</time></trkpt><trkpt lat="45.5043998" lon="14.1723829"><ele>644.6666666666666</ele><time>2026-05-05T11:33:51.275Z</time></trkpt><trkpt lat="45.5044535" lon="14.1721653"><ele>644.3333333333333</ele><time>2026-05-05T11:33:52.276Z</time></trkpt><trkpt lat="45.5045132" lon="14.1719514"><ele>644.0</ele><time>2026-05-05T11:33:53.276Z</time></trkpt><trkpt lat="45.5045633" lon="14.1717486"><ele>646.75</ele><time>2026-05-05T11:33:54.277Z</time></trkpt><trkpt lat="45.5046098" lon="14.1715551"><ele>649.5</ele><time>2026-05-05T11:33:55.276Z</time></trkpt><trkpt lat="45.5046502" lon="14.1713745"><ele>652.25</ele><time>2026-05-05T11:33:56.276Z</time></trkpt><trkpt lat="45.5046819" lon="14.1711961"><ele>655.0</ele><time>2026-05-05T11:33:57.276Z</time></trkpt><trkpt lat="45.5047013" lon="14.1710112"><ele>655.0</ele><time>2026-05-05T11:33:58.276Z</time></trkpt><trkpt lat="45.5047089" lon="14.1708217"><ele>655.0</ele><time>2026-05-05T11:33:59.275Z</time></trkpt><trkpt lat="45.5047046" lon="14.1706254"><ele>655.0</ele><time>2026-05-05T11:34:00.277Z</time></trkpt><trkpt lat="45.5046911" lon="14.1704259"><ele>655.0</ele><time>2026-05-05T11:34:01.275Z</time></trkpt><trkpt lat="45.5046712" lon="14.1702241"><ele>653.75</ele><time>2026-05-05T11:34:02.277Z</time></trkpt><trkpt lat="45.5046528" lon="14.1700267"><ele>652.5</ele><time>2026-05-05T11:34:03.275Z</time></trkpt><trkpt lat="45.5046337" lon="14.1698347"><ele>651.25</ele><time>2026-05-05T11:34:04.277Z</time></trkpt><trkpt lat="45.5046247" lon="14.1696544"><ele>650.0</ele><time>2026-05-05T11:34:05.276Z</time></trkpt><trkpt lat="45.504622" lon="14.1694765"><ele>648.5</ele><time>2026-05-05T11:34:06.276Z</time></trkpt><trkpt lat="45.5046397" lon="14.1693064"><ele>647.0</ele><time>2026-05-05T11:34:07.276Z</time></trkpt><trkpt lat="45.5046719" lon="14.1691418"><ele>645.5</ele><time>2026-05-05T11:34:08.276Z</time></trkpt><trkpt lat="45.5047322" lon="14.1689832"><ele>644.0</ele><time>2026-05-05T11:34:09.276Z</time></trkpt><trkpt lat="45.5048124" lon="14.1688409"><ele>640.5</ele><time>2026-05-05T11:34:10.275Z</time></trkpt><trkpt lat="45.5049099" lon="14.1687164"><ele>637.0</ele><time>2026-05-05T11:34:11.275Z</time></trkpt><trkpt lat="45.5050256" lon="14.1686137"><ele>633.5</ele><time>2026-05-05T11:34:12.276Z</time></trkpt><trkpt lat="45.5051586" lon="14.1685264"><ele>630.0</ele><time>2026-05-05T11:34:13.276Z</time></trkpt><trkpt lat="45.5052922" lon="14.1684458"><ele>630.0</ele><time>2026-05-05T11:34:14.277Z</time></trkpt><trkpt lat="45.5054367" lon="14.1683559"><ele>630.0</ele><time>2026-05-05T11:34:15.276Z</time></trkpt><trkpt lat="45.5055847" lon="14.1682532"><ele>630.0</ele><time>2026-05-05T11:34:16.277Z</time></trkpt><trkpt lat="45.5057325" lon="14.1681581"><ele>625.0</ele><time>2026-05-05T11:34:17.276Z</time></trkpt><trkpt lat="45.5058818" lon="14.1680648"><ele>620.0</ele><time>2026-05-05T11:34:18.277Z</time></trkpt><trkpt lat="45.5060327" lon="14.1679701"><ele>615.0</ele><time>2026-05-05T11:34:19.276Z</time></trkpt><trkpt lat="45.5061863" lon="14.1678755"><ele>617.3333333333334</ele><time>2026-05-05T11:34:20.276Z</time></trkpt><trkpt lat="45.5063442" lon="14.167782"><ele>619.6666666666667</ele><time>2026-05-05T11:34:21.275Z</time></trkpt><trkpt lat="45.5064969" lon="14.1676879"><ele>622.0</ele><time>2026-05-05T11:34:22.276Z</time></trkpt><trkpt lat="45.5066507" lon="14.1675902"><ele>622.0</ele><time>2026-05-05T11:34:23.277Z</time></trkpt><trkpt lat="45.5068077" lon="14.1674949"><ele>622.0</ele><time>2026-05-05T11:34:24.276Z</time></trkpt><trkpt lat="45.5069626" lon="14.1673997"><ele>622.0</ele><time>2026-05-05T11:34:25.276Z</time></trkpt><trkpt lat="45.5071155" lon="14.1673049"><ele>621.0</ele><time>2026-05-05T11:34:26.277Z</time></trkpt><trkpt lat="45.5072685" lon="14.1672116"><ele>620.0</ele><time>2026-05-05T11:34:27.277Z</time></trkpt><trkpt lat="45.5074196" lon="14.1671146"><ele>619.0</ele><time>2026-05-05T11:34:28.277Z</time></trkpt><trkpt lat="45.5075669" lon="14.1670096"><ele>619.0</ele><time>2026-05-05T11:34:29.276Z</time></trkpt><trkpt lat="45.50771" lon="14.1668983"><ele>619.0</ele><time>2026-05-05T11:34:30.275Z</time></trkpt><trkpt lat="45.5078508" lon="14.1667871"><ele>619.0</ele><time>2026-05-05T11:34:31.275Z</time></trkpt><trkpt lat="45.5079895" lon="14.1666748"><ele>620.3333333333334</ele><time>2026-05-05T11:34:32.276Z</time></trkpt><trkpt lat="45.5081249" lon="14.166565"><ele>621.6666666666666</ele><time>2026-05-05T11:34:33.276Z</time></trkpt><trkpt lat="45.5082602" lon="14.1664533"><ele>623.0</ele><time>2026-05-05T11:34:34.277Z</time></trkpt><trkpt lat="45.5083935" lon="14.166343"><ele>620.0</ele><time>2026-05-05T11:34:35.276Z</time></trkpt><trkpt lat="45.5085262" lon="14.1662305"><ele>617.0</ele><time>2026-05-05T11:34:36.276Z</time></trkpt><trkpt lat="45.5086548" lon="14.166123"><ele>614.0</ele><time>2026-05-05T11:34:37.275Z</time></trkpt><trkpt lat="45.5087825" lon="14.1660116"><ele>614.0</ele><time>2026-05-05T11:34:38.275Z</time></trkpt><trkpt lat="45.508906" lon="14.1658971"><ele>614.0</ele><time>2026-05-05T11:34:39.277Z</time></trkpt><trkpt lat="45.509025" lon="14.1657685"><ele>614.0</ele><time>2026-05-05T11:34:40.276Z</time></trkpt><trkpt lat="45.5091377" lon="14.1656245"><ele>614.0</ele><time>2026-05-05T11:34:41.275Z</time></trkpt><trkpt lat="45.5092451" lon="14.1654703"><ele>615.3333333333333</ele><time>2026-05-05T11:34:42.276Z</time></trkpt><trkpt lat="45.5093555" lon="14.1653067"><ele>616.6666666666666</ele><time>2026-05-05T11:34:43.276Z</time></trkpt><trkpt lat="45.5094662" lon="14.1651392"><ele>618.0</ele><time>2026-05-05T11:34:44.276Z</time></trkpt><trkpt lat="45.5095793" lon="14.1649697"><ele>613.6666666666666</ele><time>2026-05-05T11:34:45.276Z</time></trkpt><trkpt lat="45.5096912" lon="14.1647973"><ele>609.3333333333333</ele><time>2026-05-05T11:34:46.276Z</time></trkpt><trkpt lat="45.5098024" lon="14.1646233"><ele>605.0</ele><time>2026-05-05T11:34:47.276Z</time></trkpt><trkpt lat="45.5099129" lon="14.164455"><ele>605.0</ele><time>2026-05-05T11:34:48.275Z</time></trkpt><trkpt lat="45.51002" lon="14.1642961"><ele>605.0</ele><time>2026-05-05T11:34:49.275Z</time></trkpt><trkpt lat="45.5101268" lon="14.1641489"><ele>605.0</ele><time>2026-05-05T11:34:50.276Z</time></trkpt><trkpt lat="45.5102369" lon="14.1640061"><ele>602.6666666666666</ele><time>2026-05-05T11:34:51.276Z</time></trkpt><trkpt lat="45.5103522" lon="14.1638752"><ele>600.3333333333334</ele><time>2026-05-05T11:34:52.276Z</time></trkpt><trkpt lat="45.5104728" lon="14.1637476"><ele>598.0</ele><time>2026-05-05T11:34:53.276Z</time></trkpt><trkpt lat="45.5106014" lon="14.1636302"><ele>598.0</ele><time>2026-05-05T11:34:54.276Z</time></trkpt><trkpt lat="45.5107301" lon="14.1635199"><ele>598.0</ele><time>2026-05-05T11:34:55.275Z</time></trkpt><trkpt lat="45.5108607" lon="14.1634203"><ele>598.0</ele><time>2026-05-05T11:34:56.277Z</time></trkpt><trkpt lat="45.5109881" lon="14.1633259"><ele>598.0</ele><time>2026-05-05T11:34:57.276Z</time></trkpt><trkpt lat="45.5111121" lon="14.1632277"><ele>596.5</ele><time>2026-05-05T11:34:58.276Z</time></trkpt><trkpt lat="45.5112353" lon="14.163131"><ele>595.0</ele><time>2026-05-05T11:34:59.277Z</time></trkpt><trkpt lat="45.5113659" lon="14.1630422"><ele>593.5</ele><time>2026-05-05T11:35:00.277Z</time></trkpt><trkpt lat="45.5114984" lon="14.162956"><ele>592.0</ele><time>2026-05-05T11:35:01.276Z</time></trkpt><trkpt lat="45.5116325" lon="14.1628748"><ele>592.0</ele><time>2026-05-05T11:35:02.277Z</time></trkpt><trkpt lat="45.5117693" lon="14.1627979"><ele>592.0</ele><time>2026-05-05T11:35:03.276Z</time></trkpt><trkpt lat="45.511901" lon="14.1627344"><ele>592.0</ele><time>2026-05-05T11:35:04.276Z</time></trkpt><trkpt lat="45.512028" lon="14.1626756"><ele>592.0</ele><time>2026-05-05T11:35:05.277Z</time></trkpt><trkpt lat="45.5121539" lon="14.162624"><ele>591.25</ele><time>2026-05-05T11:35:06.276Z</time></trkpt><trkpt lat="45.5122757" lon="14.1625713"><ele>590.5</ele><time>2026-05-05T11:35:07.276Z</time></trkpt><trkpt lat="45.5123948" lon="14.1625149"><ele>589.75</ele><time>2026-05-05T11:35:08.276Z</time></trkpt><trkpt lat="45.5125159" lon="14.1624583"><ele>589.0</ele><time>2026-05-05T11:35:09.276Z</time></trkpt><trkpt lat="45.512633" lon="14.162398"><ele>588.25</ele><time>2026-05-05T11:35:10.276Z</time></trkpt><trkpt lat="45.5127511" lon="14.1623204"><ele>587.5</ele><time>2026-05-05T11:35:11.276Z</time></trkpt><trkpt lat="45.5128633" lon="14.162224"><ele>586.75</ele><time>2026-05-05T11:35:12.276Z</time></trkpt><trkpt lat="45.5129698" lon="14.1621089"><ele>586.0</ele><time>2026-05-05T11:35:13.276Z</time></trkpt><trkpt lat="45.5130716" lon="14.1619818"><ele>586.0</ele><time>2026-05-05T11:35:14.276Z</time></trkpt><trkpt lat="45.5131646" lon="14.1618381"><ele>586.0</ele><time>2026-05-05T11:35:15.276Z</time></trkpt><trkpt lat="45.5132494" lon="14.1616838"><ele>586.0</ele><time>2026-05-05T11:35:16.275Z</time></trkpt><trkpt lat="45.5133295" lon="14.161527"><ele>586.0</ele><time>2026-05-05T11:35:17.275Z</time></trkpt><trkpt lat="45.5134124" lon="14.1613683"><ele>586.75</ele><time>2026-05-05T11:35:18.276Z</time></trkpt><trkpt lat="45.5134953" lon="14.1612074"><ele>587.5</ele><time>2026-05-05T11:35:19.276Z</time></trkpt><trkpt lat="45.5135802" lon="14.1610469"><ele>588.25</ele><time>2026-05-05T11:35:20.275Z</time></trkpt><trkpt lat="45.5136647" lon="14.1608831"><ele>589.0</ele><time>2026-05-05T11:35:21.276Z</time></trkpt><trkpt lat="45.5137509" lon="14.1607203"><ele>588.0</ele><time>2026-05-05T11:35:22.276Z</time></trkpt><trkpt lat="45.5138376" lon="14.1605567"><ele>587.0</ele><time>2026-05-05T11:35:23.276Z</time></trkpt><trkpt lat="45.5139253" lon="14.1603904"><ele>586.0</ele><time>2026-05-05T11:35:24.276Z</time></trkpt><trkpt lat="45.5140133" lon="14.1602256"><ele>585.0</ele><time>2026-05-05T11:35:25.276Z</time></trkpt><trkpt lat="45.5140991" lon="14.1600581"><ele>585.0</ele><time>2026-05-05T11:35:26.276Z</time></trkpt><trkpt lat="45.5141866" lon="14.1598858"><ele>585.0</ele><time>2026-05-05T11:35:27.275Z</time></trkpt><trkpt lat="45.5142744" lon="14.159706"><ele>585.0</ele><time>2026-05-05T11:35:28.276Z</time></trkpt><trkpt lat="45.514362" lon="14.1595301"><ele>586.3333333333334</ele><time>2026-05-05T11:35:29.276Z</time></trkpt><trkpt lat="45.5144454" lon="14.1593533"><ele>587.6666666666667</ele><time>2026-05-05T11:35:30.277Z</time></trkpt><trkpt lat="45.5145263" lon="14.1591709"><ele>589.0</ele><time>2026-05-05T11:35:31.276Z</time></trkpt><trkpt lat="45.5146039" lon="14.158985"><ele>589.0</ele><time>2026-05-05T11:35:32.275Z</time></trkpt><trkpt lat="45.5146809" lon="14.1587984"><ele>589.0</ele><time>2026-05-05T11:35:33.276Z</time></trkpt><trkpt lat="45.5147604" lon="14.1586083"><ele>589.0</ele><time>2026-05-05T11:35:34.276Z</time></trkpt><trkpt lat="45.5148459" lon="14.1584203"><ele>589.0</ele><time>2026-05-05T11:35:35.277Z</time></trkpt><trkpt lat="45.5149337" lon="14.1582316"><ele>589.0</ele><time>2026-05-05T11:35:36.276Z</time></trkpt><trkpt lat="45.5150249" lon="14.1580409"><ele>589.0</ele><time>2026-05-05T11:35:37.276Z</time></trkpt><trkpt lat="45.5151172" lon="14.1578514"><ele>590.6666666666667</ele><time>2026-05-05T11:35:38.276Z</time></trkpt><trkpt lat="45.5152142" lon="14.1576608"><ele>592.3333333333334</ele><time>2026-05-05T11:35:39.275Z</time></trkpt><trkpt lat="45.5153171" lon="14.1574727"><ele>594.0</ele><time>2026-05-05T11:35:40.275Z</time></trkpt><trkpt lat="45.5154155" lon="14.1572846"><ele>594.0</ele><time>2026-05-05T11:35:41.275Z</time></trkpt><trkpt lat="45.5155137" lon="14.1570929"><ele>594.0</ele><time>2026-05-05T11:35:42.276Z</time></trkpt><trkpt lat="45.5156114" lon="14.1569035"><ele>594.0</ele><time>2026-05-05T11:35:43.276Z</time></trkpt><trkpt lat="45.5157113" lon="14.1567154"><ele>589.0</ele><time>2026-05-05T11:35:44.276Z</time></trkpt><trkpt lat="45.515805" lon="14.1565272"><ele>584.0</ele><time>2026-05-05T11:35:45.276Z</time></trkpt><trkpt lat="45.5159049" lon="14.1563513"><ele>579.0</ele><time>2026-05-05T11:35:46.276Z</time></trkpt><trkpt lat="45.5159997" lon="14.1561628"><ele>579.0</ele><time>2026-05-05T11:35:47.275Z</time></trkpt><trkpt lat="45.5160959" lon="14.1559755"><ele>579.0</ele><time>2026-05-05T11:35:48.276Z</time></trkpt><trkpt lat="45.5161897" lon="14.1557885"><ele>579.0</ele><time>2026-05-05T11:35:49.277Z</time></trkpt><trkpt lat="45.5162818" lon="14.1556087"><ele>583.5</ele><time>2026-05-05T11:35:50.276Z</time></trkpt><trkpt lat="45.5163738" lon="14.1554334"><ele>588.0</ele><time>2026-05-05T11:35:51.277Z</time></trkpt><trkpt lat="45.516468" lon="14.1552692"><ele>592.5</ele><time>2026-05-05T11:35:52.276Z</time></trkpt><trkpt lat="45.5165627" lon="14.1551101"><ele>597.0</ele><time>2026-05-05T11:35:53.276Z</time></trkpt><trkpt lat="45.5166655" lon="14.1549607"><ele>597.75</ele><time>2026-05-05T11:35:54.276Z</time></trkpt><trkpt lat="45.5167773" lon="14.1548274"><ele>598.5</ele><time>2026-05-05T11:35:55.276Z</time></trkpt><trkpt lat="45.5168983" lon="14.1547033"><ele>599.25</ele><time>2026-05-05T11:35:56.275Z</time></trkpt><trkpt lat="45.5170258" lon="14.1545932"><ele>600.0</ele><time>2026-05-05T11:35:57.276Z</time></trkpt><trkpt lat="45.5171525" lon="14.154492"><ele>600.0</ele><time>2026-05-05T11:35:58.275Z</time></trkpt><trkpt lat="45.5172835" lon="14.1543911"><ele>600.0</ele><time>2026-05-05T11:35:59.276Z</time></trkpt><trkpt lat="45.5174128" lon="14.1542933"><ele>600.0</ele><time>2026-05-05T11:36:00.276Z</time></trkpt><trkpt lat="45.5175348" lon="14.1541977"><ele>600.0</ele><time>2026-05-05T11:36:01.275Z</time></trkpt><trkpt lat="45.5176556" lon="14.1540904"><ele>598.25</ele><time>2026-05-05T11:36:02.276Z</time></trkpt><trkpt lat="45.5177756" lon="14.1539716"><ele>596.5</ele><time>2026-05-05T11:36:03.276Z</time></trkpt><trkpt lat="45.517891" lon="14.153842"><ele>594.75</ele><time>2026-05-05T11:36:04.276Z</time></trkpt><trkpt lat="45.5180015" lon="14.1536895"><ele>593.0</ele><time>2026-05-05T11:36:05.275Z</time></trkpt><trkpt lat="45.5181119" lon="14.1535363"><ele>593.0</ele><time>2026-05-05T11:36:06.276Z</time></trkpt><trkpt lat="45.5182203" lon="14.1533805"><ele>593.0</ele><time>2026-05-05T11:36:07.276Z</time></trkpt><trkpt lat="45.5183291" lon="14.1532261"><ele>593.0</ele><time>2026-05-05T11:36:08.275Z</time></trkpt><trkpt lat="45.5184377" lon="14.1530639"><ele>588.3333333333333</ele><time>2026-05-05T11:36:09.277Z</time></trkpt><trkpt lat="45.51855" lon="14.1529056"><ele>583.6666666666666</ele><time>2026-05-05T11:36:10.276Z</time></trkpt><trkpt lat="45.5186607" lon="14.1527442"><ele>579.0</ele><time>2026-05-05T11:36:11.276Z</time></trkpt><trkpt lat="45.5187697" lon="14.1525855"><ele>578.6666666666666</ele><time>2026-05-05T11:36:12.275Z</time></trkpt><trkpt lat="45.5188816" lon="14.1524263"><ele>578.3333333333333</ele><time>2026-05-05T11:36:13.276Z</time></trkpt><trkpt lat="45.518996" lon="14.1522732"><ele>578.0</ele><time>2026-05-05T11:36:14.276Z</time></trkpt><trkpt lat="45.519108" lon="14.1521137"><ele>574.3333333333333</ele><time>2026-05-05T11:36:15.276Z</time></trkpt><trkpt lat="45.5192191" lon="14.1519539"><ele>570.6666666666666</ele><time>2026-05-05T11:36:16.276Z</time></trkpt><trkpt lat="45.519321" lon="14.1517943"><ele>567.0</ele><time>2026-05-05T11:36:17.276Z</time></trkpt><trkpt lat="45.5194299" lon="14.1516334"><ele>565.0</ele><time>2026-05-05T11:36:18.277Z</time></trkpt><trkpt lat="45.5195352" lon="14.1514736"><ele>563.0</ele><time>2026-05-05T11:36:19.276Z</time></trkpt><trkpt lat="45.519644" lon="14.1513168"><ele>561.0</ele><time>2026-05-05T11:36:20.275Z</time></trkpt><trkpt lat="45.5197525" lon="14.1511593"><ele>561.0</ele><time>2026-05-05T11:36:21.275Z</time></trkpt><trkpt lat="45.5198536" lon="14.1510055"><ele>561.0</ele><time>2026-05-05T11:36:22.277Z</time></trkpt><trkpt lat="45.5199525" lon="14.1508535"><ele>561.0</ele><time>2026-05-05T11:36:23.277Z</time></trkpt><trkpt lat="45.5200428" lon="14.1506986"><ele>561.0</ele><time>2026-05-05T11:36:24.275Z</time></trkpt><trkpt lat="45.5201174" lon="14.1505391"><ele>559.25</ele><time>2026-05-05T11:36:25.276Z</time></trkpt><trkpt lat="45.5201771" lon="14.1503715"><ele>557.5</ele><time>2026-05-05T11:36:26.277Z</time></trkpt><trkpt lat="45.5202229" lon="14.1501962"><ele>555.75</ele><time>2026-05-05T11:36:27.276Z</time></trkpt><trkpt lat="45.5202675" lon="14.1500206"><ele>554.0</ele><time>2026-05-05T11:36:28.276Z</time></trkpt><trkpt lat="45.5203121" lon="14.1498368"><ele>553.75</ele><time>2026-05-05T11:36:29.276Z</time></trkpt><trkpt lat="45.5203604" lon="14.149649"><ele>553.5</ele><time>2026-05-05T11:36:30.275Z</time></trkpt><trkpt lat="45.5204072" lon="14.1494623"><ele>553.25</ele><time>2026-05-05T11:36:31.275Z</time></trkpt><trkpt lat="45.5204541" lon="14.1492806"><ele>553.0</ele><time>2026-05-05T11:36:32.275Z</time></trkpt><trkpt lat="45.520506" lon="14.1491015"><ele>557.0</ele><time>2026-05-05T11:36:33.276Z</time></trkpt><trkpt lat="45.5205675" lon="14.1489395"><ele>561.0</ele><time>2026-05-05T11:36:34.275Z</time></trkpt><trkpt lat="45.5206314" lon="14.1487914"><ele>565.0</ele><time>2026-05-05T11:36:35.277Z</time></trkpt><trkpt lat="45.5207009" lon="14.1486505"><ele>569.0</ele><time>2026-05-05T11:36:36.276Z</time></trkpt><trkpt lat="45.5207694" lon="14.1485095"><ele>569.0</ele><time>2026-05-05T11:36:37.275Z</time></trkpt><trkpt lat="45.5208354" lon="14.1483679"><ele>569.0</ele><time>2026-05-05T11:36:38.276Z</time></trkpt><trkpt lat="45.5208951" lon="14.1482344"><ele>569.0</ele><time>2026-05-05T11:36:39.276Z</time></trkpt><trkpt lat="45.5209459" lon="14.1481081"><ele>569.0</ele><time>2026-05-05T11:36:40.277Z</time></trkpt><trkpt lat="45.5209844" lon="14.1479953"><ele>569.0</ele><time>2026-05-05T11:36:41.276Z</time></trkpt><trkpt lat="45.5210083" lon="14.1478888"><ele>568.6666666666666</ele><time>2026-05-05T11:36:42.276Z</time></trkpt><trkpt lat="45.5210209" lon="14.1477905"><ele>568.3333333333333</ele><time>2026-05-05T11:36:43.277Z</time></trkpt><trkpt lat="45.5210226" lon="14.1476986"><ele>568.0</ele><time>2026-05-05T11:36:44.277Z</time></trkpt><trkpt lat="45.5210331" lon="14.1475482"><ele>567.6666666666666</ele><time>2026-05-05T11:36:46.276Z</time></trkpt><trkpt lat="45.5210611" lon="14.1474391"><ele>567.3333333333334</ele><time>2026-05-05T11:36:48.276Z</time></trkpt><trkpt lat="45.5211168" lon="14.1473482"><ele>567.0</ele><time>2026-05-05T11:39:02.274Z</time></trkpt><trkpt lat="45.5210633" lon="14.1474044"><ele>567.0</ele><time>2026-05-05T11:39:24.275Z</time></trkpt><trkpt lat="45.5211246" lon="14.1473706"><ele>567.0</ele><time>2026-05-05T11:40:02.275Z</time></trkpt><trkpt lat="45.5211745" lon="14.1472473"><ele>567.0</ele><time>2026-05-05T11:41:18.273Z</time></trkpt><trkpt lat="45.5212059" lon="14.1471692"><ele>567.0</ele><time>2026-05-05T11:41:21.273Z</time></trkpt><trkpt lat="45.5212683" lon="14.1471194"><ele>567.0</ele><time>2026-05-05T11:41:24.272Z</time></trkpt><trkpt lat="45.5213433" lon="14.1469588"><ele>567.0</ele><time>2026-05-05T11:41:26.272Z</time></trkpt><trkpt lat="45.5213741" lon="14.1468605"><ele>568.2</ele><time>2026-05-05T11:41:27.273Z</time></trkpt><trkpt lat="45.5214085" lon="14.1467481"><ele>569.4000000000001</ele><time>2026-05-05T11:41:28.273Z</time></trkpt><trkpt lat="45.5214444" lon="14.1466274"><ele>570.5999999999999</ele><time>2026-05-05T11:41:29.273Z</time></trkpt><trkpt lat="45.5214842" lon="14.1465035"><ele>571.8</ele><time>2026-05-05T11:41:30.272Z</time></trkpt><trkpt lat="45.5215228" lon="14.146384"><ele>573.0</ele><time>2026-05-05T11:41:31.273Z</time></trkpt><trkpt lat="45.5215608" lon="14.1462643"><ele>573.0</ele><time>2026-05-05T11:41:32.272Z</time></trkpt><trkpt lat="45.5215975" lon="14.1461531"><ele>573.0</ele><time>2026-05-05T11:41:33.273Z</time></trkpt><trkpt lat="45.5216315" lon="14.1460394"><ele>573.0</ele><time>2026-05-05T11:41:34.272Z</time></trkpt><trkpt lat="45.5216665" lon="14.1459176"><ele>573.0</ele><time>2026-05-05T11:41:35.272Z</time></trkpt><trkpt lat="45.5217046" lon="14.1457973"><ele>573.0</ele><time>2026-05-05T11:41:36.272Z</time></trkpt><trkpt lat="45.5217314" lon="14.1456637"><ele>572.8</ele><time>2026-05-05T11:41:37.273Z</time></trkpt><trkpt lat="45.5217518" lon="14.1455334"><ele>572.5999999999999</ele><time>2026-05-05T11:41:38.272Z</time></trkpt><trkpt lat="45.5217715" lon="14.1453913"><ele>572.4000000000001</ele><time>2026-05-05T11:41:39.273Z</time></trkpt><trkpt lat="45.5217944" lon="14.1452483"><ele>572.2</ele><time>2026-05-05T11:41:40.272Z</time></trkpt><trkpt lat="45.5218176" lon="14.1450965"><ele>572.0</ele><time>2026-05-05T11:41:41.273Z</time></trkpt><trkpt lat="45.5218364" lon="14.1449408"><ele>571.6</ele><time>2026-05-05T11:41:42.273Z</time></trkpt><trkpt lat="45.5218596" lon="14.1447968"><ele>571.2</ele><time>2026-05-05T11:41:43.273Z</time></trkpt><trkpt lat="45.5218867" lon="14.1446614"><ele>570.8</ele><time>2026-05-05T11:41:44.272Z</time></trkpt><trkpt lat="45.521922" lon="14.1445325"><ele>570.4</ele><time>2026-05-05T11:41:45.272Z</time></trkpt><trkpt lat="45.5219675" lon="14.1444123"><ele>570.0</ele><time>2026-05-05T11:41:46.273Z</time></trkpt><trkpt lat="45.5220262" lon="14.1442985"><ele>569.0</ele><time>2026-05-05T11:41:47.272Z</time></trkpt><trkpt lat="45.5220945" lon="14.1441883"><ele>568.0</ele><time>2026-05-05T11:41:48.272Z</time></trkpt><trkpt lat="45.5221786" lon="14.1440898"><ele>567.0</ele><time>2026-05-05T11:41:49.272Z</time></trkpt><trkpt lat="45.5222639" lon="14.1439954"><ele>566.0</ele><time>2026-05-05T11:41:50.272Z</time></trkpt><trkpt lat="45.522346" lon="14.1438946"><ele>565.0</ele><time>2026-05-05T11:41:51.272Z</time></trkpt><trkpt lat="45.5224252" lon="14.1437921"><ele>564.8</ele><time>2026-05-05T11:41:52.272Z</time></trkpt><trkpt lat="45.5224999" lon="14.1436844"><ele>564.6</ele><time>2026-05-05T11:41:53.273Z</time></trkpt><trkpt lat="45.5225657" lon="14.1435684"><ele>564.4</ele><time>2026-05-05T11:41:54.272Z</time></trkpt><trkpt lat="45.5226284" lon="14.1434454"><ele>564.2</ele><time>2026-05-05T11:41:55.273Z</time></trkpt><trkpt lat="45.5226869" lon="14.1433187"><ele>564.0</ele><time>2026-05-05T11:41:56.273Z</time></trkpt><trkpt lat="45.5227411" lon="14.1431894"><ele>563.4</ele><time>2026-05-05T11:41:57.272Z</time></trkpt><trkpt lat="45.522788" lon="14.1430562"><ele>562.8</ele><time>2026-05-05T11:41:58.273Z</time></trkpt><trkpt lat="45.522825" lon="14.1429191"><ele>562.2</ele><time>2026-05-05T11:41:59.273Z</time></trkpt><trkpt lat="45.5228466" lon="14.1427715"><ele>561.6</ele><time>2026-05-05T11:42:00.273Z</time></trkpt><trkpt lat="45.5228567" lon="14.1426146"><ele>561.0</ele><time>2026-05-05T11:42:01.273Z</time></trkpt><trkpt lat="45.5228556" lon="14.1424583"><ele>561.6</ele><time>2026-05-05T11:42:02.273Z</time></trkpt><trkpt lat="45.5228446" lon="14.1422998"><ele>562.2</ele><time>2026-05-05T11:42:03.273Z</time></trkpt><trkpt lat="45.5228251" lon="14.1421441"><ele>562.8</ele><time>2026-05-05T11:42:04.272Z</time></trkpt><trkpt lat="45.5227942" lon="14.1419911"><ele>563.4</ele><time>2026-05-05T11:42:05.272Z</time></trkpt><trkpt lat="45.5227496" lon="14.1418519"><ele>564.0</ele><time>2026-05-05T11:42:06.273Z</time></trkpt><trkpt lat="45.5226941" lon="14.1417212"><ele>564.0</ele><time>2026-05-05T11:42:07.273Z</time></trkpt><trkpt lat="45.5226405" lon="14.1415965"><ele>564.0</ele><time>2026-05-05T11:42:08.272Z</time></trkpt><trkpt lat="45.5225904" lon="14.14147"><ele>564.0</ele><time>2026-05-05T11:42:09.272Z</time></trkpt><trkpt lat="45.5225424" lon="14.1413439"><ele>564.0</ele><time>2026-05-05T11:42:10.273Z</time></trkpt><trkpt lat="45.5225006" lon="14.1412194"><ele>564.0</ele><time>2026-05-05T11:42:11.273Z</time></trkpt><trkpt lat="45.5224678" lon="14.1410873"><ele>564.0</ele><time>2026-05-05T11:42:12.272Z</time></trkpt><trkpt lat="45.5224532" lon="14.1409463"><ele>564.0</ele><time>2026-05-05T11:42:13.273Z</time></trkpt><trkpt lat="45.5224543" lon="14.1408038"><ele>564.0</ele><time>2026-05-05T11:42:14.272Z</time></trkpt><trkpt lat="45.5224768" lon="14.1406516"><ele>564.0</ele><time>2026-05-05T11:42:15.272Z</time></trkpt><trkpt lat="45.5225106" lon="14.1405066"><ele>564.0</ele><time>2026-05-05T11:42:16.273Z</time></trkpt><trkpt lat="45.5225601" lon="14.1403591"><ele>561.75</ele><time>2026-05-05T11:42:17.273Z</time></trkpt><trkpt lat="45.5226097" lon="14.1402012"><ele>559.5</ele><time>2026-05-05T11:42:18.272Z</time></trkpt><trkpt lat="45.5226601" lon="14.1400391"><ele>557.25</ele><time>2026-05-05T11:42:19.273Z</time></trkpt><trkpt lat="45.5227098" lon="14.1398762"><ele>555.0</ele><time>2026-05-05T11:42:20.273Z</time></trkpt><trkpt lat="45.5227593" lon="14.1397122"><ele>555.5</ele><time>2026-05-05T11:42:21.272Z</time></trkpt><trkpt lat="45.5228099" lon="14.139546"><ele>556.0</ele><time>2026-05-05T11:42:22.273Z</time></trkpt><trkpt lat="45.5228639" lon="14.139385"><ele>556.5</ele><time>2026-05-05T11:42:23.273Z</time></trkpt><trkpt lat="45.5229225" lon="14.1392289"><ele>557.0</ele><time>2026-05-05T11:42:24.273Z</time></trkpt><trkpt lat="45.5229878" lon="14.1390785"><ele>555.25</ele><time>2026-05-05T11:42:25.273Z</time></trkpt><trkpt lat="45.5230657" lon="14.1389397"><ele>553.5</ele><time>2026-05-05T11:42:26.273Z</time></trkpt><trkpt lat="45.5231569" lon="14.1388162"><ele>551.75</ele><time>2026-05-05T11:42:27.272Z</time></trkpt><trkpt lat="45.5232556" lon="14.1387044"><ele>550.0</ele><time>2026-05-05T11:42:28.272Z</time></trkpt><trkpt lat="45.5233563" lon="14.138589"><ele>550.0</ele><time>2026-05-05T11:42:29.272Z</time></trkpt><trkpt lat="45.5234566" lon="14.1384684"><ele>550.0</ele><time>2026-05-05T11:42:30.273Z</time></trkpt><trkpt lat="45.5235525" lon="14.1383503"><ele>550.0</ele><time>2026-05-05T11:42:31.273Z</time></trkpt><trkpt lat="45.5236515" lon="14.13823"><ele>550.0</ele><time>2026-05-05T11:42:32.273Z</time></trkpt><trkpt lat="45.5237489" lon="14.1381057"><ele>550.5</ele><time>2026-05-05T11:42:33.273Z</time></trkpt><trkpt lat="45.5238426" lon="14.1379739"><ele>551.0</ele><time>2026-05-05T11:42:34.273Z</time></trkpt><trkpt lat="45.5239315" lon="14.1378349"><ele>551.5</ele><time>2026-05-05T11:42:35.272Z</time></trkpt><trkpt lat="45.5240149" lon="14.1376858"><ele>552.0</ele><time>2026-05-05T11:42:36.273Z</time></trkpt><trkpt lat="45.5240913" lon="14.1375224"><ele>549.75</ele><time>2026-05-05T11:42:37.272Z</time></trkpt><trkpt lat="45.5241618" lon="14.1373448"><ele>547.5</ele><time>2026-05-05T11:42:38.272Z</time></trkpt><trkpt lat="45.5242238" lon="14.1371553"><ele>545.25</ele><time>2026-05-05T11:42:39.273Z</time></trkpt><trkpt lat="45.5242773" lon="14.1369582"><ele>543.0</ele><time>2026-05-05T11:42:40.272Z</time></trkpt><trkpt lat="45.5243246" lon="14.1367506"><ele>542.6666666666666</ele><time>2026-05-05T11:42:41.272Z</time></trkpt><trkpt lat="45.5243683" lon="14.1365407"><ele>542.3333333333333</ele><time>2026-05-05T11:42:42.273Z</time></trkpt><trkpt lat="45.5244121" lon="14.13633"><ele>542.0</ele><time>2026-05-05T11:42:43.272Z</time></trkpt><trkpt lat="45.5244573" lon="14.1361202"><ele>542.0</ele><time>2026-05-05T11:42:44.272Z</time></trkpt><trkpt lat="45.5245041" lon="14.1359119"><ele>542.0</ele><time>2026-05-05T11:42:45.273Z</time></trkpt><trkpt lat="45.5245584" lon="14.1357076"><ele>542.0</ele><time>2026-05-05T11:42:46.273Z</time></trkpt><trkpt lat="45.5246092" lon="14.1355079"><ele>544.0</ele><time>2026-05-05T11:42:47.273Z</time></trkpt><trkpt lat="45.5246681" lon="14.1353164"><ele>546.0</ele><time>2026-05-05T11:42:48.272Z</time></trkpt><trkpt lat="45.524736" lon="14.1351271"><ele>548.0</ele><time>2026-05-05T11:42:49.273Z</time></trkpt><trkpt lat="45.5248118" lon="14.1349356"><ele>546.0</ele><time>2026-05-05T11:42:50.272Z</time></trkpt><trkpt lat="45.5248929" lon="14.1347409"><ele>544.0</ele><time>2026-05-05T11:42:51.273Z</time></trkpt><trkpt lat="45.5249769" lon="14.134545"><ele>542.0</ele><time>2026-05-05T11:42:52.272Z</time></trkpt><trkpt lat="45.5250583" lon="14.1343487"><ele>542.0</ele><time>2026-05-05T11:42:53.273Z</time></trkpt><trkpt lat="45.5251388" lon="14.134154"><ele>542.0</ele><time>2026-05-05T11:42:54.273Z</time></trkpt><trkpt lat="45.5252216" lon="14.1339604"><ele>542.0</ele><time>2026-05-05T11:42:55.273Z</time></trkpt><trkpt lat="45.5253042" lon="14.1337581"><ele>541.3333333333333</ele><time>2026-05-05T11:42:56.273Z</time></trkpt><trkpt lat="45.5253891" lon="14.1335505"><ele>540.6666666666666</ele><time>2026-05-05T11:42:57.272Z</time></trkpt><trkpt lat="45.5254737" lon="14.1333437"><ele>540.0</ele><time>2026-05-05T11:42:58.273Z</time></trkpt><trkpt lat="45.5255598" lon="14.1331352"><ele>540.0</ele><time>2026-05-05T11:42:59.272Z</time></trkpt><trkpt lat="45.5256473" lon="14.1329256"><ele>540.0</ele><time>2026-05-05T11:43:00.273Z</time></trkpt><trkpt lat="45.5257357" lon="14.1327127"><ele>540.0</ele><time>2026-05-05T11:43:01.273Z</time></trkpt><trkpt lat="45.5258221" lon="14.1325002"><ele>538.3333333333334</ele><time>2026-05-05T11:43:02.272Z</time></trkpt><trkpt lat="45.5259093" lon="14.1322905"><ele>536.6666666666667</ele><time>2026-05-05T11:43:03.272Z</time></trkpt><trkpt lat="45.5259951" lon="14.1320838"><ele>535.0</ele><time>2026-05-05T11:43:04.273Z</time></trkpt><trkpt lat="45.526076" lon="14.1318863"><ele>535.0</ele><time>2026-05-05T11:43:05.273Z</time></trkpt><trkpt lat="45.5261549" lon="14.1316958"><ele>535.0</ele><time>2026-05-05T11:43:06.272Z</time></trkpt><trkpt lat="45.5262329" lon="14.1315149"><ele>535.0</ele><time>2026-05-05T11:43:07.272Z</time></trkpt><trkpt lat="45.526316" lon="14.1313404"><ele>535.25</ele><time>2026-05-05T11:43:08.273Z</time></trkpt><trkpt lat="45.5264067" lon="14.1311838"><ele>535.5</ele><time>2026-05-05T11:43:09.272Z</time></trkpt><trkpt lat="45.5265061" lon="14.1310514"><ele>535.75</ele><time>2026-05-05T11:43:10.272Z</time></trkpt><trkpt lat="45.5266203" lon="14.1309393"><ele>536.0</ele><time>2026-05-05T11:43:11.273Z</time></trkpt><trkpt lat="45.5267472" lon="14.1308454"><ele>536.0</ele><time>2026-05-05T11:43:12.273Z</time></trkpt><trkpt lat="45.5268788" lon="14.1307538"><ele>536.0</ele><time>2026-05-05T11:43:13.272Z</time></trkpt><trkpt lat="45.5270148" lon="14.1306521"><ele>536.0</ele><time>2026-05-05T11:43:14.273Z</time></trkpt><trkpt lat="45.5271526" lon="14.1305431"><ele>535.6666666666666</ele><time>2026-05-05T11:43:15.273Z</time></trkpt><trkpt lat="45.5272934" lon="14.1304398"><ele>535.3333333333334</ele><time>2026-05-05T11:43:16.272Z</time></trkpt><trkpt lat="45.5274327" lon="14.1303346"><ele>535.0</ele><time>2026-05-05T11:43:17.272Z</time></trkpt><trkpt lat="45.5275689" lon="14.1302359"><ele>535.0</ele><time>2026-05-05T11:43:18.272Z</time></trkpt><trkpt lat="45.5276927" lon="14.1301405"><ele>535.0</ele><time>2026-05-05T11:43:19.272Z</time></trkpt><trkpt lat="45.5278047" lon="14.1300471"><ele>535.0</ele><time>2026-05-05T11:43:20.273Z</time></trkpt><trkpt lat="45.527903" lon="14.1299542"><ele>535.0</ele><time>2026-05-05T11:43:21.273Z</time></trkpt><trkpt lat="45.5279808" lon="14.1298504"><ele>535.4</ele><time>2026-05-05T11:43:22.273Z</time></trkpt><trkpt lat="45.5280365" lon="14.1297262"><ele>535.8</ele><time>2026-05-05T11:43:23.272Z</time></trkpt><trkpt lat="45.5280726" lon="14.1295803"><ele>536.2</ele><time>2026-05-05T11:43:24.273Z</time></trkpt><trkpt lat="45.5280914" lon="14.1294165"><ele>536.6</ele><time>2026-05-05T11:43:25.272Z</time></trkpt><trkpt lat="45.5280881" lon="14.1292533"><ele>537.0</ele><time>2026-05-05T11:43:26.273Z</time></trkpt><trkpt lat="45.5280746" lon="14.1290862"><ele>536.75</ele><time>2026-05-05T11:43:27.273Z</time></trkpt><trkpt lat="45.5280649" lon="14.1289167"><ele>536.5</ele><time>2026-05-05T11:43:28.273Z</time></trkpt><trkpt lat="45.5280687" lon="14.1287481"><ele>536.25</ele><time>2026-05-05T11:43:29.273Z</time></trkpt><trkpt lat="45.5280908" lon="14.1285767"><ele>536.0</ele><time>2026-05-05T11:43:30.273Z</time></trkpt><trkpt lat="45.5281412" lon="14.1284001"><ele>536.0</ele><time>2026-05-05T11:43:31.272Z</time></trkpt><trkpt lat="45.5282097" lon="14.1282327"><ele>536.0</ele><time>2026-05-05T11:43:32.273Z</time></trkpt><trkpt lat="45.5282964" lon="14.128064"><ele>536.0</ele><time>2026-05-05T11:43:33.273Z</time></trkpt><trkpt lat="45.5283849" lon="14.1278967"><ele>536.0</ele><time>2026-05-05T11:43:34.273Z</time></trkpt><trkpt lat="45.5284743" lon="14.1277235"><ele>536.0</ele><time>2026-05-05T11:43:35.273Z</time></trkpt><trkpt lat="45.5285649" lon="14.1275419"><ele>536.0</ele><time>2026-05-05T11:43:36.272Z</time></trkpt><trkpt lat="45.5286603" lon="14.1273569"><ele>536.0</ele><time>2026-05-05T11:43:37.272Z</time></trkpt><trkpt lat="45.528758" lon="14.1271687"><ele>533.6666666666666</ele><time>2026-05-05T11:43:38.272Z</time></trkpt><trkpt lat="45.5288504" lon="14.1269759"><ele>531.3333333333334</ele><time>2026-05-05T11:43:39.273Z</time></trkpt><trkpt lat="45.5289443" lon="14.1267861"><ele>529.0</ele><time>2026-05-05T11:43:40.272Z</time></trkpt><trkpt lat="45.5290323" lon="14.1266065"><ele>528.5</ele><time>2026-05-05T11:43:41.273Z</time></trkpt><trkpt lat="45.529116" lon="14.1264426"><ele>528.0</ele><time>2026-05-05T11:43:42.272Z</time></trkpt><trkpt lat="45.5292047" lon="14.1262977"><ele>527.5</ele><time>2026-05-05T11:43:43.272Z</time></trkpt><trkpt lat="45.5293065" lon="14.1261767"><ele>527.0</ele><time>2026-05-05T11:43:44.273Z</time></trkpt><trkpt lat="45.5294225" lon="14.1260861"><ele>527.0</ele><time>2026-05-05T11:43:45.273Z</time></trkpt><trkpt lat="45.5295577" lon="14.1260372"><ele>527.0</ele><time>2026-05-05T11:43:46.273Z</time></trkpt><trkpt lat="45.5296975" lon="14.1260176"><ele>527.0</ele><time>2026-05-05T11:43:47.272Z</time></trkpt><trkpt lat="45.5298424" lon="14.1260165"><ele>527.0</ele><time>2026-05-05T11:43:48.273Z</time></trkpt><trkpt lat="45.5299885" lon="14.125999"><ele>527.5</ele><time>2026-05-05T11:43:49.272Z</time></trkpt><trkpt lat="45.5301288" lon="14.1259612"><ele>528.0</ele><time>2026-05-05T11:43:50.272Z</time></trkpt><trkpt lat="45.5302609" lon="14.1258945"><ele>528.5</ele><time>2026-05-05T11:43:51.273Z</time></trkpt><trkpt lat="45.5303872" lon="14.1258013"><ele>529.0</ele><time>2026-05-05T11:43:52.273Z</time></trkpt><trkpt lat="45.5305059" lon="14.1256809"><ele>531.0</ele><time>2026-05-05T11:43:53.273Z</time></trkpt><trkpt lat="45.5306136" lon="14.1255305"><ele>533.0</ele><time>2026-05-05T11:43:54.273Z</time></trkpt><trkpt lat="45.5307084" lon="14.1253771"><ele>535.0</ele><time>2026-05-05T11:43:55.273Z</time></trkpt><trkpt lat="45.5308069" lon="14.1252181"><ele>537.0</ele><time>2026-05-05T11:43:56.272Z</time></trkpt><trkpt lat="45.5309058" lon="14.1250541"><ele>538.0</ele><time>2026-05-05T11:43:57.273Z</time></trkpt><trkpt lat="45.5310112" lon="14.1248944"><ele>539.0</ele><time>2026-05-05T11:43:58.273Z</time></trkpt><trkpt lat="45.5311179" lon="14.1247415"><ele>540.0</ele><time>2026-05-05T11:43:59.273Z</time></trkpt><trkpt lat="45.5312325" lon="14.1246026"><ele>540.0</ele><time>2026-05-05T11:44:00.273Z</time></trkpt><trkpt lat="45.5313613" lon="14.1244913"><ele>540.0</ele><time>2026-05-05T11:44:01.273Z</time></trkpt><trkpt lat="45.5314984" lon="14.1244124"><ele>540.0</ele><time>2026-05-05T11:44:02.272Z</time></trkpt><trkpt lat="45.5316406" lon="14.1243426"><ele>540.0</ele><time>2026-05-05T11:44:03.273Z</time></trkpt><trkpt lat="45.531783" lon="14.1242687"><ele>540.0</ele><time>2026-05-05T11:44:04.272Z</time></trkpt><trkpt lat="45.5319188" lon="14.1241781"><ele>540.0</ele><time>2026-05-05T11:44:05.273Z</time></trkpt><trkpt lat="45.532047" lon="14.1240713"><ele>540.0</ele><time>2026-05-05T11:44:06.273Z</time></trkpt><trkpt lat="45.5321686" lon="14.1239426"><ele>540.3333333333334</ele><time>2026-05-05T11:44:07.272Z</time></trkpt><trkpt lat="45.5322821" lon="14.1237938"><ele>540.6666666666667</ele><time>2026-05-05T11:44:08.272Z</time></trkpt><trkpt lat="45.5323864" lon="14.1236238"><ele>541.0</ele><time>2026-05-05T11:44:09.272Z</time></trkpt><trkpt lat="45.5324804" lon="14.1234363"><ele>541.0</ele><time>2026-05-05T11:44:10.272Z</time></trkpt><trkpt lat="45.5325716" lon="14.1232394"><ele>541.0</ele><time>2026-05-05T11:44:11.273Z</time></trkpt><trkpt lat="45.5326617" lon="14.1230385"><ele>541.0</ele><time>2026-05-05T11:44:12.273Z</time></trkpt><trkpt lat="45.5327565" lon="14.1228332"><ele>541.3333333333334</ele><time>2026-05-05T11:44:13.273Z</time></trkpt><trkpt lat="45.5328506" lon="14.1226231"><ele>541.6666666666666</ele><time>2026-05-05T11:44:14.272Z</time></trkpt><trkpt lat="45.5329427" lon="14.1224137"><ele>542.0</ele><time>2026-05-05T11:44:15.273Z</time></trkpt><trkpt lat="45.5330334" lon="14.1222054"><ele>543.0</ele><time>2026-05-05T11:44:16.272Z</time></trkpt><trkpt lat="45.5331243" lon="14.1219998"><ele>544.0</ele><time>2026-05-05T11:44:17.273Z</time></trkpt><trkpt lat="45.5332113" lon="14.1218008"><ele>545.0</ele><time>2026-05-05T11:44:18.273Z</time></trkpt><trkpt lat="45.5332945" lon="14.1216105"><ele>545.0</ele><time>2026-05-05T11:44:19.273Z</time></trkpt><trkpt lat="45.5333751" lon="14.1214256"><ele>545.0</ele><time>2026-05-05T11:44:20.273Z</time></trkpt><trkpt lat="45.5334552" lon="14.1212483"><ele>545.0</ele><time>2026-05-05T11:44:21.273Z</time></trkpt><trkpt lat="45.5335334" lon="14.1210735"><ele>545.0</ele><time>2026-05-05T11:44:22.272Z</time></trkpt><trkpt lat="45.5336131" lon="14.1208998"><ele>544.3333333333333</ele><time>2026-05-05T11:44:23.272Z</time></trkpt><trkpt lat="45.533692" lon="14.1207213"><ele>543.6666666666666</ele><time>2026-05-05T11:44:24.273Z</time></trkpt><trkpt lat="45.5337718" lon="14.1205389"><ele>543.0</ele><time>2026-05-05T11:44:25.273Z</time></trkpt><trkpt lat="45.5338538" lon="14.1203547"><ele>543.0</ele><time>2026-05-05T11:44:26.273Z</time></trkpt><trkpt lat="45.5339347" lon="14.1201659"><ele>543.0</ele><time>2026-05-05T11:44:27.273Z</time></trkpt><trkpt lat="45.5340157" lon="14.1199716"><ele>543.0</ele><time>2026-05-05T11:44:28.272Z</time></trkpt><trkpt lat="45.5341019" lon="14.1197753"><ele>543.6666666666666</ele><time>2026-05-05T11:44:29.272Z</time></trkpt><trkpt lat="45.5341902" lon="14.1195737"><ele>544.3333333333333</ele><time>2026-05-05T11:44:30.273Z</time></trkpt><trkpt lat="45.5342808" lon="14.1193662"><ele>545.0</ele><time>2026-05-05T11:44:31.273Z</time></trkpt><trkpt lat="45.5343755" lon="14.1191536"><ele>545.3333333333333</ele><time>2026-05-05T11:44:32.272Z</time></trkpt><trkpt lat="45.5344734" lon="14.1189399"><ele>545.6666666666666</ele><time>2026-05-05T11:44:33.273Z</time></trkpt><trkpt lat="45.5345684" lon="14.1187242"><ele>546.0</ele><time>2026-05-05T11:44:34.273Z</time></trkpt><trkpt lat="45.5346626" lon="14.118509"><ele>546.3333333333334</ele><time>2026-05-05T11:44:35.272Z</time></trkpt><trkpt lat="45.5347524" lon="14.1182919"><ele>546.6666666666667</ele><time>2026-05-05T11:44:36.272Z</time></trkpt><trkpt lat="45.5348367" lon="14.11807"><ele>547.0</ele><time>2026-05-05T11:44:37.273Z</time></trkpt><trkpt lat="45.5349148" lon="14.1178487"><ele>547.0</ele><time>2026-05-05T11:44:38.273Z</time></trkpt><trkpt lat="45.5349889" lon="14.1176256"><ele>547.0</ele><time>2026-05-05T11:44:39.272Z</time></trkpt><trkpt lat="45.5350607" lon="14.1173983"><ele>547.0</ele><time>2026-05-05T11:44:40.272Z</time></trkpt><trkpt lat="45.5351302" lon="14.1171697"><ele>546.0</ele><time>2026-05-05T11:44:41.273Z</time></trkpt><trkpt lat="45.5352008" lon="14.1169489"><ele>545.0</ele><time>2026-05-05T11:44:42.273Z</time></trkpt><trkpt lat="45.5352727" lon="14.1167404"><ele>544.0</ele><time>2026-05-05T11:44:43.272Z</time></trkpt><trkpt lat="45.5353443" lon="14.1165451"><ele>544.25</ele><time>2026-05-05T11:44:44.273Z</time></trkpt><trkpt lat="45.5354195" lon="14.116365"><ele>544.5</ele><time>2026-05-05T11:44:45.273Z</time></trkpt><trkpt lat="45.5355063" lon="14.1161983"><ele>544.75</ele><time>2026-05-05T11:44:46.272Z</time></trkpt><trkpt lat="45.535608" lon="14.1160421"><ele>545.0</ele><time>2026-05-05T11:44:47.273Z</time></trkpt><trkpt lat="45.5357255" lon="14.1159044"><ele>545.0</ele><time>2026-05-05T11:44:48.272Z</time></trkpt><trkpt lat="45.5358568" lon="14.1157714"><ele>545.0</ele><time>2026-05-05T11:44:49.273Z</time></trkpt><trkpt lat="45.5359959" lon="14.1156442"><ele>545.0</ele><time>2026-05-05T11:44:50.272Z</time></trkpt><trkpt lat="45.5361453" lon="14.1155235"><ele>546.3333333333333</ele><time>2026-05-05T11:44:51.273Z</time></trkpt><trkpt lat="45.5363034" lon="14.1153916"><ele>547.6666666666666</ele><time>2026-05-05T11:44:52.273Z</time></trkpt><trkpt lat="45.5364689" lon="14.1152496"><ele>549.0</ele><time>2026-05-05T11:44:53.273Z</time></trkpt><trkpt lat="45.5366332" lon="14.1151134"><ele>549.0</ele><time>2026-05-05T11:44:54.272Z</time></trkpt><trkpt lat="45.536803" lon="14.1149706"><ele>549.0</ele><time>2026-05-05T11:44:55.273Z</time></trkpt><trkpt lat="45.5369797" lon="14.1148244"><ele>549.0</ele><time>2026-05-05T11:44:56.273Z</time></trkpt><trkpt lat="45.5371572" lon="14.1146757"><ele>551.3333333333334</ele><time>2026-05-05T11:44:57.272Z</time></trkpt><trkpt lat="45.537338" lon="14.1145229"><ele>553.6666666666667</ele><time>2026-05-05T11:44:58.273Z</time></trkpt><trkpt lat="45.5375205" lon="14.1143664"><ele>556.0</ele><time>2026-05-05T11:44:59.273Z</time></trkpt><trkpt lat="45.5376981" lon="14.1142177"><ele>556.0</ele><time>2026-05-05T11:45:00.273Z</time></trkpt><trkpt lat="45.5378711" lon="14.1140737"><ele>556.0</ele><time>2026-05-05T11:45:01.273Z</time></trkpt><trkpt lat="45.5380333" lon="14.1139388"><ele>556.0</ele><time>2026-05-05T11:45:02.273Z</time></trkpt><trkpt lat="45.5381749" lon="14.1138138"><ele>559.6666666666667</ele><time>2026-05-05T11:45:03.272Z</time></trkpt><trkpt lat="45.5383128" lon="14.1136861"><ele>563.3333333333334</ele><time>2026-05-05T11:45:04.272Z</time></trkpt><trkpt lat="45.5384352" lon="14.1135457"><ele>567.0</ele><time>2026-05-05T11:45:05.273Z</time></trkpt><trkpt lat="45.5385489" lon="14.1133889"><ele>564.3333333333334</ele><time>2026-05-05T11:45:06.272Z</time></trkpt><trkpt lat="45.5386507" lon="14.1132128"><ele>561.6666666666667</ele><time>2026-05-05T11:45:07.273Z</time></trkpt><trkpt lat="45.5387404" lon="14.1130141"><ele>559.0</ele><time>2026-05-05T11:45:08.273Z</time></trkpt><trkpt lat="45.5388182" lon="14.112799"><ele>559.0</ele><time>2026-05-05T11:45:09.273Z</time></trkpt><trkpt lat="45.5388857" lon="14.1125713"><ele>559.0</ele><time>2026-05-05T11:45:10.273Z</time></trkpt><trkpt lat="45.5389501" lon="14.1123363"><ele>559.0</ele><time>2026-05-05T11:45:11.272Z</time></trkpt><trkpt lat="45.5390169" lon="14.1120983"><ele>562.6666666666667</ele><time>2026-05-05T11:45:12.273Z</time></trkpt><trkpt lat="45.5390803" lon="14.1118579"><ele>566.3333333333334</ele><time>2026-05-05T11:45:13.273Z</time></trkpt><trkpt lat="45.5391267" lon="14.1116115"><ele>570.0</ele><time>2026-05-05T11:45:14.273Z</time></trkpt><trkpt lat="45.5391553" lon="14.1113523"><ele>570.6666666666666</ele><time>2026-05-05T11:45:15.272Z</time></trkpt><trkpt lat="45.5391688" lon="14.1110854"><ele>571.3333333333333</ele><time>2026-05-05T11:45:16.273Z</time></trkpt><trkpt lat="45.5391715" lon="14.1108094"><ele>572.0</ele><time>2026-05-05T11:45:17.272Z</time></trkpt><trkpt lat="45.5391712" lon="14.1105328"><ele>570.3333333333333</ele><time>2026-05-05T11:45:18.273Z</time></trkpt><trkpt lat="45.5391701" lon="14.1102573"><ele>568.6666666666666</ele><time>2026-05-05T11:45:19.272Z</time></trkpt><trkpt lat="45.5391706" lon="14.1099923"><ele>567.0</ele><time>2026-05-05T11:45:20.273Z</time></trkpt><trkpt lat="45.539166" lon="14.1097478"><ele>566.3333333333334</ele><time>2026-05-05T11:45:21.273Z</time></trkpt><trkpt lat="45.5391528" lon="14.1095149"><ele>565.6666666666667</ele><time>2026-05-05T11:45:22.272Z</time></trkpt><trkpt lat="45.5391289" lon="14.1092883"><ele>565.0</ele><time>2026-05-05T11:45:23.272Z</time></trkpt><trkpt lat="45.539091" lon="14.1090684"><ele>564.75</ele><time>2026-05-05T11:45:24.272Z</time></trkpt><trkpt lat="45.5390516" lon="14.1088661"><ele>564.5</ele><time>2026-05-05T11:45:25.273Z</time></trkpt><trkpt lat="45.5390191" lon="14.1086777"><ele>564.25</ele><time>2026-05-05T11:45:26.273Z</time></trkpt><trkpt lat="45.5389945" lon="14.1084857"><ele>564.0</ele><time>2026-05-05T11:45:27.273Z</time></trkpt><trkpt lat="45.5389895" lon="14.1082833"><ele>564.3333333333334</ele><time>2026-05-05T11:45:28.273Z</time></trkpt><trkpt lat="45.5389943" lon="14.1080642"><ele>564.6666666666667</ele><time>2026-05-05T11:45:29.273Z</time></trkpt><trkpt lat="45.5390083" lon="14.1078381"><ele>565.0</ele><time>2026-05-05T11:45:30.273Z</time></trkpt><trkpt lat="45.539033" lon="14.1076123"><ele>566.0</ele><time>2026-05-05T11:45:31.273Z</time></trkpt><trkpt lat="45.5390581" lon="14.1073866"><ele>567.0</ele><time>2026-05-05T11:45:32.272Z</time></trkpt><trkpt lat="45.5390926" lon="14.1071638"><ele>568.0</ele><time>2026-05-05T11:45:33.272Z</time></trkpt><trkpt lat="45.5391365" lon="14.1069547"><ele>568.0</ele><time>2026-05-05T11:45:34.272Z</time></trkpt><trkpt lat="45.5391977" lon="14.1067545"><ele>568.0</ele><time>2026-05-05T11:45:35.272Z</time></trkpt><trkpt lat="45.5392771" lon="14.1065578"><ele>568.0</ele><time>2026-05-05T11:45:36.273Z</time></trkpt><trkpt lat="45.5393708" lon="14.1063664"><ele>566.6666666666667</ele><time>2026-05-05T11:45:37.272Z</time></trkpt><trkpt lat="45.5394754" lon="14.1061828"><ele>565.3333333333334</ele><time>2026-05-05T11:45:38.273Z</time></trkpt><trkpt lat="45.5395793" lon="14.1060034"><ele>564.0</ele><time>2026-05-05T11:45:39.272Z</time></trkpt><trkpt lat="45.5396852" lon="14.1058277"><ele>566.6666666666666</ele><time>2026-05-05T11:45:40.273Z</time></trkpt><trkpt lat="45.5397788" lon="14.1056468"><ele>569.3333333333333</ele><time>2026-05-05T11:45:41.273Z</time></trkpt><trkpt lat="45.5398599" lon="14.1054575"><ele>572.0</ele><time>2026-05-05T11:45:42.273Z</time></trkpt><trkpt lat="45.5399297" lon="14.1052586"><ele>572.0</ele><time>2026-05-05T11:45:43.273Z</time></trkpt><trkpt lat="45.5399858" lon="14.1050553"><ele>572.0</ele><time>2026-05-05T11:45:44.273Z</time></trkpt><trkpt lat="45.5400252" lon="14.1048472"><ele>572.0</ele><time>2026-05-05T11:45:45.272Z</time></trkpt><trkpt lat="45.5400452" lon="14.1046441"><ele>572.0</ele><time>2026-05-05T11:45:46.272Z</time></trkpt><trkpt lat="45.5400486" lon="14.104446"><ele>571.6666666666666</ele><time>2026-05-05T11:45:47.272Z</time></trkpt><trkpt lat="45.5400312" lon="14.1042376"><ele>571.3333333333334</ele><time>2026-05-05T11:45:48.273Z</time></trkpt><trkpt lat="45.5399998" lon="14.1040261"><ele>571.0</ele><time>2026-05-05T11:45:49.273Z</time></trkpt><trkpt lat="45.5399511" lon="14.1038066"><ele>572.0</ele><time>2026-05-05T11:45:50.272Z</time></trkpt><trkpt lat="45.5398886" lon="14.1035781"><ele>573.0</ele><time>2026-05-05T11:45:51.273Z</time></trkpt><trkpt lat="45.5398127" lon="14.1033427"><ele>574.0</ele><time>2026-05-05T11:45:52.273Z</time></trkpt><trkpt lat="45.5397377" lon="14.1031138"><ele>574.0</ele><time>2026-05-05T11:45:53.272Z</time></trkpt><trkpt lat="45.5396573" lon="14.1028807"><ele>574.0</ele><time>2026-05-05T11:45:54.273Z</time></trkpt><trkpt lat="45.5395766" lon="14.1026396"><ele>574.0</ele><time>2026-05-05T11:45:55.273Z</time></trkpt><trkpt lat="45.5394967" lon="14.1023928"><ele>577.6666666666667</ele><time>2026-05-05T11:45:56.273Z</time></trkpt><trkpt lat="45.5394185" lon="14.1021592"><ele>581.3333333333334</ele><time>2026-05-05T11:45:57.273Z</time></trkpt><trkpt lat="45.5393471" lon="14.1019367"><ele>585.0</ele><time>2026-05-05T11:45:58.273Z</time></trkpt><trkpt lat="45.5392861" lon="14.1017201"><ele>583.3333333333334</ele><time>2026-05-05T11:45:59.272Z</time></trkpt><trkpt lat="45.5392408" lon="14.1015017"><ele>581.6666666666667</ele><time>2026-05-05T11:46:00.272Z</time></trkpt><trkpt lat="45.53921" lon="14.1012808"><ele>580.0</ele><time>2026-05-05T11:46:01.272Z</time></trkpt><trkpt lat="45.5391972" lon="14.101038"><ele>580.0</ele><time>2026-05-05T11:46:02.272Z</time></trkpt><trkpt lat="45.5391952" lon="14.1007897"><ele>580.0</ele><time>2026-05-05T11:46:03.273Z</time></trkpt><trkpt lat="45.5391973" lon="14.1005524"><ele>580.0</ele><time>2026-05-05T11:46:04.273Z</time></trkpt><trkpt lat="45.5392001" lon="14.1003331"><ele>579.25</ele><time>2026-05-05T11:46:05.273Z</time></trkpt><trkpt lat="45.5391997" lon="14.1001325"><ele>578.5</ele><time>2026-05-05T11:46:06.273Z</time></trkpt><trkpt lat="45.5391994" lon="14.0999439"><ele>577.75</ele><time>2026-05-05T11:46:07.273Z</time></trkpt><trkpt lat="45.5392022" lon="14.0997658"><ele>577.0</ele><time>2026-05-05T11:46:08.272Z</time></trkpt><trkpt lat="45.5392008" lon="14.0995922"><ele>576.75</ele><time>2026-05-05T11:46:09.273Z</time></trkpt><trkpt lat="45.5392" lon="14.0994223"><ele>576.5</ele><time>2026-05-05T11:46:10.273Z</time></trkpt><trkpt lat="45.5392007" lon="14.0992576"><ele>576.25</ele><time>2026-05-05T11:46:11.272Z</time></trkpt><trkpt lat="45.5392023" lon="14.0990904"><ele>576.0</ele><time>2026-05-05T11:46:12.273Z</time></trkpt><trkpt lat="45.5392017" lon="14.0989256"><ele>575.75</ele><time>2026-05-05T11:46:13.273Z</time></trkpt><trkpt lat="45.5392066" lon="14.0987564"><ele>575.5</ele><time>2026-05-05T11:46:14.272Z</time></trkpt><trkpt lat="45.5392115" lon="14.0985932"><ele>575.25</ele><time>2026-05-05T11:46:15.272Z</time></trkpt><trkpt lat="45.539213" lon="14.0984329"><ele>575.0</ele><time>2026-05-05T11:46:16.273Z</time></trkpt><trkpt lat="45.5392144" lon="14.0982696"><ele>574.5</ele><time>2026-05-05T11:46:17.273Z</time></trkpt><trkpt lat="45.5392149" lon="14.0981036"><ele>574.0</ele><time>2026-05-05T11:46:18.273Z</time></trkpt><trkpt lat="45.5392155" lon="14.0979293"><ele>573.5</ele><time>2026-05-05T11:46:19.273Z</time></trkpt><trkpt lat="45.5392188" lon="14.0977505"><ele>573.0</ele><time>2026-05-05T11:46:20.272Z</time></trkpt><trkpt lat="45.5392195" lon="14.0975534"><ele>572.0</ele><time>2026-05-05T11:46:21.273Z</time></trkpt><trkpt lat="45.5392204" lon="14.0973444"><ele>571.0</ele><time>2026-05-05T11:46:22.273Z</time></trkpt><trkpt lat="45.5392222" lon="14.0971347"><ele>570.0</ele><time>2026-05-05T11:46:23.273Z</time></trkpt><trkpt lat="45.5392233" lon="14.0969169"><ele>569.0</ele><time>2026-05-05T11:46:24.272Z</time></trkpt><trkpt lat="45.5392238" lon="14.0966863"><ele>568.6666666666666</ele><time>2026-05-05T11:46:25.273Z</time></trkpt><trkpt lat="45.5392223" lon="14.09645"><ele>568.3333333333334</ele><time>2026-05-05T11:46:26.273Z</time></trkpt><trkpt lat="45.5392242" lon="14.0962179"><ele>568.0</ele><time>2026-05-05T11:46:27.273Z</time></trkpt><trkpt lat="45.5392241" lon="14.0959835"><ele>568.3333333333334</ele><time>2026-05-05T11:46:28.273Z</time></trkpt><trkpt lat="45.5392264" lon="14.0957494"><ele>568.6666666666666</ele><time>2026-05-05T11:46:29.273Z</time></trkpt><trkpt lat="45.5392285" lon="14.0955228"><ele>569.0</ele><time>2026-05-05T11:46:30.273Z</time></trkpt><trkpt lat="45.5392325" lon="14.0952988"><ele>569.0</ele><time>2026-05-05T11:46:31.272Z</time></trkpt><trkpt lat="45.5392471" lon="14.0950815"><ele>569.0</ele><time>2026-05-05T11:46:32.273Z</time></trkpt><trkpt lat="45.5392742" lon="14.0948662"><ele>569.0</ele><time>2026-05-05T11:46:33.272Z</time></trkpt><trkpt lat="45.5393181" lon="14.094652"><ele>569.3333333333333</ele><time>2026-05-05T11:46:34.272Z</time></trkpt><trkpt lat="45.5393808" lon="14.0944431"><ele>569.6666666666666</ele><time>2026-05-05T11:46:35.272Z</time></trkpt><trkpt lat="45.5394624" lon="14.0942299"><ele>570.0</ele><time>2026-05-05T11:46:36.273Z</time></trkpt><trkpt lat="45.5395624" lon="14.0940158"><ele>570.3333333333334</ele><time>2026-05-05T11:46:37.273Z</time></trkpt><trkpt lat="45.5396639" lon="14.0938003"><ele>570.6666666666667</ele><time>2026-05-05T11:46:38.273Z</time></trkpt><trkpt lat="45.5397679" lon="14.0935876"><ele>571.0</ele><time>2026-05-05T11:46:39.273Z</time></trkpt><trkpt lat="45.5398734" lon="14.093367"><ele>571.0</ele><time>2026-05-05T11:46:40.272Z</time></trkpt><trkpt lat="45.5399831" lon="14.0931419"><ele>571.0</ele><time>2026-05-05T11:46:41.273Z</time></trkpt><trkpt lat="45.5400912" lon="14.0929152"><ele>571.0</ele><time>2026-05-05T11:46:42.272Z</time></trkpt><trkpt lat="45.5401998" lon="14.0926905"><ele>571.0</ele><time>2026-05-05T11:46:43.273Z</time></trkpt><trkpt lat="45.540309" lon="14.0924655"><ele>571.0</ele><time>2026-05-05T11:46:44.272Z</time></trkpt><trkpt lat="45.5404177" lon="14.0922431"><ele>571.0</ele><time>2026-05-05T11:46:45.273Z</time></trkpt><trkpt lat="45.5405328" lon="14.0920257"><ele>570.3333333333334</ele><time>2026-05-05T11:46:46.273Z</time></trkpt><trkpt lat="45.5406548" lon="14.0918148"><ele>569.6666666666666</ele><time>2026-05-05T11:46:47.273Z</time></trkpt><trkpt lat="45.5407868" lon="14.0916111"><ele>569.0</ele><time>2026-05-05T11:46:48.273Z</time></trkpt><trkpt lat="45.5409226" lon="14.0914131"><ele>569.3333333333333</ele><time>2026-05-05T11:46:49.273Z</time></trkpt><trkpt lat="45.5410647" lon="14.0912153"><ele>569.6666666666666</ele><time>2026-05-05T11:46:50.273Z</time></trkpt><trkpt lat="45.5412014" lon="14.0910253"><ele>570.0</ele><time>2026-05-05T11:46:51.273Z</time></trkpt><trkpt lat="45.5413336" lon="14.090841"><ele>570.3333333333334</ele><time>2026-05-05T11:46:52.273Z</time></trkpt><trkpt lat="45.5414632" lon="14.0906622"><ele>570.6666666666667</ele><time>2026-05-05T11:46:53.273Z</time></trkpt><trkpt lat="45.5415832" lon="14.0904962"><ele>571.0</ele><time>2026-05-05T11:46:54.273Z</time></trkpt><trkpt lat="45.5416973" lon="14.0903368"><ele>571.0</ele><time>2026-05-05T11:46:55.272Z</time></trkpt><trkpt lat="45.5418046" lon="14.0901822"><ele>571.0</ele><time>2026-05-05T11:46:56.273Z</time></trkpt><trkpt lat="45.5419055" lon="14.0900306"><ele>571.0</ele><time>2026-05-05T11:46:57.273Z</time></trkpt><trkpt lat="45.5419962" lon="14.089862"><ele>571.0</ele><time>2026-05-05T11:46:58.273Z</time></trkpt><trkpt lat="45.5420774" lon="14.0896823"><ele>571.6666666666667</ele><time>2026-05-05T11:46:59.273Z</time></trkpt><trkpt lat="45.542144" lon="14.0894921"><ele>572.3333333333334</ele><time>2026-05-05T11:47:00.273Z</time></trkpt><trkpt lat="45.5421922" lon="14.0892875"><ele>573.0</ele><time>2026-05-05T11:47:01.273Z</time></trkpt><trkpt lat="45.5422286" lon="14.0890688"><ele>574.3333333333334</ele><time>2026-05-05T11:47:02.273Z</time></trkpt><trkpt lat="45.5422494" lon="14.0888441"><ele>575.6666666666667</ele><time>2026-05-05T11:47:03.273Z</time></trkpt><trkpt lat="45.5422622" lon="14.088607"><ele>577.0</ele><time>2026-05-05T11:47:04.272Z</time></trkpt><trkpt lat="45.5422834" lon="14.0883753"><ele>577.75</ele><time>2026-05-05T11:47:05.272Z</time></trkpt><trkpt lat="45.5422943" lon="14.0881506"><ele>578.5</ele><time>2026-05-05T11:47:06.273Z</time></trkpt><trkpt lat="45.5423065" lon="14.0879408"><ele>579.25</ele><time>2026-05-05T11:47:07.273Z</time></trkpt><trkpt lat="45.5423188" lon="14.0877455"><ele>580.0</ele><time>2026-05-05T11:47:08.272Z</time></trkpt><trkpt lat="45.542334" lon="14.0875684"><ele>580.0</ele><time>2026-05-05T11:47:09.272Z</time></trkpt><trkpt lat="45.5423511" lon="14.0874057"><ele>580.0</ele><time>2026-05-05T11:47:10.273Z</time></trkpt><trkpt lat="45.5423692" lon="14.0872558"><ele>580.0</ele><time>2026-05-05T11:47:11.272Z</time></trkpt><trkpt lat="45.5423964" lon="14.0871175"><ele>580.0</ele><time>2026-05-05T11:47:12.272Z</time></trkpt><trkpt lat="45.5424379" lon="14.0869855"><ele>580.0</ele><time>2026-05-05T11:47:13.272Z</time></trkpt><trkpt lat="45.5424821" lon="14.0868512"><ele>580.0</ele><time>2026-05-05T11:47:14.272Z</time></trkpt><trkpt lat="45.5425248" lon="14.0867077"><ele>580.0</ele><time>2026-05-05T11:47:15.272Z</time></trkpt><trkpt lat="45.5425627" lon="14.086555"><ele>580.0</ele><time>2026-05-05T11:47:16.273Z</time></trkpt><trkpt lat="45.5425999" lon="14.0863833"><ele>580.0</ele><time>2026-05-05T11:47:17.272Z</time></trkpt><trkpt lat="45.5426341" lon="14.0861963"><ele>577.5</ele><time>2026-05-05T11:47:18.273Z</time></trkpt><trkpt lat="45.5426655" lon="14.0860092"><ele>575.0</ele><time>2026-05-05T11:47:19.273Z</time></trkpt><trkpt lat="45.5426901" lon="14.0858156"><ele>572.5</ele><time>2026-05-05T11:47:20.272Z</time></trkpt><trkpt lat="45.5427106" lon="14.0856193"><ele>570.0</ele><time>2026-05-05T11:47:21.273Z</time></trkpt><trkpt lat="45.5427281" lon="14.0854219"><ele>569.5</ele><time>2026-05-05T11:47:22.273Z</time></trkpt><trkpt lat="45.5427398" lon="14.0852216"><ele>569.0</ele><time>2026-05-05T11:47:23.273Z</time></trkpt><trkpt lat="45.5427433" lon="14.0850251"><ele>568.5</ele><time>2026-05-05T11:47:24.272Z</time></trkpt><trkpt lat="45.5427372" lon="14.0848324"><ele>568.0</ele><time>2026-05-05T11:47:25.273Z</time></trkpt><trkpt lat="45.5427224" lon="14.0846469"><ele>568.0</ele><time>2026-05-05T11:47:26.273Z</time></trkpt><trkpt lat="45.542704" lon="14.0844675"><ele>568.0</ele><time>2026-05-05T11:47:27.273Z</time></trkpt><trkpt lat="45.5426867" lon="14.08429"><ele>568.0</ele><time>2026-05-05T11:47:28.272Z</time></trkpt><trkpt lat="45.5426698" lon="14.0841161"><ele>568.0</ele><time>2026-05-05T11:47:29.272Z</time></trkpt><trkpt lat="45.5426532" lon="14.0839446"><ele>568.75</ele><time>2026-05-05T11:47:30.273Z</time></trkpt><trkpt lat="45.5426393" lon="14.0837752"><ele>569.5</ele><time>2026-05-05T11:47:31.273Z</time></trkpt><trkpt lat="45.5426277" lon="14.083604"><ele>570.25</ele><time>2026-05-05T11:47:32.273Z</time></trkpt><trkpt lat="45.5426229" lon="14.0834277"><ele>571.0</ele><time>2026-05-05T11:47:33.272Z</time></trkpt><trkpt lat="45.5426271" lon="14.0832542"><ele>571.25</ele><time>2026-05-05T11:47:34.273Z</time></trkpt><trkpt lat="45.5426401" lon="14.0830795"><ele>571.5</ele><time>2026-05-05T11:47:35.272Z</time></trkpt><trkpt lat="45.5426603" lon="14.0829038"><ele>571.75</ele><time>2026-05-05T11:47:36.272Z</time></trkpt><trkpt lat="45.5426879" lon="14.0827278"><ele>572.0</ele><time>2026-05-05T11:47:37.272Z</time></trkpt><trkpt lat="45.5427238" lon="14.0825492"><ele>571.75</ele><time>2026-05-05T11:47:38.272Z</time></trkpt><trkpt lat="45.5427606" lon="14.0823631"><ele>571.5</ele><time>2026-05-05T11:47:39.272Z</time></trkpt><trkpt lat="45.5428078" lon="14.0821706"><ele>571.25</ele><time>2026-05-05T11:47:40.273Z</time></trkpt><trkpt lat="45.542867" lon="14.0819797"><ele>571.0</ele><time>2026-05-05T11:47:41.273Z</time></trkpt><trkpt lat="45.5429377" lon="14.0817954"><ele>572.6666666666667</ele><time>2026-05-05T11:47:42.273Z</time></trkpt><trkpt lat="45.5430152" lon="14.0816096"><ele>574.3333333333334</ele><time>2026-05-05T11:47:43.272Z</time></trkpt><trkpt lat="45.5431026" lon="14.0814148"><ele>576.0</ele><time>2026-05-05T11:47:44.273Z</time></trkpt><trkpt lat="45.5432002" lon="14.0812098"><ele>576.0</ele><time>2026-05-05T11:47:45.273Z</time></trkpt><trkpt lat="45.5432998" lon="14.0809825"><ele>576.0</ele><time>2026-05-05T11:47:46.272Z</time></trkpt><trkpt lat="45.543402" lon="14.0807511"><ele>576.0</ele><time>2026-05-05T11:47:47.272Z</time></trkpt><trkpt lat="45.5435109" lon="14.0805065"><ele>575.3333333333334</ele><time>2026-05-05T11:47:48.273Z</time></trkpt><trkpt lat="45.543623" lon="14.0802581"><ele>574.6666666666667</ele><time>2026-05-05T11:47:49.272Z</time></trkpt><trkpt lat="45.5437353" lon="14.0800079"><ele>574.0</ele><time>2026-05-05T11:47:50.273Z</time></trkpt><trkpt lat="45.54385" lon="14.0797543"><ele>575.0</ele><time>2026-05-05T11:47:51.272Z</time></trkpt><trkpt lat="45.5439677" lon="14.079496"><ele>576.0</ele><time>2026-05-05T11:47:52.273Z</time></trkpt><trkpt lat="45.5440823" lon="14.0792372"><ele>577.0</ele><time>2026-05-05T11:47:53.273Z</time></trkpt><trkpt lat="45.544199" lon="14.0789807"><ele>577.0</ele><time>2026-05-05T11:47:54.272Z</time></trkpt><trkpt lat="45.5443132" lon="14.0787254"><ele>577.0</ele><time>2026-05-05T11:47:55.273Z</time></trkpt><trkpt lat="45.5444284" lon="14.0784697"><ele>577.0</ele><time>2026-05-05T11:47:56.273Z</time></trkpt><trkpt lat="45.544544" lon="14.0782188"><ele>579.3333333333334</ele><time>2026-05-05T11:47:57.272Z</time></trkpt><trkpt lat="45.5446542" lon="14.0779742"><ele>581.6666666666666</ele><time>2026-05-05T11:47:58.273Z</time></trkpt><trkpt lat="45.5447606" lon="14.0777433"><ele>584.0</ele><time>2026-05-05T11:47:59.273Z</time></trkpt><trkpt lat="45.5448602" lon="14.0775262"><ele>581.3333333333333</ele><time>2026-05-05T11:48:00.272Z</time></trkpt><trkpt lat="45.5449536" lon="14.0773222"><ele>578.6666666666666</ele><time>2026-05-05T11:48:01.273Z</time></trkpt><trkpt lat="45.5450495" lon="14.0771336"><ele>576.0</ele><time>2026-05-05T11:48:02.272Z</time></trkpt><trkpt lat="45.5451551" lon="14.0769528"><ele>576.0</ele><time>2026-05-05T11:48:03.273Z</time></trkpt><trkpt lat="45.5452762" lon="14.0767823"><ele>576.0</ele><time>2026-05-05T11:48:04.273Z</time></trkpt><trkpt lat="45.5454129" lon="14.0766194"><ele>576.0</ele><time>2026-05-05T11:48:05.273Z</time></trkpt><trkpt lat="45.5455558" lon="14.0764675"><ele>576.0</ele><time>2026-05-05T11:48:06.272Z</time></trkpt><trkpt lat="45.5456964" lon="14.0763165"><ele>576.0</ele><time>2026-05-05T11:48:07.273Z</time></trkpt><trkpt lat="45.545837" lon="14.0761768"><ele>576.0</ele><time>2026-05-05T11:48:08.273Z</time></trkpt><trkpt lat="45.5459739" lon="14.0760354"><ele>576.0</ele><time>2026-05-05T11:48:09.272Z</time></trkpt><trkpt lat="45.5461113" lon="14.0758925"><ele>576.0</ele><time>2026-05-05T11:48:10.273Z</time></trkpt><trkpt lat="45.5462437" lon="14.0757428"><ele>576.0</ele><time>2026-05-05T11:48:11.273Z</time></trkpt><trkpt lat="45.5463639" lon="14.0755943"><ele>576.0</ele><time>2026-05-05T11:48:12.273Z</time></trkpt><trkpt lat="45.5464709" lon="14.0754208"><ele>576.0</ele><time>2026-05-05T11:48:13.273Z</time></trkpt><trkpt lat="45.5465699" lon="14.0752162"><ele>576.0</ele><time>2026-05-05T11:48:14.273Z</time></trkpt><trkpt lat="45.5466592" lon="14.074979"><ele>574.0</ele><time>2026-05-05T11:48:15.272Z</time></trkpt><trkpt lat="45.5467402" lon="14.0747211"><ele>572.0</ele><time>2026-05-05T11:48:16.273Z</time></trkpt><trkpt lat="45.5468168" lon="14.0744554"><ele>570.0</ele><time>2026-05-05T11:48:17.272Z</time></trkpt><trkpt lat="45.5468941" lon="14.0741742"><ele>568.0</ele><time>2026-05-05T11:48:18.272Z</time></trkpt><trkpt lat="45.5469756" lon="14.0738847"><ele>566.0</ele><time>2026-05-05T11:48:19.272Z</time></trkpt><trkpt lat="45.5470584" lon="14.0735889"><ele>564.0</ele><time>2026-05-05T11:48:20.273Z</time></trkpt><trkpt lat="45.5471383" lon="14.0732996"><ele>567.0</ele><time>2026-05-05T11:48:21.273Z</time></trkpt><trkpt lat="45.5472135" lon="14.0730107"><ele>570.0</ele><time>2026-05-05T11:48:22.272Z</time></trkpt><trkpt lat="45.5472887" lon="14.0727247"><ele>573.0</ele><time>2026-05-05T11:48:23.272Z</time></trkpt><trkpt lat="45.5473611" lon="14.0724414"><ele>572.0</ele><time>2026-05-05T11:48:24.272Z</time></trkpt><trkpt lat="45.5474358" lon="14.0721617"><ele>571.0</ele><time>2026-05-05T11:48:25.273Z</time></trkpt><trkpt lat="45.5474979" lon="14.0718838"><ele>570.0</ele><time>2026-05-05T11:48:26.272Z</time></trkpt><trkpt lat="45.5475569" lon="14.0716114"><ele>569.6666666666666</ele><time>2026-05-05T11:48:27.273Z</time></trkpt><trkpt lat="45.5476134" lon="14.0713469"><ele>569.3333333333333</ele><time>2026-05-05T11:48:28.272Z</time></trkpt><trkpt lat="45.5476692" lon="14.0710825"><ele>569.0</ele><time>2026-05-05T11:48:29.272Z</time></trkpt><trkpt lat="45.5477206" lon="14.0708189"><ele>570.3333333333333</ele><time>2026-05-05T11:48:30.272Z</time></trkpt><trkpt lat="45.5477635" lon="14.0705571"><ele>571.6666666666666</ele><time>2026-05-05T11:48:31.273Z</time></trkpt><trkpt lat="45.5477924" lon="14.0702897"><ele>573.0</ele><time>2026-05-05T11:48:32.273Z</time></trkpt><trkpt lat="45.5478081" lon="14.0700163"><ele>572.6666666666666</ele><time>2026-05-05T11:48:33.272Z</time></trkpt><trkpt lat="45.5478156" lon="14.0697422"><ele>572.3333333333333</ele><time>2026-05-05T11:48:34.273Z</time></trkpt><trkpt lat="45.5478183" lon="14.0694625"><ele>572.0</ele><time>2026-05-05T11:48:35.272Z</time></trkpt><trkpt lat="45.5478168" lon="14.0691878"><ele>571.6666666666666</ele><time>2026-05-05T11:48:36.273Z</time></trkpt><trkpt lat="45.5478135" lon="14.0689151"><ele>571.3333333333334</ele><time>2026-05-05T11:48:37.273Z</time></trkpt><trkpt lat="45.5478135" lon="14.0686489"><ele>571.0</ele><time>2026-05-05T11:48:38.272Z</time></trkpt><trkpt lat="45.547815" lon="14.0683926"><ele>571.3333333333334</ele><time>2026-05-05T11:48:39.272Z</time></trkpt><trkpt lat="45.5478195" lon="14.0681503"><ele>571.6666666666666</ele><time>2026-05-05T11:48:40.273Z</time></trkpt><trkpt lat="45.5478278" lon="14.0679134"><ele>572.0</ele><time>2026-05-05T11:48:41.273Z</time></trkpt><trkpt lat="45.5478436" lon="14.0676751"><ele>572.0</ele><time>2026-05-05T11:48:42.273Z</time></trkpt><trkpt lat="45.5478732" lon="14.0674326"><ele>572.0</ele><time>2026-05-05T11:48:43.272Z</time></trkpt><trkpt lat="45.5479199" lon="14.0671842"><ele>572.0</ele><time>2026-05-05T11:48:44.273Z</time></trkpt><trkpt lat="45.547961" lon="14.0669316"><ele>573.0</ele><time>2026-05-05T11:48:45.272Z</time></trkpt><trkpt lat="45.5480237" lon="14.0666823"><ele>574.0</ele><time>2026-05-05T11:48:46.273Z</time></trkpt><trkpt lat="45.54809" lon="14.0664313"><ele>575.0</ele><time>2026-05-05T11:48:47.272Z</time></trkpt><trkpt lat="45.5481564" lon="14.066176"><ele>577.0</ele><time>2026-05-05T11:48:48.272Z</time></trkpt><trkpt lat="45.5482208" lon="14.0659194"><ele>579.0</ele><time>2026-05-05T11:48:49.272Z</time></trkpt><trkpt lat="45.548288" lon="14.0656635"><ele>581.0</ele><time>2026-05-05T11:48:50.272Z</time></trkpt><trkpt lat="45.5483583" lon="14.0654107"><ele>581.6666666666666</ele><time>2026-05-05T11:48:51.272Z</time></trkpt><trkpt lat="45.5484339" lon="14.0651536"><ele>582.3333333333334</ele><time>2026-05-05T11:48:52.273Z</time></trkpt><trkpt lat="45.5485179" lon="14.064892"><ele>583.0</ele><time>2026-05-05T11:48:53.272Z</time></trkpt><trkpt lat="45.5486096" lon="14.0646292"><ele>584.3333333333334</ele><time>2026-05-05T11:48:54.273Z</time></trkpt><trkpt lat="45.5487042" lon="14.0643675"><ele>585.6666666666666</ele><time>2026-05-05T11:48:55.272Z</time></trkpt><trkpt lat="45.5487991" lon="14.0641025"><ele>587.0</ele><time>2026-05-05T11:48:56.272Z</time></trkpt><trkpt lat="45.5488936" lon="14.0638399"><ele>587.3333333333333</ele><time>2026-05-05T11:48:57.272Z</time></trkpt><trkpt lat="45.5489875" lon="14.0635774"><ele>587.6666666666666</ele><time>2026-05-05T11:48:58.272Z</time></trkpt><trkpt lat="45.5490838" lon="14.0633151"><ele>588.0</ele><time>2026-05-05T11:48:59.273Z</time></trkpt><trkpt lat="45.5491815" lon="14.0630559"><ele>588.0</ele><time>2026-05-05T11:49:00.272Z</time></trkpt><trkpt lat="45.5492815" lon="14.0627998"><ele>588.0</ele><time>2026-05-05T11:49:01.273Z</time></trkpt><trkpt lat="45.5493782" lon="14.062544"><ele>588.0</ele><time>2026-05-05T11:49:02.273Z</time></trkpt><trkpt lat="45.5494702" lon="14.0622865"><ele>588.0</ele><time>2026-05-05T11:49:03.273Z</time></trkpt><trkpt lat="45.5495631" lon="14.0620391"><ele>588.0</ele><time>2026-05-05T11:49:04.273Z</time></trkpt><trkpt lat="45.5496541" lon="14.0617928"><ele>588.0</ele><time>2026-05-05T11:49:05.273Z</time></trkpt><trkpt lat="45.5497428" lon="14.0615475"><ele>588.0</ele><time>2026-05-05T11:49:06.273Z</time></trkpt><trkpt lat="45.5498304" lon="14.0613063"><ele>588.0</ele><time>2026-05-05T11:49:07.272Z</time></trkpt><trkpt lat="45.5499148" lon="14.0610746"><ele>588.0</ele><time>2026-05-05T11:49:08.273Z</time></trkpt><trkpt lat="45.5499971" lon="14.0608534"><ele>587.3333333333334</ele><time>2026-05-05T11:49:09.272Z</time></trkpt><trkpt lat="45.5500756" lon="14.0606441"><ele>586.6666666666667</ele><time>2026-05-05T11:49:10.273Z</time></trkpt><trkpt lat="45.5501489" lon="14.0604439"><ele>586.0</ele><time>2026-05-05T11:49:11.273Z</time></trkpt><trkpt lat="45.5502204" lon="14.0602536"><ele>586.0</ele><time>2026-05-05T11:49:12.272Z</time></trkpt><trkpt lat="45.5502898" lon="14.0600696"><ele>586.0</ele><time>2026-05-05T11:49:13.273Z</time></trkpt><trkpt lat="45.5503577" lon="14.0598897"><ele>586.0</ele><time>2026-05-05T11:49:14.272Z</time></trkpt><trkpt lat="45.5504237" lon="14.0597112"><ele>586.0</ele><time>2026-05-05T11:49:15.273Z</time></trkpt><trkpt lat="45.5504908" lon="14.0595338"><ele>586.0</ele><time>2026-05-05T11:49:16.273Z</time></trkpt><trkpt lat="45.5505548" lon="14.0593565"><ele>586.0</ele><time>2026-05-05T11:49:17.273Z</time></trkpt><trkpt lat="45.5506179" lon="14.0591786"><ele>586.0</ele><time>2026-05-05T11:49:18.272Z</time></trkpt><trkpt lat="45.5506806" lon="14.0590183"><ele>586.0</ele><time>2026-05-05T11:49:19.272Z</time></trkpt><trkpt lat="45.5507434" lon="14.0588673"><ele>586.4</ele><time>2026-05-05T11:49:20.273Z</time></trkpt><trkpt lat="45.550807" lon="14.0587298"><ele>586.8</ele><time>2026-05-05T11:49:21.272Z</time></trkpt><trkpt lat="45.5508692" lon="14.058606"><ele>587.1999999999999</ele><time>2026-05-05T11:49:22.272Z</time></trkpt><trkpt lat="45.5509344" lon="14.0585027"><ele>587.6</ele><time>2026-05-05T11:49:23.272Z</time></trkpt><trkpt lat="45.5510064" lon="14.0584258"><ele>588.0</ele><time>2026-05-05T11:49:24.272Z</time></trkpt><trkpt lat="45.5510801" lon="14.0583642"><ele>588.0</ele><time>2026-05-05T11:49:25.273Z</time></trkpt><trkpt lat="45.5511596" lon="14.0583083"><ele>588.0</ele><time>2026-05-05T11:49:26.272Z</time></trkpt><trkpt lat="45.5512284" lon="14.0582331"><ele>588.0</ele><time>2026-05-05T11:49:27.273Z</time></trkpt><trkpt lat="45.5512896" lon="14.0581432"><ele>588.0</ele><time>2026-05-05T11:49:28.273Z</time></trkpt><trkpt lat="45.5513576" lon="14.0580482"><ele>588.0</ele><time>2026-05-05T11:49:29.273Z</time></trkpt><trkpt lat="45.5514397" lon="14.0579574"><ele>588.75</ele><time>2026-05-05T11:49:30.273Z</time></trkpt><trkpt lat="45.5515393" lon="14.057866"><ele>589.5</ele><time>2026-05-05T11:49:31.273Z</time></trkpt><trkpt lat="45.5516501" lon="14.0577685"><ele>590.25</ele><time>2026-05-05T11:49:32.273Z</time></trkpt><trkpt lat="45.551763" lon="14.0576749"><ele>591.0</ele><time>2026-05-05T11:49:33.272Z</time></trkpt><trkpt lat="45.551875" lon="14.0575734"><ele>591.0</ele><time>2026-05-05T11:49:34.273Z</time></trkpt><trkpt lat="45.5519858" lon="14.0574604"><ele>591.0</ele><time>2026-05-05T11:49:35.273Z</time></trkpt><trkpt lat="45.55209" lon="14.0573268"><ele>591.0</ele><time>2026-05-05T11:49:36.273Z</time></trkpt><trkpt lat="45.5521879" lon="14.0571685"><ele>591.0</ele><time>2026-05-05T11:49:37.273Z</time></trkpt><trkpt lat="45.552277" lon="14.056984"><ele>591.3333333333334</ele><time>2026-05-05T11:49:38.272Z</time></trkpt><trkpt lat="45.5523644" lon="14.0567881"><ele>591.6666666666667</ele><time>2026-05-05T11:49:39.273Z</time></trkpt><trkpt lat="45.5524499" lon="14.0565843"><ele>592.0</ele><time>2026-05-05T11:49:40.273Z</time></trkpt><trkpt lat="45.5525341" lon="14.0563748"><ele>592.3333333333334</ele><time>2026-05-05T11:49:41.272Z</time></trkpt><trkpt lat="45.5526156" lon="14.0561674"><ele>592.6666666666666</ele><time>2026-05-05T11:49:42.273Z</time></trkpt><trkpt lat="45.5526962" lon="14.0559571"><ele>593.0</ele><time>2026-05-05T11:49:43.273Z</time></trkpt><trkpt lat="45.5527763" lon="14.0557458"><ele>593.3333333333333</ele><time>2026-05-05T11:49:44.273Z</time></trkpt><trkpt lat="45.5528489" lon="14.0555284"><ele>593.6666666666666</ele><time>2026-05-05T11:49:45.272Z</time></trkpt><trkpt lat="45.5529107" lon="14.0552961"><ele>594.0</ele><time>2026-05-05T11:49:46.273Z</time></trkpt><trkpt lat="45.5529697" lon="14.0550507"><ele>591.3333333333334</ele><time>2026-05-05T11:49:47.273Z</time></trkpt><trkpt lat="45.5530248" lon="14.0547921"><ele>588.6666666666667</ele><time>2026-05-05T11:49:48.273Z</time></trkpt><trkpt lat="45.5530778" lon="14.0545311"><ele>586.0</ele><time>2026-05-05T11:49:49.272Z</time></trkpt><trkpt lat="45.5531344" lon="14.0542716"><ele>585.6666666666667</ele><time>2026-05-05T11:49:50.273Z</time></trkpt><trkpt lat="45.5531916" lon="14.0540152"><ele>585.3333333333334</ele><time>2026-05-05T11:49:51.272Z</time></trkpt><trkpt lat="45.5532407" lon="14.0537516"><ele>585.0</ele><time>2026-05-05T11:49:52.273Z</time></trkpt><trkpt lat="45.5532906" lon="14.0534954"><ele>583.3333333333334</ele><time>2026-05-05T11:49:53.273Z</time></trkpt><trkpt lat="45.553329" lon="14.0532309"><ele>581.6666666666667</ele><time>2026-05-05T11:49:54.273Z</time></trkpt><trkpt lat="45.5533552" lon="14.0529588"><ele>580.0</ele><time>2026-05-05T11:49:55.272Z</time></trkpt><trkpt lat="45.5533726" lon="14.0526803"><ele>578.6666666666667</ele><time>2026-05-05T11:49:56.273Z</time></trkpt><trkpt lat="45.5533841" lon="14.0523984"><ele>577.3333333333334</ele><time>2026-05-05T11:49:57.273Z</time></trkpt><trkpt lat="45.553398" lon="14.0521202"><ele>576.0</ele><time>2026-05-05T11:49:58.273Z</time></trkpt><trkpt lat="45.5534155" lon="14.0518412"><ele>575.6666666666666</ele><time>2026-05-05T11:49:59.273Z</time></trkpt><trkpt lat="45.5534321" lon="14.0515625"><ele>575.3333333333333</ele><time>2026-05-05T11:50:00.273Z</time></trkpt><trkpt lat="45.5534523" lon="14.0512861"><ele>575.0</ele><time>2026-05-05T11:50:01.273Z</time></trkpt><trkpt lat="45.5534837" lon="14.051015"><ele>574.6666666666666</ele><time>2026-05-05T11:50:02.273Z</time></trkpt><trkpt lat="45.5535274" lon="14.050746"><ele>574.3333333333334</ele><time>2026-05-05T11:50:03.273Z</time></trkpt><trkpt lat="45.5535924" lon="14.0504842"><ele>574.0</ele><time>2026-05-05T11:50:04.273Z</time></trkpt><trkpt lat="45.5536749" lon="14.0502215"><ele>574.3333333333334</ele><time>2026-05-05T11:50:05.272Z</time></trkpt><trkpt lat="45.553767" lon="14.0499476"><ele>574.6666666666666</ele><time>2026-05-05T11:50:06.273Z</time></trkpt><trkpt lat="45.55386" lon="14.0496648"><ele>575.0</ele><time>2026-05-05T11:50:07.272Z</time></trkpt><trkpt lat="45.5539521" lon="14.0493811"><ele>575.3333333333333</ele><time>2026-05-05T11:50:08.272Z</time></trkpt><trkpt lat="45.5540444" lon="14.0490966"><ele>575.6666666666666</ele><time>2026-05-05T11:50:09.273Z</time></trkpt><trkpt lat="45.5541338" lon="14.0488171"><ele>576.0</ele><time>2026-05-05T11:50:10.273Z</time></trkpt><trkpt lat="45.5542217" lon="14.0485423"><ele>575.3333333333334</ele><time>2026-05-05T11:50:11.273Z</time></trkpt><trkpt lat="45.5543085" lon="14.0482745"><ele>574.6666666666667</ele><time>2026-05-05T11:50:12.273Z</time></trkpt><trkpt lat="45.5543972" lon="14.0480126"><ele>574.0</ele><time>2026-05-05T11:50:13.273Z</time></trkpt><trkpt lat="45.5544869" lon="14.0477582"><ele>573.6666666666667</ele><time>2026-05-05T11:50:14.273Z</time></trkpt><trkpt lat="45.5545797" lon="14.0475061"><ele>573.3333333333334</ele><time>2026-05-05T11:50:15.273Z</time></trkpt><trkpt lat="45.5546777" lon="14.0472586"><ele>573.0</ele><time>2026-05-05T11:50:16.272Z</time></trkpt><trkpt lat="45.5547788" lon="14.0470186"><ele>573.0</ele><time>2026-05-05T11:50:17.273Z</time></trkpt><trkpt lat="45.5548792" lon="14.0467786"><ele>573.0</ele><time>2026-05-05T11:50:18.273Z</time></trkpt><trkpt lat="45.5549807" lon="14.0465413"><ele>573.0</ele><time>2026-05-05T11:50:19.272Z</time></trkpt><trkpt lat="45.555079" lon="14.0463162"><ele>573.6666666666666</ele><time>2026-05-05T11:50:20.272Z</time></trkpt><trkpt lat="45.5551716" lon="14.0460996"><ele>574.3333333333333</ele><time>2026-05-05T11:50:21.272Z</time></trkpt><trkpt lat="45.5552549" lon="14.0458958"><ele>575.0</ele><time>2026-05-05T11:50:22.273Z</time></trkpt><trkpt lat="45.5553291" lon="14.0456933"><ele>575.0</ele><time>2026-05-05T11:50:23.273Z</time></trkpt><trkpt lat="45.5553941" lon="14.0454751"><ele>575.0</ele><time>2026-05-05T11:50:24.272Z</time></trkpt><trkpt lat="45.5554444" lon="14.0452378"><ele>575.0</ele><time>2026-05-05T11:50:25.273Z</time></trkpt><trkpt lat="45.5554867" lon="14.0449845"><ele>574.0</ele><time>2026-05-05T11:50:26.273Z</time></trkpt><trkpt lat="45.5555237" lon="14.0447338"><ele>573.0</ele><time>2026-05-05T11:50:27.272Z</time></trkpt><trkpt lat="45.5555595" lon="14.044475"><ele>572.0</ele><time>2026-05-05T11:50:28.272Z</time></trkpt><trkpt lat="45.5555949" lon="14.0442162"><ele>572.0</ele><time>2026-05-05T11:50:29.273Z</time></trkpt><trkpt lat="45.5556366" lon="14.0439606"><ele>572.0</ele><time>2026-05-05T11:50:30.273Z</time></trkpt><trkpt lat="45.5556834" lon="14.0437065"><ele>572.0</ele><time>2026-05-05T11:50:31.273Z</time></trkpt><trkpt lat="45.5557445" lon="14.0434551"><ele>571.3333333333333</ele><time>2026-05-05T11:50:32.272Z</time></trkpt><trkpt lat="45.5558314" lon="14.0432117"><ele>570.6666666666666</ele><time>2026-05-05T11:50:33.273Z</time></trkpt><trkpt lat="45.5559377" lon="14.0429798"><ele>570.0</ele><time>2026-05-05T11:50:34.273Z</time></trkpt><trkpt lat="45.5560519" lon="14.0427542"><ele>570.0</ele><time>2026-05-05T11:50:35.273Z</time></trkpt><trkpt lat="45.5561749" lon="14.0425135"><ele>570.0</ele><time>2026-05-05T11:50:36.273Z</time></trkpt><trkpt lat="45.556299" lon="14.0422706"><ele>570.0</ele><time>2026-05-05T11:50:37.272Z</time></trkpt><trkpt lat="45.5564213" lon="14.0420264"><ele>569.6666666666666</ele><time>2026-05-05T11:50:38.272Z</time></trkpt><trkpt lat="45.5565472" lon="14.0417748"><ele>569.3333333333333</ele><time>2026-05-05T11:50:39.272Z</time></trkpt><trkpt lat="45.5566732" lon="14.0415206"><ele>569.0</ele><time>2026-05-05T11:50:40.272Z</time></trkpt><trkpt lat="45.5568003" lon="14.0412649"><ele>568.3333333333333</ele><time>2026-05-05T11:50:41.273Z</time></trkpt><trkpt lat="45.5569255" lon="14.0410159"><ele>567.6666666666666</ele><time>2026-05-05T11:50:42.273Z</time></trkpt><trkpt lat="45.5570433" lon="14.0407807"><ele>567.0</ele><time>2026-05-05T11:50:43.273Z</time></trkpt><trkpt lat="45.5571552" lon="14.0405532"><ele>567.0</ele><time>2026-05-05T11:50:44.272Z</time></trkpt><trkpt lat="45.5572558" lon="14.040328"><ele>567.0</ele><time>2026-05-05T11:50:45.273Z</time></trkpt><trkpt lat="45.5573466" lon="14.0400956"><ele>567.0</ele><time>2026-05-05T11:50:46.272Z</time></trkpt><trkpt lat="45.5574319" lon="14.0398592"><ele>568.0</ele><time>2026-05-05T11:50:47.273Z</time></trkpt><trkpt lat="45.5575083" lon="14.0396304"><ele>569.0</ele><time>2026-05-05T11:50:48.273Z</time></trkpt><trkpt lat="45.5575778" lon="14.0394145"><ele>570.0</ele><time>2026-05-05T11:50:49.273Z</time></trkpt><trkpt lat="45.5576483" lon="14.0392068"><ele>569.0</ele><time>2026-05-05T11:50:50.273Z</time></trkpt><trkpt lat="45.557723" lon="14.0389972"><ele>568.0</ele><time>2026-05-05T11:50:51.273Z</time></trkpt><trkpt lat="45.557801" lon="14.038785"><ele>567.0</ele><time>2026-05-05T11:50:52.273Z</time></trkpt><trkpt lat="45.5578819" lon="14.0385669"><ele>568.3333333333334</ele><time>2026-05-05T11:50:53.272Z</time></trkpt><trkpt lat="45.5579655" lon="14.0383512"><ele>569.6666666666667</ele><time>2026-05-05T11:50:54.273Z</time></trkpt><trkpt lat="45.5580475" lon="14.0381342"><ele>571.0</ele><time>2026-05-05T11:50:55.272Z</time></trkpt><trkpt lat="45.5581289" lon="14.0379199"><ele>571.0</ele><time>2026-05-05T11:50:56.273Z</time></trkpt><trkpt lat="45.5582102" lon="14.0377061"><ele>571.0</ele><time>2026-05-05T11:50:57.272Z</time></trkpt><trkpt lat="45.5582905" lon="14.0375021"><ele>571.0</ele><time>2026-05-05T11:50:58.272Z</time></trkpt><trkpt lat="45.5583669" lon="14.0373071"><ele>569.75</ele><time>2026-05-05T11:50:59.272Z</time></trkpt><trkpt lat="45.5584387" lon="14.0371207"><ele>568.5</ele><time>2026-05-05T11:51:00.272Z</time></trkpt><trkpt lat="45.5585097" lon="14.0369391"><ele>567.25</ele><time>2026-05-05T11:51:01.273Z</time></trkpt><trkpt lat="45.5585791" lon="14.036758"><ele>566.0</ele><time>2026-05-05T11:51:02.273Z</time></trkpt><trkpt lat="45.5586501" lon="14.0365811"><ele>566.5</ele><time>2026-05-05T11:51:03.273Z</time></trkpt><trkpt lat="45.5587184" lon="14.0364053"><ele>567.0</ele><time>2026-05-05T11:51:04.273Z</time></trkpt><trkpt lat="45.5587869" lon="14.0362339"><ele>567.5</ele><time>2026-05-05T11:51:05.272Z</time></trkpt><trkpt lat="45.5588535" lon="14.0360691"><ele>568.0</ele><time>2026-05-05T11:51:06.273Z</time></trkpt><trkpt lat="45.5589161" lon="14.0359073"><ele>567.4</ele><time>2026-05-05T11:51:07.273Z</time></trkpt><trkpt lat="45.5589703" lon="14.0357575"><ele>566.8</ele><time>2026-05-05T11:51:08.272Z</time></trkpt><trkpt lat="45.5590232" lon="14.0356126"><ele>566.2</ele><time>2026-05-05T11:51:09.273Z</time></trkpt><trkpt lat="45.5590724" lon="14.035477"><ele>565.6</ele><time>2026-05-05T11:51:10.273Z</time></trkpt><trkpt lat="45.5591204" lon="14.0353561"><ele>565.0</ele><time>2026-05-05T11:51:11.272Z</time></trkpt><trkpt lat="45.5591693" lon="14.0352429"><ele>565.0</ele><time>2026-05-05T11:51:12.272Z</time></trkpt><trkpt lat="45.5592151" lon="14.0351266"><ele>565.0</ele><time>2026-05-05T11:51:13.273Z</time></trkpt><trkpt lat="45.559251" lon="14.0349983"><ele>565.0</ele><time>2026-05-05T11:51:14.272Z</time></trkpt><trkpt lat="45.559293" lon="14.0348646"><ele>565.0</ele><time>2026-05-05T11:51:15.273Z</time></trkpt><trkpt lat="45.5593479" lon="14.0347211"><ele>565.0</ele><time>2026-05-05T11:51:16.273Z</time></trkpt><trkpt lat="45.5594016" lon="14.0345641"><ele>564.0</ele><time>2026-05-05T11:51:17.273Z</time></trkpt><trkpt lat="45.5594458" lon="14.0344018"><ele>563.0</ele><time>2026-05-05T11:51:18.273Z</time></trkpt><trkpt lat="45.5594824" lon="14.0342167"><ele>562.0</ele><time>2026-05-05T11:51:19.272Z</time></trkpt><trkpt lat="45.5595061" lon="14.0340198"><ele>561.0</ele><time>2026-05-05T11:51:20.272Z</time></trkpt><trkpt lat="45.5595185" lon="14.0338164"><ele>560.5</ele><time>2026-05-05T11:51:21.273Z</time></trkpt><trkpt lat="45.5595238" lon="14.0336079"><ele>560.0</ele><time>2026-05-05T11:51:22.273Z</time></trkpt><trkpt lat="45.5595259" lon="14.0334029"><ele>559.5</ele><time>2026-05-05T11:51:23.273Z</time></trkpt><trkpt lat="45.5595226" lon="14.0331997"><ele>559.0</ele><time>2026-05-05T11:51:24.272Z</time></trkpt><trkpt lat="45.5595209" lon="14.0329985"><ele>559.0</ele><time>2026-05-05T11:51:25.273Z</time></trkpt><trkpt lat="45.5595252" lon="14.0328021"><ele>559.0</ele><time>2026-05-05T11:51:26.273Z</time></trkpt><trkpt lat="45.5595367" lon="14.0326118"><ele>559.0</ele><time>2026-05-05T11:51:27.273Z</time></trkpt><trkpt lat="45.559561" lon="14.0324193"><ele>559.0</ele><time>2026-05-05T11:51:28.273Z</time></trkpt><trkpt lat="45.5596006" lon="14.0322366"><ele>559.0</ele><time>2026-05-05T11:51:29.272Z</time></trkpt><trkpt lat="45.5596515" lon="14.0320547"><ele>559.0</ele><time>2026-05-05T11:51:30.273Z</time></trkpt><trkpt lat="45.5597094" lon="14.0318796"><ele>559.0</ele><time>2026-05-05T11:51:31.273Z</time></trkpt><trkpt lat="45.5597768" lon="14.0317135"><ele>559.0</ele><time>2026-05-05T11:51:32.273Z</time></trkpt><trkpt lat="45.5598565" lon="14.0315575"><ele>558.75</ele><time>2026-05-05T11:51:33.272Z</time></trkpt><trkpt lat="45.5599496" lon="14.0314174"><ele>558.5</ele><time>2026-05-05T11:51:34.273Z</time></trkpt><trkpt lat="45.5600544" lon="14.0312853"><ele>558.25</ele><time>2026-05-05T11:51:35.272Z</time></trkpt><trkpt lat="45.5601707" lon="14.0311705"><ele>558.0</ele><time>2026-05-05T11:51:36.273Z</time></trkpt><trkpt lat="45.5602987" lon="14.0310682"><ele>556.0</ele><time>2026-05-05T11:51:37.272Z</time></trkpt><trkpt lat="45.5604309" lon="14.0309746"><ele>554.0</ele><time>2026-05-05T11:51:38.272Z</time></trkpt><trkpt lat="45.5605706" lon="14.0308975"><ele>552.0</ele><time>2026-05-05T11:51:39.272Z</time></trkpt><trkpt lat="45.5607187" lon="14.030834"><ele>551.3333333333334</ele><time>2026-05-05T11:51:40.272Z</time></trkpt><trkpt lat="45.5608758" lon="14.0307883"><ele>550.6666666666667</ele><time>2026-05-05T11:51:41.272Z</time></trkpt><trkpt lat="45.561037" lon="14.0307478"><ele>550.0</ele><time>2026-05-05T11:51:42.273Z</time></trkpt><trkpt lat="45.5612023" lon="14.0307008"><ele>550.0</ele><time>2026-05-05T11:51:43.273Z</time></trkpt><trkpt lat="45.5613682" lon="14.0306524"><ele>550.0</ele><time>2026-05-05T11:51:44.273Z</time></trkpt><trkpt lat="45.5615379" lon="14.0306037"><ele>550.0</ele><time>2026-05-05T11:51:45.273Z</time></trkpt><trkpt lat="45.5617106" lon="14.0305529"><ele>550.0</ele><time>2026-05-05T11:51:46.272Z</time></trkpt><trkpt lat="45.5618846" lon="14.0305043"><ele>550.0</ele><time>2026-05-05T11:51:47.273Z</time></trkpt><trkpt lat="45.5620581" lon="14.0304564"><ele>550.0</ele><time>2026-05-05T11:51:48.273Z</time></trkpt><trkpt lat="45.562231" lon="14.0304051"><ele>550.3333333333334</ele><time>2026-05-05T11:51:49.272Z</time></trkpt><trkpt lat="45.562403" lon="14.0303578"><ele>550.6666666666666</ele><time>2026-05-05T11:51:50.273Z</time></trkpt><trkpt lat="45.5625722" lon="14.0303124"><ele>551.0</ele><time>2026-05-05T11:51:51.272Z</time></trkpt><trkpt lat="45.5627418" lon="14.0302668"><ele>550.3333333333333</ele><time>2026-05-05T11:51:52.273Z</time></trkpt><trkpt lat="45.5629027" lon="14.0302236"><ele>549.6666666666666</ele><time>2026-05-05T11:51:53.273Z</time></trkpt><trkpt lat="45.5630564" lon="14.0301777"><ele>549.0</ele><time>2026-05-05T11:51:54.272Z</time></trkpt><trkpt lat="45.5632068" lon="14.0301247"><ele>549.0</ele><time>2026-05-05T11:51:55.272Z</time></trkpt><trkpt lat="45.5633511" lon="14.0300588"><ele>549.0</ele><time>2026-05-05T11:51:56.273Z</time></trkpt><trkpt lat="45.5634892" lon="14.0299704"><ele>549.0</ele><time>2026-05-05T11:51:57.273Z</time></trkpt><trkpt lat="45.5636215" lon="14.0298592"><ele>547.3333333333334</ele><time>2026-05-05T11:51:58.273Z</time></trkpt><trkpt lat="45.5637474" lon="14.02973"><ele>545.6666666666667</ele><time>2026-05-05T11:51:59.272Z</time></trkpt><trkpt lat="45.5638625" lon="14.0295829"><ele>544.0</ele><time>2026-05-05T11:52:00.272Z</time></trkpt><trkpt lat="45.5639629" lon="14.0294089"><ele>544.0</ele><time>2026-05-05T11:52:01.273Z</time></trkpt><trkpt lat="45.5640507" lon="14.0292162"><ele>544.0</ele><time>2026-05-05T11:52:02.273Z</time></trkpt><trkpt lat="45.5641303" lon="14.0290118"><ele>544.0</ele><time>2026-05-05T11:52:03.272Z</time></trkpt><trkpt lat="45.5642053" lon="14.0287931"><ele>545.0</ele><time>2026-05-05T11:52:04.273Z</time></trkpt><trkpt lat="45.5642821" lon="14.0285674"><ele>546.0</ele><time>2026-05-05T11:52:05.272Z</time></trkpt><trkpt lat="45.5643553" lon="14.0283462"><ele>547.0</ele><time>2026-05-05T11:52:06.272Z</time></trkpt><trkpt lat="45.5644343" lon="14.0281252"><ele>546.6666666666667</ele><time>2026-05-05T11:52:07.273Z</time></trkpt><trkpt lat="45.5645212" lon="14.0279044"><ele>546.3333333333334</ele><time>2026-05-05T11:52:08.273Z</time></trkpt><trkpt lat="45.5646148" lon="14.0276856"><ele>546.0</ele><time>2026-05-05T11:52:09.273Z</time></trkpt><trkpt lat="45.5647159" lon="14.0274726"><ele>546.0</ele><time>2026-05-05T11:52:10.273Z</time></trkpt><trkpt lat="45.5648258" lon="14.0272528"><ele>546.0</ele><time>2026-05-05T11:52:11.273Z</time></trkpt><trkpt lat="45.5649367" lon="14.0270373"><ele>546.0</ele><time>2026-05-05T11:52:12.272Z</time></trkpt><trkpt lat="45.5650558" lon="14.0268104"><ele>545.3333333333334</ele><time>2026-05-05T11:52:13.272Z</time></trkpt><trkpt lat="45.5651742" lon="14.0265791"><ele>544.6666666666667</ele><time>2026-05-05T11:52:14.273Z</time></trkpt><trkpt lat="45.5652942" lon="14.0263411"><ele>544.0</ele><time>2026-05-05T11:52:15.272Z</time></trkpt><trkpt lat="45.5654176" lon="14.0261008"><ele>543.6666666666667</ele><time>2026-05-05T11:52:16.272Z</time></trkpt><trkpt lat="45.5655405" lon="14.0258578"><ele>543.3333333333334</ele><time>2026-05-05T11:52:17.272Z</time></trkpt><trkpt lat="45.565668" lon="14.0256157"><ele>543.0</ele><time>2026-05-05T11:52:18.273Z</time></trkpt><trkpt lat="45.5657946" lon="14.0253708"><ele>543.6666666666666</ele><time>2026-05-05T11:52:19.273Z</time></trkpt><trkpt lat="45.565921" lon="14.0251242"><ele>544.3333333333333</ele><time>2026-05-05T11:52:20.273Z</time></trkpt><trkpt lat="45.5660512" lon="14.0248737"><ele>545.0</ele><time>2026-05-05T11:52:21.272Z</time></trkpt><trkpt lat="45.5661746" lon="14.0246252"><ele>541.3333333333333</ele><time>2026-05-05T11:52:22.273Z</time></trkpt><trkpt lat="45.5662901" lon="14.0243804"><ele>537.6666666666666</ele><time>2026-05-05T11:52:23.272Z</time></trkpt><trkpt lat="45.5664037" lon="14.0241354"><ele>534.0</ele><time>2026-05-05T11:52:24.273Z</time></trkpt><trkpt lat="45.5665076" lon="14.0238836"><ele>534.0</ele><time>2026-05-05T11:52:25.272Z</time></trkpt><trkpt lat="45.5666075" lon="14.0236387"><ele>534.0</ele><time>2026-05-05T11:52:26.272Z</time></trkpt><trkpt lat="45.566704" lon="14.0233914"><ele>534.0</ele><time>2026-05-05T11:52:27.273Z</time></trkpt><trkpt lat="45.5667995" lon="14.0231476"><ele>537.0</ele><time>2026-05-05T11:52:28.272Z</time></trkpt><trkpt lat="45.5668924" lon="14.022906"><ele>540.0</ele><time>2026-05-05T11:52:29.272Z</time></trkpt><trkpt lat="45.5669842" lon="14.0226645"><ele>543.0</ele><time>2026-05-05T11:52:30.273Z</time></trkpt><trkpt lat="45.5670753" lon="14.0224241"><ele>543.0</ele><time>2026-05-05T11:52:31.273Z</time></trkpt><trkpt lat="45.5671639" lon="14.0221852"><ele>543.0</ele><time>2026-05-05T11:52:32.273Z</time></trkpt><trkpt lat="45.5672529" lon="14.0219447"><ele>543.0</ele><time>2026-05-05T11:52:33.273Z</time></trkpt><trkpt lat="45.5673405" lon="14.0217071"><ele>544.6666666666666</ele><time>2026-05-05T11:52:34.272Z</time></trkpt><trkpt lat="45.567423" lon="14.0214706"><ele>546.3333333333333</ele><time>2026-05-05T11:52:35.272Z</time></trkpt><trkpt lat="45.5675051" lon="14.021233"><ele>548.0</ele><time>2026-05-05T11:52:36.273Z</time></trkpt><trkpt lat="45.5675893" lon="14.0210069"><ele>550.0</ele><time>2026-05-05T11:52:37.273Z</time></trkpt><trkpt lat="45.5676695" lon="14.0207758"><ele>552.0</ele><time>2026-05-05T11:52:38.272Z</time></trkpt><trkpt lat="45.5677547" lon="14.0205425"><ele>554.0</ele><time>2026-05-05T11:52:39.272Z</time></trkpt><trkpt lat="45.5678428" lon="14.0203142"><ele>553.6666666666666</ele><time>2026-05-05T11:52:40.273Z</time></trkpt><trkpt lat="45.5679408" lon="14.0200938"><ele>553.3333333333334</ele><time>2026-05-05T11:52:41.273Z</time></trkpt><trkpt lat="45.5680574" lon="14.0198867"><ele>553.0</ele><time>2026-05-05T11:52:42.273Z</time></trkpt><trkpt lat="45.5681789" lon="14.019687"><ele>553.0</ele><time>2026-05-05T11:52:43.272Z</time></trkpt><trkpt lat="45.5682964" lon="14.0195057"><ele>553.0</ele><time>2026-05-05T11:52:44.273Z</time></trkpt><trkpt lat="45.5684118" lon="14.0193316"><ele>553.0</ele><time>2026-05-05T11:52:45.273Z</time></trkpt><trkpt lat="45.568526" lon="14.0191596"><ele>552.6666666666667</ele><time>2026-05-05T11:52:46.273Z</time></trkpt><trkpt lat="45.5686348" lon="14.0189828"><ele>552.3333333333334</ele><time>2026-05-05T11:52:47.272Z</time></trkpt><trkpt lat="45.5687367" lon="14.0187891"><ele>552.0</ele><time>2026-05-05T11:52:48.272Z</time></trkpt><trkpt lat="45.568833" lon="14.0185742"><ele>551.0</ele><time>2026-05-05T11:52:49.273Z</time></trkpt><trkpt lat="45.5689302" lon="14.0183517"><ele>550.0</ele><time>2026-05-05T11:52:50.272Z</time></trkpt><trkpt lat="45.5690299" lon="14.0181211"><ele>549.0</ele><time>2026-05-05T11:52:51.272Z</time></trkpt><trkpt lat="45.5691277" lon="14.0178964"><ele>549.0</ele><time>2026-05-05T11:52:52.272Z</time></trkpt><trkpt lat="45.5692245" lon="14.0176671"><ele>549.0</ele><time>2026-05-05T11:52:53.272Z</time></trkpt><trkpt lat="45.5693138" lon="14.0174382"><ele>549.0</ele><time>2026-05-05T11:52:54.273Z</time></trkpt><trkpt lat="45.5694035" lon="14.0172237"><ele>548.3333333333334</ele><time>2026-05-05T11:52:55.272Z</time></trkpt><trkpt lat="45.5694991" lon="14.0170195"><ele>547.6666666666667</ele><time>2026-05-05T11:52:56.273Z</time></trkpt><trkpt lat="45.5696067" lon="14.0168335"><ele>547.0</ele><time>2026-05-05T11:52:57.273Z</time></trkpt><trkpt lat="45.5697248" lon="14.0166469"><ele>545.3333333333334</ele><time>2026-05-05T11:52:58.272Z</time></trkpt><trkpt lat="45.5698457" lon="14.0164584"><ele>543.6666666666666</ele><time>2026-05-05T11:52:59.272Z</time></trkpt><trkpt lat="45.5699701" lon="14.0162717"><ele>542.0</ele><time>2026-05-05T11:53:00.273Z</time></trkpt><trkpt lat="45.5700931" lon="14.0160829"><ele>542.0</ele><time>2026-05-05T11:53:01.272Z</time></trkpt><trkpt lat="45.5702129" lon="14.0158907"><ele>542.0</ele><time>2026-05-05T11:53:02.273Z</time></trkpt><trkpt lat="45.5703264" lon="14.0156898"><ele>542.0</ele><time>2026-05-05T11:53:03.273Z</time></trkpt><trkpt lat="45.5704323" lon="14.0154822"><ele>541.6666666666666</ele><time>2026-05-05T11:53:04.273Z</time></trkpt><trkpt lat="45.5705276" lon="14.0152649"><ele>541.3333333333334</ele><time>2026-05-05T11:53:05.272Z</time></trkpt><trkpt lat="45.5706212" lon="14.015042"><ele>541.0</ele><time>2026-05-05T11:53:06.272Z</time></trkpt><trkpt lat="45.5707179" lon="14.0148163"><ele>540.6666666666667</ele><time>2026-05-05T11:53:07.273Z</time></trkpt><trkpt lat="45.5708201" lon="14.0145913"><ele>540.3333333333334</ele><time>2026-05-05T11:53:08.273Z</time></trkpt><trkpt lat="45.5709184" lon="14.0143502"><ele>540.0</ele><time>2026-05-05T11:53:09.272Z</time></trkpt><trkpt lat="45.5710247" lon="14.0141166"><ele>538.6666666666666</ele><time>2026-05-05T11:53:10.273Z</time></trkpt><trkpt lat="45.5711363" lon="14.0138934"><ele>537.3333333333333</ele><time>2026-05-05T11:53:11.273Z</time></trkpt><trkpt lat="45.5712555" lon="14.0136779"><ele>536.0</ele><time>2026-05-05T11:53:12.273Z</time></trkpt><trkpt lat="45.5713743" lon="14.0134618"><ele>535.6666666666666</ele><time>2026-05-05T11:53:13.273Z</time></trkpt><trkpt lat="45.5714905" lon="14.0132454"><ele>535.3333333333334</ele><time>2026-05-05T11:53:14.273Z</time></trkpt><trkpt lat="45.5716029" lon="14.0130371"><ele>535.0</ele><time>2026-05-05T11:53:15.272Z</time></trkpt><trkpt lat="45.5717094" lon="14.0128412"><ele>535.0</ele><time>2026-05-05T11:53:16.272Z</time></trkpt><trkpt lat="45.5718126" lon="14.0126341"><ele>535.0</ele><time>2026-05-05T11:53:17.272Z</time></trkpt><trkpt lat="45.571909" lon="14.0124174"><ele>535.0</ele><time>2026-05-05T11:53:18.272Z</time></trkpt><trkpt lat="45.5719987" lon="14.0121878"><ele>535.6666666666667</ele><time>2026-05-05T11:53:19.272Z</time></trkpt><trkpt lat="45.5720848" lon="14.0119451"><ele>536.3333333333334</ele><time>2026-05-05T11:53:20.273Z</time></trkpt><trkpt lat="45.572169" lon="14.0116981"><ele>537.0</ele><time>2026-05-05T11:53:21.272Z</time></trkpt><trkpt lat="45.5722522" lon="14.0114532"><ele>537.0</ele><time>2026-05-05T11:53:22.272Z</time></trkpt><trkpt lat="45.572337" lon="14.0112104"><ele>537.0</ele><time>2026-05-05T11:53:23.273Z</time></trkpt><trkpt lat="45.5724198" lon="14.010971"><ele>537.0</ele><time>2026-05-05T11:53:24.273Z</time></trkpt><trkpt lat="45.5725043" lon="14.0107297"><ele>536.3333333333334</ele><time>2026-05-05T11:53:25.273Z</time></trkpt><trkpt lat="45.5725919" lon="14.0104919"><ele>535.6666666666667</ele><time>2026-05-05T11:53:26.273Z</time></trkpt><trkpt lat="45.5726755" lon="14.0102678"><ele>535.0</ele><time>2026-05-05T11:53:27.273Z</time></trkpt><trkpt lat="45.572767" lon="14.0100282"><ele>534.3333333333334</ele><time>2026-05-05T11:53:28.272Z</time></trkpt><trkpt lat="45.5728602" lon="14.0097925"><ele>533.6666666666666</ele><time>2026-05-05T11:53:29.273Z</time></trkpt><trkpt lat="45.5729517" lon="14.0095593"><ele>533.0</ele><time>2026-05-05T11:53:30.272Z</time></trkpt><trkpt lat="45.5730431" lon="14.0093239"><ele>533.6666666666666</ele><time>2026-05-05T11:53:31.273Z</time></trkpt><trkpt lat="45.5731344" lon="14.0090891"><ele>534.3333333333334</ele><time>2026-05-05T11:53:32.273Z</time></trkpt><trkpt lat="45.5732282" lon="14.0088537"><ele>535.0</ele><time>2026-05-05T11:53:33.273Z</time></trkpt><trkpt lat="45.573315" lon="14.0086304"><ele>535.0</ele><time>2026-05-05T11:53:34.272Z</time></trkpt><trkpt lat="45.5734045" lon="14.0084057"><ele>535.0</ele><time>2026-05-05T11:53:35.273Z</time></trkpt><trkpt lat="45.5734926" lon="14.008193"><ele>535.0</ele><time>2026-05-05T11:53:36.272Z</time></trkpt><trkpt lat="45.5735882" lon="14.0080012"><ele>536.3333333333334</ele><time>2026-05-05T11:53:37.273Z</time></trkpt><trkpt lat="45.5736929" lon="14.0078316"><ele>537.6666666666666</ele><time>2026-05-05T11:53:38.273Z</time></trkpt><trkpt lat="45.5737997" lon="14.0076674"><ele>539.0</ele><time>2026-05-05T11:53:39.273Z</time></trkpt><trkpt lat="45.5739077" lon="14.0075149"><ele>538.75</ele><time>2026-05-05T11:53:40.273Z</time></trkpt><trkpt lat="45.5740159" lon="14.007366"><ele>538.5</ele><time>2026-05-05T11:53:41.273Z</time></trkpt><trkpt lat="45.5741236" lon="14.0072186"><ele>538.25</ele><time>2026-05-05T11:53:42.272Z</time></trkpt><trkpt lat="45.5742307" lon="14.0070685"><ele>538.0</ele><time>2026-05-05T11:53:43.273Z</time></trkpt><trkpt lat="45.5743389" lon="14.0069149"><ele>538.0</ele><time>2026-05-05T11:53:44.273Z</time></trkpt><trkpt lat="45.5744478" lon="14.0067558"><ele>538.0</ele><time>2026-05-05T11:53:45.273Z</time></trkpt><trkpt lat="45.5745603" lon="14.0065939"><ele>538.0</ele><time>2026-05-05T11:53:46.273Z</time></trkpt><trkpt lat="45.5746774" lon="14.0064364"><ele>536.3333333333334</ele><time>2026-05-05T11:53:47.273Z</time></trkpt><trkpt lat="45.5747971" lon="14.0062805"><ele>534.6666666666666</ele><time>2026-05-05T11:53:48.272Z</time></trkpt><trkpt lat="45.5749176" lon="14.0061265"><ele>533.0</ele><time>2026-05-05T11:53:49.273Z</time></trkpt><trkpt lat="45.5750396" lon="14.0059683"><ele>532.3333333333333</ele><time>2026-05-05T11:53:50.273Z</time></trkpt><trkpt lat="45.575164" lon="14.0058104"><ele>531.6666666666666</ele><time>2026-05-05T11:53:51.273Z</time></trkpt><trkpt lat="45.5752851" lon="14.005661"><ele>531.0</ele><time>2026-05-05T11:53:52.273Z</time></trkpt><trkpt lat="45.5754026" lon="14.005515"><ele>530.75</ele><time>2026-05-05T11:53:53.273Z</time></trkpt><trkpt lat="45.5755222" lon="14.0053719"><ele>530.5</ele><time>2026-05-05T11:53:54.273Z</time></trkpt><trkpt lat="45.5756337" lon="14.0052326"><ele>530.25</ele><time>2026-05-05T11:53:55.273Z</time></trkpt><trkpt lat="45.57574" lon="14.0050913"><ele>530.0</ele><time>2026-05-05T11:53:56.273Z</time></trkpt><trkpt lat="45.5758364" lon="14.0049483"><ele>529.25</ele><time>2026-05-05T11:53:57.273Z</time></trkpt><trkpt lat="45.5759303" lon="14.0048114"><ele>528.5</ele><time>2026-05-05T11:53:58.273Z</time></trkpt><trkpt lat="45.5760136" lon="14.0046846"><ele>527.75</ele><time>2026-05-05T11:53:59.273Z</time></trkpt><trkpt lat="45.5760941" lon="14.0045634"><ele>527.0</ele><time>2026-05-05T11:54:00.273Z</time></trkpt><trkpt lat="45.5761688" lon="14.0044447"><ele>527.2</ele><time>2026-05-05T11:54:01.272Z</time></trkpt><trkpt lat="45.5762421" lon="14.004323"><ele>527.4000000000001</ele><time>2026-05-05T11:54:02.273Z</time></trkpt><trkpt lat="45.5763169" lon="14.0042044"><ele>527.5999999999999</ele><time>2026-05-05T11:54:03.272Z</time></trkpt><trkpt lat="45.5763903" lon="14.0040898"><ele>527.8</ele><time>2026-05-05T11:54:04.273Z</time></trkpt><trkpt lat="45.576463" lon="14.0039732"><ele>528.0</ele><time>2026-05-05T11:54:05.273Z</time></trkpt><trkpt lat="45.5765345" lon="14.0038562"><ele>528.0</ele><time>2026-05-05T11:54:06.272Z</time></trkpt><trkpt lat="45.5766063" lon="14.00374"><ele>528.0</ele><time>2026-05-05T11:54:07.272Z</time></trkpt><trkpt lat="45.576685" lon="14.0036211"><ele>528.0</ele><time>2026-05-05T11:54:08.273Z</time></trkpt><trkpt lat="45.5767619" lon="14.0034989"><ele>528.0</ele><time>2026-05-05T11:54:09.273Z</time></trkpt><trkpt lat="45.5768388" lon="14.0033747"><ele>528.0</ele><time>2026-05-05T11:54:10.273Z</time></trkpt><trkpt lat="45.5769182" lon="14.0032466"><ele>528.0</ele><time>2026-05-05T11:54:11.272Z</time></trkpt><trkpt lat="45.5770004" lon="14.0031126"><ele>528.0</ele><time>2026-05-05T11:54:12.272Z</time></trkpt><trkpt lat="45.5770833" lon="14.0029791"><ele>528.0</ele><time>2026-05-05T11:54:13.273Z</time></trkpt><trkpt lat="45.5771699" lon="14.0028428"><ele>528.0</ele><time>2026-05-05T11:54:14.273Z</time></trkpt><trkpt lat="45.5772574" lon="14.0027046"><ele>528.0</ele><time>2026-05-05T11:54:15.272Z</time></trkpt><trkpt lat="45.5773453" lon="14.0025624"><ele>528.0</ele><time>2026-05-05T11:54:16.273Z</time></trkpt><trkpt lat="45.5774352" lon="14.0024278"><ele>528.0</ele><time>2026-05-05T11:54:17.272Z</time></trkpt><trkpt lat="45.577529" lon="14.0022906"><ele>527.25</ele><time>2026-05-05T11:54:18.273Z</time></trkpt><trkpt lat="45.5776299" lon="14.0021597"><ele>526.5</ele><time>2026-05-05T11:54:19.273Z</time></trkpt><trkpt lat="45.5777329" lon="14.0020306"><ele>525.75</ele><time>2026-05-05T11:54:20.273Z</time></trkpt><trkpt lat="45.5778365" lon="14.0019028"><ele>525.0</ele><time>2026-05-05T11:54:21.273Z</time></trkpt><trkpt lat="45.5779463" lon="14.0017806"><ele>524.0</ele><time>2026-05-05T11:54:22.272Z</time></trkpt><trkpt lat="45.578052" lon="14.0016583"><ele>523.0</ele><time>2026-05-05T11:54:23.273Z</time></trkpt><trkpt lat="45.5781496" lon="14.0015274"><ele>522.0</ele><time>2026-05-05T11:54:24.273Z</time></trkpt><trkpt lat="45.5782403" lon="14.00139"><ele>521.0</ele><time>2026-05-05T11:54:25.273Z</time></trkpt><trkpt lat="45.5783266" lon="14.0012517"><ele>521.0</ele><time>2026-05-05T11:54:26.273Z</time></trkpt><trkpt lat="45.5784085" lon="14.001107"><ele>521.0</ele><time>2026-05-05T11:54:27.273Z</time></trkpt><trkpt lat="45.5784883" lon="14.0009635"><ele>521.0</ele><time>2026-05-05T11:54:28.272Z</time></trkpt><trkpt lat="45.5785696" lon="14.0008194"><ele>521.0</ele><time>2026-05-05T11:54:29.272Z</time></trkpt><trkpt lat="45.5786541" lon="14.000678"><ele>520.0</ele><time>2026-05-05T11:54:30.273Z</time></trkpt><trkpt lat="45.5787372" lon="14.0005459"><ele>519.0</ele><time>2026-05-05T11:54:31.273Z</time></trkpt><trkpt lat="45.5788196" lon="14.0004198"><ele>518.0</ele><time>2026-05-05T11:54:32.273Z</time></trkpt><trkpt lat="45.5789" lon="14.000297"><ele>517.0</ele><time>2026-05-05T11:54:33.273Z</time></trkpt><trkpt lat="45.5789843" lon="14.0001802"><ele>517.0</ele><time>2026-05-05T11:54:34.273Z</time></trkpt><trkpt lat="45.5790738" lon="14.0000639"><ele>517.0</ele><time>2026-05-05T11:54:35.272Z</time></trkpt><trkpt lat="45.5791673" lon="13.9999514"><ele>517.0</ele><time>2026-05-05T11:54:36.273Z</time></trkpt><trkpt lat="45.5792628" lon="13.9998287"><ele>517.0</ele><time>2026-05-05T11:54:37.273Z</time></trkpt><trkpt lat="45.5793504" lon="13.9996987"><ele>517.0</ele><time>2026-05-05T11:54:38.273Z</time></trkpt><trkpt lat="45.5794366" lon="13.9995623"><ele>517.0</ele><time>2026-05-05T11:54:39.272Z</time></trkpt><trkpt lat="45.5795122" lon="13.9994218"><ele>517.0</ele><time>2026-05-05T11:54:40.272Z</time></trkpt><trkpt lat="45.5795789" lon="13.9992804"><ele>517.0</ele><time>2026-05-05T11:54:41.273Z</time></trkpt><trkpt lat="45.5796358" lon="13.999138"><ele>517.5</ele><time>2026-05-05T11:54:42.272Z</time></trkpt><trkpt lat="45.579689" lon="13.9989957"><ele>518.0</ele><time>2026-05-05T11:54:43.273Z</time></trkpt><trkpt lat="45.5797406" lon="13.9988536"><ele>518.5</ele><time>2026-05-05T11:54:44.273Z</time></trkpt><trkpt lat="45.5797939" lon="13.9987101"><ele>519.0</ele><time>2026-05-05T11:54:45.273Z</time></trkpt><trkpt lat="45.5798477" lon="13.9985643"><ele>519.0</ele><time>2026-05-05T11:54:46.273Z</time></trkpt><trkpt lat="45.5798975" lon="13.9984119"><ele>519.0</ele><time>2026-05-05T11:54:47.273Z</time></trkpt><trkpt lat="45.5799498" lon="13.9982556"><ele>519.0</ele><time>2026-05-05T11:54:48.272Z</time></trkpt><trkpt lat="45.5800014" lon="13.9980974"><ele>519.0</ele><time>2026-05-05T11:54:49.273Z</time></trkpt><trkpt lat="45.5800559" lon="13.9979393"><ele>517.75</ele><time>2026-05-05T11:54:50.272Z</time></trkpt><trkpt lat="45.5801138" lon="13.9977773"><ele>516.5</ele><time>2026-05-05T11:54:51.273Z</time></trkpt><trkpt lat="45.5801704" lon="13.997612"><ele>515.25</ele><time>2026-05-05T11:54:52.273Z</time></trkpt><trkpt lat="45.5802253" lon="13.9974473"><ele>514.0</ele><time>2026-05-05T11:54:53.272Z</time></trkpt><trkpt lat="45.5802835" lon="13.997284"><ele>514.0</ele><time>2026-05-05T11:54:54.273Z</time></trkpt><trkpt lat="45.5803428" lon="13.9971215"><ele>514.0</ele><time>2026-05-05T11:54:55.273Z</time></trkpt><trkpt lat="45.580405" lon="13.9969627"><ele>514.0</ele><time>2026-05-05T11:54:56.273Z</time></trkpt><trkpt lat="45.5804706" lon="13.9968089"><ele>514.0</ele><time>2026-05-05T11:54:57.272Z</time></trkpt><trkpt lat="45.5805452" lon="13.9966642"><ele>513.75</ele><time>2026-05-05T11:54:58.272Z</time></trkpt><trkpt lat="45.5806325" lon="13.9965268"><ele>513.5</ele><time>2026-05-05T11:54:59.272Z</time></trkpt><trkpt lat="45.5807322" lon="13.9963905"><ele>513.25</ele><time>2026-05-05T11:55:00.273Z</time></trkpt><trkpt lat="45.580834" lon="13.9962535"><ele>513.0</ele><time>2026-05-05T11:55:01.273Z</time></trkpt><trkpt lat="45.5809446" lon="13.9961223"><ele>513.0</ele><time>2026-05-05T11:55:02.273Z</time></trkpt><trkpt lat="45.5810572" lon="13.9959932"><ele>513.0</ele><time>2026-05-05T11:55:03.272Z</time></trkpt><trkpt lat="45.5811706" lon="13.9958583"><ele>513.0</ele><time>2026-05-05T11:55:04.272Z</time></trkpt><trkpt lat="45.5812808" lon="13.9957076"><ele>513.0</ele><time>2026-05-05T11:55:05.273Z</time></trkpt><trkpt lat="45.5813837" lon="13.99554"><ele>511.33333333333337</ele><time>2026-05-05T11:55:06.272Z</time></trkpt><trkpt lat="45.5814758" lon="13.995356"><ele>509.6666666666667</ele><time>2026-05-05T11:55:07.273Z</time></trkpt><trkpt lat="45.5815609" lon="13.9951542"><ele>508.0</ele><time>2026-05-05T11:55:08.273Z</time></trkpt><trkpt lat="45.5816388" lon="13.9949452"><ele>506.6666666666667</ele><time>2026-05-05T11:55:09.272Z</time></trkpt><trkpt lat="45.5817111" lon="13.9947357"><ele>505.33333333333337</ele><time>2026-05-05T11:55:10.273Z</time></trkpt><trkpt lat="45.5817803" lon="13.9945258"><ele>504.0</ele><time>2026-05-05T11:55:11.272Z</time></trkpt><trkpt lat="45.5818473" lon="13.9943134"><ele>504.33333333333337</ele><time>2026-05-05T11:55:12.273Z</time></trkpt><trkpt lat="45.5819172" lon="13.9941143"><ele>504.6666666666667</ele><time>2026-05-05T11:55:13.273Z</time></trkpt><trkpt lat="45.5819875" lon="13.993915"><ele>505.0</ele><time>2026-05-05T11:55:14.272Z</time></trkpt><trkpt lat="45.5820546" lon="13.9937124"><ele>506.33333333333337</ele><time>2026-05-05T11:55:15.273Z</time></trkpt><trkpt lat="45.5821207" lon="13.9935186"><ele>507.66666666666663</ele><time>2026-05-05T11:55:16.273Z</time></trkpt><trkpt lat="45.5821856" lon="13.9933223"><ele>509.0</ele><time>2026-05-05T11:55:17.273Z</time></trkpt><trkpt lat="45.5822504" lon="13.9931286"><ele>509.25</ele><time>2026-05-05T11:55:18.272Z</time></trkpt><trkpt lat="45.5823167" lon="13.9929409"><ele>509.5</ele><time>2026-05-05T11:55:19.272Z</time></trkpt><trkpt lat="45.5823785" lon="13.9927564"><ele>509.75</ele><time>2026-05-05T11:55:20.272Z</time></trkpt><trkpt lat="45.5824412" lon="13.9925758"><ele>510.0</ele><time>2026-05-05T11:55:21.273Z</time></trkpt><trkpt lat="45.5825062" lon="13.9923975"><ele>510.0</ele><time>2026-05-05T11:55:22.273Z</time></trkpt><trkpt lat="45.5825687" lon="13.9922166"><ele>510.0</ele><time>2026-05-05T11:55:23.272Z</time></trkpt><trkpt lat="45.5826306" lon="13.992037"><ele>510.0</ele><time>2026-05-05T11:55:24.273Z</time></trkpt><trkpt lat="45.582692" lon="13.9918513"><ele>510.0</ele><time>2026-05-05T11:55:25.272Z</time></trkpt><trkpt lat="45.5827545" lon="13.9916619"><ele>510.0</ele><time>2026-05-05T11:55:26.272Z</time></trkpt><trkpt lat="45.5828157" lon="13.9914655"><ele>510.0</ele><time>2026-05-05T11:55:27.273Z</time></trkpt><trkpt lat="45.5828737" lon="13.9912664"><ele>510.0</ele><time>2026-05-05T11:55:28.273Z</time></trkpt><trkpt lat="45.5829196" lon="13.991061"><ele>512.3333333333334</ele><time>2026-05-05T11:55:29.273Z</time></trkpt><trkpt lat="45.5829569" lon="13.9908572"><ele>514.6666666666667</ele><time>2026-05-05T11:55:30.272Z</time></trkpt><trkpt lat="45.5829873" lon="13.9906407"><ele>517.0</ele><time>2026-05-05T11:55:31.273Z</time></trkpt><trkpt lat="45.5830253" lon="13.9904369"><ele>517.0</ele><time>2026-05-05T11:55:32.272Z</time></trkpt><trkpt lat="45.5830717" lon="13.9902352"><ele>517.0</ele><time>2026-05-05T11:55:33.272Z</time></trkpt><trkpt lat="45.5831288" lon="13.9900397"><ele>517.0</ele><time>2026-05-05T11:55:34.272Z</time></trkpt><trkpt lat="45.5832057" lon="13.9898548"><ele>517.0</ele><time>2026-05-05T11:55:35.273Z</time></trkpt><trkpt lat="45.5832957" lon="13.9896776"><ele>516.0</ele><time>2026-05-05T11:55:36.273Z</time></trkpt><trkpt lat="45.5833884" lon="13.9895029"><ele>515.0</ele><time>2026-05-05T11:55:37.273Z</time></trkpt><trkpt lat="45.5834824" lon="13.9893223"><ele>514.0</ele><time>2026-05-05T11:55:38.272Z</time></trkpt><trkpt lat="45.5835762" lon="13.9891382"><ele>514.0</ele><time>2026-05-05T11:55:39.273Z</time></trkpt><trkpt lat="45.5836646" lon="13.9889435"><ele>514.0</ele><time>2026-05-05T11:55:40.273Z</time></trkpt><trkpt lat="45.5837458" lon="13.9887449"><ele>514.0</ele><time>2026-05-05T11:55:41.272Z</time></trkpt><trkpt lat="45.583822" lon="13.9885418"><ele>512.6666666666667</ele><time>2026-05-05T11:55:42.273Z</time></trkpt><trkpt lat="45.583896" lon="13.9883397"><ele>511.33333333333337</ele><time>2026-05-05T11:55:43.272Z</time></trkpt><trkpt lat="45.5839752" lon="13.9881367"><ele>510.0</ele><time>2026-05-05T11:55:44.273Z</time></trkpt><trkpt lat="45.5840528" lon="13.9879346"><ele>510.0</ele><time>2026-05-05T11:55:45.272Z</time></trkpt><trkpt lat="45.584131" lon="13.9877317"><ele>510.0</ele><time>2026-05-05T11:55:46.272Z</time></trkpt><trkpt lat="45.5842065" lon="13.9875229"><ele>510.0</ele><time>2026-05-05T11:55:47.273Z</time></trkpt><trkpt lat="45.5842837" lon="13.9873146"><ele>509.66666666666663</ele><time>2026-05-05T11:55:48.273Z</time></trkpt><trkpt lat="45.5843624" lon="13.987106"><ele>509.3333333333333</ele><time>2026-05-05T11:55:49.272Z</time></trkpt><trkpt lat="45.5844422" lon="13.9868978"><ele>509.0</ele><time>2026-05-05T11:55:50.273Z</time></trkpt><trkpt lat="45.5845259" lon="13.9866905"><ele>507.66666666666663</ele><time>2026-05-05T11:55:51.273Z</time></trkpt><trkpt lat="45.5846224" lon="13.9864861"><ele>506.33333333333337</ele><time>2026-05-05T11:55:52.273Z</time></trkpt><trkpt lat="45.5847262" lon="13.9862967"><ele>505.0</ele><time>2026-05-05T11:55:53.272Z</time></trkpt><trkpt lat="45.5848449" lon="13.9861271"><ele>505.0</ele><time>2026-05-05T11:55:54.272Z</time></trkpt><trkpt lat="45.5849735" lon="13.9859753"><ele>505.0</ele><time>2026-05-05T11:55:55.273Z</time></trkpt><trkpt lat="45.5851145" lon="13.9858438"><ele>505.0</ele><time>2026-05-05T11:55:56.272Z</time></trkpt><trkpt lat="45.5852554" lon="13.9857278"><ele>503.0</ele><time>2026-05-05T11:55:57.273Z</time></trkpt><trkpt lat="45.5853923" lon="13.9856186"><ele>501.0</ele><time>2026-05-05T11:55:58.272Z</time></trkpt><trkpt lat="45.5855318" lon="13.9855045"><ele>499.0</ele><time>2026-05-05T11:55:59.273Z</time></trkpt><trkpt lat="45.5856671" lon="13.9853772"><ele>499.0</ele><time>2026-05-05T11:56:00.273Z</time></trkpt><trkpt lat="45.5858018" lon="13.9852395"><ele>499.0</ele><time>2026-05-05T11:56:01.273Z</time></trkpt><trkpt lat="45.5859303" lon="13.9850795"><ele>499.0</ele><time>2026-05-05T11:56:02.273Z</time></trkpt><trkpt lat="45.5860468" lon="13.9848999"><ele>499.33333333333337</ele><time>2026-05-05T11:56:03.273Z</time></trkpt><trkpt lat="45.5861492" lon="13.9847097"><ele>499.66666666666663</ele><time>2026-05-05T11:56:04.273Z</time></trkpt><trkpt lat="45.5862394" lon="13.9845153"><ele>500.0</ele><time>2026-05-05T11:56:05.273Z</time></trkpt><trkpt lat="45.5863297" lon="13.984317"><ele>500.0</ele><time>2026-05-05T11:56:06.272Z</time></trkpt><trkpt lat="45.5864201" lon="13.9841186"><ele>500.0</ele><time>2026-05-05T11:56:07.273Z</time></trkpt><trkpt lat="45.5865132" lon="13.9839256"><ele>500.0</ele><time>2026-05-05T11:56:08.273Z</time></trkpt><trkpt lat="45.5866022" lon="13.9837369"><ele>500.0</ele><time>2026-05-05T11:56:09.273Z</time></trkpt><trkpt lat="45.5866886" lon="13.9835582"><ele>500.0</ele><time>2026-05-05T11:56:10.272Z</time></trkpt><trkpt lat="45.5867799" lon="13.9833968"><ele>500.0</ele><time>2026-05-05T11:56:11.273Z</time></trkpt><trkpt lat="45.5868797" lon="13.9832513"><ele>500.0</ele><time>2026-05-05T11:56:12.273Z</time></trkpt><trkpt lat="45.586987" lon="13.9831231"><ele>499.0</ele><time>2026-05-05T11:56:13.273Z</time></trkpt><trkpt lat="45.5871052" lon="13.9830059"><ele>498.0</ele><time>2026-05-05T11:56:14.273Z</time></trkpt><trkpt lat="45.5872233" lon="13.9828939"><ele>497.0</ele><time>2026-05-05T11:56:15.273Z</time></trkpt><trkpt lat="45.5873425" lon="13.9827795"><ele>496.0</ele><time>2026-05-05T11:56:16.273Z</time></trkpt><trkpt lat="45.587466" lon="13.9826627"><ele>496.0</ele><time>2026-05-05T11:56:17.273Z</time></trkpt><trkpt lat="45.5875912" lon="13.9825453"><ele>496.0</ele><time>2026-05-05T11:56:18.273Z</time></trkpt><trkpt lat="45.5877145" lon="13.982425"><ele>496.0</ele><time>2026-05-05T11:56:19.273Z</time></trkpt><trkpt lat="45.5878388" lon="13.9823039"><ele>496.0</ele><time>2026-05-05T11:56:20.273Z</time></trkpt><trkpt lat="45.5879667" lon="13.9821819"><ele>495.33333333333337</ele><time>2026-05-05T11:56:21.272Z</time></trkpt><trkpt lat="45.5880969" lon="13.9820595"><ele>494.66666666666663</ele><time>2026-05-05T11:56:22.273Z</time></trkpt><trkpt lat="45.5882252" lon="13.9819364"><ele>494.0</ele><time>2026-05-05T11:56:23.273Z</time></trkpt><trkpt lat="45.5883539" lon="13.9818144"><ele>494.0</ele><time>2026-05-05T11:56:24.273Z</time></trkpt><trkpt lat="45.5884876" lon="13.9816933"><ele>494.0</ele><time>2026-05-05T11:56:25.273Z</time></trkpt><trkpt lat="45.5886238" lon="13.9815692"><ele>494.0</ele><time>2026-05-05T11:56:26.273Z</time></trkpt><trkpt lat="45.5887611" lon="13.9814362"><ele>495.3333333333333</ele><time>2026-05-05T11:56:27.273Z</time></trkpt><trkpt lat="45.588902" lon="13.9812994"><ele>496.66666666666663</ele><time>2026-05-05T11:56:28.272Z</time></trkpt><trkpt lat="45.5890415" lon="13.9811623"><ele>498.0</ele><time>2026-05-05T11:56:29.273Z</time></trkpt><trkpt lat="45.5891834" lon="13.9810239"><ele>498.0</ele><time>2026-05-05T11:56:30.273Z</time></trkpt><trkpt lat="45.5893211" lon="13.9808854"><ele>498.0</ele><time>2026-05-05T11:56:31.273Z</time></trkpt><trkpt lat="45.5894609" lon="13.9807557"><ele>498.0</ele><time>2026-05-05T11:56:32.272Z</time></trkpt><trkpt lat="45.5895989" lon="13.980623"><ele>497.0</ele><time>2026-05-05T11:56:33.272Z</time></trkpt><trkpt lat="45.5897354" lon="13.9804949"><ele>496.0</ele><time>2026-05-05T11:56:34.273Z</time></trkpt><trkpt lat="45.5898662" lon="13.9803677"><ele>495.0</ele><time>2026-05-05T11:56:35.273Z</time></trkpt><trkpt lat="45.5899975" lon="13.9802421"><ele>495.0</ele><time>2026-05-05T11:56:36.273Z</time></trkpt><trkpt lat="45.5901322" lon="13.9801201"><ele>495.0</ele><time>2026-05-05T11:56:37.272Z</time></trkpt><trkpt lat="45.5902653" lon="13.9799875"><ele>495.0</ele><time>2026-05-05T11:56:38.273Z</time></trkpt><trkpt lat="45.590397" lon="13.9798594"><ele>496.33333333333337</ele><time>2026-05-05T11:56:39.273Z</time></trkpt><trkpt lat="45.590533" lon="13.9797276"><ele>497.6666666666667</ele><time>2026-05-05T11:56:40.273Z</time></trkpt><trkpt lat="45.59067" lon="13.9795937"><ele>499.0</ele><time>2026-05-05T11:56:41.273Z</time></trkpt><trkpt lat="45.5908038" lon="13.979467"><ele>499.0</ele><time>2026-05-05T11:56:42.272Z</time></trkpt><trkpt lat="45.5909397" lon="13.9793366"><ele>499.0</ele><time>2026-05-05T11:56:43.272Z</time></trkpt><trkpt lat="45.5910778" lon="13.9792081"><ele>499.0</ele><time>2026-05-05T11:56:44.273Z</time></trkpt><trkpt lat="45.591216" lon="13.9790795"><ele>497.6666666666667</ele><time>2026-05-05T11:56:45.272Z</time></trkpt><trkpt lat="45.5913529" lon="13.9789492"><ele>496.33333333333337</ele><time>2026-05-05T11:56:46.273Z</time></trkpt><trkpt lat="45.5914912" lon="13.9788161"><ele>495.0</ele><time>2026-05-05T11:56:47.273Z</time></trkpt><trkpt lat="45.5916354" lon="13.9786748"><ele>495.0</ele><time>2026-05-05T11:56:48.273Z</time></trkpt><trkpt lat="45.5917864" lon="13.9785285"><ele>495.0</ele><time>2026-05-05T11:56:49.273Z</time></trkpt><trkpt lat="45.5919326" lon="13.978386"><ele>495.0</ele><time>2026-05-05T11:56:50.273Z</time></trkpt><trkpt lat="45.5920784" lon="13.978248"><ele>495.33333333333337</ele><time>2026-05-05T11:56:51.273Z</time></trkpt><trkpt lat="45.5922155" lon="13.978104"><ele>495.6666666666667</ele><time>2026-05-05T11:56:52.273Z</time></trkpt><trkpt lat="45.5923525" lon="13.9779574"><ele>496.0</ele><time>2026-05-05T11:56:53.272Z</time></trkpt><trkpt lat="45.5924857" lon="13.9777991"><ele>496.0</ele><time>2026-05-05T11:56:54.272Z</time></trkpt><trkpt lat="45.5926093" lon="13.9776311"><ele>496.0</ele><time>2026-05-05T11:56:55.273Z</time></trkpt><trkpt lat="45.5927238" lon="13.9774463"><ele>496.0</ele><time>2026-05-05T11:56:56.273Z</time></trkpt><trkpt lat="45.5928351" lon="13.9772543"><ele>496.33333333333337</ele><time>2026-05-05T11:56:57.273Z</time></trkpt><trkpt lat="45.5929364" lon="13.9770564"><ele>496.66666666666663</ele><time>2026-05-05T11:56:58.272Z</time></trkpt><trkpt lat="45.5930292" lon="13.9768567"><ele>497.0</ele><time>2026-05-05T11:56:59.273Z</time></trkpt><trkpt lat="45.5931161" lon="13.9766643"><ele>496.0</ele><time>2026-05-05T11:57:00.272Z</time></trkpt><trkpt lat="45.593202" lon="13.976465"><ele>495.0</ele><time>2026-05-05T11:57:01.272Z</time></trkpt><trkpt lat="45.5932868" lon="13.9762666"><ele>494.0</ele><time>2026-05-05T11:57:02.273Z</time></trkpt><trkpt lat="45.593372" lon="13.9760683"><ele>494.0</ele><time>2026-05-05T11:57:03.273Z</time></trkpt><trkpt lat="45.593456" lon="13.9758765"><ele>494.0</ele><time>2026-05-05T11:57:04.272Z</time></trkpt><trkpt lat="45.5935362" lon="13.9756927"><ele>494.0</ele><time>2026-05-05T11:57:05.273Z</time></trkpt><trkpt lat="45.5936137" lon="13.9755142"><ele>496.0</ele><time>2026-05-05T11:57:06.273Z</time></trkpt><trkpt lat="45.5936875" lon="13.9753468"><ele>498.0</ele><time>2026-05-05T11:57:07.272Z</time></trkpt><trkpt lat="45.5937513" lon="13.9751958"><ele>500.0</ele><time>2026-05-05T11:57:08.272Z</time></trkpt><trkpt lat="45.5938163" lon="13.9750451"><ele>502.0</ele><time>2026-05-05T11:57:09.272Z</time></trkpt><trkpt lat="45.593884" lon="13.9748897"><ele>502.0</ele><time>2026-05-05T11:57:10.272Z</time></trkpt><trkpt lat="45.5939483" lon="13.9747352"><ele>502.0</ele><time>2026-05-05T11:57:11.272Z</time></trkpt><trkpt lat="45.5940133" lon="13.9745854"><ele>502.0</ele><time>2026-05-05T11:57:12.273Z</time></trkpt><trkpt lat="45.5940716" lon="13.9744459"><ele>502.0</ele><time>2026-05-05T11:57:13.273Z</time></trkpt><trkpt lat="45.5941318" lon="13.974305"><ele>502.25</ele><time>2026-05-05T11:57:14.272Z</time></trkpt><trkpt lat="45.5941928" lon="13.9741636"><ele>502.5</ele><time>2026-05-05T11:57:15.273Z</time></trkpt><trkpt lat="45.5942553" lon="13.97402"><ele>502.75</ele><time>2026-05-05T11:57:16.273Z</time></trkpt><trkpt lat="45.5943185" lon="13.9738736"><ele>503.0</ele><time>2026-05-05T11:57:17.273Z</time></trkpt><trkpt lat="45.5943864" lon="13.9737241"><ele>503.0</ele><time>2026-05-05T11:57:18.272Z</time></trkpt><trkpt lat="45.594454" lon="13.9735667"><ele>503.0</ele><time>2026-05-05T11:57:19.273Z</time></trkpt><trkpt lat="45.5945216" lon="13.9734085"><ele>503.0</ele><time>2026-05-05T11:57:20.272Z</time></trkpt><trkpt lat="45.5945887" lon="13.9732516"><ele>503.0</ele><time>2026-05-05T11:57:21.273Z</time></trkpt><trkpt lat="45.5946585" lon="13.9730949"><ele>502.75</ele><time>2026-05-05T11:57:22.272Z</time></trkpt><trkpt lat="45.5947259" lon="13.9729337"><ele>502.5</ele><time>2026-05-05T11:57:23.272Z</time></trkpt><trkpt lat="45.5947934" lon="13.9727673"><ele>502.25</ele><time>2026-05-05T11:57:24.272Z</time></trkpt><trkpt lat="45.5948577" lon="13.9726015"><ele>502.0</ele><time>2026-05-05T11:57:25.273Z</time></trkpt><trkpt lat="45.5949216" lon="13.972433"><ele>502.5</ele><time>2026-05-05T11:57:26.273Z</time></trkpt><trkpt lat="45.5949833" lon="13.972263"><ele>503.0</ele><time>2026-05-05T11:57:27.273Z</time></trkpt><trkpt lat="45.5950457" lon="13.9720885"><ele>503.5</ele><time>2026-05-05T11:57:28.273Z</time></trkpt><trkpt lat="45.5951043" lon="13.9719164"><ele>504.0</ele><time>2026-05-05T11:57:29.272Z</time></trkpt><trkpt lat="45.5951584" lon="13.971741"><ele>504.0</ele><time>2026-05-05T11:57:30.273Z</time></trkpt><trkpt lat="45.5952106" lon="13.9715701"><ele>504.0</ele><time>2026-05-05T11:57:31.272Z</time></trkpt><trkpt lat="45.5952658" lon="13.9713941"><ele>504.0</ele><time>2026-05-05T11:57:32.272Z</time></trkpt><trkpt lat="45.5953197" lon="13.971224"><ele>504.0</ele><time>2026-05-05T11:57:33.273Z</time></trkpt><trkpt lat="45.5953731" lon="13.9710509"><ele>504.75</ele><time>2026-05-05T11:57:34.273Z</time></trkpt><trkpt lat="45.5954269" lon="13.9708757"><ele>505.5</ele><time>2026-05-05T11:57:35.273Z</time></trkpt><trkpt lat="45.5954789" lon="13.970703"><ele>506.25</ele><time>2026-05-05T11:57:36.272Z</time></trkpt><trkpt lat="45.5955309" lon="13.9705335"><ele>507.0</ele><time>2026-05-05T11:57:37.273Z</time></trkpt><trkpt lat="45.5955837" lon="13.9703669"><ele>507.0</ele><time>2026-05-05T11:57:38.273Z</time></trkpt><trkpt lat="45.5956403" lon="13.9701876"><ele>507.0</ele><time>2026-05-05T11:57:39.272Z</time></trkpt><trkpt lat="45.5956983" lon="13.9699986"><ele>507.0</ele><time>2026-05-05T11:57:40.272Z</time></trkpt><trkpt lat="45.5957596" lon="13.9698058"><ele>507.0</ele><time>2026-05-05T11:57:41.272Z</time></trkpt><trkpt lat="45.5958194" lon="13.969615"><ele>505.33333333333337</ele><time>2026-05-05T11:57:42.273Z</time></trkpt><trkpt lat="45.5958834" lon="13.9694082"><ele>503.6666666666667</ele><time>2026-05-05T11:57:43.273Z</time></trkpt><trkpt lat="45.5959489" lon="13.9691975"><ele>502.0</ele><time>2026-05-05T11:57:44.273Z</time></trkpt><trkpt lat="45.5960125" lon="13.9689839"><ele>500.6666666666667</ele><time>2026-05-05T11:57:45.272Z</time></trkpt><trkpt lat="45.596078" lon="13.9687708"><ele>499.33333333333337</ele><time>2026-05-05T11:57:46.273Z</time></trkpt><trkpt lat="45.5961449" lon="13.9685581"><ele>498.0</ele><time>2026-05-05T11:57:47.273Z</time></trkpt><trkpt lat="45.5962097" lon="13.9683406"><ele>498.0</ele><time>2026-05-05T11:57:48.273Z</time></trkpt><trkpt lat="45.596276" lon="13.9681297"><ele>498.0</ele><time>2026-05-05T11:57:49.273Z</time></trkpt><trkpt lat="45.5963378" lon="13.9679224"><ele>498.0</ele><time>2026-05-05T11:57:50.273Z</time></trkpt><trkpt lat="45.5963996" lon="13.9677227"><ele>497.66666666666663</ele><time>2026-05-05T11:57:51.272Z</time></trkpt><trkpt lat="45.5964546" lon="13.9675177"><ele>497.3333333333333</ele><time>2026-05-05T11:57:52.272Z</time></trkpt><trkpt lat="45.5965005" lon="13.9673131"><ele>497.0</ele><time>2026-05-05T11:57:53.273Z</time></trkpt><trkpt lat="45.5965367" lon="13.9671014"><ele>497.0</ele><time>2026-05-05T11:57:54.272Z</time></trkpt><trkpt lat="45.5965689" lon="13.9668876"><ele>497.0</ele><time>2026-05-05T11:57:55.273Z</time></trkpt><trkpt lat="45.5965977" lon="13.9666601"><ele>497.0</ele><time>2026-05-05T11:57:56.272Z</time></trkpt><trkpt lat="45.5966288" lon="13.9664398"><ele>496.66666666666663</ele><time>2026-05-05T11:57:57.273Z</time></trkpt><trkpt lat="45.596666" lon="13.9662237"><ele>496.33333333333337</ele><time>2026-05-05T11:57:58.272Z</time></trkpt><trkpt lat="45.5967139" lon="13.9660141"><ele>496.0</ele><time>2026-05-05T11:57:59.273Z</time></trkpt><trkpt lat="45.5967721" lon="13.9658091"><ele>495.6666666666667</ele><time>2026-05-05T11:58:00.273Z</time></trkpt><trkpt lat="45.5968391" lon="13.9656073"><ele>495.33333333333337</ele><time>2026-05-05T11:58:01.272Z</time></trkpt><trkpt lat="45.596908" lon="13.9654089"><ele>495.0</ele><time>2026-05-05T11:58:02.272Z</time></trkpt><trkpt lat="45.5969747" lon="13.9652099"><ele>493.33333333333337</ele><time>2026-05-05T11:58:03.273Z</time></trkpt><trkpt lat="45.5970413" lon="13.9650045"><ele>491.6666666666667</ele><time>2026-05-05T11:58:04.273Z</time></trkpt><trkpt lat="45.5971081" lon="13.9647962"><ele>490.0</ele><time>2026-05-05T11:58:05.272Z</time></trkpt><trkpt lat="45.5971762" lon="13.9645851"><ele>490.0</ele><time>2026-05-05T11:58:06.273Z</time></trkpt><trkpt lat="45.597246" lon="13.9643718"><ele>490.0</ele><time>2026-05-05T11:58:07.273Z</time></trkpt><trkpt lat="45.5973155" lon="13.9641546"><ele>490.0</ele><time>2026-05-05T11:58:08.272Z</time></trkpt><trkpt lat="45.5973871" lon="13.9639367"><ele>490.0</ele><time>2026-05-05T11:58:09.272Z</time></trkpt><trkpt lat="45.5974582" lon="13.9637201"><ele>490.0</ele><time>2026-05-05T11:58:10.272Z</time></trkpt><trkpt lat="45.5975315" lon="13.9635033"><ele>490.0</ele><time>2026-05-05T11:58:11.272Z</time></trkpt><trkpt lat="45.5976033" lon="13.9632914"><ele>489.33333333333337</ele><time>2026-05-05T11:58:12.273Z</time></trkpt><trkpt lat="45.5976713" lon="13.9630831"><ele>488.66666666666663</ele><time>2026-05-05T11:58:13.272Z</time></trkpt><trkpt lat="45.59774" lon="13.9628773"><ele>488.0</ele><time>2026-05-05T11:58:14.273Z</time></trkpt><trkpt lat="45.5978051" lon="13.9626728"><ele>489.3333333333333</ele><time>2026-05-05T11:58:15.273Z</time></trkpt><trkpt lat="45.5978727" lon="13.9624612"><ele>490.66666666666663</ele><time>2026-05-05T11:58:16.272Z</time></trkpt><trkpt lat="45.5979416" lon="13.9622462"><ele>492.0</ele><time>2026-05-05T11:58:17.273Z</time></trkpt><trkpt lat="45.5980156" lon="13.9620288"><ele>492.0</ele><time>2026-05-05T11:58:18.273Z</time></trkpt><trkpt lat="45.5980895" lon="13.961808"><ele>492.0</ele><time>2026-05-05T11:58:19.273Z</time></trkpt><trkpt lat="45.5981665" lon="13.9615862"><ele>492.0</ele><time>2026-05-05T11:58:20.272Z</time></trkpt><trkpt lat="45.598239" lon="13.9613605"><ele>491.66666666666663</ele><time>2026-05-05T11:58:21.273Z</time></trkpt><trkpt lat="45.5983109" lon="13.9611401"><ele>491.3333333333333</ele><time>2026-05-05T11:58:22.272Z</time></trkpt><trkpt lat="45.5983833" lon="13.9609211"><ele>491.0</ele><time>2026-05-05T11:58:23.272Z</time></trkpt><trkpt lat="45.5984589" lon="13.9607081"><ele>490.66666666666663</ele><time>2026-05-05T11:58:24.273Z</time></trkpt><trkpt lat="45.5985405" lon="13.9604953"><ele>490.33333333333337</ele><time>2026-05-05T11:58:25.273Z</time></trkpt><trkpt lat="45.5986306" lon="13.9602789"><ele>490.0</ele><time>2026-05-05T11:58:26.273Z</time></trkpt><trkpt lat="45.5987259" lon="13.9600616"><ele>489.33333333333337</ele><time>2026-05-05T11:58:27.273Z</time></trkpt><trkpt lat="45.5988279" lon="13.9598391"><ele>488.66666666666663</ele><time>2026-05-05T11:58:28.272Z</time></trkpt><trkpt lat="45.5989303" lon="13.9596149"><ele>488.0</ele><time>2026-05-05T11:58:29.273Z</time></trkpt><trkpt lat="45.5990357" lon="13.9593834"><ele>488.3333333333333</ele><time>2026-05-05T11:58:30.272Z</time></trkpt><trkpt lat="45.5991411" lon="13.9591557"><ele>488.66666666666663</ele><time>2026-05-05T11:58:31.273Z</time></trkpt><trkpt lat="45.5992463" lon="13.9589351"><ele>489.0</ele><time>2026-05-05T11:58:32.272Z</time></trkpt><trkpt lat="45.5993497" lon="13.9587166"><ele>489.0</ele><time>2026-05-05T11:58:33.273Z</time></trkpt><trkpt lat="45.5994538" lon="13.958505"><ele>489.0</ele><time>2026-05-05T11:58:34.273Z</time></trkpt><trkpt lat="45.5995553" lon="13.9582947"><ele>489.0</ele><time>2026-05-05T11:58:35.273Z</time></trkpt><trkpt lat="45.5996567" lon="13.9580904"><ele>489.33333333333337</ele><time>2026-05-05T11:58:36.272Z</time></trkpt><trkpt lat="45.5997504" lon="13.9578898"><ele>489.6666666666667</ele><time>2026-05-05T11:58:37.272Z</time></trkpt><trkpt lat="45.5998468" lon="13.957693"><ele>490.0</ele><time>2026-05-05T11:58:38.272Z</time></trkpt><trkpt lat="45.5999446" lon="13.9575021"><ele>489.33333333333337</ele><time>2026-05-05T11:58:39.273Z</time></trkpt><trkpt lat="45.6000467" lon="13.9573219"><ele>488.66666666666663</ele><time>2026-05-05T11:58:40.273Z</time></trkpt><trkpt lat="45.6001583" lon="13.9571495"><ele>488.0</ele><time>2026-05-05T11:58:41.273Z</time></trkpt><trkpt lat="45.6002751" lon="13.9569822"><ele>487.3333333333333</ele><time>2026-05-05T11:58:42.273Z</time></trkpt><trkpt lat="45.6003996" lon="13.9568092"><ele>486.66666666666663</ele><time>2026-05-05T11:58:43.272Z</time></trkpt><trkpt lat="45.6005267" lon="13.9566317"><ele>486.0</ele><time>2026-05-05T11:58:44.273Z</time></trkpt><trkpt lat="45.6006557" lon="13.9564549"><ele>485.33333333333337</ele><time>2026-05-05T11:58:45.273Z</time></trkpt><trkpt lat="45.6007824" lon="13.9562818"><ele>484.6666666666667</ele><time>2026-05-05T11:58:46.272Z</time></trkpt><trkpt lat="45.6009059" lon="13.9561091"><ele>484.0</ele><time>2026-05-05T11:58:47.273Z</time></trkpt><trkpt lat="45.6010284" lon="13.9559399"><ele>484.0</ele><time>2026-05-05T11:58:48.273Z</time></trkpt><trkpt lat="45.60115" lon="13.9557747"><ele>484.0</ele><time>2026-05-05T11:58:49.273Z</time></trkpt><trkpt lat="45.6012722" lon="13.9556083"><ele>484.0</ele><time>2026-05-05T11:58:50.272Z</time></trkpt><trkpt lat="45.6013874" lon="13.9554475"><ele>484.0</ele><time>2026-05-05T11:58:51.273Z</time></trkpt><trkpt lat="45.6015114" lon="13.955281"><ele>484.0</ele><time>2026-05-05T11:58:52.273Z</time></trkpt><trkpt lat="45.6016328" lon="13.9551139"><ele>484.0</ele><time>2026-05-05T11:58:53.273Z</time></trkpt><trkpt lat="45.6017565" lon="13.9549484"><ele>483.6666666666667</ele><time>2026-05-05T11:58:54.273Z</time></trkpt><trkpt lat="45.6018763" lon="13.9547875"><ele>483.33333333333337</ele><time>2026-05-05T11:58:55.273Z</time></trkpt><trkpt lat="45.601996" lon="13.9546214"><ele>483.0</ele><time>2026-05-05T11:58:56.273Z</time></trkpt><trkpt lat="45.6021114" lon="13.9544592"><ele>483.0</ele><time>2026-05-05T11:58:57.272Z</time></trkpt><trkpt lat="45.6022329" lon="13.9542898"><ele>483.0</ele><time>2026-05-05T11:58:58.273Z</time></trkpt><trkpt lat="45.6023455" lon="13.9541333"><ele>483.0</ele><time>2026-05-05T11:58:59.272Z</time></trkpt><trkpt lat="45.6024529" lon="13.9539844"><ele>483.5</ele><time>2026-05-05T11:59:00.273Z</time></trkpt><trkpt lat="45.6025589" lon="13.953841"><ele>484.0</ele><time>2026-05-05T11:59:01.273Z</time></trkpt><trkpt lat="45.6026596" lon="13.9536986"><ele>484.5</ele><time>2026-05-05T11:59:02.272Z</time></trkpt><trkpt lat="45.60276" lon="13.9535617"><ele>485.0</ele><time>2026-05-05T11:59:03.273Z</time></trkpt><trkpt lat="45.6028574" lon="13.9534256"><ele>485.25</ele><time>2026-05-05T11:59:04.273Z</time></trkpt><trkpt lat="45.6029568" lon="13.9532879"><ele>485.5</ele><time>2026-05-05T11:59:05.273Z</time></trkpt><trkpt lat="45.6030564" lon="13.95315"><ele>485.75</ele><time>2026-05-05T11:59:06.272Z</time></trkpt><trkpt lat="45.6031608" lon="13.9530079"><ele>486.0</ele><time>2026-05-05T11:59:07.273Z</time></trkpt><trkpt lat="45.6032667" lon="13.9528671"><ele>486.0</ele><time>2026-05-05T11:59:08.272Z</time></trkpt><trkpt lat="45.6033753" lon="13.9527224"><ele>486.0</ele><time>2026-05-05T11:59:09.273Z</time></trkpt><trkpt lat="45.6034797" lon="13.9525773"><ele>486.0</ele><time>2026-05-05T11:59:10.273Z</time></trkpt><trkpt lat="45.6035824" lon="13.9524364"><ele>486.0</ele><time>2026-05-05T11:59:11.273Z</time></trkpt><trkpt lat="45.6036763" lon="13.9523125"><ele>486.6</ele><time>2026-05-05T11:59:12.272Z</time></trkpt><trkpt lat="45.603762" lon="13.9522026"><ele>487.20000000000005</ele><time>2026-05-05T11:59:13.272Z</time></trkpt><trkpt lat="45.6038418" lon="13.9520992"><ele>487.79999999999995</ele><time>2026-05-05T11:59:14.272Z</time></trkpt><trkpt lat="45.6039141" lon="13.952009"><ele>488.4</ele><time>2026-05-05T11:59:15.273Z</time></trkpt><trkpt lat="45.603982" lon="13.9519324"><ele>489.0</ele><time>2026-05-05T11:59:16.272Z</time></trkpt><trkpt lat="45.6040384" lon="13.9518674"><ele>489.0</ele><time>2026-05-05T11:59:17.273Z</time></trkpt><trkpt lat="45.6041337" lon="13.9517706"><ele>489.0</ele><time>2026-05-05T11:59:19.272Z</time></trkpt><trkpt lat="45.6042119" lon="13.9517109"><ele>489.0</ele><time>2026-05-05T11:59:21.273Z</time></trkpt><trkpt lat="45.6042875" lon="13.9516704"><ele>489.0</ele><time>2026-05-05T11:59:23.273Z</time></trkpt><trkpt lat="45.6043949" lon="13.9516437"><ele>489.0</ele><time>2026-05-05T11:59:25.272Z</time></trkpt><trkpt lat="45.6045008" lon="13.9515831"><ele>488.3333333333333</ele><time>2026-05-05T11:59:27.273Z</time></trkpt><trkpt lat="45.6045424" lon="13.9515144"><ele>487.66666666666663</ele><time>2026-05-05T11:59:28.273Z</time></trkpt><trkpt lat="45.6045865" lon="13.9514284"><ele>487.0</ele><time>2026-05-05T11:59:29.273Z</time></trkpt><trkpt lat="45.6046491" lon="13.9513397"><ele>486.3333333333333</ele><time>2026-05-05T11:59:30.273Z</time></trkpt><trkpt lat="45.6047329" lon="13.9512515"><ele>485.66666666666663</ele><time>2026-05-05T11:59:31.273Z</time></trkpt><trkpt lat="45.6048306" lon="13.9511757"><ele>485.0</ele><time>2026-05-05T11:59:32.273Z</time></trkpt><trkpt lat="45.6049459" lon="13.9511005"><ele>485.0</ele><time>2026-05-05T11:59:33.273Z</time></trkpt><trkpt lat="45.60508" lon="13.9510274"><ele>485.0</ele><time>2026-05-05T11:59:34.273Z</time></trkpt><trkpt lat="45.6052178" lon="13.9509551"><ele>485.0</ele><time>2026-05-05T11:59:35.272Z</time></trkpt><trkpt lat="45.6053567" lon="13.9508909"><ele>485.0</ele><time>2026-05-05T11:59:36.273Z</time></trkpt><trkpt lat="45.6055054" lon="13.9508342"><ele>486.66666666666663</ele><time>2026-05-05T11:59:37.273Z</time></trkpt><trkpt lat="45.60566" lon="13.9507822"><ele>488.33333333333337</ele><time>2026-05-05T11:59:38.273Z</time></trkpt><trkpt lat="45.605817" lon="13.9507359"><ele>490.0</ele><time>2026-05-05T11:59:39.273Z</time></trkpt><trkpt lat="45.605975" lon="13.9506966"><ele>490.0</ele><time>2026-05-05T11:59:40.273Z</time></trkpt><trkpt lat="45.6061324" lon="13.9506584"><ele>490.0</ele><time>2026-05-05T11:59:41.272Z</time></trkpt><trkpt lat="45.6062855" lon="13.9506219"><ele>490.0</ele><time>2026-05-05T11:59:42.272Z</time></trkpt><trkpt lat="45.606435" lon="13.9505886"><ele>490.75</ele><time>2026-05-05T11:59:43.273Z</time></trkpt><trkpt lat="45.6065801" lon="13.9505583"><ele>491.5</ele><time>2026-05-05T11:59:44.272Z</time></trkpt><trkpt lat="45.6067239" lon="13.9505266"><ele>492.25</ele><time>2026-05-05T11:59:45.272Z</time></trkpt><trkpt lat="45.6068675" lon="13.9504938"><ele>493.0</ele><time>2026-05-05T11:59:46.273Z</time></trkpt><trkpt lat="45.6070102" lon="13.950465"><ele>494.0</ele><time>2026-05-05T11:59:47.272Z</time></trkpt><trkpt lat="45.6071533" lon="13.9504333"><ele>495.0</ele><time>2026-05-05T11:59:48.273Z</time></trkpt><trkpt lat="45.6072965" lon="13.9503978"><ele>496.0</ele><time>2026-05-05T11:59:49.272Z</time></trkpt><trkpt lat="45.6074413" lon="13.9503648"><ele>497.0</ele><time>2026-05-05T11:59:50.273Z</time></trkpt><trkpt lat="45.6075855" lon="13.9503317"><ele>497.0</ele><time>2026-05-05T11:59:51.273Z</time></trkpt><trkpt lat="45.6077312" lon="13.9503"><ele>497.0</ele><time>2026-05-05T11:59:52.273Z</time></trkpt><trkpt lat="45.6078768" lon="13.9502644"><ele>497.0</ele><time>2026-05-05T11:59:53.273Z</time></trkpt><trkpt lat="45.6080246" lon="13.9502276"><ele>497.0</ele><time>2026-05-05T11:59:54.273Z</time></trkpt><trkpt lat="45.6081747" lon="13.9501861"><ele>497.66666666666663</ele><time>2026-05-05T11:59:55.273Z</time></trkpt><trkpt lat="45.6083232" lon="13.9501398"><ele>498.33333333333337</ele><time>2026-05-05T11:59:56.273Z</time></trkpt><trkpt lat="45.6084746" lon="13.950093"><ele>499.0</ele><time>2026-05-05T11:59:57.272Z</time></trkpt><trkpt lat="45.6086279" lon="13.9500394"><ele>499.6666666666667</ele><time>2026-05-05T11:59:58.272Z</time></trkpt><trkpt lat="45.6087786" lon="13.9499804"><ele>500.33333333333337</ele><time>2026-05-05T11:59:59.272Z</time></trkpt><trkpt lat="45.6089285" lon="13.9499157"><ele>501.0</ele><time>2026-05-05T12:00:00.272Z</time></trkpt><trkpt lat="45.6090796" lon="13.9498429"><ele>501.0</ele><time>2026-05-05T12:00:01.273Z</time></trkpt><trkpt lat="45.6092297" lon="13.9497641"><ele>501.0</ele><time>2026-05-05T12:00:02.272Z</time></trkpt><trkpt lat="45.6093774" lon="13.9496785"><ele>501.0</ele><time>2026-05-05T12:00:03.272Z</time></trkpt><trkpt lat="45.60952" lon="13.9495856"><ele>502.33333333333337</ele><time>2026-05-05T12:00:04.272Z</time></trkpt><trkpt lat="45.6096631" lon="13.9494867"><ele>503.6666666666667</ele><time>2026-05-05T12:00:05.273Z</time></trkpt><trkpt lat="45.6098015" lon="13.9493836"><ele>505.0</ele><time>2026-05-05T12:00:06.273Z</time></trkpt><trkpt lat="45.609939" lon="13.9492711"><ele>504.6666666666667</ele><time>2026-05-05T12:00:07.272Z</time></trkpt><trkpt lat="45.6100736" lon="13.9491522"><ele>504.33333333333337</ele><time>2026-05-05T12:00:08.273Z</time></trkpt><trkpt lat="45.6102082" lon="13.9490246"><ele>504.0</ele><time>2026-05-05T12:00:09.273Z</time></trkpt><trkpt lat="45.6103475" lon="13.9488905"><ele>502.33333333333337</ele><time>2026-05-05T12:00:10.273Z</time></trkpt><trkpt lat="45.6104809" lon="13.9487492"><ele>500.6666666666667</ele><time>2026-05-05T12:00:11.273Z</time></trkpt><trkpt lat="45.610612" lon="13.9485947"><ele>499.0</ele><time>2026-05-05T12:00:12.272Z</time></trkpt><trkpt lat="45.6107425" lon="13.9484305"><ele>499.33333333333337</ele><time>2026-05-05T12:00:13.273Z</time></trkpt><trkpt lat="45.6108692" lon="13.9482578"><ele>499.66666666666663</ele><time>2026-05-05T12:00:14.273Z</time></trkpt><trkpt lat="45.6109926" lon="13.9480821"><ele>500.0</ele><time>2026-05-05T12:00:15.272Z</time></trkpt><trkpt lat="45.6111139" lon="13.9479023"><ele>500.3333333333333</ele><time>2026-05-05T12:00:16.273Z</time></trkpt><trkpt lat="45.6112284" lon="13.9477103"><ele>500.66666666666663</ele><time>2026-05-05T12:00:17.272Z</time></trkpt><trkpt lat="45.6113349" lon="13.947518"><ele>501.0</ele><time>2026-05-05T12:00:18.272Z</time></trkpt><trkpt lat="45.6114367" lon="13.9473201"><ele>502.0</ele><time>2026-05-05T12:00:19.273Z</time></trkpt><trkpt lat="45.6115316" lon="13.9471224"><ele>503.0</ele><time>2026-05-05T12:00:20.272Z</time></trkpt><trkpt lat="45.6116193" lon="13.9469279"><ele>504.0</ele><time>2026-05-05T12:00:21.273Z</time></trkpt><trkpt lat="45.6117002" lon="13.9467362"><ele>504.66666666666663</ele><time>2026-05-05T12:00:22.273Z</time></trkpt><trkpt lat="45.6117733" lon="13.9465458"><ele>505.3333333333333</ele><time>2026-05-05T12:00:23.273Z</time></trkpt><trkpt lat="45.6118454" lon="13.9463474"><ele>506.0</ele><time>2026-05-05T12:00:24.272Z</time></trkpt><trkpt lat="45.6119176" lon="13.9461431"><ele>506.0</ele><time>2026-05-05T12:00:25.273Z</time></trkpt><trkpt lat="45.6119842" lon="13.9459298"><ele>506.0</ele><time>2026-05-05T12:00:26.273Z</time></trkpt><trkpt lat="45.6120498" lon="13.9457089"><ele>506.0</ele><time>2026-05-05T12:00:27.273Z</time></trkpt><trkpt lat="45.6121121" lon="13.9454919"><ele>507.5</ele><time>2026-05-05T12:00:28.273Z</time></trkpt><trkpt lat="45.612173" lon="13.9452863"><ele>509.0</ele><time>2026-05-05T12:00:29.273Z</time></trkpt><trkpt lat="45.6122294" lon="13.9450924"><ele>510.5</ele><time>2026-05-05T12:00:30.273Z</time></trkpt><trkpt lat="45.6122849" lon="13.9449114"><ele>512.0</ele><time>2026-05-05T12:00:31.273Z</time></trkpt><trkpt lat="45.6123253" lon="13.9447431"><ele>515.0</ele><time>2026-05-05T12:00:32.273Z</time></trkpt><trkpt lat="45.6123617" lon="13.9445808"><ele>518.0</ele><time>2026-05-05T12:00:33.272Z</time></trkpt><trkpt lat="45.6123896" lon="13.9444147"><ele>521.0</ele><time>2026-05-05T12:00:34.273Z</time></trkpt><trkpt lat="45.6124112" lon="13.9442579"><ele>524.0</ele><time>2026-05-05T12:00:35.273Z</time></trkpt><trkpt lat="45.612425" lon="13.9441075"><ele>524.3333333333333</ele><time>2026-05-05T12:00:36.272Z</time></trkpt><trkpt lat="45.6124387" lon="13.9439664"><ele>524.6666666666666</ele><time>2026-05-05T12:00:37.273Z</time></trkpt><trkpt lat="45.6124492" lon="13.9438468"><ele>525.0</ele><time>2026-05-05T12:00:38.272Z</time></trkpt><trkpt lat="45.6124634" lon="13.9437413"><ele>525.3333333333334</ele><time>2026-05-05T12:00:39.272Z</time></trkpt><trkpt lat="45.6124797" lon="13.9436456"><ele>525.6666666666667</ele><time>2026-05-05T12:00:40.272Z</time></trkpt><trkpt lat="45.6125311" lon="13.9434946"><ele>526.0</ele><time>2026-05-05T12:00:42.272Z</time></trkpt><trkpt lat="45.6125411" lon="13.9433356"><ele>526.0</ele><time>2026-05-05T12:00:44.273Z</time></trkpt><trkpt lat="45.6125174" lon="13.943252"><ele>526.0</ele><time>2026-05-05T12:00:45.272Z</time></trkpt><trkpt lat="45.6124793" lon="13.9431662"><ele>526.0</ele><time>2026-05-05T12:00:46.272Z</time></trkpt><trkpt lat="45.612441" lon="13.9430792"><ele>526.0</ele><time>2026-05-05T12:00:47.273Z</time></trkpt><trkpt lat="45.6124102" lon="13.9429724"><ele>526.0</ele><time>2026-05-05T12:00:48.273Z</time></trkpt><trkpt lat="45.6123852" lon="13.9428531"><ele>526.0</ele><time>2026-05-05T12:00:49.273Z</time></trkpt><trkpt lat="45.6123641" lon="13.942735"><ele>526.0</ele><time>2026-05-05T12:00:50.273Z</time></trkpt><trkpt lat="45.6123389" lon="13.9426037"><ele>526.0</ele><time>2026-05-05T12:00:51.272Z</time></trkpt><trkpt lat="45.6123036" lon="13.9424693"><ele>526.0</ele><time>2026-05-05T12:00:52.273Z</time></trkpt><trkpt lat="45.6122622" lon="13.9423264"><ele>526.0</ele><time>2026-05-05T12:00:53.272Z</time></trkpt><trkpt lat="45.6122159" lon="13.9421777"><ele>526.0</ele><time>2026-05-05T12:00:54.272Z</time></trkpt><trkpt lat="45.6121627" lon="13.9420271"><ele>526.0</ele><time>2026-05-05T12:00:55.273Z</time></trkpt><trkpt lat="45.6121005" lon="13.9418778"><ele>526.0</ele><time>2026-05-05T12:00:56.273Z</time></trkpt><trkpt lat="45.6120345" lon="13.9417252"><ele>526.0</ele><time>2026-05-05T12:00:57.273Z</time></trkpt><trkpt lat="45.6119665" lon="13.9415707"><ele>526.0</ele><time>2026-05-05T12:00:58.273Z</time></trkpt><trkpt lat="45.611898" lon="13.9414235"><ele>526.0</ele><time>2026-05-05T12:00:59.272Z</time></trkpt><trkpt lat="45.6118293" lon="13.9412743"><ele>526.0</ele><time>2026-05-05T12:01:00.273Z</time></trkpt><trkpt lat="45.6117582" lon="13.941121"><ele>526.0</ele><time>2026-05-05T12:01:01.273Z</time></trkpt><trkpt lat="45.6116903" lon="13.9409647"><ele>526.0</ele><time>2026-05-05T12:01:02.272Z</time></trkpt><trkpt lat="45.6116261" lon="13.9407987"><ele>524.75</ele><time>2026-05-05T12:01:03.273Z</time></trkpt><trkpt lat="45.6115687" lon="13.9406276"><ele>523.5</ele><time>2026-05-05T12:01:04.273Z</time></trkpt><trkpt lat="45.611512" lon="13.9404542"><ele>522.25</ele><time>2026-05-05T12:01:05.273Z</time></trkpt><trkpt lat="45.6114586" lon="13.9402781"><ele>521.0</ele><time>2026-05-05T12:01:06.273Z</time></trkpt><trkpt lat="45.6114083" lon="13.9401052"><ele>520.5</ele><time>2026-05-05T12:01:07.272Z</time></trkpt><trkpt lat="45.6113654" lon="13.9399302"><ele>520.0</ele><time>2026-05-05T12:01:08.273Z</time></trkpt><trkpt lat="45.6113247" lon="13.9397545"><ele>519.5</ele><time>2026-05-05T12:01:09.273Z</time></trkpt><trkpt lat="45.6112853" lon="13.9395764"><ele>519.0</ele><time>2026-05-05T12:01:10.273Z</time></trkpt><trkpt lat="45.6112443" lon="13.9393945"><ele>518.5</ele><time>2026-05-05T12:01:11.273Z</time></trkpt><trkpt lat="45.6112031" lon="13.9392104"><ele>518.0</ele><time>2026-05-05T12:01:12.273Z</time></trkpt><trkpt lat="45.6111635" lon="13.9390181"><ele>517.5</ele><time>2026-05-05T12:01:13.273Z</time></trkpt><trkpt lat="45.6111218" lon="13.9388231"><ele>517.0</ele><time>2026-05-05T12:01:14.272Z</time></trkpt><trkpt lat="45.6110824" lon="13.9386284"><ele>515.5</ele><time>2026-05-05T12:01:15.273Z</time></trkpt><trkpt lat="45.6110495" lon="13.938437"><ele>514.0</ele><time>2026-05-05T12:01:16.272Z</time></trkpt><trkpt lat="45.6110122" lon="13.9382542"><ele>512.5</ele><time>2026-05-05T12:01:17.272Z</time></trkpt><trkpt lat="45.6109759" lon="13.9380734"><ele>511.0</ele><time>2026-05-05T12:01:18.272Z</time></trkpt><trkpt lat="45.6109397" lon="13.9378899"><ele>510.5</ele><time>2026-05-05T12:01:19.273Z</time></trkpt><trkpt lat="45.6109031" lon="13.9377059"><ele>510.0</ele><time>2026-05-05T12:01:20.273Z</time></trkpt><trkpt lat="45.6108681" lon="13.9375163"><ele>509.5</ele><time>2026-05-05T12:01:21.273Z</time></trkpt><trkpt lat="45.610827" lon="13.9373313"><ele>509.0</ele><time>2026-05-05T12:01:22.273Z</time></trkpt><trkpt lat="45.6107901" lon="13.9371505"><ele>508.4</ele><time>2026-05-05T12:01:23.273Z</time></trkpt><trkpt lat="45.6107527" lon="13.9369816"><ele>507.79999999999995</ele><time>2026-05-05T12:01:24.273Z</time></trkpt><trkpt lat="45.6107198" lon="13.9368334"><ele>507.20000000000005</ele><time>2026-05-05T12:01:25.273Z</time></trkpt><trkpt lat="45.6106892" lon="13.9367015"><ele>506.6</ele><time>2026-05-05T12:01:26.272Z</time></trkpt><trkpt lat="45.6106647" lon="13.9365862"><ele>506.0</ele><time>2026-05-05T12:01:27.273Z</time></trkpt><trkpt lat="45.6106427" lon="13.9364742"><ele>505.20000000000005</ele><time>2026-05-05T12:01:28.273Z</time></trkpt><trkpt lat="45.610623" lon="13.9363627"><ele>504.40000000000003</ele><time>2026-05-05T12:01:29.273Z</time></trkpt><trkpt lat="45.6106109" lon="13.9362536"><ele>503.6</ele><time>2026-05-05T12:01:30.272Z</time></trkpt><trkpt lat="45.6106011" lon="13.9361537"><ele>502.8</ele><time>2026-05-05T12:01:31.273Z</time></trkpt><trkpt lat="45.6105518" lon="13.9359781"><ele>502.0</ele><time>2026-05-05T12:01:33.272Z</time></trkpt><trkpt lat="45.6105021" lon="13.9358717"><ele>501.20000000000005</ele><time>2026-05-05T12:01:34.273Z</time></trkpt><trkpt lat="45.610462" lon="13.9357415"><ele>500.40000000000003</ele><time>2026-05-05T12:01:35.272Z</time></trkpt><trkpt lat="45.6104307" lon="13.9355993"><ele>499.59999999999997</ele><time>2026-05-05T12:01:36.273Z</time></trkpt><trkpt lat="45.6103962" lon="13.935439"><ele>498.79999999999995</ele><time>2026-05-05T12:01:37.272Z</time></trkpt><trkpt lat="45.6103552" lon="13.9352733"><ele>498.0</ele><time>2026-05-05T12:01:38.273Z</time></trkpt><trkpt lat="45.610305" lon="13.9351048"><ele>496.5</ele><time>2026-05-05T12:01:39.273Z</time></trkpt><trkpt lat="45.6102467" lon="13.9349374"><ele>495.0</ele><time>2026-05-05T12:01:40.272Z</time></trkpt><trkpt lat="45.6101824" lon="13.9347693"><ele>493.5</ele><time>2026-05-05T12:01:41.272Z</time></trkpt><trkpt lat="45.610109" lon="13.9345995"><ele>492.0</ele><time>2026-05-05T12:01:42.273Z</time></trkpt><trkpt lat="45.6100321" lon="13.9344316"><ele>492.0</ele><time>2026-05-05T12:01:43.272Z</time></trkpt><trkpt lat="45.6099488" lon="13.9342573"><ele>492.0</ele><time>2026-05-05T12:01:44.273Z</time></trkpt><trkpt lat="45.6098558" lon="13.9340847"><ele>492.0</ele><time>2026-05-05T12:01:45.273Z</time></trkpt><trkpt lat="45.6097565" lon="13.9339167"><ele>491.33333333333337</ele><time>2026-05-05T12:01:46.273Z</time></trkpt><trkpt lat="45.6096504" lon="13.9337422"><ele>490.6666666666667</ele><time>2026-05-05T12:01:47.273Z</time></trkpt><trkpt lat="45.6095487" lon="13.93357"><ele>490.0</ele><time>2026-05-05T12:01:48.273Z</time></trkpt><trkpt lat="45.6094467" lon="13.9334018"><ele>489.5</ele><time>2026-05-05T12:01:49.273Z</time></trkpt><trkpt lat="45.6093603" lon="13.9332344"><ele>489.0</ele><time>2026-05-05T12:01:50.273Z</time></trkpt><trkpt lat="45.6092854" lon="13.9330678"><ele>488.5</ele><time>2026-05-05T12:01:51.273Z</time></trkpt><trkpt lat="45.6092187" lon="13.9329031"><ele>488.0</ele><time>2026-05-05T12:01:52.273Z</time></trkpt><trkpt lat="45.6091616" lon="13.9327499"><ele>487.99999999999994</ele><time>2026-05-05T12:01:53.272Z</time></trkpt><trkpt lat="45.6091142" lon="13.9326144"><ele>488.0</ele><time>2026-05-05T12:01:54.273Z</time></trkpt><trkpt lat="45.6090819" lon="13.9325145"><ele>488.0</ele><time>2026-05-05T12:01:55.273Z</time></trkpt><trkpt lat="45.6090444" lon="13.9323603"><ele>488.0</ele><time>2026-05-05T12:01:57.273Z</time></trkpt><trkpt lat="45.6090279" lon="13.9322607"><ele>487.99999999999994</ele><time>2026-05-05T12:01:59.272Z</time></trkpt><trkpt lat="45.6090234" lon="13.9321482"><ele>488.0</ele><time>2026-05-05T12:02:01.273Z</time></trkpt><trkpt lat="45.6090113" lon="13.9319832"><ele>488.0</ele><time>2026-05-05T12:02:03.272Z</time></trkpt><trkpt lat="45.6089648" lon="13.9318097"><ele>487.99999999999994</ele><time>2026-05-05T12:02:05.272Z</time></trkpt><trkpt lat="45.608941" lon="13.9317091"><ele>487.99999999999994</ele><time>2026-05-05T12:02:06.273Z</time></trkpt><trkpt lat="45.6089271" lon="13.9315909"><ele>488.0</ele><time>2026-05-05T12:02:07.273Z</time></trkpt><trkpt lat="45.608919" lon="13.9314592"><ele>488.0</ele><time>2026-05-05T12:02:08.273Z</time></trkpt><trkpt lat="45.6089107" lon="13.9313168"><ele>488.4</ele><time>2026-05-05T12:02:09.273Z</time></trkpt><trkpt lat="45.6089001" lon="13.9311721"><ele>488.79999999999995</ele><time>2026-05-05T12:02:10.273Z</time></trkpt><trkpt lat="45.6089061" lon="13.9310315"><ele>489.2</ele><time>2026-05-05T12:02:11.273Z</time></trkpt><trkpt lat="45.6089202" lon="13.9308849"><ele>489.6</ele><time>2026-05-05T12:02:12.272Z</time></trkpt><trkpt lat="45.6089397" lon="13.930733"><ele>490.0</ele><time>2026-05-05T12:02:13.272Z</time></trkpt><trkpt lat="45.6089663" lon="13.9305788"><ele>490.75</ele><time>2026-05-05T12:02:14.273Z</time></trkpt><trkpt lat="45.6089962" lon="13.9304189"><ele>491.5</ele><time>2026-05-05T12:02:15.273Z</time></trkpt><trkpt lat="45.6090313" lon="13.9302542"><ele>492.25</ele><time>2026-05-05T12:02:16.272Z</time></trkpt><trkpt lat="45.6090667" lon="13.9300801"><ele>493.0</ele><time>2026-05-05T12:02:17.272Z</time></trkpt><trkpt lat="45.6091031" lon="13.9299074"><ele>494.0</ele><time>2026-05-05T12:02:18.273Z</time></trkpt><trkpt lat="45.6091441" lon="13.9297103"><ele>495.0</ele><time>2026-05-05T12:02:19.273Z</time></trkpt><trkpt lat="45.6091782" lon="13.9295276"><ele>496.0</ele><time>2026-05-05T12:02:20.273Z</time></trkpt><trkpt lat="45.6092191" lon="13.9293369"><ele>497.0</ele><time>2026-05-05T12:02:21.273Z</time></trkpt><trkpt lat="45.6092582" lon="13.9291424"><ele>497.25</ele><time>2026-05-05T12:02:22.273Z</time></trkpt><trkpt lat="45.6092984" lon="13.9289443"><ele>497.5</ele><time>2026-05-05T12:02:23.273Z</time></trkpt><trkpt lat="45.6093383" lon="13.9287531"><ele>497.75</ele><time>2026-05-05T12:02:24.272Z</time></trkpt><trkpt lat="45.6093823" lon="13.9285532"><ele>498.0</ele><time>2026-05-05T12:02:25.273Z</time></trkpt><trkpt lat="45.6094216" lon="13.9283555"><ele>498.25</ele><time>2026-05-05T12:02:26.273Z</time></trkpt><trkpt lat="45.6094648" lon="13.9281552"><ele>498.5</ele><time>2026-05-05T12:02:27.273Z</time></trkpt><trkpt lat="45.6095106" lon="13.9279497"><ele>498.75</ele><time>2026-05-05T12:02:28.272Z</time></trkpt><trkpt lat="45.6095573" lon="13.9277496"><ele>499.0</ele><time>2026-05-05T12:02:29.273Z</time></trkpt><trkpt lat="45.6096086" lon="13.9275437"><ele>502.0</ele><time>2026-05-05T12:02:30.272Z</time></trkpt><trkpt lat="45.6096632" lon="13.927342"><ele>505.0</ele><time>2026-05-05T12:02:31.273Z</time></trkpt><trkpt lat="45.6097189" lon="13.9271442"><ele>508.0</ele><time>2026-05-05T12:02:32.273Z</time></trkpt><trkpt lat="45.6097754" lon="13.9269447"><ele>508.0</ele><time>2026-05-05T12:02:33.273Z</time></trkpt><trkpt lat="45.6098298" lon="13.9267562"><ele>508.0</ele><time>2026-05-05T12:02:34.273Z</time></trkpt><trkpt lat="45.6098837" lon="13.9265704"><ele>508.0</ele><time>2026-05-05T12:02:35.272Z</time></trkpt><trkpt lat="45.609934" lon="13.9263852"><ele>508.0</ele><time>2026-05-05T12:02:36.272Z</time></trkpt><trkpt lat="45.6099811" lon="13.9262023"><ele>508.5</ele><time>2026-05-05T12:02:37.273Z</time></trkpt><trkpt lat="45.6100213" lon="13.9260135"><ele>509.0</ele><time>2026-05-05T12:02:38.272Z</time></trkpt><trkpt lat="45.6100503" lon="13.9258128"><ele>509.5</ele><time>2026-05-05T12:02:39.273Z</time></trkpt><trkpt lat="45.6100703" lon="13.9256014"><ele>510.0</ele><time>2026-05-05T12:02:40.273Z</time></trkpt><trkpt lat="45.610085" lon="13.9253849"><ele>510.33333333333337</ele><time>2026-05-05T12:02:41.272Z</time></trkpt><trkpt lat="45.610088" lon="13.9251704"><ele>510.6666666666667</ele><time>2026-05-05T12:02:42.272Z</time></trkpt><trkpt lat="45.610095" lon="13.924947"><ele>511.0</ele><time>2026-05-05T12:02:43.273Z</time></trkpt><trkpt lat="45.610101" lon="13.9247217"><ele>511.75</ele><time>2026-05-05T12:02:44.272Z</time></trkpt><trkpt lat="45.6101063" lon="13.9245062"><ele>512.5</ele><time>2026-05-05T12:02:45.273Z</time></trkpt><trkpt lat="45.6101128" lon="13.9242942"><ele>513.25</ele><time>2026-05-05T12:02:46.273Z</time></trkpt><trkpt lat="45.610124" lon="13.9240844"><ele>514.0</ele><time>2026-05-05T12:02:47.272Z</time></trkpt><trkpt lat="45.6101388" lon="13.9238783"><ele>514.25</ele><time>2026-05-05T12:02:48.272Z</time></trkpt><trkpt lat="45.610162" lon="13.9236724"><ele>514.5</ele><time>2026-05-05T12:02:49.273Z</time></trkpt><trkpt lat="45.610196" lon="13.9234717"><ele>514.75</ele><time>2026-05-05T12:02:50.273Z</time></trkpt><trkpt lat="45.6102381" lon="13.9232753"><ele>515.0</ele><time>2026-05-05T12:02:51.272Z</time></trkpt><trkpt lat="45.6102881" lon="13.9230792"><ele>515.6666666666666</ele><time>2026-05-05T12:02:52.273Z</time></trkpt><trkpt lat="45.6103487" lon="13.9228868"><ele>516.3333333333334</ele><time>2026-05-05T12:02:53.273Z</time></trkpt><trkpt lat="45.6104199" lon="13.9226975"><ele>517.0</ele><time>2026-05-05T12:02:54.273Z</time></trkpt><trkpt lat="45.6104995" lon="13.9225124"><ele>517.0</ele><time>2026-05-05T12:02:55.273Z</time></trkpt><trkpt lat="45.610586" lon="13.9223319"><ele>517.0</ele><time>2026-05-05T12:02:56.273Z</time></trkpt><trkpt lat="45.6106749" lon="13.9221519"><ele>517.0</ele><time>2026-05-05T12:02:57.273Z</time></trkpt><trkpt lat="45.6107637" lon="13.9219706"><ele>517.0</ele><time>2026-05-05T12:02:58.272Z</time></trkpt><trkpt lat="45.610853" lon="13.921787"><ele>517.0</ele><time>2026-05-05T12:02:59.273Z</time></trkpt><trkpt lat="45.610943" lon="13.9215995"><ele>517.0</ele><time>2026-05-05T12:03:00.272Z</time></trkpt><trkpt lat="45.6110333" lon="13.9214148"><ele>516.6666666666667</ele><time>2026-05-05T12:03:01.273Z</time></trkpt><trkpt lat="45.6111253" lon="13.9212283"><ele>516.3333333333334</ele><time>2026-05-05T12:03:02.272Z</time></trkpt><trkpt lat="45.6112159" lon="13.9210446"><ele>516.0</ele><time>2026-05-05T12:03:03.273Z</time></trkpt><trkpt lat="45.6113046" lon="13.9208621"><ele>516.0</ele><time>2026-05-05T12:03:04.272Z</time></trkpt><trkpt lat="45.6113834" lon="13.9206698"><ele>516.0</ele><time>2026-05-05T12:03:05.273Z</time></trkpt><trkpt lat="45.6114511" lon="13.9204783"><ele>516.0</ele><time>2026-05-05T12:03:06.272Z</time></trkpt><trkpt lat="45.6115085" lon="13.9202736"><ele>515.0</ele><time>2026-05-05T12:03:07.272Z</time></trkpt><trkpt lat="45.6115538" lon="13.920065"><ele>514.0</ele><time>2026-05-05T12:03:08.273Z</time></trkpt><trkpt lat="45.6115836" lon="13.9198576"><ele>513.0</ele><time>2026-05-05T12:03:09.273Z</time></trkpt><trkpt lat="45.6116042" lon="13.9196409"><ele>513.0</ele><time>2026-05-05T12:03:10.273Z</time></trkpt><trkpt lat="45.6116101" lon="13.919426"><ele>513.0</ele><time>2026-05-05T12:03:11.273Z</time></trkpt><trkpt lat="45.6116073" lon="13.9192085"><ele>513.0</ele><time>2026-05-05T12:03:12.272Z</time></trkpt><trkpt lat="45.6116001" lon="13.9189887"><ele>512.3333333333334</ele><time>2026-05-05T12:03:13.273Z</time></trkpt><trkpt lat="45.6115916" lon="13.918759"><ele>511.6666666666667</ele><time>2026-05-05T12:03:14.272Z</time></trkpt><trkpt lat="45.611583" lon="13.9185297"><ele>511.0</ele><time>2026-05-05T12:03:15.273Z</time></trkpt><trkpt lat="45.6115752" lon="13.9182993"><ele>510.0</ele><time>2026-05-05T12:03:16.273Z</time></trkpt><trkpt lat="45.6115747" lon="13.9180627"><ele>509.0</ele><time>2026-05-05T12:03:17.272Z</time></trkpt><trkpt lat="45.6115683" lon="13.9178316"><ele>508.0</ele><time>2026-05-05T12:03:18.273Z</time></trkpt><trkpt lat="45.6115642" lon="13.9176142"><ele>508.0</ele><time>2026-05-05T12:03:19.273Z</time></trkpt><trkpt lat="45.6115581" lon="13.917397"><ele>508.0</ele><time>2026-05-05T12:03:20.273Z</time></trkpt><trkpt lat="45.6115541" lon="13.9171832"><ele>508.0</ele><time>2026-05-05T12:03:21.272Z</time></trkpt><trkpt lat="45.6115515" lon="13.9169792"><ele>508.0</ele><time>2026-05-05T12:03:22.272Z</time></trkpt><trkpt lat="45.6115575" lon="13.9167865"><ele>507.75</ele><time>2026-05-05T12:03:23.273Z</time></trkpt><trkpt lat="45.611573" lon="13.9166033"><ele>507.5</ele><time>2026-05-05T12:03:24.273Z</time></trkpt><trkpt lat="45.6116069" lon="13.9164233"><ele>507.25</ele><time>2026-05-05T12:03:25.273Z</time></trkpt><trkpt lat="45.6116582" lon="13.9162524"><ele>507.0</ele><time>2026-05-05T12:03:26.273Z</time></trkpt><trkpt lat="45.611727" lon="13.9160895"><ele>507.0</ele><time>2026-05-05T12:03:27.272Z</time></trkpt><trkpt lat="45.6118163" lon="13.9159478"><ele>507.0</ele><time>2026-05-05T12:03:28.272Z</time></trkpt><trkpt lat="45.6119178" lon="13.9158251"><ele>507.0</ele><time>2026-05-05T12:03:29.273Z</time></trkpt><trkpt lat="45.6120328" lon="13.9157262"><ele>507.0</ele><time>2026-05-05T12:03:30.272Z</time></trkpt><trkpt lat="45.6121642" lon="13.9156486"><ele>506.5</ele><time>2026-05-05T12:03:31.272Z</time></trkpt><trkpt lat="45.6123001" lon="13.9155993"><ele>506.0</ele><time>2026-05-05T12:03:32.273Z</time></trkpt><trkpt lat="45.6124426" lon="13.9155818"><ele>505.5</ele><time>2026-05-05T12:03:33.272Z</time></trkpt><trkpt lat="45.6125931" lon="13.9155967"><ele>505.0</ele><time>2026-05-05T12:03:34.273Z</time></trkpt><trkpt lat="45.6127443" lon="13.9156337"><ele>505.33333333333337</ele><time>2026-05-05T12:03:35.273Z</time></trkpt><trkpt lat="45.6128967" lon="13.9156707"><ele>505.66666666666663</ele><time>2026-05-05T12:03:36.272Z</time></trkpt><trkpt lat="45.6130474" lon="13.9157156"><ele>506.0</ele><time>2026-05-05T12:03:37.273Z</time></trkpt><trkpt lat="45.6132011" lon="13.9157528"><ele>506.0</ele><time>2026-05-05T12:03:38.272Z</time></trkpt><trkpt lat="45.6133551" lon="13.915794"><ele>506.0</ele><time>2026-05-05T12:03:39.273Z</time></trkpt><trkpt lat="45.6135093" lon="13.9158334"><ele>506.0</ele><time>2026-05-05T12:03:40.272Z</time></trkpt><trkpt lat="45.6136555" lon="13.9158602"><ele>503.3333333333333</ele><time>2026-05-05T12:03:41.272Z</time></trkpt><trkpt lat="45.6138144" lon="13.9158588"><ele>500.66666666666663</ele><time>2026-05-05T12:03:42.272Z</time></trkpt><trkpt lat="45.613981" lon="13.9158318"><ele>498.0</ele><time>2026-05-05T12:03:43.273Z</time></trkpt><trkpt lat="45.6141524" lon="13.9157872"><ele>498.0</ele><time>2026-05-05T12:03:44.272Z</time></trkpt><trkpt lat="45.614326" lon="13.9157246"><ele>498.0</ele><time>2026-05-05T12:03:45.273Z</time></trkpt><trkpt lat="45.6144926" lon="13.9156587"><ele>498.0</ele><time>2026-05-05T12:03:46.273Z</time></trkpt><trkpt lat="45.6146538" lon="13.915596"><ele>498.33333333333337</ele><time>2026-05-05T12:03:47.273Z</time></trkpt><trkpt lat="45.6148102" lon="13.9155345"><ele>498.6666666666667</ele><time>2026-05-05T12:03:48.273Z</time></trkpt><trkpt lat="45.614961" lon="13.9154734"><ele>499.0</ele><time>2026-05-05T12:03:49.273Z</time></trkpt><trkpt lat="45.6151067" lon="13.9154075"><ele>499.0</ele><time>2026-05-05T12:03:50.273Z</time></trkpt><trkpt lat="45.6152454" lon="13.9153374"><ele>499.0</ele><time>2026-05-05T12:03:51.273Z</time></trkpt><trkpt lat="45.6153764" lon="13.9152543"><ele>499.0</ele><time>2026-05-05T12:03:52.273Z</time></trkpt><trkpt lat="45.6154981" lon="13.9151599"><ele>499.0</ele><time>2026-05-05T12:03:53.273Z</time></trkpt><trkpt lat="45.6156118" lon="13.9150559"><ele>496.0</ele><time>2026-05-05T12:03:54.273Z</time></trkpt><trkpt lat="45.6157223" lon="13.914947"><ele>493.0</ele><time>2026-05-05T12:03:55.273Z</time></trkpt><trkpt lat="45.6158265" lon="13.9148273"><ele>490.0</ele><time>2026-05-05T12:03:56.272Z</time></trkpt><trkpt lat="45.6159246" lon="13.9146938"><ele>487.0</ele><time>2026-05-05T12:03:57.272Z</time></trkpt><trkpt lat="45.6160155" lon="13.9145442"><ele>487.0</ele><time>2026-05-05T12:03:58.273Z</time></trkpt><trkpt lat="45.6161043" lon="13.9143759"><ele>487.0</ele><time>2026-05-05T12:03:59.273Z</time></trkpt><trkpt lat="45.6161952" lon="13.9141924"><ele>487.0</ele><time>2026-05-05T12:04:00.273Z</time></trkpt><trkpt lat="45.6162912" lon="13.9140057"><ele>484.6666666666667</ele><time>2026-05-05T12:04:01.273Z</time></trkpt><trkpt lat="45.616387" lon="13.9138133"><ele>482.33333333333337</ele><time>2026-05-05T12:04:02.273Z</time></trkpt><trkpt lat="45.6164913" lon="13.9136152"><ele>480.0</ele><time>2026-05-05T12:04:03.273Z</time></trkpt><trkpt lat="45.6166003" lon="13.9134148"><ele>479.33333333333337</ele><time>2026-05-05T12:04:04.272Z</time></trkpt><trkpt lat="45.6167132" lon="13.9132115"><ele>478.6666666666667</ele><time>2026-05-05T12:04:05.273Z</time></trkpt><trkpt lat="45.6168245" lon="13.9130136"><ele>478.0</ele><time>2026-05-05T12:04:06.273Z</time></trkpt><trkpt lat="45.6169346" lon="13.9128187"><ele>476.33333333333337</ele><time>2026-05-05T12:04:07.272Z</time></trkpt><trkpt lat="45.6170413" lon="13.9126268"><ele>474.66666666666663</ele><time>2026-05-05T12:04:08.273Z</time></trkpt><trkpt lat="45.6171474" lon="13.9124398"><ele>473.0</ele><time>2026-05-05T12:04:09.273Z</time></trkpt><trkpt lat="45.617252" lon="13.9122566"><ele>472.66666666666663</ele><time>2026-05-05T12:04:10.272Z</time></trkpt><trkpt lat="45.6173547" lon="13.9120733"><ele>472.33333333333337</ele><time>2026-05-05T12:04:11.273Z</time></trkpt><trkpt lat="45.6174586" lon="13.9118927"><ele>472.0</ele><time>2026-05-05T12:04:12.273Z</time></trkpt><trkpt lat="45.6175607" lon="13.9117099"><ele>471.0</ele><time>2026-05-05T12:04:13.273Z</time></trkpt><trkpt lat="45.6176614" lon="13.9115298"><ele>470.0</ele><time>2026-05-05T12:04:14.273Z</time></trkpt><trkpt lat="45.6177621" lon="13.9113528"><ele>469.0</ele><time>2026-05-05T12:04:15.272Z</time></trkpt><trkpt lat="45.6178618" lon="13.9111798"><ele>468.33333333333337</ele><time>2026-05-05T12:04:16.272Z</time></trkpt><trkpt lat="45.6179626" lon="13.9110123"><ele>467.66666666666663</ele><time>2026-05-05T12:04:17.272Z</time></trkpt><trkpt lat="45.6180677" lon="13.9108573"><ele>467.0</ele><time>2026-05-05T12:04:18.273Z</time></trkpt><trkpt lat="45.6181731" lon="13.9107092"><ele>465.75</ele><time>2026-05-05T12:04:19.272Z</time></trkpt><trkpt lat="45.6182807" lon="13.9105589"><ele>464.5</ele><time>2026-05-05T12:04:20.273Z</time></trkpt><trkpt lat="45.6183868" lon="13.9104116"><ele>463.25</ele><time>2026-05-05T12:04:21.272Z</time></trkpt><trkpt lat="45.6184936" lon="13.9102626"><ele>462.0</ele><time>2026-05-05T12:04:22.272Z</time></trkpt><trkpt lat="45.6185992" lon="13.910116"><ele>460.5</ele><time>2026-05-05T12:04:23.272Z</time></trkpt><trkpt lat="45.6187046" lon="13.9099686"><ele>459.0</ele><time>2026-05-05T12:04:24.272Z</time></trkpt><trkpt lat="45.6188096" lon="13.9098224"><ele>457.5</ele><time>2026-05-05T12:04:25.272Z</time></trkpt><trkpt lat="45.6189119" lon="13.9096779"><ele>456.0</ele><time>2026-05-05T12:04:26.272Z</time></trkpt><trkpt lat="45.6190125" lon="13.909533"><ele>456.0</ele><time>2026-05-05T12:04:27.273Z</time></trkpt><trkpt lat="45.6191129" lon="13.9093846"><ele>456.0</ele><time>2026-05-05T12:04:28.273Z</time></trkpt><trkpt lat="45.6192118" lon="13.9092349"><ele>456.0</ele><time>2026-05-05T12:04:29.273Z</time></trkpt><trkpt lat="45.619311" lon="13.9090805"><ele>456.0</ele><time>2026-05-05T12:04:30.273Z</time></trkpt><trkpt lat="45.6194086" lon="13.9089217"><ele>455.5</ele><time>2026-05-05T12:04:31.273Z</time></trkpt><trkpt lat="45.6195038" lon="13.9087565"><ele>455.0</ele><time>2026-05-05T12:04:32.273Z</time></trkpt><trkpt lat="45.6195954" lon="13.9085884"><ele>454.5</ele><time>2026-05-05T12:04:33.273Z</time></trkpt><trkpt lat="45.6196895" lon="13.9084216"><ele>454.0</ele><time>2026-05-05T12:04:34.272Z</time></trkpt><trkpt lat="45.619784" lon="13.9082508"><ele>454.0</ele><time>2026-05-05T12:04:35.272Z</time></trkpt><trkpt lat="45.619875" lon="13.908078"><ele>454.0</ele><time>2026-05-05T12:04:36.273Z</time></trkpt><trkpt lat="45.6199704" lon="13.9079095"><ele>454.0</ele><time>2026-05-05T12:04:37.272Z</time></trkpt><trkpt lat="45.6200664" lon="13.9077457"><ele>454.0</ele><time>2026-05-05T12:04:38.272Z</time></trkpt><trkpt lat="45.6201662" lon="13.9075777"><ele>454.0</ele><time>2026-05-05T12:04:39.272Z</time></trkpt><trkpt lat="45.6202611" lon="13.9074168"><ele>454.0</ele><time>2026-05-05T12:04:40.273Z</time></trkpt><trkpt lat="45.6203556" lon="13.9072502"><ele>455.33333333333337</ele><time>2026-05-05T12:04:41.273Z</time></trkpt><trkpt lat="45.6204526" lon="13.9070801"><ele>456.66666666666663</ele><time>2026-05-05T12:04:42.272Z</time></trkpt><trkpt lat="45.6205477" lon="13.9069105"><ele>458.0</ele><time>2026-05-05T12:04:43.273Z</time></trkpt><trkpt lat="45.6206449" lon="13.9067389"><ele>458.0</ele><time>2026-05-05T12:04:44.273Z</time></trkpt><trkpt lat="45.6207417" lon="13.9065657"><ele>458.0</ele><time>2026-05-05T12:04:45.272Z</time></trkpt><trkpt lat="45.6208349" lon="13.906405"><ele>458.0</ele><time>2026-05-05T12:04:46.273Z</time></trkpt><trkpt lat="45.6209274" lon="13.9062421"><ele>458.0</ele><time>2026-05-05T12:04:47.273Z</time></trkpt><trkpt lat="45.621017" lon="13.9060843"><ele>458.0</ele><time>2026-05-05T12:04:48.272Z</time></trkpt><trkpt lat="45.621108" lon="13.9059278"><ele>458.0</ele><time>2026-05-05T12:04:49.272Z</time></trkpt><trkpt lat="45.6212" lon="13.9057776"><ele>458.0</ele><time>2026-05-05T12:04:50.273Z</time></trkpt><trkpt lat="45.6212904" lon="13.9056275"><ele>458.0</ele><time>2026-05-05T12:04:51.273Z</time></trkpt><trkpt lat="45.6213784" lon="13.9054806"><ele>458.75</ele><time>2026-05-05T12:04:52.272Z</time></trkpt><trkpt lat="45.621466" lon="13.9053338"><ele>459.5</ele><time>2026-05-05T12:04:53.272Z</time></trkpt><trkpt lat="45.6215535" lon="13.9051868"><ele>460.25</ele><time>2026-05-05T12:04:54.272Z</time></trkpt><trkpt lat="45.6216427" lon="13.9050348"><ele>461.0</ele><time>2026-05-05T12:04:55.273Z</time></trkpt><trkpt lat="45.6217326" lon="13.9048816"><ele>461.5</ele><time>2026-05-05T12:04:56.273Z</time></trkpt><trkpt lat="45.6218261" lon="13.9047255"><ele>462.0</ele><time>2026-05-05T12:04:57.272Z</time></trkpt><trkpt lat="45.6219196" lon="13.9045666"><ele>462.5</ele><time>2026-05-05T12:04:58.272Z</time></trkpt><trkpt lat="45.622014" lon="13.9044068"><ele>463.0</ele><time>2026-05-05T12:04:59.272Z</time></trkpt><trkpt lat="45.6221093" lon="13.9042485"><ele>464.0</ele><time>2026-05-05T12:05:00.273Z</time></trkpt><trkpt lat="45.6222127" lon="13.9040964"><ele>465.0</ele><time>2026-05-05T12:05:01.273Z</time></trkpt><trkpt lat="45.6223076" lon="13.9039363"><ele>466.0</ele><time>2026-05-05T12:05:02.273Z</time></trkpt><trkpt lat="45.6224051" lon="13.9037783"><ele>467.0</ele><time>2026-05-05T12:05:03.273Z</time></trkpt><trkpt lat="45.6224998" lon="13.9036204"><ele>467.0</ele><time>2026-05-05T12:05:04.273Z</time></trkpt><trkpt lat="45.6225919" lon="13.9034621"><ele>467.0</ele><time>2026-05-05T12:05:05.273Z</time></trkpt><trkpt lat="45.6226802" lon="13.9033166"><ele>467.0</ele><time>2026-05-05T12:05:06.272Z</time></trkpt><trkpt lat="45.6227632" lon="13.9031834"><ele>467.0</ele><time>2026-05-05T12:05:07.272Z</time></trkpt><trkpt lat="45.6228404" lon="13.9030513"><ele>467.40000000000003</ele><time>2026-05-05T12:05:08.272Z</time></trkpt><trkpt lat="45.6229099" lon="13.9029334"><ele>467.80000000000007</ele><time>2026-05-05T12:05:09.273Z</time></trkpt><trkpt lat="45.6229745" lon="13.902826"><ele>468.2</ele><time>2026-05-05T12:05:10.272Z</time></trkpt><trkpt lat="45.6230336" lon="13.9027298"><ele>468.6</ele><time>2026-05-05T12:05:11.273Z</time></trkpt><trkpt lat="45.6230893" lon="13.9026444"><ele>469.0</ele><time>2026-05-05T12:05:12.273Z</time></trkpt><trkpt lat="45.6231415" lon="13.9025674"><ele>469.1666666666667</ele><time>2026-05-05T12:05:13.272Z</time></trkpt><trkpt lat="45.6231972" lon="13.902492"><ele>469.33333333333337</ele><time>2026-05-05T12:05:14.273Z</time></trkpt><trkpt lat="45.6232575" lon="13.9024234"><ele>469.5</ele><time>2026-05-05T12:05:15.272Z</time></trkpt><trkpt lat="45.6233185" lon="13.9023477"><ele>469.66666666666663</ele><time>2026-05-05T12:05:16.273Z</time></trkpt><trkpt lat="45.6233786" lon="13.9022723"><ele>469.8333333333333</ele><time>2026-05-05T12:05:17.272Z</time></trkpt><trkpt lat="45.6234392" lon="13.9021979"><ele>470.0</ele><time>2026-05-05T12:05:18.272Z</time></trkpt><trkpt lat="45.623499" lon="13.90212"><ele>469.99999999999994</ele><time>2026-05-05T12:05:19.272Z</time></trkpt><trkpt lat="45.6235586" lon="13.9020384"><ele>470.0</ele><time>2026-05-05T12:05:20.272Z</time></trkpt><trkpt lat="45.6236157" lon="13.9019541"><ele>470.0</ele><time>2026-05-05T12:05:21.272Z</time></trkpt><trkpt lat="45.6236705" lon="13.901869"><ele>470.0</ele><time>2026-05-05T12:05:22.273Z</time></trkpt><trkpt lat="45.6237246" lon="13.9017862"><ele>469.99999999999994</ele><time>2026-05-05T12:05:23.272Z</time></trkpt><trkpt lat="45.6237822" lon="13.901706"><ele>470.0</ele><time>2026-05-05T12:05:24.272Z</time></trkpt><trkpt lat="45.6238353" lon="13.9016252"><ele>469.99999999999994</ele><time>2026-05-05T12:05:25.273Z</time></trkpt><trkpt lat="45.6238897" lon="13.9015425"><ele>470.0</ele><time>2026-05-05T12:05:26.272Z</time></trkpt><trkpt lat="45.6239451" lon="13.9014572"><ele>470.0</ele><time>2026-05-05T12:05:27.272Z</time></trkpt><trkpt lat="45.6239999" lon="13.9013739"><ele>470.0</ele><time>2026-05-05T12:05:28.273Z</time></trkpt><trkpt lat="45.6240585" lon="13.9012896"><ele>469.99999999999994</ele><time>2026-05-05T12:05:29.272Z</time></trkpt><trkpt lat="45.6241181" lon="13.9012003"><ele>470.0</ele><time>2026-05-05T12:05:30.273Z</time></trkpt><trkpt lat="45.6241852" lon="13.9011093"><ele>470.0</ele><time>2026-05-05T12:05:31.273Z</time></trkpt><trkpt lat="45.6242578" lon="13.9010129"><ele>470.0</ele><time>2026-05-05T12:05:32.273Z</time></trkpt><trkpt lat="45.6243312" lon="13.9009172"><ele>470.0</ele><time>2026-05-05T12:05:33.273Z</time></trkpt><trkpt lat="45.6244137" lon="13.9008252"><ele>470.0</ele><time>2026-05-05T12:05:34.273Z</time></trkpt><trkpt lat="45.6245019" lon="13.9007372"><ele>470.0</ele><time>2026-05-05T12:05:35.273Z</time></trkpt><trkpt lat="45.6245923" lon="13.9006473"><ele>469.5</ele><time>2026-05-05T12:05:36.272Z</time></trkpt><trkpt lat="45.6246892" lon="13.9005541"><ele>469.0</ele><time>2026-05-05T12:05:37.273Z</time></trkpt><trkpt lat="45.6247945" lon="13.900458"><ele>468.5</ele><time>2026-05-05T12:05:38.273Z</time></trkpt><trkpt lat="45.6249082" lon="13.9003596"><ele>468.0</ele><time>2026-05-05T12:05:39.273Z</time></trkpt><trkpt lat="45.6250288" lon="13.9002576"><ele>468.0</ele><time>2026-05-05T12:05:40.273Z</time></trkpt><trkpt lat="45.62515" lon="13.9001579"><ele>468.0</ele><time>2026-05-05T12:05:41.273Z</time></trkpt><trkpt lat="45.6252697" lon="13.9000595"><ele>468.0</ele><time>2026-05-05T12:05:42.273Z</time></trkpt><trkpt lat="45.6253916" lon="13.8999612"><ele>468.0</ele><time>2026-05-05T12:05:43.273Z</time></trkpt><trkpt lat="45.6255164" lon="13.8998669"><ele>468.0</ele><time>2026-05-05T12:05:44.273Z</time></trkpt><trkpt lat="45.62564" lon="13.8997684"><ele>468.0</ele><time>2026-05-05T12:05:45.272Z</time></trkpt><trkpt lat="45.6257654" lon="13.8996714"><ele>468.0</ele><time>2026-05-05T12:05:46.273Z</time></trkpt><trkpt lat="45.6258886" lon="13.8995717"><ele>468.0</ele><time>2026-05-05T12:05:47.273Z</time></trkpt><trkpt lat="45.6260114" lon="13.8994665"><ele>468.0</ele><time>2026-05-05T12:05:48.273Z</time></trkpt><trkpt lat="45.6261281" lon="13.899352"><ele>468.0</ele><time>2026-05-05T12:05:49.272Z</time></trkpt><trkpt lat="45.6262465" lon="13.8992266"><ele>468.0</ele><time>2026-05-05T12:05:50.273Z</time></trkpt><trkpt lat="45.6263584" lon="13.8990936"><ele>468.0</ele><time>2026-05-05T12:05:51.273Z</time></trkpt><trkpt lat="45.6264601" lon="13.8989456"><ele>468.75</ele><time>2026-05-05T12:05:52.273Z</time></trkpt><trkpt lat="45.6265561" lon="13.8987929"><ele>469.5</ele><time>2026-05-05T12:05:53.273Z</time></trkpt><trkpt lat="45.6266434" lon="13.8986369"><ele>470.25</ele><time>2026-05-05T12:05:54.272Z</time></trkpt><trkpt lat="45.6267277" lon="13.8984793"><ele>471.0</ele><time>2026-05-05T12:05:55.273Z</time></trkpt><trkpt lat="45.6268138" lon="13.8983243"><ele>471.5</ele><time>2026-05-05T12:05:56.273Z</time></trkpt><trkpt lat="45.6269006" lon="13.8981714"><ele>472.0</ele><time>2026-05-05T12:05:57.273Z</time></trkpt><trkpt lat="45.6269936" lon="13.8980228"><ele>472.5</ele><time>2026-05-05T12:05:58.272Z</time></trkpt><trkpt lat="45.6270892" lon="13.8978786"><ele>473.0</ele><time>2026-05-05T12:05:59.273Z</time></trkpt><trkpt lat="45.6271913" lon="13.8977428"><ele>473.0</ele><time>2026-05-05T12:06:00.273Z</time></trkpt><trkpt lat="45.6273007" lon="13.8976045"><ele>473.0</ele><time>2026-05-05T12:06:01.273Z</time></trkpt><trkpt lat="45.6274099" lon="13.8974718"><ele>473.0</ele><time>2026-05-05T12:06:02.272Z</time></trkpt><trkpt lat="45.627512" lon="13.8973392"><ele>473.0</ele><time>2026-05-05T12:06:03.272Z</time></trkpt><trkpt lat="45.627603" lon="13.8972012"><ele>472.75</ele><time>2026-05-05T12:06:04.273Z</time></trkpt><trkpt lat="45.6276817" lon="13.8970581"><ele>472.5</ele><time>2026-05-05T12:06:05.273Z</time></trkpt><trkpt lat="45.6277458" lon="13.8969014"><ele>472.25</ele><time>2026-05-05T12:06:06.272Z</time></trkpt><trkpt lat="45.6277946" lon="13.8967343"><ele>472.0</ele><time>2026-05-05T12:06:07.273Z</time></trkpt><trkpt lat="45.6278357" lon="13.8965612"><ele>472.5</ele><time>2026-05-05T12:06:08.273Z</time></trkpt><trkpt lat="45.6278769" lon="13.8963812"><ele>473.0</ele><time>2026-05-05T12:06:09.272Z</time></trkpt><trkpt lat="45.6279242" lon="13.8961972"><ele>473.5</ele><time>2026-05-05T12:06:10.273Z</time></trkpt><trkpt lat="45.6279695" lon="13.896011"><ele>474.0</ele><time>2026-05-05T12:06:11.272Z</time></trkpt><trkpt lat="45.6280146" lon="13.8958216"><ele>474.0</ele><time>2026-05-05T12:06:12.272Z</time></trkpt><trkpt lat="45.6280595" lon="13.8956307"><ele>474.0</ele><time>2026-05-05T12:06:13.273Z</time></trkpt><trkpt lat="45.6281051" lon="13.8954379"><ele>474.0</ele><time>2026-05-05T12:06:14.273Z</time></trkpt><trkpt lat="45.6281539" lon="13.895242"><ele>474.0</ele><time>2026-05-05T12:06:15.273Z</time></trkpt><trkpt lat="45.628203" lon="13.8950409"><ele>473.25</ele><time>2026-05-05T12:06:16.273Z</time></trkpt><trkpt lat="45.6282512" lon="13.8948372"><ele>472.5</ele><time>2026-05-05T12:06:17.273Z</time></trkpt><trkpt lat="45.628299" lon="13.8946333"><ele>471.75</ele><time>2026-05-05T12:06:18.273Z</time></trkpt><trkpt lat="45.6283471" lon="13.8944347"><ele>471.0</ele><time>2026-05-05T12:06:19.272Z</time></trkpt><trkpt lat="45.6283956" lon="13.8942443"><ele>471.0</ele><time>2026-05-05T12:06:20.273Z</time></trkpt><trkpt lat="45.6284491" lon="13.8940578"><ele>471.0</ele><time>2026-05-05T12:06:21.273Z</time></trkpt><trkpt lat="45.6285107" lon="13.8938858"><ele>471.0</ele><time>2026-05-05T12:06:22.273Z</time></trkpt><trkpt lat="45.6285853" lon="13.8937356"><ele>471.0</ele><time>2026-05-05T12:06:23.273Z</time></trkpt><trkpt lat="45.6286769" lon="13.8936043"><ele>472.75</ele><time>2026-05-05T12:06:24.273Z</time></trkpt><trkpt lat="45.6287841" lon="13.8934763"><ele>474.5</ele><time>2026-05-05T12:06:25.273Z</time></trkpt><trkpt lat="45.6289005" lon="13.8933405"><ele>476.25</ele><time>2026-05-05T12:06:26.273Z</time></trkpt><trkpt lat="45.6290173" lon="13.8932109"><ele>478.0</ele><time>2026-05-05T12:06:27.272Z</time></trkpt><trkpt lat="45.6291357" lon="13.8930793"><ele>478.0</ele><time>2026-05-05T12:06:28.273Z</time></trkpt><trkpt lat="45.6292522" lon="13.8929512"><ele>478.0</ele><time>2026-05-05T12:06:29.273Z</time></trkpt><trkpt lat="45.6293679" lon="13.892828"><ele>478.0</ele><time>2026-05-05T12:06:30.272Z</time></trkpt><trkpt lat="45.6294865" lon="13.8926994"><ele>478.0</ele><time>2026-05-05T12:06:31.272Z</time></trkpt><trkpt lat="45.6296006" lon="13.8925713"><ele>478.75</ele><time>2026-05-05T12:06:32.272Z</time></trkpt><trkpt lat="45.6297126" lon="13.8924336"><ele>479.5</ele><time>2026-05-05T12:06:33.272Z</time></trkpt><trkpt lat="45.6298224" lon="13.8922885"><ele>480.25</ele><time>2026-05-05T12:06:34.273Z</time></trkpt><trkpt lat="45.6299282" lon="13.8921326"><ele>481.0</ele><time>2026-05-05T12:06:35.273Z</time></trkpt><trkpt lat="45.630028" lon="13.8919636"><ele>481.0</ele><time>2026-05-05T12:06:36.273Z</time></trkpt><trkpt lat="45.6301254" lon="13.8917904"><ele>481.0</ele><time>2026-05-05T12:06:37.273Z</time></trkpt><trkpt lat="45.6302235" lon="13.891612"><ele>481.0</ele><time>2026-05-05T12:06:38.272Z</time></trkpt><trkpt lat="45.6303219" lon="13.8914319"><ele>481.33333333333337</ele><time>2026-05-05T12:06:39.273Z</time></trkpt><trkpt lat="45.6304219" lon="13.8912436"><ele>481.66666666666663</ele><time>2026-05-05T12:06:40.272Z</time></trkpt><trkpt lat="45.630521" lon="13.891051"><ele>482.0</ele><time>2026-05-05T12:06:41.273Z</time></trkpt><trkpt lat="45.6306181" lon="13.8908557"><ele>482.0</ele><time>2026-05-05T12:06:42.273Z</time></trkpt><trkpt lat="45.6307163" lon="13.8906638"><ele>482.0</ele><time>2026-05-05T12:06:43.272Z</time></trkpt><trkpt lat="45.6308087" lon="13.8904786"><ele>482.0</ele><time>2026-05-05T12:06:44.272Z</time></trkpt><trkpt lat="45.6309004" lon="13.8902994"><ele>482.0</ele><time>2026-05-05T12:06:45.272Z</time></trkpt><trkpt lat="45.6309854" lon="13.8901234"><ele>482.0</ele><time>2026-05-05T12:06:46.273Z</time></trkpt><trkpt lat="45.6310688" lon="13.8899562"><ele>482.0</ele><time>2026-05-05T12:06:47.273Z</time></trkpt><trkpt lat="45.6311515" lon="13.8898006"><ele>482.0</ele><time>2026-05-05T12:06:48.272Z</time></trkpt><trkpt lat="45.631232" lon="13.8896352"><ele>482.5</ele><time>2026-05-05T12:06:49.273Z</time></trkpt><trkpt lat="45.6313152" lon="13.8894662"><ele>483.0</ele><time>2026-05-05T12:06:50.273Z</time></trkpt><trkpt lat="45.6313949" lon="13.8892818"><ele>483.5</ele><time>2026-05-05T12:06:51.273Z</time></trkpt><trkpt lat="45.6314631" lon="13.8891023"><ele>484.0</ele><time>2026-05-05T12:06:52.273Z</time></trkpt><trkpt lat="45.6315227" lon="13.888917"><ele>481.0</ele><time>2026-05-05T12:06:53.272Z</time></trkpt><trkpt lat="45.6315794" lon="13.88873"><ele>478.0</ele><time>2026-05-05T12:06:54.272Z</time></trkpt><trkpt lat="45.6316281" lon="13.8885367"><ele>475.0</ele><time>2026-05-05T12:06:55.272Z</time></trkpt><trkpt lat="45.6316737" lon="13.8883374"><ele>472.0</ele><time>2026-05-05T12:06:56.273Z</time></trkpt><trkpt lat="45.6317176" lon="13.8881271"><ele>470.6666666666667</ele><time>2026-05-05T12:06:57.273Z</time></trkpt><trkpt lat="45.6317628" lon="13.8879219"><ele>469.33333333333337</ele><time>2026-05-05T12:06:58.273Z</time></trkpt><trkpt lat="45.6318069" lon="13.8877179"><ele>468.0</ele><time>2026-05-05T12:06:59.273Z</time></trkpt><trkpt lat="45.6318486" lon="13.8875079"><ele>468.0</ele><time>2026-05-05T12:07:00.272Z</time></trkpt><trkpt lat="45.6318913" lon="13.8873091"><ele>468.0</ele><time>2026-05-05T12:07:01.272Z</time></trkpt><trkpt lat="45.6319338" lon="13.8871187"><ele>468.0</ele><time>2026-05-05T12:07:02.272Z</time></trkpt><trkpt lat="45.6319819" lon="13.8869406"><ele>468.0</ele><time>2026-05-05T12:07:03.272Z</time></trkpt><trkpt lat="45.6320504" lon="13.8867745"><ele>466.25</ele><time>2026-05-05T12:07:04.273Z</time></trkpt><trkpt lat="45.6321341" lon="13.8866138"><ele>464.5</ele><time>2026-05-05T12:07:05.273Z</time></trkpt><trkpt lat="45.6322296" lon="13.8864691"><ele>462.75</ele><time>2026-05-05T12:07:06.273Z</time></trkpt><trkpt lat="45.6323307" lon="13.8863285"><ele>461.0</ele><time>2026-05-05T12:07:07.273Z</time></trkpt><trkpt lat="45.6324356" lon="13.8861814"><ele>461.0</ele><time>2026-05-05T12:07:08.272Z</time></trkpt><trkpt lat="45.6325374" lon="13.8860421"><ele>461.0</ele><time>2026-05-05T12:07:09.272Z</time></trkpt><trkpt lat="45.632639" lon="13.8858928"><ele>461.0</ele><time>2026-05-05T12:07:10.273Z</time></trkpt><trkpt lat="45.632739" lon="13.8857422"><ele>461.0</ele><time>2026-05-05T12:07:11.272Z</time></trkpt><trkpt lat="45.6328446" lon="13.8855925"><ele>461.0</ele><time>2026-05-05T12:07:12.272Z</time></trkpt><trkpt lat="45.6329477" lon="13.885449"><ele>461.0</ele><time>2026-05-05T12:07:13.272Z</time></trkpt><trkpt lat="45.6330504" lon="13.885303"><ele>461.0</ele><time>2026-05-05T12:07:14.272Z</time></trkpt><trkpt lat="45.6331576" lon="13.8851584"><ele>461.0</ele><time>2026-05-05T12:07:15.273Z</time></trkpt><trkpt lat="45.6332624" lon="13.885015"><ele>461.0</ele><time>2026-05-05T12:07:16.272Z</time></trkpt><trkpt lat="45.6333676" lon="13.8848675"><ele>461.0</ele><time>2026-05-05T12:07:17.273Z</time></trkpt><trkpt lat="45.6334751" lon="13.8847136"><ele>461.0</ele><time>2026-05-05T12:07:18.273Z</time></trkpt><trkpt lat="45.6335897" lon="13.8845659"><ele>459.0</ele><time>2026-05-05T12:07:19.273Z</time></trkpt><trkpt lat="45.6336975" lon="13.8844117"><ele>457.0</ele><time>2026-05-05T12:07:20.272Z</time></trkpt><trkpt lat="45.6338106" lon="13.8842569"><ele>455.0</ele><time>2026-05-05T12:07:21.273Z</time></trkpt><trkpt lat="45.6339227" lon="13.8840982"><ele>454.3333333333333</ele><time>2026-05-05T12:07:22.272Z</time></trkpt><trkpt lat="45.6340327" lon="13.8839408"><ele>453.66666666666663</ele><time>2026-05-05T12:07:23.273Z</time></trkpt><trkpt lat="45.63414" lon="13.8837872"><ele>453.0</ele><time>2026-05-05T12:07:24.272Z</time></trkpt><trkpt lat="45.6342462" lon="13.8836332"><ele>453.0</ele><time>2026-05-05T12:07:25.273Z</time></trkpt><trkpt lat="45.634353" lon="13.8834743"><ele>453.0</ele><time>2026-05-05T12:07:26.272Z</time></trkpt><trkpt lat="45.6344469" lon="13.8833033"><ele>453.0</ele><time>2026-05-05T12:07:27.273Z</time></trkpt><trkpt lat="45.6345305" lon="13.8831357"><ele>452.0</ele><time>2026-05-05T12:07:28.273Z</time></trkpt><trkpt lat="45.6346102" lon="13.8829669"><ele>451.0</ele><time>2026-05-05T12:07:29.273Z</time></trkpt><trkpt lat="45.6346836" lon="13.8827927"><ele>450.0</ele><time>2026-05-05T12:07:30.272Z</time></trkpt><trkpt lat="45.6347564" lon="13.8826233"><ele>449.0</ele><time>2026-05-05T12:07:31.273Z</time></trkpt><trkpt lat="45.6348298" lon="13.8824503"><ele>449.0</ele><time>2026-05-05T12:07:32.273Z</time></trkpt><trkpt lat="45.6349039" lon="13.8822745"><ele>449.0</ele><time>2026-05-05T12:07:33.272Z</time></trkpt><trkpt lat="45.634977" lon="13.8821081"><ele>449.0</ele><time>2026-05-05T12:07:34.273Z</time></trkpt><trkpt lat="45.6350458" lon="13.8819316"><ele>449.0</ele><time>2026-05-05T12:07:35.272Z</time></trkpt><trkpt lat="45.6351092" lon="13.8817495"><ele>448.75</ele><time>2026-05-05T12:07:36.273Z</time></trkpt><trkpt lat="45.6351649" lon="13.881555"><ele>448.5</ele><time>2026-05-05T12:07:37.272Z</time></trkpt><trkpt lat="45.6352136" lon="13.8813593"><ele>448.25</ele><time>2026-05-05T12:07:38.273Z</time></trkpt><trkpt lat="45.6352498" lon="13.8811565"><ele>448.0</ele><time>2026-05-05T12:07:39.273Z</time></trkpt><trkpt lat="45.635296" lon="13.8809437"><ele>446.6666666666667</ele><time>2026-05-05T12:07:40.273Z</time></trkpt><trkpt lat="45.635333" lon="13.8807206"><ele>445.33333333333337</ele><time>2026-05-05T12:07:41.273Z</time></trkpt><trkpt lat="45.6353736" lon="13.8804955"><ele>444.0</ele><time>2026-05-05T12:07:42.272Z</time></trkpt><trkpt lat="45.6354152" lon="13.8802666"><ele>443.66666666666663</ele><time>2026-05-05T12:07:43.273Z</time></trkpt><trkpt lat="45.6354574" lon="13.880032"><ele>443.3333333333333</ele><time>2026-05-05T12:07:44.273Z</time></trkpt><trkpt lat="45.6354989" lon="13.8797914"><ele>443.0</ele><time>2026-05-05T12:07:45.273Z</time></trkpt><trkpt lat="45.6355332" lon="13.879565"><ele>443.0</ele><time>2026-05-05T12:07:46.272Z</time></trkpt><trkpt lat="45.635571" lon="13.8793435"><ele>443.0</ele><time>2026-05-05T12:07:47.273Z</time></trkpt><trkpt lat="45.6356087" lon="13.8791295"><ele>443.0</ele><time>2026-05-05T12:07:48.273Z</time></trkpt><trkpt lat="45.6356495" lon="13.8789102"><ele>441.0</ele><time>2026-05-05T12:07:49.273Z</time></trkpt><trkpt lat="45.6356855" lon="13.8786928"><ele>439.0</ele><time>2026-05-05T12:07:50.272Z</time></trkpt><trkpt lat="45.635728" lon="13.8784747"><ele>437.0</ele><time>2026-05-05T12:07:51.273Z</time></trkpt><trkpt lat="45.6357648" lon="13.878253"><ele>435.66666666666663</ele><time>2026-05-05T12:07:52.272Z</time></trkpt><trkpt lat="45.635801" lon="13.8780323"><ele>434.33333333333337</ele><time>2026-05-05T12:07:53.272Z</time></trkpt><trkpt lat="45.6358358" lon="13.8778025"><ele>433.0</ele><time>2026-05-05T12:07:54.273Z</time></trkpt><trkpt lat="45.6358743" lon="13.8775765"><ele>431.6666666666667</ele><time>2026-05-05T12:07:55.273Z</time></trkpt><trkpt lat="45.6359105" lon="13.877351"><ele>430.33333333333337</ele><time>2026-05-05T12:07:56.273Z</time></trkpt><trkpt lat="45.6359496" lon="13.8771272"><ele>429.0</ele><time>2026-05-05T12:07:57.272Z</time></trkpt><trkpt lat="45.6359905" lon="13.8769017"><ele>427.66666666666663</ele><time>2026-05-05T12:07:58.272Z</time></trkpt><trkpt lat="45.6360279" lon="13.8766761"><ele>426.3333333333333</ele><time>2026-05-05T12:07:59.273Z</time></trkpt><trkpt lat="45.6360656" lon="13.8764461"><ele>425.0</ele><time>2026-05-05T12:08:00.273Z</time></trkpt><trkpt lat="45.6361048" lon="13.8762175"><ele>424.3333333333333</ele><time>2026-05-05T12:08:01.273Z</time></trkpt><trkpt lat="45.6361447" lon="13.8759901"><ele>423.66666666666663</ele><time>2026-05-05T12:08:02.273Z</time></trkpt><trkpt lat="45.6361842" lon="13.8757578"><ele>423.0</ele><time>2026-05-05T12:08:03.272Z</time></trkpt><trkpt lat="45.6362268" lon="13.8755196"><ele>420.66666666666663</ele><time>2026-05-05T12:08:04.273Z</time></trkpt><trkpt lat="45.6362709" lon="13.87528"><ele>418.3333333333333</ele><time>2026-05-05T12:08:05.272Z</time></trkpt><trkpt lat="45.636311" lon="13.8750368"><ele>416.0</ele><time>2026-05-05T12:08:06.272Z</time></trkpt><trkpt lat="45.6363545" lon="13.8747962"><ele>416.0</ele><time>2026-05-05T12:08:07.272Z</time></trkpt><trkpt lat="45.6363928" lon="13.8745572"><ele>416.0</ele><time>2026-05-05T12:08:08.272Z</time></trkpt><trkpt lat="45.6364361" lon="13.8743209"><ele>416.0</ele><time>2026-05-05T12:08:09.273Z</time></trkpt><trkpt lat="45.6364817" lon="13.8740911"><ele>416.0</ele><time>2026-05-05T12:08:10.273Z</time></trkpt><trkpt lat="45.6365357" lon="13.8738675"><ele>416.0</ele><time>2026-05-05T12:08:11.272Z</time></trkpt><trkpt lat="45.6365937" lon="13.8736452"><ele>416.0</ele><time>2026-05-05T12:08:12.273Z</time></trkpt><trkpt lat="45.6366633" lon="13.873431"><ele>416.0</ele><time>2026-05-05T12:08:13.273Z</time></trkpt><trkpt lat="45.636743" lon="13.8732199"><ele>416.0</ele><time>2026-05-05T12:08:14.273Z</time></trkpt><trkpt lat="45.6368299" lon="13.8730048"><ele>416.0</ele><time>2026-05-05T12:08:15.273Z</time></trkpt><trkpt lat="45.6369211" lon="13.8727921"><ele>411.66666666666663</ele><time>2026-05-05T12:08:16.272Z</time></trkpt><trkpt lat="45.6370111" lon="13.8725828"><ele>407.33333333333337</ele><time>2026-05-05T12:08:17.273Z</time></trkpt><trkpt lat="45.6370998" lon="13.8723722"><ele>403.0</ele><time>2026-05-05T12:08:18.273Z</time></trkpt><trkpt lat="45.6371881" lon="13.872159"><ele>403.0</ele><time>2026-05-05T12:08:19.273Z</time></trkpt><trkpt lat="45.637281" lon="13.8719468"><ele>403.0</ele><time>2026-05-05T12:08:20.272Z</time></trkpt><trkpt lat="45.6373715" lon="13.8717317"><ele>403.0</ele><time>2026-05-05T12:08:21.273Z</time></trkpt><trkpt lat="45.6374596" lon="13.8715164"><ele>402.6666666666667</ele><time>2026-05-05T12:08:22.273Z</time></trkpt><trkpt lat="45.6375532" lon="13.8713041"><ele>402.33333333333337</ele><time>2026-05-05T12:08:23.272Z</time></trkpt><trkpt lat="45.6376429" lon="13.8710996"><ele>402.0</ele><time>2026-05-05T12:08:24.272Z</time></trkpt><trkpt lat="45.6377313" lon="13.8708985"><ele>400.33333333333337</ele><time>2026-05-05T12:08:25.272Z</time></trkpt><trkpt lat="45.6378156" lon="13.8707027"><ele>398.6666666666667</ele><time>2026-05-05T12:08:26.273Z</time></trkpt><trkpt lat="45.6378997" lon="13.8705127"><ele>397.0</ele><time>2026-05-05T12:08:27.273Z</time></trkpt><trkpt lat="45.6379806" lon="13.8703231"><ele>397.0</ele><time>2026-05-05T12:08:28.272Z</time></trkpt><trkpt lat="45.6380583" lon="13.8701358"><ele>397.0</ele><time>2026-05-05T12:08:29.273Z</time></trkpt><trkpt lat="45.6381391" lon="13.8699507"><ele>397.0</ele><time>2026-05-05T12:08:30.273Z</time></trkpt><trkpt lat="45.6382176" lon="13.8697663"><ele>396.6666666666667</ele><time>2026-05-05T12:08:31.272Z</time></trkpt><trkpt lat="45.6382982" lon="13.8695798"><ele>396.33333333333337</ele><time>2026-05-05T12:08:32.273Z</time></trkpt><trkpt lat="45.6383758" lon="13.8693916"><ele>396.0</ele><time>2026-05-05T12:08:33.272Z</time></trkpt><trkpt lat="45.6384496" lon="13.8691939"><ele>396.0</ele><time>2026-05-05T12:08:34.272Z</time></trkpt><trkpt lat="45.6385228" lon="13.8689939"><ele>396.0</ele><time>2026-05-05T12:08:35.272Z</time></trkpt><trkpt lat="45.6385929" lon="13.8687858"><ele>396.0</ele><time>2026-05-05T12:08:36.273Z</time></trkpt><trkpt lat="45.6386591" lon="13.8685827"><ele>395.25</ele><time>2026-05-05T12:08:37.273Z</time></trkpt><trkpt lat="45.6387228" lon="13.868384"><ele>394.5</ele><time>2026-05-05T12:08:38.272Z</time></trkpt><trkpt lat="45.6387851" lon="13.8681914"><ele>393.75</ele><time>2026-05-05T12:08:39.273Z</time></trkpt><trkpt lat="45.6388438" lon="13.8680092"><ele>393.0</ele><time>2026-05-05T12:08:40.272Z</time></trkpt><trkpt lat="45.6388983" lon="13.8678333"><ele>393.0</ele><time>2026-05-05T12:08:41.273Z</time></trkpt><trkpt lat="45.6389514" lon="13.8676565"><ele>393.0</ele><time>2026-05-05T12:08:42.272Z</time></trkpt><trkpt lat="45.6390091" lon="13.8674731"><ele>393.0</ele><time>2026-05-05T12:08:43.272Z</time></trkpt><trkpt lat="45.6390708" lon="13.8672815"><ele>393.0</ele><time>2026-05-05T12:08:44.272Z</time></trkpt><trkpt lat="45.6391299" lon="13.8671024"><ele>393.25</ele><time>2026-05-05T12:08:45.273Z</time></trkpt><trkpt lat="45.6391809" lon="13.8669238"><ele>393.5</ele><time>2026-05-05T12:08:46.272Z</time></trkpt><trkpt lat="45.6392396" lon="13.8667569"><ele>393.75</ele><time>2026-05-05T12:08:47.273Z</time></trkpt><trkpt lat="45.6392989" lon="13.8665872"><ele>394.0</ele><time>2026-05-05T12:08:48.273Z</time></trkpt><trkpt lat="45.6393612" lon="13.8664176"><ele>393.5</ele><time>2026-05-05T12:08:49.273Z</time></trkpt><trkpt lat="45.6394216" lon="13.8662547"><ele>393.0</ele><time>2026-05-05T12:08:50.273Z</time></trkpt><trkpt lat="45.6394791" lon="13.8660852"><ele>392.5</ele><time>2026-05-05T12:08:51.273Z</time></trkpt><trkpt lat="45.6395426" lon="13.8659147"><ele>392.0</ele><time>2026-05-05T12:08:52.272Z</time></trkpt><trkpt lat="45.639611" lon="13.8657416"><ele>391.5</ele><time>2026-05-05T12:08:53.272Z</time></trkpt><trkpt lat="45.6396763" lon="13.8655629"><ele>391.0</ele><time>2026-05-05T12:08:54.272Z</time></trkpt><trkpt lat="45.6397456" lon="13.8653813"><ele>390.5</ele><time>2026-05-05T12:08:55.273Z</time></trkpt><trkpt lat="45.6398147" lon="13.8652086"><ele>390.0</ele><time>2026-05-05T12:08:56.273Z</time></trkpt><trkpt lat="45.6398755" lon="13.8650383"><ele>389.75</ele><time>2026-05-05T12:08:57.272Z</time></trkpt><trkpt lat="45.6399312" lon="13.8648776"><ele>389.5</ele><time>2026-05-05T12:08:58.273Z</time></trkpt><trkpt lat="45.6399831" lon="13.8647321"><ele>389.25</ele><time>2026-05-05T12:08:59.273Z</time></trkpt><trkpt lat="45.640039" lon="13.8645801"><ele>389.0</ele><time>2026-05-05T12:09:00.273Z</time></trkpt><trkpt lat="45.6400971" lon="13.8644283"><ele>388.25</ele><time>2026-05-05T12:09:01.272Z</time></trkpt><trkpt lat="45.6401543" lon="13.8642719"><ele>387.5</ele><time>2026-05-05T12:09:02.272Z</time></trkpt><trkpt lat="45.6402081" lon="13.8641257"><ele>386.75</ele><time>2026-05-05T12:09:03.273Z</time></trkpt><trkpt lat="45.6402591" lon="13.8639832"><ele>386.0</ele><time>2026-05-05T12:09:04.272Z</time></trkpt><trkpt lat="45.6403044" lon="13.8638435"><ele>385.6</ele><time>2026-05-05T12:09:05.272Z</time></trkpt><trkpt lat="45.6403448" lon="13.8637145"><ele>385.20000000000005</ele><time>2026-05-05T12:09:06.272Z</time></trkpt><trkpt lat="45.6403836" lon="13.8635939"><ele>384.79999999999995</ele><time>2026-05-05T12:09:07.273Z</time></trkpt><trkpt lat="45.6404277" lon="13.8634811"><ele>384.4</ele><time>2026-05-05T12:09:08.273Z</time></trkpt><trkpt lat="45.64048" lon="13.8633752"><ele>384.0</ele><time>2026-05-05T12:09:09.272Z</time></trkpt><trkpt lat="45.6405366" lon="13.8632825"><ele>383.8333333333333</ele><time>2026-05-05T12:09:10.273Z</time></trkpt><trkpt lat="45.6405985" lon="13.8631988"><ele>383.6666666666667</ele><time>2026-05-05T12:09:11.273Z</time></trkpt><trkpt lat="45.6406658" lon="13.8631191"><ele>383.5</ele><time>2026-05-05T12:09:12.273Z</time></trkpt><trkpt lat="45.6407306" lon="13.863044"><ele>383.33333333333337</ele><time>2026-05-05T12:09:13.272Z</time></trkpt><trkpt lat="45.6407812" lon="13.8629814"><ele>383.1666666666667</ele><time>2026-05-05T12:09:14.273Z</time></trkpt><trkpt lat="45.6408495" lon="13.8628995"><ele>383.0</ele><time>2026-05-05T12:09:16.273Z</time></trkpt><trkpt lat="45.6409174" lon="13.8628207"><ele>383.0</ele><time>2026-05-05T12:09:19.272Z</time></trkpt><trkpt lat="45.6409893" lon="13.862754"><ele>383.0</ele><time>2026-05-05T12:09:22.273Z</time></trkpt><trkpt lat="45.6410537" lon="13.8626708"><ele>383.0</ele><time>2026-05-05T12:09:25.273Z</time></trkpt><trkpt lat="45.6411244" lon="13.8625784"><ele>383.0</ele><time>2026-05-05T12:09:27.273Z</time></trkpt><trkpt lat="45.6412259" lon="13.8625084"><ele>383.0</ele><time>2026-05-05T12:09:29.272Z</time></trkpt><trkpt lat="45.6413018" lon="13.8624731"><ele>382.5</ele><time>2026-05-05T12:09:31.273Z</time></trkpt><trkpt lat="45.6413722" lon="13.8624782"><ele>382.0</ele><time>2026-05-05T12:09:34.273Z</time></trkpt><trkpt lat="45.6414162" lon="13.8626008"><ele>381.5</ele><time>2026-05-05T12:09:36.273Z</time></trkpt><trkpt lat="45.6414738" lon="13.8627719"><ele>381.0</ele><time>2026-05-05T12:09:38.272Z</time></trkpt><trkpt lat="45.6415011" lon="13.8628674"><ele>380.5</ele><time>2026-05-05T12:09:39.273Z</time></trkpt><trkpt lat="45.6415297" lon="13.8629599"><ele>380.0</ele><time>2026-05-05T12:09:40.273Z</time></trkpt><trkpt lat="45.6415549" lon="13.863047"><ele>380.0</ele><time>2026-05-05T12:09:41.272Z</time></trkpt><trkpt lat="45.6415804" lon="13.8631439"><ele>380.0</ele><time>2026-05-05T12:09:42.272Z</time></trkpt><trkpt lat="45.6416147" lon="13.8632551"><ele>380.0</ele><time>2026-05-05T12:09:44.273Z</time></trkpt><trkpt lat="45.6416702" lon="13.8632988"><ele>380.0</ele><time>2026-05-05T12:09:45.272Z</time></trkpt><trkpt lat="45.6417922" lon="13.8633092"><ele>380.0</ele><time>2026-05-05T12:09:47.272Z</time></trkpt><trkpt lat="45.6418631" lon="13.8632873"><ele>380.0</ele><time>2026-05-05T12:09:48.273Z</time></trkpt><trkpt lat="45.6419381" lon="13.8632628"><ele>379.5</ele><time>2026-05-05T12:09:49.272Z</time></trkpt><trkpt lat="45.6420167" lon="13.863242"><ele>379.0</ele><time>2026-05-05T12:09:50.273Z</time></trkpt><trkpt lat="45.6421013" lon="13.8632138"><ele>378.5</ele><time>2026-05-05T12:09:51.273Z</time></trkpt><trkpt lat="45.6421888" lon="13.8631907"><ele>378.0</ele><time>2026-05-05T12:09:52.272Z</time></trkpt><trkpt lat="45.6422779" lon="13.8631751"><ele>377.5</ele><time>2026-05-05T12:09:53.272Z</time></trkpt><trkpt lat="45.6423689" lon="13.8631731"><ele>377.0</ele><time>2026-05-05T12:09:54.273Z</time></trkpt><trkpt lat="45.6424599" lon="13.8631768"><ele>377.0</ele><time>2026-05-05T12:09:55.272Z</time></trkpt><trkpt lat="45.6425531" lon="13.8631913"><ele>377.0</ele><time>2026-05-05T12:09:56.272Z</time></trkpt><trkpt lat="45.6426389" lon="13.8632151"><ele>377.0</ele><time>2026-05-05T12:09:57.272Z</time></trkpt><trkpt lat="45.6427207" lon="13.8632438"><ele>377.0</ele><time>2026-05-05T12:09:58.273Z</time></trkpt><trkpt lat="45.642795" lon="13.8632729"><ele>377.0</ele><time>2026-05-05T12:09:59.273Z</time></trkpt><trkpt lat="45.6428599" lon="13.8632773"><ele>377.0</ele><time>2026-05-05T12:10:00.273Z</time></trkpt><trkpt lat="45.6429245" lon="13.8632553"><ele>377.1666666666667</ele><time>2026-05-05T12:10:01.273Z</time></trkpt><trkpt lat="45.642992" lon="13.8632121"><ele>377.33333333333337</ele><time>2026-05-05T12:10:02.273Z</time></trkpt><trkpt lat="45.6430684" lon="13.8631637"><ele>377.5</ele><time>2026-05-05T12:10:03.273Z</time></trkpt><trkpt lat="45.6431552" lon="13.8631244"><ele>377.6666666666667</ele><time>2026-05-05T12:10:04.272Z</time></trkpt><trkpt lat="45.6432527" lon="13.8630845"><ele>377.8333333333333</ele><time>2026-05-05T12:10:05.273Z</time></trkpt><trkpt lat="45.6433405" lon="13.8630432"><ele>378.0</ele><time>2026-05-05T12:10:06.272Z</time></trkpt><trkpt lat="45.643428" lon="13.8629954"><ele>378.0</ele><time>2026-05-05T12:10:07.273Z</time></trkpt><trkpt lat="45.6435129" lon="13.8629486"><ele>378.0</ele><time>2026-05-05T12:10:08.272Z</time></trkpt><trkpt lat="45.6436065" lon="13.862912"><ele>378.0</ele><time>2026-05-05T12:10:09.273Z</time></trkpt><trkpt lat="45.6437091" lon="13.8628845"><ele>378.0</ele><time>2026-05-05T12:10:10.273Z</time></trkpt><trkpt lat="45.6438256" lon="13.8628708"><ele>378.0</ele><time>2026-05-05T12:10:11.272Z</time></trkpt><trkpt lat="45.6439389" lon="13.8628507"><ele>378.0</ele><time>2026-05-05T12:10:12.273Z</time></trkpt><trkpt lat="45.6440576" lon="13.8628315"><ele>378.0</ele><time>2026-05-05T12:10:13.272Z</time></trkpt><trkpt lat="45.6441672" lon="13.8628162"><ele>378.0</ele><time>2026-05-05T12:10:14.273Z</time></trkpt><trkpt lat="45.6442741" lon="13.8627991"><ele>378.0</ele><time>2026-05-05T12:10:15.273Z</time></trkpt><trkpt lat="45.6443718" lon="13.8627785"><ele>378.0</ele><time>2026-05-05T12:10:16.273Z</time></trkpt><trkpt lat="45.6444614" lon="13.8627607"><ele>378.0</ele><time>2026-05-05T12:10:17.272Z</time></trkpt><trkpt lat="45.644542" lon="13.8627146"><ele>378.0</ele><time>2026-05-05T12:10:18.273Z</time></trkpt><trkpt lat="45.6446118" lon="13.8626378"><ele>378.0</ele><time>2026-05-05T12:10:19.272Z</time></trkpt><trkpt lat="45.6446744" lon="13.8625337"><ele>378.0</ele><time>2026-05-05T12:10:20.273Z</time></trkpt><trkpt lat="45.6447495" lon="13.8624234"><ele>378.0</ele><time>2026-05-05T12:10:21.272Z</time></trkpt><trkpt lat="45.6448289" lon="13.8623075"><ele>377.4</ele><time>2026-05-05T12:10:22.273Z</time></trkpt><trkpt lat="45.6449049" lon="13.862198"><ele>376.79999999999995</ele><time>2026-05-05T12:10:23.272Z</time></trkpt><trkpt lat="45.6449818" lon="13.8620911"><ele>376.2</ele><time>2026-05-05T12:10:24.273Z</time></trkpt><trkpt lat="45.6450554" lon="13.8619858"><ele>375.6</ele><time>2026-05-05T12:10:25.273Z</time></trkpt><trkpt lat="45.6451272" lon="13.861865"><ele>375.0</ele><time>2026-05-05T12:10:26.273Z</time></trkpt><trkpt lat="45.6452009" lon="13.8617355"><ele>375.25</ele><time>2026-05-05T12:10:27.273Z</time></trkpt><trkpt lat="45.6452749" lon="13.8615889"><ele>375.5</ele><time>2026-05-05T12:10:28.273Z</time></trkpt><trkpt lat="45.6453435" lon="13.8614321"><ele>375.75</ele><time>2026-05-05T12:10:29.273Z</time></trkpt><trkpt lat="45.6454112" lon="13.8612768"><ele>376.0</ele><time>2026-05-05T12:10:30.273Z</time></trkpt><trkpt lat="45.6454755" lon="13.861109"><ele>375.5</ele><time>2026-05-05T12:10:31.273Z</time></trkpt><trkpt lat="45.645535" lon="13.8609415"><ele>375.0</ele><time>2026-05-05T12:10:32.272Z</time></trkpt><trkpt lat="45.6455954" lon="13.8607608"><ele>374.5</ele><time>2026-05-05T12:10:33.273Z</time></trkpt><trkpt lat="45.6456559" lon="13.8605786"><ele>374.0</ele><time>2026-05-05T12:10:34.273Z</time></trkpt><trkpt lat="45.6457112" lon="13.8603926"><ele>374.0</ele><time>2026-05-05T12:10:35.273Z</time></trkpt><trkpt lat="45.6457709" lon="13.8602016"><ele>374.0</ele><time>2026-05-05T12:10:36.273Z</time></trkpt><trkpt lat="45.6458244" lon="13.8600147"><ele>374.0</ele><time>2026-05-05T12:10:37.272Z</time></trkpt><trkpt lat="45.6458963" lon="13.8598322"><ele>374.0</ele><time>2026-05-05T12:10:38.272Z</time></trkpt><trkpt lat="45.6459763" lon="13.8596387"><ele>373.33333333333337</ele><time>2026-05-05T12:10:39.273Z</time></trkpt><trkpt lat="45.6460531" lon="13.8594523"><ele>372.6666666666667</ele><time>2026-05-05T12:10:40.273Z</time></trkpt><trkpt lat="45.6461355" lon="13.8592683"><ele>372.0</ele><time>2026-05-05T12:10:41.272Z</time></trkpt><trkpt lat="45.6462202" lon="13.8590779"><ele>372.0</ele><time>2026-05-05T12:10:42.273Z</time></trkpt><trkpt lat="45.6463041" lon="13.8588957"><ele>372.0</ele><time>2026-05-05T12:10:43.272Z</time></trkpt><trkpt lat="45.6463849" lon="13.8587058"><ele>372.0</ele><time>2026-05-05T12:10:44.273Z</time></trkpt><trkpt lat="45.6464635" lon="13.8585135"><ele>371.6666666666667</ele><time>2026-05-05T12:10:45.272Z</time></trkpt><trkpt lat="45.6465438" lon="13.8583256"><ele>371.33333333333337</ele><time>2026-05-05T12:10:46.273Z</time></trkpt><trkpt lat="45.6466255" lon="13.85814"><ele>371.0</ele><time>2026-05-05T12:10:47.273Z</time></trkpt><trkpt lat="45.6467019" lon="13.8579591"><ele>371.0</ele><time>2026-05-05T12:10:48.272Z</time></trkpt><trkpt lat="45.6467786" lon="13.8577697"><ele>371.0</ele><time>2026-05-05T12:10:49.273Z</time></trkpt><trkpt lat="45.6468559" lon="13.8575846"><ele>371.0</ele><time>2026-05-05T12:10:50.273Z</time></trkpt><trkpt lat="45.6469265" lon="13.8574002"><ele>371.0</ele><time>2026-05-05T12:10:51.273Z</time></trkpt><trkpt lat="45.646998" lon="13.8572173"><ele>371.0</ele><time>2026-05-05T12:10:52.272Z</time></trkpt><trkpt lat="45.647064" lon="13.8570279"><ele>371.0</ele><time>2026-05-05T12:10:53.273Z</time></trkpt><trkpt lat="45.647132" lon="13.856834"><ele>371.0</ele><time>2026-05-05T12:10:54.273Z</time></trkpt><trkpt lat="45.6471987" lon="13.8566315"><ele>370.6666666666667</ele><time>2026-05-05T12:10:55.273Z</time></trkpt><trkpt lat="45.6472641" lon="13.8564223"><ele>370.3333333333333</ele><time>2026-05-05T12:10:56.272Z</time></trkpt><trkpt lat="45.6473309" lon="13.8562089"><ele>370.0</ele><time>2026-05-05T12:10:57.272Z</time></trkpt><trkpt lat="45.6473976" lon="13.8559959"><ele>369.66666666666663</ele><time>2026-05-05T12:10:58.273Z</time></trkpt><trkpt lat="45.6474647" lon="13.8557793"><ele>369.3333333333333</ele><time>2026-05-05T12:10:59.273Z</time></trkpt><trkpt lat="45.6475303" lon="13.8555573"><ele>369.0</ele><time>2026-05-05T12:11:00.272Z</time></trkpt><trkpt lat="45.6475973" lon="13.8553472"><ele>369.0</ele><time>2026-05-05T12:11:01.273Z</time></trkpt><trkpt lat="45.6476653" lon="13.855133"><ele>369.0</ele><time>2026-05-05T12:11:02.273Z</time></trkpt><trkpt lat="45.6477317" lon="13.8549191"><ele>369.0</ele><time>2026-05-05T12:11:03.273Z</time></trkpt><trkpt lat="45.6477818" lon="13.854703"><ele>370.3333333333333</ele><time>2026-05-05T12:11:04.273Z</time></trkpt><trkpt lat="45.6478481" lon="13.8544867"><ele>371.66666666666663</ele><time>2026-05-05T12:11:05.272Z</time></trkpt><trkpt lat="45.6479162" lon="13.8542688"><ele>373.0</ele><time>2026-05-05T12:11:06.273Z</time></trkpt><trkpt lat="45.6479838" lon="13.8540524"><ele>373.3333333333333</ele><time>2026-05-05T12:11:07.273Z</time></trkpt><trkpt lat="45.6480497" lon="13.8538289"><ele>373.6666666666667</ele><time>2026-05-05T12:11:08.272Z</time></trkpt><trkpt lat="45.6481145" lon="13.8536081"><ele>374.0</ele><time>2026-05-05T12:11:09.273Z</time></trkpt><trkpt lat="45.6481773" lon="13.8533922"><ele>373.33333333333337</ele><time>2026-05-05T12:11:10.272Z</time></trkpt><trkpt lat="45.6482485" lon="13.853165"><ele>372.6666666666667</ele><time>2026-05-05T12:11:11.273Z</time></trkpt><trkpt lat="45.6483175" lon="13.8529483"><ele>372.0</ele><time>2026-05-05T12:11:12.272Z</time></trkpt><trkpt lat="45.6483851" lon="13.8527295"><ele>372.6666666666667</ele><time>2026-05-05T12:11:13.273Z</time></trkpt><trkpt lat="45.6484535" lon="13.8525084"><ele>373.33333333333337</ele><time>2026-05-05T12:11:14.273Z</time></trkpt><trkpt lat="45.6485248" lon="13.8522954"><ele>374.0</ele><time>2026-05-05T12:11:15.273Z</time></trkpt><trkpt lat="45.648594" lon="13.852073"><ele>375.0</ele><time>2026-05-05T12:11:16.273Z</time></trkpt><trkpt lat="45.6486684" lon="13.8518597"><ele>376.0</ele><time>2026-05-05T12:11:17.272Z</time></trkpt><trkpt lat="45.6487381" lon="13.8516416"><ele>377.0</ele><time>2026-05-05T12:11:18.273Z</time></trkpt><trkpt lat="45.6488248" lon="13.8514311"><ele>374.33333333333337</ele><time>2026-05-05T12:11:19.272Z</time></trkpt><trkpt lat="45.6488985" lon="13.851222"><ele>371.6666666666667</ele><time>2026-05-05T12:11:20.272Z</time></trkpt><trkpt lat="45.6489847" lon="13.8510239"><ele>369.0</ele><time>2026-05-05T12:11:21.273Z</time></trkpt><trkpt lat="45.6490753" lon="13.8508297"><ele>368.6666666666667</ele><time>2026-05-05T12:11:22.273Z</time></trkpt><trkpt lat="45.6491672" lon="13.8506363"><ele>368.33333333333337</ele><time>2026-05-05T12:11:23.273Z</time></trkpt><trkpt lat="45.6492534" lon="13.8504585"><ele>368.0</ele><time>2026-05-05T12:11:24.273Z</time></trkpt><trkpt lat="45.6493408" lon="13.8502926"><ele>368.0</ele><time>2026-05-05T12:11:25.273Z</time></trkpt><trkpt lat="45.6494307" lon="13.8501411"><ele>368.0</ele><time>2026-05-05T12:11:26.273Z</time></trkpt><trkpt lat="45.6495273" lon="13.8500064"><ele>368.0</ele><time>2026-05-05T12:11:27.273Z</time></trkpt><trkpt lat="45.6496273" lon="13.8498863"><ele>368.0</ele><time>2026-05-05T12:11:28.273Z</time></trkpt><trkpt lat="45.6497309" lon="13.8497834"><ele>367.0</ele><time>2026-05-05T12:11:29.272Z</time></trkpt><trkpt lat="45.6498488" lon="13.8497008"><ele>366.0</ele><time>2026-05-05T12:11:30.273Z</time></trkpt><trkpt lat="45.6499823" lon="13.8496222"><ele>365.0</ele><time>2026-05-05T12:11:31.273Z</time></trkpt><trkpt lat="45.650131" lon="13.8495518"><ele>364.0</ele><time>2026-05-05T12:11:32.272Z</time></trkpt><trkpt lat="45.6502765" lon="13.8494793"><ele>364.3333333333333</ele><time>2026-05-05T12:11:33.273Z</time></trkpt><trkpt lat="45.650427" lon="13.84941"><ele>364.6666666666667</ele><time>2026-05-05T12:11:34.273Z</time></trkpt><trkpt lat="45.6505882" lon="13.8493398"><ele>365.0</ele><time>2026-05-05T12:11:35.273Z</time></trkpt><trkpt lat="45.6507524" lon="13.849262"><ele>365.33333333333337</ele><time>2026-05-05T12:11:36.272Z</time></trkpt><trkpt lat="45.6509145" lon="13.8491866"><ele>365.6666666666667</ele><time>2026-05-05T12:11:37.273Z</time></trkpt><trkpt lat="45.6510779" lon="13.8491068"><ele>366.0</ele><time>2026-05-05T12:11:38.273Z</time></trkpt><trkpt lat="45.6512376" lon="13.8490288"><ele>366.3333333333333</ele><time>2026-05-05T12:11:39.272Z</time></trkpt><trkpt lat="45.6513981" lon="13.8489532"><ele>366.66666666666663</ele><time>2026-05-05T12:11:40.273Z</time></trkpt><trkpt lat="45.6515502" lon="13.8488826"><ele>367.0</ele><time>2026-05-05T12:11:41.273Z</time></trkpt><trkpt lat="45.6516965" lon="13.8488128"><ele>367.0</ele><time>2026-05-05T12:11:42.273Z</time></trkpt><trkpt lat="45.6518311" lon="13.8487492"><ele>367.0</ele><time>2026-05-05T12:11:43.273Z</time></trkpt><trkpt lat="45.6519607" lon="13.8486918"><ele>367.0</ele><time>2026-05-05T12:11:44.273Z</time></trkpt><trkpt lat="45.6520748" lon="13.8486367"><ele>367.0</ele><time>2026-05-05T12:11:45.273Z</time></trkpt><trkpt lat="45.6521828" lon="13.848583"><ele>367.0</ele><time>2026-05-05T12:11:46.272Z</time></trkpt><trkpt lat="45.6522915" lon="13.8485111"><ele>367.0</ele><time>2026-05-05T12:11:47.273Z</time></trkpt><trkpt lat="45.6523903" lon="13.8484069"><ele>367.0</ele><time>2026-05-05T12:11:48.273Z</time></trkpt><trkpt lat="45.6524825" lon="13.8482855"><ele>367.0</ele><time>2026-05-05T12:11:49.272Z</time></trkpt><trkpt lat="45.6525684" lon="13.8481487"><ele>367.0</ele><time>2026-05-05T12:11:50.272Z</time></trkpt><trkpt lat="45.652653" lon="13.8479632"><ele>367.0</ele><time>2026-05-05T12:11:51.273Z</time></trkpt><trkpt lat="45.6527321" lon="13.8477702"><ele>367.0</ele><time>2026-05-05T12:11:52.273Z</time></trkpt><trkpt lat="45.6528117" lon="13.847575"><ele>367.0</ele><time>2026-05-05T12:11:53.273Z</time></trkpt><trkpt lat="45.6528973" lon="13.8473633"><ele>367.0</ele><time>2026-05-05T12:11:54.273Z</time></trkpt><trkpt lat="45.652984" lon="13.8471508"><ele>367.0</ele><time>2026-05-05T12:11:55.272Z</time></trkpt><trkpt lat="45.6530716" lon="13.846942"><ele>367.0</ele><time>2026-05-05T12:11:56.273Z</time></trkpt><trkpt lat="45.6531606" lon="13.8467248"><ele>367.0</ele><time>2026-05-05T12:11:57.272Z</time></trkpt><trkpt lat="45.6532434" lon="13.8465123"><ele>367.0</ele><time>2026-05-05T12:11:58.273Z</time></trkpt><trkpt lat="45.6533327" lon="13.8463025"><ele>367.0</ele><time>2026-05-05T12:11:59.273Z</time></trkpt><trkpt lat="45.6534212" lon="13.8460943"><ele>367.0</ele><time>2026-05-05T12:12:00.273Z</time></trkpt><trkpt lat="45.6535118" lon="13.8458782"><ele>367.0</ele><time>2026-05-05T12:12:01.273Z</time></trkpt><trkpt lat="45.6536085" lon="13.8456562"><ele>367.0</ele><time>2026-05-05T12:12:02.273Z</time></trkpt><trkpt lat="45.6537066" lon="13.8454276"><ele>367.0</ele><time>2026-05-05T12:12:03.273Z</time></trkpt><trkpt lat="45.6537948" lon="13.8452011"><ele>367.0</ele><time>2026-05-05T12:12:04.272Z</time></trkpt><trkpt lat="45.653889" lon="13.8449824"><ele>366.66666666666663</ele><time>2026-05-05T12:12:05.272Z</time></trkpt><trkpt lat="45.6539826" lon="13.8447662"><ele>366.3333333333333</ele><time>2026-05-05T12:12:06.273Z</time></trkpt><trkpt lat="45.6540764" lon="13.8445544"><ele>366.0</ele><time>2026-05-05T12:12:07.272Z</time></trkpt><trkpt lat="45.6541719" lon="13.8443477"><ele>365.6666666666667</ele><time>2026-05-05T12:12:08.273Z</time></trkpt><trkpt lat="45.6542618" lon="13.8441406"><ele>365.33333333333337</ele><time>2026-05-05T12:12:09.272Z</time></trkpt><trkpt lat="45.6543483" lon="13.8439399"><ele>365.0</ele><time>2026-05-05T12:12:10.273Z</time></trkpt><trkpt lat="45.6544363" lon="13.8437415"><ele>365.0</ele><time>2026-05-05T12:12:11.273Z</time></trkpt><trkpt lat="45.6545187" lon="13.8435558"><ele>365.0</ele><time>2026-05-05T12:12:12.273Z</time></trkpt><trkpt lat="45.6546009" lon="13.8433743"><ele>365.0</ele><time>2026-05-05T12:12:13.272Z</time></trkpt><trkpt lat="45.6546822" lon="13.8432005"><ele>365.25</ele><time>2026-05-05T12:12:14.273Z</time></trkpt><trkpt lat="45.6547692" lon="13.843041"><ele>365.5</ele><time>2026-05-05T12:12:15.273Z</time></trkpt><trkpt lat="45.6548556" lon="13.8428658"><ele>365.75</ele><time>2026-05-05T12:12:16.273Z</time></trkpt><trkpt lat="45.6549416" lon="13.8426917"><ele>366.0</ele><time>2026-05-05T12:12:17.273Z</time></trkpt><trkpt lat="45.6550319" lon="13.84252"><ele>365.6666666666667</ele><time>2026-05-05T12:12:18.272Z</time></trkpt><trkpt lat="45.6551229" lon="13.8423525"><ele>365.33333333333337</ele><time>2026-05-05T12:12:19.273Z</time></trkpt><trkpt lat="45.6552192" lon="13.8421818"><ele>365.0</ele><time>2026-05-05T12:12:20.273Z</time></trkpt><trkpt lat="45.6553147" lon="13.8420189"><ele>365.0</ele><time>2026-05-05T12:12:21.273Z</time></trkpt><trkpt lat="45.6554126" lon="13.8418534"><ele>365.0</ele><time>2026-05-05T12:12:22.273Z</time></trkpt><trkpt lat="45.6555078" lon="13.8416978"><ele>365.0</ele><time>2026-05-05T12:12:23.272Z</time></trkpt><trkpt lat="45.6556053" lon="13.8415433"><ele>365.0</ele><time>2026-05-05T12:12:24.272Z</time></trkpt><trkpt lat="45.6556997" lon="13.8413946"><ele>364.75</ele><time>2026-05-05T12:12:25.273Z</time></trkpt><trkpt lat="45.6557925" lon="13.8412517"><ele>364.5</ele><time>2026-05-05T12:12:26.273Z</time></trkpt><trkpt lat="45.6558966" lon="13.841109"><ele>364.25</ele><time>2026-05-05T12:12:27.272Z</time></trkpt><trkpt lat="45.6559918" lon="13.8409606"><ele>364.0</ele><time>2026-05-05T12:12:28.273Z</time></trkpt><trkpt lat="45.6560967" lon="13.8408146"><ele>363.75</ele><time>2026-05-05T12:12:29.273Z</time></trkpt><trkpt lat="45.6561989" lon="13.8406685"><ele>363.5</ele><time>2026-05-05T12:12:30.272Z</time></trkpt><trkpt lat="45.6563016" lon="13.8405216"><ele>363.25</ele><time>2026-05-05T12:12:31.273Z</time></trkpt><trkpt lat="45.6563997" lon="13.8403861"><ele>363.0</ele><time>2026-05-05T12:12:32.273Z</time></trkpt><trkpt lat="45.6564911" lon="13.8402575"><ele>363.0</ele><time>2026-05-05T12:12:33.273Z</time></trkpt><trkpt lat="45.6565771" lon="13.8401419"><ele>363.0</ele><time>2026-05-05T12:12:34.272Z</time></trkpt><trkpt lat="45.656656" lon="13.8400379"><ele>363.0</ele><time>2026-05-05T12:12:35.273Z</time></trkpt><trkpt lat="45.6567281" lon="13.8399435"><ele>363.0</ele><time>2026-05-05T12:12:36.273Z</time></trkpt><trkpt lat="45.6567953" lon="13.8398654"><ele>363.0</ele><time>2026-05-05T12:12:37.273Z</time></trkpt><trkpt lat="45.6568636" lon="13.839798"><ele>362.5</ele><time>2026-05-05T12:12:38.272Z</time></trkpt><trkpt lat="45.6569396" lon="13.8397424"><ele>362.0</ele><time>2026-05-05T12:12:39.272Z</time></trkpt><trkpt lat="45.6570176" lon="13.8396849"><ele>361.5</ele><time>2026-05-05T12:12:40.272Z</time></trkpt><trkpt lat="45.6570912" lon="13.8396304"><ele>361.0</ele><time>2026-05-05T12:12:41.273Z</time></trkpt><trkpt lat="45.6571713" lon="13.8395778"><ele>360.5</ele><time>2026-05-05T12:12:42.273Z</time></trkpt><trkpt lat="45.6572512" lon="13.8395271"><ele>360.0</ele><time>2026-05-05T12:12:43.273Z</time></trkpt><trkpt lat="45.6573311" lon="13.8394702"><ele>360.0</ele><time>2026-05-05T12:12:44.272Z</time></trkpt><trkpt lat="45.6574101" lon="13.8394086"><ele>360.0</ele><time>2026-05-05T12:12:45.273Z</time></trkpt><trkpt lat="45.6574831" lon="13.8393492"><ele>360.0</ele><time>2026-05-05T12:12:46.273Z</time></trkpt><trkpt lat="45.65755" lon="13.8392922"><ele>360.0</ele><time>2026-05-05T12:12:47.273Z</time></trkpt><trkpt lat="45.6576201" lon="13.8392368"><ele>360.0</ele><time>2026-05-05T12:12:48.273Z</time></trkpt><trkpt lat="45.6576948" lon="13.8391859"><ele>360.0</ele><time>2026-05-05T12:12:49.273Z</time></trkpt><trkpt lat="45.6577762" lon="13.8391486"><ele>360.2</ele><time>2026-05-05T12:12:50.272Z</time></trkpt><trkpt lat="45.6578729" lon="13.8391202"><ele>360.4</ele><time>2026-05-05T12:12:51.273Z</time></trkpt><trkpt lat="45.6579809" lon="13.839088"><ele>360.6</ele><time>2026-05-05T12:12:52.273Z</time></trkpt><trkpt lat="45.6580935" lon="13.8390633"><ele>360.8</ele><time>2026-05-05T12:12:53.272Z</time></trkpt><trkpt lat="45.6582109" lon="13.8390354"><ele>361.0</ele><time>2026-05-05T12:12:54.272Z</time></trkpt><trkpt lat="45.658331" lon="13.8390064"><ele>361.0</ele><time>2026-05-05T12:12:55.273Z</time></trkpt><trkpt lat="45.6584394" lon="13.838981"><ele>361.0</ele><time>2026-05-05T12:12:56.273Z</time></trkpt><trkpt lat="45.6585374" lon="13.8389573"><ele>361.0</ele><time>2026-05-05T12:12:57.273Z</time></trkpt><trkpt lat="45.6586272" lon="13.8389382"><ele>361.0</ele><time>2026-05-05T12:12:58.272Z</time></trkpt><trkpt lat="45.6587049" lon="13.8389205"><ele>361.0</ele><time>2026-05-05T12:12:59.273Z</time></trkpt><trkpt lat="45.6587751" lon="13.8388905"><ele>361.0</ele><time>2026-05-05T12:13:00.273Z</time></trkpt><trkpt lat="45.6588421" lon="13.8388267"><ele>361.0</ele><time>2026-05-05T12:13:01.273Z</time></trkpt><trkpt lat="45.6589082" lon="13.8387279"><ele>361.0</ele><time>2026-05-05T12:13:02.272Z</time></trkpt><trkpt lat="45.6589684" lon="13.8385961"><ele>361.0</ele><time>2026-05-05T12:13:03.272Z</time></trkpt><trkpt lat="45.6590349" lon="13.8384409"><ele>361.0</ele><time>2026-05-05T12:13:04.273Z</time></trkpt><trkpt lat="45.6591097" lon="13.8382848"><ele>361.0</ele><time>2026-05-05T12:13:05.273Z</time></trkpt><trkpt lat="45.6591906" lon="13.8381262"><ele>361.0</ele><time>2026-05-05T12:13:06.273Z</time></trkpt><trkpt lat="45.6592721" lon="13.8379763"><ele>361.0</ele><time>2026-05-05T12:13:07.272Z</time></trkpt><trkpt lat="45.6593589" lon="13.8378307"><ele>361.0</ele><time>2026-05-05T12:13:08.272Z</time></trkpt><trkpt lat="45.6594501" lon="13.837706"><ele>361.0</ele><time>2026-05-05T12:13:09.272Z</time></trkpt><trkpt lat="45.65955" lon="13.8375858"><ele>361.0</ele><time>2026-05-05T12:13:10.273Z</time></trkpt><trkpt lat="45.6596555" lon="13.8374659"><ele>361.0</ele><time>2026-05-05T12:13:11.272Z</time></trkpt><trkpt lat="45.6597612" lon="13.8373517"><ele>361.0</ele><time>2026-05-05T12:13:12.273Z</time></trkpt><trkpt lat="45.6598759" lon="13.8372244"><ele>361.0</ele><time>2026-05-05T12:13:13.273Z</time></trkpt><trkpt lat="45.6599878" lon="13.837102"><ele>361.0</ele><time>2026-05-05T12:13:14.273Z</time></trkpt><trkpt lat="45.6601025" lon="13.8369796"><ele>361.0</ele><time>2026-05-05T12:13:15.273Z</time></trkpt><trkpt lat="45.6602101" lon="13.8368597"><ele>361.0</ele><time>2026-05-05T12:13:16.272Z</time></trkpt><trkpt lat="45.6603128" lon="13.836743"><ele>360.75</ele><time>2026-05-05T12:13:17.273Z</time></trkpt><trkpt lat="45.6604182" lon="13.8366349"><ele>360.5</ele><time>2026-05-05T12:13:18.272Z</time></trkpt><trkpt lat="45.6605185" lon="13.836538"><ele>360.25</ele><time>2026-05-05T12:13:19.273Z</time></trkpt><trkpt lat="45.6606126" lon="13.8364497"><ele>360.0</ele><time>2026-05-05T12:13:20.272Z</time></trkpt><trkpt lat="45.6606973" lon="13.836372"><ele>360.0</ele><time>2026-05-05T12:13:21.273Z</time></trkpt><trkpt lat="45.6607695" lon="13.8363028"><ele>360.0</ele><time>2026-05-05T12:13:22.273Z</time></trkpt><trkpt lat="45.6608205" lon="13.836249"><ele>360.0</ele><time>2026-05-05T12:13:23.273Z</time></trkpt><trkpt lat="45.6608781" lon="13.8361296"><ele>360.0</ele><time>2026-05-05T12:13:25.272Z</time></trkpt><trkpt lat="45.6608395" lon="13.8359943"><ele>360.0</ele><time>2026-05-05T12:13:27.272Z</time></trkpt><trkpt lat="45.6607972" lon="13.8359082"><ele>360.0</ele><time>2026-05-05T12:13:28.273Z</time></trkpt><trkpt lat="45.6607483" lon="13.8357936"><ele>359.75</ele><time>2026-05-05T12:13:29.273Z</time></trkpt><trkpt lat="45.6606891" lon="13.8356583"><ele>359.5</ele><time>2026-05-05T12:13:30.273Z</time></trkpt><trkpt lat="45.6606277" lon="13.8355216"><ele>359.25</ele><time>2026-05-05T12:13:31.272Z</time></trkpt><trkpt lat="45.6605577" lon="13.8353784"><ele>359.0</ele><time>2026-05-05T12:13:32.273Z</time></trkpt><trkpt lat="45.6604832" lon="13.8352221"><ele>359.0</ele><time>2026-05-05T12:13:33.273Z</time></trkpt><trkpt lat="45.6604029" lon="13.8350504"><ele>359.0</ele><time>2026-05-05T12:13:34.273Z</time></trkpt><trkpt lat="45.6603219" lon="13.834875"><ele>359.0</ele><time>2026-05-05T12:13:35.273Z</time></trkpt><trkpt lat="45.6602426" lon="13.8346983"><ele>359.0</ele><time>2026-05-05T12:13:36.272Z</time></trkpt><trkpt lat="45.6601597" lon="13.8345211"><ele>359.0</ele><time>2026-05-05T12:13:37.273Z</time></trkpt><trkpt lat="45.6600729" lon="13.8343502"><ele>359.0</ele><time>2026-05-05T12:13:38.273Z</time></trkpt><trkpt lat="45.6599853" lon="13.8341831"><ele>359.0</ele><time>2026-05-05T12:13:39.272Z</time></trkpt><trkpt lat="45.6598979" lon="13.8340158"><ele>359.0</ele><time>2026-05-05T12:13:40.273Z</time></trkpt><trkpt lat="45.6598111" lon="13.8338483"><ele>358.75</ele><time>2026-05-05T12:13:41.273Z</time></trkpt><trkpt lat="45.659726" lon="13.8336825"><ele>358.5</ele><time>2026-05-05T12:13:42.272Z</time></trkpt><trkpt lat="45.6596413" lon="13.8335218"><ele>358.25</ele><time>2026-05-05T12:13:43.272Z</time></trkpt><trkpt lat="45.6595568" lon="13.8333618"><ele>358.0</ele><time>2026-05-05T12:13:44.272Z</time></trkpt><trkpt lat="45.6594676" lon="13.8332067"><ele>357.79999999999995</ele><time>2026-05-05T12:13:45.273Z</time></trkpt><trkpt lat="45.6593947" lon="13.8330737"><ele>357.6</ele><time>2026-05-05T12:13:46.272Z</time></trkpt><trkpt lat="45.6593275" lon="13.832958"><ele>357.4</ele><time>2026-05-05T12:13:47.272Z</time></trkpt><trkpt lat="45.6592711" lon="13.8328588"><ele>357.20000000000005</ele><time>2026-05-05T12:13:48.272Z</time></trkpt><trkpt lat="45.6592278" lon="13.8327613"><ele>357.0</ele><time>2026-05-05T12:13:49.272Z</time></trkpt><trkpt lat="45.6592091" lon="13.8326585"><ele>357.0</ele><time>2026-05-05T12:13:50.273Z</time></trkpt><trkpt lat="45.6592162" lon="13.8325575"><ele>357.0</ele><time>2026-05-05T12:13:51.272Z</time></trkpt><trkpt lat="45.659253" lon="13.8324659"><ele>357.0</ele><time>2026-05-05T12:13:52.272Z</time></trkpt><trkpt lat="45.6593081" lon="13.8323886"><ele>357.0</ele><time>2026-05-05T12:13:53.272Z</time></trkpt><trkpt lat="45.6593848" lon="13.8323102"><ele>357.0</ele><time>2026-05-05T12:13:54.272Z</time></trkpt><trkpt lat="45.6594716" lon="13.8322237"><ele>357.0</ele><time>2026-05-05T12:13:55.273Z</time></trkpt><trkpt lat="45.6595706" lon="13.8321148"><ele>357.0</ele><time>2026-05-05T12:13:56.272Z</time></trkpt><trkpt lat="45.6596682" lon="13.831999"><ele>357.0</ele><time>2026-05-05T12:13:57.272Z</time></trkpt><trkpt lat="45.659753" lon="13.8318968"><ele>357.0</ele><time>2026-05-05T12:13:58.272Z</time></trkpt><trkpt lat="45.6598212" lon="13.8318014"><ele>357.0</ele><time>2026-05-05T12:13:59.272Z</time></trkpt><trkpt lat="45.6598773" lon="13.8317271"><ele>357.0</ele><time>2026-05-05T12:14:00.272Z</time></trkpt><trkpt lat="45.6599286" lon="13.831647"><ele>357.25</ele><time>2026-05-05T12:14:01.273Z</time></trkpt><trkpt lat="45.6599931" lon="13.8315597"><ele>357.5</ele><time>2026-05-05T12:14:02.273Z</time></trkpt><trkpt lat="45.6600805" lon="13.8314585"><ele>357.75</ele><time>2026-05-05T12:14:03.272Z</time></trkpt><trkpt lat="45.6601728" lon="13.8313578"><ele>358.0</ele><time>2026-05-05T12:14:04.272Z</time></trkpt><trkpt lat="45.6602847" lon="13.8312336"><ele>358.0</ele><time>2026-05-05T12:14:05.272Z</time></trkpt><trkpt lat="45.6604096" lon="13.8311008"><ele>358.0</ele><time>2026-05-05T12:14:06.273Z</time></trkpt><trkpt lat="45.6605354" lon="13.8309655"><ele>358.0</ele><time>2026-05-05T12:14:07.272Z</time></trkpt><trkpt lat="45.6606765" lon="13.8308282"><ele>358.66666666666663</ele><time>2026-05-05T12:14:08.273Z</time></trkpt><trkpt lat="45.660823" lon="13.8306795"><ele>359.3333333333333</ele><time>2026-05-05T12:14:09.273Z</time></trkpt><trkpt lat="45.660976" lon="13.8305369"><ele>360.0</ele><time>2026-05-05T12:14:10.272Z</time></trkpt><trkpt lat="45.6611293" lon="13.8304046"><ele>360.0</ele><time>2026-05-05T12:14:11.272Z</time></trkpt><trkpt lat="45.6612816" lon="13.8302797"><ele>360.0</ele><time>2026-05-05T12:14:12.272Z</time></trkpt><trkpt lat="45.6614334" lon="13.8301504"><ele>360.0</ele><time>2026-05-05T12:14:13.273Z</time></trkpt><trkpt lat="45.6615888" lon="13.8300171"><ele>360.0</ele><time>2026-05-05T12:14:14.273Z</time></trkpt><trkpt lat="45.6617518" lon="13.8298711"><ele>360.0</ele><time>2026-05-05T12:14:15.272Z</time></trkpt><trkpt lat="45.661921" lon="13.8297228"><ele>360.0</ele><time>2026-05-05T12:14:16.273Z</time></trkpt><trkpt lat="45.6621006" lon="13.8295693"><ele>360.0</ele><time>2026-05-05T12:14:17.272Z</time></trkpt><trkpt lat="45.6622785" lon="13.8294169"><ele>360.0</ele><time>2026-05-05T12:14:18.272Z</time></trkpt><trkpt lat="45.6624539" lon="13.8292666"><ele>360.0</ele><time>2026-05-05T12:14:19.273Z</time></trkpt><trkpt lat="45.6626306" lon="13.8291138"><ele>360.3333333333333</ele><time>2026-05-05T12:14:20.273Z</time></trkpt><trkpt lat="45.662808" lon="13.8289636"><ele>360.66666666666663</ele><time>2026-05-05T12:14:21.272Z</time></trkpt><trkpt lat="45.6629885" lon="13.8288117"><ele>361.0</ele><time>2026-05-05T12:14:22.273Z</time></trkpt><trkpt lat="45.6631716" lon="13.8286623"><ele>361.0</ele><time>2026-05-05T12:14:23.273Z</time></trkpt><trkpt lat="45.6633534" lon="13.828512"><ele>361.0</ele><time>2026-05-05T12:14:24.273Z</time></trkpt><trkpt lat="45.6635398" lon="13.8283587"><ele>361.0</ele><time>2026-05-05T12:14:25.272Z</time></trkpt><trkpt lat="45.6637234" lon="13.8282039"><ele>361.0</ele><time>2026-05-05T12:14:26.273Z</time></trkpt><trkpt lat="45.6639089" lon="13.8280545"><ele>361.0</ele><time>2026-05-05T12:14:27.272Z</time></trkpt><trkpt lat="45.6640937" lon="13.8278991"><ele>361.0</ele><time>2026-05-05T12:14:28.273Z</time></trkpt><trkpt lat="45.6642784" lon="13.827749"><ele>360.3333333333333</ele><time>2026-05-05T12:14:29.272Z</time></trkpt><trkpt lat="45.664463" lon="13.8275954"><ele>359.6666666666667</ele><time>2026-05-05T12:14:30.272Z</time></trkpt><trkpt lat="45.6646513" lon="13.8274456"><ele>359.0</ele><time>2026-05-05T12:14:31.272Z</time></trkpt><trkpt lat="45.6648354" lon="13.8272905"><ele>359.0</ele><time>2026-05-05T12:14:32.272Z</time></trkpt><trkpt lat="45.6650223" lon="13.8271346"><ele>359.0</ele><time>2026-05-05T12:14:33.273Z</time></trkpt><trkpt lat="45.66521" lon="13.8269795"><ele>359.0</ele><time>2026-05-05T12:14:34.273Z</time></trkpt><trkpt lat="45.6653981" lon="13.8268231"><ele>358.33333333333337</ele><time>2026-05-05T12:14:35.273Z</time></trkpt><trkpt lat="45.6655884" lon="13.8266657"><ele>357.6666666666667</ele><time>2026-05-05T12:14:36.273Z</time></trkpt><trkpt lat="45.6657826" lon="13.8265089"><ele>357.0</ele><time>2026-05-05T12:14:37.273Z</time></trkpt><trkpt lat="45.6659788" lon="13.8263507"><ele>357.5</ele><time>2026-05-05T12:14:38.273Z</time></trkpt><trkpt lat="45.6661727" lon="13.8261905"><ele>358.0</ele><time>2026-05-05T12:14:39.273Z</time></trkpt><trkpt lat="45.6663697" lon="13.8260277"><ele>359.0</ele><time>2026-05-05T12:14:40.272Z</time></trkpt><trkpt lat="45.6665717" lon="13.8258606"><ele>360.0</ele><time>2026-05-05T12:14:41.272Z</time></trkpt><trkpt lat="45.6667755" lon="13.82569"><ele>359.5</ele><time>2026-05-05T12:14:42.273Z</time></trkpt><trkpt lat="45.666985" lon="13.825518"><ele>359.0</ele><time>2026-05-05T12:14:43.272Z</time></trkpt><trkpt lat="45.667195" lon="13.8253482"><ele>359.0</ele><time>2026-05-05T12:14:44.272Z</time></trkpt><trkpt lat="45.6674039" lon="13.8251775"><ele>359.0</ele><time>2026-05-05T12:14:45.272Z</time></trkpt><trkpt lat="45.6676158" lon="13.8250048"><ele>357.5</ele><time>2026-05-05T12:14:46.272Z</time></trkpt><trkpt lat="45.6678336" lon="13.8248189"><ele>356.0</ele><time>2026-05-05T12:14:47.273Z</time></trkpt><trkpt lat="45.6680442" lon="13.8246502"><ele>356.0</ele><time>2026-05-05T12:14:48.272Z</time></trkpt><trkpt lat="45.6682601" lon="13.8244785"><ele>356.0</ele><time>2026-05-05T12:14:49.273Z</time></trkpt><trkpt lat="45.6684736" lon="13.8242977"><ele>354.5</ele><time>2026-05-05T12:14:50.272Z</time></trkpt><trkpt lat="45.6686835" lon="13.8241226"><ele>353.0</ele><time>2026-05-05T12:14:51.273Z</time></trkpt><trkpt lat="45.6688917" lon="13.8239508"><ele>353.0</ele><time>2026-05-05T12:14:52.272Z</time></trkpt><trkpt lat="45.6691064" lon="13.8237713"><ele>353.0</ele><time>2026-05-05T12:14:53.272Z</time></trkpt><trkpt lat="45.6693128" lon="13.8236008"><ele>350.5</ele><time>2026-05-05T12:14:54.273Z</time></trkpt><trkpt lat="45.6695213" lon="13.8234294"><ele>348.0</ele><time>2026-05-05T12:14:55.273Z</time></trkpt><trkpt lat="45.669726" lon="13.8232515"><ele>348.0</ele><time>2026-05-05T12:14:56.273Z</time></trkpt><trkpt lat="45.6699297" lon="13.8230723"><ele>348.0</ele><time>2026-05-05T12:14:57.272Z</time></trkpt><trkpt lat="45.6701356" lon="13.8228912"><ele>347.5</ele><time>2026-05-05T12:14:58.273Z</time></trkpt><trkpt lat="45.6703382" lon="13.8227114"><ele>347.0</ele><time>2026-05-05T12:14:59.273Z</time></trkpt><trkpt lat="45.6705414" lon="13.8225286"><ele>345.5</ele><time>2026-05-05T12:15:00.273Z</time></trkpt><trkpt lat="45.670742" lon="13.8223442"><ele>344.0</ele><time>2026-05-05T12:15:01.272Z</time></trkpt><trkpt lat="45.6709411" lon="13.8221597"><ele>342.0</ele><time>2026-05-05T12:15:02.273Z</time></trkpt><trkpt lat="45.6711415" lon="13.8219745"><ele>340.0</ele><time>2026-05-05T12:15:03.272Z</time></trkpt><trkpt lat="45.6713412" lon="13.8217932"><ele>339.5</ele><time>2026-05-05T12:15:04.273Z</time></trkpt><trkpt lat="45.6715433" lon="13.8216115"><ele>339.0</ele><time>2026-05-05T12:15:05.273Z</time></trkpt><trkpt lat="45.6717443" lon="13.8214354"><ele>338.5</ele><time>2026-05-05T12:15:06.272Z</time></trkpt><trkpt lat="45.6719463" lon="13.8212597"><ele>338.0</ele><time>2026-05-05T12:15:07.273Z</time></trkpt><trkpt lat="45.6721483" lon="13.8210868"><ele>338.0</ele><time>2026-05-05T12:15:08.272Z</time></trkpt><trkpt lat="45.6723495" lon="13.8209157"><ele>338.0</ele><time>2026-05-05T12:15:09.273Z</time></trkpt><trkpt lat="45.6725527" lon="13.8207462"><ele>338.0</ele><time>2026-05-05T12:15:10.272Z</time></trkpt><trkpt lat="45.6727577" lon="13.8205787"><ele>338.0</ele><time>2026-05-05T12:15:11.273Z</time></trkpt><trkpt lat="45.6729655" lon="13.8204176"><ele>337.0</ele><time>2026-05-05T12:15:12.272Z</time></trkpt><trkpt lat="45.6731736" lon="13.8202579"><ele>336.0</ele><time>2026-05-05T12:15:13.273Z</time></trkpt><trkpt lat="45.6733848" lon="13.8201011"><ele>335.5</ele><time>2026-05-05T12:15:14.273Z</time></trkpt><trkpt lat="45.6735984" lon="13.8199518"><ele>335.0</ele><time>2026-05-05T12:15:15.273Z</time></trkpt><trkpt lat="45.6738161" lon="13.8198054"><ele>334.5</ele><time>2026-05-05T12:15:16.272Z</time></trkpt><trkpt lat="45.6740377" lon="13.8196625"><ele>334.0</ele><time>2026-05-05T12:15:17.272Z</time></trkpt><trkpt lat="45.6742632" lon="13.8195209"><ele>334.0</ele><time>2026-05-05T12:15:18.273Z</time></trkpt><trkpt lat="45.6744921" lon="13.8193816"><ele>334.0</ele><time>2026-05-05T12:15:19.273Z</time></trkpt><trkpt lat="45.6747204" lon="13.8192452"><ele>334.0</ele><time>2026-05-05T12:15:20.273Z</time></trkpt><trkpt lat="45.6749525" lon="13.8191162"><ele>334.0</ele><time>2026-05-05T12:15:21.273Z</time></trkpt><trkpt lat="45.6751838" lon="13.8189913"><ele>335.0</ele><time>2026-05-05T12:15:22.273Z</time></trkpt><trkpt lat="45.6754175" lon="13.8188678"><ele>336.0</ele><time>2026-05-05T12:15:23.272Z</time></trkpt><trkpt lat="45.6756506" lon="13.8187462"><ele>336.0</ele><time>2026-05-05T12:15:24.272Z</time></trkpt><trkpt lat="45.6758865" lon="13.8186242"><ele>336.0</ele><time>2026-05-05T12:15:25.272Z</time></trkpt><trkpt lat="45.6761218" lon="13.8185049"><ele>335.5</ele><time>2026-05-05T12:15:26.272Z</time></trkpt><trkpt lat="45.676364" lon="13.8183747"><ele>335.0</ele><time>2026-05-05T12:15:27.272Z</time></trkpt><trkpt lat="45.6765997" lon="13.8182507"><ele>335.0</ele><time>2026-05-05T12:15:28.273Z</time></trkpt><trkpt lat="45.67684" lon="13.8181312"><ele>335.0</ele><time>2026-05-05T12:15:29.273Z</time></trkpt><trkpt lat="45.6770832" lon="13.8180109"><ele>336.0</ele><time>2026-05-05T12:15:30.272Z</time></trkpt><trkpt lat="45.6773309" lon="13.817891"><ele>337.0</ele><time>2026-05-05T12:15:31.272Z</time></trkpt><trkpt lat="45.6775889" lon="13.8177659"><ele>334.0</ele><time>2026-05-05T12:15:32.273Z</time></trkpt><trkpt lat="45.6778392" lon="13.8176345"><ele>331.0</ele><time>2026-05-05T12:15:33.272Z</time></trkpt><trkpt lat="45.6780959" lon="13.8175114"><ele>331.0</ele><time>2026-05-05T12:15:34.273Z</time></trkpt><trkpt lat="45.6783482" lon="13.8173833"><ele>331.0</ele><time>2026-05-05T12:15:35.273Z</time></trkpt><trkpt lat="45.6786012" lon="13.8172544"><ele>328.0</ele><time>2026-05-05T12:15:36.272Z</time></trkpt><trkpt lat="45.6788485" lon="13.8171271"><ele>325.0</ele><time>2026-05-05T12:15:37.272Z</time></trkpt><trkpt lat="45.6790945" lon="13.8170024"><ele>325.0</ele><time>2026-05-05T12:15:38.272Z</time></trkpt><trkpt lat="45.6793407" lon="13.8168683"><ele>325.0</ele><time>2026-05-05T12:15:39.273Z</time></trkpt><trkpt lat="45.6795831" lon="13.8167316"><ele>326.5</ele><time>2026-05-05T12:15:40.273Z</time></trkpt><trkpt lat="45.679824" lon="13.8165951"><ele>328.0</ele><time>2026-05-05T12:15:41.273Z</time></trkpt><trkpt lat="45.6800666" lon="13.8164591"><ele>328.0</ele><time>2026-05-05T12:15:42.273Z</time></trkpt><trkpt lat="45.6803059" lon="13.8163201"><ele>328.0</ele><time>2026-05-05T12:15:43.273Z</time></trkpt><trkpt lat="45.6805436" lon="13.8161773"><ele>326.0</ele><time>2026-05-05T12:15:44.273Z</time></trkpt><trkpt lat="45.6810918" lon="13.815809"><ele>326.0</ele><time>2026-05-05T12:15:46.674Z</time></trkpt><trkpt lat="45.6814598" lon="13.8155632"><ele>326.0</ele><time>2026-05-05T12:15:48.267Z</time></trkpt><trkpt lat="45.6816893" lon="13.8154001"><ele>326.0</ele><time>2026-05-05T12:15:49.267Z</time></trkpt><trkpt lat="45.6819246" lon="13.8152416"><ele>326.0</ele><time>2026-05-05T12:15:50.267Z</time></trkpt><trkpt lat="45.6821517" lon="13.8150725"><ele>326.5</ele><time>2026-05-05T12:15:51.266Z</time></trkpt><trkpt lat="45.6823807" lon="13.8149005"><ele>327.0</ele><time>2026-05-05T12:15:52.267Z</time></trkpt><trkpt lat="45.6826079" lon="13.814728"><ele>327.0</ele><time>2026-05-05T12:15:53.267Z</time></trkpt><trkpt lat="45.6828323" lon="13.8145521"><ele>327.0</ele><time>2026-05-05T12:15:54.267Z</time></trkpt><trkpt lat="45.6830589" lon="13.8143747"><ele>326.5</ele><time>2026-05-05T12:15:55.266Z</time></trkpt><trkpt lat="45.6832901" lon="13.8141979"><ele>326.0</ele><time>2026-05-05T12:15:56.266Z</time></trkpt><trkpt lat="45.6835167" lon="13.8140179"><ele>324.5</ele><time>2026-05-05T12:15:57.266Z</time></trkpt><trkpt lat="45.6837374" lon="13.8138323"><ele>323.0</ele><time>2026-05-05T12:15:58.266Z</time></trkpt><trkpt lat="45.683956" lon="13.8136445"><ele>323.0</ele><time>2026-05-05T12:15:59.266Z</time></trkpt><trkpt lat="45.6841765" lon="13.813464"><ele>323.0</ele><time>2026-05-05T12:16:00.266Z</time></trkpt><trkpt lat="45.6843942" lon="13.8132817"><ele>320.5</ele><time>2026-05-05T12:16:01.266Z</time></trkpt><trkpt lat="45.6846125" lon="13.8131002"><ele>318.0</ele><time>2026-05-05T12:16:02.267Z</time></trkpt><trkpt lat="45.6848261" lon="13.8129164"><ele>318.0</ele><time>2026-05-05T12:16:03.267Z</time></trkpt><trkpt lat="45.6850436" lon="13.81273"><ele>318.0</ele><time>2026-05-05T12:16:04.266Z</time></trkpt><trkpt lat="45.6852581" lon="13.8125442"><ele>318.0</ele><time>2026-05-05T12:16:05.266Z</time></trkpt><trkpt lat="45.6854735" lon="13.8123616"><ele>318.0</ele><time>2026-05-05T12:16:06.267Z</time></trkpt><trkpt lat="45.6856856" lon="13.8121751"><ele>318.0</ele><time>2026-05-05T12:16:07.266Z</time></trkpt><trkpt lat="45.6858995" lon="13.8119883"><ele>318.0</ele><time>2026-05-05T12:16:08.266Z</time></trkpt><trkpt lat="45.6861121" lon="13.8118067"><ele>317.5</ele><time>2026-05-05T12:16:09.267Z</time></trkpt><trkpt lat="45.6863274" lon="13.8116271"><ele>317.0</ele><time>2026-05-05T12:16:10.266Z</time></trkpt><trkpt lat="45.6865448" lon="13.8114503"><ele>317.0</ele><time>2026-05-05T12:16:11.266Z</time></trkpt><trkpt lat="45.6867616" lon="13.8112772"><ele>317.0</ele><time>2026-05-05T12:16:12.267Z</time></trkpt><trkpt lat="45.6869819" lon="13.8111096"><ele>315.5</ele><time>2026-05-05T12:16:13.267Z</time></trkpt><trkpt lat="45.6872067" lon="13.8109477"><ele>314.0</ele><time>2026-05-05T12:16:14.267Z</time></trkpt><trkpt lat="45.6874416" lon="13.8107837"><ele>314.0</ele><time>2026-05-05T12:16:15.267Z</time></trkpt><trkpt lat="45.6876661" lon="13.810627"><ele>314.0</ele><time>2026-05-05T12:16:16.266Z</time></trkpt><trkpt lat="45.6878902" lon="13.810468"><ele>313.0</ele><time>2026-05-05T12:16:17.266Z</time></trkpt><trkpt lat="45.6881148" lon="13.8103133"><ele>312.0</ele><time>2026-05-05T12:16:18.267Z</time></trkpt><trkpt lat="45.6883431" lon="13.8101628"><ele>312.5</ele><time>2026-05-05T12:16:19.266Z</time></trkpt><trkpt lat="45.6885715" lon="13.8100121"><ele>313.0</ele><time>2026-05-05T12:16:20.267Z</time></trkpt><trkpt lat="45.6887992" lon="13.8098639"><ele>311.0</ele><time>2026-05-05T12:16:21.267Z</time></trkpt><trkpt lat="45.6890328" lon="13.8097178"><ele>309.0</ele><time>2026-05-05T12:16:22.267Z</time></trkpt><trkpt lat="45.689264" lon="13.8095749"><ele>308.0</ele><time>2026-05-05T12:16:23.266Z</time></trkpt><trkpt lat="45.6894959" lon="13.8094375"><ele>307.0</ele><time>2026-05-05T12:16:24.266Z</time></trkpt><trkpt lat="45.6897238" lon="13.8093051"><ele>307.0</ele><time>2026-05-05T12:16:25.266Z</time></trkpt><trkpt lat="45.6899502" lon="13.8091784"><ele>307.0</ele><time>2026-05-05T12:16:26.267Z</time></trkpt><trkpt lat="45.6901753" lon="13.8090529"><ele>305.0</ele><time>2026-05-05T12:16:27.266Z</time></trkpt><trkpt lat="45.6904004" lon="13.8089395"><ele>303.0</ele><time>2026-05-05T12:16:28.267Z</time></trkpt><trkpt lat="45.6906252" lon="13.8088255"><ele>303.0</ele><time>2026-05-05T12:16:29.266Z</time></trkpt><trkpt lat="45.6908505" lon="13.8087103"><ele>303.0</ele><time>2026-05-05T12:16:30.266Z</time></trkpt><trkpt lat="45.6910743" lon="13.808603"><ele>304.0</ele><time>2026-05-05T12:16:31.267Z</time></trkpt><trkpt lat="45.6912988" lon="13.8084963"><ele>305.0</ele><time>2026-05-05T12:16:32.267Z</time></trkpt><trkpt lat="45.6915223" lon="13.808392"><ele>306.5</ele><time>2026-05-05T12:16:33.266Z</time></trkpt><trkpt lat="45.6917464" lon="13.808293"><ele>308.0</ele><time>2026-05-05T12:16:34.266Z</time></trkpt><trkpt lat="45.6919713" lon="13.8081924"><ele>309.5</ele><time>2026-05-05T12:16:35.267Z</time></trkpt><trkpt lat="45.6921996" lon="13.8080934"><ele>311.0</ele><time>2026-05-05T12:16:36.267Z</time></trkpt><trkpt lat="45.6924255" lon="13.8079966"><ele>311.0</ele><time>2026-05-05T12:16:37.267Z</time></trkpt><trkpt lat="45.6926526" lon="13.8078948"><ele>311.0</ele><time>2026-05-05T12:16:38.267Z</time></trkpt><trkpt lat="45.6928801" lon="13.8077941"><ele>310.5</ele><time>2026-05-05T12:16:39.267Z</time></trkpt><trkpt lat="45.6931052" lon="13.8076946"><ele>310.0</ele><time>2026-05-05T12:16:40.266Z</time></trkpt><trkpt lat="45.6933312" lon="13.8075956"><ele>309.0</ele><time>2026-05-05T12:16:41.267Z</time></trkpt><trkpt lat="45.6935602" lon="13.8074962"><ele>308.0</ele><time>2026-05-05T12:16:42.267Z</time></trkpt><trkpt lat="45.6937885" lon="13.807397"><ele>308.0</ele><time>2026-05-05T12:16:43.267Z</time></trkpt><trkpt lat="45.6940135" lon="13.8072978"><ele>308.0</ele><time>2026-05-05T12:16:44.267Z</time></trkpt><trkpt lat="45.6942351" lon="13.8071991"><ele>306.5</ele><time>2026-05-05T12:16:45.267Z</time></trkpt><trkpt lat="45.694455" lon="13.8070967"><ele>305.0</ele><time>2026-05-05T12:16:46.267Z</time></trkpt><trkpt lat="45.6946781" lon="13.8069973"><ele>305.0</ele><time>2026-05-05T12:16:47.266Z</time></trkpt><trkpt lat="45.6948963" lon="13.806901"><ele>305.0</ele><time>2026-05-05T12:16:48.267Z</time></trkpt><trkpt lat="45.6951142" lon="13.806804"><ele>296.5</ele><time>2026-05-05T12:16:49.266Z</time></trkpt><trkpt lat="45.6953282" lon="13.8066973"><ele>288.0</ele><time>2026-05-05T12:16:50.267Z</time></trkpt><trkpt lat="45.6955385" lon="13.8065905"><ele>288.0</ele><time>2026-05-05T12:16:51.267Z</time></trkpt><trkpt lat="45.6957492" lon="13.806478"><ele>288.0</ele><time>2026-05-05T12:16:52.266Z</time></trkpt><trkpt lat="45.6959571" lon="13.8063597"><ele>288.0</ele><time>2026-05-05T12:16:53.267Z</time></trkpt><trkpt lat="45.6961683" lon="13.8062367"><ele>292.0</ele><time>2026-05-05T12:16:54.267Z</time></trkpt><trkpt lat="45.6963753" lon="13.8061064"><ele>296.0</ele><time>2026-05-05T12:16:55.267Z</time></trkpt><trkpt lat="45.6965844" lon="13.8059723"><ele>296.5</ele><time>2026-05-05T12:16:56.266Z</time></trkpt><trkpt lat="45.6967914" lon="13.8058323"><ele>297.0</ele><time>2026-05-05T12:16:57.266Z</time></trkpt><trkpt lat="45.6969966" lon="13.8056905"><ele>299.5</ele><time>2026-05-05T12:16:58.267Z</time></trkpt><trkpt lat="45.6972008" lon="13.80554"><ele>302.0</ele><time>2026-05-05T12:16:59.266Z</time></trkpt><trkpt lat="45.6974003" lon="13.8053869"><ele>302.0</ele><time>2026-05-05T12:17:00.266Z</time></trkpt><trkpt lat="45.6975949" lon="13.8052266"><ele>302.0</ele><time>2026-05-05T12:17:01.266Z</time></trkpt><trkpt lat="45.6977878" lon="13.8050616"><ele>302.0</ele><time>2026-05-05T12:17:02.266Z</time></trkpt><trkpt lat="45.6979791" lon="13.8048938"><ele>303.0</ele><time>2026-05-05T12:17:03.267Z</time></trkpt><trkpt lat="45.6981668" lon="13.8047191"><ele>304.0</ele><time>2026-05-05T12:17:04.266Z</time></trkpt><trkpt lat="45.6983514" lon="13.8045369"><ele>305.0</ele><time>2026-05-05T12:17:05.266Z</time></trkpt><trkpt lat="45.6985355" lon="13.8043516"><ele>305.0</ele><time>2026-05-05T12:17:06.267Z</time></trkpt><trkpt lat="45.6987141" lon="13.8041597"><ele>305.0</ele><time>2026-05-05T12:17:07.266Z</time></trkpt><trkpt lat="45.7010049" lon="13.8007403"><ele>306.0</ele><time>2026-05-05T12:17:21.266Z</time></trkpt><trkpt lat="45.701129" lon="13.8004864"><ele>307.0</ele><time>2026-05-05T12:17:22.267Z</time></trkpt><trkpt lat="45.7012592" lon="13.8002028"><ele>306.5</ele><time>2026-05-05T12:17:23.267Z</time></trkpt><trkpt lat="45.7013955" lon="13.7999059"><ele>306.0</ele><time>2026-05-05T12:17:24.267Z</time></trkpt><trkpt lat="45.7015238" lon="13.7995983"><ele>306.0</ele><time>2026-05-05T12:17:25.266Z</time></trkpt><trkpt lat="45.701646" lon="13.7992922"><ele>306.0</ele><time>2026-05-05T12:17:26.267Z</time></trkpt><trkpt lat="45.7017655" lon="13.7989801"><ele>306.0</ele><time>2026-05-05T12:17:27.267Z</time></trkpt><trkpt lat="45.7018751" lon="13.7986697"><ele>306.0</ele><time>2026-05-05T12:17:28.267Z</time></trkpt><trkpt lat="45.7019808" lon="13.7983542"><ele>307.5</ele><time>2026-05-05T12:17:29.267Z</time></trkpt><trkpt lat="45.7020793" lon="13.7980309"><ele>309.0</ele><time>2026-05-05T12:17:30.267Z</time></trkpt><trkpt lat="45.7021737" lon="13.7977147"><ele>307.0</ele><time>2026-05-05T12:17:31.267Z</time></trkpt><trkpt lat="45.7022608" lon="13.7973889"><ele>305.0</ele><time>2026-05-05T12:17:32.267Z</time></trkpt><trkpt lat="45.7023482" lon="13.7970579"><ele>303.0</ele><time>2026-05-05T12:17:33.266Z</time></trkpt><trkpt lat="45.7024273" lon="13.796732"><ele>301.0</ele><time>2026-05-05T12:17:34.267Z</time></trkpt><trkpt lat="45.7025018" lon="13.7964041"><ele>301.0</ele><time>2026-05-05T12:17:35.266Z</time></trkpt><trkpt lat="45.7025711" lon="13.7960721"><ele>301.0</ele><time>2026-05-05T12:17:36.267Z</time></trkpt><trkpt lat="45.702637" lon="13.7957429"><ele>302.0</ele><time>2026-05-05T12:17:37.267Z</time></trkpt><trkpt lat="45.7026991" lon="13.7954126"><ele>303.0</ele><time>2026-05-05T12:17:38.266Z</time></trkpt><trkpt lat="45.7027539" lon="13.7950821"><ele>303.5</ele><time>2026-05-05T12:17:39.267Z</time></trkpt><trkpt lat="45.7028021" lon="13.7947467"><ele>304.0</ele><time>2026-05-05T12:17:40.267Z</time></trkpt><trkpt lat="45.702842" lon="13.7944063"><ele>302.5</ele><time>2026-05-05T12:17:41.267Z</time></trkpt><trkpt lat="45.7028773" lon="13.794067"><ele>301.0</ele><time>2026-05-05T12:17:42.267Z</time></trkpt><trkpt lat="45.702908" lon="13.7937208"><ele>300.0</ele><time>2026-05-05T12:17:43.267Z</time></trkpt><trkpt lat="45.7029349" lon="13.7933704"><ele>299.0</ele><time>2026-05-05T12:17:44.266Z</time></trkpt><trkpt lat="45.7029532" lon="13.7930154"><ele>298.5</ele><time>2026-05-05T12:17:45.267Z</time></trkpt><trkpt lat="45.7029611" lon="13.7926502"><ele>298.0</ele><time>2026-05-05T12:17:46.266Z</time></trkpt><trkpt lat="45.7029641" lon="13.7922786"><ele>298.0</ele><time>2026-05-05T12:17:47.266Z</time></trkpt><trkpt lat="45.7029633" lon="13.7919013"><ele>298.0</ele><time>2026-05-05T12:17:48.266Z</time></trkpt><trkpt lat="45.7029576" lon="13.7915223"><ele>297.5</ele><time>2026-05-05T12:17:49.267Z</time></trkpt><trkpt lat="45.7029452" lon="13.7911355"><ele>297.0</ele><time>2026-05-05T12:17:50.267Z</time></trkpt><trkpt lat="45.7029282" lon="13.7907465"><ele>296.5</ele><time>2026-05-05T12:17:51.266Z</time></trkpt><trkpt lat="45.7029073" lon="13.7903553"><ele>296.0</ele><time>2026-05-05T12:17:52.267Z</time></trkpt><trkpt lat="45.7028833" lon="13.7899619"><ele>295.5</ele><time>2026-05-05T12:17:53.267Z</time></trkpt><trkpt lat="45.7028532" lon="13.7895682"><ele>295.0</ele><time>2026-05-05T12:17:54.266Z</time></trkpt><trkpt lat="45.702819" lon="13.7891717"><ele>295.0</ele><time>2026-05-05T12:17:55.267Z</time></trkpt><trkpt lat="45.7027809" lon="13.7887781"><ele>295.0</ele><time>2026-05-05T12:17:56.267Z</time></trkpt><trkpt lat="45.702736" lon="13.7883878"><ele>297.5</ele><time>2026-05-05T12:17:57.266Z</time></trkpt><trkpt lat="45.7026885" lon="13.7880023"><ele>300.0</ele><time>2026-05-05T12:17:58.266Z</time></trkpt><trkpt lat="45.7026404" lon="13.7876163"><ele>300.0</ele><time>2026-05-05T12:17:59.267Z</time></trkpt><trkpt lat="45.7025883" lon="13.787237"><ele>300.0</ele><time>2026-05-05T12:18:00.267Z</time></trkpt><trkpt lat="45.702532" lon="13.7868638"><ele>299.0</ele><time>2026-05-05T12:18:01.267Z</time></trkpt><trkpt lat="45.7024743" lon="13.7864983"><ele>298.0</ele><time>2026-05-05T12:18:02.266Z</time></trkpt><trkpt lat="45.7024157" lon="13.7861386"><ele>297.5</ele><time>2026-05-05T12:18:03.266Z</time></trkpt><trkpt lat="45.7023558" lon="13.7857874"><ele>297.0</ele><time>2026-05-05T12:18:04.267Z</time></trkpt><trkpt lat="45.7022952" lon="13.7854379"><ele>296.5</ele><time>2026-05-05T12:18:05.267Z</time></trkpt><trkpt lat="45.7022307" lon="13.7850874"><ele>296.0</ele><time>2026-05-05T12:18:06.267Z</time></trkpt><trkpt lat="45.7021658" lon="13.7847357"><ele>296.0</ele><time>2026-05-05T12:18:07.266Z</time></trkpt><trkpt lat="45.7021016" lon="13.7843862"><ele>296.0</ele><time>2026-05-05T12:18:08.267Z</time></trkpt><trkpt lat="45.7020356" lon="13.7840351"><ele>296.0</ele><time>2026-05-05T12:18:09.266Z</time></trkpt><trkpt lat="45.7019663" lon="13.7836851"><ele>296.0</ele><time>2026-05-05T12:18:10.267Z</time></trkpt><trkpt lat="45.7018984" lon="13.7833344"><ele>295.0</ele><time>2026-05-05T12:18:11.266Z</time></trkpt><trkpt lat="45.7018336" lon="13.7829847"><ele>294.0</ele><time>2026-05-05T12:18:12.266Z</time></trkpt><trkpt lat="45.7017652" lon="13.7826319"><ele>293.0</ele><time>2026-05-05T12:18:13.267Z</time></trkpt><trkpt lat="45.7016956" lon="13.7822783"><ele>292.0</ele><time>2026-05-05T12:18:14.266Z</time></trkpt><trkpt lat="45.701627" lon="13.7819266"><ele>292.5</ele><time>2026-05-05T12:18:15.266Z</time></trkpt><trkpt lat="45.7015572" lon="13.7815725"><ele>293.0</ele><time>2026-05-05T12:18:16.266Z</time></trkpt><trkpt lat="45.7014842" lon="13.7812168"><ele>292.5</ele><time>2026-05-05T12:18:17.267Z</time></trkpt><trkpt lat="45.7014152" lon="13.7808569"><ele>292.0</ele><time>2026-05-05T12:18:18.266Z</time></trkpt><trkpt lat="45.7013466" lon="13.7804942"><ele>291.5</ele><time>2026-05-05T12:18:19.267Z</time></trkpt><trkpt lat="45.7012754" lon="13.7801298"><ele>291.0</ele><time>2026-05-05T12:18:20.267Z</time></trkpt><trkpt lat="45.7012063" lon="13.779764"><ele>291.0</ele><time>2026-05-05T12:18:21.267Z</time></trkpt><trkpt lat="45.7011399" lon="13.7793929"><ele>291.0</ele><time>2026-05-05T12:18:22.267Z</time></trkpt><trkpt lat="45.7010702" lon="13.7790179"><ele>291.0</ele><time>2026-05-05T12:18:23.267Z</time></trkpt><trkpt lat="45.701" lon="13.7786395"><ele>291.0</ele><time>2026-05-05T12:18:24.266Z</time></trkpt><trkpt lat="45.7009316" lon="13.7782584"><ele>291.0</ele><time>2026-05-05T12:18:25.267Z</time></trkpt><trkpt lat="45.7008643" lon="13.7778766"><ele>291.0</ele><time>2026-05-05T12:18:26.266Z</time></trkpt><trkpt lat="45.7008004" lon="13.7774911"><ele>291.0</ele><time>2026-05-05T12:18:27.266Z</time></trkpt><trkpt lat="45.700741" lon="13.7770988"><ele>291.0</ele><time>2026-05-05T12:18:28.267Z</time></trkpt><trkpt lat="45.7006827" lon="13.7767163"><ele>290.5</ele><time>2026-05-05T12:18:29.267Z</time></trkpt><trkpt lat="45.700626" lon="13.7763319"><ele>290.0</ele><time>2026-05-05T12:18:30.267Z</time></trkpt><trkpt lat="45.7005741" lon="13.7759515"><ele>289.0</ele><time>2026-05-05T12:18:31.267Z</time></trkpt><trkpt lat="45.7005265" lon="13.7755759"><ele>288.0</ele><time>2026-05-05T12:18:32.267Z</time></trkpt><trkpt lat="45.7004803" lon="13.7752"><ele>288.0</ele><time>2026-05-05T12:18:33.267Z</time></trkpt><trkpt lat="45.7004378" lon="13.7748293"><ele>288.0</ele><time>2026-05-05T12:18:34.267Z</time></trkpt><trkpt lat="45.7003984" lon="13.7744598"><ele>287.5</ele><time>2026-05-05T12:18:35.267Z</time></trkpt><trkpt lat="45.700363" lon="13.7740875"><ele>287.0</ele><time>2026-05-05T12:18:36.267Z</time></trkpt><trkpt lat="45.7003285" lon="13.7737185"><ele>286.5</ele><time>2026-05-05T12:18:37.267Z</time></trkpt><trkpt lat="45.700301" lon="13.7733471"><ele>286.0</ele><time>2026-05-05T12:18:38.267Z</time></trkpt><trkpt lat="45.7002749" lon="13.7729745"><ele>287.5</ele><time>2026-05-05T12:18:39.266Z</time></trkpt><trkpt lat="45.7002489" lon="13.772593"><ele>289.0</ele><time>2026-05-05T12:18:40.266Z</time></trkpt><trkpt lat="45.7002268" lon="13.7722062"><ele>289.5</ele><time>2026-05-05T12:18:41.266Z</time></trkpt><trkpt lat="45.7002103" lon="13.7718135"><ele>290.0</ele><time>2026-05-05T12:18:42.266Z</time></trkpt><trkpt lat="45.7001976" lon="13.7714152"><ele>290.0</ele><time>2026-05-05T12:18:43.266Z</time></trkpt><trkpt lat="45.7001861" lon="13.7710156"><ele>290.0</ele><time>2026-05-05T12:18:44.267Z</time></trkpt><trkpt lat="45.7001761" lon="13.7706125"><ele>290.0</ele><time>2026-05-05T12:18:45.267Z</time></trkpt><trkpt lat="45.7001703" lon="13.7702074"><ele>290.0</ele><time>2026-05-05T12:18:46.266Z</time></trkpt><trkpt lat="45.7001686" lon="13.7698035"><ele>289.5</ele><time>2026-05-05T12:18:47.267Z</time></trkpt><trkpt lat="45.7001702" lon="13.769394"><ele>289.0</ele><time>2026-05-05T12:18:48.267Z</time></trkpt><trkpt lat="45.7001733" lon="13.768983"><ele>288.5</ele><time>2026-05-05T12:18:49.267Z</time></trkpt><trkpt lat="45.7001825" lon="13.7685713"><ele>288.0</ele><time>2026-05-05T12:18:50.267Z</time></trkpt><trkpt lat="45.7001957" lon="13.7681581"><ele>288.0</ele><time>2026-05-05T12:18:51.266Z</time></trkpt><trkpt lat="45.7002149" lon="13.7677432"><ele>288.0</ele><time>2026-05-05T12:18:52.267Z</time></trkpt><trkpt lat="45.7002381" lon="13.767328"><ele>285.0</ele><time>2026-05-05T12:18:53.267Z</time></trkpt><trkpt lat="45.7002639" lon="13.7669117"><ele>282.0</ele><time>2026-05-05T12:18:54.266Z</time></trkpt><trkpt lat="45.7002928" lon="13.7664946"><ele>282.0</ele><time>2026-05-05T12:18:55.266Z</time></trkpt><trkpt lat="45.7003233" lon="13.766076"><ele>282.0</ele><time>2026-05-05T12:18:56.267Z</time></trkpt><trkpt lat="45.7003595" lon="13.76566"><ele>282.0</ele><time>2026-05-05T12:18:57.267Z</time></trkpt><trkpt lat="45.7004015" lon="13.7652534"><ele>282.0</ele><time>2026-05-05T12:18:58.267Z</time></trkpt><trkpt lat="45.7004439" lon="13.764851"><ele>282.0</ele><time>2026-05-05T12:18:59.267Z</time></trkpt><trkpt lat="45.7004901" lon="13.7644392"><ele>282.0</ele><time>2026-05-05T12:19:00.267Z</time></trkpt><trkpt lat="45.7005427" lon="13.7640279"><ele>282.0</ele><time>2026-05-05T12:19:01.267Z</time></trkpt><trkpt lat="45.7005987" lon="13.7636149"><ele>282.0</ele><time>2026-05-05T12:19:02.267Z</time></trkpt><trkpt lat="45.700658" lon="13.7632007"><ele>281.5</ele><time>2026-05-05T12:19:03.266Z</time></trkpt><trkpt lat="45.7007206" lon="13.7627894"><ele>281.0</ele><time>2026-05-05T12:19:04.267Z</time></trkpt><trkpt lat="45.7007856" lon="13.7623794"><ele>281.0</ele><time>2026-05-05T12:19:05.266Z</time></trkpt><trkpt lat="45.7008547" lon="13.7619733"><ele>281.0</ele><time>2026-05-05T12:19:06.267Z</time></trkpt><trkpt lat="45.7009299" lon="13.761574"><ele>280.5</ele><time>2026-05-05T12:19:07.266Z</time></trkpt><trkpt lat="45.7010079" lon="13.7611817"><ele>280.0</ele><time>2026-05-05T12:19:08.267Z</time></trkpt><trkpt lat="45.7010879" lon="13.7607921"><ele>279.0</ele><time>2026-05-05T12:19:09.267Z</time></trkpt><trkpt lat="45.7011686" lon="13.7604076"><ele>278.0</ele><time>2026-05-05T12:19:10.267Z</time></trkpt><trkpt lat="45.7012509" lon="13.7600278"><ele>278.0</ele><time>2026-05-05T12:19:11.267Z</time></trkpt><trkpt lat="45.7013363" lon="13.7596488"><ele>278.0</ele><time>2026-05-05T12:19:12.266Z</time></trkpt><trkpt lat="45.7014237" lon="13.7592725"><ele>278.0</ele><time>2026-05-05T12:19:13.267Z</time></trkpt><trkpt lat="45.7015099" lon="13.7589039"><ele>278.0</ele><time>2026-05-05T12:19:14.266Z</time></trkpt><trkpt lat="45.7015959" lon="13.7585412"><ele>276.0</ele><time>2026-05-05T12:19:15.266Z</time></trkpt><trkpt lat="45.7016827" lon="13.7581874"><ele>274.0</ele><time>2026-05-05T12:19:16.267Z</time></trkpt><trkpt lat="45.7017609" lon="13.7578297"><ele>274.5</ele><time>2026-05-05T12:19:17.267Z</time></trkpt><trkpt lat="45.7018466" lon="13.7574649"><ele>275.0</ele><time>2026-05-05T12:19:18.266Z</time></trkpt><trkpt lat="45.7019354" lon="13.757093"><ele>274.0</ele><time>2026-05-05T12:19:19.267Z</time></trkpt><trkpt lat="45.702026" lon="13.7567118"><ele>273.0</ele><time>2026-05-05T12:19:20.267Z</time></trkpt><trkpt lat="45.7021177" lon="13.7563228"><ele>272.5</ele><time>2026-05-05T12:19:21.267Z</time></trkpt><trkpt lat="45.7022102" lon="13.7559294"><ele>272.0</ele><time>2026-05-05T12:19:22.267Z</time></trkpt><trkpt lat="45.7023052" lon="13.755531"><ele>273.5</ele><time>2026-05-05T12:19:23.267Z</time></trkpt><trkpt lat="45.7024007" lon="13.7551249"><ele>275.0</ele><time>2026-05-05T12:19:24.267Z</time></trkpt><trkpt lat="45.7025029" lon="13.7547085"><ele>272.0</ele><time>2026-05-05T12:19:25.266Z</time></trkpt><trkpt lat="45.7026052" lon="13.7542907"><ele>269.0</ele><time>2026-05-05T12:19:26.267Z</time></trkpt><trkpt lat="45.7027078" lon="13.7538859"><ele>269.0</ele><time>2026-05-05T12:19:27.267Z</time></trkpt><trkpt lat="45.7028062" lon="13.7534871"><ele>269.0</ele><time>2026-05-05T12:19:28.266Z</time></trkpt><trkpt lat="45.7029073" lon="13.7530901"><ele>267.0</ele><time>2026-05-05T12:19:29.266Z</time></trkpt><trkpt lat="45.7030059" lon="13.752699"><ele>265.0</ele><time>2026-05-05T12:19:30.267Z</time></trkpt><trkpt lat="45.7031088" lon="13.7523164"><ele>265.0</ele><time>2026-05-05T12:19:31.266Z</time></trkpt><trkpt lat="45.7032139" lon="13.7519386"><ele>265.0</ele><time>2026-05-05T12:19:32.266Z</time></trkpt><trkpt lat="45.7033239" lon="13.7515701"><ele>264.0</ele><time>2026-05-05T12:19:33.266Z</time></trkpt><trkpt lat="45.7034436" lon="13.7512113"><ele>263.0</ele><time>2026-05-05T12:19:34.267Z</time></trkpt><trkpt lat="45.703573" lon="13.7508547"><ele>263.0</ele><time>2026-05-05T12:19:35.267Z</time></trkpt><trkpt lat="45.7037093" lon="13.7505071"><ele>263.0</ele><time>2026-05-05T12:19:36.267Z</time></trkpt><trkpt lat="45.7038562" lon="13.7501672"><ele>261.5</ele><time>2026-05-05T12:19:37.267Z</time></trkpt><trkpt lat="45.7040131" lon="13.7498357"><ele>260.0</ele><time>2026-05-05T12:19:38.266Z</time></trkpt><trkpt lat="45.7041782" lon="13.7495049"><ele>259.5</ele><time>2026-05-05T12:19:39.267Z</time></trkpt><trkpt lat="45.7043557" lon="13.7491875"><ele>259.0</ele><time>2026-05-05T12:19:40.267Z</time></trkpt><trkpt lat="45.7045394" lon="13.7488863"><ele>258.5</ele><time>2026-05-05T12:19:41.267Z</time></trkpt><trkpt lat="45.7047306" lon="13.7485969"><ele>258.0</ele><time>2026-05-05T12:19:42.266Z</time></trkpt><trkpt lat="45.7049324" lon="13.7483104"><ele>257.5</ele><time>2026-05-05T12:19:43.266Z</time></trkpt><trkpt lat="45.7051451" lon="13.7480402"><ele>257.0</ele><time>2026-05-05T12:19:44.267Z</time></trkpt><trkpt lat="45.7053643" lon="13.7477798"><ele>255.0</ele><time>2026-05-05T12:19:45.266Z</time></trkpt><trkpt lat="45.7055859" lon="13.747522"><ele>253.0</ele><time>2026-05-05T12:19:46.267Z</time></trkpt><trkpt lat="45.7058079" lon="13.7472674"><ele>253.0</ele><time>2026-05-05T12:19:47.267Z</time></trkpt><trkpt lat="45.7060286" lon="13.7470187"><ele>253.0</ele><time>2026-05-05T12:19:48.267Z</time></trkpt><trkpt lat="45.7062431" lon="13.7467699"><ele>251.0</ele><time>2026-05-05T12:19:49.267Z</time></trkpt><trkpt lat="45.706456" lon="13.7465212"><ele>249.0</ele><time>2026-05-05T12:19:50.266Z</time></trkpt><trkpt lat="45.7066652" lon="13.7462727"><ele>248.5</ele><time>2026-05-05T12:19:51.267Z</time></trkpt><trkpt lat="45.7068772" lon="13.7460245"><ele>248.0</ele><time>2026-05-05T12:19:52.267Z</time></trkpt><trkpt lat="45.7070855" lon="13.7457727"><ele>248.0</ele><time>2026-05-05T12:19:53.267Z</time></trkpt><trkpt lat="45.7072899" lon="13.7455157"><ele>248.0</ele><time>2026-05-05T12:19:54.266Z</time></trkpt><trkpt lat="45.7132422" lon="13.7369943"><ele>245.0</ele><time>2026-05-05T12:20:26.266Z</time></trkpt><trkpt lat="45.7134364" lon="13.7367306"><ele>242.0</ele><time>2026-05-05T12:20:27.266Z</time></trkpt><trkpt lat="45.7136265" lon="13.7364652"><ele>241.5</ele><time>2026-05-05T12:20:28.267Z</time></trkpt><trkpt lat="45.7138119" lon="13.7361912"><ele>241.0</ele><time>2026-05-05T12:20:29.267Z</time></trkpt><trkpt lat="45.7140081" lon="13.7359211"><ele>240.0</ele><time>2026-05-05T12:20:30.267Z</time></trkpt><trkpt lat="45.7142008" lon="13.7356558"><ele>239.0</ele><time>2026-05-05T12:20:31.266Z</time></trkpt><trkpt lat="45.7143941" lon="13.7353875"><ele>238.0</ele><time>2026-05-05T12:20:32.267Z</time></trkpt><trkpt lat="45.7145881" lon="13.7351181"><ele>237.0</ele><time>2026-05-05T12:20:33.266Z</time></trkpt><trkpt lat="45.7147808" lon="13.7348519"><ele>237.0</ele><time>2026-05-05T12:20:34.267Z</time></trkpt><trkpt lat="45.7149723" lon="13.7345841"><ele>237.0</ele><time>2026-05-05T12:20:35.267Z</time></trkpt><trkpt lat="45.7151616" lon="13.7343154"><ele>236.5</ele><time>2026-05-05T12:20:36.266Z</time></trkpt><trkpt lat="45.7153461" lon="13.7340532"><ele>236.0</ele><time>2026-05-05T12:20:37.266Z</time></trkpt><trkpt lat="45.7155253" lon="13.7337944"><ele>235.0</ele><time>2026-05-05T12:20:38.267Z</time></trkpt><trkpt lat="45.7157054" lon="13.7335351"><ele>234.0</ele><time>2026-05-05T12:20:39.267Z</time></trkpt><trkpt lat="45.7158833" lon="13.7332787"><ele>234.0</ele><time>2026-05-05T12:20:40.267Z</time></trkpt><trkpt lat="45.7160616" lon="13.7330256"><ele>234.0</ele><time>2026-05-05T12:20:41.266Z</time></trkpt><trkpt lat="45.7162341" lon="13.7327734"><ele>233.0</ele><time>2026-05-05T12:20:42.266Z</time></trkpt><trkpt lat="45.7164034" lon="13.732532"><ele>232.0</ele><time>2026-05-05T12:20:43.266Z</time></trkpt><trkpt lat="45.7165676" lon="13.7323021"><ele>232.0</ele><time>2026-05-05T12:20:44.267Z</time></trkpt><trkpt lat="45.7167266" lon="13.7320863"><ele>232.0</ele><time>2026-05-05T12:20:45.267Z</time></trkpt><trkpt lat="45.7168818" lon="13.7318754"><ele>232.0</ele><time>2026-05-05T12:20:46.267Z</time></trkpt><trkpt lat="45.7170267" lon="13.7316759"><ele>231.66666666666666</ele><time>2026-05-05T12:20:47.267Z</time></trkpt><trkpt lat="45.717167" lon="13.7314849"><ele>231.33333333333331</ele><time>2026-05-05T12:20:48.266Z</time></trkpt><trkpt lat="45.7172988" lon="13.731299"><ele>231.0</ele><time>2026-05-05T12:20:49.266Z</time></trkpt><trkpt lat="45.7174229" lon="13.7311222"><ele>231.0</ele><time>2026-05-05T12:20:50.267Z</time></trkpt><trkpt lat="45.7175373" lon="13.7309555"><ele>231.0</ele><time>2026-05-05T12:20:51.267Z</time></trkpt><trkpt lat="45.7176359" lon="13.7308142"><ele>231.0</ele><time>2026-05-05T12:20:52.266Z</time></trkpt><trkpt lat="45.7177237" lon="13.730693"><ele>231.0</ele><time>2026-05-05T12:20:53.267Z</time></trkpt><trkpt lat="45.7178015" lon="13.7305954"><ele>231.0</ele><time>2026-05-05T12:20:54.267Z</time></trkpt><trkpt lat="45.7178746" lon="13.7305173"><ele>231.00000000000003</ele><time>2026-05-05T12:20:55.266Z</time></trkpt><trkpt lat="45.717953" lon="13.730452"><ele>231.00000000000003</ele><time>2026-05-05T12:20:56.267Z</time></trkpt><trkpt lat="45.718029" lon="13.7304078"><ele>231.0</ele><time>2026-05-05T12:20:57.266Z</time></trkpt><trkpt lat="45.7180993" lon="13.7303806"><ele>231.0</ele><time>2026-05-05T12:20:58.267Z</time></trkpt><trkpt lat="45.7182161" lon="13.7303402"><ele>231.0</ele><time>2026-05-05T12:21:00.266Z</time></trkpt><trkpt lat="45.7183185" lon="13.7302748"><ele>231.00000000000003</ele><time>2026-05-05T12:21:02.267Z</time></trkpt><trkpt lat="45.7184088" lon="13.7301812"><ele>231.00000000000003</ele><time>2026-05-05T12:21:04.266Z</time></trkpt><trkpt lat="45.7184945" lon="13.7301016"><ele>231.0</ele><time>2026-05-05T12:21:06.267Z</time></trkpt><trkpt lat="45.7185757" lon="13.7300308"><ele>231.0</ele><time>2026-05-05T12:21:08.266Z</time></trkpt><trkpt lat="45.7186423" lon="13.72995"><ele>231.0</ele><time>2026-05-05T12:21:10.267Z</time></trkpt><trkpt lat="45.718693" lon="13.7298703"><ele>231.0</ele><time>2026-05-05T12:21:12.267Z</time></trkpt><trkpt lat="45.7187283" lon="13.7297623"><ele>231.0</ele><time>2026-05-05T12:21:15.267Z</time></trkpt><trkpt lat="45.7186937" lon="13.7296739"><ele>231.0</ele><time>2026-05-05T12:29:52.266Z</time></trkpt><trkpt lat="45.7186837" lon="13.7295378"><ele>231.0</ele><time>2026-05-05T12:29:54.267Z</time></trkpt><trkpt lat="45.7187253" lon="13.7293828"><ele>231.0</ele><time>2026-05-05T12:29:56.266Z</time></trkpt><trkpt lat="45.7187604" lon="13.7292946"><ele>230.83333333333334</ele><time>2026-05-05T12:29:57.267Z</time></trkpt><trkpt lat="45.7188074" lon="13.7292039"><ele>230.66666666666669</ele><time>2026-05-05T12:29:58.267Z</time></trkpt><trkpt lat="45.7188588" lon="13.7291036"><ele>230.5</ele><time>2026-05-05T12:29:59.266Z</time></trkpt><trkpt lat="45.7189228" lon="13.7289997"><ele>230.33333333333334</ele><time>2026-05-05T12:30:00.267Z</time></trkpt><trkpt lat="45.7189751" lon="13.7289162"><ele>230.16666666666669</ele><time>2026-05-05T12:30:01.267Z</time></trkpt><trkpt lat="45.7190164" lon="13.7288391"><ele>230.0</ele><time>2026-05-05T12:30:02.266Z</time></trkpt><trkpt lat="45.7190708" lon="13.7287628"><ele>230.0</ele><time>2026-05-05T12:30:03.267Z</time></trkpt><trkpt lat="45.7191406" lon="13.7286751"><ele>230.0</ele><time>2026-05-05T12:30:04.267Z</time></trkpt><trkpt lat="45.7192035" lon="13.7285819"><ele>230.0</ele><time>2026-05-05T12:30:05.267Z</time></trkpt><trkpt lat="45.7192677" lon="13.7284873"><ele>230.0</ele><time>2026-05-05T12:30:06.267Z</time></trkpt><trkpt lat="45.7193458" lon="13.7283422"><ele>230.0</ele><time>2026-05-05T12:30:07.267Z</time></trkpt><trkpt lat="45.7194213" lon="13.7282198"><ele>230.0</ele><time>2026-05-05T12:30:08.266Z</time></trkpt><trkpt lat="45.7194955" lon="13.7280845"><ele>230.0</ele><time>2026-05-05T12:30:09.267Z</time></trkpt><trkpt lat="45.71957" lon="13.7279433"><ele>230.0</ele><time>2026-05-05T12:30:10.267Z</time></trkpt><trkpt lat="45.7196545" lon="13.72779"><ele>230.0</ele><time>2026-05-05T12:30:11.266Z</time></trkpt><trkpt lat="45.7197379" lon="13.7276343"><ele>229.75</ele><time>2026-05-05T12:30:12.267Z</time></trkpt><trkpt lat="45.7198174" lon="13.7274843"><ele>229.5</ele><time>2026-05-05T12:30:13.266Z</time></trkpt><trkpt lat="45.7198977" lon="13.7273282"><ele>229.25</ele><time>2026-05-05T12:30:14.267Z</time></trkpt><trkpt lat="45.7199875" lon="13.7271808"><ele>229.0</ele><time>2026-05-05T12:30:15.266Z</time></trkpt><trkpt lat="45.7200732" lon="13.7270226"><ele>229.33333333333331</ele><time>2026-05-05T12:30:16.266Z</time></trkpt><trkpt lat="45.7201693" lon="13.7268611"><ele>229.66666666666669</ele><time>2026-05-05T12:30:17.266Z</time></trkpt><trkpt lat="45.7202722" lon="13.7266934"><ele>230.0</ele><time>2026-05-05T12:30:18.266Z</time></trkpt><trkpt lat="45.7203859" lon="13.7265204"><ele>230.66666666666669</ele><time>2026-05-05T12:30:19.267Z</time></trkpt><trkpt lat="45.7204963" lon="13.7263424"><ele>231.33333333333331</ele><time>2026-05-05T12:30:20.267Z</time></trkpt><trkpt lat="45.7206049" lon="13.7261669"><ele>232.0</ele><time>2026-05-05T12:30:21.267Z</time></trkpt><trkpt lat="45.7207217" lon="13.725982"><ele>232.33333333333331</ele><time>2026-05-05T12:30:22.267Z</time></trkpt><trkpt lat="45.7208392" lon="13.7257985"><ele>232.66666666666669</ele><time>2026-05-05T12:30:23.267Z</time></trkpt><trkpt lat="45.7209531" lon="13.7256107"><ele>233.0</ele><time>2026-05-05T12:30:24.267Z</time></trkpt><trkpt lat="45.721079" lon="13.7254162"><ele>232.66666666666669</ele><time>2026-05-05T12:30:25.266Z</time></trkpt><trkpt lat="45.7212052" lon="13.7252097"><ele>232.33333333333331</ele><time>2026-05-05T12:30:26.266Z</time></trkpt><trkpt lat="45.7213392" lon="13.7249979"><ele>232.0</ele><time>2026-05-05T12:30:27.267Z</time></trkpt><trkpt lat="45.7214719" lon="13.7247727"><ele>232.0</ele><time>2026-05-05T12:30:28.266Z</time></trkpt><trkpt lat="45.7216163" lon="13.7245314"><ele>232.0</ele><time>2026-05-05T12:30:29.266Z</time></trkpt><trkpt lat="45.7217763" lon="13.7242742"><ele>232.5</ele><time>2026-05-05T12:30:30.266Z</time></trkpt><trkpt lat="45.7219446" lon="13.7239999"><ele>233.0</ele><time>2026-05-05T12:30:31.267Z</time></trkpt><trkpt lat="45.7221218" lon="13.7237209"><ele>233.5</ele><time>2026-05-05T12:30:32.266Z</time></trkpt><trkpt lat="45.7222987" lon="13.7234409"><ele>234.0</ele><time>2026-05-05T12:30:33.266Z</time></trkpt><trkpt lat="45.7224734" lon="13.7231568"><ele>234.0</ele><time>2026-05-05T12:30:34.267Z</time></trkpt><trkpt lat="45.7226537" lon="13.7228723"><ele>234.0</ele><time>2026-05-05T12:30:35.267Z</time></trkpt><trkpt lat="45.7228386" lon="13.722594"><ele>233.0</ele><time>2026-05-05T12:30:36.266Z</time></trkpt><trkpt lat="45.7230249" lon="13.7223048"><ele>232.0</ele><time>2026-05-05T12:30:37.266Z</time></trkpt><trkpt lat="45.7232088" lon="13.722016"><ele>232.0</ele><time>2026-05-05T12:30:38.267Z</time></trkpt><trkpt lat="45.7233914" lon="13.7217271"><ele>232.0</ele><time>2026-05-05T12:30:39.267Z</time></trkpt><trkpt lat="45.7235738" lon="13.7214377"><ele>232.0</ele><time>2026-05-05T12:30:40.266Z</time></trkpt><trkpt lat="45.7237628" lon="13.7211466"><ele>232.0</ele><time>2026-05-05T12:30:41.267Z</time></trkpt><trkpt lat="45.7239498" lon="13.7208575"><ele>231.0</ele><time>2026-05-05T12:30:42.267Z</time></trkpt><trkpt lat="45.7241392" lon="13.7205625"><ele>230.0</ele><time>2026-05-05T12:30:43.267Z</time></trkpt><trkpt lat="45.7243315" lon="13.7202625"><ele>228.5</ele><time>2026-05-05T12:30:44.266Z</time></trkpt><trkpt lat="45.7245243" lon="13.71996"><ele>227.0</ele><time>2026-05-05T12:30:45.266Z</time></trkpt><trkpt lat="45.7247191" lon="13.7196635"><ele>228.0</ele><time>2026-05-05T12:30:46.267Z</time></trkpt><trkpt lat="45.724916" lon="13.7193593"><ele>229.0</ele><time>2026-05-05T12:30:47.267Z</time></trkpt><trkpt lat="45.7251157" lon="13.7190598"><ele>226.5</ele><time>2026-05-05T12:30:48.266Z</time></trkpt><trkpt lat="45.7253139" lon="13.7187501"><ele>224.0</ele><time>2026-05-05T12:30:49.266Z</time></trkpt><trkpt lat="45.7255123" lon="13.7184419"><ele>224.0</ele><time>2026-05-05T12:30:50.267Z</time></trkpt><trkpt lat="45.72571" lon="13.7181328"><ele>224.0</ele><time>2026-05-05T12:30:51.266Z</time></trkpt><trkpt lat="45.7259049" lon="13.7178266"><ele>222.0</ele><time>2026-05-05T12:30:52.267Z</time></trkpt><trkpt lat="45.726098" lon="13.7175187"><ele>220.0</ele><time>2026-05-05T12:30:53.266Z</time></trkpt><trkpt lat="45.7262939" lon="13.7172177"><ele>220.0</ele><time>2026-05-05T12:30:54.266Z</time></trkpt><trkpt lat="45.7264896" lon="13.7169225"><ele>220.0</ele><time>2026-05-05T12:30:55.267Z</time></trkpt><trkpt lat="45.7266878" lon="13.7166344"><ele>219.5</ele><time>2026-05-05T12:30:56.267Z</time></trkpt><trkpt lat="45.7268783" lon="13.7163463"><ele>219.0</ele><time>2026-05-05T12:30:57.267Z</time></trkpt><trkpt lat="45.7270696" lon="13.7160581"><ele>217.0</ele><time>2026-05-05T12:30:58.266Z</time></trkpt><trkpt lat="45.7272552" lon="13.7157747"><ele>215.0</ele><time>2026-05-05T12:30:59.267Z</time></trkpt><trkpt lat="45.7274371" lon="13.715501"><ele>215.5</ele><time>2026-05-05T12:31:00.266Z</time></trkpt><trkpt lat="45.7276168" lon="13.7152289"><ele>216.0</ele><time>2026-05-05T12:31:01.267Z</time></trkpt><trkpt lat="45.727793" lon="13.7149573"><ele>214.0</ele><time>2026-05-05T12:31:02.267Z</time></trkpt><trkpt lat="45.7279664" lon="13.7146884"><ele>212.0</ele><time>2026-05-05T12:31:03.267Z</time></trkpt><trkpt lat="45.7281292" lon="13.7144187"><ele>212.0</ele><time>2026-05-05T12:31:04.266Z</time></trkpt><trkpt lat="45.7283004" lon="13.7141578"><ele>212.0</ele><time>2026-05-05T12:31:05.267Z</time></trkpt><trkpt lat="45.7284692" lon="13.7139016"><ele>211.0</ele><time>2026-05-05T12:31:06.266Z</time></trkpt><trkpt lat="45.7286377" lon="13.7136515"><ele>210.0</ele><time>2026-05-05T12:31:07.267Z</time></trkpt><trkpt lat="45.7288009" lon="13.7133989"><ele>209.5</ele><time>2026-05-05T12:31:08.267Z</time></trkpt><trkpt lat="45.7289638" lon="13.7131454"><ele>209.0</ele><time>2026-05-05T12:31:09.266Z</time></trkpt><trkpt lat="45.7291268" lon="13.7128891"><ele>209.0</ele><time>2026-05-05T12:31:10.267Z</time></trkpt><trkpt lat="45.7292903" lon="13.7126328"><ele>209.0</ele><time>2026-05-05T12:31:11.267Z</time></trkpt><trkpt lat="45.7294541" lon="13.7123768"><ele>208.5</ele><time>2026-05-05T12:31:12.266Z</time></trkpt><trkpt lat="45.7296181" lon="13.7121212"><ele>208.0</ele><time>2026-05-05T12:31:13.266Z</time></trkpt><trkpt lat="45.7297842" lon="13.7118567"><ele>208.0</ele><time>2026-05-05T12:31:14.266Z</time></trkpt><trkpt lat="45.7299505" lon="13.7115938"><ele>208.0</ele><time>2026-05-05T12:31:15.267Z</time></trkpt><trkpt lat="45.7301198" lon="13.711335"><ele>208.5</ele><time>2026-05-05T12:31:16.267Z</time></trkpt><trkpt lat="45.7302853" lon="13.7110706"><ele>209.0</ele><time>2026-05-05T12:31:17.266Z</time></trkpt><trkpt lat="45.7304557" lon="13.7108074"><ele>209.0</ele><time>2026-05-05T12:31:18.267Z</time></trkpt><trkpt lat="45.7306273" lon="13.7105447"><ele>209.0</ele><time>2026-05-05T12:31:19.266Z</time></trkpt><trkpt lat="45.7307926" lon="13.7102789"><ele>208.5</ele><time>2026-05-05T12:31:20.266Z</time></trkpt><trkpt lat="45.7309614" lon="13.7100115"><ele>208.0</ele><time>2026-05-05T12:31:21.267Z</time></trkpt><trkpt lat="45.7311313" lon="13.7097442"><ele>208.0</ele><time>2026-05-05T12:31:22.266Z</time></trkpt><trkpt lat="45.7313016" lon="13.7094739"><ele>208.0</ele><time>2026-05-05T12:31:23.267Z</time></trkpt><trkpt lat="45.7314728" lon="13.709204"><ele>207.5</ele><time>2026-05-05T12:31:24.266Z</time></trkpt><trkpt lat="45.7316444" lon="13.7089358"><ele>207.0</ele><time>2026-05-05T12:31:25.266Z</time></trkpt><trkpt lat="45.7318183" lon="13.7086671"><ele>207.0</ele><time>2026-05-05T12:31:26.267Z</time></trkpt><trkpt lat="45.7319941" lon="13.7083997"><ele>207.0</ele><time>2026-05-05T12:31:27.266Z</time></trkpt><trkpt lat="45.7321645" lon="13.7081247"><ele>207.0</ele><time>2026-05-05T12:31:28.267Z</time></trkpt><trkpt lat="45.7323352" lon="13.7078545"><ele>207.0</ele><time>2026-05-05T12:31:29.266Z</time></trkpt><trkpt lat="45.7325043" lon="13.7075828"><ele>207.0</ele><time>2026-05-05T12:31:30.267Z</time></trkpt><trkpt lat="45.7326752" lon="13.7073096"><ele>207.0</ele><time>2026-05-05T12:31:31.267Z</time></trkpt><trkpt lat="45.7328471" lon="13.7070473"><ele>206.0</ele><time>2026-05-05T12:31:32.267Z</time></trkpt><trkpt lat="45.7330193" lon="13.7067741"><ele>205.0</ele><time>2026-05-05T12:31:33.266Z</time></trkpt><trkpt lat="45.7331929" lon="13.7065083"><ele>205.0</ele><time>2026-05-05T12:31:34.266Z</time></trkpt><trkpt lat="45.7333677" lon="13.7062388"><ele>205.0</ele><time>2026-05-05T12:31:35.267Z</time></trkpt><trkpt lat="45.7335435" lon="13.7059672"><ele>204.0</ele><time>2026-05-05T12:31:36.267Z</time></trkpt><trkpt lat="45.7337178" lon="13.7056944"><ele>203.0</ele><time>2026-05-05T12:31:37.267Z</time></trkpt><trkpt lat="45.7338944" lon="13.7054209"><ele>202.5</ele><time>2026-05-05T12:31:38.266Z</time></trkpt><trkpt lat="45.7340689" lon="13.705148"><ele>202.0</ele><time>2026-05-05T12:31:39.266Z</time></trkpt><trkpt lat="45.7342422" lon="13.7048784"><ele>201.5</ele><time>2026-05-05T12:31:40.266Z</time></trkpt><trkpt lat="45.7344164" lon="13.7046052"><ele>201.0</ele><time>2026-05-05T12:31:41.267Z</time></trkpt><trkpt lat="45.7345905" lon="13.7043319"><ele>200.5</ele><time>2026-05-05T12:31:42.267Z</time></trkpt><trkpt lat="45.734767" lon="13.7040592"><ele>200.0</ele><time>2026-05-05T12:31:43.267Z</time></trkpt><trkpt lat="45.7349434" lon="13.7037842"><ele>200.0</ele><time>2026-05-05T12:31:44.266Z</time></trkpt><trkpt lat="45.7351183" lon="13.7035053"><ele>200.0</ele><time>2026-05-05T12:31:45.267Z</time></trkpt><trkpt lat="45.7352986" lon="13.7032302"><ele>200.0</ele><time>2026-05-05T12:31:46.266Z</time></trkpt><trkpt lat="45.7354755" lon="13.7029515"><ele>200.0</ele><time>2026-05-05T12:31:47.267Z</time></trkpt><trkpt lat="45.7356534" lon="13.7026746"><ele>199.5</ele><time>2026-05-05T12:31:48.267Z</time></trkpt><trkpt lat="45.7358339" lon="13.7023965"><ele>199.0</ele><time>2026-05-05T12:31:49.267Z</time></trkpt><trkpt lat="45.7360104" lon="13.7021201"><ele>196.5</ele><time>2026-05-05T12:31:50.266Z</time></trkpt><trkpt lat="45.7361871" lon="13.7018419"><ele>194.0</ele><time>2026-05-05T12:31:51.267Z</time></trkpt><trkpt lat="45.7363637" lon="13.7015624"><ele>194.0</ele><time>2026-05-05T12:31:52.267Z</time></trkpt><trkpt lat="45.7365405" lon="13.7012866"><ele>194.0</ele><time>2026-05-05T12:31:53.266Z</time></trkpt><trkpt lat="45.7367226" lon="13.7010082"><ele>192.5</ele><time>2026-05-05T12:31:54.267Z</time></trkpt><trkpt lat="45.7369009" lon="13.700725"><ele>191.0</ele><time>2026-05-05T12:31:55.267Z</time></trkpt><trkpt lat="45.7370824" lon="13.7004407"><ele>191.0</ele><time>2026-05-05T12:31:56.266Z</time></trkpt><trkpt lat="45.7372649" lon="13.7001569"><ele>191.0</ele><time>2026-05-05T12:31:57.266Z</time></trkpt><trkpt lat="45.7374492" lon="13.699874"><ele>191.0</ele><time>2026-05-05T12:31:58.267Z</time></trkpt><trkpt lat="45.7376335" lon="13.6995919"><ele>191.0</ele><time>2026-05-05T12:31:59.266Z</time></trkpt><trkpt lat="45.7378162" lon="13.6993092"><ele>189.0</ele><time>2026-05-05T12:32:00.267Z</time></trkpt><trkpt lat="45.7379969" lon="13.6990322"><ele>187.0</ele><time>2026-05-05T12:32:01.267Z</time></trkpt><trkpt lat="45.7381771" lon="13.6987491"><ele>186.0</ele><time>2026-05-05T12:32:02.267Z</time></trkpt><trkpt lat="45.7383531" lon="13.6984729"><ele>185.0</ele><time>2026-05-05T12:32:03.267Z</time></trkpt><trkpt lat="45.7385307" lon="13.6981947"><ele>184.0</ele><time>2026-05-05T12:32:04.267Z</time></trkpt><trkpt lat="45.738714" lon="13.6979186"><ele>183.0</ele><time>2026-05-05T12:32:05.266Z</time></trkpt><trkpt lat="45.7388973" lon="13.6976387"><ele>183.0</ele><time>2026-05-05T12:32:06.267Z</time></trkpt><trkpt lat="45.7390778" lon="13.6973541"><ele>183.0</ele><time>2026-05-05T12:32:07.267Z</time></trkpt><trkpt lat="45.7392579" lon="13.6970721"><ele>180.5</ele><time>2026-05-05T12:32:08.266Z</time></trkpt><trkpt lat="45.739437" lon="13.6967911"><ele>178.0</ele><time>2026-05-05T12:32:09.267Z</time></trkpt><trkpt lat="45.7396118" lon="13.6965069"><ele>178.0</ele><time>2026-05-05T12:32:10.266Z</time></trkpt><trkpt lat="45.7397912" lon="13.6962291"><ele>178.0</ele><time>2026-05-05T12:32:11.267Z</time></trkpt><trkpt lat="45.7399743" lon="13.6959574"><ele>178.0</ele><time>2026-05-05T12:32:12.266Z</time></trkpt><trkpt lat="45.7401515" lon="13.6956716"><ele>178.0</ele><time>2026-05-05T12:32:13.266Z</time></trkpt><trkpt lat="45.7403254" lon="13.6953931"><ele>178.5</ele><time>2026-05-05T12:32:14.267Z</time></trkpt><trkpt lat="45.740508" lon="13.6951133"><ele>179.0</ele><time>2026-05-05T12:32:15.267Z</time></trkpt><trkpt lat="45.7406923" lon="13.6948348"><ele>179.0</ele><time>2026-05-05T12:32:16.267Z</time></trkpt><trkpt lat="45.7408709" lon="13.6945585"><ele>179.0</ele><time>2026-05-05T12:32:17.267Z</time></trkpt><trkpt lat="45.7410488" lon="13.6942738"><ele>178.0</ele><time>2026-05-05T12:32:18.267Z</time></trkpt><trkpt lat="45.7412319" lon="13.6939943"><ele>177.0</ele><time>2026-05-05T12:32:19.267Z</time></trkpt><trkpt lat="45.7414109" lon="13.6937155"><ele>176.0</ele><time>2026-05-05T12:32:20.267Z</time></trkpt><trkpt lat="45.7415946" lon="13.6934341"><ele>175.0</ele><time>2026-05-05T12:32:21.267Z</time></trkpt><trkpt lat="45.741774" lon="13.6931505"><ele>175.0</ele><time>2026-05-05T12:32:22.267Z</time></trkpt><trkpt lat="45.7419472" lon="13.6928719"><ele>175.0</ele><time>2026-05-05T12:32:23.267Z</time></trkpt><trkpt lat="45.7421279" lon="13.6925878"><ele>173.5</ele><time>2026-05-05T12:32:24.266Z</time></trkpt><trkpt lat="45.7423081" lon="13.6923018"><ele>172.0</ele><time>2026-05-05T12:32:25.267Z</time></trkpt><trkpt lat="45.7424846" lon="13.6920165"><ele>171.0</ele><time>2026-05-05T12:32:26.267Z</time></trkpt><trkpt lat="45.7426644" lon="13.6917314"><ele>170.0</ele><time>2026-05-05T12:32:27.267Z</time></trkpt><trkpt lat="45.7428399" lon="13.6914484"><ele>170.0</ele><time>2026-05-05T12:32:28.266Z</time></trkpt><trkpt lat="45.7430116" lon="13.6911666"><ele>170.0</ele><time>2026-05-05T12:32:29.266Z</time></trkpt><trkpt lat="45.7431853" lon="13.6908829"><ele>169.0</ele><time>2026-05-05T12:32:30.266Z</time></trkpt><trkpt lat="45.7433556" lon="13.690597"><ele>168.0</ele><time>2026-05-05T12:32:31.266Z</time></trkpt><trkpt lat="45.7435259" lon="13.6903071"><ele>165.0</ele><time>2026-05-05T12:32:32.267Z</time></trkpt><trkpt lat="45.7436956" lon="13.6900229"><ele>162.0</ele><time>2026-05-05T12:32:33.267Z</time></trkpt><trkpt lat="45.7438607" lon="13.6897391"><ele>162.0</ele><time>2026-05-05T12:32:34.267Z</time></trkpt><trkpt lat="45.7440285" lon="13.6894496"><ele>162.0</ele><time>2026-05-05T12:32:35.267Z</time></trkpt><trkpt lat="45.7441913" lon="13.6891632"><ele>162.0</ele><time>2026-05-05T12:32:36.267Z</time></trkpt><trkpt lat="45.7443581" lon="13.6888773"><ele>162.0</ele><time>2026-05-05T12:32:37.267Z</time></trkpt><trkpt lat="45.7445241" lon="13.6885916"><ele>161.5</ele><time>2026-05-05T12:32:38.266Z</time></trkpt><trkpt lat="45.7446921" lon="13.6883043"><ele>161.0</ele><time>2026-05-05T12:32:39.266Z</time></trkpt><trkpt lat="45.7448579" lon="13.688016"><ele>161.0</ele><time>2026-05-05T12:32:40.267Z</time></trkpt><trkpt lat="45.7450251" lon="13.6877296"><ele>161.0</ele><time>2026-05-05T12:32:41.267Z</time></trkpt><trkpt lat="45.7451907" lon="13.6874419"><ele>158.5</ele><time>2026-05-05T12:32:42.266Z</time></trkpt><trkpt lat="45.7453583" lon="13.6871572"><ele>156.0</ele><time>2026-05-05T12:32:43.267Z</time></trkpt><trkpt lat="45.7455218" lon="13.6868714"><ele>156.0</ele><time>2026-05-05T12:32:44.267Z</time></trkpt><trkpt lat="45.7456868" lon="13.6865845"><ele>156.0</ele><time>2026-05-05T12:32:45.267Z</time></trkpt><trkpt lat="45.7458528" lon="13.686303"><ele>156.0</ele><time>2026-05-05T12:32:46.267Z</time></trkpt><trkpt lat="45.7460168" lon="13.6860177"><ele>156.0</ele><time>2026-05-05T12:32:47.266Z</time></trkpt><trkpt lat="45.7461835" lon="13.6857308"><ele>156.0</ele><time>2026-05-05T12:32:48.267Z</time></trkpt><trkpt lat="45.7463484" lon="13.685445"><ele>156.0</ele><time>2026-05-05T12:32:49.267Z</time></trkpt><trkpt lat="45.7465132" lon="13.6851589"><ele>155.5</ele><time>2026-05-05T12:32:50.267Z</time></trkpt><trkpt lat="45.7466797" lon="13.6848749"><ele>155.0</ele><time>2026-05-05T12:32:51.266Z</time></trkpt><trkpt lat="45.7468436" lon="13.6845943"><ele>153.5</ele><time>2026-05-05T12:32:52.267Z</time></trkpt><trkpt lat="45.7470115" lon="13.6843106"><ele>152.0</ele><time>2026-05-05T12:32:53.266Z</time></trkpt><trkpt lat="45.7471767" lon="13.6840273"><ele>152.0</ele><time>2026-05-05T12:32:54.267Z</time></trkpt><trkpt lat="45.7473401" lon="13.6837459"><ele>152.0</ele><time>2026-05-05T12:32:55.266Z</time></trkpt><trkpt lat="45.7475062" lon="13.683465"><ele>152.0</ele><time>2026-05-05T12:32:56.266Z</time></trkpt><trkpt lat="45.7476692" lon="13.6831801"><ele>152.0</ele><time>2026-05-05T12:32:57.267Z</time></trkpt><trkpt lat="45.7478355" lon="13.682895"><ele>150.5</ele><time>2026-05-05T12:32:58.267Z</time></trkpt><trkpt lat="45.7479967" lon="13.6826083"><ele>149.0</ele><time>2026-05-05T12:32:59.266Z</time></trkpt><trkpt lat="45.7481598" lon="13.6823255"><ele>149.0</ele><time>2026-05-05T12:33:00.267Z</time></trkpt><trkpt lat="45.7483164" lon="13.6820396"><ele>149.0</ele><time>2026-05-05T12:33:01.267Z</time></trkpt><trkpt lat="45.748475" lon="13.6817637"><ele>147.0</ele><time>2026-05-05T12:33:02.267Z</time></trkpt><trkpt lat="45.748634" lon="13.6814907"><ele>145.0</ele><time>2026-05-05T12:33:03.267Z</time></trkpt><trkpt lat="45.7487909" lon="13.6812161"><ele>144.0</ele><time>2026-05-05T12:33:04.266Z</time></trkpt><trkpt lat="45.7489476" lon="13.6809411"><ele>143.0</ele><time>2026-05-05T12:33:05.267Z</time></trkpt><trkpt lat="45.7491059" lon="13.6806686"><ele>143.0</ele><time>2026-05-05T12:33:06.266Z</time></trkpt><trkpt lat="45.7492658" lon="13.6803982"><ele>143.0</ele><time>2026-05-05T12:33:07.266Z</time></trkpt><trkpt lat="45.7494299" lon="13.6801376"><ele>141.0</ele><time>2026-05-05T12:33:08.266Z</time></trkpt><trkpt lat="45.7495924" lon="13.6798746"><ele>139.0</ele><time>2026-05-05T12:33:09.267Z</time></trkpt><trkpt lat="45.7497593" lon="13.6796143"><ele>137.5</ele><time>2026-05-05T12:33:10.267Z</time></trkpt><trkpt lat="45.7499306" lon="13.6793583"><ele>136.0</ele><time>2026-05-05T12:33:11.267Z</time></trkpt><trkpt lat="45.7500995" lon="13.6790987"><ele>134.0</ele><time>2026-05-05T12:33:12.266Z</time></trkpt><trkpt lat="45.7502763" lon="13.6788534"><ele>132.0</ele><time>2026-05-05T12:33:13.267Z</time></trkpt><trkpt lat="45.750458" lon="13.6785987"><ele>132.0</ele><time>2026-05-05T12:33:14.266Z</time></trkpt><trkpt lat="45.7506401" lon="13.6783597"><ele>132.0</ele><time>2026-05-05T12:33:15.267Z</time></trkpt><trkpt lat="45.75082" lon="13.6781246"><ele>132.0</ele><time>2026-05-05T12:33:16.266Z</time></trkpt><trkpt lat="45.7510102" lon="13.6778929"><ele>132.0</ele><time>2026-05-05T12:33:17.266Z</time></trkpt><trkpt lat="45.7512024" lon="13.6776715"><ele>131.5</ele><time>2026-05-05T12:33:18.267Z</time></trkpt><trkpt lat="45.7513952" lon="13.6774477"><ele>131.0</ele><time>2026-05-05T12:33:19.267Z</time></trkpt><trkpt lat="45.7515884" lon="13.6772287"><ele>131.0</ele><time>2026-05-05T12:33:20.267Z</time></trkpt><trkpt lat="45.7517849" lon="13.6770192"><ele>131.0</ele><time>2026-05-05T12:33:21.267Z</time></trkpt><trkpt lat="45.7519803" lon="13.6768124"><ele>129.5</ele><time>2026-05-05T12:33:22.266Z</time></trkpt><trkpt lat="45.7521804" lon="13.6766097"><ele>128.0</ele><time>2026-05-05T12:33:23.267Z</time></trkpt><trkpt lat="45.7523813" lon="13.6764211"><ele>128.0</ele><time>2026-05-05T12:33:24.267Z</time></trkpt><trkpt lat="45.7525775" lon="13.6762328"><ele>128.0</ele><time>2026-05-05T12:33:25.266Z</time></trkpt><trkpt lat="45.7527786" lon="13.6760492"><ele>128.5</ele><time>2026-05-05T12:33:26.267Z</time></trkpt><trkpt lat="45.7529771" lon="13.6758752"><ele>129.0</ele><time>2026-05-05T12:33:27.266Z</time></trkpt><trkpt lat="45.7531843" lon="13.6757116"><ele>129.0</ele><time>2026-05-05T12:33:28.267Z</time></trkpt><trkpt lat="45.7533799" lon="13.6755517"><ele>129.0</ele><time>2026-05-05T12:33:29.266Z</time></trkpt><trkpt lat="45.7535859" lon="13.6753969"><ele>131.0</ele><time>2026-05-05T12:33:30.266Z</time></trkpt><trkpt lat="45.7537912" lon="13.6752418"><ele>133.0</ele><time>2026-05-05T12:33:31.267Z</time></trkpt><trkpt lat="45.7539954" lon="13.6750914"><ele>133.0</ele><time>2026-05-05T12:33:32.266Z</time></trkpt><trkpt lat="45.7541945" lon="13.6749392"><ele>133.0</ele><time>2026-05-05T12:33:33.267Z</time></trkpt><trkpt lat="45.7543983" lon="13.6747886"><ele>134.66666666666669</ele><time>2026-05-05T12:33:34.267Z</time></trkpt><trkpt lat="45.7545964" lon="13.6746397"><ele>136.33333333333334</ele><time>2026-05-05T12:33:35.267Z</time></trkpt><trkpt lat="45.754796" lon="13.6744934"><ele>138.0</ele><time>2026-05-05T12:33:36.266Z</time></trkpt><trkpt lat="45.7550006" lon="13.674349"><ele>138.0</ele><time>2026-05-05T12:33:37.266Z</time></trkpt><trkpt lat="45.7551998" lon="13.6742048"><ele>138.0</ele><time>2026-05-05T12:33:38.267Z</time></trkpt><trkpt lat="45.7553981" lon="13.6740572"><ele>138.0</ele><time>2026-05-05T12:33:39.267Z</time></trkpt><trkpt lat="45.7555965" lon="13.6739157"><ele>137.66666666666666</ele><time>2026-05-05T12:33:40.266Z</time></trkpt><trkpt lat="45.7557958" lon="13.6737753"><ele>137.33333333333331</ele><time>2026-05-05T12:33:41.267Z</time></trkpt><trkpt lat="45.7559959" lon="13.6736381"><ele>137.0</ele><time>2026-05-05T12:33:42.267Z</time></trkpt><trkpt lat="45.7561924" lon="13.6734916"><ele>137.0</ele><time>2026-05-05T12:33:43.266Z</time></trkpt><trkpt lat="45.7563909" lon="13.6733484"><ele>137.0</ele><time>2026-05-05T12:33:44.266Z</time></trkpt><trkpt lat="45.756583" lon="13.6732062"><ele>137.0</ele><time>2026-05-05T12:33:45.267Z</time></trkpt><trkpt lat="45.7567793" lon="13.6730651"><ele>137.0</ele><time>2026-05-05T12:33:46.267Z</time></trkpt><trkpt lat="45.7569758" lon="13.6729207"><ele>137.0</ele><time>2026-05-05T12:33:47.266Z</time></trkpt><trkpt lat="45.7571738" lon="13.672777"><ele>137.0</ele><time>2026-05-05T12:33:48.266Z</time></trkpt><trkpt lat="45.7573757" lon="13.6726363"><ele>135.33333333333331</ele><time>2026-05-05T12:33:49.267Z</time></trkpt><trkpt lat="45.757576" lon="13.6724864"><ele>133.66666666666666</ele><time>2026-05-05T12:33:50.267Z</time></trkpt><trkpt lat="45.7577698" lon="13.6723346"><ele>132.0</ele><time>2026-05-05T12:33:51.267Z</time></trkpt><trkpt lat="45.7579676" lon="13.672177"><ele>132.0</ele><time>2026-05-05T12:33:52.266Z</time></trkpt><trkpt lat="45.7581641" lon="13.6720075"><ele>132.0</ele><time>2026-05-05T12:33:53.267Z</time></trkpt><trkpt lat="45.7583567" lon="13.6718292"><ele>131.5</ele><time>2026-05-05T12:33:54.266Z</time></trkpt><trkpt lat="45.7585458" lon="13.671642"><ele>131.0</ele><time>2026-05-05T12:33:55.266Z</time></trkpt><trkpt lat="45.7587266" lon="13.6714472"><ele>131.0</ele><time>2026-05-05T12:33:56.267Z</time></trkpt><trkpt lat="45.7588995" lon="13.6712417"><ele>131.0</ele><time>2026-05-05T12:33:57.266Z</time></trkpt><trkpt lat="45.7590655" lon="13.6710261"><ele>131.0</ele><time>2026-05-05T12:33:58.267Z</time></trkpt><trkpt lat="45.7592248" lon="13.6708083"><ele>128.66666666666666</ele><time>2026-05-05T12:33:59.266Z</time></trkpt><trkpt lat="45.7593798" lon="13.6705783"><ele>126.33333333333334</ele><time>2026-05-05T12:34:00.266Z</time></trkpt><trkpt lat="45.7595266" lon="13.6703364"><ele>124.0</ele><time>2026-05-05T12:34:01.267Z</time></trkpt><trkpt lat="45.7596658" lon="13.6700831"><ele>122.66666666666667</ele><time>2026-05-05T12:34:02.267Z</time></trkpt><trkpt lat="45.7597871" lon="13.6698262"><ele>121.33333333333334</ele><time>2026-05-05T12:34:03.267Z</time></trkpt><trkpt lat="45.7599115" lon="13.6695638"><ele>120.0</ele><time>2026-05-05T12:34:04.267Z</time></trkpt><trkpt lat="45.7600249" lon="13.6692898"><ele>119.0</ele><time>2026-05-05T12:34:05.267Z</time></trkpt><trkpt lat="45.7601351" lon="13.6690012"><ele>118.0</ele><time>2026-05-05T12:34:06.266Z</time></trkpt><trkpt lat="45.7602412" lon="13.6687003"><ele>112.5</ele><time>2026-05-05T12:34:07.266Z</time></trkpt><trkpt lat="45.76035" lon="13.6683934"><ele>107.0</ele><time>2026-05-05T12:34:08.267Z</time></trkpt><trkpt lat="45.7604581" lon="13.6680672"><ele>109.0</ele><time>2026-05-05T12:34:09.266Z</time></trkpt><trkpt lat="45.7605741" lon="13.6677436"><ele>111.0</ele><time>2026-05-05T12:34:10.267Z</time></trkpt><trkpt lat="45.7606912" lon="13.6674107"><ele>111.0</ele><time>2026-05-05T12:34:11.266Z</time></trkpt><trkpt lat="45.7607979" lon="13.6670822"><ele>111.0</ele><time>2026-05-05T12:34:12.267Z</time></trkpt><trkpt lat="45.7609116" lon="13.6667488"><ele>113.5</ele><time>2026-05-05T12:34:13.267Z</time></trkpt><trkpt lat="45.7610227" lon="13.6664153"><ele>116.0</ele><time>2026-05-05T12:34:14.267Z</time></trkpt><trkpt lat="45.7611399" lon="13.6660858"><ele>118.0</ele><time>2026-05-05T12:34:15.267Z</time></trkpt><trkpt lat="45.7612538" lon="13.6657548"><ele>120.0</ele><time>2026-05-05T12:34:16.267Z</time></trkpt><trkpt lat="45.7613611" lon="13.6654323"><ele>120.0</ele><time>2026-05-05T12:34:17.267Z</time></trkpt><trkpt lat="45.7614696" lon="13.6651185"><ele>120.0</ele><time>2026-05-05T12:34:18.267Z</time></trkpt><trkpt lat="45.7615724" lon="13.6648078"><ele>120.0</ele><time>2026-05-05T12:34:19.267Z</time></trkpt><trkpt lat="45.7616766" lon="13.6644971"><ele>120.0</ele><time>2026-05-05T12:34:20.267Z</time></trkpt><trkpt lat="45.7617803" lon="13.6641834"><ele>123.0</ele><time>2026-05-05T12:34:21.266Z</time></trkpt><trkpt lat="45.7618887" lon="13.6638673"><ele>126.0</ele><time>2026-05-05T12:34:22.266Z</time></trkpt><trkpt lat="45.7619932" lon="13.6635467"><ele>126.0</ele><time>2026-05-05T12:34:23.267Z</time></trkpt><trkpt lat="45.7621014" lon="13.6632288"><ele>126.0</ele><time>2026-05-05T12:34:24.266Z</time></trkpt><trkpt lat="45.76221" lon="13.6629114"><ele>124.5</ele><time>2026-05-05T12:34:25.267Z</time></trkpt><trkpt lat="45.7623195" lon="13.662595"><ele>123.0</ele><time>2026-05-05T12:34:26.266Z</time></trkpt><trkpt lat="45.7624228" lon="13.6622692"><ele>123.5</ele><time>2026-05-05T12:34:27.266Z</time></trkpt><trkpt lat="45.7625374" lon="13.6619448"><ele>124.0</ele><time>2026-05-05T12:34:28.267Z</time></trkpt><trkpt lat="45.7626532" lon="13.6616076"><ele>125.5</ele><time>2026-05-05T12:34:29.266Z</time></trkpt><trkpt lat="45.7627737" lon="13.6612598"><ele>127.0</ele><time>2026-05-05T12:34:30.267Z</time></trkpt><trkpt lat="45.7628935" lon="13.6609018"><ele>127.0</ele><time>2026-05-05T12:34:31.266Z</time></trkpt><trkpt lat="45.7630144" lon="13.6605398"><ele>127.0</ele><time>2026-05-05T12:34:32.267Z</time></trkpt><trkpt lat="45.7631338" lon="13.6601748"><ele>126.5</ele><time>2026-05-05T12:34:33.267Z</time></trkpt><trkpt lat="45.7632547" lon="13.6597953"><ele>126.0</ele><time>2026-05-05T12:34:34.267Z</time></trkpt><trkpt lat="45.7633681" lon="13.659424"><ele>126.0</ele><time>2026-05-05T12:34:35.267Z</time></trkpt><trkpt lat="45.7634833" lon="13.6590502"><ele>126.0</ele><time>2026-05-05T12:34:36.267Z</time></trkpt><trkpt lat="45.7635975" lon="13.6586794"><ele>121.0</ele><time>2026-05-05T12:34:37.267Z</time></trkpt><trkpt lat="45.7637126" lon="13.6582975"><ele>116.0</ele><time>2026-05-05T12:34:38.267Z</time></trkpt><trkpt lat="45.7638331" lon="13.65792"><ele>116.0</ele><time>2026-05-05T12:34:39.266Z</time></trkpt><trkpt lat="45.7639522" lon="13.6575396"><ele>116.0</ele><time>2026-05-05T12:34:40.266Z</time></trkpt><trkpt lat="45.7640718" lon="13.6571674"><ele>116.0</ele><time>2026-05-05T12:34:41.267Z</time></trkpt><trkpt lat="45.7641849" lon="13.6567942"><ele>116.0</ele><time>2026-05-05T12:34:42.267Z</time></trkpt><trkpt lat="45.7643002" lon="13.6564252"><ele>113.5</ele><time>2026-05-05T12:34:43.267Z</time></trkpt><trkpt lat="45.7644127" lon="13.6560633"><ele>111.0</ele><time>2026-05-05T12:34:44.266Z</time></trkpt><trkpt lat="45.764528" lon="13.6557063"><ele>111.0</ele><time>2026-05-05T12:34:45.267Z</time></trkpt><trkpt lat="45.7646394" lon="13.6553456"><ele>111.0</ele><time>2026-05-05T12:34:46.266Z</time></trkpt><trkpt lat="45.7647477" lon="13.6549765"><ele>113.0</ele><time>2026-05-05T12:34:47.267Z</time></trkpt><trkpt lat="45.7648583" lon="13.6546096"><ele>115.0</ele><time>2026-05-05T12:34:48.266Z</time></trkpt><trkpt lat="45.7649728" lon="13.6542425"><ele>115.0</ele><time>2026-05-05T12:34:49.267Z</time></trkpt><trkpt lat="45.7650871" lon="13.6538742"><ele>115.0</ele><time>2026-05-05T12:34:50.267Z</time></trkpt><trkpt lat="45.765201" lon="13.6535078"><ele>115.5</ele><time>2026-05-05T12:34:51.266Z</time></trkpt><trkpt lat="45.7653208" lon="13.6531463"><ele>116.0</ele><time>2026-05-05T12:34:52.266Z</time></trkpt><trkpt lat="45.7654377" lon="13.652777"><ele>115.0</ele><time>2026-05-05T12:34:53.266Z</time></trkpt><trkpt lat="45.765553" lon="13.6524056"><ele>114.0</ele><time>2026-05-05T12:34:54.267Z</time></trkpt><trkpt lat="45.7656686" lon="13.6520425"><ele>111.5</ele><time>2026-05-05T12:34:55.267Z</time></trkpt><trkpt lat="45.7657798" lon="13.651687"><ele>109.0</ele><time>2026-05-05T12:34:56.267Z</time></trkpt><trkpt lat="45.7659007" lon="13.6513299"><ele>109.0</ele><time>2026-05-05T12:34:57.266Z</time></trkpt><trkpt lat="45.7660332" lon="13.6509834"><ele>109.0</ele><time>2026-05-05T12:34:58.267Z</time></trkpt><trkpt lat="45.7661733" lon="13.6506419"><ele>109.0</ele><time>2026-05-05T12:34:59.267Z</time></trkpt><trkpt lat="45.7663099" lon="13.650307"><ele>109.0</ele><time>2026-05-05T12:35:00.266Z</time></trkpt><trkpt lat="45.7664647" lon="13.6499777"><ele>108.0</ele><time>2026-05-05T12:35:01.266Z</time></trkpt><trkpt lat="45.7666288" lon="13.6496615"><ele>107.0</ele><time>2026-05-05T12:35:02.266Z</time></trkpt><trkpt lat="45.7667918" lon="13.6493452"><ele>105.0</ele><time>2026-05-05T12:35:03.266Z</time></trkpt><trkpt lat="45.7669623" lon="13.6490428"><ele>103.0</ele><time>2026-05-05T12:35:04.267Z</time></trkpt><trkpt lat="45.7671434" lon="13.6487523"><ele>101.5</ele><time>2026-05-05T12:35:05.267Z</time></trkpt><trkpt lat="45.7673314" lon="13.6484704"><ele>100.0</ele><time>2026-05-05T12:35:06.267Z</time></trkpt><trkpt lat="45.7675265" lon="13.6481985"><ele>100.0</ele><time>2026-05-05T12:35:07.266Z</time></trkpt><trkpt lat="45.7677318" lon="13.6479242"><ele>100.0</ele><time>2026-05-05T12:35:08.266Z</time></trkpt><trkpt lat="45.7679347" lon="13.6476603"><ele>98.0</ele><time>2026-05-05T12:35:09.267Z</time></trkpt><trkpt lat="45.7681503" lon="13.6473946"><ele>96.0</ele><time>2026-05-05T12:35:10.267Z</time></trkpt><trkpt lat="45.7683776" lon="13.6471249"><ele>96.0</ele><time>2026-05-05T12:35:11.267Z</time></trkpt><trkpt lat="45.7686095" lon="13.6468639"><ele>96.0</ele><time>2026-05-05T12:35:12.266Z</time></trkpt><trkpt lat="45.7688309" lon="13.6466063"><ele>96.0</ele><time>2026-05-05T12:35:13.266Z</time></trkpt><trkpt lat="45.7690481" lon="13.646352"><ele>96.0</ele><time>2026-05-05T12:35:14.266Z</time></trkpt><trkpt lat="45.7692626" lon="13.6461078"><ele>96.5</ele><time>2026-05-05T12:35:15.267Z</time></trkpt><trkpt lat="45.7694729" lon="13.6458674"><ele>97.0</ele><time>2026-05-05T12:35:16.266Z</time></trkpt><trkpt lat="45.7696777" lon="13.6456337"><ele>97.0</ele><time>2026-05-05T12:35:17.267Z</time></trkpt><trkpt lat="45.7698795" lon="13.6454026"><ele>97.0</ele><time>2026-05-05T12:35:18.267Z</time></trkpt><trkpt lat="45.7700838" lon="13.6451774"><ele>98.0</ele><time>2026-05-05T12:35:19.266Z</time></trkpt><trkpt lat="45.7702913" lon="13.644961"><ele>99.0</ele><time>2026-05-05T12:35:20.266Z</time></trkpt><trkpt lat="45.7704921" lon="13.6447433"><ele>99.0</ele><time>2026-05-05T12:35:21.267Z</time></trkpt><trkpt lat="45.7706959" lon="13.6445263"><ele>99.0</ele><time>2026-05-05T12:35:22.267Z</time></trkpt><trkpt lat="45.7708926" lon="13.6443029"><ele>99.0</ele><time>2026-05-05T12:35:23.266Z</time></trkpt><trkpt lat="45.7710883" lon="13.644091"><ele>99.0</ele><time>2026-05-05T12:35:24.267Z</time></trkpt><trkpt lat="45.7712796" lon="13.643878"><ele>99.0</ele><time>2026-05-05T12:35:25.267Z</time></trkpt><trkpt lat="45.7714698" lon="13.643659"><ele>99.0</ele><time>2026-05-05T12:35:26.267Z</time></trkpt><trkpt lat="45.7716575" lon="13.6434496"><ele>96.5</ele><time>2026-05-05T12:35:27.267Z</time></trkpt><trkpt lat="45.7718349" lon="13.6432435"><ele>94.0</ele><time>2026-05-05T12:35:28.266Z</time></trkpt><trkpt lat="45.7720158" lon="13.6430343"><ele>94.0</ele><time>2026-05-05T12:35:29.267Z</time></trkpt><trkpt lat="45.7721962" lon="13.6428262"><ele>94.0</ele><time>2026-05-05T12:35:30.266Z</time></trkpt><trkpt lat="45.7723702" lon="13.6426047"><ele>93.5</ele><time>2026-05-05T12:35:31.267Z</time></trkpt><trkpt lat="45.7725398" lon="13.6423767"><ele>93.0</ele><time>2026-05-05T12:35:32.266Z</time></trkpt><trkpt lat="45.7727068" lon="13.6421375"><ele>91.5</ele><time>2026-05-05T12:35:33.267Z</time></trkpt><trkpt lat="45.7728674" lon="13.6418954"><ele>90.0</ele><time>2026-05-05T12:35:34.266Z</time></trkpt><trkpt lat="45.7730184" lon="13.6416434"><ele>90.0</ele><time>2026-05-05T12:35:35.267Z</time></trkpt><trkpt lat="45.7731635" lon="13.6413782"><ele>90.0</ele><time>2026-05-05T12:35:36.267Z</time></trkpt><trkpt lat="45.7733035" lon="13.6410976"><ele>90.0</ele><time>2026-05-05T12:35:37.267Z</time></trkpt><trkpt lat="45.7734341" lon="13.640807"><ele>90.0</ele><time>2026-05-05T12:35:38.266Z</time></trkpt><trkpt lat="45.773555" lon="13.6405115"><ele>90.5</ele><time>2026-05-05T12:35:39.267Z</time></trkpt><trkpt lat="45.7736666" lon="13.6402013"><ele>91.0</ele><time>2026-05-05T12:35:40.266Z</time></trkpt><trkpt lat="45.7737711" lon="13.6398898"><ele>91.0</ele><time>2026-05-05T12:35:41.267Z</time></trkpt><trkpt lat="45.7738661" lon="13.6395659"><ele>91.0</ele><time>2026-05-05T12:35:42.267Z</time></trkpt><trkpt lat="45.7739508" lon="13.6392375"><ele>90.5</ele><time>2026-05-05T12:35:43.267Z</time></trkpt><trkpt lat="45.7740212" lon="13.6389068"><ele>90.0</ele><time>2026-05-05T12:35:44.266Z</time></trkpt><trkpt lat="45.774084" lon="13.6385717"><ele>88.5</ele><time>2026-05-05T12:35:45.266Z</time></trkpt><trkpt lat="45.7741273" lon="13.6382382"><ele>87.0</ele><time>2026-05-05T12:35:46.266Z</time></trkpt><trkpt lat="45.7741762" lon="13.6378929"><ele>86.0</ele><time>2026-05-05T12:35:47.267Z</time></trkpt><trkpt lat="45.774217" lon="13.6375489"><ele>85.0</ele><time>2026-05-05T12:35:48.266Z</time></trkpt><trkpt lat="45.7742531" lon="13.6372037"><ele>87.0</ele><time>2026-05-05T12:35:49.266Z</time></trkpt><trkpt lat="45.774289" lon="13.636859"><ele>89.0</ele><time>2026-05-05T12:35:50.267Z</time></trkpt><trkpt lat="45.7743161" lon="13.6365057"><ele>89.0</ele><time>2026-05-05T12:35:51.267Z</time></trkpt><trkpt lat="45.7743517" lon="13.63615"><ele>89.0</ele><time>2026-05-05T12:35:52.267Z</time></trkpt><trkpt lat="45.7743877" lon="13.6357993"><ele>88.0</ele><time>2026-05-05T12:35:53.267Z</time></trkpt><trkpt lat="45.774425" lon="13.6354503"><ele>87.0</ele><time>2026-05-05T12:35:54.266Z</time></trkpt><trkpt lat="45.7744516" lon="13.6350907"><ele>86.5</ele><time>2026-05-05T12:35:55.266Z</time></trkpt><trkpt lat="45.774478" lon="13.6347308"><ele>86.0</ele><time>2026-05-05T12:35:56.267Z</time></trkpt><trkpt lat="45.7745075" lon="13.6343734"><ele>84.0</ele><time>2026-05-05T12:35:57.267Z</time></trkpt><trkpt lat="45.7745349" lon="13.6340063"><ele>82.0</ele><time>2026-05-05T12:35:58.267Z</time></trkpt><trkpt lat="45.7745622" lon="13.6336277"><ele>81.0</ele><time>2026-05-05T12:35:59.266Z</time></trkpt><trkpt lat="45.7745873" lon="13.6332432"><ele>80.0</ele><time>2026-05-05T12:36:00.267Z</time></trkpt><trkpt lat="45.774613" lon="13.6328529"><ele>78.5</ele><time>2026-05-05T12:36:01.267Z</time></trkpt><trkpt lat="45.7746395" lon="13.6324536"><ele>77.0</ele><time>2026-05-05T12:36:02.266Z</time></trkpt><trkpt lat="45.7746665" lon="13.632054"><ele>76.0</ele><time>2026-05-05T12:36:03.267Z</time></trkpt><trkpt lat="45.7746942" lon="13.6316483"><ele>75.0</ele><time>2026-05-05T12:36:04.266Z</time></trkpt><trkpt lat="45.7747214" lon="13.6312404"><ele>75.5</ele><time>2026-05-05T12:36:05.267Z</time></trkpt><trkpt lat="45.7747499" lon="13.6308233"><ele>76.0</ele><time>2026-05-05T12:36:06.267Z</time></trkpt><trkpt lat="45.7747822" lon="13.6304054"><ele>76.5</ele><time>2026-05-05T12:36:07.267Z</time></trkpt><trkpt lat="45.7748082" lon="13.6299902"><ele>77.0</ele><time>2026-05-05T12:36:08.266Z</time></trkpt><trkpt lat="45.7748347" lon="13.6295753"><ele>77.0</ele><time>2026-05-05T12:36:09.267Z</time></trkpt><trkpt lat="45.7748592" lon="13.6291578"><ele>77.0</ele><time>2026-05-05T12:36:10.266Z</time></trkpt><trkpt lat="45.7748859" lon="13.6287466"><ele>74.5</ele><time>2026-05-05T12:36:11.267Z</time></trkpt><trkpt lat="45.774911" lon="13.628332"><ele>72.0</ele><time>2026-05-05T12:36:12.266Z</time></trkpt><trkpt lat="45.7749375" lon="13.6279211"><ele>71.5</ele><time>2026-05-05T12:36:13.266Z</time></trkpt><trkpt lat="45.7749603" lon="13.6275156"><ele>71.0</ele><time>2026-05-05T12:36:14.266Z</time></trkpt><trkpt lat="45.7749882" lon="13.6271179"><ele>71.5</ele><time>2026-05-05T12:36:15.267Z</time></trkpt><trkpt lat="45.7750151" lon="13.6267219"><ele>72.0</ele><time>2026-05-05T12:36:16.267Z</time></trkpt><trkpt lat="45.7750467" lon="13.6263233"><ele>72.5</ele><time>2026-05-05T12:36:17.267Z</time></trkpt><trkpt lat="45.7750735" lon="13.6259197"><ele>73.0</ele><time>2026-05-05T12:36:18.267Z</time></trkpt><trkpt lat="45.7751005" lon="13.625508"><ele>72.5</ele><time>2026-05-05T12:36:19.267Z</time></trkpt><trkpt lat="45.7751276" lon="13.6250794"><ele>72.0</ele><time>2026-05-05T12:36:20.266Z</time></trkpt><trkpt lat="45.7751587" lon="13.6246461"><ele>72.5</ele><time>2026-05-05T12:36:21.266Z</time></trkpt><trkpt lat="45.7751905" lon="13.6242143"><ele>73.0</ele><time>2026-05-05T12:36:22.267Z</time></trkpt><trkpt lat="45.7752149" lon="13.6237758"><ele>69.0</ele><time>2026-05-05T12:36:23.267Z</time></trkpt><trkpt lat="45.7752411" lon="13.6233401"><ele>65.0</ele><time>2026-05-05T12:36:24.266Z</time></trkpt><trkpt lat="45.7752662" lon="13.6229033"><ele>62.5</ele><time>2026-05-05T12:36:25.267Z</time></trkpt><trkpt lat="45.7752965" lon="13.6224776"><ele>60.0</ele><time>2026-05-05T12:36:26.267Z</time></trkpt><trkpt lat="45.7753241" lon="13.6220508"><ele>60.0</ele><time>2026-05-05T12:36:27.267Z</time></trkpt><trkpt lat="45.7753552" lon="13.6216258"><ele>60.0</ele><time>2026-05-05T12:36:28.267Z</time></trkpt><trkpt lat="45.7753847" lon="13.6212069"><ele>60.0</ele><time>2026-05-05T12:36:29.267Z</time></trkpt><trkpt lat="45.7754148" lon="13.6207902"><ele>60.0</ele><time>2026-05-05T12:36:30.267Z</time></trkpt><trkpt lat="45.7754463" lon="13.6203778"><ele>62.0</ele><time>2026-05-05T12:36:31.266Z</time></trkpt><trkpt lat="45.7754752" lon="13.6199712"><ele>64.0</ele><time>2026-05-05T12:36:32.267Z</time></trkpt><trkpt lat="45.775501" lon="13.6195696"><ele>63.5</ele><time>2026-05-05T12:36:33.267Z</time></trkpt><trkpt lat="45.7755261" lon="13.6191717"><ele>63.0</ele><time>2026-05-05T12:36:34.267Z</time></trkpt><trkpt lat="45.7755559" lon="13.6187747"><ele>63.0</ele><time>2026-05-05T12:36:35.267Z</time></trkpt><trkpt lat="45.7755823" lon="13.6183672"><ele>63.0</ele><time>2026-05-05T12:36:36.266Z</time></trkpt><trkpt lat="45.7756099" lon="13.6179673"><ele>63.5</ele><time>2026-05-05T12:36:37.267Z</time></trkpt><trkpt lat="45.7756334" lon="13.6175637"><ele>64.0</ele><time>2026-05-05T12:36:38.267Z</time></trkpt><trkpt lat="45.7756614" lon="13.6171621"><ele>63.5</ele><time>2026-05-05T12:36:39.267Z</time></trkpt><trkpt lat="45.7756903" lon="13.6167612"><ele>63.0</ele><time>2026-05-05T12:36:40.267Z</time></trkpt><trkpt lat="45.7757168" lon="13.61636"><ele>63.0</ele><time>2026-05-05T12:36:41.266Z</time></trkpt><trkpt lat="45.7757386" lon="13.6159625"><ele>63.0</ele><time>2026-05-05T12:36:42.267Z</time></trkpt><trkpt lat="45.775766" lon="13.6155705"><ele>62.5</ele><time>2026-05-05T12:36:43.267Z</time></trkpt><trkpt lat="45.7757915" lon="13.6151807"><ele>62.0</ele><time>2026-05-05T12:36:44.267Z</time></trkpt><trkpt lat="45.7758238" lon="13.6148046"><ele>61.5</ele><time>2026-05-05T12:36:45.267Z</time></trkpt><trkpt lat="45.7758621" lon="13.6144309"><ele>61.0</ele><time>2026-05-05T12:36:46.266Z</time></trkpt><trkpt lat="45.7759155" lon="13.6140553"><ele>61.0</ele><time>2026-05-05T12:36:47.267Z</time></trkpt><trkpt lat="45.7759763" lon="13.6136788"><ele>61.0</ele><time>2026-05-05T12:36:48.267Z</time></trkpt><trkpt lat="45.7760439" lon="13.613302"><ele>62.5</ele><time>2026-05-05T12:36:49.267Z</time></trkpt><trkpt lat="45.7761028" lon="13.612934"><ele>64.0</ele><time>2026-05-05T12:36:50.267Z</time></trkpt><trkpt lat="45.776176" lon="13.6125575"><ele>64.0</ele><time>2026-05-05T12:36:51.267Z</time></trkpt><trkpt lat="45.7762514" lon="13.6121885"><ele>64.0</ele><time>2026-05-05T12:36:52.267Z</time></trkpt><trkpt lat="45.7763299" lon="13.6118152"><ele>64.0</ele><time>2026-05-05T12:36:53.267Z</time></trkpt><trkpt lat="45.7764016" lon="13.6114537"><ele>64.0</ele><time>2026-05-05T12:36:54.267Z</time></trkpt><trkpt lat="45.7764795" lon="13.6110886"><ele>63.0</ele><time>2026-05-05T12:36:55.267Z</time></trkpt><trkpt lat="45.7765535" lon="13.6107289"><ele>62.0</ele><time>2026-05-05T12:36:56.266Z</time></trkpt><trkpt lat="45.7766249" lon="13.6103754"><ele>61.0</ele><time>2026-05-05T12:36:57.267Z</time></trkpt><trkpt lat="45.7766864" lon="13.6100108"><ele>60.0</ele><time>2026-05-05T12:36:58.266Z</time></trkpt><trkpt lat="45.7767581" lon="13.6096546"><ele>59.0</ele><time>2026-05-05T12:36:59.267Z</time></trkpt><trkpt lat="45.7768294" lon="13.6093022"><ele>58.0</ele><time>2026-05-05T12:37:00.266Z</time></trkpt><trkpt lat="45.7769005" lon="13.6089518"><ele>58.5</ele><time>2026-05-05T12:37:01.266Z</time></trkpt><trkpt lat="45.7769729" lon="13.6085971"><ele>59.0</ele><time>2026-05-05T12:37:02.267Z</time></trkpt><trkpt lat="45.777043" lon="13.6082486"><ele>59.0</ele><time>2026-05-05T12:37:03.266Z</time></trkpt><trkpt lat="45.7771164" lon="13.6078979"><ele>59.0</ele><time>2026-05-05T12:37:04.266Z</time></trkpt><trkpt lat="45.7771847" lon="13.6075463"><ele>58.0</ele><time>2026-05-05T12:37:05.267Z</time></trkpt><trkpt lat="45.7772527" lon="13.6071972"><ele>57.0</ele><time>2026-05-05T12:37:06.267Z</time></trkpt><trkpt lat="45.777318" lon="13.6068486"><ele>55.5</ele><time>2026-05-05T12:37:07.266Z</time></trkpt><trkpt lat="45.777384" lon="13.6065032"><ele>54.0</ele><time>2026-05-05T12:37:08.267Z</time></trkpt><trkpt lat="45.777453" lon="13.6061567"><ele>52.5</ele><time>2026-05-05T12:37:09.267Z</time></trkpt><trkpt lat="45.777523" lon="13.605813"><ele>51.0</ele><time>2026-05-05T12:37:10.267Z</time></trkpt><trkpt lat="45.7775931" lon="13.6054725"><ele>50.0</ele><time>2026-05-05T12:37:11.266Z</time></trkpt><trkpt lat="45.7776656" lon="13.605133"><ele>49.0</ele><time>2026-05-05T12:37:12.266Z</time></trkpt><trkpt lat="45.7777333" lon="13.6047984"><ele>50.0</ele><time>2026-05-05T12:37:13.267Z</time></trkpt><trkpt lat="45.7778002" lon="13.6044605"><ele>51.0</ele><time>2026-05-05T12:37:14.267Z</time></trkpt><trkpt lat="45.7778686" lon="13.604123"><ele>51.0</ele><time>2026-05-05T12:37:15.266Z</time></trkpt><trkpt lat="45.777941" lon="13.6037837"><ele>51.0</ele><time>2026-05-05T12:37:16.266Z</time></trkpt><trkpt lat="45.7780297" lon="13.6034465"><ele>48.5</ele><time>2026-05-05T12:37:17.267Z</time></trkpt><trkpt lat="45.7781279" lon="13.6031117"><ele>46.0</ele><time>2026-05-05T12:37:18.267Z</time></trkpt><trkpt lat="45.7782373" lon="13.6027747"><ele>43.0</ele><time>2026-05-05T12:37:19.267Z</time></trkpt><trkpt lat="45.7783538" lon="13.6024519"><ele>40.0</ele><time>2026-05-05T12:37:20.266Z</time></trkpt><trkpt lat="45.7784801" lon="13.602134"><ele>42.5</ele><time>2026-05-05T12:37:21.267Z</time></trkpt><trkpt lat="45.7786196" lon="13.6018307"><ele>45.0</ele><time>2026-05-05T12:37:22.266Z</time></trkpt><trkpt lat="45.7787697" lon="13.601533"><ele>45.0</ele><time>2026-05-05T12:37:23.267Z</time></trkpt><trkpt lat="45.7789309" lon="13.601251"><ele>45.0</ele><time>2026-05-05T12:37:24.267Z</time></trkpt><trkpt lat="45.7790942" lon="13.6009698"><ele>45.5</ele><time>2026-05-05T12:37:25.267Z</time></trkpt><trkpt lat="45.7792685" lon="13.6007088"><ele>46.0</ele><time>2026-05-05T12:37:26.266Z</time></trkpt><trkpt lat="45.7794498" lon="13.6004564"><ele>43.5</ele><time>2026-05-05T12:37:27.267Z</time></trkpt><trkpt lat="45.7796391" lon="13.600216"><ele>41.0</ele><time>2026-05-05T12:37:28.267Z</time></trkpt><trkpt lat="45.7798358" lon="13.5999926"><ele>41.0</ele><time>2026-05-05T12:37:29.267Z</time></trkpt><trkpt lat="45.7800418" lon="13.5997815"><ele>41.0</ele><time>2026-05-05T12:37:30.267Z</time></trkpt><trkpt lat="45.7802541" lon="13.5995791"><ele>40.5</ele><time>2026-05-05T12:37:31.266Z</time></trkpt><trkpt lat="45.780473" lon="13.5993892"><ele>40.0</ele><time>2026-05-05T12:37:32.267Z</time></trkpt><trkpt lat="45.7806984" lon="13.5992134"><ele>40.0</ele><time>2026-05-05T12:37:33.266Z</time></trkpt><trkpt lat="45.7809272" lon="13.5990455"><ele>40.0</ele><time>2026-05-05T12:37:34.266Z</time></trkpt><trkpt lat="45.7811629" lon="13.5988894"><ele>41.5</ele><time>2026-05-05T12:37:35.266Z</time></trkpt><trkpt lat="45.7813914" lon="13.5987292"><ele>43.0</ele><time>2026-05-05T12:37:36.266Z</time></trkpt><trkpt lat="45.781618" lon="13.5985725"><ele>39.5</ele><time>2026-05-05T12:37:37.266Z</time></trkpt><trkpt lat="45.7818493" lon="13.5984163"><ele>36.0</ele><time>2026-05-05T12:37:38.267Z</time></trkpt><trkpt lat="45.7820782" lon="13.5982593"><ele>36.0</ele><time>2026-05-05T12:37:39.266Z</time></trkpt><trkpt lat="45.7823087" lon="13.5981032"><ele>36.0</ele><time>2026-05-05T12:37:40.266Z</time></trkpt><trkpt lat="45.7825343" lon="13.597949"><ele>33.5</ele><time>2026-05-05T12:37:41.267Z</time></trkpt><trkpt lat="45.7827648" lon="13.5977882"><ele>31.0</ele><time>2026-05-05T12:37:42.266Z</time></trkpt><trkpt lat="45.7829983" lon="13.5976396"><ele>31.0</ele><time>2026-05-05T12:37:43.267Z</time></trkpt><trkpt lat="45.7832272" lon="13.5974805"><ele>31.0</ele><time>2026-05-05T12:37:44.267Z</time></trkpt><trkpt lat="45.7834658" lon="13.597319"><ele>34.0</ele><time>2026-05-05T12:37:45.267Z</time></trkpt><trkpt lat="45.7837059" lon="13.5971603"><ele>37.0</ele><time>2026-05-05T12:37:46.267Z</time></trkpt><trkpt lat="45.783944" lon="13.5970034"><ele>34.5</ele><time>2026-05-05T12:37:47.267Z</time></trkpt><trkpt lat="45.7841842" lon="13.5968386"><ele>32.0</ele><time>2026-05-05T12:37:48.267Z</time></trkpt><trkpt lat="45.7844252" lon="13.5966737"><ele>32.0</ele><time>2026-05-05T12:37:49.267Z</time></trkpt><trkpt lat="45.7846672" lon="13.5965095"><ele>32.0</ele><time>2026-05-05T12:37:50.267Z</time></trkpt><trkpt lat="45.7849076" lon="13.5963442"><ele>32.0</ele><time>2026-05-05T12:37:51.266Z</time></trkpt><trkpt lat="45.7851476" lon="13.5961825"><ele>32.0</ele><time>2026-05-05T12:37:52.267Z</time></trkpt><trkpt lat="45.785394" lon="13.5960236"><ele>31.5</ele><time>2026-05-05T12:37:53.266Z</time></trkpt><trkpt lat="45.7856285" lon="13.5958632"><ele>31.0</ele><time>2026-05-05T12:37:54.267Z</time></trkpt><trkpt lat="45.7858699" lon="13.5957015"><ele>33.0</ele><time>2026-05-05T12:37:55.267Z</time></trkpt><trkpt lat="45.7861112" lon="13.5955362"><ele>35.0</ele><time>2026-05-05T12:37:56.267Z</time></trkpt><trkpt lat="45.7863497" lon="13.5953671"><ele>31.0</ele><time>2026-05-05T12:37:57.267Z</time></trkpt><trkpt lat="45.7865893" lon="13.5951994"><ele>27.0</ele><time>2026-05-05T12:37:58.266Z</time></trkpt><trkpt lat="45.7868311" lon="13.5950396"><ele>27.5</ele><time>2026-05-05T12:37:59.266Z</time></trkpt><trkpt lat="45.7870696" lon="13.5948752"><ele>28.0</ele><time>2026-05-05T12:38:00.267Z</time></trkpt><trkpt lat="45.7873006" lon="13.5947166"><ele>28.0</ele><time>2026-05-05T12:38:01.267Z</time></trkpt><trkpt lat="45.7875345" lon="13.5945577"><ele>28.0</ele><time>2026-05-05T12:38:02.267Z</time></trkpt><trkpt lat="45.7877688" lon="13.5944064"><ele>26.0</ele><time>2026-05-05T12:38:03.267Z</time></trkpt><trkpt lat="45.787997" lon="13.5942522"><ele>24.0</ele><time>2026-05-05T12:38:04.267Z</time></trkpt><trkpt lat="45.788225" lon="13.5940931"><ele>24.0</ele><time>2026-05-05T12:38:05.266Z</time></trkpt><trkpt lat="45.7884499" lon="13.5939248"><ele>24.0</ele><time>2026-05-05T12:38:06.267Z</time></trkpt><trkpt lat="45.7886708" lon="13.5937464"><ele>24.0</ele><time>2026-05-05T12:38:07.266Z</time></trkpt><trkpt lat="45.7888861" lon="13.5935559"><ele>24.0</ele><time>2026-05-05T12:38:08.267Z</time></trkpt><trkpt lat="45.7890999" lon="13.5933696"><ele>24.0</ele><time>2026-05-05T12:38:09.266Z</time></trkpt><trkpt lat="45.7893078" lon="13.5931609"><ele>24.0</ele><time>2026-05-05T12:38:10.267Z</time></trkpt><trkpt lat="45.7895114" lon="13.5929439"><ele>22.5</ele><time>2026-05-05T12:38:11.267Z</time></trkpt><trkpt lat="45.7897122" lon="13.5927106"><ele>21.0</ele><time>2026-05-05T12:38:12.267Z</time></trkpt><trkpt lat="45.7899095" lon="13.5924593"><ele>21.0</ele><time>2026-05-05T12:38:13.267Z</time></trkpt><trkpt lat="45.7900996" lon="13.5922074"><ele>21.0</ele><time>2026-05-05T12:38:14.267Z</time></trkpt><trkpt lat="45.790285" lon="13.5919407"><ele>22.0</ele><time>2026-05-05T12:38:15.266Z</time></trkpt><trkpt lat="45.7904666" lon="13.5916651"><ele>23.0</ele><time>2026-05-05T12:38:16.266Z</time></trkpt><trkpt lat="45.7906437" lon="13.591381"><ele>20.0</ele><time>2026-05-05T12:38:17.267Z</time></trkpt><trkpt lat="45.790822" lon="13.5910981"><ele>17.0</ele><time>2026-05-05T12:38:18.266Z</time></trkpt><trkpt lat="45.7909974" lon="13.5908099"><ele>17.5</ele><time>2026-05-05T12:38:19.266Z</time></trkpt><trkpt lat="45.7911729" lon="13.5905225"><ele>18.0</ele><time>2026-05-05T12:38:20.267Z</time></trkpt><trkpt lat="45.7913452" lon="13.590244"><ele>18.0</ele><time>2026-05-05T12:38:21.266Z</time></trkpt><trkpt lat="45.7915216" lon="13.5899611"><ele>18.0</ele><time>2026-05-05T12:38:22.267Z</time></trkpt><trkpt lat="45.7916974" lon="13.5896779"><ele>17.0</ele><time>2026-05-05T12:38:23.267Z</time></trkpt><trkpt lat="45.7918775" lon="13.5894054"><ele>16.0</ele><time>2026-05-05T12:38:24.266Z</time></trkpt><trkpt lat="45.7920579" lon="13.5891374"><ele>16.0</ele><time>2026-05-05T12:38:25.267Z</time></trkpt><trkpt lat="45.7922429" lon="13.5888796"><ele>16.0</ele><time>2026-05-05T12:38:26.267Z</time></trkpt><trkpt lat="45.7924382" lon="13.5886306"><ele>17.5</ele><time>2026-05-05T12:38:27.267Z</time></trkpt><trkpt lat="45.7926408" lon="13.5883888"><ele>19.0</ele><time>2026-05-05T12:38:28.267Z</time></trkpt><trkpt lat="45.7928531" lon="13.5881564"><ele>19.0</ele><time>2026-05-05T12:38:29.266Z</time></trkpt><trkpt lat="45.7930673" lon="13.5879343"><ele>19.0</ele><time>2026-05-05T12:38:30.266Z</time></trkpt><trkpt lat="45.7932831" lon="13.5877115"><ele>22.0</ele><time>2026-05-05T12:38:31.267Z</time></trkpt><trkpt lat="45.7935126" lon="13.5875064"><ele>25.0</ele><time>2026-05-05T12:38:32.266Z</time></trkpt><trkpt lat="45.7937457" lon="13.5873082"><ele>25.0</ele><time>2026-05-05T12:38:33.267Z</time></trkpt><trkpt lat="45.7939814" lon="13.5871184"><ele>25.0</ele><time>2026-05-05T12:38:34.266Z</time></trkpt><trkpt lat="45.7942229" lon="13.5869314"><ele>26.0</ele><time>2026-05-05T12:38:35.267Z</time></trkpt><trkpt lat="45.7944664" lon="13.5867484"><ele>27.0</ele><time>2026-05-05T12:38:36.266Z</time></trkpt><trkpt lat="45.7947089" lon="13.5865703"><ele>27.0</ele><time>2026-05-05T12:38:37.267Z</time></trkpt><trkpt lat="45.7949485" lon="13.5863974"><ele>27.0</ele><time>2026-05-05T12:38:38.266Z</time></trkpt><trkpt lat="45.7951842" lon="13.5862266"><ele>20.5</ele><time>2026-05-05T12:38:39.267Z</time></trkpt><trkpt lat="45.7954234" lon="13.5860485"><ele>14.0</ele><time>2026-05-05T12:38:40.267Z</time></trkpt><trkpt lat="45.7956479" lon="13.5858849"><ele>14.0</ele><time>2026-05-05T12:38:41.267Z</time></trkpt><trkpt lat="45.79589" lon="13.5857277"><ele>14.0</ele><time>2026-05-05T12:38:42.267Z</time></trkpt><trkpt lat="45.796128" lon="13.5855561"><ele>11.0</ele><time>2026-05-05T12:38:43.266Z</time></trkpt><trkpt lat="45.7963657" lon="13.5853904"><ele>8.0</ele><time>2026-05-05T12:38:44.266Z</time></trkpt><trkpt lat="45.7966007" lon="13.5852289"><ele>5.5</ele><time>2026-05-05T12:38:45.267Z</time></trkpt><trkpt lat="45.7968383" lon="13.5850626"><ele>3.0</ele><time>2026-05-05T12:38:46.266Z</time></trkpt><trkpt lat="45.7970743" lon="13.5848966"><ele>3.0</ele><time>2026-05-05T12:38:47.267Z</time></trkpt><trkpt lat="45.7973115" lon="13.5847366"><ele>3.0</ele><time>2026-05-05T12:38:48.267Z</time></trkpt><trkpt lat="45.7975492" lon="13.5845726"><ele>3.0</ele><time>2026-05-05T12:38:49.267Z</time></trkpt><trkpt lat="45.7977886" lon="13.5844122"><ele>3.0</ele><time>2026-05-05T12:38:50.267Z</time></trkpt><trkpt lat="45.7980284" lon="13.5842578"><ele>3.0</ele><time>2026-05-05T12:38:51.267Z</time></trkpt><trkpt lat="45.7982667" lon="13.5841081"><ele>3.0</ele><time>2026-05-05T12:38:52.266Z</time></trkpt><trkpt lat="45.7985015" lon="13.5839579"><ele>1.5</ele><time>2026-05-05T12:38:53.267Z</time></trkpt><trkpt lat="45.7987372" lon="13.5838073"><ele>0.0</ele><time>2026-05-05T12:38:54.267Z</time></trkpt><trkpt lat="45.798964" lon="13.5836572"><ele>3.5</ele><time>2026-05-05T12:38:55.267Z</time></trkpt><trkpt lat="45.7991964" lon="13.5835054"><ele>7.0</ele><time>2026-05-05T12:38:56.266Z</time></trkpt><trkpt lat="45.7994236" lon="13.5833614"><ele>7.0</ele><time>2026-05-05T12:38:57.267Z</time></trkpt><trkpt lat="45.7996505" lon="13.5832207"><ele>7.0</ele><time>2026-05-05T12:38:58.266Z</time></trkpt><trkpt lat="45.7998735" lon="13.583075"><ele>7.0</ele><time>2026-05-05T12:38:59.267Z</time></trkpt><trkpt lat="45.8000881" lon="13.5829346"><ele>7.0</ele><time>2026-05-05T12:39:00.267Z</time></trkpt><trkpt lat="45.8003041" lon="13.5827921"><ele>10.0</ele><time>2026-05-05T12:39:01.266Z</time></trkpt><trkpt lat="45.800525" lon="13.5826557"><ele>13.0</ele><time>2026-05-05T12:39:02.267Z</time></trkpt><trkpt lat="45.8007435" lon="13.5825205"><ele>13.0</ele><time>2026-05-05T12:39:03.267Z</time></trkpt><trkpt lat="45.8009572" lon="13.5823836"><ele>13.0</ele><time>2026-05-05T12:39:04.266Z</time></trkpt><trkpt lat="45.8011748" lon="13.5822399"><ele>15.0</ele><time>2026-05-05T12:39:05.266Z</time></trkpt><trkpt lat="45.8013888" lon="13.582094"><ele>17.0</ele><time>2026-05-05T12:39:06.267Z</time></trkpt><trkpt lat="45.8015943" lon="13.5819378"><ele>17.0</ele><time>2026-05-05T12:39:07.267Z</time></trkpt><trkpt lat="45.8017991" lon="13.5817768"><ele>17.0</ele><time>2026-05-05T12:39:08.267Z</time></trkpt><trkpt lat="45.8019893" lon="13.5816126"><ele>13.0</ele><time>2026-05-05T12:39:09.267Z</time></trkpt><trkpt lat="45.8021872" lon="13.5814386"><ele>9.0</ele><time>2026-05-05T12:39:10.267Z</time></trkpt><trkpt lat="45.8023792" lon="13.5812699"><ele>11.0</ele><time>2026-05-05T12:39:11.267Z</time></trkpt><trkpt lat="45.8025631" lon="13.5811023"><ele>13.0</ele><time>2026-05-05T12:39:12.266Z</time></trkpt><trkpt lat="45.8027304" lon="13.5809313"><ele>15.0</ele><time>2026-05-05T12:39:13.267Z</time></trkpt><trkpt lat="45.8028849" lon="13.5807654"><ele>15.0</ele><time>2026-05-05T12:39:14.267Z</time></trkpt><trkpt lat="45.8030314" lon="13.5806011"><ele>15.0</ele><time>2026-05-05T12:39:15.267Z</time></trkpt><trkpt lat="45.8031692" lon="13.5804469"><ele>15.0</ele><time>2026-05-05T12:39:16.266Z</time></trkpt><trkpt lat="45.8032915" lon="13.5802958"><ele>15.25</ele><time>2026-05-05T12:39:17.267Z</time></trkpt><trkpt lat="45.8034136" lon="13.5801529"><ele>15.5</ele><time>2026-05-05T12:39:18.267Z</time></trkpt><trkpt lat="45.803521" lon="13.5800149"><ele>15.75</ele><time>2026-05-05T12:39:19.267Z</time></trkpt><trkpt lat="45.8036298" lon="13.5798743"><ele>16.0</ele><time>2026-05-05T12:39:20.267Z</time></trkpt><trkpt lat="45.8037078" lon="13.5797642"><ele>15.8</ele><time>2026-05-05T12:39:21.266Z</time></trkpt><trkpt lat="45.8037951" lon="13.5796414"><ele>15.600000000000001</ele><time>2026-05-05T12:39:22.267Z</time></trkpt><trkpt lat="45.8038844" lon="13.5795365"><ele>15.4</ele><time>2026-05-05T12:39:23.267Z</time></trkpt><trkpt lat="45.8039423" lon="13.5794366"><ele>15.2</ele><time>2026-05-05T12:39:24.267Z</time></trkpt><trkpt lat="45.8040147" lon="13.5793532"><ele>15.0</ele><time>2026-05-05T12:39:25.267Z</time></trkpt><trkpt lat="45.8040822" lon="13.5792624"><ele>15.0</ele><time>2026-05-05T12:39:26.267Z</time></trkpt><trkpt lat="45.804144" lon="13.5791841"><ele>15.0</ele><time>2026-05-05T12:39:27.267Z</time></trkpt><trkpt lat="45.8042086" lon="13.5791041"><ele>15.0</ele><time>2026-05-05T12:39:28.266Z</time></trkpt><trkpt lat="45.8042837" lon="13.5790225"><ele>15.0</ele><time>2026-05-05T12:39:29.266Z</time></trkpt><trkpt lat="45.8043628" lon="13.5789554"><ele>15.0</ele><time>2026-05-05T12:39:30.267Z</time></trkpt><trkpt lat="45.8044361" lon="13.5788917"><ele>15.0</ele><time>2026-05-05T12:39:31.267Z</time></trkpt><trkpt lat="45.80451" lon="13.5788414"><ele>15.714285714285715</ele><time>2026-05-05T12:39:32.267Z</time></trkpt><trkpt lat="45.8045833" lon="13.5787949"><ele>16.428571428571427</ele><time>2026-05-05T12:39:33.266Z</time></trkpt><trkpt lat="45.8046586" lon="13.5787581"><ele>17.142857142857142</ele><time>2026-05-05T12:39:34.267Z</time></trkpt><trkpt lat="45.8047234" lon="13.578718"><ele>17.857142857142858</ele><time>2026-05-05T12:39:35.267Z</time></trkpt><trkpt lat="45.8047814" lon="13.5786807"><ele>18.571428571428573</ele><time>2026-05-05T12:39:36.266Z</time></trkpt><trkpt lat="45.8048406" lon="13.5786403"><ele>19.285714285714285</ele><time>2026-05-05T12:39:37.266Z</time></trkpt><trkpt lat="45.8048975" lon="13.5785969"><ele>20.0</ele><time>2026-05-05T12:39:38.266Z</time></trkpt><trkpt lat="45.8049949" lon="13.5785154"><ele>19.333333333333336</ele><time>2026-05-05T12:39:40.266Z</time></trkpt><trkpt lat="45.8050777" lon="13.5784205"><ele>18.666666666666668</ele><time>2026-05-05T12:39:42.267Z</time></trkpt><trkpt lat="45.8051359" lon="13.5783525"><ele>18.0</ele><time>2026-05-05T12:39:44.267Z</time></trkpt><trkpt lat="45.8051893" lon="13.5782761"><ele>17.333333333333332</ele><time>2026-05-05T12:39:46.267Z</time></trkpt><trkpt lat="45.8052467" lon="13.5781903"><ele>16.666666666666664</ele><time>2026-05-05T12:39:48.267Z</time></trkpt><trkpt lat="45.805295" lon="13.5780512"><ele>16.0</ele><time>2026-05-05T12:39:50.266Z</time></trkpt><trkpt lat="45.8053235" lon="13.5779594"><ele>16.0</ele><time>2026-05-05T12:39:51.266Z</time></trkpt><trkpt lat="45.8053509" lon="13.5778674"><ele>16.0</ele><time>2026-05-05T12:39:52.266Z</time></trkpt><trkpt lat="45.8053814" lon="13.5776989"><ele>16.0</ele><time>2026-05-05T12:39:54.266Z</time></trkpt><trkpt lat="45.8054299" lon="13.5775526"><ele>16.0</ele><time>2026-05-05T12:39:56.267Z</time></trkpt><trkpt lat="45.8054714" lon="13.5774453"><ele>16.0</ele><time>2026-05-05T12:39:58.267Z</time></trkpt><trkpt lat="45.8055143" lon="13.5773745"><ele>15.0</ele><time>2026-05-05T12:40:00.267Z</time></trkpt><trkpt lat="45.8055627" lon="13.5772832"><ele>14.000000000000002</ele><time>2026-05-05T12:40:20.267Z</time></trkpt><trkpt lat="45.8056185" lon="13.5771792"><ele>13.0</ele><time>2026-05-05T12:40:22.267Z</time></trkpt><trkpt lat="45.8057083" lon="13.5770463"><ele>12.0</ele><time>2026-05-05T12:40:24.266Z</time></trkpt><trkpt lat="45.8057711" lon="13.57697"><ele>11.0</ele><time>2026-05-05T12:40:25.266Z</time></trkpt><trkpt lat="45.8058468" lon="13.5768686"><ele>10.0</ele><time>2026-05-05T12:40:26.266Z</time></trkpt><trkpt lat="45.8059345" lon="13.5767586"><ele>9.0</ele><time>2026-05-05T12:40:27.267Z</time></trkpt><trkpt lat="45.806026" lon="13.5766457"><ele>8.0</ele><time>2026-05-05T12:40:28.266Z</time></trkpt><trkpt lat="45.8061233" lon="13.5765317"><ele>7.0</ele><time>2026-05-05T12:40:29.267Z</time></trkpt><trkpt lat="45.8062275" lon="13.5764001"><ele>8.333333333333334</ele><time>2026-05-05T12:40:30.267Z</time></trkpt><trkpt lat="45.8063459" lon="13.5762558"><ele>9.666666666666666</ele><time>2026-05-05T12:40:31.267Z</time></trkpt><trkpt lat="45.8064787" lon="13.576088"><ele>11.0</ele><time>2026-05-05T12:40:32.266Z</time></trkpt><trkpt lat="45.806641" lon="13.5758731"><ele>11.0</ele><time>2026-05-05T12:40:33.267Z</time></trkpt><trkpt lat="45.8068103" lon="13.5756593"><ele>11.0</ele><time>2026-05-05T12:40:34.267Z</time></trkpt><trkpt lat="45.8069834" lon="13.5754162"><ele>11.0</ele><time>2026-05-05T12:40:35.266Z</time></trkpt><trkpt lat="45.8071589" lon="13.5751578"><ele>11.0</ele><time>2026-05-05T12:40:36.267Z</time></trkpt><trkpt lat="45.8073327" lon="13.5748843"><ele>11.0</ele><time>2026-05-05T12:40:37.267Z</time></trkpt><trkpt lat="45.8075024" lon="13.5746037"><ele>11.0</ele><time>2026-05-05T12:40:38.266Z</time></trkpt><trkpt lat="45.8076614" lon="13.5743067"><ele>14.0</ele><time>2026-05-05T12:40:39.267Z</time></trkpt><trkpt lat="45.8078176" lon="13.5739972"><ele>17.0</ele><time>2026-05-05T12:40:40.267Z</time></trkpt><trkpt lat="45.8079655" lon="13.5736789"><ele>17.0</ele><time>2026-05-05T12:40:41.267Z</time></trkpt><trkpt lat="45.8080971" lon="13.5733575"><ele>17.0</ele><time>2026-05-05T12:40:42.267Z</time></trkpt><trkpt lat="45.8082182" lon="13.5730199"><ele>13.5</ele><time>2026-05-05T12:40:43.266Z</time></trkpt><trkpt lat="45.8083418" lon="13.5726737"><ele>10.0</ele><time>2026-05-05T12:40:44.266Z</time></trkpt><trkpt lat="45.8084495" lon="13.5723127"><ele>18.5</ele><time>2026-05-05T12:40:45.267Z</time></trkpt><trkpt lat="45.8085464" lon="13.571943"><ele>27.0</ele><time>2026-05-05T12:40:46.267Z</time></trkpt><trkpt lat="45.8086359" lon="13.571566"><ele>26.5</ele><time>2026-05-05T12:40:47.267Z</time></trkpt><trkpt lat="45.808715" lon="13.5711768"><ele>26.0</ele><time>2026-05-05T12:40:48.267Z</time></trkpt><trkpt lat="45.8087872" lon="13.5707764"><ele>26.0</ele><time>2026-05-05T12:40:49.267Z</time></trkpt><trkpt lat="45.8088588" lon="13.570375"><ele>26.0</ele><time>2026-05-05T12:40:50.267Z</time></trkpt><trkpt lat="45.8089292" lon="13.5699665"><ele>25.0</ele><time>2026-05-05T12:40:51.267Z</time></trkpt><trkpt lat="45.809003" lon="13.5695613"><ele>24.0</ele><time>2026-05-05T12:40:52.266Z</time></trkpt><trkpt lat="45.8090761" lon="13.5691522"><ele>19.5</ele><time>2026-05-05T12:40:53.266Z</time></trkpt><trkpt lat="45.8091451" lon="13.5687519"><ele>15.0</ele><time>2026-05-05T12:40:54.266Z</time></trkpt><trkpt lat="45.8092108" lon="13.5683441"><ele>12.5</ele><time>2026-05-05T12:40:55.267Z</time></trkpt><trkpt lat="45.8092816" lon="13.5679423"><ele>10.0</ele><time>2026-05-05T12:40:56.266Z</time></trkpt><trkpt lat="45.8093482" lon="13.5675406"><ele>15.5</ele><time>2026-05-05T12:40:57.266Z</time></trkpt><trkpt lat="45.8094238" lon="13.5671448"><ele>21.0</ele><time>2026-05-05T12:40:58.266Z</time></trkpt><trkpt lat="45.8095032" lon="13.5667544"><ele>21.0</ele><time>2026-05-05T12:40:59.267Z</time></trkpt><trkpt lat="45.8095973" lon="13.5663731"><ele>21.0</ele><time>2026-05-05T12:41:00.266Z</time></trkpt><trkpt lat="45.8096977" lon="13.565994"><ele>19.0</ele><time>2026-05-05T12:41:01.267Z</time></trkpt><trkpt lat="45.809807" lon="13.5656246"><ele>17.0</ele><time>2026-05-05T12:41:02.267Z</time></trkpt><trkpt lat="45.8099237" lon="13.5652675"><ele>14.5</ele><time>2026-05-05T12:41:03.267Z</time></trkpt><trkpt lat="45.8100478" lon="13.5649161"><ele>12.0</ele><time>2026-05-05T12:41:04.267Z</time></trkpt><trkpt lat="45.8101749" lon="13.5645745"><ele>17.5</ele><time>2026-05-05T12:41:05.267Z</time></trkpt><trkpt lat="45.8103202" lon="13.5642548"><ele>23.0</ele><time>2026-05-05T12:41:06.266Z</time></trkpt><trkpt lat="45.8104665" lon="13.5639412"><ele>15.5</ele><time>2026-05-05T12:41:07.267Z</time></trkpt><trkpt lat="45.810617" lon="13.5636305"><ele>8.0</ele><time>2026-05-05T12:41:08.266Z</time></trkpt><trkpt lat="45.8107793" lon="13.5633347"><ele>8.0</ele><time>2026-05-05T12:41:09.267Z</time></trkpt><trkpt lat="45.8109522" lon="13.5630528"><ele>8.0</ele><time>2026-05-05T12:41:10.267Z</time></trkpt><trkpt lat="45.8111331" lon="13.5627716"><ele>8.5</ele><time>2026-05-05T12:41:11.267Z</time></trkpt><trkpt lat="45.8113148" lon="13.5624945"><ele>9.0</ele><time>2026-05-05T12:41:12.266Z</time></trkpt><trkpt lat="45.8115165" lon="13.5622339"><ele>8.5</ele><time>2026-05-05T12:41:13.267Z</time></trkpt><trkpt lat="45.8117245" lon="13.5619746"><ele>8.0</ele><time>2026-05-05T12:41:14.267Z</time></trkpt><trkpt lat="45.8119368" lon="13.5617196"><ele>9.5</ele><time>2026-05-05T12:41:15.266Z</time></trkpt><trkpt lat="45.8121553" lon="13.5614677"><ele>11.0</ele><time>2026-05-05T12:41:16.266Z</time></trkpt><trkpt lat="45.8123727" lon="13.5612111"><ele>14.0</ele><time>2026-05-05T12:41:17.267Z</time></trkpt><trkpt lat="45.812595" lon="13.5609637"><ele>17.0</ele><time>2026-05-05T12:41:18.266Z</time></trkpt><trkpt lat="45.8128156" lon="13.5607188"><ele>19.0</ele><time>2026-05-05T12:41:19.267Z</time></trkpt><trkpt lat="45.8130278" lon="13.5604783"><ele>21.0</ele><time>2026-05-05T12:41:20.266Z</time></trkpt><trkpt lat="45.8132376" lon="13.5602408"><ele>21.0</ele><time>2026-05-05T12:41:21.266Z</time></trkpt><trkpt lat="45.8134445" lon="13.5600018"><ele>21.0</ele><time>2026-05-05T12:41:22.267Z</time></trkpt><trkpt lat="45.8136456" lon="13.5597628"><ele>19.0</ele><time>2026-05-05T12:41:23.267Z</time></trkpt><trkpt lat="45.8138362" lon="13.5595286"><ele>17.0</ele><time>2026-05-05T12:41:24.267Z</time></trkpt><trkpt lat="45.8140302" lon="13.5592882"><ele>17.0</ele><time>2026-05-05T12:41:25.267Z</time></trkpt><trkpt lat="45.814214" lon="13.5590414"><ele>17.0</ele><time>2026-05-05T12:41:26.266Z</time></trkpt><trkpt lat="45.8143917" lon="13.5587868"><ele>13.5</ele><time>2026-05-05T12:41:27.267Z</time></trkpt><trkpt lat="45.8145601" lon="13.5585219"><ele>10.0</ele><time>2026-05-05T12:41:28.266Z</time></trkpt><trkpt lat="45.8147185" lon="13.5582457"><ele>10.0</ele><time>2026-05-05T12:41:29.267Z</time></trkpt><trkpt lat="45.8148639" lon="13.5579529"><ele>10.0</ele><time>2026-05-05T12:41:30.266Z</time></trkpt><trkpt lat="45.8150037" lon="13.557651"><ele>7.5</ele><time>2026-05-05T12:41:31.266Z</time></trkpt><trkpt lat="45.8151346" lon="13.5573421"><ele>5.0</ele><time>2026-05-05T12:41:32.266Z</time></trkpt><trkpt lat="45.8152608" lon="13.5570315"><ele>5.0</ele><time>2026-05-05T12:41:33.266Z</time></trkpt><trkpt lat="45.8153749" lon="13.5567056"><ele>5.0</ele><time>2026-05-05T12:41:34.266Z</time></trkpt><trkpt lat="45.8154705" lon="13.5563711"><ele>6.0</ele><time>2026-05-05T12:41:35.267Z</time></trkpt><trkpt lat="45.8155693" lon="13.5560335"><ele>7.0</ele><time>2026-05-05T12:41:36.267Z</time></trkpt><trkpt lat="45.815643" lon="13.555688"><ele>9.5</ele><time>2026-05-05T12:41:37.266Z</time></trkpt><trkpt lat="45.8157021" lon="13.5553476"><ele>12.0</ele><time>2026-05-05T12:41:38.267Z</time></trkpt><trkpt lat="45.8157563" lon="13.5549955"><ele>12.0</ele><time>2026-05-05T12:41:39.266Z</time></trkpt><trkpt lat="45.8157978" lon="13.5546449"><ele>12.0</ele><time>2026-05-05T12:41:40.267Z</time></trkpt><trkpt lat="45.8158265" lon="13.5542884"><ele>12.0</ele><time>2026-05-05T12:41:41.267Z</time></trkpt><trkpt lat="45.8158449" lon="13.5539287"><ele>12.0</ele><time>2026-05-05T12:41:42.266Z</time></trkpt><trkpt lat="45.8158503" lon="13.5535651"><ele>12.0</ele><time>2026-05-05T12:41:43.267Z</time></trkpt><trkpt lat="45.8158493" lon="13.553197"><ele>12.0</ele><time>2026-05-05T12:41:44.266Z</time></trkpt><trkpt lat="45.8158356" lon="13.5528287"><ele>11.5</ele><time>2026-05-05T12:41:45.267Z</time></trkpt><trkpt lat="45.815817" lon="13.5524617"><ele>11.0</ele><time>2026-05-05T12:41:46.267Z</time></trkpt><trkpt lat="45.8157913" lon="13.5520902"><ele>9.5</ele><time>2026-05-05T12:41:47.267Z</time></trkpt><trkpt lat="45.8157604" lon="13.5517182"><ele>8.0</ele><time>2026-05-05T12:41:48.266Z</time></trkpt><trkpt lat="45.8157276" lon="13.5513361"><ele>10.0</ele><time>2026-05-05T12:41:49.266Z</time></trkpt><trkpt lat="45.8156966" lon="13.5509544"><ele>12.0</ele><time>2026-05-05T12:41:50.266Z</time></trkpt><trkpt lat="45.8156703" lon="13.5505757"><ele>12.0</ele><time>2026-05-05T12:41:51.266Z</time></trkpt><trkpt lat="45.8156558" lon="13.5501827"><ele>12.0</ele><time>2026-05-05T12:41:52.267Z</time></trkpt><trkpt lat="45.8156495" lon="13.5497934"><ele>12.0</ele><time>2026-05-05T12:41:53.267Z</time></trkpt><trkpt lat="45.8156491" lon="13.5494039"><ele>12.0</ele><time>2026-05-05T12:41:54.267Z</time></trkpt><trkpt lat="45.8156531" lon="13.5490163"><ele>10.5</ele><time>2026-05-05T12:41:55.266Z</time></trkpt><trkpt lat="45.8156639" lon="13.5486276"><ele>9.0</ele><time>2026-05-05T12:41:56.267Z</time></trkpt><trkpt lat="45.8156881" lon="13.548249"><ele>10.5</ele><time>2026-05-05T12:41:57.267Z</time></trkpt><trkpt lat="45.8157194" lon="13.5478679"><ele>12.0</ele><time>2026-05-05T12:41:58.267Z</time></trkpt><trkpt lat="45.8157572" lon="13.5474907"><ele>12.0</ele><time>2026-05-05T12:41:59.267Z</time></trkpt><trkpt lat="45.8157934" lon="13.5471196"><ele>12.0</ele><time>2026-05-05T12:42:00.267Z</time></trkpt><trkpt lat="45.8158366" lon="13.5467472"><ele>13.0</ele><time>2026-05-05T12:42:01.267Z</time></trkpt><trkpt lat="45.8158807" lon="13.546382"><ele>14.0</ele><time>2026-05-05T12:42:02.267Z</time></trkpt><trkpt lat="45.815931" lon="13.5460176"><ele>14.0</ele><time>2026-05-05T12:42:03.266Z</time></trkpt><trkpt lat="45.8159879" lon="13.5456589"><ele>14.0</ele><time>2026-05-05T12:42:04.267Z</time></trkpt><trkpt lat="45.8160525" lon="13.5452989"><ele>14.0</ele><time>2026-05-05T12:42:05.267Z</time></trkpt><trkpt lat="45.816119" lon="13.5449483"><ele>14.0</ele><time>2026-05-05T12:42:06.267Z</time></trkpt><trkpt lat="45.8161947" lon="13.5446018"><ele>14.5</ele><time>2026-05-05T12:42:07.266Z</time></trkpt><trkpt lat="45.8162732" lon="13.5442564"><ele>15.0</ele><time>2026-05-05T12:42:08.267Z</time></trkpt><trkpt lat="45.8163567" lon="13.5439207"><ele>15.5</ele><time>2026-05-05T12:42:09.267Z</time></trkpt><trkpt lat="45.8164424" lon="13.543588"><ele>16.0</ele><time>2026-05-05T12:42:10.267Z</time></trkpt><trkpt lat="45.8165315" lon="13.5432664"><ele>16.0</ele><time>2026-05-05T12:42:11.267Z</time></trkpt><trkpt lat="45.8166249" lon="13.5429512"><ele>16.0</ele><time>2026-05-05T12:42:12.266Z</time></trkpt><trkpt lat="45.8167234" lon="13.5426388"><ele>21.0</ele><time>2026-05-05T12:42:13.267Z</time></trkpt><trkpt lat="45.8168246" lon="13.5423353"><ele>26.0</ele><time>2026-05-05T12:42:14.266Z</time></trkpt><trkpt lat="45.8169287" lon="13.5420366"><ele>26.0</ele><time>2026-05-05T12:42:15.267Z</time></trkpt><trkpt lat="45.8170303" lon="13.5417389"><ele>26.0</ele><time>2026-05-05T12:42:16.267Z</time></trkpt><trkpt lat="45.8171294" lon="13.5414399"><ele>24.5</ele><time>2026-05-05T12:42:17.266Z</time></trkpt><trkpt lat="45.817226" lon="13.5411409"><ele>23.0</ele><time>2026-05-05T12:42:18.267Z</time></trkpt><trkpt lat="45.8173225" lon="13.5408469"><ele>23.0</ele><time>2026-05-05T12:42:19.266Z</time></trkpt><trkpt lat="45.8174164" lon="13.5405473"><ele>23.0</ele><time>2026-05-05T12:42:20.266Z</time></trkpt><trkpt lat="45.8175113" lon="13.540252"><ele>20.5</ele><time>2026-05-05T12:42:21.266Z</time></trkpt><trkpt lat="45.8176043" lon="13.5399493"><ele>18.0</ele><time>2026-05-05T12:42:22.267Z</time></trkpt><trkpt lat="45.8177012" lon="13.5396449"><ele>26.0</ele><time>2026-05-05T12:42:23.266Z</time></trkpt><trkpt lat="45.8177987" lon="13.5393432"><ele>34.0</ele><time>2026-05-05T12:42:24.267Z</time></trkpt><trkpt lat="45.8178955" lon="13.5390385"><ele>34.0</ele><time>2026-05-05T12:42:25.267Z</time></trkpt><trkpt lat="45.8179959" lon="13.5387362"><ele>34.0</ele><time>2026-05-05T12:42:26.266Z</time></trkpt><trkpt lat="45.8180945" lon="13.5384236"><ele>30.0</ele><time>2026-05-05T12:42:27.266Z</time></trkpt><trkpt lat="45.8181935" lon="13.5381253"><ele>26.0</ele><time>2026-05-05T12:42:28.267Z</time></trkpt><trkpt lat="45.8182928" lon="13.5378216"><ele>23.5</ele><time>2026-05-05T12:42:29.266Z</time></trkpt><trkpt lat="45.8183922" lon="13.5375155"><ele>21.0</ele><time>2026-05-05T12:42:30.266Z</time></trkpt><trkpt lat="45.8184927" lon="13.5372159"><ele>25.5</ele><time>2026-05-05T12:42:31.267Z</time></trkpt><trkpt lat="45.8185938" lon="13.5369131"><ele>30.0</ele><time>2026-05-05T12:42:32.267Z</time></trkpt><trkpt lat="45.8186975" lon="13.5366063"><ele>30.0</ele><time>2026-05-05T12:42:33.266Z</time></trkpt><trkpt lat="45.8188" lon="13.5362991"><ele>30.0</ele><time>2026-05-05T12:42:34.267Z</time></trkpt><trkpt lat="45.8189007" lon="13.5359927"><ele>26.5</ele><time>2026-05-05T12:42:35.266Z</time></trkpt><trkpt lat="45.8190036" lon="13.5356816"><ele>23.0</ele><time>2026-05-05T12:42:36.267Z</time></trkpt><trkpt lat="45.8191037" lon="13.5353662"><ele>18.5</ele><time>2026-05-05T12:42:37.267Z</time></trkpt><trkpt lat="45.8192025" lon="13.5350507"><ele>14.0</ele><time>2026-05-05T12:42:38.266Z</time></trkpt><trkpt lat="45.8193084" lon="13.5347413"><ele>19.5</ele><time>2026-05-05T12:42:39.266Z</time></trkpt><trkpt lat="45.8194102" lon="13.5344275"><ele>25.0</ele><time>2026-05-05T12:42:40.267Z</time></trkpt><trkpt lat="45.8195161" lon="13.5341164"><ele>25.0</ele><time>2026-05-05T12:42:41.266Z</time></trkpt><trkpt lat="45.8196272" lon="13.5338011"><ele>25.0</ele><time>2026-05-05T12:42:42.267Z</time></trkpt><trkpt lat="45.8197443" lon="13.5334877"><ele>21.5</ele><time>2026-05-05T12:42:43.267Z</time></trkpt><trkpt lat="45.8198615" lon="13.5331796"><ele>18.0</ele><time>2026-05-05T12:42:44.267Z</time></trkpt><trkpt lat="45.8199923" lon="13.5328758"><ele>16.5</ele><time>2026-05-05T12:42:45.266Z</time></trkpt><trkpt lat="45.8201251" lon="13.5325771"><ele>15.0</ele><time>2026-05-05T12:42:46.267Z</time></trkpt><trkpt lat="45.820261" lon="13.5322626"><ele>20.5</ele><time>2026-05-05T12:42:47.267Z</time></trkpt><trkpt lat="45.8203981" lon="13.5319484"><ele>26.0</ele><time>2026-05-05T12:42:48.266Z</time></trkpt><trkpt lat="45.8205381" lon="13.5316367"><ele>26.0</ele><time>2026-05-05T12:42:49.266Z</time></trkpt><trkpt lat="45.8206873" lon="13.5313229"><ele>26.0</ele><time>2026-05-05T12:42:50.267Z</time></trkpt><trkpt lat="45.8208315" lon="13.5310116"><ele>31.0</ele><time>2026-05-05T12:42:51.267Z</time></trkpt><trkpt lat="45.8209869" lon="13.5306996"><ele>36.0</ele><time>2026-05-05T12:42:52.267Z</time></trkpt><trkpt lat="45.8211391" lon="13.5303934"><ele>31.5</ele><time>2026-05-05T12:42:53.267Z</time></trkpt><trkpt lat="45.8212963" lon="13.5300891"><ele>27.0</ele><time>2026-05-05T12:42:54.267Z</time></trkpt><trkpt lat="45.8214581" lon="13.529796"><ele>22.0</ele><time>2026-05-05T12:42:55.266Z</time></trkpt><trkpt lat="45.8216225" lon="13.5295121"><ele>17.0</ele><time>2026-05-05T12:42:56.266Z</time></trkpt><trkpt lat="45.8217883" lon="13.5292342"><ele>21.0</ele><time>2026-05-05T12:42:57.267Z</time></trkpt><trkpt lat="45.8219553" lon="13.5289679"><ele>25.0</ele><time>2026-05-05T12:42:58.267Z</time></trkpt><trkpt lat="45.8221198" lon="13.5287029"><ele>25.0</ele><time>2026-05-05T12:42:59.266Z</time></trkpt><trkpt lat="45.8222905" lon="13.5284403"><ele>25.0</ele><time>2026-05-05T12:43:00.267Z</time></trkpt><trkpt lat="45.8224602" lon="13.5281882"><ele>25.0</ele><time>2026-05-05T12:43:01.267Z</time></trkpt><trkpt lat="45.8226342" lon="13.5279364"><ele>25.0</ele><time>2026-05-05T12:43:02.266Z</time></trkpt><trkpt lat="45.8228094" lon="13.5276822"><ele>31.5</ele><time>2026-05-05T12:43:03.267Z</time></trkpt><trkpt lat="45.8229791" lon="13.5274287"><ele>38.0</ele><time>2026-05-05T12:43:04.267Z</time></trkpt><trkpt lat="45.8231499" lon="13.5271769"><ele>43.5</ele><time>2026-05-05T12:43:05.266Z</time></trkpt><trkpt lat="45.8233248" lon="13.5269353"><ele>49.0</ele><time>2026-05-05T12:43:06.267Z</time></trkpt><trkpt lat="45.8235049" lon="13.5266978"><ele>49.0</ele><time>2026-05-05T12:43:07.267Z</time></trkpt><trkpt lat="45.823685" lon="13.5264622"><ele>49.0</ele><time>2026-05-05T12:43:08.267Z</time></trkpt><trkpt lat="45.823868" lon="13.5262347"><ele>40.0</ele><time>2026-05-05T12:43:09.267Z</time></trkpt><trkpt lat="45.8240543" lon="13.5260136"><ele>31.0</ele><time>2026-05-05T12:43:10.267Z</time></trkpt><trkpt lat="45.8242395" lon="13.525796"><ele>32.0</ele><time>2026-05-05T12:43:11.267Z</time></trkpt><trkpt lat="45.8244281" lon="13.5255823"><ele>33.0</ele><time>2026-05-05T12:43:12.267Z</time></trkpt><trkpt lat="45.82462" lon="13.5253658"><ele>33.0</ele><time>2026-05-05T12:43:13.266Z</time></trkpt><trkpt lat="45.8248102" lon="13.5251576"><ele>33.0</ele><time>2026-05-05T12:43:14.267Z</time></trkpt><trkpt lat="45.8250036" lon="13.5249526"><ele>32.5</ele><time>2026-05-05T12:43:15.267Z</time></trkpt><trkpt lat="45.8251953" lon="13.5247505"><ele>32.0</ele><time>2026-05-05T12:43:16.267Z</time></trkpt><trkpt lat="45.8253868" lon="13.5245501"><ele>32.0</ele><time>2026-05-05T12:43:17.267Z</time></trkpt><trkpt lat="45.8255786" lon="13.5243442"><ele>32.0</ele><time>2026-05-05T12:43:18.267Z</time></trkpt><trkpt lat="45.8257639" lon="13.5241393"><ele>32.0</ele><time>2026-05-05T12:43:19.266Z</time></trkpt><trkpt lat="45.8259411" lon="13.5239244"><ele>32.0</ele><time>2026-05-05T12:43:20.267Z</time></trkpt><trkpt lat="45.8261224" lon="13.5237041"><ele>31.5</ele><time>2026-05-05T12:43:21.267Z</time></trkpt><trkpt lat="45.8263027" lon="13.523477"><ele>31.0</ele><time>2026-05-05T12:43:22.266Z</time></trkpt><trkpt lat="45.8264823" lon="13.5232469"><ele>31.0</ele><time>2026-05-05T12:43:23.267Z</time></trkpt><trkpt lat="45.8266582" lon="13.5230113"><ele>31.0</ele><time>2026-05-05T12:43:24.267Z</time></trkpt><trkpt lat="45.8268316" lon="13.5227697"><ele>36.5</ele><time>2026-05-05T12:43:25.267Z</time></trkpt><trkpt lat="45.8270008" lon="13.5225283"><ele>42.0</ele><time>2026-05-05T12:43:26.266Z</time></trkpt><trkpt lat="45.8271641" lon="13.5222758"><ele>35.5</ele><time>2026-05-05T12:43:27.267Z</time></trkpt><trkpt lat="45.8273206" lon="13.5220238"><ele>29.0</ele><time>2026-05-05T12:43:28.266Z</time></trkpt><trkpt lat="45.8274728" lon="13.5217751"><ele>29.0</ele><time>2026-05-05T12:43:29.267Z</time></trkpt><trkpt lat="45.827612" lon="13.5215324"><ele>29.0</ele><time>2026-05-05T12:43:30.267Z</time></trkpt><trkpt lat="45.8277478" lon="13.521279"><ele>29.0</ele><time>2026-05-05T12:43:31.266Z</time></trkpt><trkpt lat="45.8278864" lon="13.5210245"><ele>34.5</ele><time>2026-05-05T12:43:32.267Z</time></trkpt><trkpt lat="45.8280259" lon="13.5207711"><ele>40.0</ele><time>2026-05-05T12:43:33.266Z</time></trkpt><trkpt lat="45.8281681" lon="13.5205147"><ele>32.5</ele><time>2026-05-05T12:43:34.267Z</time></trkpt><trkpt lat="45.8283085" lon="13.5202576"><ele>25.0</ele><time>2026-05-05T12:43:35.267Z</time></trkpt><trkpt lat="45.8284482" lon="13.5200023"><ele>29.0</ele><time>2026-05-05T12:43:36.266Z</time></trkpt><trkpt lat="45.828588" lon="13.5197431"><ele>33.0</ele><time>2026-05-05T12:43:37.266Z</time></trkpt><trkpt lat="45.8287248" lon="13.5194833"><ele>33.0</ele><time>2026-05-05T12:43:38.266Z</time></trkpt><trkpt lat="45.8288732" lon="13.519229"><ele>33.0</ele><time>2026-05-05T12:43:39.267Z</time></trkpt><trkpt lat="45.8290271" lon="13.5189766"><ele>33.0</ele><time>2026-05-05T12:43:40.267Z</time></trkpt><trkpt lat="45.8291862" lon="13.5187314"><ele>33.0</ele><time>2026-05-05T12:43:41.266Z</time></trkpt><trkpt lat="45.829344" lon="13.5184854"><ele>33.0</ele><time>2026-05-05T12:43:42.267Z</time></trkpt><trkpt lat="45.8295051" lon="13.5182416"><ele>33.0</ele><time>2026-05-05T12:43:43.267Z</time></trkpt><trkpt lat="45.8296682" lon="13.5179993"><ele>27.5</ele><time>2026-05-05T12:43:44.267Z</time></trkpt><trkpt lat="45.8298459" lon="13.5177679"><ele>22.0</ele><time>2026-05-05T12:43:45.266Z</time></trkpt><trkpt lat="45.8300257" lon="13.5175394"><ele>29.5</ele><time>2026-05-05T12:43:46.266Z</time></trkpt><trkpt lat="45.8302104" lon="13.5173153"><ele>37.0</ele><time>2026-05-05T12:43:47.266Z</time></trkpt><trkpt lat="45.8303979" lon="13.5170996"><ele>30.0</ele><time>2026-05-05T12:43:48.267Z</time></trkpt><trkpt lat="45.830588" lon="13.5168923"><ele>23.0</ele><time>2026-05-05T12:43:49.267Z</time></trkpt><trkpt lat="45.8307778" lon="13.5166914"><ele>23.0</ele><time>2026-05-05T12:43:50.267Z</time></trkpt><trkpt lat="45.8309712" lon="13.516496"><ele>23.0</ele><time>2026-05-05T12:43:51.267Z</time></trkpt><trkpt lat="45.8311696" lon="13.5163037"><ele>22.5</ele><time>2026-05-05T12:43:52.267Z</time></trkpt><trkpt lat="45.8313726" lon="13.5161192"><ele>22.0</ele><time>2026-05-05T12:43:53.266Z</time></trkpt><trkpt lat="45.8315775" lon="13.5159381"><ele>22.0</ele><time>2026-05-05T12:43:54.267Z</time></trkpt><trkpt lat="45.8317851" lon="13.5157635"><ele>22.0</ele><time>2026-05-05T12:43:55.266Z</time></trkpt><trkpt lat="45.8319945" lon="13.5155985"><ele>22.0</ele><time>2026-05-05T12:43:56.267Z</time></trkpt><trkpt lat="45.8322015" lon="13.5154431"><ele>22.0</ele><time>2026-05-05T12:43:57.267Z</time></trkpt><trkpt lat="45.832408" lon="13.5152892"><ele>22.0</ele><time>2026-05-05T12:43:58.267Z</time></trkpt><trkpt lat="45.8326088" lon="13.5151495"><ele>22.0</ele><time>2026-05-05T12:43:59.267Z</time></trkpt><trkpt lat="45.8328146" lon="13.5150183"><ele>22.0</ele><time>2026-05-05T12:44:00.267Z</time></trkpt><trkpt lat="45.8330258" lon="13.5148887"><ele>25.5</ele><time>2026-05-05T12:44:01.267Z</time></trkpt><trkpt lat="45.8332437" lon="13.5147645"><ele>29.0</ele><time>2026-05-05T12:44:02.267Z</time></trkpt><trkpt lat="45.8334681" lon="13.514645"><ele>27.5</ele><time>2026-05-05T12:44:03.266Z</time></trkpt><trkpt lat="45.8336897" lon="13.5145299"><ele>26.0</ele><time>2026-05-05T12:44:04.266Z</time></trkpt><trkpt lat="45.8339065" lon="13.5144119"><ele>26.0</ele><time>2026-05-05T12:44:05.266Z</time></trkpt><trkpt lat="45.8341235" lon="13.5142981"><ele>26.0</ele><time>2026-05-05T12:44:06.266Z</time></trkpt><trkpt lat="45.8343377" lon="13.5141851"><ele>28.0</ele><time>2026-05-05T12:44:07.266Z</time></trkpt><trkpt lat="45.8345545" lon="13.514069"><ele>30.0</ele><time>2026-05-05T12:44:08.266Z</time></trkpt><trkpt lat="45.8347608" lon="13.5139554"><ele>30.0</ele><time>2026-05-05T12:44:09.266Z</time></trkpt><trkpt lat="45.8349695" lon="13.513842"><ele>30.0</ele><time>2026-05-05T12:44:10.266Z</time></trkpt><trkpt lat="45.8351765" lon="13.5137269"><ele>30.0</ele><time>2026-05-05T12:44:11.267Z</time></trkpt><trkpt lat="45.8353864" lon="13.5136074"><ele>29.0</ele><time>2026-05-05T12:44:12.267Z</time></trkpt><trkpt lat="45.8356019" lon="13.5134817"><ele>28.0</ele><time>2026-05-05T12:44:13.266Z</time></trkpt><trkpt lat="45.8358151" lon="13.5133489"><ele>30.5</ele><time>2026-05-05T12:44:14.267Z</time></trkpt><trkpt lat="45.8360278" lon="13.5132125"><ele>33.0</ele><time>2026-05-05T12:44:15.267Z</time></trkpt><trkpt lat="45.8362434" lon="13.5130713"><ele>33.0</ele><time>2026-05-05T12:44:16.266Z</time></trkpt><trkpt lat="45.8364521" lon="13.5129212"><ele>33.0</ele><time>2026-05-05T12:44:17.266Z</time></trkpt><trkpt lat="45.8366575" lon="13.5127711"><ele>36.0</ele><time>2026-05-05T12:44:18.267Z</time></trkpt><trkpt lat="45.836853" lon="13.5126133"><ele>39.0</ele><time>2026-05-05T12:44:19.266Z</time></trkpt><trkpt lat="45.8370496" lon="13.5124589"><ele>42.0</ele><time>2026-05-05T12:44:20.267Z</time></trkpt><trkpt lat="45.8372358" lon="13.5123052"><ele>42.0</ele><time>2026-05-05T12:44:21.266Z</time></trkpt><trkpt lat="45.8374304" lon="13.5121341"><ele>42.0</ele><time>2026-05-05T12:44:22.267Z</time></trkpt><trkpt lat="45.8376249" lon="13.511968"><ele>43.0</ele><time>2026-05-05T12:44:23.267Z</time></trkpt><trkpt lat="45.8378141" lon="13.5117833"><ele>44.0</ele><time>2026-05-05T12:44:24.267Z</time></trkpt><trkpt lat="45.8380094" lon="13.5116034"><ele>44.0</ele><time>2026-05-05T12:44:25.267Z</time></trkpt><trkpt lat="45.8381966" lon="13.5114166"><ele>44.0</ele><time>2026-05-05T12:44:26.267Z</time></trkpt><trkpt lat="45.8383777" lon="13.5112209"><ele>46.0</ele><time>2026-05-05T12:44:27.266Z</time></trkpt><trkpt lat="45.8385609" lon="13.5110221"><ele>48.0</ele><time>2026-05-05T12:44:28.266Z</time></trkpt><trkpt lat="45.8387388" lon="13.5108181"><ele>48.0</ele><time>2026-05-05T12:44:29.266Z</time></trkpt><trkpt lat="45.8389095" lon="13.510616"><ele>48.0</ele><time>2026-05-05T12:44:30.266Z</time></trkpt><trkpt lat="45.8390797" lon="13.5104077"><ele>48.0</ele><time>2026-05-05T12:44:31.267Z</time></trkpt><trkpt lat="45.8392374" lon="13.5101999"><ele>49.66666666666667</ele><time>2026-05-05T12:44:32.267Z</time></trkpt><trkpt lat="45.8394003" lon="13.5099871"><ele>51.333333333333336</ele><time>2026-05-05T12:44:33.266Z</time></trkpt><trkpt lat="45.8395644" lon="13.5097584"><ele>53.0</ele><time>2026-05-05T12:44:34.267Z</time></trkpt><trkpt lat="45.8397242" lon="13.5095251"><ele>45.0</ele><time>2026-05-05T12:44:35.267Z</time></trkpt><trkpt lat="45.8398854" lon="13.5092865"><ele>37.0</ele><time>2026-05-05T12:44:36.266Z</time></trkpt><trkpt lat="45.8400533" lon="13.5090408"><ele>43.5</ele><time>2026-05-05T12:44:37.267Z</time></trkpt><trkpt lat="45.8402141" lon="13.508782"><ele>50.0</ele><time>2026-05-05T12:44:38.267Z</time></trkpt><trkpt lat="45.8403754" lon="13.5085207"><ele>50.0</ele><time>2026-05-05T12:44:39.266Z</time></trkpt><trkpt lat="45.8405281" lon="13.5082547"><ele>50.0</ele><time>2026-05-05T12:44:40.267Z</time></trkpt><trkpt lat="45.8406806" lon="13.5079846"><ele>41.5</ele><time>2026-05-05T12:44:41.266Z</time></trkpt><trkpt lat="45.8408215" lon="13.5077097"><ele>33.0</ele><time>2026-05-05T12:44:42.267Z</time></trkpt><trkpt lat="45.8409579" lon="13.507433"><ele>41.0</ele><time>2026-05-05T12:44:43.267Z</time></trkpt><trkpt lat="45.8410816" lon="13.5071478"><ele>49.0</ele><time>2026-05-05T12:44:44.267Z</time></trkpt><trkpt lat="45.8412021" lon="13.5068497"><ele>49.0</ele><time>2026-05-05T12:44:45.266Z</time></trkpt><trkpt lat="45.8413181" lon="13.5065455"><ele>49.0</ele><time>2026-05-05T12:44:46.266Z</time></trkpt><trkpt lat="45.8414402" lon="13.5062291"><ele>40.5</ele><time>2026-05-05T12:44:47.266Z</time></trkpt><trkpt lat="45.8415537" lon="13.5059085"><ele>32.0</ele><time>2026-05-05T12:44:48.267Z</time></trkpt><trkpt lat="45.8416586" lon="13.5055839"><ele>27.0</ele><time>2026-05-05T12:44:49.266Z</time></trkpt><trkpt lat="45.8417629" lon="13.505257"><ele>22.0</ele><time>2026-05-05T12:44:50.266Z</time></trkpt><trkpt lat="45.8418587" lon="13.504916"><ele>32.0</ele><time>2026-05-05T12:44:51.267Z</time></trkpt><trkpt lat="45.8419576" lon="13.5045719"><ele>42.0</ele><time>2026-05-05T12:44:52.267Z</time></trkpt><trkpt lat="45.842049" lon="13.5042259"><ele>42.0</ele><time>2026-05-05T12:44:53.266Z</time></trkpt><trkpt lat="45.8421405" lon="13.5038711"><ele>42.0</ele><time>2026-05-05T12:44:54.267Z</time></trkpt><trkpt lat="45.842228" lon="13.5035101"><ele>40.5</ele><time>2026-05-05T12:44:55.267Z</time></trkpt><trkpt lat="45.8423174" lon="13.5031372"><ele>39.0</ele><time>2026-05-05T12:44:56.267Z</time></trkpt><trkpt lat="45.8424125" lon="13.502744"><ele>35.0</ele><time>2026-05-05T12:44:57.267Z</time></trkpt><trkpt lat="45.8425039" lon="13.5023501"><ele>31.0</ele><time>2026-05-05T12:44:58.266Z</time></trkpt><trkpt lat="45.8425941" lon="13.5019656"><ele>30.5</ele><time>2026-05-05T12:44:59.267Z</time></trkpt><trkpt lat="45.8426849" lon="13.501587"><ele>30.0</ele><time>2026-05-05T12:45:00.267Z</time></trkpt><trkpt lat="45.842771" lon="13.5012203"><ele>30.0</ele><time>2026-05-05T12:45:01.267Z</time></trkpt><trkpt lat="45.8428474" lon="13.5008566"><ele>30.0</ele><time>2026-05-05T12:45:02.267Z</time></trkpt><trkpt lat="45.8429179" lon="13.5004929"><ele>24.5</ele><time>2026-05-05T12:45:03.267Z</time></trkpt><trkpt lat="45.8429829" lon="13.5001326"><ele>19.0</ele><time>2026-05-05T12:45:04.266Z</time></trkpt><trkpt lat="45.8430461" lon="13.4997743"><ele>17.5</ele><time>2026-05-05T12:45:05.267Z</time></trkpt><trkpt lat="45.8430963" lon="13.4994162"><ele>16.0</ele><time>2026-05-05T12:45:06.267Z</time></trkpt><trkpt lat="45.8431446" lon="13.4990575"><ele>14.0</ele><time>2026-05-05T12:45:07.266Z</time></trkpt><trkpt lat="45.8431808" lon="13.4987013"><ele>12.0</ele><time>2026-05-05T12:45:08.267Z</time></trkpt><trkpt lat="45.8432182" lon="13.4983477"><ele>12.0</ele><time>2026-05-05T12:45:09.267Z</time></trkpt><trkpt lat="45.8432492" lon="13.4979954"><ele>12.0</ele><time>2026-05-05T12:45:10.266Z</time></trkpt><trkpt lat="45.8432729" lon="13.4976409"><ele>12.0</ele><time>2026-05-05T12:45:11.267Z</time></trkpt><trkpt lat="45.8432903" lon="13.4972889"><ele>12.0</ele><time>2026-05-05T12:45:12.266Z</time></trkpt><trkpt lat="45.8433032" lon="13.4969346"><ele>12.0</ele><time>2026-05-05T12:45:13.266Z</time></trkpt><trkpt lat="45.8433002" lon="13.4965771"><ele>12.0</ele><time>2026-05-05T12:45:14.266Z</time></trkpt><trkpt lat="45.8432926" lon="13.4962346"><ele>13.5</ele><time>2026-05-05T12:45:15.266Z</time></trkpt><trkpt lat="45.8432772" lon="13.4958846"><ele>15.0</ele><time>2026-05-05T12:45:16.267Z</time></trkpt><trkpt lat="45.8432555" lon="13.4955322"><ele>15.0</ele><time>2026-05-05T12:45:17.267Z</time></trkpt><trkpt lat="45.843232" lon="13.4951831"><ele>15.0</ele><time>2026-05-05T12:45:18.267Z</time></trkpt><trkpt lat="45.8432064" lon="13.4948391"><ele>14.5</ele><time>2026-05-05T12:45:19.266Z</time></trkpt><trkpt lat="45.8431768" lon="13.4944996"><ele>14.0</ele><time>2026-05-05T12:45:20.267Z</time></trkpt><trkpt lat="45.8431394" lon="13.4941636"><ele>14.0</ele><time>2026-05-05T12:45:21.267Z</time></trkpt><trkpt lat="45.8430981" lon="13.4938353"><ele>14.0</ele><time>2026-05-05T12:45:22.266Z</time></trkpt><trkpt lat="45.8430519" lon="13.4935032"><ele>14.0</ele><time>2026-05-05T12:45:23.267Z</time></trkpt><trkpt lat="45.8429999" lon="13.4931708"><ele>14.0</ele><time>2026-05-05T12:45:24.267Z</time></trkpt><trkpt lat="45.8429474" lon="13.4928448"><ele>12.5</ele><time>2026-05-05T12:45:25.267Z</time></trkpt><trkpt lat="45.842893" lon="13.4925209"><ele>11.0</ele><time>2026-05-05T12:45:26.267Z</time></trkpt><trkpt lat="45.8428337" lon="13.4921968"><ele>10.0</ele><time>2026-05-05T12:45:27.266Z</time></trkpt><trkpt lat="45.8427727" lon="13.4918739"><ele>9.0</ele><time>2026-05-05T12:45:28.266Z</time></trkpt><trkpt lat="45.8427117" lon="13.4915481"><ele>8.5</ele><time>2026-05-05T12:45:29.266Z</time></trkpt><trkpt lat="45.8426496" lon="13.4912236"><ele>8.0</ele><time>2026-05-05T12:45:30.267Z</time></trkpt><trkpt lat="45.8425901" lon="13.490893"><ele>9.5</ele><time>2026-05-05T12:45:31.266Z</time></trkpt><trkpt lat="45.8425272" lon="13.4905689"><ele>11.0</ele><time>2026-05-05T12:45:32.266Z</time></trkpt><trkpt lat="45.8424699" lon="13.4902387"><ele>13.0</ele><time>2026-05-05T12:45:33.266Z</time></trkpt><trkpt lat="45.8424151" lon="13.4899048"><ele>15.0</ele><time>2026-05-05T12:45:34.267Z</time></trkpt><trkpt lat="45.8423699" lon="13.4895681"><ele>15.0</ele><time>2026-05-05T12:45:35.262Z</time></trkpt><trkpt lat="45.8423336" lon="13.489226"><ele>15.0</ele><time>2026-05-05T12:45:36.267Z</time></trkpt><trkpt lat="45.8423146" lon="13.4888859"><ele>14.0</ele><time>2026-05-05T12:45:37.267Z</time></trkpt><trkpt lat="45.84229" lon="13.4885383"><ele>13.0</ele><time>2026-05-05T12:45:38.266Z</time></trkpt><trkpt lat="45.8422712" lon="13.4881872"><ele>12.5</ele><time>2026-05-05T12:45:39.266Z</time></trkpt><trkpt lat="45.8422595" lon="13.4878396"><ele>12.0</ele><time>2026-05-05T12:45:40.266Z</time></trkpt><trkpt lat="45.8422569" lon="13.4874941"><ele>12.0</ele><time>2026-05-05T12:45:41.267Z</time></trkpt><trkpt lat="45.8422636" lon="13.4871433"><ele>12.0</ele><time>2026-05-05T12:45:42.267Z</time></trkpt><trkpt lat="45.8422777" lon="13.4867964"><ele>12.5</ele><time>2026-05-05T12:45:43.267Z</time></trkpt><trkpt lat="45.8422974" lon="13.4864522"><ele>13.0</ele><time>2026-05-05T12:45:44.266Z</time></trkpt><trkpt lat="45.8423145" lon="13.486108"><ele>12.0</ele><time>2026-05-05T12:45:45.267Z</time></trkpt><trkpt lat="45.8423512" lon="13.4857715"><ele>11.0</ele><time>2026-05-05T12:45:46.266Z</time></trkpt><trkpt lat="45.8423907" lon="13.4854346"><ele>11.5</ele><time>2026-05-05T12:45:47.266Z</time></trkpt><trkpt lat="45.8424368" lon="13.4851009"><ele>12.0</ele><time>2026-05-05T12:45:48.266Z</time></trkpt><trkpt lat="45.8424898" lon="13.4847699"><ele>13.0</ele><time>2026-05-05T12:45:49.267Z</time></trkpt><trkpt lat="45.8425512" lon="13.4844442"><ele>14.0</ele><time>2026-05-05T12:45:50.266Z</time></trkpt><trkpt lat="45.842617" lon="13.4841256"><ele>13.0</ele><time>2026-05-05T12:45:51.267Z</time></trkpt><trkpt lat="45.8426916" lon="13.4838002"><ele>12.0</ele><time>2026-05-05T12:45:52.267Z</time></trkpt><trkpt lat="45.8427711" lon="13.4834824"><ele>12.0</ele><time>2026-05-05T12:45:53.267Z</time></trkpt><trkpt lat="45.8428629" lon="13.4831625"><ele>12.0</ele><time>2026-05-05T12:45:54.267Z</time></trkpt><trkpt lat="45.8429571" lon="13.4828518"><ele>12.0</ele><time>2026-05-05T12:45:55.267Z</time></trkpt><trkpt lat="45.843061" lon="13.4825418"><ele>12.0</ele><time>2026-05-05T12:45:56.267Z</time></trkpt><trkpt lat="45.843172" lon="13.4822347"><ele>11.0</ele><time>2026-05-05T12:45:57.267Z</time></trkpt><trkpt lat="45.8432875" lon="13.4819328"><ele>10.0</ele><time>2026-05-05T12:45:58.266Z</time></trkpt><trkpt lat="45.8434021" lon="13.4816279"><ele>11.0</ele><time>2026-05-05T12:45:59.266Z</time></trkpt><trkpt lat="45.8435222" lon="13.4813292"><ele>12.0</ele><time>2026-05-05T12:46:00.266Z</time></trkpt><trkpt lat="45.8436445" lon="13.4810264"><ele>12.0</ele><time>2026-05-05T12:46:01.267Z</time></trkpt><trkpt lat="45.8437665" lon="13.4807233"><ele>12.0</ele><time>2026-05-05T12:46:02.267Z</time></trkpt><trkpt lat="45.8438917" lon="13.4804257"><ele>12.0</ele><time>2026-05-05T12:46:03.267Z</time></trkpt><trkpt lat="45.8440194" lon="13.4801273"><ele>12.0</ele><time>2026-05-05T12:46:04.267Z</time></trkpt><trkpt lat="45.8441441" lon="13.4798318"><ele>13.0</ele><time>2026-05-05T12:46:05.266Z</time></trkpt><trkpt lat="45.8442694" lon="13.4795302"><ele>14.0</ele><time>2026-05-05T12:46:06.267Z</time></trkpt><trkpt lat="45.8443899" lon="13.4792309"><ele>15.0</ele><time>2026-05-05T12:46:07.266Z</time></trkpt><trkpt lat="45.8445114" lon="13.4789259"><ele>16.0</ele><time>2026-05-05T12:46:08.266Z</time></trkpt><trkpt lat="45.8446346" lon="13.4786308"><ele>16.0</ele><time>2026-05-05T12:46:09.267Z</time></trkpt><trkpt lat="45.8447564" lon="13.4783323"><ele>16.0</ele><time>2026-05-05T12:46:10.267Z</time></trkpt><trkpt lat="45.8448791" lon="13.4780315"><ele>15.0</ele><time>2026-05-05T12:46:11.267Z</time></trkpt><trkpt lat="45.8450054" lon="13.4777253"><ele>14.0</ele><time>2026-05-05T12:46:12.267Z</time></trkpt><trkpt lat="45.8451288" lon="13.4774204"><ele>13.5</ele><time>2026-05-05T12:46:13.267Z</time></trkpt><trkpt lat="45.8452565" lon="13.4771119"><ele>13.0</ele><time>2026-05-05T12:46:14.266Z</time></trkpt><trkpt lat="45.845383" lon="13.4768102"><ele>13.0</ele><time>2026-05-05T12:46:15.266Z</time></trkpt><trkpt lat="45.8455108" lon="13.4765023"><ele>13.0</ele><time>2026-05-05T12:46:16.267Z</time></trkpt><trkpt lat="45.8456352" lon="13.4762031"><ele>13.5</ele><time>2026-05-05T12:46:17.266Z</time></trkpt><trkpt lat="45.8457618" lon="13.4758991"><ele>14.0</ele><time>2026-05-05T12:46:18.267Z</time></trkpt><trkpt lat="45.8458901" lon="13.4755972"><ele>14.5</ele><time>2026-05-05T12:46:19.266Z</time></trkpt><trkpt lat="45.846011" lon="13.4752974"><ele>15.0</ele><time>2026-05-05T12:46:20.267Z</time></trkpt><trkpt lat="45.8461409" lon="13.4749887"><ele>15.0</ele><time>2026-05-05T12:46:21.266Z</time></trkpt><trkpt lat="45.8462638" lon="13.4746862"><ele>15.0</ele><time>2026-05-05T12:46:22.267Z</time></trkpt><trkpt lat="45.8463898" lon="13.4743825"><ele>14.5</ele><time>2026-05-05T12:46:23.267Z</time></trkpt><trkpt lat="45.8465172" lon="13.4740813"><ele>14.0</ele><time>2026-05-05T12:46:24.266Z</time></trkpt><trkpt lat="45.8466414" lon="13.4737782"><ele>13.5</ele><time>2026-05-05T12:46:25.267Z</time></trkpt><trkpt lat="45.8467649" lon="13.4734782"><ele>13.0</ele><time>2026-05-05T12:46:26.267Z</time></trkpt><trkpt lat="45.846887" lon="13.4731733"><ele>15.0</ele><time>2026-05-05T12:46:27.266Z</time></trkpt><trkpt lat="45.8470105" lon="13.4728731"><ele>17.0</ele><time>2026-05-05T12:46:28.267Z</time></trkpt><trkpt lat="45.8471327" lon="13.4725718"><ele>17.0</ele><time>2026-05-05T12:46:29.266Z</time></trkpt><trkpt lat="45.8472587" lon="13.4722749"><ele>17.0</ele><time>2026-05-05T12:46:30.267Z</time></trkpt><trkpt lat="45.847379" lon="13.4719771"><ele>16.5</ele><time>2026-05-05T12:46:31.266Z</time></trkpt><trkpt lat="45.8475033" lon="13.4716785"><ele>16.0</ele><time>2026-05-05T12:46:32.267Z</time></trkpt><trkpt lat="45.8476231" lon="13.4713801"><ele>15.5</ele><time>2026-05-05T12:46:33.267Z</time></trkpt><trkpt lat="45.8477472" lon="13.4710817"><ele>15.0</ele><time>2026-05-05T12:46:34.267Z</time></trkpt><trkpt lat="45.8478708" lon="13.4707905"><ele>15.0</ele><time>2026-05-05T12:46:35.267Z</time></trkpt><trkpt lat="45.8479933" lon="13.4704955"><ele>15.0</ele><time>2026-05-05T12:46:36.267Z</time></trkpt><trkpt lat="45.8481136" lon="13.4701992"><ele>15.5</ele><time>2026-05-05T12:46:37.267Z</time></trkpt><trkpt lat="45.8482347" lon="13.4699053"><ele>16.0</ele><time>2026-05-05T12:46:38.266Z</time></trkpt><trkpt lat="45.8483573" lon="13.4696098"><ele>16.0</ele><time>2026-05-05T12:46:39.267Z</time></trkpt><trkpt lat="45.8484785" lon="13.469314"><ele>16.0</ele><time>2026-05-05T12:46:40.267Z</time></trkpt><trkpt lat="45.8485931" lon="13.4690279"><ele>16.0</ele><time>2026-05-05T12:46:41.267Z</time></trkpt><trkpt lat="45.8487154" lon="13.4687269"><ele>16.0</ele><time>2026-05-05T12:46:42.266Z</time></trkpt><trkpt lat="45.8488375" lon="13.4684305"><ele>16.0</ele><time>2026-05-05T12:46:43.266Z</time></trkpt><trkpt lat="45.8489607" lon="13.4681323"><ele>16.0</ele><time>2026-05-05T12:46:44.267Z</time></trkpt><trkpt lat="45.8490869" lon="13.4678311"><ele>16.0</ele><time>2026-05-05T12:46:45.267Z</time></trkpt><trkpt lat="45.8492109" lon="13.46753"><ele>16.0</ele><time>2026-05-05T12:46:46.266Z</time></trkpt><trkpt lat="45.8493333" lon="13.4672302"><ele>16.0</ele><time>2026-05-05T12:46:47.267Z</time></trkpt><trkpt lat="45.8494562" lon="13.4669302"><ele>16.0</ele><time>2026-05-05T12:46:48.266Z</time></trkpt><trkpt lat="45.8495817" lon="13.4666328"><ele>16.0</ele><time>2026-05-05T12:46:49.267Z</time></trkpt><trkpt lat="45.8497085" lon="13.4663354"><ele>16.0</ele><time>2026-05-05T12:46:50.267Z</time></trkpt><trkpt lat="45.8498301" lon="13.466033"><ele>15.5</ele><time>2026-05-05T12:46:51.267Z</time></trkpt><trkpt lat="45.8499587" lon="13.4657244"><ele>15.0</ele><time>2026-05-05T12:46:52.266Z</time></trkpt><trkpt lat="45.8500841" lon="13.4654194"><ele>15.0</ele><time>2026-05-05T12:46:53.267Z</time></trkpt><trkpt lat="45.8502098" lon="13.4651122"><ele>15.0</ele><time>2026-05-05T12:46:54.267Z</time></trkpt><trkpt lat="45.8503331" lon="13.4648074"><ele>15.5</ele><time>2026-05-05T12:46:55.267Z</time></trkpt><trkpt lat="45.8504555" lon="13.4644975"><ele>16.0</ele><time>2026-05-05T12:46:56.267Z</time></trkpt><trkpt lat="45.8505825" lon="13.4641833"><ele>16.0</ele><time>2026-05-05T12:46:57.267Z</time></trkpt><trkpt lat="45.8507085" lon="13.4638679"><ele>16.0</ele><time>2026-05-05T12:46:58.267Z</time></trkpt><trkpt lat="45.8508392" lon="13.463554"><ele>16.0</ele><time>2026-05-05T12:46:59.267Z</time></trkpt><trkpt lat="45.8509687" lon="13.4632337"><ele>16.0</ele><time>2026-05-05T12:47:00.267Z</time></trkpt><trkpt lat="45.8510985" lon="13.4629093"><ele>15.5</ele><time>2026-05-05T12:47:01.267Z</time></trkpt><trkpt lat="45.8512175" lon="13.4625869"><ele>15.0</ele><time>2026-05-05T12:47:02.266Z</time></trkpt><trkpt lat="45.8513343" lon="13.4622581"><ele>16.0</ele><time>2026-05-05T12:47:03.267Z</time></trkpt><trkpt lat="45.8514487" lon="13.4619229"><ele>17.0</ele><time>2026-05-05T12:47:04.267Z</time></trkpt><trkpt lat="45.8515608" lon="13.4615878"><ele>16.5</ele><time>2026-05-05T12:47:05.266Z</time></trkpt><trkpt lat="45.8516689" lon="13.4612424"><ele>16.0</ele><time>2026-05-05T12:47:06.267Z</time></trkpt><trkpt lat="45.8517707" lon="13.4608907"><ele>16.0</ele><time>2026-05-05T12:47:07.266Z</time></trkpt><trkpt lat="45.8518676" lon="13.4605434"><ele>16.0</ele><time>2026-05-05T12:47:08.266Z</time></trkpt><trkpt lat="45.8519643" lon="13.4601867"><ele>16.0</ele><time>2026-05-05T12:47:09.267Z</time></trkpt><trkpt lat="45.8520477" lon="13.4598298"><ele>16.0</ele><time>2026-05-05T12:47:10.267Z</time></trkpt><trkpt lat="45.8521303" lon="13.459473"><ele>16.0</ele><time>2026-05-05T12:47:11.266Z</time></trkpt><trkpt lat="45.852211" lon="13.4591207"><ele>16.0</ele><time>2026-05-05T12:47:12.267Z</time></trkpt><trkpt lat="45.8522822" lon="13.4587683"><ele>16.0</ele><time>2026-05-05T12:47:13.266Z</time></trkpt><trkpt lat="45.8523498" lon="13.4584108"><ele>16.0</ele><time>2026-05-05T12:47:14.267Z</time></trkpt><trkpt lat="45.8524185" lon="13.4580508"><ele>16.0</ele><time>2026-05-05T12:47:15.267Z</time></trkpt><trkpt lat="45.8524753" lon="13.457683"><ele>16.0</ele><time>2026-05-05T12:47:16.267Z</time></trkpt><trkpt lat="45.852534" lon="13.4573134"><ele>15.5</ele><time>2026-05-05T12:47:17.266Z</time></trkpt><trkpt lat="45.8525906" lon="13.4569446"><ele>15.0</ele><time>2026-05-05T12:47:18.267Z</time></trkpt><trkpt lat="45.8526471" lon="13.4565759"><ele>15.0</ele><time>2026-05-05T12:47:19.267Z</time></trkpt><trkpt lat="45.8527033" lon="13.4562079"><ele>15.0</ele><time>2026-05-05T12:47:20.267Z</time></trkpt><trkpt lat="45.8527637" lon="13.4558418"><ele>15.0</ele><time>2026-05-05T12:47:21.266Z</time></trkpt><trkpt lat="45.8528182" lon="13.4554702"><ele>15.0</ele><time>2026-05-05T12:47:22.266Z</time></trkpt><trkpt lat="45.8528745" lon="13.4551052"><ele>14.5</ele><time>2026-05-05T12:47:23.266Z</time></trkpt><trkpt lat="45.8529284" lon="13.4547377"><ele>14.0</ele><time>2026-05-05T12:47:24.267Z</time></trkpt><trkpt lat="45.8529826" lon="13.4543749"><ele>13.5</ele><time>2026-05-05T12:47:25.267Z</time></trkpt><trkpt lat="45.8530357" lon="13.4540092"><ele>13.0</ele><time>2026-05-05T12:47:26.266Z</time></trkpt><trkpt lat="45.8530867" lon="13.4536396"><ele>12.5</ele><time>2026-05-05T12:47:27.267Z</time></trkpt><trkpt lat="45.8531395" lon="13.4532726"><ele>12.0</ele><time>2026-05-05T12:47:28.267Z</time></trkpt><trkpt lat="45.8531956" lon="13.4529136"><ele>13.0</ele><time>2026-05-05T12:47:29.267Z</time></trkpt><trkpt lat="45.8532528" lon="13.4525582"><ele>14.0</ele><time>2026-05-05T12:47:30.266Z</time></trkpt><trkpt lat="45.8533023" lon="13.4522049"><ele>14.5</ele><time>2026-05-05T12:47:31.267Z</time></trkpt><trkpt lat="45.8533539" lon="13.4518485"><ele>15.0</ele><time>2026-05-05T12:47:32.266Z</time></trkpt><trkpt lat="45.85341" lon="13.45149"><ele>15.0</ele><time>2026-05-05T12:47:33.266Z</time></trkpt><trkpt lat="45.8534648" lon="13.4511232"><ele>15.0</ele><time>2026-05-05T12:47:34.266Z</time></trkpt><trkpt lat="45.8535227" lon="13.4507654"><ele>15.0</ele><time>2026-05-05T12:47:35.267Z</time></trkpt><trkpt lat="45.8535773" lon="13.4504005"><ele>15.0</ele><time>2026-05-05T12:47:36.266Z</time></trkpt><trkpt lat="45.8536319" lon="13.4500406"><ele>15.0</ele><time>2026-05-05T12:47:37.267Z</time></trkpt><trkpt lat="45.8536849" lon="13.4496785"><ele>15.0</ele><time>2026-05-05T12:47:38.266Z</time></trkpt><trkpt lat="45.8537375" lon="13.4493162"><ele>15.0</ele><time>2026-05-05T12:47:39.266Z</time></trkpt><trkpt lat="45.8537927" lon="13.4489568"><ele>15.0</ele><time>2026-05-05T12:47:40.266Z</time></trkpt><trkpt lat="45.8538467" lon="13.4486052"><ele>15.0</ele><time>2026-05-05T12:47:41.266Z</time></trkpt><trkpt lat="45.8539017" lon="13.4482471"><ele>15.0</ele><time>2026-05-05T12:47:42.267Z</time></trkpt><trkpt lat="45.8539519" lon="13.4478866"><ele>14.5</ele><time>2026-05-05T12:47:43.267Z</time></trkpt><trkpt lat="45.8540039" lon="13.447532"><ele>14.0</ele><time>2026-05-05T12:47:44.267Z</time></trkpt><trkpt lat="45.8540576" lon="13.4471725"><ele>14.5</ele><time>2026-05-05T12:47:45.267Z</time></trkpt><trkpt lat="45.8541069" lon="13.4468176"><ele>15.0</ele><time>2026-05-05T12:47:46.267Z</time></trkpt><trkpt lat="45.8541569" lon="13.4464605"><ele>15.0</ele><time>2026-05-05T12:47:47.267Z</time></trkpt><trkpt lat="45.854204" lon="13.4461056"><ele>15.0</ele><time>2026-05-05T12:47:48.266Z</time></trkpt><trkpt lat="45.8542532" lon="13.4457469"><ele>14.5</ele><time>2026-05-05T12:47:49.267Z</time></trkpt><trkpt lat="45.8543031" lon="13.445389"><ele>14.0</ele><time>2026-05-05T12:47:50.266Z</time></trkpt><trkpt lat="45.8543539" lon="13.4450318"><ele>14.0</ele><time>2026-05-05T12:47:51.267Z</time></trkpt><trkpt lat="45.8543999" lon="13.4446719"><ele>14.0</ele><time>2026-05-05T12:47:52.267Z</time></trkpt><trkpt lat="45.8544454" lon="13.4443125"><ele>14.0</ele><time>2026-05-05T12:47:53.267Z</time></trkpt><trkpt lat="45.8544886" lon="13.4439513"><ele>14.0</ele><time>2026-05-05T12:47:54.266Z</time></trkpt><trkpt lat="45.8545343" lon="13.4435886"><ele>13.5</ele><time>2026-05-05T12:47:55.267Z</time></trkpt><trkpt lat="45.8545826" lon="13.4432228"><ele>13.0</ele><time>2026-05-05T12:47:56.267Z</time></trkpt><trkpt lat="45.854628" lon="13.4428616"><ele>13.0</ele><time>2026-05-05T12:47:57.267Z</time></trkpt><trkpt lat="45.8546785" lon="13.4424976"><ele>13.0</ele><time>2026-05-05T12:47:58.267Z</time></trkpt><trkpt lat="45.8547303" lon="13.4421329"><ele>12.5</ele><time>2026-05-05T12:47:59.266Z</time></trkpt><trkpt lat="45.8547853" lon="13.4417719"><ele>12.0</ele><time>2026-05-05T12:48:00.267Z</time></trkpt><trkpt lat="45.8548409" lon="13.4414123"><ele>12.5</ele><time>2026-05-05T12:48:01.266Z</time></trkpt><trkpt lat="45.8548921" lon="13.4410492"><ele>13.0</ele><time>2026-05-05T12:48:02.267Z</time></trkpt><trkpt lat="45.8549471" lon="13.4406866"><ele>12.5</ele><time>2026-05-05T12:48:03.267Z</time></trkpt><trkpt lat="45.8550002" lon="13.4403279"><ele>12.0</ele><time>2026-05-05T12:48:04.267Z</time></trkpt><trkpt lat="45.8550545" lon="13.4399693"><ele>12.5</ele><time>2026-05-05T12:48:05.267Z</time></trkpt><trkpt lat="45.8551103" lon="13.4396103"><ele>13.0</ele><time>2026-05-05T12:48:06.267Z</time></trkpt><trkpt lat="45.8551619" lon="13.4392533"><ele>13.0</ele><time>2026-05-05T12:48:07.266Z</time></trkpt><trkpt lat="45.8552115" lon="13.4388987"><ele>13.0</ele><time>2026-05-05T12:48:08.266Z</time></trkpt><trkpt lat="45.8552623" lon="13.4385452"><ele>13.0</ele><time>2026-05-05T12:48:09.267Z</time></trkpt><trkpt lat="45.8553169" lon="13.4381908"><ele>13.0</ele><time>2026-05-05T12:48:10.266Z</time></trkpt><trkpt lat="45.8553706" lon="13.4378373"><ele>13.0</ele><time>2026-05-05T12:48:11.267Z</time></trkpt><trkpt lat="45.8554218" lon="13.4374839"><ele>13.0</ele><time>2026-05-05T12:48:12.267Z</time></trkpt><trkpt lat="45.8554784" lon="13.437131"><ele>12.5</ele><time>2026-05-05T12:48:13.267Z</time></trkpt><trkpt lat="45.855537" lon="13.4367795"><ele>12.0</ele><time>2026-05-05T12:48:14.267Z</time></trkpt><trkpt lat="45.8555927" lon="13.4364318"><ele>13.0</ele><time>2026-05-05T12:48:15.266Z</time></trkpt><trkpt lat="45.8556601" lon="13.4360844"><ele>14.0</ele><time>2026-05-05T12:48:16.267Z</time></trkpt><trkpt lat="45.8557312" lon="13.4357379"><ele>13.5</ele><time>2026-05-05T12:48:17.266Z</time></trkpt><trkpt lat="45.8558049" lon="13.435401"><ele>13.0</ele><time>2026-05-05T12:48:18.267Z</time></trkpt><trkpt lat="45.8558855" lon="13.4350633"><ele>13.0</ele><time>2026-05-05T12:48:19.266Z</time></trkpt><trkpt lat="45.855966" lon="13.4347207"><ele>13.0</ele><time>2026-05-05T12:48:20.266Z</time></trkpt><trkpt lat="45.8560512" lon="13.4343764"><ele>13.0</ele><time>2026-05-05T12:48:21.266Z</time></trkpt><trkpt lat="45.8561465" lon="13.4340389"><ele>13.0</ele><time>2026-05-05T12:48:22.267Z</time></trkpt><trkpt lat="45.8562448" lon="13.4337049"><ele>13.0</ele><time>2026-05-05T12:48:23.267Z</time></trkpt><trkpt lat="45.8563513" lon="13.43337"><ele>13.0</ele><time>2026-05-05T12:48:24.266Z</time></trkpt><trkpt lat="45.8564609" lon="13.4330351"><ele>13.0</ele><time>2026-05-05T12:48:25.266Z</time></trkpt><trkpt lat="45.8565734" lon="13.4327009"><ele>13.0</ele><time>2026-05-05T12:48:26.267Z</time></trkpt><trkpt lat="45.8566935" lon="13.4323682"><ele>14.0</ele><time>2026-05-05T12:48:27.266Z</time></trkpt><trkpt lat="45.8568113" lon="13.432048"><ele>15.0</ele><time>2026-05-05T12:48:28.267Z</time></trkpt><trkpt lat="45.8569371" lon="13.4317199"><ele>15.0</ele><time>2026-05-05T12:48:29.266Z</time></trkpt><trkpt lat="45.8570664" lon="13.431394"><ele>15.0</ele><time>2026-05-05T12:48:30.267Z</time></trkpt><trkpt lat="45.8571994" lon="13.4310761"><ele>15.0</ele><time>2026-05-05T12:48:31.267Z</time></trkpt><trkpt lat="45.8573311" lon="13.4307559"><ele>15.0</ele><time>2026-05-05T12:48:32.266Z</time></trkpt><trkpt lat="45.857464" lon="13.4304367"><ele>15.0</ele><time>2026-05-05T12:48:33.267Z</time></trkpt><trkpt lat="45.8575967" lon="13.4301173"><ele>15.0</ele><time>2026-05-05T12:48:34.267Z</time></trkpt><trkpt lat="45.8577279" lon="13.4297949"><ele>15.0</ele><time>2026-05-05T12:48:35.267Z</time></trkpt><trkpt lat="45.8578637" lon="13.4294685"><ele>15.0</ele><time>2026-05-05T12:48:36.267Z</time></trkpt><trkpt lat="45.8580036" lon="13.4291467"><ele>15.0</ele><time>2026-05-05T12:48:37.267Z</time></trkpt><trkpt lat="45.8581308" lon="13.4288293"><ele>15.0</ele><time>2026-05-05T12:48:38.267Z</time></trkpt><trkpt lat="45.8582638" lon="13.4285105"><ele>14.5</ele><time>2026-05-05T12:48:39.266Z</time></trkpt><trkpt lat="45.8583958" lon="13.4281884"><ele>14.0</ele><time>2026-05-05T12:48:40.267Z</time></trkpt><trkpt lat="45.8585297" lon="13.4278639"><ele>15.0</ele><time>2026-05-05T12:48:41.267Z</time></trkpt><trkpt lat="45.85866" lon="13.427538"><ele>16.0</ele><time>2026-05-05T12:48:42.266Z</time></trkpt><trkpt lat="45.8587923" lon="13.4272218"><ele>15.5</ele><time>2026-05-05T12:48:43.266Z</time></trkpt><trkpt lat="45.8589219" lon="13.4269031"><ele>15.0</ele><time>2026-05-05T12:48:44.266Z</time></trkpt><trkpt lat="45.8590492" lon="13.426578"><ele>15.0</ele><time>2026-05-05T12:48:45.267Z</time></trkpt><trkpt lat="45.8591764" lon="13.4262596"><ele>15.0</ele><time>2026-05-05T12:48:46.267Z</time></trkpt><trkpt lat="45.8593026" lon="13.4259397"><ele>15.0</ele><time>2026-05-05T12:48:47.266Z</time></trkpt><trkpt lat="45.8594303" lon="13.4256183"><ele>15.0</ele><time>2026-05-05T12:48:48.267Z</time></trkpt><trkpt lat="45.8595626" lon="13.4252925"><ele>15.0</ele><time>2026-05-05T12:48:49.266Z</time></trkpt><trkpt lat="45.859693" lon="13.4249702"><ele>15.0</ele><time>2026-05-05T12:48:50.266Z</time></trkpt><trkpt lat="45.8598243" lon="13.4246519"><ele>15.0</ele><time>2026-05-05T12:48:51.266Z</time></trkpt><trkpt lat="45.8599543" lon="13.4243351"><ele>15.0</ele><time>2026-05-05T12:48:52.266Z</time></trkpt><trkpt lat="45.8600866" lon="13.4240171"><ele>14.5</ele><time>2026-05-05T12:48:53.266Z</time></trkpt><trkpt lat="45.8602158" lon="13.4236993"><ele>14.0</ele><time>2026-05-05T12:48:54.267Z</time></trkpt><trkpt lat="45.8603521" lon="13.4233708"><ele>14.0</ele><time>2026-05-05T12:48:55.266Z</time></trkpt><trkpt lat="45.8604964" lon="13.4230375"><ele>14.0</ele><time>2026-05-05T12:48:56.266Z</time></trkpt><trkpt lat="45.8606465" lon="13.4227008"><ele>15.5</ele><time>2026-05-05T12:48:57.267Z</time></trkpt><trkpt lat="45.860801" lon="13.4223628"><ele>17.0</ele><time>2026-05-05T12:48:58.266Z</time></trkpt><trkpt lat="45.860954" lon="13.4220207"><ele>17.0</ele><time>2026-05-05T12:48:59.266Z</time></trkpt><trkpt lat="45.8611091" lon="13.4216764"><ele>17.0</ele><time>2026-05-05T12:49:00.267Z</time></trkpt><trkpt lat="45.8612616" lon="13.4213278"><ele>16.5</ele><time>2026-05-05T12:49:01.266Z</time></trkpt><trkpt lat="45.861415" lon="13.4209788"><ele>16.0</ele><time>2026-05-05T12:49:02.267Z</time></trkpt><trkpt lat="45.861566" lon="13.420626"><ele>16.0</ele><time>2026-05-05T12:49:03.266Z</time></trkpt><trkpt lat="45.8617183" lon="13.4202757"><ele>16.0</ele><time>2026-05-05T12:49:04.267Z</time></trkpt><trkpt lat="45.861865" lon="13.4199236"><ele>16.0</ele><time>2026-05-05T12:49:05.266Z</time></trkpt><trkpt lat="45.8620174" lon="13.4195698"><ele>16.0</ele><time>2026-05-05T12:49:06.266Z</time></trkpt><trkpt lat="45.8621739" lon="13.4192157"><ele>16.0</ele><time>2026-05-05T12:49:07.266Z</time></trkpt><trkpt lat="45.8623233" lon="13.4188621"><ele>16.0</ele><time>2026-05-05T12:49:08.266Z</time></trkpt><trkpt lat="45.8624764" lon="13.4185022"><ele>15.0</ele><time>2026-05-05T12:49:09.267Z</time></trkpt><trkpt lat="45.8626273" lon="13.4181473"><ele>14.0</ele><time>2026-05-05T12:49:10.267Z</time></trkpt><trkpt lat="45.8627765" lon="13.4177949"><ele>14.0</ele><time>2026-05-05T12:49:11.267Z</time></trkpt><trkpt lat="45.8629194" lon="13.4174322"><ele>14.0</ele><time>2026-05-05T12:49:12.267Z</time></trkpt><trkpt lat="45.8630634" lon="13.4170711"><ele>14.5</ele><time>2026-05-05T12:49:13.266Z</time></trkpt><trkpt lat="45.8632153" lon="13.4167161"><ele>15.0</ele><time>2026-05-05T12:49:14.267Z</time></trkpt><trkpt lat="45.8633705" lon="13.4163583"><ele>13.0</ele><time>2026-05-05T12:49:15.267Z</time></trkpt><trkpt lat="45.8635201" lon="13.4159942"><ele>11.0</ele><time>2026-05-05T12:49:16.267Z</time></trkpt><trkpt lat="45.8636712" lon="13.4156369"><ele>12.5</ele><time>2026-05-05T12:49:17.266Z</time></trkpt><trkpt lat="45.8638241" lon="13.4152731"><ele>14.0</ele><time>2026-05-05T12:49:18.267Z</time></trkpt><trkpt lat="45.8639724" lon="13.4149062"><ele>14.0</ele><time>2026-05-05T12:49:19.267Z</time></trkpt><trkpt lat="45.8641195" lon="13.4145422"><ele>14.0</ele><time>2026-05-05T12:49:20.267Z</time></trkpt><trkpt lat="45.8642633" lon="13.4141744"><ele>12.5</ele><time>2026-05-05T12:49:21.267Z</time></trkpt><trkpt lat="45.864414" lon="13.4138065"><ele>11.0</ele><time>2026-05-05T12:49:22.266Z</time></trkpt><trkpt lat="45.8645657" lon="13.4134353"><ele>11.0</ele><time>2026-05-05T12:49:23.267Z</time></trkpt><trkpt lat="45.8647197" lon="13.4130612"><ele>11.0</ele><time>2026-05-05T12:49:24.267Z</time></trkpt><trkpt lat="45.8648677" lon="13.4126937"><ele>13.0</ele><time>2026-05-05T12:49:25.267Z</time></trkpt><trkpt lat="45.8650227" lon="13.4123235"><ele>15.0</ele><time>2026-05-05T12:49:26.267Z</time></trkpt><trkpt lat="45.8651738" lon="13.4119525"><ele>16.5</ele><time>2026-05-05T12:49:27.267Z</time></trkpt><trkpt lat="45.8653217" lon="13.4115949"><ele>18.0</ele><time>2026-05-05T12:49:28.266Z</time></trkpt><trkpt lat="45.8654738" lon="13.4112323"><ele>18.0</ele><time>2026-05-05T12:49:29.267Z</time></trkpt><trkpt lat="45.8656166" lon="13.4108786"><ele>18.0</ele><time>2026-05-05T12:49:30.266Z</time></trkpt><trkpt lat="45.8657676" lon="13.4105234"><ele>17.0</ele><time>2026-05-05T12:49:31.266Z</time></trkpt><trkpt lat="45.8659127" lon="13.410169"><ele>16.0</ele><time>2026-05-05T12:49:32.266Z</time></trkpt><trkpt lat="45.8660508" lon="13.4098119"><ele>15.5</ele><time>2026-05-05T12:49:33.266Z</time></trkpt><trkpt lat="45.8661927" lon="13.4094513"><ele>15.0</ele><time>2026-05-05T12:49:34.267Z</time></trkpt><trkpt lat="45.8663212" lon="13.4090997"><ele>16.0</ele><time>2026-05-05T12:49:35.267Z</time></trkpt><trkpt lat="45.8664626" lon="13.4087377"><ele>17.0</ele><time>2026-05-05T12:49:36.267Z</time></trkpt><trkpt lat="45.866605" lon="13.4083771"><ele>17.0</ele><time>2026-05-05T12:49:37.267Z</time></trkpt><trkpt lat="45.8667516" lon="13.4080056"><ele>17.0</ele><time>2026-05-05T12:49:38.266Z</time></trkpt><trkpt lat="45.8668976" lon="13.407633"><ele>16.0</ele><time>2026-05-05T12:49:39.267Z</time></trkpt><trkpt lat="45.8670425" lon="13.4072629"><ele>15.0</ele><time>2026-05-05T12:49:40.267Z</time></trkpt><trkpt lat="45.8671902" lon="13.4068973"><ele>15.0</ele><time>2026-05-05T12:49:41.266Z</time></trkpt><trkpt lat="45.8673356" lon="13.406527"><ele>15.0</ele><time>2026-05-05T12:49:42.267Z</time></trkpt><trkpt lat="45.8674767" lon="13.4061507"><ele>14.5</ele><time>2026-05-05T12:49:43.266Z</time></trkpt><trkpt lat="45.8676205" lon="13.4057777"><ele>14.0</ele><time>2026-05-05T12:49:44.266Z</time></trkpt><trkpt lat="45.8677738" lon="13.4053976"><ele>14.0</ele><time>2026-05-05T12:49:45.266Z</time></trkpt><trkpt lat="45.8679253" lon="13.4050154"><ele>14.0</ele><time>2026-05-05T12:49:46.267Z</time></trkpt><trkpt lat="45.8680778" lon="13.4046386"><ele>13.5</ele><time>2026-05-05T12:49:47.267Z</time></trkpt><trkpt lat="45.868232" lon="13.4042673"><ele>13.0</ele><time>2026-05-05T12:49:48.266Z</time></trkpt><trkpt lat="45.8683855" lon="13.403904"><ele>13.5</ele><time>2026-05-05T12:49:49.267Z</time></trkpt><trkpt lat="45.8685361" lon="13.4035384"><ele>14.0</ele><time>2026-05-05T12:49:50.267Z</time></trkpt><trkpt lat="45.8686895" lon="13.4031795"><ele>14.0</ele><time>2026-05-05T12:49:51.266Z</time></trkpt><trkpt lat="45.8688423" lon="13.4028186"><ele>14.0</ele><time>2026-05-05T12:49:52.267Z</time></trkpt><trkpt lat="45.8689907" lon="13.4024569"><ele>15.0</ele><time>2026-05-05T12:49:53.266Z</time></trkpt><trkpt lat="45.8691313" lon="13.4020994"><ele>16.0</ele><time>2026-05-05T12:49:54.267Z</time></trkpt><trkpt lat="45.8692715" lon="13.4017397"><ele>16.0</ele><time>2026-05-05T12:49:55.266Z</time></trkpt><trkpt lat="45.8694085" lon="13.401376"><ele>16.0</ele><time>2026-05-05T12:49:56.267Z</time></trkpt><trkpt lat="45.8695396" lon="13.4010051"><ele>16.0</ele><time>2026-05-05T12:49:57.266Z</time></trkpt><trkpt lat="45.8696709" lon="13.4006358"><ele>16.0</ele><time>2026-05-05T12:49:58.267Z</time></trkpt><trkpt lat="45.8697966" lon="13.4002592"><ele>16.5</ele><time>2026-05-05T12:49:59.267Z</time></trkpt><trkpt lat="45.8699161" lon="13.3998804"><ele>17.0</ele><time>2026-05-05T12:50:00.266Z</time></trkpt><trkpt lat="45.8700382" lon="13.3995011"><ele>16.0</ele><time>2026-05-05T12:50:01.267Z</time></trkpt><trkpt lat="45.8701491" lon="13.3991124"><ele>15.0</ele><time>2026-05-05T12:50:02.266Z</time></trkpt><trkpt lat="45.8702538" lon="13.3987218"><ele>15.0</ele><time>2026-05-05T12:50:03.267Z</time></trkpt><trkpt lat="45.8703567" lon="13.3983283"><ele>15.0</ele><time>2026-05-05T12:50:04.267Z</time></trkpt><trkpt lat="45.8704569" lon="13.3979341"><ele>15.0</ele><time>2026-05-05T12:50:05.266Z</time></trkpt><trkpt lat="45.8705562" lon="13.3975394"><ele>15.0</ele><time>2026-05-05T12:50:06.266Z</time></trkpt><trkpt lat="45.8706528" lon="13.3971466"><ele>14.5</ele><time>2026-05-05T12:50:07.267Z</time></trkpt><trkpt lat="45.870752" lon="13.3967589"><ele>14.0</ele><time>2026-05-05T12:50:08.266Z</time></trkpt><trkpt lat="45.8708522" lon="13.3963687"><ele>14.5</ele><time>2026-05-05T12:50:09.267Z</time></trkpt><trkpt lat="45.8709498" lon="13.395973"><ele>15.0</ele><time>2026-05-05T12:50:10.267Z</time></trkpt><trkpt lat="45.8710441" lon="13.3955776"><ele>14.5</ele><time>2026-05-05T12:50:11.267Z</time></trkpt><trkpt lat="45.871145" lon="13.3951797"><ele>14.0</ele><time>2026-05-05T12:50:12.266Z</time></trkpt><trkpt lat="45.8712461" lon="13.3947773"><ele>14.5</ele><time>2026-05-05T12:50:13.267Z</time></trkpt><trkpt lat="45.8713403" lon="13.3943758"><ele>15.0</ele><time>2026-05-05T12:50:14.266Z</time></trkpt><trkpt lat="45.871439" lon="13.3939768"><ele>14.5</ele><time>2026-05-05T12:50:15.267Z</time></trkpt><trkpt lat="45.8715377" lon="13.3935769"><ele>14.0</ele><time>2026-05-05T12:50:16.266Z</time></trkpt><trkpt lat="45.8716398" lon="13.3931778"><ele>15.0</ele><time>2026-05-05T12:50:17.267Z</time></trkpt><trkpt lat="45.8717381" lon="13.3927811"><ele>16.0</ele><time>2026-05-05T12:50:18.266Z</time></trkpt><trkpt lat="45.8718368" lon="13.3923836"><ele>16.5</ele><time>2026-05-05T12:50:19.266Z</time></trkpt><trkpt lat="45.8719378" lon="13.3919815"><ele>17.0</ele><time>2026-05-05T12:50:20.266Z</time></trkpt><trkpt lat="45.8720369" lon="13.3915802"><ele>17.0</ele><time>2026-05-05T12:50:21.267Z</time></trkpt><trkpt lat="45.8721337" lon="13.3911879"><ele>17.0</ele><time>2026-05-05T12:50:22.266Z</time></trkpt><trkpt lat="45.8722302" lon="13.3907953"><ele>16.0</ele><time>2026-05-05T12:50:23.266Z</time></trkpt><trkpt lat="45.8723314" lon="13.3904104"><ele>15.0</ele><time>2026-05-05T12:50:24.266Z</time></trkpt><trkpt lat="45.8724322" lon="13.3900307"><ele>15.0</ele><time>2026-05-05T12:50:25.266Z</time></trkpt><trkpt lat="45.8725306" lon="13.3896547"><ele>15.0</ele><time>2026-05-05T12:50:26.267Z</time></trkpt><trkpt lat="45.8726301" lon="13.3892874"><ele>15.5</ele><time>2026-05-05T12:50:27.267Z</time></trkpt><trkpt lat="45.8727279" lon="13.388925"><ele>16.0</ele><time>2026-05-05T12:50:28.266Z</time></trkpt><trkpt lat="45.8728189" lon="13.3885663"><ele>16.0</ele><time>2026-05-05T12:50:29.266Z</time></trkpt><trkpt lat="45.872909" lon="13.3882131"><ele>16.0</ele><time>2026-05-05T12:50:30.267Z</time></trkpt><trkpt lat="45.8729932" lon="13.3878659"><ele>16.0</ele><time>2026-05-05T12:50:31.267Z</time></trkpt><trkpt lat="45.8730809" lon="13.3875221"><ele>16.0</ele><time>2026-05-05T12:50:32.267Z</time></trkpt><trkpt lat="45.8731668" lon="13.3871791"><ele>15.5</ele><time>2026-05-05T12:50:33.267Z</time></trkpt><trkpt lat="45.873253" lon="13.3868429"><ele>15.0</ele><time>2026-05-05T12:50:34.266Z</time></trkpt><trkpt lat="45.8733368" lon="13.3865022"><ele>15.0</ele><time>2026-05-05T12:50:35.267Z</time></trkpt><trkpt lat="45.8734226" lon="13.3861676"><ele>15.0</ele><time>2026-05-05T12:50:36.267Z</time></trkpt><trkpt lat="45.8735085" lon="13.3858343"><ele>14.0</ele><time>2026-05-05T12:50:37.267Z</time></trkpt><trkpt lat="45.8735911" lon="13.3854924"><ele>13.0</ele><time>2026-05-05T12:50:38.267Z</time></trkpt><trkpt lat="45.8736714" lon="13.3851549"><ele>13.0</ele><time>2026-05-05T12:50:39.266Z</time></trkpt><trkpt lat="45.8737523" lon="13.384818"><ele>13.0</ele><time>2026-05-05T12:50:40.267Z</time></trkpt><trkpt lat="45.873836" lon="13.3844831"><ele>14.0</ele><time>2026-05-05T12:50:41.267Z</time></trkpt><trkpt lat="45.8739241" lon="13.3841441"><ele>15.0</ele><time>2026-05-05T12:50:42.267Z</time></trkpt><trkpt lat="45.8740082" lon="13.3838026"><ele>15.0</ele><time>2026-05-05T12:50:43.266Z</time></trkpt><trkpt lat="45.8740922" lon="13.3834651"><ele>15.0</ele><time>2026-05-05T12:50:44.267Z</time></trkpt><trkpt lat="45.8741747" lon="13.3831324"><ele>15.0</ele><time>2026-05-05T12:50:45.267Z</time></trkpt><trkpt lat="45.8742573" lon="13.3827936"><ele>15.0</ele><time>2026-05-05T12:50:46.266Z</time></trkpt><trkpt lat="45.8743397" lon="13.3824565"><ele>16.5</ele><time>2026-05-05T12:50:47.267Z</time></trkpt><trkpt lat="45.8744234" lon="13.3821178"><ele>18.0</ele><time>2026-05-05T12:50:48.266Z</time></trkpt><trkpt lat="45.8745095" lon="13.3817766"><ele>18.0</ele><time>2026-05-05T12:50:49.267Z</time></trkpt><trkpt lat="45.8746001" lon="13.381436"><ele>18.0</ele><time>2026-05-05T12:50:50.267Z</time></trkpt><trkpt lat="45.8746849" lon="13.3811"><ele>17.5</ele><time>2026-05-05T12:50:51.267Z</time></trkpt><trkpt lat="45.8747668" lon="13.3807683"><ele>17.0</ele><time>2026-05-05T12:50:52.266Z</time></trkpt><trkpt lat="45.8748488" lon="13.3804342"><ele>17.0</ele><time>2026-05-05T12:50:53.267Z</time></trkpt><trkpt lat="45.8749311" lon="13.3800989"><ele>17.0</ele><time>2026-05-05T12:50:54.266Z</time></trkpt><trkpt lat="45.8750122" lon="13.3797643"><ele>17.0</ele><time>2026-05-05T12:50:55.267Z</time></trkpt><trkpt lat="45.8750959" lon="13.379432"><ele>17.0</ele><time>2026-05-05T12:50:56.267Z</time></trkpt><trkpt lat="45.8751834" lon="13.3791024"><ele>16.0</ele><time>2026-05-05T12:50:57.267Z</time></trkpt><trkpt lat="45.8752655" lon="13.3787671"><ele>15.0</ele><time>2026-05-05T12:50:58.266Z</time></trkpt><trkpt lat="45.8753452" lon="13.3784348"><ele>15.0</ele><time>2026-05-05T12:50:59.267Z</time></trkpt><trkpt lat="45.8754248" lon="13.3780983"><ele>15.0</ele><time>2026-05-05T12:51:00.267Z</time></trkpt><trkpt lat="45.8755069" lon="13.3777627"><ele>15.0</ele><time>2026-05-05T12:51:01.267Z</time></trkpt><trkpt lat="45.875587" lon="13.3774295"><ele>15.0</ele><time>2026-05-05T12:51:02.266Z</time></trkpt><trkpt lat="45.8756694" lon="13.3770944"><ele>15.5</ele><time>2026-05-05T12:51:03.266Z</time></trkpt><trkpt lat="45.8757562" lon="13.3767633"><ele>16.0</ele><time>2026-05-05T12:51:04.267Z</time></trkpt><trkpt lat="45.8758389" lon="13.376424"><ele>15.5</ele><time>2026-05-05T12:51:05.267Z</time></trkpt><trkpt lat="45.8759242" lon="13.3760905"><ele>15.0</ele><time>2026-05-05T12:51:06.266Z</time></trkpt><trkpt lat="45.8760107" lon="13.37575"><ele>15.0</ele><time>2026-05-05T12:51:07.267Z</time></trkpt><trkpt lat="45.8760978" lon="13.3754101"><ele>15.0</ele><time>2026-05-05T12:51:08.266Z</time></trkpt><trkpt lat="45.8761799" lon="13.375073"><ele>15.0</ele><time>2026-05-05T12:51:09.267Z</time></trkpt><trkpt lat="45.8762648" lon="13.374736"><ele>15.0</ele><time>2026-05-05T12:51:10.266Z</time></trkpt><trkpt lat="45.8763445" lon="13.3743987"><ele>14.5</ele><time>2026-05-05T12:51:11.267Z</time></trkpt><trkpt lat="45.8764302" lon="13.3740615"><ele>14.0</ele><time>2026-05-05T12:51:12.266Z</time></trkpt><trkpt lat="45.8765157" lon="13.3737296"><ele>13.5</ele><time>2026-05-05T12:51:13.266Z</time></trkpt><trkpt lat="45.8766003" lon="13.3733925"><ele>13.0</ele><time>2026-05-05T12:51:14.266Z</time></trkpt><trkpt lat="45.8766796" lon="13.3730565"><ele>13.0</ele><time>2026-05-05T12:51:15.266Z</time></trkpt><trkpt lat="45.8767584" lon="13.3727174"><ele>13.0</ele><time>2026-05-05T12:51:16.266Z</time></trkpt><trkpt lat="45.8768423" lon="13.3723825"><ele>13.5</ele><time>2026-05-05T12:51:17.266Z</time></trkpt><trkpt lat="45.8769268" lon="13.3720456"><ele>14.0</ele><time>2026-05-05T12:51:18.267Z</time></trkpt><trkpt lat="45.8770124" lon="13.3717104"><ele>14.0</ele><time>2026-05-05T12:51:19.267Z</time></trkpt><trkpt lat="45.8770936" lon="13.3713784"><ele>14.0</ele><time>2026-05-05T12:51:20.266Z</time></trkpt><trkpt lat="45.8771713" lon="13.3710423"><ele>14.5</ele><time>2026-05-05T12:51:21.266Z</time></trkpt><trkpt lat="45.8772578" lon="13.3707134"><ele>15.0</ele><time>2026-05-05T12:51:22.266Z</time></trkpt><trkpt lat="45.8773412" lon="13.3703795"><ele>15.5</ele><time>2026-05-05T12:51:23.266Z</time></trkpt><trkpt lat="45.8774228" lon="13.3700402"><ele>16.0</ele><time>2026-05-05T12:51:24.267Z</time></trkpt><trkpt lat="45.8775063" lon="13.3697118"><ele>16.5</ele><time>2026-05-05T12:51:25.267Z</time></trkpt><trkpt lat="45.8775909" lon="13.3693664"><ele>17.0</ele><time>2026-05-05T12:51:26.267Z</time></trkpt><trkpt lat="45.8776797" lon="13.3690211"><ele>18.0</ele><time>2026-05-05T12:51:27.266Z</time></trkpt><trkpt lat="45.8777655" lon="13.3686729"><ele>19.0</ele><time>2026-05-05T12:51:28.266Z</time></trkpt><trkpt lat="45.8778554" lon="13.3683281"><ele>18.0</ele><time>2026-05-05T12:51:29.267Z</time></trkpt><trkpt lat="45.8779445" lon="13.3679793"><ele>17.0</ele><time>2026-05-05T12:51:30.267Z</time></trkpt><trkpt lat="45.8780271" lon="13.3676311"><ele>17.0</ele><time>2026-05-05T12:51:31.266Z</time></trkpt><trkpt lat="45.8781109" lon="13.3672762"><ele>17.0</ele><time>2026-05-05T12:51:32.267Z</time></trkpt><trkpt lat="45.8781985" lon="13.3669199"><ele>16.0</ele><time>2026-05-05T12:51:33.266Z</time></trkpt><trkpt lat="45.8782896" lon="13.3665642"><ele>15.0</ele><time>2026-05-05T12:51:34.267Z</time></trkpt><trkpt lat="45.878378" lon="13.3662061"><ele>15.5</ele><time>2026-05-05T12:51:35.266Z</time></trkpt><trkpt lat="45.8784709" lon="13.365852"><ele>16.0</ele><time>2026-05-05T12:51:36.266Z</time></trkpt><trkpt lat="45.8785613" lon="13.3654912"><ele>17.5</ele><time>2026-05-05T12:51:37.267Z</time></trkpt><trkpt lat="45.878648" lon="13.3651305"><ele>19.0</ele><time>2026-05-05T12:51:38.266Z</time></trkpt><trkpt lat="45.8787318" lon="13.3647694"><ele>18.0</ele><time>2026-05-05T12:51:39.267Z</time></trkpt><trkpt lat="45.8788184" lon="13.364409"><ele>17.0</ele><time>2026-05-05T12:51:40.266Z</time></trkpt><trkpt lat="45.8789042" lon="13.3640372"><ele>15.5</ele><time>2026-05-05T12:51:41.267Z</time></trkpt><trkpt lat="45.8789931" lon="13.3636597"><ele>14.0</ele><time>2026-05-05T12:51:42.267Z</time></trkpt><trkpt lat="45.8790887" lon="13.3632744"><ele>14.5</ele><time>2026-05-05T12:51:43.267Z</time></trkpt><trkpt lat="45.8791856" lon="13.3628824"><ele>15.0</ele><time>2026-05-05T12:51:44.267Z</time></trkpt><trkpt lat="45.8792796" lon="13.3624903"><ele>15.5</ele><time>2026-05-05T12:51:45.266Z</time></trkpt><trkpt lat="45.8793735" lon="13.3620989"><ele>16.0</ele><time>2026-05-05T12:51:46.267Z</time></trkpt><trkpt lat="45.879469" lon="13.3617085"><ele>16.0</ele><time>2026-05-05T12:51:47.266Z</time></trkpt><trkpt lat="45.8795633" lon="13.3613204"><ele>16.0</ele><time>2026-05-05T12:51:48.267Z</time></trkpt><trkpt lat="45.8796593" lon="13.3609349"><ele>16.0</ele><time>2026-05-05T12:51:49.267Z</time></trkpt><trkpt lat="45.8797547" lon="13.3605512"><ele>16.0</ele><time>2026-05-05T12:51:50.267Z</time></trkpt><trkpt lat="45.8798489" lon="13.3601663"><ele>16.0</ele><time>2026-05-05T12:51:51.267Z</time></trkpt><trkpt lat="45.879948" lon="13.3597865"><ele>16.0</ele><time>2026-05-05T12:51:52.266Z</time></trkpt><trkpt lat="45.8800439" lon="13.3594111"><ele>16.5</ele><time>2026-05-05T12:51:53.266Z</time></trkpt><trkpt lat="45.8801387" lon="13.3590359"><ele>17.0</ele><time>2026-05-05T12:51:54.267Z</time></trkpt><trkpt lat="45.8802261" lon="13.3586646"><ele>16.0</ele><time>2026-05-05T12:51:55.267Z</time></trkpt><trkpt lat="45.8803177" lon="13.3582944"><ele>15.0</ele><time>2026-05-05T12:51:56.266Z</time></trkpt><trkpt lat="45.8804079" lon="13.3579326"><ele>15.0</ele><time>2026-05-05T12:51:57.267Z</time></trkpt><trkpt lat="45.880502" lon="13.3575735"><ele>15.0</ele><time>2026-05-05T12:51:58.267Z</time></trkpt><trkpt lat="45.8805977" lon="13.3572156"><ele>16.0</ele><time>2026-05-05T12:51:59.267Z</time></trkpt><trkpt lat="45.8806946" lon="13.3568589"><ele>17.0</ele><time>2026-05-05T12:52:00.266Z</time></trkpt><trkpt lat="45.880786" lon="13.3565081"><ele>16.5</ele><time>2026-05-05T12:52:01.266Z</time></trkpt><trkpt lat="45.8808738" lon="13.3561631"><ele>16.0</ele><time>2026-05-05T12:52:02.266Z</time></trkpt><trkpt lat="45.8809592" lon="13.3558238"><ele>16.0</ele><time>2026-05-05T12:52:03.266Z</time></trkpt><trkpt lat="45.8810409" lon="13.3554896"><ele>16.0</ele><time>2026-05-05T12:52:04.266Z</time></trkpt><trkpt lat="45.8811254" lon="13.3551559"><ele>16.0</ele><time>2026-05-05T12:52:05.266Z</time></trkpt><trkpt lat="45.8812073" lon="13.3548247"><ele>16.0</ele><time>2026-05-05T12:52:06.266Z</time></trkpt><trkpt lat="45.88129" lon="13.3544945"><ele>16.5</ele><time>2026-05-05T12:52:07.267Z</time></trkpt><trkpt lat="45.8813749" lon="13.3541683"><ele>17.0</ele><time>2026-05-05T12:52:08.267Z</time></trkpt><trkpt lat="45.8814512" lon="13.3538406"><ele>18.0</ele><time>2026-05-05T12:52:09.267Z</time></trkpt><trkpt lat="45.8815315" lon="13.3535032"><ele>19.0</ele><time>2026-05-05T12:52:10.266Z</time></trkpt><trkpt lat="45.8816125" lon="13.353171"><ele>19.0</ele><time>2026-05-05T12:52:11.266Z</time></trkpt><trkpt lat="45.881696" lon="13.3528402"><ele>19.0</ele><time>2026-05-05T12:52:12.267Z</time></trkpt><trkpt lat="45.8817799" lon="13.3525152"><ele>18.0</ele><time>2026-05-05T12:52:13.266Z</time></trkpt><trkpt lat="45.8818634" lon="13.3521877"><ele>17.0</ele><time>2026-05-05T12:52:14.267Z</time></trkpt><trkpt lat="45.8819441" lon="13.3518579"><ele>17.0</ele><time>2026-05-05T12:52:15.266Z</time></trkpt><trkpt lat="45.8820256" lon="13.3515299"><ele>17.0</ele><time>2026-05-05T12:52:16.266Z</time></trkpt><trkpt lat="45.8821075" lon="13.3512087"><ele>17.0</ele><time>2026-05-05T12:52:17.266Z</time></trkpt><trkpt lat="45.8821898" lon="13.3508868"><ele>17.0</ele><time>2026-05-05T12:52:18.267Z</time></trkpt><trkpt lat="45.8822671" lon="13.3505629"><ele>17.5</ele><time>2026-05-05T12:52:19.266Z</time></trkpt><trkpt lat="45.8823468" lon="13.3502412"><ele>18.0</ele><time>2026-05-05T12:52:20.267Z</time></trkpt><trkpt lat="45.8824336" lon="13.3499153"><ele>18.0</ele><time>2026-05-05T12:52:21.267Z</time></trkpt><trkpt lat="45.88252" lon="13.3495928"><ele>18.0</ele><time>2026-05-05T12:52:22.267Z</time></trkpt><trkpt lat="45.8825981" lon="13.349271"><ele>18.0</ele><time>2026-05-05T12:52:23.266Z</time></trkpt><trkpt lat="45.8826778" lon="13.3489446"><ele>18.0</ele><time>2026-05-05T12:52:24.266Z</time></trkpt><trkpt lat="45.8827594" lon="13.3486163"><ele>18.0</ele><time>2026-05-05T12:52:25.266Z</time></trkpt><trkpt lat="45.8828414" lon="13.3482864"><ele>18.0</ele><time>2026-05-05T12:52:26.267Z</time></trkpt><trkpt lat="45.8829249" lon="13.3479551"><ele>18.5</ele><time>2026-05-05T12:52:27.266Z</time></trkpt><trkpt lat="45.8830054" lon="13.3476217"><ele>19.0</ele><time>2026-05-05T12:52:28.266Z</time></trkpt><trkpt lat="45.8830874" lon="13.3472847"><ele>19.5</ele><time>2026-05-05T12:52:29.266Z</time></trkpt><trkpt lat="45.8831737" lon="13.3469513"><ele>20.0</ele><time>2026-05-05T12:52:30.267Z</time></trkpt><trkpt lat="45.883255" lon="13.3466169"><ele>20.0</ele><time>2026-05-05T12:52:31.266Z</time></trkpt><trkpt lat="45.8833374" lon="13.3462837"><ele>20.0</ele><time>2026-05-05T12:52:32.267Z</time></trkpt><trkpt lat="45.8834198" lon="13.3459524"><ele>20.0</ele><time>2026-05-05T12:52:33.267Z</time></trkpt><trkpt lat="45.8835041" lon="13.3456238"><ele>20.0</ele><time>2026-05-05T12:52:34.267Z</time></trkpt><trkpt lat="45.8835844" lon="13.3452969"><ele>19.0</ele><time>2026-05-05T12:52:35.267Z</time></trkpt><trkpt lat="45.8836628" lon="13.3449725"><ele>18.0</ele><time>2026-05-05T12:52:36.267Z</time></trkpt><trkpt lat="45.8837424" lon="13.3446492"><ele>17.0</ele><time>2026-05-05T12:52:37.267Z</time></trkpt><trkpt lat="45.8838209" lon="13.344327"><ele>16.0</ele><time>2026-05-05T12:52:38.267Z</time></trkpt><trkpt lat="45.8838999" lon="13.3440053"><ele>17.0</ele><time>2026-05-05T12:52:39.267Z</time></trkpt><trkpt lat="45.8839774" lon="13.3436776"><ele>18.0</ele><time>2026-05-05T12:52:40.266Z</time></trkpt><trkpt lat="45.8840528" lon="13.3433512"><ele>19.5</ele><time>2026-05-05T12:52:41.267Z</time></trkpt><trkpt lat="45.8841291" lon="13.3430234"><ele>21.0</ele><time>2026-05-05T12:52:42.267Z</time></trkpt><trkpt lat="45.884206" lon="13.342697"><ele>20.5</ele><time>2026-05-05T12:52:43.267Z</time></trkpt><trkpt lat="45.8842807" lon="13.3423666"><ele>20.0</ele><time>2026-05-05T12:52:44.267Z</time></trkpt><trkpt lat="45.8843617" lon="13.3420345"><ele>20.0</ele><time>2026-05-05T12:52:45.266Z</time></trkpt><trkpt lat="45.8844473" lon="13.3417037"><ele>20.0</ele><time>2026-05-05T12:52:46.267Z</time></trkpt><trkpt lat="45.8845272" lon="13.3413666"><ele>19.5</ele><time>2026-05-05T12:52:47.267Z</time></trkpt><trkpt lat="45.8846053" lon="13.3410262"><ele>19.0</ele><time>2026-05-05T12:52:48.267Z</time></trkpt><trkpt lat="45.8846809" lon="13.3406897"><ele>18.0</ele><time>2026-05-05T12:52:49.266Z</time></trkpt><trkpt lat="45.884761" lon="13.3403551"><ele>17.0</ele><time>2026-05-05T12:52:50.267Z</time></trkpt><trkpt lat="45.8848495" lon="13.3400212"><ele>17.0</ele><time>2026-05-05T12:52:51.267Z</time></trkpt><trkpt lat="45.8849363" lon="13.3396857"><ele>17.0</ele><time>2026-05-05T12:52:52.267Z</time></trkpt><trkpt lat="45.8850183" lon="13.3393441"><ele>16.5</ele><time>2026-05-05T12:52:53.266Z</time></trkpt><trkpt lat="45.885104" lon="13.3389955"><ele>16.0</ele><time>2026-05-05T12:52:54.267Z</time></trkpt><trkpt lat="45.8851904" lon="13.3386499"><ele>16.0</ele><time>2026-05-05T12:52:55.267Z</time></trkpt><trkpt lat="45.8852742" lon="13.3383065"><ele>16.0</ele><time>2026-05-05T12:52:56.267Z</time></trkpt><trkpt lat="45.8853649" lon="13.3379583"><ele>17.0</ele><time>2026-05-05T12:52:57.267Z</time></trkpt><trkpt lat="45.8854547" lon="13.3376093"><ele>18.0</ele><time>2026-05-05T12:52:58.267Z</time></trkpt><trkpt lat="45.8855432" lon="13.3372518"><ele>18.0</ele><time>2026-05-05T12:52:59.267Z</time></trkpt><trkpt lat="45.8856337" lon="13.3368996"><ele>18.0</ele><time>2026-05-05T12:53:00.267Z</time></trkpt><trkpt lat="45.8857224" lon="13.3365436"><ele>18.0</ele><time>2026-05-05T12:53:01.267Z</time></trkpt><trkpt lat="45.8858084" lon="13.3361887"><ele>18.0</ele><time>2026-05-05T12:53:02.267Z</time></trkpt><trkpt lat="45.8858918" lon="13.3358367"><ele>17.5</ele><time>2026-05-05T12:53:03.267Z</time></trkpt><trkpt lat="45.8859817" lon="13.3354827"><ele>17.0</ele><time>2026-05-05T12:53:04.266Z</time></trkpt><trkpt lat="45.8860703" lon="13.3351215"><ele>17.0</ele><time>2026-05-05T12:53:05.267Z</time></trkpt><trkpt lat="45.8861543" lon="13.3347587"><ele>17.0</ele><time>2026-05-05T12:53:06.266Z</time></trkpt><trkpt lat="45.8862416" lon="13.3343916"><ele>17.5</ele><time>2026-05-05T12:53:07.267Z</time></trkpt><trkpt lat="45.8863315" lon="13.3340316"><ele>18.0</ele><time>2026-05-05T12:53:08.266Z</time></trkpt><trkpt lat="45.8864234" lon="13.3336693"><ele>18.0</ele><time>2026-05-05T12:53:09.267Z</time></trkpt><trkpt lat="45.8865122" lon="13.3333076"><ele>18.0</ele><time>2026-05-05T12:53:10.266Z</time></trkpt><trkpt lat="45.8866048" lon="13.3329472"><ele>18.5</ele><time>2026-05-05T12:53:11.267Z</time></trkpt><trkpt lat="45.886698" lon="13.3325894"><ele>19.0</ele><time>2026-05-05T12:53:12.267Z</time></trkpt><trkpt lat="45.8867854" lon="13.3322259"><ele>18.5</ele><time>2026-05-05T12:53:13.267Z</time></trkpt><trkpt lat="45.8868684" lon="13.3318617"><ele>18.0</ele><time>2026-05-05T12:53:14.267Z</time></trkpt><trkpt lat="45.8869581" lon="13.3315009"><ele>17.0</ele><time>2026-05-05T12:53:15.267Z</time></trkpt><trkpt lat="45.8870491" lon="13.331133"><ele>16.0</ele><time>2026-05-05T12:53:16.267Z</time></trkpt><trkpt lat="45.887141" lon="13.3307666"><ele>15.0</ele><time>2026-05-05T12:53:17.267Z</time></trkpt><trkpt lat="45.8872309" lon="13.3303965"><ele>14.0</ele><time>2026-05-05T12:53:18.267Z</time></trkpt><trkpt lat="45.8873256" lon="13.3300245"><ele>15.0</ele><time>2026-05-05T12:53:19.266Z</time></trkpt><trkpt lat="45.8874204" lon="13.3296486"><ele>16.0</ele><time>2026-05-05T12:53:20.267Z</time></trkpt><trkpt lat="45.8875147" lon="13.3292706"><ele>16.0</ele><time>2026-05-05T12:53:21.267Z</time></trkpt><trkpt lat="45.8876086" lon="13.3288978"><ele>16.0</ele><time>2026-05-05T12:53:22.267Z</time></trkpt><trkpt lat="45.8877125" lon="13.328533"><ele>16.0</ele><time>2026-05-05T12:53:23.267Z</time></trkpt><trkpt lat="45.8878105" lon="13.3281629"><ele>16.0</ele><time>2026-05-05T12:53:24.267Z</time></trkpt><trkpt lat="45.887908" lon="13.3277976"><ele>17.5</ele><time>2026-05-05T12:53:25.267Z</time></trkpt><trkpt lat="45.8880023" lon="13.3274336"><ele>19.0</ele><time>2026-05-05T12:53:26.267Z</time></trkpt><trkpt lat="45.8880955" lon="13.3270707"><ele>20.0</ele><time>2026-05-05T12:53:27.267Z</time></trkpt><trkpt lat="45.8881843" lon="13.3267085"><ele>21.0</ele><time>2026-05-05T12:53:28.266Z</time></trkpt><trkpt lat="45.8882767" lon="13.3263518"><ele>21.0</ele><time>2026-05-05T12:53:29.266Z</time></trkpt><trkpt lat="45.8883661" lon="13.3260016"><ele>21.0</ele><time>2026-05-05T12:53:30.267Z</time></trkpt><trkpt lat="45.8884542" lon="13.3256526"><ele>21.0</ele><time>2026-05-05T12:53:31.266Z</time></trkpt><trkpt lat="45.8885424" lon="13.3253033"><ele>21.0</ele><time>2026-05-05T12:53:32.267Z</time></trkpt><trkpt lat="45.8886313" lon="13.3249564"><ele>20.5</ele><time>2026-05-05T12:53:33.266Z</time></trkpt><trkpt lat="45.8887205" lon="13.324608"><ele>20.0</ele><time>2026-05-05T12:53:34.267Z</time></trkpt><trkpt lat="45.8888117" lon="13.3242606"><ele>20.0</ele><time>2026-05-05T12:53:35.266Z</time></trkpt><trkpt lat="45.8888984" lon="13.3239104"><ele>20.0</ele><time>2026-05-05T12:53:36.266Z</time></trkpt><trkpt lat="45.8889819" lon="13.323558"><ele>20.0</ele><time>2026-05-05T12:53:37.267Z</time></trkpt><trkpt lat="45.889067" lon="13.3232034"><ele>20.0</ele><time>2026-05-05T12:53:38.266Z</time></trkpt><trkpt lat="45.8891545" lon="13.3228489"><ele>19.0</ele><time>2026-05-05T12:53:39.267Z</time></trkpt><trkpt lat="45.8892422" lon="13.3225044"><ele>18.0</ele><time>2026-05-05T12:53:40.267Z</time></trkpt><trkpt lat="45.8893287" lon="13.3221515"><ele>17.5</ele><time>2026-05-05T12:53:41.267Z</time></trkpt><trkpt lat="45.8894159" lon="13.3218044"><ele>17.0</ele><time>2026-05-05T12:53:42.266Z</time></trkpt><trkpt lat="45.8895036" lon="13.3214576"><ele>17.5</ele><time>2026-05-05T12:53:43.267Z</time></trkpt><trkpt lat="45.8895919" lon="13.3211068"><ele>18.0</ele><time>2026-05-05T12:53:44.267Z</time></trkpt><trkpt lat="45.8896783" lon="13.3207571"><ele>18.0</ele><time>2026-05-05T12:53:45.266Z</time></trkpt><trkpt lat="45.8897619" lon="13.3204084"><ele>18.0</ele><time>2026-05-05T12:53:46.266Z</time></trkpt><trkpt lat="45.8898482" lon="13.3200604"><ele>18.0</ele><time>2026-05-05T12:53:47.266Z</time></trkpt><trkpt lat="45.8899313" lon="13.3197105"><ele>18.0</ele><time>2026-05-05T12:53:48.266Z</time></trkpt><trkpt lat="45.8900193" lon="13.3193634"><ele>18.5</ele><time>2026-05-05T12:53:49.267Z</time></trkpt><trkpt lat="45.8901053" lon="13.3190131"><ele>19.0</ele><time>2026-05-05T12:53:50.266Z</time></trkpt><trkpt lat="45.8901882" lon="13.3186603"><ele>19.0</ele><time>2026-05-05T12:53:51.266Z</time></trkpt><trkpt lat="45.8902763" lon="13.3183024"><ele>19.0</ele><time>2026-05-05T12:53:52.266Z</time></trkpt><trkpt lat="45.8903622" lon="13.3179406"><ele>20.5</ele><time>2026-05-05T12:53:53.266Z</time></trkpt><trkpt lat="45.890451" lon="13.3175778"><ele>22.0</ele><time>2026-05-05T12:53:54.267Z</time></trkpt><trkpt lat="45.890536" lon="13.3172162"><ele>22.0</ele><time>2026-05-05T12:53:55.267Z</time></trkpt><trkpt lat="45.8906229" lon="13.3168519"><ele>22.0</ele><time>2026-05-05T12:53:56.266Z</time></trkpt><trkpt lat="45.8907146" lon="13.3164868"><ele>22.5</ele><time>2026-05-05T12:53:57.266Z</time></trkpt><trkpt lat="45.8908011" lon="13.31612"><ele>23.0</ele><time>2026-05-05T12:53:58.267Z</time></trkpt><trkpt lat="45.8908869" lon="13.3157511"><ele>19.5</ele><time>2026-05-05T12:53:59.267Z</time></trkpt><trkpt lat="45.8909703" lon="13.3153822"><ele>16.0</ele><time>2026-05-05T12:54:00.267Z</time></trkpt><trkpt lat="45.8910527" lon="13.3150129"><ele>16.5</ele><time>2026-05-05T12:54:01.266Z</time></trkpt><trkpt lat="45.8911349" lon="13.3146481"><ele>17.0</ele><time>2026-05-05T12:54:02.266Z</time></trkpt><trkpt lat="45.8912194" lon="13.3142778"><ele>17.0</ele><time>2026-05-05T12:54:03.266Z</time></trkpt><trkpt lat="45.8913056" lon="13.3139054"><ele>17.0</ele><time>2026-05-05T12:54:04.266Z</time></trkpt><trkpt lat="45.8913862" lon="13.3135345"><ele>18.0</ele><time>2026-05-05T12:54:05.267Z</time></trkpt><trkpt lat="45.8914643" lon="13.3131663"><ele>19.0</ele><time>2026-05-05T12:54:06.266Z</time></trkpt><trkpt lat="45.8915449" lon="13.3127981"><ele>20.5</ele><time>2026-05-05T12:54:07.267Z</time></trkpt><trkpt lat="45.8916271" lon="13.3124384"><ele>22.0</ele><time>2026-05-05T12:54:08.267Z</time></trkpt><trkpt lat="45.8917051" lon="13.3120691"><ele>21.5</ele><time>2026-05-05T12:54:09.266Z</time></trkpt><trkpt lat="45.8917884" lon="13.3117018"><ele>21.0</ele><time>2026-05-05T12:54:10.267Z</time></trkpt><trkpt lat="45.8918701" lon="13.3113323"><ele>21.0</ele><time>2026-05-05T12:54:11.266Z</time></trkpt><trkpt lat="45.8919487" lon="13.3109704"><ele>21.0</ele><time>2026-05-05T12:54:12.267Z</time></trkpt><trkpt lat="45.8920252" lon="13.3106235"><ele>21.5</ele><time>2026-05-05T12:54:13.267Z</time></trkpt><trkpt lat="45.8920971" lon="13.3102839"><ele>22.0</ele><time>2026-05-05T12:54:14.267Z</time></trkpt><trkpt lat="45.8921709" lon="13.3099571"><ele>21.5</ele><time>2026-05-05T12:54:15.267Z</time></trkpt><trkpt lat="45.8922419" lon="13.3096425"><ele>21.0</ele><time>2026-05-05T12:54:16.267Z</time></trkpt><trkpt lat="45.8923098" lon="13.3093258"><ele>21.0</ele><time>2026-05-05T12:54:17.266Z</time></trkpt><trkpt lat="45.8923765" lon="13.3090164"><ele>21.0</ele><time>2026-05-05T12:54:18.267Z</time></trkpt><trkpt lat="45.892446" lon="13.3087123"><ele>21.0</ele><time>2026-05-05T12:54:19.266Z</time></trkpt><trkpt lat="45.8925135" lon="13.3084096"><ele>21.333333333333332</ele><time>2026-05-05T12:54:20.267Z</time></trkpt><trkpt lat="45.8925774" lon="13.3081076"><ele>21.666666666666664</ele><time>2026-05-05T12:54:21.267Z</time></trkpt><trkpt lat="45.8926429" lon="13.3078058"><ele>22.0</ele><time>2026-05-05T12:54:22.266Z</time></trkpt><trkpt lat="45.8927066" lon="13.3075087"><ele>21.666666666666664</ele><time>2026-05-05T12:54:23.267Z</time></trkpt><trkpt lat="45.8927738" lon="13.3072132"><ele>21.333333333333332</ele><time>2026-05-05T12:54:24.266Z</time></trkpt><trkpt lat="45.8928337" lon="13.30692"><ele>21.0</ele><time>2026-05-05T12:54:25.267Z</time></trkpt><trkpt lat="45.8928972" lon="13.3066249"><ele>21.0</ele><time>2026-05-05T12:54:26.267Z</time></trkpt><trkpt lat="45.8929567" lon="13.3063277"><ele>21.0</ele><time>2026-05-05T12:54:27.266Z</time></trkpt><trkpt lat="45.893019" lon="13.3060341"><ele>21.0</ele><time>2026-05-05T12:54:28.266Z</time></trkpt><trkpt lat="45.893081" lon="13.305742"><ele>21.666666666666668</ele><time>2026-05-05T12:54:29.267Z</time></trkpt><trkpt lat="45.8931464" lon="13.3054555"><ele>22.333333333333336</ele><time>2026-05-05T12:54:30.266Z</time></trkpt><trkpt lat="45.8932103" lon="13.3051661"><ele>23.0</ele><time>2026-05-05T12:54:31.267Z</time></trkpt><trkpt lat="45.8932776" lon="13.3048722"><ele>22.333333333333336</ele><time>2026-05-05T12:54:32.267Z</time></trkpt><trkpt lat="45.8933417" lon="13.3045783"><ele>21.666666666666668</ele><time>2026-05-05T12:54:33.266Z</time></trkpt><trkpt lat="45.8934007" lon="13.3042824"><ele>21.0</ele><time>2026-05-05T12:54:34.267Z</time></trkpt><trkpt lat="45.8934712" lon="13.3039915"><ele>20.333333333333332</ele><time>2026-05-05T12:54:35.266Z</time></trkpt><trkpt lat="45.8935367" lon="13.3037032"><ele>19.666666666666664</ele><time>2026-05-05T12:54:36.267Z</time></trkpt><trkpt lat="45.8935978" lon="13.3034182"><ele>19.0</ele><time>2026-05-05T12:54:37.267Z</time></trkpt><trkpt lat="45.8936619" lon="13.3031389"><ele>19.666666666666664</ele><time>2026-05-05T12:54:38.267Z</time></trkpt><trkpt lat="45.8937259" lon="13.3028595"><ele>20.333333333333332</ele><time>2026-05-05T12:54:39.266Z</time></trkpt><trkpt lat="45.8937884" lon="13.3025745"><ele>21.0</ele><time>2026-05-05T12:54:40.266Z</time></trkpt><trkpt lat="45.8938541" lon="13.3022771"><ele>21.333333333333332</ele><time>2026-05-05T12:54:41.266Z</time></trkpt><trkpt lat="45.8939157" lon="13.3019735"><ele>21.666666666666664</ele><time>2026-05-05T12:54:42.267Z</time></trkpt><trkpt lat="45.8939825" lon="13.3016754"><ele>22.0</ele><time>2026-05-05T12:54:43.267Z</time></trkpt><trkpt lat="45.8940492" lon="13.3013771"><ele>22.0</ele><time>2026-05-05T12:54:44.266Z</time></trkpt><trkpt lat="45.8941128" lon="13.3010792"><ele>22.0</ele><time>2026-05-05T12:54:45.267Z</time></trkpt><trkpt lat="45.8941792" lon="13.3007862"><ele>22.0</ele><time>2026-05-05T12:54:46.267Z</time></trkpt><trkpt lat="45.8942434" lon="13.3004992"><ele>21.666666666666664</ele><time>2026-05-05T12:54:47.267Z</time></trkpt><trkpt lat="45.8943021" lon="13.3002257"><ele>21.333333333333332</ele><time>2026-05-05T12:54:48.267Z</time></trkpt><trkpt lat="45.8943576" lon="13.2999656"><ele>21.0</ele><time>2026-05-05T12:54:49.266Z</time></trkpt><trkpt lat="45.8944074" lon="13.2997103"><ele>21.0</ele><time>2026-05-05T12:54:50.267Z</time></trkpt><trkpt lat="45.8944569" lon="13.2994602"><ele>21.0</ele><time>2026-05-05T12:54:51.266Z</time></trkpt><trkpt lat="45.894505" lon="13.299214"><ele>21.0</ele><time>2026-05-05T12:54:52.266Z</time></trkpt><trkpt lat="45.8945575" lon="13.298962"><ele>20.666666666666668</ele><time>2026-05-05T12:54:53.266Z</time></trkpt><trkpt lat="45.8946114" lon="13.2987183"><ele>20.333333333333336</ele><time>2026-05-05T12:54:54.267Z</time></trkpt><trkpt lat="45.8946652" lon="13.2984672"><ele>20.0</ele><time>2026-05-05T12:54:55.267Z</time></trkpt><trkpt lat="45.8947145" lon="13.2982094"><ele>20.333333333333336</ele><time>2026-05-05T12:54:56.267Z</time></trkpt><trkpt lat="45.8947642" lon="13.2979527"><ele>20.666666666666668</ele><time>2026-05-05T12:54:57.267Z</time></trkpt><trkpt lat="45.894818" lon="13.2977008"><ele>21.0</ele><time>2026-05-05T12:54:58.266Z</time></trkpt><trkpt lat="45.8948705" lon="13.2974399"><ele>21.0</ele><time>2026-05-05T12:54:59.267Z</time></trkpt><trkpt lat="45.8949271" lon="13.2971811"><ele>21.0</ele><time>2026-05-05T12:55:00.266Z</time></trkpt><trkpt lat="45.8949872" lon="13.2969252"><ele>21.0</ele><time>2026-05-05T12:55:01.267Z</time></trkpt><trkpt lat="45.8950403" lon="13.2966623"><ele>20.333333333333332</ele><time>2026-05-05T12:55:02.267Z</time></trkpt><trkpt lat="45.8950972" lon="13.296397"><ele>19.666666666666664</ele><time>2026-05-05T12:55:03.267Z</time></trkpt><trkpt lat="45.8951533" lon="13.2961318"><ele>19.0</ele><time>2026-05-05T12:55:04.267Z</time></trkpt><trkpt lat="45.89521" lon="13.2958698"><ele>19.0</ele><time>2026-05-05T12:55:05.267Z</time></trkpt><trkpt lat="45.8952641" lon="13.2956103"><ele>19.0</ele><time>2026-05-05T12:55:06.266Z</time></trkpt><trkpt lat="45.8953163" lon="13.2953503"><ele>19.0</ele><time>2026-05-05T12:55:07.267Z</time></trkpt><trkpt lat="45.8953732" lon="13.2950885"><ele>20.0</ele><time>2026-05-05T12:55:08.266Z</time></trkpt><trkpt lat="45.8954345" lon="13.2948262"><ele>21.0</ele><time>2026-05-05T12:55:09.266Z</time></trkpt><trkpt lat="45.8954866" lon="13.2945669"><ele>22.0</ele><time>2026-05-05T12:55:10.266Z</time></trkpt><trkpt lat="45.8955418" lon="13.2943046"><ele>22.0</ele><time>2026-05-05T12:55:11.267Z</time></trkpt><trkpt lat="45.8956011" lon="13.2940428"><ele>22.0</ele><time>2026-05-05T12:55:12.266Z</time></trkpt><trkpt lat="45.8956569" lon="13.2937807"><ele>22.0</ele><time>2026-05-05T12:55:13.267Z</time></trkpt><trkpt lat="45.895715" lon="13.2935154"><ele>22.0</ele><time>2026-05-05T12:55:14.267Z</time></trkpt><trkpt lat="45.8957728" lon="13.2932585"><ele>22.0</ele><time>2026-05-05T12:55:15.267Z</time></trkpt><trkpt lat="45.8958323" lon="13.2929998"><ele>22.0</ele><time>2026-05-05T12:55:16.267Z</time></trkpt><trkpt lat="45.8958928" lon="13.2927432"><ele>21.333333333333332</ele><time>2026-05-05T12:55:17.266Z</time></trkpt><trkpt lat="45.8959575" lon="13.2924861"><ele>20.666666666666668</ele><time>2026-05-05T12:55:18.266Z</time></trkpt><trkpt lat="45.8960231" lon="13.2922258"><ele>20.0</ele><time>2026-05-05T12:55:19.266Z</time></trkpt><trkpt lat="45.8960935" lon="13.2919597"><ele>20.0</ele><time>2026-05-05T12:55:20.266Z</time></trkpt><trkpt lat="45.8961667" lon="13.2916929"><ele>20.0</ele><time>2026-05-05T12:55:21.267Z</time></trkpt><trkpt lat="45.8962378" lon="13.2914261"><ele>20.0</ele><time>2026-05-05T12:55:22.266Z</time></trkpt><trkpt lat="45.8963125" lon="13.2911625"><ele>21.333333333333336</ele><time>2026-05-05T12:55:23.267Z</time></trkpt><trkpt lat="45.8963892" lon="13.2909012"><ele>22.666666666666668</ele><time>2026-05-05T12:55:24.267Z</time></trkpt><trkpt lat="45.8964695" lon="13.2906449"><ele>24.0</ele><time>2026-05-05T12:55:25.266Z</time></trkpt><trkpt lat="45.8965524" lon="13.2903866"><ele>24.0</ele><time>2026-05-05T12:55:26.267Z</time></trkpt><trkpt lat="45.8966362" lon="13.2901204"><ele>24.0</ele><time>2026-05-05T12:55:27.266Z</time></trkpt><trkpt lat="45.8967152" lon="13.2898621"><ele>24.0</ele><time>2026-05-05T12:55:28.267Z</time></trkpt><trkpt lat="45.8967924" lon="13.2895997"><ele>24.0</ele><time>2026-05-05T12:55:29.266Z</time></trkpt><trkpt lat="45.896859" lon="13.2893394"><ele>24.0</ele><time>2026-05-05T12:55:30.266Z</time></trkpt><trkpt lat="45.8969214" lon="13.2890854"><ele>24.0</ele><time>2026-05-05T12:55:31.267Z</time></trkpt><trkpt lat="45.8969767" lon="13.2888301"><ele>24.0</ele><time>2026-05-05T12:55:32.267Z</time></trkpt><trkpt lat="45.8970216" lon="13.2885741"><ele>24.0</ele><time>2026-05-05T12:55:33.266Z</time></trkpt><trkpt lat="45.8970565" lon="13.288312"><ele>24.0</ele><time>2026-05-05T12:55:34.266Z</time></trkpt><trkpt lat="45.897081" lon="13.2880535"><ele>24.0</ele><time>2026-05-05T12:55:35.267Z</time></trkpt><trkpt lat="45.8971006" lon="13.287803"><ele>24.0</ele><time>2026-05-05T12:55:36.267Z</time></trkpt><trkpt lat="45.8971097" lon="13.287552"><ele>24.0</ele><time>2026-05-05T12:55:37.266Z</time></trkpt><trkpt lat="45.8971142" lon="13.2873015"><ele>23.333333333333332</ele><time>2026-05-05T12:55:38.266Z</time></trkpt><trkpt lat="45.897116" lon="13.2870564"><ele>22.666666666666664</ele><time>2026-05-05T12:55:39.267Z</time></trkpt><trkpt lat="45.8971096" lon="13.2868138"><ele>22.0</ele><time>2026-05-05T12:55:40.267Z</time></trkpt><trkpt lat="45.8970968" lon="13.2865759"><ele>22.666666666666664</ele><time>2026-05-05T12:55:41.266Z</time></trkpt><trkpt lat="45.8970799" lon="13.286342"><ele>23.333333333333332</ele><time>2026-05-05T12:55:42.266Z</time></trkpt><trkpt lat="45.8970472" lon="13.2860973"><ele>24.0</ele><time>2026-05-05T12:55:43.267Z</time></trkpt><trkpt lat="45.8970109" lon="13.2858529"><ele>24.0</ele><time>2026-05-05T12:55:44.267Z</time></trkpt><trkpt lat="45.8969705" lon="13.285608"><ele>24.0</ele><time>2026-05-05T12:55:45.267Z</time></trkpt><trkpt lat="45.896926" lon="13.285368"><ele>24.0</ele><time>2026-05-05T12:55:46.267Z</time></trkpt><trkpt lat="45.8968631" lon="13.28513"><ele>24.0</ele><time>2026-05-05T12:55:47.266Z</time></trkpt><trkpt lat="45.8967957" lon="13.2848989"><ele>24.0</ele><time>2026-05-05T12:55:48.267Z</time></trkpt><trkpt lat="45.8967188" lon="13.2846634"><ele>24.0</ele><time>2026-05-05T12:55:49.266Z</time></trkpt><trkpt lat="45.8966285" lon="13.2844285"><ele>24.666666666666664</ele><time>2026-05-05T12:55:50.267Z</time></trkpt><trkpt lat="45.8965417" lon="13.2841995"><ele>25.333333333333332</ele><time>2026-05-05T12:55:51.267Z</time></trkpt><trkpt lat="45.8964436" lon="13.2839713"><ele>26.0</ele><time>2026-05-05T12:55:52.266Z</time></trkpt><trkpt lat="45.8963436" lon="13.2837497"><ele>26.0</ele><time>2026-05-05T12:55:53.267Z</time></trkpt><trkpt lat="45.8962291" lon="13.2835294"><ele>26.0</ele><time>2026-05-05T12:55:54.267Z</time></trkpt><trkpt lat="45.8961061" lon="13.2833199"><ele>26.0</ele><time>2026-05-05T12:55:55.267Z</time></trkpt><trkpt lat="45.8959792" lon="13.2831202"><ele>25.0</ele><time>2026-05-05T12:55:56.267Z</time></trkpt><trkpt lat="45.8958388" lon="13.2829241"><ele>24.0</ele><time>2026-05-05T12:55:57.267Z</time></trkpt><trkpt lat="45.8956792" lon="13.2827268"><ele>23.0</ele><time>2026-05-05T12:55:58.266Z</time></trkpt><trkpt lat="45.8955086" lon="13.2825373"><ele>23.0</ele><time>2026-05-05T12:55:59.266Z</time></trkpt><trkpt lat="45.8953277" lon="13.2823434"><ele>23.0</ele><time>2026-05-05T12:56:00.267Z</time></trkpt><trkpt lat="45.8951434" lon="13.282154"><ele>23.0</ele><time>2026-05-05T12:56:01.267Z</time></trkpt><trkpt lat="45.8949568" lon="13.2819733"><ele>23.0</ele><time>2026-05-05T12:56:02.267Z</time></trkpt><trkpt lat="45.894766" lon="13.2817857"><ele>23.0</ele><time>2026-05-05T12:56:03.266Z</time></trkpt><trkpt lat="45.894568" lon="13.2815913"><ele>23.0</ele><time>2026-05-05T12:56:04.266Z</time></trkpt><trkpt lat="45.894369" lon="13.2813923"><ele>22.5</ele><time>2026-05-05T12:56:05.266Z</time></trkpt><trkpt lat="45.894176" lon="13.2811876"><ele>22.0</ele><time>2026-05-05T12:56:06.266Z</time></trkpt><trkpt lat="45.8939849" lon="13.2809779"><ele>22.0</ele><time>2026-05-05T12:56:07.267Z</time></trkpt><trkpt lat="45.8937984" lon="13.2807658"><ele>22.0</ele><time>2026-05-05T12:56:08.267Z</time></trkpt><trkpt lat="45.8936137" lon="13.2805372"><ele>21.5</ele><time>2026-05-05T12:56:09.267Z</time></trkpt><trkpt lat="45.8934327" lon="13.2802984"><ele>21.0</ele><time>2026-05-05T12:56:10.267Z</time></trkpt><trkpt lat="45.8932524" lon="13.2800545"><ele>21.0</ele><time>2026-05-05T12:56:11.267Z</time></trkpt><trkpt lat="45.893076" lon="13.2798077"><ele>21.0</ele><time>2026-05-05T12:56:12.266Z</time></trkpt><trkpt lat="45.8929029" lon="13.2795589"><ele>20.5</ele><time>2026-05-05T12:56:13.266Z</time></trkpt><trkpt lat="45.892728" lon="13.2793045"><ele>20.0</ele><time>2026-05-05T12:56:14.267Z</time></trkpt><trkpt lat="45.8925599" lon="13.2790502"><ele>19.0</ele><time>2026-05-05T12:56:15.267Z</time></trkpt><trkpt lat="45.8923959" lon="13.2787845"><ele>18.0</ele><time>2026-05-05T12:56:16.267Z</time></trkpt><trkpt lat="45.8922384" lon="13.2785149"><ele>18.0</ele><time>2026-05-05T12:56:17.267Z</time></trkpt><trkpt lat="45.8920814" lon="13.2782406"><ele>18.0</ele><time>2026-05-05T12:56:18.266Z</time></trkpt><trkpt lat="45.891927" lon="13.2779616"><ele>18.0</ele><time>2026-05-05T12:56:19.267Z</time></trkpt><trkpt lat="45.8917721" lon="13.2776798"><ele>18.0</ele><time>2026-05-05T12:56:20.266Z</time></trkpt><trkpt lat="45.8916199" lon="13.2773972"><ele>18.0</ele><time>2026-05-05T12:56:21.267Z</time></trkpt><trkpt lat="45.8914645" lon="13.2771085"><ele>18.0</ele><time>2026-05-05T12:56:22.267Z</time></trkpt><trkpt lat="45.8913135" lon="13.2768184"><ele>18.0</ele><time>2026-05-05T12:56:23.267Z</time></trkpt><trkpt lat="45.8911607" lon="13.2765293"><ele>18.0</ele><time>2026-05-05T12:56:24.266Z</time></trkpt><trkpt lat="45.8910066" lon="13.2762322"><ele>17.5</ele><time>2026-05-05T12:56:25.266Z</time></trkpt><trkpt lat="45.8908513" lon="13.2759304"><ele>17.0</ele><time>2026-05-05T12:56:26.266Z</time></trkpt><trkpt lat="45.8906952" lon="13.2756302"><ele>17.5</ele><time>2026-05-05T12:56:27.267Z</time></trkpt><trkpt lat="45.8905427" lon="13.2753321"><ele>18.0</ele><time>2026-05-05T12:56:28.267Z</time></trkpt><trkpt lat="45.8903904" lon="13.2750355"><ele>18.0</ele><time>2026-05-05T12:56:29.267Z</time></trkpt><trkpt lat="45.8902362" lon="13.2747392"><ele>18.0</ele><time>2026-05-05T12:56:30.267Z</time></trkpt><trkpt lat="45.8900783" lon="13.2744458"><ele>18.0</ele><time>2026-05-05T12:56:31.266Z</time></trkpt><trkpt lat="45.8899253" lon="13.2741513"><ele>18.0</ele><time>2026-05-05T12:56:32.267Z</time></trkpt><trkpt lat="45.8897714" lon="13.2738572"><ele>18.0</ele><time>2026-05-05T12:56:33.267Z</time></trkpt><trkpt lat="45.8896068" lon="13.2735658"><ele>18.0</ele><time>2026-05-05T12:56:34.266Z</time></trkpt><trkpt lat="45.8894454" lon="13.2732673"><ele>18.0</ele><time>2026-05-05T12:56:35.267Z</time></trkpt><trkpt lat="45.8892842" lon="13.2729632"><ele>18.0</ele><time>2026-05-05T12:56:36.267Z</time></trkpt><trkpt lat="45.8891223" lon="13.2726606"><ele>18.0</ele><time>2026-05-05T12:56:37.267Z</time></trkpt><trkpt lat="45.8889578" lon="13.2723555"><ele>18.0</ele><time>2026-05-05T12:56:38.267Z</time></trkpt><trkpt lat="45.8887899" lon="13.2720474"><ele>17.5</ele><time>2026-05-05T12:56:39.266Z</time></trkpt><trkpt lat="45.8886288" lon="13.2717455"><ele>17.0</ele><time>2026-05-05T12:56:40.266Z</time></trkpt><trkpt lat="45.8884671" lon="13.2714381"><ele>17.5</ele><time>2026-05-05T12:56:41.266Z</time></trkpt><trkpt lat="45.8883029" lon="13.2711311"><ele>18.0</ele><time>2026-05-05T12:56:42.266Z</time></trkpt><trkpt lat="45.8881406" lon="13.2708221"><ele>17.5</ele><time>2026-05-05T12:56:43.267Z</time></trkpt><trkpt lat="45.8879751" lon="13.2705126"><ele>17.0</ele><time>2026-05-05T12:56:44.267Z</time></trkpt><trkpt lat="45.8878133" lon="13.2702024"><ele>17.0</ele><time>2026-05-05T12:56:45.267Z</time></trkpt><trkpt lat="45.8876479" lon="13.2698896"><ele>17.0</ele><time>2026-05-05T12:56:46.266Z</time></trkpt><trkpt lat="45.8874771" lon="13.2695752"><ele>17.0</ele><time>2026-05-05T12:56:47.267Z</time></trkpt><trkpt lat="45.8873101" lon="13.2692588"><ele>17.0</ele><time>2026-05-05T12:56:48.267Z</time></trkpt><trkpt lat="45.8871385" lon="13.2689442"><ele>17.5</ele><time>2026-05-05T12:56:49.267Z</time></trkpt><trkpt lat="45.8869613" lon="13.2686247"><ele>18.0</ele><time>2026-05-05T12:56:50.266Z</time></trkpt><trkpt lat="45.8867899" lon="13.2683102"><ele>18.0</ele><time>2026-05-05T12:56:51.267Z</time></trkpt><trkpt lat="45.8866151" lon="13.26799"><ele>18.0</ele><time>2026-05-05T12:56:52.267Z</time></trkpt><trkpt lat="45.8864384" lon="13.2676648"><ele>18.0</ele><time>2026-05-05T12:56:53.266Z</time></trkpt><trkpt lat="45.886268" lon="13.2673496"><ele>18.0</ele><time>2026-05-05T12:56:54.266Z</time></trkpt><trkpt lat="45.8860887" lon="13.2670244"><ele>17.0</ele><time>2026-05-05T12:56:55.266Z</time></trkpt><trkpt lat="45.8859134" lon="13.2667017"><ele>16.0</ele><time>2026-05-05T12:56:56.266Z</time></trkpt><trkpt lat="45.8857364" lon="13.2663774"><ele>15.5</ele><time>2026-05-05T12:56:57.267Z</time></trkpt><trkpt lat="45.8855515" lon="13.2660533"><ele>15.0</ele><time>2026-05-05T12:56:58.266Z</time></trkpt><trkpt lat="45.8853702" lon="13.2657262"><ele>15.5</ele><time>2026-05-05T12:56:59.267Z</time></trkpt><trkpt lat="45.885189" lon="13.2653976"><ele>16.0</ele><time>2026-05-05T12:57:00.267Z</time></trkpt><trkpt lat="45.885016" lon="13.2650757"><ele>16.0</ele><time>2026-05-05T12:57:01.267Z</time></trkpt><trkpt lat="45.8848406" lon="13.2647548"><ele>16.0</ele><time>2026-05-05T12:57:02.266Z</time></trkpt><trkpt lat="45.8846745" lon="13.2644355"><ele>16.0</ele><time>2026-05-05T12:57:03.266Z</time></trkpt><trkpt lat="45.8845054" lon="13.2641139"><ele>16.0</ele><time>2026-05-05T12:57:04.267Z</time></trkpt><trkpt lat="45.8843353" lon="13.2637921"><ele>16.5</ele><time>2026-05-05T12:57:05.267Z</time></trkpt><trkpt lat="45.8841755" lon="13.2634714"><ele>17.0</ele><time>2026-05-05T12:57:06.267Z</time></trkpt><trkpt lat="45.8840074" lon="13.2631458"><ele>16.5</ele><time>2026-05-05T12:57:07.267Z</time></trkpt><trkpt lat="45.8838445" lon="13.2628256"><ele>16.0</ele><time>2026-05-05T12:57:08.267Z</time></trkpt><trkpt lat="45.8836816" lon="13.2625031"><ele>15.5</ele><time>2026-05-05T12:57:09.267Z</time></trkpt><trkpt lat="45.8835251" lon="13.2621754"><ele>15.0</ele><time>2026-05-05T12:57:10.266Z</time></trkpt><trkpt lat="45.883366" lon="13.2618468"><ele>15.0</ele><time>2026-05-05T12:57:11.267Z</time></trkpt><trkpt lat="45.8832065" lon="13.2615181"><ele>15.0</ele><time>2026-05-05T12:57:12.266Z</time></trkpt><trkpt lat="45.8830516" lon="13.2611929"><ele>15.0</ele><time>2026-05-05T12:57:13.267Z</time></trkpt><trkpt lat="45.8828981" lon="13.2608635"><ele>15.0</ele><time>2026-05-05T12:57:14.266Z</time></trkpt><trkpt lat="45.882746" lon="13.2605354"><ele>15.5</ele><time>2026-05-05T12:57:15.266Z</time></trkpt><trkpt lat="45.8825957" lon="13.260204"><ele>16.0</ele><time>2026-05-05T12:57:16.267Z</time></trkpt><trkpt lat="45.8824455" lon="13.259869"><ele>15.5</ele><time>2026-05-05T12:57:17.266Z</time></trkpt><trkpt lat="45.8822977" lon="13.2595315"><ele>15.0</ele><time>2026-05-05T12:57:18.266Z</time></trkpt><trkpt lat="45.8821492" lon="13.2591896"><ele>15.5</ele><time>2026-05-05T12:57:19.266Z</time></trkpt><trkpt lat="45.8820065" lon="13.2588517"><ele>16.0</ele><time>2026-05-05T12:57:20.267Z</time></trkpt><trkpt lat="45.8818635" lon="13.2585055"><ele>15.5</ele><time>2026-05-05T12:57:21.267Z</time></trkpt><trkpt lat="45.8817182" lon="13.2581557"><ele>15.0</ele><time>2026-05-05T12:57:22.267Z</time></trkpt><trkpt lat="45.8815774" lon="13.2578116"><ele>15.0</ele><time>2026-05-05T12:57:23.267Z</time></trkpt><trkpt lat="45.8814406" lon="13.2574648"><ele>15.0</ele><time>2026-05-05T12:57:24.267Z</time></trkpt><trkpt lat="45.8813011" lon="13.2571191"><ele>14.5</ele><time>2026-05-05T12:57:25.267Z</time></trkpt><trkpt lat="45.8811643" lon="13.2567728"><ele>14.0</ele><time>2026-05-05T12:57:26.266Z</time></trkpt><trkpt lat="45.8810312" lon="13.2564224"><ele>13.0</ele><time>2026-05-05T12:57:27.267Z</time></trkpt><trkpt lat="45.8809013" lon="13.2560733"><ele>12.0</ele><time>2026-05-05T12:57:28.267Z</time></trkpt><trkpt lat="45.8807759" lon="13.2557318"><ele>12.5</ele><time>2026-05-05T12:57:29.266Z</time></trkpt><trkpt lat="45.8806512" lon="13.2553864"><ele>13.0</ele><time>2026-05-05T12:57:30.267Z</time></trkpt><trkpt lat="45.8805259" lon="13.255049"><ele>14.0</ele><time>2026-05-05T12:57:31.266Z</time></trkpt><trkpt lat="45.8804023" lon="13.2547079"><ele>15.0</ele><time>2026-05-05T12:57:32.267Z</time></trkpt><trkpt lat="45.8802808" lon="13.2543748"><ele>15.0</ele><time>2026-05-05T12:57:33.267Z</time></trkpt><trkpt lat="45.8801604" lon="13.2540429"><ele>15.0</ele><time>2026-05-05T12:57:34.266Z</time></trkpt><trkpt lat="45.8800328" lon="13.2537124"><ele>14.5</ele><time>2026-05-05T12:57:35.267Z</time></trkpt><trkpt lat="45.8799138" lon="13.2533903"><ele>14.0</ele><time>2026-05-05T12:57:36.267Z</time></trkpt><trkpt lat="45.8797887" lon="13.2530627"><ele>13.0</ele><time>2026-05-05T12:57:37.267Z</time></trkpt><trkpt lat="45.8796644" lon="13.2527297"><ele>12.0</ele><time>2026-05-05T12:57:38.267Z</time></trkpt><trkpt lat="45.8795382" lon="13.2523958"><ele>13.0</ele><time>2026-05-05T12:57:39.267Z</time></trkpt><trkpt lat="45.8794074" lon="13.2520583"><ele>14.0</ele><time>2026-05-05T12:57:40.267Z</time></trkpt><trkpt lat="45.8792819" lon="13.2517217"><ele>14.0</ele><time>2026-05-05T12:57:41.267Z</time></trkpt><trkpt lat="45.879154" lon="13.2513827"><ele>14.0</ele><time>2026-05-05T12:57:42.267Z</time></trkpt><trkpt lat="45.8790266" lon="13.251037"><ele>14.0</ele><time>2026-05-05T12:57:43.266Z</time></trkpt><trkpt lat="45.8788989" lon="13.2506935"><ele>14.0</ele><time>2026-05-05T12:57:44.267Z</time></trkpt><trkpt lat="45.8787727" lon="13.250349"><ele>13.5</ele><time>2026-05-05T12:57:45.267Z</time></trkpt><trkpt lat="45.8786421" lon="13.2499941"><ele>13.0</ele><time>2026-05-05T12:57:46.267Z</time></trkpt><trkpt lat="45.8785055" lon="13.2496336"><ele>12.5</ele><time>2026-05-05T12:57:47.267Z</time></trkpt><trkpt lat="45.8783703" lon="13.2492669"><ele>12.0</ele><time>2026-05-05T12:57:48.266Z</time></trkpt><trkpt lat="45.8782353" lon="13.2488901"><ele>12.0</ele><time>2026-05-05T12:57:49.266Z</time></trkpt><trkpt lat="45.878099" lon="13.2485058"><ele>12.0</ele><time>2026-05-05T12:57:50.266Z</time></trkpt><trkpt lat="45.8779618" lon="13.2481177"><ele>12.0</ele><time>2026-05-05T12:57:51.266Z</time></trkpt><trkpt lat="45.8778257" lon="13.2477317"><ele>12.0</ele><time>2026-05-05T12:57:52.266Z</time></trkpt><trkpt lat="45.8776863" lon="13.247348"><ele>12.5</ele><time>2026-05-05T12:57:53.266Z</time></trkpt><trkpt lat="45.8775498" lon="13.2469682"><ele>13.0</ele><time>2026-05-05T12:57:54.267Z</time></trkpt><trkpt lat="45.8774132" lon="13.2465866"><ele>13.0</ele><time>2026-05-05T12:57:55.267Z</time></trkpt><trkpt lat="45.8772776" lon="13.2462112"><ele>13.0</ele><time>2026-05-05T12:57:56.266Z</time></trkpt><trkpt lat="45.8771436" lon="13.2458408"><ele>13.5</ele><time>2026-05-05T12:57:57.267Z</time></trkpt><trkpt lat="45.8770093" lon="13.2454722"><ele>14.0</ele><time>2026-05-05T12:57:58.266Z</time></trkpt><trkpt lat="45.8768746" lon="13.2451038"><ele>14.0</ele><time>2026-05-05T12:57:59.266Z</time></trkpt><trkpt lat="45.8767379" lon="13.2447364"><ele>14.0</ele><time>2026-05-05T12:58:00.266Z</time></trkpt><trkpt lat="45.8766034" lon="13.2443707"><ele>14.0</ele><time>2026-05-05T12:58:01.266Z</time></trkpt><trkpt lat="45.876472" lon="13.2440026"><ele>14.0</ele><time>2026-05-05T12:58:02.266Z</time></trkpt><trkpt lat="45.8763375" lon="13.2436383"><ele>14.0</ele><time>2026-05-05T12:58:03.267Z</time></trkpt><trkpt lat="45.8762068" lon="13.2432791"><ele>14.0</ele><time>2026-05-05T12:58:04.267Z</time></trkpt><trkpt lat="45.8760799" lon="13.2429218"><ele>15.0</ele><time>2026-05-05T12:58:05.266Z</time></trkpt><trkpt lat="45.8759462" lon="13.2425623"><ele>16.0</ele><time>2026-05-05T12:58:06.266Z</time></trkpt><trkpt lat="45.8758124" lon="13.2422088"><ele>16.0</ele><time>2026-05-05T12:58:07.267Z</time></trkpt><trkpt lat="45.8756807" lon="13.241851"><ele>16.0</ele><time>2026-05-05T12:58:08.267Z</time></trkpt><trkpt lat="45.8755476" lon="13.2414895"><ele>14.5</ele><time>2026-05-05T12:58:09.266Z</time></trkpt><trkpt lat="45.8754182" lon="13.2411274"><ele>13.0</ele><time>2026-05-05T12:58:10.267Z</time></trkpt><trkpt lat="45.8752838" lon="13.240772"><ele>12.5</ele><time>2026-05-05T12:58:11.267Z</time></trkpt><trkpt lat="45.8751517" lon="13.2404101"><ele>12.0</ele><time>2026-05-05T12:58:12.267Z</time></trkpt><trkpt lat="45.875019" lon="13.2400519"><ele>11.5</ele><time>2026-05-05T12:58:13.266Z</time></trkpt><trkpt lat="45.8748929" lon="13.2396933"><ele>11.0</ele><time>2026-05-05T12:58:14.267Z</time></trkpt><trkpt lat="45.8747614" lon="13.23934"><ele>11.0</ele><time>2026-05-05T12:58:15.266Z</time></trkpt><trkpt lat="45.8746339" lon="13.2389866"><ele>11.0</ele><time>2026-05-05T12:58:16.266Z</time></trkpt><trkpt lat="45.8745049" lon="13.2386341"><ele>11.0</ele><time>2026-05-05T12:58:17.266Z</time></trkpt><trkpt lat="45.8743729" lon="13.2382759"><ele>11.0</ele><time>2026-05-05T12:58:18.266Z</time></trkpt><trkpt lat="45.8742392" lon="13.2379223"><ele>10.5</ele><time>2026-05-05T12:58:19.267Z</time></trkpt><trkpt lat="45.8741044" lon="13.2375528"><ele>10.0</ele><time>2026-05-05T12:58:20.266Z</time></trkpt><trkpt lat="45.8739731" lon="13.2371796"><ele>11.0</ele><time>2026-05-05T12:58:21.266Z</time></trkpt><trkpt lat="45.8738417" lon="13.2368029"><ele>12.0</ele><time>2026-05-05T12:58:22.267Z</time></trkpt><trkpt lat="45.8737061" lon="13.2364197"><ele>12.0</ele><time>2026-05-05T12:58:23.267Z</time></trkpt><trkpt lat="45.8735695" lon="13.2360418"><ele>12.0</ele><time>2026-05-05T12:58:24.267Z</time></trkpt><trkpt lat="45.8734343" lon="13.2356659"><ele>12.0</ele><time>2026-05-05T12:58:25.266Z</time></trkpt><trkpt lat="45.873301" lon="13.2352954"><ele>12.0</ele><time>2026-05-05T12:58:26.267Z</time></trkpt><trkpt lat="45.8731651" lon="13.234925"><ele>12.0</ele><time>2026-05-05T12:58:27.267Z</time></trkpt><trkpt lat="45.8730379" lon="13.2345654"><ele>12.0</ele><time>2026-05-05T12:58:28.267Z</time></trkpt><trkpt lat="45.8729051" lon="13.2342051"><ele>12.5</ele><time>2026-05-05T12:58:29.267Z</time></trkpt><trkpt lat="45.8727758" lon="13.2338492"><ele>13.0</ele><time>2026-05-05T12:58:30.266Z</time></trkpt><trkpt lat="45.8726469" lon="13.2334918"><ele>12.0</ele><time>2026-05-05T12:58:31.267Z</time></trkpt><trkpt lat="45.872523" lon="13.2331449"><ele>11.0</ele><time>2026-05-05T12:58:32.266Z</time></trkpt><trkpt lat="45.8723944" lon="13.2327945"><ele>11.0</ele><time>2026-05-05T12:58:33.267Z</time></trkpt><trkpt lat="45.8722652" lon="13.2324453"><ele>11.0</ele><time>2026-05-05T12:58:34.267Z</time></trkpt><trkpt lat="45.872138" lon="13.2321004"><ele>11.0</ele><time>2026-05-05T12:58:35.267Z</time></trkpt><trkpt lat="45.8720111" lon="13.2317543"><ele>11.0</ele><time>2026-05-05T12:58:36.267Z</time></trkpt><trkpt lat="45.8718799" lon="13.2314098"><ele>10.5</ele><time>2026-05-05T12:58:37.266Z</time></trkpt><trkpt lat="45.8717534" lon="13.2310677"><ele>10.0</ele><time>2026-05-05T12:58:38.267Z</time></trkpt><trkpt lat="45.8716244" lon="13.2307214"><ele>11.0</ele><time>2026-05-05T12:58:39.267Z</time></trkpt><trkpt lat="45.8714999" lon="13.2303772"><ele>12.0</ele><time>2026-05-05T12:58:40.267Z</time></trkpt><trkpt lat="45.8713756" lon="13.2300316"><ele>11.5</ele><time>2026-05-05T12:58:41.266Z</time></trkpt><trkpt lat="45.8712473" lon="13.2296917"><ele>11.0</ele><time>2026-05-05T12:58:42.267Z</time></trkpt><trkpt lat="45.8711217" lon="13.2293471"><ele>11.0</ele><time>2026-05-05T12:58:43.267Z</time></trkpt><trkpt lat="45.8709994" lon="13.2290023"><ele>11.0</ele><time>2026-05-05T12:58:44.266Z</time></trkpt><trkpt lat="45.8708732" lon="13.2286594"><ele>10.5</ele><time>2026-05-05T12:58:45.267Z</time></trkpt><trkpt lat="45.8707459" lon="13.228313"><ele>10.0</ele><time>2026-05-05T12:58:46.266Z</time></trkpt><trkpt lat="45.8706218" lon="13.2279709"><ele>10.0</ele><time>2026-05-05T12:58:47.267Z</time></trkpt><trkpt lat="45.8704958" lon="13.2276305"><ele>10.0</ele><time>2026-05-05T12:58:48.267Z</time></trkpt><trkpt lat="45.8703689" lon="13.2272855"><ele>10.5</ele><time>2026-05-05T12:58:49.266Z</time></trkpt><trkpt lat="45.870241" lon="13.2269429"><ele>11.0</ele><time>2026-05-05T12:58:50.266Z</time></trkpt><trkpt lat="45.8701116" lon="13.2265978"><ele>10.5</ele><time>2026-05-05T12:58:51.267Z</time></trkpt><trkpt lat="45.8699923" lon="13.2262563"><ele>10.0</ele><time>2026-05-05T12:58:52.267Z</time></trkpt><trkpt lat="45.8698652" lon="13.2259146"><ele>10.5</ele><time>2026-05-05T12:58:53.267Z</time></trkpt><trkpt lat="45.8697372" lon="13.2255695"><ele>11.0</ele><time>2026-05-05T12:58:54.267Z</time></trkpt><trkpt lat="45.86961" lon="13.2252312"><ele>11.0</ele><time>2026-05-05T12:58:55.267Z</time></trkpt><trkpt lat="45.8694852" lon="13.2248898"><ele>11.0</ele><time>2026-05-05T12:58:56.266Z</time></trkpt><trkpt lat="45.8693622" lon="13.2245521"><ele>10.0</ele><time>2026-05-05T12:58:57.267Z</time></trkpt><trkpt lat="45.8692411" lon="13.2242206"><ele>9.0</ele><time>2026-05-05T12:58:58.267Z</time></trkpt><trkpt lat="45.8691189" lon="13.2238942"><ele>9.0</ele><time>2026-05-05T12:58:59.266Z</time></trkpt><trkpt lat="45.868997" lon="13.2235616"><ele>9.0</ele><time>2026-05-05T12:59:00.267Z</time></trkpt><trkpt lat="45.8688845" lon="13.2232409"><ele>9.0</ele><time>2026-05-05T12:59:01.266Z</time></trkpt><trkpt lat="45.8687687" lon="13.2229209"><ele>9.0</ele><time>2026-05-05T12:59:02.267Z</time></trkpt><trkpt lat="45.868654" lon="13.2226035"><ele>8.5</ele><time>2026-05-05T12:59:03.266Z</time></trkpt><trkpt lat="45.8685384" lon="13.222291"><ele>8.0</ele><time>2026-05-05T12:59:04.267Z</time></trkpt><trkpt lat="45.8684248" lon="13.221984"><ele>7.5</ele><time>2026-05-05T12:59:05.266Z</time></trkpt><trkpt lat="45.8683104" lon="13.2216687"><ele>7.0</ele><time>2026-05-05T12:59:06.266Z</time></trkpt><trkpt lat="45.8681948" lon="13.2213593"><ele>7.0</ele><time>2026-05-05T12:59:07.266Z</time></trkpt><trkpt lat="45.8680835" lon="13.2210481"><ele>7.0</ele><time>2026-05-05T12:59:08.266Z</time></trkpt><trkpt lat="45.8679686" lon="13.2207433"><ele>8.0</ele><time>2026-05-05T12:59:09.266Z</time></trkpt><trkpt lat="45.8678549" lon="13.2204374"><ele>9.0</ele><time>2026-05-05T12:59:10.266Z</time></trkpt><trkpt lat="45.8677461" lon="13.2201316"><ele>9.0</ele><time>2026-05-05T12:59:11.267Z</time></trkpt><trkpt lat="45.86763" lon="13.2198226"><ele>9.0</ele><time>2026-05-05T12:59:12.267Z</time></trkpt><trkpt lat="45.8675167" lon="13.2195107"><ele>9.5</ele><time>2026-05-05T12:59:13.267Z</time></trkpt><trkpt lat="45.867403" lon="13.2192005"><ele>10.0</ele><time>2026-05-05T12:59:14.266Z</time></trkpt><trkpt lat="45.8672914" lon="13.2188973"><ele>10.0</ele><time>2026-05-05T12:59:15.267Z</time></trkpt><trkpt lat="45.8671787" lon="13.218591"><ele>10.0</ele><time>2026-05-05T12:59:16.267Z</time></trkpt><trkpt lat="45.8670673" lon="13.2182859"><ele>9.5</ele><time>2026-05-05T12:59:17.266Z</time></trkpt><trkpt lat="45.8669589" lon="13.2179847"><ele>9.0</ele><time>2026-05-05T12:59:18.267Z</time></trkpt><trkpt lat="45.8668487" lon="13.2176791"><ele>8.5</ele><time>2026-05-05T12:59:19.267Z</time></trkpt><trkpt lat="45.8667359" lon="13.2173768"><ele>8.0</ele><time>2026-05-05T12:59:20.266Z</time></trkpt><trkpt lat="45.866624" lon="13.2170692"><ele>8.0</ele><time>2026-05-05T12:59:21.267Z</time></trkpt><trkpt lat="45.8665135" lon="13.216768"><ele>8.0</ele><time>2026-05-05T12:59:22.266Z</time></trkpt><trkpt lat="45.8664054" lon="13.2164679"><ele>8.5</ele><time>2026-05-05T12:59:23.266Z</time></trkpt><trkpt lat="45.8662961" lon="13.2161624"><ele>9.0</ele><time>2026-05-05T12:59:24.267Z</time></trkpt><trkpt lat="45.8661915" lon="13.2158573"><ele>9.5</ele><time>2026-05-05T12:59:25.266Z</time></trkpt><trkpt lat="45.8660879" lon="13.2155502"><ele>10.0</ele><time>2026-05-05T12:59:26.267Z</time></trkpt><trkpt lat="45.8659786" lon="13.2152379"><ele>9.5</ele><time>2026-05-05T12:59:27.267Z</time></trkpt><trkpt lat="45.865877" lon="13.2149276"><ele>9.0</ele><time>2026-05-05T12:59:28.267Z</time></trkpt><trkpt lat="45.865776" lon="13.2146132"><ele>9.0</ele><time>2026-05-05T12:59:29.266Z</time></trkpt><trkpt lat="45.8656772" lon="13.2143034"><ele>9.0</ele><time>2026-05-05T12:59:30.267Z</time></trkpt><trkpt lat="45.8655758" lon="13.2139901"><ele>9.0</ele><time>2026-05-05T12:59:31.267Z</time></trkpt><trkpt lat="45.8654732" lon="13.2136788"><ele>9.0</ele><time>2026-05-05T12:59:32.266Z</time></trkpt><trkpt lat="45.8653722" lon="13.2133669"><ele>9.0</ele><time>2026-05-05T12:59:33.266Z</time></trkpt><trkpt lat="45.8652726" lon="13.2130541"><ele>9.0</ele><time>2026-05-05T12:59:34.267Z</time></trkpt><trkpt lat="45.8651798" lon="13.212744"><ele>9.0</ele><time>2026-05-05T12:59:35.266Z</time></trkpt><trkpt lat="45.8650815" lon="13.2124275"><ele>9.0</ele><time>2026-05-05T12:59:36.267Z</time></trkpt><trkpt lat="45.8649862" lon="13.2121111"><ele>9.0</ele><time>2026-05-05T12:59:37.266Z</time></trkpt><trkpt lat="45.8648896" lon="13.2117963"><ele>9.0</ele><time>2026-05-05T12:59:38.266Z</time></trkpt><trkpt lat="45.8647947" lon="13.2114861"><ele>9.0</ele><time>2026-05-05T12:59:39.266Z</time></trkpt><trkpt lat="45.8647005" lon="13.2111696"><ele>9.0</ele><time>2026-05-05T12:59:40.267Z</time></trkpt><trkpt lat="45.8646092" lon="13.2108557"><ele>9.0</ele><time>2026-05-05T12:59:41.267Z</time></trkpt><trkpt lat="45.8645126" lon="13.2105405"><ele>9.0</ele><time>2026-05-05T12:59:42.267Z</time></trkpt><trkpt lat="45.8644158" lon="13.2102199"><ele>9.0</ele><time>2026-05-05T12:59:43.267Z</time></trkpt><trkpt lat="45.8643192" lon="13.209904"><ele>9.0</ele><time>2026-05-05T12:59:44.267Z</time></trkpt><trkpt lat="45.8642229" lon="13.2095875"><ele>9.0</ele><time>2026-05-05T12:59:45.267Z</time></trkpt><trkpt lat="45.8641294" lon="13.2092715"><ele>9.0</ele><time>2026-05-05T12:59:46.267Z</time></trkpt><trkpt lat="45.8640375" lon="13.2089624"><ele>10.0</ele><time>2026-05-05T12:59:47.267Z</time></trkpt><trkpt lat="45.8639428" lon="13.2086444"><ele>11.0</ele><time>2026-05-05T12:59:48.267Z</time></trkpt><trkpt lat="45.8638472" lon="13.2083254"><ele>9.5</ele><time>2026-05-05T12:59:49.267Z</time></trkpt><trkpt lat="45.8637555" lon="13.2080077"><ele>8.0</ele><time>2026-05-05T12:59:50.267Z</time></trkpt><trkpt lat="45.8636609" lon="13.2076912"><ele>8.0</ele><time>2026-05-05T12:59:51.266Z</time></trkpt><trkpt lat="45.8635638" lon="13.2073734"><ele>8.0</ele><time>2026-05-05T12:59:52.266Z</time></trkpt><trkpt lat="45.8634692" lon="13.2070505"><ele>8.5</ele><time>2026-05-05T12:59:53.266Z</time></trkpt><trkpt lat="45.8633726" lon="13.20673"><ele>9.0</ele><time>2026-05-05T12:59:54.267Z</time></trkpt><trkpt lat="45.863278" lon="13.2064156"><ele>9.5</ele><time>2026-05-05T12:59:55.267Z</time></trkpt><trkpt lat="45.863183" lon="13.2060966"><ele>10.0</ele><time>2026-05-05T12:59:56.267Z</time></trkpt><trkpt lat="45.8630869" lon="13.2057737"><ele>11.0</ele><time>2026-05-05T12:59:57.267Z</time></trkpt><trkpt lat="45.8629953" lon="13.2054612"><ele>12.0</ele><time>2026-05-05T12:59:58.267Z</time></trkpt><trkpt lat="45.8628992" lon="13.2051423"><ele>11.0</ele><time>2026-05-05T12:59:59.267Z</time></trkpt><trkpt lat="45.8628046" lon="13.2048244"><ele>10.0</ele><time>2026-05-05T13:00:00.267Z</time></trkpt><trkpt lat="45.8627082" lon="13.2045051"><ele>10.0</ele><time>2026-05-05T13:00:01.267Z</time></trkpt><trkpt lat="45.8626103" lon="13.2041868"><ele>10.0</ele><time>2026-05-05T13:00:02.267Z</time></trkpt><trkpt lat="45.8625125" lon="13.2038666"><ele>9.5</ele><time>2026-05-05T13:00:03.266Z</time></trkpt><trkpt lat="45.8624127" lon="13.2035393"><ele>9.0</ele><time>2026-05-05T13:00:04.266Z</time></trkpt><trkpt lat="45.8623193" lon="13.2032217"><ele>8.5</ele><time>2026-05-05T13:00:05.267Z</time></trkpt><trkpt lat="45.8622227" lon="13.2029054"><ele>8.0</ele><time>2026-05-05T13:00:06.267Z</time></trkpt><trkpt lat="45.8621256" lon="13.2025872"><ele>8.5</ele><time>2026-05-05T13:00:07.267Z</time></trkpt><trkpt lat="45.8620298" lon="13.2022683"><ele>9.0</ele><time>2026-05-05T13:00:08.266Z</time></trkpt><trkpt lat="45.861933" lon="13.2019477"><ele>9.0</ele><time>2026-05-05T13:00:09.266Z</time></trkpt><trkpt lat="45.8618308" lon="13.2016314"><ele>9.0</ele><time>2026-05-05T13:00:10.267Z</time></trkpt><trkpt lat="45.861738" lon="13.2013105"><ele>9.5</ele><time>2026-05-05T13:00:11.267Z</time></trkpt><trkpt lat="45.8616445" lon="13.2009907"><ele>10.0</ele><time>2026-05-05T13:00:12.267Z</time></trkpt><trkpt lat="45.8615487" lon="13.2006721"><ele>9.5</ele><time>2026-05-05T13:00:13.267Z</time></trkpt><trkpt lat="45.861451" lon="13.2003497"><ele>9.0</ele><time>2026-05-05T13:00:14.266Z</time></trkpt><trkpt lat="45.8613566" lon="13.2000276"><ele>9.0</ele><time>2026-05-05T13:00:15.266Z</time></trkpt><trkpt lat="45.8612632" lon="13.1997115"><ele>9.0</ele><time>2026-05-05T13:00:16.267Z</time></trkpt><trkpt lat="45.8611682" lon="13.1993935"><ele>9.0</ele><time>2026-05-05T13:00:17.267Z</time></trkpt><trkpt lat="45.8610763" lon="13.199075"><ele>9.0</ele><time>2026-05-05T13:00:18.267Z</time></trkpt><trkpt lat="45.8609776" lon="13.1987547"><ele>8.5</ele><time>2026-05-05T13:00:19.267Z</time></trkpt><trkpt lat="45.8608798" lon="13.1984363"><ele>8.0</ele><time>2026-05-05T13:00:20.267Z</time></trkpt><trkpt lat="45.8607819" lon="13.1981166"><ele>8.0</ele><time>2026-05-05T13:00:21.267Z</time></trkpt><trkpt lat="45.8606891" lon="13.1977995"><ele>8.0</ele><time>2026-05-05T13:00:22.266Z</time></trkpt><trkpt lat="45.8605948" lon="13.1974793"><ele>8.0</ele><time>2026-05-05T13:00:23.267Z</time></trkpt><trkpt lat="45.8604974" lon="13.1971557"><ele>8.0</ele><time>2026-05-05T13:00:24.266Z</time></trkpt><trkpt lat="45.860402" lon="13.196838"><ele>8.0</ele><time>2026-05-05T13:00:25.267Z</time></trkpt><trkpt lat="45.8603091" lon="13.1965212"><ele>8.0</ele><time>2026-05-05T13:00:26.266Z</time></trkpt><trkpt lat="45.8602165" lon="13.196205"><ele>8.0</ele><time>2026-05-05T13:00:27.266Z</time></trkpt><trkpt lat="45.8601162" lon="13.1958912"><ele>8.0</ele><time>2026-05-05T13:00:28.267Z</time></trkpt><trkpt lat="45.8600216" lon="13.1955744"><ele>8.0</ele><time>2026-05-05T13:00:29.267Z</time></trkpt><trkpt lat="45.8599252" lon="13.1952562"><ele>8.0</ele><time>2026-05-05T13:00:30.266Z</time></trkpt><trkpt lat="45.8598304" lon="13.1949338"><ele>8.0</ele><time>2026-05-05T13:00:31.267Z</time></trkpt><trkpt lat="45.8597326" lon="13.1946166"><ele>8.0</ele><time>2026-05-05T13:00:32.266Z</time></trkpt><trkpt lat="45.8596347" lon="13.1943019"><ele>8.0</ele><time>2026-05-05T13:00:33.267Z</time></trkpt><trkpt lat="45.8595466" lon="13.193984"><ele>8.0</ele><time>2026-05-05T13:00:34.267Z</time></trkpt><trkpt lat="45.8594524" lon="13.1936667"><ele>8.0</ele><time>2026-05-05T13:00:35.267Z</time></trkpt><trkpt lat="45.8593579" lon="13.193355"><ele>8.0</ele><time>2026-05-05T13:00:36.266Z</time></trkpt><trkpt lat="45.8592695" lon="13.1930482"><ele>8.0</ele><time>2026-05-05T13:00:37.267Z</time></trkpt><trkpt lat="45.8591781" lon="13.1927394"><ele>8.0</ele><time>2026-05-05T13:00:38.267Z</time></trkpt><trkpt lat="45.8590898" lon="13.1924365"><ele>8.5</ele><time>2026-05-05T13:00:39.266Z</time></trkpt><trkpt lat="45.8589979" lon="13.1921308"><ele>9.0</ele><time>2026-05-05T13:00:40.266Z</time></trkpt><trkpt lat="45.8589058" lon="13.1918232"><ele>9.0</ele><time>2026-05-05T13:00:41.267Z</time></trkpt><trkpt lat="45.8588176" lon="13.1915234"><ele>9.0</ele><time>2026-05-05T13:00:42.267Z</time></trkpt><trkpt lat="45.8587295" lon="13.1912203"><ele>8.5</ele><time>2026-05-05T13:00:43.266Z</time></trkpt><trkpt lat="45.8586396" lon="13.1909269"><ele>8.0</ele><time>2026-05-05T13:00:44.267Z</time></trkpt><trkpt lat="45.8585462" lon="13.1906296"><ele>8.0</ele><time>2026-05-05T13:00:45.267Z</time></trkpt><trkpt lat="45.858456" lon="13.1903338"><ele>8.0</ele><time>2026-05-05T13:00:46.267Z</time></trkpt><trkpt lat="45.8583654" lon="13.1900336"><ele>9.0</ele><time>2026-05-05T13:00:47.266Z</time></trkpt><trkpt lat="45.8582757" lon="13.1897364"><ele>10.0</ele><time>2026-05-05T13:00:48.266Z</time></trkpt><trkpt lat="45.8581886" lon="13.1894368"><ele>10.0</ele><time>2026-05-05T13:00:49.267Z</time></trkpt><trkpt lat="45.8580982" lon="13.1891389"><ele>10.0</ele><time>2026-05-05T13:00:50.267Z</time></trkpt><trkpt lat="45.8580082" lon="13.1888437"><ele>9.5</ele><time>2026-05-05T13:00:51.267Z</time></trkpt><trkpt lat="45.8579164" lon="13.1885472"><ele>9.0</ele><time>2026-05-05T13:00:52.267Z</time></trkpt><trkpt lat="45.8578246" lon="13.1882481"><ele>8.5</ele><time>2026-05-05T13:00:53.267Z</time></trkpt><trkpt lat="45.8577322" lon="13.1879461"><ele>8.0</ele><time>2026-05-05T13:00:54.267Z</time></trkpt><trkpt lat="45.8576434" lon="13.1876509"><ele>8.0</ele><time>2026-05-05T13:00:55.266Z</time></trkpt><trkpt lat="45.857553" lon="13.1873522"><ele>8.0</ele><time>2026-05-05T13:00:56.267Z</time></trkpt><trkpt lat="45.8574656" lon="13.1870554"><ele>8.0</ele><time>2026-05-05T13:00:57.267Z</time></trkpt><trkpt lat="45.8573757" lon="13.1867604"><ele>8.0</ele><time>2026-05-05T13:00:58.267Z</time></trkpt><trkpt lat="45.8572873" lon="13.1864633"><ele>8.0</ele><time>2026-05-05T13:00:59.267Z</time></trkpt><trkpt lat="45.8571983" lon="13.186173"><ele>8.0</ele><time>2026-05-05T13:01:00.266Z</time></trkpt><trkpt lat="45.8571086" lon="13.1858728"><ele>8.0</ele><time>2026-05-05T13:01:01.266Z</time></trkpt><trkpt lat="45.8570216" lon="13.1855775"><ele>8.0</ele><time>2026-05-05T13:01:02.267Z</time></trkpt><trkpt lat="45.8569363" lon="13.185282"><ele>8.0</ele><time>2026-05-05T13:01:03.267Z</time></trkpt><trkpt lat="45.85685" lon="13.1849833"><ele>8.0</ele><time>2026-05-05T13:01:04.267Z</time></trkpt><trkpt lat="45.8567603" lon="13.1846859"><ele>8.0</ele><time>2026-05-05T13:01:05.267Z</time></trkpt><trkpt lat="45.8566762" lon="13.1843881"><ele>8.0</ele><time>2026-05-05T13:01:06.267Z</time></trkpt><trkpt lat="45.8565853" lon="13.1840877"><ele>8.5</ele><time>2026-05-05T13:01:07.267Z</time></trkpt><trkpt lat="45.8564922" lon="13.1837846"><ele>9.0</ele><time>2026-05-05T13:01:08.266Z</time></trkpt><trkpt lat="45.8563986" lon="13.183484"><ele>9.0</ele><time>2026-05-05T13:01:09.267Z</time></trkpt><trkpt lat="45.8563024" lon="13.183185"><ele>9.0</ele><time>2026-05-05T13:01:10.267Z</time></trkpt><trkpt lat="45.8562095" lon="13.1828821"><ele>9.0</ele><time>2026-05-05T13:01:11.267Z</time></trkpt><trkpt lat="45.8561128" lon="13.1825826"><ele>9.0</ele><time>2026-05-05T13:01:12.266Z</time></trkpt><trkpt lat="45.8560218" lon="13.1822752"><ele>8.0</ele><time>2026-05-05T13:01:13.267Z</time></trkpt><trkpt lat="45.8559331" lon="13.1819687"><ele>7.0</ele><time>2026-05-05T13:01:14.267Z</time></trkpt><trkpt lat="45.8558421" lon="13.1816631"><ele>6.5</ele><time>2026-05-05T13:01:15.266Z</time></trkpt><trkpt lat="45.8557511" lon="13.1813562"><ele>6.0</ele><time>2026-05-05T13:01:16.266Z</time></trkpt><trkpt lat="45.8556563" lon="13.181055"><ele>6.0</ele><time>2026-05-05T13:01:17.266Z</time></trkpt><trkpt lat="45.8555667" lon="13.180753"><ele>6.0</ele><time>2026-05-05T13:01:18.267Z</time></trkpt><trkpt lat="45.8554713" lon="13.180447"><ele>6.0</ele><time>2026-05-05T13:01:19.267Z</time></trkpt><trkpt lat="45.855378" lon="13.1801405"><ele>6.0</ele><time>2026-05-05T13:01:20.267Z</time></trkpt><trkpt lat="45.855285" lon="13.1798368"><ele>7.0</ele><time>2026-05-05T13:01:21.267Z</time></trkpt><trkpt lat="45.8551915" lon="13.1795351"><ele>8.0</ele><time>2026-05-05T13:01:22.267Z</time></trkpt><trkpt lat="45.8551001" lon="13.1792294"><ele>8.5</ele><time>2026-05-05T13:01:23.267Z</time></trkpt><trkpt lat="45.8550069" lon="13.1789264"><ele>9.0</ele><time>2026-05-05T13:01:24.267Z</time></trkpt><trkpt lat="45.854916" lon="13.1786247"><ele>9.0</ele><time>2026-05-05T13:01:25.267Z</time></trkpt><trkpt lat="45.8548275" lon="13.1783199"><ele>9.0</ele><time>2026-05-05T13:01:26.267Z</time></trkpt><trkpt lat="45.8547363" lon="13.1780179"><ele>9.5</ele><time>2026-05-05T13:01:27.267Z</time></trkpt><trkpt lat="45.8546442" lon="13.1777172"><ele>10.0</ele><time>2026-05-05T13:01:28.266Z</time></trkpt><trkpt lat="45.8545545" lon="13.1774153"><ele>9.5</ele><time>2026-05-05T13:01:29.267Z</time></trkpt><trkpt lat="45.8544641" lon="13.1771105"><ele>9.0</ele><time>2026-05-05T13:01:30.267Z</time></trkpt><trkpt lat="45.8543734" lon="13.1768071"><ele>8.0</ele><time>2026-05-05T13:01:31.266Z</time></trkpt><trkpt lat="45.8542812" lon="13.1764999"><ele>7.0</ele><time>2026-05-05T13:01:32.267Z</time></trkpt><trkpt lat="45.8541905" lon="13.1761978"><ele>7.0</ele><time>2026-05-05T13:01:33.267Z</time></trkpt><trkpt lat="45.8541" lon="13.1758965"><ele>7.0</ele><time>2026-05-05T13:01:34.267Z</time></trkpt><trkpt lat="45.8540048" lon="13.175591"><ele>6.5</ele><time>2026-05-05T13:01:35.267Z</time></trkpt><trkpt lat="45.8539146" lon="13.1752902"><ele>6.0</ele><time>2026-05-05T13:01:36.267Z</time></trkpt><trkpt lat="45.8538251" lon="13.1749924"><ele>5.0</ele><time>2026-05-05T13:01:37.267Z</time></trkpt><trkpt lat="45.8537289" lon="13.1746952"><ele>4.0</ele><time>2026-05-05T13:01:38.266Z</time></trkpt><trkpt lat="45.8536359" lon="13.1743988"><ele>4.0</ele><time>2026-05-05T13:01:39.266Z</time></trkpt><trkpt lat="45.8535398" lon="13.1741045"><ele>4.0</ele><time>2026-05-05T13:01:40.267Z</time></trkpt><trkpt lat="45.8534484" lon="13.1738124"><ele>4.0</ele><time>2026-05-05T13:01:41.266Z</time></trkpt><trkpt lat="45.8533593" lon="13.1735167"><ele>5.333333333333333</ele><time>2026-05-05T13:01:42.267Z</time></trkpt><trkpt lat="45.8532655" lon="13.1732267"><ele>6.666666666666666</ele><time>2026-05-05T13:01:43.267Z</time></trkpt><trkpt lat="45.8531723" lon="13.1729401"><ele>8.0</ele><time>2026-05-05T13:01:44.267Z</time></trkpt><trkpt lat="45.8530807" lon="13.1726501"><ele>8.333333333333332</ele><time>2026-05-05T13:01:45.266Z</time></trkpt><trkpt lat="45.8529859" lon="13.1723614"><ele>8.666666666666666</ele><time>2026-05-05T13:01:46.266Z</time></trkpt><trkpt lat="45.8528945" lon="13.1720788"><ele>9.0</ele><time>2026-05-05T13:01:47.266Z</time></trkpt><trkpt lat="45.8528033" lon="13.1717972"><ele>9.0</ele><time>2026-05-05T13:01:48.267Z</time></trkpt><trkpt lat="45.8527129" lon="13.1715151"><ele>9.0</ele><time>2026-05-05T13:01:49.266Z</time></trkpt><trkpt lat="45.8526245" lon="13.1712333"><ele>9.0</ele><time>2026-05-05T13:01:50.267Z</time></trkpt><trkpt lat="45.852534" lon="13.1709502"><ele>9.333333333333334</ele><time>2026-05-05T13:01:51.266Z</time></trkpt><trkpt lat="45.8524412" lon="13.1706722"><ele>9.666666666666668</ele><time>2026-05-05T13:01:52.267Z</time></trkpt><trkpt lat="45.852354" lon="13.1703948"><ele>10.0</ele><time>2026-05-05T13:01:53.267Z</time></trkpt><trkpt lat="45.8522631" lon="13.1701159"><ele>10.666666666666668</ele><time>2026-05-05T13:01:54.267Z</time></trkpt><trkpt lat="45.8521725" lon="13.1698381"><ele>11.333333333333334</ele><time>2026-05-05T13:01:55.267Z</time></trkpt><trkpt lat="45.8520811" lon="13.1695573"><ele>12.0</ele><time>2026-05-05T13:01:56.267Z</time></trkpt><trkpt lat="45.8519907" lon="13.1692774"><ele>12.0</ele><time>2026-05-05T13:01:57.267Z</time></trkpt><trkpt lat="45.8519005" lon="13.1689975"><ele>12.0</ele><time>2026-05-05T13:01:58.267Z</time></trkpt><trkpt lat="45.8518096" lon="13.1687149"><ele>12.0</ele><time>2026-05-05T13:01:59.267Z</time></trkpt><trkpt lat="45.8517134" lon="13.1684345"><ele>10.333333333333334</ele><time>2026-05-05T13:02:00.266Z</time></trkpt><trkpt lat="45.8516193" lon="13.1681514"><ele>8.666666666666668</ele><time>2026-05-05T13:02:01.267Z</time></trkpt><trkpt lat="45.8515273" lon="13.167866"><ele>7.0</ele><time>2026-05-05T13:02:02.266Z</time></trkpt><trkpt lat="45.851435" lon="13.1675848"><ele>7.333333333333334</ele><time>2026-05-05T13:02:03.266Z</time></trkpt><trkpt lat="45.8513411" lon="13.1673045"><ele>7.666666666666666</ele><time>2026-05-05T13:02:04.267Z</time></trkpt><trkpt lat="45.8512484" lon="13.1670196"><ele>8.0</ele><time>2026-05-05T13:02:05.266Z</time></trkpt><trkpt lat="45.8511539" lon="13.1667342"><ele>8.333333333333332</ele><time>2026-05-05T13:02:06.267Z</time></trkpt><trkpt lat="45.8510587" lon="13.1664504"><ele>8.666666666666666</ele><time>2026-05-05T13:02:07.267Z</time></trkpt><trkpt lat="45.8509677" lon="13.1661663"><ele>9.0</ele><time>2026-05-05T13:02:08.267Z</time></trkpt><trkpt lat="45.8508685" lon="13.1658695"><ele>9.333333333333334</ele><time>2026-05-05T13:02:09.266Z</time></trkpt><trkpt lat="45.8507739" lon="13.1655847"><ele>9.666666666666668</ele><time>2026-05-05T13:02:10.266Z</time></trkpt><trkpt lat="45.8506809" lon="13.1652945"><ele>10.0</ele><time>2026-05-05T13:02:11.266Z</time></trkpt><trkpt lat="45.8505868" lon="13.165005"><ele>9.666666666666668</ele><time>2026-05-05T13:02:12.267Z</time></trkpt><trkpt lat="45.8504898" lon="13.164713"><ele>9.333333333333334</ele><time>2026-05-05T13:02:13.266Z</time></trkpt><trkpt lat="45.8503905" lon="13.1644246"><ele>9.0</ele><time>2026-05-05T13:02:14.267Z</time></trkpt><trkpt lat="45.8502954" lon="13.1641309"><ele>9.0</ele><time>2026-05-05T13:02:15.266Z</time></trkpt><trkpt lat="45.850198" lon="13.1638396"><ele>9.0</ele><time>2026-05-05T13:02:16.267Z</time></trkpt><trkpt lat="45.8501028" lon="13.1635453"><ele>9.0</ele><time>2026-05-05T13:02:17.267Z</time></trkpt><trkpt lat="45.8500089" lon="13.1632504"><ele>9.0</ele><time>2026-05-05T13:02:18.267Z</time></trkpt><trkpt lat="45.8499142" lon="13.162955"><ele>9.0</ele><time>2026-05-05T13:02:19.267Z</time></trkpt><trkpt lat="45.8498207" lon="13.1626592"><ele>9.0</ele><time>2026-05-05T13:02:20.267Z</time></trkpt><trkpt lat="45.8497247" lon="13.1623608"><ele>8.0</ele><time>2026-05-05T13:02:21.266Z</time></trkpt><trkpt lat="45.8496246" lon="13.162062"><ele>7.0</ele><time>2026-05-05T13:02:22.266Z</time></trkpt><trkpt lat="45.8495273" lon="13.1617656"><ele>8.0</ele><time>2026-05-05T13:02:23.267Z</time></trkpt><trkpt lat="45.8494318" lon="13.1614661"><ele>9.0</ele><time>2026-05-05T13:02:24.267Z</time></trkpt><trkpt lat="45.8493386" lon="13.1611679"><ele>9.0</ele><time>2026-05-05T13:02:25.267Z</time></trkpt><trkpt lat="45.8492401" lon="13.1608715"><ele>9.0</ele><time>2026-05-05T13:02:26.267Z</time></trkpt><trkpt lat="45.8491461" lon="13.1605782"><ele>8.5</ele><time>2026-05-05T13:02:27.266Z</time></trkpt><trkpt lat="45.8490482" lon="13.160286"><ele>8.0</ele><time>2026-05-05T13:02:28.267Z</time></trkpt><trkpt lat="45.8489504" lon="13.1599898"><ele>7.0</ele><time>2026-05-05T13:02:29.266Z</time></trkpt><trkpt lat="45.8488536" lon="13.1596955"><ele>6.0</ele><time>2026-05-05T13:02:30.266Z</time></trkpt><trkpt lat="45.8487552" lon="13.1594013"><ele>6.0</ele><time>2026-05-05T13:02:31.266Z</time></trkpt><trkpt lat="45.84866" lon="13.1591071"><ele>6.0</ele><time>2026-05-05T13:02:32.267Z</time></trkpt><trkpt lat="45.8485639" lon="13.1588108"><ele>6.0</ele><time>2026-05-05T13:02:33.266Z</time></trkpt><trkpt lat="45.8484663" lon="13.1585199"><ele>6.0</ele><time>2026-05-05T13:02:34.267Z</time></trkpt><trkpt lat="45.8483716" lon="13.1582265"><ele>6.0</ele><time>2026-05-05T13:02:35.267Z</time></trkpt><trkpt lat="45.8482772" lon="13.1579339"><ele>6.0</ele><time>2026-05-05T13:02:36.267Z</time></trkpt><trkpt lat="45.848183" lon="13.1576444"><ele>6.0</ele><time>2026-05-05T13:02:37.267Z</time></trkpt><trkpt lat="45.8480898" lon="13.157348"><ele>6.0</ele><time>2026-05-05T13:02:38.267Z</time></trkpt><trkpt lat="45.8479936" lon="13.1570539"><ele>6.0</ele><time>2026-05-05T13:02:39.267Z</time></trkpt><trkpt lat="45.8478948" lon="13.1567636"><ele>6.0</ele><time>2026-05-05T13:02:40.267Z</time></trkpt><trkpt lat="45.8477986" lon="13.1564771"><ele>6.0</ele><time>2026-05-05T13:02:41.267Z</time></trkpt><trkpt lat="45.8477046" lon="13.1561839"><ele>6.0</ele><time>2026-05-05T13:02:42.267Z</time></trkpt><trkpt lat="45.8476108" lon="13.1558946"><ele>6.666666666666666</ele><time>2026-05-05T13:02:43.266Z</time></trkpt><trkpt lat="45.8475175" lon="13.1556042"><ele>7.333333333333333</ele><time>2026-05-05T13:02:44.267Z</time></trkpt><trkpt lat="45.8474229" lon="13.1553193"><ele>8.0</ele><time>2026-05-05T13:02:45.266Z</time></trkpt><trkpt lat="45.8473297" lon="13.1550311"><ele>7.666666666666666</ele><time>2026-05-05T13:02:46.267Z</time></trkpt><trkpt lat="45.8472347" lon="13.1547392"><ele>7.333333333333334</ele><time>2026-05-05T13:02:47.267Z</time></trkpt><trkpt lat="45.8471464" lon="13.1544524"><ele>7.0</ele><time>2026-05-05T13:02:48.266Z</time></trkpt><trkpt lat="45.8470511" lon="13.1541605"><ele>6.666666666666667</ele><time>2026-05-05T13:02:49.266Z</time></trkpt><trkpt lat="45.846956" lon="13.1538668"><ele>6.333333333333334</ele><time>2026-05-05T13:02:50.266Z</time></trkpt><trkpt lat="45.8468639" lon="13.1535767"><ele>6.0</ele><time>2026-05-05T13:02:51.267Z</time></trkpt><trkpt lat="45.8467673" lon="13.1532823"><ele>6.0</ele><time>2026-05-05T13:02:52.266Z</time></trkpt><trkpt lat="45.8466739" lon="13.1529886"><ele>6.0</ele><time>2026-05-05T13:02:53.267Z</time></trkpt><trkpt lat="45.8465743" lon="13.1526934"><ele>6.0</ele><time>2026-05-05T13:02:54.267Z</time></trkpt><trkpt lat="45.8464791" lon="13.1524021"><ele>6.0</ele><time>2026-05-05T13:02:55.267Z</time></trkpt><trkpt lat="45.8463818" lon="13.1521047"><ele>6.0</ele><time>2026-05-05T13:02:56.267Z</time></trkpt><trkpt lat="45.8462878" lon="13.1518107"><ele>6.0</ele><time>2026-05-05T13:02:57.267Z</time></trkpt><trkpt lat="45.8461885" lon="13.1515122"><ele>6.0</ele><time>2026-05-05T13:02:58.267Z</time></trkpt><trkpt lat="45.8460899" lon="13.1512128"><ele>6.0</ele><time>2026-05-05T13:02:59.266Z</time></trkpt><trkpt lat="45.8459879" lon="13.1509146"><ele>6.5</ele><time>2026-05-05T13:03:00.266Z</time></trkpt><trkpt lat="45.8458867" lon="13.1506141"><ele>7.0</ele><time>2026-05-05T13:03:01.267Z</time></trkpt><trkpt lat="45.845785" lon="13.150309"><ele>7.0</ele><time>2026-05-05T13:03:02.267Z</time></trkpt><trkpt lat="45.8456851" lon="13.1500061"><ele>7.0</ele><time>2026-05-05T13:03:03.267Z</time></trkpt><trkpt lat="45.8455862" lon="13.1496982"><ele>7.0</ele><time>2026-05-05T13:03:04.267Z</time></trkpt><trkpt lat="45.845484" lon="13.1493928"><ele>7.0</ele><time>2026-05-05T13:03:05.267Z</time></trkpt><trkpt lat="45.8453836" lon="13.1490851"><ele>6.5</ele><time>2026-05-05T13:03:06.267Z</time></trkpt><trkpt lat="45.8452779" lon="13.1487782"><ele>6.0</ele><time>2026-05-05T13:03:07.266Z</time></trkpt><trkpt lat="45.8451664" lon="13.148465"><ele>6.5</ele><time>2026-05-05T13:03:08.267Z</time></trkpt><trkpt lat="45.845056" lon="13.1481437"><ele>7.0</ele><time>2026-05-05T13:03:09.267Z</time></trkpt><trkpt lat="45.8449454" lon="13.147826"><ele>7.0</ele><time>2026-05-05T13:03:10.267Z</time></trkpt><trkpt lat="45.8448404" lon="13.1475061"><ele>7.0</ele><time>2026-05-05T13:03:11.266Z</time></trkpt><trkpt lat="45.8447333" lon="13.1471873"><ele>7.5</ele><time>2026-05-05T13:03:12.266Z</time></trkpt><trkpt lat="45.8446289" lon="13.1468694"><ele>8.0</ele><time>2026-05-05T13:03:13.267Z</time></trkpt><trkpt lat="45.8445251" lon="13.1465454"><ele>8.0</ele><time>2026-05-05T13:03:14.267Z</time></trkpt><trkpt lat="45.8444207" lon="13.1462277"><ele>8.0</ele><time>2026-05-05T13:03:15.266Z</time></trkpt><trkpt lat="45.844315" lon="13.1459128"><ele>7.0</ele><time>2026-05-05T13:03:16.267Z</time></trkpt><trkpt lat="45.8442151" lon="13.145592"><ele>6.0</ele><time>2026-05-05T13:03:17.267Z</time></trkpt><trkpt lat="45.8441093" lon="13.145269"><ele>6.0</ele><time>2026-05-05T13:03:18.266Z</time></trkpt><trkpt lat="45.8440034" lon="13.1449439"><ele>6.0</ele><time>2026-05-05T13:03:19.266Z</time></trkpt><trkpt lat="45.8438977" lon="13.1446238"><ele>6.5</ele><time>2026-05-05T13:03:20.267Z</time></trkpt><trkpt lat="45.8437926" lon="13.1443002"><ele>7.0</ele><time>2026-05-05T13:03:21.267Z</time></trkpt><trkpt lat="45.8436909" lon="13.1439772"><ele>6.0</ele><time>2026-05-05T13:03:22.267Z</time></trkpt><trkpt lat="45.8435851" lon="13.1436521"><ele>5.0</ele><time>2026-05-05T13:03:23.266Z</time></trkpt><trkpt lat="45.8434762" lon="13.143328"><ele>6.0</ele><time>2026-05-05T13:03:24.267Z</time></trkpt><trkpt lat="45.8433702" lon="13.1430055"><ele>7.0</ele><time>2026-05-05T13:03:25.267Z</time></trkpt><trkpt lat="45.8432624" lon="13.1426841"><ele>7.0</ele><time>2026-05-05T13:03:26.267Z</time></trkpt><trkpt lat="45.843155" lon="13.1423605"><ele>7.0</ele><time>2026-05-05T13:03:27.267Z</time></trkpt><trkpt lat="45.8430465" lon="13.1420359"><ele>7.0</ele><time>2026-05-05T13:03:28.267Z</time></trkpt><trkpt lat="45.8429394" lon="13.1417195"><ele>7.0</ele><time>2026-05-05T13:03:29.267Z</time></trkpt><trkpt lat="45.8428331" lon="13.141393"><ele>7.0</ele><time>2026-05-05T13:03:30.266Z</time></trkpt><trkpt lat="45.842726" lon="13.1410702"><ele>7.0</ele><time>2026-05-05T13:03:31.267Z</time></trkpt><trkpt lat="45.8426182" lon="13.1407446"><ele>6.5</ele><time>2026-05-05T13:03:32.267Z</time></trkpt><trkpt lat="45.8425097" lon="13.1404188"><ele>6.0</ele><time>2026-05-05T13:03:33.267Z</time></trkpt><trkpt lat="45.8424001" lon="13.1400994"><ele>7.0</ele><time>2026-05-05T13:03:34.267Z</time></trkpt><trkpt lat="45.8422976" lon="13.1397731"><ele>8.0</ele><time>2026-05-05T13:03:35.267Z</time></trkpt><trkpt lat="45.8421918" lon="13.1394486"><ele>8.0</ele><time>2026-05-05T13:03:36.267Z</time></trkpt><trkpt lat="45.8420884" lon="13.1391269"><ele>8.0</ele><time>2026-05-05T13:03:37.267Z</time></trkpt><trkpt lat="45.8419827" lon="13.138806"><ele>8.0</ele><time>2026-05-05T13:03:38.266Z</time></trkpt><trkpt lat="45.8418747" lon="13.1384817"><ele>8.0</ele><time>2026-05-05T13:03:39.267Z</time></trkpt><trkpt lat="45.8417712" lon="13.1381579"><ele>8.0</ele><time>2026-05-05T13:03:40.267Z</time></trkpt><trkpt lat="45.8416637" lon="13.1378339"><ele>8.0</ele><time>2026-05-05T13:03:41.267Z</time></trkpt><trkpt lat="45.8415586" lon="13.1375103"><ele>7.5</ele><time>2026-05-05T13:03:42.267Z</time></trkpt><trkpt lat="45.8414533" lon="13.1371903"><ele>7.0</ele><time>2026-05-05T13:03:43.267Z</time></trkpt><trkpt lat="45.8413512" lon="13.1368705"><ele>7.0</ele><time>2026-05-05T13:03:44.267Z</time></trkpt><trkpt lat="45.8412515" lon="13.1365531"><ele>7.0</ele><time>2026-05-05T13:03:45.266Z</time></trkpt><trkpt lat="45.8411507" lon="13.1362333"><ele>8.0</ele><time>2026-05-05T13:03:46.267Z</time></trkpt><trkpt lat="45.8410467" lon="13.1359107"><ele>9.0</ele><time>2026-05-05T13:03:47.266Z</time></trkpt><trkpt lat="45.8409427" lon="13.1355946"><ele>9.5</ele><time>2026-05-05T13:03:48.267Z</time></trkpt><trkpt lat="45.8408358" lon="13.1352763"><ele>10.0</ele><time>2026-05-05T13:03:49.266Z</time></trkpt><trkpt lat="45.8407282" lon="13.1349546"><ele>10.0</ele><time>2026-05-05T13:03:50.267Z</time></trkpt><trkpt lat="45.8406221" lon="13.1346274"><ele>10.0</ele><time>2026-05-05T13:03:51.266Z</time></trkpt><trkpt lat="45.8405148" lon="13.1342991"><ele>11.0</ele><time>2026-05-05T13:03:52.267Z</time></trkpt><trkpt lat="45.840413" lon="13.1339784"><ele>12.0</ele><time>2026-05-05T13:03:53.267Z</time></trkpt><trkpt lat="45.8403092" lon="13.133657"><ele>12.0</ele><time>2026-05-05T13:03:54.267Z</time></trkpt><trkpt lat="45.8402047" lon="13.1333396"><ele>12.0</ele><time>2026-05-05T13:03:55.267Z</time></trkpt><trkpt lat="45.8400996" lon="13.1330232"><ele>10.0</ele><time>2026-05-05T13:03:56.266Z</time></trkpt><trkpt lat="45.839996" lon="13.1327116"><ele>8.0</ele><time>2026-05-05T13:03:57.267Z</time></trkpt><trkpt lat="45.8398944" lon="13.1324058"><ele>8.0</ele><time>2026-05-05T13:03:58.266Z</time></trkpt><trkpt lat="45.8397903" lon="13.1320979"><ele>8.0</ele><time>2026-05-05T13:03:59.266Z</time></trkpt><trkpt lat="45.8396887" lon="13.1317911"><ele>8.0</ele><time>2026-05-05T13:04:00.267Z</time></trkpt><trkpt lat="45.8395875" lon="13.1314844"><ele>8.0</ele><time>2026-05-05T13:04:01.267Z</time></trkpt><trkpt lat="45.8394901" lon="13.1311802"><ele>8.0</ele><time>2026-05-05T13:04:02.267Z</time></trkpt><trkpt lat="45.8393917" lon="13.1308752"><ele>8.0</ele><time>2026-05-05T13:04:03.267Z</time></trkpt><trkpt lat="45.8392927" lon="13.1305669"><ele>7.5</ele><time>2026-05-05T13:04:04.267Z</time></trkpt><trkpt lat="45.8391938" lon="13.1302614"><ele>7.0</ele><time>2026-05-05T13:04:05.266Z</time></trkpt><trkpt lat="45.8390955" lon="13.1299481"><ele>8.0</ele><time>2026-05-05T13:04:06.267Z</time></trkpt><trkpt lat="45.8389951" lon="13.1296396"><ele>9.0</ele><time>2026-05-05T13:04:07.266Z</time></trkpt><trkpt lat="45.8388916" lon="13.1293283"><ele>9.5</ele><time>2026-05-05T13:04:08.267Z</time></trkpt><trkpt lat="45.8387849" lon="13.1290185"><ele>10.0</ele><time>2026-05-05T13:04:09.267Z</time></trkpt><trkpt lat="45.8386796" lon="13.128703"><ele>10.0</ele><time>2026-05-05T13:04:10.266Z</time></trkpt><trkpt lat="45.838579" lon="13.1283923"><ele>10.0</ele><time>2026-05-05T13:04:11.267Z</time></trkpt><trkpt lat="45.8384716" lon="13.1280739"><ele>8.5</ele><time>2026-05-05T13:04:12.267Z</time></trkpt><trkpt lat="45.8383625" lon="13.1277495"><ele>7.0</ele><time>2026-05-05T13:04:13.267Z</time></trkpt><trkpt lat="45.8382488" lon="13.1274219"><ele>8.0</ele><time>2026-05-05T13:04:14.266Z</time></trkpt><trkpt lat="45.8381301" lon="13.1270883"><ele>9.0</ele><time>2026-05-05T13:04:15.267Z</time></trkpt><trkpt lat="45.8380127" lon="13.1267444"><ele>8.5</ele><time>2026-05-05T13:04:16.266Z</time></trkpt><trkpt lat="45.8378957" lon="13.1264011"><ele>8.0</ele><time>2026-05-05T13:04:17.266Z</time></trkpt><trkpt lat="45.8377753" lon="13.1260516"><ele>7.5</ele><time>2026-05-05T13:04:18.267Z</time></trkpt><trkpt lat="45.8376553" lon="13.1257024"><ele>7.0</ele><time>2026-05-05T13:04:19.266Z</time></trkpt><trkpt lat="45.8375406" lon="13.1253499"><ele>7.0</ele><time>2026-05-05T13:04:20.266Z</time></trkpt><trkpt lat="45.8374266" lon="13.1250023"><ele>7.0</ele><time>2026-05-05T13:04:21.266Z</time></trkpt><trkpt lat="45.8373108" lon="13.1246537"><ele>7.0</ele><time>2026-05-05T13:04:22.267Z</time></trkpt><trkpt lat="45.8372001" lon="13.1243075"><ele>7.0</ele><time>2026-05-05T13:04:23.267Z</time></trkpt><trkpt lat="45.8370854" lon="13.1239556"><ele>7.0</ele><time>2026-05-05T13:04:24.267Z</time></trkpt><trkpt lat="45.8369734" lon="13.1236037"><ele>7.0</ele><time>2026-05-05T13:04:25.266Z</time></trkpt><trkpt lat="45.8368569" lon="13.1232485"><ele>7.0</ele><time>2026-05-05T13:04:26.267Z</time></trkpt><trkpt lat="45.8367418" lon="13.1228955"><ele>7.0</ele><time>2026-05-05T13:04:27.267Z</time></trkpt><trkpt lat="45.8366248" lon="13.122543"><ele>7.0</ele><time>2026-05-05T13:04:28.266Z</time></trkpt><trkpt lat="45.8365095" lon="13.1221933"><ele>7.0</ele><time>2026-05-05T13:04:29.267Z</time></trkpt><trkpt lat="45.8363944" lon="13.1218431"><ele>6.5</ele><time>2026-05-05T13:04:30.267Z</time></trkpt><trkpt lat="45.836286" lon="13.1214961"><ele>6.0</ele><time>2026-05-05T13:04:31.267Z</time></trkpt><trkpt lat="45.8361765" lon="13.1211535"><ele>6.0</ele><time>2026-05-05T13:04:32.267Z</time></trkpt><trkpt lat="45.8360683" lon="13.1208138"><ele>6.0</ele><time>2026-05-05T13:04:33.267Z</time></trkpt><trkpt lat="45.8359571" lon="13.1204713"><ele>6.0</ele><time>2026-05-05T13:04:34.266Z</time></trkpt><trkpt lat="45.8358406" lon="13.1201316"><ele>6.0</ele><time>2026-05-05T13:04:35.267Z</time></trkpt><trkpt lat="45.8357356" lon="13.1197978"><ele>6.0</ele><time>2026-05-05T13:04:36.267Z</time></trkpt><trkpt lat="45.8356326" lon="13.1194559"><ele>6.0</ele><time>2026-05-05T13:04:37.267Z</time></trkpt><trkpt lat="45.8355278" lon="13.1191104"><ele>6.0</ele><time>2026-05-05T13:04:38.266Z</time></trkpt><trkpt lat="45.8354173" lon="13.1187696"><ele>6.0</ele><time>2026-05-05T13:04:39.267Z</time></trkpt><trkpt lat="45.8353161" lon="13.118438"><ele>6.5</ele><time>2026-05-05T13:04:40.267Z</time></trkpt><trkpt lat="45.8352148" lon="13.1181072"><ele>7.0</ele><time>2026-05-05T13:04:41.266Z</time></trkpt><trkpt lat="45.8351114" lon="13.1177793"><ele>7.5</ele><time>2026-05-05T13:04:42.267Z</time></trkpt><trkpt lat="45.8350047" lon="13.1174525"><ele>8.0</ele><time>2026-05-05T13:04:43.266Z</time></trkpt><trkpt lat="45.8349003" lon="13.1171272"><ele>8.0</ele><time>2026-05-05T13:04:44.266Z</time></trkpt><trkpt lat="45.8347928" lon="13.1168024"><ele>8.0</ele><time>2026-05-05T13:04:45.267Z</time></trkpt><trkpt lat="45.8346874" lon="13.1164754"><ele>7.0</ele><time>2026-05-05T13:04:46.266Z</time></trkpt><trkpt lat="45.834585" lon="13.11615"><ele>6.0</ele><time>2026-05-05T13:04:47.266Z</time></trkpt><trkpt lat="45.8344877" lon="13.1158231"><ele>5.5</ele><time>2026-05-05T13:04:48.267Z</time></trkpt><trkpt lat="45.8343886" lon="13.1154925"><ele>5.0</ele><time>2026-05-05T13:04:49.267Z</time></trkpt><trkpt lat="45.8342888" lon="13.1151614"><ele>6.0</ele><time>2026-05-05T13:04:50.267Z</time></trkpt><trkpt lat="45.8341949" lon="13.1148344"><ele>7.0</ele><time>2026-05-05T13:04:51.267Z</time></trkpt><trkpt lat="45.8340978" lon="13.1145047"><ele>7.0</ele><time>2026-05-05T13:04:52.267Z</time></trkpt><trkpt lat="45.8340034" lon="13.1141762"><ele>7.0</ele><time>2026-05-05T13:04:53.267Z</time></trkpt><trkpt lat="45.8339157" lon="13.1138522"><ele>6.0</ele><time>2026-05-05T13:04:54.267Z</time></trkpt><trkpt lat="45.8338222" lon="13.113521"><ele>5.0</ele><time>2026-05-05T13:04:55.267Z</time></trkpt><trkpt lat="45.8337367" lon="13.1131971"><ele>5.0</ele><time>2026-05-05T13:04:56.266Z</time></trkpt><trkpt lat="45.8336542" lon="13.1128719"><ele>5.0</ele><time>2026-05-05T13:04:57.266Z</time></trkpt><trkpt lat="45.8335654" lon="13.1125456"><ele>5.0</ele><time>2026-05-05T13:04:58.266Z</time></trkpt><trkpt lat="45.8334781" lon="13.1122121"><ele>5.0</ele><time>2026-05-05T13:04:59.267Z</time></trkpt><trkpt lat="45.8333884" lon="13.1118773"><ele>5.0</ele><time>2026-05-05T13:05:00.266Z</time></trkpt><trkpt lat="45.8332989" lon="13.1115358"><ele>5.0</ele><time>2026-05-05T13:05:01.266Z</time></trkpt><trkpt lat="45.8332084" lon="13.1111823"><ele>5.0</ele><time>2026-05-05T13:05:02.266Z</time></trkpt><trkpt lat="45.8331217" lon="13.1108258"><ele>5.0</ele><time>2026-05-05T13:05:03.266Z</time></trkpt><trkpt lat="45.8330284" lon="13.1104652"><ele>5.0</ele><time>2026-05-05T13:05:04.266Z</time></trkpt><trkpt lat="45.8329397" lon="13.1100959"><ele>5.0</ele><time>2026-05-05T13:05:05.266Z</time></trkpt><trkpt lat="45.8328506" lon="13.109725"><ele>5.0</ele><time>2026-05-05T13:05:06.267Z</time></trkpt><trkpt lat="45.8327643" lon="13.1093499"><ele>5.0</ele><time>2026-05-05T13:05:07.266Z</time></trkpt><trkpt lat="45.8326831" lon="13.1089774"><ele>5.0</ele><time>2026-05-05T13:05:08.267Z</time></trkpt><trkpt lat="45.832601" lon="13.1085949"><ele>5.0</ele><time>2026-05-05T13:05:09.267Z</time></trkpt><trkpt lat="45.8325182" lon="13.1082"><ele>5.0</ele><time>2026-05-05T13:05:10.267Z</time></trkpt><trkpt lat="45.8324368" lon="13.1077961"><ele>5.0</ele><time>2026-05-05T13:05:11.266Z</time></trkpt><trkpt lat="45.8323615" lon="13.1073875"><ele>5.5</ele><time>2026-05-05T13:05:12.266Z</time></trkpt><trkpt lat="45.8322797" lon="13.1069814"><ele>6.0</ele><time>2026-05-05T13:05:13.267Z</time></trkpt><trkpt lat="45.8322076" lon="13.1065743"><ele>6.0</ele><time>2026-05-05T13:05:14.266Z</time></trkpt><trkpt lat="45.8321349" lon="13.1061721"><ele>6.0</ele><time>2026-05-05T13:05:15.266Z</time></trkpt><trkpt lat="45.8320597" lon="13.1057665"><ele>5.0</ele><time>2026-05-05T13:05:16.267Z</time></trkpt><trkpt lat="45.8319957" lon="13.1053635"><ele>4.0</ele><time>2026-05-05T13:05:17.267Z</time></trkpt><trkpt lat="45.8319289" lon="13.1049578"><ele>4.0</ele><time>2026-05-05T13:05:18.266Z</time></trkpt><trkpt lat="45.8318629" lon="13.104551"><ele>4.0</ele><time>2026-05-05T13:05:19.266Z</time></trkpt><trkpt lat="45.8317959" lon="13.104141"><ele>5.0</ele><time>2026-05-05T13:05:20.267Z</time></trkpt><trkpt lat="45.8317313" lon="13.1037284"><ele>6.0</ele><time>2026-05-05T13:05:21.267Z</time></trkpt><trkpt lat="45.8316746" lon="13.103316"><ele>6.0</ele><time>2026-05-05T13:05:22.266Z</time></trkpt><trkpt lat="45.8316143" lon="13.1029014"><ele>6.0</ele><time>2026-05-05T13:05:23.266Z</time></trkpt><trkpt lat="45.8315545" lon="13.1024887"><ele>6.0</ele><time>2026-05-05T13:05:24.266Z</time></trkpt><trkpt lat="45.8314986" lon="13.1020757"><ele>6.0</ele><time>2026-05-05T13:05:25.267Z</time></trkpt><trkpt lat="45.8314372" lon="13.1016637"><ele>6.0</ele><time>2026-05-05T13:05:26.266Z</time></trkpt><trkpt lat="45.8313751" lon="13.1012511"><ele>6.0</ele><time>2026-05-05T13:05:27.267Z</time></trkpt><trkpt lat="45.8313117" lon="13.100837"><ele>6.0</ele><time>2026-05-05T13:05:28.267Z</time></trkpt><trkpt lat="45.8312521" lon="13.1004264"><ele>6.0</ele><time>2026-05-05T13:05:29.267Z</time></trkpt><trkpt lat="45.8311968" lon="13.1000142"><ele>6.5</ele><time>2026-05-05T13:05:30.266Z</time></trkpt><trkpt lat="45.8311416" lon="13.0996066"><ele>7.0</ele><time>2026-05-05T13:05:31.267Z</time></trkpt><trkpt lat="45.8310878" lon="13.0992037"><ele>7.0</ele><time>2026-05-05T13:05:32.266Z</time></trkpt><trkpt lat="45.8310377" lon="13.0987965"><ele>7.0</ele><time>2026-05-05T13:05:33.267Z</time></trkpt><trkpt lat="45.830987" lon="13.0983881"><ele>6.0</ele><time>2026-05-05T13:05:34.266Z</time></trkpt><trkpt lat="45.8309356" lon="13.0979821"><ele>5.0</ele><time>2026-05-05T13:05:35.267Z</time></trkpt><trkpt lat="45.8308778" lon="13.0975816"><ele>4.0</ele><time>2026-05-05T13:05:36.266Z</time></trkpt><trkpt lat="45.8308232" lon="13.0971813"><ele>3.0</ele><time>2026-05-05T13:05:37.267Z</time></trkpt><trkpt lat="45.830762" lon="13.0967851"><ele>3.0</ele><time>2026-05-05T13:05:38.267Z</time></trkpt><trkpt lat="45.8307072" lon="13.0963946"><ele>3.0</ele><time>2026-05-05T13:05:39.266Z</time></trkpt><trkpt lat="45.8306494" lon="13.096006"><ele>2.5</ele><time>2026-05-05T13:05:40.266Z</time></trkpt><trkpt lat="45.8305921" lon="13.0956133"><ele>2.0</ele><time>2026-05-05T13:05:41.266Z</time></trkpt><trkpt lat="45.8305341" lon="13.0952238"><ele>2.5</ele><time>2026-05-05T13:05:42.267Z</time></trkpt><trkpt lat="45.8304797" lon="13.0948279"><ele>3.0</ele><time>2026-05-05T13:05:43.266Z</time></trkpt><trkpt lat="45.8304247" lon="13.0944364"><ele>3.0</ele><time>2026-05-05T13:05:44.266Z</time></trkpt><trkpt lat="45.8303693" lon="13.0940411"><ele>3.0</ele><time>2026-05-05T13:05:45.266Z</time></trkpt><trkpt lat="45.8303144" lon="13.0936525"><ele>3.0</ele><time>2026-05-05T13:05:46.266Z</time></trkpt><trkpt lat="45.8302573" lon="13.0932606"><ele>3.0</ele><time>2026-05-05T13:05:47.267Z</time></trkpt><trkpt lat="45.8302057" lon="13.0928733"><ele>2.5</ele><time>2026-05-05T13:05:48.267Z</time></trkpt><trkpt lat="45.8301499" lon="13.0924807"><ele>2.0</ele><time>2026-05-05T13:05:49.267Z</time></trkpt><trkpt lat="45.8300936" lon="13.0920927"><ele>2.0</ele><time>2026-05-05T13:05:50.267Z</time></trkpt><trkpt lat="45.8300368" lon="13.0917032"><ele>2.0</ele><time>2026-05-05T13:05:51.267Z</time></trkpt><trkpt lat="45.8299813" lon="13.0913114"><ele>2.0</ele><time>2026-05-05T13:05:52.267Z</time></trkpt><trkpt lat="45.829926" lon="13.0909212"><ele>2.0</ele><time>2026-05-05T13:05:53.267Z</time></trkpt><trkpt lat="45.8298713" lon="13.0905333"><ele>2.0</ele><time>2026-05-05T13:05:54.267Z</time></trkpt><trkpt lat="45.8298137" lon="13.0901498"><ele>2.0</ele><time>2026-05-05T13:05:55.267Z</time></trkpt><trkpt lat="45.8297602" lon="13.0897682"><ele>2.0</ele><time>2026-05-05T13:05:56.266Z</time></trkpt><trkpt lat="45.8297086" lon="13.0893875"><ele>2.0</ele><time>2026-05-05T13:05:57.267Z</time></trkpt><trkpt lat="45.8296585" lon="13.0890041"><ele>2.0</ele><time>2026-05-05T13:05:58.267Z</time></trkpt><trkpt lat="45.8296099" lon="13.0886257"><ele>2.0</ele><time>2026-05-05T13:05:59.266Z</time></trkpt><trkpt lat="45.8295606" lon="13.0882482"><ele>1.0</ele><time>2026-05-05T13:06:00.267Z</time></trkpt><trkpt lat="45.8295119" lon="13.0878773"><ele>0.0</ele><time>2026-05-05T13:06:01.267Z</time></trkpt><trkpt lat="45.8294563" lon="13.087504"><ele>0.5</ele><time>2026-05-05T13:06:02.266Z</time></trkpt><trkpt lat="45.8294055" lon="13.0871321"><ele>1.0</ele><time>2026-05-05T13:06:03.266Z</time></trkpt><trkpt lat="45.829352" lon="13.0867567"><ele>2.5</ele><time>2026-05-05T13:06:04.267Z</time></trkpt><trkpt lat="45.8292971" lon="13.0863814"><ele>4.0</ele><time>2026-05-05T13:06:05.267Z</time></trkpt><trkpt lat="45.829245" lon="13.08601"><ele>3.0</ele><time>2026-05-05T13:06:06.266Z</time></trkpt><trkpt lat="45.8291917" lon="13.0856367"><ele>2.0</ele><time>2026-05-05T13:06:07.267Z</time></trkpt><trkpt lat="45.829141" lon="13.0852657"><ele>2.0</ele><time>2026-05-05T13:06:08.266Z</time></trkpt><trkpt lat="45.829091" lon="13.0849004"><ele>2.0</ele><time>2026-05-05T13:06:09.267Z</time></trkpt><trkpt lat="45.8290382" lon="13.0845317"><ele>2.0</ele><time>2026-05-05T13:06:10.266Z</time></trkpt><trkpt lat="45.8289848" lon="13.0841678"><ele>2.0</ele><time>2026-05-05T13:06:11.267Z</time></trkpt><trkpt lat="45.8289304" lon="13.0838048"><ele>2.0</ele><time>2026-05-05T13:06:12.267Z</time></trkpt><trkpt lat="45.8288719" lon="13.0834391"><ele>2.0</ele><time>2026-05-05T13:06:13.266Z</time></trkpt><trkpt lat="45.8288177" lon="13.0830718"><ele>1.5</ele><time>2026-05-05T13:06:14.267Z</time></trkpt><trkpt lat="45.8287643" lon="13.0827018"><ele>1.0</ele><time>2026-05-05T13:06:15.266Z</time></trkpt><trkpt lat="45.8287088" lon="13.0823329"><ele>1.5</ele><time>2026-05-05T13:06:16.267Z</time></trkpt><trkpt lat="45.8286488" lon="13.0819629"><ele>2.0</ele><time>2026-05-05T13:06:17.266Z</time></trkpt><trkpt lat="45.8285899" lon="13.081589"><ele>2.0</ele><time>2026-05-05T13:06:18.266Z</time></trkpt><trkpt lat="45.8285327" lon="13.0812099"><ele>2.0</ele><time>2026-05-05T13:06:19.266Z</time></trkpt><trkpt lat="45.8284747" lon="13.0808299"><ele>2.0</ele><time>2026-05-05T13:06:20.267Z</time></trkpt><trkpt lat="45.8284166" lon="13.0804486"><ele>2.0</ele><time>2026-05-05T13:06:21.267Z</time></trkpt><trkpt lat="45.8283638" lon="13.080069"><ele>1.0</ele><time>2026-05-05T13:06:22.266Z</time></trkpt><trkpt lat="45.8283084" lon="13.0796912"><ele>0.0</ele><time>2026-05-05T13:06:23.267Z</time></trkpt><trkpt lat="45.8282555" lon="13.079308"><ele>0.0</ele><time>2026-05-05T13:06:24.267Z</time></trkpt><trkpt lat="45.8282003" lon="13.0789278"><ele>0.0</ele><time>2026-05-05T13:06:25.267Z</time></trkpt><trkpt lat="45.8281391" lon="13.0785459"><ele>0.5</ele><time>2026-05-05T13:06:26.267Z</time></trkpt><trkpt lat="45.8280795" lon="13.0781622"><ele>1.0</ele><time>2026-05-05T13:06:27.267Z</time></trkpt><trkpt lat="45.8280168" lon="13.0777816"><ele>2.0</ele><time>2026-05-05T13:06:28.267Z</time></trkpt><trkpt lat="45.8279572" lon="13.0774006"><ele>3.0</ele><time>2026-05-05T13:06:29.266Z</time></trkpt><trkpt lat="45.8278991" lon="13.0770202"><ele>3.0</ele><time>2026-05-05T13:06:30.267Z</time></trkpt><trkpt lat="45.8278393" lon="13.0766465"><ele>3.0</ele><time>2026-05-05T13:06:31.267Z</time></trkpt><trkpt lat="45.8277842" lon="13.0762648"><ele>3.0</ele><time>2026-05-05T13:06:32.267Z</time></trkpt><trkpt lat="45.827725" lon="13.0758848"><ele>3.0</ele><time>2026-05-05T13:06:33.266Z</time></trkpt><trkpt lat="45.8276709" lon="13.075507"><ele>3.5</ele><time>2026-05-05T13:06:34.267Z</time></trkpt><trkpt lat="45.827617" lon="13.0751362"><ele>4.0</ele><time>2026-05-05T13:06:35.267Z</time></trkpt><trkpt lat="45.8275661" lon="13.0747693"><ele>4.0</ele><time>2026-05-05T13:06:36.267Z</time></trkpt><trkpt lat="45.8275159" lon="13.0744081"><ele>4.0</ele><time>2026-05-05T13:06:37.266Z</time></trkpt><trkpt lat="45.827458" lon="13.0740377"><ele>4.0</ele><time>2026-05-05T13:06:38.266Z</time></trkpt><trkpt lat="45.8274079" lon="13.0736693"><ele>4.0</ele><time>2026-05-05T13:06:39.267Z</time></trkpt><trkpt lat="45.8273574" lon="13.0733048"><ele>4.0</ele><time>2026-05-05T13:06:40.267Z</time></trkpt><trkpt lat="45.827305" lon="13.0729367"><ele>4.0</ele><time>2026-05-05T13:06:41.267Z</time></trkpt><trkpt lat="45.8272517" lon="13.0725771"><ele>4.0</ele><time>2026-05-05T13:06:42.266Z</time></trkpt><trkpt lat="45.8271992" lon="13.0722152"><ele>4.0</ele><time>2026-05-05T13:06:43.266Z</time></trkpt><trkpt lat="45.8271423" lon="13.0718487"><ele>4.0</ele><time>2026-05-05T13:06:44.266Z</time></trkpt><trkpt lat="45.8270907" lon="13.0714888"><ele>4.0</ele><time>2026-05-05T13:06:45.267Z</time></trkpt><trkpt lat="45.8270317" lon="13.0711182"><ele>4.0</ele><time>2026-05-05T13:06:46.267Z</time></trkpt><trkpt lat="45.8269757" lon="13.0707453"><ele>4.0</ele><time>2026-05-05T13:06:47.266Z</time></trkpt><trkpt lat="45.8269158" lon="13.070373"><ele>4.0</ele><time>2026-05-05T13:06:48.266Z</time></trkpt><trkpt lat="45.8268552" lon="13.0699811"><ele>4.0</ele><time>2026-05-05T13:06:49.266Z</time></trkpt><trkpt lat="45.8267933" lon="13.0695829"><ele>4.0</ele><time>2026-05-05T13:06:50.267Z</time></trkpt><trkpt lat="45.8267309" lon="13.0691792"><ele>4.0</ele><time>2026-05-05T13:06:51.267Z</time></trkpt><trkpt lat="45.8266705" lon="13.0687743"><ele>5.0</ele><time>2026-05-05T13:06:52.266Z</time></trkpt><trkpt lat="45.8266068" lon="13.0683707"><ele>6.0</ele><time>2026-05-05T13:06:53.267Z</time></trkpt><trkpt lat="45.8265495" lon="13.0679677"><ele>6.0</ele><time>2026-05-05T13:06:54.266Z</time></trkpt><trkpt lat="45.8264952" lon="13.0675637"><ele>6.0</ele><time>2026-05-05T13:06:55.267Z</time></trkpt><trkpt lat="45.8264386" lon="13.067159"><ele>5.5</ele><time>2026-05-05T13:06:56.266Z</time></trkpt><trkpt lat="45.8263926" lon="13.0667614"><ele>5.0</ele><time>2026-05-05T13:06:57.267Z</time></trkpt><trkpt lat="45.8263404" lon="13.0663639"><ele>5.0</ele><time>2026-05-05T13:06:58.266Z</time></trkpt><trkpt lat="45.8262863" lon="13.0659659"><ele>5.0</ele><time>2026-05-05T13:06:59.267Z</time></trkpt><trkpt lat="45.8262397" lon="13.0655779"><ele>4.5</ele><time>2026-05-05T13:07:00.266Z</time></trkpt><trkpt lat="45.8261826" lon="13.0651931"><ele>4.0</ele><time>2026-05-05T13:07:01.266Z</time></trkpt><trkpt lat="45.8261324" lon="13.0648176"><ele>3.5</ele><time>2026-05-05T13:07:02.267Z</time></trkpt><trkpt lat="45.8260838" lon="13.0644486"><ele>3.0</ele><time>2026-05-05T13:07:03.267Z</time></trkpt><trkpt lat="45.8260314" lon="13.0640781"><ele>3.0</ele><time>2026-05-05T13:07:04.267Z</time></trkpt><trkpt lat="45.8259821" lon="13.0637127"><ele>3.0</ele><time>2026-05-05T13:07:05.266Z</time></trkpt><trkpt lat="45.8259281" lon="13.0633373"><ele>4.5</ele><time>2026-05-05T13:07:06.266Z</time></trkpt><trkpt lat="45.8258749" lon="13.0629665"><ele>6.0</ele><time>2026-05-05T13:07:07.267Z</time></trkpt><trkpt lat="45.82582" lon="13.0625977"><ele>5.5</ele><time>2026-05-05T13:07:08.266Z</time></trkpt><trkpt lat="45.8257683" lon="13.0622252"><ele>5.0</ele><time>2026-05-05T13:07:09.267Z</time></trkpt><trkpt lat="45.8257215" lon="13.0618642"><ele>5.0</ele><time>2026-05-05T13:07:10.267Z</time></trkpt><trkpt lat="45.8256698" lon="13.061497"><ele>5.0</ele><time>2026-05-05T13:07:11.267Z</time></trkpt><trkpt lat="45.8256146" lon="13.061133"><ele>4.0</ele><time>2026-05-05T13:07:12.267Z</time></trkpt><trkpt lat="45.8255575" lon="13.0607655"><ele>3.0</ele><time>2026-05-05T13:07:13.267Z</time></trkpt><trkpt lat="45.8255028" lon="13.0603985"><ele>3.0</ele><time>2026-05-05T13:07:14.267Z</time></trkpt><trkpt lat="45.8254508" lon="13.0600415"><ele>3.0</ele><time>2026-05-05T13:07:15.266Z</time></trkpt><trkpt lat="45.8253958" lon="13.0596762"><ele>3.5</ele><time>2026-05-05T13:07:16.267Z</time></trkpt><trkpt lat="45.8253414" lon="13.0593162"><ele>4.0</ele><time>2026-05-05T13:07:17.267Z</time></trkpt><trkpt lat="45.8252896" lon="13.0589575"><ele>4.0</ele><time>2026-05-05T13:07:18.267Z</time></trkpt><trkpt lat="45.8252384" lon="13.0586016"><ele>4.0</ele><time>2026-05-05T13:07:19.267Z</time></trkpt><trkpt lat="45.8251869" lon="13.0582369"><ele>5.0</ele><time>2026-05-05T13:07:20.267Z</time></trkpt><trkpt lat="45.825137" lon="13.0578745"><ele>6.0</ele><time>2026-05-05T13:07:21.267Z</time></trkpt><trkpt lat="45.8250831" lon="13.0575129"><ele>5.0</ele><time>2026-05-05T13:07:22.267Z</time></trkpt><trkpt lat="45.8250291" lon="13.0571519"><ele>4.0</ele><time>2026-05-05T13:07:23.266Z</time></trkpt><trkpt lat="45.8249766" lon="13.0567901"><ele>3.5</ele><time>2026-05-05T13:07:24.267Z</time></trkpt><trkpt lat="45.8249259" lon="13.0564289"><ele>3.0</ele><time>2026-05-05T13:07:25.267Z</time></trkpt><trkpt lat="45.8248728" lon="13.0560724"><ele>3.0</ele><time>2026-05-05T13:07:26.266Z</time></trkpt><trkpt lat="45.8248246" lon="13.0557232"><ele>3.0</ele><time>2026-05-05T13:07:27.266Z</time></trkpt><trkpt lat="45.82477" lon="13.0553736"><ele>3.0</ele><time>2026-05-05T13:07:28.266Z</time></trkpt><trkpt lat="45.8247138" lon="13.0550185"><ele>3.0</ele><time>2026-05-05T13:07:29.267Z</time></trkpt><trkpt lat="45.8246564" lon="13.0546613"><ele>3.0</ele><time>2026-05-05T13:07:30.266Z</time></trkpt><trkpt lat="45.8245968" lon="13.0543044"><ele>3.0</ele><time>2026-05-05T13:07:31.266Z</time></trkpt><trkpt lat="45.8245323" lon="13.0539457"><ele>3.0</ele><time>2026-05-05T13:07:32.267Z</time></trkpt><trkpt lat="45.8244656" lon="13.0535802"><ele>3.0</ele><time>2026-05-05T13:07:33.266Z</time></trkpt><trkpt lat="45.824401" lon="13.0532166"><ele>4.0</ele><time>2026-05-05T13:07:34.267Z</time></trkpt><trkpt lat="45.8243357" lon="13.0528556"><ele>5.0</ele><time>2026-05-05T13:07:35.267Z</time></trkpt><trkpt lat="45.8242718" lon="13.0524978"><ele>4.5</ele><time>2026-05-05T13:07:36.267Z</time></trkpt><trkpt lat="45.8242086" lon="13.0521312"><ele>4.0</ele><time>2026-05-05T13:07:37.266Z</time></trkpt><trkpt lat="45.8241406" lon="13.0517691"><ele>3.5</ele><time>2026-05-05T13:07:38.266Z</time></trkpt><trkpt lat="45.8240731" lon="13.0514063"><ele>3.0</ele><time>2026-05-05T13:07:39.267Z</time></trkpt><trkpt lat="45.8240082" lon="13.0510405"><ele>4.0</ele><time>2026-05-05T13:07:40.266Z</time></trkpt><trkpt lat="45.8239429" lon="13.0506733"><ele>5.0</ele><time>2026-05-05T13:07:41.266Z</time></trkpt><trkpt lat="45.8238681" lon="13.0503075"><ele>4.5</ele><time>2026-05-05T13:07:42.267Z</time></trkpt><trkpt lat="45.8237881" lon="13.0499422"><ele>4.0</ele><time>2026-05-05T13:07:43.267Z</time></trkpt><trkpt lat="45.8237029" lon="13.0495752"><ele>4.0</ele><time>2026-05-05T13:07:44.266Z</time></trkpt><trkpt lat="45.8236202" lon="13.0492092"><ele>4.0</ele><time>2026-05-05T13:07:45.266Z</time></trkpt><trkpt lat="45.8235345" lon="13.0488484"><ele>4.0</ele><time>2026-05-05T13:07:46.267Z</time></trkpt><trkpt lat="45.823451" lon="13.0484883"><ele>4.0</ele><time>2026-05-05T13:07:47.266Z</time></trkpt><trkpt lat="45.8233638" lon="13.0481303"><ele>4.0</ele><time>2026-05-05T13:07:48.267Z</time></trkpt><trkpt lat="45.8232771" lon="13.0477732"><ele>4.0</ele><time>2026-05-05T13:07:49.266Z</time></trkpt><trkpt lat="45.8231923" lon="13.0474186"><ele>4.0</ele><time>2026-05-05T13:07:50.267Z</time></trkpt><trkpt lat="45.8231042" lon="13.0470638"><ele>4.0</ele><time>2026-05-05T13:07:51.266Z</time></trkpt><trkpt lat="45.8230171" lon="13.0467123"><ele>4.5</ele><time>2026-05-05T13:07:52.267Z</time></trkpt><trkpt lat="45.8229315" lon="13.0463612"><ele>5.0</ele><time>2026-05-05T13:07:53.266Z</time></trkpt><trkpt lat="45.8228473" lon="13.0460046"><ele>6.0</ele><time>2026-05-05T13:07:54.267Z</time></trkpt><trkpt lat="45.8227609" lon="13.0456538"><ele>7.0</ele><time>2026-05-05T13:07:55.267Z</time></trkpt><trkpt lat="45.822668" lon="13.0453152"><ele>6.5</ele><time>2026-05-05T13:07:56.267Z</time></trkpt><trkpt lat="45.8225784" lon="13.044982"><ele>6.0</ele><time>2026-05-05T13:07:57.267Z</time></trkpt><trkpt lat="45.8224827" lon="13.0446473"><ele>5.5</ele><time>2026-05-05T13:07:58.267Z</time></trkpt><trkpt lat="45.8223943" lon="13.0443166"><ele>5.0</ele><time>2026-05-05T13:07:59.267Z</time></trkpt><trkpt lat="45.8222949" lon="13.0439791"><ele>4.5</ele><time>2026-05-05T13:08:00.267Z</time></trkpt><trkpt lat="45.8221991" lon="13.0436517"><ele>4.0</ele><time>2026-05-05T13:08:01.267Z</time></trkpt><trkpt lat="45.8221037" lon="13.0433228"><ele>3.5</ele><time>2026-05-05T13:08:02.267Z</time></trkpt><trkpt lat="45.8220093" lon="13.0429947"><ele>3.0</ele><time>2026-05-05T13:08:03.266Z</time></trkpt><trkpt lat="45.8219147" lon="13.0426687"><ele>3.0</ele><time>2026-05-05T13:08:04.266Z</time></trkpt><trkpt lat="45.8218203" lon="13.0423387"><ele>3.0</ele><time>2026-05-05T13:08:05.266Z</time></trkpt><trkpt lat="45.8217246" lon="13.0420118"><ele>3.0</ele><time>2026-05-05T13:08:06.267Z</time></trkpt><trkpt lat="45.8216264" lon="13.0416803"><ele>3.0</ele><time>2026-05-05T13:08:07.266Z</time></trkpt><trkpt lat="45.8215317" lon="13.0413502"><ele>3.0</ele><time>2026-05-05T13:08:08.267Z</time></trkpt><trkpt lat="45.821437" lon="13.0410202"><ele>3.0</ele><time>2026-05-05T13:08:09.267Z</time></trkpt><trkpt lat="45.8213469" lon="13.0406876"><ele>4.5</ele><time>2026-05-05T13:08:10.266Z</time></trkpt><trkpt lat="45.8212542" lon="13.040358"><ele>6.0</ele><time>2026-05-05T13:08:11.267Z</time></trkpt><trkpt lat="45.8211623" lon="13.0400319"><ele>5.5</ele><time>2026-05-05T13:08:12.266Z</time></trkpt><trkpt lat="45.8210646" lon="13.0397014"><ele>5.0</ele><time>2026-05-05T13:08:13.267Z</time></trkpt><trkpt lat="45.8209658" lon="13.0393679"><ele>4.5</ele><time>2026-05-05T13:08:14.266Z</time></trkpt><trkpt lat="45.8208668" lon="13.0390335"><ele>4.0</ele><time>2026-05-05T13:08:15.267Z</time></trkpt><trkpt lat="45.820772" lon="13.0387025"><ele>4.0</ele><time>2026-05-05T13:08:16.267Z</time></trkpt><trkpt lat="45.8206769" lon="13.0383703"><ele>4.0</ele><time>2026-05-05T13:08:17.267Z</time></trkpt><trkpt lat="45.8205807" lon="13.0380347"><ele>4.5</ele><time>2026-05-05T13:08:18.267Z</time></trkpt><trkpt lat="45.8204872" lon="13.0377035"><ele>5.0</ele><time>2026-05-05T13:08:19.267Z</time></trkpt><trkpt lat="45.8203891" lon="13.0373761"><ele>5.0</ele><time>2026-05-05T13:08:20.267Z</time></trkpt><trkpt lat="45.8202935" lon="13.0370475"><ele>5.0</ele><time>2026-05-05T13:08:21.266Z</time></trkpt><trkpt lat="45.8202028" lon="13.0367212"><ele>6.0</ele><time>2026-05-05T13:08:22.266Z</time></trkpt><trkpt lat="45.8201106" lon="13.0363985"><ele>7.0</ele><time>2026-05-05T13:08:23.267Z</time></trkpt><trkpt lat="45.820016" lon="13.0360768"><ele>6.5</ele><time>2026-05-05T13:08:24.267Z</time></trkpt><trkpt lat="45.819924" lon="13.035759"><ele>6.0</ele><time>2026-05-05T13:08:25.266Z</time></trkpt><trkpt lat="45.8198349" lon="13.0354423"><ele>6.0</ele><time>2026-05-05T13:08:26.266Z</time></trkpt><trkpt lat="45.8197524" lon="13.0351333"><ele>6.0</ele><time>2026-05-05T13:08:27.267Z</time></trkpt><trkpt lat="45.8196679" lon="13.0348128"><ele>6.0</ele><time>2026-05-05T13:08:28.267Z</time></trkpt><trkpt lat="45.8195854" lon="13.0344947"><ele>6.0</ele><time>2026-05-05T13:08:29.266Z</time></trkpt><trkpt lat="45.8195067" lon="13.0341716"><ele>5.5</ele><time>2026-05-05T13:08:30.267Z</time></trkpt><trkpt lat="45.8194338" lon="13.0338531"><ele>5.0</ele><time>2026-05-05T13:08:31.266Z</time></trkpt><trkpt lat="45.8193608" lon="13.0335356"><ele>5.0</ele><time>2026-05-05T13:08:32.266Z</time></trkpt><trkpt lat="45.8192872" lon="13.0332091"><ele>5.0</ele><time>2026-05-05T13:08:33.266Z</time></trkpt><trkpt lat="45.8192224" lon="13.0328859"><ele>5.0</ele><time>2026-05-05T13:08:34.267Z</time></trkpt><trkpt lat="45.8191582" lon="13.0325608"><ele>5.0</ele><time>2026-05-05T13:08:35.267Z</time></trkpt><trkpt lat="45.8191006" lon="13.0322419"><ele>4.5</ele><time>2026-05-05T13:08:36.267Z</time></trkpt><trkpt lat="45.8190437" lon="13.0319149"><ele>4.0</ele><time>2026-05-05T13:08:37.267Z</time></trkpt><trkpt lat="45.818985" lon="13.031583"><ele>3.5</ele><time>2026-05-05T13:08:38.267Z</time></trkpt><trkpt lat="45.8189306" lon="13.0312512"><ele>3.0</ele><time>2026-05-05T13:08:39.266Z</time></trkpt><trkpt lat="45.8188783" lon="13.0309212"><ele>4.5</ele><time>2026-05-05T13:08:40.267Z</time></trkpt><trkpt lat="45.8188315" lon="13.0305866"><ele>6.0</ele><time>2026-05-05T13:08:41.267Z</time></trkpt><trkpt lat="45.8187845" lon="13.0302523"><ele>5.5</ele><time>2026-05-05T13:08:42.267Z</time></trkpt><trkpt lat="45.8187398" lon="13.0299051"><ele>5.0</ele><time>2026-05-05T13:08:43.267Z</time></trkpt><trkpt lat="45.8186935" lon="13.029552"><ele>5.0</ele><time>2026-05-05T13:08:44.266Z</time></trkpt><trkpt lat="45.8186565" lon="13.0291908"><ele>5.0</ele><time>2026-05-05T13:08:45.266Z</time></trkpt><trkpt lat="45.8186204" lon="13.028823"><ele>5.0</ele><time>2026-05-05T13:08:46.267Z</time></trkpt><trkpt lat="45.8185845" lon="13.0284471"><ele>5.0</ele><time>2026-05-05T13:08:47.267Z</time></trkpt><trkpt lat="45.8185512" lon="13.0280619"><ele>5.5</ele><time>2026-05-05T13:08:48.267Z</time></trkpt><trkpt lat="45.8185146" lon="13.0276791"><ele>6.0</ele><time>2026-05-05T13:08:49.266Z</time></trkpt><trkpt lat="45.818483" lon="13.0272965"><ele>6.0</ele><time>2026-05-05T13:08:50.266Z</time></trkpt><trkpt lat="45.8184525" lon="13.0269172"><ele>6.0</ele><time>2026-05-05T13:08:51.267Z</time></trkpt><trkpt lat="45.8184301" lon="13.026549"><ele>5.5</ele><time>2026-05-05T13:08:52.267Z</time></trkpt><trkpt lat="45.8184045" lon="13.0261831"><ele>5.0</ele><time>2026-05-05T13:08:53.266Z</time></trkpt><trkpt lat="45.8183768" lon="13.0258206"><ele>5.0</ele><time>2026-05-05T13:08:54.267Z</time></trkpt><trkpt lat="45.8183479" lon="13.0254558"><ele>5.0</ele><time>2026-05-05T13:08:55.267Z</time></trkpt><trkpt lat="45.8183142" lon="13.0250932"><ele>5.0</ele><time>2026-05-05T13:08:56.266Z</time></trkpt><trkpt lat="45.8182879" lon="13.0247337"><ele>5.0</ele><time>2026-05-05T13:08:57.266Z</time></trkpt><trkpt lat="45.8182557" lon="13.0243762"><ele>5.0</ele><time>2026-05-05T13:08:58.266Z</time></trkpt><trkpt lat="45.8182228" lon="13.0240173"><ele>5.0</ele><time>2026-05-05T13:08:59.267Z</time></trkpt><trkpt lat="45.8181933" lon="13.0236532"><ele>4.0</ele><time>2026-05-05T13:09:00.267Z</time></trkpt><trkpt lat="45.8181646" lon="13.0232886"><ele>3.0</ele><time>2026-05-05T13:09:01.267Z</time></trkpt><trkpt lat="45.8181328" lon="13.0229226"><ele>3.0</ele><time>2026-05-05T13:09:02.267Z</time></trkpt><trkpt lat="45.8181025" lon="13.0225526"><ele>3.0</ele><time>2026-05-05T13:09:03.266Z</time></trkpt><trkpt lat="45.8180701" lon="13.022175"><ele>3.0</ele><time>2026-05-05T13:09:04.266Z</time></trkpt><trkpt lat="45.8180378" lon="13.0217939"><ele>3.0</ele><time>2026-05-05T13:09:05.266Z</time></trkpt><trkpt lat="45.8180025" lon="13.021408"><ele>4.0</ele><time>2026-05-05T13:09:06.267Z</time></trkpt><trkpt lat="45.8179697" lon="13.0210264"><ele>5.0</ele><time>2026-05-05T13:09:07.266Z</time></trkpt><trkpt lat="45.8179395" lon="13.0206424"><ele>5.0</ele><time>2026-05-05T13:09:08.267Z</time></trkpt><trkpt lat="45.8179087" lon="13.0202551"><ele>5.0</ele><time>2026-05-05T13:09:09.267Z</time></trkpt><trkpt lat="45.8178769" lon="13.0198658"><ele>5.0</ele><time>2026-05-05T13:09:10.267Z</time></trkpt><trkpt lat="45.8178439" lon="13.0194769"><ele>5.0</ele><time>2026-05-05T13:09:11.266Z</time></trkpt><trkpt lat="45.8178121" lon="13.0190862"><ele>5.0</ele><time>2026-05-05T13:09:12.267Z</time></trkpt><trkpt lat="45.8177765" lon="13.0186931"><ele>5.0</ele><time>2026-05-05T13:09:13.267Z</time></trkpt><trkpt lat="45.817741" lon="13.0183021"><ele>5.5</ele><time>2026-05-05T13:09:14.267Z</time></trkpt><trkpt lat="45.8177085" lon="13.0179116"><ele>6.0</ele><time>2026-05-05T13:09:15.267Z</time></trkpt><trkpt lat="45.8176793" lon="13.0175165"><ele>5.5</ele><time>2026-05-05T13:09:16.266Z</time></trkpt><trkpt lat="45.817646" lon="13.0171201"><ele>5.0</ele><time>2026-05-05T13:09:17.266Z</time></trkpt><trkpt lat="45.8176129" lon="13.0167251"><ele>4.5</ele><time>2026-05-05T13:09:18.266Z</time></trkpt><trkpt lat="45.8175784" lon="13.0163304"><ele>4.0</ele><time>2026-05-05T13:09:19.266Z</time></trkpt><trkpt lat="45.8175443" lon="13.0159397"><ele>5.0</ele><time>2026-05-05T13:09:20.267Z</time></trkpt><trkpt lat="45.8175113" lon="13.0155501"><ele>6.0</ele><time>2026-05-05T13:09:21.267Z</time></trkpt><trkpt lat="45.817474" lon="13.0151608"><ele>7.0</ele><time>2026-05-05T13:09:22.267Z</time></trkpt><trkpt lat="45.8174429" lon="13.014771"><ele>8.0</ele><time>2026-05-05T13:09:23.266Z</time></trkpt><trkpt lat="45.8174101" lon="13.0143837"><ele>7.5</ele><time>2026-05-05T13:09:24.266Z</time></trkpt><trkpt lat="45.8173814" lon="13.0139939"><ele>7.0</ele><time>2026-05-05T13:09:25.266Z</time></trkpt><trkpt lat="45.8173525" lon="13.0136091"><ele>7.0</ele><time>2026-05-05T13:09:26.267Z</time></trkpt><trkpt lat="45.8173179" lon="13.0132187"><ele>7.0</ele><time>2026-05-05T13:09:27.267Z</time></trkpt><trkpt lat="45.8172843" lon="13.0128309"><ele>6.5</ele><time>2026-05-05T13:09:28.267Z</time></trkpt><trkpt lat="45.8172525" lon="13.0124428"><ele>6.0</ele><time>2026-05-05T13:09:29.267Z</time></trkpt><trkpt lat="45.8172189" lon="13.0120571"><ele>6.0</ele><time>2026-05-05T13:09:30.267Z</time></trkpt><trkpt lat="45.8171865" lon="13.0116713"><ele>6.0</ele><time>2026-05-05T13:09:31.266Z</time></trkpt><trkpt lat="45.8171571" lon="13.0112845"><ele>5.5</ele><time>2026-05-05T13:09:32.267Z</time></trkpt><trkpt lat="45.817124" lon="13.0108961"><ele>5.0</ele><time>2026-05-05T13:09:33.267Z</time></trkpt><trkpt lat="45.8170917" lon="13.0105077"><ele>5.0</ele><time>2026-05-05T13:09:34.267Z</time></trkpt><trkpt lat="45.817057" lon="13.0101199"><ele>5.0</ele><time>2026-05-05T13:09:35.267Z</time></trkpt><trkpt lat="45.8170241" lon="13.0097339"><ele>5.0</ele><time>2026-05-05T13:09:36.266Z</time></trkpt><trkpt lat="45.8169939" lon="13.0093428"><ele>5.0</ele><time>2026-05-05T13:09:37.267Z</time></trkpt><trkpt lat="45.8169612" lon="13.0089579"><ele>5.0</ele><time>2026-05-05T13:09:38.266Z</time></trkpt><trkpt lat="45.8169263" lon="13.0085724"><ele>5.0</ele><time>2026-05-05T13:09:39.266Z</time></trkpt><trkpt lat="45.8168865" lon="13.0081872"><ele>5.0</ele><time>2026-05-05T13:09:40.266Z</time></trkpt><trkpt lat="45.8168425" lon="13.007803"><ele>5.0</ele><time>2026-05-05T13:09:41.267Z</time></trkpt><trkpt lat="45.8167991" lon="13.0074124"><ele>4.5</ele><time>2026-05-05T13:09:42.267Z</time></trkpt><trkpt lat="45.8167558" lon="13.00702"><ele>4.0</ele><time>2026-05-05T13:09:43.267Z</time></trkpt><trkpt lat="45.8167029" lon="13.0066156"><ele>5.0</ele><time>2026-05-05T13:09:44.267Z</time></trkpt><trkpt lat="45.8166448" lon="13.006209"><ele>6.0</ele><time>2026-05-05T13:09:45.266Z</time></trkpt><trkpt lat="45.8165803" lon="13.0057836"><ele>6.0</ele><time>2026-05-05T13:09:46.266Z</time></trkpt><trkpt lat="45.8165188" lon="13.0053635"><ele>6.0</ele><time>2026-05-05T13:09:47.266Z</time></trkpt><trkpt lat="45.8164557" lon="13.0049457"><ele>6.0</ele><time>2026-05-05T13:09:48.267Z</time></trkpt><trkpt lat="45.8163881" lon="13.0045228"><ele>6.0</ele><time>2026-05-05T13:09:49.267Z</time></trkpt><trkpt lat="45.8163215" lon="13.004105"><ele>6.0</ele><time>2026-05-05T13:09:50.266Z</time></trkpt><trkpt lat="45.8162541" lon="13.0036709"><ele>6.0</ele><time>2026-05-05T13:09:51.267Z</time></trkpt><trkpt lat="45.816182" lon="13.0032388"><ele>7.0</ele><time>2026-05-05T13:09:52.267Z</time></trkpt><trkpt lat="45.8161098" lon="13.0028104"><ele>8.0</ele><time>2026-05-05T13:09:53.267Z</time></trkpt><trkpt lat="45.816048" lon="13.0023973"><ele>7.5</ele><time>2026-05-05T13:09:54.266Z</time></trkpt><trkpt lat="45.8159838" lon="13.0019818"><ele>7.0</ele><time>2026-05-05T13:09:55.267Z</time></trkpt><trkpt lat="45.8159298" lon="13.0015782"><ele>7.5</ele><time>2026-05-05T13:09:56.266Z</time></trkpt><trkpt lat="45.8158716" lon="13.0011743"><ele>8.0</ele><time>2026-05-05T13:09:57.266Z</time></trkpt><trkpt lat="45.8158215" lon="13.0007791"><ele>8.0</ele><time>2026-05-05T13:09:58.267Z</time></trkpt><trkpt lat="45.8157688" lon="13.0003876"><ele>8.0</ele><time>2026-05-05T13:09:59.266Z</time></trkpt><trkpt lat="45.8157189" lon="12.9999997"><ele>8.0</ele><time>2026-05-05T13:10:00.267Z</time></trkpt><trkpt lat="45.8156681" lon="12.9996068"><ele>8.0</ele><time>2026-05-05T13:10:01.267Z</time></trkpt><trkpt lat="45.8156208" lon="12.9992147"><ele>8.0</ele><time>2026-05-05T13:10:02.267Z</time></trkpt><trkpt lat="45.8155724" lon="12.9988282"><ele>8.0</ele><time>2026-05-05T13:10:03.267Z</time></trkpt><trkpt lat="45.8155252" lon="12.9984416"><ele>9.0</ele><time>2026-05-05T13:10:04.267Z</time></trkpt><trkpt lat="45.815477" lon="12.998056"><ele>10.0</ele><time>2026-05-05T13:10:05.266Z</time></trkpt><trkpt lat="45.8154252" lon="12.9976775"><ele>9.5</ele><time>2026-05-05T13:10:06.267Z</time></trkpt><trkpt lat="45.8153757" lon="12.9972953"><ele>9.0</ele><time>2026-05-05T13:10:07.267Z</time></trkpt><trkpt lat="45.8153193" lon="12.9969131"><ele>10.0</ele><time>2026-05-05T13:10:08.267Z</time></trkpt><trkpt lat="45.8152658" lon="12.9965341"><ele>11.0</ele><time>2026-05-05T13:10:09.266Z</time></trkpt><trkpt lat="45.8152066" lon="12.9961625"><ele>9.5</ele><time>2026-05-05T13:10:10.267Z</time></trkpt><trkpt lat="45.8151471" lon="12.9957925"><ele>8.0</ele><time>2026-05-05T13:10:11.266Z</time></trkpt><trkpt lat="45.8150863" lon="12.9954198"><ele>8.0</ele><time>2026-05-05T13:10:12.266Z</time></trkpt><trkpt lat="45.8150225" lon="12.995048"><ele>8.0</ele><time>2026-05-05T13:10:13.267Z</time></trkpt><trkpt lat="45.8149521" lon="12.9946761"><ele>8.5</ele><time>2026-05-05T13:10:14.267Z</time></trkpt><trkpt lat="45.8148856" lon="12.9943108"><ele>9.0</ele><time>2026-05-05T13:10:15.267Z</time></trkpt><trkpt lat="45.8148194" lon="12.9939346"><ele>9.0</ele><time>2026-05-05T13:10:16.266Z</time></trkpt><trkpt lat="45.814751" lon="12.993568"><ele>9.0</ele><time>2026-05-05T13:10:17.266Z</time></trkpt><trkpt lat="45.8146844" lon="12.9931976"><ele>9.0</ele><time>2026-05-05T13:10:18.266Z</time></trkpt><trkpt lat="45.8146171" lon="12.9928293"><ele>9.0</ele><time>2026-05-05T13:10:19.266Z</time></trkpt><trkpt lat="45.8145524" lon="12.992466"><ele>8.5</ele><time>2026-05-05T13:10:20.266Z</time></trkpt><trkpt lat="45.8144862" lon="12.992102"><ele>8.0</ele><time>2026-05-05T13:10:21.267Z</time></trkpt><trkpt lat="45.8144212" lon="12.9917402"><ele>8.0</ele><time>2026-05-05T13:10:22.266Z</time></trkpt><trkpt lat="45.8143593" lon="12.991383"><ele>8.0</ele><time>2026-05-05T13:10:23.267Z</time></trkpt><trkpt lat="45.8142914" lon="12.9910202"><ele>8.0</ele><time>2026-05-05T13:10:24.267Z</time></trkpt><trkpt lat="45.8142295" lon="12.9906606"><ele>8.0</ele><time>2026-05-05T13:10:25.266Z</time></trkpt><trkpt lat="45.8141658" lon="12.9903142"><ele>9.5</ele><time>2026-05-05T13:10:26.266Z</time></trkpt><trkpt lat="45.8141009" lon="12.9899643"><ele>11.0</ele><time>2026-05-05T13:10:27.266Z</time></trkpt><trkpt lat="45.8140362" lon="12.9896167"><ele>11.0</ele><time>2026-05-05T13:10:28.267Z</time></trkpt><trkpt lat="45.8139746" lon="12.9892764"><ele>11.0</ele><time>2026-05-05T13:10:29.267Z</time></trkpt><trkpt lat="45.8139107" lon="12.9889326"><ele>10.5</ele><time>2026-05-05T13:10:30.267Z</time></trkpt><trkpt lat="45.8138498" lon="12.9885864"><ele>10.0</ele><time>2026-05-05T13:10:31.267Z</time></trkpt><trkpt lat="45.8137879" lon="12.9882412"><ele>8.0</ele><time>2026-05-05T13:10:32.266Z</time></trkpt><trkpt lat="45.8137275" lon="12.9878987"><ele>6.0</ele><time>2026-05-05T13:10:33.266Z</time></trkpt><trkpt lat="45.8136665" lon="12.9875593"><ele>6.0</ele><time>2026-05-05T13:10:34.267Z</time></trkpt><trkpt lat="45.8136047" lon="12.9872097"><ele>6.0</ele><time>2026-05-05T13:10:35.266Z</time></trkpt><trkpt lat="45.8135403" lon="12.9868565"><ele>6.5</ele><time>2026-05-05T13:10:36.267Z</time></trkpt><trkpt lat="45.8134789" lon="12.9865123"><ele>7.0</ele><time>2026-05-05T13:10:37.267Z</time></trkpt><trkpt lat="45.813416" lon="12.9861703"><ele>7.0</ele><time>2026-05-05T13:10:38.267Z</time></trkpt><trkpt lat="45.8133555" lon="12.9858214"><ele>7.0</ele><time>2026-05-05T13:10:39.266Z</time></trkpt><trkpt lat="45.8132931" lon="12.9854727"><ele>7.0</ele><time>2026-05-05T13:10:40.267Z</time></trkpt><trkpt lat="45.8132279" lon="12.9851216"><ele>7.0</ele><time>2026-05-05T13:10:41.267Z</time></trkpt><trkpt lat="45.8131664" lon="12.9847743"><ele>6.5</ele><time>2026-05-05T13:10:42.266Z</time></trkpt><trkpt lat="45.8131005" lon="12.9844151"><ele>6.0</ele><time>2026-05-05T13:10:43.266Z</time></trkpt><trkpt lat="45.8130335" lon="12.9840582"><ele>6.0</ele><time>2026-05-05T13:10:44.267Z</time></trkpt><trkpt lat="45.8129654" lon="12.9837046"><ele>6.0</ele><time>2026-05-05T13:10:45.267Z</time></trkpt><trkpt lat="45.8129015" lon="12.9833503"><ele>5.5</ele><time>2026-05-05T13:10:46.266Z</time></trkpt><trkpt lat="45.81284" lon="12.9829926"><ele>5.0</ele><time>2026-05-05T13:10:47.267Z</time></trkpt><trkpt lat="45.8127765" lon="12.9826343"><ele>5.5</ele><time>2026-05-05T13:10:48.267Z</time></trkpt><trkpt lat="45.8127146" lon="12.982281"><ele>6.0</ele><time>2026-05-05T13:10:49.266Z</time></trkpt><trkpt lat="45.8126481" lon="12.9819231"><ele>6.0</ele><time>2026-05-05T13:10:50.266Z</time></trkpt><trkpt lat="45.8125878" lon="12.9815687"><ele>6.0</ele><time>2026-05-05T13:10:51.266Z</time></trkpt><trkpt lat="45.8125198" lon="12.9812097"><ele>6.0</ele><time>2026-05-05T13:10:52.267Z</time></trkpt><trkpt lat="45.8124552" lon="12.9808602"><ele>6.0</ele><time>2026-05-05T13:10:53.266Z</time></trkpt><trkpt lat="45.8123888" lon="12.9805063"><ele>4.0</ele><time>2026-05-05T13:10:54.267Z</time></trkpt><trkpt lat="45.8123284" lon="12.9801563"><ele>2.0</ele><time>2026-05-05T13:10:55.267Z</time></trkpt><trkpt lat="45.8122662" lon="12.9797952"><ele>2.0</ele><time>2026-05-05T13:10:56.267Z</time></trkpt><trkpt lat="45.8122" lon="12.9794292"><ele>2.0</ele><time>2026-05-05T13:10:57.266Z</time></trkpt><trkpt lat="45.8121344" lon="12.9790731"><ele>6.5</ele><time>2026-05-05T13:10:58.266Z</time></trkpt><trkpt lat="45.8120734" lon="12.9787142"><ele>11.0</ele><time>2026-05-05T13:10:59.267Z</time></trkpt><trkpt lat="45.8120059" lon="12.9783549"><ele>11.5</ele><time>2026-05-05T13:11:00.267Z</time></trkpt><trkpt lat="45.8119409" lon="12.9779976"><ele>12.0</ele><time>2026-05-05T13:11:01.267Z</time></trkpt><trkpt lat="45.8118772" lon="12.9776457"><ele>11.0</ele><time>2026-05-05T13:11:02.267Z</time></trkpt><trkpt lat="45.8118151" lon="12.9772887"><ele>10.0</ele><time>2026-05-05T13:11:03.266Z</time></trkpt><trkpt lat="45.811749" lon="12.9769374"><ele>9.5</ele><time>2026-05-05T13:11:04.267Z</time></trkpt><trkpt lat="45.8116868" lon="12.9765869"><ele>9.0</ele><time>2026-05-05T13:11:05.267Z</time></trkpt><trkpt lat="45.8116191" lon="12.9762383"><ele>9.0</ele><time>2026-05-05T13:11:06.267Z</time></trkpt><trkpt lat="45.8115549" lon="12.9758907"><ele>9.0</ele><time>2026-05-05T13:11:07.266Z</time></trkpt><trkpt lat="45.8114915" lon="12.9755447"><ele>8.5</ele><time>2026-05-05T13:11:08.267Z</time></trkpt><trkpt lat="45.8114321" lon="12.9752055"><ele>8.0</ele><time>2026-05-05T13:11:09.267Z</time></trkpt><trkpt lat="45.811371" lon="12.9748629"><ele>7.5</ele><time>2026-05-05T13:11:10.267Z</time></trkpt><trkpt lat="45.8113071" lon="12.974519"><ele>7.0</ele><time>2026-05-05T13:11:11.266Z</time></trkpt><trkpt lat="45.8112414" lon="12.9741755"><ele>7.0</ele><time>2026-05-05T13:11:12.267Z</time></trkpt><trkpt lat="45.8111707" lon="12.9738253"><ele>7.0</ele><time>2026-05-05T13:11:13.266Z</time></trkpt><trkpt lat="45.8111014" lon="12.9734785"><ele>7.0</ele><time>2026-05-05T13:11:14.266Z</time></trkpt><trkpt lat="45.8110307" lon="12.9731308"><ele>7.0</ele><time>2026-05-05T13:11:15.266Z</time></trkpt><trkpt lat="45.8109596" lon="12.9727809"><ele>7.5</ele><time>2026-05-05T13:11:16.266Z</time></trkpt><trkpt lat="45.810889" lon="12.9724259"><ele>8.0</ele><time>2026-05-05T13:11:17.266Z</time></trkpt><trkpt lat="45.8108148" lon="12.9720765"><ele>8.0</ele><time>2026-05-05T13:11:18.266Z</time></trkpt><trkpt lat="45.8107408" lon="12.9717314"><ele>8.0</ele><time>2026-05-05T13:11:19.267Z</time></trkpt><trkpt lat="45.8106666" lon="12.9713828"><ele>7.5</ele><time>2026-05-05T13:11:20.267Z</time></trkpt><trkpt lat="45.8105932" lon="12.9710299"><ele>7.0</ele><time>2026-05-05T13:11:21.266Z</time></trkpt><trkpt lat="45.8105192" lon="12.9706885"><ele>7.0</ele><time>2026-05-05T13:11:22.267Z</time></trkpt><trkpt lat="45.8104426" lon="12.9703343"><ele>7.0</ele><time>2026-05-05T13:11:23.266Z</time></trkpt><trkpt lat="45.8103748" lon="12.9699914"><ele>7.0</ele><time>2026-05-05T13:11:24.267Z</time></trkpt><trkpt lat="45.8103042" lon="12.9696446"><ele>7.0</ele><time>2026-05-05T13:11:25.267Z</time></trkpt><trkpt lat="45.8102319" lon="12.9692988"><ele>7.0</ele><time>2026-05-05T13:11:26.267Z</time></trkpt><trkpt lat="45.8101642" lon="12.9689518"><ele>7.0</ele><time>2026-05-05T13:11:27.267Z</time></trkpt><trkpt lat="45.810101" lon="12.9686069"><ele>7.5</ele><time>2026-05-05T13:11:28.267Z</time></trkpt><trkpt lat="45.8100354" lon="12.9682596"><ele>8.0</ele><time>2026-05-05T13:11:29.266Z</time></trkpt><trkpt lat="45.8099665" lon="12.9679076"><ele>8.0</ele><time>2026-05-05T13:11:30.266Z</time></trkpt><trkpt lat="45.8099014" lon="12.9675543"><ele>8.0</ele><time>2026-05-05T13:11:31.266Z</time></trkpt><trkpt lat="45.8098355" lon="12.9671943"><ele>7.5</ele><time>2026-05-05T13:11:32.267Z</time></trkpt><trkpt lat="45.8097676" lon="12.9668301"><ele>7.0</ele><time>2026-05-05T13:11:33.267Z</time></trkpt><trkpt lat="45.8097021" lon="12.9664588"><ele>7.0</ele><time>2026-05-05T13:11:34.266Z</time></trkpt><trkpt lat="45.8096423" lon="12.9660876"><ele>7.0</ele><time>2026-05-05T13:11:35.267Z</time></trkpt><trkpt lat="45.8095843" lon="12.9657174"><ele>6.5</ele><time>2026-05-05T13:11:36.267Z</time></trkpt><trkpt lat="45.809527" lon="12.9653312"><ele>6.0</ele><time>2026-05-05T13:11:37.267Z</time></trkpt><trkpt lat="45.8094751" lon="12.9649477"><ele>6.0</ele><time>2026-05-05T13:11:38.267Z</time></trkpt><trkpt lat="45.8094248" lon="12.964557"><ele>6.0</ele><time>2026-05-05T13:11:39.266Z</time></trkpt><trkpt lat="45.8093751" lon="12.9641668"><ele>6.0</ele><time>2026-05-05T13:11:40.266Z</time></trkpt><trkpt lat="45.8093322" lon="12.9637722"><ele>6.0</ele><time>2026-05-05T13:11:41.267Z</time></trkpt><trkpt lat="45.8092905" lon="12.9633686"><ele>5.5</ele><time>2026-05-05T13:11:42.267Z</time></trkpt><trkpt lat="45.8092558" lon="12.9629749"><ele>5.0</ele><time>2026-05-05T13:11:43.266Z</time></trkpt><trkpt lat="45.8092164" lon="12.9625659"><ele>5.0</ele><time>2026-05-05T13:11:44.267Z</time></trkpt><trkpt lat="45.8091783" lon="12.962161"><ele>5.0</ele><time>2026-05-05T13:11:45.267Z</time></trkpt><trkpt lat="45.8091461" lon="12.9617601"><ele>5.5</ele><time>2026-05-05T13:11:46.266Z</time></trkpt><trkpt lat="45.8091089" lon="12.9613599"><ele>6.0</ele><time>2026-05-05T13:11:47.267Z</time></trkpt><trkpt lat="45.809076" lon="12.9609562"><ele>6.0</ele><time>2026-05-05T13:11:48.267Z</time></trkpt><trkpt lat="45.8090481" lon="12.9605602"><ele>6.0</ele><time>2026-05-05T13:11:49.267Z</time></trkpt><trkpt lat="45.809016" lon="12.9601643"><ele>5.5</ele><time>2026-05-05T13:11:50.266Z</time></trkpt><trkpt lat="45.8089842" lon="12.9597622"><ele>5.0</ele><time>2026-05-05T13:11:51.266Z</time></trkpt><trkpt lat="45.808953" lon="12.9593667"><ele>4.5</ele><time>2026-05-05T13:11:52.266Z</time></trkpt><trkpt lat="45.8089228" lon="12.9589807"><ele>4.0</ele><time>2026-05-05T13:11:53.267Z</time></trkpt><trkpt lat="45.8088932" lon="12.9585941"><ele>4.0</ele><time>2026-05-05T13:11:54.266Z</time></trkpt><trkpt lat="45.8088635" lon="12.9581951"><ele>4.0</ele><time>2026-05-05T13:11:55.266Z</time></trkpt><trkpt lat="45.8088318" lon="12.9578022"><ele>4.5</ele><time>2026-05-05T13:11:56.266Z</time></trkpt><trkpt lat="45.8087969" lon="12.9574122"><ele>5.0</ele><time>2026-05-05T13:11:57.266Z</time></trkpt><trkpt lat="45.8087664" lon="12.957021"><ele>5.0</ele><time>2026-05-05T13:11:58.267Z</time></trkpt><trkpt lat="45.8087373" lon="12.9566269"><ele>5.0</ele><time>2026-05-05T13:11:59.267Z</time></trkpt><trkpt lat="45.8087127" lon="12.9562354"><ele>4.5</ele><time>2026-05-05T13:12:00.267Z</time></trkpt><trkpt lat="45.8086905" lon="12.9558448"><ele>4.0</ele><time>2026-05-05T13:12:01.267Z</time></trkpt><trkpt lat="45.808666" lon="12.9554507"><ele>4.0</ele><time>2026-05-05T13:12:02.267Z</time></trkpt><trkpt lat="45.8086339" lon="12.9550517"><ele>4.0</ele><time>2026-05-05T13:12:03.267Z</time></trkpt><trkpt lat="45.8086066" lon="12.9546507"><ele>3.5</ele><time>2026-05-05T13:12:04.267Z</time></trkpt><trkpt lat="45.8085819" lon="12.9542464"><ele>3.0</ele><time>2026-05-05T13:12:05.267Z</time></trkpt><trkpt lat="45.8085538" lon="12.9538426"><ele>2.5</ele><time>2026-05-05T13:12:06.267Z</time></trkpt><trkpt lat="45.8085261" lon="12.9534433"><ele>2.0</ele><time>2026-05-05T13:12:07.267Z</time></trkpt><trkpt lat="45.8084983" lon="12.9530456"><ele>3.0</ele><time>2026-05-05T13:12:08.267Z</time></trkpt><trkpt lat="45.8084723" lon="12.9526405"><ele>4.0</ele><time>2026-05-05T13:12:09.267Z</time></trkpt><trkpt lat="45.808444" lon="12.9522446"><ele>4.0</ele><time>2026-05-05T13:12:10.267Z</time></trkpt><trkpt lat="45.8084109" lon="12.9518466"><ele>4.0</ele><time>2026-05-05T13:12:11.267Z</time></trkpt><trkpt lat="45.8083808" lon="12.9514591"><ele>4.0</ele><time>2026-05-05T13:12:12.266Z</time></trkpt><trkpt lat="45.8083512" lon="12.9510682"><ele>4.0</ele><time>2026-05-05T13:12:13.267Z</time></trkpt><trkpt lat="45.8083203" lon="12.9506803"><ele>4.0</ele><time>2026-05-05T13:12:14.267Z</time></trkpt><trkpt lat="45.8082846" lon="12.9502882"><ele>4.0</ele><time>2026-05-05T13:12:15.267Z</time></trkpt><trkpt lat="45.8082542" lon="12.9499022"><ele>4.0</ele><time>2026-05-05T13:12:16.267Z</time></trkpt><trkpt lat="45.8082226" lon="12.9495155"><ele>4.0</ele><time>2026-05-05T13:12:17.266Z</time></trkpt><trkpt lat="45.8081917" lon="12.9491325"><ele>4.0</ele><time>2026-05-05T13:12:18.267Z</time></trkpt><trkpt lat="45.8081619" lon="12.9487496"><ele>4.0</ele><time>2026-05-05T13:12:19.267Z</time></trkpt><trkpt lat="45.8081309" lon="12.9483698"><ele>4.0</ele><time>2026-05-05T13:12:20.267Z</time></trkpt><trkpt lat="45.8080997" lon="12.9479848"><ele>4.0</ele><time>2026-05-05T13:12:21.267Z</time></trkpt><trkpt lat="45.8080728" lon="12.9476074"><ele>4.5</ele><time>2026-05-05T13:12:22.266Z</time></trkpt><trkpt lat="45.8080395" lon="12.9472314"><ele>5.0</ele><time>2026-05-05T13:12:23.266Z</time></trkpt><trkpt lat="45.8080061" lon="12.9468523"><ele>4.5</ele><time>2026-05-05T13:12:24.266Z</time></trkpt><trkpt lat="45.8079747" lon="12.9464782"><ele>4.0</ele><time>2026-05-05T13:12:25.266Z</time></trkpt><trkpt lat="45.8079453" lon="12.9461022"><ele>4.0</ele><time>2026-05-05T13:12:26.266Z</time></trkpt><trkpt lat="45.8079099" lon="12.9457194"><ele>4.0</ele><time>2026-05-05T13:12:27.267Z</time></trkpt><trkpt lat="45.8078784" lon="12.9453375"><ele>3.5</ele><time>2026-05-05T13:12:28.266Z</time></trkpt><trkpt lat="45.8078512" lon="12.94496"><ele>3.0</ele><time>2026-05-05T13:12:29.267Z</time></trkpt><trkpt lat="45.8078245" lon="12.9445805"><ele>3.0</ele><time>2026-05-05T13:12:30.267Z</time></trkpt><trkpt lat="45.8077996" lon="12.9442025"><ele>3.0</ele><time>2026-05-05T13:12:31.266Z</time></trkpt><trkpt lat="45.8077701" lon="12.9438244"><ele>3.0</ele><time>2026-05-05T13:12:32.266Z</time></trkpt><trkpt lat="45.8077396" lon="12.9434358"><ele>3.0</ele><time>2026-05-05T13:12:33.267Z</time></trkpt><trkpt lat="45.807705" lon="12.9430584"><ele>3.0</ele><time>2026-05-05T13:12:34.266Z</time></trkpt><trkpt lat="45.8076723" lon="12.9426777"><ele>3.0</ele><time>2026-05-05T13:12:35.267Z</time></trkpt><trkpt lat="45.8076409" lon="12.9422968"><ele>3.0</ele><time>2026-05-05T13:12:36.267Z</time></trkpt><trkpt lat="45.8076127" lon="12.941924"><ele>3.0</ele><time>2026-05-05T13:12:37.267Z</time></trkpt><trkpt lat="45.8075799" lon="12.941544"><ele>3.0</ele><time>2026-05-05T13:12:38.266Z</time></trkpt><trkpt lat="45.8075517" lon="12.9411602"><ele>3.0</ele><time>2026-05-05T13:12:39.266Z</time></trkpt><trkpt lat="45.8075229" lon="12.9407832"><ele>2.5</ele><time>2026-05-05T13:12:40.266Z</time></trkpt><trkpt lat="45.8074937" lon="12.9403961"><ele>2.0</ele><time>2026-05-05T13:12:41.267Z</time></trkpt><trkpt lat="45.8074668" lon="12.9400162"><ele>2.0</ele><time>2026-05-05T13:12:42.267Z</time></trkpt><trkpt lat="45.8074407" lon="12.9396199"><ele>2.0</ele><time>2026-05-05T13:12:43.267Z</time></trkpt><trkpt lat="45.8074175" lon="12.9392225"><ele>3.5</ele><time>2026-05-05T13:12:44.266Z</time></trkpt><trkpt lat="45.807396" lon="12.9388223"><ele>5.0</ele><time>2026-05-05T13:12:45.267Z</time></trkpt><trkpt lat="45.8073682" lon="12.9384328"><ele>4.5</ele><time>2026-05-05T13:12:46.267Z</time></trkpt><trkpt lat="45.8073421" lon="12.9380444"><ele>4.0</ele><time>2026-05-05T13:12:47.267Z</time></trkpt><trkpt lat="45.807314" lon="12.9376545"><ele>3.5</ele><time>2026-05-05T13:12:48.266Z</time></trkpt><trkpt lat="45.8072797" lon="12.9372681"><ele>3.0</ele><time>2026-05-05T13:12:49.267Z</time></trkpt><trkpt lat="45.807252" lon="12.9368902"><ele>2.5</ele><time>2026-05-05T13:12:50.267Z</time></trkpt><trkpt lat="45.8072263" lon="12.9365178"><ele>2.0</ele><time>2026-05-05T13:12:51.267Z</time></trkpt><trkpt lat="45.8071958" lon="12.9361469"><ele>2.5</ele><time>2026-05-05T13:12:52.266Z</time></trkpt><trkpt lat="45.807164" lon="12.9357729"><ele>3.0</ele><time>2026-05-05T13:12:53.266Z</time></trkpt><trkpt lat="45.8071358" lon="12.9354055"><ele>3.5</ele><time>2026-05-05T13:12:54.267Z</time></trkpt><trkpt lat="45.8071068" lon="12.9350345"><ele>4.0</ele><time>2026-05-05T13:12:55.266Z</time></trkpt><trkpt lat="45.8070793" lon="12.934671"><ele>4.0</ele><time>2026-05-05T13:12:56.267Z</time></trkpt><trkpt lat="45.8070479" lon="12.9343001"><ele>4.0</ele><time>2026-05-05T13:12:57.266Z</time></trkpt><trkpt lat="45.8070186" lon="12.9339283"><ele>4.0</ele><time>2026-05-05T13:12:58.267Z</time></trkpt><trkpt lat="45.8069895" lon="12.9335699"><ele>4.0</ele><time>2026-05-05T13:12:59.267Z</time></trkpt><trkpt lat="45.8069621" lon="12.9332134"><ele>4.0</ele><time>2026-05-05T13:13:00.267Z</time></trkpt><trkpt lat="45.8069331" lon="12.9328548"><ele>4.0</ele><time>2026-05-05T13:13:01.267Z</time></trkpt><trkpt lat="45.8069032" lon="12.9324918"><ele>3.0</ele><time>2026-05-05T13:13:02.267Z</time></trkpt><trkpt lat="45.8068777" lon="12.9321371"><ele>2.0</ele><time>2026-05-05T13:13:03.267Z</time></trkpt><trkpt lat="45.8068495" lon="12.9317796"><ele>3.0</ele><time>2026-05-05T13:13:04.267Z</time></trkpt><trkpt lat="45.8068214" lon="12.9314173"><ele>4.0</ele><time>2026-05-05T13:13:05.267Z</time></trkpt><trkpt lat="45.8067937" lon="12.9310548"><ele>4.0</ele><time>2026-05-05T13:13:06.267Z</time></trkpt><trkpt lat="45.8067721" lon="12.9306993"><ele>4.0</ele><time>2026-05-05T13:13:07.267Z</time></trkpt><trkpt lat="45.8067487" lon="12.9303346"><ele>4.0</ele><time>2026-05-05T13:13:08.267Z</time></trkpt><trkpt lat="45.8067208" lon="12.9299741"><ele>4.0</ele><time>2026-05-05T13:13:09.267Z</time></trkpt><trkpt lat="45.8066952" lon="12.9296077"><ele>4.0</ele><time>2026-05-05T13:13:10.267Z</time></trkpt><trkpt lat="45.8066695" lon="12.9292465"><ele>4.0</ele><time>2026-05-05T13:13:11.266Z</time></trkpt><trkpt lat="45.8066451" lon="12.928882"><ele>4.0</ele><time>2026-05-05T13:13:12.267Z</time></trkpt><trkpt lat="45.8066221" lon="12.9285201"><ele>4.0</ele><time>2026-05-05T13:13:13.267Z</time></trkpt><trkpt lat="45.8065931" lon="12.9281513"><ele>4.0</ele><time>2026-05-05T13:13:14.266Z</time></trkpt><trkpt lat="45.8065653" lon="12.9277794"><ele>4.0</ele><time>2026-05-05T13:13:15.267Z</time></trkpt><trkpt lat="45.8065432" lon="12.9274223"><ele>4.0</ele><time>2026-05-05T13:13:16.267Z</time></trkpt><trkpt lat="45.8065182" lon="12.9270552"><ele>4.0</ele><time>2026-05-05T13:13:17.267Z</time></trkpt><trkpt lat="45.8064919" lon="12.9266899"><ele>3.5</ele><time>2026-05-05T13:13:18.267Z</time></trkpt><trkpt lat="45.8064611" lon="12.926325"><ele>3.0</ele><time>2026-05-05T13:13:19.267Z</time></trkpt><trkpt lat="45.8064331" lon="12.9259612"><ele>3.0</ele><time>2026-05-05T13:13:20.266Z</time></trkpt><trkpt lat="45.806404" lon="12.9255955"><ele>3.0</ele><time>2026-05-05T13:13:21.267Z</time></trkpt><trkpt lat="45.806375" lon="12.9252284"><ele>3.0</ele><time>2026-05-05T13:13:22.267Z</time></trkpt><trkpt lat="45.8063449" lon="12.9248607"><ele>3.0</ele><time>2026-05-05T13:13:23.267Z</time></trkpt><trkpt lat="45.8063159" lon="12.9245017"><ele>3.5</ele><time>2026-05-05T13:13:24.267Z</time></trkpt><trkpt lat="45.8062875" lon="12.9241318"><ele>4.0</ele><time>2026-05-05T13:13:25.267Z</time></trkpt><trkpt lat="45.8062582" lon="12.9237582"><ele>4.0</ele><time>2026-05-05T13:13:26.266Z</time></trkpt><trkpt lat="45.8062326" lon="12.9233905"><ele>4.0</ele><time>2026-05-05T13:13:27.267Z</time></trkpt><trkpt lat="45.8062039" lon="12.9230202"><ele>4.0</ele><time>2026-05-05T13:13:28.267Z</time></trkpt><trkpt lat="45.8061737" lon="12.9226459"><ele>4.0</ele><time>2026-05-05T13:13:29.267Z</time></trkpt><trkpt lat="45.8061461" lon="12.9222755"><ele>3.5</ele><time>2026-05-05T13:13:30.267Z</time></trkpt><trkpt lat="45.8061151" lon="12.921901"><ele>3.0</ele><time>2026-05-05T13:13:31.267Z</time></trkpt><trkpt lat="45.8060859" lon="12.9215274"><ele>3.0</ele><time>2026-05-05T13:13:32.267Z</time></trkpt><trkpt lat="45.8060575" lon="12.9211606"><ele>3.0</ele><time>2026-05-05T13:13:33.267Z</time></trkpt><trkpt lat="45.8060249" lon="12.9207887"><ele>2.5</ele><time>2026-05-05T13:13:34.267Z</time></trkpt><trkpt lat="45.8060015" lon="12.9204216"><ele>2.0</ele><time>2026-05-05T13:13:35.266Z</time></trkpt><trkpt lat="45.8059734" lon="12.9200541"><ele>4.0</ele><time>2026-05-05T13:13:36.267Z</time></trkpt><trkpt lat="45.8059375" lon="12.9196801"><ele>6.0</ele><time>2026-05-05T13:13:37.266Z</time></trkpt><trkpt lat="45.8059038" lon="12.9193073"><ele>6.0</ele><time>2026-05-05T13:13:38.267Z</time></trkpt><trkpt lat="45.805871" lon="12.91894"><ele>6.0</ele><time>2026-05-05T13:13:39.267Z</time></trkpt><trkpt lat="45.8058392" lon="12.9185732"><ele>5.5</ele><time>2026-05-05T13:13:40.266Z</time></trkpt><trkpt lat="45.8058033" lon="12.9182042"><ele>5.0</ele><time>2026-05-05T13:13:41.266Z</time></trkpt><trkpt lat="45.8057616" lon="12.9178323"><ele>5.0</ele><time>2026-05-05T13:13:42.267Z</time></trkpt><trkpt lat="45.8057242" lon="12.9174572"><ele>5.0</ele><time>2026-05-05T13:13:43.266Z</time></trkpt><trkpt lat="45.8056829" lon="12.9170844"><ele>5.5</ele><time>2026-05-05T13:13:44.266Z</time></trkpt><trkpt lat="45.8056362" lon="12.916708"><ele>6.0</ele><time>2026-05-05T13:13:45.267Z</time></trkpt><trkpt lat="45.8055955" lon="12.9163351"><ele>6.0</ele><time>2026-05-05T13:13:46.267Z</time></trkpt><trkpt lat="45.8055573" lon="12.9159602"><ele>6.0</ele><time>2026-05-05T13:13:47.267Z</time></trkpt><trkpt lat="45.8055192" lon="12.9155767"><ele>6.0</ele><time>2026-05-05T13:13:48.266Z</time></trkpt><trkpt lat="45.8054773" lon="12.9151872"><ele>6.0</ele><time>2026-05-05T13:13:49.266Z</time></trkpt><trkpt lat="45.8054398" lon="12.9147848"><ele>6.0</ele><time>2026-05-05T13:13:50.267Z</time></trkpt><trkpt lat="45.8054028" lon="12.9143894"><ele>6.0</ele><time>2026-05-05T13:13:51.266Z</time></trkpt><trkpt lat="45.805367" lon="12.9139979"><ele>5.5</ele><time>2026-05-05T13:13:52.267Z</time></trkpt><trkpt lat="45.8053315" lon="12.9136067"><ele>5.0</ele><time>2026-05-05T13:13:53.267Z</time></trkpt><trkpt lat="45.8052972" lon="12.9132258"><ele>5.0</ele><time>2026-05-05T13:13:54.266Z</time></trkpt><trkpt lat="45.8052689" lon="12.9128424"><ele>5.0</ele><time>2026-05-05T13:13:55.267Z</time></trkpt><trkpt lat="45.8052381" lon="12.9124573"><ele>5.0</ele><time>2026-05-05T13:13:56.267Z</time></trkpt><trkpt lat="45.8052078" lon="12.9120681"><ele>5.0</ele><time>2026-05-05T13:13:57.266Z</time></trkpt><trkpt lat="45.8051813" lon="12.9116803"><ele>5.0</ele><time>2026-05-05T13:13:58.267Z</time></trkpt><trkpt lat="45.8051592" lon="12.911301"><ele>5.0</ele><time>2026-05-05T13:13:59.267Z</time></trkpt><trkpt lat="45.8051309" lon="12.9109153"><ele>5.0</ele><time>2026-05-05T13:14:00.267Z</time></trkpt><trkpt lat="45.8051115" lon="12.9105303"><ele>5.0</ele><time>2026-05-05T13:14:01.267Z</time></trkpt><trkpt lat="45.80509" lon="12.9101404"><ele>4.5</ele><time>2026-05-05T13:14:02.267Z</time></trkpt><trkpt lat="45.8050729" lon="12.9097506"><ele>4.0</ele><time>2026-05-05T13:14:03.266Z</time></trkpt><trkpt lat="45.8050559" lon="12.9093657"><ele>4.5</ele><time>2026-05-05T13:14:04.267Z</time></trkpt><trkpt lat="45.8050359" lon="12.908983"><ele>5.0</ele><time>2026-05-05T13:14:05.266Z</time></trkpt><trkpt lat="45.8050187" lon="12.9085934"><ele>5.0</ele><time>2026-05-05T13:14:06.267Z</time></trkpt><trkpt lat="45.8050039" lon="12.9082069"><ele>5.0</ele><time>2026-05-05T13:14:07.266Z</time></trkpt><trkpt lat="45.8049929" lon="12.9078257"><ele>5.5</ele><time>2026-05-05T13:14:08.266Z</time></trkpt><trkpt lat="45.8049866" lon="12.907437"><ele>6.0</ele><time>2026-05-05T13:14:09.267Z</time></trkpt><trkpt lat="45.8049797" lon="12.9070575"><ele>5.0</ele><time>2026-05-05T13:14:10.267Z</time></trkpt><trkpt lat="45.8049757" lon="12.9066746"><ele>4.0</ele><time>2026-05-05T13:14:11.267Z</time></trkpt><trkpt lat="45.8049679" lon="12.9062872"><ele>4.0</ele><time>2026-05-05T13:14:12.266Z</time></trkpt><trkpt lat="45.8049649" lon="12.9059035"><ele>4.0</ele><time>2026-05-05T13:14:13.267Z</time></trkpt><trkpt lat="45.8049612" lon="12.905518"><ele>4.0</ele><time>2026-05-05T13:14:14.267Z</time></trkpt><trkpt lat="45.8049616" lon="12.9051274"><ele>4.0</ele><time>2026-05-05T13:14:15.266Z</time></trkpt><trkpt lat="45.8049612" lon="12.9047371"><ele>4.5</ele><time>2026-05-05T13:14:16.266Z</time></trkpt><trkpt lat="45.8049658" lon="12.9043621"><ele>5.0</ele><time>2026-05-05T13:14:17.266Z</time></trkpt><trkpt lat="45.8049657" lon="12.9039675"><ele>5.0</ele><time>2026-05-05T13:14:18.266Z</time></trkpt><trkpt lat="45.8049681" lon="12.903577"><ele>5.0</ele><time>2026-05-05T13:14:19.267Z</time></trkpt><trkpt lat="45.8049672" lon="12.903195"><ele>4.5</ele><time>2026-05-05T13:14:20.266Z</time></trkpt><trkpt lat="45.8049705" lon="12.9028143"><ele>4.0</ele><time>2026-05-05T13:14:21.267Z</time></trkpt><trkpt lat="45.8049796" lon="12.9024405"><ele>4.0</ele><time>2026-05-05T13:14:22.266Z</time></trkpt><trkpt lat="45.8049892" lon="12.9020616"><ele>4.0</ele><time>2026-05-05T13:14:23.267Z</time></trkpt><trkpt lat="45.8049983" lon="12.9016824"><ele>4.5</ele><time>2026-05-05T13:14:24.266Z</time></trkpt><trkpt lat="45.8050097" lon="12.9013082"><ele>5.0</ele><time>2026-05-05T13:14:25.267Z</time></trkpt><trkpt lat="45.8050205" lon="12.9009418"><ele>5.0</ele><time>2026-05-05T13:14:26.266Z</time></trkpt><trkpt lat="45.8050378" lon="12.9005711"><ele>5.0</ele><time>2026-05-05T13:14:27.267Z</time></trkpt><trkpt lat="45.8050553" lon="12.9001988"><ele>5.5</ele><time>2026-05-05T13:14:28.267Z</time></trkpt><trkpt lat="45.8050693" lon="12.8998286"><ele>6.0</ele><time>2026-05-05T13:14:29.266Z</time></trkpt><trkpt lat="45.8050811" lon="12.8994547"><ele>6.0</ele><time>2026-05-05T13:14:30.266Z</time></trkpt><trkpt lat="45.8050945" lon="12.8990799"><ele>6.0</ele><time>2026-05-05T13:14:31.266Z</time></trkpt><trkpt lat="45.8051081" lon="12.8987089"><ele>5.5</ele><time>2026-05-05T13:14:32.266Z</time></trkpt><trkpt lat="45.8051254" lon="12.8983429"><ele>5.0</ele><time>2026-05-05T13:14:33.267Z</time></trkpt><trkpt lat="45.8051377" lon="12.8979717"><ele>5.0</ele><time>2026-05-05T13:14:34.266Z</time></trkpt><trkpt lat="45.8051552" lon="12.8976153"><ele>5.0</ele><time>2026-05-05T13:14:35.266Z</time></trkpt><trkpt lat="45.805164" lon="12.8972456"><ele>4.5</ele><time>2026-05-05T13:14:36.267Z</time></trkpt><trkpt lat="45.8051752" lon="12.896867"><ele>4.0</ele><time>2026-05-05T13:14:37.267Z</time></trkpt><trkpt lat="45.8051865" lon="12.8964968"><ele>4.0</ele><time>2026-05-05T13:14:38.266Z</time></trkpt><trkpt lat="45.8051929" lon="12.8961314"><ele>4.0</ele><time>2026-05-05T13:14:39.266Z</time></trkpt><trkpt lat="45.8052016" lon="12.8957563"><ele>4.5</ele><time>2026-05-05T13:14:40.267Z</time></trkpt><trkpt lat="45.8052088" lon="12.895389"><ele>5.0</ele><time>2026-05-05T13:14:41.267Z</time></trkpt><trkpt lat="45.8052132" lon="12.8950157"><ele>5.0</ele><time>2026-05-05T13:14:42.267Z</time></trkpt><trkpt lat="45.805221" lon="12.8946486"><ele>5.0</ele><time>2026-05-05T13:14:43.267Z</time></trkpt><trkpt lat="45.8052212" lon="12.8942741"><ele>5.0</ele><time>2026-05-05T13:14:44.267Z</time></trkpt><trkpt lat="45.8052187" lon="12.8939051"><ele>5.0</ele><time>2026-05-05T13:14:45.267Z</time></trkpt><trkpt lat="45.8052153" lon="12.8935353"><ele>5.0</ele><time>2026-05-05T13:14:46.266Z</time></trkpt><trkpt lat="45.8052122" lon="12.8931684"><ele>5.0</ele><time>2026-05-05T13:14:47.267Z</time></trkpt><trkpt lat="45.8052081" lon="12.8928009"><ele>6.0</ele><time>2026-05-05T13:14:48.267Z</time></trkpt><trkpt lat="45.8052017" lon="12.8924362"><ele>7.0</ele><time>2026-05-05T13:14:49.267Z</time></trkpt><trkpt lat="45.8051928" lon="12.8920753"><ele>8.0</ele><time>2026-05-05T13:14:50.267Z</time></trkpt><trkpt lat="45.8051811" lon="12.8917151"><ele>9.0</ele><time>2026-05-05T13:14:51.266Z</time></trkpt><trkpt lat="45.8051689" lon="12.8913552"><ele>8.5</ele><time>2026-05-05T13:14:52.267Z</time></trkpt><trkpt lat="45.8051542" lon="12.8909998"><ele>8.0</ele><time>2026-05-05T13:14:53.267Z</time></trkpt><trkpt lat="45.8051451" lon="12.8906448"><ele>7.0</ele><time>2026-05-05T13:14:54.266Z</time></trkpt><trkpt lat="45.8051307" lon="12.8902849"><ele>6.0</ele><time>2026-05-05T13:14:55.266Z</time></trkpt><trkpt lat="45.8051123" lon="12.8899278"><ele>6.5</ele><time>2026-05-05T13:14:56.267Z</time></trkpt><trkpt lat="45.8050951" lon="12.8895705"><ele>7.0</ele><time>2026-05-05T13:14:57.267Z</time></trkpt><trkpt lat="45.8050805" lon="12.889215"><ele>7.0</ele><time>2026-05-05T13:14:58.266Z</time></trkpt><trkpt lat="45.8050608" lon="12.8888604"><ele>7.0</ele><time>2026-05-05T13:14:59.266Z</time></trkpt><trkpt lat="45.80504" lon="12.8885075"><ele>6.5</ele><time>2026-05-05T13:15:00.267Z</time></trkpt><trkpt lat="45.805015" lon="12.8881599"><ele>6.0</ele><time>2026-05-05T13:15:01.267Z</time></trkpt><trkpt lat="45.8049905" lon="12.8878086"><ele>6.5</ele><time>2026-05-05T13:15:02.267Z</time></trkpt><trkpt lat="45.804962" lon="12.8874573"><ele>7.0</ele><time>2026-05-05T13:15:03.266Z</time></trkpt><trkpt lat="45.8049319" lon="12.8871109"><ele>7.0</ele><time>2026-05-05T13:15:04.266Z</time></trkpt><trkpt lat="45.8049028" lon="12.8867631"><ele>7.0</ele><time>2026-05-05T13:15:05.267Z</time></trkpt><trkpt lat="45.8048758" lon="12.8864268"><ele>7.5</ele><time>2026-05-05T13:15:06.267Z</time></trkpt><trkpt lat="45.804846" lon="12.886096"><ele>8.0</ele><time>2026-05-05T13:15:07.266Z</time></trkpt><trkpt lat="45.8048142" lon="12.8857743"><ele>7.0</ele><time>2026-05-05T13:15:08.266Z</time></trkpt><trkpt lat="45.8047849" lon="12.885446"><ele>6.0</ele><time>2026-05-05T13:15:09.267Z</time></trkpt><trkpt lat="45.8047558" lon="12.8851212"><ele>6.0</ele><time>2026-05-05T13:15:10.267Z</time></trkpt><trkpt lat="45.8047287" lon="12.8848027"><ele>6.0</ele><time>2026-05-05T13:15:11.267Z</time></trkpt><trkpt lat="45.8046983" lon="12.8844908"><ele>6.0</ele><time>2026-05-05T13:15:12.267Z</time></trkpt><trkpt lat="45.8046703" lon="12.8841809"><ele>7.0</ele><time>2026-05-05T13:15:13.267Z</time></trkpt><trkpt lat="45.8046415" lon="12.8838795"><ele>8.0</ele><time>2026-05-05T13:15:14.267Z</time></trkpt><trkpt lat="45.8046129" lon="12.8835835"><ele>9.0</ele><time>2026-05-05T13:15:15.266Z</time></trkpt><trkpt lat="45.8045783" lon="12.8832821"><ele>9.0</ele><time>2026-05-05T13:15:16.267Z</time></trkpt><trkpt lat="45.8045383" lon="12.8829817"><ele>9.0</ele><time>2026-05-05T13:15:17.267Z</time></trkpt><trkpt lat="45.8044984" lon="12.8826879"><ele>9.0</ele><time>2026-05-05T13:15:18.267Z</time></trkpt><trkpt lat="45.8044616" lon="12.8823907"><ele>9.0</ele><time>2026-05-05T13:15:19.267Z</time></trkpt><trkpt lat="45.804425" lon="12.882101"><ele>9.0</ele><time>2026-05-05T13:15:20.266Z</time></trkpt><trkpt lat="45.8043878" lon="12.8818048"><ele>9.0</ele><time>2026-05-05T13:15:21.267Z</time></trkpt><trkpt lat="45.804349" lon="12.8815164"><ele>8.666666666666666</ele><time>2026-05-05T13:15:22.267Z</time></trkpt><trkpt lat="45.8043085" lon="12.8812238"><ele>8.333333333333332</ele><time>2026-05-05T13:15:23.267Z</time></trkpt><trkpt lat="45.804269" lon="12.8809424"><ele>8.0</ele><time>2026-05-05T13:15:24.267Z</time></trkpt><trkpt lat="45.8042211" lon="12.8806615"><ele>7.333333333333333</ele><time>2026-05-05T13:15:25.266Z</time></trkpt><trkpt lat="45.8041786" lon="12.8803959"><ele>6.666666666666666</ele><time>2026-05-05T13:15:26.266Z</time></trkpt><trkpt lat="45.8041359" lon="12.8801402"><ele>6.0</ele><time>2026-05-05T13:15:27.267Z</time></trkpt><trkpt lat="45.8040917" lon="12.8798898"><ele>6.0</ele><time>2026-05-05T13:15:28.266Z</time></trkpt><trkpt lat="45.8040537" lon="12.8796521"><ele>6.0</ele><time>2026-05-05T13:15:29.266Z</time></trkpt><trkpt lat="45.8040124" lon="12.8794101"><ele>6.0</ele><time>2026-05-05T13:15:30.266Z</time></trkpt><trkpt lat="45.8039717" lon="12.879159"><ele>6.0</ele><time>2026-05-05T13:15:31.267Z</time></trkpt><trkpt lat="45.8039287" lon="12.8789012"><ele>6.0</ele><time>2026-05-05T13:15:32.267Z</time></trkpt><trkpt lat="45.8038823" lon="12.8786463"><ele>6.0</ele><time>2026-05-05T13:15:33.267Z</time></trkpt><trkpt lat="45.8038324" lon="12.8783783"><ele>6.0</ele><time>2026-05-05T13:15:34.267Z</time></trkpt><trkpt lat="45.8037856" lon="12.8781149"><ele>6.0</ele><time>2026-05-05T13:15:35.266Z</time></trkpt><trkpt lat="45.8037382" lon="12.8778361"><ele>6.0</ele><time>2026-05-05T13:15:36.267Z</time></trkpt><trkpt lat="45.8036969" lon="12.8775744"><ele>6.333333333333334</ele><time>2026-05-05T13:15:37.266Z</time></trkpt><trkpt lat="45.8036497" lon="12.8773126"><ele>6.666666666666667</ele><time>2026-05-05T13:15:38.267Z</time></trkpt><trkpt lat="45.8036008" lon="12.8770516"><ele>7.0</ele><time>2026-05-05T13:15:39.267Z</time></trkpt><trkpt lat="45.8035538" lon="12.8767879"><ele>6.666666666666667</ele><time>2026-05-05T13:15:40.267Z</time></trkpt><trkpt lat="45.8035065" lon="12.8765321"><ele>6.333333333333334</ele><time>2026-05-05T13:15:41.267Z</time></trkpt><trkpt lat="45.8034602" lon="12.8762742"><ele>6.0</ele><time>2026-05-05T13:15:42.266Z</time></trkpt><trkpt lat="45.8034148" lon="12.8760251"><ele>5.666666666666667</ele><time>2026-05-05T13:15:43.267Z</time></trkpt><trkpt lat="45.80337" lon="12.8757781"><ele>5.333333333333334</ele><time>2026-05-05T13:15:44.266Z</time></trkpt><trkpt lat="45.8033261" lon="12.8755332"><ele>5.0</ele><time>2026-05-05T13:15:45.267Z</time></trkpt><trkpt lat="45.8032844" lon="12.8752883"><ele>5.0</ele><time>2026-05-05T13:15:46.266Z</time></trkpt><trkpt lat="45.8032384" lon="12.8750436"><ele>5.0</ele><time>2026-05-05T13:15:47.267Z</time></trkpt><trkpt lat="45.8031929" lon="12.8748113"><ele>5.0</ele><time>2026-05-05T13:15:48.267Z</time></trkpt><trkpt lat="45.8031503" lon="12.874579"><ele>5.0</ele><time>2026-05-05T13:15:49.267Z</time></trkpt><trkpt lat="45.8031138" lon="12.8743584"><ele>5.0</ele><time>2026-05-05T13:15:50.267Z</time></trkpt><trkpt lat="45.8030745" lon="12.8741412"><ele>5.0</ele><time>2026-05-05T13:15:51.266Z</time></trkpt><trkpt lat="45.8030401" lon="12.8739305"><ele>5.666666666666667</ele><time>2026-05-05T13:15:52.266Z</time></trkpt><trkpt lat="45.8030024" lon="12.8737196"><ele>6.333333333333334</ele><time>2026-05-05T13:15:53.267Z</time></trkpt><trkpt lat="45.8029605" lon="12.8735083"><ele>7.0</ele><time>2026-05-05T13:15:54.266Z</time></trkpt><trkpt lat="45.802918" lon="12.8732957"><ele>7.333333333333334</ele><time>2026-05-05T13:15:55.266Z</time></trkpt><trkpt lat="45.8028768" lon="12.8730833"><ele>7.666666666666666</ele><time>2026-05-05T13:15:56.267Z</time></trkpt><trkpt lat="45.8028398" lon="12.8728747"><ele>8.0</ele><time>2026-05-05T13:15:57.267Z</time></trkpt><trkpt lat="45.8028034" lon="12.8726626"><ele>7.666666666666666</ele><time>2026-05-05T13:15:58.267Z</time></trkpt><trkpt lat="45.8027651" lon="12.8724472"><ele>7.333333333333334</ele><time>2026-05-05T13:15:59.267Z</time></trkpt><trkpt lat="45.8027217" lon="12.8722241"><ele>7.0</ele><time>2026-05-05T13:16:00.267Z</time></trkpt><trkpt lat="45.8026806" lon="12.8720007"><ele>7.0</ele><time>2026-05-05T13:16:01.267Z</time></trkpt><trkpt lat="45.8026394" lon="12.8717768"><ele>7.0</ele><time>2026-05-05T13:16:02.267Z</time></trkpt><trkpt lat="45.8025975" lon="12.8715494"><ele>7.0</ele><time>2026-05-05T13:16:03.267Z</time></trkpt><trkpt lat="45.8025558" lon="12.8713271"><ele>7.0</ele><time>2026-05-05T13:16:04.267Z</time></trkpt><trkpt lat="45.802517" lon="12.8711039"><ele>7.0</ele><time>2026-05-05T13:16:05.267Z</time></trkpt><trkpt lat="45.802474" lon="12.8708749"><ele>7.0</ele><time>2026-05-05T13:16:06.266Z</time></trkpt><trkpt lat="45.8024343" lon="12.8706484"><ele>7.0</ele><time>2026-05-05T13:16:07.267Z</time></trkpt><trkpt lat="45.8023921" lon="12.8704327"><ele>7.0</ele><time>2026-05-05T13:16:08.267Z</time></trkpt><trkpt lat="45.8023509" lon="12.8702206"><ele>7.0</ele><time>2026-05-05T13:16:09.267Z</time></trkpt><trkpt lat="45.802318" lon="12.87002"><ele>7.0</ele><time>2026-05-05T13:16:10.267Z</time></trkpt><trkpt lat="45.8022774" lon="12.8698169"><ele>7.0</ele><time>2026-05-05T13:16:11.267Z</time></trkpt><trkpt lat="45.8022466" lon="12.869638"><ele>7.0</ele><time>2026-05-05T13:16:12.266Z</time></trkpt><trkpt lat="45.8022134" lon="12.8694718"><ele>7.0</ele><time>2026-05-05T13:16:13.267Z</time></trkpt><trkpt lat="45.8021894" lon="12.8693189"><ele>7.199999999999999</ele><time>2026-05-05T13:16:14.267Z</time></trkpt><trkpt lat="45.8021665" lon="12.8691857"><ele>7.3999999999999995</ele><time>2026-05-05T13:16:15.266Z</time></trkpt><trkpt lat="45.8021432" lon="12.869059"><ele>7.6000000000000005</ele><time>2026-05-05T13:16:16.267Z</time></trkpt><trkpt lat="45.8021233" lon="12.8689316"><ele>7.800000000000001</ele><time>2026-05-05T13:16:17.267Z</time></trkpt><trkpt lat="45.8021027" lon="12.8688031"><ele>8.0</ele><time>2026-05-05T13:16:18.267Z</time></trkpt><trkpt lat="45.8020842" lon="12.8686748"><ele>7.999999999999999</ele><time>2026-05-05T13:16:19.267Z</time></trkpt><trkpt lat="45.8020664" lon="12.8685524"><ele>8.0</ele><time>2026-05-05T13:16:20.267Z</time></trkpt><trkpt lat="45.8020468" lon="12.8684309"><ele>8.0</ele><time>2026-05-05T13:16:21.267Z</time></trkpt><trkpt lat="45.8020284" lon="12.8683064"><ele>8.0</ele><time>2026-05-05T13:16:22.266Z</time></trkpt><trkpt lat="45.8020009" lon="12.8681836"><ele>7.999999999999999</ele><time>2026-05-05T13:16:23.266Z</time></trkpt><trkpt lat="45.8019763" lon="12.8680536"><ele>8.0</ele><time>2026-05-05T13:16:24.266Z</time></trkpt><trkpt lat="45.8019578" lon="12.8679301"><ele>7.999999999999999</ele><time>2026-05-05T13:16:25.267Z</time></trkpt><trkpt lat="45.8019329" lon="12.8678126"><ele>8.0</ele><time>2026-05-05T13:16:26.267Z</time></trkpt><trkpt lat="45.8019116" lon="12.8676915"><ele>8.0</ele><time>2026-05-05T13:16:27.267Z</time></trkpt><trkpt lat="45.8018808" lon="12.8675628"><ele>8.0</ele><time>2026-05-05T13:16:28.266Z</time></trkpt><trkpt lat="45.8018571" lon="12.8674366"><ele>7.999999999999999</ele><time>2026-05-05T13:16:29.267Z</time></trkpt><trkpt lat="45.8018357" lon="12.8673177"><ele>8.0</ele><time>2026-05-05T13:16:30.267Z</time></trkpt><trkpt lat="45.801816" lon="12.8671901"><ele>7.666666666666666</ele><time>2026-05-05T13:16:31.267Z</time></trkpt><trkpt lat="45.8017971" lon="12.8670607"><ele>7.333333333333333</ele><time>2026-05-05T13:16:32.267Z</time></trkpt><trkpt lat="45.8017764" lon="12.8669429"><ele>7.0</ele><time>2026-05-05T13:16:33.267Z</time></trkpt><trkpt lat="45.8017576" lon="12.8668298"><ele>6.666666666666666</ele><time>2026-05-05T13:16:34.267Z</time></trkpt><trkpt lat="45.8017344" lon="12.8667039"><ele>6.333333333333333</ele><time>2026-05-05T13:16:35.267Z</time></trkpt><trkpt lat="45.8017098" lon="12.8665861"><ele>6.0</ele><time>2026-05-05T13:16:36.266Z</time></trkpt><trkpt lat="45.8016853" lon="12.8664615"><ele>5.8</ele><time>2026-05-05T13:16:37.267Z</time></trkpt><trkpt lat="45.8016599" lon="12.8663332"><ele>5.6</ele><time>2026-05-05T13:16:38.267Z</time></trkpt><trkpt lat="45.8016397" lon="12.8662052"><ele>5.4</ele><time>2026-05-05T13:16:39.266Z</time></trkpt><trkpt lat="45.8016159" lon="12.8660829"><ele>5.2</ele><time>2026-05-05T13:16:40.267Z</time></trkpt><trkpt lat="45.8015871" lon="12.8659508"><ele>5.0</ele><time>2026-05-05T13:16:41.267Z</time></trkpt><trkpt lat="45.8015647" lon="12.8658168"><ele>5.0</ele><time>2026-05-05T13:16:42.266Z</time></trkpt><trkpt lat="45.8015424" lon="12.8656845"><ele>5.0</ele><time>2026-05-05T13:16:43.267Z</time></trkpt><trkpt lat="45.8015181" lon="12.8655553"><ele>5.0</ele><time>2026-05-05T13:16:44.267Z</time></trkpt><trkpt lat="45.8015013" lon="12.8654289"><ele>5.0</ele><time>2026-05-05T13:16:45.267Z</time></trkpt><trkpt lat="45.8014786" lon="12.8652967"><ele>5.0</ele><time>2026-05-05T13:16:46.266Z</time></trkpt><trkpt lat="45.8014548" lon="12.8651619"><ele>5.4</ele><time>2026-05-05T13:16:47.267Z</time></trkpt><trkpt lat="45.8014336" lon="12.8650346"><ele>5.8</ele><time>2026-05-05T13:16:48.266Z</time></trkpt><trkpt lat="45.8014071" lon="12.8649005"><ele>6.199999999999999</ele><time>2026-05-05T13:16:49.267Z</time></trkpt><trkpt lat="45.8013808" lon="12.8647719"><ele>6.6</ele><time>2026-05-05T13:16:50.266Z</time></trkpt><trkpt lat="45.8013644" lon="12.8646424"><ele>7.0</ele><time>2026-05-05T13:16:51.266Z</time></trkpt><trkpt lat="45.8013323" lon="12.8645012"><ele>7.0</ele><time>2026-05-05T13:16:52.266Z</time></trkpt><trkpt lat="45.8013044" lon="12.864355"><ele>6.999999999999999</ele><time>2026-05-05T13:16:53.267Z</time></trkpt><trkpt lat="45.8012729" lon="12.8642203"><ele>6.999999999999999</ele><time>2026-05-05T13:16:54.267Z</time></trkpt><trkpt lat="45.8012515" lon="12.8640843"><ele>7.0</ele><time>2026-05-05T13:16:55.267Z</time></trkpt><trkpt lat="45.8012277" lon="12.8639536"><ele>7.0</ele><time>2026-05-05T13:16:56.267Z</time></trkpt><trkpt lat="45.8012016" lon="12.863812"><ele>7.0</ele><time>2026-05-05T13:16:57.266Z</time></trkpt><trkpt lat="45.8011779" lon="12.8636827"><ele>6.999999999999999</ele><time>2026-05-05T13:16:58.267Z</time></trkpt><trkpt lat="45.801154" lon="12.8635481"><ele>6.999999999999999</ele><time>2026-05-05T13:16:59.266Z</time></trkpt><trkpt lat="45.8011237" lon="12.8633914"><ele>7.0</ele><time>2026-05-05T13:17:00.267Z</time></trkpt><trkpt lat="45.8010953" lon="12.8632378"><ele>7.0</ele><time>2026-05-05T13:17:01.266Z</time></trkpt><trkpt lat="45.8010694" lon="12.8630802"><ele>7.0</ele><time>2026-05-05T13:17:02.266Z</time></trkpt><trkpt lat="45.8010407" lon="12.8629132"><ele>7.0</ele><time>2026-05-05T13:17:03.267Z</time></trkpt><trkpt lat="45.8010022" lon="12.8627388"><ele>7.0</ele><time>2026-05-05T13:17:04.267Z</time></trkpt><trkpt lat="45.8009712" lon="12.8625769"><ele>7.0</ele><time>2026-05-05T13:17:05.267Z</time></trkpt><trkpt lat="45.800945" lon="12.8624124"><ele>6.5</ele><time>2026-05-05T13:17:06.266Z</time></trkpt><trkpt lat="45.8009136" lon="12.8622438"><ele>6.0</ele><time>2026-05-05T13:17:07.267Z</time></trkpt><trkpt lat="45.8008851" lon="12.8620864"><ele>5.5</ele><time>2026-05-05T13:17:08.266Z</time></trkpt><trkpt lat="45.8008583" lon="12.8619211"><ele>5.0</ele><time>2026-05-05T13:17:09.266Z</time></trkpt><trkpt lat="45.8008273" lon="12.8617582"><ele>5.0</ele><time>2026-05-05T13:17:10.266Z</time></trkpt><trkpt lat="45.8007931" lon="12.8616047"><ele>5.0</ele><time>2026-05-05T13:17:11.267Z</time></trkpt><trkpt lat="45.8007656" lon="12.861428"><ele>5.0</ele><time>2026-05-05T13:17:12.267Z</time></trkpt><trkpt lat="45.8007267" lon="12.861256"><ele>5.0</ele><time>2026-05-05T13:17:13.267Z</time></trkpt><trkpt lat="45.8006978" lon="12.861093"><ele>5.0</ele><time>2026-05-05T13:17:14.266Z</time></trkpt><trkpt lat="45.800661" lon="12.860941"><ele>5.0</ele><time>2026-05-05T13:17:15.266Z</time></trkpt><trkpt lat="45.8006369" lon="12.8607748"><ele>5.0</ele><time>2026-05-05T13:17:16.266Z</time></trkpt><trkpt lat="45.8006108" lon="12.8605975"><ele>5.0</ele><time>2026-05-05T13:17:17.267Z</time></trkpt><trkpt lat="45.8005818" lon="12.8604318"><ele>5.0</ele><time>2026-05-05T13:17:18.266Z</time></trkpt><trkpt lat="45.8005501" lon="12.8602674"><ele>5.0</ele><time>2026-05-05T13:17:19.266Z</time></trkpt><trkpt lat="45.800514" lon="12.8600988"><ele>5.0</ele><time>2026-05-05T13:17:20.267Z</time></trkpt><trkpt lat="45.8004792" lon="12.8599288"><ele>5.0</ele><time>2026-05-05T13:17:21.266Z</time></trkpt><trkpt lat="45.8004421" lon="12.8597573"><ele>5.0</ele><time>2026-05-05T13:17:22.267Z</time></trkpt><trkpt lat="45.8004125" lon="12.8595797"><ele>5.0</ele><time>2026-05-05T13:17:23.267Z</time></trkpt><trkpt lat="45.8003874" lon="12.8594202"><ele>5.0</ele><time>2026-05-05T13:17:24.267Z</time></trkpt><trkpt lat="45.8003669" lon="12.8592638"><ele>5.0</ele><time>2026-05-05T13:17:25.266Z</time></trkpt><trkpt lat="45.8003393" lon="12.8590929"><ele>5.25</ele><time>2026-05-05T13:17:26.267Z</time></trkpt><trkpt lat="45.8003079" lon="12.8589287"><ele>5.5</ele><time>2026-05-05T13:17:27.266Z</time></trkpt><trkpt lat="45.8002752" lon="12.85876"><ele>5.75</ele><time>2026-05-05T13:17:28.267Z</time></trkpt><trkpt lat="45.8002548" lon="12.8586074"><ele>6.0</ele><time>2026-05-05T13:17:29.267Z</time></trkpt><trkpt lat="45.8002261" lon="12.8584433"><ele>6.0</ele><time>2026-05-05T13:17:30.267Z</time></trkpt><trkpt lat="45.8001893" lon="12.8582792"><ele>6.0</ele><time>2026-05-05T13:17:31.267Z</time></trkpt><trkpt lat="45.800165" lon="12.8581277"><ele>6.0</ele><time>2026-05-05T13:17:32.266Z</time></trkpt><trkpt lat="45.8001379" lon="12.8579647"><ele>6.0</ele><time>2026-05-05T13:17:33.267Z</time></trkpt><trkpt lat="45.8001038" lon="12.8577943"><ele>5.75</ele><time>2026-05-05T13:17:34.267Z</time></trkpt><trkpt lat="45.800067" lon="12.8576382"><ele>5.5</ele><time>2026-05-05T13:17:35.266Z</time></trkpt><trkpt lat="45.8000286" lon="12.8574738"><ele>5.25</ele><time>2026-05-05T13:17:36.267Z</time></trkpt><trkpt lat="45.7999945" lon="12.8573098"><ele>5.0</ele><time>2026-05-05T13:17:37.267Z</time></trkpt><trkpt lat="45.7999627" lon="12.8571307"><ele>5.0</ele><time>2026-05-05T13:17:38.266Z</time></trkpt><trkpt lat="45.7999245" lon="12.85695"><ele>5.0</ele><time>2026-05-05T13:17:39.267Z</time></trkpt><trkpt lat="45.7998968" lon="12.8567816"><ele>5.0</ele><time>2026-05-05T13:17:40.266Z</time></trkpt><trkpt lat="45.7998607" lon="12.8566117"><ele>5.0</ele><time>2026-05-05T13:17:41.266Z</time></trkpt><trkpt lat="45.7998326" lon="12.8564424"><ele>5.0</ele><time>2026-05-05T13:17:42.267Z</time></trkpt><trkpt lat="45.7998052" lon="12.8562677"><ele>5.0</ele><time>2026-05-05T13:17:43.266Z</time></trkpt><trkpt lat="45.799776" lon="12.8560913"><ele>5.0</ele><time>2026-05-05T13:17:44.266Z</time></trkpt><trkpt lat="45.7997509" lon="12.8559303"><ele>5.0</ele><time>2026-05-05T13:17:45.267Z</time></trkpt><trkpt lat="45.7997213" lon="12.855766"><ele>5.0</ele><time>2026-05-05T13:17:46.267Z</time></trkpt><trkpt lat="45.7996879" lon="12.8555967"><ele>5.0</ele><time>2026-05-05T13:17:47.267Z</time></trkpt><trkpt lat="45.7996541" lon="12.8554316"><ele>5.0</ele><time>2026-05-05T13:17:48.266Z</time></trkpt><trkpt lat="45.7996231" lon="12.8552586"><ele>5.0</ele><time>2026-05-05T13:17:49.267Z</time></trkpt><trkpt lat="45.7995921" lon="12.8550891"><ele>4.75</ele><time>2026-05-05T13:17:50.267Z</time></trkpt><trkpt lat="45.7995606" lon="12.8549326"><ele>4.5</ele><time>2026-05-05T13:17:51.267Z</time></trkpt><trkpt lat="45.7995327" lon="12.8547632"><ele>4.25</ele><time>2026-05-05T13:17:52.267Z</time></trkpt><trkpt lat="45.7995007" lon="12.8545941"><ele>4.0</ele><time>2026-05-05T13:17:53.267Z</time></trkpt><trkpt lat="45.7994694" lon="12.8544158"><ele>4.25</ele><time>2026-05-05T13:17:54.266Z</time></trkpt><trkpt lat="45.7994381" lon="12.8542384"><ele>4.5</ele><time>2026-05-05T13:17:55.267Z</time></trkpt><trkpt lat="45.7994054" lon="12.8540516"><ele>4.75</ele><time>2026-05-05T13:17:56.267Z</time></trkpt><trkpt lat="45.7993689" lon="12.8538608"><ele>5.0</ele><time>2026-05-05T13:17:57.267Z</time></trkpt><trkpt lat="45.799328" lon="12.8536652"><ele>5.25</ele><time>2026-05-05T13:17:58.267Z</time></trkpt><trkpt lat="45.7992911" lon="12.8534751"><ele>5.5</ele><time>2026-05-05T13:17:59.267Z</time></trkpt><trkpt lat="45.7992509" lon="12.8532858"><ele>5.75</ele><time>2026-05-05T13:18:00.267Z</time></trkpt><trkpt lat="45.7992122" lon="12.853106"><ele>6.0</ele><time>2026-05-05T13:18:01.266Z</time></trkpt><trkpt lat="45.7991785" lon="12.8529451"><ele>6.199999999999999</ele><time>2026-05-05T13:18:02.267Z</time></trkpt><trkpt lat="45.7991448" lon="12.8527924"><ele>6.3999999999999995</ele><time>2026-05-05T13:18:03.266Z</time></trkpt><trkpt lat="45.7991166" lon="12.8526598"><ele>6.6</ele><time>2026-05-05T13:18:04.267Z</time></trkpt><trkpt lat="45.7990949" lon="12.8525264"><ele>6.8</ele><time>2026-05-05T13:18:05.267Z</time></trkpt><trkpt lat="45.799078" lon="12.8524004"><ele>7.0</ele><time>2026-05-05T13:18:06.267Z</time></trkpt><trkpt lat="45.7990578" lon="12.8522701"><ele>7.199999999999999</ele><time>2026-05-05T13:18:07.267Z</time></trkpt><trkpt lat="45.799037" lon="12.8521407"><ele>7.3999999999999995</ele><time>2026-05-05T13:18:08.267Z</time></trkpt><trkpt lat="45.7990159" lon="12.8520116"><ele>7.6000000000000005</ele><time>2026-05-05T13:18:09.266Z</time></trkpt><trkpt lat="45.798991" lon="12.8518804"><ele>7.800000000000001</ele><time>2026-05-05T13:18:10.267Z</time></trkpt><trkpt lat="45.7989623" lon="12.8517401"><ele>8.0</ele><time>2026-05-05T13:18:11.267Z</time></trkpt><trkpt lat="45.7989373" lon="12.8515987"><ele>7.6000000000000005</ele><time>2026-05-05T13:18:12.266Z</time></trkpt><trkpt lat="45.7989173" lon="12.8514661"><ele>7.200000000000001</ele><time>2026-05-05T13:18:13.267Z</time></trkpt><trkpt lat="45.7988929" lon="12.8513295"><ele>6.8</ele><time>2026-05-05T13:18:14.267Z</time></trkpt><trkpt lat="45.7988661" lon="12.85119"><ele>6.4</ele><time>2026-05-05T13:18:15.267Z</time></trkpt><trkpt lat="45.7988383" lon="12.8510441"><ele>6.0</ele><time>2026-05-05T13:18:16.266Z</time></trkpt><trkpt lat="45.7988056" lon="12.8509017"><ele>6.0</ele><time>2026-05-05T13:18:17.267Z</time></trkpt><trkpt lat="45.7987751" lon="12.8507492"><ele>6.0</ele><time>2026-05-05T13:18:18.266Z</time></trkpt><trkpt lat="45.7987457" lon="12.8506044"><ele>6.0</ele><time>2026-05-05T13:18:19.267Z</time></trkpt><trkpt lat="45.7987275" lon="12.8504633"><ele>6.0</ele><time>2026-05-05T13:18:20.266Z</time></trkpt><trkpt lat="45.7986991" lon="12.8503129"><ele>6.0</ele><time>2026-05-05T13:18:21.267Z</time></trkpt><trkpt lat="45.7986745" lon="12.8501715"><ele>5.8</ele><time>2026-05-05T13:18:22.266Z</time></trkpt><trkpt lat="45.7986468" lon="12.8500198"><ele>5.6</ele><time>2026-05-05T13:18:23.267Z</time></trkpt><trkpt lat="45.7986198" lon="12.8498632"><ele>5.4</ele><time>2026-05-05T13:18:24.267Z</time></trkpt><trkpt lat="45.7985942" lon="12.8497097"><ele>5.2</ele><time>2026-05-05T13:18:25.267Z</time></trkpt><trkpt lat="45.7985653" lon="12.8495519"><ele>5.0</ele><time>2026-05-05T13:18:26.267Z</time></trkpt><trkpt lat="45.7985403" lon="12.8493924"><ele>4.75</ele><time>2026-05-05T13:18:27.266Z</time></trkpt><trkpt lat="45.7985034" lon="12.8492309"><ele>4.5</ele><time>2026-05-05T13:18:28.267Z</time></trkpt><trkpt lat="45.7984708" lon="12.849067"><ele>4.25</ele><time>2026-05-05T13:18:29.266Z</time></trkpt><trkpt lat="45.7984364" lon="12.8488942"><ele>4.0</ele><time>2026-05-05T13:18:30.267Z</time></trkpt><trkpt lat="45.7984098" lon="12.848745"><ele>4.5</ele><time>2026-05-05T13:18:31.266Z</time></trkpt><trkpt lat="45.7983906" lon="12.8485929"><ele>5.0</ele><time>2026-05-05T13:18:32.266Z</time></trkpt><trkpt lat="45.7983529" lon="12.8484167"><ele>5.5</ele><time>2026-05-05T13:18:33.267Z</time></trkpt><trkpt lat="45.7983202" lon="12.848251"><ele>6.0</ele><time>2026-05-05T13:18:34.267Z</time></trkpt><trkpt lat="45.798295" lon="12.8480979"><ele>6.0</ele><time>2026-05-05T13:18:35.267Z</time></trkpt><trkpt lat="45.7982631" lon="12.8479404"><ele>6.0</ele><time>2026-05-05T13:18:36.266Z</time></trkpt><trkpt lat="45.7982406" lon="12.8477887"><ele>6.0</ele><time>2026-05-05T13:18:37.266Z</time></trkpt><trkpt lat="45.7982191" lon="12.8476239"><ele>6.0</ele><time>2026-05-05T13:18:38.267Z</time></trkpt><trkpt lat="45.7981877" lon="12.8474551"><ele>5.75</ele><time>2026-05-05T13:18:39.266Z</time></trkpt><trkpt lat="45.7981604" lon="12.8472894"><ele>5.5</ele><time>2026-05-05T13:18:40.266Z</time></trkpt><trkpt lat="45.798133" lon="12.8471329"><ele>5.25</ele><time>2026-05-05T13:18:41.267Z</time></trkpt><trkpt lat="45.7980937" lon="12.8469771"><ele>5.0</ele><time>2026-05-05T13:18:42.266Z</time></trkpt><trkpt lat="45.7980642" lon="12.8468127"><ele>4.8</ele><time>2026-05-05T13:18:43.266Z</time></trkpt><trkpt lat="45.7980353" lon="12.8466692"><ele>4.6</ele><time>2026-05-05T13:18:44.267Z</time></trkpt><trkpt lat="45.7980118" lon="12.8465159"><ele>4.4</ele><time>2026-05-05T13:18:45.267Z</time></trkpt><trkpt lat="45.797984" lon="12.8463599"><ele>4.2</ele><time>2026-05-05T13:18:46.266Z</time></trkpt><trkpt lat="45.7979543" lon="12.8461969"><ele>4.0</ele><time>2026-05-05T13:18:47.266Z</time></trkpt><trkpt lat="45.7979233" lon="12.8460365"><ele>3.6</ele><time>2026-05-05T13:18:48.266Z</time></trkpt><trkpt lat="45.7978947" lon="12.8458827"><ele>3.2</ele><time>2026-05-05T13:18:49.267Z</time></trkpt><trkpt lat="45.7978673" lon="12.8457229"><ele>2.8000000000000003</ele><time>2026-05-05T13:18:50.266Z</time></trkpt><trkpt lat="45.7978434" lon="12.845571"><ele>2.4000000000000004</ele><time>2026-05-05T13:18:51.266Z</time></trkpt><trkpt lat="45.7978133" lon="12.845417"><ele>2.0</ele><time>2026-05-05T13:18:52.266Z</time></trkpt><trkpt lat="45.7977863" lon="12.8452638"><ele>2.0</ele><time>2026-05-05T13:18:53.266Z</time></trkpt><trkpt lat="45.7977647" lon="12.8451292"><ele>2.0</ele><time>2026-05-05T13:18:54.267Z</time></trkpt><trkpt lat="45.7977366" lon="12.8449772"><ele>2.0</ele><time>2026-05-05T13:18:55.266Z</time></trkpt><trkpt lat="45.7977066" lon="12.8448332"><ele>2.0</ele><time>2026-05-05T13:18:56.266Z</time></trkpt><trkpt lat="45.7976781" lon="12.8446804"><ele>2.0</ele><time>2026-05-05T13:18:57.267Z</time></trkpt><trkpt lat="45.7976473" lon="12.8445217"><ele>2.2</ele><time>2026-05-05T13:18:58.267Z</time></trkpt><trkpt lat="45.797617" lon="12.8443762"><ele>2.4000000000000004</ele><time>2026-05-05T13:18:59.266Z</time></trkpt><trkpt lat="45.7975923" lon="12.8442325"><ele>2.5999999999999996</ele><time>2026-05-05T13:19:00.266Z</time></trkpt><trkpt lat="45.7975688" lon="12.8440987"><ele>2.8</ele><time>2026-05-05T13:19:01.266Z</time></trkpt><trkpt lat="45.797542" lon="12.8439622"><ele>3.0</ele><time>2026-05-05T13:19:02.267Z</time></trkpt><trkpt lat="45.7975129" lon="12.8438212"><ele>3.2</ele><time>2026-05-05T13:19:03.266Z</time></trkpt><trkpt lat="45.7974844" lon="12.8436762"><ele>3.4</ele><time>2026-05-05T13:19:04.266Z</time></trkpt><trkpt lat="45.7974611" lon="12.8435393"><ele>3.6000000000000005</ele><time>2026-05-05T13:19:05.266Z</time></trkpt><trkpt lat="45.7974415" lon="12.8433944"><ele>3.8000000000000003</ele><time>2026-05-05T13:19:06.267Z</time></trkpt><trkpt lat="45.7974087" lon="12.8432491"><ele>4.0</ele><time>2026-05-05T13:19:07.266Z</time></trkpt><trkpt lat="45.7973852" lon="12.8431151"><ele>4.0</ele><time>2026-05-05T13:19:08.267Z</time></trkpt><trkpt lat="45.7973579" lon="12.8429789"><ele>4.0</ele><time>2026-05-05T13:19:09.267Z</time></trkpt><trkpt lat="45.7973337" lon="12.842844"><ele>4.0</ele><time>2026-05-05T13:19:10.267Z</time></trkpt><trkpt lat="45.7973077" lon="12.8427007"><ele>4.0</ele><time>2026-05-05T13:19:11.266Z</time></trkpt><trkpt lat="45.7972806" lon="12.8425621"><ele>4.0</ele><time>2026-05-05T13:19:12.267Z</time></trkpt><trkpt lat="45.7972532" lon="12.8424214"><ele>4.0</ele><time>2026-05-05T13:19:13.266Z</time></trkpt><trkpt lat="45.7972269" lon="12.8422888"><ele>4.0</ele><time>2026-05-05T13:19:14.266Z</time></trkpt><trkpt lat="45.7971981" lon="12.8421514"><ele>4.0</ele><time>2026-05-05T13:19:15.267Z</time></trkpt><trkpt lat="45.7971715" lon="12.8420118"><ele>4.0</ele><time>2026-05-05T13:19:16.266Z</time></trkpt><trkpt lat="45.7971409" lon="12.8418913"><ele>4.0</ele><time>2026-05-05T13:19:17.266Z</time></trkpt><trkpt lat="45.7971112" lon="12.8417712"><ele>4.0</ele><time>2026-05-05T13:19:18.267Z</time></trkpt><trkpt lat="45.7970843" lon="12.8416432"><ele>4.0</ele><time>2026-05-05T13:19:19.267Z</time></trkpt><trkpt lat="45.7970505" lon="12.841515"><ele>4.0</ele><time>2026-05-05T13:19:20.267Z</time></trkpt><trkpt lat="45.7970267" lon="12.8413979"><ele>4.0</ele><time>2026-05-05T13:19:21.266Z</time></trkpt><trkpt lat="45.7969927" lon="12.8412641"><ele>4.0</ele><time>2026-05-05T13:19:22.267Z</time></trkpt><trkpt lat="45.7969632" lon="12.8411399"><ele>4.0</ele><time>2026-05-05T13:19:23.266Z</time></trkpt><trkpt lat="45.7969416" lon="12.8410302"><ele>3.9999999999999996</ele><time>2026-05-05T13:19:24.266Z</time></trkpt><trkpt lat="45.7969271" lon="12.8409389"><ele>4.0</ele><time>2026-05-05T13:19:25.267Z</time></trkpt><trkpt lat="45.7969048" lon="12.8408331"><ele>4.0</ele><time>2026-05-05T13:19:26.267Z</time></trkpt><trkpt lat="45.7968833" lon="12.840729"><ele>3.9999999999999996</ele><time>2026-05-05T13:19:27.267Z</time></trkpt><trkpt lat="45.7968677" lon="12.8406387"><ele>4.0</ele><time>2026-05-05T13:19:28.266Z</time></trkpt><trkpt lat="45.7968476" lon="12.8405448"><ele>4.0</ele><time>2026-05-05T13:19:29.267Z</time></trkpt><trkpt lat="45.7968238" lon="12.8404462"><ele>4.0</ele><time>2026-05-05T13:19:30.266Z</time></trkpt><trkpt lat="45.7967831" lon="12.8402799"><ele>4.0</ele><time>2026-05-05T13:19:32.266Z</time></trkpt><trkpt lat="45.7967497" lon="12.8401241"><ele>4.0</ele><time>2026-05-05T13:19:34.266Z</time></trkpt><trkpt lat="45.7967181" lon="12.8400173"><ele>4.0</ele><time>2026-05-05T13:19:36.266Z</time></trkpt><trkpt lat="45.7966962" lon="12.8399078"><ele>4.0</ele><time>2026-05-05T13:19:38.267Z</time></trkpt><trkpt lat="45.7966749" lon="12.8397972"><ele>4.0</ele><time>2026-05-05T13:19:40.267Z</time></trkpt><trkpt lat="45.7966309" lon="12.8396479"><ele>4.0</ele><time>2026-05-05T13:19:42.267Z</time></trkpt><trkpt lat="45.7965844" lon="12.8395197"><ele>4.0</ele><time>2026-05-05T13:19:44.266Z</time></trkpt><trkpt lat="45.7965577" lon="12.839408"><ele>4.0</ele><time>2026-05-05T13:19:46.266Z</time></trkpt><trkpt lat="45.7965286" lon="12.8392564"><ele>4.0</ele><time>2026-05-05T13:19:48.267Z</time></trkpt><trkpt lat="45.7965084" lon="12.8391573"><ele>3.833333333333333</ele><time>2026-05-05T13:19:49.266Z</time></trkpt><trkpt lat="45.7964792" lon="12.8390351"><ele>3.6666666666666665</ele><time>2026-05-05T13:19:50.267Z</time></trkpt><trkpt lat="45.7964519" lon="12.8389255"><ele>3.5</ele><time>2026-05-05T13:19:51.266Z</time></trkpt><trkpt lat="45.7964324" lon="12.8388164"><ele>3.333333333333333</ele><time>2026-05-05T13:19:52.267Z</time></trkpt><trkpt lat="45.7964045" lon="12.8387023"><ele>3.1666666666666665</ele><time>2026-05-05T13:19:53.267Z</time></trkpt><trkpt lat="45.7963794" lon="12.838601"><ele>3.0</ele><time>2026-05-05T13:19:54.267Z</time></trkpt><trkpt lat="45.7963462" lon="12.8384759"><ele>2.8333333333333335</ele><time>2026-05-05T13:19:56.266Z</time></trkpt><trkpt lat="45.7963246" lon="12.8383863"><ele>2.6666666666666665</ele><time>2026-05-05T13:19:59.267Z</time></trkpt><trkpt lat="45.7962916" lon="12.8382789"><ele>2.5</ele><time>2026-05-05T13:20:03.267Z</time></trkpt><trkpt lat="45.7962387" lon="12.8381324"><ele>2.333333333333333</ele><time>2026-05-05T13:20:05.267Z</time></trkpt><trkpt lat="45.7962134" lon="12.8380373"><ele>2.1666666666666665</ele><time>2026-05-05T13:20:06.266Z</time></trkpt><trkpt lat="45.7961858" lon="12.8378857"><ele>2.0</ele><time>2026-05-05T13:20:08.266Z</time></trkpt><trkpt lat="45.7961588" lon="12.8377717"><ele>1.9999999999999998</ele><time>2026-05-05T13:20:10.266Z</time></trkpt><trkpt lat="45.7961395" lon="12.8376663"><ele>2.0</ele><time>2026-05-05T13:20:13.267Z</time></trkpt><trkpt lat="45.7961253" lon="12.8375768"><ele>2.0</ele><time>2026-05-05T13:20:16.267Z</time></trkpt><trkpt lat="45.7960831" lon="12.8374857"><ele>2.0</ele><time>2026-05-05T13:21:33.267Z</time></trkpt><trkpt lat="45.7960303" lon="12.8373447"><ele>1.9999999999999998</ele><time>2026-05-05T13:21:35.266Z</time></trkpt><trkpt lat="45.796001" lon="12.8372597"><ele>2.0</ele><time>2026-05-05T13:21:36.267Z</time></trkpt><trkpt lat="45.795956" lon="12.8371213"><ele>1.9999999999999998</ele><time>2026-05-05T13:21:38.266Z</time></trkpt><trkpt lat="45.7959177" lon="12.8369911"><ele>2.0</ele><time>2026-05-05T13:21:40.267Z</time></trkpt><trkpt lat="45.7958857" lon="12.8368861"><ele>2.0</ele><time>2026-05-05T13:21:42.267Z</time></trkpt><trkpt lat="45.7958554" lon="12.8367758"><ele>2.0</ele><time>2026-05-05T13:21:44.267Z</time></trkpt><trkpt lat="45.7958281" lon="12.8366781"><ele>1.9999999999999998</ele><time>2026-05-05T13:21:46.266Z</time></trkpt><trkpt lat="45.7958015" lon="12.8365865"><ele>2.0</ele><time>2026-05-05T13:21:48.267Z</time></trkpt><trkpt lat="45.7957703" lon="12.8364748"><ele>1.9999999999999998</ele><time>2026-05-05T13:21:50.267Z</time></trkpt><trkpt lat="45.7957426" lon="12.8363742"><ele>2.0</ele><time>2026-05-05T13:21:52.266Z</time></trkpt><trkpt lat="45.7957151" lon="12.8362869"><ele>2.0</ele><time>2026-05-05T13:21:54.267Z</time></trkpt><trkpt lat="45.7956902" lon="12.8361837"><ele>2.0</ele><time>2026-05-05T13:21:57.267Z</time></trkpt><trkpt lat="45.7956607" lon="12.8360629"><ele>1.9999999999999998</ele><time>2026-05-05T13:22:00.267Z</time></trkpt><trkpt lat="45.7956325" lon="12.835955"><ele>2.0</ele><time>2026-05-05T13:22:02.267Z</time></trkpt><trkpt lat="45.7955937" lon="12.8358289"><ele>1.8</ele><time>2026-05-05T13:22:04.266Z</time></trkpt><trkpt lat="45.7955549" lon="12.835698"><ele>1.6</ele><time>2026-05-05T13:22:06.266Z</time></trkpt><trkpt lat="45.7955138" lon="12.8355638"><ele>1.4000000000000001</ele><time>2026-05-05T13:22:08.267Z</time></trkpt><trkpt lat="45.7954732" lon="12.8354382"><ele>1.2000000000000002</ele><time>2026-05-05T13:22:10.266Z</time></trkpt><trkpt lat="45.795441" lon="12.835313"><ele>1.0</ele><time>2026-05-05T13:22:12.266Z</time></trkpt><trkpt lat="45.7953967" lon="12.8351587"><ele>0.8333333333333333</ele><time>2026-05-05T13:22:14.267Z</time></trkpt><trkpt lat="45.7953697" lon="12.8350703"><ele>0.6666666666666666</ele><time>2026-05-05T13:22:15.267Z</time></trkpt><trkpt lat="45.7953366" lon="12.8349729"><ele>0.5</ele><time>2026-05-05T13:22:16.267Z</time></trkpt><trkpt lat="45.7953034" lon="12.8348673"><ele>0.3333333333333333</ele><time>2026-05-05T13:22:17.267Z</time></trkpt><trkpt lat="45.7952652" lon="12.834746"><ele>0.16666666666666666</ele><time>2026-05-05T13:22:18.266Z</time></trkpt><trkpt lat="45.7952193" lon="12.8346258"><ele>0.0</ele><time>2026-05-05T13:22:19.267Z</time></trkpt><trkpt lat="45.7951727" lon="12.8345042"><ele>0.0</ele><time>2026-05-05T13:22:20.266Z</time></trkpt><trkpt lat="45.7951351" lon="12.8343974"><ele>0.0</ele><time>2026-05-05T13:22:21.267Z</time></trkpt><trkpt lat="45.7951019" lon="12.8342887"><ele>0.0</ele><time>2026-05-05T13:22:22.267Z</time></trkpt><trkpt lat="45.7950683" lon="12.8341826"><ele>0.0</ele><time>2026-05-05T13:22:23.267Z</time></trkpt><trkpt lat="45.7950275" lon="12.8340746"><ele>0.0</ele><time>2026-05-05T13:22:24.266Z</time></trkpt><trkpt lat="45.7949732" lon="12.8339532"><ele>0.0</ele><time>2026-05-05T13:22:25.266Z</time></trkpt><trkpt lat="45.7949164" lon="12.8338057"><ele>0.0</ele><time>2026-05-05T13:22:26.266Z</time></trkpt><trkpt lat="45.794854" lon="12.8336437"><ele>0.0</ele><time>2026-05-05T13:22:27.266Z</time></trkpt><trkpt lat="45.7948008" lon="12.8334704"><ele>0.0</ele><time>2026-05-05T13:22:28.266Z</time></trkpt><trkpt lat="45.7947429" lon="12.8332881"><ele>0.0</ele><time>2026-05-05T13:22:29.267Z</time></trkpt><trkpt lat="45.7946822" lon="12.8330984"><ele>0.5</ele><time>2026-05-05T13:22:30.266Z</time></trkpt><trkpt lat="45.7946249" lon="12.8329124"><ele>1.0</ele><time>2026-05-05T13:22:31.266Z</time></trkpt><trkpt lat="45.794561" lon="12.8327187"><ele>1.5</ele><time>2026-05-05T13:22:32.266Z</time></trkpt><trkpt lat="45.794501" lon="12.8325311"><ele>2.0</ele><time>2026-05-05T13:22:33.267Z</time></trkpt><trkpt lat="45.7944374" lon="12.8323401"><ele>2.5</ele><time>2026-05-05T13:22:34.267Z</time></trkpt><trkpt lat="45.7943762" lon="12.8321487"><ele>3.0</ele><time>2026-05-05T13:22:35.267Z</time></trkpt><trkpt lat="45.7943145" lon="12.831956"><ele>3.5</ele><time>2026-05-05T13:22:36.267Z</time></trkpt><trkpt lat="45.7942531" lon="12.8317661"><ele>4.0</ele><time>2026-05-05T13:22:37.267Z</time></trkpt><trkpt lat="45.7941933" lon="12.831578"><ele>4.0</ele><time>2026-05-05T13:22:38.266Z</time></trkpt><trkpt lat="45.7941336" lon="12.8313914"><ele>4.0</ele><time>2026-05-05T13:22:39.267Z</time></trkpt><trkpt lat="45.79407" lon="12.8311992"><ele>4.0</ele><time>2026-05-05T13:22:40.266Z</time></trkpt><trkpt lat="45.7940091" lon="12.8310134"><ele>4.0</ele><time>2026-05-05T13:22:41.267Z</time></trkpt><trkpt lat="45.793951" lon="12.8308236"><ele>4.0</ele><time>2026-05-05T13:22:42.266Z</time></trkpt><trkpt lat="45.7938939" lon="12.8306405"><ele>4.0</ele><time>2026-05-05T13:22:43.266Z</time></trkpt><trkpt lat="45.7938382" lon="12.8304542"><ele>4.0</ele><time>2026-05-05T13:22:44.266Z</time></trkpt><trkpt lat="45.7937773" lon="12.8302618"><ele>4.0</ele><time>2026-05-05T13:22:45.267Z</time></trkpt><trkpt lat="45.7937156" lon="12.8300673"><ele>4.333333333333333</ele><time>2026-05-05T13:22:46.267Z</time></trkpt><trkpt lat="45.7936516" lon="12.8298676"><ele>4.666666666666667</ele><time>2026-05-05T13:22:47.266Z</time></trkpt><trkpt lat="45.7935884" lon="12.8296704"><ele>5.0</ele><time>2026-05-05T13:22:48.267Z</time></trkpt><trkpt lat="45.7935237" lon="12.8294732"><ele>5.333333333333334</ele><time>2026-05-05T13:22:49.266Z</time></trkpt><trkpt lat="45.7934568" lon="12.8292687"><ele>5.666666666666667</ele><time>2026-05-05T13:22:50.267Z</time></trkpt><trkpt lat="45.7933917" lon="12.8290639"><ele>6.0</ele><time>2026-05-05T13:22:51.267Z</time></trkpt><trkpt lat="45.7933245" lon="12.8288531"><ele>6.0</ele><time>2026-05-05T13:22:52.267Z</time></trkpt><trkpt lat="45.7932561" lon="12.8286395"><ele>6.0</ele><time>2026-05-05T13:22:53.267Z</time></trkpt><trkpt lat="45.7931855" lon="12.8284278"><ele>6.0</ele><time>2026-05-05T13:22:54.267Z</time></trkpt><trkpt lat="45.793115" lon="12.8282151"><ele>6.333333333333334</ele><time>2026-05-05T13:22:55.266Z</time></trkpt><trkpt lat="45.7930457" lon="12.8280005"><ele>6.666666666666667</ele><time>2026-05-05T13:22:56.267Z</time></trkpt><trkpt lat="45.792975" lon="12.8277847"><ele>7.0</ele><time>2026-05-05T13:22:57.266Z</time></trkpt><trkpt lat="45.7929031" lon="12.8275551"><ele>7.0</ele><time>2026-05-05T13:22:58.266Z</time></trkpt><trkpt lat="45.7928301" lon="12.8273202"><ele>7.0</ele><time>2026-05-05T13:22:59.266Z</time></trkpt><trkpt lat="45.7927603" lon="12.8270927"><ele>7.0</ele><time>2026-05-05T13:23:00.266Z</time></trkpt><trkpt lat="45.7926872" lon="12.8268643"><ele>6.333333333333334</ele><time>2026-05-05T13:23:01.267Z</time></trkpt><trkpt lat="45.7926181" lon="12.8266412"><ele>5.666666666666667</ele><time>2026-05-05T13:23:02.266Z</time></trkpt><trkpt lat="45.7925433" lon="12.8264101"><ele>5.0</ele><time>2026-05-05T13:23:03.266Z</time></trkpt><trkpt lat="45.7924655" lon="12.8261714"><ele>4.666666666666667</ele><time>2026-05-05T13:23:04.267Z</time></trkpt><trkpt lat="45.7923893" lon="12.8259341"><ele>4.333333333333333</ele><time>2026-05-05T13:23:05.266Z</time></trkpt><trkpt lat="45.7923146" lon="12.8256888"><ele>4.0</ele><time>2026-05-05T13:23:06.267Z</time></trkpt><trkpt lat="45.792234" lon="12.8254316"><ele>4.0</ele><time>2026-05-05T13:23:07.266Z</time></trkpt><trkpt lat="45.7921515" lon="12.8251721"><ele>4.0</ele><time>2026-05-05T13:23:08.267Z</time></trkpt><trkpt lat="45.7920595" lon="12.8249031"><ele>4.0</ele><time>2026-05-05T13:23:09.267Z</time></trkpt><trkpt lat="45.7919759" lon="12.8246258"><ele>4.333333333333333</ele><time>2026-05-05T13:23:10.266Z</time></trkpt><trkpt lat="45.7918959" lon="12.8243501"><ele>4.666666666666667</ele><time>2026-05-05T13:23:11.266Z</time></trkpt><trkpt lat="45.7918156" lon="12.8240707"><ele>5.0</ele><time>2026-05-05T13:23:12.267Z</time></trkpt><trkpt lat="45.7917352" lon="12.8237874"><ele>5.666666666666667</ele><time>2026-05-05T13:23:13.267Z</time></trkpt><trkpt lat="45.7916532" lon="12.8234994"><ele>6.333333333333334</ele><time>2026-05-05T13:23:14.266Z</time></trkpt><trkpt lat="45.7915721" lon="12.8232093"><ele>7.0</ele><time>2026-05-05T13:23:15.266Z</time></trkpt><trkpt lat="45.7914933" lon="12.8229248"><ele>7.666666666666667</ele><time>2026-05-05T13:23:16.267Z</time></trkpt><trkpt lat="45.7914192" lon="12.8226379"><ele>8.333333333333334</ele><time>2026-05-05T13:23:17.266Z</time></trkpt><trkpt lat="45.7913477" lon="12.8223582"><ele>9.0</ele><time>2026-05-05T13:23:18.267Z</time></trkpt><trkpt lat="45.7912723" lon="12.8220774"><ele>10.0</ele><time>2026-05-05T13:23:19.267Z</time></trkpt><trkpt lat="45.7911967" lon="12.8217962"><ele>11.0</ele><time>2026-05-05T13:23:20.266Z</time></trkpt><trkpt lat="45.7911248" lon="12.8215133"><ele>12.0</ele><time>2026-05-05T13:23:21.267Z</time></trkpt><trkpt lat="45.7910588" lon="12.8212441"><ele>10.666666666666666</ele><time>2026-05-05T13:23:22.267Z</time></trkpt><trkpt lat="45.7909862" lon="12.8209521"><ele>9.333333333333332</ele><time>2026-05-05T13:23:23.266Z</time></trkpt><trkpt lat="45.7909137" lon="12.8206771"><ele>8.0</ele><time>2026-05-05T13:23:24.266Z</time></trkpt><trkpt lat="45.7908429" lon="12.8203936"><ele>7.0</ele><time>2026-05-05T13:23:25.266Z</time></trkpt><trkpt lat="45.7907715" lon="12.8201082"><ele>6.0</ele><time>2026-05-05T13:23:26.267Z</time></trkpt><trkpt lat="45.7907018" lon="12.8198267"><ele>5.0</ele><time>2026-05-05T13:23:27.267Z</time></trkpt><trkpt lat="45.7906349" lon="12.8195357"><ele>4.666666666666667</ele><time>2026-05-05T13:23:28.267Z</time></trkpt><trkpt lat="45.7905679" lon="12.8192482"><ele>4.333333333333333</ele><time>2026-05-05T13:23:29.267Z</time></trkpt><trkpt lat="45.7905013" lon="12.8189651"><ele>4.0</ele><time>2026-05-05T13:23:30.266Z</time></trkpt><trkpt lat="45.7904383" lon="12.8186799"><ele>5.666666666666666</ele><time>2026-05-05T13:23:31.267Z</time></trkpt><trkpt lat="45.79038" lon="12.8183995"><ele>7.333333333333333</ele><time>2026-05-05T13:23:32.266Z</time></trkpt><trkpt lat="45.7903164" lon="12.8181186"><ele>9.0</ele><time>2026-05-05T13:23:33.266Z</time></trkpt><trkpt lat="45.7902573" lon="12.8178385"><ele>9.333333333333334</ele><time>2026-05-05T13:23:34.267Z</time></trkpt><trkpt lat="45.7902016" lon="12.8175575"><ele>9.666666666666668</ele><time>2026-05-05T13:23:35.267Z</time></trkpt><trkpt lat="45.7901401" lon="12.8172713"><ele>10.0</ele><time>2026-05-05T13:23:36.267Z</time></trkpt><trkpt lat="45.7900838" lon="12.8169835"><ele>8.666666666666668</ele><time>2026-05-05T13:23:37.266Z</time></trkpt><trkpt lat="45.7900283" lon="12.8167002"><ele>7.333333333333334</ele><time>2026-05-05T13:23:38.267Z</time></trkpt><trkpt lat="45.7899712" lon="12.8164167"><ele>6.0</ele><time>2026-05-05T13:23:39.267Z</time></trkpt><trkpt lat="45.7899173" lon="12.8161269"><ele>6.0</ele><time>2026-05-05T13:23:40.267Z</time></trkpt><trkpt lat="45.7898649" lon="12.8158418"><ele>6.0</ele><time>2026-05-05T13:23:41.267Z</time></trkpt><trkpt lat="45.7898167" lon="12.8155643"><ele>6.0</ele><time>2026-05-05T13:23:42.266Z</time></trkpt><trkpt lat="45.7897628" lon="12.8152707"><ele>5.666666666666667</ele><time>2026-05-05T13:23:43.266Z</time></trkpt><trkpt lat="45.7897123" lon="12.8149755"><ele>5.333333333333334</ele><time>2026-05-05T13:23:44.266Z</time></trkpt><trkpt lat="45.7896602" lon="12.8146759"><ele>5.0</ele><time>2026-05-05T13:23:45.266Z</time></trkpt><trkpt lat="45.7896071" lon="12.8143756"><ele>5.0</ele><time>2026-05-05T13:23:46.267Z</time></trkpt><trkpt lat="45.7895565" lon="12.8140796"><ele>5.0</ele><time>2026-05-05T13:23:47.266Z</time></trkpt><trkpt lat="45.7895074" lon="12.8137803"><ele>5.0</ele><time>2026-05-05T13:23:48.267Z</time></trkpt><trkpt lat="45.7894612" lon="12.8134748"><ele>5.0</ele><time>2026-05-05T13:23:49.267Z</time></trkpt><trkpt lat="45.7894151" lon="12.8131705"><ele>5.0</ele><time>2026-05-05T13:23:50.267Z</time></trkpt><trkpt lat="45.7893639" lon="12.8128633"><ele>5.0</ele><time>2026-05-05T13:23:51.267Z</time></trkpt><trkpt lat="45.789318" lon="12.8125529"><ele>4.666666666666667</ele><time>2026-05-05T13:23:52.267Z</time></trkpt><trkpt lat="45.7892719" lon="12.8122408"><ele>4.333333333333333</ele><time>2026-05-05T13:23:53.266Z</time></trkpt><trkpt lat="45.7892309" lon="12.8119267"><ele>4.0</ele><time>2026-05-05T13:23:54.267Z</time></trkpt><trkpt lat="45.7891899" lon="12.811603"><ele>2.5</ele><time>2026-05-05T13:23:55.267Z</time></trkpt><trkpt lat="45.789146" lon="12.8112727"><ele>1.0</ele><time>2026-05-05T13:23:56.266Z</time></trkpt><trkpt lat="45.7891024" lon="12.8109387"><ele>0.0</ele><time>2026-05-05T13:23:57.266Z</time></trkpt><trkpt lat="45.7890588" lon="12.8105958"><ele>-1.0</ele><time>2026-05-05T13:23:58.267Z</time></trkpt><trkpt lat="45.7890217" lon="12.8102621"><ele>-1.0</ele><time>2026-05-05T13:23:59.267Z</time></trkpt><trkpt lat="45.7889802" lon="12.8099187"><ele>-1.0</ele><time>2026-05-05T13:24:00.266Z</time></trkpt><trkpt lat="45.7889331" lon="12.8095737"><ele>-0.5</ele><time>2026-05-05T13:24:01.267Z</time></trkpt><trkpt lat="45.7888873" lon="12.8092298"><ele>0.0</ele><time>2026-05-05T13:24:02.267Z</time></trkpt><trkpt lat="45.7888404" lon="12.8088793"><ele>0.0</ele><time>2026-05-05T13:24:03.267Z</time></trkpt><trkpt lat="45.7887946" lon="12.8085296"><ele>0.0</ele><time>2026-05-05T13:24:04.267Z</time></trkpt><trkpt lat="45.7887488" lon="12.8081798"><ele>-1.0</ele><time>2026-05-05T13:24:05.266Z</time></trkpt><trkpt lat="45.7887083" lon="12.8078365"><ele>-2.0</ele><time>2026-05-05T13:24:06.267Z</time></trkpt><trkpt lat="45.7886631" lon="12.8074893"><ele>-2.0</ele><time>2026-05-05T13:24:07.266Z</time></trkpt><trkpt lat="45.7886192" lon="12.8071471"><ele>-2.0</ele><time>2026-05-05T13:24:08.267Z</time></trkpt><trkpt lat="45.7885797" lon="12.8068026"><ele>-1.0</ele><time>2026-05-05T13:24:09.267Z</time></trkpt><trkpt lat="45.7885361" lon="12.8064544"><ele>0.0</ele><time>2026-05-05T13:24:10.266Z</time></trkpt><trkpt lat="45.7884934" lon="12.8061073"><ele>1.0</ele><time>2026-05-05T13:24:11.267Z</time></trkpt><trkpt lat="45.7884517" lon="12.8057684"><ele>2.0</ele><time>2026-05-05T13:24:12.266Z</time></trkpt><trkpt lat="45.7884074" lon="12.8054227"><ele>1.5</ele><time>2026-05-05T13:24:13.266Z</time></trkpt><trkpt lat="45.7883606" lon="12.8050751"><ele>1.0</ele><time>2026-05-05T13:24:14.267Z</time></trkpt><trkpt lat="45.7883134" lon="12.8047337"><ele>1.0</ele><time>2026-05-05T13:24:15.266Z</time></trkpt><trkpt lat="45.7882677" lon="12.8043868"><ele>1.0</ele><time>2026-05-05T13:24:16.267Z</time></trkpt><trkpt lat="45.788216" lon="12.8040398"><ele>0.0</ele><time>2026-05-05T13:24:17.267Z</time></trkpt><trkpt lat="45.7881705" lon="12.8036903"><ele>-1.0</ele><time>2026-05-05T13:24:18.266Z</time></trkpt><trkpt lat="45.78812" lon="12.8033422"><ele>-1.0</ele><time>2026-05-05T13:24:19.267Z</time></trkpt><trkpt lat="45.7880702" lon="12.8030002"><ele>-1.0</ele><time>2026-05-05T13:24:20.267Z</time></trkpt><trkpt lat="45.7880187" lon="12.8026536"><ele>0.0</ele><time>2026-05-05T13:24:21.267Z</time></trkpt><trkpt lat="45.7879647" lon="12.8023049"><ele>1.0</ele><time>2026-05-05T13:24:22.267Z</time></trkpt><trkpt lat="45.7879092" lon="12.8019499"><ele>1.5</ele><time>2026-05-05T13:24:23.266Z</time></trkpt><trkpt lat="45.7878501" lon="12.8015937"><ele>2.0</ele><time>2026-05-05T13:24:24.267Z</time></trkpt><trkpt lat="45.7877917" lon="12.8012341"><ele>2.0</ele><time>2026-05-05T13:24:25.267Z</time></trkpt><trkpt lat="45.7877282" lon="12.8008705"><ele>2.0</ele><time>2026-05-05T13:24:26.266Z</time></trkpt><trkpt lat="45.7876668" lon="12.8005092"><ele>2.5</ele><time>2026-05-05T13:24:27.266Z</time></trkpt><trkpt lat="45.7876043" lon="12.8001481"><ele>3.0</ele><time>2026-05-05T13:24:28.266Z</time></trkpt><trkpt lat="45.7875369" lon="12.799787"><ele>3.0</ele><time>2026-05-05T13:24:29.267Z</time></trkpt><trkpt lat="45.7874687" lon="12.7994234"><ele>3.0</ele><time>2026-05-05T13:24:30.267Z</time></trkpt><trkpt lat="45.7873955" lon="12.799057"><ele>3.0</ele><time>2026-05-05T13:24:31.267Z</time></trkpt><trkpt lat="45.7873235" lon="12.7986931"><ele>3.0</ele><time>2026-05-05T13:24:32.266Z</time></trkpt><trkpt lat="45.7872587" lon="12.7983298"><ele>2.5</ele><time>2026-05-05T13:24:33.267Z</time></trkpt><trkpt lat="45.787183" lon="12.7979581"><ele>2.0</ele><time>2026-05-05T13:24:34.267Z</time></trkpt><trkpt lat="45.7871116" lon="12.7975886"><ele>2.0</ele><time>2026-05-05T13:24:35.267Z</time></trkpt><trkpt lat="45.7870334" lon="12.7972179"><ele>2.0</ele><time>2026-05-05T13:24:36.267Z</time></trkpt><trkpt lat="45.7869512" lon="12.7968509"><ele>2.5</ele><time>2026-05-05T13:24:37.267Z</time></trkpt><trkpt lat="45.7868695" lon="12.7964865"><ele>3.0</ele><time>2026-05-05T13:24:38.267Z</time></trkpt><trkpt lat="45.7867851" lon="12.796129"><ele>4.0</ele><time>2026-05-05T13:24:39.266Z</time></trkpt><trkpt lat="45.7867079" lon="12.7957741"><ele>5.0</ele><time>2026-05-05T13:24:40.267Z</time></trkpt><trkpt lat="45.786629" lon="12.7954116"><ele>5.0</ele><time>2026-05-05T13:24:41.267Z</time></trkpt><trkpt lat="45.7865464" lon="12.7950403"><ele>5.0</ele><time>2026-05-05T13:24:42.267Z</time></trkpt><trkpt lat="45.7864634" lon="12.7946727"><ele>5.5</ele><time>2026-05-05T13:24:43.266Z</time></trkpt><trkpt lat="45.7863744" lon="12.7943052"><ele>6.0</ele><time>2026-05-05T13:24:44.266Z</time></trkpt><trkpt lat="45.7862856" lon="12.7939403"><ele>6.0</ele><time>2026-05-05T13:24:45.267Z</time></trkpt><trkpt lat="45.7861905" lon="12.793578"><ele>6.0</ele><time>2026-05-05T13:24:46.266Z</time></trkpt><trkpt lat="45.7860986" lon="12.7932147"><ele>6.0</ele><time>2026-05-05T13:24:47.266Z</time></trkpt><trkpt lat="45.7860046" lon="12.7928476"><ele>6.0</ele><time>2026-05-05T13:24:48.267Z</time></trkpt><trkpt lat="45.7859131" lon="12.7924795"><ele>6.0</ele><time>2026-05-05T13:24:49.267Z</time></trkpt><trkpt lat="45.7858183" lon="12.792125"><ele>6.0</ele><time>2026-05-05T13:24:50.267Z</time></trkpt><trkpt lat="45.78572" lon="12.7917597"><ele>5.0</ele><time>2026-05-05T13:24:51.267Z</time></trkpt><trkpt lat="45.7856232" lon="12.7913947"><ele>4.0</ele><time>2026-05-05T13:24:52.267Z</time></trkpt><trkpt lat="45.7855231" lon="12.7910259"><ele>4.5</ele><time>2026-05-05T13:24:53.267Z</time></trkpt><trkpt lat="45.7854205" lon="12.7906542"><ele>5.0</ele><time>2026-05-05T13:24:54.266Z</time></trkpt><trkpt lat="45.7853142" lon="12.7902813"><ele>5.0</ele><time>2026-05-05T13:24:55.266Z</time></trkpt><trkpt lat="45.7852077" lon="12.7899111"><ele>5.0</ele><time>2026-05-05T13:24:56.267Z</time></trkpt><trkpt lat="45.7850987" lon="12.7895395"><ele>5.0</ele><time>2026-05-05T13:24:57.267Z</time></trkpt><trkpt lat="45.7849906" lon="12.7891726"><ele>5.0</ele><time>2026-05-05T13:24:58.267Z</time></trkpt><trkpt lat="45.7848823" lon="12.7888073"><ele>4.5</ele><time>2026-05-05T13:24:59.266Z</time></trkpt><trkpt lat="45.7847727" lon="12.788446"><ele>4.0</ele><time>2026-05-05T13:25:00.266Z</time></trkpt><trkpt lat="45.7846626" lon="12.7880782"><ele>4.0</ele><time>2026-05-05T13:25:01.266Z</time></trkpt><trkpt lat="45.7845473" lon="12.7877087"><ele>4.0</ele><time>2026-05-05T13:25:02.267Z</time></trkpt><trkpt lat="45.7844328" lon="12.7873388"><ele>3.5</ele><time>2026-05-05T13:25:03.266Z</time></trkpt><trkpt lat="45.7843144" lon="12.7869697"><ele>3.0</ele><time>2026-05-05T13:25:04.266Z</time></trkpt><trkpt lat="45.7841983" lon="12.7866014"><ele>4.0</ele><time>2026-05-05T13:25:05.266Z</time></trkpt><trkpt lat="45.7840773" lon="12.7862342"><ele>5.0</ele><time>2026-05-05T13:25:06.266Z</time></trkpt><trkpt lat="45.7839551" lon="12.7858674"><ele>5.0</ele><time>2026-05-05T13:25:07.267Z</time></trkpt><trkpt lat="45.7838349" lon="12.7855143"><ele>5.0</ele><time>2026-05-05T13:25:08.266Z</time></trkpt><trkpt lat="45.7837096" lon="12.7851552"><ele>5.0</ele><time>2026-05-05T13:25:09.267Z</time></trkpt><trkpt lat="45.7835889" lon="12.7847919"><ele>5.0</ele><time>2026-05-05T13:25:10.267Z</time></trkpt><trkpt lat="45.7834699" lon="12.7844355"><ele>4.5</ele><time>2026-05-05T13:25:11.266Z</time></trkpt><trkpt lat="45.7833476" lon="12.7840759"><ele>4.0</ele><time>2026-05-05T13:25:12.266Z</time></trkpt><trkpt lat="45.783227" lon="12.7837194"><ele>4.5</ele><time>2026-05-05T13:25:13.267Z</time></trkpt><trkpt lat="45.7830984" lon="12.7833579"><ele>5.0</ele><time>2026-05-05T13:25:14.267Z</time></trkpt><trkpt lat="45.7829729" lon="12.7830006"><ele>4.5</ele><time>2026-05-05T13:25:15.267Z</time></trkpt><trkpt lat="45.7828442" lon="12.7826491"><ele>4.0</ele><time>2026-05-05T13:25:16.267Z</time></trkpt><trkpt lat="45.7827106" lon="12.7822897"><ele>4.0</ele><time>2026-05-05T13:25:17.266Z</time></trkpt><trkpt lat="45.7825719" lon="12.7819303"><ele>4.0</ele><time>2026-05-05T13:25:18.267Z</time></trkpt><trkpt lat="45.7824347" lon="12.7815719"><ele>4.0</ele><time>2026-05-05T13:25:19.266Z</time></trkpt><trkpt lat="45.7822975" lon="12.7812179"><ele>4.0</ele><time>2026-05-05T13:25:20.267Z</time></trkpt><trkpt lat="45.7821563" lon="12.7808566"><ele>4.0</ele><time>2026-05-05T13:25:21.267Z</time></trkpt><trkpt lat="45.7820133" lon="12.7804989"><ele>4.0</ele><time>2026-05-05T13:25:22.267Z</time></trkpt><trkpt lat="45.7818631" lon="12.7801408"><ele>4.5</ele><time>2026-05-05T13:25:23.267Z</time></trkpt><trkpt lat="45.7817132" lon="12.7797815"><ele>5.0</ele><time>2026-05-05T13:25:24.267Z</time></trkpt><trkpt lat="45.7815624" lon="12.7794234"><ele>6.0</ele><time>2026-05-05T13:25:25.267Z</time></trkpt><trkpt lat="45.781407" lon="12.7790683"><ele>7.0</ele><time>2026-05-05T13:25:26.267Z</time></trkpt><trkpt lat="45.7812523" lon="12.7787166"><ele>8.0</ele><time>2026-05-05T13:25:27.267Z</time></trkpt><trkpt lat="45.7810957" lon="12.7783542"><ele>9.0</ele><time>2026-05-05T13:25:28.267Z</time></trkpt><trkpt lat="45.7809316" lon="12.7779927"><ele>6.5</ele><time>2026-05-05T13:25:29.267Z</time></trkpt><trkpt lat="45.7807672" lon="12.777627"><ele>4.0</ele><time>2026-05-05T13:25:30.267Z</time></trkpt><trkpt lat="45.7805904" lon="12.7772562"><ele>4.0</ele><time>2026-05-05T13:25:31.266Z</time></trkpt><trkpt lat="45.780412" lon="12.7768899"><ele>4.0</ele><time>2026-05-05T13:25:32.266Z</time></trkpt><trkpt lat="45.7802366" lon="12.7765188"><ele>3.5</ele><time>2026-05-05T13:25:33.267Z</time></trkpt><trkpt lat="45.7800576" lon="12.7761484"><ele>3.0</ele><time>2026-05-05T13:25:34.266Z</time></trkpt><trkpt lat="45.7798762" lon="12.7757821"><ele>2.5</ele><time>2026-05-05T13:25:35.267Z</time></trkpt><trkpt lat="45.7796993" lon="12.775415"><ele>2.0</ele><time>2026-05-05T13:25:36.267Z</time></trkpt><trkpt lat="45.7795243" lon="12.7750536"><ele>2.0</ele><time>2026-05-05T13:25:37.267Z</time></trkpt><trkpt lat="45.7793466" lon="12.7746935"><ele>2.0</ele><time>2026-05-05T13:25:38.266Z</time></trkpt><trkpt lat="45.7791708" lon="12.7743431"><ele>2.5</ele><time>2026-05-05T13:25:39.267Z</time></trkpt><trkpt lat="45.7789916" lon="12.7739929"><ele>3.0</ele><time>2026-05-05T13:25:40.267Z</time></trkpt><trkpt lat="45.7788162" lon="12.7736494"><ele>2.5</ele><time>2026-05-05T13:25:41.266Z</time></trkpt><trkpt lat="45.7786419" lon="12.7732974"><ele>2.0</ele><time>2026-05-05T13:25:42.266Z</time></trkpt><trkpt lat="45.7784616" lon="12.7729628"><ele>1.5</ele><time>2026-05-05T13:25:43.267Z</time></trkpt><trkpt lat="45.7782865" lon="12.7726308"><ele>1.0</ele><time>2026-05-05T13:25:44.266Z</time></trkpt><trkpt lat="45.778113" lon="12.7723013"><ele>1.0</ele><time>2026-05-05T13:25:45.266Z</time></trkpt><trkpt lat="45.7779368" lon="12.7719767"><ele>1.0</ele><time>2026-05-05T13:25:46.266Z</time></trkpt><trkpt lat="45.7777648" lon="12.7716611"><ele>0.5</ele><time>2026-05-05T13:25:47.267Z</time></trkpt><trkpt lat="45.7775934" lon="12.7713431"><ele>0.0</ele><time>2026-05-05T13:25:48.267Z</time></trkpt><trkpt lat="45.7774225" lon="12.7710315"><ele>0.0</ele><time>2026-05-05T13:25:49.266Z</time></trkpt><trkpt lat="45.7772561" lon="12.770723"><ele>0.0</ele><time>2026-05-05T13:25:50.267Z</time></trkpt><trkpt lat="45.777092" lon="12.7704168"><ele>1.0</ele><time>2026-05-05T13:25:51.267Z</time></trkpt><trkpt lat="45.7769222" lon="12.7701126"><ele>2.0</ele><time>2026-05-05T13:25:52.266Z</time></trkpt><trkpt lat="45.7767524" lon="12.7698042"><ele>2.0</ele><time>2026-05-05T13:25:53.267Z</time></trkpt><trkpt lat="45.7765831" lon="12.7694999"><ele>2.0</ele><time>2026-05-05T13:25:54.267Z</time></trkpt><trkpt lat="45.7764156" lon="12.7691907"><ele>1.5</ele><time>2026-05-05T13:25:55.267Z</time></trkpt><trkpt lat="45.7762472" lon="12.7688858"><ele>1.0</ele><time>2026-05-05T13:25:56.266Z</time></trkpt><trkpt lat="45.7760827" lon="12.768583"><ele>1.5</ele><time>2026-05-05T13:25:57.267Z</time></trkpt><trkpt lat="45.7759186" lon="12.768281"><ele>2.0</ele><time>2026-05-05T13:25:58.267Z</time></trkpt><trkpt lat="45.7757555" lon="12.767986"><ele>1.5</ele><time>2026-05-05T13:25:59.266Z</time></trkpt><trkpt lat="45.775591" lon="12.7676867"><ele>1.0</ele><time>2026-05-05T13:26:00.267Z</time></trkpt><trkpt lat="45.7754302" lon="12.767392"><ele>1.0</ele><time>2026-05-05T13:26:01.266Z</time></trkpt><trkpt lat="45.7752691" lon="12.7670998"><ele>1.0</ele><time>2026-05-05T13:26:02.267Z</time></trkpt><trkpt lat="45.7751061" lon="12.7668101"><ele>2.0</ele><time>2026-05-05T13:26:03.267Z</time></trkpt><trkpt lat="45.7749502" lon="12.7665246"><ele>3.0</ele><time>2026-05-05T13:26:04.267Z</time></trkpt><trkpt lat="45.7747921" lon="12.7662386"><ele>2.0</ele><time>2026-05-05T13:26:05.267Z</time></trkpt><trkpt lat="45.7746369" lon="12.7659482"><ele>1.0</ele><time>2026-05-05T13:26:06.266Z</time></trkpt><trkpt lat="45.774479" lon="12.7656612"><ele>2.5</ele><time>2026-05-05T13:26:07.266Z</time></trkpt><trkpt lat="45.7743275" lon="12.7653768"><ele>4.0</ele><time>2026-05-05T13:26:08.267Z</time></trkpt><trkpt lat="45.7741739" lon="12.7650897"><ele>4.0</ele><time>2026-05-05T13:26:09.266Z</time></trkpt><trkpt lat="45.7740172" lon="12.7648027"><ele>4.0</ele><time>2026-05-05T13:26:10.267Z</time></trkpt><trkpt lat="45.773859" lon="12.7645119"><ele>3.0</ele><time>2026-05-05T13:26:11.267Z</time></trkpt><trkpt lat="45.7736972" lon="12.7642214"><ele>2.0</ele><time>2026-05-05T13:26:12.267Z</time></trkpt><trkpt lat="45.7735347" lon="12.763933"><ele>3.0</ele><time>2026-05-05T13:26:13.266Z</time></trkpt><trkpt lat="45.7733745" lon="12.7636448"><ele>4.0</ele><time>2026-05-05T13:26:14.267Z</time></trkpt><trkpt lat="45.7732223" lon="12.7633642"><ele>4.0</ele><time>2026-05-05T13:26:15.267Z</time></trkpt><trkpt lat="45.7730657" lon="12.7630766"><ele>4.0</ele><time>2026-05-05T13:26:16.267Z</time></trkpt><trkpt lat="45.7729127" lon="12.7627981"><ele>3.5</ele><time>2026-05-05T13:26:17.267Z</time></trkpt><trkpt lat="45.7727649" lon="12.7625169"><ele>3.0</ele><time>2026-05-05T13:26:18.267Z</time></trkpt><trkpt lat="45.7726095" lon="12.7622353"><ele>3.0</ele><time>2026-05-05T13:26:19.266Z</time></trkpt><trkpt lat="45.7724543" lon="12.7619545"><ele>3.0</ele><time>2026-05-05T13:26:20.266Z</time></trkpt><trkpt lat="45.7723041" lon="12.7616767"><ele>2.5</ele><time>2026-05-05T13:26:21.267Z</time></trkpt><trkpt lat="45.7721547" lon="12.761401"><ele>2.0</ele><time>2026-05-05T13:26:22.267Z</time></trkpt><trkpt lat="45.7720105" lon="12.7611314"><ele>1.6666666666666665</ele><time>2026-05-05T13:26:23.267Z</time></trkpt><trkpt lat="45.7718709" lon="12.7608769"><ele>1.3333333333333333</ele><time>2026-05-05T13:26:24.267Z</time></trkpt><trkpt lat="45.7717336" lon="12.7606271"><ele>1.0</ele><time>2026-05-05T13:26:25.267Z</time></trkpt><trkpt lat="45.7716053" lon="12.7603932"><ele>0.6666666666666666</ele><time>2026-05-05T13:26:26.267Z</time></trkpt><trkpt lat="45.7714763" lon="12.7601615"><ele>0.3333333333333333</ele><time>2026-05-05T13:26:27.266Z</time></trkpt><trkpt lat="45.7713486" lon="12.7599307"><ele>0.0</ele><time>2026-05-05T13:26:28.266Z</time></trkpt><trkpt lat="45.7712188" lon="12.7596974"><ele>0.0</ele><time>2026-05-05T13:26:29.267Z</time></trkpt><trkpt lat="45.7710909" lon="12.7594593"><ele>0.0</ele><time>2026-05-05T13:26:30.267Z</time></trkpt><trkpt lat="45.7709601" lon="12.7592263"><ele>0.0</ele><time>2026-05-05T13:26:31.267Z</time></trkpt><trkpt lat="45.7708286" lon="12.7589939"><ele>0.0</ele><time>2026-05-05T13:26:32.267Z</time></trkpt><trkpt lat="45.7706999" lon="12.7587562"><ele>0.0</ele><time>2026-05-05T13:26:33.267Z</time></trkpt><trkpt lat="45.7705708" lon="12.7585101"><ele>0.0</ele><time>2026-05-05T13:26:34.266Z</time></trkpt><trkpt lat="45.7704376" lon="12.7582637"><ele>0.0</ele><time>2026-05-05T13:26:35.266Z</time></trkpt><trkpt lat="45.770304" lon="12.7580188"><ele>0.0</ele><time>2026-05-05T13:26:36.267Z</time></trkpt><trkpt lat="45.7701694" lon="12.7577723"><ele>0.0</ele><time>2026-05-05T13:26:37.266Z</time></trkpt><trkpt lat="45.7700347" lon="12.7575281"><ele>0.0</ele><time>2026-05-05T13:26:38.266Z</time></trkpt><trkpt lat="45.7699036" lon="12.7572819"><ele>0.0</ele><time>2026-05-05T13:26:39.267Z</time></trkpt><trkpt lat="45.7697725" lon="12.7570363"><ele>0.0</ele><time>2026-05-05T13:26:40.266Z</time></trkpt><trkpt lat="45.7696398" lon="12.7567958"><ele>0.3333333333333333</ele><time>2026-05-05T13:26:41.266Z</time></trkpt><trkpt lat="45.7695036" lon="12.7565537"><ele>0.6666666666666666</ele><time>2026-05-05T13:26:42.267Z</time></trkpt><trkpt lat="45.769366" lon="12.7563054"><ele>1.0</ele><time>2026-05-05T13:26:43.267Z</time></trkpt><trkpt lat="45.7692313" lon="12.75605"><ele>0.6666666666666666</ele><time>2026-05-05T13:26:44.266Z</time></trkpt><trkpt lat="45.7690993" lon="12.7558099"><ele>0.3333333333333333</ele><time>2026-05-05T13:26:45.267Z</time></trkpt><trkpt lat="45.7689639" lon="12.755559"><ele>0.0</ele><time>2026-05-05T13:26:46.267Z</time></trkpt><trkpt lat="45.7688226" lon="12.7553107"><ele>0.3333333333333333</ele><time>2026-05-05T13:26:47.267Z</time></trkpt><trkpt lat="45.7686847" lon="12.7550561"><ele>0.6666666666666666</ele><time>2026-05-05T13:26:48.267Z</time></trkpt><trkpt lat="45.7685472" lon="12.7548105"><ele>1.0</ele><time>2026-05-05T13:26:49.266Z</time></trkpt><trkpt lat="45.7684092" lon="12.7545612"><ele>0.6666666666666666</ele><time>2026-05-05T13:26:50.266Z</time></trkpt><trkpt lat="45.7682775" lon="12.7543298"><ele>0.3333333333333333</ele><time>2026-05-05T13:26:51.267Z</time></trkpt><trkpt lat="45.7681534" lon="12.7541042"><ele>0.0</ele><time>2026-05-05T13:26:52.266Z</time></trkpt><trkpt lat="45.7680221" lon="12.7538683"><ele>0.0</ele><time>2026-05-05T13:26:53.267Z</time></trkpt><trkpt lat="45.7678925" lon="12.7536299"><ele>0.0</ele><time>2026-05-05T13:26:54.266Z</time></trkpt><trkpt lat="45.7677574" lon="12.7533824"><ele>0.0</ele><time>2026-05-05T13:26:55.267Z</time></trkpt><trkpt lat="45.7676214" lon="12.7531329"><ele>1.0</ele><time>2026-05-05T13:26:56.266Z</time></trkpt><trkpt lat="45.7674837" lon="12.7528816"><ele>2.0</ele><time>2026-05-05T13:26:57.266Z</time></trkpt><trkpt lat="45.7673445" lon="12.7526225"><ele>2.0</ele><time>2026-05-05T13:26:58.267Z</time></trkpt><trkpt lat="45.7672001" lon="12.7523605"><ele>2.0</ele><time>2026-05-05T13:26:59.267Z</time></trkpt><trkpt lat="45.7670581" lon="12.7521007"><ele>2.0</ele><time>2026-05-05T13:27:00.267Z</time></trkpt><trkpt lat="45.7669148" lon="12.7518426"><ele>2.0</ele><time>2026-05-05T13:27:01.266Z</time></trkpt><trkpt lat="45.7667766" lon="12.7515793"><ele>2.5</ele><time>2026-05-05T13:27:02.267Z</time></trkpt><trkpt lat="45.766634" lon="12.7513173"><ele>3.0</ele><time>2026-05-05T13:27:03.267Z</time></trkpt><trkpt lat="45.766488" lon="12.7510572"><ele>2.0</ele><time>2026-05-05T13:27:04.267Z</time></trkpt><trkpt lat="45.7663424" lon="12.7507961"><ele>1.0</ele><time>2026-05-05T13:27:05.266Z</time></trkpt><trkpt lat="45.7661954" lon="12.7505349"><ele>1.0</ele><time>2026-05-05T13:27:06.267Z</time></trkpt><trkpt lat="45.7660519" lon="12.7502789"><ele>1.0</ele><time>2026-05-05T13:27:07.267Z</time></trkpt><trkpt lat="45.7659065" lon="12.7500206"><ele>0.0</ele><time>2026-05-05T13:27:08.266Z</time></trkpt><trkpt lat="45.7657642" lon="12.7497636"><ele>-1.0</ele><time>2026-05-05T13:27:09.266Z</time></trkpt><trkpt lat="45.7656164" lon="12.7495006"><ele>0.0</ele><time>2026-05-05T13:27:10.266Z</time></trkpt><trkpt lat="45.7654689" lon="12.749244"><ele>1.0</ele><time>2026-05-05T13:27:11.267Z</time></trkpt><trkpt lat="45.7653183" lon="12.7489836"><ele>1.5</ele><time>2026-05-05T13:27:12.266Z</time></trkpt><trkpt lat="45.7651662" lon="12.7487266"><ele>2.0</ele><time>2026-05-05T13:27:13.267Z</time></trkpt><trkpt lat="45.7650153" lon="12.7484719"><ele>2.0</ele><time>2026-05-05T13:27:14.266Z</time></trkpt><trkpt lat="45.7648647" lon="12.7482164"><ele>2.0</ele><time>2026-05-05T13:27:15.266Z</time></trkpt><trkpt lat="45.7647095" lon="12.7479592"><ele>1.5</ele><time>2026-05-05T13:27:16.267Z</time></trkpt><trkpt lat="45.7645553" lon="12.7476995"><ele>1.0</ele><time>2026-05-05T13:27:17.267Z</time></trkpt><trkpt lat="45.7643975" lon="12.7474393"><ele>1.5</ele><time>2026-05-05T13:27:18.267Z</time></trkpt><trkpt lat="45.7642395" lon="12.7471827"><ele>2.0</ele><time>2026-05-05T13:27:19.266Z</time></trkpt><trkpt lat="45.7640749" lon="12.7469212"><ele>2.0</ele><time>2026-05-05T13:27:20.267Z</time></trkpt><trkpt lat="45.7639187" lon="12.7466588"><ele>2.0</ele><time>2026-05-05T13:27:21.267Z</time></trkpt><trkpt lat="45.7637532" lon="12.7463944"><ele>2.0</ele><time>2026-05-05T13:27:22.267Z</time></trkpt><trkpt lat="45.7635855" lon="12.7461306"><ele>2.0</ele><time>2026-05-05T13:27:23.266Z</time></trkpt><trkpt lat="45.7634091" lon="12.7458532"><ele>1.5</ele><time>2026-05-05T13:27:24.267Z</time></trkpt><trkpt lat="45.763229" lon="12.7455769"><ele>1.0</ele><time>2026-05-05T13:27:25.267Z</time></trkpt><trkpt lat="45.7630488" lon="12.7452998"><ele>0.5</ele><time>2026-05-05T13:27:26.267Z</time></trkpt><trkpt lat="45.7628635" lon="12.7450164"><ele>0.0</ele><time>2026-05-05T13:27:27.266Z</time></trkpt><trkpt lat="45.7626745" lon="12.7447296"><ele>0.5</ele><time>2026-05-05T13:27:28.267Z</time></trkpt><trkpt lat="45.7624831" lon="12.7444422"><ele>1.0</ele><time>2026-05-05T13:27:29.267Z</time></trkpt><trkpt lat="45.762286" lon="12.7441349"><ele>1.0</ele><time>2026-05-05T13:27:30.267Z</time></trkpt><trkpt lat="45.7620791" lon="12.743817"><ele>1.0</ele><time>2026-05-05T13:27:31.267Z</time></trkpt><trkpt lat="45.7618673" lon="12.7434954"><ele>1.0</ele><time>2026-05-05T13:27:32.266Z</time></trkpt><trkpt lat="45.7616538" lon="12.7431677"><ele>1.0</ele><time>2026-05-05T13:27:33.266Z</time></trkpt><trkpt lat="45.7614375" lon="12.7428426"><ele>1.5</ele><time>2026-05-05T13:27:34.266Z</time></trkpt><trkpt lat="45.7612255" lon="12.7425239"><ele>2.0</ele><time>2026-05-05T13:27:35.267Z</time></trkpt><trkpt lat="45.7610127" lon="12.7421977"><ele>2.0</ele><time>2026-05-05T13:27:36.266Z</time></trkpt><trkpt lat="45.7608111" lon="12.741889"><ele>2.0</ele><time>2026-05-05T13:27:37.267Z</time></trkpt><trkpt lat="45.7606089" lon="12.7415724"><ele>2.0</ele><time>2026-05-05T13:27:38.267Z</time></trkpt><trkpt lat="45.760401" lon="12.7412595"><ele>2.0</ele><time>2026-05-05T13:27:39.266Z</time></trkpt><trkpt lat="45.7601965" lon="12.7409476"><ele>2.5</ele><time>2026-05-05T13:27:40.267Z</time></trkpt><trkpt lat="45.7599934" lon="12.7406399"><ele>3.0</ele><time>2026-05-05T13:27:41.267Z</time></trkpt><trkpt lat="45.7598012" lon="12.7403376"><ele>3.0</ele><time>2026-05-05T13:27:42.267Z</time></trkpt><trkpt lat="45.7596107" lon="12.7400425"><ele>3.0</ele><time>2026-05-05T13:27:43.267Z</time></trkpt><trkpt lat="45.759428" lon="12.739755"><ele>3.0</ele><time>2026-05-05T13:27:44.267Z</time></trkpt><trkpt lat="45.7592399" lon="12.7394661"><ele>3.0</ele><time>2026-05-05T13:27:45.267Z</time></trkpt><trkpt lat="45.7590479" lon="12.7391783"><ele>2.5</ele><time>2026-05-05T13:27:46.267Z</time></trkpt><trkpt lat="45.7588629" lon="12.7388883"><ele>2.0</ele><time>2026-05-05T13:27:47.267Z</time></trkpt><trkpt lat="45.7586825" lon="12.7386102"><ele>2.0</ele><time>2026-05-05T13:27:48.267Z</time></trkpt><trkpt lat="45.7585007" lon="12.7383284"><ele>2.0</ele><time>2026-05-05T13:27:49.267Z</time></trkpt><trkpt lat="45.7583213" lon="12.7380582"><ele>2.0</ele><time>2026-05-05T13:27:50.267Z</time></trkpt><trkpt lat="45.75815" lon="12.7377971"><ele>2.0</ele><time>2026-05-05T13:27:51.266Z</time></trkpt><trkpt lat="45.7579715" lon="12.7375227"><ele>2.0</ele><time>2026-05-05T13:27:52.266Z</time></trkpt><trkpt lat="45.7577892" lon="12.7372439"><ele>2.0</ele><time>2026-05-05T13:27:53.267Z</time></trkpt><trkpt lat="45.75761" lon="12.7369617"><ele>1.5</ele><time>2026-05-05T13:27:54.267Z</time></trkpt><trkpt lat="45.7574293" lon="12.7366852"><ele>1.0</ele><time>2026-05-05T13:27:55.267Z</time></trkpt><trkpt lat="45.7572513" lon="12.7364066"><ele>1.0</ele><time>2026-05-05T13:27:56.266Z</time></trkpt><trkpt lat="45.7570694" lon="12.7361266"><ele>1.0</ele><time>2026-05-05T13:27:57.267Z</time></trkpt><trkpt lat="45.7568866" lon="12.7358477"><ele>1.0</ele><time>2026-05-05T13:27:58.267Z</time></trkpt><trkpt lat="45.7567102" lon="12.7355623"><ele>1.0</ele><time>2026-05-05T13:27:59.266Z</time></trkpt><trkpt lat="45.7565326" lon="12.7352714"><ele>1.0</ele><time>2026-05-05T13:28:00.267Z</time></trkpt><trkpt lat="45.7563612" lon="12.7349773"><ele>1.0</ele><time>2026-05-05T13:28:01.267Z</time></trkpt><trkpt lat="45.7561858" lon="12.7346854"><ele>1.0</ele><time>2026-05-05T13:28:02.266Z</time></trkpt><trkpt lat="45.7560097" lon="12.7343804"><ele>1.0</ele><time>2026-05-05T13:28:03.267Z</time></trkpt><trkpt lat="45.7558323" lon="12.7340755"><ele>1.0</ele><time>2026-05-05T13:28:04.267Z</time></trkpt><trkpt lat="45.7556523" lon="12.7337719"><ele>1.0</ele><time>2026-05-05T13:28:05.267Z</time></trkpt><trkpt lat="45.7554726" lon="12.7334636"><ele>1.0</ele><time>2026-05-05T13:28:06.267Z</time></trkpt><trkpt lat="45.755296" lon="12.7331518"><ele>1.0</ele><time>2026-05-05T13:28:07.266Z</time></trkpt><trkpt lat="45.7551237" lon="12.732844"><ele>-0.5</ele><time>2026-05-05T13:28:08.267Z</time></trkpt><trkpt lat="45.7549491" lon="12.7325328"><ele>-2.0</ele><time>2026-05-05T13:28:09.267Z</time></trkpt><trkpt lat="45.7547797" lon="12.7322125"><ele>-2.0</ele><time>2026-05-05T13:28:10.266Z</time></trkpt><trkpt lat="45.7546103" lon="12.7319018"><ele>-2.0</ele><time>2026-05-05T13:28:11.266Z</time></trkpt><trkpt lat="45.7544489" lon="12.7315858"><ele>-2.0</ele><time>2026-05-05T13:28:12.267Z</time></trkpt><trkpt lat="45.7542815" lon="12.7312665"><ele>-2.0</ele><time>2026-05-05T13:28:13.267Z</time></trkpt><trkpt lat="45.7541211" lon="12.7309459"><ele>-1.5</ele><time>2026-05-05T13:28:14.267Z</time></trkpt><trkpt lat="45.7539613" lon="12.7306256"><ele>-1.0</ele><time>2026-05-05T13:28:15.267Z</time></trkpt><trkpt lat="45.7538026" lon="12.7303115"><ele>-1.0</ele><time>2026-05-05T13:28:16.267Z</time></trkpt><trkpt lat="45.7536472" lon="12.7299997"><ele>-1.0</ele><time>2026-05-05T13:28:17.267Z</time></trkpt><trkpt lat="45.7534999" lon="12.7296967"><ele>-1.0</ele><time>2026-05-05T13:28:18.266Z</time></trkpt><trkpt lat="45.7533568" lon="12.7294013"><ele>-1.0</ele><time>2026-05-05T13:28:19.266Z</time></trkpt><trkpt lat="45.7532159" lon="12.7291166"><ele>-1.0</ele><time>2026-05-05T13:28:20.266Z</time></trkpt><trkpt lat="45.7530797" lon="12.7288346"><ele>-1.0</ele><time>2026-05-05T13:28:21.267Z</time></trkpt><trkpt lat="45.7529486" lon="12.7285561"><ele>-1.0</ele><time>2026-05-05T13:28:22.266Z</time></trkpt><trkpt lat="45.7528182" lon="12.7282831"><ele>-1.0</ele><time>2026-05-05T13:28:23.267Z</time></trkpt><trkpt lat="45.7526909" lon="12.7280071"><ele>-0.5</ele><time>2026-05-05T13:28:24.267Z</time></trkpt><trkpt lat="45.7525644" lon="12.7277301"><ele>0.0</ele><time>2026-05-05T13:28:25.266Z</time></trkpt><trkpt lat="45.7524331" lon="12.7274505"><ele>0.0</ele><time>2026-05-05T13:28:26.267Z</time></trkpt><trkpt lat="45.7523127" lon="12.7271704"><ele>0.0</ele><time>2026-05-05T13:28:27.267Z</time></trkpt><trkpt lat="45.7521903" lon="12.726894"><ele>0.3333333333333333</ele><time>2026-05-05T13:28:28.266Z</time></trkpt><trkpt lat="45.7520787" lon="12.7266281"><ele>0.6666666666666666</ele><time>2026-05-05T13:28:29.266Z</time></trkpt><trkpt lat="45.7519646" lon="12.7263709"><ele>1.0</ele><time>2026-05-05T13:28:30.266Z</time></trkpt><trkpt lat="45.7518547" lon="12.7261099"><ele>0.6666666666666666</ele><time>2026-05-05T13:28:31.267Z</time></trkpt><trkpt lat="45.7517452" lon="12.7258492"><ele>0.3333333333333333</ele><time>2026-05-05T13:28:32.267Z</time></trkpt><trkpt lat="45.7516352" lon="12.7255729"><ele>0.0</ele><time>2026-05-05T13:28:33.266Z</time></trkpt><trkpt lat="45.7515232" lon="12.7252973"><ele>-0.3333333333333333</ele><time>2026-05-05T13:28:34.266Z</time></trkpt><trkpt lat="45.7514084" lon="12.7250244"><ele>-0.6666666666666666</ele><time>2026-05-05T13:28:35.266Z</time></trkpt><trkpt lat="45.751297" lon="12.7247491"><ele>-1.0</ele><time>2026-05-05T13:28:36.267Z</time></trkpt><trkpt lat="45.7511905" lon="12.7244849"><ele>-1.0</ele><time>2026-05-05T13:28:37.266Z</time></trkpt><trkpt lat="45.7510827" lon="12.7242161"><ele>-1.0</ele><time>2026-05-05T13:28:38.267Z</time></trkpt><trkpt lat="45.7509804" lon="12.7239545"><ele>-1.0</ele><time>2026-05-05T13:28:39.266Z</time></trkpt><trkpt lat="45.7508782" lon="12.7236895"><ele>-1.3333333333333333</ele><time>2026-05-05T13:28:40.267Z</time></trkpt><trkpt lat="45.7507738" lon="12.723421"><ele>-1.6666666666666665</ele><time>2026-05-05T13:28:41.266Z</time></trkpt><trkpt lat="45.7506704" lon="12.7231523"><ele>-2.0</ele><time>2026-05-05T13:28:42.267Z</time></trkpt><trkpt lat="45.7505745" lon="12.7228942"><ele>-1.3333333333333333</ele><time>2026-05-05T13:28:43.266Z</time></trkpt><trkpt lat="45.7504856" lon="12.722644"><ele>-0.6666666666666666</ele><time>2026-05-05T13:28:44.267Z</time></trkpt><trkpt lat="45.7504003" lon="12.7224066"><ele>0.0</ele><time>2026-05-05T13:28:45.267Z</time></trkpt><trkpt lat="45.7503171" lon="12.7221723"><ele>0.0</ele><time>2026-05-05T13:28:46.267Z</time></trkpt><trkpt lat="45.7502311" lon="12.721929"><ele>0.0</ele><time>2026-05-05T13:28:47.267Z</time></trkpt><trkpt lat="45.7501441" lon="12.7216863"><ele>0.0</ele><time>2026-05-05T13:28:48.267Z</time></trkpt><trkpt lat="45.7500569" lon="12.7214337"><ele>-0.6666666666666666</ele><time>2026-05-05T13:28:49.267Z</time></trkpt><trkpt lat="45.7499698" lon="12.7211806"><ele>-1.3333333333333333</ele><time>2026-05-05T13:28:50.267Z</time></trkpt><trkpt lat="45.7498858" lon="12.7209273"><ele>-2.0</ele><time>2026-05-05T13:28:51.267Z</time></trkpt><trkpt lat="45.7498039" lon="12.7206808"><ele>-2.0</ele><time>2026-05-05T13:28:52.267Z</time></trkpt><trkpt lat="45.7497209" lon="12.720428"><ele>-2.0</ele><time>2026-05-05T13:28:53.267Z</time></trkpt><trkpt lat="45.7496389" lon="12.72018"><ele>-2.0</ele><time>2026-05-05T13:28:54.267Z</time></trkpt><trkpt lat="45.7495568" lon="12.7199352"><ele>-1.3333333333333333</ele><time>2026-05-05T13:28:55.267Z</time></trkpt><trkpt lat="45.7494792" lon="12.7196895"><ele>-0.6666666666666666</ele><time>2026-05-05T13:28:56.266Z</time></trkpt><trkpt lat="45.7494029" lon="12.7194502"><ele>0.0</ele><time>2026-05-05T13:28:57.267Z</time></trkpt><trkpt lat="45.7493284" lon="12.71921"><ele>0.3333333333333333</ele><time>2026-05-05T13:28:58.266Z</time></trkpt><trkpt lat="45.7492522" lon="12.7189761"><ele>0.6666666666666666</ele><time>2026-05-05T13:28:59.266Z</time></trkpt><trkpt lat="45.7491771" lon="12.7187418"><ele>1.0</ele><time>2026-05-05T13:29:00.266Z</time></trkpt><trkpt lat="45.7491042" lon="12.7185134"><ele>1.0</ele><time>2026-05-05T13:29:01.267Z</time></trkpt><trkpt lat="45.7490345" lon="12.7182918"><ele>1.0</ele><time>2026-05-05T13:29:02.267Z</time></trkpt><trkpt lat="45.7489657" lon="12.7180693"><ele>1.0</ele><time>2026-05-05T13:29:03.267Z</time></trkpt><trkpt lat="45.7488908" lon="12.7178436"><ele>0.6666666666666666</ele><time>2026-05-05T13:29:04.267Z</time></trkpt><trkpt lat="45.7488181" lon="12.7176257"><ele>0.3333333333333333</ele><time>2026-05-05T13:29:05.267Z</time></trkpt><trkpt lat="45.7487499" lon="12.7174052"><ele>0.0</ele><time>2026-05-05T13:29:06.266Z</time></trkpt><trkpt lat="45.748679" lon="12.7171872"><ele>0.0</ele><time>2026-05-05T13:29:07.267Z</time></trkpt><trkpt lat="45.7486063" lon="12.7169663"><ele>0.0</ele><time>2026-05-05T13:29:08.267Z</time></trkpt><trkpt lat="45.7485358" lon="12.7167349"><ele>0.0</ele><time>2026-05-05T13:29:09.266Z</time></trkpt><trkpt lat="45.7484587" lon="12.7165013"><ele>0.3333333333333333</ele><time>2026-05-05T13:29:10.266Z</time></trkpt><trkpt lat="45.7483824" lon="12.7162662"><ele>0.6666666666666666</ele><time>2026-05-05T13:29:11.266Z</time></trkpt><trkpt lat="45.7483088" lon="12.7160278"><ele>1.0</ele><time>2026-05-05T13:29:12.266Z</time></trkpt><trkpt lat="45.7482342" lon="12.7157878"><ele>1.0</ele><time>2026-05-05T13:29:13.267Z</time></trkpt><trkpt lat="45.7481592" lon="12.7155404"><ele>1.0</ele><time>2026-05-05T13:29:14.267Z</time></trkpt><trkpt lat="45.7480849" lon="12.7152883"><ele>1.0</ele><time>2026-05-05T13:29:15.266Z</time></trkpt><trkpt lat="45.7480094" lon="12.715051"><ele>1.0</ele><time>2026-05-05T13:29:16.267Z</time></trkpt><trkpt lat="45.7479307" lon="12.7148081"><ele>1.0</ele><time>2026-05-05T13:29:17.267Z</time></trkpt><trkpt lat="45.7478487" lon="12.7145653"><ele>1.0</ele><time>2026-05-05T13:29:18.266Z</time></trkpt><trkpt lat="45.7477769" lon="12.7143264"><ele>1.0</ele><time>2026-05-05T13:29:19.266Z</time></trkpt><trkpt lat="45.7476993" lon="12.7140803"><ele>1.0</ele><time>2026-05-05T13:29:20.267Z</time></trkpt><trkpt lat="45.7476231" lon="12.713844"><ele>1.0</ele><time>2026-05-05T13:29:21.266Z</time></trkpt><trkpt lat="45.7475449" lon="12.713607"><ele>1.3333333333333333</ele><time>2026-05-05T13:29:22.267Z</time></trkpt><trkpt lat="45.7474652" lon="12.7133643"><ele>1.6666666666666665</ele><time>2026-05-05T13:29:23.267Z</time></trkpt><trkpt lat="45.7473873" lon="12.7131277"><ele>2.0</ele><time>2026-05-05T13:29:24.267Z</time></trkpt><trkpt lat="45.7473089" lon="12.7128922"><ele>1.6666666666666665</ele><time>2026-05-05T13:29:25.267Z</time></trkpt><trkpt lat="45.7472299" lon="12.7126516"><ele>1.3333333333333333</ele><time>2026-05-05T13:29:26.266Z</time></trkpt><trkpt lat="45.7471531" lon="12.7124128"><ele>1.0</ele><time>2026-05-05T13:29:27.266Z</time></trkpt><trkpt lat="45.7470839" lon="12.7121938"><ele>1.0</ele><time>2026-05-05T13:29:28.266Z</time></trkpt><trkpt lat="45.7470176" lon="12.7119738"><ele>1.0</ele><time>2026-05-05T13:29:29.267Z</time></trkpt><trkpt lat="45.7469566" lon="12.7117678"><ele>1.0</ele><time>2026-05-05T13:29:30.266Z</time></trkpt><trkpt lat="45.7468935" lon="12.7115621"><ele>0.6666666666666666</ele><time>2026-05-05T13:29:31.267Z</time></trkpt><trkpt lat="45.7468263" lon="12.7113492"><ele>0.3333333333333333</ele><time>2026-05-05T13:29:32.266Z</time></trkpt><trkpt lat="45.7467598" lon="12.7111375"><ele>0.0</ele><time>2026-05-05T13:29:33.266Z</time></trkpt><trkpt lat="45.7466925" lon="12.7109311"><ele>0.0</ele><time>2026-05-05T13:29:34.267Z</time></trkpt><trkpt lat="45.7466274" lon="12.7107294"><ele>0.0</ele><time>2026-05-05T13:29:35.267Z</time></trkpt><trkpt lat="45.7465635" lon="12.7105277"><ele>0.0</ele><time>2026-05-05T13:29:36.267Z</time></trkpt><trkpt lat="45.7464967" lon="12.7103238"><ele>0.0</ele><time>2026-05-05T13:29:37.267Z</time></trkpt><trkpt lat="45.7464358" lon="12.7101323"><ele>0.0</ele><time>2026-05-05T13:29:38.267Z</time></trkpt><trkpt lat="45.7463759" lon="12.7099369"><ele>0.0</ele><time>2026-05-05T13:29:39.266Z</time></trkpt><trkpt lat="45.7463146" lon="12.7097395"><ele>0.0</ele><time>2026-05-05T13:29:40.266Z</time></trkpt><trkpt lat="45.7462546" lon="12.7095428"><ele>0.0</ele><time>2026-05-05T13:29:41.267Z</time></trkpt><trkpt lat="45.7461949" lon="12.7093441"><ele>0.0</ele><time>2026-05-05T13:29:42.267Z</time></trkpt><trkpt lat="45.7461331" lon="12.7091481"><ele>0.0</ele><time>2026-05-05T13:29:43.266Z</time></trkpt><trkpt lat="45.746069" lon="12.7089504"><ele>0.0</ele><time>2026-05-05T13:29:44.267Z</time></trkpt><trkpt lat="45.7460056" lon="12.7087474"><ele>0.0</ele><time>2026-05-05T13:29:45.266Z</time></trkpt><trkpt lat="45.7459433" lon="12.7085474"><ele>0.0</ele><time>2026-05-05T13:29:46.267Z</time></trkpt><trkpt lat="45.7458784" lon="12.7083399"><ele>0.0</ele><time>2026-05-05T13:29:47.267Z</time></trkpt><trkpt lat="45.7458089" lon="12.7081352"><ele>0.0</ele><time>2026-05-05T13:29:48.266Z</time></trkpt><trkpt lat="45.7457456" lon="12.7079345"><ele>0.0</ele><time>2026-05-05T13:29:49.267Z</time></trkpt><trkpt lat="45.7456794" lon="12.707726"><ele>-0.3333333333333333</ele><time>2026-05-05T13:29:50.266Z</time></trkpt><trkpt lat="45.7456164" lon="12.7075257"><ele>-0.6666666666666666</ele><time>2026-05-05T13:29:51.267Z</time></trkpt><trkpt lat="45.7455497" lon="12.707317"><ele>-1.0</ele><time>2026-05-05T13:29:52.267Z</time></trkpt><trkpt lat="45.7454867" lon="12.7071084"><ele>-1.0</ele><time>2026-05-05T13:29:53.266Z</time></trkpt><trkpt lat="45.7454195" lon="12.7068903"><ele>-1.0</ele><time>2026-05-05T13:29:54.266Z</time></trkpt><trkpt lat="45.7453489" lon="12.7066696"><ele>-1.0</ele><time>2026-05-05T13:29:55.266Z</time></trkpt><trkpt lat="45.7452787" lon="12.7064541"><ele>-1.0</ele><time>2026-05-05T13:29:56.267Z</time></trkpt><trkpt lat="45.7452053" lon="12.7062296"><ele>-1.0</ele><time>2026-05-05T13:29:57.266Z</time></trkpt><trkpt lat="45.7451349" lon="12.7060032"><ele>-1.0</ele><time>2026-05-05T13:29:58.266Z</time></trkpt><trkpt lat="45.7450603" lon="12.7057747"><ele>-1.0</ele><time>2026-05-05T13:29:59.267Z</time></trkpt><trkpt lat="45.7449916" lon="12.7055493"><ele>-1.0</ele><time>2026-05-05T13:30:00.267Z</time></trkpt><trkpt lat="45.7449156" lon="12.7053132"><ele>-1.0</ele><time>2026-05-05T13:30:01.266Z</time></trkpt><trkpt lat="45.7448425" lon="12.7050807"><ele>-1.0</ele><time>2026-05-05T13:30:02.267Z</time></trkpt><trkpt lat="45.7447666" lon="12.7048409"><ele>-1.0</ele><time>2026-05-05T13:30:03.267Z</time></trkpt><trkpt lat="45.7446872" lon="12.7046004"><ele>-1.0</ele><time>2026-05-05T13:30:04.267Z</time></trkpt><trkpt lat="45.7446116" lon="12.7043599"><ele>-1.0</ele><time>2026-05-05T13:30:05.267Z</time></trkpt><trkpt lat="45.744535" lon="12.7041117"><ele>-1.0</ele><time>2026-05-05T13:30:06.267Z</time></trkpt><trkpt lat="45.7444545" lon="12.7038642"><ele>-1.0</ele><time>2026-05-05T13:30:07.267Z</time></trkpt><trkpt lat="45.7443769" lon="12.7036083"><ele>-1.0</ele><time>2026-05-05T13:30:08.267Z</time></trkpt><trkpt lat="45.7442948" lon="12.7033505"><ele>-1.0</ele><time>2026-05-05T13:30:09.267Z</time></trkpt><trkpt lat="45.7442033" lon="12.7030781"><ele>-1.0</ele><time>2026-05-05T13:30:10.267Z</time></trkpt><trkpt lat="45.7441143" lon="12.7028111"><ele>-1.3333333333333333</ele><time>2026-05-05T13:30:11.266Z</time></trkpt><trkpt lat="45.7440321" lon="12.702539"><ele>-1.6666666666666665</ele><time>2026-05-05T13:30:12.266Z</time></trkpt><trkpt lat="45.743939" lon="12.7022527"><ele>-2.0</ele><time>2026-05-05T13:30:13.267Z</time></trkpt><trkpt lat="45.7438463" lon="12.7019641"><ele>-1.6666666666666665</ele><time>2026-05-05T13:30:14.267Z</time></trkpt><trkpt lat="45.7437493" lon="12.7016733"><ele>-1.3333333333333333</ele><time>2026-05-05T13:30:15.267Z</time></trkpt><trkpt lat="45.7436585" lon="12.7013808"><ele>-1.0</ele><time>2026-05-05T13:30:16.267Z</time></trkpt><trkpt lat="45.7435664" lon="12.7010861"><ele>-0.6666666666666666</ele><time>2026-05-05T13:30:17.267Z</time></trkpt><trkpt lat="45.7434757" lon="12.700799"><ele>-0.3333333333333333</ele><time>2026-05-05T13:30:18.266Z</time></trkpt><trkpt lat="45.7433859" lon="12.7005098"><ele>0.0</ele><time>2026-05-05T13:30:19.266Z</time></trkpt><trkpt lat="45.7432965" lon="12.7002169"><ele>0.0</ele><time>2026-05-05T13:30:20.267Z</time></trkpt><trkpt lat="45.743205" lon="12.6999334"><ele>0.0</ele><time>2026-05-05T13:30:21.267Z</time></trkpt><trkpt lat="45.7431111" lon="12.6996413"><ele>0.0</ele><time>2026-05-05T13:30:22.266Z</time></trkpt><trkpt lat="45.7430201" lon="12.6993487"><ele>-0.5</ele><time>2026-05-05T13:30:23.267Z</time></trkpt><trkpt lat="45.742921" lon="12.6990436"><ele>-1.0</ele><time>2026-05-05T13:30:24.266Z</time></trkpt><trkpt lat="45.7428175" lon="12.6987315"><ele>0.0</ele><time>2026-05-05T13:30:25.267Z</time></trkpt><trkpt lat="45.7427162" lon="12.6984163"><ele>1.0</ele><time>2026-05-05T13:30:26.267Z</time></trkpt><trkpt lat="45.7426165" lon="12.6981011"><ele>1.0</ele><time>2026-05-05T13:30:27.267Z</time></trkpt><trkpt lat="45.7425123" lon="12.697779"><ele>1.0</ele><time>2026-05-05T13:30:28.267Z</time></trkpt><trkpt lat="45.7424118" lon="12.6974581"><ele>0.5</ele><time>2026-05-05T13:30:29.266Z</time></trkpt><trkpt lat="45.7423064" lon="12.6971392"><ele>0.0</ele><time>2026-05-05T13:30:30.266Z</time></trkpt><trkpt lat="45.7422085" lon="12.6968262"><ele>0.0</ele><time>2026-05-05T13:30:31.266Z</time></trkpt><trkpt lat="45.7421071" lon="12.6965119"><ele>0.0</ele><time>2026-05-05T13:30:32.266Z</time></trkpt><trkpt lat="45.7420085" lon="12.6961959"><ele>-0.5</ele><time>2026-05-05T13:30:33.266Z</time></trkpt><trkpt lat="45.7419071" lon="12.6958759"><ele>-1.0</ele><time>2026-05-05T13:30:34.267Z</time></trkpt><trkpt lat="45.7418092" lon="12.6955598"><ele>-1.5</ele><time>2026-05-05T13:30:35.267Z</time></trkpt><trkpt lat="45.7417074" lon="12.6952378"><ele>-2.0</ele><time>2026-05-05T13:30:36.267Z</time></trkpt><trkpt lat="45.7416073" lon="12.6949233"><ele>-2.0</ele><time>2026-05-05T13:30:37.267Z</time></trkpt><trkpt lat="45.7415097" lon="12.6946063"><ele>-2.0</ele><time>2026-05-05T13:30:38.267Z</time></trkpt><trkpt lat="45.7414098" lon="12.6942804"><ele>-1.5</ele><time>2026-05-05T13:30:39.267Z</time></trkpt><trkpt lat="45.7413006" lon="12.6939405"><ele>-1.0</ele><time>2026-05-05T13:30:40.267Z</time></trkpt><trkpt lat="45.7411929" lon="12.6936041"><ele>-1.5</ele><time>2026-05-05T13:30:41.266Z</time></trkpt><trkpt lat="45.7410815" lon="12.6932619"><ele>-2.0</ele><time>2026-05-05T13:30:42.266Z</time></trkpt><trkpt lat="45.7409685" lon="12.6929181"><ele>-1.5</ele><time>2026-05-05T13:30:43.267Z</time></trkpt><trkpt lat="45.7408559" lon="12.692571"><ele>-1.0</ele><time>2026-05-05T13:30:44.266Z</time></trkpt><trkpt lat="45.7407446" lon="12.6922165"><ele>-1.0</ele><time>2026-05-05T13:30:45.267Z</time></trkpt><trkpt lat="45.7406381" lon="12.6918717"><ele>-1.0</ele><time>2026-05-05T13:30:46.267Z</time></trkpt><trkpt lat="45.7405287" lon="12.6915238"><ele>-1.0</ele><time>2026-05-05T13:30:47.267Z</time></trkpt><trkpt lat="45.7404216" lon="12.6911802"><ele>-1.0</ele><time>2026-05-05T13:30:48.266Z</time></trkpt><trkpt lat="45.7403137" lon="12.6908387"><ele>-0.5</ele><time>2026-05-05T13:30:49.267Z</time></trkpt><trkpt lat="45.7402044" lon="12.690494"><ele>0.0</ele><time>2026-05-05T13:30:50.267Z</time></trkpt><trkpt lat="45.740093" lon="12.690147"><ele>-1.0</ele><time>2026-05-05T13:30:51.266Z</time></trkpt><trkpt lat="45.7399814" lon="12.6898029"><ele>-2.0</ele><time>2026-05-05T13:30:52.267Z</time></trkpt><trkpt lat="45.7398718" lon="12.6894639"><ele>-3.0</ele><time>2026-05-05T13:30:53.267Z</time></trkpt><trkpt lat="45.7397615" lon="12.6891193"><ele>-4.0</ele><time>2026-05-05T13:30:54.266Z</time></trkpt><trkpt lat="45.7396512" lon="12.6887809"><ele>-4.0</ele><time>2026-05-05T13:30:55.266Z</time></trkpt><trkpt lat="45.7395419" lon="12.6884385"><ele>-4.0</ele><time>2026-05-05T13:30:56.267Z</time></trkpt><trkpt lat="45.7394349" lon="12.688091"><ele>-2.5</ele><time>2026-05-05T13:30:57.267Z</time></trkpt><trkpt lat="45.7393225" lon="12.6877436"><ele>-1.0</ele><time>2026-05-05T13:30:58.267Z</time></trkpt><trkpt lat="45.7392111" lon="12.6873914"><ele>-1.0</ele><time>2026-05-05T13:30:59.267Z</time></trkpt><trkpt lat="45.7390997" lon="12.687045"><ele>-1.0</ele><time>2026-05-05T13:31:00.267Z</time></trkpt><trkpt lat="45.7389902" lon="12.6866938"><ele>-1.0</ele><time>2026-05-05T13:31:01.267Z</time></trkpt><trkpt lat="45.7388798" lon="12.6863463"><ele>-1.0</ele><time>2026-05-05T13:31:02.267Z</time></trkpt><trkpt lat="45.7387692" lon="12.6859978"><ele>-1.0</ele><time>2026-05-05T13:31:03.266Z</time></trkpt><trkpt lat="45.7386593" lon="12.6856512"><ele>-1.0</ele><time>2026-05-05T13:31:04.266Z</time></trkpt><trkpt lat="45.7385472" lon="12.685307"><ele>2.0</ele><time>2026-05-05T13:31:05.266Z</time></trkpt><trkpt lat="45.738438" lon="12.6849678"><ele>5.0</ele><time>2026-05-05T13:31:06.267Z</time></trkpt><trkpt lat="45.7383308" lon="12.6846324"><ele>5.0</ele><time>2026-05-05T13:31:07.267Z</time></trkpt><trkpt lat="45.7382241" lon="12.6842908"><ele>5.0</ele><time>2026-05-05T13:31:08.266Z</time></trkpt><trkpt lat="45.7381083" lon="12.6839406"><ele>5.0</ele><time>2026-05-05T13:31:09.267Z</time></trkpt><trkpt lat="45.7379951" lon="12.6835976"><ele>5.0</ele><time>2026-05-05T13:31:10.267Z</time></trkpt><trkpt lat="45.7378851" lon="12.6832524"><ele>5.0</ele><time>2026-05-05T13:31:11.267Z</time></trkpt><trkpt lat="45.7377751" lon="12.6829207"><ele>5.0</ele><time>2026-05-05T13:31:12.266Z</time></trkpt><trkpt lat="45.7376702" lon="12.6825859"><ele>4.5</ele><time>2026-05-05T13:31:13.267Z</time></trkpt><trkpt lat="45.7375683" lon="12.6822619"><ele>4.0</ele><time>2026-05-05T13:31:14.266Z</time></trkpt><trkpt lat="45.7374619" lon="12.6819344"><ele>4.0</ele><time>2026-05-05T13:31:15.267Z</time></trkpt><trkpt lat="45.7373642" lon="12.6816209"><ele>4.0</ele><time>2026-05-05T13:31:16.267Z</time></trkpt><trkpt lat="45.7372639" lon="12.6813105"><ele>3.0</ele><time>2026-05-05T13:31:17.267Z</time></trkpt><trkpt lat="45.7371624" lon="12.6810029"><ele>2.0</ele><time>2026-05-05T13:31:18.266Z</time></trkpt><trkpt lat="45.7370703" lon="12.6806997"><ele>2.0</ele><time>2026-05-05T13:31:19.267Z</time></trkpt><trkpt lat="45.7369755" lon="12.6803903"><ele>2.0</ele><time>2026-05-05T13:31:20.267Z</time></trkpt><trkpt lat="45.7368807" lon="12.6800843"><ele>1.5</ele><time>2026-05-05T13:31:21.267Z</time></trkpt><trkpt lat="45.7367827" lon="12.6797835"><ele>1.0</ele><time>2026-05-05T13:31:22.267Z</time></trkpt><trkpt lat="45.7366849" lon="12.6794798"><ele>1.5</ele><time>2026-05-05T13:31:23.267Z</time></trkpt><trkpt lat="45.7365895" lon="12.6791758"><ele>2.0</ele><time>2026-05-05T13:31:24.267Z</time></trkpt><trkpt lat="45.7364908" lon="12.6788729"><ele>2.0</ele><time>2026-05-05T13:31:25.266Z</time></trkpt><trkpt lat="45.7363929" lon="12.6785645"><ele>2.0</ele><time>2026-05-05T13:31:26.266Z</time></trkpt><trkpt lat="45.7362926" lon="12.6782555"><ele>2.0</ele><time>2026-05-05T13:31:27.267Z</time></trkpt><trkpt lat="45.7361956" lon="12.6779535"><ele>2.0</ele><time>2026-05-05T13:31:28.267Z</time></trkpt><trkpt lat="45.7361021" lon="12.6776514"><ele>1.5</ele><time>2026-05-05T13:31:29.267Z</time></trkpt><trkpt lat="45.7360111" lon="12.6773481"><ele>1.0</ele><time>2026-05-05T13:31:30.267Z</time></trkpt><trkpt lat="45.7359096" lon="12.6770405"><ele>2.0</ele><time>2026-05-05T13:31:31.266Z</time></trkpt><trkpt lat="45.7358111" lon="12.6767381"><ele>3.0</ele><time>2026-05-05T13:31:32.267Z</time></trkpt><trkpt lat="45.7357084" lon="12.6764244"><ele>3.0</ele><time>2026-05-05T13:31:33.267Z</time></trkpt><trkpt lat="45.73561" lon="12.6761121"><ele>3.0</ele><time>2026-05-05T13:31:34.267Z</time></trkpt><trkpt lat="45.7355088" lon="12.6757992"><ele>3.5</ele><time>2026-05-05T13:31:35.267Z</time></trkpt><trkpt lat="45.7354106" lon="12.6754844"><ele>4.0</ele><time>2026-05-05T13:31:36.267Z</time></trkpt><trkpt lat="45.7353151" lon="12.6751819"><ele>4.0</ele><time>2026-05-05T13:31:37.266Z</time></trkpt><trkpt lat="45.7352209" lon="12.6748921"><ele>4.0</ele><time>2026-05-05T13:31:38.267Z</time></trkpt><trkpt lat="45.7351301" lon="12.6746051"><ele>4.0</ele><time>2026-05-05T13:31:39.267Z</time></trkpt><trkpt lat="45.7350358" lon="12.674319"><ele>3.0</ele><time>2026-05-05T13:31:40.267Z</time></trkpt><trkpt lat="45.7349422" lon="12.6740307"><ele>2.0</ele><time>2026-05-05T13:31:41.266Z</time></trkpt><trkpt lat="45.7348521" lon="12.6737385"><ele>1.0</ele><time>2026-05-05T13:31:42.266Z</time></trkpt><trkpt lat="45.7347577" lon="12.673445"><ele>1.0</ele><time>2026-05-05T13:31:43.266Z</time></trkpt><trkpt lat="45.7346606" lon="12.6731469"><ele>1.0</ele><time>2026-05-05T13:31:44.267Z</time></trkpt><trkpt lat="45.7345617" lon="12.67284"><ele>1.5</ele><time>2026-05-05T13:31:45.266Z</time></trkpt><trkpt lat="45.7344646" lon="12.67253"><ele>2.0</ele><time>2026-05-05T13:31:46.266Z</time></trkpt><trkpt lat="45.7343671" lon="12.6722246"><ele>2.0</ele><time>2026-05-05T13:31:47.266Z</time></trkpt><trkpt lat="45.7342673" lon="12.6719017"><ele>2.0</ele><time>2026-05-05T13:31:48.267Z</time></trkpt><trkpt lat="45.7341655" lon="12.6715854"><ele>2.0</ele><time>2026-05-05T13:31:49.267Z</time></trkpt><trkpt lat="45.7340607" lon="12.671263"><ele>2.0</ele><time>2026-05-05T13:31:50.267Z</time></trkpt><trkpt lat="45.7339598" lon="12.67094"><ele>1.0</ele><time>2026-05-05T13:31:51.266Z</time></trkpt><trkpt lat="45.7338568" lon="12.6706229"><ele>0.0</ele><time>2026-05-05T13:31:52.266Z</time></trkpt><trkpt lat="45.7337528" lon="12.6702998"><ele>0.0</ele><time>2026-05-05T13:31:53.267Z</time></trkpt><trkpt lat="45.7336488" lon="12.6699655"><ele>0.0</ele><time>2026-05-05T13:31:54.267Z</time></trkpt><trkpt lat="45.7335476" lon="12.6696438"><ele>-0.5</ele><time>2026-05-05T13:31:55.266Z</time></trkpt><trkpt lat="45.733445" lon="12.6693102"><ele>-1.0</ele><time>2026-05-05T13:31:56.266Z</time></trkpt><trkpt lat="45.7333348" lon="12.6689757"><ele>-1.0</ele><time>2026-05-05T13:31:57.267Z</time></trkpt><trkpt lat="45.7332279" lon="12.6686434"><ele>-1.0</ele><time>2026-05-05T13:31:58.266Z</time></trkpt><trkpt lat="45.7331221" lon="12.6683062"><ele>0.0</ele><time>2026-05-05T13:31:59.267Z</time></trkpt><trkpt lat="45.7330121" lon="12.6679675"><ele>1.0</ele><time>2026-05-05T13:32:00.267Z</time></trkpt><trkpt lat="45.7329052" lon="12.6676319"><ele>1.0</ele><time>2026-05-05T13:32:01.266Z</time></trkpt><trkpt lat="45.7327981" lon="12.6672942"><ele>1.0</ele><time>2026-05-05T13:32:02.266Z</time></trkpt><trkpt lat="45.7326913" lon="12.6669578"><ele>0.0</ele><time>2026-05-05T13:32:03.266Z</time></trkpt><trkpt lat="45.7325807" lon="12.6666164"><ele>-1.0</ele><time>2026-05-05T13:32:04.267Z</time></trkpt><trkpt lat="45.7324713" lon="12.6662832"><ele>0.0</ele><time>2026-05-05T13:32:05.266Z</time></trkpt><trkpt lat="45.7323612" lon="12.6659498"><ele>1.0</ele><time>2026-05-05T13:32:06.267Z</time></trkpt><trkpt lat="45.7322553" lon="12.6656219"><ele>1.0</ele><time>2026-05-05T13:32:07.266Z</time></trkpt><trkpt lat="45.7321537" lon="12.6652876"><ele>1.0</ele><time>2026-05-05T13:32:08.267Z</time></trkpt><trkpt lat="45.7320491" lon="12.6649477"><ele>1.5</ele><time>2026-05-05T13:32:09.266Z</time></trkpt><trkpt lat="45.7319416" lon="12.6646044"><ele>2.0</ele><time>2026-05-05T13:32:10.267Z</time></trkpt><trkpt lat="45.7318301" lon="12.6642591"><ele>1.0</ele><time>2026-05-05T13:32:11.267Z</time></trkpt><trkpt lat="45.7317217" lon="12.6639068"><ele>0.0</ele><time>2026-05-05T13:32:12.267Z</time></trkpt><trkpt lat="45.7316144" lon="12.6635576"><ele>0.0</ele><time>2026-05-05T13:32:13.266Z</time></trkpt><trkpt lat="45.7314996" lon="12.6632049"><ele>0.0</ele><time>2026-05-05T13:32:14.267Z</time></trkpt><trkpt lat="45.7313854" lon="12.6628536"><ele>0.0</ele><time>2026-05-05T13:32:15.267Z</time></trkpt><trkpt lat="45.7312762" lon="12.6625051"><ele>0.0</ele><time>2026-05-05T13:32:16.266Z</time></trkpt><trkpt lat="45.7311668" lon="12.6621561"><ele>-0.5</ele><time>2026-05-05T13:32:17.267Z</time></trkpt><trkpt lat="45.7310588" lon="12.6618061"><ele>-1.0</ele><time>2026-05-05T13:32:18.266Z</time></trkpt><trkpt lat="45.7309472" lon="12.6614568"><ele>0.0</ele><time>2026-05-05T13:32:19.266Z</time></trkpt><trkpt lat="45.730837" lon="12.6611093"><ele>1.0</ele><time>2026-05-05T13:32:20.266Z</time></trkpt><trkpt lat="45.7307289" lon="12.6607651"><ele>1.0</ele><time>2026-05-05T13:32:21.266Z</time></trkpt><trkpt lat="45.730617" lon="12.6604163"><ele>1.0</ele><time>2026-05-05T13:32:22.266Z</time></trkpt><trkpt lat="45.7305079" lon="12.6600702"><ele>1.0</ele><time>2026-05-05T13:32:23.266Z</time></trkpt><trkpt lat="45.7303922" lon="12.6597229"><ele>1.0</ele><time>2026-05-05T13:32:24.267Z</time></trkpt><trkpt lat="45.7302807" lon="12.6593759"><ele>0.5</ele><time>2026-05-05T13:32:25.266Z</time></trkpt><trkpt lat="45.7301685" lon="12.6590269"><ele>0.0</ele><time>2026-05-05T13:32:26.267Z</time></trkpt><trkpt lat="45.7300561" lon="12.6586769"><ele>0.0</ele><time>2026-05-05T13:32:27.266Z</time></trkpt><trkpt lat="45.7299422" lon="12.6583302"><ele>0.0</ele><time>2026-05-05T13:32:28.267Z</time></trkpt><trkpt lat="45.7298294" lon="12.657983"><ele>-0.5</ele><time>2026-05-05T13:32:29.267Z</time></trkpt><trkpt lat="45.7297199" lon="12.6576368"><ele>-1.0</ele><time>2026-05-05T13:32:30.267Z</time></trkpt><trkpt lat="45.7296061" lon="12.6572805"><ele>-1.0</ele><time>2026-05-05T13:32:31.267Z</time></trkpt><trkpt lat="45.7294953" lon="12.6569245"><ele>-1.0</ele><time>2026-05-05T13:32:32.267Z</time></trkpt><trkpt lat="45.7293836" lon="12.6565698"><ele>-1.0</ele><time>2026-05-05T13:32:33.266Z</time></trkpt><trkpt lat="45.7292717" lon="12.6562147"><ele>-1.0</ele><time>2026-05-05T13:32:34.266Z</time></trkpt><trkpt lat="45.7291554" lon="12.6558585"><ele>-1.0</ele><time>2026-05-05T13:32:35.267Z</time></trkpt><trkpt lat="45.7290435" lon="12.6554992"><ele>-1.0</ele><time>2026-05-05T13:32:36.267Z</time></trkpt><trkpt lat="45.7289262" lon="12.655146"><ele>-1.5</ele><time>2026-05-05T13:32:37.267Z</time></trkpt><trkpt lat="45.7288145" lon="12.6547928"><ele>-2.0</ele><time>2026-05-05T13:32:38.267Z</time></trkpt><trkpt lat="45.728703" lon="12.6544393"><ele>-2.0</ele><time>2026-05-05T13:32:39.267Z</time></trkpt><trkpt lat="45.7285901" lon="12.6540875"><ele>-2.0</ele><time>2026-05-05T13:32:40.266Z</time></trkpt><trkpt lat="45.7284742" lon="12.6537352"><ele>-2.5</ele><time>2026-05-05T13:32:41.266Z</time></trkpt><trkpt lat="45.7283539" lon="12.6533773"><ele>-3.0</ele><time>2026-05-05T13:32:42.267Z</time></trkpt><trkpt lat="45.7282314" lon="12.6530235"><ele>-3.0</ele><time>2026-05-05T13:32:43.267Z</time></trkpt><trkpt lat="45.7281145" lon="12.652667"><ele>-3.0</ele><time>2026-05-05T13:32:44.267Z</time></trkpt><trkpt lat="45.7279907" lon="12.6523159"><ele>-3.0</ele><time>2026-05-05T13:32:45.267Z</time></trkpt><trkpt lat="45.7278703" lon="12.6519632"><ele>-3.0</ele><time>2026-05-05T13:32:46.266Z</time></trkpt><trkpt lat="45.7277521" lon="12.6516294"><ele>-2.0</ele><time>2026-05-05T13:32:47.267Z</time></trkpt><trkpt lat="45.7276343" lon="12.651296"><ele>-1.0</ele><time>2026-05-05T13:32:48.267Z</time></trkpt><trkpt lat="45.7275172" lon="12.6509735"><ele>-0.5</ele><time>2026-05-05T13:32:49.267Z</time></trkpt><trkpt lat="45.7273994" lon="12.6506592"><ele>0.0</ele><time>2026-05-05T13:32:50.267Z</time></trkpt><trkpt lat="45.7272837" lon="12.6503477"><ele>0.0</ele><time>2026-05-05T13:32:51.267Z</time></trkpt><trkpt lat="45.7271709" lon="12.6500453"><ele>0.0</ele><time>2026-05-05T13:32:52.267Z</time></trkpt><trkpt lat="45.7270566" lon="12.6497498"><ele>0.0</ele><time>2026-05-05T13:32:53.267Z</time></trkpt><trkpt lat="45.7269467" lon="12.6494606"><ele>0.0</ele><time>2026-05-05T13:32:54.267Z</time></trkpt><trkpt lat="45.7268344" lon="12.649164"><ele>0.0</ele><time>2026-05-05T13:32:55.266Z</time></trkpt><trkpt lat="45.726725" lon="12.6488745"><ele>0.0</ele><time>2026-05-05T13:32:56.266Z</time></trkpt><trkpt lat="45.7266091" lon="12.6485815"><ele>0.5</ele><time>2026-05-05T13:32:57.266Z</time></trkpt><trkpt lat="45.7264923" lon="12.648291"><ele>1.0</ele><time>2026-05-05T13:32:58.267Z</time></trkpt><trkpt lat="45.7263735" lon="12.6480049"><ele>0.3333333333333333</ele><time>2026-05-05T13:32:59.267Z</time></trkpt><trkpt lat="45.726261" lon="12.6477274"><ele>-0.3333333333333333</ele><time>2026-05-05T13:33:00.266Z</time></trkpt><trkpt lat="45.7261496" lon="12.6474488"><ele>-1.0</ele><time>2026-05-05T13:33:01.266Z</time></trkpt><trkpt lat="45.7260338" lon="12.6471726"><ele>-1.0</ele><time>2026-05-05T13:33:02.266Z</time></trkpt><trkpt lat="45.7259211" lon="12.6468879"><ele>-1.0</ele><time>2026-05-05T13:33:03.267Z</time></trkpt><trkpt lat="45.7258061" lon="12.6466106"><ele>-1.0</ele><time>2026-05-05T13:33:04.267Z</time></trkpt><trkpt lat="45.7256895" lon="12.6463335"><ele>-1.0</ele><time>2026-05-05T13:33:05.266Z</time></trkpt><trkpt lat="45.7255693" lon="12.6460509"><ele>0.5</ele><time>2026-05-05T13:33:06.267Z</time></trkpt><trkpt lat="45.7254527" lon="12.6457758"><ele>2.0</ele><time>2026-05-05T13:33:07.267Z</time></trkpt><trkpt lat="45.7253306" lon="12.645494"><ele>-0.5</ele><time>2026-05-05T13:33:08.267Z</time></trkpt><trkpt lat="45.7252093" lon="12.6452174"><ele>-3.0</ele><time>2026-05-05T13:33:09.267Z</time></trkpt><trkpt lat="45.7250788" lon="12.6449244"><ele>-3.0</ele><time>2026-05-05T13:33:10.267Z</time></trkpt><trkpt lat="45.7249387" lon="12.644621"><ele>-3.0</ele><time>2026-05-05T13:33:11.267Z</time></trkpt><trkpt lat="45.724796" lon="12.6443089"><ele>-3.0</ele><time>2026-05-05T13:33:12.267Z</time></trkpt><trkpt lat="45.7246487" lon="12.6439767"><ele>-3.0</ele><time>2026-05-05T13:33:13.267Z</time></trkpt><trkpt lat="45.7244958" lon="12.6436527"><ele>-3.0</ele><time>2026-05-05T13:33:14.267Z</time></trkpt><trkpt lat="45.7243346" lon="12.6433225"><ele>-3.0</ele><time>2026-05-05T13:33:15.266Z</time></trkpt><trkpt lat="45.7241818" lon="12.6429945"><ele>-2.5</ele><time>2026-05-05T13:33:16.267Z</time></trkpt><trkpt lat="45.7240142" lon="12.6426437"><ele>-2.0</ele><time>2026-05-05T13:33:17.266Z</time></trkpt><trkpt lat="45.7238426" lon="12.6422944"><ele>-1.5</ele><time>2026-05-05T13:33:18.266Z</time></trkpt><trkpt lat="45.7236684" lon="12.6419403"><ele>-1.0</ele><time>2026-05-05T13:33:19.267Z</time></trkpt><trkpt lat="45.7234937" lon="12.6415893"><ele>-1.0</ele><time>2026-05-05T13:33:20.266Z</time></trkpt><trkpt lat="45.7233173" lon="12.641244"><ele>-1.0</ele><time>2026-05-05T13:33:21.267Z</time></trkpt><trkpt lat="45.7231432" lon="12.640906"><ele>-0.5</ele><time>2026-05-05T13:33:22.267Z</time></trkpt><trkpt lat="45.7229717" lon="12.6405767"><ele>0.0</ele><time>2026-05-05T13:33:23.266Z</time></trkpt><trkpt lat="45.7227966" lon="12.6402432"><ele>0.0</ele><time>2026-05-05T13:33:24.267Z</time></trkpt><trkpt lat="45.7226224" lon="12.6399098"><ele>0.0</ele><time>2026-05-05T13:33:25.266Z</time></trkpt><trkpt lat="45.7224448" lon="12.639578"><ele>0.0</ele><time>2026-05-05T13:33:26.266Z</time></trkpt><trkpt lat="45.7222638" lon="12.6392433"><ele>0.0</ele><time>2026-05-05T13:33:27.266Z</time></trkpt><trkpt lat="45.7220867" lon="12.6389146"><ele>0.5</ele><time>2026-05-05T13:33:28.267Z</time></trkpt><trkpt lat="45.7219043" lon="12.6385886"><ele>1.0</ele><time>2026-05-05T13:33:29.266Z</time></trkpt><trkpt lat="45.7217275" lon="12.638267"><ele>-0.5</ele><time>2026-05-05T13:33:30.266Z</time></trkpt><trkpt lat="45.7215496" lon="12.6379531"><ele>-2.0</ele><time>2026-05-05T13:33:31.267Z</time></trkpt><trkpt lat="45.7213733" lon="12.6376385"><ele>-3.0</ele><time>2026-05-05T13:33:32.267Z</time></trkpt><trkpt lat="45.7211897" lon="12.6373266"><ele>-4.0</ele><time>2026-05-05T13:33:33.267Z</time></trkpt><trkpt lat="45.7210091" lon="12.6370141"><ele>-1.5</ele><time>2026-05-05T13:33:34.267Z</time></trkpt><trkpt lat="45.7208316" lon="12.6367065"><ele>1.0</ele><time>2026-05-05T13:33:35.266Z</time></trkpt><trkpt lat="45.7206559" lon="12.6364026"><ele>0.5</ele><time>2026-05-05T13:33:36.267Z</time></trkpt><trkpt lat="45.7204794" lon="12.6360968"><ele>0.0</ele><time>2026-05-05T13:33:37.267Z</time></trkpt><trkpt lat="45.7203018" lon="12.6357909"><ele>-1.0</ele><time>2026-05-05T13:33:38.266Z</time></trkpt><trkpt lat="45.720121" lon="12.6354845"><ele>-2.0</ele><time>2026-05-05T13:33:39.266Z</time></trkpt><trkpt lat="45.7199437" lon="12.6351686"><ele>-2.0</ele><time>2026-05-05T13:33:40.266Z</time></trkpt><trkpt lat="45.7197609" lon="12.6348565"><ele>-2.0</ele><time>2026-05-05T13:33:41.267Z</time></trkpt><trkpt lat="45.7195785" lon="12.6345459"><ele>-1.0</ele><time>2026-05-05T13:33:42.267Z</time></trkpt><trkpt lat="45.7193944" lon="12.6342364"><ele>0.0</ele><time>2026-05-05T13:33:43.267Z</time></trkpt><trkpt lat="45.7192133" lon="12.6339226"><ele>0.0</ele><time>2026-05-05T13:33:44.266Z</time></trkpt><trkpt lat="45.719033" lon="12.6336137"><ele>0.0</ele><time>2026-05-05T13:33:45.267Z</time></trkpt><trkpt lat="45.718858" lon="12.6333081"><ele>0.0</ele><time>2026-05-05T13:33:46.267Z</time></trkpt><trkpt lat="45.7186796" lon="12.6330018"><ele>0.0</ele><time>2026-05-05T13:33:47.266Z</time></trkpt><trkpt lat="45.7185022" lon="12.6326988"><ele>-1.0</ele><time>2026-05-05T13:33:48.267Z</time></trkpt><trkpt lat="45.7183257" lon="12.6323917"><ele>-2.0</ele><time>2026-05-05T13:33:49.266Z</time></trkpt><trkpt lat="45.7181557" lon="12.6320866"><ele>-2.0</ele><time>2026-05-05T13:33:50.267Z</time></trkpt><trkpt lat="45.7179814" lon="12.6317855"><ele>-2.0</ele><time>2026-05-05T13:33:51.267Z</time></trkpt><trkpt lat="45.7178036" lon="12.6314886"><ele>-1.0</ele><time>2026-05-05T13:33:52.267Z</time></trkpt><trkpt lat="45.7176303" lon="12.6311879"><ele>0.0</ele><time>2026-05-05T13:33:53.266Z</time></trkpt><trkpt lat="45.7174557" lon="12.6308902"><ele>0.0</ele><time>2026-05-05T13:33:54.266Z</time></trkpt><trkpt lat="45.717292" lon="12.6305997"><ele>0.0</ele><time>2026-05-05T13:33:55.267Z</time></trkpt><trkpt lat="45.7171198" lon="12.6303031"><ele>0.0</ele><time>2026-05-05T13:33:56.267Z</time></trkpt><trkpt lat="45.7169508" lon="12.6300084"><ele>0.0</ele><time>2026-05-05T13:33:57.266Z</time></trkpt><trkpt lat="45.7167805" lon="12.6297176"><ele>0.0</ele><time>2026-05-05T13:33:58.266Z</time></trkpt><trkpt lat="45.7166096" lon="12.6294267"><ele>0.0</ele><time>2026-05-05T13:33:59.267Z</time></trkpt><trkpt lat="45.7164452" lon="12.6291401"><ele>0.0</ele><time>2026-05-05T13:34:00.266Z</time></trkpt><trkpt lat="45.7162629" lon="12.628839"><ele>0.0</ele><time>2026-05-05T13:34:01.267Z</time></trkpt><trkpt lat="45.7160922" lon="12.6285463"><ele>1.0</ele><time>2026-05-05T13:34:02.267Z</time></trkpt><trkpt lat="45.7159237" lon="12.6282547"><ele>2.0</ele><time>2026-05-05T13:34:03.267Z</time></trkpt><trkpt lat="45.7157539" lon="12.6279622"><ele>1.5</ele><time>2026-05-05T13:34:04.267Z</time></trkpt><trkpt lat="45.7155833" lon="12.62767"><ele>1.0</ele><time>2026-05-05T13:34:05.266Z</time></trkpt><trkpt lat="45.7154139" lon="12.6273814"><ele>1.0</ele><time>2026-05-05T13:34:06.266Z</time></trkpt><trkpt lat="45.7152504" lon="12.6270956"><ele>1.0</ele><time>2026-05-05T13:34:07.267Z</time></trkpt><trkpt lat="45.7150826" lon="12.6268028"><ele>0.5</ele><time>2026-05-05T13:34:08.267Z</time></trkpt><trkpt lat="45.714915" lon="12.6265104"><ele>0.0</ele><time>2026-05-05T13:34:09.266Z</time></trkpt><trkpt lat="45.7147492" lon="12.6262141"><ele>0.5</ele><time>2026-05-05T13:34:10.267Z</time></trkpt><trkpt lat="45.7145801" lon="12.6259233"><ele>1.0</ele><time>2026-05-05T13:34:11.267Z</time></trkpt><trkpt lat="45.714412" lon="12.6256318"><ele>1.5</ele><time>2026-05-05T13:34:12.266Z</time></trkpt><trkpt lat="45.7142448" lon="12.6253411"><ele>2.0</ele><time>2026-05-05T13:34:13.267Z</time></trkpt><trkpt lat="45.7140742" lon="12.6250482"><ele>2.0</ele><time>2026-05-05T13:34:14.267Z</time></trkpt><trkpt lat="45.7139047" lon="12.6247553"><ele>2.0</ele><time>2026-05-05T13:34:15.266Z</time></trkpt><trkpt lat="45.7137379" lon="12.6244655"><ele>1.0</ele><time>2026-05-05T13:34:16.266Z</time></trkpt><trkpt lat="45.713573" lon="12.6241825"><ele>0.0</ele><time>2026-05-05T13:34:17.267Z</time></trkpt><trkpt lat="45.7134089" lon="12.6239042"><ele>-0.5</ele><time>2026-05-05T13:34:18.267Z</time></trkpt><trkpt lat="45.7132493" lon="12.6236256"><ele>-1.0</ele><time>2026-05-05T13:34:19.267Z</time></trkpt><trkpt lat="45.7130949" lon="12.6233448"><ele>-1.0</ele><time>2026-05-05T13:34:20.266Z</time></trkpt><trkpt lat="45.7129407" lon="12.6230666"><ele>-1.0</ele><time>2026-05-05T13:34:21.266Z</time></trkpt><trkpt lat="45.7127857" lon="12.6227928"><ele>0.0</ele><time>2026-05-05T13:34:22.266Z</time></trkpt><trkpt lat="45.7126324" lon="12.6225218"><ele>1.0</ele><time>2026-05-05T13:34:23.267Z</time></trkpt><trkpt lat="45.7124768" lon="12.6222462"><ele>1.5</ele><time>2026-05-05T13:34:24.266Z</time></trkpt><trkpt lat="45.7123186" lon="12.6219651"><ele>2.0</ele><time>2026-05-05T13:34:25.267Z</time></trkpt><trkpt lat="45.7121608" lon="12.6216889"><ele>2.0</ele><time>2026-05-05T13:34:26.267Z</time></trkpt><trkpt lat="45.712005" lon="12.6214199"><ele>2.0</ele><time>2026-05-05T13:34:27.267Z</time></trkpt><trkpt lat="45.7118499" lon="12.6211485"><ele>2.0</ele><time>2026-05-05T13:34:28.266Z</time></trkpt><trkpt lat="45.7116922" lon="12.6208763"><ele>2.0</ele><time>2026-05-05T13:34:29.267Z</time></trkpt><trkpt lat="45.7115433" lon="12.6206163"><ele>2.0</ele><time>2026-05-05T13:34:30.267Z</time></trkpt><trkpt lat="45.7113935" lon="12.6203574"><ele>2.0</ele><time>2026-05-05T13:34:31.267Z</time></trkpt><trkpt lat="45.7112434" lon="12.6200944"><ele>1.5</ele><time>2026-05-05T13:34:32.266Z</time></trkpt><trkpt lat="45.7110914" lon="12.619832"><ele>1.0</ele><time>2026-05-05T13:34:33.267Z</time></trkpt><trkpt lat="45.7109446" lon="12.6195764"><ele>2.0</ele><time>2026-05-05T13:34:34.266Z</time></trkpt><trkpt lat="45.7107998" lon="12.6193187"><ele>3.0</ele><time>2026-05-05T13:34:35.267Z</time></trkpt><trkpt lat="45.7106563" lon="12.6190588"><ele>3.0</ele><time>2026-05-05T13:34:36.267Z</time></trkpt><trkpt lat="45.7105129" lon="12.6187987"><ele>3.0</ele><time>2026-05-05T13:34:37.267Z</time></trkpt><trkpt lat="45.7103696" lon="12.6185404"><ele>2.5</ele><time>2026-05-05T13:34:38.267Z</time></trkpt><trkpt lat="45.7102271" lon="12.6182724"><ele>2.0</ele><time>2026-05-05T13:34:39.267Z</time></trkpt><trkpt lat="45.7100846" lon="12.6180151"><ele>2.0</ele><time>2026-05-05T13:34:40.267Z</time></trkpt><trkpt lat="45.7099455" lon="12.6177547"><ele>2.0</ele><time>2026-05-05T13:34:41.267Z</time></trkpt><trkpt lat="45.7098092" lon="12.6174932"><ele>2.0</ele><time>2026-05-05T13:34:42.266Z</time></trkpt><trkpt lat="45.7096718" lon="12.6172262"><ele>2.0</ele><time>2026-05-05T13:34:43.266Z</time></trkpt><trkpt lat="45.7095342" lon="12.61696"><ele>2.0</ele><time>2026-05-05T13:34:44.267Z</time></trkpt><trkpt lat="45.7093977" lon="12.616693"><ele>2.0</ele><time>2026-05-05T13:34:45.267Z</time></trkpt><trkpt lat="45.709262" lon="12.6164271"><ele>2.0</ele><time>2026-05-05T13:34:46.267Z</time></trkpt><trkpt lat="45.7091297" lon="12.6161674"><ele>2.0</ele><time>2026-05-05T13:34:47.267Z</time></trkpt><trkpt lat="45.709002" lon="12.6159104"><ele>2.0</ele><time>2026-05-05T13:34:48.266Z</time></trkpt><trkpt lat="45.7088736" lon="12.6156473"><ele>1.5</ele><time>2026-05-05T13:34:49.267Z</time></trkpt><trkpt lat="45.7087435" lon="12.6153811"><ele>1.0</ele><time>2026-05-05T13:34:50.267Z</time></trkpt><trkpt lat="45.7086154" lon="12.6151155"><ele>2.0</ele><time>2026-05-05T13:34:51.267Z</time></trkpt><trkpt lat="45.7084874" lon="12.6148442"><ele>3.0</ele><time>2026-05-05T13:34:52.267Z</time></trkpt><trkpt lat="45.7083605" lon="12.6145727"><ele>2.5</ele><time>2026-05-05T13:34:53.267Z</time></trkpt><trkpt lat="45.7082325" lon="12.6143041"><ele>2.0</ele><time>2026-05-05T13:34:54.267Z</time></trkpt><trkpt lat="45.7081091" lon="12.6140308"><ele>2.0</ele><time>2026-05-05T13:34:55.266Z</time></trkpt><trkpt lat="45.707983" lon="12.6137637"><ele>2.0</ele><time>2026-05-05T13:34:56.266Z</time></trkpt><trkpt lat="45.7078572" lon="12.6134864"><ele>1.5</ele><time>2026-05-05T13:34:57.267Z</time></trkpt><trkpt lat="45.7077302" lon="12.6132138"><ele>1.0</ele><time>2026-05-05T13:34:58.267Z</time></trkpt><trkpt lat="45.7076076" lon="12.6129441"><ele>1.3333333333333333</ele><time>2026-05-05T13:34:59.267Z</time></trkpt><trkpt lat="45.7074924" lon="12.6126696"><ele>1.6666666666666665</ele><time>2026-05-05T13:35:00.267Z</time></trkpt><trkpt lat="45.7073728" lon="12.6123954"><ele>2.0</ele><time>2026-05-05T13:35:01.267Z</time></trkpt><trkpt lat="45.7072592" lon="12.6121271"><ele>2.0</ele><time>2026-05-05T13:35:02.267Z</time></trkpt><trkpt lat="45.7071433" lon="12.6118571"><ele>2.0</ele><time>2026-05-05T13:35:03.267Z</time></trkpt><trkpt lat="45.7070269" lon="12.6115931"><ele>2.0</ele><time>2026-05-05T13:35:04.267Z</time></trkpt><trkpt lat="45.7069081" lon="12.6113301"><ele>1.6666666666666665</ele><time>2026-05-05T13:35:05.267Z</time></trkpt><trkpt lat="45.7067934" lon="12.6110643"><ele>1.3333333333333333</ele><time>2026-05-05T13:35:06.267Z</time></trkpt><trkpt lat="45.7066891" lon="12.6108156"><ele>1.0</ele><time>2026-05-05T13:35:07.266Z</time></trkpt><trkpt lat="45.7065815" lon="12.6105439"><ele>1.0</ele><time>2026-05-05T13:35:08.267Z</time></trkpt><trkpt lat="45.7064725" lon="12.6102773"><ele>1.0</ele><time>2026-05-05T13:35:09.267Z</time></trkpt><trkpt lat="45.7063647" lon="12.6100072"><ele>1.0</ele><time>2026-05-05T13:35:10.267Z</time></trkpt><trkpt lat="45.7062578" lon="12.6097351"><ele>1.0</ele><time>2026-05-05T13:35:11.267Z</time></trkpt><trkpt lat="45.7061516" lon="12.6094647"><ele>1.0</ele><time>2026-05-05T13:35:12.266Z</time></trkpt><trkpt lat="45.7060483" lon="12.6092006"><ele>1.0</ele><time>2026-05-05T13:35:13.267Z</time></trkpt><trkpt lat="45.7059428" lon="12.6089301"><ele>1.0</ele><time>2026-05-05T13:35:14.266Z</time></trkpt><trkpt lat="45.7058399" lon="12.6086638"><ele>1.0</ele><time>2026-05-05T13:35:15.267Z</time></trkpt><trkpt lat="45.7057338" lon="12.6083895"><ele>1.0</ele><time>2026-05-05T13:35:16.266Z</time></trkpt><trkpt lat="45.7056344" lon="12.6081203"><ele>1.0</ele><time>2026-05-05T13:35:17.267Z</time></trkpt><trkpt lat="45.7055372" lon="12.607854"><ele>1.0</ele><time>2026-05-05T13:35:18.267Z</time></trkpt><trkpt lat="45.7054352" lon="12.6075832"><ele>1.0</ele><time>2026-05-05T13:35:19.266Z</time></trkpt><trkpt lat="45.7053422" lon="12.6073241"><ele>1.0</ele><time>2026-05-05T13:35:20.267Z</time></trkpt><trkpt lat="45.7052548" lon="12.6070731"><ele>1.0</ele><time>2026-05-05T13:35:21.267Z</time></trkpt><trkpt lat="45.7051713" lon="12.6068338"><ele>1.0</ele><time>2026-05-05T13:35:22.266Z</time></trkpt><trkpt lat="45.7050851" lon="12.606598"><ele>1.0</ele><time>2026-05-05T13:35:23.266Z</time></trkpt><trkpt lat="45.7050074" lon="12.6063837"><ele>1.0</ele><time>2026-05-05T13:35:24.266Z</time></trkpt><trkpt lat="45.7049344" lon="12.6061718"><ele>1.0</ele><time>2026-05-05T13:35:25.267Z</time></trkpt><trkpt lat="45.7048616" lon="12.6059574"><ele>1.0</ele><time>2026-05-05T13:35:26.267Z</time></trkpt><trkpt lat="45.7047964" lon="12.6057614"><ele>1.0</ele><time>2026-05-05T13:35:27.267Z</time></trkpt><trkpt lat="45.7047344" lon="12.6055669"><ele>1.0</ele><time>2026-05-05T13:35:28.266Z</time></trkpt><trkpt lat="45.7046812" lon="12.6053812"><ele>1.0</ele><time>2026-05-05T13:35:29.267Z</time></trkpt><trkpt lat="45.7046424" lon="12.6052037"><ele>1.0</ele><time>2026-05-05T13:35:30.267Z</time></trkpt><trkpt lat="45.7046109" lon="12.6050335"><ele>1.0</ele><time>2026-05-05T13:35:31.267Z</time></trkpt><trkpt lat="45.704598" lon="12.6048654"><ele>1.0</ele><time>2026-05-05T13:35:32.267Z</time></trkpt><trkpt lat="45.7045895" lon="12.6047024"><ele>1.0</ele><time>2026-05-05T13:35:33.267Z</time></trkpt><trkpt lat="45.7045886" lon="12.6045601"><ele>1.2000000000000002</ele><time>2026-05-05T13:35:34.266Z</time></trkpt><trkpt lat="45.7045867" lon="12.6044251"><ele>1.4000000000000001</ele><time>2026-05-05T13:35:35.267Z</time></trkpt><trkpt lat="45.7045832" lon="12.6043102"><ele>1.6</ele><time>2026-05-05T13:35:36.267Z</time></trkpt><trkpt lat="45.7045492" lon="12.6041505"><ele>1.8</ele><time>2026-05-05T13:35:38.266Z</time></trkpt><trkpt lat="45.7045125" lon="12.6040704"><ele>2.0</ele><time>2026-05-05T13:35:39.266Z</time></trkpt><trkpt lat="45.704485" lon="12.603921"><ele>1.9999999999999998</ele><time>2026-05-05T13:35:41.266Z</time></trkpt><trkpt lat="45.7044656" lon="12.6037825"><ele>2.0</ele><time>2026-05-05T13:35:43.267Z</time></trkpt><trkpt lat="45.7044738" lon="12.6036775"><ele>2.0</ele><time>2026-05-05T13:35:45.267Z</time></trkpt><trkpt lat="45.7045039" lon="12.6035901"><ele>2.0</ele><time>2026-05-05T13:35:47.267Z</time></trkpt><trkpt lat="45.7045063" lon="12.6034847"><ele>1.9999999999999998</ele><time>2026-05-05T13:35:49.266Z</time></trkpt><trkpt lat="45.7045012" lon="12.6033912"><ele>2.0</ele><time>2026-05-05T13:35:51.267Z</time></trkpt><trkpt lat="45.7045023" lon="12.6032815"><ele>2.1666666666666665</ele><time>2026-05-05T13:35:54.267Z</time></trkpt><trkpt lat="45.7045761" lon="12.6032001"><ele>2.333333333333333</ele><time>2026-05-05T13:38:07.267Z</time></trkpt><trkpt lat="45.704513" lon="12.6032094"><ele>2.5</ele><time>2026-05-05T13:46:46.267Z</time></trkpt><trkpt lat="45.7044486" lon="12.6031917"><ele>2.6666666666666665</ele><time>2026-05-05T13:48:06.264Z</time></trkpt><trkpt lat="45.7043799" lon="12.6031227"><ele>2.8333333333333335</ele><time>2026-05-05T13:48:08.265Z</time></trkpt><trkpt lat="45.7043039" lon="12.6030041"><ele>3.0</ele><time>2026-05-05T13:48:10.264Z</time></trkpt><trkpt lat="45.7042597" lon="12.602929"><ele>3.0</ele><time>2026-05-05T13:48:11.264Z</time></trkpt><trkpt lat="45.7042188" lon="12.6028454"><ele>3.0</ele><time>2026-05-05T13:48:12.265Z</time></trkpt><trkpt lat="45.7041758" lon="12.602758"><ele>3.0</ele><time>2026-05-05T13:48:13.264Z</time></trkpt><trkpt lat="45.7041379" lon="12.6026792"><ele>3.0</ele><time>2026-05-05T13:48:14.264Z</time></trkpt><trkpt lat="45.7041031" lon="12.602593"><ele>3.0</ele><time>2026-05-05T13:48:15.265Z</time></trkpt><trkpt lat="45.7040384" lon="12.6024442"><ele>3.0</ele><time>2026-05-05T13:48:17.265Z</time></trkpt><trkpt lat="45.7039899" lon="12.6023755"><ele>2.8333333333333335</ele><time>2026-05-05T13:48:18.264Z</time></trkpt><trkpt lat="45.703942" lon="12.6023002"><ele>2.6666666666666665</ele><time>2026-05-05T13:48:19.265Z</time></trkpt><trkpt lat="45.703883" lon="12.6022304"><ele>2.5</ele><time>2026-05-05T13:48:20.265Z</time></trkpt><trkpt lat="45.7038207" lon="12.6021517"><ele>2.333333333333333</ele><time>2026-05-05T13:48:21.265Z</time></trkpt><trkpt lat="45.7037506" lon="12.6020782"><ele>2.1666666666666665</ele><time>2026-05-05T13:48:22.265Z</time></trkpt><trkpt lat="45.703677" lon="12.6019874"><ele>2.0</ele><time>2026-05-05T13:48:23.265Z</time></trkpt><trkpt lat="45.7035986" lon="12.6018869"><ele>1.75</ele><time>2026-05-05T13:48:24.265Z</time></trkpt><trkpt lat="45.7035157" lon="12.601775"><ele>1.5</ele><time>2026-05-05T13:48:25.265Z</time></trkpt><trkpt lat="45.7034365" lon="12.6016577"><ele>1.25</ele><time>2026-05-05T13:48:26.264Z</time></trkpt><trkpt lat="45.7033564" lon="12.6015336"><ele>1.0</ele><time>2026-05-05T13:48:27.265Z</time></trkpt><trkpt lat="45.703279" lon="12.6013995"><ele>1.0</ele><time>2026-05-05T13:48:28.264Z</time></trkpt><trkpt lat="45.7032066" lon="12.6012532"><ele>1.0</ele><time>2026-05-05T13:48:29.264Z</time></trkpt><trkpt lat="45.7031313" lon="12.601092"><ele>1.0</ele><time>2026-05-05T13:48:30.264Z</time></trkpt><trkpt lat="45.7030448" lon="12.6008819"><ele>1.0</ele><time>2026-05-05T13:48:31.265Z</time></trkpt><trkpt lat="45.7029575" lon="12.6006572"><ele>1.0</ele><time>2026-05-05T13:48:32.265Z</time></trkpt><trkpt lat="45.7028649" lon="12.6004116"><ele>1.0</ele><time>2026-05-05T13:48:33.265Z</time></trkpt><trkpt lat="45.7027669" lon="12.600163"><ele>1.0</ele><time>2026-05-05T13:48:34.264Z</time></trkpt><trkpt lat="45.7026655" lon="12.5998997"><ele>1.3333333333333333</ele><time>2026-05-05T13:48:35.264Z</time></trkpt><trkpt lat="45.702565" lon="12.5996416"><ele>1.6666666666666665</ele><time>2026-05-05T13:48:36.265Z</time></trkpt><trkpt lat="45.7024685" lon="12.5993837"><ele>2.0</ele><time>2026-05-05T13:48:37.265Z</time></trkpt><trkpt lat="45.7023769" lon="12.5991356"><ele>2.0</ele><time>2026-05-05T13:48:38.265Z</time></trkpt><trkpt lat="45.7022905" lon="12.5988883"><ele>2.0</ele><time>2026-05-05T13:48:39.264Z</time></trkpt><trkpt lat="45.7022008" lon="12.5986465"><ele>2.0</ele><time>2026-05-05T13:48:40.264Z</time></trkpt><trkpt lat="45.7021137" lon="12.5983983"><ele>2.0</ele><time>2026-05-05T13:48:41.264Z</time></trkpt><trkpt lat="45.7020258" lon="12.5981569"><ele>2.0</ele><time>2026-05-05T13:48:42.265Z</time></trkpt><trkpt lat="45.7019407" lon="12.5979118"><ele>2.0</ele><time>2026-05-05T13:48:43.265Z</time></trkpt><trkpt lat="45.701851" lon="12.5976657"><ele>2.0</ele><time>2026-05-05T13:48:44.265Z</time></trkpt><trkpt lat="45.7017638" lon="12.5974238"><ele>2.0</ele><time>2026-05-05T13:48:45.265Z</time></trkpt><trkpt lat="45.7016806" lon="12.5971899"><ele>2.0</ele><time>2026-05-05T13:48:46.264Z</time></trkpt><trkpt lat="45.7015956" lon="12.5969445"><ele>2.0</ele><time>2026-05-05T13:48:47.264Z</time></trkpt><trkpt lat="45.7015107" lon="12.5967013"><ele>2.0</ele><time>2026-05-05T13:48:48.264Z</time></trkpt><trkpt lat="45.701425" lon="12.5964602"><ele>2.0</ele><time>2026-05-05T13:48:49.265Z</time></trkpt><trkpt lat="45.7013371" lon="12.596217"><ele>2.0</ele><time>2026-05-05T13:48:50.264Z</time></trkpt><trkpt lat="45.7012505" lon="12.5959744"><ele>2.0</ele><time>2026-05-05T13:48:51.264Z</time></trkpt><trkpt lat="45.7011626" lon="12.5957251"><ele>2.0</ele><time>2026-05-05T13:48:52.264Z</time></trkpt><trkpt lat="45.7010753" lon="12.5954811"><ele>1.0</ele><time>2026-05-05T13:48:53.264Z</time></trkpt><trkpt lat="45.7009844" lon="12.595234"><ele>0.0</ele><time>2026-05-05T13:48:54.265Z</time></trkpt><trkpt lat="45.7008959" lon="12.5949871"><ele>-1.0</ele><time>2026-05-05T13:48:55.264Z</time></trkpt><trkpt lat="45.7008037" lon="12.5947337"><ele>-0.3333333333333333</ele><time>2026-05-05T13:48:56.264Z</time></trkpt><trkpt lat="45.7007101" lon="12.5944826"><ele>0.3333333333333333</ele><time>2026-05-05T13:48:57.265Z</time></trkpt><trkpt lat="45.7006142" lon="12.5942285"><ele>1.0</ele><time>2026-05-05T13:48:58.265Z</time></trkpt><trkpt lat="45.7005196" lon="12.5939736"><ele>1.0</ele><time>2026-05-05T13:48:59.265Z</time></trkpt><trkpt lat="45.7004274" lon="12.5937263"><ele>1.0</ele><time>2026-05-05T13:49:00.265Z</time></trkpt><trkpt lat="45.7003396" lon="12.5934724"><ele>1.0</ele><time>2026-05-05T13:49:01.265Z</time></trkpt><trkpt lat="45.7002521" lon="12.5932264"><ele>1.3333333333333333</ele><time>2026-05-05T13:49:02.264Z</time></trkpt><trkpt lat="45.7001603" lon="12.5929801"><ele>1.6666666666666665</ele><time>2026-05-05T13:49:03.265Z</time></trkpt><trkpt lat="45.7000686" lon="12.5927309"><ele>2.0</ele><time>2026-05-05T13:49:04.264Z</time></trkpt><trkpt lat="45.6999813" lon="12.592482"><ele>2.0</ele><time>2026-05-05T13:49:05.265Z</time></trkpt><trkpt lat="45.6998913" lon="12.5922315"><ele>2.0</ele><time>2026-05-05T13:49:06.265Z</time></trkpt><trkpt lat="45.6998027" lon="12.5919773"><ele>2.0</ele><time>2026-05-05T13:49:07.265Z</time></trkpt><trkpt lat="45.6997077" lon="12.5917201"><ele>2.0</ele><time>2026-05-05T13:49:08.265Z</time></trkpt><trkpt lat="45.6996161" lon="12.5914666"><ele>2.0</ele><time>2026-05-05T13:49:09.265Z</time></trkpt><trkpt lat="45.6995214" lon="12.5912092"><ele>2.0</ele><time>2026-05-05T13:49:10.264Z</time></trkpt><trkpt lat="45.6994239" lon="12.5909576"><ele>1.3333333333333333</ele><time>2026-05-05T13:49:11.264Z</time></trkpt><trkpt lat="45.6993242" lon="12.5906967"><ele>0.6666666666666666</ele><time>2026-05-05T13:49:12.265Z</time></trkpt><trkpt lat="45.6992264" lon="12.5904421"><ele>0.0</ele><time>2026-05-05T13:49:13.265Z</time></trkpt><trkpt lat="45.6991378" lon="12.5901996"><ele>0.0</ele><time>2026-05-05T13:49:14.265Z</time></trkpt><trkpt lat="45.6990459" lon="12.5899441"><ele>0.0</ele><time>2026-05-05T13:49:15.264Z</time></trkpt><trkpt lat="45.6989514" lon="12.5896936"><ele>0.0</ele><time>2026-05-05T13:49:16.264Z</time></trkpt><trkpt lat="45.6988526" lon="12.5894358"><ele>0.0</ele><time>2026-05-05T13:49:17.264Z</time></trkpt><trkpt lat="45.698757" lon="12.5891837"><ele>0.0</ele><time>2026-05-05T13:49:18.265Z</time></trkpt><trkpt lat="45.6986561" lon="12.588929"><ele>0.0</ele><time>2026-05-05T13:49:19.265Z</time></trkpt><trkpt lat="45.6985596" lon="12.588679"><ele>0.0</ele><time>2026-05-05T13:49:20.264Z</time></trkpt><trkpt lat="45.6984613" lon="12.5884312"><ele>0.0</ele><time>2026-05-05T13:49:21.264Z</time></trkpt><trkpt lat="45.6983643" lon="12.5881845"><ele>0.0</ele><time>2026-05-05T13:49:22.265Z</time></trkpt><trkpt lat="45.6982638" lon="12.5879436"><ele>0.0</ele><time>2026-05-05T13:49:23.265Z</time></trkpt><trkpt lat="45.6981667" lon="12.5877011"><ele>0.0</ele><time>2026-05-05T13:49:24.265Z</time></trkpt><trkpt lat="45.6980686" lon="12.5874584"><ele>0.0</ele><time>2026-05-05T13:49:25.264Z</time></trkpt><trkpt lat="45.6979682" lon="12.5872168"><ele>0.3333333333333333</ele><time>2026-05-05T13:49:26.264Z</time></trkpt><trkpt lat="45.6978652" lon="12.5869775"><ele>0.6666666666666666</ele><time>2026-05-05T13:49:27.265Z</time></trkpt><trkpt lat="45.6977678" lon="12.5867451"><ele>1.0</ele><time>2026-05-05T13:49:28.264Z</time></trkpt><trkpt lat="45.697666" lon="12.5865009"><ele>1.0</ele><time>2026-05-05T13:49:29.265Z</time></trkpt><trkpt lat="45.6975629" lon="12.5862562"><ele>1.0</ele><time>2026-05-05T13:49:30.264Z</time></trkpt><trkpt lat="45.6974536" lon="12.5860062"><ele>1.0</ele><time>2026-05-05T13:49:31.264Z</time></trkpt><trkpt lat="45.6973409" lon="12.5857583"><ele>1.0</ele><time>2026-05-05T13:49:32.265Z</time></trkpt><trkpt lat="45.6972264" lon="12.5855094"><ele>1.0</ele><time>2026-05-05T13:49:33.264Z</time></trkpt><trkpt lat="45.6971123" lon="12.5852614"><ele>1.0</ele><time>2026-05-05T13:49:34.265Z</time></trkpt><trkpt lat="45.6969967" lon="12.5850048"><ele>1.0</ele><time>2026-05-05T13:49:35.264Z</time></trkpt><trkpt lat="45.6968842" lon="12.5847489"><ele>1.0</ele><time>2026-05-05T13:49:36.265Z</time></trkpt><trkpt lat="45.696768" lon="12.5844988"><ele>1.0</ele><time>2026-05-05T13:49:37.265Z</time></trkpt><trkpt lat="45.6966504" lon="12.5842479"><ele>0.6666666666666666</ele><time>2026-05-05T13:49:38.265Z</time></trkpt><trkpt lat="45.6965292" lon="12.583992"><ele>0.3333333333333333</ele><time>2026-05-05T13:49:39.265Z</time></trkpt><trkpt lat="45.6964076" lon="12.5837368"><ele>0.0</ele><time>2026-05-05T13:49:40.265Z</time></trkpt><trkpt lat="45.6962902" lon="12.5834819"><ele>-0.3333333333333333</ele><time>2026-05-05T13:49:41.264Z</time></trkpt><trkpt lat="45.6961662" lon="12.5832209"><ele>-0.6666666666666666</ele><time>2026-05-05T13:49:42.265Z</time></trkpt><trkpt lat="45.6960429" lon="12.5829594"><ele>-1.0</ele><time>2026-05-05T13:49:43.264Z</time></trkpt><trkpt lat="45.6959201" lon="12.5826994"><ele>0.5</ele><time>2026-05-05T13:49:44.264Z</time></trkpt><trkpt lat="45.6957934" lon="12.582435"><ele>2.0</ele><time>2026-05-05T13:49:45.265Z</time></trkpt><trkpt lat="45.6956646" lon="12.5821685"><ele>2.0</ele><time>2026-05-05T13:49:46.264Z</time></trkpt><trkpt lat="45.6955393" lon="12.5818935"><ele>2.0</ele><time>2026-05-05T13:49:47.265Z</time></trkpt><trkpt lat="45.695407" lon="12.5816215"><ele>2.0</ele><time>2026-05-05T13:49:48.264Z</time></trkpt><trkpt lat="45.6952773" lon="12.581352"><ele>2.0</ele><time>2026-05-05T13:49:49.265Z</time></trkpt><trkpt lat="45.695145" lon="12.5810773"><ele>1.0</ele><time>2026-05-05T13:49:50.265Z</time></trkpt><trkpt lat="45.6950114" lon="12.5808024"><ele>0.0</ele><time>2026-05-05T13:49:51.265Z</time></trkpt><trkpt lat="45.6948823" lon="12.5805314"><ele>0.0</ele><time>2026-05-05T13:49:52.265Z</time></trkpt><trkpt lat="45.6947518" lon="12.5802541"><ele>0.0</ele><time>2026-05-05T13:49:53.265Z</time></trkpt><trkpt lat="45.694622" lon="12.5799797"><ele>0.0</ele><time>2026-05-05T13:49:54.265Z</time></trkpt><trkpt lat="45.6944888" lon="12.5797024"><ele>0.0</ele><time>2026-05-05T13:49:55.264Z</time></trkpt><trkpt lat="45.6943537" lon="12.5794235"><ele>0.0</ele><time>2026-05-05T13:49:56.265Z</time></trkpt><trkpt lat="45.6942176" lon="12.579141"><ele>0.0</ele><time>2026-05-05T13:49:57.264Z</time></trkpt><trkpt lat="45.6940819" lon="12.5788549"><ele>0.5</ele><time>2026-05-05T13:49:58.264Z</time></trkpt><trkpt lat="45.6939447" lon="12.5785655"><ele>1.0</ele><time>2026-05-05T13:49:59.265Z</time></trkpt><trkpt lat="45.6938052" lon="12.5782756"><ele>1.0</ele><time>2026-05-05T13:50:00.264Z</time></trkpt><trkpt lat="45.6936619" lon="12.5779807"><ele>1.0</ele><time>2026-05-05T13:50:01.265Z</time></trkpt><trkpt lat="45.6935212" lon="12.5776825"><ele>0.0</ele><time>2026-05-05T13:50:02.265Z</time></trkpt><trkpt lat="45.6933811" lon="12.5773774"><ele>-1.0</ele><time>2026-05-05T13:50:03.264Z</time></trkpt><trkpt lat="45.6932362" lon="12.5770782"><ele>-1.0</ele><time>2026-05-05T13:50:04.265Z</time></trkpt><trkpt lat="45.6930925" lon="12.5767783"><ele>-1.0</ele><time>2026-05-05T13:50:05.264Z</time></trkpt><trkpt lat="45.6929506" lon="12.5764795"><ele>-1.5</ele><time>2026-05-05T13:50:06.265Z</time></trkpt><trkpt lat="45.6928099" lon="12.576181"><ele>-2.0</ele><time>2026-05-05T13:50:07.264Z</time></trkpt><trkpt lat="45.6926704" lon="12.5758817"><ele>-2.0</ele><time>2026-05-05T13:50:08.264Z</time></trkpt><trkpt lat="45.6925287" lon="12.5755798"><ele>-2.0</ele><time>2026-05-05T13:50:09.265Z</time></trkpt><trkpt lat="45.6923858" lon="12.5752806"><ele>-2.5</ele><time>2026-05-05T13:50:10.264Z</time></trkpt><trkpt lat="45.6922429" lon="12.5749837"><ele>-3.0</ele><time>2026-05-05T13:50:11.264Z</time></trkpt><trkpt lat="45.6920988" lon="12.5746867"><ele>-2.5</ele><time>2026-05-05T13:50:12.265Z</time></trkpt><trkpt lat="45.6919528" lon="12.5743825"><ele>-2.0</ele><time>2026-05-05T13:50:13.264Z</time></trkpt><trkpt lat="45.6918091" lon="12.574079"><ele>-1.5</ele><time>2026-05-05T13:50:14.264Z</time></trkpt><trkpt lat="45.691665" lon="12.5737751"><ele>-1.0</ele><time>2026-05-05T13:50:15.264Z</time></trkpt><trkpt lat="45.6915213" lon="12.5734738"><ele>0.0</ele><time>2026-05-05T13:50:16.264Z</time></trkpt><trkpt lat="45.6913788" lon="12.5731703"><ele>1.0</ele><time>2026-05-05T13:50:17.264Z</time></trkpt><trkpt lat="45.6912339" lon="12.5728665"><ele>-0.5</ele><time>2026-05-05T13:50:18.265Z</time></trkpt><trkpt lat="45.6910894" lon="12.5725639"><ele>-2.0</ele><time>2026-05-05T13:50:19.265Z</time></trkpt><trkpt lat="45.6909406" lon="12.5722549"><ele>-1.5</ele><time>2026-05-05T13:50:20.265Z</time></trkpt><trkpt lat="45.6907857" lon="12.5719334"><ele>-1.0</ele><time>2026-05-05T13:50:21.265Z</time></trkpt><trkpt lat="45.6906277" lon="12.5716035"><ele>-1.0</ele><time>2026-05-05T13:50:22.264Z</time></trkpt><trkpt lat="45.6904652" lon="12.5712677"><ele>-1.0</ele><time>2026-05-05T13:50:23.265Z</time></trkpt><trkpt lat="45.6903041" lon="12.5709259"><ele>-0.5</ele><time>2026-05-05T13:50:24.265Z</time></trkpt><trkpt lat="45.6901433" lon="12.5705944"><ele>0.0</ele><time>2026-05-05T13:50:25.265Z</time></trkpt><trkpt lat="45.6899816" lon="12.5702529"><ele>0.5</ele><time>2026-05-05T13:50:26.264Z</time></trkpt><trkpt lat="45.6898198" lon="12.5699142"><ele>1.0</ele><time>2026-05-05T13:50:27.264Z</time></trkpt><trkpt lat="45.6896599" lon="12.5695699"><ele>1.0</ele><time>2026-05-05T13:50:28.265Z</time></trkpt><trkpt lat="45.6894948" lon="12.5692294"><ele>1.0</ele><time>2026-05-05T13:50:29.264Z</time></trkpt><trkpt lat="45.6893325" lon="12.5688928"><ele>0.0</ele><time>2026-05-05T13:50:30.264Z</time></trkpt><trkpt lat="45.6891705" lon="12.5685576"><ele>-1.0</ele><time>2026-05-05T13:50:31.265Z</time></trkpt><trkpt lat="45.6890182" lon="12.5682353"><ele>-1.0</ele><time>2026-05-05T13:50:32.264Z</time></trkpt><trkpt lat="45.6888645" lon="12.5679109"><ele>-1.0</ele><time>2026-05-05T13:50:33.265Z</time></trkpt><trkpt lat="45.6887087" lon="12.5675904"><ele>0.0</ele><time>2026-05-05T13:50:34.265Z</time></trkpt><trkpt lat="45.6885557" lon="12.567268"><ele>1.0</ele><time>2026-05-05T13:50:35.264Z</time></trkpt><trkpt lat="45.6884015" lon="12.5669476"><ele>1.0</ele><time>2026-05-05T13:50:36.265Z</time></trkpt><trkpt lat="45.6882451" lon="12.5666255"><ele>1.0</ele><time>2026-05-05T13:50:37.264Z</time></trkpt><trkpt lat="45.688096" lon="12.566304"><ele>1.0</ele><time>2026-05-05T13:50:38.264Z</time></trkpt><trkpt lat="45.6879435" lon="12.565981"><ele>1.0</ele><time>2026-05-05T13:50:39.265Z</time></trkpt><trkpt lat="45.6877936" lon="12.56566"><ele>1.0</ele><time>2026-05-05T13:50:40.265Z</time></trkpt><trkpt lat="45.6876413" lon="12.5653414"><ele>1.0</ele><time>2026-05-05T13:50:41.264Z</time></trkpt><trkpt lat="45.6874893" lon="12.5650263"><ele>1.0</ele><time>2026-05-05T13:50:42.264Z</time></trkpt><trkpt lat="45.6873378" lon="12.5647118"><ele>1.0</ele><time>2026-05-05T13:50:43.265Z</time></trkpt><trkpt lat="45.6871875" lon="12.5643975"><ele>1.0</ele><time>2026-05-05T13:50:44.265Z</time></trkpt><trkpt lat="45.6870383" lon="12.5640895"><ele>1.0</ele><time>2026-05-05T13:50:45.265Z</time></trkpt><trkpt lat="45.6868897" lon="12.5637743"><ele>1.5</ele><time>2026-05-05T13:50:46.265Z</time></trkpt><trkpt lat="45.6867387" lon="12.5634616"><ele>2.0</ele><time>2026-05-05T13:50:47.264Z</time></trkpt><trkpt lat="45.6865909" lon="12.5631529"><ele>1.5</ele><time>2026-05-05T13:50:48.264Z</time></trkpt><trkpt lat="45.6864376" lon="12.5628462"><ele>1.0</ele><time>2026-05-05T13:50:49.264Z</time></trkpt><trkpt lat="45.6862927" lon="12.5625359"><ele>1.0</ele><time>2026-05-05T13:50:50.265Z</time></trkpt><trkpt lat="45.6861477" lon="12.5622281"><ele>1.0</ele><time>2026-05-05T13:50:51.265Z</time></trkpt><trkpt lat="45.6860008" lon="12.5619226"><ele>0.0</ele><time>2026-05-05T13:50:52.264Z</time></trkpt><trkpt lat="45.6858572" lon="12.5616201"><ele>-1.0</ele><time>2026-05-05T13:50:53.264Z</time></trkpt><trkpt lat="45.6857148" lon="12.5613246"><ele>-2.0</ele><time>2026-05-05T13:50:54.264Z</time></trkpt><trkpt lat="45.6855712" lon="12.5610247"><ele>-3.0</ele><time>2026-05-05T13:50:55.264Z</time></trkpt><trkpt lat="45.6854302" lon="12.5607191"><ele>-3.0</ele><time>2026-05-05T13:50:56.265Z</time></trkpt><trkpt lat="45.6852883" lon="12.5604206"><ele>-3.0</ele><time>2026-05-05T13:50:57.264Z</time></trkpt><trkpt lat="45.6851453" lon="12.5601224"><ele>-1.0</ele><time>2026-05-05T13:50:58.265Z</time></trkpt><trkpt lat="45.6850029" lon="12.5598229"><ele>1.0</ele><time>2026-05-05T13:50:59.264Z</time></trkpt><trkpt lat="45.6848606" lon="12.5595229"><ele>1.5</ele><time>2026-05-05T13:51:00.264Z</time></trkpt><trkpt lat="45.6847196" lon="12.5592243"><ele>2.0</ele><time>2026-05-05T13:51:01.265Z</time></trkpt><trkpt lat="45.6845788" lon="12.5589282"><ele>1.0</ele><time>2026-05-05T13:51:02.264Z</time></trkpt><trkpt lat="45.6844363" lon="12.5586349"><ele>0.0</ele><time>2026-05-05T13:51:03.265Z</time></trkpt><trkpt lat="45.6842954" lon="12.5583438"><ele>0.0</ele><time>2026-05-05T13:51:04.265Z</time></trkpt><trkpt lat="45.6841601" lon="12.5580536"><ele>0.0</ele><time>2026-05-05T13:51:05.265Z</time></trkpt><trkpt lat="45.6840185" lon="12.557762"><ele>0.5</ele><time>2026-05-05T13:51:06.264Z</time></trkpt><trkpt lat="45.6838805" lon="12.5574698"><ele>1.0</ele><time>2026-05-05T13:51:07.265Z</time></trkpt><trkpt lat="45.6837401" lon="12.5571754"><ele>1.0</ele><time>2026-05-05T13:51:08.265Z</time></trkpt><trkpt lat="45.6835994" lon="12.5568746"><ele>1.0</ele><time>2026-05-05T13:51:09.264Z</time></trkpt><trkpt lat="45.6834618" lon="12.5565773"><ele>1.0</ele><time>2026-05-05T13:51:10.264Z</time></trkpt><trkpt lat="45.6833221" lon="12.5562855"><ele>1.0</ele><time>2026-05-05T13:51:11.265Z</time></trkpt><trkpt lat="45.6831759" lon="12.555985"><ele>1.0</ele><time>2026-05-05T13:51:12.265Z</time></trkpt><trkpt lat="45.6830351" lon="12.5556895"><ele>1.0</ele><time>2026-05-05T13:51:13.265Z</time></trkpt><trkpt lat="45.6828928" lon="12.555395"><ele>2.0</ele><time>2026-05-05T13:51:14.264Z</time></trkpt><trkpt lat="45.6827553" lon="12.5551024"><ele>3.0</ele><time>2026-05-05T13:51:15.265Z</time></trkpt><trkpt lat="45.6826173" lon="12.5548086"><ele>2.5</ele><time>2026-05-05T13:51:16.264Z</time></trkpt><trkpt lat="45.682479" lon="12.5545124"><ele>2.0</ele><time>2026-05-05T13:51:17.265Z</time></trkpt><trkpt lat="45.6823439" lon="12.5542156"><ele>2.0</ele><time>2026-05-05T13:51:18.264Z</time></trkpt><trkpt lat="45.6822099" lon="12.5539201"><ele>2.0</ele><time>2026-05-05T13:51:19.265Z</time></trkpt><trkpt lat="45.6820787" lon="12.5536307"><ele>0.5</ele><time>2026-05-05T13:51:20.264Z</time></trkpt><trkpt lat="45.6819465" lon="12.553345"><ele>-1.0</ele><time>2026-05-05T13:51:21.264Z</time></trkpt><trkpt lat="45.6818094" lon="12.5530609"><ele>-1.5</ele><time>2026-05-05T13:51:22.265Z</time></trkpt><trkpt lat="45.6816811" lon="12.5527816"><ele>-2.0</ele><time>2026-05-05T13:51:23.265Z</time></trkpt><trkpt lat="45.6815542" lon="12.5525019"><ele>-2.0</ele><time>2026-05-05T13:51:24.265Z</time></trkpt><trkpt lat="45.6814254" lon="12.5522252"><ele>-2.0</ele><time>2026-05-05T13:51:25.265Z</time></trkpt><trkpt lat="45.6812922" lon="12.5519502"><ele>-1.0</ele><time>2026-05-05T13:51:26.265Z</time></trkpt><trkpt lat="45.681165" lon="12.551678"><ele>0.0</ele><time>2026-05-05T13:51:27.265Z</time></trkpt><trkpt lat="45.6810335" lon="12.5514057"><ele>0.0</ele><time>2026-05-05T13:51:28.264Z</time></trkpt><trkpt lat="45.6809028" lon="12.5511309"><ele>0.0</ele><time>2026-05-05T13:51:29.265Z</time></trkpt><trkpt lat="45.680775" lon="12.550858"><ele>0.0</ele><time>2026-05-05T13:51:30.264Z</time></trkpt><trkpt lat="45.6806454" lon="12.5505893"><ele>0.0</ele><time>2026-05-05T13:51:31.265Z</time></trkpt><trkpt lat="45.6805159" lon="12.5503198"><ele>0.0</ele><time>2026-05-05T13:51:32.265Z</time></trkpt><trkpt lat="45.680384" lon="12.5500465"><ele>0.0</ele><time>2026-05-05T13:51:33.264Z</time></trkpt><trkpt lat="45.6802575" lon="12.5497742"><ele>0.0</ele><time>2026-05-05T13:51:34.264Z</time></trkpt><trkpt lat="45.6801282" lon="12.5494991"><ele>0.0</ele><time>2026-05-05T13:51:35.264Z</time></trkpt><trkpt lat="45.6799996" lon="12.5492298"><ele>0.0</ele><time>2026-05-05T13:51:36.264Z</time></trkpt><trkpt lat="45.6798692" lon="12.5489618"><ele>0.0</ele><time>2026-05-05T13:51:37.264Z</time></trkpt><trkpt lat="45.679745" lon="12.5486924"><ele>0.0</ele><time>2026-05-05T13:51:38.265Z</time></trkpt><trkpt lat="45.6796166" lon="12.5484264"><ele>0.0</ele><time>2026-05-05T13:51:39.264Z</time></trkpt><trkpt lat="45.6794902" lon="12.5481602"><ele>0.3333333333333333</ele><time>2026-05-05T13:51:40.265Z</time></trkpt><trkpt lat="45.6793668" lon="12.547899"><ele>0.6666666666666666</ele><time>2026-05-05T13:51:41.264Z</time></trkpt><trkpt lat="45.6792398" lon="12.5476364"><ele>1.0</ele><time>2026-05-05T13:51:42.265Z</time></trkpt><trkpt lat="45.6791137" lon="12.5473749"><ele>1.3333333333333333</ele><time>2026-05-05T13:51:43.264Z</time></trkpt><trkpt lat="45.6789891" lon="12.5471112"><ele>1.6666666666666665</ele><time>2026-05-05T13:51:44.265Z</time></trkpt><trkpt lat="45.6788682" lon="12.5468505"><ele>2.0</ele><time>2026-05-05T13:51:45.265Z</time></trkpt><trkpt lat="45.6787431" lon="12.5465899"><ele>2.0</ele><time>2026-05-05T13:51:46.265Z</time></trkpt><trkpt lat="45.6786204" lon="12.5463291"><ele>2.0</ele><time>2026-05-05T13:51:47.265Z</time></trkpt><trkpt lat="45.6784969" lon="12.5460724"><ele>2.0</ele><time>2026-05-05T13:51:48.265Z</time></trkpt><trkpt lat="45.6783716" lon="12.5458152"><ele>2.0</ele><time>2026-05-05T13:51:49.264Z</time></trkpt><trkpt lat="45.6782461" lon="12.5455523"><ele>2.0</ele><time>2026-05-05T13:51:50.265Z</time></trkpt><trkpt lat="45.6781127" lon="12.5452914"><ele>2.0</ele><time>2026-05-05T13:51:51.265Z</time></trkpt><trkpt lat="45.6779892" lon="12.5450327"><ele>2.0</ele><time>2026-05-05T13:51:52.265Z</time></trkpt><trkpt lat="45.6778648" lon="12.5447676"><ele>2.0</ele><time>2026-05-05T13:51:53.265Z</time></trkpt><trkpt lat="45.6777412" lon="12.5445034"><ele>2.0</ele><time>2026-05-05T13:51:54.264Z</time></trkpt><trkpt lat="45.6776142" lon="12.5442459"><ele>1.6666666666666665</ele><time>2026-05-05T13:51:55.265Z</time></trkpt><trkpt lat="45.6774929" lon="12.543988"><ele>1.3333333333333333</ele><time>2026-05-05T13:51:56.264Z</time></trkpt><trkpt lat="45.6773688" lon="12.5437295"><ele>1.0</ele><time>2026-05-05T13:51:57.265Z</time></trkpt><trkpt lat="45.6772499" lon="12.5434737"><ele>0.6666666666666666</ele><time>2026-05-05T13:51:58.265Z</time></trkpt><trkpt lat="45.6771285" lon="12.5432233"><ele>0.3333333333333333</ele><time>2026-05-05T13:51:59.265Z</time></trkpt><trkpt lat="45.677009" lon="12.5429742"><ele>0.0</ele><time>2026-05-05T13:52:00.265Z</time></trkpt><trkpt lat="45.6768855" lon="12.5427175"><ele>0.0</ele><time>2026-05-05T13:52:01.265Z</time></trkpt><trkpt lat="45.6767759" lon="12.5424655"><ele>0.0</ele><time>2026-05-05T13:52:02.264Z</time></trkpt><trkpt lat="45.6766561" lon="12.5422085"><ele>0.0</ele><time>2026-05-05T13:52:03.265Z</time></trkpt><trkpt lat="45.67653" lon="12.5419445"><ele>0.0</ele><time>2026-05-05T13:52:04.264Z</time></trkpt><trkpt lat="45.6764029" lon="12.5416788"><ele>0.0</ele><time>2026-05-05T13:52:05.264Z</time></trkpt><trkpt lat="45.6762745" lon="12.5414126"><ele>0.5</ele><time>2026-05-05T13:52:06.265Z</time></trkpt><trkpt lat="45.6761422" lon="12.5411463"><ele>1.0</ele><time>2026-05-05T13:52:07.265Z</time></trkpt><trkpt lat="45.6760149" lon="12.5408775"><ele>1.5</ele><time>2026-05-05T13:52:08.265Z</time></trkpt><trkpt lat="45.6758851" lon="12.5406115"><ele>2.0</ele><time>2026-05-05T13:52:09.265Z</time></trkpt><trkpt lat="45.6757548" lon="12.5403473"><ele>1.3333333333333333</ele><time>2026-05-05T13:52:10.264Z</time></trkpt><trkpt lat="45.6756298" lon="12.5400833"><ele>0.6666666666666666</ele><time>2026-05-05T13:52:11.264Z</time></trkpt><trkpt lat="45.6755067" lon="12.5398246"><ele>0.0</ele><time>2026-05-05T13:52:12.264Z</time></trkpt><trkpt lat="45.6753863" lon="12.5395643"><ele>0.3333333333333333</ele><time>2026-05-05T13:52:13.264Z</time></trkpt><trkpt lat="45.6752653" lon="12.5392988"><ele>0.6666666666666666</ele><time>2026-05-05T13:52:14.264Z</time></trkpt><trkpt lat="45.6751373" lon="12.5390351"><ele>1.0</ele><time>2026-05-05T13:52:15.264Z</time></trkpt><trkpt lat="45.6750113" lon="12.5387687"><ele>1.5</ele><time>2026-05-05T13:52:16.265Z</time></trkpt><trkpt lat="45.6748834" lon="12.5385015"><ele>2.0</ele><time>2026-05-05T13:52:17.264Z</time></trkpt><trkpt lat="45.6747543" lon="12.5382384"><ele>2.0</ele><time>2026-05-05T13:52:18.265Z</time></trkpt><trkpt lat="45.6746294" lon="12.5379764"><ele>2.0</ele><time>2026-05-05T13:52:19.265Z</time></trkpt><trkpt lat="45.6745006" lon="12.5377093"><ele>2.0</ele><time>2026-05-05T13:52:20.264Z</time></trkpt><trkpt lat="45.6743775" lon="12.5374452"><ele>2.333333333333333</ele><time>2026-05-05T13:52:21.264Z</time></trkpt><trkpt lat="45.6742556" lon="12.537186"><ele>2.6666666666666665</ele><time>2026-05-05T13:52:22.264Z</time></trkpt><trkpt lat="45.6741288" lon="12.5369213"><ele>3.0</ele><time>2026-05-05T13:52:23.264Z</time></trkpt><trkpt lat="45.6740038" lon="12.5366611"><ele>3.333333333333333</ele><time>2026-05-05T13:52:24.265Z</time></trkpt><trkpt lat="45.673879" lon="12.5363985"><ele>3.6666666666666665</ele><time>2026-05-05T13:52:25.264Z</time></trkpt><trkpt lat="45.6737539" lon="12.5361345"><ele>4.0</ele><time>2026-05-05T13:52:26.265Z</time></trkpt><trkpt lat="45.673626" lon="12.5358733"><ele>3.0</ele><time>2026-05-05T13:52:27.265Z</time></trkpt><trkpt lat="45.6735006" lon="12.5356141"><ele>2.0</ele><time>2026-05-05T13:52:28.265Z</time></trkpt><trkpt lat="45.6733757" lon="12.5353543"><ele>1.0</ele><time>2026-05-05T13:52:29.264Z</time></trkpt><trkpt lat="45.6732518" lon="12.5350919"><ele>1.0</ele><time>2026-05-05T13:52:30.264Z</time></trkpt><trkpt lat="45.6731251" lon="12.5348273"><ele>1.0</ele><time>2026-05-05T13:52:31.264Z</time></trkpt><trkpt lat="45.6729978" lon="12.5345657"><ele>1.0</ele><time>2026-05-05T13:52:32.265Z</time></trkpt><trkpt lat="45.6728715" lon="12.5343035"><ele>0.6666666666666666</ele><time>2026-05-05T13:52:33.265Z</time></trkpt><trkpt lat="45.6727458" lon="12.5340432"><ele>0.3333333333333333</ele><time>2026-05-05T13:52:34.265Z</time></trkpt><trkpt lat="45.6726173" lon="12.5337804"><ele>0.0</ele><time>2026-05-05T13:52:35.265Z</time></trkpt><trkpt lat="45.6724916" lon="12.5335201"><ele>0.0</ele><time>2026-05-05T13:52:36.264Z</time></trkpt><trkpt lat="45.6723655" lon="12.5332548"><ele>0.0</ele><time>2026-05-05T13:52:37.264Z</time></trkpt><trkpt lat="45.6722358" lon="12.5329821"><ele>0.5</ele><time>2026-05-05T13:52:38.265Z</time></trkpt><trkpt lat="45.6721089" lon="12.5327095"><ele>1.0</ele><time>2026-05-05T13:52:39.264Z</time></trkpt><trkpt lat="45.6719871" lon="12.5324417"><ele>1.0</ele><time>2026-05-05T13:52:40.265Z</time></trkpt><trkpt lat="45.6718552" lon="12.5321728"><ele>1.0</ele><time>2026-05-05T13:52:41.265Z</time></trkpt><trkpt lat="45.6717229" lon="12.5318918"><ele>1.0</ele><time>2026-05-05T13:52:42.264Z</time></trkpt><trkpt lat="45.6715846" lon="12.5316069"><ele>1.0</ele><time>2026-05-05T13:52:43.265Z</time></trkpt><trkpt lat="45.6714502" lon="12.5313264"><ele>1.5</ele><time>2026-05-05T13:52:44.264Z</time></trkpt><trkpt lat="45.6713128" lon="12.5310458"><ele>2.0</ele><time>2026-05-05T13:52:45.264Z</time></trkpt><trkpt lat="45.6711793" lon="12.5307611"><ele>2.0</ele><time>2026-05-05T13:52:46.265Z</time></trkpt><trkpt lat="45.6710451" lon="12.5304729"><ele>2.0</ele><time>2026-05-05T13:52:47.265Z</time></trkpt><trkpt lat="45.6709078" lon="12.5301838"><ele>2.0</ele><time>2026-05-05T13:52:48.264Z</time></trkpt><trkpt lat="45.6707736" lon="12.529899"><ele>2.0</ele><time>2026-05-05T13:52:49.265Z</time></trkpt><trkpt lat="45.6706392" lon="12.5296124"><ele>4.0</ele><time>2026-05-05T13:52:50.265Z</time></trkpt><trkpt lat="45.6705059" lon="12.5293275"><ele>6.0</ele><time>2026-05-05T13:52:51.265Z</time></trkpt><trkpt lat="45.6703729" lon="12.52904"><ele>4.5</ele><time>2026-05-05T13:52:52.264Z</time></trkpt><trkpt lat="45.6702405" lon="12.5287522"><ele>3.0</ele><time>2026-05-05T13:52:53.265Z</time></trkpt><trkpt lat="45.6701079" lon="12.5284647"><ele>3.0</ele><time>2026-05-05T13:52:54.265Z</time></trkpt><trkpt lat="45.669969" lon="12.5281751"><ele>3.0</ele><time>2026-05-05T13:52:55.264Z</time></trkpt><trkpt lat="45.6698331" lon="12.5278872"><ele>2.0</ele><time>2026-05-05T13:52:56.265Z</time></trkpt><trkpt lat="45.6697052" lon="12.5276062"><ele>1.0</ele><time>2026-05-05T13:52:57.264Z</time></trkpt><trkpt lat="45.6695765" lon="12.5273203"><ele>1.5</ele><time>2026-05-05T13:52:58.264Z</time></trkpt><trkpt lat="45.6694537" lon="12.5270371"><ele>2.0</ele><time>2026-05-05T13:52:59.265Z</time></trkpt><trkpt lat="45.6693292" lon="12.5267446"><ele>2.0</ele><time>2026-05-05T13:53:00.265Z</time></trkpt><trkpt lat="45.6692034" lon="12.5264571"><ele>2.0</ele><time>2026-05-05T13:53:01.264Z</time></trkpt><trkpt lat="45.6690813" lon="12.5261725"><ele>1.5</ele><time>2026-05-05T13:53:02.265Z</time></trkpt><trkpt lat="45.6689584" lon="12.5258846"><ele>1.0</ele><time>2026-05-05T13:53:03.265Z</time></trkpt><trkpt lat="45.6688383" lon="12.5256035"><ele>1.5</ele><time>2026-05-05T13:53:04.265Z</time></trkpt><trkpt lat="45.6687146" lon="12.525322"><ele>2.0</ele><time>2026-05-05T13:53:05.265Z</time></trkpt><trkpt lat="45.6685875" lon="12.5250323"><ele>2.0</ele><time>2026-05-05T13:53:06.264Z</time></trkpt><trkpt lat="45.6684679" lon="12.5247482"><ele>2.0</ele><time>2026-05-05T13:53:07.265Z</time></trkpt><trkpt lat="45.6683496" lon="12.5244644"><ele>2.0</ele><time>2026-05-05T13:53:08.265Z</time></trkpt><trkpt lat="45.6682271" lon="12.5241826"><ele>2.0</ele><time>2026-05-05T13:53:09.264Z</time></trkpt><trkpt lat="45.6681011" lon="12.5238937"><ele>3.5</ele><time>2026-05-05T13:53:10.265Z</time></trkpt><trkpt lat="45.6679711" lon="12.523591"><ele>5.0</ele><time>2026-05-05T13:53:11.264Z</time></trkpt><trkpt lat="45.6678381" lon="12.523276"><ele>5.0</ele><time>2026-05-05T13:53:12.264Z</time></trkpt><trkpt lat="45.6677043" lon="12.5229552"><ele>5.0</ele><time>2026-05-05T13:53:13.265Z</time></trkpt><trkpt lat="45.667564" lon="12.5226181"><ele>5.0</ele><time>2026-05-05T13:53:14.265Z</time></trkpt><trkpt lat="45.6674212" lon="12.5222797"><ele>5.0</ele><time>2026-05-05T13:53:15.265Z</time></trkpt><trkpt lat="45.6672789" lon="12.5219307"><ele>5.0</ele><time>2026-05-05T13:53:16.264Z</time></trkpt><trkpt lat="45.6671336" lon="12.521581"><ele>5.0</ele><time>2026-05-05T13:53:17.265Z</time></trkpt><trkpt lat="45.666994" lon="12.5212274"><ele>6.0</ele><time>2026-05-05T13:53:18.264Z</time></trkpt><trkpt lat="45.6668517" lon="12.5208718"><ele>7.0</ele><time>2026-05-05T13:53:19.264Z</time></trkpt><trkpt lat="45.6667086" lon="12.5205259"><ele>7.0</ele><time>2026-05-05T13:53:20.265Z</time></trkpt><trkpt lat="45.6665728" lon="12.5201902"><ele>7.0</ele><time>2026-05-05T13:53:21.264Z</time></trkpt><trkpt lat="45.666438" lon="12.5198586"><ele>6.5</ele><time>2026-05-05T13:53:22.264Z</time></trkpt><trkpt lat="45.666303" lon="12.5195259"><ele>6.0</ele><time>2026-05-05T13:53:23.265Z</time></trkpt><trkpt lat="45.6661686" lon="12.5191888"><ele>8.0</ele><time>2026-05-05T13:53:24.264Z</time></trkpt><trkpt lat="45.6660318" lon="12.5188525"><ele>10.0</ele><time>2026-05-05T13:53:25.265Z</time></trkpt><trkpt lat="45.6658953" lon="12.5185087"><ele>10.0</ele><time>2026-05-05T13:53:26.265Z</time></trkpt><trkpt lat="45.6657594" lon="12.5181688"><ele>10.0</ele><time>2026-05-05T13:53:27.265Z</time></trkpt><trkpt lat="45.6656227" lon="12.5178318"><ele>7.5</ele><time>2026-05-05T13:53:28.264Z</time></trkpt><trkpt lat="45.6654819" lon="12.5174782"><ele>5.0</ele><time>2026-05-05T13:53:29.265Z</time></trkpt><trkpt lat="45.665348" lon="12.5171309"><ele>2.0</ele><time>2026-05-05T13:53:30.265Z</time></trkpt><trkpt lat="45.6652123" lon="12.516779"><ele>-1.0</ele><time>2026-05-05T13:53:31.265Z</time></trkpt><trkpt lat="45.6650791" lon="12.5164345"><ele>2.0</ele><time>2026-05-05T13:53:32.264Z</time></trkpt><trkpt lat="45.6649429" lon="12.5160915"><ele>5.0</ele><time>2026-05-05T13:53:33.264Z</time></trkpt><trkpt lat="45.6648033" lon="12.5157551"><ele>5.0</ele><time>2026-05-05T13:53:34.265Z</time></trkpt><trkpt lat="45.6646708" lon="12.5154158"><ele>5.0</ele><time>2026-05-05T13:53:35.265Z</time></trkpt><trkpt lat="45.6645364" lon="12.5150796"><ele>5.0</ele><time>2026-05-05T13:53:36.265Z</time></trkpt><trkpt lat="45.6643978" lon="12.5147465"><ele>5.0</ele><time>2026-05-05T13:53:37.265Z</time></trkpt><trkpt lat="45.6642581" lon="12.5144077"><ele>5.0</ele><time>2026-05-05T13:53:38.264Z</time></trkpt><trkpt lat="45.6641173" lon="12.5140669"><ele>5.0</ele><time>2026-05-05T13:53:39.265Z</time></trkpt><trkpt lat="45.6639764" lon="12.5137237"><ele>5.0</ele><time>2026-05-05T13:53:40.265Z</time></trkpt><trkpt lat="45.6638335" lon="12.5133795"><ele>5.0</ele><time>2026-05-05T13:53:41.264Z</time></trkpt><trkpt lat="45.6636845" lon="12.5130377"><ele>6.0</ele><time>2026-05-05T13:53:42.264Z</time></trkpt><trkpt lat="45.6635356" lon="12.5126894"><ele>7.0</ele><time>2026-05-05T13:53:43.265Z</time></trkpt><trkpt lat="45.6633863" lon="12.5123451"><ele>5.5</ele><time>2026-05-05T13:53:44.265Z</time></trkpt><trkpt lat="45.6632369" lon="12.5119985"><ele>4.0</ele><time>2026-05-05T13:53:45.264Z</time></trkpt><trkpt lat="45.6630865" lon="12.5116516"><ele>4.0</ele><time>2026-05-05T13:53:46.264Z</time></trkpt><trkpt lat="45.6629344" lon="12.5113052"><ele>4.0</ele><time>2026-05-05T13:53:47.265Z</time></trkpt><trkpt lat="45.6627809" lon="12.5109639"><ele>5.5</ele><time>2026-05-05T13:53:48.264Z</time></trkpt><trkpt lat="45.6626256" lon="12.5106143"><ele>7.0</ele><time>2026-05-05T13:53:49.265Z</time></trkpt><trkpt lat="45.6624697" lon="12.5102674"><ele>7.0</ele><time>2026-05-05T13:53:50.264Z</time></trkpt><trkpt lat="45.6623098" lon="12.509918"><ele>7.0</ele><time>2026-05-05T13:53:51.265Z</time></trkpt><trkpt lat="45.6621512" lon="12.5095691"><ele>6.0</ele><time>2026-05-05T13:53:52.264Z</time></trkpt><trkpt lat="45.6619941" lon="12.5092157"><ele>5.0</ele><time>2026-05-05T13:53:53.265Z</time></trkpt><trkpt lat="45.6618353" lon="12.5088661"><ele>4.5</ele><time>2026-05-05T13:53:54.265Z</time></trkpt><trkpt lat="45.6616729" lon="12.5085128"><ele>4.0</ele><time>2026-05-05T13:53:55.265Z</time></trkpt><trkpt lat="45.6615106" lon="12.5081623"><ele>4.5</ele><time>2026-05-05T13:53:56.265Z</time></trkpt><trkpt lat="45.6613537" lon="12.5078139"><ele>5.0</ele><time>2026-05-05T13:53:57.265Z</time></trkpt><trkpt lat="45.6611954" lon="12.5074715"><ele>5.0</ele><time>2026-05-05T13:53:58.265Z</time></trkpt><trkpt lat="45.6610371" lon="12.5071287"><ele>5.0</ele><time>2026-05-05T13:53:59.265Z</time></trkpt><trkpt lat="45.6608803" lon="12.5067888"><ele>5.0</ele><time>2026-05-05T13:54:00.265Z</time></trkpt><trkpt lat="45.6607214" lon="12.506443"><ele>5.0</ele><time>2026-05-05T13:54:01.265Z</time></trkpt><trkpt lat="45.6605634" lon="12.5061004"><ele>5.0</ele><time>2026-05-05T13:54:02.265Z</time></trkpt><trkpt lat="45.6604051" lon="12.505751"><ele>5.0</ele><time>2026-05-05T13:54:03.264Z</time></trkpt><trkpt lat="45.6602475" lon="12.5054045"><ele>5.0</ele><time>2026-05-05T13:54:04.264Z</time></trkpt><trkpt lat="45.6600882" lon="12.5050615"><ele>5.0</ele><time>2026-05-05T13:54:05.265Z</time></trkpt><trkpt lat="45.6599319" lon="12.5047227"><ele>4.5</ele><time>2026-05-05T13:54:06.265Z</time></trkpt><trkpt lat="45.6597761" lon="12.5043778"><ele>4.0</ele><time>2026-05-05T13:54:07.264Z</time></trkpt><trkpt lat="45.6596202" lon="12.5040309"><ele>3.0</ele><time>2026-05-05T13:54:08.265Z</time></trkpt><trkpt lat="45.6594698" lon="12.5036859"><ele>2.0</ele><time>2026-05-05T13:54:09.264Z</time></trkpt><trkpt lat="45.6593175" lon="12.5033437"><ele>2.0</ele><time>2026-05-05T13:54:10.265Z</time></trkpt><trkpt lat="45.6591665" lon="12.503003"><ele>2.0</ele><time>2026-05-05T13:54:11.265Z</time></trkpt><trkpt lat="45.6590198" lon="12.502661"><ele>2.0</ele><time>2026-05-05T13:54:12.264Z</time></trkpt><trkpt lat="45.6588748" lon="12.502318"><ele>2.0</ele><time>2026-05-05T13:54:13.265Z</time></trkpt><trkpt lat="45.6587276" lon="12.5019742"><ele>0.5</ele><time>2026-05-05T13:54:14.264Z</time></trkpt><trkpt lat="45.6585833" lon="12.5016341"><ele>-1.0</ele><time>2026-05-05T13:54:15.264Z</time></trkpt><trkpt lat="45.6584358" lon="12.5012914"><ele>0.5</ele><time>2026-05-05T13:54:16.265Z</time></trkpt><trkpt lat="45.65829" lon="12.5009559"><ele>2.0</ele><time>2026-05-05T13:54:17.265Z</time></trkpt><trkpt lat="45.6581452" lon="12.5006135"><ele>3.0</ele><time>2026-05-05T13:54:18.265Z</time></trkpt><trkpt lat="45.6580006" lon="12.500274"><ele>4.0</ele><time>2026-05-05T13:54:19.264Z</time></trkpt><trkpt lat="45.6578577" lon="12.4999375"><ele>2.5</ele><time>2026-05-05T13:54:20.265Z</time></trkpt><trkpt lat="45.6577112" lon="12.4996012"><ele>1.0</ele><time>2026-05-05T13:54:21.264Z</time></trkpt><trkpt lat="45.657566" lon="12.4992649"><ele>1.0</ele><time>2026-05-05T13:54:22.265Z</time></trkpt><trkpt lat="45.6574154" lon="12.4989325"><ele>1.0</ele><time>2026-05-05T13:54:23.265Z</time></trkpt><trkpt lat="45.6572731" lon="12.4985966"><ele>2.0</ele><time>2026-05-05T13:54:24.264Z</time></trkpt><trkpt lat="45.657132" lon="12.498263"><ele>3.0</ele><time>2026-05-05T13:54:25.265Z</time></trkpt><trkpt lat="45.6569923" lon="12.4979276"><ele>2.5</ele><time>2026-05-05T13:54:26.265Z</time></trkpt><trkpt lat="45.6568515" lon="12.4975943"><ele>2.0</ele><time>2026-05-05T13:54:27.264Z</time></trkpt><trkpt lat="45.656713" lon="12.4972604"><ele>3.0</ele><time>2026-05-05T13:54:28.264Z</time></trkpt><trkpt lat="45.6565715" lon="12.4969234"><ele>4.0</ele><time>2026-05-05T13:54:29.265Z</time></trkpt><trkpt lat="45.6564298" lon="12.4965874"><ele>3.5</ele><time>2026-05-05T13:54:30.264Z</time></trkpt><trkpt lat="45.6562859" lon="12.4962514"><ele>3.0</ele><time>2026-05-05T13:54:31.265Z</time></trkpt><trkpt lat="45.6561389" lon="12.4959145"><ele>3.0</ele><time>2026-05-05T13:54:32.264Z</time></trkpt><trkpt lat="45.6560019" lon="12.4955743"><ele>3.0</ele><time>2026-05-05T13:54:33.265Z</time></trkpt><trkpt lat="45.6558609" lon="12.4952376"><ele>3.0</ele><time>2026-05-05T13:54:34.265Z</time></trkpt><trkpt lat="45.6557208" lon="12.4949029"><ele>3.0</ele><time>2026-05-05T13:54:35.265Z</time></trkpt><trkpt lat="45.6555802" lon="12.4945711"><ele>3.0</ele><time>2026-05-05T13:54:36.264Z</time></trkpt><trkpt lat="45.6554419" lon="12.4942384"><ele>3.0</ele><time>2026-05-05T13:54:37.265Z</time></trkpt><trkpt lat="45.6552993" lon="12.4939089"><ele>2.5</ele><time>2026-05-05T13:54:38.265Z</time></trkpt><trkpt lat="45.6551619" lon="12.4935838"><ele>2.0</ele><time>2026-05-05T13:54:39.264Z</time></trkpt><trkpt lat="45.655026" lon="12.4932587"><ele>2.0</ele><time>2026-05-05T13:54:40.265Z</time></trkpt><trkpt lat="45.6548892" lon="12.4929334"><ele>2.0</ele><time>2026-05-05T13:54:41.265Z</time></trkpt><trkpt lat="45.6547557" lon="12.4926122"><ele>2.0</ele><time>2026-05-05T13:54:42.265Z</time></trkpt><trkpt lat="45.6546198" lon="12.4922897"><ele>2.0</ele><time>2026-05-05T13:54:43.264Z</time></trkpt><trkpt lat="45.6544809" lon="12.4919722"><ele>2.0</ele><time>2026-05-05T13:54:44.265Z</time></trkpt><trkpt lat="45.6543404" lon="12.4916488"><ele>2.0</ele><time>2026-05-05T13:54:45.265Z</time></trkpt><trkpt lat="45.6542058" lon="12.4913248"><ele>2.0</ele><time>2026-05-05T13:54:46.265Z</time></trkpt><trkpt lat="45.6540668" lon="12.4910014"><ele>2.0</ele><time>2026-05-05T13:54:47.264Z</time></trkpt><trkpt lat="45.653926" lon="12.4906794"><ele>2.0</ele><time>2026-05-05T13:54:48.265Z</time></trkpt><trkpt lat="45.6537865" lon="12.4903557"><ele>2.0</ele><time>2026-05-05T13:54:49.265Z</time></trkpt><trkpt lat="45.6536432" lon="12.4900275"><ele>2.0</ele><time>2026-05-05T13:54:50.264Z</time></trkpt><trkpt lat="45.6535076" lon="12.4897005"><ele>2.0</ele><time>2026-05-05T13:54:51.265Z</time></trkpt><trkpt lat="45.6533684" lon="12.4893785"><ele>2.0</ele><time>2026-05-05T13:54:52.265Z</time></trkpt><trkpt lat="45.6532292" lon="12.4890538"><ele>2.0</ele><time>2026-05-05T13:54:53.264Z</time></trkpt><trkpt lat="45.653093" lon="12.4887302"><ele>2.0</ele><time>2026-05-05T13:54:54.265Z</time></trkpt><trkpt lat="45.6529527" lon="12.4884067"><ele>2.0</ele><time>2026-05-05T13:54:55.265Z</time></trkpt><trkpt lat="45.6528137" lon="12.4880826"><ele>2.0</ele><time>2026-05-05T13:54:56.265Z</time></trkpt><trkpt lat="45.652675" lon="12.4877583"><ele>2.0</ele><time>2026-05-05T13:54:57.264Z</time></trkpt><trkpt lat="45.6525412" lon="12.4874289"><ele>2.0</ele><time>2026-05-05T13:54:58.264Z</time></trkpt><trkpt lat="45.6524041" lon="12.4871037"><ele>2.0</ele><time>2026-05-05T13:54:59.264Z</time></trkpt><trkpt lat="45.6522677" lon="12.4867776"><ele>2.0</ele><time>2026-05-05T13:55:00.264Z</time></trkpt><trkpt lat="45.6521303" lon="12.4864512"><ele>2.0</ele><time>2026-05-05T13:55:01.265Z</time></trkpt><trkpt lat="45.6519957" lon="12.4861285"><ele>2.0</ele><time>2026-05-05T13:55:02.264Z</time></trkpt><trkpt lat="45.6518543" lon="12.4858041"><ele>2.0</ele><time>2026-05-05T13:55:03.265Z</time></trkpt><trkpt lat="45.6517121" lon="12.485474"><ele>2.5</ele><time>2026-05-05T13:55:04.265Z</time></trkpt><trkpt lat="45.6515735" lon="12.4851487"><ele>3.0</ele><time>2026-05-05T13:55:05.265Z</time></trkpt><trkpt lat="45.6514365" lon="12.484822"><ele>1.5</ele><time>2026-05-05T13:55:06.265Z</time></trkpt><trkpt lat="45.6512947" lon="12.4844953"><ele>0.0</ele><time>2026-05-05T13:55:07.264Z</time></trkpt><trkpt lat="45.6511579" lon="12.4841669"><ele>0.0</ele><time>2026-05-05T13:55:08.264Z</time></trkpt><trkpt lat="45.6510205" lon="12.48384"><ele>0.0</ele><time>2026-05-05T13:55:09.264Z</time></trkpt><trkpt lat="45.6508819" lon="12.4835115"><ele>0.5</ele><time>2026-05-05T13:55:10.265Z</time></trkpt><trkpt lat="45.6507448" lon="12.4831804"><ele>1.0</ele><time>2026-05-05T13:55:11.265Z</time></trkpt><trkpt lat="45.6506021" lon="12.4828539"><ele>2.0</ele><time>2026-05-05T13:55:12.265Z</time></trkpt><trkpt lat="45.6504621" lon="12.482527"><ele>3.0</ele><time>2026-05-05T13:55:13.265Z</time></trkpt><trkpt lat="45.6503234" lon="12.4821963"><ele>2.5</ele><time>2026-05-05T13:55:14.265Z</time></trkpt><trkpt lat="45.6501845" lon="12.4818737"><ele>2.0</ele><time>2026-05-05T13:55:15.265Z</time></trkpt><trkpt lat="45.6500394" lon="12.4815509"><ele>2.0</ele><time>2026-05-05T13:55:16.264Z</time></trkpt><trkpt lat="45.6498881" lon="12.4812295"><ele>2.0</ele><time>2026-05-05T13:55:17.265Z</time></trkpt><trkpt lat="45.6497368" lon="12.4809058"><ele>2.0</ele><time>2026-05-05T13:55:18.264Z</time></trkpt><trkpt lat="45.6495809" lon="12.4805788"><ele>2.0</ele><time>2026-05-05T13:55:19.264Z</time></trkpt><trkpt lat="45.6494315" lon="12.4802495"><ele>2.5</ele><time>2026-05-05T13:55:20.264Z</time></trkpt><trkpt lat="45.649278" lon="12.4799183"><ele>3.0</ele><time>2026-05-05T13:55:21.265Z</time></trkpt><trkpt lat="45.6491239" lon="12.4795882"><ele>3.0</ele><time>2026-05-05T13:55:22.265Z</time></trkpt><trkpt lat="45.6489656" lon="12.4792637"><ele>3.0</ele><time>2026-05-05T13:55:23.265Z</time></trkpt><trkpt lat="45.6488092" lon="12.4789409"><ele>3.0</ele><time>2026-05-05T13:55:24.264Z</time></trkpt><trkpt lat="45.6486501" lon="12.4786191"><ele>3.0</ele><time>2026-05-05T13:55:25.265Z</time></trkpt><trkpt lat="45.6484894" lon="12.4782932"><ele>3.5</ele><time>2026-05-05T13:55:26.265Z</time></trkpt><trkpt lat="45.6483299" lon="12.4779732"><ele>4.0</ele><time>2026-05-05T13:55:27.265Z</time></trkpt><trkpt lat="45.6481661" lon="12.4776527"><ele>3.0</ele><time>2026-05-05T13:55:28.264Z</time></trkpt><trkpt lat="45.6480032" lon="12.4773347"><ele>2.0</ele><time>2026-05-05T13:55:29.264Z</time></trkpt><trkpt lat="45.6478407" lon="12.4770182"><ele>2.5</ele><time>2026-05-05T13:55:30.264Z</time></trkpt><trkpt lat="45.6476753" lon="12.4767039"><ele>3.0</ele><time>2026-05-05T13:55:31.264Z</time></trkpt><trkpt lat="45.6475048" lon="12.4763928"><ele>3.0</ele><time>2026-05-05T13:55:32.264Z</time></trkpt><trkpt lat="45.6473396" lon="12.476076"><ele>3.0</ele><time>2026-05-05T13:55:33.264Z</time></trkpt><trkpt lat="45.6471755" lon="12.4757627"><ele>3.0</ele><time>2026-05-05T13:55:34.265Z</time></trkpt><trkpt lat="45.6470122" lon="12.4754547"><ele>3.0</ele><time>2026-05-05T13:55:35.265Z</time></trkpt><trkpt lat="45.6468481" lon="12.4751444"><ele>3.0</ele><time>2026-05-05T13:55:36.265Z</time></trkpt><trkpt lat="45.6466796" lon="12.4748397"><ele>3.0</ele><time>2026-05-05T13:55:37.265Z</time></trkpt><trkpt lat="45.6465125" lon="12.4745418"><ele>3.0</ele><time>2026-05-05T13:55:38.265Z</time></trkpt><trkpt lat="45.6463456" lon="12.4742344"><ele>3.0</ele><time>2026-05-05T13:55:39.264Z</time></trkpt><trkpt lat="45.6461763" lon="12.4739239"><ele>1.5</ele><time>2026-05-05T13:55:40.264Z</time></trkpt><trkpt lat="45.6460086" lon="12.4736191"><ele>0.0</ele><time>2026-05-05T13:55:41.264Z</time></trkpt><trkpt lat="45.6458408" lon="12.4733133"><ele>0.0</ele><time>2026-05-05T13:55:42.264Z</time></trkpt><trkpt lat="45.64567" lon="12.4730046"><ele>0.0</ele><time>2026-05-05T13:55:43.265Z</time></trkpt><trkpt lat="45.6454991" lon="12.4726965"><ele>0.0</ele><time>2026-05-05T13:55:44.265Z</time></trkpt><trkpt lat="45.6453282" lon="12.4723881"><ele>0.0</ele><time>2026-05-05T13:55:45.264Z</time></trkpt><trkpt lat="45.6451541" lon="12.4720796"><ele>0.0</ele><time>2026-05-05T13:55:46.265Z</time></trkpt><trkpt lat="45.6449761" lon="12.4717695"><ele>0.0</ele><time>2026-05-05T13:55:47.265Z</time></trkpt><trkpt lat="45.6448056" lon="12.4714578"><ele>0.0</ele><time>2026-05-05T13:55:48.265Z</time></trkpt><trkpt lat="45.6446334" lon="12.4711513"><ele>0.0</ele><time>2026-05-05T13:55:49.265Z</time></trkpt><trkpt lat="45.6444649" lon="12.4708455"><ele>0.0</ele><time>2026-05-05T13:55:50.265Z</time></trkpt><trkpt lat="45.6442906" lon="12.4705344"><ele>0.0</ele><time>2026-05-05T13:55:51.265Z</time></trkpt><trkpt lat="45.6441203" lon="12.4702251"><ele>-0.5</ele><time>2026-05-05T13:55:52.265Z</time></trkpt><trkpt lat="45.6439509" lon="12.4699233"><ele>-1.0</ele><time>2026-05-05T13:55:53.265Z</time></trkpt><trkpt lat="45.6437787" lon="12.4696206"><ele>0.0</ele><time>2026-05-05T13:55:54.264Z</time></trkpt><trkpt lat="45.6436095" lon="12.4693118"><ele>1.0</ele><time>2026-05-05T13:55:55.264Z</time></trkpt><trkpt lat="45.6434408" lon="12.4690033"><ele>1.5</ele><time>2026-05-05T13:55:56.264Z</time></trkpt><trkpt lat="45.6432707" lon="12.4686915"><ele>2.0</ele><time>2026-05-05T13:55:57.265Z</time></trkpt><trkpt lat="45.6431028" lon="12.4683849"><ele>2.0</ele><time>2026-05-05T13:55:58.265Z</time></trkpt><trkpt lat="45.6429331" lon="12.4680804"><ele>2.0</ele><time>2026-05-05T13:55:59.265Z</time></trkpt><trkpt lat="45.642766" lon="12.4677794"><ele>2.5</ele><time>2026-05-05T13:56:00.264Z</time></trkpt><trkpt lat="45.6425991" lon="12.4674742"><ele>3.0</ele><time>2026-05-05T13:56:01.265Z</time></trkpt><trkpt lat="45.6424307" lon="12.4671681"><ele>2.5</ele><time>2026-05-05T13:56:02.264Z</time></trkpt><trkpt lat="45.6422632" lon="12.4668623"><ele>2.0</ele><time>2026-05-05T13:56:03.265Z</time></trkpt><trkpt lat="45.642093" lon="12.4665594"><ele>1.5</ele><time>2026-05-05T13:56:04.264Z</time></trkpt><trkpt lat="45.6419259" lon="12.4662586"><ele>1.0</ele><time>2026-05-05T13:56:05.264Z</time></trkpt><trkpt lat="45.6417578" lon="12.4659559"><ele>1.0</ele><time>2026-05-05T13:56:06.265Z</time></trkpt><trkpt lat="45.6415904" lon="12.4656534"><ele>1.0</ele><time>2026-05-05T13:56:07.265Z</time></trkpt><trkpt lat="45.6414225" lon="12.4653522"><ele>1.0</ele><time>2026-05-05T13:56:08.265Z</time></trkpt><trkpt lat="45.6412509" lon="12.4650464"><ele>1.0</ele><time>2026-05-05T13:56:09.265Z</time></trkpt><trkpt lat="45.6410788" lon="12.4647415"><ele>1.5</ele><time>2026-05-05T13:56:10.265Z</time></trkpt><trkpt lat="45.6409102" lon="12.4644437"><ele>2.0</ele><time>2026-05-05T13:56:11.264Z</time></trkpt><trkpt lat="45.640738" lon="12.4641408"><ele>2.0</ele><time>2026-05-05T13:56:12.264Z</time></trkpt><trkpt lat="45.6405657" lon="12.4638404"><ele>2.0</ele><time>2026-05-05T13:56:13.264Z</time></trkpt><trkpt lat="45.6403972" lon="12.4635352"><ele>2.0</ele><time>2026-05-05T13:56:14.265Z</time></trkpt><trkpt lat="45.640231" lon="12.4632334"><ele>2.0</ele><time>2026-05-05T13:56:15.265Z</time></trkpt><trkpt lat="45.6400634" lon="12.4629323"><ele>1.5</ele><time>2026-05-05T13:56:16.265Z</time></trkpt><trkpt lat="45.6398947" lon="12.4626309"><ele>1.0</ele><time>2026-05-05T13:56:17.265Z</time></trkpt><trkpt lat="45.6397249" lon="12.4623315"><ele>1.5</ele><time>2026-05-05T13:56:18.264Z</time></trkpt><trkpt lat="45.639559" lon="12.4620307"><ele>2.0</ele><time>2026-05-05T13:56:19.264Z</time></trkpt><trkpt lat="45.6393926" lon="12.4617262"><ele>2.0</ele><time>2026-05-05T13:56:20.265Z</time></trkpt><trkpt lat="45.6392288" lon="12.4614231"><ele>2.0</ele><time>2026-05-05T13:56:21.265Z</time></trkpt><trkpt lat="45.6390574" lon="12.4611202"><ele>2.0</ele><time>2026-05-05T13:56:22.265Z</time></trkpt><trkpt lat="45.6388936" lon="12.4608189"><ele>2.0</ele><time>2026-05-05T13:56:23.265Z</time></trkpt><trkpt lat="45.6387346" lon="12.4605144"><ele>1.0</ele><time>2026-05-05T13:56:24.265Z</time></trkpt><trkpt lat="45.6385676" lon="12.4602192"><ele>0.0</ele><time>2026-05-05T13:56:25.264Z</time></trkpt><trkpt lat="45.6383998" lon="12.4599212"><ele>0.0</ele><time>2026-05-05T13:56:26.264Z</time></trkpt><trkpt lat="45.6382331" lon="12.4596176"><ele>0.0</ele><time>2026-05-05T13:56:27.264Z</time></trkpt><trkpt lat="45.638066" lon="12.4593172"><ele>0.0</ele><time>2026-05-05T13:56:28.265Z</time></trkpt><trkpt lat="45.6379047" lon="12.4590149"><ele>0.0</ele><time>2026-05-05T13:56:29.265Z</time></trkpt><trkpt lat="45.6377377" lon="12.4587163"><ele>0.0</ele><time>2026-05-05T13:56:30.264Z</time></trkpt><trkpt lat="45.6375727" lon="12.4584195"><ele>0.0</ele><time>2026-05-05T13:56:31.265Z</time></trkpt><trkpt lat="45.6374081" lon="12.4581168"><ele>0.5</ele><time>2026-05-05T13:56:32.264Z</time></trkpt><trkpt lat="45.6372409" lon="12.4578196"><ele>1.0</ele><time>2026-05-05T13:56:33.264Z</time></trkpt><trkpt lat="45.6370744" lon="12.45752"><ele>1.0</ele><time>2026-05-05T13:56:34.264Z</time></trkpt><trkpt lat="45.6369068" lon="12.4572193"><ele>1.0</ele><time>2026-05-05T13:56:35.264Z</time></trkpt><trkpt lat="45.6367408" lon="12.4569192"><ele>1.0</ele><time>2026-05-05T13:56:36.265Z</time></trkpt><trkpt lat="45.6365735" lon="12.4566206"><ele>1.0</ele><time>2026-05-05T13:56:37.265Z</time></trkpt><trkpt lat="45.6364095" lon="12.4563226"><ele>0.5</ele><time>2026-05-05T13:56:38.265Z</time></trkpt><trkpt lat="45.6362412" lon="12.456024"><ele>0.0</ele><time>2026-05-05T13:56:39.264Z</time></trkpt><trkpt lat="45.6360741" lon="12.4557269"><ele>0.5</ele><time>2026-05-05T13:56:40.265Z</time></trkpt><trkpt lat="45.6359052" lon="12.4554309"><ele>1.0</ele><time>2026-05-05T13:56:41.265Z</time></trkpt><trkpt lat="45.6357388" lon="12.4551309"><ele>1.0</ele><time>2026-05-05T13:56:42.264Z</time></trkpt><trkpt lat="45.6355724" lon="12.4548316"><ele>1.0</ele><time>2026-05-05T13:56:43.265Z</time></trkpt><trkpt lat="45.6354066" lon="12.4545338"><ele>1.5</ele><time>2026-05-05T13:56:44.265Z</time></trkpt><trkpt lat="45.6352363" lon="12.454236"><ele>2.0</ele><time>2026-05-05T13:56:45.265Z</time></trkpt><trkpt lat="45.6350683" lon="12.4539308"><ele>1.5</ele><time>2026-05-05T13:56:46.265Z</time></trkpt><trkpt lat="45.6349025" lon="12.4536301"><ele>1.0</ele><time>2026-05-05T13:56:47.265Z</time></trkpt><trkpt lat="45.6347361" lon="12.4533318"><ele>1.0</ele><time>2026-05-05T13:56:48.264Z</time></trkpt><trkpt lat="45.6345696" lon="12.4530346"><ele>1.0</ele><time>2026-05-05T13:56:49.265Z</time></trkpt><trkpt lat="45.6344029" lon="12.4527377"><ele>2.5</ele><time>2026-05-05T13:56:50.265Z</time></trkpt><trkpt lat="45.6342353" lon="12.4524404"><ele>4.0</ele><time>2026-05-05T13:56:51.265Z</time></trkpt><trkpt lat="45.6340694" lon="12.4521396"><ele>3.5</ele><time>2026-05-05T13:56:52.264Z</time></trkpt><trkpt lat="45.6339038" lon="12.4518453"><ele>3.0</ele><time>2026-05-05T13:56:53.265Z</time></trkpt><trkpt lat="45.6337377" lon="12.4515495"><ele>3.0</ele><time>2026-05-05T13:56:54.264Z</time></trkpt><trkpt lat="45.6335747" lon="12.4512568"><ele>3.0</ele><time>2026-05-05T13:56:55.265Z</time></trkpt><trkpt lat="45.6334112" lon="12.4509606"><ele>3.0</ele><time>2026-05-05T13:56:56.265Z</time></trkpt><trkpt lat="45.633246" lon="12.4506643"><ele>3.0</ele><time>2026-05-05T13:56:57.265Z</time></trkpt><trkpt lat="45.6330838" lon="12.4503639"><ele>3.5</ele><time>2026-05-05T13:56:58.264Z</time></trkpt><trkpt lat="45.6329221" lon="12.4500609"><ele>4.0</ele><time>2026-05-05T13:56:59.265Z</time></trkpt><trkpt lat="45.6327614" lon="12.4497585"><ele>4.0</ele><time>2026-05-05T13:57:00.264Z</time></trkpt><trkpt lat="45.6326002" lon="12.4494582"><ele>4.0</ele><time>2026-05-05T13:57:01.265Z</time></trkpt><trkpt lat="45.6324442" lon="12.4491536"><ele>4.0</ele><time>2026-05-05T13:57:02.265Z</time></trkpt><trkpt lat="45.632286" lon="12.4488463"><ele>4.0</ele><time>2026-05-05T13:57:03.265Z</time></trkpt><trkpt lat="45.6321295" lon="12.4485351"><ele>4.0</ele><time>2026-05-05T13:57:04.264Z</time></trkpt><trkpt lat="45.6319746" lon="12.4482218"><ele>4.0</ele><time>2026-05-05T13:57:05.265Z</time></trkpt><trkpt lat="45.631816" lon="12.4479111"><ele>4.0</ele><time>2026-05-05T13:57:06.265Z</time></trkpt><trkpt lat="45.6316553" lon="12.4475977"><ele>4.0</ele><time>2026-05-05T13:57:07.265Z</time></trkpt><trkpt lat="45.6314981" lon="12.4472778"><ele>4.0</ele><time>2026-05-05T13:57:08.265Z</time></trkpt><trkpt lat="45.631342" lon="12.4469594"><ele>4.0</ele><time>2026-05-05T13:57:09.265Z</time></trkpt><trkpt lat="45.6311873" lon="12.4466442"><ele>3.5</ele><time>2026-05-05T13:57:10.265Z</time></trkpt><trkpt lat="45.6310309" lon="12.4463198"><ele>3.0</ele><time>2026-05-05T13:57:11.265Z</time></trkpt><trkpt lat="45.6308784" lon="12.4459958"><ele>3.0</ele><time>2026-05-05T13:57:12.264Z</time></trkpt><trkpt lat="45.6307304" lon="12.4456741"><ele>3.0</ele><time>2026-05-05T13:57:13.265Z</time></trkpt><trkpt lat="45.6305825" lon="12.4453513"><ele>3.0</ele><time>2026-05-05T13:57:14.264Z</time></trkpt><trkpt lat="45.6304346" lon="12.4450221"><ele>3.0</ele><time>2026-05-05T13:57:15.265Z</time></trkpt><trkpt lat="45.6302917" lon="12.4447021"><ele>2.0</ele><time>2026-05-05T13:57:16.265Z</time></trkpt><trkpt lat="45.6301422" lon="12.4443782"><ele>1.0</ele><time>2026-05-05T13:57:17.265Z</time></trkpt><trkpt lat="45.6299955" lon="12.444054"><ele>1.0</ele><time>2026-05-05T13:57:18.265Z</time></trkpt><trkpt lat="45.6298477" lon="12.4437262"><ele>1.0</ele><time>2026-05-05T13:57:19.265Z</time></trkpt><trkpt lat="45.6296982" lon="12.4434009"><ele>1.0</ele><time>2026-05-05T13:57:20.264Z</time></trkpt><trkpt lat="45.6295479" lon="12.4430736"><ele>1.0</ele><time>2026-05-05T13:57:21.265Z</time></trkpt><trkpt lat="45.629396" lon="12.4427447"><ele>1.0</ele><time>2026-05-05T13:57:22.264Z</time></trkpt><trkpt lat="45.6292468" lon="12.4424217"><ele>1.0</ele><time>2026-05-05T13:57:23.264Z</time></trkpt><trkpt lat="45.629097" lon="12.4421032"><ele>0.5</ele><time>2026-05-05T13:57:24.265Z</time></trkpt><trkpt lat="45.6289497" lon="12.4417872"><ele>0.0</ele><time>2026-05-05T13:57:25.265Z</time></trkpt><trkpt lat="45.6288088" lon="12.4414673"><ele>0.0</ele><time>2026-05-05T13:57:26.265Z</time></trkpt><trkpt lat="45.6286642" lon="12.441147"><ele>0.0</ele><time>2026-05-05T13:57:27.264Z</time></trkpt><trkpt lat="45.6285203" lon="12.4408325"><ele>0.0</ele><time>2026-05-05T13:57:28.265Z</time></trkpt><trkpt lat="45.6283708" lon="12.4405155"><ele>0.0</ele><time>2026-05-05T13:57:29.264Z</time></trkpt><trkpt lat="45.6282253" lon="12.4401963"><ele>0.0</ele><time>2026-05-05T13:57:30.264Z</time></trkpt><trkpt lat="45.6280734" lon="12.4398805"><ele>0.0</ele><time>2026-05-05T13:57:31.265Z</time></trkpt><trkpt lat="45.6279248" lon="12.43956"><ele>0.5</ele><time>2026-05-05T13:57:32.264Z</time></trkpt><trkpt lat="45.6277711" lon="12.4392335"><ele>1.0</ele><time>2026-05-05T13:57:33.264Z</time></trkpt><trkpt lat="45.6276301" lon="12.4389048"><ele>1.0</ele><time>2026-05-05T13:57:34.265Z</time></trkpt><trkpt lat="45.6274698" lon="12.4385662"><ele>1.0</ele><time>2026-05-05T13:57:35.265Z</time></trkpt><trkpt lat="45.6273019" lon="12.4382183"><ele>1.5</ele><time>2026-05-05T13:57:36.265Z</time></trkpt><trkpt lat="45.627134" lon="12.4378657"><ele>2.0</ele><time>2026-05-05T13:57:37.264Z</time></trkpt><trkpt lat="45.6269701" lon="12.4375095"><ele>2.0</ele><time>2026-05-05T13:57:38.265Z</time></trkpt><trkpt lat="45.6268049" lon="12.4371537"><ele>2.0</ele><time>2026-05-05T13:57:39.265Z</time></trkpt><trkpt lat="45.6266357" lon="12.4367935"><ele>2.0</ele><time>2026-05-05T13:57:40.264Z</time></trkpt><trkpt lat="45.6264716" lon="12.4364353"><ele>2.0</ele><time>2026-05-05T13:57:41.265Z</time></trkpt><trkpt lat="45.6263102" lon="12.436073"><ele>2.0</ele><time>2026-05-05T13:57:42.265Z</time></trkpt><trkpt lat="45.6261481" lon="12.4357156"><ele>2.0</ele><time>2026-05-05T13:57:43.265Z</time></trkpt><trkpt lat="45.6259858" lon="12.4353585"><ele>1.5</ele><time>2026-05-05T13:57:44.265Z</time></trkpt><trkpt lat="45.6258253" lon="12.4350115"><ele>1.0</ele><time>2026-05-05T13:57:45.265Z</time></trkpt><trkpt lat="45.6256547" lon="12.4346437"><ele>1.5</ele><time>2026-05-05T13:57:46.265Z</time></trkpt><trkpt lat="45.6254817" lon="12.4342726"><ele>2.0</ele><time>2026-05-05T13:57:47.265Z</time></trkpt><trkpt lat="45.6253022" lon="12.433894"><ele>3.5</ele><time>2026-05-05T13:57:48.265Z</time></trkpt><trkpt lat="45.6251325" lon="12.4335165"><ele>5.0</ele><time>2026-05-05T13:57:49.264Z</time></trkpt><trkpt lat="45.6249592" lon="12.4331378"><ele>5.0</ele><time>2026-05-05T13:57:50.264Z</time></trkpt><trkpt lat="45.624784" lon="12.4327522"><ele>5.0</ele><time>2026-05-05T13:57:51.264Z</time></trkpt><trkpt lat="45.6246127" lon="12.4323732"><ele>4.0</ele><time>2026-05-05T13:57:52.265Z</time></trkpt><trkpt lat="45.6244463" lon="12.431996"><ele>3.0</ele><time>2026-05-05T13:57:53.265Z</time></trkpt><trkpt lat="45.6242807" lon="12.4316231"><ele>1.5</ele><time>2026-05-05T13:57:54.265Z</time></trkpt><trkpt lat="45.6241163" lon="12.4312464"><ele>0.0</ele><time>2026-05-05T13:57:55.265Z</time></trkpt><trkpt lat="45.6239532" lon="12.4308756"><ele>0.0</ele><time>2026-05-05T13:57:56.265Z</time></trkpt><trkpt lat="45.6237865" lon="12.4305118"><ele>0.0</ele><time>2026-05-05T13:57:57.264Z</time></trkpt><trkpt lat="45.6236247" lon="12.4301499"><ele>0.5</ele><time>2026-05-05T13:57:58.265Z</time></trkpt><trkpt lat="45.6234646" lon="12.429795"><ele>1.0</ele><time>2026-05-05T13:57:59.265Z</time></trkpt><trkpt lat="45.6233057" lon="12.4294434"><ele>1.5</ele><time>2026-05-05T13:58:00.264Z</time></trkpt><trkpt lat="45.6231469" lon="12.4290961"><ele>2.0</ele><time>2026-05-05T13:58:01.265Z</time></trkpt><trkpt lat="45.6229897" lon="12.4287434"><ele>2.0</ele><time>2026-05-05T13:58:02.264Z</time></trkpt><trkpt lat="45.6228323" lon="12.4283981"><ele>2.0</ele><time>2026-05-05T13:58:03.264Z</time></trkpt><trkpt lat="45.6226743" lon="12.4280517"><ele>2.0</ele><time>2026-05-05T13:58:04.264Z</time></trkpt><trkpt lat="45.6225173" lon="12.4277119"><ele>2.0</ele><time>2026-05-05T13:58:05.265Z</time></trkpt><trkpt lat="45.622361" lon="12.4273704"><ele>3.0</ele><time>2026-05-05T13:58:06.264Z</time></trkpt><trkpt lat="45.6222058" lon="12.4270299"><ele>4.0</ele><time>2026-05-05T13:58:07.265Z</time></trkpt><trkpt lat="45.6220545" lon="12.4266922"><ele>3.5</ele><time>2026-05-05T13:58:08.265Z</time></trkpt><trkpt lat="45.6218973" lon="12.4263594"><ele>3.0</ele><time>2026-05-05T13:58:09.264Z</time></trkpt><trkpt lat="45.6217436" lon="12.4260206"><ele>2.5</ele><time>2026-05-05T13:58:10.265Z</time></trkpt><trkpt lat="45.6215943" lon="12.4256837"><ele>2.0</ele><time>2026-05-05T13:58:11.264Z</time></trkpt><trkpt lat="45.6214381" lon="12.4253473"><ele>2.0</ele><time>2026-05-05T13:58:12.265Z</time></trkpt><trkpt lat="45.6212811" lon="12.4250119"><ele>2.0</ele><time>2026-05-05T13:58:13.265Z</time></trkpt><trkpt lat="45.6211287" lon="12.4246709"><ele>2.5</ele><time>2026-05-05T13:58:14.265Z</time></trkpt><trkpt lat="45.6209678" lon="12.4243346"><ele>3.0</ele><time>2026-05-05T13:58:15.264Z</time></trkpt><trkpt lat="45.6208132" lon="12.4239977"><ele>3.5</ele><time>2026-05-05T13:58:16.264Z</time></trkpt><trkpt lat="45.6206621" lon="12.4236616"><ele>4.0</ele><time>2026-05-05T13:58:17.264Z</time></trkpt><trkpt lat="45.6205025" lon="12.423326"><ele>4.0</ele><time>2026-05-05T13:58:18.265Z</time></trkpt><trkpt lat="45.6203489" lon="12.4229936"><ele>4.0</ele><time>2026-05-05T13:58:19.264Z</time></trkpt><trkpt lat="45.620196" lon="12.4226601"><ele>4.0</ele><time>2026-05-05T13:58:20.264Z</time></trkpt><trkpt lat="45.6200414" lon="12.4223243"><ele>4.0</ele><time>2026-05-05T13:58:21.265Z</time></trkpt><trkpt lat="45.6198899" lon="12.4219942"><ele>4.0</ele><time>2026-05-05T13:58:22.264Z</time></trkpt><trkpt lat="45.6197402" lon="12.4216681"><ele>4.0</ele><time>2026-05-05T13:58:23.264Z</time></trkpt><trkpt lat="45.6195919" lon="12.4213392"><ele>4.5</ele><time>2026-05-05T13:58:24.264Z</time></trkpt><trkpt lat="45.6194435" lon="12.4210106"><ele>5.0</ele><time>2026-05-05T13:58:25.265Z</time></trkpt><trkpt lat="45.6192974" lon="12.4206809"><ele>5.5</ele><time>2026-05-05T13:58:26.264Z</time></trkpt><trkpt lat="45.619149" lon="12.4203527"><ele>6.0</ele><time>2026-05-05T13:58:27.264Z</time></trkpt><trkpt lat="45.6190007" lon="12.4200286"><ele>6.0</ele><time>2026-05-05T13:58:28.265Z</time></trkpt><trkpt lat="45.6188463" lon="12.4197044"><ele>6.0</ele><time>2026-05-05T13:58:29.264Z</time></trkpt><trkpt lat="45.6186909" lon="12.4193814"><ele>5.0</ele><time>2026-05-05T13:58:30.264Z</time></trkpt><trkpt lat="45.6185407" lon="12.4190549"><ele>4.0</ele><time>2026-05-05T13:58:31.264Z</time></trkpt><trkpt lat="45.6183918" lon="12.4187221"><ele>4.0</ele><time>2026-05-05T13:58:32.264Z</time></trkpt><trkpt lat="45.6182404" lon="12.4183908"><ele>4.0</ele><time>2026-05-05T13:58:33.264Z</time></trkpt><trkpt lat="45.6180903" lon="12.4180621"><ele>4.5</ele><time>2026-05-05T13:58:34.265Z</time></trkpt><trkpt lat="45.6179436" lon="12.4177392"><ele>5.0</ele><time>2026-05-05T13:58:35.265Z</time></trkpt><trkpt lat="45.6177953" lon="12.4174174"><ele>4.0</ele><time>2026-05-05T13:58:36.265Z</time></trkpt><trkpt lat="45.6176465" lon="12.4171009"><ele>3.0</ele><time>2026-05-05T13:58:37.265Z</time></trkpt><trkpt lat="45.6174894" lon="12.4167764"><ele>3.0</ele><time>2026-05-05T13:58:38.264Z</time></trkpt><trkpt lat="45.6173388" lon="12.4164508"><ele>3.0</ele><time>2026-05-05T13:58:39.265Z</time></trkpt><trkpt lat="45.617187" lon="12.416124"><ele>3.0</ele><time>2026-05-05T13:58:40.265Z</time></trkpt><trkpt lat="45.6170349" lon="12.4158007"><ele>3.0</ele><time>2026-05-05T13:58:41.265Z</time></trkpt><trkpt lat="45.6168881" lon="12.4154849"><ele>3.0</ele><time>2026-05-05T13:58:42.265Z</time></trkpt><trkpt lat="45.6167395" lon="12.4151741"><ele>3.0</ele><time>2026-05-05T13:58:43.264Z</time></trkpt><trkpt lat="45.6165907" lon="12.4148718"><ele>3.0</ele><time>2026-05-05T13:58:44.265Z</time></trkpt><trkpt lat="45.6164476" lon="12.4145725"><ele>3.0</ele><time>2026-05-05T13:58:45.264Z</time></trkpt><trkpt lat="45.6163022" lon="12.4142796"><ele>3.0</ele><time>2026-05-05T13:58:46.264Z</time></trkpt><trkpt lat="45.6161563" lon="12.4140045"><ele>3.0</ele><time>2026-05-05T13:58:47.265Z</time></trkpt><trkpt lat="45.6160092" lon="12.413723"><ele>3.0</ele><time>2026-05-05T13:58:48.265Z</time></trkpt><trkpt lat="45.615867" lon="12.4134486"><ele>3.0</ele><time>2026-05-05T13:58:49.265Z</time></trkpt><trkpt lat="45.615722" lon="12.4131737"><ele>2.5</ele><time>2026-05-05T13:58:50.264Z</time></trkpt><trkpt lat="45.6155763" lon="12.4129011"><ele>2.0</ele><time>2026-05-05T13:58:51.265Z</time></trkpt><trkpt lat="45.6154292" lon="12.4126273"><ele>1.5</ele><time>2026-05-05T13:58:52.264Z</time></trkpt><trkpt lat="45.6152777" lon="12.4123554"><ele>1.0</ele><time>2026-05-05T13:58:53.265Z</time></trkpt><trkpt lat="45.6151294" lon="12.4120844"><ele>1.0</ele><time>2026-05-05T13:58:54.265Z</time></trkpt><trkpt lat="45.6149782" lon="12.4118081"><ele>1.0</ele><time>2026-05-05T13:58:55.265Z</time></trkpt><trkpt lat="45.61483" lon="12.4115311"><ele>0.5</ele><time>2026-05-05T13:58:56.265Z</time></trkpt><trkpt lat="45.6146805" lon="12.4112521"><ele>0.0</ele><time>2026-05-05T13:58:57.265Z</time></trkpt><trkpt lat="45.6145335" lon="12.4109794"><ele>0.5</ele><time>2026-05-05T13:58:58.265Z</time></trkpt><trkpt lat="45.6143856" lon="12.4107057"><ele>1.0</ele><time>2026-05-05T13:58:59.265Z</time></trkpt><trkpt lat="45.6142395" lon="12.4104353"><ele>1.0</ele><time>2026-05-05T13:59:00.264Z</time></trkpt><trkpt lat="45.6140855" lon="12.4101703"><ele>1.0</ele><time>2026-05-05T13:59:01.264Z</time></trkpt><trkpt lat="45.6139303" lon="12.4098986"><ele>1.5</ele><time>2026-05-05T13:59:02.265Z</time></trkpt><trkpt lat="45.6137676" lon="12.409614"><ele>2.0</ele><time>2026-05-05T13:59:03.264Z</time></trkpt><trkpt lat="45.6135963" lon="12.4093265"><ele>2.0</ele><time>2026-05-05T13:59:04.265Z</time></trkpt><trkpt lat="45.6134274" lon="12.4090314"><ele>2.0</ele><time>2026-05-05T13:59:05.265Z</time></trkpt><trkpt lat="45.6132595" lon="12.4087386"><ele>2.0</ele><time>2026-05-05T13:59:06.264Z</time></trkpt><trkpt lat="45.6130923" lon="12.408439"><ele>2.0</ele><time>2026-05-05T13:59:07.265Z</time></trkpt><trkpt lat="45.6129207" lon="12.4081345"><ele>2.0</ele><time>2026-05-05T13:59:08.264Z</time></trkpt><trkpt lat="45.6127519" lon="12.4078331"><ele>2.0</ele><time>2026-05-05T13:59:09.264Z</time></trkpt><trkpt lat="45.6125833" lon="12.4075305"><ele>2.0</ele><time>2026-05-05T13:59:10.265Z</time></trkpt><trkpt lat="45.612413" lon="12.4072247"><ele>2.0</ele><time>2026-05-05T13:59:11.265Z</time></trkpt><trkpt lat="45.6122449" lon="12.4069175"><ele>2.5</ele><time>2026-05-05T13:59:12.265Z</time></trkpt><trkpt lat="45.6120745" lon="12.4066074"><ele>3.0</ele><time>2026-05-05T13:59:13.265Z</time></trkpt><trkpt lat="45.6119025" lon="12.4062924"><ele>3.5</ele><time>2026-05-05T13:59:14.264Z</time></trkpt><trkpt lat="45.6117286" lon="12.4059793"><ele>4.0</ele><time>2026-05-05T13:59:15.264Z</time></trkpt><trkpt lat="45.6115553" lon="12.4056684"><ele>3.5</ele><time>2026-05-05T13:59:16.265Z</time></trkpt><trkpt lat="45.611384" lon="12.4053583"><ele>3.0</ele><time>2026-05-05T13:59:17.265Z</time></trkpt><trkpt lat="45.6112133" lon="12.4050513"><ele>3.5</ele><time>2026-05-05T13:59:18.265Z</time></trkpt><trkpt lat="45.6110428" lon="12.40474"><ele>4.0</ele><time>2026-05-05T13:59:19.265Z</time></trkpt><trkpt lat="45.6108729" lon="12.4044337"><ele>4.0</ele><time>2026-05-05T13:59:20.265Z</time></trkpt><trkpt lat="45.6107064" lon="12.4041291"><ele>4.0</ele><time>2026-05-05T13:59:21.264Z</time></trkpt><trkpt lat="45.6105405" lon="12.4038211"><ele>3.5</ele><time>2026-05-05T13:59:22.265Z</time></trkpt><trkpt lat="45.6103752" lon="12.403513"><ele>3.0</ele><time>2026-05-05T13:59:23.265Z</time></trkpt><trkpt lat="45.610206" lon="12.4032076"><ele>3.0</ele><time>2026-05-05T13:59:24.265Z</time></trkpt><trkpt lat="45.6100381" lon="12.4028993"><ele>3.0</ele><time>2026-05-05T13:59:25.264Z</time></trkpt><trkpt lat="45.6098709" lon="12.4025907"><ele>3.0</ele><time>2026-05-05T13:59:26.265Z</time></trkpt><trkpt lat="45.609703" lon="12.4022856"><ele>3.0</ele><time>2026-05-05T13:59:27.264Z</time></trkpt><trkpt lat="45.6095335" lon="12.4019744"><ele>3.0</ele><time>2026-05-05T13:59:28.265Z</time></trkpt><trkpt lat="45.6093631" lon="12.4016631"><ele>3.0</ele><time>2026-05-05T13:59:29.265Z</time></trkpt><trkpt lat="45.6091895" lon="12.4013468"><ele>2.5</ele><time>2026-05-05T13:59:30.265Z</time></trkpt><trkpt lat="45.6090161" lon="12.4010371"><ele>2.0</ele><time>2026-05-05T13:59:31.264Z</time></trkpt><trkpt lat="45.6088404" lon="12.4007266"><ele>2.5</ele><time>2026-05-05T13:59:32.265Z</time></trkpt><trkpt lat="45.6086699" lon="12.4004179"><ele>3.0</ele><time>2026-05-05T13:59:33.264Z</time></trkpt><trkpt lat="45.6085029" lon="12.4001088"><ele>3.0</ele><time>2026-05-05T13:59:34.265Z</time></trkpt><trkpt lat="45.6083318" lon="12.3997926"><ele>3.0</ele><time>2026-05-05T13:59:35.264Z</time></trkpt><trkpt lat="45.6081583" lon="12.3994789"><ele>3.0</ele><time>2026-05-05T13:59:36.265Z</time></trkpt><trkpt lat="45.607987" lon="12.3991696"><ele>3.0</ele><time>2026-05-05T13:59:37.265Z</time></trkpt><trkpt lat="45.6078121" lon="12.3988535"><ele>2.5</ele><time>2026-05-05T13:59:38.265Z</time></trkpt><trkpt lat="45.6076362" lon="12.3985444"><ele>2.0</ele><time>2026-05-05T13:59:39.265Z</time></trkpt><trkpt lat="45.6074655" lon="12.3982352"><ele>1.5</ele><time>2026-05-05T13:59:40.264Z</time></trkpt><trkpt lat="45.6072957" lon="12.3979285"><ele>1.0</ele><time>2026-05-05T13:59:41.265Z</time></trkpt><trkpt lat="45.6071277" lon="12.3976197"><ele>1.5</ele><time>2026-05-05T13:59:42.265Z</time></trkpt><trkpt lat="45.6069574" lon="12.3973116"><ele>2.0</ele><time>2026-05-05T13:59:43.265Z</time></trkpt><trkpt lat="45.6067883" lon="12.3970006"><ele>2.0</ele><time>2026-05-05T13:59:44.265Z</time></trkpt><trkpt lat="45.6066166" lon="12.3966914"><ele>2.0</ele><time>2026-05-05T13:59:45.265Z</time></trkpt><trkpt lat="45.6064419" lon="12.3963726"><ele>2.0</ele><time>2026-05-05T13:59:46.265Z</time></trkpt><trkpt lat="45.6062688" lon="12.3960586"><ele>2.0</ele><time>2026-05-05T13:59:47.264Z</time></trkpt><trkpt lat="45.6060962" lon="12.3957483"><ele>1.5</ele><time>2026-05-05T13:59:48.265Z</time></trkpt><trkpt lat="45.6059248" lon="12.3954367"><ele>1.0</ele><time>2026-05-05T13:59:49.265Z</time></trkpt><trkpt lat="45.6057537" lon="12.3951227"><ele>1.0</ele><time>2026-05-05T13:59:50.265Z</time></trkpt><trkpt lat="45.6055842" lon="12.3948"><ele>1.0</ele><time>2026-05-05T13:59:51.265Z</time></trkpt><trkpt lat="45.6054139" lon="12.3944751"><ele>1.5</ele><time>2026-05-05T13:59:52.265Z</time></trkpt><trkpt lat="45.6052425" lon="12.3941531"><ele>2.0</ele><time>2026-05-05T13:59:53.265Z</time></trkpt><trkpt lat="45.6050695" lon="12.3938309"><ele>2.5</ele><time>2026-05-05T13:59:54.264Z</time></trkpt><trkpt lat="45.604898" lon="12.3935073"><ele>3.0</ele><time>2026-05-05T13:59:55.265Z</time></trkpt><trkpt lat="45.6047231" lon="12.3931882"><ele>3.5</ele><time>2026-05-05T13:59:56.265Z</time></trkpt><trkpt lat="45.6045493" lon="12.3928698"><ele>4.0</ele><time>2026-05-05T13:59:57.265Z</time></trkpt><trkpt lat="45.6043743" lon="12.3925574"><ele>3.0</ele><time>2026-05-05T13:59:58.264Z</time></trkpt><trkpt lat="45.604203" lon="12.3922525"><ele>2.0</ele><time>2026-05-05T13:59:59.265Z</time></trkpt><trkpt lat="45.604028" lon="12.391941"><ele>2.0</ele><time>2026-05-05T14:00:00.265Z</time></trkpt><trkpt lat="45.6038569" lon="12.3916282"><ele>2.0</ele><time>2026-05-05T14:00:01.265Z</time></trkpt><trkpt lat="45.6036865" lon="12.3913167"><ele>2.0</ele><time>2026-05-05T14:00:02.264Z</time></trkpt><trkpt lat="45.6035138" lon="12.3910039"><ele>2.0</ele><time>2026-05-05T14:00:03.264Z</time></trkpt><trkpt lat="45.6033421" lon="12.3906921"><ele>2.5</ele><time>2026-05-05T14:00:04.264Z</time></trkpt><trkpt lat="45.6031672" lon="12.3903818"><ele>3.0</ele><time>2026-05-05T14:00:05.265Z</time></trkpt><trkpt lat="45.6029959" lon="12.3900686"><ele>3.0</ele><time>2026-05-05T14:00:06.264Z</time></trkpt><trkpt lat="45.602824" lon="12.389757"><ele>3.0</ele><time>2026-05-05T14:00:07.265Z</time></trkpt><trkpt lat="45.6026525" lon="12.3894415"><ele>3.0</ele><time>2026-05-05T14:00:08.264Z</time></trkpt><trkpt lat="45.6024803" lon="12.3891312"><ele>3.0</ele><time>2026-05-05T14:00:09.265Z</time></trkpt><trkpt lat="45.6023055" lon="12.3888174"><ele>2.5</ele><time>2026-05-05T14:00:10.264Z</time></trkpt><trkpt lat="45.6021338" lon="12.3885017"><ele>2.0</ele><time>2026-05-05T14:00:11.264Z</time></trkpt><trkpt lat="45.601951" lon="12.3881873"><ele>3.0</ele><time>2026-05-05T14:00:12.264Z</time></trkpt><trkpt lat="45.6017767" lon="12.3878717"><ele>4.0</ele><time>2026-05-05T14:00:13.265Z</time></trkpt><trkpt lat="45.601604" lon="12.387554"><ele>4.0</ele><time>2026-05-05T14:00:14.264Z</time></trkpt><trkpt lat="45.6014515" lon="12.3872361"><ele>4.0</ele><time>2026-05-05T14:00:15.265Z</time></trkpt><trkpt lat="45.6012784" lon="12.3869213"><ele>4.0</ele><time>2026-05-05T14:00:16.264Z</time></trkpt><trkpt lat="45.6010997" lon="12.3866098"><ele>4.0</ele><time>2026-05-05T14:00:17.265Z</time></trkpt><trkpt lat="45.6009242" lon="12.3862987"><ele>4.0</ele><time>2026-05-05T14:00:18.264Z</time></trkpt><trkpt lat="45.600749" lon="12.3859867"><ele>4.0</ele><time>2026-05-05T14:00:19.265Z</time></trkpt><trkpt lat="45.6005702" lon="12.3856746"><ele>3.5</ele><time>2026-05-05T14:00:20.265Z</time></trkpt><trkpt lat="45.6003947" lon="12.3853651"><ele>3.0</ele><time>2026-05-05T14:00:21.264Z</time></trkpt><trkpt lat="45.6002123" lon="12.3850541"><ele>3.0</ele><time>2026-05-05T14:00:22.265Z</time></trkpt><trkpt lat="45.6000282" lon="12.384742"><ele>3.0</ele><time>2026-05-05T14:00:23.265Z</time></trkpt><trkpt lat="45.5998437" lon="12.3844286"><ele>3.0</ele><time>2026-05-05T14:00:24.265Z</time></trkpt><trkpt lat="45.5996587" lon="12.384118"><ele>3.0</ele><time>2026-05-05T14:00:25.265Z</time></trkpt><trkpt lat="45.5994753" lon="12.3838084"><ele>3.0</ele><time>2026-05-05T14:00:26.265Z</time></trkpt><trkpt lat="45.599293" lon="12.3835066"><ele>3.0</ele><time>2026-05-05T14:00:27.265Z</time></trkpt><trkpt lat="45.5991078" lon="12.3831984"><ele>2.5</ele><time>2026-05-05T14:00:28.264Z</time></trkpt><trkpt lat="45.5989169" lon="12.3828935"><ele>2.0</ele><time>2026-05-05T14:00:29.265Z</time></trkpt><trkpt lat="45.5987252" lon="12.3825817"><ele>2.0</ele><time>2026-05-05T14:00:30.265Z</time></trkpt><trkpt lat="45.5985343" lon="12.3822701"><ele>2.0</ele><time>2026-05-05T14:00:31.265Z</time></trkpt><trkpt lat="45.5983407" lon="12.381966"><ele>2.0</ele><time>2026-05-05T14:00:32.265Z</time></trkpt><trkpt lat="45.5981444" lon="12.3816605"><ele>2.0</ele><time>2026-05-05T14:00:33.265Z</time></trkpt><trkpt lat="45.5979476" lon="12.3813628"><ele>2.5</ele><time>2026-05-05T14:00:34.264Z</time></trkpt><trkpt lat="45.59775" lon="12.3810564"><ele>3.0</ele><time>2026-05-05T14:00:35.265Z</time></trkpt><trkpt lat="45.5975492" lon="12.380754"><ele>2.5</ele><time>2026-05-05T14:00:36.265Z</time></trkpt><trkpt lat="45.5973486" lon="12.3804514"><ele>2.0</ele><time>2026-05-05T14:00:37.264Z</time></trkpt><trkpt lat="45.5971422" lon="12.3801509"><ele>2.5</ele><time>2026-05-05T14:00:38.265Z</time></trkpt><trkpt lat="45.5969386" lon="12.3798495"><ele>3.0</ele><time>2026-05-05T14:00:39.264Z</time></trkpt><trkpt lat="45.5967359" lon="12.3795579"><ele>3.0</ele><time>2026-05-05T14:00:40.264Z</time></trkpt><trkpt lat="45.5965349" lon="12.3792582"><ele>3.0</ele><time>2026-05-05T14:00:41.264Z</time></trkpt><trkpt lat="45.596323" lon="12.3789582"><ele>2.5</ele><time>2026-05-05T14:00:42.264Z</time></trkpt><trkpt lat="45.5961249" lon="12.3786662"><ele>2.0</ele><time>2026-05-05T14:00:43.265Z</time></trkpt><trkpt lat="45.5959216" lon="12.3783724"><ele>2.0</ele><time>2026-05-05T14:00:44.264Z</time></trkpt><trkpt lat="45.5957217" lon="12.3780773"><ele>2.0</ele><time>2026-05-05T14:00:45.265Z</time></trkpt><trkpt lat="45.5955221" lon="12.3777866"><ele>2.5</ele><time>2026-05-05T14:00:46.264Z</time></trkpt><trkpt lat="45.5953274" lon="12.3774995"><ele>3.0</ele><time>2026-05-05T14:00:47.265Z</time></trkpt><trkpt lat="45.5951306" lon="12.3772077"><ele>3.0</ele><time>2026-05-05T14:00:48.264Z</time></trkpt><trkpt lat="45.5949286" lon="12.3769233"><ele>3.0</ele><time>2026-05-05T14:00:49.265Z</time></trkpt><trkpt lat="45.5947299" lon="12.3766397"><ele>3.0</ele><time>2026-05-05T14:00:50.264Z</time></trkpt><trkpt lat="45.5945289" lon="12.3763561"><ele>3.0</ele><time>2026-05-05T14:00:51.265Z</time></trkpt><trkpt lat="45.5943384" lon="12.3760791"><ele>3.0</ele><time>2026-05-05T14:00:52.264Z</time></trkpt><trkpt lat="45.5941367" lon="12.3757957"><ele>3.0</ele><time>2026-05-05T14:00:53.264Z</time></trkpt><trkpt lat="45.5939399" lon="12.3755118"><ele>3.0</ele><time>2026-05-05T14:00:54.264Z</time></trkpt><trkpt lat="45.5937448" lon="12.3752266"><ele>3.0</ele><time>2026-05-05T14:00:55.265Z</time></trkpt><trkpt lat="45.5935476" lon="12.3749451"><ele>2.5</ele><time>2026-05-05T14:00:56.265Z</time></trkpt><trkpt lat="45.593352" lon="12.3746609"><ele>2.0</ele><time>2026-05-05T14:00:57.264Z</time></trkpt><trkpt lat="45.5931584" lon="12.3743725"><ele>2.0</ele><time>2026-05-05T14:00:58.264Z</time></trkpt><trkpt lat="45.5929659" lon="12.3740914"><ele>2.0</ele><time>2026-05-05T14:00:59.264Z</time></trkpt><trkpt lat="45.5927741" lon="12.3738087"><ele>2.0</ele><time>2026-05-05T14:01:00.264Z</time></trkpt><trkpt lat="45.5925791" lon="12.3735292"><ele>2.0</ele><time>2026-05-05T14:01:01.265Z</time></trkpt><trkpt lat="45.5923915" lon="12.3732478"><ele>2.0</ele><time>2026-05-05T14:01:02.265Z</time></trkpt><trkpt lat="45.5921997" lon="12.3729698"><ele>2.0</ele><time>2026-05-05T14:01:03.265Z</time></trkpt><trkpt lat="45.5920062" lon="12.3726952"><ele>2.0</ele><time>2026-05-05T14:01:04.265Z</time></trkpt><trkpt lat="45.5918143" lon="12.3724186"><ele>2.0</ele><time>2026-05-05T14:01:05.265Z</time></trkpt><trkpt lat="45.5916243" lon="12.3721393"><ele>1.0</ele><time>2026-05-05T14:01:06.265Z</time></trkpt><trkpt lat="45.5914331" lon="12.3718615"><ele>0.0</ele><time>2026-05-05T14:01:07.265Z</time></trkpt><trkpt lat="45.5912435" lon="12.3715865"><ele>0.0</ele><time>2026-05-05T14:01:08.264Z</time></trkpt><trkpt lat="45.5910548" lon="12.3713125"><ele>0.0</ele><time>2026-05-05T14:01:09.264Z</time></trkpt><trkpt lat="45.5908629" lon="12.3710385"><ele>0.0</ele><time>2026-05-05T14:01:10.264Z</time></trkpt><trkpt lat="45.5906718" lon="12.3707654"><ele>0.0</ele><time>2026-05-05T14:01:11.265Z</time></trkpt><trkpt lat="45.5904882" lon="12.3704925"><ele>0.5</ele><time>2026-05-05T14:01:12.265Z</time></trkpt><trkpt lat="45.5903044" lon="12.3702211"><ele>1.0</ele><time>2026-05-05T14:01:13.265Z</time></trkpt><trkpt lat="45.5901217" lon="12.3699583"><ele>1.0</ele><time>2026-05-05T14:01:14.265Z</time></trkpt><trkpt lat="45.589945" lon="12.369701"><ele>1.0</ele><time>2026-05-05T14:01:15.265Z</time></trkpt><trkpt lat="45.5897629" lon="12.3694402"><ele>0.5</ele><time>2026-05-05T14:01:16.264Z</time></trkpt><trkpt lat="45.5895861" lon="12.3691827"><ele>0.0</ele><time>2026-05-05T14:01:17.264Z</time></trkpt><trkpt lat="45.5894144" lon="12.3689298"><ele>1.0</ele><time>2026-05-05T14:01:18.265Z</time></trkpt><trkpt lat="45.5892439" lon="12.3686752"><ele>2.0</ele><time>2026-05-05T14:01:19.265Z</time></trkpt><trkpt lat="45.5890732" lon="12.3684242"><ele>2.0</ele><time>2026-05-05T14:01:20.265Z</time></trkpt><trkpt lat="45.5889016" lon="12.3681792"><ele>2.0</ele><time>2026-05-05T14:01:21.265Z</time></trkpt><trkpt lat="45.5887184" lon="12.3679286"><ele>2.0</ele><time>2026-05-05T14:01:22.265Z</time></trkpt><trkpt lat="45.5885333" lon="12.3676794"><ele>2.0</ele><time>2026-05-05T14:01:23.265Z</time></trkpt><trkpt lat="45.5883374" lon="12.3674138"><ele>0.5</ele><time>2026-05-05T14:01:24.264Z</time></trkpt><trkpt lat="45.5881331" lon="12.3671314"><ele>-1.0</ele><time>2026-05-05T14:01:25.264Z</time></trkpt><trkpt lat="45.5879263" lon="12.3668305"><ele>1.0</ele><time>2026-05-05T14:01:26.264Z</time></trkpt><trkpt lat="45.5877176" lon="12.366529"><ele>3.0</ele><time>2026-05-05T14:01:27.265Z</time></trkpt><trkpt lat="45.5875055" lon="12.3662215"><ele>3.0</ele><time>2026-05-05T14:01:28.264Z</time></trkpt><trkpt lat="45.5872895" lon="12.3659088"><ele>3.0</ele><time>2026-05-05T14:01:29.264Z</time></trkpt><trkpt lat="45.5870706" lon="12.3655955"><ele>4.0</ele><time>2026-05-05T14:01:30.264Z</time></trkpt><trkpt lat="45.5868574" lon="12.3652668"><ele>5.0</ele><time>2026-05-05T14:01:31.264Z</time></trkpt><trkpt lat="45.5866432" lon="12.3649384"><ele>3.5</ele><time>2026-05-05T14:01:32.265Z</time></trkpt><trkpt lat="45.5864319" lon="12.3646312"><ele>2.0</ele><time>2026-05-05T14:01:33.265Z</time></trkpt><trkpt lat="45.5862241" lon="12.3643094"><ele>3.0</ele><time>2026-05-05T14:01:34.265Z</time></trkpt><trkpt lat="45.586017" lon="12.3640021"><ele>4.0</ele><time>2026-05-05T14:01:35.265Z</time></trkpt><trkpt lat="45.5858112" lon="12.3636954"><ele>4.0</ele><time>2026-05-05T14:01:36.264Z</time></trkpt><trkpt lat="45.5856074" lon="12.3633947"><ele>4.0</ele><time>2026-05-05T14:01:37.265Z</time></trkpt><trkpt lat="45.5854051" lon="12.3630997"><ele>5.5</ele><time>2026-05-05T14:01:38.265Z</time></trkpt><trkpt lat="45.5852071" lon="12.3628159"><ele>7.0</ele><time>2026-05-05T14:01:39.264Z</time></trkpt><trkpt lat="45.58501" lon="12.362533"><ele>7.0</ele><time>2026-05-05T14:01:40.265Z</time></trkpt><trkpt lat="45.5848187" lon="12.3622567"><ele>7.0</ele><time>2026-05-05T14:01:41.265Z</time></trkpt><trkpt lat="45.584628" lon="12.3619821"><ele>6.5</ele><time>2026-05-05T14:01:42.264Z</time></trkpt><trkpt lat="45.5844405" lon="12.3617134"><ele>6.0</ele><time>2026-05-05T14:01:43.264Z</time></trkpt><trkpt lat="45.5842513" lon="12.3614448"><ele>4.5</ele><time>2026-05-05T14:01:44.264Z</time></trkpt><trkpt lat="45.5840654" lon="12.3611714"><ele>3.0</ele><time>2026-05-05T14:01:45.265Z</time></trkpt><trkpt lat="45.583877" lon="12.3608971"><ele>3.5</ele><time>2026-05-05T14:01:46.265Z</time></trkpt><trkpt lat="45.5836771" lon="12.3606138"><ele>4.0</ele><time>2026-05-05T14:01:47.264Z</time></trkpt><trkpt lat="45.5834842" lon="12.3603305"><ele>4.0</ele><time>2026-05-05T14:01:48.264Z</time></trkpt><trkpt lat="45.5832872" lon="12.3600503"><ele>4.0</ele><time>2026-05-05T14:01:49.264Z</time></trkpt><trkpt lat="45.5830918" lon="12.3597631"><ele>4.0</ele><time>2026-05-05T14:01:50.265Z</time></trkpt><trkpt lat="45.5828947" lon="12.3594802"><ele>4.0</ele><time>2026-05-05T14:01:51.265Z</time></trkpt><trkpt lat="45.5826982" lon="12.3591938"><ele>4.0</ele><time>2026-05-05T14:01:52.264Z</time></trkpt><trkpt lat="45.582504" lon="12.3589125"><ele>4.0</ele><time>2026-05-05T14:01:53.265Z</time></trkpt><trkpt lat="45.5823022" lon="12.3586214"><ele>4.0</ele><time>2026-05-05T14:01:54.264Z</time></trkpt><trkpt lat="45.5820975" lon="12.3583281"><ele>4.0</ele><time>2026-05-05T14:01:55.265Z</time></trkpt><trkpt lat="45.5818939" lon="12.3580315"><ele>2.5</ele><time>2026-05-05T14:01:56.265Z</time></trkpt><trkpt lat="45.5816923" lon="12.3577333"><ele>1.0</ele><time>2026-05-05T14:01:57.265Z</time></trkpt><trkpt lat="45.5814885" lon="12.3574388"><ele>1.5</ele><time>2026-05-05T14:01:58.264Z</time></trkpt><trkpt lat="45.5812857" lon="12.3571447"><ele>2.0</ele><time>2026-05-05T14:01:59.265Z</time></trkpt><trkpt lat="45.5810879" lon="12.3568519"><ele>2.0</ele><time>2026-05-05T14:02:00.265Z</time></trkpt><trkpt lat="45.5808911" lon="12.3565572"><ele>2.0</ele><time>2026-05-05T14:02:01.264Z</time></trkpt><trkpt lat="45.5806966" lon="12.3562638"><ele>2.0</ele><time>2026-05-05T14:02:02.264Z</time></trkpt><trkpt lat="45.5805016" lon="12.3559635"><ele>2.0</ele><time>2026-05-05T14:02:03.265Z</time></trkpt><trkpt lat="45.5803075" lon="12.3556653"><ele>1.5</ele><time>2026-05-05T14:02:04.265Z</time></trkpt><trkpt lat="45.5801186" lon="12.3553669"><ele>1.0</ele><time>2026-05-05T14:02:05.264Z</time></trkpt><trkpt lat="45.5799277" lon="12.355066"><ele>1.0</ele><time>2026-05-05T14:02:06.265Z</time></trkpt><trkpt lat="45.579739" lon="12.3547693"><ele>1.0</ele><time>2026-05-05T14:02:07.265Z</time></trkpt><trkpt lat="45.5795558" lon="12.354472"><ele>1.0</ele><time>2026-05-05T14:02:08.265Z</time></trkpt><trkpt lat="45.5793747" lon="12.3541662"><ele>1.0</ele><time>2026-05-05T14:02:09.264Z</time></trkpt><trkpt lat="45.579189" lon="12.3538621"><ele>1.0</ele><time>2026-05-05T14:02:10.265Z</time></trkpt><trkpt lat="45.5790039" lon="12.3535566"><ele>1.0</ele><time>2026-05-05T14:02:11.264Z</time></trkpt><trkpt lat="45.5788219" lon="12.3532488"><ele>0.0</ele><time>2026-05-05T14:02:12.265Z</time></trkpt><trkpt lat="45.5786408" lon="12.3529417"><ele>-1.0</ele><time>2026-05-05T14:02:13.264Z</time></trkpt><trkpt lat="45.5784584" lon="12.3526404"><ele>-1.0</ele><time>2026-05-05T14:02:14.265Z</time></trkpt><trkpt lat="45.5782808" lon="12.352341"><ele>-1.0</ele><time>2026-05-05T14:02:15.264Z</time></trkpt><trkpt lat="45.5780956" lon="12.3520387"><ele>0.0</ele><time>2026-05-05T14:02:16.264Z</time></trkpt><trkpt lat="45.5779179" lon="12.3517293"><ele>1.0</ele><time>2026-05-05T14:02:17.264Z</time></trkpt><trkpt lat="45.5777403" lon="12.351424"><ele>1.5</ele><time>2026-05-05T14:02:18.265Z</time></trkpt><trkpt lat="45.5775575" lon="12.3511133"><ele>2.0</ele><time>2026-05-05T14:02:19.265Z</time></trkpt><trkpt lat="45.5773744" lon="12.350802"><ele>2.0</ele><time>2026-05-05T14:02:20.265Z</time></trkpt><trkpt lat="45.5771919" lon="12.3504896"><ele>2.0</ele><time>2026-05-05T14:02:21.264Z</time></trkpt><trkpt lat="45.5770166" lon="12.3501791"><ele>2.0</ele><time>2026-05-05T14:02:22.265Z</time></trkpt><trkpt lat="45.5768333" lon="12.3498681"><ele>2.0</ele><time>2026-05-05T14:02:23.265Z</time></trkpt><trkpt lat="45.5766537" lon="12.3495549"><ele>2.0</ele><time>2026-05-05T14:02:24.265Z</time></trkpt><trkpt lat="45.5764742" lon="12.3492476"><ele>2.0</ele><time>2026-05-05T14:02:25.264Z</time></trkpt><trkpt lat="45.5762997" lon="12.3489281"><ele>2.5</ele><time>2026-05-05T14:02:26.265Z</time></trkpt><trkpt lat="45.5761269" lon="12.3486114"><ele>3.0</ele><time>2026-05-05T14:02:27.265Z</time></trkpt><trkpt lat="45.5759539" lon="12.348288"><ele>3.0</ele><time>2026-05-05T14:02:28.265Z</time></trkpt><trkpt lat="45.5757863" lon="12.3479662"><ele>3.0</ele><time>2026-05-05T14:02:29.264Z</time></trkpt><trkpt lat="45.5756196" lon="12.3476347"><ele>3.0</ele><time>2026-05-05T14:02:30.265Z</time></trkpt><trkpt lat="45.5754576" lon="12.3473132"><ele>3.0</ele><time>2026-05-05T14:02:31.265Z</time></trkpt><trkpt lat="45.5752986" lon="12.3469867"><ele>2.5</ele><time>2026-05-05T14:02:32.265Z</time></trkpt><trkpt lat="45.5751484" lon="12.3466465"><ele>2.0</ele><time>2026-05-05T14:02:33.264Z</time></trkpt><trkpt lat="45.5750038" lon="12.3463073"><ele>2.0</ele><time>2026-05-05T14:02:34.264Z</time></trkpt><trkpt lat="45.5748658" lon="12.3459538"><ele>2.0</ele><time>2026-05-05T14:02:35.265Z</time></trkpt><trkpt lat="45.5747388" lon="12.3455993"><ele>2.0</ele><time>2026-05-05T14:02:36.264Z</time></trkpt><trkpt lat="45.5746189" lon="12.3452411"><ele>2.0</ele><time>2026-05-05T14:02:37.265Z</time></trkpt><trkpt lat="45.5744964" lon="12.3448781"><ele>1.0</ele><time>2026-05-05T14:02:38.265Z</time></trkpt><trkpt lat="45.5743835" lon="12.3445102"><ele>0.0</ele><time>2026-05-05T14:02:39.265Z</time></trkpt><trkpt lat="45.5742796" lon="12.3441401"><ele>1.0</ele><time>2026-05-05T14:02:40.265Z</time></trkpt><trkpt lat="45.5741804" lon="12.3437676"><ele>2.0</ele><time>2026-05-05T14:02:41.264Z</time></trkpt><trkpt lat="45.5740859" lon="12.3433961"><ele>2.0</ele><time>2026-05-05T14:02:42.264Z</time></trkpt><trkpt lat="45.573995" lon="12.3430162"><ele>2.0</ele><time>2026-05-05T14:02:43.265Z</time></trkpt><trkpt lat="45.5739109" lon="12.3426395"><ele>2.0</ele><time>2026-05-05T14:02:44.265Z</time></trkpt><trkpt lat="45.5738331" lon="12.342264"><ele>2.0</ele><time>2026-05-05T14:02:45.265Z</time></trkpt><trkpt lat="45.5737621" lon="12.3418851"><ele>1.0</ele><time>2026-05-05T14:02:46.265Z</time></trkpt><trkpt lat="45.5736943" lon="12.3415063"><ele>0.0</ele><time>2026-05-05T14:02:47.265Z</time></trkpt><trkpt lat="45.5736345" lon="12.3411228"><ele>-0.5</ele><time>2026-05-05T14:02:48.265Z</time></trkpt><trkpt lat="45.5735856" lon="12.3407349"><ele>-1.0</ele><time>2026-05-05T14:02:49.265Z</time></trkpt><trkpt lat="45.5735357" lon="12.3403491"><ele>0.0</ele><time>2026-05-05T14:02:50.265Z</time></trkpt><trkpt lat="45.5734921" lon="12.3399663"><ele>1.0</ele><time>2026-05-05T14:02:51.265Z</time></trkpt><trkpt lat="45.5734587" lon="12.3395795"><ele>1.5</ele><time>2026-05-05T14:02:52.265Z</time></trkpt><trkpt lat="45.5734242" lon="12.3391832"><ele>2.0</ele><time>2026-05-05T14:02:53.264Z</time></trkpt><trkpt lat="45.5734001" lon="12.3387953"><ele>1.5</ele><time>2026-05-05T14:02:54.265Z</time></trkpt><trkpt lat="45.5733853" lon="12.3384036"><ele>1.0</ele><time>2026-05-05T14:02:55.265Z</time></trkpt><trkpt lat="45.5733753" lon="12.3380122"><ele>1.0</ele><time>2026-05-05T14:02:56.264Z</time></trkpt><trkpt lat="45.5733724" lon="12.3376227"><ele>1.0</ele><time>2026-05-05T14:02:57.265Z</time></trkpt><trkpt lat="45.5733736" lon="12.3372409"><ele>1.0</ele><time>2026-05-05T14:02:58.265Z</time></trkpt><trkpt lat="45.5733809" lon="12.3368622"><ele>1.0</ele><time>2026-05-05T14:02:59.264Z</time></trkpt><trkpt lat="45.5733942" lon="12.3364797"><ele>0.5</ele><time>2026-05-05T14:03:00.264Z</time></trkpt><trkpt lat="45.5734101" lon="12.3360964"><ele>0.0</ele><time>2026-05-05T14:03:01.264Z</time></trkpt><trkpt lat="45.5734365" lon="12.3357193"><ele>0.0</ele><time>2026-05-05T14:03:02.265Z</time></trkpt><trkpt lat="45.5734671" lon="12.3353333"><ele>0.0</ele><time>2026-05-05T14:03:03.264Z</time></trkpt><trkpt lat="45.573504" lon="12.3349514"><ele>-0.5</ele><time>2026-05-05T14:03:04.265Z</time></trkpt><trkpt lat="45.5735461" lon="12.3345664"><ele>-1.0</ele><time>2026-05-05T14:03:05.265Z</time></trkpt><trkpt lat="45.5735946" lon="12.3341911"><ele>-1.5</ele><time>2026-05-05T14:03:06.265Z</time></trkpt><trkpt lat="45.5736477" lon="12.33381"><ele>-2.0</ele><time>2026-05-05T14:03:07.264Z</time></trkpt><trkpt lat="45.5737035" lon="12.3334198"><ele>0.0</ele><time>2026-05-05T14:03:08.265Z</time></trkpt><trkpt lat="45.5737659" lon="12.3330558"><ele>2.0</ele><time>2026-05-05T14:03:09.265Z</time></trkpt><trkpt lat="45.5738347" lon="12.3326682"><ele>2.5</ele><time>2026-05-05T14:03:10.264Z</time></trkpt><trkpt lat="45.573905" lon="12.3322757"><ele>3.0</ele><time>2026-05-05T14:03:11.264Z</time></trkpt><trkpt lat="45.5739784" lon="12.3318786"><ele>2.5</ele><time>2026-05-05T14:03:12.265Z</time></trkpt><trkpt lat="45.5740566" lon="12.331484"><ele>2.0</ele><time>2026-05-05T14:03:13.264Z</time></trkpt><trkpt lat="45.5741416" lon="12.3310879"><ele>2.0</ele><time>2026-05-05T14:03:14.264Z</time></trkpt><trkpt lat="45.5742299" lon="12.3306867"><ele>2.0</ele><time>2026-05-05T14:03:15.265Z</time></trkpt><trkpt lat="45.5743231" lon="12.3302912"><ele>2.0</ele><time>2026-05-05T14:03:16.265Z</time></trkpt><trkpt lat="45.5744175" lon="12.3298908"><ele>2.0</ele><time>2026-05-05T14:03:17.264Z</time></trkpt><trkpt lat="45.5745152" lon="12.3294921"><ele>1.5</ele><time>2026-05-05T14:03:18.265Z</time></trkpt><trkpt lat="45.5746109" lon="12.3290914"><ele>1.0</ele><time>2026-05-05T14:03:19.264Z</time></trkpt><trkpt lat="45.5747045" lon="12.3287101"><ele>0.5</ele><time>2026-05-05T14:03:20.265Z</time></trkpt><trkpt lat="45.5747981" lon="12.3283227"><ele>0.0</ele><time>2026-05-05T14:03:21.265Z</time></trkpt><trkpt lat="45.5748918" lon="12.3279394"><ele>0.0</ele><time>2026-05-05T14:03:22.264Z</time></trkpt><trkpt lat="45.5749841" lon="12.3275479"><ele>0.0</ele><time>2026-05-05T14:03:23.264Z</time></trkpt><trkpt lat="45.5750779" lon="12.3271559"><ele>0.5</ele><time>2026-05-05T14:03:24.264Z</time></trkpt><trkpt lat="45.5751707" lon="12.3267705"><ele>1.0</ele><time>2026-05-05T14:03:25.265Z</time></trkpt><trkpt lat="45.5752597" lon="12.3263748"><ele>1.5</ele><time>2026-05-05T14:03:26.265Z</time></trkpt><trkpt lat="45.5753526" lon="12.3259761"><ele>2.0</ele><time>2026-05-05T14:03:27.265Z</time></trkpt><trkpt lat="45.5754453" lon="12.3255831"><ele>0.5</ele><time>2026-05-05T14:03:28.265Z</time></trkpt><trkpt lat="45.5755412" lon="12.3251856"><ele>-1.0</ele><time>2026-05-05T14:03:29.265Z</time></trkpt><trkpt lat="45.575637" lon="12.3247891"><ele>-0.5</ele><time>2026-05-05T14:03:30.264Z</time></trkpt><trkpt lat="45.5757283" lon="12.3244005"><ele>0.0</ele><time>2026-05-05T14:03:31.264Z</time></trkpt><trkpt lat="45.5758218" lon="12.3240146"><ele>0.0</ele><time>2026-05-05T14:03:32.265Z</time></trkpt><trkpt lat="45.5759173" lon="12.3236251"><ele>0.0</ele><time>2026-05-05T14:03:33.265Z</time></trkpt><trkpt lat="45.5760128" lon="12.3232246"><ele>0.0</ele><time>2026-05-05T14:03:34.265Z</time></trkpt><trkpt lat="45.576109" lon="12.3228299"><ele>0.0</ele><time>2026-05-05T14:03:35.265Z</time></trkpt><trkpt lat="45.5762025" lon="12.3224392"><ele>1.0</ele><time>2026-05-05T14:03:36.264Z</time></trkpt><trkpt lat="45.5762947" lon="12.3220413"><ele>2.0</ele><time>2026-05-05T14:03:37.265Z</time></trkpt><trkpt lat="45.57639" lon="12.3216519"><ele>2.0</ele><time>2026-05-05T14:03:38.264Z</time></trkpt><trkpt lat="45.5764792" lon="12.3212573"><ele>2.0</ele><time>2026-05-05T14:03:39.264Z</time></trkpt><trkpt lat="45.5765699" lon="12.3208813"><ele>1.5</ele><time>2026-05-05T14:03:40.264Z</time></trkpt><trkpt lat="45.5766629" lon="12.3204924"><ele>1.0</ele><time>2026-05-05T14:03:41.265Z</time></trkpt><trkpt lat="45.5767572" lon="12.3200989"><ele>1.0</ele><time>2026-05-05T14:03:42.265Z</time></trkpt><trkpt lat="45.5768497" lon="12.3197029"><ele>1.0</ele><time>2026-05-05T14:03:43.264Z</time></trkpt><trkpt lat="45.5769425" lon="12.319308"><ele>0.0</ele><time>2026-05-05T14:03:44.265Z</time></trkpt><trkpt lat="45.5770382" lon="12.3189135"><ele>-1.0</ele><time>2026-05-05T14:03:45.264Z</time></trkpt><trkpt lat="45.5771316" lon="12.3185227"><ele>-1.0</ele><time>2026-05-05T14:03:46.265Z</time></trkpt><trkpt lat="45.5772257" lon="12.3181325"><ele>-1.0</ele><time>2026-05-05T14:03:47.265Z</time></trkpt><trkpt lat="45.5773206" lon="12.3177435"><ele>-1.0</ele><time>2026-05-05T14:03:48.265Z</time></trkpt><trkpt lat="45.5774144" lon="12.3173505"><ele>-1.0</ele><time>2026-05-05T14:03:49.265Z</time></trkpt><trkpt lat="45.5775076" lon="12.3169602"><ele>-0.5</ele><time>2026-05-05T14:03:50.265Z</time></trkpt><trkpt lat="45.5776018" lon="12.3165773"><ele>0.0</ele><time>2026-05-05T14:03:51.264Z</time></trkpt><trkpt lat="45.5776966" lon="12.3161766"><ele>0.0</ele><time>2026-05-05T14:03:52.264Z</time></trkpt><trkpt lat="45.5777933" lon="12.3157871"><ele>0.0</ele><time>2026-05-05T14:03:53.265Z</time></trkpt><trkpt lat="45.5778884" lon="12.3153868"><ele>0.5</ele><time>2026-05-05T14:03:54.265Z</time></trkpt><trkpt lat="45.5779863" lon="12.3149848"><ele>1.0</ele><time>2026-05-05T14:03:55.265Z</time></trkpt><trkpt lat="45.5780804" lon="12.3145848"><ele>1.5</ele><time>2026-05-05T14:03:56.265Z</time></trkpt><trkpt lat="45.5781766" lon="12.3141846"><ele>2.0</ele><time>2026-05-05T14:03:57.264Z</time></trkpt><trkpt lat="45.5782697" lon="12.3137894"><ele>2.0</ele><time>2026-05-05T14:03:58.265Z</time></trkpt><trkpt lat="45.5783618" lon="12.3133794"><ele>2.0</ele><time>2026-05-05T14:03:59.265Z</time></trkpt><trkpt lat="45.5784536" lon="12.3129636"><ele>1.0</ele><time>2026-05-05T14:04:00.264Z</time></trkpt><trkpt lat="45.5785475" lon="12.3125383"><ele>0.0</ele><time>2026-05-05T14:04:01.265Z</time></trkpt><trkpt lat="45.5786439" lon="12.3121127"><ele>0.5</ele><time>2026-05-05T14:04:02.264Z</time></trkpt><trkpt lat="45.5787284" lon="12.3116838"><ele>1.0</ele><time>2026-05-05T14:04:03.264Z</time></trkpt><trkpt lat="45.5788283" lon="12.311266"><ele>1.0</ele><time>2026-05-05T14:04:04.265Z</time></trkpt><trkpt lat="45.5789282" lon="12.310851"><ele>1.0</ele><time>2026-05-05T14:04:05.265Z</time></trkpt><trkpt lat="45.5790268" lon="12.3104316"><ele>0.5</ele><time>2026-05-05T14:04:06.265Z</time></trkpt><trkpt lat="45.5791255" lon="12.3100149"><ele>0.0</ele><time>2026-05-05T14:04:07.265Z</time></trkpt><trkpt lat="45.5792276" lon="12.3095964"><ele>0.0</ele><time>2026-05-05T14:04:08.264Z</time></trkpt><trkpt lat="45.5793345" lon="12.3091882"><ele>0.0</ele><time>2026-05-05T14:04:09.265Z</time></trkpt><trkpt lat="45.5794403" lon="12.308777"><ele>0.0</ele><time>2026-05-05T14:04:10.265Z</time></trkpt><trkpt lat="45.5795483" lon="12.3083742"><ele>0.0</ele><time>2026-05-05T14:04:11.264Z</time></trkpt><trkpt lat="45.5796609" lon="12.3079735"><ele>1.0</ele><time>2026-05-05T14:04:12.265Z</time></trkpt><trkpt lat="45.5797834" lon="12.3075799"><ele>2.0</ele><time>2026-05-05T14:04:13.265Z</time></trkpt><trkpt lat="45.5799125" lon="12.3071886"><ele>2.0</ele><time>2026-05-05T14:04:14.265Z</time></trkpt><trkpt lat="45.5800443" lon="12.3067916"><ele>2.0</ele><time>2026-05-05T14:04:15.265Z</time></trkpt><trkpt lat="45.580177" lon="12.3064031"><ele>2.0</ele><time>2026-05-05T14:04:16.264Z</time></trkpt><trkpt lat="45.580315" lon="12.3060165"><ele>2.0</ele><time>2026-05-05T14:04:17.264Z</time></trkpt><trkpt lat="45.5804523" lon="12.3056365"><ele>2.0</ele><time>2026-05-05T14:04:18.265Z</time></trkpt><trkpt lat="45.5805937" lon="12.3052579"><ele>2.0</ele><time>2026-05-05T14:04:19.265Z</time></trkpt><trkpt lat="45.5807408" lon="12.3048828"><ele>2.0</ele><time>2026-05-05T14:04:20.264Z</time></trkpt><trkpt lat="45.5808928" lon="12.3045154"><ele>2.0</ele><time>2026-05-05T14:04:21.265Z</time></trkpt><trkpt lat="45.5810469" lon="12.3041488"><ele>2.5</ele><time>2026-05-05T14:04:22.265Z</time></trkpt><trkpt lat="45.5812033" lon="12.3037872"><ele>3.0</ele><time>2026-05-05T14:04:23.265Z</time></trkpt><trkpt lat="45.5813635" lon="12.3034367"><ele>3.5</ele><time>2026-05-05T14:04:24.265Z</time></trkpt><trkpt lat="45.5815305" lon="12.3030793"><ele>4.0</ele><time>2026-05-05T14:04:25.265Z</time></trkpt><trkpt lat="45.5817012" lon="12.3027277"><ele>4.0</ele><time>2026-05-05T14:04:26.264Z</time></trkpt><trkpt lat="45.5818732" lon="12.3023832"><ele>4.0</ele><time>2026-05-05T14:04:27.264Z</time></trkpt><trkpt lat="45.5820486" lon="12.302034"><ele>3.5</ele><time>2026-05-05T14:04:28.265Z</time></trkpt><trkpt lat="45.5822252" lon="12.3016921"><ele>3.0</ele><time>2026-05-05T14:04:29.264Z</time></trkpt><trkpt lat="45.5823999" lon="12.3013527"><ele>2.5</ele><time>2026-05-05T14:04:30.265Z</time></trkpt><trkpt lat="45.5825748" lon="12.3010218"><ele>2.0</ele><time>2026-05-05T14:04:31.264Z</time></trkpt><trkpt lat="45.5827509" lon="12.3006925"><ele>2.5</ele><time>2026-05-05T14:04:32.264Z</time></trkpt><trkpt lat="45.5829295" lon="12.3003589"><ele>3.0</ele><time>2026-05-05T14:04:33.265Z</time></trkpt><trkpt lat="45.5831092" lon="12.3000236"><ele>2.5</ele><time>2026-05-05T14:04:34.265Z</time></trkpt><trkpt lat="45.5832886" lon="12.2996874"><ele>2.0</ele><time>2026-05-05T14:04:35.264Z</time></trkpt><trkpt lat="45.5834677" lon="12.2993532"><ele>2.0</ele><time>2026-05-05T14:04:36.265Z</time></trkpt><trkpt lat="45.5836522" lon="12.2990237"><ele>2.0</ele><time>2026-05-05T14:04:37.265Z</time></trkpt><trkpt lat="45.583834" lon="12.2986952"><ele>2.0</ele><time>2026-05-05T14:04:38.265Z</time></trkpt><trkpt lat="45.5840129" lon="12.2983665"><ele>2.0</ele><time>2026-05-05T14:04:39.265Z</time></trkpt><trkpt lat="45.5841903" lon="12.298044"><ele>2.0</ele><time>2026-05-05T14:04:40.265Z</time></trkpt><trkpt lat="45.5843685" lon="12.2977167"><ele>2.0</ele><time>2026-05-05T14:04:41.265Z</time></trkpt><trkpt lat="45.5845483" lon="12.2973998"><ele>3.0</ele><time>2026-05-05T14:04:42.265Z</time></trkpt><trkpt lat="45.5847254" lon="12.2970797"><ele>4.0</ele><time>2026-05-05T14:04:43.264Z</time></trkpt><trkpt lat="45.5848999" lon="12.2967536"><ele>4.0</ele><time>2026-05-05T14:04:44.265Z</time></trkpt><trkpt lat="45.5850756" lon="12.2964272"><ele>4.0</ele><time>2026-05-05T14:04:45.265Z</time></trkpt><trkpt lat="45.5852507" lon="12.2961021"><ele>4.0</ele><time>2026-05-05T14:04:46.264Z</time></trkpt><trkpt lat="45.5854282" lon="12.2957793"><ele>4.0</ele><time>2026-05-05T14:04:47.265Z</time></trkpt><trkpt lat="45.585605" lon="12.2954632"><ele>4.0</ele><time>2026-05-05T14:04:48.265Z</time></trkpt><trkpt lat="45.5857802" lon="12.29515"><ele>4.0</ele><time>2026-05-05T14:04:49.265Z</time></trkpt><trkpt lat="45.5859496" lon="12.2948258"><ele>4.0</ele><time>2026-05-05T14:04:50.265Z</time></trkpt><trkpt lat="45.5861191" lon="12.2945041"><ele>4.0</ele><time>2026-05-05T14:04:51.265Z</time></trkpt><trkpt lat="45.5862903" lon="12.2941783"><ele>3.0</ele><time>2026-05-05T14:04:52.265Z</time></trkpt><trkpt lat="45.586463" lon="12.2938262"><ele>2.0</ele><time>2026-05-05T14:04:53.265Z</time></trkpt><trkpt lat="45.5866332" lon="12.2934674"><ele>2.0</ele><time>2026-05-05T14:04:54.264Z</time></trkpt><trkpt lat="45.586798" lon="12.2931139"><ele>2.0</ele><time>2026-05-05T14:04:55.265Z</time></trkpt><trkpt lat="45.5869596" lon="12.2927563"><ele>2.0</ele><time>2026-05-05T14:04:56.264Z</time></trkpt><trkpt lat="45.5871192" lon="12.2923947"><ele>2.0</ele><time>2026-05-05T14:04:57.265Z</time></trkpt><trkpt lat="45.5872717" lon="12.2920301"><ele>2.5</ele><time>2026-05-05T14:04:58.265Z</time></trkpt><trkpt lat="45.5874198" lon="12.2916662"><ele>3.0</ele><time>2026-05-05T14:04:59.264Z</time></trkpt><trkpt lat="45.5875685" lon="12.2913005"><ele>3.0</ele><time>2026-05-05T14:05:00.265Z</time></trkpt><trkpt lat="45.5877148" lon="12.2909287"><ele>3.0</ele><time>2026-05-05T14:05:01.265Z</time></trkpt><trkpt lat="45.5878496" lon="12.2905478"><ele>2.5</ele><time>2026-05-05T14:05:02.264Z</time></trkpt><trkpt lat="45.5879955" lon="12.2901623"><ele>2.0</ele><time>2026-05-05T14:05:03.265Z</time></trkpt><trkpt lat="45.5881247" lon="12.2897749"><ele>3.0</ele><time>2026-05-05T14:05:04.264Z</time></trkpt><trkpt lat="45.5882505" lon="12.2893802"><ele>4.0</ele><time>2026-05-05T14:05:05.265Z</time></trkpt><trkpt lat="45.5883713" lon="12.2889844"><ele>3.5</ele><time>2026-05-05T14:05:06.265Z</time></trkpt><trkpt lat="45.5884897" lon="12.2885854"><ele>3.0</ele><time>2026-05-05T14:05:07.265Z</time></trkpt><trkpt lat="45.5886063" lon="12.2881846"><ele>4.0</ele><time>2026-05-05T14:05:08.264Z</time></trkpt><trkpt lat="45.5887175" lon="12.2877769"><ele>5.0</ele><time>2026-05-05T14:05:09.265Z</time></trkpt><trkpt lat="45.5888239" lon="12.2873667"><ele>5.0</ele><time>2026-05-05T14:05:10.264Z</time></trkpt><trkpt lat="45.5889299" lon="12.2869477"><ele>5.0</ele><time>2026-05-05T14:05:11.265Z</time></trkpt><trkpt lat="45.5890311" lon="12.2865248"><ele>5.0</ele><time>2026-05-05T14:05:12.264Z</time></trkpt><trkpt lat="45.5891226" lon="12.286104"><ele>5.0</ele><time>2026-05-05T14:05:13.265Z</time></trkpt><trkpt lat="45.5892168" lon="12.2856797"><ele>5.5</ele><time>2026-05-05T14:05:14.264Z</time></trkpt><trkpt lat="45.5893073" lon="12.2852636"><ele>6.0</ele><time>2026-05-05T14:05:15.264Z</time></trkpt><trkpt lat="45.589398" lon="12.2848414"><ele>5.0</ele><time>2026-05-05T14:05:16.264Z</time></trkpt><trkpt lat="45.5894902" lon="12.2844209"><ele>4.0</ele><time>2026-05-05T14:05:17.264Z</time></trkpt><trkpt lat="45.5895786" lon="12.2839938"><ele>3.5</ele><time>2026-05-05T14:05:18.264Z</time></trkpt><trkpt lat="45.5896679" lon="12.2835653"><ele>3.0</ele><time>2026-05-05T14:05:19.265Z</time></trkpt><trkpt lat="45.5897558" lon="12.2831457"><ele>3.0</ele><time>2026-05-05T14:05:20.265Z</time></trkpt><trkpt lat="45.5898431" lon="12.2827252"><ele>3.0</ele><time>2026-05-05T14:05:21.264Z</time></trkpt><trkpt lat="45.5899334" lon="12.2823032"><ele>3.0</ele><time>2026-05-05T14:05:22.265Z</time></trkpt><trkpt lat="45.5900244" lon="12.2818871"><ele>3.0</ele><time>2026-05-05T14:05:23.265Z</time></trkpt><trkpt lat="45.5901107" lon="12.2814697"><ele>4.0</ele><time>2026-05-05T14:05:24.265Z</time></trkpt><trkpt lat="45.5901984" lon="12.2810557"><ele>5.0</ele><time>2026-05-05T14:05:25.265Z</time></trkpt><trkpt lat="45.5902841" lon="12.2806391"><ele>6.5</ele><time>2026-05-05T14:05:26.265Z</time></trkpt><trkpt lat="45.590372" lon="12.2802276"><ele>8.0</ele><time>2026-05-05T14:05:27.264Z</time></trkpt><trkpt lat="45.5904592" lon="12.2798089"><ele>7.5</ele><time>2026-05-05T14:05:28.264Z</time></trkpt><trkpt lat="45.5905449" lon="12.2793975"><ele>7.0</ele><time>2026-05-05T14:05:29.265Z</time></trkpt><trkpt lat="45.5906344" lon="12.2789922"><ele>6.0</ele><time>2026-05-05T14:05:30.265Z</time></trkpt><trkpt lat="45.5907178" lon="12.278579"><ele>5.0</ele><time>2026-05-05T14:05:31.264Z</time></trkpt><trkpt lat="45.5908039" lon="12.2781681"><ele>4.5</ele><time>2026-05-05T14:05:32.264Z</time></trkpt><trkpt lat="45.5908881" lon="12.2777608"><ele>4.0</ele><time>2026-05-05T14:05:33.265Z</time></trkpt><trkpt lat="45.5909713" lon="12.2773558"><ele>4.0</ele><time>2026-05-05T14:05:34.265Z</time></trkpt><trkpt lat="45.5910568" lon="12.2769476"><ele>4.0</ele><time>2026-05-05T14:05:35.265Z</time></trkpt><trkpt lat="45.591145" lon="12.276539"><ele>3.5</ele><time>2026-05-05T14:05:36.265Z</time></trkpt><trkpt lat="45.5912325" lon="12.2761203"><ele>3.0</ele><time>2026-05-05T14:05:37.264Z</time></trkpt><trkpt lat="45.591321" lon="12.2757038"><ele>3.0</ele><time>2026-05-05T14:05:38.265Z</time></trkpt><trkpt lat="45.5914065" lon="12.2752814"><ele>3.0</ele><time>2026-05-05T14:05:39.264Z</time></trkpt><trkpt lat="45.5914907" lon="12.2748603"><ele>3.5</ele><time>2026-05-05T14:05:40.265Z</time></trkpt><trkpt lat="45.5915803" lon="12.2744319"><ele>4.0</ele><time>2026-05-05T14:05:41.264Z</time></trkpt><trkpt lat="45.5916648" lon="12.2740103"><ele>3.5</ele><time>2026-05-05T14:05:42.265Z</time></trkpt><trkpt lat="45.5917559" lon="12.2735803"><ele>3.0</ele><time>2026-05-05T14:05:43.264Z</time></trkpt><trkpt lat="45.5918462" lon="12.2731551"><ele>3.5</ele><time>2026-05-05T14:05:44.265Z</time></trkpt><trkpt lat="45.5919329" lon="12.2727358"><ele>4.0</ele><time>2026-05-05T14:05:45.264Z</time></trkpt><trkpt lat="45.5920177" lon="12.2723094"><ele>4.0</ele><time>2026-05-05T14:05:46.265Z</time></trkpt><trkpt lat="45.5921059" lon="12.2718946"><ele>4.0</ele><time>2026-05-05T14:05:47.265Z</time></trkpt><trkpt lat="45.5921904" lon="12.2714867"><ele>3.5</ele><time>2026-05-05T14:05:48.264Z</time></trkpt><trkpt lat="45.5922706" lon="12.2710646"><ele>3.0</ele><time>2026-05-05T14:05:49.264Z</time></trkpt><trkpt lat="45.5923496" lon="12.2706519"><ele>3.5</ele><time>2026-05-05T14:05:50.265Z</time></trkpt><trkpt lat="45.5924192" lon="12.2702375"><ele>4.0</ele><time>2026-05-05T14:05:51.264Z</time></trkpt><trkpt lat="45.5924909" lon="12.2698192"><ele>4.0</ele><time>2026-05-05T14:05:52.264Z</time></trkpt><trkpt lat="45.592556" lon="12.2694202"><ele>4.0</ele><time>2026-05-05T14:05:53.264Z</time></trkpt><trkpt lat="45.5926132" lon="12.2690032"><ele>3.0</ele><time>2026-05-05T14:05:54.265Z</time></trkpt><trkpt lat="45.5926699" lon="12.2685964"><ele>2.0</ele><time>2026-05-05T14:05:55.264Z</time></trkpt><trkpt lat="45.5927202" lon="12.2681691"><ele>3.0</ele><time>2026-05-05T14:05:56.264Z</time></trkpt><trkpt lat="45.592767" lon="12.2677431"><ele>4.0</ele><time>2026-05-05T14:05:57.264Z</time></trkpt><trkpt lat="45.5928064" lon="12.2673209"><ele>4.0</ele><time>2026-05-05T14:05:58.264Z</time></trkpt><trkpt lat="45.5928383" lon="12.2668855"><ele>4.0</ele><time>2026-05-05T14:05:59.265Z</time></trkpt><trkpt lat="45.5928686" lon="12.2664565"><ele>3.5</ele><time>2026-05-05T14:06:00.265Z</time></trkpt><trkpt lat="45.5928952" lon="12.2660214"><ele>3.0</ele><time>2026-05-05T14:06:01.265Z</time></trkpt><trkpt lat="45.5929132" lon="12.2655986"><ele>3.0</ele><time>2026-05-05T14:06:02.265Z</time></trkpt><trkpt lat="45.5929303" lon="12.2651586"><ele>3.0</ele><time>2026-05-05T14:06:03.264Z</time></trkpt><trkpt lat="45.5929445" lon="12.2647252"><ele>4.0</ele><time>2026-05-05T14:06:04.265Z</time></trkpt><trkpt lat="45.5929495" lon="12.2642917"><ele>5.0</ele><time>2026-05-05T14:06:05.265Z</time></trkpt><trkpt lat="45.5929488" lon="12.2638539"><ele>5.0</ele><time>2026-05-05T14:06:06.265Z</time></trkpt><trkpt lat="45.5929455" lon="12.2634203"><ele>5.0</ele><time>2026-05-05T14:06:07.264Z</time></trkpt><trkpt lat="45.5929337" lon="12.262985"><ele>4.5</ele><time>2026-05-05T14:06:08.264Z</time></trkpt><trkpt lat="45.5929197" lon="12.2625476"><ele>4.0</ele><time>2026-05-05T14:06:09.264Z</time></trkpt><trkpt lat="45.5929" lon="12.2621108"><ele>3.5</ele><time>2026-05-05T14:06:10.265Z</time></trkpt><trkpt lat="45.5928731" lon="12.2616733"><ele>3.0</ele><time>2026-05-05T14:06:11.265Z</time></trkpt><trkpt lat="45.5928441" lon="12.261237"><ele>3.5</ele><time>2026-05-05T14:06:12.265Z</time></trkpt><trkpt lat="45.5928067" lon="12.2607989"><ele>4.0</ele><time>2026-05-05T14:06:13.264Z</time></trkpt><trkpt lat="45.5927677" lon="12.2603615"><ele>4.0</ele><time>2026-05-05T14:06:14.264Z</time></trkpt><trkpt lat="45.5927222" lon="12.2599303"><ele>4.0</ele><time>2026-05-05T14:06:15.265Z</time></trkpt><trkpt lat="45.5926709" lon="12.259497"><ele>4.0</ele><time>2026-05-05T14:06:16.265Z</time></trkpt><trkpt lat="45.5926214" lon="12.2590644"><ele>4.0</ele><time>2026-05-05T14:06:17.265Z</time></trkpt><trkpt lat="45.5925637" lon="12.2586317"><ele>4.0</ele><time>2026-05-05T14:06:18.264Z</time></trkpt><trkpt lat="45.5924943" lon="12.2581976"><ele>4.0</ele><time>2026-05-05T14:06:19.265Z</time></trkpt><trkpt lat="45.5924207" lon="12.2577751"><ele>4.0</ele><time>2026-05-05T14:06:20.265Z</time></trkpt><trkpt lat="45.5923457" lon="12.257352"><ele>4.0</ele><time>2026-05-05T14:06:21.265Z</time></trkpt><trkpt lat="45.5922638" lon="12.2569294"><ele>4.0</ele><time>2026-05-05T14:06:22.265Z</time></trkpt><trkpt lat="45.5921749" lon="12.2565046"><ele>4.0</ele><time>2026-05-05T14:06:23.265Z</time></trkpt><trkpt lat="45.5920831" lon="12.2560819"><ele>3.5</ele><time>2026-05-05T14:06:24.265Z</time></trkpt><trkpt lat="45.5919873" lon="12.25566"><ele>3.0</ele><time>2026-05-05T14:06:25.264Z</time></trkpt><trkpt lat="45.5918867" lon="12.2552467"><ele>3.0</ele><time>2026-05-05T14:06:26.264Z</time></trkpt><trkpt lat="45.5917763" lon="12.2548321"><ele>3.0</ele><time>2026-05-05T14:06:27.264Z</time></trkpt><trkpt lat="45.5916604" lon="12.2544166"><ele>3.5</ele><time>2026-05-05T14:06:28.265Z</time></trkpt><trkpt lat="45.5915455" lon="12.2540065"><ele>4.0</ele><time>2026-05-05T14:06:29.265Z</time></trkpt><trkpt lat="45.5914248" lon="12.2535937"><ele>4.0</ele><time>2026-05-05T14:06:30.265Z</time></trkpt><trkpt lat="45.5912972" lon="12.2531871"><ele>4.0</ele><time>2026-05-05T14:06:31.265Z</time></trkpt><trkpt lat="45.5911703" lon="12.2527868"><ele>4.0</ele><time>2026-05-05T14:06:32.265Z</time></trkpt><trkpt lat="45.5910399" lon="12.2523879"><ele>4.0</ele><time>2026-05-05T14:06:33.264Z</time></trkpt><trkpt lat="45.5909061" lon="12.2519958"><ele>4.0</ele><time>2026-05-05T14:06:34.265Z</time></trkpt><trkpt lat="45.5907665" lon="12.2516015"><ele>4.0</ele><time>2026-05-05T14:06:35.265Z</time></trkpt><trkpt lat="45.5906353" lon="12.2512103"><ele>4.0</ele><time>2026-05-05T14:06:36.265Z</time></trkpt><trkpt lat="45.5905001" lon="12.2508225"><ele>4.0</ele><time>2026-05-05T14:06:37.265Z</time></trkpt><trkpt lat="45.5903636" lon="12.250437"><ele>4.5</ele><time>2026-05-05T14:06:38.264Z</time></trkpt><trkpt lat="45.5902288" lon="12.2500581"><ele>5.0</ele><time>2026-05-05T14:06:39.265Z</time></trkpt><trkpt lat="45.5900908" lon="12.249676"><ele>5.0</ele><time>2026-05-05T14:06:40.265Z</time></trkpt><trkpt lat="45.5899545" lon="12.2493025"><ele>5.0</ele><time>2026-05-05T14:06:41.265Z</time></trkpt><trkpt lat="45.5898188" lon="12.2489274"><ele>5.5</ele><time>2026-05-05T14:06:42.265Z</time></trkpt><trkpt lat="45.589686" lon="12.2485558"><ele>6.0</ele><time>2026-05-05T14:06:43.265Z</time></trkpt><trkpt lat="45.5895543" lon="12.248186"><ele>6.0</ele><time>2026-05-05T14:06:44.265Z</time></trkpt><trkpt lat="45.5894234" lon="12.2478162"><ele>6.0</ele><time>2026-05-05T14:06:45.264Z</time></trkpt><trkpt lat="45.5892937" lon="12.2474447"><ele>5.5</ele><time>2026-05-05T14:06:46.265Z</time></trkpt><trkpt lat="45.5891683" lon="12.2470826"><ele>5.0</ele><time>2026-05-05T14:06:47.265Z</time></trkpt><trkpt lat="45.5890464" lon="12.2467162"><ele>6.0</ele><time>2026-05-05T14:06:48.265Z</time></trkpt><trkpt lat="45.5889231" lon="12.2463493"><ele>7.0</ele><time>2026-05-05T14:06:49.265Z</time></trkpt><trkpt lat="45.5888031" lon="12.2459841"><ele>7.0</ele><time>2026-05-05T14:06:50.265Z</time></trkpt><trkpt lat="45.5886919" lon="12.2456327"><ele>7.0</ele><time>2026-05-05T14:06:51.265Z</time></trkpt><trkpt lat="45.5885785" lon="12.2452576"><ele>7.0</ele><time>2026-05-05T14:06:52.265Z</time></trkpt><trkpt lat="45.5884648" lon="12.2448857"><ele>7.0</ele><time>2026-05-05T14:06:53.264Z</time></trkpt><trkpt lat="45.5883635" lon="12.2445328"><ele>6.5</ele><time>2026-05-05T14:06:54.264Z</time></trkpt><trkpt lat="45.5882579" lon="12.2441526"><ele>6.0</ele><time>2026-05-05T14:06:55.265Z</time></trkpt><trkpt lat="45.5881613" lon="12.2437757"><ele>5.5</ele><time>2026-05-05T14:06:56.265Z</time></trkpt><trkpt lat="45.5880623" lon="12.2433964"><ele>5.0</ele><time>2026-05-05T14:06:57.264Z</time></trkpt><trkpt lat="45.5879697" lon="12.2430171"><ele>5.0</ele><time>2026-05-05T14:06:58.265Z</time></trkpt><trkpt lat="45.5878792" lon="12.2426368"><ele>5.0</ele><time>2026-05-05T14:06:59.265Z</time></trkpt><trkpt lat="45.5877957" lon="12.2422656"><ele>5.5</ele><time>2026-05-05T14:07:00.265Z</time></trkpt><trkpt lat="45.5877165" lon="12.2418785"><ele>6.0</ele><time>2026-05-05T14:07:01.265Z</time></trkpt><trkpt lat="45.5876409" lon="12.2414965"><ele>6.0</ele><time>2026-05-05T14:07:02.264Z</time></trkpt><trkpt lat="45.5875731" lon="12.2411189"><ele>6.0</ele><time>2026-05-05T14:07:03.265Z</time></trkpt><trkpt lat="45.5875071" lon="12.2407193"><ele>6.5</ele><time>2026-05-05T14:07:04.264Z</time></trkpt><trkpt lat="45.5874415" lon="12.240325"><ele>7.0</ele><time>2026-05-05T14:07:05.265Z</time></trkpt><trkpt lat="45.5873822" lon="12.2399274"><ele>7.0</ele><time>2026-05-05T14:07:06.265Z</time></trkpt><trkpt lat="45.5873281" lon="12.2395232"><ele>7.0</ele><time>2026-05-05T14:07:07.265Z</time></trkpt><trkpt lat="45.5872791" lon="12.2391358"><ele>6.5</ele><time>2026-05-05T14:07:08.264Z</time></trkpt><trkpt lat="45.5872375" lon="12.2387349"><ele>6.0</ele><time>2026-05-05T14:07:09.265Z</time></trkpt><trkpt lat="45.5871979" lon="12.2383384"><ele>6.0</ele><time>2026-05-05T14:07:10.265Z</time></trkpt><trkpt lat="45.587165" lon="12.2379358"><ele>6.0</ele><time>2026-05-05T14:07:11.265Z</time></trkpt><trkpt lat="45.587139" lon="12.2375335"><ele>6.0</ele><time>2026-05-05T14:07:12.264Z</time></trkpt><trkpt lat="45.5871153" lon="12.2371326"><ele>6.0</ele><time>2026-05-05T14:07:13.264Z</time></trkpt><trkpt lat="45.5870923" lon="12.2367356"><ele>6.5</ele><time>2026-05-05T14:07:14.265Z</time></trkpt><trkpt lat="45.5870757" lon="12.2363405"><ele>7.0</ele><time>2026-05-05T14:07:15.265Z</time></trkpt><trkpt lat="45.5870633" lon="12.2359421"><ele>7.0</ele><time>2026-05-05T14:07:16.264Z</time></trkpt><trkpt lat="45.5870513" lon="12.2355429"><ele>7.0</ele><time>2026-05-05T14:07:17.265Z</time></trkpt><trkpt lat="45.5870479" lon="12.2351453"><ele>6.5</ele><time>2026-05-05T14:07:18.264Z</time></trkpt><trkpt lat="45.5870489" lon="12.2347373"><ele>6.0</ele><time>2026-05-05T14:07:19.265Z</time></trkpt><trkpt lat="45.5870543" lon="12.2343274"><ele>6.5</ele><time>2026-05-05T14:07:20.264Z</time></trkpt><trkpt lat="45.5870574" lon="12.2339198"><ele>7.0</ele><time>2026-05-05T14:07:21.264Z</time></trkpt><trkpt lat="45.5870625" lon="12.2335129"><ele>7.0</ele><time>2026-05-05T14:07:22.265Z</time></trkpt><trkpt lat="45.5876299" lon="12.2279297"><ele>7.0</ele><time>2026-05-05T14:07:37.265Z</time></trkpt><trkpt lat="45.5877014" lon="12.2275501"><ele>7.0</ele><time>2026-05-05T14:07:38.265Z</time></trkpt><trkpt lat="45.5877495" lon="12.2271941"><ele>7.0</ele><time>2026-05-05T14:07:39.265Z</time></trkpt><trkpt lat="45.5877978" lon="12.2268423"><ele>7.0</ele><time>2026-05-05T14:07:40.264Z</time></trkpt><trkpt lat="45.5878467" lon="12.2264915"><ele>6.5</ele><time>2026-05-05T14:07:41.265Z</time></trkpt><trkpt lat="45.5878968" lon="12.2261441"><ele>6.0</ele><time>2026-05-05T14:07:42.265Z</time></trkpt><trkpt lat="45.5879443" lon="12.2257878"><ele>6.5</ele><time>2026-05-05T14:07:43.265Z</time></trkpt><trkpt lat="45.5879908" lon="12.225431"><ele>7.0</ele><time>2026-05-05T14:07:44.265Z</time></trkpt><trkpt lat="45.5880377" lon="12.2250795"><ele>7.0</ele><time>2026-05-05T14:07:45.265Z</time></trkpt><trkpt lat="45.5880828" lon="12.2247281"><ele>7.0</ele><time>2026-05-05T14:07:46.265Z</time></trkpt><trkpt lat="45.5881308" lon="12.2243736"><ele>7.0</ele><time>2026-05-05T14:07:47.265Z</time></trkpt><trkpt lat="45.5881766" lon="12.2240196"><ele>7.0</ele><time>2026-05-05T14:07:48.264Z</time></trkpt><trkpt lat="45.588223" lon="12.2236655"><ele>7.0</ele><time>2026-05-05T14:07:49.264Z</time></trkpt><trkpt lat="45.5882684" lon="12.2233101"><ele>7.0</ele><time>2026-05-05T14:07:50.265Z</time></trkpt><trkpt lat="45.5883151" lon="12.2229569"><ele>7.0</ele><time>2026-05-05T14:07:51.264Z</time></trkpt><trkpt lat="45.5883625" lon="12.2226042"><ele>7.0</ele><time>2026-05-05T14:07:52.265Z</time></trkpt><trkpt lat="45.5884112" lon="12.2222462"><ele>7.5</ele><time>2026-05-05T14:07:53.265Z</time></trkpt><trkpt lat="45.5884577" lon="12.2218856"><ele>8.0</ele><time>2026-05-05T14:07:54.265Z</time></trkpt><trkpt lat="45.5885026" lon="12.2215161"><ele>7.0</ele><time>2026-05-05T14:07:55.265Z</time></trkpt><trkpt lat="45.5885472" lon="12.2211463"><ele>6.0</ele><time>2026-05-05T14:07:56.265Z</time></trkpt><trkpt lat="45.5885921" lon="12.2207711"><ele>6.5</ele><time>2026-05-05T14:07:57.265Z</time></trkpt><trkpt lat="45.5886401" lon="12.2203956"><ele>7.0</ele><time>2026-05-05T14:07:58.265Z</time></trkpt><trkpt lat="45.5886889" lon="12.2200185"><ele>7.0</ele><time>2026-05-05T14:07:59.265Z</time></trkpt><trkpt lat="45.5887373" lon="12.2196379"><ele>7.0</ele><time>2026-05-05T14:08:00.265Z</time></trkpt><trkpt lat="45.5887881" lon="12.2192524"><ele>7.0</ele><time>2026-05-05T14:08:01.265Z</time></trkpt><trkpt lat="45.5888405" lon="12.218855"><ele>7.0</ele><time>2026-05-05T14:08:02.264Z</time></trkpt><trkpt lat="45.5888925" lon="12.2184498"><ele>7.5</ele><time>2026-05-05T14:08:03.265Z</time></trkpt><trkpt lat="45.5889459" lon="12.2180423"><ele>8.0</ele><time>2026-05-05T14:08:04.264Z</time></trkpt><trkpt lat="45.5890013" lon="12.2176364"><ele>8.0</ele><time>2026-05-05T14:08:05.265Z</time></trkpt><trkpt lat="45.5890574" lon="12.2172239"><ele>8.0</ele><time>2026-05-05T14:08:06.265Z</time></trkpt><trkpt lat="45.5891119" lon="12.2168109"><ele>8.5</ele><time>2026-05-05T14:08:07.265Z</time></trkpt><trkpt lat="45.5891697" lon="12.216393"><ele>9.0</ele><time>2026-05-05T14:08:08.265Z</time></trkpt><trkpt lat="45.5892245" lon="12.21597"><ele>8.5</ele><time>2026-05-05T14:08:09.264Z</time></trkpt><trkpt lat="45.5892756" lon="12.2155388"><ele>8.0</ele><time>2026-05-05T14:08:10.265Z</time></trkpt><trkpt lat="45.5893287" lon="12.2151077"><ele>8.0</ele><time>2026-05-05T14:08:11.264Z</time></trkpt><trkpt lat="45.5893803" lon="12.2146741"><ele>8.0</ele><time>2026-05-05T14:08:12.265Z</time></trkpt><trkpt lat="45.5894273" lon="12.2142441"><ele>8.0</ele><time>2026-05-05T14:08:13.265Z</time></trkpt><trkpt lat="45.5894735" lon="12.2138159"><ele>8.0</ele><time>2026-05-05T14:08:14.265Z</time></trkpt><trkpt lat="45.5895134" lon="12.2133915"><ele>8.0</ele><time>2026-05-05T14:08:15.265Z</time></trkpt><trkpt lat="45.5895505" lon="12.2129708"><ele>8.0</ele><time>2026-05-05T14:08:16.264Z</time></trkpt><trkpt lat="45.5895807" lon="12.2125603"><ele>7.5</ele><time>2026-05-05T14:08:17.265Z</time></trkpt><trkpt lat="45.5896123" lon="12.2121475"><ele>7.0</ele><time>2026-05-05T14:08:18.264Z</time></trkpt><trkpt lat="45.5896374" lon="12.2117301"><ele>7.0</ele><time>2026-05-05T14:08:19.264Z</time></trkpt><trkpt lat="45.589659" lon="12.2113233"><ele>7.0</ele><time>2026-05-05T14:08:20.265Z</time></trkpt><trkpt lat="45.5896714" lon="12.2109178"><ele>7.0</ele><time>2026-05-05T14:08:21.264Z</time></trkpt><trkpt lat="45.5896786" lon="12.2105115"><ele>7.0</ele><time>2026-05-05T14:08:22.265Z</time></trkpt><trkpt lat="45.5896792" lon="12.2101002"><ele>7.0</ele><time>2026-05-05T14:08:23.265Z</time></trkpt><trkpt lat="45.5896766" lon="12.2096966"><ele>7.0</ele><time>2026-05-05T14:08:24.265Z</time></trkpt><trkpt lat="45.5896653" lon="12.2092968"><ele>7.0</ele><time>2026-05-05T14:08:25.265Z</time></trkpt><trkpt lat="45.5896502" lon="12.2088972"><ele>7.0</ele><time>2026-05-05T14:08:26.265Z</time></trkpt><trkpt lat="45.5896354" lon="12.2084906"><ele>7.0</ele><time>2026-05-05T14:08:27.265Z</time></trkpt><trkpt lat="45.5896158" lon="12.2080937"><ele>7.0</ele><time>2026-05-05T14:08:28.265Z</time></trkpt><trkpt lat="45.5895929" lon="12.2076888"><ele>7.5</ele><time>2026-05-05T14:08:29.265Z</time></trkpt><trkpt lat="45.5895624" lon="12.2072865"><ele>8.0</ele><time>2026-05-05T14:08:30.264Z</time></trkpt><trkpt lat="45.5895276" lon="12.2068825"><ele>8.5</ele><time>2026-05-05T14:08:31.265Z</time></trkpt><trkpt lat="45.5894869" lon="12.2064894"><ele>9.0</ele><time>2026-05-05T14:08:32.265Z</time></trkpt><trkpt lat="45.5894421" lon="12.2060933"><ele>9.0</ele><time>2026-05-05T14:08:33.265Z</time></trkpt><trkpt lat="45.5893929" lon="12.2056942"><ele>9.0</ele><time>2026-05-05T14:08:34.264Z</time></trkpt><trkpt lat="45.5893391" lon="12.2052972"><ele>9.0</ele><time>2026-05-05T14:08:35.265Z</time></trkpt><trkpt lat="45.5892803" lon="12.2049008"><ele>9.0</ele><time>2026-05-05T14:08:36.264Z</time></trkpt><trkpt lat="45.5892188" lon="12.2045099"><ele>8.5</ele><time>2026-05-05T14:08:37.265Z</time></trkpt><trkpt lat="45.5891541" lon="12.2041113"><ele>8.0</ele><time>2026-05-05T14:08:38.264Z</time></trkpt><trkpt lat="45.5890793" lon="12.2037159"><ele>7.5</ele><time>2026-05-05T14:08:39.265Z</time></trkpt><trkpt lat="45.5890043" lon="12.2033196"><ele>7.0</ele><time>2026-05-05T14:08:40.264Z</time></trkpt><trkpt lat="45.5889231" lon="12.2029211"><ele>7.0</ele><time>2026-05-05T14:08:41.264Z</time></trkpt><trkpt lat="45.5888379" lon="12.2025302"><ele>7.0</ele><time>2026-05-05T14:08:42.265Z</time></trkpt><trkpt lat="45.588749" lon="12.2021328"><ele>7.0</ele><time>2026-05-05T14:08:43.265Z</time></trkpt><trkpt lat="45.5886532" lon="12.2017289"><ele>7.0</ele><time>2026-05-05T14:08:44.265Z</time></trkpt><trkpt lat="45.5885483" lon="12.2013394"><ele>7.5</ele><time>2026-05-05T14:08:45.264Z</time></trkpt><trkpt lat="45.5884428" lon="12.2009538"><ele>8.0</ele><time>2026-05-05T14:08:46.264Z</time></trkpt><trkpt lat="45.5883302" lon="12.2005691"><ele>8.0</ele><time>2026-05-05T14:08:47.265Z</time></trkpt><trkpt lat="45.5882142" lon="12.2001903"><ele>8.0</ele><time>2026-05-05T14:08:48.264Z</time></trkpt><trkpt lat="45.5880942" lon="12.1998074"><ele>8.5</ele><time>2026-05-05T14:08:49.265Z</time></trkpt><trkpt lat="45.5879635" lon="12.1994242"><ele>9.0</ele><time>2026-05-05T14:08:50.265Z</time></trkpt><trkpt lat="45.5878326" lon="12.1990483"><ele>9.0</ele><time>2026-05-05T14:08:51.265Z</time></trkpt><trkpt lat="45.587694" lon="12.1986681"><ele>9.0</ele><time>2026-05-05T14:08:52.264Z</time></trkpt><trkpt lat="45.5875571" lon="12.198283"><ele>8.5</ele><time>2026-05-05T14:08:53.264Z</time></trkpt><trkpt lat="45.5874144" lon="12.1978994"><ele>8.0</ele><time>2026-05-05T14:08:54.264Z</time></trkpt><trkpt lat="45.5872706" lon="12.1975153"><ele>8.0</ele><time>2026-05-05T14:08:55.265Z</time></trkpt><trkpt lat="45.5871334" lon="12.1971319"><ele>8.0</ele><time>2026-05-05T14:08:56.264Z</time></trkpt><trkpt lat="45.5869914" lon="12.1967502"><ele>7.0</ele><time>2026-05-05T14:08:57.265Z</time></trkpt><trkpt lat="45.5868508" lon="12.1963741"><ele>6.0</ele><time>2026-05-05T14:08:58.264Z</time></trkpt><trkpt lat="45.5867081" lon="12.1959963"><ele>6.5</ele><time>2026-05-05T14:08:59.265Z</time></trkpt><trkpt lat="45.5865689" lon="12.195621"><ele>7.0</ele><time>2026-05-05T14:09:00.264Z</time></trkpt><trkpt lat="45.5864308" lon="12.1952419"><ele>7.0</ele><time>2026-05-05T14:09:01.265Z</time></trkpt><trkpt lat="45.5862919" lon="12.1948656"><ele>7.0</ele><time>2026-05-05T14:09:02.265Z</time></trkpt><trkpt lat="45.5861538" lon="12.1944999"><ele>7.5</ele><time>2026-05-05T14:09:03.264Z</time></trkpt><trkpt lat="45.5860148" lon="12.1941295"><ele>8.0</ele><time>2026-05-05T14:09:04.265Z</time></trkpt><trkpt lat="45.5858761" lon="12.1937593"><ele>8.5</ele><time>2026-05-05T14:09:05.264Z</time></trkpt><trkpt lat="45.5857392" lon="12.1933906"><ele>9.0</ele><time>2026-05-05T14:09:06.265Z</time></trkpt><trkpt lat="45.5856057" lon="12.1930162"><ele>9.0</ele><time>2026-05-05T14:09:07.264Z</time></trkpt><trkpt lat="45.5854698" lon="12.1926466"><ele>9.0</ele><time>2026-05-05T14:09:08.265Z</time></trkpt><trkpt lat="45.5853343" lon="12.192274"><ele>8.0</ele><time>2026-05-05T14:09:09.265Z</time></trkpt><trkpt lat="45.5851968" lon="12.1918989"><ele>7.0</ele><time>2026-05-05T14:09:10.265Z</time></trkpt><trkpt lat="45.5850569" lon="12.1915237"><ele>7.0</ele><time>2026-05-05T14:09:11.265Z</time></trkpt><trkpt lat="45.5849187" lon="12.191149"><ele>7.0</ele><time>2026-05-05T14:09:12.264Z</time></trkpt><trkpt lat="45.5847829" lon="12.1907741"><ele>7.5</ele><time>2026-05-05T14:09:13.264Z</time></trkpt><trkpt lat="45.5846437" lon="12.1904039"><ele>8.0</ele><time>2026-05-05T14:09:14.264Z</time></trkpt><trkpt lat="45.5845025" lon="12.1900306"><ele>7.5</ele><time>2026-05-05T14:09:15.264Z</time></trkpt><trkpt lat="45.5843626" lon="12.1896592"><ele>7.0</ele><time>2026-05-05T14:09:16.265Z</time></trkpt><trkpt lat="45.5842231" lon="12.1892828"><ele>7.0</ele><time>2026-05-05T14:09:17.265Z</time></trkpt><trkpt lat="45.5840894" lon="12.1889139"><ele>7.0</ele><time>2026-05-05T14:09:18.265Z</time></trkpt><trkpt lat="45.5839509" lon="12.1885371"><ele>7.0</ele><time>2026-05-05T14:09:19.265Z</time></trkpt><trkpt lat="45.5838101" lon="12.1881602"><ele>7.0</ele><time>2026-05-05T14:09:20.265Z</time></trkpt><trkpt lat="45.5836729" lon="12.1877866"><ele>7.0</ele><time>2026-05-05T14:09:21.264Z</time></trkpt><trkpt lat="45.5835303" lon="12.1874101"><ele>7.0</ele><time>2026-05-05T14:09:22.265Z</time></trkpt><trkpt lat="45.5833928" lon="12.1870311"><ele>7.5</ele><time>2026-05-05T14:09:23.265Z</time></trkpt><trkpt lat="45.583253" lon="12.1866521"><ele>8.0</ele><time>2026-05-05T14:09:24.265Z</time></trkpt><trkpt lat="45.583112" lon="12.1862763"><ele>8.5</ele><time>2026-05-05T14:09:25.264Z</time></trkpt><trkpt lat="45.5829735" lon="12.1859014"><ele>9.0</ele><time>2026-05-05T14:09:26.264Z</time></trkpt><trkpt lat="45.5828362" lon="12.1855255"><ele>9.0</ele><time>2026-05-05T14:09:27.264Z</time></trkpt><trkpt lat="45.5826954" lon="12.185156"><ele>9.0</ele><time>2026-05-05T14:09:28.264Z</time></trkpt><trkpt lat="45.5825562" lon="12.184782"><ele>8.5</ele><time>2026-05-05T14:09:29.265Z</time></trkpt><trkpt lat="45.5824207" lon="12.1844109"><ele>8.0</ele><time>2026-05-05T14:09:30.265Z</time></trkpt><trkpt lat="45.582288" lon="12.184053"><ele>8.0</ele><time>2026-05-05T14:09:31.264Z</time></trkpt><trkpt lat="45.5821525" lon="12.1836854"><ele>8.0</ele><time>2026-05-05T14:09:32.265Z</time></trkpt><trkpt lat="45.5820164" lon="12.1833118"><ele>7.5</ele><time>2026-05-05T14:09:33.264Z</time></trkpt><trkpt lat="45.5818821" lon="12.1829419"><ele>7.0</ele><time>2026-05-05T14:09:34.264Z</time></trkpt><trkpt lat="45.5817533" lon="12.1825709"><ele>7.5</ele><time>2026-05-05T14:09:35.265Z</time></trkpt><trkpt lat="45.5816167" lon="12.1821978"><ele>8.0</ele><time>2026-05-05T14:09:36.264Z</time></trkpt><trkpt lat="45.5814807" lon="12.1818283"><ele>8.0</ele><time>2026-05-05T14:09:37.265Z</time></trkpt><trkpt lat="45.5813411" lon="12.1814581"><ele>8.0</ele><time>2026-05-05T14:09:38.264Z</time></trkpt><trkpt lat="45.5812036" lon="12.1810863"><ele>8.5</ele><time>2026-05-05T14:09:39.264Z</time></trkpt><trkpt lat="45.5810653" lon="12.1807181"><ele>9.0</ele><time>2026-05-05T14:09:40.265Z</time></trkpt><trkpt lat="45.5809287" lon="12.1803485"><ele>9.0</ele><time>2026-05-05T14:09:41.264Z</time></trkpt><trkpt lat="45.5807946" lon="12.1799812"><ele>9.0</ele><time>2026-05-05T14:09:42.265Z</time></trkpt><trkpt lat="45.580664" lon="12.1796246"><ele>9.0</ele><time>2026-05-05T14:09:43.264Z</time></trkpt><trkpt lat="45.5805309" lon="12.1792605"><ele>9.0</ele><time>2026-05-05T14:09:44.265Z</time></trkpt><trkpt lat="45.5803914" lon="12.1788909"><ele>9.0</ele><time>2026-05-05T14:09:45.264Z</time></trkpt><trkpt lat="45.5802518" lon="12.1785314"><ele>9.0</ele><time>2026-05-05T14:09:46.264Z</time></trkpt><trkpt lat="45.5801076" lon="12.1781552"><ele>9.0</ele><time>2026-05-05T14:09:47.264Z</time></trkpt><trkpt lat="45.5799577" lon="12.1777675"><ele>9.0</ele><time>2026-05-05T14:09:48.265Z</time></trkpt><trkpt lat="45.5798074" lon="12.1773795"><ele>9.0</ele><time>2026-05-05T14:09:49.265Z</time></trkpt><trkpt lat="45.5796595" lon="12.176993"><ele>9.0</ele><time>2026-05-05T14:09:50.265Z</time></trkpt><trkpt lat="45.5795151" lon="12.1766029"><ele>9.5</ele><time>2026-05-05T14:09:51.265Z</time></trkpt><trkpt lat="45.579371" lon="12.176224"><ele>10.0</ele><time>2026-05-05T14:09:52.265Z</time></trkpt><trkpt lat="45.5792301" lon="12.1758532"><ele>10.5</ele><time>2026-05-05T14:09:53.264Z</time></trkpt><trkpt lat="45.5790842" lon="12.1754686"><ele>11.0</ele><time>2026-05-05T14:09:54.264Z</time></trkpt><trkpt lat="45.5789424" lon="12.1750888"><ele>10.5</ele><time>2026-05-05T14:09:55.265Z</time></trkpt><trkpt lat="45.5788037" lon="12.1747039"><ele>10.0</ele><time>2026-05-05T14:09:56.264Z</time></trkpt><trkpt lat="45.5786596" lon="12.1743183"><ele>10.0</ele><time>2026-05-05T14:09:57.264Z</time></trkpt><trkpt lat="45.5785186" lon="12.1739281"><ele>10.0</ele><time>2026-05-05T14:09:58.265Z</time></trkpt><trkpt lat="45.5783812" lon="12.1735401"><ele>9.0</ele><time>2026-05-05T14:09:59.265Z</time></trkpt><trkpt lat="45.5782403" lon="12.1731458"><ele>8.0</ele><time>2026-05-05T14:10:00.264Z</time></trkpt><trkpt lat="45.5780995" lon="12.17275"><ele>8.0</ele><time>2026-05-05T14:10:01.264Z</time></trkpt><trkpt lat="45.5779596" lon="12.1723543"><ele>8.0</ele><time>2026-05-05T14:10:02.265Z</time></trkpt><trkpt lat="45.5778157" lon="12.1719632"><ele>8.0</ele><time>2026-05-05T14:10:03.265Z</time></trkpt><trkpt lat="45.5776691" lon="12.1715722"><ele>8.0</ele><time>2026-05-05T14:10:04.265Z</time></trkpt><trkpt lat="45.5775243" lon="12.171183"><ele>8.0</ele><time>2026-05-05T14:10:05.265Z</time></trkpt><trkpt lat="45.5773815" lon="12.1707944"><ele>8.0</ele><time>2026-05-05T14:10:06.265Z</time></trkpt><trkpt lat="45.5772379" lon="12.1704039"><ele>8.5</ele><time>2026-05-05T14:10:07.264Z</time></trkpt><trkpt lat="45.577095" lon="12.1700157"><ele>9.0</ele><time>2026-05-05T14:10:08.265Z</time></trkpt><trkpt lat="45.5769497" lon="12.1696254"><ele>9.0</ele><time>2026-05-05T14:10:09.264Z</time></trkpt><trkpt lat="45.5768025" lon="12.1692334"><ele>9.0</ele><time>2026-05-05T14:10:10.264Z</time></trkpt><trkpt lat="45.5766557" lon="12.1688465"><ele>9.0</ele><time>2026-05-05T14:10:11.265Z</time></trkpt><trkpt lat="45.5765143" lon="12.168464"><ele>9.0</ele><time>2026-05-05T14:10:12.265Z</time></trkpt><trkpt lat="45.576371" lon="12.1680788"><ele>9.0</ele><time>2026-05-05T14:10:13.264Z</time></trkpt><trkpt lat="45.5762287" lon="12.1676943"><ele>9.0</ele><time>2026-05-05T14:10:14.264Z</time></trkpt><trkpt lat="45.5760878" lon="12.1673106"><ele>9.0</ele><time>2026-05-05T14:10:15.264Z</time></trkpt><trkpt lat="45.5759429" lon="12.1669254"><ele>9.0</ele><time>2026-05-05T14:10:16.265Z</time></trkpt><trkpt lat="45.5757917" lon="12.1665402"><ele>9.0</ele><time>2026-05-05T14:10:17.265Z</time></trkpt><trkpt lat="45.5756394" lon="12.1661521"><ele>9.0</ele><time>2026-05-05T14:10:18.265Z</time></trkpt><trkpt lat="45.57549" lon="12.1657684"><ele>9.0</ele><time>2026-05-05T14:10:19.265Z</time></trkpt><trkpt lat="45.57534" lon="12.1653963"><ele>9.0</ele><time>2026-05-05T14:10:20.265Z</time></trkpt><trkpt lat="45.5751758" lon="12.1650206"><ele>9.0</ele><time>2026-05-05T14:10:21.265Z</time></trkpt><trkpt lat="45.5750158" lon="12.164643"><ele>9.0</ele><time>2026-05-05T14:10:22.265Z</time></trkpt><trkpt lat="45.5748612" lon="12.1642653"><ele>9.5</ele><time>2026-05-05T14:10:23.264Z</time></trkpt><trkpt lat="45.5746986" lon="12.1638884"><ele>10.0</ele><time>2026-05-05T14:10:24.265Z</time></trkpt><trkpt lat="45.5745311" lon="12.1635133"><ele>9.5</ele><time>2026-05-05T14:10:25.265Z</time></trkpt><trkpt lat="45.5743626" lon="12.1631436"><ele>9.0</ele><time>2026-05-05T14:10:26.265Z</time></trkpt><trkpt lat="45.5741938" lon="12.1627785"><ele>9.0</ele><time>2026-05-05T14:10:27.265Z</time></trkpt><trkpt lat="45.5740213" lon="12.1624172"><ele>9.0</ele><time>2026-05-05T14:10:28.265Z</time></trkpt><trkpt lat="45.5738443" lon="12.1620576"><ele>8.5</ele><time>2026-05-05T14:10:29.265Z</time></trkpt><trkpt lat="45.5736685" lon="12.1617181"><ele>8.0</ele><time>2026-05-05T14:10:30.264Z</time></trkpt><trkpt lat="45.573484" lon="12.1613676"><ele>9.0</ele><time>2026-05-05T14:10:31.265Z</time></trkpt><trkpt lat="45.5732987" lon="12.1610322"><ele>10.0</ele><time>2026-05-05T14:10:32.264Z</time></trkpt><trkpt lat="45.5731103" lon="12.1607019"><ele>10.0</ele><time>2026-05-05T14:10:33.265Z</time></trkpt><trkpt lat="45.5729175" lon="12.1603636"><ele>10.0</ele><time>2026-05-05T14:10:34.264Z</time></trkpt><trkpt lat="45.5727294" lon="12.1600315"><ele>10.0</ele><time>2026-05-05T14:10:35.265Z</time></trkpt><trkpt lat="45.572533" lon="12.1596959"><ele>10.0</ele><time>2026-05-05T14:10:36.265Z</time></trkpt><trkpt lat="45.572337" lon="12.1593632"><ele>9.5</ele><time>2026-05-05T14:10:37.265Z</time></trkpt><trkpt lat="45.5721376" lon="12.1590307"><ele>9.0</ele><time>2026-05-05T14:10:38.265Z</time></trkpt><trkpt lat="45.5719344" lon="12.1587068"><ele>9.0</ele><time>2026-05-05T14:10:39.265Z</time></trkpt><trkpt lat="45.5717322" lon="12.1583815"><ele>9.0</ele><time>2026-05-05T14:10:40.264Z</time></trkpt><trkpt lat="45.5715256" lon="12.1580649"><ele>9.0</ele><time>2026-05-05T14:10:41.265Z</time></trkpt><trkpt lat="45.5713183" lon="12.1577575"><ele>9.0</ele><time>2026-05-05T14:10:42.265Z</time></trkpt><trkpt lat="45.5711124" lon="12.1574605"><ele>8.5</ele><time>2026-05-05T14:10:43.265Z</time></trkpt><trkpt lat="45.5708998" lon="12.157155"><ele>8.0</ele><time>2026-05-05T14:10:44.264Z</time></trkpt><trkpt lat="45.5706906" lon="12.156856"><ele>8.0</ele><time>2026-05-05T14:10:45.265Z</time></trkpt><trkpt lat="45.5704763" lon="12.1565613"><ele>8.0</ele><time>2026-05-05T14:10:46.264Z</time></trkpt><trkpt lat="45.5702577" lon="12.1562703"><ele>8.5</ele><time>2026-05-05T14:10:47.265Z</time></trkpt><trkpt lat="45.570036" lon="12.1559907"><ele>9.0</ele><time>2026-05-05T14:10:48.264Z</time></trkpt><trkpt lat="45.5698128" lon="12.1557171"><ele>8.5</ele><time>2026-05-05T14:10:49.265Z</time></trkpt><trkpt lat="45.5695851" lon="12.1554552"><ele>8.0</ele><time>2026-05-05T14:10:50.265Z</time></trkpt><trkpt lat="45.5693661" lon="12.1551956"><ele>8.0</ele><time>2026-05-05T14:10:51.265Z</time></trkpt><trkpt lat="45.569141" lon="12.1549546"><ele>8.0</ele><time>2026-05-05T14:10:52.265Z</time></trkpt><trkpt lat="45.568917" lon="12.1547006"><ele>8.0</ele><time>2026-05-05T14:10:53.264Z</time></trkpt><trkpt lat="45.5686929" lon="12.1544469"><ele>8.0</ele><time>2026-05-05T14:10:54.264Z</time></trkpt><trkpt lat="45.5668609" lon="12.1526361"><ele>8.0</ele><time>2026-05-05T14:11:01.264Z</time></trkpt><trkpt lat="45.5666114" lon="12.1525074"><ele>8.0</ele><time>2026-05-05T14:11:02.265Z</time></trkpt><trkpt lat="45.566362" lon="12.1523422"><ele>8.0</ele><time>2026-05-05T14:11:03.265Z</time></trkpt><trkpt lat="45.5661015" lon="12.1521565"><ele>8.0</ele><time>2026-05-05T14:11:04.264Z</time></trkpt><trkpt lat="45.5658289" lon="12.1519706"><ele>8.0</ele><time>2026-05-05T14:11:05.264Z</time></trkpt><trkpt lat="45.5655476" lon="12.15179"><ele>8.0</ele><time>2026-05-05T14:11:06.264Z</time></trkpt><trkpt lat="45.5652659" lon="12.1516164"><ele>8.0</ele><time>2026-05-05T14:11:07.264Z</time></trkpt><trkpt lat="45.5649781" lon="12.1514535"><ele>8.0</ele><time>2026-05-05T14:11:08.265Z</time></trkpt><trkpt lat="45.5646853" lon="12.1512949"><ele>7.5</ele><time>2026-05-05T14:11:09.265Z</time></trkpt><trkpt lat="45.5643947" lon="12.151146"><ele>7.0</ele><time>2026-05-05T14:11:10.265Z</time></trkpt><trkpt lat="45.5641051" lon="12.1510066"><ele>7.0</ele><time>2026-05-05T14:11:11.265Z</time></trkpt><trkpt lat="45.5638179" lon="12.1508774"><ele>7.0</ele><time>2026-05-05T14:11:12.264Z</time></trkpt><trkpt lat="45.5635302" lon="12.1507541"><ele>7.0</ele><time>2026-05-05T14:11:13.264Z</time></trkpt><trkpt lat="45.5632397" lon="12.1506384"><ele>7.0</ele><time>2026-05-05T14:11:14.264Z</time></trkpt><trkpt lat="45.5629495" lon="12.1505302"><ele>8.5</ele><time>2026-05-05T14:11:15.264Z</time></trkpt><trkpt lat="45.5626556" lon="12.1504319"><ele>10.0</ele><time>2026-05-05T14:11:16.265Z</time></trkpt><trkpt lat="45.5623613" lon="12.1503386"><ele>10.0</ele><time>2026-05-05T14:11:17.264Z</time></trkpt><trkpt lat="45.5620638" lon="12.1502592"><ele>10.0</ele><time>2026-05-05T14:11:18.264Z</time></trkpt><trkpt lat="45.5617677" lon="12.1501846"><ele>8.5</ele><time>2026-05-05T14:11:19.265Z</time></trkpt><trkpt lat="45.5614686" lon="12.1501157"><ele>7.0</ele><time>2026-05-05T14:11:20.264Z</time></trkpt><trkpt lat="45.5611648" lon="12.1500471"><ele>7.0</ele><time>2026-05-05T14:11:21.265Z</time></trkpt><trkpt lat="45.5608637" lon="12.1499877"><ele>7.0</ele><time>2026-05-05T14:11:22.265Z</time></trkpt><trkpt lat="45.5605625" lon="12.1499302"><ele>7.0</ele><time>2026-05-05T14:11:23.265Z</time></trkpt><trkpt lat="45.56026" lon="12.1498816"><ele>7.0</ele><time>2026-05-05T14:11:24.265Z</time></trkpt><trkpt lat="45.5599644" lon="12.149841"><ele>7.0</ele><time>2026-05-05T14:11:25.264Z</time></trkpt><trkpt lat="45.5596625" lon="12.1497998"><ele>7.0</ele><time>2026-05-05T14:11:26.264Z</time></trkpt><trkpt lat="45.5593606" lon="12.149766"><ele>7.0</ele><time>2026-05-05T14:11:27.265Z</time></trkpt><trkpt lat="45.5590676" lon="12.1497405"><ele>7.0</ele><time>2026-05-05T14:11:28.265Z</time></trkpt><trkpt lat="45.5587787" lon="12.1497159"><ele>6.5</ele><time>2026-05-05T14:11:29.265Z</time></trkpt><trkpt lat="45.5584883" lon="12.1496943"><ele>6.0</ele><time>2026-05-05T14:11:30.265Z</time></trkpt><trkpt lat="45.5581978" lon="12.1496678"><ele>6.0</ele><time>2026-05-05T14:11:31.265Z</time></trkpt><trkpt lat="45.55791" lon="12.1496412"><ele>6.0</ele><time>2026-05-05T14:11:32.265Z</time></trkpt><trkpt lat="45.5576187" lon="12.1496063"><ele>7.0</ele><time>2026-05-05T14:11:33.264Z</time></trkpt><trkpt lat="45.5573349" lon="12.1495799"><ele>8.0</ele><time>2026-05-05T14:11:34.264Z</time></trkpt><trkpt lat="45.5570535" lon="12.1495465"><ele>7.0</ele><time>2026-05-05T14:11:35.264Z</time></trkpt><trkpt lat="45.5567706" lon="12.1495147"><ele>6.0</ele><time>2026-05-05T14:11:36.264Z</time></trkpt><trkpt lat="45.556487" lon="12.149477"><ele>6.0</ele><time>2026-05-05T14:11:37.264Z</time></trkpt><trkpt lat="45.5561981" lon="12.1494391"><ele>6.0</ele><time>2026-05-05T14:11:38.265Z</time></trkpt><trkpt lat="45.5559072" lon="12.149404"><ele>6.0</ele><time>2026-05-05T14:11:39.265Z</time></trkpt><trkpt lat="45.5556142" lon="12.149357"><ele>6.0</ele><time>2026-05-05T14:11:40.264Z</time></trkpt><trkpt lat="45.5553165" lon="12.1492966"><ele>6.5</ele><time>2026-05-05T14:11:41.265Z</time></trkpt><trkpt lat="45.5550234" lon="12.149225"><ele>7.0</ele><time>2026-05-05T14:11:42.265Z</time></trkpt><trkpt lat="45.5547299" lon="12.1491497"><ele>7.5</ele><time>2026-05-05T14:11:43.265Z</time></trkpt><trkpt lat="45.5544375" lon="12.1490564"><ele>8.0</ele><time>2026-05-05T14:11:44.265Z</time></trkpt><trkpt lat="45.5541446" lon="12.1489577"><ele>8.5</ele><time>2026-05-05T14:11:45.265Z</time></trkpt><trkpt lat="45.5538482" lon="12.1488483"><ele>9.0</ele><time>2026-05-05T14:11:46.265Z</time></trkpt><trkpt lat="45.5535562" lon="12.1487245"><ele>9.0</ele><time>2026-05-05T14:11:47.265Z</time></trkpt><trkpt lat="45.5532623" lon="12.1485892"><ele>9.0</ele><time>2026-05-05T14:11:48.265Z</time></trkpt><trkpt lat="45.5529662" lon="12.1484485"><ele>9.5</ele><time>2026-05-05T14:11:49.264Z</time></trkpt><trkpt lat="45.5526776" lon="12.1482966"><ele>10.0</ele><time>2026-05-05T14:11:50.264Z</time></trkpt><trkpt lat="45.5523916" lon="12.1481428"><ele>9.0</ele><time>2026-05-05T14:11:51.265Z</time></trkpt><trkpt lat="45.5521054" lon="12.1479789"><ele>8.0</ele><time>2026-05-05T14:11:52.264Z</time></trkpt><trkpt lat="45.5518236" lon="12.1478139"><ele>7.5</ele><time>2026-05-05T14:11:53.265Z</time></trkpt><trkpt lat="45.5515413" lon="12.1476464"><ele>7.0</ele><time>2026-05-05T14:11:54.265Z</time></trkpt><trkpt lat="45.5512596" lon="12.147477"><ele>7.0</ele><time>2026-05-05T14:11:55.265Z</time></trkpt><trkpt lat="45.5480999" lon="12.1455598"><ele>7.0</ele><time>2026-05-05T14:12:06.264Z</time></trkpt><trkpt lat="45.5477983" lon="12.145406"><ele>7.0</ele><time>2026-05-05T14:12:07.265Z</time></trkpt><trkpt lat="45.5475126" lon="12.1452314"><ele>7.0</ele><time>2026-05-05T14:12:08.265Z</time></trkpt><trkpt lat="45.5472252" lon="12.1450579"><ele>7.0</ele><time>2026-05-05T14:12:09.265Z</time></trkpt><trkpt lat="45.5469351" lon="12.1448831"><ele>7.5</ele><time>2026-05-05T14:12:10.264Z</time></trkpt><trkpt lat="45.546644" lon="12.1447079"><ele>8.0</ele><time>2026-05-05T14:12:11.265Z</time></trkpt><trkpt lat="45.5463567" lon="12.1445318"><ele>8.5</ele><time>2026-05-05T14:12:12.265Z</time></trkpt><trkpt lat="45.5460659" lon="12.1443563"><ele>9.0</ele><time>2026-05-05T14:12:13.265Z</time></trkpt><trkpt lat="45.5457832" lon="12.1441754"><ele>8.5</ele><time>2026-05-05T14:12:14.264Z</time></trkpt><trkpt lat="45.5455032" lon="12.1439929"><ele>8.0</ele><time>2026-05-05T14:12:15.264Z</time></trkpt><trkpt lat="45.5452181" lon="12.1438186"><ele>8.0</ele><time>2026-05-05T14:12:16.265Z</time></trkpt><trkpt lat="45.544939" lon="12.1436453"><ele>8.0</ele><time>2026-05-05T14:12:17.265Z</time></trkpt><trkpt lat="45.5446574" lon="12.1434698"><ele>7.5</ele><time>2026-05-05T14:12:18.265Z</time></trkpt><trkpt lat="45.5443798" lon="12.1433005"><ele>7.0</ele><time>2026-05-05T14:12:19.265Z</time></trkpt><trkpt lat="45.544103" lon="12.1431371"><ele>7.0</ele><time>2026-05-05T14:12:20.265Z</time></trkpt><trkpt lat="45.5438266" lon="12.1429828"><ele>7.0</ele><time>2026-05-05T14:12:21.265Z</time></trkpt><trkpt lat="45.5435601" lon="12.1428368"><ele>7.0</ele><time>2026-05-05T14:12:22.264Z</time></trkpt><trkpt lat="45.543287" lon="12.1426823"><ele>7.0</ele><time>2026-05-05T14:12:23.264Z</time></trkpt><trkpt lat="45.5430104" lon="12.1425381"><ele>7.0</ele><time>2026-05-05T14:12:24.265Z</time></trkpt><trkpt lat="45.5427324" lon="12.1424014"><ele>7.0</ele><time>2026-05-05T14:12:25.264Z</time></trkpt><trkpt lat="45.5424498" lon="12.1422852"><ele>7.0</ele><time>2026-05-05T14:12:26.265Z</time></trkpt><trkpt lat="45.5421667" lon="12.1421592"><ele>7.0</ele><time>2026-05-05T14:12:27.264Z</time></trkpt><trkpt lat="45.541881" lon="12.1420416"><ele>8.0</ele><time>2026-05-05T14:12:28.265Z</time></trkpt><trkpt lat="45.5415958" lon="12.141937"><ele>9.0</ele><time>2026-05-05T14:12:29.265Z</time></trkpt><trkpt lat="45.5413034" lon="12.141832"><ele>8.5</ele><time>2026-05-05T14:12:30.265Z</time></trkpt><trkpt lat="45.5410172" lon="12.1417319"><ele>8.0</ele><time>2026-05-05T14:12:31.265Z</time></trkpt><trkpt lat="45.5407252" lon="12.1416459"><ele>8.0</ele><time>2026-05-05T14:12:32.265Z</time></trkpt><trkpt lat="45.5404361" lon="12.1415576"><ele>8.0</ele><time>2026-05-05T14:12:33.265Z</time></trkpt><trkpt lat="45.5401427" lon="12.141486"><ele>8.0</ele><time>2026-05-05T14:12:34.264Z</time></trkpt><trkpt lat="45.5398509" lon="12.1414182"><ele>8.0</ele><time>2026-05-05T14:12:35.264Z</time></trkpt><trkpt lat="45.5395592" lon="12.1413575"><ele>7.5</ele><time>2026-05-05T14:12:36.264Z</time></trkpt><trkpt lat="45.5392714" lon="12.1412992"><ele>7.0</ele><time>2026-05-05T14:12:37.264Z</time></trkpt><trkpt lat="45.5389821" lon="12.1412488"><ele>6.5</ele><time>2026-05-05T14:12:38.264Z</time></trkpt><trkpt lat="45.5386889" lon="12.1411979"><ele>6.0</ele><time>2026-05-05T14:12:39.265Z</time></trkpt><trkpt lat="45.5383966" lon="12.1411653"><ele>6.0</ele><time>2026-05-05T14:12:40.265Z</time></trkpt><trkpt lat="45.5381041" lon="12.1411336"><ele>6.0</ele><time>2026-05-05T14:12:41.265Z</time></trkpt><trkpt lat="45.5378113" lon="12.1411047"><ele>7.0</ele><time>2026-05-05T14:12:42.265Z</time></trkpt><trkpt lat="45.537516" lon="12.1410957"><ele>8.0</ele><time>2026-05-05T14:12:43.265Z</time></trkpt><trkpt lat="45.537224" lon="12.1410814"><ele>8.0</ele><time>2026-05-05T14:12:44.265Z</time></trkpt><trkpt lat="45.536932" lon="12.1410678"><ele>8.0</ele><time>2026-05-05T14:12:45.264Z</time></trkpt><trkpt lat="45.5360655" lon="12.1410908"><ele>7.5</ele><time>2026-05-05T14:12:48.264Z</time></trkpt><trkpt lat="45.5357274" lon="12.1411731"><ele>7.0</ele><time>2026-05-05T14:12:49.264Z</time></trkpt><trkpt lat="45.5354096" lon="12.1412025"><ele>7.0</ele><time>2026-05-05T14:12:50.264Z</time></trkpt><trkpt lat="45.5350982" lon="12.1412189"><ele>7.0</ele><time>2026-05-05T14:12:51.265Z</time></trkpt><trkpt lat="45.5347888" lon="12.1412696"><ele>7.5</ele><time>2026-05-05T14:12:52.265Z</time></trkpt><trkpt lat="45.5344797" lon="12.1413098"><ele>8.0</ele><time>2026-05-05T14:12:53.265Z</time></trkpt><trkpt lat="45.5341727" lon="12.1413478"><ele>8.0</ele><time>2026-05-05T14:12:54.265Z</time></trkpt><trkpt lat="45.5338742" lon="12.1413726"><ele>8.0</ele><time>2026-05-05T14:12:55.265Z</time></trkpt><trkpt lat="45.5335774" lon="12.1414045"><ele>7.5</ele><time>2026-05-05T14:12:56.265Z</time></trkpt><trkpt lat="45.5332866" lon="12.1414303"><ele>7.0</ele><time>2026-05-05T14:12:57.264Z</time></trkpt><trkpt lat="45.5330067" lon="12.1414507"><ele>7.0</ele><time>2026-05-05T14:12:58.265Z</time></trkpt><trkpt lat="45.5327164" lon="12.1414599"><ele>7.0</ele><time>2026-05-05T14:12:59.265Z</time></trkpt><trkpt lat="45.5324238" lon="12.1414666"><ele>7.0</ele><time>2026-05-05T14:13:00.265Z</time></trkpt><trkpt lat="45.5321293" lon="12.141465"><ele>7.0</ele><time>2026-05-05T14:13:01.265Z</time></trkpt><trkpt lat="45.5318393" lon="12.141464"><ele>8.0</ele><time>2026-05-05T14:13:02.265Z</time></trkpt><trkpt lat="45.5315495" lon="12.1414451"><ele>9.0</ele><time>2026-05-05T14:13:03.265Z</time></trkpt><trkpt lat="45.5312581" lon="12.1414092"><ele>8.0</ele><time>2026-05-05T14:13:04.265Z</time></trkpt><trkpt lat="45.5309707" lon="12.1413551"><ele>7.0</ele><time>2026-05-05T14:13:05.265Z</time></trkpt><trkpt lat="45.5306855" lon="12.1413051"><ele>7.0</ele><time>2026-05-05T14:13:06.265Z</time></trkpt><trkpt lat="45.5303966" lon="12.1412653"><ele>7.0</ele><time>2026-05-05T14:13:07.265Z</time></trkpt><trkpt lat="45.5301088" lon="12.1411921"><ele>7.5</ele><time>2026-05-05T14:13:08.264Z</time></trkpt><trkpt lat="45.5298258" lon="12.1411124"><ele>8.0</ele><time>2026-05-05T14:13:09.265Z</time></trkpt><trkpt lat="45.5295372" lon="12.1410284"><ele>7.0</ele><time>2026-05-05T14:13:10.265Z</time></trkpt><trkpt lat="45.5292519" lon="12.1409215"><ele>6.0</ele><time>2026-05-05T14:13:11.265Z</time></trkpt><trkpt lat="45.5289652" lon="12.1408082"><ele>6.5</ele><time>2026-05-05T14:13:12.264Z</time></trkpt><trkpt lat="45.5286772" lon="12.1407009"><ele>7.0</ele><time>2026-05-05T14:13:13.264Z</time></trkpt><trkpt lat="45.5283897" lon="12.1405907"><ele>7.0</ele><time>2026-05-05T14:13:14.265Z</time></trkpt><trkpt lat="45.5281031" lon="12.1404775"><ele>7.0</ele><time>2026-05-05T14:13:15.264Z</time></trkpt><trkpt lat="45.5278091" lon="12.1403647"><ele>7.0</ele><time>2026-05-05T14:13:16.265Z</time></trkpt><trkpt lat="45.5275233" lon="12.1402533"><ele>7.0</ele><time>2026-05-05T14:13:17.264Z</time></trkpt><trkpt lat="45.5272384" lon="12.1401466"><ele>7.0</ele><time>2026-05-05T14:13:18.265Z</time></trkpt><trkpt lat="45.5269546" lon="12.1400443"><ele>7.0</ele><time>2026-05-05T14:13:19.265Z</time></trkpt><trkpt lat="45.5266661" lon="12.139954"><ele>7.0</ele><time>2026-05-05T14:13:20.265Z</time></trkpt><trkpt lat="45.5263815" lon="12.1398719"><ele>7.0</ele><time>2026-05-05T14:13:21.265Z</time></trkpt><trkpt lat="45.5260988" lon="12.1397945"><ele>6.0</ele><time>2026-05-05T14:13:22.265Z</time></trkpt><trkpt lat="45.5258148" lon="12.1397301"><ele>5.0</ele><time>2026-05-05T14:13:23.265Z</time></trkpt><trkpt lat="45.5255285" lon="12.1396748"><ele>5.0</ele><time>2026-05-05T14:13:24.265Z</time></trkpt><trkpt lat="45.5252462" lon="12.1396246"><ele>5.0</ele><time>2026-05-05T14:13:25.264Z</time></trkpt><trkpt lat="45.5249606" lon="12.1395884"><ele>5.0</ele><time>2026-05-05T14:13:26.265Z</time></trkpt><trkpt lat="45.5246798" lon="12.1395594"><ele>5.0</ele><time>2026-05-05T14:13:27.264Z</time></trkpt><trkpt lat="45.5244004" lon="12.1395435"><ele>5.0</ele><time>2026-05-05T14:13:28.265Z</time></trkpt><trkpt lat="45.5241138" lon="12.1395254"><ele>5.0</ele><time>2026-05-05T14:13:29.265Z</time></trkpt><trkpt lat="45.5238248" lon="12.1395137"><ele>6.0</ele><time>2026-05-05T14:13:30.264Z</time></trkpt><trkpt lat="45.5235392" lon="12.1395217"><ele>7.0</ele><time>2026-05-05T14:13:31.264Z</time></trkpt><trkpt lat="45.523249" lon="12.1395315"><ele>7.0</ele><time>2026-05-05T14:13:32.265Z</time></trkpt><trkpt lat="45.5229661" lon="12.1395496"><ele>7.0</ele><time>2026-05-05T14:13:33.265Z</time></trkpt><trkpt lat="45.5226741" lon="12.1395841"><ele>7.5</ele><time>2026-05-05T14:13:34.264Z</time></trkpt><trkpt lat="45.5223802" lon="12.1396288"><ele>8.0</ele><time>2026-05-05T14:13:35.264Z</time></trkpt><trkpt lat="45.5220808" lon="12.1396692"><ele>7.5</ele><time>2026-05-05T14:13:36.265Z</time></trkpt><trkpt lat="45.5217847" lon="12.1397182"><ele>7.0</ele><time>2026-05-05T14:13:37.264Z</time></trkpt><trkpt lat="45.5214923" lon="12.1397756"><ele>6.0</ele><time>2026-05-05T14:13:38.264Z</time></trkpt><trkpt lat="45.5211962" lon="12.1398294"><ele>5.0</ele><time>2026-05-05T14:13:39.264Z</time></trkpt><trkpt lat="45.5209056" lon="12.1398892"><ele>5.0</ele><time>2026-05-05T14:13:40.264Z</time></trkpt><trkpt lat="45.5206069" lon="12.1399453"><ele>5.0</ele><time>2026-05-05T14:13:41.265Z</time></trkpt><trkpt lat="45.5203065" lon="12.1399982"><ele>5.0</ele><time>2026-05-05T14:13:42.265Z</time></trkpt><trkpt lat="45.5200099" lon="12.1400475"><ele>5.0</ele><time>2026-05-05T14:13:43.265Z</time></trkpt><trkpt lat="45.5197113" lon="12.1400941"><ele>5.0</ele><time>2026-05-05T14:13:44.265Z</time></trkpt><trkpt lat="45.5194133" lon="12.1401383"><ele>5.0</ele><time>2026-05-05T14:13:45.264Z</time></trkpt><trkpt lat="45.5191169" lon="12.1401691"><ele>5.0</ele><time>2026-05-05T14:13:46.265Z</time></trkpt><trkpt lat="45.5188199" lon="12.1401955"><ele>5.0</ele><time>2026-05-05T14:13:47.265Z</time></trkpt><trkpt lat="45.5185243" lon="12.1402094"><ele>5.5</ele><time>2026-05-05T14:13:48.264Z</time></trkpt><trkpt lat="45.5182246" lon="12.1402153"><ele>6.0</ele><time>2026-05-05T14:13:49.265Z</time></trkpt><trkpt lat="45.5179294" lon="12.1402182"><ele>5.0</ele><time>2026-05-05T14:13:50.265Z</time></trkpt><trkpt lat="45.5176302" lon="12.1402088"><ele>4.0</ele><time>2026-05-05T14:13:51.265Z</time></trkpt><trkpt lat="45.5173299" lon="12.1402006"><ele>5.0</ele><time>2026-05-05T14:13:52.265Z</time></trkpt><trkpt lat="45.5170394" lon="12.1401759"><ele>6.0</ele><time>2026-05-05T14:13:53.265Z</time></trkpt><trkpt lat="45.5167454" lon="12.1401436"><ele>6.0</ele><time>2026-05-05T14:13:54.265Z</time></trkpt><trkpt lat="45.5164519" lon="12.1401058"><ele>6.0</ele><time>2026-05-05T14:13:55.264Z</time></trkpt><trkpt lat="45.5161626" lon="12.1400588"><ele>5.5</ele><time>2026-05-05T14:13:56.265Z</time></trkpt><trkpt lat="45.5158686" lon="12.1400089"><ele>5.0</ele><time>2026-05-05T14:13:57.265Z</time></trkpt><trkpt lat="45.51558" lon="12.1399561"><ele>5.0</ele><time>2026-05-05T14:13:58.265Z</time></trkpt><trkpt lat="45.5152941" lon="12.1399001"><ele>5.0</ele><time>2026-05-05T14:13:59.264Z</time></trkpt><trkpt lat="45.5150072" lon="12.1398488"><ele>5.0</ele><time>2026-05-05T14:14:00.264Z</time></trkpt><trkpt lat="45.5147247" lon="12.1398032"><ele>5.0</ele><time>2026-05-05T14:14:01.265Z</time></trkpt><trkpt lat="45.5144435" lon="12.1397549"><ele>5.0</ele><time>2026-05-05T14:14:02.265Z</time></trkpt><trkpt lat="45.5141592" lon="12.1396977"><ele>5.0</ele><time>2026-05-05T14:14:03.265Z</time></trkpt><trkpt lat="45.5138795" lon="12.139639"><ele>5.0</ele><time>2026-05-05T14:14:04.264Z</time></trkpt><trkpt lat="45.5135957" lon="12.1395893"><ele>5.0</ele><time>2026-05-05T14:14:05.265Z</time></trkpt><trkpt lat="45.5133117" lon="12.1395397"><ele>5.0</ele><time>2026-05-05T14:14:06.265Z</time></trkpt><trkpt lat="45.51303" lon="12.1395044"><ele>5.0</ele><time>2026-05-05T14:14:07.264Z</time></trkpt><trkpt lat="45.5127491" lon="12.1394728"><ele>5.0</ele><time>2026-05-05T14:14:08.265Z</time></trkpt><trkpt lat="45.5124705" lon="12.1394467"><ele>5.0</ele><time>2026-05-05T14:14:09.265Z</time></trkpt><trkpt lat="45.5121892" lon="12.1394269"><ele>5.0</ele><time>2026-05-05T14:14:10.264Z</time></trkpt><trkpt lat="45.5119117" lon="12.1394167"><ele>5.0</ele><time>2026-05-05T14:14:11.265Z</time></trkpt><trkpt lat="45.511631" lon="12.1394032"><ele>5.0</ele><time>2026-05-05T14:14:12.265Z</time></trkpt><trkpt lat="45.5113524" lon="12.1394044"><ele>5.0</ele><time>2026-05-05T14:14:13.264Z</time></trkpt><trkpt lat="45.5110726" lon="12.1394059"><ele>5.0</ele><time>2026-05-05T14:14:14.264Z</time></trkpt><trkpt lat="45.5107938" lon="12.1394034"><ele>5.0</ele><time>2026-05-05T14:14:15.265Z</time></trkpt><trkpt lat="45.5105151" lon="12.1394131"><ele>5.0</ele><time>2026-05-05T14:14:16.265Z</time></trkpt><trkpt lat="45.5102295" lon="12.1394249"><ele>5.0</ele><time>2026-05-05T14:14:17.265Z</time></trkpt><trkpt lat="45.5099417" lon="12.1394399"><ele>5.0</ele><time>2026-05-05T14:14:18.264Z</time></trkpt><trkpt lat="45.5096519" lon="12.1394576"><ele>5.0</ele><time>2026-05-05T14:14:19.264Z</time></trkpt><trkpt lat="45.509359" lon="12.1394733"><ele>4.5</ele><time>2026-05-05T14:14:20.264Z</time></trkpt><trkpt lat="45.5090624" lon="12.1394923"><ele>4.0</ele><time>2026-05-05T14:14:21.265Z</time></trkpt><trkpt lat="45.5087622" lon="12.1395033"><ele>3.0</ele><time>2026-05-05T14:14:22.265Z</time></trkpt><trkpt lat="45.5084601" lon="12.1395271"><ele>2.0</ele><time>2026-05-05T14:14:23.265Z</time></trkpt><trkpt lat="45.5081567" lon="12.1395426"><ele>2.5</ele><time>2026-05-05T14:14:24.265Z</time></trkpt><trkpt lat="45.5078548" lon="12.139548"><ele>3.0</ele><time>2026-05-05T14:14:25.264Z</time></trkpt><trkpt lat="45.5075501" lon="12.1395579"><ele>3.0</ele><time>2026-05-05T14:14:26.264Z</time></trkpt><trkpt lat="45.5072422" lon="12.1395587"><ele>3.0</ele><time>2026-05-05T14:14:27.264Z</time></trkpt><trkpt lat="45.5069367" lon="12.139554"><ele>2.5</ele><time>2026-05-05T14:14:28.265Z</time></trkpt><trkpt lat="45.5066289" lon="12.1395374"><ele>2.0</ele><time>2026-05-05T14:14:29.264Z</time></trkpt><trkpt lat="45.5063229" lon="12.1395036"><ele>1.0</ele><time>2026-05-05T14:14:30.264Z</time></trkpt><trkpt lat="45.5060222" lon="12.1394754"><ele>0.0</ele><time>2026-05-05T14:14:31.264Z</time></trkpt><trkpt lat="45.5057183" lon="12.139435"><ele>1.0</ele><time>2026-05-05T14:14:32.265Z</time></trkpt><trkpt lat="45.5054104" lon="12.1393931"><ele>2.0</ele><time>2026-05-05T14:14:33.265Z</time></trkpt><trkpt lat="45.5051042" lon="12.1393385"><ele>2.0</ele><time>2026-05-05T14:14:34.264Z</time></trkpt><trkpt lat="45.504794" lon="12.139283"><ele>2.0</ele><time>2026-05-05T14:14:35.265Z</time></trkpt><trkpt lat="45.5044853" lon="12.1392189"><ele>2.0</ele><time>2026-05-05T14:14:36.265Z</time></trkpt><trkpt lat="45.5041794" lon="12.1391508"><ele>2.0</ele><time>2026-05-05T14:14:37.264Z</time></trkpt><trkpt lat="45.5038664" lon="12.1390801"><ele>3.0</ele><time>2026-05-05T14:14:38.264Z</time></trkpt><trkpt lat="45.503549" lon="12.1390283"><ele>4.0</ele><time>2026-05-05T14:14:39.264Z</time></trkpt><trkpt lat="45.5032308" lon="12.1389652"><ele>4.5</ele><time>2026-05-05T14:14:40.265Z</time></trkpt><trkpt lat="45.5029049" lon="12.1389047"><ele>5.0</ele><time>2026-05-05T14:14:41.265Z</time></trkpt><trkpt lat="45.5025823" lon="12.1388495"><ele>5.0</ele><time>2026-05-05T14:14:42.265Z</time></trkpt><trkpt lat="45.5022668" lon="12.1388018"><ele>5.0</ele><time>2026-05-05T14:14:43.265Z</time></trkpt><trkpt lat="45.5019435" lon="12.1387599"><ele>3.5</ele><time>2026-05-05T14:14:44.265Z</time></trkpt><trkpt lat="45.5016274" lon="12.1387306"><ele>2.0</ele><time>2026-05-05T14:14:45.265Z</time></trkpt><trkpt lat="45.5013044" lon="12.1387054"><ele>3.5</ele><time>2026-05-05T14:14:46.265Z</time></trkpt><trkpt lat="45.500972" lon="12.1386935"><ele>5.0</ele><time>2026-05-05T14:14:47.265Z</time></trkpt><trkpt lat="45.5006354" lon="12.1386988"><ele>5.5</ele><time>2026-05-05T14:14:48.264Z</time></trkpt><trkpt lat="45.5003004" lon="12.1386999"><ele>6.0</ele><time>2026-05-05T14:14:49.264Z</time></trkpt><trkpt lat="45.4999649" lon="12.1387039"><ele>6.0</ele><time>2026-05-05T14:14:50.264Z</time></trkpt><trkpt lat="45.4996425" lon="12.1387214"><ele>6.0</ele><time>2026-05-05T14:14:51.265Z</time></trkpt><trkpt lat="45.499324" lon="12.1387376"><ele>5.0</ele><time>2026-05-05T14:14:52.265Z</time></trkpt><trkpt lat="45.4990008" lon="12.1387596"><ele>4.0</ele><time>2026-05-05T14:14:53.265Z</time></trkpt><trkpt lat="45.4986796" lon="12.1387802"><ele>4.0</ele><time>2026-05-05T14:14:54.265Z</time></trkpt><trkpt lat="45.4983633" lon="12.1387997"><ele>4.0</ele><time>2026-05-05T14:14:55.265Z</time></trkpt><trkpt lat="45.4980467" lon="12.1388175"><ele>5.0</ele><time>2026-05-05T14:14:56.264Z</time></trkpt><trkpt lat="45.4977461" lon="12.1388464"><ele>6.0</ele><time>2026-05-05T14:14:57.264Z</time></trkpt><trkpt lat="45.4974355" lon="12.1388695"><ele>6.0</ele><time>2026-05-05T14:14:58.265Z</time></trkpt><trkpt lat="45.4971216" lon="12.1388864"><ele>6.0</ele><time>2026-05-05T14:14:59.265Z</time></trkpt><trkpt lat="45.4968142" lon="12.138892"><ele>5.5</ele><time>2026-05-05T14:15:00.265Z</time></trkpt><trkpt lat="45.4965064" lon="12.1389161"><ele>5.0</ele><time>2026-05-05T14:15:01.265Z</time></trkpt><trkpt lat="45.496192" lon="12.1389169"><ele>4.5</ele><time>2026-05-05T14:15:02.264Z</time></trkpt><trkpt lat="45.4958851" lon="12.1389156"><ele>4.0</ele><time>2026-05-05T14:15:03.264Z</time></trkpt><trkpt lat="45.4955836" lon="12.1389"><ele>3.0</ele><time>2026-05-05T14:15:04.264Z</time></trkpt><trkpt lat="45.4952739" lon="12.1389001"><ele>2.0</ele><time>2026-05-05T14:15:05.265Z</time></trkpt><trkpt lat="45.4949656" lon="12.1388695"><ele>4.0</ele><time>2026-05-05T14:15:06.264Z</time></trkpt><trkpt lat="45.4928588" lon="12.1384164"><ele>4.0</ele><time>2026-05-05T14:15:13.265Z</time></trkpt><trkpt lat="45.4925583" lon="12.138319"><ele>4.0</ele><time>2026-05-05T14:15:14.265Z</time></trkpt><trkpt lat="45.4922476" lon="12.1382245"><ele>5.0</ele><time>2026-05-05T14:15:15.265Z</time></trkpt><trkpt lat="45.4919436" lon="12.1381223"><ele>6.0</ele><time>2026-05-05T14:15:16.264Z</time></trkpt><trkpt lat="45.4916504" lon="12.1380135"><ele>6.0</ele><time>2026-05-05T14:15:17.265Z</time></trkpt><trkpt lat="45.4913494" lon="12.1378962"><ele>6.0</ele><time>2026-05-05T14:15:18.265Z</time></trkpt><trkpt lat="45.491054" lon="12.137772"><ele>3.5</ele><time>2026-05-05T14:15:19.265Z</time></trkpt><trkpt lat="45.4907613" lon="12.1376505"><ele>1.0</ele><time>2026-05-05T14:15:20.264Z</time></trkpt><trkpt lat="45.4904586" lon="12.1375158"><ele>1.5</ele><time>2026-05-05T14:15:21.265Z</time></trkpt><trkpt lat="45.4901604" lon="12.1373677"><ele>2.0</ele><time>2026-05-05T14:15:22.265Z</time></trkpt><trkpt lat="45.4898666" lon="12.1372186"><ele>3.0</ele><time>2026-05-05T14:15:23.264Z</time></trkpt><trkpt lat="45.4895749" lon="12.1370664"><ele>4.0</ele><time>2026-05-05T14:15:24.265Z</time></trkpt><trkpt lat="45.4892819" lon="12.1369034"><ele>4.0</ele><time>2026-05-05T14:15:25.264Z</time></trkpt><trkpt lat="45.4889978" lon="12.1367335"><ele>4.0</ele><time>2026-05-05T14:15:26.264Z</time></trkpt><trkpt lat="45.4887099" lon="12.1365665"><ele>3.0</ele><time>2026-05-05T14:15:27.265Z</time></trkpt><trkpt lat="45.4884227" lon="12.1364001"><ele>2.0</ele><time>2026-05-05T14:15:28.265Z</time></trkpt><trkpt lat="45.4881375" lon="12.1362244"><ele>1.5</ele><time>2026-05-05T14:15:29.265Z</time></trkpt><trkpt lat="45.4878525" lon="12.1360505"><ele>1.0</ele><time>2026-05-05T14:15:30.265Z</time></trkpt><trkpt lat="45.4875667" lon="12.1358729"><ele>1.0</ele><time>2026-05-05T14:15:31.265Z</time></trkpt><trkpt lat="45.4872802" lon="12.1357041"><ele>1.0</ele><time>2026-05-05T14:15:32.265Z</time></trkpt><trkpt lat="45.4869991" lon="12.1355388"><ele>1.5</ele><time>2026-05-05T14:15:33.264Z</time></trkpt><trkpt lat="45.4867162" lon="12.1353713"><ele>2.0</ele><time>2026-05-05T14:15:34.265Z</time></trkpt><trkpt lat="45.4864358" lon="12.1351997"><ele>1.5</ele><time>2026-05-05T14:15:35.264Z</time></trkpt><trkpt lat="45.4861539" lon="12.1350312"><ele>1.0</ele><time>2026-05-05T14:15:36.264Z</time></trkpt><trkpt lat="45.4858746" lon="12.1348635"><ele>1.0</ele><time>2026-05-05T14:15:37.265Z</time></trkpt><trkpt lat="45.4855936" lon="12.1346962"><ele>1.0</ele><time>2026-05-05T14:15:38.264Z</time></trkpt><trkpt lat="45.4853124" lon="12.1345211"><ele>1.0</ele><time>2026-05-05T14:15:39.265Z</time></trkpt><trkpt lat="45.4850339" lon="12.1343502"><ele>1.0</ele><time>2026-05-05T14:15:40.265Z</time></trkpt><trkpt lat="45.4847561" lon="12.1341833"><ele>1.0</ele><time>2026-05-05T14:15:41.265Z</time></trkpt><trkpt lat="45.4844764" lon="12.1340167"><ele>1.0</ele><time>2026-05-05T14:15:42.265Z</time></trkpt><trkpt lat="45.4841989" lon="12.1338457"><ele>1.0</ele><time>2026-05-05T14:15:43.264Z</time></trkpt><trkpt lat="45.4839175" lon="12.1336751"><ele>1.0</ele><time>2026-05-05T14:15:44.265Z</time></trkpt><trkpt lat="45.4836438" lon="12.1335012"><ele>1.0</ele><time>2026-05-05T14:15:45.264Z</time></trkpt><trkpt lat="45.4833673" lon="12.133332"><ele>1.0</ele><time>2026-05-05T14:15:46.265Z</time></trkpt><trkpt lat="45.4830933" lon="12.1331554"><ele>2.0</ele><time>2026-05-05T14:15:47.264Z</time></trkpt><trkpt lat="45.4828221" lon="12.1329799"><ele>3.0</ele><time>2026-05-05T14:15:48.264Z</time></trkpt><trkpt lat="45.4825518" lon="12.1327992"><ele>3.0</ele><time>2026-05-05T14:15:49.265Z</time></trkpt><trkpt lat="45.4822765" lon="12.1326179"><ele>3.0</ele><time>2026-05-05T14:15:50.264Z</time></trkpt><trkpt lat="45.4820062" lon="12.1324345"><ele>2.5</ele><time>2026-05-05T14:15:51.265Z</time></trkpt><trkpt lat="45.481738" lon="12.1322446"><ele>2.0</ele><time>2026-05-05T14:15:52.264Z</time></trkpt><trkpt lat="45.4814768" lon="12.1320468"><ele>2.0</ele><time>2026-05-05T14:15:53.265Z</time></trkpt><trkpt lat="45.4812084" lon="12.131838"><ele>2.0</ele><time>2026-05-05T14:15:54.264Z</time></trkpt><trkpt lat="45.480944" lon="12.1316157"><ele>1.0</ele><time>2026-05-05T14:15:55.265Z</time></trkpt><trkpt lat="45.4806788" lon="12.1313917"><ele>0.0</ele><time>2026-05-05T14:15:56.265Z</time></trkpt><trkpt lat="45.4804216" lon="12.1311516"><ele>1.0</ele><time>2026-05-05T14:15:57.265Z</time></trkpt><trkpt lat="45.4801686" lon="12.1308982"><ele>2.0</ele><time>2026-05-05T14:15:58.265Z</time></trkpt><trkpt lat="45.4799197" lon="12.1306387"><ele>2.0</ele><time>2026-05-05T14:15:59.265Z</time></trkpt><trkpt lat="45.4796713" lon="12.1303658"><ele>2.0</ele><time>2026-05-05T14:16:00.265Z</time></trkpt><trkpt lat="45.4794267" lon="12.1300895"><ele>2.0</ele><time>2026-05-05T14:16:01.265Z</time></trkpt><trkpt lat="45.4791907" lon="12.1297978"><ele>2.0</ele><time>2026-05-05T14:16:02.265Z</time></trkpt><trkpt lat="45.4789548" lon="12.1294993"><ele>1.5</ele><time>2026-05-05T14:16:03.264Z</time></trkpt><trkpt lat="45.4787295" lon="12.1291915"><ele>1.0</ele><time>2026-05-05T14:16:04.265Z</time></trkpt><trkpt lat="45.4785052" lon="12.1288759"><ele>1.0</ele><time>2026-05-05T14:16:05.264Z</time></trkpt><trkpt lat="45.478286" lon="12.1285512"><ele>1.0</ele><time>2026-05-05T14:16:06.265Z</time></trkpt><trkpt lat="45.4780753" lon="12.1282243"><ele>1.0</ele><time>2026-05-05T14:16:07.264Z</time></trkpt><trkpt lat="45.47787" lon="12.127885"><ele>1.0</ele><time>2026-05-05T14:16:08.264Z</time></trkpt><trkpt lat="45.477673" lon="12.1275343"><ele>1.5</ele><time>2026-05-05T14:16:09.265Z</time></trkpt><trkpt lat="45.4774883" lon="12.1271787"><ele>2.0</ele><time>2026-05-05T14:16:10.264Z</time></trkpt><trkpt lat="45.4773069" lon="12.1268162"><ele>1.5</ele><time>2026-05-05T14:16:11.265Z</time></trkpt><trkpt lat="45.4771295" lon="12.1264509"><ele>1.0</ele><time>2026-05-05T14:16:12.265Z</time></trkpt><trkpt lat="45.4769625" lon="12.1260857"><ele>0.0</ele><time>2026-05-05T14:16:13.264Z</time></trkpt><trkpt lat="45.4768042" lon="12.1257137"><ele>-1.0</ele><time>2026-05-05T14:16:14.265Z</time></trkpt><trkpt lat="45.476649" lon="12.1253379"><ele>-1.0</ele><time>2026-05-05T14:16:15.265Z</time></trkpt><trkpt lat="45.4765089" lon="12.1249595"><ele>-1.0</ele><time>2026-05-05T14:16:16.264Z</time></trkpt><trkpt lat="45.4763704" lon="12.1245786"><ele>-1.0</ele><time>2026-05-05T14:16:17.264Z</time></trkpt><trkpt lat="45.4762364" lon="12.1241952"><ele>-1.0</ele><time>2026-05-05T14:16:18.265Z</time></trkpt><trkpt lat="45.4761106" lon="12.1238113"><ele>-1.0</ele><time>2026-05-05T14:16:19.265Z</time></trkpt><trkpt lat="45.475992" lon="12.1234253"><ele>-1.0</ele><time>2026-05-05T14:16:20.264Z</time></trkpt><trkpt lat="45.4758825" lon="12.1230394"><ele>-0.5</ele><time>2026-05-05T14:16:21.265Z</time></trkpt><trkpt lat="45.4757756" lon="12.122662"><ele>0.0</ele><time>2026-05-05T14:16:22.265Z</time></trkpt><trkpt lat="45.4756772" lon="12.1222816"><ele>0.0</ele><time>2026-05-05T14:16:23.265Z</time></trkpt><trkpt lat="45.4755806" lon="12.1219089"><ele>0.0</ele><time>2026-05-05T14:16:24.265Z</time></trkpt><trkpt lat="45.4754869" lon="12.1215376"><ele>-0.5</ele><time>2026-05-05T14:16:25.264Z</time></trkpt><trkpt lat="45.4753947" lon="12.1211697"><ele>-1.0</ele><time>2026-05-05T14:16:26.264Z</time></trkpt><trkpt lat="45.4752979" lon="12.1207956"><ele>-0.5</ele><time>2026-05-05T14:16:27.265Z</time></trkpt><trkpt lat="45.4752039" lon="12.1204226"><ele>0.0</ele><time>2026-05-05T14:16:28.265Z</time></trkpt><trkpt lat="45.4751117" lon="12.1200654"><ele>-0.5</ele><time>2026-05-05T14:16:29.264Z</time></trkpt><trkpt lat="45.475019" lon="12.1196895"><ele>-1.0</ele><time>2026-05-05T14:16:30.265Z</time></trkpt><trkpt lat="45.4749276" lon="12.1193026"><ele>-1.0</ele><time>2026-05-05T14:16:31.265Z</time></trkpt><trkpt lat="45.4748375" lon="12.1189124"><ele>-1.0</ele><time>2026-05-05T14:16:32.265Z</time></trkpt><trkpt lat="45.4747483" lon="12.1185289"><ele>-0.5</ele><time>2026-05-05T14:16:33.265Z</time></trkpt><trkpt lat="45.4746587" lon="12.1181438"><ele>0.0</ele><time>2026-05-05T14:16:34.265Z</time></trkpt><trkpt lat="45.4745717" lon="12.117755"><ele>0.0</ele><time>2026-05-05T14:16:35.264Z</time></trkpt><trkpt lat="45.4744743" lon="12.1173626"><ele>0.0</ele><time>2026-05-05T14:16:36.265Z</time></trkpt><trkpt lat="45.4743845" lon="12.1169736"><ele>0.0</ele><time>2026-05-05T14:16:37.264Z</time></trkpt><trkpt lat="45.4742938" lon="12.1165874"><ele>0.0</ele><time>2026-05-05T14:16:38.265Z</time></trkpt><trkpt lat="45.4742037" lon="12.1161959"><ele>-0.5</ele><time>2026-05-05T14:16:39.265Z</time></trkpt><trkpt lat="45.4741165" lon="12.1158138"><ele>-1.0</ele><time>2026-05-05T14:16:40.264Z</time></trkpt><trkpt lat="45.4740284" lon="12.1154271"><ele>-1.0</ele><time>2026-05-05T14:16:41.265Z</time></trkpt><trkpt lat="45.4739387" lon="12.1150377"><ele>-1.0</ele><time>2026-05-05T14:16:42.265Z</time></trkpt><trkpt lat="45.4738518" lon="12.1146434"><ele>-1.0</ele><time>2026-05-05T14:16:43.265Z</time></trkpt><trkpt lat="45.4737624" lon="12.1142496"><ele>-1.0</ele><time>2026-05-05T14:16:44.264Z</time></trkpt><trkpt lat="45.4736679" lon="12.1138576"><ele>-1.0</ele><time>2026-05-05T14:16:45.265Z</time></trkpt><trkpt lat="45.4735721" lon="12.1134605"><ele>-1.0</ele><time>2026-05-05T14:16:46.264Z</time></trkpt><trkpt lat="45.473478" lon="12.1130616"><ele>-0.5</ele><time>2026-05-05T14:16:47.264Z</time></trkpt><trkpt lat="45.4733808" lon="12.1126709"><ele>0.0</ele><time>2026-05-05T14:16:48.264Z</time></trkpt><trkpt lat="45.473281" lon="12.1122657"><ele>0.0</ele><time>2026-05-05T14:16:49.264Z</time></trkpt><trkpt lat="45.473174" lon="12.1118613"><ele>0.0</ele><time>2026-05-05T14:16:50.265Z</time></trkpt><trkpt lat="45.473061" lon="12.1114526"><ele>0.0</ele><time>2026-05-05T14:16:51.264Z</time></trkpt><trkpt lat="45.4729472" lon="12.1110517"><ele>0.0</ele><time>2026-05-05T14:16:52.265Z</time></trkpt><trkpt lat="45.4728266" lon="12.1106557"><ele>1.5</ele><time>2026-05-05T14:16:53.265Z</time></trkpt><trkpt lat="45.4726983" lon="12.1102631"><ele>3.0</ele><time>2026-05-05T14:16:54.265Z</time></trkpt><trkpt lat="45.4725661" lon="12.1098803"><ele>3.5</ele><time>2026-05-05T14:16:55.264Z</time></trkpt><trkpt lat="45.4724287" lon="12.1095018"><ele>4.0</ele><time>2026-05-05T14:16:56.264Z</time></trkpt><trkpt lat="45.472285" lon="12.1091294"><ele>4.0</ele><time>2026-05-05T14:16:57.265Z</time></trkpt><trkpt lat="45.4721332" lon="12.1087552"><ele>4.0</ele><time>2026-05-05T14:16:58.265Z</time></trkpt><trkpt lat="45.4719749" lon="12.1083919"><ele>3.0</ele><time>2026-05-05T14:16:59.265Z</time></trkpt><trkpt lat="45.4718132" lon="12.1080343"><ele>2.0</ele><time>2026-05-05T14:17:00.265Z</time></trkpt><trkpt lat="45.4716447" lon="12.1076799"><ele>2.5</ele><time>2026-05-05T14:17:01.264Z</time></trkpt><trkpt lat="45.4714695" lon="12.1073345"><ele>3.0</ele><time>2026-05-05T14:17:02.265Z</time></trkpt><trkpt lat="45.4712926" lon="12.1069976"><ele>2.5</ele><time>2026-05-05T14:17:03.265Z</time></trkpt><trkpt lat="45.4711094" lon="12.1066928"><ele>2.0</ele><time>2026-05-05T14:17:04.265Z</time></trkpt><trkpt lat="45.4709214" lon="12.1063663"><ele>2.0</ele><time>2026-05-05T14:17:05.264Z</time></trkpt><trkpt lat="45.4707261" lon="12.1060477"><ele>2.0</ele><time>2026-05-05T14:17:06.265Z</time></trkpt><trkpt lat="45.4705273" lon="12.105736"><ele>1.5</ele><time>2026-05-05T14:17:07.264Z</time></trkpt><trkpt lat="45.4703233" lon="12.1054313"><ele>1.0</ele><time>2026-05-05T14:17:08.265Z</time></trkpt><trkpt lat="45.47011" lon="12.1051373"><ele>1.5</ele><time>2026-05-05T14:17:09.264Z</time></trkpt><trkpt lat="45.4698952" lon="12.1048569"><ele>2.0</ele><time>2026-05-05T14:17:10.265Z</time></trkpt><trkpt lat="45.4696778" lon="12.1045754"><ele>2.0</ele><time>2026-05-05T14:17:11.265Z</time></trkpt><trkpt lat="45.46945" lon="12.1043022"><ele>2.0</ele><time>2026-05-05T14:17:12.265Z</time></trkpt><trkpt lat="45.4692264" lon="12.1040345"><ele>2.0</ele><time>2026-05-05T14:17:13.265Z</time></trkpt><trkpt lat="45.4689984" lon="12.1037688"><ele>2.0</ele><time>2026-05-05T14:17:14.264Z</time></trkpt><trkpt lat="45.4687621" lon="12.1035103"><ele>1.5</ele><time>2026-05-05T14:17:15.265Z</time></trkpt><trkpt lat="45.4685254" lon="12.1032632"><ele>1.0</ele><time>2026-05-05T14:17:16.265Z</time></trkpt><trkpt lat="45.4682815" lon="12.1030165"><ele>1.0</ele><time>2026-05-05T14:17:17.265Z</time></trkpt><trkpt lat="45.468051" lon="12.1028172"><ele>1.0</ele><time>2026-05-05T14:17:18.265Z</time></trkpt><trkpt lat="45.4677458" lon="12.1025744"><ele>2.0</ele><time>2026-05-05T14:17:19.265Z</time></trkpt><trkpt lat="45.4674819" lon="12.1023567"><ele>3.0</ele><time>2026-05-05T14:17:20.264Z</time></trkpt><trkpt lat="45.4672134" lon="12.1021436"><ele>2.0</ele><time>2026-05-05T14:17:21.265Z</time></trkpt><trkpt lat="45.4669451" lon="12.1019325"><ele>1.0</ele><time>2026-05-05T14:17:22.264Z</time></trkpt><trkpt lat="45.4666767" lon="12.1017319"><ele>1.0</ele><time>2026-05-05T14:17:23.264Z</time></trkpt><trkpt lat="45.466407" lon="12.1015268"><ele>1.0</ele><time>2026-05-05T14:17:24.265Z</time></trkpt><trkpt lat="45.4661342" lon="12.1013261"><ele>1.0</ele><time>2026-05-05T14:17:25.265Z</time></trkpt><trkpt lat="45.4658585" lon="12.1011369"><ele>1.0</ele><time>2026-05-05T14:17:26.264Z</time></trkpt><trkpt lat="45.4655845" lon="12.1009377"><ele>1.5</ele><time>2026-05-05T14:17:27.265Z</time></trkpt><trkpt lat="45.4653151" lon="12.1007376"><ele>2.0</ele><time>2026-05-05T14:17:28.265Z</time></trkpt><trkpt lat="45.4650508" lon="12.1005384"><ele>2.0</ele><time>2026-05-05T14:17:29.265Z</time></trkpt><trkpt lat="45.4647899" lon="12.1003468"><ele>2.0</ele><time>2026-05-05T14:17:30.264Z</time></trkpt><trkpt lat="45.4645309" lon="12.1001662"><ele>1.5</ele><time>2026-05-05T14:17:31.265Z</time></trkpt><trkpt lat="45.4642775" lon="12.09997"><ele>1.0</ele><time>2026-05-05T14:17:32.265Z</time></trkpt><trkpt lat="45.4640231" lon="12.0997871"><ele>0.5</ele><time>2026-05-05T14:17:33.265Z</time></trkpt><trkpt lat="45.4637711" lon="12.0996027"><ele>0.0</ele><time>2026-05-05T14:17:34.265Z</time></trkpt><trkpt lat="45.4635194" lon="12.0994217"><ele>0.0</ele><time>2026-05-05T14:17:35.265Z</time></trkpt><trkpt lat="45.4632671" lon="12.0992414"><ele>0.0</ele><time>2026-05-05T14:17:36.265Z</time></trkpt><trkpt lat="45.4630133" lon="12.0990538"><ele>0.0</ele><time>2026-05-05T14:17:37.264Z</time></trkpt><trkpt lat="45.4627545" lon="12.0988737"><ele>0.0</ele><time>2026-05-05T14:17:38.265Z</time></trkpt><trkpt lat="45.462496" lon="12.0986764"><ele>0.0</ele><time>2026-05-05T14:17:39.265Z</time></trkpt><trkpt lat="45.4622369" lon="12.0984834"><ele>0.0</ele><time>2026-05-05T14:17:40.265Z</time></trkpt><trkpt lat="45.4619767" lon="12.0982916"><ele>0.0</ele><time>2026-05-05T14:17:41.265Z</time></trkpt><trkpt lat="45.4617162" lon="12.0980964"><ele>0.0</ele><time>2026-05-05T14:17:42.264Z</time></trkpt><trkpt lat="45.4614503" lon="12.0979104"><ele>0.0</ele><time>2026-05-05T14:17:43.264Z</time></trkpt><trkpt lat="45.4611897" lon="12.0977164"><ele>0.0</ele><time>2026-05-05T14:17:44.265Z</time></trkpt><trkpt lat="45.4609254" lon="12.0975275"><ele>0.5</ele><time>2026-05-05T14:17:45.265Z</time></trkpt><trkpt lat="45.460665" lon="12.0973387"><ele>1.0</ele><time>2026-05-05T14:17:46.264Z</time></trkpt><trkpt lat="45.4604031" lon="12.0971428"><ele>1.5</ele><time>2026-05-05T14:17:47.264Z</time></trkpt><trkpt lat="45.4601407" lon="12.0969471"><ele>2.0</ele><time>2026-05-05T14:17:48.264Z</time></trkpt><trkpt lat="45.4598757" lon="12.0967499"><ele>2.0</ele><time>2026-05-05T14:17:49.265Z</time></trkpt><trkpt lat="45.4596103" lon="12.0965564"><ele>2.0</ele><time>2026-05-05T14:17:50.265Z</time></trkpt><trkpt lat="45.4593434" lon="12.0963653"><ele>2.0</ele><time>2026-05-05T14:17:51.265Z</time></trkpt><trkpt lat="45.4590883" lon="12.0961593"><ele>2.0</ele><time>2026-05-05T14:17:52.264Z</time></trkpt><trkpt lat="45.4588277" lon="12.0959698"><ele>2.0</ele><time>2026-05-05T14:17:53.265Z</time></trkpt><trkpt lat="45.4585638" lon="12.0957746"><ele>2.0</ele><time>2026-05-05T14:17:54.265Z</time></trkpt><trkpt lat="45.4583003" lon="12.0955793"><ele>2.0</ele><time>2026-05-05T14:17:55.264Z</time></trkpt><trkpt lat="45.4580378" lon="12.0953816"><ele>2.0</ele><time>2026-05-05T14:17:56.265Z</time></trkpt><trkpt lat="45.4566915" lon="12.094368"><ele>2.0</ele><time>2026-05-05T14:18:01.264Z</time></trkpt><trkpt lat="45.4563721" lon="12.0941229"><ele>2.0</ele><time>2026-05-05T14:18:02.265Z</time></trkpt><trkpt lat="45.4560888" lon="12.0939087"><ele>1.5</ele><time>2026-05-05T14:18:03.264Z</time></trkpt><trkpt lat="45.4558064" lon="12.0936971"><ele>1.0</ele><time>2026-05-05T14:18:04.264Z</time></trkpt><trkpt lat="45.4555199" lon="12.0934863"><ele>1.0</ele><time>2026-05-05T14:18:05.264Z</time></trkpt><trkpt lat="45.4552356" lon="12.0932776"><ele>1.0</ele><time>2026-05-05T14:18:06.265Z</time></trkpt><trkpt lat="45.4549542" lon="12.093064"><ele>1.0</ele><time>2026-05-05T14:18:07.265Z</time></trkpt><trkpt lat="45.4546761" lon="12.0928484"><ele>1.0</ele><time>2026-05-05T14:18:08.264Z</time></trkpt><trkpt lat="45.4544016" lon="12.0926267"><ele>0.5</ele><time>2026-05-05T14:18:09.264Z</time></trkpt><trkpt lat="45.4541305" lon="12.0924005"><ele>0.0</ele><time>2026-05-05T14:18:10.264Z</time></trkpt><trkpt lat="45.4538694" lon="12.0921692"><ele>0.5</ele><time>2026-05-05T14:18:11.265Z</time></trkpt><trkpt lat="45.4536106" lon="12.0919307"><ele>1.0</ele><time>2026-05-05T14:18:12.265Z</time></trkpt><trkpt lat="45.4533603" lon="12.0916855"><ele>0.5</ele><time>2026-05-05T14:18:13.265Z</time></trkpt><trkpt lat="45.453116" lon="12.0914363"><ele>0.0</ele><time>2026-05-05T14:18:14.264Z</time></trkpt><trkpt lat="45.4528737" lon="12.0911844"><ele>-0.5</ele><time>2026-05-05T14:18:15.264Z</time></trkpt><trkpt lat="45.4526369" lon="12.0909265"><ele>-1.0</ele><time>2026-05-05T14:18:16.264Z</time></trkpt><trkpt lat="45.4524032" lon="12.0906622"><ele>0.0</ele><time>2026-05-05T14:18:17.265Z</time></trkpt><trkpt lat="45.4521745" lon="12.0903895"><ele>1.0</ele><time>2026-05-05T14:18:18.264Z</time></trkpt><trkpt lat="45.4519492" lon="12.0901064"><ele>2.0</ele><time>2026-05-05T14:18:19.265Z</time></trkpt><trkpt lat="45.4517279" lon="12.0898246"><ele>3.0</ele><time>2026-05-05T14:18:20.264Z</time></trkpt><trkpt lat="45.4515149" lon="12.0895264"><ele>3.0</ele><time>2026-05-05T14:18:21.265Z</time></trkpt><trkpt lat="45.4513073" lon="12.0892274"><ele>3.0</ele><time>2026-05-05T14:18:22.265Z</time></trkpt><trkpt lat="45.4511054" lon="12.088922"><ele>4.5</ele><time>2026-05-05T14:18:23.265Z</time></trkpt><trkpt lat="45.4509148" lon="12.0886274"><ele>6.0</ele><time>2026-05-05T14:18:24.265Z</time></trkpt><trkpt lat="45.4507271" lon="12.088329"><ele>5.5</ele><time>2026-05-05T14:18:25.265Z</time></trkpt><trkpt lat="45.4505463" lon="12.08802"><ele>5.0</ele><time>2026-05-05T14:18:26.265Z</time></trkpt><trkpt lat="45.4503658" lon="12.0877028"><ele>4.0</ele><time>2026-05-05T14:18:27.264Z</time></trkpt><trkpt lat="45.4501825" lon="12.0873959"><ele>3.0</ele><time>2026-05-05T14:18:28.264Z</time></trkpt><trkpt lat="45.4500048" lon="12.0870765"><ele>3.0</ele><time>2026-05-05T14:18:29.265Z</time></trkpt><trkpt lat="45.4498373" lon="12.0867482"><ele>3.0</ele><time>2026-05-05T14:18:30.264Z</time></trkpt><trkpt lat="45.4496686" lon="12.0864232"><ele>2.5</ele><time>2026-05-05T14:18:31.264Z</time></trkpt><trkpt lat="45.4495024" lon="12.0860933"><ele>2.0</ele><time>2026-05-05T14:18:32.264Z</time></trkpt><trkpt lat="45.4493554" lon="12.0857437"><ele>2.0</ele><time>2026-05-05T14:18:33.264Z</time></trkpt><trkpt lat="45.4492115" lon="12.0853979"><ele>2.0</ele><time>2026-05-05T14:18:34.264Z</time></trkpt><trkpt lat="45.4490617" lon="12.0850445"><ele>2.5</ele><time>2026-05-05T14:18:35.265Z</time></trkpt><trkpt lat="45.4489157" lon="12.0846857"><ele>3.0</ele><time>2026-05-05T14:18:36.265Z</time></trkpt><trkpt lat="45.4487739" lon="12.0843281"><ele>3.0</ele><time>2026-05-05T14:18:37.265Z</time></trkpt><trkpt lat="45.4486395" lon="12.0839764"><ele>3.0</ele><time>2026-05-05T14:18:38.264Z</time></trkpt><trkpt lat="45.4485124" lon="12.0836169"><ele>2.5</ele><time>2026-05-05T14:18:39.264Z</time></trkpt><trkpt lat="45.4483908" lon="12.0832556"><ele>2.0</ele><time>2026-05-05T14:18:40.265Z</time></trkpt><trkpt lat="45.4482687" lon="12.0828898"><ele>2.0</ele><time>2026-05-05T14:18:41.264Z</time></trkpt><trkpt lat="45.4481529" lon="12.0825253"><ele>2.0</ele><time>2026-05-05T14:18:42.264Z</time></trkpt><trkpt lat="45.448044" lon="12.0821582"><ele>2.0</ele><time>2026-05-05T14:18:43.265Z</time></trkpt><trkpt lat="45.447939" lon="12.0817924"><ele>2.0</ele><time>2026-05-05T14:18:44.265Z</time></trkpt><trkpt lat="45.4478423" lon="12.0814301"><ele>2.5</ele><time>2026-05-05T14:18:45.264Z</time></trkpt><trkpt lat="45.4477476" lon="12.081061"><ele>3.0</ele><time>2026-05-05T14:18:46.264Z</time></trkpt><trkpt lat="45.4476503" lon="12.08069"><ele>3.0</ele><time>2026-05-05T14:18:47.264Z</time></trkpt><trkpt lat="45.4475557" lon="12.0803197"><ele>3.0</ele><time>2026-05-05T14:18:48.264Z</time></trkpt><trkpt lat="45.4474689" lon="12.0799445"><ele>2.5</ele><time>2026-05-05T14:18:49.265Z</time></trkpt><trkpt lat="45.4473835" lon="12.0795653"><ele>2.0</ele><time>2026-05-05T14:18:50.265Z</time></trkpt><trkpt lat="45.4473018" lon="12.0791871"><ele>2.0</ele><time>2026-05-05T14:18:51.264Z</time></trkpt><trkpt lat="45.4472223" lon="12.0788135"><ele>2.0</ele><time>2026-05-05T14:18:52.265Z</time></trkpt><trkpt lat="45.4471453" lon="12.0784378"><ele>2.5</ele><time>2026-05-05T14:18:53.264Z</time></trkpt><trkpt lat="45.4470683" lon="12.0780653"><ele>3.0</ele><time>2026-05-05T14:18:54.265Z</time></trkpt><trkpt lat="45.4469903" lon="12.0776903"><ele>3.5</ele><time>2026-05-05T14:18:55.265Z</time></trkpt><trkpt lat="45.4469145" lon="12.0773154"><ele>4.0</ele><time>2026-05-05T14:18:56.264Z</time></trkpt><trkpt lat="45.4468384" lon="12.076942"><ele>4.0</ele><time>2026-05-05T14:18:57.265Z</time></trkpt><trkpt lat="45.4467622" lon="12.0765753"><ele>4.0</ele><time>2026-05-05T14:18:58.264Z</time></trkpt><trkpt lat="45.4466895" lon="12.0762226"><ele>4.0</ele><time>2026-05-05T14:18:59.265Z</time></trkpt><trkpt lat="45.4466195" lon="12.0758825"><ele>4.0</ele><time>2026-05-05T14:19:00.265Z</time></trkpt><trkpt lat="45.4465538" lon="12.0755535"><ele>4.5</ele><time>2026-05-05T14:19:01.265Z</time></trkpt><trkpt lat="45.4464847" lon="12.075217"><ele>5.0</ele><time>2026-05-05T14:19:02.265Z</time></trkpt><trkpt lat="45.4464163" lon="12.074888"><ele>5.5</ele><time>2026-05-05T14:19:03.264Z</time></trkpt><trkpt lat="45.4463488" lon="12.0745569"><ele>6.0</ele><time>2026-05-05T14:19:04.265Z</time></trkpt><trkpt lat="45.4462841" lon="12.0742235"><ele>6.0</ele><time>2026-05-05T14:19:05.265Z</time></trkpt><trkpt lat="45.4462161" lon="12.0739018"><ele>6.0</ele><time>2026-05-05T14:19:06.264Z</time></trkpt><trkpt lat="45.4461466" lon="12.0735845"><ele>5.5</ele><time>2026-05-05T14:19:07.265Z</time></trkpt><trkpt lat="45.446077" lon="12.0732678"><ele>5.0</ele><time>2026-05-05T14:19:08.265Z</time></trkpt><trkpt lat="45.4460248" lon="12.0729529"><ele>5.0</ele><time>2026-05-05T14:19:09.264Z</time></trkpt><trkpt lat="45.4459607" lon="12.0726416"><ele>5.0</ele><time>2026-05-05T14:19:10.265Z</time></trkpt><trkpt lat="45.4458974" lon="12.0723207"><ele>4.5</ele><time>2026-05-05T14:19:11.265Z</time></trkpt><trkpt lat="45.4458316" lon="12.0720026"><ele>4.0</ele><time>2026-05-05T14:19:12.265Z</time></trkpt><trkpt lat="45.4457668" lon="12.0716941"><ele>4.5</ele><time>2026-05-05T14:19:13.265Z</time></trkpt><trkpt lat="45.4457012" lon="12.0713705"><ele>5.0</ele><time>2026-05-05T14:19:14.264Z</time></trkpt><trkpt lat="45.4456346" lon="12.0710527"><ele>3.5</ele><time>2026-05-05T14:19:15.265Z</time></trkpt><trkpt lat="45.4455685" lon="12.0707284"><ele>2.0</ele><time>2026-05-05T14:19:16.265Z</time></trkpt><trkpt lat="45.4455004" lon="12.0704026"><ele>2.5</ele><time>2026-05-05T14:19:17.265Z</time></trkpt><trkpt lat="45.4454342" lon="12.0700738"><ele>3.0</ele><time>2026-05-05T14:19:18.265Z</time></trkpt><trkpt lat="45.4453679" lon="12.069736"><ele>3.0</ele><time>2026-05-05T14:19:19.265Z</time></trkpt><trkpt lat="45.4452992" lon="12.0694073"><ele>3.0</ele><time>2026-05-05T14:19:20.265Z</time></trkpt><trkpt lat="45.4452289" lon="12.0690805"><ele>3.0</ele><time>2026-05-05T14:19:21.265Z</time></trkpt><trkpt lat="45.4451615" lon="12.0687554"><ele>3.0</ele><time>2026-05-05T14:19:22.264Z</time></trkpt><trkpt lat="45.4450912" lon="12.0684378"><ele>3.0</ele><time>2026-05-05T14:19:23.265Z</time></trkpt><trkpt lat="45.4450229" lon="12.0681094"><ele>3.0</ele><time>2026-05-05T14:19:24.265Z</time></trkpt><trkpt lat="45.4449552" lon="12.067789"><ele>3.0</ele><time>2026-05-05T14:19:25.265Z</time></trkpt><trkpt lat="45.4448879" lon="12.0674637"><ele>3.0</ele><time>2026-05-05T14:19:26.265Z</time></trkpt><trkpt lat="45.4448183" lon="12.0671497"><ele>2.5</ele><time>2026-05-05T14:19:27.265Z</time></trkpt><trkpt lat="45.4447556" lon="12.0668275"><ele>2.0</ele><time>2026-05-05T14:19:28.264Z</time></trkpt><trkpt lat="45.4446882" lon="12.0665105"><ele>2.0</ele><time>2026-05-05T14:19:29.264Z</time></trkpt><trkpt lat="45.4446178" lon="12.0661874"><ele>2.0</ele><time>2026-05-05T14:19:30.265Z</time></trkpt><trkpt lat="45.4445528" lon="12.0658632"><ele>2.0</ele><time>2026-05-05T14:19:31.265Z</time></trkpt><trkpt lat="45.4444853" lon="12.0655436"><ele>2.0</ele><time>2026-05-05T14:19:32.265Z</time></trkpt><trkpt lat="45.4444198" lon="12.0652141"><ele>2.5</ele><time>2026-05-05T14:19:33.264Z</time></trkpt><trkpt lat="45.4443538" lon="12.0648909"><ele>3.0</ele><time>2026-05-05T14:19:34.265Z</time></trkpt><trkpt lat="45.4442894" lon="12.0645561"><ele>3.0</ele><time>2026-05-05T14:19:35.265Z</time></trkpt><trkpt lat="45.4442251" lon="12.0642252"><ele>3.0</ele><time>2026-05-05T14:19:36.265Z</time></trkpt><trkpt lat="45.4441581" lon="12.0638966"><ele>3.0</ele><time>2026-05-05T14:19:37.264Z</time></trkpt><trkpt lat="45.4440912" lon="12.0635728"><ele>3.0</ele><time>2026-05-05T14:19:38.264Z</time></trkpt><trkpt lat="45.4440233" lon="12.0632352"><ele>2.5</ele><time>2026-05-05T14:19:39.265Z</time></trkpt><trkpt lat="45.4439552" lon="12.0629149"><ele>2.0</ele><time>2026-05-05T14:19:40.264Z</time></trkpt><trkpt lat="45.4438867" lon="12.0625856"><ele>2.0</ele><time>2026-05-05T14:19:41.265Z</time></trkpt><trkpt lat="45.443819" lon="12.0622702"><ele>2.0</ele><time>2026-05-05T14:19:42.264Z</time></trkpt><trkpt lat="45.443753" lon="12.0619395"><ele>2.0</ele><time>2026-05-05T14:19:43.265Z</time></trkpt><trkpt lat="45.44369" lon="12.0616106"><ele>2.0</ele><time>2026-05-05T14:19:44.264Z</time></trkpt><trkpt lat="45.4436254" lon="12.0612876"><ele>2.0</ele><time>2026-05-05T14:19:45.264Z</time></trkpt><trkpt lat="45.4435608" lon="12.0609658"><ele>2.0</ele><time>2026-05-05T14:19:46.264Z</time></trkpt><trkpt lat="45.4434909" lon="12.0606574"><ele>2.0</ele><time>2026-05-05T14:19:47.265Z</time></trkpt><trkpt lat="45.4434276" lon="12.0603403"><ele>2.0</ele><time>2026-05-05T14:19:48.264Z</time></trkpt><trkpt lat="45.4433615" lon="12.0600207"><ele>2.0</ele><time>2026-05-05T14:19:49.265Z</time></trkpt><trkpt lat="45.4432956" lon="12.0597048"><ele>2.0</ele><time>2026-05-05T14:19:50.265Z</time></trkpt><trkpt lat="45.4432317" lon="12.0593878"><ele>3.0</ele><time>2026-05-05T14:19:51.265Z</time></trkpt><trkpt lat="45.4431678" lon="12.0590779"><ele>4.0</ele><time>2026-05-05T14:19:52.265Z</time></trkpt><trkpt lat="45.4431051" lon="12.0587653"><ele>4.0</ele><time>2026-05-05T14:19:53.264Z</time></trkpt><trkpt lat="45.4430411" lon="12.058454"><ele>4.0</ele><time>2026-05-05T14:19:54.265Z</time></trkpt><trkpt lat="45.4429758" lon="12.0581527"><ele>4.0</ele><time>2026-05-05T14:19:55.265Z</time></trkpt><trkpt lat="45.4429116" lon="12.0578468"><ele>3.5</ele><time>2026-05-05T14:19:56.265Z</time></trkpt><trkpt lat="45.4428487" lon="12.0575345"><ele>3.0</ele><time>2026-05-05T14:19:57.265Z</time></trkpt><trkpt lat="45.4427839" lon="12.0572212"><ele>2.5</ele><time>2026-05-05T14:19:58.264Z</time></trkpt><trkpt lat="45.4427188" lon="12.0569077"><ele>2.0</ele><time>2026-05-05T14:19:59.265Z</time></trkpt><trkpt lat="45.4426583" lon="12.0565967"><ele>3.0</ele><time>2026-05-05T14:20:00.264Z</time></trkpt><trkpt lat="45.442593" lon="12.0562782"><ele>4.0</ele><time>2026-05-05T14:20:01.265Z</time></trkpt><trkpt lat="45.4425265" lon="12.0559741"><ele>4.5</ele><time>2026-05-05T14:20:02.265Z</time></trkpt><trkpt lat="45.44246" lon="12.0556581"><ele>5.0</ele><time>2026-05-05T14:20:03.265Z</time></trkpt><trkpt lat="45.442393" lon="12.0553446"><ele>5.0</ele><time>2026-05-05T14:20:04.264Z</time></trkpt><trkpt lat="45.442327" lon="12.0550277"><ele>5.0</ele><time>2026-05-05T14:20:05.265Z</time></trkpt><trkpt lat="45.4422627" lon="12.0547056"><ele>4.0</ele><time>2026-05-05T14:20:06.264Z</time></trkpt><trkpt lat="45.4421975" lon="12.0543769"><ele>3.0</ele><time>2026-05-05T14:20:07.264Z</time></trkpt><trkpt lat="45.4421323" lon="12.0540572"><ele>3.0</ele><time>2026-05-05T14:20:08.265Z</time></trkpt><trkpt lat="45.4420651" lon="12.0537296"><ele>3.0</ele><time>2026-05-05T14:20:09.265Z</time></trkpt><trkpt lat="45.4419985" lon="12.0534016"><ele>3.5</ele><time>2026-05-05T14:20:10.265Z</time></trkpt><trkpt lat="45.4419308" lon="12.0530729"><ele>4.0</ele><time>2026-05-05T14:20:11.264Z</time></trkpt><trkpt lat="45.4418614" lon="12.0527385"><ele>3.5</ele><time>2026-05-05T14:20:12.265Z</time></trkpt><trkpt lat="45.441796" lon="12.05241"><ele>3.0</ele><time>2026-05-05T14:20:13.264Z</time></trkpt><trkpt lat="45.4417305" lon="12.0520871"><ele>3.0</ele><time>2026-05-05T14:20:14.264Z</time></trkpt><trkpt lat="45.4416646" lon="12.051756"><ele>3.0</ele><time>2026-05-05T14:20:15.265Z</time></trkpt><trkpt lat="45.4415974" lon="12.0514307"><ele>3.5</ele><time>2026-05-05T14:20:16.265Z</time></trkpt><trkpt lat="45.4415316" lon="12.0511097"><ele>4.0</ele><time>2026-05-05T14:20:17.265Z</time></trkpt><trkpt lat="45.4414636" lon="12.0507869"><ele>4.0</ele><time>2026-05-05T14:20:18.264Z</time></trkpt><trkpt lat="45.4413948" lon="12.0504657"><ele>4.0</ele><time>2026-05-05T14:20:19.265Z</time></trkpt><trkpt lat="45.441326" lon="12.0501555"><ele>3.0</ele><time>2026-05-05T14:20:20.264Z</time></trkpt><trkpt lat="45.4412602" lon="12.049835"><ele>2.0</ele><time>2026-05-05T14:20:21.264Z</time></trkpt><trkpt lat="45.4411966" lon="12.0495246"><ele>2.0</ele><time>2026-05-05T14:20:22.264Z</time></trkpt><trkpt lat="45.4411311" lon="12.0492021"><ele>2.0</ele><time>2026-05-05T14:20:23.265Z</time></trkpt><trkpt lat="45.4410636" lon="12.0488994"><ele>1.5</ele><time>2026-05-05T14:20:24.265Z</time></trkpt><trkpt lat="45.441001" lon="12.0485826"><ele>1.0</ele><time>2026-05-05T14:20:25.264Z</time></trkpt><trkpt lat="45.4409369" lon="12.0482636"><ele>2.0</ele><time>2026-05-05T14:20:26.265Z</time></trkpt><trkpt lat="45.440866" lon="12.0479393"><ele>3.0</ele><time>2026-05-05T14:20:27.265Z</time></trkpt><trkpt lat="45.4407946" lon="12.0476171"><ele>4.0</ele><time>2026-05-05T14:20:28.264Z</time></trkpt><trkpt lat="45.4407213" lon="12.0472864"><ele>5.0</ele><time>2026-05-05T14:20:29.264Z</time></trkpt><trkpt lat="45.440647" lon="12.0469428"><ele>5.0</ele><time>2026-05-05T14:20:30.265Z</time></trkpt><trkpt lat="45.440572" lon="12.0466005"><ele>5.0</ele><time>2026-05-05T14:20:31.265Z</time></trkpt><trkpt lat="45.4404946" lon="12.0462502"><ele>5.5</ele><time>2026-05-05T14:20:32.265Z</time></trkpt><trkpt lat="45.4404214" lon="12.0458996"><ele>6.0</ele><time>2026-05-05T14:20:33.264Z</time></trkpt><trkpt lat="45.4403468" lon="12.045558"><ele>6.0</ele><time>2026-05-05T14:20:34.264Z</time></trkpt><trkpt lat="45.4402844" lon="12.0452009"><ele>6.0</ele><time>2026-05-05T14:20:35.265Z</time></trkpt><trkpt lat="45.4402106" lon="12.0448456"><ele>5.5</ele><time>2026-05-05T14:20:36.264Z</time></trkpt><trkpt lat="45.440136" lon="12.0444879"><ele>5.0</ele><time>2026-05-05T14:20:37.264Z</time></trkpt><trkpt lat="45.4400604" lon="12.0441181"><ele>5.0</ele><time>2026-05-05T14:20:38.265Z</time></trkpt><trkpt lat="45.4399856" lon="12.0437559"><ele>5.0</ele><time>2026-05-05T14:20:39.265Z</time></trkpt><trkpt lat="45.4399107" lon="12.043388"><ele>4.5</ele><time>2026-05-05T14:20:40.265Z</time></trkpt><trkpt lat="45.439832" lon="12.0430107"><ele>4.0</ele><time>2026-05-05T14:20:41.264Z</time></trkpt><trkpt lat="45.439755" lon="12.042626"><ele>4.0</ele><time>2026-05-05T14:20:42.264Z</time></trkpt><trkpt lat="45.4396795" lon="12.0422398"><ele>4.0</ele><time>2026-05-05T14:20:43.265Z</time></trkpt><trkpt lat="45.4396009" lon="12.0418522"><ele>4.0</ele><time>2026-05-05T14:20:44.264Z</time></trkpt><trkpt lat="45.4395223" lon="12.0414657"><ele>4.0</ele><time>2026-05-05T14:20:45.264Z</time></trkpt><trkpt lat="45.4394451" lon="12.0410786"><ele>4.0</ele><time>2026-05-05T14:20:46.265Z</time></trkpt><trkpt lat="45.4393702" lon="12.0406934"><ele>4.0</ele><time>2026-05-05T14:20:47.264Z</time></trkpt><trkpt lat="45.439295" lon="12.0403134"><ele>4.0</ele><time>2026-05-05T14:20:48.265Z</time></trkpt><trkpt lat="45.4392233" lon="12.0399478"><ele>4.0</ele><time>2026-05-05T14:20:49.265Z</time></trkpt><trkpt lat="45.4391505" lon="12.0395799"><ele>4.0</ele><time>2026-05-05T14:20:50.264Z</time></trkpt><trkpt lat="45.4390779" lon="12.0392272"><ele>4.0</ele><time>2026-05-05T14:20:51.265Z</time></trkpt><trkpt lat="45.4390053" lon="12.0388759"><ele>4.0</ele><time>2026-05-05T14:20:52.265Z</time></trkpt><trkpt lat="45.4389373" lon="12.0385394"><ele>4.0</ele><time>2026-05-05T14:20:53.264Z</time></trkpt><trkpt lat="45.4388722" lon="12.038198"><ele>4.5</ele><time>2026-05-05T14:20:54.265Z</time></trkpt><trkpt lat="45.4388005" lon="12.0378643"><ele>5.0</ele><time>2026-05-05T14:20:55.265Z</time></trkpt><trkpt lat="45.4387323" lon="12.0375312"><ele>4.0</ele><time>2026-05-05T14:20:56.264Z</time></trkpt><trkpt lat="45.4386649" lon="12.0372032"><ele>3.0</ele><time>2026-05-05T14:20:57.264Z</time></trkpt><trkpt lat="45.4385974" lon="12.0368694"><ele>3.5</ele><time>2026-05-05T14:20:58.265Z</time></trkpt><trkpt lat="45.4385314" lon="12.036538"><ele>4.0</ele><time>2026-05-05T14:20:59.265Z</time></trkpt><trkpt lat="45.4384648" lon="12.0362167"><ele>4.0</ele><time>2026-05-05T14:21:00.265Z</time></trkpt><trkpt lat="45.4383963" lon="12.0358949"><ele>4.0</ele><time>2026-05-05T14:21:01.265Z</time></trkpt><trkpt lat="45.4383307" lon="12.0355675"><ele>4.5</ele><time>2026-05-05T14:21:02.265Z</time></trkpt><trkpt lat="45.4382659" lon="12.0352473"><ele>5.0</ele><time>2026-05-05T14:21:03.265Z</time></trkpt><trkpt lat="45.4381998" lon="12.0349185"><ele>5.0</ele><time>2026-05-05T14:21:04.265Z</time></trkpt><trkpt lat="45.4381297" lon="12.0345891"><ele>5.0</ele><time>2026-05-05T14:21:05.264Z</time></trkpt><trkpt lat="45.4380629" lon="12.0342581"><ele>5.0</ele><time>2026-05-05T14:21:06.265Z</time></trkpt><trkpt lat="45.4379949" lon="12.0339282"><ele>5.0</ele><time>2026-05-05T14:21:07.265Z</time></trkpt><trkpt lat="45.437925" lon="12.0336122"><ele>4.5</ele><time>2026-05-05T14:21:08.265Z</time></trkpt><trkpt lat="45.4378558" lon="12.033283"><ele>4.0</ele><time>2026-05-05T14:21:09.265Z</time></trkpt><trkpt lat="45.4377869" lon="12.0329636"><ele>4.0</ele><time>2026-05-05T14:21:10.265Z</time></trkpt><trkpt lat="45.4377194" lon="12.0326421"><ele>4.0</ele><time>2026-05-05T14:21:11.264Z</time></trkpt><trkpt lat="45.4376525" lon="12.0323288"><ele>4.5</ele><time>2026-05-05T14:21:12.264Z</time></trkpt><trkpt lat="45.4375837" lon="12.0320066"><ele>5.0</ele><time>2026-05-05T14:21:13.265Z</time></trkpt><trkpt lat="45.4375167" lon="12.0316863"><ele>4.5</ele><time>2026-05-05T14:21:14.265Z</time></trkpt><trkpt lat="45.4374495" lon="12.0313642"><ele>4.0</ele><time>2026-05-05T14:21:15.264Z</time></trkpt><trkpt lat="45.4373817" lon="12.0310383"><ele>3.5</ele><time>2026-05-05T14:21:16.265Z</time></trkpt><trkpt lat="45.4373152" lon="12.0307218"><ele>3.0</ele><time>2026-05-05T14:21:17.264Z</time></trkpt><trkpt lat="45.4372475" lon="12.0304027"><ele>3.0</ele><time>2026-05-05T14:21:18.264Z</time></trkpt><trkpt lat="45.4371796" lon="12.0300823"><ele>3.0</ele><time>2026-05-05T14:21:19.265Z</time></trkpt><trkpt lat="45.4371166" lon="12.0297587"><ele>3.0</ele><time>2026-05-05T14:21:20.265Z</time></trkpt><trkpt lat="45.4370544" lon="12.0294347"><ele>3.0</ele><time>2026-05-05T14:21:21.264Z</time></trkpt><trkpt lat="45.43699" lon="12.0291198"><ele>3.0</ele><time>2026-05-05T14:21:22.264Z</time></trkpt><trkpt lat="45.4369264" lon="12.0288028"><ele>3.0</ele><time>2026-05-05T14:21:23.264Z</time></trkpt><trkpt lat="45.4368577" lon="12.0284849"><ele>3.5</ele><time>2026-05-05T14:21:24.264Z</time></trkpt><trkpt lat="45.4367913" lon="12.0281674"><ele>4.0</ele><time>2026-05-05T14:21:25.264Z</time></trkpt><trkpt lat="45.4367247" lon="12.0278502"><ele>4.0</ele><time>2026-05-05T14:21:26.265Z</time></trkpt><trkpt lat="45.4366593" lon="12.0275311"><ele>4.0</ele><time>2026-05-05T14:21:27.264Z</time></trkpt><trkpt lat="45.4365956" lon="12.0272115"><ele>4.0</ele><time>2026-05-05T14:21:28.264Z</time></trkpt><trkpt lat="45.4365314" lon="12.0268887"><ele>4.0</ele><time>2026-05-05T14:21:29.265Z</time></trkpt><trkpt lat="45.4364661" lon="12.0265829"><ele>4.0</ele><time>2026-05-05T14:21:30.264Z</time></trkpt><trkpt lat="45.4364029" lon="12.0262743"><ele>4.0</ele><time>2026-05-05T14:21:31.265Z</time></trkpt><trkpt lat="45.4363378" lon="12.0259582"><ele>4.5</ele><time>2026-05-05T14:21:32.265Z</time></trkpt><trkpt lat="45.4362727" lon="12.0256451"><ele>5.0</ele><time>2026-05-05T14:21:33.265Z</time></trkpt><trkpt lat="45.4362069" lon="12.025338"><ele>5.0</ele><time>2026-05-05T14:21:34.265Z</time></trkpt><trkpt lat="45.4361441" lon="12.0250294"><ele>5.0</ele><time>2026-05-05T14:21:35.265Z</time></trkpt><trkpt lat="45.4360817" lon="12.0247167"><ele>5.0</ele><time>2026-05-05T14:21:36.265Z</time></trkpt><trkpt lat="45.4360176" lon="12.0244"><ele>5.0</ele><time>2026-05-05T14:21:37.265Z</time></trkpt><trkpt lat="45.4359568" lon="12.0240865"><ele>5.0</ele><time>2026-05-05T14:21:38.265Z</time></trkpt><trkpt lat="45.4358906" lon="12.0237724"><ele>5.0</ele><time>2026-05-05T14:21:39.264Z</time></trkpt><trkpt lat="45.4358265" lon="12.0234544"><ele>4.5</ele><time>2026-05-05T14:21:40.265Z</time></trkpt><trkpt lat="45.435762" lon="12.023138"><ele>4.0</ele><time>2026-05-05T14:21:41.265Z</time></trkpt><trkpt lat="45.4356986" lon="12.0228202"><ele>4.0</ele><time>2026-05-05T14:21:42.264Z</time></trkpt><trkpt lat="45.4356342" lon="12.0225009"><ele>4.0</ele><time>2026-05-05T14:21:43.264Z</time></trkpt><trkpt lat="45.4355688" lon="12.0221849"><ele>3.5</ele><time>2026-05-05T14:21:44.264Z</time></trkpt><trkpt lat="45.4355012" lon="12.0218713"><ele>3.0</ele><time>2026-05-05T14:21:45.264Z</time></trkpt><trkpt lat="45.43544" lon="12.0215597"><ele>3.0</ele><time>2026-05-05T14:21:46.264Z</time></trkpt><trkpt lat="45.4353753" lon="12.0212454"><ele>3.0</ele><time>2026-05-05T14:21:47.265Z</time></trkpt><trkpt lat="45.4353077" lon="12.0209391"><ele>3.5</ele><time>2026-05-05T14:21:48.265Z</time></trkpt><trkpt lat="45.4352426" lon="12.0206177"><ele>4.0</ele><time>2026-05-05T14:21:49.264Z</time></trkpt><trkpt lat="45.4351731" lon="12.0203069"><ele>4.0</ele><time>2026-05-05T14:21:50.265Z</time></trkpt><trkpt lat="45.4351106" lon="12.0199915"><ele>4.0</ele><time>2026-05-05T14:21:51.265Z</time></trkpt><trkpt lat="45.4350435" lon="12.0196719"><ele>4.0</ele><time>2026-05-05T14:21:52.265Z</time></trkpt><trkpt lat="45.4349766" lon="12.019358"><ele>4.0</ele><time>2026-05-05T14:21:53.264Z</time></trkpt><trkpt lat="45.4349126" lon="12.0190422"><ele>4.0</ele><time>2026-05-05T14:21:54.265Z</time></trkpt><trkpt lat="45.4348457" lon="12.0187353"><ele>4.0</ele><time>2026-05-05T14:21:55.265Z</time></trkpt><trkpt lat="45.4347826" lon="12.0184267"><ele>4.0</ele><time>2026-05-05T14:21:56.265Z</time></trkpt><trkpt lat="45.434718" lon="12.0181147"><ele>4.0</ele><time>2026-05-05T14:21:57.265Z</time></trkpt><trkpt lat="45.4346543" lon="12.0178051"><ele>4.0</ele><time>2026-05-05T14:21:58.265Z</time></trkpt><trkpt lat="45.4345885" lon="12.0174925"><ele>4.0</ele><time>2026-05-05T14:21:59.265Z</time></trkpt><trkpt lat="45.434525" lon="12.0171816"><ele>4.0</ele><time>2026-05-05T14:22:00.265Z</time></trkpt><trkpt lat="45.4344612" lon="12.0168693"><ele>4.0</ele><time>2026-05-05T14:22:01.265Z</time></trkpt><trkpt lat="45.4343988" lon="12.0165548"><ele>6.0</ele><time>2026-05-05T14:22:02.264Z</time></trkpt><trkpt lat="45.4343331" lon="12.0162318"><ele>8.0</ele><time>2026-05-05T14:22:03.264Z</time></trkpt><trkpt lat="45.4342688" lon="12.0159235"><ele>7.0</ele><time>2026-05-05T14:22:04.265Z</time></trkpt><trkpt lat="45.4342007" lon="12.0156197"><ele>6.0</ele><time>2026-05-05T14:22:05.264Z</time></trkpt><trkpt lat="45.4341441" lon="12.0152943"><ele>5.0</ele><time>2026-05-05T14:22:06.265Z</time></trkpt><trkpt lat="45.4340776" lon="12.0149773"><ele>4.0</ele><time>2026-05-05T14:22:07.265Z</time></trkpt><trkpt lat="45.4340142" lon="12.0146693"><ele>4.0</ele><time>2026-05-05T14:22:08.265Z</time></trkpt><trkpt lat="45.4339487" lon="12.0143527"><ele>4.0</ele><time>2026-05-05T14:22:09.264Z</time></trkpt><trkpt lat="45.4338824" lon="12.0140377"><ele>4.0</ele><time>2026-05-05T14:22:10.264Z</time></trkpt><trkpt lat="45.4338196" lon="12.0137141"><ele>4.0</ele><time>2026-05-05T14:22:11.264Z</time></trkpt><trkpt lat="45.4337541" lon="12.0133992"><ele>3.5</ele><time>2026-05-05T14:22:12.265Z</time></trkpt><trkpt lat="45.4336868" lon="12.0130817"><ele>3.0</ele><time>2026-05-05T14:22:13.265Z</time></trkpt><trkpt lat="45.4336218" lon="12.012757"><ele>3.0</ele><time>2026-05-05T14:22:14.264Z</time></trkpt><trkpt lat="45.4335575" lon="12.0124375"><ele>3.0</ele><time>2026-05-05T14:22:15.264Z</time></trkpt><trkpt lat="45.433489" lon="12.0121203"><ele>3.0</ele><time>2026-05-05T14:22:16.265Z</time></trkpt><trkpt lat="45.4334262" lon="12.011808"><ele>3.0</ele><time>2026-05-05T14:22:17.265Z</time></trkpt><trkpt lat="45.4333621" lon="12.0114903"><ele>3.0</ele><time>2026-05-05T14:22:18.264Z</time></trkpt><trkpt lat="45.4332962" lon="12.0111764"><ele>3.0</ele><time>2026-05-05T14:22:19.264Z</time></trkpt><trkpt lat="45.4332314" lon="12.0108637"><ele>2.5</ele><time>2026-05-05T14:22:20.265Z</time></trkpt><trkpt lat="45.4331686" lon="12.0105529"><ele>2.0</ele><time>2026-05-05T14:22:21.264Z</time></trkpt><trkpt lat="45.433104" lon="12.0102436"><ele>3.0</ele><time>2026-05-05T14:22:22.264Z</time></trkpt><trkpt lat="45.4330422" lon="12.0099364"><ele>4.0</ele><time>2026-05-05T14:22:23.264Z</time></trkpt><trkpt lat="45.432979" lon="12.0096271"><ele>4.0</ele><time>2026-05-05T14:22:24.265Z</time></trkpt><trkpt lat="45.4329154" lon="12.0093304"><ele>4.0</ele><time>2026-05-05T14:22:25.264Z</time></trkpt><trkpt lat="45.4328527" lon="12.0090263"><ele>4.0</ele><time>2026-05-05T14:22:26.265Z</time></trkpt><trkpt lat="45.4327892" lon="12.008724"><ele>4.0</ele><time>2026-05-05T14:22:27.264Z</time></trkpt><trkpt lat="45.4327273" lon="12.0084296"><ele>4.0</ele><time>2026-05-05T14:22:28.265Z</time></trkpt><trkpt lat="45.4326639" lon="12.0081328"><ele>4.0</ele><time>2026-05-05T14:22:29.265Z</time></trkpt><trkpt lat="45.432601" lon="12.0078364"><ele>4.0</ele><time>2026-05-05T14:22:30.264Z</time></trkpt><trkpt lat="45.4325363" lon="12.0075364"><ele>4.0</ele><time>2026-05-05T14:22:31.264Z</time></trkpt><trkpt lat="45.4324774" lon="12.0072345"><ele>4.0</ele><time>2026-05-05T14:22:32.265Z</time></trkpt><trkpt lat="45.4324194" lon="12.0069357"><ele>4.0</ele><time>2026-05-05T14:22:33.265Z</time></trkpt><trkpt lat="45.4323585" lon="12.0066414"><ele>4.0</ele><time>2026-05-05T14:22:34.264Z</time></trkpt><trkpt lat="45.4322954" lon="12.0063368"><ele>4.0</ele><time>2026-05-05T14:22:35.265Z</time></trkpt><trkpt lat="45.4322359" lon="12.0060331"><ele>4.333333333333333</ele><time>2026-05-05T14:22:36.265Z</time></trkpt><trkpt lat="45.432174" lon="12.0057343"><ele>4.666666666666667</ele><time>2026-05-05T14:22:37.265Z</time></trkpt><trkpt lat="45.4321118" lon="12.0054228"><ele>5.0</ele><time>2026-05-05T14:22:38.265Z</time></trkpt><trkpt lat="45.4320473" lon="12.0051055"><ele>4.0</ele><time>2026-05-05T14:22:39.265Z</time></trkpt><trkpt lat="45.4319825" lon="12.0047869"><ele>3.0</ele><time>2026-05-05T14:22:40.264Z</time></trkpt><trkpt lat="45.4319161" lon="12.0044663"><ele>3.5</ele><time>2026-05-05T14:22:41.265Z</time></trkpt><trkpt lat="45.4318495" lon="12.0041497"><ele>4.0</ele><time>2026-05-05T14:22:42.264Z</time></trkpt><trkpt lat="45.4317848" lon="12.0038321"><ele>4.0</ele><time>2026-05-05T14:22:43.265Z</time></trkpt><trkpt lat="45.4317195" lon="12.0035202"><ele>4.0</ele><time>2026-05-05T14:22:44.265Z</time></trkpt><trkpt lat="45.4316556" lon="12.0032054"><ele>4.333333333333333</ele><time>2026-05-05T14:22:45.265Z</time></trkpt><trkpt lat="45.4315913" lon="12.0028952"><ele>4.666666666666667</ele><time>2026-05-05T14:22:46.265Z</time></trkpt><trkpt lat="45.4315245" lon="12.0025931"><ele>5.0</ele><time>2026-05-05T14:22:47.265Z</time></trkpt><trkpt lat="45.431459" lon="12.0022812"><ele>5.333333333333334</ele><time>2026-05-05T14:22:48.264Z</time></trkpt><trkpt lat="45.4313973" lon="12.0019772"><ele>5.666666666666667</ele><time>2026-05-05T14:22:49.265Z</time></trkpt><trkpt lat="45.4313325" lon="12.0016779"><ele>6.0</ele><time>2026-05-05T14:22:50.265Z</time></trkpt><trkpt lat="45.4312702" lon="12.0013898"><ele>5.666666666666667</ele><time>2026-05-05T14:22:51.265Z</time></trkpt><trkpt lat="45.4312138" lon="12.0010994"><ele>5.333333333333334</ele><time>2026-05-05T14:22:52.264Z</time></trkpt><trkpt lat="45.4311538" lon="12.0008047"><ele>5.0</ele><time>2026-05-05T14:22:53.264Z</time></trkpt><trkpt lat="45.4310972" lon="12.0005129"><ele>5.0</ele><time>2026-05-05T14:22:54.265Z</time></trkpt><trkpt lat="45.4310385" lon="12.0002161"><ele>5.0</ele><time>2026-05-05T14:22:55.265Z</time></trkpt><trkpt lat="45.4309809" lon="11.9999297"><ele>5.0</ele><time>2026-05-05T14:22:56.265Z</time></trkpt><trkpt lat="45.4309189" lon="11.9996384"><ele>5.0</ele><time>2026-05-05T14:22:57.264Z</time></trkpt><trkpt lat="45.4308587" lon="11.9993503"><ele>5.0</ele><time>2026-05-05T14:22:58.265Z</time></trkpt><trkpt lat="45.4307996" lon="11.9990632"><ele>5.0</ele><time>2026-05-05T14:22:59.265Z</time></trkpt><trkpt lat="45.4307391" lon="11.9987722"><ele>5.333333333333334</ele><time>2026-05-05T14:23:00.264Z</time></trkpt><trkpt lat="45.4306779" lon="11.9984799"><ele>5.666666666666667</ele><time>2026-05-05T14:23:01.265Z</time></trkpt><trkpt lat="45.4306206" lon="11.9981952"><ele>6.0</ele><time>2026-05-05T14:23:02.264Z</time></trkpt><trkpt lat="45.4305578" lon="11.9979035"><ele>6.333333333333334</ele><time>2026-05-05T14:23:03.264Z</time></trkpt><trkpt lat="45.4304972" lon="11.9976092"><ele>6.666666666666667</ele><time>2026-05-05T14:23:04.265Z</time></trkpt><trkpt lat="45.4304316" lon="11.9973234"><ele>7.0</ele><time>2026-05-05T14:23:05.265Z</time></trkpt><trkpt lat="45.4303732" lon="11.9970352"><ele>6.666666666666667</ele><time>2026-05-05T14:23:06.265Z</time></trkpt><trkpt lat="45.4303151" lon="11.9967412"><ele>6.333333333333334</ele><time>2026-05-05T14:23:07.264Z</time></trkpt><trkpt lat="45.4302533" lon="11.9964483"><ele>6.0</ele><time>2026-05-05T14:23:08.264Z</time></trkpt><trkpt lat="45.430195" lon="11.9961533"><ele>6.0</ele><time>2026-05-05T14:23:09.264Z</time></trkpt><trkpt lat="45.4301356" lon="11.9958627"><ele>6.0</ele><time>2026-05-05T14:23:10.265Z</time></trkpt><trkpt lat="45.430076" lon="11.9955708"><ele>6.0</ele><time>2026-05-05T14:23:11.264Z</time></trkpt><trkpt lat="45.4300157" lon="11.9952674"><ele>5.666666666666667</ele><time>2026-05-05T14:23:12.265Z</time></trkpt><trkpt lat="45.4299575" lon="11.9949645"><ele>5.333333333333334</ele><time>2026-05-05T14:23:13.265Z</time></trkpt><trkpt lat="45.4298949" lon="11.9946802"><ele>5.0</ele><time>2026-05-05T14:23:14.264Z</time></trkpt><trkpt lat="45.4298307" lon="11.9943919"><ele>4.666666666666667</ele><time>2026-05-05T14:23:15.264Z</time></trkpt><trkpt lat="45.4297688" lon="11.9940961"><ele>4.333333333333333</ele><time>2026-05-05T14:23:16.265Z</time></trkpt><trkpt lat="45.4297071" lon="11.9938023"><ele>4.0</ele><time>2026-05-05T14:23:17.265Z</time></trkpt><trkpt lat="45.4296469" lon="11.9935043"><ele>4.0</ele><time>2026-05-05T14:23:18.265Z</time></trkpt><trkpt lat="45.4295821" lon="11.9932069"><ele>4.0</ele><time>2026-05-05T14:23:19.264Z</time></trkpt><trkpt lat="45.4295203" lon="11.9929039"><ele>4.0</ele><time>2026-05-05T14:23:20.265Z</time></trkpt><trkpt lat="45.4294592" lon="11.9925985"><ele>4.666666666666666</ele><time>2026-05-05T14:23:21.264Z</time></trkpt><trkpt lat="45.4294024" lon="11.9922947"><ele>5.333333333333333</ele><time>2026-05-05T14:23:22.265Z</time></trkpt><trkpt lat="45.4293393" lon="11.9920042"><ele>6.0</ele><time>2026-05-05T14:23:23.265Z</time></trkpt><trkpt lat="45.4292711" lon="11.9916948"><ele>6.333333333333334</ele><time>2026-05-05T14:23:24.265Z</time></trkpt><trkpt lat="45.4292094" lon="11.9913903"><ele>6.666666666666667</ele><time>2026-05-05T14:23:25.264Z</time></trkpt><trkpt lat="45.4291451" lon="11.9910826"><ele>7.0</ele><time>2026-05-05T14:23:26.265Z</time></trkpt><trkpt lat="45.4290795" lon="11.9907689"><ele>5.5</ele><time>2026-05-05T14:23:27.265Z</time></trkpt><trkpt lat="45.429016" lon="11.9904512"><ele>4.0</ele><time>2026-05-05T14:23:28.264Z</time></trkpt><trkpt lat="45.4289488" lon="11.9901278"><ele>3.5</ele><time>2026-05-05T14:23:29.265Z</time></trkpt><trkpt lat="45.4288802" lon="11.9897869"><ele>3.0</ele><time>2026-05-05T14:23:30.264Z</time></trkpt><trkpt lat="45.4288123" lon="11.9894454"><ele>4.5</ele><time>2026-05-05T14:23:31.264Z</time></trkpt><trkpt lat="45.428741" lon="11.9890878"><ele>6.0</ele><time>2026-05-05T14:23:32.265Z</time></trkpt><trkpt lat="45.428671" lon="11.9887254"><ele>6.0</ele><time>2026-05-05T14:23:33.264Z</time></trkpt><trkpt lat="45.4285935" lon="11.9883612"><ele>6.0</ele><time>2026-05-05T14:23:34.265Z</time></trkpt><trkpt lat="45.4285194" lon="11.987992"><ele>5.5</ele><time>2026-05-05T14:23:35.264Z</time></trkpt><trkpt lat="45.4284456" lon="11.9876364"><ele>5.0</ele><time>2026-05-05T14:23:36.264Z</time></trkpt><trkpt lat="45.4283713" lon="11.9872786"><ele>5.0</ele><time>2026-05-05T14:23:37.265Z</time></trkpt><trkpt lat="45.4282964" lon="11.9869212"><ele>5.0</ele><time>2026-05-05T14:23:38.265Z</time></trkpt><trkpt lat="45.4282226" lon="11.9865641"><ele>5.0</ele><time>2026-05-05T14:23:39.264Z</time></trkpt><trkpt lat="45.4281515" lon="11.9862093"><ele>5.0</ele><time>2026-05-05T14:23:40.265Z</time></trkpt><trkpt lat="45.42808" lon="11.9858758"><ele>5.0</ele><time>2026-05-05T14:23:41.264Z</time></trkpt><trkpt lat="45.4280094" lon="11.9855273"><ele>5.0</ele><time>2026-05-05T14:23:42.265Z</time></trkpt><trkpt lat="45.4279394" lon="11.9851993"><ele>4.5</ele><time>2026-05-05T14:23:43.265Z</time></trkpt><trkpt lat="45.4278735" lon="11.9848678"><ele>4.0</ele><time>2026-05-05T14:23:44.265Z</time></trkpt><trkpt lat="45.4278122" lon="11.9845331"><ele>4.0</ele><time>2026-05-05T14:23:45.265Z</time></trkpt><trkpt lat="45.4277515" lon="11.9842072"><ele>4.0</ele><time>2026-05-05T14:23:46.264Z</time></trkpt><trkpt lat="45.4276915" lon="11.9839085"><ele>4.5</ele><time>2026-05-05T14:23:47.264Z</time></trkpt><trkpt lat="45.4276337" lon="11.9835946"><ele>5.0</ele><time>2026-05-05T14:23:48.265Z</time></trkpt><trkpt lat="45.4275755" lon="11.983286"><ele>5.0</ele><time>2026-05-05T14:23:49.265Z</time></trkpt><trkpt lat="45.4275166" lon="11.982992"><ele>5.0</ele><time>2026-05-05T14:23:50.264Z</time></trkpt><trkpt lat="45.4274582" lon="11.9827017"><ele>5.0</ele><time>2026-05-05T14:23:51.264Z</time></trkpt><trkpt lat="45.4274013" lon="11.982399"><ele>5.0</ele><time>2026-05-05T14:23:52.264Z</time></trkpt><trkpt lat="45.4273423" lon="11.9821051"><ele>5.0</ele><time>2026-05-05T14:23:53.265Z</time></trkpt><trkpt lat="45.427287" lon="11.9818234"><ele>5.0</ele><time>2026-05-05T14:23:54.264Z</time></trkpt><trkpt lat="45.4272305" lon="11.9815381"><ele>5.0</ele><time>2026-05-05T14:23:55.265Z</time></trkpt><trkpt lat="45.4271728" lon="11.9812566"><ele>5.0</ele><time>2026-05-05T14:23:56.264Z</time></trkpt><trkpt lat="45.4271139" lon="11.9809755"><ele>5.0</ele><time>2026-05-05T14:23:57.265Z</time></trkpt><trkpt lat="45.4270554" lon="11.9806963"><ele>5.666666666666667</ele><time>2026-05-05T14:23:58.264Z</time></trkpt><trkpt lat="45.4269976" lon="11.9804116"><ele>6.333333333333334</ele><time>2026-05-05T14:23:59.264Z</time></trkpt><trkpt lat="45.4269395" lon="11.9801223"><ele>7.0</ele><time>2026-05-05T14:24:00.264Z</time></trkpt><trkpt lat="45.4268831" lon="11.9798382"><ele>7.0</ele><time>2026-05-05T14:24:01.265Z</time></trkpt><trkpt lat="45.426823" lon="11.9795483"><ele>7.0</ele><time>2026-05-05T14:24:02.265Z</time></trkpt><trkpt lat="45.4267618" lon="11.9792609"><ele>7.0</ele><time>2026-05-05T14:24:03.265Z</time></trkpt><trkpt lat="45.4266975" lon="11.9789914"><ele>7.0</ele><time>2026-05-05T14:24:04.265Z</time></trkpt><trkpt lat="45.4266383" lon="11.978698"><ele>7.0</ele><time>2026-05-05T14:24:05.264Z</time></trkpt><trkpt lat="45.4265774" lon="11.9784145"><ele>7.0</ele><time>2026-05-05T14:24:06.264Z</time></trkpt><trkpt lat="45.4265164" lon="11.9781311"><ele>7.0</ele><time>2026-05-05T14:24:07.265Z</time></trkpt><trkpt lat="45.426456" lon="11.9778411"><ele>7.0</ele><time>2026-05-05T14:24:08.265Z</time></trkpt><trkpt lat="45.4264023" lon="11.9775543"><ele>7.0</ele><time>2026-05-05T14:24:09.265Z</time></trkpt><trkpt lat="45.4263453" lon="11.9772744"><ele>7.333333333333334</ele><time>2026-05-05T14:24:10.264Z</time></trkpt><trkpt lat="45.4262895" lon="11.9769925"><ele>7.666666666666666</ele><time>2026-05-05T14:24:11.265Z</time></trkpt><trkpt lat="45.4262278" lon="11.9767198"><ele>8.0</ele><time>2026-05-05T14:24:12.264Z</time></trkpt><trkpt lat="45.4261726" lon="11.9764446"><ele>8.333333333333332</ele><time>2026-05-05T14:24:13.264Z</time></trkpt><trkpt lat="45.4261168" lon="11.9761717"><ele>8.666666666666666</ele><time>2026-05-05T14:24:14.264Z</time></trkpt><trkpt lat="45.4260576" lon="11.9758898"><ele>9.0</ele><time>2026-05-05T14:24:15.265Z</time></trkpt><trkpt lat="45.4259995" lon="11.9756166"><ele>9.0</ele><time>2026-05-05T14:24:16.264Z</time></trkpt><trkpt lat="45.4259424" lon="11.9753416"><ele>9.0</ele><time>2026-05-05T14:24:17.264Z</time></trkpt><trkpt lat="45.4258854" lon="11.9750607"><ele>9.0</ele><time>2026-05-05T14:24:18.265Z</time></trkpt><trkpt lat="45.4258266" lon="11.9747798"><ele>9.0</ele><time>2026-05-05T14:24:19.265Z</time></trkpt><trkpt lat="45.4257708" lon="11.974495"><ele>9.0</ele><time>2026-05-05T14:24:20.265Z</time></trkpt><trkpt lat="45.4257146" lon="11.9742055"><ele>9.0</ele><time>2026-05-05T14:24:21.265Z</time></trkpt><trkpt lat="45.4256583" lon="11.9739202"><ele>8.666666666666666</ele><time>2026-05-05T14:24:22.265Z</time></trkpt><trkpt lat="45.4255958" lon="11.9736494"><ele>8.333333333333332</ele><time>2026-05-05T14:24:23.265Z</time></trkpt><trkpt lat="45.4255392" lon="11.9733731"><ele>8.0</ele><time>2026-05-05T14:24:24.264Z</time></trkpt><trkpt lat="45.4254821" lon="11.9730923"><ele>8.0</ele><time>2026-05-05T14:24:25.265Z</time></trkpt><trkpt lat="45.4254256" lon="11.9728123"><ele>8.0</ele><time>2026-05-05T14:24:26.264Z</time></trkpt><trkpt lat="45.4253707" lon="11.9725346"><ele>8.0</ele><time>2026-05-05T14:24:27.265Z</time></trkpt><trkpt lat="45.4253162" lon="11.9722557"><ele>8.0</ele><time>2026-05-05T14:24:28.265Z</time></trkpt><trkpt lat="45.4252567" lon="11.9719758"><ele>8.0</ele><time>2026-05-05T14:24:29.264Z</time></trkpt><trkpt lat="45.4252008" lon="11.9717004"><ele>8.0</ele><time>2026-05-05T14:24:30.264Z</time></trkpt><trkpt lat="45.4251514" lon="11.9714341"><ele>8.0</ele><time>2026-05-05T14:24:31.264Z</time></trkpt><trkpt lat="45.425098" lon="11.9711599"><ele>8.0</ele><time>2026-05-05T14:24:32.265Z</time></trkpt><trkpt lat="45.4250387" lon="11.9708768"><ele>8.0</ele><time>2026-05-05T14:24:33.265Z</time></trkpt><trkpt lat="45.4249832" lon="11.9705974"><ele>8.666666666666666</ele><time>2026-05-05T14:24:34.264Z</time></trkpt><trkpt lat="45.4249239" lon="11.9703145"><ele>9.333333333333334</ele><time>2026-05-05T14:24:35.265Z</time></trkpt><trkpt lat="45.4248669" lon="11.9700324"><ele>10.0</ele><time>2026-05-05T14:24:36.265Z</time></trkpt><trkpt lat="45.424808" lon="11.9697438"><ele>10.0</ele><time>2026-05-05T14:24:37.265Z</time></trkpt><trkpt lat="45.4247431" lon="11.9694636"><ele>10.0</ele><time>2026-05-05T14:24:38.265Z</time></trkpt><trkpt lat="45.4246852" lon="11.9691752"><ele>10.0</ele><time>2026-05-05T14:24:39.264Z</time></trkpt><trkpt lat="45.4246263" lon="11.9688808"><ele>9.666666666666668</ele><time>2026-05-05T14:24:40.265Z</time></trkpt><trkpt lat="45.4245677" lon="11.9685794"><ele>9.333333333333334</ele><time>2026-05-05T14:24:41.264Z</time></trkpt><trkpt lat="45.4245081" lon="11.9682827"><ele>9.0</ele><time>2026-05-05T14:24:42.265Z</time></trkpt><trkpt lat="45.424449" lon="11.9679894"><ele>9.0</ele><time>2026-05-05T14:24:43.265Z</time></trkpt><trkpt lat="45.424384" lon="11.9677135"><ele>9.0</ele><time>2026-05-05T14:24:44.265Z</time></trkpt><trkpt lat="45.4243261" lon="11.9674219"><ele>9.0</ele><time>2026-05-05T14:24:45.265Z</time></trkpt><trkpt lat="45.4242657" lon="11.9671326"><ele>9.666666666666666</ele><time>2026-05-05T14:24:46.264Z</time></trkpt><trkpt lat="45.4242041" lon="11.9668628"><ele>10.333333333333332</ele><time>2026-05-05T14:24:47.265Z</time></trkpt><trkpt lat="45.4241477" lon="11.9665806"><ele>11.0</ele><time>2026-05-05T14:24:48.264Z</time></trkpt><trkpt lat="45.4240888" lon="11.9662897"><ele>11.333333333333332</ele><time>2026-05-05T14:24:49.264Z</time></trkpt><trkpt lat="45.424031" lon="11.9660177"><ele>11.666666666666666</ele><time>2026-05-05T14:24:50.264Z</time></trkpt><trkpt lat="45.4239754" lon="11.9657398"><ele>12.0</ele><time>2026-05-05T14:24:51.265Z</time></trkpt><trkpt lat="45.4239224" lon="11.9654626"><ele>12.0</ele><time>2026-05-05T14:24:52.265Z</time></trkpt><trkpt lat="45.4238674" lon="11.9651864"><ele>12.0</ele><time>2026-05-05T14:24:53.264Z</time></trkpt><trkpt lat="45.423813" lon="11.9649078"><ele>12.0</ele><time>2026-05-05T14:24:54.265Z</time></trkpt><trkpt lat="45.4237556" lon="11.9646188"><ele>11.0</ele><time>2026-05-05T14:24:55.265Z</time></trkpt><trkpt lat="45.4236976" lon="11.9643267"><ele>10.0</ele><time>2026-05-05T14:24:56.264Z</time></trkpt><trkpt lat="45.4236402" lon="11.9640347"><ele>9.0</ele><time>2026-05-05T14:24:57.265Z</time></trkpt><trkpt lat="45.4235783" lon="11.9637384"><ele>8.666666666666666</ele><time>2026-05-05T14:24:58.264Z</time></trkpt><trkpt lat="45.4235173" lon="11.9634424"><ele>8.333333333333332</ele><time>2026-05-05T14:24:59.264Z</time></trkpt><trkpt lat="45.4234567" lon="11.9631504"><ele>8.0</ele><time>2026-05-05T14:25:00.265Z</time></trkpt><trkpt lat="45.4233967" lon="11.962871"><ele>6.333333333333333</ele><time>2026-05-05T14:25:01.264Z</time></trkpt><trkpt lat="45.4233381" lon="11.9626014"><ele>4.666666666666666</ele><time>2026-05-05T14:25:02.264Z</time></trkpt><trkpt lat="45.4232826" lon="11.9623361"><ele>3.0</ele><time>2026-05-05T14:25:03.265Z</time></trkpt><trkpt lat="45.4232302" lon="11.9620773"><ele>3.0</ele><time>2026-05-05T14:25:04.264Z</time></trkpt><trkpt lat="45.4231735" lon="11.9618332"><ele>3.0</ele><time>2026-05-05T14:25:05.264Z</time></trkpt><trkpt lat="45.4231234" lon="11.9615872"><ele>3.0</ele><time>2026-05-05T14:25:06.264Z</time></trkpt><trkpt lat="45.4230785" lon="11.9613594"><ele>4.25</ele><time>2026-05-05T14:25:07.265Z</time></trkpt><trkpt lat="45.423035" lon="11.9611438"><ele>5.5</ele><time>2026-05-05T14:25:08.265Z</time></trkpt><trkpt lat="45.4229988" lon="11.9609388"><ele>6.75</ele><time>2026-05-05T14:25:09.265Z</time></trkpt><trkpt lat="45.4229666" lon="11.9607451"><ele>8.0</ele><time>2026-05-05T14:25:10.265Z</time></trkpt><trkpt lat="45.4229344" lon="11.9605642"><ele>8.5</ele><time>2026-05-05T14:25:11.264Z</time></trkpt><trkpt lat="45.4229013" lon="11.9603761"><ele>9.0</ele><time>2026-05-05T14:25:12.265Z</time></trkpt><trkpt lat="45.4228662" lon="11.9601937"><ele>9.5</ele><time>2026-05-05T14:25:13.265Z</time></trkpt><trkpt lat="45.4228353" lon="11.9600312"><ele>10.0</ele><time>2026-05-05T14:25:14.264Z</time></trkpt><trkpt lat="45.4228071" lon="11.9598863"><ele>10.0</ele><time>2026-05-05T14:25:15.265Z</time></trkpt><trkpt lat="45.4227828" lon="11.959722"><ele>10.0</ele><time>2026-05-05T14:25:16.264Z</time></trkpt><trkpt lat="45.4227632" lon="11.9595599"><ele>10.0</ele><time>2026-05-05T14:25:17.265Z</time></trkpt><trkpt lat="45.4227498" lon="11.9594105"><ele>10.0</ele><time>2026-05-05T14:25:18.265Z</time></trkpt><trkpt lat="45.4227438" lon="11.9592671"><ele>10.0</ele><time>2026-05-05T14:25:19.264Z</time></trkpt><trkpt lat="45.4227453" lon="11.9591178"><ele>10.0</ele><time>2026-05-05T14:25:20.265Z</time></trkpt><trkpt lat="45.4227582" lon="11.9589711"><ele>10.0</ele><time>2026-05-05T14:25:21.264Z</time></trkpt><trkpt lat="45.422776" lon="11.9588273"><ele>10.0</ele><time>2026-05-05T14:25:22.265Z</time></trkpt><trkpt lat="45.4228035" lon="11.9586794"><ele>10.0</ele><time>2026-05-05T14:25:23.265Z</time></trkpt><trkpt lat="45.4228409" lon="11.9585447"><ele>10.0</ele><time>2026-05-05T14:25:24.264Z</time></trkpt><trkpt lat="45.4228894" lon="11.9584206"><ele>10.0</ele><time>2026-05-05T14:25:25.264Z</time></trkpt><trkpt lat="45.4229422" lon="11.9583065"><ele>10.0</ele><time>2026-05-05T14:25:26.265Z</time></trkpt><trkpt lat="45.4229969" lon="11.9582049"><ele>10.0</ele><time>2026-05-05T14:25:27.265Z</time></trkpt><trkpt lat="45.4230477" lon="11.9581045"><ele>10.0</ele><time>2026-05-05T14:25:28.265Z</time></trkpt><trkpt lat="45.4230996" lon="11.9580052"><ele>10.0</ele><time>2026-05-05T14:25:29.265Z</time></trkpt><trkpt lat="45.4231496" lon="11.95791"><ele>10.0</ele><time>2026-05-05T14:25:30.264Z</time></trkpt><trkpt lat="45.423189" lon="11.9578055"><ele>10.0</ele><time>2026-05-05T14:25:31.264Z</time></trkpt><trkpt lat="45.4232184" lon="11.9576932"><ele>10.0</ele><time>2026-05-05T14:25:32.264Z</time></trkpt><trkpt lat="45.4232383" lon="11.9575648"><ele>10.0</ele><time>2026-05-05T14:25:33.265Z</time></trkpt><trkpt lat="45.4232505" lon="11.9574346"><ele>10.0</ele><time>2026-05-05T14:25:34.264Z</time></trkpt><trkpt lat="45.4232392" lon="11.9572801"><ele>10.0</ele><time>2026-05-05T14:25:35.264Z</time></trkpt><trkpt lat="45.4232119" lon="11.9571438"><ele>10.0</ele><time>2026-05-05T14:25:36.265Z</time></trkpt><trkpt lat="45.4231727" lon="11.9570001"><ele>10.0</ele><time>2026-05-05T14:25:37.265Z</time></trkpt><trkpt lat="45.4231135" lon="11.9568669"><ele>10.0</ele><time>2026-05-05T14:25:38.264Z</time></trkpt><trkpt lat="45.4230385" lon="11.9567425"><ele>10.0</ele><time>2026-05-05T14:25:39.265Z</time></trkpt><trkpt lat="45.422954" lon="11.9566172"><ele>10.0</ele><time>2026-05-05T14:25:40.265Z</time></trkpt><trkpt lat="45.4228503" lon="11.9564918"><ele>10.0</ele><time>2026-05-05T14:25:41.264Z</time></trkpt><trkpt lat="45.4227428" lon="11.9563839"><ele>10.0</ele><time>2026-05-05T14:25:42.265Z</time></trkpt><trkpt lat="45.4226242" lon="11.9562673"><ele>10.0</ele><time>2026-05-05T14:25:43.265Z</time></trkpt><trkpt lat="45.422496" lon="11.9561663"><ele>10.0</ele><time>2026-05-05T14:25:44.265Z</time></trkpt><trkpt lat="45.422361" lon="11.9560743"><ele>10.0</ele><time>2026-05-05T14:25:45.264Z</time></trkpt><trkpt lat="45.4222247" lon="11.9559959"><ele>10.0</ele><time>2026-05-05T14:25:46.264Z</time></trkpt><trkpt lat="45.4220878" lon="11.9559237"><ele>10.0</ele><time>2026-05-05T14:25:47.264Z</time></trkpt><trkpt lat="45.421948" lon="11.9558735"><ele>10.333333333333334</ele><time>2026-05-05T14:25:48.265Z</time></trkpt><trkpt lat="45.421796" lon="11.9558233"><ele>10.666666666666666</ele><time>2026-05-05T14:25:49.264Z</time></trkpt><trkpt lat="45.4216405" lon="11.9557975"><ele>11.0</ele><time>2026-05-05T14:25:50.265Z</time></trkpt><trkpt lat="45.4214792" lon="11.9557787"><ele>11.0</ele><time>2026-05-05T14:25:51.264Z</time></trkpt><trkpt lat="45.4213168" lon="11.9557806"><ele>11.0</ele><time>2026-05-05T14:25:52.265Z</time></trkpt><trkpt lat="45.4211564" lon="11.9557973"><ele>11.0</ele><time>2026-05-05T14:25:53.265Z</time></trkpt><trkpt lat="45.4209943" lon="11.9558274"><ele>11.333333333333332</ele><time>2026-05-05T14:25:54.265Z</time></trkpt><trkpt lat="45.4208265" lon="11.9558639"><ele>11.666666666666666</ele><time>2026-05-05T14:25:55.265Z</time></trkpt><trkpt lat="45.4206623" lon="11.95591"><ele>12.0</ele><time>2026-05-05T14:25:56.265Z</time></trkpt><trkpt lat="45.4204945" lon="11.9559564"><ele>10.333333333333334</ele><time>2026-05-05T14:25:57.265Z</time></trkpt><trkpt lat="45.4203282" lon="11.9560088"><ele>8.666666666666668</ele><time>2026-05-05T14:25:58.265Z</time></trkpt><trkpt lat="45.4201554" lon="11.9560592"><ele>7.0</ele><time>2026-05-05T14:25:59.264Z</time></trkpt><trkpt lat="45.4199793" lon="11.9561089"><ele>7.0</ele><time>2026-05-05T14:26:00.265Z</time></trkpt><trkpt lat="45.4198022" lon="11.9561553"><ele>7.0</ele><time>2026-05-05T14:26:01.264Z</time></trkpt><trkpt lat="45.419622" lon="11.9562065"><ele>7.0</ele><time>2026-05-05T14:26:02.265Z</time></trkpt><trkpt lat="45.4194433" lon="11.9562564"><ele>8.333333333333334</ele><time>2026-05-05T14:26:03.264Z</time></trkpt><trkpt lat="45.4192649" lon="11.9563041"><ele>9.666666666666666</ele><time>2026-05-05T14:26:04.264Z</time></trkpt><trkpt lat="45.4190866" lon="11.9563511"><ele>11.0</ele><time>2026-05-05T14:26:05.265Z</time></trkpt><trkpt lat="45.418913" lon="11.9564016"><ele>10.666666666666666</ele><time>2026-05-05T14:26:06.264Z</time></trkpt><trkpt lat="45.4187401" lon="11.9564486"><ele>10.333333333333334</ele><time>2026-05-05T14:26:07.264Z</time></trkpt><trkpt lat="45.4185688" lon="11.9565001"><ele>10.0</ele><time>2026-05-05T14:26:08.264Z</time></trkpt><trkpt lat="45.4183966" lon="11.9565601"><ele>10.0</ele><time>2026-05-05T14:26:09.264Z</time></trkpt><trkpt lat="45.4182265" lon="11.9566303"><ele>10.0</ele><time>2026-05-05T14:26:10.264Z</time></trkpt><trkpt lat="45.4180547" lon="11.9567098"><ele>10.0</ele><time>2026-05-05T14:26:11.265Z</time></trkpt><trkpt lat="45.4173879" lon="11.9570633"><ele>10.333333333333334</ele><time>2026-05-05T14:26:15.257Z</time></trkpt><trkpt lat="45.4172239" lon="11.9571637"><ele>10.666666666666666</ele><time>2026-05-05T14:26:16.256Z</time></trkpt><trkpt lat="45.4170628" lon="11.9572702"><ele>11.0</ele><time>2026-05-05T14:26:17.257Z</time></trkpt><trkpt lat="45.4169059" lon="11.9573813"><ele>11.0</ele><time>2026-05-05T14:26:18.257Z</time></trkpt><trkpt lat="45.4167511" lon="11.9574982"><ele>11.0</ele><time>2026-05-05T14:26:19.257Z</time></trkpt><trkpt lat="45.4165986" lon="11.9576225"><ele>11.0</ele><time>2026-05-05T14:26:20.256Z</time></trkpt><trkpt lat="45.4164479" lon="11.9577505"><ele>12.0</ele><time>2026-05-05T14:26:21.257Z</time></trkpt><trkpt lat="45.4162994" lon="11.9578832"><ele>13.0</ele><time>2026-05-05T14:26:22.256Z</time></trkpt><trkpt lat="45.4161523" lon="11.9580189"><ele>14.0</ele><time>2026-05-05T14:26:23.257Z</time></trkpt><trkpt lat="45.4160077" lon="11.9581588"><ele>14.0</ele><time>2026-05-05T14:26:24.256Z</time></trkpt><trkpt lat="45.4158661" lon="11.9582988"><ele>14.0</ele><time>2026-05-05T14:26:25.256Z</time></trkpt><trkpt lat="45.4157242" lon="11.9584403"><ele>14.0</ele><time>2026-05-05T14:26:26.257Z</time></trkpt><trkpt lat="45.4155828" lon="11.9585799"><ele>12.666666666666668</ele><time>2026-05-05T14:26:27.257Z</time></trkpt><trkpt lat="45.4154418" lon="11.9587185"><ele>11.333333333333334</ele><time>2026-05-05T14:26:28.257Z</time></trkpt><trkpt lat="45.4152984" lon="11.9588614"><ele>10.0</ele><time>2026-05-05T14:26:29.257Z</time></trkpt><trkpt lat="45.415155" lon="11.9590024"><ele>10.0</ele><time>2026-05-05T14:26:30.257Z</time></trkpt><trkpt lat="45.4150136" lon="11.9591432"><ele>10.0</ele><time>2026-05-05T14:26:31.256Z</time></trkpt><trkpt lat="45.4148757" lon="11.9592809"><ele>10.0</ele><time>2026-05-05T14:26:32.257Z</time></trkpt><trkpt lat="45.4147432" lon="11.9594178"><ele>10.333333333333334</ele><time>2026-05-05T14:26:33.257Z</time></trkpt><trkpt lat="45.4146111" lon="11.9595559"><ele>10.666666666666666</ele><time>2026-05-05T14:26:34.257Z</time></trkpt><trkpt lat="45.4144818" lon="11.9596949"><ele>11.0</ele><time>2026-05-05T14:26:35.257Z</time></trkpt><trkpt lat="45.4143515" lon="11.9598335"><ele>11.0</ele><time>2026-05-05T14:26:36.256Z</time></trkpt><trkpt lat="45.4142184" lon="11.9599725"><ele>11.0</ele><time>2026-05-05T14:26:37.257Z</time></trkpt><trkpt lat="45.4140831" lon="11.9601051"><ele>11.0</ele><time>2026-05-05T14:26:38.257Z</time></trkpt><trkpt lat="45.4139437" lon="11.9602333"><ele>10.333333333333332</ele><time>2026-05-05T14:26:39.256Z</time></trkpt><trkpt lat="45.4138043" lon="11.9603579"><ele>9.666666666666666</ele><time>2026-05-05T14:26:40.257Z</time></trkpt><trkpt lat="45.4136628" lon="11.9604796"><ele>9.0</ele><time>2026-05-05T14:26:41.257Z</time></trkpt><trkpt lat="45.4135205" lon="11.9605966"><ele>9.0</ele><time>2026-05-05T14:26:42.256Z</time></trkpt><trkpt lat="45.4133748" lon="11.9607074"><ele>9.0</ele><time>2026-05-05T14:26:43.257Z</time></trkpt><trkpt lat="45.4132267" lon="11.9608138"><ele>9.0</ele><time>2026-05-05T14:26:44.257Z</time></trkpt><trkpt lat="45.4130772" lon="11.9609189"><ele>9.666666666666666</ele><time>2026-05-05T14:26:45.257Z</time></trkpt><trkpt lat="45.4129273" lon="11.9610264"><ele>10.333333333333332</ele><time>2026-05-05T14:26:46.257Z</time></trkpt><trkpt lat="45.4127798" lon="11.9611198"><ele>11.0</ele><time>2026-05-05T14:26:47.256Z</time></trkpt><trkpt lat="45.4126269" lon="11.9612185"><ele>11.0</ele><time>2026-05-05T14:26:48.257Z</time></trkpt><trkpt lat="45.4124742" lon="11.9613095"><ele>11.0</ele><time>2026-05-05T14:26:49.257Z</time></trkpt><trkpt lat="45.4123202" lon="11.9613967"><ele>11.0</ele><time>2026-05-05T14:26:50.257Z</time></trkpt><trkpt lat="45.4121595" lon="11.9614739"><ele>10.666666666666666</ele><time>2026-05-05T14:26:51.256Z</time></trkpt><trkpt lat="45.4119979" lon="11.9615443"><ele>10.333333333333334</ele><time>2026-05-05T14:26:52.257Z</time></trkpt><trkpt lat="45.4118358" lon="11.9616083"><ele>10.0</ele><time>2026-05-05T14:26:53.256Z</time></trkpt><trkpt lat="45.4116692" lon="11.9616714"><ele>10.0</ele><time>2026-05-05T14:26:54.257Z</time></trkpt><trkpt lat="45.4114931" lon="11.9617393"><ele>10.0</ele><time>2026-05-05T14:26:55.257Z</time></trkpt><trkpt lat="45.4113083" lon="11.9618198"><ele>10.0</ele><time>2026-05-05T14:26:56.257Z</time></trkpt><trkpt lat="45.4111187" lon="11.9619038"><ele>9.333333333333334</ele><time>2026-05-05T14:26:57.256Z</time></trkpt><trkpt lat="45.410927" lon="11.961989"><ele>8.666666666666666</ele><time>2026-05-05T14:26:58.257Z</time></trkpt><trkpt lat="45.4107339" lon="11.9620738"><ele>8.0</ele><time>2026-05-05T14:26:59.257Z</time></trkpt><trkpt lat="45.4105439" lon="11.9621555"><ele>8.333333333333332</ele><time>2026-05-05T14:27:00.256Z</time></trkpt><trkpt lat="45.4103543" lon="11.9622349"><ele>8.666666666666666</ele><time>2026-05-05T14:27:01.257Z</time></trkpt><trkpt lat="45.4101672" lon="11.9623139"><ele>9.0</ele><time>2026-05-05T14:27:02.256Z</time></trkpt><trkpt lat="45.409983" lon="11.9623908"><ele>9.0</ele><time>2026-05-05T14:27:03.257Z</time></trkpt><trkpt lat="45.4098017" lon="11.9624658"><ele>9.0</ele><time>2026-05-05T14:27:04.257Z</time></trkpt><trkpt lat="45.4096236" lon="11.9625403"><ele>9.0</ele><time>2026-05-05T14:27:05.257Z</time></trkpt><trkpt lat="45.4094462" lon="11.9626158"><ele>8.666666666666666</ele><time>2026-05-05T14:27:06.257Z</time></trkpt><trkpt lat="45.4092734" lon="11.962689"><ele>8.333333333333332</ele><time>2026-05-05T14:27:07.257Z</time></trkpt><trkpt lat="45.4091049" lon="11.962759"><ele>8.0</ele><time>2026-05-05T14:27:08.257Z</time></trkpt><trkpt lat="45.4089384" lon="11.9628308"><ele>8.666666666666666</ele><time>2026-05-05T14:27:09.257Z</time></trkpt><trkpt lat="45.4087764" lon="11.9628979"><ele>9.333333333333334</ele><time>2026-05-05T14:27:10.257Z</time></trkpt><trkpt lat="45.4086116" lon="11.9629637"><ele>10.0</ele><time>2026-05-05T14:27:11.256Z</time></trkpt><trkpt lat="45.4084449" lon="11.9630276"><ele>10.0</ele><time>2026-05-05T14:27:12.256Z</time></trkpt><trkpt lat="45.4082738" lon="11.9630934"><ele>10.0</ele><time>2026-05-05T14:27:13.257Z</time></trkpt><trkpt lat="45.4080995" lon="11.963159"><ele>10.0</ele><time>2026-05-05T14:27:14.257Z</time></trkpt><trkpt lat="45.4079241" lon="11.9632136"><ele>9.333333333333334</ele><time>2026-05-05T14:27:15.257Z</time></trkpt><trkpt lat="45.4077466" lon="11.9632736"><ele>8.666666666666666</ele><time>2026-05-05T14:27:16.257Z</time></trkpt><trkpt lat="45.4075677" lon="11.9633288"><ele>8.0</ele><time>2026-05-05T14:27:17.256Z</time></trkpt><trkpt lat="45.4073858" lon="11.9633796"><ele>8.0</ele><time>2026-05-05T14:27:18.257Z</time></trkpt><trkpt lat="45.4072013" lon="11.9634121"><ele>8.0</ele><time>2026-05-05T14:27:19.257Z</time></trkpt><trkpt lat="45.407011" lon="11.9634457"><ele>8.0</ele><time>2026-05-05T14:27:20.257Z</time></trkpt><trkpt lat="45.4068154" lon="11.9634743"><ele>7.333333333333333</ele><time>2026-05-05T14:27:21.256Z</time></trkpt><trkpt lat="45.4066054" lon="11.9634986"><ele>6.666666666666666</ele><time>2026-05-05T14:27:22.256Z</time></trkpt><trkpt lat="45.4063889" lon="11.9635141"><ele>6.0</ele><time>2026-05-05T14:27:23.256Z</time></trkpt><trkpt lat="45.4061703" lon="11.9635272"><ele>6.0</ele><time>2026-05-05T14:27:24.257Z</time></trkpt><trkpt lat="45.4059545" lon="11.9635204"><ele>6.0</ele><time>2026-05-05T14:27:25.256Z</time></trkpt><trkpt lat="45.4057365" lon="11.9635153"><ele>6.0</ele><time>2026-05-05T14:27:26.256Z</time></trkpt><trkpt lat="45.4055145" lon="11.9635068"><ele>6.5</ele><time>2026-05-05T14:27:27.257Z</time></trkpt><trkpt lat="45.4052902" lon="11.9634879"><ele>7.0</ele><time>2026-05-05T14:27:28.257Z</time></trkpt><trkpt lat="45.4050652" lon="11.9634596"><ele>7.0</ele><time>2026-05-05T14:27:29.257Z</time></trkpt><trkpt lat="45.4048439" lon="11.9634191"><ele>7.0</ele><time>2026-05-05T14:27:30.257Z</time></trkpt><trkpt lat="45.4046177" lon="11.9633729"><ele>6.0</ele><time>2026-05-05T14:27:31.257Z</time></trkpt><trkpt lat="45.4043944" lon="11.9633181"><ele>5.0</ele><time>2026-05-05T14:27:32.256Z</time></trkpt><trkpt lat="45.4041634" lon="11.9632637"><ele>5.0</ele><time>2026-05-05T14:27:33.257Z</time></trkpt><trkpt lat="45.4039333" lon="11.963195"><ele>5.0</ele><time>2026-05-05T14:27:34.257Z</time></trkpt><trkpt lat="45.4037112" lon="11.963114"><ele>5.5</ele><time>2026-05-05T14:27:35.256Z</time></trkpt><trkpt lat="45.4034856" lon="11.9630248"><ele>6.0</ele><time>2026-05-05T14:27:36.257Z</time></trkpt><trkpt lat="45.4032559" lon="11.9629317"><ele>6.0</ele><time>2026-05-05T14:27:37.256Z</time></trkpt><trkpt lat="45.4030319" lon="11.9628285"><ele>6.0</ele><time>2026-05-05T14:27:38.257Z</time></trkpt><trkpt lat="45.4028087" lon="11.9627297"><ele>5.5</ele><time>2026-05-05T14:27:39.257Z</time></trkpt><trkpt lat="45.4025882" lon="11.9626332"><ele>5.0</ele><time>2026-05-05T14:27:40.257Z</time></trkpt><trkpt lat="45.4023684" lon="11.9625397"><ele>5.5</ele><time>2026-05-05T14:27:41.257Z</time></trkpt><trkpt lat="45.4021499" lon="11.9624448"><ele>6.0</ele><time>2026-05-05T14:27:42.257Z</time></trkpt><trkpt lat="45.401933" lon="11.962356"><ele>6.0</ele><time>2026-05-05T14:27:43.256Z</time></trkpt><trkpt lat="45.4017117" lon="11.9622659"><ele>6.0</ele><time>2026-05-05T14:27:44.257Z</time></trkpt><trkpt lat="45.4014901" lon="11.9621695"><ele>7.0</ele><time>2026-05-05T14:27:45.256Z</time></trkpt><trkpt lat="45.4012554" lon="11.9620689"><ele>8.0</ele><time>2026-05-05T14:27:46.257Z</time></trkpt><trkpt lat="45.4010209" lon="11.961971"><ele>8.0</ele><time>2026-05-05T14:27:47.256Z</time></trkpt><trkpt lat="45.4007804" lon="11.961871"><ele>8.0</ele><time>2026-05-05T14:27:48.257Z</time></trkpt><trkpt lat="45.4005362" lon="11.9617699"><ele>9.0</ele><time>2026-05-05T14:27:49.256Z</time></trkpt><trkpt lat="45.4002926" lon="11.9616677"><ele>10.0</ele><time>2026-05-05T14:27:50.256Z</time></trkpt><trkpt lat="45.4000477" lon="11.9615689"><ele>10.0</ele><time>2026-05-05T14:27:51.256Z</time></trkpt><trkpt lat="45.3998024" lon="11.9614708"><ele>10.0</ele><time>2026-05-05T14:27:52.257Z</time></trkpt><trkpt lat="45.3995605" lon="11.9613651"><ele>10.0</ele><time>2026-05-05T14:27:53.257Z</time></trkpt><trkpt lat="45.3993177" lon="11.9612668"><ele>10.0</ele><time>2026-05-05T14:27:54.257Z</time></trkpt><trkpt lat="45.3990717" lon="11.9611697"><ele>8.0</ele><time>2026-05-05T14:27:55.256Z</time></trkpt><trkpt lat="45.3988194" lon="11.9610622"><ele>6.0</ele><time>2026-05-05T14:27:56.257Z</time></trkpt><trkpt lat="45.3985635" lon="11.9609574"><ele>7.0</ele><time>2026-05-05T14:27:57.257Z</time></trkpt><trkpt lat="45.3983074" lon="11.9608517"><ele>8.0</ele><time>2026-05-05T14:27:58.257Z</time></trkpt><trkpt lat="45.3980458" lon="11.9607404"><ele>7.5</ele><time>2026-05-05T14:27:59.256Z</time></trkpt><trkpt lat="45.3977843" lon="11.960636"><ele>7.0</ele><time>2026-05-05T14:28:00.257Z</time></trkpt><trkpt lat="45.3975145" lon="11.9605173"><ele>7.0</ele><time>2026-05-05T14:28:01.257Z</time></trkpt><trkpt lat="45.3972438" lon="11.9604009"><ele>7.0</ele><time>2026-05-05T14:28:02.256Z</time></trkpt><trkpt lat="45.3969674" lon="11.9602792"><ele>7.0</ele><time>2026-05-05T14:28:03.257Z</time></trkpt><trkpt lat="45.3966892" lon="11.9601618"><ele>7.0</ele><time>2026-05-05T14:28:04.257Z</time></trkpt><trkpt lat="45.3964097" lon="11.9600445"><ele>7.0</ele><time>2026-05-05T14:28:05.257Z</time></trkpt><trkpt lat="45.3961292" lon="11.9599249"><ele>7.0</ele><time>2026-05-05T14:28:06.256Z</time></trkpt><trkpt lat="45.3958467" lon="11.9598128"><ele>7.0</ele><time>2026-05-05T14:28:07.256Z</time></trkpt><trkpt lat="45.3955643" lon="11.9596959"><ele>7.0</ele><time>2026-05-05T14:28:08.257Z</time></trkpt><trkpt lat="45.3952838" lon="11.9595811"><ele>6.5</ele><time>2026-05-05T14:28:09.257Z</time></trkpt><trkpt lat="45.3950078" lon="11.9594592"><ele>6.0</ele><time>2026-05-05T14:28:10.257Z</time></trkpt><trkpt lat="45.3947307" lon="11.959339"><ele>6.0</ele><time>2026-05-05T14:28:11.256Z</time></trkpt><trkpt lat="45.3944525" lon="11.9592287"><ele>6.0</ele><time>2026-05-05T14:28:12.256Z</time></trkpt><trkpt lat="45.3941745" lon="11.9591083"><ele>7.0</ele><time>2026-05-05T14:28:13.256Z</time></trkpt><trkpt lat="45.3938936" lon="11.9589958"><ele>8.0</ele><time>2026-05-05T14:28:14.257Z</time></trkpt><trkpt lat="45.3936129" lon="11.9588785"><ele>8.5</ele><time>2026-05-05T14:28:15.256Z</time></trkpt><trkpt lat="45.3933314" lon="11.9587578"><ele>9.0</ele><time>2026-05-05T14:28:16.257Z</time></trkpt><trkpt lat="45.3930516" lon="11.9586367"><ele>9.0</ele><time>2026-05-05T14:28:17.256Z</time></trkpt><trkpt lat="45.3927052" lon="11.9584884"><ele>9.0</ele><time>2026-05-05T14:28:18.506Z</time></trkpt><trkpt lat="45.3922171" lon="11.9582928"><ele>9.5</ele><time>2026-05-05T14:28:20.258Z</time></trkpt><trkpt lat="45.3919408" lon="11.9581707"><ele>10.0</ele><time>2026-05-05T14:28:21.259Z</time></trkpt><trkpt lat="45.3916616" lon="11.958054"><ele>10.0</ele><time>2026-05-05T14:28:22.258Z</time></trkpt><trkpt lat="45.3913851" lon="11.9579367"><ele>10.0</ele><time>2026-05-05T14:28:23.258Z</time></trkpt><trkpt lat="45.3911067" lon="11.9578183"><ele>11.0</ele><time>2026-05-05T14:28:24.259Z</time></trkpt><trkpt lat="45.3908273" lon="11.9577009"><ele>12.0</ele><time>2026-05-05T14:28:25.259Z</time></trkpt><trkpt lat="45.3905486" lon="11.9575851"><ele>12.0</ele><time>2026-05-05T14:28:26.259Z</time></trkpt><trkpt lat="45.3902683" lon="11.9574701"><ele>12.0</ele><time>2026-05-05T14:28:27.258Z</time></trkpt><trkpt lat="45.3899896" lon="11.9573553"><ele>12.0</ele><time>2026-05-05T14:28:28.258Z</time></trkpt><trkpt lat="45.3897113" lon="11.9572387"><ele>12.0</ele><time>2026-05-05T14:28:29.259Z</time></trkpt><trkpt lat="45.3894339" lon="11.9571197"><ele>10.5</ele><time>2026-05-05T14:28:30.258Z</time></trkpt><trkpt lat="45.3891582" lon="11.9570037"><ele>9.0</ele><time>2026-05-05T14:28:31.259Z</time></trkpt><trkpt lat="45.3888826" lon="11.9568876"><ele>9.0</ele><time>2026-05-05T14:28:32.258Z</time></trkpt><trkpt lat="45.3886089" lon="11.956774"><ele>9.0</ele><time>2026-05-05T14:28:33.258Z</time></trkpt><trkpt lat="45.3883292" lon="11.9566563"><ele>9.5</ele><time>2026-05-05T14:28:34.259Z</time></trkpt><trkpt lat="45.3880415" lon="11.9565356"><ele>10.0</ele><time>2026-05-05T14:28:35.258Z</time></trkpt><trkpt lat="45.3877496" lon="11.9564122"><ele>10.0</ele><time>2026-05-05T14:28:36.258Z</time></trkpt><trkpt lat="45.387456" lon="11.9562884"><ele>10.0</ele><time>2026-05-05T14:28:37.259Z</time></trkpt><trkpt lat="45.387165" lon="11.9561654"><ele>9.5</ele><time>2026-05-05T14:28:38.259Z</time></trkpt><trkpt lat="45.3868759" lon="11.9560385"><ele>9.0</ele><time>2026-05-05T14:28:39.258Z</time></trkpt><trkpt lat="45.3865897" lon="11.9559097"><ele>9.0</ele><time>2026-05-05T14:28:40.259Z</time></trkpt><trkpt lat="45.3863038" lon="11.9557862"><ele>9.0</ele><time>2026-05-05T14:28:41.259Z</time></trkpt><trkpt lat="45.38602" lon="11.9556572"><ele>9.0</ele><time>2026-05-05T14:28:42.259Z</time></trkpt><trkpt lat="45.3857368" lon="11.9555305"><ele>9.0</ele><time>2026-05-05T14:28:43.259Z</time></trkpt><trkpt lat="45.3854537" lon="11.9554075"><ele>9.5</ele><time>2026-05-05T14:28:44.259Z</time></trkpt><trkpt lat="45.3851711" lon="11.9552923"><ele>10.0</ele><time>2026-05-05T14:28:45.258Z</time></trkpt><trkpt lat="45.38489" lon="11.9551687"><ele>10.0</ele><time>2026-05-05T14:28:46.259Z</time></trkpt><trkpt lat="45.3846102" lon="11.9550509"><ele>10.0</ele><time>2026-05-05T14:28:47.259Z</time></trkpt><trkpt lat="45.3843309" lon="11.9549328"><ele>9.0</ele><time>2026-05-05T14:28:48.259Z</time></trkpt><trkpt lat="45.384055" lon="11.9548196"><ele>8.0</ele><time>2026-05-05T14:28:49.259Z</time></trkpt><trkpt lat="45.3837791" lon="11.9547059"><ele>7.5</ele><time>2026-05-05T14:28:50.259Z</time></trkpt><trkpt lat="45.3835061" lon="11.9545912"><ele>7.0</ele><time>2026-05-05T14:28:51.259Z</time></trkpt><trkpt lat="45.3832346" lon="11.9544776"><ele>7.0</ele><time>2026-05-05T14:28:52.258Z</time></trkpt><trkpt lat="45.3829662" lon="11.9543632"><ele>7.0</ele><time>2026-05-05T14:28:53.259Z</time></trkpt><trkpt lat="45.3826967" lon="11.9542534"><ele>7.5</ele><time>2026-05-05T14:28:54.259Z</time></trkpt><trkpt lat="45.3824303" lon="11.9541447"><ele>8.0</ele><time>2026-05-05T14:28:55.258Z</time></trkpt><trkpt lat="45.3821659" lon="11.9540362"><ele>9.0</ele><time>2026-05-05T14:28:56.258Z</time></trkpt><trkpt lat="45.3819027" lon="11.9539265"><ele>10.0</ele><time>2026-05-05T14:28:57.259Z</time></trkpt><trkpt lat="45.3816395" lon="11.9538163"><ele>10.0</ele><time>2026-05-05T14:28:58.259Z</time></trkpt><trkpt lat="45.3813805" lon="11.9537059"><ele>10.0</ele><time>2026-05-05T14:28:59.258Z</time></trkpt><trkpt lat="45.3811173" lon="11.953597"><ele>9.5</ele><time>2026-05-05T14:29:00.259Z</time></trkpt><trkpt lat="45.3808564" lon="11.9534861"><ele>9.0</ele><time>2026-05-05T14:29:01.259Z</time></trkpt><trkpt lat="45.380594" lon="11.9533746"><ele>9.5</ele><time>2026-05-05T14:29:02.259Z</time></trkpt><trkpt lat="45.3803332" lon="11.9532615"><ele>10.0</ele><time>2026-05-05T14:29:03.258Z</time></trkpt><trkpt lat="45.3800721" lon="11.953148"><ele>10.0</ele><time>2026-05-05T14:29:04.259Z</time></trkpt><trkpt lat="45.3798092" lon="11.953039"><ele>10.0</ele><time>2026-05-05T14:29:05.259Z</time></trkpt><trkpt lat="45.3795451" lon="11.9529255"><ele>8.5</ele><time>2026-05-05T14:29:06.258Z</time></trkpt><trkpt lat="45.379278" lon="11.9528136"><ele>7.0</ele><time>2026-05-05T14:29:07.259Z</time></trkpt><trkpt lat="45.379007" lon="11.9527038"><ele>6.5</ele><time>2026-05-05T14:29:08.258Z</time></trkpt><trkpt lat="45.3787357" lon="11.952588"><ele>6.0</ele><time>2026-05-05T14:29:09.259Z</time></trkpt><trkpt lat="45.3784622" lon="11.9524753"><ele>7.0</ele><time>2026-05-05T14:29:10.258Z</time></trkpt><trkpt lat="45.378182" lon="11.9523598"><ele>8.0</ele><time>2026-05-05T14:29:11.259Z</time></trkpt><trkpt lat="45.3778998" lon="11.9522435"><ele>8.0</ele><time>2026-05-05T14:29:12.259Z</time></trkpt><trkpt lat="45.3776176" lon="11.9521252"><ele>8.0</ele><time>2026-05-05T14:29:13.259Z</time></trkpt><trkpt lat="45.3773324" lon="11.9520084"><ele>7.5</ele><time>2026-05-05T14:29:14.259Z</time></trkpt><trkpt lat="45.3770506" lon="11.9518919"><ele>7.0</ele><time>2026-05-05T14:29:15.258Z</time></trkpt><trkpt lat="45.3767706" lon="11.9517744"><ele>8.0</ele><time>2026-05-05T14:29:16.258Z</time></trkpt><trkpt lat="45.3764876" lon="11.9516579"><ele>9.0</ele><time>2026-05-05T14:29:17.259Z</time></trkpt><trkpt lat="45.3762082" lon="11.9515365"><ele>9.0</ele><time>2026-05-05T14:29:18.259Z</time></trkpt><trkpt lat="45.375928" lon="11.9514287"><ele>9.0</ele><time>2026-05-05T14:29:19.259Z</time></trkpt><trkpt lat="45.375649" lon="11.9513113"><ele>8.0</ele><time>2026-05-05T14:29:20.259Z</time></trkpt><trkpt lat="45.375369" lon="11.951188"><ele>7.0</ele><time>2026-05-05T14:29:21.259Z</time></trkpt><trkpt lat="45.375093" lon="11.9510721"><ele>7.0</ele><time>2026-05-05T14:29:22.258Z</time></trkpt><trkpt lat="45.374821" lon="11.9509652"><ele>7.0</ele><time>2026-05-05T14:29:23.259Z</time></trkpt><trkpt lat="45.3745487" lon="11.9508457"><ele>8.0</ele><time>2026-05-05T14:29:24.259Z</time></trkpt><trkpt lat="45.3742745" lon="11.9507248"><ele>9.0</ele><time>2026-05-05T14:29:25.259Z</time></trkpt><trkpt lat="45.3739973" lon="11.950613"><ele>8.0</ele><time>2026-05-05T14:29:26.259Z</time></trkpt><trkpt lat="45.3737262" lon="11.9505001"><ele>7.0</ele><time>2026-05-05T14:29:27.259Z</time></trkpt><trkpt lat="45.3734521" lon="11.9503916"><ele>7.0</ele><time>2026-05-05T14:29:28.258Z</time></trkpt><trkpt lat="45.373177" lon="11.9502806"><ele>7.0</ele><time>2026-05-05T14:29:29.259Z</time></trkpt><trkpt lat="45.3728994" lon="11.9501633"><ele>6.0</ele><time>2026-05-05T14:29:30.259Z</time></trkpt><trkpt lat="45.3726217" lon="11.9500476"><ele>5.0</ele><time>2026-05-05T14:29:31.258Z</time></trkpt><trkpt lat="45.3723489" lon="11.9499369"><ele>6.0</ele><time>2026-05-05T14:29:32.259Z</time></trkpt><trkpt lat="45.3720768" lon="11.9498203"><ele>7.0</ele><time>2026-05-05T14:29:33.259Z</time></trkpt><trkpt lat="45.371803" lon="11.9497009"><ele>7.0</ele><time>2026-05-05T14:29:34.258Z</time></trkpt><trkpt lat="45.3715284" lon="11.9495855"><ele>7.0</ele><time>2026-05-05T14:29:35.258Z</time></trkpt><trkpt lat="45.3712496" lon="11.9494698"><ele>6.5</ele><time>2026-05-05T14:29:36.259Z</time></trkpt><trkpt lat="45.370972" lon="11.9493486"><ele>6.0</ele><time>2026-05-05T14:29:37.259Z</time></trkpt><trkpt lat="45.3706957" lon="11.9492317"><ele>6.5</ele><time>2026-05-05T14:29:38.259Z</time></trkpt><trkpt lat="45.3704177" lon="11.949116"><ele>7.0</ele><time>2026-05-05T14:29:39.259Z</time></trkpt><trkpt lat="45.3701395" lon="11.9490037"><ele>7.0</ele><time>2026-05-05T14:29:40.258Z</time></trkpt><trkpt lat="45.3698585" lon="11.9488904"><ele>7.0</ele><time>2026-05-05T14:29:41.259Z</time></trkpt><trkpt lat="45.3695804" lon="11.9487765"><ele>6.5</ele><time>2026-05-05T14:29:42.259Z</time></trkpt><trkpt lat="45.3693059" lon="11.9486631"><ele>6.0</ele><time>2026-05-05T14:29:43.258Z</time></trkpt><trkpt lat="45.3690317" lon="11.9485527"><ele>6.0</ele><time>2026-05-05T14:29:44.259Z</time></trkpt><trkpt lat="45.368759" lon="11.9484388"><ele>6.0</ele><time>2026-05-05T14:29:45.259Z</time></trkpt><trkpt lat="45.3684894" lon="11.9483351"><ele>6.0</ele><time>2026-05-05T14:29:46.259Z</time></trkpt><trkpt lat="45.3682174" lon="11.9482298"><ele>6.0</ele><time>2026-05-05T14:29:47.259Z</time></trkpt><trkpt lat="45.3679509" lon="11.9481207"><ele>5.5</ele><time>2026-05-05T14:29:48.259Z</time></trkpt><trkpt lat="45.3676854" lon="11.9480126"><ele>5.0</ele><time>2026-05-05T14:29:49.259Z</time></trkpt><trkpt lat="45.3674207" lon="11.9479014"><ele>4.5</ele><time>2026-05-05T14:29:50.259Z</time></trkpt><trkpt lat="45.367143" lon="11.9477957"><ele>4.0</ele><time>2026-05-05T14:29:51.259Z</time></trkpt><trkpt lat="45.3668756" lon="11.9476922"><ele>4.0</ele><time>2026-05-05T14:29:52.259Z</time></trkpt><trkpt lat="45.3665992" lon="11.947584"><ele>4.0</ele><time>2026-05-05T14:29:53.258Z</time></trkpt><trkpt lat="45.3663226" lon="11.9474714"><ele>4.5</ele><time>2026-05-05T14:29:54.259Z</time></trkpt><trkpt lat="45.3660427" lon="11.9473648"><ele>5.0</ele><time>2026-05-05T14:29:55.259Z</time></trkpt><trkpt lat="45.3657649" lon="11.947248"><ele>4.5</ele><time>2026-05-05T14:29:56.259Z</time></trkpt><trkpt lat="45.3654873" lon="11.9471245"><ele>4.0</ele><time>2026-05-05T14:29:57.259Z</time></trkpt><trkpt lat="45.365208" lon="11.9470035"><ele>4.0</ele><time>2026-05-05T14:29:58.259Z</time></trkpt><trkpt lat="45.3649312" lon="11.9468831"><ele>4.0</ele><time>2026-05-05T14:29:59.258Z</time></trkpt><trkpt lat="45.3646525" lon="11.9467727"><ele>5.0</ele><time>2026-05-05T14:30:00.258Z</time></trkpt><trkpt lat="45.3643716" lon="11.9466661"><ele>6.0</ele><time>2026-05-05T14:30:01.259Z</time></trkpt><trkpt lat="45.3641007" lon="11.946548"><ele>6.0</ele><time>2026-05-05T14:30:02.259Z</time></trkpt><trkpt lat="45.3638326" lon="11.9464298"><ele>6.0</ele><time>2026-05-05T14:30:03.259Z</time></trkpt><trkpt lat="45.3635594" lon="11.9463024"><ele>6.0</ele><time>2026-05-05T14:30:04.259Z</time></trkpt><trkpt lat="45.3632899" lon="11.9461767"><ele>6.0</ele><time>2026-05-05T14:30:05.259Z</time></trkpt><trkpt lat="45.3630195" lon="11.9460579"><ele>5.5</ele><time>2026-05-05T14:30:06.258Z</time></trkpt><trkpt lat="45.3627462" lon="11.9459363"><ele>5.0</ele><time>2026-05-05T14:30:07.258Z</time></trkpt><trkpt lat="45.3624774" lon="11.9458198"><ele>5.0</ele><time>2026-05-05T14:30:08.259Z</time></trkpt><trkpt lat="45.3622066" lon="11.945706"><ele>5.0</ele><time>2026-05-05T14:30:09.259Z</time></trkpt><trkpt lat="45.3619388" lon="11.9455869"><ele>6.0</ele><time>2026-05-05T14:30:10.258Z</time></trkpt><trkpt lat="45.3616827" lon="11.9454727"><ele>7.0</ele><time>2026-05-05T14:30:11.258Z</time></trkpt><trkpt lat="45.3614207" lon="11.9453587"><ele>6.0</ele><time>2026-05-05T14:30:12.259Z</time></trkpt><trkpt lat="45.3611597" lon="11.9452446"><ele>5.0</ele><time>2026-05-05T14:30:13.259Z</time></trkpt><trkpt lat="45.3609022" lon="11.9451228"><ele>5.0</ele><time>2026-05-05T14:30:14.258Z</time></trkpt><trkpt lat="45.3606437" lon="11.9449789"><ele>5.0</ele><time>2026-05-05T14:30:15.258Z</time></trkpt><trkpt lat="45.360386" lon="11.9448265"><ele>4.5</ele><time>2026-05-05T14:30:16.259Z</time></trkpt><trkpt lat="45.3601278" lon="11.9446706"><ele>4.0</ele><time>2026-05-05T14:30:17.258Z</time></trkpt><trkpt lat="45.3598689" lon="11.9445037"><ele>4.5</ele><time>2026-05-05T14:30:18.258Z</time></trkpt><trkpt lat="45.3596178" lon="11.9443221"><ele>5.0</ele><time>2026-05-05T14:30:19.259Z</time></trkpt><trkpt lat="45.3593717" lon="11.944124"><ele>6.5</ele><time>2026-05-05T14:30:20.259Z</time></trkpt><trkpt lat="45.3591393" lon="11.9439209"><ele>8.0</ele><time>2026-05-05T14:30:21.259Z</time></trkpt><trkpt lat="45.3589183" lon="11.9437167"><ele>7.5</ele><time>2026-05-05T14:30:22.259Z</time></trkpt><trkpt lat="45.3586999" lon="11.9435103"><ele>7.0</ele><time>2026-05-05T14:30:23.258Z</time></trkpt><trkpt lat="45.3584923" lon="11.943289"><ele>5.5</ele><time>2026-05-05T14:30:24.258Z</time></trkpt><trkpt lat="45.3582894" lon="11.9430645"><ele>4.0</ele><time>2026-05-05T14:30:25.259Z</time></trkpt><trkpt lat="45.3580917" lon="11.9428288"><ele>4.5</ele><time>2026-05-05T14:30:26.258Z</time></trkpt><trkpt lat="45.3578944" lon="11.9425899"><ele>5.0</ele><time>2026-05-05T14:30:27.258Z</time></trkpt><trkpt lat="45.3577072" lon="11.9423503"><ele>5.0</ele><time>2026-05-05T14:30:28.258Z</time></trkpt><trkpt lat="45.3575261" lon="11.9421014"><ele>5.0</ele><time>2026-05-05T14:30:29.259Z</time></trkpt><trkpt lat="45.3573507" lon="11.941862"><ele>5.5</ele><time>2026-05-05T14:30:30.258Z</time></trkpt><trkpt lat="45.3571817" lon="11.9416138"><ele>6.0</ele><time>2026-05-05T14:30:31.259Z</time></trkpt><trkpt lat="45.3570148" lon="11.941371"><ele>6.0</ele><time>2026-05-05T14:30:32.258Z</time></trkpt><trkpt lat="45.3568456" lon="11.9411347"><ele>6.0</ele><time>2026-05-05T14:30:33.259Z</time></trkpt><trkpt lat="45.3566776" lon="11.9408933"><ele>6.0</ele><time>2026-05-05T14:30:34.259Z</time></trkpt><trkpt lat="45.3565135" lon="11.9406677"><ele>6.0</ele><time>2026-05-05T14:30:35.258Z</time></trkpt><trkpt lat="45.3563526" lon="11.940436"><ele>6.0</ele><time>2026-05-05T14:30:36.259Z</time></trkpt><trkpt lat="45.3561925" lon="11.9402138"><ele>6.0</ele><time>2026-05-05T14:30:37.258Z</time></trkpt><trkpt lat="45.356039" lon="11.9399977"><ele>6.0</ele><time>2026-05-05T14:30:38.259Z</time></trkpt><trkpt lat="45.3558845" lon="11.9397744"><ele>6.333333333333334</ele><time>2026-05-05T14:30:39.258Z</time></trkpt><trkpt lat="45.3557292" lon="11.9395621"><ele>6.666666666666667</ele><time>2026-05-05T14:30:40.259Z</time></trkpt><trkpt lat="45.3555734" lon="11.9393364"><ele>7.0</ele><time>2026-05-05T14:30:41.259Z</time></trkpt><trkpt lat="45.3554123" lon="11.9391046"><ele>7.0</ele><time>2026-05-05T14:30:42.258Z</time></trkpt><trkpt lat="45.355259" lon="11.938876"><ele>7.0</ele><time>2026-05-05T14:30:43.259Z</time></trkpt><trkpt lat="45.3551014" lon="11.9386585"><ele>7.0</ele><time>2026-05-05T14:30:44.259Z</time></trkpt><trkpt lat="45.3549477" lon="11.9384286"><ele>6.666666666666667</ele><time>2026-05-05T14:30:45.259Z</time></trkpt><trkpt lat="45.3547986" lon="11.9382092"><ele>6.333333333333334</ele><time>2026-05-05T14:30:46.259Z</time></trkpt><trkpt lat="45.3546536" lon="11.9379817"><ele>6.0</ele><time>2026-05-05T14:30:47.259Z</time></trkpt><trkpt lat="45.3545152" lon="11.9377562"><ele>6.0</ele><time>2026-05-05T14:30:48.258Z</time></trkpt><trkpt lat="45.3543806" lon="11.9375347"><ele>6.0</ele><time>2026-05-05T14:30:49.259Z</time></trkpt><trkpt lat="45.354255" lon="11.9373052"><ele>6.0</ele><time>2026-05-05T14:30:50.259Z</time></trkpt><trkpt lat="45.3541334" lon="11.9370593"><ele>6.0</ele><time>2026-05-05T14:30:51.259Z</time></trkpt><trkpt lat="45.3540138" lon="11.9368014"><ele>6.0</ele><time>2026-05-05T14:30:52.258Z</time></trkpt><trkpt lat="45.3538976" lon="11.9365367"><ele>6.0</ele><time>2026-05-05T14:30:53.259Z</time></trkpt><trkpt lat="45.353779" lon="11.9362793"><ele>6.0</ele><time>2026-05-05T14:30:54.258Z</time></trkpt><trkpt lat="45.3536684" lon="11.9360113"><ele>6.0</ele><time>2026-05-05T14:30:55.259Z</time></trkpt><trkpt lat="45.3535621" lon="11.9357487"><ele>6.0</ele><time>2026-05-05T14:30:56.259Z</time></trkpt><trkpt lat="45.3534687" lon="11.9354847"><ele>6.333333333333334</ele><time>2026-05-05T14:30:57.258Z</time></trkpt><trkpt lat="45.3533757" lon="11.9352142"><ele>6.666666666666667</ele><time>2026-05-05T14:30:58.259Z</time></trkpt><trkpt lat="45.3532866" lon="11.9349465"><ele>7.0</ele><time>2026-05-05T14:30:59.259Z</time></trkpt><trkpt lat="45.3531995" lon="11.9346767"><ele>7.0</ele><time>2026-05-05T14:31:00.259Z</time></trkpt><trkpt lat="45.353124" lon="11.9344105"><ele>7.0</ele><time>2026-05-05T14:31:01.258Z</time></trkpt><trkpt lat="45.3530486" lon="11.9341387"><ele>7.0</ele><time>2026-05-05T14:31:02.259Z</time></trkpt><trkpt lat="45.3529772" lon="11.9338757"><ele>7.333333333333334</ele><time>2026-05-05T14:31:03.258Z</time></trkpt><trkpt lat="45.3529099" lon="11.9336109"><ele>7.666666666666666</ele><time>2026-05-05T14:31:04.259Z</time></trkpt><trkpt lat="45.3528401" lon="11.9333508"><ele>8.0</ele><time>2026-05-05T14:31:05.259Z</time></trkpt><trkpt lat="45.3527707" lon="11.9330945"><ele>8.0</ele><time>2026-05-05T14:31:06.259Z</time></trkpt><trkpt lat="45.3527018" lon="11.9328335"><ele>8.0</ele><time>2026-05-05T14:31:07.258Z</time></trkpt><trkpt lat="45.3526322" lon="11.9325688"><ele>8.0</ele><time>2026-05-05T14:31:08.259Z</time></trkpt><trkpt lat="45.352562" lon="11.9323071"><ele>8.0</ele><time>2026-05-05T14:31:09.259Z</time></trkpt><trkpt lat="45.3524958" lon="11.9320459"><ele>8.0</ele><time>2026-05-05T14:31:10.259Z</time></trkpt><trkpt lat="45.3524249" lon="11.9317761"><ele>8.0</ele><time>2026-05-05T14:31:11.259Z</time></trkpt><trkpt lat="45.3523697" lon="11.931528"><ele>8.0</ele><time>2026-05-05T14:31:12.258Z</time></trkpt><trkpt lat="45.352302" lon="11.9312602"><ele>8.0</ele><time>2026-05-05T14:31:13.259Z</time></trkpt><trkpt lat="45.3522382" lon="11.931001"><ele>8.0</ele><time>2026-05-05T14:31:14.259Z</time></trkpt><trkpt lat="45.3521694" lon="11.930735"><ele>8.0</ele><time>2026-05-05T14:31:15.259Z</time></trkpt><trkpt lat="45.3520951" lon="11.9304617"><ele>8.0</ele><time>2026-05-05T14:31:16.259Z</time></trkpt><trkpt lat="45.3520152" lon="11.930191"><ele>8.0</ele><time>2026-05-05T14:31:17.258Z</time></trkpt><trkpt lat="45.3519355" lon="11.9299202"><ele>7.666666666666666</ele><time>2026-05-05T14:31:18.259Z</time></trkpt><trkpt lat="45.3518583" lon="11.9296491"><ele>7.333333333333334</ele><time>2026-05-05T14:31:19.259Z</time></trkpt><trkpt lat="45.3517778" lon="11.9293747"><ele>7.0</ele><time>2026-05-05T14:31:20.259Z</time></trkpt><trkpt lat="45.3517004" lon="11.929091"><ele>7.0</ele><time>2026-05-05T14:31:21.259Z</time></trkpt><trkpt lat="45.351627" lon="11.9288017"><ele>7.0</ele><time>2026-05-05T14:31:22.259Z</time></trkpt><trkpt lat="45.3515473" lon="11.9285094"><ele>7.0</ele><time>2026-05-05T14:31:23.258Z</time></trkpt><trkpt lat="45.3514692" lon="11.9282188"><ele>7.5</ele><time>2026-05-05T14:31:24.259Z</time></trkpt><trkpt lat="45.3513863" lon="11.9279145"><ele>8.0</ele><time>2026-05-05T14:31:25.258Z</time></trkpt><trkpt lat="45.3513005" lon="11.927593"><ele>6.5</ele><time>2026-05-05T14:31:26.258Z</time></trkpt><trkpt lat="45.3512154" lon="11.9272595"><ele>5.0</ele><time>2026-05-05T14:31:27.259Z</time></trkpt><trkpt lat="45.3511285" lon="11.9269249"><ele>5.0</ele><time>2026-05-05T14:31:28.258Z</time></trkpt><trkpt lat="45.35104" lon="11.9265936"><ele>5.0</ele><time>2026-05-05T14:31:29.258Z</time></trkpt><trkpt lat="45.3509579" lon="11.9262668"><ele>5.0</ele><time>2026-05-05T14:31:30.259Z</time></trkpt><trkpt lat="45.3508741" lon="11.9259506"><ele>5.0</ele><time>2026-05-05T14:31:31.259Z</time></trkpt><trkpt lat="45.3507935" lon="11.9256311"><ele>5.0</ele><time>2026-05-05T14:31:32.258Z</time></trkpt><trkpt lat="45.3507119" lon="11.9253078"><ele>5.0</ele><time>2026-05-05T14:31:33.259Z</time></trkpt><trkpt lat="45.3506306" lon="11.9249848"><ele>4.5</ele><time>2026-05-05T14:31:34.258Z</time></trkpt><trkpt lat="45.350545" lon="11.9246577"><ele>4.0</ele><time>2026-05-05T14:31:35.259Z</time></trkpt><trkpt lat="45.3504652" lon="11.9243418"><ele>4.0</ele><time>2026-05-05T14:31:36.258Z</time></trkpt><trkpt lat="45.3503867" lon="11.9240364"><ele>4.0</ele><time>2026-05-05T14:31:37.258Z</time></trkpt><trkpt lat="45.3503027" lon="11.9237107"><ele>4.5</ele><time>2026-05-05T14:31:38.258Z</time></trkpt><trkpt lat="45.3502218" lon="11.9233927"><ele>5.0</ele><time>2026-05-05T14:31:39.259Z</time></trkpt><trkpt lat="45.3501416" lon="11.9230934"><ele>5.0</ele><time>2026-05-05T14:31:40.259Z</time></trkpt><trkpt lat="45.3500635" lon="11.9227856"><ele>5.0</ele><time>2026-05-05T14:31:41.258Z</time></trkpt><trkpt lat="45.3499836" lon="11.9224795"><ele>4.5</ele><time>2026-05-05T14:31:42.259Z</time></trkpt><trkpt lat="45.3499022" lon="11.9221817"><ele>4.0</ele><time>2026-05-05T14:31:43.259Z</time></trkpt><trkpt lat="45.3498233" lon="11.921879"><ele>4.5</ele><time>2026-05-05T14:31:44.259Z</time></trkpt><trkpt lat="45.3497491" lon="11.9215667"><ele>5.0</ele><time>2026-05-05T14:31:45.259Z</time></trkpt><trkpt lat="45.3496689" lon="11.9212704"><ele>5.0</ele><time>2026-05-05T14:31:46.259Z</time></trkpt><trkpt lat="45.3495919" lon="11.9209702"><ele>5.0</ele><time>2026-05-05T14:31:47.259Z</time></trkpt><trkpt lat="45.3495147" lon="11.9206612"><ele>6.0</ele><time>2026-05-05T14:31:48.258Z</time></trkpt><trkpt lat="45.3494361" lon="11.9203427"><ele>7.0</ele><time>2026-05-05T14:31:49.259Z</time></trkpt><trkpt lat="45.3493549" lon="11.9200266"><ele>7.0</ele><time>2026-05-05T14:31:50.259Z</time></trkpt><trkpt lat="45.3492753" lon="11.9197125"><ele>7.0</ele><time>2026-05-05T14:31:51.259Z</time></trkpt><trkpt lat="45.349195" lon="11.9193936"><ele>7.0</ele><time>2026-05-05T14:31:52.258Z</time></trkpt><trkpt lat="45.3491138" lon="11.9190725"><ele>7.0</ele><time>2026-05-05T14:31:53.258Z</time></trkpt><trkpt lat="45.3490306" lon="11.9187477"><ele>7.0</ele><time>2026-05-05T14:31:54.258Z</time></trkpt><trkpt lat="45.3489452" lon="11.9184308"><ele>7.0</ele><time>2026-05-05T14:31:55.258Z</time></trkpt><trkpt lat="45.3488613" lon="11.9181161"><ele>5.5</ele><time>2026-05-05T14:31:56.259Z</time></trkpt><trkpt lat="45.34878" lon="11.9177976"><ele>4.0</ele><time>2026-05-05T14:31:57.259Z</time></trkpt><trkpt lat="45.3487014" lon="11.917479"><ele>4.0</ele><time>2026-05-05T14:31:58.258Z</time></trkpt><trkpt lat="45.3486229" lon="11.9171723"><ele>4.0</ele><time>2026-05-05T14:31:59.259Z</time></trkpt><trkpt lat="45.3485426" lon="11.9168697"><ele>4.333333333333333</ele><time>2026-05-05T14:32:00.258Z</time></trkpt><trkpt lat="45.3484637" lon="11.9165701"><ele>4.666666666666667</ele><time>2026-05-05T14:32:01.259Z</time></trkpt><trkpt lat="45.3483847" lon="11.9162746"><ele>5.0</ele><time>2026-05-05T14:32:02.259Z</time></trkpt><trkpt lat="45.3483051" lon="11.9159785"><ele>5.5</ele><time>2026-05-05T14:32:03.258Z</time></trkpt><trkpt lat="45.3482298" lon="11.9156705"><ele>6.0</ele><time>2026-05-05T14:32:04.259Z</time></trkpt><trkpt lat="45.3481482" lon="11.9153624"><ele>6.5</ele><time>2026-05-05T14:32:05.259Z</time></trkpt><trkpt lat="45.3480698" lon="11.9150494"><ele>7.0</ele><time>2026-05-05T14:32:06.258Z</time></trkpt><trkpt lat="45.347988" lon="11.91474"><ele>6.5</ele><time>2026-05-05T14:32:07.259Z</time></trkpt><trkpt lat="45.3479053" lon="11.9144228"><ele>6.0</ele><time>2026-05-05T14:32:08.258Z</time></trkpt><trkpt lat="45.3478208" lon="11.9141059"><ele>6.0</ele><time>2026-05-05T14:32:09.259Z</time></trkpt><trkpt lat="45.347738" lon="11.9137925"><ele>6.0</ele><time>2026-05-05T14:32:10.259Z</time></trkpt><trkpt lat="45.3476553" lon="11.9134732"><ele>6.5</ele><time>2026-05-05T14:32:11.259Z</time></trkpt><trkpt lat="45.3475744" lon="11.9131522"><ele>7.0</ele><time>2026-05-05T14:32:12.258Z</time></trkpt><trkpt lat="45.3474934" lon="11.9128294"><ele>7.0</ele><time>2026-05-05T14:32:13.258Z</time></trkpt><trkpt lat="45.3474102" lon="11.9125084"><ele>7.0</ele><time>2026-05-05T14:32:14.259Z</time></trkpt><trkpt lat="45.3473303" lon="11.912182"><ele>7.0</ele><time>2026-05-05T14:32:15.258Z</time></trkpt><trkpt lat="45.3472465" lon="11.9118706"><ele>7.0</ele><time>2026-05-05T14:32:16.258Z</time></trkpt><trkpt lat="45.3471553" lon="11.9115472"><ele>8.0</ele><time>2026-05-05T14:32:17.259Z</time></trkpt><trkpt lat="45.3470716" lon="11.9112306"><ele>9.0</ele><time>2026-05-05T14:32:18.258Z</time></trkpt><trkpt lat="45.346987" lon="11.9109069"><ele>9.5</ele><time>2026-05-05T14:32:19.258Z</time></trkpt><trkpt lat="45.3469052" lon="11.9105838"><ele>10.0</ele><time>2026-05-05T14:32:20.258Z</time></trkpt><trkpt lat="45.3468216" lon="11.9102611"><ele>8.5</ele><time>2026-05-05T14:32:21.258Z</time></trkpt><trkpt lat="45.346738" lon="11.909929"><ele>7.0</ele><time>2026-05-05T14:32:22.258Z</time></trkpt><trkpt lat="45.346651" lon="11.9095956"><ele>7.0</ele><time>2026-05-05T14:32:23.258Z</time></trkpt><trkpt lat="45.3465665" lon="11.909259"><ele>7.0</ele><time>2026-05-05T14:32:24.259Z</time></trkpt><trkpt lat="45.3464769" lon="11.908917"><ele>6.5</ele><time>2026-05-05T14:32:25.259Z</time></trkpt><trkpt lat="45.3463889" lon="11.9085706"><ele>6.0</ele><time>2026-05-05T14:32:26.259Z</time></trkpt><trkpt lat="45.3463065" lon="11.9082256"><ele>5.5</ele><time>2026-05-05T14:32:27.258Z</time></trkpt><trkpt lat="45.3462235" lon="11.9078845"><ele>5.0</ele><time>2026-05-05T14:32:28.259Z</time></trkpt><trkpt lat="45.3461406" lon="11.907548"><ele>7.0</ele><time>2026-05-05T14:32:29.259Z</time></trkpt><trkpt lat="45.3460676" lon="11.9072159"><ele>9.0</ele><time>2026-05-05T14:32:30.258Z</time></trkpt><trkpt lat="45.3459918" lon="11.9068989"><ele>9.5</ele><time>2026-05-05T14:32:31.259Z</time></trkpt><trkpt lat="45.3459242" lon="11.9065749"><ele>10.0</ele><time>2026-05-05T14:32:32.259Z</time></trkpt><trkpt lat="45.3458567" lon="11.9062565"><ele>10.0</ele><time>2026-05-05T14:32:33.259Z</time></trkpt><trkpt lat="45.3457939" lon="11.9059389"><ele>10.0</ele><time>2026-05-05T14:32:34.259Z</time></trkpt><trkpt lat="45.3457371" lon="11.9056273"><ele>8.0</ele><time>2026-05-05T14:32:35.258Z</time></trkpt><trkpt lat="45.3456781" lon="11.905307"><ele>6.0</ele><time>2026-05-05T14:32:36.259Z</time></trkpt><trkpt lat="45.3456208" lon="11.9049924"><ele>6.0</ele><time>2026-05-05T14:32:37.258Z</time></trkpt><trkpt lat="45.3455648" lon="11.9046815"><ele>6.0</ele><time>2026-05-05T14:32:38.258Z</time></trkpt><trkpt lat="45.3455103" lon="11.90436"><ele>6.0</ele><time>2026-05-05T14:32:39.259Z</time></trkpt><trkpt lat="45.3454587" lon="11.9040392"><ele>6.0</ele><time>2026-05-05T14:32:40.259Z</time></trkpt><trkpt lat="45.3454086" lon="11.9037186"><ele>6.5</ele><time>2026-05-05T14:32:41.258Z</time></trkpt><trkpt lat="45.345362" lon="11.9033906"><ele>7.0</ele><time>2026-05-05T14:32:42.259Z</time></trkpt><trkpt lat="45.3453143" lon="11.9030736"><ele>7.0</ele><time>2026-05-05T14:32:43.259Z</time></trkpt><trkpt lat="45.3452759" lon="11.9027572"><ele>7.0</ele><time>2026-05-05T14:32:44.259Z</time></trkpt><trkpt lat="45.3452255" lon="11.9024147"><ele>7.0</ele><time>2026-05-05T14:32:45.258Z</time></trkpt><trkpt lat="45.3451712" lon="11.902065"><ele>7.0</ele><time>2026-05-05T14:32:46.259Z</time></trkpt><trkpt lat="45.345119" lon="11.901724"><ele>7.5</ele><time>2026-05-05T14:32:47.259Z</time></trkpt><trkpt lat="45.3450679" lon="11.9013852"><ele>8.0</ele><time>2026-05-05T14:32:48.258Z</time></trkpt><trkpt lat="45.3450131" lon="11.9010596"><ele>8.0</ele><time>2026-05-05T14:32:49.259Z</time></trkpt><trkpt lat="45.3449637" lon="11.9007305"><ele>8.0</ele><time>2026-05-05T14:32:50.258Z</time></trkpt><trkpt lat="45.3449164" lon="11.9004058"><ele>7.5</ele><time>2026-05-05T14:32:51.259Z</time></trkpt><trkpt lat="45.3448689" lon="11.9000817"><ele>7.0</ele><time>2026-05-05T14:32:52.259Z</time></trkpt><trkpt lat="45.3448207" lon="11.8997645"><ele>7.0</ele><time>2026-05-05T14:32:53.258Z</time></trkpt><trkpt lat="45.3447732" lon="11.8994432"><ele>7.0</ele><time>2026-05-05T14:32:54.258Z</time></trkpt><trkpt lat="45.3447299" lon="11.8991324"><ele>6.5</ele><time>2026-05-05T14:32:55.259Z</time></trkpt><trkpt lat="45.3446864" lon="11.8988131"><ele>6.0</ele><time>2026-05-05T14:32:56.258Z</time></trkpt><trkpt lat="45.3446444" lon="11.8984955"><ele>6.333333333333334</ele><time>2026-05-05T14:32:57.258Z</time></trkpt><trkpt lat="45.3445982" lon="11.8981843"><ele>6.666666666666667</ele><time>2026-05-05T14:32:58.259Z</time></trkpt><trkpt lat="45.3445494" lon="11.8978744"><ele>7.0</ele><time>2026-05-05T14:32:59.259Z</time></trkpt><trkpt lat="45.3445019" lon="11.8975564"><ele>7.0</ele><time>2026-05-05T14:33:00.258Z</time></trkpt><trkpt lat="45.3444524" lon="11.897246"><ele>7.0</ele><time>2026-05-05T14:33:01.258Z</time></trkpt><trkpt lat="45.3444053" lon="11.8969362"><ele>7.0</ele><time>2026-05-05T14:33:02.258Z</time></trkpt><trkpt lat="45.3443602" lon="11.8966295"><ele>7.0</ele><time>2026-05-05T14:33:03.258Z</time></trkpt><trkpt lat="45.344317" lon="11.896325"><ele>7.0</ele><time>2026-05-05T14:33:04.259Z</time></trkpt><trkpt lat="45.34427" lon="11.8960243"><ele>7.0</ele><time>2026-05-05T14:33:05.258Z</time></trkpt><trkpt lat="45.3442219" lon="11.895721"><ele>7.0</ele><time>2026-05-05T14:33:06.259Z</time></trkpt><trkpt lat="45.344175" lon="11.8953955"><ele>7.0</ele><time>2026-05-05T14:33:07.258Z</time></trkpt><trkpt lat="45.3441207" lon="11.895055"><ele>7.0</ele><time>2026-05-05T14:33:08.258Z</time></trkpt><trkpt lat="45.3440687" lon="11.894701"><ele>7.0</ele><time>2026-05-05T14:33:09.259Z</time></trkpt><trkpt lat="45.3440132" lon="11.8943406"><ele>7.0</ele><time>2026-05-05T14:33:10.259Z</time></trkpt><trkpt lat="45.343964" lon="11.8939728"><ele>7.0</ele><time>2026-05-05T14:33:11.259Z</time></trkpt><trkpt lat="45.3439034" lon="11.8936089"><ele>6.5</ele><time>2026-05-05T14:33:12.258Z</time></trkpt><trkpt lat="45.3438453" lon="11.8932368"><ele>6.0</ele><time>2026-05-05T14:33:13.259Z</time></trkpt><trkpt lat="45.3437934" lon="11.892853"><ele>6.0</ele><time>2026-05-05T14:33:14.259Z</time></trkpt><trkpt lat="45.3437339" lon="11.8924538"><ele>6.0</ele><time>2026-05-05T14:33:15.258Z</time></trkpt><trkpt lat="45.3436757" lon="11.8920566"><ele>7.0</ele><time>2026-05-05T14:33:16.258Z</time></trkpt><trkpt lat="45.3436164" lon="11.8916558"><ele>8.0</ele><time>2026-05-05T14:33:17.259Z</time></trkpt><trkpt lat="45.3435633" lon="11.8912475"><ele>8.5</ele><time>2026-05-05T14:33:18.258Z</time></trkpt><trkpt lat="45.3435125" lon="11.8908446"><ele>9.0</ele><time>2026-05-05T14:33:19.258Z</time></trkpt><trkpt lat="45.3434569" lon="11.8904386"><ele>9.0</ele><time>2026-05-05T14:33:20.259Z</time></trkpt><trkpt lat="45.3433992" lon="11.8900403"><ele>9.0</ele><time>2026-05-05T14:33:21.259Z</time></trkpt><trkpt lat="45.3433437" lon="11.8896444"><ele>8.0</ele><time>2026-05-05T14:33:22.258Z</time></trkpt><trkpt lat="45.3432896" lon="11.889254"><ele>7.0</ele><time>2026-05-05T14:33:23.259Z</time></trkpt><trkpt lat="45.3432348" lon="11.8888659"><ele>7.0</ele><time>2026-05-05T14:33:24.259Z</time></trkpt><trkpt lat="45.3431832" lon="11.8884826"><ele>7.0</ele><time>2026-05-05T14:33:25.258Z</time></trkpt><trkpt lat="45.3431235" lon="11.8880986"><ele>7.0</ele><time>2026-05-05T14:33:26.259Z</time></trkpt><trkpt lat="45.3430658" lon="11.8877192"><ele>7.0</ele><time>2026-05-05T14:33:27.259Z</time></trkpt><trkpt lat="45.3430081" lon="11.8873486"><ele>7.0</ele><time>2026-05-05T14:33:28.258Z</time></trkpt><trkpt lat="45.3429526" lon="11.8869734"><ele>7.0</ele><time>2026-05-05T14:33:29.258Z</time></trkpt><trkpt lat="45.3428958" lon="11.8865915"><ele>7.0</ele><time>2026-05-05T14:33:30.259Z</time></trkpt><trkpt lat="45.3428397" lon="11.8861969"><ele>7.0</ele><time>2026-05-05T14:33:31.259Z</time></trkpt><trkpt lat="45.3427821" lon="11.8857945"><ele>7.0</ele><time>2026-05-05T14:33:32.259Z</time></trkpt><trkpt lat="45.3427208" lon="11.8853836"><ele>7.0</ele><time>2026-05-05T14:33:33.259Z</time></trkpt><trkpt lat="45.3426586" lon="11.8849687"><ele>7.0</ele><time>2026-05-05T14:33:34.259Z</time></trkpt><trkpt lat="45.3425966" lon="11.8845641"><ele>7.0</ele><time>2026-05-05T14:33:35.259Z</time></trkpt><trkpt lat="45.3425378" lon="11.8841581"><ele>7.0</ele><time>2026-05-05T14:33:36.259Z</time></trkpt><trkpt lat="45.3424733" lon="11.8837624"><ele>7.0</ele><time>2026-05-05T14:33:37.258Z</time></trkpt><trkpt lat="45.3424145" lon="11.8833607"><ele>8.5</ele><time>2026-05-05T14:33:38.258Z</time></trkpt><trkpt lat="45.34236" lon="11.8829611"><ele>10.0</ele><time>2026-05-05T14:33:39.258Z</time></trkpt><trkpt lat="45.3423001" lon="11.8825647"><ele>10.5</ele><time>2026-05-05T14:33:40.258Z</time></trkpt><trkpt lat="45.3422422" lon="11.8821715"><ele>11.0</ele><time>2026-05-05T14:33:41.258Z</time></trkpt><trkpt lat="45.342182" lon="11.8817791"><ele>10.0</ele><time>2026-05-05T14:33:42.259Z</time></trkpt><trkpt lat="45.3421163" lon="11.8813845"><ele>9.0</ele><time>2026-05-05T14:33:43.258Z</time></trkpt><trkpt lat="45.3420558" lon="11.8809819"><ele>9.0</ele><time>2026-05-05T14:33:44.259Z</time></trkpt><trkpt lat="45.3419968" lon="11.8805886"><ele>9.0</ele><time>2026-05-05T14:33:45.258Z</time></trkpt><trkpt lat="45.3419366" lon="11.8802146"><ele>9.0</ele><time>2026-05-05T14:33:46.258Z</time></trkpt><trkpt lat="45.3418806" lon="11.8798309"><ele>9.0</ele><time>2026-05-05T14:33:47.258Z</time></trkpt><trkpt lat="45.3418202" lon="11.8794532"><ele>9.5</ele><time>2026-05-05T14:33:48.258Z</time></trkpt><trkpt lat="45.3417616" lon="11.8790642"><ele>10.0</ele><time>2026-05-05T14:33:49.259Z</time></trkpt><trkpt lat="45.3417049" lon="11.8786788"><ele>10.0</ele><time>2026-05-05T14:33:50.259Z</time></trkpt><trkpt lat="45.3416501" lon="11.8782975"><ele>10.0</ele><time>2026-05-05T14:33:51.258Z</time></trkpt><trkpt lat="45.3415965" lon="11.8779184"><ele>8.5</ele><time>2026-05-05T14:33:52.259Z</time></trkpt><trkpt lat="45.3415435" lon="11.8775331"><ele>7.0</ele><time>2026-05-05T14:33:53.259Z</time></trkpt><trkpt lat="45.3414894" lon="11.8771503"><ele>7.5</ele><time>2026-05-05T14:33:54.258Z</time></trkpt><trkpt lat="45.3414346" lon="11.8767672"><ele>8.0</ele><time>2026-05-05T14:33:55.258Z</time></trkpt><trkpt lat="45.3413797" lon="11.8763847"><ele>9.0</ele><time>2026-05-05T14:33:56.258Z</time></trkpt><trkpt lat="45.3413271" lon="11.8760051"><ele>10.0</ele><time>2026-05-05T14:33:57.259Z</time></trkpt><trkpt lat="45.3412702" lon="11.8756282"><ele>10.0</ele><time>2026-05-05T14:33:58.259Z</time></trkpt><trkpt lat="45.3412134" lon="11.875247"><ele>10.0</ele><time>2026-05-05T14:33:59.259Z</time></trkpt><trkpt lat="45.3411542" lon="11.8748681"><ele>10.0</ele><time>2026-05-05T14:34:00.259Z</time></trkpt><trkpt lat="45.3410957" lon="11.8744922"><ele>10.0</ele><time>2026-05-05T14:34:01.259Z</time></trkpt><trkpt lat="45.3410439" lon="11.8741155"><ele>10.0</ele><time>2026-05-05T14:34:02.258Z</time></trkpt><trkpt lat="45.3409877" lon="11.8737385"><ele>10.0</ele><time>2026-05-05T14:34:03.259Z</time></trkpt><trkpt lat="45.3409323" lon="11.8733549"><ele>10.0</ele><time>2026-05-05T14:34:04.259Z</time></trkpt><trkpt lat="45.3408734" lon="11.8729666"><ele>10.0</ele><time>2026-05-05T14:34:05.258Z</time></trkpt><trkpt lat="45.3408155" lon="11.8725711"><ele>10.0</ele><time>2026-05-05T14:34:06.259Z</time></trkpt><trkpt lat="45.3407631" lon="11.8721917"><ele>10.0</ele><time>2026-05-05T14:34:07.258Z</time></trkpt><trkpt lat="45.3407033" lon="11.8718064"><ele>10.0</ele><time>2026-05-05T14:34:08.259Z</time></trkpt><trkpt lat="45.3406456" lon="11.8714237"><ele>10.0</ele><time>2026-05-05T14:34:09.258Z</time></trkpt><trkpt lat="45.3405856" lon="11.8710351"><ele>10.0</ele><time>2026-05-05T14:34:10.258Z</time></trkpt><trkpt lat="45.3405261" lon="11.8706521"><ele>10.0</ele><time>2026-05-05T14:34:11.258Z</time></trkpt><trkpt lat="45.3404709" lon="11.870264"><ele>9.5</ele><time>2026-05-05T14:34:12.259Z</time></trkpt><trkpt lat="45.3404152" lon="11.8698796"><ele>9.0</ele><time>2026-05-05T14:34:13.259Z</time></trkpt><trkpt lat="45.340357" lon="11.8694916"><ele>8.5</ele><time>2026-05-05T14:34:14.259Z</time></trkpt><trkpt lat="45.3402941" lon="11.86911"><ele>8.0</ele><time>2026-05-05T14:34:15.258Z</time></trkpt><trkpt lat="45.3402264" lon="11.8687278"><ele>7.5</ele><time>2026-05-05T14:34:16.259Z</time></trkpt><trkpt lat="45.3401618" lon="11.8683362"><ele>7.0</ele><time>2026-05-05T14:34:17.259Z</time></trkpt><trkpt lat="45.3401032" lon="11.8679453"><ele>7.5</ele><time>2026-05-05T14:34:18.258Z</time></trkpt><trkpt lat="45.3400407" lon="11.8675754"><ele>8.0</ele><time>2026-05-05T14:34:19.259Z</time></trkpt><trkpt lat="45.3399863" lon="11.8671957"><ele>8.0</ele><time>2026-05-05T14:34:20.258Z</time></trkpt><trkpt lat="45.339927" lon="11.8668219"><ele>8.0</ele><time>2026-05-05T14:34:21.259Z</time></trkpt><trkpt lat="45.3398728" lon="11.8664468"><ele>8.5</ele><time>2026-05-05T14:34:22.259Z</time></trkpt><trkpt lat="45.3398184" lon="11.8660713"><ele>9.0</ele><time>2026-05-05T14:34:23.259Z</time></trkpt><trkpt lat="45.3397626" lon="11.8656916"><ele>9.0</ele><time>2026-05-05T14:34:24.259Z</time></trkpt><trkpt lat="45.3397067" lon="11.8653146"><ele>9.0</ele><time>2026-05-05T14:34:25.258Z</time></trkpt><trkpt lat="45.3396519" lon="11.8649437"><ele>9.0</ele><time>2026-05-05T14:34:26.259Z</time></trkpt><trkpt lat="45.3395979" lon="11.8645714"><ele>9.0</ele><time>2026-05-05T14:34:27.259Z</time></trkpt><trkpt lat="45.3395462" lon="11.8642026"><ele>9.0</ele><time>2026-05-05T14:34:28.259Z</time></trkpt><trkpt lat="45.3394997" lon="11.8638228"><ele>9.0</ele><time>2026-05-05T14:34:29.258Z</time></trkpt><trkpt lat="45.3394538" lon="11.863437"><ele>9.0</ele><time>2026-05-05T14:34:30.258Z</time></trkpt><trkpt lat="45.3394112" lon="11.863048"><ele>9.0</ele><time>2026-05-05T14:34:31.258Z</time></trkpt><trkpt lat="45.3393735" lon="11.8626515"><ele>7.5</ele><time>2026-05-05T14:34:32.258Z</time></trkpt><trkpt lat="45.3393461" lon="11.8622583"><ele>6.0</ele><time>2026-05-05T14:34:33.259Z</time></trkpt><trkpt lat="45.339312" lon="11.8618582"><ele>6.0</ele><time>2026-05-05T14:34:34.259Z</time></trkpt><trkpt lat="45.3392859" lon="11.8614546"><ele>6.0</ele><time>2026-05-05T14:34:35.258Z</time></trkpt><trkpt lat="45.3392663" lon="11.8610574"><ele>6.5</ele><time>2026-05-05T14:34:36.259Z</time></trkpt><trkpt lat="45.3392462" lon="11.8606568"><ele>7.0</ele><time>2026-05-05T14:34:37.259Z</time></trkpt><trkpt lat="45.3392246" lon="11.8602437"><ele>7.0</ele><time>2026-05-05T14:34:38.259Z</time></trkpt><trkpt lat="45.3392064" lon="11.8598311"><ele>7.0</ele><time>2026-05-05T14:34:39.259Z</time></trkpt><trkpt lat="45.3391938" lon="11.8594087"><ele>8.0</ele><time>2026-05-05T14:34:40.259Z</time></trkpt><trkpt lat="45.3391932" lon="11.8590025"><ele>9.0</ele><time>2026-05-05T14:34:41.259Z</time></trkpt><trkpt lat="45.3391892" lon="11.8585832"><ele>9.0</ele><time>2026-05-05T14:34:42.259Z</time></trkpt><trkpt lat="45.3391861" lon="11.8581688"><ele>9.0</ele><time>2026-05-05T14:34:43.258Z</time></trkpt><trkpt lat="45.3391836" lon="11.857752"><ele>8.5</ele><time>2026-05-05T14:34:44.259Z</time></trkpt><trkpt lat="45.3391782" lon="11.8573314"><ele>8.0</ele><time>2026-05-05T14:34:45.259Z</time></trkpt><trkpt lat="45.3391715" lon="11.8569139"><ele>7.5</ele><time>2026-05-05T14:34:46.258Z</time></trkpt><trkpt lat="45.3391698" lon="11.8564998"><ele>7.0</ele><time>2026-05-05T14:34:47.259Z</time></trkpt><trkpt lat="45.3391669" lon="11.8560855"><ele>7.0</ele><time>2026-05-05T14:34:48.258Z</time></trkpt><trkpt lat="45.3391627" lon="11.855678"><ele>7.0</ele><time>2026-05-05T14:34:49.259Z</time></trkpt><trkpt lat="45.3391606" lon="11.8552796"><ele>6.5</ele><time>2026-05-05T14:34:50.259Z</time></trkpt><trkpt lat="45.3391543" lon="11.8548736"><ele>6.0</ele><time>2026-05-05T14:34:51.258Z</time></trkpt><trkpt lat="45.3391473" lon="11.8544658"><ele>6.5</ele><time>2026-05-05T14:34:52.259Z</time></trkpt><trkpt lat="45.3391527" lon="11.8540629"><ele>7.0</ele><time>2026-05-05T14:34:53.258Z</time></trkpt><trkpt lat="45.3391501" lon="11.8536423"><ele>6.5</ele><time>2026-05-05T14:34:54.259Z</time></trkpt><trkpt lat="45.3391421" lon="11.8532055"><ele>6.0</ele><time>2026-05-05T14:34:55.259Z</time></trkpt><trkpt lat="45.3391388" lon="11.8527635"><ele>7.5</ele><time>2026-05-05T14:34:56.259Z</time></trkpt><trkpt lat="45.3391355" lon="11.8523223"><ele>9.0</ele><time>2026-05-05T14:34:57.258Z</time></trkpt><trkpt lat="45.3391337" lon="11.85189"><ele>8.0</ele><time>2026-05-05T14:34:58.258Z</time></trkpt><trkpt lat="45.3391294" lon="11.8514574"><ele>7.0</ele><time>2026-05-05T14:34:59.258Z</time></trkpt><trkpt lat="45.3391236" lon="11.8510194"><ele>7.0</ele><time>2026-05-05T14:35:00.259Z</time></trkpt><trkpt lat="45.3391183" lon="11.8505776"><ele>7.0</ele><time>2026-05-05T14:35:01.259Z</time></trkpt><trkpt lat="45.3391069" lon="11.850151"><ele>7.5</ele><time>2026-05-05T14:35:02.259Z</time></trkpt><trkpt lat="45.3390961" lon="11.8497143"><ele>8.0</ele><time>2026-05-05T14:35:03.259Z</time></trkpt><trkpt lat="45.3390805" lon="11.8492879"><ele>8.0</ele><time>2026-05-05T14:35:04.259Z</time></trkpt><trkpt lat="45.339055" lon="11.8488459"><ele>8.0</ele><time>2026-05-05T14:35:05.259Z</time></trkpt><trkpt lat="45.3390176" lon="11.8483999"><ele>7.5</ele><time>2026-05-05T14:35:06.259Z</time></trkpt><trkpt lat="45.3389723" lon="11.8479548"><ele>7.0</ele><time>2026-05-05T14:35:07.258Z</time></trkpt><trkpt lat="45.3389052" lon="11.8475099"><ele>7.0</ele><time>2026-05-05T14:35:08.259Z</time></trkpt><trkpt lat="45.3388271" lon="11.8470717"><ele>7.0</ele><time>2026-05-05T14:35:09.258Z</time></trkpt><trkpt lat="45.3387374" lon="11.8466483"><ele>7.0</ele><time>2026-05-05T14:35:10.258Z</time></trkpt><trkpt lat="45.3386373" lon="11.8462307"><ele>7.0</ele><time>2026-05-05T14:35:11.259Z</time></trkpt><trkpt lat="45.3385289" lon="11.8458254"><ele>6.0</ele><time>2026-05-05T14:35:12.258Z</time></trkpt><trkpt lat="45.3384044" lon="11.8454223"><ele>5.0</ele><time>2026-05-05T14:35:13.258Z</time></trkpt><trkpt lat="45.3382732" lon="11.8450326"><ele>5.0</ele><time>2026-05-05T14:35:14.258Z</time></trkpt><trkpt lat="45.338132" lon="11.8446548"><ele>5.0</ele><time>2026-05-05T14:35:15.259Z</time></trkpt><trkpt lat="45.3379796" lon="11.8442798"><ele>5.0</ele><time>2026-05-05T14:35:16.259Z</time></trkpt><trkpt lat="45.3378157" lon="11.843916"><ele>5.0</ele><time>2026-05-05T14:35:17.259Z</time></trkpt><trkpt lat="45.3376401" lon="11.8435684"><ele>5.5</ele><time>2026-05-05T14:35:18.258Z</time></trkpt><trkpt lat="45.3374534" lon="11.8432387"><ele>6.0</ele><time>2026-05-05T14:35:19.258Z</time></trkpt><trkpt lat="45.3372614" lon="11.8429321"><ele>6.5</ele><time>2026-05-05T14:35:20.259Z</time></trkpt><trkpt lat="45.337063" lon="11.842638"><ele>7.0</ele><time>2026-05-05T14:35:21.258Z</time></trkpt><trkpt lat="45.3368617" lon="11.842363"><ele>7.0</ele><time>2026-05-05T14:35:22.258Z</time></trkpt><trkpt lat="45.3366547" lon="11.8420985"><ele>7.0</ele><time>2026-05-05T14:35:23.259Z</time></trkpt><trkpt lat="45.3364423" lon="11.8418453"><ele>7.0</ele><time>2026-05-05T14:35:24.258Z</time></trkpt><trkpt lat="45.3362249" lon="11.841607"><ele>7.0</ele><time>2026-05-05T14:35:25.258Z</time></trkpt><trkpt lat="45.3360043" lon="11.8413793"><ele>7.0</ele><time>2026-05-05T14:35:26.259Z</time></trkpt><trkpt lat="45.3357755" lon="11.8411712"><ele>7.0</ele><time>2026-05-05T14:35:27.258Z</time></trkpt><trkpt lat="45.3355499" lon="11.8409732"><ele>8.0</ele><time>2026-05-05T14:35:28.258Z</time></trkpt><trkpt lat="45.3353249" lon="11.8407795"><ele>9.0</ele><time>2026-05-05T14:35:29.259Z</time></trkpt><trkpt lat="45.3351065" lon="11.8405977"><ele>9.0</ele><time>2026-05-05T14:35:30.259Z</time></trkpt><trkpt lat="45.3348817" lon="11.8404218"><ele>9.0</ele><time>2026-05-05T14:35:31.259Z</time></trkpt><trkpt lat="45.3346563" lon="11.8402394"><ele>8.0</ele><time>2026-05-05T14:35:32.259Z</time></trkpt><trkpt lat="45.3344275" lon="11.8400576"><ele>7.0</ele><time>2026-05-05T14:35:33.258Z</time></trkpt><trkpt lat="45.3342027" lon="11.8398748"><ele>7.0</ele><time>2026-05-05T14:35:34.258Z</time></trkpt><trkpt lat="45.333978" lon="11.8397004"><ele>7.0</ele><time>2026-05-05T14:35:35.258Z</time></trkpt><trkpt lat="45.3337537" lon="11.839526"><ele>7.5</ele><time>2026-05-05T14:35:36.259Z</time></trkpt><trkpt lat="45.3335331" lon="11.8393479"><ele>8.0</ele><time>2026-05-05T14:35:37.259Z</time></trkpt><trkpt lat="45.3333142" lon="11.8391789"><ele>8.0</ele><time>2026-05-05T14:35:38.259Z</time></trkpt><trkpt lat="45.333105" lon="11.8390135"><ele>8.0</ele><time>2026-05-05T14:35:39.259Z</time></trkpt><trkpt lat="45.3328918" lon="11.8388348"><ele>7.0</ele><time>2026-05-05T14:35:40.259Z</time></trkpt><trkpt lat="45.3326767" lon="11.8386605"><ele>6.0</ele><time>2026-05-05T14:35:41.259Z</time></trkpt><trkpt lat="45.3324611" lon="11.8384934"><ele>5.5</ele><time>2026-05-05T14:35:42.259Z</time></trkpt><trkpt lat="45.3322556" lon="11.8383381"><ele>5.0</ele><time>2026-05-05T14:35:43.258Z</time></trkpt><trkpt lat="45.3320408" lon="11.8381779"><ele>5.0</ele><time>2026-05-05T14:35:44.259Z</time></trkpt><trkpt lat="45.3318378" lon="11.8380201"><ele>5.0</ele><time>2026-05-05T14:35:45.258Z</time></trkpt><trkpt lat="45.3316387" lon="11.8378673"><ele>5.0</ele><time>2026-05-05T14:35:46.258Z</time></trkpt><trkpt lat="45.331439" lon="11.8377087"><ele>5.0</ele><time>2026-05-05T14:35:47.259Z</time></trkpt><trkpt lat="45.3312393" lon="11.8375543"><ele>6.0</ele><time>2026-05-05T14:35:48.258Z</time></trkpt><trkpt lat="45.3310433" lon="11.8373977"><ele>7.0</ele><time>2026-05-05T14:35:49.259Z</time></trkpt><trkpt lat="45.3308471" lon="11.8372437"><ele>8.0</ele><time>2026-05-05T14:35:50.259Z</time></trkpt><trkpt lat="45.3306539" lon="11.837092"><ele>7.666666666666666</ele><time>2026-05-05T14:35:51.259Z</time></trkpt><trkpt lat="45.3304746" lon="11.8369414"><ele>7.333333333333334</ele><time>2026-05-05T14:35:52.259Z</time></trkpt><trkpt lat="45.3302835" lon="11.8367916"><ele>7.0</ele><time>2026-05-05T14:35:53.258Z</time></trkpt><trkpt lat="45.3300891" lon="11.8366333"><ele>7.0</ele><time>2026-05-05T14:35:54.258Z</time></trkpt><trkpt lat="45.3298927" lon="11.8364778"><ele>7.0</ele><time>2026-05-05T14:35:55.259Z</time></trkpt><trkpt lat="45.3296966" lon="11.8363261"><ele>7.0</ele><time>2026-05-05T14:35:56.259Z</time></trkpt><trkpt lat="45.329495" lon="11.8361659"><ele>7.0</ele><time>2026-05-05T14:35:57.258Z</time></trkpt><trkpt lat="45.3292942" lon="11.8360028"><ele>7.0</ele><time>2026-05-05T14:35:58.258Z</time></trkpt><trkpt lat="45.3290909" lon="11.8358459"><ele>7.5</ele><time>2026-05-05T14:35:59.259Z</time></trkpt><trkpt lat="45.3288873" lon="11.8356822"><ele>8.0</ele><time>2026-05-05T14:36:00.258Z</time></trkpt><trkpt lat="45.3286825" lon="11.8355164"><ele>8.0</ele><time>2026-05-05T14:36:01.259Z</time></trkpt><trkpt lat="45.3284719" lon="11.8353579"><ele>8.0</ele><time>2026-05-05T14:36:02.258Z</time></trkpt><trkpt lat="45.3282633" lon="11.835195"><ele>8.0</ele><time>2026-05-05T14:36:03.259Z</time></trkpt><trkpt lat="45.3280535" lon="11.8350329"><ele>8.0</ele><time>2026-05-05T14:36:04.258Z</time></trkpt><trkpt lat="45.3278462" lon="11.8348643"><ele>8.0</ele><time>2026-05-05T14:36:05.259Z</time></trkpt><trkpt lat="45.3276363" lon="11.8346959"><ele>8.0</ele><time>2026-05-05T14:36:06.258Z</time></trkpt><trkpt lat="45.3274289" lon="11.8345308"><ele>7.5</ele><time>2026-05-05T14:36:07.259Z</time></trkpt><trkpt lat="45.3272188" lon="11.834362"><ele>7.0</ele><time>2026-05-05T14:36:08.259Z</time></trkpt><trkpt lat="45.3270038" lon="11.834203"><ele>7.0</ele><time>2026-05-05T14:36:09.259Z</time></trkpt><trkpt lat="45.3267874" lon="11.8340347"><ele>7.0</ele><time>2026-05-05T14:36:10.259Z</time></trkpt><trkpt lat="45.3265787" lon="11.8338705"><ele>8.0</ele><time>2026-05-05T14:36:11.258Z</time></trkpt><trkpt lat="45.3263585" lon="11.833693"><ele>9.0</ele><time>2026-05-05T14:36:12.259Z</time></trkpt><trkpt lat="45.3261398" lon="11.833519"><ele>8.5</ele><time>2026-05-05T14:36:13.259Z</time></trkpt><trkpt lat="45.325919" lon="11.8333401"><ele>8.0</ele><time>2026-05-05T14:36:14.259Z</time></trkpt><trkpt lat="45.3256957" lon="11.8331587"><ele>8.0</ele><time>2026-05-05T14:36:15.259Z</time></trkpt><trkpt lat="45.3254692" lon="11.8329786"><ele>8.0</ele><time>2026-05-05T14:36:16.258Z</time></trkpt><trkpt lat="45.3252446" lon="11.8328079"><ele>8.0</ele><time>2026-05-05T14:36:17.259Z</time></trkpt><trkpt lat="45.3250261" lon="11.8326414"><ele>8.0</ele><time>2026-05-05T14:36:18.258Z</time></trkpt><trkpt lat="45.3248079" lon="11.832472"><ele>8.0</ele><time>2026-05-05T14:36:19.258Z</time></trkpt><trkpt lat="45.3245906" lon="11.8322977"><ele>8.0</ele><time>2026-05-05T14:36:20.258Z</time></trkpt><trkpt lat="45.3243795" lon="11.8321323"><ele>8.0</ele><time>2026-05-05T14:36:21.259Z</time></trkpt><trkpt lat="45.3241671" lon="11.8319791"><ele>8.0</ele><time>2026-05-05T14:36:22.259Z</time></trkpt><trkpt lat="45.323955" lon="11.831818"><ele>8.5</ele><time>2026-05-05T14:36:23.259Z</time></trkpt><trkpt lat="45.323736" lon="11.8316675"><ele>9.0</ele><time>2026-05-05T14:36:24.258Z</time></trkpt><trkpt lat="45.3235139" lon="11.831508"><ele>9.0</ele><time>2026-05-05T14:36:25.259Z</time></trkpt><trkpt lat="45.3232881" lon="11.8313528"><ele>9.0</ele><time>2026-05-05T14:36:26.258Z</time></trkpt><trkpt lat="45.3230594" lon="11.8311939"><ele>8.0</ele><time>2026-05-05T14:36:27.258Z</time></trkpt><trkpt lat="45.3228338" lon="11.8310308"><ele>7.0</ele><time>2026-05-05T14:36:28.259Z</time></trkpt><trkpt lat="45.322598" lon="11.8308769"><ele>7.0</ele><time>2026-05-05T14:36:29.259Z</time></trkpt><trkpt lat="45.3223697" lon="11.8307166"><ele>7.0</ele><time>2026-05-05T14:36:30.259Z</time></trkpt><trkpt lat="45.3221379" lon="11.8305604"><ele>7.0</ele><time>2026-05-05T14:36:31.258Z</time></trkpt><trkpt lat="45.3219149" lon="11.8304121"><ele>7.0</ele><time>2026-05-05T14:36:32.259Z</time></trkpt><trkpt lat="45.3216894" lon="11.8302513"><ele>7.0</ele><time>2026-05-05T14:36:33.258Z</time></trkpt><trkpt lat="45.3214668" lon="11.8301005"><ele>7.0</ele><time>2026-05-05T14:36:34.259Z</time></trkpt><trkpt lat="45.3212372" lon="11.8299492"><ele>8.0</ele><time>2026-05-05T14:36:35.259Z</time></trkpt><trkpt lat="45.3210065" lon="11.8297976"><ele>9.0</ele><time>2026-05-05T14:36:36.259Z</time></trkpt><trkpt lat="45.3207858" lon="11.8296443"><ele>7.5</ele><time>2026-05-05T14:36:37.259Z</time></trkpt><trkpt lat="45.3205564" lon="11.8294843"><ele>6.0</ele><time>2026-05-05T14:36:38.258Z</time></trkpt><trkpt lat="45.3203265" lon="11.8293242"><ele>6.5</ele><time>2026-05-05T14:36:39.259Z</time></trkpt><trkpt lat="45.3200958" lon="11.8291666"><ele>7.0</ele><time>2026-05-05T14:36:40.259Z</time></trkpt><trkpt lat="45.3198686" lon="11.8290122"><ele>7.0</ele><time>2026-05-05T14:36:41.259Z</time></trkpt><trkpt lat="45.3196343" lon="11.82886"><ele>7.0</ele><time>2026-05-05T14:36:42.258Z</time></trkpt><trkpt lat="45.3194037" lon="11.8287031"><ele>7.0</ele><time>2026-05-05T14:36:43.259Z</time></trkpt><trkpt lat="45.3191729" lon="11.8285455"><ele>7.0</ele><time>2026-05-05T14:36:44.259Z</time></trkpt><trkpt lat="45.3189423" lon="11.8283872"><ele>6.5</ele><time>2026-05-05T14:36:45.259Z</time></trkpt><trkpt lat="45.3187121" lon="11.8282315"><ele>6.0</ele><time>2026-05-05T14:36:46.259Z</time></trkpt><trkpt lat="45.3184783" lon="11.8280742"><ele>6.0</ele><time>2026-05-05T14:36:47.259Z</time></trkpt><trkpt lat="45.3182419" lon="11.8279137"><ele>6.0</ele><time>2026-05-05T14:36:48.258Z</time></trkpt><trkpt lat="45.3180015" lon="11.8277515"><ele>6.5</ele><time>2026-05-05T14:36:49.259Z</time></trkpt><trkpt lat="45.3177586" lon="11.8275828"><ele>7.0</ele><time>2026-05-05T14:36:50.259Z</time></trkpt><trkpt lat="45.3175178" lon="11.8274111"><ele>7.0</ele><time>2026-05-05T14:36:51.259Z</time></trkpt><trkpt lat="45.3172769" lon="11.8272461"><ele>7.0</ele><time>2026-05-05T14:36:52.259Z</time></trkpt><trkpt lat="45.3170368" lon="11.8270828"><ele>7.0</ele><time>2026-05-05T14:36:53.259Z</time></trkpt><trkpt lat="45.3167985" lon="11.8269287"><ele>7.0</ele><time>2026-05-05T14:36:54.258Z</time></trkpt><trkpt lat="45.3165658" lon="11.8267685"><ele>8.0</ele><time>2026-05-05T14:36:55.259Z</time></trkpt><trkpt lat="45.3163327" lon="11.8266021"><ele>9.0</ele><time>2026-05-05T14:36:56.259Z</time></trkpt><trkpt lat="45.3160998" lon="11.8264467"><ele>9.0</ele><time>2026-05-05T14:36:57.258Z</time></trkpt><trkpt lat="45.3158683" lon="11.8262925"><ele>9.0</ele><time>2026-05-05T14:36:58.259Z</time></trkpt><trkpt lat="45.3156417" lon="11.8261404"><ele>9.0</ele><time>2026-05-05T14:36:59.258Z</time></trkpt><trkpt lat="45.3154132" lon="11.825986"><ele>9.0</ele><time>2026-05-05T14:37:00.258Z</time></trkpt><trkpt lat="45.3151875" lon="11.8258357"><ele>8.5</ele><time>2026-05-05T14:37:01.259Z</time></trkpt><trkpt lat="45.3149619" lon="11.8256816"><ele>8.0</ele><time>2026-05-05T14:37:02.258Z</time></trkpt><trkpt lat="45.3147347" lon="11.8255304"><ele>7.0</ele><time>2026-05-05T14:37:03.258Z</time></trkpt><trkpt lat="45.3145099" lon="11.825379"><ele>6.0</ele><time>2026-05-05T14:37:04.259Z</time></trkpt><trkpt lat="45.3142827" lon="11.825225"><ele>6.0</ele><time>2026-05-05T14:37:05.259Z</time></trkpt><trkpt lat="45.3140611" lon="11.8250708"><ele>6.0</ele><time>2026-05-05T14:37:06.258Z</time></trkpt><trkpt lat="45.3138373" lon="11.8249148"><ele>5.5</ele><time>2026-05-05T14:37:07.259Z</time></trkpt><trkpt lat="45.3136104" lon="11.824763"><ele>5.0</ele><time>2026-05-05T14:37:08.258Z</time></trkpt><trkpt lat="45.313387" lon="11.8246067"><ele>5.0</ele><time>2026-05-05T14:37:09.259Z</time></trkpt><trkpt lat="45.3131644" lon="11.824454"><ele>5.0</ele><time>2026-05-05T14:37:10.258Z</time></trkpt><trkpt lat="45.3129304" lon="11.8243017"><ele>5.0</ele><time>2026-05-05T14:37:11.258Z</time></trkpt><trkpt lat="45.3127014" lon="11.8241435"><ele>5.0</ele><time>2026-05-05T14:37:12.259Z</time></trkpt><trkpt lat="45.3124731" lon="11.8239959"><ele>5.0</ele><time>2026-05-05T14:37:13.259Z</time></trkpt><trkpt lat="45.3122443" lon="11.823835"><ele>5.0</ele><time>2026-05-05T14:37:14.258Z</time></trkpt><trkpt lat="45.3120155" lon="11.8236875"><ele>5.5</ele><time>2026-05-05T14:37:15.259Z</time></trkpt><trkpt lat="45.3117821" lon="11.8235313"><ele>6.0</ele><time>2026-05-05T14:37:16.259Z</time></trkpt><trkpt lat="45.3115506" lon="11.8233769"><ele>7.5</ele><time>2026-05-05T14:37:17.258Z</time></trkpt><trkpt lat="45.31132" lon="11.8232222"><ele>9.0</ele><time>2026-05-05T14:37:18.259Z</time></trkpt><trkpt lat="45.3110827" lon="11.8230634"><ele>9.0</ele><time>2026-05-05T14:37:19.258Z</time></trkpt><trkpt lat="45.3108493" lon="11.8228992"><ele>9.0</ele><time>2026-05-05T14:37:20.259Z</time></trkpt><trkpt lat="45.310614" lon="11.8227355"><ele>7.5</ele><time>2026-05-05T14:37:21.259Z</time></trkpt><trkpt lat="45.3103779" lon="11.822567"><ele>6.0</ele><time>2026-05-05T14:37:22.259Z</time></trkpt><trkpt lat="45.3101447" lon="11.8224101"><ele>6.0</ele><time>2026-05-05T14:37:23.259Z</time></trkpt><trkpt lat="45.3099151" lon="11.8222594"><ele>6.0</ele><time>2026-05-05T14:37:24.258Z</time></trkpt><trkpt lat="45.3096774" lon="11.8221024"><ele>5.5</ele><time>2026-05-05T14:37:25.258Z</time></trkpt><trkpt lat="45.3094381" lon="11.821945"><ele>5.0</ele><time>2026-05-05T14:37:26.259Z</time></trkpt><trkpt lat="45.3091971" lon="11.8217846"><ele>5.0</ele><time>2026-05-05T14:37:27.259Z</time></trkpt><trkpt lat="45.3089553" lon="11.8216112"><ele>5.0</ele><time>2026-05-05T14:37:28.258Z</time></trkpt><trkpt lat="45.3087151" lon="11.8214283"><ele>5.0</ele><time>2026-05-05T14:37:29.259Z</time></trkpt><trkpt lat="45.3084694" lon="11.8212456"><ele>5.0</ele><time>2026-05-05T14:37:30.259Z</time></trkpt><trkpt lat="45.3082176" lon="11.8210598"><ele>5.5</ele><time>2026-05-05T14:37:31.258Z</time></trkpt><trkpt lat="45.3079541" lon="11.8208767"><ele>6.0</ele><time>2026-05-05T14:37:32.258Z</time></trkpt><trkpt lat="45.3076844" lon="11.8206931"><ele>6.0</ele><time>2026-05-05T14:37:33.258Z</time></trkpt><trkpt lat="45.3074165" lon="11.8205075"><ele>6.0</ele><time>2026-05-05T14:37:34.259Z</time></trkpt><trkpt lat="45.3071445" lon="11.820323"><ele>5.5</ele><time>2026-05-05T14:37:35.258Z</time></trkpt><trkpt lat="45.3068682" lon="11.8201355"><ele>5.0</ele><time>2026-05-05T14:37:36.259Z</time></trkpt><trkpt lat="45.3065937" lon="11.8199494"><ele>6.0</ele><time>2026-05-05T14:37:37.259Z</time></trkpt><trkpt lat="45.3063283" lon="11.8197524"><ele>7.0</ele><time>2026-05-05T14:37:38.259Z</time></trkpt><trkpt lat="45.3060621" lon="11.8195623"><ele>7.0</ele><time>2026-05-05T14:37:39.258Z</time></trkpt><trkpt lat="45.3058068" lon="11.8193647"><ele>7.0</ele><time>2026-05-05T14:37:40.259Z</time></trkpt><trkpt lat="45.3055463" lon="11.8191658"><ele>6.0</ele><time>2026-05-05T14:37:41.258Z</time></trkpt><trkpt lat="45.3052858" lon="11.8189584"><ele>5.0</ele><time>2026-05-05T14:37:42.259Z</time></trkpt><trkpt lat="45.3050296" lon="11.8187495"><ele>5.0</ele><time>2026-05-05T14:37:43.258Z</time></trkpt><trkpt lat="45.3047796" lon="11.8185344"><ele>5.0</ele><time>2026-05-05T14:37:44.259Z</time></trkpt><trkpt lat="45.3045321" lon="11.8183074"><ele>6.5</ele><time>2026-05-05T14:37:45.259Z</time></trkpt><trkpt lat="45.3042902" lon="11.818079"><ele>8.0</ele><time>2026-05-05T14:37:46.259Z</time></trkpt><trkpt lat="45.3040609" lon="11.8178467"><ele>8.0</ele><time>2026-05-05T14:37:47.259Z</time></trkpt><trkpt lat="45.3038353" lon="11.817615"><ele>8.0</ele><time>2026-05-05T14:37:48.259Z</time></trkpt><trkpt lat="45.3036156" lon="11.8173845"><ele>8.0</ele><time>2026-05-05T14:37:49.259Z</time></trkpt><trkpt lat="45.3034072" lon="11.8171559"><ele>8.0</ele><time>2026-05-05T14:37:50.259Z</time></trkpt><trkpt lat="45.303191" lon="11.8169165"><ele>7.0</ele><time>2026-05-05T14:37:51.258Z</time></trkpt><trkpt lat="45.3029772" lon="11.8166714"><ele>6.0</ele><time>2026-05-05T14:37:52.259Z</time></trkpt><trkpt lat="45.3027668" lon="11.8164234"><ele>6.0</ele><time>2026-05-05T14:37:53.259Z</time></trkpt><trkpt lat="45.3025625" lon="11.8161742"><ele>6.0</ele><time>2026-05-05T14:37:54.258Z</time></trkpt><trkpt lat="45.3023623" lon="11.8159271"><ele>6.5</ele><time>2026-05-05T14:37:55.259Z</time></trkpt><trkpt lat="45.3021552" lon="11.8156715"><ele>7.0</ele><time>2026-05-05T14:37:56.258Z</time></trkpt><trkpt lat="45.301952" lon="11.8154159"><ele>7.0</ele><time>2026-05-05T14:37:57.258Z</time></trkpt><trkpt lat="45.301738" lon="11.8151656"><ele>7.0</ele><time>2026-05-05T14:37:58.259Z</time></trkpt><trkpt lat="45.3015269" lon="11.814908"><ele>7.5</ele><time>2026-05-05T14:37:59.259Z</time></trkpt><trkpt lat="45.3013138" lon="11.8146483"><ele>8.0</ele><time>2026-05-05T14:38:00.259Z</time></trkpt><trkpt lat="45.3011082" lon="11.8143993"><ele>7.0</ele><time>2026-05-05T14:38:01.258Z</time></trkpt><trkpt lat="45.3008948" lon="11.8141363"><ele>6.0</ele><time>2026-05-05T14:38:02.259Z</time></trkpt><trkpt lat="45.3006826" lon="11.8138782"><ele>5.5</ele><time>2026-05-05T14:38:03.259Z</time></trkpt><trkpt lat="45.3004697" lon="11.8136138"><ele>5.0</ele><time>2026-05-05T14:38:04.259Z</time></trkpt><trkpt lat="45.300258" lon="11.813353"><ele>4.5</ele><time>2026-05-05T14:38:05.259Z</time></trkpt><trkpt lat="45.3000405" lon="11.8130982"><ele>4.0</ele><time>2026-05-05T14:38:06.258Z</time></trkpt><trkpt lat="45.2998372" lon="11.8128466"><ele>4.0</ele><time>2026-05-05T14:38:07.258Z</time></trkpt><trkpt lat="45.2996256" lon="11.8125862"><ele>4.0</ele><time>2026-05-05T14:38:08.259Z</time></trkpt><trkpt lat="45.2994148" lon="11.812324"><ele>4.0</ele><time>2026-05-05T14:38:09.259Z</time></trkpt><trkpt lat="45.299201" lon="11.8120523"><ele>4.0</ele><time>2026-05-05T14:38:10.259Z</time></trkpt><trkpt lat="45.2990054" lon="11.8117943"><ele>4.0</ele><time>2026-05-05T14:38:11.259Z</time></trkpt><trkpt lat="45.2988041" lon="11.8115439"><ele>4.0</ele><time>2026-05-05T14:38:12.259Z</time></trkpt><trkpt lat="45.2986081" lon="11.8113006"><ele>4.0</ele><time>2026-05-05T14:38:13.259Z</time></trkpt><trkpt lat="45.2984036" lon="11.8110535"><ele>4.0</ele><time>2026-05-05T14:38:14.259Z</time></trkpt><trkpt lat="45.298203" lon="11.8108117"><ele>4.5</ele><time>2026-05-05T14:38:15.259Z</time></trkpt><trkpt lat="45.2980044" lon="11.81057"><ele>5.0</ele><time>2026-05-05T14:38:16.258Z</time></trkpt><trkpt lat="45.2978088" lon="11.8103304"><ele>5.5</ele><time>2026-05-05T14:38:17.259Z</time></trkpt><trkpt lat="45.2976111" lon="11.8100923"><ele>6.0</ele><time>2026-05-05T14:38:18.259Z</time></trkpt><trkpt lat="45.2974161" lon="11.8098679"><ele>6.0</ele><time>2026-05-05T14:38:19.259Z</time></trkpt><trkpt lat="45.2972217" lon="11.809628"><ele>6.0</ele><time>2026-05-05T14:38:20.259Z</time></trkpt><trkpt lat="45.2970285" lon="11.8093932"><ele>4.5</ele><time>2026-05-05T14:38:21.258Z</time></trkpt><trkpt lat="45.2968378" lon="11.8091704"><ele>3.0</ele><time>2026-05-05T14:38:22.258Z</time></trkpt><trkpt lat="45.2966533" lon="11.8089475"><ele>3.0</ele><time>2026-05-05T14:38:23.258Z</time></trkpt><trkpt lat="45.2964693" lon="11.8087244"><ele>3.0</ele><time>2026-05-05T14:38:24.258Z</time></trkpt><trkpt lat="45.2962852" lon="11.8084963"><ele>3.5</ele><time>2026-05-05T14:38:25.258Z</time></trkpt><trkpt lat="45.2961005" lon="11.8082812"><ele>4.0</ele><time>2026-05-05T14:38:26.259Z</time></trkpt><trkpt lat="45.2959178" lon="11.8080745"><ele>4.0</ele><time>2026-05-05T14:38:27.259Z</time></trkpt><trkpt lat="45.2957281" lon="11.8078561"><ele>4.0</ele><time>2026-05-05T14:38:28.258Z</time></trkpt><trkpt lat="45.2955297" lon="11.8076267"><ele>4.0</ele><time>2026-05-05T14:38:29.259Z</time></trkpt><trkpt lat="45.2953309" lon="11.8073957"><ele>4.0</ele><time>2026-05-05T14:38:30.259Z</time></trkpt><trkpt lat="45.2951391" lon="11.8071694"><ele>4.0</ele><time>2026-05-05T14:38:31.258Z</time></trkpt><trkpt lat="45.2949272" lon="11.8069236"><ele>4.0</ele><time>2026-05-05T14:38:32.258Z</time></trkpt><trkpt lat="45.2947234" lon="11.8066778"><ele>4.5</ele><time>2026-05-05T14:38:33.258Z</time></trkpt><trkpt lat="45.2945194" lon="11.806435"><ele>5.0</ele><time>2026-05-05T14:38:34.259Z</time></trkpt><trkpt lat="45.2943119" lon="11.8061928"><ele>5.0</ele><time>2026-05-05T14:38:35.259Z</time></trkpt><trkpt lat="45.2941004" lon="11.8059432"><ele>5.0</ele><time>2026-05-05T14:38:36.259Z</time></trkpt><trkpt lat="45.2938924" lon="11.80569"><ele>4.5</ele><time>2026-05-05T14:38:37.259Z</time></trkpt><trkpt lat="45.2936781" lon="11.8054364"><ele>4.0</ele><time>2026-05-05T14:38:38.259Z</time></trkpt><trkpt lat="45.2934706" lon="11.8051808"><ele>3.5</ele><time>2026-05-05T14:38:39.259Z</time></trkpt><trkpt lat="45.2932609" lon="11.8049192"><ele>3.0</ele><time>2026-05-05T14:38:40.259Z</time></trkpt><trkpt lat="45.2930552" lon="11.8046557"><ele>3.0</ele><time>2026-05-05T14:38:41.258Z</time></trkpt><trkpt lat="45.2928479" lon="11.8043882"><ele>3.0</ele><time>2026-05-05T14:38:42.258Z</time></trkpt><trkpt lat="45.2926405" lon="11.8041241"><ele>3.0</ele><time>2026-05-05T14:38:43.258Z</time></trkpt><trkpt lat="45.2924321" lon="11.8038605"><ele>3.0</ele><time>2026-05-05T14:38:44.259Z</time></trkpt><trkpt lat="45.2922217" lon="11.8036057"><ele>3.5</ele><time>2026-05-05T14:38:45.258Z</time></trkpt><trkpt lat="45.2920147" lon="11.8033502"><ele>4.0</ele><time>2026-05-05T14:38:46.259Z</time></trkpt><trkpt lat="45.2918049" lon="11.8030969"><ele>4.0</ele><time>2026-05-05T14:38:47.259Z</time></trkpt><trkpt lat="45.2915939" lon="11.8028439"><ele>4.0</ele><time>2026-05-05T14:38:48.259Z</time></trkpt><trkpt lat="45.291383" lon="11.8026002"><ele>4.5</ele><time>2026-05-05T14:38:49.259Z</time></trkpt><trkpt lat="45.291172" lon="11.802361"><ele>5.0</ele><time>2026-05-05T14:38:50.259Z</time></trkpt><trkpt lat="45.2909664" lon="11.8021194"><ele>5.0</ele><time>2026-05-05T14:38:51.259Z</time></trkpt><trkpt lat="45.2907686" lon="11.8018818"><ele>5.0</ele><time>2026-05-05T14:38:52.258Z</time></trkpt><trkpt lat="45.290566" lon="11.8016483"><ele>5.0</ele><time>2026-05-05T14:38:53.259Z</time></trkpt><trkpt lat="45.2903546" lon="11.8014196"><ele>5.0</ele><time>2026-05-05T14:38:54.259Z</time></trkpt><trkpt lat="45.290147" lon="11.8011927"><ele>4.5</ele><time>2026-05-05T14:38:55.258Z</time></trkpt><trkpt lat="45.2899362" lon="11.8009665"><ele>4.0</ele><time>2026-05-05T14:38:56.258Z</time></trkpt><trkpt lat="45.289724" lon="11.8007455"><ele>5.0</ele><time>2026-05-05T14:38:57.258Z</time></trkpt><trkpt lat="45.2895061" lon="11.8005216"><ele>6.0</ele><time>2026-05-05T14:38:58.258Z</time></trkpt><trkpt lat="45.2892895" lon="11.800305"><ele>6.0</ele><time>2026-05-05T14:38:59.259Z</time></trkpt><trkpt lat="45.2890661" lon="11.8001003"><ele>6.0</ele><time>2026-05-05T14:39:00.259Z</time></trkpt><trkpt lat="45.288849" lon="11.7998938"><ele>5.0</ele><time>2026-05-05T14:39:01.258Z</time></trkpt><trkpt lat="45.2886311" lon="11.7996913"><ele>4.0</ele><time>2026-05-05T14:39:02.258Z</time></trkpt><trkpt lat="45.2884125" lon="11.7994823"><ele>4.5</ele><time>2026-05-05T14:39:03.258Z</time></trkpt><trkpt lat="45.2881983" lon="11.7992847"><ele>5.0</ele><time>2026-05-05T14:39:04.259Z</time></trkpt><trkpt lat="45.2879851" lon="11.7990792"><ele>4.0</ele><time>2026-05-05T14:39:05.259Z</time></trkpt><trkpt lat="45.287772" lon="11.7988863"><ele>3.0</ele><time>2026-05-05T14:39:06.259Z</time></trkpt><trkpt lat="45.2875579" lon="11.7986905"><ele>3.5</ele><time>2026-05-05T14:39:07.258Z</time></trkpt><trkpt lat="45.2873521" lon="11.798501"><ele>4.0</ele><time>2026-05-05T14:39:08.259Z</time></trkpt><trkpt lat="45.2871416" lon="11.7983012"><ele>4.0</ele><time>2026-05-05T14:39:09.259Z</time></trkpt><trkpt lat="45.2869279" lon="11.7981015"><ele>4.0</ele><time>2026-05-05T14:39:10.259Z</time></trkpt><trkpt lat="45.286714" lon="11.7979017"><ele>4.0</ele><time>2026-05-05T14:39:11.259Z</time></trkpt><trkpt lat="45.2864984" lon="11.7977045"><ele>4.0</ele><time>2026-05-05T14:39:12.259Z</time></trkpt><trkpt lat="45.2862784" lon="11.7974984"><ele>4.5</ele><time>2026-05-05T14:39:13.258Z</time></trkpt><trkpt lat="45.2860607" lon="11.7973006"><ele>5.0</ele><time>2026-05-05T14:39:14.259Z</time></trkpt><trkpt lat="45.2858463" lon="11.797097"><ele>5.0</ele><time>2026-05-05T14:39:15.258Z</time></trkpt><trkpt lat="45.285622" lon="11.7968914"><ele>5.0</ele><time>2026-05-05T14:39:16.258Z</time></trkpt><trkpt lat="45.285398" lon="11.7966832"><ele>6.0</ele><time>2026-05-05T14:39:17.259Z</time></trkpt><trkpt lat="45.2851799" lon="11.7964725"><ele>7.0</ele><time>2026-05-05T14:39:18.258Z</time></trkpt><trkpt lat="45.2849594" lon="11.7962664"><ele>7.0</ele><time>2026-05-05T14:39:19.259Z</time></trkpt><trkpt lat="45.2847368" lon="11.7960536"><ele>7.0</ele><time>2026-05-05T14:39:20.258Z</time></trkpt><trkpt lat="45.2845163" lon="11.7958502"><ele>7.0</ele><time>2026-05-05T14:39:21.259Z</time></trkpt><trkpt lat="45.2842955" lon="11.7956397"><ele>7.0</ele><time>2026-05-05T14:39:22.259Z</time></trkpt><trkpt lat="45.2840722" lon="11.7954324"><ele>6.5</ele><time>2026-05-05T14:39:23.259Z</time></trkpt><trkpt lat="45.2838488" lon="11.7952292"><ele>6.0</ele><time>2026-05-05T14:39:24.259Z</time></trkpt><trkpt lat="45.2836252" lon="11.795023"><ele>5.5</ele><time>2026-05-05T14:39:25.259Z</time></trkpt><trkpt lat="45.2834042" lon="11.794827"><ele>5.0</ele><time>2026-05-05T14:39:26.259Z</time></trkpt><trkpt lat="45.2831849" lon="11.794629"><ele>4.5</ele><time>2026-05-05T14:39:27.259Z</time></trkpt><trkpt lat="45.2829651" lon="11.7944239"><ele>4.0</ele><time>2026-05-05T14:39:28.258Z</time></trkpt><trkpt lat="45.282744" lon="11.7942187"><ele>3.5</ele><time>2026-05-05T14:39:29.259Z</time></trkpt><trkpt lat="45.2825261" lon="11.7940078"><ele>3.0</ele><time>2026-05-05T14:39:30.259Z</time></trkpt><trkpt lat="45.2823118" lon="11.793808"><ele>3.0</ele><time>2026-05-05T14:39:31.258Z</time></trkpt><trkpt lat="45.2820959" lon="11.793605"><ele>3.0</ele><time>2026-05-05T14:39:32.258Z</time></trkpt><trkpt lat="45.2818749" lon="11.7934057"><ele>4.0</ele><time>2026-05-05T14:39:33.259Z</time></trkpt><trkpt lat="45.2816578" lon="11.7932011"><ele>5.0</ele><time>2026-05-05T14:39:34.259Z</time></trkpt><trkpt lat="45.2814409" lon="11.7929985"><ele>6.0</ele><time>2026-05-05T14:39:35.259Z</time></trkpt><trkpt lat="45.2812241" lon="11.7928005"><ele>7.0</ele><time>2026-05-05T14:39:36.259Z</time></trkpt><trkpt lat="45.2810149" lon="11.7926068"><ele>7.0</ele><time>2026-05-05T14:39:37.259Z</time></trkpt><trkpt lat="45.2808042" lon="11.7924113"><ele>7.0</ele><time>2026-05-05T14:39:38.259Z</time></trkpt><trkpt lat="45.2805924" lon="11.7922124"><ele>6.5</ele><time>2026-05-05T14:39:39.259Z</time></trkpt><trkpt lat="45.2803884" lon="11.7920189"><ele>6.0</ele><time>2026-05-05T14:39:40.259Z</time></trkpt><trkpt lat="45.2801816" lon="11.7918166"><ele>7.0</ele><time>2026-05-05T14:39:41.259Z</time></trkpt><trkpt lat="45.2799766" lon="11.7916248"><ele>8.0</ele><time>2026-05-05T14:39:42.258Z</time></trkpt><trkpt lat="45.279774" lon="11.7914373"><ele>6.5</ele><time>2026-05-05T14:39:43.259Z</time></trkpt><trkpt lat="45.2795661" lon="11.7912449"><ele>5.0</ele><time>2026-05-05T14:39:44.259Z</time></trkpt><trkpt lat="45.2793595" lon="11.7910523"><ele>6.5</ele><time>2026-05-05T14:39:45.259Z</time></trkpt><trkpt lat="45.2791516" lon="11.7908564"><ele>8.0</ele><time>2026-05-05T14:39:46.259Z</time></trkpt><trkpt lat="45.2789412" lon="11.7906627"><ele>7.5</ele><time>2026-05-05T14:39:47.259Z</time></trkpt><trkpt lat="45.2787291" lon="11.7904698"><ele>7.0</ele><time>2026-05-05T14:39:48.259Z</time></trkpt><trkpt lat="45.2785126" lon="11.7902711"><ele>6.0</ele><time>2026-05-05T14:39:49.258Z</time></trkpt><trkpt lat="45.2783011" lon="11.7900721"><ele>5.0</ele><time>2026-05-05T14:39:50.259Z</time></trkpt><trkpt lat="45.2780916" lon="11.7898874"><ele>4.5</ele><time>2026-05-05T14:39:51.259Z</time></trkpt><trkpt lat="45.2778804" lon="11.7896906"><ele>4.0</ele><time>2026-05-05T14:39:52.258Z</time></trkpt><trkpt lat="45.277666" lon="11.7894896"><ele>4.0</ele><time>2026-05-05T14:39:53.258Z</time></trkpt><trkpt lat="45.2774607" lon="11.7892935"><ele>4.0</ele><time>2026-05-05T14:39:54.259Z</time></trkpt><trkpt lat="45.2772551" lon="11.7891046"><ele>4.0</ele><time>2026-05-05T14:39:55.258Z</time></trkpt><trkpt lat="45.2770452" lon="11.7889051"><ele>4.0</ele><time>2026-05-05T14:39:56.259Z</time></trkpt><trkpt lat="45.2768283" lon="11.7887051"><ele>4.5</ele><time>2026-05-05T14:39:57.258Z</time></trkpt><trkpt lat="45.2766107" lon="11.7885081"><ele>5.0</ele><time>2026-05-05T14:39:58.258Z</time></trkpt><trkpt lat="45.2763884" lon="11.78831"><ele>5.0</ele><time>2026-05-05T14:39:59.258Z</time></trkpt><trkpt lat="45.2761613" lon="11.7881159"><ele>5.0</ele><time>2026-05-05T14:40:00.259Z</time></trkpt><trkpt lat="45.2759327" lon="11.7879068"><ele>5.0</ele><time>2026-05-05T14:40:01.258Z</time></trkpt><trkpt lat="45.2757024" lon="11.7877066"><ele>5.0</ele><time>2026-05-05T14:40:02.259Z</time></trkpt><trkpt lat="45.2754706" lon="11.7874964"><ele>4.5</ele><time>2026-05-05T14:40:03.258Z</time></trkpt><trkpt lat="45.2752497" lon="11.7872918"><ele>4.0</ele><time>2026-05-05T14:40:04.259Z</time></trkpt><trkpt lat="45.2750197" lon="11.787077"><ele>4.0</ele><time>2026-05-05T14:40:05.259Z</time></trkpt><trkpt lat="45.2747876" lon="11.7868603"><ele>4.0</ele><time>2026-05-05T14:40:06.258Z</time></trkpt><trkpt lat="45.2745533" lon="11.7866439"><ele>4.5</ele><time>2026-05-05T14:40:07.259Z</time></trkpt><trkpt lat="45.2743169" lon="11.7864291"><ele>5.0</ele><time>2026-05-05T14:40:08.259Z</time></trkpt><trkpt lat="45.2740827" lon="11.7862177"><ele>4.5</ele><time>2026-05-05T14:40:09.259Z</time></trkpt><trkpt lat="45.2738423" lon="11.786011"><ele>4.0</ele><time>2026-05-05T14:40:10.259Z</time></trkpt><trkpt lat="45.2735945" lon="11.7858064"><ele>4.0</ele><time>2026-05-05T14:40:11.258Z</time></trkpt><trkpt lat="45.2733469" lon="11.7856044"><ele>4.0</ele><time>2026-05-05T14:40:12.259Z</time></trkpt><trkpt lat="45.2730939" lon="11.7854053"><ele>3.5</ele><time>2026-05-05T14:40:13.258Z</time></trkpt><trkpt lat="45.2728395" lon="11.7852079"><ele>3.0</ele><time>2026-05-05T14:40:14.258Z</time></trkpt><trkpt lat="45.2725839" lon="11.7850178"><ele>3.0</ele><time>2026-05-05T14:40:15.258Z</time></trkpt><trkpt lat="45.2723284" lon="11.7848243"><ele>3.0</ele><time>2026-05-05T14:40:16.259Z</time></trkpt><trkpt lat="45.2720699" lon="11.7846439"><ele>3.5</ele><time>2026-05-05T14:40:17.259Z</time></trkpt><trkpt lat="45.271806" lon="11.7844715"><ele>4.0</ele><time>2026-05-05T14:40:18.259Z</time></trkpt><trkpt lat="45.2715434" lon="11.7843074"><ele>3.5</ele><time>2026-05-05T14:40:19.259Z</time></trkpt><trkpt lat="45.2712815" lon="11.7841386"><ele>3.0</ele><time>2026-05-05T14:40:20.259Z</time></trkpt><trkpt lat="45.2710172" lon="11.783978"><ele>3.0</ele><time>2026-05-05T14:40:21.259Z</time></trkpt><trkpt lat="45.2707565" lon="11.7838214"><ele>3.0</ele><time>2026-05-05T14:40:22.259Z</time></trkpt><trkpt lat="45.2704933" lon="11.7836715"><ele>3.5</ele><time>2026-05-05T14:40:23.258Z</time></trkpt><trkpt lat="45.2702311" lon="11.78353"><ele>4.0</ele><time>2026-05-05T14:40:24.259Z</time></trkpt><trkpt lat="45.2699663" lon="11.7833961"><ele>4.5</ele><time>2026-05-05T14:40:25.259Z</time></trkpt><trkpt lat="45.269703" lon="11.783265"><ele>5.0</ele><time>2026-05-05T14:40:26.259Z</time></trkpt><trkpt lat="45.2694429" lon="11.7831369"><ele>5.0</ele><time>2026-05-05T14:40:27.259Z</time></trkpt><trkpt lat="45.2691857" lon="11.7830035"><ele>5.0</ele><time>2026-05-05T14:40:28.259Z</time></trkpt><trkpt lat="45.2689295" lon="11.7828713"><ele>4.5</ele><time>2026-05-05T14:40:29.258Z</time></trkpt><trkpt lat="45.2686623" lon="11.7827401"><ele>4.0</ele><time>2026-05-05T14:40:30.259Z</time></trkpt><trkpt lat="45.2683906" lon="11.7825969"><ele>4.0</ele><time>2026-05-05T14:40:31.259Z</time></trkpt><trkpt lat="45.2681159" lon="11.7824561"><ele>4.0</ele><time>2026-05-05T14:40:32.258Z</time></trkpt><trkpt lat="45.267845" lon="11.782313"><ele>5.5</ele><time>2026-05-05T14:40:33.259Z</time></trkpt><trkpt lat="45.2675736" lon="11.7821745"><ele>7.0</ele><time>2026-05-05T14:40:34.259Z</time></trkpt><trkpt lat="45.2673002" lon="11.7820393"><ele>7.0</ele><time>2026-05-05T14:40:35.259Z</time></trkpt><trkpt lat="45.2670269" lon="11.7818978"><ele>7.0</ele><time>2026-05-05T14:40:36.258Z</time></trkpt><trkpt lat="45.2667557" lon="11.7817525"><ele>6.0</ele><time>2026-05-05T14:40:37.259Z</time></trkpt><trkpt lat="45.266481" lon="11.7816102"><ele>5.0</ele><time>2026-05-05T14:40:38.258Z</time></trkpt><trkpt lat="45.2662016" lon="11.7814654"><ele>4.5</ele><time>2026-05-05T14:40:39.258Z</time></trkpt><trkpt lat="45.2659237" lon="11.7813174"><ele>4.0</ele><time>2026-05-05T14:40:40.258Z</time></trkpt><trkpt lat="45.2656425" lon="11.7811763"><ele>4.0</ele><time>2026-05-05T14:40:41.258Z</time></trkpt><trkpt lat="45.2653555" lon="11.7810307"><ele>4.0</ele><time>2026-05-05T14:40:42.259Z</time></trkpt><trkpt lat="45.2650751" lon="11.7808848"><ele>4.0</ele><time>2026-05-05T14:40:43.259Z</time></trkpt><trkpt lat="45.2647929" lon="11.7807394"><ele>4.0</ele><time>2026-05-05T14:40:44.259Z</time></trkpt><trkpt lat="45.2645119" lon="11.7805932"><ele>4.0</ele><time>2026-05-05T14:40:45.259Z</time></trkpt><trkpt lat="45.2642314" lon="11.7804552"><ele>4.0</ele><time>2026-05-05T14:40:46.258Z</time></trkpt><trkpt lat="45.2639601" lon="11.7803094"><ele>4.5</ele><time>2026-05-05T14:40:47.259Z</time></trkpt><trkpt lat="45.2636883" lon="11.7801725"><ele>5.0</ele><time>2026-05-05T14:40:48.259Z</time></trkpt><trkpt lat="45.2634291" lon="11.7800379"><ele>5.0</ele><time>2026-05-05T14:40:49.259Z</time></trkpt><trkpt lat="45.2631739" lon="11.7799074"><ele>5.0</ele><time>2026-05-05T14:40:50.259Z</time></trkpt><trkpt lat="45.2629209" lon="11.7797742"><ele>6.0</ele><time>2026-05-05T14:40:51.259Z</time></trkpt><trkpt lat="45.262674" lon="11.7796488"><ele>7.0</ele><time>2026-05-05T14:40:52.258Z</time></trkpt><trkpt lat="45.2624292" lon="11.7795247"><ele>6.5</ele><time>2026-05-05T14:40:53.258Z</time></trkpt><trkpt lat="45.262189" lon="11.7794029"><ele>6.0</ele><time>2026-05-05T14:40:54.258Z</time></trkpt><trkpt lat="45.26195" lon="11.7792808"><ele>6.0</ele><time>2026-05-05T14:40:55.259Z</time></trkpt><trkpt lat="45.2617184" lon="11.7791612"><ele>6.0</ele><time>2026-05-05T14:40:56.258Z</time></trkpt><trkpt lat="45.2614795" lon="11.7790334"><ele>6.0</ele><time>2026-05-05T14:40:57.259Z</time></trkpt><trkpt lat="45.2612408" lon="11.7789039"><ele>6.0</ele><time>2026-05-05T14:40:58.258Z</time></trkpt><trkpt lat="45.2609982" lon="11.7787822"><ele>6.0</ele><time>2026-05-05T14:40:59.258Z</time></trkpt><trkpt lat="45.2607574" lon="11.7786531"><ele>6.0</ele><time>2026-05-05T14:41:00.259Z</time></trkpt><trkpt lat="45.2605204" lon="11.7785321"><ele>6.0</ele><time>2026-05-05T14:41:01.258Z</time></trkpt><trkpt lat="45.260284" lon="11.7784055"><ele>6.0</ele><time>2026-05-05T14:41:02.258Z</time></trkpt><trkpt lat="45.2600443" lon="11.7782786"><ele>6.0</ele><time>2026-05-05T14:41:03.258Z</time></trkpt><trkpt lat="45.2598044" lon="11.778157"><ele>6.0</ele><time>2026-05-05T14:41:04.258Z</time></trkpt><trkpt lat="45.2595676" lon="11.7780316"><ele>7.5</ele><time>2026-05-05T14:41:05.259Z</time></trkpt><trkpt lat="45.2593284" lon="11.7779178"><ele>9.0</ele><time>2026-05-05T14:41:06.259Z</time></trkpt><trkpt lat="45.2590902" lon="11.7778041"><ele>8.0</ele><time>2026-05-05T14:41:07.259Z</time></trkpt><trkpt lat="45.2588471" lon="11.7776855"><ele>7.0</ele><time>2026-05-05T14:41:08.259Z</time></trkpt><trkpt lat="45.2586069" lon="11.7775574"><ele>7.0</ele><time>2026-05-05T14:41:09.258Z</time></trkpt><trkpt lat="45.2583662" lon="11.7774313"><ele>7.0</ele><time>2026-05-05T14:41:10.258Z</time></trkpt><trkpt lat="45.2581316" lon="11.7773088"><ele>6.0</ele><time>2026-05-05T14:41:11.259Z</time></trkpt><trkpt lat="45.257892" lon="11.7771813"><ele>5.0</ele><time>2026-05-05T14:41:12.259Z</time></trkpt><trkpt lat="45.2576526" lon="11.7770595"><ele>5.0</ele><time>2026-05-05T14:41:13.258Z</time></trkpt><trkpt lat="45.2574099" lon="11.7769299"><ele>5.0</ele><time>2026-05-05T14:41:14.259Z</time></trkpt><trkpt lat="45.2571633" lon="11.7768001"><ele>5.0</ele><time>2026-05-05T14:41:15.259Z</time></trkpt><trkpt lat="45.2569129" lon="11.7766709"><ele>5.0</ele><time>2026-05-05T14:41:16.258Z</time></trkpt><trkpt lat="45.2566614" lon="11.7765415"><ele>5.0</ele><time>2026-05-05T14:41:17.259Z</time></trkpt><trkpt lat="45.25641" lon="11.7764095"><ele>5.0</ele><time>2026-05-05T14:41:18.259Z</time></trkpt><trkpt lat="45.256165" lon="11.7762772"><ele>5.0</ele><time>2026-05-05T14:41:19.259Z</time></trkpt><trkpt lat="45.2559161" lon="11.7761479"><ele>5.0</ele><time>2026-05-05T14:41:20.258Z</time></trkpt><trkpt lat="45.2556621" lon="11.7760287"><ele>5.5</ele><time>2026-05-05T14:41:21.258Z</time></trkpt><trkpt lat="45.2554043" lon="11.7759102"><ele>6.0</ele><time>2026-05-05T14:41:22.258Z</time></trkpt><trkpt lat="45.2551497" lon="11.7757821"><ele>6.0</ele><time>2026-05-05T14:41:23.259Z</time></trkpt><trkpt lat="45.2548943" lon="11.7756575"><ele>6.0</ele><time>2026-05-05T14:41:24.259Z</time></trkpt><trkpt lat="45.2546326" lon="11.7755318"><ele>6.0</ele><time>2026-05-05T14:41:25.259Z</time></trkpt><trkpt lat="45.2543739" lon="11.7754113"><ele>6.0</ele><time>2026-05-05T14:41:26.259Z</time></trkpt><trkpt lat="45.2541205" lon="11.7752964"><ele>6.0</ele><time>2026-05-05T14:41:27.258Z</time></trkpt><trkpt lat="45.2538692" lon="11.7751912"><ele>6.0</ele><time>2026-05-05T14:41:28.259Z</time></trkpt><trkpt lat="45.2536101" lon="11.7750833"><ele>6.0</ele><time>2026-05-05T14:41:29.258Z</time></trkpt><trkpt lat="45.2533536" lon="11.7749936"><ele>6.0</ele><time>2026-05-05T14:41:30.259Z</time></trkpt><trkpt lat="45.2531069" lon="11.7749077"><ele>6.0</ele><time>2026-05-05T14:41:31.258Z</time></trkpt><trkpt lat="45.2528605" lon="11.7748216"><ele>6.0</ele><time>2026-05-05T14:41:32.259Z</time></trkpt><trkpt lat="45.2526125" lon="11.7747567"><ele>6.0</ele><time>2026-05-05T14:41:33.259Z</time></trkpt><trkpt lat="45.2523621" lon="11.7746952"><ele>6.0</ele><time>2026-05-05T14:41:34.259Z</time></trkpt><trkpt lat="45.2521124" lon="11.7746433"><ele>6.0</ele><time>2026-05-05T14:41:35.259Z</time></trkpt><trkpt lat="45.2518599" lon="11.7745994"><ele>6.0</ele><time>2026-05-05T14:41:36.259Z</time></trkpt><trkpt lat="45.2516118" lon="11.7745565"><ele>5.5</ele><time>2026-05-05T14:41:37.258Z</time></trkpt><trkpt lat="45.2513667" lon="11.7745165"><ele>5.0</ele><time>2026-05-05T14:41:38.258Z</time></trkpt><trkpt lat="45.2511152" lon="11.7744924"><ele>5.0</ele><time>2026-05-05T14:41:39.258Z</time></trkpt><trkpt lat="45.2508738" lon="11.7744842"><ele>5.0</ele><time>2026-05-05T14:41:40.259Z</time></trkpt><trkpt lat="45.2506277" lon="11.7744732"><ele>5.0</ele><time>2026-05-05T14:41:41.259Z</time></trkpt><trkpt lat="45.2503827" lon="11.7744691"><ele>5.0</ele><time>2026-05-05T14:41:42.259Z</time></trkpt><trkpt lat="45.2501442" lon="11.7744662"><ele>5.0</ele><time>2026-05-05T14:41:43.259Z</time></trkpt><trkpt lat="45.2499042" lon="11.7744638"><ele>5.0</ele><time>2026-05-05T14:41:44.259Z</time></trkpt><trkpt lat="45.2496604" lon="11.774466"><ele>5.0</ele><time>2026-05-05T14:41:45.258Z</time></trkpt><trkpt lat="45.2494179" lon="11.7744681"><ele>5.0</ele><time>2026-05-05T14:41:46.259Z</time></trkpt><trkpt lat="45.2491735" lon="11.7744738"><ele>5.0</ele><time>2026-05-05T14:41:47.259Z</time></trkpt><trkpt lat="45.2489322" lon="11.7744765"><ele>5.0</ele><time>2026-05-05T14:41:48.259Z</time></trkpt><trkpt lat="45.248694" lon="11.7744777"><ele>5.0</ele><time>2026-05-05T14:41:49.259Z</time></trkpt><trkpt lat="45.2484657" lon="11.7744784"><ele>5.0</ele><time>2026-05-05T14:41:50.258Z</time></trkpt><trkpt lat="45.2482386" lon="11.7744819"><ele>6.0</ele><time>2026-05-05T14:41:51.259Z</time></trkpt><trkpt lat="45.2480127" lon="11.7744822"><ele>7.0</ele><time>2026-05-05T14:41:52.259Z</time></trkpt><trkpt lat="45.2477906" lon="11.7744851"><ele>8.0</ele><time>2026-05-05T14:41:53.259Z</time></trkpt><trkpt lat="45.2475644" lon="11.7744912"><ele>8.0</ele><time>2026-05-05T14:41:54.258Z</time></trkpt><trkpt lat="45.2473348" lon="11.7744927"><ele>8.0</ele><time>2026-05-05T14:41:55.258Z</time></trkpt><trkpt lat="45.2471126" lon="11.7744936"><ele>7.5</ele><time>2026-05-05T14:41:56.259Z</time></trkpt><trkpt lat="45.2468863" lon="11.7744972"><ele>7.0</ele><time>2026-05-05T14:41:57.259Z</time></trkpt><trkpt lat="45.2466553" lon="11.7744958"><ele>5.5</ele><time>2026-05-05T14:41:58.259Z</time></trkpt><trkpt lat="45.2464215" lon="11.7744956"><ele>4.0</ele><time>2026-05-05T14:41:59.258Z</time></trkpt><trkpt lat="45.2461906" lon="11.7745029"><ele>4.0</ele><time>2026-05-05T14:42:00.259Z</time></trkpt><trkpt lat="45.245948" lon="11.7745094"><ele>4.0</ele><time>2026-05-05T14:42:01.259Z</time></trkpt><trkpt lat="45.2457021" lon="11.7745212"><ele>5.0</ele><time>2026-05-05T14:42:02.259Z</time></trkpt><trkpt lat="45.2454413" lon="11.7745319"><ele>6.0</ele><time>2026-05-05T14:42:03.259Z</time></trkpt><trkpt lat="45.2451758" lon="11.7745398"><ele>6.0</ele><time>2026-05-05T14:42:04.258Z</time></trkpt><trkpt lat="45.2449087" lon="11.7745464"><ele>6.0</ele><time>2026-05-05T14:42:05.259Z</time></trkpt><trkpt lat="45.244641" lon="11.7745533"><ele>6.0</ele><time>2026-05-05T14:42:06.258Z</time></trkpt><trkpt lat="45.244369" lon="11.7745532"><ele>6.0</ele><time>2026-05-05T14:42:07.259Z</time></trkpt><trkpt lat="45.244089" lon="11.774553"><ele>5.5</ele><time>2026-05-05T14:42:08.258Z</time></trkpt><trkpt lat="45.2438195" lon="11.7745587"><ele>5.0</ele><time>2026-05-05T14:42:09.259Z</time></trkpt><trkpt lat="45.2435507" lon="11.7745592"><ele>5.0</ele><time>2026-05-05T14:42:10.258Z</time></trkpt><trkpt lat="45.2432821" lon="11.7745478"><ele>5.0</ele><time>2026-05-05T14:42:11.259Z</time></trkpt><trkpt lat="45.2430212" lon="11.7745459"><ele>4.5</ele><time>2026-05-05T14:42:12.258Z</time></trkpt><trkpt lat="45.242755" lon="11.7745375"><ele>4.0</ele><time>2026-05-05T14:42:13.259Z</time></trkpt><trkpt lat="45.2424844" lon="11.7745327"><ele>4.0</ele><time>2026-05-05T14:42:14.259Z</time></trkpt><trkpt lat="45.2422138" lon="11.7745226"><ele>4.0</ele><time>2026-05-05T14:42:15.258Z</time></trkpt><trkpt lat="45.2419461" lon="11.7745139"><ele>4.0</ele><time>2026-05-05T14:42:16.258Z</time></trkpt><trkpt lat="45.241673" lon="11.7745059"><ele>4.0</ele><time>2026-05-05T14:42:17.258Z</time></trkpt><trkpt lat="45.2414062" lon="11.7745003"><ele>3.5</ele><time>2026-05-05T14:42:18.259Z</time></trkpt><trkpt lat="45.2411399" lon="11.774504"><ele>3.0</ele><time>2026-05-05T14:42:19.259Z</time></trkpt><trkpt lat="45.2408742" lon="11.7745049"><ele>3.0</ele><time>2026-05-05T14:42:20.259Z</time></trkpt><trkpt lat="45.2406166" lon="11.7745102"><ele>3.0</ele><time>2026-05-05T14:42:21.259Z</time></trkpt><trkpt lat="45.2403523" lon="11.7745039"><ele>3.0</ele><time>2026-05-05T14:42:22.259Z</time></trkpt><trkpt lat="45.2400858" lon="11.7745043"><ele>3.0</ele><time>2026-05-05T14:42:23.259Z</time></trkpt><trkpt lat="45.2398211" lon="11.7745075"><ele>4.5</ele><time>2026-05-05T14:42:24.259Z</time></trkpt><trkpt lat="45.2395561" lon="11.7745063"><ele>6.0</ele><time>2026-05-05T14:42:25.258Z</time></trkpt><trkpt lat="45.239292" lon="11.7745022"><ele>6.0</ele><time>2026-05-05T14:42:26.258Z</time></trkpt><trkpt lat="45.239038" lon="11.7745048"><ele>6.0</ele><time>2026-05-05T14:42:27.259Z</time></trkpt><trkpt lat="45.238781" lon="11.7745013"><ele>6.5</ele><time>2026-05-05T14:42:28.259Z</time></trkpt><trkpt lat="45.2385294" lon="11.7745056"><ele>7.0</ele><time>2026-05-05T14:42:29.258Z</time></trkpt><trkpt lat="45.2382756" lon="11.7745007"><ele>6.5</ele><time>2026-05-05T14:42:30.259Z</time></trkpt><trkpt lat="45.2380238" lon="11.7745023"><ele>6.0</ele><time>2026-05-05T14:42:31.259Z</time></trkpt><trkpt lat="45.2377801" lon="11.7745075"><ele>6.0</ele><time>2026-05-05T14:42:32.258Z</time></trkpt><trkpt lat="45.2375334" lon="11.7745054"><ele>6.0</ele><time>2026-05-05T14:42:33.259Z</time></trkpt><trkpt lat="45.237282" lon="11.7745105"><ele>5.5</ele><time>2026-05-05T14:42:34.258Z</time></trkpt><trkpt lat="45.2370317" lon="11.7745109"><ele>5.0</ele><time>2026-05-05T14:42:35.259Z</time></trkpt><trkpt lat="45.2367812" lon="11.7745102"><ele>5.0</ele><time>2026-05-05T14:42:36.259Z</time></trkpt><trkpt lat="45.2365355" lon="11.7745101"><ele>5.0</ele><time>2026-05-05T14:42:37.259Z</time></trkpt><trkpt lat="45.2362832" lon="11.7745106"><ele>5.5</ele><time>2026-05-05T14:42:38.259Z</time></trkpt><trkpt lat="45.2360289" lon="11.7745154"><ele>6.0</ele><time>2026-05-05T14:42:39.259Z</time></trkpt><trkpt lat="45.2357853" lon="11.774519"><ele>5.5</ele><time>2026-05-05T14:42:40.258Z</time></trkpt><trkpt lat="45.2355385" lon="11.7745212"><ele>5.0</ele><time>2026-05-05T14:42:41.259Z</time></trkpt><trkpt lat="45.2352865" lon="11.7745215"><ele>5.0</ele><time>2026-05-05T14:42:42.258Z</time></trkpt><trkpt lat="45.2350355" lon="11.7745256"><ele>5.0</ele><time>2026-05-05T14:42:43.259Z</time></trkpt><trkpt lat="45.2347838" lon="11.7745252"><ele>6.0</ele><time>2026-05-05T14:42:44.258Z</time></trkpt><trkpt lat="45.2345237" lon="11.7745305"><ele>7.0</ele><time>2026-05-05T14:42:45.259Z</time></trkpt><trkpt lat="45.2342665" lon="11.7745236"><ele>7.0</ele><time>2026-05-05T14:42:46.258Z</time></trkpt><trkpt lat="45.2340077" lon="11.7745198"><ele>7.0</ele><time>2026-05-05T14:42:47.258Z</time></trkpt><trkpt lat="45.2337464" lon="11.7745252"><ele>6.5</ele><time>2026-05-05T14:42:48.259Z</time></trkpt><trkpt lat="45.2334922" lon="11.7745275"><ele>6.0</ele><time>2026-05-05T14:42:49.259Z</time></trkpt><trkpt lat="45.2332322" lon="11.7745283"><ele>5.5</ele><time>2026-05-05T14:42:50.258Z</time></trkpt><trkpt lat="45.2329703" lon="11.774523"><ele>5.0</ele><time>2026-05-05T14:42:51.258Z</time></trkpt><trkpt lat="45.2327048" lon="11.7745206"><ele>5.0</ele><time>2026-05-05T14:42:52.259Z</time></trkpt><trkpt lat="45.2324364" lon="11.7745266"><ele>5.0</ele><time>2026-05-05T14:42:53.259Z</time></trkpt><trkpt lat="45.232171" lon="11.7745282"><ele>4.5</ele><time>2026-05-05T14:42:54.258Z</time></trkpt><trkpt lat="45.2319024" lon="11.7745218"><ele>4.0</ele><time>2026-05-05T14:42:55.259Z</time></trkpt><trkpt lat="45.2316287" lon="11.7745287"><ele>4.0</ele><time>2026-05-05T14:42:56.259Z</time></trkpt><trkpt lat="45.2313563" lon="11.7745309"><ele>4.0</ele><time>2026-05-05T14:42:57.259Z</time></trkpt><trkpt lat="45.2310846" lon="11.7745321"><ele>4.0</ele><time>2026-05-05T14:42:58.259Z</time></trkpt><trkpt lat="45.2308115" lon="11.7745331"><ele>4.0</ele><time>2026-05-05T14:42:59.259Z</time></trkpt><trkpt lat="45.2305362" lon="11.7745273"><ele>4.0</ele><time>2026-05-05T14:43:00.258Z</time></trkpt><trkpt lat="45.2302644" lon="11.7745257"><ele>4.0</ele><time>2026-05-05T14:43:01.259Z</time></trkpt><trkpt lat="45.2299881" lon="11.7745303"><ele>4.0</ele><time>2026-05-05T14:43:02.258Z</time></trkpt><trkpt lat="45.2297122" lon="11.7745352"><ele>4.0</ele><time>2026-05-05T14:43:03.259Z</time></trkpt><trkpt lat="45.2294385" lon="11.7745333"><ele>4.0</ele><time>2026-05-05T14:43:04.259Z</time></trkpt><trkpt lat="45.2291593" lon="11.7745484"><ele>4.0</ele><time>2026-05-05T14:43:05.259Z</time></trkpt><trkpt lat="45.2288832" lon="11.7745508"><ele>3.0</ele><time>2026-05-05T14:43:06.259Z</time></trkpt><trkpt lat="45.2286102" lon="11.7745494"><ele>2.0</ele><time>2026-05-05T14:43:07.258Z</time></trkpt><trkpt lat="45.2283378" lon="11.7745518"><ele>2.0</ele><time>2026-05-05T14:43:08.258Z</time></trkpt><trkpt lat="45.2280715" lon="11.7745533"><ele>2.0</ele><time>2026-05-05T14:43:09.259Z</time></trkpt><trkpt lat="45.2277979" lon="11.7745559"><ele>2.0</ele><time>2026-05-05T14:43:10.258Z</time></trkpt><trkpt lat="45.2275267" lon="11.7745534"><ele>2.0</ele><time>2026-05-05T14:43:11.259Z</time></trkpt><trkpt lat="45.2272572" lon="11.7745533"><ele>2.0</ele><time>2026-05-05T14:43:12.259Z</time></trkpt><trkpt lat="45.2269934" lon="11.7745426"><ele>2.0</ele><time>2026-05-05T14:43:13.259Z</time></trkpt><trkpt lat="45.2267195" lon="11.7745446"><ele>3.0</ele><time>2026-05-05T14:43:14.259Z</time></trkpt><trkpt lat="45.2264454" lon="11.7745468"><ele>4.0</ele><time>2026-05-05T14:43:15.259Z</time></trkpt><trkpt lat="45.2261738" lon="11.7745442"><ele>4.0</ele><time>2026-05-05T14:43:16.259Z</time></trkpt><trkpt lat="45.2259011" lon="11.77455"><ele>4.0</ele><time>2026-05-05T14:43:17.259Z</time></trkpt><trkpt lat="45.2256321" lon="11.7745525"><ele>5.5</ele><time>2026-05-05T14:43:18.258Z</time></trkpt><trkpt lat="45.2253714" lon="11.7745585"><ele>7.0</ele><time>2026-05-05T14:43:19.258Z</time></trkpt><trkpt lat="45.2251044" lon="11.7745636"><ele>7.0</ele><time>2026-05-05T14:43:20.259Z</time></trkpt><trkpt lat="45.2248385" lon="11.7745643"><ele>7.0</ele><time>2026-05-05T14:43:21.259Z</time></trkpt><trkpt lat="45.2245727" lon="11.7745626"><ele>7.0</ele><time>2026-05-05T14:43:22.258Z</time></trkpt><trkpt lat="45.2243078" lon="11.7745547"><ele>7.0</ele><time>2026-05-05T14:43:23.259Z</time></trkpt><trkpt lat="45.2240426" lon="11.7745486"><ele>6.0</ele><time>2026-05-05T14:43:24.258Z</time></trkpt><trkpt lat="45.2237817" lon="11.7745511"><ele>5.0</ele><time>2026-05-05T14:43:25.258Z</time></trkpt><trkpt lat="45.2235277" lon="11.7745593"><ele>5.0</ele><time>2026-05-05T14:43:26.258Z</time></trkpt><trkpt lat="45.2232657" lon="11.7745659"><ele>5.0</ele><time>2026-05-05T14:43:27.258Z</time></trkpt><trkpt lat="45.2230003" lon="11.7745735"><ele>4.0</ele><time>2026-05-05T14:43:28.259Z</time></trkpt><trkpt lat="45.2227441" lon="11.7745783"><ele>3.0</ele><time>2026-05-05T14:43:29.258Z</time></trkpt><trkpt lat="45.2224848" lon="11.7745781"><ele>3.0</ele><time>2026-05-05T14:43:30.259Z</time></trkpt><trkpt lat="45.222234" lon="11.7745753"><ele>3.0</ele><time>2026-05-05T14:43:31.259Z</time></trkpt><trkpt lat="45.2219858" lon="11.774568"><ele>3.0</ele><time>2026-05-05T14:43:32.258Z</time></trkpt><trkpt lat="45.2217282" lon="11.7745642"><ele>3.0</ele><time>2026-05-05T14:43:33.259Z</time></trkpt><trkpt lat="45.2214804" lon="11.7745606"><ele>4.5</ele><time>2026-05-05T14:43:34.258Z</time></trkpt><trkpt lat="45.2212299" lon="11.7745599"><ele>6.0</ele><time>2026-05-05T14:43:35.259Z</time></trkpt><trkpt lat="45.2209707" lon="11.774552"><ele>6.0</ele><time>2026-05-05T14:43:36.259Z</time></trkpt><trkpt lat="45.2207152" lon="11.7745583"><ele>6.0</ele><time>2026-05-05T14:43:37.258Z</time></trkpt><trkpt lat="45.2204603" lon="11.774558"><ele>6.0</ele><time>2026-05-05T14:43:38.259Z</time></trkpt><trkpt lat="45.2202065" lon="11.7745533"><ele>6.0</ele><time>2026-05-05T14:43:39.259Z</time></trkpt><trkpt lat="45.2199531" lon="11.7745526"><ele>5.5</ele><time>2026-05-05T14:43:40.259Z</time></trkpt><trkpt lat="45.2197069" lon="11.7745501"><ele>5.0</ele><time>2026-05-05T14:43:41.259Z</time></trkpt><trkpt lat="45.2194481" lon="11.7745558"><ele>5.0</ele><time>2026-05-05T14:43:42.258Z</time></trkpt><trkpt lat="45.2192001" lon="11.7745521"><ele>5.0</ele><time>2026-05-05T14:43:43.259Z</time></trkpt><trkpt lat="45.2189455" lon="11.7745571"><ele>4.0</ele><time>2026-05-05T14:43:44.259Z</time></trkpt><trkpt lat="45.2186855" lon="11.774558"><ele>3.0</ele><time>2026-05-05T14:43:45.258Z</time></trkpt><trkpt lat="45.2184286" lon="11.7745575"><ele>3.0</ele><time>2026-05-05T14:43:46.259Z</time></trkpt><trkpt lat="45.2181788" lon="11.7745633"><ele>3.0</ele><time>2026-05-05T14:43:47.258Z</time></trkpt><trkpt lat="45.2179294" lon="11.7745707"><ele>2.5</ele><time>2026-05-05T14:43:48.258Z</time></trkpt><trkpt lat="45.2176707" lon="11.7745732"><ele>2.0</ele><time>2026-05-05T14:43:49.258Z</time></trkpt><trkpt lat="45.2174081" lon="11.7745744"><ele>2.0</ele><time>2026-05-05T14:43:50.258Z</time></trkpt><trkpt lat="45.2171506" lon="11.7745752"><ele>2.0</ele><time>2026-05-05T14:43:51.258Z</time></trkpt><trkpt lat="45.2168965" lon="11.7745783"><ele>2.0</ele><time>2026-05-05T14:43:52.258Z</time></trkpt><trkpt lat="45.2166381" lon="11.7745866"><ele>2.0</ele><time>2026-05-05T14:43:53.258Z</time></trkpt><trkpt lat="45.2163796" lon="11.7745853"><ele>3.0</ele><time>2026-05-05T14:43:54.258Z</time></trkpt><trkpt lat="45.2161195" lon="11.774587"><ele>4.0</ele><time>2026-05-05T14:43:55.258Z</time></trkpt><trkpt lat="45.2158726" lon="11.7745832"><ele>4.0</ele><time>2026-05-05T14:43:56.259Z</time></trkpt><trkpt lat="45.2156157" lon="11.7745798"><ele>4.0</ele><time>2026-05-05T14:43:57.258Z</time></trkpt><trkpt lat="45.215358" lon="11.7745744"><ele>4.0</ele><time>2026-05-05T14:43:58.258Z</time></trkpt><trkpt lat="45.2151014" lon="11.7745747"><ele>4.0</ele><time>2026-05-05T14:43:59.259Z</time></trkpt><trkpt lat="45.2148448" lon="11.7745781"><ele>4.0</ele><time>2026-05-05T14:44:00.258Z</time></trkpt><trkpt lat="45.2145855" lon="11.774588"><ele>4.0</ele><time>2026-05-05T14:44:01.259Z</time></trkpt><trkpt lat="45.2143264" lon="11.7745897"><ele>4.0</ele><time>2026-05-05T14:44:02.259Z</time></trkpt><trkpt lat="45.2140704" lon="11.7745912"><ele>4.0</ele><time>2026-05-05T14:44:03.259Z</time></trkpt><trkpt lat="45.2138107" lon="11.7745962"><ele>3.5</ele><time>2026-05-05T14:44:04.258Z</time></trkpt><trkpt lat="45.2135532" lon="11.7745966"><ele>3.0</ele><time>2026-05-05T14:44:05.258Z</time></trkpt><trkpt lat="45.2132932" lon="11.7746012"><ele>2.5</ele><time>2026-05-05T14:44:06.259Z</time></trkpt><trkpt lat="45.2130381" lon="11.7746025"><ele>2.0</ele><time>2026-05-05T14:44:07.259Z</time></trkpt><trkpt lat="45.2127813" lon="11.774605"><ele>2.0</ele><time>2026-05-05T14:44:08.259Z</time></trkpt><trkpt lat="45.2125166" lon="11.7745995"><ele>2.0</ele><time>2026-05-05T14:44:09.258Z</time></trkpt><trkpt lat="45.212256" lon="11.7746031"><ele>2.5</ele><time>2026-05-05T14:44:10.259Z</time></trkpt><trkpt lat="45.2119939" lon="11.7746049"><ele>3.0</ele><time>2026-05-05T14:44:11.259Z</time></trkpt><trkpt lat="45.2117342" lon="11.7746092"><ele>3.5</ele><time>2026-05-05T14:44:12.259Z</time></trkpt><trkpt lat="45.2114669" lon="11.7746116"><ele>4.0</ele><time>2026-05-05T14:44:13.259Z</time></trkpt><trkpt lat="45.2111984" lon="11.7746196"><ele>4.0</ele><time>2026-05-05T14:44:14.259Z</time></trkpt><trkpt lat="45.2109359" lon="11.7746304"><ele>4.0</ele><time>2026-05-05T14:44:15.259Z</time></trkpt><trkpt lat="45.2106568" lon="11.7746349"><ele>4.5</ele><time>2026-05-05T14:44:16.258Z</time></trkpt><trkpt lat="45.2103753" lon="11.774635"><ele>5.0</ele><time>2026-05-05T14:44:17.258Z</time></trkpt><trkpt lat="45.2100847" lon="11.7746442"><ele>5.0</ele><time>2026-05-05T14:44:18.258Z</time></trkpt><trkpt lat="45.2097971" lon="11.7746445"><ele>5.0</ele><time>2026-05-05T14:44:19.259Z</time></trkpt><trkpt lat="45.2095127" lon="11.7746416"><ele>5.0</ele><time>2026-05-05T14:44:20.259Z</time></trkpt><trkpt lat="45.2092176" lon="11.774646"><ele>5.0</ele><time>2026-05-05T14:44:21.259Z</time></trkpt><trkpt lat="45.2089247" lon="11.774645"><ele>3.5</ele><time>2026-05-05T14:44:22.259Z</time></trkpt><trkpt lat="45.2086347" lon="11.7746448"><ele>2.0</ele><time>2026-05-05T14:44:23.259Z</time></trkpt><trkpt lat="45.2083482" lon="11.7746454"><ele>1.5</ele><time>2026-05-05T14:44:24.259Z</time></trkpt><trkpt lat="45.208069" lon="11.7746485"><ele>1.0</ele><time>2026-05-05T14:44:25.259Z</time></trkpt><trkpt lat="45.2077876" lon="11.7746479"><ele>1.0</ele><time>2026-05-05T14:44:26.259Z</time></trkpt><trkpt lat="45.2075108" lon="11.7746494"><ele>1.0</ele><time>2026-05-05T14:44:27.259Z</time></trkpt><trkpt lat="45.2072334" lon="11.7746515"><ele>2.5</ele><time>2026-05-05T14:44:28.259Z</time></trkpt><trkpt lat="45.2069567" lon="11.7746474"><ele>4.0</ele><time>2026-05-05T14:44:29.259Z</time></trkpt><trkpt lat="45.2066782" lon="11.7746426"><ele>5.0</ele><time>2026-05-05T14:44:30.259Z</time></trkpt><trkpt lat="45.2064007" lon="11.7746434"><ele>6.0</ele><time>2026-05-05T14:44:31.258Z</time></trkpt><trkpt lat="45.2061239" lon="11.7746364"><ele>6.0</ele><time>2026-05-05T14:44:32.259Z</time></trkpt><trkpt lat="45.2058454" lon="11.7746371"><ele>6.0</ele><time>2026-05-05T14:44:33.258Z</time></trkpt><trkpt lat="45.2055692" lon="11.7746384"><ele>5.0</ele><time>2026-05-05T14:44:34.259Z</time></trkpt><trkpt lat="45.2052949" lon="11.7746441"><ele>4.0</ele><time>2026-05-05T14:44:35.258Z</time></trkpt><trkpt lat="45.2050207" lon="11.7746412"><ele>3.5</ele><time>2026-05-05T14:44:36.259Z</time></trkpt><trkpt lat="45.204743" lon="11.7746479"><ele>3.0</ele><time>2026-05-05T14:44:37.258Z</time></trkpt><trkpt lat="45.2044743" lon="11.7746553"><ele>3.0</ele><time>2026-05-05T14:44:38.258Z</time></trkpt><trkpt lat="45.2042113" lon="11.7746614"><ele>3.0</ele><time>2026-05-05T14:44:39.259Z</time></trkpt><trkpt lat="45.2039421" lon="11.7746559"><ele>2.5</ele><time>2026-05-05T14:44:40.259Z</time></trkpt><trkpt lat="45.2036713" lon="11.7746536"><ele>2.0</ele><time>2026-05-05T14:44:41.258Z</time></trkpt><trkpt lat="45.2034033" lon="11.7746507"><ele>0.0</ele><time>2026-05-05T14:44:42.258Z</time></trkpt><trkpt lat="45.2031312" lon="11.774653"><ele>-2.0</ele><time>2026-05-05T14:44:43.259Z</time></trkpt><trkpt lat="45.2028609" lon="11.7746568"><ele>-2.0</ele><time>2026-05-05T14:44:44.259Z</time></trkpt><trkpt lat="45.2025945" lon="11.7746593"><ele>-2.0</ele><time>2026-05-05T14:44:45.258Z</time></trkpt><trkpt lat="45.2023234" lon="11.7746605"><ele>-0.5</ele><time>2026-05-05T14:44:46.259Z</time></trkpt><trkpt lat="45.2020499" lon="11.7746638"><ele>1.0</ele><time>2026-05-05T14:44:47.258Z</time></trkpt><trkpt lat="45.2017786" lon="11.7746696"><ele>1.0</ele><time>2026-05-05T14:44:48.259Z</time></trkpt><trkpt lat="45.2015077" lon="11.7746709"><ele>1.0</ele><time>2026-05-05T14:44:49.259Z</time></trkpt><trkpt lat="45.2012373" lon="11.7746813"><ele>1.0</ele><time>2026-05-05T14:44:50.259Z</time></trkpt><trkpt lat="45.2009697" lon="11.7746847"><ele>1.0</ele><time>2026-05-05T14:44:51.259Z</time></trkpt><trkpt lat="45.2006966" lon="11.7746878"><ele>1.5</ele><time>2026-05-05T14:44:52.259Z</time></trkpt><trkpt lat="45.2002723" lon="11.7747011"><ele>2.0</ele><time>2026-05-05T14:44:53.829Z</time></trkpt><trkpt lat="45.1998741" lon="11.7747178"><ele>2.5</ele><time>2026-05-05T14:44:55.267Z</time></trkpt><trkpt lat="45.199602" lon="11.7747281"><ele>3.0</ele><time>2026-05-05T14:44:56.266Z</time></trkpt><trkpt lat="45.199329" lon="11.7747477"><ele>3.0</ele><time>2026-05-05T14:44:57.266Z</time></trkpt><trkpt lat="45.1990588" lon="11.7747701"><ele>3.0</ele><time>2026-05-05T14:44:58.267Z</time></trkpt><trkpt lat="45.1987872" lon="11.7747961"><ele>3.0</ele><time>2026-05-05T14:44:59.266Z</time></trkpt><trkpt lat="45.1985164" lon="11.7748187"><ele>3.0</ele><time>2026-05-05T14:45:00.267Z</time></trkpt><trkpt lat="45.1982481" lon="11.7748459"><ele>5.0</ele><time>2026-05-05T14:45:01.266Z</time></trkpt><trkpt lat="45.1979799" lon="11.774876"><ele>7.0</ele><time>2026-05-05T14:45:02.267Z</time></trkpt><trkpt lat="45.1977138" lon="11.7749082"><ele>7.0</ele><time>2026-05-05T14:45:03.266Z</time></trkpt><trkpt lat="45.1974503" lon="11.7749398"><ele>7.0</ele><time>2026-05-05T14:45:04.267Z</time></trkpt><trkpt lat="45.1971925" lon="11.7749765"><ele>5.0</ele><time>2026-05-05T14:45:05.267Z</time></trkpt><trkpt lat="45.1969232" lon="11.775011"><ele>3.0</ele><time>2026-05-05T14:45:06.267Z</time></trkpt><trkpt lat="45.1966583" lon="11.7750409"><ele>2.0</ele><time>2026-05-05T14:45:07.266Z</time></trkpt><trkpt lat="45.1963933" lon="11.7750706"><ele>1.0</ele><time>2026-05-05T14:45:08.267Z</time></trkpt><trkpt lat="45.1961279" lon="11.7751025"><ele>1.0</ele><time>2026-05-05T14:45:09.266Z</time></trkpt><trkpt lat="45.1958626" lon="11.7751341"><ele>1.0</ele><time>2026-05-05T14:45:10.266Z</time></trkpt><trkpt lat="45.195598" lon="11.7751688"><ele>1.0</ele><time>2026-05-05T14:45:11.267Z</time></trkpt><trkpt lat="45.1953333" lon="11.7752076"><ele>1.0</ele><time>2026-05-05T14:45:12.266Z</time></trkpt><trkpt lat="45.1950693" lon="11.7752415"><ele>0.0</ele><time>2026-05-05T14:45:13.266Z</time></trkpt><trkpt lat="45.1948039" lon="11.7752732"><ele>-1.0</ele><time>2026-05-05T14:45:14.267Z</time></trkpt><trkpt lat="45.1945394" lon="11.7753063"><ele>-1.0</ele><time>2026-05-05T14:45:15.267Z</time></trkpt><trkpt lat="45.1942699" lon="11.7753388"><ele>-1.0</ele><time>2026-05-05T14:45:16.267Z</time></trkpt><trkpt lat="45.1939933" lon="11.7753733"><ele>0.5</ele><time>2026-05-05T14:45:17.266Z</time></trkpt><trkpt lat="45.193714" lon="11.7754085"><ele>2.0</ele><time>2026-05-05T14:45:18.267Z</time></trkpt><trkpt lat="45.1934334" lon="11.7754425"><ele>2.0</ele><time>2026-05-05T14:45:19.266Z</time></trkpt><trkpt lat="45.1931545" lon="11.7754783"><ele>2.0</ele><time>2026-05-05T14:45:20.267Z</time></trkpt><trkpt lat="45.1928717" lon="11.7755179"><ele>2.0</ele><time>2026-05-05T14:45:21.266Z</time></trkpt><trkpt lat="45.1925877" lon="11.7755534"><ele>2.0</ele><time>2026-05-05T14:45:22.267Z</time></trkpt><trkpt lat="45.1923054" lon="11.7755895"><ele>3.0</ele><time>2026-05-05T14:45:23.267Z</time></trkpt><trkpt lat="45.1920217" lon="11.7756277"><ele>4.0</ele><time>2026-05-05T14:45:24.267Z</time></trkpt><trkpt lat="45.191738" lon="11.7756638"><ele>2.5</ele><time>2026-05-05T14:45:25.267Z</time></trkpt><trkpt lat="45.1914591" lon="11.7757028"><ele>1.0</ele><time>2026-05-05T14:45:26.267Z</time></trkpt><trkpt lat="45.1911739" lon="11.7757312"><ele>1.0</ele><time>2026-05-05T14:45:27.267Z</time></trkpt><trkpt lat="45.190893" lon="11.7757639"><ele>1.0</ele><time>2026-05-05T14:45:28.267Z</time></trkpt><trkpt lat="45.1906149" lon="11.7757891"><ele>0.5</ele><time>2026-05-05T14:45:29.266Z</time></trkpt><trkpt lat="45.1903385" lon="11.7758075"><ele>0.0</ele><time>2026-05-05T14:45:30.266Z</time></trkpt><trkpt lat="45.1900644" lon="11.7758272"><ele>2.0</ele><time>2026-05-05T14:45:31.266Z</time></trkpt><trkpt lat="45.1897875" lon="11.775852"><ele>4.0</ele><time>2026-05-05T14:45:32.267Z</time></trkpt><trkpt lat="45.1895151" lon="11.7758796"><ele>4.0</ele><time>2026-05-05T14:45:33.267Z</time></trkpt><trkpt lat="45.1892466" lon="11.7759105"><ele>4.0</ele><time>2026-05-05T14:45:34.267Z</time></trkpt><trkpt lat="45.1889787" lon="11.775943"><ele>4.0</ele><time>2026-05-05T14:45:35.266Z</time></trkpt><trkpt lat="45.1887141" lon="11.7759746"><ele>4.0</ele><time>2026-05-05T14:45:36.267Z</time></trkpt><trkpt lat="45.1884501" lon="11.7760096"><ele>4.0</ele><time>2026-05-05T14:45:37.266Z</time></trkpt><trkpt lat="45.1881885" lon="11.7760413"><ele>4.0</ele><time>2026-05-05T14:45:38.267Z</time></trkpt><trkpt lat="45.1879261" lon="11.7760751"><ele>3.0</ele><time>2026-05-05T14:45:39.267Z</time></trkpt><trkpt lat="45.1876655" lon="11.7761081"><ele>2.0</ele><time>2026-05-05T14:45:40.266Z</time></trkpt><trkpt lat="45.1874083" lon="11.7761405"><ele>2.0</ele><time>2026-05-05T14:45:41.267Z</time></trkpt><trkpt lat="45.1871483" lon="11.7761743"><ele>2.0</ele><time>2026-05-05T14:45:42.266Z</time></trkpt><trkpt lat="45.1868874" lon="11.7762077"><ele>2.0</ele><time>2026-05-05T14:45:43.267Z</time></trkpt><trkpt lat="45.1866265" lon="11.776238"><ele>2.0</ele><time>2026-05-05T14:45:44.267Z</time></trkpt><trkpt lat="45.1863643" lon="11.7762659"><ele>2.5</ele><time>2026-05-05T14:45:45.266Z</time></trkpt><trkpt lat="45.1861015" lon="11.7762894"><ele>3.0</ele><time>2026-05-05T14:45:46.267Z</time></trkpt><trkpt lat="45.1858383" lon="11.7763093"><ele>4.0</ele><time>2026-05-05T14:45:47.267Z</time></trkpt><trkpt lat="45.1855732" lon="11.7763281"><ele>5.0</ele><time>2026-05-05T14:45:48.267Z</time></trkpt><trkpt lat="45.1853092" lon="11.7763483"><ele>5.0</ele><time>2026-05-05T14:45:49.266Z</time></trkpt><trkpt lat="45.1850395" lon="11.7763621"><ele>5.0</ele><time>2026-05-05T14:45:50.267Z</time></trkpt><trkpt lat="45.1847674" lon="11.7763728"><ele>5.0</ele><time>2026-05-05T14:45:51.267Z</time></trkpt><trkpt lat="45.1844926" lon="11.7763794"><ele>5.0</ele><time>2026-05-05T14:45:52.266Z</time></trkpt><trkpt lat="45.1842199" lon="11.7763827"><ele>5.0</ele><time>2026-05-05T14:45:53.267Z</time></trkpt><trkpt lat="45.1839514" lon="11.7763811"><ele>5.0</ele><time>2026-05-05T14:45:54.267Z</time></trkpt><trkpt lat="45.1836791" lon="11.7763771"><ele>5.0</ele><time>2026-05-05T14:45:55.266Z</time></trkpt><trkpt lat="45.1834039" lon="11.7763716"><ele>5.0</ele><time>2026-05-05T14:45:56.267Z</time></trkpt><trkpt lat="45.1831355" lon="11.7763659"><ele>3.5</ele><time>2026-05-05T14:45:57.266Z</time></trkpt><trkpt lat="45.1828668" lon="11.7763483"><ele>2.0</ele><time>2026-05-05T14:45:58.267Z</time></trkpt><trkpt lat="45.1825952" lon="11.7763388"><ele>3.0</ele><time>2026-05-05T14:45:59.267Z</time></trkpt><trkpt lat="45.1823249" lon="11.7763265"><ele>4.0</ele><time>2026-05-05T14:46:00.266Z</time></trkpt><trkpt lat="45.1820513" lon="11.7763169"><ele>4.0</ele><time>2026-05-05T14:46:01.266Z</time></trkpt><trkpt lat="45.1817785" lon="11.7763089"><ele>4.0</ele><time>2026-05-05T14:46:02.267Z</time></trkpt><trkpt lat="45.1815069" lon="11.7763017"><ele>3.5</ele><time>2026-05-05T14:46:03.267Z</time></trkpt><trkpt lat="45.181236" lon="11.776291"><ele>3.0</ele><time>2026-05-05T14:46:04.267Z</time></trkpt><trkpt lat="45.1809611" lon="11.776284"><ele>3.0</ele><time>2026-05-05T14:46:05.266Z</time></trkpt><trkpt lat="45.1806866" lon="11.7762777"><ele>3.0</ele><time>2026-05-05T14:46:06.266Z</time></trkpt><trkpt lat="45.1804162" lon="11.7762698"><ele>3.5</ele><time>2026-05-05T14:46:07.267Z</time></trkpt><trkpt lat="45.180144" lon="11.7762576"><ele>4.0</ele><time>2026-05-05T14:46:08.266Z</time></trkpt><trkpt lat="45.179872" lon="11.776248"><ele>2.0</ele><time>2026-05-05T14:46:09.267Z</time></trkpt><trkpt lat="45.1795988" lon="11.7762369"><ele>0.0</ele><time>2026-05-05T14:46:10.267Z</time></trkpt><trkpt lat="45.1793281" lon="11.7762296"><ele>0.0</ele><time>2026-05-05T14:46:11.267Z</time></trkpt><trkpt lat="45.1790559" lon="11.7762208"><ele>0.0</ele><time>2026-05-05T14:46:12.267Z</time></trkpt><trkpt lat="45.1787815" lon="11.7762154"><ele>0.5</ele><time>2026-05-05T14:46:13.267Z</time></trkpt><trkpt lat="45.1785064" lon="11.776205"><ele>1.0</ele><time>2026-05-05T14:46:14.267Z</time></trkpt><trkpt lat="45.1782347" lon="11.7761979"><ele>0.5</ele><time>2026-05-05T14:46:15.267Z</time></trkpt><trkpt lat="45.1779676" lon="11.7761869"><ele>0.0</ele><time>2026-05-05T14:46:16.267Z</time></trkpt><trkpt lat="45.1776973" lon="11.7761765"><ele>0.0</ele><time>2026-05-05T14:46:17.266Z</time></trkpt><trkpt lat="45.1774264" lon="11.7761708"><ele>0.0</ele><time>2026-05-05T14:46:18.267Z</time></trkpt><trkpt lat="45.1771581" lon="11.7761666"><ele>1.0</ele><time>2026-05-05T14:46:19.266Z</time></trkpt><trkpt lat="45.1768778" lon="11.7761603"><ele>2.0</ele><time>2026-05-05T14:46:20.267Z</time></trkpt><trkpt lat="45.1765982" lon="11.7761564"><ele>1.5</ele><time>2026-05-05T14:46:21.267Z</time></trkpt><trkpt lat="45.1763179" lon="11.7761471"><ele>1.0</ele><time>2026-05-05T14:46:22.266Z</time></trkpt><trkpt lat="45.1760378" lon="11.7761391"><ele>1.0</ele><time>2026-05-05T14:46:23.267Z</time></trkpt><trkpt lat="45.1757546" lon="11.7761372"><ele>1.0</ele><time>2026-05-05T14:46:24.266Z</time></trkpt><trkpt lat="45.1754666" lon="11.7761377"><ele>1.0</ele><time>2026-05-05T14:46:25.267Z</time></trkpt><trkpt lat="45.1751781" lon="11.7761412"><ele>1.0</ele><time>2026-05-05T14:46:26.267Z</time></trkpt><trkpt lat="45.1748868" lon="11.7761407"><ele>0.5</ele><time>2026-05-05T14:46:27.267Z</time></trkpt><trkpt lat="45.1745961" lon="11.7761347"><ele>0.0</ele><time>2026-05-05T14:46:28.267Z</time></trkpt><trkpt lat="45.1743098" lon="11.7761246"><ele>0.0</ele><time>2026-05-05T14:46:29.267Z</time></trkpt><trkpt lat="45.1740276" lon="11.7761184"><ele>0.0</ele><time>2026-05-05T14:46:30.267Z</time></trkpt><trkpt lat="45.1737453" lon="11.7761101"><ele>0.0</ele><time>2026-05-05T14:46:31.266Z</time></trkpt><trkpt lat="45.1734645" lon="11.7761034"><ele>0.0</ele><time>2026-05-05T14:46:32.267Z</time></trkpt><trkpt lat="45.1731901" lon="11.7760975"><ele>0.0</ele><time>2026-05-05T14:46:33.267Z</time></trkpt><trkpt lat="45.1729138" lon="11.7760857"><ele>0.0</ele><time>2026-05-05T14:46:34.267Z</time></trkpt><trkpt lat="45.1726427" lon="11.7760726"><ele>0.0</ele><time>2026-05-05T14:46:35.267Z</time></trkpt><trkpt lat="45.1723705" lon="11.7760672"><ele>0.0</ele><time>2026-05-05T14:46:36.266Z</time></trkpt><trkpt lat="45.1720962" lon="11.776055"><ele>0.0</ele><time>2026-05-05T14:46:37.266Z</time></trkpt><trkpt lat="45.1718276" lon="11.7760434"><ele>0.0</ele><time>2026-05-05T14:46:38.266Z</time></trkpt><trkpt lat="45.1715587" lon="11.7760321"><ele>-0.5</ele><time>2026-05-05T14:46:39.266Z</time></trkpt><trkpt lat="45.1712931" lon="11.776029"><ele>-1.0</ele><time>2026-05-05T14:46:40.267Z</time></trkpt><trkpt lat="45.171027" lon="11.7760238"><ele>-0.5</ele><time>2026-05-05T14:46:41.267Z</time></trkpt><trkpt lat="45.1707587" lon="11.7760186"><ele>0.0</ele><time>2026-05-05T14:46:42.267Z</time></trkpt><trkpt lat="45.1704913" lon="11.776014"><ele>0.0</ele><time>2026-05-05T14:46:43.267Z</time></trkpt><trkpt lat="45.1702183" lon="11.7760055"><ele>0.0</ele><time>2026-05-05T14:46:44.267Z</time></trkpt><trkpt lat="45.1699433" lon="11.7759943"><ele>0.0</ele><time>2026-05-05T14:46:45.267Z</time></trkpt><trkpt lat="45.16967" lon="11.7759852"><ele>0.0</ele><time>2026-05-05T14:46:46.266Z</time></trkpt><trkpt lat="45.1693971" lon="11.7759747"><ele>0.0</ele><time>2026-05-05T14:46:47.267Z</time></trkpt><trkpt lat="45.1691224" lon="11.7759656"><ele>0.0</ele><time>2026-05-05T14:46:48.267Z</time></trkpt><trkpt lat="45.168851" lon="11.7759525"><ele>1.5</ele><time>2026-05-05T14:46:49.266Z</time></trkpt><trkpt lat="45.1685774" lon="11.7759454"><ele>3.0</ele><time>2026-05-05T14:46:50.267Z</time></trkpt><trkpt lat="45.1683017" lon="11.7759342"><ele>1.5</ele><time>2026-05-05T14:46:51.267Z</time></trkpt><trkpt lat="45.1680198" lon="11.7759257"><ele>0.0</ele><time>2026-05-05T14:46:52.267Z</time></trkpt><trkpt lat="45.1677413" lon="11.7759168"><ele>0.0</ele><time>2026-05-05T14:46:53.267Z</time></trkpt><trkpt lat="45.1674651" lon="11.7759125"><ele>0.0</ele><time>2026-05-05T14:46:54.267Z</time></trkpt><trkpt lat="45.1671881" lon="11.7758973"><ele>0.0</ele><time>2026-05-05T14:46:55.266Z</time></trkpt><trkpt lat="45.1669066" lon="11.7758922"><ele>0.0</ele><time>2026-05-05T14:46:56.267Z</time></trkpt><trkpt lat="45.1666225" lon="11.7758897"><ele>0.5</ele><time>2026-05-05T14:46:57.267Z</time></trkpt><trkpt lat="45.1663406" lon="11.7758858"><ele>1.0</ele><time>2026-05-05T14:46:58.266Z</time></trkpt><trkpt lat="45.1660625" lon="11.7758782"><ele>1.0</ele><time>2026-05-05T14:46:59.267Z</time></trkpt><trkpt lat="45.1657763" lon="11.7758684"><ele>1.0</ele><time>2026-05-05T14:47:00.267Z</time></trkpt><trkpt lat="45.1654931" lon="11.7758594"><ele>0.5</ele><time>2026-05-05T14:47:01.266Z</time></trkpt><trkpt lat="45.1652128" lon="11.775844"><ele>0.0</ele><time>2026-05-05T14:47:02.267Z</time></trkpt><trkpt lat="45.164931" lon="11.7758343"><ele>0.0</ele><time>2026-05-05T14:47:03.267Z</time></trkpt><trkpt lat="45.1646538" lon="11.7758276"><ele>0.0</ele><time>2026-05-05T14:47:04.267Z</time></trkpt><trkpt lat="45.1643781" lon="11.7758193"><ele>0.0</ele><time>2026-05-05T14:47:05.266Z</time></trkpt><trkpt lat="45.1641024" lon="11.7758101"><ele>0.0</ele><time>2026-05-05T14:47:06.266Z</time></trkpt><trkpt lat="45.163825" lon="11.7757947"><ele>0.0</ele><time>2026-05-05T14:47:07.267Z</time></trkpt><trkpt lat="45.163554" lon="11.7757729"><ele>0.0</ele><time>2026-05-05T14:47:08.267Z</time></trkpt><trkpt lat="45.1632812" lon="11.775747"><ele>0.5</ele><time>2026-05-05T14:47:09.267Z</time></trkpt><trkpt lat="45.1630049" lon="11.7757237"><ele>1.0</ele><time>2026-05-05T14:47:10.266Z</time></trkpt><trkpt lat="45.1627298" lon="11.7757049"><ele>1.0</ele><time>2026-05-05T14:47:11.267Z</time></trkpt><trkpt lat="45.1624533" lon="11.7756909"><ele>1.0</ele><time>2026-05-05T14:47:12.267Z</time></trkpt><trkpt lat="45.1621821" lon="11.7756841"><ele>0.5</ele><time>2026-05-05T14:47:13.266Z</time></trkpt><trkpt lat="45.1619069" lon="11.7756762"><ele>0.0</ele><time>2026-05-05T14:47:14.267Z</time></trkpt><trkpt lat="45.1616344" lon="11.7756686"><ele>0.0</ele><time>2026-05-05T14:47:15.266Z</time></trkpt><trkpt lat="45.1613592" lon="11.7756609"><ele>0.0</ele><time>2026-05-05T14:47:16.267Z</time></trkpt><trkpt lat="45.1610856" lon="11.7756558"><ele>0.0</ele><time>2026-05-05T14:47:17.267Z</time></trkpt><trkpt lat="45.160817" lon="11.7756477"><ele>0.0</ele><time>2026-05-05T14:47:18.267Z</time></trkpt><trkpt lat="45.1605515" lon="11.7756429"><ele>-0.5</ele><time>2026-05-05T14:47:19.266Z</time></trkpt><trkpt lat="45.160278" lon="11.7756325"><ele>-1.0</ele><time>2026-05-05T14:47:20.267Z</time></trkpt><trkpt lat="45.1600117" lon="11.7756245"><ele>-0.5</ele><time>2026-05-05T14:47:21.267Z</time></trkpt><trkpt lat="45.159737" lon="11.7756165"><ele>0.0</ele><time>2026-05-05T14:47:22.266Z</time></trkpt><trkpt lat="45.1594621" lon="11.7756126"><ele>0.0</ele><time>2026-05-05T14:47:23.267Z</time></trkpt><trkpt lat="45.1591884" lon="11.7756032"><ele>0.0</ele><time>2026-05-05T14:47:24.267Z</time></trkpt><trkpt lat="45.1589192" lon="11.7755963"><ele>-1.0</ele><time>2026-05-05T14:47:25.267Z</time></trkpt><trkpt lat="45.1586448" lon="11.7755856"><ele>-2.0</ele><time>2026-05-05T14:47:26.267Z</time></trkpt><trkpt lat="45.1583744" lon="11.7755822"><ele>-1.5</ele><time>2026-05-05T14:47:27.267Z</time></trkpt><trkpt lat="45.1581021" lon="11.7755744"><ele>-1.0</ele><time>2026-05-05T14:47:28.267Z</time></trkpt><trkpt lat="45.1578216" lon="11.7755719"><ele>-1.0</ele><time>2026-05-05T14:47:29.266Z</time></trkpt><trkpt lat="45.1575477" lon="11.775561"><ele>-1.0</ele><time>2026-05-05T14:47:30.267Z</time></trkpt><trkpt lat="45.1572747" lon="11.7755496"><ele>-0.5</ele><time>2026-05-05T14:47:31.266Z</time></trkpt><trkpt lat="45.1570045" lon="11.7755433"><ele>0.0</ele><time>2026-05-05T14:47:32.267Z</time></trkpt><trkpt lat="45.1567317" lon="11.7755329"><ele>2.0</ele><time>2026-05-05T14:47:33.267Z</time></trkpt><trkpt lat="45.156459" lon="11.7755238"><ele>4.0</ele><time>2026-05-05T14:47:34.267Z</time></trkpt><trkpt lat="45.1561861" lon="11.7755125"><ele>4.0</ele><time>2026-05-05T14:47:35.267Z</time></trkpt><trkpt lat="45.1559112" lon="11.7755007"><ele>4.0</ele><time>2026-05-05T14:47:36.266Z</time></trkpt><trkpt lat="45.1556356" lon="11.7754862"><ele>3.5</ele><time>2026-05-05T14:47:37.267Z</time></trkpt><trkpt lat="45.1553595" lon="11.7754793"><ele>3.0</ele><time>2026-05-05T14:47:38.266Z</time></trkpt><trkpt lat="45.1550815" lon="11.7754677"><ele>2.5</ele><time>2026-05-05T14:47:39.267Z</time></trkpt><trkpt lat="45.1548089" lon="11.7754509"><ele>2.0</ele><time>2026-05-05T14:47:40.266Z</time></trkpt><trkpt lat="45.1545407" lon="11.7754408"><ele>2.0</ele><time>2026-05-05T14:47:41.267Z</time></trkpt><trkpt lat="45.1542705" lon="11.7754389"><ele>2.0</ele><time>2026-05-05T14:47:42.267Z</time></trkpt><trkpt lat="45.1539994" lon="11.7754288"><ele>1.5</ele><time>2026-05-05T14:47:43.266Z</time></trkpt><trkpt lat="45.153727" lon="11.7754206"><ele>1.0</ele><time>2026-05-05T14:47:44.266Z</time></trkpt><trkpt lat="45.1534549" lon="11.7754107"><ele>2.5</ele><time>2026-05-05T14:47:45.267Z</time></trkpt><trkpt lat="45.1531837" lon="11.7754033"><ele>4.0</ele><time>2026-05-05T14:47:46.266Z</time></trkpt><trkpt lat="45.1529091" lon="11.7753961"><ele>4.0</ele><time>2026-05-05T14:47:47.267Z</time></trkpt><trkpt lat="45.1526346" lon="11.7753853"><ele>4.0</ele><time>2026-05-05T14:47:48.266Z</time></trkpt><trkpt lat="45.1523616" lon="11.7753796"><ele>3.0</ele><time>2026-05-05T14:47:49.266Z</time></trkpt><trkpt lat="45.1520892" lon="11.7753709"><ele>2.0</ele><time>2026-05-05T14:47:50.266Z</time></trkpt><trkpt lat="45.1518182" lon="11.7753631"><ele>2.0</ele><time>2026-05-05T14:47:51.267Z</time></trkpt><trkpt lat="45.1515485" lon="11.7753553"><ele>2.0</ele><time>2026-05-05T14:47:52.267Z</time></trkpt><trkpt lat="45.1512755" lon="11.7753498"><ele>2.5</ele><time>2026-05-05T14:47:53.267Z</time></trkpt><trkpt lat="45.1510027" lon="11.7753435"><ele>3.0</ele><time>2026-05-05T14:47:54.266Z</time></trkpt><trkpt lat="45.150726" lon="11.7753322"><ele>2.5</ele><time>2026-05-05T14:47:55.267Z</time></trkpt><trkpt lat="45.1504491" lon="11.7753217"><ele>2.0</ele><time>2026-05-05T14:47:56.267Z</time></trkpt><trkpt lat="45.1501758" lon="11.7753136"><ele>2.0</ele><time>2026-05-05T14:47:57.267Z</time></trkpt><trkpt lat="45.1499013" lon="11.7753045"><ele>2.0</ele><time>2026-05-05T14:47:58.266Z</time></trkpt><trkpt lat="45.1496248" lon="11.7752979"><ele>2.0</ele><time>2026-05-05T14:47:59.266Z</time></trkpt><trkpt lat="45.1493548" lon="11.7752847"><ele>2.0</ele><time>2026-05-05T14:48:00.266Z</time></trkpt><trkpt lat="45.1490821" lon="11.7752725"><ele>1.5</ele><time>2026-05-05T14:48:01.267Z</time></trkpt><trkpt lat="45.1488113" lon="11.7752664"><ele>1.0</ele><time>2026-05-05T14:48:02.267Z</time></trkpt><trkpt lat="45.1485419" lon="11.7752554"><ele>1.0</ele><time>2026-05-05T14:48:03.266Z</time></trkpt><trkpt lat="45.1482723" lon="11.7752406"><ele>1.0</ele><time>2026-05-05T14:48:04.266Z</time></trkpt><trkpt lat="45.1480026" lon="11.7752324"><ele>1.5</ele><time>2026-05-05T14:48:05.266Z</time></trkpt><trkpt lat="45.1477337" lon="11.7752216"><ele>2.0</ele><time>2026-05-05T14:48:06.267Z</time></trkpt><trkpt lat="45.1474655" lon="11.7752083"><ele>1.5</ele><time>2026-05-05T14:48:07.267Z</time></trkpt><trkpt lat="45.1471967" lon="11.7752037"><ele>1.0</ele><time>2026-05-05T14:48:08.266Z</time></trkpt><trkpt lat="45.1469235" lon="11.7751993"><ele>1.0</ele><time>2026-05-05T14:48:09.267Z</time></trkpt><trkpt lat="45.1466468" lon="11.7751975"><ele>1.0</ele><time>2026-05-05T14:48:10.266Z</time></trkpt><trkpt lat="45.1463699" lon="11.7751889"><ele>1.5</ele><time>2026-05-05T14:48:11.267Z</time></trkpt><trkpt lat="45.1460838" lon="11.7751853"><ele>2.0</ele><time>2026-05-05T14:48:12.267Z</time></trkpt><trkpt lat="45.1458003" lon="11.7751799"><ele>2.5</ele><time>2026-05-05T14:48:13.266Z</time></trkpt><trkpt lat="45.1455182" lon="11.7751768"><ele>3.0</ele><time>2026-05-05T14:48:14.266Z</time></trkpt><trkpt lat="45.1452351" lon="11.7751738"><ele>3.0</ele><time>2026-05-05T14:48:15.267Z</time></trkpt><trkpt lat="45.1449551" lon="11.7751691"><ele>3.0</ele><time>2026-05-05T14:48:16.266Z</time></trkpt><trkpt lat="45.144676" lon="11.775159"><ele>3.0</ele><time>2026-05-05T14:48:17.267Z</time></trkpt><trkpt lat="45.1443925" lon="11.7751514"><ele>3.0</ele><time>2026-05-05T14:48:18.266Z</time></trkpt><trkpt lat="45.1441166" lon="11.7751381"><ele>3.5</ele><time>2026-05-05T14:48:19.267Z</time></trkpt><trkpt lat="45.1438345" lon="11.7751355"><ele>4.0</ele><time>2026-05-05T14:48:20.266Z</time></trkpt><trkpt lat="45.1435513" lon="11.7751276"><ele>4.0</ele><time>2026-05-05T14:48:21.266Z</time></trkpt><trkpt lat="45.1432722" lon="11.7751188"><ele>4.0</ele><time>2026-05-05T14:48:22.267Z</time></trkpt><trkpt lat="45.1429917" lon="11.7751147"><ele>3.5</ele><time>2026-05-05T14:48:23.266Z</time></trkpt><trkpt lat="45.142718" lon="11.7751003"><ele>3.0</ele><time>2026-05-05T14:48:24.266Z</time></trkpt><trkpt lat="45.142435" lon="11.7750911"><ele>3.5</ele><time>2026-05-05T14:48:25.267Z</time></trkpt><trkpt lat="45.1421508" lon="11.7750837"><ele>4.0</ele><time>2026-05-05T14:48:26.266Z</time></trkpt><trkpt lat="45.141869" lon="11.7750753"><ele>4.0</ele><time>2026-05-05T14:48:27.267Z</time></trkpt><trkpt lat="45.1415852" lon="11.7750674"><ele>4.0</ele><time>2026-05-05T14:48:28.267Z</time></trkpt><trkpt lat="45.1412981" lon="11.7750578"><ele>4.0</ele><time>2026-05-05T14:48:29.266Z</time></trkpt><trkpt lat="45.1410198" lon="11.7750469"><ele>4.0</ele><time>2026-05-05T14:48:30.267Z</time></trkpt><trkpt lat="45.1407339" lon="11.7750363"><ele>4.5</ele><time>2026-05-05T14:48:31.266Z</time></trkpt><trkpt lat="45.1404478" lon="11.7750312"><ele>5.0</ele><time>2026-05-05T14:48:32.266Z</time></trkpt><trkpt lat="45.1401708" lon="11.7750258"><ele>5.0</ele><time>2026-05-05T14:48:33.267Z</time></trkpt><trkpt lat="45.1398899" lon="11.7750207"><ele>5.0</ele><time>2026-05-05T14:48:34.266Z</time></trkpt><trkpt lat="45.1396105" lon="11.7750145"><ele>4.5</ele><time>2026-05-05T14:48:35.266Z</time></trkpt><trkpt lat="45.1393259" lon="11.7750003"><ele>4.0</ele><time>2026-05-05T14:48:36.267Z</time></trkpt><trkpt lat="45.1390408" lon="11.7749899"><ele>4.0</ele><time>2026-05-05T14:48:37.266Z</time></trkpt><trkpt lat="45.1387564" lon="11.7749843"><ele>4.0</ele><time>2026-05-05T14:48:38.267Z</time></trkpt><trkpt lat="45.1384713" lon="11.774976"><ele>3.0</ele><time>2026-05-05T14:48:39.266Z</time></trkpt><trkpt lat="45.1381806" lon="11.7749726"><ele>2.0</ele><time>2026-05-05T14:48:40.266Z</time></trkpt><trkpt lat="45.1378917" lon="11.7749635"><ele>2.0</ele><time>2026-05-05T14:48:41.267Z</time></trkpt><trkpt lat="45.1376025" lon="11.7749531"><ele>2.0</ele><time>2026-05-05T14:48:42.267Z</time></trkpt><trkpt lat="45.1373151" lon="11.7749395"><ele>2.0</ele><time>2026-05-05T14:48:43.267Z</time></trkpt><trkpt lat="45.1370258" lon="11.7749303"><ele>2.0</ele><time>2026-05-05T14:48:44.266Z</time></trkpt><trkpt lat="45.1367296" lon="11.7749224"><ele>1.5</ele><time>2026-05-05T14:48:45.267Z</time></trkpt><trkpt lat="45.1364277" lon="11.7749135"><ele>1.0</ele><time>2026-05-05T14:48:46.267Z</time></trkpt><trkpt lat="45.136126" lon="11.7749058"><ele>1.0</ele><time>2026-05-05T14:48:47.266Z</time></trkpt><trkpt lat="45.1358255" lon="11.7748914"><ele>1.0</ele><time>2026-05-05T14:48:48.266Z</time></trkpt><trkpt lat="45.1355216" lon="11.7748832"><ele>1.0</ele><time>2026-05-05T14:48:49.266Z</time></trkpt><trkpt lat="45.1352214" lon="11.7748667"><ele>1.0</ele><time>2026-05-05T14:48:50.267Z</time></trkpt><trkpt lat="45.134924" lon="11.7748427"><ele>1.0</ele><time>2026-05-05T14:48:51.267Z</time></trkpt><trkpt lat="45.1346283" lon="11.7748101"><ele>1.0</ele><time>2026-05-05T14:48:52.267Z</time></trkpt><trkpt lat="45.1343358" lon="11.7747672"><ele>1.5</ele><time>2026-05-05T14:48:53.266Z</time></trkpt><trkpt lat="45.1340424" lon="11.7747301"><ele>2.0</ele><time>2026-05-05T14:48:54.267Z</time></trkpt><trkpt lat="45.1337494" lon="11.7746839"><ele>2.0</ele><time>2026-05-05T14:48:55.267Z</time></trkpt><trkpt lat="45.1334625" lon="11.7746333"><ele>2.0</ele><time>2026-05-05T14:48:56.267Z</time></trkpt><trkpt lat="45.133175" lon="11.7745812"><ele>1.5</ele><time>2026-05-05T14:48:57.267Z</time></trkpt><trkpt lat="45.1328868" lon="11.7745277"><ele>1.0</ele><time>2026-05-05T14:48:58.267Z</time></trkpt><trkpt lat="45.1326025" lon="11.7744697"><ele>1.0</ele><time>2026-05-05T14:48:59.266Z</time></trkpt><trkpt lat="45.1323202" lon="11.7744101"><ele>1.0</ele><time>2026-05-05T14:49:00.267Z</time></trkpt><trkpt lat="45.1320409" lon="11.7743454"><ele>1.0</ele><time>2026-05-05T14:49:01.267Z</time></trkpt><trkpt lat="45.1317567" lon="11.7742815"><ele>1.0</ele><time>2026-05-05T14:49:02.267Z</time></trkpt><trkpt lat="45.1314696" lon="11.7742162"><ele>1.0</ele><time>2026-05-05T14:49:03.267Z</time></trkpt><trkpt lat="45.131181" lon="11.7741535"><ele>1.0</ele><time>2026-05-05T14:49:04.267Z</time></trkpt><trkpt lat="45.1308971" lon="11.7740892"><ele>1.0</ele><time>2026-05-05T14:49:05.266Z</time></trkpt><trkpt lat="45.1306142" lon="11.7740265"><ele>1.0</ele><time>2026-05-05T14:49:06.266Z</time></trkpt><trkpt lat="45.1303291" lon="11.7739584"><ele>1.0</ele><time>2026-05-05T14:49:07.266Z</time></trkpt><trkpt lat="45.1300467" lon="11.7739005"><ele>1.0</ele><time>2026-05-05T14:49:08.266Z</time></trkpt><trkpt lat="45.1297707" lon="11.7738285"><ele>1.5</ele><time>2026-05-05T14:49:09.266Z</time></trkpt><trkpt lat="45.1294905" lon="11.7737681"><ele>2.0</ele><time>2026-05-05T14:49:10.266Z</time></trkpt><trkpt lat="45.1292093" lon="11.7737051"><ele>2.5</ele><time>2026-05-05T14:49:11.266Z</time></trkpt><trkpt lat="45.1289318" lon="11.7736435"><ele>3.0</ele><time>2026-05-05T14:49:12.267Z</time></trkpt><trkpt lat="45.12866" lon="11.7735776"><ele>3.0</ele><time>2026-05-05T14:49:13.267Z</time></trkpt><trkpt lat="45.1283873" lon="11.7735266"><ele>3.0</ele><time>2026-05-05T14:49:14.267Z</time></trkpt><trkpt lat="45.1281128" lon="11.7734733"><ele>2.5</ele><time>2026-05-05T14:49:15.266Z</time></trkpt><trkpt lat="45.1278406" lon="11.7734185"><ele>2.0</ele><time>2026-05-05T14:49:16.267Z</time></trkpt><trkpt lat="45.1275723" lon="11.773359"><ele>2.5</ele><time>2026-05-05T14:49:17.267Z</time></trkpt><trkpt lat="45.1272965" lon="11.7732997"><ele>3.0</ele><time>2026-05-05T14:49:18.267Z</time></trkpt><trkpt lat="45.1270065" lon="11.7732339"><ele>3.0</ele><time>2026-05-05T14:49:19.267Z</time></trkpt><trkpt lat="45.1267151" lon="11.7731729"><ele>3.0</ele><time>2026-05-05T14:49:20.266Z</time></trkpt><trkpt lat="45.1264181" lon="11.7730999"><ele>3.0</ele><time>2026-05-05T14:49:21.266Z</time></trkpt><trkpt lat="45.1261132" lon="11.7730324"><ele>3.0</ele><time>2026-05-05T14:49:22.267Z</time></trkpt><trkpt lat="45.1258073" lon="11.7729695"><ele>2.5</ele><time>2026-05-05T14:49:23.267Z</time></trkpt><trkpt lat="45.1254974" lon="11.7729049"><ele>2.0</ele><time>2026-05-05T14:49:24.267Z</time></trkpt><trkpt lat="45.1251853" lon="11.7728385"><ele>1.5</ele><time>2026-05-05T14:49:25.266Z</time></trkpt><trkpt lat="45.1248781" lon="11.7727656"><ele>1.0</ele><time>2026-05-05T14:49:26.266Z</time></trkpt><trkpt lat="45.1245682" lon="11.7726885"><ele>1.0</ele><time>2026-05-05T14:49:27.266Z</time></trkpt><trkpt lat="45.124265" lon="11.7725939"><ele>1.0</ele><time>2026-05-05T14:49:28.266Z</time></trkpt><trkpt lat="45.1239688" lon="11.7724879"><ele>1.5</ele><time>2026-05-05T14:49:29.266Z</time></trkpt><trkpt lat="45.1236817" lon="11.7723743"><ele>2.0</ele><time>2026-05-05T14:49:30.266Z</time></trkpt><trkpt lat="45.1233962" lon="11.7722526"><ele>2.5</ele><time>2026-05-05T14:49:31.266Z</time></trkpt><trkpt lat="45.1231168" lon="11.7721139"><ele>3.0</ele><time>2026-05-05T14:49:32.266Z</time></trkpt><trkpt lat="45.1228378" lon="11.7719707"><ele>3.0</ele><time>2026-05-05T14:49:33.267Z</time></trkpt><trkpt lat="45.12256" lon="11.7718121"><ele>3.0</ele><time>2026-05-05T14:49:34.267Z</time></trkpt><trkpt lat="45.1222868" lon="11.7716449"><ele>3.5</ele><time>2026-05-05T14:49:35.267Z</time></trkpt><trkpt lat="45.1220156" lon="11.7714635"><ele>4.0</ele><time>2026-05-05T14:49:36.267Z</time></trkpt><trkpt lat="45.1217528" lon="11.7712626"><ele>3.5</ele><time>2026-05-05T14:49:37.267Z</time></trkpt><trkpt lat="45.1214952" lon="11.7710575"><ele>3.0</ele><time>2026-05-05T14:49:38.266Z</time></trkpt><trkpt lat="45.1212407" lon="11.7708456"><ele>3.0</ele><time>2026-05-05T14:49:39.266Z</time></trkpt><trkpt lat="45.120994" lon="11.7706239"><ele>3.0</ele><time>2026-05-05T14:49:40.267Z</time></trkpt><trkpt lat="45.1207474" lon="11.7704037"><ele>4.0</ele><time>2026-05-05T14:49:41.267Z</time></trkpt><trkpt lat="45.1205037" lon="11.7701852"><ele>5.0</ele><time>2026-05-05T14:49:42.266Z</time></trkpt><trkpt lat="45.1202585" lon="11.7699578"><ele>5.0</ele><time>2026-05-05T14:49:43.267Z</time></trkpt><trkpt lat="45.1200072" lon="11.769732"><ele>5.0</ele><time>2026-05-05T14:49:44.266Z</time></trkpt><trkpt lat="45.1197534" lon="11.7695095"><ele>4.0</ele><time>2026-05-05T14:49:45.267Z</time></trkpt><trkpt lat="45.1195037" lon="11.7692781"><ele>3.0</ele><time>2026-05-05T14:49:46.267Z</time></trkpt><trkpt lat="45.1192526" lon="11.7690582"><ele>2.0</ele><time>2026-05-05T14:49:47.266Z</time></trkpt><trkpt lat="45.1190025" lon="11.7688311"><ele>1.0</ele><time>2026-05-05T14:49:48.267Z</time></trkpt><trkpt lat="45.1187511" lon="11.7686142"><ele>2.0</ele><time>2026-05-05T14:49:49.267Z</time></trkpt><trkpt lat="45.1184998" lon="11.7683847"><ele>3.0</ele><time>2026-05-05T14:49:50.266Z</time></trkpt><trkpt lat="45.1182458" lon="11.7681541"><ele>3.0</ele><time>2026-05-05T14:49:51.267Z</time></trkpt><trkpt lat="45.1179978" lon="11.7679264"><ele>3.0</ele><time>2026-05-05T14:49:52.267Z</time></trkpt><trkpt lat="45.117747" lon="11.7677008"><ele>3.0</ele><time>2026-05-05T14:49:53.267Z</time></trkpt><trkpt lat="45.1174999" lon="11.7674752"><ele>3.0</ele><time>2026-05-05T14:49:54.266Z</time></trkpt><trkpt lat="45.1172524" lon="11.7672439"><ele>2.5</ele><time>2026-05-05T14:49:55.267Z</time></trkpt><trkpt lat="45.1170069" lon="11.7670211"><ele>2.0</ele><time>2026-05-05T14:49:56.267Z</time></trkpt><trkpt lat="45.1167547" lon="11.766794"><ele>2.5</ele><time>2026-05-05T14:49:57.267Z</time></trkpt><trkpt lat="45.1164995" lon="11.7665632"><ele>3.0</ele><time>2026-05-05T14:49:58.266Z</time></trkpt><trkpt lat="45.1162423" lon="11.7663252"><ele>3.0</ele><time>2026-05-05T14:49:59.267Z</time></trkpt><trkpt lat="45.1159813" lon="11.7660925"><ele>3.0</ele><time>2026-05-05T14:50:00.267Z</time></trkpt><trkpt lat="45.1157208" lon="11.7658598"><ele>2.5</ele><time>2026-05-05T14:50:01.266Z</time></trkpt><trkpt lat="45.1154607" lon="11.7656273"><ele>2.0</ele><time>2026-05-05T14:50:02.267Z</time></trkpt><trkpt lat="45.1152049" lon="11.7653928"><ele>3.0</ele><time>2026-05-05T14:50:03.266Z</time></trkpt><trkpt lat="45.1149483" lon="11.7651589"><ele>4.0</ele><time>2026-05-05T14:50:04.267Z</time></trkpt><trkpt lat="45.1146938" lon="11.764929"><ele>4.0</ele><time>2026-05-05T14:50:05.266Z</time></trkpt><trkpt lat="45.114438" lon="11.7646973"><ele>4.0</ele><time>2026-05-05T14:50:06.266Z</time></trkpt><trkpt lat="45.114183" lon="11.764469"><ele>4.0</ele><time>2026-05-05T14:50:07.266Z</time></trkpt><trkpt lat="45.1139304" lon="11.7642466"><ele>4.0</ele><time>2026-05-05T14:50:08.266Z</time></trkpt><trkpt lat="45.1136754" lon="11.7640171"><ele>4.0</ele><time>2026-05-05T14:50:09.267Z</time></trkpt><trkpt lat="45.1134199" lon="11.7637822"><ele>4.0</ele><time>2026-05-05T14:50:10.266Z</time></trkpt><trkpt lat="45.1131619" lon="11.7635439"><ele>4.5</ele><time>2026-05-05T14:50:11.267Z</time></trkpt><trkpt lat="45.1128981" lon="11.7633144"><ele>5.0</ele><time>2026-05-05T14:50:12.267Z</time></trkpt><trkpt lat="45.1126331" lon="11.7630749"><ele>4.5</ele><time>2026-05-05T14:50:13.266Z</time></trkpt><trkpt lat="45.1123662" lon="11.7628332"><ele>4.0</ele><time>2026-05-05T14:50:14.266Z</time></trkpt><trkpt lat="45.112095" lon="11.7625907"><ele>4.0</ele><time>2026-05-05T14:50:15.267Z</time></trkpt><trkpt lat="45.1118194" lon="11.7623468"><ele>4.0</ele><time>2026-05-05T14:50:16.267Z</time></trkpt><trkpt lat="45.1115444" lon="11.7620983"><ele>3.5</ele><time>2026-05-05T14:50:17.267Z</time></trkpt><trkpt lat="45.1112664" lon="11.7618513"><ele>3.0</ele><time>2026-05-05T14:50:18.266Z</time></trkpt><trkpt lat="45.1109847" lon="11.7615985"><ele>2.5</ele><time>2026-05-05T14:50:19.267Z</time></trkpt><trkpt lat="45.1107046" lon="11.7613476"><ele>2.0</ele><time>2026-05-05T14:50:20.267Z</time></trkpt><trkpt lat="45.110425" lon="11.7610982"><ele>2.0</ele><time>2026-05-05T14:50:21.266Z</time></trkpt><trkpt lat="45.1101449" lon="11.7608409"><ele>2.0</ele><time>2026-05-05T14:50:22.266Z</time></trkpt><trkpt lat="45.1098634" lon="11.7605919"><ele>2.0</ele><time>2026-05-05T14:50:23.267Z</time></trkpt><trkpt lat="45.1095841" lon="11.760336"><ele>2.0</ele><time>2026-05-05T14:50:24.267Z</time></trkpt><trkpt lat="45.1093054" lon="11.7600822"><ele>2.0</ele><time>2026-05-05T14:50:25.266Z</time></trkpt><trkpt lat="45.1090268" lon="11.7598304"><ele>2.0</ele><time>2026-05-05T14:50:26.267Z</time></trkpt><trkpt lat="45.1087514" lon="11.7595787"><ele>2.0</ele><time>2026-05-05T14:50:27.267Z</time></trkpt><trkpt lat="45.1084778" lon="11.7593346"><ele>2.0</ele><time>2026-05-05T14:50:28.266Z</time></trkpt><trkpt lat="45.1082073" lon="11.7590928"><ele>2.5</ele><time>2026-05-05T14:50:29.267Z</time></trkpt><trkpt lat="45.1079366" lon="11.7588533"><ele>3.0</ele><time>2026-05-05T14:50:30.267Z</time></trkpt><trkpt lat="45.1076709" lon="11.7586186"><ele>3.0</ele><time>2026-05-05T14:50:31.266Z</time></trkpt><trkpt lat="45.1074108" lon="11.7583882"><ele>3.0</ele><time>2026-05-05T14:50:32.266Z</time></trkpt><trkpt lat="45.1071548" lon="11.7581561"><ele>3.0</ele><time>2026-05-05T14:50:33.267Z</time></trkpt><trkpt lat="45.1068976" lon="11.7579223"><ele>3.0</ele><time>2026-05-05T14:50:34.267Z</time></trkpt><trkpt lat="45.1066437" lon="11.7576987"><ele>3.5</ele><time>2026-05-05T14:50:35.267Z</time></trkpt><trkpt lat="45.1063968" lon="11.7574786"><ele>4.0</ele><time>2026-05-05T14:50:36.266Z</time></trkpt><trkpt lat="45.1061463" lon="11.7572621"><ele>4.0</ele><time>2026-05-05T14:50:37.267Z</time></trkpt><trkpt lat="45.1058995" lon="11.7570474"><ele>4.0</ele><time>2026-05-05T14:50:38.266Z</time></trkpt><trkpt lat="45.1056489" lon="11.7568428"><ele>3.0</ele><time>2026-05-05T14:50:39.267Z</time></trkpt><trkpt lat="45.1054036" lon="11.7566348"><ele>2.0</ele><time>2026-05-05T14:50:40.267Z</time></trkpt><trkpt lat="45.1051489" lon="11.7564301"><ele>2.5</ele><time>2026-05-05T14:50:41.267Z</time></trkpt><trkpt lat="45.1048945" lon="11.7562331"><ele>3.0</ele><time>2026-05-05T14:50:42.267Z</time></trkpt><trkpt lat="45.1046388" lon="11.7560443"><ele>3.0</ele><time>2026-05-05T14:50:43.267Z</time></trkpt><trkpt lat="45.1043864" lon="11.7558589"><ele>3.0</ele><time>2026-05-05T14:50:44.266Z</time></trkpt><trkpt lat="45.1041376" lon="11.7556862"><ele>2.5</ele><time>2026-05-05T14:50:45.267Z</time></trkpt><trkpt lat="45.1038866" lon="11.755513"><ele>2.0</ele><time>2026-05-05T14:50:46.266Z</time></trkpt><trkpt lat="45.1036382" lon="11.7553443"><ele>2.0</ele><time>2026-05-05T14:50:47.267Z</time></trkpt><trkpt lat="45.1033849" lon="11.7551856"><ele>2.0</ele><time>2026-05-05T14:50:48.267Z</time></trkpt><trkpt lat="45.1031329" lon="11.7550296"><ele>3.0</ele><time>2026-05-05T14:50:49.267Z</time></trkpt><trkpt lat="45.1028805" lon="11.7548876"><ele>4.0</ele><time>2026-05-05T14:50:50.266Z</time></trkpt><trkpt lat="45.1026247" lon="11.7547401"><ele>2.5</ele><time>2026-05-05T14:50:51.266Z</time></trkpt><trkpt lat="45.1023676" lon="11.7545972"><ele>1.0</ele><time>2026-05-05T14:50:52.266Z</time></trkpt><trkpt lat="45.1021077" lon="11.7544509"><ele>2.0</ele><time>2026-05-05T14:50:53.266Z</time></trkpt><trkpt lat="45.1018486" lon="11.7543122"><ele>3.0</ele><time>2026-05-05T14:50:54.267Z</time></trkpt><trkpt lat="45.1015838" lon="11.7541587"><ele>3.0</ele><time>2026-05-05T14:50:55.267Z</time></trkpt><trkpt lat="45.1012984" lon="11.7539962"><ele>3.0</ele><time>2026-05-05T14:50:56.267Z</time></trkpt><trkpt lat="45.1010249" lon="11.7538341"><ele>3.0</ele><time>2026-05-05T14:50:57.267Z</time></trkpt><trkpt lat="45.1007498" lon="11.7536655"><ele>3.0</ele><time>2026-05-05T14:50:58.267Z</time></trkpt><trkpt lat="45.1004765" lon="11.7535127"><ele>3.5</ele><time>2026-05-05T14:50:59.267Z</time></trkpt><trkpt lat="45.1002056" lon="11.7533559"><ele>4.0</ele><time>2026-05-05T14:51:00.267Z</time></trkpt><trkpt lat="45.0999322" lon="11.7531942"><ele>4.0</ele><time>2026-05-05T14:51:01.267Z</time></trkpt><trkpt lat="45.0996564" lon="11.7530353"><ele>4.0</ele><time>2026-05-05T14:51:02.266Z</time></trkpt><trkpt lat="45.099379" lon="11.75288"><ele>4.0</ele><time>2026-05-05T14:51:03.267Z</time></trkpt><trkpt lat="45.0990987" lon="11.7527146"><ele>4.0</ele><time>2026-05-05T14:51:04.267Z</time></trkpt><trkpt lat="45.0988215" lon="11.7525532"><ele>4.0</ele><time>2026-05-05T14:51:05.267Z</time></trkpt><trkpt lat="45.0985483" lon="11.752396"><ele>4.0</ele><time>2026-05-05T14:51:06.267Z</time></trkpt><trkpt lat="45.0982754" lon="11.752236"><ele>5.0</ele><time>2026-05-05T14:51:07.266Z</time></trkpt><trkpt lat="45.098003" lon="11.7520802"><ele>6.0</ele><time>2026-05-05T14:51:08.266Z</time></trkpt><trkpt lat="45.0977344" lon="11.7519243"><ele>5.5</ele><time>2026-05-05T14:51:09.266Z</time></trkpt><trkpt lat="45.0974646" lon="11.7517685"><ele>5.0</ele><time>2026-05-05T14:51:10.267Z</time></trkpt><trkpt lat="45.0971946" lon="11.7516093"><ele>5.0</ele><time>2026-05-05T14:51:11.266Z</time></trkpt><trkpt lat="45.0969262" lon="11.7514581"><ele>5.0</ele><time>2026-05-05T14:51:12.267Z</time></trkpt><trkpt lat="45.0966519" lon="11.7512982"><ele>6.5</ele><time>2026-05-05T14:51:13.267Z</time></trkpt><trkpt lat="45.0963781" lon="11.7511383"><ele>8.0</ele><time>2026-05-05T14:51:14.267Z</time></trkpt><trkpt lat="45.0961037" lon="11.7509803"><ele>8.0</ele><time>2026-05-05T14:51:15.266Z</time></trkpt><trkpt lat="45.0958271" lon="11.7508146"><ele>8.0</ele><time>2026-05-05T14:51:16.267Z</time></trkpt><trkpt lat="45.0955485" lon="11.7506534"><ele>5.0</ele><time>2026-05-05T14:51:17.267Z</time></trkpt><trkpt lat="45.0952657" lon="11.7504917"><ele>2.0</ele><time>2026-05-05T14:51:18.267Z</time></trkpt><trkpt lat="45.094982" lon="11.750327"><ele>3.0</ele><time>2026-05-05T14:51:19.266Z</time></trkpt><trkpt lat="45.0946995" lon="11.7501637"><ele>4.0</ele><time>2026-05-05T14:51:20.266Z</time></trkpt><trkpt lat="45.0944144" lon="11.7499952"><ele>4.0</ele><time>2026-05-05T14:51:21.267Z</time></trkpt><trkpt lat="45.0941299" lon="11.7498283"><ele>4.0</ele><time>2026-05-05T14:51:22.267Z</time></trkpt><trkpt lat="45.0938475" lon="11.7496611"><ele>4.0</ele><time>2026-05-05T14:51:23.266Z</time></trkpt><trkpt lat="45.0935619" lon="11.7494966"><ele>4.0</ele><time>2026-05-05T14:51:24.267Z</time></trkpt><trkpt lat="45.0932755" lon="11.7493273"><ele>3.5</ele><time>2026-05-05T14:51:25.267Z</time></trkpt><trkpt lat="45.0929875" lon="11.7491623"><ele>3.0</ele><time>2026-05-05T14:51:26.266Z</time></trkpt><trkpt lat="45.0926978" lon="11.7489889"><ele>3.5</ele><time>2026-05-05T14:51:27.266Z</time></trkpt><trkpt lat="45.0924072" lon="11.7488252"><ele>4.0</ele><time>2026-05-05T14:51:28.267Z</time></trkpt><trkpt lat="45.0921157" lon="11.7486598"><ele>4.0</ele><time>2026-05-05T14:51:29.266Z</time></trkpt><trkpt lat="45.091835" lon="11.7484951"><ele>4.0</ele><time>2026-05-05T14:51:30.267Z</time></trkpt><trkpt lat="45.0915578" lon="11.7483357"><ele>4.0</ele><time>2026-05-05T14:51:31.266Z</time></trkpt><trkpt lat="45.0912803" lon="11.748185"><ele>4.0</ele><time>2026-05-05T14:51:32.267Z</time></trkpt><trkpt lat="45.0910137" lon="11.7480254"><ele>3.5</ele><time>2026-05-05T14:51:33.267Z</time></trkpt><trkpt lat="45.0907441" lon="11.7478723"><ele>3.0</ele><time>2026-05-05T14:51:34.267Z</time></trkpt><trkpt lat="45.0904778" lon="11.7477174"><ele>2.5</ele><time>2026-05-05T14:51:35.267Z</time></trkpt><trkpt lat="45.0902148" lon="11.7475635"><ele>2.0</ele><time>2026-05-05T14:51:36.266Z</time></trkpt><trkpt lat="45.089962" lon="11.7474145"><ele>2.0</ele><time>2026-05-05T14:51:37.266Z</time></trkpt><trkpt lat="45.0897171" lon="11.7472731"><ele>2.0</ele><time>2026-05-05T14:51:38.267Z</time></trkpt><trkpt lat="45.089473" lon="11.7471298"><ele>2.0</ele><time>2026-05-05T14:51:39.267Z</time></trkpt><trkpt lat="45.0892328" lon="11.7469909"><ele>2.0</ele><time>2026-05-05T14:51:40.267Z</time></trkpt><trkpt lat="45.0889938" lon="11.7468462"><ele>2.0</ele><time>2026-05-05T14:51:41.267Z</time></trkpt><trkpt lat="45.0887563" lon="11.7467074"><ele>2.0</ele><time>2026-05-05T14:51:42.267Z</time></trkpt><trkpt lat="45.0885213" lon="11.7465633"><ele>2.0</ele><time>2026-05-05T14:51:43.267Z</time></trkpt><trkpt lat="45.0882793" lon="11.7464097"><ele>2.0</ele><time>2026-05-05T14:51:44.266Z</time></trkpt><trkpt lat="45.088037" lon="11.7462566"><ele>2.5</ele><time>2026-05-05T14:51:45.266Z</time></trkpt><trkpt lat="45.0877988" lon="11.7460963"><ele>3.0</ele><time>2026-05-05T14:51:46.267Z</time></trkpt><trkpt lat="45.0875606" lon="11.7459386"><ele>2.5</ele><time>2026-05-05T14:51:47.266Z</time></trkpt><trkpt lat="45.087325" lon="11.7457808"><ele>2.0</ele><time>2026-05-05T14:51:48.266Z</time></trkpt><trkpt lat="45.087093" lon="11.7456217"><ele>2.0</ele><time>2026-05-05T14:51:49.266Z</time></trkpt><trkpt lat="45.0868588" lon="11.7454507"><ele>2.0</ele><time>2026-05-05T14:51:50.266Z</time></trkpt><trkpt lat="45.086625" lon="11.7452791"><ele>2.5</ele><time>2026-05-05T14:51:51.267Z</time></trkpt><trkpt lat="45.0863786" lon="11.7451013"><ele>3.0</ele><time>2026-05-05T14:51:52.267Z</time></trkpt><trkpt lat="45.0861371" lon="11.7449062"><ele>3.0</ele><time>2026-05-05T14:51:53.267Z</time></trkpt><trkpt lat="45.0858888" lon="11.7447197"><ele>3.0</ele><time>2026-05-05T14:51:54.267Z</time></trkpt><trkpt lat="45.0856444" lon="11.7445321"><ele>2.5</ele><time>2026-05-05T14:51:55.267Z</time></trkpt><trkpt lat="45.0853933" lon="11.7443413"><ele>2.0</ele><time>2026-05-05T14:51:56.266Z</time></trkpt><trkpt lat="45.0851286" lon="11.7441395"><ele>1.5</ele><time>2026-05-05T14:51:57.267Z</time></trkpt><trkpt lat="45.0848631" lon="11.7439346"><ele>1.0</ele><time>2026-05-05T14:51:58.267Z</time></trkpt><trkpt lat="45.0845944" lon="11.7437319"><ele>0.5</ele><time>2026-05-05T14:51:59.267Z</time></trkpt><trkpt lat="45.0843305" lon="11.7435194"><ele>0.0</ele><time>2026-05-05T14:52:00.267Z</time></trkpt><trkpt lat="45.0840685" lon="11.7433133"><ele>2.0</ele><time>2026-05-05T14:52:01.267Z</time></trkpt><trkpt lat="45.083811" lon="11.7431053"><ele>4.0</ele><time>2026-05-05T14:52:02.267Z</time></trkpt><trkpt lat="45.083558" lon="11.7429032"><ele>3.5</ele><time>2026-05-05T14:52:03.267Z</time></trkpt><trkpt lat="45.083302" lon="11.742701"><ele>3.0</ele><time>2026-05-05T14:52:04.266Z</time></trkpt><trkpt lat="45.0830463" lon="11.7425022"><ele>3.0</ele><time>2026-05-05T14:52:05.267Z</time></trkpt><trkpt lat="45.082791" lon="11.7423056"><ele>3.0</ele><time>2026-05-05T14:52:06.266Z</time></trkpt><trkpt lat="45.0825348" lon="11.7421031"><ele>2.5</ele><time>2026-05-05T14:52:07.266Z</time></trkpt><trkpt lat="45.0822758" lon="11.7419058"><ele>2.0</ele><time>2026-05-05T14:52:08.267Z</time></trkpt><trkpt lat="45.0820124" lon="11.7417027"><ele>2.0</ele><time>2026-05-05T14:52:09.267Z</time></trkpt><trkpt lat="45.0817557" lon="11.7415066"><ele>2.0</ele><time>2026-05-05T14:52:10.266Z</time></trkpt><trkpt lat="45.0814977" lon="11.7413028"><ele>2.0</ele><time>2026-05-05T14:52:11.267Z</time></trkpt><trkpt lat="45.0812495" lon="11.7411077"><ele>2.0</ele><time>2026-05-05T14:52:12.266Z</time></trkpt><trkpt lat="45.0809983" lon="11.7409089"><ele>2.0</ele><time>2026-05-05T14:52:13.267Z</time></trkpt><trkpt lat="45.0807472" lon="11.7407136"><ele>2.0</ele><time>2026-05-05T14:52:14.266Z</time></trkpt><trkpt lat="45.0805019" lon="11.7405175"><ele>2.0</ele><time>2026-05-05T14:52:15.266Z</time></trkpt><trkpt lat="45.080255" lon="11.7403258"><ele>2.0</ele><time>2026-05-05T14:52:16.267Z</time></trkpt><trkpt lat="45.0800059" lon="11.7401333"><ele>3.0</ele><time>2026-05-05T14:52:17.267Z</time></trkpt><trkpt lat="45.0797539" lon="11.7399364"><ele>4.0</ele><time>2026-05-05T14:52:18.267Z</time></trkpt><trkpt lat="45.0795046" lon="11.7397349"><ele>4.0</ele><time>2026-05-05T14:52:19.266Z</time></trkpt><trkpt lat="45.0792545" lon="11.7395375"><ele>4.0</ele><time>2026-05-05T14:52:20.267Z</time></trkpt><trkpt lat="45.079006" lon="11.7393431"><ele>3.0</ele><time>2026-05-05T14:52:21.267Z</time></trkpt><trkpt lat="45.0787676" lon="11.7391576"><ele>2.0</ele><time>2026-05-05T14:52:22.267Z</time></trkpt><trkpt lat="45.0785427" lon="11.7389763"><ele>2.0</ele><time>2026-05-05T14:52:23.267Z</time></trkpt><trkpt lat="45.0783166" lon="11.7387954"><ele>2.0</ele><time>2026-05-05T14:52:24.267Z</time></trkpt><trkpt lat="45.078085" lon="11.7386149"><ele>2.0</ele><time>2026-05-05T14:52:25.266Z</time></trkpt><trkpt lat="45.0778509" lon="11.7384301"><ele>2.0</ele><time>2026-05-05T14:52:26.267Z</time></trkpt><trkpt lat="45.0776142" lon="11.7382478"><ele>1.5</ele><time>2026-05-05T14:52:27.267Z</time></trkpt><trkpt lat="45.0773744" lon="11.738062"><ele>1.0</ele><time>2026-05-05T14:52:28.266Z</time></trkpt><trkpt lat="45.0771343" lon="11.7378725"><ele>1.0</ele><time>2026-05-05T14:52:29.267Z</time></trkpt><trkpt lat="45.0768921" lon="11.7376838"><ele>1.0</ele><time>2026-05-05T14:52:30.267Z</time></trkpt><trkpt lat="45.0766491" lon="11.7374961"><ele>1.0</ele><time>2026-05-05T14:52:31.267Z</time></trkpt><trkpt lat="45.0764037" lon="11.7373056"><ele>1.0</ele><time>2026-05-05T14:52:32.266Z</time></trkpt><trkpt lat="45.0761567" lon="11.7371157"><ele>1.0</ele><time>2026-05-05T14:52:33.267Z</time></trkpt><trkpt lat="45.0759055" lon="11.7369272"><ele>1.0</ele><time>2026-05-05T14:52:34.266Z</time></trkpt><trkpt lat="45.0756514" lon="11.7367308"><ele>1.0</ele><time>2026-05-05T14:52:35.266Z</time></trkpt><trkpt lat="45.0753933" lon="11.7365291"><ele>1.0</ele><time>2026-05-05T14:52:36.267Z</time></trkpt><trkpt lat="45.0751352" lon="11.7363221"><ele>2.0</ele><time>2026-05-05T14:52:37.267Z</time></trkpt><trkpt lat="45.0748759" lon="11.7361195"><ele>3.0</ele><time>2026-05-05T14:52:38.266Z</time></trkpt><trkpt lat="45.0746188" lon="11.7359186"><ele>3.0</ele><time>2026-05-05T14:52:39.267Z</time></trkpt><trkpt lat="45.0743606" lon="11.7357185"><ele>3.0</ele><time>2026-05-05T14:52:40.266Z</time></trkpt><trkpt lat="45.0741037" lon="11.7355152"><ele>3.0</ele><time>2026-05-05T14:52:41.267Z</time></trkpt><trkpt lat="45.0738482" lon="11.7353116"><ele>3.0</ele><time>2026-05-05T14:52:42.267Z</time></trkpt><trkpt lat="45.0735926" lon="11.7351124"><ele>3.0</ele><time>2026-05-05T14:52:43.266Z</time></trkpt><trkpt lat="45.0733395" lon="11.7349063"><ele>3.0</ele><time>2026-05-05T14:52:44.267Z</time></trkpt><trkpt lat="45.0730823" lon="11.7347025"><ele>4.0</ele><time>2026-05-05T14:52:45.267Z</time></trkpt><trkpt lat="45.0728267" lon="11.7345041"><ele>5.0</ele><time>2026-05-05T14:52:46.266Z</time></trkpt><trkpt lat="45.0725677" lon="11.7343016"><ele>5.5</ele><time>2026-05-05T14:52:47.265Z</time></trkpt><trkpt lat="45.0723122" lon="11.7340988"><ele>6.0</ele><time>2026-05-05T14:52:48.266Z</time></trkpt><trkpt lat="45.0720534" lon="11.7338979"><ele>6.0</ele><time>2026-05-05T14:52:49.267Z</time></trkpt><trkpt lat="45.0717999" lon="11.7337038"><ele>6.0</ele><time>2026-05-05T14:52:50.267Z</time></trkpt><trkpt lat="45.0715511" lon="11.7335081"><ele>5.0</ele><time>2026-05-05T14:52:51.266Z</time></trkpt><trkpt lat="45.0713019" lon="11.7333117"><ele>4.0</ele><time>2026-05-05T14:52:52.266Z</time></trkpt><trkpt lat="45.0710536" lon="11.7331202"><ele>4.0</ele><time>2026-05-05T14:52:53.267Z</time></trkpt><trkpt lat="45.0708073" lon="11.7329255"><ele>4.0</ele><time>2026-05-05T14:52:54.266Z</time></trkpt><trkpt lat="45.0705643" lon="11.7327323"><ele>4.0</ele><time>2026-05-05T14:52:55.267Z</time></trkpt><trkpt lat="45.0703247" lon="11.7325431"><ele>4.0</ele><time>2026-05-05T14:52:56.267Z</time></trkpt><trkpt lat="45.0700868" lon="11.7323599"><ele>2.5</ele><time>2026-05-05T14:52:57.267Z</time></trkpt><trkpt lat="45.0698574" lon="11.7321758"><ele>1.0</ele><time>2026-05-05T14:52:58.266Z</time></trkpt><trkpt lat="45.069626" lon="11.7319904"><ele>1.0</ele><time>2026-05-05T14:52:59.267Z</time></trkpt><trkpt lat="45.0693905" lon="11.7318072"><ele>1.0</ele><time>2026-05-05T14:53:00.267Z</time></trkpt><trkpt lat="45.0691552" lon="11.7316212"><ele>0.5</ele><time>2026-05-05T14:53:01.267Z</time></trkpt><trkpt lat="45.0689042" lon="11.7314234"><ele>0.0</ele><time>2026-05-05T14:53:02.267Z</time></trkpt><trkpt lat="45.0686555" lon="11.7312212"><ele>0.5</ele><time>2026-05-05T14:53:03.266Z</time></trkpt><trkpt lat="45.0684011" lon="11.7310174"><ele>1.0</ele><time>2026-05-05T14:53:04.266Z</time></trkpt><trkpt lat="45.0681464" lon="11.7308143"><ele>1.5</ele><time>2026-05-05T14:53:05.267Z</time></trkpt><trkpt lat="45.0678958" lon="11.7306087"><ele>2.0</ele><time>2026-05-05T14:53:06.267Z</time></trkpt><trkpt lat="45.0676457" lon="11.73041"><ele>0.5</ele><time>2026-05-05T14:53:07.267Z</time></trkpt><trkpt lat="45.0673974" lon="11.7302203"><ele>-1.0</ele><time>2026-05-05T14:53:08.266Z</time></trkpt><trkpt lat="45.06715" lon="11.7300256"><ele>-1.0</ele><time>2026-05-05T14:53:09.266Z</time></trkpt><trkpt lat="45.0669136" lon="11.7298399"><ele>-1.0</ele><time>2026-05-05T14:53:10.267Z</time></trkpt><trkpt lat="45.0666788" lon="11.7296554"><ele>-0.5</ele><time>2026-05-05T14:53:11.266Z</time></trkpt><trkpt lat="45.066447" lon="11.7294742"><ele>0.0</ele><time>2026-05-05T14:53:12.266Z</time></trkpt><trkpt lat="45.0662169" lon="11.729294"><ele>0.0</ele><time>2026-05-05T14:53:13.267Z</time></trkpt><trkpt lat="45.0659889" lon="11.7291138"><ele>0.0</ele><time>2026-05-05T14:53:14.266Z</time></trkpt><trkpt lat="45.0657589" lon="11.7289339"><ele>0.0</ele><time>2026-05-05T14:53:15.267Z</time></trkpt><trkpt lat="45.0655259" lon="11.7287566"><ele>0.0</ele><time>2026-05-05T14:53:16.266Z</time></trkpt><trkpt lat="45.0652946" lon="11.7285754"><ele>0.0</ele><time>2026-05-05T14:53:17.267Z</time></trkpt><trkpt lat="45.0650637" lon="11.7283938"><ele>0.0</ele><time>2026-05-05T14:53:18.267Z</time></trkpt><trkpt lat="45.0648311" lon="11.7282155"><ele>0.0</ele><time>2026-05-05T14:53:19.266Z</time></trkpt><trkpt lat="45.064601" lon="11.728038"><ele>0.0</ele><time>2026-05-05T14:53:20.267Z</time></trkpt><trkpt lat="45.0643715" lon="11.7278557"><ele>0.5</ele><time>2026-05-05T14:53:21.266Z</time></trkpt><trkpt lat="45.0641408" lon="11.7276811"><ele>1.0</ele><time>2026-05-05T14:53:22.266Z</time></trkpt><trkpt lat="45.0639145" lon="11.7275057"><ele>1.5</ele><time>2026-05-05T14:53:23.267Z</time></trkpt><trkpt lat="45.0636919" lon="11.7273309"><ele>2.0</ele><time>2026-05-05T14:53:24.267Z</time></trkpt><trkpt lat="45.0634737" lon="11.7271592"><ele>2.5</ele><time>2026-05-05T14:53:25.267Z</time></trkpt><trkpt lat="45.0632537" lon="11.7269847"><ele>3.0</ele><time>2026-05-05T14:53:26.267Z</time></trkpt><trkpt lat="45.0630318" lon="11.7268089"><ele>3.5</ele><time>2026-05-05T14:53:27.266Z</time></trkpt><trkpt lat="45.0628091" lon="11.7266307"><ele>4.0</ele><time>2026-05-05T14:53:28.266Z</time></trkpt><trkpt lat="45.0625841" lon="11.7264523"><ele>3.0</ele><time>2026-05-05T14:53:29.267Z</time></trkpt><trkpt lat="45.0623594" lon="11.7262827"><ele>2.0</ele><time>2026-05-05T14:53:30.267Z</time></trkpt><trkpt lat="45.0621365" lon="11.7261092"><ele>1.0</ele><time>2026-05-05T14:53:31.266Z</time></trkpt><trkpt lat="45.0619149" lon="11.7259323"><ele>0.0</ele><time>2026-05-05T14:53:32.267Z</time></trkpt><trkpt lat="45.0616918" lon="11.7257651"><ele>0.0</ele><time>2026-05-05T14:53:33.267Z</time></trkpt><trkpt lat="45.061468" lon="11.7255897"><ele>0.0</ele><time>2026-05-05T14:53:34.267Z</time></trkpt><trkpt lat="45.0612441" lon="11.7254119"><ele>0.0</ele><time>2026-05-05T14:53:35.267Z</time></trkpt><trkpt lat="45.0610174" lon="11.7252327"><ele>0.0</ele><time>2026-05-05T14:53:36.266Z</time></trkpt><trkpt lat="45.0607878" lon="11.7250553"><ele>0.5</ele><time>2026-05-05T14:53:37.267Z</time></trkpt><trkpt lat="45.0605603" lon="11.7248751"><ele>1.0</ele><time>2026-05-05T14:53:38.267Z</time></trkpt><trkpt lat="45.0603319" lon="11.7246961"><ele>1.0</ele><time>2026-05-05T14:53:39.267Z</time></trkpt><trkpt lat="45.0601044" lon="11.7245201"><ele>1.0</ele><time>2026-05-05T14:53:40.266Z</time></trkpt><trkpt lat="45.0598748" lon="11.7243448"><ele>1.5</ele><time>2026-05-05T14:53:41.266Z</time></trkpt><trkpt lat="45.0596484" lon="11.724171"><ele>2.0</ele><time>2026-05-05T14:53:42.267Z</time></trkpt><trkpt lat="45.0594267" lon="11.7239966"><ele>2.0</ele><time>2026-05-05T14:53:43.267Z</time></trkpt><trkpt lat="45.0592057" lon="11.7238245"><ele>2.0</ele><time>2026-05-05T14:53:44.266Z</time></trkpt><trkpt lat="45.0589827" lon="11.7236547"><ele>2.0</ele><time>2026-05-05T14:53:45.267Z</time></trkpt><trkpt lat="45.0587592" lon="11.7234813"><ele>2.0</ele><time>2026-05-05T14:53:46.267Z</time></trkpt><trkpt lat="45.0585308" lon="11.7233028"><ele>2.0</ele><time>2026-05-05T14:53:47.267Z</time></trkpt><trkpt lat="45.0582961" lon="11.7231213"><ele>2.0</ele><time>2026-05-05T14:53:48.266Z</time></trkpt><trkpt lat="45.058059" lon="11.7229377"><ele>1.5</ele><time>2026-05-05T14:53:49.267Z</time></trkpt><trkpt lat="45.0578227" lon="11.7227502"><ele>1.0</ele><time>2026-05-05T14:53:50.267Z</time></trkpt><trkpt lat="45.0575841" lon="11.7225618"><ele>1.5</ele><time>2026-05-05T14:53:51.266Z</time></trkpt><trkpt lat="45.0573418" lon="11.7223739"><ele>2.0</ele><time>2026-05-05T14:53:52.267Z</time></trkpt><trkpt lat="45.0571013" lon="11.7221799"><ele>2.0</ele><time>2026-05-05T14:53:53.266Z</time></trkpt><trkpt lat="45.0568492" lon="11.7219832"><ele>2.0</ele><time>2026-05-05T14:53:54.267Z</time></trkpt><trkpt lat="45.0565911" lon="11.7217779"><ele>2.0</ele><time>2026-05-05T14:53:55.266Z</time></trkpt><trkpt lat="45.0563324" lon="11.7215784"><ele>2.0</ele><time>2026-05-05T14:53:56.267Z</time></trkpt><trkpt lat="45.0560776" lon="11.7213787"><ele>2.0</ele><time>2026-05-05T14:53:57.267Z</time></trkpt><trkpt lat="45.0558222" lon="11.721175"><ele>2.0</ele><time>2026-05-05T14:53:58.266Z</time></trkpt><trkpt lat="45.0555727" lon="11.7209784"><ele>2.0</ele><time>2026-05-05T14:53:59.266Z</time></trkpt><trkpt lat="45.0553214" lon="11.7207885"><ele>2.0</ele><time>2026-05-05T14:54:00.266Z</time></trkpt><trkpt lat="45.0550717" lon="11.7205943"><ele>2.5</ele><time>2026-05-05T14:54:01.267Z</time></trkpt><trkpt lat="45.0548316" lon="11.7204004"><ele>3.0</ele><time>2026-05-05T14:54:02.267Z</time></trkpt><trkpt lat="45.0545947" lon="11.7202128"><ele>3.5</ele><time>2026-05-05T14:54:03.267Z</time></trkpt><trkpt lat="45.0543595" lon="11.7200297"><ele>4.0</ele><time>2026-05-05T14:54:04.266Z</time></trkpt><trkpt lat="45.0541256" lon="11.7198493"><ele>3.5</ele><time>2026-05-05T14:54:05.267Z</time></trkpt><trkpt lat="45.0538972" lon="11.7196711"><ele>3.0</ele><time>2026-05-05T14:54:06.266Z</time></trkpt><trkpt lat="45.0536717" lon="11.7194949"><ele>3.0</ele><time>2026-05-05T14:54:07.266Z</time></trkpt><trkpt lat="45.0534483" lon="11.7193213"><ele>3.0</ele><time>2026-05-05T14:54:08.266Z</time></trkpt><trkpt lat="45.0532273" lon="11.7191462"><ele>3.5</ele><time>2026-05-05T14:54:09.267Z</time></trkpt><trkpt lat="45.0530083" lon="11.7189705"><ele>4.0</ele><time>2026-05-05T14:54:10.267Z</time></trkpt><trkpt lat="45.0527892" lon="11.7188019"><ele>4.0</ele><time>2026-05-05T14:54:11.267Z</time></trkpt><trkpt lat="45.0525768" lon="11.7186343"><ele>4.0</ele><time>2026-05-05T14:54:12.267Z</time></trkpt><trkpt lat="45.0523782" lon="11.7184715"><ele>4.333333333333333</ele><time>2026-05-05T14:54:13.267Z</time></trkpt><trkpt lat="45.0521924" lon="11.7183162"><ele>4.666666666666667</ele><time>2026-05-05T14:54:14.266Z</time></trkpt><trkpt lat="45.0520161" lon="11.7181643"><ele>5.0</ele><time>2026-05-05T14:54:15.266Z</time></trkpt><trkpt lat="45.0518424" lon="11.718019"><ele>5.0</ele><time>2026-05-05T14:54:16.267Z</time></trkpt><trkpt lat="45.0516732" lon="11.717881"><ele>5.0</ele><time>2026-05-05T14:54:17.266Z</time></trkpt><trkpt lat="45.0515033" lon="11.7177453"><ele>5.0</ele><time>2026-05-05T14:54:18.266Z</time></trkpt><trkpt lat="45.0513326" lon="11.7176074"><ele>5.0</ele><time>2026-05-05T14:54:19.267Z</time></trkpt><trkpt lat="45.05116" lon="11.7174732"><ele>5.0</ele><time>2026-05-05T14:54:20.266Z</time></trkpt><trkpt lat="45.0509856" lon="11.7173424"><ele>5.0</ele><time>2026-05-05T14:54:21.266Z</time></trkpt><trkpt lat="45.0508101" lon="11.717207"><ele>4.333333333333334</ele><time>2026-05-05T14:54:22.267Z</time></trkpt><trkpt lat="45.0506376" lon="11.717068"><ele>3.666666666666667</ele><time>2026-05-05T14:54:23.267Z</time></trkpt><trkpt lat="45.0504632" lon="11.7169364"><ele>3.0</ele><time>2026-05-05T14:54:24.266Z</time></trkpt><trkpt lat="45.0502857" lon="11.7167988"><ele>3.0</ele><time>2026-05-05T14:54:25.267Z</time></trkpt><trkpt lat="45.0501043" lon="11.7166611"><ele>3.0</ele><time>2026-05-05T14:54:26.267Z</time></trkpt><trkpt lat="45.0499226" lon="11.7165226"><ele>3.0</ele><time>2026-05-05T14:54:27.267Z</time></trkpt><trkpt lat="45.049741" lon="11.7163807"><ele>3.0</ele><time>2026-05-05T14:54:28.267Z</time></trkpt><trkpt lat="45.0495548" lon="11.7162356"><ele>3.0</ele><time>2026-05-05T14:54:29.266Z</time></trkpt><trkpt lat="45.0493694" lon="11.716089"><ele>3.0</ele><time>2026-05-05T14:54:30.267Z</time></trkpt><trkpt lat="45.0491808" lon="11.7159412"><ele>3.0</ele><time>2026-05-05T14:54:31.266Z</time></trkpt><trkpt lat="45.0489904" lon="11.7157932"><ele>3.0</ele><time>2026-05-05T14:54:32.267Z</time></trkpt><trkpt lat="45.0488024" lon="11.7156397"><ele>3.0</ele><time>2026-05-05T14:54:33.266Z</time></trkpt><trkpt lat="45.0486144" lon="11.7154897"><ele>3.0</ele><time>2026-05-05T14:54:34.267Z</time></trkpt><trkpt lat="45.0484254" lon="11.7153365"><ele>3.0</ele><time>2026-05-05T14:54:35.267Z</time></trkpt><trkpt lat="45.0482339" lon="11.715186"><ele>3.0</ele><time>2026-05-05T14:54:36.267Z</time></trkpt><trkpt lat="45.0480445" lon="11.7150355"><ele>3.666666666666667</ele><time>2026-05-05T14:54:37.267Z</time></trkpt><trkpt lat="45.0478651" lon="11.714899"><ele>4.333333333333334</ele><time>2026-05-05T14:54:38.267Z</time></trkpt><trkpt lat="45.0476905" lon="11.7147571"><ele>5.0</ele><time>2026-05-05T14:54:39.267Z</time></trkpt><trkpt lat="45.047518" lon="11.7146182"><ele>4.333333333333334</ele><time>2026-05-05T14:54:40.267Z</time></trkpt><trkpt lat="45.0473503" lon="11.7144841"><ele>3.666666666666667</ele><time>2026-05-05T14:54:41.266Z</time></trkpt><trkpt lat="45.047185" lon="11.7143487"><ele>3.0</ele><time>2026-05-05T14:54:42.266Z</time></trkpt><trkpt lat="45.0470175" lon="11.7142155"><ele>3.0</ele><time>2026-05-05T14:54:43.267Z</time></trkpt><trkpt lat="45.046853" lon="11.7140859"><ele>3.0</ele><time>2026-05-05T14:54:44.267Z</time></trkpt><trkpt lat="45.0466848" lon="11.7139559"><ele>3.0</ele><time>2026-05-05T14:54:45.267Z</time></trkpt><trkpt lat="45.0465192" lon="11.7138325"><ele>3.0</ele><time>2026-05-05T14:54:46.267Z</time></trkpt><trkpt lat="45.0463471" lon="11.7137001"><ele>3.0</ele><time>2026-05-05T14:54:47.266Z</time></trkpt><trkpt lat="45.0461728" lon="11.7135621"><ele>3.0</ele><time>2026-05-05T14:54:48.267Z</time></trkpt><trkpt lat="45.045997" lon="11.7134287"><ele>3.0</ele><time>2026-05-05T14:54:49.266Z</time></trkpt><trkpt lat="45.0458175" lon="11.7132907"><ele>3.0</ele><time>2026-05-05T14:54:50.266Z</time></trkpt><trkpt lat="45.0456375" lon="11.7131528"><ele>3.0</ele><time>2026-05-05T14:54:51.266Z</time></trkpt><trkpt lat="45.0454569" lon="11.7130168"><ele>3.0</ele><time>2026-05-05T14:54:52.267Z</time></trkpt><trkpt lat="45.0452768" lon="11.7128781"><ele>3.0</ele><time>2026-05-05T14:54:53.267Z</time></trkpt><trkpt lat="45.045094" lon="11.7127362"><ele>3.0</ele><time>2026-05-05T14:54:54.267Z</time></trkpt><trkpt lat="45.0449073" lon="11.7125927"><ele>3.0</ele><time>2026-05-05T14:54:55.266Z</time></trkpt><trkpt lat="45.0447186" lon="11.7124452"><ele>3.0</ele><time>2026-05-05T14:54:56.266Z</time></trkpt><trkpt lat="45.0445297" lon="11.7122998"><ele>3.0</ele><time>2026-05-05T14:54:57.266Z</time></trkpt><trkpt lat="45.0443368" lon="11.7121506"><ele>3.0</ele><time>2026-05-05T14:54:58.267Z</time></trkpt><trkpt lat="45.0441374" lon="11.7119987"><ele>3.0</ele><time>2026-05-05T14:54:59.266Z</time></trkpt><trkpt lat="45.0439399" lon="11.711841"><ele>2.3333333333333335</ele><time>2026-05-05T14:55:00.267Z</time></trkpt><trkpt lat="45.0437522" lon="11.7116812"><ele>1.6666666666666665</ele><time>2026-05-05T14:55:01.267Z</time></trkpt><trkpt lat="45.0435707" lon="11.7115276"><ele>1.0</ele><time>2026-05-05T14:55:02.266Z</time></trkpt><trkpt lat="45.0433951" lon="11.7113784"><ele>1.3333333333333333</ele><time>2026-05-05T14:55:03.267Z</time></trkpt><trkpt lat="45.043233" lon="11.711237"><ele>1.6666666666666665</ele><time>2026-05-05T14:55:04.266Z</time></trkpt><trkpt lat="45.0430757" lon="11.7111019"><ele>2.0</ele><time>2026-05-05T14:55:05.267Z</time></trkpt><trkpt lat="45.0429367" lon="11.7109843"><ele>2.0</ele><time>2026-05-05T14:55:06.267Z</time></trkpt><trkpt lat="45.0428088" lon="11.7108665"><ele>2.0</ele><time>2026-05-05T14:55:07.267Z</time></trkpt><trkpt lat="45.0426953" lon="11.7107503"><ele>2.0</ele><time>2026-05-05T14:55:08.267Z</time></trkpt><trkpt lat="45.0425972" lon="11.7106381"><ele>2.0</ele><time>2026-05-05T14:55:09.267Z</time></trkpt><trkpt lat="45.0425169" lon="11.7105175"><ele>2.2</ele><time>2026-05-05T14:55:10.267Z</time></trkpt><trkpt lat="45.0424472" lon="11.7104035"><ele>2.4000000000000004</ele><time>2026-05-05T14:55:11.266Z</time></trkpt><trkpt lat="45.0423811" lon="11.7102945"><ele>2.5999999999999996</ele><time>2026-05-05T14:55:12.267Z</time></trkpt><trkpt lat="45.0423092" lon="11.7102103"><ele>2.8</ele><time>2026-05-05T14:55:13.267Z</time></trkpt><trkpt lat="45.0422349" lon="11.7101391"><ele>3.0</ele><time>2026-05-05T14:55:14.267Z</time></trkpt><trkpt lat="45.0421557" lon="11.7100693"><ele>3.1666666666666665</ele><time>2026-05-05T14:55:15.267Z</time></trkpt><trkpt lat="45.0420781" lon="11.710007"><ele>3.333333333333333</ele><time>2026-05-05T14:55:16.267Z</time></trkpt><trkpt lat="45.0420005" lon="11.7099403"><ele>3.5</ele><time>2026-05-05T14:55:17.265Z</time></trkpt><trkpt lat="45.041917" lon="11.7098831"><ele>3.6666666666666665</ele><time>2026-05-05T14:55:18.267Z</time></trkpt><trkpt lat="45.0418432" lon="11.709819"><ele>3.833333333333333</ele><time>2026-05-05T14:55:19.267Z</time></trkpt><trkpt lat="45.0417793" lon="11.7097677"><ele>4.0</ele><time>2026-05-05T14:55:20.266Z</time></trkpt><trkpt lat="45.0417165" lon="11.7097156"><ele>3.833333333333333</ele><time>2026-05-05T14:55:21.267Z</time></trkpt><trkpt lat="45.0416314" lon="11.7096149"><ele>3.6666666666666665</ele><time>2026-05-05T14:55:23.267Z</time></trkpt><trkpt lat="45.0415843" lon="11.7094967"><ele>3.5</ele><time>2026-05-05T14:55:25.267Z</time></trkpt><trkpt lat="45.0415575" lon="11.7094022"><ele>3.333333333333333</ele><time>2026-05-05T14:55:27.266Z</time></trkpt><trkpt lat="45.0414965" lon="11.7093211"><ele>3.1666666666666665</ele><time>2026-05-05T14:55:31.267Z</time></trkpt><trkpt lat="45.0415228" lon="11.7092394"><ele>3.0</ele><time>2026-05-05T14:57:24.266Z</time></trkpt><trkpt lat="45.0415827" lon="11.7091451"><ele>3.0</ele><time>2026-05-05T14:57:45.266Z</time></trkpt><trkpt lat="45.04162" lon="11.7090456"><ele>3.0</ele><time>2026-05-05T14:57:49.267Z</time></trkpt><trkpt lat="45.0415588" lon="11.7092252"><ele>3.0</ele><time>2026-05-05T14:58:08.267Z</time></trkpt><trkpt lat="45.0415157" lon="11.7093076"><ele>3.0</ele><time>2026-05-05T14:58:14.267Z</time></trkpt><trkpt lat="45.0414537" lon="11.7092903"><ele>3.0</ele><time>2026-05-05T14:58:31.267Z</time></trkpt><trkpt lat="45.041442" lon="11.709197"><ele>3.0</ele><time>2026-05-05T14:58:38.266Z</time></trkpt><trkpt lat="45.0415081" lon="11.7091777"><ele>3.0</ele><time>2026-05-05T14:59:12.267Z</time></trkpt><trkpt lat="45.0415726" lon="11.709162"><ele>3.0</ele><time>2026-05-05T14:59:17.267Z</time></trkpt><trkpt lat="45.0416324" lon="11.7092029"><ele>3.0</ele><time>2026-05-05T14:59:23.266Z</time></trkpt><trkpt lat="45.0416807" lon="11.7091429"><ele>3.0</ele><time>2026-05-05T14:59:30.267Z</time></trkpt><trkpt lat="45.0417255" lon="11.7090774"><ele>3.0</ele><time>2026-05-05T14:59:37.267Z</time></trkpt><trkpt lat="45.0416512" lon="11.7091856"><ele>3.0</ele><time>2026-05-05T15:01:45.609Z</time></trkpt><trkpt lat="45.0415099" lon="11.7092"><ele>3.0</ele><time>2026-05-05T15:01:49.266Z</time></trkpt><trkpt lat="45.0414414" lon="11.7092097"><ele>3.0</ele><time>2026-05-05T15:01:59.266Z</time></trkpt><trkpt lat="45.0415027" lon="11.7092362"><ele>3.0</ele><time>2026-05-05T15:08:34.267Z</time></trkpt><trkpt lat="45.0413507" lon="11.7092047"><ele>3.0</ele><time>2026-05-05T15:16:49.256Z</time></trkpt><trkpt lat="45.0412334" lon="11.7092068"><ele>3.0</ele><time>2026-05-05T15:16:50.257Z</time></trkpt><trkpt lat="45.0411358" lon="11.7092037"><ele>3.0</ele><time>2026-05-05T15:16:51.257Z</time></trkpt><trkpt lat="45.0410505" lon="11.7091925"><ele>3.0</ele><time>2026-05-05T15:16:52.257Z</time></trkpt><trkpt lat="45.0409588" lon="11.7091887"><ele>3.0</ele><time>2026-05-05T15:16:53.256Z</time></trkpt><trkpt lat="45.040866" lon="11.7091871"><ele>3.0</ele><time>2026-05-05T15:16:54.256Z</time></trkpt><trkpt lat="45.0407713" lon="11.7091754"><ele>3.0</ele><time>2026-05-05T15:16:55.256Z</time></trkpt><trkpt lat="45.0406756" lon="11.7091552"><ele>3.0</ele><time>2026-05-05T15:16:56.256Z</time></trkpt><trkpt lat="45.0405779" lon="11.7091263"><ele>3.0</ele><time>2026-05-05T15:16:57.256Z</time></trkpt><trkpt lat="45.0404814" lon="11.7090817"><ele>3.0</ele><time>2026-05-05T15:16:58.256Z</time></trkpt><trkpt lat="45.0403858" lon="11.7090243"><ele>3.0</ele><time>2026-05-05T15:16:59.257Z</time></trkpt><trkpt lat="45.0402898" lon="11.7089536"><ele>3.0</ele><time>2026-05-05T15:17:00.257Z</time></trkpt><trkpt lat="45.0401908" lon="11.708879"><ele>3.0</ele><time>2026-05-05T15:17:01.257Z</time></trkpt><trkpt lat="45.0400868" lon="11.7088031"><ele>3.0</ele><time>2026-05-05T15:17:02.256Z</time></trkpt><trkpt lat="45.0399803" lon="11.7087258"><ele>3.0</ele><time>2026-05-05T15:17:03.256Z</time></trkpt><trkpt lat="45.0398697" lon="11.7086432"><ele>3.0</ele><time>2026-05-05T15:17:04.257Z</time></trkpt><trkpt lat="45.0397557" lon="11.708557"><ele>3.0</ele><time>2026-05-05T15:17:05.256Z</time></trkpt><trkpt lat="45.0396306" lon="11.7084698"><ele>3.0</ele><time>2026-05-05T15:17:06.257Z</time></trkpt><trkpt lat="45.0394982" lon="11.7083778"><ele>3.0</ele><time>2026-05-05T15:17:07.256Z</time></trkpt><trkpt lat="45.0393597" lon="11.7082786"><ele>3.0</ele><time>2026-05-05T15:17:08.256Z</time></trkpt><trkpt lat="45.0392179" lon="11.7081731"><ele>3.333333333333333</ele><time>2026-05-05T15:17:09.257Z</time></trkpt><trkpt lat="45.0390701" lon="11.7080621"><ele>3.6666666666666665</ele><time>2026-05-05T15:17:10.257Z</time></trkpt><trkpt lat="45.0389176" lon="11.7079422"><ele>4.0</ele><time>2026-05-05T15:17:11.256Z</time></trkpt><trkpt lat="45.0387658" lon="11.7078206"><ele>3.6666666666666665</ele><time>2026-05-05T15:17:12.256Z</time></trkpt><trkpt lat="45.0386093" lon="11.7077024"><ele>3.333333333333333</ele><time>2026-05-05T15:17:13.257Z</time></trkpt><trkpt lat="45.0384505" lon="11.7075782"><ele>3.0</ele><time>2026-05-05T15:17:14.257Z</time></trkpt><trkpt lat="45.0382878" lon="11.7074487"><ele>3.0</ele><time>2026-05-05T15:17:15.257Z</time></trkpt><trkpt lat="45.0381215" lon="11.7073191"><ele>3.0</ele><time>2026-05-05T15:17:16.257Z</time></trkpt><trkpt lat="45.0379488" lon="11.7071863"><ele>3.0</ele><time>2026-05-05T15:17:17.256Z</time></trkpt><trkpt lat="45.0377706" lon="11.7070506"><ele>2.6666666666666665</ele><time>2026-05-05T15:17:18.257Z</time></trkpt><trkpt lat="45.0375924" lon="11.7069084"><ele>2.333333333333333</ele><time>2026-05-05T15:17:19.257Z</time></trkpt><trkpt lat="45.0374123" lon="11.706766"><ele>2.0</ele><time>2026-05-05T15:17:20.257Z</time></trkpt><trkpt lat="45.0372297" lon="11.7066235"><ele>2.0</ele><time>2026-05-05T15:17:21.257Z</time></trkpt><trkpt lat="45.0370451" lon="11.7064786"><ele>2.0</ele><time>2026-05-05T15:17:22.257Z</time></trkpt><trkpt lat="45.0368576" lon="11.7063344"><ele>2.0</ele><time>2026-05-05T15:17:23.257Z</time></trkpt><trkpt lat="45.036667" lon="11.7061827"><ele>1.0</ele><time>2026-05-05T15:17:24.256Z</time></trkpt><trkpt lat="45.0364738" lon="11.7060302"><ele>0.0</ele><time>2026-05-05T15:17:25.257Z</time></trkpt><trkpt lat="45.0362815" lon="11.7058778"><ele>-1.0</ele><time>2026-05-05T15:17:26.256Z</time></trkpt><trkpt lat="45.0360886" lon="11.7057255"><ele>-1.0</ele><time>2026-05-05T15:17:27.256Z</time></trkpt><trkpt lat="45.0358934" lon="11.7055763"><ele>-1.0</ele><time>2026-05-05T15:17:28.256Z</time></trkpt><trkpt lat="45.0356975" lon="11.7054264"><ele>-1.0</ele><time>2026-05-05T15:17:29.257Z</time></trkpt><trkpt lat="45.035503" lon="11.7052761"><ele>0.0</ele><time>2026-05-05T15:17:30.257Z</time></trkpt><trkpt lat="45.0353089" lon="11.7051247"><ele>1.0</ele><time>2026-05-05T15:17:31.256Z</time></trkpt><trkpt lat="45.0351124" lon="11.7049751"><ele>2.0</ele><time>2026-05-05T15:17:32.257Z</time></trkpt><trkpt lat="45.0349162" lon="11.7048252"><ele>3.0</ele><time>2026-05-05T15:17:33.257Z</time></trkpt><trkpt lat="45.0347167" lon="11.7046744"><ele>4.0</ele><time>2026-05-05T15:17:34.256Z</time></trkpt><trkpt lat="45.0345158" lon="11.7045166"><ele>4.0</ele><time>2026-05-05T15:17:35.257Z</time></trkpt><trkpt lat="45.0343141" lon="11.7043591"><ele>4.0</ele><time>2026-05-05T15:17:36.256Z</time></trkpt><trkpt lat="45.0341111" lon="11.7041984"><ele>2.5</ele><time>2026-05-05T15:17:37.257Z</time></trkpt><trkpt lat="45.0339075" lon="11.7040381"><ele>1.0</ele><time>2026-05-05T15:17:38.257Z</time></trkpt><trkpt lat="45.0337046" lon="11.7038758"><ele>1.0</ele><time>2026-05-05T15:17:39.257Z</time></trkpt><trkpt lat="45.033496" lon="11.7037117"><ele>1.0</ele><time>2026-05-05T15:17:40.257Z</time></trkpt><trkpt lat="45.0332913" lon="11.7035475"><ele>0.5</ele><time>2026-05-05T15:17:41.256Z</time></trkpt><trkpt lat="45.0330752" lon="11.7033876"><ele>0.0</ele><time>2026-05-05T15:17:42.257Z</time></trkpt><trkpt lat="45.0328642" lon="11.7032256"><ele>0.0</ele><time>2026-05-05T15:17:43.257Z</time></trkpt><trkpt lat="45.0326535" lon="11.7030663"><ele>0.0</ele><time>2026-05-05T15:17:44.257Z</time></trkpt><trkpt lat="45.0324413" lon="11.7028997"><ele>0.0</ele><time>2026-05-05T15:17:45.257Z</time></trkpt><trkpt lat="45.0322283" lon="11.7027352"><ele>0.0</ele><time>2026-05-05T15:17:46.257Z</time></trkpt><trkpt lat="45.0320131" lon="11.702562"><ele>0.0</ele><time>2026-05-05T15:17:47.257Z</time></trkpt><trkpt lat="45.0318" lon="11.7023933"><ele>0.0</ele><time>2026-05-05T15:17:48.257Z</time></trkpt><trkpt lat="45.0315867" lon="11.7022282"><ele>0.5</ele><time>2026-05-05T15:17:49.257Z</time></trkpt><trkpt lat="45.0313715" lon="11.7020592"><ele>1.0</ele><time>2026-05-05T15:17:50.256Z</time></trkpt><trkpt lat="45.0311577" lon="11.7018888"><ele>1.0</ele><time>2026-05-05T15:17:51.257Z</time></trkpt><trkpt lat="45.0309434" lon="11.7017124"><ele>1.0</ele><time>2026-05-05T15:17:52.256Z</time></trkpt><trkpt lat="45.0307296" lon="11.7015419"><ele>0.5</ele><time>2026-05-05T15:17:53.257Z</time></trkpt><trkpt lat="45.0305192" lon="11.7013664"><ele>0.0</ele><time>2026-05-05T15:17:54.256Z</time></trkpt><trkpt lat="45.0303079" lon="11.7011917"><ele>-0.5</ele><time>2026-05-05T15:17:55.257Z</time></trkpt><trkpt lat="45.0300921" lon="11.7010162"><ele>-1.0</ele><time>2026-05-05T15:17:56.257Z</time></trkpt><trkpt lat="45.0298769" lon="11.7008343"><ele>-1.0</ele><time>2026-05-05T15:17:57.256Z</time></trkpt><trkpt lat="45.0296632" lon="11.7006508"><ele>-1.0</ele><time>2026-05-05T15:17:58.256Z</time></trkpt><trkpt lat="45.0294452" lon="11.7004651"><ele>-1.0</ele><time>2026-05-05T15:17:59.257Z</time></trkpt><trkpt lat="45.0292335" lon="11.7002797"><ele>-1.0</ele><time>2026-05-05T15:18:00.257Z</time></trkpt><trkpt lat="45.0290141" lon="11.700088"><ele>-0.5</ele><time>2026-05-05T15:18:01.256Z</time></trkpt><trkpt lat="45.0287912" lon="11.6998916"><ele>0.0</ele><time>2026-05-05T15:18:02.257Z</time></trkpt><trkpt lat="45.0285701" lon="11.6996953"><ele>0.0</ele><time>2026-05-05T15:18:03.257Z</time></trkpt><trkpt lat="45.0283445" lon="11.6994916"><ele>0.0</ele><time>2026-05-05T15:18:04.257Z</time></trkpt><trkpt lat="45.0281251" lon="11.6992819"><ele>0.0</ele><time>2026-05-05T15:18:05.257Z</time></trkpt><trkpt lat="45.0278984" lon="11.699073"><ele>0.0</ele><time>2026-05-05T15:18:06.257Z</time></trkpt><trkpt lat="45.0276737" lon="11.6988629"><ele>0.5</ele><time>2026-05-05T15:18:07.257Z</time></trkpt><trkpt lat="45.0274456" lon="11.6986537"><ele>1.0</ele><time>2026-05-05T15:18:08.256Z</time></trkpt><trkpt lat="45.027219" lon="11.6984362"><ele>1.0</ele><time>2026-05-05T15:18:09.257Z</time></trkpt><trkpt lat="45.0269886" lon="11.6982152"><ele>1.0</ele><time>2026-05-05T15:18:10.256Z</time></trkpt><trkpt lat="45.0267514" lon="11.6980015"><ele>1.0</ele><time>2026-05-05T15:18:11.257Z</time></trkpt><trkpt lat="45.0265118" lon="11.6977743"><ele>1.0</ele><time>2026-05-05T15:18:12.257Z</time></trkpt><trkpt lat="45.0262714" lon="11.6975515"><ele>1.0</ele><time>2026-05-05T15:18:13.257Z</time></trkpt><trkpt lat="45.0260291" lon="11.697327"><ele>1.0</ele><time>2026-05-05T15:18:14.257Z</time></trkpt><trkpt lat="45.0257903" lon="11.6970937"><ele>1.0</ele><time>2026-05-05T15:18:15.257Z</time></trkpt><trkpt lat="45.0255532" lon="11.6968703"><ele>1.0</ele><time>2026-05-05T15:18:16.256Z</time></trkpt><trkpt lat="45.0253147" lon="11.6966476"><ele>1.0</ele><time>2026-05-05T15:18:17.257Z</time></trkpt><trkpt lat="45.0250778" lon="11.6964228"><ele>1.0</ele><time>2026-05-05T15:18:18.257Z</time></trkpt><trkpt lat="45.0248424" lon="11.6962027"><ele>1.0</ele><time>2026-05-05T15:18:19.257Z</time></trkpt><trkpt lat="45.0246095" lon="11.6959796"><ele>1.0</ele><time>2026-05-05T15:18:20.256Z</time></trkpt><trkpt lat="45.024381" lon="11.6957635"><ele>1.0</ele><time>2026-05-05T15:18:21.256Z</time></trkpt><trkpt lat="45.0241544" lon="11.6955486"><ele>1.0</ele><time>2026-05-05T15:18:22.256Z</time></trkpt><trkpt lat="45.023925" lon="11.6953331"><ele>0.5</ele><time>2026-05-05T15:18:23.257Z</time></trkpt><trkpt lat="45.0237064" lon="11.6951304"><ele>0.0</ele><time>2026-05-05T15:18:24.257Z</time></trkpt><trkpt lat="45.023491" lon="11.6949277"><ele>0.5</ele><time>2026-05-05T15:18:25.256Z</time></trkpt><trkpt lat="45.0232785" lon="11.6947266"><ele>1.0</ele><time>2026-05-05T15:18:26.257Z</time></trkpt><trkpt lat="45.0230673" lon="11.6945363"><ele>1.5</ele><time>2026-05-05T15:18:27.257Z</time></trkpt><trkpt lat="45.0228559" lon="11.6943416"><ele>2.0</ele><time>2026-05-05T15:18:28.257Z</time></trkpt><trkpt lat="45.0226489" lon="11.6941533"><ele>2.5</ele><time>2026-05-05T15:18:29.256Z</time></trkpt><trkpt lat="45.0224424" lon="11.6939617"><ele>3.0</ele><time>2026-05-05T15:18:30.257Z</time></trkpt><trkpt lat="45.0222404" lon="11.6937689"><ele>3.5</ele><time>2026-05-05T15:18:31.257Z</time></trkpt><trkpt lat="45.0220408" lon="11.6935828"><ele>4.0</ele><time>2026-05-05T15:18:32.257Z</time></trkpt><trkpt lat="45.0218435" lon="11.6933958"><ele>4.0</ele><time>2026-05-05T15:18:33.257Z</time></trkpt><trkpt lat="45.0216493" lon="11.6932131"><ele>4.0</ele><time>2026-05-05T15:18:34.257Z</time></trkpt><trkpt lat="45.0214588" lon="11.6930254"><ele>3.5</ele><time>2026-05-05T15:18:35.256Z</time></trkpt><trkpt lat="45.0212692" lon="11.6928444"><ele>3.0</ele><time>2026-05-05T15:18:36.256Z</time></trkpt><trkpt lat="45.0210764" lon="11.6926611"><ele>3.0</ele><time>2026-05-05T15:18:37.257Z</time></trkpt><trkpt lat="45.0208759" lon="11.692477"><ele>3.0</ele><time>2026-05-05T15:18:38.256Z</time></trkpt><trkpt lat="45.0206845" lon="11.6922884"><ele>2.5</ele><time>2026-05-05T15:18:39.257Z</time></trkpt><trkpt lat="45.0204883" lon="11.6921051"><ele>2.0</ele><time>2026-05-05T15:18:40.257Z</time></trkpt><trkpt lat="45.0202848" lon="11.6919198"><ele>2.0</ele><time>2026-05-05T15:18:41.257Z</time></trkpt><trkpt lat="45.0200865" lon="11.6917293"><ele>2.0</ele><time>2026-05-05T15:18:42.256Z</time></trkpt><trkpt lat="45.0198788" lon="11.6915374"><ele>2.5</ele><time>2026-05-05T15:18:43.257Z</time></trkpt><trkpt lat="45.0196686" lon="11.6913417"><ele>3.0</ele><time>2026-05-05T15:18:44.257Z</time></trkpt><trkpt lat="45.0194511" lon="11.69114"><ele>2.5</ele><time>2026-05-05T15:18:45.256Z</time></trkpt><trkpt lat="45.0192332" lon="11.6909371"><ele>2.0</ele><time>2026-05-05T15:18:46.257Z</time></trkpt><trkpt lat="45.019008" lon="11.6907332"><ele>3.5</ele><time>2026-05-05T15:18:47.257Z</time></trkpt><trkpt lat="45.0187718" lon="11.6905092"><ele>5.0</ele><time>2026-05-05T15:18:48.257Z</time></trkpt><trkpt lat="45.0185379" lon="11.6902938"><ele>5.5</ele><time>2026-05-05T15:18:49.257Z</time></trkpt><trkpt lat="45.018309" lon="11.6900752"><ele>6.0</ele><time>2026-05-05T15:18:50.257Z</time></trkpt><trkpt lat="45.0180781" lon="11.6898602"><ele>6.0</ele><time>2026-05-05T15:18:51.257Z</time></trkpt><trkpt lat="45.0178444" lon="11.6896411"><ele>6.0</ele><time>2026-05-05T15:18:52.257Z</time></trkpt><trkpt lat="45.0176096" lon="11.6894171"><ele>5.5</ele><time>2026-05-05T15:18:53.256Z</time></trkpt><trkpt lat="45.0173751" lon="11.6891987"><ele>5.0</ele><time>2026-05-05T15:18:54.257Z</time></trkpt><trkpt lat="45.0171402" lon="11.6889784"><ele>5.0</ele><time>2026-05-05T15:18:55.256Z</time></trkpt><trkpt lat="45.0169045" lon="11.6887534"><ele>5.0</ele><time>2026-05-05T15:18:56.257Z</time></trkpt><trkpt lat="45.016668" lon="11.6885308"><ele>4.5</ele><time>2026-05-05T15:18:57.257Z</time></trkpt><trkpt lat="45.0164302" lon="11.6883123"><ele>4.0</ele><time>2026-05-05T15:18:58.257Z</time></trkpt><trkpt lat="45.0161934" lon="11.6880906"><ele>4.0</ele><time>2026-05-05T15:18:59.257Z</time></trkpt><trkpt lat="45.0159599" lon="11.6878691"><ele>4.0</ele><time>2026-05-05T15:19:00.256Z</time></trkpt><trkpt lat="45.0157266" lon="11.6876512"><ele>5.5</ele><time>2026-05-05T15:19:01.257Z</time></trkpt><trkpt lat="45.0154896" lon="11.6874258"><ele>7.0</ele><time>2026-05-05T15:19:02.257Z</time></trkpt><trkpt lat="45.0152547" lon="11.687204"><ele>7.0</ele><time>2026-05-05T15:19:03.257Z</time></trkpt><trkpt lat="45.0150218" lon="11.6869863"><ele>7.0</ele><time>2026-05-05T15:19:04.257Z</time></trkpt><trkpt lat="45.0147929" lon="11.6867701"><ele>5.5</ele><time>2026-05-05T15:19:05.257Z</time></trkpt><trkpt lat="45.0145581" lon="11.6865599"><ele>4.0</ele><time>2026-05-05T15:19:06.256Z</time></trkpt><trkpt lat="45.01432" lon="11.6863551"><ele>4.0</ele><time>2026-05-05T15:19:07.257Z</time></trkpt><trkpt lat="45.0140858" lon="11.6861439"><ele>4.0</ele><time>2026-05-05T15:19:08.256Z</time></trkpt><trkpt lat="45.013851" lon="11.6859344"><ele>4.0</ele><time>2026-05-05T15:19:09.256Z</time></trkpt><trkpt lat="45.0136238" lon="11.6857283"><ele>4.0</ele><time>2026-05-05T15:19:10.257Z</time></trkpt><trkpt lat="45.0133934" lon="11.685527"><ele>4.0</ele><time>2026-05-05T15:19:11.256Z</time></trkpt><trkpt lat="45.0131563" lon="11.6853288"><ele>4.0</ele><time>2026-05-05T15:19:12.256Z</time></trkpt><trkpt lat="45.0129282" lon="11.6851416"><ele>3.5</ele><time>2026-05-05T15:19:13.257Z</time></trkpt><trkpt lat="45.0126979" lon="11.6849515"><ele>3.0</ele><time>2026-05-05T15:19:14.257Z</time></trkpt><trkpt lat="45.0124686" lon="11.6847579"><ele>3.0</ele><time>2026-05-05T15:19:15.257Z</time></trkpt><trkpt lat="45.0122359" lon="11.6845702"><ele>3.0</ele><time>2026-05-05T15:19:16.257Z</time></trkpt><trkpt lat="45.0120067" lon="11.6843872"><ele>3.5</ele><time>2026-05-05T15:19:17.256Z</time></trkpt><trkpt lat="45.0117794" lon="11.684201"><ele>4.0</ele><time>2026-05-05T15:19:18.256Z</time></trkpt><trkpt lat="45.0115471" lon="11.6840186"><ele>4.0</ele><time>2026-05-05T15:19:19.257Z</time></trkpt><trkpt lat="45.0113184" lon="11.683835"><ele>4.0</ele><time>2026-05-05T15:19:20.257Z</time></trkpt><trkpt lat="45.0110871" lon="11.6836489"><ele>4.0</ele><time>2026-05-05T15:19:21.256Z</time></trkpt><trkpt lat="45.0108551" lon="11.6834595"><ele>4.0</ele><time>2026-05-05T15:19:22.257Z</time></trkpt><trkpt lat="45.010619" lon="11.6832717"><ele>4.0</ele><time>2026-05-05T15:19:23.257Z</time></trkpt><trkpt lat="45.0103889" lon="11.6830876"><ele>4.0</ele><time>2026-05-05T15:19:24.256Z</time></trkpt><trkpt lat="45.0101554" lon="11.6829005"><ele>4.5</ele><time>2026-05-05T15:19:25.257Z</time></trkpt><trkpt lat="45.0099278" lon="11.6827115"><ele>5.0</ele><time>2026-05-05T15:19:26.257Z</time></trkpt><trkpt lat="45.0096926" lon="11.6825244"><ele>5.0</ele><time>2026-05-05T15:19:27.256Z</time></trkpt><trkpt lat="45.0094551" lon="11.6823366"><ele>5.0</ele><time>2026-05-05T15:19:28.257Z</time></trkpt><trkpt lat="45.0092091" lon="11.682138"><ele>5.0</ele><time>2026-05-05T15:19:29.257Z</time></trkpt><trkpt lat="45.0089688" lon="11.6819396"><ele>5.0</ele><time>2026-05-05T15:19:30.256Z</time></trkpt><trkpt lat="45.0087272" lon="11.6817327"><ele>5.0</ele><time>2026-05-05T15:19:31.256Z</time></trkpt><trkpt lat="45.0084807" lon="11.6815284"><ele>5.0</ele><time>2026-05-05T15:19:32.257Z</time></trkpt><trkpt lat="45.0082351" lon="11.6813274"><ele>5.0</ele><time>2026-05-05T15:19:33.256Z</time></trkpt><trkpt lat="45.0079897" lon="11.6811276"><ele>5.0</ele><time>2026-05-05T15:19:34.256Z</time></trkpt><trkpt lat="45.0077504" lon="11.6809253"><ele>5.0</ele><time>2026-05-05T15:19:35.256Z</time></trkpt><trkpt lat="45.0075082" lon="11.6807283"><ele>5.0</ele><time>2026-05-05T15:19:36.257Z</time></trkpt><trkpt lat="45.0072645" lon="11.6805346"><ele>5.0</ele><time>2026-05-05T15:19:37.257Z</time></trkpt><trkpt lat="45.0070211" lon="11.6803389"><ele>5.0</ele><time>2026-05-05T15:19:38.257Z</time></trkpt><trkpt lat="45.0067781" lon="11.6801432"><ele>5.0</ele><time>2026-05-05T15:19:39.256Z</time></trkpt><trkpt lat="45.0065393" lon="11.6799477"><ele>5.0</ele><time>2026-05-05T15:19:40.257Z</time></trkpt><trkpt lat="45.0062993" lon="11.6797496"><ele>5.0</ele><time>2026-05-05T15:19:41.256Z</time></trkpt><trkpt lat="45.0060603" lon="11.6795532"><ele>5.0</ele><time>2026-05-05T15:19:42.257Z</time></trkpt><trkpt lat="45.005818" lon="11.6793619"><ele>5.0</ele><time>2026-05-05T15:19:43.257Z</time></trkpt><trkpt lat="45.0055752" lon="11.6791657"><ele>5.0</ele><time>2026-05-05T15:19:44.257Z</time></trkpt><trkpt lat="45.0053344" lon="11.6789759"><ele>5.0</ele><time>2026-05-05T15:19:45.257Z</time></trkpt><trkpt lat="45.0050952" lon="11.6787819"><ele>5.0</ele><time>2026-05-05T15:19:46.257Z</time></trkpt><trkpt lat="45.0048545" lon="11.6785841"><ele>5.0</ele><time>2026-05-05T15:19:47.257Z</time></trkpt><trkpt lat="45.0046106" lon="11.6783798"><ele>5.0</ele><time>2026-05-05T15:19:48.257Z</time></trkpt><trkpt lat="45.0043691" lon="11.6781818"><ele>4.5</ele><time>2026-05-05T15:19:49.256Z</time></trkpt><trkpt lat="45.0041234" lon="11.6779796"><ele>4.0</ele><time>2026-05-05T15:19:50.257Z</time></trkpt><trkpt lat="45.0038751" lon="11.677782"><ele>5.0</ele><time>2026-05-05T15:19:51.257Z</time></trkpt><trkpt lat="45.0036274" lon="11.6775873"><ele>6.0</ele><time>2026-05-05T15:19:52.257Z</time></trkpt><trkpt lat="45.0033766" lon="11.6773874"><ele>5.0</ele><time>2026-05-05T15:19:53.257Z</time></trkpt><trkpt lat="45.0031284" lon="11.6771939"><ele>4.0</ele><time>2026-05-05T15:19:54.256Z</time></trkpt><trkpt lat="45.0028798" lon="11.676998"><ele>4.0</ele><time>2026-05-05T15:19:55.257Z</time></trkpt><trkpt lat="45.0026333" lon="11.6767982"><ele>4.0</ele><time>2026-05-05T15:19:56.256Z</time></trkpt><trkpt lat="45.0023824" lon="11.6765921"><ele>4.5</ele><time>2026-05-05T15:19:57.257Z</time></trkpt><trkpt lat="45.0021277" lon="11.6763814"><ele>5.0</ele><time>2026-05-05T15:19:58.256Z</time></trkpt><trkpt lat="45.0018616" lon="11.6761663"><ele>4.5</ele><time>2026-05-05T15:19:59.257Z</time></trkpt><trkpt lat="45.0015925" lon="11.6759508"><ele>4.0</ele><time>2026-05-05T15:20:00.257Z</time></trkpt><trkpt lat="45.0013211" lon="11.675736"><ele>4.0</ele><time>2026-05-05T15:20:01.257Z</time></trkpt><trkpt lat="45.0010504" lon="11.6755153"><ele>4.0</ele><time>2026-05-05T15:20:02.257Z</time></trkpt><trkpt lat="45.0007831" lon="11.6752924"><ele>4.0</ele><time>2026-05-05T15:20:03.257Z</time></trkpt><trkpt lat="45.0005142" lon="11.6750731"><ele>4.0</ele><time>2026-05-05T15:20:04.257Z</time></trkpt><trkpt lat="45.0002497" lon="11.6748587"><ele>4.0</ele><time>2026-05-05T15:20:05.257Z</time></trkpt><trkpt lat="44.9999829" lon="11.6746455"><ele>4.0</ele><time>2026-05-05T15:20:06.257Z</time></trkpt><trkpt lat="44.9997178" lon="11.6744361"><ele>4.0</ele><time>2026-05-05T15:20:07.257Z</time></trkpt><trkpt lat="44.9994499" lon="11.674222"><ele>4.0</ele><time>2026-05-05T15:20:08.257Z</time></trkpt><trkpt lat="44.9991845" lon="11.6740058"><ele>4.0</ele><time>2026-05-05T15:20:09.257Z</time></trkpt><trkpt lat="44.9989174" lon="11.6737886"><ele>4.0</ele><time>2026-05-05T15:20:10.257Z</time></trkpt><trkpt lat="44.9986542" lon="11.6735762"><ele>4.0</ele><time>2026-05-05T15:20:11.257Z</time></trkpt><trkpt lat="44.9983944" lon="11.6733642"><ele>4.0</ele><time>2026-05-05T15:20:12.256Z</time></trkpt><trkpt lat="44.9981399" lon="11.6731564"><ele>4.0</ele><time>2026-05-05T15:20:13.257Z</time></trkpt><trkpt lat="44.9978904" lon="11.6729492"><ele>4.0</ele><time>2026-05-05T15:20:14.256Z</time></trkpt><trkpt lat="44.9976447" lon="11.6727448"><ele>3.0</ele><time>2026-05-05T15:20:15.257Z</time></trkpt><trkpt lat="44.9973934" lon="11.6725506"><ele>2.0</ele><time>2026-05-05T15:20:16.257Z</time></trkpt><trkpt lat="44.9971477" lon="11.6723494"><ele>2.0</ele><time>2026-05-05T15:20:17.257Z</time></trkpt><trkpt lat="44.9969031" lon="11.67215"><ele>2.0</ele><time>2026-05-05T15:20:18.257Z</time></trkpt><trkpt lat="44.9966552" lon="11.6719491"><ele>2.5</ele><time>2026-05-05T15:20:19.257Z</time></trkpt><trkpt lat="44.9964102" lon="11.6717548"><ele>3.0</ele><time>2026-05-05T15:20:20.256Z</time></trkpt><trkpt lat="44.9961648" lon="11.671557"><ele>3.0</ele><time>2026-05-05T15:20:21.257Z</time></trkpt><trkpt lat="44.9959132" lon="11.6713579"><ele>3.0</ele><time>2026-05-05T15:20:22.256Z</time></trkpt><trkpt lat="44.995657" lon="11.6711435"><ele>3.5</ele><time>2026-05-05T15:20:23.256Z</time></trkpt><trkpt lat="44.9953878" lon="11.6709266"><ele>4.0</ele><time>2026-05-05T15:20:24.256Z</time></trkpt><trkpt lat="44.995111" lon="11.6707008"><ele>4.0</ele><time>2026-05-05T15:20:25.256Z</time></trkpt><trkpt lat="44.9948241" lon="11.6704653"><ele>4.0</ele><time>2026-05-05T15:20:26.256Z</time></trkpt><trkpt lat="44.9945312" lon="11.6702291"><ele>4.0</ele><time>2026-05-05T15:20:27.256Z</time></trkpt><trkpt lat="44.9942312" lon="11.6699853"><ele>4.0</ele><time>2026-05-05T15:20:28.256Z</time></trkpt><trkpt lat="44.9939218" lon="11.6697381"><ele>3.5</ele><time>2026-05-05T15:20:29.257Z</time></trkpt><trkpt lat="44.993612" lon="11.6694882"><ele>3.0</ele><time>2026-05-05T15:20:30.257Z</time></trkpt><trkpt lat="44.9932984" lon="11.6692368"><ele>3.0</ele><time>2026-05-05T15:20:31.257Z</time></trkpt><trkpt lat="44.9929858" lon="11.6689851"><ele>3.0</ele><time>2026-05-05T15:20:32.256Z</time></trkpt><trkpt lat="44.9926742" lon="11.6687365"><ele>3.0</ele><time>2026-05-05T15:20:33.256Z</time></trkpt><trkpt lat="44.9923617" lon="11.6684817"><ele>3.0</ele><time>2026-05-05T15:20:34.257Z</time></trkpt><trkpt lat="44.9920488" lon="11.6682285"><ele>3.0</ele><time>2026-05-05T15:20:35.256Z</time></trkpt><trkpt lat="44.9917352" lon="11.6679724"><ele>3.0</ele><time>2026-05-05T15:20:36.257Z</time></trkpt><trkpt lat="44.991422" lon="11.6677185"><ele>2.5</ele><time>2026-05-05T15:20:37.256Z</time></trkpt><trkpt lat="44.9910978" lon="11.6674588"><ele>2.0</ele><time>2026-05-05T15:20:38.257Z</time></trkpt><trkpt lat="44.9907802" lon="11.6671995"><ele>3.0</ele><time>2026-05-05T15:20:39.256Z</time></trkpt><trkpt lat="44.9904692" lon="11.6669468"><ele>4.0</ele><time>2026-05-05T15:20:40.257Z</time></trkpt><trkpt lat="44.9901589" lon="11.6666939"><ele>4.0</ele><time>2026-05-05T15:20:41.257Z</time></trkpt><trkpt lat="44.9898511" lon="11.6664426"><ele>4.0</ele><time>2026-05-05T15:20:42.257Z</time></trkpt><trkpt lat="44.9895422" lon="11.6661964"><ele>3.5</ele><time>2026-05-05T15:20:43.256Z</time></trkpt><trkpt lat="44.9892387" lon="11.6659528"><ele>3.0</ele><time>2026-05-05T15:20:44.256Z</time></trkpt><trkpt lat="44.9889337" lon="11.6657118"><ele>3.0</ele><time>2026-05-05T15:20:45.256Z</time></trkpt><trkpt lat="44.9886329" lon="11.6654679"><ele>3.0</ele><time>2026-05-05T15:20:46.257Z</time></trkpt><trkpt lat="44.9883274" lon="11.6652247"><ele>3.0</ele><time>2026-05-05T15:20:47.256Z</time></trkpt><trkpt lat="44.9880214" lon="11.6649729"><ele>3.0</ele><time>2026-05-05T15:20:48.257Z</time></trkpt><trkpt lat="44.9877148" lon="11.6647289"><ele>3.0</ele><time>2026-05-05T15:20:49.256Z</time></trkpt><trkpt lat="44.9874096" lon="11.6644836"><ele>3.0</ele><time>2026-05-05T15:20:50.257Z</time></trkpt><trkpt lat="44.987108" lon="11.6642366"><ele>3.0</ele><time>2026-05-05T15:20:51.256Z</time></trkpt><trkpt lat="44.9868058" lon="11.6639915"><ele>3.0</ele><time>2026-05-05T15:20:52.256Z</time></trkpt><trkpt lat="44.9865042" lon="11.6637449"><ele>4.5</ele><time>2026-05-05T15:20:53.256Z</time></trkpt><trkpt lat="44.986199" lon="11.6634987"><ele>6.0</ele><time>2026-05-05T15:20:54.257Z</time></trkpt><trkpt lat="44.9859012" lon="11.6632543"><ele>4.5</ele><time>2026-05-05T15:20:55.257Z</time></trkpt><trkpt lat="44.985595" lon="11.6630096"><ele>3.0</ele><time>2026-05-05T15:20:56.256Z</time></trkpt><trkpt lat="44.9852903" lon="11.662755"><ele>3.0</ele><time>2026-05-05T15:20:57.257Z</time></trkpt><trkpt lat="44.9849787" lon="11.6625006"><ele>3.0</ele><time>2026-05-05T15:20:58.257Z</time></trkpt><trkpt lat="44.984661" lon="11.662243"><ele>3.0</ele><time>2026-05-05T15:20:59.256Z</time></trkpt><trkpt lat="44.9843394" lon="11.6619837"><ele>3.0</ele><time>2026-05-05T15:21:00.257Z</time></trkpt><trkpt lat="44.9840163" lon="11.6617254"><ele>2.0</ele><time>2026-05-05T15:21:01.257Z</time></trkpt><trkpt lat="44.9837" lon="11.6614731"><ele>1.0</ele><time>2026-05-05T15:21:02.257Z</time></trkpt><trkpt lat="44.9834026" lon="11.6612331"><ele>1.0</ele><time>2026-05-05T15:21:03.257Z</time></trkpt><trkpt lat="44.9831059" lon="11.660994"><ele>1.0</ele><time>2026-05-05T15:21:04.256Z</time></trkpt><trkpt lat="44.9828112" lon="11.6607517"><ele>1.0</ele><time>2026-05-05T15:21:05.257Z</time></trkpt><trkpt lat="44.9825315" lon="11.6605206"><ele>1.0</ele><time>2026-05-05T15:21:06.257Z</time></trkpt><trkpt lat="44.982244" lon="11.660287"><ele>1.0</ele><time>2026-05-05T15:21:07.256Z</time></trkpt><trkpt lat="44.9819679" lon="11.6600633"><ele>1.0</ele><time>2026-05-05T15:21:08.256Z</time></trkpt><trkpt lat="44.9816901" lon="11.6598405"><ele>1.0</ele><time>2026-05-05T15:21:09.257Z</time></trkpt><trkpt lat="44.9814236" lon="11.6596243"><ele>1.0</ele><time>2026-05-05T15:21:10.257Z</time></trkpt><trkpt lat="44.9811639" lon="11.6594113"><ele>1.0</ele><time>2026-05-05T15:21:11.256Z</time></trkpt><trkpt lat="44.9809075" lon="11.6592024"><ele>1.0</ele><time>2026-05-05T15:21:12.257Z</time></trkpt><trkpt lat="44.9806515" lon="11.658998"><ele>1.5</ele><time>2026-05-05T15:21:13.256Z</time></trkpt><trkpt lat="44.9804041" lon="11.6587975"><ele>2.0</ele><time>2026-05-05T15:21:14.257Z</time></trkpt><trkpt lat="44.9801537" lon="11.6585919"><ele>2.0</ele><time>2026-05-05T15:21:15.256Z</time></trkpt><trkpt lat="44.9799052" lon="11.6583905"><ele>2.0</ele><time>2026-05-05T15:21:16.257Z</time></trkpt><trkpt lat="44.9796528" lon="11.6581918"><ele>2.0</ele><time>2026-05-05T15:21:17.256Z</time></trkpt><trkpt lat="44.9794031" lon="11.6579877"><ele>2.0</ele><time>2026-05-05T15:21:18.257Z</time></trkpt><trkpt lat="44.9791508" lon="11.6577815"><ele>2.0</ele><time>2026-05-05T15:21:19.256Z</time></trkpt><trkpt lat="44.9788964" lon="11.6575742"><ele>2.0</ele><time>2026-05-05T15:21:20.257Z</time></trkpt><trkpt lat="44.9786388" lon="11.6573635"><ele>2.0</ele><time>2026-05-05T15:21:21.257Z</time></trkpt><trkpt lat="44.9783726" lon="11.6571515"><ele>2.0</ele><time>2026-05-05T15:21:22.257Z</time></trkpt><trkpt lat="44.9781059" lon="11.6569354"><ele>2.0</ele><time>2026-05-05T15:21:23.256Z</time></trkpt><trkpt lat="44.9778378" lon="11.6567199"><ele>2.0</ele><time>2026-05-05T15:21:24.256Z</time></trkpt><trkpt lat="44.9775703" lon="11.6565054"><ele>2.5</ele><time>2026-05-05T15:21:25.257Z</time></trkpt><trkpt lat="44.9773044" lon="11.6562914"><ele>3.0</ele><time>2026-05-05T15:21:26.256Z</time></trkpt><trkpt lat="44.9770381" lon="11.6560813"><ele>3.0</ele><time>2026-05-05T15:21:27.257Z</time></trkpt><trkpt lat="44.9767737" lon="11.6558686"><ele>3.0</ele><time>2026-05-05T15:21:28.257Z</time></trkpt><trkpt lat="44.9765197" lon="11.6556517"><ele>2.5</ele><time>2026-05-05T15:21:29.257Z</time></trkpt><trkpt lat="44.9762625" lon="11.6554319"><ele>2.0</ele><time>2026-05-05T15:21:30.257Z</time></trkpt><trkpt lat="44.9760128" lon="11.6552156"><ele>2.0</ele><time>2026-05-05T15:21:31.256Z</time></trkpt><trkpt lat="44.9757634" lon="11.6550067"><ele>2.0</ele><time>2026-05-05T15:21:32.256Z</time></trkpt><trkpt lat="44.9755139" lon="11.6548055"><ele>2.0</ele><time>2026-05-05T15:21:33.257Z</time></trkpt><trkpt lat="44.9752746" lon="11.6546023"><ele>2.0</ele><time>2026-05-05T15:21:34.257Z</time></trkpt><trkpt lat="44.9750364" lon="11.6544064"><ele>1.5</ele><time>2026-05-05T15:21:35.257Z</time></trkpt><trkpt lat="44.9748057" lon="11.6542181"><ele>1.0</ele><time>2026-05-05T15:21:36.256Z</time></trkpt><trkpt lat="44.9745817" lon="11.6540341"><ele>1.0</ele><time>2026-05-05T15:21:37.257Z</time></trkpt><trkpt lat="44.9743588" lon="11.6538487"><ele>1.0</ele><time>2026-05-05T15:21:38.257Z</time></trkpt><trkpt lat="44.9741349" lon="11.6536672"><ele>1.5</ele><time>2026-05-05T15:21:39.257Z</time></trkpt><trkpt lat="44.973913" lon="11.6534834"><ele>2.0</ele><time>2026-05-05T15:21:40.256Z</time></trkpt><trkpt lat="44.9736877" lon="11.653299"><ele>2.0</ele><time>2026-05-05T15:21:41.256Z</time></trkpt><trkpt lat="44.9734612" lon="11.6531177"><ele>2.0</ele><time>2026-05-05T15:21:42.257Z</time></trkpt><trkpt lat="44.9732304" lon="11.6529316"><ele>1.5</ele><time>2026-05-05T15:21:43.257Z</time></trkpt><trkpt lat="44.9730052" lon="11.6527492"><ele>1.0</ele><time>2026-05-05T15:21:44.257Z</time></trkpt><trkpt lat="44.9727783" lon="11.6525689"><ele>1.0</ele><time>2026-05-05T15:21:45.256Z</time></trkpt><trkpt lat="44.9725509" lon="11.6523828"><ele>1.0</ele><time>2026-05-05T15:21:46.257Z</time></trkpt><trkpt lat="44.9723254" lon="11.6521975"><ele>1.5</ele><time>2026-05-05T15:21:47.256Z</time></trkpt><trkpt lat="44.9720977" lon="11.6520138"><ele>2.0</ele><time>2026-05-05T15:21:48.256Z</time></trkpt><trkpt lat="44.9718689" lon="11.6518309"><ele>2.0</ele><time>2026-05-05T15:21:49.257Z</time></trkpt><trkpt lat="44.9716438" lon="11.6516473"><ele>2.0</ele><time>2026-05-05T15:21:50.256Z</time></trkpt><trkpt lat="44.9714166" lon="11.6514615"><ele>2.0</ele><time>2026-05-05T15:21:51.257Z</time></trkpt><trkpt lat="44.9711913" lon="11.6512796"><ele>2.0</ele><time>2026-05-05T15:21:52.257Z</time></trkpt><trkpt lat="44.9709713" lon="11.6510996"><ele>1.5</ele><time>2026-05-05T15:21:53.257Z</time></trkpt><trkpt lat="44.9707505" lon="11.6509226"><ele>1.0</ele><time>2026-05-05T15:21:54.257Z</time></trkpt><trkpt lat="44.9705269" lon="11.650748"><ele>1.0</ele><time>2026-05-05T15:21:55.256Z</time></trkpt><trkpt lat="44.9703065" lon="11.650574"><ele>1.0</ele><time>2026-05-05T15:21:56.256Z</time></trkpt><trkpt lat="44.9700869" lon="11.6503964"><ele>2.0</ele><time>2026-05-05T15:21:57.257Z</time></trkpt><trkpt lat="44.9698691" lon="11.6502231"><ele>3.0</ele><time>2026-05-05T15:21:58.257Z</time></trkpt><trkpt lat="44.9696533" lon="11.6500464"><ele>3.0</ele><time>2026-05-05T15:21:59.256Z</time></trkpt><trkpt lat="44.9694405" lon="11.6498704"><ele>3.0</ele><time>2026-05-05T15:22:00.257Z</time></trkpt><trkpt lat="44.969228" lon="11.6497026"><ele>4.5</ele><time>2026-05-05T15:22:01.256Z</time></trkpt><trkpt lat="44.9690211" lon="11.6495376"><ele>6.0</ele><time>2026-05-05T15:22:02.257Z</time></trkpt><trkpt lat="44.9688112" lon="11.6493723"><ele>6.5</ele><time>2026-05-05T15:22:03.256Z</time></trkpt><trkpt lat="44.9686058" lon="11.6492038"><ele>7.0</ele><time>2026-05-05T15:22:04.257Z</time></trkpt><trkpt lat="44.9683992" lon="11.6490362"><ele>6.0</ele><time>2026-05-05T15:22:05.256Z</time></trkpt><trkpt lat="44.9681917" lon="11.6488704"><ele>5.0</ele><time>2026-05-05T15:22:06.257Z</time></trkpt><trkpt lat="44.9679812" lon="11.6487027"><ele>3.5</ele><time>2026-05-05T15:22:07.257Z</time></trkpt><trkpt lat="44.9677767" lon="11.6485318"><ele>2.0</ele><time>2026-05-05T15:22:08.256Z</time></trkpt><trkpt lat="44.9675688" lon="11.6483606"><ele>2.5</ele><time>2026-05-05T15:22:09.256Z</time></trkpt><trkpt lat="44.9673595" lon="11.648194"><ele>3.0</ele><time>2026-05-05T15:22:10.256Z</time></trkpt><trkpt lat="44.9671516" lon="11.6480225"><ele>3.0</ele><time>2026-05-05T15:22:11.257Z</time></trkpt><trkpt lat="44.966936" lon="11.6478573"><ele>3.0</ele><time>2026-05-05T15:22:12.256Z</time></trkpt><trkpt lat="44.9667202" lon="11.647687"><ele>2.5</ele><time>2026-05-05T15:22:13.257Z</time></trkpt><trkpt lat="44.9664975" lon="11.6475193"><ele>2.0</ele><time>2026-05-05T15:22:14.256Z</time></trkpt><trkpt lat="44.9662699" lon="11.6473582"><ele>2.0</ele><time>2026-05-05T15:22:15.257Z</time></trkpt><trkpt lat="44.9660404" lon="11.6472006"><ele>2.0</ele><time>2026-05-05T15:22:16.257Z</time></trkpt><trkpt lat="44.9658076" lon="11.6470394"><ele>2.5</ele><time>2026-05-05T15:22:17.256Z</time></trkpt><trkpt lat="44.9655737" lon="11.6468741"><ele>3.0</ele><time>2026-05-05T15:22:18.256Z</time></trkpt><trkpt lat="44.9653389" lon="11.6467098"><ele>3.0</ele><time>2026-05-05T15:22:19.257Z</time></trkpt><trkpt lat="44.9650952" lon="11.6465444"><ele>3.0</ele><time>2026-05-05T15:22:20.257Z</time></trkpt><trkpt lat="44.9648546" lon="11.6463816"><ele>2.5</ele><time>2026-05-05T15:22:21.256Z</time></trkpt><trkpt lat="44.9646074" lon="11.6462246"><ele>2.0</ele><time>2026-05-05T15:22:22.257Z</time></trkpt><trkpt lat="44.9643638" lon="11.6460656"><ele>2.5</ele><time>2026-05-05T15:22:23.256Z</time></trkpt><trkpt lat="44.964115" lon="11.6459074"><ele>3.0</ele><time>2026-05-05T15:22:24.256Z</time></trkpt><trkpt lat="44.9638673" lon="11.6457454"><ele>3.0</ele><time>2026-05-05T15:22:25.257Z</time></trkpt><trkpt lat="44.9636158" lon="11.6455776"><ele>3.0</ele><time>2026-05-05T15:22:26.256Z</time></trkpt><trkpt lat="44.9633646" lon="11.6454155"><ele>2.5</ele><time>2026-05-05T15:22:27.257Z</time></trkpt><trkpt lat="44.9631112" lon="11.6452549"><ele>2.0</ele><time>2026-05-05T15:22:28.256Z</time></trkpt><trkpt lat="44.9628554" lon="11.6450868"><ele>2.0</ele><time>2026-05-05T15:22:29.257Z</time></trkpt><trkpt lat="44.9625976" lon="11.644919"><ele>2.0</ele><time>2026-05-05T15:22:30.257Z</time></trkpt><trkpt lat="44.9623399" lon="11.6447576"><ele>2.0</ele><time>2026-05-05T15:22:31.257Z</time></trkpt><trkpt lat="44.9620807" lon="11.6445877"><ele>2.0</ele><time>2026-05-05T15:22:32.256Z</time></trkpt><trkpt lat="44.9618256" lon="11.6444113"><ele>3.0</ele><time>2026-05-05T15:22:33.257Z</time></trkpt><trkpt lat="44.9615809" lon="11.6442388"><ele>4.0</ele><time>2026-05-05T15:22:34.257Z</time></trkpt><trkpt lat="44.9613338" lon="11.6440636"><ele>4.0</ele><time>2026-05-05T15:22:35.257Z</time></trkpt><trkpt lat="44.9610881" lon="11.6438974"><ele>4.0</ele><time>2026-05-05T15:22:36.257Z</time></trkpt><trkpt lat="44.9608401" lon="11.643729"><ele>4.0</ele><time>2026-05-05T15:22:37.257Z</time></trkpt><trkpt lat="44.9606031" lon="11.643559"><ele>4.0</ele><time>2026-05-05T15:22:38.257Z</time></trkpt><trkpt lat="44.9603602" lon="11.643402"><ele>4.0</ele><time>2026-05-05T15:22:39.256Z</time></trkpt><trkpt lat="44.960126" lon="11.6432449"><ele>4.0</ele><time>2026-05-05T15:22:40.257Z</time></trkpt><trkpt lat="44.9598889" lon="11.6430855"><ele>3.5</ele><time>2026-05-05T15:22:41.256Z</time></trkpt><trkpt lat="44.9596484" lon="11.642933"><ele>3.0</ele><time>2026-05-05T15:22:42.257Z</time></trkpt><trkpt lat="44.9594129" lon="11.6427756"><ele>3.0</ele><time>2026-05-05T15:22:43.256Z</time></trkpt><trkpt lat="44.9591739" lon="11.6426187"><ele>3.0</ele><time>2026-05-05T15:22:44.257Z</time></trkpt><trkpt lat="44.9589389" lon="11.6424625"><ele>3.0</ele><time>2026-05-05T15:22:45.257Z</time></trkpt><trkpt lat="44.9587045" lon="11.6423058"><ele>3.0</ele><time>2026-05-05T15:22:46.257Z</time></trkpt><trkpt lat="44.9584641" lon="11.6421545"><ele>3.0</ele><time>2026-05-05T15:22:47.257Z</time></trkpt><trkpt lat="44.9582299" lon="11.6419964"><ele>3.0</ele><time>2026-05-05T15:22:48.257Z</time></trkpt><trkpt lat="44.9579926" lon="11.6418458"><ele>2.5</ele><time>2026-05-05T15:22:49.257Z</time></trkpt><trkpt lat="44.9577599" lon="11.6416943"><ele>2.0</ele><time>2026-05-05T15:22:50.257Z</time></trkpt><trkpt lat="44.9575242" lon="11.6415452"><ele>2.0</ele><time>2026-05-05T15:22:51.257Z</time></trkpt><trkpt lat="44.9572875" lon="11.6413906"><ele>2.0</ele><time>2026-05-05T15:22:52.256Z</time></trkpt><trkpt lat="44.9570555" lon="11.6412331"><ele>1.5</ele><time>2026-05-05T15:22:53.257Z</time></trkpt><trkpt lat="44.9568237" lon="11.6410783"><ele>1.0</ele><time>2026-05-05T15:22:54.257Z</time></trkpt><trkpt lat="44.9565893" lon="11.6409207"><ele>2.0</ele><time>2026-05-05T15:22:55.257Z</time></trkpt><trkpt lat="44.9563515" lon="11.6407699"><ele>3.0</ele><time>2026-05-05T15:22:56.256Z</time></trkpt><trkpt lat="44.9561143" lon="11.640619"><ele>3.0</ele><time>2026-05-05T15:22:57.257Z</time></trkpt><trkpt lat="44.9558766" lon="11.6404622"><ele>3.0</ele><time>2026-05-05T15:22:58.257Z</time></trkpt><trkpt lat="44.9556353" lon="11.6403052"><ele>3.0</ele><time>2026-05-05T15:22:59.257Z</time></trkpt><trkpt lat="44.9553937" lon="11.6401521"><ele>3.0</ele><time>2026-05-05T15:23:00.257Z</time></trkpt><trkpt lat="44.9551572" lon="11.6399955"><ele>3.0</ele><time>2026-05-05T15:23:01.257Z</time></trkpt><trkpt lat="44.9549124" lon="11.6398337"><ele>3.0</ele><time>2026-05-05T15:23:02.256Z</time></trkpt><trkpt lat="44.9546711" lon="11.6396778"><ele>3.0</ele><time>2026-05-05T15:23:03.257Z</time></trkpt><trkpt lat="44.9544256" lon="11.6395199"><ele>3.0</ele><time>2026-05-05T15:23:04.256Z</time></trkpt><trkpt lat="44.9541833" lon="11.6393615"><ele>3.0</ele><time>2026-05-05T15:23:05.257Z</time></trkpt><trkpt lat="44.9539379" lon="11.6391938"><ele>3.0</ele><time>2026-05-05T15:23:06.257Z</time></trkpt><trkpt lat="44.9536884" lon="11.6390308"><ele>3.0</ele><time>2026-05-05T15:23:07.256Z</time></trkpt><trkpt lat="44.9534457" lon="11.6388672"><ele>3.0</ele><time>2026-05-05T15:23:08.257Z</time></trkpt><trkpt lat="44.9531976" lon="11.638707"><ele>3.5</ele><time>2026-05-05T15:23:09.257Z</time></trkpt><trkpt lat="44.9529477" lon="11.6385463"><ele>4.0</ele><time>2026-05-05T15:23:10.257Z</time></trkpt><trkpt lat="44.9526992" lon="11.6383869"><ele>3.5</ele><time>2026-05-05T15:23:11.257Z</time></trkpt><trkpt lat="44.9524452" lon="11.6382232"><ele>3.0</ele><time>2026-05-05T15:23:12.256Z</time></trkpt><trkpt lat="44.9521922" lon="11.638057"><ele>3.0</ele><time>2026-05-05T15:23:13.256Z</time></trkpt><trkpt lat="44.9519378" lon="11.6378902"><ele>3.0</ele><time>2026-05-05T15:23:14.257Z</time></trkpt><trkpt lat="44.9516825" lon="11.637724"><ele>3.0</ele><time>2026-05-05T15:23:15.256Z</time></trkpt><trkpt lat="44.9514236" lon="11.6375532"><ele>3.0</ele><time>2026-05-05T15:23:16.256Z</time></trkpt><trkpt lat="44.951166" lon="11.6373821"><ele>3.0</ele><time>2026-05-05T15:23:17.256Z</time></trkpt><trkpt lat="44.9509042" lon="11.6372103"><ele>3.0</ele><time>2026-05-05T15:23:18.257Z</time></trkpt><trkpt lat="44.9506403" lon="11.6370425"><ele>3.0</ele><time>2026-05-05T15:23:19.257Z</time></trkpt><trkpt lat="44.9503798" lon="11.6368774"><ele>3.0</ele><time>2026-05-05T15:23:20.257Z</time></trkpt><trkpt lat="44.950121" lon="11.6367069"><ele>2.5</ele><time>2026-05-05T15:23:21.257Z</time></trkpt><trkpt lat="44.9498634" lon="11.6365373"><ele>2.0</ele><time>2026-05-05T15:23:22.257Z</time></trkpt><trkpt lat="44.9496081" lon="11.6363687"><ele>2.0</ele><time>2026-05-05T15:23:23.257Z</time></trkpt><trkpt lat="44.9493506" lon="11.6361954"><ele>2.0</ele><time>2026-05-05T15:23:24.257Z</time></trkpt><trkpt lat="44.9490986" lon="11.6360231"><ele>2.0</ele><time>2026-05-05T15:23:25.257Z</time></trkpt><trkpt lat="44.9488464" lon="11.635839"><ele>2.0</ele><time>2026-05-05T15:23:26.257Z</time></trkpt><trkpt lat="44.9486004" lon="11.6356441"><ele>2.5</ele><time>2026-05-05T15:23:27.257Z</time></trkpt><trkpt lat="44.9483549" lon="11.6354374"><ele>3.0</ele><time>2026-05-05T15:23:28.257Z</time></trkpt><trkpt lat="44.9481162" lon="11.6352189"><ele>3.0</ele><time>2026-05-05T15:23:29.257Z</time></trkpt><trkpt lat="44.9478828" lon="11.634989"><ele>3.0</ele><time>2026-05-05T15:23:30.256Z</time></trkpt><trkpt lat="44.947653" lon="11.6347519"><ele>3.0</ele><time>2026-05-05T15:23:31.256Z</time></trkpt><trkpt lat="44.9474274" lon="11.634503"><ele>3.0</ele><time>2026-05-05T15:23:32.257Z</time></trkpt><trkpt lat="44.9472114" lon="11.63424"><ele>3.0</ele><time>2026-05-05T15:23:33.257Z</time></trkpt><trkpt lat="44.9470009" lon="11.6339745"><ele>3.0</ele><time>2026-05-05T15:23:34.256Z</time></trkpt><trkpt lat="44.9467972" lon="11.6336958"><ele>4.5</ele><time>2026-05-05T15:23:35.257Z</time></trkpt><trkpt lat="44.9466006" lon="11.6334067"><ele>6.0</ele><time>2026-05-05T15:23:36.256Z</time></trkpt><trkpt lat="44.9464067" lon="11.6331024"><ele>5.5</ele><time>2026-05-05T15:23:37.257Z</time></trkpt><trkpt lat="44.9462184" lon="11.6327899"><ele>5.0</ele><time>2026-05-05T15:23:38.257Z</time></trkpt><trkpt lat="44.9460327" lon="11.6324671"><ele>5.0</ele><time>2026-05-05T15:23:39.257Z</time></trkpt><trkpt lat="44.9458458" lon="11.6321402"><ele>5.0</ele><time>2026-05-05T15:23:40.257Z</time></trkpt><trkpt lat="44.9456627" lon="11.6318106"><ele>4.0</ele><time>2026-05-05T15:23:41.257Z</time></trkpt><trkpt lat="44.9454857" lon="11.6314817"><ele>3.0</ele><time>2026-05-05T15:23:42.257Z</time></trkpt><trkpt lat="44.9453044" lon="11.631153"><ele>3.5</ele><time>2026-05-05T15:23:43.257Z</time></trkpt><trkpt lat="44.9451246" lon="11.6308233"><ele>4.0</ele><time>2026-05-05T15:23:44.257Z</time></trkpt><trkpt lat="44.944947" lon="11.6305008"><ele>4.5</ele><time>2026-05-05T15:23:45.257Z</time></trkpt><trkpt lat="44.9447696" lon="11.6301806"><ele>5.0</ele><time>2026-05-05T15:23:46.256Z</time></trkpt><trkpt lat="44.9445903" lon="11.629857"><ele>5.0</ele><time>2026-05-05T15:23:47.257Z</time></trkpt><trkpt lat="44.9444118" lon="11.6295378"><ele>5.0</ele><time>2026-05-05T15:23:48.256Z</time></trkpt><trkpt lat="44.9442355" lon="11.6292151"><ele>5.0</ele><time>2026-05-05T15:23:49.256Z</time></trkpt><trkpt lat="44.9440583" lon="11.6288951"><ele>5.0</ele><time>2026-05-05T15:23:50.257Z</time></trkpt><trkpt lat="44.9438804" lon="11.6285742"><ele>5.5</ele><time>2026-05-05T15:23:51.257Z</time></trkpt><trkpt lat="44.9437057" lon="11.6282592"><ele>6.0</ele><time>2026-05-05T15:23:52.256Z</time></trkpt><trkpt lat="44.9435337" lon="11.6279396"><ele>5.0</ele><time>2026-05-05T15:23:53.256Z</time></trkpt><trkpt lat="44.9433624" lon="11.6276267"><ele>4.0</ele><time>2026-05-05T15:23:54.257Z</time></trkpt><trkpt lat="44.9431906" lon="11.6273117"><ele>4.0</ele><time>2026-05-05T15:23:55.256Z</time></trkpt><trkpt lat="44.9430177" lon="11.6269955"><ele>4.0</ele><time>2026-05-05T15:23:56.256Z</time></trkpt><trkpt lat="44.9428478" lon="11.6266832"><ele>3.5</ele><time>2026-05-05T15:23:57.257Z</time></trkpt><trkpt lat="44.9426769" lon="11.6263757"><ele>3.0</ele><time>2026-05-05T15:23:58.256Z</time></trkpt><trkpt lat="44.9425042" lon="11.6260615"><ele>4.5</ele><time>2026-05-05T15:23:59.256Z</time></trkpt><trkpt lat="44.9423355" lon="11.6257546"><ele>6.0</ele><time>2026-05-05T15:24:00.257Z</time></trkpt><trkpt lat="44.9421689" lon="11.6254503"><ele>6.0</ele><time>2026-05-05T15:24:01.257Z</time></trkpt><trkpt lat="44.9420028" lon="11.6251314"><ele>6.0</ele><time>2026-05-05T15:24:02.256Z</time></trkpt><trkpt lat="44.9418356" lon="11.624817"><ele>4.5</ele><time>2026-05-05T15:24:03.256Z</time></trkpt><trkpt lat="44.9416643" lon="11.6245058"><ele>3.0</ele><time>2026-05-05T15:24:04.257Z</time></trkpt><trkpt lat="44.9414886" lon="11.6241905"><ele>3.0</ele><time>2026-05-05T15:24:05.257Z</time></trkpt><trkpt lat="44.9413096" lon="11.6238732"><ele>3.0</ele><time>2026-05-05T15:24:06.257Z</time></trkpt><trkpt lat="44.9411259" lon="11.6235499"><ele>3.0</ele><time>2026-05-05T15:24:07.257Z</time></trkpt><trkpt lat="44.9409349" lon="11.6232242"><ele>3.0</ele><time>2026-05-05T15:24:08.256Z</time></trkpt><trkpt lat="44.9407449" lon="11.6228863"><ele>3.0</ele><time>2026-05-05T15:24:09.257Z</time></trkpt><trkpt lat="44.9405458" lon="11.6225465"><ele>3.0</ele><time>2026-05-05T15:24:10.257Z</time></trkpt><trkpt lat="44.9403487" lon="11.6221897"><ele>3.0</ele><time>2026-05-05T15:24:11.256Z</time></trkpt><trkpt lat="44.9401487" lon="11.6218286"><ele>3.0</ele><time>2026-05-05T15:24:12.257Z</time></trkpt><trkpt lat="44.939944" lon="11.6214609"><ele>3.5</ele><time>2026-05-05T15:24:13.256Z</time></trkpt><trkpt lat="44.9397414" lon="11.62109"><ele>4.0</ele><time>2026-05-05T15:24:14.256Z</time></trkpt><trkpt lat="44.9395379" lon="11.6207256"><ele>4.0</ele><time>2026-05-05T15:24:15.257Z</time></trkpt><trkpt lat="44.9393374" lon="11.6203586"><ele>4.0</ele><time>2026-05-05T15:24:16.257Z</time></trkpt><trkpt lat="44.9391388" lon="11.6199937"><ele>3.5</ele><time>2026-05-05T15:24:17.256Z</time></trkpt><trkpt lat="44.9389428" lon="11.6196292"><ele>3.0</ele><time>2026-05-05T15:24:18.257Z</time></trkpt><trkpt lat="44.9387511" lon="11.6192665"><ele>3.0</ele><time>2026-05-05T15:24:19.256Z</time></trkpt><trkpt lat="44.9385635" lon="11.6189047"><ele>3.0</ele><time>2026-05-05T15:24:20.257Z</time></trkpt><trkpt lat="44.9383751" lon="11.6185478"><ele>3.5</ele><time>2026-05-05T15:24:21.257Z</time></trkpt><trkpt lat="44.9381874" lon="11.618197"><ele>4.0</ele><time>2026-05-05T15:24:22.256Z</time></trkpt><trkpt lat="44.9380004" lon="11.6178535"><ele>4.0</ele><time>2026-05-05T15:24:23.257Z</time></trkpt><trkpt lat="44.9378124" lon="11.617513"><ele>4.0</ele><time>2026-05-05T15:24:24.256Z</time></trkpt><trkpt lat="44.9376299" lon="11.6171791"><ele>4.5</ele><time>2026-05-05T15:24:25.256Z</time></trkpt><trkpt lat="44.9374468" lon="11.6168391"><ele>5.0</ele><time>2026-05-05T15:24:26.257Z</time></trkpt><trkpt lat="44.9372665" lon="11.6165113"><ele>5.0</ele><time>2026-05-05T15:24:27.257Z</time></trkpt><trkpt lat="44.9370864" lon="11.6161884"><ele>5.0</ele><time>2026-05-05T15:24:28.256Z</time></trkpt><trkpt lat="44.9368996" lon="11.6158504"><ele>4.0</ele><time>2026-05-05T15:24:29.256Z</time></trkpt><trkpt lat="44.9367194" lon="11.6155282"><ele>3.0</ele><time>2026-05-05T15:24:30.256Z</time></trkpt><trkpt lat="44.9365415" lon="11.6152043"><ele>3.0</ele><time>2026-05-05T15:24:31.257Z</time></trkpt><trkpt lat="44.9363603" lon="11.6148781"><ele>3.0</ele><time>2026-05-05T15:24:32.257Z</time></trkpt><trkpt lat="44.936185" lon="11.6145531"><ele>3.0</ele><time>2026-05-05T15:24:33.257Z</time></trkpt><trkpt lat="44.9360058" lon="11.6142306"><ele>3.0</ele><time>2026-05-05T15:24:34.256Z</time></trkpt><trkpt lat="44.9358301" lon="11.6139099"><ele>2.5</ele><time>2026-05-05T15:24:35.256Z</time></trkpt><trkpt lat="44.9356535" lon="11.6135902"><ele>2.0</ele><time>2026-05-05T15:24:36.256Z</time></trkpt><trkpt lat="44.935481" lon="11.6132665"><ele>2.0</ele><time>2026-05-05T15:24:37.256Z</time></trkpt><trkpt lat="44.9353038" lon="11.6129448"><ele>2.0</ele><time>2026-05-05T15:24:38.257Z</time></trkpt><trkpt lat="44.9351297" lon="11.6126322"><ele>2.5</ele><time>2026-05-05T15:24:39.256Z</time></trkpt><trkpt lat="44.9349559" lon="11.612322"><ele>3.0</ele><time>2026-05-05T15:24:40.257Z</time></trkpt><trkpt lat="44.934785" lon="11.612009"><ele>2.5</ele><time>2026-05-05T15:24:41.257Z</time></trkpt><trkpt lat="44.9346141" lon="11.6116908"><ele>2.0</ele><time>2026-05-05T15:24:42.257Z</time></trkpt><trkpt lat="44.9344421" lon="11.6113791"><ele>1.5</ele><time>2026-05-05T15:24:43.257Z</time></trkpt><trkpt lat="44.9342691" lon="11.611069"><ele>1.0</ele><time>2026-05-05T15:24:44.256Z</time></trkpt><trkpt lat="44.9340952" lon="11.6107553"><ele>1.0</ele><time>2026-05-05T15:24:45.256Z</time></trkpt><trkpt lat="44.9339224" lon="11.610437"><ele>1.0</ele><time>2026-05-05T15:24:46.257Z</time></trkpt><trkpt lat="44.9337453" lon="11.6101176"><ele>1.5</ele><time>2026-05-05T15:24:47.256Z</time></trkpt><trkpt lat="44.9335687" lon="11.6098003"><ele>2.0</ele><time>2026-05-05T15:24:48.256Z</time></trkpt><trkpt lat="44.9333889" lon="11.6094808"><ele>2.0</ele><time>2026-05-05T15:24:49.257Z</time></trkpt><trkpt lat="44.9332159" lon="11.6091641"><ele>2.0</ele><time>2026-05-05T15:24:50.257Z</time></trkpt><trkpt lat="44.9330433" lon="11.608852"><ele>2.0</ele><time>2026-05-05T15:24:51.257Z</time></trkpt><trkpt lat="44.9328708" lon="11.6085422"><ele>2.0</ele><time>2026-05-05T15:24:52.256Z</time></trkpt><trkpt lat="44.932703" lon="11.6082292"><ele>2.0</ele><time>2026-05-05T15:24:53.257Z</time></trkpt><trkpt lat="44.9325307" lon="11.6079209"><ele>2.0</ele><time>2026-05-05T15:24:54.257Z</time></trkpt><trkpt lat="44.9323597" lon="11.6076084"><ele>2.5</ele><time>2026-05-05T15:24:55.256Z</time></trkpt><trkpt lat="44.9321846" lon="11.607306"><ele>3.0</ele><time>2026-05-05T15:24:56.256Z</time></trkpt><trkpt lat="44.9320094" lon="11.6069989"><ele>3.0</ele><time>2026-05-05T15:24:57.257Z</time></trkpt><trkpt lat="44.9318309" lon="11.6066971"><ele>3.0</ele><time>2026-05-05T15:24:58.257Z</time></trkpt><trkpt lat="44.9316597" lon="11.6063977"><ele>3.5</ele><time>2026-05-05T15:24:59.256Z</time></trkpt><trkpt lat="44.9314878" lon="11.6060977"><ele>4.0</ele><time>2026-05-05T15:25:00.256Z</time></trkpt><trkpt lat="44.9313225" lon="11.605801"><ele>4.0</ele><time>2026-05-05T15:25:01.256Z</time></trkpt><trkpt lat="44.9311564" lon="11.6055048"><ele>4.0</ele><time>2026-05-05T15:25:02.256Z</time></trkpt><trkpt lat="44.9309942" lon="11.605208"><ele>4.5</ele><time>2026-05-05T15:25:03.257Z</time></trkpt><trkpt lat="44.9308326" lon="11.6049107"><ele>5.0</ele><time>2026-05-05T15:25:04.256Z</time></trkpt><trkpt lat="44.930668" lon="11.6046155"><ele>5.0</ele><time>2026-05-05T15:25:05.257Z</time></trkpt><trkpt lat="44.9305085" lon="11.6043264"><ele>5.0</ele><time>2026-05-05T15:25:06.257Z</time></trkpt><trkpt lat="44.9303466" lon="11.604034"><ele>5.0</ele><time>2026-05-05T15:25:07.257Z</time></trkpt><trkpt lat="44.9301842" lon="11.6037459"><ele>5.0</ele><time>2026-05-05T15:25:08.257Z</time></trkpt><trkpt lat="44.9300247" lon="11.6034539"><ele>4.0</ele><time>2026-05-05T15:25:09.257Z</time></trkpt><trkpt lat="44.9298639" lon="11.60316"><ele>3.0</ele><time>2026-05-05T15:25:10.257Z</time></trkpt><trkpt lat="44.9296984" lon="11.6028639"><ele>2.5</ele><time>2026-05-05T15:25:11.257Z</time></trkpt><trkpt lat="44.9295353" lon="11.6025633"><ele>2.0</ele><time>2026-05-05T15:25:12.256Z</time></trkpt><trkpt lat="44.9293748" lon="11.6022661"><ele>2.5</ele><time>2026-05-05T15:25:13.256Z</time></trkpt><trkpt lat="44.9292168" lon="11.6019723"><ele>3.0</ele><time>2026-05-05T15:25:14.257Z</time></trkpt><trkpt lat="44.9290554" lon="11.6016758"><ele>3.0</ele><time>2026-05-05T15:25:15.256Z</time></trkpt><trkpt lat="44.9288922" lon="11.601383"><ele>3.0</ele><time>2026-05-05T15:25:16.257Z</time></trkpt><trkpt lat="44.928729" lon="11.6010856"><ele>3.5</ele><time>2026-05-05T15:25:17.257Z</time></trkpt><trkpt lat="44.9285627" lon="11.6007858"><ele>4.0</ele><time>2026-05-05T15:25:18.256Z</time></trkpt><trkpt lat="44.9283932" lon="11.6004837"><ele>2.5</ele><time>2026-05-05T15:25:19.257Z</time></trkpt><trkpt lat="44.9282224" lon="11.6001771"><ele>1.0</ele><time>2026-05-05T15:25:20.256Z</time></trkpt><trkpt lat="44.9280496" lon="11.5998643"><ele>1.0</ele><time>2026-05-05T15:25:21.257Z</time></trkpt><trkpt lat="44.9278842" lon="11.5995461"><ele>1.0</ele><time>2026-05-05T15:25:22.257Z</time></trkpt><trkpt lat="44.9277111" lon="11.5992306"><ele>2.0</ele><time>2026-05-05T15:25:23.257Z</time></trkpt><trkpt lat="44.927535" lon="11.5989175"><ele>3.0</ele><time>2026-05-05T15:25:24.257Z</time></trkpt><trkpt lat="44.927358" lon="11.5986"><ele>3.0</ele><time>2026-05-05T15:25:25.256Z</time></trkpt><trkpt lat="44.9271845" lon="11.5982799"><ele>3.0</ele><time>2026-05-05T15:25:26.256Z</time></trkpt><trkpt lat="44.9270101" lon="11.5979596"><ele>3.0</ele><time>2026-05-05T15:25:27.257Z</time></trkpt><trkpt lat="44.9268329" lon="11.5976435"><ele>3.0</ele><time>2026-05-05T15:25:28.257Z</time></trkpt><trkpt lat="44.9266596" lon="11.5973245"><ele>4.0</ele><time>2026-05-05T15:25:29.256Z</time></trkpt><trkpt lat="44.9264819" lon="11.5970039"><ele>5.0</ele><time>2026-05-05T15:25:30.256Z</time></trkpt><trkpt lat="44.9263045" lon="11.5966872"><ele>5.0</ele><time>2026-05-05T15:25:31.256Z</time></trkpt><trkpt lat="44.9261309" lon="11.5963721"><ele>5.0</ele><time>2026-05-05T15:25:32.256Z</time></trkpt><trkpt lat="44.9259586" lon="11.5960573"><ele>5.5</ele><time>2026-05-05T15:25:33.256Z</time></trkpt><trkpt lat="44.9257898" lon="11.5957408"><ele>6.0</ele><time>2026-05-05T15:25:34.257Z</time></trkpt><trkpt lat="44.9256182" lon="11.595427"><ele>5.5</ele><time>2026-05-05T15:25:35.256Z</time></trkpt><trkpt lat="44.9254415" lon="11.5951058"><ele>5.0</ele><time>2026-05-05T15:25:36.256Z</time></trkpt><trkpt lat="44.9252637" lon="11.5947877"><ele>5.0</ele><time>2026-05-05T15:25:37.257Z</time></trkpt><trkpt lat="44.9250861" lon="11.5944744"><ele>5.0</ele><time>2026-05-05T15:25:38.257Z</time></trkpt><trkpt lat="44.9249108" lon="11.5941559"><ele>5.0</ele><time>2026-05-05T15:25:39.256Z</time></trkpt><trkpt lat="44.9247339" lon="11.5938385"><ele>5.0</ele><time>2026-05-05T15:25:40.257Z</time></trkpt><trkpt lat="44.924554" lon="11.5935153"><ele>5.5</ele><time>2026-05-05T15:25:41.256Z</time></trkpt><trkpt lat="44.9243786" lon="11.5931971"><ele>6.0</ele><time>2026-05-05T15:25:42.257Z</time></trkpt><trkpt lat="44.9241979" lon="11.5928774"><ele>6.0</ele><time>2026-05-05T15:25:43.256Z</time></trkpt><trkpt lat="44.9240219" lon="11.5925617"><ele>6.0</ele><time>2026-05-05T15:25:44.257Z</time></trkpt><trkpt lat="44.9238454" lon="11.592245"><ele>5.0</ele><time>2026-05-05T15:25:45.257Z</time></trkpt><trkpt lat="44.9236715" lon="11.5919326"><ele>4.0</ele><time>2026-05-05T15:25:46.256Z</time></trkpt><trkpt lat="44.9235004" lon="11.5916172"><ele>4.5</ele><time>2026-05-05T15:25:47.256Z</time></trkpt><trkpt lat="44.9233302" lon="11.5913048"><ele>5.0</ele><time>2026-05-05T15:25:48.256Z</time></trkpt><trkpt lat="44.9231605" lon="11.590991"><ele>5.5</ele><time>2026-05-05T15:25:49.257Z</time></trkpt><trkpt lat="44.9229895" lon="11.5906808"><ele>6.0</ele><time>2026-05-05T15:25:50.257Z</time></trkpt><trkpt lat="44.9228206" lon="11.5903697"><ele>6.5</ele><time>2026-05-05T15:25:51.256Z</time></trkpt><trkpt lat="44.9226488" lon="11.5900588"><ele>7.0</ele><time>2026-05-05T15:25:52.257Z</time></trkpt><trkpt lat="44.9224764" lon="11.5897413"><ele>7.5</ele><time>2026-05-05T15:25:53.256Z</time></trkpt><trkpt lat="44.9223055" lon="11.5894051"><ele>8.0</ele><time>2026-05-05T15:25:54.257Z</time></trkpt><trkpt lat="44.9221311" lon="11.5890675"><ele>8.0</ele><time>2026-05-05T15:25:55.257Z</time></trkpt><trkpt lat="44.9219499" lon="11.5887341"><ele>8.0</ele><time>2026-05-05T15:25:56.257Z</time></trkpt><trkpt lat="44.9217691" lon="11.5883955"><ele>8.0</ele><time>2026-05-05T15:25:57.257Z</time></trkpt><trkpt lat="44.9215877" lon="11.5880592"><ele>8.0</ele><time>2026-05-05T15:25:58.257Z</time></trkpt><trkpt lat="44.9214074" lon="11.5877292"><ele>8.0</ele><time>2026-05-05T15:25:59.257Z</time></trkpt><trkpt lat="44.9212271" lon="11.5873974"><ele>8.0</ele><time>2026-05-05T15:26:00.257Z</time></trkpt><trkpt lat="44.9210496" lon="11.587072"><ele>7.5</ele><time>2026-05-05T15:26:01.257Z</time></trkpt><trkpt lat="44.9208717" lon="11.5867481"><ele>7.0</ele><time>2026-05-05T15:26:02.256Z</time></trkpt><trkpt lat="44.9206956" lon="11.5864257"><ele>7.0</ele><time>2026-05-05T15:26:03.256Z</time></trkpt><trkpt lat="44.9205145" lon="11.5861009"><ele>7.0</ele><time>2026-05-05T15:26:04.256Z</time></trkpt><trkpt lat="44.9203299" lon="11.5857703"><ele>7.0</ele><time>2026-05-05T15:26:05.257Z</time></trkpt><trkpt lat="44.9201438" lon="11.5854361"><ele>7.0</ele><time>2026-05-05T15:26:06.257Z</time></trkpt><trkpt lat="44.9199472" lon="11.5851022"><ele>7.0</ele><time>2026-05-05T15:26:07.257Z</time></trkpt><trkpt lat="44.9197488" lon="11.5847726"><ele>7.0</ele><time>2026-05-05T15:26:08.257Z</time></trkpt><trkpt lat="44.9195465" lon="11.5844448"><ele>6.5</ele><time>2026-05-05T15:26:09.257Z</time></trkpt><trkpt lat="44.919341" lon="11.5841198"><ele>6.0</ele><time>2026-05-05T15:26:10.256Z</time></trkpt><trkpt lat="44.919134" lon="11.583803"><ele>7.5</ele><time>2026-05-05T15:26:11.257Z</time></trkpt><trkpt lat="44.9189227" lon="11.5834916"><ele>9.0</ele><time>2026-05-05T15:26:12.256Z</time></trkpt><trkpt lat="44.9187151" lon="11.5831821"><ele>9.0</ele><time>2026-05-05T15:26:13.257Z</time></trkpt><trkpt lat="44.9185058" lon="11.5828875"><ele>9.0</ele><time>2026-05-05T15:26:14.257Z</time></trkpt><trkpt lat="44.9182878" lon="11.5825857"><ele>8.5</ele><time>2026-05-05T15:26:15.257Z</time></trkpt><trkpt lat="44.9180648" lon="11.5822846"><ele>8.0</ele><time>2026-05-05T15:26:16.256Z</time></trkpt><trkpt lat="44.9178377" lon="11.5819875"><ele>8.0</ele><time>2026-05-05T15:26:17.257Z</time></trkpt><trkpt lat="44.917613" lon="11.5816921"><ele>8.0</ele><time>2026-05-05T15:26:18.256Z</time></trkpt><trkpt lat="44.9173895" lon="11.5814029"><ele>6.5</ele><time>2026-05-05T15:26:19.257Z</time></trkpt><trkpt lat="44.9171688" lon="11.5811121"><ele>5.0</ele><time>2026-05-05T15:26:20.256Z</time></trkpt><trkpt lat="44.9169463" lon="11.5808262"><ele>3.5</ele><time>2026-05-05T15:26:21.257Z</time></trkpt><trkpt lat="44.9167221" lon="11.5805321"><ele>2.0</ele><time>2026-05-05T15:26:22.257Z</time></trkpt><trkpt lat="44.9165016" lon="11.5802467"><ele>2.0</ele><time>2026-05-05T15:26:23.256Z</time></trkpt><trkpt lat="44.9162845" lon="11.5799599"><ele>2.0</ele><time>2026-05-05T15:26:24.256Z</time></trkpt><trkpt lat="44.9160707" lon="11.5796788"><ele>2.0</ele><time>2026-05-05T15:26:25.257Z</time></trkpt><trkpt lat="44.9158523" lon="11.5793954"><ele>2.0</ele><time>2026-05-05T15:26:26.257Z</time></trkpt><trkpt lat="44.9156352" lon="11.5791148"><ele>2.0</ele><time>2026-05-05T15:26:27.257Z</time></trkpt><trkpt lat="44.9154192" lon="11.5788321"><ele>2.0</ele><time>2026-05-05T15:26:28.256Z</time></trkpt><trkpt lat="44.9152011" lon="11.5785501"><ele>7.5</ele><time>2026-05-05T15:26:29.257Z</time></trkpt><trkpt lat="44.9149862" lon="11.5782724"><ele>13.0</ele><time>2026-05-05T15:26:30.257Z</time></trkpt><trkpt lat="44.9147734" lon="11.5779889"><ele>14.0</ele><time>2026-05-05T15:26:31.257Z</time></trkpt><trkpt lat="44.9145598" lon="11.5777065"><ele>15.0</ele><time>2026-05-05T15:26:32.256Z</time></trkpt><trkpt lat="44.9143492" lon="11.5774267"><ele>15.5</ele><time>2026-05-05T15:26:33.257Z</time></trkpt><trkpt lat="44.9141369" lon="11.5771545"><ele>16.0</ele><time>2026-05-05T15:26:34.257Z</time></trkpt><trkpt lat="44.9139242" lon="11.5768788"><ele>14.5</ele><time>2026-05-05T15:26:35.256Z</time></trkpt><trkpt lat="44.9137174" lon="11.5766112"><ele>13.0</ele><time>2026-05-05T15:26:36.256Z</time></trkpt><trkpt lat="44.913507" lon="11.5763334"><ele>12.0</ele><time>2026-05-05T15:26:37.257Z</time></trkpt><trkpt lat="44.9132986" lon="11.5760645"><ele>11.0</ele><time>2026-05-05T15:26:38.257Z</time></trkpt><trkpt lat="44.9130919" lon="11.5757939"><ele>11.0</ele><time>2026-05-05T15:26:39.257Z</time></trkpt><trkpt lat="44.9128857" lon="11.5755313"><ele>11.0</ele><time>2026-05-05T15:26:40.257Z</time></trkpt><trkpt lat="44.9126792" lon="11.575266"><ele>10.0</ele><time>2026-05-05T15:26:41.256Z</time></trkpt><trkpt lat="44.9124658" lon="11.5750003"><ele>9.0</ele><time>2026-05-05T15:26:42.257Z</time></trkpt><trkpt lat="44.912252" lon="11.5747321"><ele>8.5</ele><time>2026-05-05T15:26:43.257Z</time></trkpt><trkpt lat="44.9120452" lon="11.5744721"><ele>8.0</ele><time>2026-05-05T15:26:44.256Z</time></trkpt><trkpt lat="44.9118402" lon="11.5742075"><ele>8.5</ele><time>2026-05-05T15:26:45.257Z</time></trkpt><trkpt lat="44.9116387" lon="11.5739536"><ele>9.0</ele><time>2026-05-05T15:26:46.256Z</time></trkpt><trkpt lat="44.9114437" lon="11.5737001"><ele>7.5</ele><time>2026-05-05T15:26:47.256Z</time></trkpt><trkpt lat="44.9112416" lon="11.5734434"><ele>6.0</ele><time>2026-05-05T15:26:48.257Z</time></trkpt><trkpt lat="44.9110415" lon="11.5731993"><ele>5.5</ele><time>2026-05-05T15:26:49.257Z</time></trkpt><trkpt lat="44.910833" lon="11.5729609"><ele>5.0</ele><time>2026-05-05T15:26:50.256Z</time></trkpt><trkpt lat="44.9106173" lon="11.5727237"><ele>5.0</ele><time>2026-05-05T15:26:51.256Z</time></trkpt><trkpt lat="44.9103972" lon="11.5724904"><ele>5.0</ele><time>2026-05-05T15:26:52.256Z</time></trkpt><trkpt lat="44.9101608" lon="11.5722643"><ele>5.0</ele><time>2026-05-05T15:26:53.256Z</time></trkpt><trkpt lat="44.9099176" lon="11.5720429"><ele>5.0</ele><time>2026-05-05T15:26:54.256Z</time></trkpt><trkpt lat="44.9096708" lon="11.5718397"><ele>5.0</ele><time>2026-05-05T15:26:55.256Z</time></trkpt><trkpt lat="44.9094242" lon="11.5716389"><ele>5.0</ele><time>2026-05-05T15:26:56.256Z</time></trkpt><trkpt lat="44.9091709" lon="11.5714519"><ele>5.5</ele><time>2026-05-05T15:26:57.257Z</time></trkpt><trkpt lat="44.9089124" lon="11.5712777"><ele>6.0</ele><time>2026-05-05T15:26:58.257Z</time></trkpt><trkpt lat="44.9086504" lon="11.5711195"><ele>6.0</ele><time>2026-05-05T15:26:59.257Z</time></trkpt><trkpt lat="44.9083844" lon="11.5709662"><ele>6.0</ele><time>2026-05-05T15:27:00.256Z</time></trkpt><trkpt lat="44.9081055" lon="11.5708284"><ele>6.0</ele><time>2026-05-05T15:27:01.256Z</time></trkpt><trkpt lat="44.9078176" lon="11.5707057"><ele>6.0</ele><time>2026-05-05T15:27:02.257Z</time></trkpt><trkpt lat="44.907533" lon="11.5705895"><ele>5.5</ele><time>2026-05-05T15:27:03.256Z</time></trkpt><trkpt lat="44.9072443" lon="11.5704822"><ele>5.0</ele><time>2026-05-05T15:27:04.257Z</time></trkpt><trkpt lat="44.9069583" lon="11.57039"><ele>4.5</ele><time>2026-05-05T15:27:05.256Z</time></trkpt><trkpt lat="44.9066701" lon="11.5703088"><ele>4.0</ele><time>2026-05-05T15:27:06.257Z</time></trkpt><trkpt lat="44.9063801" lon="11.5702472"><ele>4.0</ele><time>2026-05-05T15:27:07.257Z</time></trkpt><trkpt lat="44.9060878" lon="11.5701926"><ele>4.0</ele><time>2026-05-05T15:27:08.257Z</time></trkpt><trkpt lat="44.9058004" lon="11.570164"><ele>5.0</ele><time>2026-05-05T15:27:09.257Z</time></trkpt><trkpt lat="44.9055037" lon="11.5701401"><ele>6.0</ele><time>2026-05-05T15:27:10.257Z</time></trkpt><trkpt lat="44.9052075" lon="11.5701249"><ele>6.0</ele><time>2026-05-05T15:27:11.257Z</time></trkpt><trkpt lat="44.9049105" lon="11.5701248"><ele>6.0</ele><time>2026-05-05T15:27:12.257Z</time></trkpt><trkpt lat="44.9046147" lon="11.5701266"><ele>6.0</ele><time>2026-05-05T15:27:13.256Z</time></trkpt><trkpt lat="44.9043185" lon="11.5701266"><ele>6.0</ele><time>2026-05-05T15:27:14.257Z</time></trkpt><trkpt lat="44.9040249" lon="11.5701238"><ele>5.5</ele><time>2026-05-05T15:27:15.257Z</time></trkpt><trkpt lat="44.9037364" lon="11.5701231"><ele>5.0</ele><time>2026-05-05T15:27:16.257Z</time></trkpt><trkpt lat="44.9034469" lon="11.5701227"><ele>4.5</ele><time>2026-05-05T15:27:17.257Z</time></trkpt><trkpt lat="44.9031592" lon="11.5701198"><ele>4.0</ele><time>2026-05-05T15:27:18.257Z</time></trkpt><trkpt lat="44.9028709" lon="11.5701147"><ele>4.0</ele><time>2026-05-05T15:27:19.257Z</time></trkpt><trkpt lat="44.9025829" lon="11.5701141"><ele>4.0</ele><time>2026-05-05T15:27:20.257Z</time></trkpt><trkpt lat="44.9022958" lon="11.5701125"><ele>4.0</ele><time>2026-05-05T15:27:21.256Z</time></trkpt><trkpt lat="44.9020086" lon="11.5701126"><ele>4.0</ele><time>2026-05-05T15:27:22.256Z</time></trkpt><trkpt lat="44.9017239" lon="11.570116"><ele>4.0</ele><time>2026-05-05T15:27:23.257Z</time></trkpt><trkpt lat="44.9014373" lon="11.5701135"><ele>4.0</ele><time>2026-05-05T15:27:24.257Z</time></trkpt><trkpt lat="44.9011581" lon="11.5701109"><ele>5.5</ele><time>2026-05-05T15:27:25.256Z</time></trkpt><trkpt lat="44.9008781" lon="11.5701114"><ele>7.0</ele><time>2026-05-05T15:27:26.257Z</time></trkpt><trkpt lat="44.9005975" lon="11.5701053"><ele>7.0</ele><time>2026-05-05T15:27:27.257Z</time></trkpt><trkpt lat="44.9003191" lon="11.5701019"><ele>7.0</ele><time>2026-05-05T15:27:28.256Z</time></trkpt><trkpt lat="44.9000389" lon="11.5701066"><ele>6.0</ele><time>2026-05-05T15:27:29.257Z</time></trkpt><trkpt lat="44.899765" lon="11.5701086"><ele>5.0</ele><time>2026-05-05T15:27:30.257Z</time></trkpt><trkpt lat="44.8994892" lon="11.5701069"><ele>5.5</ele><time>2026-05-05T15:27:31.256Z</time></trkpt><trkpt lat="44.8992123" lon="11.5701039"><ele>6.0</ele><time>2026-05-05T15:27:32.257Z</time></trkpt><trkpt lat="44.8989388" lon="11.5700978"><ele>6.0</ele><time>2026-05-05T15:27:33.256Z</time></trkpt><trkpt lat="44.8986641" lon="11.5700986"><ele>6.0</ele><time>2026-05-05T15:27:34.256Z</time></trkpt><trkpt lat="44.8983879" lon="11.5700958"><ele>5.0</ele><time>2026-05-05T15:27:35.257Z</time></trkpt><trkpt lat="44.8981149" lon="11.5700918"><ele>4.0</ele><time>2026-05-05T15:27:36.257Z</time></trkpt><trkpt lat="44.8978392" lon="11.5700971"><ele>4.5</ele><time>2026-05-05T15:27:37.257Z</time></trkpt><trkpt lat="44.8975616" lon="11.5700972"><ele>5.0</ele><time>2026-05-05T15:27:38.257Z</time></trkpt><trkpt lat="44.8972822" lon="11.5700967"><ele>5.0</ele><time>2026-05-05T15:27:39.257Z</time></trkpt><trkpt lat="44.8970015" lon="11.5700988"><ele>5.0</ele><time>2026-05-05T15:27:40.257Z</time></trkpt><trkpt lat="44.8967187" lon="11.5701006"><ele>4.5</ele><time>2026-05-05T15:27:41.257Z</time></trkpt><trkpt lat="44.8964402" lon="11.570097"><ele>4.0</ele><time>2026-05-05T15:27:42.256Z</time></trkpt><trkpt lat="44.8961683" lon="11.5700896"><ele>4.5</ele><time>2026-05-05T15:27:43.256Z</time></trkpt><trkpt lat="44.8958862" lon="11.5700904"><ele>5.0</ele><time>2026-05-05T15:27:44.257Z</time></trkpt><trkpt lat="44.8956078" lon="11.5700829"><ele>5.0</ele><time>2026-05-05T15:27:45.256Z</time></trkpt><trkpt lat="44.8953316" lon="11.5700806"><ele>5.0</ele><time>2026-05-05T15:27:46.257Z</time></trkpt><trkpt lat="44.8950534" lon="11.5700761"><ele>5.0</ele><time>2026-05-05T15:27:47.257Z</time></trkpt><trkpt lat="44.8947808" lon="11.5700664"><ele>5.0</ele><time>2026-05-05T15:27:48.257Z</time></trkpt><trkpt lat="44.8945052" lon="11.5700585"><ele>5.5</ele><time>2026-05-05T15:27:49.257Z</time></trkpt><trkpt lat="44.8942332" lon="11.5700532"><ele>6.0</ele><time>2026-05-05T15:27:50.257Z</time></trkpt><trkpt lat="44.8939621" lon="11.5700472"><ele>6.0</ele><time>2026-05-05T15:27:51.257Z</time></trkpt><trkpt lat="44.8936943" lon="11.5700446"><ele>6.0</ele><time>2026-05-05T15:27:52.257Z</time></trkpt><trkpt lat="44.8934251" lon="11.5700372"><ele>4.5</ele><time>2026-05-05T15:27:53.256Z</time></trkpt><trkpt lat="44.8931591" lon="11.5700384"><ele>3.0</ele><time>2026-05-05T15:27:54.256Z</time></trkpt><trkpt lat="44.8928936" lon="11.5700393"><ele>3.0</ele><time>2026-05-05T15:27:55.256Z</time></trkpt><trkpt lat="44.892633" lon="11.5700362"><ele>3.0</ele><time>2026-05-05T15:27:56.257Z</time></trkpt><trkpt lat="44.8923695" lon="11.5700357"><ele>4.0</ele><time>2026-05-05T15:27:57.257Z</time></trkpt><trkpt lat="44.8921082" lon="11.5700365"><ele>5.0</ele><time>2026-05-05T15:27:58.257Z</time></trkpt><trkpt lat="44.8918478" lon="11.5700338"><ele>4.0</ele><time>2026-05-05T15:27:59.256Z</time></trkpt><trkpt lat="44.8915841" lon="11.5700305"><ele>3.0</ele><time>2026-05-05T15:28:00.257Z</time></trkpt><trkpt lat="44.8913215" lon="11.5700338"><ele>3.0</ele><time>2026-05-05T15:28:01.256Z</time></trkpt><trkpt lat="44.8910658" lon="11.5700281"><ele>3.0</ele><time>2026-05-05T15:28:02.257Z</time></trkpt><trkpt lat="44.8908118" lon="11.5700267"><ele>4.0</ele><time>2026-05-05T15:28:03.256Z</time></trkpt><trkpt lat="44.8905566" lon="11.5700273"><ele>5.0</ele><time>2026-05-05T15:28:04.256Z</time></trkpt><trkpt lat="44.8903031" lon="11.570032"><ele>5.5</ele><time>2026-05-05T15:28:05.256Z</time></trkpt><trkpt lat="44.8900521" lon="11.5700306"><ele>6.0</ele><time>2026-05-05T15:28:06.256Z</time></trkpt><trkpt lat="44.8898002" lon="11.5700237"><ele>6.0</ele><time>2026-05-05T15:28:07.256Z</time></trkpt><trkpt lat="44.8895473" lon="11.5700179"><ele>6.0</ele><time>2026-05-05T15:28:08.256Z</time></trkpt><trkpt lat="44.8892963" lon="11.5700188"><ele>6.0</ele><time>2026-05-05T15:28:09.257Z</time></trkpt><trkpt lat="44.8890414" lon="11.5700186"><ele>6.0</ele><time>2026-05-05T15:28:10.256Z</time></trkpt><trkpt lat="44.888795" lon="11.5700158"><ele>6.0</ele><time>2026-05-05T15:28:11.256Z</time></trkpt><trkpt lat="44.8885443" lon="11.5700139"><ele>6.0</ele><time>2026-05-05T15:28:12.256Z</time></trkpt><trkpt lat="44.8882945" lon="11.5700154"><ele>5.0</ele><time>2026-05-05T15:28:13.257Z</time></trkpt><trkpt lat="44.8880444" lon="11.5700131"><ele>4.0</ele><time>2026-05-05T15:28:14.257Z</time></trkpt><trkpt lat="44.8877907" lon="11.570017"><ele>3.5</ele><time>2026-05-05T15:28:15.257Z</time></trkpt><trkpt lat="44.8875451" lon="11.5700093"><ele>3.0</ele><time>2026-05-05T15:28:16.256Z</time></trkpt><trkpt lat="44.8873023" lon="11.5700067"><ele>3.0</ele><time>2026-05-05T15:28:17.257Z</time></trkpt><trkpt lat="44.8870572" lon="11.5700031"><ele>3.0</ele><time>2026-05-05T15:28:18.257Z</time></trkpt><trkpt lat="44.8868121" lon="11.5700021"><ele>4.0</ele><time>2026-05-05T15:28:19.256Z</time></trkpt><trkpt lat="44.886569" lon="11.570002"><ele>5.0</ele><time>2026-05-05T15:28:20.256Z</time></trkpt><trkpt lat="44.8863232" lon="11.569999"><ele>5.0</ele><time>2026-05-05T15:28:21.256Z</time></trkpt><trkpt lat="44.886081" lon="11.5699969"><ele>5.0</ele><time>2026-05-05T15:28:22.257Z</time></trkpt><trkpt lat="44.8858356" lon="11.5700007"><ele>4.5</ele><time>2026-05-05T15:28:23.256Z</time></trkpt><trkpt lat="44.8855927" lon="11.5699913"><ele>4.0</ele><time>2026-05-05T15:28:24.257Z</time></trkpt><trkpt lat="44.885346" lon="11.5699862"><ele>4.0</ele><time>2026-05-05T15:28:25.256Z</time></trkpt><trkpt lat="44.8850953" lon="11.569984"><ele>4.0</ele><time>2026-05-05T15:28:26.257Z</time></trkpt><trkpt lat="44.8848458" lon="11.5699813"><ele>4.0</ele><time>2026-05-05T15:28:27.257Z</time></trkpt><trkpt lat="44.8845956" lon="11.5699866"><ele>4.0</ele><time>2026-05-05T15:28:28.257Z</time></trkpt><trkpt lat="44.8843463" lon="11.5699854"><ele>4.0</ele><time>2026-05-05T15:28:29.257Z</time></trkpt><trkpt lat="44.8840945" lon="11.5699826"><ele>4.0</ele><time>2026-05-05T15:28:30.257Z</time></trkpt><trkpt lat="44.8838467" lon="11.5699832"><ele>4.0</ele><time>2026-05-05T15:28:31.257Z</time></trkpt><trkpt lat="44.8835994" lon="11.5699807"><ele>4.0</ele><time>2026-05-05T15:28:32.257Z</time></trkpt><trkpt lat="44.883354" lon="11.5699776"><ele>4.0</ele><time>2026-05-05T15:28:33.257Z</time></trkpt><trkpt lat="44.8831038" lon="11.5699762"><ele>4.0</ele><time>2026-05-05T15:28:34.256Z</time></trkpt><trkpt lat="44.882861" lon="11.5699734"><ele>4.0</ele><time>2026-05-05T15:28:35.257Z</time></trkpt><trkpt lat="44.8826106" lon="11.5699721"><ele>4.0</ele><time>2026-05-05T15:28:36.256Z</time></trkpt><trkpt lat="44.8823582" lon="11.5699712"><ele>4.0</ele><time>2026-05-05T15:28:37.257Z</time></trkpt><trkpt lat="44.8821087" lon="11.5699674"><ele>4.0</ele><time>2026-05-05T15:28:38.257Z</time></trkpt><trkpt lat="44.8818541" lon="11.5699663"><ele>4.5</ele><time>2026-05-05T15:28:39.256Z</time></trkpt><trkpt lat="44.8816007" lon="11.5699636"><ele>5.0</ele><time>2026-05-05T15:28:40.257Z</time></trkpt><trkpt lat="44.8813507" lon="11.5699646"><ele>5.0</ele><time>2026-05-05T15:28:41.257Z</time></trkpt><trkpt lat="44.8811008" lon="11.5699653"><ele>5.0</ele><time>2026-05-05T15:28:42.256Z</time></trkpt><trkpt lat="44.8808451" lon="11.5699655"><ele>4.0</ele><time>2026-05-05T15:28:43.257Z</time></trkpt><trkpt lat="44.8805883" lon="11.5699627"><ele>3.0</ele><time>2026-05-05T15:28:44.257Z</time></trkpt><trkpt lat="44.8803309" lon="11.5699606"><ele>3.5</ele><time>2026-05-05T15:28:45.257Z</time></trkpt><trkpt lat="44.8800718" lon="11.5699571"><ele>4.0</ele><time>2026-05-05T15:28:46.257Z</time></trkpt><trkpt lat="44.8798126" lon="11.5699551"><ele>4.0</ele><time>2026-05-05T15:28:47.257Z</time></trkpt><trkpt lat="44.8795546" lon="11.5699526"><ele>4.0</ele><time>2026-05-05T15:28:48.256Z</time></trkpt><trkpt lat="44.8792965" lon="11.5699548"><ele>5.0</ele><time>2026-05-05T15:28:49.257Z</time></trkpt><trkpt lat="44.8790353" lon="11.5699542"><ele>6.0</ele><time>2026-05-05T15:28:50.257Z</time></trkpt><trkpt lat="44.8787774" lon="11.569954"><ele>6.0</ele><time>2026-05-05T15:28:51.256Z</time></trkpt><trkpt lat="44.8785168" lon="11.569953"><ele>6.0</ele><time>2026-05-05T15:28:52.257Z</time></trkpt><trkpt lat="44.8782581" lon="11.5699534"><ele>5.0</ele><time>2026-05-05T15:28:53.257Z</time></trkpt><trkpt lat="44.8780002" lon="11.569958"><ele>4.0</ele><time>2026-05-05T15:28:54.256Z</time></trkpt><trkpt lat="44.8777414" lon="11.5699585"><ele>3.0</ele><time>2026-05-05T15:28:55.257Z</time></trkpt><trkpt lat="44.877483" lon="11.5699574"><ele>2.0</ele><time>2026-05-05T15:28:56.257Z</time></trkpt><trkpt lat="44.8772211" lon="11.569961"><ele>2.0</ele><time>2026-05-05T15:28:57.257Z</time></trkpt><trkpt lat="44.8769583" lon="11.5699606"><ele>2.0</ele><time>2026-05-05T15:28:58.257Z</time></trkpt><trkpt lat="44.8766932" lon="11.5699576"><ele>2.0</ele><time>2026-05-05T15:28:59.257Z</time></trkpt><trkpt lat="44.8764297" lon="11.569958"><ele>2.0</ele><time>2026-05-05T15:29:00.256Z</time></trkpt><trkpt lat="44.8761654" lon="11.5699526"><ele>2.0</ele><time>2026-05-05T15:29:01.257Z</time></trkpt><trkpt lat="44.8759026" lon="11.5699468"><ele>2.0</ele><time>2026-05-05T15:29:02.256Z</time></trkpt><trkpt lat="44.875641" lon="11.5699496"><ele>2.0</ele><time>2026-05-05T15:29:03.257Z</time></trkpt><trkpt lat="44.8753727" lon="11.5699511"><ele>2.0</ele><time>2026-05-05T15:29:04.256Z</time></trkpt><trkpt lat="44.8751071" lon="11.5699537"><ele>3.5</ele><time>2026-05-05T15:29:05.256Z</time></trkpt><trkpt lat="44.8748423" lon="11.5699544"><ele>5.0</ele><time>2026-05-05T15:29:06.256Z</time></trkpt><trkpt lat="44.8745768" lon="11.5699502"><ele>5.0</ele><time>2026-05-05T15:29:07.256Z</time></trkpt><trkpt lat="44.8743118" lon="11.5699504"><ele>5.0</ele><time>2026-05-05T15:29:08.256Z</time></trkpt><trkpt lat="44.8740454" lon="11.569945"><ele>3.5</ele><time>2026-05-05T15:29:09.257Z</time></trkpt><trkpt lat="44.8737878" lon="11.5699387"><ele>2.0</ele><time>2026-05-05T15:29:10.257Z</time></trkpt><trkpt lat="44.8735283" lon="11.5699359"><ele>1.5</ele><time>2026-05-05T15:29:11.256Z</time></trkpt><trkpt lat="44.8732676" lon="11.5699389"><ele>1.0</ele><time>2026-05-05T15:29:12.256Z</time></trkpt><trkpt lat="44.8730129" lon="11.5699422"><ele>1.0</ele><time>2026-05-05T15:29:13.257Z</time></trkpt><trkpt lat="44.8727586" lon="11.5699375"><ele>1.0</ele><time>2026-05-05T15:29:14.257Z</time></trkpt><trkpt lat="44.8725036" lon="11.569936"><ele>1.5</ele><time>2026-05-05T15:29:15.256Z</time></trkpt><trkpt lat="44.8722493" lon="11.5699351"><ele>2.0</ele><time>2026-05-05T15:29:16.257Z</time></trkpt><trkpt lat="44.8720005" lon="11.5699378"><ele>2.5</ele><time>2026-05-05T15:29:17.257Z</time></trkpt><trkpt lat="44.8717523" lon="11.5699333"><ele>3.0</ele><time>2026-05-05T15:29:18.256Z</time></trkpt><trkpt lat="44.8715056" lon="11.569929"><ele>3.0</ele><time>2026-05-05T15:29:19.257Z</time></trkpt><trkpt lat="44.8712587" lon="11.5699249"><ele>3.0</ele><time>2026-05-05T15:29:20.256Z</time></trkpt><trkpt lat="44.8710128" lon="11.5699283"><ele>3.5</ele><time>2026-05-05T15:29:21.256Z</time></trkpt><trkpt lat="44.870762" lon="11.5699286"><ele>4.0</ele><time>2026-05-05T15:29:22.257Z</time></trkpt><trkpt lat="44.8705107" lon="11.5699269"><ele>4.0</ele><time>2026-05-05T15:29:23.257Z</time></trkpt><trkpt lat="44.8702648" lon="11.5699242"><ele>4.0</ele><time>2026-05-05T15:29:24.256Z</time></trkpt><trkpt lat="44.8700167" lon="11.569926"><ele>5.0</ele><time>2026-05-05T15:29:25.257Z</time></trkpt><trkpt lat="44.8697664" lon="11.5699254"><ele>6.0</ele><time>2026-05-05T15:29:26.257Z</time></trkpt><trkpt lat="44.869512" lon="11.5699284"><ele>6.0</ele><time>2026-05-05T15:29:27.257Z</time></trkpt><trkpt lat="44.8692638" lon="11.5699245"><ele>6.0</ele><time>2026-05-05T15:29:28.257Z</time></trkpt><trkpt lat="44.8690129" lon="11.5699202"><ele>6.0</ele><time>2026-05-05T15:29:29.256Z</time></trkpt><trkpt lat="44.868763" lon="11.5699195"><ele>6.0</ele><time>2026-05-05T15:29:30.256Z</time></trkpt><trkpt lat="44.868508" lon="11.5699207"><ele>5.0</ele><time>2026-05-05T15:29:31.257Z</time></trkpt><trkpt lat="44.8682529" lon="11.5699161"><ele>4.0</ele><time>2026-05-05T15:29:32.257Z</time></trkpt><trkpt lat="44.8679929" lon="11.5699132"><ele>4.0</ele><time>2026-05-05T15:29:33.257Z</time></trkpt><trkpt lat="44.8677353" lon="11.5699189"><ele>4.0</ele><time>2026-05-05T15:29:34.256Z</time></trkpt><trkpt lat="44.8674792" lon="11.5699137"><ele>3.5</ele><time>2026-05-05T15:29:35.257Z</time></trkpt><trkpt lat="44.8672215" lon="11.569917"><ele>3.0</ele><time>2026-05-05T15:29:36.256Z</time></trkpt><trkpt lat="44.8669658" lon="11.5699146"><ele>1.5</ele><time>2026-05-05T15:29:37.257Z</time></trkpt><trkpt lat="44.8667078" lon="11.5699174"><ele>0.0</ele><time>2026-05-05T15:29:38.257Z</time></trkpt><trkpt lat="44.866452" lon="11.569917"><ele>0.0</ele><time>2026-05-05T15:29:39.256Z</time></trkpt><trkpt lat="44.8661955" lon="11.5699141"><ele>0.0</ele><time>2026-05-05T15:29:40.256Z</time></trkpt><trkpt lat="44.8659364" lon="11.5699097"><ele>3.0</ele><time>2026-05-05T15:29:41.257Z</time></trkpt><trkpt lat="44.8656771" lon="11.5699106"><ele>6.0</ele><time>2026-05-05T15:29:42.256Z</time></trkpt><trkpt lat="44.8654137" lon="11.569898"><ele>6.0</ele><time>2026-05-05T15:29:43.256Z</time></trkpt><trkpt lat="44.8651524" lon="11.5699006"><ele>6.0</ele><time>2026-05-05T15:29:44.257Z</time></trkpt><trkpt lat="44.8648914" lon="11.5699023"><ele>6.0</ele><time>2026-05-05T15:29:45.257Z</time></trkpt><trkpt lat="44.8646288" lon="11.5699063"><ele>6.0</ele><time>2026-05-05T15:29:46.256Z</time></trkpt><trkpt lat="44.864363" lon="11.5699098"><ele>4.5</ele><time>2026-05-05T15:29:47.257Z</time></trkpt><trkpt lat="44.8641013" lon="11.5699089"><ele>3.0</ele><time>2026-05-05T15:29:48.256Z</time></trkpt><trkpt lat="44.8638323" lon="11.5699093"><ele>3.0</ele><time>2026-05-05T15:29:49.257Z</time></trkpt><trkpt lat="44.8635671" lon="11.5699042"><ele>3.0</ele><time>2026-05-05T15:29:50.256Z</time></trkpt><trkpt lat="44.8633005" lon="11.569909"><ele>4.0</ele><time>2026-05-05T15:29:51.257Z</time></trkpt><trkpt lat="44.863032" lon="11.5699135"><ele>5.0</ele><time>2026-05-05T15:29:52.256Z</time></trkpt><trkpt lat="44.8627622" lon="11.5699028"><ele>5.0</ele><time>2026-05-05T15:29:53.256Z</time></trkpt><trkpt lat="44.8624924" lon="11.5699"><ele>5.0</ele><time>2026-05-05T15:29:54.257Z</time></trkpt><trkpt lat="44.8622204" lon="11.5699019"><ele>5.0</ele><time>2026-05-05T15:29:55.257Z</time></trkpt><trkpt lat="44.8619457" lon="11.5699032"><ele>5.0</ele><time>2026-05-05T15:29:56.257Z</time></trkpt><trkpt lat="44.8616714" lon="11.5699029"><ele>4.5</ele><time>2026-05-05T15:29:57.256Z</time></trkpt><trkpt lat="44.8613953" lon="11.569903"><ele>4.0</ele><time>2026-05-05T15:29:58.257Z</time></trkpt><trkpt lat="44.8611165" lon="11.5699008"><ele>5.0</ele><time>2026-05-05T15:29:59.256Z</time></trkpt><trkpt lat="44.8608378" lon="11.5698963"><ele>6.0</ele><time>2026-05-05T15:30:00.257Z</time></trkpt><trkpt lat="44.8605606" lon="11.5698898"><ele>6.0</ele><time>2026-05-05T15:30:01.256Z</time></trkpt><trkpt lat="44.8602839" lon="11.5698804"><ele>6.0</ele><time>2026-05-05T15:30:02.257Z</time></trkpt><trkpt lat="44.8600122" lon="11.5698656"><ele>5.5</ele><time>2026-05-05T15:30:03.257Z</time></trkpt><trkpt lat="44.8597401" lon="11.5698489"><ele>5.0</ele><time>2026-05-05T15:30:04.257Z</time></trkpt><trkpt lat="44.8594691" lon="11.5698262"><ele>6.0</ele><time>2026-05-05T15:30:05.256Z</time></trkpt><trkpt lat="44.8591965" lon="11.5697972"><ele>7.0</ele><time>2026-05-05T15:30:06.257Z</time></trkpt><trkpt lat="44.8589214" lon="11.5697658"><ele>7.0</ele><time>2026-05-05T15:30:07.257Z</time></trkpt><trkpt lat="44.8586501" lon="11.5697269"><ele>7.0</ele><time>2026-05-05T15:30:08.256Z</time></trkpt><trkpt lat="44.8583779" lon="11.5696782"><ele>4.5</ele><time>2026-05-05T15:30:09.257Z</time></trkpt><trkpt lat="44.8581072" lon="11.5696255"><ele>2.0</ele><time>2026-05-05T15:30:10.257Z</time></trkpt><trkpt lat="44.8578344" lon="11.5695616"><ele>1.5</ele><time>2026-05-05T15:30:11.256Z</time></trkpt><trkpt lat="44.8575663" lon="11.5694877"><ele>1.0</ele><time>2026-05-05T15:30:12.257Z</time></trkpt><trkpt lat="44.8572987" lon="11.5694136"><ele>1.0</ele><time>2026-05-05T15:30:13.257Z</time></trkpt><trkpt lat="44.8570334" lon="11.5693338"><ele>1.0</ele><time>2026-05-05T15:30:14.256Z</time></trkpt><trkpt lat="44.856771" lon="11.5692489"><ele>0.5</ele><time>2026-05-05T15:30:15.257Z</time></trkpt><trkpt lat="44.8565076" lon="11.5691645"><ele>0.0</ele><time>2026-05-05T15:30:16.256Z</time></trkpt><trkpt lat="44.8562434" lon="11.5690705"><ele>0.0</ele><time>2026-05-05T15:30:17.257Z</time></trkpt><trkpt lat="44.8559801" lon="11.5689714"><ele>0.0</ele><time>2026-05-05T15:30:18.257Z</time></trkpt><trkpt lat="44.8557162" lon="11.5688785"><ele>0.5</ele><time>2026-05-05T15:30:19.257Z</time></trkpt><trkpt lat="44.8554574" lon="11.568787"><ele>1.0</ele><time>2026-05-05T15:30:20.256Z</time></trkpt><trkpt lat="44.8551993" lon="11.5686915"><ele>3.5</ele><time>2026-05-05T15:30:21.256Z</time></trkpt><trkpt lat="44.8549418" lon="11.5685957"><ele>6.0</ele><time>2026-05-05T15:30:22.257Z</time></trkpt><trkpt lat="44.8546852" lon="11.5684986"><ele>6.0</ele><time>2026-05-05T15:30:23.257Z</time></trkpt><trkpt lat="44.8544293" lon="11.5684057"><ele>6.0</ele><time>2026-05-05T15:30:24.257Z</time></trkpt><trkpt lat="44.8541758" lon="11.5683182"><ele>6.0</ele><time>2026-05-05T15:30:25.257Z</time></trkpt><trkpt lat="44.8539247" lon="11.5682265"><ele>6.0</ele><time>2026-05-05T15:30:26.256Z</time></trkpt><trkpt lat="44.8536694" lon="11.5681417"><ele>4.5</ele><time>2026-05-05T15:30:27.257Z</time></trkpt><trkpt lat="44.8534228" lon="11.5680578"><ele>3.0</ele><time>2026-05-05T15:30:28.256Z</time></trkpt><trkpt lat="44.8531761" lon="11.5679724"><ele>3.0</ele><time>2026-05-05T15:30:29.257Z</time></trkpt><trkpt lat="44.8529335" lon="11.5678863"><ele>3.0</ele><time>2026-05-05T15:30:30.256Z</time></trkpt><trkpt lat="44.8526939" lon="11.5677971"><ele>3.5</ele><time>2026-05-05T15:30:31.257Z</time></trkpt><trkpt lat="44.8524538" lon="11.5677087"><ele>4.0</ele><time>2026-05-05T15:30:32.256Z</time></trkpt><trkpt lat="44.8522183" lon="11.567631"><ele>4.0</ele><time>2026-05-05T15:30:33.256Z</time></trkpt><trkpt lat="44.8519774" lon="11.5675473"><ele>4.0</ele><time>2026-05-05T15:30:34.256Z</time></trkpt><trkpt lat="44.8517321" lon="11.5674787"><ele>5.5</ele><time>2026-05-05T15:30:35.257Z</time></trkpt><trkpt lat="44.8514867" lon="11.567401"><ele>7.0</ele><time>2026-05-05T15:30:36.256Z</time></trkpt><trkpt lat="44.8512387" lon="11.5673264"><ele>7.0</ele><time>2026-05-05T15:30:37.256Z</time></trkpt><trkpt lat="44.8509832" lon="11.5672464"><ele>7.0</ele><time>2026-05-05T15:30:38.257Z</time></trkpt><trkpt lat="44.8507351" lon="11.5671611"><ele>7.5</ele><time>2026-05-05T15:30:39.257Z</time></trkpt><trkpt lat="44.8504763" lon="11.5670691"><ele>8.0</ele><time>2026-05-05T15:30:40.257Z</time></trkpt><trkpt lat="44.8502161" lon="11.5669773"><ele>7.0</ele><time>2026-05-05T15:30:41.257Z</time></trkpt><trkpt lat="44.8499559" lon="11.5668876"><ele>6.0</ele><time>2026-05-05T15:30:42.257Z</time></trkpt><trkpt lat="44.8496942" lon="11.5667928"><ele>6.0</ele><time>2026-05-05T15:30:43.257Z</time></trkpt><trkpt lat="44.8494286" lon="11.5666995"><ele>6.0</ele><time>2026-05-05T15:30:44.257Z</time></trkpt><trkpt lat="44.849159" lon="11.5666033"><ele>7.5</ele><time>2026-05-05T15:30:45.257Z</time></trkpt><trkpt lat="44.8488935" lon="11.5665094"><ele>9.0</ele><time>2026-05-05T15:30:46.257Z</time></trkpt><trkpt lat="44.8486293" lon="11.5664201"><ele>9.5</ele><time>2026-05-05T15:30:47.256Z</time></trkpt><trkpt lat="44.8483741" lon="11.5663196"><ele>10.0</ele><time>2026-05-05T15:30:48.256Z</time></trkpt><trkpt lat="44.8481156" lon="11.5662248"><ele>10.0</ele><time>2026-05-05T15:30:49.257Z</time></trkpt><trkpt lat="44.8478527" lon="11.5661297"><ele>10.0</ele><time>2026-05-05T15:30:50.257Z</time></trkpt><trkpt lat="44.8475912" lon="11.5660336"><ele>9.5</ele><time>2026-05-05T15:30:51.257Z</time></trkpt><trkpt lat="44.8473294" lon="11.5659418"><ele>9.0</ele><time>2026-05-05T15:30:52.257Z</time></trkpt><trkpt lat="44.8470717" lon="11.5658508"><ele>9.0</ele><time>2026-05-05T15:30:53.256Z</time></trkpt><trkpt lat="44.8468079" lon="11.5657574"><ele>9.0</ele><time>2026-05-05T15:30:54.257Z</time></trkpt><trkpt lat="44.8465477" lon="11.5656665"><ele>9.0</ele><time>2026-05-05T15:30:55.257Z</time></trkpt><trkpt lat="44.8462771" lon="11.5655705"><ele>9.0</ele><time>2026-05-05T15:30:56.256Z</time></trkpt><trkpt lat="44.8460085" lon="11.5654756"><ele>9.0</ele><time>2026-05-05T15:30:57.257Z</time></trkpt><trkpt lat="44.8457404" lon="11.5653748"><ele>9.0</ele><time>2026-05-05T15:30:58.257Z</time></trkpt><trkpt lat="44.8454634" lon="11.5652801"><ele>9.5</ele><time>2026-05-05T15:30:59.257Z</time></trkpt><trkpt lat="44.845186" lon="11.5651867"><ele>10.0</ele><time>2026-05-05T15:31:00.257Z</time></trkpt><trkpt lat="44.8449134" lon="11.5650945"><ele>10.0</ele><time>2026-05-05T15:31:01.256Z</time></trkpt><trkpt lat="44.8446359" lon="11.5649981"><ele>10.0</ele><time>2026-05-05T15:31:02.256Z</time></trkpt><trkpt lat="44.8443609" lon="11.5649033"><ele>9.5</ele><time>2026-05-05T15:31:03.256Z</time></trkpt><trkpt lat="44.8440837" lon="11.5648024"><ele>9.0</ele><time>2026-05-05T15:31:04.257Z</time></trkpt><trkpt lat="44.8438025" lon="11.5647038"><ele>9.0</ele><time>2026-05-05T15:31:05.257Z</time></trkpt><trkpt lat="44.8435142" lon="11.5646114"><ele>9.0</ele><time>2026-05-05T15:31:06.257Z</time></trkpt><trkpt lat="44.8432318" lon="11.5645144"><ele>9.5</ele><time>2026-05-05T15:31:07.256Z</time></trkpt><trkpt lat="44.8429535" lon="11.5644153"><ele>10.0</ele><time>2026-05-05T15:31:08.256Z</time></trkpt><trkpt lat="44.8426755" lon="11.5643172"><ele>10.5</ele><time>2026-05-05T15:31:09.257Z</time></trkpt><trkpt lat="44.8423998" lon="11.5642211"><ele>11.0</ele><time>2026-05-05T15:31:10.256Z</time></trkpt><trkpt lat="44.8421227" lon="11.5641208"><ele>11.0</ele><time>2026-05-05T15:31:11.256Z</time></trkpt><trkpt lat="44.8418471" lon="11.5640291"><ele>11.0</ele><time>2026-05-05T15:31:12.257Z</time></trkpt><trkpt lat="44.8415758" lon="11.5639306"><ele>11.0</ele><time>2026-05-05T15:31:13.256Z</time></trkpt><trkpt lat="44.8413022" lon="11.5638329"><ele>11.0</ele><time>2026-05-05T15:31:14.257Z</time></trkpt><trkpt lat="44.8410229" lon="11.5637295"><ele>10.5</ele><time>2026-05-05T15:31:15.257Z</time></trkpt><trkpt lat="44.8407449" lon="11.5636346"><ele>10.0</ele><time>2026-05-05T15:31:16.256Z</time></trkpt><trkpt lat="44.8404676" lon="11.563542"><ele>10.0</ele><time>2026-05-05T15:31:17.257Z</time></trkpt><trkpt lat="44.8401892" lon="11.5634502"><ele>10.0</ele><time>2026-05-05T15:31:18.257Z</time></trkpt><trkpt lat="44.8399098" lon="11.5633536"><ele>10.0</ele><time>2026-05-05T15:31:19.257Z</time></trkpt><trkpt lat="44.8396274" lon="11.5632518"><ele>10.0</ele><time>2026-05-05T15:31:20.257Z</time></trkpt><trkpt lat="44.8393467" lon="11.5631515"><ele>10.0</ele><time>2026-05-05T15:31:21.257Z</time></trkpt><trkpt lat="44.8390666" lon="11.5630541"><ele>10.0</ele><time>2026-05-05T15:31:22.257Z</time></trkpt><trkpt lat="44.8387834" lon="11.5629534"><ele>9.0</ele><time>2026-05-05T15:31:23.257Z</time></trkpt><trkpt lat="44.8384996" lon="11.5628566"><ele>8.0</ele><time>2026-05-05T15:31:24.257Z</time></trkpt><trkpt lat="44.8382195" lon="11.5627586"><ele>8.0</ele><time>2026-05-05T15:31:25.256Z</time></trkpt><trkpt lat="44.8379397" lon="11.5626619"><ele>8.0</ele><time>2026-05-05T15:31:26.256Z</time></trkpt><trkpt lat="44.8376603" lon="11.5625637"><ele>8.0</ele><time>2026-05-05T15:31:27.257Z</time></trkpt><trkpt lat="44.8373865" lon="11.5624673"><ele>8.0</ele><time>2026-05-05T15:31:28.257Z</time></trkpt><trkpt lat="44.8371091" lon="11.5623672"><ele>8.0</ele><time>2026-05-05T15:31:29.256Z</time></trkpt><trkpt lat="44.8368364" lon="11.5622703"><ele>8.0</ele><time>2026-05-05T15:31:30.257Z</time></trkpt><trkpt lat="44.8365647" lon="11.5621701"><ele>8.5</ele><time>2026-05-05T15:31:31.257Z</time></trkpt><trkpt lat="44.8362921" lon="11.5620716"><ele>9.0</ele><time>2026-05-05T15:31:32.257Z</time></trkpt><trkpt lat="44.8360192" lon="11.5619724"><ele>8.5</ele><time>2026-05-05T15:31:33.256Z</time></trkpt><trkpt lat="44.8357484" lon="11.5618745"><ele>8.0</ele><time>2026-05-05T15:31:34.257Z</time></trkpt><trkpt lat="44.8354735" lon="11.5617831"><ele>8.0</ele><time>2026-05-05T15:31:35.256Z</time></trkpt><trkpt lat="44.8351989" lon="11.5616878"><ele>8.0</ele><time>2026-05-05T15:31:36.256Z</time></trkpt><trkpt lat="44.8349245" lon="11.5615903"><ele>8.5</ele><time>2026-05-05T15:31:37.256Z</time></trkpt><trkpt lat="44.8346524" lon="11.5614959"><ele>9.0</ele><time>2026-05-05T15:31:38.257Z</time></trkpt><trkpt lat="44.8343794" lon="11.561401"><ele>9.5</ele><time>2026-05-05T15:31:39.257Z</time></trkpt><trkpt lat="44.834103" lon="11.5613014"><ele>10.0</ele><time>2026-05-05T15:31:40.257Z</time></trkpt><trkpt lat="44.8338289" lon="11.5612087"><ele>10.0</ele><time>2026-05-05T15:31:41.256Z</time></trkpt><trkpt lat="44.8335555" lon="11.5611154"><ele>10.0</ele><time>2026-05-05T15:31:42.257Z</time></trkpt><trkpt lat="44.8332846" lon="11.5610188"><ele>10.0</ele><time>2026-05-05T15:31:43.256Z</time></trkpt><trkpt lat="44.8330175" lon="11.5609223"><ele>10.0</ele><time>2026-05-05T15:31:44.256Z</time></trkpt><trkpt lat="44.8327425" lon="11.5608289"><ele>10.5</ele><time>2026-05-05T15:31:45.257Z</time></trkpt><trkpt lat="44.8324673" lon="11.5607374"><ele>11.0</ele><time>2026-05-05T15:31:46.257Z</time></trkpt><trkpt lat="44.8321952" lon="11.5606498"><ele>11.0</ele><time>2026-05-05T15:31:47.256Z</time></trkpt><trkpt lat="44.8319235" lon="11.5605531"><ele>11.0</ele><time>2026-05-05T15:31:48.257Z</time></trkpt><trkpt lat="44.8316489" lon="11.5604611"><ele>11.0</ele><time>2026-05-05T15:31:49.256Z</time></trkpt><trkpt lat="44.8313734" lon="11.5603652"><ele>11.0</ele><time>2026-05-05T15:31:50.257Z</time></trkpt><trkpt lat="44.8310905" lon="11.5602744"><ele>10.0</ele><time>2026-05-05T15:31:51.257Z</time></trkpt><trkpt lat="44.8308131" lon="11.5601779"><ele>9.0</ele><time>2026-05-05T15:31:52.257Z</time></trkpt><trkpt lat="44.8305298" lon="11.5600727"><ele>9.0</ele><time>2026-05-05T15:31:53.256Z</time></trkpt><trkpt lat="44.830246" lon="11.5599691"><ele>9.0</ele><time>2026-05-05T15:31:54.256Z</time></trkpt><trkpt lat="44.829967" lon="11.5598735"><ele>9.0</ele><time>2026-05-05T15:31:55.257Z</time></trkpt><trkpt lat="44.8296902" lon="11.5597713"><ele>9.0</ele><time>2026-05-05T15:31:56.256Z</time></trkpt><trkpt lat="44.8294125" lon="11.5596787"><ele>9.0</ele><time>2026-05-05T15:31:57.257Z</time></trkpt><trkpt lat="44.8291411" lon="11.5595795"><ele>9.0</ele><time>2026-05-05T15:31:58.257Z</time></trkpt><trkpt lat="44.8288695" lon="11.5594793"><ele>9.0</ele><time>2026-05-05T15:31:59.257Z</time></trkpt><trkpt lat="44.8285994" lon="11.5593763"><ele>9.0</ele><time>2026-05-05T15:32:00.256Z</time></trkpt><trkpt lat="44.8283318" lon="11.5592725"><ele>9.0</ele><time>2026-05-05T15:32:01.256Z</time></trkpt><trkpt lat="44.8280693" lon="11.5591694"><ele>9.0</ele><time>2026-05-05T15:32:02.256Z</time></trkpt><trkpt lat="44.8278048" lon="11.559075"><ele>8.5</ele><time>2026-05-05T15:32:03.257Z</time></trkpt><trkpt lat="44.8275394" lon="11.5589798"><ele>8.0</ele><time>2026-05-05T15:32:04.256Z</time></trkpt><trkpt lat="44.8272774" lon="11.5588833"><ele>8.0</ele><time>2026-05-05T15:32:05.257Z</time></trkpt><trkpt lat="44.8270172" lon="11.5587868"><ele>8.0</ele><time>2026-05-05T15:32:06.257Z</time></trkpt><trkpt lat="44.826756" lon="11.5586939"><ele>8.5</ele><time>2026-05-05T15:32:07.257Z</time></trkpt><trkpt lat="44.8264934" lon="11.558597"><ele>9.0</ele><time>2026-05-05T15:32:08.257Z</time></trkpt><trkpt lat="44.8262337" lon="11.5585013"><ele>8.5</ele><time>2026-05-05T15:32:09.257Z</time></trkpt><trkpt lat="44.8259738" lon="11.5584127"><ele>8.0</ele><time>2026-05-05T15:32:10.257Z</time></trkpt><trkpt lat="44.8257199" lon="11.558323"><ele>8.0</ele><time>2026-05-05T15:32:11.256Z</time></trkpt><trkpt lat="44.825462" lon="11.5582288"><ele>8.0</ele><time>2026-05-05T15:32:12.257Z</time></trkpt><trkpt lat="44.8252059" lon="11.5581405"><ele>8.5</ele><time>2026-05-05T15:32:13.257Z</time></trkpt><trkpt lat="44.8249509" lon="11.5580497"><ele>9.0</ele><time>2026-05-05T15:32:14.257Z</time></trkpt><trkpt lat="44.8246932" lon="11.5579573"><ele>9.0</ele><time>2026-05-05T15:32:15.257Z</time></trkpt><trkpt lat="44.8244365" lon="11.5578714"><ele>9.0</ele><time>2026-05-05T15:32:16.257Z</time></trkpt><trkpt lat="44.8241788" lon="11.557779"><ele>9.0</ele><time>2026-05-05T15:32:17.256Z</time></trkpt><trkpt lat="44.8239208" lon="11.5576897"><ele>9.0</ele><time>2026-05-05T15:32:18.257Z</time></trkpt><trkpt lat="44.823663" lon="11.5575967"><ele>9.5</ele><time>2026-05-05T15:32:19.257Z</time></trkpt><trkpt lat="44.8234023" lon="11.5575062"><ele>10.0</ele><time>2026-05-05T15:32:20.257Z</time></trkpt><trkpt lat="44.8231445" lon="11.5574187"><ele>10.0</ele><time>2026-05-05T15:32:21.257Z</time></trkpt><trkpt lat="44.822885" lon="11.5573302"><ele>10.0</ele><time>2026-05-05T15:32:22.257Z</time></trkpt><trkpt lat="44.8226229" lon="11.55724"><ele>10.0</ele><time>2026-05-05T15:32:23.257Z</time></trkpt><trkpt lat="44.822363" lon="11.5571449"><ele>10.0</ele><time>2026-05-05T15:32:24.257Z</time></trkpt><trkpt lat="44.8221035" lon="11.5570527"><ele>10.0</ele><time>2026-05-05T15:32:25.257Z</time></trkpt><trkpt lat="44.8218405" lon="11.5569591"><ele>10.0</ele><time>2026-05-05T15:32:26.257Z</time></trkpt><trkpt lat="44.8215804" lon="11.5568696"><ele>10.0</ele><time>2026-05-05T15:32:27.257Z</time></trkpt><trkpt lat="44.8213183" lon="11.5567789"><ele>10.0</ele><time>2026-05-05T15:32:28.257Z</time></trkpt><trkpt lat="44.8210536" lon="11.5566837"><ele>11.0</ele><time>2026-05-05T15:32:29.257Z</time></trkpt><trkpt lat="44.8207919" lon="11.5565927"><ele>12.0</ele><time>2026-05-05T15:32:30.257Z</time></trkpt><trkpt lat="44.8205288" lon="11.5565051"><ele>12.0</ele><time>2026-05-05T15:32:31.257Z</time></trkpt><trkpt lat="44.8202715" lon="11.5564131"><ele>12.0</ele><time>2026-05-05T15:32:32.257Z</time></trkpt><trkpt lat="44.8200106" lon="11.5563193"><ele>11.5</ele><time>2026-05-05T15:32:33.257Z</time></trkpt><trkpt lat="44.8197516" lon="11.5562229"><ele>11.0</ele><time>2026-05-05T15:32:34.256Z</time></trkpt><trkpt lat="44.8194885" lon="11.5561233"><ele>11.0</ele><time>2026-05-05T15:32:35.257Z</time></trkpt><trkpt lat="44.8192319" lon="11.5560364"><ele>11.0</ele><time>2026-05-05T15:32:36.256Z</time></trkpt><trkpt lat="44.8189759" lon="11.5559474"><ele>11.0</ele><time>2026-05-05T15:32:37.256Z</time></trkpt><trkpt lat="44.8187232" lon="11.5558526"><ele>11.0</ele><time>2026-05-05T15:32:38.256Z</time></trkpt><trkpt lat="44.8184691" lon="11.5557573"><ele>11.5</ele><time>2026-05-05T15:32:39.257Z</time></trkpt><trkpt lat="44.8182126" lon="11.5556715"><ele>12.0</ele><time>2026-05-05T15:32:40.256Z</time></trkpt><trkpt lat="44.817959" lon="11.5555856"><ele>12.0</ele><time>2026-05-05T15:32:41.257Z</time></trkpt><trkpt lat="44.8176991" lon="11.5554924"><ele>12.0</ele><time>2026-05-05T15:32:42.257Z</time></trkpt><trkpt lat="44.8174438" lon="11.5554056"><ele>12.0</ele><time>2026-05-05T15:32:43.257Z</time></trkpt><trkpt lat="44.8171847" lon="11.5553258"><ele>12.0</ele><time>2026-05-05T15:32:44.257Z</time></trkpt><trkpt lat="44.8169261" lon="11.5552437"><ele>13.0</ele><time>2026-05-05T15:32:45.257Z</time></trkpt><trkpt lat="44.8166665" lon="11.5551722"><ele>14.0</ele><time>2026-05-05T15:32:46.257Z</time></trkpt><trkpt lat="44.816405" lon="11.5550999"><ele>14.0</ele><time>2026-05-05T15:32:47.257Z</time></trkpt><trkpt lat="44.8161455" lon="11.555024"><ele>14.0</ele><time>2026-05-05T15:32:48.256Z</time></trkpt><trkpt lat="44.8158838" lon="11.5549577"><ele>12.0</ele><time>2026-05-05T15:32:49.257Z</time></trkpt><trkpt lat="44.815624" lon="11.5549035"><ele>10.0</ele><time>2026-05-05T15:32:50.257Z</time></trkpt><trkpt lat="44.8153644" lon="11.5548491"><ele>11.0</ele><time>2026-05-05T15:32:51.256Z</time></trkpt><trkpt lat="44.8151058" lon="11.5548026"><ele>12.0</ele><time>2026-05-05T15:32:52.256Z</time></trkpt><trkpt lat="44.8148491" lon="11.5547618"><ele>12.0</ele><time>2026-05-05T15:32:53.256Z</time></trkpt><trkpt lat="44.8145934" lon="11.5547215"><ele>12.0</ele><time>2026-05-05T15:32:54.257Z</time></trkpt><trkpt lat="44.8143365" lon="11.5546854"><ele>12.5</ele><time>2026-05-05T15:32:55.256Z</time></trkpt><trkpt lat="44.8140804" lon="11.5546562"><ele>13.0</ele><time>2026-05-05T15:32:56.257Z</time></trkpt><trkpt lat="44.8138208" lon="11.5546229"><ele>13.0</ele><time>2026-05-05T15:32:57.256Z</time></trkpt><trkpt lat="44.8135644" lon="11.5545989"><ele>13.0</ele><time>2026-05-05T15:32:58.256Z</time></trkpt><trkpt lat="44.8133096" lon="11.5545729"><ele>12.0</ele><time>2026-05-05T15:32:59.257Z</time></trkpt><trkpt lat="44.8130531" lon="11.5545507"><ele>11.0</ele><time>2026-05-05T15:33:00.257Z</time></trkpt><trkpt lat="44.8127997" lon="11.554518"><ele>10.5</ele><time>2026-05-05T15:33:01.257Z</time></trkpt><trkpt lat="44.8125395" lon="11.5544832"><ele>10.0</ele><time>2026-05-05T15:33:02.257Z</time></trkpt><trkpt lat="44.8122819" lon="11.5544552"><ele>10.0</ele><time>2026-05-05T15:33:03.256Z</time></trkpt><trkpt lat="44.8120237" lon="11.5544243"><ele>10.0</ele><time>2026-05-05T15:33:04.257Z</time></trkpt><trkpt lat="44.8117609" lon="11.5543996"><ele>10.0</ele><time>2026-05-05T15:33:05.256Z</time></trkpt><trkpt lat="44.8115025" lon="11.5543746"><ele>10.0</ele><time>2026-05-05T15:33:06.257Z</time></trkpt><trkpt lat="44.8112431" lon="11.5543515"><ele>10.0</ele><time>2026-05-05T15:33:07.257Z</time></trkpt><trkpt lat="44.8109789" lon="11.5543294"><ele>10.0</ele><time>2026-05-05T15:33:08.256Z</time></trkpt><trkpt lat="44.8107152" lon="11.5543079"><ele>10.0</ele><time>2026-05-05T15:33:09.257Z</time></trkpt><trkpt lat="44.810454" lon="11.554277"><ele>10.0</ele><time>2026-05-05T15:33:10.257Z</time></trkpt><trkpt lat="44.8101902" lon="11.5542499"><ele>9.5</ele><time>2026-05-05T15:33:11.257Z</time></trkpt><trkpt lat="44.8099258" lon="11.5542232"><ele>9.0</ele><time>2026-05-05T15:33:12.257Z</time></trkpt><trkpt lat="44.8096569" lon="11.5541909"><ele>9.0</ele><time>2026-05-05T15:33:13.256Z</time></trkpt><trkpt lat="44.8093899" lon="11.5541604"><ele>9.0</ele><time>2026-05-05T15:33:14.256Z</time></trkpt><trkpt lat="44.8091218" lon="11.5541305"><ele>10.0</ele><time>2026-05-05T15:33:15.257Z</time></trkpt><trkpt lat="44.8088538" lon="11.5541065"><ele>11.0</ele><time>2026-05-05T15:33:16.256Z</time></trkpt><trkpt lat="44.8085824" lon="11.55408"><ele>12.0</ele><time>2026-05-05T15:33:17.256Z</time></trkpt><trkpt lat="44.8083163" lon="11.554048"><ele>13.0</ele><time>2026-05-05T15:33:18.257Z</time></trkpt><trkpt lat="44.8080501" lon="11.554019"><ele>13.0</ele><time>2026-05-05T15:33:19.256Z</time></trkpt><trkpt lat="44.8077808" lon="11.5539938"><ele>13.0</ele><time>2026-05-05T15:33:20.256Z</time></trkpt><trkpt lat="44.8075105" lon="11.5539634"><ele>12.5</ele><time>2026-05-05T15:33:21.256Z</time></trkpt><trkpt lat="44.8072399" lon="11.553942"><ele>12.0</ele><time>2026-05-05T15:33:22.256Z</time></trkpt><trkpt lat="44.8069679" lon="11.5539158"><ele>13.0</ele><time>2026-05-05T15:33:23.257Z</time></trkpt><trkpt lat="44.806699" lon="11.5538966"><ele>14.0</ele><time>2026-05-05T15:33:24.256Z</time></trkpt><trkpt lat="44.8064278" lon="11.5538772"><ele>14.0</ele><time>2026-05-05T15:33:25.257Z</time></trkpt><trkpt lat="44.8061589" lon="11.5538419"><ele>14.0</ele><time>2026-05-05T15:33:26.257Z</time></trkpt><trkpt lat="44.8058886" lon="11.553819"><ele>13.0</ele><time>2026-05-05T15:33:27.256Z</time></trkpt><trkpt lat="44.8056145" lon="11.5537938"><ele>12.0</ele><time>2026-05-05T15:33:28.257Z</time></trkpt><trkpt lat="44.8053447" lon="11.5537594"><ele>12.0</ele><time>2026-05-05T15:33:29.257Z</time></trkpt><trkpt lat="44.8050792" lon="11.5537361"><ele>12.0</ele><time>2026-05-05T15:33:30.257Z</time></trkpt><trkpt lat="44.8048114" lon="11.5537067"><ele>12.0</ele><time>2026-05-05T15:33:31.257Z</time></trkpt><trkpt lat="44.804543" lon="11.5536832"><ele>12.0</ele><time>2026-05-05T15:33:32.257Z</time></trkpt><trkpt lat="44.8042767" lon="11.5536637"><ele>11.5</ele><time>2026-05-05T15:33:33.257Z</time></trkpt><trkpt lat="44.8040128" lon="11.5536424"><ele>11.0</ele><time>2026-05-05T15:33:34.257Z</time></trkpt><trkpt lat="44.8037466" lon="11.5536149"><ele>11.0</ele><time>2026-05-05T15:33:35.257Z</time></trkpt><trkpt lat="44.8034818" lon="11.5535819"><ele>11.0</ele><time>2026-05-05T15:33:36.257Z</time></trkpt><trkpt lat="44.8032147" lon="11.5535601"><ele>11.0</ele><time>2026-05-05T15:33:37.256Z</time></trkpt><trkpt lat="44.8029513" lon="11.5535282"><ele>11.0</ele><time>2026-05-05T15:33:38.256Z</time></trkpt><trkpt lat="44.8026852" lon="11.5535041"><ele>10.5</ele><time>2026-05-05T15:33:39.256Z</time></trkpt><trkpt lat="44.8024183" lon="11.5534769"><ele>10.0</ele><time>2026-05-05T15:33:40.257Z</time></trkpt><trkpt lat="44.8021566" lon="11.5534526"><ele>10.0</ele><time>2026-05-05T15:33:41.257Z</time></trkpt><trkpt lat="44.8019015" lon="11.5534238"><ele>10.0</ele><time>2026-05-05T15:33:42.256Z</time></trkpt><trkpt lat="44.8016374" lon="11.5534012"><ele>10.0</ele><time>2026-05-05T15:33:43.256Z</time></trkpt><trkpt lat="44.8013754" lon="11.5533777"><ele>10.0</ele><time>2026-05-05T15:33:44.257Z</time></trkpt><trkpt lat="44.801108" lon="11.5533498"><ele>11.0</ele><time>2026-05-05T15:33:45.256Z</time></trkpt><trkpt lat="44.8008386" lon="11.5533226"><ele>12.0</ele><time>2026-05-05T15:33:46.256Z</time></trkpt><trkpt lat="44.8005755" lon="11.5532909"><ele>12.0</ele><time>2026-05-05T15:33:47.257Z</time></trkpt><trkpt lat="44.8003075" lon="11.5532633"><ele>12.0</ele><time>2026-05-05T15:33:48.257Z</time></trkpt><trkpt lat="44.800037" lon="11.5532411"><ele>12.0</ele><time>2026-05-05T15:33:49.257Z</time></trkpt><trkpt lat="44.7997666" lon="11.5532152"><ele>12.0</ele><time>2026-05-05T15:33:50.257Z</time></trkpt><trkpt lat="44.7995029" lon="11.5531812"><ele>11.5</ele><time>2026-05-05T15:33:51.257Z</time></trkpt><trkpt lat="44.799228" lon="11.5531496"><ele>11.0</ele><time>2026-05-05T15:33:52.256Z</time></trkpt><trkpt lat="44.7989557" lon="11.5531279"><ele>11.0</ele><time>2026-05-05T15:33:53.256Z</time></trkpt><trkpt lat="44.798684" lon="11.5530934"><ele>11.0</ele><time>2026-05-05T15:33:54.256Z</time></trkpt><trkpt lat="44.7984121" lon="11.5530633"><ele>11.0</ele><time>2026-05-05T15:33:55.257Z</time></trkpt><trkpt lat="44.7981405" lon="11.5530365"><ele>11.0</ele><time>2026-05-05T15:33:56.257Z</time></trkpt><trkpt lat="44.7978668" lon="11.553012"><ele>11.0</ele><time>2026-05-05T15:33:57.257Z</time></trkpt><trkpt lat="44.7975943" lon="11.5529895"><ele>11.0</ele><time>2026-05-05T15:33:58.257Z</time></trkpt><trkpt lat="44.7973203" lon="11.5529691"><ele>11.0</ele><time>2026-05-05T15:33:59.257Z</time></trkpt><trkpt lat="44.797049" lon="11.5529461"><ele>11.0</ele><time>2026-05-05T15:34:00.257Z</time></trkpt><trkpt lat="44.796779" lon="11.5529195"><ele>10.5</ele><time>2026-05-05T15:34:01.257Z</time></trkpt><trkpt lat="44.7965124" lon="11.5528918"><ele>10.0</ele><time>2026-05-05T15:34:02.257Z</time></trkpt><trkpt lat="44.7962379" lon="11.5528648"><ele>10.5</ele><time>2026-05-05T15:34:03.257Z</time></trkpt><trkpt lat="44.7959648" lon="11.5528395"><ele>11.0</ele><time>2026-05-05T15:34:04.257Z</time></trkpt><trkpt lat="44.7956924" lon="11.5528125"><ele>11.0</ele><time>2026-05-05T15:34:05.256Z</time></trkpt><trkpt lat="44.7954204" lon="11.5527854"><ele>11.0</ele><time>2026-05-05T15:34:06.257Z</time></trkpt><trkpt lat="44.7951491" lon="11.5527581"><ele>10.0</ele><time>2026-05-05T15:34:07.257Z</time></trkpt><trkpt lat="44.7948783" lon="11.5527352"><ele>9.0</ele><time>2026-05-05T15:34:08.257Z</time></trkpt><trkpt lat="44.794605" lon="11.5527073"><ele>9.0</ele><time>2026-05-05T15:34:09.257Z</time></trkpt><trkpt lat="44.794342" lon="11.5526782"><ele>9.0</ele><time>2026-05-05T15:34:10.257Z</time></trkpt><trkpt lat="44.7940747" lon="11.55265"><ele>10.5</ele><time>2026-05-05T15:34:11.257Z</time></trkpt><trkpt lat="44.7938016" lon="11.5526276"><ele>12.0</ele><time>2026-05-05T15:34:12.256Z</time></trkpt><trkpt lat="44.7935296" lon="11.552608"><ele>10.0</ele><time>2026-05-05T15:34:13.257Z</time></trkpt><trkpt lat="44.7932714" lon="11.5525727"><ele>8.0</ele><time>2026-05-05T15:34:14.257Z</time></trkpt><trkpt lat="44.7929981" lon="11.5525523"><ele>8.0</ele><time>2026-05-05T15:34:15.257Z</time></trkpt><trkpt lat="44.7927237" lon="11.5525291"><ele>8.0</ele><time>2026-05-05T15:34:16.256Z</time></trkpt><trkpt lat="44.7924512" lon="11.5525045"><ele>8.0</ele><time>2026-05-05T15:34:17.256Z</time></trkpt><trkpt lat="44.7921798" lon="11.5524794"><ele>8.0</ele><time>2026-05-05T15:34:18.257Z</time></trkpt><trkpt lat="44.7919073" lon="11.5524521"><ele>9.0</ele><time>2026-05-05T15:34:19.256Z</time></trkpt><trkpt lat="44.7915298" lon="11.5524221"><ele>10.0</ele><time>2026-05-05T15:34:20.62Z</time></trkpt><trkpt lat="44.7910835" lon="11.5523903"><ele>10.0</ele><time>2026-05-05T15:34:22.254Z</time></trkpt><trkpt lat="44.7908117" lon="11.5523729"><ele>10.0</ele><time>2026-05-05T15:34:23.255Z</time></trkpt><trkpt lat="44.7905368" lon="11.5523548"><ele>10.0</ele><time>2026-05-05T15:34:24.255Z</time></trkpt><trkpt lat="44.7902464" lon="11.5523434"><ele>10.0</ele><time>2026-05-05T15:34:25.254Z</time></trkpt><trkpt lat="44.789953" lon="11.552325"><ele>9.0</ele><time>2026-05-05T15:34:26.255Z</time></trkpt><trkpt lat="44.7896565" lon="11.5523063"><ele>8.0</ele><time>2026-05-05T15:34:27.255Z</time></trkpt><trkpt lat="44.7893511" lon="11.5522793"><ele>8.0</ele><time>2026-05-05T15:34:28.254Z</time></trkpt><trkpt lat="44.7890374" lon="11.5522528"><ele>8.0</ele><time>2026-05-05T15:34:29.254Z</time></trkpt><trkpt lat="44.7887241" lon="11.5522217"><ele>8.5</ele><time>2026-05-05T15:34:30.254Z</time></trkpt><trkpt lat="44.7884149" lon="11.5521888"><ele>9.0</ele><time>2026-05-05T15:34:31.254Z</time></trkpt><trkpt lat="44.7881105" lon="11.5521535"><ele>9.0</ele><time>2026-05-05T15:34:32.254Z</time></trkpt><trkpt lat="44.7878111" lon="11.5521139"><ele>9.0</ele><time>2026-05-05T15:34:33.254Z</time></trkpt><trkpt lat="44.7875167" lon="11.5520739"><ele>8.5</ele><time>2026-05-05T15:34:34.254Z</time></trkpt><trkpt lat="44.7872237" lon="11.5520353"><ele>8.0</ele><time>2026-05-05T15:34:35.254Z</time></trkpt><trkpt lat="44.786934" lon="11.5520003"><ele>7.5</ele><time>2026-05-05T15:34:36.255Z</time></trkpt><trkpt lat="44.7866463" lon="11.5519616"><ele>7.0</ele><time>2026-05-05T15:34:37.254Z</time></trkpt><trkpt lat="44.7863594" lon="11.5519184"><ele>7.0</ele><time>2026-05-05T15:34:38.255Z</time></trkpt><trkpt lat="44.7860771" lon="11.5518629"><ele>7.0</ele><time>2026-05-05T15:34:39.254Z</time></trkpt><trkpt lat="44.7857969" lon="11.5517972"><ele>7.5</ele><time>2026-05-05T15:34:40.255Z</time></trkpt><trkpt lat="44.7855186" lon="11.5517257"><ele>8.0</ele><time>2026-05-05T15:34:41.255Z</time></trkpt><trkpt lat="44.7852436" lon="11.5516461"><ele>8.0</ele><time>2026-05-05T15:34:42.254Z</time></trkpt><trkpt lat="44.7849717" lon="11.5515551"><ele>8.0</ele><time>2026-05-05T15:34:43.255Z</time></trkpt><trkpt lat="44.7847032" lon="11.5514536"><ele>8.0</ele><time>2026-05-05T15:34:44.255Z</time></trkpt><trkpt lat="44.7844341" lon="11.5513431"><ele>8.0</ele><time>2026-05-05T15:34:45.255Z</time></trkpt><trkpt lat="44.784169" lon="11.5512216"><ele>7.5</ele><time>2026-05-05T15:34:46.255Z</time></trkpt><trkpt lat="44.7839082" lon="11.5510891"><ele>7.0</ele><time>2026-05-05T15:34:47.254Z</time></trkpt><trkpt lat="44.7836492" lon="11.5509516"><ele>7.0</ele><time>2026-05-05T15:34:48.254Z</time></trkpt><trkpt lat="44.7833965" lon="11.5508044"><ele>7.0</ele><time>2026-05-05T15:34:49.255Z</time></trkpt><trkpt lat="44.7831449" lon="11.5506494"><ele>7.0</ele><time>2026-05-05T15:34:50.255Z</time></trkpt><trkpt lat="44.7828953" lon="11.5504888"><ele>7.0</ele><time>2026-05-05T15:34:51.255Z</time></trkpt><trkpt lat="44.782648" lon="11.5503268"><ele>6.5</ele><time>2026-05-05T15:34:52.254Z</time></trkpt><trkpt lat="44.7824031" lon="11.5501659"><ele>6.0</ele><time>2026-05-05T15:34:53.255Z</time></trkpt><trkpt lat="44.78216" lon="11.5500086"><ele>6.0</ele><time>2026-05-05T15:34:54.255Z</time></trkpt><trkpt lat="44.7819194" lon="11.5498549"><ele>6.0</ele><time>2026-05-05T15:34:55.255Z</time></trkpt><trkpt lat="44.7816787" lon="11.5496998"><ele>6.5</ele><time>2026-05-05T15:34:56.255Z</time></trkpt><trkpt lat="44.7814402" lon="11.5495428"><ele>7.0</ele><time>2026-05-05T15:34:57.254Z</time></trkpt><trkpt lat="44.781204" lon="11.5493887"><ele>7.5</ele><time>2026-05-05T15:34:58.255Z</time></trkpt><trkpt lat="44.7809708" lon="11.5492317"><ele>8.0</ele><time>2026-05-05T15:34:59.255Z</time></trkpt><trkpt lat="44.780735" lon="11.54908"><ele>8.0</ele><time>2026-05-05T15:35:00.255Z</time></trkpt><trkpt lat="44.7805051" lon="11.5489281"><ele>8.0</ele><time>2026-05-05T15:35:01.254Z</time></trkpt><trkpt lat="44.7802773" lon="11.5487796"><ele>8.5</ele><time>2026-05-05T15:35:02.254Z</time></trkpt><trkpt lat="44.7800514" lon="11.5486305"><ele>9.0</ele><time>2026-05-05T15:35:03.255Z</time></trkpt><trkpt lat="44.7798287" lon="11.5484875"><ele>9.0</ele><time>2026-05-05T15:35:04.254Z</time></trkpt><trkpt lat="44.779609" lon="11.548343"><ele>9.0</ele><time>2026-05-05T15:35:05.255Z</time></trkpt><trkpt lat="44.7793892" lon="11.5482017"><ele>8.5</ele><time>2026-05-05T15:35:06.254Z</time></trkpt><trkpt lat="44.7791688" lon="11.5480598"><ele>8.0</ele><time>2026-05-05T15:35:07.255Z</time></trkpt><trkpt lat="44.7789414" lon="11.5479141"><ele>7.5</ele><time>2026-05-05T15:35:08.255Z</time></trkpt><trkpt lat="44.7787116" lon="11.5477718"><ele>7.0</ele><time>2026-05-05T15:35:09.255Z</time></trkpt><trkpt lat="44.7784732" lon="11.5476255"><ele>7.0</ele><time>2026-05-05T15:35:10.255Z</time></trkpt><trkpt lat="44.7782261" lon="11.5474736"><ele>7.0</ele><time>2026-05-05T15:35:11.255Z</time></trkpt><trkpt lat="44.7779773" lon="11.5473186"><ele>7.0</ele><time>2026-05-05T15:35:12.255Z</time></trkpt><trkpt lat="44.7777239" lon="11.5471608"><ele>7.0</ele><time>2026-05-05T15:35:13.255Z</time></trkpt><trkpt lat="44.7774652" lon="11.5469983"><ele>8.5</ele><time>2026-05-05T15:35:14.255Z</time></trkpt><trkpt lat="44.7772018" lon="11.5468315"><ele>10.0</ele><time>2026-05-05T15:35:15.255Z</time></trkpt><trkpt lat="44.7769365" lon="11.5466615"><ele>8.5</ele><time>2026-05-05T15:35:16.255Z</time></trkpt><trkpt lat="44.7766715" lon="11.5464914"><ele>7.0</ele><time>2026-05-05T15:35:17.254Z</time></trkpt><trkpt lat="44.776405" lon="11.5463178"><ele>6.5</ele><time>2026-05-05T15:35:18.254Z</time></trkpt><trkpt lat="44.7761371" lon="11.5461413"><ele>6.0</ele><time>2026-05-05T15:35:19.254Z</time></trkpt><trkpt lat="44.7758716" lon="11.5459646"><ele>6.0</ele><time>2026-05-05T15:35:20.255Z</time></trkpt><trkpt lat="44.7756094" lon="11.5457935"><ele>6.0</ele><time>2026-05-05T15:35:21.255Z</time></trkpt><trkpt lat="44.7753454" lon="11.5456147"><ele>6.0</ele><time>2026-05-05T15:35:22.255Z</time></trkpt><trkpt lat="44.7750812" lon="11.5454449"><ele>6.0</ele><time>2026-05-05T15:35:23.254Z</time></trkpt><trkpt lat="44.7748215" lon="11.545276"><ele>6.0</ele><time>2026-05-05T15:35:24.255Z</time></trkpt><trkpt lat="44.7745575" lon="11.5450977"><ele>6.0</ele><time>2026-05-05T15:35:25.254Z</time></trkpt><trkpt lat="44.7743021" lon="11.5449133"><ele>6.0</ele><time>2026-05-05T15:35:26.254Z</time></trkpt><trkpt lat="44.7740464" lon="11.5447339"><ele>6.0</ele><time>2026-05-05T15:35:27.254Z</time></trkpt><trkpt lat="44.7737933" lon="11.5445549"><ele>6.5</ele><time>2026-05-05T15:35:28.255Z</time></trkpt><trkpt lat="44.7735498" lon="11.5443922"><ele>7.0</ele><time>2026-05-05T15:35:29.255Z</time></trkpt><trkpt lat="44.7733107" lon="11.5442366"><ele>7.0</ele><time>2026-05-05T15:35:30.255Z</time></trkpt><trkpt lat="44.7730755" lon="11.5440781"><ele>7.0</ele><time>2026-05-05T15:35:31.255Z</time></trkpt><trkpt lat="44.7728476" lon="11.5439294"><ele>7.0</ele><time>2026-05-05T15:35:32.255Z</time></trkpt><trkpt lat="44.7726272" lon="11.5437853"><ele>7.0</ele><time>2026-05-05T15:35:33.255Z</time></trkpt><trkpt lat="44.7724136" lon="11.5436464"><ele>7.0</ele><time>2026-05-05T15:35:34.254Z</time></trkpt><trkpt lat="44.7722079" lon="11.5435051"><ele>7.0</ele><time>2026-05-05T15:35:35.254Z</time></trkpt><trkpt lat="44.771997" lon="11.5433677"><ele>6.5</ele><time>2026-05-05T15:35:36.254Z</time></trkpt><trkpt lat="44.7717912" lon="11.5432351"><ele>6.0</ele><time>2026-05-05T15:35:37.254Z</time></trkpt><trkpt lat="44.7715856" lon="11.5431042"><ele>6.0</ele><time>2026-05-05T15:35:38.255Z</time></trkpt><trkpt lat="44.7713785" lon="11.5429652"><ele>6.0</ele><time>2026-05-05T15:35:39.255Z</time></trkpt><trkpt lat="44.7711693" lon="11.5428288"><ele>6.0</ele><time>2026-05-05T15:35:40.254Z</time></trkpt><trkpt lat="44.7709573" lon="11.5426906"><ele>6.0</ele><time>2026-05-05T15:35:41.255Z</time></trkpt><trkpt lat="44.7707452" lon="11.5425549"><ele>6.0</ele><time>2026-05-05T15:35:42.254Z</time></trkpt><trkpt lat="44.7705287" lon="11.5424169"><ele>6.0</ele><time>2026-05-05T15:35:43.255Z</time></trkpt><trkpt lat="44.7703226" lon="11.5422716"><ele>6.0</ele><time>2026-05-05T15:35:44.255Z</time></trkpt><trkpt lat="44.770103" lon="11.5421338"><ele>6.0</ele><time>2026-05-05T15:35:45.254Z</time></trkpt><trkpt lat="44.7698745" lon="11.5419909"><ele>6.0</ele><time>2026-05-05T15:35:46.255Z</time></trkpt><trkpt lat="44.7696456" lon="11.5418495"><ele>6.0</ele><time>2026-05-05T15:35:47.254Z</time></trkpt><trkpt lat="44.7694114" lon="11.5417051"><ele>5.5</ele><time>2026-05-05T15:35:48.254Z</time></trkpt><trkpt lat="44.7691771" lon="11.541554"><ele>5.0</ele><time>2026-05-05T15:35:49.254Z</time></trkpt><trkpt lat="44.7689352" lon="11.5414016"><ele>5.0</ele><time>2026-05-05T15:35:50.254Z</time></trkpt><trkpt lat="44.7686912" lon="11.5412526"><ele>5.0</ele><time>2026-05-05T15:35:51.255Z</time></trkpt><trkpt lat="44.7684477" lon="11.5410948"><ele>4.0</ele><time>2026-05-05T15:35:52.255Z</time></trkpt><trkpt lat="44.768202" lon="11.5409346"><ele>3.0</ele><time>2026-05-05T15:35:53.254Z</time></trkpt><trkpt lat="44.7679486" lon="11.5407746"><ele>3.0</ele><time>2026-05-05T15:35:54.254Z</time></trkpt><trkpt lat="44.7676988" lon="11.5406149"><ele>3.0</ele><time>2026-05-05T15:35:55.254Z</time></trkpt><trkpt lat="44.7674439" lon="11.5404427"><ele>4.5</ele><time>2026-05-05T15:35:56.255Z</time></trkpt><trkpt lat="44.7671966" lon="11.5402759"><ele>6.0</ele><time>2026-05-05T15:35:57.255Z</time></trkpt><trkpt lat="44.7669429" lon="11.5401126"><ele>5.0</ele><time>2026-05-05T15:35:58.255Z</time></trkpt><trkpt lat="44.7666927" lon="11.5399514"><ele>4.0</ele><time>2026-05-05T15:35:59.254Z</time></trkpt><trkpt lat="44.7664411" lon="11.5397889"><ele>4.0</ele><time>2026-05-05T15:36:00.254Z</time></trkpt><trkpt lat="44.7661955" lon="11.5396256"><ele>4.0</ele><time>2026-05-05T15:36:01.255Z</time></trkpt><trkpt lat="44.7659498" lon="11.5394633"><ele>4.5</ele><time>2026-05-05T15:36:02.255Z</time></trkpt><trkpt lat="44.7656985" lon="11.5393016"><ele>5.0</ele><time>2026-05-05T15:36:03.255Z</time></trkpt><trkpt lat="44.7654424" lon="11.5391345"><ele>5.0</ele><time>2026-05-05T15:36:04.254Z</time></trkpt><trkpt lat="44.7651866" lon="11.5389688"><ele>5.0</ele><time>2026-05-05T15:36:05.254Z</time></trkpt><trkpt lat="44.7649212" lon="11.5387961"><ele>4.5</ele><time>2026-05-05T15:36:06.255Z</time></trkpt><trkpt lat="44.7646519" lon="11.5386263"><ele>4.0</ele><time>2026-05-05T15:36:07.255Z</time></trkpt><trkpt lat="44.7643809" lon="11.5384541"><ele>4.5</ele><time>2026-05-05T15:36:08.254Z</time></trkpt><trkpt lat="44.7641116" lon="11.53828"><ele>5.0</ele><time>2026-05-05T15:36:09.254Z</time></trkpt><trkpt lat="44.7638457" lon="11.538105"><ele>5.0</ele><time>2026-05-05T15:36:10.255Z</time></trkpt><trkpt lat="44.7635757" lon="11.5379303"><ele>5.0</ele><time>2026-05-05T15:36:11.254Z</time></trkpt><trkpt lat="44.7633081" lon="11.5377563"><ele>4.5</ele><time>2026-05-05T15:36:12.255Z</time></trkpt><trkpt lat="44.7630429" lon="11.5375841"><ele>4.0</ele><time>2026-05-05T15:36:13.254Z</time></trkpt><trkpt lat="44.7627788" lon="11.5374156"><ele>4.0</ele><time>2026-05-05T15:36:14.255Z</time></trkpt><trkpt lat="44.7625145" lon="11.5372434"><ele>4.0</ele><time>2026-05-05T15:36:15.254Z</time></trkpt><trkpt lat="44.7622548" lon="11.5370626"><ele>4.0</ele><time>2026-05-05T15:36:16.255Z</time></trkpt><trkpt lat="44.7619971" lon="11.5368825"><ele>4.0</ele><time>2026-05-05T15:36:17.255Z</time></trkpt><trkpt lat="44.7617413" lon="11.5366996"><ele>4.0</ele><time>2026-05-05T15:36:18.255Z</time></trkpt><trkpt lat="44.7614862" lon="11.5365298"><ele>4.0</ele><time>2026-05-05T15:36:19.255Z</time></trkpt><trkpt lat="44.7612322" lon="11.5363564"><ele>3.5</ele><time>2026-05-05T15:36:20.255Z</time></trkpt><trkpt lat="44.7609821" lon="11.536191"><ele>3.0</ele><time>2026-05-05T15:36:21.255Z</time></trkpt><trkpt lat="44.7607374" lon="11.5360375"><ele>3.0</ele><time>2026-05-05T15:36:22.254Z</time></trkpt><trkpt lat="44.7605" lon="11.5358784"><ele>3.0</ele><time>2026-05-05T15:36:23.254Z</time></trkpt><trkpt lat="44.7602689" lon="11.5357213"><ele>4.0</ele><time>2026-05-05T15:36:24.254Z</time></trkpt><trkpt lat="44.7600358" lon="11.5355678"><ele>5.0</ele><time>2026-05-05T15:36:25.255Z</time></trkpt><trkpt lat="44.7597975" lon="11.5354202"><ele>5.0</ele><time>2026-05-05T15:36:26.254Z</time></trkpt><trkpt lat="44.7595643" lon="11.5352703"><ele>5.0</ele><time>2026-05-05T15:36:27.255Z</time></trkpt><trkpt lat="44.7593286" lon="11.5351173"><ele>5.5</ele><time>2026-05-05T15:36:28.255Z</time></trkpt><trkpt lat="44.7590796" lon="11.5349612"><ele>6.0</ele><time>2026-05-05T15:36:29.255Z</time></trkpt><trkpt lat="44.7588305" lon="11.5348071"><ele>6.0</ele><time>2026-05-05T15:36:30.255Z</time></trkpt><trkpt lat="44.7585735" lon="11.5346521"><ele>6.0</ele><time>2026-05-05T15:36:31.255Z</time></trkpt><trkpt lat="44.7583091" lon="11.5344828"><ele>5.5</ele><time>2026-05-05T15:36:32.254Z</time></trkpt><trkpt lat="44.7580461" lon="11.5343146"><ele>5.0</ele><time>2026-05-05T15:36:33.254Z</time></trkpt><trkpt lat="44.7577784" lon="11.5341478"><ele>4.5</ele><time>2026-05-05T15:36:34.255Z</time></trkpt><trkpt lat="44.7575127" lon="11.5339774"><ele>4.0</ele><time>2026-05-05T15:36:35.255Z</time></trkpt><trkpt lat="44.7572468" lon="11.5338048"><ele>4.0</ele><time>2026-05-05T15:36:36.255Z</time></trkpt><trkpt lat="44.7569892" lon="11.5336357"><ele>4.0</ele><time>2026-05-05T15:36:37.254Z</time></trkpt><trkpt lat="44.7567227" lon="11.5334615"><ele>4.5</ele><time>2026-05-05T15:36:38.255Z</time></trkpt><trkpt lat="44.7564651" lon="11.5332849"><ele>5.0</ele><time>2026-05-05T15:36:39.255Z</time></trkpt><trkpt lat="44.7562078" lon="11.5331079"><ele>6.0</ele><time>2026-05-05T15:36:40.255Z</time></trkpt><trkpt lat="44.7559505" lon="11.5329293"><ele>7.0</ele><time>2026-05-05T15:36:41.255Z</time></trkpt><trkpt lat="44.7556977" lon="11.5327557"><ele>6.5</ele><time>2026-05-05T15:36:42.254Z</time></trkpt><trkpt lat="44.7554451" lon="11.5325813"><ele>6.0</ele><time>2026-05-05T15:36:43.255Z</time></trkpt><trkpt lat="44.7551954" lon="11.5324175"><ele>6.0</ele><time>2026-05-05T15:36:44.255Z</time></trkpt><trkpt lat="44.7549452" lon="11.5322522"><ele>6.0</ele><time>2026-05-05T15:36:45.255Z</time></trkpt><trkpt lat="44.7546991" lon="11.532091"><ele>6.0</ele><time>2026-05-05T15:36:46.255Z</time></trkpt><trkpt lat="44.7544537" lon="11.5319288"><ele>6.0</ele><time>2026-05-05T15:36:47.254Z</time></trkpt><trkpt lat="44.7542106" lon="11.5317705"><ele>6.0</ele><time>2026-05-05T15:36:48.255Z</time></trkpt><trkpt lat="44.7539673" lon="11.5316057"><ele>6.0</ele><time>2026-05-05T15:36:49.255Z</time></trkpt><trkpt lat="44.7537252" lon="11.5314455"><ele>6.0</ele><time>2026-05-05T15:36:50.255Z</time></trkpt><trkpt lat="44.7534823" lon="11.5312843"><ele>6.0</ele><time>2026-05-05T15:36:51.255Z</time></trkpt><trkpt lat="44.7532361" lon="11.5311265"><ele>6.0</ele><time>2026-05-05T15:36:52.254Z</time></trkpt><trkpt lat="44.7529934" lon="11.5309708"><ele>6.0</ele><time>2026-05-05T15:36:53.254Z</time></trkpt><trkpt lat="44.7527519" lon="11.5308163"><ele>7.0</ele><time>2026-05-05T15:36:54.255Z</time></trkpt><trkpt lat="44.7525089" lon="11.5306622"><ele>8.0</ele><time>2026-05-05T15:36:55.255Z</time></trkpt><trkpt lat="44.7522667" lon="11.5305031"><ele>7.5</ele><time>2026-05-05T15:36:56.255Z</time></trkpt><trkpt lat="44.7520277" lon="11.5303443"><ele>7.0</ele><time>2026-05-05T15:36:57.254Z</time></trkpt><trkpt lat="44.7517918" lon="11.5301821"><ele>6.0</ele><time>2026-05-05T15:36:58.255Z</time></trkpt><trkpt lat="44.7515519" lon="11.5300258"><ele>5.0</ele><time>2026-05-05T15:36:59.254Z</time></trkpt><trkpt lat="44.7513098" lon="11.5298675"><ele>5.0</ele><time>2026-05-05T15:37:00.255Z</time></trkpt><trkpt lat="44.7510648" lon="11.5297151"><ele>5.0</ele><time>2026-05-05T15:37:01.255Z</time></trkpt><trkpt lat="44.7508267" lon="11.5295592"><ele>6.0</ele><time>2026-05-05T15:37:02.255Z</time></trkpt><trkpt lat="44.7505876" lon="11.5294027"><ele>7.0</ele><time>2026-05-05T15:37:03.255Z</time></trkpt><trkpt lat="44.7503458" lon="11.5292454"><ele>7.5</ele><time>2026-05-05T15:37:04.255Z</time></trkpt><trkpt lat="44.750108" lon="11.5290892"><ele>8.0</ele><time>2026-05-05T15:37:05.254Z</time></trkpt><trkpt lat="44.7498681" lon="11.5289305"><ele>8.0</ele><time>2026-05-05T15:37:06.255Z</time></trkpt><trkpt lat="44.7496312" lon="11.5287756"><ele>8.0</ele><time>2026-05-05T15:37:07.255Z</time></trkpt><trkpt lat="44.7494016" lon="11.5286228"><ele>8.0</ele><time>2026-05-05T15:37:08.255Z</time></trkpt><trkpt lat="44.7491629" lon="11.5284738"><ele>8.0</ele><time>2026-05-05T15:37:09.255Z</time></trkpt><trkpt lat="44.7489332" lon="11.528323"><ele>8.0</ele><time>2026-05-05T15:37:10.254Z</time></trkpt><trkpt lat="44.7487042" lon="11.5281779"><ele>8.0</ele><time>2026-05-05T15:37:11.255Z</time></trkpt><trkpt lat="44.7484825" lon="11.5280262"><ele>6.5</ele><time>2026-05-05T15:37:12.255Z</time></trkpt><trkpt lat="44.7482585" lon="11.5278827"><ele>5.0</ele><time>2026-05-05T15:37:13.255Z</time></trkpt><trkpt lat="44.7480308" lon="11.527737"><ele>5.0</ele><time>2026-05-05T15:37:14.255Z</time></trkpt><trkpt lat="44.7478027" lon="11.5275894"><ele>5.0</ele><time>2026-05-05T15:37:15.255Z</time></trkpt><trkpt lat="44.7475752" lon="11.5274476"><ele>5.5</ele><time>2026-05-05T15:37:16.255Z</time></trkpt><trkpt lat="44.7473439" lon="11.5273077"><ele>6.0</ele><time>2026-05-05T15:37:17.255Z</time></trkpt><trkpt lat="44.7471111" lon="11.527162"><ele>7.0</ele><time>2026-05-05T15:37:18.255Z</time></trkpt><trkpt lat="44.7468787" lon="11.5270187"><ele>8.0</ele><time>2026-05-05T15:37:19.255Z</time></trkpt><trkpt lat="44.7466473" lon="11.5268687"><ele>8.0</ele><time>2026-05-05T15:37:20.255Z</time></trkpt><trkpt lat="44.7464148" lon="11.5267265"><ele>8.0</ele><time>2026-05-05T15:37:21.255Z</time></trkpt><trkpt lat="44.7461824" lon="11.5265775"><ele>7.5</ele><time>2026-05-05T15:37:22.254Z</time></trkpt><trkpt lat="44.7459528" lon="11.5264268"><ele>7.0</ele><time>2026-05-05T15:37:23.255Z</time></trkpt><trkpt lat="44.7457213" lon="11.5262729"><ele>8.0</ele><time>2026-05-05T15:37:24.255Z</time></trkpt><trkpt lat="44.7454898" lon="11.5261127"><ele>9.0</ele><time>2026-05-05T15:37:25.255Z</time></trkpt><trkpt lat="44.7452568" lon="11.5259424"><ele>7.0</ele><time>2026-05-05T15:37:26.255Z</time></trkpt><trkpt lat="44.7450217" lon="11.5257676"><ele>5.0</ele><time>2026-05-05T15:37:27.255Z</time></trkpt><trkpt lat="44.744781" lon="11.5255925"><ele>5.0</ele><time>2026-05-05T15:37:28.255Z</time></trkpt><trkpt lat="44.7445393" lon="11.5254124"><ele>5.0</ele><time>2026-05-05T15:37:29.254Z</time></trkpt><trkpt lat="44.7443012" lon="11.5252291"><ele>7.0</ele><time>2026-05-05T15:37:30.255Z</time></trkpt><trkpt lat="44.7440561" lon="11.5250388"><ele>9.0</ele><time>2026-05-05T15:37:31.254Z</time></trkpt><trkpt lat="44.7438152" lon="11.5248484"><ele>9.0</ele><time>2026-05-05T15:37:32.255Z</time></trkpt><trkpt lat="44.7435783" lon="11.5246604"><ele>9.0</ele><time>2026-05-05T15:37:33.254Z</time></trkpt><trkpt lat="44.7433334" lon="11.5244643"><ele>8.0</ele><time>2026-05-05T15:37:34.255Z</time></trkpt><trkpt lat="44.7430883" lon="11.5242714"><ele>7.0</ele><time>2026-05-05T15:37:35.254Z</time></trkpt><trkpt lat="44.7428444" lon="11.5240745"><ele>7.0</ele><time>2026-05-05T15:37:36.255Z</time></trkpt><trkpt lat="44.7426" lon="11.5238715"><ele>7.0</ele><time>2026-05-05T15:37:37.255Z</time></trkpt><trkpt lat="44.7423606" lon="11.5236767"><ele>7.0</ele><time>2026-05-05T15:37:38.254Z</time></trkpt><trkpt lat="44.7421197" lon="11.5234863"><ele>7.0</ele><time>2026-05-05T15:37:39.255Z</time></trkpt><trkpt lat="44.7418799" lon="11.5232921"><ele>8.0</ele><time>2026-05-05T15:37:40.255Z</time></trkpt><trkpt lat="44.7416323" lon="11.5230953"><ele>9.0</ele><time>2026-05-05T15:37:41.254Z</time></trkpt><trkpt lat="44.7413911" lon="11.5229023"><ele>8.5</ele><time>2026-05-05T15:37:42.255Z</time></trkpt><trkpt lat="44.7411479" lon="11.5227033"><ele>8.0</ele><time>2026-05-05T15:37:43.255Z</time></trkpt><trkpt lat="44.7409074" lon="11.5225081"><ele>8.0</ele><time>2026-05-05T15:37:44.254Z</time></trkpt><trkpt lat="44.7406634" lon="11.5223105"><ele>8.0</ele><time>2026-05-05T15:37:45.254Z</time></trkpt><trkpt lat="44.7404215" lon="11.5221138"><ele>8.0</ele><time>2026-05-05T15:37:46.255Z</time></trkpt><trkpt lat="44.740179" lon="11.5219166"><ele>8.0</ele><time>2026-05-05T15:37:47.254Z</time></trkpt><trkpt lat="44.7399383" lon="11.5217248"><ele>8.0</ele><time>2026-05-05T15:37:48.255Z</time></trkpt><trkpt lat="44.7397017" lon="11.5215306"><ele>8.0</ele><time>2026-05-05T15:37:49.254Z</time></trkpt><trkpt lat="44.7394626" lon="11.5213392"><ele>7.5</ele><time>2026-05-05T15:37:50.255Z</time></trkpt><trkpt lat="44.7392327" lon="11.5211413"><ele>7.0</ele><time>2026-05-05T15:37:51.254Z</time></trkpt><trkpt lat="44.7389961" lon="11.520948"><ele>7.0</ele><time>2026-05-05T15:37:52.254Z</time></trkpt><trkpt lat="44.7387685" lon="11.520763"><ele>7.0</ele><time>2026-05-05T15:37:53.255Z</time></trkpt><trkpt lat="44.7385362" lon="11.5205775"><ele>7.5</ele><time>2026-05-05T15:37:54.254Z</time></trkpt><trkpt lat="44.7383116" lon="11.5203964"><ele>8.0</ele><time>2026-05-05T15:37:55.254Z</time></trkpt><trkpt lat="44.7380802" lon="11.5202072"><ele>8.0</ele><time>2026-05-05T15:37:56.255Z</time></trkpt><trkpt lat="44.7378407" lon="11.5200155"><ele>8.0</ele><time>2026-05-05T15:37:57.255Z</time></trkpt><trkpt lat="44.7376022" lon="11.5198199"><ele>9.0</ele><time>2026-05-05T15:37:58.255Z</time></trkpt><trkpt lat="44.737367" lon="11.5196284"><ele>10.0</ele><time>2026-05-05T15:37:59.254Z</time></trkpt><trkpt lat="44.7371298" lon="11.5194358"><ele>10.0</ele><time>2026-05-05T15:38:00.254Z</time></trkpt><trkpt lat="44.7368881" lon="11.5192471"><ele>10.0</ele><time>2026-05-05T15:38:01.254Z</time></trkpt><trkpt lat="44.7366546" lon="11.519061"><ele>10.5</ele><time>2026-05-05T15:38:02.255Z</time></trkpt><trkpt lat="44.7364139" lon="11.5188715"><ele>11.0</ele><time>2026-05-05T15:38:03.254Z</time></trkpt><trkpt lat="44.7361805" lon="11.5186802"><ele>11.0</ele><time>2026-05-05T15:38:04.255Z</time></trkpt><trkpt lat="44.7359478" lon="11.5184949"><ele>11.0</ele><time>2026-05-05T15:38:05.254Z</time></trkpt><trkpt lat="44.735717" lon="11.5183128"><ele>11.0</ele><time>2026-05-05T15:38:06.255Z</time></trkpt><trkpt lat="44.7354894" lon="11.5181246"><ele>11.0</ele><time>2026-05-05T15:38:07.255Z</time></trkpt><trkpt lat="44.7352632" lon="11.5179412"><ele>12.5</ele><time>2026-05-05T15:38:08.254Z</time></trkpt><trkpt lat="44.7350324" lon="11.5177467"><ele>14.0</ele><time>2026-05-05T15:38:09.255Z</time></trkpt><trkpt lat="44.7347918" lon="11.5175564"><ele>14.0</ele><time>2026-05-05T15:38:10.255Z</time></trkpt><trkpt lat="44.7345515" lon="11.5173649"><ele>14.0</ele><time>2026-05-05T15:38:11.254Z</time></trkpt><trkpt lat="44.7343041" lon="11.5171657"><ele>13.0</ele><time>2026-05-05T15:38:12.254Z</time></trkpt><trkpt lat="44.7340565" lon="11.5169617"><ele>12.0</ele><time>2026-05-05T15:38:13.254Z</time></trkpt><trkpt lat="44.7338129" lon="11.5167624"><ele>12.0</ele><time>2026-05-05T15:38:14.255Z</time></trkpt><trkpt lat="44.7335685" lon="11.516566"><ele>12.0</ele><time>2026-05-05T15:38:15.255Z</time></trkpt><trkpt lat="44.7333227" lon="11.5163642"><ele>12.5</ele><time>2026-05-05T15:38:16.255Z</time></trkpt><trkpt lat="44.7330779" lon="11.5161682"><ele>13.0</ele><time>2026-05-05T15:38:17.254Z</time></trkpt><trkpt lat="44.7328335" lon="11.5159745"><ele>12.5</ele><time>2026-05-05T15:38:18.255Z</time></trkpt><trkpt lat="44.7325909" lon="11.5157865"><ele>12.0</ele><time>2026-05-05T15:38:19.255Z</time></trkpt><trkpt lat="44.7323434" lon="11.515592"><ele>12.0</ele><time>2026-05-05T15:38:20.254Z</time></trkpt><trkpt lat="44.7320956" lon="11.5153938"><ele>12.0</ele><time>2026-05-05T15:38:21.255Z</time></trkpt><trkpt lat="44.7318504" lon="11.5151918"><ele>11.0</ele><time>2026-05-05T15:38:22.254Z</time></trkpt><trkpt lat="44.7315996" lon="11.5149947"><ele>10.0</ele><time>2026-05-05T15:38:23.254Z</time></trkpt><trkpt lat="44.7313473" lon="11.5147956"><ele>10.0</ele><time>2026-05-05T15:38:24.255Z</time></trkpt><trkpt lat="44.7311" lon="11.5145948"><ele>10.0</ele><time>2026-05-05T15:38:25.254Z</time></trkpt><trkpt lat="44.7308527" lon="11.514392"><ele>10.0</ele><time>2026-05-05T15:38:26.254Z</time></trkpt><trkpt lat="44.7306033" lon="11.5141952"><ele>10.0</ele><time>2026-05-05T15:38:27.254Z</time></trkpt><trkpt lat="44.730358" lon="11.5139959"><ele>10.5</ele><time>2026-05-05T15:38:28.255Z</time></trkpt><trkpt lat="44.7301096" lon="11.5137966"><ele>11.0</ele><time>2026-05-05T15:38:29.255Z</time></trkpt><trkpt lat="44.72986" lon="11.5135934"><ele>9.5</ele><time>2026-05-05T15:38:30.255Z</time></trkpt><trkpt lat="44.7296151" lon="11.5133856"><ele>8.0</ele><time>2026-05-05T15:38:31.254Z</time></trkpt><trkpt lat="44.7293636" lon="11.5131798"><ele>8.0</ele><time>2026-05-05T15:38:32.254Z</time></trkpt><trkpt lat="44.7291079" lon="11.5129825"><ele>8.0</ele><time>2026-05-05T15:38:33.254Z</time></trkpt><trkpt lat="44.728858" lon="11.5127864"><ele>8.0</ele><time>2026-05-05T15:38:34.255Z</time></trkpt><trkpt lat="44.7286063" lon="11.5125853"><ele>8.0</ele><time>2026-05-05T15:38:35.255Z</time></trkpt><trkpt lat="44.7283565" lon="11.5123855"><ele>8.0</ele><time>2026-05-05T15:38:36.255Z</time></trkpt><trkpt lat="44.7281057" lon="11.5121829"><ele>8.0</ele><time>2026-05-05T15:38:37.255Z</time></trkpt><trkpt lat="44.7278629" lon="11.5119829"><ele>8.0</ele><time>2026-05-05T15:38:38.254Z</time></trkpt><trkpt lat="44.7276147" lon="11.5117852"><ele>8.0</ele><time>2026-05-05T15:38:39.255Z</time></trkpt><trkpt lat="44.7273687" lon="11.511587"><ele>8.0</ele><time>2026-05-05T15:38:40.255Z</time></trkpt><trkpt lat="44.7271212" lon="11.5113865"><ele>8.0</ele><time>2026-05-05T15:38:41.255Z</time></trkpt><trkpt lat="44.7268771" lon="11.5111845"><ele>8.5</ele><time>2026-05-05T15:38:42.254Z</time></trkpt><trkpt lat="44.7266318" lon="11.5109879"><ele>9.0</ele><time>2026-05-05T15:38:43.254Z</time></trkpt><trkpt lat="44.7263869" lon="11.5107914"><ele>9.0</ele><time>2026-05-05T15:38:44.255Z</time></trkpt><trkpt lat="44.7261483" lon="11.510597"><ele>9.0</ele><time>2026-05-05T15:38:45.255Z</time></trkpt><trkpt lat="44.7259105" lon="11.5103998"><ele>9.0</ele><time>2026-05-05T15:38:46.255Z</time></trkpt><trkpt lat="44.7256745" lon="11.5102036"><ele>9.0</ele><time>2026-05-05T15:38:47.254Z</time></trkpt><trkpt lat="44.7254406" lon="11.5100034"><ele>8.5</ele><time>2026-05-05T15:38:48.255Z</time></trkpt><trkpt lat="44.7252087" lon="11.5098047"><ele>8.0</ele><time>2026-05-05T15:38:49.254Z</time></trkpt><trkpt lat="44.724978" lon="11.5096092"><ele>8.0</ele><time>2026-05-05T15:38:50.255Z</time></trkpt><trkpt lat="44.7247438" lon="11.509423"><ele>8.0</ele><time>2026-05-05T15:38:51.255Z</time></trkpt><trkpt lat="44.7245107" lon="11.5092296"><ele>8.0</ele><time>2026-05-05T15:38:52.255Z</time></trkpt><trkpt lat="44.7242772" lon="11.5090367"><ele>8.0</ele><time>2026-05-05T15:38:53.255Z</time></trkpt><trkpt lat="44.7240434" lon="11.5088441"><ele>8.5</ele><time>2026-05-05T15:38:54.255Z</time></trkpt><trkpt lat="44.7238082" lon="11.5086546"><ele>9.0</ele><time>2026-05-05T15:38:55.254Z</time></trkpt><trkpt lat="44.7235722" lon="11.5084657"><ele>8.5</ele><time>2026-05-05T15:38:56.255Z</time></trkpt><trkpt lat="44.7233304" lon="11.5082673"><ele>8.0</ele><time>2026-05-05T15:38:57.254Z</time></trkpt><trkpt lat="44.7230914" lon="11.5080719"><ele>8.0</ele><time>2026-05-05T15:38:58.254Z</time></trkpt><trkpt lat="44.7228525" lon="11.507879"><ele>8.0</ele><time>2026-05-05T15:38:59.254Z</time></trkpt><trkpt lat="44.7226086" lon="11.5076871"><ele>8.0</ele><time>2026-05-05T15:39:00.255Z</time></trkpt><trkpt lat="44.722372" lon="11.5074955"><ele>8.0</ele><time>2026-05-05T15:39:01.255Z</time></trkpt><trkpt lat="44.7221325" lon="11.5073017"><ele>8.0</ele><time>2026-05-05T15:39:02.255Z</time></trkpt><trkpt lat="44.7218907" lon="11.5071121"><ele>8.0</ele><time>2026-05-05T15:39:03.254Z</time></trkpt><trkpt lat="44.7216486" lon="11.5069199"><ele>8.0</ele><time>2026-05-05T15:39:04.255Z</time></trkpt><trkpt lat="44.7214107" lon="11.5067315"><ele>8.0</ele><time>2026-05-05T15:39:05.254Z</time></trkpt><trkpt lat="44.7211758" lon="11.5065407"><ele>8.0</ele><time>2026-05-05T15:39:06.254Z</time></trkpt><trkpt lat="44.7209369" lon="11.5063497"><ele>8.0</ele><time>2026-05-05T15:39:07.255Z</time></trkpt><trkpt lat="44.7206999" lon="11.5061566"><ele>8.0</ele><time>2026-05-05T15:39:08.255Z</time></trkpt><trkpt lat="44.7204646" lon="11.5059681"><ele>8.0</ele><time>2026-05-05T15:39:09.254Z</time></trkpt><trkpt lat="44.7202312" lon="11.5057808"><ele>7.5</ele><time>2026-05-05T15:39:10.255Z</time></trkpt><trkpt lat="44.7199969" lon="11.5055904"><ele>7.0</ele><time>2026-05-05T15:39:11.255Z</time></trkpt><trkpt lat="44.7197646" lon="11.5054014"><ele>6.5</ele><time>2026-05-05T15:39:12.255Z</time></trkpt><trkpt lat="44.7195285" lon="11.5052106"><ele>6.0</ele><time>2026-05-05T15:39:13.254Z</time></trkpt><trkpt lat="44.7192936" lon="11.5050212"><ele>6.0</ele><time>2026-05-05T15:39:14.255Z</time></trkpt><trkpt lat="44.7190583" lon="11.5048311"><ele>6.0</ele><time>2026-05-05T15:39:15.255Z</time></trkpt><trkpt lat="44.7188262" lon="11.5046418"><ele>6.0</ele><time>2026-05-05T15:39:16.255Z</time></trkpt><trkpt lat="44.7185907" lon="11.5044537"><ele>6.0</ele><time>2026-05-05T15:39:17.255Z</time></trkpt><trkpt lat="44.7183552" lon="11.5042638"><ele>6.5</ele><time>2026-05-05T15:39:18.255Z</time></trkpt><trkpt lat="44.7181175" lon="11.5040727"><ele>7.0</ele><time>2026-05-05T15:39:19.255Z</time></trkpt><trkpt lat="44.7178824" lon="11.5038892"><ele>6.0</ele><time>2026-05-05T15:39:20.255Z</time></trkpt><trkpt lat="44.7176492" lon="11.5037009"><ele>5.0</ele><time>2026-05-05T15:39:21.254Z</time></trkpt><trkpt lat="44.7174152" lon="11.5035107"><ele>5.0</ele><time>2026-05-05T15:39:22.255Z</time></trkpt><trkpt lat="44.7171842" lon="11.5033207"><ele>5.0</ele><time>2026-05-05T15:39:23.255Z</time></trkpt><trkpt lat="44.7169519" lon="11.5031345"><ele>5.0</ele><time>2026-05-05T15:39:24.254Z</time></trkpt><trkpt lat="44.7167223" lon="11.5029484"><ele>5.0</ele><time>2026-05-05T15:39:25.255Z</time></trkpt><trkpt lat="44.7164904" lon="11.5027652"><ele>5.0</ele><time>2026-05-05T15:39:26.255Z</time></trkpt><trkpt lat="44.7162653" lon="11.5025814"><ele>5.0</ele><time>2026-05-05T15:39:27.255Z</time></trkpt><trkpt lat="44.7160378" lon="11.502393"><ele>6.0</ele><time>2026-05-05T15:39:28.255Z</time></trkpt><trkpt lat="44.715805" lon="11.502203"><ele>7.0</ele><time>2026-05-05T15:39:29.254Z</time></trkpt><trkpt lat="44.7155747" lon="11.502019"><ele>7.0</ele><time>2026-05-05T15:39:30.255Z</time></trkpt><trkpt lat="44.7153442" lon="11.5018312"><ele>7.0</ele><time>2026-05-05T15:39:31.254Z</time></trkpt><trkpt lat="44.7151117" lon="11.5016426"><ele>8.5</ele><time>2026-05-05T15:39:32.255Z</time></trkpt><trkpt lat="44.7148748" lon="11.5014476"><ele>10.0</ele><time>2026-05-05T15:39:33.254Z</time></trkpt><trkpt lat="44.7146369" lon="11.5012579"><ele>8.5</ele><time>2026-05-05T15:39:34.254Z</time></trkpt><trkpt lat="44.7144032" lon="11.5010693"><ele>7.0</ele><time>2026-05-05T15:39:35.255Z</time></trkpt><trkpt lat="44.7141663" lon="11.5008829"><ele>7.0</ele><time>2026-05-05T15:39:36.255Z</time></trkpt><trkpt lat="44.7139297" lon="11.5006911"><ele>7.0</ele><time>2026-05-05T15:39:37.255Z</time></trkpt><trkpt lat="44.7136899" lon="11.500504"><ele>7.0</ele><time>2026-05-05T15:39:38.255Z</time></trkpt><trkpt lat="44.7134566" lon="11.5003221"><ele>7.0</ele><time>2026-05-05T15:39:39.254Z</time></trkpt><trkpt lat="44.7132227" lon="11.500133"><ele>7.0</ele><time>2026-05-05T15:39:40.255Z</time></trkpt><trkpt lat="44.7129871" lon="11.4999383"><ele>7.0</ele><time>2026-05-05T15:39:41.254Z</time></trkpt><trkpt lat="44.7127519" lon="11.4997506"><ele>6.5</ele><time>2026-05-05T15:39:42.255Z</time></trkpt><trkpt lat="44.7125196" lon="11.4995656"><ele>6.0</ele><time>2026-05-05T15:39:43.255Z</time></trkpt><trkpt lat="44.7122826" lon="11.4993764"><ele>6.0</ele><time>2026-05-05T15:39:44.255Z</time></trkpt><trkpt lat="44.7120537" lon="11.4991879"><ele>6.0</ele><time>2026-05-05T15:39:45.255Z</time></trkpt><trkpt lat="44.7118246" lon="11.4990007"><ele>6.5</ele><time>2026-05-05T15:39:46.255Z</time></trkpt><trkpt lat="44.711594" lon="11.4988112"><ele>7.0</ele><time>2026-05-05T15:39:47.255Z</time></trkpt><trkpt lat="44.7113612" lon="11.498629"><ele>7.0</ele><time>2026-05-05T15:39:48.255Z</time></trkpt><trkpt lat="44.7111259" lon="11.498445"><ele>7.0</ele><time>2026-05-05T15:39:49.255Z</time></trkpt><trkpt lat="44.7108931" lon="11.49825"><ele>7.5</ele><time>2026-05-05T15:39:50.254Z</time></trkpt><trkpt lat="44.7106652" lon="11.4980638"><ele>8.0</ele><time>2026-05-05T15:39:51.255Z</time></trkpt><trkpt lat="44.7104315" lon="11.4978815"><ele>6.5</ele><time>2026-05-05T15:39:52.254Z</time></trkpt><trkpt lat="44.7102033" lon="11.4976988"><ele>5.0</ele><time>2026-05-05T15:39:53.255Z</time></trkpt><trkpt lat="44.7099716" lon="11.497515"><ele>5.0</ele><time>2026-05-05T15:39:54.255Z</time></trkpt><trkpt lat="44.7097444" lon="11.4973296"><ele>5.0</ele><time>2026-05-05T15:39:55.255Z</time></trkpt><trkpt lat="44.7095119" lon="11.4971454"><ele>5.5</ele><time>2026-05-05T15:39:56.255Z</time></trkpt><trkpt lat="44.7092817" lon="11.4969567"><ele>6.0</ele><time>2026-05-05T15:39:57.255Z</time></trkpt><trkpt lat="44.7090526" lon="11.4967702"><ele>6.0</ele><time>2026-05-05T15:39:58.255Z</time></trkpt><trkpt lat="44.7088241" lon="11.4965837"><ele>6.0</ele><time>2026-05-05T15:39:59.255Z</time></trkpt><trkpt lat="44.7085959" lon="11.4963964"><ele>6.5</ele><time>2026-05-05T15:40:00.254Z</time></trkpt><trkpt lat="44.7083676" lon="11.4962191"><ele>7.0</ele><time>2026-05-05T15:40:01.254Z</time></trkpt><trkpt lat="44.7081433" lon="11.4960364"><ele>7.0</ele><time>2026-05-05T15:40:02.255Z</time></trkpt><trkpt lat="44.7079149" lon="11.495848"><ele>7.0</ele><time>2026-05-05T15:40:03.254Z</time></trkpt><trkpt lat="44.7076907" lon="11.4956633"><ele>6.5</ele><time>2026-05-05T15:40:04.255Z</time></trkpt><trkpt lat="44.7074616" lon="11.4954806"><ele>6.0</ele><time>2026-05-05T15:40:05.254Z</time></trkpt><trkpt lat="44.7072362" lon="11.4952971"><ele>6.0</ele><time>2026-05-05T15:40:06.255Z</time></trkpt><trkpt lat="44.7070106" lon="11.4951145"><ele>6.0</ele><time>2026-05-05T15:40:07.255Z</time></trkpt><trkpt lat="44.7067852" lon="11.4949333"><ele>6.0</ele><time>2026-05-05T15:40:08.255Z</time></trkpt><trkpt lat="44.7065583" lon="11.4947515"><ele>6.0</ele><time>2026-05-05T15:40:09.254Z</time></trkpt><trkpt lat="44.7063349" lon="11.49457"><ele>6.0</ele><time>2026-05-05T15:40:10.254Z</time></trkpt><trkpt lat="44.706111" lon="11.4943911"><ele>6.0</ele><time>2026-05-05T15:40:11.255Z</time></trkpt><trkpt lat="44.7058912" lon="11.4942155"><ele>6.5</ele><time>2026-05-05T15:40:12.254Z</time></trkpt><trkpt lat="44.7056722" lon="11.4940411"><ele>7.0</ele><time>2026-05-05T15:40:13.254Z</time></trkpt><trkpt lat="44.7054455" lon="11.4938636"><ele>8.5</ele><time>2026-05-05T15:40:14.254Z</time></trkpt><trkpt lat="44.7052242" lon="11.493689"><ele>10.0</ele><time>2026-05-05T15:40:15.255Z</time></trkpt><trkpt lat="44.7050042" lon="11.4935038"><ele>10.0</ele><time>2026-05-05T15:40:16.255Z</time></trkpt><trkpt lat="44.7047838" lon="11.493327"><ele>10.0</ele><time>2026-05-05T15:40:17.255Z</time></trkpt><trkpt lat="44.7045609" lon="11.4931507"><ele>10.0</ele><time>2026-05-05T15:40:18.254Z</time></trkpt><trkpt lat="44.7043415" lon="11.4929714"><ele>10.0</ele><time>2026-05-05T15:40:19.255Z</time></trkpt><trkpt lat="44.7041243" lon="11.4927995"><ele>9.0</ele><time>2026-05-05T15:40:20.255Z</time></trkpt><trkpt lat="44.7039038" lon="11.4926276"><ele>8.0</ele><time>2026-05-05T15:40:21.255Z</time></trkpt><trkpt lat="44.7036844" lon="11.4924516"><ele>9.0</ele><time>2026-05-05T15:40:22.255Z</time></trkpt><trkpt lat="44.7034674" lon="11.4922762"><ele>10.0</ele><time>2026-05-05T15:40:23.255Z</time></trkpt><trkpt lat="44.7032491" lon="11.4921011"><ele>9.0</ele><time>2026-05-05T15:40:24.255Z</time></trkpt><trkpt lat="44.7030282" lon="11.4919251"><ele>8.0</ele><time>2026-05-05T15:40:25.255Z</time></trkpt><trkpt lat="44.7028046" lon="11.4917483"><ele>8.0</ele><time>2026-05-05T15:40:26.255Z</time></trkpt><trkpt lat="44.7025799" lon="11.4915733"><ele>8.0</ele><time>2026-05-05T15:40:27.254Z</time></trkpt><trkpt lat="44.702357" lon="11.4913925"><ele>8.0</ele><time>2026-05-05T15:40:28.255Z</time></trkpt><trkpt lat="44.7021277" lon="11.4912177"><ele>8.0</ele><time>2026-05-05T15:40:29.255Z</time></trkpt><trkpt lat="44.701892" lon="11.4910389"><ele>8.0</ele><time>2026-05-05T15:40:30.254Z</time></trkpt><trkpt lat="44.701659" lon="11.4908573"><ele>8.0</ele><time>2026-05-05T15:40:31.254Z</time></trkpt><trkpt lat="44.7014275" lon="11.4906771"><ele>8.0</ele><time>2026-05-05T15:40:32.254Z</time></trkpt><trkpt lat="44.7011977" lon="11.4904968"><ele>8.0</ele><time>2026-05-05T15:40:33.255Z</time></trkpt><trkpt lat="44.7009677" lon="11.4903169"><ele>7.5</ele><time>2026-05-05T15:40:34.255Z</time></trkpt><trkpt lat="44.7007391" lon="11.4901315"><ele>7.0</ele><time>2026-05-05T15:40:35.255Z</time></trkpt><trkpt lat="44.7005112" lon="11.4899536"><ele>7.0</ele><time>2026-05-05T15:40:36.255Z</time></trkpt><trkpt lat="44.7002855" lon="11.4897723"><ele>7.0</ele><time>2026-05-05T15:40:37.254Z</time></trkpt><trkpt lat="44.7000603" lon="11.4895944"><ele>8.5</ele><time>2026-05-05T15:40:38.255Z</time></trkpt><trkpt lat="44.6998323" lon="11.4894134"><ele>10.0</ele><time>2026-05-05T15:40:39.255Z</time></trkpt><trkpt lat="44.6996009" lon="11.4892309"><ele>9.5</ele><time>2026-05-05T15:40:40.255Z</time></trkpt><trkpt lat="44.6993729" lon="11.4890498"><ele>9.0</ele><time>2026-05-05T15:40:41.255Z</time></trkpt><trkpt lat="44.6991487" lon="11.4888739"><ele>8.5</ele><time>2026-05-05T15:40:42.255Z</time></trkpt><trkpt lat="44.6989207" lon="11.4886917"><ele>8.0</ele><time>2026-05-05T15:40:43.254Z</time></trkpt><trkpt lat="44.6986936" lon="11.4885071"><ele>9.0</ele><time>2026-05-05T15:40:44.255Z</time></trkpt><trkpt lat="44.6984667" lon="11.4883246"><ele>10.0</ele><time>2026-05-05T15:40:45.255Z</time></trkpt><trkpt lat="44.6982397" lon="11.4881345"><ele>10.0</ele><time>2026-05-05T15:40:46.254Z</time></trkpt><trkpt lat="44.698014" lon="11.4879481"><ele>10.0</ele><time>2026-05-05T15:40:47.254Z</time></trkpt><trkpt lat="44.6977941" lon="11.4877539"><ele>9.5</ele><time>2026-05-05T15:40:48.255Z</time></trkpt><trkpt lat="44.6975622" lon="11.4875711"><ele>9.0</ele><time>2026-05-05T15:40:49.255Z</time></trkpt><trkpt lat="44.6973339" lon="11.4873838"><ele>9.0</ele><time>2026-05-05T15:40:50.255Z</time></trkpt><trkpt lat="44.6971032" lon="11.4872035"><ele>9.0</ele><time>2026-05-05T15:40:51.255Z</time></trkpt><trkpt lat="44.696886" lon="11.4870144"><ele>10.0</ele><time>2026-05-05T15:40:52.254Z</time></trkpt><trkpt lat="44.6966533" lon="11.486822"><ele>11.0</ele><time>2026-05-05T15:40:53.255Z</time></trkpt><trkpt lat="44.6964199" lon="11.4866357"><ele>11.0</ele><time>2026-05-05T15:40:54.255Z</time></trkpt><trkpt lat="44.6961902" lon="11.4864486"><ele>11.0</ele><time>2026-05-05T15:40:55.254Z</time></trkpt><trkpt lat="44.695959" lon="11.4862695"><ele>10.0</ele><time>2026-05-05T15:40:56.255Z</time></trkpt><trkpt lat="44.6957283" lon="11.4860913"><ele>9.0</ele><time>2026-05-05T15:40:57.255Z</time></trkpt><trkpt lat="44.6955028" lon="11.4859077"><ele>9.0</ele><time>2026-05-05T15:40:58.254Z</time></trkpt><trkpt lat="44.6952771" lon="11.4857212"><ele>9.0</ele><time>2026-05-05T15:40:59.255Z</time></trkpt><trkpt lat="44.6950455" lon="11.485539"><ele>8.0</ele><time>2026-05-05T15:41:00.254Z</time></trkpt><trkpt lat="44.6948078" lon="11.4853515"><ele>7.0</ele><time>2026-05-05T15:41:01.255Z</time></trkpt><trkpt lat="44.694569" lon="11.485161"><ele>8.0</ele><time>2026-05-05T15:41:02.254Z</time></trkpt><trkpt lat="44.6943361" lon="11.4849708"><ele>9.0</ele><time>2026-05-05T15:41:03.255Z</time></trkpt><trkpt lat="44.694101" lon="11.4847819"><ele>9.0</ele><time>2026-05-05T15:41:04.255Z</time></trkpt><trkpt lat="44.6938625" lon="11.484599"><ele>9.0</ele><time>2026-05-05T15:41:05.255Z</time></trkpt><trkpt lat="44.6936404" lon="11.484413"><ele>8.5</ele><time>2026-05-05T15:41:06.255Z</time></trkpt><trkpt lat="44.6934114" lon="11.4842248"><ele>8.0</ele><time>2026-05-05T15:41:07.254Z</time></trkpt><trkpt lat="44.6931769" lon="11.4840393"><ele>8.0</ele><time>2026-05-05T15:41:08.255Z</time></trkpt><trkpt lat="44.6929449" lon="11.4838524"><ele>8.0</ele><time>2026-05-05T15:41:09.254Z</time></trkpt><trkpt lat="44.6927145" lon="11.4836691"><ele>7.5</ele><time>2026-05-05T15:41:10.255Z</time></trkpt><trkpt lat="44.6924815" lon="11.4834761"><ele>7.0</ele><time>2026-05-05T15:41:11.254Z</time></trkpt><trkpt lat="44.692249" lon="11.4832932"><ele>7.0</ele><time>2026-05-05T15:41:12.254Z</time></trkpt><trkpt lat="44.6920147" lon="11.483111"><ele>7.0</ele><time>2026-05-05T15:41:13.254Z</time></trkpt><trkpt lat="44.6917754" lon="11.4829202"><ele>6.5</ele><time>2026-05-05T15:41:14.254Z</time></trkpt><trkpt lat="44.6915442" lon="11.4827329"><ele>6.0</ele><time>2026-05-05T15:41:15.255Z</time></trkpt><trkpt lat="44.6913105" lon="11.4825414"><ele>5.5</ele><time>2026-05-05T15:41:16.255Z</time></trkpt><trkpt lat="44.6910766" lon="11.4823477"><ele>5.0</ele><time>2026-05-05T15:41:17.254Z</time></trkpt><trkpt lat="44.6908372" lon="11.4821649"><ele>4.5</ele><time>2026-05-05T15:41:18.255Z</time></trkpt><trkpt lat="44.6906029" lon="11.4819753"><ele>4.0</ele><time>2026-05-05T15:41:19.254Z</time></trkpt><trkpt lat="44.6903739" lon="11.4817902"><ele>4.5</ele><time>2026-05-05T15:41:20.254Z</time></trkpt><trkpt lat="44.6901338" lon="11.4816017"><ele>5.0</ele><time>2026-05-05T15:41:21.255Z</time></trkpt><trkpt lat="44.689901" lon="11.4814178"><ele>4.5</ele><time>2026-05-05T15:41:22.255Z</time></trkpt><trkpt lat="44.6896668" lon="11.4812228"><ele>4.0</ele><time>2026-05-05T15:41:23.255Z</time></trkpt><trkpt lat="44.689433" lon="11.4810413"><ele>4.5</ele><time>2026-05-05T15:41:24.254Z</time></trkpt><trkpt lat="44.6892001" lon="11.4808548"><ele>5.0</ele><time>2026-05-05T15:41:25.255Z</time></trkpt><trkpt lat="44.6889671" lon="11.4806621"><ele>5.0</ele><time>2026-05-05T15:41:26.254Z</time></trkpt><trkpt lat="44.6887326" lon="11.4804708"><ele>5.0</ele><time>2026-05-05T15:41:27.254Z</time></trkpt><trkpt lat="44.688497" lon="11.4802804"><ele>6.0</ele><time>2026-05-05T15:41:28.254Z</time></trkpt><trkpt lat="44.6882616" lon="11.480091"><ele>7.0</ele><time>2026-05-05T15:41:29.254Z</time></trkpt><trkpt lat="44.6880262" lon="11.4799005"><ele>7.0</ele><time>2026-05-05T15:41:30.255Z</time></trkpt><trkpt lat="44.6877897" lon="11.4797129"><ele>7.0</ele><time>2026-05-05T15:41:31.254Z</time></trkpt><trkpt lat="44.6875529" lon="11.4795242"><ele>7.0</ele><time>2026-05-05T15:41:32.255Z</time></trkpt><trkpt lat="44.6873153" lon="11.4793314"><ele>7.0</ele><time>2026-05-05T15:41:33.255Z</time></trkpt><trkpt lat="44.687082" lon="11.4791347"><ele>6.5</ele><time>2026-05-05T15:41:34.255Z</time></trkpt><trkpt lat="44.6868476" lon="11.4789449"><ele>6.0</ele><time>2026-05-05T15:41:35.255Z</time></trkpt><trkpt lat="44.6866107" lon="11.4787539"><ele>7.0</ele><time>2026-05-05T15:41:36.255Z</time></trkpt><trkpt lat="44.6863691" lon="11.4785656"><ele>8.0</ele><time>2026-05-05T15:41:37.254Z</time></trkpt><trkpt lat="44.6861322" lon="11.4783767"><ele>8.5</ele><time>2026-05-05T15:41:38.254Z</time></trkpt><trkpt lat="44.685902" lon="11.4781806"><ele>9.0</ele><time>2026-05-05T15:41:39.255Z</time></trkpt><trkpt lat="44.6856665" lon="11.4779897"><ele>9.0</ele><time>2026-05-05T15:41:40.255Z</time></trkpt><trkpt lat="44.6854258" lon="11.4777959"><ele>9.0</ele><time>2026-05-05T15:41:41.254Z</time></trkpt><trkpt lat="44.6851832" lon="11.4776067"><ele>8.0</ele><time>2026-05-05T15:41:42.255Z</time></trkpt><trkpt lat="44.684944" lon="11.4774106"><ele>7.0</ele><time>2026-05-05T15:41:43.255Z</time></trkpt><trkpt lat="44.6847026" lon="11.4772215"><ele>6.5</ele><time>2026-05-05T15:41:44.254Z</time></trkpt><trkpt lat="44.6844601" lon="11.477029"><ele>6.0</ele><time>2026-05-05T15:41:45.255Z</time></trkpt><trkpt lat="44.6842184" lon="11.476833"><ele>5.5</ele><time>2026-05-05T15:41:46.255Z</time></trkpt><trkpt lat="44.6839774" lon="11.4766424"><ele>5.0</ele><time>2026-05-05T15:41:47.255Z</time></trkpt><trkpt lat="44.6837317" lon="11.4764454"><ele>5.0</ele><time>2026-05-05T15:41:48.255Z</time></trkpt><trkpt lat="44.6834883" lon="11.4762458"><ele>5.0</ele><time>2026-05-05T15:41:49.254Z</time></trkpt><trkpt lat="44.6832378" lon="11.4760445"><ele>5.0</ele><time>2026-05-05T15:41:50.255Z</time></trkpt><trkpt lat="44.6829942" lon="11.4758446"><ele>5.0</ele><time>2026-05-05T15:41:51.255Z</time></trkpt><trkpt lat="44.6827527" lon="11.4756521"><ele>4.5</ele><time>2026-05-05T15:41:52.255Z</time></trkpt><trkpt lat="44.6825093" lon="11.4754518"><ele>4.0</ele><time>2026-05-05T15:41:53.254Z</time></trkpt><trkpt lat="44.6822671" lon="11.4752561"><ele>4.0</ele><time>2026-05-05T15:41:54.255Z</time></trkpt><trkpt lat="44.6820235" lon="11.4750615"><ele>4.0</ele><time>2026-05-05T15:41:55.254Z</time></trkpt><trkpt lat="44.6817779" lon="11.4748684"><ele>5.5</ele><time>2026-05-05T15:41:56.254Z</time></trkpt><trkpt lat="44.6815303" lon="11.4746703"><ele>7.0</ele><time>2026-05-05T15:41:57.254Z</time></trkpt><trkpt lat="44.6812864" lon="11.4744708"><ele>7.5</ele><time>2026-05-05T15:41:58.254Z</time></trkpt><trkpt lat="44.6810422" lon="11.4742745"><ele>8.0</ele><time>2026-05-05T15:41:59.255Z</time></trkpt><trkpt lat="44.6807954" lon="11.4740806"><ele>8.0</ele><time>2026-05-05T15:42:00.255Z</time></trkpt><trkpt lat="44.6805519" lon="11.4738861"><ele>8.0</ele><time>2026-05-05T15:42:01.254Z</time></trkpt><trkpt lat="44.6803097" lon="11.4736893"><ele>6.0</ele><time>2026-05-05T15:42:02.254Z</time></trkpt><trkpt lat="44.6800618" lon="11.4734862"><ele>4.0</ele><time>2026-05-05T15:42:03.254Z</time></trkpt><trkpt lat="44.6798145" lon="11.4732906"><ele>4.0</ele><time>2026-05-05T15:42:04.254Z</time></trkpt><trkpt lat="44.6795724" lon="11.4730944"><ele>4.0</ele><time>2026-05-05T15:42:05.255Z</time></trkpt><trkpt lat="44.6793273" lon="11.4729015"><ele>5.5</ele><time>2026-05-05T15:42:06.255Z</time></trkpt><trkpt lat="44.6790862" lon="11.4727077"><ele>7.0</ele><time>2026-05-05T15:42:07.254Z</time></trkpt><trkpt lat="44.6788446" lon="11.472514"><ele>7.0</ele><time>2026-05-05T15:42:08.255Z</time></trkpt><trkpt lat="44.6786053" lon="11.4723206"><ele>7.0</ele><time>2026-05-05T15:42:09.255Z</time></trkpt><trkpt lat="44.6783662" lon="11.472131"><ele>8.5</ele><time>2026-05-05T15:42:10.254Z</time></trkpt><trkpt lat="44.6781294" lon="11.4719346"><ele>10.0</ele><time>2026-05-05T15:42:11.254Z</time></trkpt><trkpt lat="44.6778945" lon="11.4717401"><ele>9.0</ele><time>2026-05-05T15:42:12.254Z</time></trkpt><trkpt lat="44.6776629" lon="11.4715405"><ele>8.0</ele><time>2026-05-05T15:42:13.255Z</time></trkpt><trkpt lat="44.6774308" lon="11.4713449"><ele>7.0</ele><time>2026-05-05T15:42:14.255Z</time></trkpt><trkpt lat="44.6771983" lon="11.4711524"><ele>6.0</ele><time>2026-05-05T15:42:15.255Z</time></trkpt><trkpt lat="44.676965" lon="11.4709603"><ele>8.0</ele><time>2026-05-05T15:42:16.255Z</time></trkpt><trkpt lat="44.6767343" lon="11.4707697"><ele>10.0</ele><time>2026-05-05T15:42:17.255Z</time></trkpt><trkpt lat="44.6764993" lon="11.4705768"><ele>9.0</ele><time>2026-05-05T15:42:18.254Z</time></trkpt><trkpt lat="44.6762633" lon="11.4703843"><ele>8.0</ele><time>2026-05-05T15:42:19.255Z</time></trkpt><trkpt lat="44.6760255" lon="11.4701942"><ele>8.0</ele><time>2026-05-05T15:42:20.255Z</time></trkpt><trkpt lat="44.6757874" lon="11.4699964"><ele>8.0</ele><time>2026-05-05T15:42:21.255Z</time></trkpt><trkpt lat="44.6755475" lon="11.4697996"><ele>8.0</ele><time>2026-05-05T15:42:22.255Z</time></trkpt><trkpt lat="44.6753068" lon="11.4696024"><ele>8.0</ele><time>2026-05-05T15:42:23.254Z</time></trkpt><trkpt lat="44.6750679" lon="11.4694031"><ele>7.5</ele><time>2026-05-05T15:42:24.255Z</time></trkpt><trkpt lat="44.6748295" lon="11.4692037"><ele>7.0</ele><time>2026-05-05T15:42:25.254Z</time></trkpt><trkpt lat="44.6745898" lon="11.4689996"><ele>7.0</ele><time>2026-05-05T15:42:26.255Z</time></trkpt><trkpt lat="44.6743503" lon="11.4687924"><ele>7.0</ele><time>2026-05-05T15:42:27.255Z</time></trkpt><trkpt lat="44.6741093" lon="11.4685818"><ele>8.0</ele><time>2026-05-05T15:42:28.255Z</time></trkpt><trkpt lat="44.6738683" lon="11.4683738"><ele>9.0</ele><time>2026-05-05T15:42:29.255Z</time></trkpt><trkpt lat="44.6736267" lon="11.4681609"><ele>9.0</ele><time>2026-05-05T15:42:30.254Z</time></trkpt><trkpt lat="44.6733928" lon="11.4679421"><ele>9.0</ele><time>2026-05-05T15:42:31.254Z</time></trkpt><trkpt lat="44.6731561" lon="11.4677169"><ele>9.0</ele><time>2026-05-05T15:42:32.254Z</time></trkpt><trkpt lat="44.6729208" lon="11.467494"><ele>9.0</ele><time>2026-05-05T15:42:33.254Z</time></trkpt><trkpt lat="44.6726881" lon="11.467267"><ele>8.5</ele><time>2026-05-05T15:42:34.254Z</time></trkpt><trkpt lat="44.6724489" lon="11.467044"><ele>8.0</ele><time>2026-05-05T15:42:35.254Z</time></trkpt><trkpt lat="44.6722165" lon="11.4668173"><ele>8.0</ele><time>2026-05-05T15:42:36.255Z</time></trkpt><trkpt lat="44.6719845" lon="11.4665866"><ele>8.0</ele><time>2026-05-05T15:42:37.255Z</time></trkpt><trkpt lat="44.6717517" lon="11.4663605"><ele>8.0</ele><time>2026-05-05T15:42:38.255Z</time></trkpt><trkpt lat="44.6715173" lon="11.4661323"><ele>8.0</ele><time>2026-05-05T15:42:39.255Z</time></trkpt><trkpt lat="44.6712793" lon="11.4658972"><ele>8.5</ele><time>2026-05-05T15:42:40.254Z</time></trkpt><trkpt lat="44.6710447" lon="11.4656668"><ele>9.0</ele><time>2026-05-05T15:42:41.254Z</time></trkpt><trkpt lat="44.6708052" lon="11.4654371"><ele>9.0</ele><time>2026-05-05T15:42:42.255Z</time></trkpt><trkpt lat="44.6705688" lon="11.4652058"><ele>9.0</ele><time>2026-05-05T15:42:43.255Z</time></trkpt><trkpt lat="44.6703334" lon="11.4649704"><ele>9.0</ele><time>2026-05-05T15:42:44.254Z</time></trkpt><trkpt lat="44.6700933" lon="11.464735"><ele>9.0</ele><time>2026-05-05T15:42:45.254Z</time></trkpt><trkpt lat="44.6698577" lon="11.4645021"><ele>9.0</ele><time>2026-05-05T15:42:46.254Z</time></trkpt><trkpt lat="44.6696216" lon="11.4642746"><ele>9.0</ele><time>2026-05-05T15:42:47.255Z</time></trkpt><trkpt lat="44.6693846" lon="11.4640504"><ele>9.0</ele><time>2026-05-05T15:42:48.255Z</time></trkpt><trkpt lat="44.6691488" lon="11.4638203"><ele>9.0</ele><time>2026-05-05T15:42:49.255Z</time></trkpt><trkpt lat="44.6689125" lon="11.463594"><ele>9.0</ele><time>2026-05-05T15:42:50.254Z</time></trkpt><trkpt lat="44.668676" lon="11.4633603"><ele>9.0</ele><time>2026-05-05T15:42:51.255Z</time></trkpt><trkpt lat="44.66844" lon="11.4631295"><ele>7.0</ele><time>2026-05-05T15:42:52.255Z</time></trkpt><trkpt lat="44.6682078" lon="11.4629018"><ele>5.0</ele><time>2026-05-05T15:42:53.255Z</time></trkpt><trkpt lat="44.6679783" lon="11.4626751"><ele>6.0</ele><time>2026-05-05T15:42:54.255Z</time></trkpt><trkpt lat="44.6677489" lon="11.4624498"><ele>7.0</ele><time>2026-05-05T15:42:55.254Z</time></trkpt><trkpt lat="44.6675193" lon="11.4622227"><ele>7.5</ele><time>2026-05-05T15:42:56.254Z</time></trkpt><trkpt lat="44.6672904" lon="11.4620011"><ele>8.0</ele><time>2026-05-05T15:42:57.254Z</time></trkpt><trkpt lat="44.667057" lon="11.461773"><ele>8.5</ele><time>2026-05-05T15:42:58.254Z</time></trkpt><trkpt lat="44.666824" lon="11.4615445"><ele>9.0</ele><time>2026-05-05T15:42:59.255Z</time></trkpt><trkpt lat="44.6665902" lon="11.4613168"><ele>8.5</ele><time>2026-05-05T15:43:00.255Z</time></trkpt><trkpt lat="44.6663616" lon="11.4610894"><ele>8.0</ele><time>2026-05-05T15:43:01.255Z</time></trkpt><trkpt lat="44.6661306" lon="11.46086"><ele>8.5</ele><time>2026-05-05T15:43:02.255Z</time></trkpt><trkpt lat="44.6659024" lon="11.4606384"><ele>9.0</ele><time>2026-05-05T15:43:03.255Z</time></trkpt><trkpt lat="44.665671" lon="11.4604183"><ele>8.0</ele><time>2026-05-05T15:43:04.254Z</time></trkpt><trkpt lat="44.6654368" lon="11.4601962"><ele>7.0</ele><time>2026-05-05T15:43:05.254Z</time></trkpt><trkpt lat="44.6652091" lon="11.4599754"><ele>7.0</ele><time>2026-05-05T15:43:06.255Z</time></trkpt><trkpt lat="44.6649824" lon="11.4597584"><ele>7.0</ele><time>2026-05-05T15:43:07.254Z</time></trkpt><trkpt lat="44.6647574" lon="11.4595367"><ele>7.0</ele><time>2026-05-05T15:43:08.254Z</time></trkpt><trkpt lat="44.6645335" lon="11.4593177"><ele>7.0</ele><time>2026-05-05T15:43:09.255Z</time></trkpt><trkpt lat="44.6643078" lon="11.4590977"><ele>7.0</ele><time>2026-05-05T15:43:10.254Z</time></trkpt><trkpt lat="44.6640864" lon="11.4588795"><ele>7.0</ele><time>2026-05-05T15:43:11.255Z</time></trkpt><trkpt lat="44.6638607" lon="11.4586593"><ele>7.0</ele><time>2026-05-05T15:43:12.255Z</time></trkpt><trkpt lat="44.6636356" lon="11.4584441"><ele>7.0</ele><time>2026-05-05T15:43:13.255Z</time></trkpt><trkpt lat="44.6634046" lon="11.4582218"><ele>7.0</ele><time>2026-05-05T15:43:14.254Z</time></trkpt><trkpt lat="44.6631829" lon="11.4580038"><ele>7.0</ele><time>2026-05-05T15:43:15.254Z</time></trkpt><trkpt lat="44.662953" lon="11.4577795"><ele>7.5</ele><time>2026-05-05T15:43:16.254Z</time></trkpt><trkpt lat="44.6627309" lon="11.4575586"><ele>8.0</ele><time>2026-05-05T15:43:17.255Z</time></trkpt><trkpt lat="44.6625054" lon="11.4573344"><ele>8.5</ele><time>2026-05-05T15:43:18.255Z</time></trkpt><trkpt lat="44.6622813" lon="11.4571138"><ele>9.0</ele><time>2026-05-05T15:43:19.254Z</time></trkpt><trkpt lat="44.6620579" lon="11.456894"><ele>8.5</ele><time>2026-05-05T15:43:20.255Z</time></trkpt><trkpt lat="44.6618311" lon="11.4566741"><ele>8.0</ele><time>2026-05-05T15:43:21.255Z</time></trkpt><trkpt lat="44.6616054" lon="11.4564522"><ele>8.0</ele><time>2026-05-05T15:43:22.254Z</time></trkpt><trkpt lat="44.6613786" lon="11.4562328"><ele>8.0</ele><time>2026-05-05T15:43:23.254Z</time></trkpt><trkpt lat="44.6611552" lon="11.4560168"><ele>8.5</ele><time>2026-05-05T15:43:24.255Z</time></trkpt><trkpt lat="44.6609228" lon="11.4557972"><ele>9.0</ele><time>2026-05-05T15:43:25.255Z</time></trkpt><trkpt lat="44.6606961" lon="11.4555736"><ele>8.5</ele><time>2026-05-05T15:43:26.255Z</time></trkpt><trkpt lat="44.6604651" lon="11.4553493"><ele>8.0</ele><time>2026-05-05T15:43:27.254Z</time></trkpt><trkpt lat="44.6602317" lon="11.4551255"><ele>8.0</ele><time>2026-05-05T15:43:28.255Z</time></trkpt><trkpt lat="44.659997" lon="11.4548995"><ele>8.0</ele><time>2026-05-05T15:43:29.255Z</time></trkpt><trkpt lat="44.6597649" lon="11.4546699"><ele>8.0</ele><time>2026-05-05T15:43:30.255Z</time></trkpt><trkpt lat="44.6595329" lon="11.4544397"><ele>8.0</ele><time>2026-05-05T15:43:31.255Z</time></trkpt><trkpt lat="44.659298" lon="11.4542078"><ele>8.0</ele><time>2026-05-05T15:43:32.255Z</time></trkpt><trkpt lat="44.6590619" lon="11.453974"><ele>8.0</ele><time>2026-05-05T15:43:33.255Z</time></trkpt><trkpt lat="44.6588249" lon="11.4537387"><ele>9.0</ele><time>2026-05-05T15:43:34.255Z</time></trkpt><trkpt lat="44.6585886" lon="11.4535092"><ele>10.0</ele><time>2026-05-05T15:43:35.255Z</time></trkpt><trkpt lat="44.658348" lon="11.4532738"><ele>10.0</ele><time>2026-05-05T15:43:36.255Z</time></trkpt><trkpt lat="44.6581142" lon="11.453044"><ele>10.0</ele><time>2026-05-05T15:43:37.255Z</time></trkpt><trkpt lat="44.6578777" lon="11.452818"><ele>9.5</ele><time>2026-05-05T15:43:38.254Z</time></trkpt><trkpt lat="44.6576375" lon="11.4525858"><ele>9.0</ele><time>2026-05-05T15:43:39.254Z</time></trkpt><trkpt lat="44.6574028" lon="11.4523599"><ele>9.0</ele><time>2026-05-05T15:43:40.255Z</time></trkpt><trkpt lat="44.6571714" lon="11.452132"><ele>9.0</ele><time>2026-05-05T15:43:41.254Z</time></trkpt><trkpt lat="44.6569388" lon="11.4519032"><ele>9.5</ele><time>2026-05-05T15:43:42.255Z</time></trkpt><trkpt lat="44.6567054" lon="11.4516759"><ele>10.0</ele><time>2026-05-05T15:43:43.255Z</time></trkpt><trkpt lat="44.6564702" lon="11.4514425"><ele>9.0</ele><time>2026-05-05T15:43:44.255Z</time></trkpt><trkpt lat="44.6562398" lon="11.4512197"><ele>8.0</ele><time>2026-05-05T15:43:45.254Z</time></trkpt><trkpt lat="44.6560079" lon="11.4509989"><ele>8.0</ele><time>2026-05-05T15:43:46.254Z</time></trkpt><trkpt lat="44.6557786" lon="11.4507775"><ele>8.0</ele><time>2026-05-05T15:43:47.255Z</time></trkpt><trkpt lat="44.6555446" lon="11.4505509"><ele>8.5</ele><time>2026-05-05T15:43:48.254Z</time></trkpt><trkpt lat="44.655316" lon="11.4503255"><ele>9.0</ele><time>2026-05-05T15:43:49.255Z</time></trkpt><trkpt lat="44.6550844" lon="11.4501044"><ele>9.0</ele><time>2026-05-05T15:43:50.254Z</time></trkpt><trkpt lat="44.6548478" lon="11.4498808"><ele>9.0</ele><time>2026-05-05T15:43:51.255Z</time></trkpt><trkpt lat="44.6546046" lon="11.44966"><ele>9.0</ele><time>2026-05-05T15:43:52.254Z</time></trkpt><trkpt lat="44.6543613" lon="11.4494357"><ele>9.0</ele><time>2026-05-05T15:43:53.255Z</time></trkpt><trkpt lat="44.6541183" lon="11.4492061"><ele>9.0</ele><time>2026-05-05T15:43:54.254Z</time></trkpt><trkpt lat="44.6538729" lon="11.4489732"><ele>9.0</ele><time>2026-05-05T15:43:55.255Z</time></trkpt><trkpt lat="44.6536299" lon="11.4487381"><ele>8.5</ele><time>2026-05-05T15:43:56.255Z</time></trkpt><trkpt lat="44.6533802" lon="11.4484982"><ele>8.0</ele><time>2026-05-05T15:43:57.254Z</time></trkpt><trkpt lat="44.6531299" lon="11.4482578"><ele>8.0</ele><time>2026-05-05T15:43:58.255Z</time></trkpt><trkpt lat="44.6528728" lon="11.4480129"><ele>8.0</ele><time>2026-05-05T15:43:59.255Z</time></trkpt><trkpt lat="44.6526125" lon="11.4477605"><ele>8.5</ele><time>2026-05-05T15:44:00.255Z</time></trkpt><trkpt lat="44.6523526" lon="11.4475072"><ele>9.0</ele><time>2026-05-05T15:44:01.255Z</time></trkpt><trkpt lat="44.652091" lon="11.4472528"><ele>9.0</ele><time>2026-05-05T15:44:02.255Z</time></trkpt><trkpt lat="44.6518355" lon="11.4470024"><ele>9.0</ele><time>2026-05-05T15:44:03.254Z</time></trkpt><trkpt lat="44.6515788" lon="11.446753"><ele>9.0</ele><time>2026-05-05T15:44:04.255Z</time></trkpt><trkpt lat="44.6513241" lon="11.4465034"><ele>9.0</ele><time>2026-05-05T15:44:05.254Z</time></trkpt><trkpt lat="44.6510759" lon="11.4462624"><ele>9.5</ele><time>2026-05-05T15:44:06.254Z</time></trkpt><trkpt lat="44.6508325" lon="11.446023"><ele>10.0</ele><time>2026-05-05T15:44:07.255Z</time></trkpt><trkpt lat="44.6505892" lon="11.4457814"><ele>10.0</ele><time>2026-05-05T15:44:08.254Z</time></trkpt><trkpt lat="44.6503491" lon="11.4455437"><ele>10.0</ele><time>2026-05-05T15:44:09.255Z</time></trkpt><trkpt lat="44.6501051" lon="11.4453018"><ele>9.0</ele><time>2026-05-05T15:44:10.254Z</time></trkpt><trkpt lat="44.6498662" lon="11.445069"><ele>8.0</ele><time>2026-05-05T15:44:11.254Z</time></trkpt><trkpt lat="44.6496295" lon="11.4448404"><ele>8.5</ele><time>2026-05-05T15:44:12.255Z</time></trkpt><trkpt lat="44.649388" lon="11.4446042"><ele>9.0</ele><time>2026-05-05T15:44:13.255Z</time></trkpt><trkpt lat="44.6491494" lon="11.4443755"><ele>9.0</ele><time>2026-05-05T15:44:14.255Z</time></trkpt><trkpt lat="44.6489136" lon="11.4441487"><ele>9.0</ele><time>2026-05-05T15:44:15.254Z</time></trkpt><trkpt lat="44.6486811" lon="11.443919"><ele>9.5</ele><time>2026-05-05T15:44:16.255Z</time></trkpt><trkpt lat="44.6484498" lon="11.4436835"><ele>10.0</ele><time>2026-05-05T15:44:17.255Z</time></trkpt><trkpt lat="44.6482149" lon="11.4434466"><ele>10.0</ele><time>2026-05-05T15:44:18.255Z</time></trkpt><trkpt lat="44.6479805" lon="11.4432076"><ele>10.0</ele><time>2026-05-05T15:44:19.255Z</time></trkpt><trkpt lat="44.6477442" lon="11.4429683"><ele>9.0</ele><time>2026-05-05T15:44:20.255Z</time></trkpt><trkpt lat="44.6475045" lon="11.4427315"><ele>8.0</ele><time>2026-05-05T15:44:21.255Z</time></trkpt><trkpt lat="44.6472669" lon="11.4425011"><ele>8.0</ele><time>2026-05-05T15:44:22.255Z</time></trkpt><trkpt lat="44.6470332" lon="11.4422682"><ele>8.0</ele><time>2026-05-05T15:44:23.255Z</time></trkpt><trkpt lat="44.6467927" lon="11.442028"><ele>8.5</ele><time>2026-05-05T15:44:24.255Z</time></trkpt><trkpt lat="44.6465606" lon="11.4417961"><ele>9.0</ele><time>2026-05-05T15:44:25.255Z</time></trkpt><trkpt lat="44.6463249" lon="11.4415678"><ele>9.5</ele><time>2026-05-05T15:44:26.255Z</time></trkpt><trkpt lat="44.6460908" lon="11.4413399"><ele>10.0</ele><time>2026-05-05T15:44:27.255Z</time></trkpt><trkpt lat="44.6458557" lon="11.4411136"><ele>10.5</ele><time>2026-05-05T15:44:28.254Z</time></trkpt><trkpt lat="44.645622" lon="11.4408853"><ele>11.0</ele><time>2026-05-05T15:44:29.255Z</time></trkpt><trkpt lat="44.6453858" lon="11.4406528"><ele>10.5</ele><time>2026-05-05T15:44:30.254Z</time></trkpt><trkpt lat="44.645151" lon="11.4404234"><ele>10.0</ele><time>2026-05-05T15:44:31.255Z</time></trkpt><trkpt lat="44.6449143" lon="11.4401948"><ele>10.0</ele><time>2026-05-05T15:44:32.255Z</time></trkpt><trkpt lat="44.6446781" lon="11.4399711"><ele>10.0</ele><time>2026-05-05T15:44:33.255Z</time></trkpt><trkpt lat="44.6444437" lon="11.4397434"><ele>10.5</ele><time>2026-05-05T15:44:34.255Z</time></trkpt><trkpt lat="44.6442082" lon="11.4395187"><ele>11.0</ele><time>2026-05-05T15:44:35.254Z</time></trkpt><trkpt lat="44.6439751" lon="11.4392938"><ele>11.0</ele><time>2026-05-05T15:44:36.255Z</time></trkpt><trkpt lat="44.6437418" lon="11.4390674"><ele>11.0</ele><time>2026-05-05T15:44:37.255Z</time></trkpt><trkpt lat="44.6435042" lon="11.4388355"><ele>10.0</ele><time>2026-05-05T15:44:38.254Z</time></trkpt><trkpt lat="44.6432694" lon="11.4386036"><ele>9.0</ele><time>2026-05-05T15:44:39.255Z</time></trkpt><trkpt lat="44.6430354" lon="11.438376"><ele>9.0</ele><time>2026-05-05T15:44:40.254Z</time></trkpt><trkpt lat="44.6428004" lon="11.4381484"><ele>9.0</ele><time>2026-05-05T15:44:41.254Z</time></trkpt><trkpt lat="44.6425643" lon="11.4379336"><ele>9.5</ele><time>2026-05-05T15:44:42.255Z</time></trkpt><trkpt lat="44.6423259" lon="11.4377135"><ele>10.0</ele><time>2026-05-05T15:44:43.255Z</time></trkpt><trkpt lat="44.6420894" lon="11.4375029"><ele>10.0</ele><time>2026-05-05T15:44:44.255Z</time></trkpt><trkpt lat="44.6418549" lon="11.4372835"><ele>10.0</ele><time>2026-05-05T15:44:45.254Z</time></trkpt><trkpt lat="44.6416113" lon="11.4370606"><ele>9.5</ele><time>2026-05-05T15:44:46.255Z</time></trkpt><trkpt lat="44.6413686" lon="11.4368378"><ele>9.0</ele><time>2026-05-05T15:44:47.254Z</time></trkpt><trkpt lat="44.6411268" lon="11.4366226"><ele>8.5</ele><time>2026-05-05T15:44:48.254Z</time></trkpt><trkpt lat="44.6408828" lon="11.436402"><ele>8.0</ele><time>2026-05-05T15:44:49.254Z</time></trkpt><trkpt lat="44.6406393" lon="11.4361867"><ele>8.0</ele><time>2026-05-05T15:44:50.255Z</time></trkpt><trkpt lat="44.6403956" lon="11.4359723"><ele>8.0</ele><time>2026-05-05T15:44:51.255Z</time></trkpt><trkpt lat="44.6401526" lon="11.435758"><ele>8.0</ele><time>2026-05-05T15:44:52.255Z</time></trkpt><trkpt lat="44.6399057" lon="11.4355389"><ele>8.0</ele><time>2026-05-05T15:44:53.255Z</time></trkpt><trkpt lat="44.6396622" lon="11.4353242"><ele>9.0</ele><time>2026-05-05T15:44:54.255Z</time></trkpt><trkpt lat="44.6394189" lon="11.4351121"><ele>10.0</ele><time>2026-05-05T15:44:55.255Z</time></trkpt><trkpt lat="44.6391744" lon="11.4348929"><ele>10.0</ele><time>2026-05-05T15:44:56.255Z</time></trkpt><trkpt lat="44.6389309" lon="11.4346819"><ele>10.0</ele><time>2026-05-05T15:44:57.254Z</time></trkpt><trkpt lat="44.638685" lon="11.4344634"><ele>10.5</ele><time>2026-05-05T15:44:58.254Z</time></trkpt><trkpt lat="44.6384372" lon="11.4342416"><ele>11.0</ele><time>2026-05-05T15:44:59.254Z</time></trkpt><trkpt lat="44.6381926" lon="11.4340301"><ele>11.0</ele><time>2026-05-05T15:45:00.255Z</time></trkpt><trkpt lat="44.6379476" lon="11.4338117"><ele>11.0</ele><time>2026-05-05T15:45:01.254Z</time></trkpt><trkpt lat="44.6377072" lon="11.4335942"><ele>12.0</ele><time>2026-05-05T15:45:02.254Z</time></trkpt><trkpt lat="44.637463" lon="11.43338"><ele>13.0</ele><time>2026-05-05T15:45:03.255Z</time></trkpt><trkpt lat="44.6372157" lon="11.433164"><ele>12.0</ele><time>2026-05-05T15:45:04.255Z</time></trkpt><trkpt lat="44.6369734" lon="11.4329534"><ele>11.0</ele><time>2026-05-05T15:45:05.255Z</time></trkpt><trkpt lat="44.6367291" lon="11.4327374"><ele>11.0</ele><time>2026-05-05T15:45:06.255Z</time></trkpt><trkpt lat="44.6364856" lon="11.4325224"><ele>11.0</ele><time>2026-05-05T15:45:07.255Z</time></trkpt><trkpt lat="44.6341938" lon="11.4305128"><ele>14.0</ele><time>2026-05-05T15:45:17.041Z</time></trkpt><trkpt lat="44.6337223" lon="11.4300857"><ele>13.5</ele><time>2026-05-05T15:45:18.461Z</time></trkpt><trkpt lat="44.6334621" lon="11.4298777"><ele>13.0</ele><time>2026-05-05T15:45:19.461Z</time></trkpt><trkpt lat="44.6332661" lon="11.429698"><ele>12.5</ele><time>2026-05-05T15:45:20.254Z</time></trkpt><trkpt lat="44.6330199" lon="11.4294829"><ele>12.0</ele><time>2026-05-05T15:45:21.254Z</time></trkpt><trkpt lat="44.632796" lon="11.4292756"><ele>12.0</ele><time>2026-05-05T15:45:22.255Z</time></trkpt><trkpt lat="44.6325488" lon="11.4290668"><ele>12.0</ele><time>2026-05-05T15:45:23.255Z</time></trkpt><trkpt lat="44.6322993" lon="11.4288564"><ele>13.0</ele><time>2026-05-05T15:45:24.255Z</time></trkpt><trkpt lat="44.6320499" lon="11.4286445"><ele>14.0</ele><time>2026-05-05T15:45:25.255Z</time></trkpt><trkpt lat="44.6318008" lon="11.4284301"><ele>14.0</ele><time>2026-05-05T15:45:26.254Z</time></trkpt><trkpt lat="44.6315537" lon="11.4282154"><ele>14.0</ele><time>2026-05-05T15:45:27.254Z</time></trkpt><trkpt lat="44.6313068" lon="11.428002"><ele>12.5</ele><time>2026-05-05T15:45:28.255Z</time></trkpt><trkpt lat="44.6310601" lon="11.4277872"><ele>11.0</ele><time>2026-05-05T15:45:29.255Z</time></trkpt><trkpt lat="44.6308149" lon="11.4275718"><ele>11.0</ele><time>2026-05-05T15:45:30.254Z</time></trkpt><trkpt lat="44.6305682" lon="11.4273546"><ele>11.0</ele><time>2026-05-05T15:45:31.254Z</time></trkpt><trkpt lat="44.6303224" lon="11.4271378"><ele>11.5</ele><time>2026-05-05T15:45:32.255Z</time></trkpt><trkpt lat="44.630075" lon="11.42692"><ele>12.0</ele><time>2026-05-05T15:45:33.255Z</time></trkpt><trkpt lat="44.6298282" lon="11.4267023"><ele>12.0</ele><time>2026-05-05T15:45:34.254Z</time></trkpt><trkpt lat="44.6295811" lon="11.4264846"><ele>12.0</ele><time>2026-05-05T15:45:35.254Z</time></trkpt><trkpt lat="44.6293338" lon="11.426267"><ele>12.5</ele><time>2026-05-05T15:45:36.255Z</time></trkpt><trkpt lat="44.6290848" lon="11.4260499"><ele>13.0</ele><time>2026-05-05T15:45:37.255Z</time></trkpt><trkpt lat="44.6288363" lon="11.4258322"><ele>13.0</ele><time>2026-05-05T15:45:38.255Z</time></trkpt><trkpt lat="44.6285884" lon="11.4256151"><ele>13.0</ele><time>2026-05-05T15:45:39.254Z</time></trkpt><trkpt lat="44.628341" lon="11.4253986"><ele>13.5</ele><time>2026-05-05T15:45:40.254Z</time></trkpt><trkpt lat="44.6280933" lon="11.4251825"><ele>14.0</ele><time>2026-05-05T15:45:41.254Z</time></trkpt><trkpt lat="44.6278474" lon="11.424965"><ele>14.0</ele><time>2026-05-05T15:45:42.255Z</time></trkpt><trkpt lat="44.6276026" lon="11.4247484"><ele>14.0</ele><time>2026-05-05T15:45:43.255Z</time></trkpt><trkpt lat="44.6273598" lon="11.4245309"><ele>14.0</ele><time>2026-05-05T15:45:44.254Z</time></trkpt><trkpt lat="44.6271172" lon="11.4243138"><ele>14.0</ele><time>2026-05-05T15:45:45.254Z</time></trkpt><trkpt lat="44.6268752" lon="11.4240995"><ele>14.0</ele><time>2026-05-05T15:45:46.255Z</time></trkpt><trkpt lat="44.6266334" lon="11.4238853"><ele>14.0</ele><time>2026-05-05T15:45:47.255Z</time></trkpt><trkpt lat="44.6263914" lon="11.4236734"><ele>14.0</ele><time>2026-05-05T15:45:48.255Z</time></trkpt><trkpt lat="44.6261499" lon="11.4234615"><ele>14.0</ele><time>2026-05-05T15:45:49.255Z</time></trkpt><trkpt lat="44.6259088" lon="11.4232473"><ele>14.5</ele><time>2026-05-05T15:45:50.255Z</time></trkpt><trkpt lat="44.6256671" lon="11.4230294"><ele>15.0</ele><time>2026-05-05T15:45:51.255Z</time></trkpt><trkpt lat="44.6254284" lon="11.4228179"><ele>15.0</ele><time>2026-05-05T15:45:52.255Z</time></trkpt><trkpt lat="44.6251905" lon="11.4226089"><ele>15.0</ele><time>2026-05-05T15:45:53.255Z</time></trkpt><trkpt lat="44.6249532" lon="11.4223977"><ele>15.0</ele><time>2026-05-05T15:45:54.254Z</time></trkpt><trkpt lat="44.6247156" lon="11.4221849"><ele>15.0</ele><time>2026-05-05T15:45:55.255Z</time></trkpt><trkpt lat="44.6244775" lon="11.4219718"><ele>16.5</ele><time>2026-05-05T15:45:56.254Z</time></trkpt><trkpt lat="44.624238" lon="11.4217608"><ele>18.0</ele><time>2026-05-05T15:45:57.254Z</time></trkpt><trkpt lat="44.6239985" lon="11.4215495"><ele>18.0</ele><time>2026-05-05T15:45:58.255Z</time></trkpt><trkpt lat="44.6237587" lon="11.4213389"><ele>18.0</ele><time>2026-05-05T15:45:59.254Z</time></trkpt><trkpt lat="44.6235169" lon="11.4211262"><ele>17.0</ele><time>2026-05-05T15:46:00.255Z</time></trkpt><trkpt lat="44.623277" lon="11.4209121"><ele>16.0</ele><time>2026-05-05T15:46:01.255Z</time></trkpt><trkpt lat="44.6230355" lon="11.4206982"><ele>15.5</ele><time>2026-05-05T15:46:02.255Z</time></trkpt><trkpt lat="44.6227937" lon="11.4204823"><ele>15.0</ele><time>2026-05-05T15:46:03.255Z</time></trkpt><trkpt lat="44.6225556" lon="11.4202597"><ele>15.0</ele><time>2026-05-05T15:46:04.255Z</time></trkpt><trkpt lat="44.6223184" lon="11.4200366"><ele>15.0</ele><time>2026-05-05T15:46:05.255Z</time></trkpt><trkpt lat="44.6220819" lon="11.4198206"><ele>16.0</ele><time>2026-05-05T15:46:06.255Z</time></trkpt><trkpt lat="44.621844" lon="11.4196063"><ele>17.0</ele><time>2026-05-05T15:46:07.255Z</time></trkpt><trkpt lat="44.6216023" lon="11.4193953"><ele>17.0</ele><time>2026-05-05T15:46:08.255Z</time></trkpt><trkpt lat="44.6213615" lon="11.4191905"><ele>17.0</ele><time>2026-05-05T15:46:09.255Z</time></trkpt><trkpt lat="44.6211144" lon="11.4189903"><ele>16.5</ele><time>2026-05-05T15:46:10.254Z</time></trkpt><trkpt lat="44.6208623" lon="11.4187974"><ele>16.0</ele><time>2026-05-05T15:46:11.255Z</time></trkpt><trkpt lat="44.6206068" lon="11.4186137"><ele>16.0</ele><time>2026-05-05T15:46:12.254Z</time></trkpt><trkpt lat="44.6203493" lon="11.4184317"><ele>16.0</ele><time>2026-05-05T15:46:13.255Z</time></trkpt><trkpt lat="44.6200896" lon="11.418248"><ele>16.0</ele><time>2026-05-05T15:46:14.255Z</time></trkpt><trkpt lat="44.6198293" lon="11.4180708"><ele>16.0</ele><time>2026-05-05T15:46:15.255Z</time></trkpt><trkpt lat="44.6195692" lon="11.417893"><ele>14.5</ele><time>2026-05-05T15:46:16.255Z</time></trkpt><trkpt lat="44.6193105" lon="11.4177192"><ele>13.0</ele><time>2026-05-05T15:46:17.254Z</time></trkpt><trkpt lat="44.6190503" lon="11.417549"><ele>13.0</ele><time>2026-05-05T15:46:18.254Z</time></trkpt><trkpt lat="44.6187916" lon="11.4173856"><ele>13.0</ele><time>2026-05-05T15:46:19.254Z</time></trkpt><trkpt lat="44.6185295" lon="11.4172274"><ele>12.5</ele><time>2026-05-05T15:46:20.255Z</time></trkpt><trkpt lat="44.6182669" lon="11.4170674"><ele>12.0</ele><time>2026-05-05T15:46:21.254Z</time></trkpt><trkpt lat="44.6180027" lon="11.4169104"><ele>13.0</ele><time>2026-05-05T15:46:22.254Z</time></trkpt><trkpt lat="44.6177393" lon="11.4167536"><ele>14.0</ele><time>2026-05-05T15:46:23.255Z</time></trkpt><trkpt lat="44.6174763" lon="11.4165938"><ele>14.0</ele><time>2026-05-05T15:46:24.254Z</time></trkpt><trkpt lat="44.6172152" lon="11.4164377"><ele>14.0</ele><time>2026-05-05T15:46:25.254Z</time></trkpt><trkpt lat="44.6169527" lon="11.4162823"><ele>14.0</ele><time>2026-05-05T15:46:26.254Z</time></trkpt><trkpt lat="44.6166878" lon="11.4161317"><ele>14.0</ele><time>2026-05-05T15:46:27.255Z</time></trkpt><trkpt lat="44.6164229" lon="11.4159766"><ele>14.0</ele><time>2026-05-05T15:46:28.254Z</time></trkpt><trkpt lat="44.6161601" lon="11.4158211"><ele>14.0</ele><time>2026-05-05T15:46:29.255Z</time></trkpt><trkpt lat="44.6158986" lon="11.4156644"><ele>14.0</ele><time>2026-05-05T15:46:30.254Z</time></trkpt><trkpt lat="44.6156305" lon="11.4155043"><ele>14.0</ele><time>2026-05-05T15:46:31.255Z</time></trkpt><trkpt lat="44.615366" lon="11.4153541"><ele>14.5</ele><time>2026-05-05T15:46:32.254Z</time></trkpt><trkpt lat="44.6151002" lon="11.4151921"><ele>15.0</ele><time>2026-05-05T15:46:33.255Z</time></trkpt><trkpt lat="44.614836" lon="11.4150293"><ele>15.0</ele><time>2026-05-05T15:46:34.255Z</time></trkpt><trkpt lat="44.6145708" lon="11.4148738"><ele>15.0</ele><time>2026-05-05T15:46:35.254Z</time></trkpt><trkpt lat="44.6143063" lon="11.4147204"><ele>14.5</ele><time>2026-05-05T15:46:36.254Z</time></trkpt><trkpt lat="44.6140403" lon="11.414563"><ele>14.0</ele><time>2026-05-05T15:46:37.254Z</time></trkpt><trkpt lat="44.6137783" lon="11.4144017"><ele>15.5</ele><time>2026-05-05T15:46:38.254Z</time></trkpt><trkpt lat="44.6135141" lon="11.4142475"><ele>17.0</ele><time>2026-05-05T15:46:39.254Z</time></trkpt><trkpt lat="44.6132512" lon="11.4140923"><ele>17.0</ele><time>2026-05-05T15:46:40.255Z</time></trkpt><trkpt lat="44.6129927" lon="11.4139406"><ele>17.0</ele><time>2026-05-05T15:46:41.255Z</time></trkpt><trkpt lat="44.6127323" lon="11.413784"><ele>15.5</ele><time>2026-05-05T15:46:42.254Z</time></trkpt><trkpt lat="44.6124741" lon="11.4136288"><ele>14.0</ele><time>2026-05-05T15:46:43.255Z</time></trkpt><trkpt lat="44.6122108" lon="11.413479"><ele>14.5</ele><time>2026-05-05T15:46:44.254Z</time></trkpt><trkpt lat="44.6119455" lon="11.4133263"><ele>15.0</ele><time>2026-05-05T15:46:45.254Z</time></trkpt><trkpt lat="44.6116786" lon="11.4131719"><ele>15.0</ele><time>2026-05-05T15:46:46.255Z</time></trkpt><trkpt lat="44.6114163" lon="11.4130162"><ele>15.0</ele><time>2026-05-05T15:46:47.255Z</time></trkpt><trkpt lat="44.6111548" lon="11.4128584"><ele>16.0</ele><time>2026-05-05T15:46:48.254Z</time></trkpt><trkpt lat="44.6108907" lon="11.4127023"><ele>17.0</ele><time>2026-05-05T15:46:49.255Z</time></trkpt><trkpt lat="44.6106266" lon="11.4125415"><ele>17.0</ele><time>2026-05-05T15:46:50.255Z</time></trkpt><trkpt lat="44.6103603" lon="11.4123802"><ele>17.0</ele><time>2026-05-05T15:46:51.255Z</time></trkpt><trkpt lat="44.610092" lon="11.4122104"><ele>16.5</ele><time>2026-05-05T15:46:52.255Z</time></trkpt><trkpt lat="44.6098278" lon="11.4120506"><ele>16.0</ele><time>2026-05-05T15:46:53.255Z</time></trkpt><trkpt lat="44.6095622" lon="11.4118906"><ele>16.0</ele><time>2026-05-05T15:46:54.255Z</time></trkpt><trkpt lat="44.6092955" lon="11.411728"><ele>16.0</ele><time>2026-05-05T15:46:55.254Z</time></trkpt><trkpt lat="44.6090294" lon="11.4115753"><ele>16.0</ele><time>2026-05-05T15:46:56.255Z</time></trkpt><trkpt lat="44.6087613" lon="11.4114088"><ele>16.0</ele><time>2026-05-05T15:46:57.254Z</time></trkpt><trkpt lat="44.6084944" lon="11.4112521"><ele>16.0</ele><time>2026-05-05T15:46:58.255Z</time></trkpt><trkpt lat="44.6082309" lon="11.4110907"><ele>16.0</ele><time>2026-05-05T15:46:59.255Z</time></trkpt><trkpt lat="44.6079661" lon="11.4109295"><ele>16.0</ele><time>2026-05-05T15:47:00.254Z</time></trkpt><trkpt lat="44.6076994" lon="11.4107662"><ele>16.0</ele><time>2026-05-05T15:47:01.254Z</time></trkpt><trkpt lat="44.6074345" lon="11.4106103"><ele>16.0</ele><time>2026-05-05T15:47:02.255Z</time></trkpt><trkpt lat="44.6071776" lon="11.4104551"><ele>16.0</ele><time>2026-05-05T15:47:03.255Z</time></trkpt><trkpt lat="44.6069155" lon="11.4103038"><ele>17.5</ele><time>2026-05-05T15:47:04.255Z</time></trkpt><trkpt lat="44.6066526" lon="11.4101446"><ele>19.0</ele><time>2026-05-05T15:47:05.255Z</time></trkpt><trkpt lat="44.6063927" lon="11.4099785"><ele>18.0</ele><time>2026-05-05T15:47:06.255Z</time></trkpt><trkpt lat="44.6061358" lon="11.4098095"><ele>17.0</ele><time>2026-05-05T15:47:07.255Z</time></trkpt><trkpt lat="44.6058809" lon="11.4096408"><ele>16.0</ele><time>2026-05-05T15:47:08.255Z</time></trkpt><trkpt lat="44.6056253" lon="11.409485"><ele>15.0</ele><time>2026-05-05T15:47:09.255Z</time></trkpt><trkpt lat="44.6053718" lon="11.409324"><ele>15.5</ele><time>2026-05-05T15:47:10.255Z</time></trkpt><trkpt lat="44.6051202" lon="11.4091578"><ele>16.0</ele><time>2026-05-05T15:47:11.255Z</time></trkpt><trkpt lat="44.6048676" lon="11.4089977"><ele>16.0</ele><time>2026-05-05T15:47:12.255Z</time></trkpt><trkpt lat="44.6046154" lon="11.4088303"><ele>16.0</ele><time>2026-05-05T15:47:13.255Z</time></trkpt><trkpt lat="44.6043657" lon="11.4086639"><ele>16.5</ele><time>2026-05-05T15:47:14.255Z</time></trkpt><trkpt lat="44.6041137" lon="11.4084986"><ele>17.0</ele><time>2026-05-05T15:47:15.255Z</time></trkpt><trkpt lat="44.6038639" lon="11.4083364"><ele>17.5</ele><time>2026-05-05T15:47:16.255Z</time></trkpt><trkpt lat="44.6036137" lon="11.4081716"><ele>18.0</ele><time>2026-05-05T15:47:17.255Z</time></trkpt><trkpt lat="44.6033675" lon="11.4080104"><ele>18.5</ele><time>2026-05-05T15:47:18.254Z</time></trkpt><trkpt lat="44.6031219" lon="11.4078527"><ele>19.0</ele><time>2026-05-05T15:47:19.255Z</time></trkpt><trkpt lat="44.6028746" lon="11.4076867"><ele>19.5</ele><time>2026-05-05T15:47:20.254Z</time></trkpt><trkpt lat="44.6026243" lon="11.4075149"><ele>20.0</ele><time>2026-05-05T15:47:21.255Z</time></trkpt><trkpt lat="44.6023747" lon="11.4073456"><ele>20.0</ele><time>2026-05-05T15:47:22.255Z</time></trkpt><trkpt lat="44.6021296" lon="11.4071898"><ele>20.0</ele><time>2026-05-05T15:47:23.255Z</time></trkpt><trkpt lat="44.6018817" lon="11.4070242"><ele>19.5</ele><time>2026-05-05T15:47:24.255Z</time></trkpt><trkpt lat="44.6016342" lon="11.4068624"><ele>19.0</ele><time>2026-05-05T15:47:25.255Z</time></trkpt><trkpt lat="44.6013867" lon="11.4067024"><ele>18.5</ele><time>2026-05-05T15:47:26.254Z</time></trkpt><trkpt lat="44.6011387" lon="11.4065366"><ele>18.0</ele><time>2026-05-05T15:47:27.255Z</time></trkpt><trkpt lat="44.6008927" lon="11.4063746"><ele>17.5</ele><time>2026-05-05T15:47:28.254Z</time></trkpt><trkpt lat="44.6006451" lon="11.4062143"><ele>17.0</ele><time>2026-05-05T15:47:29.255Z</time></trkpt><trkpt lat="44.6003966" lon="11.4060598"><ele>17.5</ele><time>2026-05-05T15:47:30.255Z</time></trkpt><trkpt lat="44.6001509" lon="11.4059003"><ele>18.0</ele><time>2026-05-05T15:47:31.254Z</time></trkpt><trkpt lat="44.5999067" lon="11.4057375"><ele>18.0</ele><time>2026-05-05T15:47:32.255Z</time></trkpt><trkpt lat="44.5996592" lon="11.405573"><ele>18.0</ele><time>2026-05-05T15:47:33.255Z</time></trkpt><trkpt lat="44.5994145" lon="11.4054162"><ele>18.0</ele><time>2026-05-05T15:47:34.255Z</time></trkpt><trkpt lat="44.5991685" lon="11.4052587"><ele>18.0</ele><time>2026-05-05T15:47:35.255Z</time></trkpt><trkpt lat="44.5989265" lon="11.4050973"><ele>18.0</ele><time>2026-05-05T15:47:36.255Z</time></trkpt><trkpt lat="44.598689" lon="11.4049307"><ele>18.0</ele><time>2026-05-05T15:47:37.255Z</time></trkpt><trkpt lat="44.5984531" lon="11.4047623"><ele>19.0</ele><time>2026-05-05T15:47:38.255Z</time></trkpt><trkpt lat="44.5982223" lon="11.4045935"><ele>20.0</ele><time>2026-05-05T15:47:39.254Z</time></trkpt><trkpt lat="44.5979889" lon="11.4044403"><ele>20.0</ele><time>2026-05-05T15:47:40.255Z</time></trkpt><trkpt lat="44.5977532" lon="11.4042854"><ele>20.0</ele><time>2026-05-05T15:47:41.255Z</time></trkpt><trkpt lat="44.5975247" lon="11.4041239"><ele>20.0</ele><time>2026-05-05T15:47:42.255Z</time></trkpt><trkpt lat="44.5972918" lon="11.403968"><ele>20.0</ele><time>2026-05-05T15:47:43.255Z</time></trkpt><trkpt lat="44.5970621" lon="11.4038104"><ele>20.0</ele><time>2026-05-05T15:47:44.255Z</time></trkpt><trkpt lat="44.5968302" lon="11.4036634"><ele>20.0</ele><time>2026-05-05T15:47:45.254Z</time></trkpt><trkpt lat="44.5965988" lon="11.4035108"><ele>20.0</ele><time>2026-05-05T15:47:46.255Z</time></trkpt><trkpt lat="44.5963741" lon="11.4033637"><ele>20.0</ele><time>2026-05-05T15:47:47.255Z</time></trkpt><trkpt lat="44.5961502" lon="11.403222"><ele>20.0</ele><time>2026-05-05T15:47:48.255Z</time></trkpt><trkpt lat="44.5959219" lon="11.4030596"><ele>20.0</ele><time>2026-05-05T15:47:49.255Z</time></trkpt><trkpt lat="44.595695" lon="11.40291"><ele>20.0</ele><time>2026-05-05T15:47:50.254Z</time></trkpt><trkpt lat="44.5954694" lon="11.4027597"><ele>20.0</ele><time>2026-05-05T15:47:51.254Z</time></trkpt><trkpt lat="44.5952479" lon="11.4026069"><ele>19.5</ele><time>2026-05-05T15:47:52.255Z</time></trkpt><trkpt lat="44.5950173" lon="11.4024678"><ele>19.0</ele><time>2026-05-05T15:47:53.255Z</time></trkpt><trkpt lat="44.5947802" lon="11.402322"><ele>19.0</ele><time>2026-05-05T15:47:54.255Z</time></trkpt><trkpt lat="44.5945465" lon="11.4021774"><ele>19.0</ele><time>2026-05-05T15:47:55.255Z</time></trkpt><trkpt lat="44.5943073" lon="11.4020283"><ele>19.5</ele><time>2026-05-05T15:47:56.254Z</time></trkpt><trkpt lat="44.594072" lon="11.4018772"><ele>20.0</ele><time>2026-05-05T15:47:57.254Z</time></trkpt><trkpt lat="44.5938391" lon="11.4017254"><ele>20.5</ele><time>2026-05-05T15:47:58.255Z</time></trkpt><trkpt lat="44.5936056" lon="11.4015721"><ele>21.0</ele><time>2026-05-05T15:47:59.254Z</time></trkpt><trkpt lat="44.5933674" lon="11.4014166"><ele>20.5</ele><time>2026-05-05T15:48:00.255Z</time></trkpt><trkpt lat="44.5931279" lon="11.4012645"><ele>20.0</ele><time>2026-05-05T15:48:01.255Z</time></trkpt><trkpt lat="44.5928873" lon="11.4011072"><ele>20.0</ele><time>2026-05-05T15:48:02.254Z</time></trkpt><trkpt lat="44.5926451" lon="11.4009435"><ele>20.0</ele><time>2026-05-05T15:48:03.255Z</time></trkpt><trkpt lat="44.5924001" lon="11.4007868"><ele>20.0</ele><time>2026-05-05T15:48:04.255Z</time></trkpt><trkpt lat="44.5921575" lon="11.4006252"><ele>20.0</ele><time>2026-05-05T15:48:05.255Z</time></trkpt><trkpt lat="44.5919178" lon="11.4004607"><ele>21.0</ele><time>2026-05-05T15:48:06.255Z</time></trkpt><trkpt lat="44.5916722" lon="11.4003045"><ele>22.0</ele><time>2026-05-05T15:48:07.254Z</time></trkpt><trkpt lat="44.5914316" lon="11.4001435"><ele>22.0</ele><time>2026-05-05T15:48:08.254Z</time></trkpt><trkpt lat="44.5911864" lon="11.3999844"><ele>22.0</ele><time>2026-05-05T15:48:09.254Z</time></trkpt><trkpt lat="44.590945" lon="11.3998214"><ele>22.0</ele><time>2026-05-05T15:48:10.255Z</time></trkpt><trkpt lat="44.5907021" lon="11.3996574"><ele>22.0</ele><time>2026-05-05T15:48:11.255Z</time></trkpt><trkpt lat="44.5904489" lon="11.3994916"><ele>21.5</ele><time>2026-05-05T15:48:12.255Z</time></trkpt><trkpt lat="44.590194" lon="11.3993295"><ele>21.0</ele><time>2026-05-05T15:48:13.255Z</time></trkpt><trkpt lat="44.5899337" lon="11.3991607"><ele>21.0</ele><time>2026-05-05T15:48:14.255Z</time></trkpt><trkpt lat="44.5896697" lon="11.3989821"><ele>21.0</ele><time>2026-05-05T15:48:15.254Z</time></trkpt><trkpt lat="44.5893955" lon="11.3988012"><ele>21.0</ele><time>2026-05-05T15:48:16.254Z</time></trkpt><trkpt lat="44.5891139" lon="11.398612"><ele>21.0</ele><time>2026-05-05T15:48:17.254Z</time></trkpt><trkpt lat="44.588831" lon="11.3984314"><ele>21.0</ele><time>2026-05-05T15:48:18.255Z</time></trkpt><trkpt lat="44.5885436" lon="11.3982392"><ele>21.0</ele><time>2026-05-05T15:48:19.254Z</time></trkpt><trkpt lat="44.588254" lon="11.3980524"><ele>20.5</ele><time>2026-05-05T15:48:20.254Z</time></trkpt><trkpt lat="44.5879621" lon="11.3978625"><ele>20.0</ele><time>2026-05-05T15:48:21.255Z</time></trkpt><trkpt lat="44.5876653" lon="11.397673"><ele>21.0</ele><time>2026-05-05T15:48:22.255Z</time></trkpt><trkpt lat="44.5873688" lon="11.3974706"><ele>22.0</ele><time>2026-05-05T15:48:23.254Z</time></trkpt><trkpt lat="44.5870734" lon="11.397275"><ele>20.5</ele><time>2026-05-05T15:48:24.255Z</time></trkpt><trkpt lat="44.5867775" lon="11.3970787"><ele>19.0</ele><time>2026-05-05T15:48:25.254Z</time></trkpt><trkpt lat="44.5864822" lon="11.3968808"><ele>19.0</ele><time>2026-05-05T15:48:26.254Z</time></trkpt><trkpt lat="44.5861839" lon="11.3966814"><ele>19.0</ele><time>2026-05-05T15:48:27.255Z</time></trkpt><trkpt lat="44.585889" lon="11.3964916"><ele>19.5</ele><time>2026-05-05T15:48:28.255Z</time></trkpt><trkpt lat="44.5855999" lon="11.3963023"><ele>20.0</ele><time>2026-05-05T15:48:29.255Z</time></trkpt><trkpt lat="44.585317" lon="11.396111"><ele>21.0</ele><time>2026-05-05T15:48:30.255Z</time></trkpt><trkpt lat="44.5850351" lon="11.3959174"><ele>22.0</ele><time>2026-05-05T15:48:31.255Z</time></trkpt><trkpt lat="44.5847584" lon="11.3957273"><ele>22.5</ele><time>2026-05-05T15:48:32.255Z</time></trkpt><trkpt lat="44.5844947" lon="11.3955412"><ele>23.0</ele><time>2026-05-05T15:48:33.254Z</time></trkpt><trkpt lat="44.5842267" lon="11.3953585"><ele>23.0</ele><time>2026-05-05T15:48:34.255Z</time></trkpt><trkpt lat="44.583965" lon="11.3951815"><ele>23.0</ele><time>2026-05-05T15:48:35.255Z</time></trkpt><trkpt lat="44.5837013" lon="11.3950021"><ele>23.5</ele><time>2026-05-05T15:48:36.255Z</time></trkpt><trkpt lat="44.5834452" lon="11.3948318"><ele>24.0</ele><time>2026-05-05T15:48:37.254Z</time></trkpt><trkpt lat="44.5831896" lon="11.3946643"><ele>24.0</ele><time>2026-05-05T15:48:38.255Z</time></trkpt><trkpt lat="44.5829353" lon="11.3945009"><ele>24.0</ele><time>2026-05-05T15:48:39.254Z</time></trkpt><trkpt lat="44.5826856" lon="11.3943333"><ele>23.0</ele><time>2026-05-05T15:48:40.254Z</time></trkpt><trkpt lat="44.582434" lon="11.3941688"><ele>22.0</ele><time>2026-05-05T15:48:41.254Z</time></trkpt><trkpt lat="44.5821852" lon="11.3940014"><ele>21.5</ele><time>2026-05-05T15:48:42.255Z</time></trkpt><trkpt lat="44.5819348" lon="11.3938398"><ele>21.0</ele><time>2026-05-05T15:48:43.255Z</time></trkpt><trkpt lat="44.5816789" lon="11.393677"><ele>21.0</ele><time>2026-05-05T15:48:44.255Z</time></trkpt><trkpt lat="44.5814268" lon="11.3935069"><ele>21.0</ele><time>2026-05-05T15:48:45.254Z</time></trkpt><trkpt lat="44.5811748" lon="11.3933408"><ele>20.5</ele><time>2026-05-05T15:48:46.255Z</time></trkpt><trkpt lat="44.5809205" lon="11.3931788"><ele>20.0</ele><time>2026-05-05T15:48:47.255Z</time></trkpt><trkpt lat="44.5806701" lon="11.3930141"><ele>19.5</ele><time>2026-05-05T15:48:48.254Z</time></trkpt><trkpt lat="44.5804167" lon="11.3928477"><ele>19.0</ele><time>2026-05-05T15:48:49.255Z</time></trkpt><trkpt lat="44.5801641" lon="11.3926858"><ele>20.0</ele><time>2026-05-05T15:48:50.255Z</time></trkpt><trkpt lat="44.5799117" lon="11.392522"><ele>21.0</ele><time>2026-05-05T15:48:51.254Z</time></trkpt><trkpt lat="44.5796591" lon="11.3923564"><ele>21.5</ele><time>2026-05-05T15:48:52.254Z</time></trkpt><trkpt lat="44.579406" lon="11.3921881"><ele>22.0</ele><time>2026-05-05T15:48:53.255Z</time></trkpt><trkpt lat="44.5791562" lon="11.3920186"><ele>21.0</ele><time>2026-05-05T15:48:54.254Z</time></trkpt><trkpt lat="44.5789071" lon="11.3918557"><ele>20.0</ele><time>2026-05-05T15:48:55.255Z</time></trkpt><trkpt lat="44.5786532" lon="11.3916876"><ele>20.0</ele><time>2026-05-05T15:48:56.255Z</time></trkpt><trkpt lat="44.5784032" lon="11.391526"><ele>20.0</ele><time>2026-05-05T15:48:57.254Z</time></trkpt><trkpt lat="44.578153" lon="11.3913636"><ele>20.0</ele><time>2026-05-05T15:48:58.255Z</time></trkpt><trkpt lat="44.5779024" lon="11.3911989"><ele>20.0</ele><time>2026-05-05T15:48:59.255Z</time></trkpt><trkpt lat="44.5776549" lon="11.3910271"><ele>20.5</ele><time>2026-05-05T15:49:00.255Z</time></trkpt><trkpt lat="44.5774031" lon="11.3908597"><ele>21.0</ele><time>2026-05-05T15:49:01.254Z</time></trkpt><trkpt lat="44.5771505" lon="11.390698"><ele>21.5</ele><time>2026-05-05T15:49:02.255Z</time></trkpt><trkpt lat="44.5768961" lon="11.3905316"><ele>22.0</ele><time>2026-05-05T15:49:03.255Z</time></trkpt><trkpt lat="44.576648" lon="11.390366"><ele>22.0</ele><time>2026-05-05T15:49:04.255Z</time></trkpt><trkpt lat="44.5763995" lon="11.3902045"><ele>22.0</ele><time>2026-05-05T15:49:05.254Z</time></trkpt><trkpt lat="44.5761524" lon="11.3900473"><ele>23.0</ele><time>2026-05-05T15:49:06.255Z</time></trkpt><trkpt lat="44.5759042" lon="11.3898803"><ele>24.0</ele><time>2026-05-05T15:49:07.255Z</time></trkpt><trkpt lat="44.5756529" lon="11.3897176"><ele>23.0</ele><time>2026-05-05T15:49:08.255Z</time></trkpt><trkpt lat="44.5753974" lon="11.3895579"><ele>22.0</ele><time>2026-05-05T15:49:09.254Z</time></trkpt><trkpt lat="44.5751453" lon="11.3893906"><ele>21.5</ele><time>2026-05-05T15:49:10.254Z</time></trkpt><trkpt lat="44.5748935" lon="11.3892223"><ele>21.0</ele><time>2026-05-05T15:49:11.255Z</time></trkpt><trkpt lat="44.574642" lon="11.3890576"><ele>21.0</ele><time>2026-05-05T15:49:12.255Z</time></trkpt><trkpt lat="44.57439" lon="11.3888872"><ele>21.0</ele><time>2026-05-05T15:49:13.255Z</time></trkpt><trkpt lat="44.5741404" lon="11.3887196"><ele>21.0</ele><time>2026-05-05T15:49:14.254Z</time></trkpt><trkpt lat="44.5738867" lon="11.3885504"><ele>21.0</ele><time>2026-05-05T15:49:15.254Z</time></trkpt><trkpt lat="44.573636" lon="11.3883818"><ele>21.5</ele><time>2026-05-05T15:49:16.255Z</time></trkpt><trkpt lat="44.5733934" lon="11.3882221"><ele>22.0</ele><time>2026-05-05T15:49:17.254Z</time></trkpt><trkpt lat="44.5731465" lon="11.3880635"><ele>22.0</ele><time>2026-05-05T15:49:18.255Z</time></trkpt><trkpt lat="44.5728957" lon="11.3878956"><ele>22.0</ele><time>2026-05-05T15:49:19.254Z</time></trkpt><trkpt lat="44.5726426" lon="11.3877318"><ele>22.0</ele><time>2026-05-05T15:49:20.254Z</time></trkpt><trkpt lat="44.5723977" lon="11.3875708"><ele>22.0</ele><time>2026-05-05T15:49:21.255Z</time></trkpt><trkpt lat="44.572151" lon="11.3874081"><ele>21.5</ele><time>2026-05-05T15:49:22.255Z</time></trkpt><trkpt lat="44.5719028" lon="11.3872473"><ele>21.0</ele><time>2026-05-05T15:49:23.254Z</time></trkpt><trkpt lat="44.5716587" lon="11.3870868"><ele>22.5</ele><time>2026-05-05T15:49:24.255Z</time></trkpt><trkpt lat="44.571419" lon="11.3869341"><ele>24.0</ele><time>2026-05-05T15:49:25.254Z</time></trkpt><trkpt lat="44.5711884" lon="11.3867797"><ele>24.5</ele><time>2026-05-05T15:49:26.255Z</time></trkpt><trkpt lat="44.5709616" lon="11.3866365"><ele>25.0</ele><time>2026-05-05T15:49:27.255Z</time></trkpt><trkpt lat="44.5707391" lon="11.3864878"><ele>24.5</ele><time>2026-05-05T15:49:28.255Z</time></trkpt><trkpt lat="44.5705189" lon="11.3863422"><ele>24.0</ele><time>2026-05-05T15:49:29.254Z</time></trkpt><trkpt lat="44.5703069" lon="11.3861983"><ele>24.0</ele><time>2026-05-05T15:49:30.255Z</time></trkpt><trkpt lat="44.5700961" lon="11.3860648"><ele>24.0</ele><time>2026-05-05T15:49:31.255Z</time></trkpt><trkpt lat="44.5698799" lon="11.3859245"><ele>24.0</ele><time>2026-05-05T15:49:32.254Z</time></trkpt><trkpt lat="44.5696716" lon="11.3857851"><ele>24.0</ele><time>2026-05-05T15:49:33.255Z</time></trkpt><trkpt lat="44.5694589" lon="11.3856435"><ele>23.0</ele><time>2026-05-05T15:49:34.255Z</time></trkpt><trkpt lat="44.5692483" lon="11.3855006"><ele>22.0</ele><time>2026-05-05T15:49:35.255Z</time></trkpt><trkpt lat="44.5690366" lon="11.3853632"><ele>22.0</ele><time>2026-05-05T15:49:36.255Z</time></trkpt><trkpt lat="44.5688196" lon="11.3852225"><ele>22.0</ele><time>2026-05-05T15:49:37.255Z</time></trkpt><trkpt lat="44.568608" lon="11.3850787"><ele>22.5</ele><time>2026-05-05T15:49:38.255Z</time></trkpt><trkpt lat="44.5683931" lon="11.384941"><ele>23.0</ele><time>2026-05-05T15:49:39.254Z</time></trkpt><trkpt lat="44.5681828" lon="11.3848058"><ele>23.0</ele><time>2026-05-05T15:49:40.255Z</time></trkpt><trkpt lat="44.5679692" lon="11.3846659"><ele>23.0</ele><time>2026-05-05T15:49:41.255Z</time></trkpt><trkpt lat="44.5677546" lon="11.3845287"><ele>23.0</ele><time>2026-05-05T15:49:42.255Z</time></trkpt><trkpt lat="44.5675463" lon="11.3843938"><ele>23.0</ele><time>2026-05-05T15:49:43.255Z</time></trkpt><trkpt lat="44.5673295" lon="11.3842475"><ele>23.0</ele><time>2026-05-05T15:49:44.255Z</time></trkpt><trkpt lat="44.567112" lon="11.3841066"><ele>23.0</ele><time>2026-05-05T15:49:45.255Z</time></trkpt><trkpt lat="44.5668951" lon="11.3839621"><ele>22.5</ele><time>2026-05-05T15:49:46.254Z</time></trkpt><trkpt lat="44.5666824" lon="11.3838231"><ele>22.0</ele><time>2026-05-05T15:49:47.255Z</time></trkpt><trkpt lat="44.5664706" lon="11.3836771"><ele>22.0</ele><time>2026-05-05T15:49:48.255Z</time></trkpt><trkpt lat="44.5662589" lon="11.3835274"><ele>22.0</ele><time>2026-05-05T15:49:49.254Z</time></trkpt><trkpt lat="44.566046" lon="11.3833849"><ele>22.5</ele><time>2026-05-05T15:49:50.255Z</time></trkpt><trkpt lat="44.5658281" lon="11.3832465"><ele>23.0</ele><time>2026-05-05T15:49:51.255Z</time></trkpt><trkpt lat="44.565613" lon="11.3831114"><ele>23.0</ele><time>2026-05-05T15:49:52.255Z</time></trkpt><trkpt lat="44.5653996" lon="11.3829712"><ele>23.0</ele><time>2026-05-05T15:49:53.255Z</time></trkpt><trkpt lat="44.5651824" lon="11.3828259"><ele>23.5</ele><time>2026-05-05T15:49:54.254Z</time></trkpt><trkpt lat="44.5649719" lon="11.3826864"><ele>24.0</ele><time>2026-05-05T15:49:55.255Z</time></trkpt><trkpt lat="44.5647525" lon="11.3825435"><ele>24.0</ele><time>2026-05-05T15:49:56.254Z</time></trkpt><trkpt lat="44.564534" lon="11.382396"><ele>24.0</ele><time>2026-05-05T15:49:57.255Z</time></trkpt><trkpt lat="44.5643117" lon="11.3822547"><ele>23.0</ele><time>2026-05-05T15:49:58.254Z</time></trkpt><trkpt lat="44.5640951" lon="11.3821133"><ele>22.0</ele><time>2026-05-05T15:49:59.254Z</time></trkpt><trkpt lat="44.5638813" lon="11.3819735"><ele>23.5</ele><time>2026-05-05T15:50:00.255Z</time></trkpt><trkpt lat="44.5636623" lon="11.3818341"><ele>25.0</ele><time>2026-05-05T15:50:01.255Z</time></trkpt><trkpt lat="44.5634412" lon="11.3816866"><ele>25.0</ele><time>2026-05-05T15:50:02.254Z</time></trkpt><trkpt lat="44.5632164" lon="11.3815404"><ele>25.0</ele><time>2026-05-05T15:50:03.255Z</time></trkpt><trkpt lat="44.5629957" lon="11.3813918"><ele>25.0</ele><time>2026-05-05T15:50:04.255Z</time></trkpt><trkpt lat="44.5627862" lon="11.3812451"><ele>25.0</ele><time>2026-05-05T15:50:05.255Z</time></trkpt><trkpt lat="44.5625681" lon="11.3811016"><ele>25.0</ele><time>2026-05-05T15:50:06.255Z</time></trkpt><trkpt lat="44.5623495" lon="11.3809576"><ele>25.0</ele><time>2026-05-05T15:50:07.255Z</time></trkpt><trkpt lat="44.5621291" lon="11.3808165"><ele>24.0</ele><time>2026-05-05T15:50:08.255Z</time></trkpt><trkpt lat="44.5619126" lon="11.3806715"><ele>23.0</ele><time>2026-05-05T15:50:09.254Z</time></trkpt><trkpt lat="44.5616923" lon="11.3805297"><ele>25.5</ele><time>2026-05-05T15:50:10.254Z</time></trkpt><trkpt lat="44.5614707" lon="11.3803839"><ele>28.0</ele><time>2026-05-05T15:50:11.255Z</time></trkpt><trkpt lat="44.561256" lon="11.3802416"><ele>26.5</ele><time>2026-05-05T15:50:12.254Z</time></trkpt><trkpt lat="44.5610409" lon="11.3800969"><ele>25.0</ele><time>2026-05-05T15:50:13.255Z</time></trkpt><trkpt lat="44.560817" lon="11.3799595"><ele>25.0</ele><time>2026-05-05T15:50:14.255Z</time></trkpt><trkpt lat="44.560588" lon="11.3798166"><ele>25.0</ele><time>2026-05-05T15:50:15.254Z</time></trkpt><trkpt lat="44.5603475" lon="11.3796638"><ele>25.5</ele><time>2026-05-05T15:50:16.254Z</time></trkpt><trkpt lat="44.5601093" lon="11.3795153"><ele>26.0</ele><time>2026-05-05T15:50:17.255Z</time></trkpt><trkpt lat="44.559865" lon="11.379363"><ele>26.0</ele><time>2026-05-05T15:50:18.255Z</time></trkpt><trkpt lat="44.5596189" lon="11.3792105"><ele>26.0</ele><time>2026-05-05T15:50:19.255Z</time></trkpt><trkpt lat="44.5593806" lon="11.379056"><ele>26.5</ele><time>2026-05-05T15:50:20.255Z</time></trkpt><trkpt lat="44.5591357" lon="11.3789005"><ele>27.0</ele><time>2026-05-05T15:50:21.254Z</time></trkpt><trkpt lat="44.5588899" lon="11.3787438"><ele>27.0</ele><time>2026-05-05T15:50:22.254Z</time></trkpt><trkpt lat="44.5586446" lon="11.3785869"><ele>27.0</ele><time>2026-05-05T15:50:23.255Z</time></trkpt><trkpt lat="44.5583997" lon="11.3784286"><ele>27.0</ele><time>2026-05-05T15:50:24.255Z</time></trkpt><trkpt lat="44.5581611" lon="11.3782689"><ele>27.0</ele><time>2026-05-05T15:50:25.255Z</time></trkpt><trkpt lat="44.5579189" lon="11.378109"><ele>27.0</ele><time>2026-05-05T15:50:26.254Z</time></trkpt><trkpt lat="44.5576728" lon="11.3779402"><ele>27.0</ele><time>2026-05-05T15:50:27.255Z</time></trkpt><trkpt lat="44.5574306" lon="11.3777739"><ele>27.0</ele><time>2026-05-05T15:50:28.255Z</time></trkpt><trkpt lat="44.557186" lon="11.3776108"><ele>27.0</ele><time>2026-05-05T15:50:29.255Z</time></trkpt><trkpt lat="44.5569478" lon="11.3774492"><ele>26.5</ele><time>2026-05-05T15:50:30.254Z</time></trkpt><trkpt lat="44.5567046" lon="11.3772909"><ele>26.0</ele><time>2026-05-05T15:50:31.255Z</time></trkpt><trkpt lat="44.556455" lon="11.3771342"><ele>26.0</ele><time>2026-05-05T15:50:32.254Z</time></trkpt><trkpt lat="44.5562142" lon="11.3769683"><ele>26.0</ele><time>2026-05-05T15:50:33.254Z</time></trkpt><trkpt lat="44.5559651" lon="11.3768023"><ele>25.5</ele><time>2026-05-05T15:50:34.254Z</time></trkpt><trkpt lat="44.5557028" lon="11.3766309"><ele>25.0</ele><time>2026-05-05T15:50:35.254Z</time></trkpt><trkpt lat="44.5554427" lon="11.3764525"><ele>26.0</ele><time>2026-05-05T15:50:36.255Z</time></trkpt><trkpt lat="44.5551722" lon="11.3762777"><ele>27.0</ele><time>2026-05-05T15:50:37.255Z</time></trkpt><trkpt lat="44.5548924" lon="11.3760983"><ele>27.0</ele><time>2026-05-05T15:50:38.255Z</time></trkpt><trkpt lat="44.5546194" lon="11.3759207"><ele>27.0</ele><time>2026-05-05T15:50:39.255Z</time></trkpt><trkpt lat="44.5543441" lon="11.3757385"><ele>26.5</ele><time>2026-05-05T15:50:40.255Z</time></trkpt><trkpt lat="44.5540698" lon="11.3755588"><ele>26.0</ele><time>2026-05-05T15:50:41.254Z</time></trkpt><trkpt lat="44.5538003" lon="11.3753835"><ele>26.5</ele><time>2026-05-05T15:50:42.254Z</time></trkpt><trkpt lat="44.5535266" lon="11.3752029"><ele>27.0</ele><time>2026-05-05T15:50:43.255Z</time></trkpt><trkpt lat="44.5532521" lon="11.3750244"><ele>27.0</ele><time>2026-05-05T15:50:44.255Z</time></trkpt><trkpt lat="44.5529836" lon="11.3748503"><ele>27.0</ele><time>2026-05-05T15:50:45.254Z</time></trkpt><trkpt lat="44.5527163" lon="11.374675"><ele>28.0</ele><time>2026-05-05T15:50:46.255Z</time></trkpt><trkpt lat="44.5524517" lon="11.3744997"><ele>29.0</ele><time>2026-05-05T15:50:47.255Z</time></trkpt><trkpt lat="44.5521855" lon="11.3743178"><ele>29.0</ele><time>2026-05-05T15:50:48.255Z</time></trkpt><trkpt lat="44.5519261" lon="11.3741469"><ele>29.0</ele><time>2026-05-05T15:50:49.255Z</time></trkpt><trkpt lat="44.5516664" lon="11.3739793"><ele>28.5</ele><time>2026-05-05T15:50:50.254Z</time></trkpt><trkpt lat="44.5514192" lon="11.3738018"><ele>28.0</ele><time>2026-05-05T15:50:51.254Z</time></trkpt><trkpt lat="44.5511613" lon="11.3736332"><ele>28.0</ele><time>2026-05-05T15:50:52.254Z</time></trkpt><trkpt lat="44.5509004" lon="11.373466"><ele>28.0</ele><time>2026-05-05T15:50:53.255Z</time></trkpt><trkpt lat="44.5506374" lon="11.3732972"><ele>28.0</ele><time>2026-05-05T15:50:54.255Z</time></trkpt><trkpt lat="44.5503769" lon="11.3731307"><ele>28.0</ele><time>2026-05-05T15:50:55.254Z</time></trkpt><trkpt lat="44.5501165" lon="11.3729613"><ele>28.0</ele><time>2026-05-05T15:50:56.255Z</time></trkpt><trkpt lat="44.5498557" lon="11.3727931"><ele>28.0</ele><time>2026-05-05T15:50:57.255Z</time></trkpt><trkpt lat="44.5495969" lon="11.3726253"><ele>28.0</ele><time>2026-05-05T15:50:58.255Z</time></trkpt><trkpt lat="44.5493444" lon="11.3724601"><ele>28.0</ele><time>2026-05-05T15:50:59.255Z</time></trkpt><trkpt lat="44.5490848" lon="11.372293"><ele>29.0</ele><time>2026-05-05T15:51:00.255Z</time></trkpt><trkpt lat="44.5488257" lon="11.3721251"><ele>30.0</ele><time>2026-05-05T15:51:01.254Z</time></trkpt><trkpt lat="44.5485689" lon="11.3719582"><ele>30.5</ele><time>2026-05-05T15:51:02.255Z</time></trkpt><trkpt lat="44.5483201" lon="11.3717898"><ele>31.0</ele><time>2026-05-05T15:51:03.254Z</time></trkpt><trkpt lat="44.548064" lon="11.371623"><ele>30.5</ele><time>2026-05-05T15:51:04.255Z</time></trkpt><trkpt lat="44.5478086" lon="11.3714564"><ele>30.0</ele><time>2026-05-05T15:51:05.255Z</time></trkpt><trkpt lat="44.5475592" lon="11.3712857"><ele>30.0</ele><time>2026-05-05T15:51:06.255Z</time></trkpt><trkpt lat="44.5473141" lon="11.3711146"><ele>30.0</ele><time>2026-05-05T15:51:07.255Z</time></trkpt><trkpt lat="44.5470626" lon="11.370943"><ele>30.5</ele><time>2026-05-05T15:51:08.255Z</time></trkpt><trkpt lat="44.5468127" lon="11.3707777"><ele>31.0</ele><time>2026-05-05T15:51:09.255Z</time></trkpt><trkpt lat="44.5465677" lon="11.3706119"><ele>30.5</ele><time>2026-05-05T15:51:10.255Z</time></trkpt><trkpt lat="44.546323" lon="11.3704531"><ele>30.0</ele><time>2026-05-05T15:51:11.255Z</time></trkpt><trkpt lat="44.54608" lon="11.3702942"><ele>30.0</ele><time>2026-05-05T15:51:12.255Z</time></trkpt><trkpt lat="44.5458384" lon="11.3701328"><ele>30.0</ele><time>2026-05-05T15:51:13.255Z</time></trkpt><trkpt lat="44.5455957" lon="11.3699764"><ele>29.0</ele><time>2026-05-05T15:51:14.255Z</time></trkpt><trkpt lat="44.5453544" lon="11.369821"><ele>28.0</ele><time>2026-05-05T15:51:15.255Z</time></trkpt><trkpt lat="44.5451111" lon="11.3696669"><ele>27.0</ele><time>2026-05-05T15:51:16.255Z</time></trkpt><trkpt lat="44.5448728" lon="11.3695113"><ele>26.0</ele><time>2026-05-05T15:51:17.255Z</time></trkpt><trkpt lat="44.5446338" lon="11.369352"><ele>27.5</ele><time>2026-05-05T15:51:18.254Z</time></trkpt><trkpt lat="44.5443991" lon="11.3692007"><ele>29.0</ele><time>2026-05-05T15:51:19.255Z</time></trkpt><trkpt lat="44.5441742" lon="11.3690395"><ele>29.0</ele><time>2026-05-05T15:51:20.255Z</time></trkpt><trkpt lat="44.5439342" lon="11.3688807"><ele>29.0</ele><time>2026-05-05T15:51:21.255Z</time></trkpt><trkpt lat="44.5436961" lon="11.3687314"><ele>28.5</ele><time>2026-05-05T15:51:22.254Z</time></trkpt><trkpt lat="44.5434544" lon="11.368582"><ele>28.0</ele><time>2026-05-05T15:51:23.255Z</time></trkpt><trkpt lat="44.5432072" lon="11.3684323"><ele>28.0</ele><time>2026-05-05T15:51:24.255Z</time></trkpt><trkpt lat="44.5429544" lon="11.3682775"><ele>28.0</ele><time>2026-05-05T15:51:25.255Z</time></trkpt><trkpt lat="44.5427019" lon="11.3681261"><ele>28.5</ele><time>2026-05-05T15:51:26.255Z</time></trkpt><trkpt lat="44.5424523" lon="11.3679646"><ele>29.0</ele><time>2026-05-05T15:51:27.255Z</time></trkpt><trkpt lat="44.5422036" lon="11.3678019"><ele>30.5</ele><time>2026-05-05T15:51:28.255Z</time></trkpt><trkpt lat="44.5419572" lon="11.3676462"><ele>32.0</ele><time>2026-05-05T15:51:29.255Z</time></trkpt><trkpt lat="44.5417128" lon="11.3674881"><ele>32.0</ele><time>2026-05-05T15:51:30.254Z</time></trkpt><trkpt lat="44.541473" lon="11.3673312"><ele>32.0</ele><time>2026-05-05T15:51:31.255Z</time></trkpt><trkpt lat="44.541231" lon="11.3671762"><ele>30.5</ele><time>2026-05-05T15:51:32.254Z</time></trkpt><trkpt lat="44.5409971" lon="11.3670159"><ele>29.0</ele><time>2026-05-05T15:51:33.254Z</time></trkpt><trkpt lat="44.5407563" lon="11.3668607"><ele>29.0</ele><time>2026-05-05T15:51:34.255Z</time></trkpt><trkpt lat="44.5405154" lon="11.3667049"><ele>29.0</ele><time>2026-05-05T15:51:35.255Z</time></trkpt><trkpt lat="44.5402821" lon="11.3665565"><ele>28.5</ele><time>2026-05-05T15:51:36.254Z</time></trkpt><trkpt lat="44.5400412" lon="11.3664027"><ele>28.0</ele><time>2026-05-05T15:51:37.255Z</time></trkpt><trkpt lat="44.5398029" lon="11.3662479"><ele>28.5</ele><time>2026-05-05T15:51:38.255Z</time></trkpt><trkpt lat="44.5395694" lon="11.3660961"><ele>29.0</ele><time>2026-05-05T15:51:39.254Z</time></trkpt><trkpt lat="44.5393338" lon="11.3659435"><ele>29.0</ele><time>2026-05-05T15:51:40.254Z</time></trkpt><trkpt lat="44.5391092" lon="11.3657849"><ele>29.0</ele><time>2026-05-05T15:51:41.254Z</time></trkpt><trkpt lat="44.5388868" lon="11.365642"><ele>29.0</ele><time>2026-05-05T15:51:42.255Z</time></trkpt><trkpt lat="44.538671" lon="11.3655061"><ele>29.0</ele><time>2026-05-05T15:51:43.254Z</time></trkpt><trkpt lat="44.5384665" lon="11.3653722"><ele>29.0</ele><time>2026-05-05T15:51:44.254Z</time></trkpt><trkpt lat="44.5382711" lon="11.3652528"><ele>29.0</ele><time>2026-05-05T15:51:45.255Z</time></trkpt><trkpt lat="44.5380857" lon="11.3651321"><ele>29.0</ele><time>2026-05-05T15:51:46.255Z</time></trkpt><trkpt lat="44.5379025" lon="11.3650171"><ele>29.333333333333332</ele><time>2026-05-05T15:51:47.255Z</time></trkpt><trkpt lat="44.5377215" lon="11.3649024"><ele>29.666666666666664</ele><time>2026-05-05T15:51:48.255Z</time></trkpt><trkpt lat="44.5375471" lon="11.36479"><ele>30.0</ele><time>2026-05-05T15:51:49.255Z</time></trkpt><trkpt lat="44.5373724" lon="11.3646789"><ele>30.0</ele><time>2026-05-05T15:51:50.254Z</time></trkpt><trkpt lat="44.5372012" lon="11.3645645"><ele>30.0</ele><time>2026-05-05T15:51:51.255Z</time></trkpt><trkpt lat="44.5370272" lon="11.3644412"><ele>30.0</ele><time>2026-05-05T15:51:52.255Z</time></trkpt><trkpt lat="44.5368473" lon="11.3643174"><ele>29.666666666666664</ele><time>2026-05-05T15:51:53.255Z</time></trkpt><trkpt lat="44.5366738" lon="11.3641972"><ele>29.333333333333332</ele><time>2026-05-05T15:51:54.254Z</time></trkpt><trkpt lat="44.5364896" lon="11.3640782"><ele>29.0</ele><time>2026-05-05T15:51:55.255Z</time></trkpt><trkpt lat="44.5362991" lon="11.3639556"><ele>29.333333333333332</ele><time>2026-05-05T15:51:56.255Z</time></trkpt><trkpt lat="44.5361104" lon="11.363834"><ele>29.666666666666664</ele><time>2026-05-05T15:51:57.254Z</time></trkpt><trkpt lat="44.5359291" lon="11.3637145"><ele>30.0</ele><time>2026-05-05T15:51:58.255Z</time></trkpt><trkpt lat="44.5357491" lon="11.3635917"><ele>30.0</ele><time>2026-05-05T15:51:59.255Z</time></trkpt><trkpt lat="44.535561" lon="11.3634599"><ele>30.0</ele><time>2026-05-05T15:52:00.254Z</time></trkpt><trkpt lat="44.5353714" lon="11.363334"><ele>30.0</ele><time>2026-05-05T15:52:01.255Z</time></trkpt><trkpt lat="44.5351798" lon="11.3632139"><ele>30.333333333333336</ele><time>2026-05-05T15:52:02.254Z</time></trkpt><trkpt lat="44.5349924" lon="11.3630866"><ele>30.666666666666668</ele><time>2026-05-05T15:52:03.254Z</time></trkpt><trkpt lat="44.534796" lon="11.3629603"><ele>31.0</ele><time>2026-05-05T15:52:04.255Z</time></trkpt><trkpt lat="44.5345972" lon="11.3628283"><ele>30.333333333333336</ele><time>2026-05-05T15:52:05.255Z</time></trkpt><trkpt lat="44.534391" lon="11.3626851"><ele>29.666666666666664</ele><time>2026-05-05T15:52:06.255Z</time></trkpt><trkpt lat="44.5341921" lon="11.3625579"><ele>29.0</ele><time>2026-05-05T15:52:07.254Z</time></trkpt><trkpt lat="44.5340027" lon="11.3624277"><ele>29.0</ele><time>2026-05-05T15:52:08.255Z</time></trkpt><trkpt lat="44.5338172" lon="11.362314"><ele>29.0</ele><time>2026-05-05T15:52:09.254Z</time></trkpt><trkpt lat="44.53364" lon="11.3621991"><ele>29.0</ele><time>2026-05-05T15:52:10.254Z</time></trkpt><trkpt lat="44.5334704" lon="11.3620876"><ele>30.0</ele><time>2026-05-05T15:52:11.255Z</time></trkpt><trkpt lat="44.5333151" lon="11.3619771"><ele>31.0</ele><time>2026-05-05T15:52:12.254Z</time></trkpt><trkpt lat="44.5331578" lon="11.3618699"><ele>32.0</ele><time>2026-05-05T15:52:13.255Z</time></trkpt><trkpt lat="44.5329968" lon="11.3617617"><ele>31.0</ele><time>2026-05-05T15:52:14.254Z</time></trkpt><trkpt lat="44.5328348" lon="11.361659"><ele>30.0</ele><time>2026-05-05T15:52:15.254Z</time></trkpt><trkpt lat="44.5326645" lon="11.3615531"><ele>29.0</ele><time>2026-05-05T15:52:16.255Z</time></trkpt><trkpt lat="44.5324873" lon="11.3614434"><ele>29.666666666666664</ele><time>2026-05-05T15:52:17.254Z</time></trkpt><trkpt lat="44.5323053" lon="11.3613252"><ele>30.333333333333336</ele><time>2026-05-05T15:52:18.255Z</time></trkpt><trkpt lat="44.5321201" lon="11.3612"><ele>31.0</ele><time>2026-05-05T15:52:19.254Z</time></trkpt><trkpt lat="44.5319262" lon="11.3610732"><ele>32.0</ele><time>2026-05-05T15:52:20.255Z</time></trkpt><trkpt lat="44.5317364" lon="11.3609478"><ele>33.0</ele><time>2026-05-05T15:52:21.255Z</time></trkpt><trkpt lat="44.5315465" lon="11.3608195"><ele>34.0</ele><time>2026-05-05T15:52:22.254Z</time></trkpt><trkpt lat="44.5313485" lon="11.360691"><ele>34.333333333333336</ele><time>2026-05-05T15:52:23.254Z</time></trkpt><trkpt lat="44.5311551" lon="11.3605613"><ele>34.666666666666664</ele><time>2026-05-05T15:52:24.255Z</time></trkpt><trkpt lat="44.5309579" lon="11.3604353"><ele>35.0</ele><time>2026-05-05T15:52:25.255Z</time></trkpt><trkpt lat="44.5307662" lon="11.3603096"><ele>35.0</ele><time>2026-05-05T15:52:26.255Z</time></trkpt><trkpt lat="44.5305799" lon="11.3601888"><ele>35.0</ele><time>2026-05-05T15:52:27.255Z</time></trkpt><trkpt lat="44.5304004" lon="11.3600588"><ele>35.0</ele><time>2026-05-05T15:52:28.255Z</time></trkpt><trkpt lat="44.5302066" lon="11.3599339"><ele>35.0</ele><time>2026-05-05T15:52:29.254Z</time></trkpt><trkpt lat="44.5300069" lon="11.3598084"><ele>35.0</ele><time>2026-05-05T15:52:30.255Z</time></trkpt><trkpt lat="44.5298041" lon="11.3596723"><ele>35.0</ele><time>2026-05-05T15:52:31.254Z</time></trkpt><trkpt lat="44.5296021" lon="11.359535"><ele>35.0</ele><time>2026-05-05T15:52:32.254Z</time></trkpt><trkpt lat="44.5294051" lon="11.3594061"><ele>35.0</ele><time>2026-05-05T15:52:33.255Z</time></trkpt><trkpt lat="44.5292111" lon="11.3592876"><ele>35.0</ele><time>2026-05-05T15:52:34.254Z</time></trkpt><trkpt lat="44.5290331" lon="11.3591685"><ele>35.0</ele><time>2026-05-05T15:52:35.254Z</time></trkpt><trkpt lat="44.5288595" lon="11.3590519"><ele>35.0</ele><time>2026-05-05T15:52:36.255Z</time></trkpt><trkpt lat="44.5286881" lon="11.3589192"><ele>35.0</ele><time>2026-05-05T15:52:37.255Z</time></trkpt><trkpt lat="44.5285245" lon="11.3587712"><ele>34.666666666666664</ele><time>2026-05-05T15:52:38.255Z</time></trkpt><trkpt lat="44.5283686" lon="11.3586061"><ele>34.333333333333336</ele><time>2026-05-05T15:52:39.254Z</time></trkpt><trkpt lat="44.528219" lon="11.3584175"><ele>34.0</ele><time>2026-05-05T15:52:40.255Z</time></trkpt><trkpt lat="44.5280721" lon="11.3582037"><ele>34.0</ele><time>2026-05-05T15:52:41.255Z</time></trkpt><trkpt lat="44.527947" lon="11.3579714"><ele>34.0</ele><time>2026-05-05T15:52:42.255Z</time></trkpt><trkpt lat="44.5278397" lon="11.3577345"><ele>34.0</ele><time>2026-05-05T15:52:43.254Z</time></trkpt><trkpt lat="44.5277497" lon="11.3574957"><ele>34.0</ele><time>2026-05-05T15:52:44.254Z</time></trkpt><trkpt lat="44.5276667" lon="11.3572579"><ele>34.0</ele><time>2026-05-05T15:52:45.255Z</time></trkpt><trkpt lat="44.5275967" lon="11.3570472"><ele>34.0</ele><time>2026-05-05T15:52:46.255Z</time></trkpt><trkpt lat="44.52752" lon="11.356845"><ele>34.66666666666667</ele><time>2026-05-05T15:52:47.255Z</time></trkpt><trkpt lat="44.5274392" lon="11.3566597"><ele>35.333333333333336</ele><time>2026-05-05T15:52:48.255Z</time></trkpt><trkpt lat="44.5273422" lon="11.3564844"><ele>36.0</ele><time>2026-05-05T15:52:49.254Z</time></trkpt><trkpt lat="44.5272281" lon="11.3563343"><ele>36.0</ele><time>2026-05-05T15:52:50.254Z</time></trkpt><trkpt lat="44.5270823" lon="11.3561972"><ele>36.0</ele><time>2026-05-05T15:52:51.255Z</time></trkpt><trkpt lat="44.5269403" lon="11.3561085"><ele>36.0</ele><time>2026-05-05T15:52:52.255Z</time></trkpt><trkpt lat="44.5267842" lon="11.3560543"><ele>36.333333333333336</ele><time>2026-05-05T15:52:53.255Z</time></trkpt><trkpt lat="44.5266309" lon="11.3560118"><ele>36.66666666666667</ele><time>2026-05-05T15:52:54.254Z</time></trkpt><trkpt lat="44.5264693" lon="11.3560413"><ele>37.0</ele><time>2026-05-05T15:52:55.255Z</time></trkpt><trkpt lat="44.5263181" lon="11.3561077"><ele>37.0</ele><time>2026-05-05T15:52:56.255Z</time></trkpt><trkpt lat="44.5261774" lon="11.3561989"><ele>37.0</ele><time>2026-05-05T15:52:57.254Z</time></trkpt><trkpt lat="44.5260435" lon="11.3563101"><ele>37.0</ele><time>2026-05-05T15:52:58.254Z</time></trkpt><trkpt lat="44.525919" lon="11.356487"><ele>36.66666666666667</ele><time>2026-05-05T15:52:59.255Z</time></trkpt><trkpt lat="44.5258121" lon="11.3566811"><ele>36.333333333333336</ele><time>2026-05-05T15:53:00.255Z</time></trkpt><trkpt lat="44.525713" lon="11.3569086"><ele>36.0</ele><time>2026-05-05T15:53:01.255Z</time></trkpt><trkpt lat="44.5256469" lon="11.3571696"><ele>36.0</ele><time>2026-05-05T15:53:02.255Z</time></trkpt><trkpt lat="44.5255858" lon="11.3574332"><ele>36.0</ele><time>2026-05-05T15:53:03.255Z</time></trkpt><trkpt lat="44.5255266" lon="11.3576945"><ele>36.0</ele><time>2026-05-05T15:53:04.255Z</time></trkpt><trkpt lat="44.5254562" lon="11.3579515"><ele>35.666666666666664</ele><time>2026-05-05T15:53:05.254Z</time></trkpt><trkpt lat="44.5253757" lon="11.3582003"><ele>35.33333333333333</ele><time>2026-05-05T15:53:06.255Z</time></trkpt><trkpt lat="44.5252852" lon="11.3584512"><ele>35.0</ele><time>2026-05-05T15:53:07.254Z</time></trkpt><trkpt lat="44.5251811" lon="11.3587007"><ele>36.33333333333333</ele><time>2026-05-05T15:53:08.254Z</time></trkpt><trkpt lat="44.5250785" lon="11.3589372"><ele>37.666666666666664</ele><time>2026-05-05T15:53:09.255Z</time></trkpt><trkpt lat="44.5249661" lon="11.3591923"><ele>39.0</ele><time>2026-05-05T15:53:10.255Z</time></trkpt><trkpt lat="44.5248542" lon="11.3594459"><ele>39.0</ele><time>2026-05-05T15:53:11.254Z</time></trkpt><trkpt lat="44.5247381" lon="11.3596973"><ele>39.0</ele><time>2026-05-05T15:53:12.255Z</time></trkpt><trkpt lat="44.5246217" lon="11.3599584"><ele>39.0</ele><time>2026-05-05T15:53:13.255Z</time></trkpt><trkpt lat="44.5244976" lon="11.3602329"><ele>38.5</ele><time>2026-05-05T15:53:14.254Z</time></trkpt><trkpt lat="44.5243692" lon="11.3605215"><ele>38.0</ele><time>2026-05-05T15:53:15.255Z</time></trkpt><trkpt lat="44.5242403" lon="11.360811"><ele>37.5</ele><time>2026-05-05T15:53:16.255Z</time></trkpt><trkpt lat="44.5241053" lon="11.3611011"><ele>37.0</ele><time>2026-05-05T15:53:17.254Z</time></trkpt><trkpt lat="44.5239675" lon="11.361373"><ele>36.5</ele><time>2026-05-05T15:53:18.255Z</time></trkpt><trkpt lat="44.523823" lon="11.361666"><ele>36.0</ele><time>2026-05-05T15:53:19.255Z</time></trkpt><trkpt lat="44.5236851" lon="11.3619465"><ele>37.0</ele><time>2026-05-05T15:53:20.254Z</time></trkpt><trkpt lat="44.523546" lon="11.3622336"><ele>38.0</ele><time>2026-05-05T15:53:21.255Z</time></trkpt><trkpt lat="44.5234105" lon="11.3625254"><ele>38.0</ele><time>2026-05-05T15:53:22.255Z</time></trkpt><trkpt lat="44.5232721" lon="11.3628109"><ele>38.0</ele><time>2026-05-05T15:53:23.255Z</time></trkpt><trkpt lat="44.5231418" lon="11.3630932"><ele>37.0</ele><time>2026-05-05T15:53:24.254Z</time></trkpt><trkpt lat="44.5230089" lon="11.3633737"><ele>36.0</ele><time>2026-05-05T15:53:25.255Z</time></trkpt><trkpt lat="44.5228741" lon="11.3636586"><ele>37.5</ele><time>2026-05-05T15:53:26.255Z</time></trkpt><trkpt lat="44.5227379" lon="11.3639494"><ele>39.0</ele><time>2026-05-05T15:53:27.254Z</time></trkpt><trkpt lat="44.5225989" lon="11.3642423"><ele>39.0</ele><time>2026-05-05T15:53:28.255Z</time></trkpt><trkpt lat="44.5224575" lon="11.3645324"><ele>39.0</ele><time>2026-05-05T15:53:29.254Z</time></trkpt><trkpt lat="44.5223141" lon="11.3648296"><ele>39.0</ele><time>2026-05-05T15:53:30.255Z</time></trkpt><trkpt lat="44.5221724" lon="11.3651229"><ele>39.0</ele><time>2026-05-05T15:53:31.255Z</time></trkpt><trkpt lat="44.5220333" lon="11.3654231"><ele>38.5</ele><time>2026-05-05T15:53:32.254Z</time></trkpt><trkpt lat="44.5218948" lon="11.3657158"><ele>38.0</ele><time>2026-05-05T15:53:33.255Z</time></trkpt><trkpt lat="44.5217573" lon="11.3660056"><ele>38.0</ele><time>2026-05-05T15:53:34.255Z</time></trkpt><trkpt lat="44.5216177" lon="11.3662939"><ele>38.0</ele><time>2026-05-05T15:53:35.254Z</time></trkpt><trkpt lat="44.5214809" lon="11.3665892"><ele>37.5</ele><time>2026-05-05T15:53:36.255Z</time></trkpt><trkpt lat="44.5213412" lon="11.3668796"><ele>37.0</ele><time>2026-05-05T15:53:37.255Z</time></trkpt><trkpt lat="44.5212029" lon="11.3671739"><ele>37.0</ele><time>2026-05-05T15:53:38.255Z</time></trkpt><trkpt lat="44.5210624" lon="11.3674684"><ele>37.0</ele><time>2026-05-05T15:53:39.255Z</time></trkpt><trkpt lat="44.5209212" lon="11.3677624"><ele>36.5</ele><time>2026-05-05T15:53:40.254Z</time></trkpt><trkpt lat="44.5207773" lon="11.3680583"><ele>36.0</ele><time>2026-05-05T15:53:41.254Z</time></trkpt><trkpt lat="44.520635" lon="11.3683568"><ele>36.0</ele><time>2026-05-05T15:53:42.255Z</time></trkpt><trkpt lat="44.5204942" lon="11.3686529"><ele>36.0</ele><time>2026-05-05T15:53:43.255Z</time></trkpt><trkpt lat="44.520349" lon="11.3689503"><ele>36.0</ele><time>2026-05-05T15:53:44.255Z</time></trkpt><trkpt lat="44.5202064" lon="11.3692501"><ele>36.0</ele><time>2026-05-05T15:53:45.254Z</time></trkpt><trkpt lat="44.5200655" lon="11.3695456"><ele>37.0</ele><time>2026-05-05T15:53:46.255Z</time></trkpt><trkpt lat="44.5199219" lon="11.3698368"><ele>38.0</ele><time>2026-05-05T15:53:47.255Z</time></trkpt><trkpt lat="44.5197814" lon="11.3701392"><ele>38.0</ele><time>2026-05-05T15:53:48.254Z</time></trkpt><trkpt lat="44.5196404" lon="11.3704408"><ele>38.0</ele><time>2026-05-05T15:53:49.254Z</time></trkpt><trkpt lat="44.5194995" lon="11.3707419"><ele>37.0</ele><time>2026-05-05T15:53:50.255Z</time></trkpt><trkpt lat="44.5193568" lon="11.3710372"><ele>36.0</ele><time>2026-05-05T15:53:51.255Z</time></trkpt><trkpt lat="44.5192148" lon="11.3713402"><ele>37.0</ele><time>2026-05-05T15:53:52.254Z</time></trkpt><trkpt lat="44.5190759" lon="11.3716231"><ele>38.0</ele><time>2026-05-05T15:53:53.255Z</time></trkpt><trkpt lat="44.5189381" lon="11.3719122"><ele>38.0</ele><time>2026-05-05T15:53:54.255Z</time></trkpt><trkpt lat="44.5187833" lon="11.3722047"><ele>38.0</ele><time>2026-05-05T15:53:55.254Z</time></trkpt><trkpt lat="44.5186219" lon="11.3725041"><ele>37.0</ele><time>2026-05-05T15:53:56.255Z</time></trkpt><trkpt lat="44.5184534" lon="11.3727852"><ele>36.0</ele><time>2026-05-05T15:53:57.254Z</time></trkpt><trkpt lat="44.5182817" lon="11.3730627"><ele>36.0</ele><time>2026-05-05T15:53:58.254Z</time></trkpt><trkpt lat="44.5181063" lon="11.3733394"><ele>36.0</ele><time>2026-05-05T15:53:59.254Z</time></trkpt><trkpt lat="44.5179288" lon="11.3736146"><ele>36.0</ele><time>2026-05-05T15:54:00.254Z</time></trkpt><trkpt lat="44.5177444" lon="11.3738752"><ele>36.0</ele><time>2026-05-05T15:54:01.255Z</time></trkpt><trkpt lat="44.5175612" lon="11.3741284"><ele>36.0</ele><time>2026-05-05T15:54:02.254Z</time></trkpt><trkpt lat="44.5173681" lon="11.3743786"><ele>36.0</ele><time>2026-05-05T15:54:03.255Z</time></trkpt><trkpt lat="44.5171734" lon="11.3746378"><ele>36.0</ele><time>2026-05-05T15:54:04.254Z</time></trkpt><trkpt lat="44.5169799" lon="11.3748848"><ele>36.0</ele><time>2026-05-05T15:54:05.254Z</time></trkpt><trkpt lat="44.5167826" lon="11.3751324"><ele>36.0</ele><time>2026-05-05T15:54:06.255Z</time></trkpt><trkpt lat="44.5165802" lon="11.3753699"><ele>36.0</ele><time>2026-05-05T15:54:07.255Z</time></trkpt><trkpt lat="44.5163725" lon="11.3756041"><ele>37.0</ele><time>2026-05-05T15:54:08.254Z</time></trkpt><trkpt lat="44.5161649" lon="11.3758351"><ele>38.0</ele><time>2026-05-05T15:54:09.254Z</time></trkpt><trkpt lat="44.5159507" lon="11.3760502"><ele>38.0</ele><time>2026-05-05T15:54:10.255Z</time></trkpt><trkpt lat="44.5157346" lon="11.3762587"><ele>38.0</ele><time>2026-05-05T15:54:11.254Z</time></trkpt><trkpt lat="44.5155188" lon="11.3764648"><ele>41.0</ele><time>2026-05-05T15:54:12.255Z</time></trkpt><trkpt lat="44.5153002" lon="11.3766583"><ele>44.0</ele><time>2026-05-05T15:54:13.254Z</time></trkpt><trkpt lat="44.5150821" lon="11.3768482"><ele>44.0</ele><time>2026-05-05T15:54:14.255Z</time></trkpt><trkpt lat="44.5148615" lon="11.3770338"><ele>44.0</ele><time>2026-05-05T15:54:15.255Z</time></trkpt><trkpt lat="44.5146452" lon="11.3772181"><ele>42.5</ele><time>2026-05-05T15:54:16.254Z</time></trkpt><trkpt lat="44.5144264" lon="11.3773943"><ele>41.0</ele><time>2026-05-05T15:54:17.255Z</time></trkpt><trkpt lat="44.5142026" lon="11.37757"><ele>41.0</ele><time>2026-05-05T15:54:18.255Z</time></trkpt><trkpt lat="44.5139818" lon="11.3777428"><ele>41.0</ele><time>2026-05-05T15:54:19.254Z</time></trkpt><trkpt lat="44.5137619" lon="11.3779175"><ele>41.0</ele><time>2026-05-05T15:54:20.255Z</time></trkpt><trkpt lat="44.5135362" lon="11.3780935"><ele>41.0</ele><time>2026-05-05T15:54:21.254Z</time></trkpt><trkpt lat="44.513312" lon="11.378265"><ele>41.0</ele><time>2026-05-05T15:54:22.254Z</time></trkpt><trkpt lat="44.5130892" lon="11.3784355"><ele>41.0</ele><time>2026-05-05T15:54:23.254Z</time></trkpt><trkpt lat="44.5128701" lon="11.3786055"><ele>40.5</ele><time>2026-05-05T15:54:24.255Z</time></trkpt><trkpt lat="44.5126545" lon="11.3787844"><ele>40.0</ele><time>2026-05-05T15:54:25.254Z</time></trkpt><trkpt lat="44.5124354" lon="11.3789599"><ele>40.0</ele><time>2026-05-05T15:54:26.255Z</time></trkpt><trkpt lat="44.5122144" lon="11.3791327"><ele>40.0</ele><time>2026-05-05T15:54:27.255Z</time></trkpt><trkpt lat="44.5119947" lon="11.3793094"><ele>40.0</ele><time>2026-05-05T15:54:28.255Z</time></trkpt><trkpt lat="44.5117728" lon="11.3794839"><ele>40.0</ele><time>2026-05-05T15:54:29.254Z</time></trkpt><trkpt lat="44.5115511" lon="11.3796576"><ele>41.0</ele><time>2026-05-05T15:54:30.255Z</time></trkpt><trkpt lat="44.511332" lon="11.37983"><ele>42.0</ele><time>2026-05-05T15:54:31.254Z</time></trkpt><trkpt lat="44.5111054" lon="11.3800001"><ele>42.0</ele><time>2026-05-05T15:54:32.255Z</time></trkpt><trkpt lat="44.510881" lon="11.380167"><ele>42.0</ele><time>2026-05-05T15:54:33.255Z</time></trkpt><trkpt lat="44.5106548" lon="11.3803254"><ele>42.0</ele><time>2026-05-05T15:54:34.254Z</time></trkpt><trkpt lat="44.5104274" lon="11.3804766"><ele>42.0</ele><time>2026-05-05T15:54:35.254Z</time></trkpt><trkpt lat="44.5101933" lon="11.3806209"><ele>42.5</ele><time>2026-05-05T15:54:36.254Z</time></trkpt><trkpt lat="44.5099525" lon="11.3807512"><ele>43.0</ele><time>2026-05-05T15:54:37.255Z</time></trkpt><trkpt lat="44.5096862" lon="11.3808772"><ele>45.0</ele><time>2026-05-05T15:54:38.254Z</time></trkpt><trkpt lat="44.5094268" lon="11.3809889"><ele>47.0</ele><time>2026-05-05T15:54:39.255Z</time></trkpt><trkpt lat="44.5091652" lon="11.3810772"><ele>47.0</ele><time>2026-05-05T15:54:40.254Z</time></trkpt><trkpt lat="44.5088952" lon="11.3811539"><ele>47.0</ele><time>2026-05-05T15:54:41.255Z</time></trkpt><trkpt lat="44.5086222" lon="11.3812183"><ele>46.5</ele><time>2026-05-05T15:54:42.255Z</time></trkpt><trkpt lat="44.508355" lon="11.3812611"><ele>46.0</ele><time>2026-05-05T15:54:43.255Z</time></trkpt><trkpt lat="44.5080892" lon="11.3812923"><ele>46.0</ele><time>2026-05-05T15:54:44.255Z</time></trkpt><trkpt lat="44.5078307" lon="11.3813109"><ele>46.0</ele><time>2026-05-05T15:54:45.255Z</time></trkpt><trkpt lat="44.5075662" lon="11.3813277"><ele>45.5</ele><time>2026-05-05T15:54:46.255Z</time></trkpt><trkpt lat="44.5073103" lon="11.3813565"><ele>45.0</ele><time>2026-05-05T15:54:47.255Z</time></trkpt><trkpt lat="44.5070549" lon="11.3813568"><ele>45.0</ele><time>2026-05-05T15:54:48.255Z</time></trkpt><trkpt lat="44.5067821" lon="11.3813534"><ele>45.0</ele><time>2026-05-05T15:54:49.254Z</time></trkpt><trkpt lat="44.5065206" lon="11.3813976"><ele>45.0</ele><time>2026-05-05T15:54:50.255Z</time></trkpt><trkpt lat="44.5063029" lon="11.3813939"><ele>45.0</ele><time>2026-05-05T15:54:51.254Z</time></trkpt><trkpt lat="44.5060459" lon="11.3814028"><ele>45.5</ele><time>2026-05-05T15:54:52.255Z</time></trkpt><trkpt lat="44.50577" lon="11.3814361"><ele>46.0</ele><time>2026-05-05T15:54:53.255Z</time></trkpt><trkpt lat="44.5055157" lon="11.3814226"><ele>46.0</ele><time>2026-05-05T15:54:54.254Z</time></trkpt><trkpt lat="44.5052789" lon="11.3814807"><ele>46.0</ele><time>2026-05-05T15:54:55.255Z</time></trkpt><trkpt lat="44.5050277" lon="11.3815553"><ele>46.0</ele><time>2026-05-05T15:54:56.255Z</time></trkpt><trkpt lat="44.5047831" lon="11.3816342"><ele>46.0</ele><time>2026-05-05T15:54:57.255Z</time></trkpt><trkpt lat="44.5045542" lon="11.3817315"><ele>45.0</ele><time>2026-05-05T15:54:58.255Z</time></trkpt><trkpt lat="44.5043185" lon="11.3818371"><ele>44.0</ele><time>2026-05-05T15:54:59.255Z</time></trkpt><trkpt lat="44.5040865" lon="11.3819479"><ele>44.0</ele><time>2026-05-05T15:55:00.255Z</time></trkpt><trkpt lat="44.5038616" lon="11.3820737"><ele>44.0</ele><time>2026-05-05T15:55:01.254Z</time></trkpt><trkpt lat="44.503635" lon="11.3822082"><ele>44.0</ele><time>2026-05-05T15:55:02.254Z</time></trkpt><trkpt lat="44.5034182" lon="11.3823523"><ele>44.0</ele><time>2026-05-05T15:55:03.254Z</time></trkpt><trkpt lat="44.5032002" lon="11.3825063"><ele>44.0</ele><time>2026-05-05T15:55:04.255Z</time></trkpt><trkpt lat="44.5029893" lon="11.3826726"><ele>44.0</ele><time>2026-05-05T15:55:05.254Z</time></trkpt><trkpt lat="44.5027816" lon="11.382844"><ele>46.0</ele><time>2026-05-05T15:55:06.255Z</time></trkpt><trkpt lat="44.5025779" lon="11.3830193"><ele>48.0</ele><time>2026-05-05T15:55:07.254Z</time></trkpt><trkpt lat="44.5023733" lon="11.3831946"><ele>48.0</ele><time>2026-05-05T15:55:08.255Z</time></trkpt><trkpt lat="44.5021655" lon="11.3833675"><ele>48.0</ele><time>2026-05-05T15:55:09.255Z</time></trkpt><trkpt lat="44.5019648" lon="11.383549"><ele>48.0</ele><time>2026-05-05T15:55:10.255Z</time></trkpt><trkpt lat="44.5017704" lon="11.3837188"><ele>48.0</ele><time>2026-05-05T15:55:11.254Z</time></trkpt><trkpt lat="44.5015732" lon="11.3838957"><ele>47.5</ele><time>2026-05-05T15:55:12.255Z</time></trkpt><trkpt lat="44.5013767" lon="11.3840702"><ele>47.0</ele><time>2026-05-05T15:55:13.254Z</time></trkpt><trkpt lat="44.5011805" lon="11.3842436"><ele>49.0</ele><time>2026-05-05T15:55:14.254Z</time></trkpt><trkpt lat="44.5009853" lon="11.3844178"><ele>51.0</ele><time>2026-05-05T15:55:15.255Z</time></trkpt><trkpt lat="44.5007919" lon="11.3845913"><ele>50.0</ele><time>2026-05-05T15:55:16.255Z</time></trkpt><trkpt lat="44.5005937" lon="11.3847656"><ele>49.0</ele><time>2026-05-05T15:55:17.254Z</time></trkpt><trkpt lat="44.5003968" lon="11.38494"><ele>48.0</ele><time>2026-05-05T15:55:18.254Z</time></trkpt><trkpt lat="44.5001991" lon="11.385117"><ele>47.0</ele><time>2026-05-05T15:55:19.254Z</time></trkpt><trkpt lat="44.4999974" lon="11.3852944"><ele>47.0</ele><time>2026-05-05T15:55:20.255Z</time></trkpt><trkpt lat="44.4997926" lon="11.3854685"><ele>47.0</ele><time>2026-05-05T15:55:21.254Z</time></trkpt><trkpt lat="44.4995905" lon="11.3856492"><ele>49.0</ele><time>2026-05-05T15:55:22.255Z</time></trkpt><trkpt lat="44.4993835" lon="11.3858302"><ele>51.0</ele><time>2026-05-05T15:55:23.254Z</time></trkpt><trkpt lat="44.499179" lon="11.3860134"><ele>51.0</ele><time>2026-05-05T15:55:24.255Z</time></trkpt><trkpt lat="44.4989744" lon="11.3861938"><ele>51.0</ele><time>2026-05-05T15:55:25.255Z</time></trkpt><trkpt lat="44.4987702" lon="11.3863772"><ele>52.0</ele><time>2026-05-05T15:55:26.255Z</time></trkpt><trkpt lat="44.4985612" lon="11.3865543"><ele>53.0</ele><time>2026-05-05T15:55:27.254Z</time></trkpt><trkpt lat="44.4983519" lon="11.3867361"><ele>53.0</ele><time>2026-05-05T15:55:28.254Z</time></trkpt><trkpt lat="44.4981447" lon="11.3869271"><ele>53.0</ele><time>2026-05-05T15:55:29.255Z</time></trkpt><trkpt lat="44.4979375" lon="11.3871045"><ele>51.5</ele><time>2026-05-05T15:55:30.254Z</time></trkpt><trkpt lat="44.4977298" lon="11.3872867"><ele>50.0</ele><time>2026-05-05T15:55:31.255Z</time></trkpt><trkpt lat="44.4975221" lon="11.3874699"><ele>50.0</ele><time>2026-05-05T15:55:32.255Z</time></trkpt><trkpt lat="44.4973128" lon="11.3876558"><ele>50.0</ele><time>2026-05-05T15:55:33.255Z</time></trkpt><trkpt lat="44.4970981" lon="11.3878444"><ele>49.0</ele><time>2026-05-05T15:55:34.254Z</time></trkpt><trkpt lat="44.4968849" lon="11.3880314"><ele>48.0</ele><time>2026-05-05T15:55:35.254Z</time></trkpt><trkpt lat="44.4966736" lon="11.3882222"><ele>48.0</ele><time>2026-05-05T15:55:36.255Z</time></trkpt><trkpt lat="44.496466" lon="11.3884079"><ele>48.0</ele><time>2026-05-05T15:55:37.255Z</time></trkpt><trkpt lat="44.4962596" lon="11.3885943"><ele>49.0</ele><time>2026-05-05T15:55:38.254Z</time></trkpt><trkpt lat="44.4960485" lon="11.3887783"><ele>50.0</ele><time>2026-05-05T15:55:39.254Z</time></trkpt><trkpt lat="44.4958457" lon="11.3889579"><ele>50.0</ele><time>2026-05-05T15:55:40.255Z</time></trkpt><trkpt lat="44.4956336" lon="11.3891424"><ele>50.0</ele><time>2026-05-05T15:55:41.255Z</time></trkpt><trkpt lat="44.4954228" lon="11.3893268"><ele>49.0</ele><time>2026-05-05T15:55:42.255Z</time></trkpt><trkpt lat="44.4952083" lon="11.3895094"><ele>48.0</ele><time>2026-05-05T15:55:43.254Z</time></trkpt><trkpt lat="44.4949956" lon="11.3896995"><ele>48.0</ele><time>2026-05-05T15:55:44.255Z</time></trkpt><trkpt lat="44.4947813" lon="11.3898871"><ele>48.0</ele><time>2026-05-05T15:55:45.254Z</time></trkpt><trkpt lat="44.4945669" lon="11.3900764"><ele>49.5</ele><time>2026-05-05T15:55:46.255Z</time></trkpt><trkpt lat="44.4943505" lon="11.390271"><ele>51.0</ele><time>2026-05-05T15:55:47.255Z</time></trkpt><trkpt lat="44.4941408" lon="11.3904527"><ele>51.0</ele><time>2026-05-05T15:55:48.255Z</time></trkpt><trkpt lat="44.4939248" lon="11.3906442"><ele>51.0</ele><time>2026-05-05T15:55:49.255Z</time></trkpt><trkpt lat="44.4937108" lon="11.3908307"><ele>51.0</ele><time>2026-05-05T15:55:50.255Z</time></trkpt><trkpt lat="44.4934889" lon="11.3910221"><ele>51.0</ele><time>2026-05-05T15:55:51.255Z</time></trkpt><trkpt lat="44.4932677" lon="11.3912061"><ele>51.0</ele><time>2026-05-05T15:55:52.255Z</time></trkpt><trkpt lat="44.4930523" lon="11.3913987"><ele>51.0</ele><time>2026-05-05T15:55:53.254Z</time></trkpt><trkpt lat="44.4928349" lon="11.3915938"><ele>52.0</ele><time>2026-05-05T15:55:54.255Z</time></trkpt><trkpt lat="44.4926175" lon="11.3917847"><ele>53.0</ele><time>2026-05-05T15:55:55.254Z</time></trkpt><trkpt lat="44.4924008" lon="11.3919769"><ele>53.0</ele><time>2026-05-05T15:55:56.254Z</time></trkpt><trkpt lat="44.4921854" lon="11.3921712"><ele>53.0</ele><time>2026-05-05T15:55:57.255Z</time></trkpt><trkpt lat="44.4919747" lon="11.3923682"><ele>52.5</ele><time>2026-05-05T15:55:58.254Z</time></trkpt><trkpt lat="44.4917679" lon="11.3925626"><ele>52.0</ele><time>2026-05-05T15:55:59.254Z</time></trkpt><trkpt lat="44.4915606" lon="11.3927792"><ele>52.0</ele><time>2026-05-05T15:56:00.254Z</time></trkpt><trkpt lat="44.4913618" lon="11.3929943"><ele>52.0</ele><time>2026-05-05T15:56:01.254Z</time></trkpt><trkpt lat="44.4911662" lon="11.3932157"><ele>53.0</ele><time>2026-05-05T15:56:02.255Z</time></trkpt><trkpt lat="44.4909764" lon="11.3934441"><ele>54.0</ele><time>2026-05-05T15:56:03.254Z</time></trkpt><trkpt lat="44.4907926" lon="11.39367"><ele>54.0</ele><time>2026-05-05T15:56:04.254Z</time></trkpt><trkpt lat="44.4906145" lon="11.3939108"><ele>54.0</ele><time>2026-05-05T15:56:05.255Z</time></trkpt><trkpt lat="44.4904439" lon="11.394161"><ele>54.0</ele><time>2026-05-05T15:56:06.255Z</time></trkpt><trkpt lat="44.4902718" lon="11.3944135"><ele>54.0</ele><time>2026-05-05T15:56:07.255Z</time></trkpt><trkpt lat="44.4901076" lon="11.3946772"><ele>53.5</ele><time>2026-05-05T15:56:08.254Z</time></trkpt><trkpt lat="44.4899477" lon="11.3949444"><ele>53.0</ele><time>2026-05-05T15:56:09.254Z</time></trkpt><trkpt lat="44.4897938" lon="11.3952132"><ele>53.0</ele><time>2026-05-05T15:56:10.255Z</time></trkpt><trkpt lat="44.4896522" lon="11.3954622"><ele>53.0</ele><time>2026-05-05T15:56:11.254Z</time></trkpt><trkpt lat="44.4895057" lon="11.3957464"><ele>52.5</ele><time>2026-05-05T15:56:12.254Z</time></trkpt><trkpt lat="44.4893673" lon="11.3960336"><ele>52.0</ele><time>2026-05-05T15:56:13.254Z</time></trkpt><trkpt lat="44.4892345" lon="11.3963237"><ele>52.0</ele><time>2026-05-05T15:56:14.255Z</time></trkpt><trkpt lat="44.4891043" lon="11.3966189"><ele>52.0</ele><time>2026-05-05T15:56:15.254Z</time></trkpt><trkpt lat="44.4889841" lon="11.3969342"><ele>52.5</ele><time>2026-05-05T15:56:16.254Z</time></trkpt><trkpt lat="44.4888687" lon="11.3972437"><ele>53.0</ele><time>2026-05-05T15:56:17.254Z</time></trkpt><trkpt lat="44.4887574" lon="11.3975534"><ele>53.5</ele><time>2026-05-05T15:56:18.254Z</time></trkpt><trkpt lat="44.4886483" lon="11.3978667"><ele>54.0</ele><time>2026-05-05T15:56:19.255Z</time></trkpt><trkpt lat="44.4885415" lon="11.3981775"><ele>53.0</ele><time>2026-05-05T15:56:20.255Z</time></trkpt><trkpt lat="44.4884322" lon="11.3984891"><ele>52.0</ele><time>2026-05-05T15:56:21.255Z</time></trkpt><trkpt lat="44.4883262" lon="11.3988037"><ele>52.0</ele><time>2026-05-05T15:56:22.255Z</time></trkpt><trkpt lat="44.4882197" lon="11.3991168"><ele>52.0</ele><time>2026-05-05T15:56:23.255Z</time></trkpt><trkpt lat="44.4881141" lon="11.3994242"><ele>51.5</ele><time>2026-05-05T15:56:24.255Z</time></trkpt><trkpt lat="44.4880078" lon="11.3997359"><ele>51.0</ele><time>2026-05-05T15:56:25.255Z</time></trkpt><trkpt lat="44.4879027" lon="11.4000494"><ele>51.0</ele><time>2026-05-05T15:56:26.254Z</time></trkpt><trkpt lat="44.4877983" lon="11.4003646"><ele>51.0</ele><time>2026-05-05T15:56:27.255Z</time></trkpt><trkpt lat="44.4876913" lon="11.4006799"><ele>51.5</ele><time>2026-05-05T15:56:28.254Z</time></trkpt><trkpt lat="44.4875841" lon="11.400997"><ele>52.0</ele><time>2026-05-05T15:56:29.255Z</time></trkpt><trkpt lat="44.4874813" lon="11.40131"><ele>52.5</ele><time>2026-05-05T15:56:30.254Z</time></trkpt><trkpt lat="44.4873769" lon="11.4016274"><ele>53.0</ele><time>2026-05-05T15:56:31.255Z</time></trkpt><trkpt lat="44.4872711" lon="11.4019504"><ele>53.0</ele><time>2026-05-05T15:56:32.255Z</time></trkpt><trkpt lat="44.4871647" lon="11.40227"><ele>53.0</ele><time>2026-05-05T15:56:33.254Z</time></trkpt><trkpt lat="44.4870605" lon="11.4025842"><ele>53.0</ele><time>2026-05-05T15:56:34.254Z</time></trkpt><trkpt lat="44.4869534" lon="11.4028999"><ele>53.0</ele><time>2026-05-05T15:56:35.255Z</time></trkpt><trkpt lat="44.4868462" lon="11.403219"><ele>53.0</ele><time>2026-05-05T15:56:36.255Z</time></trkpt><trkpt lat="44.4867377" lon="11.4035305"><ele>53.0</ele><time>2026-05-05T15:56:37.254Z</time></trkpt><trkpt lat="44.4866313" lon="11.4038443"><ele>53.0</ele><time>2026-05-05T15:56:38.255Z</time></trkpt><trkpt lat="44.4865239" lon="11.4041583"><ele>53.0</ele><time>2026-05-05T15:56:39.254Z</time></trkpt><trkpt lat="44.4864184" lon="11.4044776"><ele>53.0</ele><time>2026-05-05T15:56:40.255Z</time></trkpt><trkpt lat="44.4863138" lon="11.4047908"><ele>53.0</ele><time>2026-05-05T15:56:41.254Z</time></trkpt><trkpt lat="44.4862056" lon="11.4051055"><ele>52.5</ele><time>2026-05-05T15:56:42.254Z</time></trkpt><trkpt lat="44.4860993" lon="11.4054243"><ele>52.0</ele><time>2026-05-05T15:56:43.255Z</time></trkpt><trkpt lat="44.4859937" lon="11.4057395"><ele>52.0</ele><time>2026-05-05T15:56:44.254Z</time></trkpt><trkpt lat="44.4858896" lon="11.4060585"><ele>52.0</ele><time>2026-05-05T15:56:45.255Z</time></trkpt><trkpt lat="44.4857854" lon="11.4063728"><ele>52.5</ele><time>2026-05-05T15:56:46.255Z</time></trkpt><trkpt lat="44.4856804" lon="11.4066883"><ele>53.0</ele><time>2026-05-05T15:56:47.254Z</time></trkpt><trkpt lat="44.4855762" lon="11.4070052"><ele>53.5</ele><time>2026-05-05T15:56:48.255Z</time></trkpt><trkpt lat="44.4854714" lon="11.4073227"><ele>54.0</ele><time>2026-05-05T15:56:49.255Z</time></trkpt><trkpt lat="44.485365" lon="11.4076411"><ele>54.0</ele><time>2026-05-05T15:56:50.254Z</time></trkpt><trkpt lat="44.4852582" lon="11.4079592"><ele>54.0</ele><time>2026-05-05T15:56:51.255Z</time></trkpt><trkpt lat="44.4851521" lon="11.4082797"><ele>54.0</ele><time>2026-05-05T15:56:52.254Z</time></trkpt><trkpt lat="44.4850573" lon="11.4085875"><ele>54.0</ele><time>2026-05-05T15:56:53.255Z</time></trkpt><trkpt lat="44.4849506" lon="11.4089078"><ele>54.5</ele><time>2026-05-05T15:56:54.255Z</time></trkpt><trkpt lat="44.4848448" lon="11.4092256"><ele>55.0</ele><time>2026-05-05T15:56:55.255Z</time></trkpt><trkpt lat="44.4847396" lon="11.4095423"><ele>55.0</ele><time>2026-05-05T15:56:56.254Z</time></trkpt><trkpt lat="44.4846342" lon="11.409862"><ele>55.0</ele><time>2026-05-05T15:56:57.255Z</time></trkpt><trkpt lat="44.4845286" lon="11.4101804"><ele>56.0</ele><time>2026-05-05T15:56:58.255Z</time></trkpt><trkpt lat="44.4844225" lon="11.4105003"><ele>57.0</ele><time>2026-05-05T15:56:59.255Z</time></trkpt><trkpt lat="44.484314" lon="11.4108253"><ele>57.0</ele><time>2026-05-05T15:57:00.254Z</time></trkpt><trkpt lat="44.4842058" lon="11.4111478"><ele>57.0</ele><time>2026-05-05T15:57:01.255Z</time></trkpt><trkpt lat="44.4840984" lon="11.4114692"><ele>56.0</ele><time>2026-05-05T15:57:02.254Z</time></trkpt><trkpt lat="44.4839917" lon="11.4117908"><ele>55.0</ele><time>2026-05-05T15:57:03.254Z</time></trkpt><trkpt lat="44.4838855" lon="11.4121094"><ele>53.5</ele><time>2026-05-05T15:57:04.255Z</time></trkpt><trkpt lat="44.4837761" lon="11.4124286"><ele>52.0</ele><time>2026-05-05T15:57:05.255Z</time></trkpt><trkpt lat="44.4836691" lon="11.4127504"><ele>52.5</ele><time>2026-05-05T15:57:06.255Z</time></trkpt><trkpt lat="44.4835611" lon="11.4130728"><ele>53.0</ele><time>2026-05-05T15:57:07.255Z</time></trkpt><trkpt lat="44.4834546" lon="11.4133923"><ele>53.0</ele><time>2026-05-05T15:57:08.255Z</time></trkpt><trkpt lat="44.4833481" lon="11.4137152"><ele>53.0</ele><time>2026-05-05T15:57:09.255Z</time></trkpt><trkpt lat="44.4832395" lon="11.4140372"><ele>53.0</ele><time>2026-05-05T15:57:10.254Z</time></trkpt><trkpt lat="44.4831333" lon="11.4143567"><ele>53.0</ele><time>2026-05-05T15:57:11.255Z</time></trkpt><trkpt lat="44.4830304" lon="11.4146771"><ele>51.0</ele><time>2026-05-05T15:57:12.255Z</time></trkpt><trkpt lat="44.4829267" lon="11.4150014"><ele>49.0</ele><time>2026-05-05T15:57:13.255Z</time></trkpt><trkpt lat="44.4828224" lon="11.4153263"><ele>51.0</ele><time>2026-05-05T15:57:14.254Z</time></trkpt><trkpt lat="44.4827159" lon="11.4156572"><ele>53.0</ele><time>2026-05-05T15:57:15.255Z</time></trkpt><trkpt lat="44.4826123" lon="11.4159848"><ele>53.0</ele><time>2026-05-05T15:57:16.255Z</time></trkpt><trkpt lat="44.4825073" lon="11.4163153"><ele>53.0</ele><time>2026-05-05T15:57:17.254Z</time></trkpt><trkpt lat="44.4824007" lon="11.4166417"><ele>53.0</ele><time>2026-05-05T15:57:18.254Z</time></trkpt><trkpt lat="44.4822922" lon="11.4169709"><ele>53.0</ele><time>2026-05-05T15:57:19.255Z</time></trkpt><trkpt lat="44.4821841" lon="11.4172967"><ele>53.0</ele><time>2026-05-05T15:57:20.255Z</time></trkpt><trkpt lat="44.4820776" lon="11.4176146"><ele>53.0</ele><time>2026-05-05T15:57:21.255Z</time></trkpt><trkpt lat="44.48197" lon="11.4179381"><ele>52.5</ele><time>2026-05-05T15:57:22.255Z</time></trkpt><trkpt lat="44.4818624" lon="11.4182706"><ele>52.0</ele><time>2026-05-05T15:57:23.255Z</time></trkpt><trkpt lat="44.4817516" lon="11.4186013"><ele>52.5</ele><time>2026-05-05T15:57:24.254Z</time></trkpt><trkpt lat="44.4816407" lon="11.4189206"><ele>53.0</ele><time>2026-05-05T15:57:25.255Z</time></trkpt><trkpt lat="44.4815337" lon="11.4192447"><ele>53.0</ele><time>2026-05-05T15:57:26.254Z</time></trkpt><trkpt lat="44.481433" lon="11.4195639"><ele>53.0</ele><time>2026-05-05T15:57:27.255Z</time></trkpt><trkpt lat="44.4813318" lon="11.4198931"><ele>52.5</ele><time>2026-05-05T15:57:28.255Z</time></trkpt><trkpt lat="44.4812328" lon="11.4202242"><ele>52.0</ele><time>2026-05-05T15:57:29.255Z</time></trkpt><trkpt lat="44.4811419" lon="11.4205521"><ele>52.0</ele><time>2026-05-05T15:57:30.254Z</time></trkpt><trkpt lat="44.4810608" lon="11.4208852"><ele>52.0</ele><time>2026-05-05T15:57:31.254Z</time></trkpt><trkpt lat="44.4809857" lon="11.4212275"><ele>52.0</ele><time>2026-05-05T15:57:32.255Z</time></trkpt><trkpt lat="44.4809134" lon="11.4215632"><ele>52.0</ele><time>2026-05-05T15:57:33.254Z</time></trkpt><trkpt lat="44.4808483" lon="11.4218978"><ele>51.5</ele><time>2026-05-05T15:57:34.255Z</time></trkpt><trkpt lat="44.4807919" lon="11.42224"><ele>51.0</ele><time>2026-05-05T15:57:35.255Z</time></trkpt><trkpt lat="44.4807435" lon="11.4225898"><ele>51.0</ele><time>2026-05-05T15:57:36.254Z</time></trkpt><trkpt lat="44.4806958" lon="11.4229393"><ele>51.0</ele><time>2026-05-05T15:57:37.255Z</time></trkpt><trkpt lat="44.4806555" lon="11.4232938"><ele>51.0</ele><time>2026-05-05T15:57:38.255Z</time></trkpt><trkpt lat="44.4806214" lon="11.4236462"><ele>51.0</ele><time>2026-05-05T15:57:39.255Z</time></trkpt><trkpt lat="44.4806007" lon="11.4239985"><ele>51.5</ele><time>2026-05-05T15:57:40.255Z</time></trkpt><trkpt lat="44.4805861" lon="11.4243553"><ele>52.0</ele><time>2026-05-05T15:57:41.255Z</time></trkpt><trkpt lat="44.4805778" lon="11.4247146"><ele>52.0</ele><time>2026-05-05T15:57:42.254Z</time></trkpt><trkpt lat="44.4805692" lon="11.4250712"><ele>52.0</ele><time>2026-05-05T15:57:43.254Z</time></trkpt><trkpt lat="44.4805646" lon="11.4254371"><ele>51.5</ele><time>2026-05-05T15:57:44.255Z</time></trkpt><trkpt lat="44.4805591" lon="11.4258012"><ele>51.0</ele><time>2026-05-05T15:57:45.255Z</time></trkpt><trkpt lat="44.4805572" lon="11.4261637"><ele>51.0</ele><time>2026-05-05T15:57:46.255Z</time></trkpt><trkpt lat="44.480557" lon="11.4265314"><ele>51.0</ele><time>2026-05-05T15:57:47.255Z</time></trkpt><trkpt lat="44.4805524" lon="11.4268939"><ele>50.0</ele><time>2026-05-05T15:57:48.255Z</time></trkpt><trkpt lat="44.4805492" lon="11.4272604"><ele>49.0</ele><time>2026-05-05T15:57:49.255Z</time></trkpt><trkpt lat="44.4805509" lon="11.4276375"><ele>50.0</ele><time>2026-05-05T15:57:50.254Z</time></trkpt><trkpt lat="44.4805591" lon="11.4280205"><ele>51.0</ele><time>2026-05-05T15:57:51.254Z</time></trkpt><trkpt lat="44.480566" lon="11.4284106"><ele>51.0</ele><time>2026-05-05T15:57:52.254Z</time></trkpt><trkpt lat="44.4805651" lon="11.4288052"><ele>51.0</ele><time>2026-05-05T15:57:53.255Z</time></trkpt><trkpt lat="44.4805711" lon="11.42921"><ele>51.5</ele><time>2026-05-05T15:57:54.254Z</time></trkpt><trkpt lat="44.4805763" lon="11.4296133"><ele>52.0</ele><time>2026-05-05T15:57:55.255Z</time></trkpt><trkpt lat="44.4805764" lon="11.4300196"><ele>52.0</ele><time>2026-05-05T15:57:56.255Z</time></trkpt><trkpt lat="44.480575" lon="11.4304331"><ele>52.0</ele><time>2026-05-05T15:57:57.254Z</time></trkpt><trkpt lat="44.4805714" lon="11.430844"><ele>52.0</ele><time>2026-05-05T15:57:58.255Z</time></trkpt><trkpt lat="44.4805701" lon="11.4312591"><ele>52.0</ele><time>2026-05-05T15:57:59.254Z</time></trkpt><trkpt lat="44.4805768" lon="11.4316794"><ele>52.0</ele><time>2026-05-05T15:58:00.255Z</time></trkpt><trkpt lat="44.4805783" lon="11.4321039"><ele>52.0</ele><time>2026-05-05T15:58:01.254Z</time></trkpt><trkpt lat="44.4805799" lon="11.4325232"><ele>51.5</ele><time>2026-05-05T15:58:02.255Z</time></trkpt><trkpt lat="44.4805794" lon="11.4329388"><ele>51.0</ele><time>2026-05-05T15:58:03.255Z</time></trkpt><trkpt lat="44.4805731" lon="11.4333595"><ele>50.0</ele><time>2026-05-05T15:58:04.255Z</time></trkpt><trkpt lat="44.4805746" lon="11.4337731"><ele>49.0</ele><time>2026-05-05T15:58:05.255Z</time></trkpt><trkpt lat="44.4805736" lon="11.4341913"><ele>48.5</ele><time>2026-05-05T15:58:06.255Z</time></trkpt><trkpt lat="44.4805745" lon="11.4345991"><ele>48.0</ele><time>2026-05-05T15:58:07.255Z</time></trkpt><trkpt lat="44.4805761" lon="11.4350074"><ele>48.0</ele><time>2026-05-05T15:58:08.254Z</time></trkpt><trkpt lat="44.4805796" lon="11.4354192"><ele>48.0</ele><time>2026-05-05T15:58:09.255Z</time></trkpt><trkpt lat="44.4805768" lon="11.4358247"><ele>47.5</ele><time>2026-05-05T15:58:10.254Z</time></trkpt><trkpt lat="44.4805752" lon="11.4362355"><ele>47.0</ele><time>2026-05-05T15:58:11.255Z</time></trkpt><trkpt lat="44.4805754" lon="11.4366407"><ele>47.0</ele><time>2026-05-05T15:58:12.254Z</time></trkpt><trkpt lat="44.4805725" lon="11.4370536"><ele>47.0</ele><time>2026-05-05T15:58:13.255Z</time></trkpt><trkpt lat="44.4805694" lon="11.4374686"><ele>46.5</ele><time>2026-05-05T15:58:14.254Z</time></trkpt><trkpt lat="44.4805686" lon="11.4378885"><ele>46.0</ele><time>2026-05-05T15:58:15.254Z</time></trkpt><trkpt lat="44.4805641" lon="11.4383222"><ele>46.0</ele><time>2026-05-05T15:58:16.254Z</time></trkpt><trkpt lat="44.4805632" lon="11.4387586"><ele>46.0</ele><time>2026-05-05T15:58:17.255Z</time></trkpt><trkpt lat="44.4805628" lon="11.439186"><ele>45.5</ele><time>2026-05-05T15:58:18.255Z</time></trkpt><trkpt lat="44.4805591" lon="11.4396128"><ele>45.0</ele><time>2026-05-05T15:58:19.255Z</time></trkpt><trkpt lat="44.4805576" lon="11.4400451"><ele>45.0</ele><time>2026-05-05T15:58:20.255Z</time></trkpt><trkpt lat="44.4805522" lon="11.4404765"><ele>45.0</ele><time>2026-05-05T15:58:21.254Z</time></trkpt><trkpt lat="44.4805487" lon="11.4408991"><ele>44.5</ele><time>2026-05-05T15:58:22.255Z</time></trkpt><trkpt lat="44.4805456" lon="11.4413189"><ele>44.0</ele><time>2026-05-05T15:58:23.255Z</time></trkpt><trkpt lat="44.4805329" lon="11.4417428"><ele>44.5</ele><time>2026-05-05T15:58:24.254Z</time></trkpt><trkpt lat="44.4805147" lon="11.4421619"><ele>45.0</ele><time>2026-05-05T15:58:25.255Z</time></trkpt><trkpt lat="44.4804932" lon="11.4425783"><ele>45.5</ele><time>2026-05-05T15:58:26.255Z</time></trkpt><trkpt lat="44.4804654" lon="11.4429967"><ele>46.0</ele><time>2026-05-05T15:58:27.254Z</time></trkpt><trkpt lat="44.4804255" lon="11.4434058"><ele>48.5</ele><time>2026-05-05T15:58:28.255Z</time></trkpt><trkpt lat="44.4803759" lon="11.4438198"><ele>51.0</ele><time>2026-05-05T15:58:29.255Z</time></trkpt><trkpt lat="44.4803177" lon="11.4442354"><ele>50.5</ele><time>2026-05-05T15:58:30.255Z</time></trkpt><trkpt lat="44.4802513" lon="11.4446517"><ele>50.0</ele><time>2026-05-05T15:58:31.255Z</time></trkpt><trkpt lat="44.4801789" lon="11.4450677"><ele>50.0</ele><time>2026-05-05T15:58:32.255Z</time></trkpt><trkpt lat="44.4800995" lon="11.4454823"><ele>50.0</ele><time>2026-05-05T15:58:33.254Z</time></trkpt><trkpt lat="44.4800097" lon="11.4458956"><ele>48.5</ele><time>2026-05-05T15:58:34.254Z</time></trkpt><trkpt lat="44.4799078" lon="11.4463073"><ele>47.0</ele><time>2026-05-05T15:58:35.255Z</time></trkpt><trkpt lat="44.4797983" lon="11.446713"><ele>47.0</ele><time>2026-05-05T15:58:36.255Z</time></trkpt><trkpt lat="44.4796809" lon="11.4471188"><ele>47.0</ele><time>2026-05-05T15:58:37.255Z</time></trkpt><trkpt lat="44.4795592" lon="11.4475169"><ele>46.5</ele><time>2026-05-05T15:58:38.254Z</time></trkpt><trkpt lat="44.4794397" lon="11.4479118"><ele>46.0</ele><time>2026-05-05T15:58:39.255Z</time></trkpt><trkpt lat="44.4793224" lon="11.448301"><ele>47.0</ele><time>2026-05-05T15:58:40.254Z</time></trkpt><trkpt lat="44.4792046" lon="11.4486911"><ele>48.0</ele><time>2026-05-05T15:58:41.254Z</time></trkpt><trkpt lat="44.479086" lon="11.4490775"><ele>50.0</ele><time>2026-05-05T15:58:42.255Z</time></trkpt><trkpt lat="44.4789649" lon="11.4494644"><ele>52.0</ele><time>2026-05-05T15:58:43.254Z</time></trkpt><trkpt lat="44.4788472" lon="11.4498507"><ele>52.0</ele><time>2026-05-05T15:58:44.254Z</time></trkpt><trkpt lat="44.4787344" lon="11.4502391"><ele>52.0</ele><time>2026-05-05T15:58:45.255Z</time></trkpt><trkpt lat="44.4786203" lon="11.4506199"><ele>52.0</ele><time>2026-05-05T15:58:46.255Z</time></trkpt><trkpt lat="44.4785078" lon="11.4509991"><ele>52.0</ele><time>2026-05-05T15:58:47.255Z</time></trkpt><trkpt lat="44.4783942" lon="11.4513771"><ele>52.0</ele><time>2026-05-05T15:58:48.255Z</time></trkpt><trkpt lat="44.4782743" lon="11.4517594"><ele>52.0</ele><time>2026-05-05T15:58:49.254Z</time></trkpt><trkpt lat="44.4781593" lon="11.4521391"><ele>51.0</ele><time>2026-05-05T15:58:50.255Z</time></trkpt><trkpt lat="44.4780438" lon="11.4525226"><ele>50.0</ele><time>2026-05-05T15:58:51.254Z</time></trkpt><trkpt lat="44.4779304" lon="11.4529014"><ele>51.0</ele><time>2026-05-05T15:58:52.254Z</time></trkpt><trkpt lat="44.4778165" lon="11.4532863"><ele>52.0</ele><time>2026-05-05T15:58:53.254Z</time></trkpt><trkpt lat="44.4777039" lon="11.4536697"><ele>52.0</ele><time>2026-05-05T15:58:54.255Z</time></trkpt><trkpt lat="44.4775903" lon="11.4540528"><ele>52.0</ele><time>2026-05-05T15:58:55.254Z</time></trkpt><trkpt lat="44.4774774" lon="11.4544279"><ele>52.0</ele><time>2026-05-05T15:58:56.254Z</time></trkpt><trkpt lat="44.477363" lon="11.4548088"><ele>52.0</ele><time>2026-05-05T15:58:57.255Z</time></trkpt><trkpt lat="44.4772497" lon="11.4551883"><ele>52.0</ele><time>2026-05-05T15:58:58.255Z</time></trkpt><trkpt lat="44.4771311" lon="11.4555714"><ele>52.0</ele><time>2026-05-05T15:58:59.254Z</time></trkpt><trkpt lat="44.4770106" lon="11.4559549"><ele>52.0</ele><time>2026-05-05T15:59:00.255Z</time></trkpt><trkpt lat="44.4768968" lon="11.4563367"><ele>52.0</ele><time>2026-05-05T15:59:01.254Z</time></trkpt><trkpt lat="44.476784" lon="11.4567147"><ele>52.0</ele><time>2026-05-05T15:59:02.254Z</time></trkpt><trkpt lat="44.4766697" lon="11.4570931"><ele>52.0</ele><time>2026-05-05T15:59:03.255Z</time></trkpt><trkpt lat="44.4765542" lon="11.4574786"><ele>52.0</ele><time>2026-05-05T15:59:04.254Z</time></trkpt><trkpt lat="44.4764403" lon="11.4578579"><ele>52.0</ele><time>2026-05-05T15:59:05.254Z</time></trkpt><trkpt lat="44.4763254" lon="11.458242"><ele>51.5</ele><time>2026-05-05T15:59:06.255Z</time></trkpt><trkpt lat="44.476211" lon="11.4586213"><ele>51.0</ele><time>2026-05-05T15:59:07.255Z</time></trkpt><trkpt lat="44.4760943" lon="11.4590101"><ele>51.0</ele><time>2026-05-05T15:59:08.255Z</time></trkpt><trkpt lat="44.475975" lon="11.459402"><ele>51.0</ele><time>2026-05-05T15:59:09.254Z</time></trkpt><trkpt lat="44.4758583" lon="11.4597901"><ele>50.5</ele><time>2026-05-05T15:59:10.254Z</time></trkpt><trkpt lat="44.4757397" lon="11.460174"><ele>50.0</ele><time>2026-05-05T15:59:11.254Z</time></trkpt><trkpt lat="44.4756237" lon="11.4605587"><ele>49.5</ele><time>2026-05-05T15:59:12.254Z</time></trkpt><trkpt lat="44.4755057" lon="11.4609373"><ele>49.0</ele><time>2026-05-05T15:59:13.255Z</time></trkpt><trkpt lat="44.475386" lon="11.4613165"><ele>49.0</ele><time>2026-05-05T15:59:14.255Z</time></trkpt><trkpt lat="44.475269" lon="11.461705"><ele>49.0</ele><time>2026-05-05T15:59:15.254Z</time></trkpt><trkpt lat="44.4751526" lon="11.4620902"><ele>49.5</ele><time>2026-05-05T15:59:16.254Z</time></trkpt><trkpt lat="44.4750361" lon="11.4624778"><ele>50.0</ele><time>2026-05-05T15:59:17.255Z</time></trkpt><trkpt lat="44.4749223" lon="11.4628662"><ele>50.0</ele><time>2026-05-05T15:59:18.255Z</time></trkpt><trkpt lat="44.4748054" lon="11.4632643"><ele>50.0</ele><time>2026-05-05T15:59:19.255Z</time></trkpt><trkpt lat="44.4746843" lon="11.4636756"><ele>49.0</ele><time>2026-05-05T15:59:20.254Z</time></trkpt><trkpt lat="44.4745641" lon="11.4640918"><ele>48.0</ele><time>2026-05-05T15:59:21.255Z</time></trkpt><trkpt lat="44.47444" lon="11.4645122"><ele>48.0</ele><time>2026-05-05T15:59:22.254Z</time></trkpt><trkpt lat="44.4743138" lon="11.464939"><ele>48.0</ele><time>2026-05-05T15:59:23.254Z</time></trkpt><trkpt lat="44.4741821" lon="11.465361"><ele>48.5</ele><time>2026-05-05T15:59:24.255Z</time></trkpt><trkpt lat="44.4740543" lon="11.4657825"><ele>49.0</ele><time>2026-05-05T15:59:25.254Z</time></trkpt><trkpt lat="44.4739147" lon="11.4662024"><ele>49.0</ele><time>2026-05-05T15:59:26.255Z</time></trkpt><trkpt lat="44.4737796" lon="11.4666249"><ele>49.0</ele><time>2026-05-05T15:59:27.255Z</time></trkpt><trkpt lat="44.4736363" lon="11.4670497"><ele>48.0</ele><time>2026-05-05T15:59:28.255Z</time></trkpt><trkpt lat="44.4734886" lon="11.4674804"><ele>47.0</ele><time>2026-05-05T15:59:29.254Z</time></trkpt><trkpt lat="44.4733386" lon="11.4679073"><ele>48.0</ele><time>2026-05-05T15:59:30.255Z</time></trkpt><trkpt lat="44.4731826" lon="11.4683348"><ele>49.0</ele><time>2026-05-05T15:59:31.255Z</time></trkpt><trkpt lat="44.4730211" lon="11.4687595"><ele>49.5</ele><time>2026-05-05T15:59:32.254Z</time></trkpt><trkpt lat="44.4728587" lon="11.4691806"><ele>50.0</ele><time>2026-05-05T15:59:33.255Z</time></trkpt><trkpt lat="44.4727085" lon="11.4695718"><ele>48.5</ele><time>2026-05-05T15:59:34.255Z</time></trkpt><trkpt lat="44.4725425" lon="11.4699903"><ele>47.0</ele><time>2026-05-05T15:59:35.254Z</time></trkpt><trkpt lat="44.4723769" lon="11.470407"><ele>46.5</ele><time>2026-05-05T15:59:36.254Z</time></trkpt><trkpt lat="44.4722138" lon="11.4708175"><ele>46.0</ele><time>2026-05-05T15:59:37.255Z</time></trkpt><trkpt lat="44.4720469" lon="11.4712224"><ele>46.0</ele><time>2026-05-05T15:59:38.255Z</time></trkpt><trkpt lat="44.4718835" lon="11.4716253"><ele>46.0</ele><time>2026-05-05T15:59:39.254Z</time></trkpt><trkpt lat="44.4717172" lon="11.4720256"><ele>45.5</ele><time>2026-05-05T15:59:40.255Z</time></trkpt><trkpt lat="44.4715543" lon="11.4724264"><ele>45.0</ele><time>2026-05-05T15:59:41.255Z</time></trkpt><trkpt lat="44.4713915" lon="11.4728255"><ele>46.0</ele><time>2026-05-05T15:59:42.254Z</time></trkpt><trkpt lat="44.4712317" lon="11.473226"><ele>47.0</ele><time>2026-05-05T15:59:43.254Z</time></trkpt><trkpt lat="44.4710669" lon="11.4736243"><ele>47.5</ele><time>2026-05-05T15:59:44.255Z</time></trkpt><trkpt lat="44.4709103" lon="11.474008"><ele>48.0</ele><time>2026-05-05T15:59:45.254Z</time></trkpt><trkpt lat="44.4707469" lon="11.4744032"><ele>46.5</ele><time>2026-05-05T15:59:46.255Z</time></trkpt><trkpt lat="44.4705805" lon="11.4747922"><ele>45.0</ele><time>2026-05-05T15:59:47.254Z</time></trkpt><trkpt lat="44.4704124" lon="11.475174"><ele>45.0</ele><time>2026-05-05T15:59:48.255Z</time></trkpt><trkpt lat="44.4702489" lon="11.4755561"><ele>45.0</ele><time>2026-05-05T15:59:49.255Z</time></trkpt><trkpt lat="44.470083" lon="11.4759312"><ele>45.0</ele><time>2026-05-05T15:59:50.254Z</time></trkpt><trkpt lat="44.4699221" lon="11.476314"><ele>45.0</ele><time>2026-05-05T15:59:51.255Z</time></trkpt><trkpt lat="44.4697654" lon="11.4766917"><ele>43.5</ele><time>2026-05-05T15:59:52.255Z</time></trkpt><trkpt lat="44.4696077" lon="11.4770708"><ele>42.0</ele><time>2026-05-05T15:59:53.255Z</time></trkpt><trkpt lat="44.4694515" lon="11.477446"><ele>42.0</ele><time>2026-05-05T15:59:54.255Z</time></trkpt><trkpt lat="44.4692963" lon="11.4778186"><ele>42.0</ele><time>2026-05-05T15:59:55.254Z</time></trkpt><trkpt lat="44.4691459" lon="11.4781883"><ele>42.0</ele><time>2026-05-05T15:59:56.255Z</time></trkpt><trkpt lat="44.4689935" lon="11.4785555"><ele>42.0</ele><time>2026-05-05T15:59:57.255Z</time></trkpt><trkpt lat="44.4688424" lon="11.4789217"><ele>41.0</ele><time>2026-05-05T15:59:58.255Z</time></trkpt><trkpt lat="44.468693" lon="11.479284"><ele>40.0</ele><time>2026-05-05T15:59:59.255Z</time></trkpt><trkpt lat="44.4685426" lon="11.4796481"><ele>40.0</ele><time>2026-05-05T16:00:00.254Z</time></trkpt><trkpt lat="44.468391" lon="11.4800037"><ele>40.0</ele><time>2026-05-05T16:00:01.254Z</time></trkpt><trkpt lat="44.4682439" lon="11.4803612"><ele>40.5</ele><time>2026-05-05T16:00:02.255Z</time></trkpt><trkpt lat="44.4680948" lon="11.4807297"><ele>41.0</ele><time>2026-05-05T16:00:03.255Z</time></trkpt><trkpt lat="44.4679422" lon="11.4810987"><ele>41.5</ele><time>2026-05-05T16:00:04.255Z</time></trkpt><trkpt lat="44.4677881" lon="11.4814654"><ele>42.0</ele><time>2026-05-05T16:00:05.254Z</time></trkpt><trkpt lat="44.4676382" lon="11.4818348"><ele>41.0</ele><time>2026-05-05T16:00:06.254Z</time></trkpt><trkpt lat="44.4674846" lon="11.4822043"><ele>40.0</ele><time>2026-05-05T16:00:07.254Z</time></trkpt><trkpt lat="44.4673361" lon="11.4825772"><ele>40.0</ele><time>2026-05-05T16:00:08.255Z</time></trkpt><trkpt lat="44.4671852" lon="11.482953"><ele>40.0</ele><time>2026-05-05T16:00:09.255Z</time></trkpt><trkpt lat="44.4670311" lon="11.4833251"><ele>40.5</ele><time>2026-05-05T16:00:10.255Z</time></trkpt><trkpt lat="44.4668758" lon="11.4837002"><ele>41.0</ele><time>2026-05-05T16:00:11.255Z</time></trkpt><trkpt lat="44.466728" lon="11.4840709"><ele>41.0</ele><time>2026-05-05T16:00:12.255Z</time></trkpt><trkpt lat="44.4665804" lon="11.4844338"><ele>41.0</ele><time>2026-05-05T16:00:13.255Z</time></trkpt><trkpt lat="44.4664341" lon="11.4848008"><ele>41.0</ele><time>2026-05-05T16:00:14.255Z</time></trkpt><trkpt lat="44.4662894" lon="11.4851581"><ele>41.0</ele><time>2026-05-05T16:00:15.254Z</time></trkpt><trkpt lat="44.4661596" lon="11.4855386"><ele>41.0</ele><time>2026-05-05T16:00:16.255Z</time></trkpt><trkpt lat="44.4660291" lon="11.4859176"><ele>41.0</ele><time>2026-05-05T16:00:17.255Z</time></trkpt><trkpt lat="44.4659037" lon="11.4862991"><ele>41.0</ele><time>2026-05-05T16:00:18.255Z</time></trkpt><trkpt lat="44.4657819" lon="11.4866805"><ele>41.0</ele><time>2026-05-05T16:00:19.255Z</time></trkpt><trkpt lat="44.4656671" lon="11.4870595"><ele>41.5</ele><time>2026-05-05T16:00:20.255Z</time></trkpt><trkpt lat="44.4655477" lon="11.4874427"><ele>42.0</ele><time>2026-05-05T16:00:21.255Z</time></trkpt><trkpt lat="44.465437" lon="11.4878222"><ele>41.0</ele><time>2026-05-05T16:00:22.255Z</time></trkpt><trkpt lat="44.4653273" lon="11.4882106"><ele>40.0</ele><time>2026-05-05T16:00:23.255Z</time></trkpt><trkpt lat="44.4652192" lon="11.488606"><ele>41.0</ele><time>2026-05-05T16:00:24.254Z</time></trkpt><trkpt lat="44.4651067" lon="11.4889973"><ele>42.0</ele><time>2026-05-05T16:00:25.255Z</time></trkpt><trkpt lat="44.4649968" lon="11.4893904"><ele>42.5</ele><time>2026-05-05T16:00:26.255Z</time></trkpt><trkpt lat="44.4648873" lon="11.4897808"><ele>43.0</ele><time>2026-05-05T16:00:27.255Z</time></trkpt><trkpt lat="44.4647753" lon="11.4901735"><ele>42.5</ele><time>2026-05-05T16:00:28.255Z</time></trkpt><trkpt lat="44.4646594" lon="11.4905712"><ele>42.0</ele><time>2026-05-05T16:00:29.254Z</time></trkpt><trkpt lat="44.4645525" lon="11.4909593"><ele>43.5</ele><time>2026-05-05T16:00:30.255Z</time></trkpt><trkpt lat="44.4644425" lon="11.4913443"><ele>45.0</ele><time>2026-05-05T16:00:31.254Z</time></trkpt><trkpt lat="44.4643337" lon="11.4917372"><ele>45.0</ele><time>2026-05-05T16:00:32.255Z</time></trkpt><trkpt lat="44.464227" lon="11.4921207"><ele>45.0</ele><time>2026-05-05T16:00:33.254Z</time></trkpt><trkpt lat="44.4641188" lon="11.4924949"><ele>45.0</ele><time>2026-05-05T16:00:34.255Z</time></trkpt><trkpt lat="44.4640089" lon="11.4928639"><ele>45.0</ele><time>2026-05-05T16:00:35.254Z</time></trkpt><trkpt lat="44.4639021" lon="11.4932401"><ele>43.5</ele><time>2026-05-05T16:00:36.255Z</time></trkpt><trkpt lat="44.4638042" lon="11.4935864"><ele>42.0</ele><time>2026-05-05T16:00:37.254Z</time></trkpt><trkpt lat="44.4637046" lon="11.4939394"><ele>42.0</ele><time>2026-05-05T16:00:38.255Z</time></trkpt><trkpt lat="44.4636059" lon="11.494288"><ele>42.0</ele><time>2026-05-05T16:00:39.255Z</time></trkpt><trkpt lat="44.463513" lon="11.4946411"><ele>42.0</ele><time>2026-05-05T16:00:40.254Z</time></trkpt><trkpt lat="44.4634176" lon="11.4950025"><ele>42.0</ele><time>2026-05-05T16:00:41.255Z</time></trkpt><trkpt lat="44.4633246" lon="11.4953606"><ele>40.5</ele><time>2026-05-05T16:00:42.254Z</time></trkpt><trkpt lat="44.4632207" lon="11.4957476"><ele>39.0</ele><time>2026-05-05T16:00:43.254Z</time></trkpt><trkpt lat="44.4631164" lon="11.4961393"><ele>39.5</ele><time>2026-05-05T16:00:44.254Z</time></trkpt><trkpt lat="44.463009" lon="11.4965372"><ele>40.0</ele><time>2026-05-05T16:00:45.255Z</time></trkpt><trkpt lat="44.4628991" lon="11.4969352"><ele>41.5</ele><time>2026-05-05T16:00:46.255Z</time></trkpt><trkpt lat="44.462784" lon="11.4973465"><ele>43.0</ele><time>2026-05-05T16:00:47.255Z</time></trkpt><trkpt lat="44.4626635" lon="11.4977602"><ele>42.0</ele><time>2026-05-05T16:00:48.255Z</time></trkpt><trkpt lat="44.4625429" lon="11.4981686"><ele>41.0</ele><time>2026-05-05T16:00:49.255Z</time></trkpt><trkpt lat="44.462421" lon="11.4985833"><ele>41.0</ele><time>2026-05-05T16:00:50.254Z</time></trkpt><trkpt lat="44.4622995" lon="11.4989961"><ele>41.0</ele><time>2026-05-05T16:00:51.254Z</time></trkpt><trkpt lat="44.4621832" lon="11.4994052"><ele>40.5</ele><time>2026-05-05T16:00:52.255Z</time></trkpt><trkpt lat="44.462062" lon="11.4998173"><ele>40.0</ele><time>2026-05-05T16:00:53.254Z</time></trkpt><trkpt lat="44.461949" lon="11.500223"><ele>40.5</ele><time>2026-05-05T16:00:54.254Z</time></trkpt><trkpt lat="44.4618305" lon="11.5006311"><ele>41.0</ele><time>2026-05-05T16:00:55.255Z</time></trkpt><trkpt lat="44.4617209" lon="11.5010292"><ele>41.5</ele><time>2026-05-05T16:00:56.255Z</time></trkpt><trkpt lat="44.4616083" lon="11.5014335"><ele>42.0</ele><time>2026-05-05T16:00:57.254Z</time></trkpt><trkpt lat="44.4614925" lon="11.5018335"><ele>41.5</ele><time>2026-05-05T16:00:58.255Z</time></trkpt><trkpt lat="44.4613782" lon="11.5022298"><ele>41.0</ele><time>2026-05-05T16:00:59.255Z</time></trkpt><trkpt lat="44.4612629" lon="11.5026274"><ele>41.5</ele><time>2026-05-05T16:01:00.254Z</time></trkpt><trkpt lat="44.4611512" lon="11.5030261"><ele>42.0</ele><time>2026-05-05T16:01:01.255Z</time></trkpt><trkpt lat="44.4610386" lon="11.5034156"><ele>43.5</ele><time>2026-05-05T16:01:02.255Z</time></trkpt><trkpt lat="44.460928" lon="11.5038017"><ele>45.0</ele><time>2026-05-05T16:01:03.255Z</time></trkpt><trkpt lat="44.4608138" lon="11.5041888"><ele>45.0</ele><time>2026-05-05T16:01:04.255Z</time></trkpt><trkpt lat="44.4606961" lon="11.5045728"><ele>45.0</ele><time>2026-05-05T16:01:05.255Z</time></trkpt><trkpt lat="44.4605784" lon="11.5049565"><ele>45.0</ele><time>2026-05-05T16:01:06.254Z</time></trkpt><trkpt lat="44.460465" lon="11.5053382"><ele>45.0</ele><time>2026-05-05T16:01:07.255Z</time></trkpt><trkpt lat="44.4603582" lon="11.5057193"><ele>45.0</ele><time>2026-05-05T16:01:08.254Z</time></trkpt><trkpt lat="44.4602591" lon="11.5061024"><ele>45.0</ele><time>2026-05-05T16:01:09.254Z</time></trkpt><trkpt lat="44.460155" lon="11.506487"><ele>45.0</ele><time>2026-05-05T16:01:10.255Z</time></trkpt><trkpt lat="44.4600526" lon="11.5068725"><ele>45.0</ele><time>2026-05-05T16:01:11.255Z</time></trkpt><trkpt lat="44.4599494" lon="11.5072563"><ele>44.5</ele><time>2026-05-05T16:01:12.254Z</time></trkpt><trkpt lat="44.4598517" lon="11.5076378"><ele>44.0</ele><time>2026-05-05T16:01:13.255Z</time></trkpt><trkpt lat="44.4597552" lon="11.5080171"><ele>44.0</ele><time>2026-05-05T16:01:14.255Z</time></trkpt><trkpt lat="44.4596608" lon="11.5084021"><ele>44.0</ele><time>2026-05-05T16:01:15.255Z</time></trkpt><trkpt lat="44.4595717" lon="11.5087773"><ele>44.0</ele><time>2026-05-05T16:01:16.255Z</time></trkpt><trkpt lat="44.4594796" lon="11.5091547"><ele>44.0</ele><time>2026-05-05T16:01:17.255Z</time></trkpt><trkpt lat="44.4593934" lon="11.5095345"><ele>43.0</ele><time>2026-05-05T16:01:18.254Z</time></trkpt><trkpt lat="44.4593069" lon="11.5099104"><ele>42.0</ele><time>2026-05-05T16:01:19.255Z</time></trkpt><trkpt lat="44.4592219" lon="11.5102878"><ele>42.5</ele><time>2026-05-05T16:01:20.255Z</time></trkpt><trkpt lat="44.4591354" lon="11.5106659"><ele>43.0</ele><time>2026-05-05T16:01:21.255Z</time></trkpt><trkpt lat="44.4590536" lon="11.511043"><ele>42.5</ele><time>2026-05-05T16:01:22.255Z</time></trkpt><trkpt lat="44.4589683" lon="11.511421"><ele>42.0</ele><time>2026-05-05T16:01:23.254Z</time></trkpt><trkpt lat="44.4588883" lon="11.5117917"><ele>42.5</ele><time>2026-05-05T16:01:24.255Z</time></trkpt><trkpt lat="44.4588051" lon="11.512169"><ele>43.0</ele><time>2026-05-05T16:01:25.255Z</time></trkpt><trkpt lat="44.4587218" lon="11.5125424"><ele>43.0</ele><time>2026-05-05T16:01:26.255Z</time></trkpt><trkpt lat="44.4586366" lon="11.5129147"><ele>43.0</ele><time>2026-05-05T16:01:27.254Z</time></trkpt><trkpt lat="44.4585504" lon="11.5132894"><ele>43.0</ele><time>2026-05-05T16:01:28.254Z</time></trkpt><trkpt lat="44.4584673" lon="11.5136607"><ele>43.0</ele><time>2026-05-05T16:01:29.254Z</time></trkpt><trkpt lat="44.4583825" lon="11.5140286"><ele>43.5</ele><time>2026-05-05T16:01:30.254Z</time></trkpt><trkpt lat="44.4582968" lon="11.5143924"><ele>44.0</ele><time>2026-05-05T16:01:31.255Z</time></trkpt><trkpt lat="44.4582106" lon="11.5147559"><ele>44.5</ele><time>2026-05-05T16:01:32.255Z</time></trkpt><trkpt lat="44.4581271" lon="11.5151169"><ele>45.0</ele><time>2026-05-05T16:01:33.254Z</time></trkpt><trkpt lat="44.4580464" lon="11.5154781"><ele>44.0</ele><time>2026-05-05T16:01:34.255Z</time></trkpt><trkpt lat="44.4579623" lon="11.5158344"><ele>43.0</ele><time>2026-05-05T16:01:35.254Z</time></trkpt><trkpt lat="44.4578796" lon="11.5161947"><ele>43.5</ele><time>2026-05-05T16:01:36.254Z</time></trkpt><trkpt lat="44.4578013" lon="11.5165564"><ele>44.0</ele><time>2026-05-05T16:01:37.254Z</time></trkpt><trkpt lat="44.4577233" lon="11.5169084"><ele>44.5</ele><time>2026-05-05T16:01:38.255Z</time></trkpt><trkpt lat="44.4576449" lon="11.517265"><ele>45.0</ele><time>2026-05-05T16:01:39.255Z</time></trkpt><trkpt lat="44.4575606" lon="11.5176272"><ele>43.5</ele><time>2026-05-05T16:01:40.255Z</time></trkpt><trkpt lat="44.4574793" lon="11.5179879"><ele>42.0</ele><time>2026-05-05T16:01:41.254Z</time></trkpt><trkpt lat="44.4573956" lon="11.5183465"><ele>42.0</ele><time>2026-05-05T16:01:42.254Z</time></trkpt><trkpt lat="44.457313" lon="11.5187087"><ele>42.0</ele><time>2026-05-05T16:01:43.255Z</time></trkpt><trkpt lat="44.4572356" lon="11.5190609"><ele>42.5</ele><time>2026-05-05T16:01:44.255Z</time></trkpt><trkpt lat="44.4571539" lon="11.5194175"><ele>43.0</ele><time>2026-05-05T16:01:45.254Z</time></trkpt><trkpt lat="44.4570735" lon="11.5197734"><ele>43.0</ele><time>2026-05-05T16:01:46.255Z</time></trkpt><trkpt lat="44.4569912" lon="11.5201326"><ele>43.0</ele><time>2026-05-05T16:01:47.254Z</time></trkpt><trkpt lat="44.4569088" lon="11.5204935"><ele>43.0</ele><time>2026-05-05T16:01:48.254Z</time></trkpt><trkpt lat="44.4568263" lon="11.5208532"><ele>43.0</ele><time>2026-05-05T16:01:49.255Z</time></trkpt><trkpt lat="44.4567472" lon="11.5212251"><ele>43.5</ele><time>2026-05-05T16:01:50.255Z</time></trkpt><trkpt lat="44.4566727" lon="11.5215963"><ele>44.0</ele><time>2026-05-05T16:01:51.254Z</time></trkpt><trkpt lat="44.4565911" lon="11.5219693"><ele>44.5</ele><time>2026-05-05T16:01:52.254Z</time></trkpt><trkpt lat="44.4565096" lon="11.5223431"><ele>45.0</ele><time>2026-05-05T16:01:53.254Z</time></trkpt><trkpt lat="44.4564315" lon="11.5227135"><ele>45.0</ele><time>2026-05-05T16:01:54.254Z</time></trkpt><trkpt lat="44.456349" lon="11.5230865"><ele>45.0</ele><time>2026-05-05T16:01:55.255Z</time></trkpt><trkpt lat="44.4562667" lon="11.5234546"><ele>43.0</ele><time>2026-05-05T16:01:56.255Z</time></trkpt><trkpt lat="44.4561812" lon="11.5238319"><ele>41.0</ele><time>2026-05-05T16:01:57.254Z</time></trkpt><trkpt lat="44.4560969" lon="11.524199"><ele>41.5</ele><time>2026-05-05T16:01:58.254Z</time></trkpt><trkpt lat="44.4560127" lon="11.5245675"><ele>42.0</ele><time>2026-05-05T16:01:59.255Z</time></trkpt><trkpt lat="44.4559279" lon="11.524937"><ele>42.0</ele><time>2026-05-05T16:02:00.255Z</time></trkpt><trkpt lat="44.4558417" lon="11.5252952"><ele>42.0</ele><time>2026-05-05T16:02:01.255Z</time></trkpt><trkpt lat="44.4557587" lon="11.5256638"><ele>42.0</ele><time>2026-05-05T16:02:02.254Z</time></trkpt><trkpt lat="44.4556789" lon="11.5260395"><ele>42.0</ele><time>2026-05-05T16:02:03.254Z</time></trkpt><trkpt lat="44.4556018" lon="11.5264036"><ele>41.5</ele><time>2026-05-05T16:02:04.255Z</time></trkpt><trkpt lat="44.4555215" lon="11.5267664"><ele>41.0</ele><time>2026-05-05T16:02:05.254Z</time></trkpt><trkpt lat="44.4554381" lon="11.5271353"><ele>40.5</ele><time>2026-05-05T16:02:06.255Z</time></trkpt><trkpt lat="44.4553539" lon="11.5275011"><ele>40.0</ele><time>2026-05-05T16:02:07.254Z</time></trkpt><trkpt lat="44.4552665" lon="11.5278612"><ele>40.0</ele><time>2026-05-05T16:02:08.254Z</time></trkpt><trkpt lat="44.4551795" lon="11.5282257"><ele>40.0</ele><time>2026-05-05T16:02:09.254Z</time></trkpt><trkpt lat="44.4550966" lon="11.5285875"><ele>40.5</ele><time>2026-05-05T16:02:10.254Z</time></trkpt><trkpt lat="44.4550181" lon="11.5289453"><ele>41.0</ele><time>2026-05-05T16:02:11.255Z</time></trkpt><trkpt lat="44.4549389" lon="11.5293048"><ele>41.0</ele><time>2026-05-05T16:02:12.254Z</time></trkpt><trkpt lat="44.4548557" lon="11.5296694"><ele>41.0</ele><time>2026-05-05T16:02:13.254Z</time></trkpt><trkpt lat="44.4547731" lon="11.5300342"><ele>41.0</ele><time>2026-05-05T16:02:14.254Z</time></trkpt><trkpt lat="44.4546845" lon="11.5303983"><ele>41.0</ele><time>2026-05-05T16:02:15.254Z</time></trkpt><trkpt lat="44.4545991" lon="11.5307617"><ele>41.0</ele><time>2026-05-05T16:02:16.255Z</time></trkpt><trkpt lat="44.4545186" lon="11.5311242"><ele>41.0</ele><time>2026-05-05T16:02:17.254Z</time></trkpt><trkpt lat="44.4544326" lon="11.5314791"><ele>40.5</ele><time>2026-05-05T16:02:18.255Z</time></trkpt><trkpt lat="44.4543495" lon="11.5318366"><ele>40.0</ele><time>2026-05-05T16:02:19.255Z</time></trkpt><trkpt lat="44.4542595" lon="11.5321956"><ele>40.0</ele><time>2026-05-05T16:02:20.254Z</time></trkpt><trkpt lat="44.4541687" lon="11.5325556"><ele>40.0</ele><time>2026-05-05T16:02:21.255Z</time></trkpt><trkpt lat="44.4540713" lon="11.5329204"><ele>41.0</ele><time>2026-05-05T16:02:22.255Z</time></trkpt><trkpt lat="44.4539719" lon="11.5332846"><ele>42.0</ele><time>2026-05-05T16:02:23.254Z</time></trkpt><trkpt lat="44.4538675" lon="11.5336493"><ele>42.5</ele><time>2026-05-05T16:02:24.255Z</time></trkpt><trkpt lat="44.4537585" lon="11.5340075"><ele>43.0</ele><time>2026-05-05T16:02:25.255Z</time></trkpt><trkpt lat="44.4536472" lon="11.53437"><ele>43.0</ele><time>2026-05-05T16:02:26.254Z</time></trkpt><trkpt lat="44.4535358" lon="11.5347314"><ele>43.0</ele><time>2026-05-05T16:02:27.255Z</time></trkpt><trkpt lat="44.4534156" lon="11.5350899"><ele>43.5</ele><time>2026-05-05T16:02:28.255Z</time></trkpt><trkpt lat="44.4532867" lon="11.5354462"><ele>44.0</ele><time>2026-05-05T16:02:29.255Z</time></trkpt><trkpt lat="44.4531551" lon="11.5358019"><ele>44.0</ele><time>2026-05-05T16:02:30.254Z</time></trkpt><trkpt lat="44.4530189" lon="11.5361561"><ele>44.0</ele><time>2026-05-05T16:02:31.255Z</time></trkpt><trkpt lat="44.4528836" lon="11.5365099"><ele>42.5</ele><time>2026-05-05T16:02:32.255Z</time></trkpt><trkpt lat="44.452741" lon="11.5368598"><ele>41.0</ele><time>2026-05-05T16:02:33.255Z</time></trkpt><trkpt lat="44.4525934" lon="11.5372098"><ele>41.0</ele><time>2026-05-05T16:02:34.255Z</time></trkpt><trkpt lat="44.45244" lon="11.537553"><ele>41.0</ele><time>2026-05-05T16:02:35.254Z</time></trkpt><trkpt lat="44.4522843" lon="11.5379051"><ele>40.5</ele><time>2026-05-05T16:02:36.255Z</time></trkpt><trkpt lat="44.452126" lon="11.5382393"><ele>40.0</ele><time>2026-05-05T16:02:37.255Z</time></trkpt><trkpt lat="44.4519666" lon="11.5385797"><ele>40.5</ele><time>2026-05-05T16:02:38.254Z</time></trkpt><trkpt lat="44.4518135" lon="11.5389153"><ele>41.0</ele><time>2026-05-05T16:02:39.255Z</time></trkpt><trkpt lat="44.4516563" lon="11.5392532"><ele>41.0</ele><time>2026-05-05T16:02:40.255Z</time></trkpt><trkpt lat="44.4515028" lon="11.5395776"><ele>41.0</ele><time>2026-05-05T16:02:41.255Z</time></trkpt><trkpt lat="44.4513465" lon="11.5399174"><ele>41.0</ele><time>2026-05-05T16:02:42.255Z</time></trkpt><trkpt lat="44.45119" lon="11.540251"><ele>41.0</ele><time>2026-05-05T16:02:43.255Z</time></trkpt><trkpt lat="44.4510408" lon="11.5405687"><ele>41.0</ele><time>2026-05-05T16:02:44.255Z</time></trkpt><trkpt lat="44.4508859" lon="11.5408998"><ele>41.0</ele><time>2026-05-05T16:02:45.254Z</time></trkpt><trkpt lat="44.4507269" lon="11.5412352"><ele>40.5</ele><time>2026-05-05T16:02:46.254Z</time></trkpt><trkpt lat="44.4505687" lon="11.541572"><ele>40.0</ele><time>2026-05-05T16:02:47.255Z</time></trkpt><trkpt lat="44.450409" lon="11.5419129"><ele>39.0</ele><time>2026-05-05T16:02:48.255Z</time></trkpt><trkpt lat="44.4502502" lon="11.5422511"><ele>38.0</ele><time>2026-05-05T16:02:49.255Z</time></trkpt><trkpt lat="44.4500887" lon="11.5425892"><ele>38.5</ele><time>2026-05-05T16:02:50.255Z</time></trkpt><trkpt lat="44.4499289" lon="11.5429225"><ele>39.0</ele><time>2026-05-05T16:02:51.255Z</time></trkpt><trkpt lat="44.4497668" lon="11.5432648"><ele>39.0</ele><time>2026-05-05T16:02:52.254Z</time></trkpt><trkpt lat="44.4496029" lon="11.543615"><ele>39.0</ele><time>2026-05-05T16:02:53.255Z</time></trkpt><trkpt lat="44.44944" lon="11.5439618"><ele>40.5</ele><time>2026-05-05T16:02:54.255Z</time></trkpt><trkpt lat="44.4492812" lon="11.5443099"><ele>42.0</ele><time>2026-05-05T16:02:55.254Z</time></trkpt><trkpt lat="44.4491193" lon="11.544654"><ele>42.5</ele><time>2026-05-05T16:02:56.255Z</time></trkpt><trkpt lat="44.4489581" lon="11.5449927"><ele>43.0</ele><time>2026-05-05T16:02:57.255Z</time></trkpt><trkpt lat="44.4487965" lon="11.545335"><ele>41.5</ele><time>2026-05-05T16:02:58.254Z</time></trkpt><trkpt lat="44.4486345" lon="11.5456741"><ele>40.0</ele><time>2026-05-05T16:02:59.255Z</time></trkpt><trkpt lat="44.4484737" lon="11.5460152"><ele>39.5</ele><time>2026-05-05T16:03:00.254Z</time></trkpt><trkpt lat="44.4483097" lon="11.5463613"><ele>39.0</ele><time>2026-05-05T16:03:01.255Z</time></trkpt><trkpt lat="44.4481323" lon="11.5467132"><ele>38.0</ele><time>2026-05-05T16:03:02.254Z</time></trkpt><trkpt lat="44.4479564" lon="11.5470662"><ele>37.0</ele><time>2026-05-05T16:03:03.255Z</time></trkpt><trkpt lat="44.4477844" lon="11.5474203"><ele>37.0</ele><time>2026-05-05T16:03:04.255Z</time></trkpt><trkpt lat="44.4476201" lon="11.5477712"><ele>37.0</ele><time>2026-05-05T16:03:05.255Z</time></trkpt><trkpt lat="44.4474549" lon="11.548106"><ele>37.0</ele><time>2026-05-05T16:03:06.254Z</time></trkpt><trkpt lat="44.4472942" lon="11.5484465"><ele>37.0</ele><time>2026-05-05T16:03:07.255Z</time></trkpt><trkpt lat="44.4471297" lon="11.5487937"><ele>37.5</ele><time>2026-05-05T16:03:08.255Z</time></trkpt><trkpt lat="44.4469697" lon="11.5491332"><ele>38.0</ele><time>2026-05-05T16:03:09.255Z</time></trkpt><trkpt lat="44.4468121" lon="11.5494722"><ele>38.0</ele><time>2026-05-05T16:03:10.254Z</time></trkpt><trkpt lat="44.4466522" lon="11.5498055"><ele>38.0</ele><time>2026-05-05T16:03:11.255Z</time></trkpt><trkpt lat="44.4464928" lon="11.550141"><ele>38.5</ele><time>2026-05-05T16:03:12.255Z</time></trkpt><trkpt lat="44.4463429" lon="11.5504654"><ele>39.0</ele><time>2026-05-05T16:03:13.254Z</time></trkpt><trkpt lat="44.4461959" lon="11.5507775"><ele>39.5</ele><time>2026-05-05T16:03:14.255Z</time></trkpt><trkpt lat="44.4460403" lon="11.5511093"><ele>40.0</ele><time>2026-05-05T16:03:15.255Z</time></trkpt><trkpt lat="44.4458861" lon="11.5514385"><ele>39.0</ele><time>2026-05-05T16:03:16.255Z</time></trkpt><trkpt lat="44.4457326" lon="11.5517584"><ele>38.0</ele><time>2026-05-05T16:03:17.255Z</time></trkpt><trkpt lat="44.4455788" lon="11.5520848"><ele>38.0</ele><time>2026-05-05T16:03:18.255Z</time></trkpt><trkpt lat="44.4454254" lon="11.5524026"><ele>38.0</ele><time>2026-05-05T16:03:19.254Z</time></trkpt><trkpt lat="44.4452756" lon="11.5527265"><ele>37.5</ele><time>2026-05-05T16:03:20.255Z</time></trkpt><trkpt lat="44.4451284" lon="11.5530398"><ele>37.0</ele><time>2026-05-05T16:03:21.255Z</time></trkpt><trkpt lat="44.4449767" lon="11.5533622"><ele>37.0</ele><time>2026-05-05T16:03:22.254Z</time></trkpt><trkpt lat="44.4448251" lon="11.5536826"><ele>37.0</ele><time>2026-05-05T16:03:23.255Z</time></trkpt><trkpt lat="44.4446774" lon="11.5540062"><ele>38.5</ele><time>2026-05-05T16:03:24.255Z</time></trkpt><trkpt lat="44.4445281" lon="11.5543187"><ele>40.0</ele><time>2026-05-05T16:03:25.255Z</time></trkpt><trkpt lat="44.4443852" lon="11.5546187"><ele>40.5</ele><time>2026-05-05T16:03:26.254Z</time></trkpt><trkpt lat="44.4442393" lon="11.5549297"><ele>41.0</ele><time>2026-05-05T16:03:27.255Z</time></trkpt><trkpt lat="44.4440887" lon="11.5552475"><ele>41.0</ele><time>2026-05-05T16:03:28.255Z</time></trkpt><trkpt lat="44.4439426" lon="11.5555587"><ele>41.0</ele><time>2026-05-05T16:03:29.255Z</time></trkpt><trkpt lat="44.4437963" lon="11.5558671"><ele>41.0</ele><time>2026-05-05T16:03:30.254Z</time></trkpt><trkpt lat="44.4436505" lon="11.5561784"><ele>41.0</ele><time>2026-05-05T16:03:31.254Z</time></trkpt><trkpt lat="44.4435017" lon="11.5564974"><ele>41.0</ele><time>2026-05-05T16:03:32.255Z</time></trkpt><trkpt lat="44.4433569" lon="11.5568093"><ele>41.0</ele><time>2026-05-05T16:03:33.255Z</time></trkpt><trkpt lat="44.4432096" lon="11.5571203"><ele>41.0</ele><time>2026-05-05T16:03:34.255Z</time></trkpt><trkpt lat="44.4430662" lon="11.5574329"><ele>41.0</ele><time>2026-05-05T16:03:35.255Z</time></trkpt><trkpt lat="44.4429173" lon="11.5577521"><ele>41.0</ele><time>2026-05-05T16:03:36.254Z</time></trkpt><trkpt lat="44.4427671" lon="11.558072"><ele>41.0</ele><time>2026-05-05T16:03:37.254Z</time></trkpt><trkpt lat="44.4426204" lon="11.558381"><ele>41.0</ele><time>2026-05-05T16:03:38.255Z</time></trkpt><trkpt lat="44.4424711" lon="11.558698"><ele>41.0</ele><time>2026-05-05T16:03:39.255Z</time></trkpt><trkpt lat="44.4423245" lon="11.5590099"><ele>40.5</ele><time>2026-05-05T16:03:40.255Z</time></trkpt><trkpt lat="44.4421757" lon="11.5593277"><ele>40.0</ele><time>2026-05-05T16:03:41.255Z</time></trkpt><trkpt lat="44.4420305" lon="11.5596383"><ele>40.0</ele><time>2026-05-05T16:03:42.255Z</time></trkpt><trkpt lat="44.4418835" lon="11.5599556"><ele>40.0</ele><time>2026-05-05T16:03:43.255Z</time></trkpt><trkpt lat="44.4417355" lon="11.5602704"><ele>40.5</ele><time>2026-05-05T16:03:44.254Z</time></trkpt><trkpt lat="44.4415858" lon="11.5605842"><ele>41.0</ele><time>2026-05-05T16:03:45.255Z</time></trkpt><trkpt lat="44.4414359" lon="11.5608997"><ele>42.0</ele><time>2026-05-05T16:03:46.255Z</time></trkpt><trkpt lat="44.4412905" lon="11.561208"><ele>43.0</ele><time>2026-05-05T16:03:47.255Z</time></trkpt><trkpt lat="44.4411386" lon="11.5615259"><ele>43.0</ele><time>2026-05-05T16:03:48.254Z</time></trkpt><trkpt lat="44.4409923" lon="11.5618426"><ele>43.0</ele><time>2026-05-05T16:03:49.254Z</time></trkpt><trkpt lat="44.4408429" lon="11.5621664"><ele>42.5</ele><time>2026-05-05T16:03:50.254Z</time></trkpt><trkpt lat="44.4406991" lon="11.562481"><ele>42.0</ele><time>2026-05-05T16:03:51.255Z</time></trkpt><trkpt lat="44.4405488" lon="11.5628061"><ele>42.0</ele><time>2026-05-05T16:03:52.255Z</time></trkpt><trkpt lat="44.4404066" lon="11.563116"><ele>42.0</ele><time>2026-05-05T16:03:53.255Z</time></trkpt><trkpt lat="44.4402584" lon="11.5634468"><ele>41.5</ele><time>2026-05-05T16:03:54.255Z</time></trkpt><trkpt lat="44.440109" lon="11.5637819"><ele>41.0</ele><time>2026-05-05T16:03:55.255Z</time></trkpt><trkpt lat="44.439963" lon="11.5641118"><ele>41.0</ele><time>2026-05-05T16:03:56.255Z</time></trkpt><trkpt lat="44.4398219" lon="11.5644414"><ele>41.0</ele><time>2026-05-05T16:03:57.255Z</time></trkpt><trkpt lat="44.4396913" lon="11.5647683"><ele>40.5</ele><time>2026-05-05T16:03:58.255Z</time></trkpt><trkpt lat="44.439564" lon="11.5650924"><ele>40.0</ele><time>2026-05-05T16:03:59.254Z</time></trkpt><trkpt lat="44.4394293" lon="11.5654338"><ele>40.0</ele><time>2026-05-05T16:04:00.255Z</time></trkpt><trkpt lat="44.439296" lon="11.5657778"><ele>40.0</ele><time>2026-05-05T16:04:01.254Z</time></trkpt><trkpt lat="44.4391677" lon="11.5661194"><ele>40.5</ele><time>2026-05-05T16:04:02.254Z</time></trkpt><trkpt lat="44.4390414" lon="11.5664645"><ele>41.0</ele><time>2026-05-05T16:04:03.255Z</time></trkpt><trkpt lat="44.4389147" lon="11.5668107"><ele>41.0</ele><time>2026-05-05T16:04:04.254Z</time></trkpt><trkpt lat="44.438795" lon="11.5671596"><ele>41.0</ele><time>2026-05-05T16:04:05.255Z</time></trkpt><trkpt lat="44.4386764" lon="11.5675102"><ele>41.0</ele><time>2026-05-05T16:04:06.255Z</time></trkpt><trkpt lat="44.4385579" lon="11.5678606"><ele>41.0</ele><time>2026-05-05T16:04:07.255Z</time></trkpt><trkpt lat="44.4384418" lon="11.5682174"><ele>41.0</ele><time>2026-05-05T16:04:08.255Z</time></trkpt><trkpt lat="44.4383213" lon="11.5685831"><ele>41.0</ele><time>2026-05-05T16:04:09.255Z</time></trkpt><trkpt lat="44.4381984" lon="11.5689505"><ele>41.0</ele><time>2026-05-05T16:04:10.254Z</time></trkpt><trkpt lat="44.438076" lon="11.5693251"><ele>41.0</ele><time>2026-05-05T16:04:11.255Z</time></trkpt><trkpt lat="44.4379507" lon="11.5696976"><ele>42.0</ele><time>2026-05-05T16:04:12.255Z</time></trkpt><trkpt lat="44.4378248" lon="11.5700852"><ele>43.0</ele><time>2026-05-05T16:04:13.255Z</time></trkpt><trkpt lat="44.4377065" lon="11.5704496"><ele>43.0</ele><time>2026-05-05T16:04:14.255Z</time></trkpt><trkpt lat="44.4375859" lon="11.5708212"><ele>43.0</ele><time>2026-05-05T16:04:15.255Z</time></trkpt><trkpt lat="44.4374641" lon="11.5711884"><ele>42.0</ele><time>2026-05-05T16:04:16.255Z</time></trkpt><trkpt lat="44.4373428" lon="11.5715546"><ele>41.0</ele><time>2026-05-05T16:04:17.254Z</time></trkpt><trkpt lat="44.4372221" lon="11.5719227"><ele>41.0</ele><time>2026-05-05T16:04:18.255Z</time></trkpt><trkpt lat="44.4371082" lon="11.5722731"><ele>41.0</ele><time>2026-05-05T16:04:19.255Z</time></trkpt><trkpt lat="44.4369918" lon="11.5726317"><ele>41.5</ele><time>2026-05-05T16:04:20.254Z</time></trkpt><trkpt lat="44.4368739" lon="11.5729886"><ele>42.0</ele><time>2026-05-05T16:04:21.254Z</time></trkpt><trkpt lat="44.4367626" lon="11.5733427"><ele>42.0</ele><time>2026-05-05T16:04:22.254Z</time></trkpt><trkpt lat="44.4366476" lon="11.5736871"><ele>42.0</ele><time>2026-05-05T16:04:23.254Z</time></trkpt><trkpt lat="44.4365386" lon="11.574035"><ele>42.0</ele><time>2026-05-05T16:04:24.255Z</time></trkpt><trkpt lat="44.4364237" lon="11.5743813"><ele>42.0</ele><time>2026-05-05T16:04:25.255Z</time></trkpt><trkpt lat="44.4363102" lon="11.5747274"><ele>41.5</ele><time>2026-05-05T16:04:26.254Z</time></trkpt><trkpt lat="44.4361989" lon="11.5750714"><ele>41.0</ele><time>2026-05-05T16:04:27.254Z</time></trkpt><trkpt lat="44.436089" lon="11.5754091"><ele>41.0</ele><time>2026-05-05T16:04:28.255Z</time></trkpt><trkpt lat="44.4359757" lon="11.5757529"><ele>41.0</ele><time>2026-05-05T16:04:29.254Z</time></trkpt><trkpt lat="44.4358632" lon="11.5760964"><ele>41.5</ele><time>2026-05-05T16:04:30.255Z</time></trkpt><trkpt lat="44.4357527" lon="11.5764361"><ele>42.0</ele><time>2026-05-05T16:04:31.255Z</time></trkpt><trkpt lat="44.4356415" lon="11.576782"><ele>42.0</ele><time>2026-05-05T16:04:32.255Z</time></trkpt><trkpt lat="44.4355325" lon="11.5771166"><ele>42.0</ele><time>2026-05-05T16:04:33.254Z</time></trkpt><trkpt lat="44.4354238" lon="11.5774393"><ele>42.0</ele><time>2026-05-05T16:04:34.254Z</time></trkpt><trkpt lat="44.4353064" lon="11.5777914"><ele>42.0</ele><time>2026-05-05T16:04:35.254Z</time></trkpt><trkpt lat="44.435193" lon="11.5781298"><ele>42.0</ele><time>2026-05-05T16:04:36.255Z</time></trkpt><trkpt lat="44.435082" lon="11.578466"><ele>42.0</ele><time>2026-05-05T16:04:37.255Z</time></trkpt><trkpt lat="44.4349699" lon="11.5788043"><ele>42.0</ele><time>2026-05-05T16:04:38.255Z</time></trkpt><trkpt lat="44.4348565" lon="11.5791473"><ele>42.0</ele><time>2026-05-05T16:04:39.255Z</time></trkpt><trkpt lat="44.4347432" lon="11.5794906"><ele>42.5</ele><time>2026-05-05T16:04:40.255Z</time></trkpt><trkpt lat="44.4346323" lon="11.5798179"><ele>43.0</ele><time>2026-05-05T16:04:41.255Z</time></trkpt><trkpt lat="44.4345186" lon="11.5801607"><ele>43.0</ele><time>2026-05-05T16:04:42.255Z</time></trkpt><trkpt lat="44.4344051" lon="11.5805031"><ele>43.0</ele><time>2026-05-05T16:04:43.255Z</time></trkpt><trkpt lat="44.4342928" lon="11.5808472"><ele>43.0</ele><time>2026-05-05T16:04:44.255Z</time></trkpt><trkpt lat="44.4341818" lon="11.5811827"><ele>43.0</ele><time>2026-05-05T16:04:45.254Z</time></trkpt><trkpt lat="44.4340704" lon="11.5815208"><ele>43.0</ele><time>2026-05-05T16:04:46.254Z</time></trkpt><trkpt lat="44.4339594" lon="11.5818608"><ele>43.0</ele><time>2026-05-05T16:04:47.255Z</time></trkpt><trkpt lat="44.4338436" lon="11.5822068"><ele>44.5</ele><time>2026-05-05T16:04:48.254Z</time></trkpt><trkpt lat="44.4337314" lon="11.5825505"><ele>46.0</ele><time>2026-05-05T16:04:49.254Z</time></trkpt><trkpt lat="44.4336205" lon="11.5828873"><ele>47.0</ele><time>2026-05-05T16:04:50.254Z</time></trkpt><trkpt lat="44.433509" lon="11.5832275"><ele>48.0</ele><time>2026-05-05T16:04:51.255Z</time></trkpt><trkpt lat="44.4333953" lon="11.5835701"><ele>46.0</ele><time>2026-05-05T16:04:52.255Z</time></trkpt><trkpt lat="44.4332854" lon="11.5839134"><ele>44.0</ele><time>2026-05-05T16:04:53.255Z</time></trkpt><trkpt lat="44.4331715" lon="11.5842633"><ele>44.0</ele><time>2026-05-05T16:04:54.255Z</time></trkpt><trkpt lat="44.4330637" lon="11.5845939"><ele>44.0</ele><time>2026-05-05T16:04:55.255Z</time></trkpt><trkpt lat="44.4329487" lon="11.5849436"><ele>44.0</ele><time>2026-05-05T16:04:56.254Z</time></trkpt><trkpt lat="44.432834" lon="11.5852976"><ele>44.0</ele><time>2026-05-05T16:04:57.255Z</time></trkpt><trkpt lat="44.4327197" lon="11.5856506"><ele>44.0</ele><time>2026-05-05T16:04:58.255Z</time></trkpt><trkpt lat="44.4326024" lon="11.5860094"><ele>44.0</ele><time>2026-05-05T16:04:59.254Z</time></trkpt><trkpt lat="44.4324886" lon="11.5863704"><ele>43.5</ele><time>2026-05-05T16:05:00.254Z</time></trkpt><trkpt lat="44.4323697" lon="11.586735"><ele>43.0</ele><time>2026-05-05T16:05:01.254Z</time></trkpt><trkpt lat="44.4322511" lon="11.5870999"><ele>44.0</ele><time>2026-05-05T16:05:02.255Z</time></trkpt><trkpt lat="44.4321372" lon="11.5874588"><ele>45.0</ele><time>2026-05-05T16:05:03.255Z</time></trkpt><trkpt lat="44.4320151" lon="11.5878256"><ele>44.5</ele><time>2026-05-05T16:05:04.255Z</time></trkpt><trkpt lat="44.4318967" lon="11.5881919"><ele>44.0</ele><time>2026-05-05T16:05:05.255Z</time></trkpt><trkpt lat="44.4317779" lon="11.5885562"><ele>44.5</ele><time>2026-05-05T16:05:06.255Z</time></trkpt><trkpt lat="44.4316575" lon="11.5889218"><ele>45.0</ele><time>2026-05-05T16:05:07.254Z</time></trkpt><trkpt lat="44.4315392" lon="11.5892897"><ele>44.5</ele><time>2026-05-05T16:05:08.255Z</time></trkpt><trkpt lat="44.4314186" lon="11.589649"><ele>44.0</ele><time>2026-05-05T16:05:09.255Z</time></trkpt><trkpt lat="44.4313016" lon="11.590013"><ele>45.5</ele><time>2026-05-05T16:05:10.254Z</time></trkpt><trkpt lat="44.4311884" lon="11.5903648"><ele>47.0</ele><time>2026-05-05T16:05:11.254Z</time></trkpt><trkpt lat="44.4310717" lon="11.5907239"><ele>47.0</ele><time>2026-05-05T16:05:12.254Z</time></trkpt><trkpt lat="44.4309532" lon="11.5910777"><ele>47.0</ele><time>2026-05-05T16:05:13.255Z</time></trkpt><trkpt lat="44.4308368" lon="11.5914307"><ele>48.0</ele><time>2026-05-05T16:05:14.254Z</time></trkpt><trkpt lat="44.4307206" lon="11.5917783"><ele>49.0</ele><time>2026-05-05T16:05:15.255Z</time></trkpt><trkpt lat="44.430607" lon="11.5921246"><ele>49.0</ele><time>2026-05-05T16:05:16.254Z</time></trkpt><trkpt lat="44.4304931" lon="11.5924745"><ele>49.0</ele><time>2026-05-05T16:05:17.255Z</time></trkpt><trkpt lat="44.4303804" lon="11.592831"><ele>49.0</ele><time>2026-05-05T16:05:18.254Z</time></trkpt><trkpt lat="44.4302607" lon="11.5931916"><ele>49.0</ele><time>2026-05-05T16:05:19.255Z</time></trkpt><trkpt lat="44.430137" lon="11.5935587"><ele>48.5</ele><time>2026-05-05T16:05:20.254Z</time></trkpt><trkpt lat="44.4300054" lon="11.5939339"><ele>48.0</ele><time>2026-05-05T16:05:21.254Z</time></trkpt><trkpt lat="44.4298751" lon="11.5943167"><ele>48.5</ele><time>2026-05-05T16:05:22.254Z</time></trkpt><trkpt lat="44.4297439" lon="11.5947006"><ele>49.0</ele><time>2026-05-05T16:05:23.255Z</time></trkpt><trkpt lat="44.4296158" lon="11.5950815"><ele>49.0</ele><time>2026-05-05T16:05:24.254Z</time></trkpt><trkpt lat="44.429488" lon="11.5954582"><ele>49.0</ele><time>2026-05-05T16:05:25.255Z</time></trkpt><trkpt lat="44.4293663" lon="11.5958291"><ele>49.0</ele><time>2026-05-05T16:05:26.255Z</time></trkpt><trkpt lat="44.4292454" lon="11.5961916"><ele>49.0</ele><time>2026-05-05T16:05:27.255Z</time></trkpt><trkpt lat="44.4291272" lon="11.5965537"><ele>49.0</ele><time>2026-05-05T16:05:28.254Z</time></trkpt><trkpt lat="44.4290097" lon="11.5969153"><ele>49.0</ele><time>2026-05-05T16:05:29.255Z</time></trkpt><trkpt lat="44.4288938" lon="11.5972788"><ele>50.0</ele><time>2026-05-05T16:05:30.254Z</time></trkpt><trkpt lat="44.4287771" lon="11.5976423"><ele>51.0</ele><time>2026-05-05T16:05:31.255Z</time></trkpt><trkpt lat="44.4286632" lon="11.5979899"><ele>51.5</ele><time>2026-05-05T16:05:32.255Z</time></trkpt><trkpt lat="44.4285541" lon="11.5983449"><ele>52.0</ele><time>2026-05-05T16:05:33.255Z</time></trkpt><trkpt lat="44.4284418" lon="11.5987049"><ele>52.5</ele><time>2026-05-05T16:05:34.255Z</time></trkpt><trkpt lat="44.4283351" lon="11.5990702"><ele>53.0</ele><time>2026-05-05T16:05:35.255Z</time></trkpt><trkpt lat="44.4282297" lon="11.5994322"><ele>52.5</ele><time>2026-05-05T16:05:36.255Z</time></trkpt><trkpt lat="44.4281264" lon="11.5997928"><ele>52.0</ele><time>2026-05-05T16:05:37.255Z</time></trkpt><trkpt lat="44.4280292" lon="11.6001511"><ele>51.5</ele><time>2026-05-05T16:05:38.254Z</time></trkpt><trkpt lat="44.4279271" lon="11.6005112"><ele>51.0</ele><time>2026-05-05T16:05:39.255Z</time></trkpt><trkpt lat="44.4278249" lon="11.600868"><ele>50.5</ele><time>2026-05-05T16:05:40.254Z</time></trkpt><trkpt lat="44.4277246" lon="11.6012309"><ele>50.0</ele><time>2026-05-05T16:05:41.254Z</time></trkpt><trkpt lat="44.4276229" lon="11.6015899"><ele>50.0</ele><time>2026-05-05T16:05:42.254Z</time></trkpt><trkpt lat="44.427522" lon="11.6019505"><ele>50.0</ele><time>2026-05-05T16:05:43.254Z</time></trkpt><trkpt lat="44.4274165" lon="11.6023129"><ele>50.0</ele><time>2026-05-05T16:05:44.254Z</time></trkpt><trkpt lat="44.4273122" lon="11.602673"><ele>50.0</ele><time>2026-05-05T16:05:45.254Z</time></trkpt><trkpt lat="44.4272073" lon="11.6030337"><ele>51.0</ele><time>2026-05-05T16:05:46.255Z</time></trkpt><trkpt lat="44.4271093" lon="11.6033948"><ele>52.0</ele><time>2026-05-05T16:05:47.255Z</time></trkpt><trkpt lat="44.4270086" lon="11.6037533"><ele>52.0</ele><time>2026-05-05T16:05:48.254Z</time></trkpt><trkpt lat="44.4269039" lon="11.6041194"><ele>52.0</ele><time>2026-05-05T16:05:49.255Z</time></trkpt><trkpt lat="44.4267943" lon="11.6044798"><ele>50.5</ele><time>2026-05-05T16:05:50.255Z</time></trkpt><trkpt lat="44.4266883" lon="11.6048461"><ele>49.0</ele><time>2026-05-05T16:05:51.255Z</time></trkpt><trkpt lat="44.4265835" lon="11.6052135"><ele>49.0</ele><time>2026-05-05T16:05:52.254Z</time></trkpt><trkpt lat="44.4264821" lon="11.6055791"><ele>49.0</ele><time>2026-05-05T16:05:53.255Z</time></trkpt><trkpt lat="44.4263748" lon="11.6059438"><ele>49.0</ele><time>2026-05-05T16:05:54.255Z</time></trkpt><trkpt lat="44.4262688" lon="11.6063089"><ele>49.0</ele><time>2026-05-05T16:05:55.255Z</time></trkpt><trkpt lat="44.426165" lon="11.6066737"><ele>49.5</ele><time>2026-05-05T16:05:56.255Z</time></trkpt><trkpt lat="44.4260608" lon="11.6070499"><ele>50.0</ele><time>2026-05-05T16:05:57.255Z</time></trkpt><trkpt lat="44.4259555" lon="11.6074153"><ele>50.0</ele><time>2026-05-05T16:05:58.255Z</time></trkpt><trkpt lat="44.4258526" lon="11.6077774"><ele>50.0</ele><time>2026-05-05T16:05:59.255Z</time></trkpt><trkpt lat="44.4257511" lon="11.6081361"><ele>49.5</ele><time>2026-05-05T16:06:00.255Z</time></trkpt><trkpt lat="44.4256504" lon="11.6084936"><ele>49.0</ele><time>2026-05-05T16:06:01.255Z</time></trkpt><trkpt lat="44.4255459" lon="11.6088522"><ele>49.5</ele><time>2026-05-05T16:06:02.255Z</time></trkpt><trkpt lat="44.4254436" lon="11.6092046"><ele>50.0</ele><time>2026-05-05T16:06:03.254Z</time></trkpt><trkpt lat="44.4253425" lon="11.6095628"><ele>50.0</ele><time>2026-05-05T16:06:04.255Z</time></trkpt><trkpt lat="44.4252444" lon="11.6099167"><ele>50.0</ele><time>2026-05-05T16:06:05.255Z</time></trkpt><trkpt lat="44.4251448" lon="11.6102734"><ele>50.5</ele><time>2026-05-05T16:06:06.254Z</time></trkpt><trkpt lat="44.4250472" lon="11.6106266"><ele>51.0</ele><time>2026-05-05T16:06:07.255Z</time></trkpt><trkpt lat="44.4249488" lon="11.6109798"><ele>50.5</ele><time>2026-05-05T16:06:08.255Z</time></trkpt><trkpt lat="44.4248532" lon="11.6113313"><ele>50.0</ele><time>2026-05-05T16:06:09.255Z</time></trkpt><trkpt lat="44.424751" lon="11.611687"><ele>49.5</ele><time>2026-05-05T16:06:10.255Z</time></trkpt><trkpt lat="44.4246469" lon="11.6120423"><ele>49.0</ele><time>2026-05-05T16:06:11.255Z</time></trkpt><trkpt lat="44.4245342" lon="11.612403"><ele>48.5</ele><time>2026-05-05T16:06:12.254Z</time></trkpt><trkpt lat="44.4244177" lon="11.612762"><ele>48.0</ele><time>2026-05-05T16:06:13.254Z</time></trkpt><trkpt lat="44.4242968" lon="11.6131177"><ele>48.0</ele><time>2026-05-05T16:06:14.255Z</time></trkpt><trkpt lat="44.4241697" lon="11.6134735"><ele>48.0</ele><time>2026-05-05T16:06:15.255Z</time></trkpt><trkpt lat="44.4240421" lon="11.6138237"><ele>48.5</ele><time>2026-05-05T16:06:16.254Z</time></trkpt><trkpt lat="44.4239199" lon="11.6141702"><ele>49.0</ele><time>2026-05-05T16:06:17.255Z</time></trkpt><trkpt lat="44.4237755" lon="11.6145226"><ele>49.0</ele><time>2026-05-05T16:06:18.255Z</time></trkpt><trkpt lat="44.4236264" lon="11.6148746"><ele>49.0</ele><time>2026-05-05T16:06:19.255Z</time></trkpt><trkpt lat="44.4234728" lon="11.6152241"><ele>49.0</ele><time>2026-05-05T16:06:20.254Z</time></trkpt><trkpt lat="44.4233159" lon="11.6155699"><ele>49.0</ele><time>2026-05-05T16:06:21.255Z</time></trkpt><trkpt lat="44.4231529" lon="11.6159098"><ele>49.0</ele><time>2026-05-05T16:06:22.255Z</time></trkpt><trkpt lat="44.422989" lon="11.6162479"><ele>49.0</ele><time>2026-05-05T16:06:23.254Z</time></trkpt><trkpt lat="44.4228212" lon="11.6165792"><ele>48.5</ele><time>2026-05-05T16:06:24.255Z</time></trkpt><trkpt lat="44.4226495" lon="11.6169071"><ele>48.0</ele><time>2026-05-05T16:06:25.254Z</time></trkpt><trkpt lat="44.4224754" lon="11.617228"><ele>48.0</ele><time>2026-05-05T16:06:26.255Z</time></trkpt><trkpt lat="44.4222965" lon="11.6175445"><ele>48.0</ele><time>2026-05-05T16:06:27.255Z</time></trkpt><trkpt lat="44.4221175" lon="11.6178521"><ele>48.0</ele><time>2026-05-05T16:06:28.254Z</time></trkpt><trkpt lat="44.4219351" lon="11.6181522"><ele>48.0</ele><time>2026-05-05T16:06:29.254Z</time></trkpt><trkpt lat="44.4217537" lon="11.6184467"><ele>48.0</ele><time>2026-05-05T16:06:30.255Z</time></trkpt><trkpt lat="44.4215768" lon="11.6187322"><ele>48.0</ele><time>2026-05-05T16:06:31.254Z</time></trkpt><trkpt lat="44.4213928" lon="11.619018"><ele>48.5</ele><time>2026-05-05T16:06:32.255Z</time></trkpt><trkpt lat="44.4212138" lon="11.6193027"><ele>49.0</ele><time>2026-05-05T16:06:33.254Z</time></trkpt><trkpt lat="44.4210353" lon="11.6195881"><ele>49.0</ele><time>2026-05-05T16:06:34.255Z</time></trkpt><trkpt lat="44.4208553" lon="11.6198713"><ele>49.0</ele><time>2026-05-05T16:06:35.255Z</time></trkpt><trkpt lat="44.4206694" lon="11.6201505"><ele>48.5</ele><time>2026-05-05T16:06:36.255Z</time></trkpt><trkpt lat="44.420489" lon="11.6204301"><ele>48.0</ele><time>2026-05-05T16:06:37.254Z</time></trkpt><trkpt lat="44.420315" lon="11.6207054"><ele>47.0</ele><time>2026-05-05T16:06:38.254Z</time></trkpt><trkpt lat="44.4201398" lon="11.620972"><ele>46.0</ele><time>2026-05-05T16:06:39.255Z</time></trkpt><trkpt lat="44.4199683" lon="11.6212406"><ele>46.0</ele><time>2026-05-05T16:06:40.254Z</time></trkpt><trkpt lat="44.4198018" lon="11.6215083"><ele>46.0</ele><time>2026-05-05T16:06:41.254Z</time></trkpt><trkpt lat="44.4196353" lon="11.6217734"><ele>45.0</ele><time>2026-05-05T16:06:42.255Z</time></trkpt><trkpt lat="44.4194675" lon="11.6220366"><ele>44.0</ele><time>2026-05-05T16:06:43.255Z</time></trkpt><trkpt lat="44.4193051" lon="11.6222935"><ele>44.0</ele><time>2026-05-05T16:06:44.255Z</time></trkpt><trkpt lat="44.4191417" lon="11.6225489"><ele>44.0</ele><time>2026-05-05T16:06:45.255Z</time></trkpt><trkpt lat="44.418982" lon="11.622796"><ele>43.5</ele><time>2026-05-05T16:06:46.254Z</time></trkpt><trkpt lat="44.4188238" lon="11.6230425"><ele>43.0</ele><time>2026-05-05T16:06:47.254Z</time></trkpt><trkpt lat="44.4186657" lon="11.6232885"><ele>43.0</ele><time>2026-05-05T16:06:48.255Z</time></trkpt><trkpt lat="44.4185073" lon="11.623538"><ele>43.0</ele><time>2026-05-05T16:06:49.254Z</time></trkpt><trkpt lat="44.4183506" lon="11.6237859"><ele>42.0</ele><time>2026-05-05T16:06:50.254Z</time></trkpt><trkpt lat="44.4181869" lon="11.6240461"><ele>41.0</ele><time>2026-05-05T16:06:51.255Z</time></trkpt><trkpt lat="44.4180236" lon="11.6243165"><ele>42.5</ele><time>2026-05-05T16:06:52.255Z</time></trkpt><trkpt lat="44.417849" lon="11.6246046"><ele>44.0</ele><time>2026-05-05T16:06:53.254Z</time></trkpt><trkpt lat="44.417667" lon="11.6249003"><ele>44.0</ele><time>2026-05-05T16:06:54.255Z</time></trkpt><trkpt lat="44.4174792" lon="11.6252042"><ele>44.0</ele><time>2026-05-05T16:06:55.254Z</time></trkpt><trkpt lat="44.4172828" lon="11.6255188"><ele>43.5</ele><time>2026-05-05T16:06:56.254Z</time></trkpt><trkpt lat="44.4170799" lon="11.6258389"><ele>43.0</ele><time>2026-05-05T16:06:57.255Z</time></trkpt><trkpt lat="44.4168741" lon="11.6261638"><ele>43.0</ele><time>2026-05-05T16:06:58.254Z</time></trkpt><trkpt lat="44.416669" lon="11.6264929"><ele>43.0</ele><time>2026-05-05T16:06:59.255Z</time></trkpt><trkpt lat="44.4164663" lon="11.6268241"><ele>43.5</ele><time>2026-05-05T16:07:00.255Z</time></trkpt><trkpt lat="44.4162681" lon="11.6271535"><ele>44.0</ele><time>2026-05-05T16:07:01.254Z</time></trkpt><trkpt lat="44.4160825" lon="11.6274877"><ele>44.5</ele><time>2026-05-05T16:07:02.255Z</time></trkpt><trkpt lat="44.4159107" lon="11.6278308"><ele>45.0</ele><time>2026-05-05T16:07:03.255Z</time></trkpt><trkpt lat="44.4157411" lon="11.6281882"><ele>45.0</ele><time>2026-05-05T16:07:04.255Z</time></trkpt><trkpt lat="44.4155894" lon="11.6285538"><ele>45.0</ele><time>2026-05-05T16:07:05.255Z</time></trkpt><trkpt lat="44.4154442" lon="11.6289135"><ele>45.5</ele><time>2026-05-05T16:07:06.254Z</time></trkpt><trkpt lat="44.415312" lon="11.6292827"><ele>46.0</ele><time>2026-05-05T16:07:07.255Z</time></trkpt><trkpt lat="44.4151846" lon="11.6296616"><ele>46.0</ele><time>2026-05-05T16:07:08.254Z</time></trkpt><trkpt lat="44.4150645" lon="11.6300374"><ele>46.0</ele><time>2026-05-05T16:07:09.254Z</time></trkpt><trkpt lat="44.4149561" lon="11.6304141"><ele>45.5</ele><time>2026-05-05T16:07:10.255Z</time></trkpt><trkpt lat="44.4148557" lon="11.6307958"><ele>45.0</ele><time>2026-05-05T16:07:11.254Z</time></trkpt><trkpt lat="44.4147691" lon="11.6311743"><ele>45.0</ele><time>2026-05-05T16:07:12.254Z</time></trkpt><trkpt lat="44.4146882" lon="11.6315681"><ele>45.0</ele><time>2026-05-05T16:07:13.255Z</time></trkpt><trkpt lat="44.4146171" lon="11.6319617"><ele>44.0</ele><time>2026-05-05T16:07:14.255Z</time></trkpt><trkpt lat="44.4145574" lon="11.6323632"><ele>43.0</ele><time>2026-05-05T16:07:15.254Z</time></trkpt><trkpt lat="44.414504" lon="11.6327674"><ele>42.0</ele><time>2026-05-05T16:07:16.255Z</time></trkpt><trkpt lat="44.414452" lon="11.6331652"><ele>41.0</ele><time>2026-05-05T16:07:17.255Z</time></trkpt><trkpt lat="44.4144027" lon="11.633565"><ele>42.0</ele><time>2026-05-05T16:07:18.255Z</time></trkpt><trkpt lat="44.4143534" lon="11.6339683"><ele>43.0</ele><time>2026-05-05T16:07:19.255Z</time></trkpt><trkpt lat="44.4143013" lon="11.6343702"><ele>43.5</ele><time>2026-05-05T16:07:20.254Z</time></trkpt><trkpt lat="44.4142513" lon="11.6347719"><ele>44.0</ele><time>2026-05-05T16:07:21.255Z</time></trkpt><trkpt lat="44.4142008" lon="11.6351741"><ele>43.0</ele><time>2026-05-05T16:07:22.255Z</time></trkpt><trkpt lat="44.4141539" lon="11.6355714"><ele>42.0</ele><time>2026-05-05T16:07:23.255Z</time></trkpt><trkpt lat="44.4141053" lon="11.6359723"><ele>41.5</ele><time>2026-05-05T16:07:24.255Z</time></trkpt><trkpt lat="44.4140539" lon="11.6363687"><ele>41.0</ele><time>2026-05-05T16:07:25.255Z</time></trkpt><trkpt lat="44.414004" lon="11.6367606"><ele>41.0</ele><time>2026-05-05T16:07:26.255Z</time></trkpt><trkpt lat="44.413956" lon="11.6371534"><ele>41.0</ele><time>2026-05-05T16:07:27.254Z</time></trkpt><trkpt lat="44.4139063" lon="11.6375423"><ele>41.5</ele><time>2026-05-05T16:07:28.255Z</time></trkpt><trkpt lat="44.4138597" lon="11.637928"><ele>42.0</ele><time>2026-05-05T16:07:29.255Z</time></trkpt><trkpt lat="44.4138156" lon="11.638316"><ele>43.0</ele><time>2026-05-05T16:07:30.255Z</time></trkpt><trkpt lat="44.4137695" lon="11.6387012"><ele>44.0</ele><time>2026-05-05T16:07:31.255Z</time></trkpt><trkpt lat="44.4137211" lon="11.6390818"><ele>44.0</ele><time>2026-05-05T16:07:32.254Z</time></trkpt><trkpt lat="44.413672" lon="11.639464"><ele>44.0</ele><time>2026-05-05T16:07:33.255Z</time></trkpt><trkpt lat="44.4136228" lon="11.6398475"><ele>43.5</ele><time>2026-05-05T16:07:34.255Z</time></trkpt><trkpt lat="44.4135763" lon="11.6402276"><ele>43.0</ele><time>2026-05-05T16:07:35.254Z</time></trkpt><trkpt lat="44.4135315" lon="11.6406099"><ele>42.5</ele><time>2026-05-05T16:07:36.255Z</time></trkpt><trkpt lat="44.4134879" lon="11.6409963"><ele>42.0</ele><time>2026-05-05T16:07:37.255Z</time></trkpt><trkpt lat="44.4134384" lon="11.6413792"><ele>42.0</ele><time>2026-05-05T16:07:38.255Z</time></trkpt><trkpt lat="44.4133946" lon="11.641764"><ele>42.0</ele><time>2026-05-05T16:07:39.254Z</time></trkpt><trkpt lat="44.4133529" lon="11.6421496"><ele>42.0</ele><time>2026-05-05T16:07:40.254Z</time></trkpt><trkpt lat="44.4133076" lon="11.6425429"><ele>42.0</ele><time>2026-05-05T16:07:41.255Z</time></trkpt><trkpt lat="44.4132625" lon="11.6429359"><ele>42.0</ele><time>2026-05-05T16:07:42.255Z</time></trkpt><trkpt lat="44.4132128" lon="11.6433247"><ele>42.0</ele><time>2026-05-05T16:07:43.255Z</time></trkpt><trkpt lat="44.4131659" lon="11.6437144"><ele>41.0</ele><time>2026-05-05T16:07:44.255Z</time></trkpt><trkpt lat="44.4131164" lon="11.6441074"><ele>40.0</ele><time>2026-05-05T16:07:45.255Z</time></trkpt><trkpt lat="44.4130704" lon="11.6444995"><ele>40.0</ele><time>2026-05-05T16:07:46.255Z</time></trkpt><trkpt lat="44.4130234" lon="11.6448913"><ele>40.0</ele><time>2026-05-05T16:07:47.254Z</time></trkpt><trkpt lat="44.4129727" lon="11.6452862"><ele>40.0</ele><time>2026-05-05T16:07:48.255Z</time></trkpt><trkpt lat="44.4129216" lon="11.6456822"><ele>40.0</ele><time>2026-05-05T16:07:49.254Z</time></trkpt><trkpt lat="44.412872" lon="11.646079"><ele>39.5</ele><time>2026-05-05T16:07:50.255Z</time></trkpt><trkpt lat="44.412829" lon="11.6464715"><ele>39.0</ele><time>2026-05-05T16:07:51.254Z</time></trkpt><trkpt lat="44.4127797" lon="11.6468623"><ele>39.5</ele><time>2026-05-05T16:07:52.254Z</time></trkpt><trkpt lat="44.4127271" lon="11.6472514"><ele>40.0</ele><time>2026-05-05T16:07:53.255Z</time></trkpt><trkpt lat="44.4126786" lon="11.6476531"><ele>39.5</ele><time>2026-05-05T16:07:54.255Z</time></trkpt><trkpt lat="44.4126274" lon="11.6480543"><ele>39.0</ele><time>2026-05-05T16:07:55.254Z</time></trkpt><trkpt lat="44.4125808" lon="11.6484539"><ele>40.0</ele><time>2026-05-05T16:07:56.254Z</time></trkpt><trkpt lat="44.4125315" lon="11.6488537"><ele>41.0</ele><time>2026-05-05T16:07:57.254Z</time></trkpt><trkpt lat="44.4124811" lon="11.6492568"><ele>40.0</ele><time>2026-05-05T16:07:58.255Z</time></trkpt><trkpt lat="44.4124295" lon="11.6496603"><ele>39.0</ele><time>2026-05-05T16:07:59.254Z</time></trkpt><trkpt lat="44.4123769" lon="11.6500675"><ele>38.5</ele><time>2026-05-05T16:08:00.255Z</time></trkpt><trkpt lat="44.4123314" lon="11.6504794"><ele>38.0</ele><time>2026-05-05T16:08:01.254Z</time></trkpt><trkpt lat="44.4122791" lon="11.6508908"><ele>38.0</ele><time>2026-05-05T16:08:02.254Z</time></trkpt><trkpt lat="44.4122293" lon="11.6513069"><ele>38.0</ele><time>2026-05-05T16:08:03.254Z</time></trkpt><trkpt lat="44.4121786" lon="11.6517187"><ele>39.0</ele><time>2026-05-05T16:08:04.255Z</time></trkpt><trkpt lat="44.4121295" lon="11.652128"><ele>40.0</ele><time>2026-05-05T16:08:05.254Z</time></trkpt><trkpt lat="44.4120772" lon="11.6525408"><ele>40.0</ele><time>2026-05-05T16:08:06.254Z</time></trkpt><trkpt lat="44.4120257" lon="11.6529617"><ele>40.0</ele><time>2026-05-05T16:08:07.254Z</time></trkpt><trkpt lat="44.4119769" lon="11.6533854"><ele>40.0</ele><time>2026-05-05T16:08:08.254Z</time></trkpt><trkpt lat="44.4119273" lon="11.6538011"><ele>40.0</ele><time>2026-05-05T16:08:09.254Z</time></trkpt><trkpt lat="44.4118742" lon="11.6542175"><ele>39.5</ele><time>2026-05-05T16:08:10.255Z</time></trkpt><trkpt lat="44.4118206" lon="11.6546364"><ele>39.0</ele><time>2026-05-05T16:08:11.255Z</time></trkpt><trkpt lat="44.4117685" lon="11.6550563"><ele>39.5</ele><time>2026-05-05T16:08:12.254Z</time></trkpt><trkpt lat="44.411717" lon="11.6554833"><ele>40.0</ele><time>2026-05-05T16:08:13.255Z</time></trkpt><trkpt lat="44.4116655" lon="11.6559044"><ele>40.0</ele><time>2026-05-05T16:08:14.254Z</time></trkpt><trkpt lat="44.4116143" lon="11.6563259"><ele>40.0</ele><time>2026-05-05T16:08:15.254Z</time></trkpt><trkpt lat="44.4115636" lon="11.6567418"><ele>40.5</ele><time>2026-05-05T16:08:16.255Z</time></trkpt><trkpt lat="44.4115149" lon="11.6571575"><ele>41.0</ele><time>2026-05-05T16:08:17.254Z</time></trkpt><trkpt lat="44.4114647" lon="11.6575751"><ele>42.0</ele><time>2026-05-05T16:08:18.254Z</time></trkpt><trkpt lat="44.4114129" lon="11.6579855"><ele>43.0</ele><time>2026-05-05T16:08:19.255Z</time></trkpt><trkpt lat="44.4113648" lon="11.6583908"><ele>41.5</ele><time>2026-05-05T16:08:20.254Z</time></trkpt><trkpt lat="44.411314" lon="11.6587949"><ele>40.0</ele><time>2026-05-05T16:08:21.255Z</time></trkpt><trkpt lat="44.4112623" lon="11.6591935"><ele>41.0</ele><time>2026-05-05T16:08:22.255Z</time></trkpt><trkpt lat="44.4112093" lon="11.6595916"><ele>42.0</ele><time>2026-05-05T16:08:23.255Z</time></trkpt><trkpt lat="44.411158" lon="11.6599888"><ele>42.0</ele><time>2026-05-05T16:08:24.254Z</time></trkpt><trkpt lat="44.4110988" lon="11.6603892"><ele>42.0</ele><time>2026-05-05T16:08:25.254Z</time></trkpt><trkpt lat="44.4110363" lon="11.6607865"><ele>41.5</ele><time>2026-05-05T16:08:26.255Z</time></trkpt><trkpt lat="44.4109648" lon="11.6611838"><ele>41.0</ele><time>2026-05-05T16:08:27.255Z</time></trkpt><trkpt lat="44.4108883" lon="11.6615737"><ele>40.5</ele><time>2026-05-05T16:08:28.255Z</time></trkpt><trkpt lat="44.410811" lon="11.6619665"><ele>40.0</ele><time>2026-05-05T16:08:29.255Z</time></trkpt><trkpt lat="44.410725" lon="11.6623536"><ele>40.0</ele><time>2026-05-05T16:08:30.254Z</time></trkpt><trkpt lat="44.4106405" lon="11.6627421"><ele>40.0</ele><time>2026-05-05T16:08:31.255Z</time></trkpt><trkpt lat="44.4105474" lon="11.6631312"><ele>41.5</ele><time>2026-05-05T16:08:32.255Z</time></trkpt><trkpt lat="44.4104509" lon="11.6635175"><ele>43.0</ele><time>2026-05-05T16:08:33.255Z</time></trkpt><trkpt lat="44.4103451" lon="11.6639063"><ele>43.0</ele><time>2026-05-05T16:08:34.255Z</time></trkpt><trkpt lat="44.4102331" lon="11.6642972"><ele>43.0</ele><time>2026-05-05T16:08:35.255Z</time></trkpt><trkpt lat="44.4101176" lon="11.6646804"><ele>42.0</ele><time>2026-05-05T16:08:36.254Z</time></trkpt><trkpt lat="44.4099945" lon="11.6650692"><ele>41.0</ele><time>2026-05-05T16:08:37.254Z</time></trkpt><trkpt lat="44.4098641" lon="11.6654537"><ele>41.0</ele><time>2026-05-05T16:08:38.255Z</time></trkpt><trkpt lat="44.4097222" lon="11.6658439"><ele>41.0</ele><time>2026-05-05T16:08:39.255Z</time></trkpt><trkpt lat="44.4095815" lon="11.6662293"><ele>41.0</ele><time>2026-05-05T16:08:40.254Z</time></trkpt><trkpt lat="44.4094404" lon="11.666611"><ele>41.0</ele><time>2026-05-05T16:08:41.255Z</time></trkpt><trkpt lat="44.4092965" lon="11.6669898"><ele>40.5</ele><time>2026-05-05T16:08:42.254Z</time></trkpt><trkpt lat="44.4091535" lon="11.6673634"><ele>40.0</ele><time>2026-05-05T16:08:43.255Z</time></trkpt><trkpt lat="44.4090095" lon="11.667736"><ele>41.0</ele><time>2026-05-05T16:08:44.254Z</time></trkpt><trkpt lat="44.4088715" lon="11.6681064"><ele>42.0</ele><time>2026-05-05T16:08:45.254Z</time></trkpt><trkpt lat="44.4087345" lon="11.6684755"><ele>42.5</ele><time>2026-05-05T16:08:46.255Z</time></trkpt><trkpt lat="44.4085979" lon="11.6688416"><ele>43.0</ele><time>2026-05-05T16:08:47.255Z</time></trkpt><trkpt lat="44.4084581" lon="11.6692108"><ele>42.5</ele><time>2026-05-05T16:08:48.254Z</time></trkpt><trkpt lat="44.4083205" lon="11.6695825"><ele>42.0</ele><time>2026-05-05T16:08:49.255Z</time></trkpt><trkpt lat="44.4081814" lon="11.6699549"><ele>41.5</ele><time>2026-05-05T16:08:50.255Z</time></trkpt><trkpt lat="44.4080509" lon="11.6703244"><ele>41.0</ele><time>2026-05-05T16:08:51.254Z</time></trkpt><trkpt lat="44.4079121" lon="11.6707015"><ele>40.5</ele><time>2026-05-05T16:08:52.255Z</time></trkpt><trkpt lat="44.4077707" lon="11.6710902"><ele>40.0</ele><time>2026-05-05T16:08:53.254Z</time></trkpt><trkpt lat="44.4076285" lon="11.6714745"><ele>40.0</ele><time>2026-05-05T16:08:54.255Z</time></trkpt><trkpt lat="44.4074885" lon="11.6718598"><ele>40.0</ele><time>2026-05-05T16:08:55.255Z</time></trkpt><trkpt lat="44.4073441" lon="11.672247"><ele>40.0</ele><time>2026-05-05T16:08:56.255Z</time></trkpt><trkpt lat="44.4072008" lon="11.6726303"><ele>40.0</ele><time>2026-05-05T16:08:57.255Z</time></trkpt><trkpt lat="44.4070559" lon="11.6730175"><ele>40.0</ele><time>2026-05-05T16:08:58.254Z</time></trkpt><trkpt lat="44.4069074" lon="11.6734108"><ele>40.0</ele><time>2026-05-05T16:08:59.255Z</time></trkpt><trkpt lat="44.4067634" lon="11.6738034"><ele>40.0</ele><time>2026-05-05T16:09:00.254Z</time></trkpt><trkpt lat="44.4066209" lon="11.6741936"><ele>40.0</ele><time>2026-05-05T16:09:01.254Z</time></trkpt><trkpt lat="44.4064841" lon="11.6745767"><ele>40.0</ele><time>2026-05-05T16:09:02.255Z</time></trkpt><trkpt lat="44.4063423" lon="11.674973"><ele>40.0</ele><time>2026-05-05T16:09:03.255Z</time></trkpt><trkpt lat="44.4061984" lon="11.6753625"><ele>41.5</ele><time>2026-05-05T16:09:04.255Z</time></trkpt><trkpt lat="44.4060556" lon="11.6757445"><ele>43.0</ele><time>2026-05-05T16:09:05.254Z</time></trkpt><trkpt lat="44.4059158" lon="11.6761242"><ele>43.5</ele><time>2026-05-05T16:09:06.255Z</time></trkpt><trkpt lat="44.4057766" lon="11.676497"><ele>44.0</ele><time>2026-05-05T16:09:07.255Z</time></trkpt><trkpt lat="44.405633" lon="11.676881"><ele>41.5</ele><time>2026-05-05T16:09:08.254Z</time></trkpt><trkpt lat="44.4054903" lon="11.6772649"><ele>39.0</ele><time>2026-05-05T16:09:09.255Z</time></trkpt><trkpt lat="44.4053444" lon="11.6776509"><ele>39.0</ele><time>2026-05-05T16:09:10.255Z</time></trkpt><trkpt lat="44.4051997" lon="11.6780416"><ele>39.0</ele><time>2026-05-05T16:09:11.255Z</time></trkpt><trkpt lat="44.4050516" lon="11.6784342"><ele>39.5</ele><time>2026-05-05T16:09:12.254Z</time></trkpt><trkpt lat="44.4049061" lon="11.6788283"><ele>40.0</ele><time>2026-05-05T16:09:13.255Z</time></trkpt><trkpt lat="44.404761" lon="11.6792171"><ele>39.5</ele><time>2026-05-05T16:09:14.255Z</time></trkpt><trkpt lat="44.4046162" lon="11.6796063"><ele>39.0</ele><time>2026-05-05T16:09:15.255Z</time></trkpt><trkpt lat="44.4044727" lon="11.6799917"><ele>39.5</ele><time>2026-05-05T16:09:16.255Z</time></trkpt><trkpt lat="44.4043289" lon="11.6803799"><ele>40.0</ele><time>2026-05-05T16:09:17.255Z</time></trkpt><trkpt lat="44.4041859" lon="11.680767"><ele>39.5</ele><time>2026-05-05T16:09:18.255Z</time></trkpt><trkpt lat="44.4040464" lon="11.6811476"><ele>39.0</ele><time>2026-05-05T16:09:19.254Z</time></trkpt><trkpt lat="44.4039065" lon="11.6815239"><ele>39.0</ele><time>2026-05-05T16:09:20.255Z</time></trkpt><trkpt lat="44.4037718" lon="11.6818965"><ele>39.0</ele><time>2026-05-05T16:09:21.255Z</time></trkpt><trkpt lat="44.4036358" lon="11.6822669"><ele>39.0</ele><time>2026-05-05T16:09:22.255Z</time></trkpt><trkpt lat="44.4035046" lon="11.6826251"><ele>39.0</ele><time>2026-05-05T16:09:23.254Z</time></trkpt><trkpt lat="44.4033731" lon="11.6829972"><ele>39.5</ele><time>2026-05-05T16:09:24.254Z</time></trkpt><trkpt lat="44.4032434" lon="11.6833684"><ele>40.0</ele><time>2026-05-05T16:09:25.255Z</time></trkpt><trkpt lat="44.4031098" lon="11.6837431"><ele>39.5</ele><time>2026-05-05T16:09:26.254Z</time></trkpt><trkpt lat="44.4029734" lon="11.6841103"><ele>39.0</ele><time>2026-05-05T16:09:27.254Z</time></trkpt><trkpt lat="44.402837" lon="11.6844793"><ele>39.0</ele><time>2026-05-05T16:09:28.255Z</time></trkpt><trkpt lat="44.402701" lon="11.6848437"><ele>39.0</ele><time>2026-05-05T16:09:29.255Z</time></trkpt><trkpt lat="44.4025695" lon="11.6852096"><ele>39.0</ele><time>2026-05-05T16:09:30.255Z</time></trkpt><trkpt lat="44.4024377" lon="11.6855687"><ele>39.0</ele><time>2026-05-05T16:09:31.255Z</time></trkpt><trkpt lat="44.4023032" lon="11.685924"><ele>39.0</ele><time>2026-05-05T16:09:32.254Z</time></trkpt><trkpt lat="44.4021726" lon="11.6862748"><ele>39.0</ele><time>2026-05-05T16:09:33.255Z</time></trkpt><trkpt lat="44.4020404" lon="11.6866247"><ele>39.5</ele><time>2026-05-05T16:09:34.255Z</time></trkpt><trkpt lat="44.4019117" lon="11.6869787"><ele>40.0</ele><time>2026-05-05T16:09:35.255Z</time></trkpt><trkpt lat="44.4017829" lon="11.6873201"><ele>40.0</ele><time>2026-05-05T16:09:36.255Z</time></trkpt><trkpt lat="44.4016521" lon="11.6876789"><ele>40.0</ele><time>2026-05-05T16:09:37.255Z</time></trkpt><trkpt lat="44.4015193" lon="11.6880449"><ele>40.5</ele><time>2026-05-05T16:09:38.254Z</time></trkpt><trkpt lat="44.4013786" lon="11.6884146"><ele>41.0</ele><time>2026-05-05T16:09:39.254Z</time></trkpt><trkpt lat="44.401237" lon="11.6887904"><ele>41.0</ele><time>2026-05-05T16:09:40.255Z</time></trkpt><trkpt lat="44.4010987" lon="11.6891632"><ele>41.0</ele><time>2026-05-05T16:09:41.254Z</time></trkpt><trkpt lat="44.4009626" lon="11.6895403"><ele>40.5</ele><time>2026-05-05T16:09:42.255Z</time></trkpt><trkpt lat="44.4008256" lon="11.6899137"><ele>40.0</ele><time>2026-05-05T16:09:43.255Z</time></trkpt><trkpt lat="44.4006927" lon="11.6902827"><ele>39.0</ele><time>2026-05-05T16:09:44.255Z</time></trkpt><trkpt lat="44.4005585" lon="11.6906535"><ele>38.0</ele><time>2026-05-05T16:09:45.254Z</time></trkpt><trkpt lat="44.4004224" lon="11.6910221"><ele>38.5</ele><time>2026-05-05T16:09:46.254Z</time></trkpt><trkpt lat="44.4002861" lon="11.6913892"><ele>39.0</ele><time>2026-05-05T16:09:47.254Z</time></trkpt><trkpt lat="44.4001545" lon="11.6917527"><ele>39.5</ele><time>2026-05-05T16:09:48.254Z</time></trkpt><trkpt lat="44.4000194" lon="11.6921107"><ele>40.0</ele><time>2026-05-05T16:09:49.255Z</time></trkpt><trkpt lat="44.3998861" lon="11.6924697"><ele>40.5</ele><time>2026-05-05T16:09:50.255Z</time></trkpt><trkpt lat="44.3997501" lon="11.6928247"><ele>41.0</ele><time>2026-05-05T16:09:51.254Z</time></trkpt><trkpt lat="44.3996125" lon="11.6931846"><ele>41.0</ele><time>2026-05-05T16:09:52.255Z</time></trkpt><trkpt lat="44.3994838" lon="11.6935387"><ele>41.0</ele><time>2026-05-05T16:09:53.255Z</time></trkpt><trkpt lat="44.3993515" lon="11.6938929"><ele>39.5</ele><time>2026-05-05T16:09:54.254Z</time></trkpt><trkpt lat="44.3992228" lon="11.694247"><ele>38.0</ele><time>2026-05-05T16:09:55.255Z</time></trkpt><trkpt lat="44.3990899" lon="11.6946033"><ele>37.5</ele><time>2026-05-05T16:09:56.254Z</time></trkpt><trkpt lat="44.3989645" lon="11.6949453"><ele>37.0</ele><time>2026-05-05T16:09:57.255Z</time></trkpt><trkpt lat="44.3988427" lon="11.6952831"><ele>37.0</ele><time>2026-05-05T16:09:58.254Z</time></trkpt><trkpt lat="44.3987184" lon="11.6956176"><ele>37.0</ele><time>2026-05-05T16:09:59.254Z</time></trkpt><trkpt lat="44.3985993" lon="11.6959531"><ele>37.0</ele><time>2026-05-05T16:10:00.254Z</time></trkpt><trkpt lat="44.3984761" lon="11.6962839"><ele>37.0</ele><time>2026-05-05T16:10:01.254Z</time></trkpt><trkpt lat="44.3983534" lon="11.696613"><ele>37.0</ele><time>2026-05-05T16:10:02.255Z</time></trkpt><trkpt lat="44.3982305" lon="11.696941"><ele>37.0</ele><time>2026-05-05T16:10:03.255Z</time></trkpt><trkpt lat="44.3981058" lon="11.697269"><ele>37.0</ele><time>2026-05-05T16:10:04.255Z</time></trkpt><trkpt lat="44.3979864" lon="11.6975966"><ele>37.0</ele><time>2026-05-05T16:10:05.255Z</time></trkpt><trkpt lat="44.3978667" lon="11.6979161"><ele>37.0</ele><time>2026-05-05T16:10:06.254Z</time></trkpt><trkpt lat="44.3977483" lon="11.6982411"><ele>37.0</ele><time>2026-05-05T16:10:07.255Z</time></trkpt><trkpt lat="44.3976264" lon="11.6985699"><ele>36.5</ele><time>2026-05-05T16:10:08.255Z</time></trkpt><trkpt lat="44.3975029" lon="11.6988961"><ele>36.0</ele><time>2026-05-05T16:10:09.255Z</time></trkpt><trkpt lat="44.3973741" lon="11.6992265"><ele>36.0</ele><time>2026-05-05T16:10:10.254Z</time></trkpt><trkpt lat="44.3972467" lon="11.6995516"><ele>36.0</ele><time>2026-05-05T16:10:11.255Z</time></trkpt><trkpt lat="44.3971146" lon="11.6998707"><ele>36.0</ele><time>2026-05-05T16:10:12.254Z</time></trkpt><trkpt lat="44.3969861" lon="11.700185"><ele>36.0</ele><time>2026-05-05T16:10:13.254Z</time></trkpt><trkpt lat="44.3968493" lon="11.7004966"><ele>35.5</ele><time>2026-05-05T16:10:14.255Z</time></trkpt><trkpt lat="44.3967064" lon="11.700806"><ele>35.0</ele><time>2026-05-05T16:10:15.255Z</time></trkpt><trkpt lat="44.3965617" lon="11.7011174"><ele>35.0</ele><time>2026-05-05T16:10:16.254Z</time></trkpt><trkpt lat="44.3964149" lon="11.7014227"><ele>35.0</ele><time>2026-05-05T16:10:17.255Z</time></trkpt><trkpt lat="44.3962644" lon="11.7017284"><ele>35.5</ele><time>2026-05-05T16:10:18.254Z</time></trkpt><trkpt lat="44.3961132" lon="11.7020287"><ele>36.0</ele><time>2026-05-05T16:10:19.254Z</time></trkpt><trkpt lat="44.3959623" lon="11.702324"><ele>36.0</ele><time>2026-05-05T16:10:20.255Z</time></trkpt><trkpt lat="44.3958113" lon="11.7026154"><ele>36.0</ele><time>2026-05-05T16:10:21.255Z</time></trkpt><trkpt lat="44.3956639" lon="11.7028988"><ele>35.5</ele><time>2026-05-05T16:10:22.254Z</time></trkpt><trkpt lat="44.395518" lon="11.7031893"><ele>35.0</ele><time>2026-05-05T16:10:23.255Z</time></trkpt><trkpt lat="44.3953733" lon="11.7034717"><ele>34.5</ele><time>2026-05-05T16:10:24.254Z</time></trkpt><trkpt lat="44.3952256" lon="11.7037638"><ele>34.0</ele><time>2026-05-05T16:10:25.254Z</time></trkpt><trkpt lat="44.3950829" lon="11.7040434"><ele>34.0</ele><time>2026-05-05T16:10:26.255Z</time></trkpt><trkpt lat="44.3949387" lon="11.7043296"><ele>34.0</ele><time>2026-05-05T16:10:27.255Z</time></trkpt><trkpt lat="44.394791" lon="11.7046188"><ele>33.5</ele><time>2026-05-05T16:10:28.255Z</time></trkpt><trkpt lat="44.3946429" lon="11.7049069"><ele>33.0</ele><time>2026-05-05T16:10:29.255Z</time></trkpt><trkpt lat="44.3945003" lon="11.7051973"><ele>33.5</ele><time>2026-05-05T16:10:30.255Z</time></trkpt><trkpt lat="44.3943544" lon="11.7054844"><ele>34.0</ele><time>2026-05-05T16:10:31.254Z</time></trkpt><trkpt lat="44.3942051" lon="11.7057799"><ele>34.0</ele><time>2026-05-05T16:10:32.255Z</time></trkpt><trkpt lat="44.3940517" lon="11.7060757"><ele>34.0</ele><time>2026-05-05T16:10:33.255Z</time></trkpt><trkpt lat="44.3939039" lon="11.7063696"><ele>34.0</ele><time>2026-05-05T16:10:34.255Z</time></trkpt><trkpt lat="44.3937561" lon="11.7066674"><ele>34.0</ele><time>2026-05-05T16:10:35.255Z</time></trkpt><trkpt lat="44.3936019" lon="11.7069653"><ele>34.0</ele><time>2026-05-05T16:10:36.255Z</time></trkpt><trkpt lat="44.3934503" lon="11.7072651"><ele>34.0</ele><time>2026-05-05T16:10:37.254Z</time></trkpt><trkpt lat="44.3932954" lon="11.7075631"><ele>34.0</ele><time>2026-05-05T16:10:38.254Z</time></trkpt><trkpt lat="44.3931381" lon="11.7078765"><ele>34.0</ele><time>2026-05-05T16:10:39.255Z</time></trkpt><trkpt lat="44.3929848" lon="11.7081852"><ele>34.0</ele><time>2026-05-05T16:10:40.254Z</time></trkpt><trkpt lat="44.3928304" lon="11.708499"><ele>34.0</ele><time>2026-05-05T16:10:41.255Z</time></trkpt><trkpt lat="44.3926795" lon="11.7088142"><ele>34.0</ele><time>2026-05-05T16:10:42.255Z</time></trkpt><trkpt lat="44.3925333" lon="11.7091276"><ele>34.0</ele><time>2026-05-05T16:10:43.254Z</time></trkpt><trkpt lat="44.3923914" lon="11.7094458"><ele>34.5</ele><time>2026-05-05T16:10:44.254Z</time></trkpt><trkpt lat="44.3922535" lon="11.7097653"><ele>35.0</ele><time>2026-05-05T16:10:45.255Z</time></trkpt><trkpt lat="44.3921183" lon="11.7100799"><ele>34.0</ele><time>2026-05-05T16:10:46.255Z</time></trkpt><trkpt lat="44.391986" lon="11.7103973"><ele>33.0</ele><time>2026-05-05T16:10:47.255Z</time></trkpt><trkpt lat="44.3918616" lon="11.7107279"><ele>33.0</ele><time>2026-05-05T16:10:48.255Z</time></trkpt><trkpt lat="44.3917366" lon="11.7110588"><ele>33.0</ele><time>2026-05-05T16:10:49.254Z</time></trkpt><trkpt lat="44.3916131" lon="11.7113916"><ele>32.0</ele><time>2026-05-05T16:10:50.254Z</time></trkpt><trkpt lat="44.391493" lon="11.711725"><ele>31.0</ele><time>2026-05-05T16:10:51.254Z</time></trkpt><trkpt lat="44.39137" lon="11.7120593"><ele>32.0</ele><time>2026-05-05T16:10:52.255Z</time></trkpt><trkpt lat="44.3912481" lon="11.7123982"><ele>33.0</ele><time>2026-05-05T16:10:53.254Z</time></trkpt><trkpt lat="44.3911443" lon="11.712729"><ele>33.0</ele><time>2026-05-05T16:10:54.255Z</time></trkpt><trkpt lat="44.3910223" lon="11.7130644"><ele>33.0</ele><time>2026-05-05T16:10:55.255Z</time></trkpt><trkpt lat="44.3909027" lon="11.7133997"><ele>32.5</ele><time>2026-05-05T16:10:56.255Z</time></trkpt><trkpt lat="44.3907844" lon="11.7137341"><ele>32.0</ele><time>2026-05-05T16:10:57.254Z</time></trkpt><trkpt lat="44.3906619" lon="11.7140705"><ele>32.0</ele><time>2026-05-05T16:10:58.254Z</time></trkpt><trkpt lat="44.3905414" lon="11.7144044"><ele>32.0</ele><time>2026-05-05T16:10:59.255Z</time></trkpt><trkpt lat="44.3904211" lon="11.7147358"><ele>32.0</ele><time>2026-05-05T16:11:00.255Z</time></trkpt><trkpt lat="44.3903034" lon="11.7150643"><ele>32.0</ele><time>2026-05-05T16:11:01.255Z</time></trkpt><trkpt lat="44.3901885" lon="11.715391"><ele>32.0</ele><time>2026-05-05T16:11:02.255Z</time></trkpt><trkpt lat="44.3900706" lon="11.715721"><ele>32.0</ele><time>2026-05-05T16:11:03.255Z</time></trkpt><trkpt lat="44.3899561" lon="11.7160499"><ele>32.0</ele><time>2026-05-05T16:11:04.255Z</time></trkpt><trkpt lat="44.3898396" lon="11.7163809"><ele>32.0</ele><time>2026-05-05T16:11:05.255Z</time></trkpt><trkpt lat="44.3897213" lon="11.7167088"><ele>31.5</ele><time>2026-05-05T16:11:06.255Z</time></trkpt><trkpt lat="44.3896001" lon="11.7170423"><ele>31.0</ele><time>2026-05-05T16:11:07.254Z</time></trkpt><trkpt lat="44.3894794" lon="11.7173722"><ele>31.0</ele><time>2026-05-05T16:11:08.255Z</time></trkpt><trkpt lat="44.3893572" lon="11.7177008"><ele>31.0</ele><time>2026-05-05T16:11:09.254Z</time></trkpt><trkpt lat="44.3892399" lon="11.7180262"><ele>31.0</ele><time>2026-05-05T16:11:10.254Z</time></trkpt><trkpt lat="44.3891244" lon="11.7183662"><ele>31.0</ele><time>2026-05-05T16:11:11.254Z</time></trkpt><trkpt lat="44.3890041" lon="11.7187035"><ele>31.0</ele><time>2026-05-05T16:11:12.254Z</time></trkpt><trkpt lat="44.3888951" lon="11.719032"><ele>31.0</ele><time>2026-05-05T16:11:13.254Z</time></trkpt><trkpt lat="44.3887753" lon="11.7193815"><ele>31.0</ele><time>2026-05-05T16:11:14.255Z</time></trkpt><trkpt lat="44.3886534" lon="11.7197424"><ele>31.0</ele><time>2026-05-05T16:11:15.254Z</time></trkpt><trkpt lat="44.3885279" lon="11.7201062"><ele>31.0</ele><time>2026-05-05T16:11:16.254Z</time></trkpt><trkpt lat="44.3884035" lon="11.7204696"><ele>31.0</ele><time>2026-05-05T16:11:17.254Z</time></trkpt><trkpt lat="44.3882755" lon="11.7208325"><ele>31.0</ele><time>2026-05-05T16:11:18.254Z</time></trkpt><trkpt lat="44.388143" lon="11.7211911"><ele>31.0</ele><time>2026-05-05T16:11:19.255Z</time></trkpt><trkpt lat="44.3880127" lon="11.7215542"><ele>30.5</ele><time>2026-05-05T16:11:20.255Z</time></trkpt><trkpt lat="44.3878875" lon="11.721917"><ele>30.0</ele><time>2026-05-05T16:11:21.255Z</time></trkpt><trkpt lat="44.3877607" lon="11.7222759"><ele>30.0</ele><time>2026-05-05T16:11:22.255Z</time></trkpt><trkpt lat="44.3876307" lon="11.7226239"><ele>30.0</ele><time>2026-05-05T16:11:23.254Z</time></trkpt><trkpt lat="44.3875057" lon="11.7229783"><ele>29.5</ele><time>2026-05-05T16:11:24.255Z</time></trkpt><trkpt lat="44.3873788" lon="11.7233348"><ele>29.0</ele><time>2026-05-05T16:11:25.254Z</time></trkpt><trkpt lat="44.387253" lon="11.7236846"><ele>29.0</ele><time>2026-05-05T16:11:26.255Z</time></trkpt><trkpt lat="44.3871298" lon="11.7240312"><ele>29.0</ele><time>2026-05-05T16:11:27.254Z</time></trkpt><trkpt lat="44.3870053" lon="11.7243781"><ele>29.0</ele><time>2026-05-05T16:11:28.255Z</time></trkpt><trkpt lat="44.3868809" lon="11.7247284"><ele>29.0</ele><time>2026-05-05T16:11:29.255Z</time></trkpt><trkpt lat="44.3867564" lon="11.7250753"><ele>29.5</ele><time>2026-05-05T16:11:30.255Z</time></trkpt><trkpt lat="44.3866344" lon="11.7254186"><ele>30.0</ele><time>2026-05-05T16:11:31.255Z</time></trkpt><trkpt lat="44.386511" lon="11.725759"><ele>29.5</ele><time>2026-05-05T16:11:32.255Z</time></trkpt><trkpt lat="44.386393" lon="11.7260961"><ele>29.0</ele><time>2026-05-05T16:11:33.254Z</time></trkpt><trkpt lat="44.3862784" lon="11.7264224"><ele>28.5</ele><time>2026-05-05T16:11:34.255Z</time></trkpt><trkpt lat="44.3861558" lon="11.7267626"><ele>28.0</ele><time>2026-05-05T16:11:35.255Z</time></trkpt><trkpt lat="44.3860312" lon="11.7271068"><ele>27.5</ele><time>2026-05-05T16:11:36.254Z</time></trkpt><trkpt lat="44.3859059" lon="11.7274519"><ele>27.0</ele><time>2026-05-05T16:11:37.255Z</time></trkpt><trkpt lat="44.385781" lon="11.7277975"><ele>27.0</ele><time>2026-05-05T16:11:38.254Z</time></trkpt><trkpt lat="44.3856592" lon="11.728141"><ele>27.0</ele><time>2026-05-05T16:11:39.255Z</time></trkpt><trkpt lat="44.3855346" lon="11.7284871"><ele>27.0</ele><time>2026-05-05T16:11:40.254Z</time></trkpt><trkpt lat="44.3854109" lon="11.7288382"><ele>27.0</ele><time>2026-05-05T16:11:41.255Z</time></trkpt><trkpt lat="44.3852923" lon="11.7291757"><ele>27.0</ele><time>2026-05-05T16:11:42.255Z</time></trkpt><trkpt lat="44.3851696" lon="11.7295216"><ele>27.0</ele><time>2026-05-05T16:11:43.254Z</time></trkpt><trkpt lat="44.3850424" lon="11.7298661"><ele>27.0</ele><time>2026-05-05T16:11:44.255Z</time></trkpt><trkpt lat="44.3849181" lon="11.7302092"><ele>27.0</ele><time>2026-05-05T16:11:45.255Z</time></trkpt><trkpt lat="44.3847987" lon="11.7305565"><ele>28.5</ele><time>2026-05-05T16:11:46.254Z</time></trkpt><trkpt lat="44.3846762" lon="11.7308918"><ele>30.0</ele><time>2026-05-05T16:11:47.255Z</time></trkpt><trkpt lat="44.3845557" lon="11.7312341"><ele>30.0</ele><time>2026-05-05T16:11:48.255Z</time></trkpt><trkpt lat="44.3844323" lon="11.7315758"><ele>30.0</ele><time>2026-05-05T16:11:49.255Z</time></trkpt><trkpt lat="44.3843085" lon="11.7319179"><ele>30.0</ele><time>2026-05-05T16:11:50.255Z</time></trkpt><trkpt lat="44.3841843" lon="11.7322577"><ele>30.0</ele><time>2026-05-05T16:11:51.255Z</time></trkpt><trkpt lat="44.3840585" lon="11.7325951"><ele>30.5</ele><time>2026-05-05T16:11:52.255Z</time></trkpt><trkpt lat="44.383927" lon="11.7329349"><ele>31.0</ele><time>2026-05-05T16:11:53.255Z</time></trkpt><trkpt lat="44.3837977" lon="11.7332789"><ele>30.5</ele><time>2026-05-05T16:11:54.254Z</time></trkpt><trkpt lat="44.3836717" lon="11.7336165"><ele>30.0</ele><time>2026-05-05T16:11:55.254Z</time></trkpt><trkpt lat="44.3835456" lon="11.7339618"><ele>30.0</ele><time>2026-05-05T16:11:56.255Z</time></trkpt><trkpt lat="44.3834187" lon="11.7343145"><ele>30.0</ele><time>2026-05-05T16:11:57.255Z</time></trkpt><trkpt lat="44.3832949" lon="11.7346681"><ele>29.5</ele><time>2026-05-05T16:11:58.254Z</time></trkpt><trkpt lat="44.3831727" lon="11.7350046"><ele>29.0</ele><time>2026-05-05T16:11:59.254Z</time></trkpt><trkpt lat="44.3830474" lon="11.7353523"><ele>30.0</ele><time>2026-05-05T16:12:00.254Z</time></trkpt><trkpt lat="44.3829259" lon="11.735701"><ele>31.0</ele><time>2026-05-05T16:12:01.255Z</time></trkpt><trkpt lat="44.3828028" lon="11.7360523"><ele>29.5</ele><time>2026-05-05T16:12:02.255Z</time></trkpt><trkpt lat="44.382675" lon="11.7363929"><ele>28.0</ele><time>2026-05-05T16:12:03.254Z</time></trkpt><trkpt lat="44.3825492" lon="11.7367458"><ele>28.0</ele><time>2026-05-05T16:12:04.255Z</time></trkpt><trkpt lat="44.3824256" lon="11.737091"><ele>28.0</ele><time>2026-05-05T16:12:05.254Z</time></trkpt><trkpt lat="44.3823041" lon="11.7374304"><ele>29.5</ele><time>2026-05-05T16:12:06.254Z</time></trkpt><trkpt lat="44.3821807" lon="11.7377692"><ele>31.0</ele><time>2026-05-05T16:12:07.254Z</time></trkpt><trkpt lat="44.3820594" lon="11.7381124"><ele>31.0</ele><time>2026-05-05T16:12:08.254Z</time></trkpt><trkpt lat="44.3819358" lon="11.7384478"><ele>31.0</ele><time>2026-05-05T16:12:09.254Z</time></trkpt><trkpt lat="44.3818118" lon="11.738786"><ele>31.5</ele><time>2026-05-05T16:12:10.254Z</time></trkpt><trkpt lat="44.3816876" lon="11.7391216"><ele>32.0</ele><time>2026-05-05T16:12:11.255Z</time></trkpt><trkpt lat="44.3815646" lon="11.7394705"><ele>32.0</ele><time>2026-05-05T16:12:12.254Z</time></trkpt><trkpt lat="44.3814401" lon="11.7398208"><ele>32.0</ele><time>2026-05-05T16:12:13.254Z</time></trkpt><trkpt lat="44.3813205" lon="11.7401649"><ele>31.5</ele><time>2026-05-05T16:12:14.255Z</time></trkpt><trkpt lat="44.3811994" lon="11.7405084"><ele>31.0</ele><time>2026-05-05T16:12:15.254Z</time></trkpt><trkpt lat="44.381075" lon="11.7408555"><ele>32.5</ele><time>2026-05-05T16:12:16.254Z</time></trkpt><trkpt lat="44.3809497" lon="11.7412008"><ele>34.0</ele><time>2026-05-05T16:12:17.255Z</time></trkpt><trkpt lat="44.3808225" lon="11.741548"><ele>33.5</ele><time>2026-05-05T16:12:18.254Z</time></trkpt><trkpt lat="44.3806962" lon="11.7418958"><ele>33.0</ele><time>2026-05-05T16:12:19.255Z</time></trkpt><trkpt lat="44.3805741" lon="11.7422298"><ele>30.0</ele><time>2026-05-05T16:12:20.255Z</time></trkpt><trkpt lat="44.3804484" lon="11.7425807"><ele>27.0</ele><time>2026-05-05T16:12:21.254Z</time></trkpt><trkpt lat="44.3803252" lon="11.7429334"><ele>27.0</ele><time>2026-05-05T16:12:22.254Z</time></trkpt><trkpt lat="44.3801982" lon="11.7432826"><ele>27.0</ele><time>2026-05-05T16:12:23.254Z</time></trkpt><trkpt lat="44.3800757" lon="11.7436353"><ele>27.0</ele><time>2026-05-05T16:12:24.255Z</time></trkpt><trkpt lat="44.3799524" lon="11.7439878"><ele>27.0</ele><time>2026-05-05T16:12:25.255Z</time></trkpt><trkpt lat="44.3798263" lon="11.7443368"><ele>27.0</ele><time>2026-05-05T16:12:26.255Z</time></trkpt><trkpt lat="44.3797003" lon="11.7446911"><ele>27.0</ele><time>2026-05-05T16:12:27.254Z</time></trkpt><trkpt lat="44.3795758" lon="11.7450407"><ele>27.5</ele><time>2026-05-05T16:12:28.254Z</time></trkpt><trkpt lat="44.3794518" lon="11.745396"><ele>28.0</ele><time>2026-05-05T16:12:29.255Z</time></trkpt><trkpt lat="44.3793264" lon="11.7457459"><ele>29.5</ele><time>2026-05-05T16:12:30.254Z</time></trkpt><trkpt lat="44.3791976" lon="11.7461021"><ele>31.0</ele><time>2026-05-05T16:12:31.254Z</time></trkpt><trkpt lat="44.3790708" lon="11.7464557"><ele>31.0</ele><time>2026-05-05T16:12:32.254Z</time></trkpt><trkpt lat="44.3789402" lon="11.7468138"><ele>31.0</ele><time>2026-05-05T16:12:33.255Z</time></trkpt><trkpt lat="44.3788101" lon="11.7471772"><ele>29.5</ele><time>2026-05-05T16:12:34.254Z</time></trkpt><trkpt lat="44.3786825" lon="11.7475367"><ele>28.0</ele><time>2026-05-05T16:12:35.255Z</time></trkpt><trkpt lat="44.3785535" lon="11.7478952"><ele>28.0</ele><time>2026-05-05T16:12:36.255Z</time></trkpt><trkpt lat="44.3784277" lon="11.7482544"><ele>28.0</ele><time>2026-05-05T16:12:37.255Z</time></trkpt><trkpt lat="44.3783023" lon="11.7486091"><ele>28.0</ele><time>2026-05-05T16:12:38.255Z</time></trkpt><trkpt lat="44.3781764" lon="11.7489628"><ele>28.0</ele><time>2026-05-05T16:12:39.254Z</time></trkpt><trkpt lat="44.378053" lon="11.7493133"><ele>28.5</ele><time>2026-05-05T16:12:40.255Z</time></trkpt><trkpt lat="44.3779333" lon="11.74966"><ele>29.0</ele><time>2026-05-05T16:12:41.254Z</time></trkpt><trkpt lat="44.3778112" lon="11.7500082"><ele>28.0</ele><time>2026-05-05T16:12:42.255Z</time></trkpt><trkpt lat="44.3776854" lon="11.7503535"><ele>27.0</ele><time>2026-05-05T16:12:43.254Z</time></trkpt><trkpt lat="44.3775632" lon="11.7506988"><ele>26.5</ele><time>2026-05-05T16:12:44.255Z</time></trkpt><trkpt lat="44.3774418" lon="11.7510437"><ele>26.0</ele><time>2026-05-05T16:12:45.255Z</time></trkpt><trkpt lat="44.3773268" lon="11.7513873"><ele>26.0</ele><time>2026-05-05T16:12:46.254Z</time></trkpt><trkpt lat="44.3772065" lon="11.7517313"><ele>26.0</ele><time>2026-05-05T16:12:47.255Z</time></trkpt><trkpt lat="44.3770804" lon="11.7520786"><ele>26.5</ele><time>2026-05-05T16:12:48.255Z</time></trkpt><trkpt lat="44.3769537" lon="11.7524221"><ele>27.0</ele><time>2026-05-05T16:12:49.255Z</time></trkpt><trkpt lat="44.3768256" lon="11.7527721"><ele>27.0</ele><time>2026-05-05T16:12:50.254Z</time></trkpt><trkpt lat="44.3766986" lon="11.753126"><ele>27.0</ele><time>2026-05-05T16:12:51.255Z</time></trkpt><trkpt lat="44.3765719" lon="11.7534767"><ele>27.0</ele><time>2026-05-05T16:12:52.254Z</time></trkpt><trkpt lat="44.3764444" lon="11.7538329"><ele>27.0</ele><time>2026-05-05T16:12:53.255Z</time></trkpt><trkpt lat="44.3763163" lon="11.7541822"><ele>28.5</ele><time>2026-05-05T16:12:54.254Z</time></trkpt><trkpt lat="44.3761882" lon="11.7545384"><ele>30.0</ele><time>2026-05-05T16:12:55.255Z</time></trkpt><trkpt lat="44.3760583" lon="11.7548991"><ele>30.0</ele><time>2026-05-05T16:12:56.255Z</time></trkpt><trkpt lat="44.3759374" lon="11.755242"><ele>30.0</ele><time>2026-05-05T16:12:57.255Z</time></trkpt><trkpt lat="44.3758066" lon="11.7556062"><ele>30.0</ele><time>2026-05-05T16:12:58.254Z</time></trkpt><trkpt lat="44.3756814" lon="11.7559683"><ele>30.0</ele><time>2026-05-05T16:12:59.254Z</time></trkpt><trkpt lat="44.375554" lon="11.7563303"><ele>29.5</ele><time>2026-05-05T16:13:00.255Z</time></trkpt><trkpt lat="44.3754221" lon="11.7566957"><ele>29.0</ele><time>2026-05-05T16:13:01.255Z</time></trkpt><trkpt lat="44.3752911" lon="11.7570619"><ele>28.5</ele><time>2026-05-05T16:13:02.255Z</time></trkpt><trkpt lat="44.3751579" lon="11.7574291"><ele>28.0</ele><time>2026-05-05T16:13:03.254Z</time></trkpt><trkpt lat="44.3750261" lon="11.7577954"><ele>29.0</ele><time>2026-05-05T16:13:04.255Z</time></trkpt><trkpt lat="44.3748939" lon="11.7581625"><ele>30.0</ele><time>2026-05-05T16:13:05.255Z</time></trkpt><trkpt lat="44.374765" lon="11.7585263"><ele>30.0</ele><time>2026-05-05T16:13:06.255Z</time></trkpt><trkpt lat="44.3746358" lon="11.7588899"><ele>30.0</ele><time>2026-05-05T16:13:07.255Z</time></trkpt><trkpt lat="44.3745089" lon="11.7592564"><ele>29.0</ele><time>2026-05-05T16:13:08.255Z</time></trkpt><trkpt lat="44.3743781" lon="11.7596316"><ele>28.0</ele><time>2026-05-05T16:13:09.254Z</time></trkpt><trkpt lat="44.3742468" lon="11.7600126"><ele>28.5</ele><time>2026-05-05T16:13:10.254Z</time></trkpt><trkpt lat="44.3741074" lon="11.7604075"><ele>29.0</ele><time>2026-05-05T16:13:11.254Z</time></trkpt><trkpt lat="44.3739685" lon="11.7608115"><ele>28.5</ele><time>2026-05-05T16:13:12.254Z</time></trkpt><trkpt lat="44.3738246" lon="11.7612201"><ele>28.0</ele><time>2026-05-05T16:13:13.255Z</time></trkpt><trkpt lat="44.3736802" lon="11.7616272"><ele>28.5</ele><time>2026-05-05T16:13:14.255Z</time></trkpt><trkpt lat="44.3735355" lon="11.7620327"><ele>29.0</ele><time>2026-05-05T16:13:15.255Z</time></trkpt><trkpt lat="44.3733888" lon="11.7624349"><ele>30.0</ele><time>2026-05-05T16:13:16.254Z</time></trkpt><trkpt lat="44.3732416" lon="11.7628406"><ele>31.0</ele><time>2026-05-05T16:13:17.255Z</time></trkpt><trkpt lat="44.3730997" lon="11.7632412"><ele>29.0</ele><time>2026-05-05T16:13:18.254Z</time></trkpt><trkpt lat="44.3729464" lon="11.7636579"><ele>27.0</ele><time>2026-05-05T16:13:19.254Z</time></trkpt><trkpt lat="44.3727908" lon="11.7640831"><ele>27.5</ele><time>2026-05-05T16:13:20.254Z</time></trkpt><trkpt lat="44.3726381" lon="11.7644981"><ele>28.0</ele><time>2026-05-05T16:13:21.255Z</time></trkpt><trkpt lat="44.372483" lon="11.7649108"><ele>28.0</ele><time>2026-05-05T16:13:22.254Z</time></trkpt><trkpt lat="44.3723297" lon="11.7653231"><ele>28.0</ele><time>2026-05-05T16:13:23.255Z</time></trkpt><trkpt lat="44.3721814" lon="11.76573"><ele>27.5</ele><time>2026-05-05T16:13:24.255Z</time></trkpt><trkpt lat="44.3720368" lon="11.7661307"><ele>27.0</ele><time>2026-05-05T16:13:25.255Z</time></trkpt><trkpt lat="44.3718931" lon="11.7665279"><ele>27.5</ele><time>2026-05-05T16:13:26.254Z</time></trkpt><trkpt lat="44.3717516" lon="11.7669182"><ele>28.0</ele><time>2026-05-05T16:13:27.254Z</time></trkpt><trkpt lat="44.371611" lon="11.7673091"><ele>28.0</ele><time>2026-05-05T16:13:28.255Z</time></trkpt><trkpt lat="44.3714751" lon="11.7676917"><ele>28.0</ele><time>2026-05-05T16:13:29.255Z</time></trkpt><trkpt lat="44.3713363" lon="11.7680751"><ele>28.0</ele><time>2026-05-05T16:13:30.255Z</time></trkpt><trkpt lat="44.3711994" lon="11.7684558"><ele>28.0</ele><time>2026-05-05T16:13:31.255Z</time></trkpt><trkpt lat="44.3710642" lon="11.7688295"><ele>28.0</ele><time>2026-05-05T16:13:32.255Z</time></trkpt><trkpt lat="44.3709311" lon="11.7692041"><ele>28.0</ele><time>2026-05-05T16:13:33.254Z</time></trkpt><trkpt lat="44.3708" lon="11.7695713"><ele>28.5</ele><time>2026-05-05T16:13:34.255Z</time></trkpt><trkpt lat="44.3706668" lon="11.769946"><ele>29.0</ele><time>2026-05-05T16:13:35.255Z</time></trkpt><trkpt lat="44.3705349" lon="11.7703163"><ele>29.0</ele><time>2026-05-05T16:13:36.255Z</time></trkpt><trkpt lat="44.3704054" lon="11.7706855"><ele>29.0</ele><time>2026-05-05T16:13:37.255Z</time></trkpt><trkpt lat="44.3702743" lon="11.7710558"><ele>28.0</ele><time>2026-05-05T16:13:38.255Z</time></trkpt><trkpt lat="44.3701466" lon="11.7714193"><ele>27.0</ele><time>2026-05-05T16:13:39.255Z</time></trkpt><trkpt lat="44.3700171" lon="11.7717776"><ele>26.5</ele><time>2026-05-05T16:13:40.254Z</time></trkpt><trkpt lat="44.3698848" lon="11.7721338"><ele>26.0</ele><time>2026-05-05T16:13:41.254Z</time></trkpt><trkpt lat="44.3697557" lon="11.7724866"><ele>27.0</ele><time>2026-05-05T16:13:42.254Z</time></trkpt><trkpt lat="44.3696257" lon="11.7728358"><ele>28.0</ele><time>2026-05-05T16:13:43.255Z</time></trkpt><trkpt lat="44.3694971" lon="11.7731811"><ele>28.0</ele><time>2026-05-05T16:13:44.254Z</time></trkpt><trkpt lat="44.369361" lon="11.7735284"><ele>28.0</ele><time>2026-05-05T16:13:45.254Z</time></trkpt><trkpt lat="44.3692283" lon="11.7738721"><ele>28.0</ele><time>2026-05-05T16:13:46.255Z</time></trkpt><trkpt lat="44.3690928" lon="11.7742117"><ele>28.0</ele><time>2026-05-05T16:13:47.255Z</time></trkpt><trkpt lat="44.3689606" lon="11.7745444"><ele>28.0</ele><time>2026-05-05T16:13:48.255Z</time></trkpt><trkpt lat="44.3688261" lon="11.7748784"><ele>28.0</ele><time>2026-05-05T16:13:49.255Z</time></trkpt><trkpt lat="44.3686903" lon="11.7752045"><ele>27.5</ele><time>2026-05-05T16:13:50.255Z</time></trkpt><trkpt lat="44.3685533" lon="11.7755283"><ele>27.0</ele><time>2026-05-05T16:13:51.255Z</time></trkpt><trkpt lat="44.3684167" lon="11.775852"><ele>27.0</ele><time>2026-05-05T16:13:52.255Z</time></trkpt><trkpt lat="44.3682783" lon="11.7761755"><ele>27.0</ele><time>2026-05-05T16:13:53.254Z</time></trkpt><trkpt lat="44.3681365" lon="11.7764972"><ele>27.5</ele><time>2026-05-05T16:13:54.254Z</time></trkpt><trkpt lat="44.3679904" lon="11.776816"><ele>28.0</ele><time>2026-05-05T16:13:55.255Z</time></trkpt><trkpt lat="44.3678449" lon="11.7771339"><ele>28.0</ele><time>2026-05-05T16:13:56.255Z</time></trkpt><trkpt lat="44.3676979" lon="11.7774484"><ele>28.0</ele><time>2026-05-05T16:13:57.255Z</time></trkpt><trkpt lat="44.3675554" lon="11.7777697"><ele>28.0</ele><time>2026-05-05T16:13:58.255Z</time></trkpt><trkpt lat="44.3674098" lon="11.7780869"><ele>28.0</ele><time>2026-05-05T16:13:59.254Z</time></trkpt><trkpt lat="44.3672626" lon="11.7784065"><ele>28.0</ele><time>2026-05-05T16:14:00.255Z</time></trkpt><trkpt lat="44.3671143" lon="11.7787322"><ele>28.0</ele><time>2026-05-05T16:14:01.255Z</time></trkpt><trkpt lat="44.3669669" lon="11.7790588"><ele>28.0</ele><time>2026-05-05T16:14:02.255Z</time></trkpt><trkpt lat="44.3668182" lon="11.7793856"><ele>28.0</ele><time>2026-05-05T16:14:03.255Z</time></trkpt><trkpt lat="44.3666699" lon="11.7797135"><ele>28.0</ele><time>2026-05-05T16:14:04.255Z</time></trkpt><trkpt lat="44.3665214" lon="11.7800395"><ele>28.0</ele><time>2026-05-05T16:14:05.254Z</time></trkpt><trkpt lat="44.3663723" lon="11.7803654"><ele>28.0</ele><time>2026-05-05T16:14:06.255Z</time></trkpt><trkpt lat="44.3662246" lon="11.780691"><ele>28.0</ele><time>2026-05-05T16:14:07.254Z</time></trkpt><trkpt lat="44.3660736" lon="11.7810161"><ele>27.0</ele><time>2026-05-05T16:14:08.255Z</time></trkpt><trkpt lat="44.3659194" lon="11.7813444"><ele>26.0</ele><time>2026-05-05T16:14:09.255Z</time></trkpt><trkpt lat="44.3657667" lon="11.7816767"><ele>26.5</ele><time>2026-05-05T16:14:10.255Z</time></trkpt><trkpt lat="44.3656147" lon="11.7820072"><ele>27.0</ele><time>2026-05-05T16:14:11.254Z</time></trkpt><trkpt lat="44.3654623" lon="11.782339"><ele>27.0</ele><time>2026-05-05T16:14:12.255Z</time></trkpt><trkpt lat="44.3653108" lon="11.7826751"><ele>27.0</ele><time>2026-05-05T16:14:13.255Z</time></trkpt><trkpt lat="44.3651581" lon="11.783005"><ele>26.5</ele><time>2026-05-05T16:14:14.254Z</time></trkpt><trkpt lat="44.3650071" lon="11.7833354"><ele>26.0</ele><time>2026-05-05T16:14:15.255Z</time></trkpt><trkpt lat="44.3648556" lon="11.7836699"><ele>26.0</ele><time>2026-05-05T16:14:16.254Z</time></trkpt><trkpt lat="44.3647092" lon="11.7839959"><ele>26.0</ele><time>2026-05-05T16:14:17.254Z</time></trkpt><trkpt lat="44.3645608" lon="11.7843207"><ele>25.5</ele><time>2026-05-05T16:14:18.255Z</time></trkpt><trkpt lat="44.3644062" lon="11.7846452"><ele>25.0</ele><time>2026-05-05T16:14:19.255Z</time></trkpt><trkpt lat="44.3642514" lon="11.7849714"><ele>25.0</ele><time>2026-05-05T16:14:20.254Z</time></trkpt><trkpt lat="44.3640975" lon="11.785299"><ele>25.0</ele><time>2026-05-05T16:14:21.255Z</time></trkpt><trkpt lat="44.3639433" lon="11.785626"><ele>24.5</ele><time>2026-05-05T16:14:22.254Z</time></trkpt><trkpt lat="44.363788" lon="11.7859498"><ele>24.0</ele><time>2026-05-05T16:14:23.255Z</time></trkpt><trkpt lat="44.3636294" lon="11.7862782"><ele>24.0</ele><time>2026-05-05T16:14:24.255Z</time></trkpt><trkpt lat="44.3634755" lon="11.7866073"><ele>24.0</ele><time>2026-05-05T16:14:25.255Z</time></trkpt><trkpt lat="44.3633227" lon="11.7869336"><ele>24.5</ele><time>2026-05-05T16:14:26.255Z</time></trkpt><trkpt lat="44.3631733" lon="11.7872592"><ele>25.0</ele><time>2026-05-05T16:14:27.254Z</time></trkpt><trkpt lat="44.3630235" lon="11.7875863"><ele>25.5</ele><time>2026-05-05T16:14:28.255Z</time></trkpt><trkpt lat="44.3628766" lon="11.7879143"><ele>26.0</ele><time>2026-05-05T16:14:29.255Z</time></trkpt><trkpt lat="44.3627339" lon="11.7882276"><ele>25.0</ele><time>2026-05-05T16:14:30.255Z</time></trkpt><trkpt lat="44.3625901" lon="11.7885468"><ele>24.0</ele><time>2026-05-05T16:14:31.254Z</time></trkpt><trkpt lat="44.3624417" lon="11.7888746"><ele>24.0</ele><time>2026-05-05T16:14:32.255Z</time></trkpt><trkpt lat="44.3622968" lon="11.789201"><ele>24.0</ele><time>2026-05-05T16:14:33.254Z</time></trkpt><trkpt lat="44.3621584" lon="11.7895292"><ele>24.5</ele><time>2026-05-05T16:14:34.254Z</time></trkpt><trkpt lat="44.3620263" lon="11.7898556"><ele>25.0</ele><time>2026-05-05T16:14:35.254Z</time></trkpt><trkpt lat="44.3618917" lon="11.7901908"><ele>25.5</ele><time>2026-05-05T16:14:36.255Z</time></trkpt><trkpt lat="44.361767" lon="11.7905136"><ele>26.0</ele><time>2026-05-05T16:14:37.255Z</time></trkpt><trkpt lat="44.3616387" lon="11.7908505"><ele>26.0</ele><time>2026-05-05T16:14:38.254Z</time></trkpt><trkpt lat="44.3615087" lon="11.7911955"><ele>26.0</ele><time>2026-05-05T16:14:39.255Z</time></trkpt><trkpt lat="44.3613831" lon="11.7915441"><ele>27.0</ele><time>2026-05-05T16:14:40.255Z</time></trkpt><trkpt lat="44.3612596" lon="11.7918915"><ele>28.0</ele><time>2026-05-05T16:14:41.254Z</time></trkpt><trkpt lat="44.3611449" lon="11.7922433"><ele>28.0</ele><time>2026-05-05T16:14:42.255Z</time></trkpt><trkpt lat="44.3610288" lon="11.7925948"><ele>28.0</ele><time>2026-05-05T16:14:43.255Z</time></trkpt><trkpt lat="44.3609194" lon="11.7929476"><ele>28.5</ele><time>2026-05-05T16:14:44.254Z</time></trkpt><trkpt lat="44.3608101" lon="11.7932973"><ele>29.0</ele><time>2026-05-05T16:14:45.255Z</time></trkpt><trkpt lat="44.3606992" lon="11.7936548"><ele>29.0</ele><time>2026-05-05T16:14:46.254Z</time></trkpt><trkpt lat="44.3605861" lon="11.7940141"><ele>29.0</ele><time>2026-05-05T16:14:47.254Z</time></trkpt><trkpt lat="44.3604743" lon="11.7943685"><ele>27.0</ele><time>2026-05-05T16:14:48.254Z</time></trkpt><trkpt lat="44.3603617" lon="11.7947297"><ele>25.0</ele><time>2026-05-05T16:14:49.255Z</time></trkpt><trkpt lat="44.3602478" lon="11.7950952"><ele>25.0</ele><time>2026-05-05T16:14:50.254Z</time></trkpt><trkpt lat="44.360136" lon="11.7954628"><ele>25.0</ele><time>2026-05-05T16:14:51.254Z</time></trkpt><trkpt lat="44.3600276" lon="11.7958299"><ele>25.5</ele><time>2026-05-05T16:14:52.254Z</time></trkpt><trkpt lat="44.3599159" lon="11.7962012"><ele>26.0</ele><time>2026-05-05T16:14:53.254Z</time></trkpt><trkpt lat="44.3598058" lon="11.7965646"><ele>27.0</ele><time>2026-05-05T16:14:54.254Z</time></trkpt><trkpt lat="44.359695" lon="11.7969267"><ele>28.0</ele><time>2026-05-05T16:14:55.255Z</time></trkpt><trkpt lat="44.3595859" lon="11.7972882"><ele>28.0</ele><time>2026-05-05T16:14:56.255Z</time></trkpt><trkpt lat="44.3594756" lon="11.7976505"><ele>28.0</ele><time>2026-05-05T16:14:57.255Z</time></trkpt><trkpt lat="44.3593708" lon="11.79801"><ele>27.0</ele><time>2026-05-05T16:14:58.255Z</time></trkpt><trkpt lat="44.3592613" lon="11.7983634"><ele>26.0</ele><time>2026-05-05T16:14:59.255Z</time></trkpt><trkpt lat="44.35915" lon="11.7987227"><ele>26.0</ele><time>2026-05-05T16:15:00.254Z</time></trkpt><trkpt lat="44.3590457" lon="11.7990754"><ele>26.0</ele><time>2026-05-05T16:15:01.255Z</time></trkpt><trkpt lat="44.358933" lon="11.7994253"><ele>26.5</ele><time>2026-05-05T16:15:02.255Z</time></trkpt><trkpt lat="44.3588237" lon="11.7997723"><ele>27.0</ele><time>2026-05-05T16:15:03.254Z</time></trkpt><trkpt lat="44.358715" lon="11.8001232"><ele>27.0</ele><time>2026-05-05T16:15:04.255Z</time></trkpt><trkpt lat="44.3586057" lon="11.8004727"><ele>27.0</ele><time>2026-05-05T16:15:05.255Z</time></trkpt><trkpt lat="44.3584975" lon="11.8008225"><ele>27.0</ele><time>2026-05-05T16:15:06.254Z</time></trkpt><trkpt lat="44.3583847" lon="11.8011739"><ele>27.0</ele><time>2026-05-05T16:15:07.255Z</time></trkpt><trkpt lat="44.358273" lon="11.8015287"><ele>26.5</ele><time>2026-05-05T16:15:08.255Z</time></trkpt><trkpt lat="44.3581639" lon="11.8018847"><ele>26.0</ele><time>2026-05-05T16:15:09.255Z</time></trkpt><trkpt lat="44.3580529" lon="11.8022378"><ele>25.5</ele><time>2026-05-05T16:15:10.255Z</time></trkpt><trkpt lat="44.3579411" lon="11.8025941"><ele>25.0</ele><time>2026-05-05T16:15:11.255Z</time></trkpt><trkpt lat="44.3578252" lon="11.8029544"><ele>26.0</ele><time>2026-05-05T16:15:12.254Z</time></trkpt><trkpt lat="44.3577096" lon="11.8033145"><ele>27.0</ele><time>2026-05-05T16:15:13.254Z</time></trkpt><trkpt lat="44.3575983" lon="11.8036767"><ele>27.0</ele><time>2026-05-05T16:15:14.254Z</time></trkpt><trkpt lat="44.3574835" lon="11.8040327"><ele>27.0</ele><time>2026-05-05T16:15:15.254Z</time></trkpt><trkpt lat="44.3573698" lon="11.8043858"><ele>27.0</ele><time>2026-05-05T16:15:16.255Z</time></trkpt><trkpt lat="44.3572558" lon="11.8047423"><ele>27.0</ele><time>2026-05-05T16:15:17.255Z</time></trkpt><trkpt lat="44.3571452" lon="11.8051054"><ele>27.0</ele><time>2026-05-05T16:15:18.255Z</time></trkpt><trkpt lat="44.357031" lon="11.8054578"><ele>27.0</ele><time>2026-05-05T16:15:19.254Z</time></trkpt><trkpt lat="44.3569185" lon="11.8058099"><ele>26.5</ele><time>2026-05-05T16:15:20.254Z</time></trkpt><trkpt lat="44.3568125" lon="11.8061628"><ele>26.0</ele><time>2026-05-05T16:15:21.255Z</time></trkpt><trkpt lat="44.3567047" lon="11.8065113"><ele>26.5</ele><time>2026-05-05T16:15:22.254Z</time></trkpt><trkpt lat="44.3565976" lon="11.8068595"><ele>27.0</ele><time>2026-05-05T16:15:23.254Z</time></trkpt><trkpt lat="44.3564892" lon="11.8072083"><ele>27.0</ele><time>2026-05-05T16:15:24.254Z</time></trkpt><trkpt lat="44.3563778" lon="11.8075619"><ele>27.0</ele><time>2026-05-05T16:15:25.255Z</time></trkpt><trkpt lat="44.3562654" lon="11.8079109"><ele>26.5</ele><time>2026-05-05T16:15:26.255Z</time></trkpt><trkpt lat="44.3561551" lon="11.8082652"><ele>26.0</ele><time>2026-05-05T16:15:27.255Z</time></trkpt><trkpt lat="44.3560425" lon="11.8086175"><ele>25.5</ele><time>2026-05-05T16:15:28.255Z</time></trkpt><trkpt lat="44.3559318" lon="11.8089665"><ele>25.0</ele><time>2026-05-05T16:15:29.255Z</time></trkpt><trkpt lat="44.35582" lon="11.809315"><ele>25.5</ele><time>2026-05-05T16:15:30.255Z</time></trkpt><trkpt lat="44.3557131" lon="11.8096585"><ele>26.0</ele><time>2026-05-05T16:15:31.255Z</time></trkpt><trkpt lat="44.3556037" lon="11.8099912"><ele>25.5</ele><time>2026-05-05T16:15:32.255Z</time></trkpt><trkpt lat="44.3554946" lon="11.8103417"><ele>25.0</ele><time>2026-05-05T16:15:33.254Z</time></trkpt><trkpt lat="44.355383" lon="11.8106939"><ele>24.5</ele><time>2026-05-05T16:15:34.255Z</time></trkpt><trkpt lat="44.355272" lon="11.8110448"><ele>24.0</ele><time>2026-05-05T16:15:35.254Z</time></trkpt><trkpt lat="44.3551652" lon="11.8113936"><ele>24.0</ele><time>2026-05-05T16:15:36.254Z</time></trkpt><trkpt lat="44.3550534" lon="11.8117527"><ele>24.0</ele><time>2026-05-05T16:15:37.255Z</time></trkpt><trkpt lat="44.3548463" lon="11.8124321"><ele>25.0</ele><time>2026-05-05T16:15:39.161Z</time></trkpt><trkpt lat="44.3546124" lon="11.8131772"><ele>25.0</ele><time>2026-05-05T16:15:41.256Z</time></trkpt><trkpt lat="44.3544995" lon="11.8135355"><ele>25.0</ele><time>2026-05-05T16:15:42.256Z</time></trkpt><trkpt lat="44.3543859" lon="11.8138947"><ele>25.0</ele><time>2026-05-05T16:15:43.254Z</time></trkpt><trkpt lat="44.3542751" lon="11.8142564"><ele>25.0</ele><time>2026-05-05T16:15:44.255Z</time></trkpt><trkpt lat="44.3541643" lon="11.8146184"><ele>25.5</ele><time>2026-05-05T16:15:45.254Z</time></trkpt><trkpt lat="44.3540523" lon="11.81498"><ele>26.0</ele><time>2026-05-05T16:15:46.255Z</time></trkpt><trkpt lat="44.353941" lon="11.8153402"><ele>26.0</ele><time>2026-05-05T16:15:47.255Z</time></trkpt><trkpt lat="44.3538293" lon="11.815701"><ele>26.0</ele><time>2026-05-05T16:15:48.256Z</time></trkpt><trkpt lat="44.3537229" lon="11.8160619"><ele>25.5</ele><time>2026-05-05T16:15:49.255Z</time></trkpt><trkpt lat="44.3536103" lon="11.8164211"><ele>25.0</ele><time>2026-05-05T16:15:50.255Z</time></trkpt><trkpt lat="44.3534979" lon="11.8167797"><ele>24.5</ele><time>2026-05-05T16:15:51.256Z</time></trkpt><trkpt lat="44.3533858" lon="11.817135"><ele>24.0</ele><time>2026-05-05T16:15:52.256Z</time></trkpt><trkpt lat="44.3532754" lon="11.8174905"><ele>24.0</ele><time>2026-05-05T16:15:53.256Z</time></trkpt><trkpt lat="44.3531683" lon="11.8178414"><ele>24.0</ele><time>2026-05-05T16:15:54.256Z</time></trkpt><trkpt lat="44.3530623" lon="11.8181898"><ele>23.5</ele><time>2026-05-05T16:15:55.256Z</time></trkpt><trkpt lat="44.3529489" lon="11.8185387"><ele>23.0</ele><time>2026-05-05T16:15:56.255Z</time></trkpt><trkpt lat="44.3528333" lon="11.8188881"><ele>23.0</ele><time>2026-05-05T16:15:57.256Z</time></trkpt><trkpt lat="44.352717" lon="11.8192365"><ele>23.0</ele><time>2026-05-05T16:15:58.255Z</time></trkpt><trkpt lat="44.3526023" lon="11.8195808"><ele>23.0</ele><time>2026-05-05T16:15:59.256Z</time></trkpt><trkpt lat="44.3524887" lon="11.8199218"><ele>23.0</ele><time>2026-05-05T16:16:00.256Z</time></trkpt><trkpt lat="44.3523779" lon="11.8202588"><ele>24.0</ele><time>2026-05-05T16:16:01.255Z</time></trkpt><trkpt lat="44.3522705" lon="11.8205921"><ele>25.0</ele><time>2026-05-05T16:16:02.256Z</time></trkpt><trkpt lat="44.3521679" lon="11.8209213"><ele>25.0</ele><time>2026-05-05T16:16:03.255Z</time></trkpt><trkpt lat="44.3520667" lon="11.8212494"><ele>25.0</ele><time>2026-05-05T16:16:04.256Z</time></trkpt><trkpt lat="44.3519645" lon="11.8215774"><ele>25.0</ele><time>2026-05-05T16:16:05.256Z</time></trkpt><trkpt lat="44.3518612" lon="11.8219025"><ele>25.0</ele><time>2026-05-05T16:16:06.256Z</time></trkpt><trkpt lat="44.3517555" lon="11.8222241"><ele>25.0</ele><time>2026-05-05T16:16:07.256Z</time></trkpt><trkpt lat="44.3516524" lon="11.8225471"><ele>25.0</ele><time>2026-05-05T16:16:08.255Z</time></trkpt><trkpt lat="44.3515516" lon="11.8228697"><ele>25.0</ele><time>2026-05-05T16:16:09.255Z</time></trkpt><trkpt lat="44.3514519" lon="11.8231914"><ele>25.0</ele><time>2026-05-05T16:16:10.255Z</time></trkpt><trkpt lat="44.3513532" lon="11.823512"><ele>25.0</ele><time>2026-05-05T16:16:11.256Z</time></trkpt><trkpt lat="44.3512545" lon="11.8238335"><ele>25.0</ele><time>2026-05-05T16:16:12.256Z</time></trkpt><trkpt lat="44.3511537" lon="11.8241553"><ele>25.5</ele><time>2026-05-05T16:16:13.256Z</time></trkpt><trkpt lat="44.3510527" lon="11.8244772"><ele>26.0</ele><time>2026-05-05T16:16:14.255Z</time></trkpt><trkpt lat="44.3509525" lon="11.8247974"><ele>26.0</ele><time>2026-05-05T16:16:15.256Z</time></trkpt><trkpt lat="44.3508527" lon="11.825119"><ele>26.0</ele><time>2026-05-05T16:16:16.256Z</time></trkpt><trkpt lat="44.3507536" lon="11.8254405"><ele>26.0</ele><time>2026-05-05T16:16:17.256Z</time></trkpt><trkpt lat="44.3506551" lon="11.8257519"><ele>26.0</ele><time>2026-05-05T16:16:18.256Z</time></trkpt><trkpt lat="44.3505535" lon="11.8260744"><ele>25.5</ele><time>2026-05-05T16:16:19.256Z</time></trkpt><trkpt lat="44.3504555" lon="11.8263971"><ele>25.0</ele><time>2026-05-05T16:16:20.255Z</time></trkpt><trkpt lat="44.3503546" lon="11.8267197"><ele>25.5</ele><time>2026-05-05T16:16:21.255Z</time></trkpt><trkpt lat="44.350253" lon="11.8270438"><ele>26.0</ele><time>2026-05-05T16:16:22.255Z</time></trkpt><trkpt lat="44.3501508" lon="11.8273665"><ele>25.5</ele><time>2026-05-05T16:16:23.255Z</time></trkpt><trkpt lat="44.35005" lon="11.8276926"><ele>25.0</ele><time>2026-05-05T16:16:24.255Z</time></trkpt><trkpt lat="44.3499492" lon="11.8280197"><ele>25.0</ele><time>2026-05-05T16:16:25.256Z</time></trkpt><trkpt lat="44.349847" lon="11.8283491"><ele>25.0</ele><time>2026-05-05T16:16:26.256Z</time></trkpt><trkpt lat="44.3497435" lon="11.8286772"><ele>24.5</ele><time>2026-05-05T16:16:27.256Z</time></trkpt><trkpt lat="44.3496399" lon="11.829008"><ele>24.0</ele><time>2026-05-05T16:16:28.256Z</time></trkpt><trkpt lat="44.3495362" lon="11.82934"><ele>25.0</ele><time>2026-05-05T16:16:29.255Z</time></trkpt><trkpt lat="44.349432" lon="11.8296717"><ele>26.0</ele><time>2026-05-05T16:16:30.255Z</time></trkpt><trkpt lat="44.3493282" lon="11.8300048"><ele>25.5</ele><time>2026-05-05T16:16:31.256Z</time></trkpt><trkpt lat="44.3492249" lon="11.8303377"><ele>25.0</ele><time>2026-05-05T16:16:32.255Z</time></trkpt><trkpt lat="44.3491216" lon="11.8306698"><ele>24.5</ele><time>2026-05-05T16:16:33.255Z</time></trkpt><trkpt lat="44.349018" lon="11.8310031"><ele>24.0</ele><time>2026-05-05T16:16:34.256Z</time></trkpt><trkpt lat="44.3489138" lon="11.8313334"><ele>24.0</ele><time>2026-05-05T16:16:35.255Z</time></trkpt><trkpt lat="44.3488106" lon="11.8316612"><ele>24.0</ele><time>2026-05-05T16:16:36.256Z</time></trkpt><trkpt lat="44.3487036" lon="11.8319859"><ele>24.5</ele><time>2026-05-05T16:16:37.255Z</time></trkpt><trkpt lat="44.3486015" lon="11.8323107"><ele>25.0</ele><time>2026-05-05T16:16:38.255Z</time></trkpt><trkpt lat="44.3484995" lon="11.8326358"><ele>25.0</ele><time>2026-05-05T16:16:39.255Z</time></trkpt><trkpt lat="44.3483993" lon="11.8329523"><ele>25.0</ele><time>2026-05-05T16:16:40.256Z</time></trkpt><trkpt lat="44.3482998" lon="11.8332754"><ele>25.5</ele><time>2026-05-05T16:16:41.256Z</time></trkpt><trkpt lat="44.3481998" lon="11.8335939"><ele>26.0</ele><time>2026-05-05T16:16:42.256Z</time></trkpt><trkpt lat="44.3480992" lon="11.8339133"><ele>26.0</ele><time>2026-05-05T16:16:43.256Z</time></trkpt><trkpt lat="44.3479999" lon="11.8342318"><ele>26.0</ele><time>2026-05-05T16:16:44.256Z</time></trkpt><trkpt lat="44.3478971" lon="11.8345453"><ele>26.0</ele><time>2026-05-05T16:16:45.256Z</time></trkpt><trkpt lat="44.3477963" lon="11.8348608"><ele>26.0</ele><time>2026-05-05T16:16:46.256Z</time></trkpt><trkpt lat="44.3476929" lon="11.8351725"><ele>26.0</ele><time>2026-05-05T16:16:47.256Z</time></trkpt><trkpt lat="44.3475869" lon="11.8354791"><ele>26.0</ele><time>2026-05-05T16:16:48.256Z</time></trkpt><trkpt lat="44.3474797" lon="11.8357805"><ele>25.5</ele><time>2026-05-05T16:16:49.256Z</time></trkpt><trkpt lat="44.3473679" lon="11.8360818"><ele>25.0</ele><time>2026-05-05T16:16:50.255Z</time></trkpt><trkpt lat="44.3472566" lon="11.8363787"><ele>25.0</ele><time>2026-05-05T16:16:51.254Z</time></trkpt><trkpt lat="44.3471428" lon="11.8366727"><ele>25.0</ele><time>2026-05-05T16:16:52.255Z</time></trkpt><trkpt lat="44.3470292" lon="11.8369671"><ele>25.0</ele><time>2026-05-05T16:16:53.255Z</time></trkpt><trkpt lat="44.3469117" lon="11.8372655"><ele>25.0</ele><time>2026-05-05T16:16:54.256Z</time></trkpt><trkpt lat="44.3467941" lon="11.8375485"><ele>26.0</ele><time>2026-05-05T16:16:55.256Z</time></trkpt><trkpt lat="44.3466699" lon="11.837837"><ele>27.0</ele><time>2026-05-05T16:16:56.255Z</time></trkpt><trkpt lat="44.3465424" lon="11.8381237"><ele>27.0</ele><time>2026-05-05T16:16:57.256Z</time></trkpt><trkpt lat="44.3464127" lon="11.8384097"><ele>27.0</ele><time>2026-05-05T16:16:58.256Z</time></trkpt><trkpt lat="44.3462848" lon="11.8386919"><ele>26.5</ele><time>2026-05-05T16:16:59.256Z</time></trkpt><trkpt lat="44.3461577" lon="11.8389766"><ele>26.0</ele><time>2026-05-05T16:17:00.255Z</time></trkpt><trkpt lat="44.3460286" lon="11.839261"><ele>27.0</ele><time>2026-05-05T16:17:01.256Z</time></trkpt><trkpt lat="44.3458973" lon="11.8395454"><ele>28.0</ele><time>2026-05-05T16:17:02.255Z</time></trkpt><trkpt lat="44.3457678" lon="11.8398303"><ele>28.0</ele><time>2026-05-05T16:17:03.256Z</time></trkpt><trkpt lat="44.3456363" lon="11.8401192"><ele>28.0</ele><time>2026-05-05T16:17:04.256Z</time></trkpt><trkpt lat="44.345509" lon="11.8404002"><ele>27.5</ele><time>2026-05-05T16:17:05.256Z</time></trkpt><trkpt lat="44.3453788" lon="11.8406807"><ele>27.0</ele><time>2026-05-05T16:17:06.256Z</time></trkpt><trkpt lat="44.3452491" lon="11.8409629"><ele>27.0</ele><time>2026-05-05T16:17:07.256Z</time></trkpt><trkpt lat="44.3451225" lon="11.8412459"><ele>27.0</ele><time>2026-05-05T16:17:08.256Z</time></trkpt><trkpt lat="44.3449924" lon="11.8415302"><ele>26.5</ele><time>2026-05-05T16:17:09.256Z</time></trkpt><trkpt lat="44.3448645" lon="11.8418251"><ele>26.0</ele><time>2026-05-05T16:17:10.255Z</time></trkpt><trkpt lat="44.3447331" lon="11.842117"><ele>26.0</ele><time>2026-05-05T16:17:11.256Z</time></trkpt><trkpt lat="44.3446026" lon="11.8424136"><ele>26.0</ele><time>2026-05-05T16:17:12.255Z</time></trkpt><trkpt lat="44.3444674" lon="11.8427121"><ele>26.0</ele><time>2026-05-05T16:17:13.255Z</time></trkpt><trkpt lat="44.3443323" lon="11.8430098"><ele>26.0</ele><time>2026-05-05T16:17:14.255Z</time></trkpt><trkpt lat="44.3441962" lon="11.8433119"><ele>25.5</ele><time>2026-05-05T16:17:15.255Z</time></trkpt><trkpt lat="44.3440575" lon="11.8436145"><ele>25.0</ele><time>2026-05-05T16:17:16.256Z</time></trkpt><trkpt lat="44.3439192" lon="11.8439154"><ele>25.0</ele><time>2026-05-05T16:17:17.256Z</time></trkpt><trkpt lat="44.3437846" lon="11.8442208"><ele>25.0</ele><time>2026-05-05T16:17:18.255Z</time></trkpt><trkpt lat="44.3436498" lon="11.8445175"><ele>25.5</ele><time>2026-05-05T16:17:19.256Z</time></trkpt><trkpt lat="44.3435248" lon="11.8448012"><ele>26.0</ele><time>2026-05-05T16:17:20.255Z</time></trkpt><trkpt lat="44.3433862" lon="11.8450992"><ele>26.0</ele><time>2026-05-05T16:17:21.256Z</time></trkpt><trkpt lat="44.3432449" lon="11.8453979"><ele>26.0</ele><time>2026-05-05T16:17:22.255Z</time></trkpt><trkpt lat="44.3431091" lon="11.845702"><ele>26.0</ele><time>2026-05-05T16:17:23.255Z</time></trkpt><trkpt lat="44.3429717" lon="11.8460118"><ele>26.0</ele><time>2026-05-05T16:17:24.255Z</time></trkpt><trkpt lat="44.342835" lon="11.8463101"><ele>26.0</ele><time>2026-05-05T16:17:25.256Z</time></trkpt><trkpt lat="44.342701" lon="11.8466112"><ele>26.0</ele><time>2026-05-05T16:17:26.256Z</time></trkpt><trkpt lat="44.3425634" lon="11.8469132"><ele>26.5</ele><time>2026-05-05T16:17:27.255Z</time></trkpt><trkpt lat="44.3424321" lon="11.8472067"><ele>27.0</ele><time>2026-05-05T16:17:28.255Z</time></trkpt><trkpt lat="44.3422945" lon="11.8475019"><ele>26.0</ele><time>2026-05-05T16:17:29.256Z</time></trkpt><trkpt lat="44.3421587" lon="11.8477959"><ele>25.0</ele><time>2026-05-05T16:17:30.256Z</time></trkpt><trkpt lat="44.342026" lon="11.8480917"><ele>25.0</ele><time>2026-05-05T16:17:31.255Z</time></trkpt><trkpt lat="44.3418948" lon="11.8483904"><ele>25.0</ele><time>2026-05-05T16:17:32.255Z</time></trkpt><trkpt lat="44.341768" lon="11.8486669"><ele>25.5</ele><time>2026-05-05T16:17:33.255Z</time></trkpt><trkpt lat="44.3416356" lon="11.8489619"><ele>26.0</ele><time>2026-05-05T16:17:34.255Z</time></trkpt><trkpt lat="44.341502" lon="11.8492582"><ele>26.5</ele><time>2026-05-05T16:17:35.254Z</time></trkpt><trkpt lat="44.3413679" lon="11.8495539"><ele>27.0</ele><time>2026-05-05T16:17:36.256Z</time></trkpt><trkpt lat="44.3412321" lon="11.8498577"><ele>26.0</ele><time>2026-05-05T16:17:37.255Z</time></trkpt><trkpt lat="44.3410972" lon="11.8501653"><ele>25.0</ele><time>2026-05-05T16:17:38.256Z</time></trkpt><trkpt lat="44.340965" lon="11.8504739"><ele>25.0</ele><time>2026-05-05T16:17:39.256Z</time></trkpt><trkpt lat="44.340835" lon="11.8507873"><ele>25.0</ele><time>2026-05-05T16:17:40.256Z</time></trkpt><trkpt lat="44.3407145" lon="11.8511063"><ele>25.0</ele><time>2026-05-05T16:17:41.256Z</time></trkpt><trkpt lat="44.3406038" lon="11.8514273"><ele>25.0</ele><time>2026-05-05T16:17:42.255Z</time></trkpt><trkpt lat="44.3405015" lon="11.851754"><ele>26.0</ele><time>2026-05-05T16:17:43.256Z</time></trkpt><trkpt lat="44.3404018" lon="11.8520864"><ele>27.0</ele><time>2026-05-05T16:17:44.256Z</time></trkpt><trkpt lat="44.3403096" lon="11.8524216"><ele>27.0</ele><time>2026-05-05T16:17:45.255Z</time></trkpt><trkpt lat="44.3402199" lon="11.85275"><ele>27.0</ele><time>2026-05-05T16:17:46.256Z</time></trkpt><trkpt lat="44.340151" lon="11.8530779"><ele>27.0</ele><time>2026-05-05T16:17:47.256Z</time></trkpt><trkpt lat="44.3400782" lon="11.8534169"><ele>27.0</ele><time>2026-05-05T16:17:48.256Z</time></trkpt><trkpt lat="44.3400144" lon="11.8537608"><ele>27.5</ele><time>2026-05-05T16:17:49.256Z</time></trkpt><trkpt lat="44.3399573" lon="11.8541126"><ele>28.0</ele><time>2026-05-05T16:17:50.255Z</time></trkpt><trkpt lat="44.3399082" lon="11.8544547"><ele>28.5</ele><time>2026-05-05T16:17:51.256Z</time></trkpt><trkpt lat="44.3398539" lon="11.8547986"><ele>29.0</ele><time>2026-05-05T16:17:52.255Z</time></trkpt><trkpt lat="44.3398066" lon="11.8551446"><ele>29.0</ele><time>2026-05-05T16:17:53.254Z</time></trkpt><trkpt lat="44.3397608" lon="11.8554867"><ele>29.0</ele><time>2026-05-05T16:17:54.255Z</time></trkpt><trkpt lat="44.3397153" lon="11.8558256"><ele>29.0</ele><time>2026-05-05T16:17:55.256Z</time></trkpt><trkpt lat="44.3396702" lon="11.8561708"><ele>29.0</ele><time>2026-05-05T16:17:56.255Z</time></trkpt><trkpt lat="44.33962" lon="11.85651"><ele>30.0</ele><time>2026-05-05T16:17:57.255Z</time></trkpt><trkpt lat="44.3395716" lon="11.8568524"><ele>31.0</ele><time>2026-05-05T16:17:58.256Z</time></trkpt><trkpt lat="44.3395259" lon="11.8571949"><ele>31.0</ele><time>2026-05-05T16:17:59.255Z</time></trkpt><trkpt lat="44.3394775" lon="11.8575411"><ele>31.0</ele><time>2026-05-05T16:18:00.256Z</time></trkpt><trkpt lat="44.3394321" lon="11.8578887"><ele>31.0</ele><time>2026-05-05T16:18:01.256Z</time></trkpt><trkpt lat="44.3393853" lon="11.8582331"><ele>31.0</ele><time>2026-05-05T16:18:02.256Z</time></trkpt><trkpt lat="44.3393357" lon="11.8585773"><ele>31.0</ele><time>2026-05-05T16:18:03.256Z</time></trkpt><trkpt lat="44.3392884" lon="11.858923"><ele>31.0</ele><time>2026-05-05T16:18:04.256Z</time></trkpt><trkpt lat="44.3392371" lon="11.8592712"><ele>31.0</ele><time>2026-05-05T16:18:05.255Z</time></trkpt><trkpt lat="44.3391888" lon="11.8596215"><ele>31.0</ele><time>2026-05-05T16:18:06.256Z</time></trkpt><trkpt lat="44.3391439" lon="11.8599725"><ele>30.5</ele><time>2026-05-05T16:18:07.255Z</time></trkpt><trkpt lat="44.3390942" lon="11.8603259"><ele>30.0</ele><time>2026-05-05T16:18:08.256Z</time></trkpt><trkpt lat="44.3390428" lon="11.8606786"><ele>29.5</ele><time>2026-05-05T16:18:09.256Z</time></trkpt><trkpt lat="44.3389909" lon="11.8610341"><ele>29.0</ele><time>2026-05-05T16:18:10.255Z</time></trkpt><trkpt lat="44.3389412" lon="11.8613954"><ele>29.0</ele><time>2026-05-05T16:18:11.256Z</time></trkpt><trkpt lat="44.3388891" lon="11.8617576"><ele>29.0</ele><time>2026-05-05T16:18:12.255Z</time></trkpt><trkpt lat="44.3388386" lon="11.8621185"><ele>28.5</ele><time>2026-05-05T16:18:13.255Z</time></trkpt><trkpt lat="44.3387903" lon="11.8624784"><ele>28.0</ele><time>2026-05-05T16:18:14.256Z</time></trkpt><trkpt lat="44.3387414" lon="11.8628453"><ele>28.0</ele><time>2026-05-05T16:18:15.255Z</time></trkpt><trkpt lat="44.3386906" lon="11.8632084"><ele>28.0</ele><time>2026-05-05T16:18:16.256Z</time></trkpt><trkpt lat="44.3386403" lon="11.8635801"><ele>28.0</ele><time>2026-05-05T16:18:17.256Z</time></trkpt><trkpt lat="44.3385918" lon="11.8639511"><ele>28.0</ele><time>2026-05-05T16:18:18.255Z</time></trkpt><trkpt lat="44.3385408" lon="11.8643194"><ele>28.0</ele><time>2026-05-05T16:18:19.256Z</time></trkpt><trkpt lat="44.3384928" lon="11.8646923"><ele>28.0</ele><time>2026-05-05T16:18:20.256Z</time></trkpt><trkpt lat="44.3384429" lon="11.8650611"><ele>27.5</ele><time>2026-05-05T16:18:21.255Z</time></trkpt><trkpt lat="44.3383938" lon="11.8654283"><ele>27.0</ele><time>2026-05-05T16:18:22.256Z</time></trkpt><trkpt lat="44.3383389" lon="11.8658015"><ele>27.0</ele><time>2026-05-05T16:18:23.256Z</time></trkpt><trkpt lat="44.3382835" lon="11.8661767"><ele>27.0</ele><time>2026-05-05T16:18:24.256Z</time></trkpt><trkpt lat="44.3382256" lon="11.8665449"><ele>27.0</ele><time>2026-05-05T16:18:25.256Z</time></trkpt><trkpt lat="44.3381696" lon="11.8669215"><ele>27.0</ele><time>2026-05-05T16:18:26.256Z</time></trkpt><trkpt lat="44.3381154" lon="11.867302"><ele>27.0</ele><time>2026-05-05T16:18:27.255Z</time></trkpt><trkpt lat="44.3380623" lon="11.867679"><ele>27.0</ele><time>2026-05-05T16:18:28.256Z</time></trkpt><trkpt lat="44.3380015" lon="11.8680514"><ele>26.5</ele><time>2026-05-05T16:18:29.255Z</time></trkpt><trkpt lat="44.3379351" lon="11.8684281"><ele>26.0</ele><time>2026-05-05T16:18:30.256Z</time></trkpt><trkpt lat="44.3378547" lon="11.8687988"><ele>26.0</ele><time>2026-05-05T16:18:31.255Z</time></trkpt><trkpt lat="44.3377685" lon="11.8691696"><ele>26.0</ele><time>2026-05-05T16:18:32.256Z</time></trkpt><trkpt lat="44.3376732" lon="11.8695394"><ele>26.5</ele><time>2026-05-05T16:18:33.256Z</time></trkpt><trkpt lat="44.3375726" lon="11.8698955"><ele>27.0</ele><time>2026-05-05T16:18:34.255Z</time></trkpt><trkpt lat="44.337454" lon="11.8702517"><ele>27.0</ele><time>2026-05-05T16:18:35.256Z</time></trkpt><trkpt lat="44.3373309" lon="11.870609"><ele>27.0</ele><time>2026-05-05T16:18:36.256Z</time></trkpt><trkpt lat="44.3372042" lon="11.8709617"><ele>26.0</ele><time>2026-05-05T16:18:37.256Z</time></trkpt><trkpt lat="44.3370704" lon="11.8713116"><ele>25.0</ele><time>2026-05-05T16:18:38.255Z</time></trkpt><trkpt lat="44.3369327" lon="11.8716595"><ele>24.5</ele><time>2026-05-05T16:18:39.256Z</time></trkpt><trkpt lat="44.3367983" lon="11.8719961"><ele>24.0</ele><time>2026-05-05T16:18:40.255Z</time></trkpt><trkpt lat="44.3366626" lon="11.8723399"><ele>25.0</ele><time>2026-05-05T16:18:41.256Z</time></trkpt><trkpt lat="44.3365248" lon="11.8726871"><ele>26.0</ele><time>2026-05-05T16:18:42.256Z</time></trkpt><trkpt lat="44.3363893" lon="11.8730312"><ele>25.0</ele><time>2026-05-05T16:18:43.256Z</time></trkpt><trkpt lat="44.33625" lon="11.8733717"><ele>24.0</ele><time>2026-05-05T16:18:44.256Z</time></trkpt><trkpt lat="44.3361145" lon="11.873707"><ele>24.0</ele><time>2026-05-05T16:18:45.256Z</time></trkpt><trkpt lat="44.3359806" lon="11.8740483"><ele>24.0</ele><time>2026-05-05T16:18:46.255Z</time></trkpt><trkpt lat="44.3358463" lon="11.8743876"><ele>25.0</ele><time>2026-05-05T16:18:47.256Z</time></trkpt><trkpt lat="44.3357165" lon="11.8747217"><ele>26.0</ele><time>2026-05-05T16:18:48.255Z</time></trkpt><trkpt lat="44.3355853" lon="11.8750579"><ele>26.0</ele><time>2026-05-05T16:18:49.256Z</time></trkpt><trkpt lat="44.3354538" lon="11.8753908"><ele>26.0</ele><time>2026-05-05T16:18:50.256Z</time></trkpt><trkpt lat="44.3353246" lon="11.8757071"><ele>24.5</ele><time>2026-05-05T16:18:51.256Z</time></trkpt><trkpt lat="44.3351954" lon="11.8760308"><ele>23.0</ele><time>2026-05-05T16:18:52.255Z</time></trkpt><trkpt lat="44.33507" lon="11.8763517"><ele>23.0</ele><time>2026-05-05T16:18:53.256Z</time></trkpt><trkpt lat="44.3349472" lon="11.8766715"><ele>23.0</ele><time>2026-05-05T16:18:54.256Z</time></trkpt><trkpt lat="44.3348278" lon="11.8769909"><ele>24.0</ele><time>2026-05-05T16:18:55.256Z</time></trkpt><trkpt lat="44.3347065" lon="11.8772996"><ele>25.0</ele><time>2026-05-05T16:18:56.254Z</time></trkpt><trkpt lat="44.3345897" lon="11.8775998"><ele>25.5</ele><time>2026-05-05T16:18:57.255Z</time></trkpt><trkpt lat="44.3344777" lon="11.8778883"><ele>26.0</ele><time>2026-05-05T16:18:58.254Z</time></trkpt><trkpt lat="44.3343604" lon="11.8781762"><ele>25.5</ele><time>2026-05-05T16:18:59.256Z</time></trkpt><trkpt lat="44.3342447" lon="11.8784662"><ele>25.0</ele><time>2026-05-05T16:19:00.255Z</time></trkpt><trkpt lat="44.3341282" lon="11.878757"><ele>25.0</ele><time>2026-05-05T16:19:01.255Z</time></trkpt><trkpt lat="44.3340109" lon="11.8790493"><ele>25.0</ele><time>2026-05-05T16:19:02.256Z</time></trkpt><trkpt lat="44.3338951" lon="11.8793428"><ele>23.5</ele><time>2026-05-05T16:19:03.256Z</time></trkpt><trkpt lat="44.3337772" lon="11.8796419"><ele>22.0</ele><time>2026-05-05T16:19:04.255Z</time></trkpt><trkpt lat="44.33366" lon="11.8799471"><ele>22.5</ele><time>2026-05-05T16:19:05.256Z</time></trkpt><trkpt lat="44.3335416" lon="11.8802632"><ele>23.0</ele><time>2026-05-05T16:19:06.255Z</time></trkpt><trkpt lat="44.3334215" lon="11.8805878"><ele>23.0</ele><time>2026-05-05T16:19:07.255Z</time></trkpt><trkpt lat="44.3332954" lon="11.8809146"><ele>23.0</ele><time>2026-05-05T16:19:08.255Z</time></trkpt><trkpt lat="44.3331683" lon="11.8812483"><ele>24.0</ele><time>2026-05-05T16:19:09.255Z</time></trkpt><trkpt lat="44.333038" lon="11.8815861"><ele>25.0</ele><time>2026-05-05T16:19:10.255Z</time></trkpt><trkpt lat="44.3329063" lon="11.8819225"><ele>25.0</ele><time>2026-05-05T16:19:11.256Z</time></trkpt><trkpt lat="44.3327726" lon="11.8822496"><ele>25.0</ele><time>2026-05-05T16:19:12.256Z</time></trkpt><trkpt lat="44.332633" lon="11.8825926"><ele>25.5</ele><time>2026-05-05T16:19:13.256Z</time></trkpt><trkpt lat="44.3324947" lon="11.882929"><ele>26.0</ele><time>2026-05-05T16:19:14.256Z</time></trkpt><trkpt lat="44.3323599" lon="11.8832767"><ele>25.5</ele><time>2026-05-05T16:19:15.256Z</time></trkpt><trkpt lat="44.3322172" lon="11.8836287"><ele>25.0</ele><time>2026-05-05T16:19:16.255Z</time></trkpt><trkpt lat="44.3320745" lon="11.8839883"><ele>25.0</ele><time>2026-05-05T16:19:17.256Z</time></trkpt><trkpt lat="44.3319322" lon="11.8843418"><ele>25.0</ele><time>2026-05-05T16:19:18.255Z</time></trkpt><trkpt lat="44.3317876" lon="11.8847057"><ele>25.0</ele><time>2026-05-05T16:19:19.255Z</time></trkpt><trkpt lat="44.3316414" lon="11.885073"><ele>25.0</ele><time>2026-05-05T16:19:20.256Z</time></trkpt><trkpt lat="44.331499" lon="11.8854397"><ele>25.0</ele><time>2026-05-05T16:19:21.256Z</time></trkpt><trkpt lat="44.3313566" lon="11.8858111"><ele>25.0</ele><time>2026-05-05T16:19:22.256Z</time></trkpt><trkpt lat="44.3312084" lon="11.8861795"><ele>24.5</ele><time>2026-05-05T16:19:23.256Z</time></trkpt><trkpt lat="44.3310636" lon="11.8865422"><ele>24.0</ele><time>2026-05-05T16:19:24.256Z</time></trkpt><trkpt lat="44.3309131" lon="11.8869074"><ele>22.5</ele><time>2026-05-05T16:19:25.256Z</time></trkpt><trkpt lat="44.3307658" lon="11.8872594"><ele>21.0</ele><time>2026-05-05T16:19:26.255Z</time></trkpt><trkpt lat="44.3306132" lon="11.88762"><ele>21.5</ele><time>2026-05-05T16:19:27.255Z</time></trkpt><trkpt lat="44.3304634" lon="11.8879835"><ele>22.0</ele><time>2026-05-05T16:19:28.255Z</time></trkpt><trkpt lat="44.3303108" lon="11.8883356"><ele>22.5</ele><time>2026-05-05T16:19:29.256Z</time></trkpt><trkpt lat="44.3301651" lon="11.8886888"><ele>23.0</ele><time>2026-05-05T16:19:30.255Z</time></trkpt><trkpt lat="44.3300187" lon="11.8890504"><ele>23.0</ele><time>2026-05-05T16:19:31.254Z</time></trkpt><trkpt lat="44.3298804" lon="11.8893938"><ele>23.0</ele><time>2026-05-05T16:19:32.255Z</time></trkpt><trkpt lat="44.3297385" lon="11.8897492"><ele>22.5</ele><time>2026-05-05T16:19:33.256Z</time></trkpt><trkpt lat="44.3295929" lon="11.8901021"><ele>22.0</ele><time>2026-05-05T16:19:34.255Z</time></trkpt><trkpt lat="44.3294481" lon="11.89046"><ele>22.0</ele><time>2026-05-05T16:19:35.256Z</time></trkpt><trkpt lat="44.3293079" lon="11.8908082"><ele>22.0</ele><time>2026-05-05T16:19:36.255Z</time></trkpt><trkpt lat="44.3291678" lon="11.8911605"><ele>22.0</ele><time>2026-05-05T16:19:37.255Z</time></trkpt><trkpt lat="44.3290274" lon="11.8915066"><ele>22.0</ele><time>2026-05-05T16:19:38.256Z</time></trkpt><trkpt lat="44.3288902" lon="11.8918479"><ele>22.0</ele><time>2026-05-05T16:19:39.256Z</time></trkpt><trkpt lat="44.3287508" lon="11.8921967"><ele>22.0</ele><time>2026-05-05T16:19:40.256Z</time></trkpt><trkpt lat="44.3286091" lon="11.8925381"><ele>22.0</ele><time>2026-05-05T16:19:41.256Z</time></trkpt><trkpt lat="44.3284716" lon="11.892877"><ele>22.0</ele><time>2026-05-05T16:19:42.255Z</time></trkpt><trkpt lat="44.3283363" lon="11.8932174"><ele>22.0</ele><time>2026-05-05T16:19:43.256Z</time></trkpt><trkpt lat="44.3281948" lon="11.8935654"><ele>22.0</ele><time>2026-05-05T16:19:44.255Z</time></trkpt><trkpt lat="44.3280569" lon="11.8939138"><ele>23.0</ele><time>2026-05-05T16:19:45.256Z</time></trkpt><trkpt lat="44.327919" lon="11.8942669"><ele>24.0</ele><time>2026-05-05T16:19:46.255Z</time></trkpt><trkpt lat="44.3277786" lon="11.894619"><ele>24.0</ele><time>2026-05-05T16:19:47.255Z</time></trkpt><trkpt lat="44.3276404" lon="11.8949702"><ele>24.0</ele><time>2026-05-05T16:19:48.254Z</time></trkpt><trkpt lat="44.3275034" lon="11.8953252"><ele>24.0</ele><time>2026-05-05T16:19:49.256Z</time></trkpt><trkpt lat="44.3273621" lon="11.8956815"><ele>24.0</ele><time>2026-05-05T16:19:50.256Z</time></trkpt><trkpt lat="44.3272257" lon="11.896033"><ele>24.0</ele><time>2026-05-05T16:19:51.256Z</time></trkpt><trkpt lat="44.3270792" lon="11.8963929"><ele>24.0</ele><time>2026-05-05T16:19:52.256Z</time></trkpt><trkpt lat="44.3269388" lon="11.8967451"><ele>23.5</ele><time>2026-05-05T16:19:53.255Z</time></trkpt><trkpt lat="44.3267941" lon="11.8970975"><ele>23.0</ele><time>2026-05-05T16:19:54.256Z</time></trkpt><trkpt lat="44.3266463" lon="11.8974671"><ele>23.5</ele><time>2026-05-05T16:19:55.255Z</time></trkpt><trkpt lat="44.3265" lon="11.8978329"><ele>24.0</ele><time>2026-05-05T16:19:56.255Z</time></trkpt><trkpt lat="44.3263557" lon="11.8981941"><ele>23.0</ele><time>2026-05-05T16:19:57.256Z</time></trkpt><trkpt lat="44.3262161" lon="11.8985465"><ele>22.0</ele><time>2026-05-05T16:19:58.255Z</time></trkpt><trkpt lat="44.3260774" lon="11.8988985"><ele>21.5</ele><time>2026-05-05T16:19:59.256Z</time></trkpt><trkpt lat="44.3259379" lon="11.8992559"><ele>21.0</ele><time>2026-05-05T16:20:00.255Z</time></trkpt><trkpt lat="44.3257974" lon="11.8996112"><ele>21.0</ele><time>2026-05-05T16:20:01.255Z</time></trkpt><trkpt lat="44.3256553" lon="11.8999647"><ele>21.0</ele><time>2026-05-05T16:20:02.256Z</time></trkpt><trkpt lat="44.3255138" lon="11.9003182"><ele>20.5</ele><time>2026-05-05T16:20:03.255Z</time></trkpt><trkpt lat="44.3253729" lon="11.900682"><ele>20.0</ele><time>2026-05-05T16:20:04.256Z</time></trkpt><trkpt lat="44.3252297" lon="11.9010444"><ele>19.5</ele><time>2026-05-05T16:20:05.256Z</time></trkpt><trkpt lat="44.3250866" lon="11.9014051"><ele>19.0</ele><time>2026-05-05T16:20:06.255Z</time></trkpt><trkpt lat="44.3249408" lon="11.9017682"><ele>18.5</ele><time>2026-05-05T16:20:07.256Z</time></trkpt><trkpt lat="44.3248009" lon="11.9021272"><ele>18.0</ele><time>2026-05-05T16:20:08.256Z</time></trkpt><trkpt lat="44.3246555" lon="11.9024985"><ele>19.0</ele><time>2026-05-05T16:20:09.256Z</time></trkpt><trkpt lat="44.3245103" lon="11.902866"><ele>20.0</ele><time>2026-05-05T16:20:10.255Z</time></trkpt><trkpt lat="44.3243658" lon="11.9032361"><ele>20.0</ele><time>2026-05-05T16:20:11.256Z</time></trkpt><trkpt lat="44.3242217" lon="11.9036067"><ele>20.0</ele><time>2026-05-05T16:20:12.256Z</time></trkpt><trkpt lat="44.3240775" lon="11.9039699"><ele>20.0</ele><time>2026-05-05T16:20:13.256Z</time></trkpt><trkpt lat="44.3239331" lon="11.9043384"><ele>20.0</ele><time>2026-05-05T16:20:14.255Z</time></trkpt><trkpt lat="44.32379" lon="11.904703"><ele>21.5</ele><time>2026-05-05T16:20:15.256Z</time></trkpt><trkpt lat="44.3236479" lon="11.9050647"><ele>23.0</ele><time>2026-05-05T16:20:16.255Z</time></trkpt><trkpt lat="44.3235031" lon="11.905424"><ele>23.0</ele><time>2026-05-05T16:20:17.256Z</time></trkpt><trkpt lat="44.3233566" lon="11.9057868"><ele>23.0</ele><time>2026-05-05T16:20:18.256Z</time></trkpt><trkpt lat="44.3232142" lon="11.9061475"><ele>23.0</ele><time>2026-05-05T16:20:19.255Z</time></trkpt><trkpt lat="44.3230673" lon="11.9065134"><ele>23.0</ele><time>2026-05-05T16:20:20.255Z</time></trkpt><trkpt lat="44.3229219" lon="11.9068878"><ele>22.0</ele><time>2026-05-05T16:20:21.256Z</time></trkpt><trkpt lat="44.3227763" lon="11.9072635"><ele>21.0</ele><time>2026-05-05T16:20:22.256Z</time></trkpt><trkpt lat="44.3226281" lon="11.9076359"><ele>20.5</ele><time>2026-05-05T16:20:23.255Z</time></trkpt><trkpt lat="44.322483" lon="11.908011"><ele>20.0</ele><time>2026-05-05T16:20:24.255Z</time></trkpt><trkpt lat="44.3223366" lon="11.9083826"><ele>21.0</ele><time>2026-05-05T16:20:25.256Z</time></trkpt><trkpt lat="44.3221887" lon="11.9087405"><ele>22.0</ele><time>2026-05-05T16:20:26.256Z</time></trkpt><trkpt lat="44.3220372" lon="11.909108"><ele>22.5</ele><time>2026-05-05T16:20:27.255Z</time></trkpt><trkpt lat="44.3218867" lon="11.9094688"><ele>23.0</ele><time>2026-05-05T16:20:28.256Z</time></trkpt><trkpt lat="44.3217417" lon="11.9098322"><ele>23.5</ele><time>2026-05-05T16:20:29.256Z</time></trkpt><trkpt lat="44.3215964" lon="11.9101946"><ele>24.0</ele><time>2026-05-05T16:20:30.256Z</time></trkpt><trkpt lat="44.3214479" lon="11.9105657"><ele>22.5</ele><time>2026-05-05T16:20:31.255Z</time></trkpt><trkpt lat="44.3212996" lon="11.9109356"><ele>21.0</ele><time>2026-05-05T16:20:32.256Z</time></trkpt><trkpt lat="44.3211553" lon="11.9113085"><ele>21.0</ele><time>2026-05-05T16:20:33.255Z</time></trkpt><trkpt lat="44.3210082" lon="11.9116684"><ele>21.0</ele><time>2026-05-05T16:20:34.255Z</time></trkpt><trkpt lat="44.3208655" lon="11.9120301"><ele>21.0</ele><time>2026-05-05T16:20:35.256Z</time></trkpt><trkpt lat="44.3207295" lon="11.9123718"><ele>21.0</ele><time>2026-05-05T16:20:36.256Z</time></trkpt><trkpt lat="44.3205886" lon="11.9127296"><ele>21.5</ele><time>2026-05-05T16:20:37.255Z</time></trkpt><trkpt lat="44.320447" lon="11.9130879"><ele>22.0</ele><time>2026-05-05T16:20:38.256Z</time></trkpt><trkpt lat="44.3203121" lon="11.9134486"><ele>22.0</ele><time>2026-05-05T16:20:39.255Z</time></trkpt><trkpt lat="44.3201741" lon="11.9138115"><ele>22.0</ele><time>2026-05-05T16:20:40.256Z</time></trkpt><trkpt lat="44.3200411" lon="11.9141717"><ele>21.0</ele><time>2026-05-05T16:20:41.256Z</time></trkpt><trkpt lat="44.3199027" lon="11.9145365"><ele>20.0</ele><time>2026-05-05T16:20:42.256Z</time></trkpt><trkpt lat="44.3197646" lon="11.9148977"><ele>20.5</ele><time>2026-05-05T16:20:43.256Z</time></trkpt><trkpt lat="44.3196288" lon="11.9152561"><ele>21.0</ele><time>2026-05-05T16:20:44.255Z</time></trkpt><trkpt lat="44.3194907" lon="11.9156123"><ele>20.5</ele><time>2026-05-05T16:20:45.255Z</time></trkpt><trkpt lat="44.3193517" lon="11.9159721"><ele>20.0</ele><time>2026-05-05T16:20:46.256Z</time></trkpt><trkpt lat="44.3192095" lon="11.9163257"><ele>20.0</ele><time>2026-05-05T16:20:47.254Z</time></trkpt><trkpt lat="44.3190679" lon="11.9166843"><ele>20.0</ele><time>2026-05-05T16:20:48.256Z</time></trkpt><trkpt lat="44.3189219" lon="11.9170506"><ele>20.0</ele><time>2026-05-05T16:20:49.255Z</time></trkpt><trkpt lat="44.3187766" lon="11.9174076"><ele>20.0</ele><time>2026-05-05T16:20:50.256Z</time></trkpt><trkpt lat="44.3186211" lon="11.9177657"><ele>19.5</ele><time>2026-05-05T16:20:51.255Z</time></trkpt><trkpt lat="44.3184741" lon="11.9181274"><ele>19.0</ele><time>2026-05-05T16:20:52.256Z</time></trkpt><trkpt lat="44.3183302" lon="11.9184907"><ele>19.0</ele><time>2026-05-05T16:20:53.255Z</time></trkpt><trkpt lat="44.3181885" lon="11.9188445"><ele>19.0</ele><time>2026-05-05T16:20:54.255Z</time></trkpt><trkpt lat="44.3180431" lon="11.9192054"><ele>17.5</ele><time>2026-05-05T16:20:55.256Z</time></trkpt><trkpt lat="44.3179005" lon="11.919566"><ele>16.0</ele><time>2026-05-05T16:20:56.255Z</time></trkpt><trkpt lat="44.3177602" lon="11.9199194"><ele>17.0</ele><time>2026-05-05T16:20:57.255Z</time></trkpt><trkpt lat="44.3176196" lon="11.9202662"><ele>18.0</ele><time>2026-05-05T16:20:58.255Z</time></trkpt><trkpt lat="44.317479" lon="11.9206112"><ele>18.0</ele><time>2026-05-05T16:20:59.256Z</time></trkpt><trkpt lat="44.3173403" lon="11.9209553"><ele>18.0</ele><time>2026-05-05T16:21:00.256Z</time></trkpt><trkpt lat="44.3171954" lon="11.9212961"><ele>18.5</ele><time>2026-05-05T16:21:01.255Z</time></trkpt><trkpt lat="44.3170378" lon="11.9216267"><ele>19.0</ele><time>2026-05-05T16:21:02.255Z</time></trkpt><trkpt lat="44.3168699" lon="11.9219495"><ele>19.0</ele><time>2026-05-05T16:21:03.256Z</time></trkpt><trkpt lat="44.3167017" lon="11.922265"><ele>19.0</ele><time>2026-05-05T16:21:04.256Z</time></trkpt><trkpt lat="44.3165232" lon="11.9225759"><ele>19.0</ele><time>2026-05-05T16:21:05.256Z</time></trkpt><trkpt lat="44.3163417" lon="11.9228786"><ele>19.0</ele><time>2026-05-05T16:21:06.255Z</time></trkpt><trkpt lat="44.3161535" lon="11.9231746"><ele>19.5</ele><time>2026-05-05T16:21:07.255Z</time></trkpt><trkpt lat="44.3159645" lon="11.9234656"><ele>20.0</ele><time>2026-05-05T16:21:08.256Z</time></trkpt><trkpt lat="44.3157723" lon="11.9237501"><ele>20.0</ele><time>2026-05-05T16:21:09.255Z</time></trkpt><trkpt lat="44.3155808" lon="11.9240323"><ele>20.0</ele><time>2026-05-05T16:21:10.255Z</time></trkpt><trkpt lat="44.3153934" lon="11.9243138"><ele>20.5</ele><time>2026-05-05T16:21:11.255Z</time></trkpt><trkpt lat="44.3152096" lon="11.9245933"><ele>21.0</ele><time>2026-05-05T16:21:12.256Z</time></trkpt><trkpt lat="44.3150184" lon="11.9248725"><ele>21.5</ele><time>2026-05-05T16:21:13.255Z</time></trkpt><trkpt lat="44.3148326" lon="11.9251508"><ele>22.0</ele><time>2026-05-05T16:21:14.256Z</time></trkpt><trkpt lat="44.3146468" lon="11.9254264"><ele>22.0</ele><time>2026-05-05T16:21:15.255Z</time></trkpt><trkpt lat="44.314459" lon="11.9256981"><ele>22.0</ele><time>2026-05-05T16:21:16.255Z</time></trkpt><trkpt lat="44.3142722" lon="11.9259769"><ele>21.5</ele><time>2026-05-05T16:21:17.254Z</time></trkpt><trkpt lat="44.3140879" lon="11.9262526"><ele>21.0</ele><time>2026-05-05T16:21:18.256Z</time></trkpt><trkpt lat="44.3139051" lon="11.9265269"><ele>22.0</ele><time>2026-05-05T16:21:19.255Z</time></trkpt><trkpt lat="44.3137236" lon="11.9267879"><ele>23.0</ele><time>2026-05-05T16:21:20.256Z</time></trkpt><trkpt lat="44.3135395" lon="11.9270582"><ele>23.0</ele><time>2026-05-05T16:21:21.255Z</time></trkpt><trkpt lat="44.313358" lon="11.9273324"><ele>23.0</ele><time>2026-05-05T16:21:22.256Z</time></trkpt><trkpt lat="44.3131787" lon="11.9276112"><ele>22.0</ele><time>2026-05-05T16:21:23.256Z</time></trkpt><trkpt lat="44.3129978" lon="11.9278893"><ele>21.0</ele><time>2026-05-05T16:21:24.256Z</time></trkpt><trkpt lat="44.3128227" lon="11.9281764"><ele>21.0</ele><time>2026-05-05T16:21:25.255Z</time></trkpt><trkpt lat="44.3126503" lon="11.9284754"><ele>21.0</ele><time>2026-05-05T16:21:26.256Z</time></trkpt><trkpt lat="44.3124904" lon="11.9287789"><ele>21.0</ele><time>2026-05-05T16:21:27.255Z</time></trkpt><trkpt lat="44.3123355" lon="11.929093"><ele>21.0</ele><time>2026-05-05T16:21:28.255Z</time></trkpt><trkpt lat="44.3121882" lon="11.9294147"><ele>21.0</ele><time>2026-05-05T16:21:29.255Z</time></trkpt><trkpt lat="44.3120448" lon="11.9297427"><ele>21.0</ele><time>2026-05-05T16:21:30.256Z</time></trkpt><trkpt lat="44.3119056" lon="11.9300726"><ele>20.5</ele><time>2026-05-05T16:21:31.256Z</time></trkpt><trkpt lat="44.3117753" lon="11.9304129"><ele>20.0</ele><time>2026-05-05T16:21:32.256Z</time></trkpt><trkpt lat="44.3116518" lon="11.9307515"><ele>20.5</ele><time>2026-05-05T16:21:33.256Z</time></trkpt><trkpt lat="44.3115364" lon="11.9311039"><ele>21.0</ele><time>2026-05-05T16:21:34.254Z</time></trkpt><trkpt lat="44.3114237" lon="11.9314562"><ele>20.5</ele><time>2026-05-05T16:21:35.255Z</time></trkpt><trkpt lat="44.3113067" lon="11.9318171"><ele>20.0</ele><time>2026-05-05T16:21:36.255Z</time></trkpt><trkpt lat="44.3111911" lon="11.9321726"><ele>20.0</ele><time>2026-05-05T16:21:37.256Z</time></trkpt><trkpt lat="44.3110742" lon="11.9325224"><ele>20.0</ele><time>2026-05-05T16:21:38.256Z</time></trkpt><trkpt lat="44.3109564" lon="11.9328763"><ele>20.5</ele><time>2026-05-05T16:21:39.255Z</time></trkpt><trkpt lat="44.3108347" lon="11.9332414"><ele>21.0</ele><time>2026-05-05T16:21:40.256Z</time></trkpt><trkpt lat="44.3107166" lon="11.9336065"><ele>21.0</ele><time>2026-05-05T16:21:41.256Z</time></trkpt><trkpt lat="44.3105964" lon="11.9339727"><ele>21.0</ele><time>2026-05-05T16:21:42.256Z</time></trkpt><trkpt lat="44.3104701" lon="11.9343404"><ele>21.0</ele><time>2026-05-05T16:21:43.256Z</time></trkpt><trkpt lat="44.310349" lon="11.9347057"><ele>21.0</ele><time>2026-05-05T16:21:44.255Z</time></trkpt><trkpt lat="44.3102259" lon="11.9350736"><ele>21.0</ele><time>2026-05-05T16:21:45.255Z</time></trkpt><trkpt lat="44.3101039" lon="11.9354427"><ele>21.0</ele><time>2026-05-05T16:21:46.256Z</time></trkpt><trkpt lat="44.3099821" lon="11.935812"><ele>20.5</ele><time>2026-05-05T16:21:47.256Z</time></trkpt><trkpt lat="44.3098604" lon="11.9361825"><ele>20.0</ele><time>2026-05-05T16:21:48.255Z</time></trkpt><trkpt lat="44.3097398" lon="11.9365493"><ele>20.5</ele><time>2026-05-05T16:21:49.256Z</time></trkpt><trkpt lat="44.3096169" lon="11.9369153"><ele>21.0</ele><time>2026-05-05T16:21:50.256Z</time></trkpt><trkpt lat="44.3094929" lon="11.9372834"><ele>21.0</ele><time>2026-05-05T16:21:51.256Z</time></trkpt><trkpt lat="44.3093735" lon="11.9376392"><ele>21.0</ele><time>2026-05-05T16:21:52.255Z</time></trkpt><trkpt lat="44.3092495" lon="11.9380119"><ele>21.5</ele><time>2026-05-05T16:21:53.255Z</time></trkpt><trkpt lat="44.3091191" lon="11.9383986"><ele>22.0</ele><time>2026-05-05T16:21:54.256Z</time></trkpt><trkpt lat="44.3089923" lon="11.9387757"><ele>23.0</ele><time>2026-05-05T16:21:55.256Z</time></trkpt><trkpt lat="44.3088618" lon="11.9391669"><ele>24.0</ele><time>2026-05-05T16:21:56.255Z</time></trkpt><trkpt lat="44.3087248" lon="11.9395792"><ele>24.0</ele><time>2026-05-05T16:21:57.255Z</time></trkpt><trkpt lat="44.3085829" lon="11.9399942"><ele>24.0</ele><time>2026-05-05T16:21:58.256Z</time></trkpt><trkpt lat="44.3084438" lon="11.9404146"><ele>23.5</ele><time>2026-05-05T16:21:59.255Z</time></trkpt><trkpt lat="44.308306" lon="11.9408342"><ele>23.0</ele><time>2026-05-05T16:22:00.255Z</time></trkpt><trkpt lat="44.3081706" lon="11.9412363"><ele>23.0</ele><time>2026-05-05T16:22:01.256Z</time></trkpt><trkpt lat="44.3080321" lon="11.9416453"><ele>23.0</ele><time>2026-05-05T16:22:02.256Z</time></trkpt><trkpt lat="44.3078957" lon="11.9420416"><ele>23.0</ele><time>2026-05-05T16:22:03.255Z</time></trkpt><trkpt lat="44.3077609" lon="11.9424291"><ele>23.0</ele><time>2026-05-05T16:22:04.256Z</time></trkpt><trkpt lat="44.3076203" lon="11.9428199"><ele>22.0</ele><time>2026-05-05T16:22:05.254Z</time></trkpt><trkpt lat="44.3074808" lon="11.943213"><ele>21.0</ele><time>2026-05-05T16:22:06.254Z</time></trkpt><trkpt lat="44.3073452" lon="11.9435957"><ele>22.0</ele><time>2026-05-05T16:22:07.256Z</time></trkpt><trkpt lat="44.3072139" lon="11.9439729"><ele>23.0</ele><time>2026-05-05T16:22:08.256Z</time></trkpt><trkpt lat="44.3070829" lon="11.9443445"><ele>23.0</ele><time>2026-05-05T16:22:09.256Z</time></trkpt><trkpt lat="44.306958" lon="11.9447113"><ele>23.0</ele><time>2026-05-05T16:22:10.254Z</time></trkpt><trkpt lat="44.3068332" lon="11.9450768"><ele>22.5</ele><time>2026-05-05T16:22:11.256Z</time></trkpt><trkpt lat="44.3067045" lon="11.945446"><ele>22.0</ele><time>2026-05-05T16:22:12.256Z</time></trkpt><trkpt lat="44.3065775" lon="11.9458155"><ele>22.5</ele><time>2026-05-05T16:22:13.256Z</time></trkpt><trkpt lat="44.3064434" lon="11.9461817"><ele>23.0</ele><time>2026-05-05T16:22:14.255Z</time></trkpt><trkpt lat="44.3063116" lon="11.9465456"><ele>23.5</ele><time>2026-05-05T16:22:15.255Z</time></trkpt><trkpt lat="44.3061775" lon="11.9469155"><ele>24.0</ele><time>2026-05-05T16:22:16.256Z</time></trkpt><trkpt lat="44.306042" lon="11.9472815"><ele>23.0</ele><time>2026-05-05T16:22:17.255Z</time></trkpt><trkpt lat="44.3059103" lon="11.9476416"><ele>22.0</ele><time>2026-05-05T16:22:18.255Z</time></trkpt><trkpt lat="44.3057736" lon="11.9479996"><ele>22.0</ele><time>2026-05-05T16:22:19.255Z</time></trkpt><trkpt lat="44.3056369" lon="11.948358"><ele>22.0</ele><time>2026-05-05T16:22:20.256Z</time></trkpt><trkpt lat="44.3054963" lon="11.9487181"><ele>22.0</ele><time>2026-05-05T16:22:21.256Z</time></trkpt><trkpt lat="44.3053582" lon="11.9490726"><ele>22.0</ele><time>2026-05-05T16:22:22.256Z</time></trkpt><trkpt lat="44.3052212" lon="11.9494306"><ele>21.0</ele><time>2026-05-05T16:22:23.255Z</time></trkpt><trkpt lat="44.3050852" lon="11.949785"><ele>20.0</ele><time>2026-05-05T16:22:24.256Z</time></trkpt><trkpt lat="44.3049493" lon="11.950144"><ele>20.0</ele><time>2026-05-05T16:22:25.254Z</time></trkpt><trkpt lat="44.3048067" lon="11.9505081"><ele>20.0</ele><time>2026-05-05T16:22:26.255Z</time></trkpt><trkpt lat="44.304666" lon="11.95087"><ele>20.5</ele><time>2026-05-05T16:22:27.255Z</time></trkpt><trkpt lat="44.3045266" lon="11.9512347"><ele>21.0</ele><time>2026-05-05T16:22:28.255Z</time></trkpt><trkpt lat="44.3043882" lon="11.9515924"><ele>20.5</ele><time>2026-05-05T16:22:29.256Z</time></trkpt><trkpt lat="44.304252" lon="11.951957"><ele>20.0</ele><time>2026-05-05T16:22:30.255Z</time></trkpt><trkpt lat="44.3041152" lon="11.9523149"><ele>20.0</ele><time>2026-05-05T16:22:31.255Z</time></trkpt><trkpt lat="44.3039793" lon="11.9526573"><ele>20.0</ele><time>2026-05-05T16:22:32.256Z</time></trkpt><trkpt lat="44.3038474" lon="11.95301"><ele>20.0</ele><time>2026-05-05T16:22:33.255Z</time></trkpt><trkpt lat="44.3037122" lon="11.9533618"><ele>20.0</ele><time>2026-05-05T16:22:34.256Z</time></trkpt><trkpt lat="44.3035852" lon="11.9537032"><ele>20.0</ele><time>2026-05-05T16:22:35.255Z</time></trkpt><trkpt lat="44.3034557" lon="11.9540446"><ele>20.0</ele><time>2026-05-05T16:22:36.256Z</time></trkpt><trkpt lat="44.3033253" lon="11.9543925"><ele>20.0</ele><time>2026-05-05T16:22:37.256Z</time></trkpt><trkpt lat="44.3031922" lon="11.9547455"><ele>20.0</ele><time>2026-05-05T16:22:38.255Z</time></trkpt><trkpt lat="44.3030616" lon="11.9551103"><ele>21.0</ele><time>2026-05-05T16:22:39.256Z</time></trkpt><trkpt lat="44.3029308" lon="11.9554716"><ele>22.0</ele><time>2026-05-05T16:22:40.255Z</time></trkpt><trkpt lat="44.302797" lon="11.955843"><ele>21.0</ele><time>2026-05-05T16:22:41.256Z</time></trkpt><trkpt lat="44.3026576" lon="11.9562197"><ele>20.0</ele><time>2026-05-05T16:22:42.255Z</time></trkpt><trkpt lat="44.3025187" lon="11.9565893"><ele>19.5</ele><time>2026-05-05T16:22:43.254Z</time></trkpt><trkpt lat="44.3023788" lon="11.9569619"><ele>19.0</ele><time>2026-05-05T16:22:44.255Z</time></trkpt><trkpt lat="44.3022358" lon="11.9573346"><ele>19.0</ele><time>2026-05-05T16:22:45.256Z</time></trkpt><trkpt lat="44.302094" lon="11.9576995"><ele>19.0</ele><time>2026-05-05T16:22:46.256Z</time></trkpt><trkpt lat="44.30195" lon="11.9580693"><ele>19.5</ele><time>2026-05-05T16:22:47.255Z</time></trkpt><trkpt lat="44.3018071" lon="11.9584417"><ele>20.0</ele><time>2026-05-05T16:22:48.255Z</time></trkpt><trkpt lat="44.3016661" lon="11.9588047"><ele>20.0</ele><time>2026-05-05T16:22:49.256Z</time></trkpt><trkpt lat="44.3015229" lon="11.9591755"><ele>20.0</ele><time>2026-05-05T16:22:50.255Z</time></trkpt><trkpt lat="44.3013769" lon="11.9595394"><ele>20.0</ele><time>2026-05-05T16:22:51.255Z</time></trkpt><trkpt lat="44.3012313" lon="11.9599065"><ele>20.0</ele><time>2026-05-05T16:22:52.256Z</time></trkpt><trkpt lat="44.3010878" lon="11.9602683"><ele>19.5</ele><time>2026-05-05T16:22:53.255Z</time></trkpt><trkpt lat="44.3009466" lon="11.9606278"><ele>19.0</ele><time>2026-05-05T16:22:54.256Z</time></trkpt><trkpt lat="44.3008067" lon="11.9609899"><ele>18.5</ele><time>2026-05-05T16:22:55.255Z</time></trkpt><trkpt lat="44.300666" lon="11.9613566"><ele>18.0</ele><time>2026-05-05T16:22:56.254Z</time></trkpt><trkpt lat="44.3005246" lon="11.9617226"><ele>18.0</ele><time>2026-05-05T16:22:57.255Z</time></trkpt><trkpt lat="44.3003844" lon="11.9620869"><ele>18.0</ele><time>2026-05-05T16:22:58.255Z</time></trkpt><trkpt lat="44.300248" lon="11.9624552"><ele>18.0</ele><time>2026-05-05T16:22:59.256Z</time></trkpt><trkpt lat="44.3001081" lon="11.9628251"><ele>18.0</ele><time>2026-05-05T16:23:00.255Z</time></trkpt><trkpt lat="44.299978" lon="11.963195"><ele>18.5</ele><time>2026-05-05T16:23:01.256Z</time></trkpt><trkpt lat="44.299835" lon="11.9635596"><ele>19.0</ele><time>2026-05-05T16:23:02.255Z</time></trkpt><trkpt lat="44.2996902" lon="11.9639266"><ele>18.0</ele><time>2026-05-05T16:23:03.255Z</time></trkpt><trkpt lat="44.299554" lon="11.964304"><ele>17.0</ele><time>2026-05-05T16:23:04.256Z</time></trkpt><trkpt lat="44.2994156" lon="11.9646733"><ele>17.5</ele><time>2026-05-05T16:23:05.255Z</time></trkpt><trkpt lat="44.2992729" lon="11.9650401"><ele>18.0</ele><time>2026-05-05T16:23:06.255Z</time></trkpt><trkpt lat="44.2991324" lon="11.9654007"><ele>18.0</ele><time>2026-05-05T16:23:07.255Z</time></trkpt><trkpt lat="44.29899" lon="11.9657667"><ele>18.0</ele><time>2026-05-05T16:23:08.256Z</time></trkpt><trkpt lat="44.2988545" lon="11.966111"><ele>17.5</ele><time>2026-05-05T16:23:09.254Z</time></trkpt><trkpt lat="44.2987141" lon="11.9664792"><ele>17.0</ele><time>2026-05-05T16:23:10.256Z</time></trkpt><trkpt lat="44.2985777" lon="11.9668429"><ele>17.0</ele><time>2026-05-05T16:23:11.256Z</time></trkpt><trkpt lat="44.2984421" lon="11.9672013"><ele>17.0</ele><time>2026-05-05T16:23:12.256Z</time></trkpt><trkpt lat="44.2983059" lon="11.9675668"><ele>17.0</ele><time>2026-05-05T16:23:13.255Z</time></trkpt><trkpt lat="44.2981638" lon="11.9679211"><ele>17.0</ele><time>2026-05-05T16:23:14.256Z</time></trkpt><trkpt lat="44.2980266" lon="11.9682713"><ele>16.5</ele><time>2026-05-05T16:23:15.255Z</time></trkpt><trkpt lat="44.2978928" lon="11.9686237"><ele>16.0</ele><time>2026-05-05T16:23:16.256Z</time></trkpt><trkpt lat="44.2977541" lon="11.9689791"><ele>16.0</ele><time>2026-05-05T16:23:17.256Z</time></trkpt><trkpt lat="44.2976158" lon="11.9693401"><ele>16.0</ele><time>2026-05-05T16:23:18.255Z</time></trkpt><trkpt lat="44.2974794" lon="11.9697043"><ele>16.5</ele><time>2026-05-05T16:23:19.255Z</time></trkpt><trkpt lat="44.2973456" lon="11.9700678"><ele>17.0</ele><time>2026-05-05T16:23:20.256Z</time></trkpt><trkpt lat="44.29721" lon="11.9704363"><ele>17.5</ele><time>2026-05-05T16:23:21.256Z</time></trkpt><trkpt lat="44.2970796" lon="11.9708039"><ele>18.0</ele><time>2026-05-05T16:23:22.255Z</time></trkpt><trkpt lat="44.2969479" lon="11.9711728"><ele>17.0</ele><time>2026-05-05T16:23:23.256Z</time></trkpt><trkpt lat="44.2968169" lon="11.9715445"><ele>16.0</ele><time>2026-05-05T16:23:24.255Z</time></trkpt><trkpt lat="44.2966887" lon="11.9719164"><ele>15.5</ele><time>2026-05-05T16:23:25.255Z</time></trkpt><trkpt lat="44.2965573" lon="11.9722891"><ele>15.0</ele><time>2026-05-05T16:23:26.256Z</time></trkpt><trkpt lat="44.2964272" lon="11.9726555"><ele>15.0</ele><time>2026-05-05T16:23:27.256Z</time></trkpt><trkpt lat="44.2962946" lon="11.9730231"><ele>15.0</ele><time>2026-05-05T16:23:28.256Z</time></trkpt><trkpt lat="44.2961622" lon="11.9733952"><ele>15.0</ele><time>2026-05-05T16:23:29.256Z</time></trkpt><trkpt lat="44.2960285" lon="11.9737661"><ele>15.0</ele><time>2026-05-05T16:23:30.255Z</time></trkpt><trkpt lat="44.2958917" lon="11.9741519"><ele>14.5</ele><time>2026-05-05T16:23:31.256Z</time></trkpt><trkpt lat="44.2957502" lon="11.9745379"><ele>14.0</ele><time>2026-05-05T16:23:32.256Z</time></trkpt><trkpt lat="44.2956117" lon="11.9749145"><ele>14.0</ele><time>2026-05-05T16:23:33.255Z</time></trkpt><trkpt lat="44.2954742" lon="11.9753001"><ele>14.0</ele><time>2026-05-05T16:23:34.255Z</time></trkpt><trkpt lat="44.2953436" lon="11.9756781"><ele>15.0</ele><time>2026-05-05T16:23:35.256Z</time></trkpt><trkpt lat="44.2952111" lon="11.9760549"><ele>16.0</ele><time>2026-05-05T16:23:36.255Z</time></trkpt><trkpt lat="44.2950763" lon="11.9764256"><ele>15.0</ele><time>2026-05-05T16:23:37.255Z</time></trkpt><trkpt lat="44.2949431" lon="11.9767994"><ele>14.0</ele><time>2026-05-05T16:23:38.256Z</time></trkpt><trkpt lat="44.2948088" lon="11.9771708"><ele>13.5</ele><time>2026-05-05T16:23:39.255Z</time></trkpt><trkpt lat="44.294676" lon="11.97755"><ele>13.0</ele><time>2026-05-05T16:23:40.256Z</time></trkpt><trkpt lat="44.2945443" lon="11.9779207"><ele>13.0</ele><time>2026-05-05T16:23:41.256Z</time></trkpt><trkpt lat="44.2944116" lon="11.9782878"><ele>13.0</ele><time>2026-05-05T16:23:42.255Z</time></trkpt><trkpt lat="44.2942825" lon="11.9786455"><ele>14.0</ele><time>2026-05-05T16:23:43.256Z</time></trkpt><trkpt lat="44.2941542" lon="11.9790124"><ele>15.0</ele><time>2026-05-05T16:23:44.255Z</time></trkpt><trkpt lat="44.2940323" lon="11.9793831"><ele>14.5</ele><time>2026-05-05T16:23:45.256Z</time></trkpt><trkpt lat="44.293902" lon="11.9797486"><ele>14.0</ele><time>2026-05-05T16:23:46.256Z</time></trkpt><trkpt lat="44.293772" lon="11.9801182"><ele>14.0</ele><time>2026-05-05T16:23:47.256Z</time></trkpt><trkpt lat="44.293642" lon="11.9804886"><ele>14.0</ele><time>2026-05-05T16:23:48.256Z</time></trkpt><trkpt lat="44.2935155" lon="11.9808472"><ele>14.0</ele><time>2026-05-05T16:23:49.255Z</time></trkpt><trkpt lat="44.2933861" lon="11.9812096"><ele>14.0</ele><time>2026-05-05T16:23:50.256Z</time></trkpt><trkpt lat="44.2932593" lon="11.9815577"><ele>14.0</ele><time>2026-05-05T16:23:51.256Z</time></trkpt><trkpt lat="44.2931364" lon="11.9819195"><ele>14.0</ele><time>2026-05-05T16:23:52.255Z</time></trkpt><trkpt lat="44.2930053" lon="11.9822721"><ele>14.5</ele><time>2026-05-05T16:23:53.256Z</time></trkpt><trkpt lat="44.292877" lon="11.9826216"><ele>15.0</ele><time>2026-05-05T16:23:54.255Z</time></trkpt><trkpt lat="44.2927496" lon="11.9829746"><ele>15.0</ele><time>2026-05-05T16:23:55.254Z</time></trkpt><trkpt lat="44.2926205" lon="11.9833318"><ele>15.0</ele><time>2026-05-05T16:23:56.255Z</time></trkpt><trkpt lat="44.2924941" lon="11.9836845"><ele>15.0</ele><time>2026-05-05T16:23:57.256Z</time></trkpt><trkpt lat="44.2923695" lon="11.9840397"><ele>15.0</ele><time>2026-05-05T16:23:58.256Z</time></trkpt><trkpt lat="44.2922433" lon="11.9843963"><ele>15.0</ele><time>2026-05-05T16:23:59.256Z</time></trkpt><trkpt lat="44.2921204" lon="11.9847522"><ele>15.0</ele><time>2026-05-05T16:24:00.256Z</time></trkpt><trkpt lat="44.2919926" lon="11.9851066"><ele>15.0</ele><time>2026-05-05T16:24:01.256Z</time></trkpt><trkpt lat="44.291864" lon="11.9854607"><ele>15.0</ele><time>2026-05-05T16:24:02.255Z</time></trkpt><trkpt lat="44.2917347" lon="11.9858138"><ele>13.5</ele><time>2026-05-05T16:24:03.255Z</time></trkpt><trkpt lat="44.2916051" lon="11.986158"><ele>12.0</ele><time>2026-05-05T16:24:04.256Z</time></trkpt><trkpt lat="44.291473" lon="11.9865172"><ele>12.0</ele><time>2026-05-05T16:24:05.256Z</time></trkpt><trkpt lat="44.2913377" lon="11.9868696"><ele>12.0</ele><time>2026-05-05T16:24:06.255Z</time></trkpt><trkpt lat="44.2912044" lon="11.9872246"><ele>12.5</ele><time>2026-05-05T16:24:07.256Z</time></trkpt><trkpt lat="44.291064" lon="11.9875759"><ele>13.0</ele><time>2026-05-05T16:24:08.255Z</time></trkpt><trkpt lat="44.290924" lon="11.9879248"><ele>13.0</ele><time>2026-05-05T16:24:09.254Z</time></trkpt><trkpt lat="44.2907787" lon="11.9882751"><ele>13.0</ele><time>2026-05-05T16:24:10.255Z</time></trkpt><trkpt lat="44.2906449" lon="11.9886252"><ele>13.5</ele><time>2026-05-05T16:24:11.256Z</time></trkpt><trkpt lat="44.2904985" lon="11.9889649"><ele>14.0</ele><time>2026-05-05T16:24:12.256Z</time></trkpt><trkpt lat="44.2903568" lon="11.9893052"><ele>14.0</ele><time>2026-05-05T16:24:13.256Z</time></trkpt><trkpt lat="44.2902115" lon="11.9896451"><ele>14.0</ele><time>2026-05-05T16:24:14.256Z</time></trkpt><trkpt lat="44.2900643" lon="11.9899855"><ele>14.5</ele><time>2026-05-05T16:24:15.255Z</time></trkpt><trkpt lat="44.2899195" lon="11.9903292"><ele>15.0</ele><time>2026-05-05T16:24:16.256Z</time></trkpt><trkpt lat="44.2897778" lon="11.9906684"><ele>14.5</ele><time>2026-05-05T16:24:17.256Z</time></trkpt><trkpt lat="44.2896396" lon="11.9910036"><ele>14.0</ele><time>2026-05-05T16:24:18.256Z</time></trkpt><trkpt lat="44.289493" lon="11.9913387"><ele>14.0</ele><time>2026-05-05T16:24:19.255Z</time></trkpt><trkpt lat="44.2893473" lon="11.9916718"><ele>14.0</ele><time>2026-05-05T16:24:20.255Z</time></trkpt><trkpt lat="44.289198" lon="11.9920085"><ele>14.0</ele><time>2026-05-05T16:24:21.256Z</time></trkpt><trkpt lat="44.2890491" lon="11.9923453"><ele>14.0</ele><time>2026-05-05T16:24:22.255Z</time></trkpt><trkpt lat="44.2889017" lon="11.9926773"><ele>14.0</ele><time>2026-05-05T16:24:23.255Z</time></trkpt><trkpt lat="44.288757" lon="11.9929994"><ele>14.0</ele><time>2026-05-05T16:24:24.255Z</time></trkpt><trkpt lat="44.288617" lon="11.9933264"><ele>14.5</ele><time>2026-05-05T16:24:25.256Z</time></trkpt><trkpt lat="44.2884835" lon="11.9936456"><ele>15.0</ele><time>2026-05-05T16:24:26.256Z</time></trkpt><trkpt lat="44.2883419" lon="11.9939737"><ele>15.0</ele><time>2026-05-05T16:24:27.255Z</time></trkpt><trkpt lat="44.2882108" lon="11.9942845"><ele>15.0</ele><time>2026-05-05T16:24:28.256Z</time></trkpt><trkpt lat="44.2880733" lon="11.9946053"><ele>15.5</ele><time>2026-05-05T16:24:29.255Z</time></trkpt><trkpt lat="44.2879402" lon="11.9949239"><ele>16.0</ele><time>2026-05-05T16:24:30.256Z</time></trkpt><trkpt lat="44.2878067" lon="11.995244"><ele>16.0</ele><time>2026-05-05T16:24:31.256Z</time></trkpt><trkpt lat="44.2876731" lon="11.9955549"><ele>16.0</ele><time>2026-05-05T16:24:32.256Z</time></trkpt><trkpt lat="44.2875415" lon="11.9958714"><ele>16.0</ele><time>2026-05-05T16:24:33.256Z</time></trkpt><trkpt lat="44.287414" lon="11.9961727"><ele>16.0</ele><time>2026-05-05T16:24:34.255Z</time></trkpt><trkpt lat="44.2872871" lon="11.9964709"><ele>15.0</ele><time>2026-05-05T16:24:35.255Z</time></trkpt><trkpt lat="44.2871595" lon="11.9967709"><ele>14.0</ele><time>2026-05-05T16:24:36.256Z</time></trkpt><trkpt lat="44.2870322" lon="11.9970671"><ele>14.0</ele><time>2026-05-05T16:24:37.255Z</time></trkpt><trkpt lat="44.2869031" lon="11.9973641"><ele>14.0</ele><time>2026-05-05T16:24:38.256Z</time></trkpt><trkpt lat="44.2867766" lon="11.9976591"><ele>15.5</ele><time>2026-05-05T16:24:39.255Z</time></trkpt><trkpt lat="44.2866595" lon="11.9979561"><ele>17.0</ele><time>2026-05-05T16:24:40.255Z</time></trkpt><trkpt lat="44.2865429" lon="11.9982379"><ele>17.5</ele><time>2026-05-05T16:24:41.256Z</time></trkpt><trkpt lat="44.2864213" lon="11.9985316"><ele>18.0</ele><time>2026-05-05T16:24:42.255Z</time></trkpt><trkpt lat="44.2862953" lon="11.998824"><ele>18.0</ele><time>2026-05-05T16:24:43.256Z</time></trkpt><trkpt lat="44.2861712" lon="11.9991175"><ele>18.0</ele><time>2026-05-05T16:24:44.256Z</time></trkpt><trkpt lat="44.2860487" lon="11.9994103"><ele>17.5</ele><time>2026-05-05T16:24:45.256Z</time></trkpt><trkpt lat="44.2859329" lon="11.9996851"><ele>17.0</ele><time>2026-05-05T16:24:46.255Z</time></trkpt><trkpt lat="44.2858108" lon="11.9999805"><ele>17.0</ele><time>2026-05-05T16:24:47.255Z</time></trkpt><trkpt lat="44.2856967" lon="12.0002536"><ele>17.0</ele><time>2026-05-05T16:24:48.256Z</time></trkpt><trkpt lat="44.2855749" lon="12.0005443"><ele>16.0</ele><time>2026-05-05T16:24:49.255Z</time></trkpt><trkpt lat="44.2854495" lon="12.0008343"><ele>15.0</ele><time>2026-05-05T16:24:50.255Z</time></trkpt><trkpt lat="44.285328" lon="12.0011337"><ele>15.0</ele><time>2026-05-05T16:24:51.256Z</time></trkpt><trkpt lat="44.285207" lon="12.0014222"><ele>15.0</ele><time>2026-05-05T16:24:52.256Z</time></trkpt><trkpt lat="44.2850845" lon="12.0017282"><ele>16.0</ele><time>2026-05-05T16:24:53.255Z</time></trkpt><trkpt lat="44.2849615" lon="12.0020233"><ele>17.0</ele><time>2026-05-05T16:24:54.255Z</time></trkpt><trkpt lat="44.284841" lon="12.0023146"><ele>17.0</ele><time>2026-05-05T16:24:55.256Z</time></trkpt><trkpt lat="44.2847209" lon="12.0026143"><ele>17.0</ele><time>2026-05-05T16:24:56.255Z</time></trkpt><trkpt lat="44.2846025" lon="12.0029135"><ele>17.0</ele><time>2026-05-05T16:24:57.256Z</time></trkpt><trkpt lat="44.2844859" lon="12.0032195"><ele>17.0</ele><time>2026-05-05T16:24:58.256Z</time></trkpt><trkpt lat="44.2843731" lon="12.0035205"><ele>16.5</ele><time>2026-05-05T16:24:59.256Z</time></trkpt><trkpt lat="44.2842651" lon="12.0038253"><ele>16.0</ele><time>2026-05-05T16:25:00.256Z</time></trkpt><trkpt lat="44.2841589" lon="12.0041208"><ele>16.0</ele><time>2026-05-05T16:25:01.256Z</time></trkpt><trkpt lat="44.2840548" lon="12.0044237"><ele>16.0</ele><time>2026-05-05T16:25:02.256Z</time></trkpt><trkpt lat="44.2839544" lon="12.0047264"><ele>15.5</ele><time>2026-05-05T16:25:03.255Z</time></trkpt><trkpt lat="44.2838579" lon="12.0050312"><ele>15.0</ele><time>2026-05-05T16:25:04.255Z</time></trkpt><trkpt lat="44.2837623" lon="12.0053386"><ele>15.0</ele><time>2026-05-05T16:25:05.256Z</time></trkpt><trkpt lat="44.2836675" lon="12.0056436"><ele>15.0</ele><time>2026-05-05T16:25:06.255Z</time></trkpt><trkpt lat="44.283571" lon="12.0059527"><ele>15.0</ele><time>2026-05-05T16:25:07.255Z</time></trkpt><trkpt lat="44.2834816" lon="12.0062655"><ele>15.0</ele><time>2026-05-05T16:25:08.255Z</time></trkpt><trkpt lat="44.2833984" lon="12.0065748"><ele>16.0</ele><time>2026-05-05T16:25:09.256Z</time></trkpt><trkpt lat="44.2833178" lon="12.0068924"><ele>17.0</ele><time>2026-05-05T16:25:10.255Z</time></trkpt><trkpt lat="44.283239" lon="12.007213"><ele>17.0</ele><time>2026-05-05T16:25:11.256Z</time></trkpt><trkpt lat="44.283165" lon="12.007538"><ele>17.0</ele><time>2026-05-05T16:25:12.255Z</time></trkpt><trkpt lat="44.2830876" lon="12.0078668"><ele>16.5</ele><time>2026-05-05T16:25:13.255Z</time></trkpt><trkpt lat="44.283018" lon="12.0081865"><ele>16.0</ele><time>2026-05-05T16:25:14.255Z</time></trkpt><trkpt lat="44.2829479" lon="12.0085219"><ele>16.0</ele><time>2026-05-05T16:25:15.256Z</time></trkpt><trkpt lat="44.282884" lon="12.0088496"><ele>16.0</ele><time>2026-05-05T16:25:16.255Z</time></trkpt><trkpt lat="44.2828188" lon="12.0091798"><ele>16.0</ele><time>2026-05-05T16:25:17.255Z</time></trkpt><trkpt lat="44.2827499" lon="12.009512"><ele>16.0</ele><time>2026-05-05T16:25:18.255Z</time></trkpt><trkpt lat="44.2826824" lon="12.0098402"><ele>16.0</ele><time>2026-05-05T16:25:19.256Z</time></trkpt><trkpt lat="44.282615" lon="12.0101727"><ele>16.0</ele><time>2026-05-05T16:25:20.256Z</time></trkpt><trkpt lat="44.2825466" lon="12.0105039"><ele>15.0</ele><time>2026-05-05T16:25:21.256Z</time></trkpt><trkpt lat="44.2824775" lon="12.010838"><ele>14.0</ele><time>2026-05-05T16:25:22.256Z</time></trkpt><trkpt lat="44.282411" lon="12.0111705"><ele>14.0</ele><time>2026-05-05T16:25:23.256Z</time></trkpt><trkpt lat="44.2823451" lon="12.0115002"><ele>14.0</ele><time>2026-05-05T16:25:24.256Z</time></trkpt><trkpt lat="44.2822771" lon="12.0118293"><ele>14.0</ele><time>2026-05-05T16:25:25.254Z</time></trkpt><trkpt lat="44.2822074" lon="12.0121673"><ele>14.0</ele><time>2026-05-05T16:25:26.256Z</time></trkpt><trkpt lat="44.2821386" lon="12.012502"><ele>13.5</ele><time>2026-05-05T16:25:27.255Z</time></trkpt><trkpt lat="44.2820704" lon="12.0128334"><ele>13.0</ele><time>2026-05-05T16:25:28.256Z</time></trkpt><trkpt lat="44.2820031" lon="12.0131639"><ele>13.5</ele><time>2026-05-05T16:25:29.254Z</time></trkpt><trkpt lat="44.2819363" lon="12.0134937"><ele>14.0</ele><time>2026-05-05T16:25:30.256Z</time></trkpt><trkpt lat="44.2818698" lon="12.0138227"><ele>14.0</ele><time>2026-05-05T16:25:31.255Z</time></trkpt><trkpt lat="44.2818019" lon="12.014143"><ele>14.0</ele><time>2026-05-05T16:25:32.256Z</time></trkpt><trkpt lat="44.281736" lon="12.0144625"><ele>14.5</ele><time>2026-05-05T16:25:33.255Z</time></trkpt><trkpt lat="44.2816715" lon="12.0147664"><ele>15.0</ele><time>2026-05-05T16:25:34.256Z</time></trkpt><trkpt lat="44.2816079" lon="12.0150842"><ele>15.0</ele><time>2026-05-05T16:25:35.256Z</time></trkpt><trkpt lat="44.2815399" lon="12.0153965"><ele>15.0</ele><time>2026-05-05T16:25:36.256Z</time></trkpt><trkpt lat="44.2814761" lon="12.0157102"><ele>14.5</ele><time>2026-05-05T16:25:37.256Z</time></trkpt><trkpt lat="44.2814088" lon="12.016023"><ele>14.0</ele><time>2026-05-05T16:25:38.255Z</time></trkpt><trkpt lat="44.2813357" lon="12.016339"><ele>14.0</ele><time>2026-05-05T16:25:39.256Z</time></trkpt><trkpt lat="44.2812567" lon="12.0166552"><ele>14.0</ele><time>2026-05-05T16:25:40.256Z</time></trkpt><trkpt lat="44.2811708" lon="12.0169751"><ele>14.0</ele><time>2026-05-05T16:25:41.256Z</time></trkpt><trkpt lat="44.2810834" lon="12.0172967"><ele>14.0</ele><time>2026-05-05T16:25:42.255Z</time></trkpt><trkpt lat="44.280992" lon="12.0176301"><ele>14.0</ele><time>2026-05-05T16:25:43.256Z</time></trkpt><trkpt lat="44.2809047" lon="12.0179514"><ele>14.0</ele><time>2026-05-05T16:25:44.256Z</time></trkpt><trkpt lat="44.2808046" lon="12.0182771"><ele>14.0</ele><time>2026-05-05T16:25:45.256Z</time></trkpt><trkpt lat="44.2807011" lon="12.0185943"><ele>14.0</ele><time>2026-05-05T16:25:46.255Z</time></trkpt><trkpt lat="44.2805967" lon="12.0189103"><ele>14.0</ele><time>2026-05-05T16:25:47.255Z</time></trkpt><trkpt lat="44.2804883" lon="12.0192275"><ele>14.0</ele><time>2026-05-05T16:25:48.256Z</time></trkpt><trkpt lat="44.2803755" lon="12.019536"><ele>14.0</ele><time>2026-05-05T16:25:49.255Z</time></trkpt><trkpt lat="44.28026" lon="12.0198431"><ele>14.0</ele><time>2026-05-05T16:25:50.255Z</time></trkpt><trkpt lat="44.2801401" lon="12.0201449"><ele>13.0</ele><time>2026-05-05T16:25:51.256Z</time></trkpt><trkpt lat="44.280018" lon="12.020442"><ele>12.0</ele><time>2026-05-05T16:25:52.255Z</time></trkpt><trkpt lat="44.2798931" lon="12.020747"><ele>12.5</ele><time>2026-05-05T16:25:53.256Z</time></trkpt><trkpt lat="44.2797705" lon="12.0210456"><ele>13.0</ele><time>2026-05-05T16:25:54.255Z</time></trkpt><trkpt lat="44.2796438" lon="12.0213405"><ele>13.5</ele><time>2026-05-05T16:25:55.255Z</time></trkpt><trkpt lat="44.2795169" lon="12.0216325"><ele>14.0</ele><time>2026-05-05T16:25:56.255Z</time></trkpt><trkpt lat="44.2793857" lon="12.021917"><ele>14.0</ele><time>2026-05-05T16:25:57.256Z</time></trkpt><trkpt lat="44.2792494" lon="12.0222062"><ele>14.0</ele><time>2026-05-05T16:25:58.254Z</time></trkpt><trkpt lat="44.2791123" lon="12.0224841"><ele>14.5</ele><time>2026-05-05T16:25:59.254Z</time></trkpt><trkpt lat="44.2789665" lon="12.0227729"><ele>15.0</ele><time>2026-05-05T16:26:00.256Z</time></trkpt><trkpt lat="44.2788176" lon="12.0230567"><ele>14.0</ele><time>2026-05-05T16:26:01.256Z</time></trkpt><trkpt lat="44.2786729" lon="12.0233272"><ele>13.0</ele><time>2026-05-05T16:26:02.255Z</time></trkpt><trkpt lat="44.2785257" lon="12.0236007"><ele>13.0</ele><time>2026-05-05T16:26:03.256Z</time></trkpt><trkpt lat="44.2783699" lon="12.0238793"><ele>13.0</ele><time>2026-05-05T16:26:04.255Z</time></trkpt><trkpt lat="44.2782168" lon="12.0241493"><ele>13.5</ele><time>2026-05-05T16:26:05.256Z</time></trkpt><trkpt lat="44.2780575" lon="12.0244172"><ele>14.0</ele><time>2026-05-05T16:26:06.256Z</time></trkpt><trkpt lat="44.2778992" lon="12.0246835"><ele>14.0</ele><time>2026-05-05T16:26:07.255Z</time></trkpt><trkpt lat="44.2777342" lon="12.0249552"><ele>14.0</ele><time>2026-05-05T16:26:08.256Z</time></trkpt><trkpt lat="44.2775703" lon="12.0252261"><ele>14.5</ele><time>2026-05-05T16:26:09.255Z</time></trkpt><trkpt lat="44.2774046" lon="12.0255031"><ele>15.0</ele><time>2026-05-05T16:26:10.256Z</time></trkpt><trkpt lat="44.2772379" lon="12.0257764"><ele>15.5</ele><time>2026-05-05T16:26:11.256Z</time></trkpt><trkpt lat="44.2770753" lon="12.0260499"><ele>16.0</ele><time>2026-05-05T16:26:12.256Z</time></trkpt><trkpt lat="44.2769123" lon="12.0263235"><ele>16.0</ele><time>2026-05-05T16:26:13.256Z</time></trkpt><trkpt lat="44.2767499" lon="12.026605"><ele>16.0</ele><time>2026-05-05T16:26:14.255Z</time></trkpt><trkpt lat="44.2765831" lon="12.0268877"><ele>15.0</ele><time>2026-05-05T16:26:15.256Z</time></trkpt><trkpt lat="44.2764186" lon="12.0271638"><ele>14.0</ele><time>2026-05-05T16:26:16.256Z</time></trkpt><trkpt lat="44.2762517" lon="12.0274422"><ele>14.0</ele><time>2026-05-05T16:26:17.255Z</time></trkpt><trkpt lat="44.2760853" lon="12.0277169"><ele>14.0</ele><time>2026-05-05T16:26:18.255Z</time></trkpt><trkpt lat="44.2759176" lon="12.0279939"><ele>14.0</ele><time>2026-05-05T16:26:19.255Z</time></trkpt><trkpt lat="44.275755" lon="12.0282699"><ele>14.0</ele><time>2026-05-05T16:26:20.255Z</time></trkpt><trkpt lat="44.2755899" lon="12.0285435"><ele>14.5</ele><time>2026-05-05T16:26:21.255Z</time></trkpt><trkpt lat="44.2754225" lon="12.0288186"><ele>15.0</ele><time>2026-05-05T16:26:22.255Z</time></trkpt><trkpt lat="44.2752588" lon="12.0291015"><ele>15.5</ele><time>2026-05-05T16:26:23.255Z</time></trkpt><trkpt lat="44.2750928" lon="12.0293874"><ele>16.0</ele><time>2026-05-05T16:26:24.256Z</time></trkpt><trkpt lat="44.2749223" lon="12.0296851"><ele>15.5</ele><time>2026-05-05T16:26:25.255Z</time></trkpt><trkpt lat="44.2747442" lon="12.0299732"><ele>15.0</ele><time>2026-05-05T16:26:26.255Z</time></trkpt><trkpt lat="44.2745618" lon="12.0302844"><ele>16.0</ele><time>2026-05-05T16:26:27.256Z</time></trkpt><trkpt lat="44.2743798" lon="12.0306018"><ele>17.0</ele><time>2026-05-05T16:26:28.256Z</time></trkpt><trkpt lat="44.274199" lon="12.0309123"><ele>16.5</ele><time>2026-05-05T16:26:29.255Z</time></trkpt><trkpt lat="44.2740148" lon="12.0312275"><ele>16.0</ele><time>2026-05-05T16:26:30.256Z</time></trkpt><trkpt lat="44.2738324" lon="12.0315409"><ele>15.5</ele><time>2026-05-05T16:26:31.255Z</time></trkpt><trkpt lat="44.2736466" lon="12.0318543"><ele>15.0</ele><time>2026-05-05T16:26:32.255Z</time></trkpt><trkpt lat="44.2734633" lon="12.0321721"><ele>15.0</ele><time>2026-05-05T16:26:33.255Z</time></trkpt><trkpt lat="44.2732812" lon="12.0324957"><ele>15.0</ele><time>2026-05-05T16:26:34.255Z</time></trkpt><trkpt lat="44.2731047" lon="12.0328247"><ele>15.0</ele><time>2026-05-05T16:26:35.256Z</time></trkpt><trkpt lat="44.2729321" lon="12.033159"><ele>15.0</ele><time>2026-05-05T16:26:36.256Z</time></trkpt><trkpt lat="44.2727613" lon="12.0334971"><ele>15.0</ele><time>2026-05-05T16:26:37.256Z</time></trkpt><trkpt lat="44.2725926" lon="12.0338367"><ele>15.0</ele><time>2026-05-05T16:26:38.256Z</time></trkpt><trkpt lat="44.2724291" lon="12.0341747"><ele>15.0</ele><time>2026-05-05T16:26:39.256Z</time></trkpt><trkpt lat="44.2722682" lon="12.0345164"><ele>15.0</ele><time>2026-05-05T16:26:40.256Z</time></trkpt><trkpt lat="44.2721157" lon="12.0348611"><ele>15.0</ele><time>2026-05-05T16:26:41.254Z</time></trkpt><trkpt lat="44.2719692" lon="12.0352067"><ele>15.0</ele><time>2026-05-05T16:26:42.256Z</time></trkpt><trkpt lat="44.2718269" lon="12.0355557"><ele>15.0</ele><time>2026-05-05T16:26:43.256Z</time></trkpt><trkpt lat="44.2716874" lon="12.0359003"><ele>15.0</ele><time>2026-05-05T16:26:44.256Z</time></trkpt><trkpt lat="44.2715487" lon="12.0362534"><ele>15.0</ele><time>2026-05-05T16:26:45.255Z</time></trkpt><trkpt lat="44.2714185" lon="12.036592"><ele>15.0</ele><time>2026-05-05T16:26:46.256Z</time></trkpt><trkpt lat="44.2712849" lon="12.036944"><ele>15.5</ele><time>2026-05-05T16:26:47.255Z</time></trkpt><trkpt lat="44.2711535" lon="12.037297"><ele>16.0</ele><time>2026-05-05T16:26:48.255Z</time></trkpt><trkpt lat="44.2710175" lon="12.0376424"><ele>16.0</ele><time>2026-05-05T16:26:49.256Z</time></trkpt><trkpt lat="44.2708893" lon="12.0379869"><ele>16.0</ele><time>2026-05-05T16:26:50.255Z</time></trkpt><trkpt lat="44.2707566" lon="12.0383231"><ele>17.0</ele><time>2026-05-05T16:26:51.255Z</time></trkpt><trkpt lat="44.2706326" lon="12.0386544"><ele>18.0</ele><time>2026-05-05T16:26:52.254Z</time></trkpt><trkpt lat="44.270509" lon="12.0389883"><ele>18.0</ele><time>2026-05-05T16:26:53.255Z</time></trkpt><trkpt lat="44.2703852" lon="12.0393158"><ele>18.0</ele><time>2026-05-05T16:26:54.256Z</time></trkpt><trkpt lat="44.2702653" lon="12.0396303"><ele>18.0</ele><time>2026-05-05T16:26:55.256Z</time></trkpt><trkpt lat="44.270144" lon="12.0399504"><ele>18.0</ele><time>2026-05-05T16:26:56.255Z</time></trkpt><trkpt lat="44.2700198" lon="12.0402726"><ele>17.5</ele><time>2026-05-05T16:26:57.254Z</time></trkpt><trkpt lat="44.2698979" lon="12.0405906"><ele>17.0</ele><time>2026-05-05T16:26:58.256Z</time></trkpt><trkpt lat="44.2697773" lon="12.0409059"><ele>17.0</ele><time>2026-05-05T16:26:59.255Z</time></trkpt><trkpt lat="44.2696526" lon="12.0412339"><ele>17.0</ele><time>2026-05-05T16:27:00.255Z</time></trkpt><trkpt lat="44.2695303" lon="12.0415482"><ele>17.5</ele><time>2026-05-05T16:27:01.256Z</time></trkpt><trkpt lat="44.269407" lon="12.0418665"><ele>18.0</ele><time>2026-05-05T16:27:02.256Z</time></trkpt><trkpt lat="44.2692861" lon="12.0421877"><ele>17.5</ele><time>2026-05-05T16:27:03.256Z</time></trkpt><trkpt lat="44.2691672" lon="12.0425013"><ele>17.0</ele><time>2026-05-05T16:27:04.254Z</time></trkpt><trkpt lat="44.2690493" lon="12.0428078"><ele>17.0</ele><time>2026-05-05T16:27:05.256Z</time></trkpt><trkpt lat="44.2689289" lon="12.0431123"><ele>17.0</ele><time>2026-05-05T16:27:06.256Z</time></trkpt><trkpt lat="44.268815" lon="12.0434119"><ele>17.5</ele><time>2026-05-05T16:27:07.255Z</time></trkpt><trkpt lat="44.2686984" lon="12.0437154"><ele>18.0</ele><time>2026-05-05T16:27:08.255Z</time></trkpt><trkpt lat="44.2685816" lon="12.0440225"><ele>18.0</ele><time>2026-05-05T16:27:09.256Z</time></trkpt><trkpt lat="44.2684657" lon="12.0443264"><ele>18.0</ele><time>2026-05-05T16:27:10.256Z</time></trkpt><trkpt lat="44.2683518" lon="12.0446245"><ele>18.0</ele><time>2026-05-05T16:27:11.256Z</time></trkpt><trkpt lat="44.2682376" lon="12.0449158"><ele>18.0</ele><time>2026-05-05T16:27:12.256Z</time></trkpt><trkpt lat="44.2681202" lon="12.0452249"><ele>19.0</ele><time>2026-05-05T16:27:13.255Z</time></trkpt><trkpt lat="44.268004" lon="12.0455426"><ele>20.0</ele><time>2026-05-05T16:27:14.254Z</time></trkpt><trkpt lat="44.2678826" lon="12.0458626"><ele>20.5</ele><time>2026-05-05T16:27:15.256Z</time></trkpt><trkpt lat="44.2677665" lon="12.0461725"><ele>21.0</ele><time>2026-05-05T16:27:16.255Z</time></trkpt><trkpt lat="44.2676441" lon="12.0464991"><ele>20.5</ele><time>2026-05-05T16:27:17.255Z</time></trkpt><trkpt lat="44.267524" lon="12.0468292"><ele>20.0</ele><time>2026-05-05T16:27:18.256Z</time></trkpt><trkpt lat="44.2674009" lon="12.0471578"><ele>19.0</ele><time>2026-05-05T16:27:19.256Z</time></trkpt><trkpt lat="44.2672764" lon="12.0474918"><ele>18.0</ele><time>2026-05-05T16:27:20.256Z</time></trkpt><trkpt lat="44.2671511" lon="12.0478345"><ele>18.0</ele><time>2026-05-05T16:27:21.256Z</time></trkpt><trkpt lat="44.2670236" lon="12.0481779"><ele>18.0</ele><time>2026-05-05T16:27:22.256Z</time></trkpt><trkpt lat="44.2668971" lon="12.0485258"><ele>18.0</ele><time>2026-05-05T16:27:23.255Z</time></trkpt><trkpt lat="44.2667707" lon="12.0488628"><ele>18.0</ele><time>2026-05-05T16:27:24.255Z</time></trkpt><trkpt lat="44.2666387" lon="12.0492016"><ele>18.0</ele><time>2026-05-05T16:27:25.255Z</time></trkpt><trkpt lat="44.2665106" lon="12.0495466"><ele>18.0</ele><time>2026-05-05T16:27:26.256Z</time></trkpt><trkpt lat="44.2663799" lon="12.0498886"><ele>18.0</ele><time>2026-05-05T16:27:27.255Z</time></trkpt><trkpt lat="44.2662502" lon="12.0502262"><ele>18.0</ele><time>2026-05-05T16:27:28.256Z</time></trkpt><trkpt lat="44.2661193" lon="12.0505709"><ele>17.5</ele><time>2026-05-05T16:27:29.255Z</time></trkpt><trkpt lat="44.2659898" lon="12.0509088"><ele>17.0</ele><time>2026-05-05T16:27:30.256Z</time></trkpt><trkpt lat="44.2658647" lon="12.0512474"><ele>17.0</ele><time>2026-05-05T16:27:31.254Z</time></trkpt><trkpt lat="44.2657339" lon="12.0515939"><ele>17.0</ele><time>2026-05-05T16:27:32.256Z</time></trkpt><trkpt lat="44.2656046" lon="12.051941"><ele>17.0</ele><time>2026-05-05T16:27:33.256Z</time></trkpt><trkpt lat="44.2654721" lon="12.0522898"><ele>17.0</ele><time>2026-05-05T16:27:34.255Z</time></trkpt><trkpt lat="44.2653424" lon="12.0526268"><ele>18.0</ele><time>2026-05-05T16:27:35.256Z</time></trkpt><trkpt lat="44.2652096" lon="12.0529739"><ele>19.0</ele><time>2026-05-05T16:27:36.255Z</time></trkpt><trkpt lat="44.2650792" lon="12.0533097"><ele>19.5</ele><time>2026-05-05T16:27:37.256Z</time></trkpt><trkpt lat="44.2649495" lon="12.0536482"><ele>20.0</ele><time>2026-05-05T16:27:38.256Z</time></trkpt><trkpt lat="44.264826" lon="12.0539731"><ele>20.5</ele><time>2026-05-05T16:27:39.255Z</time></trkpt><trkpt lat="44.2646968" lon="12.0543083"><ele>21.0</ele><time>2026-05-05T16:27:40.255Z</time></trkpt><trkpt lat="44.2645682" lon="12.0546398"><ele>20.5</ele><time>2026-05-05T16:27:41.256Z</time></trkpt><trkpt lat="44.2644401" lon="12.0549694"><ele>20.0</ele><time>2026-05-05T16:27:42.255Z</time></trkpt><trkpt lat="44.2643111" lon="12.0553036"><ele>20.0</ele><time>2026-05-05T16:27:43.256Z</time></trkpt><trkpt lat="44.2641873" lon="12.0556342"><ele>20.0</ele><time>2026-05-05T16:27:44.256Z</time></trkpt><trkpt lat="44.2640619" lon="12.0559643"><ele>19.5</ele><time>2026-05-05T16:27:45.256Z</time></trkpt><trkpt lat="44.263935" lon="12.0563019"><ele>19.0</ele><time>2026-05-05T16:27:46.255Z</time></trkpt><trkpt lat="44.2638064" lon="12.0566382"><ele>18.0</ele><time>2026-05-05T16:27:47.256Z</time></trkpt><trkpt lat="44.2636804" lon="12.0569743"><ele>17.0</ele><time>2026-05-05T16:27:48.256Z</time></trkpt><trkpt lat="44.263552" lon="12.0573102"><ele>17.0</ele><time>2026-05-05T16:27:49.255Z</time></trkpt><trkpt lat="44.2634232" lon="12.0576471"><ele>17.0</ele><time>2026-05-05T16:27:50.256Z</time></trkpt><trkpt lat="44.2632937" lon="12.0579897"><ele>17.0</ele><time>2026-05-05T16:27:51.255Z</time></trkpt><trkpt lat="44.2631636" lon="12.058331"><ele>17.0</ele><time>2026-05-05T16:27:52.255Z</time></trkpt><trkpt lat="44.2630331" lon="12.0586787"><ele>18.0</ele><time>2026-05-05T16:27:53.256Z</time></trkpt><trkpt lat="44.262903" lon="12.0590325"><ele>19.0</ele><time>2026-05-05T16:27:54.256Z</time></trkpt><trkpt lat="44.2627671" lon="12.0593851"><ele>19.5</ele><time>2026-05-05T16:27:55.255Z</time></trkpt><trkpt lat="44.2626401" lon="12.0597486"><ele>20.0</ele><time>2026-05-05T16:27:56.256Z</time></trkpt><trkpt lat="44.2625129" lon="12.0601119"><ele>19.0</ele><time>2026-05-05T16:27:57.255Z</time></trkpt><trkpt lat="44.2623894" lon="12.0604786"><ele>18.0</ele><time>2026-05-05T16:27:58.256Z</time></trkpt><trkpt lat="44.2622667" lon="12.0608536"><ele>17.5</ele><time>2026-05-05T16:27:59.255Z</time></trkpt><trkpt lat="44.2621483" lon="12.0612289"><ele>17.0</ele><time>2026-05-05T16:28:00.256Z</time></trkpt><trkpt lat="44.2620349" lon="12.0616019"><ele>15.5</ele><time>2026-05-05T16:28:01.256Z</time></trkpt><trkpt lat="44.2619299" lon="12.0619762"><ele>14.0</ele><time>2026-05-05T16:28:02.256Z</time></trkpt><trkpt lat="44.2618314" lon="12.0623497"><ele>13.5</ele><time>2026-05-05T16:28:03.255Z</time></trkpt><trkpt lat="44.2617364" lon="12.0627146"><ele>13.0</ele><time>2026-05-05T16:28:04.255Z</time></trkpt><trkpt lat="44.2616365" lon="12.0630865"><ele>14.0</ele><time>2026-05-05T16:28:05.256Z</time></trkpt><trkpt lat="44.2615422" lon="12.0634622"><ele>15.0</ele><time>2026-05-05T16:28:06.255Z</time></trkpt><trkpt lat="44.2614468" lon="12.0638387"><ele>15.5</ele><time>2026-05-05T16:28:07.256Z</time></trkpt><trkpt lat="44.2613532" lon="12.0642107"><ele>16.0</ele><time>2026-05-05T16:28:08.255Z</time></trkpt><trkpt lat="44.261256" lon="12.0645886"><ele>15.0</ele><time>2026-05-05T16:28:09.256Z</time></trkpt><trkpt lat="44.2611598" lon="12.064968"><ele>14.0</ele><time>2026-05-05T16:28:10.256Z</time></trkpt><trkpt lat="44.2610639" lon="12.0653494"><ele>14.0</ele><time>2026-05-05T16:28:11.256Z</time></trkpt><trkpt lat="44.2609744" lon="12.0657221"><ele>14.0</ele><time>2026-05-05T16:28:12.256Z</time></trkpt><trkpt lat="44.2608836" lon="12.066101"><ele>13.5</ele><time>2026-05-05T16:28:13.256Z</time></trkpt><trkpt lat="44.2607933" lon="12.0664721"><ele>13.0</ele><time>2026-05-05T16:28:14.255Z</time></trkpt><trkpt lat="44.2606995" lon="12.0668498"><ele>13.0</ele><time>2026-05-05T16:28:15.256Z</time></trkpt><trkpt lat="44.2606028" lon="12.0672239"><ele>13.0</ele><time>2026-05-05T16:28:16.256Z</time></trkpt><trkpt lat="44.2605128" lon="12.0675933"><ele>13.5</ele><time>2026-05-05T16:28:17.256Z</time></trkpt><trkpt lat="44.2604192" lon="12.0679656"><ele>14.0</ele><time>2026-05-05T16:28:18.255Z</time></trkpt><trkpt lat="44.2603295" lon="12.0683342"><ele>14.0</ele><time>2026-05-05T16:28:19.256Z</time></trkpt><trkpt lat="44.260234" lon="12.0687082"><ele>14.0</ele><time>2026-05-05T16:28:20.256Z</time></trkpt><trkpt lat="44.2601397" lon="12.0690824"><ele>15.0</ele><time>2026-05-05T16:28:21.255Z</time></trkpt><trkpt lat="44.2600476" lon="12.0694598"><ele>16.0</ele><time>2026-05-05T16:28:22.255Z</time></trkpt><trkpt lat="44.259953" lon="12.0698395"><ele>16.5</ele><time>2026-05-05T16:28:23.255Z</time></trkpt><trkpt lat="44.2598527" lon="12.0702214"><ele>17.0</ele><time>2026-05-05T16:28:24.256Z</time></trkpt><trkpt lat="44.2597539" lon="12.0706072"><ele>16.0</ele><time>2026-05-05T16:28:25.256Z</time></trkpt><trkpt lat="44.2596545" lon="12.070986"><ele>15.0</ele><time>2026-05-05T16:28:26.255Z</time></trkpt><trkpt lat="44.2595517" lon="12.0713621"><ele>14.5</ele><time>2026-05-05T16:28:27.255Z</time></trkpt><trkpt lat="44.2594421" lon="12.0717339"><ele>14.0</ele><time>2026-05-05T16:28:28.255Z</time></trkpt><trkpt lat="44.2593276" lon="12.0721069"><ele>14.0</ele><time>2026-05-05T16:28:29.256Z</time></trkpt><trkpt lat="44.2592056" lon="12.0724799"><ele>14.0</ele><time>2026-05-05T16:28:30.256Z</time></trkpt><trkpt lat="44.2590812" lon="12.0728565"><ele>14.0</ele><time>2026-05-05T16:28:31.255Z</time></trkpt><trkpt lat="44.2589488" lon="12.0732365"><ele>14.0</ele><time>2026-05-05T16:28:32.255Z</time></trkpt><trkpt lat="44.2588132" lon="12.0736095"><ele>14.5</ele><time>2026-05-05T16:28:33.255Z</time></trkpt><trkpt lat="44.2586689" lon="12.0739939"><ele>15.0</ele><time>2026-05-05T16:28:34.255Z</time></trkpt><trkpt lat="44.2585159" lon="12.0743711"><ele>14.0</ele><time>2026-05-05T16:28:35.255Z</time></trkpt><trkpt lat="44.2583547" lon="12.0747464"><ele>13.0</ele><time>2026-05-05T16:28:36.256Z</time></trkpt><trkpt lat="44.2581991" lon="12.0751184"><ele>14.5</ele><time>2026-05-05T16:28:37.255Z</time></trkpt><trkpt lat="44.2580462" lon="12.0754802"><ele>16.0</ele><time>2026-05-05T16:28:38.256Z</time></trkpt><trkpt lat="44.2579034" lon="12.0758366"><ele>16.0</ele><time>2026-05-05T16:28:39.255Z</time></trkpt><trkpt lat="44.2577552" lon="12.0761937"><ele>16.0</ele><time>2026-05-05T16:28:40.255Z</time></trkpt><trkpt lat="44.2576162" lon="12.0765486"><ele>16.5</ele><time>2026-05-05T16:28:41.256Z</time></trkpt><trkpt lat="44.2574803" lon="12.0768915"><ele>17.0</ele><time>2026-05-05T16:28:42.256Z</time></trkpt><trkpt lat="44.2573424" lon="12.0772464"><ele>16.5</ele><time>2026-05-05T16:28:43.254Z</time></trkpt><trkpt lat="44.2572073" lon="12.0775941"><ele>16.0</ele><time>2026-05-05T16:28:44.256Z</time></trkpt><trkpt lat="44.2570726" lon="12.0779382"><ele>16.0</ele><time>2026-05-05T16:28:45.255Z</time></trkpt><trkpt lat="44.2569375" lon="12.0782886"><ele>16.0</ele><time>2026-05-05T16:28:46.255Z</time></trkpt><trkpt lat="44.2567956" lon="12.078633"><ele>16.0</ele><time>2026-05-05T16:28:47.256Z</time></trkpt><trkpt lat="44.2566618" lon="12.0789866"><ele>16.0</ele><time>2026-05-05T16:28:48.255Z</time></trkpt><trkpt lat="44.2565263" lon="12.0793375"><ele>16.0</ele><time>2026-05-05T16:28:49.256Z</time></trkpt><trkpt lat="44.256393" lon="12.0796881"><ele>16.0</ele><time>2026-05-05T16:28:50.256Z</time></trkpt><trkpt lat="44.256256" lon="12.0800363"><ele>16.0</ele><time>2026-05-05T16:28:51.256Z</time></trkpt><trkpt lat="44.2561219" lon="12.0803907"><ele>16.0</ele><time>2026-05-05T16:28:52.255Z</time></trkpt><trkpt lat="44.2559902" lon="12.0807433"><ele>15.5</ele><time>2026-05-05T16:28:53.256Z</time></trkpt><trkpt lat="44.2558565" lon="12.0810978"><ele>15.0</ele><time>2026-05-05T16:28:54.256Z</time></trkpt><trkpt lat="44.2557215" lon="12.0814419"><ele>15.5</ele><time>2026-05-05T16:28:55.256Z</time></trkpt><trkpt lat="44.2555901" lon="12.0817847"><ele>16.0</ele><time>2026-05-05T16:28:56.255Z</time></trkpt><trkpt lat="44.2554542" lon="12.0821372"><ele>14.5</ele><time>2026-05-05T16:28:57.256Z</time></trkpt><trkpt lat="44.2553176" lon="12.0824878"><ele>13.0</ele><time>2026-05-05T16:28:58.255Z</time></trkpt><trkpt lat="44.2551806" lon="12.0828323"><ele>13.0</ele><time>2026-05-05T16:28:59.256Z</time></trkpt><trkpt lat="44.2550487" lon="12.0831756"><ele>13.0</ele><time>2026-05-05T16:29:00.256Z</time></trkpt><trkpt lat="44.254919" lon="12.0835174"><ele>14.0</ele><time>2026-05-05T16:29:01.256Z</time></trkpt><trkpt lat="44.2547852" lon="12.0838712"><ele>15.0</ele><time>2026-05-05T16:29:02.255Z</time></trkpt><trkpt lat="44.2546513" lon="12.0842211"><ele>15.0</ele><time>2026-05-05T16:29:03.255Z</time></trkpt><trkpt lat="44.254518" lon="12.0845647"><ele>15.0</ele><time>2026-05-05T16:29:04.256Z</time></trkpt><trkpt lat="44.2543839" lon="12.0849125"><ele>15.0</ele><time>2026-05-05T16:29:05.256Z</time></trkpt><trkpt lat="44.2542491" lon="12.0852616"><ele>15.0</ele><time>2026-05-05T16:29:06.255Z</time></trkpt><trkpt lat="44.2541159" lon="12.0856116"><ele>15.0</ele><time>2026-05-05T16:29:07.255Z</time></trkpt><trkpt lat="44.2539768" lon="12.0859635"><ele>15.0</ele><time>2026-05-05T16:29:08.256Z</time></trkpt><trkpt lat="44.2538398" lon="12.0863139"><ele>14.5</ele><time>2026-05-05T16:29:09.256Z</time></trkpt><trkpt lat="44.2537067" lon="12.0866656"><ele>14.0</ele><time>2026-05-05T16:29:10.256Z</time></trkpt><trkpt lat="44.2535725" lon="12.0870151"><ele>14.0</ele><time>2026-05-05T16:29:11.255Z</time></trkpt><trkpt lat="44.253437" lon="12.0873709"><ele>14.0</ele><time>2026-05-05T16:29:12.255Z</time></trkpt><trkpt lat="44.2532991" lon="12.0877332"><ele>14.5</ele><time>2026-05-05T16:29:13.255Z</time></trkpt><trkpt lat="44.2531593" lon="12.0881012"><ele>15.0</ele><time>2026-05-05T16:29:14.255Z</time></trkpt><trkpt lat="44.2530167" lon="12.0884786"><ele>15.5</ele><time>2026-05-05T16:29:15.256Z</time></trkpt><trkpt lat="44.2528707" lon="12.0888549"><ele>16.0</ele><time>2026-05-05T16:29:16.255Z</time></trkpt><trkpt lat="44.2527275" lon="12.0892182"><ele>16.0</ele><time>2026-05-05T16:29:17.256Z</time></trkpt><trkpt lat="44.2525878" lon="12.0895827"><ele>16.0</ele><time>2026-05-05T16:29:18.255Z</time></trkpt><trkpt lat="44.2524505" lon="12.0899336"><ele>16.0</ele><time>2026-05-05T16:29:19.255Z</time></trkpt><trkpt lat="44.2523187" lon="12.0902861"><ele>16.0</ele><time>2026-05-05T16:29:20.255Z</time></trkpt><trkpt lat="44.252187" lon="12.0906333"><ele>15.5</ele><time>2026-05-05T16:29:21.256Z</time></trkpt><trkpt lat="44.2520592" lon="12.09097"><ele>15.0</ele><time>2026-05-05T16:29:22.256Z</time></trkpt><trkpt lat="44.251937" lon="12.0913107"><ele>16.0</ele><time>2026-05-05T16:29:23.256Z</time></trkpt><trkpt lat="44.251815" lon="12.0916512"><ele>17.0</ele><time>2026-05-05T16:29:24.256Z</time></trkpt><trkpt lat="44.2516982" lon="12.091991"><ele>17.0</ele><time>2026-05-05T16:29:25.255Z</time></trkpt><trkpt lat="44.2515829" lon="12.0923387"><ele>17.0</ele><time>2026-05-05T16:29:26.256Z</time></trkpt><trkpt lat="44.2514699" lon="12.0926931"><ele>17.0</ele><time>2026-05-05T16:29:27.256Z</time></trkpt><trkpt lat="44.2513579" lon="12.0930565"><ele>17.0</ele><time>2026-05-05T16:29:28.256Z</time></trkpt><trkpt lat="44.251247" lon="12.0934253"><ele>17.0</ele><time>2026-05-05T16:29:29.256Z</time></trkpt><trkpt lat="44.2511356" lon="12.0938015"><ele>17.0</ele><time>2026-05-05T16:29:30.255Z</time></trkpt><trkpt lat="44.2510279" lon="12.0941783"><ele>17.0</ele><time>2026-05-05T16:29:31.254Z</time></trkpt><trkpt lat="44.2509207" lon="12.094553"><ele>17.0</ele><time>2026-05-05T16:29:32.256Z</time></trkpt><trkpt lat="44.250817" lon="12.0949194"><ele>16.5</ele><time>2026-05-05T16:29:33.256Z</time></trkpt><trkpt lat="44.2507111" lon="12.0952838"><ele>16.0</ele><time>2026-05-05T16:29:34.256Z</time></trkpt><trkpt lat="44.250614" lon="12.0956393"><ele>16.0</ele><time>2026-05-05T16:29:35.255Z</time></trkpt><trkpt lat="44.2505112" lon="12.0959954"><ele>16.0</ele><time>2026-05-05T16:29:36.256Z</time></trkpt><trkpt lat="44.2504086" lon="12.0963482"><ele>15.5</ele><time>2026-05-05T16:29:37.255Z</time></trkpt><trkpt lat="44.2503067" lon="12.0967003"><ele>15.0</ele><time>2026-05-05T16:29:38.255Z</time></trkpt><trkpt lat="44.250204" lon="12.097052"><ele>15.0</ele><time>2026-05-05T16:29:39.255Z</time></trkpt><trkpt lat="44.2501019" lon="12.0973942"><ele>15.0</ele><time>2026-05-05T16:29:40.256Z</time></trkpt><trkpt lat="44.250004" lon="12.0977431"><ele>14.0</ele><time>2026-05-05T16:29:41.255Z</time></trkpt><trkpt lat="44.2499055" lon="12.0980893"><ele>13.0</ele><time>2026-05-05T16:29:42.255Z</time></trkpt><trkpt lat="44.2497999" lon="12.0984327"><ele>12.5</ele><time>2026-05-05T16:29:43.255Z</time></trkpt><trkpt lat="44.2496917" lon="12.0987732"><ele>12.0</ele><time>2026-05-05T16:29:44.256Z</time></trkpt><trkpt lat="44.2495829" lon="12.0991132"><ele>14.0</ele><time>2026-05-05T16:29:45.256Z</time></trkpt><trkpt lat="44.249478" lon="12.0994518"><ele>16.0</ele><time>2026-05-05T16:29:46.256Z</time></trkpt><trkpt lat="44.2493783" lon="12.099795"><ele>16.0</ele><time>2026-05-05T16:29:47.256Z</time></trkpt><trkpt lat="44.2492827" lon="12.10013"><ele>16.0</ele><time>2026-05-05T16:29:48.256Z</time></trkpt><trkpt lat="44.2491905" lon="12.1004686"><ele>16.0</ele><time>2026-05-05T16:29:49.255Z</time></trkpt><trkpt lat="44.249089" lon="12.1008061"><ele>16.0</ele><time>2026-05-05T16:29:50.256Z</time></trkpt><trkpt lat="44.2489907" lon="12.1011368"><ele>16.0</ele><time>2026-05-05T16:29:51.255Z</time></trkpt><trkpt lat="44.2488967" lon="12.1014684"><ele>16.0</ele><time>2026-05-05T16:29:52.256Z</time></trkpt><trkpt lat="44.248795" lon="12.1018115"><ele>15.5</ele><time>2026-05-05T16:29:53.256Z</time></trkpt><trkpt lat="44.2486959" lon="12.1021605"><ele>15.0</ele><time>2026-05-05T16:29:54.256Z</time></trkpt><trkpt lat="44.2485947" lon="12.102503"><ele>15.0</ele><time>2026-05-05T16:29:55.256Z</time></trkpt><trkpt lat="44.2484923" lon="12.1028448"><ele>15.0</ele><time>2026-05-05T16:29:56.256Z</time></trkpt><trkpt lat="44.2483947" lon="12.1031889"><ele>15.0</ele><time>2026-05-05T16:29:57.255Z</time></trkpt><trkpt lat="44.2482939" lon="12.103533"><ele>15.0</ele><time>2026-05-05T16:29:58.256Z</time></trkpt><trkpt lat="44.2481902" lon="12.1038725"><ele>15.5</ele><time>2026-05-05T16:29:59.255Z</time></trkpt><trkpt lat="44.2480865" lon="12.1042129"><ele>16.0</ele><time>2026-05-05T16:30:00.256Z</time></trkpt><trkpt lat="44.2479886" lon="12.104561"><ele>16.0</ele><time>2026-05-05T16:30:01.256Z</time></trkpt><trkpt lat="44.2478858" lon="12.1049111"><ele>16.0</ele><time>2026-05-05T16:30:02.255Z</time></trkpt><trkpt lat="44.2477849" lon="12.1052574"><ele>16.0</ele><time>2026-05-05T16:30:03.256Z</time></trkpt><trkpt lat="44.2476819" lon="12.1056098"><ele>16.0</ele><time>2026-05-05T16:30:04.256Z</time></trkpt><trkpt lat="44.2475828" lon="12.1059618"><ele>16.0</ele><time>2026-05-05T16:30:05.256Z</time></trkpt><trkpt lat="44.2474855" lon="12.1063136"><ele>16.0</ele><time>2026-05-05T16:30:06.256Z</time></trkpt><trkpt lat="44.247383" lon="12.106662"><ele>15.5</ele><time>2026-05-05T16:30:07.255Z</time></trkpt><trkpt lat="44.2472782" lon="12.1070092"><ele>15.0</ele><time>2026-05-05T16:30:08.256Z</time></trkpt><trkpt lat="44.247177" lon="12.1073614"><ele>15.5</ele><time>2026-05-05T16:30:09.255Z</time></trkpt><trkpt lat="44.2470773" lon="12.1077069"><ele>16.0</ele><time>2026-05-05T16:30:10.255Z</time></trkpt><trkpt lat="44.2469734" lon="12.1080601"><ele>16.0</ele><time>2026-05-05T16:30:11.255Z</time></trkpt><trkpt lat="44.2468712" lon="12.1084097"><ele>16.0</ele><time>2026-05-05T16:30:12.255Z</time></trkpt><trkpt lat="44.2467677" lon="12.1087571"><ele>16.0</ele><time>2026-05-05T16:30:13.256Z</time></trkpt><trkpt lat="44.2466613" lon="12.1091091"><ele>16.0</ele><time>2026-05-05T16:30:14.256Z</time></trkpt><trkpt lat="44.2465616" lon="12.1094584"><ele>16.0</ele><time>2026-05-05T16:30:15.256Z</time></trkpt><trkpt lat="44.2464556" lon="12.1098134"><ele>16.0</ele><time>2026-05-05T16:30:16.256Z</time></trkpt><trkpt lat="44.2463518" lon="12.1101715"><ele>15.5</ele><time>2026-05-05T16:30:17.256Z</time></trkpt><trkpt lat="44.2462451" lon="12.1105266"><ele>15.0</ele><time>2026-05-05T16:30:18.256Z</time></trkpt><trkpt lat="44.2461472" lon="12.1108749"><ele>14.5</ele><time>2026-05-05T16:30:19.256Z</time></trkpt><trkpt lat="44.2460451" lon="12.1112304"><ele>14.0</ele><time>2026-05-05T16:30:20.256Z</time></trkpt><trkpt lat="44.2459394" lon="12.1115876"><ele>13.5</ele><time>2026-05-05T16:30:21.255Z</time></trkpt><trkpt lat="44.2458397" lon="12.1119427"><ele>13.0</ele><time>2026-05-05T16:30:22.256Z</time></trkpt><trkpt lat="44.2457351" lon="12.1122975"><ele>13.5</ele><time>2026-05-05T16:30:23.255Z</time></trkpt><trkpt lat="44.2456332" lon="12.1126594"><ele>14.0</ele><time>2026-05-05T16:30:24.255Z</time></trkpt><trkpt lat="44.2455289" lon="12.1130319"><ele>14.5</ele><time>2026-05-05T16:30:25.255Z</time></trkpt><trkpt lat="44.2454281" lon="12.1134103"><ele>15.0</ele><time>2026-05-05T16:30:26.256Z</time></trkpt><trkpt lat="44.2453246" lon="12.1137914"><ele>15.0</ele><time>2026-05-05T16:30:27.255Z</time></trkpt><trkpt lat="44.2452175" lon="12.1141708"><ele>15.0</ele><time>2026-05-05T16:30:28.256Z</time></trkpt><trkpt lat="44.2451076" lon="12.1145514"><ele>15.5</ele><time>2026-05-05T16:30:29.256Z</time></trkpt><trkpt lat="44.2450009" lon="12.1149315"><ele>16.0</ele><time>2026-05-05T16:30:30.256Z</time></trkpt><trkpt lat="44.2448877" lon="12.1153033"><ele>16.0</ele><time>2026-05-05T16:30:31.256Z</time></trkpt><trkpt lat="44.2447817" lon="12.1156843"><ele>16.0</ele><time>2026-05-05T16:30:32.256Z</time></trkpt><trkpt lat="44.2446732" lon="12.1160569"><ele>16.0</ele><time>2026-05-05T16:30:33.255Z</time></trkpt><trkpt lat="44.2445659" lon="12.1164247"><ele>16.0</ele><time>2026-05-05T16:30:34.255Z</time></trkpt><trkpt lat="44.2444598" lon="12.1167919"><ele>16.5</ele><time>2026-05-05T16:30:35.256Z</time></trkpt><trkpt lat="44.2443543" lon="12.1171556"><ele>17.0</ele><time>2026-05-05T16:30:36.255Z</time></trkpt><trkpt lat="44.2442519" lon="12.1175188"><ele>16.0</ele><time>2026-05-05T16:30:37.256Z</time></trkpt><trkpt lat="44.244145" lon="12.1178815"><ele>15.0</ele><time>2026-05-05T16:30:38.256Z</time></trkpt><trkpt lat="44.2440401" lon="12.1182439"><ele>16.5</ele><time>2026-05-05T16:30:39.256Z</time></trkpt><trkpt lat="44.2439349" lon="12.1186003"><ele>18.0</ele><time>2026-05-05T16:30:40.255Z</time></trkpt><trkpt lat="44.2438265" lon="12.1189545"><ele>17.0</ele><time>2026-05-05T16:30:41.256Z</time></trkpt><trkpt lat="44.2437195" lon="12.1193123"><ele>16.0</ele><time>2026-05-05T16:30:42.256Z</time></trkpt><trkpt lat="44.2436125" lon="12.1196635"><ele>15.5</ele><time>2026-05-05T16:30:43.254Z</time></trkpt><trkpt lat="44.2435055" lon="12.1200124"><ele>15.0</ele><time>2026-05-05T16:30:44.256Z</time></trkpt><trkpt lat="44.2434006" lon="12.1203601"><ele>15.0</ele><time>2026-05-05T16:30:45.256Z</time></trkpt><trkpt lat="44.2432906" lon="12.1207136"><ele>15.0</ele><time>2026-05-05T16:30:46.255Z</time></trkpt><trkpt lat="44.2431849" lon="12.1210635"><ele>15.5</ele><time>2026-05-05T16:30:47.256Z</time></trkpt><trkpt lat="44.2430788" lon="12.1214177"><ele>16.0</ele><time>2026-05-05T16:30:48.255Z</time></trkpt><trkpt lat="44.2429768" lon="12.1217751"><ele>16.0</ele><time>2026-05-05T16:30:49.256Z</time></trkpt><trkpt lat="44.2428725" lon="12.122132"><ele>16.0</ele><time>2026-05-05T16:30:50.255Z</time></trkpt><trkpt lat="44.242767" lon="12.1224881"><ele>16.5</ele><time>2026-05-05T16:30:51.255Z</time></trkpt><trkpt lat="44.2426643" lon="12.1228405"><ele>17.0</ele><time>2026-05-05T16:30:52.255Z</time></trkpt><trkpt lat="44.2425669" lon="12.1231785"><ele>18.0</ele><time>2026-05-05T16:30:53.255Z</time></trkpt><trkpt lat="44.2424634" lon="12.1235276"><ele>19.0</ele><time>2026-05-05T16:30:54.256Z</time></trkpt><trkpt lat="44.2423594" lon="12.1238777"><ele>19.0</ele><time>2026-05-05T16:30:55.255Z</time></trkpt><trkpt lat="44.2422515" lon="12.1242299"><ele>19.0</ele><time>2026-05-05T16:30:56.255Z</time></trkpt><trkpt lat="44.2421395" lon="12.1245769"><ele>18.5</ele><time>2026-05-05T16:30:57.256Z</time></trkpt><trkpt lat="44.2420179" lon="12.1249132"><ele>18.0</ele><time>2026-05-05T16:30:58.256Z</time></trkpt><trkpt lat="44.2418898" lon="12.1252491"><ele>18.0</ele><time>2026-05-05T16:30:59.255Z</time></trkpt><trkpt lat="44.2417502" lon="12.1255851"><ele>18.0</ele><time>2026-05-05T16:31:00.256Z</time></trkpt><trkpt lat="44.241605" lon="12.1259065"><ele>17.5</ele><time>2026-05-05T16:31:01.255Z</time></trkpt><trkpt lat="44.2414546" lon="12.1262238"><ele>17.0</ele><time>2026-05-05T16:31:02.255Z</time></trkpt><trkpt lat="44.2413073" lon="12.1265392"><ele>17.0</ele><time>2026-05-05T16:31:03.255Z</time></trkpt><trkpt lat="44.2411488" lon="12.1268439"><ele>17.0</ele><time>2026-05-05T16:31:04.255Z</time></trkpt><trkpt lat="44.2409839" lon="12.1271453"><ele>16.5</ele><time>2026-05-05T16:31:05.256Z</time></trkpt><trkpt lat="44.240811" lon="12.1274378"><ele>16.0</ele><time>2026-05-05T16:31:06.256Z</time></trkpt><trkpt lat="44.2406398" lon="12.1277151"><ele>16.0</ele><time>2026-05-05T16:31:07.255Z</time></trkpt><trkpt lat="44.2404668" lon="12.1279923"><ele>16.0</ele><time>2026-05-05T16:31:08.256Z</time></trkpt><trkpt lat="44.2402924" lon="12.1282756"><ele>16.0</ele><time>2026-05-05T16:31:09.256Z</time></trkpt><trkpt lat="44.2401182" lon="12.1285654"><ele>16.0</ele><time>2026-05-05T16:31:10.255Z</time></trkpt><trkpt lat="44.2399402" lon="12.1288567"><ele>16.5</ele><time>2026-05-05T16:31:11.256Z</time></trkpt><trkpt lat="44.2397671" lon="12.1291441"><ele>17.0</ele><time>2026-05-05T16:31:12.256Z</time></trkpt><trkpt lat="44.2395925" lon="12.1294383"><ele>17.0</ele><time>2026-05-05T16:31:13.255Z</time></trkpt><trkpt lat="44.2394157" lon="12.1297415"><ele>17.0</ele><time>2026-05-05T16:31:14.256Z</time></trkpt><trkpt lat="44.239238" lon="12.1300492"><ele>17.0</ele><time>2026-05-05T16:31:15.256Z</time></trkpt><trkpt lat="44.239058" lon="12.1303574"><ele>17.0</ele><time>2026-05-05T16:31:16.256Z</time></trkpt><trkpt lat="44.2388761" lon="12.1306709"><ele>17.0</ele><time>2026-05-05T16:31:17.254Z</time></trkpt><trkpt lat="44.2386921" lon="12.1309806"><ele>17.0</ele><time>2026-05-05T16:31:18.256Z</time></trkpt><trkpt lat="44.2385099" lon="12.1312929"><ele>17.5</ele><time>2026-05-05T16:31:19.256Z</time></trkpt><trkpt lat="44.238328" lon="12.1315992"><ele>18.0</ele><time>2026-05-05T16:31:20.256Z</time></trkpt><trkpt lat="44.2381473" lon="12.1319064"><ele>18.0</ele><time>2026-05-05T16:31:21.256Z</time></trkpt><trkpt lat="44.237964" lon="12.13221"><ele>18.0</ele><time>2026-05-05T16:31:22.255Z</time></trkpt><trkpt lat="44.2377876" lon="12.1325142"><ele>19.0</ele><time>2026-05-05T16:31:23.255Z</time></trkpt><trkpt lat="44.2376022" lon="12.1328127"><ele>20.0</ele><time>2026-05-05T16:31:24.256Z</time></trkpt><trkpt lat="44.2374204" lon="12.1331185"><ele>18.5</ele><time>2026-05-05T16:31:25.256Z</time></trkpt><trkpt lat="44.2372376" lon="12.1334197"><ele>17.0</ele><time>2026-05-05T16:31:26.256Z</time></trkpt><trkpt lat="44.2370524" lon="12.1337209"><ele>17.0</ele><time>2026-05-05T16:31:27.255Z</time></trkpt><trkpt lat="44.2368681" lon="12.1340245"><ele>17.0</ele><time>2026-05-05T16:31:28.256Z</time></trkpt><trkpt lat="44.2366819" lon="12.1343235"><ele>17.0</ele><time>2026-05-05T16:31:29.255Z</time></trkpt><trkpt lat="44.2364987" lon="12.1346333"><ele>17.0</ele><time>2026-05-05T16:31:30.255Z</time></trkpt><trkpt lat="44.2363135" lon="12.134942"><ele>17.0</ele><time>2026-05-05T16:31:31.255Z</time></trkpt><trkpt lat="44.236129" lon="12.135245"><ele>17.0</ele><time>2026-05-05T16:31:32.256Z</time></trkpt><trkpt lat="44.2359443" lon="12.1355432"><ele>17.0</ele><time>2026-05-05T16:31:33.256Z</time></trkpt><trkpt lat="44.2357594" lon="12.135843"><ele>17.0</ele><time>2026-05-05T16:31:34.256Z</time></trkpt><trkpt lat="44.2355762" lon="12.136148"><ele>17.5</ele><time>2026-05-05T16:31:35.256Z</time></trkpt><trkpt lat="44.2353907" lon="12.1364474"><ele>18.0</ele><time>2026-05-05T16:31:36.255Z</time></trkpt><trkpt lat="44.2352091" lon="12.1367535"><ele>18.0</ele><time>2026-05-05T16:31:37.256Z</time></trkpt><trkpt lat="44.2350287" lon="12.1370502"><ele>18.0</ele><time>2026-05-05T16:31:38.256Z</time></trkpt><trkpt lat="44.2348443" lon="12.1373567"><ele>17.5</ele><time>2026-05-05T16:31:39.256Z</time></trkpt><trkpt lat="44.2346629" lon="12.137658"><ele>17.0</ele><time>2026-05-05T16:31:40.255Z</time></trkpt><trkpt lat="44.2344798" lon="12.1379648"><ele>17.0</ele><time>2026-05-05T16:31:41.255Z</time></trkpt><trkpt lat="44.2342973" lon="12.1382697"><ele>17.0</ele><time>2026-05-05T16:31:42.256Z</time></trkpt><trkpt lat="44.23411" lon="12.1385833"><ele>17.0</ele><time>2026-05-05T16:31:43.256Z</time></trkpt><trkpt lat="44.2339256" lon="12.138891"><ele>17.0</ele><time>2026-05-05T16:31:44.256Z</time></trkpt><trkpt lat="44.2337399" lon="12.1391929"><ele>17.0</ele><time>2026-05-05T16:31:45.255Z</time></trkpt><trkpt lat="44.2335546" lon="12.1394965"><ele>17.0</ele><time>2026-05-05T16:31:46.256Z</time></trkpt><trkpt lat="44.2333693" lon="12.1398029"><ele>17.5</ele><time>2026-05-05T16:31:47.254Z</time></trkpt><trkpt lat="44.2331835" lon="12.1401059"><ele>18.0</ele><time>2026-05-05T16:31:48.255Z</time></trkpt><trkpt lat="44.2330032" lon="12.1404057"><ele>18.0</ele><time>2026-05-05T16:31:49.256Z</time></trkpt><trkpt lat="44.2328189" lon="12.1407145"><ele>18.0</ele><time>2026-05-05T16:31:50.256Z</time></trkpt><trkpt lat="44.2326328" lon="12.1410227"><ele>18.0</ele><time>2026-05-05T16:31:51.255Z</time></trkpt><trkpt lat="44.2324517" lon="12.1413291"><ele>18.0</ele><time>2026-05-05T16:31:52.256Z</time></trkpt><trkpt lat="44.2322668" lon="12.1416413"><ele>17.5</ele><time>2026-05-05T16:31:53.256Z</time></trkpt><trkpt lat="44.2320823" lon="12.1419486"><ele>17.0</ele><time>2026-05-05T16:31:54.255Z</time></trkpt><trkpt lat="44.2318926" lon="12.1422562"><ele>17.0</ele><time>2026-05-05T16:31:55.256Z</time></trkpt><trkpt lat="44.2317064" lon="12.1425627"><ele>17.0</ele><time>2026-05-05T16:31:56.255Z</time></trkpt><trkpt lat="44.2315194" lon="12.142867"><ele>16.5</ele><time>2026-05-05T16:31:57.256Z</time></trkpt><trkpt lat="44.2313324" lon="12.1431746"><ele>16.0</ele><time>2026-05-05T16:31:58.255Z</time></trkpt><trkpt lat="44.2311499" lon="12.1434829"><ele>17.0</ele><time>2026-05-05T16:31:59.256Z</time></trkpt><trkpt lat="44.2309655" lon="12.1437876"><ele>18.0</ele><time>2026-05-05T16:32:00.255Z</time></trkpt><trkpt lat="44.2307796" lon="12.1440953"><ele>17.5</ele><time>2026-05-05T16:32:01.256Z</time></trkpt><trkpt lat="44.2305972" lon="12.1443991"><ele>17.0</ele><time>2026-05-05T16:32:02.256Z</time></trkpt><trkpt lat="44.2304147" lon="12.1447066"><ele>16.5</ele><time>2026-05-05T16:32:03.256Z</time></trkpt><trkpt lat="44.2302337" lon="12.1450105"><ele>16.0</ele><time>2026-05-05T16:32:04.256Z</time></trkpt><trkpt lat="44.2300607" lon="12.1453211"><ele>16.0</ele><time>2026-05-05T16:32:05.255Z</time></trkpt><trkpt lat="44.2298978" lon="12.145639"><ele>16.0</ele><time>2026-05-05T16:32:06.256Z</time></trkpt><trkpt lat="44.2297411" lon="12.1459676"><ele>16.0</ele><time>2026-05-05T16:32:07.255Z</time></trkpt><trkpt lat="44.2295925" lon="12.1463088"><ele>16.0</ele><time>2026-05-05T16:32:08.256Z</time></trkpt><trkpt lat="44.2294513" lon="12.1466563"><ele>16.0</ele><time>2026-05-05T16:32:09.256Z</time></trkpt><trkpt lat="44.2293162" lon="12.1470142"><ele>16.0</ele><time>2026-05-05T16:32:10.256Z</time></trkpt><trkpt lat="44.2291846" lon="12.1473752"><ele>16.5</ele><time>2026-05-05T16:32:11.256Z</time></trkpt><trkpt lat="44.229062" lon="12.1477379"><ele>17.0</ele><time>2026-05-05T16:32:12.255Z</time></trkpt><trkpt lat="44.2289499" lon="12.1481267"><ele>16.5</ele><time>2026-05-05T16:32:13.254Z</time></trkpt><trkpt lat="44.2288455" lon="12.1485187"><ele>16.0</ele><time>2026-05-05T16:32:14.255Z</time></trkpt><trkpt lat="44.2287452" lon="12.1489136"><ele>17.5</ele><time>2026-05-05T16:32:15.256Z</time></trkpt><trkpt lat="44.2286525" lon="12.1493148"><ele>19.0</ele><time>2026-05-05T16:32:16.255Z</time></trkpt><trkpt lat="44.2285623" lon="12.1497161"><ele>18.5</ele><time>2026-05-05T16:32:17.256Z</time></trkpt><trkpt lat="44.2284727" lon="12.1501154"><ele>18.0</ele><time>2026-05-05T16:32:18.256Z</time></trkpt><trkpt lat="44.2283858" lon="12.1505223"><ele>17.0</ele><time>2026-05-05T16:32:19.256Z</time></trkpt><trkpt lat="44.2282939" lon="12.1509276"><ele>16.0</ele><time>2026-05-05T16:32:20.255Z</time></trkpt><trkpt lat="44.2282027" lon="12.1513325"><ele>16.0</ele><time>2026-05-05T16:32:21.255Z</time></trkpt><trkpt lat="44.2281149" lon="12.1517304"><ele>16.0</ele><time>2026-05-05T16:32:22.255Z</time></trkpt><trkpt lat="44.2280248" lon="12.1521318"><ele>16.0</ele><time>2026-05-05T16:32:23.256Z</time></trkpt><trkpt lat="44.2279384" lon="12.1525195"><ele>16.0</ele><time>2026-05-05T16:32:24.256Z</time></trkpt><trkpt lat="44.2278479" lon="12.1529158"><ele>16.0</ele><time>2026-05-05T16:32:25.256Z</time></trkpt><trkpt lat="44.2277618" lon="12.153316"><ele>16.0</ele><time>2026-05-05T16:32:26.256Z</time></trkpt><trkpt lat="44.227675" lon="12.1537149"><ele>15.0</ele><time>2026-05-05T16:32:27.256Z</time></trkpt><trkpt lat="44.2275849" lon="12.1541089"><ele>14.0</ele><time>2026-05-05T16:32:28.256Z</time></trkpt><trkpt lat="44.2275006" lon="12.1545005"><ele>14.5</ele><time>2026-05-05T16:32:29.254Z</time></trkpt><trkpt lat="44.2274123" lon="12.154887"><ele>15.0</ele><time>2026-05-05T16:32:30.256Z</time></trkpt><trkpt lat="44.2273173" lon="12.1552723"><ele>15.0</ele><time>2026-05-05T16:32:31.256Z</time></trkpt><trkpt lat="44.227218" lon="12.1556509"><ele>15.0</ele><time>2026-05-05T16:32:32.256Z</time></trkpt><trkpt lat="44.2271047" lon="12.1560445"><ele>15.0</ele><time>2026-05-05T16:32:33.256Z</time></trkpt><trkpt lat="44.2269802" lon="12.1564425"><ele>15.0</ele><time>2026-05-05T16:32:34.256Z</time></trkpt><trkpt lat="44.2268555" lon="12.1568444"><ele>14.5</ele><time>2026-05-05T16:32:35.255Z</time></trkpt><trkpt lat="44.2267233" lon="12.1572492"><ele>14.0</ele><time>2026-05-05T16:32:36.255Z</time></trkpt><trkpt lat="44.2265835" lon="12.1576421"><ele>14.5</ele><time>2026-05-05T16:32:37.254Z</time></trkpt><trkpt lat="44.2264411" lon="12.1580258"><ele>15.0</ele><time>2026-05-05T16:32:38.256Z</time></trkpt><trkpt lat="44.2262863" lon="12.1584032"><ele>15.0</ele><time>2026-05-05T16:32:39.254Z</time></trkpt><trkpt lat="44.2261347" lon="12.1587836"><ele>15.0</ele><time>2026-05-05T16:32:40.255Z</time></trkpt><trkpt lat="44.2259727" lon="12.1591632"><ele>15.0</ele><time>2026-05-05T16:32:41.256Z</time></trkpt><trkpt lat="44.2258136" lon="12.1595375"><ele>15.0</ele><time>2026-05-05T16:32:42.255Z</time></trkpt><trkpt lat="44.225656" lon="12.1599163"><ele>13.5</ele><time>2026-05-05T16:32:43.255Z</time></trkpt><trkpt lat="44.2255018" lon="12.1602861"><ele>12.0</ele><time>2026-05-05T16:32:44.255Z</time></trkpt><trkpt lat="44.2253454" lon="12.1606587"><ele>12.0</ele><time>2026-05-05T16:32:45.256Z</time></trkpt><trkpt lat="44.2251876" lon="12.1610304"><ele>12.0</ele><time>2026-05-05T16:32:46.256Z</time></trkpt><trkpt lat="44.2250312" lon="12.1614003"><ele>12.5</ele><time>2026-05-05T16:32:47.255Z</time></trkpt><trkpt lat="44.2248698" lon="12.161768"><ele>13.0</ele><time>2026-05-05T16:32:48.256Z</time></trkpt><trkpt lat="44.2247125" lon="12.1621358"><ele>13.0</ele><time>2026-05-05T16:32:49.256Z</time></trkpt><trkpt lat="44.2245556" lon="12.162508"><ele>13.0</ele><time>2026-05-05T16:32:50.256Z</time></trkpt><trkpt lat="44.2244006" lon="12.1628808"><ele>13.5</ele><time>2026-05-05T16:32:51.255Z</time></trkpt><trkpt lat="44.2242479" lon="12.1632427"><ele>14.0</ele><time>2026-05-05T16:32:52.255Z</time></trkpt><trkpt lat="44.2240935" lon="12.1636099"><ele>14.0</ele><time>2026-05-05T16:32:53.255Z</time></trkpt><trkpt lat="44.2239407" lon="12.1639738"><ele>14.0</ele><time>2026-05-05T16:32:54.255Z</time></trkpt><trkpt lat="44.2237871" lon="12.1643366"><ele>13.5</ele><time>2026-05-05T16:32:55.256Z</time></trkpt><trkpt lat="44.223635" lon="12.1646988"><ele>13.0</ele><time>2026-05-05T16:32:56.256Z</time></trkpt><trkpt lat="44.2234827" lon="12.1650634"><ele>13.0</ele><time>2026-05-05T16:32:57.255Z</time></trkpt><trkpt lat="44.2233338" lon="12.1654189"><ele>13.0</ele><time>2026-05-05T16:32:58.256Z</time></trkpt><trkpt lat="44.2231845" lon="12.165782"><ele>12.5</ele><time>2026-05-05T16:32:59.256Z</time></trkpt><trkpt lat="44.2230358" lon="12.16614"><ele>12.0</ele><time>2026-05-05T16:33:00.256Z</time></trkpt><trkpt lat="44.2228862" lon="12.1664928"><ele>12.5</ele><time>2026-05-05T16:33:01.256Z</time></trkpt><trkpt lat="44.2227391" lon="12.166849"><ele>13.0</ele><time>2026-05-05T16:33:02.256Z</time></trkpt><trkpt lat="44.2225898" lon="12.1672036"><ele>14.0</ele><time>2026-05-05T16:33:03.255Z</time></trkpt><trkpt lat="44.2224429" lon="12.1675587"><ele>15.0</ele><time>2026-05-05T16:33:04.256Z</time></trkpt><trkpt lat="44.2222947" lon="12.1679053"><ele>16.0</ele><time>2026-05-05T16:33:05.256Z</time></trkpt><trkpt lat="44.2221494" lon="12.1682576"><ele>17.0</ele><time>2026-05-05T16:33:06.256Z</time></trkpt><trkpt lat="44.2219975" lon="12.1686038"><ele>17.0</ele><time>2026-05-05T16:33:07.255Z</time></trkpt><trkpt lat="44.2218439" lon="12.1689503"><ele>17.0</ele><time>2026-05-05T16:33:08.255Z</time></trkpt><trkpt lat="44.2216913" lon="12.1692905"><ele>16.5</ele><time>2026-05-05T16:33:09.256Z</time></trkpt><trkpt lat="44.2215369" lon="12.1696218"><ele>16.0</ele><time>2026-05-05T16:33:10.256Z</time></trkpt><trkpt lat="44.2213742" lon="12.1699509"><ele>15.5</ele><time>2026-05-05T16:33:11.256Z</time></trkpt><trkpt lat="44.2212105" lon="12.1702692"><ele>15.0</ele><time>2026-05-05T16:33:12.255Z</time></trkpt><trkpt lat="44.2210487" lon="12.1705787"><ele>15.0</ele><time>2026-05-05T16:33:13.256Z</time></trkpt><trkpt lat="44.2208789" lon="12.1708888"><ele>15.0</ele><time>2026-05-05T16:33:14.256Z</time></trkpt><trkpt lat="44.2207103" lon="12.1711877"><ele>14.0</ele><time>2026-05-05T16:33:15.256Z</time></trkpt><trkpt lat="44.2205414" lon="12.1714891"><ele>13.0</ele><time>2026-05-05T16:33:16.256Z</time></trkpt><trkpt lat="44.2203724" lon="12.1717857"><ele>13.0</ele><time>2026-05-05T16:33:17.256Z</time></trkpt><trkpt lat="44.2201991" lon="12.1720675"><ele>13.0</ele><time>2026-05-05T16:33:18.255Z</time></trkpt><trkpt lat="44.2200252" lon="12.1723339"><ele>13.5</ele><time>2026-05-05T16:33:19.256Z</time></trkpt><trkpt lat="44.2198553" lon="12.1726123"><ele>14.0</ele><time>2026-05-05T16:33:20.255Z</time></trkpt><trkpt lat="44.2196887" lon="12.1728806"><ele>14.5</ele><time>2026-05-05T16:33:21.255Z</time></trkpt><trkpt lat="44.2195233" lon="12.1731459"><ele>15.0</ele><time>2026-05-05T16:33:22.256Z</time></trkpt><trkpt lat="44.21936" lon="12.1734053"><ele>15.0</ele><time>2026-05-05T16:33:23.255Z</time></trkpt><trkpt lat="44.2192035" lon="12.1736605"><ele>15.0</ele><time>2026-05-05T16:33:24.256Z</time></trkpt><trkpt lat="44.2190444" lon="12.1739152"><ele>15.0</ele><time>2026-05-05T16:33:25.255Z</time></trkpt><trkpt lat="44.2188862" lon="12.1741662"><ele>15.0</ele><time>2026-05-05T16:33:26.256Z</time></trkpt><trkpt lat="44.2187308" lon="12.17442"><ele>15.0</ele><time>2026-05-05T16:33:27.256Z</time></trkpt><trkpt lat="44.2185728" lon="12.1746695"><ele>15.0</ele><time>2026-05-05T16:33:28.255Z</time></trkpt><trkpt lat="44.2184203" lon="12.174912"><ele>15.0</ele><time>2026-05-05T16:33:29.256Z</time></trkpt><trkpt lat="44.2182662" lon="12.1751573"><ele>15.0</ele><time>2026-05-05T16:33:30.255Z</time></trkpt><trkpt lat="44.2181184" lon="12.1754012"><ele>15.5</ele><time>2026-05-05T16:33:31.256Z</time></trkpt><trkpt lat="44.2179671" lon="12.1756403"><ele>16.0</ele><time>2026-05-05T16:33:32.255Z</time></trkpt><trkpt lat="44.2178146" lon="12.1758862"><ele>16.0</ele><time>2026-05-05T16:33:33.256Z</time></trkpt><trkpt lat="44.2176625" lon="12.1761326"><ele>16.0</ele><time>2026-05-05T16:33:34.254Z</time></trkpt><trkpt lat="44.2175087" lon="12.1763822"><ele>16.0</ele><time>2026-05-05T16:33:35.256Z</time></trkpt><trkpt lat="44.2173545" lon="12.1766254"><ele>16.0</ele><time>2026-05-05T16:33:36.255Z</time></trkpt><trkpt lat="44.2172005" lon="12.1768756"><ele>16.0</ele><time>2026-05-05T16:33:37.256Z</time></trkpt><trkpt lat="44.2170502" lon="12.1771222"><ele>16.0</ele><time>2026-05-05T16:33:38.256Z</time></trkpt><trkpt lat="44.2168979" lon="12.177371"><ele>16.5</ele><time>2026-05-05T16:33:39.255Z</time></trkpt><trkpt lat="44.2167461" lon="12.177617"><ele>17.0</ele><time>2026-05-05T16:33:40.256Z</time></trkpt><trkpt lat="44.2165971" lon="12.1778466"><ele>16.5</ele><time>2026-05-05T16:33:41.255Z</time></trkpt><trkpt lat="44.2164461" lon="12.1780884"><ele>16.0</ele><time>2026-05-05T16:33:42.255Z</time></trkpt><trkpt lat="44.2162991" lon="12.1783345"><ele>16.0</ele><time>2026-05-05T16:33:43.256Z</time></trkpt><trkpt lat="44.2161474" lon="12.1785859"><ele>16.0</ele><time>2026-05-05T16:33:44.255Z</time></trkpt><trkpt lat="44.215998" lon="12.1788266"><ele>15.5</ele><time>2026-05-05T16:33:45.256Z</time></trkpt><trkpt lat="44.2158447" lon="12.1790748"><ele>15.0</ele><time>2026-05-05T16:33:46.256Z</time></trkpt><trkpt lat="44.2156917" lon="12.1793181"><ele>14.5</ele><time>2026-05-05T16:33:47.255Z</time></trkpt><trkpt lat="44.2155398" lon="12.1795658"><ele>14.0</ele><time>2026-05-05T16:33:48.255Z</time></trkpt><trkpt lat="44.215381" lon="12.1798211"><ele>15.0</ele><time>2026-05-05T16:33:49.255Z</time></trkpt><trkpt lat="44.215225" lon="12.180064"><ele>16.0</ele><time>2026-05-05T16:33:50.256Z</time></trkpt><trkpt lat="44.215071" lon="12.1803237"><ele>16.0</ele><time>2026-05-05T16:33:51.256Z</time></trkpt><trkpt lat="44.2149155" lon="12.1805771"><ele>16.0</ele><time>2026-05-05T16:33:52.256Z</time></trkpt><trkpt lat="44.2147564" lon="12.1808345"><ele>16.0</ele><time>2026-05-05T16:33:53.256Z</time></trkpt><trkpt lat="44.2146002" lon="12.1810857"><ele>16.0</ele><time>2026-05-05T16:33:54.255Z</time></trkpt><trkpt lat="44.214445" lon="12.181345"><ele>16.5</ele><time>2026-05-05T16:33:55.255Z</time></trkpt><trkpt lat="44.2142862" lon="12.1816057"><ele>17.0</ele><time>2026-05-05T16:33:56.255Z</time></trkpt><trkpt lat="44.2141256" lon="12.1818708"><ele>16.5</ele><time>2026-05-05T16:33:57.254Z</time></trkpt><trkpt lat="44.2139665" lon="12.1821347"><ele>16.0</ele><time>2026-05-05T16:33:58.256Z</time></trkpt><trkpt lat="44.2138065" lon="12.1824029"><ele>16.0</ele><time>2026-05-05T16:33:59.255Z</time></trkpt><trkpt lat="44.2136423" lon="12.182679"><ele>16.0</ele><time>2026-05-05T16:34:00.256Z</time></trkpt><trkpt lat="44.2134736" lon="12.1829607"><ele>15.5</ele><time>2026-05-05T16:34:01.256Z</time></trkpt><trkpt lat="44.2133014" lon="12.1832464"><ele>15.0</ele><time>2026-05-05T16:34:02.256Z</time></trkpt><trkpt lat="44.2131241" lon="12.1835347"><ele>16.0</ele><time>2026-05-05T16:34:03.255Z</time></trkpt><trkpt lat="44.2129453" lon="12.1838352"><ele>17.0</ele><time>2026-05-05T16:34:04.256Z</time></trkpt><trkpt lat="44.2127585" lon="12.1841398"><ele>17.0</ele><time>2026-05-05T16:34:05.255Z</time></trkpt><trkpt lat="44.2125676" lon="12.1844489"><ele>17.0</ele><time>2026-05-05T16:34:06.256Z</time></trkpt><trkpt lat="44.2123812" lon="12.1847522"><ele>15.5</ele><time>2026-05-05T16:34:07.254Z</time></trkpt><trkpt lat="44.2121941" lon="12.1850634"><ele>14.0</ele><time>2026-05-05T16:34:08.256Z</time></trkpt><trkpt lat="44.2120042" lon="12.1853708"><ele>15.5</ele><time>2026-05-05T16:34:09.256Z</time></trkpt><trkpt lat="44.2118114" lon="12.1856879"><ele>17.0</ele><time>2026-05-05T16:34:10.255Z</time></trkpt><trkpt lat="44.2116167" lon="12.1859998"><ele>16.5</ele><time>2026-05-05T16:34:11.256Z</time></trkpt><trkpt lat="44.2114258" lon="12.1863082"><ele>16.0</ele><time>2026-05-05T16:34:12.256Z</time></trkpt><trkpt lat="44.2112342" lon="12.186621"><ele>16.0</ele><time>2026-05-05T16:34:13.255Z</time></trkpt><trkpt lat="44.2110426" lon="12.1869311"><ele>16.0</ele><time>2026-05-05T16:34:14.255Z</time></trkpt><trkpt lat="44.2108525" lon="12.187243"><ele>17.0</ele><time>2026-05-05T16:34:15.256Z</time></trkpt><trkpt lat="44.2106586" lon="12.1875566"><ele>18.0</ele><time>2026-05-05T16:34:16.255Z</time></trkpt><trkpt lat="44.2104608" lon="12.1878753"><ele>17.5</ele><time>2026-05-05T16:34:17.255Z</time></trkpt><trkpt lat="44.2102693" lon="12.1881882"><ele>17.0</ele><time>2026-05-05T16:34:18.255Z</time></trkpt><trkpt lat="44.2100802" lon="12.1885026"><ele>17.0</ele><time>2026-05-05T16:34:19.256Z</time></trkpt><trkpt lat="44.2098774" lon="12.1888208"><ele>17.0</ele><time>2026-05-05T16:34:20.255Z</time></trkpt><trkpt lat="44.2096758" lon="12.1891436"><ele>17.5</ele><time>2026-05-05T16:34:21.255Z</time></trkpt><trkpt lat="44.2094769" lon="12.1894632"><ele>18.0</ele><time>2026-05-05T16:34:22.256Z</time></trkpt><trkpt lat="44.2092845" lon="12.1897728"><ele>18.5</ele><time>2026-05-05T16:34:23.256Z</time></trkpt><trkpt lat="44.2090936" lon="12.1900841"><ele>19.0</ele><time>2026-05-05T16:34:24.254Z</time></trkpt><trkpt lat="44.2089302" lon="12.1903943"><ele>18.5</ele><time>2026-05-05T16:34:25.256Z</time></trkpt><trkpt lat="44.2087719" lon="12.1907032"><ele>18.0</ele><time>2026-05-05T16:34:26.256Z</time></trkpt><trkpt lat="44.2086148" lon="12.1910083"><ele>18.0</ele><time>2026-05-05T16:34:27.256Z</time></trkpt><trkpt lat="44.2084705" lon="12.1912854"><ele>18.0</ele><time>2026-05-05T16:34:28.255Z</time></trkpt><trkpt lat="44.2083302" lon="12.1915775"><ele>18.0</ele><time>2026-05-05T16:34:29.256Z</time></trkpt><trkpt lat="44.2081925" lon="12.1918718"><ele>18.0</ele><time>2026-05-05T16:34:30.256Z</time></trkpt><trkpt lat="44.2080602" lon="12.1921565"><ele>18.0</ele><time>2026-05-05T16:34:31.256Z</time></trkpt><trkpt lat="44.2079338" lon="12.1924499"><ele>18.0</ele><time>2026-05-05T16:34:32.256Z</time></trkpt><trkpt lat="44.2078104" lon="12.1927435"><ele>18.0</ele><time>2026-05-05T16:34:33.256Z</time></trkpt><trkpt lat="44.2076913" lon="12.1930383"><ele>18.0</ele><time>2026-05-05T16:34:34.256Z</time></trkpt><trkpt lat="44.2075731" lon="12.1933376"><ele>18.5</ele><time>2026-05-05T16:34:35.255Z</time></trkpt><trkpt lat="44.2074575" lon="12.1936336"><ele>19.0</ele><time>2026-05-05T16:34:36.256Z</time></trkpt><trkpt lat="44.207342" lon="12.193926"><ele>19.0</ele><time>2026-05-05T16:34:37.256Z</time></trkpt><trkpt lat="44.2072277" lon="12.1942186"><ele>19.0</ele><time>2026-05-05T16:34:38.256Z</time></trkpt><trkpt lat="44.2071099" lon="12.1945081"><ele>19.0</ele><time>2026-05-05T16:34:39.255Z</time></trkpt><trkpt lat="44.2069952" lon="12.1948022"><ele>19.0</ele><time>2026-05-05T16:34:40.255Z</time></trkpt><trkpt lat="44.2068758" lon="12.1950959"><ele>19.5</ele><time>2026-05-05T16:34:41.255Z</time></trkpt><trkpt lat="44.2067585" lon="12.1953912"><ele>20.0</ele><time>2026-05-05T16:34:42.255Z</time></trkpt><trkpt lat="44.2066386" lon="12.1956852"><ele>20.0</ele><time>2026-05-05T16:34:43.254Z</time></trkpt><trkpt lat="44.2065224" lon="12.195982"><ele>20.0</ele><time>2026-05-05T16:34:44.256Z</time></trkpt><trkpt lat="44.2064098" lon="12.196292"><ele>19.0</ele><time>2026-05-05T16:34:45.256Z</time></trkpt><trkpt lat="44.2062946" lon="12.1966013"><ele>18.0</ele><time>2026-05-05T16:34:46.255Z</time></trkpt><trkpt lat="44.206178" lon="12.1969065"><ele>18.0</ele><time>2026-05-05T16:34:47.255Z</time></trkpt><trkpt lat="44.2060622" lon="12.1972148"><ele>18.0</ele><time>2026-05-05T16:34:48.256Z</time></trkpt><trkpt lat="44.2059432" lon="12.1975227"><ele>18.0</ele><time>2026-05-05T16:34:49.255Z</time></trkpt><trkpt lat="44.205823" lon="12.1978353"><ele>18.0</ele><time>2026-05-05T16:34:50.256Z</time></trkpt><trkpt lat="44.2057026" lon="12.1981518"><ele>17.0</ele><time>2026-05-05T16:34:51.255Z</time></trkpt><trkpt lat="44.2055813" lon="12.1984683"><ele>16.0</ele><time>2026-05-05T16:34:52.256Z</time></trkpt><trkpt lat="44.2054616" lon="12.1987895"><ele>17.0</ele><time>2026-05-05T16:34:53.256Z</time></trkpt><trkpt lat="44.2053385" lon="12.1990998"><ele>18.0</ele><time>2026-05-05T16:34:54.256Z</time></trkpt><trkpt lat="44.2052186" lon="12.1994136"><ele>18.0</ele><time>2026-05-05T16:34:55.256Z</time></trkpt><trkpt lat="44.2050996" lon="12.1997166"><ele>18.0</ele><time>2026-05-05T16:34:56.254Z</time></trkpt><trkpt lat="44.2049869" lon="12.2000146"><ele>18.0</ele><time>2026-05-05T16:34:57.255Z</time></trkpt><trkpt lat="44.2048699" lon="12.2003196"><ele>18.0</ele><time>2026-05-05T16:34:58.255Z</time></trkpt><trkpt lat="44.2047539" lon="12.2006265"><ele>17.0</ele><time>2026-05-05T16:34:59.255Z</time></trkpt><trkpt lat="44.2046256" lon="12.2009429"><ele>16.0</ele><time>2026-05-05T16:35:00.256Z</time></trkpt><trkpt lat="44.2044936" lon="12.2012594"><ele>17.0</ele><time>2026-05-05T16:35:01.256Z</time></trkpt><trkpt lat="44.2043646" lon="12.2015653"><ele>18.0</ele><time>2026-05-05T16:35:02.255Z</time></trkpt><trkpt lat="44.2042448" lon="12.2018581"><ele>18.0</ele><time>2026-05-05T16:35:03.256Z</time></trkpt><trkpt lat="44.2041307" lon="12.2021391"><ele>18.0</ele><time>2026-05-05T16:35:04.255Z</time></trkpt><trkpt lat="44.204026" lon="12.2024158"><ele>18.0</ele><time>2026-05-05T16:35:05.256Z</time></trkpt><trkpt lat="44.203922" lon="12.2026824"><ele>18.0</ele><time>2026-05-05T16:35:06.254Z</time></trkpt><trkpt lat="44.20382" lon="12.2029481"><ele>18.0</ele><time>2026-05-05T16:35:07.254Z</time></trkpt><trkpt lat="44.2037158" lon="12.203224"><ele>18.0</ele><time>2026-05-05T16:35:08.255Z</time></trkpt><trkpt lat="44.2036069" lon="12.2035011"><ele>18.0</ele><time>2026-05-05T16:35:09.255Z</time></trkpt><trkpt lat="44.2034978" lon="12.2037799"><ele>18.0</ele><time>2026-05-05T16:35:10.256Z</time></trkpt><trkpt lat="44.2033869" lon="12.2040688"><ele>18.0</ele><time>2026-05-05T16:35:11.255Z</time></trkpt><trkpt lat="44.2032749" lon="12.2043586"><ele>18.0</ele><time>2026-05-05T16:35:12.255Z</time></trkpt><trkpt lat="44.2031612" lon="12.2046556"><ele>18.0</ele><time>2026-05-05T16:35:13.256Z</time></trkpt><trkpt lat="44.2030443" lon="12.2049553"><ele>18.0</ele><time>2026-05-05T16:35:14.255Z</time></trkpt><trkpt lat="44.2029317" lon="12.2052474"><ele>18.0</ele><time>2026-05-05T16:35:15.256Z</time></trkpt><trkpt lat="44.2028225" lon="12.2055311"><ele>18.333333333333332</ele><time>2026-05-05T16:35:16.255Z</time></trkpt><trkpt lat="44.2027177" lon="12.2058106"><ele>18.666666666666664</ele><time>2026-05-05T16:35:17.256Z</time></trkpt><trkpt lat="44.2026168" lon="12.206072"><ele>19.0</ele><time>2026-05-05T16:35:18.255Z</time></trkpt><trkpt lat="44.2025193" lon="12.2063286"><ele>19.333333333333332</ele><time>2026-05-05T16:35:19.255Z</time></trkpt><trkpt lat="44.2024235" lon="12.2065827"><ele>19.666666666666668</ele><time>2026-05-05T16:35:20.256Z</time></trkpt><trkpt lat="44.2023245" lon="12.2068344"><ele>20.0</ele><time>2026-05-05T16:35:21.255Z</time></trkpt><trkpt lat="44.2022266" lon="12.2070879"><ele>19.666666666666668</ele><time>2026-05-05T16:35:22.256Z</time></trkpt><trkpt lat="44.2021282" lon="12.2073353"><ele>19.333333333333332</ele><time>2026-05-05T16:35:23.255Z</time></trkpt><trkpt lat="44.2020295" lon="12.2075803"><ele>19.0</ele><time>2026-05-05T16:35:24.256Z</time></trkpt><trkpt lat="44.2019342" lon="12.2078302"><ele>19.0</ele><time>2026-05-05T16:35:25.256Z</time></trkpt><trkpt lat="44.2018403" lon="12.2080723"><ele>19.0</ele><time>2026-05-05T16:35:26.255Z</time></trkpt><trkpt lat="44.201743" lon="12.2083089"><ele>19.0</ele><time>2026-05-05T16:35:27.255Z</time></trkpt><trkpt lat="44.201649" lon="12.2085538"><ele>19.0</ele><time>2026-05-05T16:35:28.256Z</time></trkpt><trkpt lat="44.2015562" lon="12.2088003"><ele>19.0</ele><time>2026-05-05T16:35:29.255Z</time></trkpt><trkpt lat="44.2014599" lon="12.2090429"><ele>19.0</ele><time>2026-05-05T16:35:30.254Z</time></trkpt><trkpt lat="44.201365" lon="12.2093013"><ele>19.0</ele><time>2026-05-05T16:35:31.255Z</time></trkpt><trkpt lat="44.2012686" lon="12.2095656"><ele>19.0</ele><time>2026-05-05T16:35:32.254Z</time></trkpt><trkpt lat="44.2011647" lon="12.2098442"><ele>19.0</ele><time>2026-05-05T16:35:33.256Z</time></trkpt><trkpt lat="44.2010579" lon="12.2101314"><ele>19.5</ele><time>2026-05-05T16:35:34.256Z</time></trkpt><trkpt lat="44.2009473" lon="12.2104257"><ele>20.0</ele><time>2026-05-05T16:35:35.256Z</time></trkpt><trkpt lat="44.2008319" lon="12.2107258"><ele>19.0</ele><time>2026-05-05T16:35:36.255Z</time></trkpt><trkpt lat="44.2007082" lon="12.2110314"><ele>18.0</ele><time>2026-05-05T16:35:37.256Z</time></trkpt><trkpt lat="44.2005853" lon="12.2113339"><ele>19.0</ele><time>2026-05-05T16:35:38.255Z</time></trkpt><trkpt lat="44.2004623" lon="12.2116317"><ele>20.0</ele><time>2026-05-05T16:35:39.255Z</time></trkpt><trkpt lat="44.2003447" lon="12.2119249"><ele>20.0</ele><time>2026-05-05T16:35:40.256Z</time></trkpt><trkpt lat="44.2002311" lon="12.2122136"><ele>20.0</ele><time>2026-05-05T16:35:41.255Z</time></trkpt><trkpt lat="44.2001206" lon="12.2125056"><ele>20.0</ele><time>2026-05-05T16:35:42.254Z</time></trkpt><trkpt lat="44.2000126" lon="12.2127868"><ele>20.0</ele><time>2026-05-05T16:35:43.255Z</time></trkpt><trkpt lat="44.1999069" lon="12.2130652"><ele>19.333333333333336</ele><time>2026-05-05T16:35:44.256Z</time></trkpt><trkpt lat="44.1998006" lon="12.2133353"><ele>18.666666666666668</ele><time>2026-05-05T16:35:45.256Z</time></trkpt><trkpt lat="44.1996999" lon="12.2135941"><ele>18.0</ele><time>2026-05-05T16:35:46.256Z</time></trkpt><trkpt lat="44.1995979" lon="12.2138557"><ele>18.333333333333332</ele><time>2026-05-05T16:35:47.255Z</time></trkpt><trkpt lat="44.1995004" lon="12.2141184"><ele>18.666666666666664</ele><time>2026-05-05T16:35:48.256Z</time></trkpt><trkpt lat="44.1993979" lon="12.2143818"><ele>19.0</ele><time>2026-05-05T16:35:49.255Z</time></trkpt><trkpt lat="44.1992978" lon="12.2146379"><ele>19.0</ele><time>2026-05-05T16:35:50.256Z</time></trkpt><trkpt lat="44.199196" lon="12.2148979"><ele>19.0</ele><time>2026-05-05T16:35:51.255Z</time></trkpt><trkpt lat="44.1990945" lon="12.2151599"><ele>19.0</ele><time>2026-05-05T16:35:52.256Z</time></trkpt><trkpt lat="44.1989928" lon="12.2154144"><ele>19.666666666666664</ele><time>2026-05-05T16:35:53.256Z</time></trkpt><trkpt lat="44.1988917" lon="12.2156804"><ele>20.333333333333332</ele><time>2026-05-05T16:35:54.255Z</time></trkpt><trkpt lat="44.1987908" lon="12.2159412"><ele>21.0</ele><time>2026-05-05T16:35:55.255Z</time></trkpt><trkpt lat="44.1986852" lon="12.2161958"><ele>21.0</ele><time>2026-05-05T16:35:56.256Z</time></trkpt><trkpt lat="44.1985846" lon="12.2164368"><ele>21.0</ele><time>2026-05-05T16:35:57.256Z</time></trkpt><trkpt lat="44.1984948" lon="12.2166465"><ele>21.0</ele><time>2026-05-05T16:35:58.255Z</time></trkpt><trkpt lat="44.1984053" lon="12.216846"><ele>21.333333333333332</ele><time>2026-05-05T16:35:59.256Z</time></trkpt><trkpt lat="44.1983247" lon="12.2170406"><ele>21.666666666666664</ele><time>2026-05-05T16:36:00.255Z</time></trkpt><trkpt lat="44.1982484" lon="12.2172317"><ele>22.0</ele><time>2026-05-05T16:36:01.256Z</time></trkpt><trkpt lat="44.1981762" lon="12.2174152"><ele>21.5</ele><time>2026-05-05T16:36:02.256Z</time></trkpt><trkpt lat="44.1981079" lon="12.2175963"><ele>21.0</ele><time>2026-05-05T16:36:03.256Z</time></trkpt><trkpt lat="44.1980351" lon="12.2177736"><ele>20.5</ele><time>2026-05-05T16:36:04.256Z</time></trkpt><trkpt lat="44.1979663" lon="12.2179499"><ele>20.0</ele><time>2026-05-05T16:36:05.256Z</time></trkpt><trkpt lat="44.197896" lon="12.2181245"><ele>20.0</ele><time>2026-05-05T16:36:06.256Z</time></trkpt><trkpt lat="44.197826" lon="12.2182876"><ele>20.0</ele><time>2026-05-05T16:36:07.256Z</time></trkpt><trkpt lat="44.1977599" lon="12.2184449"><ele>20.0</ele><time>2026-05-05T16:36:08.254Z</time></trkpt><trkpt lat="44.1976931" lon="12.2186048"><ele>20.0</ele><time>2026-05-05T16:36:09.255Z</time></trkpt><trkpt lat="44.1976265" lon="12.2187498"><ele>20.0</ele><time>2026-05-05T16:36:10.254Z</time></trkpt><trkpt lat="44.1975568" lon="12.218882"><ele>20.0</ele><time>2026-05-05T16:36:11.256Z</time></trkpt><trkpt lat="44.1974805" lon="12.219003"><ele>20.0</ele><time>2026-05-05T16:36:12.256Z</time></trkpt><trkpt lat="44.1973965" lon="12.2191088"><ele>20.0</ele><time>2026-05-05T16:36:13.254Z</time></trkpt><trkpt lat="44.1973081" lon="12.2192024"><ele>20.25</ele><time>2026-05-05T16:36:14.256Z</time></trkpt><trkpt lat="44.1972096" lon="12.2192895"><ele>20.5</ele><time>2026-05-05T16:36:15.255Z</time></trkpt><trkpt lat="44.197106" lon="12.2193573"><ele>20.75</ele><time>2026-05-05T16:36:16.255Z</time></trkpt><trkpt lat="44.1970022" lon="12.2194163"><ele>21.0</ele><time>2026-05-05T16:36:17.256Z</time></trkpt><trkpt lat="44.1969012" lon="12.2194649"><ele>21.0</ele><time>2026-05-05T16:36:18.255Z</time></trkpt><trkpt lat="44.196803" lon="12.2195002"><ele>21.0</ele><time>2026-05-05T16:36:19.256Z</time></trkpt><trkpt lat="44.1967031" lon="12.2195289"><ele>21.0</ele><time>2026-05-05T16:36:20.256Z</time></trkpt><trkpt lat="44.196606" lon="12.2195489"><ele>21.0</ele><time>2026-05-05T16:36:21.256Z</time></trkpt><trkpt lat="44.1965099" lon="12.2195613"><ele>21.0</ele><time>2026-05-05T16:36:22.256Z</time></trkpt><trkpt lat="44.1964132" lon="12.219566"><ele>21.0</ele><time>2026-05-05T16:36:23.256Z</time></trkpt><trkpt lat="44.196316" lon="12.2195697"><ele>21.0</ele><time>2026-05-05T16:36:24.256Z</time></trkpt><trkpt lat="44.1962195" lon="12.2195695"><ele>21.0</ele><time>2026-05-05T16:36:25.255Z</time></trkpt><trkpt lat="44.1961149" lon="12.2195752"><ele>21.0</ele><time>2026-05-05T16:36:26.255Z</time></trkpt><trkpt lat="44.1960089" lon="12.219576"><ele>21.0</ele><time>2026-05-05T16:36:27.255Z</time></trkpt><trkpt lat="44.1958989" lon="12.2195786"><ele>21.0</ele><time>2026-05-05T16:36:28.255Z</time></trkpt><trkpt lat="44.1957887" lon="12.2195785"><ele>21.0</ele><time>2026-05-05T16:36:29.256Z</time></trkpt><trkpt lat="44.1956835" lon="12.2195872"><ele>21.0</ele><time>2026-05-05T16:36:30.256Z</time></trkpt><trkpt lat="44.1955758" lon="12.21959"><ele>21.0</ele><time>2026-05-05T16:36:31.255Z</time></trkpt><trkpt lat="44.1954699" lon="12.219595"><ele>21.0</ele><time>2026-05-05T16:36:32.256Z</time></trkpt><trkpt lat="44.1953797" lon="12.219594"><ele>21.0</ele><time>2026-05-05T16:36:33.256Z</time></trkpt><trkpt lat="44.195284" lon="12.2196074"><ele>21.0</ele><time>2026-05-05T16:36:34.255Z</time></trkpt><trkpt lat="44.1951777" lon="12.2196257"><ele>21.0</ele><time>2026-05-05T16:36:35.255Z</time></trkpt><trkpt lat="44.1950722" lon="12.2196475"><ele>21.0</ele><time>2026-05-05T16:36:36.256Z</time></trkpt><trkpt lat="44.1949752" lon="12.2196644"><ele>21.0</ele><time>2026-05-05T16:36:37.256Z</time></trkpt><trkpt lat="44.194878" lon="12.2196838"><ele>21.333333333333332</ele><time>2026-05-05T16:36:38.256Z</time></trkpt><trkpt lat="44.1947923" lon="12.2196947"><ele>21.666666666666668</ele><time>2026-05-05T16:36:39.256Z</time></trkpt><trkpt lat="44.1947173" lon="12.2197065"><ele>22.0</ele><time>2026-05-05T16:36:40.256Z</time></trkpt><trkpt lat="44.1945947" lon="12.2197095"><ele>22.333333333333336</ele><time>2026-05-05T16:36:42.256Z</time></trkpt><trkpt lat="44.1945309" lon="12.2197241"><ele>22.666666666666668</ele><time>2026-05-05T16:36:45.255Z</time></trkpt><trkpt lat="44.1944618" lon="12.2196924"><ele>23.0</ele><time>2026-05-05T16:37:37.256Z</time></trkpt><trkpt lat="44.1943703" lon="12.2196989"><ele>23.0</ele><time>2026-05-05T16:37:39.256Z</time></trkpt><trkpt lat="44.1943052" lon="12.2197086"><ele>23.0</ele><time>2026-05-05T16:37:40.255Z</time></trkpt><trkpt lat="44.1942408" lon="12.2197123"><ele>23.0</ele><time>2026-05-05T16:37:41.255Z</time></trkpt><trkpt lat="44.1941691" lon="12.2197146"><ele>23.0</ele><time>2026-05-05T16:37:42.254Z</time></trkpt><trkpt lat="44.1940882" lon="12.2197187"><ele>23.0</ele><time>2026-05-05T16:37:43.256Z</time></trkpt><trkpt lat="44.1939947" lon="12.2197265"><ele>23.0</ele><time>2026-05-05T16:37:44.256Z</time></trkpt><trkpt lat="44.1938927" lon="12.2197332"><ele>22.75</ele><time>2026-05-05T16:37:45.256Z</time></trkpt><trkpt lat="44.193782" lon="12.2197411"><ele>22.5</ele><time>2026-05-05T16:37:46.256Z</time></trkpt><trkpt lat="44.1936612" lon="12.2197473"><ele>22.25</ele><time>2026-05-05T16:37:47.256Z</time></trkpt><trkpt lat="44.1935368" lon="12.219758"><ele>22.0</ele><time>2026-05-05T16:37:48.256Z</time></trkpt><trkpt lat="44.1934073" lon="12.2197669"><ele>22.0</ele><time>2026-05-05T16:37:49.255Z</time></trkpt><trkpt lat="44.1932804" lon="12.2197729"><ele>22.0</ele><time>2026-05-05T16:37:50.256Z</time></trkpt><trkpt lat="44.1931504" lon="12.2197842"><ele>22.0</ele><time>2026-05-05T16:37:51.256Z</time></trkpt><trkpt lat="44.193014" lon="12.219804"><ele>22.0</ele><time>2026-05-05T16:37:52.256Z</time></trkpt><trkpt lat="44.1928798" lon="12.2198377"><ele>22.0</ele><time>2026-05-05T16:37:53.256Z</time></trkpt><trkpt lat="44.1927432" lon="12.2198869"><ele>22.0</ele><time>2026-05-05T16:37:54.256Z</time></trkpt><trkpt lat="44.192607" lon="12.219942"><ele>22.0</ele><time>2026-05-05T16:37:55.256Z</time></trkpt><trkpt lat="44.1924769" lon="12.2200127"><ele>22.0</ele><time>2026-05-05T16:37:56.256Z</time></trkpt><trkpt lat="44.192344" lon="12.2200931"><ele>22.25</ele><time>2026-05-05T16:37:57.255Z</time></trkpt><trkpt lat="44.1922181" lon="12.2201844"><ele>22.5</ele><time>2026-05-05T16:37:58.255Z</time></trkpt><trkpt lat="44.1920937" lon="12.220286"><ele>22.75</ele><time>2026-05-05T16:37:59.255Z</time></trkpt><trkpt lat="44.1919812" lon="12.2204078"><ele>23.0</ele><time>2026-05-05T16:38:00.256Z</time></trkpt><trkpt lat="44.1918748" lon="12.2205437"><ele>22.75</ele><time>2026-05-05T16:38:01.255Z</time></trkpt><trkpt lat="44.1917754" lon="12.220689"><ele>22.5</ele><time>2026-05-05T16:38:02.256Z</time></trkpt><trkpt lat="44.1916777" lon="12.2208458"><ele>22.25</ele><time>2026-05-05T16:38:03.256Z</time></trkpt><trkpt lat="44.1915877" lon="12.2210106"><ele>22.0</ele><time>2026-05-05T16:38:04.255Z</time></trkpt><trkpt lat="44.1915014" lon="12.2211757"><ele>21.75</ele><time>2026-05-05T16:38:05.255Z</time></trkpt><trkpt lat="44.1914227" lon="12.2213517"><ele>21.5</ele><time>2026-05-05T16:38:06.255Z</time></trkpt><trkpt lat="44.1913657" lon="12.221508"><ele>21.25</ele><time>2026-05-05T16:38:07.256Z</time></trkpt><trkpt lat="44.1913085" lon="12.2216783"><ele>21.0</ele><time>2026-05-05T16:38:08.255Z</time></trkpt><trkpt lat="44.1912675" lon="12.2218533"><ele>21.0</ele><time>2026-05-05T16:38:09.256Z</time></trkpt><trkpt lat="44.1912254" lon="12.2220302"><ele>21.0</ele><time>2026-05-05T16:38:10.256Z</time></trkpt><trkpt lat="44.1911941" lon="12.2222052"><ele>21.0</ele><time>2026-05-05T16:38:11.255Z</time></trkpt><trkpt lat="44.1911687" lon="12.2223849"><ele>21.0</ele><time>2026-05-05T16:38:12.255Z</time></trkpt><trkpt lat="44.1911495" lon="12.222556"><ele>21.0</ele><time>2026-05-05T16:38:13.255Z</time></trkpt><trkpt lat="44.1911372" lon="12.222711"><ele>21.0</ele><time>2026-05-05T16:38:14.256Z</time></trkpt><trkpt lat="44.1911236" lon="12.2228646"><ele>21.0</ele><time>2026-05-05T16:38:15.255Z</time></trkpt><trkpt lat="44.1911064" lon="12.2230226"><ele>21.0</ele><time>2026-05-05T16:38:16.255Z</time></trkpt><trkpt lat="44.1910801" lon="12.2231722"><ele>21.0</ele><time>2026-05-05T16:38:17.255Z</time></trkpt><trkpt lat="44.1910431" lon="12.2233151"><ele>21.200000000000003</ele><time>2026-05-05T16:38:18.256Z</time></trkpt><trkpt lat="44.1909918" lon="12.2234606"><ele>21.400000000000002</ele><time>2026-05-05T16:38:19.255Z</time></trkpt><trkpt lat="44.1909294" lon="12.2235871"><ele>21.6</ele><time>2026-05-05T16:38:20.256Z</time></trkpt><trkpt lat="44.1908575" lon="12.2236994"><ele>21.8</ele><time>2026-05-05T16:38:21.256Z</time></trkpt><trkpt lat="44.1907797" lon="12.2237985"><ele>22.0</ele><time>2026-05-05T16:38:22.255Z</time></trkpt><trkpt lat="44.1906948" lon="12.223892"><ele>22.0</ele><time>2026-05-05T16:38:23.255Z</time></trkpt><trkpt lat="44.1906085" lon="12.2239835"><ele>22.0</ele><time>2026-05-05T16:38:24.255Z</time></trkpt><trkpt lat="44.1905146" lon="12.2240489"><ele>22.0</ele><time>2026-05-05T16:38:25.256Z</time></trkpt><trkpt lat="44.1904116" lon="12.2241033"><ele>22.0</ele><time>2026-05-05T16:38:26.255Z</time></trkpt><trkpt lat="44.1903017" lon="12.2241235"><ele>22.0</ele><time>2026-05-05T16:38:27.256Z</time></trkpt><trkpt lat="44.1901845" lon="12.2241328"><ele>22.0</ele><time>2026-05-05T16:38:28.255Z</time></trkpt><trkpt lat="44.1900695" lon="12.2241324"><ele>22.0</ele><time>2026-05-05T16:38:29.256Z</time></trkpt><trkpt lat="44.189944" lon="12.2241428"><ele>22.0</ele><time>2026-05-05T16:38:30.256Z</time></trkpt><trkpt lat="44.1897942" lon="12.224156"><ele>22.0</ele><time>2026-05-05T16:38:31.254Z</time></trkpt><trkpt lat="44.1896331" lon="12.2241667"><ele>22.333333333333332</ele><time>2026-05-05T16:38:32.256Z</time></trkpt><trkpt lat="44.1894731" lon="12.2241659"><ele>22.666666666666668</ele><time>2026-05-05T16:38:33.256Z</time></trkpt><trkpt lat="44.1893102" lon="12.2241661"><ele>23.0</ele><time>2026-05-05T16:38:34.256Z</time></trkpt><trkpt lat="44.1891415" lon="12.2241611"><ele>23.0</ele><time>2026-05-05T16:38:35.255Z</time></trkpt><trkpt lat="44.1889713" lon="12.2241522"><ele>23.0</ele><time>2026-05-05T16:38:36.254Z</time></trkpt><trkpt lat="44.1888018" lon="12.2241432"><ele>23.0</ele><time>2026-05-05T16:38:37.255Z</time></trkpt><trkpt lat="44.1886237" lon="12.2241371"><ele>23.0</ele><time>2026-05-05T16:38:38.256Z</time></trkpt><trkpt lat="44.1884412" lon="12.2241297"><ele>23.0</ele><time>2026-05-05T16:38:39.256Z</time></trkpt><trkpt lat="44.188263" lon="12.2241142"><ele>23.0</ele><time>2026-05-05T16:38:40.255Z</time></trkpt><trkpt lat="44.1880796" lon="12.2240958"><ele>22.666666666666668</ele><time>2026-05-05T16:38:41.256Z</time></trkpt><trkpt lat="44.1878953" lon="12.2240806"><ele>22.333333333333332</ele><time>2026-05-05T16:38:42.255Z</time></trkpt><trkpt lat="44.1877093" lon="12.224061"><ele>22.0</ele><time>2026-05-05T16:38:43.256Z</time></trkpt><trkpt lat="44.1875269" lon="12.2240413"><ele>22.0</ele><time>2026-05-05T16:38:44.255Z</time></trkpt><trkpt lat="44.187339" lon="12.2240146"><ele>22.0</ele><time>2026-05-05T16:38:45.255Z</time></trkpt><trkpt lat="44.1871526" lon="12.2239913"><ele>22.0</ele><time>2026-05-05T16:38:46.256Z</time></trkpt><trkpt lat="44.186961" lon="12.2239635"><ele>22.0</ele><time>2026-05-05T16:38:47.256Z</time></trkpt><trkpt lat="44.1867687" lon="12.2239337"><ele>22.0</ele><time>2026-05-05T16:38:48.256Z</time></trkpt><trkpt lat="44.186579" lon="12.2239031"><ele>22.0</ele><time>2026-05-05T16:38:49.256Z</time></trkpt><trkpt lat="44.1863903" lon="12.2238754"><ele>22.666666666666664</ele><time>2026-05-05T16:38:50.255Z</time></trkpt><trkpt lat="44.1862008" lon="12.2238482"><ele>23.333333333333332</ele><time>2026-05-05T16:38:51.256Z</time></trkpt><trkpt lat="44.1860126" lon="12.2238161"><ele>24.0</ele><time>2026-05-05T16:38:52.255Z</time></trkpt><trkpt lat="44.1858294" lon="12.2237848"><ele>23.666666666666668</ele><time>2026-05-05T16:38:53.256Z</time></trkpt><trkpt lat="44.1856482" lon="12.2237491"><ele>23.333333333333336</ele><time>2026-05-05T16:38:54.256Z</time></trkpt><trkpt lat="44.1854667" lon="12.2237199"><ele>23.0</ele><time>2026-05-05T16:38:55.255Z</time></trkpt><trkpt lat="44.185284" lon="12.2236853"><ele>23.0</ele><time>2026-05-05T16:38:56.254Z</time></trkpt><trkpt lat="44.1851021" lon="12.2236498"><ele>23.0</ele><time>2026-05-05T16:38:57.256Z</time></trkpt><trkpt lat="44.1849147" lon="12.2236244"><ele>23.0</ele><time>2026-05-05T16:38:58.256Z</time></trkpt><trkpt lat="44.1847199" lon="12.2235924"><ele>23.0</ele><time>2026-05-05T16:38:59.255Z</time></trkpt><trkpt lat="44.1845212" lon="12.2235552"><ele>23.0</ele><time>2026-05-05T16:39:00.255Z</time></trkpt><trkpt lat="44.1843173" lon="12.2235131"><ele>23.0</ele><time>2026-05-05T16:39:01.255Z</time></trkpt><trkpt lat="44.1841074" lon="12.223471"><ele>23.0</ele><time>2026-05-05T16:39:02.256Z</time></trkpt><trkpt lat="44.1838939" lon="12.2234198"><ele>23.0</ele><time>2026-05-05T16:39:03.256Z</time></trkpt><trkpt lat="44.1836767" lon="12.2233645"><ele>23.0</ele><time>2026-05-05T16:39:04.256Z</time></trkpt><trkpt lat="44.1834517" lon="12.2233061"><ele>23.0</ele><time>2026-05-05T16:39:05.256Z</time></trkpt><trkpt lat="44.1832252" lon="12.2232446"><ele>23.0</ele><time>2026-05-05T16:39:06.256Z</time></trkpt><trkpt lat="44.1829952" lon="12.2231784"><ele>23.0</ele><time>2026-05-05T16:39:07.255Z</time></trkpt><trkpt lat="44.1827634" lon="12.2231178"><ele>23.0</ele><time>2026-05-05T16:39:08.256Z</time></trkpt><trkpt lat="44.1825271" lon="12.223057"><ele>23.0</ele><time>2026-05-05T16:39:09.256Z</time></trkpt><trkpt lat="44.1823003" lon="12.2229888"><ele>23.0</ele><time>2026-05-05T16:39:10.255Z</time></trkpt><trkpt lat="44.1820651" lon="12.2229164"><ele>23.0</ele><time>2026-05-05T16:39:11.256Z</time></trkpt><trkpt lat="44.1818316" lon="12.222835"><ele>23.0</ele><time>2026-05-05T16:39:12.255Z</time></trkpt><trkpt lat="44.1816013" lon="12.2227536"><ele>23.0</ele><time>2026-05-05T16:39:13.255Z</time></trkpt><trkpt lat="44.1813625" lon="12.2226808"><ele>23.0</ele><time>2026-05-05T16:39:14.256Z</time></trkpt><trkpt lat="44.1811266" lon="12.2226015"><ele>23.0</ele><time>2026-05-05T16:39:15.256Z</time></trkpt><trkpt lat="44.1808855" lon="12.2225225"><ele>23.0</ele><time>2026-05-05T16:39:16.255Z</time></trkpt><trkpt lat="44.1806445" lon="12.2224327"><ele>23.0</ele><time>2026-05-05T16:39:17.256Z</time></trkpt><trkpt lat="44.1804018" lon="12.2223397"><ele>23.0</ele><time>2026-05-05T16:39:18.256Z</time></trkpt><trkpt lat="44.1801557" lon="12.2222415"><ele>23.0</ele><time>2026-05-05T16:39:19.255Z</time></trkpt><trkpt lat="44.1799038" lon="12.2221391"><ele>23.0</ele><time>2026-05-05T16:39:20.255Z</time></trkpt><trkpt lat="44.1796466" lon="12.2220344"><ele>23.0</ele><time>2026-05-05T16:39:21.255Z</time></trkpt><trkpt lat="44.1793853" lon="12.2219276"><ele>23.0</ele><time>2026-05-05T16:39:22.255Z</time></trkpt><trkpt lat="44.1791202" lon="12.2218128"><ele>24.0</ele><time>2026-05-05T16:39:23.256Z</time></trkpt><trkpt lat="44.1788519" lon="12.2216929"><ele>25.0</ele><time>2026-05-05T16:39:24.256Z</time></trkpt><trkpt lat="44.178583" lon="12.2215714"><ele>25.0</ele><time>2026-05-05T16:39:25.256Z</time></trkpt><trkpt lat="44.1783109" lon="12.2214469"><ele>25.0</ele><time>2026-05-05T16:39:26.255Z</time></trkpt><trkpt lat="44.1780425" lon="12.2213114"><ele>25.0</ele><time>2026-05-05T16:39:27.256Z</time></trkpt><trkpt lat="44.1777734" lon="12.2211717"><ele>25.0</ele><time>2026-05-05T16:39:28.255Z</time></trkpt><trkpt lat="44.177503" lon="12.2210284"><ele>26.0</ele><time>2026-05-05T16:39:29.255Z</time></trkpt><trkpt lat="44.1772333" lon="12.2208846"><ele>27.0</ele><time>2026-05-05T16:39:30.256Z</time></trkpt><trkpt lat="44.1769714" lon="12.2207447"><ele>27.0</ele><time>2026-05-05T16:39:31.256Z</time></trkpt><trkpt lat="44.1767094" lon="12.2206037"><ele>27.0</ele><time>2026-05-05T16:39:32.255Z</time></trkpt><trkpt lat="44.1764493" lon="12.2204612"><ele>27.5</ele><time>2026-05-05T16:39:33.256Z</time></trkpt><trkpt lat="44.1761939" lon="12.2203165"><ele>28.0</ele><time>2026-05-05T16:39:34.256Z</time></trkpt><trkpt lat="44.1759452" lon="12.2201722"><ele>28.0</ele><time>2026-05-05T16:39:35.256Z</time></trkpt><trkpt lat="44.1756956" lon="12.2200264"><ele>28.0</ele><time>2026-05-05T16:39:36.255Z</time></trkpt><trkpt lat="44.1754474" lon="12.2198868"><ele>26.5</ele><time>2026-05-05T16:39:37.254Z</time></trkpt><trkpt lat="44.1752066" lon="12.2197429"><ele>25.0</ele><time>2026-05-05T16:39:38.255Z</time></trkpt><trkpt lat="44.1749633" lon="12.2195988"><ele>26.5</ele><time>2026-05-05T16:39:39.255Z</time></trkpt><trkpt lat="44.1747226" lon="12.2194568"><ele>28.0</ele><time>2026-05-05T16:39:40.256Z</time></trkpt><trkpt lat="44.1744812" lon="12.2193055"><ele>28.0</ele><time>2026-05-05T16:39:41.255Z</time></trkpt><trkpt lat="44.1742407" lon="12.2191612"><ele>28.0</ele><time>2026-05-05T16:39:42.256Z</time></trkpt><trkpt lat="44.1740049" lon="12.2190176"><ele>27.5</ele><time>2026-05-05T16:39:43.255Z</time></trkpt><trkpt lat="44.1737668" lon="12.2188787"><ele>27.0</ele><time>2026-05-05T16:39:44.256Z</time></trkpt><trkpt lat="44.1735343" lon="12.2187415"><ele>27.0</ele><time>2026-05-05T16:39:45.255Z</time></trkpt><trkpt lat="44.1733069" lon="12.2186051"><ele>27.0</ele><time>2026-05-05T16:39:46.256Z</time></trkpt><trkpt lat="44.1730807" lon="12.2184687"><ele>27.5</ele><time>2026-05-05T16:39:47.256Z</time></trkpt><trkpt lat="44.1728571" lon="12.2183246"><ele>28.0</ele><time>2026-05-05T16:39:48.256Z</time></trkpt><trkpt lat="44.1726373" lon="12.2181871"><ele>27.5</ele><time>2026-05-05T16:39:49.256Z</time></trkpt><trkpt lat="44.1724124" lon="12.2180572"><ele>27.0</ele><time>2026-05-05T16:39:50.256Z</time></trkpt><trkpt lat="44.1721842" lon="12.2179247"><ele>27.0</ele><time>2026-05-05T16:39:51.255Z</time></trkpt><trkpt lat="44.171959" lon="12.2177923"><ele>27.0</ele><time>2026-05-05T16:39:52.256Z</time></trkpt><trkpt lat="44.1717341" lon="12.2176591"><ele>27.5</ele><time>2026-05-05T16:39:53.255Z</time></trkpt><trkpt lat="44.1715127" lon="12.217526"><ele>28.0</ele><time>2026-05-05T16:39:54.256Z</time></trkpt><trkpt lat="44.1712945" lon="12.2173932"><ele>27.5</ele><time>2026-05-05T16:39:55.255Z</time></trkpt><trkpt lat="44.1710742" lon="12.2172579"><ele>27.0</ele><time>2026-05-05T16:39:56.255Z</time></trkpt><trkpt lat="44.1708523" lon="12.2171232"><ele>27.5</ele><time>2026-05-05T16:39:57.255Z</time></trkpt><trkpt lat="44.1706224" lon="12.2169834"><ele>28.0</ele><time>2026-05-05T16:39:58.256Z</time></trkpt><trkpt lat="44.1703878" lon="12.2168473"><ele>28.0</ele><time>2026-05-05T16:39:59.256Z</time></trkpt><trkpt lat="44.1701597" lon="12.2167066"><ele>28.0</ele><time>2026-05-05T16:40:00.256Z</time></trkpt><trkpt lat="44.1699258" lon="12.2165655"><ele>27.5</ele><time>2026-05-05T16:40:01.256Z</time></trkpt><trkpt lat="44.1696971" lon="12.2164236"><ele>27.0</ele><time>2026-05-05T16:40:02.256Z</time></trkpt><trkpt lat="44.1694666" lon="12.2162822"><ele>27.0</ele><time>2026-05-05T16:40:03.254Z</time></trkpt><trkpt lat="44.1692442" lon="12.2161414"><ele>27.0</ele><time>2026-05-05T16:40:04.256Z</time></trkpt><trkpt lat="44.1690148" lon="12.2160008"><ele>28.0</ele><time>2026-05-05T16:40:05.255Z</time></trkpt><trkpt lat="44.1687928" lon="12.2158566"><ele>29.0</ele><time>2026-05-05T16:40:06.256Z</time></trkpt><trkpt lat="44.1685699" lon="12.215709"><ele>29.0</ele><time>2026-05-05T16:40:07.256Z</time></trkpt><trkpt lat="44.1683514" lon="12.2155606"><ele>29.0</ele><time>2026-05-05T16:40:08.256Z</time></trkpt><trkpt lat="44.168134" lon="12.215413"><ele>29.0</ele><time>2026-05-05T16:40:09.256Z</time></trkpt><trkpt lat="44.1679149" lon="12.2152631"><ele>29.0</ele><time>2026-05-05T16:40:10.256Z</time></trkpt><trkpt lat="44.1676987" lon="12.2151113"><ele>29.0</ele><time>2026-05-05T16:40:11.255Z</time></trkpt><trkpt lat="44.1674822" lon="12.2149569"><ele>29.0</ele><time>2026-05-05T16:40:12.255Z</time></trkpt><trkpt lat="44.1672676" lon="12.2148091"><ele>29.0</ele><time>2026-05-05T16:40:13.255Z</time></trkpt><trkpt lat="44.1670554" lon="12.2146529"><ele>29.0</ele><time>2026-05-05T16:40:14.255Z</time></trkpt><trkpt lat="44.1668444" lon="12.2145006"><ele>29.0</ele><time>2026-05-05T16:40:15.256Z</time></trkpt><trkpt lat="44.1666342" lon="12.2143475"><ele>29.0</ele><time>2026-05-05T16:40:16.256Z</time></trkpt><trkpt lat="44.1664302" lon="12.2141923"><ele>28.5</ele><time>2026-05-05T16:40:17.255Z</time></trkpt><trkpt lat="44.1662219" lon="12.2140384"><ele>28.0</ele><time>2026-05-05T16:40:18.255Z</time></trkpt><trkpt lat="44.1660218" lon="12.2138858"><ele>29.0</ele><time>2026-05-05T16:40:19.255Z</time></trkpt><trkpt lat="44.1658195" lon="12.2137275"><ele>30.0</ele><time>2026-05-05T16:40:20.255Z</time></trkpt><trkpt lat="44.1656156" lon="12.2135723"><ele>30.0</ele><time>2026-05-05T16:40:21.256Z</time></trkpt><trkpt lat="44.1654194" lon="12.213409"><ele>30.0</ele><time>2026-05-05T16:40:22.256Z</time></trkpt><trkpt lat="44.1652226" lon="12.2132464"><ele>30.0</ele><time>2026-05-05T16:40:23.255Z</time></trkpt><trkpt lat="44.1650264" lon="12.2130836"><ele>30.0</ele><time>2026-05-05T16:40:24.255Z</time></trkpt><trkpt lat="44.1648327" lon="12.2129181"><ele>30.333333333333336</ele><time>2026-05-05T16:40:25.256Z</time></trkpt><trkpt lat="44.1646447" lon="12.2127576"><ele>30.666666666666668</ele><time>2026-05-05T16:40:26.256Z</time></trkpt><trkpt lat="44.1644529" lon="12.2125958"><ele>31.0</ele><time>2026-05-05T16:40:27.255Z</time></trkpt><trkpt lat="44.1642567" lon="12.2124348"><ele>31.0</ele><time>2026-05-05T16:40:28.255Z</time></trkpt><trkpt lat="44.1640652" lon="12.2122745"><ele>31.0</ele><time>2026-05-05T16:40:29.255Z</time></trkpt><trkpt lat="44.1638717" lon="12.2121137"><ele>31.0</ele><time>2026-05-05T16:40:30.255Z</time></trkpt><trkpt lat="44.163683" lon="12.2119522"><ele>31.0</ele><time>2026-05-05T16:40:31.256Z</time></trkpt><trkpt lat="44.1634975" lon="12.2117906"><ele>31.0</ele><time>2026-05-05T16:40:32.256Z</time></trkpt><trkpt lat="44.1633156" lon="12.2116278"><ele>31.0</ele><time>2026-05-05T16:40:33.255Z</time></trkpt><trkpt lat="44.1631372" lon="12.2114659"><ele>31.0</ele><time>2026-05-05T16:40:34.256Z</time></trkpt><trkpt lat="44.1629567" lon="12.2113072"><ele>31.0</ele><time>2026-05-05T16:40:35.255Z</time></trkpt><trkpt lat="44.1627773" lon="12.2111554"><ele>31.0</ele><time>2026-05-05T16:40:36.255Z</time></trkpt><trkpt lat="44.1625981" lon="12.2109977"><ele>31.0</ele><time>2026-05-05T16:40:37.256Z</time></trkpt><trkpt lat="44.162422" lon="12.2108373"><ele>31.0</ele><time>2026-05-05T16:40:38.254Z</time></trkpt><trkpt lat="44.1622442" lon="12.2106738"><ele>31.0</ele><time>2026-05-05T16:40:39.254Z</time></trkpt><trkpt lat="44.1620656" lon="12.2105098"><ele>31.333333333333336</ele><time>2026-05-05T16:40:40.255Z</time></trkpt><trkpt lat="44.161883" lon="12.2103417"><ele>31.666666666666664</ele><time>2026-05-05T16:40:41.256Z</time></trkpt><trkpt lat="44.1617016" lon="12.2101663"><ele>32.0</ele><time>2026-05-05T16:40:42.256Z</time></trkpt><trkpt lat="44.1615177" lon="12.2099929"><ele>32.0</ele><time>2026-05-05T16:40:43.255Z</time></trkpt><trkpt lat="44.1613358" lon="12.2098131"><ele>32.0</ele><time>2026-05-05T16:40:44.256Z</time></trkpt><trkpt lat="44.1611483" lon="12.2096316"><ele>32.0</ele><time>2026-05-05T16:40:45.256Z</time></trkpt><trkpt lat="44.1609573" lon="12.2094492"><ele>32.0</ele><time>2026-05-05T16:40:46.256Z</time></trkpt><trkpt lat="44.1607686" lon="12.2092662"><ele>32.0</ele><time>2026-05-05T16:40:47.255Z</time></trkpt><trkpt lat="44.1605798" lon="12.2090796"><ele>32.0</ele><time>2026-05-05T16:40:48.256Z</time></trkpt><trkpt lat="44.1603875" lon="12.2088945"><ele>32.0</ele><time>2026-05-05T16:40:49.256Z</time></trkpt><trkpt lat="44.1601924" lon="12.2087081"><ele>32.0</ele><time>2026-05-05T16:40:50.255Z</time></trkpt><trkpt lat="44.159995" lon="12.2085177"><ele>32.5</ele><time>2026-05-05T16:40:51.255Z</time></trkpt><trkpt lat="44.1598048" lon="12.2083276"><ele>33.0</ele><time>2026-05-05T16:40:52.255Z</time></trkpt><trkpt lat="44.1596098" lon="12.2081359"><ele>33.0</ele><time>2026-05-05T16:40:53.256Z</time></trkpt><trkpt lat="44.1594165" lon="12.2079477"><ele>33.0</ele><time>2026-05-05T16:40:54.254Z</time></trkpt><trkpt lat="44.1592202" lon="12.2077588"><ele>33.0</ele><time>2026-05-05T16:40:55.256Z</time></trkpt><trkpt lat="44.159026" lon="12.2075705"><ele>33.0</ele><time>2026-05-05T16:40:56.256Z</time></trkpt><trkpt lat="44.1588296" lon="12.2073826"><ele>33.0</ele><time>2026-05-05T16:40:57.256Z</time></trkpt><trkpt lat="44.1586313" lon="12.2071958"><ele>33.0</ele><time>2026-05-05T16:40:58.256Z</time></trkpt><trkpt lat="44.1584379" lon="12.2070108"><ele>33.0</ele><time>2026-05-05T16:40:59.256Z</time></trkpt><trkpt lat="44.1582436" lon="12.2068276"><ele>33.0</ele><time>2026-05-05T16:41:00.256Z</time></trkpt><trkpt lat="44.1580492" lon="12.206638"><ele>33.5</ele><time>2026-05-05T16:41:01.255Z</time></trkpt><trkpt lat="44.1578539" lon="12.2064613"><ele>34.0</ele><time>2026-05-05T16:41:02.255Z</time></trkpt><trkpt lat="44.157658" lon="12.2062869"><ele>34.0</ele><time>2026-05-05T16:41:03.256Z</time></trkpt><trkpt lat="44.1574605" lon="12.2061212"><ele>34.0</ele><time>2026-05-05T16:41:04.256Z</time></trkpt><trkpt lat="44.1572657" lon="12.2059635"><ele>34.0</ele><time>2026-05-05T16:41:05.256Z</time></trkpt><trkpt lat="44.1570647" lon="12.2058066"><ele>34.0</ele><time>2026-05-05T16:41:06.255Z</time></trkpt><trkpt lat="44.1568627" lon="12.2056605"><ele>34.0</ele><time>2026-05-05T16:41:07.255Z</time></trkpt><trkpt lat="44.1566633" lon="12.2055148"><ele>34.0</ele><time>2026-05-05T16:41:08.254Z</time></trkpt><trkpt lat="44.1564653" lon="12.2053707"><ele>34.0</ele><time>2026-05-05T16:41:09.256Z</time></trkpt><trkpt lat="44.1562678" lon="12.2052331"><ele>34.0</ele><time>2026-05-05T16:41:10.256Z</time></trkpt><trkpt lat="44.1560733" lon="12.2050967"><ele>34.0</ele><time>2026-05-05T16:41:11.255Z</time></trkpt><trkpt lat="44.155891" lon="12.2049666"><ele>34.0</ele><time>2026-05-05T16:41:12.256Z</time></trkpt><trkpt lat="44.1557204" lon="12.2048485"><ele>34.0</ele><time>2026-05-05T16:41:13.256Z</time></trkpt><trkpt lat="44.1555561" lon="12.2047405"><ele>34.0</ele><time>2026-05-05T16:41:14.256Z</time></trkpt><trkpt lat="44.1554007" lon="12.2046413"><ele>34.0</ele><time>2026-05-05T16:41:15.256Z</time></trkpt><trkpt lat="44.1552556" lon="12.2045315"><ele>34.0</ele><time>2026-05-05T16:41:16.255Z</time></trkpt><trkpt lat="44.1551171" lon="12.2044241"><ele>34.0</ele><time>2026-05-05T16:41:17.256Z</time></trkpt><trkpt lat="44.1549834" lon="12.2043081"><ele>34.0</ele><time>2026-05-05T16:41:18.256Z</time></trkpt><trkpt lat="44.1548574" lon="12.2041721"><ele>34.333333333333336</ele><time>2026-05-05T16:41:19.255Z</time></trkpt><trkpt lat="44.1547359" lon="12.2040207"><ele>34.666666666666664</ele><time>2026-05-05T16:41:20.256Z</time></trkpt><trkpt lat="44.1546245" lon="12.2038516"><ele>35.0</ele><time>2026-05-05T16:41:21.256Z</time></trkpt><trkpt lat="44.1545189" lon="12.2036643"><ele>35.0</ele><time>2026-05-05T16:41:22.255Z</time></trkpt><trkpt lat="44.1544304" lon="12.2034777"><ele>35.0</ele><time>2026-05-05T16:41:23.256Z</time></trkpt><trkpt lat="44.1543502" lon="12.2033035"><ele>35.0</ele><time>2026-05-05T16:41:24.255Z</time></trkpt><trkpt lat="44.1542794" lon="12.2031441"><ele>35.0</ele><time>2026-05-05T16:41:25.255Z</time></trkpt><trkpt lat="44.1541988" lon="12.2030086"><ele>34.75</ele><time>2026-05-05T16:41:26.254Z</time></trkpt><trkpt lat="44.1541012" lon="12.2028925"><ele>34.5</ele><time>2026-05-05T16:41:27.256Z</time></trkpt><trkpt lat="44.153986" lon="12.2028027"><ele>34.25</ele><time>2026-05-05T16:41:28.256Z</time></trkpt><trkpt lat="44.153863" lon="12.2027501"><ele>34.0</ele><time>2026-05-05T16:41:29.255Z</time></trkpt><trkpt lat="44.1537397" lon="12.2027306"><ele>34.0</ele><time>2026-05-05T16:41:30.255Z</time></trkpt><trkpt lat="44.1536145" lon="12.2027559"><ele>34.0</ele><time>2026-05-05T16:41:31.256Z</time></trkpt><trkpt lat="44.1534992" lon="12.2028245"><ele>34.0</ele><time>2026-05-05T16:41:32.255Z</time></trkpt><trkpt lat="44.1533946" lon="12.2029249"><ele>34.0</ele><time>2026-05-05T16:41:33.255Z</time></trkpt><trkpt lat="44.1533072" lon="12.203054"><ele>34.25</ele><time>2026-05-05T16:41:34.255Z</time></trkpt><trkpt lat="44.1532408" lon="12.2032258"><ele>34.5</ele><time>2026-05-05T16:41:35.256Z</time></trkpt><trkpt lat="44.1531893" lon="12.2034209"><ele>34.75</ele><time>2026-05-05T16:41:36.256Z</time></trkpt><trkpt lat="44.1531427" lon="12.2036271"><ele>35.0</ele><time>2026-05-05T16:41:37.255Z</time></trkpt><trkpt lat="44.1530997" lon="12.2038349"><ele>35.666666666666664</ele><time>2026-05-05T16:41:38.255Z</time></trkpt><trkpt lat="44.1530526" lon="12.2040591"><ele>36.333333333333336</ele><time>2026-05-05T16:41:39.255Z</time></trkpt><trkpt lat="44.1530093" lon="12.2042746"><ele>37.0</ele><time>2026-05-05T16:41:40.256Z</time></trkpt><trkpt lat="44.1529636" lon="12.2044847"><ele>37.0</ele><time>2026-05-05T16:41:41.256Z</time></trkpt><trkpt lat="44.152921" lon="12.2046769"><ele>37.0</ele><time>2026-05-05T16:41:42.255Z</time></trkpt><trkpt lat="44.1528777" lon="12.2048567"><ele>37.0</ele><time>2026-05-05T16:41:43.255Z</time></trkpt><trkpt lat="44.1528261" lon="12.2050155"><ele>37.0</ele><time>2026-05-05T16:41:44.255Z</time></trkpt><trkpt lat="44.1527589" lon="12.2051629"><ele>36.75</ele><time>2026-05-05T16:41:45.255Z</time></trkpt><trkpt lat="44.1526692" lon="12.2052826"><ele>36.5</ele><time>2026-05-05T16:41:46.255Z</time></trkpt><trkpt lat="44.1525586" lon="12.2053727"><ele>36.25</ele><time>2026-05-05T16:41:47.256Z</time></trkpt><trkpt lat="44.152441" lon="12.2054229"><ele>36.0</ele><time>2026-05-05T16:41:48.256Z</time></trkpt><trkpt lat="44.1523161" lon="12.2054315"><ele>36.0</ele><time>2026-05-05T16:41:49.255Z</time></trkpt><trkpt lat="44.1521879" lon="12.2054009"><ele>36.0</ele><time>2026-05-05T16:41:50.256Z</time></trkpt><trkpt lat="44.1520463" lon="12.2053343"><ele>36.0</ele><time>2026-05-05T16:41:51.256Z</time></trkpt><trkpt lat="44.1519075" lon="12.2052635"><ele>36.0</ele><time>2026-05-05T16:41:52.255Z</time></trkpt><trkpt lat="44.151775" lon="12.205185"><ele>36.0</ele><time>2026-05-05T16:41:53.255Z</time></trkpt><trkpt lat="44.1516536" lon="12.2051157"><ele>36.0</ele><time>2026-05-05T16:41:54.256Z</time></trkpt><trkpt lat="44.1515456" lon="12.2050457"><ele>36.0</ele><time>2026-05-05T16:41:55.255Z</time></trkpt><trkpt lat="44.1514555" lon="12.2049894"><ele>36.0</ele><time>2026-05-05T16:41:56.255Z</time></trkpt><trkpt lat="44.1513919" lon="12.2049201"><ele>36.0</ele><time>2026-05-05T16:41:57.255Z</time></trkpt><trkpt lat="44.1513441" lon="12.2048291"><ele>36.333333333333336</ele><time>2026-05-05T16:41:58.256Z</time></trkpt><trkpt lat="44.151317" lon="12.2047115"><ele>36.666666666666664</ele><time>2026-05-05T16:41:59.255Z</time></trkpt><trkpt lat="44.1513046" lon="12.2045801"><ele>37.0</ele><time>2026-05-05T16:42:00.254Z</time></trkpt><trkpt lat="44.1512881" lon="12.2044579"><ele>37.33333333333333</ele><time>2026-05-05T16:42:01.256Z</time></trkpt><trkpt lat="44.1512512" lon="12.2043554"><ele>37.666666666666664</ele><time>2026-05-05T16:42:02.256Z</time></trkpt><trkpt lat="44.1512016" lon="12.2042683"><ele>38.0</ele><time>2026-05-05T16:42:03.255Z</time></trkpt><trkpt lat="44.1511215" lon="12.2042196"><ele>38.0</ele><time>2026-05-05T16:42:04.255Z</time></trkpt><trkpt lat="44.1510452" lon="12.2042125"><ele>38.0</ele><time>2026-05-05T16:42:05.256Z</time></trkpt><trkpt lat="44.1509604" lon="12.2042355"><ele>38.0</ele><time>2026-05-05T16:42:06.254Z</time></trkpt><trkpt lat="44.1508848" lon="12.2043"><ele>38.0</ele><time>2026-05-05T16:42:07.255Z</time></trkpt><trkpt lat="44.1508256" lon="12.2043984"><ele>38.0</ele><time>2026-05-05T16:42:08.256Z</time></trkpt><trkpt lat="44.1507862" lon="12.204518"><ele>38.0</ele><time>2026-05-05T16:42:09.256Z</time></trkpt><trkpt lat="44.150761" lon="12.2046555"><ele>38.0</ele><time>2026-05-05T16:42:10.256Z</time></trkpt><trkpt lat="44.1507206" lon="12.2047999"><ele>38.0</ele><time>2026-05-05T16:42:11.256Z</time></trkpt><trkpt lat="44.1506511" lon="12.2049567"><ele>38.0</ele><time>2026-05-05T16:42:12.256Z</time></trkpt><trkpt lat="44.1505663" lon="12.2051069"><ele>38.0</ele><time>2026-05-05T16:42:13.256Z</time></trkpt><trkpt lat="44.1504689" lon="12.2052613"><ele>38.0</ele><time>2026-05-05T16:42:14.256Z</time></trkpt><trkpt lat="44.1503661" lon="12.2054274"><ele>38.0</ele><time>2026-05-05T16:42:15.256Z</time></trkpt><trkpt lat="44.1502615" lon="12.2055937"><ele>38.0</ele><time>2026-05-05T16:42:16.256Z</time></trkpt><trkpt lat="44.1501609" lon="12.2057646"><ele>38.33333333333333</ele><time>2026-05-05T16:42:17.256Z</time></trkpt><trkpt lat="44.1500609" lon="12.2059323"><ele>38.666666666666664</ele><time>2026-05-05T16:42:18.254Z</time></trkpt><trkpt lat="44.1499637" lon="12.2060964"><ele>39.0</ele><time>2026-05-05T16:42:19.256Z</time></trkpt><trkpt lat="44.1498669" lon="12.2062512"><ele>39.0</ele><time>2026-05-05T16:42:20.255Z</time></trkpt><trkpt lat="44.1497738" lon="12.2064081"><ele>39.0</ele><time>2026-05-05T16:42:21.256Z</time></trkpt><trkpt lat="44.1496793" lon="12.2065611"><ele>39.0</ele><time>2026-05-05T16:42:22.256Z</time></trkpt><trkpt lat="44.1495843" lon="12.2067184"><ele>39.0</ele><time>2026-05-05T16:42:23.256Z</time></trkpt><trkpt lat="44.1494869" lon="12.2068786"><ele>39.0</ele><time>2026-05-05T16:42:24.256Z</time></trkpt><trkpt lat="44.1493948" lon="12.2070331"><ele>39.0</ele><time>2026-05-05T16:42:25.256Z</time></trkpt><trkpt lat="44.1493004" lon="12.2071858"><ele>39.0</ele><time>2026-05-05T16:42:26.256Z</time></trkpt><trkpt lat="44.149208" lon="12.2073318"><ele>39.0</ele><time>2026-05-05T16:42:27.256Z</time></trkpt><trkpt lat="44.1491187" lon="12.2074829"><ele>39.0</ele><time>2026-05-05T16:42:28.256Z</time></trkpt><trkpt lat="44.1490308" lon="12.2076293"><ele>39.0</ele><time>2026-05-05T16:42:29.256Z</time></trkpt><trkpt lat="44.1489461" lon="12.2077744"><ele>39.0</ele><time>2026-05-05T16:42:30.256Z</time></trkpt><trkpt lat="44.1488645" lon="12.2079113"><ele>39.0</ele><time>2026-05-05T16:42:31.256Z</time></trkpt><trkpt lat="44.1487811" lon="12.208052"><ele>39.25</ele><time>2026-05-05T16:42:32.255Z</time></trkpt><trkpt lat="44.1486972" lon="12.2081951"><ele>39.5</ele><time>2026-05-05T16:42:33.255Z</time></trkpt><trkpt lat="44.1486153" lon="12.2083395"><ele>39.75</ele><time>2026-05-05T16:42:34.256Z</time></trkpt><trkpt lat="44.1485294" lon="12.2084881"><ele>40.0</ele><time>2026-05-05T16:42:35.255Z</time></trkpt><trkpt lat="44.1484347" lon="12.2086543"><ele>40.0</ele><time>2026-05-05T16:42:36.255Z</time></trkpt><trkpt lat="44.1483313" lon="12.2088313"><ele>40.0</ele><time>2026-05-05T16:42:37.255Z</time></trkpt><trkpt lat="44.1482176" lon="12.2090179"><ele>40.0</ele><time>2026-05-05T16:42:38.256Z</time></trkpt><trkpt lat="44.1481034" lon="12.2092095"><ele>40.333333333333336</ele><time>2026-05-05T16:42:39.255Z</time></trkpt><trkpt lat="44.1479959" lon="12.2093925"><ele>40.666666666666664</ele><time>2026-05-05T16:42:40.255Z</time></trkpt><trkpt lat="44.1478828" lon="12.2095819"><ele>41.0</ele><time>2026-05-05T16:42:41.256Z</time></trkpt><trkpt lat="44.1477694" lon="12.2097741"><ele>40.33333333333333</ele><time>2026-05-05T16:42:42.256Z</time></trkpt><trkpt lat="44.1476594" lon="12.2099615"><ele>39.666666666666664</ele><time>2026-05-05T16:42:43.256Z</time></trkpt><trkpt lat="44.1475539" lon="12.2101355"><ele>39.0</ele><time>2026-05-05T16:42:44.255Z</time></trkpt><trkpt lat="44.147456" lon="12.2103026"><ele>39.0</ele><time>2026-05-05T16:42:45.256Z</time></trkpt><trkpt lat="44.147366" lon="12.2104573"><ele>39.0</ele><time>2026-05-05T16:42:46.255Z</time></trkpt><trkpt lat="44.1472834" lon="12.2105958"><ele>39.0</ele><time>2026-05-05T16:42:47.255Z</time></trkpt><trkpt lat="44.1472114" lon="12.2107193"><ele>39.0</ele><time>2026-05-05T16:42:48.256Z</time></trkpt><trkpt lat="44.1471536" lon="12.2108202"><ele>39.0</ele><time>2026-05-05T16:42:49.256Z</time></trkpt><trkpt lat="44.1471051" lon="12.2109126"><ele>39.0</ele><time>2026-05-05T16:42:50.256Z</time></trkpt><trkpt lat="44.147037" lon="12.2110112"><ele>39.0</ele><time>2026-05-05T16:42:51.256Z</time></trkpt><trkpt lat="44.14695" lon="12.2111436"><ele>39.0</ele><time>2026-05-05T16:42:52.256Z</time></trkpt><trkpt lat="44.146865" lon="12.2112854"><ele>39.0</ele><time>2026-05-05T16:42:53.255Z</time></trkpt><trkpt lat="44.1467753" lon="12.2114381"><ele>39.25</ele><time>2026-05-05T16:42:54.254Z</time></trkpt><trkpt lat="44.1466852" lon="12.2115862"><ele>39.5</ele><time>2026-05-05T16:42:55.256Z</time></trkpt><trkpt lat="44.1465959" lon="12.2117438"><ele>39.75</ele><time>2026-05-05T16:42:56.255Z</time></trkpt><trkpt lat="44.1465157" lon="12.2119096"><ele>40.0</ele><time>2026-05-05T16:42:57.255Z</time></trkpt><trkpt lat="44.1464516" lon="12.2120906"><ele>40.0</ele><time>2026-05-05T16:42:58.254Z</time></trkpt><trkpt lat="44.1464071" lon="12.2122802"><ele>40.0</ele><time>2026-05-05T16:42:59.255Z</time></trkpt><trkpt lat="44.1463713" lon="12.2124728"><ele>40.0</ele><time>2026-05-05T16:43:00.254Z</time></trkpt><trkpt lat="44.1463553" lon="12.2126813"><ele>40.0</ele><time>2026-05-05T16:43:01.256Z</time></trkpt><trkpt lat="44.1463363" lon="12.2128939"><ele>40.0</ele><time>2026-05-05T16:43:02.256Z</time></trkpt><trkpt lat="44.1463187" lon="12.21311"><ele>40.0</ele><time>2026-05-05T16:43:03.256Z</time></trkpt><trkpt lat="44.1462991" lon="12.213328"><ele>40.0</ele><time>2026-05-05T16:43:04.254Z</time></trkpt><trkpt lat="44.1462824" lon="12.2135485"><ele>40.0</ele><time>2026-05-05T16:43:05.255Z</time></trkpt><trkpt lat="44.1462605" lon="12.2137633"><ele>40.0</ele><time>2026-05-05T16:43:06.256Z</time></trkpt><trkpt lat="44.1462419" lon="12.213985"><ele>40.0</ele><time>2026-05-05T16:43:07.254Z</time></trkpt><trkpt lat="44.1462232" lon="12.2142038"><ele>39.66666666666667</ele><time>2026-05-05T16:43:08.255Z</time></trkpt><trkpt lat="44.1461983" lon="12.2144254"><ele>39.333333333333336</ele><time>2026-05-05T16:43:09.256Z</time></trkpt><trkpt lat="44.1461647" lon="12.2146319"><ele>39.0</ele><time>2026-05-05T16:43:10.255Z</time></trkpt><trkpt lat="44.1461214" lon="12.2148142"><ele>38.8</ele><time>2026-05-05T16:43:11.256Z</time></trkpt><trkpt lat="44.1460762" lon="12.214968"><ele>38.599999999999994</ele><time>2026-05-05T16:43:12.255Z</time></trkpt><trkpt lat="44.1460316" lon="12.2151072"><ele>38.4</ele><time>2026-05-05T16:43:13.255Z</time></trkpt><trkpt lat="44.1459963" lon="12.2152244"><ele>38.199999999999996</ele><time>2026-05-05T16:43:14.255Z</time></trkpt><trkpt lat="44.1459698" lon="12.215315"><ele>38.0</ele><time>2026-05-05T16:43:15.254Z</time></trkpt><trkpt lat="44.1459246" lon="12.2154449"><ele>38.0</ele><time>2026-05-05T16:43:17.255Z</time></trkpt><trkpt lat="44.1458985" lon="12.2155328"><ele>38.0</ele><time>2026-05-05T16:43:19.255Z</time></trkpt><trkpt lat="44.1458762" lon="12.2156183"><ele>38.0</ele><time>2026-05-05T16:43:26.256Z</time></trkpt><trkpt lat="44.1458261" lon="12.2157277"><ele>38.0</ele><time>2026-05-05T16:43:34.256Z</time></trkpt><trkpt lat="44.1457964" lon="12.2158544"><ele>38.0</ele><time>2026-05-05T16:43:36.255Z</time></trkpt><trkpt lat="44.1457557" lon="12.2159832"><ele>38.0</ele><time>2026-05-05T16:43:38.256Z</time></trkpt><trkpt lat="44.1457345" lon="12.2160842"><ele>37.83333333333333</ele><time>2026-05-05T16:43:40.255Z</time></trkpt><trkpt lat="44.1456993" lon="12.216228"><ele>37.666666666666664</ele><time>2026-05-05T16:43:42.256Z</time></trkpt><trkpt lat="44.1456697" lon="12.2163106"><ele>37.5</ele><time>2026-05-05T16:43:43.256Z</time></trkpt><trkpt lat="44.145642" lon="12.2163941"><ele>37.333333333333336</ele><time>2026-05-05T16:43:44.255Z</time></trkpt><trkpt lat="44.1455985" lon="12.2165114"><ele>37.16666666666667</ele><time>2026-05-05T16:43:46.255Z</time></trkpt><trkpt lat="44.1455703" lon="12.2165918"><ele>37.0</ele><time>2026-05-05T16:43:48.256Z</time></trkpt><trkpt lat="44.1455425" lon="12.2166963"><ele>36.833333333333336</ele><time>2026-05-05T16:43:51.256Z</time></trkpt><trkpt lat="44.1455121" lon="12.216782"><ele>36.66666666666667</ele><time>2026-05-05T16:43:54.255Z</time></trkpt><trkpt lat="44.1454817" lon="12.2168819"><ele>36.5</ele><time>2026-05-05T16:43:57.256Z</time></trkpt><trkpt lat="44.1454474" lon="12.2169895"><ele>36.333333333333336</ele><time>2026-05-05T16:44:01.256Z</time></trkpt><trkpt lat="44.145425" lon="12.2171331"><ele>36.166666666666664</ele><time>2026-05-05T16:44:04.255Z</time></trkpt><trkpt lat="44.145401" lon="12.2172238"><ele>36.0</ele><time>2026-05-05T16:44:05.256Z</time></trkpt><trkpt lat="44.1453851" lon="12.2173171"><ele>35.8</ele><time>2026-05-05T16:44:06.256Z</time></trkpt><trkpt lat="44.1453705" lon="12.2174406"><ele>35.6</ele><time>2026-05-05T16:44:07.256Z</time></trkpt><trkpt lat="44.1453585" lon="12.2176051"><ele>35.4</ele><time>2026-05-05T16:44:08.255Z</time></trkpt><trkpt lat="44.1453429" lon="12.2177691"><ele>35.2</ele><time>2026-05-05T16:44:09.256Z</time></trkpt><trkpt lat="44.1453244" lon="12.2179232"><ele>35.0</ele><time>2026-05-05T16:44:10.255Z</time></trkpt><trkpt lat="44.1453112" lon="12.2180606"><ele>35.0</ele><time>2026-05-05T16:44:11.255Z</time></trkpt><trkpt lat="44.1452997" lon="12.2181923"><ele>35.0</ele><time>2026-05-05T16:44:12.255Z</time></trkpt><trkpt lat="44.1452866" lon="12.2183242"><ele>35.0</ele><time>2026-05-05T16:44:13.254Z</time></trkpt><trkpt lat="44.1452678" lon="12.218444"><ele>35.0</ele><time>2026-05-05T16:44:14.256Z</time></trkpt><trkpt lat="44.1452478" lon="12.2185368"><ele>35.0</ele><time>2026-05-05T16:44:15.256Z</time></trkpt><trkpt lat="44.1452038" lon="12.2186842"><ele>35.0</ele><time>2026-05-05T16:44:17.254Z</time></trkpt><trkpt lat="44.1451196" lon="12.2188115"><ele>35.0</ele><time>2026-05-05T16:44:19.255Z</time></trkpt><trkpt lat="44.1450764" lon="12.2188868"><ele>35.0</ele><time>2026-05-05T16:44:20.256Z</time></trkpt><trkpt lat="44.1450443" lon="12.2189758"><ele>35.0</ele><time>2026-05-05T16:44:21.256Z</time></trkpt><trkpt lat="44.1450316" lon="12.2190757"><ele>35.0</ele><time>2026-05-05T16:44:22.256Z</time></trkpt><trkpt lat="44.145037" lon="12.2191788"><ele>35.0</ele><time>2026-05-05T16:44:23.254Z</time></trkpt><trkpt lat="44.1450613" lon="12.2192886"><ele>35.0</ele><time>2026-05-05T16:44:24.256Z</time></trkpt><trkpt lat="44.1450968" lon="12.2194044"><ele>35.0</ele><time>2026-05-05T16:44:25.255Z</time></trkpt><trkpt lat="44.1451182" lon="12.2195358"><ele>35.0</ele><time>2026-05-05T16:44:26.255Z</time></trkpt><trkpt lat="44.1451212" lon="12.2196792"><ele>35.0</ele><time>2026-05-05T16:44:27.255Z</time></trkpt><trkpt lat="44.1451081" lon="12.2198481"><ele>35.0</ele><time>2026-05-05T16:44:28.255Z</time></trkpt><trkpt lat="44.1450888" lon="12.2200134"><ele>35.0</ele><time>2026-05-05T16:44:29.256Z</time></trkpt><trkpt lat="44.1450611" lon="12.2201794"><ele>35.0</ele><time>2026-05-05T16:44:30.255Z</time></trkpt><trkpt lat="44.1450331" lon="12.2203402"><ele>35.0</ele><time>2026-05-05T16:44:31.256Z</time></trkpt><trkpt lat="44.1450077" lon="12.2205008"><ele>35.0</ele><time>2026-05-05T16:44:32.256Z</time></trkpt><trkpt lat="44.1449795" lon="12.2206638"><ele>35.25</ele><time>2026-05-05T16:44:33.256Z</time></trkpt><trkpt lat="44.1449464" lon="12.2208234"><ele>35.5</ele><time>2026-05-05T16:44:34.256Z</time></trkpt><trkpt lat="44.1449091" lon="12.2209776"><ele>35.75</ele><time>2026-05-05T16:44:35.256Z</time></trkpt><trkpt lat="44.1448727" lon="12.2211271"><ele>36.0</ele><time>2026-05-05T16:44:36.256Z</time></trkpt><trkpt lat="44.1448307" lon="12.2212705"><ele>36.0</ele><time>2026-05-05T16:44:37.256Z</time></trkpt><trkpt lat="44.144788" lon="12.2214053"><ele>36.0</ele><time>2026-05-05T16:44:38.254Z</time></trkpt><trkpt lat="44.1447394" lon="12.2215435"><ele>36.0</ele><time>2026-05-05T16:44:39.256Z</time></trkpt><trkpt lat="44.1446842" lon="12.2216624"><ele>36.0</ele><time>2026-05-05T16:44:40.255Z</time></trkpt><trkpt lat="44.1446229" lon="12.2217954"><ele>36.0</ele><time>2026-05-05T16:44:41.255Z</time></trkpt><trkpt lat="44.1445558" lon="12.2219274"><ele>35.75</ele><time>2026-05-05T16:44:42.255Z</time></trkpt><trkpt lat="44.144488" lon="12.2220488"><ele>35.5</ele><time>2026-05-05T16:44:43.256Z</time></trkpt><trkpt lat="44.1444179" lon="12.2221692"><ele>35.25</ele><time>2026-05-05T16:44:44.256Z</time></trkpt><trkpt lat="44.1443452" lon="12.2222905"><ele>35.0</ele><time>2026-05-05T16:44:45.256Z</time></trkpt><trkpt lat="44.1442725" lon="12.2224242"><ele>35.0</ele><time>2026-05-05T16:44:46.256Z</time></trkpt><trkpt lat="44.1442015" lon="12.2225651"><ele>35.0</ele><time>2026-05-05T16:44:47.256Z</time></trkpt><trkpt lat="44.1441325" lon="12.2227002"><ele>35.0</ele><time>2026-05-05T16:44:48.256Z</time></trkpt><trkpt lat="44.1440595" lon="12.2228245"><ele>35.0</ele><time>2026-05-05T16:44:49.255Z</time></trkpt><trkpt lat="44.1439888" lon="12.2229543"><ele>35.0</ele><time>2026-05-05T16:44:50.256Z</time></trkpt><trkpt lat="44.1439185" lon="12.2230782"><ele>35.0</ele><time>2026-05-05T16:44:51.255Z</time></trkpt><trkpt lat="44.1438506" lon="12.2232066"><ele>35.0</ele><time>2026-05-05T16:44:52.255Z</time></trkpt><trkpt lat="44.1437808" lon="12.2233358"><ele>35.0</ele><time>2026-05-05T16:44:53.255Z</time></trkpt><trkpt lat="44.1437159" lon="12.2234567"><ele>34.8</ele><time>2026-05-05T16:44:54.256Z</time></trkpt><trkpt lat="44.1436487" lon="12.2235829"><ele>34.6</ele><time>2026-05-05T16:44:55.255Z</time></trkpt><trkpt lat="44.1435842" lon="12.2237034"><ele>34.4</ele><time>2026-05-05T16:44:56.256Z</time></trkpt><trkpt lat="44.1435228" lon="12.2238114"><ele>34.2</ele><time>2026-05-05T16:44:57.256Z</time></trkpt><trkpt lat="44.1434619" lon="12.2239122"><ele>34.0</ele><time>2026-05-05T16:44:58.255Z</time></trkpt><trkpt lat="44.1434085" lon="12.2240107"><ele>34.0</ele><time>2026-05-05T16:44:59.256Z</time></trkpt><trkpt lat="44.1433502" lon="12.224115"><ele>34.0</ele><time>2026-05-05T16:45:00.255Z</time></trkpt><trkpt lat="44.1432842" lon="12.224226"><ele>34.0</ele><time>2026-05-05T16:45:01.256Z</time></trkpt><trkpt lat="44.1432103" lon="12.2243451"><ele>34.0</ele><time>2026-05-05T16:45:02.256Z</time></trkpt><trkpt lat="44.143129" lon="12.2244561"><ele>34.0</ele><time>2026-05-05T16:45:03.256Z</time></trkpt><trkpt lat="44.1430394" lon="12.2245681"><ele>34.25</ele><time>2026-05-05T16:45:04.255Z</time></trkpt><trkpt lat="44.142942" lon="12.2246898"><ele>34.5</ele><time>2026-05-05T16:45:05.255Z</time></trkpt><trkpt lat="44.142843" lon="12.2247992"><ele>34.75</ele><time>2026-05-05T16:45:06.255Z</time></trkpt><trkpt lat="44.1427359" lon="12.224914"><ele>35.0</ele><time>2026-05-05T16:45:07.256Z</time></trkpt><trkpt lat="44.1426286" lon="12.2250352"><ele>35.0</ele><time>2026-05-05T16:45:08.256Z</time></trkpt><trkpt lat="44.1425219" lon="12.2251531"><ele>35.0</ele><time>2026-05-05T16:45:09.255Z</time></trkpt><trkpt lat="44.1424192" lon="12.2252791"><ele>35.0</ele><time>2026-05-05T16:45:10.256Z</time></trkpt><trkpt lat="44.1423106" lon="12.225403"><ele>35.0</ele><time>2026-05-05T16:45:11.256Z</time></trkpt><trkpt lat="44.1422045" lon="12.2255238"><ele>35.0</ele><time>2026-05-05T16:45:12.256Z</time></trkpt><trkpt lat="44.1421061" lon="12.2256444"><ele>35.0</ele><time>2026-05-05T16:45:13.256Z</time></trkpt><trkpt lat="44.1420122" lon="12.2257699"><ele>35.0</ele><time>2026-05-05T16:45:14.256Z</time></trkpt><trkpt lat="44.1419196" lon="12.2258989"><ele>35.0</ele><time>2026-05-05T16:45:15.256Z</time></trkpt><trkpt lat="44.1418408" lon="12.2260251"><ele>35.0</ele><time>2026-05-05T16:45:16.255Z</time></trkpt><trkpt lat="44.141782" lon="12.2261213"><ele>35.0</ele><time>2026-05-05T16:45:17.255Z</time></trkpt><trkpt lat="44.1417205" lon="12.2262266"><ele>35.0</ele><time>2026-05-05T16:45:18.255Z</time></trkpt><trkpt lat="44.1416645" lon="12.2263174"><ele>35.0</ele><time>2026-05-05T16:45:19.256Z</time></trkpt><trkpt lat="44.141613" lon="12.226394"><ele>35.0</ele><time>2026-05-05T16:45:20.256Z</time></trkpt><trkpt lat="44.1415536" lon="12.2264397"><ele>35.0</ele><time>2026-05-05T16:45:21.255Z</time></trkpt><trkpt lat="44.1414918" lon="12.2264743"><ele>34.83333333333333</ele><time>2026-05-05T16:45:22.256Z</time></trkpt><trkpt lat="44.1414288" lon="12.2264952"><ele>34.666666666666664</ele><time>2026-05-05T16:45:23.256Z</time></trkpt><trkpt lat="44.1413557" lon="12.2265153"><ele>34.5</ele><time>2026-05-05T16:45:24.255Z</time></trkpt><trkpt lat="44.1412728" lon="12.2265472"><ele>34.333333333333336</ele><time>2026-05-05T16:45:25.256Z</time></trkpt><trkpt lat="44.1411846" lon="12.2265908"><ele>34.16666666666667</ele><time>2026-05-05T16:45:26.255Z</time></trkpt><trkpt lat="44.1411016" lon="12.226657"><ele>34.0</ele><time>2026-05-05T16:45:27.255Z</time></trkpt><trkpt lat="44.1410197" lon="12.2267327"><ele>34.0</ele><time>2026-05-05T16:45:28.255Z</time></trkpt><trkpt lat="44.1409447" lon="12.2268171"><ele>34.0</ele><time>2026-05-05T16:45:29.256Z</time></trkpt><trkpt lat="44.1408721" lon="12.2268953"><ele>34.0</ele><time>2026-05-05T16:45:30.255Z</time></trkpt><trkpt lat="44.1407993" lon="12.226962"><ele>34.0</ele><time>2026-05-05T16:45:31.255Z</time></trkpt><trkpt lat="44.1407271" lon="12.2270459"><ele>34.0</ele><time>2026-05-05T16:45:32.256Z</time></trkpt><trkpt lat="44.1406578" lon="12.2271239"><ele>33.5</ele><time>2026-05-05T16:45:33.256Z</time></trkpt><trkpt lat="44.140597" lon="12.2272021"><ele>33.0</ele><time>2026-05-05T16:45:34.256Z</time></trkpt><trkpt lat="44.1405257" lon="12.2272717"><ele>32.5</ele><time>2026-05-05T16:45:35.256Z</time></trkpt><trkpt lat="44.1404616" lon="12.2273448"><ele>32.0</ele><time>2026-05-05T16:45:36.256Z</time></trkpt><trkpt lat="44.1403995" lon="12.2274127"><ele>31.500000000000004</ele><time>2026-05-05T16:45:37.256Z</time></trkpt><trkpt lat="44.1403334" lon="12.2274727"><ele>31.0</ele><time>2026-05-05T16:45:38.254Z</time></trkpt><trkpt lat="44.1402702" lon="12.2275434"><ele>30.833333333333336</ele><time>2026-05-05T16:45:39.256Z</time></trkpt><trkpt lat="44.140207" lon="12.2276184"><ele>30.666666666666668</ele><time>2026-05-05T16:45:40.255Z</time></trkpt><trkpt lat="44.140136" lon="12.2276877"><ele>30.5</ele><time>2026-05-05T16:45:41.255Z</time></trkpt><trkpt lat="44.1400627" lon="12.227749"><ele>30.333333333333336</ele><time>2026-05-05T16:45:42.255Z</time></trkpt><trkpt lat="44.1399912" lon="12.2278216"><ele>30.166666666666668</ele><time>2026-05-05T16:45:43.256Z</time></trkpt><trkpt lat="44.1399192" lon="12.2278974"><ele>30.0</ele><time>2026-05-05T16:45:44.255Z</time></trkpt><trkpt lat="44.1398453" lon="12.2279672"><ele>30.0</ele><time>2026-05-05T16:45:45.255Z</time></trkpt><trkpt lat="44.1397738" lon="12.2280398"><ele>30.0</ele><time>2026-05-05T16:45:46.255Z</time></trkpt><trkpt lat="44.1396995" lon="12.228111"><ele>30.0</ele><time>2026-05-05T16:45:47.256Z</time></trkpt><trkpt lat="44.1396254" lon="12.2281971"><ele>30.0</ele><time>2026-05-05T16:45:48.255Z</time></trkpt><trkpt lat="44.1395515" lon="12.2282786"><ele>30.0</ele><time>2026-05-05T16:45:49.256Z</time></trkpt><trkpt lat="44.139475" lon="12.2283593"><ele>30.0</ele><time>2026-05-05T16:45:50.255Z</time></trkpt><trkpt lat="44.1393969" lon="12.2284439"><ele>30.0</ele><time>2026-05-05T16:45:51.256Z</time></trkpt><trkpt lat="44.1393165" lon="12.2285295"><ele>30.0</ele><time>2026-05-05T16:45:52.255Z</time></trkpt><trkpt lat="44.1392403" lon="12.2286173"><ele>30.0</ele><time>2026-05-05T16:45:53.255Z</time></trkpt><trkpt lat="44.1391621" lon="12.2286933"><ele>30.0</ele><time>2026-05-05T16:45:54.255Z</time></trkpt><trkpt lat="44.1390873" lon="12.2287726"><ele>30.0</ele><time>2026-05-05T16:45:55.256Z</time></trkpt><trkpt lat="44.1390196" lon="12.2288581"><ele>30.0</ele><time>2026-05-05T16:45:56.256Z</time></trkpt><trkpt lat="44.1389585" lon="12.2289271"><ele>30.0</ele><time>2026-05-05T16:45:57.256Z</time></trkpt><trkpt lat="44.1388961" lon="12.2289957"><ele>30.0</ele><time>2026-05-05T16:45:58.256Z</time></trkpt><trkpt lat="44.1388305" lon="12.2290609"><ele>30.0</ele><time>2026-05-05T16:45:59.255Z</time></trkpt><trkpt lat="44.1387612" lon="12.2291267"><ele>30.0</ele><time>2026-05-05T16:46:00.255Z</time></trkpt><trkpt lat="44.1386961" lon="12.229196"><ele>30.0</ele><time>2026-05-05T16:46:01.255Z</time></trkpt><trkpt lat="44.1386291" lon="12.2292685"><ele>30.0</ele><time>2026-05-05T16:46:02.255Z</time></trkpt><trkpt lat="44.1385646" lon="12.2293377"><ele>30.0</ele><time>2026-05-05T16:46:03.255Z</time></trkpt><trkpt lat="44.1385042" lon="12.2294104"><ele>30.0</ele><time>2026-05-05T16:46:04.255Z</time></trkpt><trkpt lat="44.1384409" lon="12.2294736"><ele>30.0</ele><time>2026-05-05T16:46:05.255Z</time></trkpt><trkpt lat="44.1383793" lon="12.2295317"><ele>30.0</ele><time>2026-05-05T16:46:06.256Z</time></trkpt><trkpt lat="44.1382883" lon="12.2296301"><ele>30.166666666666668</ele><time>2026-05-05T16:46:08.255Z</time></trkpt><trkpt lat="44.1381926" lon="12.229681"><ele>30.333333333333336</ele><time>2026-05-05T16:46:10.256Z</time></trkpt><trkpt lat="44.138129" lon="12.2296666"><ele>30.5</ele><time>2026-05-05T16:46:11.255Z</time></trkpt><trkpt lat="44.1380639" lon="12.2296386"><ele>30.666666666666668</ele><time>2026-05-05T16:46:12.256Z</time></trkpt><trkpt lat="44.1379892" lon="12.2296128"><ele>30.833333333333336</ele><time>2026-05-05T16:46:13.255Z</time></trkpt><trkpt lat="44.1379125" lon="12.2295939"><ele>31.0</ele><time>2026-05-05T16:46:14.254Z</time></trkpt><trkpt lat="44.1378283" lon="12.2295794"><ele>31.0</ele><time>2026-05-05T16:46:15.256Z</time></trkpt><trkpt lat="44.1377425" lon="12.229575"><ele>31.0</ele><time>2026-05-05T16:46:16.256Z</time></trkpt><trkpt lat="44.1376549" lon="12.2295744"><ele>31.0</ele><time>2026-05-05T16:46:17.256Z</time></trkpt><trkpt lat="44.1375644" lon="12.2295758"><ele>31.0</ele><time>2026-05-05T16:46:18.256Z</time></trkpt><trkpt lat="44.1374721" lon="12.2295792"><ele>31.0</ele><time>2026-05-05T16:46:19.256Z</time></trkpt><trkpt lat="44.1373715" lon="12.2295879"><ele>31.0</ele><time>2026-05-05T16:46:20.256Z</time></trkpt><trkpt lat="44.1372738" lon="12.2295858"><ele>31.0</ele><time>2026-05-05T16:46:21.256Z</time></trkpt><trkpt lat="44.1371773" lon="12.2295889"><ele>31.0</ele><time>2026-05-05T16:46:22.256Z</time></trkpt><trkpt lat="44.137082" lon="12.2295936"><ele>31.0</ele><time>2026-05-05T16:46:23.256Z</time></trkpt><trkpt lat="44.1369893" lon="12.2296022"><ele>31.0</ele><time>2026-05-05T16:46:24.256Z</time></trkpt><trkpt lat="44.1368965" lon="12.2296052"><ele>31.000000000000004</ele><time>2026-05-05T16:46:25.255Z</time></trkpt><trkpt lat="44.1368093" lon="12.2296071"><ele>31.0</ele><time>2026-05-05T16:46:26.255Z</time></trkpt><trkpt lat="44.1367118" lon="12.2296197"><ele>31.0</ele><time>2026-05-05T16:46:27.254Z</time></trkpt><trkpt lat="44.1366216" lon="12.2296248"><ele>31.0</ele><time>2026-05-05T16:46:28.256Z</time></trkpt><trkpt lat="44.1365331" lon="12.2296329"><ele>31.000000000000004</ele><time>2026-05-05T16:46:29.255Z</time></trkpt><trkpt lat="44.1364564" lon="12.2296355"><ele>31.0</ele><time>2026-05-05T16:46:30.256Z</time></trkpt><trkpt lat="44.136389" lon="12.2296387"><ele>31.42857142857143</ele><time>2026-05-05T16:46:31.256Z</time></trkpt><trkpt lat="44.1363107" lon="12.2296473"><ele>31.85714285714286</ele><time>2026-05-05T16:46:32.255Z</time></trkpt><trkpt lat="44.1362353" lon="12.2296547"><ele>32.285714285714285</ele><time>2026-05-05T16:46:33.256Z</time></trkpt><trkpt lat="44.136161" lon="12.2296646"><ele>32.714285714285715</ele><time>2026-05-05T16:46:34.255Z</time></trkpt><trkpt lat="44.1360879" lon="12.2296693"><ele>33.14285714285714</ele><time>2026-05-05T16:46:35.255Z</time></trkpt><trkpt lat="44.1360112" lon="12.2296736"><ele>33.57142857142857</ele><time>2026-05-05T16:46:36.254Z</time></trkpt><trkpt lat="44.1359418" lon="12.2296755"><ele>34.0</ele><time>2026-05-05T16:46:37.256Z</time></trkpt><trkpt lat="44.1358708" lon="12.2296787"><ele>34.0</ele><time>2026-05-05T16:46:38.256Z</time></trkpt><trkpt lat="44.1357895" lon="12.2296918"><ele>34.0</ele><time>2026-05-05T16:46:39.256Z</time></trkpt><trkpt lat="44.1357154" lon="12.2296928"><ele>34.0</ele><time>2026-05-05T16:46:40.256Z</time></trkpt><trkpt lat="44.1356514" lon="12.2296909"><ele>34.0</ele><time>2026-05-05T16:46:41.255Z</time></trkpt><trkpt lat="44.1355478" lon="12.2296924"><ele>34.0</ele><time>2026-05-05T16:46:43.256Z</time></trkpt><trkpt lat="44.1354709" lon="12.2296976"><ele>34.0</ele><time>2026-05-05T16:46:45.255Z</time></trkpt><trkpt lat="44.1353926" lon="12.2297086"><ele>34.4</ele><time>2026-05-05T16:46:47.254Z</time></trkpt><trkpt lat="44.1353206" lon="12.2297122"><ele>34.8</ele><time>2026-05-05T16:46:50.256Z</time></trkpt><trkpt lat="44.1352235" lon="12.2296945"><ele>35.2</ele><time>2026-05-05T16:46:53.256Z</time></trkpt><trkpt lat="44.1351304" lon="12.2296604"><ele>35.6</ele><time>2026-05-05T16:46:55.255Z</time></trkpt><trkpt lat="44.1350127" lon="12.22965"><ele>36.0</ele><time>2026-05-05T16:46:57.256Z</time></trkpt><trkpt lat="44.1349484" lon="12.2296742"><ele>35.833333333333336</ele><time>2026-05-05T16:46:58.256Z</time></trkpt><trkpt lat="44.1348769" lon="12.229709"><ele>35.666666666666664</ele><time>2026-05-05T16:46:59.255Z</time></trkpt><trkpt lat="44.1347978" lon="12.2297359"><ele>35.5</ele><time>2026-05-05T16:47:00.256Z</time></trkpt><trkpt lat="44.1347182" lon="12.229755"><ele>35.33333333333333</ele><time>2026-05-05T16:47:01.256Z</time></trkpt><trkpt lat="44.1346331" lon="12.2297682"><ele>35.166666666666664</ele><time>2026-05-05T16:47:02.254Z</time></trkpt><trkpt lat="44.1345458" lon="12.2297737"><ele>35.0</ele><time>2026-05-05T16:47:03.256Z</time></trkpt><trkpt lat="44.1344589" lon="12.2297804"><ele>35.0</ele><time>2026-05-05T16:47:04.256Z</time></trkpt><trkpt lat="44.1343716" lon="12.2297852"><ele>35.0</ele><time>2026-05-05T16:47:05.255Z</time></trkpt><trkpt lat="44.1342842" lon="12.2297912"><ele>35.0</ele><time>2026-05-05T16:47:06.256Z</time></trkpt><trkpt lat="44.1341947" lon="12.2297979"><ele>35.0</ele><time>2026-05-05T16:47:07.256Z</time></trkpt><trkpt lat="44.1341012" lon="12.2298081"><ele>35.0</ele><time>2026-05-05T16:47:08.256Z</time></trkpt><trkpt lat="44.134011" lon="12.2298119"><ele>35.0</ele><time>2026-05-05T16:47:09.255Z</time></trkpt><trkpt lat="44.1339271" lon="12.2298143"><ele>35.0</ele><time>2026-05-05T16:47:10.255Z</time></trkpt><trkpt lat="44.1338508" lon="12.2298169"><ele>35.0</ele><time>2026-05-05T16:47:11.256Z</time></trkpt><trkpt lat="44.1337804" lon="12.2298252"><ele>35.0</ele><time>2026-05-05T16:47:12.255Z</time></trkpt><trkpt lat="44.1337141" lon="12.2298478"><ele>35.0</ele><time>2026-05-05T16:47:13.256Z</time></trkpt><trkpt lat="44.1336159" lon="12.2299252"><ele>35.0</ele><time>2026-05-05T16:47:15.256Z</time></trkpt><trkpt lat="44.1335956" lon="12.2300212"><ele>35.0</ele><time>2026-05-05T16:47:16.254Z</time></trkpt><trkpt lat="44.1335868" lon="12.2301294"><ele>35.0</ele><time>2026-05-05T16:47:17.256Z</time></trkpt><trkpt lat="44.1335904" lon="12.2302562"><ele>35.0</ele><time>2026-05-05T16:47:18.255Z</time></trkpt><trkpt lat="44.1336016" lon="12.2303869"><ele>35.0</ele><time>2026-05-05T16:47:19.255Z</time></trkpt><trkpt lat="44.1336259" lon="12.2305256"><ele>35.0</ele><time>2026-05-05T16:47:20.256Z</time></trkpt><trkpt lat="44.1336422" lon="12.2306602"><ele>35.0</ele><time>2026-05-05T16:47:21.255Z</time></trkpt><trkpt lat="44.1336584" lon="12.2308012"><ele>34.6</ele><time>2026-05-05T16:47:22.255Z</time></trkpt><trkpt lat="44.133675" lon="12.2309386"><ele>34.2</ele><time>2026-05-05T16:47:23.256Z</time></trkpt><trkpt lat="44.1336898" lon="12.231079"><ele>33.8</ele><time>2026-05-05T16:47:24.256Z</time></trkpt><trkpt lat="44.1337065" lon="12.23122"><ele>33.4</ele><time>2026-05-05T16:47:25.255Z</time></trkpt><trkpt lat="44.1337245" lon="12.2313619"><ele>33.0</ele><time>2026-05-05T16:47:26.255Z</time></trkpt><trkpt lat="44.1337399" lon="12.2315046"><ele>33.0</ele><time>2026-05-05T16:47:27.255Z</time></trkpt><trkpt lat="44.1337597" lon="12.2316482"><ele>33.0</ele><time>2026-05-05T16:47:28.255Z</time></trkpt><trkpt lat="44.1337787" lon="12.2317931"><ele>33.0</ele><time>2026-05-05T16:47:29.254Z</time></trkpt><trkpt lat="44.1337984" lon="12.2319215"><ele>33.0</ele><time>2026-05-05T16:47:30.256Z</time></trkpt><trkpt lat="44.1338101" lon="12.2320269"><ele>33.0</ele><time>2026-05-05T16:47:31.255Z</time></trkpt><trkpt lat="44.1338262" lon="12.2321327"><ele>33.0</ele><time>2026-05-05T16:47:32.256Z</time></trkpt><trkpt lat="44.1338578" lon="12.2322791"><ele>33.0</ele><time>2026-05-05T16:47:34.255Z</time></trkpt><trkpt lat="44.1338774" lon="12.232422"><ele>33.0</ele><time>2026-05-05T16:47:36.256Z</time></trkpt><trkpt lat="44.1338747" lon="12.2325221"><ele>33.0</ele><time>2026-05-05T16:47:37.256Z</time></trkpt><trkpt lat="44.1338807" lon="12.232617"><ele>33.0</ele><time>2026-05-05T16:47:38.255Z</time></trkpt><trkpt lat="44.1338889" lon="12.2327154"><ele>33.0</ele><time>2026-05-05T16:47:39.256Z</time></trkpt><trkpt lat="44.1338966" lon="12.2328166"><ele>32.5</ele><time>2026-05-05T16:47:40.255Z</time></trkpt><trkpt lat="44.1339068" lon="12.2329234"><ele>32.0</ele><time>2026-05-05T16:47:41.255Z</time></trkpt><trkpt lat="44.1339111" lon="12.2330396"><ele>31.5</ele><time>2026-05-05T16:47:42.255Z</time></trkpt><trkpt lat="44.1339159" lon="12.2331549"><ele>31.0</ele><time>2026-05-05T16:47:43.256Z</time></trkpt><trkpt lat="44.1339191" lon="12.2332693"><ele>30.5</ele><time>2026-05-05T16:47:44.255Z</time></trkpt><trkpt lat="44.1339233" lon="12.2333784"><ele>30.0</ele><time>2026-05-05T16:47:45.254Z</time></trkpt><trkpt lat="44.1339267" lon="12.233486"><ele>30.0</ele><time>2026-05-05T16:47:46.255Z</time></trkpt><trkpt lat="44.1339318" lon="12.2335993"><ele>30.0</ele><time>2026-05-05T16:47:47.256Z</time></trkpt><trkpt lat="44.1339372" lon="12.2337098"><ele>30.0</ele><time>2026-05-05T16:47:48.256Z</time></trkpt><trkpt lat="44.1339426" lon="12.2338129"><ele>30.0</ele><time>2026-05-05T16:47:49.256Z</time></trkpt><trkpt lat="44.133945" lon="12.2339088"><ele>30.0</ele><time>2026-05-05T16:47:50.255Z</time></trkpt><trkpt lat="44.13395" lon="12.2339969"><ele>30.0</ele><time>2026-05-05T16:47:51.255Z</time></trkpt><trkpt lat="44.1339551" lon="12.2340972"><ele>30.0</ele><time>2026-05-05T16:47:52.256Z</time></trkpt><trkpt lat="44.1339601" lon="12.2341946"><ele>30.0</ele><time>2026-05-05T16:47:53.255Z</time></trkpt><trkpt lat="44.1339629" lon="12.2342892"><ele>30.0</ele><time>2026-05-05T16:47:54.255Z</time></trkpt><trkpt lat="44.1339681" lon="12.2343856"><ele>30.0</ele><time>2026-05-05T16:47:55.255Z</time></trkpt><trkpt lat="44.1339676" lon="12.2344751"><ele>30.0</ele><time>2026-05-05T16:47:56.255Z</time></trkpt><trkpt lat="44.133969" lon="12.2345646"><ele>30.0</ele><time>2026-05-05T16:47:57.256Z</time></trkpt><trkpt lat="44.1339666" lon="12.2346561"><ele>30.0</ele><time>2026-05-05T16:47:58.256Z</time></trkpt><trkpt lat="44.1339607" lon="12.234798"><ele>30.0</ele><time>2026-05-05T16:48:00.256Z</time></trkpt><trkpt lat="44.1339495" lon="12.2348902"><ele>30.8</ele><time>2026-05-05T16:48:02.255Z</time></trkpt><trkpt lat="44.1339054" lon="12.2350237"><ele>31.6</ele><time>2026-05-05T16:48:10.256Z</time></trkpt><trkpt lat="44.1338769" lon="12.2351721"><ele>32.4</ele><time>2026-05-05T16:48:12.255Z</time></trkpt><trkpt lat="44.1339095" lon="12.2352946"><ele>33.2</ele><time>2026-05-05T16:48:14.256Z</time></trkpt><trkpt lat="44.1339694" lon="12.2354046"><ele>34.0</ele><time>2026-05-05T16:48:16.255Z</time></trkpt><trkpt lat="44.13399" lon="12.2355542"><ele>34.833333333333336</ele><time>2026-05-05T16:48:18.255Z</time></trkpt><trkpt lat="44.1340018" lon="12.2356505"><ele>35.66666666666667</ele><time>2026-05-05T16:48:19.255Z</time></trkpt><trkpt lat="44.1340106" lon="12.2357573"><ele>36.5</ele><time>2026-05-05T16:48:20.256Z</time></trkpt><trkpt lat="44.1340159" lon="12.2358789"><ele>37.333333333333336</ele><time>2026-05-05T16:48:21.256Z</time></trkpt><trkpt lat="44.1340247" lon="12.2359925"><ele>38.166666666666664</ele><time>2026-05-05T16:48:22.256Z</time></trkpt><trkpt lat="44.1340276" lon="12.2361154"><ele>39.0</ele><time>2026-05-05T16:48:23.256Z</time></trkpt><trkpt lat="44.1340295" lon="12.2362359"><ele>39.0</ele><time>2026-05-05T16:48:24.256Z</time></trkpt><trkpt lat="44.1340374" lon="12.2363679"><ele>39.0</ele><time>2026-05-05T16:48:25.255Z</time></trkpt><trkpt lat="44.1340408" lon="12.2364957"><ele>39.0</ele><time>2026-05-05T16:48:26.256Z</time></trkpt><trkpt lat="44.1340482" lon="12.2366285"><ele>39.0</ele><time>2026-05-05T16:48:27.256Z</time></trkpt><trkpt lat="44.1340577" lon="12.2367601"><ele>39.0</ele><time>2026-05-05T16:48:28.256Z</time></trkpt><trkpt lat="44.1340824" lon="12.2368825"><ele>38.0</ele><time>2026-05-05T16:48:29.256Z</time></trkpt><trkpt lat="44.1341194" lon="12.2369929"><ele>37.0</ele><time>2026-05-05T16:48:30.256Z</time></trkpt><trkpt lat="44.1341868" lon="12.2370775"><ele>36.0</ele><time>2026-05-05T16:48:31.256Z</time></trkpt><trkpt lat="44.1342492" lon="12.237162"><ele>35.0</ele><time>2026-05-05T16:48:32.254Z</time></trkpt><trkpt lat="44.1343205" lon="12.2372549"><ele>34.0</ele><time>2026-05-05T16:48:33.255Z</time></trkpt><trkpt lat="44.1343889" lon="12.2373443"><ele>34.0</ele><time>2026-05-05T16:48:34.256Z</time></trkpt><trkpt lat="44.1344607" lon="12.2374388"><ele>34.0</ele><time>2026-05-05T16:48:35.255Z</time></trkpt><trkpt lat="44.1345341" lon="12.2375307"><ele>34.0</ele><time>2026-05-05T16:48:36.256Z</time></trkpt><trkpt lat="44.1346073" lon="12.2376314"><ele>34.0</ele><time>2026-05-05T16:48:37.256Z</time></trkpt><trkpt lat="44.1346879" lon="12.2377317"><ele>34.0</ele><time>2026-05-05T16:48:38.256Z</time></trkpt><trkpt lat="44.134768" lon="12.2378318"><ele>34.0</ele><time>2026-05-05T16:48:39.255Z</time></trkpt><trkpt lat="44.1348472" lon="12.237927"><ele>34.0</ele><time>2026-05-05T16:48:40.256Z</time></trkpt><trkpt lat="44.1349209" lon="12.2380174"><ele>34.0</ele><time>2026-05-05T16:48:41.256Z</time></trkpt><trkpt lat="44.1349985" lon="12.2381142"><ele>34.0</ele><time>2026-05-05T16:48:42.256Z</time></trkpt><trkpt lat="44.1350723" lon="12.2381981"><ele>34.0</ele><time>2026-05-05T16:48:43.256Z</time></trkpt><trkpt lat="44.1351417" lon="12.2382709"><ele>34.5</ele><time>2026-05-05T16:48:44.255Z</time></trkpt><trkpt lat="44.1352117" lon="12.2383208"><ele>35.0</ele><time>2026-05-05T16:48:45.255Z</time></trkpt><trkpt lat="44.1353113" lon="12.2383676"><ele>35.5</ele><time>2026-05-05T16:48:47.256Z</time></trkpt><trkpt lat="44.1353756" lon="12.2383743"><ele>36.0</ele><time>2026-05-05T16:48:50.256Z</time></trkpt><trkpt lat="44.1354398" lon="12.2383913"><ele>36.5</ele><time>2026-05-05T16:48:52.254Z</time></trkpt><trkpt lat="44.13551" lon="12.2384073"><ele>37.0</ele><time>2026-05-05T16:49:03.256Z</time></trkpt><trkpt lat="44.1356016" lon="12.2384439"><ele>37.0</ele><time>2026-05-05T16:49:05.255Z</time></trkpt><trkpt lat="44.1356897" lon="12.2384701"><ele>37.0</ele><time>2026-05-05T16:49:06.255Z</time></trkpt><trkpt lat="44.1357734" lon="12.2384992"><ele>37.0</ele><time>2026-05-05T16:49:07.255Z</time></trkpt><trkpt lat="44.1358389" lon="12.2385289"><ele>37.0</ele><time>2026-05-05T16:49:08.256Z</time></trkpt><trkpt lat="44.1359076" lon="12.2385698"><ele>37.0</ele><time>2026-05-05T16:49:10.255Z</time></trkpt><trkpt lat="44.1359647" lon="12.2386424"><ele>37.0</ele><time>2026-05-05T17:00:41.251Z</time></trkpt><trkpt lat="44.1359075" lon="12.2385604"><ele>37.0</ele><time>2026-05-05T17:00:42.251Z</time></trkpt><trkpt lat="44.1357972" lon="12.238476"><ele>37.0</ele><time>2026-05-05T17:00:44.251Z</time></trkpt><trkpt lat="44.1357071" lon="12.2384485"><ele>37.0</ele><time>2026-05-05T17:00:46.25Z</time></trkpt><trkpt lat="44.1356425" lon="12.2384205"><ele>37.0</ele><time>2026-05-05T17:00:48.251Z</time></trkpt><trkpt lat="44.1355539" lon="12.2383919"><ele>37.0</ele><time>2026-05-05T17:00:50.251Z</time></trkpt><trkpt lat="44.1354886" lon="12.2383704"><ele>37.0</ele><time>2026-05-05T17:00:51.251Z</time></trkpt><trkpt lat="44.135379" lon="12.23834"><ele>37.0</ele><time>2026-05-05T17:00:53.25Z</time></trkpt><trkpt lat="44.1353121" lon="12.2383333"><ele>37.0</ele><time>2026-05-05T17:00:55.251Z</time></trkpt><trkpt lat="44.1352602" lon="12.2383876"><ele>37.0</ele><time>2026-05-05T17:00:57.251Z</time></trkpt><trkpt lat="44.1352433" lon="12.2385508"><ele>37.0</ele><time>2026-05-05T17:00:59.25Z</time></trkpt><trkpt lat="44.1352462" lon="12.238649"><ele>37.0</ele><time>2026-05-05T17:01:00.25Z</time></trkpt><trkpt lat="44.1352419" lon="12.2387608"><ele>37.0</ele><time>2026-05-05T17:01:01.251Z</time></trkpt><trkpt lat="44.1352154" lon="12.2388587"><ele>37.0</ele><time>2026-05-05T17:01:02.251Z</time></trkpt><trkpt lat="44.135164" lon="12.2389467"><ele>37.0</ele><time>2026-05-05T17:01:03.251Z</time></trkpt><trkpt lat="44.1350894" lon="12.239024"><ele>37.0</ele><time>2026-05-05T17:01:04.251Z</time></trkpt><trkpt lat="44.1349989" lon="12.2391034"><ele>37.0</ele><time>2026-05-05T17:01:05.251Z</time></trkpt><trkpt lat="44.1349126" lon="12.2391747"><ele>37.0</ele><time>2026-05-05T17:01:06.251Z</time></trkpt><trkpt lat="44.134822" lon="12.2392334"><ele>38.6</ele><time>2026-05-05T17:01:07.251Z</time></trkpt><trkpt lat="44.134724" lon="12.2392747"><ele>40.2</ele><time>2026-05-05T17:01:08.251Z</time></trkpt><trkpt lat="44.1346214" lon="12.2392977"><ele>41.8</ele><time>2026-05-05T17:01:09.251Z</time></trkpt><trkpt lat="44.134511" lon="12.2393118"><ele>43.4</ele><time>2026-05-05T17:01:10.251Z</time></trkpt><trkpt lat="44.1343934" lon="12.23932"><ele>45.0</ele><time>2026-05-05T17:01:11.251Z</time></trkpt><trkpt lat="44.1342754" lon="12.2393162"><ele>45.0</ele><time>2026-05-05T17:01:12.251Z</time></trkpt><trkpt lat="44.1341542" lon="12.2393019"><ele>45.0</ele><time>2026-05-05T17:01:13.251Z</time></trkpt><trkpt lat="44.1340343" lon="12.2392821"><ele>45.0</ele><time>2026-05-05T17:01:14.25Z</time></trkpt><trkpt lat="44.1339153" lon="12.2392592"><ele>45.0</ele><time>2026-05-05T17:01:15.251Z</time></trkpt><trkpt lat="44.133799" lon="12.239232"><ele>46.6</ele><time>2026-05-05T17:01:16.251Z</time></trkpt><trkpt lat="44.1336881" lon="12.2392101"><ele>48.2</ele><time>2026-05-05T17:01:17.25Z</time></trkpt><trkpt lat="44.133588" lon="12.2392005"><ele>49.8</ele><time>2026-05-05T17:01:18.251Z</time></trkpt><trkpt lat="44.1334976" lon="12.2392031"><ele>51.4</ele><time>2026-05-05T17:01:19.251Z</time></trkpt><trkpt lat="44.1334099" lon="12.2392224"><ele>53.0</ele><time>2026-05-05T17:01:20.251Z</time></trkpt><trkpt lat="44.1333289" lon="12.2392689"><ele>53.0</ele><time>2026-05-05T17:01:21.25Z</time></trkpt><trkpt lat="44.1332575" lon="12.2393413"><ele>53.0</ele><time>2026-05-05T17:01:22.251Z</time></trkpt><trkpt lat="44.133207" lon="12.2394375"><ele>53.0</ele><time>2026-05-05T17:01:23.251Z</time></trkpt><trkpt lat="44.1331734" lon="12.2395539"><ele>53.0</ele><time>2026-05-05T17:01:24.251Z</time></trkpt><trkpt lat="44.1331536" lon="12.239701"><ele>53.0</ele><time>2026-05-05T17:01:25.251Z</time></trkpt><trkpt lat="44.1331361" lon="12.2398747"><ele>59.0</ele><time>2026-05-05T17:01:26.25Z</time></trkpt><trkpt lat="44.1331143" lon="12.2400595"><ele>65.0</ele><time>2026-05-05T17:01:27.251Z</time></trkpt><trkpt lat="44.1330927" lon="12.2402427"><ele>71.0</ele><time>2026-05-05T17:01:28.251Z</time></trkpt><trkpt lat="44.133071" lon="12.2404307"><ele>77.0</ele><time>2026-05-05T17:01:29.251Z</time></trkpt><trkpt lat="44.1330436" lon="12.2406287"><ele>73.0</ele><time>2026-05-05T17:01:30.251Z</time></trkpt><trkpt lat="44.1330138" lon="12.2408538"><ele>69.0</ele><time>2026-05-05T17:01:31.25Z</time></trkpt><trkpt lat="44.1329792" lon="12.2410448"><ele>65.0</ele><time>2026-05-05T17:01:32.251Z</time></trkpt><trkpt lat="44.1329525" lon="12.2412336"><ele>61.0</ele><time>2026-05-05T17:01:33.251Z</time></trkpt><trkpt lat="44.1329324" lon="12.2414023"><ele>59.49999999999999</ele><time>2026-05-05T17:01:34.25Z</time></trkpt><trkpt lat="44.1329139" lon="12.2415661"><ele>58.0</ele><time>2026-05-05T17:01:35.251Z</time></trkpt><trkpt lat="44.1328975" lon="12.2417"><ele>56.5</ele><time>2026-05-05T17:01:36.251Z</time></trkpt><trkpt lat="44.1328854" lon="12.2418127"><ele>55.0</ele><time>2026-05-05T17:01:37.251Z</time></trkpt><trkpt lat="44.1328635" lon="12.2419065"><ele>53.49999999999999</ele><time>2026-05-05T17:01:38.251Z</time></trkpt><trkpt lat="44.1328299" lon="12.2419889"><ele>52.0</ele><time>2026-05-05T17:01:39.251Z</time></trkpt><trkpt lat="44.132782" lon="12.2420475"><ele>51.99999999999999</ele><time>2026-05-05T17:01:40.251Z</time></trkpt><trkpt lat="44.1327225" lon="12.2420773"><ele>52.0</ele><time>2026-05-05T17:01:41.25Z</time></trkpt><trkpt lat="44.1326497" lon="12.2420936"><ele>52.0</ele><time>2026-05-05T17:01:42.25Z</time></trkpt><trkpt lat="44.1325585" lon="12.2421109"><ele>52.0</ele><time>2026-05-05T17:01:43.251Z</time></trkpt><trkpt lat="44.1324687" lon="12.2421293"><ele>51.99999999999999</ele><time>2026-05-05T17:01:44.251Z</time></trkpt><trkpt lat="44.1323898" lon="12.2421547"><ele>52.0</ele><time>2026-05-05T17:01:45.25Z</time></trkpt><trkpt lat="44.1323186" lon="12.2421977"><ele>51.714285714285715</ele><time>2026-05-05T17:01:46.251Z</time></trkpt><trkpt lat="44.1322593" lon="12.2422646"><ele>51.42857142857143</ele><time>2026-05-05T17:01:47.251Z</time></trkpt><trkpt lat="44.1322188" lon="12.2423487"><ele>51.142857142857146</ele><time>2026-05-05T17:01:48.25Z</time></trkpt><trkpt lat="44.1322006" lon="12.242442"><ele>50.85714285714286</ele><time>2026-05-05T17:01:49.251Z</time></trkpt><trkpt lat="44.1322087" lon="12.2425364"><ele>50.57142857142857</ele><time>2026-05-05T17:01:50.251Z</time></trkpt><trkpt lat="44.1322453" lon="12.2426155"><ele>50.28571428571429</ele><time>2026-05-05T17:01:51.251Z</time></trkpt><trkpt lat="44.1323015" lon="12.2426767"><ele>50.0</ele><time>2026-05-05T17:01:52.251Z</time></trkpt><trkpt lat="44.1323747" lon="12.242718"><ele>49.2</ele><time>2026-05-05T17:01:53.251Z</time></trkpt><trkpt lat="44.1324584" lon="12.2427405"><ele>48.4</ele><time>2026-05-05T17:01:54.251Z</time></trkpt><trkpt lat="44.1325481" lon="12.2427436"><ele>47.599999999999994</ele><time>2026-05-05T17:01:55.25Z</time></trkpt><trkpt lat="44.1326443" lon="12.2427264"><ele>46.8</ele><time>2026-05-05T17:01:56.251Z</time></trkpt><trkpt lat="44.1327463" lon="12.2426957"><ele>46.0</ele><time>2026-05-05T17:01:57.251Z</time></trkpt><trkpt lat="44.1328525" lon="12.2426524"><ele>46.0</ele><time>2026-05-05T17:01:58.251Z</time></trkpt><trkpt lat="44.1329621" lon="12.2426223"><ele>46.0</ele><time>2026-05-05T17:01:59.251Z</time></trkpt><trkpt lat="44.1330618" lon="12.2425982"><ele>46.0</ele><time>2026-05-05T17:02:00.251Z</time></trkpt><trkpt lat="44.1331456" lon="12.2425838"><ele>46.0</ele><time>2026-05-05T17:02:01.251Z</time></trkpt><trkpt lat="44.1332113" lon="12.2425695"><ele>46.0</ele><time>2026-05-05T17:02:02.251Z</time></trkpt><trkpt lat="44.1332958" lon="12.2425762"><ele>46.0</ele><time>2026-05-05T17:02:04.251Z</time></trkpt><trkpt lat="44.1333362" lon="12.242689"><ele>46.199999999999996</ele><time>2026-05-05T17:02:06.251Z</time></trkpt><trkpt lat="44.1333451" lon="12.2428624"><ele>46.4</ele><time>2026-05-05T17:02:08.251Z</time></trkpt><trkpt lat="44.1333522" lon="12.2429681"><ele>46.6</ele><time>2026-05-05T17:02:09.25Z</time></trkpt><trkpt lat="44.1333573" lon="12.2430773"><ele>46.8</ele><time>2026-05-05T17:02:10.251Z</time></trkpt><trkpt lat="44.1333622" lon="12.2431933"><ele>47.0</ele><time>2026-05-05T17:02:11.25Z</time></trkpt><trkpt lat="44.1333649" lon="12.2433264"><ele>47.0</ele><time>2026-05-05T17:02:12.251Z</time></trkpt><trkpt lat="44.1333683" lon="12.2434586"><ele>47.0</ele><time>2026-05-05T17:02:13.25Z</time></trkpt><trkpt lat="44.1333749" lon="12.2435897"><ele>47.0</ele><time>2026-05-05T17:02:14.25Z</time></trkpt><trkpt lat="44.1333825" lon="12.2437023"><ele>47.0</ele><time>2026-05-05T17:02:15.251Z</time></trkpt><trkpt lat="44.1333888" lon="12.243807"><ele>47.0</ele><time>2026-05-05T17:02:16.251Z</time></trkpt><trkpt lat="44.1333938" lon="12.2439017"><ele>47.0</ele><time>2026-05-05T17:02:17.25Z</time></trkpt><trkpt lat="44.1333992" lon="12.2440335"><ele>46.6</ele><time>2026-05-05T17:02:19.25Z</time></trkpt><trkpt lat="44.1333627" lon="12.2441459"><ele>46.2</ele><time>2026-05-05T17:02:23.25Z</time></trkpt><trkpt lat="44.1332577" lon="12.2442045"><ele>45.8</ele><time>2026-05-05T17:02:25.251Z</time></trkpt><trkpt lat="44.1331825" lon="12.244248"><ele>45.4</ele><time>2026-05-05T17:02:26.251Z</time></trkpt><trkpt lat="44.1331189" lon="12.2442746"><ele>45.0</ele><time>2026-05-05T17:02:27.25Z</time></trkpt><trkpt lat="44.1330278" lon="12.2443883"><ele>45.0</ele><time>2026-05-05T17:02:29.25Z</time></trkpt><trkpt lat="44.133008" lon="12.2444749"><ele>45.0</ele><time>2026-05-05T17:02:30.251Z</time></trkpt><trkpt lat="44.1330048" lon="12.2445753"><ele>45.0</ele><time>2026-05-05T17:02:31.25Z</time></trkpt><trkpt lat="44.1330121" lon="12.2446898"><ele>45.0</ele><time>2026-05-05T17:02:32.25Z</time></trkpt><trkpt lat="44.133017" lon="12.2448015"><ele>45.0</ele><time>2026-05-05T17:02:33.25Z</time></trkpt><trkpt lat="44.1330201" lon="12.2449281"><ele>45.0</ele><time>2026-05-05T17:02:34.251Z</time></trkpt><trkpt lat="44.1330297" lon="12.2450652"><ele>44.8</ele><time>2026-05-05T17:02:35.251Z</time></trkpt><trkpt lat="44.1330404" lon="12.245203"><ele>44.6</ele><time>2026-05-05T17:02:36.25Z</time></trkpt><trkpt lat="44.133046" lon="12.2453368"><ele>44.400000000000006</ele><time>2026-05-05T17:02:37.251Z</time></trkpt><trkpt lat="44.1330527" lon="12.2454626"><ele>44.2</ele><time>2026-05-05T17:02:38.25Z</time></trkpt><trkpt lat="44.1330587" lon="12.2455811"><ele>44.0</ele><time>2026-05-05T17:02:39.251Z</time></trkpt><trkpt lat="44.1330635" lon="12.2456995"><ele>43.6</ele><time>2026-05-05T17:02:40.25Z</time></trkpt><trkpt lat="44.1330694" lon="12.2458308"><ele>43.2</ele><time>2026-05-05T17:02:41.251Z</time></trkpt><trkpt lat="44.1330705" lon="12.2459671"><ele>42.800000000000004</ele><time>2026-05-05T17:02:42.25Z</time></trkpt><trkpt lat="44.1330718" lon="12.2461026"><ele>42.400000000000006</ele><time>2026-05-05T17:02:43.251Z</time></trkpt><trkpt lat="44.1330781" lon="12.2462292"><ele>42.0</ele><time>2026-05-05T17:02:44.25Z</time></trkpt><trkpt lat="44.1330819" lon="12.2463435"><ele>42.0</ele><time>2026-05-05T17:02:45.25Z</time></trkpt><trkpt lat="44.1330846" lon="12.2464348"><ele>42.0</ele><time>2026-05-05T17:02:46.25Z</time></trkpt><trkpt lat="44.1331015" lon="12.2465573"><ele>42.0</ele><time>2026-05-05T17:02:48.25Z</time></trkpt><trkpt lat="44.1331909" lon="12.246584"><ele>42.0</ele><time>2026-05-05T17:02:51.25Z</time></trkpt><trkpt lat="44.1333123" lon="12.2465353"><ele>42.0</ele><time>2026-05-05T17:02:53.25Z</time></trkpt><trkpt lat="44.1333941" lon="12.2465017"><ele>41.833333333333336</ele><time>2026-05-05T17:02:54.251Z</time></trkpt><trkpt lat="44.1334785" lon="12.2464661"><ele>41.666666666666664</ele><time>2026-05-05T17:02:55.251Z</time></trkpt><trkpt lat="44.1335632" lon="12.2464305"><ele>41.5</ele><time>2026-05-05T17:02:56.251Z</time></trkpt><trkpt lat="44.1336454" lon="12.2463946"><ele>41.33333333333333</ele><time>2026-05-05T17:02:57.251Z</time></trkpt><trkpt lat="44.133724" lon="12.2463595"><ele>41.166666666666664</ele><time>2026-05-05T17:02:58.25Z</time></trkpt><trkpt lat="44.1338008" lon="12.2463272"><ele>41.0</ele><time>2026-05-05T17:02:59.25Z</time></trkpt><trkpt lat="44.1338705" lon="12.2463009"><ele>41.0</ele><time>2026-05-05T17:03:00.251Z</time></trkpt><trkpt lat="44.1339799" lon="12.2462573"><ele>41.0</ele><time>2026-05-05T17:03:02.25Z</time></trkpt><trkpt lat="44.1340668" lon="12.2462671"><ele>41.0</ele><time>2026-05-05T17:03:05.25Z</time></trkpt><trkpt lat="44.1340932" lon="12.2463747"><ele>41.0</ele><time>2026-05-05T17:03:07.25Z</time></trkpt><trkpt lat="44.1341146" lon="12.2465318"><ele>41.0</ele><time>2026-05-05T17:03:09.25Z</time></trkpt><trkpt lat="44.1341371" lon="12.2466395"><ele>41.5</ele><time>2026-05-05T17:03:11.25Z</time></trkpt><trkpt lat="44.1341447" lon="12.2467378"><ele>42.0</ele><time>2026-05-05T17:03:21.25Z</time></trkpt><trkpt lat="44.1341438" lon="12.2468388"><ele>42.5</ele><time>2026-05-05T17:03:24.251Z</time></trkpt><trkpt lat="44.1340432" lon="12.2469112"><ele>43.0</ele><time>2026-05-05T17:03:27.25Z</time></trkpt><trkpt lat="44.1339685" lon="12.2469415"><ele>43.5</ele><time>2026-05-05T17:03:28.25Z</time></trkpt><trkpt lat="44.1339062" lon="12.246966"><ele>44.0</ele><time>2026-05-05T17:03:29.251Z</time></trkpt><trkpt lat="44.1338406" lon="12.2469877"><ele>44.0</ele><time>2026-05-05T17:03:30.251Z</time></trkpt><trkpt lat="44.1337778" lon="12.2470096"><ele>44.0</ele><time>2026-05-05T17:03:31.251Z</time></trkpt><trkpt lat="44.133708" lon="12.2470405"><ele>44.0</ele><time>2026-05-05T17:03:33.251Z</time></trkpt><trkpt lat="44.1336468" lon="12.2470679"><ele>44.0</ele><time>2026-05-05T17:05:28.251Z</time></trkpt><trkpt lat="44.1336381" lon="12.2471577"><ele>44.0</ele><time>2026-05-05T17:05:36.251Z</time></trkpt></trkseg></trk></gpx>